<?xml version="1.0" encoding="UTF-8"?>
<gpx version="1.1" creator="https://www.youtrack.es" xsi:schemaLocation="http://www.topografix.com/GPX/1/1 http://www.topografix.com/GPX/1/1/gpx.xsd http://www.garmin.com/xmlschemas/GpxExtensions/v3 http://www.garmin.com/xmlschemas/GpxExtensionsv3.xsd http://www.garmin.com/xmlschemas/TrackPointExtension/v1 http://www.garmin.com/xmlschemas/TrackPointExtensionv1.xsd" xmlns:gpxtpx="http://www.garmin.com/xmlschemas/TrackPointExtension/v1" xmlns:gpxx="http://www.garmin.com/xmlschemas/GpxExtensions/v3" xmlns:xsi="http://www.w3.org/2001/XMLSchema-instance">
  <metadata>
    <author>
      <name>Anna Server</name>
      <email id="galtonetes" domain="gmail.com"/>
    </author>
    <link href="https://www.youtrack.es">
      <text>YouTrack.es</text>
    </link>
    <time>2026-05-08T14:49:23Z</time>
  </metadata>
  <trk>
    <src>https://www.youtrack.es</src>
    <link href="https://www.youtrack.es/ruta/15424-ruta-transpirenaica-2020">
      <text>YouTrack.es</text>
    </link>
    <trkseg>
      <trkpt lat="42.3663267306983470916748046875" lon="3.14928579144179821014404296875">
        <ele>12</ele>
        <time>2020-08-07T10:32:58.000Z</time>
      </trkpt>
      <trkpt lat="42.36622690223157405853271484375" lon="3.14950724132359027862548828125">
        <ele>11.6000003814697265625</ele>
        <time>2020-08-07T10:33:04.000Z</time>
      </trkpt>
      <trkpt lat="42.36613151617348194122314453125" lon="3.14975484274327754974365234375">
        <ele>11</ele>
        <time>2020-08-07T10:33:10.000Z</time>
      </trkpt>
      <trkpt lat="42.36611391417682170867919921875" lon="3.1497946567833423614501953125">
        <ele>11</ele>
        <time>2020-08-07T10:33:11.000Z</time>
      </trkpt>
      <trkpt lat="42.36599287949502468109130859375" lon="3.15006011165678501129150390625">
        <ele>10</ele>
        <time>2020-08-07T10:33:19.000Z</time>
      </trkpt>
      <trkpt lat="42.36598022282123565673828125" lon="3.15008207224309444427490234375">
        <ele>9.80000019073486328125</ele>
        <time>2020-08-07T10:33:23.000Z</time>
      </trkpt>
      <trkpt lat="42.36598047427833080291748046875" lon="3.15008140169084072113037109375">
        <ele>9.6000003814697265625</ele>
        <time>2020-08-07T10:33:39.000Z</time>
      </trkpt>
      <trkpt lat="42.36598080955445766448974609375" lon="3.1500813178718090057373046875">
        <ele>9.6000003814697265625</ele>
        <time>2020-08-07T10:34:01.000Z</time>
      </trkpt>
      <trkpt lat="42.365980558097362518310546875" lon="3.15008349716663360595703125">
        <ele>9.80000019073486328125</ele>
        <time>2020-08-07T10:34:22.000Z</time>
      </trkpt>
      <trkpt lat="42.365980558097362518310546875" lon="3.15008374862372875213623046875">
        <ele>9.6000003814697265625</ele>
        <time>2020-08-07T10:34:31.000Z</time>
      </trkpt>
      <trkpt lat="42.36598030664026737213134765625" lon="3.15008542500436305999755859375">
        <ele>9.6000003814697265625</ele>
        <time>2020-08-07T10:35:07.000Z</time>
      </trkpt>
      <trkpt lat="42.3659663088619709014892578125" lon="3.15012012608349323272705078125">
        <ele>9.3999996185302734375</ele>
        <time>2020-08-07T10:35:11.000Z</time>
      </trkpt>
      <trkpt lat="42.3658590205013751983642578125" lon="3.150168992578983306884765625">
        <ele>9.3999996185302734375</ele>
        <time>2020-08-07T10:35:16.000Z</time>
      </trkpt>
      <trkpt lat="42.365645281970500946044921875" lon="3.150085844099521636962890625">
        <ele>9.6000003814697265625</ele>
        <time>2020-08-07T10:35:23.000Z</time>
      </trkpt>
      <trkpt lat="42.36537530086934566497802734375" lon="3.14997277222573757171630859375">
        <ele>9</ele>
        <time>2020-08-07T10:35:30.000Z</time>
      </trkpt>
      <trkpt lat="42.3653323017060756683349609375" lon="3.14995265565812587738037109375">
        <ele>8.80000019073486328125</ele>
        <time>2020-08-07T10:35:31.000Z</time>
      </trkpt>
      <trkpt lat="42.365103475749492645263671875" lon="3.1498244963586330413818359375">
        <ele>8.19999980926513671875</ele>
        <time>2020-08-07T10:35:36.000Z</time>
      </trkpt>
      <trkpt lat="42.36505963839590549468994140625" lon="3.14978334121406078338623046875">
        <ele>8</ele>
        <time>2020-08-07T10:35:37.000Z</time>
      </trkpt>
      <trkpt lat="42.36497799865901470184326171875" lon="3.14968795515596866607666015625">
        <ele>7.80000019073486328125</ele>
        <time>2020-08-07T10:35:39.000Z</time>
      </trkpt>
      <trkpt lat="42.36493977718055248260498046875" lon="3.14963431097567081451416015625">
        <ele>7.80000019073486328125</ele>
        <time>2020-08-07T10:35:40.000Z</time>
      </trkpt>
      <trkpt lat="42.36483634449541568756103515625" lon="3.14945829100906848907470703125">
        <ele>7.19999980926513671875</ele>
        <time>2020-08-07T10:35:43.000Z</time>
      </trkpt>
      <trkpt lat="42.36477934755384922027587890625" lon="3.149328120052814483642578125">
        <ele>6.80000019073486328125</ele>
        <time>2020-08-07T10:35:45.000Z</time>
      </trkpt>
      <trkpt lat="42.3646637611091136932373046875" lon="3.14898974262177944183349609375">
        <ele>7</ele>
        <time>2020-08-07T10:35:50.000Z</time>
      </trkpt>
      <trkpt lat="42.36453610472381114959716796875" lon="3.14864055253565311431884765625">
        <ele>6.599999904632568359375</ele>
        <time>2020-08-07T10:35:56.000Z</time>
      </trkpt>
      <trkpt lat="42.364510037004947662353515625" lon="3.1485903449356555938720703125">
        <ele>6.599999904632568359375</ele>
        <time>2020-08-07T10:35:57.000Z</time>
      </trkpt>
      <trkpt lat="42.36439160071313381195068359375" lon="3.14840468578040599822998046875">
        <ele>6.80000019073486328125</ele>
        <time>2020-08-07T10:36:01.000Z</time>
      </trkpt>
      <trkpt lat="42.36428615637123584747314453125" lon="3.1482899375259876251220703125">
        <ele>6.400000095367431640625</ele>
        <time>2020-08-07T10:36:04.000Z</time>
      </trkpt>
      <trkpt lat="42.363977618515491485595703125" lon="3.14805440604686737060546875">
        <ele>6.599999904632568359375</ele>
        <time>2020-08-07T10:36:12.000Z</time>
      </trkpt>
      <trkpt lat="42.3635332100093364715576171875" lon="3.147732205688953399658203125">
        <ele>6.400000095367431640625</ele>
        <time>2020-08-07T10:36:24.000Z</time>
      </trkpt>
      <trkpt lat="42.3632173798978328704833984375" lon="3.14742802642285823822021484375">
        <ele>6.80000019073486328125</ele>
        <time>2020-08-07T10:36:33.000Z</time>
      </trkpt>
      <trkpt lat="42.36303557641804218292236328125" lon="3.1471332348883152008056640625">
        <ele>6.80000019073486328125</ele>
        <time>2020-08-07T10:36:40.000Z</time>
      </trkpt>
      <trkpt lat="42.3628365062177181243896484375" lon="3.14662001095712184906005859375">
        <ele>7.599999904632568359375</ele>
        <time>2020-08-07T10:36:51.000Z</time>
      </trkpt>
      <trkpt lat="42.36277640797197818756103515625" lon="3.146421276032924652099609375">
        <ele>8.19999980926513671875</ele>
        <time>2020-08-07T10:36:55.000Z</time>
      </trkpt>
      <trkpt lat="42.36270281486213207244873046875" lon="3.14618297852575778961181640625">
        <ele>8.19999980926513671875</ele>
        <time>2020-08-07T10:37:00.000Z</time>
      </trkpt>
      <trkpt lat="42.36251749098300933837890625" lon="3.14566564746201038360595703125">
        <ele>8.6000003814697265625</ele>
        <time>2020-08-07T10:37:11.000Z</time>
      </trkpt>
      <trkpt lat="42.3624430596828460693359375" lon="3.14553589560091495513916015625">
        <ele>9</ele>
        <time>2020-08-07T10:37:14.000Z</time>
      </trkpt>
      <trkpt lat="42.36232412047684192657470703125" lon="3.14538250677287578582763671875">
        <ele>9.19999980926513671875</ele>
        <time>2020-08-07T10:37:18.000Z</time>
      </trkpt>
      <trkpt lat="42.36229193396866321563720703125" lon="3.1453482247889041900634765625">
        <ele>9</ele>
        <time>2020-08-07T10:37:19.000Z</time>
      </trkpt>
      <trkpt lat="42.36203963868319988250732421875" lon="3.1451530940830707550048828125">
        <ele>9</ele>
        <time>2020-08-07T10:37:26.000Z</time>
      </trkpt>
      <trkpt lat="42.361725233495235443115234375" lon="3.1450347416102886199951171875">
        <ele>9.19999980926513671875</ele>
        <time>2020-08-07T10:37:34.000Z</time>
      </trkpt>
      <trkpt lat="42.36124184913933277130126953125" lon="3.14485059119760990142822265625">
        <ele>9.80000019073486328125</ele>
        <time>2020-08-07T10:37:46.000Z</time>
      </trkpt>
      <trkpt lat="42.36085477285087108612060546875" lon="3.144628889858722686767578125">
        <ele>10</ele>
        <time>2020-08-07T10:37:56.000Z</time>
      </trkpt>
      <trkpt lat="42.360577248036861419677734375" lon="3.1443514488637447357177734375">
        <ele>10.3999996185302734375</ele>
        <time>2020-08-07T10:38:04.000Z</time>
      </trkpt>
      <trkpt lat="42.36051262356340885162353515625" lon="3.14427257515490055084228515625">
        <ele>10.3999996185302734375</ele>
        <time>2020-08-07T10:38:06.000Z</time>
      </trkpt>
      <trkpt lat="42.36039142124354839324951171875" lon="3.14411222934722900390625">
        <ele>10</ele>
        <time>2020-08-07T10:38:10.000Z</time>
      </trkpt>
      <trkpt lat="42.3603417165577411651611328125" lon="3.14397049136459827423095703125">
        <ele>10</ele>
        <time>2020-08-07T10:38:13.000Z</time>
      </trkpt>
      <trkpt lat="42.36020651645958423614501953125" lon="3.1434797309339046478271484375">
        <ele>10</ele>
        <time>2020-08-07T10:38:23.000Z</time>
      </trkpt>
      <trkpt lat="42.36017458140850067138671875" lon="3.1431595422327518463134765625">
        <ele>9.3999996185302734375</ele>
        <time>2020-08-07T10:38:29.000Z</time>
      </trkpt>
      <trkpt lat="42.360147424042224884033203125" lon="3.14284010790288448333740234375">
        <ele>8.19999980926513671875</ele>
        <time>2020-08-07T10:38:35.000Z</time>
      </trkpt>
      <trkpt lat="42.36020098440349102020263671875" lon="3.14266174100339412689208984375">
        <ele>7.599999904632568359375</ele>
        <time>2020-08-07T10:38:40.000Z</time>
      </trkpt>
      <trkpt lat="42.360269464552402496337890625" lon="3.14249611459672451019287109375">
        <ele>7.400000095367431640625</ele>
        <time>2020-08-07T10:38:46.000Z</time>
      </trkpt>
      <trkpt lat="42.36034196801483631134033203125" lon="3.1424232758581638336181640625">
        <ele>7.599999904632568359375</ele>
        <time>2020-08-07T10:38:50.000Z</time>
      </trkpt>
      <trkpt lat="42.36036158166825771331787109375" lon="3.14242771826684474945068359375">
        <ele>7.599999904632568359375</ele>
        <time>2020-08-07T10:38:51.000Z</time>
      </trkpt>
      <trkpt lat="42.3604365997016429901123046875" lon="3.14250600524246692657470703125">
        <ele>8.6000003814697265625</ele>
        <time>2020-08-07T10:38:56.000Z</time>
      </trkpt>
      <trkpt lat="42.360450513660907745361328125" lon="3.1425221823155879974365234375">
        <ele>8.6000003814697265625</ele>
        <time>2020-08-07T10:38:57.000Z</time>
      </trkpt>
      <trkpt lat="42.3605150543153285980224609375" lon="3.14258563332259654998779296875">
        <ele>9.19999980926513671875</ele>
        <time>2020-08-07T10:39:01.000Z</time>
      </trkpt>
      <trkpt lat="42.36059225164353847503662109375" lon="3.1426720507442951202392578125">
        <ele>9.80000019073486328125</ele>
        <time>2020-08-07T10:39:05.000Z</time>
      </trkpt>
      <trkpt lat="42.360719405114650726318359375" lon="3.14284513704478740692138671875">
        <ele>9.80000019073486328125</ele>
        <time>2020-08-07T10:39:11.000Z</time>
      </trkpt>
      <trkpt lat="42.36084370873868465423583984375" lon="3.1430559419095516204833984375">
        <ele>9.3999996185302734375</ele>
        <time>2020-08-07T10:39:18.000Z</time>
      </trkpt>
      <trkpt lat="42.3608627356588840484619140625" lon="3.143085278570652008056640625">
        <ele>9.6000003814697265625</ele>
        <time>2020-08-07T10:39:19.000Z</time>
      </trkpt>
      <trkpt lat="42.36099642701447010040283203125" lon="3.14324411563575267791748046875">
        <ele>9.3999996185302734375</ele>
        <time>2020-08-07T10:39:25.000Z</time>
      </trkpt>
      <trkpt lat="42.3612275160849094390869140625" lon="3.1434814073145389556884765625">
        <ele>9.19999980926513671875</ele>
        <time>2020-08-07T10:39:34.000Z</time>
      </trkpt>
      <trkpt lat="42.36141107976436614990234375" lon="3.143723309040069580078125">
        <ele>10</ele>
        <time>2020-08-07T10:39:42.000Z</time>
      </trkpt>
      <trkpt lat="42.36159489490091800689697265625" lon="3.1439459323883056640625">
        <ele>8.80000019073486328125</ele>
        <time>2020-08-07T10:39:50.000Z</time>
      </trkpt>
      <trkpt lat="42.36169514246284961700439453125" lon="3.1439112313091754913330078125">
        <ele>8.6000003814697265625</ele>
        <time>2020-08-07T10:39:54.000Z</time>
      </trkpt>
      <trkpt lat="42.36176311969757080078125" lon="3.14375440590083599090576171875">
        <ele>8.3999996185302734375</ele>
        <time>2020-08-07T10:39:58.000Z</time>
      </trkpt>
      <trkpt lat="42.3617817275226116180419921875" lon="3.1437139213085174560546875">
        <ele>8.19999980926513671875</ele>
        <time>2020-08-07T10:39:59.000Z</time>
      </trkpt>
      <trkpt lat="42.3619436658918857574462890625" lon="3.14344461075961589813232421875">
        <ele>8.80000019073486328125</ele>
        <time>2020-08-07T10:40:07.000Z</time>
      </trkpt>
      <trkpt lat="42.3620341904461383819580078125" lon="3.1432500667870044708251953125">
        <ele>7.80000019073486328125</ele>
        <time>2020-08-07T10:40:12.000Z</time>
      </trkpt>
      <trkpt lat="42.36202086322009563446044921875" lon="3.1430334784090518951416015625">
        <ele>7.599999904632568359375</ele>
        <time>2020-08-07T10:40:17.000Z</time>
      </trkpt>
      <trkpt lat="42.36203469336032867431640625" lon="3.1428125314414501190185546875">
        <ele>7.80000019073486328125</ele>
        <time>2020-08-07T10:40:23.000Z</time>
      </trkpt>
      <trkpt lat="42.3620412312448024749755859375" lon="3.14260373823344707489013671875">
        <ele>8</ele>
        <time>2020-08-07T10:40:29.000Z</time>
      </trkpt>
      <trkpt lat="42.362060509622097015380859375" lon="3.142264522612094879150390625">
        <ele>7.599999904632568359375</ele>
        <time>2020-08-07T10:40:38.000Z</time>
      </trkpt>
      <trkpt lat="42.3621126450598239898681640625" lon="3.14201097004115581512451171875">
        <ele>7.80000019073486328125</ele>
        <time>2020-08-07T10:40:45.000Z</time>
      </trkpt>
      <trkpt lat="42.36211256124079227447509765625" lon="3.142008371651172637939453125">
        <ele>8</ele>
        <time>2020-08-07T10:40:52.000Z</time>
      </trkpt>
      <trkpt lat="42.3621118068695068359375" lon="3.14200845547020435333251953125">
        <ele>8.19999980926513671875</ele>
        <time>2020-08-07T10:41:11.000Z</time>
      </trkpt>
      <trkpt lat="42.36211038194596767425537109375" lon="3.14199370332062244415283203125">
        <ele>8</ele>
        <time>2020-08-07T10:41:37.000Z</time>
      </trkpt>
      <trkpt lat="42.36211071722209453582763671875" lon="3.1418962217867374420166015625">
        <ele>7.80000019073486328125</ele>
        <time>2020-08-07T10:41:42.000Z</time>
      </trkpt>
      <trkpt lat="42.36215095035731792449951171875" lon="3.141713999211788177490234375">
        <ele>7.80000019073486328125</ele>
        <time>2020-08-07T10:41:48.000Z</time>
      </trkpt>
      <trkpt lat="42.3621989786624908447265625" lon="3.14139389432966709136962890625">
        <ele>8.6000003814697265625</ele>
        <time>2020-08-07T10:41:56.000Z</time>
      </trkpt>
      <trkpt lat="42.36222722567617893218994140625" lon="3.14126799814403057098388671875">
        <ele>8.80000019073486328125</ele>
        <time>2020-08-07T10:41:59.000Z</time>
      </trkpt>
      <trkpt lat="42.362258993089199066162109375" lon="3.14106834121048450469970703125">
        <ele>8.80000019073486328125</ele>
        <time>2020-08-07T10:42:04.000Z</time>
      </trkpt>
      <trkpt lat="42.3622776009142398834228515625" lon="3.1407971866428852081298828125">
        <ele>9</ele>
        <time>2020-08-07T10:42:11.000Z</time>
      </trkpt>
      <trkpt lat="42.36228489316999912261962890625" lon="3.14046442508697509765625">
        <ele>9.6000003814697265625</ele>
        <time>2020-08-07T10:42:19.000Z</time>
      </trkpt>
      <trkpt lat="42.36228757537901401519775390625" lon="3.1404255330562591552734375">
        <ele>9.6000003814697265625</ele>
        <time>2020-08-07T10:42:20.000Z</time>
      </trkpt>
      <trkpt lat="42.3623419739305973052978515625" lon="3.14018690027296543121337890625">
        <ele>9.80000019073486328125</ele>
        <time>2020-08-07T10:42:27.000Z</time>
      </trkpt>
      <trkpt lat="42.3624376952648162841796875" lon="3.1398837268352508544921875">
        <ele>10</ele>
        <time>2020-08-07T10:42:36.000Z</time>
      </trkpt>
      <trkpt lat="42.36249326728284358978271484375" lon="3.13971919007599353790283203125">
        <ele>10.80000019073486328125</ele>
        <time>2020-08-07T10:42:41.000Z</time>
      </trkpt>
      <trkpt lat="42.36253299750387668609619140625" lon="3.13959614373743534088134765625">
        <ele>11.6000003814697265625</ele>
        <time>2020-08-07T10:42:45.000Z</time>
      </trkpt>
      <trkpt lat="42.36254992894828319549560546875" lon="3.13953663222491741180419921875">
        <ele>12</ele>
        <time>2020-08-07T10:42:47.000Z</time>
      </trkpt>
      <trkpt lat="42.36258110962808132171630859375" lon="3.13944359309971332550048828125">
        <ele>12.6000003814697265625</ele>
        <time>2020-08-07T10:42:52.000Z</time>
      </trkpt>
      <trkpt lat="42.3625833727419376373291015625" lon="3.13943219371140003204345703125">
        <ele>12.80000019073486328125</ele>
        <time>2020-08-07T10:43:02.000Z</time>
      </trkpt>
      <trkpt lat="42.36261312849819660186767578125" lon="3.13934527337551116943359375">
        <ele>13</ele>
        <time>2020-08-07T10:43:10.000Z</time>
      </trkpt>
      <trkpt lat="42.36261882819235324859619140625" lon="3.13931585289537906646728515625">
        <ele>13.19999980926513671875</ele>
        <time>2020-08-07T10:43:13.000Z</time>
      </trkpt>
      <trkpt lat="42.36262142658233642578125" lon="3.13930093310773372650146484375">
        <ele>13.6000003814697265625</ele>
        <time>2020-08-07T10:43:20.000Z</time>
      </trkpt>
      <trkpt lat="42.36262167803943157196044921875" lon="3.13930126838386058807373046875">
        <ele>13.6000003814697265625</ele>
        <time>2020-08-07T10:43:25.000Z</time>
      </trkpt>
      <trkpt lat="42.36264766193926334381103515625" lon="3.139283917844295501708984375">
        <ele>9.19999980926513671875</ele>
        <time>2020-08-07T11:14:36.000Z</time>
      </trkpt>
      <trkpt lat="42.36265252344310283660888671875" lon="3.13927243463695049285888671875">
        <ele>11.80000019073486328125</ele>
        <time>2020-08-07T11:14:42.000Z</time>
      </trkpt>
      <trkpt lat="42.3626561276614665985107421875" lon="3.13926069997251033782958984375">
        <ele>11.80000019073486328125</ele>
        <time>2020-08-07T11:14:43.000Z</time>
      </trkpt>
      <trkpt lat="42.3626762442290782928466796875" lon="3.13920320011675357818603515625">
        <ele>11.80000019073486328125</ele>
        <time>2020-08-07T11:14:48.000Z</time>
      </trkpt>
      <trkpt lat="42.36268856562674045562744140625" lon="3.13917822204530239105224609375">
        <ele>11.80000019073486328125</ele>
        <time>2020-08-07T11:14:50.000Z</time>
      </trkpt>
      <trkpt lat="42.36273969523608684539794921875" lon="3.13906230032444000244140625">
        <ele>12.3999996185302734375</ele>
        <time>2020-08-07T11:14:57.000Z</time>
      </trkpt>
      <trkpt lat="42.3627590574324131011962890625" lon="3.13902550376951694488525390625">
        <ele>12.80000019073486328125</ele>
        <time>2020-08-07T11:14:59.000Z</time>
      </trkpt>
      <trkpt lat="42.36279753036797046661376953125" lon="3.1389530003070831298828125">
        <ele>13.80000019073486328125</ele>
        <time>2020-08-07T11:15:03.000Z</time>
      </trkpt>
      <trkpt lat="42.3628254421055316925048828125" lon="3.1388988532125949859619140625">
        <ele>14.3999996185302734375</ele>
        <time>2020-08-07T11:15:06.000Z</time>
      </trkpt>
      <trkpt lat="42.362843044102191925048828125" lon="3.1388656608760356903076171875">
        <ele>14.80000019073486328125</ele>
        <time>2020-08-07T11:15:08.000Z</time>
      </trkpt>
      <trkpt lat="42.36287699081003665924072265625" lon="3.138787709176540374755859375">
        <ele>15.6000003814697265625</ele>
        <time>2020-08-07T11:15:12.000Z</time>
      </trkpt>
      <trkpt lat="42.36290414817631244659423828125" lon="3.13872274942696094512939453125">
        <ele>15.80000019073486328125</ele>
        <time>2020-08-07T11:15:15.000Z</time>
      </trkpt>
      <trkpt lat="42.36294203437864780426025390625" lon="3.1386564485728740692138671875">
        <ele>16.3999996185302734375</ele>
        <time>2020-08-07T11:15:18.000Z</time>
      </trkpt>
      <trkpt lat="42.36297103576362133026123046875" lon="3.138613365590572357177734375">
        <ele>17</ele>
        <time>2020-08-07T11:15:20.000Z</time>
      </trkpt>
      <trkpt lat="42.363035492599010467529296875" lon="3.13850230537354946136474609375">
        <ele>17.3999996185302734375</ele>
        <time>2020-08-07T11:15:25.000Z</time>
      </trkpt>
      <trkpt lat="42.36308343708515167236328125" lon="3.13846726901829242706298828125">
        <ele>18.200000762939453125</ele>
        <time>2020-08-07T11:15:28.000Z</time>
      </trkpt>
      <trkpt lat="42.363119982182979583740234375" lon="3.1384281255304813385009765625">
        <ele>18.6000003814697265625</ele>
        <time>2020-08-07T11:15:31.000Z</time>
      </trkpt>
      <trkpt lat="42.3631657473742961883544921875" lon="3.13833684660494327545166015625">
        <ele>19.200000762939453125</ele>
        <time>2020-08-07T11:15:36.000Z</time>
      </trkpt>
      <trkpt lat="42.3631925694644451141357421875" lon="3.13827532343566417694091796875">
        <ele>19.3999996185302734375</ele>
        <time>2020-08-07T11:15:39.000Z</time>
      </trkpt>
      <trkpt lat="42.36325685866177082061767578125" lon="3.13814708031713962554931640625">
        <ele>20.200000762939453125</ele>
        <time>2020-08-07T11:15:45.000Z</time>
      </trkpt>
      <trkpt lat="42.36326716840267181396484375" lon="3.1381267122924327850341796875">
        <ele>20.200000762939453125</ele>
        <time>2020-08-07T11:15:46.000Z</time>
      </trkpt>
      <trkpt lat="42.36333581618964672088623046875" lon="3.13798128627240657806396484375">
        <ele>21</ele>
        <time>2020-08-07T11:15:54.000Z</time>
      </trkpt>
      <trkpt lat="42.36336146481335163116455078125" lon="3.13792948611080646514892578125">
        <ele>21.200000762939453125</ele>
        <time>2020-08-07T11:15:57.000Z</time>
      </trkpt>
      <trkpt lat="42.36341376788914203643798828125" lon="3.137855641543865203857421875">
        <ele>22</ele>
        <time>2020-08-07T11:16:01.000Z</time>
      </trkpt>
      <trkpt lat="42.36343614757061004638671875" lon="3.137819431722164154052734375">
        <ele>22.3999996185302734375</ele>
        <time>2020-08-07T11:16:03.000Z</time>
      </trkpt>
      <trkpt lat="42.36348954029381275177001953125" lon="3.13773234374821186065673828125">
        <ele>23.3999996185302734375</ele>
        <time>2020-08-07T11:16:08.000Z</time>
      </trkpt>
      <trkpt lat="42.3635006882250308990478515625" lon="3.1377156637609004974365234375">
        <ele>23.6000003814697265625</ele>
        <time>2020-08-07T11:16:09.000Z</time>
      </trkpt>
      <trkpt lat="42.36357025802135467529296875" lon="3.1376145780086517333984375">
        <ele>24.3999996185302734375</ele>
        <time>2020-08-07T11:16:15.000Z</time>
      </trkpt>
      <trkpt lat="42.363602779805660247802734375" lon="3.137563951313495635986328125">
        <ele>24.6000003814697265625</ele>
        <time>2020-08-07T11:16:18.000Z</time>
      </trkpt>
      <trkpt lat="42.3636354692280292510986328125" lon="3.1375111453235149383544921875">
        <ele>25.6000003814697265625</ele>
        <time>2020-08-07T11:16:21.000Z</time>
      </trkpt>
      <trkpt lat="42.3636822402477264404296875" lon="3.1374454312026500701904296875">
        <ele>26.6000003814697265625</ele>
        <time>2020-08-07T11:16:25.000Z</time>
      </trkpt>
      <trkpt lat="42.36378081142902374267578125" lon="3.13730587251484394073486328125">
        <ele>27</ele>
        <time>2020-08-07T11:16:33.000Z</time>
      </trkpt>
      <trkpt lat="42.363832108676433563232421875" lon="3.1372402422130107879638671875">
        <ele>27.6000003814697265625</ele>
        <time>2020-08-07T11:16:37.000Z</time>
      </trkpt>
      <trkpt lat="42.36391215585172176361083984375" lon="3.13714426942169666290283203125">
        <ele>28.799999237060546875</ele>
        <time>2020-08-07T11:16:43.000Z</time>
      </trkpt>
      <trkpt lat="42.36392506398260593414306640625" lon="3.137128092348575592041015625">
        <ele>28.799999237060546875</ele>
        <time>2020-08-07T11:16:44.000Z</time>
      </trkpt>
      <trkpt lat="42.36400435678660869598388671875" lon="3.13701787032186985015869140625">
        <ele>29.6000003814697265625</ele>
        <time>2020-08-07T11:16:50.000Z</time>
      </trkpt>
      <trkpt lat="42.36403386108577251434326171875" lon="3.1369871087372303009033203125">
        <ele>30</ele>
        <time>2020-08-07T11:16:52.000Z</time>
      </trkpt>
      <trkpt lat="42.364139221608638763427734375" lon="3.13689918257296085357666015625">
        <ele>30.799999237060546875</ele>
        <time>2020-08-07T11:16:59.000Z</time>
      </trkpt>
      <trkpt lat="42.364156655967235565185546875" lon="3.13688971102237701416015625">
        <ele>31.200000762939453125</ele>
        <time>2020-08-07T11:17:00.000Z</time>
      </trkpt>
      <trkpt lat="42.3642500303685665130615234375" lon="3.136825673282146453857421875">
        <ele>32.200000762939453125</ele>
        <time>2020-08-07T11:17:06.000Z</time>
      </trkpt>
      <trkpt lat="42.36426486633718013763427734375" lon="3.13681469298899173736572265625">
        <ele>32.200000762939453125</ele>
        <time>2020-08-07T11:17:07.000Z</time>
      </trkpt>
      <trkpt lat="42.36435480415821075439453125" lon="3.13671813346445560455322265625">
        <ele>33.40000152587890625</ele>
        <time>2020-08-07T11:17:14.000Z</time>
      </trkpt>
      <trkpt lat="42.36444356851279735565185546875" lon="3.1365998648107051849365234375">
        <ele>34.40000152587890625</ele>
        <time>2020-08-07T11:17:22.000Z</time>
      </trkpt>
      <trkpt lat="42.36444910056889057159423828125" lon="3.13658083789050579071044921875">
        <ele>34.40000152587890625</ele>
        <time>2020-08-07T11:17:23.000Z</time>
      </trkpt>
      <trkpt lat="42.36449469812214374542236328125" lon="3.1364692747592926025390625">
        <ele>35.59999847412109375</ele>
        <time>2020-08-07T11:17:29.000Z</time>
      </trkpt>
      <trkpt lat="42.36451313830912113189697265625" lon="3.13643499277532100677490234375">
        <ele>36.200000762939453125</ele>
        <time>2020-08-07T11:17:31.000Z</time>
      </trkpt>
      <trkpt lat="42.36453560180962085723876953125" lon="3.13638201914727687835693359375">
        <ele>36.59999847412109375</ele>
        <time>2020-08-07T11:17:34.000Z</time>
      </trkpt>
      <trkpt lat="42.36456669867038726806640625" lon="3.13631747849285602569580078125">
        <ele>37.40000152587890625</ele>
        <time>2020-08-07T11:17:38.000Z</time>
      </trkpt>
      <trkpt lat="42.3645749129354953765869140625" lon="3.1363002955913543701171875">
        <ele>37.59999847412109375</ele>
        <time>2020-08-07T11:17:39.000Z</time>
      </trkpt>
      <trkpt lat="42.364621348679065704345703125" lon="3.13622024841606616973876953125">
        <ele>38.59999847412109375</ele>
        <time>2020-08-07T11:17:44.000Z</time>
      </trkpt>
      <trkpt lat="42.3646513558924198150634765625" lon="3.13617414794862270355224609375">
        <ele>39.40000152587890625</ele>
        <time>2020-08-07T11:17:47.000Z</time>
      </trkpt>
      <trkpt lat="42.36470726318657398223876953125" lon="3.13609854318201541900634765625">
        <ele>39.799999237060546875</ele>
        <time>2020-08-07T11:17:52.000Z</time>
      </trkpt>
      <trkpt lat="42.3647351749241352081298828125" lon="3.13604422844946384429931640625">
        <ele>40.59999847412109375</ele>
        <time>2020-08-07T11:17:55.000Z</time>
      </trkpt>
      <trkpt lat="42.364758811891078948974609375" lon="3.1360134668648242950439453125">
        <ele>40.799999237060546875</ele>
        <time>2020-08-07T11:17:57.000Z</time>
      </trkpt>
      <trkpt lat="42.36484237946569919586181640625" lon="3.135949932038784027099609375">
        <ele>41.799999237060546875</ele>
        <time>2020-08-07T11:18:03.000Z</time>
      </trkpt>
      <trkpt lat="42.36485771834850311279296875" lon="3.13593962229788303375244140625">
        <ele>41.799999237060546875</ele>
        <time>2020-08-07T11:18:04.000Z</time>
      </trkpt>
      <trkpt lat="42.3649772442877292633056640625" lon="3.13585613854229450225830078125">
        <ele>42.59999847412109375</ele>
        <time>2020-08-07T11:18:12.000Z</time>
      </trkpt>
      <trkpt lat="42.36500817351043224334716796875" lon="3.13584155403077602386474609375">
        <ele>42.799999237060546875</ele>
        <time>2020-08-07T11:18:14.000Z</time>
      </trkpt>
      <trkpt lat="42.36508436501026153564453125" lon="3.13580484129488468170166015625">
        <ele>44</ele>
        <time>2020-08-07T11:18:19.000Z</time>
      </trkpt>
      <trkpt lat="42.365098781883716583251953125" lon="3.13579645939171314239501953125">
        <ele>44.200000762939453125</ele>
        <time>2020-08-07T11:18:20.000Z</time>
      </trkpt>
      <trkpt lat="42.36512635834515094757080078125" lon="3.135775588452816009521484375">
        <ele>44.40000152587890625</ele>
        <time>2020-08-07T11:18:22.000Z</time>
      </trkpt>
      <trkpt lat="42.365178577601909637451171875" lon="3.13573510386049747467041015625">
        <ele>45.40000152587890625</ele>
        <time>2020-08-07T11:18:26.000Z</time>
      </trkpt>
      <trkpt lat="42.3652189783751964569091796875" lon="3.13570593483746051788330078125">
        <ele>45.799999237060546875</ele>
        <time>2020-08-07T11:18:29.000Z</time>
      </trkpt>
      <trkpt lat="42.3652622289955615997314453125" lon="3.1356547214090824127197265625">
        <ele>46.40000152587890625</ele>
        <time>2020-08-07T11:18:33.000Z</time>
      </trkpt>
      <trkpt lat="42.36531235277652740478515625" lon="3.1356057710945606231689453125">
        <ele>47.59999847412109375</ele>
        <time>2020-08-07T11:18:37.000Z</time>
      </trkpt>
      <trkpt lat="42.3653916455805301666259765625" lon="3.13551030121743679046630859375">
        <ele>48.59999847412109375</ele>
        <time>2020-08-07T11:18:44.000Z</time>
      </trkpt>
      <trkpt lat="42.36541771329939365386962890625" lon="3.13546654768288135528564453125">
        <ele>49.200000762939453125</ele>
        <time>2020-08-07T11:18:47.000Z</time>
      </trkpt>
      <trkpt lat="42.365445457398891448974609375" lon="3.13539630733430385589599609375">
        <ele>49.799999237060546875</ele>
        <time>2020-08-07T11:18:51.000Z</time>
      </trkpt>
      <trkpt lat="42.36546448431909084320068359375" lon="3.1353402324020862579345703125">
        <ele>50.59999847412109375</ele>
        <time>2020-08-07T11:18:54.000Z</time>
      </trkpt>
      <trkpt lat="42.36547605134546756744384765625" lon="3.13532422296702861785888671875">
        <ele>50.799999237060546875</ele>
        <time>2020-08-07T11:18:55.000Z</time>
      </trkpt>
      <trkpt lat="42.36553656868636608123779296875" lon="3.13523554243147373199462890625">
        <ele>51.200000762939453125</ele>
        <time>2020-08-07T11:19:00.000Z</time>
      </trkpt>
      <trkpt lat="42.36562457866966724395751953125" lon="3.13511668704450130462646484375">
        <ele>52</ele>
        <time>2020-08-07T11:19:07.000Z</time>
      </trkpt>
      <trkpt lat="42.3656370677053928375244140625" lon="3.135101683437824249267578125">
        <ele>52.200000762939453125</ele>
        <time>2020-08-07T11:19:08.000Z</time>
      </trkpt>
      <trkpt lat="42.36565123312175273895263671875" lon="3.135091625154018402099609375">
        <ele>52.40000152587890625</ele>
        <time>2020-08-07T11:19:09.000Z</time>
      </trkpt>
      <trkpt lat="42.365701608359813690185546875" lon="3.13504057936370372772216796875">
        <ele>52.799999237060546875</ele>
        <time>2020-08-07T11:19:13.000Z</time>
      </trkpt>
      <trkpt lat="42.365714013576507568359375" lon="3.1350270844995975494384765625">
        <ele>53</ele>
        <time>2020-08-07T11:19:14.000Z</time>
      </trkpt>
      <trkpt lat="42.3657259158790111541748046875" lon="3.13501392491161823272705078125">
        <ele>53.200000762939453125</ele>
        <time>2020-08-07T11:19:15.000Z</time>
      </trkpt>
      <trkpt lat="42.365816272795200347900390625" lon="3.13491635955870151519775390625">
        <ele>54.200000762939453125</ele>
        <time>2020-08-07T11:19:22.000Z</time>
      </trkpt>
      <trkpt lat="42.36582758836448192596435546875" lon="3.13490345142781734466552734375">
        <ele>54.40000152587890625</ele>
        <time>2020-08-07T11:19:23.000Z</time>
      </trkpt>
      <trkpt lat="42.365902774035930633544921875" lon="3.13483220525085926055908203125">
        <ele>55.40000152587890625</ele>
        <time>2020-08-07T11:19:29.000Z</time>
      </trkpt>
      <trkpt lat="42.3659140057861804962158203125" lon="3.13481963239610195159912109375">
        <ele>55.799999237060546875</ele>
        <time>2020-08-07T11:19:30.000Z</time>
      </trkpt>
      <trkpt lat="42.36594736576080322265625" lon="3.1347809918224811553955078125">
        <ele>56.59999847412109375</ele>
        <time>2020-08-07T11:19:33.000Z</time>
      </trkpt>
      <trkpt lat="42.366026826202869415283203125" lon="3.13469876535236835479736328125">
        <ele>57.59999847412109375</ele>
        <time>2020-08-07T11:19:40.000Z</time>
      </trkpt>
      <trkpt lat="42.366098575294017791748046875" lon="3.13461863435804843902587890625">
        <ele>58.200000762939453125</ele>
        <time>2020-08-07T11:19:46.000Z</time>
      </trkpt>
      <trkpt lat="42.366140149533748626708984375" lon="3.1345818378031253814697265625">
        <ele>58.799999237060546875</ele>
        <time>2020-08-07T11:19:49.000Z</time>
      </trkpt>
      <trkpt lat="42.3661862500011920928955078125" lon="3.1345241703093051910400390625">
        <ele>59.59999847412109375</ele>
        <time>2020-08-07T11:19:53.000Z</time>
      </trkpt>
      <trkpt lat="42.36625674180686473846435546875" lon="3.13445300795137882232666015625">
        <ele>59.799999237060546875</ele>
        <time>2020-08-07T11:19:58.000Z</time>
      </trkpt>
      <trkpt lat="42.36627065576612949371337890625" lon="3.13443909399211406707763671875">
        <ele>59.799999237060546875</ele>
        <time>2020-08-07T11:19:59.000Z</time>
      </trkpt>
      <trkpt lat="42.36635045148432254791259765625" lon="3.1343354098498821258544921875">
        <ele>61</ele>
        <time>2020-08-07T11:20:06.000Z</time>
      </trkpt>
      <trkpt lat="42.36637182533740997314453125" lon="3.13430414535105228424072265625">
        <ele>61.40000152587890625</ele>
        <time>2020-08-07T11:20:08.000Z</time>
      </trkpt>
      <trkpt lat="42.36644600518047809600830078125" lon="3.13420305959880352020263671875">
        <ele>62.200000762939453125</ele>
        <time>2020-08-07T11:20:15.000Z</time>
      </trkpt>
      <trkpt lat="42.36645723693072795867919921875" lon="3.13418746925890445709228515625">
        <ele>62.59999847412109375</ele>
        <time>2020-08-07T11:20:16.000Z</time>
      </trkpt>
      <trkpt lat="42.36654616892337799072265625" lon="3.13408076763153076171875">
        <ele>63.200000762939453125</ele>
        <time>2020-08-07T11:20:24.000Z</time>
      </trkpt>
      <trkpt lat="42.3665547184646129608154296875" lon="3.13406626693904399871826171875">
        <ele>63.40000152587890625</ele>
        <time>2020-08-07T11:20:25.000Z</time>
      </trkpt>
      <trkpt lat="42.36658598296344280242919921875" lon="3.13398144207894802093505859375">
        <ele>64.59999847412109375</ele>
        <time>2020-08-07T11:20:30.000Z</time>
      </trkpt>
      <trkpt lat="42.366630993783473968505859375" lon="3.13384179957211017608642578125">
        <ele>65.8000030517578125</ele>
        <time>2020-08-07T11:20:38.000Z</time>
      </trkpt>
      <trkpt lat="42.36663736402988433837890625" lon="3.1338070146739482879638671875">
        <ele>66</ele>
        <time>2020-08-07T11:20:40.000Z</time>
      </trkpt>
      <trkpt lat="42.36667902208864688873291015625" lon="3.13368304632604122161865234375">
        <ele>66.8000030517578125</ele>
        <time>2020-08-07T11:20:47.000Z</time>
      </trkpt>
      <trkpt lat="42.36670282669365406036376953125" lon="3.13360827974975109100341796875">
        <ele>67.59999847412109375</ele>
        <time>2020-08-07T11:20:51.000Z</time>
      </trkpt>
      <trkpt lat="42.3667265474796295166015625" lon="3.1335552223026752471923828125">
        <ele>67.8000030517578125</ele>
        <time>2020-08-07T11:20:54.000Z</time>
      </trkpt>
      <trkpt lat="42.3667803592979907989501953125" lon="3.133438713848590850830078125">
        <ele>68.8000030517578125</ele>
        <time>2020-08-07T11:21:01.000Z</time>
      </trkpt>
      <trkpt lat="42.3668008111417293548583984375" lon="3.13340594060719013214111328125">
        <ele>69</ele>
        <time>2020-08-07T11:21:03.000Z</time>
      </trkpt>
      <trkpt lat="42.36683643423020839691162109375" lon="3.13332094810903072357177734375">
        <ele>69.40000152587890625</ele>
        <time>2020-08-07T11:21:07.000Z</time>
      </trkpt>
      <trkpt lat="42.36687834374606609344482421875" lon="3.1332320161163806915283203125">
        <ele>70</ele>
        <time>2020-08-07T11:21:12.000Z</time>
      </trkpt>
      <trkpt lat="42.36689887940883636474609375" lon="3.13318063504993915557861328125">
        <ele>71</ele>
        <time>2020-08-07T11:21:15.000Z</time>
      </trkpt>
      <trkpt lat="42.36690633930265903472900390625" lon="3.1331647932529449462890625">
        <ele>71.1999969482421875</ele>
        <time>2020-08-07T11:21:16.000Z</time>
      </trkpt>
      <trkpt lat="42.36695143394172191619873046875" lon="3.13302506692707538604736328125">
        <ele>72.40000152587890625</ele>
        <time>2020-08-07T11:21:24.000Z</time>
      </trkpt>
      <trkpt lat="42.36695730127394199371337890625" lon="3.13300796784460544586181640625">
        <ele>72.40000152587890625</ele>
        <time>2020-08-07T11:21:25.000Z</time>
      </trkpt>
      <trkpt lat="42.36699652858078479766845703125" lon="3.13290704973042011260986328125">
        <ele>73.59999847412109375</ele>
        <time>2020-08-07T11:21:31.000Z</time>
      </trkpt>
      <trkpt lat="42.367001809179782867431640625" lon="3.13288944773375988006591796875">
        <ele>73.8000030517578125</ele>
        <time>2020-08-07T11:21:32.000Z</time>
      </trkpt>
      <trkpt lat="42.36703206785023212432861328125" lon="3.13280227594077587127685546875">
        <ele>74.59999847412109375</ele>
        <time>2020-08-07T11:21:37.000Z</time>
      </trkpt>
      <trkpt lat="42.3670462332665920257568359375" lon="3.1327696703374385833740234375">
        <ele>75.1999969482421875</ele>
        <time>2020-08-07T11:21:39.000Z</time>
      </trkpt>
      <trkpt lat="42.367061488330364227294921875" lon="3.13273974694311618804931640625">
        <ele>75.59999847412109375</ele>
        <time>2020-08-07T11:21:41.000Z</time>
      </trkpt>
      <trkpt lat="42.3671136237680912017822265625" lon="3.1326162815093994140625">
        <ele>76.59999847412109375</ele>
        <time>2020-08-07T11:21:48.000Z</time>
      </trkpt>
      <trkpt lat="42.36712108366191387176513671875" lon="3.132599852979183197021484375">
        <ele>77</ele>
        <time>2020-08-07T11:21:49.000Z</time>
      </trkpt>
      <trkpt lat="42.36716349609196186065673828125" lon="3.13250153325498104095458984375">
        <ele>78.1999969482421875</ele>
        <time>2020-08-07T11:21:55.000Z</time>
      </trkpt>
      <trkpt lat="42.36717355437576770782470703125" lon="3.13246431760489940643310546875">
        <ele>78.59999847412109375</ele>
        <time>2020-08-07T11:21:57.000Z</time>
      </trkpt>
      <trkpt lat="42.36720590852200984954833984375" lon="3.13239927403628826141357421875">
        <ele>79.40000152587890625</ele>
        <time>2020-08-07T11:22:01.000Z</time>
      </trkpt>
      <trkpt lat="42.3672366701066493988037109375" lon="3.1323373317718505859375">
        <ele>80.1999969482421875</ele>
        <time>2020-08-07T11:22:05.000Z</time>
      </trkpt>
      <trkpt lat="42.36725586466491222381591796875" lon="3.132307827472686767578125">
        <ele>80.40000152587890625</ele>
        <time>2020-08-07T11:22:07.000Z</time>
      </trkpt>
      <trkpt lat="42.36730816774070262908935546875" lon="3.1322045624256134033203125">
        <ele>81.1999969482421875</ele>
        <time>2020-08-07T11:22:13.000Z</time>
      </trkpt>
      <trkpt lat="42.367317974567413330078125" lon="3.13218989409506320953369140625">
        <ele>81.40000152587890625</ele>
        <time>2020-08-07T11:22:14.000Z</time>
      </trkpt>
      <trkpt lat="42.367359213531017303466796875" lon="3.13211378641426563262939453125">
        <ele>82.40000152587890625</ele>
        <time>2020-08-07T11:22:19.000Z</time>
      </trkpt>
      <trkpt lat="42.3673758096992969512939453125" lon="3.13208185136318206787109375">
        <ele>83.1999969482421875</ele>
        <time>2020-08-07T11:22:21.000Z</time>
      </trkpt>
      <trkpt lat="42.36738259904086589813232421875" lon="3.13206517137587070465087890625">
        <ele>83.59999847412109375</ele>
        <time>2020-08-07T11:22:22.000Z</time>
      </trkpt>
      <trkpt lat="42.36739718355238437652587890625" lon="3.13203533180058002471923828125">
        <ele>83.8000030517578125</ele>
        <time>2020-08-07T11:22:24.000Z</time>
      </trkpt>
      <trkpt lat="42.3674319684505462646484375" lon="3.13197615556418895721435546875">
        <ele>84.59999847412109375</ele>
        <time>2020-08-07T11:22:28.000Z</time>
      </trkpt>
      <trkpt lat="42.3674730397760868072509765625" lon="3.13190055079758167266845703125">
        <ele>85.8000030517578125</ele>
        <time>2020-08-07T11:22:33.000Z</time>
      </trkpt>
      <trkpt lat="42.36751570366322994232177734375" lon="3.13182159326970577239990234375">
        <ele>86.59999847412109375</ele>
        <time>2020-08-07T11:22:38.000Z</time>
      </trkpt>
      <trkpt lat="42.36752660013735294342041015625" lon="3.131805248558521270751953125">
        <ele>86.8000030517578125</ele>
        <time>2020-08-07T11:22:39.000Z</time>
      </trkpt>
      <trkpt lat="42.36757856793701648712158203125" lon="3.13170969486236572265625">
        <ele>87.8000030517578125</ele>
        <time>2020-08-07T11:22:45.000Z</time>
      </trkpt>
      <trkpt lat="42.36758929677307605743408203125" lon="3.13169687055051326751708984375">
        <ele>88</ele>
        <time>2020-08-07T11:22:46.000Z</time>
      </trkpt>
      <trkpt lat="42.3676383309066295623779296875" lon="3.13160316087305545806884765625">
        <ele>89</ele>
        <time>2020-08-07T11:22:52.000Z</time>
      </trkpt>
      <trkpt lat="42.367687784135341644287109375" lon="3.13153325580060482025146484375">
        <ele>90</ele>
        <time>2020-08-07T11:22:57.000Z</time>
      </trkpt>
      <trkpt lat="42.367707230150699615478515625" lon="3.131506852805614471435546875">
        <ele>90.40000152587890625</ele>
        <time>2020-08-07T11:22:59.000Z</time>
      </trkpt>
      <trkpt lat="42.36774067394435405731201171875" lon="3.13147156499326229095458984375">
        <ele>91.1999969482421875</ele>
        <time>2020-08-07T11:23:02.000Z</time>
      </trkpt>
      <trkpt lat="42.3677969165146350860595703125" lon="3.1314010731875896453857421875">
        <ele>92</ele>
        <time>2020-08-07T11:23:07.000Z</time>
      </trkpt>
      <trkpt lat="42.3678611218929290771484375" lon="3.13134566880762577056884765625">
        <ele>92.1999969482421875</ele>
        <time>2020-08-07T11:23:12.000Z</time>
      </trkpt>
      <trkpt lat="42.3678817413747310638427734375" lon="3.13132010400295257568359375">
        <ele>92.59999847412109375</ele>
        <time>2020-08-07T11:23:14.000Z</time>
      </trkpt>
      <trkpt lat="42.3679281771183013916015625" lon="3.13124458305537700653076171875">
        <ele>93.59999847412109375</ele>
        <time>2020-08-07T11:23:19.000Z</time>
      </trkpt>
      <trkpt lat="42.3679655604064464569091796875" lon="3.13118892721831798553466796875">
        <ele>94</ele>
        <time>2020-08-07T11:23:23.000Z</time>
      </trkpt>
      <trkpt lat="42.3680269159376621246337890625" lon="3.13110896386206150054931640625">
        <ele>94.59999847412109375</ele>
        <time>2020-08-07T11:23:29.000Z</time>
      </trkpt>
      <trkpt lat="42.36804342828691005706787109375" lon="3.131078369915485382080078125">
        <ele>95.1999969482421875</ele>
        <time>2020-08-07T11:23:31.000Z</time>
      </trkpt>
      <trkpt lat="42.36806220375001430511474609375" lon="3.13104978762567043304443359375">
        <ele>96</ele>
        <time>2020-08-07T11:23:33.000Z</time>
      </trkpt>
      <trkpt lat="42.3681228049099445343017578125" lon="3.13096328638494014739990234375">
        <ele>96.40000152587890625</ele>
        <time>2020-08-07T11:23:39.000Z</time>
      </trkpt>
      <trkpt lat="42.36815792508423328399658203125" lon="3.130907379090785980224609375">
        <ele>97</ele>
        <time>2020-08-07T11:23:43.000Z</time>
      </trkpt>
      <trkpt lat="42.36818206496536731719970703125" lon="3.13086153008043766021728515625">
        <ele>97.59999847412109375</ele>
        <time>2020-08-07T11:23:46.000Z</time>
      </trkpt>
      <trkpt lat="42.36818960867822170257568359375" lon="3.130845688283443450927734375">
        <ele>97.8000030517578125</ele>
        <time>2020-08-07T11:23:47.000Z</time>
      </trkpt>
      <trkpt lat="42.36824710853397846221923828125" lon="3.1307516433298587799072265625">
        <ele>98</ele>
        <time>2020-08-07T11:23:53.000Z</time>
      </trkpt>
      <trkpt lat="42.36826085485517978668212890625" lon="3.13071887008845806121826171875">
        <ele>98.40000152587890625</ele>
        <time>2020-08-07T11:23:55.000Z</time>
      </trkpt>
      <trkpt lat="42.36830301582813262939453125" lon="3.1306207180023193359375">
        <ele>99.40000152587890625</ele>
        <time>2020-08-07T11:24:01.000Z</time>
      </trkpt>
      <trkpt lat="42.36835037358105182647705078125" lon="3.13050462864339351654052734375">
        <ele>100.40000152587890625</ele>
        <time>2020-08-07T11:24:08.000Z</time>
      </trkpt>
      <trkpt lat="42.36835724674165248870849609375" lon="3.13048736192286014556884765625">
        <ele>100.59999847412109375</ele>
        <time>2020-08-07T11:24:09.000Z</time>
      </trkpt>
      <trkpt lat="42.36838423646986484527587890625" lon="3.1304146908223628997802734375">
        <ele>101.40000152587890625</ele>
        <time>2020-08-07T11:24:13.000Z</time>
      </trkpt>
      <trkpt lat="42.36842681653797626495361328125" lon="3.13031402416527271270751953125">
        <ele>102.40000152587890625</ele>
        <time>2020-08-07T11:24:19.000Z</time>
      </trkpt>
      <trkpt lat="42.3684342764317989349365234375" lon="3.1302983500063419342041015625">
        <ele>102.59999847412109375</ele>
        <time>2020-08-07T11:24:20.000Z</time>
      </trkpt>
      <trkpt lat="42.3684865795075893402099609375" lon="3.13015376217663288116455078125">
        <ele>103.40000152587890625</ele>
        <time>2020-08-07T11:24:28.000Z</time>
      </trkpt>
      <trkpt lat="42.36849353648722171783447265625" lon="3.13013456761837005615234375">
        <ele>103.8000030517578125</ele>
        <time>2020-08-07T11:24:29.000Z</time>
      </trkpt>
      <trkpt lat="42.36854064278304576873779296875" lon="3.13003004528582096099853515625">
        <ele>105</ele>
        <time>2020-08-07T11:24:35.000Z</time>
      </trkpt>
      <trkpt lat="42.36855505965650081634521484375" lon="3.1299945898354053497314453125">
        <ele>105.59999847412109375</ele>
        <time>2020-08-07T11:24:37.000Z</time>
      </trkpt>
      <trkpt lat="42.36856930889189243316650390625" lon="3.1299597211182117462158203125">
        <ele>106.1999969482421875</ele>
        <time>2020-08-07T11:24:39.000Z</time>
      </trkpt>
      <trkpt lat="42.368603758513927459716796875" lon="3.1298755668103694915771484375">
        <ele>107.1999969482421875</ele>
        <time>2020-08-07T11:24:44.000Z</time>
      </trkpt>
      <trkpt lat="42.36861809156835079193115234375" lon="3.12984078191220760345458984375">
        <ele>107.59999847412109375</ele>
        <time>2020-08-07T11:24:46.000Z</time>
      </trkpt>
      <trkpt lat="42.3686552233994007110595703125" lon="3.12973936088383197784423828125">
        <ele>108.40000152587890625</ele>
        <time>2020-08-07T11:24:52.000Z</time>
      </trkpt>
      <trkpt lat="42.36866536550223827362060546875" lon="3.1297049112617969512939453125">
        <ele>108.8000030517578125</ele>
        <time>2020-08-07T11:24:54.000Z</time>
      </trkpt>
      <trkpt lat="42.36867391504347324371337890625" lon="3.12966928817331790924072265625">
        <ele>109.59999847412109375</ele>
        <time>2020-08-07T11:24:56.000Z</time>
      </trkpt>
      <trkpt lat="42.36869218759238719940185546875" lon="3.1295832060277462005615234375">
        <ele>110.40000152587890625</ele>
        <time>2020-08-07T11:25:01.000Z</time>
      </trkpt>
      <trkpt lat="42.36869621090590953826904296875" lon="3.1295644305646419525146484375">
        <ele>110.59999847412109375</ele>
        <time>2020-08-07T11:25:02.000Z</time>
      </trkpt>
      <trkpt lat="42.368732504546642303466796875" lon="3.1294236145913600921630859375">
        <ele>112</ele>
        <time>2020-08-07T11:25:10.000Z</time>
      </trkpt>
      <trkpt lat="42.36874985508620738983154296875" lon="3.12935270369052886962890625">
        <ele>113</ele>
        <time>2020-08-07T11:25:14.000Z</time>
      </trkpt>
      <trkpt lat="42.36876795999705791473388671875" lon="3.129279278218746185302734375">
        <ele>113.1999969482421875</ele>
        <time>2020-08-07T11:25:18.000Z</time>
      </trkpt>
      <trkpt lat="42.3687742464244365692138671875" lon="3.12924063764512538909912109375">
        <ele>113.59999847412109375</ele>
        <time>2020-08-07T11:25:20.000Z</time>
      </trkpt>
      <trkpt lat="42.36877801828086376190185546875" lon="3.12920375727117061614990234375">
        <ele>114.1999969482421875</ele>
        <time>2020-08-07T11:25:22.000Z</time>
      </trkpt>
      <trkpt lat="42.36878137104213237762451171875" lon="3.12916268594563007354736328125">
        <ele>114.40000152587890625</ele>
        <time>2020-08-07T11:25:24.000Z</time>
      </trkpt>
      <trkpt lat="42.36878472380340099334716796875" lon="3.1291215308010578155517578125">
        <ele>114.8000030517578125</ele>
        <time>2020-08-07T11:25:26.000Z</time>
      </trkpt>
      <trkpt lat="42.36877718009054660797119140625" lon="3.12902388162910938262939453125">
        <ele>115.1999969482421875</ele>
        <time>2020-08-07T11:25:31.000Z</time>
      </trkpt>
      <trkpt lat="42.3687722347676753997802734375" lon="3.12896110117435455322265625">
        <ele>115.1999969482421875</ele>
        <time>2020-08-07T11:25:34.000Z</time>
      </trkpt>
      <trkpt lat="42.3687655292451381683349609375" lon="3.12886722385883331298828125">
        <ele>115.59999847412109375</ele>
        <time>2020-08-07T11:25:38.000Z</time>
      </trkpt>
      <trkpt lat="42.36874013207852840423583984375" lon="3.12867871485650539398193359375">
        <ele>116</ele>
        <time>2020-08-07T11:25:46.000Z</time>
      </trkpt>
      <trkpt lat="42.3687229491770267486572265625" lon="3.1285808980464935302734375">
        <ele>116.40000152587890625</ele>
        <time>2020-08-07T11:25:50.000Z</time>
      </trkpt>
      <trkpt lat="42.3687041737139225006103515625" lon="3.12845055945217609405517578125">
        <ele>116.1999969482421875</ele>
        <time>2020-08-07T11:25:55.000Z</time>
      </trkpt>
      <trkpt lat="42.368692271411418914794921875" lon="3.1282357312738895416259765625">
        <ele>115.8000030517578125</ele>
        <time>2020-08-07T11:26:01.000Z</time>
      </trkpt>
      <trkpt lat="42.36865664832293987274169921875" lon="3.1279510818421840667724609375">
        <ele>115.40000152587890625</ele>
        <time>2020-08-07T11:26:08.000Z</time>
      </trkpt>
      <trkpt lat="42.36865228973329067230224609375" lon="3.1279128603637218475341796875">
        <ele>115.40000152587890625</ele>
        <time>2020-08-07T11:26:09.000Z</time>
      </trkpt>
      <trkpt lat="42.36860468052327632904052734375" lon="3.12755503691732883453369140625">
        <ele>115.40000152587890625</ele>
        <time>2020-08-07T11:26:19.000Z</time>
      </trkpt>
      <trkpt lat="42.36862848512828350067138671875" lon="3.127373568713665008544921875">
        <ele>115.1999969482421875</ele>
        <time>2020-08-07T11:26:25.000Z</time>
      </trkpt>
      <trkpt lat="42.36862747929990291595458984375" lon="3.12729813158512115478515625">
        <ele>115.59999847412109375</ele>
        <time>2020-08-07T11:26:30.000Z</time>
      </trkpt>
      <trkpt lat="42.3686156608164310455322265625" lon="3.12725412659347057342529296875">
        <ele>115.59999847412109375</ele>
        <time>2020-08-07T11:26:38.000Z</time>
      </trkpt>
      <trkpt lat="42.36861205659806728363037109375" lon="3.12723509967327117919921875">
        <ele>115.8000030517578125</ele>
        <time>2020-08-07T11:26:39.000Z</time>
      </trkpt>
      <trkpt lat="42.3685714043676853179931640625" lon="3.12705564312636852264404296875">
        <ele>116</ele>
        <time>2020-08-07T11:26:45.000Z</time>
      </trkpt>
      <trkpt lat="42.36850761808454990386962890625" lon="3.12687107361853122711181640625">
        <ele>116.59999847412109375</ele>
        <time>2020-08-07T11:26:52.000Z</time>
      </trkpt>
      <trkpt lat="42.3684999905526638031005859375" lon="3.126846849918365478515625">
        <ele>116.59999847412109375</ele>
        <time>2020-08-07T11:26:53.000Z</time>
      </trkpt>
      <trkpt lat="42.36845749430358409881591796875" lon="3.1266810558736324310302734375">
        <ele>117</ele>
        <time>2020-08-07T11:27:00.000Z</time>
      </trkpt>
      <trkpt lat="42.3684356175363063812255859375" lon="3.12655926682054996490478515625">
        <ele>117.59999847412109375</ele>
        <time>2020-08-07T11:27:05.000Z</time>
      </trkpt>
      <trkpt lat="42.36843804828822612762451171875" lon="3.12651148997247219085693359375">
        <ele>117.8000030517578125</ele>
        <time>2020-08-07T11:27:07.000Z</time>
      </trkpt>
      <trkpt lat="42.3684845678508281707763671875" lon="3.12636229209601879119873046875">
        <ele>118.8000030517578125</ele>
        <time>2020-08-07T11:27:14.000Z</time>
      </trkpt>
      <trkpt lat="42.36853812821209430694580078125" lon="3.12624678947031497955322265625">
        <ele>119.8000030517578125</ele>
        <time>2020-08-07T11:27:20.000Z</time>
      </trkpt>
      <trkpt lat="42.36855874769389629364013671875" lon="3.1262106634676456451416015625">
        <ele>120.1999969482421875</ele>
        <time>2020-08-07T11:27:22.000Z</time>
      </trkpt>
      <trkpt lat="42.36858992837369441986083984375" lon="3.12610857188701629638671875">
        <ele>120.8000030517578125</ele>
        <time>2020-08-07T11:27:27.000Z</time>
      </trkpt>
      <trkpt lat="42.36859009601175785064697265625" lon="3.12607127241790294647216796875">
        <ele>121.1999969482421875</ele>
        <time>2020-08-07T11:27:29.000Z</time>
      </trkpt>
      <trkpt lat="42.368600070476531982421875" lon="3.12599885277450084686279296875">
        <ele>122</ele>
        <time>2020-08-07T11:27:33.000Z</time>
      </trkpt>
      <trkpt lat="42.36859663389623165130615234375" lon="3.12596046365797519683837890625">
        <ele>122.8000030517578125</ele>
        <time>2020-08-07T11:27:35.000Z</time>
      </trkpt>
      <trkpt lat="42.3685920238494873046875" lon="3.1259209848940372467041015625">
        <ele>123.40000152587890625</ele>
        <time>2020-08-07T11:27:37.000Z</time>
      </trkpt>
      <trkpt lat="42.3685804568231105804443359375" lon="3.125813193619251251220703125">
        <ele>123.8000030517578125</ele>
        <time>2020-08-07T11:27:42.000Z</time>
      </trkpt>
      <trkpt lat="42.368562184274196624755859375" lon="3.12573130242526531219482421875">
        <ele>124.40000152587890625</ele>
        <time>2020-08-07T11:27:46.000Z</time>
      </trkpt>
      <trkpt lat="42.36854617483913898468017578125" lon="3.12565527856349945068359375">
        <ele>125.59999847412109375</ele>
        <time>2020-08-07T11:27:50.000Z</time>
      </trkpt>
      <trkpt lat="42.36852387897670269012451171875" lon="3.1255820207297801971435546875">
        <ele>126.59999847412109375</ele>
        <time>2020-08-07T11:27:54.000Z</time>
      </trkpt>
      <trkpt lat="42.36849688924849033355712890625" lon="3.1254968605935573577880859375">
        <ele>127.40000152587890625</ele>
        <time>2020-08-07T11:27:59.000Z</time>
      </trkpt>
      <trkpt lat="42.36849018372595310211181640625" lon="3.12547967769205570220947265625">
        <ele>127.8000030517578125</ele>
        <time>2020-08-07T11:28:00.000Z</time>
      </trkpt>
      <trkpt lat="42.36846051178872585296630859375" lon="3.1254093535244464874267578125">
        <ele>128.8000030517578125</ele>
        <time>2020-08-07T11:28:04.000Z</time>
      </trkpt>
      <trkpt lat="42.36844005994498729705810546875" lon="3.125357888638973236083984375">
        <ele>129.1999969482421875</ele>
        <time>2020-08-07T11:28:07.000Z</time>
      </trkpt>
      <trkpt lat="42.3684163391590118408203125" lon="3.12526627443730831146240234375">
        <ele>130.1999969482421875</ele>
        <time>2020-08-07T11:28:12.000Z</time>
      </trkpt>
      <trkpt lat="42.36840602941811084747314453125" lon="3.12523190863430500030517578125">
        <ele>130.600006103515625</ele>
        <time>2020-08-07T11:28:14.000Z</time>
      </trkpt>
      <trkpt lat="42.3684030957520008087158203125" lon="3.12517583370208740234375">
        <ele>131.1999969482421875</ele>
        <time>2020-08-07T11:28:17.000Z</time>
      </trkpt>
      <trkpt lat="42.3684024251997470855712890625" lon="3.12512076459825038909912109375">
        <ele>131.8000030517578125</ele>
        <time>2020-08-07T11:28:20.000Z</time>
      </trkpt>
      <trkpt lat="42.36840519122779369354248046875" lon="3.12508354894816875457763671875">
        <ele>132.399993896484375</ele>
        <time>2020-08-07T11:28:22.000Z</time>
      </trkpt>
      <trkpt lat="42.36841608770191669464111328125" lon="3.1249902583658695220947265625">
        <ele>133.600006103515625</ele>
        <time>2020-08-07T11:28:27.000Z</time>
      </trkpt>
      <trkpt lat="42.368423379957675933837890625" lon="3.124972991645336151123046875">
        <ele>133.8000030517578125</ele>
        <time>2020-08-07T11:28:28.000Z</time>
      </trkpt>
      <trkpt lat="42.3684473522007465362548828125" lon="3.12490568496286869049072265625">
        <ele>134.399993896484375</ele>
        <time>2020-08-07T11:28:32.000Z</time>
      </trkpt>
      <trkpt lat="42.36845850013196468353271484375" lon="3.1248712353408336639404296875">
        <ele>134.600006103515625</ele>
        <time>2020-08-07T11:28:34.000Z</time>
      </trkpt>
      <trkpt lat="42.36848666332662105560302734375" lon="3.1247847341001033782958984375">
        <ele>135.8000030517578125</ele>
        <time>2020-08-07T11:28:39.000Z</time>
      </trkpt>
      <trkpt lat="42.36849345266819000244140625" lon="3.124730922281742095947265625">
        <ele>136.399993896484375</ele>
        <time>2020-08-07T11:28:42.000Z</time>
      </trkpt>
      <trkpt lat="42.3685026727616786956787109375" lon="3.124695718288421630859375">
        <ele>136.8000030517578125</ele>
        <time>2020-08-07T11:28:44.000Z</time>
      </trkpt>
      <trkpt lat="42.36850594170391559600830078125" lon="3.12461860477924346923828125">
        <ele>137.399993896484375</ele>
        <time>2020-08-07T11:28:48.000Z</time>
      </trkpt>
      <trkpt lat="42.3685043491423130035400390625" lon="3.1245996616780757904052734375">
        <ele>137.600006103515625</ele>
        <time>2020-08-07T11:28:49.000Z</time>
      </trkpt>
      <trkpt lat="42.36850493587553501129150390625" lon="3.12457962892949581146240234375">
        <ele>137.8000030517578125</ele>
        <time>2020-08-07T11:28:50.000Z</time>
      </trkpt>
      <trkpt lat="42.36850820481777191162109375" lon="3.12450083903968334197998046875">
        <ele>138.8000030517578125</ele>
        <time>2020-08-07T11:28:54.000Z</time>
      </trkpt>
      <trkpt lat="42.3685087077319622039794921875" lon="3.12448181211948394775390625">
        <ele>139</ele>
        <time>2020-08-07T11:28:55.000Z</time>
      </trkpt>
      <trkpt lat="42.3685061931610107421875" lon="3.12444451265037059783935546875">
        <ele>139.399993896484375</ele>
        <time>2020-08-07T11:28:57.000Z</time>
      </trkpt>
      <trkpt lat="42.368501834571361541748046875" lon="3.124386928975582122802734375">
        <ele>140.600006103515625</ele>
        <time>2020-08-07T11:29:00.000Z</time>
      </trkpt>
      <trkpt lat="42.36848884262144565582275390625" lon="3.12431593425571918487548828125">
        <ele>141.399993896484375</ele>
        <time>2020-08-07T11:29:04.000Z</time>
      </trkpt>
      <trkpt lat="42.3684885911643505096435546875" lon="3.1242979131639003753662109375">
        <ele>141.8000030517578125</ele>
        <time>2020-08-07T11:29:05.000Z</time>
      </trkpt>
      <trkpt lat="42.368481047451496124267578125" lon="3.12421065755188465118408203125">
        <ele>142.8000030517578125</ele>
        <time>2020-08-07T11:29:10.000Z</time>
      </trkpt>
      <trkpt lat="42.368477694690227508544921875" lon="3.1241772137582302093505859375">
        <ele>143.600006103515625</ele>
        <time>2020-08-07T11:29:12.000Z</time>
      </trkpt>
      <trkpt lat="42.3684768564999103546142578125" lon="3.1241604499518871307373046875">
        <ele>143.8000030517578125</ele>
        <time>2020-08-07T11:29:13.000Z</time>
      </trkpt>
      <trkpt lat="42.36846654675900936126708984375" lon="3.12405399978160858154296875">
        <ele>145</ele>
        <time>2020-08-07T11:29:19.000Z</time>
      </trkpt>
      <trkpt lat="42.3684600926935672760009765625" lon="3.1240008585155010223388671875">
        <ele>145.399993896484375</ele>
        <time>2020-08-07T11:29:22.000Z</time>
      </trkpt>
      <trkpt lat="42.36846319399774074554443359375" lon="3.1239488907158374786376953125">
        <ele>146</ele>
        <time>2020-08-07T11:29:25.000Z</time>
      </trkpt>
      <trkpt lat="42.36845632083714008331298828125" lon="3.12389398925006389617919921875">
        <ele>146.8000030517578125</ele>
        <time>2020-08-07T11:29:28.000Z</time>
      </trkpt>
      <trkpt lat="42.36845187842845916748046875" lon="3.12383816577494144439697265625">
        <ele>147.1999969482421875</ele>
        <time>2020-08-07T11:29:31.000Z</time>
      </trkpt>
      <trkpt lat="42.36843712627887725830078125" lon="3.12372467480599880218505859375">
        <ele>148.399993896484375</ele>
        <time>2020-08-07T11:29:37.000Z</time>
      </trkpt>
      <trkpt lat="42.36840234138071537017822265625" lon="3.12354412861168384552001953125">
        <ele>149.399993896484375</ele>
        <time>2020-08-07T11:29:46.000Z</time>
      </trkpt>
      <trkpt lat="42.3684165067970752716064453125" lon="3.12334463931620121002197265625">
        <ele>150.1999969482421875</ele>
        <time>2020-08-07T11:29:54.000Z</time>
      </trkpt>
      <trkpt lat="42.368439473211765289306640625" lon="3.12321186996996402740478515625">
        <ele>150.399993896484375</ele>
        <time>2020-08-07T11:30:00.000Z</time>
      </trkpt>
      <trkpt lat="42.36844458617269992828369140625" lon="3.12318940646946430206298828125">
        <ele>150.600006103515625</ele>
        <time>2020-08-07T11:30:01.000Z</time>
      </trkpt>
      <trkpt lat="42.36850543878972530364990234375" lon="3.12300257384777069091796875">
        <ele>150.600006103515625</ele>
        <time>2020-08-07T11:30:10.000Z</time>
      </trkpt>
      <trkpt lat="42.368521280586719512939453125" lon="3.12293191440403461456298828125">
        <ele>151.600006103515625</ele>
        <time>2020-08-07T11:30:13.000Z</time>
      </trkpt>
      <trkpt lat="42.36854818649590015411376953125" lon="3.122848011553287506103515625">
        <ele>152</ele>
        <time>2020-08-07T11:30:17.000Z</time>
      </trkpt>
      <trkpt lat="42.36864323727786540985107421875" lon="3.1226426549255847930908203125">
        <ele>152.399993896484375</ele>
        <time>2020-08-07T11:30:27.000Z</time>
      </trkpt>
      <trkpt lat="42.36865363083779811859130859375" lon="3.1226218678057193756103515625">
        <ele>152.8000030517578125</ele>
        <time>2020-08-07T11:30:28.000Z</time>
      </trkpt>
      <trkpt lat="42.36868388950824737548828125" lon="3.12247225083410739898681640625">
        <ele>152.8000030517578125</ele>
        <time>2020-08-07T11:30:34.000Z</time>
      </trkpt>
      <trkpt lat="42.36868900246918201446533203125" lon="3.12224074266850948333740234375">
        <ele>153.1999969482421875</ele>
        <time>2020-08-07T11:30:42.000Z</time>
      </trkpt>
      <trkpt lat="42.3687071911990642547607421875" lon="3.1219987571239471435546875">
        <ele>153.1999969482421875</ele>
        <time>2020-08-07T11:30:50.000Z</time>
      </trkpt>
      <trkpt lat="42.3687051795423030853271484375" lon="3.121788538992404937744140625">
        <ele>153.8000030517578125</ele>
        <time>2020-08-07T11:30:57.000Z</time>
      </trkpt>
      <trkpt lat="42.36870677210390567779541015625" lon="3.12175962142646312713623046875">
        <ele>153.8000030517578125</ele>
        <time>2020-08-07T11:30:58.000Z</time>
      </trkpt>
      <trkpt lat="42.36869595944881439208984375" lon="3.12154219485819339752197265625">
        <ele>154.399993896484375</ele>
        <time>2020-08-07T11:31:06.000Z</time>
      </trkpt>
      <trkpt lat="42.36868598498404026031494140625" lon="3.12149257399141788482666015625">
        <ele>154.8000030517578125</ele>
        <time>2020-08-07T11:31:08.000Z</time>
      </trkpt>
      <trkpt lat="42.3686210252344608306884765625" lon="3.12136634252965450286865234375">
        <ele>154.600006103515625</ele>
        <time>2020-08-07T11:31:13.000Z</time>
      </trkpt>
      <trkpt lat="42.3685992322862148284912109375" lon="3.1211751513183116912841796875">
        <ele>154.1999969482421875</ele>
        <time>2020-08-07T11:31:17.000Z</time>
      </trkpt>
      <trkpt lat="42.36863292753696441650390625" lon="3.1208935193717479705810546875">
        <ele>154</ele>
        <time>2020-08-07T11:31:23.000Z</time>
      </trkpt>
      <trkpt lat="42.368631921708583831787109375" lon="3.12085839919745922088623046875">
        <ele>153.600006103515625</ele>
        <time>2020-08-07T11:31:24.000Z</time>
      </trkpt>
      <trkpt lat="42.36861507408320903778076171875" lon="3.12070433981716632843017578125">
        <ele>153.600006103515625</ele>
        <time>2020-08-07T11:31:29.000Z</time>
      </trkpt>
      <trkpt lat="42.3686200194060802459716796875" lon="3.12051725573837757110595703125">
        <ele>153.600006103515625</ele>
        <time>2020-08-07T11:31:35.000Z</time>
      </trkpt>
      <trkpt lat="42.368721775710582733154296875" lon="3.12030921690165996551513671875">
        <ele>153</ele>
        <time>2020-08-07T11:31:41.000Z</time>
      </trkpt>
      <trkpt lat="42.36881758086383342742919921875" lon="3.120124898850917816162109375">
        <ele>153.8000030517578125</ele>
        <time>2020-08-07T11:31:47.000Z</time>
      </trkpt>
      <trkpt lat="42.36890123225748538970947265625" lon="3.11984804458916187286376953125">
        <ele>153</ele>
        <time>2020-08-07T11:31:56.000Z</time>
      </trkpt>
      <trkpt lat="42.36901941709220409393310546875" lon="3.1196315400302410125732421875">
        <ele>152.399993896484375</ele>
        <time>2020-08-07T11:32:02.000Z</time>
      </trkpt>
      <trkpt lat="42.3690471611917018890380859375" lon="3.11959574930369853973388671875">
        <ele>152.399993896484375</ele>
        <time>2020-08-07T11:32:03.000Z</time>
      </trkpt>
      <trkpt lat="42.36928730271756649017333984375" lon="3.11933599412441253662109375">
        <ele>151.600006103515625</ele>
        <time>2020-08-07T11:32:11.000Z</time>
      </trkpt>
      <trkpt lat="42.3693854548037052154541015625" lon="3.11918042600154876708984375">
        <ele>152.1999969482421875</ele>
        <time>2020-08-07T11:32:17.000Z</time>
      </trkpt>
      <trkpt lat="42.36945577897131443023681640625" lon="3.11898990534245967864990234375">
        <ele>153.600006103515625</ele>
        <time>2020-08-07T11:32:25.000Z</time>
      </trkpt>
      <trkpt lat="42.36949617974460124969482421875" lon="3.118791170418262481689453125">
        <ele>154.399993896484375</ele>
        <time>2020-08-07T11:32:33.000Z</time>
      </trkpt>
      <trkpt lat="42.36951805651187896728515625" lon="3.1186461634933948516845703125">
        <ele>154.600006103515625</ele>
        <time>2020-08-07T11:32:39.000Z</time>
      </trkpt>
      <trkpt lat="42.3695232532918453216552734375" lon="3.11859813518822193145751953125">
        <ele>155.1999969482421875</ele>
        <time>2020-08-07T11:32:41.000Z</time>
      </trkpt>
      <trkpt lat="42.3695349879562854766845703125" lon="3.11850450932979583740234375">
        <ele>155.8000030517578125</ele>
        <time>2020-08-07T11:32:45.000Z</time>
      </trkpt>
      <trkpt lat="42.369568347930908203125" lon="3.118394874036312103271484375">
        <ele>156</ele>
        <time>2020-08-07T11:32:50.000Z</time>
      </trkpt>
      <trkpt lat="42.3695822618901729583740234375" lon="3.11834969557821750640869140625">
        <ele>157</ele>
        <time>2020-08-07T11:32:52.000Z</time>
      </trkpt>
      <trkpt lat="42.369646131992340087890625" lon="3.11822044663131237030029296875">
        <ele>158</ele>
        <time>2020-08-07T11:32:59.000Z</time>
      </trkpt>
      <trkpt lat="42.36968963406980037689208984375" lon="3.118167221546173095703125">
        <ele>159.1999969482421875</ele>
        <time>2020-08-07T11:33:03.000Z</time>
      </trkpt>
      <trkpt lat="42.3697520792484283447265625" lon="3.11810486018657684326171875">
        <ele>160</ele>
        <time>2020-08-07T11:33:08.000Z</time>
      </trkpt>
      <trkpt lat="42.3697904683649539947509765625" lon="3.11806957237422466278076171875">
        <ele>160.1999969482421875</ele>
        <time>2020-08-07T11:33:11.000Z</time>
      </trkpt>
      <trkpt lat="42.3698598705232143402099609375" lon="3.11799824237823486328125">
        <ele>161.399993896484375</ele>
        <time>2020-08-07T11:33:17.000Z</time>
      </trkpt>
      <trkpt lat="42.36987076699733734130859375" lon="3.1179863400757312774658203125">
        <ele>161.600006103515625</ele>
        <time>2020-08-07T11:33:18.000Z</time>
      </trkpt>
      <trkpt lat="42.36990295350551605224609375" lon="3.1179467774927616119384765625">
        <ele>162.399993896484375</ele>
        <time>2020-08-07T11:33:21.000Z</time>
      </trkpt>
      <trkpt lat="42.36994595266878604888916015625" lon="3.117899335920810699462890625">
        <ele>163.399993896484375</ele>
        <time>2020-08-07T11:33:25.000Z</time>
      </trkpt>
      <trkpt lat="42.369964309036731719970703125" lon="3.1178760342299938201904296875">
        <ele>163.8000030517578125</ele>
        <time>2020-08-07T11:33:27.000Z</time>
      </trkpt>
      <trkpt lat="42.3700140975415706634521484375" lon="3.11779783107340335845947265625">
        <ele>164.399993896484375</ele>
        <time>2020-08-07T11:33:33.000Z</time>
      </trkpt>
      <trkpt lat="42.3700543306767940521240234375" lon="3.11774888075888156890869140625">
        <ele>165.600006103515625</ele>
        <time>2020-08-07T11:33:37.000Z</time>
      </trkpt>
      <trkpt lat="42.3701163567602634429931640625" lon="3.11767394654452800750732421875">
        <ele>166.8000030517578125</ele>
        <time>2020-08-07T11:33:43.000Z</time>
      </trkpt>
      <trkpt lat="42.37012599594891071319580078125" lon="3.11766103841364383697509765625">
        <ele>167.1999969482421875</ele>
        <time>2020-08-07T11:33:44.000Z</time>
      </trkpt>
      <trkpt lat="42.37013370729982852935791015625" lon="3.117645196616649627685546875">
        <ele>167.399993896484375</ele>
        <time>2020-08-07T11:33:45.000Z</time>
      </trkpt>
      <trkpt lat="42.37015365622937679290771484375" lon="3.117597587406635284423828125">
        <ele>168.1999969482421875</ele>
        <time>2020-08-07T11:33:48.000Z</time>
      </trkpt>
      <trkpt lat="42.3702041991055011749267578125" lon="3.11748233623802661895751953125">
        <ele>169</ele>
        <time>2020-08-07T11:33:55.000Z</time>
      </trkpt>
      <trkpt lat="42.37021031789481639862060546875" lon="3.11746490187942981719970703125">
        <ele>169.1999969482421875</ele>
        <time>2020-08-07T11:33:56.000Z</time>
      </trkpt>
      <trkpt lat="42.37025834619998931884765625" lon="3.11735392548143863677978515625">
        <ele>170.1999969482421875</ele>
        <time>2020-08-07T11:34:03.000Z</time>
      </trkpt>
      <trkpt lat="42.37028106115758419036865234375" lon="3.11730463989078998565673828125">
        <ele>171.1999969482421875</ele>
        <time>2020-08-07T11:34:06.000Z</time>
      </trkpt>
      <trkpt lat="42.37030327320098876953125" lon="3.11725401319563388824462890625">
        <ele>172.399993896484375</ele>
        <time>2020-08-07T11:34:09.000Z</time>
      </trkpt>
      <trkpt lat="42.370331101119518280029296875" lon="3.11721093021333217620849609375">
        <ele>173</ele>
        <time>2020-08-07T11:34:12.000Z</time>
      </trkpt>
      <trkpt lat="42.37034954130649566650390625" lon="3.117182515561580657958984375">
        <ele>173.399993896484375</ele>
        <time>2020-08-07T11:34:14.000Z</time>
      </trkpt>
      <trkpt lat="42.3703931272029876708984375" lon="3.1171059049665927886962890625">
        <ele>174.600006103515625</ele>
        <time>2020-08-07T11:34:20.000Z</time>
      </trkpt>
      <trkpt lat="42.370437048375606536865234375" lon="3.11702099628746509552001953125">
        <ele>175.8000030517578125</ele>
        <time>2020-08-07T11:34:26.000Z</time>
      </trkpt>
      <trkpt lat="42.3704526387155055999755859375" lon="3.1169949285686016082763671875">
        <ele>176.1999969482421875</ele>
        <time>2020-08-07T11:34:28.000Z</time>
      </trkpt>
      <trkpt lat="42.370466887950897216796875" lon="3.1169681064784526824951171875">
        <ele>177</ele>
        <time>2020-08-07T11:34:30.000Z</time>
      </trkpt>
      <trkpt lat="42.37051743082702159881591796875" lon="3.11688856221735477447509765625">
        <ele>178.399993896484375</ele>
        <time>2020-08-07T11:34:36.000Z</time>
      </trkpt>
      <trkpt lat="42.370526231825351715087890625" lon="3.1168728880584239959716796875">
        <ele>178.600006103515625</ele>
        <time>2020-08-07T11:34:37.000Z</time>
      </trkpt>
      <trkpt lat="42.370552383363246917724609375" lon="3.11683290638029575347900390625">
        <ele>179.600006103515625</ele>
        <time>2020-08-07T11:34:40.000Z</time>
      </trkpt>
      <trkpt lat="42.370584569871425628662109375" lon="3.116787560284137725830078125">
        <ele>180.399993896484375</ele>
        <time>2020-08-07T11:34:44.000Z</time>
      </trkpt>
      <trkpt lat="42.37060376442968845367431640625" lon="3.1167609058320522308349609375">
        <ele>180.600006103515625</ele>
        <time>2020-08-07T11:34:46.000Z</time>
      </trkpt>
      <trkpt lat="42.37064634449779987335205078125" lon="3.1166988797485828399658203125">
        <ele>181</ele>
        <time>2020-08-07T11:34:51.000Z</time>
      </trkpt>
      <trkpt lat="42.37067408859729766845703125" lon="3.11665554530918598175048828125">
        <ele>181.8000030517578125</ele>
        <time>2020-08-07T11:34:54.000Z</time>
      </trkpt>
      <trkpt lat="42.37070091068744659423828125" lon="3.11660173349082469940185546875">
        <ele>182.8000030517578125</ele>
        <time>2020-08-07T11:34:58.000Z</time>
      </trkpt>
      <trkpt lat="42.3707057721912860870361328125" lon="3.11659402213990688323974609375">
        <ele>183</ele>
        <time>2020-08-07T11:34:59.000Z</time>
      </trkpt>
      <trkpt lat="42.37070434726774692535400390625" lon="3.11659100465476512908935546875">
        <ele>183</ele>
        <time>2020-08-07T11:35:02.000Z</time>
      </trkpt>
      <trkpt lat="42.3707148246467113494873046875" lon="3.11658027581870555877685546875">
        <ele>183</ele>
        <time>2020-08-07T11:35:13.000Z</time>
      </trkpt>
      <trkpt lat="42.37074139527976512908935546875" lon="3.11654381453990936279296875">
        <ele>183.1999969482421875</ele>
        <time>2020-08-07T11:35:18.000Z</time>
      </trkpt>
      <trkpt lat="42.3707594163715839385986328125" lon="3.1165071018040180206298828125">
        <ele>183.8000030517578125</ele>
        <time>2020-08-07T11:35:21.000Z</time>
      </trkpt>
      <trkpt lat="42.370789088308811187744140625" lon="3.1164323352277278900146484375">
        <ele>184.8000030517578125</ele>
        <time>2020-08-07T11:35:26.000Z</time>
      </trkpt>
      <trkpt lat="42.3707954585552215576171875" lon="3.11641733162105083465576171875">
        <ele>185</ele>
        <time>2020-08-07T11:35:27.000Z</time>
      </trkpt>
      <trkpt lat="42.37081767059862613677978515625" lon="3.1163555569946765899658203125">
        <ele>186.1999969482421875</ele>
        <time>2020-08-07T11:35:31.000Z</time>
      </trkpt>
      <trkpt lat="42.37085103057324886322021484375" lon="3.11628305353224277496337890625">
        <ele>187.1999969482421875</ele>
        <time>2020-08-07T11:35:36.000Z</time>
      </trkpt>
      <trkpt lat="42.37085723318159580230712890625" lon="3.1162683852016925811767578125">
        <ele>187.1999969482421875</ele>
        <time>2020-08-07T11:35:37.000Z</time>
      </trkpt>
      <trkpt lat="42.3709055967628955841064453125" lon="3.11613486148416996002197265625">
        <ele>188.1999969482421875</ele>
        <time>2020-08-07T11:35:45.000Z</time>
      </trkpt>
      <trkpt lat="42.37091146409511566162109375" lon="3.11611658893525600433349609375">
        <ele>188.399993896484375</ele>
        <time>2020-08-07T11:35:46.000Z</time>
      </trkpt>
      <trkpt lat="42.37092479132115840911865234375" lon="3.1160605140030384063720703125">
        <ele>189.399993896484375</ele>
        <time>2020-08-07T11:35:49.000Z</time>
      </trkpt>
      <trkpt lat="42.3709223605692386627197265625" lon="3.11598096974194049835205078125">
        <ele>190.399993896484375</ele>
        <time>2020-08-07T11:35:53.000Z</time>
      </trkpt>
      <trkpt lat="42.3709102906286716461181640625" lon="3.11592866666615009307861328125">
        <ele>191.399993896484375</ele>
        <time>2020-08-07T11:35:56.000Z</time>
      </trkpt>
      <trkpt lat="42.37087718211114406585693359375" lon="3.115845434367656707763671875">
        <ele>192.1999969482421875</ele>
        <time>2020-08-07T11:36:01.000Z</time>
      </trkpt>
      <trkpt lat="42.37086527980864048004150390625" lon="3.11581266112625598907470703125">
        <ele>192.8000030517578125</ele>
        <time>2020-08-07T11:36:03.000Z</time>
      </trkpt>
      <trkpt lat="42.37082337029278278350830078125" lon="3.115744851529598236083984375">
        <ele>194</ele>
        <time>2020-08-07T11:36:08.000Z</time>
      </trkpt>
      <trkpt lat="42.37080023624002933502197265625" lon="3.1157245673239231109619140625">
        <ele>194.600006103515625</ele>
        <time>2020-08-07T11:36:10.000Z</time>
      </trkpt>
      <trkpt lat="42.370775006711483001708984375" lon="3.1157094798982143402099609375">
        <ele>195.1999969482421875</ele>
        <time>2020-08-07T11:36:12.000Z</time>
      </trkpt>
      <trkpt lat="42.370724715292453765869140625" lon="3.11567938886582851409912109375">
        <ele>196.1999969482421875</ele>
        <time>2020-08-07T11:36:16.000Z</time>
      </trkpt>
      <trkpt lat="42.37068942748010158538818359375" lon="3.11566111631691455841064453125">
        <ele>196.8000030517578125</ele>
        <time>2020-08-07T11:36:19.000Z</time>
      </trkpt>
      <trkpt lat="42.37066780216991901397705078125" lon="3.1156472861766815185546875">
        <ele>197.399993896484375</ele>
        <time>2020-08-07T11:36:21.000Z</time>
      </trkpt>
      <trkpt lat="42.3706398904323577880859375" lon="3.11563680879771709442138671875">
        <ele>197.600006103515625</ele>
        <time>2020-08-07T11:36:23.000Z</time>
      </trkpt>
      <trkpt lat="42.37059806473553180694580078125" lon="3.11562306247651576995849609375">
        <ele>198.1999969482421875</ele>
        <time>2020-08-07T11:36:26.000Z</time>
      </trkpt>
      <trkpt lat="42.3705850727856159210205078125" lon="3.11561585403978824615478515625">
        <ele>198.600006103515625</ele>
        <time>2020-08-07T11:36:27.000Z</time>
      </trkpt>
      <trkpt lat="42.37051994539797306060791015625" lon="3.1155793927609920501708984375">
        <ele>200</ele>
        <time>2020-08-07T11:36:32.000Z</time>
      </trkpt>
      <trkpt lat="42.370496056973934173583984375" lon="3.1155592761933803558349609375">
        <ele>200.1999969482421875</ele>
        <time>2020-08-07T11:36:34.000Z</time>
      </trkpt>
      <trkpt lat="42.37047233618795871734619140625" lon="3.11553840525448322296142578125">
        <ele>201</ele>
        <time>2020-08-07T11:36:36.000Z</time>
      </trkpt>
      <trkpt lat="42.37046160735189914703369140625" lon="3.115527592599391937255859375">
        <ele>201</ele>
        <time>2020-08-07T11:36:37.000Z</time>
      </trkpt>
      <trkpt lat="42.37041031010448932647705078125" lon="3.1154912151396274566650390625">
        <ele>201.600006103515625</ele>
        <time>2020-08-07T11:36:41.000Z</time>
      </trkpt>
      <trkpt lat="42.37037359736859798431396484375" lon="3.11546011827886104583740234375">
        <ele>202</ele>
        <time>2020-08-07T11:36:44.000Z</time>
      </trkpt>
      <trkpt lat="42.370341829955577850341796875" lon="3.1153980083763599395751953125">
        <ele>203</ele>
        <time>2020-08-07T11:36:48.000Z</time>
      </trkpt>
      <trkpt lat="42.370336465537548065185546875" lon="3.1153809092938899993896484375">
        <ele>203.1999969482421875</ele>
        <time>2020-08-07T11:36:49.000Z</time>
      </trkpt>
      <trkpt lat="42.37030017189681529998779296875" lon="3.1152367405593395233154296875">
        <ele>204</ele>
        <time>2020-08-07T11:36:57.000Z</time>
      </trkpt>
      <trkpt lat="42.37028089351952075958251953125" lon="3.115182258188724517822265625">
        <ele>204.1999969482421875</ele>
        <time>2020-08-07T11:37:00.000Z</time>
      </trkpt>
      <trkpt lat="42.37024568952620029449462890625" lon="3.11507890932261943817138671875">
        <ele>205</ele>
        <time>2020-08-07T11:37:06.000Z</time>
      </trkpt>
      <trkpt lat="42.37020662985742092132568359375" lon="3.1149946711957454681396484375">
        <ele>206</ele>
        <time>2020-08-07T11:37:11.000Z</time>
      </trkpt>
      <trkpt lat="42.37017259933054447174072265625" lon="3.11495183967053890228271484375">
        <ele>206.600006103515625</ele>
        <time>2020-08-07T11:37:14.000Z</time>
      </trkpt>
      <trkpt lat="42.3701280914247035980224609375" lon="3.1148679368197917938232421875">
        <ele>207.1999969482421875</ele>
        <time>2020-08-07T11:37:19.000Z</time>
      </trkpt>
      <trkpt lat="42.37008274532854557037353515625" lon="3.11478294432163238525390625">
        <ele>208.399993896484375</ele>
        <time>2020-08-07T11:37:24.000Z</time>
      </trkpt>
      <trkpt lat="42.37002541311085224151611328125" lon="3.114678673446178436279296875">
        <ele>209.399993896484375</ele>
        <time>2020-08-07T11:37:31.000Z</time>
      </trkpt>
      <trkpt lat="42.3699721880257129669189453125" lon="3.11455453746020793914794921875">
        <ele>210.399993896484375</ele>
        <time>2020-08-07T11:37:39.000Z</time>
      </trkpt>
      <trkpt lat="42.36996741034090518951416015625" lon="3.11453827656805515289306640625">
        <ele>210.8000030517578125</ele>
        <time>2020-08-07T11:37:40.000Z</time>
      </trkpt>
      <trkpt lat="42.369941510260105133056640625" lon="3.1144582293927669525146484375">
        <ele>211.8000030517578125</ele>
        <time>2020-08-07T11:37:45.000Z</time>
      </trkpt>
      <trkpt lat="42.36992709338665008544921875" lon="3.11440601013600826263427734375">
        <ele>212</ele>
        <time>2020-08-07T11:37:48.000Z</time>
      </trkpt>
      <trkpt lat="42.3699138499796390533447265625" lon="3.11435203067958354949951171875">
        <ele>212.8000030517578125</ele>
        <time>2020-08-07T11:37:51.000Z</time>
      </trkpt>
      <trkpt lat="42.3699022829532623291015625" lon="3.1142788566648960113525390625">
        <ele>213.600006103515625</ele>
        <time>2020-08-07T11:37:55.000Z</time>
      </trkpt>
      <trkpt lat="42.3698759637773036956787109375" lon="3.1141762621700763702392578125">
        <ele>213.600006103515625</ele>
        <time>2020-08-07T11:38:01.000Z</time>
      </trkpt>
      <trkpt lat="42.3698679171502590179443359375" lon="3.11414415948092937469482421875">
        <ele>214</ele>
        <time>2020-08-07T11:38:03.000Z</time>
      </trkpt>
      <trkpt lat="42.36984553746879100799560546875" lon="3.11408950947225093841552734375">
        <ele>215</ele>
        <time>2020-08-07T11:38:07.000Z</time>
      </trkpt>
      <trkpt lat="42.36983514390885829925537109375" lon="3.1140773557126522064208984375">
        <ele>215.1999969482421875</ele>
        <time>2020-08-07T11:38:08.000Z</time>
      </trkpt>
      <trkpt lat="42.36980815418064594268798828125" lon="3.11405346728861331939697265625">
        <ele>215.399993896484375</ele>
        <time>2020-08-07T11:38:10.000Z</time>
      </trkpt>
      <trkpt lat="42.369785271584987640380859375" lon="3.11402446590363979339599609375">
        <ele>215.8000030517578125</ele>
        <time>2020-08-07T11:38:12.000Z</time>
      </trkpt>
      <trkpt lat="42.36975350417196750640869140625" lon="3.11398389749228954315185546875">
        <ele>216.399993896484375</ele>
        <time>2020-08-07T11:38:15.000Z</time>
      </trkpt>
      <trkpt lat="42.36972056329250335693359375" lon="3.1139237992465496063232421875">
        <ele>216.8000030517578125</ele>
        <time>2020-08-07T11:38:19.000Z</time>
      </trkpt>
      <trkpt lat="42.36970891244709491729736328125" lon="3.11389069072902202606201171875">
        <ele>217.399993896484375</ele>
        <time>2020-08-07T11:38:21.000Z</time>
      </trkpt>
      <trkpt lat="42.3696969263255596160888671875" lon="3.11379865743219852447509765625">
        <ele>218.600006103515625</ele>
        <time>2020-08-07T11:38:26.000Z</time>
      </trkpt>
      <trkpt lat="42.36969776451587677001953125" lon="3.1137804687023162841796875">
        <ele>218.8000030517578125</ele>
        <time>2020-08-07T11:38:27.000Z</time>
      </trkpt>
      <trkpt lat="42.36970103345811367034912109375" lon="3.1137107312679290771484375">
        <ele>219.8000030517578125</ele>
        <time>2020-08-07T11:38:31.000Z</time>
      </trkpt>
      <trkpt lat="42.36972131766378879547119140625" lon="3.1136223860085010528564453125">
        <ele>220.600006103515625</ele>
        <time>2020-08-07T11:38:36.000Z</time>
      </trkpt>
      <trkpt lat="42.3697616346180438995361328125" lon="3.11355055309832096099853515625">
        <ele>221</ele>
        <time>2020-08-07T11:38:41.000Z</time>
      </trkpt>
      <trkpt lat="42.3697908036410808563232421875" lon="3.113503195345401763916015625">
        <ele>221.1999969482421875</ele>
        <time>2020-08-07T11:38:44.000Z</time>
      </trkpt>
      <trkpt lat="42.369869090616703033447265625" lon="3.11337436549365520477294921875">
        <ele>221.600006103515625</ele>
        <time>2020-08-07T11:38:52.000Z</time>
      </trkpt>
      <trkpt lat="42.36987940035760402679443359375" lon="3.11335274018347263336181640625">
        <ele>221.8000030517578125</ele>
        <time>2020-08-07T11:38:53.000Z</time>
      </trkpt>
      <trkpt lat="42.3699540831148624420166015625" lon="3.11319951899349689483642578125">
        <ele>222</ele>
        <time>2020-08-07T11:39:00.000Z</time>
      </trkpt>
      <trkpt lat="42.37004620023071765899658203125" lon="3.11299399472773075103759765625">
        <ele>221.600006103515625</ele>
        <time>2020-08-07T11:39:08.000Z</time>
      </trkpt>
      <trkpt lat="42.3701284267008304595947265625" lon="3.11281763948500156402587890625">
        <ele>222</ele>
        <time>2020-08-07T11:39:15.000Z</time>
      </trkpt>
      <trkpt lat="42.37016706727445125579833984375" lon="3.11261010356247425079345703125">
        <ele>222</ele>
        <time>2020-08-07T11:39:21.000Z</time>
      </trkpt>
      <trkpt lat="42.37022859044373035430908203125" lon="3.11234104447066783905029296875">
        <ele>221.399993896484375</ele>
        <time>2020-08-07T11:39:30.000Z</time>
      </trkpt>
      <trkpt lat="42.3703336156904697418212890625" lon="3.1120693869888782501220703125">
        <ele>222</ele>
        <time>2020-08-07T11:39:39.000Z</time>
      </trkpt>
      <trkpt lat="42.3704704083502292633056640625" lon="3.111851625144481658935546875">
        <ele>221.8000030517578125</ele>
        <time>2020-08-07T11:39:48.000Z</time>
      </trkpt>
      <trkpt lat="42.3706236295402050018310546875" lon="3.111671246588230133056640625">
        <ele>221.8000030517578125</ele>
        <time>2020-08-07T11:39:57.000Z</time>
      </trkpt>
      <trkpt lat="42.37067886628210544586181640625" lon="3.11150335706770420074462890625">
        <ele>221.8000030517578125</ele>
        <time>2020-08-07T11:40:02.000Z</time>
      </trkpt>
      <trkpt lat="42.3706953786313533782958984375" lon="3.11123865656554698944091796875">
        <ele>221.600006103515625</ele>
        <time>2020-08-07T11:40:09.000Z</time>
      </trkpt>
      <trkpt lat="42.37067140638828277587890625" lon="3.11097152531147003173828125">
        <ele>221.600006103515625</ele>
        <time>2020-08-07T11:40:17.000Z</time>
      </trkpt>
      <trkpt lat="42.37069043330848217010498046875" lon="3.11066516675055027008056640625">
        <ele>221.8000030517578125</ele>
        <time>2020-08-07T11:40:25.000Z</time>
      </trkpt>
      <trkpt lat="42.37072915770113468170166015625" lon="3.1103390268981456756591796875">
        <ele>221.600006103515625</ele>
        <time>2020-08-07T11:40:34.000Z</time>
      </trkpt>
      <trkpt lat="42.3708144016563892364501953125" lon="3.11006938107311725616455078125">
        <ele>222.399993896484375</ele>
        <time>2020-08-07T11:40:43.000Z</time>
      </trkpt>
      <trkpt lat="42.370826303958892822265625" lon="3.10998572967946529388427734375">
        <ele>222.8000030517578125</ele>
        <time>2020-08-07T11:40:46.000Z</time>
      </trkpt>
      <trkpt lat="42.37083577550947666168212890625" lon="3.10986419208347797393798828125">
        <ele>223.399993896484375</ele>
        <time>2020-08-07T11:40:51.000Z</time>
      </trkpt>
      <trkpt lat="42.37084306776523590087890625" lon="3.109739385545253753662109375">
        <ele>224</ele>
        <time>2020-08-07T11:40:56.000Z</time>
      </trkpt>
      <trkpt lat="42.37085186876356601715087890625" lon="3.109618686139583587646484375">
        <ele>224.8000030517578125</ele>
        <time>2020-08-07T11:41:01.000Z</time>
      </trkpt>
      <trkpt lat="42.3708529584109783172607421875" lon="3.1095749326050281524658203125">
        <ele>225.1999969482421875</ele>
        <time>2020-08-07T11:41:03.000Z</time>
      </trkpt>
      <trkpt lat="42.37086695618927478790283203125" lon="3.10944492928683757781982421875">
        <ele>226.1999969482421875</ele>
        <time>2020-08-07T11:41:09.000Z</time>
      </trkpt>
      <trkpt lat="42.3708700574934482574462890625" lon="3.10940084047615528106689453125">
        <ele>226.8000030517578125</ele>
        <time>2020-08-07T11:41:11.000Z</time>
      </trkpt>
      <trkpt lat="42.370903082191944122314453125" lon="3.10927209444344043731689453125">
        <ele>227.399993896484375</ele>
        <time>2020-08-07T11:41:17.000Z</time>
      </trkpt>
      <trkpt lat="42.37092395313084125518798828125" lon="3.1092064641416072845458984375">
        <ele>227.8000030517578125</ele>
        <time>2020-08-07T11:41:20.000Z</time>
      </trkpt>
      <trkpt lat="42.370958738029003143310546875" lon="3.1091427616775035858154296875">
        <ele>228.399993896484375</ele>
        <time>2020-08-07T11:41:24.000Z</time>
      </trkpt>
      <trkpt lat="42.3709813691675662994384765625" lon="3.10909154824912548065185546875">
        <ele>229.1999969482421875</ele>
        <time>2020-08-07T11:41:27.000Z</time>
      </trkpt>
      <trkpt lat="42.3709977976977825164794921875" lon="3.10906103812158107757568359375">
        <ele>229.600006103515625</ele>
        <time>2020-08-07T11:41:29.000Z</time>
      </trkpt>
      <trkpt lat="42.371049933135509490966796875" lon="3.10897872783243656158447265625">
        <ele>229.600006103515625</ele>
        <time>2020-08-07T11:41:34.000Z</time>
      </trkpt>
      <trkpt lat="42.37116627395153045654296875" lon="3.10886573977768421173095703125">
        <ele>229.8000030517578125</ele>
        <time>2020-08-07T11:41:42.000Z</time>
      </trkpt>
      <trkpt lat="42.37128957174718379974365234375" lon="3.1087888777256011962890625">
        <ele>228.8000030517578125</ele>
        <time>2020-08-07T11:41:48.000Z</time>
      </trkpt>
      <trkpt lat="42.37139157950878143310546875" lon="3.1087290309369564056396484375">
        <ele>228.399993896484375</ele>
        <time>2020-08-07T11:41:52.000Z</time>
      </trkpt>
      <trkpt lat="42.37145218066871166229248046875" lon="3.10869206674396991729736328125">
        <ele>227.8000030517578125</ele>
        <time>2020-08-07T11:41:54.000Z</time>
      </trkpt>
      <trkpt lat="42.371519990265369415283203125" lon="3.1086542643606662750244140625">
        <ele>227.399993896484375</ele>
        <time>2020-08-07T11:41:56.000Z</time>
      </trkpt>
      <trkpt lat="42.3716656677424907684326171875" lon="3.1085662543773651123046875">
        <ele>227.1999969482421875</ele>
        <time>2020-08-07T11:42:00.000Z</time>
      </trkpt>
      <trkpt lat="42.37173951230943202972412109375" lon="3.10852409340441226959228515625">
        <ele>226.1999969482421875</ele>
        <time>2020-08-07T11:42:02.000Z</time>
      </trkpt>
      <trkpt lat="42.3718227446079254150390625" lon="3.10847648419439792633056640625">
        <ele>225</ele>
        <time>2020-08-07T11:42:04.000Z</time>
      </trkpt>
      <trkpt lat="42.3719541728496551513671875" lon="3.1084001250565052032470703125">
        <ele>224</ele>
        <time>2020-08-07T11:42:07.000Z</time>
      </trkpt>
      <trkpt lat="42.37207428552210330963134765625" lon="3.10835947282612323760986328125">
        <ele>222.8000030517578125</ele>
        <time>2020-08-07T11:42:10.000Z</time>
      </trkpt>
      <trkpt lat="42.37214586697518825531005859375" lon="3.10836064629256725311279296875">
        <ele>222.399993896484375</ele>
        <time>2020-08-07T11:42:12.000Z</time>
      </trkpt>
      <trkpt lat="42.37221677787601947784423828125" lon="3.10834689997136592864990234375">
        <ele>222</ele>
        <time>2020-08-07T11:42:14.000Z</time>
      </trkpt>
      <trkpt lat="42.3722465336322784423828125" lon="3.10832016170024871826171875">
        <ele>221.8000030517578125</ele>
        <time>2020-08-07T11:42:15.000Z</time>
      </trkpt>
      <trkpt lat="42.37227327190339565277099609375" lon="3.1082837842404842376708984375">
        <ele>221.600006103515625</ele>
        <time>2020-08-07T11:42:16.000Z</time>
      </trkpt>
      <trkpt lat="42.372277043759822845458984375" lon="3.10816165991127490997314453125">
        <ele>220.600006103515625</ele>
        <time>2020-08-07T11:42:19.000Z</time>
      </trkpt>
      <trkpt lat="42.37222096882760524749755859375" lon="3.108033835887908935546875">
        <ele>219.8000030517578125</ele>
        <time>2020-08-07T11:42:22.000Z</time>
      </trkpt>
      <trkpt lat="42.37220135517418384552001953125" lon="3.10798530466854572296142578125">
        <ele>219.399993896484375</ele>
        <time>2020-08-07T11:42:23.000Z</time>
      </trkpt>
      <trkpt lat="42.37217838875949382781982421875" lon="3.10788631439208984375">
        <ele>218.600006103515625</ele>
        <time>2020-08-07T11:42:25.000Z</time>
      </trkpt>
      <trkpt lat="42.37218207679688930511474609375" lon="3.10783602297306060791015625">
        <ele>218.1999969482421875</ele>
        <time>2020-08-07T11:42:26.000Z</time>
      </trkpt>
      <trkpt lat="42.37220437265932559967041015625" lon="3.1077374517917633056640625">
        <ele>216.8000030517578125</ele>
        <time>2020-08-07T11:42:28.000Z</time>
      </trkpt>
      <trkpt lat="42.3722188733518123626708984375" lon="3.10769160278141498565673828125">
        <ele>216.1999969482421875</ele>
        <time>2020-08-07T11:42:29.000Z</time>
      </trkpt>
      <trkpt lat="42.37225198186933994293212890625" lon="3.10760778374969959259033203125">
        <ele>215.8000030517578125</ele>
        <time>2020-08-07T11:42:31.000Z</time>
      </trkpt>
      <trkpt lat="42.372294478118419647216796875" lon="3.10751491226255893707275390625">
        <ele>215.1999969482421875</ele>
        <time>2020-08-07T11:42:33.000Z</time>
      </trkpt>
      <trkpt lat="42.37231719307601451873779296875" lon="3.10746998526155948638916015625">
        <ele>214.8000030517578125</ele>
        <time>2020-08-07T11:42:34.000Z</time>
      </trkpt>
      <trkpt lat="42.37234334461390972137451171875" lon="3.1074261479079723358154296875">
        <ele>214.600006103515625</ele>
        <time>2020-08-07T11:42:35.000Z</time>
      </trkpt>
      <trkpt lat="42.37239967100322246551513671875" lon="3.107344843447208404541015625">
        <ele>214</ele>
        <time>2020-08-07T11:42:37.000Z</time>
      </trkpt>
      <trkpt lat="42.37243093550205230712890625" lon="3.1073098070919513702392578125">
        <ele>213.1999969482421875</ele>
        <time>2020-08-07T11:42:38.000Z</time>
      </trkpt>
      <trkpt lat="42.37246178090572357177734375" lon="3.10727468691766262054443359375">
        <ele>212.600006103515625</ele>
        <time>2020-08-07T11:42:39.000Z</time>
      </trkpt>
      <trkpt lat="42.37256127409636974334716796875" lon="3.107179887592792510986328125">
        <ele>212</ele>
        <time>2020-08-07T11:42:42.000Z</time>
      </trkpt>
      <trkpt lat="42.37259781919419765472412109375" lon="3.10715164057910442352294921875">
        <ele>211.1999969482421875</ele>
        <time>2020-08-07T11:42:43.000Z</time>
      </trkpt>
      <trkpt lat="42.3726356215775012969970703125" lon="3.10712121427059173583984375">
        <ele>210.399993896484375</ele>
        <time>2020-08-07T11:42:44.000Z</time>
      </trkpt>
      <trkpt lat="42.372676022350788116455078125" lon="3.10709036886692047119140625">
        <ele>210.399993896484375</ele>
        <time>2020-08-07T11:42:45.000Z</time>
      </trkpt>
      <trkpt lat="42.37276378087699413299560546875" lon="3.10703404247760772705078125">
        <ele>209.399993896484375</ele>
        <time>2020-08-07T11:42:47.000Z</time>
      </trkpt>
      <trkpt lat="42.3728525452315807342529296875" lon="3.10697779990732669830322265625">
        <ele>208.1999969482421875</ele>
        <time>2020-08-07T11:42:49.000Z</time>
      </trkpt>
      <trkpt lat="42.3729346878826618194580078125" lon="3.10692130587995052337646484375">
        <ele>207.399993896484375</ele>
        <time>2020-08-07T11:42:51.000Z</time>
      </trkpt>
      <trkpt lat="42.372974418103694915771484375" lon="3.10689113102853298187255859375">
        <ele>207</ele>
        <time>2020-08-07T11:42:52.000Z</time>
      </trkpt>
      <trkpt lat="42.373048178851604461669921875" lon="3.10683564282953739166259765625">
        <ele>205.399993896484375</ele>
        <time>2020-08-07T11:42:54.000Z</time>
      </trkpt>
      <trkpt lat="42.37310458905994892120361328125" lon="3.10677789151668548583984375">
        <ele>204.1999969482421875</ele>
        <time>2020-08-07T11:42:56.000Z</time>
      </trkpt>
      <trkpt lat="42.373134680092334747314453125" lon="3.10660681687295436859130859375">
        <ele>204.1999969482421875</ele>
        <time>2020-08-07T11:43:00.000Z</time>
      </trkpt>
      <trkpt lat="42.37312537617981433868408203125" lon="3.10657815076410770416259765625">
        <ele>204.1999969482421875</ele>
        <time>2020-08-07T11:43:01.000Z</time>
      </trkpt>
      <trkpt lat="42.37306385301053524017333984375" lon="3.106512017548084259033203125">
        <ele>203.600006103515625</ele>
        <time>2020-08-07T11:43:04.000Z</time>
      </trkpt>
      <trkpt lat="42.3730124719440937042236328125" lon="3.106461055576801300048828125">
        <ele>203.1999969482421875</ele>
        <time>2020-08-07T11:43:06.000Z</time>
      </trkpt>
      <trkpt lat="42.37292471341788768768310546875" lon="3.10637178830802440643310546875">
        <ele>202</ele>
        <time>2020-08-07T11:43:09.000Z</time>
      </trkpt>
      <trkpt lat="42.37286721356213092803955078125" lon="3.10631093569099903106689453125">
        <ele>201</ele>
        <time>2020-08-07T11:43:11.000Z</time>
      </trkpt>
      <trkpt lat="42.37284005619585514068603515625" lon="3.10627958737313747406005859375">
        <ele>200.600006103515625</ele>
        <time>2020-08-07T11:43:12.000Z</time>
      </trkpt>
      <trkpt lat="42.3727677203714847564697265625" lon="3.10616274364292621612548828125">
        <ele>199.600006103515625</ele>
        <time>2020-08-07T11:43:15.000Z</time>
      </trkpt>
      <trkpt lat="42.372747100889682769775390625" lon="3.10611538589000701904296875">
        <ele>198.399993896484375</ele>
        <time>2020-08-07T11:43:16.000Z</time>
      </trkpt>
      <trkpt lat="42.37270879559218883514404296875" lon="3.1060106121003627777099609375">
        <ele>197.399993896484375</ele>
        <time>2020-08-07T11:43:18.000Z</time>
      </trkpt>
      <trkpt lat="42.3726939596235752105712890625" lon="3.1059556268155574798583984375">
        <ele>197.1999969482421875</ele>
        <time>2020-08-07T11:43:19.000Z</time>
      </trkpt>
      <trkpt lat="42.37266068346798419952392578125" lon="3.10582973062992095947265625">
        <ele>196.1999969482421875</ele>
        <time>2020-08-07T11:43:21.000Z</time>
      </trkpt>
      <trkpt lat="42.3726193606853485107421875" lon="3.10569696128368377685546875">
        <ele>195.399993896484375</ele>
        <time>2020-08-07T11:43:23.000Z</time>
      </trkpt>
      <trkpt lat="42.37259748391807079315185546875" lon="3.105626218020915985107421875">
        <ele>194.8000030517578125</ele>
        <time>2020-08-07T11:43:24.000Z</time>
      </trkpt>
      <trkpt lat="42.3725469410419464111328125" lon="3.10548598878085613250732421875">
        <ele>193.8000030517578125</ele>
        <time>2020-08-07T11:43:26.000Z</time>
      </trkpt>
      <trkpt lat="42.37249958328902721405029296875" lon="3.1053561531007289886474609375">
        <ele>192.600006103515625</ele>
        <time>2020-08-07T11:43:28.000Z</time>
      </trkpt>
      <trkpt lat="42.37245582975447177886962890625" lon="3.10523067601025104522705078125">
        <ele>191.600006103515625</ele>
        <time>2020-08-07T11:43:30.000Z</time>
      </trkpt>
      <trkpt lat="42.37243135459721088409423828125" lon="3.1051734276115894317626953125">
        <ele>191.1999969482421875</ele>
        <time>2020-08-07T11:43:31.000Z</time>
      </trkpt>
      <trkpt lat="42.37240352667868137359619140625" lon="3.10511735267937183380126953125">
        <ele>190.600006103515625</ele>
        <time>2020-08-07T11:43:32.000Z</time>
      </trkpt>
      <trkpt lat="42.372376620769500732421875" lon="3.10506437905132770538330078125">
        <ele>189.8000030517578125</ele>
        <time>2020-08-07T11:43:33.000Z</time>
      </trkpt>
      <trkpt lat="42.3723207972943782806396484375" lon="3.104910068213939666748046875">
        <ele>188.600006103515625</ele>
        <time>2020-08-07T11:43:36.000Z</time>
      </trkpt>
      <trkpt lat="42.37231451086699962615966796875" lon="3.10485634021461009979248046875">
        <ele>188.1999969482421875</ele>
        <time>2020-08-07T11:43:37.000Z</time>
      </trkpt>
      <trkpt lat="42.3723184503614902496337890625" lon="3.10466238297522068023681640625">
        <ele>187.1999969482421875</ele>
        <time>2020-08-07T11:43:40.000Z</time>
      </trkpt>
      <trkpt lat="42.37232725135982036590576171875" lon="3.10452885925769805908203125">
        <ele>186.1999969482421875</ele>
        <time>2020-08-07T11:43:42.000Z</time>
      </trkpt>
      <trkpt lat="42.3723338730633258819580078125" lon="3.1044651567935943603515625">
        <ele>185</ele>
        <time>2020-08-07T11:43:43.000Z</time>
      </trkpt>
      <trkpt lat="42.37234133295714855194091796875" lon="3.1044043041765689849853515625">
        <ele>183.8000030517578125</ele>
        <time>2020-08-07T11:43:44.000Z</time>
      </trkpt>
      <trkpt lat="42.372350133955478668212890625" lon="3.1043463014066219329833984375">
        <ele>183.1999969482421875</ele>
        <time>2020-08-07T11:43:45.000Z</time>
      </trkpt>
      <trkpt lat="42.37236128188669681549072265625" lon="3.104290477931499481201171875">
        <ele>182.600006103515625</ele>
        <time>2020-08-07T11:43:46.000Z</time>
      </trkpt>
      <trkpt lat="42.372392378747463226318359375" lon="3.10418578796088695526123046875">
        <ele>181.399993896484375</ele>
        <time>2020-08-07T11:43:48.000Z</time>
      </trkpt>
      <trkpt lat="42.3724673129618167877197265625" lon="3.10389024205505847930908203125">
        <ele>180.399993896484375</ele>
        <time>2020-08-07T11:43:54.000Z</time>
      </trkpt>
      <trkpt lat="42.3724676482379436492919921875" lon="3.1038343347609043121337890625">
        <ele>180.1999969482421875</ele>
        <time>2020-08-07T11:43:55.000Z</time>
      </trkpt>
      <trkpt lat="42.37244107760488986968994140625" lon="3.1036425568163394927978515625">
        <ele>179</ele>
        <time>2020-08-07T11:43:58.000Z</time>
      </trkpt>
      <trkpt lat="42.3724156804382801055908203125" lon="3.10351498425006866455078125">
        <ele>177.1999969482421875</ele>
        <time>2020-08-07T11:44:00.000Z</time>
      </trkpt>
      <trkpt lat="42.37239204347133636474609375" lon="3.10339294373989105224609375">
        <ele>175.8000030517578125</ele>
        <time>2020-08-07T11:44:02.000Z</time>
      </trkpt>
      <trkpt lat="42.3723429255187511444091796875" lon="3.10312748886644840240478515625">
        <ele>174.600006103515625</ele>
        <time>2020-08-07T11:44:07.000Z</time>
      </trkpt>
      <trkpt lat="42.37229405902326107025146484375" lon="3.10291458852589130401611328125">
        <ele>173.1999969482421875</ele>
        <time>2020-08-07T11:44:12.000Z</time>
      </trkpt>
      <trkpt lat="42.372284419834613800048828125" lon="3.1028741039335727691650390625">
        <ele>173.1999969482421875</ele>
        <time>2020-08-07T11:44:13.000Z</time>
      </trkpt>
      <trkpt lat="42.37220889888703823089599609375" lon="3.10257948003709316253662109375">
        <ele>172.1999969482421875</ele>
        <time>2020-08-07T11:44:20.000Z</time>
      </trkpt>
      <trkpt lat="42.37219884060323238372802734375" lon="3.1025354750454425811767578125">
        <ele>172.1999969482421875</ele>
        <time>2020-08-07T11:44:21.000Z</time>
      </trkpt>
      <trkpt lat="42.372157685458660125732421875" lon="3.1022531725466251373291015625">
        <ele>171.1999969482421875</ele>
        <time>2020-08-07T11:44:27.000Z</time>
      </trkpt>
      <trkpt lat="42.37214662134647369384765625" lon="3.1021566130220890045166015625">
        <ele>169.8000030517578125</ele>
        <time>2020-08-07T11:44:29.000Z</time>
      </trkpt>
      <trkpt lat="42.37209809012711048126220703125" lon="3.10198218561708927154541015625">
        <ele>168.399993896484375</ele>
        <time>2020-08-07T11:44:33.000Z</time>
      </trkpt>
      <trkpt lat="42.37205886282026767730712890625" lon="3.10190373100340366363525390625">
        <ele>167.8000030517578125</ele>
        <time>2020-08-07T11:44:35.000Z</time>
      </trkpt>
      <trkpt lat="42.372017540037631988525390625" lon="3.1018414534628391265869140625">
        <ele>167.1999969482421875</ele>
        <time>2020-08-07T11:44:37.000Z</time>
      </trkpt>
      <trkpt lat="42.37187848426401615142822265625" lon="3.1016785092651844024658203125">
        <ele>167.1999969482421875</ele>
        <time>2020-08-07T11:44:42.000Z</time>
      </trkpt>
      <trkpt lat="42.37178452312946319580078125" lon="3.1015816144645214080810546875">
        <ele>165.399993896484375</ele>
        <time>2020-08-07T11:44:45.000Z</time>
      </trkpt>
      <trkpt lat="42.37171319313347339630126953125" lon="3.10152034275233745574951171875">
        <ele>163.8000030517578125</ele>
        <time>2020-08-07T11:44:47.000Z</time>
      </trkpt>
      <trkpt lat="42.37160808406770229339599609375" lon="3.10142529197037220001220703125">
        <ele>163</ele>
        <time>2020-08-07T11:44:50.000Z</time>
      </trkpt>
      <trkpt lat="42.3715496622025966644287109375" lon="3.1013482622802257537841796875">
        <ele>162.8000030517578125</ele>
        <time>2020-08-07T11:44:52.000Z</time>
      </trkpt>
      <trkpt lat="42.37149216234683990478515625" lon="3.101248182356357574462890625">
        <ele>162.399993896484375</ele>
        <time>2020-08-07T11:44:54.000Z</time>
      </trkpt>
      <trkpt lat="42.3714633285999298095703125" lon="3.101200573146343231201171875">
        <ele>162.1999969482421875</ele>
        <time>2020-08-07T11:44:55.000Z</time>
      </trkpt>
      <trkpt lat="42.37129091285169124603271484375" lon="3.10089371167123317718505859375">
        <ele>161.399993896484375</ele>
        <time>2020-08-07T11:45:01.000Z</time>
      </trkpt>
      <trkpt lat="42.3712747357785701751708984375" lon="3.10083679854869842529296875">
        <ele>161</ele>
        <time>2020-08-07T11:45:02.000Z</time>
      </trkpt>
      <trkpt lat="42.37124380655586719512939453125" lon="3.10062088072299957275390625">
        <ele>160.8000030517578125</ele>
        <time>2020-08-07T11:45:06.000Z</time>
      </trkpt>
      <trkpt lat="42.37118731252849102020263671875" lon="3.1003699265420436859130859375">
        <ele>160.1999969482421875</ele>
        <time>2020-08-07T11:45:11.000Z</time>
      </trkpt>
      <trkpt lat="42.37113500945270061492919921875" lon="3.10022735036909580230712890625">
        <ele>159.8000030517578125</ele>
        <time>2020-08-07T11:45:14.000Z</time>
      </trkpt>
      <trkpt lat="42.3709575645625591278076171875" lon="3.09992308728396892547607421875">
        <ele>158.8000030517578125</ele>
        <time>2020-08-07T11:45:21.000Z</time>
      </trkpt>
      <trkpt lat="42.37086276523768901824951171875" lon="3.099806495010852813720703125">
        <ele>157.1999969482421875</ele>
        <time>2020-08-07T11:45:24.000Z</time>
      </trkpt>
      <trkpt lat="42.37072630785405635833740234375" lon="3.099668361246585845947265625">
        <ele>156.8000030517578125</ele>
        <time>2020-08-07T11:45:28.000Z</time>
      </trkpt>
      <trkpt lat="42.3706222884356975555419921875" lon="3.09957842342555522918701171875">
        <ele>155.600006103515625</ele>
        <time>2020-08-07T11:45:31.000Z</time>
      </trkpt>
      <trkpt lat="42.3705475218594074249267578125" lon="3.09952662326395511627197265625">
        <ele>154.1999969482421875</ele>
        <time>2020-08-07T11:45:33.000Z</time>
      </trkpt>
      <trkpt lat="42.3704321868717670440673828125" lon="3.0994613282382488250732421875">
        <ele>153.399993896484375</ele>
        <time>2020-08-07T11:45:36.000Z</time>
      </trkpt>
      <trkpt lat="42.3703872598707675933837890625" lon="3.09944498352706432342529296875">
        <ele>153</ele>
        <time>2020-08-07T11:45:37.000Z</time>
      </trkpt>
      <trkpt lat="42.370148710906505584716796875" lon="3.09939301572740077972412109375">
        <ele>151.399993896484375</ele>
        <time>2020-08-07T11:45:42.000Z</time>
      </trkpt>
      <trkpt lat="42.3700107447803020477294921875" lon="3.09937558136880397796630859375">
        <ele>150.600006103515625</ele>
        <time>2020-08-07T11:45:45.000Z</time>
      </trkpt>
      <trkpt lat="42.3699661530554294586181640625" lon="3.0993577279150485992431640625">
        <ele>150.1999969482421875</ele>
        <time>2020-08-07T11:45:46.000Z</time>
      </trkpt>
      <trkpt lat="42.369921393692493438720703125" lon="3.099329732358455657958984375">
        <ele>149.1999969482421875</ele>
        <time>2020-08-07T11:45:47.000Z</time>
      </trkpt>
      <trkpt lat="42.36984528601169586181640625" lon="3.0992564745247364044189453125">
        <ele>147.8000030517578125</ele>
        <time>2020-08-07T11:45:49.000Z</time>
      </trkpt>
      <trkpt lat="42.36980983056128025054931640625" lon="3.0992159061133861541748046875">
        <ele>147.399993896484375</ele>
        <time>2020-08-07T11:45:50.000Z</time>
      </trkpt>
      <trkpt lat="42.36973422579467296600341796875" lon="3.09913686476647853851318359375">
        <ele>146.600006103515625</ele>
        <time>2020-08-07T11:45:52.000Z</time>
      </trkpt>
      <trkpt lat="42.36962157301604747772216796875" lon="3.099022619426250457763671875">
        <ele>145.399993896484375</ele>
        <time>2020-08-07T11:45:55.000Z</time>
      </trkpt>
      <trkpt lat="42.36954487860202789306640625" lon="3.09894257225096225738525390625">
        <ele>144</ele>
        <time>2020-08-07T11:45:57.000Z</time>
      </trkpt>
      <trkpt lat="42.3694280348718166351318359375" lon="3.09881575405597686767578125">
        <ele>143.600006103515625</ele>
        <time>2020-08-07T11:46:00.000Z</time>
      </trkpt>
      <trkpt lat="42.36938931047916412353515625" lon="3.09877208434045314788818359375">
        <ele>142.600006103515625</ele>
        <time>2020-08-07T11:46:01.000Z</time>
      </trkpt>
      <trkpt lat="42.3692422918975353240966796875" lon="3.09860142879188060760498046875">
        <ele>141.399993896484375</ele>
        <time>2020-08-07T11:46:05.000Z</time>
      </trkpt>
      <trkpt lat="42.36913559027016162872314453125" lon="3.09845508076250553131103515625">
        <ele>141.1999969482421875</ele>
        <time>2020-08-07T11:46:08.000Z</time>
      </trkpt>
      <trkpt lat="42.369072139263153076171875" lon="3.09835734777152538299560546875">
        <ele>140.8000030517578125</ele>
        <time>2020-08-07T11:46:10.000Z</time>
      </trkpt>
      <trkpt lat="42.3690464906394481658935546875" lon="3.098308145999908447265625">
        <ele>140.399993896484375</ele>
        <time>2020-08-07T11:46:11.000Z</time>
      </trkpt>
      <trkpt lat="42.368975915014743804931640625" lon="3.098155595362186431884765625">
        <ele>139.1999969482421875</ele>
        <time>2020-08-07T11:46:14.000Z</time>
      </trkpt>
      <trkpt lat="42.3688362725079059600830078125" lon="3.09782710857689380645751953125">
        <ele>138</ele>
        <time>2020-08-07T11:46:20.000Z</time>
      </trkpt>
      <trkpt lat="42.36881154589354991912841796875" lon="3.0977728776633739471435546875">
        <ele>137.8000030517578125</ele>
        <time>2020-08-07T11:46:21.000Z</time>
      </trkpt>
      <trkpt lat="42.36871297471225261688232421875" lon="3.0975810997188091278076171875">
        <ele>137.600006103515625</ele>
        <time>2020-08-07T11:46:25.000Z</time>
      </trkpt>
      <trkpt lat="42.3686548881232738494873046875" lon="3.09750691987574100494384765625">
        <ele>137.600006103515625</ele>
        <time>2020-08-07T11:46:27.000Z</time>
      </trkpt>
      <trkpt lat="42.3684753477573394775390625" lon="3.09743215329945087432861328125">
        <ele>137.1999969482421875</ele>
        <time>2020-08-07T11:46:32.000Z</time>
      </trkpt>
      <trkpt lat="42.36834970302879810333251953125" lon="3.09748881496489048004150390625">
        <ele>135.8000030517578125</ele>
        <time>2020-08-07T11:46:35.000Z</time>
      </trkpt>
      <trkpt lat="42.368265129625797271728515625" lon="3.09756123460829257965087890625">
        <ele>134.600006103515625</ele>
        <time>2020-08-07T11:46:37.000Z</time>
      </trkpt>
      <trkpt lat="42.36818902194499969482421875" lon="3.09765678830444812774658203125">
        <ele>134.1999969482421875</ele>
        <time>2020-08-07T11:46:39.000Z</time>
      </trkpt>
      <trkpt lat="42.36815222539007663726806640625" lon="3.0977101810276508331298828125">
        <ele>133.600006103515625</ele>
        <time>2020-08-07T11:46:40.000Z</time>
      </trkpt>
      <trkpt lat="42.36811400391161441802978515625" lon="3.09776692651212215423583984375">
        <ele>132.399993896484375</ele>
        <time>2020-08-07T11:46:41.000Z</time>
      </trkpt>
      <trkpt lat="42.36807444132864475250244140625" lon="3.0978238396346569061279296875">
        <ele>130.8000030517578125</ele>
        <time>2020-08-07T11:46:42.000Z</time>
      </trkpt>
      <trkpt lat="42.36803404055535793304443359375" lon="3.097880668938159942626953125">
        <ele>129.8000030517578125</ele>
        <time>2020-08-07T11:46:43.000Z</time>
      </trkpt>
      <trkpt lat="42.36799464561045169830322265625" lon="3.0979364924132823944091796875">
        <ele>128.8000030517578125</ele>
        <time>2020-08-07T11:46:44.000Z</time>
      </trkpt>
      <trkpt lat="42.367956340312957763671875" lon="3.09799122624099254608154296875">
        <ele>126.8000030517578125</ele>
        <time>2020-08-07T11:46:45.000Z</time>
      </trkpt>
      <trkpt lat="42.3679189570248126983642578125" lon="3.09804721735417842864990234375">
        <ele>125.1999969482421875</ele>
        <time>2020-08-07T11:46:46.000Z</time>
      </trkpt>
      <trkpt lat="42.36788048408925533294677734375" lon="3.09810270555317401885986328125">
        <ele>124</ele>
        <time>2020-08-07T11:46:47.000Z</time>
      </trkpt>
      <trkpt lat="42.3678428493440151214599609375" lon="3.09815987013280391693115234375">
        <ele>123</ele>
        <time>2020-08-07T11:46:48.000Z</time>
      </trkpt>
      <trkpt lat="42.3677690885961055755615234375" lon="3.09827637858688831329345703125">
        <ele>121.59999847412109375</ele>
        <time>2020-08-07T11:46:50.000Z</time>
      </trkpt>
      <trkpt lat="42.3677318729460239410400390625" lon="3.098331950604915618896484375">
        <ele>120.8000030517578125</ele>
        <time>2020-08-07T11:46:51.000Z</time>
      </trkpt>
      <trkpt lat="42.367693819105625152587890625" lon="3.09838517569005489349365234375">
        <ele>120</ele>
        <time>2020-08-07T11:46:52.000Z</time>
      </trkpt>
      <trkpt lat="42.36765534617006778717041015625" lon="3.098436892032623291015625">
        <ele>119.59999847412109375</ele>
        <time>2020-08-07T11:46:53.000Z</time>
      </trkpt>
      <trkpt lat="42.36761829815804958343505859375" lon="3.0984865128993988037109375">
        <ele>118.8000030517578125</ele>
        <time>2020-08-07T11:46:54.000Z</time>
      </trkpt>
      <trkpt lat="42.36751553602516651153564453125" lon="3.098615594208240509033203125">
        <ele>116.8000030517578125</ele>
        <time>2020-08-07T11:46:57.000Z</time>
      </trkpt>
      <trkpt lat="42.36747966147959232330322265625" lon="3.098657839000225067138671875">
        <ele>116.40000152587890625</ele>
        <time>2020-08-07T11:46:58.000Z</time>
      </trkpt>
      <trkpt lat="42.36740045249462127685546875" lon="3.09873805381357669830322265625">
        <ele>114.1999969482421875</ele>
        <time>2020-08-07T11:47:00.000Z</time>
      </trkpt>
      <trkpt lat="42.36730665899813175201416015625" lon="3.09881114400923252105712890625">
        <ele>112.59999847412109375</ele>
        <time>2020-08-07T11:47:02.000Z</time>
      </trkpt>
      <trkpt lat="42.3672594688832759857177734375" lon="3.09883654117584228515625">
        <ele>112.1999969482421875</ele>
        <time>2020-08-07T11:47:03.000Z</time>
      </trkpt>
      <trkpt lat="42.3672178946435451507568359375" lon="3.09885305352509021759033203125">
        <ele>111.1999969482421875</ele>
        <time>2020-08-07T11:47:04.000Z</time>
      </trkpt>
      <trkpt lat="42.36715913750231266021728515625" lon="3.0988695658743381500244140625">
        <ele>109.8000030517578125</ele>
        <time>2020-08-07T11:47:06.000Z</time>
      </trkpt>
      <trkpt lat="42.3671437986195087432861328125" lon="3.09886914677917957305908203125">
        <ele>109.40000152587890625</ele>
        <time>2020-08-07T11:47:07.000Z</time>
      </trkpt>
      <trkpt lat="42.36713499762117862701416015625" lon="3.0988645367324352264404296875">
        <ele>108.59999847412109375</ele>
        <time>2020-08-07T11:47:09.000Z</time>
      </trkpt>
      <trkpt lat="42.367134578526020050048828125" lon="3.098862357437610626220703125">
        <ele>108.40000152587890625</ele>
        <time>2020-08-07T11:47:12.000Z</time>
      </trkpt>
      <trkpt lat="42.36713147722184658050537109375" lon="3.09886361472308635711669921875">
        <ele>108.59999847412109375</ele>
        <time>2020-08-07T11:47:27.000Z</time>
      </trkpt>
      <trkpt lat="42.36710264347493648529052734375" lon="3.0988781154155731201171875">
        <ele>108.59999847412109375</ele>
        <time>2020-08-07T11:47:29.000Z</time>
      </trkpt>
      <trkpt lat="42.366962246596813201904296875" lon="3.0989486910402774810791015625">
        <ele>107.59999847412109375</ele>
        <time>2020-08-07T11:47:35.000Z</time>
      </trkpt>
      <trkpt lat="42.36687448807060718536376953125" lon="3.09896729886531829833984375">
        <ele>106.40000152587890625</ele>
        <time>2020-08-07T11:47:38.000Z</time>
      </trkpt>
      <trkpt lat="42.36682469956576824188232421875" lon="3.09894458390772342681884765625">
        <ele>106</ele>
        <time>2020-08-07T11:47:40.000Z</time>
      </trkpt>
      <trkpt lat="42.366783879697322845458984375" lon="3.0989022552967071533203125">
        <ele>105.40000152587890625</ele>
        <time>2020-08-07T11:47:42.000Z</time>
      </trkpt>
      <trkpt lat="42.36675580032169818878173828125" lon="3.09883176349103450775146484375">
        <ele>105</ele>
        <time>2020-08-07T11:47:45.000Z</time>
      </trkpt>
      <trkpt lat="42.3667079396545886993408203125" lon="3.09866094030439853668212890625">
        <ele>105.59999847412109375</ele>
        <time>2020-08-07T11:47:53.000Z</time>
      </trkpt>
      <trkpt lat="42.36674054525792598724365234375" lon="3.09854082763195037841796875">
        <ele>106</ele>
        <time>2020-08-07T11:47:59.000Z</time>
      </trkpt>
      <trkpt lat="42.36680977977812290191650390625" lon="3.0984233133494853973388671875">
        <ele>106.40000152587890625</ele>
        <time>2020-08-07T11:48:06.000Z</time>
      </trkpt>
      <trkpt lat="42.3668199218809604644775390625" lon="3.09840763919055461883544921875">
        <ele>106.59999847412109375</ele>
        <time>2020-08-07T11:48:07.000Z</time>
      </trkpt>
      <trkpt lat="42.3668752424418926239013671875" lon="3.09831677936017513275146484375">
        <ele>107.59999847412109375</ele>
        <time>2020-08-07T11:48:13.000Z</time>
      </trkpt>
      <trkpt lat="42.3668839596211910247802734375" lon="3.0983006022870540618896484375">
        <ele>108.40000152587890625</ele>
        <time>2020-08-07T11:48:14.000Z</time>
      </trkpt>
      <trkpt lat="42.36691941507160663604736328125" lon="3.098235391080379486083984375">
        <ele>109</ele>
        <time>2020-08-07T11:48:18.000Z</time>
      </trkpt>
      <trkpt lat="42.36694271676242351531982421875" lon="3.09818543493747711181640625">
        <ele>110</ele>
        <time>2020-08-07T11:48:21.000Z</time>
      </trkpt>
      <trkpt lat="42.3669577203691005706787109375" lon="3.09814989566802978515625">
        <ele>110.40000152587890625</ele>
        <time>2020-08-07T11:48:23.000Z</time>
      </trkpt>
      <trkpt lat="42.3669684492051601409912109375" lon="3.098114021122455596923828125">
        <ele>111</ele>
        <time>2020-08-07T11:48:25.000Z</time>
      </trkpt>
      <trkpt lat="42.36698739230632781982421875" lon="3.09803254902362823486328125">
        <ele>112.1999969482421875</ele>
        <time>2020-08-07T11:48:30.000Z</time>
      </trkpt>
      <trkpt lat="42.3669922538101673126220703125" lon="3.09798016212880611419677734375">
        <ele>113</ele>
        <time>2020-08-07T11:48:33.000Z</time>
      </trkpt>
      <trkpt lat="42.36699418164789676666259765625" lon="3.09796415269374847412109375">
        <ele>113.40000152587890625</ele>
        <time>2020-08-07T11:48:34.000Z</time>
      </trkpt>
      <trkpt lat="42.3670006357133388519287109375" lon="3.09791578911244869232177734375">
        <ele>114.59999847412109375</ele>
        <time>2020-08-07T11:48:37.000Z</time>
      </trkpt>
      <trkpt lat="42.367006838321685791015625" lon="3.0978588759899139404296875">
        <ele>115</ele>
        <time>2020-08-07T11:48:40.000Z</time>
      </trkpt>
      <trkpt lat="42.367011867463588714599609375" lon="3.09778268449008464813232421875">
        <ele>115.59999847412109375</ele>
        <time>2020-08-07T11:48:44.000Z</time>
      </trkpt>
      <trkpt lat="42.3670163936913013458251953125" lon="3.09770473279058933258056640625">
        <ele>116.1999969482421875</ele>
        <time>2020-08-07T11:48:48.000Z</time>
      </trkpt>
      <trkpt lat="42.3670200817286968231201171875" lon="3.09768126346170902252197265625">
        <ele>117</ele>
        <time>2020-08-07T11:48:50.000Z</time>
      </trkpt>
      <trkpt lat="42.36701815389096736907958984375" lon="3.0976793356239795684814453125">
        <ele>117.1999969482421875</ele>
        <time>2020-08-07T11:48:53.000Z</time>
      </trkpt>
      <trkpt lat="42.367033995687961578369140625" lon="3.09764136560261249542236328125">
        <ele>117.59999847412109375</ele>
        <time>2020-08-07T11:48:59.000Z</time>
      </trkpt>
      <trkpt lat="42.36703810282051563262939453125" lon="3.09761454351246356964111328125">
        <ele>118</ele>
        <time>2020-08-07T11:49:02.000Z</time>
      </trkpt>
      <trkpt lat="42.36705386079847812652587890625" lon="3.097552768886089324951171875">
        <ele>119.1999969482421875</ele>
        <time>2020-08-07T11:49:09.000Z</time>
      </trkpt>
      <trkpt lat="42.36707263626158237457275390625" lon="3.09747858904302120208740234375">
        <ele>120.40000152587890625</ele>
        <time>2020-08-07T11:49:18.000Z</time>
      </trkpt>
      <trkpt lat="42.36707380972802639007568359375" lon="3.0974724702537059783935546875">
        <ele>120.40000152587890625</ele>
        <time>2020-08-07T11:49:19.000Z</time>
      </trkpt>
      <trkpt lat="42.3670831136405467987060546875" lon="3.097427375614643096923828125">
        <ele>121.1999969482421875</ele>
        <time>2020-08-07T11:49:28.000Z</time>
      </trkpt>
      <trkpt lat="42.36708655022084712982177734375" lon="3.0974238552153110504150390625">
        <ele>121.1999969482421875</ele>
        <time>2020-08-07T11:49:40.000Z</time>
      </trkpt>
      <trkpt lat="42.36708688549697399139404296875" lon="3.097416646778583526611328125">
        <ele>121.1999969482421875</ele>
        <time>2020-08-07T11:49:41.000Z</time>
      </trkpt>
      <trkpt lat="42.3670925013720989227294921875" lon="3.097395859658718109130859375">
        <ele>121.40000152587890625</ele>
        <time>2020-08-07T11:49:43.000Z</time>
      </trkpt>
      <trkpt lat="42.367104403674602508544921875" lon="3.097366355359554290771484375">
        <ele>121.40000152587890625</ele>
        <time>2020-08-07T11:49:45.000Z</time>
      </trkpt>
      <trkpt lat="42.36715729348361492156982421875" lon="3.09723199345171451568603515625">
        <ele>122.59999847412109375</ele>
        <time>2020-08-07T11:49:53.000Z</time>
      </trkpt>
      <trkpt lat="42.36716215498745441436767578125" lon="3.0972153134644031524658203125">
        <ele>123</ele>
        <time>2020-08-07T11:49:54.000Z</time>
      </trkpt>
      <trkpt lat="42.367182187736034393310546875" lon="3.09716527350246906280517578125">
        <ele>123.8000030517578125</ele>
        <time>2020-08-07T11:49:57.000Z</time>
      </trkpt>
      <trkpt lat="42.367213703691959381103515625" lon="3.0970785208046436309814453125">
        <ele>125</ele>
        <time>2020-08-07T11:50:02.000Z</time>
      </trkpt>
      <trkpt lat="42.36723692156374454498291015625" lon="3.0970107950270175933837890625">
        <ele>126.1999969482421875</ele>
        <time>2020-08-07T11:50:06.000Z</time>
      </trkpt>
      <trkpt lat="42.367254607379436492919921875" lon="3.096962682902812957763671875">
        <ele>126.8000030517578125</ele>
        <time>2020-08-07T11:50:09.000Z</time>
      </trkpt>
      <trkpt lat="42.367275059223175048828125" lon="3.09691398404538631439208984375">
        <ele>127.40000152587890625</ele>
        <time>2020-08-07T11:50:12.000Z</time>
      </trkpt>
      <trkpt lat="42.36730732955038547515869140625" lon="3.09684726409614086151123046875">
        <ele>128.399993896484375</ele>
        <time>2020-08-07T11:50:16.000Z</time>
      </trkpt>
      <trkpt lat="42.36732400953769683837890625" lon="3.09681356884539127349853515625">
        <ele>128.8000030517578125</ele>
        <time>2020-08-07T11:50:18.000Z</time>
      </trkpt>
      <trkpt lat="42.367336750030517578125" lon="3.0967794544994831085205078125">
        <ele>129.600006103515625</ele>
        <time>2020-08-07T11:50:20.000Z</time>
      </trkpt>
      <trkpt lat="42.36736684106290340423583984375" lon="3.0967164225876331329345703125">
        <ele>130.600006103515625</ele>
        <time>2020-08-07T11:50:24.000Z</time>
      </trkpt>
      <trkpt lat="42.36737430095672607421875" lon="3.0967013351619243621826171875">
        <ele>130.8000030517578125</ele>
        <time>2020-08-07T11:50:25.000Z</time>
      </trkpt>
      <trkpt lat="42.36744093708693981170654296875" lon="3.09655599296092987060546875">
        <ele>131.8000030517578125</ele>
        <time>2020-08-07T11:50:33.000Z</time>
      </trkpt>
      <trkpt lat="42.367457114160060882568359375" lon="3.09652472846210002899169921875">
        <ele>132</ele>
        <time>2020-08-07T11:50:35.000Z</time>
      </trkpt>
      <trkpt lat="42.367484606802463531494140625" lon="3.09645918197929859161376953125">
        <ele>133.1999969482421875</ele>
        <time>2020-08-07T11:50:39.000Z</time>
      </trkpt>
      <trkpt lat="42.36749826930463314056396484375" lon="3.09642548672854900360107421875">
        <ele>133.600006103515625</ele>
        <time>2020-08-07T11:50:41.000Z</time>
      </trkpt>
      <trkpt lat="42.36753246746957302093505859375" lon="3.0963556654751300811767578125">
        <ele>134.1999969482421875</ele>
        <time>2020-08-07T11:50:45.000Z</time>
      </trkpt>
      <trkpt lat="42.36757655628025531768798828125" lon="3.0962524004280567169189453125">
        <ele>135.399993896484375</ele>
        <time>2020-08-07T11:50:51.000Z</time>
      </trkpt>
      <trkpt lat="42.3676235787570476531982421875" lon="3.096097670495510101318359375">
        <ele>136.399993896484375</ele>
        <time>2020-08-07T11:50:59.000Z</time>
      </trkpt>
      <trkpt lat="42.3676292784512042999267578125" lon="3.09607864357531070709228515625">
        <ele>136.399993896484375</ele>
        <time>2020-08-07T11:51:00.000Z</time>
      </trkpt>
      <trkpt lat="42.3676597885787487030029296875" lon="3.09598661027848720550537109375">
        <ele>137.600006103515625</ele>
        <time>2020-08-07T11:51:05.000Z</time>
      </trkpt>
      <trkpt lat="42.3676731996238231658935546875" lon="3.09595115482807159423828125">
        <ele>138</ele>
        <time>2020-08-07T11:51:07.000Z</time>
      </trkpt>
      <trkpt lat="42.36773815937340259552001953125" lon="3.0958346463739871978759765625">
        <ele>138.600006103515625</ele>
        <time>2020-08-07T11:51:14.000Z</time>
      </trkpt>
      <trkpt lat="42.3677623830735683441162109375" lon="3.09580765664577484130859375">
        <ele>139</ele>
        <time>2020-08-07T11:51:16.000Z</time>
      </trkpt>
      <trkpt lat="42.3677999339997768402099609375" lon="3.095766417682170867919921875">
        <ele>139.8000030517578125</ele>
        <time>2020-08-07T11:51:19.000Z</time>
      </trkpt>
      <trkpt lat="42.36786422319710254669189453125" lon="3.0957062356173992156982421875">
        <ele>141</ele>
        <time>2020-08-07T11:51:24.000Z</time>
      </trkpt>
      <trkpt lat="42.36787562258541584014892578125" lon="3.095693998038768768310546875">
        <ele>141.1999969482421875</ele>
        <time>2020-08-07T11:51:25.000Z</time>
      </trkpt>
      <trkpt lat="42.36792976967990398406982421875" lon="3.09564747847616672515869140625">
        <ele>142</ele>
        <time>2020-08-07T11:51:30.000Z</time>
      </trkpt>
      <trkpt lat="42.36796514131128787994384765625" lon="3.09562384150922298431396484375">
        <ele>142.1999969482421875</ele>
        <time>2020-08-07T11:51:33.000Z</time>
      </trkpt>
      <trkpt lat="42.36804577521979808807373046875" lon="3.0955905653536319732666015625">
        <ele>143.1999969482421875</ele>
        <time>2020-08-07T11:51:39.000Z</time>
      </trkpt>
      <trkpt lat="42.36808567307889461517333984375" lon="3.09557740576565265655517578125">
        <ele>143.399993896484375</ele>
        <time>2020-08-07T11:51:42.000Z</time>
      </trkpt>
      <trkpt lat="42.3681479506194591522216796875" lon="3.09555527754127979278564453125">
        <ele>144.399993896484375</ele>
        <time>2020-08-07T11:51:47.000Z</time>
      </trkpt>
      <trkpt lat="42.36820519901812076568603515625" lon="3.09553943574428558349609375">
        <ele>145</ele>
        <time>2020-08-07T11:51:52.000Z</time>
      </trkpt>
      <trkpt lat="42.36824828200042247772216796875" lon="3.0955258570611476898193359375">
        <ele>145.399993896484375</ele>
        <time>2020-08-07T11:51:55.000Z</time>
      </trkpt>
      <trkpt lat="42.36828692257404327392578125" lon="3.0955121107399463653564453125">
        <ele>146</ele>
        <time>2020-08-07T11:51:58.000Z</time>
      </trkpt>
      <trkpt lat="42.36834484152495861053466796875" lon="3.0954770743846893310546875">
        <ele>146.600006103515625</ele>
        <time>2020-08-07T11:52:03.000Z</time>
      </trkpt>
      <trkpt lat="42.36837551929056644439697265625" lon="3.09545016847550868988037109375">
        <ele>146.8000030517578125</ele>
        <time>2020-08-07T11:52:06.000Z</time>
      </trkpt>
      <trkpt lat="42.3684342764317989349365234375" lon="3.09538654983043670654296875">
        <ele>147.8000030517578125</ele>
        <time>2020-08-07T11:52:12.000Z</time>
      </trkpt>
      <trkpt lat="42.3684496991336345672607421875" lon="3.09536266140639781951904296875">
        <ele>148.1999969482421875</ele>
        <time>2020-08-07T11:52:14.000Z</time>
      </trkpt>
      <trkpt lat="42.368465960025787353515625" lon="3.0953268706798553466796875">
        <ele>149</ele>
        <time>2020-08-07T11:52:17.000Z</time>
      </trkpt>
      <trkpt lat="42.36848942935466766357421875" lon="3.09527297504246234893798828125">
        <ele>149.600006103515625</ele>
        <time>2020-08-07T11:52:21.000Z</time>
      </trkpt>
      <trkpt lat="42.36849839799106121063232421875" lon="3.095245398581027984619140625">
        <ele>150</ele>
        <time>2020-08-07T11:52:23.000Z</time>
      </trkpt>
      <trkpt lat="42.3685217835009098052978515625" lon="3.09517197310924530029296875">
        <ele>151.1999969482421875</ele>
        <time>2020-08-07T11:52:28.000Z</time>
      </trkpt>
      <trkpt lat="42.36853527836501598358154296875" lon="3.09512796811759471893310546875">
        <ele>152</ele>
        <time>2020-08-07T11:52:31.000Z</time>
      </trkpt>
      <trkpt lat="42.36854282207787036895751953125" lon="3.09509812854230403900146484375">
        <ele>152.1999969482421875</ele>
        <time>2020-08-07T11:52:33.000Z</time>
      </trkpt>
      <trkpt lat="42.36856411211192607879638671875" lon="3.09503224678337574005126953125">
        <ele>152.600006103515625</ele>
        <time>2020-08-07T11:52:37.000Z</time>
      </trkpt>
      <trkpt lat="42.368626892566680908203125" lon="3.0949619226157665252685546875">
        <ele>153.1999969482421875</ele>
        <time>2020-08-07T11:52:43.000Z</time>
      </trkpt>
      <trkpt lat="42.36866402439773082733154296875" lon="3.0949475057423114776611328125">
        <ele>154</ele>
        <time>2020-08-07T11:52:46.000Z</time>
      </trkpt>
      <trkpt lat="42.36868925392627716064453125" lon="3.094944655895233154296875">
        <ele>154.1999969482421875</ele>
        <time>2020-08-07T11:52:48.000Z</time>
      </trkpt>
      <trkpt lat="42.36875773407518863677978515625" lon="3.09495077468454837799072265625">
        <ele>155</ele>
        <time>2020-08-07T11:52:53.000Z</time>
      </trkpt>
      <trkpt lat="42.36883719451725482940673828125" lon="3.09499117545783519744873046875">
        <ele>155.399993896484375</ele>
        <time>2020-08-07T11:52:59.000Z</time>
      </trkpt>
      <trkpt lat="42.36886317841708660125732421875" lon="3.09499897062778472900390625">
        <ele>155.600006103515625</ele>
        <time>2020-08-07T11:53:01.000Z</time>
      </trkpt>
      <trkpt lat="42.36891581676900386810302734375" lon="3.09502839110791683197021484375">
        <ele>156.399993896484375</ele>
        <time>2020-08-07T11:53:05.000Z</time>
      </trkpt>
      <trkpt lat="42.36894330941140651702880859375" lon="3.09503895230591297149658203125">
        <ele>156.8000030517578125</ele>
        <time>2020-08-07T11:53:07.000Z</time>
      </trkpt>
      <trkpt lat="42.36904062330722808837890625" lon="3.09510349296033382415771484375">
        <ele>157.399993896484375</ele>
        <time>2020-08-07T11:53:14.000Z</time>
      </trkpt>
      <trkpt lat="42.3691343329846858978271484375" lon="3.09519351460039615631103515625">
        <ele>158.1999969482421875</ele>
        <time>2020-08-07T11:53:22.000Z</time>
      </trkpt>
      <trkpt lat="42.36915729939937591552734375" lon="3.09521086513996124267578125">
        <ele>158.600006103515625</ele>
        <time>2020-08-07T11:53:24.000Z</time>
      </trkpt>
      <trkpt lat="42.3692292161285877227783203125" lon="3.0952646769583225250244140625">
        <ele>160</ele>
        <time>2020-08-07T11:53:30.000Z</time>
      </trkpt>
      <trkpt lat="42.36932099796831607818603515625" lon="3.0953443050384521484375">
        <ele>160.600006103515625</ele>
        <time>2020-08-07T11:53:38.000Z</time>
      </trkpt>
      <trkpt lat="42.3693777434527873992919921875" lon="3.09539015404880046844482421875">
        <ele>161</ele>
        <time>2020-08-07T11:53:43.000Z</time>
      </trkpt>
      <trkpt lat="42.369409762322902679443359375" lon="3.09541630558669567108154296875">
        <ele>161.399993896484375</ele>
        <time>2020-08-07T11:53:46.000Z</time>
      </trkpt>
      <trkpt lat="42.36945527605712413787841796875" lon="3.09542938135564327239990234375">
        <ele>162.1999969482421875</ele>
        <time>2020-08-07T11:53:50.000Z</time>
      </trkpt>
      <trkpt lat="42.36948729492723941802978515625" lon="3.095425777137279510498046875">
        <ele>163</ele>
        <time>2020-08-07T11:53:53.000Z</time>
      </trkpt>
      <trkpt lat="42.36950607039034366607666015625" lon="3.0954081751406192779541015625">
        <ele>163.1999969482421875</ele>
        <time>2020-08-07T11:53:55.000Z</time>
      </trkpt>
      <trkpt lat="42.36953951418399810791015625" lon="3.09533081017434597015380859375">
        <ele>163.1999969482421875</ele>
        <time>2020-08-07T11:54:00.000Z</time>
      </trkpt>
      <trkpt lat="42.3695608042180538177490234375" lon="3.09518379159271717071533203125">
        <ele>164</ele>
        <time>2020-08-07T11:54:08.000Z</time>
      </trkpt>
      <trkpt lat="42.36956097185611724853515625" lon="3.09514515101909637451171875">
        <ele>164.399993896484375</ele>
        <time>2020-08-07T11:54:10.000Z</time>
      </trkpt>
      <trkpt lat="42.3695534281432628631591796875" lon="3.09503593482077121734619140625">
        <ele>164.8000030517578125</ele>
        <time>2020-08-07T11:54:15.000Z</time>
      </trkpt>
      <trkpt lat="42.36954663880169391632080078125" lon="3.0948268063366413116455078125">
        <ele>164.8000030517578125</ele>
        <time>2020-08-07T11:54:23.000Z</time>
      </trkpt>
      <trkpt lat="42.369571365416049957275390625" lon="3.09466210193932056427001953125">
        <ele>165.399993896484375</ele>
        <time>2020-08-07T11:54:31.000Z</time>
      </trkpt>
      <trkpt lat="42.36957513727247714996337890625" lon="3.09464248828589916229248046875">
        <ele>165.399993896484375</ele>
        <time>2020-08-07T11:54:32.000Z</time>
      </trkpt>
      <trkpt lat="42.369615621864795684814453125" lon="3.09449178166687488555908203125">
        <ele>166.399993896484375</ele>
        <time>2020-08-07T11:54:40.000Z</time>
      </trkpt>
      <trkpt lat="42.36966314725577831268310546875" lon="3.09434208087623119354248046875">
        <ele>167.600006103515625</ele>
        <time>2020-08-07T11:54:48.000Z</time>
      </trkpt>
      <trkpt lat="42.36966918222606182098388671875" lon="3.0943245626986026763916015625">
        <ele>167.8000030517578125</ele>
        <time>2020-08-07T11:54:49.000Z</time>
      </trkpt>
      <trkpt lat="42.36970690079033374786376953125" lon="3.0942166037857532501220703125">
        <ele>168.399993896484375</ele>
        <time>2020-08-07T11:54:55.000Z</time>
      </trkpt>
      <trkpt lat="42.3697126843035221099853515625" lon="3.09419807977974414825439453125">
        <ele>168.8000030517578125</ele>
        <time>2020-08-07T11:54:56.000Z</time>
      </trkpt>
      <trkpt lat="42.36975652165710926055908203125" lon="3.0940761230885982513427734375">
        <ele>169.600006103515625</ele>
        <time>2020-08-07T11:55:02.000Z</time>
      </trkpt>
      <trkpt lat="42.36976792104542255401611328125" lon="3.09403144754469394683837890625">
        <ele>169.8000030517578125</ele>
        <time>2020-08-07T11:55:04.000Z</time>
      </trkpt>
      <trkpt lat="42.369802035391330718994140625" lon="3.09389532543718814849853515625">
        <ele>170.399993896484375</ele>
        <time>2020-08-07T11:55:11.000Z</time>
      </trkpt>
      <trkpt lat="42.36980547197163105010986328125" lon="3.09385660104453563690185546875">
        <ele>170.8000030517578125</ele>
        <time>2020-08-07T11:55:13.000Z</time>
      </trkpt>
      <trkpt lat="42.36982642672955989837646484375" lon="3.0937214009463787078857421875">
        <ele>171.399993896484375</ele>
        <time>2020-08-07T11:55:20.000Z</time>
      </trkpt>
      <trkpt lat="42.36984184943139553070068359375" lon="3.09366784058511257171630859375">
        <ele>171.600006103515625</ele>
        <time>2020-08-07T11:55:23.000Z</time>
      </trkpt>
      <trkpt lat="42.36986406147480010986328125" lon="3.09360112063586711883544921875">
        <ele>172.600006103515625</ele>
        <time>2020-08-07T11:55:27.000Z</time>
      </trkpt>
      <trkpt lat="42.369873784482479095458984375" lon="3.09356206096708774566650390625">
        <ele>172.8000030517578125</ele>
        <time>2020-08-07T11:55:29.000Z</time>
      </trkpt>
      <trkpt lat="42.3698915541172027587890625" lon="3.09346516616642475128173828125">
        <ele>173.399993896484375</ele>
        <time>2020-08-07T11:55:34.000Z</time>
      </trkpt>
      <trkpt lat="42.3698987625539302825927734375" lon="3.0934278666973114013671875">
        <ele>173.8000030517578125</ele>
        <time>2020-08-07T11:55:36.000Z</time>
      </trkpt>
      <trkpt lat="42.36993220634758472442626953125" lon="3.093355782330036163330078125">
        <ele>174.8000030517578125</ele>
        <time>2020-08-07T11:55:40.000Z</time>
      </trkpt>
      <trkpt lat="42.36994662322103977203369140625" lon="3.09333742596209049224853515625">
        <ele>175</ele>
        <time>2020-08-07T11:55:41.000Z</time>
      </trkpt>
      <trkpt lat="42.37004108726978302001953125" lon="3.093307502567768096923828125">
        <ele>175.399993896484375</ele>
        <time>2020-08-07T11:55:47.000Z</time>
      </trkpt>
      <trkpt lat="42.3700808174908161163330078125" lon="3.093304820358753204345703125">
        <ele>176</ele>
        <time>2020-08-07T11:55:50.000Z</time>
      </trkpt>
      <trkpt lat="42.37013638950884342193603515625" lon="3.0932939238846302032470703125">
        <ele>176.399993896484375</ele>
        <time>2020-08-07T11:55:54.000Z</time>
      </trkpt>
      <trkpt lat="42.37018198706209659576416015625" lon="3.0932671017944812774658203125">
        <ele>176.8000030517578125</ele>
        <time>2020-08-07T11:55:58.000Z</time>
      </trkpt>
      <trkpt lat="42.37021333537995815277099609375" lon="3.09323986060917377471923828125">
        <ele>177.600006103515625</ele>
        <time>2020-08-07T11:56:01.000Z</time>
      </trkpt>
      <trkpt lat="42.3702306859195232391357421875" lon="3.09321857057511806488037109375">
        <ele>178.1999969482421875</ele>
        <time>2020-08-07T11:56:03.000Z</time>
      </trkpt>
      <trkpt lat="42.370287515223026275634765625" lon="3.0931306444108486175537109375">
        <ele>178.399993896484375</ele>
        <time>2020-08-07T11:56:10.000Z</time>
      </trkpt>
      <trkpt lat="42.37030855379998683929443359375" lon="3.093084208667278289794921875">
        <ele>179.1999969482421875</ele>
        <time>2020-08-07T11:56:13.000Z</time>
      </trkpt>
      <trkpt lat="42.3703316040337085723876953125" lon="3.09300064109265804290771484375">
        <ele>179.8000030517578125</ele>
        <time>2020-08-07T11:56:18.000Z</time>
      </trkpt>
      <trkpt lat="42.37033721990883350372314453125" lon="3.092963509261608123779296875">
        <ele>180</ele>
        <time>2020-08-07T11:56:20.000Z</time>
      </trkpt>
      <trkpt lat="42.37033939920365810394287109375" lon="3.0929432250559329986572265625">
        <ele>180.1999969482421875</ele>
        <time>2020-08-07T11:56:21.000Z</time>
      </trkpt>
      <trkpt lat="42.370338477194309234619140625" lon="3.09292252175509929656982421875">
        <ele>180.399993896484375</ele>
        <time>2020-08-07T11:56:22.000Z</time>
      </trkpt>
      <trkpt lat="42.3703275807201862335205078125" lon="3.09286787174642086029052734375">
        <ele>180.600006103515625</ele>
        <time>2020-08-07T11:56:25.000Z</time>
      </trkpt>
      <trkpt lat="42.3703074641525745391845703125" lon="3.092681206762790679931640625">
        <ele>181.1999969482421875</ele>
        <time>2020-08-07T11:56:33.000Z</time>
      </trkpt>
      <trkpt lat="42.37030394375324249267578125" lon="3.09261289425194263458251953125">
        <ele>181.399993896484375</ele>
        <time>2020-08-07T11:56:36.000Z</time>
      </trkpt>
      <trkpt lat="42.37031123600900173187255859375" lon="3.0925254710018634796142578125">
        <ele>182.399993896484375</ele>
        <time>2020-08-07T11:56:40.000Z</time>
      </trkpt>
      <trkpt lat="42.37031592987477779388427734375" lon="3.092485405504703521728515625">
        <ele>182.600006103515625</ele>
        <time>2020-08-07T11:56:42.000Z</time>
      </trkpt>
      <trkpt lat="42.37032137811183929443359375" lon="3.09246637858450412750244140625">
        <ele>182.600006103515625</ele>
        <time>2020-08-07T11:56:43.000Z</time>
      </trkpt>
      <trkpt lat="42.370367310941219329833984375" lon="3.09233595617115497589111328125">
        <ele>182.8000030517578125</ele>
        <time>2020-08-07T11:56:49.000Z</time>
      </trkpt>
      <trkpt lat="42.37042724154889583587646484375" lon="3.09228583239018917083740234375">
        <ele>183.399993896484375</ele>
        <time>2020-08-07T11:56:53.000Z</time>
      </trkpt>
      <trkpt lat="42.3704593442380428314208984375" lon="3.09227225370705127716064453125">
        <ele>183.600006103515625</ele>
        <time>2020-08-07T11:56:55.000Z</time>
      </trkpt>
      <trkpt lat="42.37052665092051029205322265625" lon="3.09228457510471343994140625">
        <ele>184.1999969482421875</ele>
        <time>2020-08-07T11:56:59.000Z</time>
      </trkpt>
      <trkpt lat="42.370561100542545318603515625" lon="3.09229522012174129486083984375">
        <ele>184.399993896484375</ele>
        <time>2020-08-07T11:57:01.000Z</time>
      </trkpt>
      <trkpt lat="42.37064986489713191986083984375" lon="3.09226487763226032257080078125">
        <ele>184.1999969482421875</ele>
        <time>2020-08-07T11:57:06.000Z</time>
      </trkpt>
      <trkpt lat="42.37071490846574306488037109375" lon="3.09220905415713787078857421875">
        <ele>184.600006103515625</ele>
        <time>2020-08-07T11:57:10.000Z</time>
      </trkpt>
      <trkpt lat="42.3707740008831024169921875" lon="3.09217049740254878997802734375">
        <ele>185</ele>
        <time>2020-08-07T11:57:13.000Z</time>
      </trkpt>
      <trkpt lat="42.37096720375120639801025390625" lon="3.09212364256381988525390625">
        <ele>185.1999969482421875</ele>
        <time>2020-08-07T11:57:22.000Z</time>
      </trkpt>
      <trkpt lat="42.37109159119427204132080078125" lon="3.0920465290546417236328125">
        <ele>185.600006103515625</ele>
        <time>2020-08-07T11:57:29.000Z</time>
      </trkpt>
      <trkpt lat="42.37119167111814022064208984375" lon="3.0918897874653339385986328125">
        <ele>186.399993896484375</ele>
        <time>2020-08-07T11:57:36.000Z</time>
      </trkpt>
      <trkpt lat="42.371299378573894500732421875" lon="3.09176967479288578033447265625">
        <ele>186.600006103515625</ele>
        <time>2020-08-07T11:57:43.000Z</time>
      </trkpt>
      <trkpt lat="42.3713159747421741485595703125" lon="3.09175458736717700958251953125">
        <ele>186.600006103515625</ele>
        <time>2020-08-07T11:57:44.000Z</time>
      </trkpt>
      <trkpt lat="42.371406666934490203857421875" lon="3.09163154102861881256103515625">
        <ele>187.399993896484375</ele>
        <time>2020-08-07T11:57:51.000Z</time>
      </trkpt>
      <trkpt lat="42.371445558965206146240234375" lon="3.09150648303329944610595703125">
        <ele>187.8000030517578125</ele>
        <time>2020-08-07T11:57:56.000Z</time>
      </trkpt>
      <trkpt lat="42.37146609462797641754150390625" lon="3.09146105311810970306396484375">
        <ele>188</ele>
        <time>2020-08-07T11:57:58.000Z</time>
      </trkpt>
      <trkpt lat="42.371575646102428436279296875" lon="3.091340102255344390869140625">
        <ele>188.600006103515625</ele>
        <time>2020-08-07T11:58:05.000Z</time>
      </trkpt>
      <trkpt lat="42.3716170527040958404541015625" lon="3.09132761321961879730224609375">
        <ele>188.8000030517578125</ele>
        <time>2020-08-07T11:58:07.000Z</time>
      </trkpt>
      <trkpt lat="42.371719144284725189208984375" lon="3.09131554327905178070068359375">
        <ele>189.1999969482421875</ele>
        <time>2020-08-07T11:58:12.000Z</time>
      </trkpt>
      <trkpt lat="42.37184763886034488677978515625" lon="3.09131789021193981170654296875">
        <ele>189.8000030517578125</ele>
        <time>2020-08-07T11:58:17.000Z</time>
      </trkpt>
      <trkpt lat="42.37187026999890804290771484375" lon="3.091316632926464080810546875">
        <ele>190</ele>
        <time>2020-08-07T11:58:19.000Z</time>
      </trkpt>
      <trkpt lat="42.3721132613718509674072265625" lon="3.091343455016613006591796875">
        <ele>190.399993896484375</ele>
        <time>2020-08-07T11:58:29.000Z</time>
      </trkpt>
      <trkpt lat="42.37217386253178119659423828125" lon="3.0913328938186168670654296875">
        <ele>190.8000030517578125</ele>
        <time>2020-08-07T11:58:33.000Z</time>
      </trkpt>
      <trkpt lat="42.37228333018720149993896484375" lon="3.09131235815584659576416015625">
        <ele>191.399993896484375</ele>
        <time>2020-08-07T11:58:38.000Z</time>
      </trkpt>
      <trkpt lat="42.37243470735847949981689453125" lon="3.09123524464666843414306640625">
        <ele>192</ele>
        <time>2020-08-07T11:58:46.000Z</time>
      </trkpt>
      <trkpt lat="42.372464127838611602783203125" lon="3.09120624326169490814208984375">
        <ele>192.1999969482421875</ele>
        <time>2020-08-07T11:58:47.000Z</time>
      </trkpt>
      <trkpt lat="42.3725310154259204864501953125" lon="3.09108965098857879638671875">
        <ele>193</ele>
        <time>2020-08-07T11:58:54.000Z</time>
      </trkpt>
      <trkpt lat="42.37254652194678783416748046875" lon="3.09100088663399219512939453125">
        <ele>193.1999969482421875</ele>
        <time>2020-08-07T11:58:57.000Z</time>
      </trkpt>
      <trkpt lat="42.3725598491728305816650390625" lon="3.09088320471346378326416015625">
        <ele>193.8000030517578125</ele>
        <time>2020-08-07T11:59:01.000Z</time>
      </trkpt>
      <trkpt lat="42.3725833185017108917236328125" lon="3.0906680412590503692626953125">
        <ele>194.1999969482421875</ele>
        <time>2020-08-07T11:59:09.000Z</time>
      </trkpt>
      <trkpt lat="42.3725844919681549072265625" lon="3.09064130298793315887451171875">
        <ele>194.399993896484375</ele>
        <time>2020-08-07T11:59:10.000Z</time>
      </trkpt>
      <trkpt lat="42.37259848974645137786865234375" lon="3.09053535573184490203857421875">
        <ele>195.399993896484375</ele>
        <time>2020-08-07T11:59:14.000Z</time>
      </trkpt>
      <trkpt lat="42.37260972149670124053955078125" lon="3.0904318392276763916015625">
        <ele>195.8000030517578125</ele>
        <time>2020-08-07T11:59:17.000Z</time>
      </trkpt>
      <trkpt lat="42.37265833653509616851806640625" lon="3.09024333022534847259521484375">
        <ele>196.1999969482421875</ele>
        <time>2020-08-07T11:59:25.000Z</time>
      </trkpt>
      <trkpt lat="42.3727204464375972747802734375" lon="3.09009279124438762664794921875">
        <ele>196.8000030517578125</ele>
        <time>2020-08-07T11:59:31.000Z</time>
      </trkpt>
      <trkpt lat="42.37279362045228481292724609375" lon="3.089950382709503173828125">
        <ele>197.399993896484375</ele>
        <time>2020-08-07T11:59:37.000Z</time>
      </trkpt>
      <trkpt lat="42.3728257231414318084716796875" lon="3.08985256589949131011962890625">
        <ele>197.8000030517578125</ele>
        <time>2020-08-07T11:59:41.000Z</time>
      </trkpt>
      <trkpt lat="42.372878529131412506103515625" lon="3.089735805988311767578125">
        <ele>198</ele>
        <time>2020-08-07T11:59:46.000Z</time>
      </trkpt>
      <trkpt lat="42.37292890436947345733642578125" lon="3.08954536914825439453125">
        <ele>198.399993896484375</ele>
        <time>2020-08-07T11:59:53.000Z</time>
      </trkpt>
      <trkpt lat="42.3729366995394229888916015625" lon="3.08946230448782444000244140625">
        <ele>198.8000030517578125</ele>
        <time>2020-08-07T11:59:56.000Z</time>
      </trkpt>
      <trkpt lat="42.3729340173304080963134765625" lon="3.08934646658599376678466796875">
        <ele>199</ele>
        <time>2020-08-07T12:00:00.000Z</time>
      </trkpt>
      <trkpt lat="42.3729692213237285614013671875" lon="3.089156113564968109130859375">
        <ele>199.1999969482421875</ele>
        <time>2020-08-07T12:00:05.000Z</time>
      </trkpt>
      <trkpt lat="42.37305899150669574737548828125" lon="3.088973723351955413818359375">
        <ele>200</ele>
        <time>2020-08-07T12:00:13.000Z</time>
      </trkpt>
      <trkpt lat="42.3730872385203838348388671875" lon="3.08890499174594879150390625">
        <ele>200.1999969482421875</ele>
        <time>2020-08-07T12:00:16.000Z</time>
      </trkpt>
      <trkpt lat="42.37314901314675807952880859375" lon="3.08876283466815948486328125">
        <ele>201</ele>
        <time>2020-08-07T12:00:22.000Z</time>
      </trkpt>
      <trkpt lat="42.37316141836345195770263671875" lon="3.08873894624412059783935546875">
        <ele>201.1999969482421875</ele>
        <time>2020-08-07T12:00:23.000Z</time>
      </trkpt>
      <trkpt lat="42.37320517189800739288330078125" lon="3.08857776224613189697265625">
        <ele>201.8000030517578125</ele>
        <time>2020-08-07T12:00:29.000Z</time>
      </trkpt>
      <trkpt lat="42.37319762818515300750732421875" lon="3.08837349526584148406982421875">
        <ele>202</ele>
        <time>2020-08-07T12:00:36.000Z</time>
      </trkpt>
      <trkpt lat="42.37316426821053028106689453125" lon="3.0882674641907215118408203125">
        <ele>202</ele>
        <time>2020-08-07T12:00:40.000Z</time>
      </trkpt>
      <trkpt lat="42.373156808316707611083984375" lon="3.088206946849822998046875">
        <ele>202.1999969482421875</ele>
        <time>2020-08-07T12:00:42.000Z</time>
      </trkpt>
      <trkpt lat="42.373201735317707061767578125" lon="3.08808691799640655517578125">
        <ele>202.1999969482421875</ele>
        <time>2020-08-07T12:00:46.000Z</time>
      </trkpt>
      <trkpt lat="42.373247332870960235595703125" lon="3.08806822635233402252197265625">
        <ele>202.1999969482421875</ele>
        <time>2020-08-07T12:00:47.000Z</time>
      </trkpt>
      <trkpt lat="42.3733407072722911834716796875" lon="3.0880575813353061676025390625">
        <ele>202.600006103515625</ele>
        <time>2020-08-07T12:00:51.000Z</time>
      </trkpt>
      <trkpt lat="42.37346316687762737274169921875" lon="3.087986670434474945068359375">
        <ele>202.8000030517578125</ele>
        <time>2020-08-07T12:00:58.000Z</time>
      </trkpt>
      <trkpt lat="42.37351454794406890869140625" lon="3.08788985945284366607666015625">
        <ele>203.1999969482421875</ele>
        <time>2020-08-07T12:01:02.000Z</time>
      </trkpt>
      <trkpt lat="42.3735375143587589263916015625" lon="3.08782196603715419769287109375">
        <ele>203</ele>
        <time>2020-08-07T12:01:04.000Z</time>
      </trkpt>
      <trkpt lat="42.37359073944389820098876953125" lon="3.08757402934134006500244140625">
        <ele>203.600006103515625</ele>
        <time>2020-08-07T12:01:12.000Z</time>
      </trkpt>
      <trkpt lat="42.373614124953746795654296875" lon="3.08745902962982654571533203125">
        <ele>204.399993896484375</ele>
        <time>2020-08-07T12:01:16.000Z</time>
      </trkpt>
      <trkpt lat="42.373671121895313262939453125" lon="3.087295331060886383056640625">
        <ele>205.1999969482421875</ele>
        <time>2020-08-07T12:01:21.000Z</time>
      </trkpt>
      <trkpt lat="42.37379726953804492950439453125" lon="3.0872053094208240509033203125">
        <ele>205</ele>
        <time>2020-08-07T12:01:28.000Z</time>
      </trkpt>
      <trkpt lat="42.3738476447761058807373046875" lon="3.08721461333334445953369140625">
        <ele>204.8000030517578125</ele>
        <time>2020-08-07T12:01:29.000Z</time>
      </trkpt>
      <trkpt lat="42.3739170469343662261962890625" lon="3.08725199662148952484130859375">
        <ele>204.8000030517578125</ele>
        <time>2020-08-07T12:01:33.000Z</time>
      </trkpt>
      <trkpt lat="42.374078147113323211669921875" lon="3.08735827915370464324951171875">
        <ele>204.8000030517578125</ele>
        <time>2020-08-07T12:01:40.000Z</time>
      </trkpt>
      <trkpt lat="42.3742298595607280731201171875" lon="3.08742650784552097320556640625">
        <ele>205</ele>
        <time>2020-08-07T12:01:46.000Z</time>
      </trkpt>
      <trkpt lat="42.374376542866230010986328125" lon="3.08744930662214756011962890625">
        <ele>205.399993896484375</ele>
        <time>2020-08-07T12:01:52.000Z</time>
      </trkpt>
      <trkpt lat="42.3744218051433563232421875" lon="3.0874353088438510894775390625">
        <ele>205.600006103515625</ele>
        <time>2020-08-07T12:01:54.000Z</time>
      </trkpt>
      <trkpt lat="42.37454929389059543609619140625" lon="3.08732517063617706298828125">
        <ele>206.399993896484375</ele>
        <time>2020-08-07T12:02:01.000Z</time>
      </trkpt>
      <trkpt lat="42.3745792172849178314208984375" lon="3.0872385017573833465576171875">
        <ele>206.8000030517578125</ele>
        <time>2020-08-07T12:02:06.000Z</time>
      </trkpt>
      <trkpt lat="42.37457779236137866973876953125" lon="3.08723724447190761566162109375">
        <ele>206.8000030517578125</ele>
        <time>2020-08-07T12:02:08.000Z</time>
      </trkpt>
      <trkpt lat="42.3745768703520298004150390625" lon="3.08723405934870243072509765625">
        <ele>206.600006103515625</ele>
        <time>2020-08-07T12:03:49.000Z</time>
      </trkpt>
      <trkpt lat="42.374589107930660247802734375" lon="3.0872131884098052978515625">
        <ele>206.399993896484375</ele>
        <time>2020-08-07T12:03:56.000Z</time>
      </trkpt>
      <trkpt lat="42.37463512457907199859619140625" lon="3.08709307573735713958740234375">
        <ele>206.600006103515625</ele>
        <time>2020-08-07T12:04:03.000Z</time>
      </trkpt>
      <trkpt lat="42.374733947217464447021484375" lon="3.08692610822618007659912109375">
        <ele>207.1999969482421875</ele>
        <time>2020-08-07T12:04:10.000Z</time>
      </trkpt>
      <trkpt lat="42.37478180788457393646240234375" lon="3.08675763197243213653564453125">
        <ele>207.399993896484375</ele>
        <time>2020-08-07T12:04:16.000Z</time>
      </trkpt>
      <trkpt lat="42.3747783713042736053466796875" lon="3.0865900777280330657958984375">
        <ele>207.600006103515625</ele>
        <time>2020-08-07T12:04:21.000Z</time>
      </trkpt>
      <trkpt lat="42.3747706599533557891845703125" lon="3.0864801071584224700927734375">
        <ele>208.1999969482421875</ele>
        <time>2020-08-07T12:04:24.000Z</time>
      </trkpt>
      <trkpt lat="42.37477024085819721221923828125" lon="3.08622144162654876708984375">
        <ele>208</ele>
        <time>2020-08-07T12:04:31.000Z</time>
      </trkpt>
      <trkpt lat="42.37487819977104663848876953125" lon="3.0861159972846508026123046875">
        <ele>207.600006103515625</ele>
        <time>2020-08-07T12:04:35.000Z</time>
      </trkpt>
      <trkpt lat="42.37506813369691371917724609375" lon="3.085992448031902313232421875">
        <ele>207</ele>
        <time>2020-08-07T12:04:44.000Z</time>
      </trkpt>
      <trkpt lat="42.375187911093235015869140625" lon="3.08584903366863727569580078125">
        <ele>208</ele>
        <time>2020-08-07T12:04:50.000Z</time>
      </trkpt>
      <trkpt lat="42.37539687193930149078369140625" lon="3.08559321798384189605712890625">
        <ele>208</ele>
        <time>2020-08-07T12:04:59.000Z</time>
      </trkpt>
      <trkpt lat="42.375568449497222900390625" lon="3.0853649787604808807373046875">
        <ele>208.600006103515625</ele>
        <time>2020-08-07T12:05:09.000Z</time>
      </trkpt>
      <trkpt lat="42.37571152858436107635498046875" lon="3.08510832488536834716796875">
        <ele>209.399993896484375</ele>
        <time>2020-08-07T12:05:17.000Z</time>
      </trkpt>
      <trkpt lat="42.3758308030664920806884765625" lon="3.085047304630279541015625">
        <ele>209.600006103515625</ele>
        <time>2020-08-07T12:05:22.000Z</time>
      </trkpt>
      <trkpt lat="42.37585879862308502197265625" lon="3.0850474722683429718017578125">
        <ele>209.600006103515625</ele>
        <time>2020-08-07T12:05:23.000Z</time>
      </trkpt>
      <trkpt lat="42.3760380037128925323486328125" lon="3.08507588692009449005126953125">
        <ele>210.1999969482421875</ele>
        <time>2020-08-07T12:05:30.000Z</time>
      </trkpt>
      <trkpt lat="42.3763293586671352386474609375" lon="3.08512316085398197174072265625">
        <ele>210.399993896484375</ele>
        <time>2020-08-07T12:05:41.000Z</time>
      </trkpt>
      <trkpt lat="42.37649708054959774017333984375" lon="3.08508460409939289093017578125">
        <ele>210.600006103515625</ele>
        <time>2020-08-07T12:05:48.000Z</time>
      </trkpt>
      <trkpt lat="42.37672909162938594818115234375" lon="3.0849596299231052398681640625">
        <ele>211.399993896484375</ele>
        <time>2020-08-07T12:05:57.000Z</time>
      </trkpt>
      <trkpt lat="42.37687644548714160919189453125" lon="3.08487497270107269287109375">
        <ele>211.600006103515625</ele>
        <time>2020-08-07T12:06:03.000Z</time>
      </trkpt>
      <trkpt lat="42.37700703553855419158935546875" lon="3.08480297215282917022705078125">
        <ele>212</ele>
        <time>2020-08-07T12:06:08.000Z</time>
      </trkpt>
      <trkpt lat="42.37725480459630489349365234375" lon="3.0846478231251239776611328125">
        <ele>212.399993896484375</ele>
        <time>2020-08-07T12:06:17.000Z</time>
      </trkpt>
      <trkpt lat="42.3773274756968021392822265625" lon="3.0846062488853931427001953125">
        <ele>212.8000030517578125</ele>
        <time>2020-08-07T12:06:20.000Z</time>
      </trkpt>
      <trkpt lat="42.3774082772433757781982421875" lon="3.084597028791904449462890625">
        <ele>213.399993896484375</ele>
        <time>2020-08-07T12:06:23.000Z</time>
      </trkpt>
      <trkpt lat="42.37758957780897617340087890625" lon="3.08471278287470340728759765625">
        <ele>212.8000030517578125</ele>
        <time>2020-08-07T12:06:30.000Z</time>
      </trkpt>
      <trkpt lat="42.3777780868113040924072265625" lon="3.084989972412586212158203125">
        <ele>213</ele>
        <time>2020-08-07T12:06:40.000Z</time>
      </trkpt>
      <trkpt lat="42.37799744121730327606201171875" lon="3.085210584104061126708984375">
        <ele>212.399993896484375</ele>
        <time>2020-08-07T12:06:48.000Z</time>
      </trkpt>
      <trkpt lat="42.37813943065702915191650390625" lon="3.08512953110039234161376953125">
        <ele>213.600006103515625</ele>
        <time>2020-08-07T12:06:53.000Z</time>
      </trkpt>
      <trkpt lat="42.3782706074416637420654296875" lon="3.08487472124397754669189453125">
        <ele>213.399993896484375</ele>
        <time>2020-08-07T12:07:01.000Z</time>
      </trkpt>
      <trkpt lat="42.3784218169748783111572265625" lon="3.0844560451805591583251953125">
        <ele>212.8000030517578125</ele>
        <time>2020-08-07T12:07:10.000Z</time>
      </trkpt>
      <trkpt lat="42.3785094916820526123046875" lon="3.084175251424312591552734375">
        <ele>212</ele>
        <time>2020-08-07T12:07:16.000Z</time>
      </trkpt>
      <trkpt lat="42.37853270955383777618408203125" lon="3.08412705548107624053955078125">
        <ele>211.399993896484375</ele>
        <time>2020-08-07T12:07:17.000Z</time>
      </trkpt>
      <trkpt lat="42.3787175305187702178955078125" lon="3.0837289988994598388671875">
        <ele>210.8000030517578125</ele>
        <time>2020-08-07T12:07:26.000Z</time>
      </trkpt>
      <trkpt lat="42.378787100315093994140625" lon="3.0834089778363704681396484375">
        <ele>211.399993896484375</ele>
        <time>2020-08-07T12:07:34.000Z</time>
      </trkpt>
      <trkpt lat="42.37886832095682621002197265625" lon="3.08323052711784839630126953125">
        <ele>211.399993896484375</ele>
        <time>2020-08-07T12:07:40.000Z</time>
      </trkpt>
      <trkpt lat="42.3790233023464679718017578125" lon="3.08299164287745952606201171875">
        <ele>211.8000030517578125</ele>
        <time>2020-08-07T12:07:48.000Z</time>
      </trkpt>
      <trkpt lat="42.379116676747798919677734375" lon="3.0828416906297206878662109375">
        <ele>212.600006103515625</ele>
        <time>2020-08-07T12:07:55.000Z</time>
      </trkpt>
      <trkpt lat="42.3791453428566455841064453125" lon="3.082786537706851959228515625">
        <ele>212.8000030517578125</ele>
        <time>2020-08-07T12:07:56.000Z</time>
      </trkpt>
      <trkpt lat="42.37925891764461994171142578125" lon="3.0824675224721431732177734375">
        <ele>212.600006103515625</ele>
        <time>2020-08-07T12:08:06.000Z</time>
      </trkpt>
      <trkpt lat="42.37938213162124156951904296875" lon="3.08230566792190074920654296875">
        <ele>213</ele>
        <time>2020-08-07T12:08:12.000Z</time>
      </trkpt>
      <trkpt lat="42.37960995174944400787353515625" lon="3.08208522386848926544189453125">
        <ele>213.600006103515625</ele>
        <time>2020-08-07T12:08:22.000Z</time>
      </trkpt>
      <trkpt lat="42.3796542920172214508056640625" lon="3.0820380337536334991455078125">
        <ele>213.600006103515625</ele>
        <time>2020-08-07T12:08:24.000Z</time>
      </trkpt>
      <trkpt lat="42.37979502417147159576416015625" lon="3.0819200165569782257080078125">
        <ele>214</ele>
        <time>2020-08-07T12:08:31.000Z</time>
      </trkpt>
      <trkpt lat="42.3799526877701282501220703125" lon="3.08189445175230503082275390625">
        <ele>214.600006103515625</ele>
        <time>2020-08-07T12:08:37.000Z</time>
      </trkpt>
      <trkpt lat="42.38000549376010894775390625" lon="3.0819002352654933929443359375">
        <ele>214.600006103515625</ele>
        <time>2020-08-07T12:08:39.000Z</time>
      </trkpt>
      <trkpt lat="42.38015427254140377044677734375" lon="3.0819555558264255523681640625">
        <ele>215.1999969482421875</ele>
        <time>2020-08-07T12:08:44.000Z</time>
      </trkpt>
      <trkpt lat="42.3802859522402286529541015625" lon="3.08202923275530338287353515625">
        <ele>216</ele>
        <time>2020-08-07T12:08:50.000Z</time>
      </trkpt>
      <trkpt lat="42.38035141490399837493896484375" lon="3.08205731213092803955078125">
        <ele>216.600006103515625</ele>
        <time>2020-08-07T12:08:53.000Z</time>
      </trkpt>
      <trkpt lat="42.38046155311167240142822265625" lon="3.082080446183681488037109375">
        <ele>217.1999969482421875</ele>
        <time>2020-08-07T12:08:58.000Z</time>
      </trkpt>
      <trkpt lat="42.380502708256244659423828125" lon="3.08207206428050994873046875">
        <ele>217.600006103515625</ele>
        <time>2020-08-07T12:09:01.000Z</time>
      </trkpt>
      <trkpt lat="42.38065668381750583648681640625" lon="3.08197525329887866973876953125">
        <ele>218.1999969482421875</ele>
        <time>2020-08-07T12:09:08.000Z</time>
      </trkpt>
      <trkpt lat="42.3806956596672534942626953125" lon="3.0819458328187465667724609375">
        <ele>218.399993896484375</ele>
        <time>2020-08-07T12:09:10.000Z</time>
      </trkpt>
      <trkpt lat="42.380770258605480194091796875" lon="3.08188322000205516815185546875">
        <ele>219.399993896484375</ele>
        <time>2020-08-07T12:09:15.000Z</time>
      </trkpt>
      <trkpt lat="42.380856089293956756591796875" lon="3.0818144045770168304443359375">
        <ele>219.600006103515625</ele>
        <time>2020-08-07T12:09:18.000Z</time>
      </trkpt>
      <trkpt lat="42.38101023249328136444091796875" lon="3.08179982006549835205078125">
        <ele>219.1999969482421875</ele>
        <time>2020-08-07T12:09:24.000Z</time>
      </trkpt>
      <trkpt lat="42.3811756074428558349609375" lon="3.0819149874150753021240234375">
        <ele>219.399993896484375</ele>
        <time>2020-08-07T12:09:32.000Z</time>
      </trkpt>
      <trkpt lat="42.381257750093936920166015625" lon="3.08195932768285274505615234375">
        <ele>220.399993896484375</ele>
        <time>2020-08-07T12:09:37.000Z</time>
      </trkpt>
      <trkpt lat="42.38132639788091182708740234375" lon="3.08198128826916217803955078125">
        <ele>221</ele>
        <time>2020-08-07T12:09:40.000Z</time>
      </trkpt>
      <trkpt lat="42.3813574947416782379150390625" lon="3.08197827078402042388916015625">
        <ele>221.399993896484375</ele>
        <time>2020-08-07T12:09:42.000Z</time>
      </trkpt>
      <trkpt lat="42.38142563961446285247802734375" lon="3.08194465935230255126953125">
        <ele>222.600006103515625</ele>
        <time>2020-08-07T12:09:47.000Z</time>
      </trkpt>
      <trkpt lat="42.3815043456852436065673828125" lon="3.08186419308185577392578125">
        <ele>223.600006103515625</ele>
        <time>2020-08-07T12:09:54.000Z</time>
      </trkpt>
      <trkpt lat="42.381522618234157562255859375" lon="3.08183695189654827117919921875">
        <ele>224.1999969482421875</ele>
        <time>2020-08-07T12:09:56.000Z</time>
      </trkpt>
      <trkpt lat="42.38156427629292011260986328125" lon="3.0817875824868679046630859375">
        <ele>224.8000030517578125</ele>
        <time>2020-08-07T12:10:01.000Z</time>
      </trkpt>
      <trkpt lat="42.38163049332797527313232421875" lon="3.0817141570150852203369140625">
        <ele>225.600006103515625</ele>
        <time>2020-08-07T12:10:07.000Z</time>
      </trkpt>
      <trkpt lat="42.3816518671810626983642578125" lon="3.0816876702010631561279296875">
        <ele>225.8000030517578125</ele>
        <time>2020-08-07T12:10:08.000Z</time>
      </trkpt>
      <trkpt lat="42.3816981352865695953369140625" lon="3.0816449224948883056640625">
        <ele>226.8000030517578125</ele>
        <time>2020-08-07T12:10:12.000Z</time>
      </trkpt>
      <trkpt lat="42.381720431149005889892578125" lon="3.08161801658570766448974609375">
        <ele>227.600006103515625</ele>
        <time>2020-08-07T12:10:15.000Z</time>
      </trkpt>
      <trkpt lat="42.3817407153546810150146484375" lon="3.0815924517810344696044921875">
        <ele>228</ele>
        <time>2020-08-07T12:10:16.000Z</time>
      </trkpt>
      <trkpt lat="42.3817936889827251434326171875" lon="3.081519193947315216064453125">
        <ele>229.1999969482421875</ele>
        <time>2020-08-07T12:10:22.000Z</time>
      </trkpt>
      <trkpt lat="42.3818086087703704833984375" lon="3.08149228803813457489013671875">
        <ele>229.600006103515625</ele>
        <time>2020-08-07T12:10:24.000Z</time>
      </trkpt>
      <trkpt lat="42.3818086087703704833984375" lon="3.08149228803813457489013671875">
        <ele>229.8000030517578125</ele>
        <time>2020-08-07T12:10:25.000Z</time>
      </trkpt>
      <trkpt lat="42.38180768676102161407470703125" lon="3.0814196169376373291015625">
        <ele>230.1999969482421875</ele>
        <time>2020-08-07T12:10:28.000Z</time>
      </trkpt>
      <trkpt lat="42.38179142586886882781982421875" lon="3.0813929624855518341064453125">
        <ele>230.8000030517578125</ele>
        <time>2020-08-07T12:10:31.000Z</time>
      </trkpt>
      <trkpt lat="42.38176695071160793304443359375" lon="3.08137913234531879425048828125">
        <ele>231.1999969482421875</ele>
        <time>2020-08-07T12:10:32.000Z</time>
      </trkpt>
      <trkpt lat="42.38176695071160793304443359375" lon="3.08137913234531879425048828125">
        <ele>231.399993896484375</ele>
        <time>2020-08-07T12:10:33.000Z</time>
      </trkpt>
      <trkpt lat="42.38173979334533214569091796875" lon="3.0813802219927310943603515625">
        <ele>231.600006103515625</ele>
        <time>2020-08-07T12:10:34.000Z</time>
      </trkpt>
      <trkpt lat="42.381716072559356689453125" lon="3.0813973210752010345458984375">
        <ele>231.8000030517578125</ele>
        <time>2020-08-07T12:10:36.000Z</time>
      </trkpt>
      <trkpt lat="42.38166578114032745361328125" lon="3.081470914185047149658203125">
        <ele>232.600006103515625</ele>
        <time>2020-08-07T12:10:41.000Z</time>
      </trkpt>
      <trkpt lat="42.38163501955568790435791015625" lon="3.08151089586317539215087890625">
        <ele>233.1999969482421875</ele>
        <time>2020-08-07T12:10:45.000Z</time>
      </trkpt>
      <trkpt lat="42.38152689300477504730224609375" lon="3.08155716396868228912353515625">
        <ele>233.399993896484375</ele>
        <time>2020-08-07T12:10:52.000Z</time>
      </trkpt>
      <trkpt lat="42.38151415251195430755615234375" lon="3.08156169019639492034912109375">
        <ele>233.399993896484375</ele>
        <time>2020-08-07T12:10:53.000Z</time>
      </trkpt>
      <trkpt lat="42.38141507841646671295166015625" lon="3.0815626122057437896728515625">
        <ele>234.399993896484375</ele>
        <time>2020-08-07T12:11:00.000Z</time>
      </trkpt>
      <trkpt lat="42.38132069818675518035888671875" lon="3.0815424956381320953369140625">
        <ele>234.8000030517578125</ele>
        <time>2020-08-07T12:11:07.000Z</time>
      </trkpt>
      <trkpt lat="42.38128901459276676177978515625" lon="3.0815310962498188018798828125">
        <ele>235</ele>
        <time>2020-08-07T12:11:09.000Z</time>
      </trkpt>
      <trkpt lat="42.38115909509360790252685546875" lon="3.08145917952060699462890625">
        <ele>235.8000030517578125</ele>
        <time>2020-08-07T12:11:17.000Z</time>
      </trkpt>
      <trkpt lat="42.38106169737875461578369140625" lon="3.08138005435466766357421875">
        <ele>237.1999969482421875</ele>
        <time>2020-08-07T12:11:24.000Z</time>
      </trkpt>
      <trkpt lat="42.38100201822817325592041015625" lon="3.08134174905717372894287109375">
        <ele>237.600006103515625</ele>
        <time>2020-08-07T12:11:28.000Z</time>
      </trkpt>
      <trkpt lat="42.38085717894136905670166015625" lon="3.08130755089223384857177734375">
        <ele>238</ele>
        <time>2020-08-07T12:11:37.000Z</time>
      </trkpt>
      <trkpt lat="42.3807422630488872528076171875" lon="3.08131358586251735687255859375">
        <ele>239</ele>
        <time>2020-08-07T12:11:45.000Z</time>
      </trkpt>
      <trkpt lat="42.38070663996040821075439453125" lon="3.08131291531026363372802734375">
        <ele>239.1999969482421875</ele>
        <time>2020-08-07T12:11:46.000Z</time>
      </trkpt>
      <trkpt lat="42.3805709369480609893798828125" lon="3.08128810487687587738037109375">
        <ele>240.1999969482421875</ele>
        <time>2020-08-07T12:11:54.000Z</time>
      </trkpt>
      <trkpt lat="42.3805709369480609893798828125" lon="3.08128810487687587738037109375">
        <ele>240.399993896484375</ele>
        <time>2020-08-07T12:11:55.000Z</time>
      </trkpt>
      <trkpt lat="42.38038494251668453216552734375" lon="3.08118936605751514434814453125">
        <ele>241.1999969482421875</ele>
        <time>2020-08-07T12:12:05.000Z</time>
      </trkpt>
      <trkpt lat="42.380369938910007476806640625" lon="3.08117561973631381988525390625">
        <ele>241.1999969482421875</ele>
        <time>2020-08-07T12:12:06.000Z</time>
      </trkpt>
      <trkpt lat="42.380238510668277740478515625" lon="3.08110185898840427398681640625">
        <ele>242</ele>
        <time>2020-08-07T12:12:14.000Z</time>
      </trkpt>
      <trkpt lat="42.38016835413873195648193359375" lon="3.08109012432396411895751953125">
        <ele>242.1999969482421875</ele>
        <time>2020-08-07T12:12:19.000Z</time>
      </trkpt>
      <trkpt lat="42.38007950596511363983154296875" lon="3.08107134886085987091064453125">
        <ele>243.399993896484375</ele>
        <time>2020-08-07T12:12:23.000Z</time>
      </trkpt>
      <trkpt lat="42.37992494367063045501708984375" lon="3.0810325406491756439208984375">
        <ele>244.1999969482421875</ele>
        <time>2020-08-07T12:12:33.000Z</time>
      </trkpt>
      <trkpt lat="42.37987481988966464996337890625" lon="3.08101535774767398834228515625">
        <ele>244.600006103515625</ele>
        <time>2020-08-07T12:12:35.000Z</time>
      </trkpt>
      <trkpt lat="42.37975914962589740753173828125" lon="3.08101435191929340362548828125">
        <ele>245.399993896484375</ele>
        <time>2020-08-07T12:12:42.000Z</time>
      </trkpt>
      <trkpt lat="42.37975914962589740753173828125" lon="3.08101435191929340362548828125">
        <ele>245.399993896484375</ele>
        <time>2020-08-07T12:12:43.000Z</time>
      </trkpt>
      <trkpt lat="42.37969812937080860137939453125" lon="3.08099809102714061737060546875">
        <ele>246</ele>
        <time>2020-08-07T12:12:46.000Z</time>
      </trkpt>
      <trkpt lat="42.3796663619577884674072265625" lon="3.08099859394133090972900390625">
        <ele>246.399993896484375</ele>
        <time>2020-08-07T12:12:48.000Z</time>
      </trkpt>
      <trkpt lat="42.3796361871063709259033203125" lon="3.0810033716261386871337890625">
        <ele>246.600006103515625</ele>
        <time>2020-08-07T12:12:50.000Z</time>
      </trkpt>
      <trkpt lat="42.379590086638927459716796875" lon="3.08099842630326747894287109375">
        <ele>247.399993896484375</ele>
        <time>2020-08-07T12:12:53.000Z</time>
      </trkpt>
      <trkpt lat="42.3795446567237377166748046875" lon="3.08098551817238330841064453125">
        <ele>248.399993896484375</ele>
        <time>2020-08-07T12:12:56.000Z</time>
      </trkpt>
      <trkpt lat="42.379481792449951171875" lon="3.08097596280276775360107421875">
        <ele>248.8000030517578125</ele>
        <time>2020-08-07T12:13:00.000Z</time>
      </trkpt>
      <trkpt lat="42.37941381521522998809814453125" lon="3.08096439577639102935791015625">
        <ele>249.600006103515625</ele>
        <time>2020-08-07T12:13:05.000Z</time>
      </trkpt>
      <trkpt lat="42.37936788238584995269775390625" lon="3.0809520743787288665771484375">
        <ele>250.8000030517578125</ele>
        <time>2020-08-07T12:13:08.000Z</time>
      </trkpt>
      <trkpt lat="42.37932362593710422515869140625" lon="3.08093078434467315673828125">
        <ele>251</ele>
        <time>2020-08-07T12:13:11.000Z</time>
      </trkpt>
      <trkpt lat="42.37924986518919467926025390625" lon="3.08082726784050464630126953125">
        <ele>251.600006103515625</ele>
        <time>2020-08-07T12:13:19.000Z</time>
      </trkpt>
      <trkpt lat="42.3792509548366069793701171875" lon="3.080785609781742095947265625">
        <ele>252</ele>
        <time>2020-08-07T12:13:21.000Z</time>
      </trkpt>
      <trkpt lat="42.37927333451807498931884765625" lon="3.0807012878358364105224609375">
        <ele>252.1999969482421875</ele>
        <time>2020-08-07T12:13:25.000Z</time>
      </trkpt>
      <trkpt lat="42.37937492318451404571533203125" lon="3.08057815767824649810791015625">
        <ele>251.600006103515625</ele>
        <time>2020-08-07T12:13:31.000Z</time>
      </trkpt>
      <trkpt lat="42.37951439805328845977783203125" lon="3.08044773526489734649658203125">
        <ele>250.600006103515625</ele>
        <time>2020-08-07T12:13:37.000Z</time>
      </trkpt>
      <trkpt lat="42.37956619821488857269287109375" lon="3.08040465228259563446044921875">
        <ele>250.399993896484375</ele>
        <time>2020-08-07T12:13:38.000Z</time>
      </trkpt>
      <trkpt lat="42.379801310598850250244140625" lon="3.0802030675113201141357421875">
        <ele>250.1999969482421875</ele>
        <time>2020-08-07T12:13:48.000Z</time>
      </trkpt>
      <trkpt lat="42.37994036637246608734130859375" lon="3.08007691986858844757080078125">
        <ele>251</ele>
        <time>2020-08-07T12:13:57.000Z</time>
      </trkpt>
      <trkpt lat="42.38009668886661529541015625" lon="3.079940043389797210693359375">
        <ele>250.600006103515625</ele>
        <time>2020-08-07T12:14:04.000Z</time>
      </trkpt>
      <trkpt lat="42.3802153766155242919921875" lon="3.0798547156155109405517578125">
        <ele>249.399993896484375</ele>
        <time>2020-08-07T12:14:09.000Z</time>
      </trkpt>
      <trkpt lat="42.380306906998157501220703125" lon="3.07979294098913669586181640625">
        <ele>249</ele>
        <time>2020-08-07T12:14:11.000Z</time>
      </trkpt>
      <trkpt lat="42.38038745708763599395751953125" lon="3.07970275171101093292236328125">
        <ele>248.399993896484375</ele>
        <time>2020-08-07T12:14:14.000Z</time>
      </trkpt>
      <trkpt lat="42.3804690130054950714111328125" lon="3.07958171702921390533447265625">
        <ele>248.1999969482421875</ele>
        <time>2020-08-07T12:14:17.000Z</time>
      </trkpt>
      <trkpt lat="42.38061569631099700927734375" lon="3.07936328463256359100341796875">
        <ele>247.8000030517578125</ele>
        <time>2020-08-07T12:14:22.000Z</time>
      </trkpt>
      <trkpt lat="42.38068434409797191619873046875" lon="3.079279549419879913330078125">
        <ele>247.399993896484375</ele>
        <time>2020-08-07T12:14:25.000Z</time>
      </trkpt>
      <trkpt lat="42.380752153694629669189453125" lon="3.0791888572275638580322265625">
        <ele>247.1999969482421875</ele>
        <time>2020-08-07T12:14:26.000Z</time>
      </trkpt>
      <trkpt lat="42.380879558622837066650390625" lon="3.0790002644062042236328125">
        <ele>246</ele>
        <time>2020-08-07T12:14:30.000Z</time>
      </trkpt>
      <trkpt lat="42.3809288442134857177734375" lon="3.0788971669971942901611328125">
        <ele>245.600006103515625</ele>
        <time>2020-08-07T12:14:32.000Z</time>
      </trkpt>
      <trkpt lat="42.3809288442134857177734375" lon="3.0788971669971942901611328125">
        <ele>245.600006103515625</ele>
        <time>2020-08-07T12:14:33.000Z</time>
      </trkpt>
      <trkpt lat="42.38096228800714015960693359375" lon="3.07878795079886913299560546875">
        <ele>245.8000030517578125</ele>
        <time>2020-08-07T12:14:34.000Z</time>
      </trkpt>
      <trkpt lat="42.3809759505093097686767578125" lon="3.07868736796081066131591796875">
        <ele>246.1999969482421875</ele>
        <time>2020-08-07T12:14:37.000Z</time>
      </trkpt>
      <trkpt lat="42.38101425580680370330810546875" lon="3.0782671831548213958740234375">
        <ele>245.600006103515625</ele>
        <time>2020-08-07T12:14:44.000Z</time>
      </trkpt>
      <trkpt lat="42.38101425580680370330810546875" lon="3.0782671831548213958740234375">
        <ele>244.8000030517578125</ele>
        <time>2020-08-07T12:14:45.000Z</time>
      </trkpt>
      <trkpt lat="42.381034456193447113037109375" lon="3.078148327767848968505859375">
        <ele>244.1999969482421875</ele>
        <time>2020-08-07T12:14:46.000Z</time>
      </trkpt>
      <trkpt lat="42.38104828633368015289306640625" lon="3.0780361779034137725830078125">
        <ele>243.399993896484375</ele>
        <time>2020-08-07T12:14:48.000Z</time>
      </trkpt>
      <trkpt lat="42.38104484975337982177734375" lon="3.077935092151165008544921875">
        <ele>243</ele>
        <time>2020-08-07T12:14:50.000Z</time>
      </trkpt>
      <trkpt lat="42.38103152252733707427978515625" lon="3.07783174328505992889404296875">
        <ele>243</ele>
        <time>2020-08-07T12:14:52.000Z</time>
      </trkpt>
      <trkpt lat="42.38101174123585224151611328125" lon="3.07771473191678524017333984375">
        <ele>242.1999969482421875</ele>
        <time>2020-08-07T12:14:55.000Z</time>
      </trkpt>
      <trkpt lat="42.380984835326671600341796875" lon="3.0775912664830684661865234375">
        <ele>241.8000030517578125</ele>
        <time>2020-08-07T12:14:56.000Z</time>
      </trkpt>
      <trkpt lat="42.3809595219790935516357421875" lon="3.0774581618607044219970703125">
        <ele>241</ele>
        <time>2020-08-07T12:14:58.000Z</time>
      </trkpt>
      <trkpt lat="42.38093580119311809539794921875" lon="3.0773213692009449005126953125">
        <ele>239.8000030517578125</ele>
        <time>2020-08-07T12:15:01.000Z</time>
      </trkpt>
      <trkpt lat="42.3809182830154895782470703125" lon="3.077176026999950408935546875">
        <ele>238.399993896484375</ele>
        <time>2020-08-07T12:15:02.000Z</time>
      </trkpt>
      <trkpt lat="42.38088970072567462921142578125" lon="3.07686380110681056976318359375">
        <ele>237</ele>
        <time>2020-08-07T12:15:06.000Z</time>
      </trkpt>
      <trkpt lat="42.38090260885655879974365234375" lon="3.0767084844410419464111328125">
        <ele>235.1999969482421875</ele>
        <time>2020-08-07T12:15:08.000Z</time>
      </trkpt>
      <trkpt lat="42.3809115774929523468017578125" lon="3.076549060642719268798828125">
        <ele>233.8000030517578125</ele>
        <time>2020-08-07T12:15:10.000Z</time>
      </trkpt>
      <trkpt lat="42.38091870211064815521240234375" lon="3.07638552971184253692626953125">
        <ele>232.1999969482421875</ele>
        <time>2020-08-07T12:15:12.000Z</time>
      </trkpt>
      <trkpt lat="42.380913086235523223876953125" lon="3.0762161314487457275390625">
        <ele>231.8000030517578125</ele>
        <time>2020-08-07T12:15:14.000Z</time>
      </trkpt>
      <trkpt lat="42.380913086235523223876953125" lon="3.0762161314487457275390625">
        <ele>231.600006103515625</ele>
        <time>2020-08-07T12:15:15.000Z</time>
      </trkpt>
      <trkpt lat="42.38089104183018207550048828125" lon="3.07604840956628322601318359375">
        <ele>231.1999969482421875</ele>
        <time>2020-08-07T12:15:16.000Z</time>
      </trkpt>
      <trkpt lat="42.380879558622837066650390625" lon="3.07571950368583202362060546875">
        <ele>230.600006103515625</ele>
        <time>2020-08-07T12:15:21.000Z</time>
      </trkpt>
      <trkpt lat="42.38089774735271930694580078125" lon="3.07519798167049884796142578125">
        <ele>230.1999969482421875</ele>
        <time>2020-08-07T12:15:27.000Z</time>
      </trkpt>
      <trkpt lat="42.3809135891497135162353515625" lon="3.07506211102008819580078125">
        <ele>230</ele>
        <time>2020-08-07T12:15:28.000Z</time>
      </trkpt>
      <trkpt lat="42.3809397406876087188720703125" lon="3.07494786567986011505126953125">
        <ele>229.600006103515625</ele>
        <time>2020-08-07T12:15:31.000Z</time>
      </trkpt>
      <trkpt lat="42.38100956194102764129638671875" lon="3.07464913465082645416259765625">
        <ele>228.600006103515625</ele>
        <time>2020-08-07T12:15:36.000Z</time>
      </trkpt>
      <trkpt lat="42.38100956194102764129638671875" lon="3.07464913465082645416259765625">
        <ele>228.1999969482421875</ele>
        <time>2020-08-07T12:15:37.000Z</time>
      </trkpt>
      <trkpt lat="42.381025739014148712158203125" lon="3.07457394897937774658203125">
        <ele>227.399993896484375</ele>
        <time>2020-08-07T12:15:39.000Z</time>
      </trkpt>
      <trkpt lat="42.38103370182216167449951171875" lon="3.074398599565029144287109375">
        <ele>226.399993896484375</ele>
        <time>2020-08-07T12:15:42.000Z</time>
      </trkpt>
      <trkpt lat="42.38103370182216167449951171875" lon="3.074398599565029144287109375">
        <ele>226.399993896484375</ele>
        <time>2020-08-07T12:15:43.000Z</time>
      </trkpt>
      <trkpt lat="42.3810406588017940521240234375" lon="3.074145130813121795654296875">
        <ele>225</ele>
        <time>2020-08-07T12:15:47.000Z</time>
      </trkpt>
      <trkpt lat="42.381039150059223175048828125" lon="3.074093498289585113525390625">
        <ele>224.1999969482421875</ele>
        <time>2020-08-07T12:15:49.000Z</time>
      </trkpt>
      <trkpt lat="42.38103604875504970550537109375" lon="3.0740074999630451202392578125">
        <ele>223.8000030517578125</ele>
        <time>2020-08-07T12:15:50.000Z</time>
      </trkpt>
      <trkpt lat="42.3810282535851001739501953125" lon="3.073918819427490234375">
        <ele>222.8000030517578125</ele>
        <time>2020-08-07T12:15:53.000Z</time>
      </trkpt>
      <trkpt lat="42.38102431409060955047607421875" lon="3.07387833483517169952392578125">
        <ele>222.600006103515625</ele>
        <time>2020-08-07T12:15:54.000Z</time>
      </trkpt>
      <trkpt lat="42.38100528717041015625" lon="3.07378110475838184356689453125">
        <ele>221.600006103515625</ele>
        <time>2020-08-07T12:15:57.000Z</time>
      </trkpt>
      <trkpt lat="42.38097938708961009979248046875" lon="3.07367448695003986358642578125">
        <ele>221.399993896484375</ele>
        <time>2020-08-07T12:15:58.000Z</time>
      </trkpt>
      <trkpt lat="42.38095139153301715850830078125" lon="3.07354507036507129669189453125">
        <ele>220</ele>
        <time>2020-08-07T12:16:01.000Z</time>
      </trkpt>
      <trkpt lat="42.38091954030096530914306640625" lon="3.07340987026691436767578125">
        <ele>218.600006103515625</ele>
        <time>2020-08-07T12:16:03.000Z</time>
      </trkpt>
      <trkpt lat="42.38088919781148433685302734375" lon="3.07327467016875743865966796875">
        <ele>217.8000030517578125</ele>
        <time>2020-08-07T12:16:04.000Z</time>
      </trkpt>
      <trkpt lat="42.38087662495672702789306640625" lon="3.07320593856275081634521484375">
        <ele>217.1999969482421875</ele>
        <time>2020-08-07T12:16:05.000Z</time>
      </trkpt>
      <trkpt lat="42.38086371682584285736083984375" lon="3.07313133962452411651611328125">
        <ele>215.8000030517578125</ele>
        <time>2020-08-07T12:16:07.000Z</time>
      </trkpt>
      <trkpt lat="42.38081661053001880645751953125" lon="3.07283587753772735595703125">
        <ele>214.600006103515625</ele>
        <time>2020-08-07T12:16:10.000Z</time>
      </trkpt>
      <trkpt lat="42.38080680370330810546875" lon="3.07277494110167026519775390625">
        <ele>213.1999969482421875</ele>
        <time>2020-08-07T12:16:11.000Z</time>
      </trkpt>
      <trkpt lat="42.3807999305427074432373046875" lon="3.07272783480584621429443359375">
        <ele>211.600006103515625</ele>
        <time>2020-08-07T12:16:13.000Z</time>
      </trkpt>
      <trkpt lat="42.38078157417476177215576171875" lon="3.072640411555767059326171875">
        <ele>211</ele>
        <time>2020-08-07T12:16:14.000Z</time>
      </trkpt>
      <trkpt lat="42.38074368797242641448974609375" lon="3.07253957726061344146728515625">
        <ele>210.600006103515625</ele>
        <time>2020-08-07T12:16:16.000Z</time>
      </trkpt>
      <trkpt lat="42.38071669824421405792236328125" lon="3.07248651981353759765625">
        <ele>210.1999969482421875</ele>
        <time>2020-08-07T12:16:17.000Z</time>
      </trkpt>
      <trkpt lat="42.3806856013834476470947265625" lon="3.07242793031036853790283203125">
        <ele>208.8000030517578125</ele>
        <time>2020-08-07T12:16:19.000Z</time>
      </trkpt>
      <trkpt lat="42.38061611540615558624267578125" lon="3.07230203412473201751708984375">
        <ele>207</ele>
        <time>2020-08-07T12:16:21.000Z</time>
      </trkpt>
      <trkpt lat="42.38053799606859683990478515625" lon="3.072179071605205535888671875">
        <ele>205.600006103515625</ele>
        <time>2020-08-07T12:16:22.000Z</time>
      </trkpt>
      <trkpt lat="42.3804519139230251312255859375" lon="3.072060048580169677734375">
        <ele>204.399993896484375</ele>
        <time>2020-08-07T12:16:24.000Z</time>
      </trkpt>
      <trkpt lat="42.38036759197711944580078125" lon="3.0719445459544658660888671875">
        <ele>203.1999969482421875</ele>
        <time>2020-08-07T12:16:26.000Z</time>
      </trkpt>
      <trkpt lat="42.38028687424957752227783203125" lon="3.07185578159987926483154296875">
        <ele>201.8000030517578125</ele>
        <time>2020-08-07T12:16:28.000Z</time>
      </trkpt>
      <trkpt lat="42.38024647347629070281982421875" lon="3.0718214996159076690673828125">
        <ele>201.1999969482421875</ele>
        <time>2020-08-07T12:16:29.000Z</time>
      </trkpt>
      <trkpt lat="42.38020406104624271392822265625" lon="3.0717906542122364044189453125">
        <ele>200.600006103515625</ele>
        <time>2020-08-07T12:16:31.000Z</time>
      </trkpt>
      <trkpt lat="42.379918992519378662109375" lon="3.07161144912242889404296875">
        <ele>199.600006103515625</ele>
        <time>2020-08-07T12:16:36.000Z</time>
      </trkpt>
      <trkpt lat="42.379918992519378662109375" lon="3.07161144912242889404296875">
        <ele>199.399993896484375</ele>
        <time>2020-08-07T12:16:37.000Z</time>
      </trkpt>
      <trkpt lat="42.37981639802455902099609375" lon="3.0715562961995601654052734375">
        <ele>198.8000030517578125</ele>
        <time>2020-08-07T12:16:38.000Z</time>
      </trkpt>
      <trkpt lat="42.37981639802455902099609375" lon="3.0715562961995601654052734375">
        <ele>198</ele>
        <time>2020-08-07T12:16:39.000Z</time>
      </trkpt>
      <trkpt lat="42.37966963090002536773681640625" lon="3.07148798368871212005615234375">
        <ele>197.600006103515625</ele>
        <time>2020-08-07T12:16:41.000Z</time>
      </trkpt>
      <trkpt lat="42.37962755374610424041748046875" lon="3.0714605748653411865234375">
        <ele>197</ele>
        <time>2020-08-07T12:16:42.000Z</time>
      </trkpt>
      <trkpt lat="42.3794869892299175262451171875" lon="3.07133677415549755096435546875">
        <ele>195.8000030517578125</ele>
        <time>2020-08-07T12:16:46.000Z</time>
      </trkpt>
      <trkpt lat="42.3794294893741607666015625" lon="3.071253038942813873291015625">
        <ele>195.8000030517578125</ele>
        <time>2020-08-07T12:16:48.000Z</time>
      </trkpt>
      <trkpt lat="42.37937425263226032257080078125" lon="3.07115086354315280914306640625">
        <ele>195.8000030517578125</ele>
        <time>2020-08-07T12:16:50.000Z</time>
      </trkpt>
      <trkpt lat="42.37932060845196247100830078125" lon="3.071037121117115020751953125">
        <ele>195.399993896484375</ele>
        <time>2020-08-07T12:16:52.000Z</time>
      </trkpt>
      <trkpt lat="42.3792586661875247955322265625" lon="3.070928491652011871337890625">
        <ele>195.1999969482421875</ele>
        <time>2020-08-07T12:16:54.000Z</time>
      </trkpt>
      <trkpt lat="42.3792586661875247955322265625" lon="3.070928491652011871337890625">
        <ele>194.600006103515625</ele>
        <time>2020-08-07T12:16:55.000Z</time>
      </trkpt>
      <trkpt lat="42.37917962484061717987060546875" lon="3.07084341533482074737548828125">
        <ele>194</ele>
        <time>2020-08-07T12:16:56.000Z</time>
      </trkpt>
      <trkpt lat="42.37909220159053802490234375" lon="3.0707818083465099334716796875">
        <ele>193.8000030517578125</ele>
        <time>2020-08-07T12:16:58.000Z</time>
      </trkpt>
      <trkpt lat="42.379046939313411712646484375" lon="3.07076177559792995452880859375">
        <ele>193.600006103515625</ele>
        <time>2020-08-07T12:16:59.000Z</time>
      </trkpt>
      <trkpt lat="42.37900502979755401611328125" lon="3.0707409046590328216552734375">
        <ele>193.600006103515625</ele>
        <time>2020-08-07T12:17:00.000Z</time>
      </trkpt>
      <trkpt lat="42.37884409725666046142578125" lon="3.070642165839672088623046875">
        <ele>194.399993896484375</ele>
        <time>2020-08-07T12:17:05.000Z</time>
      </trkpt>
      <trkpt lat="42.37881987355649471282958984375" lon="3.07062867097556591033935546875">
        <ele>194.8000030517578125</ele>
        <time>2020-08-07T12:17:07.000Z</time>
      </trkpt>
      <trkpt lat="42.37863312475383281707763671875" lon="3.07050009258091449737548828125">
        <ele>195.399993896484375</ele>
        <time>2020-08-07T12:17:14.000Z</time>
      </trkpt>
      <trkpt lat="42.3784184642136096954345703125" lon="3.070395402610301971435546875">
        <ele>195.1999969482421875</ele>
        <time>2020-08-07T12:17:22.000Z</time>
      </trkpt>
      <trkpt lat="42.37824856303632259368896484375" lon="3.07036422193050384521484375">
        <ele>195.8000030517578125</ele>
        <time>2020-08-07T12:17:29.000Z</time>
      </trkpt>
      <trkpt lat="42.37823129631578922271728515625" lon="3.070355840027332305908203125">
        <ele>196</ele>
        <time>2020-08-07T12:17:30.000Z</time>
      </trkpt>
      <trkpt lat="42.37810355611145496368408203125" lon="3.07023539207875728607177734375">
        <ele>195.8000030517578125</ele>
        <time>2020-08-07T12:17:36.000Z</time>
      </trkpt>
      <trkpt lat="42.37797908484935760498046875" lon="3.0700577795505523681640625">
        <ele>194.600006103515625</ele>
        <time>2020-08-07T12:17:40.000Z</time>
      </trkpt>
      <trkpt lat="42.3779219202697277069091796875" lon="3.06993967853486537933349609375">
        <ele>194</ele>
        <time>2020-08-07T12:17:42.000Z</time>
      </trkpt>
      <trkpt lat="42.3778632469475269317626953125" lon="3.0698168836534023284912109375">
        <ele>193.1999969482421875</ele>
        <time>2020-08-07T12:17:44.000Z</time>
      </trkpt>
      <trkpt lat="42.377813123166561126708984375" lon="3.06969207711517810821533203125">
        <ele>191.600006103515625</ele>
        <time>2020-08-07T12:17:46.000Z</time>
      </trkpt>
      <trkpt lat="42.377758808434009552001953125" lon="3.069572634994983673095703125">
        <ele>190.399993896484375</ele>
        <time>2020-08-07T12:17:48.000Z</time>
      </trkpt>
      <trkpt lat="42.377758808434009552001953125" lon="3.069572634994983673095703125">
        <ele>189.8000030517578125</ele>
        <time>2020-08-07T12:17:49.000Z</time>
      </trkpt>
      <trkpt lat="42.377692759037017822265625" lon="3.06945771910250186920166015625">
        <ele>189.1999969482421875</ele>
        <time>2020-08-07T12:17:50.000Z</time>
      </trkpt>
      <trkpt lat="42.377601899206638336181640625" lon="3.06937180459499359130859375">
        <ele>188.1999969482421875</ele>
        <time>2020-08-07T12:17:52.000Z</time>
      </trkpt>
      <trkpt lat="42.3775454051792621612548828125" lon="3.0693443119525909423828125">
        <ele>187.399993896484375</ele>
        <time>2020-08-07T12:17:53.000Z</time>
      </trkpt>
      <trkpt lat="42.37749016843736171722412109375" lon="3.06932142935693264007568359375">
        <ele>185.8000030517578125</ele>
        <time>2020-08-07T12:17:55.000Z</time>
      </trkpt>
      <trkpt lat="42.37739008851349353790283203125" lon="3.06927482597529888153076171875">
        <ele>184.600006103515625</ele>
        <time>2020-08-07T12:17:57.000Z</time>
      </trkpt>
      <trkpt lat="42.37728481180965900421142578125" lon="3.06921430863440036773681640625">
        <ele>184.1999969482421875</ele>
        <time>2020-08-07T12:17:58.000Z</time>
      </trkpt>
      <trkpt lat="42.37722680903971195220947265625" lon="3.069181032478809356689453125">
        <ele>183.600006103515625</ele>
        <time>2020-08-07T12:17:59.000Z</time>
      </trkpt>
      <trkpt lat="42.3771685548126697540283203125" lon="3.06914658285677433013916015625">
        <ele>182.399993896484375</ele>
        <time>2020-08-07T12:18:01.000Z</time>
      </trkpt>
      <trkpt lat="42.37704542465507984161376953125" lon="3.06907366029918193817138671875">
        <ele>181.399993896484375</ele>
        <time>2020-08-07T12:18:02.000Z</time>
      </trkpt>
      <trkpt lat="42.37704542465507984161376953125" lon="3.06907366029918193817138671875">
        <ele>180.1999969482421875</ele>
        <time>2020-08-07T12:18:03.000Z</time>
      </trkpt>
      <trkpt lat="42.37687124870717525482177734375" lon="3.06897525675594806671142578125">
        <ele>178.8000030517578125</ele>
        <time>2020-08-07T12:18:05.000Z</time>
      </trkpt>
      <trkpt lat="42.37681902945041656494140625" lon="3.06894667446613311767578125">
        <ele>178</ele>
        <time>2020-08-07T12:18:06.000Z</time>
      </trkpt>
      <trkpt lat="42.37681902945041656494140625" lon="3.06894667446613311767578125">
        <ele>177.1999969482421875</ele>
        <time>2020-08-07T12:18:07.000Z</time>
      </trkpt>
      <trkpt lat="42.376665808260440826416015625" lon="3.068863190710544586181640625">
        <ele>175.8000030517578125</ele>
        <time>2020-08-07T12:18:09.000Z</time>
      </trkpt>
      <trkpt lat="42.37656891345977783203125" lon="3.0688093788921833038330078125">
        <ele>174.600006103515625</ele>
        <time>2020-08-07T12:18:11.000Z</time>
      </trkpt>
      <trkpt lat="42.3765241540968418121337890625" lon="3.0687892623245716094970703125">
        <ele>173.8000030517578125</ele>
        <time>2020-08-07T12:18:13.000Z</time>
      </trkpt>
      <trkpt lat="42.37644486129283905029296875" lon="3.0687721632421016693115234375">
        <ele>173.399993896484375</ele>
        <time>2020-08-07T12:18:14.000Z</time>
      </trkpt>
      <trkpt lat="42.3763811588287353515625" lon="3.068771995604038238525390625">
        <ele>172</ele>
        <time>2020-08-07T12:18:16.000Z</time>
      </trkpt>
      <trkpt lat="42.3763568513095378875732421875" lon="3.0687758512794971466064453125">
        <ele>171.399993896484375</ele>
        <time>2020-08-07T12:18:17.000Z</time>
      </trkpt>
      <trkpt lat="42.37633530981838703155517578125" lon="3.06877844966948032379150390625">
        <ele>170.8000030517578125</ele>
        <time>2020-08-07T12:18:18.000Z</time>
      </trkpt>
      <trkpt lat="42.37630614079535007476806640625" lon="3.06878012605011463165283203125">
        <ele>170</ele>
        <time>2020-08-07T12:18:22.000Z</time>
      </trkpt>
      <trkpt lat="42.3763082362711429595947265625" lon="3.06878197006881237030029296875">
        <ele>169.600006103515625</ele>
        <time>2020-08-07T12:18:25.000Z</time>
      </trkpt>
      <trkpt lat="42.3762780614197254180908203125" lon="3.0687783658504486083984375">
        <ele>169.1999969482421875</ele>
        <time>2020-08-07T12:18:31.000Z</time>
      </trkpt>
      <trkpt lat="42.3762378282845020294189453125" lon="3.06877593509852886199951171875">
        <ele>168.600006103515625</ele>
        <time>2020-08-07T12:18:35.000Z</time>
      </trkpt>
      <trkpt lat="42.376195751130580902099609375" lon="3.06878264062106609344482421875">
        <ele>168.1999969482421875</ele>
        <time>2020-08-07T12:18:38.000Z</time>
      </trkpt>
      <trkpt lat="42.3761571943759918212890625" lon="3.0687607638537883758544921875">
        <ele>167.8000030517578125</ele>
        <time>2020-08-07T12:18:40.000Z</time>
      </trkpt>
      <trkpt lat="42.37613867036998271942138671875" lon="3.0687436647713184356689453125">
        <ele>167.399993896484375</ele>
        <time>2020-08-07T12:18:41.000Z</time>
      </trkpt>
      <trkpt lat="42.37609575502574443817138671875" lon="3.06867049075663089752197265625">
        <ele>166.1999969482421875</ele>
        <time>2020-08-07T12:18:44.000Z</time>
      </trkpt>
      <trkpt lat="42.37607480026781558990478515625" lon="3.0685817264020442962646484375">
        <ele>165.1999969482421875</ele>
        <time>2020-08-07T12:18:47.000Z</time>
      </trkpt>
      <trkpt lat="42.37607178278267383575439453125" lon="3.0685012601315975189208984375">
        <ele>164.600006103515625</ele>
        <time>2020-08-07T12:18:50.000Z</time>
      </trkpt>
      <trkpt lat="42.37604898400604724884033203125" lon="3.0684261582791805267333984375">
        <ele>164</ele>
        <time>2020-08-07T12:18:53.000Z</time>
      </trkpt>
      <trkpt lat="42.3760302923619747161865234375" lon="3.06834242306649684906005859375">
        <ele>163.8000030517578125</ele>
        <time>2020-08-07T12:18:55.000Z</time>
      </trkpt>
      <trkpt lat="42.3760004527866840362548828125" lon="3.06818232871592044830322265625">
        <ele>163</ele>
        <time>2020-08-07T12:18:58.000Z</time>
      </trkpt>
      <trkpt lat="42.37597907893359661102294921875" lon="3.06806297041475772857666015625">
        <ele>162</ele>
        <time>2020-08-07T12:19:01.000Z</time>
      </trkpt>
      <trkpt lat="42.37596399150788784027099609375" lon="3.06797076947987079620361328125">
        <ele>161.600006103515625</ele>
        <time>2020-08-07T12:19:02.000Z</time>
      </trkpt>
      <trkpt lat="42.37594253383576869964599609375" lon="3.0678866989910602569580078125">
        <ele>160.600006103515625</ele>
        <time>2020-08-07T12:19:05.000Z</time>
      </trkpt>
      <trkpt lat="42.37590707838535308837890625" lon="3.06785040535032749176025390625">
        <ele>159.8000030517578125</ele>
        <time>2020-08-07T12:19:08.000Z</time>
      </trkpt>
      <trkpt lat="42.37585636787116527557373046875" lon="3.06786180473864078521728515625">
        <ele>159.600006103515625</ele>
        <time>2020-08-07T12:19:10.000Z</time>
      </trkpt>
      <trkpt lat="42.3758277855813503265380859375" lon="3.067872114479541778564453125">
        <ele>159.1999969482421875</ele>
        <time>2020-08-07T12:19:11.000Z</time>
      </trkpt>
      <trkpt lat="42.3757620714604854583740234375" lon="3.06786415167152881622314453125">
        <ele>158</ele>
        <time>2020-08-07T12:19:14.000Z</time>
      </trkpt>
      <trkpt lat="42.3757620714604854583740234375" lon="3.06786415167152881622314453125">
        <ele>157.8000030517578125</ele>
        <time>2020-08-07T12:19:15.000Z</time>
      </trkpt>
      <trkpt lat="42.3756953515112400054931640625" lon="3.067827858030796051025390625">
        <ele>157</ele>
        <time>2020-08-07T12:19:18.000Z</time>
      </trkpt>
      <trkpt lat="42.3756500892341136932373046875" lon="3.06781268678605556488037109375">
        <ele>156.399993896484375</ele>
        <time>2020-08-07T12:19:21.000Z</time>
      </trkpt>
      <trkpt lat="42.375575490295886993408203125" lon="3.06773431599140167236328125">
        <ele>155.8000030517578125</ele>
        <time>2020-08-07T12:19:24.000Z</time>
      </trkpt>
      <trkpt lat="42.375521175563335418701171875" lon="3.067690394818782806396484375">
        <ele>155.600006103515625</ele>
        <time>2020-08-07T12:19:26.000Z</time>
      </trkpt>
      <trkpt lat="42.37546979449689388275146484375" lon="3.067688047885894775390625">
        <ele>154.8000030517578125</ele>
        <time>2020-08-07T12:19:28.000Z</time>
      </trkpt>
      <trkpt lat="42.37543459050357341766357421875" lon="3.0676945857703685760498046875">
        <ele>154</ele>
        <time>2020-08-07T12:19:31.000Z</time>
      </trkpt>
      <trkpt lat="42.37542319111526012420654296875" lon="3.06770171038806438446044921875">
        <ele>153.8000030517578125</ele>
        <time>2020-08-07T12:19:32.000Z</time>
      </trkpt>
      <trkpt lat="42.375423274934291839599609375" lon="3.06770171038806438446044921875">
        <ele>153.600006103515625</ele>
        <time>2020-08-07T12:19:35.000Z</time>
      </trkpt>
      <trkpt lat="42.3753754980862140655517578125" lon="3.0677136965095996856689453125">
        <ele>153.399993896484375</ele>
        <time>2020-08-07T12:19:42.000Z</time>
      </trkpt>
      <trkpt lat="42.37533702515065670013427734375" lon="3.06771059520542621612548828125">
        <ele>153.1999969482421875</ele>
        <time>2020-08-07T12:19:44.000Z</time>
      </trkpt>
      <trkpt lat="42.375314645469188690185546875" lon="3.0676667578518390655517578125">
        <ele>152.8000030517578125</ele>
        <time>2020-08-07T12:19:46.000Z</time>
      </trkpt>
      <trkpt lat="42.375302575528621673583984375" lon="3.06764454580843448638916015625">
        <ele>152.8000030517578125</ele>
        <time>2020-08-07T12:19:47.000Z</time>
      </trkpt>
      <trkpt lat="42.3752195946872234344482421875" lon="3.0675148777663707733154296875">
        <ele>153</ele>
        <time>2020-08-07T12:19:54.000Z</time>
      </trkpt>
      <trkpt lat="42.37511456944048404693603515625" lon="3.067371882498264312744140625">
        <ele>153.600006103515625</ele>
        <time>2020-08-07T12:20:03.000Z</time>
      </trkpt>
      <trkpt lat="42.37510032020509243011474609375" lon="3.06738822720944881439208984375">
        <ele>153.600006103515625</ele>
        <time>2020-08-07T12:20:08.000Z</time>
      </trkpt>
      <trkpt lat="42.3751602508127689361572265625" lon="3.06746953167021274566650390625">
        <ele>153.600006103515625</ele>
        <time>2020-08-07T12:20:14.000Z</time>
      </trkpt>
      <trkpt lat="42.37526058219373226165771484375" lon="3.06762862019240856170654296875">
        <ele>153.399993896484375</ele>
        <time>2020-08-07T12:20:21.000Z</time>
      </trkpt>
      <trkpt lat="42.3753205128014087677001953125" lon="3.06770145893096923828125">
        <ele>153.399993896484375</ele>
        <time>2020-08-07T12:20:23.000Z</time>
      </trkpt>
      <trkpt lat="42.375338114798069000244140625" lon="3.06770338676869869232177734375">
        <ele>153.399993896484375</ele>
        <time>2020-08-07T12:20:24.000Z</time>
      </trkpt>
      <trkpt lat="42.37543257884681224822998046875" lon="3.06767757050693035125732421875">
        <ele>154</ele>
        <time>2020-08-07T12:20:31.000Z</time>
      </trkpt>
      <trkpt lat="42.3754517734050750732421875" lon="3.06765175424516201019287109375">
        <ele>154.1999969482421875</ele>
        <time>2020-08-07T12:20:32.000Z</time>
      </trkpt>
      <trkpt lat="42.3754517734050750732421875" lon="3.06765175424516201019287109375">
        <ele>154.399993896484375</ele>
        <time>2020-08-07T12:20:33.000Z</time>
      </trkpt>
      <trkpt lat="42.3754569701850414276123046875" lon="3.0676384270191192626953125">
        <ele>154.600006103515625</ele>
        <time>2020-08-07T12:20:38.000Z</time>
      </trkpt>
      <trkpt lat="42.37547784112393856048583984375" lon="3.0676449649035930633544921875">
        <ele>154.600006103515625</ele>
        <time>2020-08-07T12:20:42.000Z</time>
      </trkpt>
      <trkpt lat="42.3755002208054065704345703125" lon="3.0676473118364810943603515625">
        <ele>154.8000030517578125</ele>
        <time>2020-08-07T12:20:44.000Z</time>
      </trkpt>
      <trkpt lat="42.37552486360073089599609375" lon="3.06766181252896785736083984375">
        <ele>155</ele>
        <time>2020-08-07T12:20:46.000Z</time>
      </trkpt>
      <trkpt lat="42.37553802318871021270751953125" lon="3.06767606176435947418212890625">
        <ele>155.1999969482421875</ele>
        <time>2020-08-07T12:20:47.000Z</time>
      </trkpt>
      <trkpt lat="42.3755615763366222381591796875" lon="3.06774462573230266571044921875">
        <ele>155.1999969482421875</ele>
        <time>2020-08-07T12:20:50.000Z</time>
      </trkpt>
      <trkpt lat="42.37558479420840740203857421875" lon="3.0677725374698638916015625">
        <ele>155.600006103515625</ele>
        <time>2020-08-07T12:20:52.000Z</time>
      </trkpt>
      <trkpt lat="42.37561605870723724365234375" lon="3.067751415073871612548828125">
        <ele>156</ele>
        <time>2020-08-07T12:20:54.000Z</time>
      </trkpt>
      <trkpt lat="42.37561605870723724365234375" lon="3.067751415073871612548828125">
        <ele>156.1999969482421875</ele>
        <time>2020-08-07T12:20:55.000Z</time>
      </trkpt>
      <trkpt lat="42.37561966292560100555419921875" lon="3.06770673952996730804443359375">
        <ele>156.1999969482421875</ele>
        <time>2020-08-07T12:20:56.000Z</time>
      </trkpt>
      <trkpt lat="42.3756152205169200897216796875" lon="3.06764119304716587066650390625">
        <ele>156.600006103515625</ele>
        <time>2020-08-07T12:20:59.000Z</time>
      </trkpt>
      <trkpt lat="42.37560809589922428131103515625" lon="3.0675859563052654266357421875">
        <ele>157.1999969482421875</ele>
        <time>2020-08-07T12:21:02.000Z</time>
      </trkpt>
      <trkpt lat="42.375578172504901885986328125" lon="3.0675373412668704986572265625">
        <ele>157.600006103515625</ele>
        <time>2020-08-07T12:21:05.000Z</time>
      </trkpt>
      <trkpt lat="42.37551488913595676422119140625" lon="3.067379929125308990478515625">
        <ele>158.399993896484375</ele>
        <time>2020-08-07T12:21:13.000Z</time>
      </trkpt>
      <trkpt lat="42.37549091689288616180419921875" lon="3.06728378869593143463134765625">
        <ele>158.600006103515625</ele>
        <time>2020-08-07T12:21:17.000Z</time>
      </trkpt>
      <trkpt lat="42.37547214142978191375732421875" lon="3.0672275461256504058837890625">
        <ele>159.600006103515625</ele>
        <time>2020-08-07T12:21:21.000Z</time>
      </trkpt>
      <trkpt lat="42.3754619993269443511962890625" lon="3.06719343177974224090576171875">
        <ele>159.8000030517578125</ele>
        <time>2020-08-07T12:21:22.000Z</time>
      </trkpt>
      <trkpt lat="42.37544900737702846527099609375" lon="3.067183457314968109130859375">
        <ele>160.1999969482421875</ele>
        <time>2020-08-07T12:21:23.000Z</time>
      </trkpt>
      <trkpt lat="42.3753895796835422515869140625" lon="3.0671507678925991058349609375">
        <ele>160.600006103515625</ele>
        <time>2020-08-07T12:21:26.000Z</time>
      </trkpt>
      <trkpt lat="42.375297881662845611572265625" lon="3.0671051703393459320068359375">
        <ele>160.600006103515625</ele>
        <time>2020-08-07T12:21:30.000Z</time>
      </trkpt>
      <trkpt lat="42.37527064047753810882568359375" lon="3.0670438148081302642822265625">
        <ele>160.600006103515625</ele>
        <time>2020-08-07T12:21:32.000Z</time>
      </trkpt>
      <trkpt lat="42.37526980228722095489501953125" lon="3.0669544637203216552734375">
        <ele>160.399993896484375</ele>
        <time>2020-08-07T12:21:34.000Z</time>
      </trkpt>
      <trkpt lat="42.37528673373162746429443359375" lon="3.0668587423861026763916015625">
        <ele>159.1999969482421875</ele>
        <time>2020-08-07T12:21:37.000Z</time>
      </trkpt>
      <trkpt lat="42.3753225244581699371337890625" lon="3.066758997738361358642578125">
        <ele>158.1999969482421875</ele>
        <time>2020-08-07T12:21:38.000Z</time>
      </trkpt>
      <trkpt lat="42.3753225244581699371337890625" lon="3.066758997738361358642578125">
        <ele>157.600006103515625</ele>
        <time>2020-08-07T12:21:39.000Z</time>
      </trkpt>
      <trkpt lat="42.3753701336681842803955078125" lon="3.06665648706257343292236328125">
        <ele>157.1999969482421875</ele>
        <time>2020-08-07T12:21:40.000Z</time>
      </trkpt>
      <trkpt lat="42.37539720721542835235595703125" lon="3.06660200469195842742919921875">
        <ele>156.600006103515625</ele>
        <time>2020-08-07T12:21:41.000Z</time>
      </trkpt>
      <trkpt lat="42.37542570568621158599853515625" lon="3.06654048152267932891845703125">
        <ele>155.399993896484375</ele>
        <time>2020-08-07T12:21:43.000Z</time>
      </trkpt>
      <trkpt lat="42.3754801042377948760986328125" lon="3.0664111487567424774169921875">
        <ele>154.1999969482421875</ele>
        <time>2020-08-07T12:21:45.000Z</time>
      </trkpt>
      <trkpt lat="42.37552486360073089599609375" lon="3.06629355065524578094482421875">
        <ele>153.1999969482421875</ele>
        <time>2020-08-07T12:21:46.000Z</time>
      </trkpt>
      <trkpt lat="42.37553601153194904327392578125" lon="3.0662445165216922760009765625">
        <ele>152.399993896484375</ele>
        <time>2020-08-07T12:21:47.000Z</time>
      </trkpt>
      <trkpt lat="42.3755402863025665283203125" lon="3.0662029422819614410400390625">
        <ele>151.600006103515625</ele>
        <time>2020-08-07T12:21:48.000Z</time>
      </trkpt>
      <trkpt lat="42.3755402863025665283203125" lon="3.0662029422819614410400390625">
        <ele>150.8000030517578125</ele>
        <time>2020-08-07T12:21:49.000Z</time>
      </trkpt>
      <trkpt lat="42.37554959021508693695068359375" lon="3.06605701334774494171142578125">
        <ele>149.600006103515625</ele>
        <time>2020-08-07T12:21:52.000Z</time>
      </trkpt>
      <trkpt lat="42.3755847103893756866455078125" lon="3.066005297005176544189453125">
        <ele>149</ele>
        <time>2020-08-07T12:21:54.000Z</time>
      </trkpt>
      <trkpt lat="42.37563810311257839202880859375" lon="3.06596430949866771697998046875">
        <ele>148.600006103515625</ele>
        <time>2020-08-07T12:21:56.000Z</time>
      </trkpt>
      <trkpt lat="42.37579065375030040740966796875" lon="3.06590412743389606475830078125">
        <ele>147.600006103515625</ele>
        <time>2020-08-07T12:22:00.000Z</time>
      </trkpt>
      <trkpt lat="42.37601210363209247589111328125" lon="3.0658656544983386993408203125">
        <ele>146.399993896484375</ele>
        <time>2020-08-07T12:22:04.000Z</time>
      </trkpt>
      <trkpt lat="42.37613297067582607269287109375" lon="3.0658240802586078643798828125">
        <ele>145.600006103515625</ele>
        <time>2020-08-07T12:22:06.000Z</time>
      </trkpt>
      <trkpt lat="42.37626104615628719329833984375" lon="3.0657560192048549652099609375">
        <ele>145</ele>
        <time>2020-08-07T12:22:08.000Z</time>
      </trkpt>
      <trkpt lat="42.37639280967414379119873046875" lon="3.06568670086562633514404296875">
        <ele>143.8000030517578125</ele>
        <time>2020-08-07T12:22:10.000Z</time>
      </trkpt>
      <trkpt lat="42.3765251599252223968505859375" lon="3.06562165729701519012451171875">
        <ele>142.8000030517578125</ele>
        <time>2020-08-07T12:22:12.000Z</time>
      </trkpt>
      <trkpt lat="42.3765251599252223968505859375" lon="3.06562165729701519012451171875">
        <ele>142.399993896484375</ele>
        <time>2020-08-07T12:22:13.000Z</time>
      </trkpt>
      <trkpt lat="42.37665482796728610992431640625" lon="3.06555393151938915252685546875">
        <ele>142.1999969482421875</ele>
        <time>2020-08-07T12:22:14.000Z</time>
      </trkpt>
      <trkpt lat="42.37676865421235561370849609375" lon="3.0654631555080413818359375">
        <ele>141.600006103515625</ele>
        <time>2020-08-07T12:22:16.000Z</time>
      </trkpt>
      <trkpt lat="42.3768138326704502105712890625" lon="3.0654041469097137451171875">
        <ele>141.600006103515625</ele>
        <time>2020-08-07T12:22:17.000Z</time>
      </trkpt>
      <trkpt lat="42.376915253698825836181640625" lon="3.0651769973337650299072265625">
        <ele>140.399993896484375</ele>
        <time>2020-08-07T12:22:20.000Z</time>
      </trkpt>
      <trkpt lat="42.37697736360132694244384765625" lon="3.06501531042158603668212890625">
        <ele>139.600006103515625</ele>
        <time>2020-08-07T12:22:22.000Z</time>
      </trkpt>
      <trkpt lat="42.37700879573822021484375" lon="3.0649329163134098052978515625">
        <ele>139.1999969482421875</ele>
        <time>2020-08-07T12:22:23.000Z</time>
      </trkpt>
      <trkpt lat="42.3771920241415500640869140625" lon="3.06443578563630580902099609375">
        <ele>137.8000030517578125</ele>
        <time>2020-08-07T12:22:29.000Z</time>
      </trkpt>
      <trkpt lat="42.37727701663970947265625" lon="3.06418198160827159881591796875">
        <ele>137.1999969482421875</ele>
        <time>2020-08-07T12:22:32.000Z</time>
      </trkpt>
      <trkpt lat="42.377399392426013946533203125" lon="3.06383614428341388702392578125">
        <ele>136.8000030517578125</ele>
        <time>2020-08-07T12:22:36.000Z</time>
      </trkpt>
      <trkpt lat="42.3775326646864414215087890625" lon="3.06347974576056003570556640625">
        <ele>135.600006103515625</ele>
        <time>2020-08-07T12:22:40.000Z</time>
      </trkpt>
      <trkpt lat="42.37759360112249851226806640625" lon="3.06329148821532726287841796875">
        <ele>134.8000030517578125</ele>
        <time>2020-08-07T12:22:42.000Z</time>
      </trkpt>
      <trkpt lat="42.37773324362933635711669921875" lon="3.062844984233379364013671875">
        <ele>134.399993896484375</ele>
        <time>2020-08-07T12:22:47.000Z</time>
      </trkpt>
      <trkpt lat="42.377809099853038787841796875" lon="3.0626141466200351715087890625">
        <ele>134.399993896484375</ele>
        <time>2020-08-07T12:22:50.000Z</time>
      </trkpt>
      <trkpt lat="42.3779973573982715606689453125" lon="3.06209497153759002685546875">
        <ele>134.1999969482421875</ele>
        <time>2020-08-07T12:22:58.000Z</time>
      </trkpt>
      <trkpt lat="42.3781586252152919769287109375" lon="3.0618956498801708221435546875">
        <ele>133.8000030517578125</ele>
        <time>2020-08-07T12:23:02.000Z</time>
      </trkpt>
      <trkpt lat="42.37825375981628894805908203125" lon="3.06180059909820556640625">
        <ele>133.399993896484375</ele>
        <time>2020-08-07T12:23:04.000Z</time>
      </trkpt>
      <trkpt lat="42.378475628793239593505859375" lon="3.0616083182394504547119140625">
        <ele>132.399993896484375</ele>
        <time>2020-08-07T12:23:08.000Z</time>
      </trkpt>
      <trkpt lat="42.378475628793239593505859375" lon="3.0616083182394504547119140625">
        <ele>132.399993896484375</ele>
        <time>2020-08-07T12:23:09.000Z</time>
      </trkpt>
      <trkpt lat="42.3787745274603366851806640625" lon="3.06142173707485198974609375">
        <ele>131.1999969482421875</ele>
        <time>2020-08-07T12:23:12.000Z</time>
      </trkpt>
      <trkpt lat="42.3787745274603366851806640625" lon="3.06142173707485198974609375">
        <ele>130.8000030517578125</ele>
        <time>2020-08-07T12:23:13.000Z</time>
      </trkpt>
      <trkpt lat="42.37894845195114612579345703125" lon="3.06131537072360515594482421875">
        <ele>129.8000030517578125</ele>
        <time>2020-08-07T12:23:14.000Z</time>
      </trkpt>
      <trkpt lat="42.37913738004863262176513671875" lon="3.06119802407920360565185546875">
        <ele>128.600006103515625</ele>
        <time>2020-08-07T12:23:16.000Z</time>
      </trkpt>
      <trkpt lat="42.37933871336281299591064453125" lon="3.06107170879840850830078125">
        <ele>127.1999969482421875</ele>
        <time>2020-08-07T12:23:18.000Z</time>
      </trkpt>
      <trkpt lat="42.37952562980353832244873046875" lon="3.0609119497239589691162109375">
        <ele>125.59999847412109375</ele>
        <time>2020-08-07T12:23:20.000Z</time>
      </trkpt>
      <trkpt lat="42.37968572415411472320556640625" lon="3.060728050768375396728515625">
        <ele>124.8000030517578125</ele>
        <time>2020-08-07T12:23:22.000Z</time>
      </trkpt>
      <trkpt lat="42.37983291037380695343017578125" lon="3.06056166999042034149169921875">
        <ele>124.59999847412109375</ele>
        <time>2020-08-07T12:23:25.000Z</time>
      </trkpt>
      <trkpt lat="42.37997389398515224456787109375" lon="3.06042588315904140472412109375">
        <ele>124.8000030517578125</ele>
        <time>2020-08-07T12:23:27.000Z</time>
      </trkpt>
      <trkpt lat="42.380099035799503326416015625" lon="3.0602983944118022918701171875">
        <ele>124.8000030517578125</ele>
        <time>2020-08-07T12:23:28.000Z</time>
      </trkpt>
      <trkpt lat="42.38020523451268672943115234375" lon="3.06016688235104084014892578125">
        <ele>125.1999969482421875</ele>
        <time>2020-08-07T12:23:31.000Z</time>
      </trkpt>
      <trkpt lat="42.380289137363433837890625" lon="3.06004266254603862762451171875">
        <ele>125.40000152587890625</ele>
        <time>2020-08-07T12:23:32.000Z</time>
      </trkpt>
      <trkpt lat="42.380289137363433837890625" lon="3.06004266254603862762451171875">
        <ele>125.59999847412109375</ele>
        <time>2020-08-07T12:23:33.000Z</time>
      </trkpt>
      <trkpt lat="42.38037605769932270050048828125" lon="3.05988742969930171966552734375">
        <ele>126.40000152587890625</ele>
        <time>2020-08-07T12:23:35.000Z</time>
      </trkpt>
      <trkpt lat="42.38039575517177581787109375" lon="3.05984300561249256134033203125">
        <ele>126.8000030517578125</ele>
        <time>2020-08-07T12:23:37.000Z</time>
      </trkpt>
      <trkpt lat="42.38047395832836627960205078125" lon="3.05970923043787479400634765625">
        <ele>127.40000152587890625</ele>
        <time>2020-08-07T12:23:40.000Z</time>
      </trkpt>
      <trkpt lat="42.380507402122020721435546875" lon="3.059645108878612518310546875">
        <ele>128</ele>
        <time>2020-08-07T12:23:43.000Z</time>
      </trkpt>
      <trkpt lat="42.38058929331600666046142578125" lon="3.0595125071704387664794921875">
        <ele>128.8000030517578125</ele>
        <time>2020-08-07T12:23:47.000Z</time>
      </trkpt>
      <trkpt lat="42.38060362637042999267578125" lon="3.05948761291801929473876953125">
        <ele>129</ele>
        <time>2020-08-07T12:23:48.000Z</time>
      </trkpt>
      <trkpt lat="42.38068803213536739349365234375" lon="3.059341013431549072265625">
        <ele>130</ele>
        <time>2020-08-07T12:23:55.000Z</time>
      </trkpt>
      <trkpt lat="42.38071870990097522735595703125" lon="3.05929474532604217529296875">
        <ele>130</ele>
        <time>2020-08-07T12:23:56.000Z</time>
      </trkpt>
      <trkpt lat="42.38081996329128742218017578125" lon="3.05915149860084056854248046875">
        <ele>130.8000030517578125</ele>
        <time>2020-08-07T12:24:02.000Z</time>
      </trkpt>
      <trkpt lat="42.380876876413822174072265625" lon="3.0590397678315639495849609375">
        <ele>131.1999969482421875</ele>
        <time>2020-08-07T12:24:06.000Z</time>
      </trkpt>
      <trkpt lat="42.38091182895004749298095703125" lon="3.05898821912705898284912109375">
        <ele>131.600006103515625</ele>
        <time>2020-08-07T12:24:09.000Z</time>
      </trkpt>
      <trkpt lat="42.3810198716819286346435546875" lon="3.05883516557514667510986328125">
        <ele>132.399993896484375</ele>
        <time>2020-08-07T12:24:15.000Z</time>
      </trkpt>
      <trkpt lat="42.38107326440513134002685546875" lon="3.05875754915177822113037109375">
        <ele>132.600006103515625</ele>
        <time>2020-08-07T12:24:17.000Z</time>
      </trkpt>
      <trkpt lat="42.38116328604519367218017578125" lon="3.05862813256680965423583984375">
        <ele>133.399993896484375</ele>
        <time>2020-08-07T12:24:22.000Z</time>
      </trkpt>
      <trkpt lat="42.38123000599443912506103515625" lon="3.058514893054962158203125">
        <ele>134</ele>
        <time>2020-08-07T12:24:26.000Z</time>
      </trkpt>
      <trkpt lat="42.38130460493266582489013671875" lon="3.05840953253209590911865234375">
        <ele>134.399993896484375</ele>
        <time>2020-08-07T12:24:31.000Z</time>
      </trkpt>
      <trkpt lat="42.38141105510294437408447265625" lon="3.0582357756793498992919921875">
        <ele>135.600006103515625</ele>
        <time>2020-08-07T12:24:37.000Z</time>
      </trkpt>
      <trkpt lat="42.38144977949559688568115234375" lon="3.05818162858486175537109375">
        <ele>135.8000030517578125</ele>
        <time>2020-08-07T12:24:39.000Z</time>
      </trkpt>
      <trkpt lat="42.3815935291349887847900390625" lon="3.057942576706409454345703125">
        <ele>136.399993896484375</ele>
        <time>2020-08-07T12:24:46.000Z</time>
      </trkpt>
      <trkpt lat="42.38166955299675464630126953125" lon="3.0578227154910564422607421875">
        <ele>136.600006103515625</ele>
        <time>2020-08-07T12:24:51.000Z</time>
      </trkpt>
      <trkpt lat="42.3817360214889049530029296875" lon="3.05769019760191440582275390625">
        <ele>137.1999969482421875</ele>
        <time>2020-08-07T12:24:55.000Z</time>
      </trkpt>
      <trkpt lat="42.38192235119640827178955078125" lon="3.0573560111224651336669921875">
        <ele>137.399993896484375</ele>
        <time>2020-08-07T12:25:04.000Z</time>
      </trkpt>
      <trkpt lat="42.38199963234364986419677734375" lon="3.0572208948433399200439453125">
        <ele>137.8000030517578125</ele>
        <time>2020-08-07T12:25:08.000Z</time>
      </trkpt>
      <trkpt lat="42.382118068635463714599609375" lon="3.05703976191580295562744140625">
        <ele>137.8000030517578125</ele>
        <time>2020-08-07T12:25:15.000Z</time>
      </trkpt>
      <trkpt lat="42.38229517824947834014892578125" lon="3.05684479884803295135498046875">
        <ele>137.1999969482421875</ele>
        <time>2020-08-07T12:25:21.000Z</time>
      </trkpt>
      <trkpt lat="42.3824535124003887176513671875" lon="3.056676574051380157470703125">
        <ele>136.600006103515625</ele>
        <time>2020-08-07T12:25:24.000Z</time>
      </trkpt>
      <trkpt lat="42.382545880973339080810546875" lon="3.0565875582396984100341796875">
        <ele>136.1999969482421875</ele>
        <time>2020-08-07T12:25:27.000Z</time>
      </trkpt>
      <trkpt lat="42.38275098614394664764404296875" lon="3.0564031563699245452880859375">
        <ele>135.399993896484375</ele>
        <time>2020-08-07T12:25:30.000Z</time>
      </trkpt>
      <trkpt lat="42.38286330364644527435302734375" lon="3.0563039146363735198974609375">
        <ele>135</ele>
        <time>2020-08-07T12:25:33.000Z</time>
      </trkpt>
      <trkpt lat="42.38304267637431621551513671875" lon="3.0561480112373828887939453125">
        <ele>134.399993896484375</ele>
        <time>2020-08-07T12:25:35.000Z</time>
      </trkpt>
      <trkpt lat="42.38323411904275417327880859375" lon="3.05598380975425243377685546875">
        <ele>133.1999969482421875</ele>
        <time>2020-08-07T12:25:39.000Z</time>
      </trkpt>
      <trkpt lat="42.38343763165175914764404296875" lon="3.0558090470731258392333984375">
        <ele>132.399993896484375</ele>
        <time>2020-08-07T12:25:41.000Z</time>
      </trkpt>
      <trkpt lat="42.38350904546678066253662109375" lon="3.055746853351593017578125">
        <ele>132.1999969482421875</ele>
        <time>2020-08-07T12:25:42.000Z</time>
      </trkpt>
      <trkpt lat="42.38365891389548778533935546875" lon="3.0556209571659564971923828125">
        <ele>131.1999969482421875</ele>
        <time>2020-08-07T12:25:45.000Z</time>
      </trkpt>
      <trkpt lat="42.38390450365841388702392578125" lon="3.0554204620420932769775390625">
        <ele>129.8000030517578125</ele>
        <time>2020-08-07T12:25:47.000Z</time>
      </trkpt>
      <trkpt lat="42.38399217836558818817138671875" lon="3.0553524009883403778076171875">
        <ele>129.1999969482421875</ele>
        <time>2020-08-07T12:25:48.000Z</time>
      </trkpt>
      <trkpt lat="42.3841702938079833984375" lon="3.05520798079669475555419921875">
        <ele>128.399993896484375</ele>
        <time>2020-08-07T12:25:50.000Z</time>
      </trkpt>
      <trkpt lat="42.38435226492583751678466796875" lon="3.05505140684545040130615234375">
        <ele>127.1999969482421875</ele>
        <time>2020-08-07T12:25:52.000Z</time>
      </trkpt>
      <trkpt lat="42.384540773928165435791015625" lon="3.05489516817033290863037109375">
        <ele>126</ele>
        <time>2020-08-07T12:25:54.000Z</time>
      </trkpt>
      <trkpt lat="42.384540773928165435791015625" lon="3.05489516817033290863037109375">
        <ele>125.1999969482421875</ele>
        <time>2020-08-07T12:25:55.000Z</time>
      </trkpt>
      <trkpt lat="42.38473129458725452423095703125" lon="3.05473423562943935394287109375">
        <ele>124.59999847412109375</ele>
        <time>2020-08-07T12:25:56.000Z</time>
      </trkpt>
      <trkpt lat="42.3850244097411632537841796875" lon="3.054488562047481536865234375">
        <ele>123.1999969482421875</ele>
        <time>2020-08-07T12:25:59.000Z</time>
      </trkpt>
      <trkpt lat="42.38512440584599971771240234375" lon="3.05440667085349559783935546875">
        <ele>122</ele>
        <time>2020-08-07T12:26:01.000Z</time>
      </trkpt>
      <trkpt lat="42.38532406277954578399658203125" lon="3.0542349256575107574462890625">
        <ele>120.40000152587890625</ele>
        <time>2020-08-07T12:26:03.000Z</time>
      </trkpt>
      <trkpt lat="42.38562396727502346038818359375" lon="3.053972907364368438720703125">
        <ele>118.59999847412109375</ele>
        <time>2020-08-07T12:26:05.000Z</time>
      </trkpt>
      <trkpt lat="42.38572404719889163970947265625" lon="3.05388447828590869903564453125">
        <ele>117.40000152587890625</ele>
        <time>2020-08-07T12:26:07.000Z</time>
      </trkpt>
      <trkpt lat="42.385919429361820220947265625" lon="3.05371298454701900482177734375">
        <ele>116</ele>
        <time>2020-08-07T12:26:09.000Z</time>
      </trkpt>
      <trkpt lat="42.386219166219234466552734375" lon="3.0534530617296695709228515625">
        <ele>114.59999847412109375</ele>
        <time>2020-08-07T12:26:11.000Z</time>
      </trkpt>
      <trkpt lat="42.38632251508533954620361328125" lon="3.0533637106418609619140625">
        <ele>112.59999847412109375</ele>
        <time>2020-08-07T12:26:13.000Z</time>
      </trkpt>
      <trkpt lat="42.38653440959751605987548828125" lon="3.0531824938952922821044921875">
        <ele>111.1999969482421875</ele>
        <time>2020-08-07T12:26:15.000Z</time>
      </trkpt>
      <trkpt lat="42.386849485337734222412109375" lon="3.05292407982051372528076171875">
        <ele>109.59999847412109375</ele>
        <time>2020-08-07T12:26:17.000Z</time>
      </trkpt>
      <trkpt lat="42.3869411833584308624267578125" lon="3.05284881033003330230712890625">
        <ele>107.8000030517578125</ele>
        <time>2020-08-07T12:26:18.000Z</time>
      </trkpt>
      <trkpt lat="42.38710370846092700958251953125" lon="3.0526903085410594940185546875">
        <ele>106.40000152587890625</ele>
        <time>2020-08-07T12:26:20.000Z</time>
      </trkpt>
      <trkpt lat="42.3872285149991512298583984375" lon="3.05248520337045192718505859375">
        <ele>105.1999969482421875</ele>
        <time>2020-08-07T12:26:22.000Z</time>
      </trkpt>
      <trkpt lat="42.3873066343367099761962890625" lon="3.052267692983150482177734375">
        <ele>104.1999969482421875</ele>
        <time>2020-08-07T12:26:24.000Z</time>
      </trkpt>
      <trkpt lat="42.387375198304653167724609375" lon="3.052075915038585662841796875">
        <ele>103.1999969482421875</ele>
        <time>2020-08-07T12:26:26.000Z</time>
      </trkpt>
      <trkpt lat="42.387375198304653167724609375" lon="3.052075915038585662841796875">
        <ele>103</ele>
        <time>2020-08-07T12:26:27.000Z</time>
      </trkpt>
      <trkpt lat="42.38745658658444881439208984375" lon="3.05190534330904483795166015625">
        <ele>102.59999847412109375</ele>
        <time>2020-08-07T12:26:28.000Z</time>
      </trkpt>
      <trkpt lat="42.38754979334771633148193359375" lon="3.05175597779452800750732421875">
        <ele>102.40000152587890625</ele>
        <time>2020-08-07T12:26:31.000Z</time>
      </trkpt>
      <trkpt lat="42.3876531422138214111328125" lon="3.0516174249351024627685546875">
        <ele>102</ele>
        <time>2020-08-07T12:26:33.000Z</time>
      </trkpt>
      <trkpt lat="42.38775548525154590606689453125" lon="3.051505945622920989990234375">
        <ele>101.59999847412109375</ele>
        <time>2020-08-07T12:26:34.000Z</time>
      </trkpt>
      <trkpt lat="42.3878477700054645538330078125" lon="3.05141164921224117279052734375">
        <ele>101.40000152587890625</ele>
        <time>2020-08-07T12:26:36.000Z</time>
      </trkpt>
      <trkpt lat="42.38791356794536113739013671875" lon="3.05130335502326488494873046875">
        <ele>101.59999847412109375</ele>
        <time>2020-08-07T12:26:38.000Z</time>
      </trkpt>
      <trkpt lat="42.38795363344252109527587890625" lon="3.051186762750148773193359375">
        <ele>101.8000030517578125</ele>
        <time>2020-08-07T12:26:40.000Z</time>
      </trkpt>
      <trkpt lat="42.38796369172632694244384765625" lon="3.05112800560891628265380859375">
        <ele>101.8000030517578125</ele>
        <time>2020-08-07T12:26:41.000Z</time>
      </trkpt>
      <trkpt lat="42.38793049938976764678955078125" lon="3.05086414329707622528076171875">
        <ele>102.40000152587890625</ele>
        <time>2020-08-07T12:26:46.000Z</time>
      </trkpt>
      <trkpt lat="42.387863695621490478515625" lon="3.05052165873348712921142578125">
        <ele>103</ele>
        <time>2020-08-07T12:26:55.000Z</time>
      </trkpt>
      <trkpt lat="42.38784768618643283843994140625" lon="3.05044320411980152130126953125">
        <ele>103</ele>
        <time>2020-08-07T12:26:56.000Z</time>
      </trkpt>
      <trkpt lat="42.387767136096954345703125" lon="3.0502209998667240142822265625">
        <ele>103.59999847412109375</ele>
        <time>2020-08-07T12:27:03.000Z</time>
      </trkpt>
      <trkpt lat="42.38756873644888401031494140625" lon="3.049866445362567901611328125">
        <ele>104</ele>
        <time>2020-08-07T12:27:12.000Z</time>
      </trkpt>
      <trkpt lat="42.38737486302852630615234375" lon="3.04951851256191730499267578125">
        <ele>104.8000030517578125</ele>
        <time>2020-08-07T12:27:22.000Z</time>
      </trkpt>
      <trkpt lat="42.38724117167294025421142578125" lon="3.0492644570767879486083984375">
        <ele>105.40000152587890625</ele>
        <time>2020-08-07T12:27:29.000Z</time>
      </trkpt>
      <trkpt lat="42.38709884695708751678466796875" lon="3.04900084622204303741455078125">
        <ele>105.59999847412109375</ele>
        <time>2020-08-07T12:27:36.000Z</time>
      </trkpt>
      <trkpt lat="42.38690547645092010498046875" lon="3.04865400306880474090576171875">
        <ele>106.1999969482421875</ele>
        <time>2020-08-07T12:27:46.000Z</time>
      </trkpt>
      <trkpt lat="42.38687069155275821685791015625" lon="3.0485855229198932647705078125">
        <ele>106.40000152587890625</ele>
        <time>2020-08-07T12:27:49.000Z</time>
      </trkpt>
      <trkpt lat="42.386812604963779449462890625" lon="3.04835803806781768798828125">
        <ele>106.8000030517578125</ele>
        <time>2020-08-07T12:27:54.000Z</time>
      </trkpt>
      <trkpt lat="42.38674177788197994232177734375" lon="3.04803424514830112457275390625">
        <ele>106.8000030517578125</ele>
        <time>2020-08-07T12:28:03.000Z</time>
      </trkpt>
      <trkpt lat="42.38668897189199924468994140625" lon="3.0477949418127536773681640625">
        <ele>107.40000152587890625</ele>
        <time>2020-08-07T12:28:09.000Z</time>
      </trkpt>
      <trkpt lat="42.3866468109190464019775390625" lon="3.047610707581043243408203125">
        <ele>107.59999847412109375</ele>
        <time>2020-08-07T12:28:13.000Z</time>
      </trkpt>
      <trkpt lat="42.386603392660617828369140625" lon="3.04736419580876827239990234375">
        <ele>108.59999847412109375</ele>
        <time>2020-08-07T12:28:20.000Z</time>
      </trkpt>
      <trkpt lat="42.3865539394319057464599609375" lon="3.0471609346568584442138671875">
        <ele>109.40000152587890625</ele>
        <time>2020-08-07T12:28:27.000Z</time>
      </trkpt>
      <trkpt lat="42.38653600215911865234375" lon="3.0470563285052776336669921875">
        <ele>109.59999847412109375</ele>
        <time>2020-08-07T12:28:29.000Z</time>
      </trkpt>
      <trkpt lat="42.3865304701030254364013671875" lon="3.04688575677573680877685546875">
        <ele>110.40000152587890625</ele>
        <time>2020-08-07T12:28:34.000Z</time>
      </trkpt>
      <trkpt lat="42.38653927110135555267333984375" lon="3.04682523943483829498291015625">
        <ele>110.8000030517578125</ele>
        <time>2020-08-07T12:28:36.000Z</time>
      </trkpt>
      <trkpt lat="42.38658822141587734222412109375" lon="3.0466662347316741943359375">
        <ele>111.40000152587890625</ele>
        <time>2020-08-07T12:28:41.000Z</time>
      </trkpt>
      <trkpt lat="42.386606074869632720947265625" lon="3.04663782007992267608642578125">
        <ele>111.8000030517578125</ele>
        <time>2020-08-07T12:28:43.000Z</time>
      </trkpt>
      <trkpt lat="42.386719398200511932373046875" lon="3.04653036408126354217529296875">
        <ele>112.1999969482421875</ele>
        <time>2020-08-07T12:28:47.000Z</time>
      </trkpt>
      <trkpt lat="42.38687052391469478607177734375" lon="3.046413771808147430419921875">
        <ele>112.8000030517578125</ele>
        <time>2020-08-07T12:28:53.000Z</time>
      </trkpt>
      <trkpt lat="42.3869968391954898834228515625" lon="3.04632299579679965972900390625">
        <ele>113.1999969482421875</ele>
        <time>2020-08-07T12:28:58.000Z</time>
      </trkpt>
      <trkpt lat="42.38726891577243804931640625" lon="3.0461024679243564605712890625">
        <ele>113.8000030517578125</ele>
        <time>2020-08-07T12:29:09.000Z</time>
      </trkpt>
      <trkpt lat="42.3872915469110012054443359375" lon="3.0460860393941402435302734375">
        <ele>113.8000030517578125</ele>
        <time>2020-08-07T12:29:10.000Z</time>
      </trkpt>
      <trkpt lat="42.38739908672869205474853515625" lon="3.04598839022219181060791015625">
        <ele>114.1999969482421875</ele>
        <time>2020-08-07T12:29:15.000Z</time>
      </trkpt>
      <trkpt lat="42.3874494619667530059814453125" lon="3.0459539406001567840576171875">
        <ele>115.40000152587890625</ele>
        <time>2020-08-07T12:35:51.000Z</time>
      </trkpt>
      <trkpt lat="42.38744728267192840576171875" lon="3.0459532700479030609130859375">
        <ele>115.40000152587890625</ele>
        <time>2020-08-07T12:35:52.000Z</time>
      </trkpt>
      <trkpt lat="42.38747586496174335479736328125" lon="3.0459458939731121063232421875">
        <ele>115.40000152587890625</ele>
        <time>2020-08-07T12:36:00.000Z</time>
      </trkpt>
      <trkpt lat="42.38751836121082305908203125" lon="3.0459039844572544097900390625">
        <ele>115.59999847412109375</ele>
        <time>2020-08-07T12:36:04.000Z</time>
      </trkpt>
      <trkpt lat="42.38762187771499156951904296875" lon="3.04580449126660823822021484375">
        <ele>116</ele>
        <time>2020-08-07T12:36:10.000Z</time>
      </trkpt>
      <trkpt lat="42.38768088631331920623779296875" lon="3.04562428034842014312744140625">
        <ele>116.40000152587890625</ele>
        <time>2020-08-07T12:36:16.000Z</time>
      </trkpt>
      <trkpt lat="42.38768390379846096038818359375" lon="3.0455933511257171630859375">
        <ele>116.40000152587890625</ele>
        <time>2020-08-07T12:36:17.000Z</time>
      </trkpt>
      <trkpt lat="42.38765590824186801910400390625" lon="3.04550760425627231597900390625">
        <ele>116.8000030517578125</ele>
        <time>2020-08-07T12:36:20.000Z</time>
      </trkpt>
      <trkpt lat="42.38754057325422763824462890625" lon="3.04542663507163524627685546875">
        <ele>117.40000152587890625</ele>
        <time>2020-08-07T12:36:26.000Z</time>
      </trkpt>
      <trkpt lat="42.38751861266791820526123046875" lon="3.04542772471904754638671875">
        <ele>117.59999847412109375</ele>
        <time>2020-08-07T12:36:27.000Z</time>
      </trkpt>
      <trkpt lat="42.38740797154605388641357421875" lon="3.045399226248264312744140625">
        <ele>118.1999969482421875</ele>
        <time>2020-08-07T12:36:32.000Z</time>
      </trkpt>
      <trkpt lat="42.38733521662652492523193359375" lon="3.0453799478709697723388671875">
        <ele>118.59999847412109375</ele>
        <time>2020-08-07T12:36:35.000Z</time>
      </trkpt>
      <trkpt lat="42.38724402152001857757568359375" lon="3.04537315852940082550048828125">
        <ele>119.1999969482421875</ele>
        <time>2020-08-07T12:36:39.000Z</time>
      </trkpt>
      <trkpt lat="42.38713220693171024322509765625" lon="3.045361004769802093505859375">
        <ele>119.8000030517578125</ele>
        <time>2020-08-07T12:36:44.000Z</time>
      </trkpt>
      <trkpt lat="42.38706531934440135955810546875" lon="3.04534415714442729949951171875">
        <ele>120.1999969482421875</ele>
        <time>2020-08-07T12:36:47.000Z</time>
      </trkpt>
      <trkpt lat="42.38690438680350780487060546875" lon="3.04529118351638317108154296875">
        <ele>120.8000030517578125</ele>
        <time>2020-08-07T12:36:54.000Z</time>
      </trkpt>
      <trkpt lat="42.38683314062654972076416015625" lon="3.0452696420252323150634765625">
        <ele>121.1999969482421875</ele>
        <time>2020-08-07T12:36:57.000Z</time>
      </trkpt>
      <trkpt lat="42.38671797327697277069091796875" lon="3.04520987905561923980712890625">
        <ele>122</ele>
        <time>2020-08-07T12:37:02.000Z</time>
      </trkpt>
      <trkpt lat="42.3866312205791473388671875" lon="3.04515271447598934173583984375">
        <ele>122.1999969482421875</ele>
        <time>2020-08-07T12:37:06.000Z</time>
      </trkpt>
      <trkpt lat="42.3865214176476001739501953125" lon="3.04507358931005001068115234375">
        <ele>123.1999969482421875</ele>
        <time>2020-08-07T12:37:11.000Z</time>
      </trkpt>
      <trkpt lat="42.38649903796613216400146484375" lon="3.0450574122369289398193359375">
        <ele>123.40000152587890625</ele>
        <time>2020-08-07T12:37:12.000Z</time>
      </trkpt>
      <trkpt lat="42.3863906599581241607666015625" lon="3.04498541168868541717529296875">
        <ele>124.40000152587890625</ele>
        <time>2020-08-07T12:37:17.000Z</time>
      </trkpt>
      <trkpt lat="42.38633592613041400909423828125" lon="3.0449256487190723419189453125">
        <ele>125</ele>
        <time>2020-08-07T12:37:20.000Z</time>
      </trkpt>
      <trkpt lat="42.38623626530170440673828125" lon="3.04484576918184757232666015625">
        <ele>125.59999847412109375</ele>
        <time>2020-08-07T12:37:25.000Z</time>
      </trkpt>
      <trkpt lat="42.3861214332282543182373046875" lon="3.0447623692452907562255859375">
        <ele>126.59999847412109375</ele>
        <time>2020-08-07T12:37:31.000Z</time>
      </trkpt>
      <trkpt lat="42.38599780015647411346435546875" lon="3.0446282587945461273193359375">
        <ele>127.59999847412109375</ele>
        <time>2020-08-07T12:37:38.000Z</time>
      </trkpt>
      <trkpt lat="42.38588045351207256317138671875" lon="3.04448182694613933563232421875">
        <ele>128.8000030517578125</ele>
        <time>2020-08-07T12:37:45.000Z</time>
      </trkpt>
      <trkpt lat="42.38586285151541233062744140625" lon="3.0444587767124176025390625">
        <ele>129</ele>
        <time>2020-08-07T12:37:46.000Z</time>
      </trkpt>
      <trkpt lat="42.38571935333311557769775390625" lon="3.044263981282711029052734375">
        <ele>130</ele>
        <time>2020-08-07T12:37:54.000Z</time>
      </trkpt>
      <trkpt lat="42.3856835626065731048583984375" lon="3.04421276785433292388916015625">
        <ele>130.399993896484375</ele>
        <time>2020-08-07T12:37:57.000Z</time>
      </trkpt>
      <trkpt lat="42.38550477661192417144775390625" lon="3.04398662410676479339599609375">
        <ele>130.600006103515625</ele>
        <time>2020-08-07T12:38:05.000Z</time>
      </trkpt>
      <trkpt lat="42.38544107414782047271728515625" lon="3.04391068406403064727783203125">
        <ele>131</ele>
        <time>2020-08-07T12:38:09.000Z</time>
      </trkpt>
      <trkpt lat="42.385317273437976837158203125" lon="3.0437652580440044403076171875">
        <ele>131.1999969482421875</ele>
        <time>2020-08-07T12:38:14.000Z</time>
      </trkpt>
      <trkpt lat="42.38517411053180694580078125" lon="3.04358798079192638397216796875">
        <ele>131.399993896484375</ele>
        <time>2020-08-07T12:38:21.000Z</time>
      </trkpt>
      <trkpt lat="42.3850648105144500732421875" lon="3.04342470131814479827880859375">
        <ele>132</ele>
        <time>2020-08-07T12:38:27.000Z</time>
      </trkpt>
      <trkpt lat="42.3850297741591930389404296875" lon="3.043365776538848876953125">
        <ele>132.1999969482421875</ele>
        <time>2020-08-07T12:38:29.000Z</time>
      </trkpt>
      <trkpt lat="42.38488887436687946319580078125" lon="3.04307299666106700897216796875">
        <ele>131.8000030517578125</ele>
        <time>2020-08-07T12:38:37.000Z</time>
      </trkpt>
      <trkpt lat="42.38478627987205982208251953125" lon="3.04279941134154796600341796875">
        <ele>131</ele>
        <time>2020-08-07T12:38:42.000Z</time>
      </trkpt>
      <trkpt lat="42.38477253355085849761962890625" lon="3.04273721762001514434814453125">
        <ele>131</ele>
        <time>2020-08-07T12:38:43.000Z</time>
      </trkpt>
      <trkpt lat="42.3846532590687274932861328125" lon="3.04220748133957386016845703125">
        <ele>130.1999969482421875</ele>
        <time>2020-08-07T12:38:51.000Z</time>
      </trkpt>
      <trkpt lat="42.3846046440303325653076171875" lon="3.042061217129230499267578125">
        <ele>130</ele>
        <time>2020-08-07T12:38:53.000Z</time>
      </trkpt>
      <trkpt lat="42.38451437093317508697509765625" lon="3.041750751435756683349609375">
        <ele>128.600006103515625</ele>
        <time>2020-08-07T12:38:57.000Z</time>
      </trkpt>
      <trkpt lat="42.38443742506206035614013671875" lon="3.0414837040007114410400390625">
        <ele>127.59999847412109375</ele>
        <time>2020-08-07T12:39:00.000Z</time>
      </trkpt>
      <trkpt lat="42.3843528516590595245361328125" lon="3.041176088154315948486328125">
        <ele>126.1999969482421875</ele>
        <time>2020-08-07T12:39:03.000Z</time>
      </trkpt>
      <trkpt lat="42.384301386773586273193359375" lon="3.040950112044811248779296875">
        <ele>125.1999969482421875</ele>
        <time>2020-08-07T12:39:05.000Z</time>
      </trkpt>
      <trkpt lat="42.38420658744871616363525390625" lon="3.04060670547187328338623046875">
        <ele>123.8000030517578125</ele>
        <time>2020-08-07T12:39:08.000Z</time>
      </trkpt>
      <trkpt lat="42.3841664381325244903564453125" lon="3.0404969863593578338623046875">
        <ele>123.40000152587890625</ele>
        <time>2020-08-07T12:39:09.000Z</time>
      </trkpt>
      <trkpt lat="42.384072728455066680908203125" lon="3.0403005145490169525146484375">
        <ele>122.40000152587890625</ele>
        <time>2020-08-07T12:39:11.000Z</time>
      </trkpt>
      <trkpt lat="42.3839863948523998260498046875" lon="3.04015609435737133026123046875">
        <ele>122</ele>
        <time>2020-08-07T12:39:13.000Z</time>
      </trkpt>
      <trkpt lat="42.38384566269814968109130859375" lon="3.03989223204553127288818359375">
        <ele>121.1999969482421875</ele>
        <time>2020-08-07T12:39:17.000Z</time>
      </trkpt>
      <trkpt lat="42.383741475641727447509765625" lon="3.0396869592368602752685546875">
        <ele>120.40000152587890625</ele>
        <time>2020-08-07T12:39:20.000Z</time>
      </trkpt>
      <trkpt lat="42.3836698941886425018310546875" lon="3.0395503342151641845703125">
        <ele>120.1999969482421875</ele>
        <time>2020-08-07T12:39:22.000Z</time>
      </trkpt>
      <trkpt lat="42.3834811337292194366455078125" lon="3.0391252040863037109375">
        <ele>119.40000152587890625</ele>
        <time>2020-08-07T12:39:28.000Z</time>
      </trkpt>
      <trkpt lat="42.3833855800330638885498046875" lon="3.038929738104343414306640625">
        <ele>119</ele>
        <time>2020-08-07T12:39:31.000Z</time>
      </trkpt>
      <trkpt lat="42.38324702717363834381103515625" lon="3.0386174283921718597412109375">
        <ele>118.59999847412109375</ele>
        <time>2020-08-07T12:39:36.000Z</time>
      </trkpt>
      <trkpt lat="42.3831103183329105377197265625" lon="3.038188777863979339599609375">
        <ele>118.40000152587890625</ele>
        <time>2020-08-07T12:39:43.000Z</time>
      </trkpt>
      <trkpt lat="42.38299456425011157989501953125" lon="3.037811927497386932373046875">
        <ele>118.1999969482421875</ele>
        <time>2020-08-07T12:39:49.000Z</time>
      </trkpt>
      <trkpt lat="42.3829738609492778778076171875" lon="3.03774763830006122589111328125">
        <ele>118.1999969482421875</ele>
        <time>2020-08-07T12:39:50.000Z</time>
      </trkpt>
      <trkpt lat="42.38281309604644775390625" lon="3.03725511766970157623291015625">
        <ele>117.1999969482421875</ele>
        <time>2020-08-07T12:39:57.000Z</time>
      </trkpt>
      <trkpt lat="42.38266624510288238525390625" lon="3.03675354458391666412353515625">
        <ele>115.8000030517578125</ele>
        <time>2020-08-07T12:40:03.000Z</time>
      </trkpt>
      <trkpt lat="42.382637076079845428466796875" lon="3.03665916435420513153076171875">
        <ele>115.1999969482421875</ele>
        <time>2020-08-07T12:40:04.000Z</time>
      </trkpt>
      <trkpt lat="42.38260463811457157135009765625" lon="3.03656092844903469085693359375">
        <ele>114.8000030517578125</ele>
        <time>2020-08-07T12:40:05.000Z</time>
      </trkpt>
      <trkpt lat="42.3825306259095668792724609375" lon="3.03635247051715850830078125">
        <ele>113.40000152587890625</ele>
        <time>2020-08-07T12:40:07.000Z</time>
      </trkpt>
      <trkpt lat="42.38244487904012203216552734375" lon="3.036132864654064178466796875">
        <ele>112.1999969482421875</ele>
        <time>2020-08-07T12:40:09.000Z</time>
      </trkpt>
      <trkpt lat="42.3822932504117488861083984375" lon="3.03579113446176052093505859375">
        <ele>110.59999847412109375</ele>
        <time>2020-08-07T12:40:12.000Z</time>
      </trkpt>
      <trkpt lat="42.3821873031556606292724609375" lon="3.03555191494524478912353515625">
        <ele>109.1999969482421875</ele>
        <time>2020-08-07T12:40:14.000Z</time>
      </trkpt>
      <trkpt lat="42.38213089294731616973876953125" lon="3.03542752750217914581298828125">
        <ele>108</ele>
        <time>2020-08-07T12:40:15.000Z</time>
      </trkpt>
      <trkpt lat="42.3820716328918933868408203125" lon="3.0352995358407497406005859375">
        <ele>107</ele>
        <time>2020-08-07T12:40:16.000Z</time>
      </trkpt>
      <trkpt lat="42.38201103173196315765380859375" lon="3.03516886197030544281005859375">
        <ele>105.8000030517578125</ele>
        <time>2020-08-07T12:40:17.000Z</time>
      </trkpt>
      <trkpt lat="42.381888739764690399169921875" lon="3.0348972044885158538818359375">
        <ele>104</ele>
        <time>2020-08-07T12:40:19.000Z</time>
      </trkpt>
      <trkpt lat="42.38182696513831615447998046875" lon="3.034757561981678009033203125">
        <ele>103</ele>
        <time>2020-08-07T12:40:20.000Z</time>
      </trkpt>
      <trkpt lat="42.38176477141678333282470703125" lon="3.03461515344679355621337890625">
        <ele>102</ele>
        <time>2020-08-07T12:40:21.000Z</time>
      </trkpt>
      <trkpt lat="42.38170291297137737274169921875" lon="3.03446997888386249542236328125">
        <ele>100.8000030517578125</ele>
        <time>2020-08-07T12:40:22.000Z</time>
      </trkpt>
      <trkpt lat="42.381641305983066558837890625" lon="3.03432363085448741912841796875">
        <ele>99</ele>
        <time>2020-08-07T12:40:23.000Z</time>
      </trkpt>
      <trkpt lat="42.38151566125452518463134765625" lon="3.03403127007186412811279296875">
        <ele>97.59999847412109375</ele>
        <time>2020-08-07T12:40:25.000Z</time>
      </trkpt>
      <trkpt lat="42.38145229406654834747314453125" lon="3.0338850058615207672119140625">
        <ele>96.59999847412109375</ele>
        <time>2020-08-07T12:40:26.000Z</time>
      </trkpt>
      <trkpt lat="42.3813263140618801116943359375" lon="3.033597171306610107421875">
        <ele>94.8000030517578125</ele>
        <time>2020-08-07T12:40:28.000Z</time>
      </trkpt>
      <trkpt lat="42.38119371235370635986328125" lon="3.0333177186548709869384765625">
        <ele>93.59999847412109375</ele>
        <time>2020-08-07T12:40:30.000Z</time>
      </trkpt>
      <trkpt lat="42.38106857053935527801513671875" lon="3.03305746056139469146728515625">
        <ele>92.40000152587890625</ele>
        <time>2020-08-07T12:40:32.000Z</time>
      </trkpt>
      <trkpt lat="42.38097536377608776092529296875" lon="3.0328563787043094635009765625">
        <ele>91.1999969482421875</ele>
        <time>2020-08-07T12:40:34.000Z</time>
      </trkpt>
      <trkpt lat="42.3808985017240047454833984375" lon="3.03262914530932903289794921875">
        <ele>89.8000030517578125</ele>
        <time>2020-08-07T12:40:37.000Z</time>
      </trkpt>
      <trkpt lat="42.38088500685989856719970703125" lon="3.03254566155374050140380859375">
        <ele>89.40000152587890625</ele>
        <time>2020-08-07T12:40:38.000Z</time>
      </trkpt>
      <trkpt lat="42.38087696023285388946533203125" lon="3.0323668755590915679931640625">
        <ele>88.40000152587890625</ele>
        <time>2020-08-07T12:40:40.000Z</time>
      </trkpt>
      <trkpt lat="42.38086514174938201904296875" lon="3.03218155167996883392333984375">
        <ele>88</ele>
        <time>2020-08-07T12:40:42.000Z</time>
      </trkpt>
      <trkpt lat="42.38084309734404087066650390625" lon="3.032092787325382232666015625">
        <ele>87.59999847412109375</ele>
        <time>2020-08-07T12:40:43.000Z</time>
      </trkpt>
      <trkpt lat="42.38081325776875019073486328125" lon="3.03201005794107913970947265625">
        <ele>87.1999969482421875</ele>
        <time>2020-08-07T12:40:44.000Z</time>
      </trkpt>
      <trkpt lat="42.38075491972267627716064453125" lon="3.03187862969934940338134765625">
        <ele>86.8000030517578125</ele>
        <time>2020-08-07T12:40:46.000Z</time>
      </trkpt>
      <trkpt lat="42.38073371350765228271484375" lon="3.03182934410870075225830078125">
        <ele>86.40000152587890625</ele>
        <time>2020-08-07T12:40:47.000Z</time>
      </trkpt>
      <trkpt lat="42.38071317784488201141357421875" lon="3.0317875184118747711181640625">
        <ele>86.1999969482421875</ele>
        <time>2020-08-07T12:40:48.000Z</time>
      </trkpt>
      <trkpt lat="42.38060136325657367706298828125" lon="3.0315967462956905364990234375">
        <ele>85.8000030517578125</ele>
        <time>2020-08-07T12:40:53.000Z</time>
      </trkpt>
      <trkpt lat="42.3804183863103389739990234375" lon="3.031338751316070556640625">
        <ele>85.1999969482421875</ele>
        <time>2020-08-07T12:40:59.000Z</time>
      </trkpt>
      <trkpt lat="42.380165420472621917724609375" lon="3.031043373048305511474609375">
        <ele>84.40000152587890625</ele>
        <time>2020-08-07T12:41:06.000Z</time>
      </trkpt>
      <trkpt lat="42.38012258894741535186767578125" lon="3.03100825287401676177978515625">
        <ele>84.1999969482421875</ele>
        <time>2020-08-07T12:41:07.000Z</time>
      </trkpt>
      <trkpt lat="42.38003231585025787353515625" lon="3.03093977272510528564453125">
        <ele>84</ele>
        <time>2020-08-07T12:41:09.000Z</time>
      </trkpt>
      <trkpt lat="42.3798846267163753509521484375" lon="3.0308390222489833831787109375">
        <ele>83.40000152587890625</ele>
        <time>2020-08-07T12:41:12.000Z</time>
      </trkpt>
      <trkpt lat="42.3797827027738094329833984375" lon="3.0307635851204395294189453125">
        <ele>83</ele>
        <time>2020-08-07T12:41:14.000Z</time>
      </trkpt>
      <trkpt lat="42.37958371639251708984375" lon="3.03059100173413753509521484375">
        <ele>81.8000030517578125</ele>
        <time>2020-08-07T12:41:18.000Z</time>
      </trkpt>
      <trkpt lat="42.379531748592853546142578125" lon="3.03055395372211933135986328125">
        <ele>81.59999847412109375</ele>
        <time>2020-08-07T12:41:19.000Z</time>
      </trkpt>
      <trkpt lat="42.37936721183359622955322265625" lon="3.0304737389087677001953125">
        <ele>81.1999969482421875</ele>
        <time>2020-08-07T12:41:22.000Z</time>
      </trkpt>
      <trkpt lat="42.379255481064319610595703125" lon="3.0304521135985851287841796875">
        <ele>81.1999969482421875</ele>
        <time>2020-08-07T12:41:24.000Z</time>
      </trkpt>
      <trkpt lat="42.37904903478920459747314453125" lon="3.0304308235645294189453125">
        <ele>80.8000030517578125</ele>
        <time>2020-08-07T12:41:28.000Z</time>
      </trkpt>
      <trkpt lat="42.3789696581661701202392578125" lon="3.03040877915918827056884765625">
        <ele>80.8000030517578125</ele>
        <time>2020-08-07T12:41:30.000Z</time>
      </trkpt>
      <trkpt lat="42.37891056574881076812744140625" lon="3.03037919104099273681640625">
        <ele>81</ele>
        <time>2020-08-07T12:41:33.000Z</time>
      </trkpt>
      <trkpt lat="42.37890637479722499847412109375" lon="3.03037139587104320526123046875">
        <ele>80.8000030517578125</ele>
        <time>2020-08-07T12:41:36.000Z</time>
      </trkpt>
      <trkpt lat="42.378906793892383575439453125" lon="3.03037223406136035919189453125">
        <ele>81.1999969482421875</ele>
        <time>2020-08-07T12:41:40.000Z</time>
      </trkpt>
      <trkpt lat="42.37890637479722499847412109375" lon="3.03037206642329692840576171875">
        <ele>81</ele>
        <time>2020-08-07T12:42:00.000Z</time>
      </trkpt>
      <trkpt lat="42.3789059557020664215087890625" lon="3.030371479690074920654296875">
        <ele>80.59999847412109375</ele>
        <time>2020-08-07T12:42:34.000Z</time>
      </trkpt>
      <trkpt lat="42.37890637479722499847412109375" lon="3.0303719826042652130126953125">
        <ele>80.59999847412109375</ele>
        <time>2020-08-07T12:42:56.000Z</time>
      </trkpt>
      <trkpt lat="42.37890620715916156768798828125" lon="3.03037114441394805908203125">
        <ele>80.40000152587890625</ele>
        <time>2020-08-07T12:43:26.000Z</time>
      </trkpt>
      <trkpt lat="42.37888324074447154998779296875" lon="3.03036703728139400482177734375">
        <ele>80.1999969482421875</ele>
        <time>2020-08-07T12:43:42.000Z</time>
      </trkpt>
      <trkpt lat="42.378774695098400115966796875" lon="3.0303250439465045928955078125">
        <ele>80.1999969482421875</ele>
        <time>2020-08-07T12:43:47.000Z</time>
      </trkpt>
      <trkpt lat="42.3787480406463146209716796875" lon="3.03026259876787662506103515625">
        <ele>80.1999969482421875</ele>
        <time>2020-08-07T12:43:49.000Z</time>
      </trkpt>
      <trkpt lat="42.37875583581626415252685546875" lon="3.03019437007606029510498046875">
        <ele>80.1999969482421875</ele>
        <time>2020-08-07T12:43:51.000Z</time>
      </trkpt>
      <trkpt lat="42.3787991702556610107421875" lon="3.030104935169219970703125">
        <ele>80.8000030517578125</ele>
        <time>2020-08-07T12:43:56.000Z</time>
      </trkpt>
      <trkpt lat="42.37879858352243900299072265625" lon="3.03010828793048858642578125">
        <ele>80.59999847412109375</ele>
        <time>2020-08-07T12:44:25.000Z</time>
      </trkpt>
      <trkpt lat="42.3787993378937244415283203125" lon="3.03010694682598114013671875">
        <ele>80.8000030517578125</ele>
        <time>2020-08-07T12:44:37.000Z</time>
      </trkpt>
      <trkpt lat="42.37880880944430828094482421875" lon="3.0300648696720600128173828125">
        <ele>80.8000030517578125</ele>
        <time>2020-08-07T12:45:10.000Z</time>
      </trkpt>
      <trkpt lat="42.3788144253194332122802734375" lon="3.03004718385636806488037109375">
        <ele>80.59999847412109375</ele>
        <time>2020-08-07T12:45:11.000Z</time>
      </trkpt>
      <trkpt lat="42.378894388675689697265625" lon="3.02987485192716121673583984375">
        <ele>81.1999969482421875</ele>
        <time>2020-08-07T12:45:19.000Z</time>
      </trkpt>
      <trkpt lat="42.37896186299622058868408203125" lon="3.02970218472182750701904296875">
        <ele>81.8000030517578125</ele>
        <time>2020-08-07T12:45:26.000Z</time>
      </trkpt>
      <trkpt lat="42.37896211445331573486328125" lon="3.029676787555217742919921875">
        <ele>81.8000030517578125</ele>
        <time>2020-08-07T12:45:27.000Z</time>
      </trkpt>
      <trkpt lat="42.37893118523061275482177734375" lon="3.02961098961532115936279296875">
        <ele>82</ele>
        <time>2020-08-07T12:45:30.000Z</time>
      </trkpt>
      <trkpt lat="42.37885189242660999298095703125" lon="3.02953555248677730560302734375">
        <ele>82.40000152587890625</ele>
        <time>2020-08-07T12:45:35.000Z</time>
      </trkpt>
      <trkpt lat="42.37883814610540866851806640625" lon="3.02951753139495849609375">
        <ele>82.59999847412109375</ele>
        <time>2020-08-07T12:45:36.000Z</time>
      </trkpt>
      <trkpt lat="42.378823645412921905517578125" lon="3.0295039527118206024169921875">
        <ele>82.8000030517578125</ele>
        <time>2020-08-07T12:45:37.000Z</time>
      </trkpt>
      <trkpt lat="42.37876337952911853790283203125" lon="3.02947201766073703765869140625">
        <ele>83.8000030517578125</ele>
        <time>2020-08-07T12:45:41.000Z</time>
      </trkpt>
      <trkpt lat="42.37868811003863811492919921875" lon="3.0294003523886203765869140625">
        <ele>84.40000152587890625</ele>
        <time>2020-08-07T12:45:46.000Z</time>
      </trkpt>
      <trkpt lat="42.37861116416752338409423828125" lon="3.02933271043002605438232421875">
        <ele>84.8000030517578125</ele>
        <time>2020-08-07T12:45:51.000Z</time>
      </trkpt>
      <trkpt lat="42.37854528240859508514404296875" lon="3.02927001379430294036865234375">
        <ele>85.59999847412109375</ele>
        <time>2020-08-07T12:45:56.000Z</time>
      </trkpt>
      <trkpt lat="42.37851594574749469757080078125" lon="3.02924620918929576873779296875">
        <ele>86</ele>
        <time>2020-08-07T12:45:58.000Z</time>
      </trkpt>
      <trkpt lat="42.37846531905233860015869140625" lon="3.02919206209480762481689453125">
        <ele>87</ele>
        <time>2020-08-07T12:46:02.000Z</time>
      </trkpt>
      <trkpt lat="42.3784513212740421295166015625" lon="3.02918049506843090057373046875">
        <ele>87.1999969482421875</ele>
        <time>2020-08-07T12:46:03.000Z</time>
      </trkpt>
      <trkpt lat="42.37839608453214168548583984375" lon="3.02913422696292400360107421875">
        <ele>88</ele>
        <time>2020-08-07T12:46:08.000Z</time>
      </trkpt>
      <trkpt lat="42.37838569097220897674560546875" lon="3.02912299521267414093017578125">
        <ele>88.1999969482421875</ele>
        <time>2020-08-07T12:46:09.000Z</time>
      </trkpt>
      <trkpt lat="42.37833824940025806427001953125" lon="3.02907488308846950531005859375">
        <ele>88.8000030517578125</ele>
        <time>2020-08-07T12:46:13.000Z</time>
      </trkpt>
      <trkpt lat="42.37828896380960941314697265625" lon="3.0290345661342144012451171875">
        <ele>89.59999847412109375</ele>
        <time>2020-08-07T12:46:17.000Z</time>
      </trkpt>
      <trkpt lat="42.3782655782997608184814453125" lon="3.0290065705776214599609375">
        <ele>90</ele>
        <time>2020-08-07T12:46:19.000Z</time>
      </trkpt>
      <trkpt lat="42.378230877220630645751953125" lon="3.0288800038397312164306640625">
        <ele>90.59999847412109375</ele>
        <time>2020-08-07T12:46:25.000Z</time>
      </trkpt>
      <trkpt lat="42.37823314033448696136474609375" lon="3.02870943211019039154052734375">
        <ele>91</ele>
        <time>2020-08-07T12:46:31.000Z</time>
      </trkpt>
      <trkpt lat="42.378227524459362030029296875" lon="3.028637431561946868896484375">
        <ele>91.59999847412109375</ele>
        <time>2020-08-07T12:46:34.000Z</time>
      </trkpt>
      <trkpt lat="42.37822643481194972991943359375" lon="3.028610609471797943115234375">
        <ele>91.8000030517578125</ele>
        <time>2020-08-07T12:46:35.000Z</time>
      </trkpt>
      <trkpt lat="42.3782256804406642913818359375" lon="3.02858504466712474822998046875">
        <ele>92</ele>
        <time>2020-08-07T12:46:36.000Z</time>
      </trkpt>
      <trkpt lat="42.3781690187752246856689453125" lon="3.02843685261905193328857421875">
        <ele>92.59999847412109375</ele>
        <time>2020-08-07T12:46:43.000Z</time>
      </trkpt>
      <trkpt lat="42.378177903592586517333984375" lon="3.0283935181796550750732421875">
        <ele>93</ele>
        <time>2020-08-07T12:46:46.000Z</time>
      </trkpt>
      <trkpt lat="42.3781924881041049957275390625" lon="3.02839024923741817474365234375">
        <ele>93</ele>
        <time>2020-08-07T12:46:47.000Z</time>
      </trkpt>
      <trkpt lat="42.37830555997788906097412109375" lon="3.028363846242427825927734375">
        <ele>94</ele>
        <time>2020-08-07T12:46:54.000Z</time>
      </trkpt>
      <trkpt lat="42.378381080925464630126953125" lon="3.028342723846435546875">
        <ele>95.1999969482421875</ele>
        <time>2020-08-07T12:46:59.000Z</time>
      </trkpt>
      <trkpt lat="42.37839072011411190032958984375" lon="3.028346411883831024169921875">
        <ele>95.59999847412109375</ele>
        <time>2020-08-07T12:47:00.000Z</time>
      </trkpt>
      <trkpt lat="42.37845811061561107635498046875" lon="3.02830316126346588134765625">
        <ele>96.40000152587890625</ele>
        <time>2020-08-07T12:47:06.000Z</time>
      </trkpt>
      <trkpt lat="42.37847688607871532440185546875" lon="3.02829670719802379608154296875">
        <ele>96.8000030517578125</ele>
        <time>2020-08-07T12:47:08.000Z</time>
      </trkpt>
      <trkpt lat="42.37850169651210308074951171875" lon="3.0283789336681365966796875">
        <ele>97.59999847412109375</ele>
        <time>2020-08-07T12:47:13.000Z</time>
      </trkpt>
      <trkpt lat="42.37851443700492382049560546875" lon="3.0284069292247295379638671875">
        <ele>97.8000030517578125</ele>
        <time>2020-08-07T12:47:15.000Z</time>
      </trkpt>
      <trkpt lat="42.37858920358121395111083984375" lon="3.02841983735561370849609375">
        <ele>99</ele>
        <time>2020-08-07T12:47:20.000Z</time>
      </trkpt>
      <trkpt lat="42.37860311754047870635986328125" lon="3.0284243635833263397216796875">
        <ele>99.1999969482421875</ele>
        <time>2020-08-07T12:47:21.000Z</time>
      </trkpt>
      <trkpt lat="42.3786420933902263641357421875" lon="3.02841983735561370849609375">
        <ele>100</ele>
        <time>2020-08-07T12:47:24.000Z</time>
      </trkpt>
      <trkpt lat="42.3786677420139312744140625" lon="3.028393685817718505859375">
        <ele>100.59999847412109375</ele>
        <time>2020-08-07T12:47:27.000Z</time>
      </trkpt>
      <trkpt lat="42.37869548611342906951904296875" lon="3.02833710797131061553955078125">
        <ele>101.1999969482421875</ele>
        <time>2020-08-07T12:47:32.000Z</time>
      </trkpt>
      <trkpt lat="42.3786954022943973541259765625" lon="3.028320930898189544677734375">
        <ele>101.1999969482421875</ele>
        <time>2020-08-07T12:47:33.000Z</time>
      </trkpt>
      <trkpt lat="42.3786886967718601226806640625" lon="3.028290085494518280029296875">
        <ele>101.40000152587890625</ele>
        <time>2020-08-07T12:47:35.000Z</time>
      </trkpt>
      <trkpt lat="42.37866112031042575836181640625" lon="3.0281276442110538482666015625">
        <ele>102</ele>
        <time>2020-08-07T12:47:44.000Z</time>
      </trkpt>
      <trkpt lat="42.37864888273179531097412109375" lon="3.0280817113816738128662109375">
        <ele>102.1999969482421875</ele>
        <time>2020-08-07T12:47:46.000Z</time>
      </trkpt>
      <trkpt lat="42.37860362045466899871826171875" lon="3.02798992954194545745849609375">
        <ele>102.59999847412109375</ele>
        <time>2020-08-07T12:47:51.000Z</time>
      </trkpt>
      <trkpt lat="42.3786182887852191925048828125" lon="3.027916252613067626953125">
        <ele>102.8000030517578125</ele>
        <time>2020-08-07T12:47:55.000Z</time>
      </trkpt>
      <trkpt lat="42.37863396294414997100830078125" lon="3.027903847396373748779296875">
        <ele>102.8000030517578125</ele>
        <time>2020-08-07T12:47:56.000Z</time>
      </trkpt>
      <trkpt lat="42.37877779640257358551025390625" lon="3.0278258956968784332275390625">
        <ele>103.1999969482421875</ele>
        <time>2020-08-07T12:48:04.000Z</time>
      </trkpt>
      <trkpt lat="42.378869242966175079345703125" lon="3.02776747383177280426025390625">
        <ele>104</ele>
        <time>2020-08-07T12:48:10.000Z</time>
      </trkpt>
      <trkpt lat="42.3788928799331188201904296875" lon="3.0277444235980510711669921875">
        <ele>104.1999969482421875</ele>
        <time>2020-08-07T12:48:12.000Z</time>
      </trkpt>
      <trkpt lat="42.37897678278386592864990234375" lon="3.02767963148653507232666015625">
        <ele>104.1999969482421875</ele>
        <time>2020-08-07T12:48:16.000Z</time>
      </trkpt>
      <trkpt lat="42.3790102265775203704833984375" lon="3.027656413614749908447265625">
        <ele>104.1999969482421875</ele>
        <time>2020-08-07T12:48:17.000Z</time>
      </trkpt>
      <trkpt lat="42.379110641777515411376953125" lon="3.0275972373783588409423828125">
        <ele>103.59999847412109375</ele>
        <time>2020-08-07T12:48:20.000Z</time>
      </trkpt>
      <trkpt lat="42.37917141057550907135009765625" lon="3.02757561206817626953125">
        <ele>103.59999847412109375</ele>
        <time>2020-08-07T12:48:23.000Z</time>
      </trkpt>
      <trkpt lat="42.3791865818202495574951171875" lon="3.02756748162209987640380859375">
        <ele>103.8000030517578125</ele>
        <time>2020-08-07T12:48:24.000Z</time>
      </trkpt>
      <trkpt lat="42.37928305752575397491455078125" lon="3.0275130830705165863037109375">
        <ele>105</ele>
        <time>2020-08-07T12:48:30.000Z</time>
      </trkpt>
      <trkpt lat="42.3792992345988750457763671875" lon="3.0275000073015689849853515625">
        <ele>105.59999847412109375</ele>
        <time>2020-08-07T12:48:31.000Z</time>
      </trkpt>
      <trkpt lat="42.3793582431972026824951171875" lon="3.0274591036140918731689453125">
        <ele>106.8000030517578125</ele>
        <time>2020-08-07T12:48:35.000Z</time>
      </trkpt>
      <trkpt lat="42.3794018290936946868896484375" lon="3.0274269171059131622314453125">
        <ele>107.40000152587890625</ele>
        <time>2020-08-07T12:48:38.000Z</time>
      </trkpt>
      <trkpt lat="42.3794363625347614288330078125" lon="3.02733832038938999176025390625">
        <ele>108</ele>
        <time>2020-08-07T12:48:42.000Z</time>
      </trkpt>
      <trkpt lat="42.37945429980754852294921875" lon="3.02731501869857311248779296875">
        <ele>108.8000030517578125</ele>
        <time>2020-08-07T12:48:44.000Z</time>
      </trkpt>
      <trkpt lat="42.37947768531739711761474609375" lon="3.02728316746652126312255859375">
        <ele>109</ele>
        <time>2020-08-07T12:48:46.000Z</time>
      </trkpt>
      <trkpt lat="42.379524372518062591552734375" lon="3.0272116698324680328369140625">
        <ele>109.8000030517578125</ele>
        <time>2020-08-07T12:48:50.000Z</time>
      </trkpt>
      <trkpt lat="42.3795325867831707000732421875" lon="3.027193062007427215576171875">
        <ele>110</ele>
        <time>2020-08-07T12:48:51.000Z</time>
      </trkpt>
      <trkpt lat="42.37956686876714229583740234375" lon="3.0271424353122711181640625">
        <ele>110.1999969482421875</ele>
        <time>2020-08-07T12:48:54.000Z</time>
      </trkpt>
      <trkpt lat="42.37964607775211334228515625" lon="3.02706129848957061767578125">
        <ele>110.59999847412109375</ele>
        <time>2020-08-07T12:48:59.000Z</time>
      </trkpt>
      <trkpt lat="42.3797542043030261993408203125" lon="3.0270163714885711669921875">
        <ele>110.8000030517578125</ele>
        <time>2020-08-07T12:49:05.000Z</time>
      </trkpt>
      <trkpt lat="42.37975110299885272979736328125" lon="3.0269930697977542877197265625">
        <ele>110.8000030517578125</ele>
        <time>2020-08-07T12:49:10.000Z</time>
      </trkpt>
      <trkpt lat="42.37971439026296138763427734375" lon="3.02699432708323001861572265625">
        <ele>110.8000030517578125</ele>
        <time>2020-08-07T12:49:13.000Z</time>
      </trkpt>
      <trkpt lat="42.37969167530536651611328125" lon="3.0269776470959186553955078125">
        <ele>110.59999847412109375</ele>
        <time>2020-08-07T12:49:15.000Z</time>
      </trkpt>
      <trkpt lat="42.379681952297687530517578125" lon="3.02692576311528682708740234375">
        <ele>110.40000152587890625</ele>
        <time>2020-08-07T12:49:20.000Z</time>
      </trkpt>
      <trkpt lat="42.37968631088733673095703125" lon="3.0269229970872402191162109375">
        <ele>110.59999847412109375</ele>
        <time>2020-08-07T12:49:30.000Z</time>
      </trkpt>
      <trkpt lat="42.379687316715717315673828125" lon="3.0269246734678745269775390625">
        <ele>110.8000030517578125</ele>
        <time>2020-08-07T12:49:39.000Z</time>
      </trkpt>
      <trkpt lat="42.37969100475311279296875" lon="3.02693045698106288909912109375">
        <ele>110.59999847412109375</ele>
        <time>2020-08-07T12:50:22.000Z</time>
      </trkpt>
      <trkpt lat="42.37969142384827136993408203125" lon="3.0269305408000946044921875">
        <ele>110.59999847412109375</ele>
        <time>2020-08-07T12:50:23.000Z</time>
      </trkpt>
      <trkpt lat="42.37971313297748565673828125" lon="3.02697404287755489349365234375">
        <ele>110.59999847412109375</ele>
        <time>2020-08-07T12:50:30.000Z</time>
      </trkpt>
      <trkpt lat="42.3797173239290714263916015625" lon="3.02699969150125980377197265625">
        <ele>110.8000030517578125</ele>
        <time>2020-08-07T12:50:37.000Z</time>
      </trkpt>
      <trkpt lat="42.37974121235311031341552734375" lon="3.027027435600757598876953125">
        <ele>110.8000030517578125</ele>
        <time>2020-08-07T12:50:41.000Z</time>
      </trkpt>
      <trkpt lat="42.37983223982155323028564453125" lon="3.02699868567287921905517578125">
        <ele>111</ele>
        <time>2020-08-07T12:50:46.000Z</time>
      </trkpt>
      <trkpt lat="42.37990046851336956024169921875" lon="3.02699667401611804962158203125">
        <ele>111.1999969482421875</ele>
        <time>2020-08-07T12:50:49.000Z</time>
      </trkpt>
      <trkpt lat="42.379962913691997528076171875" lon="3.02699960768222808837890625">
        <ele>112</ele>
        <time>2020-08-07T12:50:52.000Z</time>
      </trkpt>
      <trkpt lat="42.37998244352638721466064453125" lon="3.02700891159474849700927734375">
        <ele>112.59999847412109375</ele>
        <time>2020-08-07T12:50:53.000Z</time>
      </trkpt>
      <trkpt lat="42.3800784163177013397216796875" lon="3.0270467139780521392822265625">
        <ele>113.8000030517578125</ele>
        <time>2020-08-07T12:50:58.000Z</time>
      </trkpt>
      <trkpt lat="42.380096353590488433837890625" lon="3.02705065347254276275634765625">
        <ele>114</ele>
        <time>2020-08-07T12:50:59.000Z</time>
      </trkpt>
      <trkpt lat="42.38021194003522396087646484375" lon="3.027052581310272216796875">
        <ele>114.8000030517578125</ele>
        <time>2020-08-07T12:51:05.000Z</time>
      </trkpt>
      <trkpt lat="42.38034253008663654327392578125" lon="3.02703875117003917694091796875">
        <ele>115.8000030517578125</ele>
        <time>2020-08-07T12:51:12.000Z</time>
      </trkpt>
      <trkpt lat="42.3803841881453990936279296875" lon="3.0270366556942462921142578125">
        <ele>116</ele>
        <time>2020-08-07T12:51:14.000Z</time>
      </trkpt>
      <trkpt lat="42.38053179346024990081787109375" lon="3.0270557664334774017333984375">
        <ele>117</ele>
        <time>2020-08-07T12:51:21.000Z</time>
      </trkpt>
      <trkpt lat="42.38069037906825542449951171875" lon="3.02713531069457530975341796875">
        <ele>118</ele>
        <time>2020-08-07T12:51:29.000Z</time>
      </trkpt>
      <trkpt lat="42.38084108568727970123291015625" lon="3.02723228931427001953125">
        <ele>119</ele>
        <time>2020-08-07T12:51:37.000Z</time>
      </trkpt>
      <trkpt lat="42.3810027725994586944580078125" lon="3.02725785411894321441650390625">
        <ele>120</ele>
        <time>2020-08-07T12:51:45.000Z</time>
      </trkpt>
      <trkpt lat="42.38115054555237293243408203125" lon="3.02725617773830890655517578125">
        <ele>121.40000152587890625</ele>
        <time>2020-08-07T12:51:52.000Z</time>
      </trkpt>
      <trkpt lat="42.38123989664018154144287109375" lon="3.0272622965276241302490234375">
        <ele>122.40000152587890625</ele>
        <time>2020-08-07T12:51:57.000Z</time>
      </trkpt>
      <trkpt lat="42.3812884278595447540283203125" lon="3.02727126516401767730712890625">
        <ele>123</ele>
        <time>2020-08-07T12:52:00.000Z</time>
      </trkpt>
      <trkpt lat="42.38135925494134426116943359375" lon="3.02726422436535358428955078125">
        <ele>123.40000152587890625</ele>
        <time>2020-08-07T12:52:04.000Z</time>
      </trkpt>
      <trkpt lat="42.38139621913433074951171875" lon="3.027255423367023468017578125">
        <ele>123.59999847412109375</ele>
        <time>2020-08-07T12:52:06.000Z</time>
      </trkpt>
      <trkpt lat="42.38158129155635833740234375" lon="3.0272002704441547393798828125">
        <ele>124.1999969482421875</ele>
        <time>2020-08-07T12:52:15.000Z</time>
      </trkpt>
      <trkpt lat="42.38160316832363605499267578125" lon="3.02719314582645893096923828125">
        <ele>124.40000152587890625</ele>
        <time>2020-08-07T12:52:16.000Z</time>
      </trkpt>
      <trkpt lat="42.381787486374378204345703125" lon="3.0271315388381481170654296875">
        <ele>125.40000152587890625</ele>
        <time>2020-08-07T12:52:25.000Z</time>
      </trkpt>
      <trkpt lat="42.38182830624282360076904296875" lon="3.02712676115334033966064453125">
        <ele>125.59999847412109375</ele>
        <time>2020-08-07T12:52:27.000Z</time>
      </trkpt>
      <trkpt lat="42.3819673620164394378662109375" lon="3.02710697986185550689697265625">
        <ele>126.59999847412109375</ele>
        <time>2020-08-07T12:52:34.000Z</time>
      </trkpt>
      <trkpt lat="42.3820086009800434112548828125" lon="3.02710530348122119903564453125">
        <ele>126.8000030517578125</ele>
        <time>2020-08-07T12:52:36.000Z</time>
      </trkpt>
      <trkpt lat="42.3821390233933925628662109375" lon="3.02708954550325870513916015625">
        <ele>127.8000030517578125</ele>
        <time>2020-08-07T12:52:43.000Z</time>
      </trkpt>
      <trkpt lat="42.38215737976133823394775390625" lon="3.0270916409790515899658203125">
        <ele>128</ele>
        <time>2020-08-07T12:52:44.000Z</time>
      </trkpt>
      <trkpt lat="42.38223197869956493377685546875" lon="3.02707714028656482696533203125">
        <ele>129</ele>
        <time>2020-08-07T12:52:48.000Z</time>
      </trkpt>
      <trkpt lat="42.38229903392493724822998046875" lon="3.0270678363740444183349609375">
        <ele>129.1999969482421875</ele>
        <time>2020-08-07T12:52:52.000Z</time>
      </trkpt>
      <trkpt lat="42.3823991976678371429443359375" lon="3.027058951556682586669921875">
        <ele>130.1999969482421875</ele>
        <time>2020-08-07T12:52:58.000Z</time>
      </trkpt>
      <trkpt lat="42.38241537474095821380615234375" lon="3.02705836482346057891845703125">
        <ele>130.399993896484375</ele>
        <time>2020-08-07T12:52:59.000Z</time>
      </trkpt>
      <trkpt lat="42.38251126371324062347412109375" lon="3.02705870009958744049072265625">
        <ele>131.1999969482421875</ele>
        <time>2020-08-07T12:53:05.000Z</time>
      </trkpt>
      <trkpt lat="42.382539846003055572509765625" lon="3.02705216221511363983154296875">
        <ele>131.600006103515625</ele>
        <time>2020-08-07T12:53:07.000Z</time>
      </trkpt>
      <trkpt lat="42.38256658427417278289794921875" lon="3.02704579196870326995849609375">
        <ele>132.399993896484375</ele>
        <time>2020-08-07T12:53:09.000Z</time>
      </trkpt>
      <trkpt lat="42.38262911327183246612548828125" lon="3.02706138230860233306884765625">
        <ele>133</ele>
        <time>2020-08-07T12:53:13.000Z</time>
      </trkpt>
      <trkpt lat="42.38266146741807460784912109375" lon="3.02704528905451297760009765625">
        <ele>133.399993896484375</ele>
        <time>2020-08-07T12:53:15.000Z</time>
      </trkpt>
      <trkpt lat="42.3827163688838481903076171875" lon="3.0270514078438282012939453125">
        <ele>134</ele>
        <time>2020-08-07T12:53:18.000Z</time>
      </trkpt>
      <trkpt lat="42.38276548683643341064453125" lon="3.02702617831528186798095703125">
        <ele>134.600006103515625</ele>
        <time>2020-08-07T12:53:21.000Z</time>
      </trkpt>
      <trkpt lat="42.38279767334461212158203125" lon="3.02703841589391231536865234375">
        <ele>135</ele>
        <time>2020-08-07T12:53:23.000Z</time>
      </trkpt>
      <trkpt lat="42.38281301222741603851318359375" lon="3.02704193629324436187744140625">
        <ele>135.1999969482421875</ele>
        <time>2020-08-07T12:53:24.000Z</time>
      </trkpt>
      <trkpt lat="42.38284503109753131866455078125" lon="3.0270286090672016143798828125">
        <ele>135.600006103515625</ele>
        <time>2020-08-07T12:53:26.000Z</time>
      </trkpt>
      <trkpt lat="42.382876463234424591064453125" lon="3.027018047869205474853515625">
        <ele>136</ele>
        <time>2020-08-07T12:53:28.000Z</time>
      </trkpt>
      <trkpt lat="42.3829257488250732421875" lon="3.02703020162880420684814453125">
        <ele>136.600006103515625</ele>
        <time>2020-08-07T12:53:31.000Z</time>
      </trkpt>
      <trkpt lat="42.3829852603375911712646484375" lon="3.02703204564750194549560546875">
        <ele>137.399993896484375</ele>
        <time>2020-08-07T12:53:35.000Z</time>
      </trkpt>
      <trkpt lat="42.383017949759960174560546875" lon="3.02702383138239383697509765625">
        <ele>137.600006103515625</ele>
        <time>2020-08-07T12:53:37.000Z</time>
      </trkpt>
      <trkpt lat="42.38303613848984241485595703125" lon="3.02702508866786956787109375">
        <ele>137.8000030517578125</ele>
        <time>2020-08-07T12:53:38.000Z</time>
      </trkpt>
      <trkpt lat="42.38310637883841991424560546875" lon="3.0270029604434967041015625">
        <ele>138.399993896484375</ele>
        <time>2020-08-07T12:53:42.000Z</time>
      </trkpt>
      <trkpt lat="42.38314610905945301055908203125" lon="3.02698477171361446380615234375">
        <ele>138.8000030517578125</ele>
        <time>2020-08-07T12:53:45.000Z</time>
      </trkpt>
      <trkpt lat="42.3831845819950103759765625" lon="3.02696364931762218475341796875">
        <ele>139</ele>
        <time>2020-08-07T12:53:48.000Z</time>
      </trkpt>
      <trkpt lat="42.38332740962505340576171875" lon="3.02689491771161556243896484375">
        <ele>138.8000030517578125</ele>
        <time>2020-08-07T12:53:55.000Z</time>
      </trkpt>
      <trkpt lat="42.38349814899265766143798828125" lon="3.02676063962280750274658203125">
        <ele>138.8000030517578125</ele>
        <time>2020-08-07T12:54:03.000Z</time>
      </trkpt>
      <trkpt lat="42.38366511650383472442626953125" lon="3.02662233822047710418701171875">
        <ele>139</ele>
        <time>2020-08-07T12:54:10.000Z</time>
      </trkpt>
      <trkpt lat="42.38382889889180660247802734375" lon="3.0264799296855926513671875">
        <ele>138.600006103515625</ele>
        <time>2020-08-07T12:54:17.000Z</time>
      </trkpt>
      <trkpt lat="42.38395580090582370758056640625" lon="3.02636518143117427825927734375">
        <ele>138.600006103515625</ele>
        <time>2020-08-07T12:54:22.000Z</time>
      </trkpt>
      <trkpt lat="42.38414456136524677276611328125" lon="3.02621665410697460174560546875">
        <ele>138.8000030517578125</ele>
        <time>2020-08-07T12:54:29.000Z</time>
      </trkpt>
      <trkpt lat="42.38420315086841583251953125" lon="3.02617206238210201263427734375">
        <ele>138.8000030517578125</ele>
        <time>2020-08-07T12:54:31.000Z</time>
      </trkpt>
      <trkpt lat="42.38442501984536647796630859375" lon="3.02599939517676830291748046875">
        <ele>139.399993896484375</ele>
        <time>2020-08-07T12:54:39.000Z</time>
      </trkpt>
      <trkpt lat="42.38445536233484745025634765625" lon="3.02598162554204463958740234375">
        <ele>139.600006103515625</ele>
        <time>2020-08-07T12:54:40.000Z</time>
      </trkpt>
      <trkpt lat="42.384669519960880279541015625" lon="3.025851286947727203369140625">
        <ele>139.1999969482421875</ele>
        <time>2020-08-07T12:54:47.000Z</time>
      </trkpt>
      <trkpt lat="42.38493380136787891387939453125" lon="3.0256995745003223419189453125">
        <ele>139.600006103515625</ele>
        <time>2020-08-07T12:54:56.000Z</time>
      </trkpt>
      <trkpt lat="42.3851323686540126800537109375" lon="3.0255813896656036376953125">
        <ele>139.600006103515625</ele>
        <time>2020-08-07T12:55:03.000Z</time>
      </trkpt>
      <trkpt lat="42.38541961647570133209228515625" lon="3.02543110214173793792724609375">
        <ele>140.399993896484375</ele>
        <time>2020-08-07T12:55:13.000Z</time>
      </trkpt>
      <trkpt lat="42.38563754595816135406494140625" lon="3.02533672191202640533447265625">
        <ele>139.8000030517578125</ele>
        <time>2020-08-07T12:55:20.000Z</time>
      </trkpt>
      <trkpt lat="42.38584709353744983673095703125" lon="3.02523530088365077972412109375">
        <ele>140.399993896484375</ele>
        <time>2020-08-07T12:55:28.000Z</time>
      </trkpt>
      <trkpt lat="42.3858964629471302032470703125" lon="3.02522105164825916290283203125">
        <ele>140.600006103515625</ele>
        <time>2020-08-07T12:55:30.000Z</time>
      </trkpt>
      <trkpt lat="42.3860156536102294921875" lon="3.02517838776111602783203125">
        <ele>141.600006103515625</ele>
        <time>2020-08-07T12:55:34.000Z</time>
      </trkpt>
      <trkpt lat="42.38629351370036602020263671875" lon="3.02510068751871585845947265625">
        <ele>140.600006103515625</ele>
        <time>2020-08-07T12:55:41.000Z</time>
      </trkpt>
      <trkpt lat="42.386498115956783294677734375" lon="3.02501234225928783416748046875">
        <ele>139.600006103515625</ele>
        <time>2020-08-07T12:55:46.000Z</time>
      </trkpt>
      <trkpt lat="42.38659844733774662017822265625" lon="3.0249468795955181121826171875">
        <ele>139.600006103515625</ele>
        <time>2020-08-07T12:55:49.000Z</time>
      </trkpt>
      <trkpt lat="42.386739514768123626708984375" lon="3.02483045496046543121337890625">
        <ele>139.8000030517578125</ele>
        <time>2020-08-07T12:55:54.000Z</time>
      </trkpt>
      <trkpt lat="42.38698787055909633636474609375" lon="3.0246193148195743560791015625">
        <ele>139.1999969482421875</ele>
        <time>2020-08-07T12:56:02.000Z</time>
      </trkpt>
      <trkpt lat="42.38719440065324306488037109375" lon="3.02442695014178752899169921875">
        <ele>139.8000030517578125</ele>
        <time>2020-08-07T12:56:10.000Z</time>
      </trkpt>
      <trkpt lat="42.38723798654973506927490234375" lon="3.0243904888629913330078125">
        <ele>140.600006103515625</ele>
        <time>2020-08-07T12:56:12.000Z</time>
      </trkpt>
      <trkpt lat="42.38735717721283435821533203125" lon="3.0242944322526454925537109375">
        <ele>141.8000030517578125</ele>
        <time>2020-08-07T12:56:17.000Z</time>
      </trkpt>
      <trkpt lat="42.38737964071333408355712890625" lon="3.0242751538753509521484375">
        <ele>141.8000030517578125</ele>
        <time>2020-08-07T12:56:18.000Z</time>
      </trkpt>
      <trkpt lat="42.3875956423580646514892578125" lon="3.02407189272344112396240234375">
        <ele>142.8000030517578125</ele>
        <time>2020-08-07T12:56:27.000Z</time>
      </trkpt>
      <trkpt lat="42.38771039061248302459716796875" lon="3.02396074868738651275634765625">
        <ele>144.1999969482421875</ele>
        <time>2020-08-07T12:56:32.000Z</time>
      </trkpt>
      <trkpt lat="42.38777576945722103118896484375" lon="3.0238941125571727752685546875">
        <ele>144.1999969482421875</ele>
        <time>2020-08-07T12:56:35.000Z</time>
      </trkpt>
      <trkpt lat="42.38796855323016643524169921875" lon="3.02370711229741573333740234375">
        <ele>145.1999969482421875</ele>
        <time>2020-08-07T12:56:44.000Z</time>
      </trkpt>
      <trkpt lat="42.38801800645887851715087890625" lon="3.02367224358022212982177734375">
        <ele>145.399993896484375</ele>
        <time>2020-08-07T12:56:46.000Z</time>
      </trkpt>
      <trkpt lat="42.3881947807967662811279296875" lon="3.0235429108142852783203125">
        <ele>145</ele>
        <time>2020-08-07T12:56:51.000Z</time>
      </trkpt>
      <trkpt lat="42.38836325705051422119140625" lon="3.023407459259033203125">
        <ele>144.8000030517578125</ele>
        <time>2020-08-07T12:56:55.000Z</time>
      </trkpt>
      <trkpt lat="42.38844648934900760650634765625" lon="3.02334702573716640472412109375">
        <ele>144.8000030517578125</ele>
        <time>2020-08-07T12:56:57.000Z</time>
      </trkpt>
      <trkpt lat="42.38866441883146762847900390625" lon="3.0231866799294948577880859375">
        <ele>144.1999969482421875</ele>
        <time>2020-08-07T12:57:03.000Z</time>
      </trkpt>
      <trkpt lat="42.38869761116802692413330078125" lon="3.0231648869812488555908203125">
        <ele>144</ele>
        <time>2020-08-07T12:57:04.000Z</time>
      </trkpt>
      <trkpt lat="42.38891084678471088409423828125" lon="3.02308282814919948577880859375">
        <ele>144</ele>
        <time>2020-08-07T12:57:11.000Z</time>
      </trkpt>
      <trkpt lat="42.389053590595722198486328125" lon="3.02303605712950229644775390625">
        <ele>143.8000030517578125</ele>
        <time>2020-08-07T12:57:17.000Z</time>
      </trkpt>
      <trkpt lat="42.38910748623311519622802734375" lon="3.022921979427337646484375">
        <ele>143.600006103515625</ele>
        <time>2020-08-07T12:57:22.000Z</time>
      </trkpt>
      <trkpt lat="42.389074377715587615966796875" lon="3.02281779237091541290283203125">
        <ele>145</ele>
        <time>2020-08-07T12:57:27.000Z</time>
      </trkpt>
      <trkpt lat="42.38906792365014553070068359375" lon="3.02279935218393802642822265625">
        <ele>145.1999969482421875</ele>
        <time>2020-08-07T12:57:28.000Z</time>
      </trkpt>
      <trkpt lat="42.38901679404079914093017578125" lon="3.022710420191287994384765625">
        <ele>145.8000030517578125</ele>
        <time>2020-08-07T12:57:34.000Z</time>
      </trkpt>
      <trkpt lat="42.38897639326751232147216796875" lon="3.02263992838561534881591796875">
        <ele>146.1999969482421875</ele>
        <time>2020-08-07T12:57:39.000Z</time>
      </trkpt>
      <trkpt lat="42.38896583206951618194580078125" lon="3.022615872323513031005859375">
        <ele>146.600006103515625</ele>
        <time>2020-08-07T12:57:41.000Z</time>
      </trkpt>
      <trkpt lat="42.388909421861171722412109375" lon="3.022500537335872650146484375">
        <ele>146.600006103515625</ele>
        <time>2020-08-07T12:57:47.000Z</time>
      </trkpt>
      <trkpt lat="42.38881529308855533599853515625" lon="3.02230800502002239227294921875">
        <ele>146.1999969482421875</ele>
        <time>2020-08-07T12:57:55.000Z</time>
      </trkpt>
      <trkpt lat="42.3887204937636852264404296875" lon="3.02211664617061614990234375">
        <ele>146.600006103515625</ele>
        <time>2020-08-07T12:58:02.000Z</time>
      </trkpt>
      <trkpt lat="42.38862871192395687103271484375" lon="3.0218965373933315277099609375">
        <ele>147.1999969482421875</ele>
        <time>2020-08-07T12:58:10.000Z</time>
      </trkpt>
      <trkpt lat="42.388633154332637786865234375" lon="3.021728731691837310791015625">
        <ele>147.600006103515625</ele>
        <time>2020-08-07T12:58:16.000Z</time>
      </trkpt>
      <trkpt lat="42.3886410333216190338134765625" lon="3.0217055976390838623046875">
        <ele>148</ele>
        <time>2020-08-07T12:58:17.000Z</time>
      </trkpt>
      <trkpt lat="42.3886510916054248809814453125" lon="3.02168673835694789886474609375">
        <ele>148.399993896484375</ele>
        <time>2020-08-07T12:58:18.000Z</time>
      </trkpt>
      <trkpt lat="42.38866425119340419769287109375" lon="3.0216708965599536895751953125">
        <ele>148.8000030517578125</ele>
        <time>2020-08-07T12:58:19.000Z</time>
      </trkpt>
      <trkpt lat="42.38869962282478809356689453125" lon="3.02162119187414646148681640625">
        <ele>149.1999969482421875</ele>
        <time>2020-08-07T12:58:22.000Z</time>
      </trkpt>
      <trkpt lat="42.38874639384448528289794921875" lon="3.02148708142340183258056640625">
        <ele>148.8000030517578125</ele>
        <time>2020-08-07T12:58:27.000Z</time>
      </trkpt>
      <trkpt lat="42.38872828893363475799560546875" lon="3.02129345946013927459716796875">
        <ele>149.1999969482421875</ele>
        <time>2020-08-07T12:58:32.000Z</time>
      </trkpt>
      <trkpt lat="42.3887265287339687347412109375" lon="3.02123763598501682281494140625">
        <ele>150</ele>
        <time>2020-08-07T12:58:34.000Z</time>
      </trkpt>
      <trkpt lat="42.38870716653764247894287109375" lon="3.0211482010781764984130859375">
        <ele>151</ele>
        <time>2020-08-07T12:58:38.000Z</time>
      </trkpt>
      <trkpt lat="42.38870163448154926300048828125" lon="3.02112464793026447296142578125">
        <ele>151.1999969482421875</ele>
        <time>2020-08-07T12:58:39.000Z</time>
      </trkpt>
      <trkpt lat="42.38868420012295246124267578125" lon="3.02092985250055789947509765625">
        <ele>151</ele>
        <time>2020-08-07T12:58:45.000Z</time>
      </trkpt>
      <trkpt lat="42.38867749460041522979736328125" lon="3.0208625458180904388427734375">
        <ele>150.600006103515625</ele>
        <time>2020-08-07T12:58:49.000Z</time>
      </trkpt>
      <trkpt lat="42.388679087162017822265625" lon="3.02083346061408519744873046875">
        <ele>150.1999969482421875</ele>
        <time>2020-08-07T12:59:04.000Z</time>
      </trkpt>
      <trkpt lat="42.38867104053497314453125" lon="3.020736984908580780029296875">
        <ele>149.8000030517578125</ele>
        <time>2020-08-07T12:59:08.000Z</time>
      </trkpt>
      <trkpt lat="42.388665676116943359375" lon="3.0206757970154285430908203125">
        <ele>149.600006103515625</ele>
        <time>2020-08-07T12:59:10.000Z</time>
      </trkpt>
      <trkpt lat="42.38865067251026630401611328125" lon="3.020489215850830078125">
        <ele>148.8000030517578125</ele>
        <time>2020-08-07T12:59:16.000Z</time>
      </trkpt>
      <trkpt lat="42.38864832557737827301025390625" lon="3.0204583704471588134765625">
        <ele>148.600006103515625</ele>
        <time>2020-08-07T12:59:17.000Z</time>
      </trkpt>
      <trkpt lat="42.3886152170598506927490234375" lon="3.0202902294695377349853515625">
        <ele>147.600006103515625</ele>
        <time>2020-08-07T12:59:22.000Z</time>
      </trkpt>
      <trkpt lat="42.38860138691961765289306640625" lon="3.020256869494915008544921875">
        <ele>147.399993896484375</ele>
        <time>2020-08-07T12:59:23.000Z</time>
      </trkpt>
      <trkpt lat="42.38852041773498058319091796875" lon="3.0201685242354869842529296875">
        <ele>146.600006103515625</ele>
        <time>2020-08-07T12:59:27.000Z</time>
      </trkpt>
      <trkpt lat="42.38847767002880573272705078125" lon="3.0201333202421665191650390625">
        <ele>146.399993896484375</ele>
        <time>2020-08-07T12:59:29.000Z</time>
      </trkpt>
      <trkpt lat="42.38837775774300098419189453125" lon="3.020035922527313232421875">
        <ele>145.8000030517578125</ele>
        <time>2020-08-07T12:59:34.000Z</time>
      </trkpt>
      <trkpt lat="42.3882762528955936431884765625" lon="3.01993307657539844512939453125">
        <ele>145.1999969482421875</ele>
        <time>2020-08-07T12:59:39.000Z</time>
      </trkpt>
      <trkpt lat="42.38826124928891658782958984375" lon="3.01990809850394725799560546875">
        <ele>145</ele>
        <time>2020-08-07T12:59:40.000Z</time>
      </trkpt>
      <trkpt lat="42.3881907574832439422607421875" lon="3.01975018344819545745849609375">
        <ele>144.1999969482421875</ele>
        <time>2020-08-07T12:59:45.000Z</time>
      </trkpt>
      <trkpt lat="42.3881766758859157562255859375" lon="3.01971313543617725372314453125">
        <ele>144</ele>
        <time>2020-08-07T12:59:46.000Z</time>
      </trkpt>
      <trkpt lat="42.38807952962815761566162109375" lon="3.0194939486682415008544921875">
        <ele>143.399993896484375</ele>
        <time>2020-08-07T12:59:52.000Z</time>
      </trkpt>
      <trkpt lat="42.388033680617809295654296875" lon="3.01942043937742710113525390625">
        <ele>143</ele>
        <time>2020-08-07T12:59:54.000Z</time>
      </trkpt>
      <trkpt lat="42.38797257654368877410888671875" lon="3.01930342800915241241455078125">
        <ele>141.600006103515625</ele>
        <time>2020-08-07T12:59:57.000Z</time>
      </trkpt>
      <trkpt lat="42.387949191033840179443359375" lon="3.01926403306424617767333984375">
        <ele>141.1999969482421875</ele>
        <time>2020-08-07T12:59:58.000Z</time>
      </trkpt>
      <trkpt lat="42.38789998926222324371337890625" lon="3.0191781185567378997802734375">
        <ele>140.600006103515625</ele>
        <time>2020-08-07T13:00:00.000Z</time>
      </trkpt>
      <trkpt lat="42.387864701449871063232421875" lon="3.01904895342886447906494140625">
        <ele>140.1999969482421875</ele>
        <time>2020-08-07T13:00:03.000Z</time>
      </trkpt>
      <trkpt lat="42.38786436617374420166015625" lon="3.01899698562920093536376953125">
        <ele>140</ele>
        <time>2020-08-07T13:00:04.000Z</time>
      </trkpt>
      <trkpt lat="42.3878792859613895416259765625" lon="3.0188810639083385467529296875">
        <ele>139.600006103515625</ele>
        <time>2020-08-07T13:00:06.000Z</time>
      </trkpt>
      <trkpt lat="42.3878923617303371429443359375" lon="3.01882691681385040283203125">
        <ele>139.399993896484375</ele>
        <time>2020-08-07T13:00:07.000Z</time>
      </trkpt>
      <trkpt lat="42.3879245482385158538818359375" lon="3.01871518604457378387451171875">
        <ele>138.399993896484375</ele>
        <time>2020-08-07T13:00:09.000Z</time>
      </trkpt>
      <trkpt lat="42.387963272631168365478515625" lon="3.01861762069165706634521484375">
        <ele>137.399993896484375</ele>
        <time>2020-08-07T13:00:11.000Z</time>
      </trkpt>
      <trkpt lat="42.3879879154264926910400390625" lon="3.0185705982148647308349609375">
        <ele>137.1999969482421875</ele>
        <time>2020-08-07T13:00:12.000Z</time>
      </trkpt>
      <trkpt lat="42.3882266320288181304931640625" lon="3.01822115667164325714111328125">
        <ele>136.600006103515625</ele>
        <time>2020-08-07T13:00:20.000Z</time>
      </trkpt>
      <trkpt lat="42.388276755809783935546875" lon="3.0181501619517803192138671875">
        <ele>136.1999969482421875</ele>
        <time>2020-08-07T13:00:22.000Z</time>
      </trkpt>
      <trkpt lat="42.38830030895769596099853515625" lon="3.01806760020554065704345703125">
        <ele>135.8000030517578125</ele>
        <time>2020-08-07T13:00:24.000Z</time>
      </trkpt>
      <trkpt lat="42.38829159177839756011962890625" lon="3.01785671152174472808837890625">
        <ele>135.1999969482421875</ele>
        <time>2020-08-07T13:00:29.000Z</time>
      </trkpt>
      <trkpt lat="42.38828840665519237518310546875" lon="3.01781295798718929290771484375">
        <ele>134.8000030517578125</ele>
        <time>2020-08-07T13:00:30.000Z</time>
      </trkpt>
      <trkpt lat="42.38828622736036777496337890625" lon="3.01773115061223506927490234375">
        <ele>134</ele>
        <time>2020-08-07T13:00:32.000Z</time>
      </trkpt>
      <trkpt lat="42.38830768503248691558837890625" lon="3.01760994829237461090087890625">
        <ele>135.399993896484375</ele>
        <time>2020-08-07T13:00:36.000Z</time>
      </trkpt>
      <trkpt lat="42.3883195035159587860107421875" lon="3.01759636960923671722412109375">
        <ele>136</ele>
        <time>2020-08-07T13:00:37.000Z</time>
      </trkpt>
      <trkpt lat="42.388356886804103851318359375" lon="3.0175590701401233673095703125">
        <ele>136.399993896484375</ele>
        <time>2020-08-07T13:00:40.000Z</time>
      </trkpt>
      <trkpt lat="42.3884470760822296142578125" lon="3.01745471544563770294189453125">
        <ele>136.399993896484375</ele>
        <time>2020-08-07T13:00:46.000Z</time>
      </trkpt>
      <trkpt lat="42.3886229284107685089111328125" lon="3.0172864906489849090576171875">
        <ele>137.600006103515625</ele>
        <time>2020-08-07T13:00:56.000Z</time>
      </trkpt>
      <trkpt lat="42.38871471025049686431884765625" lon="3.0171916075050830841064453125">
        <ele>138</ele>
        <time>2020-08-07T13:01:02.000Z</time>
      </trkpt>
      <trkpt lat="42.3887634091079235076904296875" lon="3.01714743487536907196044921875">
        <ele>138.600006103515625</ele>
        <time>2020-08-07T13:01:05.000Z</time>
      </trkpt>
      <trkpt lat="42.38886415958404541015625" lon="3.0170662142336368560791015625">
        <ele>139</ele>
        <time>2020-08-07T13:01:10.000Z</time>
      </trkpt>
      <trkpt lat="42.38897857256233692169189453125" lon="3.01697887480258941650390625">
        <ele>139.1999969482421875</ele>
        <time>2020-08-07T13:01:17.000Z</time>
      </trkpt>
      <trkpt lat="42.3890698514878749847412109375" lon="3.0169542320072650909423828125">
        <ele>139.600006103515625</ele>
        <time>2020-08-07T13:01:24.000Z</time>
      </trkpt>
      <trkpt lat="42.3890862800180912017822265625" lon="3.016952387988567352294921875">
        <ele>139.8000030517578125</ele>
        <time>2020-08-07T13:01:25.000Z</time>
      </trkpt>
      <trkpt lat="42.389217205345630645751953125" lon="3.01697225309908390045166015625">
        <ele>140.1999969482421875</ele>
        <time>2020-08-07T13:01:31.000Z</time>
      </trkpt>
      <trkpt lat="42.389408648014068603515625" lon="3.01698197610676288604736328125">
        <ele>140</ele>
        <time>2020-08-07T13:01:39.000Z</time>
      </trkpt>
      <trkpt lat="42.389574609696865081787109375" lon="3.0169237218797206878662109375">
        <ele>140.600006103515625</ele>
        <time>2020-08-07T13:01:46.000Z</time>
      </trkpt>
      <trkpt lat="42.38976873457431793212890625" lon="3.016818277537822723388671875">
        <ele>140.8000030517578125</ele>
        <time>2020-08-07T13:01:53.000Z</time>
      </trkpt>
      <trkpt lat="42.38991181366145610809326171875" lon="3.01666061393916606903076171875">
        <ele>139</ele>
        <time>2020-08-07T13:01:59.000Z</time>
      </trkpt>
      <trkpt lat="42.38993075676262378692626953125" lon="3.01661275327205657958984375">
        <ele>138</ele>
        <time>2020-08-07T13:02:00.000Z</time>
      </trkpt>
      <trkpt lat="42.38996294327080249786376953125" lon="3.016505129635334014892578125">
        <ele>136.8000030517578125</ele>
        <time>2020-08-07T13:02:02.000Z</time>
      </trkpt>
      <trkpt lat="42.39000150002539157867431640625" lon="3.016407899558544158935546875">
        <ele>135.399993896484375</ele>
        <time>2020-08-07T13:02:04.000Z</time>
      </trkpt>
      <trkpt lat="42.39002890884876251220703125" lon="3.0163661576807498931884765625">
        <ele>134.8000030517578125</ele>
        <time>2020-08-07T13:02:05.000Z</time>
      </trkpt>
      <trkpt lat="42.39005950279533863067626953125" lon="3.016330115497112274169921875">
        <ele>134</ele>
        <time>2020-08-07T13:02:06.000Z</time>
      </trkpt>
      <trkpt lat="42.39012069068849086761474609375" lon="3.01627052016556262969970703125">
        <ele>133</ele>
        <time>2020-08-07T13:02:08.000Z</time>
      </trkpt>
      <trkpt lat="42.39029905758798122406005859375" lon="3.0160976015031337738037109375">
        <ele>131.8000030517578125</ele>
        <time>2020-08-07T13:02:14.000Z</time>
      </trkpt>
      <trkpt lat="42.39037466235458850860595703125" lon="3.0160362459719181060791015625">
        <ele>130.8000030517578125</ele>
        <time>2020-08-07T13:02:16.000Z</time>
      </trkpt>
      <trkpt lat="42.3904599063098430633544921875" lon="3.01597279496490955352783203125">
        <ele>129.600006103515625</ele>
        <time>2020-08-07T13:02:18.000Z</time>
      </trkpt>
      <trkpt lat="42.39049636758863925933837890625" lon="3.0159400217235088348388671875">
        <ele>128.399993896484375</ele>
        <time>2020-08-07T13:02:19.000Z</time>
      </trkpt>
      <trkpt lat="42.39055688492953777313232421875" lon="3.01585980691015720367431640625">
        <ele>126.59999847412109375</ele>
        <time>2020-08-07T13:02:21.000Z</time>
      </trkpt>
      <trkpt lat="42.39058337174355983734130859375" lon="3.0158156342804431915283203125">
        <ele>125.8000030517578125</ele>
        <time>2020-08-07T13:02:22.000Z</time>
      </trkpt>
      <trkpt lat="42.3906077630817890167236328125" lon="3.01576919853687286376953125">
        <ele>125.1999969482421875</ele>
        <time>2020-08-07T13:02:23.000Z</time>
      </trkpt>
      <trkpt lat="42.3906315676867961883544921875" lon="3.01571815274655818939208984375">
        <ele>124.59999847412109375</ele>
        <time>2020-08-07T13:02:24.000Z</time>
      </trkpt>
      <trkpt lat="42.39065294153988361358642578125" lon="3.01566802896559238433837890625">
        <ele>124.1999969482421875</ele>
        <time>2020-08-07T13:02:25.000Z</time>
      </trkpt>
      <trkpt lat="42.39067020826041698455810546875" lon="3.01558320410549640655517578125">
        <ele>123.59999847412109375</ele>
        <time>2020-08-07T13:02:27.000Z</time>
      </trkpt>
      <trkpt lat="42.39066568203270435333251953125" lon="3.01554900594055652618408203125">
        <ele>123.1999969482421875</ele>
        <time>2020-08-07T13:02:28.000Z</time>
      </trkpt>
      <trkpt lat="42.39061807282269001007080078125" lon="3.01547189243137836456298828125">
        <ele>122.8000030517578125</ele>
        <time>2020-08-07T13:02:31.000Z</time>
      </trkpt>
      <trkpt lat="42.390597201883792877197265625" lon="3.01543970592319965362548828125">
        <ele>122.59999847412109375</ele>
        <time>2020-08-07T13:02:32.000Z</time>
      </trkpt>
      <trkpt lat="42.3905531130731105804443359375" lon="3.01537164486944675445556640625">
        <ele>121.8000030517578125</ele>
        <time>2020-08-07T13:02:34.000Z</time>
      </trkpt>
      <trkpt lat="42.39046602509915828704833984375" lon="3.0152594111859798431396484375">
        <ele>121</ele>
        <time>2020-08-07T13:02:38.000Z</time>
      </trkpt>
      <trkpt lat="42.39044037647545337677001953125" lon="3.01522630266845226287841796875">
        <ele>120.8000030517578125</ele>
        <time>2020-08-07T13:02:39.000Z</time>
      </trkpt>
      <trkpt lat="42.39041355438530445098876953125" lon="3.0151883326470851898193359375">
        <ele>120.40000152587890625</ele>
        <time>2020-08-07T13:02:40.000Z</time>
      </trkpt>
      <trkpt lat="42.390361838042736053466796875" lon="3.0151028372347354888916015625">
        <ele>120</ele>
        <time>2020-08-07T13:02:42.000Z</time>
      </trkpt>
      <trkpt lat="42.39034029655158519744873046875" lon="3.01505447365343570709228515625">
        <ele>119.8000030517578125</ele>
        <time>2020-08-07T13:02:43.000Z</time>
      </trkpt>
      <trkpt lat="42.39032353274524211883544921875" lon="3.015001751482486724853515625">
        <ele>119.8000030517578125</ele>
        <time>2020-08-07T13:02:44.000Z</time>
      </trkpt>
      <trkpt lat="42.39030324853956699371337890625" lon="3.0148349516093730926513671875">
        <ele>119</ele>
        <time>2020-08-07T13:02:47.000Z</time>
      </trkpt>
      <trkpt lat="42.39029034040868282318115234375" lon="3.01473252475261688232421875">
        <ele>118.8000030517578125</ele>
        <time>2020-08-07T13:02:49.000Z</time>
      </trkpt>
      <trkpt lat="42.39023334346711635589599609375" lon="3.0145315267145633697509765625">
        <ele>118.8000030517578125</ele>
        <time>2020-08-07T13:02:53.000Z</time>
      </trkpt>
      <trkpt lat="42.39018187858164310455322265625" lon="3.014422394335269927978515625">
        <ele>119</ele>
        <time>2020-08-07T13:02:55.000Z</time>
      </trkpt>
      <trkpt lat="42.3901179246604442596435546875" lon="3.01425416953861713409423828125">
        <ele>119</ele>
        <time>2020-08-07T13:02:58.000Z</time>
      </trkpt>
      <trkpt lat="42.390119768679141998291015625" lon="3.01414570771157741546630859375">
        <ele>118.40000152587890625</ele>
        <time>2020-08-07T13:03:00.000Z</time>
      </trkpt>
      <trkpt lat="42.390224039554595947265625" lon="3.013967089354991912841796875">
        <ele>117.8000030517578125</ele>
        <time>2020-08-07T13:03:04.000Z</time>
      </trkpt>
      <trkpt lat="42.39025915972888469696044921875" lon="3.01393213681876659393310546875">
        <ele>117.8000030517578125</ele>
        <time>2020-08-07T13:03:05.000Z</time>
      </trkpt>
      <trkpt lat="42.3903948627412319183349609375" lon="3.013817556202411651611328125">
        <ele>117.59999847412109375</ele>
        <time>2020-08-07T13:03:09.000Z</time>
      </trkpt>
      <trkpt lat="42.39042545668780803680419921875" lon="3.01378143019974231719970703125">
        <ele>117.40000152587890625</ele>
        <time>2020-08-07T13:03:10.000Z</time>
      </trkpt>
      <trkpt lat="42.3904716409742832183837890625" lon="3.01358831115067005157470703125">
        <ele>117.1999969482421875</ele>
        <time>2020-08-07T13:03:14.000Z</time>
      </trkpt>
      <trkpt lat="42.3904721438884735107421875" lon="3.01345939747989177703857421875">
        <ele>116.59999847412109375</ele>
        <time>2020-08-07T13:03:18.000Z</time>
      </trkpt>
      <trkpt lat="42.39047348499298095703125" lon="3.01343039609491825103759765625">
        <ele>116.59999847412109375</ele>
        <time>2020-08-07T13:03:19.000Z</time>
      </trkpt>
      <trkpt lat="42.390470802783966064453125" lon="3.01328874193131923675537109375">
        <ele>117.8000030517578125</ele>
        <time>2020-08-07T13:03:25.000Z</time>
      </trkpt>
      <trkpt lat="42.39046786911785602569580078125" lon="3.01324934698641300201416015625">
        <ele>118.1999969482421875</ele>
        <time>2020-08-07T13:03:27.000Z</time>
      </trkpt>
      <trkpt lat="42.39046133123338222503662109375" lon="3.01317106001079082489013671875">
        <ele>119</ele>
        <time>2020-08-07T13:03:30.000Z</time>
      </trkpt>
      <trkpt lat="42.390458397567272186279296875" lon="3.01307735033333301544189453125">
        <ele>120.1999969482421875</ele>
        <time>2020-08-07T13:03:34.000Z</time>
      </trkpt>
      <trkpt lat="42.3904662765562534332275390625" lon="3.01300778053700923919677734375">
        <ele>120.59999847412109375</ele>
        <time>2020-08-07T13:03:37.000Z</time>
      </trkpt>
      <trkpt lat="42.39049050025641918182373046875" lon="3.01291809417307376861572265625">
        <ele>121.40000152587890625</ele>
        <time>2020-08-07T13:03:41.000Z</time>
      </trkpt>
      <trkpt lat="42.3905169032514095306396484375" lon="3.01283041946589946746826171875">
        <ele>122.1999969482421875</ele>
        <time>2020-08-07T13:03:45.000Z</time>
      </trkpt>
      <trkpt lat="42.39055738784372806549072265625" lon="3.01277987658977508544921875">
        <ele>122.40000152587890625</ele>
        <time>2020-08-07T13:03:48.000Z</time>
      </trkpt>
      <trkpt lat="42.39059351384639739990234375" lon="3.0127062834799289703369140625">
        <ele>123.1999969482421875</ele>
        <time>2020-08-07T13:03:52.000Z</time>
      </trkpt>
      <trkpt lat="42.3905772529542446136474609375" lon="3.01260016858577728271484375">
        <ele>123.59999847412109375</ele>
        <time>2020-08-07T13:03:56.000Z</time>
      </trkpt>
      <trkpt lat="42.39056275226175785064697265625" lon="3.01257594488561153411865234375">
        <ele>123.59999847412109375</ele>
        <time>2020-08-07T13:03:57.000Z</time>
      </trkpt>
      <trkpt lat="42.39045931957662105560302734375" lon="3.01250184886157512664794921875">
        <ele>123.8000030517578125</ele>
        <time>2020-08-07T13:04:02.000Z</time>
      </trkpt>
      <trkpt lat="42.39028765819966793060302734375" lon="3.0124762840569019317626953125">
        <ele>123.8000030517578125</ele>
        <time>2020-08-07T13:04:09.000Z</time>
      </trkpt>
      <trkpt lat="42.39015656523406505584716796875" lon="3.012390621006488800048828125">
        <ele>122.8000030517578125</ele>
        <time>2020-08-07T13:04:13.000Z</time>
      </trkpt>
      <trkpt lat="42.3901296593248844146728515625" lon="3.0123404972255229949951171875">
        <ele>122.59999847412109375</ele>
        <time>2020-08-07T13:04:14.000Z</time>
      </trkpt>
      <trkpt lat="42.39003217779099941253662109375" lon="3.012202195823192596435546875">
        <ele>122.1999969482421875</ele>
        <time>2020-08-07T13:04:17.000Z</time>
      </trkpt>
      <trkpt lat="42.389996387064456939697265625" lon="3.01216900348663330078125">
        <ele>122.1999969482421875</ele>
        <time>2020-08-07T13:04:18.000Z</time>
      </trkpt>
      <trkpt lat="42.38989085890352725982666015625" lon="3.0120504833757877349853515625">
        <ele>122.40000152587890625</ele>
        <time>2020-08-07T13:04:22.000Z</time>
      </trkpt>
      <trkpt lat="42.38970293663442134857177734375" lon="3.011823333799839019775390625">
        <ele>122.40000152587890625</ele>
        <time>2020-08-07T13:04:30.000Z</time>
      </trkpt>
      <trkpt lat="42.38952465355396270751953125" lon="3.01163189113140106201171875">
        <ele>123</ele>
        <time>2020-08-07T13:04:38.000Z</time>
      </trkpt>
      <trkpt lat="42.38942650146782398223876953125" lon="3.01154329441487789154052734375">
        <ele>123.59999847412109375</ele>
        <time>2020-08-07T13:04:43.000Z</time>
      </trkpt>
      <trkpt lat="42.38939448259770870208740234375" lon="3.0115123651921749114990234375">
        <ele>124.1999969482421875</ele>
        <time>2020-08-07T13:04:45.000Z</time>
      </trkpt>
      <trkpt lat="42.38936129026114940643310546875" lon="3.0114791728556156158447265625">
        <ele>124.8000030517578125</ele>
        <time>2020-08-07T13:04:47.000Z</time>
      </trkpt>
      <trkpt lat="42.38929725252091884613037109375" lon="3.01139183342456817626953125">
        <ele>125.1999969482421875</ele>
        <time>2020-08-07T13:04:51.000Z</time>
      </trkpt>
      <trkpt lat="42.3891952447593212127685546875" lon="3.01121153868734836578369140625">
        <ele>124.59999847412109375</ele>
        <time>2020-08-07T13:04:56.000Z</time>
      </trkpt>
      <trkpt lat="42.389190383255481719970703125" lon="3.011088073253631591796875">
        <ele>123.8000030517578125</ele>
        <time>2020-08-07T13:04:58.000Z</time>
      </trkpt>
      <trkpt lat="42.389190383255481719970703125" lon="3.01097064279019832611083984375">
        <ele>122.40000152587890625</ele>
        <time>2020-08-07T13:05:00.000Z</time>
      </trkpt>
      <trkpt lat="42.3891473002731800079345703125" lon="3.01080082543194293975830078125">
        <ele>121.1999969482421875</ele>
        <time>2020-08-07T13:05:03.000Z</time>
      </trkpt>
      <trkpt lat="42.389127351343631744384765625" lon="3.010751120746135711669921875">
        <ele>120.59999847412109375</ele>
        <time>2020-08-07T13:05:04.000Z</time>
      </trkpt>
      <trkpt lat="42.389092147350311279296875" lon="3.01059722900390625">
        <ele>120.1999969482421875</ele>
        <time>2020-08-07T13:05:07.000Z</time>
      </trkpt>
      <trkpt lat="42.3890983499586582183837890625" lon="3.010541908442974090576171875">
        <ele>119.8000030517578125</ele>
        <time>2020-08-07T13:05:08.000Z</time>
      </trkpt>
      <trkpt lat="42.38912894390523433685302734375" lon="3.01044233143329620361328125">
        <ele>118.8000030517578125</ele>
        <time>2020-08-07T13:05:10.000Z</time>
      </trkpt>
      <trkpt lat="42.38916330970823764801025390625" lon="3.0103305168449878692626953125">
        <ele>117.8000030517578125</ele>
        <time>2020-08-07T13:05:12.000Z</time>
      </trkpt>
      <trkpt lat="42.38917998969554901123046875" lon="3.010268993675708770751953125">
        <ele>117.40000152587890625</ele>
        <time>2020-08-07T13:05:13.000Z</time>
      </trkpt>
      <trkpt lat="42.38923639990389347076416015625" lon="3.0100629664957523345947265625">
        <ele>116.1999969482421875</ele>
        <time>2020-08-07T13:05:16.000Z</time>
      </trkpt>
      <trkpt lat="42.38928367383778095245361328125" lon="3.0099154449999332427978515625">
        <ele>115.40000152587890625</ele>
        <time>2020-08-07T13:05:18.000Z</time>
      </trkpt>
      <trkpt lat="42.3893058858811855316162109375" lon="3.0098421871662139892578125">
        <ele>114.40000152587890625</ele>
        <time>2020-08-07T13:05:19.000Z</time>
      </trkpt>
      <trkpt lat="42.38934637047350406646728515625" lon="3.00969508476555347442626953125">
        <ele>113</ele>
        <time>2020-08-07T13:05:21.000Z</time>
      </trkpt>
      <trkpt lat="42.3893840052187442779541015625" lon="3.009551502764225006103515625">
        <ele>112</ele>
        <time>2020-08-07T13:05:23.000Z</time>
      </trkpt>
      <trkpt lat="42.3894031159579753875732421875" lon="3.00948075950145721435546875">
        <ele>111.8000030517578125</ele>
        <time>2020-08-07T13:05:24.000Z</time>
      </trkpt>
      <trkpt lat="42.3894406668841838836669921875" lon="3.00934237428009510040283203125">
        <ele>110.59999847412109375</ele>
        <time>2020-08-07T13:05:26.000Z</time>
      </trkpt>
      <trkpt lat="42.38949204795062541961669921875" lon="3.00915143452584743499755859375">
        <ele>109.59999847412109375</ele>
        <time>2020-08-07T13:05:29.000Z</time>
      </trkpt>
      <trkpt lat="42.389528341591358184814453125" lon="3.0090219341218471527099609375">
        <ele>108.8000030517578125</ele>
        <time>2020-08-07T13:05:31.000Z</time>
      </trkpt>
      <trkpt lat="42.38954183645546436309814453125" lon="3.0089521966874599456787109375">
        <ele>108.59999847412109375</ele>
        <time>2020-08-07T13:05:32.000Z</time>
      </trkpt>
      <trkpt lat="42.38953965716063976287841796875" lon="3.00874181091785430908203125">
        <ele>107.8000030517578125</ele>
        <time>2020-08-07T13:05:35.000Z</time>
      </trkpt>
      <trkpt lat="42.389522977173328399658203125" lon="3.00866796635091304779052734375">
        <ele>107.1999969482421875</ele>
        <time>2020-08-07T13:05:36.000Z</time>
      </trkpt>
      <trkpt lat="42.389470003545284271240234375" lon="3.0085247196257114410400390625">
        <ele>105.8000030517578125</ele>
        <time>2020-08-07T13:05:38.000Z</time>
      </trkpt>
      <trkpt lat="42.389439158141613006591796875" lon="3.00846126861870288848876953125">
        <ele>104.8000030517578125</ele>
        <time>2020-08-07T13:05:39.000Z</time>
      </trkpt>
      <trkpt lat="42.3894104920327663421630859375" lon="3.00840477459132671356201171875">
        <ele>104.1999969482421875</ele>
        <time>2020-08-07T13:05:40.000Z</time>
      </trkpt>
      <trkpt lat="42.38938576541841030120849609375" lon="3.0083094723522663116455078125">
        <ele>103</ele>
        <time>2020-08-07T13:05:42.000Z</time>
      </trkpt>
      <trkpt lat="42.3894145153462886810302734375" lon="3.00820210017263889312744140625">
        <ele>101.8000030517578125</ele>
        <time>2020-08-07T13:05:44.000Z</time>
      </trkpt>
      <trkpt lat="42.389438152313232421875" lon="3.00814610905945301055908203125">
        <ele>101.40000152587890625</ele>
        <time>2020-08-07T13:05:45.000Z</time>
      </trkpt>
      <trkpt lat="42.38946522586047649383544921875" lon="3.0080204643309116363525390625">
        <ele>100.40000152587890625</ele>
        <time>2020-08-07T13:05:47.000Z</time>
      </trkpt>
      <trkpt lat="42.389472685754299163818359375" lon="3.00795818679034709930419921875">
        <ele>100</ele>
        <time>2020-08-07T13:05:48.000Z</time>
      </trkpt>
      <trkpt lat="42.38947846926748752593994140625" lon="3.0078997649252414703369140625">
        <ele>99.59999847412109375</ele>
        <time>2020-08-07T13:05:49.000Z</time>
      </trkpt>
      <trkpt lat="42.3894778825342655181884765625" lon="3.0078444443643093109130859375">
        <ele>99.40000152587890625</ele>
        <time>2020-08-07T13:05:50.000Z</time>
      </trkpt>
      <trkpt lat="42.38944812677800655364990234375" lon="3.007751069962978363037109375">
        <ele>98.8000030517578125</ele>
        <time>2020-08-07T13:05:52.000Z</time>
      </trkpt>
      <trkpt lat="42.38942398689687252044677734375" lon="3.0077059753239154815673828125">
        <ele>98.40000152587890625</ele>
        <time>2020-08-07T13:05:53.000Z</time>
      </trkpt>
      <trkpt lat="42.389389537274837493896484375" lon="3.007600866258144378662109375">
        <ele>97.40000152587890625</ele>
        <time>2020-08-07T13:05:55.000Z</time>
      </trkpt>
      <trkpt lat="42.38937503658235073089599609375" lon="3.00748628564178943634033203125">
        <ele>96.8000030517578125</ele>
        <time>2020-08-07T13:05:57.000Z</time>
      </trkpt>
      <trkpt lat="42.38937101326882839202880859375" lon="3.00737061537802219390869140625">
        <ele>96.40000152587890625</ele>
        <time>2020-08-07T13:05:59.000Z</time>
      </trkpt>
      <trkpt lat="42.38939280621707439422607421875" lon="3.0072325654327869415283203125">
        <ele>96.1999969482421875</ele>
        <time>2020-08-07T13:06:02.000Z</time>
      </trkpt>
      <trkpt lat="42.3894341289997100830078125" lon="3.0071225948631763458251953125">
        <ele>96.40000152587890625</ele>
        <time>2020-08-07T13:06:05.000Z</time>
      </trkpt>
      <trkpt lat="42.38948081620037555694580078125" lon="3.00697515718638896942138671875">
        <ele>96.8000030517578125</ele>
        <time>2020-08-07T13:06:09.000Z</time>
      </trkpt>
      <trkpt lat="42.3895241506397724151611328125" lon="3.00679712556302547454833984375">
        <ele>97.40000152587890625</ele>
        <time>2020-08-07T13:06:14.000Z</time>
      </trkpt>
      <trkpt lat="42.38954150117933750152587890625" lon="3.00669126212596893310546875">
        <ele>98.1999969482421875</ele>
        <time>2020-08-07T13:06:17.000Z</time>
      </trkpt>
      <trkpt lat="42.38956748507916927337646484375" lon="3.00655438564717769622802734375">
        <ele>98.40000152587890625</ele>
        <time>2020-08-07T13:06:21.000Z</time>
      </trkpt>
      <trkpt lat="42.38959397189319133758544921875" lon="3.00638054497539997100830078125">
        <ele>99.1999969482421875</ele>
        <time>2020-08-07T13:06:26.000Z</time>
      </trkpt>
      <trkpt lat="42.389612831175327301025390625" lon="3.006313405930995941162109375">
        <ele>99.59999847412109375</ele>
        <time>2020-08-07T13:06:28.000Z</time>
      </trkpt>
      <trkpt lat="42.38967628218233585357666015625" lon="3.00605633296072483062744140625">
        <ele>100.59999847412109375</ele>
        <time>2020-08-07T13:06:35.000Z</time>
      </trkpt>
      <trkpt lat="42.3897712491452693939208984375" lon="3.0056711845099925994873046875">
        <ele>101.40000152587890625</ele>
        <time>2020-08-07T13:06:45.000Z</time>
      </trkpt>
      <trkpt lat="42.38984190858900547027587890625" lon="3.005410172045230865478515625">
        <ele>101.59999847412109375</ele>
        <time>2020-08-07T13:06:51.000Z</time>
      </trkpt>
      <trkpt lat="42.38989077508449554443359375" lon="3.00523188896477222442626953125">
        <ele>101.1999969482421875</ele>
        <time>2020-08-07T13:06:54.000Z</time>
      </trkpt>
      <trkpt lat="42.389918267726898193359375" lon="3.00509534776210784912109375">
        <ele>100.8000030517578125</ele>
        <time>2020-08-07T13:06:56.000Z</time>
      </trkpt>
      <trkpt lat="42.389923296868801116943359375" lon="3.00502301193773746490478515625">
        <ele>100.59999847412109375</ele>
        <time>2020-08-07T13:06:57.000Z</time>
      </trkpt>
      <trkpt lat="42.3899412341415882110595703125" lon="3.00478798337280750274658203125">
        <ele>100</ele>
        <time>2020-08-07T13:07:00.000Z</time>
      </trkpt>
      <trkpt lat="42.3899543099105358123779296875" lon="3.004719503223896026611328125">
        <ele>99.59999847412109375</ele>
        <time>2020-08-07T13:07:01.000Z</time>
      </trkpt>
      <trkpt lat="42.38996830768883228302001953125" lon="3.00466141663491725921630859375">
        <ele>99.40000152587890625</ele>
        <time>2020-08-07T13:07:02.000Z</time>
      </trkpt>
      <trkpt lat="42.3900250531733036041259765625" lon="3.00445253960788249969482421875">
        <ele>99.8000030517578125</ele>
        <time>2020-08-07T13:07:07.000Z</time>
      </trkpt>
      <trkpt lat="42.390081547200679779052734375" lon="3.0042419023811817169189453125">
        <ele>100.40000152587890625</ele>
        <time>2020-08-07T13:07:13.000Z</time>
      </trkpt>
      <trkpt lat="42.3900914378464221954345703125" lon="3.00421197898685932159423828125">
        <ele>100.59999847412109375</ele>
        <time>2020-08-07T13:07:14.000Z</time>
      </trkpt>
      <trkpt lat="42.390145249664783477783203125" lon="3.00401081331074237823486328125">
        <ele>101.40000152587890625</ele>
        <time>2020-08-07T13:07:21.000Z</time>
      </trkpt>
      <trkpt lat="42.39016863517463207244873046875" lon="3.003922887146472930908203125">
        <ele>101.59999847412109375</ele>
        <time>2020-08-07T13:07:24.000Z</time>
      </trkpt>
      <trkpt lat="42.3902248777449131011962890625" lon="3.0037299357354640960693359375">
        <ele>102.1999969482421875</ele>
        <time>2020-08-07T13:07:31.000Z</time>
      </trkpt>
      <trkpt lat="42.390246503055095672607421875" lon="3.00365827046334743499755859375">
        <ele>102.8000030517578125</ele>
        <time>2020-08-07T13:07:34.000Z</time>
      </trkpt>
      <trkpt lat="42.3902563937008380889892578125" lon="3.00360672175884246826171875">
        <ele>103</ele>
        <time>2020-08-07T13:07:36.000Z</time>
      </trkpt>
      <trkpt lat="42.39028774201869964599609375" lon="3.0034774728119373321533203125">
        <ele>103.8000030517578125</ele>
        <time>2020-08-07T13:07:41.000Z</time>
      </trkpt>
      <trkpt lat="42.3902989737689495086669921875" lon="3.0034000240266323089599609375">
        <ele>104.1999969482421875</ele>
        <time>2020-08-07T13:07:44.000Z</time>
      </trkpt>
      <trkpt lat="42.3903174139559268951416015625" lon="3.003297932446002960205078125">
        <ele>104.8000030517578125</ele>
        <time>2020-08-07T13:07:48.000Z</time>
      </trkpt>
      <trkpt lat="42.39034079946577548980712890625" lon="3.00319944508373737335205078125">
        <ele>105.59999847412109375</ele>
        <time>2020-08-07T13:07:52.000Z</time>
      </trkpt>
      <trkpt lat="42.39035035483539104461669921875" lon="3.0031489022076129913330078125">
        <ele>106</ele>
        <time>2020-08-07T13:07:54.000Z</time>
      </trkpt>
      <trkpt lat="42.3903780989348888397216796875" lon="3.0030003748834133148193359375">
        <ele>107.1999969482421875</ele>
        <time>2020-08-07T13:08:00.000Z</time>
      </trkpt>
      <trkpt lat="42.390389330685138702392578125" lon="3.00294949673116207122802734375">
        <ele>107.59999847412109375</ele>
        <time>2020-08-07T13:08:02.000Z</time>
      </trkpt>
      <trkpt lat="42.390413470566272735595703125" lon="3.0028511770069599151611328125">
        <ele>108.1999969482421875</ele>
        <time>2020-08-07T13:08:06.000Z</time>
      </trkpt>
      <trkpt lat="42.390428222715854644775390625" lon="3.0027794279158115386962890625">
        <ele>108.59999847412109375</ele>
        <time>2020-08-07T13:08:09.000Z</time>
      </trkpt>
      <trkpt lat="42.39043987356126308441162109375" lon="3.002660237252712249755859375">
        <ele>109.40000152587890625</ele>
        <time>2020-08-07T13:08:14.000Z</time>
      </trkpt>
      <trkpt lat="42.390442304313182830810546875" lon="3.00256342627108097076416015625">
        <ele>110.1999969482421875</ele>
        <time>2020-08-07T13:08:18.000Z</time>
      </trkpt>
      <trkpt lat="42.3904399573802947998046875" lon="3.00254330970346927642822265625">
        <ele>110.40000152587890625</ele>
        <time>2020-08-07T13:08:19.000Z</time>
      </trkpt>
      <trkpt lat="42.39045060239732265472412109375" lon="3.00243820063769817352294921875">
        <ele>111.59999847412109375</ele>
        <time>2020-08-07T13:08:24.000Z</time>
      </trkpt>
      <trkpt lat="42.39048354327678680419921875" lon="3.00222932361066341400146484375">
        <ele>112.1999969482421875</ele>
        <time>2020-08-07T13:08:32.000Z</time>
      </trkpt>
      <trkpt lat="42.3905016481876373291015625" lon="3.00214567221701145172119140625">
        <ele>112.59999847412109375</ele>
        <time>2020-08-07T13:08:35.000Z</time>
      </trkpt>
      <trkpt lat="42.3905299790203571319580078125" lon="3.0020166747272014617919921875">
        <ele>113.1999969482421875</ele>
        <time>2020-08-07T13:08:40.000Z</time>
      </trkpt>
      <trkpt lat="42.390536181628704071044921875" lon="3.00198608078062534332275390625">
        <ele>113.59999847412109375</ele>
        <time>2020-08-07T13:08:43.000Z</time>
      </trkpt>
      <trkpt lat="42.39053458906710147857666015625" lon="3.00198373384773731231689453125">
        <ele>113.8000030517578125</ele>
        <time>2020-08-07T13:08:45.000Z</time>
      </trkpt>
      <trkpt lat="42.390532158315181732177734375" lon="3.0019761063158512115478515625">
        <ele>113.8000030517578125</ele>
        <time>2020-08-07T13:08:52.000Z</time>
      </trkpt>
      <trkpt lat="42.39053308032453060150146484375" lon="3.00197233445942401885986328125">
        <ele>113.8000030517578125</ele>
        <time>2020-08-07T13:09:00.000Z</time>
      </trkpt>
      <trkpt lat="42.39054112695157527923583984375" lon="3.001973591744899749755859375">
        <ele>114</ele>
        <time>2020-08-07T13:09:11.000Z</time>
      </trkpt>
      <trkpt lat="42.39053073339164257049560546875" lon="3.00196378491818904876708984375">
        <ele>113.8000030517578125</ele>
        <time>2020-08-07T13:09:19.000Z</time>
      </trkpt>
      <trkpt lat="42.39052754826843738555908203125" lon="3.00196495838463306427001953125">
        <ele>113.8000030517578125</ele>
        <time>2020-08-07T13:09:28.000Z</time>
      </trkpt>
      <trkpt lat="42.39052184857428073883056640625" lon="3.0019616894423961639404296875">
        <ele>113.59999847412109375</ele>
        <time>2020-08-07T13:09:38.000Z</time>
      </trkpt>
      <trkpt lat="42.3905204236507415771484375" lon="3.0019564926624298095703125">
        <ele>113.40000152587890625</ele>
        <time>2020-08-07T13:09:49.000Z</time>
      </trkpt>
      <trkpt lat="42.3905189149081707000732421875" lon="3.00195523537695407867431640625">
        <ele>113.59999847412109375</ele>
        <time>2020-08-07T13:09:56.000Z</time>
      </trkpt>
      <trkpt lat="42.39052469842135906219482421875" lon="3.00195422954857349395751953125">
        <ele>113.40000152587890625</ele>
        <time>2020-08-07T13:10:07.000Z</time>
      </trkpt>
      <trkpt lat="42.39052511751651763916015625" lon="3.001947440207004547119140625">
        <ele>113.8000030517578125</ele>
        <time>2020-08-07T13:10:16.000Z</time>
      </trkpt>
      <trkpt lat="42.3905239440500736236572265625" lon="3.0019432492554187774658203125">
        <ele>113.8000030517578125</ele>
        <time>2020-08-07T13:10:25.000Z</time>
      </trkpt>
      <trkpt lat="42.3905430547893047332763671875" lon="3.001881726086139678955078125">
        <ele>114</ele>
        <time>2020-08-07T13:10:34.000Z</time>
      </trkpt>
      <trkpt lat="42.3905759118497371673583984375" lon="3.0017548240721225738525390625">
        <ele>114.59999847412109375</ele>
        <time>2020-08-07T13:10:40.000Z</time>
      </trkpt>
      <trkpt lat="42.390592508018016815185546875" lon="3.00165231339633464813232421875">
        <ele>115</ele>
        <time>2020-08-07T13:10:44.000Z</time>
      </trkpt>
      <trkpt lat="42.3906094394624233245849609375" lon="3.00154485739767551422119140625">
        <ele>115.59999847412109375</ele>
        <time>2020-08-07T13:10:48.000Z</time>
      </trkpt>
      <trkpt lat="42.39062997512519359588623046875" lon="3.00137202255427837371826171875">
        <ele>115.59999847412109375</ele>
        <time>2020-08-07T13:10:54.000Z</time>
      </trkpt>
      <trkpt lat="42.3906587250530719757080078125" lon="3.00132818520069122314453125">
        <ele>115.8000030517578125</ele>
        <time>2020-08-07T13:10:59.000Z</time>
      </trkpt>
      <trkpt lat="42.39064791239798069000244140625" lon="3.00130966119468212127685546875">
        <ele>116</ele>
        <time>2020-08-07T13:11:08.000Z</time>
      </trkpt>
      <trkpt lat="42.390652857720851898193359375" lon="3.0011892132461071014404296875">
        <ele>115.8000030517578125</ele>
        <time>2020-08-07T13:11:13.000Z</time>
      </trkpt>
      <trkpt lat="42.39065252244472503662109375" lon="3.00098159350454807281494140625">
        <ele>115.59999847412109375</ele>
        <time>2020-08-07T13:11:20.000Z</time>
      </trkpt>
      <trkpt lat="42.39064103923738002777099609375" lon="3.0008428730070590972900390625">
        <ele>115.1999969482421875</ele>
        <time>2020-08-07T13:11:25.000Z</time>
      </trkpt>
      <trkpt lat="42.39065260626375675201416015625" lon="3.0007147975265979766845703125">
        <ele>114.8000030517578125</ele>
        <time>2020-08-07T13:11:30.000Z</time>
      </trkpt>
      <trkpt lat="42.39062570035457611083984375" lon="3.00066123716533184051513671875">
        <ele>114.1999969482421875</ele>
        <time>2020-08-07T13:11:34.000Z</time>
      </trkpt>
      <trkpt lat="42.39064539782702922821044921875" lon="3.0006249435245990753173828125">
        <ele>114</ele>
        <time>2020-08-07T13:11:36.000Z</time>
      </trkpt>
      <trkpt lat="42.39069401286542415618896484375" lon="3.000546991825103759765625">
        <ele>113.8000030517578125</ele>
        <time>2020-08-07T13:11:39.000Z</time>
      </trkpt>
      <trkpt lat="42.39073298871517181396484375" lon="3.000476248562335968017578125">
        <ele>113.59999847412109375</ele>
        <time>2020-08-07T13:11:41.000Z</time>
      </trkpt>
      <trkpt lat="42.390819825232028961181640625" lon="3.00028103403747081756591796875">
        <ele>113.40000152587890625</ele>
        <time>2020-08-07T13:11:47.000Z</time>
      </trkpt>
      <trkpt lat="42.390910685062408447265625" lon="3.00008858554065227508544921875">
        <ele>113</ele>
        <time>2020-08-07T13:11:52.000Z</time>
      </trkpt>
      <trkpt lat="42.3909551091492176055908203125" lon="2.99999789334833621978759765625">
        <ele>112.59999847412109375</ele>
        <time>2020-08-07T13:11:54.000Z</time>
      </trkpt>
      <trkpt lat="42.390980087220668792724609375" lon="2.999900914728641510009765625">
        <ele>112</ele>
        <time>2020-08-07T13:11:57.000Z</time>
      </trkpt>
      <trkpt lat="42.39096910692751407623291015625" lon="2.9998782835900783538818359375">
        <ele>111.8000030517578125</ele>
        <time>2020-08-07T13:11:58.000Z</time>
      </trkpt>
      <trkpt lat="42.39087992347776889801025390625" lon="2.99985439516603946685791015625">
        <ele>111.1999969482421875</ele>
        <time>2020-08-07T13:12:02.000Z</time>
      </trkpt>
      <trkpt lat="42.390760146081447601318359375" lon="2.9997839033603668212890625">
        <ele>111.8000030517578125</ele>
        <time>2020-08-07T13:12:08.000Z</time>
      </trkpt>
      <trkpt lat="42.3906707949936389923095703125" lon="2.99974207766354084014892578125">
        <ele>113</ele>
        <time>2020-08-07T13:12:13.000Z</time>
      </trkpt>
      <trkpt lat="42.39058052189648151397705078125" lon="2.9996851645410060882568359375">
        <ele>114</ele>
        <time>2020-08-07T13:12:19.000Z</time>
      </trkpt>
      <trkpt lat="42.39056627266108989715576171875" lon="2.999677956104278564453125">
        <ele>114.40000152587890625</ele>
        <time>2020-08-07T13:12:20.000Z</time>
      </trkpt>
      <trkpt lat="42.39052620716392993927001953125" lon="2.99964786507189273834228515625">
        <ele>114.8000030517578125</ele>
        <time>2020-08-07T13:12:23.000Z</time>
      </trkpt>
      <trkpt lat="42.39051866345107555389404296875" lon="2.9996033571660518646240234375">
        <ele>115</ele>
        <time>2020-08-07T13:12:25.000Z</time>
      </trkpt>
      <trkpt lat="42.39051975309848785400390625" lon="2.99958064220845699310302734375">
        <ele>115.1999969482421875</ele>
        <time>2020-08-07T13:12:26.000Z</time>
      </trkpt>
      <trkpt lat="42.390544228255748748779296875" lon="2.99947855062782764434814453125">
        <ele>116.40000152587890625</ele>
        <time>2020-08-07T13:12:31.000Z</time>
      </trkpt>
      <trkpt lat="42.3905474133789539337158203125" lon="2.99945860169827938079833984375">
        <ele>116.8000030517578125</ele>
        <time>2020-08-07T13:12:32.000Z</time>
      </trkpt>
      <trkpt lat="42.3905410431325435638427734375" lon="2.99939875490963459014892578125">
        <ele>117.59999847412109375</ele>
        <time>2020-08-07T13:12:35.000Z</time>
      </trkpt>
      <trkpt lat="42.39050726406276226043701171875" lon="2.99933237023651599884033203125">
        <ele>118.40000152587890625</ele>
        <time>2020-08-07T13:12:39.000Z</time>
      </trkpt>
      <trkpt lat="42.3904867283999919891357421875" lon="2.9992999322712421417236328125">
        <ele>118.59999847412109375</ele>
        <time>2020-08-07T13:12:41.000Z</time>
      </trkpt>
      <trkpt lat="42.3904749937355518341064453125" lon="2.99928568303585052490234375">
        <ele>118.8000030517578125</ele>
        <time>2020-08-07T13:12:42.000Z</time>
      </trkpt>
      <trkpt lat="42.390430234372615814208984375" lon="2.9992523230612277984619140625">
        <ele>118.8000030517578125</ele>
        <time>2020-08-07T13:12:45.000Z</time>
      </trkpt>
      <trkpt lat="42.39038589410483837127685546875" lon="2.99914243631064891815185546875">
        <ele>119.40000152587890625</ele>
        <time>2020-08-07T13:12:50.000Z</time>
      </trkpt>
      <trkpt lat="42.3903713934123516082763671875" lon="2.9990930669009685516357421875">
        <ele>119.59999847412109375</ele>
        <time>2020-08-07T13:12:52.000Z</time>
      </trkpt>
      <trkpt lat="42.390368878841400146484375" lon="2.999013103544712066650390625">
        <ele>119.8000030517578125</ele>
        <time>2020-08-07T13:12:55.000Z</time>
      </trkpt>
      <trkpt lat="42.39036192186176776885986328125" lon="2.99893523566424846649169921875">
        <ele>119.8000030517578125</ele>
        <time>2020-08-07T13:12:58.000Z</time>
      </trkpt>
      <trkpt lat="42.3903496004641056060791015625" lon="2.99879710189998149871826171875">
        <ele>120.1999969482421875</ele>
        <time>2020-08-07T13:13:04.000Z</time>
      </trkpt>
      <trkpt lat="42.39032386802136898040771484375" lon="2.998653016984462738037109375">
        <ele>120.8000030517578125</ele>
        <time>2020-08-07T13:13:10.000Z</time>
      </trkpt>
      <trkpt lat="42.3902956210076808929443359375" lon="2.99848009832203388214111328125">
        <ele>121.8000030517578125</ele>
        <time>2020-08-07T13:13:17.000Z</time>
      </trkpt>
      <trkpt lat="42.390292771160602569580078125" lon="2.9984553717076778411865234375">
        <ele>122</ele>
        <time>2020-08-07T13:13:18.000Z</time>
      </trkpt>
      <trkpt lat="42.39028464071452617645263671875" lon="2.99829804338514804840087890625">
        <ele>122.8000030517578125</ele>
        <time>2020-08-07T13:13:24.000Z</time>
      </trkpt>
      <trkpt lat="42.3902865685522556304931640625" lon="2.9982713051140308380126953125">
        <ele>122.8000030517578125</ele>
        <time>2020-08-07T13:13:25.000Z</time>
      </trkpt>
      <trkpt lat="42.3903160728514194488525390625" lon="2.998076342046260833740234375">
        <ele>123</ele>
        <time>2020-08-07T13:13:32.000Z</time>
      </trkpt>
      <trkpt lat="42.39037868566811084747314453125" lon="2.997808791697025299072265625">
        <ele>123.40000152587890625</ele>
        <time>2020-08-07T13:13:40.000Z</time>
      </trkpt>
      <trkpt lat="42.39043937064707279205322265625" lon="2.99754316918551921844482421875">
        <ele>123.59999847412109375</ele>
        <time>2020-08-07T13:13:48.000Z</time>
      </trkpt>
      <trkpt lat="42.390468120574951171875" lon="2.99743822775781154632568359375">
        <ele>124</ele>
        <time>2020-08-07T13:13:51.000Z</time>
      </trkpt>
      <trkpt lat="42.39050810225307941436767578125" lon="2.9973047040402889251708984375">
        <ele>124.1999969482421875</ele>
        <time>2020-08-07T13:13:55.000Z</time>
      </trkpt>
      <trkpt lat="42.39055386744439601898193359375" lon="2.997123487293720245361328125">
        <ele>125</ele>
        <time>2020-08-07T13:14:01.000Z</time>
      </trkpt>
      <trkpt lat="42.39055939950048923492431640625" lon="2.99709406681358814239501953125">
        <ele>125</ele>
        <time>2020-08-07T13:14:02.000Z</time>
      </trkpt>
      <trkpt lat="42.390580438077449798583984375" lon="2.9969851858913898468017578125">
        <ele>126</ele>
        <time>2020-08-07T13:14:06.000Z</time>
      </trkpt>
      <trkpt lat="42.39061488769948482513427734375" lon="2.99685870297253131866455078125">
        <ele>126.59999847412109375</ele>
        <time>2020-08-07T13:14:10.000Z</time>
      </trkpt>
      <trkpt lat="42.39066702313721179962158203125" lon="2.9966988600790500640869140625">
        <ele>127</ele>
        <time>2020-08-07T13:14:15.000Z</time>
      </trkpt>
      <trkpt lat="42.39071957767009735107421875" lon="2.9965781606733798980712890625">
        <ele>127.8000030517578125</ele>
        <time>2020-08-07T13:14:19.000Z</time>
      </trkpt>
      <trkpt lat="42.39080004394054412841796875" lon="2.99641161225736141204833984375">
        <ele>128.1999969482421875</ele>
        <time>2020-08-07T13:14:25.000Z</time>
      </trkpt>
      <trkpt lat="42.39085963927209377288818359375" lon="2.996309436857700347900390625">
        <ele>128.600006103515625</ele>
        <time>2020-08-07T13:14:29.000Z</time>
      </trkpt>
      <trkpt lat="42.39097916521131992340087890625" lon="2.99614749848842620849609375">
        <ele>129.399993896484375</ele>
        <time>2020-08-07T13:14:36.000Z</time>
      </trkpt>
      <trkpt lat="42.39102065563201904296875" lon="2.9961097799241542816162109375">
        <ele>129.8000030517578125</ele>
        <time>2020-08-07T13:14:38.000Z</time>
      </trkpt>
      <trkpt lat="42.39113976247608661651611328125" lon="2.9959397949278354644775390625">
        <ele>130.1999969482421875</ele>
        <time>2020-08-07T13:14:45.000Z</time>
      </trkpt>
      <trkpt lat="42.3911552689969539642333984375" lon="2.99587567336857318878173828125">
        <ele>130.399993896484375</ele>
        <time>2020-08-07T13:14:47.000Z</time>
      </trkpt>
      <trkpt lat="42.3912189714610576629638671875" lon="2.9956595040857791900634765625">
        <ele>131</ele>
        <time>2020-08-07T13:14:54.000Z</time>
      </trkpt>
      <trkpt lat="42.39131863228976726531982421875" lon="2.99544014967978000640869140625">
        <ele>131.600006103515625</ele>
        <time>2020-08-07T13:15:02.000Z</time>
      </trkpt>
      <trkpt lat="42.39130966365337371826171875" lon="2.9952427558600902557373046875">
        <ele>131.399993896484375</ele>
        <time>2020-08-07T13:15:07.000Z</time>
      </trkpt>
      <trkpt lat="42.39124353043735027313232421875" lon="2.9950015246868133544921875">
        <ele>131.600006103515625</ele>
        <time>2020-08-07T13:15:14.000Z</time>
      </trkpt>
      <trkpt lat="42.39121603779494762420654296875" lon="2.99468510784208774566650390625">
        <ele>132.399993896484375</ele>
        <time>2020-08-07T13:15:23.000Z</time>
      </trkpt>
      <trkpt lat="42.39121712744235992431640625" lon="2.99461117945611476898193359375">
        <ele>132.600006103515625</ele>
        <time>2020-08-07T13:15:25.000Z</time>
      </trkpt>
      <trkpt lat="42.3912213183939456939697265625" lon="2.9943626560270786285400390625">
        <ele>133.1999969482421875</ele>
        <time>2020-08-07T13:15:32.000Z</time>
      </trkpt>
      <trkpt lat="42.39120095036923885345458984375" lon="2.9941665194928646087646484375">
        <ele>133.600006103515625</ele>
        <time>2020-08-07T13:15:38.000Z</time>
      </trkpt>
      <trkpt lat="42.39119441248476505279541015625" lon="2.99413491971790790557861328125">
        <ele>133.600006103515625</ele>
        <time>2020-08-07T13:15:39.000Z</time>
      </trkpt>
      <trkpt lat="42.39118401892483234405517578125" lon="2.99397348426282405853271484375">
        <ele>134.1999969482421875</ele>
        <time>2020-08-07T13:15:44.000Z</time>
      </trkpt>
      <trkpt lat="42.39122173748910427093505859375" lon="2.99386736936867237091064453125">
        <ele>135</ele>
        <time>2020-08-07T13:15:48.000Z</time>
      </trkpt>
      <trkpt lat="42.391248308122158050537109375" lon="2.99382462166249752044677734375">
        <ele>135.1999969482421875</ele>
        <time>2020-08-07T13:15:50.000Z</time>
      </trkpt>
      <trkpt lat="42.3912984319031238555908203125" lon="2.99374558031558990478515625">
        <ele>136.1999969482421875</ele>
        <time>2020-08-07T13:15:54.000Z</time>
      </trkpt>
      <trkpt lat="42.3913363181054592132568359375" lon="2.99365974962711334228515625">
        <ele>137</ele>
        <time>2020-08-07T13:15:58.000Z</time>
      </trkpt>
      <trkpt lat="42.39133724011480808258056640625" lon="2.99363535828888416290283203125">
        <ele>137.399993896484375</ele>
        <time>2020-08-07T13:15:59.000Z</time>
      </trkpt>
      <trkpt lat="42.3913277685642242431640625" lon="2.99356327392160892486572265625">
        <ele>138.399993896484375</ele>
        <time>2020-08-07T13:16:02.000Z</time>
      </trkpt>
      <trkpt lat="42.39131393842399120330810546875" lon="2.993495129048824310302734375">
        <ele>139.600006103515625</ele>
        <time>2020-08-07T13:16:05.000Z</time>
      </trkpt>
      <trkpt lat="42.3913027904927730560302734375" lon="2.993476353585720062255859375">
        <ele>139.8000030517578125</ele>
        <time>2020-08-07T13:16:06.000Z</time>
      </trkpt>
      <trkpt lat="42.39129281602799892425537109375" lon="2.993456907570362091064453125">
        <ele>140</ele>
        <time>2020-08-07T13:16:07.000Z</time>
      </trkpt>
      <trkpt lat="42.3912726156413555145263671875" lon="2.9934171773493289947509765625">
        <ele>140.600006103515625</ele>
        <time>2020-08-07T13:16:09.000Z</time>
      </trkpt>
      <trkpt lat="42.391230203211307525634765625" lon="2.9933377169072628021240234375">
        <ele>141.8000030517578125</ele>
        <time>2020-08-07T13:16:13.000Z</time>
      </trkpt>
      <trkpt lat="42.39122115075588226318359375" lon="2.9933176003396511077880859375">
        <ele>142.1999969482421875</ele>
        <time>2020-08-07T13:16:14.000Z</time>
      </trkpt>
      <trkpt lat="42.39116675220429897308349609375" lon="2.99325046129524707794189453125">
        <ele>142.8000030517578125</ele>
        <time>2020-08-07T13:16:18.000Z</time>
      </trkpt>
      <trkpt lat="42.3911401815712451934814453125" lon="2.99321408383548259735107421875">
        <ele>143</ele>
        <time>2020-08-07T13:16:20.000Z</time>
      </trkpt>
      <trkpt lat="42.391071617603302001953125" lon="2.99310076050460338592529296875">
        <ele>143.8000030517578125</ele>
        <time>2020-08-07T13:16:26.000Z</time>
      </trkpt>
      <trkpt lat="42.3910563625395298004150390625" lon="2.9930832423269748687744140625">
        <ele>144</ele>
        <time>2020-08-07T13:16:27.000Z</time>
      </trkpt>
      <trkpt lat="42.39096164703369140625" lon="2.99297385849058628082275390625">
        <ele>144.399993896484375</ele>
        <time>2020-08-07T13:16:33.000Z</time>
      </trkpt>
      <trkpt lat="42.39081186242401599884033203125" lon="2.99284913577139377593994140625">
        <ele>145</ele>
        <time>2020-08-07T13:16:41.000Z</time>
      </trkpt>
      <trkpt lat="42.39077967591583728790283203125" lon="2.99281083047389984130859375">
        <ele>145.1999969482421875</ele>
        <time>2020-08-07T13:16:43.000Z</time>
      </trkpt>
      <trkpt lat="42.39075000397861003875732421875" lon="2.992680072784423828125">
        <ele>145.8000030517578125</ele>
        <time>2020-08-07T13:16:48.000Z</time>
      </trkpt>
      <trkpt lat="42.39076257683336734771728515625" lon="2.9926302842795848846435546875">
        <ele>146.1999969482421875</ele>
        <time>2020-08-07T13:16:50.000Z</time>
      </trkpt>
      <trkpt lat="42.390807755291461944580078125" lon="2.99253162927925586700439453125">
        <ele>147.1999969482421875</ele>
        <time>2020-08-07T13:16:55.000Z</time>
      </trkpt>
      <trkpt lat="42.3908166401088237762451171875" lon="2.9925075732171535491943359375">
        <ele>147.399993896484375</ele>
        <time>2020-08-07T13:16:56.000Z</time>
      </trkpt>
      <trkpt lat="42.390857376158237457275390625" lon="2.992374636232852935791015625">
        <ele>148.399993896484375</ele>
        <time>2020-08-07T13:17:02.000Z</time>
      </trkpt>
      <trkpt lat="42.3908733017742633819580078125" lon="2.992333732545375823974609375">
        <ele>148.600006103515625</ele>
        <time>2020-08-07T13:17:04.000Z</time>
      </trkpt>
      <trkpt lat="42.39091009832918643951416015625" lon="2.9922567866742610931396484375">
        <ele>149</ele>
        <time>2020-08-07T13:17:08.000Z</time>
      </trkpt>
      <trkpt lat="42.3909349925816059112548828125" lon="2.9921932518482208251953125">
        <ele>149.600006103515625</ele>
        <time>2020-08-07T13:17:11.000Z</time>
      </trkpt>
      <trkpt lat="42.39096944220364093780517578125" lon="2.992120496928691864013671875">
        <ele>150.600006103515625</ele>
        <time>2020-08-07T13:17:15.000Z</time>
      </trkpt>
      <trkpt lat="42.39100925624370574951171875" lon="2.9920549504458904266357421875">
        <ele>151.8000030517578125</ele>
        <time>2020-08-07T13:17:19.000Z</time>
      </trkpt>
      <trkpt lat="42.39105979911983013153076171875" lon="2.991991080343723297119140625">
        <ele>152.8000030517578125</ele>
        <time>2020-08-07T13:17:23.000Z</time>
      </trkpt>
      <trkpt lat="42.3911747150123119354248046875" lon="2.99188907258212566375732421875">
        <ele>153.399993896484375</ele>
        <time>2020-08-07T13:17:30.000Z</time>
      </trkpt>
      <trkpt lat="42.3913081549108028411865234375" lon="2.99174155108630657196044921875">
        <ele>153.1999969482421875</ele>
        <time>2020-08-07T13:17:36.000Z</time>
      </trkpt>
      <trkpt lat="42.391470260918140411376953125" lon="2.9915118031203746795654296875">
        <ele>153.399993896484375</ele>
        <time>2020-08-07T13:17:44.000Z</time>
      </trkpt>
      <trkpt lat="42.39155986346304416656494140625" lon="2.991368807852268218994140625">
        <ele>153.600006103515625</ele>
        <time>2020-08-07T13:17:49.000Z</time>
      </trkpt>
      <trkpt lat="42.39167788065969944000244140625" lon="2.99117040820419788360595703125">
        <ele>153.8000030517578125</ele>
        <time>2020-08-07T13:17:56.000Z</time>
      </trkpt>
      <trkpt lat="42.39170663058757781982421875" lon="2.9911158420145511627197265625">
        <ele>154</ele>
        <time>2020-08-07T13:17:58.000Z</time>
      </trkpt>
      <trkpt lat="42.3917530663311481475830078125" lon="2.9910353757441043853759765625">
        <ele>154.1999969482421875</ele>
        <time>2020-08-07T13:18:01.000Z</time>
      </trkpt>
      <trkpt lat="42.3918751068413257598876953125" lon="2.9908047057688236236572265625">
        <ele>155</ele>
        <time>2020-08-07T13:18:09.000Z</time>
      </trkpt>
      <trkpt lat="42.3919974826276302337646484375" lon="2.99059440381824970245361328125">
        <ele>156</ele>
        <time>2020-08-07T13:18:17.000Z</time>
      </trkpt>
      <trkpt lat="42.39207602106034755706787109375" lon="2.9904124327003955841064453125">
        <ele>157</ele>
        <time>2020-08-07T13:18:24.000Z</time>
      </trkpt>
      <trkpt lat="42.3921543918550014495849609375" lon="2.9902535118162631988525390625">
        <ele>158.1999969482421875</ele>
        <time>2020-08-07T13:18:30.000Z</time>
      </trkpt>
      <trkpt lat="42.39217006601393222808837890625" lon="2.9902253486216068267822265625">
        <ele>158.1999969482421875</ele>
        <time>2020-08-07T13:18:31.000Z</time>
      </trkpt>
      <trkpt lat="42.39229562692344188690185546875" lon="2.989945225417613983154296875">
        <ele>159.1999969482421875</ele>
        <time>2020-08-07T13:18:40.000Z</time>
      </trkpt>
      <trkpt lat="42.39231188781559467315673828125" lon="2.98991446383297443389892578125">
        <ele>159.1999969482421875</ele>
        <time>2020-08-07T13:18:41.000Z</time>
      </trkpt>
      <trkpt lat="42.39244851283729076385498046875" lon="2.9896912537515163421630859375">
        <ele>159</ele>
        <time>2020-08-07T13:18:48.000Z</time>
      </trkpt>
      <trkpt lat="42.39259083755314350128173828125" lon="2.98947357572615146636962890625">
        <ele>158.1999969482421875</ele>
        <time>2020-08-07T13:18:53.000Z</time>
      </trkpt>
      <trkpt lat="42.39262537099421024322509765625" lon="2.98942144028842449188232421875">
        <ele>158</ele>
        <time>2020-08-07T13:18:54.000Z</time>
      </trkpt>
      <trkpt lat="42.3927069269120693206787109375" lon="2.9893170855939388275146484375">
        <ele>157.1999969482421875</ele>
        <time>2020-08-07T13:18:56.000Z</time>
      </trkpt>
      <trkpt lat="42.3928457312285900115966796875" lon="2.98916445113718509674072265625">
        <ele>156</ele>
        <time>2020-08-07T13:18:59.000Z</time>
      </trkpt>
      <trkpt lat="42.39289392717182636260986328125" lon="2.98911818303167819976806640625">
        <ele>155.399993896484375</ele>
        <time>2020-08-07T13:19:00.000Z</time>
      </trkpt>
      <trkpt lat="42.3929392732679843902587890625" lon="2.98907057382166385650634765625">
        <ele>155</ele>
        <time>2020-08-07T13:19:01.000Z</time>
      </trkpt>
      <trkpt lat="42.39302099682390689849853515625" lon="2.98895255662500858306884765625">
        <ele>153.399993896484375</ele>
        <time>2020-08-07T13:19:03.000Z</time>
      </trkpt>
      <trkpt lat="42.39305754192173480987548828125" lon="2.9888751916587352752685546875">
        <ele>152.8000030517578125</ele>
        <time>2020-08-07T13:19:04.000Z</time>
      </trkpt>
      <trkpt lat="42.39311738871037960052490234375" lon="2.98869657330214977264404296875">
        <ele>152</ele>
        <time>2020-08-07T13:19:06.000Z</time>
      </trkpt>
      <trkpt lat="42.3931417800486087799072265625" lon="2.98859733156859874725341796875">
        <ele>151.399993896484375</ele>
        <time>2020-08-07T13:19:07.000Z</time>
      </trkpt>
      <trkpt lat="42.39316332153975963592529296875" lon="2.9884923063218593597412109375">
        <ele>151</ele>
        <time>2020-08-07T13:19:08.000Z</time>
      </trkpt>
      <trkpt lat="42.3931910656392574310302734375" lon="2.988267503678798675537109375">
        <ele>149.600006103515625</ele>
        <time>2020-08-07T13:19:10.000Z</time>
      </trkpt>
      <trkpt lat="42.3932088352739810943603515625" lon="2.9880671761929988861083984375">
        <ele>148.399993896484375</ele>
        <time>2020-08-07T13:19:12.000Z</time>
      </trkpt>
      <trkpt lat="42.39322350360453128814697265625" lon="2.98798092640936374664306640625">
        <ele>148</ele>
        <time>2020-08-07T13:19:13.000Z</time>
      </trkpt>
      <trkpt lat="42.393347807228565216064453125" lon="2.98782183788716793060302734375">
        <ele>147.1999969482421875</ele>
        <time>2020-08-07T13:19:16.000Z</time>
      </trkpt>
      <trkpt lat="42.39346808753907680511474609375" lon="2.98763073049485683441162109375">
        <ele>146.399993896484375</ele>
        <time>2020-08-07T13:19:19.000Z</time>
      </trkpt>
      <trkpt lat="42.39350161515176296234130859375" lon="2.98754942603409290313720703125">
        <ele>146.1999969482421875</ele>
        <time>2020-08-07T13:19:20.000Z</time>
      </trkpt>
      <trkpt lat="42.393538244068622589111328125" lon="2.9874640144407749176025390625">
        <ele>145.8000030517578125</ele>
        <time>2020-08-07T13:19:21.000Z</time>
      </trkpt>
      <trkpt lat="42.39364963956177234649658203125" lon="2.9871887527406215667724609375">
        <ele>144.8000030517578125</ele>
        <time>2020-08-07T13:19:24.000Z</time>
      </trkpt>
      <trkpt lat="42.3936778865754604339599609375" lon="2.9870890080928802490234375">
        <ele>144.600006103515625</ele>
        <time>2020-08-07T13:19:25.000Z</time>
      </trkpt>
      <trkpt lat="42.39370177499949932098388671875" lon="2.98688021488487720489501953125">
        <ele>143.8000030517578125</ele>
        <time>2020-08-07T13:19:27.000Z</time>
      </trkpt>
      <trkpt lat="42.39369557239115238189697265625" lon="2.98666111193597316741943359375">
        <ele>143</ele>
        <time>2020-08-07T13:19:29.000Z</time>
      </trkpt>
      <trkpt lat="42.39369289018213748931884765625" lon="2.98654711805284023284912109375">
        <ele>142.8000030517578125</ele>
        <time>2020-08-07T13:19:30.000Z</time>
      </trkpt>
      <trkpt lat="42.393697835505008697509765625" lon="2.986430861055850982666015625">
        <ele>142.1999969482421875</ele>
        <time>2020-08-07T13:19:31.000Z</time>
      </trkpt>
      <trkpt lat="42.393712587654590606689453125" lon="2.98631510697305202484130859375">
        <ele>141.8000030517578125</ele>
        <time>2020-08-07T13:19:32.000Z</time>
      </trkpt>
      <trkpt lat="42.39373278804123401641845703125" lon="2.9861993528902530670166015625">
        <ele>141.1999969482421875</ele>
        <time>2020-08-07T13:19:33.000Z</time>
      </trkpt>
      <trkpt lat="42.3937821574509143829345703125" lon="2.98596742562949657440185546875">
        <ele>140.399993896484375</ele>
        <time>2020-08-07T13:19:35.000Z</time>
      </trkpt>
      <trkpt lat="42.3938141763210296630859375" lon="2.98586650751531124114990234375">
        <ele>140</ele>
        <time>2020-08-07T13:19:36.000Z</time>
      </trkpt>
      <trkpt lat="42.39384560845792293548583984375" lon="2.9857785813510417938232421875">
        <ele>139.600006103515625</ele>
        <time>2020-08-07T13:19:37.000Z</time>
      </trkpt>
      <trkpt lat="42.3938676528632640838623046875" lon="2.98569786362349987030029296875">
        <ele>139.399993896484375</ele>
        <time>2020-08-07T13:19:38.000Z</time>
      </trkpt>
      <trkpt lat="42.39386522211134433746337890625" lon="2.9855422116816043853759765625">
        <ele>139</ele>
        <time>2020-08-07T13:19:40.000Z</time>
      </trkpt>
      <trkpt lat="42.39381761290132999420166015625" lon="2.9853983782231807708740234375">
        <ele>138.8000030517578125</ele>
        <time>2020-08-07T13:19:43.000Z</time>
      </trkpt>
      <trkpt lat="42.393805123865604400634765625" lon="2.98536476679146289825439453125">
        <ele>139</ele>
        <time>2020-08-07T13:19:44.000Z</time>
      </trkpt>
      <trkpt lat="42.393768243491649627685546875" lon="2.985194027423858642578125">
        <ele>140</ele>
        <time>2020-08-07T13:19:49.000Z</time>
      </trkpt>
      <trkpt lat="42.39376028068363666534423828125" lon="2.984984479844570159912109375">
        <ele>140.399993896484375</ele>
        <time>2020-08-07T13:19:55.000Z</time>
      </trkpt>
      <trkpt lat="42.39375793375074863433837890625" lon="2.98488247208297252655029296875">
        <ele>141.1999969482421875</ele>
        <time>2020-08-07T13:19:58.000Z</time>
      </trkpt>
      <trkpt lat="42.39375986158847808837890625" lon="2.9848173446953296661376953125">
        <ele>141.8000030517578125</ele>
        <time>2020-08-07T13:20:00.000Z</time>
      </trkpt>
      <trkpt lat="42.3937848396599292755126953125" lon="2.98463168554008007049560546875">
        <ele>143</ele>
        <time>2020-08-07T13:20:06.000Z</time>
      </trkpt>
      <trkpt lat="42.39382314495742321014404296875" lon="2.9844656400382518768310546875">
        <ele>144</ele>
        <time>2020-08-07T13:20:11.000Z</time>
      </trkpt>
      <trkpt lat="42.393835298717021942138671875" lon="2.98439715988934040069580078125">
        <ele>144.399993896484375</ele>
        <time>2020-08-07T13:20:13.000Z</time>
      </trkpt>
      <trkpt lat="42.3938436806201934814453125" lon="2.98429012298583984375">
        <ele>145</ele>
        <time>2020-08-07T13:20:16.000Z</time>
      </trkpt>
      <trkpt lat="42.39386773668229579925537109375" lon="2.98404864035546779632568359375">
        <ele>145.399993896484375</ele>
        <time>2020-08-07T13:20:22.000Z</time>
      </trkpt>
      <trkpt lat="42.39385399036109447479248046875" lon="2.98377706669270992279052734375">
        <ele>145</ele>
        <time>2020-08-07T13:20:27.000Z</time>
      </trkpt>
      <trkpt lat="42.39384896121919155120849609375" lon="2.98371587879955768585205078125">
        <ele>144.8000030517578125</ele>
        <time>2020-08-07T13:20:28.000Z</time>
      </trkpt>
      <trkpt lat="42.3938542418181896209716796875" lon="2.98343625850975513458251953125">
        <ele>144.399993896484375</ele>
        <time>2020-08-07T13:20:33.000Z</time>
      </trkpt>
      <trkpt lat="42.39387226291000843048095703125" lon="2.98309318721294403076171875">
        <ele>145</ele>
        <time>2020-08-07T13:20:40.000Z</time>
      </trkpt>
      <trkpt lat="42.39390201866626739501953125" lon="2.9826796241104602813720703125">
        <ele>144.1999969482421875</ele>
        <time>2020-08-07T13:20:47.000Z</time>
      </trkpt>
      <trkpt lat="42.393903024494647979736328125" lon="2.98261919058859348297119140625">
        <ele>143.8000030517578125</ele>
        <time>2020-08-07T13:20:48.000Z</time>
      </trkpt>
      <trkpt lat="42.393896318972110748291015625" lon="2.98229657113552093505859375">
        <ele>143.8000030517578125</ele>
        <time>2020-08-07T13:20:54.000Z</time>
      </trkpt>
      <trkpt lat="42.3939031921327114105224609375" lon="2.9819363169372081756591796875">
        <ele>143.1999969482421875</ele>
        <time>2020-08-07T13:21:01.000Z</time>
      </trkpt>
      <trkpt lat="42.3938522301614284515380859375" lon="2.9816285334527492523193359375">
        <ele>143.8000030517578125</ele>
        <time>2020-08-07T13:21:07.000Z</time>
      </trkpt>
      <trkpt lat="42.393810488283634185791015625" lon="2.98148176632821559906005859375">
        <ele>142.8000030517578125</ele>
        <time>2020-08-07T13:21:10.000Z</time>
      </trkpt>
      <trkpt lat="42.39380051381886005401611328125" lon="2.981393001973628997802734375">
        <ele>142.600006103515625</ele>
        <time>2020-08-07T13:21:12.000Z</time>
      </trkpt>
      <trkpt lat="42.39378861151635646820068359375" lon="2.98107641749083995819091796875">
        <ele>143.600006103515625</ele>
        <time>2020-08-07T13:21:20.000Z</time>
      </trkpt>
      <trkpt lat="42.3938106559216976165771484375" lon="2.9807997308671474456787109375">
        <ele>143.399993896484375</ele>
        <time>2020-08-07T13:21:26.000Z</time>
      </trkpt>
      <trkpt lat="42.393873520195484161376953125" lon="2.980304695665836334228515625">
        <ele>142.600006103515625</ele>
        <time>2020-08-07T13:21:35.000Z</time>
      </trkpt>
      <trkpt lat="42.393875531852245330810546875" lon="2.9801206290721893310546875">
        <ele>142</ele>
        <time>2020-08-07T13:21:38.000Z</time>
      </trkpt>
      <trkpt lat="42.3938810639083385467529296875" lon="2.979994229972362518310546875">
        <ele>141.600006103515625</ele>
        <time>2020-08-07T13:21:40.000Z</time>
      </trkpt>
      <trkpt lat="42.39389003254473209381103515625" lon="2.97993220388889312744140625">
        <ele>141.399993896484375</ele>
        <time>2020-08-07T13:21:41.000Z</time>
      </trkpt>
      <trkpt lat="42.39390562288463115692138671875" lon="2.97974704764783382415771484375">
        <ele>141.399993896484375</ele>
        <time>2020-08-07T13:21:44.000Z</time>
      </trkpt>
      <trkpt lat="42.39388265646994113922119140625" lon="2.97964160330593585968017578125">
        <ele>141.399993896484375</ele>
        <time>2020-08-07T13:21:46.000Z</time>
      </trkpt>
      <trkpt lat="42.39383571781218051910400390625" lon="2.979563064873218536376953125">
        <ele>141</ele>
        <time>2020-08-07T13:21:48.000Z</time>
      </trkpt>
      <trkpt lat="42.39381174556910991668701171875" lon="2.97952844761312007904052734375">
        <ele>140.8000030517578125</ele>
        <time>2020-08-07T13:21:49.000Z</time>
      </trkpt>
      <trkpt lat="42.3937429301440715789794921875" lon="2.97942451201379299163818359375">
        <ele>140.8000030517578125</ele>
        <time>2020-08-07T13:21:52.000Z</time>
      </trkpt>
      <trkpt lat="42.39361091516911983489990234375" lon="2.9792467318475246429443359375">
        <ele>140.600006103515625</ele>
        <time>2020-08-07T13:21:58.000Z</time>
      </trkpt>
      <trkpt lat="42.39344679750502109527587890625" lon="2.97903358004987239837646484375">
        <ele>140.8000030517578125</ele>
        <time>2020-08-07T13:22:05.000Z</time>
      </trkpt>
      <trkpt lat="42.393371276557445526123046875" lon="2.9788360185921192169189453125">
        <ele>140</ele>
        <time>2020-08-07T13:22:10.000Z</time>
      </trkpt>
      <trkpt lat="42.39326901733875274658203125" lon="2.97873518429696559906005859375">
        <ele>140</ele>
        <time>2020-08-07T13:22:14.000Z</time>
      </trkpt>
      <trkpt lat="42.393107749521732330322265625" lon="2.9786093719303607940673828125">
        <ele>140.1999969482421875</ele>
        <time>2020-08-07T13:22:20.000Z</time>
      </trkpt>
      <trkpt lat="42.39297254942357540130615234375" lon="2.97855162061750888824462890625">
        <ele>140.600006103515625</ele>
        <time>2020-08-07T13:22:25.000Z</time>
      </trkpt>
      <trkpt lat="42.39278261549770832061767578125" lon="2.97862119041383266448974609375">
        <ele>140.8000030517578125</ele>
        <time>2020-08-07T13:22:32.000Z</time>
      </trkpt>
      <trkpt lat="42.39275361411273479461669921875" lon="2.97862973995506763458251953125">
        <ele>141</ele>
        <time>2020-08-07T13:22:33.000Z</time>
      </trkpt>
      <trkpt lat="42.39254808984696865081787109375" lon="2.97862186096608638763427734375">
        <ele>141.8000030517578125</ele>
        <time>2020-08-07T13:22:40.000Z</time>
      </trkpt>
      <trkpt lat="42.3924712277948856353759765625" lon="2.97857073135673999786376953125">
        <ele>142</ele>
        <time>2020-08-07T13:22:43.000Z</time>
      </trkpt>
      <trkpt lat="42.39239134825766086578369140625" lon="2.9784963838756084442138671875">
        <ele>142</ele>
        <time>2020-08-07T13:22:46.000Z</time>
      </trkpt>
      <trkpt lat="42.392283976078033447265625" lon="2.97831743024289608001708984375">
        <ele>141</ele>
        <time>2020-08-07T13:22:51.000Z</time>
      </trkpt>
      <trkpt lat="42.392282299697399139404296875" lon="2.97827920876443386077880859375">
        <ele>140.8000030517578125</ele>
        <time>2020-08-07T13:22:52.000Z</time>
      </trkpt>
      <trkpt lat="42.39231440238654613494873046875" lon="2.97816940583288669586181640625">
        <ele>140.1999969482421875</ele>
        <time>2020-08-07T13:22:55.000Z</time>
      </trkpt>
      <trkpt lat="42.39235312677919864654541015625" lon="2.978080809116363525390625">
        <ele>139.600006103515625</ele>
        <time>2020-08-07T13:22:58.000Z</time>
      </trkpt>
      <trkpt lat="42.3923765122890472412109375" lon="2.9780231416225433349609375">
        <ele>138.8000030517578125</ele>
        <time>2020-08-07T13:23:00.000Z</time>
      </trkpt>
      <trkpt lat="42.3923927731812000274658203125" lon="2.9779480397701263427734375">
        <ele>138.1999969482421875</ele>
        <time>2020-08-07T13:23:02.000Z</time>
      </trkpt>
      <trkpt lat="42.39243091084063053131103515625" lon="2.97777704894542694091796875">
        <ele>137</ele>
        <time>2020-08-07T13:23:06.000Z</time>
      </trkpt>
      <trkpt lat="42.39246695302426815032958984375" lon="2.97767780721187591552734375">
        <ele>136.8000030517578125</ele>
        <time>2020-08-07T13:23:08.000Z</time>
      </trkpt>
      <trkpt lat="42.39251892082393169403076171875" lon="2.9775857739150524139404296875">
        <ele>136</ele>
        <time>2020-08-07T13:23:10.000Z</time>
      </trkpt>
      <trkpt lat="42.39254725165665149688720703125" lon="2.977550067007541656494140625">
        <ele>135.600006103515625</ele>
        <time>2020-08-07T13:23:11.000Z</time>
      </trkpt>
      <trkpt lat="42.3926070146262645721435546875" lon="2.97750321216881275177001953125">
        <ele>134.8000030517578125</ele>
        <time>2020-08-07T13:23:13.000Z</time>
      </trkpt>
      <trkpt lat="42.3926371894776821136474609375" lon="2.97748326323926448822021484375">
        <ele>134.600006103515625</ele>
        <time>2020-08-07T13:23:14.000Z</time>
      </trkpt>
      <trkpt lat="42.392699383199214935302734375" lon="2.977440096437931060791015625">
        <ele>134.600006103515625</ele>
        <time>2020-08-07T13:23:16.000Z</time>
      </trkpt>
      <trkpt lat="42.3928008042275905609130859375" lon="2.97726206481456756591796875">
        <ele>133.8000030517578125</ele>
        <time>2020-08-07T13:23:21.000Z</time>
      </trkpt>
      <trkpt lat="42.39274120889604091644287109375" lon="2.9770119488239288330078125">
        <ele>132.8000030517578125</ele>
        <time>2020-08-07T13:23:26.000Z</time>
      </trkpt>
      <trkpt lat="42.39272964186966419219970703125" lon="2.976959645748138427734375">
        <ele>132.600006103515625</ele>
        <time>2020-08-07T13:23:27.000Z</time>
      </trkpt>
      <trkpt lat="42.39265353418886661529541015625" lon="2.97660492360591888427734375">
        <ele>131.600006103515625</ele>
        <time>2020-08-07T13:23:34.000Z</time>
      </trkpt>
      <trkpt lat="42.3925882391631603240966796875" lon="2.97625355422496795654296875">
        <ele>130</ele>
        <time>2020-08-07T13:23:41.000Z</time>
      </trkpt>
      <trkpt lat="42.3925218544900417327880859375" lon="2.97605104744434356689453125">
        <ele>128.8000030517578125</ele>
        <time>2020-08-07T13:23:46.000Z</time>
      </trkpt>
      <trkpt lat="42.3923656158149242401123046875" lon="2.97592624090611934661865234375">
        <ele>127.8000030517578125</ele>
        <time>2020-08-07T13:23:51.000Z</time>
      </trkpt>
      <trkpt lat="42.39233602769672870635986328125" lon="2.975907884538173675537109375">
        <ele>127</ele>
        <time>2020-08-07T13:23:52.000Z</time>
      </trkpt>
      <trkpt lat="42.39228439517319202423095703125" lon="2.975877709686756134033203125">
        <ele>125.8000030517578125</ele>
        <time>2020-08-07T13:23:54.000Z</time>
      </trkpt>
      <trkpt lat="42.39225505851209163665771484375" lon="2.97585767693817615509033203125">
        <ele>125.1999969482421875</ele>
        <time>2020-08-07T13:23:56.000Z</time>
      </trkpt>
      <trkpt lat="42.3922529630362987518310546875" lon="2.9758530668914318084716796875">
        <ele>125.1999969482421875</ele>
        <time>2020-08-07T13:24:02.000Z</time>
      </trkpt>
      <trkpt lat="42.3922522924840450286865234375" lon="2.97583739273250102996826171875">
        <ele>125.1999969482421875</ele>
        <time>2020-08-07T13:24:05.000Z</time>
      </trkpt>
      <trkpt lat="42.39226520061492919921875" lon="2.9757984168827533721923828125">
        <ele>125</ele>
        <time>2020-08-07T13:24:07.000Z</time>
      </trkpt>
      <trkpt lat="42.39232446067035198211669921875" lon="2.97567595727741718292236328125">
        <ele>124.59999847412109375</ele>
        <time>2020-08-07T13:24:11.000Z</time>
      </trkpt>
      <trkpt lat="42.3923636041581630706787109375" lon="2.9756279289722442626953125">
        <ele>124</ele>
        <time>2020-08-07T13:24:13.000Z</time>
      </trkpt>
      <trkpt lat="42.392373494803905487060546875" lon="2.97557705081999301910400390625">
        <ele>123.40000152587890625</ele>
        <time>2020-08-07T13:24:15.000Z</time>
      </trkpt>
      <trkpt lat="42.39231884479522705078125" lon="2.97548635862767696380615234375">
        <ele>122.40000152587890625</ele>
        <time>2020-08-07T13:24:19.000Z</time>
      </trkpt>
      <trkpt lat="42.39226629026234149932861328125" lon="2.97544796951115131378173828125">
        <ele>122.1999969482421875</ele>
        <time>2020-08-07T13:24:21.000Z</time>
      </trkpt>
      <trkpt lat="42.3921500332653522491455078125" lon="2.97539013437926769256591796875">
        <ele>122.1999969482421875</ele>
        <time>2020-08-07T13:24:25.000Z</time>
      </trkpt>
      <trkpt lat="42.39201013930141925811767578125" lon="2.9753471352159976959228515625">
        <ele>121.8000030517578125</ele>
        <time>2020-08-07T13:24:30.000Z</time>
      </trkpt>
      <trkpt lat="42.39174686372280120849609375" lon="2.9752148687839508056640625">
        <ele>121.59999847412109375</ele>
        <time>2020-08-07T13:24:38.000Z</time>
      </trkpt>
      <trkpt lat="42.3914082348346710205078125" lon="2.975050918757915496826171875">
        <ele>121.40000152587890625</ele>
        <time>2020-08-07T13:24:47.000Z</time>
      </trkpt>
      <trkpt lat="42.39122224040329456329345703125" lon="2.97496416606009006500244140625">
        <ele>121.1999969482421875</ele>
        <time>2020-08-07T13:24:52.000Z</time>
      </trkpt>
      <trkpt lat="42.391088716685771942138671875" lon="2.97490364871919155120849609375">
        <ele>120.8000030517578125</ele>
        <time>2020-08-07T13:24:56.000Z</time>
      </trkpt>
      <trkpt lat="42.39083700813353061676025390625" lon="2.974830307066440582275390625">
        <ele>121</ele>
        <time>2020-08-07T13:25:03.000Z</time>
      </trkpt>
      <trkpt lat="42.3906205035746097564697265625" lon="2.9747557081282138824462890625">
        <ele>120.59999847412109375</ele>
        <time>2020-08-07T13:25:09.000Z</time>
      </trkpt>
      <trkpt lat="42.39057985134422779083251953125" lon="2.97473517246544361114501953125">
        <ele>120.59999847412109375</ele>
        <time>2020-08-07T13:25:10.000Z</time>
      </trkpt>
      <trkpt lat="42.3904974572360515594482421875" lon="2.9746933467686176300048828125">
        <ele>120.1999969482421875</ele>
        <time>2020-08-07T13:25:12.000Z</time>
      </trkpt>
      <trkpt lat="42.39045596681535243988037109375" lon="2.9746796004474163055419921875">
        <ele>120.1999969482421875</ele>
        <time>2020-08-07T13:25:13.000Z</time>
      </trkpt>
      <trkpt lat="42.39033174701035022735595703125" lon="2.9746692068874835968017578125">
        <ele>120</ele>
        <time>2020-08-07T13:25:16.000Z</time>
      </trkpt>
      <trkpt lat="42.38999613560736179351806640625" lon="2.9746909998357295989990234375">
        <ele>119.40000152587890625</ele>
        <time>2020-08-07T13:25:24.000Z</time>
      </trkpt>
      <trkpt lat="42.3898098058998584747314453125" lon="2.974702231585979461669921875">
        <ele>119</ele>
        <time>2020-08-07T13:25:28.000Z</time>
      </trkpt>
      <trkpt lat="42.38976068794727325439453125" lon="2.97469795681536197662353515625">
        <ele>118.8000030517578125</ele>
        <time>2020-08-07T13:25:29.000Z</time>
      </trkpt>
      <trkpt lat="42.3897122405469417572021484375" lon="2.97469108365476131439208984375">
        <ele>118.59999847412109375</ele>
        <time>2020-08-07T13:25:30.000Z</time>
      </trkpt>
      <trkpt lat="42.38942180760204792022705078125" lon="2.97463643364608287811279296875">
        <ele>118.40000152587890625</ele>
        <time>2020-08-07T13:25:36.000Z</time>
      </trkpt>
      <trkpt lat="42.38933145068585872650146484375" lon="2.9746236093342304229736328125">
        <ele>118.1999969482421875</ele>
        <time>2020-08-07T13:25:38.000Z</time>
      </trkpt>
      <trkpt lat="42.3890524171292781829833984375" lon="2.97458530403673648834228515625">
        <ele>118</ele>
        <time>2020-08-07T13:25:44.000Z</time>
      </trkpt>
      <trkpt lat="42.3889545165002346038818359375" lon="2.974580861628055572509765625">
        <ele>117.8000030517578125</ele>
        <time>2020-08-07T13:25:46.000Z</time>
      </trkpt>
      <trkpt lat="42.38890565000474452972412109375" lon="2.974572479724884033203125">
        <ele>117.59999847412109375</ele>
        <time>2020-08-07T13:25:47.000Z</time>
      </trkpt>
      <trkpt lat="42.3887769877910614013671875" lon="2.97447365708649158477783203125">
        <ele>117.40000152587890625</ele>
        <time>2020-08-07T13:25:50.000Z</time>
      </trkpt>
      <trkpt lat="42.3887402750551700592041015625" lon="2.97442185692489147186279296875">
        <ele>117.1999969482421875</ele>
        <time>2020-08-07T13:25:51.000Z</time>
      </trkpt>
      <trkpt lat="42.3886983655393123626708984375" lon="2.97437525354325771331787109375">
        <ele>116.8000030517578125</ele>
        <time>2020-08-07T13:25:52.000Z</time>
      </trkpt>
      <trkpt lat="42.38859266974031925201416015625" lon="2.97432714141905307769775390625">
        <ele>116.59999847412109375</ele>
        <time>2020-08-07T13:25:54.000Z</time>
      </trkpt>
      <trkpt lat="42.388476245105266571044921875" lon="2.97432362101972103118896484375">
        <ele>116.1999969482421875</ele>
        <time>2020-08-07T13:25:56.000Z</time>
      </trkpt>
      <trkpt lat="42.38830047659575939178466796875" lon="2.97434206120669841766357421875">
        <ele>116.1999969482421875</ele>
        <time>2020-08-07T13:25:59.000Z</time>
      </trkpt>
      <trkpt lat="42.38818514160811901092529296875" lon="2.97435723245143890380859375">
        <ele>115.59999847412109375</ele>
        <time>2020-08-07T13:26:01.000Z</time>
      </trkpt>
      <trkpt lat="42.3880241252481937408447265625" lon="2.97442051582038402557373046875">
        <ele>115.40000152587890625</ele>
        <time>2020-08-07T13:26:04.000Z</time>
      </trkpt>
      <trkpt lat="42.38765004090964794158935546875" lon="2.97452889382839202880859375">
        <ele>114.59999847412109375</ele>
        <time>2020-08-07T13:26:11.000Z</time>
      </trkpt>
      <trkpt lat="42.38736622966825962066650390625" lon="2.97462184913456439971923828125">
        <ele>113.40000152587890625</ele>
        <time>2020-08-07T13:26:16.000Z</time>
      </trkpt>
      <trkpt lat="42.3873125016689300537109375" lon="2.974639870226383209228515625">
        <ele>113</ele>
        <time>2020-08-07T13:26:17.000Z</time>
      </trkpt>
      <trkpt lat="42.3872147686779499053955078125" lon="2.97467105090618133544921875">
        <ele>112</ele>
        <time>2020-08-07T13:26:19.000Z</time>
      </trkpt>
      <trkpt lat="42.38717101514339447021484375" lon="2.9746896587312221527099609375">
        <ele>111.8000030517578125</ele>
        <time>2020-08-07T13:26:20.000Z</time>
      </trkpt>
      <trkpt lat="42.38709566183388233184814453125" lon="2.97472880221903324127197265625">
        <ele>111.59999847412109375</ele>
        <time>2020-08-07T13:26:22.000Z</time>
      </trkpt>
      <trkpt lat="42.38701343536376953125" lon="2.97474757768213748931884765625">
        <ele>111.40000152587890625</ele>
        <time>2020-08-07T13:26:25.000Z</time>
      </trkpt>
      <trkpt lat="42.387004382908344268798828125" lon="2.97472276724874973297119140625">
        <ele>111.1999969482421875</ele>
        <time>2020-08-07T13:26:26.000Z</time>
      </trkpt>
      <trkpt lat="42.38701385445892810821533203125" lon="2.974694184958934783935546875">
        <ele>110.8000030517578125</ele>
        <time>2020-08-07T13:26:27.000Z</time>
      </trkpt>
      <trkpt lat="42.38706506788730621337890625" lon="2.9746598191559314727783203125">
        <ele>110.8000030517578125</ele>
        <time>2020-08-07T13:26:29.000Z</time>
      </trkpt>
      <trkpt lat="42.38710203208029270172119140625" lon="2.9746464081108570098876953125">
        <ele>110.59999847412109375</ele>
        <time>2020-08-07T13:26:30.000Z</time>
      </trkpt>
      <trkpt lat="42.38714151084423065185546875" lon="2.974624447524547576904296875">
        <ele>110.40000152587890625</ele>
        <time>2020-08-07T13:26:31.000Z</time>
      </trkpt>
      <trkpt lat="42.38721217028796672821044921875" lon="2.97454356215894222259521484375">
        <ele>110</ele>
        <time>2020-08-07T13:26:33.000Z</time>
      </trkpt>
      <trkpt lat="42.3872347176074981689453125" lon="2.97449109144508838653564453125">
        <ele>109.8000030517578125</ele>
        <time>2020-08-07T13:26:34.000Z</time>
      </trkpt>
      <trkpt lat="42.38727838732302188873291015625" lon="2.97433577477931976318359375">
        <ele>109.40000152587890625</ele>
        <time>2020-08-07T13:26:37.000Z</time>
      </trkpt>
      <trkpt lat="42.38738383166491985321044921875" lon="2.974170148372650146484375">
        <ele>109.8000030517578125</ele>
        <time>2020-08-07T13:26:42.000Z</time>
      </trkpt>
      <trkpt lat="42.38750302232801914215087890625" lon="2.97402790747582912445068359375">
        <ele>110.8000030517578125</ele>
        <time>2020-08-07T13:26:48.000Z</time>
      </trkpt>
      <trkpt lat="42.3875426687300205230712890625" lon="2.97398365102708339691162109375">
        <ele>111.1999969482421875</ele>
        <time>2020-08-07T13:26:50.000Z</time>
      </trkpt>
      <trkpt lat="42.38762891851365566253662109375" lon="2.9738564975559711456298828125">
        <ele>112.1999969482421875</ele>
        <time>2020-08-07T13:26:55.000Z</time>
      </trkpt>
      <trkpt lat="42.38770569674670696258544921875" lon="2.9737726785242557525634765625">
        <ele>113.1999969482421875</ele>
        <time>2020-08-07T13:26:59.000Z</time>
      </trkpt>
      <trkpt lat="42.387798987329006195068359375" lon="2.9736627079546451568603515625">
        <ele>114.40000152587890625</ele>
        <time>2020-08-07T13:27:04.000Z</time>
      </trkpt>
      <trkpt lat="42.3878209479153156280517578125" lon="2.97364669851958751678466796875">
        <ele>114.40000152587890625</ele>
        <time>2020-08-07T13:27:05.000Z</time>
      </trkpt>
      <trkpt lat="42.3879379592835903167724609375" lon="2.97357679344713687896728515625">
        <ele>115.40000152587890625</ele>
        <time>2020-08-07T13:27:10.000Z</time>
      </trkpt>
      <trkpt lat="42.38803124986588954925537109375" lon="2.97352566383779048919677734375">
        <ele>116</ele>
        <time>2020-08-07T13:27:14.000Z</time>
      </trkpt>
      <trkpt lat="42.3880948685109615325927734375" lon="2.97348643653094768524169921875">
        <ele>116.40000152587890625</ele>
        <time>2020-08-07T13:27:17.000Z</time>
      </trkpt>
      <trkpt lat="42.38817022182047367095947265625" lon="2.97342189587652683258056640625">
        <ele>116.8000030517578125</ele>
        <time>2020-08-07T13:27:21.000Z</time>
      </trkpt>
      <trkpt lat="42.3882397077977657318115234375" lon="2.97337864525616168975830078125">
        <ele>117.40000152587890625</ele>
        <time>2020-08-07T13:27:25.000Z</time>
      </trkpt>
      <trkpt lat="42.38828941248357295989990234375" lon="2.97333187423646450042724609375">
        <ele>118</ele>
        <time>2020-08-07T13:27:28.000Z</time>
      </trkpt>
      <trkpt lat="42.38833836279809474945068359375" lon="2.9732882045209407806396484375">
        <ele>118.59999847412109375</ele>
        <time>2020-08-07T13:27:31.000Z</time>
      </trkpt>
      <trkpt lat="42.3884204216301441192626953125" lon="2.9732124321162700653076171875">
        <ele>119.40000152587890625</ele>
        <time>2020-08-07T13:27:36.000Z</time>
      </trkpt>
      <trkpt lat="42.38843643106520175933837890625" lon="2.9731946624815464019775390625">
        <ele>119.59999847412109375</ele>
        <time>2020-08-07T13:27:37.000Z</time>
      </trkpt>
      <trkpt lat="42.38852025009691715240478515625" lon="2.9731232486665248870849609375">
        <ele>120.59999847412109375</ele>
        <time>2020-08-07T13:27:42.000Z</time>
      </trkpt>
      <trkpt lat="42.3885905742645263671875" lon="2.97307035885751247406005859375">
        <ele>121.40000152587890625</ele>
        <time>2020-08-07T13:27:46.000Z</time>
      </trkpt>
      <trkpt lat="42.38862217403948307037353515625" lon="2.9730404354631900787353515625">
        <ele>121.8000030517578125</ele>
        <time>2020-08-07T13:27:48.000Z</time>
      </trkpt>
      <trkpt lat="42.38870314322412014007568359375" lon="2.97297933138906955718994140625">
        <ele>122.8000030517578125</ele>
        <time>2020-08-07T13:27:53.000Z</time>
      </trkpt>
      <trkpt lat="42.38873331807553768157958984375" lon="2.97295619733631610870361328125">
        <ele>123.1999969482421875</ele>
        <time>2020-08-07T13:27:55.000Z</time>
      </trkpt>
      <trkpt lat="42.388790734112262725830078125" lon="2.97290875576436519622802734375">
        <ele>124</ele>
        <time>2020-08-07T13:27:59.000Z</time>
      </trkpt>
      <trkpt lat="42.38885234110057353973388671875" lon="2.9728694446384906768798828125">
        <ele>125</ele>
        <time>2020-08-07T13:28:03.000Z</time>
      </trkpt>
      <trkpt lat="42.38892375491559505462646484375" lon="2.97281387262046337127685546875">
        <ele>126.1999969482421875</ele>
        <time>2020-08-07T13:28:08.000Z</time>
      </trkpt>
      <trkpt lat="42.3889364115893840789794921875" lon="2.97280297614634037017822265625">
        <ele>126.40000152587890625</ele>
        <time>2020-08-07T13:28:09.000Z</time>
      </trkpt>
      <trkpt lat="42.38898762501776218414306640625" lon="2.9727547802031040191650390625">
        <ele>127.1999969482421875</ele>
        <time>2020-08-07T13:28:13.000Z</time>
      </trkpt>
      <trkpt lat="42.38902484066784381866455078125" lon="2.9727111943066120147705078125">
        <ele>127.8000030517578125</ele>
        <time>2020-08-07T13:28:16.000Z</time>
      </trkpt>
      <trkpt lat="42.389050908386707305908203125" lon="2.97267842106521129608154296875">
        <ele>128.1999969482421875</ele>
        <time>2020-08-07T13:28:18.000Z</time>
      </trkpt>
      <trkpt lat="42.3891070671379566192626953125" lon="2.97258772887289524078369140625">
        <ele>129.1999969482421875</ele>
        <time>2020-08-07T13:28:23.000Z</time>
      </trkpt>
      <trkpt lat="42.3891578614711761474609375" lon="2.97243501059710979461669921875">
        <ele>130.399993896484375</ele>
        <time>2020-08-07T13:28:30.000Z</time>
      </trkpt>
      <trkpt lat="42.38916456699371337890625" lon="2.9724107868969440460205078125">
        <ele>130.600006103515625</ele>
        <time>2020-08-07T13:28:31.000Z</time>
      </trkpt>
      <trkpt lat="42.3892343044281005859375" lon="2.972283549606800079345703125">
        <ele>131.399993896484375</ele>
        <time>2020-08-07T13:28:37.000Z</time>
      </trkpt>
      <trkpt lat="42.38925131969153881072998046875" lon="2.97226913273334503173828125">
        <ele>131.600006103515625</ele>
        <time>2020-08-07T13:28:38.000Z</time>
      </trkpt>
      <trkpt lat="42.3893819935619831085205078125" lon="2.9722429811954498291015625">
        <ele>132.1999969482421875</ele>
        <time>2020-08-07T13:28:45.000Z</time>
      </trkpt>
      <trkpt lat="42.38940185867249965667724609375" lon="2.9722471721470355987548828125">
        <ele>132.600006103515625</ele>
        <time>2020-08-07T13:28:46.000Z</time>
      </trkpt>
      <trkpt lat="42.3895114101469516754150390625" lon="2.97226100228726863861083984375">
        <ele>133.600006103515625</ele>
        <time>2020-08-07T13:28:52.000Z</time>
      </trkpt>
      <trkpt lat="42.3895439319312572479248046875" lon="2.97225194983184337615966796875">
        <ele>133.8000030517578125</ele>
        <time>2020-08-07T13:28:54.000Z</time>
      </trkpt>
      <trkpt lat="42.38959413953125476837158203125" lon="2.97222596593201160430908203125">
        <ele>134.8000030517578125</ele>
        <time>2020-08-07T13:28:57.000Z</time>
      </trkpt>
      <trkpt lat="42.389685921370983123779296875" lon="2.97217919491231441497802734375">
        <ele>135.600006103515625</ele>
        <time>2020-08-07T13:29:03.000Z</time>
      </trkpt>
      <trkpt lat="42.389700673520565032958984375" lon="2.97216829843819141387939453125">
        <ele>135.8000030517578125</ele>
        <time>2020-08-07T13:29:04.000Z</time>
      </trkpt>
      <trkpt lat="42.38979983143508434295654296875" lon="2.97213108278810977935791015625">
        <ele>136.8000030517578125</ele>
        <time>2020-08-07T13:29:10.000Z</time>
      </trkpt>
      <trkpt lat="42.38991349004209041595458984375" lon="2.97207391820847988128662109375">
        <ele>138</ele>
        <time>2020-08-07T13:29:17.000Z</time>
      </trkpt>
      <trkpt lat="42.3899303376674652099609375" lon="2.97206419520080089569091796875">
        <ele>138</ele>
        <time>2020-08-07T13:29:18.000Z</time>
      </trkpt>
      <trkpt lat="42.390031926333904266357421875" lon="2.97201256267726421356201171875">
        <ele>139</ele>
        <time>2020-08-07T13:29:24.000Z</time>
      </trkpt>
      <trkpt lat="42.39004768431186676025390625" lon="2.97200032509863376617431640625">
        <ele>139</ele>
        <time>2020-08-07T13:29:25.000Z</time>
      </trkpt>
      <trkpt lat="42.39009956829249858856201171875" lon="2.9719363711774349212646484375">
        <ele>140</ele>
        <time>2020-08-07T13:29:29.000Z</time>
      </trkpt>
      <trkpt lat="42.3901390470564365386962890625" lon="2.97188867814838886260986328125">
        <ele>140.399993896484375</ele>
        <time>2020-08-07T13:29:32.000Z</time>
      </trkpt>
      <trkpt lat="42.39018422551453113555908203125" lon="2.97181173227727413177490234375">
        <ele>141.1999969482421875</ele>
        <time>2020-08-07T13:29:36.000Z</time>
      </trkpt>
      <trkpt lat="42.3902684636414051055908203125" lon="2.97171550802886486053466796875">
        <ele>142.1999969482421875</ele>
        <time>2020-08-07T13:29:42.000Z</time>
      </trkpt>
      <trkpt lat="42.39039863459765911102294921875" lon="2.97157519496977329254150390625">
        <ele>142.8000030517578125</ele>
        <time>2020-08-07T13:29:51.000Z</time>
      </trkpt>
      <trkpt lat="42.3904293961822986602783203125" lon="2.9715549945831298828125">
        <ele>143.1999969482421875</ele>
        <time>2020-08-07T13:29:53.000Z</time>
      </trkpt>
      <trkpt lat="42.39048161543905735015869140625" lon="2.9715092293918132781982421875">
        <ele>144</ele>
        <time>2020-08-07T13:29:57.000Z</time>
      </trkpt>
      <trkpt lat="42.390510700643062591552734375" lon="2.97149774618446826934814453125">
        <ele>144</ele>
        <time>2020-08-07T13:29:59.000Z</time>
      </trkpt>
      <trkpt lat="42.39056509919464588165283203125" lon="2.97150026075541973114013671875">
        <ele>144.399993896484375</ele>
        <time>2020-08-07T13:30:02.000Z</time>
      </trkpt>
      <trkpt lat="42.390650846064090728759765625" lon="2.97152255661785602569580078125">
        <ele>144.600006103515625</ele>
        <time>2020-08-07T13:30:06.000Z</time>
      </trkpt>
      <trkpt lat="42.3908012174069881439208984375" lon="2.97150981612503528594970703125">
        <ele>144.8000030517578125</ele>
        <time>2020-08-07T13:30:13.000Z</time>
      </trkpt>
      <trkpt lat="42.39093792624771595001220703125" lon="2.97140236012637615203857421875">
        <ele>145.1999969482421875</ele>
        <time>2020-08-07T13:30:20.000Z</time>
      </trkpt>
      <trkpt lat="42.39095536060631275177001953125" lon="2.971385680139064788818359375">
        <ele>145.399993896484375</ele>
        <time>2020-08-07T13:30:21.000Z</time>
      </trkpt>
      <trkpt lat="42.3910582065582275390625" lon="2.9712524078786373138427734375">
        <ele>146.399993896484375</ele>
        <time>2020-08-07T13:30:28.000Z</time>
      </trkpt>
      <trkpt lat="42.3910729587078094482421875" lon="2.97123153693974018096923828125">
        <ele>146.399993896484375</ele>
        <time>2020-08-07T13:30:29.000Z</time>
      </trkpt>
      <trkpt lat="42.39119776524603366851806640625" lon="2.9710981808602809906005859375">
        <ele>147.399993896484375</ele>
        <time>2020-08-07T13:30:36.000Z</time>
      </trkpt>
      <trkpt lat="42.39121737889945507049560546875" lon="2.97107831574976444244384765625">
        <ele>147.600006103515625</ele>
        <time>2020-08-07T13:30:37.000Z</time>
      </trkpt>
      <trkpt lat="42.3913473822176456451416015625" lon="2.97092744149267673492431640625">
        <ele>147.600006103515625</ele>
        <time>2020-08-07T13:30:44.000Z</time>
      </trkpt>
      <trkpt lat="42.3914204724133014678955078125" lon="2.97075410373508930206298828125">
        <ele>148</ele>
        <time>2020-08-07T13:30:50.000Z</time>
      </trkpt>
      <trkpt lat="42.39145475439727306365966796875" lon="2.9706264473497867584228515625">
        <ele>148.600006103515625</ele>
        <time>2020-08-07T13:30:54.000Z</time>
      </trkpt>
      <trkpt lat="42.39149607717990875244140625" lon="2.97046610154211521148681640625">
        <ele>148.8000030517578125</ele>
        <time>2020-08-07T13:30:59.000Z</time>
      </trkpt>
      <trkpt lat="42.39156891591846942901611328125" lon="2.97019352205097675323486328125">
        <ele>149</ele>
        <time>2020-08-07T13:31:08.000Z</time>
      </trkpt>
      <trkpt lat="42.3916075564920902252197265625" lon="2.9700511135160923004150390625">
        <ele>149.600006103515625</ele>
        <time>2020-08-07T13:31:13.000Z</time>
      </trkpt>
      <trkpt lat="42.39164066500961780548095703125" lon="2.9699599184095859527587890625">
        <ele>149.8000030517578125</ele>
        <time>2020-08-07T13:31:16.000Z</time>
      </trkpt>
      <trkpt lat="42.39174577407538890838623046875" lon="2.96962045133113861083984375">
        <ele>150.399993896484375</ele>
        <time>2020-08-07T13:31:27.000Z</time>
      </trkpt>
      <trkpt lat="42.39179656840860843658447265625" lon="2.96947016380727291107177734375">
        <ele>150.8000030517578125</ele>
        <time>2020-08-07T13:31:32.000Z</time>
      </trkpt>
      <trkpt lat="42.391837053000926971435546875" lon="2.96935197897255420684814453125">
        <ele>151.600006103515625</ele>
        <time>2020-08-07T13:31:36.000Z</time>
      </trkpt>
      <trkpt lat="42.39187963306903839111328125" lon="2.96920814551413059234619140625">
        <ele>151.8000030517578125</ele>
        <time>2020-08-07T13:31:41.000Z</time>
      </trkpt>
      <trkpt lat="42.39189731888473033905029296875" lon="2.96909096650779247283935546875">
        <ele>152.399993896484375</ele>
        <time>2020-08-07T13:31:45.000Z</time>
      </trkpt>
      <trkpt lat="42.39190645515918731689453125" lon="2.9690348915755748748779296875">
        <ele>153</ele>
        <time>2020-08-07T13:31:47.000Z</time>
      </trkpt>
      <trkpt lat="42.39194744266569614410400390625" lon="2.96891511417925357818603515625">
        <ele>153.8000030517578125</ele>
        <time>2020-08-07T13:31:52.000Z</time>
      </trkpt>
      <trkpt lat="42.3919867537915706634521484375" lon="2.9688260145485401153564453125">
        <ele>154</ele>
        <time>2020-08-07T13:31:56.000Z</time>
      </trkpt>
      <trkpt lat="42.39202824421226978302001953125" lon="2.96873666346073150634765625">
        <ele>155</ele>
        <time>2020-08-07T13:32:00.000Z</time>
      </trkpt>
      <trkpt lat="42.39203847013413906097412109375" lon="2.96871461905539035797119140625">
        <ele>155.1999969482421875</ele>
        <time>2020-08-07T13:32:01.000Z</time>
      </trkpt>
      <trkpt lat="42.3921128176152706146240234375" lon="2.9685688577592372894287109375">
        <ele>156.1999969482421875</ele>
        <time>2020-08-07T13:32:08.000Z</time>
      </trkpt>
      <trkpt lat="42.39212010987102985382080078125" lon="2.96854631043970584869384765625">
        <ele>156.600006103515625</ele>
        <time>2020-08-07T13:32:09.000Z</time>
      </trkpt>
      <trkpt lat="42.39214592613279819488525390625" lon="2.96847514808177947998046875">
        <ele>157.1999969482421875</ele>
        <time>2020-08-07T13:32:14.000Z</time>
      </trkpt>
      <trkpt lat="42.39214039407670497894287109375" lon="2.9684806801378726959228515625">
        <ele>158</ele>
        <time>2020-08-07T13:37:40.000Z</time>
      </trkpt>
      <trkpt lat="42.39214877597987651824951171875" lon="2.96846131794154644012451171875">
        <ele>158</ele>
        <time>2020-08-07T13:37:47.000Z</time>
      </trkpt>
      <trkpt lat="42.39220208488404750823974609375" lon="2.96837188303470611572265625">
        <ele>158.600006103515625</ele>
        <time>2020-08-07T13:37:54.000Z</time>
      </trkpt>
      <trkpt lat="42.39223712123930454254150390625" lon="2.9682674445211887359619140625">
        <ele>159</ele>
        <time>2020-08-07T13:37:59.000Z</time>
      </trkpt>
      <trkpt lat="42.3922558128833770751953125" lon="2.968222014605998992919921875">
        <ele>159.399993896484375</ele>
        <time>2020-08-07T13:38:01.000Z</time>
      </trkpt>
      <trkpt lat="42.39230350591242313385009765625" lon="2.9680716432631015777587890625">
        <ele>160</ele>
        <time>2020-08-07T13:38:07.000Z</time>
      </trkpt>
      <trkpt lat="42.39236201159656047821044921875" lon="2.9679063521325588226318359375">
        <ele>160.8000030517578125</ele>
        <time>2020-08-07T13:38:14.000Z</time>
      </trkpt>
      <trkpt lat="42.39242034964263439178466796875" lon="2.96771616674959659576416015625">
        <ele>161</ele>
        <time>2020-08-07T13:38:20.000Z</time>
      </trkpt>
      <trkpt lat="42.3924819566309452056884765625" lon="2.9675087146461009979248046875">
        <ele>160.600006103515625</ele>
        <time>2020-08-07T13:38:26.000Z</time>
      </trkpt>
      <trkpt lat="42.3925775103271007537841796875" lon="2.9673105664551258087158203125">
        <ele>161</ele>
        <time>2020-08-07T13:38:33.000Z</time>
      </trkpt>
      <trkpt lat="42.3926928453147411346435546875" lon="2.96716396696865558624267578125">
        <ele>160.600006103515625</ele>
        <time>2020-08-07T13:38:39.000Z</time>
      </trkpt>
      <trkpt lat="42.39281748421490192413330078125" lon="2.96697084791958332061767578125">
        <ele>161.1999969482421875</ele>
        <time>2020-08-07T13:38:47.000Z</time>
      </trkpt>
      <trkpt lat="42.39282720722258090972900390625" lon="2.966943271458148956298828125">
        <ele>161.399993896484375</ele>
        <time>2020-08-07T13:38:48.000Z</time>
      </trkpt>
      <trkpt lat="42.392868362367153167724609375" lon="2.96674604527652263641357421875">
        <ele>162.399993896484375</ele>
        <time>2020-08-07T13:38:55.000Z</time>
      </trkpt>
      <trkpt lat="42.39287196658551692962646484375" lon="2.96669273637235164642333984375">
        <ele>162.8000030517578125</ele>
        <time>2020-08-07T13:38:57.000Z</time>
      </trkpt>
      <trkpt lat="42.39289526827633380889892578125" lon="2.9666011221706867218017578125">
        <ele>163.600006103515625</ele>
        <time>2020-08-07T13:39:00.000Z</time>
      </trkpt>
      <trkpt lat="42.392924018204212188720703125" lon="2.96654253266751766204833984375">
        <ele>163.8000030517578125</ele>
        <time>2020-08-07T13:39:02.000Z</time>
      </trkpt>
      <trkpt lat="42.39308059215545654296875" lon="2.96630968339741230010986328125">
        <ele>164.1999969482421875</ele>
        <time>2020-08-07T13:39:12.000Z</time>
      </trkpt>
      <trkpt lat="42.39315460436046123504638671875" lon="2.96617515385150909423828125">
        <ele>164.600006103515625</ele>
        <time>2020-08-07T13:39:17.000Z</time>
      </trkpt>
      <trkpt lat="42.39317975006997585296630859375" lon="2.96611337922513484954833984375">
        <ele>164.8000030517578125</ele>
        <time>2020-08-07T13:39:19.000Z</time>
      </trkpt>
      <trkpt lat="42.39329273812472820281982421875" lon="2.965891174972057342529296875">
        <ele>164.8000030517578125</ele>
        <time>2020-08-07T13:39:26.000Z</time>
      </trkpt>
      <trkpt lat="42.393428273499011993408203125" lon="2.96564281918108463287353515625">
        <ele>165</ele>
        <time>2020-08-07T13:39:34.000Z</time>
      </trkpt>
      <trkpt lat="42.39355710335075855255126953125" lon="2.9654289968311786651611328125">
        <ele>165.600006103515625</ele>
        <time>2020-08-07T13:39:41.000Z</time>
      </trkpt>
      <trkpt lat="42.39363513886928558349609375" lon="2.96532162465155124664306640625">
        <ele>165.8000030517578125</ele>
        <time>2020-08-07T13:39:45.000Z</time>
      </trkpt>
      <trkpt lat="42.393734045326709747314453125" lon="2.9651943035423755645751953125">
        <ele>166.399993896484375</ele>
        <time>2020-08-07T13:39:50.000Z</time>
      </trkpt>
      <trkpt lat="42.3939000070095062255859375" lon="2.965009398758411407470703125">
        <ele>166.8000030517578125</ele>
        <time>2020-08-07T13:39:58.000Z</time>
      </trkpt>
      <trkpt lat="42.39400436170399188995361328125" lon="2.96486883424222469329833984375">
        <ele>167.8000030517578125</ele>
        <time>2020-08-07T13:40:04.000Z</time>
      </trkpt>
      <trkpt lat="42.394042499363422393798828125" lon="2.96483061276376247406005859375">
        <ele>168</ele>
        <time>2020-08-07T13:40:06.000Z</time>
      </trkpt>
      <trkpt lat="42.394202090799808502197265625" lon="2.96466850675642490386962890625">
        <ele>169</ele>
        <time>2020-08-07T13:40:14.000Z</time>
      </trkpt>
      <trkpt lat="42.39422095008194446563720703125" lon="2.96464906074106693267822265625">
        <ele>169</ele>
        <time>2020-08-07T13:40:15.000Z</time>
      </trkpt>
      <trkpt lat="42.394433431327342987060546875" lon="2.96447086147964000701904296875">
        <ele>169.399993896484375</ele>
        <time>2020-08-07T13:40:25.000Z</time>
      </trkpt>
      <trkpt lat="42.39456729032099246978759765625" lon="2.964368350803852081298828125">
        <ele>170</ele>
        <time>2020-08-07T13:40:31.000Z</time>
      </trkpt>
      <trkpt lat="42.3946099542081356048583984375" lon="2.9643346555531024932861328125">
        <ele>170.399993896484375</ele>
        <time>2020-08-07T13:40:33.000Z</time>
      </trkpt>
      <trkpt lat="42.394655048847198486328125" lon="2.9643023014068603515625">
        <ele>171</ele>
        <time>2020-08-07T13:40:35.000Z</time>
      </trkpt>
      <trkpt lat="42.39475839771330356597900390625" lon="2.96419945545494556427001953125">
        <ele>171.600006103515625</ele>
        <time>2020-08-07T13:40:40.000Z</time>
      </trkpt>
      <trkpt lat="42.394859232008457183837890625" lon="2.96411253511905670166015625">
        <ele>172</ele>
        <time>2020-08-07T13:40:45.000Z</time>
      </trkpt>
      <trkpt lat="42.394916899502277374267578125" lon="2.9640580527484416961669921875">
        <ele>172.600006103515625</ele>
        <time>2020-08-07T13:40:48.000Z</time>
      </trkpt>
      <trkpt lat="42.3950971104204654693603515625" lon="2.96390390954911708831787109375">
        <ele>172.8000030517578125</ele>
        <time>2020-08-07T13:40:57.000Z</time>
      </trkpt>
      <trkpt lat="42.395137846469879150390625" lon="2.9638702981173992156982421875">
        <ele>173</ele>
        <time>2020-08-07T13:40:59.000Z</time>
      </trkpt>
      <trkpt lat="42.3952536843717098236083984375" lon="2.96375580132007598876953125">
        <ele>173.600006103515625</ele>
        <time>2020-08-07T13:41:05.000Z</time>
      </trkpt>
      <trkpt lat="42.39531881175935268402099609375" lon="2.963712550699710845947265625">
        <ele>174</ele>
        <time>2020-08-07T13:41:08.000Z</time>
      </trkpt>
      <trkpt lat="42.3953993618488311767578125" lon="2.96364105306565761566162109375">
        <ele>175.1999969482421875</ele>
        <time>2020-08-07T13:41:12.000Z</time>
      </trkpt>
      <trkpt lat="42.39558083005249500274658203125" lon="2.96347978524863719940185546875">
        <ele>176</ele>
        <time>2020-08-07T13:41:21.000Z</time>
      </trkpt>
      <trkpt lat="42.395622320473194122314453125" lon="2.9634480178356170654296875">
        <ele>176.1999969482421875</ele>
        <time>2020-08-07T13:41:23.000Z</time>
      </trkpt>
      <trkpt lat="42.395724914968013763427734375" lon="2.963365204632282257080078125">
        <ele>176.600006103515625</ele>
        <time>2020-08-07T13:41:28.000Z</time>
      </trkpt>
      <trkpt lat="42.3957462050020694732666015625" lon="2.96334919519722461700439453125">
        <ele>176.600006103515625</ele>
        <time>2020-08-07T13:41:29.000Z</time>
      </trkpt>
      <trkpt lat="42.39592918194830417633056640625" lon="2.963224388659000396728515625">
        <ele>176.600006103515625</ele>
        <time>2020-08-07T13:41:37.000Z</time>
      </trkpt>
      <trkpt lat="42.396030016243457794189453125" lon="2.96314769424498081207275390625">
        <ele>177.399993896484375</ele>
        <time>2020-08-07T13:41:42.000Z</time>
      </trkpt>
      <trkpt lat="42.3961465246975421905517578125" lon="2.963084243237972259521484375">
        <ele>177.8000030517578125</ele>
        <time>2020-08-07T13:41:47.000Z</time>
      </trkpt>
      <trkpt lat="42.39629010669887065887451171875" lon="2.96302749775350093841552734375">
        <ele>178.399993896484375</ele>
        <time>2020-08-07T13:41:53.000Z</time>
      </trkpt>
      <trkpt lat="42.3963889293372631072998046875" lon="2.962996065616607666015625">
        <ele>178.600006103515625</ele>
        <time>2020-08-07T13:41:57.000Z</time>
      </trkpt>
      <trkpt lat="42.39654374308884143829345703125" lon="2.9629169404506683349609375">
        <ele>179.399993896484375</ele>
        <time>2020-08-07T13:42:04.000Z</time>
      </trkpt>
      <trkpt lat="42.39658556878566741943359375" lon="2.96289741061627864837646484375">
        <ele>179.8000030517578125</ele>
        <time>2020-08-07T13:42:06.000Z</time>
      </trkpt>
      <trkpt lat="42.39666662178933620452880859375" lon="2.9628450237214565277099609375">
        <ele>180.399993896484375</ele>
        <time>2020-08-07T13:42:10.000Z</time>
      </trkpt>
      <trkpt lat="42.39672579802572727203369140625" lon="2.96280956827104091644287109375">
        <ele>181</ele>
        <time>2020-08-07T13:42:13.000Z</time>
      </trkpt>
      <trkpt lat="42.39685638807713985443115234375" lon="2.962761037051677703857421875">
        <ele>181.399993896484375</ele>
        <time>2020-08-07T13:42:19.000Z</time>
      </trkpt>
      <trkpt lat="42.39690148271620273590087890625" lon="2.96274217776954174041748046875">
        <ele>181.600006103515625</ele>
        <time>2020-08-07T13:42:21.000Z</time>
      </trkpt>
      <trkpt lat="42.3970795981585979461669921875" lon="2.962683923542499542236328125">
        <ele>182.600006103515625</ele>
        <time>2020-08-07T13:42:29.000Z</time>
      </trkpt>
      <trkpt lat="42.3971013911068439483642578125" lon="2.96267294324934482574462890625">
        <ele>182.600006103515625</ele>
        <time>2020-08-07T13:42:30.000Z</time>
      </trkpt>
      <trkpt lat="42.39720406942069530487060546875" lon="2.96260169707238674163818359375">
        <ele>183.600006103515625</ele>
        <time>2020-08-07T13:42:35.000Z</time>
      </trkpt>
      <trkpt lat="42.397245727479457855224609375" lon="2.96257495880126953125">
        <ele>183.8000030517578125</ele>
        <time>2020-08-07T13:42:37.000Z</time>
      </trkpt>
      <trkpt lat="42.397373802959918975830078125" lon="2.96248904429376125335693359375">
        <ele>183.8000030517578125</ele>
        <time>2020-08-07T13:42:43.000Z</time>
      </trkpt>
      <trkpt lat="42.3974618129432201385498046875" lon="2.96241360716521739959716796875">
        <ele>184.8000030517578125</ele>
        <time>2020-08-07T13:42:47.000Z</time>
      </trkpt>
      <trkpt lat="42.397484444081783294677734375" lon="2.96239458024501800537109375">
        <ele>185</ele>
        <time>2020-08-07T13:42:48.000Z</time>
      </trkpt>
      <trkpt lat="42.39766138605773448944091796875" lon="2.96223767101764678955078125">
        <ele>185.600006103515625</ele>
        <time>2020-08-07T13:42:56.000Z</time>
      </trkpt>
      <trkpt lat="42.39781661890447139739990234375" lon="2.96211906708776950836181640625">
        <ele>185.399993896484375</ele>
        <time>2020-08-07T13:43:02.000Z</time>
      </trkpt>
      <trkpt lat="42.39797537215054035186767578125" lon="2.96203558333218097686767578125">
        <ele>185.399993896484375</ele>
        <time>2020-08-07T13:43:08.000Z</time>
      </trkpt>
      <trkpt lat="42.3981638811528682708740234375" lon="2.9619806818664073944091796875">
        <ele>185.399993896484375</ele>
        <time>2020-08-07T13:43:15.000Z</time>
      </trkpt>
      <trkpt lat="42.39837317727506160736083984375" lon="2.961892001330852508544921875">
        <ele>184.399993896484375</ele>
        <time>2020-08-07T13:43:23.000Z</time>
      </trkpt>
      <trkpt lat="42.398623041808605194091796875" lon="2.96177524141967296600341796875">
        <ele>184.8000030517578125</ele>
        <time>2020-08-07T13:43:32.000Z</time>
      </trkpt>
      <trkpt lat="42.39888564683496952056884765625" lon="2.96169712208211421966552734375">
        <ele>183.8000030517578125</ele>
        <time>2020-08-07T13:43:40.000Z</time>
      </trkpt>
      <trkpt lat="42.39895069040358066558837890625" lon="2.961678095161914825439453125">
        <ele>183.8000030517578125</ele>
        <time>2020-08-07T13:43:42.000Z</time>
      </trkpt>
      <trkpt lat="42.399148084223270416259765625" lon="2.96161632053554058074951171875">
        <ele>183.399993896484375</ele>
        <time>2020-08-07T13:43:48.000Z</time>
      </trkpt>
      <trkpt lat="42.399388141930103302001953125" lon="2.96155027113854885101318359375">
        <ele>183.8000030517578125</ele>
        <time>2020-08-07T13:43:56.000Z</time>
      </trkpt>
      <trkpt lat="42.39968813024461269378662109375" lon="2.9614633508026599884033203125">
        <ele>184</ele>
        <time>2020-08-07T13:44:06.000Z</time>
      </trkpt>
      <trkpt lat="42.39979759790003299713134765625" lon="2.96141264028847217559814453125">
        <ele>184.8000030517578125</ele>
        <time>2020-08-07T13:44:10.000Z</time>
      </trkpt>
      <trkpt lat="42.39995651878416538238525390625" lon="2.96132613904774188995361328125">
        <ele>184.8000030517578125</ele>
        <time>2020-08-07T13:44:16.000Z</time>
      </trkpt>
      <trkpt lat="42.40016824565827846527099609375" lon="2.9611719958484172821044921875">
        <ele>185.1999969482421875</ele>
        <time>2020-08-07T13:44:24.000Z</time>
      </trkpt>
      <trkpt lat="42.40022239275276660919189453125" lon="2.96113402582705020904541015625">
        <ele>185.1999969482421875</ele>
        <time>2020-08-07T13:44:26.000Z</time>
      </trkpt>
      <trkpt lat="42.400356419384479522705078125" lon="2.96104869805276393890380859375">
        <ele>186</ele>
        <time>2020-08-07T13:44:31.000Z</time>
      </trkpt>
      <trkpt lat="42.40043764002621173858642578125" lon="2.9609889350831508636474609375">
        <ele>185.8000030517578125</ele>
        <time>2020-08-07T13:44:34.000Z</time>
      </trkpt>
      <trkpt lat="42.4006690643727779388427734375" lon="2.9608192853629589080810546875">
        <ele>186.8000030517578125</ele>
        <time>2020-08-07T13:44:43.000Z</time>
      </trkpt>
      <trkpt lat="42.40069312043488025665283203125" lon="2.960801012814044952392578125">
        <ele>187</ele>
        <time>2020-08-07T13:44:44.000Z</time>
      </trkpt>
      <trkpt lat="42.4008615128695964813232421875" lon="2.96071694232523441314697265625">
        <ele>187</ele>
        <time>2020-08-07T13:44:50.000Z</time>
      </trkpt>
      <trkpt lat="42.4010378681123256683349609375" lon="2.960608899593353271484375">
        <ele>187.1999969482421875</ele>
        <time>2020-08-07T13:44:57.000Z</time>
      </trkpt>
      <trkpt lat="42.40117440931499004364013671875" lon="2.9605324566364288330078125">
        <ele>188.399993896484375</ele>
        <time>2020-08-07T13:45:03.000Z</time>
      </trkpt>
      <trkpt lat="42.4013486690819263458251953125" lon="2.960388958454132080078125">
        <ele>188.600006103515625</ele>
        <time>2020-08-07T13:45:11.000Z</time>
      </trkpt>
      <trkpt lat="42.40148722194135189056396484375" lon="2.9602838493883609771728515625">
        <ele>189.399993896484375</ele>
        <time>2020-08-07T13:45:18.000Z</time>
      </trkpt>
      <trkpt lat="42.40150566212832927703857421875" lon="2.96026884578168392181396484375">
        <ele>189.1999969482421875</ele>
        <time>2020-08-07T13:45:19.000Z</time>
      </trkpt>
      <trkpt lat="42.4017017148435115814208984375" lon="2.96014060266315937042236328125">
        <ele>189.600006103515625</ele>
        <time>2020-08-07T13:45:29.000Z</time>
      </trkpt>
      <trkpt lat="42.4018485657870769500732421875" lon="2.9600442945957183837890625">
        <ele>190.399993896484375</ele>
        <time>2020-08-07T13:45:36.000Z</time>
      </trkpt>
      <trkpt lat="42.40195174701511859893798828125" lon="2.9599841125309467315673828125">
        <ele>191.399993896484375</ele>
        <time>2020-08-07T13:45:41.000Z</time>
      </trkpt>
      <trkpt lat="42.40207831375300884246826171875" lon="2.95990691520273685455322265625">
        <ele>192.600006103515625</ele>
        <time>2020-08-07T13:45:47.000Z</time>
      </trkpt>
      <trkpt lat="42.40220102481544017791748046875" lon="2.95981856994330883026123046875">
        <ele>193</ele>
        <time>2020-08-07T13:45:53.000Z</time>
      </trkpt>
      <trkpt lat="42.402358353137969970703125" lon="2.959710024297237396240234375">
        <ele>193.600006103515625</ele>
        <time>2020-08-07T13:46:01.000Z</time>
      </trkpt>
      <trkpt lat="42.4025234766304492950439453125" lon="2.9596049152314662933349609375">
        <ele>194.600006103515625</ele>
        <time>2020-08-07T13:46:09.000Z</time>
      </trkpt>
      <trkpt lat="42.4025647155940532684326171875" lon="2.95957800932228565216064453125">
        <ele>194.8000030517578125</ele>
        <time>2020-08-07T13:46:11.000Z</time>
      </trkpt>
      <trkpt lat="42.40266504697501659393310546875" lon="2.9595207609236240386962890625">
        <ele>195.8000030517578125</ele>
        <time>2020-08-07T13:46:16.000Z</time>
      </trkpt>
      <trkpt lat="42.4027236364781856536865234375" lon="2.95948212035000324249267578125">
        <ele>196.1999969482421875</ele>
        <time>2020-08-07T13:46:19.000Z</time>
      </trkpt>
      <trkpt lat="42.40282363258302211761474609375" lon="2.95941791497170925140380859375">
        <ele>196.600006103515625</ele>
        <time>2020-08-07T13:46:24.000Z</time>
      </trkpt>
      <trkpt lat="42.40284316241741180419921875" lon="2.9594050906598567962646484375">
        <ele>196.600006103515625</ele>
        <time>2020-08-07T13:46:25.000Z</time>
      </trkpt>
      <trkpt lat="42.4028949625790119171142578125" lon="2.95936376787722110748291015625">
        <ele>196.8000030517578125</ele>
        <time>2020-08-07T13:46:28.000Z</time>
      </trkpt>
      <trkpt lat="42.40296863950788974761962890625" lon="2.9593172483146190643310546875">
        <ele>197.399993896484375</ele>
        <time>2020-08-07T13:46:32.000Z</time>
      </trkpt>
      <trkpt lat="42.4030525423586368560791015625" lon="2.95926771126687526702880859375">
        <ele>198</ele>
        <time>2020-08-07T13:46:37.000Z</time>
      </trkpt>
      <trkpt lat="42.403083555400371551513671875" lon="2.95925061218440532684326171875">
        <ele>198</ele>
        <time>2020-08-07T13:46:39.000Z</time>
      </trkpt>
      <trkpt lat="42.40320685319602489471435546875" lon="2.9591606743633747100830078125">
        <ele>199</ele>
        <time>2020-08-07T13:46:46.000Z</time>
      </trkpt>
      <trkpt lat="42.40333291701972484588623046875" lon="2.95905916951596736907958984375">
        <ele>199.399993896484375</ele>
        <time>2020-08-07T13:46:53.000Z</time>
      </trkpt>
      <trkpt lat="42.4033683724701404571533203125" lon="2.9590342752635478973388671875">
        <ele>200.1999969482421875</ele>
        <time>2020-08-07T13:46:55.000Z</time>
      </trkpt>
      <trkpt lat="42.40350306965410709381103515625" lon="2.958938218653202056884765625">
        <ele>200.600006103515625</ele>
        <time>2020-08-07T13:47:02.000Z</time>
      </trkpt>
      <trkpt lat="42.40357984788715839385986328125" lon="2.95888097025454044342041015625">
        <ele>201.399993896484375</ele>
        <time>2020-08-07T13:47:06.000Z</time>
      </trkpt>
      <trkpt lat="42.4036774970591068267822265625" lon="2.95882246457040309906005859375">
        <ele>202</ele>
        <time>2020-08-07T13:47:11.000Z</time>
      </trkpt>
      <trkpt lat="42.403715886175632476806640625" lon="2.958799414336681365966796875">
        <ele>202.399993896484375</ele>
        <time>2020-08-07T13:47:13.000Z</time>
      </trkpt>
      <trkpt lat="42.403789646923542022705078125" lon="2.958754487335681915283203125">
        <ele>203.399993896484375</ele>
        <time>2020-08-07T13:47:17.000Z</time>
      </trkpt>
      <trkpt lat="42.40386064164340496063232421875" lon="2.958704195916652679443359375">
        <ele>203.399993896484375</ele>
        <time>2020-08-07T13:47:21.000Z</time>
      </trkpt>
      <trkpt lat="42.4040023796260356903076171875" lon="2.95862263999879360198974609375">
        <ele>204.1999969482421875</ele>
        <time>2020-08-07T13:47:29.000Z</time>
      </trkpt>
      <trkpt lat="42.4040781520307064056396484375" lon="2.958562709391117095947265625">
        <ele>204.600006103515625</ele>
        <time>2020-08-07T13:47:33.000Z</time>
      </trkpt>
      <trkpt lat="42.4041515775024890899658203125" lon="2.95850210823118686676025390625">
        <ele>205.1999969482421875</ele>
        <time>2020-08-07T13:47:37.000Z</time>
      </trkpt>
      <trkpt lat="42.4042796529829502105712890625" lon="2.95840588398277759552001953125">
        <ele>205.600006103515625</ele>
        <time>2020-08-07T13:47:44.000Z</time>
      </trkpt>
      <trkpt lat="42.4042954109609127044677734375" lon="2.95839004218578338623046875">
        <ele>205.8000030517578125</ele>
        <time>2020-08-07T13:47:45.000Z</time>
      </trkpt>
      <trkpt lat="42.40439456887543201446533203125" lon="2.95829272828996181488037109375">
        <ele>206.600006103515625</ele>
        <time>2020-08-07T13:47:51.000Z</time>
      </trkpt>
      <trkpt lat="42.40441250614821910858154296875" lon="2.95827361755073070526123046875">
        <ele>206.8000030517578125</ele>
        <time>2020-08-07T13:47:52.000Z</time>
      </trkpt>
      <trkpt lat="42.40453672595322132110595703125" lon="2.95815526507794857025146484375">
        <ele>207.8000030517578125</ele>
        <time>2020-08-07T13:47:59.000Z</time>
      </trkpt>
      <trkpt lat="42.404643595218658447265625" lon="2.9580901376903057098388671875">
        <ele>208.1999969482421875</ele>
        <time>2020-08-07T13:48:04.000Z</time>
      </trkpt>
      <trkpt lat="42.40482036955654621124267578125" lon="2.95797203667461872100830078125">
        <ele>208.8000030517578125</ele>
        <time>2020-08-07T13:48:13.000Z</time>
      </trkpt>
      <trkpt lat="42.40483830682933330535888671875" lon="2.95795678161084651947021484375">
        <ele>209.1999969482421875</ele>
        <time>2020-08-07T13:48:14.000Z</time>
      </trkpt>
      <trkpt lat="42.40500443615019321441650390625" lon="2.9578279517590999603271484375">
        <ele>210</ele>
        <time>2020-08-07T13:48:23.000Z</time>
      </trkpt>
      <trkpt lat="42.405044250190258026123046875" lon="2.95779953710734844207763671875">
        <ele>210.1999969482421875</ele>
        <time>2020-08-07T13:48:25.000Z</time>
      </trkpt>
      <trkpt lat="42.4051786959171295166015625" lon="2.95769509859383106231689453125">
        <ele>211.399993896484375</ele>
        <time>2020-08-07T13:48:32.000Z</time>
      </trkpt>
      <trkpt lat="42.40529260598123073577880859375" lon="2.9576073400676250457763671875">
        <ele>212.1999969482421875</ele>
        <time>2020-08-07T13:48:38.000Z</time>
      </trkpt>
      <trkpt lat="42.4053156562149524688720703125" lon="2.95759334228932857513427734375">
        <ele>212.399993896484375</ele>
        <time>2020-08-07T13:48:39.000Z</time>
      </trkpt>
      <trkpt lat="42.4054254591464996337890625" lon="2.95751723460853099822998046875">
        <ele>212.600006103515625</ele>
        <time>2020-08-07T13:48:44.000Z</time>
      </trkpt>
      <trkpt lat="42.405624948441982269287109375" lon="2.9573808610439300537109375">
        <ele>213.399993896484375</ele>
        <time>2020-08-07T13:48:54.000Z</time>
      </trkpt>
      <trkpt lat="42.4057169817388057708740234375" lon="2.95732629485428333282470703125">
        <ele>214.600006103515625</ele>
        <time>2020-08-07T13:48:59.000Z</time>
      </trkpt>
      <trkpt lat="42.40575511939823627471923828125" lon="2.9573071002960205078125">
        <ele>214.8000030517578125</ele>
        <time>2020-08-07T13:49:01.000Z</time>
      </trkpt>
      <trkpt lat="42.40590079687535762786865234375" lon="2.95724834315478801727294921875">
        <ele>215.8000030517578125</ele>
        <time>2020-08-07T13:49:09.000Z</time>
      </trkpt>
      <trkpt lat="42.405917309224605560302734375" lon="2.9572465829551219940185546875">
        <ele>216.1999969482421875</ele>
        <time>2020-08-07T13:49:10.000Z</time>
      </trkpt>
      <trkpt lat="42.4060375057160854339599609375" lon="2.9571892507374286651611328125">
        <ele>216.8000030517578125</ele>
        <time>2020-08-07T13:49:17.000Z</time>
      </trkpt>
      <trkpt lat="42.40606005303561687469482421875" lon="2.95717810280621051788330078125">
        <ele>217</ele>
        <time>2020-08-07T13:49:18.000Z</time>
      </trkpt>
      <trkpt lat="42.40622115321457386016845703125" lon="2.9571181721985340118408203125">
        <ele>217.600006103515625</ele>
        <time>2020-08-07T13:49:26.000Z</time>
      </trkpt>
      <trkpt lat="42.4062752164900302886962890625" lon="2.9570973850786685943603515625">
        <ele>218.1999969482421875</ele>
        <time>2020-08-07T13:49:29.000Z</time>
      </trkpt>
      <trkpt lat="42.406349815428256988525390625" lon="2.95708841644227504730224609375">
        <ele>218.600006103515625</ele>
        <time>2020-08-07T13:49:33.000Z</time>
      </trkpt>
      <trkpt lat="42.40644377656280994415283203125" lon="2.9570682160556316375732421875">
        <ele>219</ele>
        <time>2020-08-07T13:49:38.000Z</time>
      </trkpt>
      <trkpt lat="42.40649909712374210357666015625" lon="2.95704365707933902740478515625">
        <ele>219.8000030517578125</ele>
        <time>2020-08-07T13:49:41.000Z</time>
      </trkpt>
      <trkpt lat="42.40658744238317012786865234375" lon="2.95700442977249622344970703125">
        <ele>220.1999969482421875</ele>
        <time>2020-08-07T13:49:46.000Z</time>
      </trkpt>
      <trkpt lat="42.4066503904759883880615234375" lon="2.95697626657783985137939453125">
        <ele>221</ele>
        <time>2020-08-07T13:49:50.000Z</time>
      </trkpt>
      <trkpt lat="42.406666316092014312744140625" lon="2.9569683037698268890380859375">
        <ele>221.1999969482421875</ele>
        <time>2020-08-07T13:49:51.000Z</time>
      </trkpt>
      <trkpt lat="42.4067880213260650634765625" lon="2.95689982362091541290283203125">
        <ele>221.399993896484375</ele>
        <time>2020-08-07T13:49:58.000Z</time>
      </trkpt>
      <trkpt lat="42.40690746344625949859619140625" lon="2.95682069845497608184814453125">
        <ele>222.1999969482421875</ele>
        <time>2020-08-07T13:50:05.000Z</time>
      </trkpt>
      <trkpt lat="42.40692305378615856170654296875" lon="2.9568110592663288116455078125">
        <ele>222.399993896484375</ele>
        <time>2020-08-07T13:50:06.000Z</time>
      </trkpt>
      <trkpt lat="42.40703813731670379638671875" lon="2.956733442842960357666015625">
        <ele>223.600006103515625</ele>
        <time>2020-08-07T13:50:13.000Z</time>
      </trkpt>
      <trkpt lat="42.40708750672638416290283203125" lon="2.95669379644095897674560546875">
        <ele>224.399993896484375</ele>
        <time>2020-08-07T13:50:16.000Z</time>
      </trkpt>
      <trkpt lat="42.4072012491524219512939453125" lon="2.9566068761050701141357421875">
        <ele>225.1999969482421875</ele>
        <time>2020-08-07T13:50:23.000Z</time>
      </trkpt>
      <trkpt lat="42.4072176776826381683349609375" lon="2.95659539289772510528564453125">
        <ele>225.1999969482421875</ele>
        <time>2020-08-07T13:50:24.000Z</time>
      </trkpt>
      <trkpt lat="42.40733611397445201873779296875" lon="2.95652079395949840545654296875">
        <ele>225.8000030517578125</ele>
        <time>2020-08-07T13:50:31.000Z</time>
      </trkpt>
      <trkpt lat="42.40736980922520160675048828125" lon="2.95650034211575984954833984375">
        <ele>226.1999969482421875</ele>
        <time>2020-08-07T13:50:33.000Z</time>
      </trkpt>
      <trkpt lat="42.4074800312519073486328125" lon="2.956455163657665252685546875">
        <ele>227.399993896484375</ele>
        <time>2020-08-07T13:50:39.000Z</time>
      </trkpt>
      <trkpt lat="42.40758120082318782806396484375" lon="2.9563909582793712615966796875">
        <ele>228</ele>
        <time>2020-08-07T13:50:45.000Z</time>
      </trkpt>
      <trkpt lat="42.4076679535210132598876953125" lon="2.9563235677778720855712890625">
        <ele>228.399993896484375</ele>
        <time>2020-08-07T13:50:50.000Z</time>
      </trkpt>
      <trkpt lat="42.407735176384449005126953125" lon="2.95626061968505382537841796875">
        <ele>229.1999969482421875</ele>
        <time>2020-08-07T13:50:54.000Z</time>
      </trkpt>
      <trkpt lat="42.40780198015272617340087890625" lon="2.95619607903063297271728515625">
        <ele>229.600006103515625</ele>
        <time>2020-08-07T13:50:58.000Z</time>
      </trkpt>
      <trkpt lat="42.40789082832634449005126953125" lon="2.9561408422887325286865234375">
        <ele>230.399993896484375</ele>
        <time>2020-08-07T13:51:03.000Z</time>
      </trkpt>
      <trkpt lat="42.40792502649128437042236328125" lon="2.95612148009240627288818359375">
        <ele>230.8000030517578125</ele>
        <time>2020-08-07T13:51:05.000Z</time>
      </trkpt>
      <trkpt lat="42.4079955182969570159912109375" lon="2.9560764692723751068115234375">
        <ele>231</ele>
        <time>2020-08-07T13:51:09.000Z</time>
      </trkpt>
      <trkpt lat="42.40806349553167819976806640625" lon="2.9560322128236293792724609375">
        <ele>231.8000030517578125</ele>
        <time>2020-08-07T13:51:13.000Z</time>
      </trkpt>
      <trkpt lat="42.4081142060458660125732421875" lon="2.955995835363864898681640625">
        <ele>231.8000030517578125</ele>
        <time>2020-08-07T13:51:16.000Z</time>
      </trkpt>
      <trkpt lat="42.40823398344218730926513671875" lon="2.95589919202029705047607421875">
        <ele>232.8000030517578125</ele>
        <time>2020-08-07T13:51:23.000Z</time>
      </trkpt>
      <trkpt lat="42.408298440277576446533203125" lon="2.95585728250443935394287109375">
        <ele>233.8000030517578125</ele>
        <time>2020-08-07T13:51:27.000Z</time>
      </trkpt>
      <trkpt lat="42.4083167128264904022216796875" lon="2.95584655366837978363037109375">
        <ele>234</ele>
        <time>2020-08-07T13:51:28.000Z</time>
      </trkpt>
      <trkpt lat="42.40841813385486602783203125" lon="2.95574848540127277374267578125">
        <ele>234</ele>
        <time>2020-08-07T13:51:34.000Z</time>
      </trkpt>
      <trkpt lat="42.4085448682308197021484375" lon="2.95564773492515087127685546875">
        <ele>234.8000030517578125</ele>
        <time>2020-08-07T13:51:41.000Z</time>
      </trkpt>
      <trkpt lat="42.408606894314289093017578125" lon="2.955600880086421966552734375">
        <ele>235</ele>
        <time>2020-08-07T13:51:44.000Z</time>
      </trkpt>
      <trkpt lat="42.40870420821011066436767578125" lon="2.95553206466138362884521484375">
        <ele>235.1999969482421875</ele>
        <time>2020-08-07T13:51:49.000Z</time>
      </trkpt>
      <trkpt lat="42.4088451080024242401123046875" lon="2.955440618097782135009765625">
        <ele>236</ele>
        <time>2020-08-07T13:51:56.000Z</time>
      </trkpt>
      <trkpt lat="42.40886547602713108062744140625" lon="2.9554282128810882568359375">
        <ele>236</ele>
        <time>2020-08-07T13:51:57.000Z</time>
      </trkpt>
      <trkpt lat="42.40900595672428607940673828125" lon="2.95534414239227771759033203125">
        <ele>236.399993896484375</ele>
        <time>2020-08-07T13:52:04.000Z</time>
      </trkpt>
      <trkpt lat="42.40922707132995128631591796875" lon="2.9552087746560573577880859375">
        <ele>237.399993896484375</ele>
        <time>2020-08-07T13:52:15.000Z</time>
      </trkpt>
      <trkpt lat="42.40932933054864406585693359375" lon="2.95515605248510837554931640625">
        <ele>238.399993896484375</ele>
        <time>2020-08-07T13:52:20.000Z</time>
      </trkpt>
      <trkpt lat="42.4093895964324474334716796875" lon="2.9551182501018047332763671875">
        <ele>238.1999969482421875</ele>
        <time>2020-08-07T13:52:23.000Z</time>
      </trkpt>
      <trkpt lat="42.40957592613995075225830078125" lon="2.9550086148083209991455078125">
        <ele>239.1999969482421875</ele>
        <time>2020-08-07T13:52:33.000Z</time>
      </trkpt>
      <trkpt lat="42.40959051065146923065185546875" lon="2.9549982212483882904052734375">
        <ele>239.399993896484375</ele>
        <time>2020-08-07T13:52:34.000Z</time>
      </trkpt>
      <trkpt lat="42.40966745652258396148681640625" lon="2.95495773665606975555419921875">
        <ele>240.600006103515625</ele>
        <time>2020-08-07T13:52:39.000Z</time>
      </trkpt>
      <trkpt lat="42.40975731052458286285400390625" lon="2.9549185931682586669921875">
        <ele>241.600006103515625</ele>
        <time>2020-08-07T13:52:44.000Z</time>
      </trkpt>
      <trkpt lat="42.40977399051189422607421875" lon="2.95490727759897708892822265625">
        <ele>241.8000030517578125</ele>
        <time>2020-08-07T13:52:45.000Z</time>
      </trkpt>
      <trkpt lat="42.40988739766180515289306640625" lon="2.95483016408979892730712890625">
        <ele>242.8000030517578125</ele>
        <time>2020-08-07T13:52:52.000Z</time>
      </trkpt>
      <trkpt lat="42.409904412925243377685546875" lon="2.9548211954534053802490234375">
        <ele>242.8000030517578125</ele>
        <time>2020-08-07T13:52:53.000Z</time>
      </trkpt>
      <trkpt lat="42.41002343595027923583984375" lon="2.95475942082703113555908203125">
        <ele>244</ele>
        <time>2020-08-07T13:53:00.000Z</time>
      </trkpt>
      <trkpt lat="42.4100396968424320220947265625" lon="2.95474969781935214996337890625">
        <ele>244</ele>
        <time>2020-08-07T13:53:01.000Z</time>
      </trkpt>
      <trkpt lat="42.41016953252255916595458984375" lon="2.95467384159564971923828125">
        <ele>245</ele>
        <time>2020-08-07T13:53:09.000Z</time>
      </trkpt>
      <trkpt lat="42.410185374319553375244140625" lon="2.95466470532119274139404296875">
        <ele>245.1999969482421875</ele>
        <time>2020-08-07T13:53:10.000Z</time>
      </trkpt>
      <trkpt lat="42.410336248576641082763671875" lon="2.95456646941602230072021484375">
        <ele>245.8000030517578125</ele>
        <time>2020-08-07T13:53:19.000Z</time>
      </trkpt>
      <trkpt lat="42.41035359911620616912841796875" lon="2.9545536451041698455810546875">
        <ele>246.1999969482421875</ele>
        <time>2020-08-07T13:53:20.000Z</time>
      </trkpt>
      <trkpt lat="42.4104939959943294525146484375" lon="2.95446504838764667510986328125">
        <ele>246</ele>
        <time>2020-08-07T13:53:27.000Z</time>
      </trkpt>
      <trkpt lat="42.4106743745505809783935546875" lon="2.9543558321893215179443359375">
        <ele>246.8000030517578125</ele>
        <time>2020-08-07T13:53:35.000Z</time>
      </trkpt>
      <trkpt lat="42.4107682518661022186279296875" lon="2.95429506339132785797119140625">
        <ele>247.1999969482421875</ele>
        <time>2020-08-07T13:53:39.000Z</time>
      </trkpt>
      <trkpt lat="42.41086690686643123626708984375" lon="2.95423605479300022125244140625">
        <ele>247</ele>
        <time>2020-08-07T13:53:43.000Z</time>
      </trkpt>
      <trkpt lat="42.41108693182468414306640625" lon="2.9540909640491008758544921875">
        <ele>247.8000030517578125</ele>
        <time>2020-08-07T13:53:52.000Z</time>
      </trkpt>
      <trkpt lat="42.4111883528530597686767578125" lon="2.95404645614326000213623046875">
        <ele>248</ele>
        <time>2020-08-07T13:53:56.000Z</time>
      </trkpt>
      <trkpt lat="42.41131047718226909637451171875" lon="2.95398375950753688812255859375">
        <ele>248.399993896484375</ele>
        <time>2020-08-07T13:54:01.000Z</time>
      </trkpt>
      <trkpt lat="42.41147040389478206634521484375" lon="2.95389390550553798675537109375">
        <ele>248.600006103515625</ele>
        <time>2020-08-07T13:54:08.000Z</time>
      </trkpt>
      <trkpt lat="42.41149286739528179168701171875" lon="2.95388200320303440093994140625">
        <ele>249.1999969482421875</ele>
        <time>2020-08-07T13:54:09.000Z</time>
      </trkpt>
      <trkpt lat="42.41162597201764583587646484375" lon="2.953793071210384368896484375">
        <ele>250.399993896484375</ele>
        <time>2020-08-07T13:54:15.000Z</time>
      </trkpt>
      <trkpt lat="42.41169118322432041168212890625" lon="2.953754849731922149658203125">
        <ele>251</ele>
        <time>2020-08-07T13:54:18.000Z</time>
      </trkpt>
      <trkpt lat="42.41183392703533172607421875" lon="2.95367647893726825714111328125">
        <ele>251.1999969482421875</ele>
        <time>2020-08-07T13:54:25.000Z</time>
      </trkpt>
      <trkpt lat="42.41188916377723217010498046875" lon="2.95363339595496654510498046875">
        <ele>251.600006103515625</ele>
        <time>2020-08-07T13:54:28.000Z</time>
      </trkpt>
      <trkpt lat="42.4120101146399974822998046875" lon="2.95355728827416896820068359375">
        <ele>252</ele>
        <time>2020-08-07T13:54:34.000Z</time>
      </trkpt>
      <trkpt lat="42.4121093563735485076904296875" lon="2.95349006541073322296142578125">
        <ele>253</ele>
        <time>2020-08-07T13:54:39.000Z</time>
      </trkpt>
      <trkpt lat="42.41217364557087421417236328125" lon="2.95344212092459201812744140625">
        <ele>253</ele>
        <time>2020-08-07T13:54:42.000Z</time>
      </trkpt>
      <trkpt lat="42.41233541630208492279052734375" lon="2.95331371016800403594970703125">
        <ele>252.8000030517578125</ele>
        <time>2020-08-07T13:54:49.000Z</time>
      </trkpt>
      <trkpt lat="42.412529289722442626953125" lon="2.95319594442844390869140625">
        <ele>253.8000030517578125</ele>
        <time>2020-08-07T13:54:57.000Z</time>
      </trkpt>
      <trkpt lat="42.41271578706800937652587890625" lon="2.95311723835766315460205078125">
        <ele>253.600006103515625</ele>
        <time>2020-08-07T13:55:04.000Z</time>
      </trkpt>
      <trkpt lat="42.412935309112071990966796875" lon="2.95304347760975360870361328125">
        <ele>254</ele>
        <time>2020-08-07T13:55:12.000Z</time>
      </trkpt>
      <trkpt lat="42.413015775382518768310546875" lon="2.95302118174731731414794921875">
        <ele>254.1999969482421875</ele>
        <time>2020-08-07T13:55:15.000Z</time>
      </trkpt>
      <trkpt lat="42.4131218902766704559326171875" lon="2.95299343764781951904296875">
        <ele>255</ele>
        <time>2020-08-07T13:55:19.000Z</time>
      </trkpt>
      <trkpt lat="42.4132777936756610870361328125" lon="2.95295865274965763092041015625">
        <ele>255</ele>
        <time>2020-08-07T13:55:25.000Z</time>
      </trkpt>
      <trkpt lat="42.41342179477214813232421875" lon="2.9529174976050853729248046875">
        <ele>256</ele>
        <time>2020-08-07T13:55:31.000Z</time>
      </trkpt>
      <trkpt lat="42.41351164877414703369140625" lon="2.95288288034498691558837890625">
        <ele>256.600006103515625</ele>
        <time>2020-08-07T13:55:35.000Z</time>
      </trkpt>
      <trkpt lat="42.41369764320552349090576171875" lon="2.95275379903614521026611328125">
        <ele>256.20001220703125</ele>
        <time>2020-08-07T13:55:43.000Z</time>
      </trkpt>
      <trkpt lat="42.4137805402278900146484375" lon="2.9526952095329761505126953125">
        <ele>257</ele>
        <time>2020-08-07T13:55:47.000Z</time>
      </trkpt>
      <trkpt lat="42.41384114138782024383544921875" lon="2.952661179006099700927734375">
        <ele>257.399993896484375</ele>
        <time>2020-08-07T13:55:50.000Z</time>
      </trkpt>
      <trkpt lat="42.41401229985058307647705078125" lon="2.95254073105752468109130859375">
        <ele>256.79998779296875</ele>
        <time>2020-08-07T13:55:56.000Z</time>
      </trkpt>
      <trkpt lat="42.4142276309430599212646484375" lon="2.95239304192364215850830078125">
        <ele>256</ele>
        <time>2020-08-07T13:56:02.000Z</time>
      </trkpt>
      <trkpt lat="42.4143064208328723907470703125" lon="2.95233805663883686065673828125">
        <ele>255.1999969482421875</ele>
        <time>2020-08-07T13:56:04.000Z</time>
      </trkpt>
      <trkpt lat="42.4143476597964763641357421875" lon="2.9523114860057830810546875">
        <ele>255</ele>
        <time>2020-08-07T13:56:05.000Z</time>
      </trkpt>
      <trkpt lat="42.414592914283275604248046875" lon="2.95216723345220088958740234375">
        <ele>254.8000030517578125</ele>
        <time>2020-08-07T13:56:11.000Z</time>
      </trkpt>
      <trkpt lat="42.41489474661648273468017578125" lon="2.951996661722660064697265625">
        <ele>254</ele>
        <time>2020-08-07T13:56:18.000Z</time>
      </trkpt>
      <trkpt lat="42.414938248693943023681640625" lon="2.9519770480692386627197265625">
        <ele>253.399993896484375</ele>
        <time>2020-08-07T13:56:19.000Z</time>
      </trkpt>
      <trkpt lat="42.4151425994932651519775390625" lon="2.95187571085989475250244140625">
        <ele>255</ele>
        <time>2020-08-07T13:56:24.000Z</time>
      </trkpt>
      <trkpt lat="42.41521292366087436676025390625" lon="2.951839081943035125732421875">
        <ele>255.1999969482421875</ele>
        <time>2020-08-07T13:56:26.000Z</time>
      </trkpt>
      <trkpt lat="42.41551500745117664337158203125" lon="2.9516887106001377105712890625">
        <ele>254.399993896484375</ele>
        <time>2020-08-07T13:56:34.000Z</time>
      </trkpt>
      <trkpt lat="42.41559279151260852813720703125" lon="2.95164973475039005279541015625">
        <ele>253.600006103515625</ele>
        <time>2020-08-07T13:56:36.000Z</time>
      </trkpt>
      <trkpt lat="42.4157675541937351226806640625" lon="2.95158351771533489227294921875">
        <ele>252.600006103515625</ele>
        <time>2020-08-07T13:56:40.000Z</time>
      </trkpt>
      <trkpt lat="42.41581088863313198089599609375" lon="2.95157580636441707611083984375">
        <ele>252.600006103515625</ele>
        <time>2020-08-07T13:56:41.000Z</time>
      </trkpt>
      <trkpt lat="42.41590040735900402069091796875" lon="2.95156356878578662872314453125">
        <ele>251</ele>
        <time>2020-08-07T13:56:43.000Z</time>
      </trkpt>
      <trkpt lat="42.41614423692226409912109375" lon="2.95153431594371795654296875">
        <ele>251</ele>
        <time>2020-08-07T13:56:48.000Z</time>
      </trkpt>
      <trkpt lat="42.41651966236531734466552734375" lon="2.95149534009397029876708984375">
        <ele>250.399993896484375</ele>
        <time>2020-08-07T13:56:55.000Z</time>
      </trkpt>
      <trkpt lat="42.416744045913219451904296875" lon="2.951492406427860260009765625">
        <ele>249.8000030517578125</ele>
        <time>2020-08-07T13:56:59.000Z</time>
      </trkpt>
      <trkpt lat="42.4169973470270633697509765625" lon="2.951516546308994293212890625">
        <ele>249.399993896484375</ele>
        <time>2020-08-07T13:57:04.000Z</time>
      </trkpt>
      <trkpt lat="42.417214103043079376220703125" lon="2.95156155712902545928955078125">
        <ele>249.600006103515625</ele>
        <time>2020-08-07T13:57:10.000Z</time>
      </trkpt>
      <trkpt lat="42.4173376522958278656005859375" lon="2.9516022093594074249267578125">
        <ele>250.8000030517578125</ele>
        <time>2020-08-07T13:57:15.000Z</time>
      </trkpt>
      <trkpt lat="42.417407892644405364990234375" lon="2.95162576250731945037841796875">
        <ele>251.1999969482421875</ele>
        <time>2020-08-07T13:57:18.000Z</time>
      </trkpt>
      <trkpt lat="42.4175710044801235198974609375" lon="2.9516863636672496795654296875">
        <ele>252</ele>
        <time>2020-08-07T13:57:26.000Z</time>
      </trkpt>
      <trkpt lat="42.41770402528345584869384765625" lon="2.951678149402141571044921875">
        <ele>252.600006103515625</ele>
        <time>2020-08-07T13:57:33.000Z</time>
      </trkpt>
      <trkpt lat="42.41773788817226886749267578125" lon="2.9516779817640781402587890625">
        <ele>252.8000030517578125</ele>
        <time>2020-08-07T13:57:35.000Z</time>
      </trkpt>
      <trkpt lat="42.417751215398311614990234375" lon="2.951682172715663909912109375">
        <ele>253.399993896484375</ele>
        <time>2020-08-07T13:57:38.000Z</time>
      </trkpt>
      <trkpt lat="42.41775347851216793060302734375" lon="2.95167722739279270172119140625">
        <ele>253.8000030517578125</ele>
        <time>2020-08-07T13:57:50.000Z</time>
      </trkpt>
      <trkpt lat="42.4177530594170093536376953125" lon="2.9516739584505558013916015625">
        <ele>254</ele>
        <time>2020-08-07T13:58:05.000Z</time>
      </trkpt>
      <trkpt lat="42.41775398142635822296142578125" lon="2.95167286880314350128173828125">
        <ele>253.600006103515625</ele>
        <time>2020-08-07T13:58:16.000Z</time>
      </trkpt>
      <trkpt lat="42.41775356233119964599609375" lon="2.951672784984111785888671875">
        <ele>254</ele>
        <time>2020-08-07T13:58:39.000Z</time>
      </trkpt>
      <trkpt lat="42.4177537299692630767822265625" lon="2.9516732878983020782470703125">
        <ele>254.1999969482421875</ele>
        <time>2020-08-07T13:58:57.000Z</time>
      </trkpt>
      <trkpt lat="42.41775347851216793060302734375" lon="2.95167136006057262420654296875">
        <ele>253.8000030517578125</ele>
        <time>2020-08-07T13:59:28.000Z</time>
      </trkpt>
      <trkpt lat="42.417754232883453369140625" lon="2.95167169533669948577880859375">
        <ele>254.1999969482421875</ele>
        <time>2020-08-07T13:59:38.000Z</time>
      </trkpt>
      <trkpt lat="42.41775381378829479217529296875" lon="2.9516692645847797393798828125">
        <ele>254</ele>
        <time>2020-08-07T13:59:51.000Z</time>
      </trkpt>
      <trkpt lat="42.41775381378829479217529296875" lon="2.95166918076574802398681640625">
        <ele>254</ele>
        <time>2020-08-07T13:59:53.000Z</time>
      </trkpt>
      <trkpt lat="42.4177528917789459228515625" lon="2.95165979303419589996337890625">
        <ele>254.399993896484375</ele>
        <time>2020-08-07T14:00:09.000Z</time>
      </trkpt>
      <trkpt lat="42.41775113157927989959716796875" lon="2.95166281051933765411376953125">
        <ele>254</ele>
        <time>2020-08-07T14:00:23.000Z</time>
      </trkpt>
      <trkpt lat="42.4177510477602481842041015625" lon="2.9516645707190036773681640625">
        <ele>254</ele>
        <time>2020-08-07T14:00:37.000Z</time>
      </trkpt>
      <trkpt lat="42.41775088012218475341796875" lon="2.9516635648906230926513671875">
        <ele>254.399993896484375</ele>
        <time>2020-08-07T14:00:56.000Z</time>
      </trkpt>
      <trkpt lat="42.41775096394121646881103515625" lon="2.95166348107159137725830078125">
        <ele>254.399993896484375</ele>
        <time>2020-08-07T14:00:59.000Z</time>
      </trkpt>
      <trkpt lat="42.41775113157927989959716796875" lon="2.951664067804813385009765625">
        <ele>254.399993896484375</ele>
        <time>2020-08-07T14:01:18.000Z</time>
      </trkpt>
      <trkpt lat="42.4177507124841213226318359375" lon="2.95166146941483020782470703125">
        <ele>254.1999969482421875</ele>
        <time>2020-08-07T14:01:48.000Z</time>
      </trkpt>
      <trkpt lat="42.41775113157927989959716796875" lon="2.95166096650063991546630859375">
        <ele>254.1999969482421875</ele>
        <time>2020-08-07T14:02:12.000Z</time>
      </trkpt>
      <trkpt lat="42.4177510477602481842041015625" lon="2.9516608826816082000732421875">
        <ele>254.1999969482421875</ele>
        <time>2020-08-07T14:02:14.000Z</time>
      </trkpt>
      <trkpt lat="42.4177513830363750457763671875" lon="2.9516612179577350616455078125">
        <ele>254.399993896484375</ele>
        <time>2020-08-07T14:02:31.000Z</time>
      </trkpt>
      <trkpt lat="42.41775079630315303802490234375" lon="2.95165878720581531524658203125">
        <ele>254.399993896484375</ele>
        <time>2020-08-07T14:03:14.000Z</time>
      </trkpt>
      <trkpt lat="42.41775113157927989959716796875" lon="2.95165811665356159210205078125">
        <ele>254.600006103515625</ele>
        <time>2020-08-07T14:03:33.000Z</time>
      </trkpt>
      <trkpt lat="42.41775113157927989959716796875" lon="2.95165761373937129974365234375">
        <ele>254.8000030517578125</ele>
        <time>2020-08-07T14:03:41.000Z</time>
      </trkpt>
      <trkpt lat="42.41775088012218475341796875" lon="2.95165878720581531524658203125">
        <ele>255.1999969482421875</ele>
        <time>2020-08-07T14:03:58.000Z</time>
      </trkpt>
      <trkpt lat="42.41775113157927989959716796875" lon="2.95165845192968845367431640625">
        <ele>255</ele>
        <time>2020-08-07T14:04:28.000Z</time>
      </trkpt>
      <trkpt lat="42.41775088012218475341796875" lon="2.95165501534938812255859375">
        <ele>255</ele>
        <time>2020-08-07T14:07:08.000Z</time>
      </trkpt>
      <trkpt lat="42.41778382100164890289306640625" lon="2.95166783966124057769775390625">
        <ele>255.399993896484375</ele>
        <time>2020-08-07T14:07:14.000Z</time>
      </trkpt>
      <trkpt lat="42.41787602193653583526611328125" lon="2.9516840167343616485595703125">
        <ele>255.600006103515625</ele>
        <time>2020-08-07T14:07:21.000Z</time>
      </trkpt>
      <trkpt lat="42.4179062806069850921630859375" lon="2.95168778859078884124755859375">
        <ele>255.8000030517578125</ele>
        <time>2020-08-07T14:07:23.000Z</time>
      </trkpt>
      <trkpt lat="42.41798632778227329254150390625" lon="2.951704971492290496826171875">
        <ele>256.399993896484375</ele>
        <time>2020-08-07T14:07:28.000Z</time>
      </trkpt>
      <trkpt lat="42.41802924312651157379150390625" lon="2.9516964219510555267333984375">
        <ele>256.79998779296875</ele>
        <time>2020-08-07T14:07:31.000Z</time>
      </trkpt>
      <trkpt lat="42.4180735833942890167236328125" lon="2.9516999423503875732421875">
        <ele>257.399993896484375</ele>
        <time>2020-08-07T14:07:34.000Z</time>
      </trkpt>
      <trkpt lat="42.41811574436724185943603515625" lon="2.95171343721449375152587890625">
        <ele>257.79998779296875</ele>
        <time>2020-08-07T14:07:37.000Z</time>
      </trkpt>
      <trkpt lat="42.4181949533522129058837890625" lon="2.95174931176006793975830078125">
        <ele>259</ele>
        <time>2020-08-07T14:07:43.000Z</time>
      </trkpt>
      <trkpt lat="42.41831623949110507965087890625" lon="2.95181150548160076141357421875">
        <ele>259.600006103515625</ele>
        <time>2020-08-07T14:07:51.000Z</time>
      </trkpt>
      <trkpt lat="42.41835999302566051483154296875" lon="2.95182893984019756317138671875">
        <ele>260.20001220703125</ele>
        <time>2020-08-07T14:07:54.000Z</time>
      </trkpt>
      <trkpt lat="42.41842051036655902862548828125" lon="2.9518526606261730194091796875">
        <ele>261.399993896484375</ele>
        <time>2020-08-07T14:07:59.000Z</time>
      </trkpt>
      <trkpt lat="42.41848873905837535858154296875" lon="2.95191041193902492523193359375">
        <ele>261.79998779296875</ele>
        <time>2020-08-07T14:08:05.000Z</time>
      </trkpt>
      <trkpt lat="42.41854615509510040283203125" lon="2.95191225595772266387939453125">
        <ele>262.399993896484375</ele>
        <time>2020-08-07T14:08:09.000Z</time>
      </trkpt>
      <trkpt lat="42.41855956614017486572265625" lon="2.95190420933067798614501953125">
        <ele>262.600006103515625</ele>
        <time>2020-08-07T14:08:10.000Z</time>
      </trkpt>
      <trkpt lat="42.41856970824301242828369140625" lon="2.95189079828560352325439453125">
        <ele>262.600006103515625</ele>
        <time>2020-08-07T14:08:11.000Z</time>
      </trkpt>
      <trkpt lat="42.41858496330678462982177734375" lon="2.9517965018749237060546875">
        <ele>263.600006103515625</ele>
        <time>2020-08-07T14:08:16.000Z</time>
      </trkpt>
      <trkpt lat="42.41858479566872119903564453125" lon="2.9517768882215023040771484375">
        <ele>263.79998779296875</ele>
        <time>2020-08-07T14:08:17.000Z</time>
      </trkpt>
      <trkpt lat="42.41858496330678462982177734375" lon="2.95173254795372486114501953125">
        <ele>264</ele>
        <time>2020-08-07T14:08:19.000Z</time>
      </trkpt>
      <trkpt lat="42.41858446039259433746337890625" lon="2.95163447968661785125732421875">
        <ele>264.20001220703125</ele>
        <time>2020-08-07T14:08:23.000Z</time>
      </trkpt>
      <trkpt lat="42.41859200410544872283935546875" lon="2.95160807669162750244140625">
        <ele>264.399993896484375</ele>
        <time>2020-08-07T14:08:24.000Z</time>
      </trkpt>
      <trkpt lat="42.41868294775485992431640625" lon="2.95141898095607757568359375">
        <ele>264</ele>
        <time>2020-08-07T14:08:31.000Z</time>
      </trkpt>
      <trkpt lat="42.41874472238123416900634765625" lon="2.95127942226827144622802734375">
        <ele>263.20001220703125</ele>
        <time>2020-08-07T14:08:36.000Z</time>
      </trkpt>
      <trkpt lat="42.41874103434383869171142578125" lon="2.951256372034549713134765625">
        <ele>263.20001220703125</ele>
        <time>2020-08-07T14:08:37.000Z</time>
      </trkpt>
      <trkpt lat="42.41870105266571044921875" lon="2.951208762824535369873046875">
        <ele>262.600006103515625</ele>
        <time>2020-08-07T14:08:40.000Z</time>
      </trkpt>
      <trkpt lat="42.4186754040420055389404296875" lon="2.9511888138949871063232421875">
        <ele>262.399993896484375</ele>
        <time>2020-08-07T14:08:41.000Z</time>
      </trkpt>
      <trkpt lat="42.41856317035853862762451171875" lon="2.95108177699148654937744140625">
        <ele>261.399993896484375</ele>
        <time>2020-08-07T14:08:45.000Z</time>
      </trkpt>
      <trkpt lat="42.41854389198124408721923828125" lon="2.95099996961653232574462890625">
        <ele>260.20001220703125</ele>
        <time>2020-08-07T14:08:47.000Z</time>
      </trkpt>
      <trkpt lat="42.4185583926737308502197265625" lon="2.9509215988218784332275390625">
        <ele>259.600006103515625</ele>
        <time>2020-08-07T14:08:49.000Z</time>
      </trkpt>
      <trkpt lat="42.4186130426824092864990234375" lon="2.95083736069500446319580078125">
        <ele>259</ele>
        <time>2020-08-07T14:08:52.000Z</time>
      </trkpt>
      <trkpt lat="42.41866492666304111480712890625" lon="2.95076854526996612548828125">
        <ele>258.600006103515625</ele>
        <time>2020-08-07T14:08:54.000Z</time>
      </trkpt>
      <trkpt lat="42.4187243543565273284912109375" lon="2.95068698935210704803466796875">
        <ele>257.79998779296875</ele>
        <time>2020-08-07T14:08:56.000Z</time>
      </trkpt>
      <trkpt lat="42.4187883920967578887939453125" lon="2.95059545896947383880615234375">
        <ele>256.79998779296875</ele>
        <time>2020-08-07T14:08:58.000Z</time>
      </trkpt>
      <trkpt lat="42.41885871626436710357666015625" lon="2.95049319975078105926513671875">
        <ele>255.399993896484375</ele>
        <time>2020-08-07T14:09:00.000Z</time>
      </trkpt>
      <trkpt lat="42.41889660246670246124267578125" lon="2.95043720863759517669677734375">
        <ele>255</ele>
        <time>2020-08-07T14:09:01.000Z</time>
      </trkpt>
      <trkpt lat="42.4189359135925769805908203125" lon="2.950382642447948455810546875">
        <ele>254.399993896484375</ele>
        <time>2020-08-07T14:09:02.000Z</time>
      </trkpt>
      <trkpt lat="42.41901461966335773468017578125" lon="2.95027367770671844482421875">
        <ele>253.1999969482421875</ele>
        <time>2020-08-07T14:09:04.000Z</time>
      </trkpt>
      <trkpt lat="42.4191033840179443359375" lon="2.95016278512775897979736328125">
        <ele>251.600006103515625</ele>
        <time>2020-08-07T14:09:06.000Z</time>
      </trkpt>
      <trkpt lat="42.41915166378021240234375" lon="2.9501062072813510894775390625">
        <ele>251.399993896484375</ele>
        <time>2020-08-07T14:09:07.000Z</time>
      </trkpt>
      <trkpt lat="42.4192440323531627655029296875" lon="2.94998642988502979278564453125">
        <ele>250.399993896484375</ele>
        <time>2020-08-07T14:09:09.000Z</time>
      </trkpt>
      <trkpt lat="42.41936288774013519287109375" lon="2.9498014412820339202880859375">
        <ele>249.399993896484375</ele>
        <time>2020-08-07T14:09:12.000Z</time>
      </trkpt>
      <trkpt lat="42.4193969182670116424560546875" lon="2.94973799027502536773681640625">
        <ele>248.8000030517578125</ele>
        <time>2020-08-07T14:09:13.000Z</time>
      </trkpt>
      <trkpt lat="42.419454753398895263671875" lon="2.94959734193980693817138671875">
        <ele>247.8000030517578125</ele>
        <time>2020-08-07T14:09:15.000Z</time>
      </trkpt>
      <trkpt lat="42.41949708200991153717041015625" lon="2.949435152113437652587890625">
        <ele>246.600006103515625</ele>
        <time>2020-08-07T14:09:17.000Z</time>
      </trkpt>
      <trkpt lat="42.41952843032777309417724609375" lon="2.94928352348506450653076171875">
        <ele>244.8000030517578125</ele>
        <time>2020-08-07T14:09:19.000Z</time>
      </trkpt>
      <trkpt lat="42.41953714750707149505615234375" lon="2.94914136640727519989013671875">
        <ele>243.1999969482421875</ele>
        <time>2020-08-07T14:09:21.000Z</time>
      </trkpt>
      <trkpt lat="42.41953413002192974090576171875" lon="2.9490651749074459075927734375">
        <ele>242.600006103515625</ele>
        <time>2020-08-07T14:09:22.000Z</time>
      </trkpt>
      <trkpt lat="42.41951443254947662353515625" lon="2.9488911665976047515869140625">
        <ele>242</ele>
        <time>2020-08-07T14:09:24.000Z</time>
      </trkpt>
      <trkpt lat="42.41950831376016139984130859375" lon="2.9488026537001132965087890625">
        <ele>241.600006103515625</ele>
        <time>2020-08-07T14:09:25.000Z</time>
      </trkpt>
      <trkpt lat="42.419508062303066253662109375" lon="2.94871799647808074951171875">
        <ele>241.399993896484375</ele>
        <time>2020-08-07T14:09:26.000Z</time>
      </trkpt>
      <trkpt lat="42.4195085652172565460205078125" lon="2.94862956739962100982666015625">
        <ele>240.8000030517578125</ele>
        <time>2020-08-07T14:09:27.000Z</time>
      </trkpt>
      <trkpt lat="42.41949708200991153717041015625" lon="2.9484442435204982757568359375">
        <ele>240.1999969482421875</ele>
        <time>2020-08-07T14:09:29.000Z</time>
      </trkpt>
      <trkpt lat="42.419454753398895263671875" lon="2.94827115722000598907470703125">
        <ele>239.600006103515625</ele>
        <time>2020-08-07T14:09:31.000Z</time>
      </trkpt>
      <trkpt lat="42.41939834319055080413818359375" lon="2.94811910949647426605224609375">
        <ele>238.399993896484375</ele>
        <time>2020-08-07T14:09:33.000Z</time>
      </trkpt>
      <trkpt lat="42.41936816833913326263427734375" lon="2.9480546526610851287841796875">
        <ele>237.8000030517578125</ele>
        <time>2020-08-07T14:09:34.000Z</time>
      </trkpt>
      <trkpt lat="42.41929105482995510101318359375" lon="2.9479463584721088409423828125">
        <ele>237</ele>
        <time>2020-08-07T14:09:36.000Z</time>
      </trkpt>
      <trkpt lat="42.41919734515249729156494140625" lon="2.94785432517528533935546875">
        <ele>235.8000030517578125</ele>
        <time>2020-08-07T14:09:38.000Z</time>
      </trkpt>
      <trkpt lat="42.41903775371611118316650390625" lon="2.9477066360414028167724609375">
        <ele>234.399993896484375</ele>
        <time>2020-08-07T14:09:41.000Z</time>
      </trkpt>
      <trkpt lat="42.41893985308706760406494140625" lon="2.947602532804012298583984375">
        <ele>232.1999969482421875</ele>
        <time>2020-08-07T14:09:43.000Z</time>
      </trkpt>
      <trkpt lat="42.41884966380894184112548828125" lon="2.9475182108581066131591796875">
        <ele>230.600006103515625</ele>
        <time>2020-08-07T14:09:45.000Z</time>
      </trkpt>
      <trkpt lat="42.4188115261495113372802734375" lon="2.94747822917997837066650390625">
        <ele>230</ele>
        <time>2020-08-07T14:09:46.000Z</time>
      </trkpt>
      <trkpt lat="42.418781854212284088134765625" lon="2.9474353976547718048095703125">
        <ele>229.600006103515625</ele>
        <time>2020-08-07T14:09:47.000Z</time>
      </trkpt>
      <trkpt lat="42.4187608994543552398681640625" lon="2.94738921336829662322998046875">
        <ele>229.1999969482421875</ele>
        <time>2020-08-07T14:09:48.000Z</time>
      </trkpt>
      <trkpt lat="42.41873801685869693756103515625" lon="2.94729910790920257568359375">
        <ele>228</ele>
        <time>2020-08-07T14:09:50.000Z</time>
      </trkpt>
      <trkpt lat="42.41873214952647686004638671875" lon="2.947255186736583709716796875">
        <ele>227.600006103515625</ele>
        <time>2020-08-07T14:09:51.000Z</time>
      </trkpt>
      <trkpt lat="42.41872829385101795196533203125" lon="2.94721126556396484375">
        <ele>226.8000030517578125</ele>
        <time>2020-08-07T14:09:52.000Z</time>
      </trkpt>
      <trkpt lat="42.41871337406337261199951171875" lon="2.94710204936563968658447265625">
        <ele>225.600006103515625</ele>
        <time>2020-08-07T14:09:54.000Z</time>
      </trkpt>
      <trkpt lat="42.4186956882476806640625" lon="2.946990989148616790771484375">
        <ele>224.8000030517578125</ele>
        <time>2020-08-07T14:09:56.000Z</time>
      </trkpt>
      <trkpt lat="42.41868671961128711700439453125" lon="2.94693642295897006988525390625">
        <ele>224</ele>
        <time>2020-08-07T14:09:57.000Z</time>
      </trkpt>
      <trkpt lat="42.41867984645068645477294921875" lon="2.9468826949596405029296875">
        <ele>223</ele>
        <time>2020-08-07T14:09:58.000Z</time>
      </trkpt>
      <trkpt lat="42.41867179982364177703857421875" lon="2.946774065494537353515625">
        <ele>221.399993896484375</ele>
        <time>2020-08-07T14:10:00.000Z</time>
      </trkpt>
      <trkpt lat="42.41866962052881717681884765625" lon="2.94666267000138759613037109375">
        <ele>219.1999969482421875</ele>
        <time>2020-08-07T14:10:02.000Z</time>
      </trkpt>
      <trkpt lat="42.41867087781429290771484375" lon="2.9466069303452968597412109375">
        <ele>218.8000030517578125</ele>
        <time>2020-08-07T14:10:03.000Z</time>
      </trkpt>
      <trkpt lat="42.41867582313716411590576171875" lon="2.94651397503912448883056640625">
        <ele>218</ele>
        <time>2020-08-07T14:10:05.000Z</time>
      </trkpt>
      <trkpt lat="42.41868068464100360870361328125" lon="2.94644415378570556640625">
        <ele>216.8000030517578125</ele>
        <time>2020-08-07T14:10:07.000Z</time>
      </trkpt>
      <trkpt lat="42.418690659105777740478515625" lon="2.94633963145315647125244140625">
        <ele>215.600006103515625</ele>
        <time>2020-08-07T14:10:10.000Z</time>
      </trkpt>
      <trkpt lat="42.41871052421629428863525390625" lon="2.946237288415431976318359375">
        <ele>214.600006103515625</ele>
        <time>2020-08-07T14:10:13.000Z</time>
      </trkpt>
      <trkpt lat="42.41871915757656097412109375" lon="2.94620476663112640380859375">
        <ele>214.1999969482421875</ele>
        <time>2020-08-07T14:10:14.000Z</time>
      </trkpt>
      <trkpt lat="42.4187384359538555145263671875" lon="2.94614383019506931304931640625">
        <ele>213.399993896484375</ele>
        <time>2020-08-07T14:10:16.000Z</time>
      </trkpt>
      <trkpt lat="42.4187853746116161346435546875" lon="2.94599329121410846710205078125">
        <ele>212.600006103515625</ele>
        <time>2020-08-07T14:10:20.000Z</time>
      </trkpt>
      <trkpt lat="42.4188101850450038909912109375" lon="2.94589958153665065765380859375">
        <ele>212.1999969482421875</ele>
        <time>2020-08-07T14:10:22.000Z</time>
      </trkpt>
      <trkpt lat="42.41884681396186351776123046875" lon="2.945737056434154510498046875">
        <ele>211.1999969482421875</ele>
        <time>2020-08-07T14:10:25.000Z</time>
      </trkpt>
      <trkpt lat="42.41885938681662082672119140625" lon="2.945676706731319427490234375">
        <ele>211</ele>
        <time>2020-08-07T14:10:26.000Z</time>
      </trkpt>
      <trkpt lat="42.41891370154917240142822265625" lon="2.94542483054101467132568359375">
        <ele>209.399993896484375</ele>
        <time>2020-08-07T14:10:30.000Z</time>
      </trkpt>
      <trkpt lat="42.4189379252493381500244140625" lon="2.94530689716339111328125">
        <ele>208</ele>
        <time>2020-08-07T14:10:32.000Z</time>
      </trkpt>
      <trkpt lat="42.41895007900893688201904296875" lon="2.9452416859567165374755859375">
        <ele>207</ele>
        <time>2020-08-07T14:10:33.000Z</time>
      </trkpt>
      <trkpt lat="42.41896927356719970703125" lon="2.9451129399240016937255859375">
        <ele>206</ele>
        <time>2020-08-07T14:10:35.000Z</time>
      </trkpt>
      <trkpt lat="42.41897530853748321533203125" lon="2.9449999518692493438720703125">
        <ele>206</ele>
        <time>2020-08-07T14:10:37.000Z</time>
      </trkpt>
      <trkpt lat="42.41896969266235828399658203125" lon="2.944944463670253753662109375">
        <ele>205.8000030517578125</ele>
        <time>2020-08-07T14:10:38.000Z</time>
      </trkpt>
      <trkpt lat="42.41892141290009021759033203125" lon="2.94472510926425457000732421875">
        <ele>204.600006103515625</ele>
        <time>2020-08-07T14:10:42.000Z</time>
      </trkpt>
      <trkpt lat="42.41888654418289661407470703125" lon="2.94453433714807033538818359375">
        <ele>203.8000030517578125</ele>
        <time>2020-08-07T14:10:45.000Z</time>
      </trkpt>
      <trkpt lat="42.41887531243264675140380859375" lon="2.94446409679949283599853515625">
        <ele>203.600006103515625</ele>
        <time>2020-08-07T14:10:46.000Z</time>
      </trkpt>
      <trkpt lat="42.4188286252319812774658203125" lon="2.94420920312404632568359375">
        <ele>202</ele>
        <time>2020-08-07T14:10:50.000Z</time>
      </trkpt>
      <trkpt lat="42.41881974041461944580078125" lon="2.94415161944925785064697265625">
        <ele>200.600006103515625</ele>
        <time>2020-08-07T14:10:51.000Z</time>
      </trkpt>
      <trkpt lat="42.4188115261495113372802734375" lon="2.94409520924091339111328125">
        <ele>199.1999969482421875</ele>
        <time>2020-08-07T14:10:52.000Z</time>
      </trkpt>
      <trkpt lat="42.4187971092760562896728515625" lon="2.94398716650903224945068359375">
        <ele>198.1999969482421875</ele>
        <time>2020-08-07T14:10:54.000Z</time>
      </trkpt>
      <trkpt lat="42.4187753163278102874755859375" lon="2.943877279758453369140625">
        <ele>197.600006103515625</ele>
        <time>2020-08-07T14:10:56.000Z</time>
      </trkpt>
      <trkpt lat="42.41873382590711116790771484375" lon="2.943775020539760589599609375">
        <ele>196</ele>
        <time>2020-08-07T14:10:58.000Z</time>
      </trkpt>
      <trkpt lat="42.418679259717464447021484375" lon="2.94369128532707691192626953125">
        <ele>194.8000030517578125</ele>
        <time>2020-08-07T14:11:00.000Z</time>
      </trkpt>
      <trkpt lat="42.41861865855753421783447265625" lon="2.94361718930304050445556640625">
        <ele>194.1999969482421875</ele>
        <time>2020-08-07T14:11:02.000Z</time>
      </trkpt>
      <trkpt lat="42.41858680732548236846923828125" lon="2.94357880018651485443115234375">
        <ele>193.8000030517578125</ele>
        <time>2020-08-07T14:11:03.000Z</time>
      </trkpt>
      <trkpt lat="42.41849116981029510498046875" lon="2.94346095062792301177978515625">
        <ele>192.1999969482421875</ele>
        <time>2020-08-07T14:11:06.000Z</time>
      </trkpt>
      <trkpt lat="42.41840341128408908843994140625" lon="2.94334745965898036956787109375">
        <ele>191.1999969482421875</ele>
        <time>2020-08-07T14:11:09.000Z</time>
      </trkpt>
      <trkpt lat="42.41836921311914920806884765625" lon="2.9433021135628223419189453125">
        <ele>190.8000030517578125</ele>
        <time>2020-08-07T14:11:10.000Z</time>
      </trkpt>
      <trkpt lat="42.4182888306677341461181640625" lon="2.9432079009711742401123046875">
        <ele>189.600006103515625</ele>
        <time>2020-08-07T14:11:12.000Z</time>
      </trkpt>
      <trkpt lat="42.41819788701832294464111328125" lon="2.94311821460723876953125">
        <ele>187.399993896484375</ele>
        <time>2020-08-07T14:11:14.000Z</time>
      </trkpt>
      <trkpt lat="42.41810199804604053497314453125" lon="2.94303196482360363006591796875">
        <ele>186</ele>
        <time>2020-08-07T14:11:16.000Z</time>
      </trkpt>
      <trkpt lat="42.417995296418666839599609375" lon="2.94295300729572772979736328125">
        <ele>184.8000030517578125</ele>
        <time>2020-08-07T14:11:18.000Z</time>
      </trkpt>
      <trkpt lat="42.417914159595966339111328125" lon="2.94289567507803440093994140625">
        <ele>184</ele>
        <time>2020-08-07T14:11:20.000Z</time>
      </trkpt>
      <trkpt lat="42.4178868345916271209716796875" lon="2.9428716190159320831298828125">
        <ele>183.600006103515625</ele>
        <time>2020-08-07T14:11:21.000Z</time>
      </trkpt>
      <trkpt lat="42.41785741411149501800537109375" lon="2.94282157905399799346923828125">
        <ele>182</ele>
        <time>2020-08-07T14:11:23.000Z</time>
      </trkpt>
      <trkpt lat="42.41785221733152866363525390625" lon="2.94279224239289760589599609375">
        <ele>181.600006103515625</ele>
        <time>2020-08-07T14:11:24.000Z</time>
      </trkpt>
      <trkpt lat="42.41786956787109375" lon="2.94271496124565601348876953125">
        <ele>181</ele>
        <time>2020-08-07T14:11:27.000Z</time>
      </trkpt>
      <trkpt lat="42.41790217347443103790283203125" lon="2.942688055336475372314453125">
        <ele>180.8000030517578125</ele>
        <time>2020-08-07T14:11:29.000Z</time>
      </trkpt>
      <trkpt lat="42.41793000139296054840087890625" lon="2.9426823556423187255859375">
        <ele>180</ele>
        <time>2020-08-07T14:11:33.000Z</time>
      </trkpt>
      <trkpt lat="42.417977191507816314697265625" lon="2.9426796734333038330078125">
        <ele>180</ele>
        <time>2020-08-07T14:11:36.000Z</time>
      </trkpt>
      <trkpt lat="42.4180018343031406402587890625" lon="2.9426848702132701873779296875">
        <ele>180</ele>
        <time>2020-08-07T14:11:37.000Z</time>
      </trkpt>
      <trkpt lat="42.41819738410413265228271484375" lon="2.94270641170442104339599609375">
        <ele>179.399993896484375</ele>
        <time>2020-08-07T14:11:43.000Z</time>
      </trkpt>
      <trkpt lat="42.4183796904981136322021484375" lon="2.9426768235862255096435546875">
        <ele>179.1999969482421875</ele>
        <time>2020-08-07T14:11:48.000Z</time>
      </trkpt>
      <trkpt lat="42.41846409626305103302001953125" lon="2.94266936369240283966064453125">
        <ele>179</ele>
        <time>2020-08-07T14:11:50.000Z</time>
      </trkpt>
      <trkpt lat="42.4185064248740673065185546875" lon="2.94267104007303714752197265625">
        <ele>178.600006103515625</ele>
        <time>2020-08-07T14:11:51.000Z</time>
      </trkpt>
      <trkpt lat="42.418641038239002227783203125" lon="2.9426728002727031707763671875">
        <ele>178.399993896484375</ele>
        <time>2020-08-07T14:11:54.000Z</time>
      </trkpt>
      <trkpt lat="42.41881571710109710693359375" lon="2.9426671005785465240478515625">
        <ele>177.8000030517578125</ele>
        <time>2020-08-07T14:11:58.000Z</time>
      </trkpt>
      <trkpt lat="42.418849579989910125732421875" lon="2.94266232289373874664306640625">
        <ele>177.8000030517578125</ele>
        <time>2020-08-07T14:11:59.000Z</time>
      </trkpt>
      <trkpt lat="42.41901956498622894287109375" lon="2.94261219911277294158935546875">
        <ele>179</ele>
        <time>2020-08-07T14:12:05.000Z</time>
      </trkpt>
      <trkpt lat="42.41907865740358829498291015625" lon="2.94259459711611270904541015625">
        <ele>180</ele>
        <time>2020-08-07T14:12:08.000Z</time>
      </trkpt>
      <trkpt lat="42.41916717030107975006103515625" lon="2.942589484155178070068359375">
        <ele>180.600006103515625</ele>
        <time>2020-08-07T14:12:13.000Z</time>
      </trkpt>
      <trkpt lat="42.41920338012278079986572265625" lon="2.942588813602924346923828125">
        <ele>181.399993896484375</ele>
        <time>2020-08-07T14:12:15.000Z</time>
      </trkpt>
      <trkpt lat="42.4193221516907215118408203125" lon="2.94258353300392627716064453125">
        <ele>182.600006103515625</ele>
        <time>2020-08-07T14:12:22.000Z</time>
      </trkpt>
      <trkpt lat="42.4194614589214324951171875" lon="2.9425648413598537445068359375">
        <ele>183.600006103515625</ele>
        <time>2020-08-07T14:12:30.000Z</time>
      </trkpt>
      <trkpt lat="42.419481240212917327880859375" lon="2.94256324879825115203857421875">
        <ele>183.600006103515625</ele>
        <time>2020-08-07T14:12:31.000Z</time>
      </trkpt>
      <trkpt lat="42.4195714294910430908203125" lon="2.94254715554416179656982421875">
        <ele>184.1999969482421875</ele>
        <time>2020-08-07T14:12:36.000Z</time>
      </trkpt>
      <trkpt lat="42.41973160766065120697021484375" lon="2.94251002371311187744140625">
        <ele>184.600006103515625</ele>
        <time>2020-08-07T14:12:44.000Z</time>
      </trkpt>
      <trkpt lat="42.41975314915180206298828125" lon="2.94250306673347949981689453125">
        <ele>184.8000030517578125</ele>
        <time>2020-08-07T14:12:45.000Z</time>
      </trkpt>
      <trkpt lat="42.4199152551591396331787109375" lon="2.9424397833645343780517578125">
        <ele>184.8000030517578125</ele>
        <time>2020-08-07T14:12:52.000Z</time>
      </trkpt>
      <trkpt lat="42.420122623443603515625" lon="2.9423690401017665863037109375">
        <ele>185.399993896484375</ele>
        <time>2020-08-07T14:13:01.000Z</time>
      </trkpt>
      <trkpt lat="42.42025061510503292083740234375" lon="2.94234096072614192962646484375">
        <ele>186</ele>
        <time>2020-08-07T14:13:06.000Z</time>
      </trkpt>
      <trkpt lat="42.4204513616859912872314453125" lon="2.94229737482964992523193359375">
        <ele>186.399993896484375</ele>
        <time>2020-08-07T14:13:14.000Z</time>
      </trkpt>
      <trkpt lat="42.420641966164112091064453125" lon="2.9422513581812381744384765625">
        <ele>186.8000030517578125</ele>
        <time>2020-08-07T14:13:22.000Z</time>
      </trkpt>
      <trkpt lat="42.4208550341427326202392578125" lon="2.942185811698436737060546875">
        <ele>187.399993896484375</ele>
        <time>2020-08-07T14:13:31.000Z</time>
      </trkpt>
      <trkpt lat="42.42092586122453212738037109375" lon="2.9421651922166347503662109375">
        <ele>188.1999969482421875</ele>
        <time>2020-08-07T14:13:34.000Z</time>
      </trkpt>
      <trkpt lat="42.42111478932201862335205078125" lon="2.94210241176187992095947265625">
        <ele>189</ele>
        <time>2020-08-07T14:13:42.000Z</time>
      </trkpt>
      <trkpt lat="42.4211619794368743896484375" lon="2.94208581559360027313232421875">
        <ele>189.1999969482421875</ele>
        <time>2020-08-07T14:13:44.000Z</time>
      </trkpt>
      <trkpt lat="42.42127940990030765533447265625" lon="2.94204692356288433074951171875">
        <ele>189.399993896484375</ele>
        <time>2020-08-07T14:13:49.000Z</time>
      </trkpt>
      <trkpt lat="42.4214273504912853240966796875" lon="2.94198431074619293212890625">
        <ele>190</ele>
        <time>2020-08-07T14:13:56.000Z</time>
      </trkpt>
      <trkpt lat="42.42144721560180187225341796875" lon="2.94197316281497478485107421875">
        <ele>190.399993896484375</ele>
        <time>2020-08-07T14:13:57.000Z</time>
      </trkpt>
      <trkpt lat="42.42152097634971141815185546875" lon="2.94189185835421085357666015625">
        <ele>191</ele>
        <time>2020-08-07T14:14:02.000Z</time>
      </trkpt>
      <trkpt lat="42.4215446971356868743896484375" lon="2.941726483404636383056640625">
        <ele>190.8000030517578125</ele>
        <time>2020-08-07T14:14:06.000Z</time>
      </trkpt>
      <trkpt lat="42.4215587787330150604248046875" lon="2.9414778761565685272216796875">
        <ele>189.399993896484375</ele>
        <time>2020-08-07T14:14:10.000Z</time>
      </trkpt>
      <trkpt lat="42.421561293303966522216796875" lon="2.94141543097794055938720703125">
        <ele>189.1999969482421875</ele>
        <time>2020-08-07T14:14:11.000Z</time>
      </trkpt>
      <trkpt lat="42.421559952199459075927734375" lon="2.9413498006761074066162109375">
        <ele>189</ele>
        <time>2020-08-07T14:14:12.000Z</time>
      </trkpt>
      <trkpt lat="42.421541847288608551025390625" lon="2.94121049344539642333984375">
        <ele>188.8000030517578125</ele>
        <time>2020-08-07T14:14:14.000Z</time>
      </trkpt>
      <trkpt lat="42.4215269275009632110595703125" lon="2.94113731943070888519287109375">
        <ele>188.1999969482421875</ele>
        <time>2020-08-07T14:14:15.000Z</time>
      </trkpt>
      <trkpt lat="42.42150270380079746246337890625" lon="2.94099885039031505584716796875">
        <ele>187.600006103515625</ele>
        <time>2020-08-07T14:14:17.000Z</time>
      </trkpt>
      <trkpt lat="42.42149524390697479248046875" lon="2.9409313760697841644287109375">
        <ele>187.1999969482421875</ele>
        <time>2020-08-07T14:14:18.000Z</time>
      </trkpt>
      <trkpt lat="42.42149767465889453887939453125" lon="2.94080137275159358978271484375">
        <ele>186.8000030517578125</ele>
        <time>2020-08-07T14:14:20.000Z</time>
      </trkpt>
      <trkpt lat="42.42156724445521831512451171875" lon="2.94064261950552463531494140625">
        <ele>186.399993896484375</ele>
        <time>2020-08-07T14:14:23.000Z</time>
      </trkpt>
      <trkpt lat="42.421663217246532440185546875" lon="2.9405551962554454803466796875">
        <ele>186</ele>
        <time>2020-08-07T14:14:26.000Z</time>
      </trkpt>
      <trkpt lat="42.42171694524586200714111328125" lon="2.94051856733858585357666015625">
        <ele>186.399993896484375</ele>
        <time>2020-08-07T14:14:28.000Z</time>
      </trkpt>
      <trkpt lat="42.4217844195663928985595703125" lon="2.940455116331577301025390625">
        <ele>187</ele>
        <time>2020-08-07T14:14:31.000Z</time>
      </trkpt>
      <trkpt lat="42.42182004265487194061279296875" lon="2.940364591777324676513671875">
        <ele>187.1999969482421875</ele>
        <time>2020-08-07T14:14:34.000Z</time>
      </trkpt>
      <trkpt lat="42.42178232409060001373291015625" lon="2.94019795954227447509765625">
        <ele>187.399993896484375</ele>
        <time>2020-08-07T14:14:40.000Z</time>
      </trkpt>
      <trkpt lat="42.421755753457546234130859375" lon="2.9401022382080554962158203125">
        <ele>188.1999969482421875</ele>
        <time>2020-08-07T14:14:44.000Z</time>
      </trkpt>
      <trkpt lat="42.4217411689460277557373046875" lon="2.9399698041379451751708984375">
        <ele>188.8000030517578125</ele>
        <time>2020-08-07T14:14:49.000Z</time>
      </trkpt>
      <trkpt lat="42.42173773236572742462158203125" lon="2.9398365318775177001953125">
        <ele>189.399993896484375</ele>
        <time>2020-08-07T14:14:54.000Z</time>
      </trkpt>
      <trkpt lat="42.4217374809086322784423828125" lon="2.9398048482835292816162109375">
        <ele>189.600006103515625</ele>
        <time>2020-08-07T14:14:55.000Z</time>
      </trkpt>
      <trkpt lat="42.4217233993113040924072265625" lon="2.93956269510090351104736328125">
        <ele>190.1999969482421875</ele>
        <time>2020-08-07T14:15:02.000Z</time>
      </trkpt>
      <trkpt lat="42.4217197112739086151123046875" lon="2.939409725368022918701171875">
        <ele>190.399993896484375</ele>
        <time>2020-08-07T14:15:06.000Z</time>
      </trkpt>
      <trkpt lat="42.4217156879603862762451171875" lon="2.93924837373197078704833984375">
        <ele>190</ele>
        <time>2020-08-07T14:15:10.000Z</time>
      </trkpt>
      <trkpt lat="42.42171493358910083770751953125" lon="2.9390829987823963165283203125">
        <ele>189.1999969482421875</ele>
        <time>2020-08-07T14:15:14.000Z</time>
      </trkpt>
      <trkpt lat="42.421707473695278167724609375" lon="2.938821651041507720947265625">
        <ele>189.399993896484375</ele>
        <time>2020-08-07T14:15:20.000Z</time>
      </trkpt>
      <trkpt lat="42.4216871894896030426025390625" lon="2.93860380537807941436767578125">
        <ele>188.399993896484375</ele>
        <time>2020-08-07T14:15:24.000Z</time>
      </trkpt>
      <trkpt lat="42.4216640554368495941162109375" lon="2.9384694434702396392822265625">
        <ele>188.399993896484375</ele>
        <time>2020-08-07T14:15:26.000Z</time>
      </trkpt>
      <trkpt lat="42.421657852828502655029296875" lon="2.93839844875037670135498046875">
        <ele>188.399993896484375</ele>
        <time>2020-08-07T14:15:27.000Z</time>
      </trkpt>
      <trkpt lat="42.42166229523718357086181640625" lon="2.93817213736474514007568359375">
        <ele>188.1999969482421875</ele>
        <time>2020-08-07T14:15:30.000Z</time>
      </trkpt>
      <trkpt lat="42.4216684140264987945556640625" lon="2.938094772398471832275390625">
        <ele>187.8000030517578125</ele>
        <time>2020-08-07T14:15:31.000Z</time>
      </trkpt>
      <trkpt lat="42.42168844677507877349853515625" lon="2.937886230647563934326171875">
        <ele>186.8000030517578125</ele>
        <time>2020-08-07T14:15:34.000Z</time>
      </trkpt>
      <trkpt lat="42.421712167561054229736328125" lon="2.937695793807506561279296875">
        <ele>186.8000030517578125</ele>
        <time>2020-08-07T14:15:37.000Z</time>
      </trkpt>
      <trkpt lat="42.4217351339757442474365234375" lon="2.93748700059950351715087890625">
        <ele>185.600006103515625</ele>
        <time>2020-08-07T14:15:40.000Z</time>
      </trkpt>
      <trkpt lat="42.421749718487262725830078125" lon="2.93732405640184879302978515625">
        <ele>185</ele>
        <time>2020-08-07T14:15:42.000Z</time>
      </trkpt>
      <trkpt lat="42.42176673375070095062255859375" lon="2.937159352004528045654296875">
        <ele>184.1999969482421875</ele>
        <time>2020-08-07T14:15:44.000Z</time>
      </trkpt>
      <trkpt lat="42.4218323640525341033935546875" lon="2.9368628002703189849853515625">
        <ele>183.399993896484375</ele>
        <time>2020-08-07T14:15:48.000Z</time>
      </trkpt>
      <trkpt lat="42.42190972901880741119384765625" lon="2.93664193712174892425537109375">
        <ele>183</ele>
        <time>2020-08-07T14:15:52.000Z</time>
      </trkpt>
      <trkpt lat="42.42192381061613559722900390625" lon="2.93659516610205173492431640625">
        <ele>183</ele>
        <time>2020-08-07T14:15:53.000Z</time>
      </trkpt>
      <trkpt lat="42.4219835735857486724853515625" lon="2.93642451055347919464111328125">
        <ele>184.1999969482421875</ele>
        <time>2020-08-07T14:15:57.000Z</time>
      </trkpt>
      <trkpt lat="42.42203679867088794708251953125" lon="2.93627179227769374847412109375">
        <ele>184.399993896484375</ele>
        <time>2020-08-07T14:16:01.000Z</time>
      </trkpt>
      <trkpt lat="42.422094047069549560546875" lon="2.935988567769527435302734375">
        <ele>185</ele>
        <time>2020-08-07T14:16:09.000Z</time>
      </trkpt>
      <trkpt lat="42.422096394002437591552734375" lon="2.93595512397587299346923828125">
        <ele>185.399993896484375</ele>
        <time>2020-08-07T14:16:10.000Z</time>
      </trkpt>
      <trkpt lat="42.4220881797373294830322265625" lon="2.93581984005868434906005859375">
        <ele>186.399993896484375</ele>
        <time>2020-08-07T14:16:14.000Z</time>
      </trkpt>
      <trkpt lat="42.4220724217593669891357421875" lon="2.93571992777287960052490234375">
        <ele>187</ele>
        <time>2020-08-07T14:16:17.000Z</time>
      </trkpt>
      <trkpt lat="42.4220492877066135406494140625" lon="2.9355798661708831787109375">
        <ele>187.600006103515625</ele>
        <time>2020-08-07T14:16:21.000Z</time>
      </trkpt>
      <trkpt lat="42.4220271594822406768798828125" lon="2.93547056615352630615234375">
        <ele>187.8000030517578125</ele>
        <time>2020-08-07T14:16:24.000Z</time>
      </trkpt>
      <trkpt lat="42.4219787120819091796875" lon="2.93520997278392314910888671875">
        <ele>188.600006103515625</ele>
        <time>2020-08-07T14:16:32.000Z</time>
      </trkpt>
      <trkpt lat="42.42195398546755313873291015625" lon="2.934989444911479949951171875">
        <ele>188.600006103515625</ele>
        <time>2020-08-07T14:16:39.000Z</time>
      </trkpt>
      <trkpt lat="42.421945519745349884033203125" lon="2.934730947017669677734375">
        <ele>189</ele>
        <time>2020-08-07T14:16:46.000Z</time>
      </trkpt>
      <trkpt lat="42.42195851169526576995849609375" lon="2.93447353877127170562744140625">
        <ele>189.600006103515625</ele>
        <time>2020-08-07T14:16:54.000Z</time>
      </trkpt>
      <trkpt lat="42.42197326384484767913818359375" lon="2.934380583465099334716796875">
        <ele>189.8000030517578125</ele>
        <time>2020-08-07T14:16:57.000Z</time>
      </trkpt>
      <trkpt lat="42.4219979904592037200927734375" lon="2.9342275299131870269775390625">
        <ele>189.8000030517578125</ele>
        <time>2020-08-07T14:17:02.000Z</time>
      </trkpt>
      <trkpt lat="42.42205716669559478759765625" lon="2.93390541337430477142333984375">
        <ele>190</ele>
        <time>2020-08-07T14:17:12.000Z</time>
      </trkpt>
      <trkpt lat="42.42212145589292049407958984375" lon="2.93360148556530475616455078125">
        <ele>190.8000030517578125</ele>
        <time>2020-08-07T14:17:21.000Z</time>
      </trkpt>
      <trkpt lat="42.42212983779609203338623046875" lon="2.93356661684811115264892578125">
        <ele>191</ele>
        <time>2020-08-07T14:17:22.000Z</time>
      </trkpt>
      <trkpt lat="42.42218147031962871551513671875" lon="2.9333501122891902923583984375">
        <ele>191</ele>
        <time>2020-08-07T14:17:28.000Z</time>
      </trkpt>
      <trkpt lat="42.42226512171328067779541015625" lon="2.93300670571625232696533203125">
        <ele>191.1999969482421875</ele>
        <time>2020-08-07T14:17:37.000Z</time>
      </trkpt>
      <trkpt lat="42.4223662912845611572265625" lon="2.93268852867186069488525390625">
        <ele>191.600006103515625</ele>
        <time>2020-08-07T14:17:45.000Z</time>
      </trkpt>
      <trkpt lat="42.42245547473430633544921875" lon="2.93243371881544589996337890625">
        <ele>191.8000030517578125</ele>
        <time>2020-08-07T14:17:51.000Z</time>
      </trkpt>
      <trkpt lat="42.4224784411489963531494140625" lon="2.93239532969892024993896484375">
        <ele>192</ele>
        <time>2020-08-07T14:17:52.000Z</time>
      </trkpt>
      <trkpt lat="42.4225776828825473785400390625" lon="2.93221713043749332427978515625">
        <ele>191.8000030517578125</ele>
        <time>2020-08-07T14:17:57.000Z</time>
      </trkpt>
      <trkpt lat="42.4226454086601734161376953125" lon="2.9319721274077892303466796875">
        <ele>191.8000030517578125</ele>
        <time>2020-08-07T14:18:03.000Z</time>
      </trkpt>
      <trkpt lat="42.42268974892795085906982421875" lon="2.93166291899979114532470703125">
        <ele>192.600006103515625</ele>
        <time>2020-08-07T14:18:10.000Z</time>
      </trkpt>
      <trkpt lat="42.42273635230958461761474609375" lon="2.93124608695507049560546875">
        <ele>192.399993896484375</ele>
        <time>2020-08-07T14:18:19.000Z</time>
      </trkpt>
      <trkpt lat="42.4227640964090824127197265625" lon="2.9309793747961521148681640625">
        <ele>193.1999969482421875</ele>
        <time>2020-08-07T14:18:25.000Z</time>
      </trkpt>
      <trkpt lat="42.42279200814664363861083984375" lon="2.93072431348264217376708984375">
        <ele>193</ele>
        <time>2020-08-07T14:18:31.000Z</time>
      </trkpt>
      <trkpt lat="42.42282402701675891876220703125" lon="2.93030438013374805450439453125">
        <ele>194</ele>
        <time>2020-08-07T14:18:40.000Z</time>
      </trkpt>
      <trkpt lat="42.42285185493528842926025390625" lon="2.9302206449210643768310546875">
        <ele>194.399993896484375</ele>
        <time>2020-08-07T14:18:42.000Z</time>
      </trkpt>
      <trkpt lat="42.422926537692546844482421875" lon="2.93004018254578113555908203125">
        <ele>194.399993896484375</ele>
        <time>2020-08-07T14:18:47.000Z</time>
      </trkpt>
      <trkpt lat="42.42304463870823383331298828125" lon="2.9296694509685039520263671875">
        <ele>194.600006103515625</ele>
        <time>2020-08-07T14:18:57.000Z</time>
      </trkpt>
      <trkpt lat="42.42306358180940151214599609375" lon="2.929595522582530975341796875">
        <ele>195.399993896484375</ele>
        <time>2020-08-07T14:18:59.000Z</time>
      </trkpt>
      <trkpt lat="42.4231003783643245697021484375" lon="2.92939938604831695556640625">
        <ele>195.8000030517578125</ele>
        <time>2020-08-07T14:19:05.000Z</time>
      </trkpt>
      <trkpt lat="42.42314706556499004364013671875" lon="2.92923711240291595458984375">
        <ele>196.1999969482421875</ele>
        <time>2020-08-07T14:19:11.000Z</time>
      </trkpt>
      <trkpt lat="42.4231945909559726715087890625" lon="2.92903049848973751068115234375">
        <ele>196.399993896484375</ele>
        <time>2020-08-07T14:19:18.000Z</time>
      </trkpt>
      <trkpt lat="42.42319651879370212554931640625" lon="2.92897148989140987396240234375">
        <ele>196.600006103515625</ele>
        <time>2020-08-07T14:19:20.000Z</time>
      </trkpt>
      <trkpt lat="42.42323976941406726837158203125" lon="2.92878784239292144775390625">
        <ele>196.8000030517578125</ele>
        <time>2020-08-07T14:19:26.000Z</time>
      </trkpt>
      <trkpt lat="42.423278577625751495361328125" lon="2.92852138169109821319580078125">
        <ele>197</ele>
        <time>2020-08-07T14:19:34.000Z</time>
      </trkpt>
      <trkpt lat="42.42323926649987697601318359375" lon="2.92814704589545726776123046875">
        <ele>197.399993896484375</ele>
        <time>2020-08-07T14:19:44.000Z</time>
      </trkpt>
      <trkpt lat="42.423221580684185028076171875" lon="2.9280752129852771759033203125">
        <ele>197.600006103515625</ele>
        <time>2020-08-07T14:19:46.000Z</time>
      </trkpt>
      <trkpt lat="42.423168607056140899658203125" lon="2.9279119335114955902099609375">
        <ele>198</ele>
        <time>2020-08-07T14:19:51.000Z</time>
      </trkpt>
      <trkpt lat="42.4231101013720035552978515625" lon="2.92766131460666656494140625">
        <ele>198.399993896484375</ele>
        <time>2020-08-07T14:19:59.000Z</time>
      </trkpt>
      <trkpt lat="42.42304665036499500274658203125" lon="2.92745118029415607452392578125">
        <ele>198.600006103515625</ele>
        <time>2020-08-07T14:20:06.000Z</time>
      </trkpt>
      <trkpt lat="42.423008345067501068115234375" lon="2.9273723065853118896484375">
        <ele>198.600006103515625</ele>
        <time>2020-08-07T14:20:09.000Z</time>
      </trkpt>
      <trkpt lat="42.42296375334262847900390625" lon="2.92725554667413234710693359375">
        <ele>199</ele>
        <time>2020-08-07T14:20:13.000Z</time>
      </trkpt>
      <trkpt lat="42.422899715602397918701171875" lon="2.92704951949417591094970703125">
        <ele>199.1999969482421875</ele>
        <time>2020-08-07T14:20:20.000Z</time>
      </trkpt>
      <trkpt lat="42.42286794818937778472900390625" lon="2.926855646073818206787109375">
        <ele>199</ele>
        <time>2020-08-07T14:20:27.000Z</time>
      </trkpt>
      <trkpt lat="42.42286995984613895416259765625" lon="2.92678448371589183807373046875">
        <ele>199.1999969482421875</ele>
        <time>2020-08-07T14:20:33.000Z</time>
      </trkpt>
      <trkpt lat="42.42285436950623989105224609375" lon="2.9267553985118865966796875">
        <ele>199.1999969482421875</ele>
        <time>2020-08-07T14:20:42.000Z</time>
      </trkpt>
      <trkpt lat="42.4228157289326190948486328125" lon="2.92666059918701648712158203125">
        <ele>199.1999969482421875</ele>
        <time>2020-08-07T14:20:47.000Z</time>
      </trkpt>
      <trkpt lat="42.42281380109488964080810546875" lon="2.926656492054462432861328125">
        <ele>199.1999969482421875</ele>
        <time>2020-08-07T14:20:48.000Z</time>
      </trkpt>
      <trkpt lat="42.42281212471425533294677734375" lon="2.92660192586481571197509765625">
        <ele>199.600006103515625</ele>
        <time>2020-08-07T14:20:58.000Z</time>
      </trkpt>
      <trkpt lat="42.4228117056190967559814453125" lon="2.92655984871089458465576171875">
        <ele>199.399993896484375</ele>
        <time>2020-08-07T14:21:00.000Z</time>
      </trkpt>
      <trkpt lat="42.4228217639029026031494140625" lon="2.9264762811362743377685546875">
        <ele>199.399993896484375</ele>
        <time>2020-08-07T14:21:03.000Z</time>
      </trkpt>
      <trkpt lat="42.422826290130615234375" lon="2.926448285579681396484375">
        <ele>199.399993896484375</ele>
        <time>2020-08-07T14:21:04.000Z</time>
      </trkpt>
      <trkpt lat="42.42282293736934661865234375" lon="2.92633990757167339324951171875">
        <ele>199</ele>
        <time>2020-08-07T14:21:09.000Z</time>
      </trkpt>
      <trkpt lat="42.42283257655799388885498046875" lon="2.92620277963578701019287109375">
        <ele>199</ele>
        <time>2020-08-07T14:21:14.000Z</time>
      </trkpt>
      <trkpt lat="42.42282293736934661865234375" lon="2.925945706665515899658203125">
        <ele>198.1999969482421875</ele>
        <time>2020-08-07T14:21:19.000Z</time>
      </trkpt>
      <trkpt lat="42.42281514219939708709716796875" lon="2.925848476588726043701171875">
        <ele>197.8000030517578125</ele>
        <time>2020-08-07T14:21:21.000Z</time>
      </trkpt>
      <trkpt lat="42.422800473868846893310546875" lon="2.9257333092391490936279296875">
        <ele>197.600006103515625</ele>
        <time>2020-08-07T14:21:24.000Z</time>
      </trkpt>
      <trkpt lat="42.422793097794055938720703125" lon="2.92556290514767169952392578125">
        <ele>197.600006103515625</ele>
        <time>2020-08-07T14:21:30.000Z</time>
      </trkpt>
      <trkpt lat="42.4227818660438060760498046875" lon="2.92551814578473567962646484375">
        <ele>197.600006103515625</ele>
        <time>2020-08-07T14:21:32.000Z</time>
      </trkpt>
      <trkpt lat="42.422742806375026702880859375" lon="2.92547707445919513702392578125">
        <ele>197.8000030517578125</ele>
        <time>2020-08-07T14:21:35.000Z</time>
      </trkpt>
      <trkpt lat="42.422726042568683624267578125" lon="2.92546165175735950469970703125">
        <ele>197.600006103515625</ele>
        <time>2020-08-07T14:21:40.000Z</time>
      </trkpt>
      <trkpt lat="42.422722019255161285400390625" lon="2.925461232662200927734375">
        <ele>197.399993896484375</ele>
        <time>2020-08-07T14:21:44.000Z</time>
      </trkpt>
      <trkpt lat="42.42272092960774898529052734375" lon="2.92546014301478862762451171875">
        <ele>197.399993896484375</ele>
        <time>2020-08-07T14:22:31.000Z</time>
      </trkpt>
      <trkpt lat="42.4227096140384674072265625" lon="2.9254597239196300506591796875">
        <ele>197.399993896484375</ele>
        <time>2020-08-07T14:22:33.000Z</time>
      </trkpt>
      <trkpt lat="42.42261514998972415924072265625" lon="2.92545964010059833526611328125">
        <ele>197.399993896484375</ele>
        <time>2020-08-07T14:22:39.000Z</time>
      </trkpt>
      <trkpt lat="42.422521524131298065185546875" lon="2.92543784715235233306884765625">
        <ele>198</ele>
        <time>2020-08-07T14:22:45.000Z</time>
      </trkpt>
      <trkpt lat="42.4224315024912357330322265625" lon="2.9254446364939212799072265625">
        <ele>199</ele>
        <time>2020-08-07T14:22:51.000Z</time>
      </trkpt>
      <trkpt lat="42.42239973507821559906005859375" lon="2.92544446885585784912109375">
        <ele>199.1999969482421875</ele>
        <time>2020-08-07T14:22:53.000Z</time>
      </trkpt>
      <trkpt lat="42.4223206937313079833984375" lon="2.925458885729312896728515625">
        <ele>199.399993896484375</ele>
        <time>2020-08-07T14:22:58.000Z</time>
      </trkpt>
      <trkpt lat="42.42228942923247814178466796875" lon="2.925456874072551727294921875">
        <ele>199.399993896484375</ele>
        <time>2020-08-07T14:23:00.000Z</time>
      </trkpt>
      <trkpt lat="42.422205694019794464111328125" lon="2.92542611248791217803955078125">
        <ele>199.399993896484375</ele>
        <time>2020-08-07T14:23:04.000Z</time>
      </trkpt>
      <trkpt lat="42.42215699516236782073974609375" lon="2.92541136033833026885986328125">
        <ele>199.600006103515625</ele>
        <time>2020-08-07T14:23:08.000Z</time>
      </trkpt>
      <trkpt lat="42.41576747037470340728759765625" lon="2.9098190926015377044677734375">
        <ele>215.399993896484375</ele>
        <time>2020-08-08T05:49:31.000Z</time>
      </trkpt>
      <trkpt lat="42.415739558637142181396484375" lon="2.90970928966999053955078125">
        <ele>217</ele>
        <time>2020-08-08T05:49:32.000Z</time>
      </trkpt>
      <trkpt lat="42.41570879705250263214111328125" lon="2.9094881750643253326416015625">
        <ele>217.600006103515625</ele>
        <time>2020-08-08T05:49:36.000Z</time>
      </trkpt>
      <trkpt lat="42.4156639538705348968505859375" lon="2.909031696617603302001953125">
        <ele>217</ele>
        <time>2020-08-08T05:49:44.000Z</time>
      </trkpt>
      <trkpt lat="42.4156274087727069854736328125" lon="2.90893279016017913818359375">
        <ele>217</ele>
        <time>2020-08-08T05:49:46.000Z</time>
      </trkpt>
      <trkpt lat="42.41557669825851917266845703125" lon="2.9088436067104339599609375">
        <ele>217</ele>
        <time>2020-08-08T05:49:49.000Z</time>
      </trkpt>
      <trkpt lat="42.41551752202212810516357421875" lon="2.9087669961154460906982421875">
        <ele>217</ele>
        <time>2020-08-08T05:49:50.000Z</time>
      </trkpt>
      <trkpt lat="42.41539715789258480072021484375" lon="2.90861402638256549835205078125">
        <ele>216.600006103515625</ele>
        <time>2020-08-08T05:49:54.000Z</time>
      </trkpt>
      <trkpt lat="42.415152154862880706787109375" lon="2.90830775164067745208740234375">
        <ele>216.1999969482421875</ele>
        <time>2020-08-08T05:50:02.000Z</time>
      </trkpt>
      <trkpt lat="42.4150574393570423126220703125" lon="2.9081846214830875396728515625">
        <ele>215.8000030517578125</ele>
        <time>2020-08-08T05:50:05.000Z</time>
      </trkpt>
      <trkpt lat="42.4150275997817516326904296875" lon="2.9081400297582149505615234375">
        <ele>215.600006103515625</ele>
        <time>2020-08-08T05:50:06.000Z</time>
      </trkpt>
      <trkpt lat="42.41498175077140331268310546875" lon="2.90803735144436359405517578125">
        <ele>215.399993896484375</ele>
        <time>2020-08-08T05:50:08.000Z</time>
      </trkpt>
      <trkpt lat="42.41498175077140331268310546875" lon="2.90803735144436359405517578125">
        <ele>215.399993896484375</ele>
        <time>2020-08-08T05:50:09.000Z</time>
      </trkpt>
      <trkpt lat="42.41496917791664600372314453125" lon="2.907918579876422882080078125">
        <ele>215.399993896484375</ele>
        <time>2020-08-08T05:50:10.000Z</time>
      </trkpt>
      <trkpt lat="42.41499013267457485198974609375" lon="2.90779913775622844696044921875">
        <ele>215.1999969482421875</ele>
        <time>2020-08-08T05:50:12.000Z</time>
      </trkpt>
      <trkpt lat="42.41500756703317165374755859375" lon="2.90768011473119258880615234375">
        <ele>215.1999969482421875</ele>
        <time>2020-08-08T05:50:14.000Z</time>
      </trkpt>
      <trkpt lat="42.41498828865587711334228515625" lon="2.90756209753453731536865234375">
        <ele>215</ele>
        <time>2020-08-08T05:50:16.000Z</time>
      </trkpt>
      <trkpt lat="42.41493514738976955413818359375" lon="2.90746520273387432098388671875">
        <ele>214.8000030517578125</ele>
        <time>2020-08-08T05:50:19.000Z</time>
      </trkpt>
      <trkpt lat="42.41485543549060821533203125" lon="2.90741239674389362335205078125">
        <ele>214.8000030517578125</ele>
        <time>2020-08-08T05:50:20.000Z</time>
      </trkpt>
      <trkpt lat="42.41476717405021190643310546875" lon="2.9073960520327091217041015625">
        <ele>214.600006103515625</ele>
        <time>2020-08-08T05:50:22.000Z</time>
      </trkpt>
      <trkpt lat="42.4145374260842800140380859375" lon="2.9073688946664333343505859375">
        <ele>214.1999969482421875</ele>
        <time>2020-08-08T05:50:27.000Z</time>
      </trkpt>
      <trkpt lat="42.41449174471199512481689453125" lon="2.90735699236392974853515625">
        <ele>214.1999969482421875</ele>
        <time>2020-08-08T05:50:28.000Z</time>
      </trkpt>
      <trkpt lat="42.4142678640782833099365234375" lon="2.90726118721067905426025390625">
        <ele>213.8000030517578125</ele>
        <time>2020-08-08T05:50:33.000Z</time>
      </trkpt>
      <trkpt lat="42.414224445819854736328125" lon="2.90723763406276702880859375">
        <ele>213.8000030517578125</ele>
        <time>2020-08-08T05:50:34.000Z</time>
      </trkpt>
      <trkpt lat="42.4140164069831371307373046875" lon="2.90711282752454280853271484375">
        <ele>213.1999969482421875</ele>
        <time>2020-08-08T05:50:39.000Z</time>
      </trkpt>
      <trkpt lat="42.4139396287500858306884765625" lon="2.90704728104174137115478515625">
        <ele>213</ele>
        <time>2020-08-08T05:50:41.000Z</time>
      </trkpt>
      <trkpt lat="42.4136533029377460479736328125" lon="2.90683169849216938018798828125">
        <ele>212.600006103515625</ele>
        <time>2020-08-08T05:50:48.000Z</time>
      </trkpt>
      <trkpt lat="42.41349211893975734710693359375" lon="2.90670865215361118316650390625">
        <ele>212.600006103515625</ele>
        <time>2020-08-08T05:50:52.000Z</time>
      </trkpt>
      <trkpt lat="42.41335834376513957977294921875" lon="2.9065342247486114501953125">
        <ele>212.1999969482421875</ele>
        <time>2020-08-08T05:50:56.000Z</time>
      </trkpt>
      <trkpt lat="42.41333336569368839263916015625" lon="2.90647915564477443695068359375">
        <ele>212.1999969482421875</ele>
        <time>2020-08-08T05:50:57.000Z</time>
      </trkpt>
      <trkpt lat="42.4132459424436092376708984375" lon="2.90618629194796085357666015625">
        <ele>211.8000030517578125</ele>
        <time>2020-08-08T05:51:02.000Z</time>
      </trkpt>
      <trkpt lat="42.41322959773242473602294921875" lon="2.9061283729970455169677734375">
        <ele>211.8000030517578125</ele>
        <time>2020-08-08T05:51:03.000Z</time>
      </trkpt>
      <trkpt lat="42.4131381511688232421875" lon="2.9058453999459743499755859375">
        <ele>211.1999969482421875</ele>
        <time>2020-08-08T05:51:08.000Z</time>
      </trkpt>
      <trkpt lat="42.41307972930371761322021484375" lon="2.9057535342872142791748046875">
        <ele>211</ele>
        <time>2020-08-08T05:51:10.000Z</time>
      </trkpt>
      <trkpt lat="42.4129173718392848968505859375" lon="2.90566384792327880859375">
        <ele>211</ele>
        <time>2020-08-08T05:51:14.000Z</time>
      </trkpt>
      <trkpt lat="42.41283179260790348052978515625" lon="2.90565303526818752288818359375">
        <ele>211</ele>
        <time>2020-08-08T05:51:16.000Z</time>
      </trkpt>
      <trkpt lat="42.412744201719760894775390625" lon="2.9056479223072528839111328125">
        <ele>210.8000030517578125</ele>
        <time>2020-08-08T05:51:18.000Z</time>
      </trkpt>
      <trkpt lat="42.41265107877552509307861328125" lon="2.9056370258331298828125">
        <ele>210.600006103515625</ele>
        <time>2020-08-08T05:51:21.000Z</time>
      </trkpt>
      <trkpt lat="42.41217054426670074462890625" lon="2.90559553541243076324462890625">
        <ele>209.8000030517578125</ele>
        <time>2020-08-08T05:51:30.000Z</time>
      </trkpt>
      <trkpt lat="42.41202729754149913787841796875" lon="2.905586399137973785400390625">
        <ele>209.600006103515625</ele>
        <time>2020-08-08T05:51:33.000Z</time>
      </trkpt>
      <trkpt lat="42.411652542650699615478515625" lon="2.90553987957537174224853515625">
        <ele>208.8000030517578125</ele>
        <time>2020-08-08T05:51:41.000Z</time>
      </trkpt>
      <trkpt lat="42.411606609821319580078125" lon="2.90553417988121509552001953125">
        <ele>208.8000030517578125</ele>
        <time>2020-08-08T05:51:42.000Z</time>
      </trkpt>
      <trkpt lat="42.411517761647701263427734375" lon="2.90550132282078266143798828125">
        <ele>208.600006103515625</ele>
        <time>2020-08-08T05:51:44.000Z</time>
      </trkpt>
      <trkpt lat="42.41142799146473407745361328125" lon="2.90546729229390621185302734375">
        <ele>208.600006103515625</ele>
        <time>2020-08-08T05:51:46.000Z</time>
      </trkpt>
      <trkpt lat="42.41110981442034244537353515625" lon="2.9053501971065998077392578125">
        <ele>207.600006103515625</ele>
        <time>2020-08-08T05:51:53.000Z</time>
      </trkpt>
      <trkpt lat="42.41097134537994861602783203125" lon="2.90529261343181133270263671875">
        <ele>207.1999969482421875</ele>
        <time>2020-08-08T05:51:56.000Z</time>
      </trkpt>
      <trkpt lat="42.41058795712888240814208984375" lon="2.9051299206912517547607421875">
        <ele>206.8000030517578125</ele>
        <time>2020-08-08T05:52:04.000Z</time>
      </trkpt>
      <trkpt lat="42.41044060327112674713134765625" lon="2.90506848134100437164306640625">
        <ele>206</ele>
        <time>2020-08-08T05:52:07.000Z</time>
      </trkpt>
      <trkpt lat="42.41024010814726352691650390625" lon="2.9049839079380035400390625">
        <ele>205.600006103515625</ele>
        <time>2020-08-08T05:52:11.000Z</time>
      </trkpt>
      <trkpt lat="42.40998144261538982391357421875" lon="2.90486547164618968963623046875">
        <ele>205</ele>
        <time>2020-08-08T05:52:16.000Z</time>
      </trkpt>
      <trkpt lat="42.40982201881706714630126953125" lon="2.9048020206391811370849609375">
        <ele>204.399993896484375</ele>
        <time>2020-08-08T05:52:19.000Z</time>
      </trkpt>
      <trkpt lat="42.40955413319170475006103515625" lon="2.90467436425387859344482421875">
        <ele>204</ele>
        <time>2020-08-08T05:52:24.000Z</time>
      </trkpt>
      <trkpt lat="42.4094462580978870391845703125" lon="2.90460772812366485595703125">
        <ele>203.600006103515625</ele>
        <time>2020-08-08T05:52:26.000Z</time>
      </trkpt>
      <trkpt lat="42.4093939550220966339111328125" lon="2.9045673273503780364990234375">
        <ele>203.399993896484375</ele>
        <time>2020-08-08T05:52:27.000Z</time>
      </trkpt>
      <trkpt lat="42.4092330224812030792236328125" lon="2.9044479690492153167724609375">
        <ele>202.8000030517578125</ele>
        <time>2020-08-08T05:52:30.000Z</time>
      </trkpt>
      <trkpt lat="42.4091213755309581756591796875" lon="2.90437035262584686279296875">
        <ele>202.399993896484375</ele>
        <time>2020-08-08T05:52:32.000Z</time>
      </trkpt>
      <trkpt lat="42.40888861007988452911376953125" lon="2.90420698933303356170654296875">
        <ele>201.399993896484375</ele>
        <time>2020-08-08T05:52:36.000Z</time>
      </trkpt>
      <trkpt lat="42.4087066389620304107666015625" lon="2.90408344008028507232666015625">
        <ele>201</ele>
        <time>2020-08-08T05:52:39.000Z</time>
      </trkpt>
      <trkpt lat="42.40852198563516139984130859375" lon="2.90396089665591716766357421875">
        <ele>200.399993896484375</ele>
        <time>2020-08-08T05:52:42.000Z</time>
      </trkpt>
      <trkpt lat="42.40821319632232189178466796875" lon="2.90374212898313999176025390625">
        <ele>199.1999969482421875</ele>
        <time>2020-08-08T05:52:47.000Z</time>
      </trkpt>
      <trkpt lat="42.40814966149628162384033203125" lon="2.90369804017245769500732421875">
        <ele>198.600006103515625</ele>
        <time>2020-08-08T05:52:49.000Z</time>
      </trkpt>
      <trkpt lat="42.40795536898076534271240234375" lon="2.90356837213039398193359375">
        <ele>198.1999969482421875</ele>
        <time>2020-08-08T05:52:51.000Z</time>
      </trkpt>
      <trkpt lat="42.40762730129063129425048828125" lon="2.90334532968699932098388671875">
        <ele>197</ele>
        <time>2020-08-08T05:52:56.000Z</time>
      </trkpt>
      <trkpt lat="42.4073638580739498138427734375" lon="2.9031685553491115570068359375">
        <ele>195.8000030517578125</ele>
        <time>2020-08-08T05:53:01.000Z</time>
      </trkpt>
      <trkpt lat="42.4072317592799663543701171875" lon="2.90307861752808094024658203125">
        <ele>195.600006103515625</ele>
        <time>2020-08-08T05:53:02.000Z</time>
      </trkpt>
      <trkpt lat="42.40696764551103115081787109375" lon="2.90289455093443393707275390625">
        <ele>194.600006103515625</ele>
        <time>2020-08-08T05:53:06.000Z</time>
      </trkpt>
      <trkpt lat="42.40683353506028652191162109375" lon="2.902804948389530181884765625">
        <ele>193.399993896484375</ele>
        <time>2020-08-08T05:53:09.000Z</time>
      </trkpt>
      <trkpt lat="42.40642282180488109588623046875" lon="2.9025261662900447845458984375">
        <ele>192.1999969482421875</ele>
        <time>2020-08-08T05:53:14.000Z</time>
      </trkpt>
      <trkpt lat="42.40642282180488109588623046875" lon="2.9025261662900447845458984375">
        <ele>191.8000030517578125</ele>
        <time>2020-08-08T05:53:15.000Z</time>
      </trkpt>
      <trkpt lat="42.4061431176960468292236328125" lon="2.90233598090708255767822265625">
        <ele>191</ele>
        <time>2020-08-08T05:53:18.000Z</time>
      </trkpt>
      <trkpt lat="42.4058628268539905548095703125" lon="2.90214152075350284576416015625">
        <ele>190</ele>
        <time>2020-08-08T05:53:22.000Z</time>
      </trkpt>
      <trkpt lat="42.4055791832506656646728515625" lon="2.90194563567638397216796875">
        <ele>189</ele>
        <time>2020-08-08T05:53:26.000Z</time>
      </trkpt>
      <trkpt lat="42.405292689800262451171875" lon="2.9017526842653751373291015625">
        <ele>187.8000030517578125</ele>
        <time>2020-08-08T05:53:30.000Z</time>
      </trkpt>
      <trkpt lat="42.40501030348241329193115234375" lon="2.90155093185603618621826171875">
        <ele>186.600006103515625</ele>
        <time>2020-08-08T05:53:34.000Z</time>
      </trkpt>
      <trkpt lat="42.4047255702316761016845703125" lon="2.9013510234653949737548828125">
        <ele>185.399993896484375</ele>
        <time>2020-08-08T05:53:38.000Z</time>
      </trkpt>
      <trkpt lat="42.404510490596294403076171875" lon="2.9012065194547176361083984375">
        <ele>185</ele>
        <time>2020-08-08T05:53:41.000Z</time>
      </trkpt>
      <trkpt lat="42.4042947404086589813232421875" lon="2.9010623507201671600341796875">
        <ele>184</ele>
        <time>2020-08-08T05:53:44.000Z</time>
      </trkpt>
      <trkpt lat="42.40408075042068958282470703125" lon="2.90091591887176036834716796875">
        <ele>183</ele>
        <time>2020-08-08T05:53:47.000Z</time>
      </trkpt>
      <trkpt lat="42.40386701188981533050537109375" lon="2.90077527053654193878173828125">
        <ele>181.8000030517578125</ele>
        <time>2020-08-08T05:53:51.000Z</time>
      </trkpt>
      <trkpt lat="42.40359141491353511810302734375" lon="2.900588102638721466064453125">
        <ele>180.8000030517578125</ele>
        <time>2020-08-08T05:53:55.000Z</time>
      </trkpt>
      <trkpt lat="42.403212971985340118408203125" lon="2.900326587259769439697265625">
        <ele>180.1999969482421875</ele>
        <time>2020-08-08T05:54:00.000Z</time>
      </trkpt>
      <trkpt lat="42.40292991511523723602294921875" lon="2.90012332610785961151123046875">
        <ele>179.8000030517578125</ele>
        <time>2020-08-08T05:54:05.000Z</time>
      </trkpt>
      <trkpt lat="42.40272791124880313873291015625" lon="2.89995141327381134033203125">
        <ele>179.399993896484375</ele>
        <time>2020-08-08T05:54:09.000Z</time>
      </trkpt>
      <trkpt lat="42.40230848081409931182861328125" lon="2.89956961758434772491455078125">
        <ele>178.8000030517578125</ele>
        <time>2020-08-08T05:54:19.000Z</time>
      </trkpt>
      <trkpt lat="42.40221912972629070281982421875" lon="2.89949133060872554779052734375">
        <ele>178.600006103515625</ele>
        <time>2020-08-08T05:54:20.000Z</time>
      </trkpt>
      <trkpt lat="42.40188133902847766876220703125" lon="2.89918832480907440185546875">
        <ele>178.399993896484375</ele>
        <time>2020-08-08T05:54:28.000Z</time>
      </trkpt>
      <trkpt lat="42.40155260078608989715576171875" lon="2.89888531900942325592041015625">
        <ele>178</ele>
        <time>2020-08-08T05:54:37.000Z</time>
      </trkpt>
      <trkpt lat="42.40147230215370655059814453125" lon="2.89881625212728977203369140625">
        <ele>177.8000030517578125</ele>
        <time>2020-08-08T05:54:39.000Z</time>
      </trkpt>
      <trkpt lat="42.40106879733502864837646484375" lon="2.89846412837505340576171875">
        <ele>177.8000030517578125</ele>
        <time>2020-08-08T05:54:48.000Z</time>
      </trkpt>
      <trkpt lat="42.4007450044155120849609375" lon="2.89817721582949161529541015625">
        <ele>177.399993896484375</ele>
        <time>2020-08-08T05:54:56.000Z</time>
      </trkpt>
      <trkpt lat="42.40034040994942188262939453125" lon="2.8978162072598934173583984375">
        <ele>177.1999969482421875</ele>
        <time>2020-08-08T05:55:07.000Z</time>
      </trkpt>
      <trkpt lat="42.40003061480820178985595703125" lon="2.89750683121383190155029296875">
        <ele>177</ele>
        <time>2020-08-08T05:55:14.000Z</time>
      </trkpt>
      <trkpt lat="42.40003061480820178985595703125" lon="2.89750683121383190155029296875">
        <ele>177</ele>
        <time>2020-08-08T05:55:15.000Z</time>
      </trkpt>
      <trkpt lat="42.39997856318950653076171875" lon="2.89740021340548992156982421875">
        <ele>176.8000030517578125</ele>
        <time>2020-08-08T05:55:16.000Z</time>
      </trkpt>
      <trkpt lat="42.39994646050035953521728515625" lon="2.89727733470499515533447265625">
        <ele>176.8000030517578125</ele>
        <time>2020-08-08T05:55:18.000Z</time>
      </trkpt>
      <trkpt lat="42.3997983522713184356689453125" lon="2.89652028121054172515869140625">
        <ele>176.399993896484375</ele>
        <time>2020-08-08T05:55:30.000Z</time>
      </trkpt>
      <trkpt lat="42.39970455877482891082763671875" lon="2.8960181213915348052978515625">
        <ele>176.399993896484375</ele>
        <time>2020-08-08T05:55:38.000Z</time>
      </trkpt>
      <trkpt lat="42.39963146857917308807373046875" lon="2.89562995545566082000732421875">
        <ele>176</ele>
        <time>2020-08-08T05:55:45.000Z</time>
      </trkpt>
      <trkpt lat="42.3995770700275897979736328125" lon="2.895361483097076416015625">
        <ele>175.600006103515625</ele>
        <time>2020-08-08T05:55:48.000Z</time>
      </trkpt>
      <trkpt lat="42.39950171671807765960693359375" lon="2.89507842622697353363037109375">
        <ele>174.8000030517578125</ele>
        <time>2020-08-08T05:55:52.000Z</time>
      </trkpt>
      <trkpt lat="42.39943533204495906829833984375" lon="2.89495018310844898223876953125">
        <ele>174.600006103515625</ele>
        <time>2020-08-08T05:55:54.000Z</time>
      </trkpt>
      <trkpt lat="42.39930055104196071624755859375" lon="2.8946914337575435638427734375">
        <ele>173.8000030517578125</ele>
        <time>2020-08-08T05:55:58.000Z</time>
      </trkpt>
      <trkpt lat="42.39928009919822216033935546875" lon="2.8946144878864288330078125">
        <ele>173.8000030517578125</ele>
        <time>2020-08-08T05:55:59.000Z</time>
      </trkpt>
      <trkpt lat="42.3992709629237651824951171875" lon="2.89453175850212574005126953125">
        <ele>173.600006103515625</ele>
        <time>2020-08-08T05:56:00.000Z</time>
      </trkpt>
      <trkpt lat="42.399296276271343231201171875" lon="2.8943638689815998077392578125">
        <ele>173.1999969482421875</ele>
        <time>2020-08-08T05:56:02.000Z</time>
      </trkpt>
      <trkpt lat="42.39935017190873622894287109375" lon="2.89419178850948810577392578125">
        <ele>172.600006103515625</ele>
        <time>2020-08-08T05:56:04.000Z</time>
      </trkpt>
      <trkpt lat="42.3994670994579792022705078125" lon="2.8938368149101734161376953125">
        <ele>171</ele>
        <time>2020-08-08T05:56:08.000Z</time>
      </trkpt>
      <trkpt lat="42.39959442056715488433837890625" lon="2.8934659995138645172119140625">
        <ele>169.8000030517578125</ele>
        <time>2020-08-08T05:56:12.000Z</time>
      </trkpt>
      <trkpt lat="42.39959442056715488433837890625" lon="2.8934659995138645172119140625">
        <ele>169.600006103515625</ele>
        <time>2020-08-08T05:56:13.000Z</time>
      </trkpt>
      <trkpt lat="42.39967656321823596954345703125" lon="2.89330816827714443206787109375">
        <ele>169.399993896484375</ele>
        <time>2020-08-08T05:56:14.000Z</time>
      </trkpt>
      <trkpt lat="42.39967656321823596954345703125" lon="2.89330816827714443206787109375">
        <ele>169.1999969482421875</ele>
        <time>2020-08-08T05:56:15.000Z</time>
      </trkpt>
      <trkpt lat="42.3998035490512847900390625" lon="2.8932222537696361541748046875">
        <ele>168.8000030517578125</ele>
        <time>2020-08-08T05:56:16.000Z</time>
      </trkpt>
      <trkpt lat="42.39987571723759174346923828125" lon="2.89320272393524646759033203125">
        <ele>168.399993896484375</ele>
        <time>2020-08-08T05:56:17.000Z</time>
      </trkpt>
      <trkpt lat="42.39995065145194530487060546875" lon="2.8931904025375843048095703125">
        <ele>167.600006103515625</ele>
        <time>2020-08-08T05:56:18.000Z</time>
      </trkpt>
      <trkpt lat="42.40010538138449192047119140625" lon="2.893174476921558380126953125">
        <ele>166.600006103515625</ele>
        <time>2020-08-08T05:56:21.000Z</time>
      </trkpt>
      <trkpt lat="42.40026195533573627471923828125" lon="2.893129549920558929443359375">
        <ele>166.1999969482421875</ele>
        <time>2020-08-08T05:56:22.000Z</time>
      </trkpt>
      <trkpt lat="42.400326244533061981201171875" lon="2.8930774144828319549560546875">
        <ele>165.8000030517578125</ele>
        <time>2020-08-08T05:56:23.000Z</time>
      </trkpt>
      <trkpt lat="42.40037108771502971649169921875" lon="2.8930056653916835784912109375">
        <ele>165.399993896484375</ele>
        <time>2020-08-08T05:56:24.000Z</time>
      </trkpt>
      <trkpt lat="42.4003944732248783111572265625" lon="2.8928226046264171600341796875">
        <ele>165</ele>
        <time>2020-08-08T05:56:26.000Z</time>
      </trkpt>
      <trkpt lat="42.400317527353763580322265625" lon="2.89265471510589122772216796875">
        <ele>164</ele>
        <time>2020-08-08T05:56:28.000Z</time>
      </trkpt>
      <trkpt lat="42.40026019513607025146484375" lon="2.89258933626115322113037109375">
        <ele>163.600006103515625</ele>
        <time>2020-08-08T05:56:29.000Z</time>
      </trkpt>
      <trkpt lat="42.400084845721721649169921875" lon="2.89237760938704013824462890625">
        <ele>162.8000030517578125</ele>
        <time>2020-08-08T05:56:32.000Z</time>
      </trkpt>
      <trkpt lat="42.4000437743961811065673828125" lon="2.89219002239406108856201171875">
        <ele>162</ele>
        <time>2020-08-08T05:56:34.000Z</time>
      </trkpt>
      <trkpt lat="42.40006749518215656280517578125" lon="2.89209430105984210968017578125">
        <ele>161.600006103515625</ele>
        <time>2020-08-08T05:56:35.000Z</time>
      </trkpt>
      <trkpt lat="42.4001066386699676513671875" lon="2.8920072130858898162841796875">
        <ele>160.600006103515625</ele>
        <time>2020-08-08T05:56:37.000Z</time>
      </trkpt>
      <trkpt lat="42.40019255317747592926025390625" lon="2.89183479733765125274658203125">
        <ele>160</ele>
        <time>2020-08-08T05:56:38.000Z</time>
      </trkpt>
      <trkpt lat="42.4002298526465892791748046875" lon="2.8916238248348236083984375">
        <ele>159.1999969482421875</ele>
        <time>2020-08-08T05:56:40.000Z</time>
      </trkpt>
      <trkpt lat="42.4002107419073581695556640625" lon="2.89151594974100589752197265625">
        <ele>159</ele>
        <time>2020-08-08T05:56:41.000Z</time>
      </trkpt>
      <trkpt lat="42.40003296174108982086181640625" lon="2.89128092117607593536376953125">
        <ele>158.1999969482421875</ele>
        <time>2020-08-08T05:56:44.000Z</time>
      </trkpt>
      <trkpt lat="42.3999213986098766326904296875" lon="2.89112334139645099639892578125">
        <ele>157.1999969482421875</ele>
        <time>2020-08-08T05:56:46.000Z</time>
      </trkpt>
      <trkpt lat="42.399897761642932891845703125" lon="2.891026027500629425048828125">
        <ele>157</ele>
        <time>2020-08-08T05:56:47.000Z</time>
      </trkpt>
      <trkpt lat="42.39986532367765903472900390625" lon="2.89071883074939250946044921875">
        <ele>155.8000030517578125</ele>
        <time>2020-08-08T05:56:50.000Z</time>
      </trkpt>
      <trkpt lat="42.399862892925739288330078125" lon="2.89051028899848461151123046875">
        <ele>155</ele>
        <time>2020-08-08T05:56:52.000Z</time>
      </trkpt>
      <trkpt lat="42.39987806417047977447509765625" lon="2.8904059343039989471435546875">
        <ele>154.600006103515625</ele>
        <time>2020-08-08T05:56:53.000Z</time>
      </trkpt>
      <trkpt lat="42.3999887891113758087158203125" lon="2.8901164233684539794921875">
        <ele>153.399993896484375</ele>
        <time>2020-08-08T05:56:56.000Z</time>
      </trkpt>
      <trkpt lat="42.3999887891113758087158203125" lon="2.8901164233684539794921875">
        <ele>153</ele>
        <time>2020-08-08T05:56:57.000Z</time>
      </trkpt>
      <trkpt lat="42.40015022456645965576171875" lon="2.88972909562289714813232421875">
        <ele>152</ele>
        <time>2020-08-08T05:57:00.000Z</time>
      </trkpt>
      <trkpt lat="42.40016975440084934234619140625" lon="2.88950647227466106414794921875">
        <ele>151.1999969482421875</ele>
        <time>2020-08-08T05:57:02.000Z</time>
      </trkpt>
      <trkpt lat="42.40016975440084934234619140625" lon="2.88950647227466106414794921875">
        <ele>151</ele>
        <time>2020-08-08T05:57:03.000Z</time>
      </trkpt>
      <trkpt lat="42.40015366114675998687744140625" lon="2.88928552530705928802490234375">
        <ele>150.600006103515625</ele>
        <time>2020-08-08T05:57:04.000Z</time>
      </trkpt>
      <trkpt lat="42.40016673691570758819580078125" lon="2.88908720947802066802978515625">
        <ele>149.600006103515625</ele>
        <time>2020-08-08T05:57:06.000Z</time>
      </trkpt>
      <trkpt lat="42.4002610333263874053955078125" lon="2.8889669291675090789794921875">
        <ele>149</ele>
        <time>2020-08-08T05:57:08.000Z</time>
      </trkpt>
      <trkpt lat="42.4002610333263874053955078125" lon="2.8889669291675090789794921875">
        <ele>148.8000030517578125</ele>
        <time>2020-08-08T05:57:09.000Z</time>
      </trkpt>
      <trkpt lat="42.40038617514073848724365234375" lon="2.8888851217925548553466796875">
        <ele>148.1999969482421875</ele>
        <time>2020-08-08T05:57:10.000Z</time>
      </trkpt>
      <trkpt lat="42.4004568345844745635986328125" lon="2.888719327747821807861328125">
        <ele>147.399993896484375</ele>
        <time>2020-08-08T05:57:12.000Z</time>
      </trkpt>
      <trkpt lat="42.4004568345844745635986328125" lon="2.888719327747821807861328125">
        <ele>147</ele>
        <time>2020-08-08T05:57:13.000Z</time>
      </trkpt>
      <trkpt lat="42.400450967252254486083984375" lon="2.8885178267955780029296875">
        <ele>146.8000030517578125</ele>
        <time>2020-08-08T05:57:14.000Z</time>
      </trkpt>
      <trkpt lat="42.400450967252254486083984375" lon="2.8885178267955780029296875">
        <ele>146.600006103515625</ele>
        <time>2020-08-08T05:57:15.000Z</time>
      </trkpt>
      <trkpt lat="42.4003924615681171417236328125" lon="2.88822345435619354248046875">
        <ele>146</ele>
        <time>2020-08-08T05:57:17.000Z</time>
      </trkpt>
      <trkpt lat="42.400397993624210357666015625" lon="2.888127230107784271240234375">
        <ele>145</ele>
        <time>2020-08-08T05:57:19.000Z</time>
      </trkpt>
      <trkpt lat="42.400459684431552886962890625" lon="2.88794358260929584503173828125">
        <ele>144.600006103515625</ele>
        <time>2020-08-08T05:57:20.000Z</time>
      </trkpt>
      <trkpt lat="42.40056068636476993560791015625" lon="2.887773178517818450927734375">
        <ele>143.600006103515625</ele>
        <time>2020-08-08T05:57:22.000Z</time>
      </trkpt>
      <trkpt lat="42.400620281696319580078125" lon="2.8876942209899425506591796875">
        <ele>143</ele>
        <time>2020-08-08T05:57:23.000Z</time>
      </trkpt>
      <trkpt lat="42.4008313380181789398193359375" lon="2.88750956766307353973388671875">
        <ele>141.600006103515625</ele>
        <time>2020-08-08T05:57:26.000Z</time>
      </trkpt>
      <trkpt lat="42.40097357891499996185302734375" lon="2.88738803006708621978759765625">
        <ele>140.8000030517578125</ele>
        <time>2020-08-08T05:57:28.000Z</time>
      </trkpt>
      <trkpt lat="42.4010418914258480072021484375" lon="2.88731980137526988983154296875">
        <ele>140.600006103515625</ele>
        <time>2020-08-08T05:57:29.000Z</time>
      </trkpt>
      <trkpt lat="42.4012554623186588287353515625" lon="2.887128777801990509033203125">
        <ele>139.399993896484375</ele>
        <time>2020-08-08T05:57:32.000Z</time>
      </trkpt>
      <trkpt lat="42.40142016671597957611083984375" lon="2.88706415332853794097900390625">
        <ele>138.600006103515625</ele>
        <time>2020-08-08T05:57:34.000Z</time>
      </trkpt>
      <trkpt lat="42.40150532685220241546630859375" lon="2.88704638369381427764892578125">
        <ele>138.1999969482421875</ele>
        <time>2020-08-08T05:57:35.000Z</time>
      </trkpt>
      <trkpt lat="42.40158520638942718505859375" lon="2.88701956160366535186767578125">
        <ele>138</ele>
        <time>2020-08-08T05:57:36.000Z</time>
      </trkpt>
      <trkpt lat="42.40171386860311031341552734375" lon="2.8869066573679447174072265625">
        <ele>137.1999969482421875</ele>
        <time>2020-08-08T05:57:38.000Z</time>
      </trkpt>
      <trkpt lat="42.40171386860311031341552734375" lon="2.8869066573679447174072265625">
        <ele>136.8000030517578125</ele>
        <time>2020-08-08T05:57:39.000Z</time>
      </trkpt>
      <trkpt lat="42.40187580697238445281982421875" lon="2.88667137734591960906982421875">
        <ele>136.1999969482421875</ele>
        <time>2020-08-08T05:57:41.000Z</time>
      </trkpt>
      <trkpt lat="42.401950322091579437255859375" lon="2.88662351667881011962890625">
        <ele>135.600006103515625</ele>
        <time>2020-08-08T05:57:42.000Z</time>
      </trkpt>
      <trkpt lat="42.401950322091579437255859375" lon="2.88662351667881011962890625">
        <ele>135.1999969482421875</ele>
        <time>2020-08-08T05:57:43.000Z</time>
      </trkpt>
      <trkpt lat="42.402112595736980438232421875" lon="2.886565513908863067626953125">
        <ele>135</ele>
        <time>2020-08-08T05:57:44.000Z</time>
      </trkpt>
      <trkpt lat="42.402260787785053253173828125" lon="2.8864818625152111053466796875">
        <ele>134.1999969482421875</ele>
        <time>2020-08-08T05:57:46.000Z</time>
      </trkpt>
      <trkpt lat="42.40230764262378215789794921875" lon="2.88640282116830348968505859375">
        <ele>134</ele>
        <time>2020-08-08T05:57:47.000Z</time>
      </trkpt>
      <trkpt lat="42.402352988719940185546875" lon="2.88610048592090606689453125">
        <ele>132.8000030517578125</ele>
        <time>2020-08-08T05:57:50.000Z</time>
      </trkpt>
      <trkpt lat="42.402352988719940185546875" lon="2.88610048592090606689453125">
        <ele>132.600006103515625</ele>
        <time>2020-08-08T05:57:51.000Z</time>
      </trkpt>
      <trkpt lat="42.4024366401135921478271484375" lon="2.8859269805252552032470703125">
        <ele>132.1999969482421875</ele>
        <time>2020-08-08T05:57:52.000Z</time>
      </trkpt>
      <trkpt lat="42.402492128312587738037109375" lon="2.88585347123444080352783203125">
        <ele>131.8000030517578125</ele>
        <time>2020-08-08T05:57:53.000Z</time>
      </trkpt>
      <trkpt lat="42.4025496281683444976806640625" lon="2.8857811354100704193115234375">
        <ele>131.399993896484375</ele>
        <time>2020-08-08T05:57:54.000Z</time>
      </trkpt>
      <trkpt lat="42.40266320295631885528564453125" lon="2.88563244044780731201171875">
        <ele>130.600006103515625</ele>
        <time>2020-08-08T05:57:57.000Z</time>
      </trkpt>
      <trkpt lat="42.40295849740505218505859375" lon="2.8852643072605133056640625">
        <ele>129.399993896484375</ele>
        <time>2020-08-08T05:58:01.000Z</time>
      </trkpt>
      <trkpt lat="42.40313678048551082611083984375" lon="2.88503430783748626708984375">
        <ele>128.399993896484375</ele>
        <time>2020-08-08T05:58:04.000Z</time>
      </trkpt>
      <trkpt lat="42.40325764752924442291259765625" lon="2.8848839364945888519287109375">
        <ele>127.1999969482421875</ele>
        <time>2020-08-08T05:58:07.000Z</time>
      </trkpt>
      <trkpt lat="42.40356333553791046142578125" lon="2.88449074141681194305419921875">
        <ele>126.40000152587890625</ele>
        <time>2020-08-08T05:58:11.000Z</time>
      </trkpt>
      <trkpt lat="42.40362695418298244476318359375" lon="2.8844095207750797271728515625">
        <ele>125.59999847412109375</ele>
        <time>2020-08-08T05:58:12.000Z</time>
      </trkpt>
      <trkpt lat="42.403758130967617034912109375" lon="2.884252108633518218994140625">
        <ele>124.59999847412109375</ele>
        <time>2020-08-08T05:58:14.000Z</time>
      </trkpt>
      <trkpt lat="42.403900288045406341552734375" lon="2.884148843586444854736328125">
        <ele>123.8000030517578125</ele>
        <time>2020-08-08T05:58:16.000Z</time>
      </trkpt>
      <trkpt lat="42.40397463552653789520263671875" lon="2.8841245360672473907470703125">
        <ele>123.40000152587890625</ele>
        <time>2020-08-08T05:58:17.000Z</time>
      </trkpt>
      <trkpt lat="42.40416021086275577545166015625" lon="2.8839795291423797607421875">
        <ele>122.40000152587890625</ele>
        <time>2020-08-08T05:58:20.000Z</time>
      </trkpt>
      <trkpt lat="42.404185943305492401123046875" lon="2.88378783501684665679931640625">
        <ele>121.40000152587890625</ele>
        <time>2020-08-08T05:58:22.000Z</time>
      </trkpt>
      <trkpt lat="42.40417647175490856170654296875" lon="2.88368658162653446197509765625">
        <ele>121</ele>
        <time>2020-08-08T05:58:23.000Z</time>
      </trkpt>
      <trkpt lat="42.40422852337360382080078125" lon="2.88337670266628265380859375">
        <ele>119.8000030517578125</ele>
        <time>2020-08-08T05:58:26.000Z</time>
      </trkpt>
      <trkpt lat="42.40430907346308231353759765625" lon="2.8831713460385799407958984375">
        <ele>118.59999847412109375</ele>
        <time>2020-08-08T05:58:28.000Z</time>
      </trkpt>
      <trkpt lat="42.4043976701796054840087890625" lon="2.88295920006930828094482421875">
        <ele>117.59999847412109375</ele>
        <time>2020-08-08T05:58:31.000Z</time>
      </trkpt>
      <trkpt lat="42.404488027095794677734375" lon="2.88273490034043788909912109375">
        <ele>117</ele>
        <time>2020-08-08T05:58:32.000Z</time>
      </trkpt>
      <trkpt lat="42.404488027095794677734375" lon="2.88273490034043788909912109375">
        <ele>116.40000152587890625</ele>
        <time>2020-08-08T05:58:33.000Z</time>
      </trkpt>
      <trkpt lat="42.4046233110129833221435546875" lon="2.88240498863160610198974609375">
        <ele>115</ele>
        <time>2020-08-08T05:58:35.000Z</time>
      </trkpt>
      <trkpt lat="42.40466480143368244171142578125" lon="2.88231044076383113861083984375">
        <ele>114</ele>
        <time>2020-08-08T05:58:37.000Z</time>
      </trkpt>
      <trkpt lat="42.404734455049037933349609375" lon="2.88214028812944889068603515625">
        <ele>113.40000152587890625</ele>
        <time>2020-08-08T05:58:38.000Z</time>
      </trkpt>
      <trkpt lat="42.404734455049037933349609375" lon="2.88214028812944889068603515625">
        <ele>112.8000030517578125</ele>
        <time>2020-08-08T05:58:39.000Z</time>
      </trkpt>
      <trkpt lat="42.40483763627707958221435546875" lon="2.8818537108600139617919921875">
        <ele>111.8000030517578125</ele>
        <time>2020-08-08T05:58:42.000Z</time>
      </trkpt>
      <trkpt lat="42.40487384609878063201904296875" lon="2.8817229531705379486083984375">
        <ele>111.1999969482421875</ele>
        <time>2020-08-08T05:58:44.000Z</time>
      </trkpt>
      <trkpt lat="42.40489848889410495758056640625" lon="2.88160066120326519012451171875">
        <ele>110.8000030517578125</ele>
        <time>2020-08-08T05:58:46.000Z</time>
      </trkpt>
      <trkpt lat="42.40491022355854511260986328125" lon="2.881501503288745880126953125">
        <ele>110</ele>
        <time>2020-08-08T05:58:49.000Z</time>
      </trkpt>
      <trkpt lat="42.40498012863099575042724609375" lon="2.88128466345369815826416015625">
        <ele>109.8000030517578125</ele>
        <time>2020-08-08T05:58:53.000Z</time>
      </trkpt>
      <trkpt lat="42.404994629323482513427734375" lon="2.8812388144433498382568359375">
        <ele>109.59999847412109375</ele>
        <time>2020-08-08T05:58:54.000Z</time>
      </trkpt>
      <trkpt lat="42.4049981497228145599365234375" lon="2.88104460574686527252197265625">
        <ele>109.1999969482421875</ele>
        <time>2020-08-08T05:58:58.000Z</time>
      </trkpt>
      <trkpt lat="42.40497560240328311920166015625" lon="2.880998589098453521728515625">
        <ele>109</ele>
        <time>2020-08-08T05:58:59.000Z</time>
      </trkpt>
      <trkpt lat="42.40486663766205310821533203125" lon="2.880869843065738677978515625">
        <ele>108.59999847412109375</ele>
        <time>2020-08-08T05:59:02.000Z</time>
      </trkpt>
      <trkpt lat="42.40479203872382640838623046875" lon="2.88075928576290607452392578125">
        <ele>108.40000152587890625</ele>
        <time>2020-08-08T05:59:04.000Z</time>
      </trkpt>
      <trkpt lat="42.4047359637916088104248046875" lon="2.88063741289079189300537109375">
        <ele>107.59999847412109375</ele>
        <time>2020-08-08T05:59:07.000Z</time>
      </trkpt>
      <trkpt lat="42.404696233570575714111328125" lon="2.880501709878444671630859375">
        <ele>107.40000152587890625</ele>
        <time>2020-08-08T05:59:08.000Z</time>
      </trkpt>
      <trkpt lat="42.404696233570575714111328125" lon="2.880501709878444671630859375">
        <ele>107</ele>
        <time>2020-08-08T05:59:09.000Z</time>
      </trkpt>
      <trkpt lat="42.40464284084737300872802734375" lon="2.88027749396860599517822265625">
        <ele>106.59999847412109375</ele>
        <time>2020-08-08T05:59:11.000Z</time>
      </trkpt>
      <trkpt lat="42.40458349697291851043701171875" lon="2.88003475405275821685791015625">
        <ele>105.40000152587890625</ele>
        <time>2020-08-08T05:59:15.000Z</time>
      </trkpt>
      <trkpt lat="42.404544353485107421875" lon="2.87987851537764072418212890625">
        <ele>105.1999969482421875</ele>
        <time>2020-08-08T05:59:16.000Z</time>
      </trkpt>
      <trkpt lat="42.40450680255889892578125" lon="2.879745662212371826171875">
        <ele>104.40000152587890625</ele>
        <time>2020-08-08T05:59:19.000Z</time>
      </trkpt>
      <trkpt lat="42.4044754542410373687744140625" lon="2.87961197085678577423095703125">
        <ele>104</ele>
        <time>2020-08-08T05:59:20.000Z</time>
      </trkpt>
      <trkpt lat="42.40445860661566257476806640625" lon="2.87947274744510650634765625">
        <ele>103.59999847412109375</ele>
        <time>2020-08-08T05:59:22.000Z</time>
      </trkpt>
      <trkpt lat="42.40446497686207294464111328125" lon="2.87933721207082271575927734375">
        <ele>103.1999969482421875</ele>
        <time>2020-08-08T05:59:25.000Z</time>
      </trkpt>
      <trkpt lat="42.40449280478060245513916015625" lon="2.87920410744845867156982421875">
        <ele>103</ele>
        <time>2020-08-08T05:59:26.000Z</time>
      </trkpt>
      <trkpt lat="42.40449280478060245513916015625" lon="2.87920410744845867156982421875">
        <ele>102.8000030517578125</ele>
        <time>2020-08-08T05:59:27.000Z</time>
      </trkpt>
      <trkpt lat="42.404562793672084808349609375" lon="2.8789423406124114990234375">
        <ele>102.40000152587890625</ele>
        <time>2020-08-08T05:59:30.000Z</time>
      </trkpt>
      <trkpt lat="42.40458399988710880279541015625" lon="2.8788083977997303009033203125">
        <ele>102.1999969482421875</ele>
        <time>2020-08-08T05:59:32.000Z</time>
      </trkpt>
      <trkpt lat="42.40458316169679164886474609375" lon="2.8786752931773662567138671875">
        <ele>102</ele>
        <time>2020-08-08T05:59:34.000Z</time>
      </trkpt>
      <trkpt lat="42.4044902063906192779541015625" lon="2.87844805978238582611083984375">
        <ele>101.59999847412109375</ele>
        <time>2020-08-08T05:59:38.000Z</time>
      </trkpt>
      <trkpt lat="42.40431142039597034454345703125" lon="2.878281511366367340087890625">
        <ele>101</ele>
        <time>2020-08-08T05:59:43.000Z</time>
      </trkpt>
      <trkpt lat="42.40422374568879604339599609375" lon="2.8781810961663722991943359375">
        <ele>100.8000030517578125</ele>
        <time>2020-08-08T05:59:44.000Z</time>
      </trkpt>
      <trkpt lat="42.40412534214556217193603515625" lon="2.8779893182218074798583984375">
        <ele>100</ele>
        <time>2020-08-08T05:59:47.000Z</time>
      </trkpt>
      <trkpt lat="42.40410237573087215423583984375" lon="2.877920083701610565185546875">
        <ele>99.8000030517578125</ele>
        <time>2020-08-08T05:59:48.000Z</time>
      </trkpt>
      <trkpt lat="42.40399760194122791290283203125" lon="2.87749503739178180694580078125">
        <ele>99.1999969482421875</ele>
        <time>2020-08-08T05:59:55.000Z</time>
      </trkpt>
      <trkpt lat="42.40388964302837848663330078125" lon="2.87704492919147014617919921875">
        <ele>99</ele>
        <time>2020-08-08T06:00:01.000Z</time>
      </trkpt>
      <trkpt lat="42.4038751423358917236328125" lon="2.876982651650905609130859375">
        <ele>98.8000030517578125</ele>
        <time>2020-08-08T06:00:02.000Z</time>
      </trkpt>
      <trkpt lat="42.40374178625643253326416015625" lon="2.87641209550201892852783203125">
        <ele>98.8000030517578125</ele>
        <time>2020-08-08T06:00:12.000Z</time>
      </trkpt>
      <trkpt lat="42.4036258645355701446533203125" lon="2.87591052241623401641845703125">
        <ele>99</ele>
        <time>2020-08-08T06:00:21.000Z</time>
      </trkpt>
      <trkpt lat="42.40360935218632221221923828125" lon="2.87585453130304813385009765625">
        <ele>99</ele>
        <time>2020-08-08T06:00:22.000Z</time>
      </trkpt>
      <trkpt lat="42.40349502302706241607666015625" lon="2.87537642754614353179931640625">
        <ele>98.1999969482421875</ele>
        <time>2020-08-08T06:00:31.000Z</time>
      </trkpt>
      <trkpt lat="42.40339695475995540618896484375" lon="2.87496102042496204376220703125">
        <ele>97.59999847412109375</ele>
        <time>2020-08-08T06:00:36.000Z</time>
      </trkpt>
      <trkpt lat="42.40334699861705303192138671875" lon="2.87476086057722568511962890625">
        <ele>97.1999969482421875</ele>
        <time>2020-08-08T06:00:39.000Z</time>
      </trkpt>
      <trkpt lat="42.40324415266513824462890625" lon="2.87447738461196422576904296875">
        <ele>97.8000030517578125</ele>
        <time>2020-08-08T06:00:44.000Z</time>
      </trkpt>
      <trkpt lat="42.40313326008617877960205078125" lon="2.87435299716889858245849609375">
        <ele>98</ele>
        <time>2020-08-08T06:00:47.000Z</time>
      </trkpt>
      <trkpt lat="42.4031152389943599700927734375" lon="2.87432701326906681060791015625">
        <ele>98</ele>
        <time>2020-08-08T06:00:48.000Z</time>
      </trkpt>
      <trkpt lat="42.40315538831055164337158203125" lon="2.87417178042232990264892578125">
        <ele>98.40000152587890625</ele>
        <time>2020-08-08T06:00:51.000Z</time>
      </trkpt>
      <trkpt lat="42.40312789566814899444580078125" lon="2.87391529418528079986572265625">
        <ele>99</ele>
        <time>2020-08-08T06:00:57.000Z</time>
      </trkpt>
      <trkpt lat="42.4031149037182331085205078125" lon="2.873820997774600982666015625">
        <ele>99.1999969482421875</ele>
        <time>2020-08-08T06:00:58.000Z</time>
      </trkpt>
      <trkpt lat="42.4030907638370990753173828125" lon="2.87347876466810703277587890625">
        <ele>100.1999969482421875</ele>
        <time>2020-08-08T06:01:06.000Z</time>
      </trkpt>
      <trkpt lat="42.4030907638370990753173828125" lon="2.87347876466810703277587890625">
        <ele>100.40000152587890625</ele>
        <time>2020-08-08T06:01:07.000Z</time>
      </trkpt>
      <trkpt lat="42.40309939719736576080322265625" lon="2.8731730766594409942626953125">
        <ele>101.1999969482421875</ele>
        <time>2020-08-08T06:01:14.000Z</time>
      </trkpt>
      <trkpt lat="42.403117083013057708740234375" lon="2.8729296661913394927978515625">
        <ele>101.8000030517578125</ele>
        <time>2020-08-08T06:01:21.000Z</time>
      </trkpt>
      <trkpt lat="42.403127811849117279052734375" lon="2.872828580439090728759765625">
        <ele>102.59999847412109375</ele>
        <time>2020-08-08T06:01:25.000Z</time>
      </trkpt>
      <trkpt lat="42.40314834751188755035400390625" lon="2.8726369701325893402099609375">
        <ele>103.40000152587890625</ele>
        <time>2020-08-08T06:01:31.000Z</time>
      </trkpt>
      <trkpt lat="42.4031571485102176666259765625" lon="2.87257100455462932586669921875">
        <ele>103.59999847412109375</ele>
        <time>2020-08-08T06:01:33.000Z</time>
      </trkpt>
      <trkpt lat="42.403179109096527099609375" lon="2.8723543323576450347900390625">
        <ele>104.59999847412109375</ele>
        <time>2020-08-08T06:01:39.000Z</time>
      </trkpt>
      <trkpt lat="42.403188832104206085205078125" lon="2.87229155190289020538330078125">
        <ele>104.8000030517578125</ele>
        <time>2020-08-08T06:01:41.000Z</time>
      </trkpt>
      <trkpt lat="42.4031953699886798858642578125" lon="2.87210874259471893310546875">
        <ele>105.59999847412109375</ele>
        <time>2020-08-08T06:01:47.000Z</time>
      </trkpt>
      <trkpt lat="42.403194196522235870361328125" lon="2.87207932211458683013916015625">
        <ele>106</ele>
        <time>2020-08-08T06:01:48.000Z</time>
      </trkpt>
      <trkpt lat="42.40317986346781253814697265625" lon="2.87190145812928676605224609375">
        <ele>107</ele>
        <time>2020-08-08T06:01:55.000Z</time>
      </trkpt>
      <trkpt lat="42.4031507782638072967529296875" lon="2.87166642956435680389404296875">
        <ele>108</ele>
        <time>2020-08-08T06:02:02.000Z</time>
      </trkpt>
      <trkpt lat="42.40312906913459300994873046875" lon="2.87158311344683170318603515625">
        <ele>108.59999847412109375</ele>
        <time>2020-08-08T06:02:05.000Z</time>
      </trkpt>
      <trkpt lat="42.40307475440204143524169921875" lon="2.87138546817004680633544921875">
        <ele>109.1999969482421875</ele>
        <time>2020-08-08T06:02:13.000Z</time>
      </trkpt>
      <trkpt lat="42.40303225815296173095703125" lon="2.87125102244317531585693359375">
        <ele>109.8000030517578125</ele>
        <time>2020-08-08T06:02:17.000Z</time>
      </trkpt>
      <trkpt lat="42.402987666428089141845703125" lon="2.871115989983081817626953125">
        <ele>110.40000152587890625</ele>
        <time>2020-08-08T06:02:22.000Z</time>
      </trkpt>
      <trkpt lat="42.4029658734798431396484375" lon="2.87106268107891082763671875">
        <ele>110.8000030517578125</ele>
        <time>2020-08-08T06:02:25.000Z</time>
      </trkpt>
      <trkpt lat="42.40290443412959575653076171875" lon="2.87090132944285869598388671875">
        <ele>111.59999847412109375</ele>
        <time>2020-08-08T06:02:30.000Z</time>
      </trkpt>
      <trkpt lat="42.4028507061302661895751953125" lon="2.87076185457408428192138671875">
        <ele>112</ele>
        <time>2020-08-08T06:02:35.000Z</time>
      </trkpt>
      <trkpt lat="42.402813322842121124267578125" lon="2.870678789913654327392578125">
        <ele>112.8000030517578125</ele>
        <time>2020-08-08T06:02:39.000Z</time>
      </trkpt>
      <trkpt lat="42.4027276597917079925537109375" lon="2.87045507691800594329833984375">
        <ele>113</ele>
        <time>2020-08-08T06:02:46.000Z</time>
      </trkpt>
      <trkpt lat="42.4026673100888729095458984375" lon="2.8702493011951446533203125">
        <ele>113.59999847412109375</ele>
        <time>2020-08-08T06:02:55.000Z</time>
      </trkpt>
      <trkpt lat="42.4026344530284404754638671875" lon="2.8702229820191860198974609375">
        <ele>113.8000030517578125</ele>
        <time>2020-08-08T06:02:57.000Z</time>
      </trkpt>
      <trkpt lat="42.40257603116333484649658203125" lon="2.87010521627962589263916015625">
        <ele>114</ele>
        <time>2020-08-08T06:03:01.000Z</time>
      </trkpt>
      <trkpt lat="42.4024889431893825531005859375" lon="2.86989030428230762481689453125">
        <ele>114.40000152587890625</ele>
        <time>2020-08-08T06:03:07.000Z</time>
      </trkpt>
      <trkpt lat="42.402337901294231414794921875" lon="2.86954949609935283660888671875">
        <ele>114.59999847412109375</ele>
        <time>2020-08-08T06:03:15.000Z</time>
      </trkpt>
      <trkpt lat="42.40225181914865970611572265625" lon="2.86939057521522045135498046875">
        <ele>114.59999847412109375</ele>
        <time>2020-08-08T06:03:21.000Z</time>
      </trkpt>
      <trkpt lat="42.40206540562212467193603515625" lon="2.8690867312252521514892578125">
        <ele>114.59999847412109375</ele>
        <time>2020-08-08T06:03:29.000Z</time>
      </trkpt>
      <trkpt lat="42.40187815390527248382568359375" lon="2.86876536905765533447265625">
        <ele>115</ele>
        <time>2020-08-08T06:03:38.000Z</time>
      </trkpt>
      <trkpt lat="42.40185652859508991241455078125" lon="2.86873024888336658477783203125">
        <ele>115.1999969482421875</ele>
        <time>2020-08-08T06:03:39.000Z</time>
      </trkpt>
      <trkpt lat="42.40165435709059238433837890625" lon="2.86840871907770633697509765625">
        <ele>115.1999969482421875</ele>
        <time>2020-08-08T06:03:49.000Z</time>
      </trkpt>
      <trkpt lat="42.40147314034402370452880859375" lon="2.86810244433581829071044921875">
        <ele>115.1999969482421875</ele>
        <time>2020-08-08T06:03:56.000Z</time>
      </trkpt>
      <trkpt lat="42.40126325748860836029052734375" lon="2.86775191314518451690673828125">
        <ele>115.40000152587890625</ele>
        <time>2020-08-08T06:04:05.000Z</time>
      </trkpt>
      <trkpt lat="42.40105655975639820098876953125" lon="2.867407836019992828369140625">
        <ele>115.1999969482421875</ele>
        <time>2020-08-08T06:04:15.000Z</time>
      </trkpt>
      <trkpt lat="42.4008269794285297393798828125" lon="2.8670194186270236968994140625">
        <ele>115.59999847412109375</ele>
        <time>2020-08-08T06:04:25.000Z</time>
      </trkpt>
      <trkpt lat="42.400605194270610809326171875" lon="2.86664281971752643585205078125">
        <ele>116.40000152587890625</ele>
        <time>2020-08-08T06:04:34.000Z</time>
      </trkpt>
      <trkpt lat="42.400562278926372528076171875" lon="2.8665745072066783905029296875">
        <ele>116.59999847412109375</ele>
        <time>2020-08-08T06:04:36.000Z</time>
      </trkpt>
      <trkpt lat="42.40033353678882122039794921875" lon="2.86619422025978565216064453125">
        <ele>117.40000152587890625</ele>
        <time>2020-08-08T06:04:48.000Z</time>
      </trkpt>
      <trkpt lat="42.400233037769794464111328125" lon="2.8660320304334163665771484375">
        <ele>118.40000152587890625</ele>
        <time>2020-08-08T06:04:54.000Z</time>
      </trkpt>
      <trkpt lat="42.4002031981945037841796875" lon="2.86597612313926219940185546875">
        <ele>119</ele>
        <time>2020-08-08T06:04:57.000Z</time>
      </trkpt>
      <trkpt lat="42.400137819349765777587890625" lon="2.865866906940937042236328125">
        <ele>119.59999847412109375</ele>
        <time>2020-08-08T06:05:01.000Z</time>
      </trkpt>
      <trkpt lat="42.40004084073007106781005859375" lon="2.8657101653516292572021484375">
        <ele>120.1999969482421875</ele>
        <time>2020-08-08T06:05:06.000Z</time>
      </trkpt>
      <trkpt lat="42.3999931477010250091552734375" lon="2.8656332194805145263671875">
        <ele>120.59999847412109375</ele>
        <time>2020-08-08T06:05:09.000Z</time>
      </trkpt>
      <trkpt lat="42.39989784546196460723876953125" lon="2.86546885035932064056396484375">
        <ele>121.40000152587890625</ele>
        <time>2020-08-08T06:05:15.000Z</time>
      </trkpt>
      <trkpt lat="42.399866245687007904052734375" lon="2.8654121048748493194580078125">
        <ele>121.8000030517578125</ele>
        <time>2020-08-08T06:05:17.000Z</time>
      </trkpt>
      <trkpt lat="42.39977597258985042572021484375" lon="2.865256704390048980712890625">
        <ele>122.8000030517578125</ele>
        <time>2020-08-08T06:05:23.000Z</time>
      </trkpt>
      <trkpt lat="42.3997604660689830780029296875" lon="2.8652337379753589630126953125">
        <ele>123</ele>
        <time>2020-08-08T06:05:25.000Z</time>
      </trkpt>
      <trkpt lat="42.39962778054177761077880859375" lon="2.865014635026454925537109375">
        <ele>124</ele>
        <time>2020-08-08T06:05:33.000Z</time>
      </trkpt>
      <trkpt lat="42.399594001471996307373046875" lon="2.8649541176855564117431640625">
        <ele>124.1999969482421875</ele>
        <time>2020-08-08T06:05:34.000Z</time>
      </trkpt>
      <trkpt lat="42.399482689797878265380859375" lon="2.8647576458752155303955078125">
        <ele>125</ele>
        <time>2020-08-08T06:05:41.000Z</time>
      </trkpt>
      <trkpt lat="42.3994349129498004913330078125" lon="2.8646875731647014617919921875">
        <ele>125.59999847412109375</ele>
        <time>2020-08-08T06:05:44.000Z</time>
      </trkpt>
      <trkpt lat="42.39936945028603076934814453125" lon="2.864580117166042327880859375">
        <ele>126.1999969482421875</ele>
        <time>2020-08-08T06:05:48.000Z</time>
      </trkpt>
      <trkpt lat="42.3993075080215930938720703125" lon="2.8644753433763980865478515625">
        <ele>126.59999847412109375</ele>
        <time>2020-08-08T06:05:52.000Z</time>
      </trkpt>
      <trkpt lat="42.39924238063395023345947265625" lon="2.864371575415134429931640625">
        <ele>127.59999847412109375</ele>
        <time>2020-08-08T06:05:56.000Z</time>
      </trkpt>
      <trkpt lat="42.39914783276617527008056640625" lon="2.86421994678676128387451171875">
        <ele>128.1999969482421875</ele>
        <time>2020-08-08T06:06:02.000Z</time>
      </trkpt>
      <trkpt lat="42.39908379502594470977783203125" lon="2.86411173641681671142578125">
        <ele>128.8000030517578125</ele>
        <time>2020-08-08T06:06:06.000Z</time>
      </trkpt>
      <trkpt lat="42.39896334707736968994140625" lon="2.86389891989529132843017578125">
        <ele>129.600006103515625</ele>
        <time>2020-08-08T06:06:14.000Z</time>
      </trkpt>
      <trkpt lat="42.398932836949825286865234375" lon="2.86384728737175464630126953125">
        <ele>129.8000030517578125</ele>
        <time>2020-08-08T06:06:16.000Z</time>
      </trkpt>
      <trkpt lat="42.39883636124432086944580078125" lon="2.86369238980114459991455078125">
        <ele>130.8000030517578125</ele>
        <time>2020-08-08T06:06:22.000Z</time>
      </trkpt>
      <trkpt lat="42.3988200165331363677978515625" lon="2.86366489715874195098876953125">
        <ele>131</ele>
        <time>2020-08-08T06:06:23.000Z</time>
      </trkpt>
      <trkpt lat="42.3986922763288021087646484375" lon="2.86345903761684894561767578125">
        <ele>132.1999969482421875</ele>
        <time>2020-08-08T06:06:31.000Z</time>
      </trkpt>
      <trkpt lat="42.39864827133715152740478515625" lon="2.8633883781731128692626953125">
        <ele>132.8000030517578125</ele>
        <time>2020-08-08T06:06:34.000Z</time>
      </trkpt>
      <trkpt lat="42.39863477647304534912109375" lon="2.8633632324635982513427734375">
        <ele>132.8000030517578125</ele>
        <time>2020-08-08T06:06:35.000Z</time>
      </trkpt>
      <trkpt lat="42.39860518835484981536865234375" lon="2.86331671290099620819091796875">
        <ele>133.1999969482421875</ele>
        <time>2020-08-08T06:06:37.000Z</time>
      </trkpt>
      <trkpt lat="42.3985134065151214599609375" lon="2.8631691075861454010009765625">
        <ele>133.8000030517578125</ele>
        <time>2020-08-08T06:06:43.000Z</time>
      </trkpt>
      <trkpt lat="42.3984673060476779937744140625" lon="2.86309056915342807769775390625">
        <ele>134.1999969482421875</ele>
        <time>2020-08-08T06:06:46.000Z</time>
      </trkpt>
      <trkpt lat="42.398375608026981353759765625" lon="2.8629317320883274078369140625">
        <ele>135</ele>
        <time>2020-08-08T06:06:52.000Z</time>
      </trkpt>
      <trkpt lat="42.39831215701997280120849609375" lon="2.8628194145858287811279296875">
        <ele>135.399993896484375</ele>
        <time>2020-08-08T06:06:56.000Z</time>
      </trkpt>
      <trkpt lat="42.3982403241097927093505859375" lon="2.86270357668399810791015625">
        <ele>135.600006103515625</ele>
        <time>2020-08-08T06:07:00.000Z</time>
      </trkpt>
      <trkpt lat="42.39806086756289005279541015625" lon="2.86239453591406345367431640625">
        <ele>136</ele>
        <time>2020-08-08T06:07:10.000Z</time>
      </trkpt>
      <trkpt lat="42.39781628362834453582763671875" lon="2.861997149884700775146484375">
        <ele>136.399993896484375</ele>
        <time>2020-08-08T06:07:23.000Z</time>
      </trkpt>
      <trkpt lat="42.39763624034821987152099609375" lon="2.86170688457787036895751953125">
        <ele>136.8000030517578125</ele>
        <time>2020-08-08T06:07:32.000Z</time>
      </trkpt>
      <trkpt lat="42.3974955081939697265625" lon="2.86146414466202259063720703125">
        <ele>136.8000030517578125</ele>
        <time>2020-08-08T06:07:39.000Z</time>
      </trkpt>
      <trkpt lat="42.3973126150667667388916015625" lon="2.86115669645369052886962890625">
        <ele>136.8000030517578125</ele>
        <time>2020-08-08T06:07:48.000Z</time>
      </trkpt>
      <trkpt lat="42.39707130007445812225341796875" lon="2.8607574664056301116943359375">
        <ele>136.8000030517578125</ele>
        <time>2020-08-08T06:07:59.000Z</time>
      </trkpt>
      <trkpt lat="42.39681464619934558868408203125" lon="2.86033359356224536895751953125">
        <ele>136.600006103515625</ele>
        <time>2020-08-08T06:08:10.000Z</time>
      </trkpt>
      <trkpt lat="42.396602667868137359619140625" lon="2.85998993553221225738525390625">
        <ele>135.8000030517578125</ele>
        <time>2020-08-08T06:08:18.000Z</time>
      </trkpt>
      <trkpt lat="42.396546341478824615478515625" lon="2.85989530384540557861328125">
        <ele>135.600006103515625</ele>
        <time>2020-08-08T06:08:20.000Z</time>
      </trkpt>
      <trkpt lat="42.39636101759970188140869140625" lon="2.859583832323551177978515625">
        <ele>134.600006103515625</ele>
        <time>2020-08-08T06:08:26.000Z</time>
      </trkpt>
      <trkpt lat="42.39632799290120601654052734375" lon="2.8595286794006824493408203125">
        <ele>134.600006103515625</ele>
        <time>2020-08-08T06:08:27.000Z</time>
      </trkpt>
      <trkpt lat="42.3960848338901996612548828125" lon="2.859121821820735931396484375">
        <ele>133.600006103515625</ele>
        <time>2020-08-08T06:08:34.000Z</time>
      </trkpt>
      <trkpt lat="42.3960134200751781463623046875" lon="2.85900539718568325042724609375">
        <ele>133.399993896484375</ele>
        <time>2020-08-08T06:08:36.000Z</time>
      </trkpt>
      <trkpt lat="42.39584268070757389068603515625" lon="2.85872309468686580657958984375">
        <ele>132.600006103515625</ele>
        <time>2020-08-08T06:08:41.000Z</time>
      </trkpt>
      <trkpt lat="42.39571896381676197052001953125" lon="2.8585104458034038543701171875">
        <ele>132.600006103515625</ele>
        <time>2020-08-08T06:08:45.000Z</time>
      </trkpt>
      <trkpt lat="42.39550304599106311798095703125" lon="2.85814926959574222564697265625">
        <ele>132.399993896484375</ele>
        <time>2020-08-08T06:08:53.000Z</time>
      </trkpt>
      <trkpt lat="42.39528377540409564971923828125" lon="2.85778532736003398895263671875">
        <ele>133.399993896484375</ele>
        <time>2020-08-08T06:09:03.000Z</time>
      </trkpt>
      <trkpt lat="42.39524387754499912261962890625" lon="2.85771274007856845855712890625">
        <ele>133.8000030517578125</ele>
        <time>2020-08-08T06:09:05.000Z</time>
      </trkpt>
      <trkpt lat="42.39510004408657550811767578125" lon="2.8574724309146404266357421875">
        <ele>134.8000030517578125</ele>
        <time>2020-08-08T06:09:12.000Z</time>
      </trkpt>
      <trkpt lat="42.39508093334734439849853515625" lon="2.857437394559383392333984375">
        <ele>134.8000030517578125</ele>
        <time>2020-08-08T06:09:13.000Z</time>
      </trkpt>
      <trkpt lat="42.394955791532993316650390625" lon="2.85714067518711090087890625">
        <ele>135.8000030517578125</ele>
        <time>2020-08-08T06:09:21.000Z</time>
      </trkpt>
      <trkpt lat="42.39494883455336093902587890625" lon="2.85710035823285579681396484375">
        <ele>135.8000030517578125</ele>
        <time>2020-08-08T06:09:22.000Z</time>
      </trkpt>
      <trkpt lat="42.39490675739943981170654296875" lon="2.85682928748428821563720703125">
        <ele>136.8000030517578125</ele>
        <time>2020-08-08T06:09:29.000Z</time>
      </trkpt>
      <trkpt lat="42.394902817904949188232421875" lon="2.8567938320338726043701171875">
        <ele>137</ele>
        <time>2020-08-08T06:09:30.000Z</time>
      </trkpt>
      <trkpt lat="42.3948902450501918792724609375" lon="2.8565458953380584716796875">
        <ele>137.600006103515625</ele>
        <time>2020-08-08T06:09:37.000Z</time>
      </trkpt>
      <trkpt lat="42.3948801867663860321044921875" lon="2.8563626669347286224365234375">
        <ele>138.1999969482421875</ele>
        <time>2020-08-08T06:09:42.000Z</time>
      </trkpt>
      <trkpt lat="42.39486400969326496124267578125" lon="2.85617549903690814971923828125">
        <ele>138.600006103515625</ele>
        <time>2020-08-08T06:09:47.000Z</time>
      </trkpt>
      <trkpt lat="42.3948456533253192901611328125" lon="2.85591767169535160064697265625">
        <ele>139.1999969482421875</ele>
        <time>2020-08-08T06:09:54.000Z</time>
      </trkpt>
      <trkpt lat="42.394817657768726348876953125" lon="2.8556267358362674713134765625">
        <ele>140.1999969482421875</ele>
        <time>2020-08-08T06:10:02.000Z</time>
      </trkpt>
      <trkpt lat="42.3948138020932674407958984375" lon="2.85555523820221424102783203125">
        <ele>140.399993896484375</ele>
        <time>2020-08-08T06:10:04.000Z</time>
      </trkpt>
      <trkpt lat="42.3948027379810810089111328125" lon="2.85523974336683750152587890625">
        <ele>141</ele>
        <time>2020-08-08T06:10:12.000Z</time>
      </trkpt>
      <trkpt lat="42.39479159004986286163330078125" lon="2.85512491129338741302490234375">
        <ele>141.1999969482421875</ele>
        <time>2020-08-08T06:10:15.000Z</time>
      </trkpt>
      <trkpt lat="42.3947705514729022979736328125" lon="2.85498283803462982177734375">
        <ele>141.600006103515625</ele>
        <time>2020-08-08T06:10:19.000Z</time>
      </trkpt>
      <trkpt lat="42.39475705660879611968994140625" lon="2.854724340140819549560546875">
        <ele>142.600006103515625</ele>
        <time>2020-08-08T06:10:26.000Z</time>
      </trkpt>
      <trkpt lat="42.3947557993233203887939453125" lon="2.854684107005596160888671875">
        <ele>142.600006103515625</ele>
        <time>2020-08-08T06:10:27.000Z</time>
      </trkpt>
      <trkpt lat="42.394733838737010955810546875" lon="2.8543402813374996185302734375">
        <ele>143.600006103515625</ele>
        <time>2020-08-08T06:10:36.000Z</time>
      </trkpt>
      <trkpt lat="42.39472855813801288604736328125" lon="2.854261659085750579833984375">
        <ele>143.8000030517578125</ele>
        <time>2020-08-08T06:10:38.000Z</time>
      </trkpt>
      <trkpt lat="42.39469729363918304443359375" lon="2.853994108736515045166015625">
        <ele>144.600006103515625</ele>
        <time>2020-08-08T06:10:45.000Z</time>
      </trkpt>
      <trkpt lat="42.39469788037240505218505859375" lon="2.8536812961101531982421875">
        <ele>145.600006103515625</ele>
        <time>2020-08-08T06:10:53.000Z</time>
      </trkpt>
      <trkpt lat="42.3947060108184814453125" lon="2.853642404079437255859375">
        <ele>145.600006103515625</ele>
        <time>2020-08-08T06:10:54.000Z</time>
      </trkpt>
      <trkpt lat="42.39479125477373600006103515625" lon="2.853375189006328582763671875">
        <ele>146</ele>
        <time>2020-08-08T06:11:01.000Z</time>
      </trkpt>
      <trkpt lat="42.3949053324759006500244140625" lon="2.8532114066183567047119140625">
        <ele>146</ele>
        <time>2020-08-08T06:11:06.000Z</time>
      </trkpt>
      <trkpt lat="42.39512971602380275726318359375" lon="2.85291091538965702056884765625">
        <ele>145.8000030517578125</ele>
        <time>2020-08-08T06:11:15.000Z</time>
      </trkpt>
      <trkpt lat="42.39541503600776195526123046875" lon="2.85254026763141155242919921875">
        <ele>146</ele>
        <time>2020-08-08T06:11:26.000Z</time>
      </trkpt>
      <trkpt lat="42.39555467851459980010986328125" lon="2.85230725072324275970458984375">
        <ele>145.8000030517578125</ele>
        <time>2020-08-08T06:11:32.000Z</time>
      </trkpt>
      <trkpt lat="42.395553253591060638427734375" lon="2.8520677797496318817138671875">
        <ele>145.8000030517578125</ele>
        <time>2020-08-08T06:11:37.000Z</time>
      </trkpt>
      <trkpt lat="42.395425178110599517822265625" lon="2.8518917597830295562744140625">
        <ele>146.1999969482421875</ele>
        <time>2020-08-08T06:11:42.000Z</time>
      </trkpt>
      <trkpt lat="42.39516735076904296875" lon="2.851671315729618072509765625">
        <ele>146.1999969482421875</ele>
        <time>2020-08-08T06:11:51.000Z</time>
      </trkpt>
      <trkpt lat="42.39493575878441333770751953125" lon="2.85148657858371734619140625">
        <ele>146</ele>
        <time>2020-08-08T06:11:59.000Z</time>
      </trkpt>
      <trkpt lat="42.39476895891129970550537109375" lon="2.85127677954733371734619140625">
        <ele>146</ele>
        <time>2020-08-08T06:12:05.000Z</time>
      </trkpt>
      <trkpt lat="42.39471414126455783843994140625" lon="2.85108047537505626678466796875">
        <ele>145.8000030517578125</ele>
        <time>2020-08-08T06:12:09.000Z</time>
      </trkpt>
      <trkpt lat="42.39471229724586009979248046875" lon="2.85102297551929950714111328125">
        <ele>145.8000030517578125</ele>
        <time>2020-08-08T06:12:10.000Z</time>
      </trkpt>
      <trkpt lat="42.3947698809206485748291015625" lon="2.85074201412498950958251953125">
        <ele>145.399993896484375</ele>
        <time>2020-08-08T06:12:15.000Z</time>
      </trkpt>
      <trkpt lat="42.3948570527136325836181640625" lon="2.8506153635680675506591796875">
        <ele>145.1999969482421875</ele>
        <time>2020-08-08T06:12:18.000Z</time>
      </trkpt>
      <trkpt lat="42.39492150954902172088623046875" lon="2.85054151900112628936767578125">
        <ele>145</ele>
        <time>2020-08-08T06:12:20.000Z</time>
      </trkpt>
      <trkpt lat="42.39495336078107357025146484375" lon="2.85050698556005954742431640625">
        <ele>145</ele>
        <time>2020-08-08T06:12:21.000Z</time>
      </trkpt>
      <trkpt lat="42.39511814899742603302001953125" lon="2.85033750347793102264404296875">
        <ele>144.8000030517578125</ele>
        <time>2020-08-08T06:12:26.000Z</time>
      </trkpt>
      <trkpt lat="42.39535577595233917236328125" lon="2.8501045703887939453125">
        <ele>144.399993896484375</ele>
        <time>2020-08-08T06:12:33.000Z</time>
      </trkpt>
      <trkpt lat="42.39538989029824733734130859375" lon="2.85007045604288578033447265625">
        <ele>144.1999969482421875</ele>
        <time>2020-08-08T06:12:34.000Z</time>
      </trkpt>
      <trkpt lat="42.39549047313630580902099609375" lon="2.849951684474945068359375">
        <ele>143.8000030517578125</ele>
        <time>2020-08-08T06:12:37.000Z</time>
      </trkpt>
      <trkpt lat="42.395738996565341949462890625" lon="2.84968740306794643402099609375">
        <ele>143.1999969482421875</ele>
        <time>2020-08-08T06:12:43.000Z</time>
      </trkpt>
      <trkpt lat="42.39583396352827548980712890625" lon="2.84957173280417919158935546875">
        <ele>142.600006103515625</ele>
        <time>2020-08-08T06:12:45.000Z</time>
      </trkpt>
      <trkpt lat="42.396028339862823486328125" lon="2.8492977283895015716552734375">
        <ele>141.399993896484375</ele>
        <time>2020-08-08T06:12:49.000Z</time>
      </trkpt>
      <trkpt lat="42.3961745202541351318359375" lon="2.849072255194187164306640625">
        <ele>140.399993896484375</ele>
        <time>2020-08-08T06:12:52.000Z</time>
      </trkpt>
      <trkpt lat="42.39621232263743877410888671875" lon="2.8489874303340911865234375">
        <ele>140.1999969482421875</ele>
        <time>2020-08-08T06:12:53.000Z</time>
      </trkpt>
      <trkpt lat="42.3962357081472873687744140625" lon="2.848893888294696807861328125">
        <ele>139.600006103515625</ele>
        <time>2020-08-08T06:12:54.000Z</time>
      </trkpt>
      <trkpt lat="42.3961934633553028106689453125" lon="2.84861636348068714141845703125">
        <ele>139.399993896484375</ele>
        <time>2020-08-08T06:12:57.000Z</time>
      </trkpt>
      <trkpt lat="42.39609950222074985504150390625" lon="2.84848493523895740509033203125">
        <ele>139.1999969482421875</ele>
        <time>2020-08-08T06:12:59.000Z</time>
      </trkpt>
      <trkpt lat="42.39600487053394317626953125" lon="2.84836943261325359344482421875">
        <ele>139.1999969482421875</ele>
        <time>2020-08-08T06:13:01.000Z</time>
      </trkpt>
      <trkpt lat="42.39595969207584857940673828125" lon="2.84831486642360687255859375">
        <ele>139.1999969482421875</ele>
        <time>2020-08-08T06:13:02.000Z</time>
      </trkpt>
      <trkpt lat="42.395744360983371734619140625" lon="2.84809836186468601226806640625">
        <ele>138.8000030517578125</ele>
        <time>2020-08-08T06:13:07.000Z</time>
      </trkpt>
      <trkpt lat="42.3955705203115940093994140625" lon="2.84805594943463802337646484375">
        <ele>139</ele>
        <time>2020-08-08T06:13:11.000Z</time>
      </trkpt>
      <trkpt lat="42.39537329412996768951416015625" lon="2.84804220311343669891357421875">
        <ele>139.600006103515625</ele>
        <time>2020-08-08T06:13:17.000Z</time>
      </trkpt>
      <trkpt lat="42.39530221559107303619384765625" lon="2.8480793349444866180419921875">
        <ele>140.1999969482421875</ele>
        <time>2020-08-08T06:13:20.000Z</time>
      </trkpt>
      <trkpt lat="42.39523599855601787567138671875" lon="2.8481279499828815460205078125">
        <ele>140.600006103515625</ele>
        <time>2020-08-08T06:13:23.000Z</time>
      </trkpt>
      <trkpt lat="42.39514379762113094329833984375" lon="2.848231382668018341064453125">
        <ele>141.1999969482421875</ele>
        <time>2020-08-08T06:13:28.000Z</time>
      </trkpt>
      <trkpt lat="42.3951105214655399322509765625" lon="2.84826784394681453704833984375">
        <ele>141.600006103515625</ele>
        <time>2020-08-08T06:13:30.000Z</time>
      </trkpt>
      <trkpt lat="42.39504002965986728668212890625" lon="2.8483706898987293243408203125">
        <ele>142.399993896484375</ele>
        <time>2020-08-08T06:13:35.000Z</time>
      </trkpt>
      <trkpt lat="42.3950246907770633697509765625" lon="2.84839072264730930328369140625">
        <ele>142.399993896484375</ele>
        <time>2020-08-08T06:13:36.000Z</time>
      </trkpt>
      <trkpt lat="42.3949150554835796356201171875" lon="2.84852047450840473175048828125">
        <ele>143.399993896484375</ele>
        <time>2020-08-08T06:13:43.000Z</time>
      </trkpt>
      <trkpt lat="42.39488295279443264007568359375" lon="2.848560623824596405029296875">
        <ele>143.600006103515625</ele>
        <time>2020-08-08T06:13:45.000Z</time>
      </trkpt>
      <trkpt lat="42.3947718925774097442626953125" lon="2.8486117534339427947998046875">
        <ele>144.399993896484375</ele>
        <time>2020-08-08T06:13:51.000Z</time>
      </trkpt>
      <trkpt lat="42.394752614200115203857421875" lon="2.84861317835748195648193359375">
        <ele>144.600006103515625</ele>
        <time>2020-08-08T06:13:52.000Z</time>
      </trkpt>
      <trkpt lat="42.3946617543697357177734375" lon="2.84857160411775112152099609375">
        <ele>145.1999969482421875</ele>
        <time>2020-08-08T06:13:57.000Z</time>
      </trkpt>
      <trkpt lat="42.39462277851998805999755859375" lon="2.848513685166835784912109375">
        <ele>145.600006103515625</ele>
        <time>2020-08-08T06:14:00.000Z</time>
      </trkpt>
      <trkpt lat="42.39459930919110774993896484375" lon="2.8484189696609973907470703125">
        <ele>146.1999969482421875</ele>
        <time>2020-08-08T06:14:04.000Z</time>
      </trkpt>
      <trkpt lat="42.39461590535938739776611328125" lon="2.848342359066009521484375">
        <ele>146.8000030517578125</ele>
        <time>2020-08-08T06:14:07.000Z</time>
      </trkpt>
      <trkpt lat="42.39465161226689815521240234375" lon="2.84825124777853488922119140625">
        <ele>147.399993896484375</ele>
        <time>2020-08-08T06:14:11.000Z</time>
      </trkpt>
      <trkpt lat="42.3947100341320037841796875" lon="2.848140187561511993408203125">
        <ele>148</ele>
        <time>2020-08-08T06:14:16.000Z</time>
      </trkpt>
      <trkpt lat="42.39474247209727764129638671875" lon="2.84807003103196620941162109375">
        <ele>148.399993896484375</ele>
        <time>2020-08-08T06:14:19.000Z</time>
      </trkpt>
      <trkpt lat="42.39478790201246738433837890625" lon="2.84799031913280487060546875">
        <ele>149</ele>
        <time>2020-08-08T06:14:23.000Z</time>
      </trkpt>
      <trkpt lat="42.3948184959590435028076171875" lon="2.84791949205100536346435546875">
        <ele>149.399993896484375</ele>
        <time>2020-08-08T06:14:26.000Z</time>
      </trkpt>
      <trkpt lat="42.39488907158374786376953125" lon="2.8478010557591915130615234375">
        <ele>150</ele>
        <time>2020-08-08T06:14:32.000Z</time>
      </trkpt>
      <trkpt lat="42.3949003033339977264404296875" lon="2.84778152592480182647705078125">
        <ele>150</ele>
        <time>2020-08-08T06:14:33.000Z</time>
      </trkpt>
      <trkpt lat="42.39499024115502834320068359375" lon="2.84763635136187076568603515625">
        <ele>151</ele>
        <time>2020-08-08T06:14:40.000Z</time>
      </trkpt>
      <trkpt lat="42.39500599913299083709716796875" lon="2.84761589951813220977783203125">
        <ele>151.1999969482421875</ele>
        <time>2020-08-08T06:14:41.000Z</time>
      </trkpt>
      <trkpt lat="42.39512653090059757232666015625" lon="2.8474424779415130615234375">
        <ele>151.399993896484375</ele>
        <time>2020-08-08T06:14:49.000Z</time>
      </trkpt>
      <trkpt lat="42.39514128305017948150634765625" lon="2.84730224870145320892333984375">
        <ele>151.8000030517578125</ele>
        <time>2020-08-08T06:14:54.000Z</time>
      </trkpt>
      <trkpt lat="42.3950619064271450042724609375" lon="2.8472223691642284393310546875">
        <ele>152</ele>
        <time>2020-08-08T06:14:59.000Z</time>
      </trkpt>
      <trkpt lat="42.3950399458408355712890625" lon="2.84722044132649898529052734375">
        <ele>152.1999969482421875</ele>
        <time>2020-08-08T06:15:00.000Z</time>
      </trkpt>
      <trkpt lat="42.39488236606121063232421875" lon="2.84722144715487957000732421875">
        <ele>152.8000030517578125</ele>
        <time>2020-08-08T06:15:07.000Z</time>
      </trkpt>
      <trkpt lat="42.394738532602787017822265625" lon="2.847224213182926177978515625">
        <ele>153</ele>
        <time>2020-08-08T06:15:13.000Z</time>
      </trkpt>
      <trkpt lat="42.3946139775216579437255859375" lon="2.8472159989178180694580078125">
        <ele>153.399993896484375</ele>
        <time>2020-08-08T06:15:18.000Z</time>
      </trkpt>
      <trkpt lat="42.39454113878309726715087890625" lon="2.8472069464623928070068359375">
        <ele>153.600006103515625</ele>
        <time>2020-08-08T06:15:21.000Z</time>
      </trkpt>
      <trkpt lat="42.39436394535005092620849609375" lon="2.84721222706139087677001953125">
        <ele>154</ele>
        <time>2020-08-08T06:15:29.000Z</time>
      </trkpt>
      <trkpt lat="42.39423553459346294403076171875" lon="2.8471801243722438812255859375">
        <ele>154.1999969482421875</ele>
        <time>2020-08-08T06:15:35.000Z</time>
      </trkpt>
      <trkpt lat="42.394191361963748931884765625" lon="2.8471687249839305877685546875">
        <ele>154.399993896484375</ele>
        <time>2020-08-08T06:15:37.000Z</time>
      </trkpt>
      <trkpt lat="42.39412053488194942474365234375" lon="2.84714047797024250030517578125">
        <ele>154.8000030517578125</ele>
        <time>2020-08-08T06:15:41.000Z</time>
      </trkpt>
      <trkpt lat="42.39399631507694721221923828125" lon="2.8471429087221622467041015625">
        <ele>155.399993896484375</ele>
        <time>2020-08-08T06:15:47.000Z</time>
      </trkpt>
      <trkpt lat="42.393927834928035736083984375" lon="2.84713561646640300750732421875">
        <ele>155.600006103515625</ele>
        <time>2020-08-08T06:15:50.000Z</time>
      </trkpt>
      <trkpt lat="42.393795065581798553466796875" lon="2.8471164219081401824951171875">
        <ele>156</ele>
        <time>2020-08-08T06:15:56.000Z</time>
      </trkpt>
      <trkpt lat="42.39370596595108509063720703125" lon="2.8471080400049686431884765625">
        <ele>156</ele>
        <time>2020-08-08T06:16:00.000Z</time>
      </trkpt>
      <trkpt lat="42.393691800534725189208984375" lon="2.8470651246607303619384765625">
        <ele>156.1999969482421875</ele>
        <time>2020-08-08T06:16:02.000Z</time>
      </trkpt>
      <trkpt lat="42.39368584938347339630126953125" lon="2.8469920344650745391845703125">
        <ele>156.8000030517578125</ele>
        <time>2020-08-08T06:16:06.000Z</time>
      </trkpt>
      <trkpt lat="42.3936741985380649566650390625" lon="2.84693897701799869537353515625">
        <ele>157.1999969482421875</ele>
        <time>2020-08-08T06:16:09.000Z</time>
      </trkpt>
      <trkpt lat="42.393639497458934783935546875" lon="2.84683202393352985382080078125">
        <ele>158</ele>
        <time>2020-08-08T06:16:15.000Z</time>
      </trkpt>
      <trkpt lat="42.3936071433126926422119140625" lon="2.84678072668612003326416015625">
        <ele>158.399993896484375</ele>
        <time>2020-08-08T06:16:19.000Z</time>
      </trkpt>
      <trkpt lat="42.39360001869499683380126953125" lon="2.8467469476163387298583984375">
        <ele>158.8000030517578125</ele>
        <time>2020-08-08T06:16:21.000Z</time>
      </trkpt>
      <trkpt lat="42.3935995995998382568359375" lon="2.846725992858409881591796875">
        <ele>159</ele>
        <time>2020-08-08T06:16:22.000Z</time>
      </trkpt>
      <trkpt lat="42.3936049640178680419921875" lon="2.84662012942135334014892578125">
        <ele>159.1999969482421875</ele>
        <time>2020-08-08T06:16:27.000Z</time>
      </trkpt>
      <trkpt lat="42.39359758794307708740234375" lon="2.84656874835491180419921875">
        <ele>160</ele>
        <time>2020-08-08T06:16:30.000Z</time>
      </trkpt>
      <trkpt lat="42.39360488019883632659912109375" lon="2.84653178416192531585693359375">
        <ele>160.399993896484375</ele>
        <time>2020-08-08T06:16:32.000Z</time>
      </trkpt>
      <trkpt lat="42.39364184439182281494140625" lon="2.84650211222469806671142578125">
        <ele>160.8000030517578125</ele>
        <time>2020-08-08T06:16:37.000Z</time>
      </trkpt>
      <trkpt lat="42.39367067813873291015625" lon="2.84648048691451549530029296875">
        <ele>160.8000030517578125</ele>
        <time>2020-08-08T06:16:40.000Z</time>
      </trkpt>
      <trkpt lat="42.39368802867829799652099609375" lon="2.84646808169782161712646484375">
        <ele>160.8000030517578125</ele>
        <time>2020-08-08T06:16:41.000Z</time>
      </trkpt>
      <trkpt lat="42.39378341473639011383056640625" lon="2.84644863568246364593505859375">
        <ele>160.8000030517578125</ele>
        <time>2020-08-08T06:16:46.000Z</time>
      </trkpt>
      <trkpt lat="42.39381887018680572509765625" lon="2.8464609570801258087158203125">
        <ele>160.8000030517578125</ele>
        <time>2020-08-08T06:16:53.000Z</time>
      </trkpt>
      <trkpt lat="42.39386220462620258331298828125" lon="2.8464421816170215606689453125">
        <ele>161</ele>
        <time>2020-08-08T06:17:02.000Z</time>
      </trkpt>
      <trkpt lat="42.39392171613872051239013671875" lon="2.8464334644377231597900390625">
        <ele>161</ele>
        <time>2020-08-08T06:17:06.000Z</time>
      </trkpt>
      <trkpt lat="42.39396236836910247802734375" lon="2.84644645638763904571533203125">
        <ele>161</ele>
        <time>2020-08-08T06:17:08.000Z</time>
      </trkpt>
      <trkpt lat="42.394039817154407501220703125" lon="2.8464143536984920501708984375">
        <ele>161</ele>
        <time>2020-08-08T06:17:12.000Z</time>
      </trkpt>
      <trkpt lat="42.39404677413403987884521484375" lon="2.8463023714721202850341796875">
        <ele>161</ele>
        <time>2020-08-08T06:17:16.000Z</time>
      </trkpt>
      <trkpt lat="42.3939756117761135101318359375" lon="2.84616951830685138702392578125">
        <ele>161.399993896484375</ele>
        <time>2020-08-08T06:17:22.000Z</time>
      </trkpt>
      <trkpt lat="42.3939605243504047393798828125" lon="2.846137583255767822265625">
        <ele>161.399993896484375</ele>
        <time>2020-08-08T06:17:24.000Z</time>
      </trkpt>
      <trkpt lat="42.39394962787628173828125" lon="2.84612492658197879791259765625">
        <ele>161.399993896484375</ele>
        <time>2020-08-08T06:17:25.000Z</time>
      </trkpt>
      <trkpt lat="42.393930517137050628662109375" lon="2.84610799513757228851318359375">
        <ele>162</ele>
        <time>2020-08-08T06:17:27.000Z</time>
      </trkpt>
      <trkpt lat="42.393880896270275115966796875" lon="2.8459650836884975433349609375">
        <ele>162.399993896484375</ele>
        <time>2020-08-08T06:17:32.000Z</time>
      </trkpt>
      <trkpt lat="42.39387075416743755340576171875" lon="2.84591655246913433074951171875">
        <ele>162.600006103515625</ele>
        <time>2020-08-08T06:17:34.000Z</time>
      </trkpt>
      <trkpt lat="42.3938746936619281768798828125" lon="2.8458467312157154083251953125">
        <ele>162.600006103515625</ele>
        <time>2020-08-08T06:17:37.000Z</time>
      </trkpt>
      <trkpt lat="42.39388098008930683135986328125" lon="2.84576970152556896209716796875">
        <ele>162.8000030517578125</ele>
        <time>2020-08-08T06:17:40.000Z</time>
      </trkpt>
      <trkpt lat="42.39386656321585178375244140625" lon="2.84568990580737590789794921875">
        <ele>163.600006103515625</ele>
        <time>2020-08-08T06:17:45.000Z</time>
      </trkpt>
      <trkpt lat="42.3938606120645999908447265625" lon="2.8456854633986949920654296875">
        <ele>163.8000030517578125</ele>
        <time>2020-08-08T06:17:47.000Z</time>
      </trkpt>
      <trkpt lat="42.3938477039337158203125" lon="2.84562318585813045501708984375">
        <ele>164</ele>
        <time>2020-08-08T06:17:54.000Z</time>
      </trkpt>
      <trkpt lat="42.393847368657588958740234375" lon="2.84550718031823635101318359375">
        <ele>164</ele>
        <time>2020-08-08T06:17:59.000Z</time>
      </trkpt>
      <trkpt lat="42.393865473568439483642578125" lon="2.8454333357512950897216796875">
        <ele>164.8000030517578125</ele>
        <time>2020-08-08T06:18:02.000Z</time>
      </trkpt>
      <trkpt lat="42.3938689939677715301513671875" lon="2.8453760035336017608642578125">
        <ele>165</ele>
        <time>2020-08-08T06:18:04.000Z</time>
      </trkpt>
      <trkpt lat="42.3938237316906452178955078125" lon="2.84527265466749668121337890625">
        <ele>165.399993896484375</ele>
        <time>2020-08-08T06:18:08.000Z</time>
      </trkpt>
      <trkpt lat="42.39380143582820892333984375" lon="2.845256812870502471923828125">
        <ele>165.600006103515625</ele>
        <time>2020-08-08T06:18:09.000Z</time>
      </trkpt>
      <trkpt lat="42.39375977776944637298583984375" lon="2.8452073596417903900146484375">
        <ele>165.8000030517578125</ele>
        <time>2020-08-08T06:18:12.000Z</time>
      </trkpt>
      <trkpt lat="42.393729686737060546875" lon="2.84517341293394565582275390625">
        <ele>166</ele>
        <time>2020-08-08T06:18:15.000Z</time>
      </trkpt>
      <trkpt lat="42.3937221430242061614990234375" lon="2.84515933133661746978759765625">
        <ele>166.1999969482421875</ele>
        <time>2020-08-08T06:18:16.000Z</time>
      </trkpt>
      <trkpt lat="42.39371116273105144500732421875" lon="2.8451433219015598297119140625">
        <ele>166.399993896484375</ele>
        <time>2020-08-08T06:18:17.000Z</time>
      </trkpt>
      <trkpt lat="42.39367813803255558013916015625" lon="2.845091521739959716796875">
        <ele>166.8000030517578125</ele>
        <time>2020-08-08T06:18:20.000Z</time>
      </trkpt>
      <trkpt lat="42.3936607874929904937744140625" lon="2.8450675494968891143798828125">
        <ele>167.399993896484375</ele>
        <time>2020-08-08T06:18:22.000Z</time>
      </trkpt>
      <trkpt lat="42.39362365566194057464599609375" lon="2.8449937887489795684814453125">
        <ele>168.1999969482421875</ele>
        <time>2020-08-08T06:18:26.000Z</time>
      </trkpt>
      <trkpt lat="42.393614687025547027587890625" lon="2.844981886446475982666015625">
        <ele>168.399993896484375</ele>
        <time>2020-08-08T06:18:27.000Z</time>
      </trkpt>
      <trkpt lat="42.3936024494469165802001953125" lon="2.844965457916259765625">
        <ele>168.600006103515625</ele>
        <time>2020-08-08T06:18:28.000Z</time>
      </trkpt>
      <trkpt lat="42.39353992044925689697265625" lon="2.84487401135265827178955078125">
        <ele>169.399993896484375</ele>
        <time>2020-08-08T06:18:32.000Z</time>
      </trkpt>
      <trkpt lat="42.39351318217813968658447265625" lon="2.84483025781810283660888671875">
        <ele>169.8000030517578125</ele>
        <time>2020-08-08T06:18:35.000Z</time>
      </trkpt>
      <trkpt lat="42.39346750080585479736328125" lon="2.84475180320441722869873046875">
        <ele>171</ele>
        <time>2020-08-08T06:18:40.000Z</time>
      </trkpt>
      <trkpt lat="42.39342148415744304656982421875" lon="2.84467376768589019775390625">
        <ele>172.1999969482421875</ele>
        <time>2020-08-08T06:18:45.000Z</time>
      </trkpt>
      <trkpt lat="42.39341695792973041534423828125" lon="2.84465909935534000396728515625">
        <ele>172.600006103515625</ele>
        <time>2020-08-08T06:18:46.000Z</time>
      </trkpt>
      <trkpt lat="42.39337186329066753387451171875" lon="2.844565808773040771484375">
        <ele>173.1999969482421875</ele>
        <time>2020-08-08T06:18:52.000Z</time>
      </trkpt>
      <trkpt lat="42.393362224102020263671875" lon="2.84455264918506145477294921875">
        <ele>173.399993896484375</ele>
        <time>2020-08-08T06:18:53.000Z</time>
      </trkpt>
      <trkpt lat="42.3933020420372486114501953125" lon="2.8444429300725460052490234375">
        <ele>174.8000030517578125</ele>
        <time>2020-08-08T06:19:00.000Z</time>
      </trkpt>
      <trkpt lat="42.39325183443725109100341796875" lon="2.84433974884450435638427734375">
        <ele>175.600006103515625</ele>
        <time>2020-08-08T06:19:06.000Z</time>
      </trkpt>
      <trkpt lat="42.393219731748104095458984375" lon="2.84426313824951648712158203125">
        <ele>176</ele>
        <time>2020-08-08T06:19:10.000Z</time>
      </trkpt>
      <trkpt lat="42.3931930772960186004638671875" lon="2.844219468533992767333984375">
        <ele>176.1999969482421875</ele>
        <time>2020-08-08T06:19:13.000Z</time>
      </trkpt>
      <trkpt lat="42.3931478150188922882080078125" lon="2.84414000809192657470703125">
        <ele>176.8000030517578125</ele>
        <time>2020-08-08T06:19:18.000Z</time>
      </trkpt>
      <trkpt lat="42.39313147030770778656005859375" lon="2.8441287763416767120361328125">
        <ele>177</ele>
        <time>2020-08-08T06:19:19.000Z</time>
      </trkpt>
      <trkpt lat="42.39307380281388759613037109375" lon="2.8440338931977748870849609375">
        <ele>177.1999969482421875</ele>
        <time>2020-08-08T06:19:25.000Z</time>
      </trkpt>
      <trkpt lat="42.39305502735078334808349609375" lon="2.84399525262415409088134765625">
        <ele>177.399993896484375</ele>
        <time>2020-08-08T06:19:27.000Z</time>
      </trkpt>
      <trkpt lat="42.3930056579411029815673828125" lon="2.84392006695270538330078125">
        <ele>177.8000030517578125</ele>
        <time>2020-08-08T06:19:31.000Z</time>
      </trkpt>
      <trkpt lat="42.39294581115245819091796875" lon="2.84381353296339511871337890625">
        <ele>178.1999969482421875</ele>
        <time>2020-08-08T06:19:37.000Z</time>
      </trkpt>
      <trkpt lat="42.39292125217616558074951171875" lon="2.84377614967525005340576171875">
        <ele>178.399993896484375</ele>
        <time>2020-08-08T06:19:39.000Z</time>
      </trkpt>
      <trkpt lat="42.39286961965262889862060546875" lon="2.84366902895271778106689453125">
        <ele>180</ele>
        <time>2020-08-08T06:19:45.000Z</time>
      </trkpt>
      <trkpt lat="42.39286266267299652099609375" lon="2.84365260042250156402587890625">
        <ele>180.399993896484375</ele>
        <time>2020-08-08T06:19:46.000Z</time>
      </trkpt>
      <trkpt lat="42.3928262852132320404052734375" lon="2.8435816057026386260986328125">
        <ele>181.399993896484375</ele>
        <time>2020-08-08T06:19:50.000Z</time>
      </trkpt>
      <trkpt lat="42.39279250614345073699951171875" lon="2.84350273199379444122314453125">
        <ele>182.399993896484375</ele>
        <time>2020-08-08T06:19:54.000Z</time>
      </trkpt>
      <trkpt lat="42.392764426767826080322265625" lon="2.84347406588494777679443359375">
        <ele>182.8000030517578125</ele>
        <time>2020-08-08T06:19:56.000Z</time>
      </trkpt>
      <trkpt lat="42.3927091062068939208984375" lon="2.8433948568999767303466796875">
        <ele>183.600006103515625</ele>
        <time>2020-08-08T06:20:02.000Z</time>
      </trkpt>
      <trkpt lat="42.392702065408229827880859375" lon="2.84337918274104595184326171875">
        <ele>183.8000030517578125</ele>
        <time>2020-08-08T06:20:03.000Z</time>
      </trkpt>
      <trkpt lat="42.39267867989838123321533203125" lon="2.8433341719210147857666015625">
        <ele>184.8000030517578125</ele>
        <time>2020-08-08T06:20:06.000Z</time>
      </trkpt>
      <trkpt lat="42.3926475830376148223876953125" lon="2.84327507950365543365478515625">
        <ele>186</ele>
        <time>2020-08-08T06:20:10.000Z</time>
      </trkpt>
      <trkpt lat="42.39263878203928470611572265625" lon="2.84326401539146900177001953125">
        <ele>186.1999969482421875</ele>
        <time>2020-08-08T06:20:11.000Z</time>
      </trkpt>
      <trkpt lat="42.3926033265888690948486328125" lon="2.843182124197483062744140625">
        <ele>187.399993896484375</ele>
        <time>2020-08-08T06:20:16.000Z</time>
      </trkpt>
      <trkpt lat="42.39259033463895320892333984375" lon="2.8431474231183528900146484375">
        <ele>187.8000030517578125</ele>
        <time>2020-08-08T06:20:18.000Z</time>
      </trkpt>
      <trkpt lat="42.39258371293544769287109375" lon="2.8431115485727787017822265625">
        <ele>188.399993896484375</ele>
        <time>2020-08-08T06:20:20.000Z</time>
      </trkpt>
      <trkpt lat="42.39258706569671630859375" lon="2.8430947847664356231689453125">
        <ele>188.600006103515625</ele>
        <time>2020-08-08T06:20:21.000Z</time>
      </trkpt>
      <trkpt lat="42.39261631853878498077392578125" lon="2.84305262379348278045654296875">
        <ele>189</ele>
        <time>2020-08-08T06:20:24.000Z</time>
      </trkpt>
      <trkpt lat="42.39263911731541156768798828125" lon="2.8430284000933170318603515625">
        <ele>189.399993896484375</ele>
        <time>2020-08-08T06:20:26.000Z</time>
      </trkpt>
      <trkpt lat="42.39266158081591129302978515625" lon="2.84300543367862701416015625">
        <ele>189.600006103515625</ele>
        <time>2020-08-08T06:20:28.000Z</time>
      </trkpt>
      <trkpt lat="42.39270751364529132843017578125" lon="2.8429553098976612091064453125">
        <ele>190.1999969482421875</ele>
        <time>2020-08-08T06:20:32.000Z</time>
      </trkpt>
      <trkpt lat="42.39277976565062999725341796875" lon="2.8428718261420726776123046875">
        <ele>191</ele>
        <time>2020-08-08T06:20:38.000Z</time>
      </trkpt>
      <trkpt lat="42.39280910231173038482666015625" lon="2.8428262285888195037841796875">
        <ele>191</ele>
        <time>2020-08-08T06:20:41.000Z</time>
      </trkpt>
      <trkpt lat="42.39285000599920749664306640625" lon="2.8427524678409099578857421875">
        <ele>192</ele>
        <time>2020-08-08T06:20:46.000Z</time>
      </trkpt>
      <trkpt lat="42.39286123774945735931396484375" lon="2.84272438846528530120849609375">
        <ele>192</ele>
        <time>2020-08-08T06:20:48.000Z</time>
      </trkpt>
      <trkpt lat="42.39286727271974086761474609375" lon="2.8427065350115299224853515625">
        <ele>192.1999969482421875</ele>
        <time>2020-08-08T06:20:49.000Z</time>
      </trkpt>
      <trkpt lat="42.3929335735738277435302734375" lon="2.84262196160852909088134765625">
        <ele>192.8000030517578125</ele>
        <time>2020-08-08T06:20:55.000Z</time>
      </trkpt>
      <trkpt lat="42.3929590545594692230224609375" lon="2.842571251094341278076171875">
        <ele>193.1999969482421875</ele>
        <time>2020-08-08T06:20:58.000Z</time>
      </trkpt>
      <trkpt lat="42.39299031905829906463623046875" lon="2.84252406097948551177978515625">
        <ele>194</ele>
        <time>2020-08-08T06:21:01.000Z</time>
      </trkpt>
      <trkpt lat="42.3929969407618045806884765625" lon="2.84247879870235919952392578125">
        <ele>194.399993896484375</ele>
        <time>2020-08-08T06:21:04.000Z</time>
      </trkpt>
      <trkpt lat="42.39298763684928417205810546875" lon="2.8424255736172199249267578125">
        <ele>195</ele>
        <time>2020-08-08T06:21:07.000Z</time>
      </trkpt>
      <trkpt lat="42.392986379563808441162109375" lon="2.8424098156392574310302734375">
        <ele>195</ele>
        <time>2020-08-08T06:21:08.000Z</time>
      </trkpt>
      <trkpt lat="42.39298604428768157958984375" lon="2.842361032962799072265625">
        <ele>195.600006103515625</ele>
        <time>2020-08-08T06:21:11.000Z</time>
      </trkpt>
      <trkpt lat="42.39298394881188869476318359375" lon="2.842343263328075408935546875">
        <ele>195.8000030517578125</ele>
        <time>2020-08-08T06:21:12.000Z</time>
      </trkpt>
      <trkpt lat="42.39298327825963497161865234375" lon="2.842258103191852569580078125">
        <ele>197</ele>
        <time>2020-08-08T06:21:17.000Z</time>
      </trkpt>
      <trkpt lat="42.39298336207866668701171875" lon="2.8422202169895172119140625">
        <ele>197.1999969482421875</ele>
        <time>2020-08-08T06:21:19.000Z</time>
      </trkpt>
      <trkpt lat="42.392977662384510040283203125" lon="2.8420946560800075531005859375">
        <ele>197.600006103515625</ele>
        <time>2020-08-08T06:21:25.000Z</time>
      </trkpt>
      <trkpt lat="42.39299249835312366485595703125" lon="2.8420175425708293914794921875">
        <ele>198</ele>
        <time>2020-08-08T06:21:29.000Z</time>
      </trkpt>
      <trkpt lat="42.3930043168365955352783203125" lon="2.84196197055280208587646484375">
        <ele>198.600006103515625</ele>
        <time>2020-08-08T06:21:32.000Z</time>
      </trkpt>
      <trkpt lat="42.39300775341689586639404296875" lon="2.84182718954980373382568359375">
        <ele>199.1999969482421875</ele>
        <time>2020-08-08T06:21:38.000Z</time>
      </trkpt>
      <trkpt lat="42.39299635402858257293701171875" lon="2.84178377129137516021728515625">
        <ele>199.600006103515625</ele>
        <time>2020-08-08T06:21:40.000Z</time>
      </trkpt>
      <trkpt lat="42.392944805324077606201171875" lon="2.8416795842349529266357421875">
        <ele>200.399993896484375</ele>
        <time>2020-08-08T06:21:46.000Z</time>
      </trkpt>
      <trkpt lat="42.39291957579553127288818359375" lon="2.84165888093411922454833984375">
        <ele>200.8000030517578125</ele>
        <time>2020-08-08T06:21:48.000Z</time>
      </trkpt>
      <trkpt lat="42.39282335154712200164794921875" lon="2.8416269458830356597900390625">
        <ele>201.1999969482421875</ele>
        <time>2020-08-08T06:21:55.000Z</time>
      </trkpt>
      <trkpt lat="42.39280767738819122314453125" lon="2.84162820316851139068603515625">
        <ele>201.600006103515625</ele>
        <time>2020-08-08T06:21:56.000Z</time>
      </trkpt>
      <trkpt lat="42.39273165352642536163330078125" lon="2.84166960977017879486083984375">
        <ele>202.1999969482421875</ele>
        <time>2020-08-08T06:22:02.000Z</time>
      </trkpt>
      <trkpt lat="42.39266895689070224761962890625" lon="2.84170053899288177490234375">
        <ele>203</ele>
        <time>2020-08-08T06:22:07.000Z</time>
      </trkpt>
      <trkpt lat="42.39263542927801609039306640625" lon="2.84173465333878993988037109375">
        <ele>203.600006103515625</ele>
        <time>2020-08-08T06:22:10.000Z</time>
      </trkpt>
      <trkpt lat="42.39259351976215839385986328125" lon="2.84176952205598354339599609375">
        <ele>204</ele>
        <time>2020-08-08T06:22:13.000Z</time>
      </trkpt>
      <trkpt lat="42.39254456944763660430908203125" lon="2.84181411378085613250732421875">
        <ele>204.600006103515625</ele>
        <time>2020-08-08T06:22:17.000Z</time>
      </trkpt>
      <trkpt lat="42.39248170517385005950927734375" lon="2.8418539278209209442138671875">
        <ele>205.1999969482421875</ele>
        <time>2020-08-08T06:22:22.000Z</time>
      </trkpt>
      <trkpt lat="42.3924658633768558502197265625" lon="2.841859795153141021728515625">
        <ele>205.1999969482421875</ele>
        <time>2020-08-08T06:22:23.000Z</time>
      </trkpt>
      <trkpt lat="42.39235865883529186248779296875" lon="2.84189340658485889434814453125">
        <ele>206</ele>
        <time>2020-08-08T06:22:30.000Z</time>
      </trkpt>
      <trkpt lat="42.392342649400234222412109375" lon="2.84189499914646148681640625">
        <ele>206.399993896484375</ele>
        <time>2020-08-08T06:22:31.000Z</time>
      </trkpt>
      <trkpt lat="42.3922174237668514251708984375" lon="2.84188787452876567840576171875">
        <ele>207.399993896484375</ele>
        <time>2020-08-08T06:22:39.000Z</time>
      </trkpt>
      <trkpt lat="42.39218733273446559906005859375" lon="2.841872535645961761474609375">
        <ele>207.399993896484375</ele>
        <time>2020-08-08T06:22:41.000Z</time>
      </trkpt>
      <trkpt lat="42.392126731574535369873046875" lon="2.84183188341557979583740234375">
        <ele>207.600006103515625</ele>
        <time>2020-08-08T06:22:45.000Z</time>
      </trkpt>
      <trkpt lat="42.391973845660686492919921875" lon="2.84168704412877559661865234375">
        <ele>208.399993896484375</ele>
        <time>2020-08-08T06:22:56.000Z</time>
      </trkpt>
      <trkpt lat="42.391946353018283843994140625" lon="2.84165921621024608612060546875">
        <ele>208.600006103515625</ele>
        <time>2020-08-08T06:22:58.000Z</time>
      </trkpt>
      <trkpt lat="42.3918690718710422515869140625" lon="2.84162535332143306732177734375">
        <ele>209</ele>
        <time>2020-08-08T06:23:03.000Z</time>
      </trkpt>
      <trkpt lat="42.39174594171345233917236328125" lon="2.84157254733145236968994140625">
        <ele>209.8000030517578125</ele>
        <time>2020-08-08T06:23:10.000Z</time>
      </trkpt>
      <trkpt lat="42.39166438579559326171875" lon="2.841517813503742218017578125">
        <ele>210</ele>
        <time>2020-08-08T06:23:15.000Z</time>
      </trkpt>
      <trkpt lat="42.39163479767739772796630859375" lon="2.84148839302361011505126953125">
        <ele>210</ele>
        <time>2020-08-08T06:23:17.000Z</time>
      </trkpt>
      <trkpt lat="42.3915599472820758819580078125" lon="2.84140256233513355255126953125">
        <ele>210.8000030517578125</ele>
        <time>2020-08-08T06:23:23.000Z</time>
      </trkpt>
      <trkpt lat="42.39153589121997356414794921875" lon="2.84137557260692119598388671875">
        <ele>211</ele>
        <time>2020-08-08T06:23:25.000Z</time>
      </trkpt>
      <trkpt lat="42.3914845101535320281982421875" lon="2.84130013547837734222412109375">
        <ele>211.600006103515625</ele>
        <time>2020-08-08T06:23:30.000Z</time>
      </trkpt>
      <trkpt lat="42.39146850071847438812255859375" lon="2.841267026960849761962890625">
        <ele>211.8000030517578125</ele>
        <time>2020-08-08T06:23:32.000Z</time>
      </trkpt>
      <trkpt lat="42.3914444446563720703125" lon="2.8412447310984134674072265625">
        <ele>212.399993896484375</ele>
        <time>2020-08-08T06:23:34.000Z</time>
      </trkpt>
      <trkpt lat="42.391417287290096282958984375" lon="2.84122578799724578857421875">
        <ele>212.600006103515625</ele>
        <time>2020-08-08T06:23:36.000Z</time>
      </trkpt>
      <trkpt lat="42.39134461618959903717041015625" lon="2.841142304241657257080078125">
        <ele>213.399993896484375</ele>
        <time>2020-08-08T06:23:42.000Z</time>
      </trkpt>
      <trkpt lat="42.391307316720485687255859375" lon="2.84110550768673419952392578125">
        <ele>213.600006103515625</ele>
        <time>2020-08-08T06:23:45.000Z</time>
      </trkpt>
      <trkpt lat="42.39124654792249202728271484375" lon="2.84104406833648681640625">
        <ele>214.8000030517578125</ele>
        <time>2020-08-08T06:23:50.000Z</time>
      </trkpt>
      <trkpt lat="42.39122190512716770172119140625" lon="2.84101565368473529815673828125">
        <ele>215</ele>
        <time>2020-08-08T06:23:52.000Z</time>
      </trkpt>
      <trkpt lat="42.39115677773952484130859375" lon="2.84095195122063159942626953125">
        <ele>215.8000030517578125</ele>
        <time>2020-08-08T06:23:57.000Z</time>
      </trkpt>
      <trkpt lat="42.39110891707241535186767578125" lon="2.84091574139893054962158203125">
        <ele>216</ele>
        <time>2020-08-08T06:24:00.000Z</time>
      </trkpt>
      <trkpt lat="42.39099307917058467864990234375" lon="2.84085421822965145111083984375">
        <ele>216.399993896484375</ele>
        <time>2020-08-08T06:24:07.000Z</time>
      </trkpt>
      <trkpt lat="42.390896938741207122802734375" lon="2.840790264308452606201171875">
        <ele>216.600006103515625</ele>
        <time>2020-08-08T06:24:13.000Z</time>
      </trkpt>
      <trkpt lat="42.39076727069914340972900390625" lon="2.84073385410010814666748046875">
        <ele>216.600006103515625</ele>
        <time>2020-08-08T06:24:19.000Z</time>
      </trkpt>
      <trkpt lat="42.39056694321334362030029296875" lon="2.84065288491547107696533203125">
        <ele>216.399993896484375</ele>
        <time>2020-08-08T06:24:27.000Z</time>
      </trkpt>
      <trkpt lat="42.39034700207412242889404296875" lon="2.84056060016155242919921875">
        <ele>216.1999969482421875</ele>
        <time>2020-08-08T06:24:35.000Z</time>
      </trkpt>
      <trkpt lat="42.39016628824174404144287109375" lon="2.84046596847474575042724609375">
        <ele>215.600006103515625</ele>
        <time>2020-08-08T06:24:40.000Z</time>
      </trkpt>
      <trkpt lat="42.39012991078197956085205078125" lon="2.8404320217669010162353515625">
        <ele>215.600006103515625</ele>
        <time>2020-08-08T06:24:41.000Z</time>
      </trkpt>
      <trkpt lat="42.39009470678865909576416015625" lon="2.84039162099361419677734375">
        <ele>215.399993896484375</ele>
        <time>2020-08-08T06:24:42.000Z</time>
      </trkpt>
      <trkpt lat="42.3899231292307376861572265625" lon="2.8401577658951282501220703125">
        <ele>214.8000030517578125</ele>
        <time>2020-08-08T06:24:47.000Z</time>
      </trkpt>
      <trkpt lat="42.38982296548783779144287109375" lon="2.84001904539763927459716796875">
        <ele>214.1999969482421875</ele>
        <time>2020-08-08T06:24:50.000Z</time>
      </trkpt>
      <trkpt lat="42.38963889889419078826904296875" lon="2.83976021222770214080810546875">
        <ele>214.399993896484375</ele>
        <time>2020-08-08T06:24:56.000Z</time>
      </trkpt>
      <trkpt lat="42.38948333077132701873779296875" lon="2.8394878841936588287353515625">
        <ele>214.399993896484375</ele>
        <time>2020-08-08T06:25:03.000Z</time>
      </trkpt>
      <trkpt lat="42.38935307599604129791259765625" lon="2.8392377682030200958251953125">
        <ele>214.600006103515625</ele>
        <time>2020-08-08T06:25:10.000Z</time>
      </trkpt>
      <trkpt lat="42.38925467245280742645263671875" lon="2.83910541795194149017333984375">
        <ele>215</ele>
        <time>2020-08-08T06:25:15.000Z</time>
      </trkpt>
      <trkpt lat="42.389110587537288665771484375" lon="2.83904573880136013031005859375">
        <ele>215.399993896484375</ele>
        <time>2020-08-08T06:25:22.000Z</time>
      </trkpt>
      <trkpt lat="42.389043867588043212890625" lon="2.8390191681683063507080078125">
        <ele>215.600006103515625</ele>
        <time>2020-08-08T06:25:25.000Z</time>
      </trkpt>
      <trkpt lat="42.388991899788379669189453125" lon="2.838990502059459686279296875">
        <ele>215.8000030517578125</ele>
        <time>2020-08-08T06:25:27.000Z</time>
      </trkpt>
      <trkpt lat="42.3888717032968997955322265625" lon="2.8389162383973598480224609375">
        <ele>216.600006103515625</ele>
        <time>2020-08-08T06:25:32.000Z</time>
      </trkpt>
      <trkpt lat="42.3888287879526615142822265625" lon="2.8388920985162258148193359375">
        <ele>216.8000030517578125</ele>
        <time>2020-08-08T06:25:34.000Z</time>
      </trkpt>
      <trkpt lat="42.38871320150792598724365234375" lon="2.83880299888551235198974609375">
        <ele>217.600006103515625</ele>
        <time>2020-08-08T06:25:40.000Z</time>
      </trkpt>
      <trkpt lat="42.3885588906705379486083984375" lon="2.83869646489620208740234375">
        <ele>218.399993896484375</ele>
        <time>2020-08-08T06:25:46.000Z</time>
      </trkpt>
      <trkpt lat="42.38838463090360164642333984375" lon="2.8386448323726654052734375">
        <ele>218</ele>
        <time>2020-08-08T06:25:52.000Z</time>
      </trkpt>
      <trkpt lat="42.38813485018908977508544921875" lon="2.83864256925880908966064453125">
        <ele>217.8000030517578125</ele>
        <time>2020-08-08T06:26:00.000Z</time>
      </trkpt>
      <trkpt lat="42.387985400855541229248046875" lon="2.83859227783977985382080078125">
        <ele>217.8000030517578125</ele>
        <time>2020-08-08T06:26:05.000Z</time>
      </trkpt>
      <trkpt lat="42.3879684694111347198486328125" lon="2.83856361173093318939208984375">
        <ele>218</ele>
        <time>2020-08-08T06:26:06.000Z</time>
      </trkpt>
      <trkpt lat="42.38794005475938320159912109375" lon="2.8384570777416229248046875">
        <ele>218.1999969482421875</ele>
        <time>2020-08-08T06:26:09.000Z</time>
      </trkpt>
      <trkpt lat="42.3879282362759113311767578125" lon="2.838336043059825897216796875">
        <ele>219.399993896484375</ele>
        <time>2020-08-08T06:26:14.000Z</time>
      </trkpt>
      <trkpt lat="42.38792127929627895355224609375" lon="2.83821525983512401580810546875">
        <ele>220.399993896484375</ele>
        <time>2020-08-08T06:26:19.000Z</time>
      </trkpt>
      <trkpt lat="42.3879245482385158538818359375" lon="2.83806522376835346221923828125">
        <ele>221.600006103515625</ele>
        <time>2020-08-08T06:26:25.000Z</time>
      </trkpt>
      <trkpt lat="42.38792764954268932342529296875" lon="2.83791334368288516998291015625">
        <ele>222.399993896484375</ele>
        <time>2020-08-08T06:26:31.000Z</time>
      </trkpt>
      <trkpt lat="42.38792077638208866119384765625" lon="2.83786037005484104156494140625">
        <ele>222.600006103515625</ele>
        <time>2020-08-08T06:26:33.000Z</time>
      </trkpt>
      <trkpt lat="42.3879134841263294219970703125" lon="2.83781468868255615234375">
        <ele>223</ele>
        <time>2020-08-08T06:26:35.000Z</time>
      </trkpt>
      <trkpt lat="42.387904264032840728759765625" lon="2.83777453936636447906494140625">
        <ele>223.8000030517578125</ele>
        <time>2020-08-08T06:26:37.000Z</time>
      </trkpt>
      <trkpt lat="42.3879027552902698516845703125" lon="2.837757356464862823486328125">
        <ele>224</ele>
        <time>2020-08-08T06:26:38.000Z</time>
      </trkpt>
      <trkpt lat="42.38788272254168987274169921875" lon="2.83767093904316425323486328125">
        <ele>224.8000030517578125</ele>
        <time>2020-08-08T06:26:42.000Z</time>
      </trkpt>
      <trkpt lat="42.38787450827658176422119140625" lon="2.83764948137104511260986328125">
        <ele>224.8000030517578125</ele>
        <time>2020-08-08T06:26:43.000Z</time>
      </trkpt>
      <trkpt lat="42.3878652043640613555908203125" lon="2.8376271016895771026611328125">
        <ele>225</ele>
        <time>2020-08-08T06:26:44.000Z</time>
      </trkpt>
      <trkpt lat="42.38782815635204315185546875" lon="2.83750246278941631317138671875">
        <ele>225.399993896484375</ele>
        <time>2020-08-08T06:26:49.000Z</time>
      </trkpt>
      <trkpt lat="42.3878041841089725494384765625" lon="2.83743708394467830657958984375">
        <ele>226</ele>
        <time>2020-08-08T06:26:52.000Z</time>
      </trkpt>
      <trkpt lat="42.38777996040880680084228515625" lon="2.83736768178641796112060546875">
        <ele>226.600006103515625</ele>
        <time>2020-08-08T06:26:55.000Z</time>
      </trkpt>
      <trkpt lat="42.38772849552333354949951171875" lon="2.83725150860846042633056640625">
        <ele>227.399993896484375</ele>
        <time>2020-08-08T06:27:00.000Z</time>
      </trkpt>
      <trkpt lat="42.38770737312734127044677734375" lon="2.83720574341714382171630859375">
        <ele>227.600006103515625</ele>
        <time>2020-08-08T06:27:02.000Z</time>
      </trkpt>
      <trkpt lat="42.38760343752801418304443359375" lon="2.8370060026645660400390625">
        <ele>228</ele>
        <time>2020-08-08T06:27:10.000Z</time>
      </trkpt>
      <trkpt lat="42.3875155113637447357177734375" lon="2.8368730656802654266357421875">
        <ele>228.600006103515625</ele>
        <time>2020-08-08T06:27:16.000Z</time>
      </trkpt>
      <trkpt lat="42.3874739371240139007568359375" lon="2.8368043340742588043212890625">
        <ele>229</ele>
        <time>2020-08-08T06:27:19.000Z</time>
      </trkpt>
      <trkpt lat="42.38736187107861042022705078125" lon="2.83664650283753871917724609375">
        <ele>229.8000030517578125</ele>
        <time>2020-08-08T06:27:27.000Z</time>
      </trkpt>
      <trkpt lat="42.38734946586191654205322265625" lon="2.83662579953670501708984375">
        <ele>229.8000030517578125</ele>
        <time>2020-08-08T06:27:28.000Z</time>
      </trkpt>
      <trkpt lat="42.3872637189924716949462890625" lon="2.83647559583187103271484375">
        <ele>230.600006103515625</ele>
        <time>2020-08-08T06:27:35.000Z</time>
      </trkpt>
      <trkpt lat="42.38723941147327423095703125" lon="2.8364093787968158721923828125">
        <ele>231</ele>
        <time>2020-08-08T06:27:38.000Z</time>
      </trkpt>
      <trkpt lat="42.38722122274339199066162109375" lon="2.836349867284297943115234375">
        <ele>231.8000030517578125</ele>
        <time>2020-08-08T06:27:41.000Z</time>
      </trkpt>
      <trkpt lat="42.3872110806405544281005859375" lon="2.83628038130700588226318359375">
        <ele>232</ele>
        <time>2020-08-08T06:27:44.000Z</time>
      </trkpt>
      <trkpt lat="42.38720588386058807373046875" lon="2.83620863221585750579833984375">
        <ele>232.600006103515625</ele>
        <time>2020-08-08T06:27:47.000Z</time>
      </trkpt>
      <trkpt lat="42.38721250556409358978271484375" lon="2.83607720397412776947021484375">
        <ele>233.399993896484375</ele>
        <time>2020-08-08T06:27:53.000Z</time>
      </trkpt>
      <trkpt lat="42.3872023634612560272216796875" lon="2.83593320287764072418212890625">
        <ele>234</ele>
        <time>2020-08-08T06:27:59.000Z</time>
      </trkpt>
      <trkpt lat="42.38718903623521327972412109375" lon="2.8358848392963409423828125">
        <ele>234.399993896484375</ele>
        <time>2020-08-08T06:28:01.000Z</time>
      </trkpt>
      <trkpt lat="42.38714754581451416015625" lon="2.8357904590666294097900390625">
        <ele>235</ele>
        <time>2020-08-08T06:28:05.000Z</time>
      </trkpt>
      <trkpt lat="42.3870944045484066009521484375" lon="2.83567923121154308319091796875">
        <ele>235.600006103515625</ele>
        <time>2020-08-08T06:28:10.000Z</time>
      </trkpt>
      <trkpt lat="42.38707571290433406829833984375" lon="2.83564318902790546417236328125">
        <ele>236</ele>
        <time>2020-08-08T06:28:12.000Z</time>
      </trkpt>
      <trkpt lat="42.3870581947267055511474609375" lon="2.83561100251972675323486328125">
        <ele>237</ele>
        <time>2020-08-08T06:28:14.000Z</time>
      </trkpt>
      <trkpt lat="42.38701603375375270843505859375" lon="2.835577391088008880615234375">
        <ele>238</ele>
        <time>2020-08-08T06:28:17.000Z</time>
      </trkpt>
      <trkpt lat="42.38700429908931255340576171875" lon="2.83557194285094738006591796875">
        <ele>238.1999969482421875</ele>
        <time>2020-08-08T06:28:18.000Z</time>
      </trkpt>
      <trkpt lat="42.38694570958614349365234375" lon="2.835559286177158355712890625">
        <ele>239.399993896484375</ele>
        <time>2020-08-08T06:28:23.000Z</time>
      </trkpt>
      <trkpt lat="42.386931963264942169189453125" lon="2.83556037582457065582275390625">
        <ele>239.600006103515625</ele>
        <time>2020-08-08T06:28:24.000Z</time>
      </trkpt>
      <trkpt lat="42.38683448173105716705322265625" lon="2.83557194285094738006591796875">
        <ele>240.600006103515625</ele>
        <time>2020-08-08T06:28:31.000Z</time>
      </trkpt>
      <trkpt lat="42.386789135634899139404296875" lon="2.83556473441421985626220703125">
        <ele>241</ele>
        <time>2020-08-08T06:28:34.000Z</time>
      </trkpt>
      <trkpt lat="42.38676072098314762115478515625" lon="2.83555266447365283966064453125">
        <ele>241.399993896484375</ele>
        <time>2020-08-08T06:28:36.000Z</time>
      </trkpt>
      <trkpt lat="42.38674898631870746612548828125" lon="2.83554947935044765472412109375">
        <ele>241.600006103515625</ele>
        <time>2020-08-08T06:28:37.000Z</time>
      </trkpt>
      <trkpt lat="42.3866907320916652679443359375" lon="2.835528440773487091064453125">
        <ele>242.399993896484375</ele>
        <time>2020-08-08T06:28:41.000Z</time>
      </trkpt>
      <trkpt lat="42.3866749741137027740478515625" lon="2.83552148379385471343994140625">
        <ele>242.600006103515625</ele>
        <time>2020-08-08T06:28:42.000Z</time>
      </trkpt>
      <trkpt lat="42.3866059072315692901611328125" lon="2.83549265004694461822509765625">
        <ele>243.399993896484375</ele>
        <time>2020-08-08T06:28:47.000Z</time>
      </trkpt>
      <trkpt lat="42.386562824249267578125" lon="2.83548627980053424835205078125">
        <ele>243.600006103515625</ele>
        <time>2020-08-08T06:28:50.000Z</time>
      </trkpt>
      <trkpt lat="42.38651764579117298126220703125" lon="2.83546398393809795379638671875">
        <ele>244.399993896484375</ele>
        <time>2020-08-08T06:28:53.000Z</time>
      </trkpt>
      <trkpt lat="42.38648478873074054718017578125" lon="2.83544638194143772125244140625">
        <ele>244.8000030517578125</ele>
        <time>2020-08-08T06:28:55.000Z</time>
      </trkpt>
      <trkpt lat="42.386433072388172149658203125" lon="2.83542425371706485748291015625">
        <ele>245.1999969482421875</ele>
        <time>2020-08-08T06:28:59.000Z</time>
      </trkpt>
      <trkpt lat="42.3863386921584606170654296875" lon="2.83539022319018840789794921875">
        <ele>245.8000030517578125</ele>
        <time>2020-08-08T06:29:05.000Z</time>
      </trkpt>
      <trkpt lat="42.38629334606230258941650390625" lon="2.83537044189870357513427734375">
        <ele>246</ele>
        <time>2020-08-08T06:29:07.000Z</time>
      </trkpt>
      <trkpt lat="42.386221848428249359130859375" lon="2.83531076274812221527099609375">
        <ele>246.600006103515625</ele>
        <time>2020-08-08T06:29:11.000Z</time>
      </trkpt>
      <trkpt lat="42.38615269772708415985107421875" lon="2.83521420322358608245849609375">
        <ele>247.1999969482421875</ele>
        <time>2020-08-08T06:29:16.000Z</time>
      </trkpt>
      <trkpt lat="42.38614238798618316650390625" lon="2.8351970203220844268798828125">
        <ele>247.399993896484375</ele>
        <time>2020-08-08T06:29:17.000Z</time>
      </trkpt>
      <trkpt lat="42.386071644723415374755859375" lon="2.83508277498185634613037109375">
        <ele>248.1999969482421875</ele>
        <time>2020-08-08T06:29:23.000Z</time>
      </trkpt>
      <trkpt lat="42.38605655729770660400390625" lon="2.8350380994379520416259765625">
        <ele>248.399993896484375</ele>
        <time>2020-08-08T06:29:25.000Z</time>
      </trkpt>
      <trkpt lat="42.386026047170162200927734375" lon="2.83493198454380035400390625">
        <ele>248.600006103515625</ele>
        <time>2020-08-08T06:29:30.000Z</time>
      </trkpt>
      <trkpt lat="42.38599712960422039031982421875" lon="2.8348557092249393463134765625">
        <ele>249</ele>
        <time>2020-08-08T06:29:34.000Z</time>
      </trkpt>
      <trkpt lat="42.38598422147333621978759765625" lon="2.8348493389785289764404296875">
        <ele>249.1999969482421875</ele>
        <time>2020-08-08T06:29:35.000Z</time>
      </trkpt>
      <trkpt lat="42.38594080321490764617919921875" lon="2.8348909132182598114013671875">
        <ele>249.600006103515625</ele>
        <time>2020-08-08T06:29:39.000Z</time>
      </trkpt>
      <trkpt lat="42.3859377019107341766357421875" lon="2.83491010777652263641357421875">
        <ele>249.8000030517578125</ele>
        <time>2020-08-08T06:29:40.000Z</time>
      </trkpt>
      <trkpt lat="42.38592772744596004486083984375" lon="2.8350052423775196075439453125">
        <ele>250.600006103515625</ele>
        <time>2020-08-08T06:29:45.000Z</time>
      </trkpt>
      <trkpt lat="42.38592504523694515228271484375" lon="2.83502527512609958648681640625">
        <ele>250.8000030517578125</ele>
        <time>2020-08-08T06:29:46.000Z</time>
      </trkpt>
      <trkpt lat="42.3859145678579807281494140625" lon="2.835061065852642059326171875">
        <ele>251</ele>
        <time>2020-08-08T06:29:48.000Z</time>
      </trkpt>
      <trkpt lat="42.38589352928102016448974609375" lon="2.83509383909404277801513671875">
        <ele>251.399993896484375</ele>
        <time>2020-08-08T06:29:50.000Z</time>
      </trkpt>
      <trkpt lat="42.3858639411628246307373046875" lon="2.83510171808302402496337890625">
        <ele>251.600006103515625</ele>
        <time>2020-08-08T06:29:52.000Z</time>
      </trkpt>
      <trkpt lat="42.38583267666399478912353515625" lon="2.8350364230573177337646484375">
        <ele>252.600006103515625</ele>
        <time>2020-08-08T06:29:57.000Z</time>
      </trkpt>
      <trkpt lat="42.38583535887300968170166015625" lon="2.834960483014583587646484375">
        <ele>252.8000030517578125</ele>
        <time>2020-08-08T06:30:01.000Z</time>
      </trkpt>
      <trkpt lat="42.3858426511287689208984375" lon="2.83490591682493686676025390625">
        <ele>253.1999969482421875</ele>
        <time>2020-08-08T06:30:04.000Z</time>
      </trkpt>
      <trkpt lat="42.38585212267935276031494140625" lon="2.8348342515528202056884765625">
        <ele>254</ele>
        <time>2020-08-08T06:30:08.000Z</time>
      </trkpt>
      <trkpt lat="42.38585681654512882232666015625" lon="2.83477641642093658447265625">
        <ele>254.399993896484375</ele>
        <time>2020-08-08T06:30:11.000Z</time>
      </trkpt>
      <trkpt lat="42.3858418129384517669677734375" lon="2.83467306755483150482177734375">
        <ele>255</ele>
        <time>2020-08-08T06:30:17.000Z</time>
      </trkpt>
      <trkpt lat="42.38583703525364398956298828125" lon="2.83463853411376476287841796875">
        <ele>255.399993896484375</ele>
        <time>2020-08-08T06:30:19.000Z</time>
      </trkpt>
      <trkpt lat="42.38582898862659931182861328125" lon="2.8345542959868907928466796875">
        <ele>256</ele>
        <time>2020-08-08T06:30:25.000Z</time>
      </trkpt>
      <trkpt lat="42.38582747988402843475341796875" lon="2.83455555327236652374267578125">
        <ele>256.20001220703125</ele>
        <time>2020-08-08T06:30:26.000Z</time>
      </trkpt>
      <trkpt lat="42.385816164314746856689453125" lon="2.83454951830208301544189453125">
        <ele>256.399993896484375</ele>
        <time>2020-08-08T06:30:31.000Z</time>
      </trkpt>
      <trkpt lat="42.38580585457384586334228515625" lon="2.8345164097845554351806640625">
        <ele>256.20001220703125</ele>
        <time>2020-08-08T06:30:33.000Z</time>
      </trkpt>
      <trkpt lat="42.385796718299388885498046875" lon="2.83447793684899806976318359375">
        <ele>256.20001220703125</ele>
        <time>2020-08-08T06:30:35.000Z</time>
      </trkpt>
      <trkpt lat="42.3857724107801914215087890625" lon="2.83437785692512989044189453125">
        <ele>256.399993896484375</ele>
        <time>2020-08-08T06:30:40.000Z</time>
      </trkpt>
      <trkpt lat="42.38575254566967487335205078125" lon="2.83428096212446689605712890625">
        <ele>256.600006103515625</ele>
        <time>2020-08-08T06:30:45.000Z</time>
      </trkpt>
      <trkpt lat="42.38575422205030918121337890625" lon="2.8342652879655361175537109375">
        <ele>256.600006103515625</ele>
        <time>2020-08-08T06:30:46.000Z</time>
      </trkpt>
      <trkpt lat="42.3857442475855350494384765625" lon="2.83418708480894565582275390625">
        <ele>257.20001220703125</ele>
        <time>2020-08-08T06:30:50.000Z</time>
      </trkpt>
      <trkpt lat="42.38574181683361530303955078125" lon="2.834167890250682830810546875">
        <ele>257.399993896484375</ele>
        <time>2020-08-08T06:30:51.000Z</time>
      </trkpt>
      <trkpt lat="42.38573796115815639495849609375" lon="2.83412958495318889617919921875">
        <ele>257.79998779296875</ele>
        <time>2020-08-08T06:30:53.000Z</time>
      </trkpt>
      <trkpt lat="42.38571767695248126983642578125" lon="2.8340423293411731719970703125">
        <ele>258</ele>
        <time>2020-08-08T06:30:57.000Z</time>
      </trkpt>
      <trkpt lat="42.38570041023194789886474609375" lon="2.83394887112081050872802734375">
        <ele>258.399993896484375</ele>
        <time>2020-08-08T06:31:01.000Z</time>
      </trkpt>
      <trkpt lat="42.38569253124296665191650390625" lon="2.8338767029345035552978515625">
        <ele>258.79998779296875</ele>
        <time>2020-08-08T06:31:04.000Z</time>
      </trkpt>
      <trkpt lat="42.38568834029138088226318359375" lon="2.83381878398358821868896484375">
        <ele>259.399993896484375</ele>
        <time>2020-08-08T06:31:07.000Z</time>
      </trkpt>
      <trkpt lat="42.38568046130239963531494140625" lon="2.83376044593751430511474609375">
        <ele>260.600006103515625</ele>
        <time>2020-08-08T06:31:10.000Z</time>
      </trkpt>
      <trkpt lat="42.3856792040169239044189453125" lon="2.833742760121822357177734375">
        <ele>261</ele>
        <time>2020-08-08T06:31:11.000Z</time>
      </trkpt>
      <trkpt lat="42.3856617696583271026611328125" lon="2.83363874070346355438232421875">
        <ele>262</ele>
        <time>2020-08-08T06:31:17.000Z</time>
      </trkpt>
      <trkpt lat="42.38565732724964618682861328125" lon="2.83361971378326416015625">
        <ele>262.20001220703125</ele>
        <time>2020-08-08T06:31:18.000Z</time>
      </trkpt>
      <trkpt lat="42.38564291037619113922119140625" lon="2.8335199691355228424072265625">
        <ele>263.399993896484375</ele>
        <time>2020-08-08T06:31:23.000Z</time>
      </trkpt>
      <trkpt lat="42.38563871942460536956787109375" lon="2.8334951587021350860595703125">
        <ele>263.600006103515625</ele>
        <time>2020-08-08T06:31:24.000Z</time>
      </trkpt>
      <trkpt lat="42.38563268445432186126708984375" lon="2.8334574401378631591796875">
        <ele>264</ele>
        <time>2020-08-08T06:31:26.000Z</time>
      </trkpt>
      <trkpt lat="42.385625056922435760498046875" lon="2.83341251313686370849609375">
        <ele>264.399993896484375</ele>
        <time>2020-08-08T06:31:28.000Z</time>
      </trkpt>
      <trkpt lat="42.385618686676025390625" lon="2.83338862471282482147216796875">
        <ele>264.600006103515625</ele>
        <time>2020-08-08T06:31:29.000Z</time>
      </trkpt>
      <trkpt lat="42.38559194840490818023681640625" lon="2.83327178098261356353759765625">
        <ele>265.79998779296875</ele>
        <time>2020-08-08T06:31:34.000Z</time>
      </trkpt>
      <trkpt lat="42.3855846561491489410400390625" lon="2.83325292170047760009765625">
        <ele>265.79998779296875</ele>
        <time>2020-08-08T06:31:35.000Z</time>
      </trkpt>
      <trkpt lat="42.385578118264675140380859375" lon="2.83323054201900959014892578125">
        <ele>266</ele>
        <time>2020-08-08T06:31:36.000Z</time>
      </trkpt>
      <trkpt lat="42.38552740775048732757568359375" lon="2.83314303494989871978759765625">
        <ele>266.600006103515625</ele>
        <time>2020-08-08T06:31:41.000Z</time>
      </trkpt>
      <trkpt lat="42.38550041802227497100830078125" lon="2.833091653883457183837890625">
        <ele>267</ele>
        <time>2020-08-08T06:31:44.000Z</time>
      </trkpt>
      <trkpt lat="42.3854787088930606842041015625" lon="2.8330770693719387054443359375">
        <ele>267.20001220703125</ele>
        <time>2020-08-08T06:31:46.000Z</time>
      </trkpt>
      <trkpt lat="42.38538424484431743621826171875" lon="2.83298679627478122711181640625">
        <ele>268</ele>
        <time>2020-08-08T06:31:53.000Z</time>
      </trkpt>
      <trkpt lat="42.38531651906669139862060546875" lon="2.8328955173492431640625">
        <ele>269</ele>
        <time>2020-08-08T06:31:59.000Z</time>
      </trkpt>
      <trkpt lat="42.38530931062996387481689453125" lon="2.8328822739422321319580078125">
        <ele>269.399993896484375</ele>
        <time>2020-08-08T06:32:00.000Z</time>
      </trkpt>
      <trkpt lat="42.3852862603962421417236328125" lon="2.83279384486377239227294921875">
        <ele>270.20001220703125</ele>
        <time>2020-08-08T06:32:05.000Z</time>
      </trkpt>
      <trkpt lat="42.38528265617787837982177734375" lon="2.832777500152587890625">
        <ele>270.600006103515625</ele>
        <time>2020-08-08T06:32:06.000Z</time>
      </trkpt>
      <trkpt lat="42.38527008332312107086181640625" lon="2.832708097994327545166015625">
        <ele>271.399993896484375</ele>
        <time>2020-08-08T06:32:10.000Z</time>
      </trkpt>
      <trkpt lat="42.38527108915150165557861328125" lon="2.83262218348681926727294921875">
        <ele>271.600006103515625</ele>
        <time>2020-08-08T06:32:15.000Z</time>
      </trkpt>
      <trkpt lat="42.38527360372245311737060546875" lon="2.832605503499507904052734375">
        <ele>271.79998779296875</ele>
        <time>2020-08-08T06:32:16.000Z</time>
      </trkpt>
      <trkpt lat="42.38528408110141754150390625" lon="2.832520008087158203125">
        <ele>272.399993896484375</ele>
        <time>2020-08-08T06:32:21.000Z</time>
      </trkpt>
      <trkpt lat="42.38528902642428874969482421875" lon="2.83250617794692516326904296875">
        <ele>272.600006103515625</ele>
        <time>2020-08-08T06:32:22.000Z</time>
      </trkpt>
      <trkpt lat="42.385293133556842803955078125" lon="2.8324873186647891998291015625">
        <ele>272.79998779296875</ele>
        <time>2020-08-08T06:32:23.000Z</time>
      </trkpt>
      <trkpt lat="42.38530226983129978179931640625" lon="2.83238111995160579681396484375">
        <ele>274</ele>
        <time>2020-08-08T06:32:28.000Z</time>
      </trkpt>
      <trkpt lat="42.3852899484336376190185546875" lon="2.83233686350286006927490234375">
        <ele>275</ele>
        <time>2020-08-08T06:32:30.000Z</time>
      </trkpt>
      <trkpt lat="42.385271005332469940185546875" lon="2.83225036226212978363037109375">
        <ele>276.20001220703125</ele>
        <time>2020-08-08T06:32:35.000Z</time>
      </trkpt>
      <trkpt lat="42.3852631263434886932373046875" lon="2.83222337253391742706298828125">
        <ele>276.600006103515625</ele>
        <time>2020-08-08T06:32:37.000Z</time>
      </trkpt>
      <trkpt lat="42.38524946384131908416748046875" lon="2.832199819386005401611328125">
        <ele>277.20001220703125</ele>
        <time>2020-08-08T06:32:39.000Z</time>
      </trkpt>
      <trkpt lat="42.3852413333952426910400390625" lon="2.8321875818073749542236328125">
        <ele>277.399993896484375</ele>
        <time>2020-08-08T06:32:40.000Z</time>
      </trkpt>
      <trkpt lat="42.3852135054767131805419921875" lon="2.8321553952991962432861328125">
        <ele>278.20001220703125</ele>
        <time>2020-08-08T06:32:43.000Z</time>
      </trkpt>
      <trkpt lat="42.38519934006035327911376953125" lon="2.832150869071483612060546875">
        <ele>278.20001220703125</ele>
        <time>2020-08-08T06:32:44.000Z</time>
      </trkpt>
      <trkpt lat="42.3851694166660308837890625" lon="2.83214709721505641937255859375">
        <ele>278.600006103515625</ele>
        <time>2020-08-08T06:32:46.000Z</time>
      </trkpt>
      <trkpt lat="42.38511183299124240875244140625" lon="2.8321272321045398712158203125">
        <ele>279.20001220703125</ele>
        <time>2020-08-08T06:32:50.000Z</time>
      </trkpt>
      <trkpt lat="42.3850535787642002105712890625" lon="2.8320967219769954681396484375">
        <ele>279.20001220703125</ele>
        <time>2020-08-08T06:32:54.000Z</time>
      </trkpt>
      <trkpt lat="42.38502717576920986175537109375" lon="2.83208959735929965972900390625">
        <ele>279.79998779296875</ele>
        <time>2020-08-08T06:32:56.000Z</time>
      </trkpt>
      <trkpt lat="42.38499934785068035125732421875" lon="2.83207811415195465087890625">
        <ele>280</ele>
        <time>2020-08-08T06:32:58.000Z</time>
      </trkpt>
      <trkpt lat="42.3849516548216342926025390625" lon="2.83205305226147174835205078125">
        <ele>280.79998779296875</ele>
        <time>2020-08-08T06:33:02.000Z</time>
      </trkpt>
      <trkpt lat="42.38489273004233837127685546875" lon="2.83202639780938625335693359375">
        <ele>280.600006103515625</ele>
        <time>2020-08-08T06:33:07.000Z</time>
      </trkpt>
      <trkpt lat="42.38481528125703334808349609375" lon="2.83199706114828586578369140625">
        <ele>281</ele>
        <time>2020-08-08T06:33:13.000Z</time>
      </trkpt>
      <trkpt lat="42.3847548477351665496826171875" lon="2.831967137753963470458984375">
        <ele>281.399993896484375</ele>
        <time>2020-08-08T06:33:18.000Z</time>
      </trkpt>
      <trkpt lat="42.384650744497776031494140625" lon="2.8319294191896915435791015625">
        <ele>281</ele>
        <time>2020-08-08T06:33:25.000Z</time>
      </trkpt>
      <trkpt lat="42.38455192185938358306884765625" lon="2.83192380331456661224365234375">
        <ele>281.79998779296875</ele>
        <time>2020-08-08T06:33:31.000Z</time>
      </trkpt>
      <trkpt lat="42.38450313918292522430419921875" lon="2.831942997872829437255859375">
        <ele>282</ele>
        <time>2020-08-08T06:33:34.000Z</time>
      </trkpt>
      <trkpt lat="42.3844225890934467315673828125" lon="2.831989936530590057373046875">
        <ele>282.79998779296875</ele>
        <time>2020-08-08T06:33:39.000Z</time>
      </trkpt>
      <trkpt lat="42.38430649973452091217041015625" lon="2.83206361345946788787841796875">
        <ele>282.79998779296875</ele>
        <time>2020-08-08T06:33:46.000Z</time>
      </trkpt>
      <trkpt lat="42.38422863185405731201171875" lon="2.8321222029626369476318359375">
        <ele>282.600006103515625</ele>
        <time>2020-08-08T06:33:51.000Z</time>
      </trkpt>
      <trkpt lat="42.38418613560497760772705078125" lon="2.83216268755495548248291015625">
        <ele>283.20001220703125</ele>
        <time>2020-08-08T06:33:54.000Z</time>
      </trkpt>
      <trkpt lat="42.38413852639496326446533203125" lon="2.83219152130186557769775390625">
        <ele>283.600006103515625</ele>
        <time>2020-08-08T06:33:57.000Z</time>
      </trkpt>
      <trkpt lat="42.38404649309813976287841796875" lon="2.83223770558834075927734375">
        <ele>284.20001220703125</ele>
        <time>2020-08-08T06:34:04.000Z</time>
      </trkpt>
      <trkpt lat="42.38395194523036479949951171875" lon="2.8323123045265674591064453125">
        <ele>285.399993896484375</ele>
        <time>2020-08-08T06:34:11.000Z</time>
      </trkpt>
      <trkpt lat="42.3838693834841251373291015625" lon="2.832380197942256927490234375">
        <ele>285.600006103515625</ele>
        <time>2020-08-08T06:34:17.000Z</time>
      </trkpt>
      <trkpt lat="42.38377961330115795135498046875" lon="2.83244566060602664947509765625">
        <ele>286.20001220703125</ele>
        <time>2020-08-08T06:34:23.000Z</time>
      </trkpt>
      <trkpt lat="42.38375027664005756378173828125" lon="2.8324651904404163360595703125">
        <ele>286.600006103515625</ele>
        <time>2020-08-08T06:34:25.000Z</time>
      </trkpt>
      <trkpt lat="42.3836993984878063201904296875" lon="2.8324863128364086151123046875">
        <ele>286.79998779296875</ele>
        <time>2020-08-08T06:34:29.000Z</time>
      </trkpt>
      <trkpt lat="42.3836085386574268341064453125" lon="2.832546494901180267333984375">
        <ele>287.399993896484375</ele>
        <time>2020-08-08T06:34:35.000Z</time>
      </trkpt>
      <trkpt lat="42.3835917748510837554931640625" lon="2.8325506858527660369873046875">
        <ele>287.600006103515625</ele>
        <time>2020-08-08T06:34:36.000Z</time>
      </trkpt>
      <trkpt lat="42.38357576541602611541748046875" lon="2.8325557149946689605712890625">
        <ele>287.79998779296875</ele>
        <time>2020-08-08T06:34:37.000Z</time>
      </trkpt>
      <trkpt lat="42.3835357837378978729248046875" lon="2.8325634263455867767333984375">
        <ele>288.399993896484375</ele>
        <time>2020-08-08T06:34:40.000Z</time>
      </trkpt>
      <trkpt lat="42.3834818042814731597900390625" lon="2.8325600735843181610107421875">
        <ele>288.399993896484375</ele>
        <time>2020-08-08T06:34:45.000Z</time>
      </trkpt>
      <trkpt lat="42.38347836770117282867431640625" lon="2.832560241222381591796875">
        <ele>288.79998779296875</ele>
        <time>2020-08-08T06:34:49.000Z</time>
      </trkpt>
      <trkpt lat="42.3834771104156970977783203125" lon="2.83255420625209808349609375">
        <ele>288.600006103515625</ele>
        <time>2020-08-08T06:34:58.000Z</time>
      </trkpt>
      <trkpt lat="42.3834449239075183868408203125" lon="2.8325818665325641632080078125">
        <ele>288.79998779296875</ele>
        <time>2020-08-08T06:35:06.000Z</time>
      </trkpt>
      <trkpt lat="42.38337761722505092620849609375" lon="2.83262436278164386749267578125">
        <ele>289.20001220703125</ele>
        <time>2020-08-08T06:35:12.000Z</time>
      </trkpt>
      <trkpt lat="42.3832561634480953216552734375" lon="2.8326505981385707855224609375">
        <ele>289.600006103515625</ele>
        <time>2020-08-08T06:35:20.000Z</time>
      </trkpt>
      <trkpt lat="42.38318298943340778350830078125" lon="2.8326375223696231842041015625">
        <ele>289.399993896484375</ele>
        <time>2020-08-08T06:35:25.000Z</time>
      </trkpt>
      <trkpt lat="42.38315683789551258087158203125" lon="2.8326170705258846282958984375">
        <ele>289.399993896484375</ele>
        <time>2020-08-08T06:35:27.000Z</time>
      </trkpt>
      <trkpt lat="42.3831012658774852752685546875" lon="2.83255663700401782989501953125">
        <ele>289.399993896484375</ele>
        <time>2020-08-08T06:35:31.000Z</time>
      </trkpt>
      <trkpt lat="42.38308777101337909698486328125" lon="2.8325419686734676361083984375">
        <ele>289.399993896484375</ele>
        <time>2020-08-08T06:35:32.000Z</time>
      </trkpt>
      <trkpt lat="42.3830529861152172088623046875" lon="2.8325231932103633880615234375">
        <ele>289.600006103515625</ele>
        <time>2020-08-08T06:35:34.000Z</time>
      </trkpt>
      <trkpt lat="42.38300018012523651123046875" lon="2.83249343745410442352294921875">
        <ele>289.79998779296875</ele>
        <time>2020-08-08T06:35:37.000Z</time>
      </trkpt>
      <trkpt lat="42.38286213018000125885009765625" lon="2.83241213299334049224853515625">
        <ele>290.399993896484375</ele>
        <time>2020-08-08T06:35:45.000Z</time>
      </trkpt>
      <trkpt lat="42.3827017843723297119140625" lon="2.83232831396162509918212890625">
        <ele>290.20001220703125</ele>
        <time>2020-08-08T06:35:53.000Z</time>
      </trkpt>
      <trkpt lat="42.3825963400304317474365234375" lon="2.8322710655629634857177734375">
        <ele>290.600006103515625</ele>
        <time>2020-08-08T06:35:58.000Z</time>
      </trkpt>
      <trkpt lat="42.3825381696224212646484375" lon="2.83223879523575305938720703125">
        <ele>290.600006103515625</ele>
        <time>2020-08-08T06:36:01.000Z</time>
      </trkpt>
      <trkpt lat="42.38239274360239505767822265625" lon="2.8321610949933528900146484375">
        <ele>291</ele>
        <time>2020-08-08T06:36:09.000Z</time>
      </trkpt>
      <trkpt lat="42.38217632286250591278076171875" lon="2.83208004198968410491943359375">
        <ele>291.20001220703125</ele>
        <time>2020-08-08T06:36:18.000Z</time>
      </trkpt>
      <trkpt lat="42.38212703727185726165771484375" lon="2.83205791376531124114990234375">
        <ele>291.399993896484375</ele>
        <time>2020-08-08T06:36:20.000Z</time>
      </trkpt>
      <trkpt lat="42.38201773725450038909912109375" lon="2.8320122323930263519287109375">
        <ele>291</ele>
        <time>2020-08-08T06:36:24.000Z</time>
      </trkpt>
      <trkpt lat="42.38183685578405857086181640625" lon="2.83199236728250980377197265625">
        <ele>291</ele>
        <time>2020-08-08T06:36:31.000Z</time>
      </trkpt>
      <trkpt lat="42.38172654993832111358642578125" lon="2.832030840218067169189453125">
        <ele>290.399993896484375</ele>
        <time>2020-08-08T06:36:36.000Z</time>
      </trkpt>
      <trkpt lat="42.3816659487783908843994140625" lon="2.83205003477632999420166015625">
        <ele>288.79998779296875</ele>
        <time>2020-08-08T06:36:39.000Z</time>
      </trkpt>
      <trkpt lat="42.3816123045980930328369140625" lon="2.83207400701940059661865234375">
        <ele>287.79998779296875</ele>
        <time>2020-08-08T06:36:41.000Z</time>
      </trkpt>
      <trkpt lat="42.3814711533486843109130859375" lon="2.83216268755495548248291015625">
        <ele>286.20001220703125</ele>
        <time>2020-08-08T06:36:46.000Z</time>
      </trkpt>
      <trkpt lat="42.3814131505787372589111328125" lon="2.83225648105144500732421875">
        <ele>285.20001220703125</ele>
        <time>2020-08-08T06:36:49.000Z</time>
      </trkpt>
      <trkpt lat="42.381381131708621978759765625" lon="2.8323133103549480438232421875">
        <ele>284.399993896484375</ele>
        <time>2020-08-08T06:36:51.000Z</time>
      </trkpt>
      <trkpt lat="42.38133243285119533538818359375" lon="2.83237894065678119659423828125">
        <ele>283.79998779296875</ele>
        <time>2020-08-08T06:36:54.000Z</time>
      </trkpt>
      <trkpt lat="42.38130996935069561004638671875" lon="2.83239352516829967498779296875">
        <ele>283.399993896484375</ele>
        <time>2020-08-08T06:36:55.000Z</time>
      </trkpt>
      <trkpt lat="42.38128515891730785369873046875" lon="2.83240341581404209136962890625">
        <ele>283.20001220703125</ele>
        <time>2020-08-08T06:36:56.000Z</time>
      </trkpt>
      <trkpt lat="42.38123528659343719482421875" lon="2.832404673099517822265625">
        <ele>282.399993896484375</ele>
        <time>2020-08-08T06:36:58.000Z</time>
      </trkpt>
      <trkpt lat="42.38118809647858142852783203125" lon="2.83238262869417667388916015625">
        <ele>281.79998779296875</ele>
        <time>2020-08-08T06:37:00.000Z</time>
      </trkpt>
      <trkpt lat="42.38116663880646228790283203125" lon="2.83236921764910221099853515625">
        <ele>281.399993896484375</ele>
        <time>2020-08-08T06:37:01.000Z</time>
      </trkpt>
      <trkpt lat="42.3811338655650615692138671875" lon="2.832329235970973968505859375">
        <ele>280.600006103515625</ele>
        <time>2020-08-08T06:37:03.000Z</time>
      </trkpt>
      <trkpt lat="42.38109983503818511962890625" lon="2.83227986656129360198974609375">
        <ele>280.399993896484375</ele>
        <time>2020-08-08T06:37:05.000Z</time>
      </trkpt>
      <trkpt lat="42.38102733157575130462646484375" lon="2.8322013281285762786865234375">
        <ele>279.399993896484375</ele>
        <time>2020-08-08T06:37:08.000Z</time>
      </trkpt>
      <trkpt lat="42.380994223058223724365234375" lon="2.83217978663742542266845703125">
        <ele>279</ele>
        <time>2020-08-08T06:37:09.000Z</time>
      </trkpt>
      <trkpt lat="42.3808364756405353546142578125" lon="2.8321325965225696563720703125">
        <ele>278.20001220703125</ele>
        <time>2020-08-08T06:37:14.000Z</time>
      </trkpt>
      <trkpt lat="42.38080839626491069793701171875" lon="2.8321305848658084869384765625">
        <ele>278</ele>
        <time>2020-08-08T06:37:15.000Z</time>
      </trkpt>
      <trkpt lat="42.38073061220347881317138671875" lon="2.832162268459796905517578125">
        <ele>277.79998779296875</ele>
        <time>2020-08-08T06:37:18.000Z</time>
      </trkpt>
      <trkpt lat="42.380712591111660003662109375" lon="2.83218917436897754669189453125">
        <ele>277.600006103515625</ele>
        <time>2020-08-08T06:37:19.000Z</time>
      </trkpt>
      <trkpt lat="42.38068635575473308563232421875" lon="2.8323548845946788787841796875">
        <ele>277.20001220703125</ele>
        <time>2020-08-08T06:37:23.000Z</time>
      </trkpt>
      <trkpt lat="42.38069306127727031707763671875" lon="2.832411043345928192138671875">
        <ele>276.79998779296875</ele>
        <time>2020-08-08T06:37:24.000Z</time>
      </trkpt>
      <trkpt lat="42.3807037062942981719970703125" lon="2.83246971666812896728515625">
        <ele>276.399993896484375</ele>
        <time>2020-08-08T06:37:25.000Z</time>
      </trkpt>
      <trkpt lat="42.3807228170335292816162109375" lon="2.83263023011386394500732421875">
        <ele>276.20001220703125</ele>
        <time>2020-08-08T06:37:28.000Z</time>
      </trkpt>
      <trkpt lat="42.3807120881974697113037109375" lon="2.83281379379332065582275390625">
        <ele>276.399993896484375</ele>
        <time>2020-08-08T06:37:33.000Z</time>
      </trkpt>
      <trkpt lat="42.38063606433570384979248046875" lon="2.83299744129180908203125">
        <ele>277.600006103515625</ele>
        <time>2020-08-08T06:37:40.000Z</time>
      </trkpt>
      <trkpt lat="42.38062382675707340240478515625" lon="2.83301965333521366119384765625">
        <ele>277.79998779296875</ele>
        <time>2020-08-08T06:37:41.000Z</time>
      </trkpt>
      <trkpt lat="42.38057806156575679779052734375" lon="2.8331310488283634185791015625">
        <ele>278.79998779296875</ele>
        <time>2020-08-08T06:37:46.000Z</time>
      </trkpt>
      <trkpt lat="42.38057018257677555084228515625" lon="2.833152674138545989990234375">
        <ele>278.79998779296875</ele>
        <time>2020-08-08T06:37:47.000Z</time>
      </trkpt>
      <trkpt lat="42.38048695027828216552734375" lon="2.83327831886708736419677734375">
        <ele>279.79998779296875</ele>
        <time>2020-08-08T06:37:54.000Z</time>
      </trkpt>
      <trkpt lat="42.3803469724953174591064453125" lon="2.83332534134387969970703125">
        <ele>279.79998779296875</ele>
        <time>2020-08-08T06:38:01.000Z</time>
      </trkpt>
      <trkpt lat="42.3802152089774608612060546875" lon="2.83335442654788494110107421875">
        <ele>279.600006103515625</ele>
        <time>2020-08-08T06:38:08.000Z</time>
      </trkpt>
      <trkpt lat="42.38004799000918865203857421875" lon="2.8333855234086513519287109375">
        <ele>279.600006103515625</ele>
        <time>2020-08-08T06:38:15.000Z</time>
      </trkpt>
      <trkpt lat="42.37988169305026531219482421875" lon="2.8333677537739276885986328125">
        <ele>279.600006103515625</ele>
        <time>2020-08-08T06:38:22.000Z</time>
      </trkpt>
      <trkpt lat="42.37969511188566684722900390625" lon="2.8333077393472194671630859375">
        <ele>279.600006103515625</ele>
        <time>2020-08-08T06:38:30.000Z</time>
      </trkpt>
      <trkpt lat="42.37948187626898288726806640625" lon="2.83340848982334136962890625">
        <ele>279.399993896484375</ele>
        <time>2020-08-08T06:38:37.000Z</time>
      </trkpt>
      <trkpt lat="42.3793820478022098541259765625" lon="2.83339298330247402191162109375">
        <ele>279</ele>
        <time>2020-08-08T06:38:41.000Z</time>
      </trkpt>
      <trkpt lat="42.3793498612940311431884765625" lon="2.8332966752350330352783203125">
        <ele>279</ele>
        <time>2020-08-08T06:38:46.000Z</time>
      </trkpt>
      <trkpt lat="42.37934441305696964263916015625" lon="2.83324495889246463775634765625">
        <ele>279.20001220703125</ele>
        <time>2020-08-08T06:38:48.000Z</time>
      </trkpt>
      <trkpt lat="42.37932563759386539459228515625" lon="2.833143956959247589111328125">
        <ele>279.79998779296875</ele>
        <time>2020-08-08T06:38:52.000Z</time>
      </trkpt>
      <trkpt lat="42.379311807453632354736328125" lon="2.83309827558696269989013671875">
        <ele>280</ele>
        <time>2020-08-08T06:38:54.000Z</time>
      </trkpt>
      <trkpt lat="42.37923310138285160064697265625" lon="2.832972295582294464111328125">
        <ele>280.20001220703125</ele>
        <time>2020-08-08T06:39:01.000Z</time>
      </trkpt>
      <trkpt lat="42.3791061155498027801513671875" lon="2.83292661421000957489013671875">
        <ele>280.399993896484375</ele>
        <time>2020-08-08T06:39:08.000Z</time>
      </trkpt>
      <trkpt lat="42.3790119029581546783447265625" lon="2.83292963169515132904052734375">
        <ele>280.600006103515625</ele>
        <time>2020-08-08T06:39:13.000Z</time>
      </trkpt>
      <trkpt lat="42.37896655686199665069580078125" lon="2.8329399414360523223876953125">
        <ele>281.399993896484375</ele>
        <time>2020-08-08T06:39:16.000Z</time>
      </trkpt>
      <trkpt lat="42.37888843752443790435791015625" lon="2.8329090960323810577392578125">
        <ele>281.399993896484375</ele>
        <time>2020-08-08T06:39:21.000Z</time>
      </trkpt>
      <trkpt lat="42.37887301482260227203369140625" lon="2.832895182073116302490234375">
        <ele>281.399993896484375</ele>
        <time>2020-08-08T06:39:22.000Z</time>
      </trkpt>
      <trkpt lat="42.37882339395582675933837890625" lon="2.83277154900133609771728515625">
        <ele>282.399993896484375</ele>
        <time>2020-08-08T06:39:28.000Z</time>
      </trkpt>
      <trkpt lat="42.37882104702293872833251953125" lon="2.83274841494858264923095703125">
        <ele>282.600006103515625</ele>
        <time>2020-08-08T06:39:29.000Z</time>
      </trkpt>
      <trkpt lat="42.378810904920101165771484375" lon="2.83263727091252803802490234375">
        <ele>283.399993896484375</ele>
        <time>2020-08-08T06:39:34.000Z</time>
      </trkpt>
      <trkpt lat="42.37880847416818141937255859375" lon="2.83261614851653575897216796875">
        <ele>283.600006103515625</ele>
        <time>2020-08-08T06:39:35.000Z</time>
      </trkpt>
      <trkpt lat="42.37878601066768169403076171875" lon="2.8324809484183788299560546875">
        <ele>284.399993896484375</ele>
        <time>2020-08-08T06:39:42.000Z</time>
      </trkpt>
      <trkpt lat="42.37878249026834964752197265625" lon="2.8324594907462596893310546875">
        <ele>284.600006103515625</ele>
        <time>2020-08-08T06:39:43.000Z</time>
      </trkpt>
      <trkpt lat="42.378751225769519805908203125" lon="2.83232764340937137603759765625">
        <ele>285.20001220703125</ele>
        <time>2020-08-08T06:39:49.000Z</time>
      </trkpt>
      <trkpt lat="42.37874376587569713592529296875" lon="2.83227793872356414794921875">
        <ele>285.600006103515625</ele>
        <time>2020-08-08T06:39:51.000Z</time>
      </trkpt>
      <trkpt lat="42.378696240484714508056640625" lon="2.83208657987415790557861328125">
        <ele>286.20001220703125</ele>
        <time>2020-08-08T06:39:59.000Z</time>
      </trkpt>
      <trkpt lat="42.3786531575024127960205078125" lon="2.83197778277099132537841796875">
        <ele>286</ele>
        <time>2020-08-08T06:40:04.000Z</time>
      </trkpt>
      <trkpt lat="42.37860781140625476837158203125" lon="2.831904776394367218017578125">
        <ele>286.600006103515625</ele>
        <time>2020-08-08T06:40:08.000Z</time>
      </trkpt>
      <trkpt lat="42.3785482160747051239013671875" lon="2.8318134136497974395751953125">
        <ele>287</ele>
        <time>2020-08-08T06:40:13.000Z</time>
      </trkpt>
      <trkpt lat="42.37852357327938079833984375" lon="2.83177896402776241302490234375">
        <ele>287.20001220703125</ele>
        <time>2020-08-08T06:40:15.000Z</time>
      </trkpt>
      <trkpt lat="42.378409914672374725341796875" lon="2.8315745294094085693359375">
        <ele>286.79998779296875</ele>
        <time>2020-08-08T06:40:23.000Z</time>
      </trkpt>
      <trkpt lat="42.37827890552580356597900390625" lon="2.83135198988020420074462890625">
        <ele>285.600006103515625</ele>
        <time>2020-08-08T06:40:29.000Z</time>
      </trkpt>
      <trkpt lat="42.37825543619692325592041015625" lon="2.83131812699139118194580078125">
        <ele>284.79998779296875</ele>
        <time>2020-08-08T06:40:30.000Z</time>
      </trkpt>
      <trkpt lat="42.37822073511779308319091796875" lon="2.83125844784080982208251953125">
        <ele>284.399993896484375</ele>
        <time>2020-08-08T06:40:32.000Z</time>
      </trkpt>
      <trkpt lat="42.37818066962063312530517578125" lon="2.8311981819570064544677734375">
        <ele>284.20001220703125</ele>
        <time>2020-08-08T06:40:35.000Z</time>
      </trkpt>
      <trkpt lat="42.37812384031713008880615234375" lon="2.8311448730528354644775390625">
        <ele>283.399993896484375</ele>
        <time>2020-08-08T06:40:41.000Z</time>
      </trkpt>
      <trkpt lat="42.37806499935686588287353515625" lon="2.8311190567910671234130859375">
        <ele>283</ele>
        <time>2020-08-08T06:40:44.000Z</time>
      </trkpt>
      <trkpt lat="42.37800967879593372344970703125" lon="2.83110983669757843017578125">
        <ele>282.20001220703125</ele>
        <time>2020-08-08T06:40:47.000Z</time>
      </trkpt>
      <trkpt lat="42.377992831170558929443359375" lon="2.8311086632311344146728515625">
        <ele>281.79998779296875</ele>
        <time>2020-08-08T06:40:48.000Z</time>
      </trkpt>
      <trkpt lat="42.37790188752114772796630859375" lon="2.8310878761112689971923828125">
        <ele>281.399993896484375</ele>
        <time>2020-08-08T06:40:52.000Z</time>
      </trkpt>
      <trkpt lat="42.3778404481709003448486328125" lon="2.8310654126107692718505859375">
        <ele>280.399993896484375</ele>
        <time>2020-08-08T06:40:55.000Z</time>
      </trkpt>
      <trkpt lat="42.377770878374576568603515625" lon="2.83103406429290771484375">
        <ele>279.600006103515625</ele>
        <time>2020-08-08T06:40:58.000Z</time>
      </trkpt>
      <trkpt lat="42.37774464301764965057373046875" lon="2.8310238383710384368896484375">
        <ele>279.399993896484375</ele>
        <time>2020-08-08T06:40:59.000Z</time>
      </trkpt>
      <trkpt lat="42.37758924253284931182861328125" lon="2.83096407540142536163330078125">
        <ele>278.20001220703125</ele>
        <time>2020-08-08T06:41:04.000Z</time>
      </trkpt>
      <trkpt lat="42.3774540424346923828125" lon="2.83093322999775409698486328125">
        <ele>277.20001220703125</ele>
        <time>2020-08-08T06:41:08.000Z</time>
      </trkpt>
      <trkpt lat="42.3773480951786041259765625" lon="2.8309296257793903350830078125">
        <ele>276.20001220703125</ele>
        <time>2020-08-08T06:41:11.000Z</time>
      </trkpt>
      <trkpt lat="42.37731699831783771514892578125" lon="2.8309306316077709197998046875">
        <ele>276</ele>
        <time>2020-08-08T06:41:12.000Z</time>
      </trkpt>
      <trkpt lat="42.37715774215757846832275390625" lon="2.830989472568035125732421875">
        <ele>275</ele>
        <time>2020-08-08T06:41:17.000Z</time>
      </trkpt>
      <trkpt lat="42.37713192589581012725830078125" lon="2.83102459274232387542724609375">
        <ele>274.600006103515625</ele>
        <time>2020-08-08T06:41:18.000Z</time>
      </trkpt>
      <trkpt lat="42.3771098814904689788818359375" lon="2.83107136376202106475830078125">
        <ele>274.399993896484375</ele>
        <time>2020-08-08T06:41:19.000Z</time>
      </trkpt>
      <trkpt lat="42.37708817236125469207763671875" lon="2.83118586055934429168701171875">
        <ele>274</ele>
        <time>2020-08-08T06:41:21.000Z</time>
      </trkpt>
      <trkpt lat="42.3770870827138423919677734375" lon="2.83127211034297943115234375">
        <ele>273.20001220703125</ele>
        <time>2020-08-08T06:41:23.000Z</time>
      </trkpt>
      <trkpt lat="42.37709102220833301544189453125" lon="2.831336148083209991455078125">
        <ele>273.20001220703125</ele>
        <time>2020-08-08T06:41:25.000Z</time>
      </trkpt>
      <trkpt lat="42.3771242983639240264892578125" lon="2.83154837787151336669921875">
        <ele>272.600006103515625</ele>
        <time>2020-08-08T06:41:31.000Z</time>
      </trkpt>
      <trkpt lat="42.377125807106494903564453125" lon="2.8316383995115756988525390625">
        <ele>272.20001220703125</ele>
        <time>2020-08-08T06:41:33.000Z</time>
      </trkpt>
      <trkpt lat="42.37709269858896732330322265625" lon="2.8317748568952083587646484375">
        <ele>271.399993896484375</ele>
        <time>2020-08-08T06:41:36.000Z</time>
      </trkpt>
      <trkpt lat="42.37706319428980350494384765625" lon="2.8318600170314311981201171875">
        <ele>271</ele>
        <time>2020-08-08T06:41:38.000Z</time>
      </trkpt>
      <trkpt lat="42.37701692618429660797119140625" lon="2.83200309611856937408447265625">
        <ele>270.79998779296875</ele>
        <time>2020-08-08T06:41:42.000Z</time>
      </trkpt>
      <trkpt lat="42.37702597863972187042236328125" lon="2.8321592509746551513671875">
        <ele>269.600006103515625</ele>
        <time>2020-08-08T06:41:46.000Z</time>
      </trkpt>
      <trkpt lat="42.37703519873321056365966796875" lon="2.832210548222064971923828125">
        <ele>269.399993896484375</ele>
        <time>2020-08-08T06:41:47.000Z</time>
      </trkpt>
      <trkpt lat="42.3770408146083354949951171875" lon="2.83246099948883056640625">
        <ele>268.600006103515625</ele>
        <time>2020-08-08T06:41:52.000Z</time>
      </trkpt>
      <trkpt lat="42.3770304210484027862548828125" lon="2.83250324428081512451171875">
        <ele>268.399993896484375</ele>
        <time>2020-08-08T06:41:53.000Z</time>
      </trkpt>
      <trkpt lat="42.3769087158143520355224609375" lon="2.83272662200033664703369140625">
        <ele>267.20001220703125</ele>
        <time>2020-08-08T06:41:59.000Z</time>
      </trkpt>
      <trkpt lat="42.37685632891952991485595703125" lon="2.832779847085475921630859375">
        <ele>266.20001220703125</ele>
        <time>2020-08-08T06:42:01.000Z</time>
      </trkpt>
      <trkpt lat="42.3767622001469135284423828125" lon="2.83290599472820758819580078125">
        <ele>266</ele>
        <time>2020-08-08T06:42:05.000Z</time>
      </trkpt>
      <trkpt lat="42.37661174498498439788818359375" lon="2.83309961669147014617919921875">
        <ele>265.20001220703125</ele>
        <time>2020-08-08T06:42:11.000Z</time>
      </trkpt>
      <trkpt lat="42.37658542580902576446533203125" lon="2.83313096500933170318603515625">
        <ele>265</ele>
        <time>2020-08-08T06:42:12.000Z</time>
      </trkpt>
      <trkpt lat="42.37648936919867992401123046875" lon="2.8332696855068206787109375">
        <ele>263.600006103515625</ele>
        <time>2020-08-08T06:42:16.000Z</time>
      </trkpt>
      <trkpt lat="42.37643287517130374908447265625" lon="2.83337923698127269744873046875">
        <ele>263.20001220703125</ele>
        <time>2020-08-08T06:42:19.000Z</time>
      </trkpt>
      <trkpt lat="42.37634788267314434051513671875" lon="2.8334985114634037017822265625">
        <ele>262.79998779296875</ele>
        <time>2020-08-08T06:42:24.000Z</time>
      </trkpt>
      <trkpt lat="42.376330532133579254150390625" lon="2.8335149399936199188232421875">
        <ele>262.399993896484375</ele>
        <time>2020-08-08T06:42:25.000Z</time>
      </trkpt>
      <trkpt lat="42.37629105336964130401611328125" lon="2.83351938240230083465576171875">
        <ele>261.79998779296875</ele>
        <time>2020-08-08T06:42:27.000Z</time>
      </trkpt>
      <trkpt lat="42.3762713558971881866455078125" lon="2.833506725728511810302734375">
        <ele>261.79998779296875</ele>
        <time>2020-08-08T06:42:28.000Z</time>
      </trkpt>
      <trkpt lat="42.376242689788341522216796875" lon="2.83340890891849994659423828125">
        <ele>261.20001220703125</ele>
        <time>2020-08-08T06:42:31.000Z</time>
      </trkpt>
      <trkpt lat="42.376242019236087799072265625" lon="2.83336549066007137298583984375">
        <ele>261.20001220703125</ele>
        <time>2020-08-08T06:42:32.000Z</time>
      </trkpt>
      <trkpt lat="42.376252077519893646240234375" lon="2.83329508267343044281005859375">
        <ele>260.600006103515625</ele>
        <time>2020-08-08T06:42:34.000Z</time>
      </trkpt>
      <trkpt lat="42.37626322545111179351806640625" lon="2.8332514129579067230224609375">
        <ele>260.399993896484375</ele>
        <time>2020-08-08T06:42:36.000Z</time>
      </trkpt>
      <trkpt lat="42.37626858986914157867431640625" lon="2.83323339186608791351318359375">
        <ele>260.20001220703125</ele>
        <time>2020-08-08T06:42:37.000Z</time>
      </trkpt>
      <trkpt lat="42.37631116993725299835205078125" lon="2.83313029445707798004150390625">
        <ele>259.20001220703125</ele>
        <time>2020-08-08T06:42:43.000Z</time>
      </trkpt>
      <trkpt lat="42.3764064721763134002685546875" lon="2.8329795040190219879150390625">
        <ele>259</ele>
        <time>2020-08-08T06:42:50.000Z</time>
      </trkpt>
      <trkpt lat="42.37642298452556133270263671875" lon="2.83295377157628536224365234375">
        <ele>259</ele>
        <time>2020-08-08T06:42:51.000Z</time>
      </trkpt>
      <trkpt lat="42.37651593983173370361328125" lon="2.8327994607388973236083984375">
        <ele>258.399993896484375</ele>
        <time>2020-08-08T06:42:57.000Z</time>
      </trkpt>
      <trkpt lat="42.37653798423707485198974609375" lon="2.83271991647779941558837890625">
        <ele>258.399993896484375</ele>
        <time>2020-08-08T06:43:00.000Z</time>
      </trkpt>
      <trkpt lat="42.3765415884554386138916015625" lon="2.83266208134591579437255859375">
        <ele>258</ele>
        <time>2020-08-08T06:43:02.000Z</time>
      </trkpt>
      <trkpt lat="42.3765355534851551055908203125" lon="2.83263173885643482208251953125">
        <ele>257.79998779296875</ele>
        <time>2020-08-08T06:43:03.000Z</time>
      </trkpt>
      <trkpt lat="42.37649020738899707794189453125" lon="2.83256619237363338470458984375">
        <ele>257.20001220703125</ele>
        <time>2020-08-08T06:43:06.000Z</time>
      </trkpt>
      <trkpt lat="42.37638979218900203704833984375" lon="2.832570634782314300537109375">
        <ele>256.79998779296875</ele>
        <time>2020-08-08T06:43:11.000Z</time>
      </trkpt>
      <trkpt lat="42.3763628862798213958740234375" lon="2.83262084238231182098388671875">
        <ele>256.399993896484375</ele>
        <time>2020-08-08T06:43:13.000Z</time>
      </trkpt>
      <trkpt lat="42.376349307596683502197265625" lon="2.83265286125242710113525390625">
        <ele>256.399993896484375</ele>
        <time>2020-08-08T06:43:14.000Z</time>
      </trkpt>
      <trkpt lat="42.37631536088883876800537109375" lon="2.83270977437496185302734375">
        <ele>256.20001220703125</ele>
        <time>2020-08-08T06:43:16.000Z</time>
      </trkpt>
      <trkpt lat="42.3761788196861743927001953125" lon="2.83284245990216732025146484375">
        <ele>255.1999969482421875</ele>
        <time>2020-08-08T06:43:21.000Z</time>
      </trkpt>
      <trkpt lat="42.37603389658033847808837890625" lon="2.83294958062469959259033203125">
        <ele>254.399993896484375</ele>
        <time>2020-08-08T06:43:27.000Z</time>
      </trkpt>
      <trkpt lat="42.37598477862775325775146484375" lon="2.8330039791762828826904296875">
        <ele>253.8000030517578125</ele>
        <time>2020-08-08T06:43:29.000Z</time>
      </trkpt>
      <trkpt lat="42.37593264319002628326416015625" lon="2.833118475973606109619140625">
        <ele>253.8000030517578125</ele>
        <time>2020-08-08T06:43:32.000Z</time>
      </trkpt>
      <trkpt lat="42.37585418857634067535400390625" lon="2.833320312201976776123046875">
        <ele>252.600006103515625</ele>
        <time>2020-08-08T06:43:37.000Z</time>
      </trkpt>
      <trkpt lat="42.3757261969149112701416015625" lon="2.83352273516356945037841796875">
        <ele>251.399993896484375</ele>
        <time>2020-08-08T06:43:43.000Z</time>
      </trkpt>
      <trkpt lat="42.3757017217576503753662109375" lon="2.83354989252984523773193359375">
        <ele>251.1999969482421875</ele>
        <time>2020-08-08T06:43:44.000Z</time>
      </trkpt>
      <trkpt lat="42.37552980892360210418701171875" lon="2.833654917776584625244140625">
        <ele>250.1999969482421875</ele>
        <time>2020-08-08T06:43:50.000Z</time>
      </trkpt>
      <trkpt lat="42.37544632516801357269287109375" lon="2.83361560665071010589599609375">
        <ele>249.1999969482421875</ele>
        <time>2020-08-08T06:43:54.000Z</time>
      </trkpt>
      <trkpt lat="42.3754335008561611175537109375" lon="2.83359230495989322662353515625">
        <ele>249.1999969482421875</ele>
        <time>2020-08-08T06:43:55.000Z</time>
      </trkpt>
      <trkpt lat="42.37541682086884975433349609375" lon="2.83348049037158489227294921875">
        <ele>248.1999969482421875</ele>
        <time>2020-08-08T06:43:59.000Z</time>
      </trkpt>
      <trkpt lat="42.3754358477890491485595703125" lon="2.83341209404170513153076171875">
        <ele>247.8000030517578125</ele>
        <time>2020-08-08T06:44:01.000Z</time>
      </trkpt>
      <trkpt lat="42.37548018805682659149169921875" lon="2.8333141095936298370361328125">
        <ele>247.399993896484375</ele>
        <time>2020-08-08T06:44:04.000Z</time>
      </trkpt>
      <trkpt lat="42.37552779726684093475341796875" lon="2.833176814019680023193359375">
        <ele>246.600006103515625</ele>
        <time>2020-08-08T06:44:08.000Z</time>
      </trkpt>
      <trkpt lat="42.37557004205882549285888671875" lon="2.83306826837360858917236328125">
        <ele>246.1999969482421875</ele>
        <time>2020-08-08T06:44:11.000Z</time>
      </trkpt>
      <trkpt lat="42.3756832815706729888916015625" lon="2.8328014723956584930419921875">
        <ele>245.600006103515625</ele>
        <time>2020-08-08T06:44:18.000Z</time>
      </trkpt>
      <trkpt lat="42.37570750527083873748779296875" lon="2.83274405635893344879150390625">
        <ele>245.399993896484375</ele>
        <time>2020-08-08T06:44:20.000Z</time>
      </trkpt>
      <trkpt lat="42.37573868595063686370849609375" lon="2.8325922600924968719482421875">
        <ele>244.8000030517578125</ele>
        <time>2020-08-08T06:44:24.000Z</time>
      </trkpt>
      <trkpt lat="42.37573751248419284820556640625" lon="2.83250366337597370147705078125">
        <ele>244.399993896484375</ele>
        <time>2020-08-08T06:44:26.000Z</time>
      </trkpt>
      <trkpt lat="42.37569996155798435211181640625" lon="2.83238883130252361297607421875">
        <ele>244</ele>
        <time>2020-08-08T06:44:29.000Z</time>
      </trkpt>
      <trkpt lat="42.3756180703639984130859375" lon="2.83227668143808841705322265625">
        <ele>243.1999969482421875</ele>
        <time>2020-08-08T06:44:33.000Z</time>
      </trkpt>
      <trkpt lat="42.375569455325603485107421875" lon="2.832242064177989959716796875">
        <ele>242.600006103515625</ele>
        <time>2020-08-08T06:44:35.000Z</time>
      </trkpt>
      <trkpt lat="42.37552360631525516510009765625" lon="2.83221934922039508819580078125">
        <ele>242</ele>
        <time>2020-08-08T06:44:38.000Z</time>
      </trkpt>
      <trkpt lat="42.3755230195820331573486328125" lon="2.8322187624871730804443359375">
        <ele>241.8000030517578125</ele>
        <time>2020-08-08T06:44:39.000Z</time>
      </trkpt>
      <trkpt lat="42.37550985999405384063720703125" lon="2.83221532590687274932861328125">
        <ele>241.399993896484375</ele>
        <time>2020-08-08T06:44:47.000Z</time>
      </trkpt>
      <trkpt lat="42.37550952471792697906494140625" lon="2.832214571535587310791015625">
        <ele>241.600006103515625</ele>
        <time>2020-08-08T06:45:03.000Z</time>
      </trkpt>
      <trkpt lat="42.3755096085369586944580078125" lon="2.8322150744497776031494140625">
        <ele>241.1999969482421875</ele>
        <time>2020-08-08T06:45:23.000Z</time>
      </trkpt>
      <trkpt lat="42.375509440898895263671875" lon="2.83221532590687274932861328125">
        <ele>241</ele>
        <time>2020-08-08T06:46:04.000Z</time>
      </trkpt>
      <trkpt lat="42.37546811811625957489013671875" lon="2.83220828510820865631103515625">
        <ele>241</ele>
        <time>2020-08-08T06:46:22.000Z</time>
      </trkpt>
      <trkpt lat="42.3753444850444793701171875" lon="2.83227031119167804718017578125">
        <ele>240.600006103515625</ele>
        <time>2020-08-08T06:46:28.000Z</time>
      </trkpt>
      <trkpt lat="42.3752330057322978973388671875" lon="2.8324132226407527923583984375">
        <ele>240</ele>
        <time>2020-08-08T06:46:34.000Z</time>
      </trkpt>
      <trkpt lat="42.37516083754599094390869140625" lon="2.83245873637497425079345703125">
        <ele>239.600006103515625</ele>
        <time>2020-08-08T06:46:37.000Z</time>
      </trkpt>
      <trkpt lat="42.375104762613773345947265625" lon="2.83246812410652637481689453125">
        <ele>239</ele>
        <time>2020-08-08T06:46:39.000Z</time>
      </trkpt>
      <trkpt lat="42.3750164173543453216552734375" lon="2.83244465477764606475830078125">
        <ele>238.399993896484375</ele>
        <time>2020-08-08T06:46:42.000Z</time>
      </trkpt>
      <trkpt lat="42.3749735020101070404052734375" lon="2.83240132033824920654296875">
        <ele>238.1999969482421875</ele>
        <time>2020-08-08T06:46:44.000Z</time>
      </trkpt>
      <trkpt lat="42.3748732544481754302978515625" lon="2.8322046808898448944091796875">
        <ele>237.600006103515625</ele>
        <time>2020-08-08T06:46:51.000Z</time>
      </trkpt>
      <trkpt lat="42.37484215758740901947021484375" lon="2.83213653601706027984619140625">
        <ele>237.1999969482421875</ele>
        <time>2020-08-08T06:46:53.000Z</time>
      </trkpt>
      <trkpt lat="42.3747901059687137603759765625" lon="2.83208004198968410491943359375">
        <ele>237</ele>
        <time>2020-08-08T06:46:55.000Z</time>
      </trkpt>
      <trkpt lat="42.374649457633495330810546875" lon="2.832046933472156524658203125">
        <ele>236.399993896484375</ele>
        <time>2020-08-08T06:46:59.000Z</time>
      </trkpt>
      <trkpt lat="42.37458030693233013153076171875" lon="2.83207668922841548919677734375">
        <ele>236</ele>
        <time>2020-08-08T06:47:01.000Z</time>
      </trkpt>
      <trkpt lat="42.3744853399693965911865234375" lon="2.83211432397365570068359375">
        <ele>235.1999969482421875</ele>
        <time>2020-08-08T06:47:04.000Z</time>
      </trkpt>
      <trkpt lat="42.374452315270900726318359375" lon="2.83211474306881427764892578125">
        <ele>235</ele>
        <time>2020-08-08T06:47:05.000Z</time>
      </trkpt>
      <trkpt lat="42.37433136440813541412353515625" lon="2.83205338753759860992431640625">
        <ele>234.399993896484375</ele>
        <time>2020-08-08T06:47:09.000Z</time>
      </trkpt>
      <trkpt lat="42.37411879934370517730712890625" lon="2.83192430622875690460205078125">
        <ele>233.600006103515625</ele>
        <time>2020-08-08T06:47:16.000Z</time>
      </trkpt>
      <trkpt lat="42.374091558158397674560546875" lon="2.83190821297466754913330078125">
        <ele>233.1999969482421875</ele>
        <time>2020-08-08T06:47:17.000Z</time>
      </trkpt>
      <trkpt lat="42.37400463782250881195068359375" lon="2.8318427503108978271484375">
        <ele>232.600006103515625</ele>
        <time>2020-08-08T06:47:21.000Z</time>
      </trkpt>
      <trkpt lat="42.3739931546151638031005859375" lon="2.83181886188685894012451171875">
        <ele>232.600006103515625</ele>
        <time>2020-08-08T06:47:22.000Z</time>
      </trkpt>
      <trkpt lat="42.37398418597877025604248046875" lon="2.83179036341607570648193359375">
        <ele>232.399993896484375</ele>
        <time>2020-08-08T06:47:23.000Z</time>
      </trkpt>
      <trkpt lat="42.3739792406558990478515625" lon="2.83159405924379825592041015625">
        <ele>231.399993896484375</ele>
        <time>2020-08-08T06:47:29.000Z</time>
      </trkpt>
      <trkpt lat="42.37399206496775150299072265625" lon="2.8315589390695095062255859375">
        <ele>231.1999969482421875</ele>
        <time>2020-08-08T06:47:30.000Z</time>
      </trkpt>
      <trkpt lat="42.3740628920495510101318359375" lon="2.831434048712253570556640625">
        <ele>230.399993896484375</ele>
        <time>2020-08-08T06:47:34.000Z</time>
      </trkpt>
      <trkpt lat="42.37407647073268890380859375" lon="2.831402532756328582763671875">
        <ele>230.1999969482421875</ele>
        <time>2020-08-08T06:47:35.000Z</time>
      </trkpt>
      <trkpt lat="42.37414218485355377197265625" lon="2.83124285750091075897216796875">
        <ele>229.1999969482421875</ele>
        <time>2020-08-08T06:47:40.000Z</time>
      </trkpt>
      <trkpt lat="42.374161295592784881591796875" lon="2.8312122635543346405029296875">
        <ele>229</ele>
        <time>2020-08-08T06:47:41.000Z</time>
      </trkpt>
      <trkpt lat="42.37429381348192691802978515625" lon="2.83102526329457759857177734375">
        <ele>228</ele>
        <time>2020-08-08T06:47:48.000Z</time>
      </trkpt>
      <trkpt lat="42.374310158193111419677734375" lon="2.8310043923556804656982421875">
        <ele>227.8000030517578125</ele>
        <time>2020-08-08T06:47:49.000Z</time>
      </trkpt>
      <trkpt lat="42.37432214431464672088623046875" lon="2.83098016865551471710205078125">
        <ele>227.8000030517578125</ele>
        <time>2020-08-08T06:47:50.000Z</time>
      </trkpt>
      <trkpt lat="42.37431510351598262786865234375" lon="2.83088310621678829193115234375">
        <ele>227.8000030517578125</ele>
        <time>2020-08-08T06:47:53.000Z</time>
      </trkpt>
      <trkpt lat="42.37423966638743877410888671875" lon="2.8308089263737201690673828125">
        <ele>227.1999969482421875</ele>
        <time>2020-08-08T06:47:57.000Z</time>
      </trkpt>
      <trkpt lat="42.37419054843485355377197265625" lon="2.83083197660744190216064453125">
        <ele>226.600006103515625</ele>
        <time>2020-08-08T06:47:59.000Z</time>
      </trkpt>
      <trkpt lat="42.3741497285664081573486328125" lon="2.830882854759693145751953125">
        <ele>226.600006103515625</ele>
        <time>2020-08-08T06:48:01.000Z</time>
      </trkpt>
      <trkpt lat="42.3741240799427032470703125" lon="2.83095150254666805267333984375">
        <ele>226.1999969482421875</ele>
        <time>2020-08-08T06:48:03.000Z</time>
      </trkpt>
      <trkpt lat="42.37409583292901515960693359375" lon="2.831022329628467559814453125">
        <ele>225.8000030517578125</ele>
        <time>2020-08-08T06:48:05.000Z</time>
      </trkpt>
      <trkpt lat="42.37406616099178791046142578125" lon="2.83109148032963275909423828125">
        <ele>225.399993896484375</ele>
        <time>2020-08-08T06:48:07.000Z</time>
      </trkpt>
      <trkpt lat="42.37400547601282596588134765625" lon="2.83120505511760711669921875">
        <ele>224.399993896484375</ele>
        <time>2020-08-08T06:48:11.000Z</time>
      </trkpt>
      <trkpt lat="42.37398737110197544097900390625" lon="2.83123028464615345001220703125">
        <ele>224.399993896484375</ele>
        <time>2020-08-08T06:48:12.000Z</time>
      </trkpt>
      <trkpt lat="42.37381587736308574676513671875" lon="2.8314747847616672515869140625">
        <ele>223.600006103515625</ele>
        <time>2020-08-08T06:48:20.000Z</time>
      </trkpt>
      <trkpt lat="42.37378369085490703582763671875" lon="2.83155919052660465240478515625">
        <ele>223.399993896484375</ele>
        <time>2020-08-08T06:48:22.000Z</time>
      </trkpt>
      <trkpt lat="42.37376089207828044891357421875" lon="2.83170570619404315948486328125">
        <ele>222.8000030517578125</ele>
        <time>2020-08-08T06:48:25.000Z</time>
      </trkpt>
      <trkpt lat="42.37375997006893157958984375" lon="2.831760607659816741943359375">
        <ele>222.600006103515625</ele>
        <time>2020-08-08T06:48:26.000Z</time>
      </trkpt>
      <trkpt lat="42.37376357428729534149169921875" lon="2.83181701786816120147705078125">
        <ele>222.399993896484375</ele>
        <time>2020-08-08T06:48:27.000Z</time>
      </trkpt>
      <trkpt lat="42.37379039637744426727294921875" lon="2.8319793753325939178466796875">
        <ele>221.1999969482421875</ele>
        <time>2020-08-08T06:48:30.000Z</time>
      </trkpt>
      <trkpt lat="42.37380020320415496826171875" lon="2.8320256434381008148193359375">
        <ele>221</ele>
        <time>2020-08-08T06:48:31.000Z</time>
      </trkpt>
      <trkpt lat="42.3738397657871246337890625" lon="2.8322442434728145599365234375">
        <ele>220</ele>
        <time>2020-08-08T06:48:36.000Z</time>
      </trkpt>
      <trkpt lat="42.37384739331901073455810546875" lon="2.8322807885706424713134765625">
        <ele>219.399993896484375</ele>
        <time>2020-08-08T06:48:37.000Z</time>
      </trkpt>
      <trkpt lat="42.37385996617376804351806640625" lon="2.832362093031406402587890625">
        <ele>218.8000030517578125</ele>
        <time>2020-08-08T06:48:39.000Z</time>
      </trkpt>
      <trkpt lat="42.37390824593603610992431640625" lon="2.83253082074224948883056640625">
        <ele>218</ele>
        <time>2020-08-08T06:48:43.000Z</time>
      </trkpt>
      <trkpt lat="42.37393389455974102020263671875" lon="2.83256652764976024627685546875">
        <ele>217.600006103515625</ele>
        <time>2020-08-08T06:48:44.000Z</time>
      </trkpt>
      <trkpt lat="42.3740290291607379913330078125" lon="2.8326452337205410003662109375">
        <ele>217.1999969482421875</ele>
        <time>2020-08-08T06:48:47.000Z</time>
      </trkpt>
      <trkpt lat="42.37421058118343353271484375" lon="2.8326807729899883270263671875">
        <ele>216.600006103515625</ele>
        <time>2020-08-08T06:48:52.000Z</time>
      </trkpt>
      <trkpt lat="42.37441903911530971527099609375" lon="2.832741625607013702392578125">
        <ele>215.8000030517578125</ele>
        <time>2020-08-08T06:48:58.000Z</time>
      </trkpt>
      <trkpt lat="42.37447871826589107513427734375" lon="2.83287833444774150848388671875">
        <ele>215.600006103515625</ele>
        <time>2020-08-08T06:49:02.000Z</time>
      </trkpt>
      <trkpt lat="42.3744430951774120330810546875" lon="2.83302619121968746185302734375">
        <ele>215.1999969482421875</ele>
        <time>2020-08-08T06:49:06.000Z</time>
      </trkpt>
      <trkpt lat="42.3742881976068019866943359375" lon="2.83318293280899524688720703125">
        <ele>214.1999969482421875</ele>
        <time>2020-08-08T06:49:11.000Z</time>
      </trkpt>
      <trkpt lat="42.37418183125555515289306640625" lon="2.83326365053653717041015625">
        <ele>213</ele>
        <time>2020-08-08T06:49:14.000Z</time>
      </trkpt>
      <trkpt lat="42.374091558158397674560546875" lon="2.8333657421171665191650390625">
        <ele>212.1999969482421875</ele>
        <time>2020-08-08T06:49:17.000Z</time>
      </trkpt>
      <trkpt lat="42.3740662448108196258544921875" lon="2.83340723253786563873291015625">
        <ele>212</ele>
        <time>2020-08-08T06:49:18.000Z</time>
      </trkpt>
      <trkpt lat="42.37404202111065387725830078125" lon="2.83345676958560943603515625">
        <ele>212</ele>
        <time>2020-08-08T06:49:19.000Z</time>
      </trkpt>
      <trkpt lat="42.37400447018444538116455078125" lon="2.8335625492036342620849609375">
        <ele>211.399993896484375</ele>
        <time>2020-08-08T06:49:21.000Z</time>
      </trkpt>
      <trkpt lat="42.3739602975547313690185546875" lon="2.833780981600284576416015625">
        <ele>210.8000030517578125</ele>
        <time>2020-08-08T06:49:25.000Z</time>
      </trkpt>
      <trkpt lat="42.373964153230190277099609375" lon="2.83388332463800907135009765625">
        <ele>210.600006103515625</ele>
        <time>2020-08-08T06:49:27.000Z</time>
      </trkpt>
      <trkpt lat="42.3740206472575664520263671875" lon="2.83413536846637725830078125">
        <ele>209.8000030517578125</ele>
        <time>2020-08-08T06:49:33.000Z</time>
      </trkpt>
      <trkpt lat="42.3740206472575664520263671875" lon="2.83421910367906093597412109375">
        <ele>209.600006103515625</ele>
        <time>2020-08-08T06:49:35.000Z</time>
      </trkpt>
      <trkpt lat="42.3740126006305217742919921875" lon="2.83429621718823909759521484375">
        <ele>208.399993896484375</ele>
        <time>2020-08-08T06:49:37.000Z</time>
      </trkpt>
      <trkpt lat="42.374000363051891326904296875" lon="2.83436830155551433563232421875">
        <ele>207.8000030517578125</ele>
        <time>2020-08-08T06:49:39.000Z</time>
      </trkpt>
      <trkpt lat="42.37398401834070682525634765625" lon="2.8344471752643585205078125">
        <ele>207.1999969482421875</ele>
        <time>2020-08-08T06:49:41.000Z</time>
      </trkpt>
      <trkpt lat="42.37393557094037532806396484375" lon="2.83460467122495174407958984375">
        <ele>206.399993896484375</ele>
        <time>2020-08-08T06:49:45.000Z</time>
      </trkpt>
      <trkpt lat="42.3739230819046497344970703125" lon="2.83464373089373111724853515625">
        <ele>206.1999969482421875</ele>
        <time>2020-08-08T06:49:46.000Z</time>
      </trkpt>
      <trkpt lat="42.3738969303667545318603515625" lon="2.83474967814981937408447265625">
        <ele>205</ele>
        <time>2020-08-08T06:49:49.000Z</time>
      </trkpt>
      <trkpt lat="42.373878993093967437744140625" lon="2.8348194994032382965087890625">
        <ele>204.8000030517578125</ele>
        <time>2020-08-08T06:49:51.000Z</time>
      </trkpt>
      <trkpt lat="42.3738513328135013580322265625" lon="2.834963500499725341796875">
        <ele>203.600006103515625</ele>
        <time>2020-08-08T06:49:56.000Z</time>
      </trkpt>
      <trkpt lat="42.37385384738445281982421875" lon="2.83499426208436489105224609375">
        <ele>203.1999969482421875</ele>
        <time>2020-08-08T06:49:57.000Z</time>
      </trkpt>
      <trkpt lat="42.37384445965290069580078125" lon="2.83518000505864620208740234375">
        <ele>202.399993896484375</ele>
        <time>2020-08-08T06:50:02.000Z</time>
      </trkpt>
      <trkpt lat="42.37383398227393627166748046875" lon="2.83521537669003009796142578125">
        <ele>202.399993896484375</ele>
        <time>2020-08-08T06:50:03.000Z</time>
      </trkpt>
      <trkpt lat="42.373733483254909515380859375" lon="2.83537924289703369140625">
        <ele>201.399993896484375</ele>
        <time>2020-08-08T06:50:08.000Z</time>
      </trkpt>
      <trkpt lat="42.3735740594565868377685546875" lon="2.8354582004249095916748046875">
        <ele>200.600006103515625</ele>
        <time>2020-08-08T06:50:13.000Z</time>
      </trkpt>
      <trkpt lat="42.373516894876956939697265625" lon="2.8354773111641407012939453125">
        <ele>200.399993896484375</ele>
        <time>2020-08-08T06:50:15.000Z</time>
      </trkpt>
      <trkpt lat="42.37342377193272113800048828125" lon="2.8355312906205654144287109375">
        <ele>199.600006103515625</ele>
        <time>2020-08-08T06:50:18.000Z</time>
      </trkpt>
      <trkpt lat="42.37336006946861743927001953125" lon="2.8355909697711467742919921875">
        <ele>199.1999969482421875</ele>
        <time>2020-08-08T06:50:20.000Z</time>
      </trkpt>
      <trkpt lat="42.3733006417751312255859375" lon="2.83565894700586795806884765625">
        <ele>198.1999969482421875</ele>
        <time>2020-08-08T06:50:22.000Z</time>
      </trkpt>
      <trkpt lat="42.37324926070868968963623046875" lon="2.8357244096696376800537109375">
        <ele>197.8000030517578125</ele>
        <time>2020-08-08T06:50:24.000Z</time>
      </trkpt>
      <trkpt lat="42.37317985855042934417724609375" lon="2.83581518568098545074462890625">
        <ele>197</ele>
        <time>2020-08-08T06:50:27.000Z</time>
      </trkpt>
      <trkpt lat="42.3731130547821521759033203125" lon="2.83590160310268402099609375">
        <ele>196.399993896484375</ele>
        <time>2020-08-08T06:50:30.000Z</time>
      </trkpt>
      <trkpt lat="42.3730641044676303863525390625" lon="2.83596354536712169647216796875">
        <ele>195.8000030517578125</ele>
        <time>2020-08-08T06:50:32.000Z</time>
      </trkpt>
      <trkpt lat="42.37301699817180633544921875" lon="2.83607619814574718475341796875">
        <ele>194.600006103515625</ele>
        <time>2020-08-08T06:50:35.000Z</time>
      </trkpt>
      <trkpt lat="42.37297064624726772308349609375" lon="2.836247272789478302001953125">
        <ele>194</ele>
        <time>2020-08-08T06:50:40.000Z</time>
      </trkpt>
      <trkpt lat="42.37295505590736865997314453125" lon="2.836266718804836273193359375">
        <ele>193.600006103515625</ele>
        <time>2020-08-08T06:50:42.000Z</time>
      </trkpt>
      <trkpt lat="42.37295128405094146728515625" lon="2.836271412670612335205078125">
        <ele>193.1999969482421875</ele>
        <time>2020-08-08T06:50:44.000Z</time>
      </trkpt>
      <trkpt lat="42.372947596013545989990234375" lon="2.83627937547862529754638671875">
        <ele>193.1999969482421875</ele>
        <time>2020-08-08T06:50:45.000Z</time>
      </trkpt>
      <trkpt lat="42.3729108832776546478271484375" lon="2.83632145263254642486572265625">
        <ele>192.8000030517578125</ele>
        <time>2020-08-08T06:50:50.000Z</time>
      </trkpt>
      <trkpt lat="42.3729021660983562469482421875" lon="2.836326062679290771484375">
        <ele>192.8000030517578125</ele>
        <time>2020-08-08T06:50:51.000Z</time>
      </trkpt>
      <trkpt lat="42.372871823608875274658203125" lon="2.8363282419741153717041015625">
        <ele>192.600006103515625</ele>
        <time>2020-08-08T06:50:54.000Z</time>
      </trkpt>
      <trkpt lat="42.3728518746793270111083984375" lon="2.83630552701652050018310546875">
        <ele>192.600006103515625</ele>
        <time>2020-08-08T06:50:56.000Z</time>
      </trkpt>
      <trkpt lat="42.37284265458583831787109375" lon="2.83628926612436771392822265625">
        <ele>192.399993896484375</ele>
        <time>2020-08-08T06:50:57.000Z</time>
      </trkpt>
      <trkpt lat="42.37281675450503826141357421875" lon="2.8362300060689449310302734375">
        <ele>192</ele>
        <time>2020-08-08T06:51:00.000Z</time>
      </trkpt>
      <trkpt lat="42.372824214398860931396484375" lon="2.83618030138313770294189453125">
        <ele>191.600006103515625</ele>
        <time>2020-08-08T06:51:02.000Z</time>
      </trkpt>
      <trkpt lat="42.37284223549067974090576171875" lon="2.83612129278481006622314453125">
        <ele>191.1999969482421875</ele>
        <time>2020-08-08T06:51:04.000Z</time>
      </trkpt>
      <trkpt lat="42.37284961156547069549560546875" lon="2.8360895253717899322509765625">
        <ele>191</ele>
        <time>2020-08-08T06:51:05.000Z</time>
      </trkpt>
      <trkpt lat="42.372870147228240966796875" lon="2.83599975518882274627685546875">
        <ele>190.399993896484375</ele>
        <time>2020-08-08T06:51:08.000Z</time>
      </trkpt>
      <trkpt lat="42.3728786967694759368896484375" lon="2.83597276546061038970947265625">
        <ele>190.1999969482421875</ele>
        <time>2020-08-08T06:51:09.000Z</time>
      </trkpt>
      <trkpt lat="42.37293250858783721923828125" lon="2.835778556764125823974609375">
        <ele>189.399993896484375</ele>
        <time>2020-08-08T06:51:15.000Z</time>
      </trkpt>
      <trkpt lat="42.37294902093708515167236328125" lon="2.83570387400686740875244140625">
        <ele>189</ele>
        <time>2020-08-08T06:51:17.000Z</time>
      </trkpt>
      <trkpt lat="42.37300601787865161895751953125" lon="2.83561184071004390716552734375">
        <ele>188</ele>
        <time>2020-08-08T06:51:20.000Z</time>
      </trkpt>
      <trkpt lat="42.37312688492238521575927734375" lon="2.83551963977515697479248046875">
        <ele>187</ele>
        <time>2020-08-08T06:51:25.000Z</time>
      </trkpt>
      <trkpt lat="42.37315379083156585693359375" lon="2.83538821153342723846435546875">
        <ele>186.399993896484375</ele>
        <time>2020-08-08T06:51:29.000Z</time>
      </trkpt>
      <trkpt lat="42.37310442142188549041748046875" lon="2.83528804779052734375">
        <ele>185.8000030517578125</ele>
        <time>2020-08-08T06:51:32.000Z</time>
      </trkpt>
      <trkpt lat="42.37307659350335597991943359375" lon="2.8352701105177402496337890625">
        <ele>185.600006103515625</ele>
        <time>2020-08-08T06:51:33.000Z</time>
      </trkpt>
      <trkpt lat="42.3729792796075344085693359375" lon="2.83527807332575321197509765625">
        <ele>184.1999969482421875</ele>
        <time>2020-08-08T06:51:36.000Z</time>
      </trkpt>
      <trkpt lat="42.37294767983257770538330078125" lon="2.83530204556882381439208984375">
        <ele>183.8000030517578125</ele>
        <time>2020-08-08T06:51:37.000Z</time>
      </trkpt>
      <trkpt lat="42.37291784025728702545166015625" lon="2.8353376686573028564453125">
        <ele>183.399993896484375</ele>
        <time>2020-08-08T06:51:38.000Z</time>
      </trkpt>
      <trkpt lat="42.37288984470069408416748046875" lon="2.83537949435412883758544921875">
        <ele>183.1999969482421875</ele>
        <time>2020-08-08T06:51:39.000Z</time>
      </trkpt>
      <trkpt lat="42.372845001518726348876953125" lon="2.83545392565429210662841796875">
        <ele>182.1999969482421875</ele>
        <time>2020-08-08T06:51:41.000Z</time>
      </trkpt>
      <trkpt lat="42.37282614223659038543701171875" lon="2.83549466170370578765869140625">
        <ele>181.600006103515625</ele>
        <time>2020-08-08T06:51:42.000Z</time>
      </trkpt>
      <trkpt lat="42.37274517305195331573486328125" lon="2.8356345556676387786865234375">
        <ele>180.8000030517578125</ele>
        <time>2020-08-08T06:51:46.000Z</time>
      </trkpt>
      <trkpt lat="42.37271801568567752838134765625" lon="2.83565752208232879638671875">
        <ele>180.399993896484375</ele>
        <time>2020-08-08T06:51:47.000Z</time>
      </trkpt>
      <trkpt lat="42.3726225458085536956787109375" lon="2.8356717713177204132080078125">
        <ele>179.600006103515625</ele>
        <time>2020-08-08T06:51:50.000Z</time>
      </trkpt>
      <trkpt lat="42.372560016810894012451171875" lon="2.8356258384883403778076171875">
        <ele>179.1999969482421875</ele>
        <time>2020-08-08T06:51:52.000Z</time>
      </trkpt>
      <trkpt lat="42.37251676619052886962890625" lon="2.835553586483001708984375">
        <ele>178.8000030517578125</ele>
        <time>2020-08-08T06:51:54.000Z</time>
      </trkpt>
      <trkpt lat="42.37250335514545440673828125" lon="2.83548410050570964813232421875">
        <ele>178.1999969482421875</ele>
        <time>2020-08-08T06:51:56.000Z</time>
      </trkpt>
      <trkpt lat="42.37250897102057933807373046875" lon="2.835447303950786590576171875">
        <ele>178</ele>
        <time>2020-08-08T06:51:57.000Z</time>
      </trkpt>
      <trkpt lat="42.3725182749330997467041015625" lon="2.8354142792522907257080078125">
        <ele>177.8000030517578125</ele>
        <time>2020-08-08T06:51:58.000Z</time>
      </trkpt>
      <trkpt lat="42.3725866712629795074462890625" lon="2.835342697799205780029296875">
        <ele>177</ele>
        <time>2020-08-08T06:52:02.000Z</time>
      </trkpt>
      <trkpt lat="42.372627742588520050048828125" lon="2.83519961871206760406494140625">
        <ele>175.8000030517578125</ele>
        <time>2020-08-08T06:52:07.000Z</time>
      </trkpt>
      <trkpt lat="42.37262128852307796478271484375" lon="2.83513247966766357421875">
        <ele>175.8000030517578125</ele>
        <time>2020-08-08T06:52:09.000Z</time>
      </trkpt>
      <trkpt lat="42.37259589135646820068359375" lon="2.83506986685097217559814453125">
        <ele>175.600006103515625</ele>
        <time>2020-08-08T06:52:11.000Z</time>
      </trkpt>
      <trkpt lat="42.3725293390452861785888671875" lon="2.834998033940792083740234375">
        <ele>174.8000030517578125</ele>
        <time>2020-08-08T06:52:14.000Z</time>
      </trkpt>
      <trkpt lat="42.372470833361148834228515625" lon="2.8349737264215946197509765625">
        <ele>174.1999969482421875</ele>
        <time>2020-08-08T06:52:16.000Z</time>
      </trkpt>
      <trkpt lat="42.37243956886231899261474609375" lon="2.83496559597551822662353515625">
        <ele>173.8000030517578125</ele>
        <time>2020-08-08T06:52:17.000Z</time>
      </trkpt>
      <trkpt lat="42.3724096454679965972900390625" lon="2.834963165223598480224609375">
        <ele>173.399993896484375</ele>
        <time>2020-08-08T06:52:18.000Z</time>
      </trkpt>
      <trkpt lat="42.37231954000890254974365234375" lon="2.83499929122626781463623046875">
        <ele>172.1999969482421875</ele>
        <time>2020-08-08T06:52:21.000Z</time>
      </trkpt>
      <trkpt lat="42.3722808994352817535400390625" lon="2.83502452075481414794921875">
        <ele>171.600006103515625</ele>
        <time>2020-08-08T06:52:25.000Z</time>
      </trkpt>
      <trkpt lat="42.37227813340723514556884765625" lon="2.8350260294973850250244140625">
        <ele>171.1999969482421875</ele>
        <time>2020-08-08T06:52:44.000Z</time>
      </trkpt>
      <trkpt lat="42.37228115089237689971923828125" lon="2.8350267000496387481689453125">
        <ele>171.600006103515625</ele>
        <time>2020-08-08T06:53:02.000Z</time>
      </trkpt>
      <trkpt lat="42.37227176316082477569580078125" lon="2.8350377641618251800537109375">
        <ele>171.600006103515625</ele>
        <time>2020-08-08T06:53:11.000Z</time>
      </trkpt>
      <trkpt lat="42.37224259413778781890869140625" lon="2.8350667655467987060546875">
        <ele>171.600006103515625</ele>
        <time>2020-08-08T06:53:13.000Z</time>
      </trkpt>
      <trkpt lat="42.3721441067755222320556640625" lon="2.83519526012241840362548828125">
        <ele>171</ele>
        <time>2020-08-08T06:53:18.000Z</time>
      </trkpt>
      <trkpt lat="42.3721043765544891357421875" lon="2.8352644108235836029052734375">
        <ele>170.399993896484375</ele>
        <time>2020-08-08T06:53:20.000Z</time>
      </trkpt>
      <trkpt lat="42.372024916112422943115234375" lon="2.83544051460921764373779296875">
        <ele>169.8000030517578125</ele>
        <time>2020-08-08T06:53:24.000Z</time>
      </trkpt>
      <trkpt lat="42.37200890667736530303955078125" lon="2.83549315296113491058349609375">
        <ele>169.600006103515625</ele>
        <time>2020-08-08T06:53:25.000Z</time>
      </trkpt>
      <trkpt lat="42.3719975911080837249755859375" lon="2.8355517424643039703369140625">
        <ele>169</ele>
        <time>2020-08-08T06:53:26.000Z</time>
      </trkpt>
      <trkpt lat="42.37200320698320865631103515625" lon="2.83573840744793415069580078125">
        <ele>168.600006103515625</ele>
        <time>2020-08-08T06:53:29.000Z</time>
      </trkpt>
      <trkpt lat="42.37201896496117115020751953125" lon="2.8357931412756443023681640625">
        <ele>168.1999969482421875</ele>
        <time>2020-08-08T06:53:30.000Z</time>
      </trkpt>
      <trkpt lat="42.3720713518559932708740234375" lon="2.83588140271604061126708984375">
        <ele>167.600006103515625</ele>
        <time>2020-08-08T06:53:32.000Z</time>
      </trkpt>
      <trkpt lat="42.37210026942193508148193359375" lon="2.8359143435955047607421875">
        <ele>167.600006103515625</ele>
        <time>2020-08-08T06:53:33.000Z</time>
      </trkpt>
      <trkpt lat="42.37212575040757656097412109375" lon="2.8359440155327320098876953125">
        <ele>167.399993896484375</ele>
        <time>2020-08-08T06:53:34.000Z</time>
      </trkpt>
      <trkpt lat="42.37222306430339813232421875" lon="2.83608759753406047821044921875">
        <ele>166.8000030517578125</ele>
        <time>2020-08-08T06:53:39.000Z</time>
      </trkpt>
      <trkpt lat="42.3722363077104091644287109375" lon="2.8361619450151920318603515625">
        <ele>166.399993896484375</ele>
        <time>2020-08-08T06:53:41.000Z</time>
      </trkpt>
      <trkpt lat="42.3722222261130809783935546875" lon="2.836274094879627227783203125">
        <ele>165.8000030517578125</ele>
        <time>2020-08-08T06:53:44.000Z</time>
      </trkpt>
      <trkpt lat="42.3721424303948879241943359375" lon="2.8364781104028224945068359375">
        <ele>165.1999969482421875</ele>
        <time>2020-08-08T06:53:49.000Z</time>
      </trkpt>
      <trkpt lat="42.3721206374466419219970703125" lon="2.83652119338512420654296875">
        <ele>165</ele>
        <time>2020-08-08T06:53:50.000Z</time>
      </trkpt>
      <trkpt lat="42.37205601297318935394287109375" lon="2.836654968559741973876953125">
        <ele>164</ele>
        <time>2020-08-08T06:53:53.000Z</time>
      </trkpt>
      <trkpt lat="42.37203396856784820556640625" lon="2.8366987220942974090576171875">
        <ele>163.8000030517578125</ele>
        <time>2020-08-08T06:53:54.000Z</time>
      </trkpt>
      <trkpt lat="42.37199046649038791656494140625" lon="2.83678832463920116424560546875">
        <ele>163.600006103515625</ele>
        <time>2020-08-08T06:53:56.000Z</time>
      </trkpt>
      <trkpt lat="42.37193162553012371063232421875" lon="2.836913801729679107666015625">
        <ele>162.8000030517578125</ele>
        <time>2020-08-08T06:53:59.000Z</time>
      </trkpt>
      <trkpt lat="42.3718926496803760528564453125" lon="2.836980856955051422119140625">
        <ele>162</ele>
        <time>2020-08-08T06:54:01.000Z</time>
      </trkpt>
      <trkpt lat="42.37187060527503490447998046875" lon="2.83701212145388126373291015625">
        <ele>161.600006103515625</ele>
        <time>2020-08-08T06:54:02.000Z</time>
      </trkpt>
      <trkpt lat="42.37176038324832916259765625" lon="2.837098203599452972412109375">
        <ele>161.1999969482421875</ele>
        <time>2020-08-08T06:54:06.000Z</time>
      </trkpt>
      <trkpt lat="42.37169978208839893341064453125" lon="2.83709107898175716400146484375">
        <ele>160.1999969482421875</ele>
        <time>2020-08-08T06:54:08.000Z</time>
      </trkpt>
      <trkpt lat="42.37161193974316120147705078125" lon="2.83702947199344635009765625">
        <ele>159.1999969482421875</ele>
        <time>2020-08-08T06:54:11.000Z</time>
      </trkpt>
      <trkpt lat="42.3715791665017604827880859375" lon="2.8368834592401981353759765625">
        <ele>158.399993896484375</ele>
        <time>2020-08-08T06:54:15.000Z</time>
      </trkpt>
      <trkpt lat="42.3715878836810588836669921875" lon="2.836842723190784454345703125">
        <ele>158</ele>
        <time>2020-08-08T06:54:16.000Z</time>
      </trkpt>
      <trkpt lat="42.37163390032947063446044921875" lon="2.8367101214826107025146484375">
        <ele>157</ele>
        <time>2020-08-08T06:54:19.000Z</time>
      </trkpt>
      <trkpt lat="42.37165116705000400543212890625" lon="2.83665723167359828948974609375">
        <ele>156.8000030517578125</ele>
        <time>2020-08-08T06:54:20.000Z</time>
      </trkpt>
      <trkpt lat="42.37171880900859832763671875" lon="2.836447097361087799072265625">
        <ele>155.600006103515625</ele>
        <time>2020-08-08T06:54:24.000Z</time>
      </trkpt>
      <trkpt lat="42.3717213235795497894287109375" lon="2.8363963030278682708740234375">
        <ele>155.1999969482421875</ele>
        <time>2020-08-08T06:54:25.000Z</time>
      </trkpt>
      <trkpt lat="42.3717033863067626953125" lon="2.8362910263240337371826171875">
        <ele>154.399993896484375</ele>
        <time>2020-08-08T06:54:28.000Z</time>
      </trkpt>
      <trkpt lat="42.371695339679718017578125" lon="2.83627300523221492767333984375">
        <ele>154.1999969482421875</ele>
        <time>2020-08-08T06:54:29.000Z</time>
      </trkpt>
      <trkpt lat="42.37164010293781757354736328125" lon="2.8361703269183635711669921875">
        <ele>153.600006103515625</ele>
        <time>2020-08-08T06:54:35.000Z</time>
      </trkpt>
      <trkpt lat="42.37159408628940582275390625" lon="2.8361441753804683685302734375">
        <ele>153.1999969482421875</ele>
        <time>2020-08-08T06:54:37.000Z</time>
      </trkpt>
      <trkpt lat="42.37151672132313251495361328125" lon="2.83614073880016803741455078125">
        <ele>153</ele>
        <time>2020-08-08T06:54:40.000Z</time>
      </trkpt>
      <trkpt lat="42.37148503772914409637451171875" lon="2.83614434301853179931640625">
        <ele>152.1999969482421875</ele>
        <time>2020-08-08T06:54:43.000Z</time>
      </trkpt>
      <trkpt lat="42.37147363834083080291748046875" lon="2.83614811487495899200439453125">
        <ele>152</ele>
        <time>2020-08-08T06:54:52.000Z</time>
      </trkpt>
      <trkpt lat="42.37143315374851226806640625" lon="2.83618398942053318023681640625">
        <ele>151.8000030517578125</ele>
        <time>2020-08-08T06:55:02.000Z</time>
      </trkpt>
      <trkpt lat="42.37134438939392566680908203125" lon="2.83627870492637157440185546875">
        <ele>150.8000030517578125</ele>
        <time>2020-08-08T06:55:06.000Z</time>
      </trkpt>
      <trkpt lat="42.37132393755018711090087890625" lon="2.836301587522029876708984375">
        <ele>150.399993896484375</ele>
        <time>2020-08-08T06:55:07.000Z</time>
      </trkpt>
      <trkpt lat="42.37125520594418048858642578125" lon="2.8364013321697711944580078125">
        <ele>149.1999969482421875</ele>
        <time>2020-08-08T06:55:10.000Z</time>
      </trkpt>
      <trkpt lat="42.37119418568909168243408203125" lon="2.8365042619407176971435546875">
        <ele>148.600006103515625</ele>
        <time>2020-08-08T06:55:13.000Z</time>
      </trkpt>
      <trkpt lat="42.37112947739660739898681640625" lon="2.83657106570899486541748046875">
        <ele>148</ele>
        <time>2020-08-08T06:55:16.000Z</time>
      </trkpt>
      <trkpt lat="42.371068038046360015869140625" lon="2.83658330328762531280517578125">
        <ele>147.8000030517578125</ele>
        <time>2020-08-08T06:55:18.000Z</time>
      </trkpt>
      <trkpt lat="42.37094272859394550323486328125" lon="2.8366226144134998321533203125">
        <ele>146.600006103515625</ele>
        <time>2020-08-08T06:55:22.000Z</time>
      </trkpt>
      <trkpt lat="42.3709180019795894622802734375" lon="2.8366450779139995574951171875">
        <ele>146.1999969482421875</ele>
        <time>2020-08-08T06:55:23.000Z</time>
      </trkpt>
      <trkpt lat="42.37086226232349872589111328125" lon="2.836823277175426483154296875">
        <ele>145.1999969482421875</ele>
        <time>2020-08-08T06:55:27.000Z</time>
      </trkpt>
      <trkpt lat="42.37086108885705471038818359375" lon="2.836994268000125885009765625">
        <ele>144</ele>
        <time>2020-08-08T06:55:30.000Z</time>
      </trkpt>
      <trkpt lat="42.37086075358092784881591796875" lon="2.8370376862585544586181640625">
        <ele>143.8000030517578125</ele>
        <time>2020-08-08T06:55:31.000Z</time>
      </trkpt>
      <trkpt lat="42.37087081186473369598388671875" lon="2.837243378162384033203125">
        <ele>142.8000030517578125</ele>
        <time>2020-08-08T06:55:35.000Z</time>
      </trkpt>
      <trkpt lat="42.3708700574934482574462890625" lon="2.83730079419910907745361328125">
        <ele>142.8000030517578125</ele>
        <time>2020-08-08T06:55:36.000Z</time>
      </trkpt>
      <trkpt lat="42.370862849056720733642578125" lon="2.83736064098775386810302734375">
        <ele>142.600006103515625</ele>
        <time>2020-08-08T06:55:37.000Z</time>
      </trkpt>
      <trkpt lat="42.3708405531942844390869140625" lon="2.83753079362213611602783203125">
        <ele>141.8000030517578125</ele>
        <time>2020-08-08T06:55:40.000Z</time>
      </trkpt>
      <trkpt lat="42.37083099782466888427734375" lon="2.8376354835927486419677734375">
        <ele>140.8000030517578125</ele>
        <time>2020-08-08T06:55:42.000Z</time>
      </trkpt>
      <trkpt lat="42.3708281479775905609130859375" lon="2.83769289962947368621826171875">
        <ele>140.399993896484375</ele>
        <time>2020-08-08T06:55:43.000Z</time>
      </trkpt>
      <trkpt lat="42.370826303958892822265625" lon="2.8378047980368137359619140625">
        <ele>139.600006103515625</ele>
        <time>2020-08-08T06:55:45.000Z</time>
      </trkpt>
      <trkpt lat="42.37082965672016143798828125" lon="2.8379528224468231201171875">
        <ele>138.399993896484375</ele>
        <time>2020-08-08T06:55:48.000Z</time>
      </trkpt>
      <trkpt lat="42.37082253210246562957763671875" lon="2.8380837477743625640869140625">
        <ele>137.1999969482421875</ele>
        <time>2020-08-08T06:55:51.000Z</time>
      </trkpt>
      <trkpt lat="42.370828650891780853271484375" lon="2.83812423236668109893798828125">
        <ele>137</ele>
        <time>2020-08-08T06:55:52.000Z</time>
      </trkpt>
      <trkpt lat="42.3708697222173213958740234375" lon="2.83826873637735843658447265625">
        <ele>137.600006103515625</ele>
        <time>2020-08-08T06:55:57.000Z</time>
      </trkpt>
      <trkpt lat="42.3709086142480373382568359375" lon="2.83838666975498199462890625">
        <ele>138.399993896484375</ele>
        <time>2020-08-08T06:56:01.000Z</time>
      </trkpt>
      <trkpt lat="42.3709320835769176483154296875" lon="2.838440649211406707763671875">
        <ele>138.600006103515625</ele>
        <time>2020-08-08T06:56:03.000Z</time>
      </trkpt>
      <trkpt lat="42.37098212353885173797607421875" lon="2.8386121429502964019775390625">
        <ele>139.1999969482421875</ele>
        <time>2020-08-08T06:56:09.000Z</time>
      </trkpt>
      <trkpt lat="42.37101464532315731048583984375" lon="2.83876041881740093231201171875">
        <ele>139.1999969482421875</ele>
        <time>2020-08-08T06:56:14.000Z</time>
      </trkpt>
      <trkpt lat="42.37101749517023563385009765625" lon="2.8388272225856781005859375">
        <ele>139.399993896484375</ele>
        <time>2020-08-08T06:56:16.000Z</time>
      </trkpt>
      <trkpt lat="42.3710226081311702728271484375" lon="2.83895974047482013702392578125">
        <ele>140</ele>
        <time>2020-08-08T06:56:20.000Z</time>
      </trkpt>
      <trkpt lat="42.37098447047173976898193359375" lon="2.8391412086784839630126953125">
        <ele>140.399993896484375</ele>
        <time>2020-08-08T06:56:26.000Z</time>
      </trkpt>
      <trkpt lat="42.37097592093050479888916015625" lon="2.8391643427312374114990234375">
        <ele>140.399993896484375</ele>
        <time>2020-08-08T06:56:27.000Z</time>
      </trkpt>
      <trkpt lat="42.37090333364903926849365234375" lon="2.83925243653357028961181640625">
        <ele>140.8000030517578125</ele>
        <time>2020-08-08T06:56:32.000Z</time>
      </trkpt>
      <trkpt lat="42.37082622013986110687255859375" lon="2.83925729803740978240966796875">
        <ele>141.399993896484375</ele>
        <time>2020-08-08T06:56:36.000Z</time>
      </trkpt>
      <trkpt lat="42.370808534324169158935546875" lon="2.8392461501061916351318359375">
        <ele>141.600006103515625</ele>
        <time>2020-08-08T06:56:37.000Z</time>
      </trkpt>
      <trkpt lat="42.3707319237291812896728515625" lon="2.83911899663507938385009765625">
        <ele>142.399993896484375</ele>
        <time>2020-08-08T06:56:43.000Z</time>
      </trkpt>
      <trkpt lat="42.3707014136016368865966796875" lon="2.8390516899526119232177734375">
        <ele>143</ele>
        <time>2020-08-08T06:56:46.000Z</time>
      </trkpt>
      <trkpt lat="42.3706561513245105743408203125" lon="2.8390094451606273651123046875">
        <ele>143.399993896484375</ele>
        <time>2020-08-08T06:56:49.000Z</time>
      </trkpt>
      <trkpt lat="42.37063921988010406494140625" lon="2.83900030888617038726806640625">
        <ele>143.399993896484375</ele>
        <time>2020-08-08T06:56:50.000Z</time>
      </trkpt>
      <trkpt lat="42.3705689795315265655517578125" lon="2.8390124626457691192626953125">
        <ele>144</ele>
        <time>2020-08-08T06:56:54.000Z</time>
      </trkpt>
      <trkpt lat="42.37049580551683902740478515625" lon="2.83903467468917369842529296875">
        <ele>144.600006103515625</ele>
        <time>2020-08-08T06:56:58.000Z</time>
      </trkpt>
      <trkpt lat="42.37044149078428745269775390625" lon="2.8390463255345821380615234375">
        <ele>144.8000030517578125</ele>
        <time>2020-08-08T06:57:01.000Z</time>
      </trkpt>
      <trkpt lat="42.37033654935657978057861328125" lon="2.83898589201271533966064453125">
        <ele>145.1999969482421875</ele>
        <time>2020-08-08T06:57:07.000Z</time>
      </trkpt>
      <trkpt lat="42.3702578432857990264892578125" lon="2.8389091975986957550048828125">
        <ele>145.399993896484375</ele>
        <time>2020-08-08T06:57:12.000Z</time>
      </trkpt>
      <trkpt lat="42.37023814581334590911865234375" lon="2.8389004804193973541259765625">
        <ele>145.399993896484375</ele>
        <time>2020-08-08T06:57:13.000Z</time>
      </trkpt>
      <trkpt lat="42.370164804160594940185546875" lon="2.83890693448483943939208984375">
        <ele>146</ele>
        <time>2020-08-08T06:57:17.000Z</time>
      </trkpt>
      <trkpt lat="42.37015063874423503875732421875" lon="2.8389229439198970794677734375">
        <ele>146.1999969482421875</ele>
        <time>2020-08-08T06:57:18.000Z</time>
      </trkpt>
      <trkpt lat="42.370075620710849761962890625" lon="2.8390283882617950439453125">
        <ele>146.600006103515625</ele>
        <time>2020-08-08T06:57:24.000Z</time>
      </trkpt>
      <trkpt lat="42.3700482957065105438232421875" lon="2.83906736411154270172119140625">
        <ele>147</ele>
        <time>2020-08-08T06:57:26.000Z</time>
      </trkpt>
      <trkpt lat="42.36997378058731555938720703125" lon="2.83923801966011524200439453125">
        <ele>147.399993896484375</ele>
        <time>2020-08-08T06:57:33.000Z</time>
      </trkpt>
      <trkpt lat="42.36995014362037181854248046875" lon="2.83928412012755870819091796875">
        <ele>147.600006103515625</ele>
        <time>2020-08-08T06:57:35.000Z</time>
      </trkpt>
      <trkpt lat="42.3698856867849826812744140625" lon="2.83942007459700107574462890625">
        <ele>148.1999969482421875</ele>
        <time>2020-08-08T06:57:41.000Z</time>
      </trkpt>
      <trkpt lat="42.369836904108524322509765625" lon="2.839507497847080230712890625">
        <ele>148.600006103515625</ele>
        <time>2020-08-08T06:57:45.000Z</time>
      </trkpt>
      <trkpt lat="42.369804717600345611572265625" lon="2.839547730982303619384765625">
        <ele>149</ele>
        <time>2020-08-08T06:57:47.000Z</time>
      </trkpt>
      <trkpt lat="42.36970178782939910888671875" lon="2.83965191803872585296630859375">
        <ele>149.399993896484375</ele>
        <time>2020-08-08T06:57:53.000Z</time>
      </trkpt>
      <trkpt lat="42.36961402930319309234619140625" lon="2.83972442150115966796875">
        <ele>149.8000030517578125</ele>
        <time>2020-08-08T06:57:58.000Z</time>
      </trkpt>
      <trkpt lat="42.36953557468950748443603515625" lon="2.8397601284086704254150390625">
        <ele>149.8000030517578125</ele>
        <time>2020-08-08T06:58:02.000Z</time>
      </trkpt>
      <trkpt lat="42.36937246285378932952880859375" lon="2.83981821499764919281005859375">
        <ele>150.1999969482421875</ele>
        <time>2020-08-08T06:58:09.000Z</time>
      </trkpt>
      <trkpt lat="42.3691983707249164581298828125" lon="2.83986465074121952056884765625">
        <ele>149.8000030517578125</ele>
        <time>2020-08-08T06:58:15.000Z</time>
      </trkpt>
      <trkpt lat="42.3690521903336048126220703125" lon="2.83996380865573883056640625">
        <ele>149.399993896484375</ele>
        <time>2020-08-08T06:58:20.000Z</time>
      </trkpt>
      <trkpt lat="42.36900173127651214599609375" lon="2.8401446901261806488037109375">
        <ele>149.399993896484375</ele>
        <time>2020-08-08T06:58:25.000Z</time>
      </trkpt>
      <trkpt lat="42.36894850619137287139892578125" lon="2.84039053134620189666748046875">
        <ele>149.600006103515625</ele>
        <time>2020-08-08T06:58:32.000Z</time>
      </trkpt>
      <trkpt lat="42.3688704706728458404541015625" lon="2.8406214527785778045654296875">
        <ele>149.600006103515625</ele>
        <time>2020-08-08T06:58:39.000Z</time>
      </trkpt>
      <trkpt lat="42.3687041737139225006103515625" lon="2.84085539169609546661376953125">
        <ele>150.1999969482421875</ele>
        <time>2020-08-08T06:58:48.000Z</time>
      </trkpt>
      <trkpt lat="42.36853930167853832244873046875" lon="2.8410105407238006591796875">
        <ele>150.399993896484375</ele>
        <time>2020-08-08T06:58:55.000Z</time>
      </trkpt>
      <trkpt lat="42.368519268929958343505859375" lon="2.841032333672046661376953125">
        <ele>150.600006103515625</ele>
        <time>2020-08-08T06:58:56.000Z</time>
      </trkpt>
      <trkpt lat="42.36838817596435546875" lon="2.84115948714315891265869140625">
        <ele>150.600006103515625</ele>
        <time>2020-08-08T06:59:02.000Z</time>
      </trkpt>
      <trkpt lat="42.368192709982395172119140625" lon="2.841363586485385894775390625">
        <ele>150.8000030517578125</ele>
        <time>2020-08-08T06:59:11.000Z</time>
      </trkpt>
      <trkpt lat="42.36805734224617481231689453125" lon="2.841536588966846466064453125">
        <ele>151.1999969482421875</ele>
        <time>2020-08-08T06:59:19.000Z</time>
      </trkpt>
      <trkpt lat="42.36803119070827960968017578125" lon="2.84158243797719478607177734375">
        <ele>151.399993896484375</ele>
        <time>2020-08-08T06:59:21.000Z</time>
      </trkpt>
      <trkpt lat="42.36792876385152339935302734375" lon="2.8417248465120792388916015625">
        <ele>151.8000030517578125</ele>
        <time>2020-08-08T06:59:27.000Z</time>
      </trkpt>
      <trkpt lat="42.3678160272538661956787109375" lon="2.84180053509771823883056640625">
        <ele>151.399993896484375</ele>
        <time>2020-08-08T06:59:32.000Z</time>
      </trkpt>
      <trkpt lat="42.36769591458141803741455078125" lon="2.84173750318586826324462890625">
        <ele>152.1999969482421875</ele>
        <time>2020-08-08T06:59:38.000Z</time>
      </trkpt>
      <trkpt lat="42.36766858957707881927490234375" lon="2.841708250343799591064453125">
        <ele>152.600006103515625</ele>
        <time>2020-08-08T06:59:40.000Z</time>
      </trkpt>
      <trkpt lat="42.36763271503150463104248046875" lon="2.8416339866816997528076171875">
        <ele>153.600006103515625</ele>
        <time>2020-08-08T06:59:44.000Z</time>
      </trkpt>
      <trkpt lat="42.367625422775745391845703125" lon="2.8416148759424686431884765625">
        <ele>153.600006103515625</ele>
        <time>2020-08-08T06:59:45.000Z</time>
      </trkpt>
      <trkpt lat="42.367595247924327850341796875" lon="2.84146777354180812835693359375">
        <ele>154</ele>
        <time>2020-08-08T06:59:51.000Z</time>
      </trkpt>
      <trkpt lat="42.367587201297283172607421875" lon="2.8412990458309650421142578125">
        <ele>154.399993896484375</ele>
        <time>2020-08-08T06:59:57.000Z</time>
      </trkpt>
      <trkpt lat="42.36755006946623325347900390625" lon="2.84110508859157562255859375">
        <ele>155.399993896484375</ele>
        <time>2020-08-08T07:00:04.000Z</time>
      </trkpt>
      <trkpt lat="42.36754453741014003753662109375" lon="2.8410777635872364044189453125">
        <ele>155.600006103515625</ele>
        <time>2020-08-08T07:00:05.000Z</time>
      </trkpt>
      <trkpt lat="42.36749835312366485595703125" lon="2.84089378081262111663818359375">
        <ele>156.600006103515625</ele>
        <time>2020-08-08T07:00:12.000Z</time>
      </trkpt>
      <trkpt lat="42.36748904921114444732666015625" lon="2.84086964093148708343505859375">
        <ele>156.600006103515625</ele>
        <time>2020-08-08T07:00:13.000Z</time>
      </trkpt>
      <trkpt lat="42.367378659546375274658203125" lon="2.84069563262164592742919921875">
        <ele>157.399993896484375</ele>
        <time>2020-08-08T07:00:21.000Z</time>
      </trkpt>
      <trkpt lat="42.367286793887615203857421875" lon="2.84061918966472148895263671875">
        <ele>157.600006103515625</ele>
        <time>2020-08-08T07:00:26.000Z</time>
      </trkpt>
      <trkpt lat="42.3672386817634105682373046875" lon="2.84058935008943080902099609375">
        <ele>157.8000030517578125</ele>
        <time>2020-08-08T07:00:29.000Z</time>
      </trkpt>
      <trkpt lat="42.367126531898975372314453125" lon="2.84052011556923389434814453125">
        <ele>157.8000030517578125</ele>
        <time>2020-08-08T07:00:37.000Z</time>
      </trkpt>
      <trkpt lat="42.36700692214071750640869140625" lon="2.84045222215354442596435546875">
        <ele>157.8000030517578125</ele>
        <time>2020-08-08T07:00:44.000Z</time>
      </trkpt>
      <trkpt lat="42.3668162338435649871826171875" lon="2.84035407006740570068359375">
        <ele>157</ele>
        <time>2020-08-08T07:00:51.000Z</time>
      </trkpt>
      <trkpt lat="42.36664943397045135498046875" lon="2.840326912701129913330078125">
        <ele>157</ele>
        <time>2020-08-08T07:00:57.000Z</time>
      </trkpt>
      <trkpt lat="42.36642505042254924774169921875" lon="2.84030118025839328765869140625">
        <ele>157.399993896484375</ele>
        <time>2020-08-08T07:01:06.000Z</time>
      </trkpt>
      <trkpt lat="42.3662586696445941925048828125" lon="2.84026966430246829986572265625">
        <ele>157.8000030517578125</ele>
        <time>2020-08-08T07:01:13.000Z</time>
      </trkpt>
      <trkpt lat="42.3661989904940128326416015625" lon="2.840243764221668243408203125">
        <ele>158</ele>
        <time>2020-08-08T07:01:19.000Z</time>
      </trkpt>
      <trkpt lat="42.366126738488674163818359375" lon="2.8402231447398662567138671875">
        <ele>158.399993896484375</ele>
        <time>2020-08-08T07:01:25.000Z</time>
      </trkpt>
      <trkpt lat="42.3661101423203945159912109375" lon="2.84021836705505847930908203125">
        <ele>158.399993896484375</ele>
        <time>2020-08-08T07:01:26.000Z</time>
      </trkpt>
      <trkpt lat="42.366021461784839630126953125" lon="2.84016841091215610504150390625">
        <ele>158.8000030517578125</ele>
        <time>2020-08-08T07:01:32.000Z</time>
      </trkpt>
      <trkpt lat="42.36599338240921497344970703125" lon="2.840150892734527587890625">
        <ele>159.1999969482421875</ele>
        <time>2020-08-08T07:01:34.000Z</time>
      </trkpt>
      <trkpt lat="42.36597829498350620269775390625" lon="2.840144522488117218017578125">
        <ele>159.399993896484375</ele>
        <time>2020-08-08T07:01:35.000Z</time>
      </trkpt>
      <trkpt lat="42.36595205962657928466796875" lon="2.840136475861072540283203125">
        <ele>159.8000030517578125</ele>
        <time>2020-08-08T07:01:37.000Z</time>
      </trkpt>
      <trkpt lat="42.3658653907477855682373046875" lon="2.8401078097522258758544921875">
        <ele>160.600006103515625</ele>
        <time>2020-08-08T07:01:42.000Z</time>
      </trkpt>
      <trkpt lat="42.365759946405887603759765625" lon="2.84005743451416492462158203125">
        <ele>161.600006103515625</ele>
        <time>2020-08-08T07:01:48.000Z</time>
      </trkpt>
      <trkpt lat="42.36574343405663967132568359375" lon="2.84005173482000827789306640625">
        <ele>161.8000030517578125</ele>
        <time>2020-08-08T07:01:49.000Z</time>
      </trkpt>
      <trkpt lat="42.36568978987634181976318359375" lon="2.84001368097960948944091796875">
        <ele>162.399993896484375</ele>
        <time>2020-08-08T07:01:53.000Z</time>
      </trkpt>
      <trkpt lat="42.3656474612653255462646484375" lon="2.8400008566677570343017578125">
        <ele>162.600006103515625</ele>
        <time>2020-08-08T07:01:56.000Z</time>
      </trkpt>
      <trkpt lat="42.36562374047935009002685546875" lon="2.83998702652752399444580078125">
        <ele>163</ele>
        <time>2020-08-08T07:01:58.000Z</time>
      </trkpt>
      <trkpt lat="42.36558853648602962493896484375" lon="2.8399644792079925537109375">
        <ele>163.8000030517578125</ele>
        <time>2020-08-08T07:02:01.000Z</time>
      </trkpt>
      <trkpt lat="42.3655757121741771697998046875" lon="2.83995567820966243743896484375">
        <ele>163.8000030517578125</ele>
        <time>2020-08-08T07:02:02.000Z</time>
      </trkpt>
      <trkpt lat="42.36549801193177700042724609375" lon="2.8398848511278629302978515625">
        <ele>164.8000030517578125</ele>
        <time>2020-08-08T07:02:08.000Z</time>
      </trkpt>
      <trkpt lat="42.36547605134546756744384765625" lon="2.839855514466762542724609375">
        <ele>165</ele>
        <time>2020-08-08T07:02:10.000Z</time>
      </trkpt>
      <trkpt lat="42.3654265142977237701416015625" lon="2.8397859446704387664794921875">
        <ele>165.8000030517578125</ele>
        <time>2020-08-08T07:02:15.000Z</time>
      </trkpt>
      <trkpt lat="42.36541050486266613006591796875" lon="2.839753925800323486328125">
        <ele>166</ele>
        <time>2020-08-08T07:02:17.000Z</time>
      </trkpt>
      <trkpt lat="42.36537932418286800384521484375" lon="2.8396974317729473114013671875">
        <ele>167.1999969482421875</ele>
        <time>2020-08-08T07:02:21.000Z</time>
      </trkpt>
      <trkpt lat="42.36535124480724334716796875" lon="2.8396414406597614288330078125">
        <ele>167.8000030517578125</ele>
        <time>2020-08-08T07:02:25.000Z</time>
      </trkpt>
      <trkpt lat="42.36530841328203678131103515625" lon="2.8395556099712848663330078125">
        <ele>168.399993896484375</ele>
        <time>2020-08-08T07:02:30.000Z</time>
      </trkpt>
      <trkpt lat="42.365282513201236724853515625" lon="2.83952401019632816314697265625">
        <ele>168.8000030517578125</ele>
        <time>2020-08-08T07:02:32.000Z</time>
      </trkpt>
      <trkpt lat="42.3652290366590023040771484375" lon="2.8394704498350620269775390625">
        <ele>169.399993896484375</ele>
        <time>2020-08-08T07:02:36.000Z</time>
      </trkpt>
      <trkpt lat="42.36516290344297885894775390625" lon="2.8394054062664508819580078125">
        <ele>170</ele>
        <time>2020-08-08T07:02:41.000Z</time>
      </trkpt>
      <trkpt lat="42.3651467263698577880859375" lon="2.8393987007439136505126953125">
        <ele>170.1999969482421875</ele>
        <time>2020-08-08T07:02:42.000Z</time>
      </trkpt>
      <trkpt lat="42.3651150427758693695068359375" lon="2.8393919952213764190673828125">
        <ele>170.399993896484375</ele>
        <time>2020-08-08T07:02:44.000Z</time>
      </trkpt>
      <trkpt lat="42.36508294008672237396240234375" lon="2.839395515620708465576171875">
        <ele>170.8000030517578125</ele>
        <time>2020-08-08T07:02:46.000Z</time>
      </trkpt>
      <trkpt lat="42.36504002474248409271240234375" lon="2.8393797576427459716796875">
        <ele>171.600006103515625</ele>
        <time>2020-08-08T07:02:49.000Z</time>
      </trkpt>
      <trkpt lat="42.365033738315105438232421875" lon="2.83933977596461772918701171875">
        <ele>172</ele>
        <time>2020-08-08T07:02:51.000Z</time>
      </trkpt>
      <trkpt lat="42.365041784942150115966796875" lon="2.83923550508916378021240234375">
        <ele>172.1999969482421875</ele>
        <time>2020-08-08T07:02:56.000Z</time>
      </trkpt>
      <trkpt lat="42.3650449700653553009033203125" lon="2.8391935117542743682861328125">
        <ele>172.1999969482421875</ele>
        <time>2020-08-08T07:02:58.000Z</time>
      </trkpt>
      <trkpt lat="42.36505745910108089447021484375" lon="2.8391288034617900848388671875">
        <ele>172.600006103515625</ele>
        <time>2020-08-08T07:03:01.000Z</time>
      </trkpt>
      <trkpt lat="42.3650801740586757659912109375" lon="2.838999889791011810302734375">
        <ele>173</ele>
        <time>2020-08-08T07:03:07.000Z</time>
      </trkpt>
      <trkpt lat="42.3651401884853839874267578125" lon="2.83885748125612735748291015625">
        <ele>173.600006103515625</ele>
        <time>2020-08-08T07:03:14.000Z</time>
      </trkpt>
      <trkpt lat="42.36514597199857234954833984375" lon="2.83883535303175449371337890625">
        <ele>173.600006103515625</ele>
        <time>2020-08-08T07:03:15.000Z</time>
      </trkpt>
      <trkpt lat="42.36519433557987213134765625" lon="2.838710211217403411865234375">
        <ele>174.399993896484375</ele>
        <time>2020-08-08T07:03:21.000Z</time>
      </trkpt>
      <trkpt lat="42.3652206547558307647705078125" lon="2.8386175073683261871337890625">
        <ele>174.8000030517578125</ele>
        <time>2020-08-08T07:03:25.000Z</time>
      </trkpt>
      <trkpt lat="42.36526407301425933837890625" lon="2.83851281739771366119384765625">
        <ele>175.399993896484375</ele>
        <time>2020-08-08T07:03:30.000Z</time>
      </trkpt>
      <trkpt lat="42.36531847156584262847900390625" lon="2.83838842995464801788330078125">
        <ele>175.8000030517578125</ele>
        <time>2020-08-08T07:03:36.000Z</time>
      </trkpt>
      <trkpt lat="42.3653291165828704833984375" lon="2.83836931921541690826416015625">
        <ele>176</ele>
        <time>2020-08-08T07:03:37.000Z</time>
      </trkpt>
      <trkpt lat="42.36539256758987903594970703125" lon="2.8381995856761932373046875">
        <ele>176.8000030517578125</ele>
        <time>2020-08-08T07:03:45.000Z</time>
      </trkpt>
      <trkpt lat="42.3654090799391269683837890625" lon="2.83815692178905010223388671875">
        <ele>176.8000030517578125</ele>
        <time>2020-08-08T07:03:47.000Z</time>
      </trkpt>
      <trkpt lat="42.3654593713581562042236328125" lon="2.838057763874530792236328125">
        <ele>177.399993896484375</ele>
        <time>2020-08-08T07:03:52.000Z</time>
      </trkpt>
      <trkpt lat="42.36549365334212779998779296875" lon="2.8379694186151027679443359375">
        <ele>178</ele>
        <time>2020-08-08T07:03:56.000Z</time>
      </trkpt>
      <trkpt lat="42.36553874798119068145751953125" lon="2.83785886131227016448974609375">
        <ele>178.600006103515625</ele>
        <time>2020-08-08T07:04:01.000Z</time>
      </trkpt>
      <trkpt lat="42.36558183096349239349365234375" lon="2.83775123767554759979248046875">
        <ele>179</ele>
        <time>2020-08-08T07:04:06.000Z</time>
      </trkpt>
      <trkpt lat="42.36560161225497722625732421875" lon="2.8377082385122776031494140625">
        <ele>179.399993896484375</ele>
        <time>2020-08-08T07:04:08.000Z</time>
      </trkpt>
      <trkpt lat="42.36566145904362201690673828125" lon="2.83754856325685977935791015625">
        <ele>179.8000030517578125</ele>
        <time>2020-08-08T07:04:15.000Z</time>
      </trkpt>
      <trkpt lat="42.36566950567066669464111328125" lon="2.8375255130231380462646484375">
        <ele>180</ele>
        <time>2020-08-08T07:04:16.000Z</time>
      </trkpt>
      <trkpt lat="42.36574016511440277099609375" lon="2.8373394347727298736572265625">
        <ele>180.8000030517578125</ele>
        <time>2020-08-08T07:04:24.000Z</time>
      </trkpt>
      <trkpt lat="42.36575030721724033355712890625" lon="2.837318480014801025390625">
        <ele>181</ele>
        <time>2020-08-08T07:04:25.000Z</time>
      </trkpt>
      <trkpt lat="42.36583412624895572662353515625" lon="2.8371550329029560089111328125">
        <ele>182</ele>
        <time>2020-08-08T07:04:33.000Z</time>
      </trkpt>
      <trkpt lat="42.36591861583292484283447265625" lon="2.83694841898977756500244140625">
        <ele>183</ele>
        <time>2020-08-08T07:04:42.000Z</time>
      </trkpt>
      <trkpt lat="42.365928255021572113037109375" lon="2.8369255363941192626953125">
        <ele>183</ele>
        <time>2020-08-08T07:04:43.000Z</time>
      </trkpt>
      <trkpt lat="42.36598416231572628021240234375" lon="2.83678446896374225616455078125">
        <ele>183.600006103515625</ele>
        <time>2020-08-08T07:04:49.000Z</time>
      </trkpt>
      <trkpt lat="42.3660377226769924163818359375" lon="2.8366568125784397125244140625">
        <ele>184</ele>
        <time>2020-08-08T07:04:54.000Z</time>
      </trkpt>
      <trkpt lat="42.366089858114719390869140625" lon="2.8365320898592472076416015625">
        <ele>184.600006103515625</ele>
        <time>2020-08-08T07:04:59.000Z</time>
      </trkpt>
      <trkpt lat="42.36616940237581729888916015625" lon="2.8363359533250331878662109375">
        <ele>184.8000030517578125</ele>
        <time>2020-08-08T07:05:07.000Z</time>
      </trkpt>
      <trkpt lat="42.36618046648800373077392578125" lon="2.836310304701328277587890625">
        <ele>185</ele>
        <time>2020-08-08T07:05:08.000Z</time>
      </trkpt>
      <trkpt lat="42.36623578704893589019775390625" lon="2.83613017760217189788818359375">
        <ele>185.399993896484375</ele>
        <time>2020-08-08T07:05:15.000Z</time>
      </trkpt>
      <trkpt lat="42.36626110039651393890380859375" lon="2.8359373100101947784423828125">
        <ele>186</ele>
        <time>2020-08-08T07:05:22.000Z</time>
      </trkpt>
      <trkpt lat="42.3662596754729747772216796875" lon="2.835913002490997314453125">
        <ele>186</ele>
        <time>2020-08-08T07:05:23.000Z</time>
      </trkpt>
      <trkpt lat="42.36626093275845050811767578125" lon="2.83580915071070194244384765625">
        <ele>186.399993896484375</ele>
        <time>2020-08-08T07:05:29.000Z</time>
      </trkpt>
      <trkpt lat="42.36625188030302524566650390625" lon="2.83577545545995235443115234375">
        <ele>186.399993896484375</ele>
        <time>2020-08-08T07:05:31.000Z</time>
      </trkpt>
      <trkpt lat="42.36624148674309253692626953125" lon="2.83570705913007259368896484375">
        <ele>186.600006103515625</ele>
        <time>2020-08-08T07:05:34.000Z</time>
      </trkpt>
      <trkpt lat="42.3661916144192218780517578125" lon="2.83552341163158416748046875">
        <ele>187</ele>
        <time>2020-08-08T07:05:42.000Z</time>
      </trkpt>
      <trkpt lat="42.36617979593575000762939453125" lon="2.8354763053357601165771484375">
        <ele>187.1999969482421875</ele>
        <time>2020-08-08T07:05:44.000Z</time>
      </trkpt>
      <trkpt lat="42.36613453365862369537353515625" lon="2.835255526006221771240234375">
        <ele>187.600006103515625</ele>
        <time>2020-08-08T07:05:53.000Z</time>
      </trkpt>
      <trkpt lat="42.3661091364920139312744140625" lon="2.8351054899394512176513671875">
        <ele>188.1999969482421875</ele>
        <time>2020-08-08T07:05:59.000Z</time>
      </trkpt>
      <trkpt lat="42.366089522838592529296875" lon="2.83500482328236103057861328125">
        <ele>188.600006103515625</ele>
        <time>2020-08-08T07:06:03.000Z</time>
      </trkpt>
      <trkpt lat="42.36605574376881122589111328125" lon="2.83482964150607585906982421875">
        <ele>188.8000030517578125</ele>
        <time>2020-08-08T07:06:10.000Z</time>
      </trkpt>
      <trkpt lat="42.366036884486675262451171875" lon="2.8347234427928924560546875">
        <ele>189</ele>
        <time>2020-08-08T07:06:15.000Z</time>
      </trkpt>
      <trkpt lat="42.3660290054976940155029296875" lon="2.83469536341726779937744140625">
        <ele>189.1999969482421875</ele>
        <time>2020-08-08T07:06:17.000Z</time>
      </trkpt>
      <trkpt lat="42.36600830219686031341552734375" lon="2.83458891324698925018310546875">
        <ele>189.399993896484375</ele>
        <time>2020-08-08T07:06:22.000Z</time>
      </trkpt>
      <trkpt lat="42.366004697978496551513671875" lon="2.83456427045166492462158203125">
        <ele>189.600006103515625</ele>
        <time>2020-08-08T07:06:23.000Z</time>
      </trkpt>
      <trkpt lat="42.3659713380038738250732421875" lon="2.83437634818255901336669921875">
        <ele>190</ele>
        <time>2020-08-08T07:06:30.000Z</time>
      </trkpt>
      <trkpt lat="42.365967817604541778564453125" lon="2.83435053192079067230224609375">
        <ele>190</ele>
        <time>2020-08-08T07:06:31.000Z</time>
      </trkpt>
      <trkpt lat="42.3659622855484485626220703125" lon="2.8341291658580303192138671875">
        <ele>190.1999969482421875</ele>
        <time>2020-08-08T07:06:37.000Z</time>
      </trkpt>
      <trkpt lat="42.36597544513642787933349609375" lon="2.83391836099326610565185546875">
        <ele>190.8000030517578125</ele>
        <time>2020-08-08T07:06:43.000Z</time>
      </trkpt>
      <trkpt lat="42.36596572212874889373779296875" lon="2.83383303321897983551025390625">
        <ele>191</ele>
        <time>2020-08-08T07:06:46.000Z</time>
      </trkpt>
      <trkpt lat="42.3659540712833404541015625" lon="2.83377268351614475250244140625">
        <ele>191</ele>
        <time>2020-08-08T07:06:49.000Z</time>
      </trkpt>
      <trkpt lat="42.365949712693691253662109375" lon="2.8337415866553783416748046875">
        <ele>190.8000030517578125</ele>
        <time>2020-08-08T07:06:56.000Z</time>
      </trkpt>
      <trkpt lat="42.36602590419352054595947265625" lon="2.8336041234433650970458984375">
        <ele>191.600006103515625</ele>
        <time>2020-08-08T08:20:23.000Z</time>
      </trkpt>
      <trkpt lat="42.36604618839919567108154296875" lon="2.83354201354086399078369140625">
        <ele>191.600006103515625</ele>
        <time>2020-08-08T08:20:26.000Z</time>
      </trkpt>
      <trkpt lat="42.3660880140960216522216796875" lon="2.8333563543856143951416015625">
        <ele>192</ele>
        <time>2020-08-08T08:20:33.000Z</time>
      </trkpt>
      <trkpt lat="42.366142831742763519287109375" lon="2.83309978432953357696533203125">
        <ele>192.1999969482421875</ele>
        <time>2020-08-08T08:20:40.000Z</time>
      </trkpt>
      <trkpt lat="42.366201840341091156005859375" lon="2.83277708105742931365966796875">
        <ele>192.600006103515625</ele>
        <time>2020-08-08T08:20:48.000Z</time>
      </trkpt>
      <trkpt lat="42.3662100546061992645263671875" lon="2.8327344171702861785888671875">
        <ele>192.600006103515625</ele>
        <time>2020-08-08T08:20:49.000Z</time>
      </trkpt>
      <trkpt lat="42.36628892831504344940185546875" lon="2.83234323374927043914794921875">
        <ele>192.8000030517578125</ele>
        <time>2020-08-08T08:20:59.000Z</time>
      </trkpt>
      <trkpt lat="42.3662864975631237030029296875" lon="2.8320695646107196807861328125">
        <ele>193</ele>
        <time>2020-08-08T08:21:06.000Z</time>
      </trkpt>
      <trkpt lat="42.36618767492473125457763671875" lon="2.83200125209987163543701171875">
        <ele>193.399993896484375</ele>
        <time>2020-08-08T08:21:10.000Z</time>
      </trkpt>
      <trkpt lat="42.3661014251410961151123046875" lon="2.83200611360371112823486328125">
        <ele>193.600006103515625</ele>
        <time>2020-08-08T08:21:13.000Z</time>
      </trkpt>
      <trkpt lat="42.3659575916826725006103515625" lon="2.83200259320437908172607421875">
        <ele>194.1999969482421875</ele>
        <time>2020-08-08T08:21:18.000Z</time>
      </trkpt>
      <trkpt lat="42.3658469505608081817626953125" lon="2.83200108446180820465087890625">
        <ele>194.8000030517578125</ele>
        <time>2020-08-08T08:21:22.000Z</time>
      </trkpt>
      <trkpt lat="42.36568786203861236572265625" lon="2.83198599703609943389892578125">
        <ele>195.600006103515625</ele>
        <time>2020-08-08T08:21:28.000Z</time>
      </trkpt>
      <trkpt lat="42.36558191478252410888671875" lon="2.83197292126715183258056640625">
        <ele>195.8000030517578125</ele>
        <time>2020-08-08T08:21:32.000Z</time>
      </trkpt>
      <trkpt lat="42.36547823064029216766357421875" lon="2.831960432231426239013671875">
        <ele>196.399993896484375</ele>
        <time>2020-08-08T08:21:36.000Z</time>
      </trkpt>
      <trkpt lat="42.365350909531116485595703125" lon="2.831946350634098052978515625">
        <ele>197</ele>
        <time>2020-08-08T08:21:41.000Z</time>
      </trkpt>
      <trkpt lat="42.365252338349819183349609375" lon="2.831934280693531036376953125">
        <ele>197.600006103515625</ele>
        <time>2020-08-08T08:21:45.000Z</time>
      </trkpt>
      <trkpt lat="42.36512535251677036285400390625" lon="2.8319207020103931427001953125">
        <ele>198</ele>
        <time>2020-08-08T08:21:50.000Z</time>
      </trkpt>
      <trkpt lat="42.36502225510776042938232421875" lon="2.83191718161106109619140625">
        <ele>198.399993896484375</ele>
        <time>2020-08-08T08:21:54.000Z</time>
      </trkpt>
      <trkpt lat="42.3648997955024242401123046875" lon="2.83190636895596981048583984375">
        <ele>199.1999969482421875</ele>
        <time>2020-08-08T08:21:59.000Z</time>
      </trkpt>
      <trkpt lat="42.36485109664499759674072265625" lon="2.8319017589092254638671875">
        <ele>199.399993896484375</ele>
        <time>2020-08-08T08:22:01.000Z</time>
      </trkpt>
      <trkpt lat="42.36467859707772731781005859375" lon="2.8318808041512966156005859375">
        <ele>200.399993896484375</ele>
        <time>2020-08-08T08:22:08.000Z</time>
      </trkpt>
      <trkpt lat="42.36462847329676151275634765625" lon="2.8318749368190765380859375">
        <ele>200.8000030517578125</ele>
        <time>2020-08-08T08:22:10.000Z</time>
      </trkpt>
      <trkpt lat="42.364431917667388916015625" lon="2.83183948136866092681884765625">
        <ele>201.600006103515625</ele>
        <time>2020-08-08T08:22:18.000Z</time>
      </trkpt>
      <trkpt lat="42.364310882985591888427734375" lon="2.83180863596498966217041015625">
        <ele>202.600006103515625</ele>
        <time>2020-08-08T08:22:23.000Z</time>
      </trkpt>
      <trkpt lat="42.3642875812947750091552734375" lon="2.8318040259182453155517578125">
        <ele>202.600006103515625</ele>
        <time>2020-08-08T08:22:24.000Z</time>
      </trkpt>
      <trkpt lat="42.3641501180827617645263671875" lon="2.831775359809398651123046875">
        <ele>203.8000030517578125</ele>
        <time>2020-08-08T08:22:30.000Z</time>
      </trkpt>
      <trkpt lat="42.36412757076323032379150390625" lon="2.831766307353973388671875">
        <ele>204</ele>
        <time>2020-08-08T08:22:31.000Z</time>
      </trkpt>
      <trkpt lat="42.36397527158260345458984375" lon="2.831706963479518890380859375">
        <ele>205</ele>
        <time>2020-08-08T08:22:38.000Z</time>
      </trkpt>
      <trkpt lat="42.36395557411015033721923828125" lon="2.8316950611770153045654296875">
        <ele>205.1999969482421875</ele>
        <time>2020-08-08T08:22:39.000Z</time>
      </trkpt>
      <trkpt lat="42.363881058990955352783203125" lon="2.83165373839437961578369140625">
        <ele>206</ele>
        <time>2020-08-08T08:22:43.000Z</time>
      </trkpt>
      <trkpt lat="42.363861612975597381591796875" lon="2.83164091408252716064453125">
        <ele>206.1999969482421875</ele>
        <time>2020-08-08T08:22:44.000Z</time>
      </trkpt>
      <trkpt lat="42.363751642405986785888671875" lon="2.83157494850456714630126953125">
        <ele>207.1999969482421875</ele>
        <time>2020-08-08T08:22:50.000Z</time>
      </trkpt>
      <trkpt lat="42.36373253166675567626953125" lon="2.831566818058490753173828125">
        <ele>207.1999969482421875</ele>
        <time>2020-08-08T08:22:51.000Z</time>
      </trkpt>
      <trkpt lat="42.36366321332752704620361328125" lon="2.83152868039906024932861328125">
        <ele>208.399993896484375</ele>
        <time>2020-08-08T08:22:55.000Z</time>
      </trkpt>
      <trkpt lat="42.36357788555324077606201171875" lon="2.8314886987209320068359375">
        <ele>209.1999969482421875</ele>
        <time>2020-08-08T08:23:00.000Z</time>
      </trkpt>
      <trkpt lat="42.36356112174689769744873046875" lon="2.83148040063679218292236328125">
        <ele>209.399993896484375</ele>
        <time>2020-08-08T08:23:01.000Z</time>
      </trkpt>
      <trkpt lat="42.36345299519598484039306640625" lon="2.83146514557301998138427734375">
        <ele>210.399993896484375</ele>
        <time>2020-08-08T08:23:07.000Z</time>
      </trkpt>
      <trkpt lat="42.36343472264707088470458984375" lon="2.83146346919238567352294921875">
        <ele>210.600006103515625</ele>
        <time>2020-08-08T08:23:08.000Z</time>
      </trkpt>
      <trkpt lat="42.36331033520400524139404296875" lon="2.83143362961709499359130859375">
        <ele>211.600006103515625</ele>
        <time>2020-08-08T08:23:15.000Z</time>
      </trkpt>
      <trkpt lat="42.3632919788360595703125" lon="2.8314322046935558319091796875">
        <ele>211.8000030517578125</ele>
        <time>2020-08-08T08:23:16.000Z</time>
      </trkpt>
      <trkpt lat="42.3632049746811389923095703125" lon="2.8314251638948917388916015625">
        <ele>212.8000030517578125</ele>
        <time>2020-08-08T08:23:21.000Z</time>
      </trkpt>
      <trkpt lat="42.36315409652888774871826171875" lon="2.83140244893729686737060546875">
        <ele>213</ele>
        <time>2020-08-08T08:23:24.000Z</time>
      </trkpt>
      <trkpt lat="42.3630825988948345184326171875" lon="2.831399850547313690185546875">
        <ele>213.8000030517578125</ele>
        <time>2020-08-08T08:23:28.000Z</time>
      </trkpt>
      <trkpt lat="42.36303004436194896697998046875" lon="2.83137805759906768798828125">
        <ele>214.399993896484375</ele>
        <time>2020-08-08T08:23:31.000Z</time>
      </trkpt>
      <trkpt lat="42.36295594833791255950927734375" lon="2.83135567791759967803955078125">
        <ele>215</ele>
        <time>2020-08-08T08:23:35.000Z</time>
      </trkpt>
      <trkpt lat="42.36290129832923412322998046875" lon="2.8313493914902210235595703125">
        <ele>215.399993896484375</ele>
        <time>2020-08-08T08:23:38.000Z</time>
      </trkpt>
      <trkpt lat="42.3628475703299045562744140625" lon="2.8313309513032436370849609375">
        <ele>216</ele>
        <time>2020-08-08T08:23:41.000Z</time>
      </trkpt>
      <trkpt lat="42.362771295011043548583984375" lon="2.831305302679538726806640625">
        <ele>216.600006103515625</ele>
        <time>2020-08-08T08:23:45.000Z</time>
      </trkpt>
      <trkpt lat="42.36272125504910945892333984375" lon="2.83129247836768627166748046875">
        <ele>217.1999969482421875</ele>
        <time>2020-08-08T08:23:48.000Z</time>
      </trkpt>
      <trkpt lat="42.36266794614493846893310546875" lon="2.83127856440842151641845703125">
        <ele>217.600006103515625</ele>
        <time>2020-08-08T08:23:51.000Z</time>
      </trkpt>
      <trkpt lat="42.3625753261148929595947265625" lon="2.83125928603112697601318359375">
        <ele>218.399993896484375</ele>
        <time>2020-08-08T08:23:56.000Z</time>
      </trkpt>
      <trkpt lat="42.36252293922007083892822265625" lon="2.831262052059173583984375">
        <ele>218.8000030517578125</ele>
        <time>2020-08-08T08:23:59.000Z</time>
      </trkpt>
      <trkpt lat="42.36240140162408351898193359375" lon="2.8312580287456512451171875">
        <ele>219.399993896484375</ele>
        <time>2020-08-08T08:24:06.000Z</time>
      </trkpt>
      <trkpt lat="42.3623845539987087249755859375" lon="2.831263728439807891845703125">
        <ele>219.600006103515625</ele>
        <time>2020-08-08T08:24:07.000Z</time>
      </trkpt>
      <trkpt lat="42.36229947768151760101318359375" lon="2.8312870301306247711181640625">
        <ele>220.600006103515625</ele>
        <time>2020-08-08T08:24:12.000Z</time>
      </trkpt>
      <trkpt lat="42.3622501082718372344970703125" lon="2.8313064761459827423095703125">
        <ele>220.8000030517578125</ele>
        <time>2020-08-08T08:24:15.000Z</time>
      </trkpt>
      <trkpt lat="42.3621183447539806365966796875" lon="2.83131142146885395050048828125">
        <ele>221.600006103515625</ele>
        <time>2020-08-08T08:24:22.000Z</time>
      </trkpt>
      <trkpt lat="42.36197425983846187591552734375" lon="2.8313537500798702239990234375">
        <ele>222.600006103515625</ele>
        <time>2020-08-08T08:24:30.000Z</time>
      </trkpt>
      <trkpt lat="42.36195565201342105865478515625" lon="2.83135450445115566253662109375">
        <ele>222.600006103515625</ele>
        <time>2020-08-08T08:24:31.000Z</time>
      </trkpt>
      <trkpt lat="42.3618383891880512237548828125" lon="2.83136372454464435577392578125">
        <ele>223.600006103515625</ele>
        <time>2020-08-08T08:24:38.000Z</time>
      </trkpt>
      <trkpt lat="42.36177393235266208648681640625" lon="2.83135752193629741668701171875">
        <ele>224</ele>
        <time>2020-08-08T08:24:42.000Z</time>
      </trkpt>
      <trkpt lat="42.36168877221643924713134765625" lon="2.83134059049189090728759765625">
        <ele>224.8000030517578125</ele>
        <time>2020-08-08T08:24:47.000Z</time>
      </trkpt>
      <trkpt lat="42.361637391149997711181640625" lon="2.8313192166388034820556640625">
        <ele>225.1999969482421875</ele>
        <time>2020-08-08T08:24:50.000Z</time>
      </trkpt>
      <trkpt lat="42.361538149416446685791015625" lon="2.8312848508358001708984375">
        <ele>225.600006103515625</ele>
        <time>2020-08-08T08:24:56.000Z</time>
      </trkpt>
      <trkpt lat="42.36148978583514690399169921875" lon="2.83125861547887325286865234375">
        <ele>226.1999969482421875</ele>
        <time>2020-08-08T08:24:59.000Z</time>
      </trkpt>
      <trkpt lat="42.36139205284416675567626953125" lon="2.831228859722614288330078125">
        <ele>226.600006103515625</ele>
        <time>2020-08-08T08:25:04.000Z</time>
      </trkpt>
      <trkpt lat="42.361252494156360626220703125" lon="2.8311854414641857147216796875">
        <ele>226.399993896484375</ele>
        <time>2020-08-08T08:25:09.000Z</time>
      </trkpt>
      <trkpt lat="42.361085526645183563232421875" lon="2.8311458788812160491943359375">
        <ele>225.1999969482421875</ele>
        <time>2020-08-08T08:25:13.000Z</time>
      </trkpt>
      <trkpt lat="42.36104705370962619781494140625" lon="2.8311254270374774932861328125">
        <ele>224.600006103515625</ele>
        <time>2020-08-08T08:25:14.000Z</time>
      </trkpt>
      <trkpt lat="42.36100547946989536285400390625" lon="2.83109642565250396728515625">
        <ele>223.600006103515625</ele>
        <time>2020-08-08T08:25:15.000Z</time>
      </trkpt>
      <trkpt lat="42.36091621220111846923828125" lon="2.8310154564678668975830078125">
        <ele>222.1999969482421875</ele>
        <time>2020-08-08T08:25:17.000Z</time>
      </trkpt>
      <trkpt lat="42.36086885444819927215576171875" lon="2.8309728763997554779052734375">
        <ele>221.600006103515625</ele>
        <time>2020-08-08T08:25:18.000Z</time>
      </trkpt>
      <trkpt lat="42.36082258634269237518310546875" lon="2.83093138597905635833740234375">
        <ele>221</ele>
        <time>2020-08-08T08:25:19.000Z</time>
      </trkpt>
      <trkpt lat="42.36072535626590251922607421875" lon="2.83085242845118045806884765625">
        <ele>219.600006103515625</ele>
        <time>2020-08-08T08:25:21.000Z</time>
      </trkpt>
      <trkpt lat="42.36061706207692623138427734375" lon="2.83076374791562557220458984375">
        <ele>218</ele>
        <time>2020-08-08T08:25:23.000Z</time>
      </trkpt>
      <trkpt lat="42.360489070415496826171875" lon="2.8306553699076175689697265625">
        <ele>216.600006103515625</ele>
        <time>2020-08-08T08:25:25.000Z</time>
      </trkpt>
      <trkpt lat="42.36042360775172710418701171875" lon="2.83059828914701938629150390625">
        <ele>215.600006103515625</ele>
        <time>2020-08-08T08:25:26.000Z</time>
      </trkpt>
      <trkpt lat="42.360353954136371612548828125" lon="2.83052955754101276397705078125">
        <ele>214.600006103515625</ele>
        <time>2020-08-08T08:25:27.000Z</time>
      </trkpt>
      <trkpt lat="42.36028379760682582855224609375" lon="2.8304461576044559478759765625">
        <ele>214</ele>
        <time>2020-08-08T08:25:28.000Z</time>
      </trkpt>
      <trkpt lat="42.36021623946726322174072265625" lon="2.8303569741547107696533203125">
        <ele>213</ele>
        <time>2020-08-08T08:25:29.000Z</time>
      </trkpt>
      <trkpt lat="42.36007592640817165374755859375" lon="2.8301628492772579193115234375">
        <ele>211</ele>
        <time>2020-08-08T08:25:31.000Z</time>
      </trkpt>
      <trkpt lat="42.3599303327500820159912109375" lon="2.82997618429362773895263671875">
        <ele>209.399993896484375</ele>
        <time>2020-08-08T08:25:33.000Z</time>
      </trkpt>
      <trkpt lat="42.3597056977450847625732421875" lon="2.82973654568195343017578125">
        <ele>208.399993896484375</ele>
        <time>2020-08-08T08:25:36.000Z</time>
      </trkpt>
      <trkpt lat="42.35963487066328525543212890625" lon="2.82967611216008663177490234375">
        <ele>208.399993896484375</ele>
        <time>2020-08-08T08:25:37.000Z</time>
      </trkpt>
      <trkpt lat="42.35951341688632965087890625" lon="2.8295754455029964447021484375">
        <ele>209.1999969482421875</ele>
        <time>2020-08-08T08:25:39.000Z</time>
      </trkpt>
      <trkpt lat="42.359466142952442169189453125" lon="2.829528339207172393798828125">
        <ele>209.600006103515625</ele>
        <time>2020-08-08T08:25:40.000Z</time>
      </trkpt>
      <trkpt lat="42.35938911326229572296142578125" lon="2.82944577746093273162841796875">
        <ele>210.1999969482421875</ele>
        <time>2020-08-08T08:25:42.000Z</time>
      </trkpt>
      <trkpt lat="42.35935340635478496551513671875" lon="2.8294141776859760284423828125">
        <ele>210.399993896484375</ele>
        <time>2020-08-08T08:25:43.000Z</time>
      </trkpt>
      <trkpt lat="42.3592933081090450286865234375" lon="2.82935843802988529205322265625">
        <ele>210.600006103515625</ele>
        <time>2020-08-08T08:25:45.000Z</time>
      </trkpt>
      <trkpt lat="42.35921829007565975189208984375" lon="2.82927118241786956787109375">
        <ele>210.8000030517578125</ele>
        <time>2020-08-08T08:25:48.000Z</time>
      </trkpt>
      <trkpt lat="42.359140925109386444091796875" lon="2.8291466273367404937744140625">
        <ele>211.1999969482421875</ele>
        <time>2020-08-08T08:25:53.000Z</time>
      </trkpt>
      <trkpt lat="42.35913245938718318939208984375" lon="2.82907881774008274078369140625">
        <ele>210.399993896484375</ele>
        <time>2020-08-08T08:25:57.000Z</time>
      </trkpt>
      <trkpt lat="42.35910572111606597900390625" lon="2.82907529734075069427490234375">
        <ele>210.1999969482421875</ele>
        <time>2020-08-08T08:26:07.000Z</time>
      </trkpt>
      <trkpt lat="42.35909909941256046295166015625" lon="2.82906959764659404754638671875">
        <ele>210.1999969482421875</ele>
        <time>2020-08-08T08:26:13.000Z</time>
      </trkpt>
      <trkpt lat="42.359093986451625823974609375" lon="2.829060293734073638916015625">
        <ele>210.1999969482421875</ele>
        <time>2020-08-08T08:26:20.000Z</time>
      </trkpt>
      <trkpt lat="42.359100021421909332275390625" lon="2.82905928790569305419921875">
        <ele>210</ele>
        <time>2020-08-08T08:26:35.000Z</time>
      </trkpt>
      <trkpt lat="42.35908535309135913848876953125" lon="2.8290125168859958648681640625">
        <ele>210.1999969482421875</ele>
        <time>2020-08-08T08:26:44.000Z</time>
      </trkpt>
      <trkpt lat="42.35906573943793773651123046875" lon="2.82890765927731990814208984375">
        <ele>209.8000030517578125</ele>
        <time>2020-08-08T08:26:50.000Z</time>
      </trkpt>
      <trkpt lat="42.359062135219573974609375" lon="2.82888469286262989044189453125">
        <ele>209.600006103515625</ele>
        <time>2020-08-08T08:26:51.000Z</time>
      </trkpt>
      <trkpt lat="42.35903858207166194915771484375" lon="2.82876013778150081634521484375">
        <ele>208.600006103515625</ele>
        <time>2020-08-08T08:26:56.000Z</time>
      </trkpt>
      <trkpt lat="42.35903439112007617950439453125" lon="2.82873096875846385955810546875">
        <ele>208.600006103515625</ele>
        <time>2020-08-08T08:26:57.000Z</time>
      </trkpt>
      <trkpt lat="42.35900069586932659149169921875" lon="2.82860674895346164703369140625">
        <ele>207.600006103515625</ele>
        <time>2020-08-08T08:27:01.000Z</time>
      </trkpt>
      <trkpt lat="42.358987368643283843994140625" lon="2.8285608999431133270263671875">
        <ele>207.399993896484375</ele>
        <time>2020-08-08T08:27:02.000Z</time>
      </trkpt>
      <trkpt lat="42.3589107580482959747314453125" lon="2.82831606455147266387939453125">
        <ele>206.600006103515625</ele>
        <time>2020-08-08T08:27:06.000Z</time>
      </trkpt>
      <trkpt lat="42.35888301394879817962646484375" lon="2.82824121415615081787109375">
        <ele>206</ele>
        <time>2020-08-08T08:27:07.000Z</time>
      </trkpt>
      <trkpt lat="42.35881428234279155731201171875" lon="2.828084640204906463623046875">
        <ele>205.1999969482421875</ele>
        <time>2020-08-08T08:27:09.000Z</time>
      </trkpt>
      <trkpt lat="42.35873113386332988739013671875" lon="2.827937789261341094970703125">
        <ele>204</ele>
        <time>2020-08-08T08:27:11.000Z</time>
      </trkpt>
      <trkpt lat="42.358688972890377044677734375" lon="2.82786897383630275726318359375">
        <ele>203.399993896484375</ele>
        <time>2020-08-08T08:27:12.000Z</time>
      </trkpt>
      <trkpt lat="42.35864748246967792510986328125" lon="2.827796638011932373046875">
        <ele>203</ele>
        <time>2020-08-08T08:27:13.000Z</time>
      </trkpt>
      <trkpt lat="42.35856902785599231719970703125" lon="2.82765473239123821258544921875">
        <ele>201.399993896484375</ele>
        <time>2020-08-08T08:27:15.000Z</time>
      </trkpt>
      <trkpt lat="42.35849711112678050994873046875" lon="2.827511318027973175048828125">
        <ele>200.399993896484375</ele>
        <time>2020-08-08T08:27:17.000Z</time>
      </trkpt>
      <trkpt lat="42.3584648407995700836181640625" lon="2.8274323605000972747802734375">
        <ele>200.1999969482421875</ele>
        <time>2020-08-08T08:27:18.000Z</time>
      </trkpt>
      <trkpt lat="42.3584403656423091888427734375" lon="2.82734711654484272003173828125">
        <ele>199.8000030517578125</ele>
        <time>2020-08-08T08:27:19.000Z</time>
      </trkpt>
      <trkpt lat="42.35842536203563213348388671875" lon="2.8272561728954315185546875">
        <ele>199.1999969482421875</ele>
        <time>2020-08-08T08:27:20.000Z</time>
      </trkpt>
      <trkpt lat="42.35841044224798679351806640625" lon="2.826927937567234039306640625">
        <ele>198</ele>
        <time>2020-08-08T08:27:23.000Z</time>
      </trkpt>
      <trkpt lat="42.3584108613431453704833984375" lon="2.82680430449545383453369140625">
        <ele>197</ele>
        <time>2020-08-08T08:27:24.000Z</time>
      </trkpt>
      <trkpt lat="42.35841237008571624755859375" lon="2.82667421735823154449462890625">
        <ele>195.8000030517578125</ele>
        <time>2020-08-08T08:27:25.000Z</time>
      </trkpt>
      <trkpt lat="42.358413375914096832275390625" lon="2.82640792429447174072265625">
        <ele>194.1999969482421875</ele>
        <time>2020-08-08T08:27:27.000Z</time>
      </trkpt>
      <trkpt lat="42.35840977169573307037353515625" lon="2.8262692876160144805908203125">
        <ele>193</ele>
        <time>2020-08-08T08:27:28.000Z</time>
      </trkpt>
      <trkpt lat="42.35839049331843852996826171875" lon="2.82600685022771358489990234375">
        <ele>191.8000030517578125</ele>
        <time>2020-08-08T08:27:30.000Z</time>
      </trkpt>
      <trkpt lat="42.3583474941551685333251953125" lon="2.82576612196862697601318359375">
        <ele>190.8000030517578125</ele>
        <time>2020-08-08T08:27:32.000Z</time>
      </trkpt>
      <trkpt lat="42.35832427628338336944580078125" lon="2.8256522119045257568359375">
        <ele>190.600006103515625</ele>
        <time>2020-08-08T08:27:33.000Z</time>
      </trkpt>
      <trkpt lat="42.358279936015605926513671875" lon="2.82534820027649402618408203125">
        <ele>189.1999969482421875</ele>
        <time>2020-08-08T08:27:36.000Z</time>
      </trkpt>
      <trkpt lat="42.35824431292712688446044921875" lon="2.8249734453856945037841796875">
        <ele>188.1999969482421875</ele>
        <time>2020-08-08T08:27:40.000Z</time>
      </trkpt>
      <trkpt lat="42.35823073424398899078369140625" lon="2.8248899616301059722900390625">
        <ele>188.1999969482421875</ele>
        <time>2020-08-08T08:27:41.000Z</time>
      </trkpt>
      <trkpt lat="42.35810584388673305511474609375" lon="2.8244425356388092041015625">
        <ele>187.600006103515625</ele>
        <time>2020-08-08T08:27:46.000Z</time>
      </trkpt>
      <trkpt lat="42.3580708913505077362060546875" lon="2.82434589229524135589599609375">
        <ele>187</ele>
        <time>2020-08-08T08:27:47.000Z</time>
      </trkpt>
      <trkpt lat="42.35801406204700469970703125" lon="2.82416115514934062957763671875">
        <ele>186</ele>
        <time>2020-08-08T08:27:49.000Z</time>
      </trkpt>
      <trkpt lat="42.35800459049642086029052734375" lon="2.82406141050159931182861328125">
        <ele>185.1999969482421875</ele>
        <time>2020-08-08T08:27:50.000Z</time>
      </trkpt>
      <trkpt lat="42.35803342424333095550537109375" lon="2.82384909689426422119140625">
        <ele>184.1999969482421875</ele>
        <time>2020-08-08T08:27:52.000Z</time>
      </trkpt>
      <trkpt lat="42.35806410200893878936767578125" lon="2.8237429820001125335693359375">
        <ele>183.600006103515625</ele>
        <time>2020-08-08T08:27:53.000Z</time>
      </trkpt>
      <trkpt lat="42.35808673314750194549560546875" lon="2.82364248298108577728271484375">
        <ele>183.1999969482421875</ele>
        <time>2020-08-08T08:27:54.000Z</time>
      </trkpt>
      <trkpt lat="42.358098216354846954345703125" lon="2.82346880994737148284912109375">
        <ele>181.8000030517578125</ele>
        <time>2020-08-08T08:27:56.000Z</time>
      </trkpt>
      <trkpt lat="42.358021438121795654296875" lon="2.8233669698238372802734375">
        <ele>181.399993896484375</ele>
        <time>2020-08-08T08:27:58.000Z</time>
      </trkpt>
      <trkpt lat="42.35790635459125041961669921875" lon="2.823360264301300048828125">
        <ele>180.8000030517578125</ele>
        <time>2020-08-08T08:28:00.000Z</time>
      </trkpt>
      <trkpt lat="42.3578459210693836212158203125" lon="2.82336353324353694915771484375">
        <ele>180.600006103515625</ele>
        <time>2020-08-08T08:28:01.000Z</time>
      </trkpt>
      <trkpt lat="42.35778984613716602325439453125" lon="2.82335598953068256378173828125">
        <ele>180.1999969482421875</ele>
        <time>2020-08-08T08:28:02.000Z</time>
      </trkpt>
      <trkpt lat="42.35769311897456645965576171875" lon="2.823296226561069488525390625">
        <ele>179.8000030517578125</ele>
        <time>2020-08-08T08:28:04.000Z</time>
      </trkpt>
      <trkpt lat="42.3576048575341701507568359375" lon="2.82309941947460174560546875">
        <ele>178.600006103515625</ele>
        <time>2020-08-08T08:28:07.000Z</time>
      </trkpt>
      <trkpt lat="42.357559092342853546142578125" lon="2.82294678501784801483154296875">
        <ele>178.399993896484375</ele>
        <time>2020-08-08T08:28:09.000Z</time>
      </trkpt>
      <trkpt lat="42.3575129918754100799560546875" lon="2.8227881155908107757568359375">
        <ele>177.399993896484375</ele>
        <time>2020-08-08T08:28:11.000Z</time>
      </trkpt>
      <trkpt lat="42.3574999161064624786376953125" lon="2.82270605675876140594482421875">
        <ele>177.399993896484375</ele>
        <time>2020-08-08T08:28:12.000Z</time>
      </trkpt>
      <trkpt lat="42.35749631188809871673583984375" lon="2.8224491514265537261962890625">
        <ele>177</ele>
        <time>2020-08-08T08:28:15.000Z</time>
      </trkpt>
      <trkpt lat="42.35749480314552783966064453125" lon="2.82237161882221698760986328125">
        <ele>177</ele>
        <time>2020-08-08T08:28:16.000Z</time>
      </trkpt>
      <trkpt lat="42.35742540098726749420166015625" lon="2.82213239930570125579833984375">
        <ele>176.600006103515625</ele>
        <time>2020-08-08T08:28:20.000Z</time>
      </trkpt>
      <trkpt lat="42.35728986561298370361328125" lon="2.821835093200206756591796875">
        <ele>176.600006103515625</ele>
        <time>2020-08-08T08:28:26.000Z</time>
      </trkpt>
      <trkpt lat="42.35725876875221729278564453125" lon="2.82178924418985843658447265625">
        <ele>176.600006103515625</ele>
        <time>2020-08-08T08:28:27.000Z</time>
      </trkpt>
      <trkpt lat="42.35710822977125644683837890625" lon="2.82162948511540889739990234375">
        <ele>176.399993896484375</ele>
        <time>2020-08-08T08:28:32.000Z</time>
      </trkpt>
      <trkpt lat="42.35704838298261165618896484375" lon="2.82158841378986835479736328125">
        <ele>176.399993896484375</ele>
        <time>2020-08-08T08:28:34.000Z</time>
      </trkpt>
      <trkpt lat="42.35694444738328456878662109375" lon="2.8214570693671703338623046875">
        <ele>176.399993896484375</ele>
        <time>2020-08-08T08:28:38.000Z</time>
      </trkpt>
      <trkpt lat="42.3569118417799472808837890625" lon="2.82126302830874919891357421875">
        <ele>176.399993896484375</ele>
        <time>2020-08-08T08:28:42.000Z</time>
      </trkpt>
      <trkpt lat="42.35692064277827739715576171875" lon="2.820900343358516693115234375">
        <ele>175.8000030517578125</ele>
        <time>2020-08-08T08:28:48.000Z</time>
      </trkpt>
      <trkpt lat="42.3568823374807834625244140625" lon="2.82069724984467029571533203125">
        <ele>175.1999969482421875</ele>
        <time>2020-08-08T08:28:51.000Z</time>
      </trkpt>
      <trkpt lat="42.3568659089505672454833984375" lon="2.8206284344196319580078125">
        <ele>175</ele>
        <time>2020-08-08T08:28:52.000Z</time>
      </trkpt>
      <trkpt lat="42.35680983401834964752197265625" lon="2.8203654102981090545654296875">
        <ele>174.399993896484375</ele>
        <time>2020-08-08T08:28:56.000Z</time>
      </trkpt>
      <trkpt lat="42.3567442037165164947509765625" lon="2.82007254660129547119140625">
        <ele>173.600006103515625</ele>
        <time>2020-08-08T08:29:00.000Z</time>
      </trkpt>
      <trkpt lat="42.35673272050917148590087890625" lon="2.8199927508831024169921875">
        <ele>173.399993896484375</ele>
        <time>2020-08-08T08:29:01.000Z</time>
      </trkpt>
      <trkpt lat="42.35669533722102642059326171875" lon="2.8196620009839534759521484375">
        <ele>172</ele>
        <time>2020-08-08T08:29:05.000Z</time>
      </trkpt>
      <trkpt lat="42.3566868714988231658935546875" lon="2.81959620304405689239501953125">
        <ele>171.399993896484375</ele>
        <time>2020-08-08T08:29:06.000Z</time>
      </trkpt>
      <trkpt lat="42.35667572356760501861572265625" lon="2.8195138089358806610107421875">
        <ele>170.8000030517578125</ele>
        <time>2020-08-08T08:29:08.000Z</time>
      </trkpt>
      <trkpt lat="42.35667002387344837188720703125" lon="2.81949050724506378173828125">
        <ele>170.600006103515625</ele>
        <time>2020-08-08T08:29:09.000Z</time>
      </trkpt>
      <trkpt lat="42.35666147433221340179443359375" lon="2.8194697201251983642578125">
        <ele>170.399993896484375</ele>
        <time>2020-08-08T08:29:10.000Z</time>
      </trkpt>
      <trkpt lat="42.35662057064473628997802734375" lon="2.81934726051986217498779296875">
        <ele>170</ele>
        <time>2020-08-08T08:29:14.000Z</time>
      </trkpt>
      <trkpt lat="42.35660347156226634979248046875" lon="2.81920082867145538330078125">
        <ele>169.600006103515625</ele>
        <time>2020-08-08T08:29:17.000Z</time>
      </trkpt>
      <trkpt lat="42.35660498030483722686767578125" lon="2.819085828959941864013671875">
        <ele>169.1999969482421875</ele>
        <time>2020-08-08T08:29:19.000Z</time>
      </trkpt>
      <trkpt lat="42.35666885040700435638427734375" lon="2.81895942986011505126953125">
        <ele>168.8000030517578125</ele>
        <time>2020-08-08T08:29:22.000Z</time>
      </trkpt>
      <trkpt lat="42.3567586205899715423583984375" lon="2.81891743652522563934326171875">
        <ele>168.399993896484375</ele>
        <time>2020-08-08T08:29:24.000Z</time>
      </trkpt>
      <trkpt lat="42.35681151039898395538330078125" lon="2.81890503130853176116943359375">
        <ele>168.1999969482421875</ele>
        <time>2020-08-08T08:29:25.000Z</time>
      </trkpt>
      <trkpt lat="42.35686280764639377593994140625" lon="2.8188942186534404754638671875">
        <ele>168</ele>
        <time>2020-08-08T08:29:26.000Z</time>
      </trkpt>
      <trkpt lat="42.35695903189480304718017578125" lon="2.81886429525911808013916015625">
        <ele>167.1999969482421875</ele>
        <time>2020-08-08T08:29:28.000Z</time>
      </trkpt>
      <trkpt lat="42.35705609433352947235107421875" lon="2.81881484203040599822998046875">
        <ele>166.399993896484375</ele>
        <time>2020-08-08T08:29:30.000Z</time>
      </trkpt>
      <trkpt lat="42.35710613429546356201171875" lon="2.81877972185611724853515625">
        <ele>166.1999969482421875</ele>
        <time>2020-08-08T08:29:31.000Z</time>
      </trkpt>
      <trkpt lat="42.3571591079235076904296875" lon="2.81874426640570163726806640625">
        <ele>166</ele>
        <time>2020-08-08T08:29:32.000Z</time>
      </trkpt>
      <trkpt lat="42.3573259077966213226318359375" lon="2.81862842850387096405029296875">
        <ele>165.1999969482421875</ele>
        <time>2020-08-08T08:29:35.000Z</time>
      </trkpt>
      <trkpt lat="42.35737293027341365814208984375" lon="2.81856623478233814239501953125">
        <ele>164.600006103515625</ele>
        <time>2020-08-08T08:29:36.000Z</time>
      </trkpt>
      <trkpt lat="42.3575314320623874664306640625" lon="2.81823925673961639404296875">
        <ele>163.399993896484375</ele>
        <time>2020-08-08T08:29:40.000Z</time>
      </trkpt>
      <trkpt lat="42.35763159580528736114501953125" lon="2.8180302120745182037353515625">
        <ele>162.1999969482421875</ele>
        <time>2020-08-08T08:29:43.000Z</time>
      </trkpt>
      <trkpt lat="42.357661016285419464111328125" lon="2.817980088293552398681640625">
        <ele>161.8000030517578125</ele>
        <time>2020-08-08T08:29:44.000Z</time>
      </trkpt>
      <trkpt lat="42.35772178508341312408447265625" lon="2.8178877197206020355224609375">
        <ele>161</ele>
        <time>2020-08-08T08:29:46.000Z</time>
      </trkpt>
      <trkpt lat="42.35786712728440761566162109375" lon="2.81770541332662105560302734375">
        <ele>160.1999969482421875</ele>
        <time>2020-08-08T08:29:50.000Z</time>
      </trkpt>
      <trkpt lat="42.357899732887744903564453125" lon="2.8176557086408138275146484375">
        <ele>160</ele>
        <time>2020-08-08T08:29:51.000Z</time>
      </trkpt>
      <trkpt lat="42.3580444045364856719970703125" lon="2.817440293729305267333984375">
        <ele>158.8000030517578125</ele>
        <time>2020-08-08T08:29:55.000Z</time>
      </trkpt>
      <trkpt lat="42.35815026797354221343994140625" lon="2.81728514470160007476806640625">
        <ele>157.8000030517578125</ele>
        <time>2020-08-08T08:29:58.000Z</time>
      </trkpt>
      <trkpt lat="42.35826610587537288665771484375" lon="2.8171491064131259918212890625">
        <ele>157.1999969482421875</ele>
        <time>2020-08-08T08:30:01.000Z</time>
      </trkpt>
      <trkpt lat="42.35830851830542087554931640625" lon="2.8171219490468502044677734375">
        <ele>157</ele>
        <time>2020-08-08T08:30:02.000Z</time>
      </trkpt>
      <trkpt lat="42.35835663042962551116943359375" lon="2.81711004674434661865234375">
        <ele>156.8000030517578125</ele>
        <time>2020-08-08T08:30:03.000Z</time>
      </trkpt>
      <trkpt lat="42.35845721326768398284912109375" lon="2.8171286545693874359130859375">
        <ele>156.399993896484375</ele>
        <time>2020-08-08T08:30:05.000Z</time>
      </trkpt>
      <trkpt lat="42.35860406421124935150146484375" lon="2.81726033426821231842041015625">
        <ele>155.8000030517578125</ele>
        <time>2020-08-08T08:30:09.000Z</time>
      </trkpt>
      <trkpt lat="42.35867262817919254302978515625" lon="2.817368544638156890869140625">
        <ele>156.399993896484375</ele>
        <time>2020-08-08T08:30:12.000Z</time>
      </trkpt>
      <trkpt lat="42.35873783938586711883544921875" lon="2.817464433610439300537109375">
        <ele>156.8000030517578125</ele>
        <time>2020-08-08T08:30:15.000Z</time>
      </trkpt>
      <trkpt lat="42.35885552130639553070068359375" lon="2.8175497613847255706787109375">
        <ele>157.1999969482421875</ele>
        <time>2020-08-08T08:30:20.000Z</time>
      </trkpt>
      <trkpt lat="42.359008826315402984619140625" lon="2.81760784797370433807373046875">
        <ele>157</ele>
        <time>2020-08-08T08:30:25.000Z</time>
      </trkpt>
      <trkpt lat="42.359279058873653411865234375" lon="2.81761773861944675445556640625">
        <ele>157.8000030517578125</ele>
        <time>2020-08-08T08:30:33.000Z</time>
      </trkpt>
      <trkpt lat="42.35952020622789859771728515625" lon="2.8175961971282958984375">
        <ele>157.8000030517578125</ele>
        <time>2020-08-08T08:30:40.000Z</time>
      </trkpt>
      <trkpt lat="42.35969220288097858428955078125" lon="2.81746217049658298492431640625">
        <ele>157.8000030517578125</ele>
        <time>2020-08-08T08:30:46.000Z</time>
      </trkpt>
      <trkpt lat="42.35972874797880649566650390625" lon="2.8173962049186229705810546875">
        <ele>158</ele>
        <time>2020-08-08T08:30:48.000Z</time>
      </trkpt>
      <trkpt lat="42.35977468080818653106689453125" lon="2.81724038533866405487060546875">
        <ele>158.1999969482421875</ele>
        <time>2020-08-08T08:30:52.000Z</time>
      </trkpt>
      <trkpt lat="42.35984005965292453765869140625" lon="2.817029245197772979736328125">
        <ele>158.399993896484375</ele>
        <time>2020-08-08T08:30:57.000Z</time>
      </trkpt>
      <trkpt lat="42.35996796749532222747802734375" lon="2.816661782562732696533203125">
        <ele>157.8000030517578125</ele>
        <time>2020-08-08T08:31:04.000Z</time>
      </trkpt>
      <trkpt lat="42.360118590295314788818359375" lon="2.81625903211534023284912109375">
        <ele>157</ele>
        <time>2020-08-08T08:31:11.000Z</time>
      </trkpt>
      <trkpt lat="42.36025446094572544097900390625" lon="2.8161040507256984710693359375">
        <ele>157.1999969482421875</ele>
        <time>2020-08-08T08:31:16.000Z</time>
      </trkpt>
      <trkpt lat="42.360398210585117340087890625" lon="2.8161151148378849029541015625">
        <ele>157.600006103515625</ele>
        <time>2020-08-08T08:31:20.000Z</time>
      </trkpt>
      <trkpt lat="42.36052284948527812957763671875" lon="2.81618124805390834808349609375">
        <ele>157.600006103515625</ele>
        <time>2020-08-08T08:31:23.000Z</time>
      </trkpt>
      <trkpt lat="42.36060163937509059906005859375" lon="2.81617462635040283203125">
        <ele>157.399993896484375</ele>
        <time>2020-08-08T08:31:25.000Z</time>
      </trkpt>
      <trkpt lat="42.36066349782049655914306640625" lon="2.81605283729732036590576171875">
        <ele>157</ele>
        <time>2020-08-08T08:31:29.000Z</time>
      </trkpt>
      <trkpt lat="42.360663078725337982177734375" lon="2.8160141967236995697021484375">
        <ele>157</ele>
        <time>2020-08-08T08:31:30.000Z</time>
      </trkpt>
      <trkpt lat="42.3606733046472072601318359375" lon="2.815867178142070770263671875">
        <ele>157</ele>
        <time>2020-08-08T08:31:34.000Z</time>
      </trkpt>
      <trkpt lat="42.36071144230663776397705078125" lon="2.81563122756779193878173828125">
        <ele>157.1999969482421875</ele>
        <time>2020-08-08T08:31:40.000Z</time>
      </trkpt>
      <trkpt lat="42.3608256876468658447265625" lon="2.81534741632640361785888671875">
        <ele>157.1999969482421875</ele>
        <time>2020-08-08T08:31:47.000Z</time>
      </trkpt>
      <trkpt lat="42.3609985224902629852294921875" lon="2.8150626830756664276123046875">
        <ele>157</ele>
        <time>2020-08-08T08:31:54.000Z</time>
      </trkpt>
      <trkpt lat="42.3611735366284847259521484375" lon="2.81480845995247364044189453125">
        <ele>157</ele>
        <time>2020-08-08T08:32:01.000Z</time>
      </trkpt>
      <trkpt lat="42.36139406450092792510986328125" lon="2.81462020240724086761474609375">
        <ele>158.1999969482421875</ele>
        <time>2020-08-08T08:32:09.000Z</time>
      </trkpt>
      <trkpt lat="42.36151526682078838348388671875" lon="2.81452951021492481231689453125">
        <ele>159.399993896484375</ele>
        <time>2020-08-08T08:32:14.000Z</time>
      </trkpt>
      <trkpt lat="42.36157578416168689727783203125" lon="2.8144652210175991058349609375">
        <ele>160</ele>
        <time>2020-08-08T08:32:17.000Z</time>
      </trkpt>
      <trkpt lat="42.3616197891533374786376953125" lon="2.81436203978955745697021484375">
        <ele>160.399993896484375</ele>
        <time>2020-08-08T08:32:20.000Z</time>
      </trkpt>
      <trkpt lat="42.36163579858839511871337890625" lon="2.8142657317221164703369140625">
        <ele>160.399993896484375</ele>
        <time>2020-08-08T08:32:22.000Z</time>
      </trkpt>
      <trkpt lat="42.3616506345570087432861328125" lon="2.8140732832252979278564453125">
        <ele>159.8000030517578125</ele>
        <time>2020-08-08T08:32:25.000Z</time>
      </trkpt>
      <trkpt lat="42.36163772642612457275390625" lon="2.81393405981361865997314453125">
        <ele>159.1999969482421875</ele>
        <time>2020-08-08T08:32:27.000Z</time>
      </trkpt>
      <trkpt lat="42.36160864122211933135986328125" lon="2.81378854997456073760986328125">
        <ele>159</ele>
        <time>2020-08-08T08:32:29.000Z</time>
      </trkpt>
      <trkpt lat="42.36157913692295551300048828125" lon="2.81363398768007755279541015625">
        <ele>158.600006103515625</ele>
        <time>2020-08-08T08:32:31.000Z</time>
      </trkpt>
      <trkpt lat="42.36156002618372440338134765625" lon="2.81355586834251880645751953125">
        <ele>158.600006103515625</ele>
        <time>2020-08-08T08:32:32.000Z</time>
      </trkpt>
      <trkpt lat="42.36154074780642986297607421875" lon="2.81347875483334064483642578125">
        <ele>158.1999969482421875</ele>
        <time>2020-08-08T08:32:33.000Z</time>
      </trkpt>
      <trkpt lat="42.36150152049958705902099609375" lon="2.8132511861622333526611328125">
        <ele>157.600006103515625</ele>
        <time>2020-08-08T08:32:36.000Z</time>
      </trkpt>
      <trkpt lat="42.36150017939507961273193359375" lon="2.813100479543209075927734375">
        <ele>157.399993896484375</ele>
        <time>2020-08-08T08:32:38.000Z</time>
      </trkpt>
      <trkpt lat="42.3615426756441593170166015625" lon="2.81269756145775318145751953125">
        <ele>157.399993896484375</ele>
        <time>2020-08-08T08:32:44.000Z</time>
      </trkpt>
      <trkpt lat="42.36159958876669406890869140625" lon="2.81246311962604522705078125">
        <ele>157.8000030517578125</ele>
        <time>2020-08-08T08:32:49.000Z</time>
      </trkpt>
      <trkpt lat="42.36166580580174922943115234375" lon="2.81214502640068531036376953125">
        <ele>158.1999969482421875</ele>
        <time>2020-08-08T08:32:56.000Z</time>
      </trkpt>
      <trkpt lat="42.361730597913265228271484375" lon="2.8118933178484439849853515625">
        <ele>158.600006103515625</ele>
        <time>2020-08-08T08:33:02.000Z</time>
      </trkpt>
      <trkpt lat="42.3618115670979022979736328125" lon="2.8115399368107318878173828125">
        <ele>158</ele>
        <time>2020-08-08T08:33:09.000Z</time>
      </trkpt>
      <trkpt lat="42.36192665062844753265380859375" lon="2.8111091069877147674560546875">
        <ele>157.399993896484375</ele>
        <time>2020-08-08T08:33:17.000Z</time>
      </trkpt>
      <trkpt lat="42.36200653016567230224609375" lon="2.8108732402324676513671875">
        <ele>158</ele>
        <time>2020-08-08T08:33:23.000Z</time>
      </trkpt>
      <trkpt lat="42.36212999559938907623291015625" lon="2.81068858690559864044189453125">
        <ele>159.1999969482421875</ele>
        <time>2020-08-08T08:33:29.000Z</time>
      </trkpt>
      <trkpt lat="42.36214893870055675506591796875" lon="2.81065355055034160614013671875">
        <ele>159.1999969482421875</ele>
        <time>2020-08-08T08:33:30.000Z</time>
      </trkpt>
      <trkpt lat="42.3623047582805156707763671875" lon="2.8104264847934246063232421875">
        <ele>160.1999969482421875</ele>
        <time>2020-08-08T08:33:37.000Z</time>
      </trkpt>
      <trkpt lat="42.36237533390522003173828125" lon="2.8102777898311614990234375">
        <ele>160.600006103515625</ele>
        <time>2020-08-08T08:33:41.000Z</time>
      </trkpt>
      <trkpt lat="42.36243434250354766845703125" lon="2.81014393083751201629638671875">
        <ele>161.1999969482421875</ele>
        <time>2020-08-08T08:33:45.000Z</time>
      </trkpt>
      <trkpt lat="42.36249812878668308258056640625" lon="2.809981405735015869140625">
        <ele>161.600006103515625</ele>
        <time>2020-08-08T08:33:50.000Z</time>
      </trkpt>
      <trkpt lat="42.3625173233449459075927734375" lon="2.80991242267191410064697265625">
        <ele>162.1999969482421875</ele>
        <time>2020-08-08T08:33:52.000Z</time>
      </trkpt>
      <trkpt lat="42.36253920011222362518310546875" lon="2.80984662473201751708984375">
        <ele>162.8000030517578125</ele>
        <time>2020-08-08T08:33:54.000Z</time>
      </trkpt>
      <trkpt lat="42.3625645972788333892822265625" lon="2.8096771426498889923095703125">
        <ele>163.8000030517578125</ele>
        <time>2020-08-08T08:33:59.000Z</time>
      </trkpt>
      <trkpt lat="42.36257926560938358306884765625" lon="2.8094784915447235107421875">
        <ele>164.8000030517578125</ele>
        <time>2020-08-08T08:34:05.000Z</time>
      </trkpt>
      <trkpt lat="42.3625813610851764678955078125" lon="2.80944471247494220733642578125">
        <ele>165</ele>
        <time>2020-08-08T08:34:06.000Z</time>
      </trkpt>
      <trkpt lat="42.3625773377716541290283203125" lon="2.8092815168201923370361328125">
        <ele>166</ele>
        <time>2020-08-08T08:34:11.000Z</time>
      </trkpt>
      <trkpt lat="42.36258580349385738372802734375" lon="2.80909921042621135711669921875">
        <ele>167</ele>
        <time>2020-08-08T08:34:17.000Z</time>
      </trkpt>
      <trkpt lat="42.36259150318801403045654296875" lon="2.80906668864190578460693359375">
        <ele>167.1999969482421875</ele>
        <time>2020-08-08T08:34:18.000Z</time>
      </trkpt>
      <trkpt lat="42.362655289471149444580078125" lon="2.80883853323757648468017578125">
        <ele>168.399993896484375</ele>
        <time>2020-08-08T08:34:25.000Z</time>
      </trkpt>
      <trkpt lat="42.3626697063446044921875" lon="2.8088077716529369354248046875">
        <ele>168.399993896484375</ele>
        <time>2020-08-08T08:34:26.000Z</time>
      </trkpt>
      <trkpt lat="42.36275394447147846221923828125" lon="2.80858992598950862884521484375">
        <ele>169.399993896484375</ele>
        <time>2020-08-08T08:34:33.000Z</time>
      </trkpt>
      <trkpt lat="42.36276425421237945556640625" lon="2.8085586614906787872314453125">
        <ele>169.600006103515625</ele>
        <time>2020-08-08T08:34:34.000Z</time>
      </trkpt>
      <trkpt lat="42.3628338240087032318115234375" lon="2.8083786182105541229248046875">
        <ele>170.600006103515625</ele>
        <time>2020-08-08T08:34:40.000Z</time>
      </trkpt>
      <trkpt lat="42.3628472350537776947021484375" lon="2.8083497844636440277099609375">
        <ele>170.8000030517578125</ele>
        <time>2020-08-08T08:34:41.000Z</time>
      </trkpt>
      <trkpt lat="42.3629213310778141021728515625" lon="2.80816898681223392486572265625">
        <ele>171.8000030517578125</ele>
        <time>2020-08-08T08:34:47.000Z</time>
      </trkpt>
      <trkpt lat="42.3629548586905002593994140625" lon="2.80811064876616001129150390625">
        <ele>172</ele>
        <time>2020-08-08T08:34:49.000Z</time>
      </trkpt>
      <trkpt lat="42.36311218701303005218505859375" lon="2.80795977450907230377197265625">
        <ele>172.8000030517578125</ele>
        <time>2020-08-08T08:34:56.000Z</time>
      </trkpt>
      <trkpt lat="42.36341862939298152923583984375" lon="2.80780202709138393402099609375">
        <ele>173.1999969482421875</ele>
        <time>2020-08-08T08:35:07.000Z</time>
      </trkpt>
      <trkpt lat="42.3635881952941417694091796875" lon="2.80766188167035579681396484375">
        <ele>173.600006103515625</ele>
        <time>2020-08-08T08:35:14.000Z</time>
      </trkpt>
      <trkpt lat="42.3636441864073276519775390625" lon="2.80756414867937564849853515625">
        <ele>173.8000030517578125</ele>
        <time>2020-08-08T08:35:17.000Z</time>
      </trkpt>
      <trkpt lat="42.36371375620365142822265625" lon="2.80743137933313846588134765625">
        <ele>174.1999969482421875</ele>
        <time>2020-08-08T08:35:21.000Z</time>
      </trkpt>
      <trkpt lat="42.363794557750225067138671875" lon="2.8072792477905750274658203125">
        <ele>174.8000030517578125</ele>
        <time>2020-08-08T08:35:26.000Z</time>
      </trkpt>
      <trkpt lat="42.36384845338761806488037109375" lon="2.807191573083400726318359375">
        <ele>175.1999969482421875</ele>
        <time>2020-08-08T08:35:29.000Z</time>
      </trkpt>
      <trkpt lat="42.36406303010880947113037109375" lon="2.8068226017057895660400390625">
        <ele>175.600006103515625</ele>
        <time>2020-08-08T08:35:40.000Z</time>
      </trkpt>
      <trkpt lat="42.3642025887966156005859375" lon="2.80651263892650604248046875">
        <ele>175.600006103515625</ele>
        <time>2020-08-08T08:35:48.000Z</time>
      </trkpt>
      <trkpt lat="42.3643221147358417510986328125" lon="2.80619052238762378692626953125">
        <ele>175.600006103515625</ele>
        <time>2020-08-08T08:35:56.000Z</time>
      </trkpt>
      <trkpt lat="42.36435337923467159271240234375" lon="2.80607820488512516021728515625">
        <ele>176</ele>
        <time>2020-08-08T08:35:59.000Z</time>
      </trkpt>
      <trkpt lat="42.36440484412014484405517578125" lon="2.80589061789214611053466796875">
        <ele>176.600006103515625</ele>
        <time>2020-08-08T08:36:04.000Z</time>
      </trkpt>
      <trkpt lat="42.3644307442009449005126953125" lon="2.805819623172283172607421875">
        <ele>177</ele>
        <time>2020-08-08T08:36:06.000Z</time>
      </trkpt>
      <trkpt lat="42.36448061652481555938720703125" lon="2.80568475835025310516357421875">
        <ele>177.399993896484375</ele>
        <time>2020-08-08T08:36:10.000Z</time>
      </trkpt>
      <trkpt lat="42.36454121768474578857421875" lon="2.80552365817129611968994140625">
        <ele>178</ele>
        <time>2020-08-08T08:36:15.000Z</time>
      </trkpt>
      <trkpt lat="42.36456644721329212188720703125" lon="2.80545844696462154388427734375">
        <ele>178.1999969482421875</ele>
        <time>2020-08-08T08:36:17.000Z</time>
      </trkpt>
      <trkpt lat="42.3646355979144573211669921875" lon="2.805255353450775146484375">
        <ele>179.1999969482421875</ele>
        <time>2020-08-08T08:36:23.000Z</time>
      </trkpt>
      <trkpt lat="42.36469670198857784271240234375" lon="2.80509802512824535369873046875">
        <ele>180.399993896484375</ele>
        <time>2020-08-08T08:36:28.000Z</time>
      </trkpt>
      <trkpt lat="42.36472168006002902984619140625" lon="2.805045135319232940673828125">
        <ele>180.600006103515625</ele>
        <time>2020-08-08T08:36:30.000Z</time>
      </trkpt>
      <trkpt lat="42.36478772945702075958251953125" lon="2.80489652417600154876708984375">
        <ele>181.399993896484375</ele>
        <time>2020-08-08T08:36:35.000Z</time>
      </trkpt>
      <trkpt lat="42.3648471571505069732666015625" lon="2.80477850697934627532958984375">
        <ele>182</ele>
        <time>2020-08-08T08:36:39.000Z</time>
      </trkpt>
      <trkpt lat="42.36487708054482936859130859375" lon="2.8047174029052257537841796875">
        <ele>182.600006103515625</ele>
        <time>2020-08-08T08:36:41.000Z</time>
      </trkpt>
      <trkpt lat="42.3649618215858936309814453125" lon="2.804554961621761322021484375">
        <ele>183.1999969482421875</ele>
        <time>2020-08-08T08:36:47.000Z</time>
      </trkpt>
      <trkpt lat="42.36497565172612667083740234375" lon="2.80449318699538707733154296875">
        <ele>183.600006103515625</ele>
        <time>2020-08-08T08:36:49.000Z</time>
      </trkpt>
      <trkpt lat="42.365004904568195343017578125" lon="2.80433711595833301544189453125">
        <ele>184.399993896484375</ele>
        <time>2020-08-08T08:36:54.000Z</time>
      </trkpt>
      <trkpt lat="42.3650045692920684814453125" lon="2.80427073128521442413330078125">
        <ele>184.8000030517578125</ele>
        <time>2020-08-08T08:36:56.000Z</time>
      </trkpt>
      <trkpt lat="42.3650191538035869598388671875" lon="2.80413888394832611083984375">
        <ele>185.399993896484375</ele>
        <time>2020-08-08T08:37:00.000Z</time>
      </trkpt>
      <trkpt lat="42.365030385553836822509765625" lon="2.8040740080177783966064453125">
        <ele>185.8000030517578125</ele>
        <time>2020-08-08T08:37:02.000Z</time>
      </trkpt>
      <trkpt lat="42.36508780159056186676025390625" lon="2.803919613361358642578125">
        <ele>186.600006103515625</ele>
        <time>2020-08-08T08:37:07.000Z</time>
      </trkpt>
      <trkpt lat="42.365128286182880401611328125" lon="2.80386135913431644439697265625">
        <ele>186.8000030517578125</ele>
        <time>2020-08-08T08:37:09.000Z</time>
      </trkpt>
      <trkpt lat="42.36523951403796672821044921875" lon="2.80376345850527286529541015625">
        <ele>187</ele>
        <time>2020-08-08T08:37:13.000Z</time>
      </trkpt>
      <trkpt lat="42.3654392547905445098876953125" lon="2.80355307273566722869873046875">
        <ele>186.1999969482421875</ele>
        <time>2020-08-08T08:37:20.000Z</time>
      </trkpt>
      <trkpt lat="42.36553438939154148101806640625" lon="2.8032079897820949554443359375">
        <ele>186.600006103515625</ele>
        <time>2020-08-08T08:37:28.000Z</time>
      </trkpt>
      <trkpt lat="42.36558820120990276336669921875" lon="2.8029729612171649932861328125">
        <ele>186.8000030517578125</ele>
        <time>2020-08-08T08:37:33.000Z</time>
      </trkpt>
      <trkpt lat="42.36561083234846591949462890625" lon="2.80291923321783542633056640625">
        <ele>186.600006103515625</ele>
        <time>2020-08-08T08:37:34.000Z</time>
      </trkpt>
      <trkpt lat="42.3657207190990447998046875" lon="2.80263014137744903564453125">
        <ele>185.600006103515625</ele>
        <time>2020-08-08T08:37:38.000Z</time>
      </trkpt>
      <trkpt lat="42.36574326641857624053955078125" lon="2.80254020355641841888427734375">
        <ele>185.1999969482421875</ele>
        <time>2020-08-08T08:37:39.000Z</time>
      </trkpt>
      <trkpt lat="42.36575952731072902679443359375" lon="2.8024455718696117401123046875">
        <ele>184.600006103515625</ele>
        <time>2020-08-08T08:37:40.000Z</time>
      </trkpt>
      <trkpt lat="42.36577679403126239776611328125" lon="2.80224750749766826629638671875">
        <ele>183.600006103515625</ele>
        <time>2020-08-08T08:37:42.000Z</time>
      </trkpt>
      <trkpt lat="42.36577578820288181304931640625" lon="2.8020509518682956695556640625">
        <ele>183.1999969482421875</ele>
        <time>2020-08-08T08:37:44.000Z</time>
      </trkpt>
      <trkpt lat="42.36578752286732196807861328125" lon="2.801781557500362396240234375">
        <ele>182.8000030517578125</ele>
        <time>2020-08-08T08:37:47.000Z</time>
      </trkpt>
      <trkpt lat="42.3658707551658153533935546875" lon="2.8015376441180706024169921875">
        <ele>182.600006103515625</ele>
        <time>2020-08-08T08:37:50.000Z</time>
      </trkpt>
      <trkpt lat="42.365918196737766265869140625" lon="2.80146203935146331787109375">
        <ele>182.399993896484375</ele>
        <time>2020-08-08T08:37:51.000Z</time>
      </trkpt>
      <trkpt lat="42.36604400910437107086181640625" lon="2.80133052729070186614990234375">
        <ele>181.8000030517578125</ele>
        <time>2020-08-08T08:37:53.000Z</time>
      </trkpt>
      <trkpt lat="42.36612045206129550933837890625" lon="2.801281325519084930419921875">
        <ele>181.1999969482421875</ele>
        <time>2020-08-08T08:37:54.000Z</time>
      </trkpt>
      <trkpt lat="42.366201169788837432861328125" lon="2.8012372367084026336669921875">
        <ele>180.1999969482421875</ele>
        <time>2020-08-08T08:37:55.000Z</time>
      </trkpt>
      <trkpt lat="42.36636579036712646484375" lon="2.80114646069705486297607421875">
        <ele>179</ele>
        <time>2020-08-08T08:37:57.000Z</time>
      </trkpt>
      <trkpt lat="42.3664477653801441192626953125" lon="2.8010927326977252960205078125">
        <ele>178.600006103515625</ele>
        <time>2020-08-08T08:37:58.000Z</time>
      </trkpt>
      <trkpt lat="42.36661012284457683563232421875" lon="2.8009785711765289306640625">
        <ele>177.8000030517578125</ele>
        <time>2020-08-08T08:38:00.000Z</time>
      </trkpt>
      <trkpt lat="42.3668544553220272064208984375" lon="2.80078436248004436492919921875">
        <ele>176.600006103515625</ele>
        <time>2020-08-08T08:38:03.000Z</time>
      </trkpt>
      <trkpt lat="42.3669308982789516448974609375" lon="2.80070624314248561859130859375">
        <ele>176</ele>
        <time>2020-08-08T08:38:04.000Z</time>
      </trkpt>
      <trkpt lat="42.36700759269297122955322265625" lon="2.80063047073781490325927734375">
        <ele>175.600006103515625</ele>
        <time>2020-08-08T08:38:05.000Z</time>
      </trkpt>
      <trkpt lat="42.36724748276174068450927734375" lon="2.80043550767004489898681640625">
        <ele>174.1999969482421875</ele>
        <time>2020-08-08T08:38:08.000Z</time>
      </trkpt>
      <trkpt lat="42.36732610501348972320556640625" lon="2.80036727897822856903076171875">
        <ele>174</ele>
        <time>2020-08-08T08:38:09.000Z</time>
      </trkpt>
      <trkpt lat="42.367475219070911407470703125" lon="2.80021120794117450714111328125">
        <ele>173.1999969482421875</ele>
        <time>2020-08-08T08:38:11.000Z</time>
      </trkpt>
      <trkpt lat="42.3676277697086334228515625" lon="2.8000506944954395294189453125">
        <ele>172</ele>
        <time>2020-08-08T08:38:13.000Z</time>
      </trkpt>
      <trkpt lat="42.3677090741693973541259765625" lon="2.79997517354786396026611328125">
        <ele>171.399993896484375</ele>
        <time>2020-08-08T08:38:14.000Z</time>
      </trkpt>
      <trkpt lat="42.36779197119176387786865234375" lon="2.7999031729996204376220703125">
        <ele>170.8000030517578125</ele>
        <time>2020-08-08T08:38:15.000Z</time>
      </trkpt>
      <trkpt lat="42.3679442703723907470703125" lon="2.799790687859058380126953125">
        <ele>169.8000030517578125</ele>
        <time>2020-08-08T08:38:17.000Z</time>
      </trkpt>
      <trkpt lat="42.368017695844173431396484375" lon="2.799757830798625946044921875">
        <ele>169.399993896484375</ele>
        <time>2020-08-08T08:38:18.000Z</time>
      </trkpt>
      <trkpt lat="42.3681707493960857391357421875" lon="2.79975322075188159942626953125">
        <ele>168.600006103515625</ele>
        <time>2020-08-08T08:38:20.000Z</time>
      </trkpt>
      <trkpt lat="42.3682438395917415618896484375" lon="2.79975690878927707672119140625">
        <ele>168.1999969482421875</ele>
        <time>2020-08-08T08:38:21.000Z</time>
      </trkpt>
      <trkpt lat="42.368375100195407867431640625" lon="2.79968666844069957733154296875">
        <ele>167.600006103515625</ele>
        <time>2020-08-08T08:38:23.000Z</time>
      </trkpt>
      <trkpt lat="42.368434108793735504150390625" lon="2.7996255643665790557861328125">
        <ele>167.399993896484375</ele>
        <time>2020-08-08T08:38:24.000Z</time>
      </trkpt>
      <trkpt lat="42.368564866483211517333984375" lon="2.7995114028453826904296875">
        <ele>166.399993896484375</ele>
        <time>2020-08-08T08:38:26.000Z</time>
      </trkpt>
      <trkpt lat="42.36871683038771152496337890625" lon="2.79943873174488544464111328125">
        <ele>165.8000030517578125</ele>
        <time>2020-08-08T08:38:28.000Z</time>
      </trkpt>
      <trkpt lat="42.36886720173060894012451171875" lon="2.799365557730197906494140625">
        <ele>165</ele>
        <time>2020-08-08T08:38:30.000Z</time>
      </trkpt>
      <trkpt lat="42.36920968629419803619384765625" lon="2.79921024106442928314208984375">
        <ele>164</ele>
        <time>2020-08-08T08:38:35.000Z</time>
      </trkpt>
      <trkpt lat="42.36960397101938724517822265625" lon="2.79907286167144775390625">
        <ele>163.399993896484375</ele>
        <time>2020-08-08T08:38:41.000Z</time>
      </trkpt>
      <trkpt lat="42.36971008591353893280029296875" lon="2.79896892607212066650390625">
        <ele>163</ele>
        <time>2020-08-08T08:38:43.000Z</time>
      </trkpt>
      <trkpt lat="42.3697334714233875274658203125" lon="2.798907570540904998779296875">
        <ele>162.8000030517578125</ele>
        <time>2020-08-08T08:38:44.000Z</time>
      </trkpt>
      <trkpt lat="42.36974981613457202911376953125" lon="2.79880933463573455810546875">
        <ele>163.600006103515625</ele>
        <time>2020-08-08T08:38:46.000Z</time>
      </trkpt>
      <trkpt lat="42.36976758576929569244384765625" lon="2.7987411059439182281494140625">
        <ele>164.399993896484375</ele>
        <time>2020-08-08T08:38:48.000Z</time>
      </trkpt>
      <trkpt lat="42.36980530433356761932373046875" lon="2.79867346398532390594482421875">
        <ele>165.600006103515625</ele>
        <time>2020-08-08T08:38:51.000Z</time>
      </trkpt>
      <trkpt lat="42.369853667914867401123046875" lon="2.798612527549266815185546875">
        <ele>166</ele>
        <time>2020-08-08T08:38:54.000Z</time>
      </trkpt>
      <trkpt lat="42.36999188549816608428955078125" lon="2.79847129248082637786865234375">
        <ele>166.600006103515625</ele>
        <time>2020-08-08T08:39:01.000Z</time>
      </trkpt>
      <trkpt lat="42.37014510668814182281494140625" lon="2.79834439046680927276611328125">
        <ele>166.600006103515625</ele>
        <time>2020-08-08T08:39:07.000Z</time>
      </trkpt>
      <trkpt lat="42.3702793009579181671142578125" lon="2.79819753952324390411376953125">
        <ele>166.1999969482421875</ele>
        <time>2020-08-08T08:39:12.000Z</time>
      </trkpt>
      <trkpt lat="42.370397485792636871337890625" lon="2.7980454079806804656982421875">
        <ele>165.8000030517578125</ele>
        <time>2020-08-08T08:39:16.000Z</time>
      </trkpt>
      <trkpt lat="42.37047518603503704071044921875" lon="2.7979589067399501800537109375">
        <ele>165.399993896484375</ele>
        <time>2020-08-08T08:39:18.000Z</time>
      </trkpt>
      <trkpt lat="42.3705996572971343994140625" lon="2.79781297780573368072509765625">
        <ele>164.8000030517578125</ele>
        <time>2020-08-08T08:39:21.000Z</time>
      </trkpt>
      <trkpt lat="42.3707091249525547027587890625" lon="2.7976531349122524261474609375">
        <ele>164.399993896484375</ele>
        <time>2020-08-08T08:39:24.000Z</time>
      </trkpt>
      <trkpt lat="42.3708449117839336395263671875" lon="2.7974192798137664794921875">
        <ele>164.1999969482421875</ele>
        <time>2020-08-08T08:39:29.000Z</time>
      </trkpt>
      <trkpt lat="42.3709542118012905120849609375" lon="2.7971140109002590179443359375">
        <ele>164.399993896484375</ele>
        <time>2020-08-08T08:39:36.000Z</time>
      </trkpt>
      <trkpt lat="42.37111665308475494384765625" lon="2.7968035452067852020263671875">
        <ele>163.600006103515625</ele>
        <time>2020-08-08T08:39:42.000Z</time>
      </trkpt>
      <trkpt lat="42.37125813961029052734375" lon="2.79664152301847934722900390625">
        <ele>162.399993896484375</ele>
        <time>2020-08-08T08:39:45.000Z</time>
      </trkpt>
      <trkpt lat="42.3713501729071140289306640625" lon="2.79649081639945507049560546875">
        <ele>161.1999969482421875</ele>
        <time>2020-08-08T08:39:47.000Z</time>
      </trkpt>
      <trkpt lat="42.37141144461929798126220703125" lon="2.79630641452968120574951171875">
        <ele>159.8000030517578125</ele>
        <time>2020-08-08T08:39:49.000Z</time>
      </trkpt>
      <trkpt lat="42.371426783502101898193359375" lon="2.7962158061563968658447265625">
        <ele>159.600006103515625</ele>
        <time>2020-08-08T08:39:50.000Z</time>
      </trkpt>
      <trkpt lat="42.37143575213849544525146484375" lon="2.79612972401082515716552734375">
        <ele>159.399993896484375</ele>
        <time>2020-08-08T08:39:51.000Z</time>
      </trkpt>
      <trkpt lat="42.37146106548607349395751953125" lon="2.79599041678011417388916015625">
        <ele>159.600006103515625</ele>
        <time>2020-08-08T08:39:53.000Z</time>
      </trkpt>
      <trkpt lat="42.37147766165435314178466796875" lon="2.795932330191135406494140625">
        <ele>159.8000030517578125</ele>
        <time>2020-08-08T08:39:54.000Z</time>
      </trkpt>
      <trkpt lat="42.3715882189571857452392578125" lon="2.79561256058514118194580078125">
        <ele>160.1999969482421875</ele>
        <time>2020-08-08T08:40:00.000Z</time>
      </trkpt>
      <trkpt lat="42.37177203409373760223388671875" lon="2.795387171208858489990234375">
        <ele>159.399993896484375</ele>
        <time>2020-08-08T08:40:04.000Z</time>
      </trkpt>
      <trkpt lat="42.371904551982879638671875" lon="2.79531332664191722869873046875">
        <ele>158.399993896484375</ele>
        <time>2020-08-08T08:40:06.000Z</time>
      </trkpt>
      <trkpt lat="42.3719744570553302764892578125" lon="2.79529555700719356536865234375">
        <ele>158</ele>
        <time>2020-08-08T08:40:07.000Z</time>
      </trkpt>
      <trkpt lat="42.3720435239374637603759765625" lon="2.79528315179049968719482421875">
        <ele>157.8000030517578125</ele>
        <time>2020-08-08T08:40:08.000Z</time>
      </trkpt>
      <trkpt lat="42.372111417353153228759765625" lon="2.7952720038592815399169921875">
        <ele>157.399993896484375</ele>
        <time>2020-08-08T08:40:09.000Z</time>
      </trkpt>
      <trkpt lat="42.372306548058986663818359375" lon="2.7952354587614536285400390625">
        <ele>156.8000030517578125</ele>
        <time>2020-08-08T08:40:12.000Z</time>
      </trkpt>
      <trkpt lat="42.37236111424863338470458984375" lon="2.795207798480987548828125">
        <ele>156.600006103515625</ele>
        <time>2020-08-08T08:40:13.000Z</time>
      </trkpt>
      <trkpt lat="42.37243956886231899261474609375" lon="2.79511450789868831634521484375">
        <ele>156.1999969482421875</ele>
        <time>2020-08-08T08:40:15.000Z</time>
      </trkpt>
      <trkpt lat="42.3724584281444549560546875" lon="2.79504778794944286346435546875">
        <ele>156</ele>
        <time>2020-08-08T08:40:16.000Z</time>
      </trkpt>
      <trkpt lat="42.37242833711206912994384765625" lon="2.79486556537449359893798828125">
        <ele>155.1999969482421875</ele>
        <time>2020-08-08T08:40:19.000Z</time>
      </trkpt>
      <trkpt lat="42.37236522138118743896484375" lon="2.7947871945798397064208984375">
        <ele>155</ele>
        <time>2020-08-08T08:40:21.000Z</time>
      </trkpt>
      <trkpt lat="42.37226841039955615997314453125" lon="2.79471435584127902984619140625">
        <ele>155.600006103515625</ele>
        <time>2020-08-08T08:40:24.000Z</time>
      </trkpt>
      <trkpt lat="42.3721085675060749053955078125" lon="2.7946807444095611572265625">
        <ele>156</ele>
        <time>2020-08-08T08:40:29.000Z</time>
      </trkpt>
      <trkpt lat="42.37198996357619762420654296875" lon="2.79467076994478702545166015625">
        <ele>156.399993896484375</ele>
        <time>2020-08-08T08:40:33.000Z</time>
      </trkpt>
      <trkpt lat="42.37189742736518383026123046875" lon="2.7946745418012142181396484375">
        <ele>156.8000030517578125</ele>
        <time>2020-08-08T08:40:36.000Z</time>
      </trkpt>
      <trkpt lat="42.3716039769351482391357421875" lon="2.79465937055647373199462890625">
        <ele>157.399993896484375</ele>
        <time>2020-08-08T08:40:45.000Z</time>
      </trkpt>
      <trkpt lat="42.3714990355074405670166015625" lon="2.79465350322425365447998046875">
        <ele>157.399993896484375</ele>
        <time>2020-08-08T08:40:48.000Z</time>
      </trkpt>
      <trkpt lat="42.3713662661612033843994140625" lon="2.79467378742992877960205078125">
        <ele>157.399993896484375</ele>
        <time>2020-08-08T08:40:52.000Z</time>
      </trkpt>
      <trkpt lat="42.3711387813091278076171875" lon="2.79475173912942409515380859375">
        <ele>157.600006103515625</ele>
        <time>2020-08-08T08:40:59.000Z</time>
      </trkpt>
      <trkpt lat="42.37099469639360904693603515625" lon="2.79483002610504627227783203125">
        <ele>158.399993896484375</ele>
        <time>2020-08-08T08:41:04.000Z</time>
      </trkpt>
      <trkpt lat="42.37093552015721797943115234375" lon="2.79483824037015438079833984375">
        <ele>158.600006103515625</ele>
        <time>2020-08-08T08:41:06.000Z</time>
      </trkpt>
      <trkpt lat="42.37085186876356601715087890625" lon="2.794749476015567779541015625">
        <ele>159</ele>
        <time>2020-08-08T08:41:10.000Z</time>
      </trkpt>
      <trkpt lat="42.37080417573451995849609375" lon="2.79452450573444366455078125">
        <ele>159</ele>
        <time>2020-08-08T08:41:14.000Z</time>
      </trkpt>
      <trkpt lat="42.3707483522593975067138671875" lon="2.794164754450321197509765625">
        <ele>157.600006103515625</ele>
        <time>2020-08-08T08:41:19.000Z</time>
      </trkpt>
      <trkpt lat="42.3707352764904499053955078125" lon="2.79410767368972301483154296875">
        <ele>157.399993896484375</ele>
        <time>2020-08-08T08:41:20.000Z</time>
      </trkpt>
      <trkpt lat="42.3706434108316898345947265625" lon="2.7937478385865688323974609375">
        <ele>157.600006103515625</ele>
        <time>2020-08-08T08:41:27.000Z</time>
      </trkpt>
      <trkpt lat="42.3705250583589076995849609375" lon="2.79345162212848663330078125">
        <ele>157.8000030517578125</ele>
        <time>2020-08-08T08:41:34.000Z</time>
      </trkpt>
      <trkpt lat="42.37036873586475849151611328125" lon="2.7932093851268291473388671875">
        <ele>157.8000030517578125</ele>
        <time>2020-08-08T08:41:41.000Z</time>
      </trkpt>
      <trkpt lat="42.37028877250850200653076171875" lon="2.793132103979587554931640625">
        <ele>158.1999969482421875</ele>
        <time>2020-08-08T08:41:46.000Z</time>
      </trkpt>
      <trkpt lat="42.37020067870616912841796875" lon="2.793055661022663116455078125">
        <ele>157.399993896484375</ele>
        <time>2020-08-08T08:41:50.000Z</time>
      </trkpt>
      <trkpt lat="42.370069921016693115234375" lon="2.79300696216523647308349609375">
        <ele>156.8000030517578125</ele>
        <time>2020-08-08T08:41:54.000Z</time>
      </trkpt>
      <trkpt lat="42.3700444400310516357421875" lon="2.7930258214473724365234375">
        <ele>156.600006103515625</ele>
        <time>2020-08-08T08:41:55.000Z</time>
      </trkpt>
      <trkpt lat="42.37000412307679653167724609375" lon="2.79309748671948909759521484375">
        <ele>156.399993896484375</ele>
        <time>2020-08-08T08:41:57.000Z</time>
      </trkpt>
      <trkpt lat="42.36985199153423309326171875" lon="2.79345237649977207183837890625">
        <ele>156.399993896484375</ele>
        <time>2020-08-08T08:42:07.000Z</time>
      </trkpt>
      <trkpt lat="42.36974864266812801361083984375" lon="2.79372378252446651458740234375">
        <ele>156.399993896484375</ele>
        <time>2020-08-08T08:42:14.000Z</time>
      </trkpt>
      <trkpt lat="42.3697726987302303314208984375" lon="2.7938641794025897979736328125">
        <ele>156.600006103515625</ele>
        <time>2020-08-08T08:42:18.000Z</time>
      </trkpt>
      <trkpt lat="42.369879148900508880615234375" lon="2.7939875610172748565673828125">
        <ele>157.600006103515625</ele>
        <time>2020-08-08T08:42:24.000Z</time>
      </trkpt>
      <trkpt lat="42.36990219913423061370849609375" lon="2.7940200828015804290771484375">
        <ele>157.8000030517578125</ele>
        <time>2020-08-08T08:42:26.000Z</time>
      </trkpt>
      <trkpt lat="42.3699416778981685638427734375" lon="2.79412561096251010894775390625">
        <ele>158.600006103515625</ele>
        <time>2020-08-08T08:42:30.000Z</time>
      </trkpt>
      <trkpt lat="42.3699574358761310577392578125" lon="2.7941899001598358154296875">
        <ele>159</ele>
        <time>2020-08-08T08:42:32.000Z</time>
      </trkpt>
      <trkpt lat="42.3699926398694515228271484375" lon="2.794337086379528045654296875">
        <ele>159</ele>
        <time>2020-08-08T08:42:37.000Z</time>
      </trkpt>
      <trkpt lat="42.3699973337352275848388671875" lon="2.7945064008235931396484375">
        <ele>159.600006103515625</ele>
        <time>2020-08-08T08:42:43.000Z</time>
      </trkpt>
      <trkpt lat="42.36999238841235637664794921875" lon="2.7945592068135738372802734375">
        <ele>160</ele>
        <time>2020-08-08T08:42:45.000Z</time>
      </trkpt>
      <trkpt lat="42.36997948028147220611572265625" lon="2.79468719847500324249267578125">
        <ele>161</ele>
        <time>2020-08-08T08:42:50.000Z</time>
      </trkpt>
      <trkpt lat="42.36991661600768566131591796875" lon="2.79488484375178813934326171875">
        <ele>161.8000030517578125</ele>
        <time>2020-08-08T08:42:57.000Z</time>
      </trkpt>
      <trkpt lat="42.36990639008581638336181640625" lon="2.7949489653110504150390625">
        <ele>162</ele>
        <time>2020-08-08T08:42:59.000Z</time>
      </trkpt>
      <trkpt lat="42.36991125158965587615966796875" lon="2.7951080538332462310791015625">
        <ele>162.600006103515625</ele>
        <time>2020-08-08T08:43:04.000Z</time>
      </trkpt>
      <trkpt lat="42.36991678364574909210205078125" lon="2.7953430823981761932373046875">
        <ele>163.1999969482421875</ele>
        <time>2020-08-08T08:43:12.000Z</time>
      </trkpt>
      <trkpt lat="42.3698793165385723114013671875" lon="2.79553569853305816650390625">
        <ele>163.600006103515625</ele>
        <time>2020-08-08T08:43:18.000Z</time>
      </trkpt>
      <trkpt lat="42.3698286898434162139892578125" lon="2.79568464495241641998291015625">
        <ele>164.1999969482421875</ele>
        <time>2020-08-08T08:43:23.000Z</time>
      </trkpt>
      <trkpt lat="42.36981955356895923614501953125" lon="2.7957132272422313690185546875">
        <ele>164.600006103515625</ele>
        <time>2020-08-08T08:43:24.000Z</time>
      </trkpt>
      <trkpt lat="42.36974763683974742889404296875" lon="2.7958728186786174774169921875">
        <ele>164.8000030517578125</ele>
        <time>2020-08-08T08:43:30.000Z</time>
      </trkpt>
      <trkpt lat="42.36971318721771240234375" lon="2.79594129882752895355224609375">
        <ele>165.399993896484375</ele>
        <time>2020-08-08T08:43:33.000Z</time>
      </trkpt>
      <trkpt lat="42.36964537762105464935302734375" lon="2.7960163168609142303466796875">
        <ele>165.8000030517578125</ele>
        <time>2020-08-08T08:43:37.000Z</time>
      </trkpt>
      <trkpt lat="42.36958016641438007354736328125" lon="2.7961242757737636566162109375">
        <ele>166.399993896484375</ele>
        <time>2020-08-08T08:43:42.000Z</time>
      </trkpt>
      <trkpt lat="42.36955971457064151763916015625" lon="2.7961708791553974151611328125">
        <ele>166.600006103515625</ele>
        <time>2020-08-08T08:43:44.000Z</time>
      </trkpt>
      <trkpt lat="42.3695108480751514434814453125" lon="2.796338014304637908935546875">
        <ele>166.8000030517578125</ele>
        <time>2020-08-08T08:43:51.000Z</time>
      </trkpt>
      <trkpt lat="42.36947053112089633941650390625" lon="2.79650397598743438720703125">
        <ele>167.399993896484375</ele>
        <time>2020-08-08T08:43:57.000Z</time>
      </trkpt>
      <trkpt lat="42.369458042085170745849609375" lon="2.7965913154184818267822265625">
        <ele>167.8000030517578125</ele>
        <time>2020-08-08T08:44:00.000Z</time>
      </trkpt>
      <trkpt lat="42.369404397904872894287109375" lon="2.79669097624719142913818359375">
        <ele>168.1999969482421875</ele>
        <time>2020-08-08T08:44:04.000Z</time>
      </trkpt>
      <trkpt lat="42.36923885531723499298095703125" lon="2.796781249344348907470703125">
        <ele>167.8000030517578125</ele>
        <time>2020-08-08T08:44:09.000Z</time>
      </trkpt>
      <trkpt lat="42.3689663596451282501220703125" lon="2.7968962490558624267578125">
        <ele>166.8000030517578125</ele>
        <time>2020-08-08T08:44:16.000Z</time>
      </trkpt>
      <trkpt lat="42.3688855580985546112060546875" lon="2.7968809939920902252197265625">
        <ele>166.600006103515625</ele>
        <time>2020-08-08T08:44:18.000Z</time>
      </trkpt>
      <trkpt lat="42.36879411153495311737060546875" lon="2.796861045062541961669921875">
        <ele>165.600006103515625</ele>
        <time>2020-08-08T08:44:20.000Z</time>
      </trkpt>
      <trkpt lat="42.36874901689589023590087890625" lon="2.79685291461646556854248046875">
        <ele>165.399993896484375</ele>
        <time>2020-08-08T08:44:21.000Z</time>
      </trkpt>
      <trkpt lat="42.36870408989489078521728515625" lon="2.79684872366487979888916015625">
        <ele>165.1999969482421875</ele>
        <time>2020-08-08T08:44:22.000Z</time>
      </trkpt>
      <trkpt lat="42.36858196556568145751953125" lon="2.79688426293432712554931640625">
        <ele>165</ele>
        <time>2020-08-08T08:44:25.000Z</time>
      </trkpt>
      <trkpt lat="42.36852320842444896697998046875" lon="2.7969262562692165374755859375">
        <ele>164.600006103515625</ele>
        <time>2020-08-08T08:44:27.000Z</time>
      </trkpt>
      <trkpt lat="42.3684812150895595550537109375" lon="2.79694511555135250091552734375">
        <ele>164.8000030517578125</ele>
        <time>2020-08-08T08:44:29.000Z</time>
      </trkpt>
      <trkpt lat="42.36837937496602535247802734375" lon="2.79697428457438945770263671875">
        <ele>166</ele>
        <time>2020-08-08T08:44:35.000Z</time>
      </trkpt>
      <trkpt lat="42.3683186061680316925048828125" lon="2.79699306003749370574951171875">
        <ele>166.600006103515625</ele>
        <time>2020-08-08T08:44:39.000Z</time>
      </trkpt>
      <trkpt lat="42.36827778629958629608154296875" lon="2.79701267369091510772705078125">
        <ele>167.1999969482421875</ele>
        <time>2020-08-08T08:44:42.000Z</time>
      </trkpt>
      <trkpt lat="42.36823621205985546112060546875" lon="2.79703111387789249420166015625">
        <ele>167.600006103515625</ele>
        <time>2020-08-08T08:44:45.000Z</time>
      </trkpt>
      <trkpt lat="42.3681690730154514312744140625" lon="2.79705919325351715087890625">
        <ele>168.8000030517578125</ele>
        <time>2020-08-08T08:44:49.000Z</time>
      </trkpt>
      <trkpt lat="42.36815406940877437591552734375" lon="2.79707218520343303680419921875">
        <ele>169</ele>
        <time>2020-08-08T08:44:50.000Z</time>
      </trkpt>
      <trkpt lat="42.3680745251476764678955078125" lon="2.79715307056903839111328125">
        <ele>169.8000030517578125</ele>
        <time>2020-08-08T08:44:55.000Z</time>
      </trkpt>
      <trkpt lat="42.36805818043649196624755859375" lon="2.7971669845283031463623046875">
        <ele>170</ele>
        <time>2020-08-08T08:44:56.000Z</time>
      </trkpt>
      <trkpt lat="42.36798643134534358978271484375" lon="2.7971998415887355804443359375">
        <ele>171.1999969482421875</ele>
        <time>2020-08-08T08:45:00.000Z</time>
      </trkpt>
      <trkpt lat="42.36793681047856807708740234375" lon="2.79721870087087154388427734375">
        <ele>171.600006103515625</ele>
        <time>2020-08-08T08:45:03.000Z</time>
      </trkpt>
      <trkpt lat="42.36788769252598285675048828125" lon="2.79724082909524440765380859375">
        <ele>172.1999969482421875</ele>
        <time>2020-08-08T08:45:06.000Z</time>
      </trkpt>
      <trkpt lat="42.36781041137874126434326171875" lon="2.79729849658906459808349609375">
        <ele>173.1999969482421875</ele>
        <time>2020-08-08T08:45:11.000Z</time>
      </trkpt>
      <trkpt lat="42.36774000339210033416748046875" lon="2.797342501580715179443359375">
        <ele>173.399993896484375</ele>
        <time>2020-08-08T08:45:15.000Z</time>
      </trkpt>
      <trkpt lat="42.367679737508296966552734375" lon="2.79737158678472042083740234375">
        <ele>173.600006103515625</ele>
        <time>2020-08-08T08:45:18.000Z</time>
      </trkpt>
      <trkpt lat="42.36755593679845333099365234375" lon="2.79740310274064540863037109375">
        <ele>173.8000030517578125</ele>
        <time>2020-08-08T08:45:24.000Z</time>
      </trkpt>
      <trkpt lat="42.36739668063819408416748046875" lon="2.7974259853363037109375">
        <ele>174</ele>
        <time>2020-08-08T08:45:31.000Z</time>
      </trkpt>
      <trkpt lat="42.3672614805400371551513671875" lon="2.797414921224117279052734375">
        <ele>174.399993896484375</ele>
        <time>2020-08-08T08:45:37.000Z</time>
      </trkpt>
      <trkpt lat="42.36724245361983776092529296875" lon="2.79741735197603702545166015625">
        <ele>174.600006103515625</ele>
        <time>2020-08-08T08:45:38.000Z</time>
      </trkpt>
      <trkpt lat="42.3672001250088214874267578125" lon="2.79741785489022731781005859375">
        <ele>174.8000030517578125</ele>
        <time>2020-08-08T08:45:40.000Z</time>
      </trkpt>
      <trkpt lat="42.36712820827960968017578125" lon="2.797380387783050537109375">
        <ele>175</ele>
        <time>2020-08-08T08:45:44.000Z</time>
      </trkpt>
      <trkpt lat="42.36705084331333637237548828125" lon="2.79726563952863216400146484375">
        <ele>175.8000030517578125</ele>
        <time>2020-08-08T08:45:51.000Z</time>
      </trkpt>
      <trkpt lat="42.36705771647393703460693359375" lon="2.79715918935835361480712890625">
        <ele>177.399993896484375</ele>
        <time>2020-08-08T08:45:57.000Z</time>
      </trkpt>
      <trkpt lat="42.36705956049263477325439453125" lon="2.797142006456851959228515625">
        <ele>177.8000030517578125</ele>
        <time>2020-08-08T08:45:58.000Z</time>
      </trkpt>
      <trkpt lat="42.3670703731477260589599609375" lon="2.79709313996136188507080078125">
        <ele>178.1999969482421875</ele>
        <time>2020-08-08T08:46:01.000Z</time>
      </trkpt>
      <trkpt lat="42.3670844547450542449951171875" lon="2.79705927707254886627197265625">
        <ele>178.600006103515625</ele>
        <time>2020-08-08T08:46:03.000Z</time>
      </trkpt>
      <trkpt lat="42.36710247583687305450439453125" lon="2.7970276772975921630859375">
        <ele>179.1999969482421875</ele>
        <time>2020-08-08T08:46:05.000Z</time>
      </trkpt>
      <trkpt lat="42.367115803062915802001953125" lon="2.797013930976390838623046875">
        <ele>179.399993896484375</ele>
        <time>2020-08-08T08:46:06.000Z</time>
      </trkpt>
      <trkpt lat="42.3671288788318634033203125" lon="2.79700219631195068359375">
        <ele>179.8000030517578125</ele>
        <time>2020-08-08T08:46:07.000Z</time>
      </trkpt>
      <trkpt lat="42.36716064624488353729248046875" lon="2.796966321766376495361328125">
        <ele>180.399993896484375</ele>
        <time>2020-08-08T08:46:10.000Z</time>
      </trkpt>
      <trkpt lat="42.36717070452868938446044921875" lon="2.79695802368223667144775390625">
        <ele>180.8000030517578125</ele>
        <time>2020-08-08T08:46:11.000Z</time>
      </trkpt>
      <trkpt lat="42.3671813495457172393798828125" lon="2.79695450328290462493896484375">
        <ele>181</ele>
        <time>2020-08-08T08:46:12.000Z</time>
      </trkpt>
      <trkpt lat="42.36722183413803577423095703125" lon="2.7969571016728878021240234375">
        <ele>181.8000030517578125</ele>
        <time>2020-08-08T08:46:15.000Z</time>
      </trkpt>
      <trkpt lat="42.367301546037197113037109375" lon="2.79695433564484119415283203125">
        <ele>182.8000030517578125</ele>
        <time>2020-08-08T08:46:20.000Z</time>
      </trkpt>
      <trkpt lat="42.36731604672968387603759765625" lon="2.796951234340667724609375">
        <ele>183</ele>
        <time>2020-08-08T08:46:21.000Z</time>
      </trkpt>
      <trkpt lat="42.367372624576091766357421875" lon="2.79688258655369281768798828125">
        <ele>183.8000030517578125</ele>
        <time>2020-08-08T08:46:27.000Z</time>
      </trkpt>
      <trkpt lat="42.3673748038709163665771484375" lon="2.7968649007380008697509765625">
        <ele>184</ele>
        <time>2020-08-08T08:46:28.000Z</time>
      </trkpt>
      <trkpt lat="42.36737421713769435882568359375" lon="2.79683363623917102813720703125">
        <ele>184.600006103515625</ele>
        <time>2020-08-08T08:46:30.000Z</time>
      </trkpt>
      <trkpt lat="42.36734814941883087158203125" lon="2.796794660389423370361328125">
        <ele>185.1999969482421875</ele>
        <time>2020-08-08T08:46:33.000Z</time>
      </trkpt>
      <trkpt lat="42.36732442863285541534423828125" lon="2.79677395708858966827392578125">
        <ele>185.600006103515625</ele>
        <time>2020-08-08T08:46:35.000Z</time>
      </trkpt>
      <trkpt lat="42.367316298186779022216796875" lon="2.79676104895770549774169921875">
        <ele>185.8000030517578125</ele>
        <time>2020-08-08T08:46:36.000Z</time>
      </trkpt>
      <trkpt lat="42.36729995347559452056884765625" lon="2.79671662487089633941650390625">
        <ele>186.1999969482421875</ele>
        <time>2020-08-08T08:46:39.000Z</time>
      </trkpt>
      <trkpt lat="42.3672953434288501739501953125" lon="2.7967006154358386993408203125">
        <ele>186.399993896484375</ele>
        <time>2020-08-08T08:46:40.000Z</time>
      </trkpt>
      <trkpt lat="42.3672906495630741119384765625" lon="2.7966851927340030670166015625">
        <ele>186.8000030517578125</ele>
        <time>2020-08-08T08:46:41.000Z</time>
      </trkpt>
      <trkpt lat="42.36727832816541194915771484375" lon="2.79660581611096858978271484375">
        <ele>188</ele>
        <time>2020-08-08T08:46:46.000Z</time>
      </trkpt>
      <trkpt lat="42.367281429469585418701171875" lon="2.7965886332094669342041015625">
        <ele>188.1999969482421875</ele>
        <time>2020-08-08T08:46:47.000Z</time>
      </trkpt>
      <trkpt lat="42.3673194833099842071533203125" lon="2.796551249921321868896484375">
        <ele>189.1999969482421875</ele>
        <time>2020-08-08T08:46:51.000Z</time>
      </trkpt>
      <trkpt lat="42.36740271560847759246826171875" lon="2.79654244892299175262451171875">
        <ele>190.1999969482421875</ele>
        <time>2020-08-08T08:46:58.000Z</time>
      </trkpt>
      <trkpt lat="42.3674160428345203399658203125" lon="2.796538509428501129150390625">
        <ele>190.399993896484375</ele>
        <time>2020-08-08T08:46:59.000Z</time>
      </trkpt>
      <trkpt lat="42.3675240017473697662353515625" lon="2.79649115167558193206787109375">
        <ele>191.399993896484375</ele>
        <time>2020-08-08T08:47:06.000Z</time>
      </trkpt>
      <trkpt lat="42.3675392568111419677734375" lon="2.79648075811564922332763671875">
        <ele>191.600006103515625</ele>
        <time>2020-08-08T08:47:07.000Z</time>
      </trkpt>
      <trkpt lat="42.36762047745287418365478515625" lon="2.79643692076206207275390625">
        <ele>192.1999969482421875</ele>
        <time>2020-08-08T08:47:13.000Z</time>
      </trkpt>
      <trkpt lat="42.3676473833620548248291015625" lon="2.796421833336353302001953125">
        <ele>192.8000030517578125</ele>
        <time>2020-08-08T08:47:15.000Z</time>
      </trkpt>
      <trkpt lat="42.367723993957042694091796875" lon="2.796385623514652252197265625">
        <ele>193.8000030517578125</ele>
        <time>2020-08-08T08:47:21.000Z</time>
      </trkpt>
      <trkpt lat="42.3677375726401805877685546875" lon="2.79637816362082958221435546875">
        <ele>193.8000030517578125</ele>
        <time>2020-08-08T08:47:22.000Z</time>
      </trkpt>
      <trkpt lat="42.36783689819276332855224609375" lon="2.79630255885422229766845703125">
        <ele>195</ele>
        <time>2020-08-08T08:47:30.000Z</time>
      </trkpt>
      <trkpt lat="42.36790713854134082794189453125" lon="2.7962069213390350341796875">
        <ele>196</ele>
        <time>2020-08-08T08:47:37.000Z</time>
      </trkpt>
      <trkpt lat="42.3679856769740581512451171875" lon="2.7961195819079875946044921875">
        <ele>196.600006103515625</ele>
        <time>2020-08-08T08:47:44.000Z</time>
      </trkpt>
      <trkpt lat="42.3680591024458408355712890625" lon="2.79601321555674076080322265625">
        <ele>196.8000030517578125</ele>
        <time>2020-08-08T08:47:51.000Z</time>
      </trkpt>
      <trkpt lat="42.36808584071695804595947265625" lon="2.79596074484288692474365234375">
        <ele>197</ele>
        <time>2020-08-08T08:47:54.000Z</time>
      </trkpt>
      <trkpt lat="42.36811702139675617218017578125" lon="2.795889414846897125244140625">
        <ele>197.8000030517578125</ele>
        <time>2020-08-08T08:47:58.000Z</time>
      </trkpt>
      <trkpt lat="42.36812557093799114227294921875" lon="2.7958728186786174774169921875">
        <ele>198</ele>
        <time>2020-08-08T08:47:59.000Z</time>
      </trkpt>
      <trkpt lat="42.36814535222947597503662109375" lon="2.795759327709674835205078125">
        <ele>199</ele>
        <time>2020-08-08T08:48:05.000Z</time>
      </trkpt>
      <trkpt lat="42.3681445978581905364990234375" lon="2.79574113897979259490966796875">
        <ele>199.1999969482421875</ele>
        <time>2020-08-08T08:48:06.000Z</time>
      </trkpt>
      <trkpt lat="42.36813009716570377349853515625" lon="2.79562647454440593719482421875">
        <ele>200.1999969482421875</ele>
        <time>2020-08-08T08:48:12.000Z</time>
      </trkpt>
      <trkpt lat="42.36812640912830829620361328125" lon="2.79560409486293792724609375">
        <ele>200.1999969482421875</ele>
        <time>2020-08-08T08:48:13.000Z</time>
      </trkpt>
      <trkpt lat="42.368122637271881103515625" lon="2.79554433189332485198974609375">
        <ele>200.600006103515625</ele>
        <time>2020-08-08T08:48:16.000Z</time>
      </trkpt>
      <trkpt lat="42.36812540329992771148681640625" lon="2.7954865805804729461669921875">
        <ele>200.8000030517578125</ele>
        <time>2020-08-08T08:48:19.000Z</time>
      </trkpt>
      <trkpt lat="42.36812330782413482666015625" lon="2.7954460121691226959228515625">
        <ele>201</ele>
        <time>2020-08-08T08:48:21.000Z</time>
      </trkpt>
      <trkpt lat="42.368122301995754241943359375" lon="2.795426063239574432373046875">
        <ele>201.1999969482421875</ele>
        <time>2020-08-08T08:48:22.000Z</time>
      </trkpt>
      <trkpt lat="42.3681199550628662109375" lon="2.79533143155276775360107421875">
        <ele>202.1999969482421875</ele>
        <time>2020-08-08T08:48:27.000Z</time>
      </trkpt>
      <trkpt lat="42.3681207932531833648681640625" lon="2.7953105606138706207275390625">
        <ele>202.399993896484375</ele>
        <time>2020-08-08T08:48:28.000Z</time>
      </trkpt>
      <trkpt lat="42.36812305636703968048095703125" lon="2.7951898612082004547119140625">
        <ele>203</ele>
        <time>2020-08-08T08:48:34.000Z</time>
      </trkpt>
      <trkpt lat="42.36812422983348369598388671875" lon="2.79515356756746768951416015625">
        <ele>203.399993896484375</ele>
        <time>2020-08-08T08:48:36.000Z</time>
      </trkpt>
      <trkpt lat="42.36812389455735683441162109375" lon="2.79505399055778980255126953125">
        <ele>204.600006103515625</ele>
        <time>2020-08-08T08:48:41.000Z</time>
      </trkpt>
      <trkpt lat="42.36813613213598728179931640625" lon="2.79494770802557468414306640625">
        <ele>205.8000030517578125</ele>
        <time>2020-08-08T08:48:47.000Z</time>
      </trkpt>
      <trkpt lat="42.36813713796436786651611328125" lon="2.79492683708667755126953125">
        <ele>206</ele>
        <time>2020-08-08T08:48:48.000Z</time>
      </trkpt>
      <trkpt lat="42.368159852921962738037109375" lon="2.7947794832289218902587890625">
        <ele>206.399993896484375</ele>
        <time>2020-08-08T08:48:55.000Z</time>
      </trkpt>
      <trkpt lat="42.3681828193366527557373046875" lon="2.79470161534845829010009765625">
        <ele>206.8000030517578125</ele>
        <time>2020-08-08T08:48:59.000Z</time>
      </trkpt>
      <trkpt lat="42.36820804886519908905029296875" lon="2.79465836472809314727783203125">
        <ele>207.399993896484375</ele>
        <time>2020-08-08T08:49:02.000Z</time>
      </trkpt>
      <trkpt lat="42.36823487095534801483154296875" lon="2.79462299309670925140380859375">
        <ele>207.8000030517578125</ele>
        <time>2020-08-08T08:49:05.000Z</time>
      </trkpt>
      <trkpt lat="42.3682446777820587158203125" lon="2.794583849608898162841796875">
        <ele>208</ele>
        <time>2020-08-08T08:49:07.000Z</time>
      </trkpt>
      <trkpt lat="42.3682555742561817169189453125" lon="2.794543616473674774169921875">
        <ele>208.1999969482421875</ele>
        <time>2020-08-08T08:49:09.000Z</time>
      </trkpt>
      <trkpt lat="42.36826705746352672576904296875" lon="2.794449068605899810791015625">
        <ele>209</ele>
        <time>2020-08-08T08:49:14.000Z</time>
      </trkpt>
      <trkpt lat="42.368262112140655517578125" lon="2.79441478662192821502685546875">
        <ele>209.399993896484375</ele>
        <time>2020-08-08T08:49:16.000Z</time>
      </trkpt>
      <trkpt lat="42.3682642914354801177978515625" lon="2.7943825162947177886962890625">
        <ele>209.399993896484375</ele>
        <time>2020-08-08T08:49:18.000Z</time>
      </trkpt>
      <trkpt lat="42.36828021705150604248046875" lon="2.79430322349071502685546875">
        <ele>209.8000030517578125</ele>
        <time>2020-08-08T08:49:22.000Z</time>
      </trkpt>
      <trkpt lat="42.36828650347888469696044921875" lon="2.794282436370849609375">
        <ele>210</ele>
        <time>2020-08-08T08:49:23.000Z</time>
      </trkpt>
      <trkpt lat="42.3683251440525054931640625" lon="2.794186212122440338134765625">
        <ele>210.399993896484375</ele>
        <time>2020-08-08T08:49:28.000Z</time>
      </trkpt>
      <trkpt lat="42.3683745972812175750732421875" lon="2.794114463031291961669921875">
        <ele>211.1999969482421875</ele>
        <time>2020-08-08T08:49:33.000Z</time>
      </trkpt>
      <trkpt lat="42.368380129337310791015625" lon="2.794044725596904754638671875">
        <ele>211.600006103515625</ele>
        <time>2020-08-08T08:49:37.000Z</time>
      </trkpt>
      <trkpt lat="42.36836177296936511993408203125" lon="2.7940093539655208587646484375">
        <ele>212</ele>
        <time>2020-08-08T08:49:39.000Z</time>
      </trkpt>
      <trkpt lat="42.36833595670759677886962890625" lon="2.79398596845567226409912109375">
        <ele>212.1999969482421875</ele>
        <time>2020-08-08T08:49:41.000Z</time>
      </trkpt>
      <trkpt lat="42.36828935332596302032470703125" lon="2.7939811907708644866943359375">
        <ele>213</ele>
        <time>2020-08-08T08:49:44.000Z</time>
      </trkpt>
      <trkpt lat="42.36826479434967041015625" lon="2.7939878962934017181396484375">
        <ele>213.600006103515625</ele>
        <time>2020-08-08T08:49:46.000Z</time>
      </trkpt>
      <trkpt lat="42.3682424984872341156005859375" lon="2.79402293264865875244140625">
        <ele>214.600006103515625</ele>
        <time>2020-08-08T08:49:49.000Z</time>
      </trkpt>
      <trkpt lat="42.36823285929858684539794921875" lon="2.79403542168438434600830078125">
        <ele>215</ele>
        <time>2020-08-08T08:49:50.000Z</time>
      </trkpt>
      <trkpt lat="42.3681687377393245697021484375" lon="2.794114463031291961669921875">
        <ele>215.600006103515625</ele>
        <time>2020-08-08T08:49:56.000Z</time>
      </trkpt>
      <trkpt lat="42.368143759667873382568359375" lon="2.7941429615020751953125">
        <ele>215.8000030517578125</ele>
        <time>2020-08-08T08:49:58.000Z</time>
      </trkpt>
      <trkpt lat="42.36808701418340206146240234375" lon="2.7942140400409698486328125">
        <ele>216</ele>
        <time>2020-08-08T08:50:03.000Z</time>
      </trkpt>
      <trkpt lat="42.368083409965038299560546875" lon="2.79421739280223846435546875">
        <ele>216.8000030517578125</ele>
        <time>2020-08-08T08:50:06.000Z</time>
      </trkpt>
      <trkpt lat="42.36808332614600658416748046875" lon="2.79421697370707988739013671875">
        <ele>216.8000030517578125</ele>
        <time>2020-08-08T08:50:11.000Z</time>
      </trkpt>
      <trkpt lat="42.3680782131850719451904296875" lon="2.79422116465866565704345703125">
        <ele>217</ele>
        <time>2020-08-08T08:50:33.000Z</time>
      </trkpt>
      <trkpt lat="42.36797419376671314239501953125" lon="2.7942970208823680877685546875">
        <ele>217.8000030517578125</ele>
        <time>2020-08-08T08:50:41.000Z</time>
      </trkpt>
      <trkpt lat="42.3679469525814056396484375" lon="2.7943240106105804443359375">
        <ele>218</ele>
        <time>2020-08-08T08:50:43.000Z</time>
      </trkpt>
      <trkpt lat="42.36787562258541584014892578125" lon="2.794383354485034942626953125">
        <ele>218.600006103515625</ele>
        <time>2020-08-08T08:50:48.000Z</time>
      </trkpt>
      <trkpt lat="42.36784662120044231414794921875" lon="2.794408835470676422119140625">
        <ele>219.1999969482421875</ele>
        <time>2020-08-08T08:50:50.000Z</time>
      </trkpt>
      <trkpt lat="42.36777654848992824554443359375" lon="2.7944626472890377044677734375">
        <ele>220.1999969482421875</ele>
        <time>2020-08-08T08:50:55.000Z</time>
      </trkpt>
      <trkpt lat="42.3677623830735683441162109375" lon="2.79446675442159175872802734375">
        <ele>220.399993896484375</ele>
        <time>2020-08-08T08:50:56.000Z</time>
      </trkpt>
      <trkpt lat="42.367660291492938995361328125" lon="2.7944733761250972747802734375">
        <ele>221</ele>
        <time>2020-08-08T08:51:02.000Z</time>
      </trkpt>
      <trkpt lat="42.36760103143751621246337890625" lon="2.794450409710407257080078125">
        <ele>221.1999969482421875</ele>
        <time>2020-08-08T08:51:06.000Z</time>
      </trkpt>
      <trkpt lat="42.3675655759871006011962890625" lon="2.79441512189805507659912109375">
        <ele>221.8000030517578125</ele>
        <time>2020-08-08T08:51:09.000Z</time>
      </trkpt>
      <trkpt lat="42.36752693541347980499267578125" lon="2.79434689320623874664306640625">
        <ele>222.399993896484375</ele>
        <time>2020-08-08T08:51:13.000Z</time>
      </trkpt>
      <trkpt lat="42.36750547774136066436767578125" lon="2.79431051574647426605224609375">
        <ele>222.600006103515625</ele>
        <time>2020-08-08T08:51:15.000Z</time>
      </trkpt>
      <trkpt lat="42.36740724183619022369384765625" lon="2.79418847523629665374755859375">
        <ele>223.600006103515625</ele>
        <time>2020-08-08T08:51:24.000Z</time>
      </trkpt>
      <trkpt lat="42.367311604321002960205078125" lon="2.79412887990474700927734375">
        <ele>224.8000030517578125</ele>
        <time>2020-08-08T08:51:31.000Z</time>
      </trkpt>
      <trkpt lat="42.36723440699279308319091796875" lon="2.7940824441611766815185546875">
        <ele>226</ele>
        <time>2020-08-08T08:51:37.000Z</time>
      </trkpt>
      <trkpt lat="42.3671739734709262847900390625" lon="2.79403424821794033050537109375">
        <ele>226.600006103515625</ele>
        <time>2020-08-08T08:51:42.000Z</time>
      </trkpt>
      <trkpt lat="42.367164753377437591552734375" lon="2.79402293264865875244140625">
        <ele>227</ele>
        <time>2020-08-08T08:51:43.000Z</time>
      </trkpt>
      <trkpt lat="42.36708185635507106781005859375" lon="2.7939520217478275299072265625">
        <ele>227.600006103515625</ele>
        <time>2020-08-08T08:51:50.000Z</time>
      </trkpt>
      <trkpt lat="42.36706651747226715087890625" lon="2.79392302036285400390625">
        <ele>228.1999969482421875</ele>
        <time>2020-08-08T08:51:52.000Z</time>
      </trkpt>
      <trkpt lat="42.3670227639377117156982421875" lon="2.793865688145160675048828125">
        <ele>228.8000030517578125</ele>
        <time>2020-08-08T08:51:56.000Z</time>
      </trkpt>
      <trkpt lat="42.3669637553393840789794921875" lon="2.79382168315351009368896484375">
        <ele>229.1999969482421875</ele>
        <time>2020-08-08T08:52:01.000Z</time>
      </trkpt>
      <trkpt lat="42.36695361323654651641845703125" lon="2.79381732456386089324951171875">
        <ele>229.399993896484375</ele>
        <time>2020-08-08T08:52:02.000Z</time>
      </trkpt>
      <trkpt lat="42.36689493991434574127197265625" lon="2.79380676336586475372314453125">
        <ele>230.399993896484375</ele>
        <time>2020-08-08T08:52:07.000Z</time>
      </trkpt>
      <trkpt lat="42.3668749071657657623291015625" lon="2.79382503591477870941162109375">
        <ele>230.600006103515625</ele>
        <time>2020-08-08T08:52:09.000Z</time>
      </trkpt>
      <trkpt lat="42.36682939343154430389404296875" lon="2.793895192444324493408203125">
        <ele>231.399993896484375</ele>
        <time>2020-08-08T08:52:14.000Z</time>
      </trkpt>
      <trkpt lat="42.3667937703430652618408203125" lon="2.793933413922786712646484375">
        <ele>231.600006103515625</ele>
        <time>2020-08-08T08:52:17.000Z</time>
      </trkpt>
      <trkpt lat="42.36670668236911296844482421875" lon="2.7940509282052516937255859375">
        <ele>232.399993896484375</ele>
        <time>2020-08-08T08:52:26.000Z</time>
      </trkpt>
      <trkpt lat="42.366661168634891510009765625" lon="2.79412946663796901702880859375">
        <ele>233.600006103515625</ele>
        <time>2020-08-08T08:52:31.000Z</time>
      </trkpt>
      <trkpt lat="42.36662906594574451446533203125" lon="2.7941904030740261077880859375">
        <ele>234</ele>
        <time>2020-08-08T08:52:35.000Z</time>
      </trkpt>
      <trkpt lat="42.36660383641719818115234375" lon="2.79422585852444171905517578125">
        <ele>234.600006103515625</ele>
        <time>2020-08-08T08:52:38.000Z</time>
      </trkpt>
      <trkpt lat="42.36655781976878643035888671875" lon="2.79428838752210140228271484375">
        <ele>235.8000030517578125</ele>
        <time>2020-08-08T08:52:43.000Z</time>
      </trkpt>
      <trkpt lat="42.36648439429700374603271484375" lon="2.7944113500416278839111328125">
        <ele>236.8000030517578125</ele>
        <time>2020-08-08T08:52:51.000Z</time>
      </trkpt>
      <trkpt lat="42.3664283193647861480712890625" lon="2.7944924868643283843994140625">
        <ele>238</ele>
        <time>2020-08-08T08:52:57.000Z</time>
      </trkpt>
      <trkpt lat="42.36640510149300098419189453125" lon="2.79451184906065464019775390625">
        <ele>238</ele>
        <time>2020-08-08T08:52:59.000Z</time>
      </trkpt>
      <trkpt lat="42.36633025109767913818359375" lon="2.794550992548465728759765625">
        <ele>239</ele>
        <time>2020-08-08T08:53:05.000Z</time>
      </trkpt>
      <trkpt lat="42.36628892831504344940185546875" lon="2.79457421042025089263916015625">
        <ele>239.600006103515625</ele>
        <time>2020-08-08T08:53:08.000Z</time>
      </trkpt>
      <trkpt lat="42.36623209901154041290283203125" lon="2.79457236640155315399169921875">
        <ele>240.1999969482421875</ele>
        <time>2020-08-08T08:53:12.000Z</time>
      </trkpt>
      <trkpt lat="42.366191782057285308837890625" lon="2.79456079937517642974853515625">
        <ele>240.600006103515625</ele>
        <time>2020-08-08T08:53:15.000Z</time>
      </trkpt>
      <trkpt lat="42.3661611042916774749755859375" lon="2.794526182115077972412109375">
        <ele>241.399993896484375</ele>
        <time>2020-08-08T08:53:18.000Z</time>
      </trkpt>
      <trkpt lat="42.3661507107317447662353515625" lon="2.794516123831272125244140625">
        <ele>241.600006103515625</ele>
        <time>2020-08-08T08:53:19.000Z</time>
      </trkpt>
      <trkpt lat="42.3661124892532825469970703125" lon="2.79446323402225971221923828125">
        <ele>242.600006103515625</ele>
        <time>2020-08-08T08:53:23.000Z</time>
      </trkpt>
      <trkpt lat="42.366103939712047576904296875" lon="2.79445066116750240325927734375">
        <ele>242.600006103515625</ele>
        <time>2020-08-08T08:53:24.000Z</time>
      </trkpt>
      <trkpt lat="42.36607301048934459686279296875" lon="2.79440305195748805999755859375">
        <ele>243.600006103515625</ele>
        <time>2020-08-08T08:53:28.000Z</time>
      </trkpt>
      <trkpt lat="42.3660613596439361572265625" lon="2.7943711169064044952392578125">
        <ele>244.1999969482421875</ele>
        <time>2020-08-08T08:53:30.000Z</time>
      </trkpt>
      <trkpt lat="42.36604820005595684051513671875" lon="2.79432409442961215972900390625">
        <ele>244.8000030517578125</ele>
        <time>2020-08-08T08:53:33.000Z</time>
      </trkpt>
      <trkpt lat="42.36602841876447200775146484375" lon="2.79425628483295440673828125">
        <ele>245.399993896484375</ele>
        <time>2020-08-08T08:53:37.000Z</time>
      </trkpt>
      <trkpt lat="42.366019785404205322265625" lon="2.79422384686768054962158203125">
        <ele>246</ele>
        <time>2020-08-08T08:53:39.000Z</time>
      </trkpt>
      <trkpt lat="42.36601467244327068328857421875" lon="2.79415905475616455078125">
        <ele>246.600006103515625</ele>
        <time>2020-08-08T08:53:43.000Z</time>
      </trkpt>
      <trkpt lat="42.366010062396526336669921875" lon="2.7941206656396389007568359375">
        <ele>247</ele>
        <time>2020-08-08T08:53:45.000Z</time>
      </trkpt>
      <trkpt lat="42.36599556170403957366943359375" lon="2.7940331585705280303955078125">
        <ele>247.8000030517578125</ele>
        <time>2020-08-08T08:53:50.000Z</time>
      </trkpt>
      <trkpt lat="42.36599287949502468109130859375" lon="2.79401496984064579010009765625">
        <ele>248</ele>
        <time>2020-08-08T08:53:51.000Z</time>
      </trkpt>
      <trkpt lat="42.36599120311439037322998046875" lon="2.79395990073680877685546875">
        <ele>249</ele>
        <time>2020-08-08T08:53:54.000Z</time>
      </trkpt>
      <trkpt lat="42.365989275276660919189453125" lon="2.79394187964498996734619140625">
        <ele>249.1999969482421875</ele>
        <time>2020-08-08T08:53:55.000Z</time>
      </trkpt>
      <trkpt lat="42.3659864254295825958251953125" lon="2.7939225174486637115478515625">
        <ele>249.399993896484375</ele>
        <time>2020-08-08T08:53:56.000Z</time>
      </trkpt>
      <trkpt lat="42.36599019728600978851318359375" lon="2.79382637701928615570068359375">
        <ele>250.1999969482421875</ele>
        <time>2020-08-08T08:54:01.000Z</time>
      </trkpt>
      <trkpt lat="42.365993969142436981201171875" lon="2.7937894128262996673583984375">
        <ele>250.399993896484375</ele>
        <time>2020-08-08T08:54:03.000Z</time>
      </trkpt>
      <trkpt lat="42.365991957485675811767578125" lon="2.79376820661127567291259765625">
        <ele>250.600006103515625</ele>
        <time>2020-08-08T08:54:04.000Z</time>
      </trkpt>
      <trkpt lat="42.36598047427833080291748046875" lon="2.79368765652179718017578125">
        <ele>251.1999969482421875</ele>
        <time>2020-08-08T08:54:08.000Z</time>
      </trkpt>
      <trkpt lat="42.36595013178884983062744140625" lon="2.79355748556554317474365234375">
        <ele>252.1999969482421875</ele>
        <time>2020-08-08T08:54:15.000Z</time>
      </trkpt>
      <trkpt lat="42.3659109883010387420654296875" lon="2.79347785748541355133056640625">
        <ele>253.600006103515625</ele>
        <time>2020-08-08T08:54:20.000Z</time>
      </trkpt>
      <trkpt lat="42.36590109765529632568359375" lon="2.7934648655354976654052734375">
        <ele>253.8000030517578125</ele>
        <time>2020-08-08T08:54:21.000Z</time>
      </trkpt>
      <trkpt lat="42.36589011736214160919189453125" lon="2.793453298509120941162109375">
        <ele>254.1999969482421875</ele>
        <time>2020-08-08T08:54:22.000Z</time>
      </trkpt>
      <trkpt lat="42.36584116704761981964111328125" lon="2.79337517917156219482421875">
        <ele>254.399993896484375</ele>
        <time>2020-08-08T08:54:27.000Z</time>
      </trkpt>
      <trkpt lat="42.36577595584094524383544921875" lon="2.7932734228670597076416015625">
        <ele>255.399993896484375</ele>
        <time>2020-08-08T08:54:34.000Z</time>
      </trkpt>
      <trkpt lat="42.3657716810703277587890625" lon="2.79325959272682666778564453125">
        <ele>255.8000030517578125</ele>
        <time>2020-08-08T08:54:35.000Z</time>
      </trkpt>
      <trkpt lat="42.36576564610004425048828125" lon="2.79324534349143505096435546875">
        <ele>256</ele>
        <time>2020-08-08T08:54:36.000Z</time>
      </trkpt>
      <trkpt lat="42.36574326641857624053955078125" lon="2.7932040207087993621826171875">
        <ele>256.399993896484375</ele>
        <time>2020-08-08T08:54:39.000Z</time>
      </trkpt>
      <trkpt lat="42.365721724927425384521484375" lon="2.7931540645658969879150390625">
        <ele>256.79998779296875</ele>
        <time>2020-08-08T08:54:42.000Z</time>
      </trkpt>
      <trkpt lat="42.3656900413334369659423828125" lon="2.7930903621017932891845703125">
        <ele>257.20001220703125</ele>
        <time>2020-08-08T08:54:46.000Z</time>
      </trkpt>
      <trkpt lat="42.3656632192432880401611328125" lon="2.7930155955255031585693359375">
        <ele>257.79998779296875</ele>
        <time>2020-08-08T08:54:50.000Z</time>
      </trkpt>
      <trkpt lat="42.36564620397984981536865234375" lon="2.79296454973518848419189453125">
        <ele>258.20001220703125</ele>
        <time>2020-08-08T08:54:53.000Z</time>
      </trkpt>
      <trkpt lat="42.36561167053878307342529296875" lon="2.79283999465405941009521484375">
        <ele>258.79998779296875</ele>
        <time>2020-08-08T08:54:59.000Z</time>
      </trkpt>
      <trkpt lat="42.36559876240789890289306640625" lon="2.792796157300472259521484375">
        <ele>259</ele>
        <time>2020-08-08T08:55:01.000Z</time>
      </trkpt>
      <trkpt lat="42.3655636422336101531982421875" lon="2.792662046849727630615234375">
        <ele>259.399993896484375</ele>
        <time>2020-08-08T08:55:07.000Z</time>
      </trkpt>
      <trkpt lat="42.3655264265835285186767578125" lon="2.79253807850182056427001953125">
        <ele>260</ele>
        <time>2020-08-08T08:55:13.000Z</time>
      </trkpt>
      <trkpt lat="42.36552148126065731048583984375" lon="2.79251687228679656982421875">
        <ele>260.20001220703125</ele>
        <time>2020-08-08T08:55:14.000Z</time>
      </trkpt>
      <trkpt lat="42.36551678739488124847412109375" lon="2.79239793308079242706298828125">
        <ele>261.20001220703125</ele>
        <time>2020-08-08T08:55:19.000Z</time>
      </trkpt>
      <trkpt lat="42.36552014015614986419677734375" lon="2.79232853092253208160400390625">
        <ele>262</ele>
        <time>2020-08-08T08:55:22.000Z</time>
      </trkpt>
      <trkpt lat="42.36552533693611621856689453125" lon="2.79228075407445430755615234375">
        <ele>262.399993896484375</ele>
        <time>2020-08-08T08:55:24.000Z</time>
      </trkpt>
      <trkpt lat="42.3655374906957149505615234375" lon="2.79213868081569671630859375">
        <ele>263.399993896484375</ele>
        <time>2020-08-08T08:55:30.000Z</time>
      </trkpt>
      <trkpt lat="42.36555232666432857513427734375" lon="2.7920862101018428802490234375">
        <ele>264.399993896484375</ele>
        <time>2020-08-08T08:55:35.000Z</time>
      </trkpt>
      <trkpt lat="42.3655529133975505828857421875" lon="2.792082689702510833740234375">
        <ele>264.600006103515625</ele>
        <time>2020-08-08T08:55:53.000Z</time>
      </trkpt>
      <trkpt lat="42.36555366776883602142333984375" lon="2.79207506217062473297119140625">
        <ele>264.600006103515625</ele>
        <time>2020-08-08T08:56:00.000Z</time>
      </trkpt>
      <trkpt lat="42.36556875519454479217529296875" lon="2.79202812351286411285400390625">
        <ele>264.399993896484375</ele>
        <time>2020-08-08T08:56:03.000Z</time>
      </trkpt>
      <trkpt lat="42.36557227559387683868408203125" lon="2.7920080907642841339111328125">
        <ele>264.79998779296875</ele>
        <time>2020-08-08T08:56:04.000Z</time>
      </trkpt>
      <trkpt lat="42.3656115867197513580322265625" lon="2.791875489056110382080078125">
        <ele>265.20001220703125</ele>
        <time>2020-08-08T08:56:11.000Z</time>
      </trkpt>
      <trkpt lat="42.3656229861080646514892578125" lon="2.7918394468724727630615234375">
        <ele>265.20001220703125</ele>
        <time>2020-08-08T08:56:13.000Z</time>
      </trkpt>
      <trkpt lat="42.36564201302826404571533203125" lon="2.79175956733524799346923828125">
        <ele>265.600006103515625</ele>
        <time>2020-08-08T08:56:17.000Z</time>
      </trkpt>
      <trkpt lat="42.36565165221691131591796875" lon="2.79174447990953922271728515625">
        <ele>265.79998779296875</ele>
        <time>2020-08-08T08:56:18.000Z</time>
      </trkpt>
      <trkpt lat="42.36566414125263690948486328125" lon="2.79171380214393138885498046875">
        <ele>266</ele>
        <time>2020-08-08T08:56:20.000Z</time>
      </trkpt>
      <trkpt lat="42.3656702600419521331787109375" lon="2.791672646999359130859375">
        <ele>266.20001220703125</ele>
        <time>2020-08-08T08:56:22.000Z</time>
      </trkpt>
      <trkpt lat="42.3656840063631534576416015625" lon="2.79163199476897716522216796875">
        <ele>266.399993896484375</ele>
        <time>2020-08-08T08:56:24.000Z</time>
      </trkpt>
      <trkpt lat="42.36573723144829273223876953125" lon="2.79150324873626232147216796875">
        <ele>267.20001220703125</ele>
        <time>2020-08-08T08:56:31.000Z</time>
      </trkpt>
      <trkpt lat="42.36577503383159637451171875" lon="2.7913180924952030181884765625">
        <ele>268.20001220703125</ele>
        <time>2020-08-08T08:56:39.000Z</time>
      </trkpt>
      <trkpt lat="42.3657768778502941131591796875" lon="2.79129252769052982330322265625">
        <ele>268.20001220703125</ele>
        <time>2020-08-08T08:56:40.000Z</time>
      </trkpt>
      <trkpt lat="42.36576941795647144317626953125" lon="2.791165374219417572021484375">
        <ele>268</ele>
        <time>2020-08-08T08:56:45.000Z</time>
      </trkpt>
      <trkpt lat="42.3657336272299289703369140625" lon="2.7909747697412967681884765625">
        <ele>268.20001220703125</ele>
        <time>2020-08-08T08:56:52.000Z</time>
      </trkpt>
      <trkpt lat="42.36566430889070034027099609375" lon="2.79078014194965362548828125">
        <ele>268.600006103515625</ele>
        <time>2020-08-08T08:57:00.000Z</time>
      </trkpt>
      <trkpt lat="42.36561032943427562713623046875" lon="2.79060319997370243072509765625">
        <ele>269.20001220703125</ele>
        <time>2020-08-08T08:57:07.000Z</time>
      </trkpt>
      <trkpt lat="42.36561636440455913543701171875" lon="2.79044645838439464569091796875">
        <ele>269.399993896484375</ele>
        <time>2020-08-08T08:57:13.000Z</time>
      </trkpt>
      <trkpt lat="42.36561954952776432037353515625" lon="2.790269516408443450927734375">
        <ele>270</ele>
        <time>2020-08-08T08:57:19.000Z</time>
      </trkpt>
      <trkpt lat="42.365589626133441925048828125" lon="2.79000640846788883209228515625">
        <ele>269</ele>
        <time>2020-08-08T08:57:24.000Z</time>
      </trkpt>
      <trkpt lat="42.36557797528803348541259765625" lon="2.78987598605453968048095703125">
        <ele>268.20001220703125</ele>
        <time>2020-08-08T08:57:26.000Z</time>
      </trkpt>
      <trkpt lat="42.36556791700422763824462890625" lon="2.7897374331951141357421875">
        <ele>267.79998779296875</ele>
        <time>2020-08-08T08:57:28.000Z</time>
      </trkpt>
      <trkpt lat="42.36552701331675052642822265625" lon="2.7896098606288433074951171875">
        <ele>267.399993896484375</ele>
        <time>2020-08-08T08:57:30.000Z</time>
      </trkpt>
      <trkpt lat="42.36549147404730319976806640625" lon="2.78955613262951374053955078125">
        <ele>267.20001220703125</ele>
        <time>2020-08-08T08:57:31.000Z</time>
      </trkpt>
      <trkpt lat="42.3653594590723514556884765625" lon="2.78944750316441059112548828125">
        <ele>266</ele>
        <time>2020-08-08T08:57:34.000Z</time>
      </trkpt>
      <trkpt lat="42.36526046879589557647705078125" lon="2.78940760530531406402587890625">
        <ele>265.600006103515625</ele>
        <time>2020-08-08T08:57:36.000Z</time>
      </trkpt>
      <trkpt lat="42.36508034169673919677734375" lon="2.78935312293469905853271484375">
        <ele>265.600006103515625</ele>
        <time>2020-08-08T08:57:40.000Z</time>
      </trkpt>
      <trkpt lat="42.36492871306836605072021484375" lon="2.7893178351223468780517578125">
        <ele>266</ele>
        <time>2020-08-08T08:57:45.000Z</time>
      </trkpt>
      <trkpt lat="42.36473810859024524688720703125" lon="2.78927735053002834320068359375">
        <ele>266.79998779296875</ele>
        <time>2020-08-08T08:57:53.000Z</time>
      </trkpt>
      <trkpt lat="42.364715896546840667724609375" lon="2.78927366249263286590576171875">
        <ele>267</ele>
        <time>2020-08-08T08:57:54.000Z</time>
      </trkpt>
      <trkpt lat="42.364611960947513580322265625" lon="2.789255641400814056396484375">
        <ele>267.399993896484375</ele>
        <time>2020-08-08T08:57:59.000Z</time>
      </trkpt>
      <trkpt lat="42.3645729012787342071533203125" lon="2.78924818150699138641357421875">
        <ele>268</ele>
        <time>2020-08-08T08:58:01.000Z</time>
      </trkpt>
      <trkpt lat="42.36445672810077667236328125" lon="2.78924298472702503204345703125">
        <ele>268.600006103515625</ele>
        <time>2020-08-08T08:58:07.000Z</time>
      </trkpt>
      <trkpt lat="42.36438564956188201904296875" lon="2.78925404883921146392822265625">
        <ele>269.20001220703125</ele>
        <time>2020-08-08T08:58:11.000Z</time>
      </trkpt>
      <trkpt lat="42.36433493904769420623779296875" lon="2.7892558090388774871826171875">
        <ele>269.79998779296875</ele>
        <time>2020-08-08T08:58:14.000Z</time>
      </trkpt>
      <trkpt lat="42.36426352523267269134521484375" lon="2.7892511151731014251708984375">
        <ele>270.20001220703125</ele>
        <time>2020-08-08T08:58:18.000Z</time>
      </trkpt>
      <trkpt lat="42.36419529654085636138916015625" lon="2.78923653066158294677734375">
        <ele>271.399993896484375</ele>
        <time>2020-08-08T08:58:22.000Z</time>
      </trkpt>
      <trkpt lat="42.36403956077992916107177734375" lon="2.78921046294271945953369140625">
        <ele>272</ele>
        <time>2020-08-08T08:58:30.000Z</time>
      </trkpt>
      <trkpt lat="42.3639858327805995941162109375" lon="2.78919738717377185821533203125">
        <ele>272.399993896484375</ele>
        <time>2020-08-08T08:58:33.000Z</time>
      </trkpt>
      <trkpt lat="42.36392003484070301055908203125" lon="2.7891649492084980010986328125">
        <ele>273</ele>
        <time>2020-08-08T08:58:37.000Z</time>
      </trkpt>
      <trkpt lat="42.363836467266082763671875" lon="2.78915195725858211517333984375">
        <ele>273.600006103515625</ele>
        <time>2020-08-08T08:58:42.000Z</time>
      </trkpt>
      <trkpt lat="42.3638202063739299774169921875" lon="2.78915547765791416168212890625">
        <ele>273.79998779296875</ele>
        <time>2020-08-08T08:58:43.000Z</time>
      </trkpt>
      <trkpt lat="42.36370445229113101959228515625" lon="2.78915681876242160797119140625">
        <ele>274.399993896484375</ele>
        <time>2020-08-08T08:58:50.000Z</time>
      </trkpt>
      <trkpt lat="42.36365298740565776824951171875" lon="2.78915614821016788482666015625">
        <ele>274.600006103515625</ele>
        <time>2020-08-08T08:58:53.000Z</time>
      </trkpt>
      <trkpt lat="42.3636022768914699554443359375" lon="2.78914491645991802215576171875">
        <ele>274.79998779296875</ele>
        <time>2020-08-08T08:58:56.000Z</time>
      </trkpt>
      <trkpt lat="42.36350261606276035308837890625" lon="2.78912915848195552825927734375">
        <ele>275.600006103515625</ele>
        <time>2020-08-08T08:59:02.000Z</time>
      </trkpt>
      <trkpt lat="42.363373450934886932373046875" lon="2.7890784479677677154541015625">
        <ele>276</ele>
        <time>2020-08-08T08:59:09.000Z</time>
      </trkpt>
      <trkpt lat="42.3633592016994953155517578125" lon="2.78906696476042270660400390625">
        <ele>276.20001220703125</ele>
        <time>2020-08-08T08:59:10.000Z</time>
      </trkpt>
      <trkpt lat="42.36329776234924793243408203125" lon="2.78901717625558376312255859375">
        <ele>276.600006103515625</ele>
        <time>2020-08-08T08:59:14.000Z</time>
      </trkpt>
      <trkpt lat="42.36328049562871456146240234375" lon="2.78896990232169628143310546875">
        <ele>276.79998779296875</ele>
        <time>2020-08-08T08:59:16.000Z</time>
      </trkpt>
      <trkpt lat="42.36324705183506011962890625" lon="2.78885071165859699249267578125">
        <ele>277.399993896484375</ele>
        <time>2020-08-08T08:59:22.000Z</time>
      </trkpt>
      <trkpt lat="42.36324193887412548065185546875" lon="2.788834534585475921630859375">
        <ele>277.399993896484375</ele>
        <time>2020-08-08T08:59:23.000Z</time>
      </trkpt>
      <trkpt lat="42.36322827637195587158203125" lon="2.78878415934741497039794921875">
        <ele>277.600006103515625</ele>
        <time>2020-08-08T08:59:26.000Z</time>
      </trkpt>
      <trkpt lat="42.3632093332707881927490234375" lon="2.788727916777133941650390625">
        <ele>278</ele>
        <time>2020-08-08T08:59:29.000Z</time>
      </trkpt>
      <trkpt lat="42.36319298855960369110107421875" lon="2.788672260940074920654296875">
        <ele>278.600006103515625</ele>
        <time>2020-08-08T08:59:32.000Z</time>
      </trkpt>
      <trkpt lat="42.3631654120981693267822265625" lon="2.788609899580478668212890625">
        <ele>279</ele>
        <time>2020-08-08T08:59:35.000Z</time>
      </trkpt>
      <trkpt lat="42.363146133720874786376953125" lon="2.78856690041720867156982421875">
        <ele>279.600006103515625</ele>
        <time>2020-08-08T08:59:37.000Z</time>
      </trkpt>
      <trkpt lat="42.36312911845743656158447265625" lon="2.7885353006422519683837890625">
        <ele>280</ele>
        <time>2020-08-08T08:59:39.000Z</time>
      </trkpt>
      <trkpt lat="42.363119311630725860595703125" lon="2.78852147050201892852783203125">
        <ele>280.399993896484375</ele>
        <time>2020-08-08T08:59:40.000Z</time>
      </trkpt>
      <trkpt lat="42.363055609166622161865234375" lon="2.788393981754779815673828125">
        <ele>281.20001220703125</ele>
        <time>2020-08-08T08:59:47.000Z</time>
      </trkpt>
      <trkpt lat="42.3630427010357379913330078125" lon="2.7883775532245635986328125">
        <ele>281.399993896484375</ele>
        <time>2020-08-08T08:59:48.000Z</time>
      </trkpt>
      <trkpt lat="42.36296768300235271453857421875" lon="2.788277305662631988525390625">
        <ele>282</ele>
        <time>2020-08-08T08:59:54.000Z</time>
      </trkpt>
      <trkpt lat="42.36294521950185298919677734375" lon="2.788253165781497955322265625">
        <ele>282.600006103515625</ele>
        <time>2020-08-08T08:59:56.000Z</time>
      </trkpt>
      <trkpt lat="42.36289492808282375335693359375" lon="2.78820564039051532745361328125">
        <ele>283.20001220703125</ele>
        <time>2020-08-08T09:00:00.000Z</time>
      </trkpt>
      <trkpt lat="42.3628596402704715728759765625" lon="2.7881557680666446685791015625">
        <ele>283.600006103515625</ele>
        <time>2020-08-08T09:00:03.000Z</time>
      </trkpt>
      <trkpt lat="42.36283122561872005462646484375" lon="2.78808292932808399200439453125">
        <ele>284</ele>
        <time>2020-08-08T09:00:07.000Z</time>
      </trkpt>
      <trkpt lat="42.36279501579701900482177734375" lon="2.78801084496080875396728515625">
        <ele>284.79998779296875</ele>
        <time>2020-08-08T09:00:11.000Z</time>
      </trkpt>
      <trkpt lat="42.36277942545711994171142578125" lon="2.78797999955713748931884765625">
        <ele>284.79998779296875</ele>
        <time>2020-08-08T09:00:13.000Z</time>
      </trkpt>
      <trkpt lat="42.3627399466931819915771484375" lon="2.7879130281507968902587890625">
        <ele>285.600006103515625</ele>
        <time>2020-08-08T09:00:17.000Z</time>
      </trkpt>
      <trkpt lat="42.36272896640002727508544921875" lon="2.78789852745831012725830078125">
        <ele>285.79998779296875</ele>
        <time>2020-08-08T09:00:18.000Z</time>
      </trkpt>
      <trkpt lat="42.3626789264380931854248046875" lon="2.78783365152776241302490234375">
        <ele>286.600006103515625</ele>
        <time>2020-08-08T09:00:23.000Z</time>
      </trkpt>
      <trkpt lat="42.362649925053119659423828125" lon="2.78779090382158756256103515625">
        <ele>287</ele>
        <time>2020-08-08T09:00:26.000Z</time>
      </trkpt>
      <trkpt lat="42.36259284429252147674560546875" lon="2.7877165563404560089111328125">
        <ele>287.600006103515625</ele>
        <time>2020-08-08T09:00:32.000Z</time>
      </trkpt>
      <trkpt lat="42.36257893033325672149658203125" lon="2.78770959936082363128662109375">
        <ele>287.79998779296875</ele>
        <time>2020-08-08T09:00:33.000Z</time>
      </trkpt>
      <trkpt lat="42.36250835470855236053466796875" lon="2.787673808634281158447265625">
        <ele>288.399993896484375</ele>
        <time>2020-08-08T09:00:38.000Z</time>
      </trkpt>
      <trkpt lat="42.36248270608484745025634765625" lon="2.7876649238169193267822265625">
        <ele>288.79998779296875</ele>
        <time>2020-08-08T09:00:40.000Z</time>
      </trkpt>
      <trkpt lat="42.3624164052307605743408203125" lon="2.78763114474713802337646484375">
        <ele>289.399993896484375</ele>
        <time>2020-08-08T09:00:45.000Z</time>
      </trkpt>
      <trkpt lat="42.36238212324678897857666015625" lon="2.7876089327037334442138671875">
        <ele>289.79998779296875</ele>
        <time>2020-08-08T09:00:47.000Z</time>
      </trkpt>
      <trkpt lat="42.36232705414295196533203125" lon="2.7875827811658382415771484375">
        <ele>291</ele>
        <time>2020-08-08T09:00:51.000Z</time>
      </trkpt>
      <trkpt lat="42.36223460175096988677978515625" lon="2.787531651556491851806640625">
        <ele>291.79998779296875</ele>
        <time>2020-08-08T09:00:57.000Z</time>
      </trkpt>
      <trkpt lat="42.362205684185028076171875" lon="2.7875192463397979736328125">
        <ele>292</ele>
        <time>2020-08-08T09:00:59.000Z</time>
      </trkpt>
      <trkpt lat="42.362134270370006561279296875" lon="2.78749099932610988616943359375">
        <ele>293</ele>
        <time>2020-08-08T09:01:04.000Z</time>
      </trkpt>
      <trkpt lat="42.36201633699238300323486328125" lon="2.7874543704092502593994140625">
        <ele>294</ele>
        <time>2020-08-08T09:01:11.000Z</time>
      </trkpt>
      <trkpt lat="42.3619795404374599456787109375" lon="2.78743634931743144989013671875">
        <ele>295</ele>
        <time>2020-08-08T09:01:14.000Z</time>
      </trkpt>
      <trkpt lat="42.3619307577610015869140625" lon="2.7873997204005718231201171875">
        <ele>295.79998779296875</ele>
        <time>2020-08-08T09:01:18.000Z</time>
      </trkpt>
      <trkpt lat="42.361919023096561431884765625" lon="2.78738488443195819854736328125">
        <ele>296</ele>
        <time>2020-08-08T09:01:19.000Z</time>
      </trkpt>
      <trkpt lat="42.36184266395866870880126953125" lon="2.78730399906635284423828125">
        <ele>296.79998779296875</ele>
        <time>2020-08-08T09:01:25.000Z</time>
      </trkpt>
      <trkpt lat="42.36182774417102336883544921875" lon="2.7872941084206104278564453125">
        <ele>297</ele>
        <time>2020-08-08T09:01:26.000Z</time>
      </trkpt>
      <trkpt lat="42.36174426041543483734130859375" lon="2.7872330881655216217041015625">
        <ele>298</ele>
        <time>2020-08-08T09:01:32.000Z</time>
      </trkpt>
      <trkpt lat="42.3617294244468212127685546875" lon="2.7872237004339694976806640625">
        <ele>298.20001220703125</ele>
        <time>2020-08-08T09:01:33.000Z</time>
      </trkpt>
      <trkpt lat="42.36165306530892848968505859375" lon="2.78716578148305416107177734375">
        <ele>299.399993896484375</ele>
        <time>2020-08-08T09:01:39.000Z</time>
      </trkpt>
      <trkpt lat="42.361642420291900634765625" lon="2.78715941123664379119873046875">
        <ele>299.600006103515625</ele>
        <time>2020-08-08T09:01:40.000Z</time>
      </trkpt>
      <trkpt lat="42.36160260625183582305908203125" lon="2.787131331861019134521484375">
        <ele>300.399993896484375</ele>
        <time>2020-08-08T09:01:43.000Z</time>
      </trkpt>
      <trkpt lat="42.3615594394505023956298828125" lon="2.787097133696079254150390625">
        <ele>300.79998779296875</ele>
        <time>2020-08-08T09:01:46.000Z</time>
      </trkpt>
      <trkpt lat="42.36148878000676631927490234375" lon="2.7870563976466655731201171875">
        <ele>301.399993896484375</ele>
        <time>2020-08-08T09:01:51.000Z</time>
      </trkpt>
      <trkpt lat="42.3614588566124439239501953125" lon="2.7870372869074344635009765625">
        <ele>301.600006103515625</ele>
        <time>2020-08-08T09:01:53.000Z</time>
      </trkpt>
      <trkpt lat="42.36137109808623790740966796875" lon="2.78699613176286220550537109375">
        <ele>302.600006103515625</ele>
        <time>2020-08-08T09:01:59.000Z</time>
      </trkpt>
      <trkpt lat="42.3613539151847362518310546875" lon="2.786993198096752166748046875">
        <ele>302.79998779296875</ele>
        <time>2020-08-08T09:02:00.000Z</time>
      </trkpt>
      <trkpt lat="42.36130069009959697723388671875" lon="2.7869693934917449951171875">
        <ele>303</ele>
        <time>2020-08-08T09:02:05.000Z</time>
      </trkpt>
      <trkpt lat="42.36128962598741054534912109375" lon="2.78696176595985889434814453125">
        <ele>303</ele>
        <time>2020-08-08T09:02:21.000Z</time>
      </trkpt>
      <trkpt lat="42.361277639865875244140625" lon="2.78695422224700450897216796875">
        <ele>303</ele>
        <time>2020-08-08T09:02:22.000Z</time>
      </trkpt>
      <trkpt lat="42.36118820495903491973876953125" lon="2.7869125641882419586181640625">
        <ele>303.399993896484375</ele>
        <time>2020-08-08T09:02:29.000Z</time>
      </trkpt>
      <trkpt lat="42.36116322688758373260498046875" lon="2.786899991333484649658203125">
        <ele>303.79998779296875</ele>
        <time>2020-08-08T09:02:31.000Z</time>
      </trkpt>
      <trkpt lat="42.36113942228257656097412109375" lon="2.7868870832026004791259765625">
        <ele>304</ele>
        <time>2020-08-08T09:02:33.000Z</time>
      </trkpt>
      <trkpt lat="42.361104302108287811279296875" lon="2.7868666313588619232177734375">
        <ele>304.399993896484375</ele>
        <time>2020-08-08T09:02:36.000Z</time>
      </trkpt>
      <trkpt lat="42.36104487441480159759521484375" lon="2.78684534132480621337890625">
        <ele>304.600006103515625</ele>
        <time>2020-08-08T09:02:40.000Z</time>
      </trkpt>
      <trkpt lat="42.360997684299945831298828125" lon="2.7868414856493473052978515625">
        <ele>304.600006103515625</ele>
        <time>2020-08-08T09:02:43.000Z</time>
      </trkpt>
      <trkpt lat="42.36089064739644527435302734375" lon="2.78682681731879711151123046875">
        <ele>304.79998779296875</ele>
        <time>2020-08-08T09:02:50.000Z</time>
      </trkpt>
      <trkpt lat="42.36087539233267307281494140625" lon="2.7868200279772281646728515625">
        <ele>305</ele>
        <time>2020-08-08T09:02:51.000Z</time>
      </trkpt>
      <trkpt lat="42.36079677008092403411865234375" lon="2.78679982759058475494384765625">
        <ele>306</ele>
        <time>2020-08-08T09:02:56.000Z</time>
      </trkpt>
      <trkpt lat="42.3607795871794223785400390625" lon="2.78679974377155303955078125">
        <ele>306</ele>
        <time>2020-08-08T09:02:57.000Z</time>
      </trkpt>
      <trkpt lat="42.36066274344921112060546875" lon="2.78679345734417438507080078125">
        <ele>306.79998779296875</ele>
        <time>2020-08-08T09:03:05.000Z</time>
      </trkpt>
      <trkpt lat="42.36063055694103240966796875" lon="2.7867923676967620849609375">
        <ele>307</ele>
        <time>2020-08-08T09:03:07.000Z</time>
      </trkpt>
      <trkpt lat="42.36057414673268795013427734375" lon="2.78674718923866748809814453125">
        <ele>308</ele>
        <time>2020-08-08T09:03:12.000Z</time>
      </trkpt>
      <trkpt lat="42.360568530857563018798828125" lon="2.78672941960394382476806640625">
        <ele>308</ele>
        <time>2020-08-08T09:03:13.000Z</time>
      </trkpt>
      <trkpt lat="42.36053257249295711517333984375" lon="2.7866517193615436553955078125">
        <ele>308.79998779296875</ele>
        <time>2020-08-08T09:03:18.000Z</time>
      </trkpt>
      <trkpt lat="42.36051790416240692138671875" lon="2.786614000797271728515625">
        <ele>309.20001220703125</ele>
        <time>2020-08-08T09:03:20.000Z</time>
      </trkpt>
      <trkpt lat="42.3604714684188365936279296875" lon="2.7865216322243213653564453125">
        <ele>310</ele>
        <time>2020-08-08T09:03:25.000Z</time>
      </trkpt>
      <trkpt lat="42.360463254153728485107421875" lon="2.7865041978657245635986328125">
        <ele>310.20001220703125</ele>
        <time>2020-08-08T09:03:26.000Z</time>
      </trkpt>
      <trkpt lat="42.360430397093296051025390625" lon="2.78641761280596256256103515625">
        <ele>311.20001220703125</ele>
        <time>2020-08-08T09:03:31.000Z</time>
      </trkpt>
      <trkpt lat="42.3604000546038150787353515625" lon="2.7863694168627262115478515625">
        <ele>311.79998779296875</ele>
        <time>2020-08-08T09:03:34.000Z</time>
      </trkpt>
      <trkpt lat="42.3603806085884571075439453125" lon="2.7863462828099727630615234375">
        <ele>312</ele>
        <time>2020-08-08T09:03:36.000Z</time>
      </trkpt>
      <trkpt lat="42.360340543091297149658203125" lon="2.78625668026506900787353515625">
        <ele>312.20001220703125</ele>
        <time>2020-08-08T09:03:41.000Z</time>
      </trkpt>
      <trkpt lat="42.36024423502385616302490234375" lon="2.78603623621165752410888671875">
        <ele>312</ele>
        <time>2020-08-08T09:03:48.000Z</time>
      </trkpt>
      <trkpt lat="42.3601502738893032073974609375" lon="2.785758040845394134521484375">
        <ele>311.399993896484375</ele>
        <time>2020-08-08T09:03:56.000Z</time>
      </trkpt>
      <trkpt lat="42.36010157503187656402587890625" lon="2.78559132479131221771240234375">
        <ele>311.399993896484375</ele>
        <time>2020-08-08T09:04:02.000Z</time>
      </trkpt>
      <trkpt lat="42.36007458530366420745849609375" lon="2.7854437194764614105224609375">
        <ele>311.600006103515625</ele>
        <time>2020-08-08T09:04:08.000Z</time>
      </trkpt>
      <trkpt lat="42.360076010227203369140625" lon="2.78531589545309543609619140625">
        <ele>312</ele>
        <time>2020-08-08T09:04:14.000Z</time>
      </trkpt>
      <trkpt lat="42.36007978208363056182861328125" lon="2.7852951921522617340087890625">
        <ele>312</ele>
        <time>2020-08-08T09:04:15.000Z</time>
      </trkpt>
      <trkpt lat="42.360091097652912139892578125" lon="2.785233668982982635498046875">
        <ele>312.20001220703125</ele>
        <time>2020-08-08T09:04:18.000Z</time>
      </trkpt>
      <trkpt lat="42.3600889183580875396728515625" lon="2.7852127142250537872314453125">
        <ele>312.20001220703125</ele>
        <time>2020-08-08T09:04:19.000Z</time>
      </trkpt>
      <trkpt lat="42.360078357160091400146484375" lon="2.7850799448788166046142578125">
        <ele>313.20001220703125</ele>
        <time>2020-08-08T09:04:25.000Z</time>
      </trkpt>
      <trkpt lat="42.36007961444556713104248046875" lon="2.7850628457963466644287109375">
        <ele>313.20001220703125</ele>
        <time>2020-08-08T09:04:26.000Z</time>
      </trkpt>
      <trkpt lat="42.36008062027394771575927734375" lon="2.78496972285211086273193359375">
        <ele>313.600006103515625</ele>
        <time>2020-08-08T09:04:31.000Z</time>
      </trkpt>
      <trkpt lat="42.360077016055583953857421875" lon="2.7849518693983554840087890625">
        <ele>313.79998779296875</ele>
        <time>2020-08-08T09:04:32.000Z</time>
      </trkpt>
      <trkpt lat="42.36007207073271274566650390625" lon="2.7848952077329158782958984375">
        <ele>314.20001220703125</ele>
        <time>2020-08-08T09:04:35.000Z</time>
      </trkpt>
      <trkpt lat="42.36007173545658588409423828125" lon="2.784873582422733306884765625">
        <ele>314.399993896484375</ele>
        <time>2020-08-08T09:04:36.000Z</time>
      </trkpt>
      <trkpt lat="42.36006620340049266815185546875" lon="2.78477693907916545867919921875">
        <ele>314.79998779296875</ele>
        <time>2020-08-08T09:04:41.000Z</time>
      </trkpt>
      <trkpt lat="42.36005782149732112884521484375" lon="2.78463461436331272125244140625">
        <ele>315.399993896484375</ele>
        <time>2020-08-08T09:04:48.000Z</time>
      </trkpt>
      <trkpt lat="42.3600550554692745208740234375" lon="2.78461382724344730377197265625">
        <ele>315.399993896484375</ele>
        <time>2020-08-08T09:04:49.000Z</time>
      </trkpt>
      <trkpt lat="42.36002949066460132598876953125" lon="2.78450704179704189300537109375">
        <ele>316</ele>
        <time>2020-08-08T09:04:54.000Z</time>
      </trkpt>
      <trkpt lat="42.36001557670533657073974609375" lon="2.78446756303310394287109375">
        <ele>316.600006103515625</ele>
        <time>2020-08-08T09:04:56.000Z</time>
      </trkpt>
      <trkpt lat="42.35999847762286663055419921875" lon="2.78438952751457691192626953125">
        <ele>317.600006103515625</ele>
        <time>2020-08-08T09:05:00.000Z</time>
      </trkpt>
      <trkpt lat="42.35999177210032939910888671875" lon="2.7843725122511386871337890625">
        <ele>318</ele>
        <time>2020-08-08T09:05:01.000Z</time>
      </trkpt>
      <trkpt lat="42.35996763221919536590576171875" lon="2.78432280756533145904541015625">
        <ele>319</ele>
        <time>2020-08-08T09:05:04.000Z</time>
      </trkpt>
      <trkpt lat="42.35995195806026458740234375" lon="2.7842793054878711700439453125">
        <ele>319.20001220703125</ele>
        <time>2020-08-08T09:05:06.000Z</time>
      </trkpt>
      <trkpt lat="42.35994257032871246337890625" lon="2.78416925109922885894775390625">
        <ele>319.600006103515625</ele>
        <time>2020-08-08T09:05:11.000Z</time>
      </trkpt>
      <trkpt lat="42.35994818620383739471435546875" lon="2.78414863161742687225341796875">
        <ele>319.79998779296875</ele>
        <time>2020-08-08T09:05:12.000Z</time>
      </trkpt>
      <trkpt lat="42.35995505936443805694580078125" lon="2.784128598868846893310546875">
        <ele>320</ele>
        <time>2020-08-08T09:05:13.000Z</time>
      </trkpt>
      <trkpt lat="42.35997551120817661285400390625" lon="2.78400756418704986572265625">
        <ele>321.20001220703125</ele>
        <time>2020-08-08T09:05:19.000Z</time>
      </trkpt>
      <trkpt lat="42.35997341573238372802734375" lon="2.7839849330484867095947265625">
        <ele>321.20001220703125</ele>
        <time>2020-08-08T09:05:20.000Z</time>
      </trkpt>
      <trkpt lat="42.35993192531168460845947265625" lon="2.78387471102178096771240234375">
        <ele>322.20001220703125</ele>
        <time>2020-08-08T09:05:26.000Z</time>
      </trkpt>
      <trkpt lat="42.3599185980856418609619140625" lon="2.78385509736835956573486328125">
        <ele>322.20001220703125</ele>
        <time>2020-08-08T09:05:27.000Z</time>
      </trkpt>
      <trkpt lat="42.3598300851881504058837890625" lon="2.78380514122545719146728515625">
        <ele>323.20001220703125</ele>
        <time>2020-08-08T09:05:33.000Z</time>
      </trkpt>
      <trkpt lat="42.35981541685760021209716796875" lon="2.78380782343447208404541015625">
        <ele>323.399993896484375</ele>
        <time>2020-08-08T09:05:34.000Z</time>
      </trkpt>
      <trkpt lat="42.359698824584484100341796875" lon="2.78381218202412128448486328125">
        <ele>323.600006103515625</ele>
        <time>2020-08-08T09:05:41.000Z</time>
      </trkpt>
      <trkpt lat="42.3595766164362430572509765625" lon="2.783781252801418304443359375">
        <ele>324.20001220703125</ele>
        <time>2020-08-08T09:05:49.000Z</time>
      </trkpt>
      <trkpt lat="42.359560020267963409423828125" lon="2.7837740443646907806396484375">
        <ele>324.399993896484375</ele>
        <time>2020-08-08T09:05:50.000Z</time>
      </trkpt>
      <trkpt lat="42.35948315821588039398193359375" lon="2.78376205824315547943115234375">
        <ele>325.20001220703125</ele>
        <time>2020-08-08T09:05:55.000Z</time>
      </trkpt>
      <trkpt lat="42.3594679869711399078369140625" lon="2.78376750648021697998046875">
        <ele>325.399993896484375</ele>
        <time>2020-08-08T09:05:56.000Z</time>
      </trkpt>
      <trkpt lat="42.359454743564128875732421875" lon="2.783771194517612457275390625">
        <ele>325.600006103515625</ele>
        <time>2020-08-08T09:05:57.000Z</time>
      </trkpt>
      <trkpt lat="42.35936547629535198211669921875" lon="2.78376457281410694122314453125">
        <ele>326.399993896484375</ele>
        <time>2020-08-08T09:06:04.000Z</time>
      </trkpt>
      <trkpt lat="42.3592483811080455780029296875" lon="2.783743031322956085205078125">
        <ele>327.20001220703125</ele>
        <time>2020-08-08T09:06:12.000Z</time>
      </trkpt>
      <trkpt lat="42.35921393148601055145263671875" lon="2.783736996352672576904296875">
        <ele>327.399993896484375</ele>
        <time>2020-08-08T09:06:14.000Z</time>
      </trkpt>
      <trkpt lat="42.359128855168819427490234375" lon="2.7837051451206207275390625">
        <ele>328.399993896484375</ele>
        <time>2020-08-08T09:06:20.000Z</time>
      </trkpt>
      <trkpt lat="42.35911703668534755706787109375" lon="2.7836970984935760498046875">
        <ele>328.399993896484375</ele>
        <time>2020-08-08T09:06:21.000Z</time>
      </trkpt>
      <trkpt lat="42.35906087793409824371337890625" lon="2.78362937271595001220703125">
        <ele>328.79998779296875</ele>
        <time>2020-08-08T09:06:26.000Z</time>
      </trkpt>
      <trkpt lat="42.35900203697383403778076171875" lon="2.78353239409625530242919921875">
        <ele>329.600006103515625</ele>
        <time>2020-08-08T09:06:32.000Z</time>
      </trkpt>
      <trkpt lat="42.35897697508335113525390625" lon="2.7834803424775600433349609375">
        <ele>330.399993896484375</ele>
        <time>2020-08-08T09:06:35.000Z</time>
      </trkpt>
      <trkpt lat="42.35896549187600612640380859375" lon="2.78344538994133472442626953125">
        <ele>330.79998779296875</ele>
        <time>2020-08-08T09:06:37.000Z</time>
      </trkpt>
      <trkpt lat="42.35895811580121517181396484375" lon="2.7834260277450084686279296875">
        <ele>331</ele>
        <time>2020-08-08T09:06:38.000Z</time>
      </trkpt>
      <trkpt lat="42.35892391763627529144287109375" lon="2.78335620649158954620361328125">
        <ele>332</ele>
        <time>2020-08-08T09:06:42.000Z</time>
      </trkpt>
      <trkpt lat="42.3589013703167438507080078125" lon="2.78332469053566455841064453125">
        <ele>332.20001220703125</ele>
        <time>2020-08-08T09:06:44.000Z</time>
      </trkpt>
      <trkpt lat="42.35886407084763050079345703125" lon="2.78327808715403079986572265625">
        <ele>332.79998779296875</ele>
        <time>2020-08-08T09:06:47.000Z</time>
      </trkpt>
      <trkpt lat="42.358832471072673797607421875" lon="2.7832424640655517578125">
        <ele>333.79998779296875</ele>
        <time>2020-08-08T09:06:50.000Z</time>
      </trkpt>
      <trkpt lat="42.35881998203694820404052734375" lon="2.783239781856536865234375">
        <ele>334</ele>
        <time>2020-08-08T09:06:51.000Z</time>
      </trkpt>
      <trkpt lat="42.3588048107922077178955078125" lon="2.78323885984718799591064453125">
        <ele>334.20001220703125</ele>
        <time>2020-08-08T09:06:52.000Z</time>
      </trkpt>
      <trkpt lat="42.35874504782259464263916015625" lon="2.78324841521680355072021484375">
        <ele>334.600006103515625</ele>
        <time>2020-08-08T09:06:56.000Z</time>
      </trkpt>
      <trkpt lat="42.3587162978947162628173828125" lon="2.783271968364715576171875">
        <ele>335</ele>
        <time>2020-08-08T09:06:58.000Z</time>
      </trkpt>
      <trkpt lat="42.35861998982727527618408203125" lon="2.7833901531994342803955078125">
        <ele>336</ele>
        <time>2020-08-08T09:07:06.000Z</time>
      </trkpt>
      <trkpt lat="42.35860791988670825958251953125" lon="2.78340130113065242767333984375">
        <ele>336.399993896484375</ele>
        <time>2020-08-08T09:07:07.000Z</time>
      </trkpt>
      <trkpt lat="42.3585325665771961212158203125" lon="2.78342979960143566131591796875">
        <ele>337.20001220703125</ele>
        <time>2020-08-08T09:07:12.000Z</time>
      </trkpt>
      <trkpt lat="42.35851068980991840362548828125" lon="2.7834283746778964996337890625">
        <ele>337.399993896484375</ele>
        <time>2020-08-08T09:07:14.000Z</time>
      </trkpt>
      <trkpt lat="42.3585070855915546417236328125" lon="2.7834293805062770843505859375">
        <ele>337.79998779296875</ele>
        <time>2020-08-08T09:07:24.000Z</time>
      </trkpt>
      <trkpt lat="42.35850834287703037261962890625" lon="2.783429212868213653564453125">
        <ele>337.600006103515625</ele>
        <time>2020-08-08T09:07:38.000Z</time>
      </trkpt>
      <trkpt lat="42.3585067503154277801513671875" lon="2.78342879377305507659912109375">
        <ele>337.600006103515625</ele>
        <time>2020-08-08T09:07:59.000Z</time>
      </trkpt>
      <trkpt lat="42.358488142490386962890625" lon="2.783427871763706207275390625">
        <ele>337.79998779296875</ele>
        <time>2020-08-08T09:08:22.000Z</time>
      </trkpt>
      <trkpt lat="42.3584101907908916473388671875" lon="2.78344170190393924713134765625">
        <ele>337.600006103515625</ele>
        <time>2020-08-08T09:08:27.000Z</time>
      </trkpt>
      <trkpt lat="42.35827147029340267181396484375" lon="2.783483527600765228271484375">
        <ele>336.20001220703125</ele>
        <time>2020-08-08T09:08:33.000Z</time>
      </trkpt>
      <trkpt lat="42.3582239449024200439453125" lon="2.78349216096103191375732421875">
        <ele>335.79998779296875</ele>
        <time>2020-08-08T09:08:35.000Z</time>
      </trkpt>
      <trkpt lat="42.35812746919691562652587890625" lon="2.78351345099508762359619140625">
        <ele>334.600006103515625</ele>
        <time>2020-08-08T09:08:39.000Z</time>
      </trkpt>
      <trkpt lat="42.3580978810787200927734375" lon="2.78351831249892711639404296875">
        <ele>334.20001220703125</ele>
        <time>2020-08-08T09:08:40.000Z</time>
      </trkpt>
      <trkpt lat="42.35800894908607006072998046875" lon="2.783538512885570526123046875">
        <ele>333.399993896484375</ele>
        <time>2020-08-08T09:08:43.000Z</time>
      </trkpt>
      <trkpt lat="42.35797709785401821136474609375" lon="2.7835554443299770355224609375">
        <ele>333.20001220703125</ele>
        <time>2020-08-08T09:08:44.000Z</time>
      </trkpt>
      <trkpt lat="42.3579123057425022125244140625" lon="2.78358452953398227691650390625">
        <ele>332.399993896484375</ele>
        <time>2020-08-08T09:08:46.000Z</time>
      </trkpt>
      <trkpt lat="42.35784566961228847503662109375" lon="2.78362291865050792694091796875">
        <ele>331.20001220703125</ele>
        <time>2020-08-08T09:08:48.000Z</time>
      </trkpt>
      <trkpt lat="42.35781557857990264892578125" lon="2.7836380898952484130859375">
        <ele>330.600006103515625</ele>
        <time>2020-08-08T09:08:49.000Z</time>
      </trkpt>
      <trkpt lat="42.35773511230945587158203125" lon="2.7836962603032588958740234375">
        <ele>330.20001220703125</ele>
        <time>2020-08-08T09:08:52.000Z</time>
      </trkpt>
      <trkpt lat="42.35767367295920848846435546875" lon="2.78372735716402530670166015625">
        <ele>329.600006103515625</ele>
        <time>2020-08-08T09:08:54.000Z</time>
      </trkpt>
      <trkpt lat="42.35757309012115001678466796875" lon="2.78373003937304019927978515625">
        <ele>329.399993896484375</ele>
        <time>2020-08-08T09:08:57.000Z</time>
      </trkpt>
      <trkpt lat="42.35755599103868007659912109375" lon="2.7837090007960796356201171875">
        <ele>329.399993896484375</ele>
        <time>2020-08-08T09:08:58.000Z</time>
      </trkpt>
      <trkpt lat="42.35753252170979976654052734375" lon="2.7836406044661998748779296875">
        <ele>329</ele>
        <time>2020-08-08T09:09:00.000Z</time>
      </trkpt>
      <trkpt lat="42.35750737600028514862060546875" lon="2.78354220092296600341796875">
        <ele>328.79998779296875</ele>
        <time>2020-08-08T09:09:02.000Z</time>
      </trkpt>
      <trkpt lat="42.3574315197765827178955078125" lon="2.78327339328825473785400390625">
        <ele>328.600006103515625</ele>
        <time>2020-08-08T09:09:08.000Z</time>
      </trkpt>
      <trkpt lat="42.357341833412647247314453125" lon="2.783154286444187164306640625">
        <ele>328.600006103515625</ele>
        <time>2020-08-08T09:09:13.000Z</time>
      </trkpt>
      <trkpt lat="42.35725524835288524627685546875" lon="2.7830438129603862762451171875">
        <ele>328</ele>
        <time>2020-08-08T09:09:16.000Z</time>
      </trkpt>
      <trkpt lat="42.35718819312751293182373046875" lon="2.7829801104962825775146484375">
        <ele>327.399993896484375</ele>
        <time>2020-08-08T09:09:18.000Z</time>
      </trkpt>
      <trkpt lat="42.35709129832684993743896484375" lon="2.78291012160480022430419921875">
        <ele>326.79998779296875</ele>
        <time>2020-08-08T09:09:21.000Z</time>
      </trkpt>
      <trkpt lat="42.35703312791883945465087890625" lon="2.7828838862478733062744140625">
        <ele>326.20001220703125</ele>
        <time>2020-08-08T09:09:23.000Z</time>
      </trkpt>
      <trkpt lat="42.356919385492801666259765625" lon="2.7828522026538848876953125">
        <ele>325.600006103515625</ele>
        <time>2020-08-08T09:09:27.000Z</time>
      </trkpt>
      <trkpt lat="42.35689599998295307159423828125" lon="2.78282445855438709259033203125">
        <ele>325.20001220703125</ele>
        <time>2020-08-08T09:09:28.000Z</time>
      </trkpt>
      <trkpt lat="42.35688862390816211700439453125" lon="2.782757990062236785888671875">
        <ele>325</ele>
        <time>2020-08-08T09:09:30.000Z</time>
      </trkpt>
      <trkpt lat="42.35692651011049747467041015625" lon="2.7826750092208385467529296875">
        <ele>324.600006103515625</ele>
        <time>2020-08-08T09:09:33.000Z</time>
      </trkpt>
      <trkpt lat="42.35693925060331821441650390625" lon="2.782654054462909698486328125">
        <ele>324.600006103515625</ele>
        <time>2020-08-08T09:09:34.000Z</time>
      </trkpt>
      <trkpt lat="42.35695182345807552337646484375" lon="2.7826327644288539886474609375">
        <ele>324.600006103515625</ele>
        <time>2020-08-08T09:09:35.000Z</time>
      </trkpt>
      <trkpt lat="42.3569847643375396728515625" lon="2.78253561817109584808349609375">
        <ele>325.600006103515625</ele>
        <time>2020-08-08T09:09:40.000Z</time>
      </trkpt>
      <trkpt lat="42.35701770521700382232666015625" lon="2.78242950327694416046142578125">
        <ele>326.600006103515625</ele>
        <time>2020-08-08T09:09:46.000Z</time>
      </trkpt>
      <trkpt lat="42.35702021978795528411865234375" lon="2.78240762650966644287109375">
        <ele>326.600006103515625</ele>
        <time>2020-08-08T09:09:47.000Z</time>
      </trkpt>
      <trkpt lat="42.357045114040374755859375" lon="2.78227427043020725250244140625">
        <ele>327.20001220703125</ele>
        <time>2020-08-08T09:09:53.000Z</time>
      </trkpt>
      <trkpt lat="42.3570432700216770172119140625" lon="2.782177962362766265869140625">
        <ele>327.600006103515625</ele>
        <time>2020-08-08T09:09:57.000Z</time>
      </trkpt>
      <trkpt lat="42.3570419289171695709228515625" lon="2.782155834138393402099609375">
        <ele>327.79998779296875</ele>
        <time>2020-08-08T09:09:58.000Z</time>
      </trkpt>
      <trkpt lat="42.3570214770734310150146484375" lon="2.78208198957145214080810546875">
        <ele>328.79998779296875</ele>
        <time>2020-08-08T09:10:02.000Z</time>
      </trkpt>
      <trkpt lat="42.3570097424089908599853515625" lon="2.7820500545203685760498046875">
        <ele>329.20001220703125</ele>
        <time>2020-08-08T09:10:04.000Z</time>
      </trkpt>
      <trkpt lat="42.356958277523517608642578125" lon="2.78190529905259609222412109375">
        <ele>329.79998779296875</ele>
        <time>2020-08-08T09:10:11.000Z</time>
      </trkpt>
      <trkpt lat="42.3569014482200145721435546875" lon="2.7817442826926708221435546875">
        <ele>330.79998779296875</ele>
        <time>2020-08-08T09:10:18.000Z</time>
      </trkpt>
      <trkpt lat="42.35689516179263591766357421875" lon="2.78172341175377368927001953125">
        <ele>331</ele>
        <time>2020-08-08T09:10:19.000Z</time>
      </trkpt>
      <trkpt lat="42.35683682374656200408935546875" lon="2.7815712802112102508544921875">
        <ele>331.79998779296875</ele>
        <time>2020-08-08T09:10:26.000Z</time>
      </trkpt>
      <trkpt lat="42.35681033693253993988037109375" lon="2.78150833211839199066162109375">
        <ele>332</ele>
        <time>2020-08-08T09:10:29.000Z</time>
      </trkpt>
      <trkpt lat="42.35677228309214115142822265625" lon="2.7813989482820034027099609375">
        <ele>332.79998779296875</ele>
        <time>2020-08-08T09:10:34.000Z</time>
      </trkpt>
      <trkpt lat="42.3567649908363819122314453125" lon="2.7813771553337574005126953125">
        <ele>333.20001220703125</ele>
        <time>2020-08-08T09:10:35.000Z</time>
      </trkpt>
      <trkpt lat="42.35674269497394561767578125" lon="2.7812950126826763153076171875">
        <ele>333.79998779296875</ele>
        <time>2020-08-08T09:10:39.000Z</time>
      </trkpt>
      <trkpt lat="42.3567234165966510772705078125" lon="2.7812133729457855224609375">
        <ele>334.20001220703125</ele>
        <time>2020-08-08T09:10:43.000Z</time>
      </trkpt>
      <trkpt lat="42.35670807771384716033935546875" lon="2.78117238543927669525146484375">
        <ele>334.79998779296875</ele>
        <time>2020-08-08T09:10:46.000Z</time>
      </trkpt>
      <trkpt lat="42.356704808771610260009765625" lon="2.78116199187934398651123046875">
        <ele>335.20001220703125</ele>
        <time>2020-08-08T09:10:49.000Z</time>
      </trkpt>
      <trkpt lat="42.3567016236484050750732421875" lon="2.78114288114011287689208984375">
        <ele>335.399993896484375</ele>
        <time>2020-08-08T09:11:00.000Z</time>
      </trkpt>
      <trkpt lat="42.35668377019464969635009765625" lon="2.7810432203114032745361328125">
        <ele>335</ele>
        <time>2020-08-08T09:11:05.000Z</time>
      </trkpt>
      <trkpt lat="42.35662191174924373626708984375" lon="2.78086342848837375640869140625">
        <ele>334.600006103515625</ele>
        <time>2020-08-08T09:11:10.000Z</time>
      </trkpt>
      <trkpt lat="42.3565537668764591217041015625" lon="2.78068120591342449188232421875">
        <ele>334</ele>
        <time>2020-08-08T09:11:14.000Z</time>
      </trkpt>
      <trkpt lat="42.35653473995625972747802734375" lon="2.7806392125785350799560546875">
        <ele>334</ele>
        <time>2020-08-08T09:11:15.000Z</time>
      </trkpt>
      <trkpt lat="42.35646114684641361236572265625" lon="2.7804823033511638641357421875">
        <ele>334</ele>
        <time>2020-08-08T09:11:20.000Z</time>
      </trkpt>
      <trkpt lat="42.3564364202320575714111328125" lon="2.780426479876041412353515625">
        <ele>334.600006103515625</ele>
        <time>2020-08-08T09:11:23.000Z</time>
      </trkpt>
      <trkpt lat="42.356427200138568878173828125" lon="2.7803813852369785308837890625">
        <ele>335</ele>
        <time>2020-08-08T09:11:25.000Z</time>
      </trkpt>
      <trkpt lat="42.3564179800450801849365234375" lon="2.78034073300659656524658203125">
        <ele>335.20001220703125</ele>
        <time>2020-08-08T09:11:27.000Z</time>
      </trkpt>
      <trkpt lat="42.356411777436733245849609375" lon="2.78025791980326175689697265625">
        <ele>335.79998779296875</ele>
        <time>2020-08-08T09:11:31.000Z</time>
      </trkpt>
      <trkpt lat="42.3564161360263824462890625" lon="2.780242078006267547607421875">
        <ele>336</ele>
        <time>2020-08-08T09:11:32.000Z</time>
      </trkpt>
      <trkpt lat="42.35641655512154102325439453125" lon="2.78020578436553478240966796875">
        <ele>336.20001220703125</ele>
        <time>2020-08-08T09:11:34.000Z</time>
      </trkpt>
      <trkpt lat="42.35640113241970539093017578125" lon="2.7801373042166233062744140625">
        <ele>337.20001220703125</ele>
        <time>2020-08-08T09:11:37.000Z</time>
      </trkpt>
      <trkpt lat="42.35639627091586589813232421875" lon="2.78011911548674106597900390625">
        <ele>337.399993896484375</ele>
        <time>2020-08-08T09:11:38.000Z</time>
      </trkpt>
      <trkpt lat="42.35638822428882122039794921875" lon="2.78010184876620769500732421875">
        <ele>337.600006103515625</ele>
        <time>2020-08-08T09:11:39.000Z</time>
      </trkpt>
      <trkpt lat="42.35637011937797069549560546875" lon="2.78006295673549175262451171875">
        <ele>338</ele>
        <time>2020-08-08T09:11:41.000Z</time>
      </trkpt>
      <trkpt lat="42.35635838471353054046630859375" lon="2.78004728257656097412109375">
        <ele>338.20001220703125</ele>
        <time>2020-08-08T09:11:42.000Z</time>
      </trkpt>
      <trkpt lat="42.3562929220497608184814453125" lon="2.77998668141663074493408203125">
        <ele>338.399993896484375</ele>
        <time>2020-08-08T09:11:46.000Z</time>
      </trkpt>
      <trkpt lat="42.35624992288649082183837890625" lon="2.77995583601295948028564453125">
        <ele>338.79998779296875</ele>
        <time>2020-08-08T09:11:49.000Z</time>
      </trkpt>
      <trkpt lat="42.3561950214207172393798828125" lon="2.7799190394580364227294921875">
        <ele>339.20001220703125</ele>
        <time>2020-08-08T09:11:53.000Z</time>
      </trkpt>
      <trkpt lat="42.35614514909684658050537109375" lon="2.77989934198558330535888671875">
        <ele>339.399993896484375</ele>
        <time>2020-08-08T09:11:56.000Z</time>
      </trkpt>
      <trkpt lat="42.35604590736329555511474609375" lon="2.77983211912214756011962890625">
        <ele>339.399993896484375</ele>
        <time>2020-08-08T09:12:02.000Z</time>
      </trkpt>
      <trkpt lat="42.3559556342661380767822265625" lon="2.77974528260529041290283203125">
        <ele>339.600006103515625</ele>
        <time>2020-08-08T09:12:08.000Z</time>
      </trkpt>
      <trkpt lat="42.3558714799582958221435546875" lon="2.7796773053705692291259765625">
        <ele>340.79998779296875</ele>
        <time>2020-08-08T09:12:13.000Z</time>
      </trkpt>
      <trkpt lat="42.355837784707546234130859375" lon="2.77965475805103778839111328125">
        <ele>341.399993896484375</ele>
        <time>2020-08-08T09:12:15.000Z</time>
      </trkpt>
      <trkpt lat="42.35580350272357463836669921875" lon="2.77963547967374324798583984375">
        <ele>341.79998779296875</ele>
        <time>2020-08-08T09:12:17.000Z</time>
      </trkpt>
      <trkpt lat="42.35572756268084049224853515625" lon="2.77958150021731853485107421875">
        <ele>342.20001220703125</ele>
        <time>2020-08-08T09:12:22.000Z</time>
      </trkpt>
      <trkpt lat="42.35565681941807270050048828125" lon="2.779521234333515167236328125">
        <ele>342.79998779296875</ele>
        <time>2020-08-08T09:12:27.000Z</time>
      </trkpt>
      <trkpt lat="42.3556277342140674591064453125" lon="2.779503799974918365478515625">
        <ele>343.20001220703125</ele>
        <time>2020-08-08T09:12:29.000Z</time>
      </trkpt>
      <trkpt lat="42.355521619319915771484375" lon="2.77943565510213375091552734375">
        <ele>343.399993896484375</ele>
        <time>2020-08-08T09:12:35.000Z</time>
      </trkpt>
      <trkpt lat="42.35541240312159061431884765625" lon="2.77938209474086761474609375">
        <ele>343.600006103515625</ele>
        <time>2020-08-08T09:12:41.000Z</time>
      </trkpt>
      <trkpt lat="42.35535121522843837738037109375" lon="2.77935384772717952728271484375">
        <ele>343.79998779296875</ele>
        <time>2020-08-08T09:12:44.000Z</time>
      </trkpt>
      <trkpt lat="42.35527192242443561553955078125" lon="2.77933037839829921722412109375">
        <ele>344.20001220703125</ele>
        <time>2020-08-08T09:12:48.000Z</time>
      </trkpt>
      <trkpt lat="42.3551999218761920928955078125" lon="2.77933423407375812530517578125">
        <ele>345</ele>
        <time>2020-08-08T09:12:52.000Z</time>
      </trkpt>
      <trkpt lat="42.355171926319599151611328125" lon="2.77934093959629535675048828125">
        <ele>345.20001220703125</ele>
        <time>2020-08-08T09:12:54.000Z</time>
      </trkpt>
      <trkpt lat="42.35507109202444553375244140625" lon="2.77931428514420986175537109375">
        <ele>346</ele>
        <time>2020-08-08T09:13:00.000Z</time>
      </trkpt>
      <trkpt lat="42.35499515198171138763427734375" lon="2.77928888797760009765625">
        <ele>347.20001220703125</ele>
        <time>2020-08-08T09:13:04.000Z</time>
      </trkpt>
      <trkpt lat="42.35493999905884265899658203125" lon="2.77928260155022144317626953125">
        <ele>347.79998779296875</ele>
        <time>2020-08-08T09:13:07.000Z</time>
      </trkpt>
      <trkpt lat="42.3549011908471584320068359375" lon="2.77928243391215801239013671875">
        <ele>348.399993896484375</ele>
        <time>2020-08-08T09:13:09.000Z</time>
      </trkpt>
      <trkpt lat="42.35483254306018352508544921875" lon="2.779308669269084930419921875">
        <ele>349.20001220703125</ele>
        <time>2020-08-08T09:13:13.000Z</time>
      </trkpt>
      <trkpt lat="42.3547952435910701751708984375" lon="2.77931294403970241546630859375">
        <ele>349.600006103515625</ele>
        <time>2020-08-08T09:13:15.000Z</time>
      </trkpt>
      <trkpt lat="42.3547271825373172760009765625" lon="2.77932576835155487060546875">
        <ele>350.20001220703125</ele>
        <time>2020-08-08T09:13:19.000Z</time>
      </trkpt>
      <trkpt lat="42.354676723480224609375" lon="2.77932836674153804779052734375">
        <ele>350.79998779296875</ele>
        <time>2020-08-08T09:13:22.000Z</time>
      </trkpt>
      <trkpt lat="42.354643531143665313720703125" lon="2.77932032011449337005615234375">
        <ele>351.399993896484375</ele>
        <time>2020-08-08T09:13:24.000Z</time>
      </trkpt>
      <trkpt lat="42.35450615175068378448486328125" lon="2.77935569174587726593017578125">
        <ele>351.79998779296875</ele>
        <time>2020-08-08T09:13:31.000Z</time>
      </trkpt>
      <trkpt lat="42.35446256585419178009033203125" lon="2.77935837395489215850830078125">
        <ele>352</ele>
        <time>2020-08-08T09:13:33.000Z</time>
      </trkpt>
      <trkpt lat="42.35439618118107318878173828125" lon="2.7793785743415355682373046875">
        <ele>352.20001220703125</ele>
        <time>2020-08-08T09:13:36.000Z</time>
      </trkpt>
      <trkpt lat="42.35428218729794025421142578125" lon="2.7794136106967926025390625">
        <ele>352.20001220703125</ele>
        <time>2020-08-08T09:13:41.000Z</time>
      </trkpt>
      <trkpt lat="42.3541295528411865234375" lon="2.7794603817164897918701171875">
        <ele>352.399993896484375</ele>
        <time>2020-08-08T09:13:48.000Z</time>
      </trkpt>
      <trkpt lat="42.35409443266689777374267578125" lon="2.7794660814106464385986328125">
        <ele>352.600006103515625</ele>
        <time>2020-08-08T09:13:50.000Z</time>
      </trkpt>
      <trkpt lat="42.35402821563184261322021484375" lon="2.779481671750545501708984375">
        <ele>353.20001220703125</ele>
        <time>2020-08-08T09:13:54.000Z</time>
      </trkpt>
      <trkpt lat="42.3539443127810955047607421875" lon="2.77947991155087947845458984375">
        <ele>353.79998779296875</ele>
        <time>2020-08-08T09:13:59.000Z</time>
      </trkpt>
      <trkpt lat="42.35390852205455303192138671875" lon="2.77947873808443546295166015625">
        <ele>353.79998779296875</ele>
        <time>2020-08-08T09:14:01.000Z</time>
      </trkpt>
      <trkpt lat="42.3537642695009708404541015625" lon="2.779456190764904022216796875">
        <ele>354.20001220703125</ele>
        <time>2020-08-08T09:14:09.000Z</time>
      </trkpt>
      <trkpt lat="42.3536145687103271484375" lon="2.7793805859982967376708984375">
        <ele>354.399993896484375</ele>
        <time>2020-08-08T09:14:16.000Z</time>
      </trkpt>
      <trkpt lat="42.35359068028628826141357421875" lon="2.7793554402887821197509765625">
        <ele>354.20001220703125</ele>
        <time>2020-08-08T09:14:20.000Z</time>
      </trkpt>
      <trkpt lat="42.3535372875630855560302734375" lon="2.77931638062000274658203125">
        <ele>353.79998779296875</ele>
        <time>2020-08-08T09:14:27.000Z</time>
      </trkpt>
      <trkpt lat="42.35344282351434230804443359375" lon="2.77924622409045696258544921875">
        <ele>353.600006103515625</ele>
        <time>2020-08-08T09:14:32.000Z</time>
      </trkpt>
      <trkpt lat="42.35335774719715118408203125" lon="2.779216133058071136474609375">
        <ele>352.600006103515625</ele>
        <time>2020-08-08T09:14:35.000Z</time>
      </trkpt>
      <trkpt lat="42.35327267087996006011962890625" lon="2.7791951783001422882080078125">
        <ele>352.20001220703125</ele>
        <time>2020-08-08T09:14:38.000Z</time>
      </trkpt>
      <trkpt lat="42.3531611077487468719482421875" lon="2.77915678918361663818359375">
        <ele>351.20001220703125</ele>
        <time>2020-08-08T09:14:41.000Z</time>
      </trkpt>
      <trkpt lat="42.35308541916310787200927734375" lon="2.7791319787502288818359375">
        <ele>350.20001220703125</ele>
        <time>2020-08-08T09:14:43.000Z</time>
      </trkpt>
      <trkpt lat="42.3530410788953304290771484375" lon="2.77912938036024570465087890625">
        <ele>349.79998779296875</ele>
        <time>2020-08-08T09:14:44.000Z</time>
      </trkpt>
      <trkpt lat="42.35291308723390102386474609375" lon="2.7791784144937992095947265625">
        <ele>348.600006103515625</ele>
        <time>2020-08-08T09:14:47.000Z</time>
      </trkpt>
      <trkpt lat="42.35285541974008083343505859375" lon="2.7792588807642459869384765625">
        <ele>347.600006103515625</ele>
        <time>2020-08-08T09:14:49.000Z</time>
      </trkpt>
      <trkpt lat="42.35281971283257007598876953125" lon="2.77935200370848178863525390625">
        <ele>346.79998779296875</ele>
        <time>2020-08-08T09:14:51.000Z</time>
      </trkpt>
      <trkpt lat="42.3528063856065273284912109375" lon="2.77940497733652591705322265625">
        <ele>346.600006103515625</ele>
        <time>2020-08-08T09:14:52.000Z</time>
      </trkpt>
      <trkpt lat="42.35279490239918231964111328125" lon="2.77955719269812107086181640625">
        <ele>345.399993896484375</ele>
        <time>2020-08-08T09:14:55.000Z</time>
      </trkpt>
      <trkpt lat="42.35279272310435771942138671875" lon="2.779610417783260345458984375">
        <ele>345</ele>
        <time>2020-08-08T09:14:56.000Z</time>
      </trkpt>
      <trkpt lat="42.3527785576879978179931640625" lon="2.77971192263066768646240234375">
        <ele>344.20001220703125</ele>
        <time>2020-08-08T09:14:58.000Z</time>
      </trkpt>
      <trkpt lat="42.35275098122656345367431640625" lon="2.77982742525637149810791015625">
        <ele>342.600006103515625</ele>
        <time>2020-08-08T09:15:01.000Z</time>
      </trkpt>
      <trkpt lat="42.3527415096759796142578125" lon="2.77985860593616962432861328125">
        <ele>342</ele>
        <time>2020-08-08T09:15:02.000Z</time>
      </trkpt>
      <trkpt lat="42.3527265898883342742919921875" lon="2.77989112772047519683837890625">
        <ele>341.600006103515625</ele>
        <time>2020-08-08T09:15:03.000Z</time>
      </trkpt>
      <trkpt lat="42.35265660099685192108154296875" lon="2.77996790595352649688720703125">
        <ele>340.399993896484375</ele>
        <time>2020-08-08T09:15:06.000Z</time>
      </trkpt>
      <trkpt lat="42.352621816098690032958984375" lon="2.77998735196888446807861328125">
        <ele>340.20001220703125</ele>
        <time>2020-08-08T09:15:07.000Z</time>
      </trkpt>
      <trkpt lat="42.35249885357916355133056640625" lon="2.78004015795886516571044921875">
        <ele>339.399993896484375</ele>
        <time>2020-08-08T09:15:10.000Z</time>
      </trkpt>
      <trkpt lat="42.35241972841322422027587890625" lon="2.78012330643832683563232421875">
        <ele>338.399993896484375</ele>
        <time>2020-08-08T09:15:13.000Z</time>
      </trkpt>
      <trkpt lat="42.352409251034259796142578125" lon="2.7802764438092708587646484375">
        <ele>337.600006103515625</ele>
        <time>2020-08-08T09:15:16.000Z</time>
      </trkpt>
      <trkpt lat="42.35242224298417568206787109375" lon="2.780338637530803680419921875">
        <ele>337</ele>
        <time>2020-08-08T09:15:17.000Z</time>
      </trkpt>
      <trkpt lat="42.3524815030395984649658203125" lon="2.78053284622728824615478515625">
        <ele>335.79998779296875</ele>
        <time>2020-08-08T09:15:20.000Z</time>
      </trkpt>
      <trkpt lat="42.35250757075846195220947265625" lon="2.780596800148487091064453125">
        <ele>335.20001220703125</ele>
        <time>2020-08-08T09:15:21.000Z</time>
      </trkpt>
      <trkpt lat="42.35256255604326725006103515625" lon="2.78072294779121875762939453125">
        <ele>334.600006103515625</ele>
        <time>2020-08-08T09:15:23.000Z</time>
      </trkpt>
      <trkpt lat="42.3525840975344181060791015625" lon="2.7807850576937198638916015625">
        <ele>334.20001220703125</ele>
        <time>2020-08-08T09:15:24.000Z</time>
      </trkpt>
      <trkpt lat="42.35260547138750553131103515625" lon="2.780900560319423675537109375">
        <ele>333.600006103515625</ele>
        <time>2020-08-08T09:15:26.000Z</time>
      </trkpt>
      <trkpt lat="42.352607063949108123779296875" lon="2.78094892390072345733642578125">
        <ele>333.399993896484375</ele>
        <time>2020-08-08T09:15:27.000Z</time>
      </trkpt>
      <trkpt lat="42.35259759239852428436279296875" lon="2.78108127415180206298828125">
        <ele>333.20001220703125</ele>
        <time>2020-08-08T09:15:30.000Z</time>
      </trkpt>
      <trkpt lat="42.35257881693542003631591796875" lon="2.78111807070672512054443359375">
        <ele>333</ele>
        <time>2020-08-08T09:15:31.000Z</time>
      </trkpt>
      <trkpt lat="42.35251142643392086029052734375" lon="2.78117490001022815704345703125">
        <ele>333</ele>
        <time>2020-08-08T09:15:34.000Z</time>
      </trkpt>
      <trkpt lat="42.3524949140846729278564453125" lon="2.78118588030338287353515625">
        <ele>333</ele>
        <time>2020-08-08T09:15:35.000Z</time>
      </trkpt>
      <trkpt lat="42.3523812554776668548583984375" lon="2.78123776428401470184326171875">
        <ele>333.20001220703125</ele>
        <time>2020-08-08T09:15:39.000Z</time>
      </trkpt>
      <trkpt lat="42.3522146232426166534423828125" lon="2.78131705708801746368408203125">
        <ele>332.399993896484375</ele>
        <time>2020-08-08T09:15:44.000Z</time>
      </trkpt>
      <trkpt lat="42.35217891633510589599609375" lon="2.781340442597866058349609375">
        <ele>332.399993896484375</ele>
        <time>2020-08-08T09:15:45.000Z</time>
      </trkpt>
      <trkpt lat="42.35204656608402729034423828125" lon="2.78142836876213550567626953125">
        <ele>332.600006103515625</ele>
        <time>2020-08-08T09:15:50.000Z</time>
      </trkpt>
      <trkpt lat="42.3518830351531505584716796875" lon="2.7816011197865009307861328125">
        <ele>332.79998779296875</ele>
        <time>2020-08-08T09:15:56.000Z</time>
      </trkpt>
      <trkpt lat="42.35167541541159152984619140625" lon="2.781799770891666412353515625">
        <ele>331.79998779296875</ele>
        <time>2020-08-08T09:16:02.000Z</time>
      </trkpt>
      <trkpt lat="42.35164809040725231170654296875" lon="2.78184377588331699371337890625">
        <ele>331.399993896484375</ele>
        <time>2020-08-08T09:16:03.000Z</time>
      </trkpt>
      <trkpt lat="42.3515613377094268798828125" lon="2.782040499150753021240234375">
        <ele>331.20001220703125</ele>
        <time>2020-08-08T09:16:07.000Z</time>
      </trkpt>
      <trkpt lat="42.35152571462094783782958984375" lon="2.78214451856911182403564453125">
        <ele>330.79998779296875</ele>
        <time>2020-08-08T09:16:09.000Z</time>
      </trkpt>
      <trkpt lat="42.35146368853747844696044921875" lon="2.78242195956408977508544921875">
        <ele>330.600006103515625</ele>
        <time>2020-08-08T09:16:14.000Z</time>
      </trkpt>
      <trkpt lat="42.3514186777174472808837890625" lon="2.7826689742505550384521484375">
        <ele>330</ele>
        <time>2020-08-08T09:16:19.000Z</time>
      </trkpt>
      <trkpt lat="42.35135304741561412811279296875" lon="2.7827712334692478179931640625">
        <ele>329.79998779296875</ele>
        <time>2020-08-08T09:16:22.000Z</time>
      </trkpt>
      <trkpt lat="42.3513279855251312255859375" lon="2.782778777182102203369140625">
        <ele>329.79998779296875</ele>
        <time>2020-08-08T09:16:23.000Z</time>
      </trkpt>
      <trkpt lat="42.3512406460940837860107421875" lon="2.78278447687625885009765625">
        <ele>330</ele>
        <time>2020-08-08T09:16:27.000Z</time>
      </trkpt>
      <trkpt lat="42.3511831462383270263671875" lon="2.7827809564769268035888671875">
        <ele>329.79998779296875</ele>
        <time>2020-08-08T09:16:29.000Z</time>
      </trkpt>
      <trkpt lat="42.3511115647852420806884765625" lon="2.7827725745737552642822265625">
        <ele>329.600006103515625</ele>
        <time>2020-08-08T09:16:31.000Z</time>
      </trkpt>
      <trkpt lat="42.3509972356259822845458984375" lon="2.78276913799345493316650390625">
        <ele>328.79998779296875</ele>
        <time>2020-08-08T09:16:34.000Z</time>
      </trkpt>
      <trkpt lat="42.35095708630979061126708984375" lon="2.78276695869863033294677734375">
        <ele>328.399993896484375</ele>
        <time>2020-08-08T09:16:35.000Z</time>
      </trkpt>
      <trkpt lat="42.35091559588909149169921875" lon="2.78277131728827953338623046875">
        <ele>328.20001220703125</ele>
        <time>2020-08-08T09:16:36.000Z</time>
      </trkpt>
      <trkpt lat="42.35078961588442325592041015625" lon="2.782826721668243408203125">
        <ele>327.20001220703125</ele>
        <time>2020-08-08T09:16:39.000Z</time>
      </trkpt>
      <trkpt lat="42.35074938274919986724853515625" lon="2.78285153210163116455078125">
        <ele>326.79998779296875</ele>
        <time>2020-08-08T09:16:40.000Z</time>
      </trkpt>
      <trkpt lat="42.35066740773618221282958984375" lon="2.78288983739912509918212890625">
        <ele>326</ele>
        <time>2020-08-08T09:16:42.000Z</time>
      </trkpt>
      <trkpt lat="42.35051955096423625946044921875" lon="2.78291481547057628631591796875">
        <ele>325.20001220703125</ele>
        <time>2020-08-08T09:16:45.000Z</time>
      </trkpt>
      <trkpt lat="42.350469343364238739013671875" lon="2.78292135335505008697509765625">
        <ele>324.79998779296875</ele>
        <time>2020-08-08T09:16:46.000Z</time>
      </trkpt>
      <trkpt lat="42.350382171571254730224609375" lon="2.7829326689243316650390625">
        <ele>323.600006103515625</ele>
        <time>2020-08-08T09:16:48.000Z</time>
      </trkpt>
      <trkpt lat="42.35030514188110828399658203125" lon="2.78293074108660221099853515625">
        <ele>322.600006103515625</ele>
        <time>2020-08-08T09:16:50.000Z</time>
      </trkpt>
      <trkpt lat="42.35023322515189647674560546875" lon="2.78293308801949024200439453125">
        <ele>321.399993896484375</ele>
        <time>2020-08-08T09:16:52.000Z</time>
      </trkpt>
      <trkpt lat="42.35016097314655780792236328125" lon="2.7829398773610591888427734375">
        <ele>320.20001220703125</ele>
        <time>2020-08-08T09:16:54.000Z</time>
      </trkpt>
      <trkpt lat="42.35008679330348968505859375" lon="2.78297315351665019989013671875">
        <ele>319</ele>
        <time>2020-08-08T09:16:56.000Z</time>
      </trkpt>
      <trkpt lat="42.34997204504907131195068359375" lon="2.78305470943450927734375">
        <ele>317</ele>
        <time>2020-08-08T09:16:59.000Z</time>
      </trkpt>
      <trkpt lat="42.349919490516185760498046875" lon="2.7830994687974452972412109375">
        <ele>315.600006103515625</ele>
        <time>2020-08-08T09:17:01.000Z</time>
      </trkpt>
      <trkpt lat="42.34989903867244720458984375" lon="2.78310357592999935150146484375">
        <ele>314.79998779296875</ele>
        <time>2020-08-08T09:17:02.000Z</time>
      </trkpt>
      <trkpt lat="42.34987548552453517913818359375" lon="2.7830967865884304046630859375">
        <ele>314.600006103515625</ele>
        <time>2020-08-08T09:17:03.000Z</time>
      </trkpt>
      <trkpt lat="42.34982318244874477386474609375" lon="2.78306585736572742462158203125">
        <ele>313.79998779296875</ele>
        <time>2020-08-08T09:17:05.000Z</time>
      </trkpt>
      <trkpt lat="42.34978009946644306182861328125" lon="2.78301112353801727294921875">
        <ele>313.20001220703125</ele>
        <time>2020-08-08T09:17:07.000Z</time>
      </trkpt>
      <trkpt lat="42.34975612722337245941162109375" lon="2.78295119293034076690673828125">
        <ele>311.600006103515625</ele>
        <time>2020-08-08T09:17:09.000Z</time>
      </trkpt>
      <trkpt lat="42.3497228510677814483642578125" lon="2.78285630978643894195556640625">
        <ele>310.20001220703125</ele>
        <time>2020-08-08T09:17:12.000Z</time>
      </trkpt>
      <trkpt lat="42.3496822826564311981201171875" lon="2.78271934948861598968505859375">
        <ele>309</ele>
        <time>2020-08-08T09:17:15.000Z</time>
      </trkpt>
      <trkpt lat="42.3496702127158641815185546875" lon="2.7826605923473834991455078125">
        <ele>308.600006103515625</ele>
        <time>2020-08-08T09:17:16.000Z</time>
      </trkpt>
      <trkpt lat="42.34964900650084018707275390625" lon="2.78253964148461818695068359375">
        <ele>307.600006103515625</ele>
        <time>2020-08-08T09:17:18.000Z</time>
      </trkpt>
      <trkpt lat="42.349613048136234283447265625" lon="2.7823618613183498382568359375">
        <ele>306.20001220703125</ele>
        <time>2020-08-08T09:17:21.000Z</time>
      </trkpt>
      <trkpt lat="42.349590249359607696533203125" lon="2.7821905352175235748291015625">
        <ele>304.79998779296875</ele>
        <time>2020-08-08T09:17:24.000Z</time>
      </trkpt>
      <trkpt lat="42.349575497210025787353515625" lon="2.78208307921886444091796875">
        <ele>303.79998779296875</ele>
        <time>2020-08-08T09:17:26.000Z</time>
      </trkpt>
      <trkpt lat="42.3495669476687908172607421875" lon="2.78203739784657955169677734375">
        <ele>303.399993896484375</ele>
        <time>2020-08-08T09:17:27.000Z</time>
      </trkpt>
      <trkpt lat="42.3495592363178730010986328125" lon="2.78200219385325908660888671875">
        <ele>302.79998779296875</ele>
        <time>2020-08-08T09:17:28.000Z</time>
      </trkpt>
      <trkpt lat="42.34953953884541988372802734375" lon="2.7819005213677883148193359375">
        <ele>301.399993896484375</ele>
        <time>2020-08-08T09:17:31.000Z</time>
      </trkpt>
      <trkpt lat="42.349537275731563568115234375" lon="2.78186355717480182647705078125">
        <ele>301.20001220703125</ele>
        <time>2020-08-08T09:17:32.000Z</time>
      </trkpt>
      <trkpt lat="42.34955848194658756256103515625" lon="2.78177202679216861724853515625">
        <ele>300.20001220703125</ele>
        <time>2020-08-08T09:17:35.000Z</time>
      </trkpt>
      <trkpt lat="42.34959335066378116607666015625" lon="2.781726680696010589599609375">
        <ele>299.79998779296875</ele>
        <time>2020-08-08T09:17:37.000Z</time>
      </trkpt>
      <trkpt lat="42.3496464081108570098876953125" lon="2.781685777008533477783203125">
        <ele>298.79998779296875</ele>
        <time>2020-08-08T09:17:39.000Z</time>
      </trkpt>
      <trkpt lat="42.3496977053582668304443359375" lon="2.78163691051304340362548828125">
        <ele>297.79998779296875</ele>
        <time>2020-08-08T09:17:41.000Z</time>
      </trkpt>
      <trkpt lat="42.34974942170083522796630859375" lon="2.7815830148756504058837890625">
        <ele>296.399993896484375</ele>
        <time>2020-08-08T09:17:43.000Z</time>
      </trkpt>
      <trkpt lat="42.34985251910984516143798828125" lon="2.78148536570370197296142578125">
        <ele>294.79998779296875</ele>
        <time>2020-08-08T09:17:46.000Z</time>
      </trkpt>
      <trkpt lat="42.34991110861301422119140625" lon="2.78143398463726043701171875">
        <ele>293.79998779296875</ele>
        <time>2020-08-08T09:17:48.000Z</time>
      </trkpt>
      <trkpt lat="42.34993793070316314697265625" lon="2.7814053185284137725830078125">
        <ele>293.399993896484375</ele>
        <time>2020-08-08T09:17:49.000Z</time>
      </trkpt>
      <trkpt lat="42.34999283216893672943115234375" lon="2.78133952058851718902587890625">
        <ele>292.20001220703125</ele>
        <time>2020-08-08T09:17:51.000Z</time>
      </trkpt>
      <trkpt lat="42.3500541038811206817626953125" lon="2.78127280063927173614501953125">
        <ele>291.399993896484375</ele>
        <time>2020-08-08T09:17:53.000Z</time>
      </trkpt>
      <trkpt lat="42.35011135227978229522705078125" lon="2.78118948452174663543701171875">
        <ele>290.600006103515625</ele>
        <time>2020-08-08T09:17:55.000Z</time>
      </trkpt>
      <trkpt lat="42.3501620627939701080322265625" lon="2.78111304156482219696044921875">
        <ele>289.20001220703125</ele>
        <time>2020-08-08T09:17:57.000Z</time>
      </trkpt>
      <trkpt lat="42.35018611885607242584228515625" lon="2.781072892248630523681640625">
        <ele>288.79998779296875</ele>
        <time>2020-08-08T09:17:58.000Z</time>
      </trkpt>
      <trkpt lat="42.3502388410270214080810546875" lon="2.7809935994446277618408203125">
        <ele>288.20001220703125</ele>
        <time>2020-08-08T09:18:00.000Z</time>
      </trkpt>
      <trkpt lat="42.35027010552585124969482421875" lon="2.78095629997551441192626953125">
        <ele>287.600006103515625</ele>
        <time>2020-08-08T09:18:01.000Z</time>
      </trkpt>
      <trkpt lat="42.35030380077660083770751953125" lon="2.7809255383908748626708984375">
        <ele>287</ele>
        <time>2020-08-08T09:18:02.000Z</time>
      </trkpt>
      <trkpt lat="42.3503347299993038177490234375" lon="2.7808936871588230133056640625">
        <ele>286.399993896484375</ele>
        <time>2020-08-08T09:18:03.000Z</time>
      </trkpt>
      <trkpt lat="42.35039331950247287750244140625" lon="2.78082780539989471435546875">
        <ele>285.79998779296875</ele>
        <time>2020-08-08T09:18:05.000Z</time>
      </trkpt>
      <trkpt lat="42.3504473827779293060302734375" lon="2.7807129733264446258544921875">
        <ele>285.20001220703125</ele>
        <time>2020-08-08T09:18:08.000Z</time>
      </trkpt>
      <trkpt lat="42.35044746659696102142333984375" lon="2.7806827984750270843505859375">
        <ele>285</ele>
        <time>2020-08-08T09:18:09.000Z</time>
      </trkpt>
      <trkpt lat="42.350458614528179168701171875" lon="2.78059001080691814422607421875">
        <ele>285</ele>
        <time>2020-08-08T09:18:12.000Z</time>
      </trkpt>
      <trkpt lat="42.35047361813485622406005859375" lon="2.7804903499782085418701171875">
        <ele>285</ele>
        <time>2020-08-08T09:18:14.000Z</time>
      </trkpt>
      <trkpt lat="42.350498177111148834228515625" lon="2.78036990202963352203369140625">
        <ele>284.79998779296875</ele>
        <time>2020-08-08T09:18:16.000Z</time>
      </trkpt>
      <trkpt lat="42.350590042769908905029296875" lon="2.78020494617521762847900390625">
        <ele>283.399993896484375</ele>
        <time>2020-08-08T09:18:20.000Z</time>
      </trkpt>
      <trkpt lat="42.35068098641932010650634765625" lon="2.7801646292209625244140625">
        <ele>282.79998779296875</ele>
        <time>2020-08-08T09:18:22.000Z</time>
      </trkpt>
      <trkpt lat="42.350728176534175872802734375" lon="2.78014292009174823760986328125">
        <ele>282.20001220703125</ele>
        <time>2020-08-08T09:18:23.000Z</time>
      </trkpt>
      <trkpt lat="42.35081442631781101226806640625" lon="2.78009464032948017120361328125">
        <ele>281.20001220703125</ele>
        <time>2020-08-08T09:18:25.000Z</time>
      </trkpt>
      <trkpt lat="42.350889779627323150634765625" lon="2.7800487913191318511962890625">
        <ele>279.600006103515625</ele>
        <time>2020-08-08T09:18:27.000Z</time>
      </trkpt>
      <trkpt lat="42.35097594559192657470703125" lon="2.7800129167735576629638671875">
        <ele>278.600006103515625</ele>
        <time>2020-08-08T09:18:30.000Z</time>
      </trkpt>
      <trkpt lat="42.35099128447473049163818359375" lon="2.780000679194927215576171875">
        <ele>278.600006103515625</ele>
        <time>2020-08-08T09:18:31.000Z</time>
      </trkpt>
      <trkpt lat="42.3510143347084522247314453125" lon="2.7799500524997711181640625">
        <ele>278</ele>
        <time>2020-08-08T09:18:34.000Z</time>
      </trkpt>
      <trkpt lat="42.35098390839993953704833984375" lon="2.77984703890979290008544921875">
        <ele>278</ele>
        <time>2020-08-08T09:18:39.000Z</time>
      </trkpt>
      <trkpt lat="42.350865304470062255859375" lon="2.77972466312348842620849609375">
        <ele>278.600006103515625</ele>
        <time>2020-08-08T09:18:45.000Z</time>
      </trkpt>
      <trkpt lat="42.350806631147861480712890625" lon="2.77968040667474269866943359375">
        <ele>278.600006103515625</ele>
        <time>2020-08-08T09:18:48.000Z</time>
      </trkpt>
      <trkpt lat="42.35075575299561023712158203125" lon="2.7796384133398532867431640625">
        <ele>279</ele>
        <time>2020-08-08T09:18:51.000Z</time>
      </trkpt>
      <trkpt lat="42.35071568749845027923583984375" lon="2.77958787046372890472412109375">
        <ele>279.600006103515625</ele>
        <time>2020-08-08T09:18:54.000Z</time>
      </trkpt>
      <trkpt lat="42.35068333335220813751220703125" lon="2.77955199591815471649169921875">
        <ele>279.79998779296875</ele>
        <time>2020-08-08T09:18:56.000Z</time>
      </trkpt>
      <trkpt lat="42.35059398226439952850341796875" lon="2.77943213470280170440673828125">
        <ele>280.79998779296875</ele>
        <time>2020-08-08T09:19:02.000Z</time>
      </trkpt>
      <trkpt lat="42.35057822428643703460693359375" lon="2.779253683984279632568359375">
        <ele>281</ele>
        <time>2020-08-08T09:19:08.000Z</time>
      </trkpt>
      <trkpt lat="42.3506052978336811065673828125" lon="2.7791133709251880645751953125">
        <ele>281.20001220703125</ele>
        <time>2020-08-08T09:19:13.000Z</time>
      </trkpt>
      <trkpt lat="42.35060336999595165252685546875" lon="2.7790845371782779693603515625">
        <ele>281.399993896484375</ele>
        <time>2020-08-08T09:19:14.000Z</time>
      </trkpt>
      <trkpt lat="42.3505506478250026702880859375" lon="2.7789474092423915863037109375">
        <ele>281.399993896484375</ele>
        <time>2020-08-08T09:19:18.000Z</time>
      </trkpt>
      <trkpt lat="42.35040052793920040130615234375" lon="2.77880919165909290313720703125">
        <ele>280.399993896484375</ele>
        <time>2020-08-08T09:19:23.000Z</time>
      </trkpt>
      <trkpt lat="42.3503313772380352020263671875" lon="2.77874448336660861968994140625">
        <ele>279.79998779296875</ele>
        <time>2020-08-08T09:19:25.000Z</time>
      </trkpt>
      <trkpt lat="42.3502980172634124755859375" lon="2.7787053398787975311279296875">
        <ele>279</ele>
        <time>2020-08-08T09:19:26.000Z</time>
      </trkpt>
      <trkpt lat="42.350232638418674468994140625" lon="2.77864088304340839385986328125">
        <ele>277.79998779296875</ele>
        <time>2020-08-08T09:19:28.000Z</time>
      </trkpt>
      <trkpt lat="42.35015510581433773040771484375" lon="2.7786114625632762908935546875">
        <ele>276.600006103515625</ele>
        <time>2020-08-08T09:19:31.000Z</time>
      </trkpt>
      <trkpt lat="42.35013448633253574371337890625" lon="2.7786168269813060760498046875">
        <ele>276.20001220703125</ele>
        <time>2020-08-08T09:19:32.000Z</time>
      </trkpt>
      <trkpt lat="42.35011629760265350341796875" lon="2.77863107621669769287109375">
        <ele>276</ele>
        <time>2020-08-08T09:19:33.000Z</time>
      </trkpt>
      <trkpt lat="42.35007799230515956878662109375" lon="2.77867793105542659759521484375">
        <ele>275.20001220703125</ele>
        <time>2020-08-08T09:19:35.000Z</time>
      </trkpt>
      <trkpt lat="42.35005636699497699737548828125" lon="2.77871095575392246246337890625">
        <ele>275</ele>
        <time>2020-08-08T09:19:36.000Z</time>
      </trkpt>
      <trkpt lat="42.3499922454357147216796875" lon="2.77879334986209869384765625">
        <ele>274</ele>
        <time>2020-08-08T09:19:40.000Z</time>
      </trkpt>
      <trkpt lat="42.34988202340900897979736328125" lon="2.7788736484944820404052734375">
        <ele>272.79998779296875</ele>
        <time>2020-08-08T09:19:45.000Z</time>
      </trkpt>
      <trkpt lat="42.34983273781836032867431640625" lon="2.7788878977298736572265625">
        <ele>271.20001220703125</ele>
        <time>2020-08-08T09:19:47.000Z</time>
      </trkpt>
      <trkpt lat="42.34977624379098415374755859375" lon="2.77890105731785297393798828125">
        <ele>269.600006103515625</ele>
        <time>2020-08-08T09:19:49.000Z</time>
      </trkpt>
      <trkpt lat="42.34970818273723125457763671875" lon="2.77892167679965496063232421875">
        <ele>268.399993896484375</ele>
        <time>2020-08-08T09:19:51.000Z</time>
      </trkpt>
      <trkpt lat="42.3495760001242160797119140625" lon="2.7789469063282012939453125">
        <ele>267.20001220703125</ele>
        <time>2020-08-08T09:19:54.000Z</time>
      </trkpt>
      <trkpt lat="42.34953367151319980621337890625" lon="2.77894489467144012451171875">
        <ele>265.79998779296875</ele>
        <time>2020-08-08T09:19:55.000Z</time>
      </trkpt>
      <trkpt lat="42.34949612058699131011962890625" lon="2.7789356745779514312744140625">
        <ele>265</ele>
        <time>2020-08-08T09:19:56.000Z</time>
      </trkpt>
      <trkpt lat="42.34946577809751033782958984375" lon="2.7789135463535785675048828125">
        <ele>264.399993896484375</ele>
        <time>2020-08-08T09:19:57.000Z</time>
      </trkpt>
      <trkpt lat="42.34942185692489147186279296875" lon="2.77882612310349941253662109375">
        <ele>263.399993896484375</ele>
        <time>2020-08-08T09:19:59.000Z</time>
      </trkpt>
      <trkpt lat="42.3494063504040241241455078125" lon="2.778766863048076629638671875">
        <ele>263</ele>
        <time>2020-08-08T09:20:00.000Z</time>
      </trkpt>
      <trkpt lat="42.3493865691125392913818359375" lon="2.7787081897258758544921875">
        <ele>262.79998779296875</ele>
        <time>2020-08-08T09:20:01.000Z</time>
      </trkpt>
      <trkpt lat="42.34934876672923564910888671875" lon="2.7786272205412387847900390625">
        <ele>261.600006103515625</ele>
        <time>2020-08-08T09:20:03.000Z</time>
      </trkpt>
      <trkpt lat="42.34927810728549957275390625" lon="2.778611965477466583251953125">
        <ele>260.600006103515625</ele>
        <time>2020-08-08T09:20:06.000Z</time>
      </trkpt>
      <trkpt lat="42.34923250973224639892578125" lon="2.778742723166942596435546875">
        <ele>259.20001220703125</ele>
        <time>2020-08-08T09:20:09.000Z</time>
      </trkpt>
      <trkpt lat="42.34921968542039394378662109375" lon="2.778883539140224456787109375">
        <ele>258</ele>
        <time>2020-08-08T09:20:11.000Z</time>
      </trkpt>
      <trkpt lat="42.34921633265912532806396484375" lon="2.778948582708835601806640625">
        <ele>257.20001220703125</ele>
        <time>2020-08-08T09:20:12.000Z</time>
      </trkpt>
      <trkpt lat="42.349213063716888427734375" lon="2.7790050767362117767333984375">
        <ele>256.600006103515625</ele>
        <time>2020-08-08T09:20:13.000Z</time>
      </trkpt>
      <trkpt lat="42.34923276118934154510498046875" lon="2.7791480720043182373046875">
        <ele>255.399993896484375</ele>
        <time>2020-08-08T09:20:16.000Z</time>
      </trkpt>
      <trkpt lat="42.349254302680492401123046875" lon="2.77918495237827301025390625">
        <ele>255</ele>
        <time>2020-08-08T09:20:17.000Z</time>
      </trkpt>
      <trkpt lat="42.34928539954125881195068359375" lon="2.77925125323235988616943359375">
        <ele>254.1999969482421875</ele>
        <time>2020-08-08T09:20:19.000Z</time>
      </trkpt>
      <trkpt lat="42.34927047975361347198486328125" lon="2.77930908836424350738525390625">
        <ele>253.600006103515625</ele>
        <time>2020-08-08T09:20:21.000Z</time>
      </trkpt>
      <trkpt lat="42.34921147115528583526611328125" lon="2.779305316507816314697265625">
        <ele>253</ele>
        <time>2020-08-08T09:20:23.000Z</time>
      </trkpt>
      <trkpt lat="42.34917492605745792388916015625" lon="2.77926541864871978759765625">
        <ele>252.8000030517578125</ele>
        <time>2020-08-08T09:20:24.000Z</time>
      </trkpt>
      <trkpt lat="42.34911382198333740234375" lon="2.77916709892451763153076171875">
        <ele>251.8000030517578125</ele>
        <time>2020-08-08T09:20:26.000Z</time>
      </trkpt>
      <trkpt lat="42.3490781150758266448974609375" lon="2.77910456992685794830322265625">
        <ele>250.399993896484375</ele>
        <time>2020-08-08T09:20:28.000Z</time>
      </trkpt>
      <trkpt lat="42.34904651530086994171142578125" lon="2.77904522605240345001220703125">
        <ele>249.1999969482421875</ele>
        <time>2020-08-08T09:20:30.000Z</time>
      </trkpt>
      <trkpt lat="42.3489785380661487579345703125" lon="2.77888798154890537261962890625">
        <ele>248</ele>
        <time>2020-08-08T09:20:34.000Z</time>
      </trkpt>
      <trkpt lat="42.3489527218043804168701171875" lon="2.778801731765270233154296875">
        <ele>246.600006103515625</ele>
        <time>2020-08-08T09:20:36.000Z</time>
      </trkpt>
      <trkpt lat="42.348946519196033477783203125" lon="2.778704166412353515625">
        <ele>245.8000030517578125</ele>
        <time>2020-08-08T09:20:38.000Z</time>
      </trkpt>
      <trkpt lat="42.34895087778568267822265625" lon="2.778661251068115234375">
        <ele>245.399993896484375</ele>
        <time>2020-08-08T09:20:39.000Z</time>
      </trkpt>
      <trkpt lat="42.348942495882511138916015625" lon="2.77855924330651760101318359375">
        <ele>244.600006103515625</ele>
        <time>2020-08-08T09:20:42.000Z</time>
      </trkpt>
      <trkpt lat="42.34892145730555057525634765625" lon="2.77854415588080883026123046875">
        <ele>244.1999969482421875</ele>
        <time>2020-08-08T09:20:43.000Z</time>
      </trkpt>
      <trkpt lat="42.3488789610564708709716796875" lon="2.77856812812387943267822265625">
        <ele>243.8000030517578125</ele>
        <time>2020-08-08T09:20:45.000Z</time>
      </trkpt>
      <trkpt lat="42.34885507263243198394775390625" lon="2.77864507399499416351318359375">
        <ele>243</ele>
        <time>2020-08-08T09:20:47.000Z</time>
      </trkpt>
      <trkpt lat="42.348836548626422882080078125" lon="2.77874213643372058868408203125">
        <ele>242.1999969482421875</ele>
        <time>2020-08-08T09:20:49.000Z</time>
      </trkpt>
      <trkpt lat="42.3488316871225833892822265625" lon="2.77879511006176471710205078125">
        <ele>241.600006103515625</ele>
        <time>2020-08-08T09:20:50.000Z</time>
      </trkpt>
      <trkpt lat="42.34881567768752574920654296875" lon="2.77888865210115909576416015625">
        <ele>240.8000030517578125</ele>
        <time>2020-08-08T09:20:52.000Z</time>
      </trkpt>
      <trkpt lat="42.3488052003085613250732421875" lon="2.77893173508346080780029296875">
        <ele>240</ele>
        <time>2020-08-08T09:20:53.000Z</time>
      </trkpt>
      <trkpt lat="42.34878986142575740814208984375" lon="2.77897037565708160400390625">
        <ele>239.399993896484375</ele>
        <time>2020-08-08T09:20:54.000Z</time>
      </trkpt>
      <trkpt lat="42.3487758636474609375" lon="2.7790017239749431610107421875">
        <ele>238.8000030517578125</ele>
        <time>2020-08-08T09:20:55.000Z</time>
      </trkpt>
      <trkpt lat="42.3487542383372783660888671875" lon="2.7790600620210170745849609375">
        <ele>237.600006103515625</ele>
        <time>2020-08-08T09:20:57.000Z</time>
      </trkpt>
      <trkpt lat="42.348737306892871856689453125" lon="2.7791261114180088043212890625">
        <ele>236.1999969482421875</ele>
        <time>2020-08-08T09:20:59.000Z</time>
      </trkpt>
      <trkpt lat="42.3487482033669948577880859375" lon="2.779283188283443450927734375">
        <ele>234.8000030517578125</ele>
        <time>2020-08-08T09:21:03.000Z</time>
      </trkpt>
      <trkpt lat="42.3487525619566440582275390625" lon="2.77932149358093738555908203125">
        <ele>234</ele>
        <time>2020-08-08T09:21:04.000Z</time>
      </trkpt>
      <trkpt lat="42.34874795190989971160888671875" lon="2.77935468591749668121337890625">
        <ele>233.600006103515625</ele>
        <time>2020-08-08T09:21:05.000Z</time>
      </trkpt>
      <trkpt lat="42.34871040098369121551513671875" lon="2.77938905172049999237060546875">
        <ele>232.600006103515625</ele>
        <time>2020-08-08T09:21:07.000Z</time>
      </trkpt>
      <trkpt lat="42.34869011677801609039306640625" lon="2.77938720770180225372314453125">
        <ele>232.600006103515625</ele>
        <time>2020-08-08T09:21:08.000Z</time>
      </trkpt>
      <trkpt lat="42.3486578464508056640625" lon="2.77936893515288829803466796875">
        <ele>232.399993896484375</ele>
        <time>2020-08-08T09:21:10.000Z</time>
      </trkpt>
      <trkpt lat="42.3486295156180858612060546875" lon="2.7793437056243419647216796875">
        <ele>232</ele>
        <time>2020-08-08T09:21:12.000Z</time>
      </trkpt>
      <trkpt lat="42.348604537546634674072265625" lon="2.779307328164577484130859375">
        <ele>231.399993896484375</ele>
        <time>2020-08-08T09:21:14.000Z</time>
      </trkpt>
      <trkpt lat="42.348569668829441070556640625" lon="2.77923515997827053070068359375">
        <ele>230.600006103515625</ele>
        <time>2020-08-08T09:21:17.000Z</time>
      </trkpt>
      <trkpt lat="42.34853446483612060546875" lon="2.77916961349546909332275390625">
        <ele>230.1999969482421875</ele>
        <time>2020-08-08T09:21:19.000Z</time>
      </trkpt>
      <trkpt lat="42.34847855754196643829345703125" lon="2.77907255105674266815185546875">
        <ele>228.600006103515625</ele>
        <time>2020-08-08T09:21:22.000Z</time>
      </trkpt>
      <trkpt lat="42.3484622128307819366455078125" lon="2.7790352515876293182373046875">
        <ele>228</ele>
        <time>2020-08-08T09:21:23.000Z</time>
      </trkpt>
      <trkpt lat="42.34844519756734371185302734375" lon="2.7789960242807865142822265625">
        <ele>227.399993896484375</ele>
        <time>2020-08-08T09:21:24.000Z</time>
      </trkpt>
      <trkpt lat="42.34839255921542644500732421875" lon="2.7789013087749481201171875">
        <ele>226.1999969482421875</ele>
        <time>2020-08-08T09:21:27.000Z</time>
      </trkpt>
      <trkpt lat="42.34837160445749759674072265625" lon="2.7788816951215267181396484375">
        <ele>225.8000030517578125</ele>
        <time>2020-08-08T09:21:28.000Z</time>
      </trkpt>
      <trkpt lat="42.34832047484815120697021484375" lon="2.77885730378329753875732421875">
        <ele>225</ele>
        <time>2020-08-08T09:21:30.000Z</time>
      </trkpt>
      <trkpt lat="42.348231710493564605712890625" lon="2.7788552083075046539306640625">
        <ele>224.399993896484375</ele>
        <time>2020-08-08T09:21:33.000Z</time>
      </trkpt>
      <trkpt lat="42.3482010327279567718505859375" lon="2.77885646559298038482666015625">
        <ele>223.8000030517578125</ele>
        <time>2020-08-08T09:21:34.000Z</time>
      </trkpt>
      <trkpt lat="42.34810673631727695465087890625" lon="2.77882947586476802825927734375">
        <ele>222.8000030517578125</ele>
        <time>2020-08-08T09:21:37.000Z</time>
      </trkpt>
      <trkpt lat="42.34807790257036685943603515625" lon="2.7788086049258708953857421875">
        <ele>222.600006103515625</ele>
        <time>2020-08-08T09:21:38.000Z</time>
      </trkpt>
      <trkpt lat="42.34795804135501384735107421875" lon="2.77869150973856449127197265625">
        <ele>221.8000030517578125</ele>
        <time>2020-08-08T09:21:42.000Z</time>
      </trkpt>
      <trkpt lat="42.34790674410760402679443359375" lon="2.77863434515893459320068359375">
        <ele>221.1999969482421875</ele>
        <time>2020-08-08T09:21:44.000Z</time>
      </trkpt>
      <trkpt lat="42.34785980544984340667724609375" lon="2.77857785113155841827392578125">
        <ele>220.600006103515625</ele>
        <time>2020-08-08T09:21:46.000Z</time>
      </trkpt>
      <trkpt lat="42.347779758274555206298828125" lon="2.778508029878139495849609375">
        <ele>219.600006103515625</ele>
        <time>2020-08-08T09:21:49.000Z</time>
      </trkpt>
      <trkpt lat="42.34775385819375514984130859375" lon="2.778487913310527801513671875">
        <ele>219.1999969482421875</ele>
        <time>2020-08-08T09:21:50.000Z</time>
      </trkpt>
      <trkpt lat="42.3476914130151271820068359375" lon="2.77843787334859371185302734375">
        <ele>218.399993896484375</ele>
        <time>2020-08-08T09:21:52.000Z</time>
      </trkpt>
      <trkpt lat="42.34765763394534587860107421875" lon="2.77840300463140010833740234375">
        <ele>218</ele>
        <time>2020-08-08T09:21:53.000Z</time>
      </trkpt>
      <trkpt lat="42.34759761951863765716552734375" lon="2.7783192694187164306640625">
        <ele>217.399993896484375</ele>
        <time>2020-08-08T09:21:55.000Z</time>
      </trkpt>
      <trkpt lat="42.347571551799774169921875" lon="2.7782781980931758880615234375">
        <ele>217.1999969482421875</ele>
        <time>2020-08-08T09:21:56.000Z</time>
      </trkpt>
      <trkpt lat="42.3474677838385105133056640625" lon="2.77811064384877681732177734375">
        <ele>216</ele>
        <time>2020-08-08T09:22:00.000Z</time>
      </trkpt>
      <trkpt lat="42.34743786044418811798095703125" lon="2.7780773676931858062744140625">
        <ele>215.8000030517578125</ele>
        <time>2020-08-08T09:22:01.000Z</time>
      </trkpt>
      <trkpt lat="42.34740936197340488433837890625" lon="2.77805649675428867340087890625">
        <ele>215</ele>
        <time>2020-08-08T09:22:02.000Z</time>
      </trkpt>
      <trkpt lat="42.34735907055437564849853515625" lon="2.7780334465205669403076171875">
        <ele>214</ele>
        <time>2020-08-08T09:22:04.000Z</time>
      </trkpt>
      <trkpt lat="42.34733426012098789215087890625" lon="2.7780247293412685394287109375">
        <ele>214</ele>
        <time>2020-08-08T09:22:05.000Z</time>
      </trkpt>
      <trkpt lat="42.34718690626323223114013671875" lon="2.77793110348284244537353515625">
        <ele>213.600006103515625</ele>
        <time>2020-08-08T09:22:10.000Z</time>
      </trkpt>
      <trkpt lat="42.34713108278810977935791015625" lon="2.77787326835095882415771484375">
        <ele>212.8000030517578125</ele>
        <time>2020-08-08T09:22:12.000Z</time>
      </trkpt>
      <trkpt lat="42.34703418798744678497314453125" lon="2.77776581235229969024658203125">
        <ele>212</ele>
        <time>2020-08-08T09:22:16.000Z</time>
      </trkpt>
      <trkpt lat="42.34700627624988555908203125" lon="2.77774033136665821075439453125">
        <ele>211.600006103515625</ele>
        <time>2020-08-08T09:22:17.000Z</time>
      </trkpt>
      <trkpt lat="42.34693528153002262115478515625" lon="2.77764863334596157073974609375">
        <ele>210.1999969482421875</ele>
        <time>2020-08-08T09:22:20.000Z</time>
      </trkpt>
      <trkpt lat="42.34691332094371318817138671875" lon="2.77761091478168964385986328125">
        <ele>210</ele>
        <time>2020-08-08T09:22:21.000Z</time>
      </trkpt>
      <trkpt lat="42.3468567430973052978515625" lon="2.77748920954763889312744140625">
        <ele>208.8000030517578125</ele>
        <time>2020-08-08T09:22:24.000Z</time>
      </trkpt>
      <trkpt lat="42.34682681970298290252685546875" lon="2.77740388177335262298583984375">
        <ele>207.8000030517578125</ele>
        <time>2020-08-08T09:22:26.000Z</time>
      </trkpt>
      <trkpt lat="42.3468109779059886932373046875" lon="2.77735912241041660308837890625">
        <ele>207.1999969482421875</ele>
        <time>2020-08-08T09:22:27.000Z</time>
      </trkpt>
      <trkpt lat="42.3467549867928028106689453125" lon="2.77726314961910247802734375">
        <ele>206.600006103515625</ele>
        <time>2020-08-08T09:22:30.000Z</time>
      </trkpt>
      <trkpt lat="42.3467092216014862060546875" lon="2.77720657177269458770751953125">
        <ele>206.600006103515625</ele>
        <time>2020-08-08T09:22:32.000Z</time>
      </trkpt>
      <trkpt lat="42.34662112779915332794189453125" lon="2.77711437083780765533447265625">
        <ele>205.1999969482421875</ele>
        <time>2020-08-08T09:22:35.000Z</time>
      </trkpt>
      <trkpt lat="42.3465675674378871917724609375" lon="2.77707003057003021240234375">
        <ele>204.600006103515625</ele>
        <time>2020-08-08T09:22:37.000Z</time>
      </trkpt>
      <trkpt lat="42.3465105704963207244873046875" lon="2.77701848186552524566650390625">
        <ele>203.8000030517578125</ele>
        <time>2020-08-08T09:22:39.000Z</time>
      </trkpt>
      <trkpt lat="42.34644192270934581756591796875" lon="2.77695394121110439300537109375">
        <ele>202.600006103515625</ele>
        <time>2020-08-08T09:22:41.000Z</time>
      </trkpt>
      <trkpt lat="42.3464069701731204986572265625" lon="2.7769179828464984893798828125">
        <ele>202.1999969482421875</ele>
        <time>2020-08-08T09:22:42.000Z</time>
      </trkpt>
      <trkpt lat="42.34634636901319026947021484375" lon="2.77685754932463169097900390625">
        <ele>201.600006103515625</ele>
        <time>2020-08-08T09:22:44.000Z</time>
      </trkpt>
      <trkpt lat="42.34629456885159015655517578125" lon="2.77680759318172931671142578125">
        <ele>200.600006103515625</ele>
        <time>2020-08-08T09:22:46.000Z</time>
      </trkpt>
      <trkpt lat="42.34623354859650135040283203125" lon="2.7767764963209629058837890625">
        <ele>200.399993896484375</ele>
        <time>2020-08-08T09:22:48.000Z</time>
      </trkpt>
      <trkpt lat="42.34619624912738800048828125" lon="2.7767567150294780731201171875">
        <ele>199.8000030517578125</ele>
        <time>2020-08-08T09:22:50.000Z</time>
      </trkpt>
      <trkpt lat="42.3461390845477581024169921875" lon="2.77664967812597751617431640625">
        <ele>200.399993896484375</ele>
        <time>2020-08-08T09:22:55.000Z</time>
      </trkpt>
      <trkpt lat="42.34605266712605953216552734375" lon="2.7764660306274890899658203125">
        <ele>199.1999969482421875</ele>
        <time>2020-08-08T09:22:59.000Z</time>
      </trkpt>
      <trkpt lat="42.34601813368499279022216796875" lon="2.77641582302749156951904296875">
        <ele>199</ele>
        <time>2020-08-08T09:23:00.000Z</time>
      </trkpt>
      <trkpt lat="42.34590447507798671722412109375" lon="2.77631767094135284423828125">
        <ele>197.600006103515625</ele>
        <time>2020-08-08T09:23:03.000Z</time>
      </trkpt>
      <trkpt lat="42.3457588814198970794677734375" lon="2.77627953328192234039306640625">
        <ele>196.8000030517578125</ele>
        <time>2020-08-08T09:23:07.000Z</time>
      </trkpt>
      <trkpt lat="42.34568973071873188018798828125" lon="2.7762957103550434112548828125">
        <ele>196.600006103515625</ele>
        <time>2020-08-08T09:23:09.000Z</time>
      </trkpt>
      <trkpt lat="42.3456187359988689422607421875" lon="2.776332087814807891845703125">
        <ele>196.1999969482421875</ele>
        <time>2020-08-08T09:23:11.000Z</time>
      </trkpt>
      <trkpt lat="42.34552301466464996337890625" lon="2.77636670507490634918212890625">
        <ele>195.399993896484375</ele>
        <time>2020-08-08T09:23:14.000Z</time>
      </trkpt>
      <trkpt lat="42.34548303298652172088623046875" lon="2.77637961320579051971435546875">
        <ele>195</ele>
        <time>2020-08-08T09:23:15.000Z</time>
      </trkpt>
      <trkpt lat="42.34544313512742519378662109375" lon="2.77640257962048053741455078125">
        <ele>194.600006103515625</ele>
        <time>2020-08-08T09:23:16.000Z</time>
      </trkpt>
      <trkpt lat="42.34540206380188465118408203125" lon="2.77643929235637187957763671875">
        <ele>194.1999969482421875</ele>
        <time>2020-08-08T09:23:17.000Z</time>
      </trkpt>
      <trkpt lat="42.34530651010572910308837890625" lon="2.776555716991424560546875">
        <ele>193.399993896484375</ele>
        <time>2020-08-08T09:23:20.000Z</time>
      </trkpt>
      <trkpt lat="42.3452361859381198883056640625" lon="2.776626460254192352294921875">
        <ele>193</ele>
        <time>2020-08-08T09:23:22.000Z</time>
      </trkpt>
      <trkpt lat="42.34515689313411712646484375" lon="2.77670583687722682952880859375">
        <ele>192.399993896484375</ele>
        <time>2020-08-08T09:23:24.000Z</time>
      </trkpt>
      <trkpt lat="42.345123030245304107666015625" lon="2.77674456126987934112548828125">
        <ele>192.1999969482421875</ele>
        <time>2020-08-08T09:23:25.000Z</time>
      </trkpt>
      <trkpt lat="42.34500710852444171905517578125" lon="2.77686643414199352264404296875">
        <ele>191.8000030517578125</ele>
        <time>2020-08-08T09:23:28.000Z</time>
      </trkpt>
      <trkpt lat="42.34492949210107326507568359375" lon="2.776936590671539306640625">
        <ele>191</ele>
        <time>2020-08-08T09:23:30.000Z</time>
      </trkpt>
      <trkpt lat="42.34489780850708484649658203125" lon="2.7769733034074306488037109375">
        <ele>189.8000030517578125</ele>
        <time>2020-08-08T09:23:31.000Z</time>
      </trkpt>
      <trkpt lat="42.344795800745487213134765625" lon="2.7770574577152729034423828125">
        <ele>189</ele>
        <time>2020-08-08T09:23:34.000Z</time>
      </trkpt>
      <trkpt lat="42.344730086624622344970703125" lon="2.77711772359907627105712890625">
        <ele>189</ele>
        <time>2020-08-08T09:23:36.000Z</time>
      </trkpt>
      <trkpt lat="42.3446313478052616119384765625" lon="2.7772168815135955810546875">
        <ele>188.399993896484375</ele>
        <time>2020-08-08T09:23:39.000Z</time>
      </trkpt>
      <trkpt lat="42.34448768198490142822265625" lon="2.7773481421172618865966796875">
        <ele>187.399993896484375</ele>
        <time>2020-08-08T09:23:44.000Z</time>
      </trkpt>
      <trkpt lat="42.34445013105869293212890625" lon="2.7773724496364593505859375">
        <ele>187.1999969482421875</ele>
        <time>2020-08-08T09:23:45.000Z</time>
      </trkpt>
      <trkpt lat="42.34433881938457489013671875" lon="2.777455262839794158935546875">
        <ele>186.1999969482421875</ele>
        <time>2020-08-08T09:23:48.000Z</time>
      </trkpt>
      <trkpt lat="42.34430420212447643280029296875" lon="2.77749122120440006256103515625">
        <ele>185.8000030517578125</ele>
        <time>2020-08-08T09:23:49.000Z</time>
      </trkpt>
      <trkpt lat="42.34424502588808536529541015625" lon="2.7775768004357814788818359375">
        <ele>185.600006103515625</ele>
        <time>2020-08-08T09:23:51.000Z</time>
      </trkpt>
      <trkpt lat="42.34418836422264575958251953125" lon="2.77773831970989704132080078125">
        <ele>185.1999969482421875</ele>
        <time>2020-08-08T09:23:54.000Z</time>
      </trkpt>
      <trkpt lat="42.34415215440094470977783203125" lon="2.777856253087520599365234375">
        <ele>185.1999969482421875</ele>
        <time>2020-08-08T09:23:56.000Z</time>
      </trkpt>
      <trkpt lat="42.34412868507206439971923828125" lon="2.777909897267818450927734375">
        <ele>184.8000030517578125</ele>
        <time>2020-08-08T09:23:57.000Z</time>
      </trkpt>
      <trkpt lat="42.34407654963433742523193359375" lon="2.7780069597065448760986328125">
        <ele>185.1999969482421875</ele>
        <time>2020-08-08T09:23:59.000Z</time>
      </trkpt>
      <trkpt lat="42.3440511524677276611328125" lon="2.77806068770587444305419921875">
        <ele>184.8000030517578125</ele>
        <time>2020-08-08T09:24:00.000Z</time>
      </trkpt>
      <trkpt lat="42.34402357600629329681396484375" lon="2.77811131440103054046630859375">
        <ele>185</ele>
        <time>2020-08-08T09:24:01.000Z</time>
      </trkpt>
      <trkpt lat="42.34392031095921993255615234375" lon="2.77831457555294036865234375">
        <ele>183.8000030517578125</ele>
        <time>2020-08-08T09:24:05.000Z</time>
      </trkpt>
      <trkpt lat="42.34384152106940746307373046875" lon="2.77847282588481903076171875">
        <ele>182.8000030517578125</ele>
        <time>2020-08-08T09:24:08.000Z</time>
      </trkpt>
      <trkpt lat="42.34374714083969593048095703125" lon="2.77867876924574375152587890625">
        <ele>182.399993896484375</ele>
        <time>2020-08-08T09:24:12.000Z</time>
      </trkpt>
      <trkpt lat="42.34362711198627948760986328125" lon="2.77889720164239406585693359375">
        <ele>182</ele>
        <time>2020-08-08T09:24:17.000Z</time>
      </trkpt>
      <trkpt lat="42.34360850416123867034912109375" lon="2.77893416583538055419921875">
        <ele>181.8000030517578125</ele>
        <time>2020-08-08T09:24:18.000Z</time>
      </trkpt>
      <trkpt lat="42.34355133958160877227783203125" lon="2.77912837453186511993408203125">
        <ele>181.8000030517578125</ele>
        <time>2020-08-08T09:24:23.000Z</time>
      </trkpt>
      <trkpt lat="42.343526780605316162109375" lon="2.7792481519281864166259765625">
        <ele>182</ele>
        <time>2020-08-08T09:24:26.000Z</time>
      </trkpt>
      <trkpt lat="42.3434900678694248199462890625" lon="2.77943263761699199676513671875">
        <ele>182.600006103515625</ele>
        <time>2020-08-08T09:24:32.000Z</time>
      </trkpt>
      <trkpt lat="42.34342628158628940582275390625" lon="2.7796524949371814727783203125">
        <ele>183.1999969482421875</ele>
        <time>2020-08-08T09:24:40.000Z</time>
      </trkpt>
      <trkpt lat="42.34335922636091709136962890625" lon="2.77984301559627056121826171875">
        <ele>183.399993896484375</ele>
        <time>2020-08-08T09:24:47.000Z</time>
      </trkpt>
      <trkpt lat="42.34331765212118625640869140625" lon="2.7800115756690502166748046875">
        <ele>184.1999969482421875</ele>
        <time>2020-08-08T09:24:53.000Z</time>
      </trkpt>
      <trkpt lat="42.3433150537312030792236328125" lon="2.78004057705402374267578125">
        <ele>184.399993896484375</ele>
        <time>2020-08-08T09:24:54.000Z</time>
      </trkpt>
      <trkpt lat="42.34330658800899982452392578125" lon="2.78023101389408111572265625">
        <ele>185.600006103515625</ele>
        <time>2020-08-08T09:25:01.000Z</time>
      </trkpt>
      <trkpt lat="42.34334162436425685882568359375" lon="2.78041801415383815765380859375">
        <ele>185.600006103515625</ele>
        <time>2020-08-08T09:25:07.000Z</time>
      </trkpt>
      <trkpt lat="42.34341622330248355865478515625" lon="2.78059990145266056060791015625">
        <ele>185.1999969482421875</ele>
        <time>2020-08-08T09:25:11.000Z</time>
      </trkpt>
      <trkpt lat="42.34342175535857677459716796875" lon="2.78065622784197330474853515625">
        <ele>184.8000030517578125</ele>
        <time>2020-08-08T09:25:12.000Z</time>
      </trkpt>
      <trkpt lat="42.3434203304350376129150390625" lon="2.780707776546478271484375">
        <ele>184.399993896484375</ele>
        <time>2020-08-08T09:25:13.000Z</time>
      </trkpt>
      <trkpt lat="42.343391664326190948486328125" lon="2.780820094048976898193359375">
        <ele>184.600006103515625</ele>
        <time>2020-08-08T09:25:16.000Z</time>
      </trkpt>
      <trkpt lat="42.34336609952151775360107421875" lon="2.780986391007900238037109375">
        <ele>184.8000030517578125</ele>
        <time>2020-08-08T09:25:22.000Z</time>
      </trkpt>
      <trkpt lat="42.34336677007377147674560546875" lon="2.78103944845497608184814453125">
        <ele>185.600006103515625</ele>
        <time>2020-08-08T09:25:24.000Z</time>
      </trkpt>
      <trkpt lat="42.34337582252919673919677734375" lon="2.78115964494645595550537109375">
        <ele>186.1999969482421875</ele>
        <time>2020-08-08T09:25:29.000Z</time>
      </trkpt>
      <trkpt lat="42.34338051639497280120849609375" lon="2.7812189050018787384033203125">
        <ele>186.8000030517578125</ele>
        <time>2020-08-08T09:25:31.000Z</time>
      </trkpt>
      <trkpt lat="42.34338755719363689422607421875" lon="2.78134555555880069732666015625">
        <ele>187.1999969482421875</ele>
        <time>2020-08-08T09:25:35.000Z</time>
      </trkpt>
      <trkpt lat="42.3433881439268589019775390625" lon="2.78160790912806987762451171875">
        <ele>186.600006103515625</ele>
        <time>2020-08-08T09:25:41.000Z</time>
      </trkpt>
      <trkpt lat="42.343376576900482177734375" lon="2.78166289441287517547607421875">
        <ele>186.399993896484375</ele>
        <time>2020-08-08T09:25:42.000Z</time>
      </trkpt>
      <trkpt lat="42.343292422592639923095703125" lon="2.78186313807964324951171875">
        <ele>185.8000030517578125</ele>
        <time>2020-08-08T09:25:46.000Z</time>
      </trkpt>
      <trkpt lat="42.34321254305541515350341796875" lon="2.7820421755313873291015625">
        <ele>184.600006103515625</ele>
        <time>2020-08-08T09:25:49.000Z</time>
      </trkpt>
      <trkpt lat="42.34315705485641956329345703125" lon="2.78215994127094745635986328125">
        <ele>183.8000030517578125</ele>
        <time>2020-08-08T09:25:51.000Z</time>
      </trkpt>
      <trkpt lat="42.34313375316560268402099609375" lon="2.7822160162031650543212890625">
        <ele>183.399993896484375</ele>
        <time>2020-08-08T09:25:52.000Z</time>
      </trkpt>
      <trkpt lat="42.3430609144270420074462890625" lon="2.7823772840201854705810546875">
        <ele>182.399993896484375</ele>
        <time>2020-08-08T09:25:55.000Z</time>
      </trkpt>
      <trkpt lat="42.34303216449916362762451171875" lon="2.78242263011634349822998046875">
        <ele>182.1999969482421875</ele>
        <time>2020-08-08T09:25:56.000Z</time>
      </trkpt>
      <trkpt lat="42.3430025763809680938720703125" lon="2.78246889822185039520263671875">
        <ele>182.1999969482421875</ele>
        <time>2020-08-08T09:25:57.000Z</time>
      </trkpt>
      <trkpt lat="42.34294474124908447265625" lon="2.78256881050765514373779296875">
        <ele>181.1999969482421875</ele>
        <time>2020-08-08T09:25:59.000Z</time>
      </trkpt>
      <trkpt lat="42.3428835533559322357177734375" lon="2.78266738168895244598388671875">
        <ele>179.8000030517578125</ele>
        <time>2020-08-08T09:26:01.000Z</time>
      </trkpt>
      <trkpt lat="42.34282261691987514495849609375" lon="2.7827708981931209564208984375">
        <ele>178.1999969482421875</ele>
        <time>2020-08-08T09:26:03.000Z</time>
      </trkpt>
      <trkpt lat="42.3427930288016796112060546875" lon="2.78282294981181621551513671875">
        <ele>178</ele>
        <time>2020-08-08T09:26:04.000Z</time>
      </trkpt>
      <trkpt lat="42.34275958500802516937255859375" lon="2.7828687988221645355224609375">
        <ele>177.8000030517578125</ele>
        <time>2020-08-08T09:26:05.000Z</time>
      </trkpt>
      <trkpt lat="42.34264441765844821929931640625" lon="2.7829700522124767303466796875">
        <ele>176.8000030517578125</ele>
        <time>2020-08-08T09:26:08.000Z</time>
      </trkpt>
      <trkpt lat="42.34260904602706432342529296875" lon="2.783003412187099456787109375">
        <ele>176.600006103515625</ele>
        <time>2020-08-08T09:26:09.000Z</time>
      </trkpt>
      <trkpt lat="42.3425154201686382293701171875" lon="2.78314665891230106353759765625">
        <ele>175.8000030517578125</ele>
        <time>2020-08-08T09:26:12.000Z</time>
      </trkpt>
      <trkpt lat="42.34248465858399868011474609375" lon="2.78320801444351673126220703125">
        <ele>175.8000030517578125</ele>
        <time>2020-08-08T09:26:13.000Z</time>
      </trkpt>
      <trkpt lat="42.34241559170186519622802734375" lon="2.783325277268886566162109375">
        <ele>175.1999969482421875</ele>
        <time>2020-08-08T09:26:15.000Z</time>
      </trkpt>
      <trkpt lat="42.34237284399569034576416015625" lon="2.7833717130124568939208984375">
        <ele>174.600006103515625</ele>
        <time>2020-08-08T09:26:16.000Z</time>
      </trkpt>
      <trkpt lat="42.3423239775002002716064453125" lon="2.78341001830995082855224609375">
        <ele>174.1999969482421875</ele>
        <time>2020-08-08T09:26:17.000Z</time>
      </trkpt>
      <trkpt lat="42.342224232852458953857421875" lon="2.78348696418106555938720703125">
        <ele>173.399993896484375</ele>
        <time>2020-08-08T09:26:19.000Z</time>
      </trkpt>
      <trkpt lat="42.3421494662761688232421875" lon="2.78359659947454929351806640625">
        <ele>173.1999969482421875</ele>
        <time>2020-08-08T09:26:21.000Z</time>
      </trkpt>
      <trkpt lat="42.34208584763109683990478515625" lon="2.78382190503180027008056640625">
        <ele>172.600006103515625</ele>
        <time>2020-08-08T09:26:25.000Z</time>
      </trkpt>
      <trkpt lat="42.342061288654804229736328125" lon="2.78403195552527904510498046875">
        <ele>173.8000030517578125</ele>
        <time>2020-08-08T09:26:30.000Z</time>
      </trkpt>
      <trkpt lat="42.3420775495469570159912109375" lon="2.78421987779438495635986328125">
        <ele>174.600006103515625</ele>
        <time>2020-08-08T09:26:35.000Z</time>
      </trkpt>
      <trkpt lat="42.34207998029887676239013671875" lon="2.7842538245022296905517578125">
        <ele>174.8000030517578125</ele>
        <time>2020-08-08T09:26:36.000Z</time>
      </trkpt>
      <trkpt lat="42.3420762084424495697021484375" lon="2.78428475372493267059326171875">
        <ele>175</ele>
        <time>2020-08-08T09:26:37.000Z</time>
      </trkpt>
      <trkpt lat="42.3420490510761737823486328125" lon="2.7843614481389522552490234375">
        <ele>175.399993896484375</ele>
        <time>2020-08-08T09:26:40.000Z</time>
      </trkpt>
      <trkpt lat="42.34202834777534008026123046875" lon="2.78441199101507663726806640625">
        <ele>175.600006103515625</ele>
        <time>2020-08-08T09:26:42.000Z</time>
      </trkpt>
      <trkpt lat="42.3419917188584804534912109375" lon="2.7844875119626522064208984375">
        <ele>176.600006103515625</ele>
        <time>2020-08-08T09:26:46.000Z</time>
      </trkpt>
      <trkpt lat="42.34198358841240406036376953125" lon="2.7845062874257564544677734375">
        <ele>176.8000030517578125</ele>
        <time>2020-08-08T09:26:47.000Z</time>
      </trkpt>
      <trkpt lat="42.341964058578014373779296875" lon="2.78454802930355072021484375">
        <ele>177.399993896484375</ele>
        <time>2020-08-08T09:26:49.000Z</time>
      </trkpt>
      <trkpt lat="42.341943942010402679443359375" lon="2.78461298905313014984130859375">
        <ele>177.8000030517578125</ele>
        <time>2020-08-08T09:26:52.000Z</time>
      </trkpt>
      <trkpt lat="42.3419387452304363250732421875" lon="2.78463528491556644439697265625">
        <ele>178</ele>
        <time>2020-08-08T09:26:53.000Z</time>
      </trkpt>
      <trkpt lat="42.34190463088452816009521484375" lon="2.784768305718898773193359375">
        <ele>179</ele>
        <time>2020-08-08T09:26:59.000Z</time>
      </trkpt>
      <trkpt lat="42.3418998531997203826904296875" lon="2.784790098667144775390625">
        <ele>179.1999969482421875</ele>
        <time>2020-08-08T09:27:00.000Z</time>
      </trkpt>
      <trkpt lat="42.34187311492860317230224609375" lon="2.7849297411739826202392578125">
        <ele>179.600006103515625</ele>
        <time>2020-08-08T09:27:06.000Z</time>
      </trkpt>
      <trkpt lat="42.34179013408720493316650390625" lon="2.78510400094091892242431640625">
        <ele>179.399993896484375</ele>
        <time>2020-08-08T09:27:12.000Z</time>
      </trkpt>
      <trkpt lat="42.34164378605782985687255859375" lon="2.78533752076327800750732421875">
        <ele>178</ele>
        <time>2020-08-08T09:27:17.000Z</time>
      </trkpt>
      <trkpt lat="42.3416155390441417694091796875" lon="2.78538730926811695098876953125">
        <ele>177.399993896484375</ele>
        <time>2020-08-08T09:27:18.000Z</time>
      </trkpt>
      <trkpt lat="42.34155870974063873291015625" lon="2.78550616465508937835693359375">
        <ele>176.600006103515625</ele>
        <time>2020-08-08T09:27:20.000Z</time>
      </trkpt>
      <trkpt lat="42.3415018804371356964111328125" lon="2.785639353096485137939453125">
        <ele>175.8000030517578125</ele>
        <time>2020-08-08T09:27:22.000Z</time>
      </trkpt>
      <trkpt lat="42.3414713703095912933349609375" lon="2.78570766560733318328857421875">
        <ele>175</ele>
        <time>2020-08-08T09:27:23.000Z</time>
      </trkpt>
      <trkpt lat="42.341418899595737457275390625" lon="2.78581445105373859405517578125">
        <ele>173.600006103515625</ele>
        <time>2020-08-08T09:27:25.000Z</time>
      </trkpt>
      <trkpt lat="42.34135561622679233551025390625" lon="2.78590857982635498046875">
        <ele>172.399993896484375</ele>
        <time>2020-08-08T09:27:27.000Z</time>
      </trkpt>
      <trkpt lat="42.341284118592739105224609375" lon="2.78601377271115779876708984375">
        <ele>171.399993896484375</ele>
        <time>2020-08-08T09:27:29.000Z</time>
      </trkpt>
      <trkpt lat="42.34122234396636486053466796875" lon="2.78615140356123447418212890625">
        <ele>170.600006103515625</ele>
        <time>2020-08-08T09:27:31.000Z</time>
      </trkpt>
      <trkpt lat="42.34120138920843601226806640625" lon="2.7862151898443698883056640625">
        <ele>170.399993896484375</ele>
        <time>2020-08-08T09:27:32.000Z</time>
      </trkpt>
      <trkpt lat="42.3411689512431621551513671875" lon="2.78633094392716884613037109375">
        <ele>169</ele>
        <time>2020-08-08T09:27:34.000Z</time>
      </trkpt>
      <trkpt lat="42.3411528579890727996826171875" lon="2.7863891981542110443115234375">
        <ele>168.8000030517578125</ele>
        <time>2020-08-08T09:27:35.000Z</time>
      </trkpt>
      <trkpt lat="42.3411360941827297210693359375" lon="2.786442674696445465087890625">
        <ele>168.399993896484375</ele>
        <time>2020-08-08T09:27:36.000Z</time>
      </trkpt>
      <trkpt lat="42.34112083911895751953125" lon="2.7864978276193141937255859375">
        <ele>167.8000030517578125</ele>
        <time>2020-08-08T09:27:37.000Z</time>
      </trkpt>
      <trkpt lat="42.34111321158707141876220703125" lon="2.78660637326538562774658203125">
        <ele>167.1999969482421875</ele>
        <time>2020-08-08T09:27:39.000Z</time>
      </trkpt>
      <trkpt lat="42.341119833290576934814453125" lon="2.786776609718799591064453125">
        <ele>166.8000030517578125</ele>
        <time>2020-08-08T09:27:42.000Z</time>
      </trkpt>
      <trkpt lat="42.34111069701611995697021484375" lon="2.78682329691946506500244140625">
        <ele>166.8000030517578125</ele>
        <time>2020-08-08T09:27:43.000Z</time>
      </trkpt>
      <trkpt lat="42.34104766510426998138427734375" lon="2.7868686430156230926513671875">
        <ele>166.1999969482421875</ele>
        <time>2020-08-08T09:27:46.000Z</time>
      </trkpt>
      <trkpt lat="42.3409741558134555816650390625" lon="2.78683989308774471282958984375">
        <ele>165.600006103515625</ele>
        <time>2020-08-08T09:27:48.000Z</time>
      </trkpt>
      <trkpt lat="42.34088639728724956512451171875" lon="2.7867640368640422821044921875">
        <ele>165</ele>
        <time>2020-08-08T09:27:50.000Z</time>
      </trkpt>
      <trkpt lat="42.34084390103816986083984375" lon="2.7867093868553638458251953125">
        <ele>164.399993896484375</ele>
        <time>2020-08-08T09:27:51.000Z</time>
      </trkpt>
      <trkpt lat="42.34076905064284801483154296875" lon="2.786588184535503387451171875">
        <ele>163.399993896484375</ele>
        <time>2020-08-08T09:27:53.000Z</time>
      </trkpt>
      <trkpt lat="42.34073250554502010345458984375" lon="2.786531187593936920166015625">
        <ele>162.8000030517578125</ele>
        <time>2020-08-08T09:27:54.000Z</time>
      </trkpt>
      <trkpt lat="42.34059873037040233612060546875" lon="2.78643705882132053375244140625">
        <ele>161.8000030517578125</ele>
        <time>2020-08-08T09:27:57.000Z</time>
      </trkpt>
      <trkpt lat="42.340545840561389923095703125" lon="2.78643353842198848724365234375">
        <ele>161.600006103515625</ele>
        <time>2020-08-08T09:27:58.000Z</time>
      </trkpt>
      <trkpt lat="42.34044198878109455108642578125" lon="2.7864756993949413299560546875">
        <ele>161</ele>
        <time>2020-08-08T09:28:00.000Z</time>
      </trkpt>
      <trkpt lat="42.34038750641047954559326171875" lon="2.78652087785303592681884765625">
        <ele>160.399993896484375</ele>
        <time>2020-08-08T09:28:01.000Z</time>
      </trkpt>
      <trkpt lat="42.340272925794124603271484375" lon="2.7866517193615436553955078125">
        <ele>159.600006103515625</ele>
        <time>2020-08-08T09:28:03.000Z</time>
      </trkpt>
      <trkpt lat="42.3402160964906215667724609375" lon="2.7867177687585353851318359375">
        <ele>159.1999969482421875</ele>
        <time>2020-08-08T09:28:04.000Z</time>
      </trkpt>
      <trkpt lat="42.3400863446295261383056640625" lon="2.78690225444734096527099609375">
        <ele>158.600006103515625</ele>
        <time>2020-08-08T09:28:07.000Z</time>
      </trkpt>
      <trkpt lat="42.34001283533871173858642578125" lon="2.7870671264827251434326171875">
        <ele>159.8000030517578125</ele>
        <time>2020-08-08T09:28:11.000Z</time>
      </trkpt>
      <trkpt lat="42.34000294469296932220458984375" lon="2.78709554113447666168212890625">
        <ele>160.1999969482421875</ele>
        <time>2020-08-08T09:28:12.000Z</time>
      </trkpt>
      <trkpt lat="42.339949719607830047607421875" lon="2.7872247062623500823974609375">
        <ele>160.8000030517578125</ele>
        <time>2020-08-08T09:28:17.000Z</time>
      </trkpt>
      <trkpt lat="42.33990320004522800445556640625" lon="2.78732143342494964599609375">
        <ele>161.1999969482421875</ele>
        <time>2020-08-08T09:28:21.000Z</time>
      </trkpt>
      <trkpt lat="42.33988501131534576416015625" lon="2.7873712219297885894775390625">
        <ele>161.399993896484375</ele>
        <time>2020-08-08T09:28:23.000Z</time>
      </trkpt>
      <trkpt lat="42.33982441015541553497314453125" lon="2.7874748222529888153076171875">
        <ele>162.399993896484375</ele>
        <time>2020-08-08T09:28:28.000Z</time>
      </trkpt>
      <trkpt lat="42.3398137651383876800537109375" lon="2.78749368153512477874755859375">
        <ele>162.600006103515625</ele>
        <time>2020-08-08T09:28:29.000Z</time>
      </trkpt>
      <trkpt lat="42.33975819312036037445068359375" lon="2.78760046698153018951416015625">
        <ele>163.399993896484375</ele>
        <time>2020-08-08T09:28:34.000Z</time>
      </trkpt>
      <trkpt lat="42.33973883092403411865234375" lon="2.78764338232576847076416015625">
        <ele>163.8000030517578125</ele>
        <time>2020-08-08T09:28:36.000Z</time>
      </trkpt>
      <trkpt lat="42.33966481871902942657470703125" lon="2.78775301761925220489501953125">
        <ele>164.600006103515625</ele>
        <time>2020-08-08T09:28:42.000Z</time>
      </trkpt>
      <trkpt lat="42.33965492807328701019287109375" lon="2.7877695299685001373291015625">
        <ele>164.600006103515625</ele>
        <time>2020-08-08T09:28:43.000Z</time>
      </trkpt>
      <trkpt lat="42.339595668017864227294921875" lon="2.78786835260689258575439453125">
        <ele>165.600006103515625</ele>
        <time>2020-08-08T09:28:48.000Z</time>
      </trkpt>
      <trkpt lat="42.33953875489532947540283203125" lon="2.78797228820621967315673828125">
        <ele>166.600006103515625</ele>
        <time>2020-08-08T09:28:53.000Z</time>
      </trkpt>
      <trkpt lat="42.33948108740150928497314453125" lon="2.7880798280239105224609375">
        <ele>167.8000030517578125</ele>
        <time>2020-08-08T09:28:58.000Z</time>
      </trkpt>
      <trkpt lat="42.33946030028164386749267578125" lon="2.78812048025429248809814453125">
        <ele>168.1999969482421875</ele>
        <time>2020-08-08T09:29:00.000Z</time>
      </trkpt>
      <trkpt lat="42.339428700506687164306640625" lon="2.788182087242603302001953125">
        <ele>168.600006103515625</ele>
        <time>2020-08-08T09:29:03.000Z</time>
      </trkpt>
      <trkpt lat="42.33940447680652141571044921875" lon="2.78821720741689205169677734375">
        <ele>169</ele>
        <time>2020-08-08T09:29:05.000Z</time>
      </trkpt>
      <trkpt lat="42.33939274214208126068115234375" lon="2.78823472559452056884765625">
        <ele>169.1999969482421875</ele>
        <time>2020-08-08T09:29:06.000Z</time>
      </trkpt>
      <trkpt lat="42.3393380083143711090087890625" lon="2.7883239090442657470703125">
        <ele>169.600006103515625</ele>
        <time>2020-08-08T09:29:11.000Z</time>
      </trkpt>
      <trkpt lat="42.33931370079517364501953125" lon="2.78835148550570011138916015625">
        <ele>170</ele>
        <time>2020-08-08T09:29:13.000Z</time>
      </trkpt>
      <trkpt lat="42.339301966130733489990234375" lon="2.7883656509220600128173828125">
        <ele>170</ele>
        <time>2020-08-08T09:29:14.000Z</time>
      </trkpt>
      <trkpt lat="42.33924974687397480010986328125" lon="2.788437902927398681640625">
        <ele>171</ele>
        <time>2020-08-08T09:29:18.000Z</time>
      </trkpt>
      <trkpt lat="42.33924069441854953765869140625" lon="2.78846003115177154541015625">
        <ele>171</ele>
        <time>2020-08-08T09:29:19.000Z</time>
      </trkpt>
      <trkpt lat="42.339184284210205078125" lon="2.78855390846729278564453125">
        <ele>172</ele>
        <time>2020-08-08T09:29:24.000Z</time>
      </trkpt>
      <trkpt lat="42.33916173689067363739013671875" lon="2.78859422542154788970947265625">
        <ele>172.1999969482421875</ele>
        <time>2020-08-08T09:29:26.000Z</time>
      </trkpt>
      <trkpt lat="42.339109517633914947509765625" lon="2.7886637113988399505615234375">
        <ele>172.600006103515625</ele>
        <time>2020-08-08T09:29:30.000Z</time>
      </trkpt>
      <trkpt lat="42.33903131447732448577880859375" lon="2.7887994982302188873291015625">
        <ele>172.8000030517578125</ele>
        <time>2020-08-08T09:29:36.000Z</time>
      </trkpt>
      <trkpt lat="42.33900030143558979034423828125" lon="2.788841240108013153076171875">
        <ele>173.1999969482421875</ele>
        <time>2020-08-08T09:29:38.000Z</time>
      </trkpt>
      <trkpt lat="42.33890592120587825775146484375" lon="2.78899873606860637664794921875">
        <ele>173</ele>
        <time>2020-08-08T09:29:44.000Z</time>
      </trkpt>
      <trkpt lat="42.33877231366932392120361328125" lon="2.789195291697978973388671875">
        <ele>173</ele>
        <time>2020-08-08T09:29:51.000Z</time>
      </trkpt>
      <trkpt lat="42.33868950046598911285400390625" lon="2.789344154298305511474609375">
        <ele>172.8000030517578125</ele>
        <time>2020-08-08T09:29:55.000Z</time>
      </trkpt>
      <trkpt lat="42.33866728842258453369140625" lon="2.78939486481249332427978515625">
        <ele>172.8000030517578125</ele>
        <time>2020-08-08T09:29:56.000Z</time>
      </trkpt>
      <trkpt lat="42.3385088704526424407958984375" lon="2.789747826755046844482421875">
        <ele>172</ele>
        <time>2020-08-08T09:30:02.000Z</time>
      </trkpt>
      <trkpt lat="42.33842764981091022491455078125" lon="2.78994739986956119537353515625">
        <ele>171</ele>
        <time>2020-08-08T09:30:05.000Z</time>
      </trkpt>
      <trkpt lat="42.33833871781826019287109375" lon="2.7902113460004329681396484375">
        <ele>170</ele>
        <time>2020-08-08T09:30:09.000Z</time>
      </trkpt>
      <trkpt lat="42.33831617049872875213623046875" lon="2.7902723662555217742919921875">
        <ele>169.8000030517578125</ele>
        <time>2020-08-08T09:30:10.000Z</time>
      </trkpt>
      <trkpt lat="42.3382946290075778961181640625" lon="2.79033749364316463470458984375">
        <ele>169.8000030517578125</ele>
        <time>2020-08-08T09:30:11.000Z</time>
      </trkpt>
      <trkpt lat="42.33817242085933685302734375" lon="2.79067025519907474517822265625">
        <ele>168.8000030517578125</ele>
        <time>2020-08-08T09:30:16.000Z</time>
      </trkpt>
      <trkpt lat="42.33804711140692234039306640625" lon="2.7909283339977264404296875">
        <ele>167.600006103515625</ele>
        <time>2020-08-08T09:30:20.000Z</time>
      </trkpt>
      <trkpt lat="42.33801819384098052978515625" lon="2.7909854985773563385009765625">
        <ele>167</ele>
        <time>2020-08-08T09:30:21.000Z</time>
      </trkpt>
      <trkpt lat="42.3379901982843875885009765625" lon="2.79103453271090984344482421875">
        <ele>166.399993896484375</ele>
        <time>2020-08-08T09:30:22.000Z</time>
      </trkpt>
      <trkpt lat="42.33795993961393833160400390625" lon="2.7910730056464672088623046875">
        <ele>166</ele>
        <time>2020-08-08T09:30:23.000Z</time>
      </trkpt>
      <trkpt lat="42.33789154328405857086181640625" lon="2.79111181385815143585205078125">
        <ele>165.399993896484375</ele>
        <time>2020-08-08T09:30:25.000Z</time>
      </trkpt>
      <trkpt lat="42.33780168928205966949462890625" lon="2.7910673059523105621337890625">
        <ele>164</ele>
        <time>2020-08-08T09:30:27.000Z</time>
      </trkpt>
      <trkpt lat="42.337751649320125579833984375" lon="2.7910260669887065887451171875">
        <ele>163.399993896484375</ele>
        <time>2020-08-08T09:30:28.000Z</time>
      </trkpt>
      <trkpt lat="42.3376998491585254669189453125" lon="2.79097787104547023773193359375">
        <ele>162.8000030517578125</ele>
        <time>2020-08-08T09:30:29.000Z</time>
      </trkpt>
      <trkpt lat="42.33759574592113494873046875" lon="2.790863625705242156982421875">
        <ele>161.1999969482421875</ele>
        <time>2020-08-08T09:30:31.000Z</time>
      </trkpt>
      <trkpt lat="42.3374936543405055999755859375" lon="2.7907513082027435302734375">
        <ele>160.600006103515625</ele>
        <time>2020-08-08T09:30:33.000Z</time>
      </trkpt>
      <trkpt lat="42.33737957663834095001220703125" lon="2.79059615917503833770751953125">
        <ele>160.399993896484375</ele>
        <time>2020-08-08T09:30:36.000Z</time>
      </trkpt>
      <trkpt lat="42.33737044036388397216796875" lon="2.79055223800241947174072265625">
        <ele>160.600006103515625</ele>
        <time>2020-08-08T09:30:37.000Z</time>
      </trkpt>
      <trkpt lat="42.33739030547440052032470703125" lon="2.79041963629424571990966796875">
        <ele>162.600006103515625</ele>
        <time>2020-08-08T09:30:42.000Z</time>
      </trkpt>
      <trkpt lat="42.33739952556788921356201171875" lon="2.7902589552104473114013671875">
        <ele>163</ele>
        <time>2020-08-08T09:30:47.000Z</time>
      </trkpt>
      <trkpt lat="42.33739969320595264434814453125" lon="2.7900083363056182861328125">
        <ele>162.399993896484375</ele>
        <time>2020-08-08T09:30:52.000Z</time>
      </trkpt>
      <trkpt lat="42.33732928521931171417236328125" lon="2.78985184617340564727783203125">
        <ele>161</ele>
        <time>2020-08-08T09:30:56.000Z</time>
      </trkpt>
      <trkpt lat="42.33725376427173614501953125" lon="2.789884619414806365966796875">
        <ele>160</ele>
        <time>2020-08-08T09:30:59.000Z</time>
      </trkpt>
      <trkpt lat="42.3372437059879302978515625" lon="2.789917476475238800048828125">
        <ele>160</ele>
        <time>2020-08-08T09:31:00.000Z</time>
      </trkpt>
      <trkpt lat="42.33722970820963382720947265625" lon="2.78999433852732181549072265625">
        <ele>159.8000030517578125</ele>
        <time>2020-08-08T09:31:02.000Z</time>
      </trkpt>
      <trkpt lat="42.33721193857491016387939453125" lon="2.79007731936872005462646484375">
        <ele>159.8000030517578125</ele>
        <time>2020-08-08T09:31:04.000Z</time>
      </trkpt>
      <trkpt lat="42.33709006570279598236083984375" lon="2.7903578616678714752197265625">
        <ele>160</ele>
        <time>2020-08-08T09:31:11.000Z</time>
      </trkpt>
      <trkpt lat="42.33697607181966304779052734375" lon="2.79045416973531246185302734375">
        <ele>159.600006103515625</ele>
        <time>2020-08-08T09:31:15.000Z</time>
      </trkpt>
      <trkpt lat="42.3367543704807758331298828125" lon="2.79044880531728267669677734375">
        <ele>159.600006103515625</ele>
        <time>2020-08-08T09:31:21.000Z</time>
      </trkpt>
      <trkpt lat="42.3365919291973114013671875" lon="2.7904527448117733001708984375">
        <ele>159.600006103515625</ele>
        <time>2020-08-08T09:31:26.000Z</time>
      </trkpt>
      <trkpt lat="42.3363691382110118865966796875" lon="2.79048786498606204986572265625">
        <ele>159.8000030517578125</ele>
        <time>2020-08-08T09:31:33.000Z</time>
      </trkpt>
      <trkpt lat="42.33621013350784778594970703125" lon="2.7904886193573474884033203125">
        <ele>160.399993896484375</ele>
        <time>2020-08-08T09:31:38.000Z</time>
      </trkpt>
      <trkpt lat="42.3360077105462551116943359375" lon="2.790480069816112518310546875">
        <ele>160.600006103515625</ele>
        <time>2020-08-08T09:31:44.000Z</time>
      </trkpt>
      <trkpt lat="42.335789613425731658935546875" lon="2.7904879488050937652587890625">
        <ele>160.8000030517578125</ele>
        <time>2020-08-08T09:31:50.000Z</time>
      </trkpt>
      <trkpt lat="42.3355879448354244232177734375" lon="2.79050211422145366668701171875">
        <ele>161</ele>
        <time>2020-08-08T09:31:56.000Z</time>
      </trkpt>
      <trkpt lat="42.3353230766952037811279296875" lon="2.79060848057270050048828125">
        <ele>160.600006103515625</ele>
        <time>2020-08-08T09:32:03.000Z</time>
      </trkpt>
      <trkpt lat="42.33518972061574459075927734375" lon="2.79071333818137645721435546875">
        <ele>160.600006103515625</ele>
        <time>2020-08-08T09:32:06.000Z</time>
      </trkpt>
      <trkpt lat="42.33509299345314502716064453125" lon="2.790729515254497528076171875">
        <ele>160.399993896484375</ele>
        <time>2020-08-08T09:32:08.000Z</time>
      </trkpt>
      <trkpt lat="42.335003055632114410400390625" lon="2.7906904555857181549072265625">
        <ele>160.1999969482421875</ele>
        <time>2020-08-08T09:32:10.000Z</time>
      </trkpt>
      <trkpt lat="42.33489953912794589996337890625" lon="2.79062046669423580169677734375">
        <ele>159.600006103515625</ele>
        <time>2020-08-08T09:32:13.000Z</time>
      </trkpt>
      <trkpt lat="42.33486123383045196533203125" lon="2.7905700914561748504638671875">
        <ele>159.399993896484375</ele>
        <time>2020-08-08T09:32:15.000Z</time>
      </trkpt>
      <trkpt lat="42.3348432965576648712158203125" lon="2.79051586054265499114990234375">
        <ele>159.8000030517578125</ele>
        <time>2020-08-08T09:32:17.000Z</time>
      </trkpt>
      <trkpt lat="42.33482728712260723114013671875" lon="2.79035777784883975982666015625">
        <ele>160.600006103515625</ele>
        <time>2020-08-08T09:32:23.000Z</time>
      </trkpt>
      <trkpt lat="42.334828712046146392822265625" lon="2.7902324683964252471923828125">
        <ele>161.8000030517578125</ele>
        <time>2020-08-08T09:32:28.000Z</time>
      </trkpt>
      <trkpt lat="42.33483432792127132415771484375" lon="2.79016901738941669464111328125">
        <ele>162.399993896484375</ele>
        <time>2020-08-08T09:32:31.000Z</time>
      </trkpt>
      <trkpt lat="42.33483097516000270843505859375" lon="2.79015007428824901580810546875">
        <ele>162.600006103515625</ele>
        <time>2020-08-08T09:32:32.000Z</time>
      </trkpt>
      <trkpt lat="42.33481965959072113037109375" lon="2.79010866768658161163330078125">
        <ele>162.8000030517578125</ele>
        <time>2020-08-08T09:32:34.000Z</time>
      </trkpt>
      <trkpt lat="42.33481421135365962982177734375" lon="2.79006675817072391510009765625">
        <ele>163.399993896484375</ele>
        <time>2020-08-08T09:32:36.000Z</time>
      </trkpt>
      <trkpt lat="42.33481270261108875274658203125" lon="2.7900458872318267822265625">
        <ele>163.600006103515625</ele>
        <time>2020-08-08T09:32:37.000Z</time>
      </trkpt>
      <trkpt lat="42.3348198272287845611572265625" lon="2.78998528607189655303955078125">
        <ele>164.1999969482421875</ele>
        <time>2020-08-08T09:32:40.000Z</time>
      </trkpt>
      <trkpt lat="42.3348067514598369598388671875" lon="2.789936251938343048095703125">
        <ele>164.8000030517578125</ele>
        <time>2020-08-08T09:32:43.000Z</time>
      </trkpt>
      <trkpt lat="42.33480758965015411376953125" lon="2.78991554863750934600830078125">
        <ele>165</ele>
        <time>2020-08-08T09:32:44.000Z</time>
      </trkpt>
      <trkpt lat="42.33481203205883502960205078125" lon="2.78989660553634166717529296875">
        <ele>165.1999969482421875</ele>
        <time>2020-08-08T09:32:45.000Z</time>
      </trkpt>
      <trkpt lat="42.3348184861242771148681640625" lon="2.7898344956338405609130859375">
        <ele>165.8000030517578125</ele>
        <time>2020-08-08T09:32:48.000Z</time>
      </trkpt>
      <trkpt lat="42.3348002135753631591796875" lon="2.789796777069568634033203125">
        <ele>166.1999969482421875</ele>
        <time>2020-08-08T09:32:50.000Z</time>
      </trkpt>
      <trkpt lat="42.33480532653629779815673828125" lon="2.78973399661481380462646484375">
        <ele>166.8000030517578125</ele>
        <time>2020-08-08T09:32:53.000Z</time>
      </trkpt>
      <trkpt lat="42.334814630448818206787109375" lon="2.7897144667804241180419921875">
        <ele>167</ele>
        <time>2020-08-08T09:32:54.000Z</time>
      </trkpt>
      <trkpt lat="42.33481907285749912261962890625" lon="2.789693176746368408203125">
        <ele>167.1999969482421875</ele>
        <time>2020-08-08T09:32:55.000Z</time>
      </trkpt>
      <trkpt lat="42.33481421135365962982177734375" lon="2.789672724902629852294921875">
        <ele>167.1999969482421875</ele>
        <time>2020-08-08T09:32:56.000Z</time>
      </trkpt>
      <trkpt lat="42.33480482362210750579833984375" lon="2.7896561287343502044677734375">
        <ele>167.399993896484375</ele>
        <time>2020-08-08T09:32:57.000Z</time>
      </trkpt>
      <trkpt lat="42.33479258604347705841064453125" lon="2.78963961638510227203369140625">
        <ele>167.600006103515625</ele>
        <time>2020-08-08T09:32:58.000Z</time>
      </trkpt>
      <trkpt lat="42.3347829468548297882080078125" lon="2.789621092379093170166015625">
        <ele>167.8000030517578125</ele>
        <time>2020-08-08T09:32:59.000Z</time>
      </trkpt>
      <trkpt lat="42.33478202484548091888427734375" lon="2.7895820327103137969970703125">
        <ele>168.399993896484375</ele>
        <time>2020-08-08T09:33:01.000Z</time>
      </trkpt>
      <trkpt lat="42.3347873054444789886474609375" lon="2.789566777646541595458984375">
        <ele>168.600006103515625</ele>
        <time>2020-08-08T09:33:02.000Z</time>
      </trkpt>
      <trkpt lat="42.33478973619639873504638671875" lon="2.78954909183084964752197265625">
        <ele>169</ele>
        <time>2020-08-08T09:33:03.000Z</time>
      </trkpt>
      <trkpt lat="42.33476693741977214813232421875" lon="2.78949611820280551910400390625">
        <ele>169.600006103515625</ele>
        <time>2020-08-08T09:33:06.000Z</time>
      </trkpt>
      <trkpt lat="42.33475134707987308502197265625" lon="2.78945789672434329986572265625">
        <ele>170</ele>
        <time>2020-08-08T09:33:08.000Z</time>
      </trkpt>
      <trkpt lat="42.334757633507251739501953125" lon="2.789417915046215057373046875">
        <ele>170.600006103515625</ele>
        <time>2020-08-08T09:33:10.000Z</time>
      </trkpt>
      <trkpt lat="42.33476425521075725555419921875" lon="2.78939855284988880157470703125">
        <ele>170.600006103515625</ele>
        <time>2020-08-08T09:33:11.000Z</time>
      </trkpt>
      <trkpt lat="42.334733493626117706298828125" lon="2.7892967127263545989990234375">
        <ele>171.8000030517578125</ele>
        <time>2020-08-08T09:33:16.000Z</time>
      </trkpt>
      <trkpt lat="42.334741540253162384033203125" lon="2.7891941182315349578857421875">
        <ele>173</ele>
        <time>2020-08-08T09:33:21.000Z</time>
      </trkpt>
      <trkpt lat="42.33472787775099277496337890625" lon="2.78908657841384410858154296875">
        <ele>174</ele>
        <time>2020-08-08T09:33:26.000Z</time>
      </trkpt>
      <trkpt lat="42.33473491854965686798095703125" lon="2.7890670485794544219970703125">
        <ele>174.1999969482421875</ele>
        <time>2020-08-08T09:33:27.000Z</time>
      </trkpt>
      <trkpt lat="42.33474455773830413818359375" lon="2.78900862671434879302978515625">
        <ele>175</ele>
        <time>2020-08-08T09:33:30.000Z</time>
      </trkpt>
      <trkpt lat="42.33473718166351318359375" lon="2.78898951597511768341064453125">
        <ele>175.1999969482421875</ele>
        <time>2020-08-08T09:33:31.000Z</time>
      </trkpt>
      <trkpt lat="42.3347316496074199676513671875" lon="2.78897107578814029693603515625">
        <ele>175.399993896484375</ele>
        <time>2020-08-08T09:33:32.000Z</time>
      </trkpt>
      <trkpt lat="42.334742881357669830322265625" lon="2.788891531527042388916015625">
        <ele>176.1999969482421875</ele>
        <time>2020-08-08T09:33:36.000Z</time>
      </trkpt>
      <trkpt lat="42.3347433842718601226806640625" lon="2.78886973857879638671875">
        <ele>176.399993896484375</ele>
        <time>2020-08-08T09:33:37.000Z</time>
      </trkpt>
      <trkpt lat="42.33474078588187694549560546875" lon="2.788850627839565277099609375">
        <ele>176.600006103515625</ele>
        <time>2020-08-08T09:33:38.000Z</time>
      </trkpt>
      <trkpt lat="42.3347299732267856597900390625" lon="2.78878784738481044769287109375">
        <ele>177</ele>
        <time>2020-08-08T09:33:41.000Z</time>
      </trkpt>
      <trkpt lat="42.33475151471793651580810546875" lon="2.78874761424958705902099609375">
        <ele>177.600006103515625</ele>
        <time>2020-08-08T09:33:43.000Z</time>
      </trkpt>
      <trkpt lat="42.3347519338130950927734375" lon="2.7886737696826457977294921875">
        <ele>178.600006103515625</ele>
        <time>2020-08-08T09:33:47.000Z</time>
      </trkpt>
      <trkpt lat="42.3347437195479869842529296875" lon="2.788654826581478118896484375">
        <ele>178.600006103515625</ele>
        <time>2020-08-08T09:33:48.000Z</time>
      </trkpt>
      <trkpt lat="42.33473382890224456787109375" lon="2.78861719183623790740966796875">
        <ele>179</ele>
        <time>2020-08-08T09:33:50.000Z</time>
      </trkpt>
      <trkpt lat="42.3347514308989048004150390625" lon="2.7885591052472591400146484375">
        <ele>179.600006103515625</ele>
        <time>2020-08-08T09:33:53.000Z</time>
      </trkpt>
      <trkpt lat="42.33474832959473133087158203125" lon="2.7884850092232227325439453125">
        <ele>180.600006103515625</ele>
        <time>2020-08-08T09:33:57.000Z</time>
      </trkpt>
      <trkpt lat="42.33474279753863811492919921875" lon="2.78846581466495990753173828125">
        <ele>180.8000030517578125</ele>
        <time>2020-08-08T09:33:58.000Z</time>
      </trkpt>
      <trkpt lat="42.33474045060575008392333984375" lon="2.788445614278316497802734375">
        <ele>181</ele>
        <time>2020-08-08T09:33:59.000Z</time>
      </trkpt>
      <trkpt lat="42.3347331583499908447265625" lon="2.788363806903362274169921875">
        <ele>181.8000030517578125</ele>
        <time>2020-08-08T09:34:03.000Z</time>
      </trkpt>
      <trkpt lat="42.3347239382565021514892578125" lon="2.788345701992511749267578125">
        <ele>182</ele>
        <time>2020-08-08T09:34:04.000Z</time>
      </trkpt>
      <trkpt lat="42.33468429185450077056884765625" lon="2.7882670797407627105712890625">
        <ele>183</ele>
        <time>2020-08-08T09:34:09.000Z</time>
      </trkpt>
      <trkpt lat="42.3346759937703609466552734375" lon="2.788253836333751678466796875">
        <ele>183.1999969482421875</ele>
        <time>2020-08-08T09:34:10.000Z</time>
      </trkpt>
      <trkpt lat="42.334663756191730499267578125" lon="2.7882459573447704315185546875">
        <ele>183.399993896484375</ele>
        <time>2020-08-08T09:34:11.000Z</time>
      </trkpt>
      <trkpt lat="42.33460281975567340850830078125" lon="2.78824067674577236175537109375">
        <ele>184</ele>
        <time>2020-08-08T09:34:15.000Z</time>
      </trkpt>
      <trkpt lat="42.33454917557537555694580078125" lon="2.78819859959185123443603515625">
        <ele>184.399993896484375</ele>
        <time>2020-08-08T09:34:19.000Z</time>
      </trkpt>
      <trkpt lat="42.33453660272061824798583984375" lon="2.78818686492741107940673828125">
        <ele>184.399993896484375</ele>
        <time>2020-08-08T09:34:20.000Z</time>
      </trkpt>
      <trkpt lat="42.33452319167554378509521484375" lon="2.78817697428166866302490234375">
        <ele>184.600006103515625</ele>
        <time>2020-08-08T09:34:21.000Z</time>
      </trkpt>
      <trkpt lat="42.33444808982312679290771484375" lon="2.78816624544560909271240234375">
        <ele>185.1999969482421875</ele>
        <time>2020-08-08T09:34:26.000Z</time>
      </trkpt>
      <trkpt lat="42.3343933559954166412353515625" lon="2.78812517412006855010986328125">
        <ele>185.600006103515625</ele>
        <time>2020-08-08T09:34:30.000Z</time>
      </trkpt>
      <trkpt lat="42.3343802802264690399169921875" lon="2.78811243362724781036376953125">
        <ele>185.8000030517578125</ele>
        <time>2020-08-08T09:34:31.000Z</time>
      </trkpt>
      <trkpt lat="42.3343665339052677154541015625" lon="2.78810505755245685577392578125">
        <ele>186</ele>
        <time>2020-08-08T09:34:32.000Z</time>
      </trkpt>
      <trkpt lat="42.33430257998406887054443359375" lon="2.78810799121856689453125">
        <ele>186.399993896484375</ele>
        <time>2020-08-08T09:34:36.000Z</time>
      </trkpt>
      <trkpt lat="42.3342763446271419525146484375" lon="2.7880893833935260772705078125">
        <ele>186.600006103515625</ele>
        <time>2020-08-08T09:34:38.000Z</time>
      </trkpt>
      <trkpt lat="42.33423619531095027923583984375" lon="2.78805158101022243499755859375">
        <ele>187.399993896484375</ele>
        <time>2020-08-08T09:34:42.000Z</time>
      </trkpt>
      <trkpt lat="42.3341844789683818817138671875" lon="2.7880447916686534881591796875">
        <ele>188</ele>
        <time>2020-08-08T09:34:45.000Z</time>
      </trkpt>
      <trkpt lat="42.33416696079075336456298828125" lon="2.78801034204661846160888671875">
        <ele>188.1999969482421875</ele>
        <time>2020-08-08T09:34:47.000Z</time>
      </trkpt>
      <trkpt lat="42.3341127298772335052490234375" lon="2.78797983191907405853271484375">
        <ele>189</ele>
        <time>2020-08-08T09:34:51.000Z</time>
      </trkpt>
      <trkpt lat="42.33406637795269489288330078125" lon="2.7879277803003787994384765625">
        <ele>189.600006103515625</ele>
        <time>2020-08-08T09:34:55.000Z</time>
      </trkpt>
      <trkpt lat="42.3340352810919284820556640625" lon="2.78789140284061431884765625">
        <ele>190.1999969482421875</ele>
        <time>2020-08-08T09:34:58.000Z</time>
      </trkpt>
      <trkpt lat="42.33399295248091220855712890625" lon="2.78786365874111652374267578125">
        <ele>190.8000030517578125</ele>
        <time>2020-08-08T09:35:01.000Z</time>
      </trkpt>
      <trkpt lat="42.3339043557643890380859375" lon="2.78779677115380764007568359375">
        <ele>191.399993896484375</ele>
        <time>2020-08-08T09:35:07.000Z</time>
      </trkpt>
      <trkpt lat="42.33387820422649383544921875" lon="2.78777061961591243743896484375">
        <ele>191.600006103515625</ele>
        <time>2020-08-08T09:35:09.000Z</time>
      </trkpt>
      <trkpt lat="42.33378340490162372589111328125" lon="2.78767456300556659698486328125">
        <ele>192.1999969482421875</ele>
        <time>2020-08-08T09:35:16.000Z</time>
      </trkpt>
      <trkpt lat="42.33377032913267612457275390625" lon="2.78766115196049213409423828125">
        <ele>192.399993896484375</ele>
        <time>2020-08-08T09:35:17.000Z</time>
      </trkpt>
      <trkpt lat="42.33370042406022548675537109375" lon="2.78759376145899295806884765625">
        <ele>193.1999969482421875</ele>
        <time>2020-08-08T09:35:22.000Z</time>
      </trkpt>
      <trkpt lat="42.33368064276874065399169921875" lon="2.7875728905200958251953125">
        <ele>193.399993896484375</ele>
        <time>2020-08-08T09:35:24.000Z</time>
      </trkpt>
      <trkpt lat="42.33367376960813999176025390625" lon="2.78756844811141490936279296875">
        <ele>193.399993896484375</ele>
        <time>2020-08-08T09:35:27.000Z</time>
      </trkpt>
      <trkpt lat="42.333673350512981414794921875" lon="2.78756794519722461700439453125">
        <ele>193.399993896484375</ele>
        <time>2020-08-08T09:35:44.000Z</time>
      </trkpt>
      <trkpt lat="42.3336728475987911224365234375" lon="2.787573225796222686767578125">
        <ele>193.399993896484375</ele>
        <time>2020-08-08T09:36:11.000Z</time>
      </trkpt>
      <trkpt lat="42.33367091976106166839599609375" lon="2.787577249109745025634765625">
        <ele>193.600006103515625</ele>
        <time>2020-08-08T09:36:40.000Z</time>
      </trkpt>
      <trkpt lat="42.3336728475987911224365234375" lon="2.78758051805198192596435546875">
        <ele>193.600006103515625</ele>
        <time>2020-08-08T09:37:05.000Z</time>
      </trkpt>
      <trkpt lat="42.33367125503718852996826171875" lon="2.7875774167478084564208984375">
        <ele>193.399993896484375</ele>
        <time>2020-08-08T09:37:17.000Z</time>
      </trkpt>
      <trkpt lat="42.33364946208894252777099609375" lon="2.7875328250229358673095703125">
        <ele>193.600006103515625</ele>
        <time>2020-08-08T09:37:23.000Z</time>
      </trkpt>
      <trkpt lat="42.33364191837608814239501953125" lon="2.787517569959163665771484375">
        <ele>193.600006103515625</ele>
        <time>2020-08-08T09:37:24.000Z</time>
      </trkpt>
      <trkpt lat="42.3336010985076427459716796875" lon="2.78745579533278942108154296875">
        <ele>194.1999969482421875</ele>
        <time>2020-08-08T09:37:28.000Z</time>
      </trkpt>
      <trkpt lat="42.33358928002417087554931640625" lon="2.787441797554492950439453125">
        <ele>194.1999969482421875</ele>
        <time>2020-08-08T09:37:29.000Z</time>
      </trkpt>
      <trkpt lat="42.3335243202745914459228515625" lon="2.7873169071972370147705078125">
        <ele>195</ele>
        <time>2020-08-08T09:37:36.000Z</time>
      </trkpt>
      <trkpt lat="42.3335087299346923828125" lon="2.78727893717586994171142578125">
        <ele>195.1999969482421875</ele>
        <time>2020-08-08T09:37:38.000Z</time>
      </trkpt>
      <trkpt lat="42.33345801942050457000732421875" lon="2.78718640096485614776611328125">
        <ele>196</ele>
        <time>2020-08-08T09:37:43.000Z</time>
      </trkpt>
      <trkpt lat="42.33344611711800098419189453125" lon="2.78717231936752796173095703125">
        <ele>196.1999969482421875</ele>
        <time>2020-08-08T09:37:44.000Z</time>
      </trkpt>
      <trkpt lat="42.33342415653169155120849609375" lon="2.78714382089674472808837890625">
        <ele>196.600006103515625</ele>
        <time>2020-08-08T09:37:46.000Z</time>
      </trkpt>
      <trkpt lat="42.3334022797644138336181640625" lon="2.78707467019557952880859375">
        <ele>197</ele>
        <time>2020-08-08T09:37:50.000Z</time>
      </trkpt>
      <trkpt lat="42.3333643935620784759521484375" lon="2.78700283728539943695068359375">
        <ele>197.600006103515625</ele>
        <time>2020-08-08T09:37:54.000Z</time>
      </trkpt>
      <trkpt lat="42.33331628143787384033203125" lon="2.78692421503365039825439453125">
        <ele>198.600006103515625</ele>
        <time>2020-08-08T09:37:59.000Z</time>
      </trkpt>
      <trkpt lat="42.33330446295440196990966796875" lon="2.78691080398857593536376953125">
        <ele>198.600006103515625</ele>
        <time>2020-08-08T09:38:00.000Z</time>
      </trkpt>
      <trkpt lat="42.33326808549463748931884765625" lon="2.78681810013949871063232421875">
        <ele>199.600006103515625</ele>
        <time>2020-08-08T09:38:05.000Z</time>
      </trkpt>
      <trkpt lat="42.33324226923286914825439453125" lon="2.78679094277322292327880859375">
        <ele>199.8000030517578125</ele>
        <time>2020-08-08T09:38:07.000Z</time>
      </trkpt>
      <trkpt lat="42.3331732861697673797607421875" lon="2.78672975488007068634033203125">
        <ele>200.8000030517578125</ele>
        <time>2020-08-08T09:38:12.000Z</time>
      </trkpt>
      <trkpt lat="42.3331317119300365447998046875" lon="2.78669237159192562103271484375">
        <ele>201</ele>
        <time>2020-08-08T09:38:15.000Z</time>
      </trkpt>
      <trkpt lat="42.3330861143767833709716796875" lon="2.7866631187498569488525390625">
        <ele>201.399993896484375</ele>
        <time>2020-08-08T09:38:18.000Z</time>
      </trkpt>
      <trkpt lat="42.33300640247762203216552734375" lon="2.78661525808274745941162109375">
        <ele>202.1999969482421875</ele>
        <time>2020-08-08T09:38:23.000Z</time>
      </trkpt>
      <trkpt lat="42.3329349048435688018798828125" lon="2.78659782372415065765380859375">
        <ele>202.399993896484375</ele>
        <time>2020-08-08T09:38:27.000Z</time>
      </trkpt>
      <trkpt lat="42.3328054882586002349853515625" lon="2.78657636605203151702880859375">
        <ele>203.1999969482421875</ele>
        <time>2020-08-08T09:38:35.000Z</time>
      </trkpt>
      <trkpt lat="42.3327947594225406646728515625" lon="2.78658248484134674072265625">
        <ele>203.1999969482421875</ele>
        <time>2020-08-08T09:38:36.000Z</time>
      </trkpt>
      <trkpt lat="42.3327676020562648773193359375" lon="2.7865994162857532501220703125">
        <ele>203.1999969482421875</ele>
        <time>2020-08-08T09:38:39.000Z</time>
      </trkpt>
      <trkpt lat="42.3327327333390712738037109375" lon="2.78660352341830730438232421875">
        <ele>203.1999969482421875</ele>
        <time>2020-08-08T09:38:43.000Z</time>
      </trkpt>
      <trkpt lat="42.3327032290399074554443359375" lon="2.78660972602665424346923828125">
        <ele>203.600006103515625</ele>
        <time>2020-08-08T09:38:46.000Z</time>
      </trkpt>
      <trkpt lat="42.33265939168632030487060546875" lon="2.786621041595935821533203125">
        <ele>203.8000030517578125</ele>
        <time>2020-08-08T09:38:49.000Z</time>
      </trkpt>
      <trkpt lat="42.33254640363156795501708984375" lon="2.78664425946772098541259765625">
        <ele>204.1999969482421875</ele>
        <time>2020-08-08T09:38:56.000Z</time>
      </trkpt>
      <trkpt lat="42.33247834257781505584716796875" lon="2.78666219674050807952880859375">
        <ele>204.399993896484375</ele>
        <time>2020-08-08T09:39:00.000Z</time>
      </trkpt>
      <trkpt lat="42.33238865621387958526611328125" lon="2.7866976521909236907958984375">
        <ele>204.600006103515625</ele>
        <time>2020-08-08T09:39:05.000Z</time>
      </trkpt>
      <trkpt lat="42.33225680887699127197265625" lon="2.7866731770336627960205078125">
        <ele>204.8000030517578125</ele>
        <time>2020-08-08T09:39:12.000Z</time>
      </trkpt>
      <trkpt lat="42.33217039145529270172119140625" lon="2.786647193133831024169921875">
        <ele>205.600006103515625</ele>
        <time>2020-08-08T09:39:17.000Z</time>
      </trkpt>
      <trkpt lat="42.3321057669818401336669921875" lon="2.78661693446338176727294921875">
        <ele>206</ele>
        <time>2020-08-08T09:39:21.000Z</time>
      </trkpt>
      <trkpt lat="42.332065366208553314208984375" lon="2.78658860363066196441650390625">
        <ele>206.600006103515625</ele>
        <time>2020-08-08T09:39:24.000Z</time>
      </trkpt>
      <trkpt lat="42.3320058546960353851318359375" lon="2.7865665592253208160400390625">
        <ele>207.1999969482421875</ele>
        <time>2020-08-08T09:39:28.000Z</time>
      </trkpt>
      <trkpt lat="42.33196444809436798095703125" lon="2.78655222617089748382568359375">
        <ele>207.600006103515625</ele>
        <time>2020-08-08T09:39:31.000Z</time>
      </trkpt>
      <trkpt lat="42.33194961212575435638427734375" lon="2.7865534834563732147216796875">
        <ele>207.8000030517578125</ele>
        <time>2020-08-08T09:39:32.000Z</time>
      </trkpt>
      <trkpt lat="42.331902422010898590087890625" lon="2.7865497954189777374267578125">
        <ele>208.1999969482421875</ele>
        <time>2020-08-08T09:39:35.000Z</time>
      </trkpt>
      <trkpt lat="42.331840731203556060791015625" lon="2.7865544892847537994384765625">
        <ele>209</ele>
        <time>2020-08-08T09:39:39.000Z</time>
      </trkpt>
      <trkpt lat="42.3317795433104038238525390625" lon="2.7865487895905971527099609375">
        <ele>209.399993896484375</ele>
        <time>2020-08-08T09:39:43.000Z</time>
      </trkpt>
      <trkpt lat="42.331720702350139617919921875" lon="2.7865348756313323974609375">
        <ele>210.1999969482421875</ele>
        <time>2020-08-08T09:39:47.000Z</time>
      </trkpt>
      <trkpt lat="42.3316578380763530731201171875" lon="2.78651903383433818817138671875">
        <ele>210.600006103515625</ele>
        <time>2020-08-08T09:39:51.000Z</time>
      </trkpt>
      <trkpt lat="42.33158784918487071990966796875" lon="2.78646991588175296783447265625">
        <ele>211.1999969482421875</ele>
        <time>2020-08-08T09:39:56.000Z</time>
      </trkpt>
      <trkpt lat="42.33157192356884479522705078125" lon="2.7864639647305011749267578125">
        <ele>211.1999969482421875</ele>
        <time>2020-08-08T09:39:57.000Z</time>
      </trkpt>
      <trkpt lat="42.33155650086700916290283203125" lon="2.78645985759794712066650390625">
        <ele>211.399993896484375</ele>
        <time>2020-08-08T09:39:58.000Z</time>
      </trkpt>
      <trkpt lat="42.33147050254046916961669921875" lon="2.7864086441695690155029296875">
        <ele>212</ele>
        <time>2020-08-08T09:40:04.000Z</time>
      </trkpt>
      <trkpt lat="42.33145440928637981414794921875" lon="2.786406464874744415283203125">
        <ele>212.1999969482421875</ele>
        <time>2020-08-08T09:40:05.000Z</time>
      </trkpt>
      <trkpt lat="42.3313084803521633148193359375" lon="2.786379642784595489501953125">
        <ele>213</ele>
        <time>2020-08-08T09:40:14.000Z</time>
      </trkpt>
      <trkpt lat="42.3312766291201114654541015625" lon="2.7863875217735767364501953125">
        <ele>213.1999969482421875</ele>
        <time>2020-08-08T09:40:16.000Z</time>
      </trkpt>
      <trkpt lat="42.33116372488439083099365234375" lon="2.786383666098117828369140625">
        <ele>214</ele>
        <time>2020-08-08T09:40:23.000Z</time>
      </trkpt>
      <trkpt lat="42.33113137073814868927001953125" lon="2.7863777987658977508544921875">
        <ele>214.1999969482421875</ele>
        <time>2020-08-08T09:40:25.000Z</time>
      </trkpt>
      <trkpt lat="42.33105811290442943572998046875" lon="2.7863523177802562713623046875">
        <ele>214.8000030517578125</ele>
        <time>2020-08-08T09:40:30.000Z</time>
      </trkpt>
      <trkpt lat="42.3310020379722118377685546875" lon="2.78631954453885555267333984375">
        <ele>215.399993896484375</ele>
        <time>2020-08-08T09:40:34.000Z</time>
      </trkpt>
      <trkpt lat="42.33095602132380008697509765625" lon="2.78630747459828853607177734375">
        <ele>216</ele>
        <time>2020-08-08T09:40:37.000Z</time>
      </trkpt>
      <trkpt lat="42.33088091947138309478759765625" lon="2.7862731926143169403076171875">
        <ele>216.399993896484375</ele>
        <time>2020-08-08T09:40:42.000Z</time>
      </trkpt>
      <trkpt lat="42.33082325197756290435791015625" lon="2.78624762780964374542236328125">
        <ele>217</ele>
        <time>2020-08-08T09:40:46.000Z</time>
      </trkpt>
      <trkpt lat="42.33076575212180614471435546875" lon="2.786221392452716827392578125">
        <ele>217.600006103515625</ele>
        <time>2020-08-08T09:40:50.000Z</time>
      </trkpt>
      <trkpt lat="42.33073239214718341827392578125" lon="2.78617386706173419952392578125">
        <ele>218</ele>
        <time>2020-08-08T09:40:53.000Z</time>
      </trkpt>
      <trkpt lat="42.330721579492092132568359375" lon="2.78615928255021572113037109375">
        <ele>218.1999969482421875</ele>
        <time>2020-08-08T09:40:54.000Z</time>
      </trkpt>
      <trkpt lat="42.33069450594484806060791015625" lon="2.78614587150514125823974609375">
        <ele>218.600006103515625</ele>
        <time>2020-08-08T09:40:56.000Z</time>
      </trkpt>
      <trkpt lat="42.33066516928374767303466796875" lon="2.7861384116113185882568359375">
        <ele>218.8000030517578125</ele>
        <time>2020-08-08T09:40:58.000Z</time>
      </trkpt>
      <trkpt lat="42.33060196973383426666259765625" lon="2.78611519373953342437744140625">
        <ele>219.1999969482421875</ele>
        <time>2020-08-08T09:41:02.000Z</time>
      </trkpt>
      <trkpt lat="42.3305614851415157318115234375" lon="2.7860817499458789825439453125">
        <ele>219.600006103515625</ele>
        <time>2020-08-08T09:41:05.000Z</time>
      </trkpt>
      <trkpt lat="42.330452017486095428466796875" lon="2.7859996072947978973388671875">
        <ele>220.399993896484375</ele>
        <time>2020-08-08T09:41:13.000Z</time>
      </trkpt>
      <trkpt lat="42.330421507358551025390625" lon="2.78598560951650142669677734375">
        <ele>220.600006103515625</ele>
        <time>2020-08-08T09:41:15.000Z</time>
      </trkpt>
      <trkpt lat="42.33036157675087451934814453125" lon="2.78595157898962497711181640625">
        <ele>221.1999969482421875</ele>
        <time>2020-08-08T09:41:19.000Z</time>
      </trkpt>
      <trkpt lat="42.3302647657692432403564453125" lon="2.78589449822902679443359375">
        <ele>221.8000030517578125</ele>
        <time>2020-08-08T09:41:26.000Z</time>
      </trkpt>
      <trkpt lat="42.33024322427809238433837890625" lon="2.7858711965382099151611328125">
        <ele>221.8000030517578125</ele>
        <time>2020-08-08T09:41:28.000Z</time>
      </trkpt>
      <trkpt lat="42.3301822878420352935791015625" lon="2.7858551032841205596923828125">
        <ele>222.399993896484375</ele>
        <time>2020-08-08T09:41:32.000Z</time>
      </trkpt>
      <trkpt lat="42.330169044435024261474609375" lon="2.78584814630448818206787109375">
        <ele>222.399993896484375</ele>
        <time>2020-08-08T09:41:33.000Z</time>
      </trkpt>
      <trkpt lat="42.33014716766774654388427734375" lon="2.78583012521266937255859375">
        <ele>222.8000030517578125</ele>
        <time>2020-08-08T09:41:35.000Z</time>
      </trkpt>
      <trkpt lat="42.3300837166607379913330078125" lon="2.78578184545040130615234375">
        <ele>223.8000030517578125</ele>
        <time>2020-08-08T09:41:40.000Z</time>
      </trkpt>
      <trkpt lat="42.33007013797760009765625" lon="2.78576918877661228179931640625">
        <ele>223.8000030517578125</ele>
        <time>2020-08-08T09:41:41.000Z</time>
      </trkpt>
      <trkpt lat="42.33002378605306148529052734375" lon="2.78571344912052154541015625">
        <ele>224.399993896484375</ele>
        <time>2020-08-08T09:41:45.000Z</time>
      </trkpt>
      <trkpt lat="42.3300097882747650146484375" lon="2.785709761083126068115234375">
        <ele>224.600006103515625</ele>
        <time>2020-08-08T09:41:46.000Z</time>
      </trkpt>
      <trkpt lat="42.32997533865272998809814453125" lon="2.78570682741701602935791015625">
        <ele>224.8000030517578125</ele>
        <time>2020-08-08T09:41:48.000Z</time>
      </trkpt>
      <trkpt lat="42.32991700060665607452392578125" lon="2.785660810768604278564453125">
        <ele>225.399993896484375</ele>
        <time>2020-08-08T09:41:52.000Z</time>
      </trkpt>
      <trkpt lat="42.329854555428028106689453125" lon="2.78563625179231166839599609375">
        <ele>226</ele>
        <time>2020-08-08T09:41:56.000Z</time>
      </trkpt>
      <trkpt lat="42.32983703725039958953857421875" lon="2.7856324799358844757080078125">
        <ele>226</ele>
        <time>2020-08-08T09:41:57.000Z</time>
      </trkpt>
      <trkpt lat="42.32976503670215606689453125" lon="2.78557674027979373931884765625">
        <ele>226.8000030517578125</ele>
        <time>2020-08-08T09:42:02.000Z</time>
      </trkpt>
      <trkpt lat="42.32974818907678127288818359375" lon="2.78557657264173030853271484375">
        <ele>227</ele>
        <time>2020-08-08T09:42:03.000Z</time>
      </trkpt>
      <trkpt lat="42.32966772280633449554443359375" lon="2.78552644886076450347900390625">
        <ele>227.600006103515625</ele>
        <time>2020-08-08T09:42:08.000Z</time>
      </trkpt>
      <trkpt lat="42.3296525515615940093994140625" lon="2.78551764786243438720703125">
        <ele>227.8000030517578125</ele>
        <time>2020-08-08T09:42:09.000Z</time>
      </trkpt>
      <trkpt lat="42.32961692847311496734619140625" lon="2.78551219962537288665771484375">
        <ele>228</ele>
        <time>2020-08-08T09:42:11.000Z</time>
      </trkpt>
      <trkpt lat="42.32958507724106311798095703125" lon="2.78549015522003173828125">
        <ele>228.399993896484375</ele>
        <time>2020-08-08T09:42:13.000Z</time>
      </trkpt>
      <trkpt lat="42.3295412398874759674072265625" lon="2.78545302338898181915283203125">
        <ele>229.1999969482421875</ele>
        <time>2020-08-08T09:42:16.000Z</time>
      </trkpt>
      <trkpt lat="42.329477705061435699462890625" lon="2.785423435270786285400390625">
        <ele>229.8000030517578125</ele>
        <time>2020-08-08T09:42:20.000Z</time>
      </trkpt>
      <trkpt lat="42.329444848001003265380859375" lon="2.78540759347379207611083984375">
        <ele>230</ele>
        <time>2020-08-08T09:42:22.000Z</time>
      </trkpt>
      <trkpt lat="42.329430766403675079345703125" lon="2.7853937633335590362548828125">
        <ele>230.1999969482421875</ele>
        <time>2020-08-08T09:42:23.000Z</time>
      </trkpt>
      <trkpt lat="42.3293863423168659210205078125" lon="2.785369120538234710693359375">
        <ele>230.600006103515625</ele>
        <time>2020-08-08T09:42:26.000Z</time>
      </trkpt>
      <trkpt lat="42.32933722436428070068359375" lon="2.78537624515593051910400390625">
        <ele>231.1999969482421875</ele>
        <time>2020-08-08T09:42:29.000Z</time>
      </trkpt>
      <trkpt lat="42.3292867653071880340576171875" lon="2.78539435006678104400634765625">
        <ele>231.399993896484375</ele>
        <time>2020-08-08T09:42:32.000Z</time>
      </trkpt>
      <trkpt lat="42.32917067594826221466064453125" lon="2.7854826115071773529052734375">
        <ele>231.8000030517578125</ele>
        <time>2020-08-08T09:42:40.000Z</time>
      </trkpt>
      <trkpt lat="42.32911736704409122467041015625" lon="2.78551421128213405609130859375">
        <ele>231.600006103515625</ele>
        <time>2020-08-08T09:42:45.000Z</time>
      </trkpt>
      <trkpt lat="42.32907327823340892791748046875" lon="2.78552971780300140380859375">
        <ele>231.399993896484375</ele>
        <time>2020-08-08T09:42:57.000Z</time>
      </trkpt>
      <trkpt lat="42.3289551772177219390869140625" lon="2.78549040667712688446044921875">
        <ele>230.600006103515625</ele>
        <time>2020-08-08T09:43:01.000Z</time>
      </trkpt>
      <trkpt lat="42.32892408035695552825927734375" lon="2.7854531072080135345458984375">
        <ele>230</ele>
        <time>2020-08-08T09:43:02.000Z</time>
      </trkpt>
      <trkpt lat="42.32883523218333721160888671875" lon="2.78532813303172588348388671875">
        <ele>229.399993896484375</ele>
        <time>2020-08-08T09:43:05.000Z</time>
      </trkpt>
      <trkpt lat="42.328762896358966827392578125" lon="2.785263843834400177001953125">
        <ele>229</ele>
        <time>2020-08-08T09:43:07.000Z</time>
      </trkpt>
      <trkpt lat="42.3286614753305912017822265625" lon="2.78524942696094512939453125">
        <ele>228.1999969482421875</ele>
        <time>2020-08-08T09:43:09.000Z</time>
      </trkpt>
      <trkpt lat="42.32860204763710498809814453125" lon="2.78526543639600276947021484375">
        <ele>227.8000030517578125</ele>
        <time>2020-08-08T09:43:10.000Z</time>
      </trkpt>
      <trkpt lat="42.32848419807851314544677734375" lon="2.78533081524074077606201171875">
        <ele>226.1999969482421875</ele>
        <time>2020-08-08T09:43:12.000Z</time>
      </trkpt>
      <trkpt lat="42.32842552475631237030029296875" lon="2.78537775389850139617919921875">
        <ele>225.600006103515625</ele>
        <time>2020-08-08T09:43:13.000Z</time>
      </trkpt>
      <trkpt lat="42.3283640854060649871826171875" lon="2.7854336611926555633544921875">
        <ele>224.8000030517578125</ele>
        <time>2020-08-08T09:43:14.000Z</time>
      </trkpt>
      <trkpt lat="42.32829962857067584991455078125" lon="2.78549082577228546142578125">
        <ele>223.600006103515625</ele>
        <time>2020-08-08T09:43:15.000Z</time>
      </trkpt>
      <trkpt lat="42.328160740435123443603515625" lon="2.78559249825775623321533203125">
        <ele>221.399993896484375</ele>
        <time>2020-08-08T09:43:17.000Z</time>
      </trkpt>
      <trkpt lat="42.32808773405849933624267578125" lon="2.7856395207345485687255859375">
        <ele>219.600006103515625</ele>
        <time>2020-08-08T09:43:18.000Z</time>
      </trkpt>
      <trkpt lat="42.32794591225683689117431640625" lon="2.78572007082402706146240234375">
        <ele>218.1999969482421875</ele>
        <time>2020-08-08T09:43:20.000Z</time>
      </trkpt>
      <trkpt lat="42.3278792761266231536865234375" lon="2.7857461385428905487060546875">
        <ele>217.600006103515625</ele>
        <time>2020-08-08T09:43:21.000Z</time>
      </trkpt>
      <trkpt lat="42.3278145678341388702392578125" lon="2.785753346979618072509765625">
        <ele>217.1999969482421875</ele>
        <time>2020-08-08T09:43:22.000Z</time>
      </trkpt>
      <trkpt lat="42.327751033008098602294921875" lon="2.785738594830036163330078125">
        <ele>216.600006103515625</ele>
        <time>2020-08-08T09:43:23.000Z</time>
      </trkpt>
      <trkpt lat="42.32764449901878833770751953125" lon="2.7856422029435634613037109375">
        <ele>215</ele>
        <time>2020-08-08T09:43:25.000Z</time>
      </trkpt>
      <trkpt lat="42.3275698162615299224853515625" lon="2.78550767339766025543212890625">
        <ele>214</ele>
        <time>2020-08-08T09:43:27.000Z</time>
      </trkpt>
      <trkpt lat="42.32754944823682308197021484375" lon="2.78543047606945037841796875">
        <ele>213.8000030517578125</ele>
        <time>2020-08-08T09:43:28.000Z</time>
      </trkpt>
      <trkpt lat="42.32757274992763996124267578125" lon="2.78517340309917926788330078125">
        <ele>212.399993896484375</ele>
        <time>2020-08-08T09:43:31.000Z</time>
      </trkpt>
      <trkpt lat="42.32759403996169567108154296875" lon="2.78507701121270656585693359375">
        <ele>212</ele>
        <time>2020-08-08T09:43:32.000Z</time>
      </trkpt>
      <trkpt lat="42.32763125561177730560302734375" lon="2.7848767675459384918212890625">
        <ele>211</ele>
        <time>2020-08-08T09:43:34.000Z</time>
      </trkpt>
      <trkpt lat="42.3276395536959171295166015625" lon="2.784790433943271636962890625">
        <ele>210.399993896484375</ele>
        <time>2020-08-08T09:43:35.000Z</time>
      </trkpt>
      <trkpt lat="42.3276382125914096832275390625" lon="2.784712649881839752197265625">
        <ele>209.8000030517578125</ele>
        <time>2020-08-08T09:43:36.000Z</time>
      </trkpt>
      <trkpt lat="42.32760342769324779510498046875" lon="2.784614078700542449951171875">
        <ele>209.1999969482421875</ele>
        <time>2020-08-08T09:43:38.000Z</time>
      </trkpt>
      <trkpt lat="42.3275667987763881683349609375" lon="2.78459454886615276336669921875">
        <ele>208.8000030517578125</ele>
        <time>2020-08-08T09:43:39.000Z</time>
      </trkpt>
      <trkpt lat="42.32747535221278667449951171875" lon="2.78461634181439876556396484375">
        <ele>208.1999969482421875</ele>
        <time>2020-08-08T09:43:41.000Z</time>
      </trkpt>
      <trkpt lat="42.3274268209934234619140625" lon="2.7846424095332622528076171875">
        <ele>207.8000030517578125</ele>
        <time>2020-08-08T09:43:42.000Z</time>
      </trkpt>
      <trkpt lat="42.327208220958709716796875" lon="2.78479345142841339111328125">
        <ele>206.8000030517578125</ele>
        <time>2020-08-08T09:43:46.000Z</time>
      </trkpt>
      <trkpt lat="42.32714560814201831817626953125" lon="2.784836702048778533935546875">
        <ele>206.1999969482421875</ele>
        <time>2020-08-08T09:43:47.000Z</time>
      </trkpt>
      <trkpt lat="42.326965816318988800048828125" lon="2.78499285690486431121826171875">
        <ele>204.8000030517578125</ele>
        <time>2020-08-08T09:43:50.000Z</time>
      </trkpt>
      <trkpt lat="42.32691745273768901824951171875" lon="2.78505890630185604095458984375">
        <ele>204</ele>
        <time>2020-08-08T09:43:51.000Z</time>
      </trkpt>
      <trkpt lat="42.32687705196440219879150390625" lon="2.7851362712681293487548828125">
        <ele>203.399993896484375</ele>
        <time>2020-08-08T09:43:52.000Z</time>
      </trkpt>
      <trkpt lat="42.3268260061740875244140625" lon="2.7853206731379032135009765625">
        <ele>202.600006103515625</ele>
        <time>2020-08-08T09:43:54.000Z</time>
      </trkpt>
      <trkpt lat="42.3268134333193302154541015625" lon="2.78542318381369113922119140625">
        <ele>201.8000030517578125</ele>
        <time>2020-08-08T09:43:55.000Z</time>
      </trkpt>
      <trkpt lat="42.32680714689195156097412109375" lon="2.78564748354256153106689453125">
        <ele>200.8000030517578125</ele>
        <time>2020-08-08T09:43:57.000Z</time>
      </trkpt>
      <trkpt lat="42.32681552879512310028076171875" lon="2.785762734711170196533203125">
        <ele>200</ele>
        <time>2020-08-08T09:43:58.000Z</time>
      </trkpt>
      <trkpt lat="42.32683195732533931732177734375" lon="2.785876058042049407958984375">
        <ele>199.399993896484375</ele>
        <time>2020-08-08T09:43:59.000Z</time>
      </trkpt>
      <trkpt lat="42.3268533311784267425537109375" lon="2.7859902195632457733154296875">
        <ele>198.600006103515625</ele>
        <time>2020-08-08T09:44:00.000Z</time>
      </trkpt>
      <trkpt lat="42.3268768005073070526123046875" lon="2.7861072309315204620361328125">
        <ele>198</ele>
        <time>2020-08-08T09:44:01.000Z</time>
      </trkpt>
      <trkpt lat="42.3269183747470378875732421875" lon="2.7863337099552154541015625">
        <ele>196.600006103515625</ele>
        <time>2020-08-08T09:44:03.000Z</time>
      </trkpt>
      <trkpt lat="42.326932959258556365966796875" lon="2.78650059364736080169677734375">
        <ele>195.399993896484375</ele>
        <time>2020-08-08T09:44:05.000Z</time>
      </trkpt>
      <trkpt lat="42.326936312019824981689453125" lon="2.78657401911914348602294921875">
        <ele>194.8000030517578125</ele>
        <time>2020-08-08T09:44:06.000Z</time>
      </trkpt>
      <trkpt lat="42.326934970915317535400390625" lon="2.78665146790444850921630859375">
        <ele>194.1999969482421875</ele>
        <time>2020-08-08T09:44:07.000Z</time>
      </trkpt>
      <trkpt lat="42.3269264213740825653076171875" lon="2.78683486394584178924560546875">
        <ele>193</ele>
        <time>2020-08-08T09:44:09.000Z</time>
      </trkpt>
      <trkpt lat="42.32691586017608642578125" lon="2.7869331836700439453125">
        <ele>192.399993896484375</ele>
        <time>2020-08-08T09:44:10.000Z</time>
      </trkpt>
      <trkpt lat="42.32690169475972652435302734375" lon="2.78703284449875354766845703125">
        <ele>191.8000030517578125</ele>
        <time>2020-08-08T09:44:11.000Z</time>
      </trkpt>
      <trkpt lat="42.32688928954303264617919921875" lon="2.78713409788906574249267578125">
        <ele>190.8000030517578125</ele>
        <time>2020-08-08T09:44:12.000Z</time>
      </trkpt>
      <trkpt lat="42.32687973417341709136962890625" lon="2.7872337587177753448486328125">
        <ele>189.600006103515625</ele>
        <time>2020-08-08T09:44:13.000Z</time>
      </trkpt>
      <trkpt lat="42.32687302865087985992431640625" lon="2.78733241371810436248779296875">
        <ele>188.600006103515625</ele>
        <time>2020-08-08T09:44:14.000Z</time>
      </trkpt>
      <trkpt lat="42.3268474638462066650390625" lon="2.78750625438988208770751953125">
        <ele>187.1999969482421875</ele>
        <time>2020-08-08T09:44:16.000Z</time>
      </trkpt>
      <trkpt lat="42.3267195560038089752197265625" lon="2.78769560158252716064453125">
        <ele>185.600006103515625</ele>
        <time>2020-08-08T09:44:19.000Z</time>
      </trkpt>
      <trkpt lat="42.326577566564083099365234375" lon="2.787791155278682708740234375">
        <ele>183.8000030517578125</ele>
        <time>2020-08-08T09:44:21.000Z</time>
      </trkpt>
      <trkpt lat="42.32641361653804779052734375" lon="2.78789852745831012725830078125">
        <ele>182.399993896484375</ele>
        <time>2020-08-08T09:44:23.000Z</time>
      </trkpt>
      <trkpt lat="42.3262488283216953277587890625" lon="2.78800497762858867645263671875">
        <ele>181.1999969482421875</ele>
        <time>2020-08-08T09:44:25.000Z</time>
      </trkpt>
      <trkpt lat="42.32608429156243801116943359375" lon="2.78809935785830020904541015625">
        <ele>179.600006103515625</ele>
        <time>2020-08-08T09:44:27.000Z</time>
      </trkpt>
      <trkpt lat="42.3259199224412441253662109375" lon="2.7881936542689800262451171875">
        <ele>179</ele>
        <time>2020-08-08T09:44:29.000Z</time>
      </trkpt>
      <trkpt lat="42.325760163366794586181640625" lon="2.78829641640186309814453125">
        <ele>178.399993896484375</ele>
        <time>2020-08-08T09:44:31.000Z</time>
      </trkpt>
      <trkpt lat="42.32552572153508663177490234375" lon="2.78841367922723293304443359375">
        <ele>177.8000030517578125</ele>
        <time>2020-08-08T09:44:34.000Z</time>
      </trkpt>
      <trkpt lat="42.32544760219752788543701171875" lon="2.7884333766996860504150390625">
        <ele>177.600006103515625</ele>
        <time>2020-08-08T09:44:35.000Z</time>
      </trkpt>
      <trkpt lat="42.32529245316982269287109375" lon="2.788432873785495758056640625">
        <ele>177.1999969482421875</ele>
        <time>2020-08-08T09:44:37.000Z</time>
      </trkpt>
      <trkpt lat="42.32521709986031055450439453125" lon="2.7884139306843280792236328125">
        <ele>177</ele>
        <time>2020-08-08T09:44:38.000Z</time>
      </trkpt>
      <trkpt lat="42.3249315284192562103271484375" lon="2.788286693394184112548828125">
        <ele>176</ele>
        <time>2020-08-08T09:44:42.000Z</time>
      </trkpt>
      <trkpt lat="42.3246284388005733489990234375" lon="2.78818300925195217132568359375">
        <ele>174.8000030517578125</ele>
        <time>2020-08-08T09:44:46.000Z</time>
      </trkpt>
      <trkpt lat="42.324454598128795623779296875" lon="2.78814629651606082916259765625">
        <ele>174</ele>
        <time>2020-08-08T09:44:48.000Z</time>
      </trkpt>
      <trkpt lat="42.3243602178990840911865234375" lon="2.7881393395364284515380859375">
        <ele>173.399993896484375</ele>
        <time>2020-08-08T09:44:49.000Z</time>
      </trkpt>
      <trkpt lat="42.324164249002933502197265625" lon="2.78813540004193782806396484375">
        <ele>171.8000030517578125</ele>
        <time>2020-08-08T09:44:51.000Z</time>
      </trkpt>
      <trkpt lat="42.32397205196321010589599609375" lon="2.78814218938350677490234375">
        <ele>170.1999969482421875</ele>
        <time>2020-08-08T09:44:53.000Z</time>
      </trkpt>
      <trkpt lat="42.32382528483867645263671875" lon="2.7881495654582977294921875">
        <ele>168.399993896484375</ele>
        <time>2020-08-08T09:44:55.000Z</time>
      </trkpt>
      <trkpt lat="42.32377298176288604736328125" lon="2.788159959018230438232421875">
        <ele>168</ele>
        <time>2020-08-08T09:44:56.000Z</time>
      </trkpt>
      <trkpt lat="42.323714308440685272216796875" lon="2.78823263011872768402099609375">
        <ele>167.1999969482421875</ele>
        <time>2020-08-08T09:44:58.000Z</time>
      </trkpt>
      <trkpt lat="42.323704250156879425048828125" lon="2.78828845359385013580322265625">
        <ele>167</ele>
        <time>2020-08-08T09:44:59.000Z</time>
      </trkpt>
      <trkpt lat="42.3237315751612186431884765625" lon="2.7885668165981769561767578125">
        <ele>166.1999969482421875</ele>
        <time>2020-08-08T09:45:03.000Z</time>
      </trkpt>
      <trkpt lat="42.323694191873073577880859375" lon="2.7886878512799739837646484375">
        <ele>165.8000030517578125</ele>
        <time>2020-08-08T09:45:05.000Z</time>
      </trkpt>
      <trkpt lat="42.323572821915149688720703125" lon="2.7887235581874847412109375">
        <ele>165.1999969482421875</ele>
        <time>2020-08-08T09:45:08.000Z</time>
      </trkpt>
      <trkpt lat="42.32353267259895801544189453125" lon="2.7887150086462497711181640625">
        <ele>165.1999969482421875</ele>
        <time>2020-08-08T09:45:09.000Z</time>
      </trkpt>
      <trkpt lat="42.3233632743358612060546875" lon="2.78871953487396240234375">
        <ele>165.600006103515625</ele>
        <time>2020-08-08T09:45:14.000Z</time>
      </trkpt>
      <trkpt lat="42.32324726879596710205078125" lon="2.78874493204057216644287109375">
        <ele>166</ele>
        <time>2020-08-08T09:45:20.000Z</time>
      </trkpt>
      <trkpt lat="42.32322170399129390716552734375" lon="2.78876001946628093719482421875">
        <ele>166.1999969482421875</ele>
        <time>2020-08-08T09:45:22.000Z</time>
      </trkpt>
      <trkpt lat="42.32320678420364856719970703125" lon="2.78876043856143951416015625">
        <ele>166.399993896484375</ele>
        <time>2020-08-08T09:45:23.000Z</time>
      </trkpt>
      <trkpt lat="42.32317560352385044097900390625" lon="2.7887428365647792816162109375">
        <ele>166.600006103515625</ele>
        <time>2020-08-08T09:45:25.000Z</time>
      </trkpt>
      <trkpt lat="42.32308306731283664703369140625" lon="2.78867167420685291290283203125">
        <ele>166.8000030517578125</ele>
        <time>2020-08-08T09:45:30.000Z</time>
      </trkpt>
      <trkpt lat="42.32303378172218799591064453125" lon="2.7886633761227130889892578125">
        <ele>166.8000030517578125</ele>
        <time>2020-08-08T09:45:32.000Z</time>
      </trkpt>
      <trkpt lat="42.32288592495024204254150390625" lon="2.7886727638542652130126953125">
        <ele>166.8000030517578125</ele>
        <time>2020-08-08T09:45:38.000Z</time>
      </trkpt>
      <trkpt lat="42.32270923443138599395751953125" lon="2.788744680583477020263671875">
        <ele>167.1999969482421875</ele>
        <time>2020-08-08T09:45:45.000Z</time>
      </trkpt>
      <trkpt lat="42.32252650894224643707275390625" lon="2.7888303436338901519775390625">
        <ele>167.1999969482421875</ele>
        <time>2020-08-08T09:45:52.000Z</time>
      </trkpt>
      <trkpt lat="42.3224467970430850982666015625" lon="2.78886043466627597808837890625">
        <ele>167.399993896484375</ele>
        <time>2020-08-08T09:45:55.000Z</time>
      </trkpt>
      <trkpt lat="42.32230891473591327667236328125" lon="2.788905613124370574951171875">
        <ele>167.399993896484375</ele>
        <time>2020-08-08T09:46:00.000Z</time>
      </trkpt>
      <trkpt lat="42.32209081761538982391357421875" lon="2.78899555094540119171142578125">
        <ele>167.600006103515625</ele>
        <time>2020-08-08T09:46:08.000Z</time>
      </trkpt>
      <trkpt lat="42.3218362592160701751708984375" lon="2.78911717236042022705078125">
        <ele>168.1999969482421875</ele>
        <time>2020-08-08T09:46:18.000Z</time>
      </trkpt>
      <trkpt lat="42.32175721786916255950927734375" lon="2.7891555614769458770751953125">
        <ele>168.399993896484375</ele>
        <time>2020-08-08T09:46:21.000Z</time>
      </trkpt>
      <trkpt lat="42.32162562198936939239501953125" lon="2.78922848403453826904296875">
        <ele>168.1999969482421875</ele>
        <time>2020-08-08T09:46:27.000Z</time>
      </trkpt>
      <trkpt lat="42.3215318284928798675537109375" lon="2.7893040888011455535888671875">
        <ele>168.399993896484375</ele>
        <time>2020-08-08T09:46:32.000Z</time>
      </trkpt>
      <trkpt lat="42.32143300585448741912841796875" lon="2.78935530222952365875244140625">
        <ele>168.399993896484375</ele>
        <time>2020-08-08T09:46:37.000Z</time>
      </trkpt>
      <trkpt lat="42.32128431089222431182861328125" lon="2.78944616205990314483642578125">
        <ele>168.1999969482421875</ele>
        <time>2020-08-08T09:46:44.000Z</time>
      </trkpt>
      <trkpt lat="42.32119009830057621002197265625" lon="2.7895059250295162200927734375">
        <ele>168</ele>
        <time>2020-08-08T09:46:48.000Z</time>
      </trkpt>
      <trkpt lat="42.32108540832996368408203125" lon="2.7895887382328510284423828125">
        <ele>168.399993896484375</ele>
        <time>2020-08-08T09:46:53.000Z</time>
      </trkpt>
      <trkpt lat="42.3209876753389835357666015625" lon="2.78973097912967205047607421875">
        <ele>168.1999969482421875</ele>
        <time>2020-08-08T09:46:58.000Z</time>
      </trkpt>
      <trkpt lat="42.32091483660042285919189453125" lon="2.78982385061681270599365234375">
        <ele>168.1999969482421875</ele>
        <time>2020-08-08T09:47:03.000Z</time>
      </trkpt>
      <trkpt lat="42.3209035210311412811279296875" lon="2.78981982730329036712646484375">
        <ele>168.399993896484375</ele>
        <time>2020-08-08T09:47:10.000Z</time>
      </trkpt>
      <trkpt lat="42.320900000631809234619140625" lon="2.78982125222682952880859375">
        <ele>168.1999969482421875</ele>
        <time>2020-08-08T09:47:19.000Z</time>
      </trkpt>
      <trkpt lat="42.3208713345229625701904296875" lon="2.7898381836712360382080078125">
        <ele>168.399993896484375</ele>
        <time>2020-08-08T09:47:27.000Z</time>
      </trkpt>
      <trkpt lat="42.32086638920009136199951171875" lon="2.78984178788959980010986328125">
        <ele>168.1999969482421875</ele>
        <time>2020-08-08T09:47:35.000Z</time>
      </trkpt>
      <trkpt lat="42.32086806558072566986083984375" lon="2.789845727384090423583984375">
        <ele>168.399993896484375</ele>
        <time>2020-08-08T09:47:49.000Z</time>
      </trkpt>
      <trkpt lat="42.320867143571376800537109375" lon="2.78984530828893184661865234375">
        <ele>168.399993896484375</ele>
        <time>2020-08-08T09:47:59.000Z</time>
      </trkpt>
      <trkpt lat="42.3208663053810596466064453125" lon="2.789859473705291748046875">
        <ele>168.399993896484375</ele>
        <time>2020-08-08T09:48:08.000Z</time>
      </trkpt>
      <trkpt lat="42.320863120257854461669921875" lon="2.7898619882762432098388671875">
        <ele>168.1999969482421875</ele>
        <time>2020-08-08T09:48:19.000Z</time>
      </trkpt>
      <trkpt lat="42.32085700146853923797607421875" lon="2.7898613177239894866943359375">
        <ele>168.399993896484375</ele>
        <time>2020-08-08T09:48:28.000Z</time>
      </trkpt>
      <trkpt lat="42.32085498981177806854248046875" lon="2.78986643068492412567138671875">
        <ele>168.1999969482421875</ele>
        <time>2020-08-08T09:48:39.000Z</time>
      </trkpt>
      <trkpt lat="42.32085079886019229888916015625" lon="2.78988017700612545013427734375">
        <ele>168.399993896484375</ele>
        <time>2020-08-08T09:48:48.000Z</time>
      </trkpt>
      <trkpt lat="42.3208170197904109954833984375" lon="2.7898750640451908111572265625">
        <ele>168</ele>
        <time>2020-08-08T09:48:57.000Z</time>
      </trkpt>
      <trkpt lat="42.3207362182438373565673828125" lon="2.789864502847194671630859375">
        <ele>168.1999969482421875</ele>
        <time>2020-08-08T09:49:02.000Z</time>
      </trkpt>
      <trkpt lat="42.3206661455333232879638671875" lon="2.789845727384090423583984375">
        <ele>168.399993896484375</ele>
        <time>2020-08-08T09:49:06.000Z</time>
      </trkpt>
      <trkpt lat="42.32065080665051937103271484375" lon="2.78984463773667812347412109375">
        <ele>168.399993896484375</ele>
        <time>2020-08-08T09:49:07.000Z</time>
      </trkpt>
      <trkpt lat="42.3205920495092868804931640625" lon="2.7898623235523700714111328125">
        <ele>168.600006103515625</ele>
        <time>2020-08-08T09:49:11.000Z</time>
      </trkpt>
      <trkpt lat="42.3205803148448467254638671875" lon="2.78986022807657718658447265625">
        <ele>168.600006103515625</ele>
        <time>2020-08-08T09:49:12.000Z</time>
      </trkpt>
      <trkpt lat="42.3205712623894214630126953125" lon="2.7898728847503662109375">
        <ele>168.399993896484375</ele>
        <time>2020-08-08T09:49:13.000Z</time>
      </trkpt>
      <trkpt lat="42.3205496370792388916015625" lon="2.7899372577667236328125">
        <ele>168.399993896484375</ele>
        <time>2020-08-08T09:49:17.000Z</time>
      </trkpt>
      <trkpt lat="42.320539243519306182861328125" lon="2.78998746536672115325927734375">
        <ele>168.1999969482421875</ele>
        <time>2020-08-08T09:49:23.000Z</time>
      </trkpt>
      <trkpt lat="42.32053580693900585174560546875" lon="2.7900051511824131011962890625">
        <ele>168.1999969482421875</ele>
        <time>2020-08-08T09:49:25.000Z</time>
      </trkpt>
      <trkpt lat="42.32048459351062774658203125" lon="2.7899877168238162994384765625">
        <ele>168.399993896484375</ele>
        <time>2020-08-08T09:49:28.000Z</time>
      </trkpt>
      <trkpt lat="42.32042131014168262481689453125" lon="2.78991512954235076904296875">
        <ele>168.8000030517578125</ele>
        <time>2020-08-08T09:49:32.000Z</time>
      </trkpt>
      <trkpt lat="42.32040639035403728485107421875" lon="2.7898965217173099517822265625">
        <ele>168.8000030517578125</ele>
        <time>2020-08-08T09:49:33.000Z</time>
      </trkpt>
      <trkpt lat="42.32031553052365779876708984375" lon="2.7897332422435283660888671875">
        <ele>169</ele>
        <time>2020-08-08T09:49:39.000Z</time>
      </trkpt>
      <trkpt lat="42.3202882893383502960205078125" lon="2.78969527222216129302978515625">
        <ele>169</ele>
        <time>2020-08-08T09:49:41.000Z</time>
      </trkpt>
      <trkpt lat="42.3202561028301715850830078125" lon="2.7896604873239994049072265625">
        <ele>169</ele>
        <time>2020-08-08T09:49:43.000Z</time>
      </trkpt>
      <trkpt lat="42.32016800902783870697021484375" lon="2.78957189060747623443603515625">
        <ele>169.399993896484375</ele>
        <time>2020-08-08T09:49:48.000Z</time>
      </trkpt>
      <trkpt lat="42.3200908116996288299560546875" lon="2.78946124948561191558837890625">
        <ele>169.399993896484375</ele>
        <time>2020-08-08T09:49:54.000Z</time>
      </trkpt>
      <trkpt lat="42.32002216391265392303466796875" lon="2.78936930000782012939453125">
        <ele>170</ele>
        <time>2020-08-08T09:49:59.000Z</time>
      </trkpt>
      <trkpt lat="42.3199905641376972198486328125" lon="2.78932831250131130218505859375">
        <ele>170</ele>
        <time>2020-08-08T09:50:01.000Z</time>
      </trkpt>
      <trkpt lat="42.3199488222599029541015625" lon="2.7892350219190120697021484375">
        <ele>170.1999969482421875</ele>
        <time>2020-08-08T09:50:06.000Z</time>
      </trkpt>
      <trkpt lat="42.31994488276541233062744140625" lon="2.78921549208462238311767578125">
        <ele>170.1999969482421875</ele>
        <time>2020-08-08T09:50:07.000Z</time>
      </trkpt>
      <trkpt lat="42.31991998851299285888671875" lon="2.78914709575474262237548828125">
        <ele>170.1999969482421875</ele>
        <time>2020-08-08T09:50:10.000Z</time>
      </trkpt>
      <trkpt lat="42.31989023275673389434814453125" lon="2.78906486928462982177734375">
        <ele>170.399993896484375</ele>
        <time>2020-08-08T09:50:13.000Z</time>
      </trkpt>
      <trkpt lat="42.31980306096374988555908203125" lon="2.7888876758515834808349609375">
        <ele>170.8000030517578125</ele>
        <time>2020-08-08T09:50:20.000Z</time>
      </trkpt>
      <trkpt lat="42.319714128971099853515625" lon="2.78871140442788600921630859375">
        <ele>171.1999969482421875</ele>
        <time>2020-08-08T09:50:27.000Z</time>
      </trkpt>
      <trkpt lat="42.3197069205343723297119140625" lon="2.7885787189006805419921875">
        <ele>171.1999969482421875</ele>
        <time>2020-08-08T09:50:31.000Z</time>
      </trkpt>
      <trkpt lat="42.31971069239079952239990234375" lon="2.78856036253273487091064453125">
        <ele>171.1999969482421875</ele>
        <time>2020-08-08T09:50:32.000Z</time>
      </trkpt>
      <trkpt lat="42.319710440933704376220703125" lon="2.788543514907360076904296875">
        <ele>171.1999969482421875</ele>
        <time>2020-08-08T09:50:33.000Z</time>
      </trkpt>
      <trkpt lat="42.31967900879681110382080078125" lon="2.7884239889681339263916015625">
        <ele>171.399993896484375</ele>
        <time>2020-08-08T09:50:38.000Z</time>
      </trkpt>
      <trkpt lat="42.31965419836342334747314453125" lon="2.788333632051944732666015625">
        <ele>171.399993896484375</ele>
        <time>2020-08-08T09:50:41.000Z</time>
      </trkpt>
      <trkpt lat="42.31956736184656620025634765625" lon="2.78814814053475856781005859375">
        <ele>171.600006103515625</ele>
        <time>2020-08-08T09:50:48.000Z</time>
      </trkpt>
      <trkpt lat="42.31951497495174407958984375" lon="2.7879931591451168060302734375">
        <ele>171.399993896484375</ele>
        <time>2020-08-08T09:50:53.000Z</time>
      </trkpt>
      <trkpt lat="42.31951924972236156463623046875" lon="2.7878362499177455902099609375">
        <ele>171.399993896484375</ele>
        <time>2020-08-08T09:50:58.000Z</time>
      </trkpt>
      <trkpt lat="42.3195121251046657562255859375" lon="2.7878231741487979888916015625">
        <ele>171.399993896484375</ele>
        <time>2020-08-08T09:50:59.000Z</time>
      </trkpt>
      <trkpt lat="42.3195536993443965911865234375" lon="2.78774798847734928131103515625">
        <ele>171.1999969482421875</ele>
        <time>2020-08-08T09:51:02.000Z</time>
      </trkpt>
      <trkpt lat="42.31962452642619609832763671875" lon="2.78758688829839229583740234375">
        <ele>171.1999969482421875</ele>
        <time>2020-08-08T09:51:06.000Z</time>
      </trkpt>
      <trkpt lat="42.3196257837116718292236328125" lon="2.78752838261425495147705078125">
        <ele>171.1999969482421875</ele>
        <time>2020-08-08T09:51:08.000Z</time>
      </trkpt>
      <trkpt lat="42.31963559053838253021240234375" lon="2.78740835376083850860595703125">
        <ele>171.399993896484375</ele>
        <time>2020-08-08T09:51:11.000Z</time>
      </trkpt>
      <trkpt lat="42.31970733962953090667724609375" lon="2.7870879136025905609130859375">
        <ele>171.399993896484375</ele>
        <time>2020-08-08T09:51:18.000Z</time>
      </trkpt>
      <trkpt lat="42.31978185474872589111328125" lon="2.786798067390918731689453125">
        <ele>171.399993896484375</ele>
        <time>2020-08-08T09:51:25.000Z</time>
      </trkpt>
      <trkpt lat="42.3197773285210132598876953125" lon="2.78659950010478496551513671875">
        <ele>171.399993896484375</ele>
        <time>2020-08-08T09:51:29.000Z</time>
      </trkpt>
      <trkpt lat="42.3198634944856166839599609375" lon="2.78646304272115230560302734375">
        <ele>171.8000030517578125</ele>
        <time>2020-08-08T09:51:34.000Z</time>
      </trkpt>
      <trkpt lat="42.319972626864910125732421875" lon="2.7863010205328464508056640625">
        <ele>171.8000030517578125</ele>
        <time>2020-08-08T09:51:40.000Z</time>
      </trkpt>
      <trkpt lat="42.32009894214570522308349609375" lon="2.7861566841602325439453125">
        <ele>172</ele>
        <time>2020-08-08T09:51:46.000Z</time>
      </trkpt>
      <trkpt lat="42.32016281224787235260009765625" lon="2.78605434112250804901123046875">
        <ele>172.600006103515625</ele>
        <time>2020-08-08T09:51:50.000Z</time>
      </trkpt>
      <trkpt lat="42.32018611393868923187255859375" lon="2.7860053069889545440673828125">
        <ele>172.8000030517578125</ele>
        <time>2020-08-08T09:51:52.000Z</time>
      </trkpt>
      <trkpt lat="42.32023824937641620635986328125" lon="2.78580104000866413116455078125">
        <ele>173.399993896484375</ele>
        <time>2020-08-08T09:51:59.000Z</time>
      </trkpt>
      <trkpt lat="42.3202638141810894012451171875" lon="2.78558663092553615570068359375">
        <ele>173.399993896484375</ele>
        <time>2020-08-08T09:52:06.000Z</time>
      </trkpt>
      <trkpt lat="42.320269681513309478759765625" lon="2.7855546958744525909423828125">
        <ele>173.600006103515625</ele>
        <time>2020-08-08T09:52:07.000Z</time>
      </trkpt>
      <trkpt lat="42.320300526916980743408203125" lon="2.78537523932754993438720703125">
        <ele>174</ele>
        <time>2020-08-08T09:52:13.000Z</time>
      </trkpt>
      <trkpt lat="42.32035718858242034912109375" lon="2.7851362712681293487548828125">
        <ele>174.1999969482421875</ele>
        <time>2020-08-08T09:52:21.000Z</time>
      </trkpt>
      <trkpt lat="42.3203798197209835052490234375" lon="2.7850306592881679534912109375">
        <ele>174.399993896484375</ele>
        <time>2020-08-08T09:52:24.000Z</time>
      </trkpt>
      <trkpt lat="42.3204207234084606170654296875" lon="2.78481331653892993927001953125">
        <ele>174.8000030517578125</ele>
        <time>2020-08-08T09:52:30.000Z</time>
      </trkpt>
      <trkpt lat="42.3204396665096282958984375" lon="2.784569822251796722412109375">
        <ele>175.1999969482421875</ele>
        <time>2020-08-08T09:52:37.000Z</time>
      </trkpt>
      <trkpt lat="42.3204584419727325439453125" lon="2.784436382353305816650390625">
        <ele>175.600006103515625</ele>
        <time>2020-08-08T09:52:41.000Z</time>
      </trkpt>
      <trkpt lat="42.32048886828124523162841796875" lon="2.7843245677649974822998046875">
        <ele>176</ele>
        <time>2020-08-08T09:52:45.000Z</time>
      </trkpt>
      <trkpt lat="42.3205228149890899658203125" lon="2.78427050448954105377197265625">
        <ele>176.600006103515625</ele>
        <time>2020-08-08T09:52:49.000Z</time>
      </trkpt>
      <trkpt lat="42.3205263353884220123291015625" lon="2.7842655591666698455810546875">
        <ele>176.8000030517578125</ele>
        <time>2020-08-08T09:52:50.000Z</time>
      </trkpt>
      <trkpt lat="42.3205603659152984619140625" lon="2.78418635018169879913330078125">
        <ele>177.1999969482421875</ele>
        <time>2020-08-08T09:52:55.000Z</time>
      </trkpt>
      <trkpt lat="42.32059146277606487274169921875" lon="2.783938162028789520263671875">
        <ele>177.399993896484375</ele>
        <time>2020-08-08T09:53:02.000Z</time>
      </trkpt>
      <trkpt lat="42.32057067565619945526123046875" lon="2.78364119119942188262939453125">
        <ele>177.399993896484375</ele>
        <time>2020-08-08T09:53:09.000Z</time>
      </trkpt>
      <trkpt lat="42.32052080333232879638671875" lon="2.78330616652965545654296875">
        <ele>176.399993896484375</ele>
        <time>2020-08-08T09:53:15.000Z</time>
      </trkpt>
      <trkpt lat="42.32045374810695648193359375" lon="2.78300651349127292633056640625">
        <ele>175.600006103515625</ele>
        <time>2020-08-08T09:53:19.000Z</time>
      </trkpt>
      <trkpt lat="42.3204136826097965240478515625" lon="2.7828356064856052398681640625">
        <ele>175</ele>
        <time>2020-08-08T09:53:21.000Z</time>
      </trkpt>
      <trkpt lat="42.32037520967423915863037109375" lon="2.7826525457203388214111328125">
        <ele>174.399993896484375</ele>
        <time>2020-08-08T09:53:23.000Z</time>
      </trkpt>
      <trkpt lat="42.32028921134769916534423828125" lon="2.782290615141391754150390625">
        <ele>173.399993896484375</ele>
        <time>2020-08-08T09:53:27.000Z</time>
      </trkpt>
      <trkpt lat="42.32026775367558002471923828125" lon="2.78220252133905887603759765625">
        <ele>173.1999969482421875</ele>
        <time>2020-08-08T09:53:28.000Z</time>
      </trkpt>
      <trkpt lat="42.3201095871627330780029296875" lon="2.7816631458699703216552734375">
        <ele>173</ele>
        <time>2020-08-08T09:53:35.000Z</time>
      </trkpt>
      <trkpt lat="42.31992342509329319000244140625" lon="2.78126844204962253570556640625">
        <ele>172.8000030517578125</ele>
        <time>2020-08-08T09:53:42.000Z</time>
      </trkpt>
      <trkpt lat="42.31977288611233234405517578125" lon="2.78095529414713382720947265625">
        <ele>173.399993896484375</ele>
        <time>2020-08-08T09:53:49.000Z</time>
      </trkpt>
      <trkpt lat="42.31964715756475925445556640625" lon="2.780777513980865478515625">
        <ele>174.1999969482421875</ele>
        <time>2020-08-08T09:53:55.000Z</time>
      </trkpt>
      <trkpt lat="42.3196207545697689056396484375" lon="2.7807595767080783843994140625">
        <ele>174.399993896484375</ele>
        <time>2020-08-08T09:53:56.000Z</time>
      </trkpt>
      <trkpt lat="42.319472394883632659912109375" lon="2.780730910599231719970703125">
        <ele>175</ele>
        <time>2020-08-08T09:54:01.000Z</time>
      </trkpt>
      <trkpt lat="42.31938346289098262786865234375" lon="2.78072898276150226593017578125">
        <ele>175.399993896484375</ele>
        <time>2020-08-08T09:54:04.000Z</time>
      </trkpt>
      <trkpt lat="42.3192576505243778228759765625" lon="2.78073552064597606658935546875">
        <ele>175.399993896484375</ele>
        <time>2020-08-08T09:54:08.000Z</time>
      </trkpt>
      <trkpt lat="42.31903041712939739227294921875" lon="2.7807387895882129669189453125">
        <ele>176.399993896484375</ele>
        <time>2020-08-08T09:54:15.000Z</time>
      </trkpt>
      <trkpt lat="42.31873537413775920867919921875" lon="2.7807411365211009979248046875">
        <ele>176.600006103515625</ele>
        <time>2020-08-08T09:54:24.000Z</time>
      </trkpt>
      <trkpt lat="42.31847696006298065185546875" lon="2.7807746641337871551513671875">
        <ele>177.399993896484375</ele>
        <time>2020-08-08T09:54:32.000Z</time>
      </trkpt>
      <trkpt lat="42.3184134252369403839111328125" lon="2.78079369105398654937744140625">
        <ele>177.600006103515625</ele>
        <time>2020-08-08T09:54:34.000Z</time>
      </trkpt>
      <trkpt lat="42.31812198646366596221923828125" lon="2.7809067629277706146240234375">
        <ele>178.1999969482421875</ele>
        <time>2020-08-08T09:54:43.000Z</time>
      </trkpt>
      <trkpt lat="42.31805878691375255584716796875" lon="2.78093911707401275634765625">
        <ele>178.399993896484375</ele>
        <time>2020-08-08T09:54:45.000Z</time>
      </trkpt>
      <trkpt lat="42.31786214746534824371337890625" lon="2.78101556003093719482421875">
        <ele>179.1999969482421875</ele>
        <time>2020-08-08T09:54:51.000Z</time>
      </trkpt>
      <trkpt lat="42.317667938768863677978515625" lon="2.7810931764543056488037109375">
        <ele>179.600006103515625</ele>
        <time>2020-08-08T09:54:57.000Z</time>
      </trkpt>
      <trkpt lat="42.3176392726600170135498046875" lon="2.78110734187066555023193359375">
        <ele>179.8000030517578125</ele>
        <time>2020-08-08T09:54:58.000Z</time>
      </trkpt>
      <trkpt lat="42.3173817805945873260498046875" lon="2.78123977594077587127685546875">
        <ele>180.600006103515625</ele>
        <time>2020-08-08T09:55:07.000Z</time>
      </trkpt>
      <trkpt lat="42.3173529468476772308349609375" lon="2.7812490798532962799072265625">
        <ele>180.600006103515625</ele>
        <time>2020-08-08T09:55:08.000Z</time>
      </trkpt>
      <trkpt lat="42.3171125538647174835205078125" lon="2.7813208289444446563720703125">
        <ele>181.1999969482421875</ele>
        <time>2020-08-08T09:55:16.000Z</time>
      </trkpt>
      <trkpt lat="42.31688699685037136077880859375" lon="2.7812997065484523773193359375">
        <ele>181.399993896484375</ele>
        <time>2020-08-08T09:55:22.000Z</time>
      </trkpt>
      <trkpt lat="42.31684885919094085693359375" lon="2.78127782978117465972900390625">
        <ele>181.1999969482421875</ele>
        <time>2020-08-08T09:55:23.000Z</time>
      </trkpt>
      <trkpt lat="42.316676862537860870361328125" lon="2.781078256666660308837890625">
        <ele>181</ele>
        <time>2020-08-08T09:55:28.000Z</time>
      </trkpt>
      <trkpt lat="42.31658759526908397674560546875" lon="2.78077290393412113189697265625">
        <ele>180.399993896484375</ele>
        <time>2020-08-08T09:55:33.000Z</time>
      </trkpt>
      <trkpt lat="42.31652221642434597015380859375" lon="2.7802985720336437225341796875">
        <ele>180.1999969482421875</ele>
        <time>2020-08-08T09:55:41.000Z</time>
      </trkpt>
      <trkpt lat="42.31646438129246234893798828125" lon="2.7799099870026111602783203125">
        <ele>180.8000030517578125</ele>
        <time>2020-08-08T09:55:49.000Z</time>
      </trkpt>
      <trkpt lat="42.31641945429146289825439453125" lon="2.779548056423664093017578125">
        <ele>181.399993896484375</ele>
        <time>2020-08-08T09:55:57.000Z</time>
      </trkpt>
      <trkpt lat="42.31639422476291656494140625" lon="2.779371701180934906005859375">
        <ele>181.600006103515625</ele>
        <time>2020-08-08T09:56:01.000Z</time>
      </trkpt>
      <trkpt lat="42.31637754477560520172119140625" lon="2.7792461402714252471923828125">
        <ele>181.8000030517578125</ele>
        <time>2020-08-08T09:56:04.000Z</time>
      </trkpt>
      <trkpt lat="42.31632180511951446533203125" lon="2.7789594791829586029052734375">
        <ele>182.600006103515625</ele>
        <time>2020-08-08T09:56:11.000Z</time>
      </trkpt>
      <trkpt lat="42.3163075558841228485107421875" lon="2.77892134152352809906005859375">
        <ele>182.600006103515625</ele>
        <time>2020-08-08T09:56:12.000Z</time>
      </trkpt>
      <trkpt lat="42.31621745042502880096435546875" lon="2.77869251556694507598876953125">
        <ele>183.1999969482421875</ele>
        <time>2020-08-08T09:56:18.000Z</time>
      </trkpt>
      <trkpt lat="42.3161791451275348663330078125" lon="2.7785740792751312255859375">
        <ele>183.600006103515625</ele>
        <time>2020-08-08T09:56:21.000Z</time>
      </trkpt>
      <trkpt lat="42.3160738684237003326416015625" lon="2.7783633582293987274169921875">
        <ele>184.1999969482421875</ele>
        <time>2020-08-08T09:56:27.000Z</time>
      </trkpt>
      <trkpt lat="42.31598326005041599273681640625" lon="2.77819597162306308746337890625">
        <ele>184.8000030517578125</ele>
        <time>2020-08-08T09:56:32.000Z</time>
      </trkpt>
      <trkpt lat="42.31575024314224720001220703125" lon="2.77787846513092517852783203125">
        <ele>186.1999969482421875</ele>
        <time>2020-08-08T09:56:43.000Z</time>
      </trkpt>
      <trkpt lat="42.31560565531253814697265625" lon="2.77768618427217006683349609375">
        <ele>186.600006103515625</ele>
        <time>2020-08-08T09:56:50.000Z</time>
      </trkpt>
      <trkpt lat="42.31545922346413135528564453125" lon="2.77749658562242984771728515625">
        <ele>187.1999969482421875</ele>
        <time>2020-08-08T09:56:57.000Z</time>
      </trkpt>
      <trkpt lat="42.315298877656459808349609375" lon="2.77728485874831676483154296875">
        <ele>187.1999969482421875</ele>
        <time>2020-08-08T09:57:04.000Z</time>
      </trkpt>
      <trkpt lat="42.3150951974093914031982421875" lon="2.77701144106686115264892578125">
        <ele>187.600006103515625</ele>
        <time>2020-08-08T09:57:12.000Z</time>
      </trkpt>
      <trkpt lat="42.31489947997033596038818359375" lon="2.7767298929393291473388671875">
        <ele>187.8000030517578125</ele>
        <time>2020-08-08T09:57:20.000Z</time>
      </trkpt>
      <trkpt lat="42.3147334344685077667236328125" lon="2.77647349052131175994873046875">
        <ele>187.600006103515625</ele>
        <time>2020-08-08T09:57:27.000Z</time>
      </trkpt>
      <trkpt lat="42.31452883221209049224853515625" lon="2.7762055210769176483154296875">
        <ele>188</ele>
        <time>2020-08-08T09:57:35.000Z</time>
      </trkpt>
      <trkpt lat="42.3143941350281238555908203125" lon="2.77600259520113468170166015625">
        <ele>188.1999969482421875</ele>
        <time>2020-08-08T09:57:41.000Z</time>
      </trkpt>
      <trkpt lat="42.31435046531260013580322265625" lon="2.77594006620347499847412109375">
        <ele>188.399993896484375</ele>
        <time>2020-08-08T09:57:43.000Z</time>
      </trkpt>
      <trkpt lat="42.31422037817537784576416015625" lon="2.77579556219279766082763671875">
        <ele>188.399993896484375</ele>
        <time>2020-08-08T09:57:49.000Z</time>
      </trkpt>
      <trkpt lat="42.314061708748340606689453125" lon="2.77554779313504695892333984375">
        <ele>188.8000030517578125</ele>
        <time>2020-08-08T09:57:57.000Z</time>
      </trkpt>
      <trkpt lat="42.31393958441913127899169921875" lon="2.7753572724759578704833984375">
        <ele>189.399993896484375</ele>
        <time>2020-08-08T09:58:03.000Z</time>
      </trkpt>
      <trkpt lat="42.3138704337179660797119140625" lon="2.77526549063622951507568359375">
        <ele>189.399993896484375</ele>
        <time>2020-08-08T09:58:06.000Z</time>
      </trkpt>
      <trkpt lat="42.31363297440111637115478515625" lon="2.7749375067651271820068359375">
        <ele>190.1999969482421875</ele>
        <time>2020-08-08T09:58:17.000Z</time>
      </trkpt>
      <trkpt lat="42.313589639961719512939453125" lon="2.77487757615745067596435546875">
        <ele>190.1999969482421875</ele>
        <time>2020-08-08T09:58:19.000Z</time>
      </trkpt>
      <trkpt lat="42.3133846186101436614990234375" lon="2.77457113377749919891357421875">
        <ele>191</ele>
        <time>2020-08-08T09:58:29.000Z</time>
      </trkpt>
      <trkpt lat="42.31325679458677768707275390625" lon="2.774377763271331787109375">
        <ele>191.1999969482421875</ele>
        <time>2020-08-08T09:58:35.000Z</time>
      </trkpt>
      <trkpt lat="42.31323416344821453094482421875" lon="2.7743460796773433685302734375">
        <ele>191.399993896484375</ele>
        <time>2020-08-08T09:58:36.000Z</time>
      </trkpt>
      <trkpt lat="42.31309653259813785552978515625" lon="2.77417148463428020477294921875">
        <ele>191.600006103515625</ele>
        <time>2020-08-08T09:58:42.000Z</time>
      </trkpt>
      <trkpt lat="42.313076667487621307373046875" lon="2.77414231561124324798583984375">
        <ele>191.8000030517578125</ele>
        <time>2020-08-08T09:58:43.000Z</time>
      </trkpt>
      <trkpt lat="42.312964685261249542236328125" lon="2.7739598415791988372802734375">
        <ele>192.1999969482421875</ele>
        <time>2020-08-08T09:58:49.000Z</time>
      </trkpt>
      <trkpt lat="42.3129011504352092742919921875" lon="2.77387007139623165130615234375">
        <ele>192.399993896484375</ele>
        <time>2020-08-08T09:58:52.000Z</time>
      </trkpt>
      <trkpt lat="42.312705181539058685302734375" lon="2.77360386215150356292724609375">
        <ele>193.399993896484375</ele>
        <time>2020-08-08T09:59:01.000Z</time>
      </trkpt>
      <trkpt lat="42.312623374164104461669921875" lon="2.77348031289875507354736328125">
        <ele>193.399993896484375</ele>
        <time>2020-08-08T09:59:05.000Z</time>
      </trkpt>
      <trkpt lat="42.31254232116043567657470703125" lon="2.77335106395184993743896484375">
        <ele>193.8000030517578125</ele>
        <time>2020-08-08T09:59:09.000Z</time>
      </trkpt>
      <trkpt lat="42.31242279522120952606201171875" lon="2.7730951644480228424072265625">
        <ele>194.399993896484375</ele>
        <time>2020-08-08T09:59:16.000Z</time>
      </trkpt>
      <trkpt lat="42.3123818077147006988525390625" lon="2.772861309349536895751953125">
        <ele>194.600006103515625</ele>
        <time>2020-08-08T09:59:22.000Z</time>
      </trkpt>
      <trkpt lat="42.31237954460084438323974609375" lon="2.77282669208943843841552734375">
        <ele>194.600006103515625</ele>
        <time>2020-08-08T09:59:23.000Z</time>
      </trkpt>
      <trkpt lat="42.31235724873840808868408203125" lon="2.772582359611988067626953125">
        <ele>195.600006103515625</ele>
        <time>2020-08-08T09:59:30.000Z</time>
      </trkpt>
      <trkpt lat="42.31235389597713947296142578125" lon="2.77254891581833362579345703125">
        <ele>195.600006103515625</ele>
        <time>2020-08-08T09:59:31.000Z</time>
      </trkpt>
      <trkpt lat="42.3123321868479251861572265625" lon="2.7723317407071590423583984375">
        <ele>195.8000030517578125</ele>
        <time>2020-08-08T09:59:37.000Z</time>
      </trkpt>
      <trkpt lat="42.3122788779437541961669921875" lon="2.77206645347177982330322265625">
        <ele>196.600006103515625</ele>
        <time>2020-08-08T09:59:44.000Z</time>
      </trkpt>
      <trkpt lat="42.31227326206862926483154296875" lon="2.77202655561268329620361328125">
        <ele>196.600006103515625</ele>
        <time>2020-08-08T09:59:45.000Z</time>
      </trkpt>
      <trkpt lat="42.31222070753574371337890625" lon="2.77174576185643672943115234375">
        <ele>197.399993896484375</ele>
        <time>2020-08-08T09:59:52.000Z</time>
      </trkpt>
      <trkpt lat="42.31221760623157024383544921875" lon="2.771581225097179412841796875">
        <ele>197.600006103515625</ele>
        <time>2020-08-08T09:59:56.000Z</time>
      </trkpt>
      <trkpt lat="42.31222531758248805999755859375" lon="2.77141325175762176513671875">
        <ele>197.8000030517578125</ele>
        <time>2020-08-08T10:00:00.000Z</time>
      </trkpt>
      <trkpt lat="42.3122560791671276092529296875" lon="2.771092392504215240478515625">
        <ele>198.1999969482421875</ele>
        <time>2020-08-08T10:00:07.000Z</time>
      </trkpt>
      <trkpt lat="42.3122240602970123291015625" lon="2.7708385884761810302734375">
        <ele>198.1999969482421875</ele>
        <time>2020-08-08T10:00:12.000Z</time>
      </trkpt>
      <trkpt lat="42.3122133314609527587890625" lon="2.770784609019756317138671875">
        <ele>198.1999969482421875</ele>
        <time>2020-08-08T10:00:13.000Z</time>
      </trkpt>
      <trkpt lat="42.312139570713043212890625" lon="2.7705594711005687713623046875">
        <ele>197.8000030517578125</ele>
        <time>2020-08-08T10:00:17.000Z</time>
      </trkpt>
      <trkpt lat="42.31207176111638545989990234375" lon="2.77029602788388729095458984375">
        <ele>196.600006103515625</ele>
        <time>2020-08-08T10:00:21.000Z</time>
      </trkpt>
      <trkpt lat="42.31206136755645275115966796875" lon="2.770225368440151214599609375">
        <ele>196.600006103515625</ele>
        <time>2020-08-08T10:00:22.000Z</time>
      </trkpt>
      <trkpt lat="42.31204862706363201141357421875" lon="2.77007943950593471527099609375">
        <ele>196.1999969482421875</ele>
        <time>2020-08-08T10:00:24.000Z</time>
      </trkpt>
      <trkpt lat="42.31204058043658733367919921875" lon="2.76984742842614650726318359375">
        <ele>195.399993896484375</ele>
        <time>2020-08-08T10:00:27.000Z</time>
      </trkpt>
      <trkpt lat="42.312029935419559478759765625" lon="2.76944643817842006683349609375">
        <ele>194.600006103515625</ele>
        <time>2020-08-08T10:00:32.000Z</time>
      </trkpt>
      <trkpt lat="42.31202934868633747100830078125" lon="2.76919816620647907257080078125">
        <ele>194.1999969482421875</ele>
        <time>2020-08-08T10:00:35.000Z</time>
      </trkpt>
      <trkpt lat="42.31201711110770702362060546875" lon="2.76886506937444210052490234375">
        <ele>193.399993896484375</ele>
        <time>2020-08-08T10:00:39.000Z</time>
      </trkpt>
      <trkpt lat="42.3120148479938507080078125" lon="2.76878527365624904632568359375">
        <ele>193.1999969482421875</ele>
        <time>2020-08-08T10:00:40.000Z</time>
      </trkpt>
      <trkpt lat="42.31199179776012897491455078125" lon="2.76835645548999309539794921875">
        <ele>193</ele>
        <time>2020-08-08T10:00:46.000Z</time>
      </trkpt>
      <trkpt lat="42.31198945082724094390869140625" lon="2.76791238225996494293212890625">
        <ele>193</ele>
        <time>2020-08-08T10:00:53.000Z</time>
      </trkpt>
      <trkpt lat="42.31197671033442020416259765625" lon="2.767734266817569732666015625">
        <ele>193.1999969482421875</ele>
        <time>2020-08-08T10:00:56.000Z</time>
      </trkpt>
      <trkpt lat="42.31192834675312042236328125" lon="2.76737384498119354248046875">
        <ele>193</ele>
        <time>2020-08-08T10:01:03.000Z</time>
      </trkpt>
      <trkpt lat="42.31184578500688076019287109375" lon="2.76710084639489650726318359375">
        <ele>193.1999969482421875</ele>
        <time>2020-08-08T10:01:10.000Z</time>
      </trkpt>
      <trkpt lat="42.31176163069903850555419921875" lon="2.7668358944356441497802734375">
        <ele>193.399993896484375</ele>
        <time>2020-08-08T10:01:17.000Z</time>
      </trkpt>
      <trkpt lat="42.3116606287658214569091796875" lon="2.7665130235254764556884765625">
        <ele>193.600006103515625</ele>
        <time>2020-08-08T10:01:25.000Z</time>
      </trkpt>
      <trkpt lat="42.31157387606799602508544921875" lon="2.7662357501685619354248046875">
        <ele>193.399993896484375</ele>
        <time>2020-08-08T10:01:32.000Z</time>
      </trkpt>
      <trkpt lat="42.311464659869670867919921875" lon="2.76587172411382198333740234375">
        <ele>193.8000030517578125</ele>
        <time>2020-08-08T10:01:41.000Z</time>
      </trkpt>
      <trkpt lat="42.31135125271975994110107421875" lon="2.7655090391635894775390625">
        <ele>194</ele>
        <time>2020-08-08T10:01:50.000Z</time>
      </trkpt>
      <trkpt lat="42.3113404400646686553955078125" lon="2.76546922512352466583251953125">
        <ele>194</ele>
        <time>2020-08-08T10:01:51.000Z</time>
      </trkpt>
      <trkpt lat="42.31126206927001476287841796875" lon="2.76515557430684566497802734375">
        <ele>194.600006103515625</ele>
        <time>2020-08-08T10:01:59.000Z</time>
      </trkpt>
      <trkpt lat="42.31121999211609363555908203125" lon="2.76504828594624996185302734375">
        <ele>195</ele>
        <time>2020-08-08T10:02:02.000Z</time>
      </trkpt>
      <trkpt lat="42.3111728020012378692626953125" lon="2.76489757932722568511962890625">
        <ele>195.399993896484375</ele>
        <time>2020-08-08T10:02:06.000Z</time>
      </trkpt>
      <trkpt lat="42.31106760911643505096435546875" lon="2.76456263847649097442626953125">
        <ele>196.1999969482421875</ele>
        <time>2020-08-08T10:02:15.000Z</time>
      </trkpt>
      <trkpt lat="42.31104514561593532562255859375" lon="2.7644879557192325592041015625">
        <ele>196.399993896484375</ele>
        <time>2020-08-08T10:02:17.000Z</time>
      </trkpt>
      <trkpt lat="42.31094389222562313079833984375" lon="2.764140106737613677978515625">
        <ele>197.1999969482421875</ele>
        <time>2020-08-08T10:02:26.000Z</time>
      </trkpt>
      <trkpt lat="42.3108791001141071319580078125" lon="2.76392259635031223297119140625">
        <ele>197.8000030517578125</ele>
        <time>2020-08-08T10:02:32.000Z</time>
      </trkpt>
      <trkpt lat="42.310847081243991851806640625" lon="2.7638190798461437225341796875">
        <ele>198.399993896484375</ele>
        <time>2020-08-08T10:02:35.000Z</time>
      </trkpt>
      <trkpt lat="42.31080072931945323944091796875" lon="2.76368848979473114013671875">
        <ele>199</ele>
        <time>2020-08-08T10:02:39.000Z</time>
      </trkpt>
      <trkpt lat="42.310764603316783905029296875" lon="2.76359586976468563079833984375">
        <ele>199.600006103515625</ele>
        <time>2020-08-08T10:02:42.000Z</time>
      </trkpt>
      <trkpt lat="42.3107107914984226226806640625" lon="2.7634866535663604736328125">
        <ele>200.1999969482421875</ele>
        <time>2020-08-08T10:02:46.000Z</time>
      </trkpt>
      <trkpt lat="42.310657314956188201904296875" lon="2.7633939497172832489013671875">
        <ele>200.600006103515625</ele>
        <time>2020-08-08T10:02:51.000Z</time>
      </trkpt>
      <trkpt lat="42.31064583174884319305419921875" lon="2.76337509043514728546142578125">
        <ele>200.8000030517578125</ele>
        <time>2020-08-08T10:02:52.000Z</time>
      </trkpt>
      <trkpt lat="42.31052630580961704254150390625" lon="2.76320493780076503753662109375">
        <ele>201.600006103515625</ele>
        <time>2020-08-08T10:03:01.000Z</time>
      </trkpt>
      <trkpt lat="42.31050065718591213226318359375" lon="2.76316571049392223358154296875">
        <ele>201.8000030517578125</ele>
        <time>2020-08-08T10:03:03.000Z</time>
      </trkpt>
      <trkpt lat="42.31038314290344715118408203125" lon="2.76305389590561389923095703125">
        <ele>202.8000030517578125</ele>
        <time>2020-08-08T10:03:10.000Z</time>
      </trkpt>
      <trkpt lat="42.31036671437323093414306640625" lon="2.7630375511944293975830078125">
        <ele>202.8000030517578125</ele>
        <time>2020-08-08T10:03:11.000Z</time>
      </trkpt>
      <trkpt lat="42.3102445900440216064453125" lon="2.76293286122381687164306640625">
        <ele>203.8000030517578125</ele>
        <time>2020-08-08T10:03:18.000Z</time>
      </trkpt>
      <trkpt lat="42.3102263174951076507568359375" lon="2.762921042740345001220703125">
        <ele>203.8000030517578125</ele>
        <time>2020-08-08T10:03:19.000Z</time>
      </trkpt>
      <trkpt lat="42.31009681709110736846923828125" lon="2.76283630169928073883056640625">
        <ele>204.8000030517578125</ele>
        <time>2020-08-08T10:03:26.000Z</time>
      </trkpt>
      <trkpt lat="42.310080640017986297607421875" lon="2.76282255537807941436767578125">
        <ele>205</ele>
        <time>2020-08-08T10:03:27.000Z</time>
      </trkpt>
      <trkpt lat="42.30995566584169864654541015625" lon="2.76276312768459320068359375">
        <ele>205.8000030517578125</ele>
        <time>2020-08-08T10:03:34.000Z</time>
      </trkpt>
      <trkpt lat="42.30978333391249179840087890625" lon="2.76266899891197681427001953125">
        <ele>206.600006103515625</ele>
        <time>2020-08-08T10:03:43.000Z</time>
      </trkpt>
      <trkpt lat="42.309762798249721527099609375" lon="2.76265743188560009002685546875">
        <ele>206.8000030517578125</ele>
        <time>2020-08-08T10:03:44.000Z</time>
      </trkpt>
      <trkpt lat="42.30970052070915699005126953125" lon="2.7626328729093074798583984375">
        <ele>207</ele>
        <time>2020-08-08T10:03:47.000Z</time>
      </trkpt>
      <trkpt lat="42.30961821042001247406005859375" lon="2.76260496117174625396728515625">
        <ele>207.8000030517578125</ele>
        <time>2020-08-08T10:03:51.000Z</time>
      </trkpt>
      <trkpt lat="42.3095145262777805328369140625" lon="2.76255014352500438690185546875">
        <ele>208.1999969482421875</ele>
        <time>2020-08-08T10:03:56.000Z</time>
      </trkpt>
      <trkpt lat="42.30949415825307369232177734375" lon="2.76253706775605678558349609375">
        <ele>208.399993896484375</ele>
        <time>2020-08-08T10:03:57.000Z</time>
      </trkpt>
      <trkpt lat="42.30928905308246612548828125" lon="2.76244604028761386871337890625">
        <ele>209</ele>
        <time>2020-08-08T10:04:06.000Z</time>
      </trkpt>
      <trkpt lat="42.30921520851552486419677734375" lon="2.76241720654070377349853515625">
        <ele>209.1999969482421875</ele>
        <time>2020-08-08T10:04:09.000Z</time>
      </trkpt>
      <trkpt lat="42.30911982245743274688720703125" lon="2.76236037723720073699951171875">
        <ele>209.399993896484375</ele>
        <time>2020-08-08T10:04:13.000Z</time>
      </trkpt>
      <trkpt lat="42.30897883884608745574951171875" lon="2.7621594630181789398193359375">
        <ele>209.600006103515625</ele>
        <time>2020-08-08T10:04:20.000Z</time>
      </trkpt>
      <trkpt lat="42.3089157231152057647705078125" lon="2.76193172670900821685791015625">
        <ele>210</ele>
        <time>2020-08-08T10:04:26.000Z</time>
      </trkpt>
      <trkpt lat="42.30893022380769252777099609375" lon="2.7616867236793041229248046875">
        <ele>209.399993896484375</ele>
        <time>2020-08-08T10:04:31.000Z</time>
      </trkpt>
      <trkpt lat="42.3090672679245471954345703125" lon="2.76132353581488132476806640625">
        <ele>208.8000030517578125</ele>
        <time>2020-08-08T10:04:38.000Z</time>
      </trkpt>
      <trkpt lat="42.30916743166744709014892578125" lon="2.761063612997531890869140625">
        <ele>208.600006103515625</ele>
        <time>2020-08-08T10:04:43.000Z</time>
      </trkpt>
      <trkpt lat="42.30919760651886463165283203125" lon="2.76095406152307987213134765625">
        <ele>208.1999969482421875</ele>
        <time>2020-08-08T10:04:45.000Z</time>
      </trkpt>
      <trkpt lat="42.3092375881969928741455078125" lon="2.76078290306031703948974609375">
        <ele>207.8000030517578125</ele>
        <time>2020-08-08T10:04:48.000Z</time>
      </trkpt>
      <trkpt lat="42.30924320407211780548095703125" lon="2.760600931942462921142578125">
        <ele>207.600006103515625</ele>
        <time>2020-08-08T10:04:51.000Z</time>
      </trkpt>
      <trkpt lat="42.30923985131084918975830078125" lon="2.76053848676383495330810546875">
        <ele>207.600006103515625</ele>
        <time>2020-08-08T10:04:52.000Z</time>
      </trkpt>
      <trkpt lat="42.30923004448413848876953125" lon="2.76001126505434513092041015625">
        <ele>207.1999969482421875</ele>
        <time>2020-08-08T10:05:00.000Z</time>
      </trkpt>
      <trkpt lat="42.30922107584774494171142578125" lon="2.75980657897889614105224609375">
        <ele>207</ele>
        <time>2020-08-08T10:05:03.000Z</time>
      </trkpt>
      <trkpt lat="42.30920548550784587860107421875" lon="2.75947608053684234619140625">
        <ele>206</ele>
        <time>2020-08-08T10:05:08.000Z</time>
      </trkpt>
      <trkpt lat="42.309201546013355255126953125" lon="2.75941162370145320892333984375">
        <ele>206</ele>
        <time>2020-08-08T10:05:09.000Z</time>
      </trkpt>
      <trkpt lat="42.3091824352741241455078125" lon="2.7589143253862857818603515625">
        <ele>206</ele>
        <time>2020-08-08T10:05:17.000Z</time>
      </trkpt>
      <trkpt lat="42.30914957821369171142578125" lon="2.75831141509115695953369140625">
        <ele>205.399993896484375</ele>
        <time>2020-08-08T10:05:27.000Z</time>
      </trkpt>
      <trkpt lat="42.3091457225382328033447265625" lon="2.75826095603406429290771484375">
        <ele>205.1999969482421875</ele>
        <time>2020-08-08T10:05:28.000Z</time>
      </trkpt>
      <trkpt lat="42.309136502444744110107421875" lon="2.75813790969550609588623046875">
        <ele>205</ele>
        <time>2020-08-08T10:05:31.000Z</time>
      </trkpt>
      <trkpt lat="42.309136502444744110107421875" lon="2.75802928023040294647216796875">
        <ele>204.8000030517578125</ele>
        <time>2020-08-08T10:05:35.000Z</time>
      </trkpt>
      <trkpt lat="42.30912904255092144012451171875" lon="2.75797647424042224884033203125">
        <ele>205</ele>
        <time>2020-08-08T10:05:41.000Z</time>
      </trkpt>
      <trkpt lat="42.30912233702838420867919921875" lon="2.75779827497899532318115234375">
        <ele>204.8000030517578125</ele>
        <time>2020-08-08T10:05:46.000Z</time>
      </trkpt>
      <trkpt lat="42.30910624377429485321044921875" lon="2.7574317343533039093017578125">
        <ele>204.600006103515625</ele>
        <time>2020-08-08T10:05:53.000Z</time>
      </trkpt>
      <trkpt lat="42.30909769423305988311767578125" lon="2.75704960338771343231201171875">
        <ele>204.8000030517578125</ele>
        <time>2020-08-08T10:06:01.000Z</time>
      </trkpt>
      <trkpt lat="42.3090831935405731201171875" lon="2.7566730044782161712646484375">
        <ele>205</ele>
        <time>2020-08-08T10:06:09.000Z</time>
      </trkpt>
      <trkpt lat="42.30905980803072452545166015625" lon="2.7562773786485195159912109375">
        <ele>205</ele>
        <time>2020-08-08T10:06:17.000Z</time>
      </trkpt>
      <trkpt lat="42.3090421222150325775146484375" lon="2.755796425044536590576171875">
        <ele>205.600006103515625</ele>
        <time>2020-08-08T10:06:27.000Z</time>
      </trkpt>
      <trkpt lat="42.30902929790318012237548828125" lon="2.7553285472095012664794921875">
        <ele>205.600006103515625</ele>
        <time>2020-08-08T10:06:36.000Z</time>
      </trkpt>
      <trkpt lat="42.3090059123933315277099609375" lon="2.75479889474809169769287109375">
        <ele>206</ele>
        <time>2020-08-08T10:06:46.000Z</time>
      </trkpt>
      <trkpt lat="42.3089857958257198333740234375" lon="2.75438927114009857177734375">
        <ele>206.399993896484375</ele>
        <time>2020-08-08T10:06:54.000Z</time>
      </trkpt>
      <trkpt lat="42.30896182358264923095703125" lon="2.75386280380189418792724609375">
        <ele>206.600006103515625</ele>
        <time>2020-08-08T10:07:04.000Z</time>
      </trkpt>
      <trkpt lat="42.30894732289016246795654296875" lon="2.75335536338388919830322265625">
        <ele>206.399993896484375</ele>
        <time>2020-08-08T10:07:12.000Z</time>
      </trkpt>
      <trkpt lat="42.3089217580854892730712890625" lon="2.75263535790145397186279296875">
        <ele>205</ele>
        <time>2020-08-08T10:07:22.000Z</time>
      </trkpt>
      <trkpt lat="42.30891748331487178802490234375" lon="2.75255740620195865631103515625">
        <ele>205</ele>
        <time>2020-08-08T10:07:23.000Z</time>
      </trkpt>
      <trkpt lat="42.30890155769884586334228515625" lon="2.752145938575267791748046875">
        <ele>203.8000030517578125</ele>
        <time>2020-08-08T10:07:28.000Z</time>
      </trkpt>
      <trkpt lat="42.3088899068534374237060546875" lon="2.75143020786345005035400390625">
        <ele>203.8000030517578125</ele>
        <time>2020-08-08T10:07:37.000Z</time>
      </trkpt>
      <trkpt lat="42.3088838718831539154052734375" lon="2.75096870027482509613037109375">
        <ele>203.600006103515625</ele>
        <time>2020-08-08T10:07:44.000Z</time>
      </trkpt>
      <trkpt lat="42.308879010379314422607421875" lon="2.75047785602509975433349609375">
        <ele>203.399993896484375</ele>
        <time>2020-08-08T10:07:52.000Z</time>
      </trkpt>
      <trkpt lat="42.3088714666664600372314453125" lon="2.74990419857203960418701171875">
        <ele>203.600006103515625</ele>
        <time>2020-08-08T10:08:01.000Z</time>
      </trkpt>
      <trkpt lat="42.30886668898165225982666015625" lon="2.7495309524238109588623046875">
        <ele>204</ele>
        <time>2020-08-08T10:08:08.000Z</time>
      </trkpt>
      <trkpt lat="42.30886668898165225982666015625" lon="2.74919374845921993255615234375">
        <ele>205</ele>
        <time>2020-08-08T10:08:15.000Z</time>
      </trkpt>
      <trkpt lat="42.30886551551520824432373046875" lon="2.7489291317760944366455078125">
        <ele>206.1999969482421875</ele>
        <time>2020-08-08T10:08:21.000Z</time>
      </trkpt>
      <trkpt lat="42.30886300094425678253173828125" lon="2.74880331940948963165283203125">
        <ele>206.8000030517578125</ele>
        <time>2020-08-08T10:08:24.000Z</time>
      </trkpt>
      <trkpt lat="42.30883433483541011810302734375" lon="2.74864641018211841583251953125">
        <ele>207.399993896484375</ele>
        <time>2020-08-08T10:08:28.000Z</time>
      </trkpt>
      <trkpt lat="42.30879544280469417572021484375" lon="2.74848883040249347686767578125">
        <ele>207.600006103515625</ele>
        <time>2020-08-08T10:08:32.000Z</time>
      </trkpt>
      <trkpt lat="42.30873442254960536956787109375" lon="2.74822932668030261993408203125">
        <ele>208</ele>
        <time>2020-08-08T10:08:39.000Z</time>
      </trkpt>
      <trkpt lat="42.3087078519165515899658203125" lon="2.74811147712171077728271484375">
        <ele>208.399993896484375</ele>
        <time>2020-08-08T10:08:42.000Z</time>
      </trkpt>
      <trkpt lat="42.30866535566747188568115234375" lon="2.7479082159698009490966796875">
        <ele>208.8000030517578125</ele>
        <time>2020-08-08T10:08:47.000Z</time>
      </trkpt>
      <trkpt lat="42.30861221440136432647705078125" lon="2.74766723625361919403076171875">
        <ele>209</ele>
        <time>2020-08-08T10:08:53.000Z</time>
      </trkpt>
      <trkpt lat="42.3085586540400981903076171875" lon="2.747364901006221771240234375">
        <ele>209.399993896484375</ele>
        <time>2020-08-08T10:09:00.000Z</time>
      </trkpt>
      <trkpt lat="42.30855555273592472076416015625" lon="2.74732408113777637481689453125">
        <ele>209.399993896484375</ele>
        <time>2020-08-08T10:09:01.000Z</time>
      </trkpt>
      <trkpt lat="42.30853325687348842620849609375" lon="2.74702317081391811370849609375">
        <ele>210</ele>
        <time>2020-08-08T10:09:07.000Z</time>
      </trkpt>
      <trkpt lat="42.30849687941372394561767578125" lon="2.7467496693134307861328125">
        <ele>210.399993896484375</ele>
        <time>2020-08-08T10:09:13.000Z</time>
      </trkpt>
      <trkpt lat="42.30846184305846691131591796875" lon="2.7463827095925807952880859375">
        <ele>210.8000030517578125</ele>
        <time>2020-08-08T10:09:21.000Z</time>
      </trkpt>
      <trkpt lat="42.30842798016965389251708984375" lon="2.7460159175097942352294921875">
        <ele>211.399993896484375</ele>
        <time>2020-08-08T10:09:29.000Z</time>
      </trkpt>
      <trkpt lat="42.30842345394194126129150390625" lon="2.74597090668976306915283203125">
        <ele>211.600006103515625</ele>
        <time>2020-08-08T10:09:30.000Z</time>
      </trkpt>
      <trkpt lat="42.3083876632153987884521484375" lon="2.74550453759729862213134765625">
        <ele>212.1999969482421875</ele>
        <time>2020-08-08T10:09:40.000Z</time>
      </trkpt>
      <trkpt lat="42.30836461298167705535888671875" lon="2.74521016515791416168212890625">
        <ele>212.600006103515625</ele>
        <time>2020-08-08T10:09:46.000Z</time>
      </trkpt>
      <trkpt lat="42.30835488997399806976318359375" lon="2.74510539136826992034912109375">
        <ele>213</ele>
        <time>2020-08-08T10:09:48.000Z</time>
      </trkpt>
      <trkpt lat="42.30831407010555267333984375" lon="2.74457079358398914337158203125">
        <ele>213</ele>
        <time>2020-08-08T10:09:58.000Z</time>
      </trkpt>
      <trkpt lat="42.30825833044946193695068359375" lon="2.74398255161941051483154296875">
        <ele>213.399993896484375</ele>
        <time>2020-08-08T10:10:09.000Z</time>
      </trkpt>
      <trkpt lat="42.3082374595105648040771484375" lon="2.743717767298221588134765625">
        <ele>213.600006103515625</ele>
        <time>2020-08-08T10:10:14.000Z</time>
      </trkpt>
      <trkpt lat="42.3082056082785129547119140625" lon="2.74350327439606189727783203125">
        <ele>214.1999969482421875</ele>
        <time>2020-08-08T10:10:18.000Z</time>
      </trkpt>
      <trkpt lat="42.308120615780353546142578125" lon="2.74319381453096866607666015625">
        <ele>214.399993896484375</ele>
        <time>2020-08-08T10:10:24.000Z</time>
      </trkpt>
      <trkpt lat="42.30804475955665111541748046875" lon="2.7429417707026004791259765625">
        <ele>214.8000030517578125</ele>
        <time>2020-08-08T10:10:29.000Z</time>
      </trkpt>
      <trkpt lat="42.30801508761942386627197265625" lon="2.74284227751195430755615234375">
        <ele>214.8000030517578125</ele>
        <time>2020-08-08T10:10:31.000Z</time>
      </trkpt>
      <trkpt lat="42.30791534297168254852294921875" lon="2.7424903213977813720703125">
        <ele>215.1999969482421875</ele>
        <time>2020-08-08T10:10:38.000Z</time>
      </trkpt>
      <trkpt lat="42.307777293026447296142578125" lon="2.74202252738177776336669921875">
        <ele>215.399993896484375</ele>
        <time>2020-08-08T10:10:47.000Z</time>
      </trkpt>
      <trkpt lat="42.3077050410211086273193359375" lon="2.74174760095775127410888671875">
        <ele>215.8000030517578125</ele>
        <time>2020-08-08T10:10:52.000Z</time>
      </trkpt>
      <trkpt lat="42.3076768778264522552490234375" lon="2.7416388876736164093017578125">
        <ele>215.8000030517578125</ele>
        <time>2020-08-08T10:10:54.000Z</time>
      </trkpt>
      <trkpt lat="42.307542599737644195556640625" lon="2.74119506590068340301513671875">
        <ele>216.1999969482421875</ele>
        <time>2020-08-08T10:11:03.000Z</time>
      </trkpt>
      <trkpt lat="42.30744101107120513916015625" lon="2.7408583648502826690673828125">
        <ele>216.1999969482421875</ele>
        <time>2020-08-08T10:11:10.000Z</time>
      </trkpt>
      <trkpt lat="42.3074002750217914581298828125" lon="2.74071243591606616973876953125">
        <ele>216.399993896484375</ele>
        <time>2020-08-08T10:11:13.000Z</time>
      </trkpt>
      <trkpt lat="42.30732961557805538177490234375" lon="2.74047623388469219207763671875">
        <ele>216.8000030517578125</ele>
        <time>2020-08-08T10:11:18.000Z</time>
      </trkpt>
      <trkpt lat="42.3072748817503452301025390625" lon="2.74029987864196300506591796875">
        <ele>217.1999969482421875</ele>
        <time>2020-08-08T10:11:22.000Z</time>
      </trkpt>
      <trkpt lat="42.30714018456637859344482421875" lon="2.739843986928462982177734375">
        <ele>217.399993896484375</ele>
        <time>2020-08-08T10:11:32.000Z</time>
      </trkpt>
      <trkpt lat="42.3070017993450164794921875" lon="2.73937049321830272674560546875">
        <ele>217.600006103515625</ele>
        <time>2020-08-08T10:11:42.000Z</time>
      </trkpt>
      <trkpt lat="42.3069562017917633056640625" lon="2.73917586542665958404541015625">
        <ele>217.8000030517578125</ele>
        <time>2020-08-08T10:11:46.000Z</time>
      </trkpt>
      <trkpt lat="42.30692200362682342529296875" lon="2.73898157291114330291748046875">
        <ele>218</ele>
        <time>2020-08-08T10:11:50.000Z</time>
      </trkpt>
      <trkpt lat="42.30687615461647510528564453125" lon="2.7385328896343708038330078125">
        <ele>218.600006103515625</ele>
        <time>2020-08-08T10:11:59.000Z</time>
      </trkpt>
      <trkpt lat="42.30685452930629253387451171875" lon="2.73833901621401309967041015625">
        <ele>219</ele>
        <time>2020-08-08T10:12:03.000Z</time>
      </trkpt>
      <trkpt lat="42.30682678520679473876953125" lon="2.738050259649753570556640625">
        <ele>219</ele>
        <time>2020-08-08T10:12:09.000Z</time>
      </trkpt>
      <trkpt lat="42.306779511272907257080078125" lon="2.73760526441037654876708984375">
        <ele>219.1999969482421875</ele>
        <time>2020-08-08T10:12:18.000Z</time>
      </trkpt>
      <trkpt lat="42.3067370988428592681884765625" lon="2.7371554076671600341796875">
        <ele>220</ele>
        <time>2020-08-08T10:12:27.000Z</time>
      </trkpt>
      <trkpt lat="42.30673290789127349853515625" lon="2.73710318841040134429931640625">
        <ele>220</ele>
        <time>2020-08-08T10:12:28.000Z</time>
      </trkpt>
      <trkpt lat="42.30669024400413036346435546875" lon="2.73663111962378025054931640625">
        <ele>220.399993896484375</ele>
        <time>2020-08-08T10:12:37.000Z</time>
      </trkpt>
      <trkpt lat="42.30664481408894062042236328125" lon="2.73611261509358882904052734375">
        <ele>220.600006103515625</ele>
        <time>2020-08-08T10:12:46.000Z</time>
      </trkpt>
      <trkpt lat="42.30659075081348419189453125" lon="2.735557146370410919189453125">
        <ele>220.8000030517578125</ele>
        <time>2020-08-08T10:12:55.000Z</time>
      </trkpt>
      <trkpt lat="42.30657256208360195159912109375" lon="2.73536914028227329254150390625">
        <ele>221</ele>
        <time>2020-08-08T10:12:58.000Z</time>
      </trkpt>
      <trkpt lat="42.30653249658644199371337890625" lon="2.7350158430635929107666015625">
        <ele>220.8000030517578125</ele>
        <time>2020-08-08T10:13:04.000Z</time>
      </trkpt>
      <trkpt lat="42.30646879412233829498291015625" lon="2.73438803851604461669921875">
        <ele>220.8000030517578125</ele>
        <time>2020-08-08T10:13:14.000Z</time>
      </trkpt>
      <trkpt lat="42.30639553628861904144287109375" lon="2.73394840769469738006591796875">
        <ele>220.600006103515625</ele>
        <time>2020-08-08T10:13:21.000Z</time>
      </trkpt>
      <trkpt lat="42.306361757218837738037109375" lon="2.7337709628045558929443359375">
        <ele>220.600006103515625</ele>
        <time>2020-08-08T10:13:24.000Z</time>
      </trkpt>
      <trkpt lat="42.3063384555280208587646484375" lon="2.73365939967334270477294921875">
        <ele>220.600006103515625</ele>
        <time>2020-08-08T10:13:26.000Z</time>
      </trkpt>
      <trkpt lat="42.3063307441771030426025390625" lon="2.7336039952933788299560546875">
        <ele>220.600006103515625</ele>
        <time>2020-08-08T10:13:27.000Z</time>
      </trkpt>
      <trkpt lat="42.30623862706124782562255859375" lon="2.733073420822620391845703125">
        <ele>220.600006103515625</ele>
        <time>2020-08-08T10:13:36.000Z</time>
      </trkpt>
      <trkpt lat="42.30614550411701202392578125" lon="2.73253655992448329925537109375">
        <ele>220.600006103515625</ele>
        <time>2020-08-08T10:13:45.000Z</time>
      </trkpt>
      <trkpt lat="42.30605028569698333740234375" lon="2.73199207149446010589599609375">
        <ele>220.600006103515625</ele>
        <time>2020-08-08T10:13:54.000Z</time>
      </trkpt>
      <trkpt lat="42.30593419633805751800537109375" lon="2.73133023642003536224365234375">
        <ele>221</ele>
        <time>2020-08-08T10:14:05.000Z</time>
      </trkpt>
      <trkpt lat="42.3058355413377285003662109375" lon="2.73074484430253505706787109375">
        <ele>221.8000030517578125</ele>
        <time>2020-08-08T10:14:16.000Z</time>
      </trkpt>
      <trkpt lat="42.305795811116695404052734375" lon="2.730539403855800628662109375">
        <ele>222</ele>
        <time>2020-08-08T10:14:20.000Z</time>
      </trkpt>
      <trkpt lat="42.3057456873357295989990234375" lon="2.73028559982776641845703125">
        <ele>222.600006103515625</ele>
        <time>2020-08-08T10:14:25.000Z</time>
      </trkpt>
      <trkpt lat="42.30565876699984073638916015625" lon="2.7297578752040863037109375">
        <ele>223</ele>
        <time>2020-08-08T10:14:35.000Z</time>
      </trkpt>
      <trkpt lat="42.305648289620876312255859375" lon="2.72970749996602535247802734375">
        <ele>223</ele>
        <time>2020-08-08T10:14:36.000Z</time>
      </trkpt>
      <trkpt lat="42.30557712726294994354248046875" lon="2.72925722412765026092529296875">
        <ele>223.600006103515625</ele>
        <time>2020-08-08T10:14:45.000Z</time>
      </trkpt>
      <trkpt lat="42.30557410977780818939208984375" lon="2.72910266183316707611083984375">
        <ele>224.1999969482421875</ele>
        <time>2020-08-08T10:14:48.000Z</time>
      </trkpt>
      <trkpt lat="42.30557980947196483612060546875" lon="2.7288963831961154937744140625">
        <ele>224.600006103515625</ele>
        <time>2020-08-08T10:14:52.000Z</time>
      </trkpt>
      <trkpt lat="42.30559892021119594573974609375" lon="2.72853805683553218841552734375">
        <ele>225.1999969482421875</ele>
        <time>2020-08-08T10:14:59.000Z</time>
      </trkpt>
      <trkpt lat="42.30563043616712093353271484375" lon="2.7280092425644397735595703125">
        <ele>225.399993896484375</ele>
        <time>2020-08-08T10:15:09.000Z</time>
      </trkpt>
      <trkpt lat="42.30563445948064327239990234375" lon="2.72795551456511020660400390625">
        <ele>225.399993896484375</ele>
        <time>2020-08-08T10:15:10.000Z</time>
      </trkpt>
      <trkpt lat="42.3056608624756336212158203125" lon="2.72746282629668712615966796875">
        <ele>226.1999969482421875</ele>
        <time>2020-08-08T10:15:19.000Z</time>
      </trkpt>
      <trkpt lat="42.30567075312137603759765625" lon="2.7272997982800006866455078125">
        <ele>226.600006103515625</ele>
        <time>2020-08-08T10:15:22.000Z</time>
      </trkpt>
      <trkpt lat="42.3056866787374019622802734375" lon="2.727087400853633880615234375">
        <ele>226.8000030517578125</ele>
        <time>2020-08-08T10:15:26.000Z</time>
      </trkpt>
      <trkpt lat="42.30568994767963886260986328125" lon="2.7270327508449554443359375">
        <ele>226.8000030517578125</ele>
        <time>2020-08-08T10:15:27.000Z</time>
      </trkpt>
      <trkpt lat="42.30571693740785121917724609375" lon="2.72648088634014129638671875">
        <ele>227.600006103515625</ele>
        <time>2020-08-08T10:15:37.000Z</time>
      </trkpt>
      <trkpt lat="42.30574895627796649932861328125" lon="2.7258740365505218505859375">
        <ele>228.399993896484375</ele>
        <time>2020-08-08T10:15:48.000Z</time>
      </trkpt>
      <trkpt lat="42.3057624511420726776123046875" lon="2.72556181065738201141357421875">
        <ele>228.600006103515625</ele>
        <time>2020-08-08T10:15:54.000Z</time>
      </trkpt>
      <trkpt lat="42.3057787120342254638671875" lon="2.72535829804837703704833984375">
        <ele>229</ele>
        <time>2020-08-08T10:15:58.000Z</time>
      </trkpt>
      <trkpt lat="42.30580125935375690460205078125" lon="2.72490165196359157562255859375">
        <ele>229.600006103515625</ele>
        <time>2020-08-08T10:16:07.000Z</time>
      </trkpt>
      <trkpt lat="42.30580494739115238189697265625" lon="2.72480274550616741180419921875">
        <ele>229.8000030517578125</ele>
        <time>2020-08-08T10:16:09.000Z</time>
      </trkpt>
      <trkpt lat="42.3058181069791316986083984375" lon="2.7245086245238780975341796875">
        <ele>230.399993896484375</ele>
        <time>2020-08-08T10:16:15.000Z</time>
      </trkpt>
      <trkpt lat="42.3058378882706165313720703125" lon="2.7242715843021869659423828125">
        <ele>231</ele>
        <time>2020-08-08T10:16:20.000Z</time>
      </trkpt>
      <trkpt lat="42.3058512993156909942626953125" lon="2.72413185797631740570068359375">
        <ele>231.1999969482421875</ele>
        <time>2020-08-08T10:16:23.000Z</time>
      </trkpt>
      <trkpt lat="42.30588558129966259002685546875" lon="2.7236853539943695068359375">
        <ele>231.8000030517578125</ele>
        <time>2020-08-08T10:16:33.000Z</time>
      </trkpt>
      <trkpt lat="42.30589698068797588348388671875" lon="2.72359625436365604400634765625">
        <ele>232</ele>
        <time>2020-08-08T10:16:35.000Z</time>
      </trkpt>
      <trkpt lat="42.3059290833771228790283203125" lon="2.72326416335999965667724609375">
        <ele>232</ele>
        <time>2020-08-08T10:16:42.000Z</time>
      </trkpt>
      <trkpt lat="42.30595498345792293548583984375" lon="2.7229117043316364288330078125">
        <ele>232</ele>
        <time>2020-08-08T10:16:49.000Z</time>
      </trkpt>
      <trkpt lat="42.305969484150409698486328125" lon="2.722508199512958526611328125">
        <ele>232</ele>
        <time>2020-08-08T10:16:57.000Z</time>
      </trkpt>
      <trkpt lat="42.305976189672946929931640625" lon="2.72205867804586887359619140625">
        <ele>232.1999969482421875</ele>
        <time>2020-08-08T10:17:06.000Z</time>
      </trkpt>
      <trkpt lat="42.30588122271001338958740234375" lon="2.72178609855473041534423828125">
        <ele>232.1999969482421875</ele>
        <time>2020-08-08T10:17:12.000Z</time>
      </trkpt>
      <trkpt lat="42.305720709264278411865234375" lon="2.721446715295314788818359375">
        <ele>232.1999969482421875</ele>
        <time>2020-08-08T10:17:20.000Z</time>
      </trkpt>
      <trkpt lat="42.30553605593740940093994140625" lon="2.72107179276645183563232421875">
        <ele>232.399993896484375</ele>
        <time>2020-08-08T10:17:29.000Z</time>
      </trkpt>
      <trkpt lat="42.30537378229200839996337890625" lon="2.72074825130403041839599609375">
        <ele>232.399993896484375</ele>
        <time>2020-08-08T10:17:37.000Z</time>
      </trkpt>
      <trkpt lat="42.30520069599151611328125" lon="2.720419429242610931396484375">
        <ele>232.600006103515625</ele>
        <time>2020-08-08T10:17:45.000Z</time>
      </trkpt>
      <trkpt lat="42.305038757622241973876953125" lon="2.7201087959110736846923828125">
        <ele>232.600006103515625</ele>
        <time>2020-08-08T10:17:53.000Z</time>
      </trkpt>
      <trkpt lat="42.3049484007060527801513671875" lon="2.7199123241007328033447265625">
        <ele>232.600006103515625</ele>
        <time>2020-08-08T10:17:59.000Z</time>
      </trkpt>
      <trkpt lat="42.3049069941043853759765625" lon="2.7197155170142650604248046875">
        <ele>232.399993896484375</ele>
        <time>2020-08-08T10:18:05.000Z</time>
      </trkpt>
      <trkpt lat="42.30490070767700672149658203125" lon="2.719628512859344482421875">
        <ele>232.399993896484375</ele>
        <time>2020-08-08T10:18:10.000Z</time>
      </trkpt>
      <trkpt lat="42.304900623857975006103515625" lon="2.7196273393929004669189453125">
        <ele>232.399993896484375</ele>
        <time>2020-08-08T10:18:12.000Z</time>
      </trkpt>
      <trkpt lat="42.304328978061676025390625" lon="2.7202429063618183135986328125">
        <ele>235.399993896484375</ele>
        <time>2020-08-08T11:15:21.000Z</time>
      </trkpt>
      <trkpt lat="42.3043552972376346588134765625" lon="2.7202427387237548828125">
        <ele>235.600006103515625</ele>
        <time>2020-08-08T11:15:26.000Z</time>
      </trkpt>
      <trkpt lat="42.304411120712757110595703125" lon="2.720239721238613128662109375">
        <ele>235.600006103515625</ele>
        <time>2020-08-08T11:15:31.000Z</time>
      </trkpt>
      <trkpt lat="42.30446585454046726226806640625" lon="2.72022404707968235015869140625">
        <ele>235.600006103515625</ele>
        <time>2020-08-08T11:15:35.000Z</time>
      </trkpt>
      <trkpt lat="42.30449737049639225006103515625" lon="2.7201989851891994476318359375">
        <ele>235.600006103515625</ele>
        <time>2020-08-08T11:15:38.000Z</time>
      </trkpt>
      <trkpt lat="42.30452855117619037628173828125" lon="2.7201577462255954742431640625">
        <ele>236</ele>
        <time>2020-08-08T11:15:42.000Z</time>
      </trkpt>
      <trkpt lat="42.30456291697919368743896484375" lon="2.72014995105564594268798828125">
        <ele>236.1999969482421875</ele>
        <time>2020-08-08T11:15:44.000Z</time>
      </trkpt>
      <trkpt lat="42.30465427972376346588134765625" lon="2.72010703571140766143798828125">
        <ele>236.600006103515625</ele>
        <time>2020-08-08T11:15:48.000Z</time>
      </trkpt>
      <trkpt lat="42.30469702742993831634521484375" lon="2.72007736377418041229248046875">
        <ele>236.8000030517578125</ele>
        <time>2020-08-08T11:15:51.000Z</time>
      </trkpt>
      <trkpt lat="42.30483516119420528411865234375" lon="2.72004601545631885528564453125">
        <ele>237</ele>
        <time>2020-08-08T11:15:57.000Z</time>
      </trkpt>
      <trkpt lat="42.30486743152141571044921875" lon="2.720033861696720123291015625">
        <ele>237.399993896484375</ele>
        <time>2020-08-08T11:15:59.000Z</time>
      </trkpt>
      <trkpt lat="42.30489232577383518218994140625" lon="2.7199763618409633636474609375">
        <ele>237.399993896484375</ele>
        <time>2020-08-08T11:16:02.000Z</time>
      </trkpt>
      <trkpt lat="42.3048944212496280670166015625" lon="2.7199505455791950225830078125">
        <ele>237.399993896484375</ele>
        <time>2020-08-08T11:16:03.000Z</time>
      </trkpt>
      <trkpt lat="42.30489349924027919769287109375" lon="2.719871588051319122314453125">
        <ele>237.600006103515625</ele>
        <time>2020-08-08T11:16:06.000Z</time>
      </trkpt>
      <trkpt lat="42.3048877157270908355712890625" lon="2.71978734992444515228271484375">
        <ele>237.600006103515625</ele>
        <time>2020-08-08T11:16:09.000Z</time>
      </trkpt>
      <trkpt lat="42.30489735491573810577392578125" lon="2.7197272516787052154541015625">
        <ele>237.600006103515625</ele>
        <time>2020-08-08T11:16:11.000Z</time>
      </trkpt>
      <trkpt lat="42.30498268269002437591552734375" lon="2.719667740166187286376953125">
        <ele>237.600006103515625</ele>
        <time>2020-08-08T11:16:14.000Z</time>
      </trkpt>
      <trkpt lat="42.305009253323078155517578125" lon="2.7196534909307956695556640625">
        <ele>237.600006103515625</ele>
        <time>2020-08-08T11:16:15.000Z</time>
      </trkpt>
      <trkpt lat="42.30514696799218654632568359375" lon="2.7196038700640201568603515625">
        <ele>237.600006103515625</ele>
        <time>2020-08-08T11:16:21.000Z</time>
      </trkpt>
      <trkpt lat="42.30529599823057651519775390625" lon="2.71954410709440708160400390625">
        <ele>238.600006103515625</ele>
        <time>2020-08-08T11:16:28.000Z</time>
      </trkpt>
      <trkpt lat="42.3054291866719722747802734375" lon="2.7194610424339771270751953125">
        <ele>239.600006103515625</ele>
        <time>2020-08-08T11:16:36.000Z</time>
      </trkpt>
      <trkpt lat="42.3054425977170467376708984375" lon="2.719447799026966094970703125">
        <ele>239.8000030517578125</ele>
        <time>2020-08-08T11:16:37.000Z</time>
      </trkpt>
      <trkpt lat="42.3054664023220539093017578125" lon="2.71940714679658412933349609375">
        <ele>240</ele>
        <time>2020-08-08T11:16:40.000Z</time>
      </trkpt>
      <trkpt lat="42.30547050945460796356201171875" lon="2.7193862758576869964599609375">
        <ele>240.1999969482421875</ele>
        <time>2020-08-08T11:16:41.000Z</time>
      </trkpt>
      <trkpt lat="42.30546263046562671661376953125" lon="2.7191830985248088836669921875">
        <ele>240.8000030517578125</ele>
        <time>2020-08-08T11:16:48.000Z</time>
      </trkpt>
      <trkpt lat="42.30545081198215484619140625" lon="2.7191214077174663543701171875">
        <ele>241</ele>
        <time>2020-08-08T11:16:50.000Z</time>
      </trkpt>
      <trkpt lat="42.30543379671871662139892578125" lon="2.7189836092293262481689453125">
        <ele>241</ele>
        <time>2020-08-08T11:16:54.000Z</time>
      </trkpt>
      <trkpt lat="42.30541032738983631134033203125" lon="2.71866383962333202362060546875">
        <ele>241</ele>
        <time>2020-08-08T11:17:03.000Z</time>
      </trkpt>
      <trkpt lat="42.3054338805377483367919921875" lon="2.7184072695672512054443359375">
        <ele>241.1999969482421875</ele>
        <time>2020-08-08T11:17:10.000Z</time>
      </trkpt>
      <trkpt lat="42.3054456152021884918212890625" lon="2.718104682862758636474609375">
        <ele>241.600006103515625</ele>
        <time>2020-08-08T11:17:18.000Z</time>
      </trkpt>
      <trkpt lat="42.30549582280218601226806640625" lon="2.717654071748256683349609375">
        <ele>241.399993896484375</ele>
        <time>2020-08-08T11:17:29.000Z</time>
      </trkpt>
      <trkpt lat="42.30560160242021083831787109375" lon="2.717361710965633392333984375">
        <ele>241</ele>
        <time>2020-08-08T11:17:36.000Z</time>
      </trkpt>
      <trkpt lat="42.30569849722087383270263671875" lon="2.71723573096096515655517578125">
        <ele>241.1999969482421875</ele>
        <time>2020-08-08T11:17:41.000Z</time>
      </trkpt>
      <trkpt lat="42.305756919085979461669921875" lon="2.71714637987315654754638671875">
        <ele>241.1999969482421875</ele>
        <time>2020-08-08T11:17:47.000Z</time>
      </trkpt>
      <trkpt lat="42.30587803758680820465087890625" lon="2.7170118503272533416748046875">
        <ele>240.600006103515625</ele>
        <time>2020-08-08T11:17:54.000Z</time>
      </trkpt>
      <trkpt lat="42.3060132376849651336669921875" lon="2.71684044040739536285400390625">
        <ele>240.399993896484375</ele>
        <time>2020-08-08T11:18:00.000Z</time>
      </trkpt>
      <trkpt lat="42.3061342723667621612548828125" lon="2.7166916616261005401611328125">
        <ele>240.1999969482421875</ele>
        <time>2020-08-08T11:18:04.000Z</time>
      </trkpt>
      <trkpt lat="42.30617500841617584228515625" lon="2.716580517590045928955078125">
        <ele>239.8000030517578125</ele>
        <time>2020-08-08T11:18:06.000Z</time>
      </trkpt>
      <trkpt lat="42.306151874363422393798828125" lon="2.71637826226651668548583984375">
        <ele>239.399993896484375</ele>
        <time>2020-08-08T11:18:09.000Z</time>
      </trkpt>
      <trkpt lat="42.30613284744322299957275390625" lon="2.71631673909723758697509765625">
        <ele>239.1999969482421875</ele>
        <time>2020-08-08T11:18:10.000Z</time>
      </trkpt>
      <trkpt lat="42.30609898455440998077392578125" lon="2.71619997918605804443359375">
        <ele>238.600006103515625</ele>
        <time>2020-08-08T11:18:12.000Z</time>
      </trkpt>
      <trkpt lat="42.3060853220522403717041015625" lon="2.71614273078739643096923828125">
        <ele>238.399993896484375</ele>
        <time>2020-08-08T11:18:13.000Z</time>
      </trkpt>
      <trkpt lat="42.3060737550258636474609375" lon="2.71608707495033740997314453125">
        <ele>238.1999969482421875</ele>
        <time>2020-08-08T11:18:14.000Z</time>
      </trkpt>
      <trkpt lat="42.3060658760368824005126953125" lon="2.71603242494165897369384765625">
        <ele>238.1999969482421875</ele>
        <time>2020-08-08T11:18:15.000Z</time>
      </trkpt>
      <trkpt lat="42.3060447536408901214599609375" lon="2.7157220430672168731689453125">
        <ele>238.399993896484375</ele>
        <time>2020-08-08T11:18:22.000Z</time>
      </trkpt>
      <trkpt lat="42.30601097457110881805419921875" lon="2.7155218832194805145263671875">
        <ele>239</ele>
        <time>2020-08-08T11:18:29.000Z</time>
      </trkpt>
      <trkpt lat="42.30600879527628421783447265625" lon="2.71544569171965122222900390625">
        <ele>240</ele>
        <time>2020-08-08T11:18:32.000Z</time>
      </trkpt>
      <trkpt lat="42.30603142641484737396240234375" lon="2.71535198204219341278076171875">
        <ele>241</ele>
        <time>2020-08-08T11:18:36.000Z</time>
      </trkpt>
      <trkpt lat="42.30604181997478008270263671875" lon="2.71533471532166004180908203125">
        <ele>241.1999969482421875</ele>
        <time>2020-08-08T11:18:37.000Z</time>
      </trkpt>
      <trkpt lat="42.30610317550599575042724609375" lon="2.715299762785434722900390625">
        <ele>242</ele>
        <time>2020-08-08T11:18:41.000Z</time>
      </trkpt>
      <trkpt lat="42.3061473481357097625732421875" lon="2.71526162512600421905517578125">
        <ele>242.1999969482421875</ele>
        <time>2020-08-08T11:18:44.000Z</time>
      </trkpt>
      <trkpt lat="42.30616369284689426422119140625" lon="2.71524913609027862548828125">
        <ele>242.1999969482421875</ele>
        <time>2020-08-08T11:18:45.000Z</time>
      </trkpt>
      <trkpt lat="42.3061942867934703826904296875" lon="2.715218961238861083984375">
        <ele>242.399993896484375</ele>
        <time>2020-08-08T11:18:47.000Z</time>
      </trkpt>
      <trkpt lat="42.30625991709530353546142578125" lon="2.71509046666324138641357421875">
        <ele>243</ele>
        <time>2020-08-08T11:18:53.000Z</time>
      </trkpt>
      <trkpt lat="42.30626461096107959747314453125" lon="2.714969180524349212646484375">
        <ele>243.399993896484375</ele>
        <time>2020-08-08T11:18:58.000Z</time>
      </trkpt>
      <trkpt lat="42.30626218020915985107421875" lon="2.71492517553269863128662109375">
        <ele>243.600006103515625</ele>
        <time>2020-08-08T11:19:00.000Z</time>
      </trkpt>
      <trkpt lat="42.306254804134368896484375" lon="2.71483968012034893035888671875">
        <ele>244.600006103515625</ele>
        <time>2020-08-08T11:19:04.000Z</time>
      </trkpt>
      <trkpt lat="42.3062583245337009429931640625" lon="2.71479760296642780303955078125">
        <ele>244.8000030517578125</ele>
        <time>2020-08-08T11:19:06.000Z</time>
      </trkpt>
      <trkpt lat="42.30624767951667308807373046875" lon="2.7146411128342151641845703125">
        <ele>245.399993896484375</ele>
        <time>2020-08-08T11:19:12.000Z</time>
      </trkpt>
      <trkpt lat="42.3062449134886264801025390625" lon="2.71458738483488559722900390625">
        <ele>245.8000030517578125</ele>
        <time>2020-08-08T11:19:14.000Z</time>
      </trkpt>
      <trkpt lat="42.3062425665557384490966796875" lon="2.71449551917612552642822265625">
        <ele>246.1999969482421875</ele>
        <time>2020-08-08T11:19:18.000Z</time>
      </trkpt>
      <trkpt lat="42.306256480515003204345703125" lon="2.71438454277813434600830078125">
        <ele>246.600006103515625</ele>
        <time>2020-08-08T11:19:23.000Z</time>
      </trkpt>
      <trkpt lat="42.30625404976308345794677734375" lon="2.7143386937677860260009765625">
        <ele>246.8000030517578125</ele>
        <time>2020-08-08T11:19:25.000Z</time>
      </trkpt>
      <trkpt lat="42.3062730766832828521728515625" lon="2.71426350809633731842041015625">
        <ele>247.1999969482421875</ele>
        <time>2020-08-08T11:19:28.000Z</time>
      </trkpt>
      <trkpt lat="42.3062784411013126373291015625" lon="2.714240290224552154541015625">
        <ele>247.399993896484375</ele>
        <time>2020-08-08T11:19:29.000Z</time>
      </trkpt>
      <trkpt lat="42.30629998259246349334716796875" lon="2.7141244523227214813232421875">
        <ele>247.8000030517578125</ele>
        <time>2020-08-08T11:19:34.000Z</time>
      </trkpt>
      <trkpt lat="42.3063044250011444091796875" lon="2.71407441236078739166259765625">
        <ele>248.1999969482421875</ele>
        <time>2020-08-08T11:19:36.000Z</time>
      </trkpt>
      <trkpt lat="42.30630735866725444793701171875" lon="2.7139397151768207550048828125">
        <ele>248.399993896484375</ele>
        <time>2020-08-08T11:19:41.000Z</time>
      </trkpt>
      <trkpt lat="42.30632311664521694183349609375" lon="2.71380870603024959564208984375">
        <ele>249</ele>
        <time>2020-08-08T11:19:46.000Z</time>
      </trkpt>
      <trkpt lat="42.3063471727073192596435546875" lon="2.71366671659052371978759765625">
        <ele>249.1999969482421875</ele>
        <time>2020-08-08T11:19:51.000Z</time>
      </trkpt>
      <trkpt lat="42.30638799257576465606689453125" lon="2.71350461058318614959716796875">
        <ele>249.1999969482421875</ele>
        <time>2020-08-08T11:19:56.000Z</time>
      </trkpt>
      <trkpt lat="42.30638966895639896392822265625" lon="2.713389359414577484130859375">
        <ele>249.399993896484375</ele>
        <time>2020-08-08T11:19:59.000Z</time>
      </trkpt>
      <trkpt lat="42.30638153851032257080078125" lon="2.7133563347160816192626953125">
        <ele>249.1999969482421875</ele>
        <time>2020-08-08T11:20:00.000Z</time>
      </trkpt>
      <trkpt lat="42.30640542693436145782470703125" lon="2.71326287649571895599365234375">
        <ele>249.1999969482421875</ele>
        <time>2020-08-08T11:20:03.000Z</time>
      </trkpt>
      <trkpt lat="42.30641313828527927398681640625" lon="2.7132319472730159759521484375">
        <ele>249.399993896484375</ele>
        <time>2020-08-08T11:20:04.000Z</time>
      </trkpt>
      <trkpt lat="42.3064390383660793304443359375" lon="2.71306313574314117431640625">
        <ele>249.8000030517578125</ele>
        <time>2020-08-08T11:20:10.000Z</time>
      </trkpt>
      <trkpt lat="42.30644297786056995391845703125" lon="2.7129305340349674224853515625">
        <ele>250.1999969482421875</ele>
        <time>2020-08-08T11:20:15.000Z</time>
      </trkpt>
      <trkpt lat="42.3064390383660793304443359375" lon="2.71290396340191364288330078125">
        <ele>250</ele>
        <time>2020-08-08T11:20:16.000Z</time>
      </trkpt>
      <trkpt lat="42.3064358532428741455078125" lon="2.71276432089507579803466796875">
        <ele>250.399993896484375</ele>
        <time>2020-08-08T11:20:21.000Z</time>
      </trkpt>
      <trkpt lat="42.306416071951389312744140625" lon="2.7126002870500087738037109375">
        <ele>250.600006103515625</ele>
        <time>2020-08-08T11:20:26.000Z</time>
      </trkpt>
      <trkpt lat="42.30641104280948638916015625" lon="2.71257095038890838623046875">
        <ele>250.600006103515625</ele>
        <time>2020-08-08T11:20:27.000Z</time>
      </trkpt>
      <trkpt lat="42.30638698674738407135009765625" lon="2.7124896459281444549560546875">
        <ele>250.600006103515625</ele>
        <time>2020-08-08T11:20:30.000Z</time>
      </trkpt>
      <trkpt lat="42.30637961067259311676025390625" lon="2.71246324293315410614013671875">
        <ele>250.8000030517578125</ele>
        <time>2020-08-08T11:20:31.000Z</time>
      </trkpt>
      <trkpt lat="42.30636083520948886871337890625" lon="2.71232008002698421478271484375">
        <ele>251.399993896484375</ele>
        <time>2020-08-08T11:20:36.000Z</time>
      </trkpt>
      <trkpt lat="42.30636385269463062286376953125" lon="2.712252773344516754150390625">
        <ele>251.600006103515625</ele>
        <time>2020-08-08T11:20:39.000Z</time>
      </trkpt>
      <trkpt lat="42.30636519379913806915283203125" lon="2.71216333843767642974853515625">
        <ele>252</ele>
        <time>2020-08-08T11:20:42.000Z</time>
      </trkpt>
      <trkpt lat="42.30637215077877044677734375" lon="2.71213333122432231903076171875">
        <ele>252.1999969482421875</ele>
        <time>2020-08-08T11:20:43.000Z</time>
      </trkpt>
      <trkpt lat="42.306367121636867523193359375" lon="2.71197441034018993377685546875">
        <ele>252.8000030517578125</ele>
        <time>2020-08-08T11:20:48.000Z</time>
      </trkpt>
      <trkpt lat="42.30636435560882091522216796875" lon="2.7118422277271747589111328125">
        <ele>253.1999969482421875</ele>
        <time>2020-08-08T11:20:53.000Z</time>
      </trkpt>
      <trkpt lat="42.30636921711266040802001953125" lon="2.71176788024604320526123046875">
        <ele>253.600006103515625</ele>
        <time>2020-08-08T11:20:56.000Z</time>
      </trkpt>
      <trkpt lat="42.306367456912994384765625" lon="2.71171021275222301483154296875">
        <ele>253.8000030517578125</ele>
        <time>2020-08-08T11:20:58.000Z</time>
      </trkpt>
      <trkpt lat="42.30637022294104099273681640625" lon="2.711643241345882415771484375">
        <ele>254.399993896484375</ele>
        <time>2020-08-08T11:21:01.000Z</time>
      </trkpt>
      <trkpt lat="42.3063693009316921234130859375" lon="2.71156721748411655426025390625">
        <ele>255</ele>
        <time>2020-08-08T11:21:04.000Z</time>
      </trkpt>
      <trkpt lat="42.3063934408128261566162109375" lon="2.7113161794841289520263671875">
        <ele>255</ele>
        <time>2020-08-08T11:21:11.000Z</time>
      </trkpt>
      <trkpt lat="42.30643945746123790740966796875" lon="2.711048126220703125">
        <ele>255.600006103515625</ele>
        <time>2020-08-08T11:21:18.000Z</time>
      </trkpt>
      <trkpt lat="42.30644322931766510009765625" lon="2.71071092225611209869384765625">
        <ele>255.600006103515625</ele>
        <time>2020-08-08T11:21:24.000Z</time>
      </trkpt>
      <trkpt lat="42.306485809385776519775390625" lon="2.71032921038568019866943359375">
        <ele>255.1999969482421875</ele>
        <time>2020-08-08T11:21:31.000Z</time>
      </trkpt>
      <trkpt lat="42.30652227066457271575927734375" lon="2.71002729423344135284423828125">
        <ele>255.399993896484375</ele>
        <time>2020-08-08T11:21:38.000Z</time>
      </trkpt>
      <trkpt lat="42.306570298969745635986328125" lon="2.709692604839801788330078125">
        <ele>255.600006103515625</ele>
        <time>2020-08-08T11:21:46.000Z</time>
      </trkpt>
      <trkpt lat="42.30657138861715793609619140625" lon="2.7095871604979038238525390625">
        <ele>255</ele>
        <time>2020-08-08T11:21:48.000Z</time>
      </trkpt>
      <trkpt lat="42.30657398700714111328125" lon="2.709383480250835418701171875">
        <ele>253.600006103515625</ele>
        <time>2020-08-08T11:21:52.000Z</time>
      </trkpt>
      <trkpt lat="42.30658697895705699920654296875" lon="2.70933360792696475982666015625">
        <ele>253</ele>
        <time>2020-08-08T11:21:53.000Z</time>
      </trkpt>
      <trkpt lat="42.30663475580513477325439453125" lon="2.70923000760376453399658203125">
        <ele>252.399993896484375</ele>
        <time>2020-08-08T11:21:55.000Z</time>
      </trkpt>
      <trkpt lat="42.30669560842216014862060546875" lon="2.70914979279041290283203125">
        <ele>251.8000030517578125</ele>
        <time>2020-08-08T11:21:57.000Z</time>
      </trkpt>
      <trkpt lat="42.30672762729227542877197265625" lon="2.70912322215735912322998046875">
        <ele>251.1999969482421875</ele>
        <time>2020-08-08T11:21:58.000Z</time>
      </trkpt>
      <trkpt lat="42.3067615740001201629638671875" lon="2.7091013453900814056396484375">
        <ele>250.600006103515625</ele>
        <time>2020-08-08T11:21:59.000Z</time>
      </trkpt>
      <trkpt lat="42.3068443872034549713134765625" lon="2.70902548916637897491455078125">
        <ele>250</ele>
        <time>2020-08-08T11:22:02.000Z</time>
      </trkpt>
      <trkpt lat="42.3069590516388416290283203125" lon="2.70901828072965145111083984375">
        <ele>248.8000030517578125</ele>
        <time>2020-08-08T11:22:05.000Z</time>
      </trkpt>
      <trkpt lat="42.30699710547924041748046875" lon="2.70904376171529293060302734375">
        <ele>248.399993896484375</ele>
        <time>2020-08-08T11:22:06.000Z</time>
      </trkpt>
      <trkpt lat="42.30710816569626331329345703125" lon="2.7091184444725513458251953125">
        <ele>248</ele>
        <time>2020-08-08T11:22:09.000Z</time>
      </trkpt>
      <trkpt lat="42.307209670543670654296875" lon="2.70917468704283237457275390625">
        <ele>248.1999969482421875</ele>
        <time>2020-08-08T11:22:12.000Z</time>
      </trkpt>
      <trkpt lat="42.3073375783860683441162109375" lon="2.70918910391628742218017578125">
        <ele>248.399993896484375</ele>
        <time>2020-08-08T11:22:17.000Z</time>
      </trkpt>
      <trkpt lat="42.30745350010693073272705078125" lon="2.7091181091964244842529296875">
        <ele>248.600006103515625</ele>
        <time>2020-08-08T11:22:22.000Z</time>
      </trkpt>
      <trkpt lat="42.307527177035808563232421875" lon="2.708946950733661651611328125">
        <ele>248</ele>
        <time>2020-08-08T11:22:27.000Z</time>
      </trkpt>
      <trkpt lat="42.307585515081882476806640625" lon="2.70876632072031497955322265625">
        <ele>248</ele>
        <time>2020-08-08T11:22:32.000Z</time>
      </trkpt>
      <trkpt lat="42.30763547122478485107421875" lon="2.70853481255471706390380859375">
        <ele>248</ele>
        <time>2020-08-08T11:22:38.000Z</time>
      </trkpt>
      <trkpt lat="42.307649888098239898681640625" lon="2.70826441235840320587158203125">
        <ele>248</ele>
        <time>2020-08-08T11:22:44.000Z</time>
      </trkpt>
      <trkpt lat="42.3076631315052509307861328125" lon="2.707971297204494476318359375">
        <ele>247.600006103515625</ele>
        <time>2020-08-08T11:22:50.000Z</time>
      </trkpt>
      <trkpt lat="42.30768383480608463287353515625" lon="2.7075071074068546295166015625">
        <ele>247.399993896484375</ele>
        <time>2020-08-08T11:22:59.000Z</time>
      </trkpt>
      <trkpt lat="42.30765399523079395294189453125" lon="2.70731323398649692535400390625">
        <ele>247.399993896484375</ele>
        <time>2020-08-08T11:23:03.000Z</time>
      </trkpt>
      <trkpt lat="42.30763337574899196624755859375" lon="2.7072586677968502044677734375">
        <ele>247.1999969482421875</ele>
        <time>2020-08-08T11:23:04.000Z</time>
      </trkpt>
      <trkpt lat="42.30754352174699306488037109375" lon="2.7070414088666439056396484375">
        <ele>246.1999969482421875</ele>
        <time>2020-08-08T11:23:07.000Z</time>
      </trkpt>
      <trkpt lat="42.30750882066786289215087890625" lon="2.70695415325462818145751953125">
        <ele>245.8000030517578125</ele>
        <time>2020-08-08T11:23:08.000Z</time>
      </trkpt>
      <trkpt lat="42.307474203407764434814453125" lon="2.7068657241761684417724609375">
        <ele>245</ele>
        <time>2020-08-08T11:23:09.000Z</time>
      </trkpt>
      <trkpt lat="42.30744428001344203948974609375" lon="2.70677209831774234771728515625">
        <ele>244.399993896484375</ele>
        <time>2020-08-08T11:23:10.000Z</time>
      </trkpt>
      <trkpt lat="42.30742014013230800628662109375" lon="2.7066746167838573455810546875">
        <ele>243.600006103515625</ele>
        <time>2020-08-08T11:23:11.000Z</time>
      </trkpt>
      <trkpt lat="42.30740136466920375823974609375" lon="2.70657428540289402008056640625">
        <ele>243.399993896484375</ele>
        <time>2020-08-08T11:23:12.000Z</time>
      </trkpt>
      <trkpt lat="42.307387702167034149169921875" lon="2.70647319965064525604248046875">
        <ele>243</ele>
        <time>2020-08-08T11:23:13.000Z</time>
      </trkpt>
      <trkpt lat="42.30737487785518169403076171875" lon="2.7063716948032379150390625">
        <ele>242.600006103515625</ele>
        <time>2020-08-08T11:23:14.000Z</time>
      </trkpt>
      <trkpt lat="42.30727932415902614593505859375" lon="2.70591429434716701507568359375">
        <ele>241.8000030517578125</ele>
        <time>2020-08-08T11:23:19.000Z</time>
      </trkpt>
      <trkpt lat="42.307236827909946441650390625" lon="2.70569401793181896209716796875">
        <ele>242.8000030517578125</ele>
        <time>2020-08-08T11:23:23.000Z</time>
      </trkpt>
      <trkpt lat="42.30724789202213287353515625" lon="2.70554146729409694671630859375">
        <ele>243.8000030517578125</ele>
        <time>2020-08-08T11:23:27.000Z</time>
      </trkpt>
      <trkpt lat="42.30725702829658985137939453125" lon="2.70548053085803985595703125">
        <ele>244.1999969482421875</ele>
        <time>2020-08-08T11:23:29.000Z</time>
      </trkpt>
      <trkpt lat="42.30730514042079448699951171875" lon="2.70533166825771331787109375">
        <ele>244.8000030517578125</ele>
        <time>2020-08-08T11:23:34.000Z</time>
      </trkpt>
      <trkpt lat="42.30733514763414859771728515625" lon="2.7052835561335086822509765625">
        <ele>245.1999969482421875</ele>
        <time>2020-08-08T11:23:36.000Z</time>
      </trkpt>
      <trkpt lat="42.30742198415100574493408203125" lon="2.7052218653261661529541015625">
        <ele>246</ele>
        <time>2020-08-08T11:23:41.000Z</time>
      </trkpt>
      <trkpt lat="42.30746188201010227203369140625" lon="2.70520485006272792816162109375">
        <ele>246.1999969482421875</ele>
        <time>2020-08-08T11:23:43.000Z</time>
      </trkpt>
      <trkpt lat="42.3075585253536701202392578125" lon="2.70515103824436664581298828125">
        <ele>246.399993896484375</ele>
        <time>2020-08-08T11:23:48.000Z</time>
      </trkpt>
      <trkpt lat="42.3076376505196094512939453125" lon="2.70510963164269924163818359375">
        <ele>246.8000030517578125</ele>
        <time>2020-08-08T11:23:53.000Z</time>
      </trkpt>
      <trkpt lat="42.3076537437736988067626953125" lon="2.7051015011966228485107421875">
        <ele>247</ele>
        <time>2020-08-08T11:23:54.000Z</time>
      </trkpt>
      <trkpt lat="42.30770076625049114227294921875" lon="2.70507057197391986846923828125">
        <ele>248</ele>
        <time>2020-08-08T11:23:57.000Z</time>
      </trkpt>
      <trkpt lat="42.3077456094324588775634765625" lon="2.70504978485405445098876953125">
        <ele>249</ele>
        <time>2020-08-08T11:24:00.000Z</time>
      </trkpt>
      <trkpt lat="42.30780822224915027618408203125" lon="2.70502598024904727935791015625">
        <ele>250.1999969482421875</ele>
        <time>2020-08-08T11:24:04.000Z</time>
      </trkpt>
      <trkpt lat="42.3078542388975620269775390625" lon="2.70498993806540966033935546875">
        <ele>250.600006103515625</ele>
        <time>2020-08-08T11:24:07.000Z</time>
      </trkpt>
      <trkpt lat="42.3078911192715167999267578125" lon="2.70494216121733188629150390625">
        <ele>251.399993896484375</ele>
        <time>2020-08-08T11:24:10.000Z</time>
      </trkpt>
      <trkpt lat="42.307948283851146697998046875" lon="2.7048839069902896881103515625">
        <ele>251.8000030517578125</ele>
        <time>2020-08-08T11:24:14.000Z</time>
      </trkpt>
      <trkpt lat="42.30810594744980335235595703125" lon="2.7048480324447154998779296875">
        <ele>252</ele>
        <time>2020-08-08T11:24:21.000Z</time>
      </trkpt>
      <trkpt lat="42.30820812284946441650390625" lon="2.70481291227042675018310546875">
        <ele>251.8000030517578125</ele>
        <time>2020-08-08T11:24:24.000Z</time>
      </trkpt>
      <trkpt lat="42.30823972262442111968994140625" lon="2.7047809772193431854248046875">
        <ele>251.8000030517578125</ele>
        <time>2020-08-08T11:24:25.000Z</time>
      </trkpt>
      <trkpt lat="42.30840685777366161346435546875" lon="2.7046121656894683837890625">
        <ele>251.399993896484375</ele>
        <time>2020-08-08T11:24:30.000Z</time>
      </trkpt>
      <trkpt lat="42.308609783649444580078125" lon="2.704434134066104888916015625">
        <ele>250.1999969482421875</ele>
        <time>2020-08-08T11:24:35.000Z</time>
      </trkpt>
      <trkpt lat="42.30864557437598705291748046875" lon="2.70438610576093196868896484375">
        <ele>249.600006103515625</ele>
        <time>2020-08-08T11:24:36.000Z</time>
      </trkpt>
      <trkpt lat="42.30877499096095561981201171875" lon="2.7042579464614391326904296875">
        <ele>248.600006103515625</ele>
        <time>2020-08-08T11:24:39.000Z</time>
      </trkpt>
      <trkpt lat="42.30881991796195507049560546875" lon="2.7042286098003387451171875">
        <ele>248.399993896484375</ele>
        <time>2020-08-08T11:24:40.000Z</time>
      </trkpt>
      <trkpt lat="42.30899375863373279571533203125" lon="2.70413531921803951263427734375">
        <ele>248.600006103515625</ele>
        <time>2020-08-08T11:24:44.000Z</time>
      </trkpt>
      <trkpt lat="42.3090793378651142120361328125" lon="2.70410682074725627899169921875">
        <ele>249.600006103515625</ele>
        <time>2020-08-08T11:24:47.000Z</time>
      </trkpt>
      <trkpt lat="42.30910490266978740692138671875" lon="2.704100869596004486083984375">
        <ele>249.8000030517578125</ele>
        <time>2020-08-08T11:24:48.000Z</time>
      </trkpt>
      <trkpt lat="42.30924689210951328277587890625" lon="2.7040504105389118194580078125">
        <ele>250</ele>
        <time>2020-08-08T11:24:54.000Z</time>
      </trkpt>
      <trkpt lat="42.3094126023352146148681640625" lon="2.704020403325557708740234375">
        <ele>250</ele>
        <time>2020-08-08T11:25:00.000Z</time>
      </trkpt>
      <trkpt lat="42.30955149047076702117919921875" lon="2.70398042164742946624755859375">
        <ele>250.399993896484375</ele>
        <time>2020-08-08T11:25:06.000Z</time>
      </trkpt>
      <trkpt lat="42.3096759617328643798828125" lon="2.70397019572556018829345703125">
        <ele>250.600006103515625</ele>
        <time>2020-08-08T11:25:11.000Z</time>
      </trkpt>
      <trkpt lat="42.30979305692017078399658203125" lon="2.70391948521137237548828125">
        <ele>250.8000030517578125</ele>
        <time>2020-08-08T11:25:16.000Z</time>
      </trkpt>
      <trkpt lat="42.309904284775257110595703125" lon="2.70388520322740077972412109375">
        <ele>251.1999969482421875</ele>
        <time>2020-08-08T11:25:21.000Z</time>
      </trkpt>
      <trkpt lat="42.30995415709912776947021484375" lon="2.70385704003274440765380859375">
        <ele>251.8000030517578125</ele>
        <time>2020-08-08T11:25:24.000Z</time>
      </trkpt>
      <trkpt lat="42.310016937553882598876953125" lon="2.7038378454744815826416015625">
        <ele>252.399993896484375</ele>
        <time>2020-08-08T11:25:27.000Z</time>
      </trkpt>
      <trkpt lat="42.31008072383701801300048828125" lon="2.703825943171977996826171875">
        <ele>253</ele>
        <time>2020-08-08T11:25:30.000Z</time>
      </trkpt>
      <trkpt lat="42.31011358089745044708251953125" lon="2.70381563343107700347900390625">
        <ele>253.399993896484375</ele>
        <time>2020-08-08T11:25:32.000Z</time>
      </trkpt>
      <trkpt lat="42.3101800493896007537841796875" lon="2.70379166118800640106201171875">
        <ele>254.1999969482421875</ele>
        <time>2020-08-08T11:25:36.000Z</time>
      </trkpt>
      <trkpt lat="42.31021533720195293426513671875" lon="2.70378596149384975433349609375">
        <ele>254.600006103515625</ele>
        <time>2020-08-08T11:25:38.000Z</time>
      </trkpt>
      <trkpt lat="42.3102474398910999298095703125" lon="2.70377774722874164581298828125">
        <ele>255</ele>
        <time>2020-08-08T11:25:40.000Z</time>
      </trkpt>
      <trkpt lat="42.310289181768894195556640625" lon="2.703759558498859405517578125">
        <ele>255.1999969482421875</ele>
        <time>2020-08-08T11:25:42.000Z</time>
      </trkpt>
      <trkpt lat="42.3103322647511959075927734375" lon="2.70375109277665615081787109375">
        <ele>255.399993896484375</ele>
        <time>2020-08-08T11:25:44.000Z</time>
      </trkpt>
      <trkpt lat="42.310364954173564910888671875" lon="2.70374589599668979644775390625">
        <ele>255.600006103515625</ele>
        <time>2020-08-08T11:25:46.000Z</time>
      </trkpt>
      <trkpt lat="42.31038364581763744354248046875" lon="2.70374287851154804229736328125">
        <ele>255.8000030517578125</ele>
        <time>2020-08-08T11:25:47.000Z</time>
      </trkpt>
      <trkpt lat="42.3105020821094512939453125" lon="2.70374019630253314971923828125">
        <ele>256.20001220703125</ele>
        <time>2020-08-08T11:25:53.000Z</time>
      </trkpt>
      <trkpt lat="42.31065186671912670135498046875" lon="2.7037848718464374542236328125">
        <ele>256.79998779296875</ele>
        <time>2020-08-08T11:25:59.000Z</time>
      </trkpt>
      <trkpt lat="42.31067952699959278106689453125" lon="2.7038061618804931640625">
        <ele>257</ele>
        <time>2020-08-08T11:26:00.000Z</time>
      </trkpt>
      <trkpt lat="42.31079787947237491607666015625" lon="2.703859470784664154052734375">
        <ele>257.399993896484375</ele>
        <time>2020-08-08T11:26:05.000Z</time>
      </trkpt>
      <trkpt lat="42.31083660386502742767333984375" lon="2.70387615077197551727294921875">
        <ele>257.79998779296875</ele>
        <time>2020-08-08T11:26:07.000Z</time>
      </trkpt>
      <trkpt lat="42.31090147979557514190673828125" lon="2.7038522623479366302490234375">
        <ele>257.79998779296875</ele>
        <time>2020-08-08T11:26:10.000Z</time>
      </trkpt>
      <trkpt lat="42.31103424914181232452392578125" lon="2.70380574278533458709716796875">
        <ele>257.600006103515625</ele>
        <time>2020-08-08T11:26:15.000Z</time>
      </trkpt>
      <trkpt lat="42.3111805133521556854248046875" lon="2.703662998974323272705078125">
        <ele>257.20001220703125</ele>
        <time>2020-08-08T11:26:20.000Z</time>
      </trkpt>
      <trkpt lat="42.31136181391775608062744140625" lon="2.70345001481473445892333984375">
        <ele>255.8000030517578125</ele>
        <time>2020-08-08T11:26:24.000Z</time>
      </trkpt>
      <trkpt lat="42.311552502214908599853515625" lon="2.7030975557863712310791015625">
        <ele>254.600006103515625</ele>
        <time>2020-08-08T11:26:29.000Z</time>
      </trkpt>
      <trkpt lat="42.31158728711307048797607421875" lon="2.70303678698837757110595703125">
        <ele>254.600006103515625</ele>
        <time>2020-08-08T11:26:30.000Z</time>
      </trkpt>
      <trkpt lat="42.311722151935100555419921875" lon="2.70277393050491809844970703125">
        <ele>255.1999969482421875</ele>
        <time>2020-08-08T11:26:35.000Z</time>
      </trkpt>
      <trkpt lat="42.31177470646798610687255859375" lon="2.70267569459974765777587890625">
        <ele>255.8000030517578125</ele>
        <time>2020-08-08T11:26:38.000Z</time>
      </trkpt>
      <trkpt lat="42.311796583235263824462890625" lon="2.70264904014766216278076171875">
        <ele>255.8000030517578125</ele>
        <time>2020-08-08T11:26:39.000Z</time>
      </trkpt>
      <trkpt lat="42.31188300065696239471435546875" lon="2.7024705894291400909423828125">
        <ele>256.600006103515625</ele>
        <time>2020-08-08T11:26:45.000Z</time>
      </trkpt>
      <trkpt lat="42.31195650994777679443359375" lon="2.702373526990413665771484375">
        <ele>256.79998779296875</ele>
        <time>2020-08-08T11:26:49.000Z</time>
      </trkpt>
      <trkpt lat="42.31199271976947784423828125" lon="2.70232700742781162261962890625">
        <ele>257</ele>
        <time>2020-08-08T11:26:51.000Z</time>
      </trkpt>
      <trkpt lat="42.31209539808332920074462890625" lon="2.70223363302648067474365234375">
        <ele>257.600006103515625</ele>
        <time>2020-08-08T11:26:56.000Z</time>
      </trkpt>
      <trkpt lat="42.31215273030102252960205078125" lon="2.7022010274231433868408203125">
        <ele>257.79998779296875</ele>
        <time>2020-08-08T11:26:58.000Z</time>
      </trkpt>
      <trkpt lat="42.3122259043157100677490234375" lon="2.70215098746120929718017578125">
        <ele>258</ele>
        <time>2020-08-08T11:27:00.000Z</time>
      </trkpt>
      <trkpt lat="42.31226722709834575653076171875" lon="2.7021141909062862396240234375">
        <ele>258</ele>
        <time>2020-08-08T11:27:01.000Z</time>
      </trkpt>
      <trkpt lat="42.31240720488131046295166015625" lon="2.7019975148141384124755859375">
        <ele>257.20001220703125</ele>
        <time>2020-08-08T11:27:04.000Z</time>
      </trkpt>
      <trkpt lat="42.31245749630033969879150390625" lon="2.70196893252432346343994140625">
        <ele>256.600006103515625</ele>
        <time>2020-08-08T11:27:05.000Z</time>
      </trkpt>
      <trkpt lat="42.3125095479190349578857421875" lon="2.70194814540445804595947265625">
        <ele>256.79998779296875</ele>
        <time>2020-08-08T11:27:06.000Z</time>
      </trkpt>
      <trkpt lat="42.312618009746074676513671875" lon="2.70192115567624568939208984375">
        <ele>255.8000030517578125</ele>
        <time>2020-08-08T11:27:08.000Z</time>
      </trkpt>
      <trkpt lat="42.3126711510121822357177734375" lon="2.70190891809761524200439453125">
        <ele>255.600006103515625</ele>
        <time>2020-08-08T11:27:09.000Z</time>
      </trkpt>
      <trkpt lat="42.3127229511737823486328125" lon="2.70190422423183917999267578125">
        <ele>255.600006103515625</ele>
        <time>2020-08-08T11:27:10.000Z</time>
      </trkpt>
      <trkpt lat="42.31277190148830413818359375" lon="2.701910175383090972900390625">
        <ele>255.399993896484375</ele>
        <time>2020-08-08T11:27:11.000Z</time>
      </trkpt>
      <trkpt lat="42.31288933195173740386962890625" lon="2.70198888145387172698974609375">
        <ele>254.8000030517578125</ele>
        <time>2020-08-08T11:27:14.000Z</time>
      </trkpt>
      <trkpt lat="42.31295269913971424102783203125" lon="2.70208225585520267486572265625">
        <ele>254.600006103515625</ele>
        <time>2020-08-08T11:27:17.000Z</time>
      </trkpt>
      <trkpt lat="42.313023023307323455810546875" lon="2.702145874500274658203125">
        <ele>254.8000030517578125</ele>
        <time>2020-08-08T11:27:20.000Z</time>
      </trkpt>
      <trkpt lat="42.31317331083118915557861328125" lon="2.7022974193096160888671875">
        <ele>255.8000030517578125</ele>
        <time>2020-08-08T11:27:28.000Z</time>
      </trkpt>
      <trkpt lat="42.31320298276841640472412109375" lon="2.7024021930992603302001953125">
        <ele>256.399993896484375</ele>
        <time>2020-08-08T11:27:32.000Z</time>
      </trkpt>
      <trkpt lat="42.3132199980318546295166015625" lon="2.70252264104783535003662109375">
        <ele>257</ele>
        <time>2020-08-08T11:27:37.000Z</time>
      </trkpt>
      <trkpt lat="42.31322142295539379119873046875" lon="2.702572010457515716552734375">
        <ele>257.399993896484375</ele>
        <time>2020-08-08T11:27:39.000Z</time>
      </trkpt>
      <trkpt lat="42.3132196627557277679443359375" lon="2.70267183892428874969482421875">
        <ele>258.600006103515625</ele>
        <time>2020-08-08T11:27:43.000Z</time>
      </trkpt>
      <trkpt lat="42.31321555562317371368408203125" lon="2.7026958949863910675048828125">
        <ele>258.600006103515625</ele>
        <time>2020-08-08T11:27:44.000Z</time>
      </trkpt>
      <trkpt lat="42.31318890117108821868896484375" lon="2.7028065361082553863525390625">
        <ele>259.600006103515625</ele>
        <time>2020-08-08T11:27:49.000Z</time>
      </trkpt>
      <trkpt lat="42.3131680302321910858154296875" lon="2.702872417867183685302734375">
        <ele>260</ele>
        <time>2020-08-08T11:27:52.000Z</time>
      </trkpt>
      <trkpt lat="42.31314883567392826080322265625" lon="2.70301834680140018463134765625">
        <ele>260.600006103515625</ele>
        <time>2020-08-08T11:27:58.000Z</time>
      </trkpt>
      <trkpt lat="42.3131495900452136993408203125" lon="2.70304617471992969512939453125">
        <ele>261</ele>
        <time>2020-08-08T11:27:59.000Z</time>
      </trkpt>
      <trkpt lat="42.313189320266246795654296875" lon="2.70320467650890350341796875">
        <ele>261.79998779296875</ele>
        <time>2020-08-08T11:28:05.000Z</time>
      </trkpt>
      <trkpt lat="42.3131977021694183349609375" lon="2.70323158241808414459228515625">
        <ele>262</ele>
        <time>2020-08-08T11:28:06.000Z</time>
      </trkpt>
      <trkpt lat="42.31330893002450466156005859375" lon="2.70342051051557064056396484375">
        <ele>262.20001220703125</ele>
        <time>2020-08-08T11:28:14.000Z</time>
      </trkpt>
      <trkpt lat="42.31341152451932430267333984375" lon="2.7035339176654815673828125">
        <ele>262</ele>
        <time>2020-08-08T11:28:20.000Z</time>
      </trkpt>
      <trkpt lat="42.31356273405253887176513671875" lon="2.70362033508718013763427734375">
        <ele>262.399993896484375</ele>
        <time>2020-08-08T11:28:27.000Z</time>
      </trkpt>
      <trkpt lat="42.31362526305019855499267578125" lon="2.70364983938634395599365234375">
        <ele>262.79998779296875</ele>
        <time>2020-08-08T11:28:30.000Z</time>
      </trkpt>
      <trkpt lat="42.3137286119163036346435546875" lon="2.7037332393229007720947265625">
        <ele>262.79998779296875</ele>
        <time>2020-08-08T11:28:35.000Z</time>
      </trkpt>
      <trkpt lat="42.3139059729874134063720703125" lon="2.70381110720336437225341796875">
        <ele>263.399993896484375</ele>
        <time>2020-08-08T11:28:43.000Z</time>
      </trkpt>
      <trkpt lat="42.31413505040109157562255859375" lon="2.70386760123074054718017578125">
        <ele>263.399993896484375</ele>
        <time>2020-08-08T11:28:53.000Z</time>
      </trkpt>
      <trkpt lat="42.31419824995100498199462890625" lon="2.7038445509970188140869140625">
        <ele>263.600006103515625</ele>
        <time>2020-08-08T11:28:56.000Z</time>
      </trkpt>
      <trkpt lat="42.31425524689257144927978515625" lon="2.7038234286010265350341796875">
        <ele>263.79998779296875</ele>
        <time>2020-08-08T11:28:59.000Z</time>
      </trkpt>
      <trkpt lat="42.3144212923943996429443359375" lon="2.7037945948541164398193359375">
        <ele>264</ele>
        <time>2020-08-08T11:29:06.000Z</time>
      </trkpt>
      <trkpt lat="42.31460611335933208465576171875" lon="2.7037932537496089935302734375">
        <ele>264</ele>
        <time>2020-08-08T11:29:13.000Z</time>
      </trkpt>
      <trkpt lat="42.31477660126984119415283203125" lon="2.70373349077999591827392578125">
        <ele>264.399993896484375</ele>
        <time>2020-08-08T11:29:20.000Z</time>
      </trkpt>
      <trkpt lat="42.3149439878761768341064453125" lon="2.70354338921606540679931640625">
        <ele>264.600006103515625</ele>
        <time>2020-08-08T11:29:29.000Z</time>
      </trkpt>
      <trkpt lat="42.31497944332659244537353515625" lon="2.70351220853626728057861328125">
        <ele>264.600006103515625</ele>
        <time>2020-08-08T11:29:31.000Z</time>
      </trkpt>
      <trkpt lat="42.31507415883243083953857421875" lon="2.7034614980220794677734375">
        <ele>265.399993896484375</ele>
        <time>2020-08-08T11:29:36.000Z</time>
      </trkpt>
      <trkpt lat="42.31513199396431446075439453125" lon="2.703434340655803680419921875">
        <ele>265.600006103515625</ele>
        <time>2020-08-08T11:29:39.000Z</time>
      </trkpt>
      <trkpt lat="42.3152048327028751373291015625" lon="2.70339243113994598388671875">
        <ele>265.79998779296875</ele>
        <time>2020-08-08T11:29:43.000Z</time>
      </trkpt>
      <trkpt lat="42.31528739444911479949951171875" lon="2.7033178322017192840576171875">
        <ele>266.600006103515625</ele>
        <time>2020-08-08T11:29:48.000Z</time>
      </trkpt>
      <trkpt lat="42.3153010569512844085693359375" lon="2.70329989492893218994140625">
        <ele>266.600006103515625</ele>
        <time>2020-08-08T11:29:49.000Z</time>
      </trkpt>
      <trkpt lat="42.31537456624209880828857421875" lon="2.70316779613494873046875">
        <ele>267.600006103515625</ele>
        <time>2020-08-08T11:29:56.000Z</time>
      </trkpt>
      <trkpt lat="42.31537892483174800872802734375" lon="2.70314441062510013580322265625">
        <ele>267.79998779296875</ele>
        <time>2020-08-08T11:29:57.000Z</time>
      </trkpt>
      <trkpt lat="42.31536601670086383819580078125" lon="2.70303779281675815582275390625">
        <ele>268.600006103515625</ele>
        <time>2020-08-08T11:30:02.000Z</time>
      </trkpt>
      <trkpt lat="42.3153553716838359832763671875" lon="2.70302320830523967742919921875">
        <ele>268.79998779296875</ele>
        <time>2020-08-08T11:30:03.000Z</time>
      </trkpt>
      <trkpt lat="42.3152911663055419921875" lon="2.70299906842410564422607421875">
        <ele>269.600006103515625</ele>
        <time>2020-08-08T11:30:07.000Z</time>
      </trkpt>
      <trkpt lat="42.3152598179876804351806640625" lon="2.702993452548980712890625">
        <ele>270</ele>
        <time>2020-08-08T11:30:09.000Z</time>
      </trkpt>
      <trkpt lat="42.31520122848451137542724609375" lon="2.70298901014029979705810546875">
        <ele>270.600006103515625</ele>
        <time>2020-08-08T11:30:13.000Z</time>
      </trkpt>
      <trkpt lat="42.3151649348437786102294921875" lon="2.7029849030077457427978515625">
        <ele>271</ele>
        <time>2020-08-08T11:30:15.000Z</time>
      </trkpt>
      <trkpt lat="42.3151127994060516357421875" lon="2.7030013315379619598388671875">
        <ele>271.600006103515625</ele>
        <time>2020-08-08T11:30:18.000Z</time>
      </trkpt>
      <trkpt lat="42.3150304891169071197509765625" lon="2.7030231244862079620361328125">
        <ele>272.20001220703125</ele>
        <time>2020-08-08T11:30:23.000Z</time>
      </trkpt>
      <trkpt lat="42.315005175769329071044921875" lon="2.7030362002551555633544921875">
        <ele>272.399993896484375</ele>
        <time>2020-08-08T11:30:25.000Z</time>
      </trkpt>
      <trkpt lat="42.31497810222208499908447265625" lon="2.70305690355598926544189453125">
        <ele>272.79998779296875</ele>
        <time>2020-08-08T11:30:27.000Z</time>
      </trkpt>
      <trkpt lat="42.31493770144879817962646484375" lon="2.703086324036121368408203125">
        <ele>273.20001220703125</ele>
        <time>2020-08-08T11:30:30.000Z</time>
      </trkpt>
      <trkpt lat="42.31490601785480976104736328125" lon="2.7030992321670055389404296875">
        <ele>273.600006103515625</ele>
        <time>2020-08-08T11:30:32.000Z</time>
      </trkpt>
      <trkpt lat="42.3148346878588199615478515625" lon="2.70314457826316356658935546875">
        <ele>274.20001220703125</ele>
        <time>2020-08-08T11:30:38.000Z</time>
      </trkpt>
      <trkpt lat="42.3147334344685077667236328125" lon="2.703187577426433563232421875">
        <ele>275</ele>
        <time>2020-08-08T11:30:45.000Z</time>
      </trkpt>
      <trkpt lat="42.3147156648337841033935546875" lon="2.7031852304935455322265625">
        <ele>275.399993896484375</ele>
        <time>2020-08-08T11:30:46.000Z</time>
      </trkpt>
      <trkpt lat="42.314667887985706329345703125" lon="2.7031676284968852996826171875">
        <ele>275.79998779296875</ele>
        <time>2020-08-08T11:30:49.000Z</time>
      </trkpt>
      <trkpt lat="42.314639054238796234130859375" lon="2.7031159959733486175537109375">
        <ele>276.399993896484375</ele>
        <time>2020-08-08T11:30:52.000Z</time>
      </trkpt>
      <trkpt lat="42.314669899642467498779296875" lon="2.7030325122177600860595703125">
        <ele>277.399993896484375</ele>
        <time>2020-08-08T11:30:57.000Z</time>
      </trkpt>
      <trkpt lat="42.31474558822810649871826171875" lon="2.70306360907852649688720703125">
        <ele>278.20001220703125</ele>
        <time>2020-08-08T11:31:02.000Z</time>
      </trkpt>
      <trkpt lat="42.3147602565586566925048828125" lon="2.70307048223912715911865234375">
        <ele>278.399993896484375</ele>
        <time>2020-08-08T11:31:03.000Z</time>
      </trkpt>
      <trkpt lat="42.3148410581052303314208984375" lon="2.70303812809288501739501953125">
        <ele>279.20001220703125</ele>
        <time>2020-08-08T11:31:09.000Z</time>
      </trkpt>
      <trkpt lat="42.31486343778669834136962890625" lon="2.703011222183704376220703125">
        <ele>279.399993896484375</ele>
        <time>2020-08-08T11:31:11.000Z</time>
      </trkpt>
      <trkpt lat="42.314889170229434967041015625" lon="2.70298599265515804290771484375">
        <ele>279.79998779296875</ele>
        <time>2020-08-08T11:31:13.000Z</time>
      </trkpt>
      <trkpt lat="42.31492646969854831695556640625" lon="2.7029362879693508148193359375">
        <ele>280.20001220703125</ele>
        <time>2020-08-08T11:31:16.000Z</time>
      </trkpt>
      <trkpt lat="42.31496217660605907440185546875" lon="2.70289211533963680267333984375">
        <ele>280.79998779296875</ele>
        <time>2020-08-08T11:31:19.000Z</time>
      </trkpt>
      <trkpt lat="42.31498539447784423828125" lon="2.70286462269723415374755859375">
        <ele>281</ele>
        <time>2020-08-08T11:31:21.000Z</time>
      </trkpt>
      <trkpt lat="42.3150090314447879791259765625" lon="2.7028373815119266510009765625">
        <ele>281.399993896484375</ele>
        <time>2020-08-08T11:31:23.000Z</time>
      </trkpt>
      <trkpt lat="42.31503208167850971221923828125" lon="2.7028216235339641571044921875">
        <ele>281.600006103515625</ele>
        <time>2020-08-08T11:31:25.000Z</time>
      </trkpt>
      <trkpt lat="42.315087653696537017822265625" lon="2.7028015069663524627685546875">
        <ele>281.79998779296875</ele>
        <time>2020-08-08T11:31:29.000Z</time>
      </trkpt>
      <trkpt lat="42.31513953767716884613037109375" lon="2.70277275703847408294677734375">
        <ele>282.399993896484375</ele>
        <time>2020-08-08T11:31:33.000Z</time>
      </trkpt>
      <trkpt lat="42.31515546329319477081298828125" lon="2.70274559967219829559326171875">
        <ele>283</ele>
        <time>2020-08-08T11:31:35.000Z</time>
      </trkpt>
      <trkpt lat="42.31515663675963878631591796875" lon="2.70264987833797931671142578125">
        <ele>283.79998779296875</ele>
        <time>2020-08-08T11:31:41.000Z</time>
      </trkpt>
      <trkpt lat="42.31514976359903812408447265625" lon="2.702638395130634307861328125">
        <ele>284</ele>
        <time>2020-08-08T11:31:42.000Z</time>
      </trkpt>
      <trkpt lat="42.31513484381139278411865234375" lon="2.70262154750525951385498046875">
        <ele>285</ele>
        <time>2020-08-08T11:31:44.000Z</time>
      </trkpt>
      <trkpt lat="42.315127551555633544921875" lon="2.7026174403727054595947265625">
        <ele>285.20001220703125</ele>
        <time>2020-08-08T11:31:45.000Z</time>
      </trkpt>
      <trkpt lat="42.31510542333126068115234375" lon="2.7026207931339740753173828125">
        <ele>285.79998779296875</ele>
        <time>2020-08-08T11:31:47.000Z</time>
      </trkpt>
      <trkpt lat="42.31509477831423282623291015625" lon="2.70262557081878185272216796875">
        <ele>286</ele>
        <time>2020-08-08T11:31:48.000Z</time>
      </trkpt>
      <trkpt lat="42.31503996066749095916748046875" lon="2.70263831131160259246826171875">
        <ele>286.600006103515625</ele>
        <time>2020-08-08T11:31:53.000Z</time>
      </trkpt>
      <trkpt lat="42.3150023259222507476806640625" lon="2.70263646729290485382080078125">
        <ele>287.20001220703125</ele>
        <time>2020-08-08T11:31:56.000Z</time>
      </trkpt>
      <trkpt lat="42.31496703810989856719970703125" lon="2.70262456499040126800537109375">
        <ele>287.600006103515625</ele>
        <time>2020-08-08T11:31:59.000Z</time>
      </trkpt>
      <trkpt lat="42.31491590850055217742919921875" lon="2.7025768719613552093505859375">
        <ele>288.399993896484375</ele>
        <time>2020-08-08T11:32:04.000Z</time>
      </trkpt>
      <trkpt lat="42.31491029262542724609375" lon="2.702562622725963592529296875">
        <ele>288.600006103515625</ele>
        <time>2020-08-08T11:32:05.000Z</time>
      </trkpt>
      <trkpt lat="42.31490115635097026824951171875" lon="2.70249783061444759368896484375">
        <ele>289.399993896484375</ele>
        <time>2020-08-08T11:32:09.000Z</time>
      </trkpt>
      <trkpt lat="42.31489352881908416748046875" lon="2.70244829356670379638671875">
        <ele>290</ele>
        <time>2020-08-08T11:32:12.000Z</time>
      </trkpt>
      <trkpt lat="42.3148834705352783203125" lon="2.70239733159542083740234375">
        <ele>290.600006103515625</ele>
        <time>2020-08-08T11:32:15.000Z</time>
      </trkpt>
      <trkpt lat="42.31485689990222454071044921875" lon="2.7023401670157909393310546875">
        <ele>291.20001220703125</ele>
        <time>2020-08-08T11:32:19.000Z</time>
      </trkpt>
      <trkpt lat="42.3148430697619915008544921875" lon="2.70229297690093517303466796875">
        <ele>291.79998779296875</ele>
        <time>2020-08-08T11:32:22.000Z</time>
      </trkpt>
      <trkpt lat="42.31482446193695068359375" lon="2.7022301964461803436279296875">
        <ele>292.399993896484375</ele>
        <time>2020-08-08T11:32:26.000Z</time>
      </trkpt>
      <trkpt lat="42.3148231208324432373046875" lon="2.7021956630051136016845703125">
        <ele>293</ele>
        <time>2020-08-08T11:32:28.000Z</time>
      </trkpt>
      <trkpt lat="42.3148190975189208984375" lon="2.70210639573633670806884765625">
        <ele>294</ele>
        <time>2020-08-08T11:32:33.000Z</time>
      </trkpt>
      <trkpt lat="42.314804680645465850830078125" lon="2.70197915844619274139404296875">
        <ele>295</ele>
        <time>2020-08-08T11:32:40.000Z</time>
      </trkpt>
      <trkpt lat="42.3148249648511409759521484375" lon="2.7018575370311737060546875">
        <ele>296</ele>
        <time>2020-08-08T11:32:47.000Z</time>
      </trkpt>
      <trkpt lat="42.3148330114781856536865234375" lon="2.70182241685688495635986328125">
        <ele>296.399993896484375</ele>
        <time>2020-08-08T11:32:49.000Z</time>
      </trkpt>
      <trkpt lat="42.31485120020806789398193359375" lon="2.701732814311981201171875">
        <ele>297.20001220703125</ele>
        <time>2020-08-08T11:32:54.000Z</time>
      </trkpt>
      <trkpt lat="42.3148641921579837799072265625" lon="2.70167154259979724884033203125">
        <ele>297.79998779296875</ele>
        <time>2020-08-08T11:32:58.000Z</time>
      </trkpt>
      <trkpt lat="42.31486813165247440338134765625" lon="2.7016391046345233917236328125">
        <ele>298.20001220703125</ele>
        <time>2020-08-08T11:33:00.000Z</time>
      </trkpt>
      <trkpt lat="42.3148752562701702117919921875" lon="2.7015676908195018768310546875">
        <ele>299.399993896484375</ele>
        <time>2020-08-08T11:33:04.000Z</time>
      </trkpt>
      <trkpt lat="42.3148708976805210113525390625" lon="2.70154883153736591339111328125">
        <ele>299.399993896484375</ele>
        <time>2020-08-08T11:33:05.000Z</time>
      </trkpt>
      <trkpt lat="42.31486075557768344879150390625" lon="2.70149468444287776947021484375">
        <ele>300</ele>
        <time>2020-08-08T11:33:08.000Z</time>
      </trkpt>
      <trkpt lat="42.3148484341800212860107421875" lon="2.7014644257724285125732421875">
        <ele>300.399993896484375</ele>
        <time>2020-08-08T11:33:10.000Z</time>
      </trkpt>
      <trkpt lat="42.31483560986816883087158203125" lon="2.70145612768828868865966796875">
        <ele>300.600006103515625</ele>
        <time>2020-08-08T11:33:11.000Z</time>
      </trkpt>
      <trkpt lat="42.31478062458336353302001953125" lon="2.70144020207226276397705078125">
        <ele>301.20001220703125</ele>
        <time>2020-08-08T11:33:15.000Z</time>
      </trkpt>
      <trkpt lat="42.31474240310490131378173828125" lon="2.70143710076808929443359375">
        <ele>301.600006103515625</ele>
        <time>2020-08-08T11:33:18.000Z</time>
      </trkpt>
      <trkpt lat="42.31467199511826038360595703125" lon="2.70144824869930744171142578125">
        <ele>302.399993896484375</ele>
        <time>2020-08-08T11:33:23.000Z</time>
      </trkpt>
      <trkpt lat="42.31465623714029788970947265625" lon="2.70145587623119354248046875">
        <ele>302.399993896484375</ele>
        <time>2020-08-08T11:33:24.000Z</time>
      </trkpt>
      <trkpt lat="42.3146063648164272308349609375" lon="2.70146098919212818145751953125">
        <ele>302.79998779296875</ele>
        <time>2020-08-08T11:33:27.000Z</time>
      </trkpt>
      <trkpt lat="42.3145543970167636871337890625" lon="2.70145596005022525787353515625">
        <ele>303.20001220703125</ele>
        <time>2020-08-08T11:33:30.000Z</time>
      </trkpt>
      <trkpt lat="42.31448960490524768829345703125" lon="2.70142645575106143951416015625">
        <ele>303.399993896484375</ele>
        <time>2020-08-08T11:33:34.000Z</time>
      </trkpt>
      <trkpt lat="42.3144595138728618621826171875" lon="2.70140684209764003753662109375">
        <ele>303.79998779296875</ele>
        <time>2020-08-08T11:33:36.000Z</time>
      </trkpt>
      <trkpt lat="42.314431853592395782470703125" lon="2.701336853206157684326171875">
        <ele>303.79998779296875</ele>
        <time>2020-08-08T11:33:40.000Z</time>
      </trkpt>
      <trkpt lat="42.3144393973052501678466796875" lon="2.7013202570378780364990234375">
        <ele>304.20001220703125</ele>
        <time>2020-08-08T11:33:41.000Z</time>
      </trkpt>
      <trkpt lat="42.31446261517703533172607421875" lon="2.70130810327827930450439453125">
        <ele>304.600006103515625</ele>
        <time>2020-08-08T11:33:43.000Z</time>
      </trkpt>
      <trkpt lat="42.31449094600975513458251953125" lon="2.70132335834205150604248046875">
        <ele>305</ele>
        <time>2020-08-08T11:33:45.000Z</time>
      </trkpt>
      <trkpt lat="42.31450737453997135162353515625" lon="2.70133090205490589141845703125">
        <ele>305.20001220703125</ele>
        <time>2020-08-08T11:33:46.000Z</time>
      </trkpt>
      <trkpt lat="42.3145580850541591644287109375" lon="2.701344899833202362060546875">
        <ele>305.79998779296875</ele>
        <time>2020-08-08T11:33:49.000Z</time>
      </trkpt>
      <trkpt lat="42.314628995954990386962890625" lon="2.701338864862918853759765625">
        <ele>306.399993896484375</ele>
        <time>2020-08-08T11:33:53.000Z</time>
      </trkpt>
      <trkpt lat="42.3147012479603290557861328125" lon="2.70130164921283721923828125">
        <ele>306.79998779296875</ele>
        <time>2020-08-08T11:33:57.000Z</time>
      </trkpt>
      <trkpt lat="42.3147153295576572418212890625" lon="2.7012937702238559722900390625">
        <ele>306.79998779296875</ele>
        <time>2020-08-08T11:33:58.000Z</time>
      </trkpt>
      <trkpt lat="42.3147807084023952484130859375" lon="2.70125068724155426025390625">
        <ele>307.20001220703125</ele>
        <time>2020-08-08T11:34:03.000Z</time>
      </trkpt>
      <trkpt lat="42.31482236646115779876708984375" lon="2.70123367197811603546142578125">
        <ele>307.20001220703125</ele>
        <time>2020-08-08T11:34:06.000Z</time>
      </trkpt>
      <trkpt lat="42.314887829124927520751953125" lon="2.70123350434005260467529296875">
        <ele>307.20001220703125</ele>
        <time>2020-08-08T11:34:10.000Z</time>
      </trkpt>
      <trkpt lat="42.31490668840706348419189453125" lon="2.7012501843273639678955078125">
        <ele>307.399993896484375</ele>
        <time>2020-08-08T11:34:11.000Z</time>
      </trkpt>
      <trkpt lat="42.31496972031891345977783203125" lon="2.701338194310665130615234375">
        <ele>307.600006103515625</ele>
        <time>2020-08-08T11:34:15.000Z</time>
      </trkpt>
      <trkpt lat="42.31498480774462223052978515625" lon="2.7013910003006458282470703125">
        <ele>307.600006103515625</ele>
        <time>2020-08-08T11:34:17.000Z</time>
      </trkpt>
      <trkpt lat="42.3150003142654895782470703125" lon="2.701439447700977325439453125">
        <ele>307.79998779296875</ele>
        <time>2020-08-08T11:34:22.000Z</time>
      </trkpt>
      <trkpt lat="42.3150137253105640411376953125" lon="2.70149082876741886138916015625">
        <ele>307.600006103515625</ele>
        <time>2020-08-08T11:34:34.000Z</time>
      </trkpt>
      <trkpt lat="42.3150197602808475494384765625" lon="2.70165125839412212371826171875">
        <ele>307.79998779296875</ele>
        <time>2020-08-08T11:34:40.000Z</time>
      </trkpt>
      <trkpt lat="42.3150744102895259857177734375" lon="2.701843790709972381591796875">
        <ele>308</ele>
        <time>2020-08-08T11:34:47.000Z</time>
      </trkpt>
      <trkpt lat="42.31508991681039333343505859375" lon="2.70185980014503002166748046875">
        <ele>308</ele>
        <time>2020-08-08T11:34:48.000Z</time>
      </trkpt>
      <trkpt lat="42.31514565646648406982421875" lon="2.70184052176773548126220703125">
        <ele>308</ele>
        <time>2020-08-08T11:34:51.000Z</time>
      </trkpt>
      <trkpt lat="42.31514205224812030792236328125" lon="2.70177950151264667510986328125">
        <ele>308.399993896484375</ele>
        <time>2020-08-08T11:34:54.000Z</time>
      </trkpt>
      <trkpt lat="42.31513417325913906097412109375" lon="2.70176022313535213470458984375">
        <ele>308.600006103515625</ele>
        <time>2020-08-08T11:34:55.000Z</time>
      </trkpt>
      <trkpt lat="42.3151203431189060211181640625" lon="2.7017239294946193695068359375">
        <ele>309</ele>
        <time>2020-08-08T11:34:57.000Z</time>
      </trkpt>
      <trkpt lat="42.31510031037032604217529296875" lon="2.7016686089336872100830078125">
        <ele>309</ele>
        <time>2020-08-08T11:35:00.000Z</time>
      </trkpt>
      <trkpt lat="42.31510232202708721160888671875" lon="2.70162619650363922119140625">
        <ele>309.600006103515625</ele>
        <time>2020-08-08T11:35:02.000Z</time>
      </trkpt>
      <trkpt lat="42.31510031037032604217529296875" lon="2.70148982293903827667236328125">
        <ele>310.399993896484375</ele>
        <time>2020-08-08T11:35:08.000Z</time>
      </trkpt>
      <trkpt lat="42.31510533951222896575927734375" lon="2.70144472829997539520263671875">
        <ele>310.600006103515625</ele>
        <time>2020-08-08T11:35:10.000Z</time>
      </trkpt>
      <trkpt lat="42.31510969810187816619873046875" lon="2.70132335834205150604248046875">
        <ele>311</ele>
        <time>2020-08-08T11:35:15.000Z</time>
      </trkpt>
      <trkpt lat="42.31510601006448268890380859375" lon="2.7012153156101703643798828125">
        <ele>311.79998779296875</ele>
        <time>2020-08-08T11:35:20.000Z</time>
      </trkpt>
      <trkpt lat="42.3150931857526302337646484375" lon="2.70118069835007190704345703125">
        <ele>312</ele>
        <time>2020-08-08T11:35:22.000Z</time>
      </trkpt>
      <trkpt lat="42.31503476388752460479736328125" lon="2.7011291496455669403076171875">
        <ele>313</ele>
        <time>2020-08-08T11:35:27.000Z</time>
      </trkpt>
      <trkpt lat="42.3150200955569744110107421875" lon="2.70112168975174427032470703125">
        <ele>313</ele>
        <time>2020-08-08T11:35:28.000Z</time>
      </trkpt>
      <trkpt lat="42.31496100313961505889892578125" lon="2.70110207609832286834716796875">
        <ele>314</ele>
        <time>2020-08-08T11:35:32.000Z</time>
      </trkpt>
      <trkpt lat="42.31489411555230617523193359375" lon="2.70108531229197978973388671875">
        <ele>315.20001220703125</ele>
        <time>2020-08-08T11:35:36.000Z</time>
      </trkpt>
      <trkpt lat="42.3148767650127410888671875" lon="2.7010791935026645660400390625">
        <ele>315.20001220703125</ele>
        <time>2020-08-08T11:35:37.000Z</time>
      </trkpt>
      <trkpt lat="42.3148058541119098663330078125" lon="2.701053880155086517333984375">
        <ele>315.79998779296875</ele>
        <time>2020-08-08T11:35:41.000Z</time>
      </trkpt>
      <trkpt lat="42.31471524573862552642822265625" lon="2.7010609209537506103515625">
        <ele>316.20001220703125</ele>
        <time>2020-08-08T11:35:46.000Z</time>
      </trkpt>
      <trkpt lat="42.31466948054730892181396484375" lon="2.70107391290366649627685546875">
        <ele>316.79998779296875</ele>
        <time>2020-08-08T11:35:49.000Z</time>
      </trkpt>
      <trkpt lat="42.314637713134288787841796875" lon="2.70107324235141277313232421875">
        <ele>317.20001220703125</ele>
        <time>2020-08-08T11:35:51.000Z</time>
      </trkpt>
      <trkpt lat="42.31457434594631195068359375" lon="2.7010577358305454254150390625">
        <ele>317.399993896484375</ele>
        <time>2020-08-08T11:35:55.000Z</time>
      </trkpt>
      <trkpt lat="42.31448994018137454986572265625" lon="2.70100434310734272003173828125">
        <ele>318.20001220703125</ele>
        <time>2020-08-08T11:36:01.000Z</time>
      </trkpt>
      <trkpt lat="42.3143736831843852996826171875" lon="2.70090468227863311767578125">
        <ele>319.20001220703125</ele>
        <time>2020-08-08T11:36:10.000Z</time>
      </trkpt>
      <trkpt lat="42.31431324966251850128173828125" lon="2.70082681439816951751708984375">
        <ele>320</ele>
        <time>2020-08-08T11:36:16.000Z</time>
      </trkpt>
      <trkpt lat="42.31429162435233592987060546875" lon="2.70080502144992351531982421875">
        <ele>320.20001220703125</ele>
        <time>2020-08-08T11:36:18.000Z</time>
      </trkpt>
      <trkpt lat="42.3142088949680328369140625" lon="2.700746096670627593994140625">
        <ele>321.399993896484375</ele>
        <time>2020-08-08T11:36:24.000Z</time>
      </trkpt>
      <trkpt lat="42.3141158558428287506103515625" lon="2.7006725035607814788818359375">
        <ele>322.20001220703125</ele>
        <time>2020-08-08T11:36:31.000Z</time>
      </trkpt>
      <trkpt lat="42.3141057975590229034423828125" lon="2.70065724849700927734375">
        <ele>322.399993896484375</ele>
        <time>2020-08-08T11:36:32.000Z</time>
      </trkpt>
      <trkpt lat="42.31407118029892444610595703125" lon="2.70054417662322521209716796875">
        <ele>323.399993896484375</ele>
        <time>2020-08-08T11:36:38.000Z</time>
      </trkpt>
      <trkpt lat="42.3140747845172882080078125" lon="2.70052556879818439483642578125">
        <ele>323.600006103515625</ele>
        <time>2020-08-08T11:36:39.000Z</time>
      </trkpt>
      <trkpt lat="42.31408207677304744720458984375" lon="2.7005098946392536163330078125">
        <ele>323.79998779296875</ele>
        <time>2020-08-08T11:36:40.000Z</time>
      </trkpt>
      <trkpt lat="42.31411845423281192779541015625" lon="2.70050629042088985443115234375">
        <ele>324.399993896484375</ele>
        <time>2020-08-08T11:36:43.000Z</time>
      </trkpt>
      <trkpt lat="42.314144857227802276611328125" lon="2.70056404173374176025390625">
        <ele>324.79998779296875</ele>
        <time>2020-08-08T11:36:46.000Z</time>
      </trkpt>
      <trkpt lat="42.3141686618328094482421875" lon="2.700596563518047332763671875">
        <ele>324.79998779296875</ele>
        <time>2020-08-08T11:36:48.000Z</time>
      </trkpt>
      <trkpt lat="42.31426178477704524993896484375" lon="2.70069806836545467376708984375">
        <ele>325.79998779296875</ele>
        <time>2020-08-08T11:36:55.000Z</time>
      </trkpt>
      <trkpt lat="42.31429749168455600738525390625" lon="2.70072287879884243011474609375">
        <ele>326</ele>
        <time>2020-08-08T11:36:57.000Z</time>
      </trkpt>
      <trkpt lat="42.31439019553363323211669921875" lon="2.70077719353139400482177734375">
        <ele>326.20001220703125</ele>
        <time>2020-08-08T11:37:03.000Z</time>
      </trkpt>
      <trkpt lat="42.31451667845249176025390625" lon="2.70078792236745357513427734375">
        <ele>326.79998779296875</ele>
        <time>2020-08-08T11:37:11.000Z</time>
      </trkpt>
      <trkpt lat="42.31464274227619171142578125" lon="2.7008034288883209228515625">
        <ele>327</ele>
        <time>2020-08-08T11:37:18.000Z</time>
      </trkpt>
      <trkpt lat="42.31476302258670330047607421875" lon="2.70077652297914028167724609375">
        <ele>327.79998779296875</ele>
        <time>2020-08-08T11:37:25.000Z</time>
      </trkpt>
      <trkpt lat="42.3147770203649997711181640625" lon="2.70077149383723735809326171875">
        <ele>327.79998779296875</ele>
        <time>2020-08-08T11:37:26.000Z</time>
      </trkpt>
      <trkpt lat="42.31491230428218841552734375" lon="2.70071784965693950653076171875">
        <ele>328.600006103515625</ele>
        <time>2020-08-08T11:37:34.000Z</time>
      </trkpt>
      <trkpt lat="42.3149456642568111419677734375" lon="2.7007015049457550048828125">
        <ele>329</ele>
        <time>2020-08-08T11:37:36.000Z</time>
      </trkpt>
      <trkpt lat="42.31504029594361782073974609375" lon="2.70066370256245136260986328125">
        <ele>329.79998779296875</ele>
        <time>2020-08-08T11:37:42.000Z</time>
      </trkpt>
      <trkpt lat="42.31510282494127750396728515625" lon="2.7006748504936695098876953125">
        <ele>330</ele>
        <time>2020-08-08T11:37:46.000Z</time>
      </trkpt>
      <trkpt lat="42.31512059457600116729736328125" lon="2.7006785385310649871826171875">
        <ele>330.20001220703125</ele>
        <time>2020-08-08T11:37:47.000Z</time>
      </trkpt>
      <trkpt lat="42.31521413661539554595947265625" lon="2.70070443861186504364013671875">
        <ele>330.399993896484375</ele>
        <time>2020-08-08T11:37:52.000Z</time>
      </trkpt>
      <trkpt lat="42.3153164796531200408935546875" lon="2.7007744275033473968505859375">
        <ele>331.20001220703125</ele>
        <time>2020-08-08T11:37:58.000Z</time>
      </trkpt>
      <trkpt lat="42.3153329081833362579345703125" lon="2.70078490488231182098388671875">
        <ele>331.399993896484375</ele>
        <time>2020-08-08T11:37:59.000Z</time>
      </trkpt>
      <trkpt lat="42.3154646717011928558349609375" lon="2.7008843980729579925537109375">
        <ele>332.20001220703125</ele>
        <time>2020-08-08T11:38:06.000Z</time>
      </trkpt>
      <trkpt lat="42.3155699484050273895263671875" lon="2.70094332285225391387939453125">
        <ele>332.600006103515625</ele>
        <time>2020-08-08T11:38:12.000Z</time>
      </trkpt>
      <trkpt lat="42.31567539274692535400390625" lon="2.700945250689983367919921875">
        <ele>333</ele>
        <time>2020-08-08T11:38:18.000Z</time>
      </trkpt>
      <trkpt lat="42.315694503486156463623046875" lon="2.70094382576644420623779296875">
        <ele>333.20001220703125</ele>
        <time>2020-08-08T11:38:19.000Z</time>
      </trkpt>
      <trkpt lat="42.31579340994358062744140625" lon="2.700912058353424072265625">
        <ele>334</ele>
        <time>2020-08-08T11:38:25.000Z</time>
      </trkpt>
      <trkpt lat="42.315805144608020782470703125" lon="2.700895965099334716796875">
        <ele>334.20001220703125</ele>
        <time>2020-08-08T11:38:26.000Z</time>
      </trkpt>
      <trkpt lat="42.31580640189349651336669921875" lon="2.7008160017430782318115234375">
        <ele>335</ele>
        <time>2020-08-08T11:38:31.000Z</time>
      </trkpt>
      <trkpt lat="42.31579340994358062744140625" lon="2.70080904476344585418701171875">
        <ele>335.399993896484375</ele>
        <time>2020-08-08T11:38:32.000Z</time>
      </trkpt>
      <trkpt lat="42.31574504636228084564208984375" lon="2.7007932029664516448974609375">
        <ele>335.79998779296875</ele>
        <time>2020-08-08T11:38:35.000Z</time>
      </trkpt>
      <trkpt lat="42.31571495532989501953125" lon="2.7007854916155338287353515625">
        <ele>336.20001220703125</ele>
        <time>2020-08-08T11:38:37.000Z</time>
      </trkpt>
      <trkpt lat="42.31569760479032993316650390625" lon="2.70078876055777072906494140625">
        <ele>336.399993896484375</ele>
        <time>2020-08-08T11:38:38.000Z</time>
      </trkpt>
      <trkpt lat="42.315599620342254638671875" lon="2.70080015994608402252197265625">
        <ele>336.79998779296875</ele>
        <time>2020-08-08T11:38:43.000Z</time>
      </trkpt>
      <trkpt lat="42.31546073220670223236083984375" lon="2.70070527680218219757080078125">
        <ele>337.399993896484375</ele>
        <time>2020-08-08T11:38:51.000Z</time>
      </trkpt>
      <trkpt lat="42.31538730673491954803466796875" lon="2.70062263123691082000732421875">
        <ele>338.600006103515625</ele>
        <time>2020-08-08T11:38:56.000Z</time>
      </trkpt>
      <trkpt lat="42.3153734765946865081787109375" lon="2.7006054483354091644287109375">
        <ele>338.600006103515625</ele>
        <time>2020-08-08T11:38:57.000Z</time>
      </trkpt>
      <trkpt lat="42.3153238557279109954833984375" lon="2.7005352079868316650390625">
        <ele>339.20001220703125</ele>
        <time>2020-08-08T11:39:01.000Z</time>
      </trkpt>
      <trkpt lat="42.31530784629285335540771484375" lon="2.700525820255279541015625">
        <ele>339.20001220703125</ele>
        <time>2020-08-08T11:39:02.000Z</time>
      </trkpt>
      <trkpt lat="42.31524984352290630340576171875" lon="2.70048785023391246795654296875">
        <ele>339.79998779296875</ele>
        <time>2020-08-08T11:39:06.000Z</time>
      </trkpt>
      <trkpt lat="42.31520508415997028350830078125" lon="2.70046480000019073486328125">
        <ele>340.399993896484375</ele>
        <time>2020-08-08T11:39:09.000Z</time>
      </trkpt>
      <trkpt lat="42.31515345163643360137939453125" lon="2.70043990574777126312255859375">
        <ele>340.79998779296875</ele>
        <time>2020-08-08T11:39:12.000Z</time>
      </trkpt>
      <trkpt lat="42.31505320407450199127197265625" lon="2.70039640367031097412109375">
        <ele>341.600006103515625</ele>
        <time>2020-08-08T11:39:18.000Z</time>
      </trkpt>
      <trkpt lat="42.3150350153446197509765625" lon="2.70039028488099575042724609375">
        <ele>342</ele>
        <time>2020-08-08T11:39:19.000Z</time>
      </trkpt>
      <trkpt lat="42.31492697261273860931396484375" lon="2.700392715632915496826171875">
        <ele>342.600006103515625</ele>
        <time>2020-08-08T11:39:24.000Z</time>
      </trkpt>
      <trkpt lat="42.31488372199237346649169921875" lon="2.70039112307131290435791015625">
        <ele>343</ele>
        <time>2020-08-08T11:39:26.000Z</time>
      </trkpt>
      <trkpt lat="42.31477911584079265594482421875" lon="2.70035558380186557769775390625">
        <ele>343.600006103515625</ele>
        <time>2020-08-08T11:39:31.000Z</time>
      </trkpt>
      <trkpt lat="42.314766459167003631591796875" lon="2.70033312030136585235595703125">
        <ele>343.600006103515625</ele>
        <time>2020-08-08T11:39:32.000Z</time>
      </trkpt>
      <trkpt lat="42.3147662915289402008056640625" lon="2.70025885663926601409912109375">
        <ele>344</ele>
        <time>2020-08-08T11:39:35.000Z</time>
      </trkpt>
      <trkpt lat="42.31478355824947357177734375" lon="2.70022130571305751800537109375">
        <ele>344.79998779296875</ele>
        <time>2020-08-08T11:39:37.000Z</time>
      </trkpt>
      <trkpt lat="42.31480912305414676666259765625" lon="2.70019381307065486907958984375">
        <ele>345.20001220703125</ele>
        <time>2020-08-08T11:39:39.000Z</time>
      </trkpt>
      <trkpt lat="42.3148338496685028076171875" lon="2.70017168484628200531005859375">
        <ele>345.600006103515625</ele>
        <time>2020-08-08T11:39:41.000Z</time>
      </trkpt>
      <trkpt lat="42.3148802854120731353759765625" lon="2.700151316821575164794921875">
        <ele>346.20001220703125</ele>
        <time>2020-08-08T11:39:44.000Z</time>
      </trkpt>
      <trkpt lat="42.3149304091930389404296875" lon="2.70015005953609943389892578125">
        <ele>346.79998779296875</ele>
        <time>2020-08-08T11:39:47.000Z</time>
      </trkpt>
      <trkpt lat="42.31498539447784423828125" lon="2.70017646253108978271484375">
        <ele>347.399993896484375</ele>
        <time>2020-08-08T11:39:50.000Z</time>
      </trkpt>
      <trkpt lat="42.315021939575672149658203125" lon="2.7001960761845111846923828125">
        <ele>347.79998779296875</ele>
        <time>2020-08-08T11:39:52.000Z</time>
      </trkpt>
      <trkpt lat="42.31512797065079212188720703125" lon="2.7002349682152271270751953125">
        <ele>348.399993896484375</ele>
        <time>2020-08-08T11:39:58.000Z</time>
      </trkpt>
      <trkpt lat="42.31514607556164264678955078125" lon="2.70023823715746402740478515625">
        <ele>348.600006103515625</ele>
        <time>2020-08-08T11:39:59.000Z</time>
      </trkpt>
      <trkpt lat="42.31526459567248821258544921875" lon="2.70025433041155338287353515625">
        <ele>349.600006103515625</ele>
        <time>2020-08-08T11:40:05.000Z</time>
      </trkpt>
      <trkpt lat="42.31528404168784618377685546875" lon="2.700261287391185760498046875">
        <ele>349.600006103515625</ele>
        <time>2020-08-08T11:40:06.000Z</time>
      </trkpt>
      <trkpt lat="42.3153984546661376953125" lon="2.7003045380115509033203125">
        <ele>350.399993896484375</ele>
        <time>2020-08-08T11:40:12.000Z</time>
      </trkpt>
      <trkpt lat="42.3154388554394245147705078125" lon="2.70031685940921306610107421875">
        <ele>350.79998779296875</ele>
        <time>2020-08-08T11:40:14.000Z</time>
      </trkpt>
      <trkpt lat="42.31548135168850421905517578125" lon="2.70034250803291797637939453125">
        <ele>351.20001220703125</ele>
        <time>2020-08-08T11:40:18.000Z</time>
      </trkpt>
      <trkpt lat="42.315481938421726226806640625" lon="2.70035021938383579254150390625">
        <ele>351.20001220703125</ele>
        <time>2020-08-08T11:40:38.000Z</time>
      </trkpt>
      <trkpt lat="42.315490655601024627685546875" lon="2.70034535787999629974365234375">
        <ele>351.20001220703125</ele>
        <time>2020-08-08T11:40:39.000Z</time>
      </trkpt>
      <trkpt lat="42.315551675856113433837890625" lon="2.70033999346196651458740234375">
        <ele>351.399993896484375</ele>
        <time>2020-08-08T11:40:43.000Z</time>
      </trkpt>
      <trkpt lat="42.31560490094125270843505859375" lon="2.70034384913742542266845703125">
        <ele>351.600006103515625</ele>
        <time>2020-08-08T11:40:46.000Z</time>
      </trkpt>
      <trkpt lat="42.3156385123729705810546875" lon="2.700346447527408599853515625">
        <ele>351.79998779296875</ele>
        <time>2020-08-08T11:40:48.000Z</time>
      </trkpt>
      <trkpt lat="42.315760552883148193359375" lon="2.70034887827932834625244140625">
        <ele>352.79998779296875</ele>
        <time>2020-08-08T11:40:55.000Z</time>
      </trkpt>
      <trkpt lat="42.31577790342271327972412109375" lon="2.7003489620983600616455078125">
        <ele>353</ele>
        <time>2020-08-08T11:40:56.000Z</time>
      </trkpt>
      <trkpt lat="42.315832637250423431396484375" lon="2.70035684108734130859375">
        <ele>353.20001220703125</ele>
        <time>2020-08-08T11:40:59.000Z</time>
      </trkpt>
      <trkpt lat="42.31586448848247528076171875" lon="2.70035357214510440826416015625">
        <ele>353.20001220703125</ele>
        <time>2020-08-08T11:41:01.000Z</time>
      </trkpt>
      <trkpt lat="42.315946631133556365966796875" lon="2.7003420889377593994140625">
        <ele>354</ele>
        <time>2020-08-08T11:41:06.000Z</time>
      </trkpt>
      <trkpt lat="42.315964400768280029296875" lon="2.70034116692841053009033203125">
        <ele>354.20001220703125</ele>
        <time>2020-08-08T11:41:07.000Z</time>
      </trkpt>
      <trkpt lat="42.3160406760871410369873046875" lon="2.7003254927694797515869140625">
        <ele>355</ele>
        <time>2020-08-08T11:41:11.000Z</time>
      </trkpt>
      <trkpt lat="42.316093146800994873046875" lon="2.7003174461424350738525390625">
        <ele>355.79998779296875</ele>
        <time>2020-08-08T11:41:14.000Z</time>
      </trkpt>
      <trkpt lat="42.3161328770220279693603515625" lon="2.700319625437259674072265625">
        <ele>356.20001220703125</ele>
        <time>2020-08-08T11:41:16.000Z</time>
      </trkpt>
      <trkpt lat="42.31618895195424556732177734375" lon="2.7003070525825023651123046875">
        <ele>356.399993896484375</ele>
        <time>2020-08-08T11:41:19.000Z</time>
      </trkpt>
      <trkpt lat="42.3162254132330417633056640625" lon="2.70030864514410495758056640625">
        <ele>356.79998779296875</ele>
        <time>2020-08-08T11:41:21.000Z</time>
      </trkpt>
      <trkpt lat="42.31624444015324115753173828125" lon="2.70030478946864604949951171875">
        <ele>357.20001220703125</ele>
        <time>2020-08-08T11:41:22.000Z</time>
      </trkpt>
      <trkpt lat="42.3163544945418834686279296875" lon="2.7002884447574615478515625">
        <ele>358.20001220703125</ele>
        <time>2020-08-08T11:41:28.000Z</time>
      </trkpt>
      <trkpt lat="42.31648650951683521270751953125" lon="2.70033077336847782135009765625">
        <ele>358.79998779296875</ele>
        <time>2020-08-08T11:41:35.000Z</time>
      </trkpt>
      <trkpt lat="42.31653948314487934112548828125" lon="2.7004019357264041900634765625">
        <ele>359.20001220703125</ele>
        <time>2020-08-08T11:41:39.000Z</time>
      </trkpt>
      <trkpt lat="42.3165603540837764739990234375" lon="2.7004441805183887481689453125">
        <ele>359.399993896484375</ele>
        <time>2020-08-08T11:41:41.000Z</time>
      </trkpt>
      <trkpt lat="42.31658558361232280731201171875" lon="2.70050629042088985443115234375">
        <ele>360</ele>
        <time>2020-08-08T11:41:44.000Z</time>
      </trkpt>
      <trkpt lat="42.3166240565478801727294921875" lon="2.7005593478679656982421875">
        <ele>360.399993896484375</ele>
        <time>2020-08-08T11:41:47.000Z</time>
      </trkpt>
      <trkpt lat="42.31669060885906219482421875" lon="2.70059161819517612457275390625">
        <ele>360.79998779296875</ele>
        <time>2020-08-08T11:41:51.000Z</time>
      </trkpt>
      <trkpt lat="42.31670578010380268096923828125" lon="2.70058139227330684661865234375">
        <ele>361</ele>
        <time>2020-08-08T11:41:52.000Z</time>
      </trkpt>
      <trkpt lat="42.31671986170113086700439453125" lon="2.7005658857524394989013671875">
        <ele>361.20001220703125</ele>
        <time>2020-08-08T11:41:53.000Z</time>
      </trkpt>
      <trkpt lat="42.31673209927976131439208984375" lon="2.70050109364092350006103515625">
        <ele>361.600006103515625</ele>
        <time>2020-08-08T11:41:56.000Z</time>
      </trkpt>
      <trkpt lat="42.3167289979755878448486328125" lon="2.70047846250236034393310546875">
        <ele>361.79998779296875</ele>
        <time>2020-08-08T11:41:57.000Z</time>
      </trkpt>
      <trkpt lat="42.31670536100864410400390625" lon="2.70041693933308124542236328125">
        <ele>362.20001220703125</ele>
        <time>2020-08-08T11:42:00.000Z</time>
      </trkpt>
      <trkpt lat="42.3166711628437042236328125" lon="2.70033873617649078369140625">
        <ele>363</ele>
        <time>2020-08-08T11:42:04.000Z</time>
      </trkpt>
      <trkpt lat="42.31662447564303874969482421875" lon="2.70023203454911708831787109375">
        <ele>363.20001220703125</ele>
        <time>2020-08-08T11:42:10.000Z</time>
      </trkpt>
      <trkpt lat="42.3166025988757610321044921875" lon="2.7001913823187351226806640625">
        <ele>363.20001220703125</ele>
        <time>2020-08-08T11:42:12.000Z</time>
      </trkpt>
      <trkpt lat="42.316559515893459320068359375" lon="2.70011552609503269195556640625">
        <ele>363.600006103515625</ele>
        <time>2020-08-08T11:42:16.000Z</time>
      </trkpt>
      <trkpt lat="42.31647745706140995025634765625" lon="2.70004729740321636199951171875">
        <ele>364.399993896484375</ele>
        <time>2020-08-08T11:42:22.000Z</time>
      </trkpt>
      <trkpt lat="42.316460274159908294677734375" lon="2.70003858022391796112060546875">
        <ele>364.600006103515625</ele>
        <time>2020-08-08T11:42:23.000Z</time>
      </trkpt>
      <trkpt lat="42.3164205439388751983642578125" lon="2.69997135736048221588134765625">
        <ele>365</ele>
        <time>2020-08-08T11:42:27.000Z</time>
      </trkpt>
      <trkpt lat="42.3164212144911289215087890625" lon="2.699947468936443328857421875">
        <ele>365.20001220703125</ele>
        <time>2020-08-08T11:42:28.000Z</time>
      </trkpt>
      <trkpt lat="42.31642783619463443756103515625" lon="2.6999043859541416168212890625">
        <ele>365.399993896484375</ele>
        <time>2020-08-08T11:42:30.000Z</time>
      </trkpt>
      <trkpt lat="42.31645298190414905548095703125" lon="2.699856944382190704345703125">
        <ele>365.79998779296875</ele>
        <time>2020-08-08T11:42:33.000Z</time>
      </trkpt>
      <trkpt lat="42.3165137507021427154541015625" lon="2.6998369954526424407958984375">
        <ele>366.399993896484375</ele>
        <time>2020-08-08T11:42:37.000Z</time>
      </trkpt>
      <trkpt lat="42.316581308841705322265625" lon="2.6998188905417919158935546875">
        <ele>367</ele>
        <time>2020-08-08T11:42:41.000Z</time>
      </trkpt>
      <trkpt lat="42.31666320003569126129150390625" lon="2.69977069459855556488037109375">
        <ele>367.79998779296875</ele>
        <time>2020-08-08T11:42:46.000Z</time>
      </trkpt>
      <trkpt lat="42.316695638000965118408203125" lon="2.699727527797222137451171875">
        <ele>368.399993896484375</ele>
        <time>2020-08-08T11:42:49.000Z</time>
      </trkpt>
      <trkpt lat="42.316719777882099151611328125" lon="2.69969894550740718841552734375">
        <ele>368.79998779296875</ele>
        <time>2020-08-08T11:42:51.000Z</time>
      </trkpt>
      <trkpt lat="42.31680803932249546051025390625" lon="2.69959014840424060821533203125">
        <ele>369.79998779296875</ele>
        <time>2020-08-08T11:42:58.000Z</time>
      </trkpt>
      <trkpt lat="42.31687375344336032867431640625" lon="2.69946324639022350311279296875">
        <ele>371</ele>
        <time>2020-08-08T11:43:05.000Z</time>
      </trkpt>
      <trkpt lat="42.31691499240696430206298828125" lon="2.69931170158088207244873046875">
        <ele>372</ele>
        <time>2020-08-08T11:43:12.000Z</time>
      </trkpt>
      <trkpt lat="42.31693007983267307281494140625" lon="2.69914993084967136383056640625">
        <ele>373</ele>
        <time>2020-08-08T11:43:19.000Z</time>
      </trkpt>
      <trkpt lat="42.31693200767040252685546875" lon="2.69912914372980594635009765625">
        <ele>373.20001220703125</ele>
        <time>2020-08-08T11:43:20.000Z</time>
      </trkpt>
      <trkpt lat="42.31693645007908344268798828125" lon="2.69896117039024829864501953125">
        <ele>374.20001220703125</ele>
        <time>2020-08-08T11:43:27.000Z</time>
      </trkpt>
      <trkpt lat="42.31695472262799739837646484375" lon="2.69884918816387653350830078125">
        <ele>375.20001220703125</ele>
        <time>2020-08-08T11:43:33.000Z</time>
      </trkpt>
      <trkpt lat="42.316955812275409698486328125" lon="2.6988284848630428314208984375">
        <ele>375.399993896484375</ele>
        <time>2020-08-08T11:43:34.000Z</time>
      </trkpt>
      <trkpt lat="42.316964529454708099365234375" lon="2.6986782811582088470458984375">
        <ele>376.399993896484375</ele>
        <time>2020-08-08T11:43:41.000Z</time>
      </trkpt>
      <trkpt lat="42.31700199656188488006591796875" lon="2.69853637553751468658447265625">
        <ele>377.399993896484375</ele>
        <time>2020-08-08T11:43:48.000Z</time>
      </trkpt>
      <trkpt lat="42.31701775453984737396240234375" lon="2.69849094562232494354248046875">
        <ele>377.600006103515625</ele>
        <time>2020-08-08T11:43:50.000Z</time>
      </trkpt>
      <trkpt lat="42.31706167571246623992919921875" lon="2.698396146297454833984375">
        <ele>378.399993896484375</ele>
        <time>2020-08-08T11:43:55.000Z</time>
      </trkpt>
      <trkpt lat="42.31707039289176464080810546875" lon="2.69837896339595317840576171875">
        <ele>378.600006103515625</ele>
        <time>2020-08-08T11:43:56.000Z</time>
      </trkpt>
      <trkpt lat="42.31711179949343204498291015625" lon="2.6982732675969600677490234375">
        <ele>379.399993896484375</ele>
        <time>2020-08-08T11:44:01.000Z</time>
      </trkpt>
      <trkpt lat="42.3171688802540302276611328125" lon="2.698170505464076995849609375">
        <ele>380</ele>
        <time>2020-08-08T11:44:06.000Z</time>
      </trkpt>
      <trkpt lat="42.317176423966884613037109375" lon="2.69815147854387760162353515625">
        <ele>380.20001220703125</ele>
        <time>2020-08-08T11:44:07.000Z</time>
      </trkpt>
      <trkpt lat="42.31726988218724727630615234375" lon="2.69803698174655437469482421875">
        <ele>381.20001220703125</ele>
        <time>2020-08-08T11:44:15.000Z</time>
      </trkpt>
      <trkpt lat="42.31731916777789592742919921875" lon="2.6979576051235198974609375">
        <ele>382.20001220703125</ele>
        <time>2020-08-08T11:44:20.000Z</time>
      </trkpt>
      <trkpt lat="42.31734112836420536041259765625" lon="2.69792868755757808685302734375">
        <ele>382.600006103515625</ele>
        <time>2020-08-08T11:44:22.000Z</time>
      </trkpt>
      <trkpt lat="42.3174206726253032684326171875" lon="2.6977961696684360504150390625">
        <ele>383.399993896484375</ele>
        <time>2020-08-08T11:44:29.000Z</time>
      </trkpt>
      <trkpt lat="42.31744372285902500152587890625" lon="2.69776708446443080902099609375">
        <ele>383.79998779296875</ele>
        <time>2020-08-08T11:44:31.000Z</time>
      </trkpt>
      <trkpt lat="42.3175028152763843536376953125" lon="2.697659544646739959716796875">
        <ele>384.399993896484375</ele>
        <time>2020-08-08T11:44:37.000Z</time>
      </trkpt>
      <trkpt lat="42.31751295737922191619873046875" lon="2.6976384222507476806640625">
        <ele>384.399993896484375</ele>
        <time>2020-08-08T11:44:38.000Z</time>
      </trkpt>
      <trkpt lat="42.317571379244327545166015625" lon="2.69751277752220630645751953125">
        <ele>385.79998779296875</ele>
        <time>2020-08-08T11:44:44.000Z</time>
      </trkpt>
      <trkpt lat="42.317621000111103057861328125" lon="2.69735611975193023681640625">
        <ele>386.20001220703125</ele>
        <time>2020-08-08T11:44:51.000Z</time>
      </trkpt>
      <trkpt lat="42.3176396079361438751220703125" lon="2.69729065708816051483154296875">
        <ele>386.79998779296875</ele>
        <time>2020-08-08T11:44:54.000Z</time>
      </trkpt>
      <trkpt lat="42.3176506720483303070068359375" lon="2.697183452546596527099609375">
        <ele>387.600006103515625</ele>
        <time>2020-08-08T11:44:58.000Z</time>
      </trkpt>
      <trkpt lat="42.31765829958021640777587890625" lon="2.69713559187948703765869140625">
        <ele>388</ele>
        <time>2020-08-08T11:45:00.000Z</time>
      </trkpt>
      <trkpt lat="42.317657880485057830810546875" lon="2.696965523064136505126953125">
        <ele>389</ele>
        <time>2020-08-08T11:45:06.000Z</time>
      </trkpt>
      <trkpt lat="42.31765327043831348419189453125" lon="2.69693459384143352508544921875">
        <ele>389</ele>
        <time>2020-08-08T11:45:07.000Z</time>
      </trkpt>
      <trkpt lat="42.31764949858188629150390625" lon="2.696827389299869537353515625">
        <ele>389.79998779296875</ele>
        <time>2020-08-08T11:45:12.000Z</time>
      </trkpt>
      <trkpt lat="42.31764907948672771453857421875" lon="2.69669688306748867034912109375">
        <ele>390.20001220703125</ele>
        <time>2020-08-08T11:45:17.000Z</time>
      </trkpt>
      <trkpt lat="42.31764656491577625274658203125" lon="2.6966672949492931365966796875">
        <ele>390.20001220703125</ele>
        <time>2020-08-08T11:45:18.000Z</time>
      </trkpt>
      <trkpt lat="42.31763516552746295928955078125" lon="2.69649244844913482666015625">
        <ele>391.399993896484375</ele>
        <time>2020-08-08T11:45:25.000Z</time>
      </trkpt>
      <trkpt lat="42.3175976984202861785888671875" lon="2.69632925279438495635986328125">
        <ele>392.399993896484375</ele>
        <time>2020-08-08T11:45:32.000Z</time>
      </trkpt>
      <trkpt lat="42.31759107671678066253662109375" lon="2.6963021792471408843994140625">
        <ele>392.600006103515625</ele>
        <time>2020-08-08T11:45:33.000Z</time>
      </trkpt>
      <trkpt lat="42.31750524602830410003662109375" lon="2.6961395703256130218505859375">
        <ele>393.79998779296875</ele>
        <time>2020-08-08T11:45:40.000Z</time>
      </trkpt>
      <trkpt lat="42.31748864986002445220947265625" lon="2.6961201243102550506591796875">
        <ele>394</ele>
        <time>2020-08-08T11:45:41.000Z</time>
      </trkpt>
      <trkpt lat="42.3173814453184604644775390625" lon="2.69600638188421726226806640625">
        <ele>395</ele>
        <time>2020-08-08T11:45:48.000Z</time>
      </trkpt>
      <trkpt lat="42.31735537759959697723388671875" lon="2.69596447236835956573486328125">
        <ele>395.20001220703125</ele>
        <time>2020-08-08T11:45:50.000Z</time>
      </trkpt>
      <trkpt lat="42.3173412121832370758056640625" lon="2.6958451978862285614013671875">
        <ele>396</ele>
        <time>2020-08-08T11:45:55.000Z</time>
      </trkpt>
      <trkpt lat="42.317352779209613800048828125" lon="2.6958220638334751129150390625">
        <ele>396.20001220703125</ele>
        <time>2020-08-08T11:45:56.000Z</time>
      </trkpt>
      <trkpt lat="42.3174303956329822540283203125" lon="2.69575090147554874420166015625">
        <ele>397.20001220703125</ele>
        <time>2020-08-08T11:46:02.000Z</time>
      </trkpt>
      <trkpt lat="42.31753391213715076446533203125" lon="2.69570647738873958587646484375">
        <ele>398.20001220703125</ele>
        <time>2020-08-08T11:46:09.000Z</time>
      </trkpt>
      <trkpt lat="42.3175799287855625152587890625" lon="2.69568979740142822265625">
        <ele>399</ele>
        <time>2020-08-08T11:46:13.000Z</time>
      </trkpt>
      <trkpt lat="42.317595519125461578369140625" lon="2.69570295698940753936767578125">
        <ele>399.600006103515625</ele>
        <time>2020-08-08T11:46:15.000Z</time>
      </trkpt>
      <trkpt lat="42.3176147975027561187744140625" lon="2.6957206428050994873046875">
        <ele>400</ele>
        <time>2020-08-08T11:46:17.000Z</time>
      </trkpt>
      <trkpt lat="42.31765042059123516082763671875" lon="2.69576883874833583831787109375">
        <ele>400.79998779296875</ele>
        <time>2020-08-08T11:46:21.000Z</time>
      </trkpt>
      <trkpt lat="42.3176557011902332305908203125" lon="2.695786021649837493896484375">
        <ele>401.20001220703125</ele>
        <time>2020-08-08T11:46:22.000Z</time>
      </trkpt>
      <trkpt lat="42.3176701180636882781982421875" lon="2.6958398334681987762451171875">
        <ele>402</ele>
        <time>2020-08-08T11:46:25.000Z</time>
      </trkpt>
      <trkpt lat="42.31767154298722743988037109375" lon="2.69585668109357357025146484375">
        <ele>402.20001220703125</ele>
        <time>2020-08-08T11:46:26.000Z</time>
      </trkpt>
      <trkpt lat="42.31767606921494007110595703125" lon="2.6958934776484966278076171875">
        <ele>402.79998779296875</ele>
        <time>2020-08-08T11:46:28.000Z</time>
      </trkpt>
      <trkpt lat="42.3176823556423187255859375" lon="2.695938237011432647705078125">
        <ele>403</ele>
        <time>2020-08-08T11:46:30.000Z</time>
      </trkpt>
      <trkpt lat="42.31771730817854404449462890625" lon="2.69608031027019023895263671875">
        <ele>403.79998779296875</ele>
        <time>2020-08-08T11:46:36.000Z</time>
      </trkpt>
      <trkpt lat="42.3177381791174411773681640625" lon="2.6961422525346279144287109375">
        <ele>404.20001220703125</ele>
        <time>2020-08-08T11:46:39.000Z</time>
      </trkpt>
      <trkpt lat="42.3177753947675228118896484375" lon="2.6962180249392986297607421875">
        <ele>404.600006103515625</ele>
        <time>2020-08-08T11:46:43.000Z</time>
      </trkpt>
      <trkpt lat="42.317853681743144989013671875" lon="2.69630595110356807708740234375">
        <ele>405.20001220703125</ele>
        <time>2020-08-08T11:46:49.000Z</time>
      </trkpt>
      <trkpt lat="42.31787237338721752166748046875" lon="2.69630561582744121551513671875">
        <ele>405.20001220703125</ele>
        <time>2020-08-08T11:46:50.000Z</time>
      </trkpt>
      <trkpt lat="42.3179024644196033477783203125" lon="2.6962924562394618988037109375">
        <ele>405.20001220703125</ele>
        <time>2020-08-08T11:46:52.000Z</time>
      </trkpt>
      <trkpt lat="42.3179291188716888427734375" lon="2.6962666399776935577392578125">
        <ele>405.600006103515625</ele>
        <time>2020-08-08T11:46:54.000Z</time>
      </trkpt>
      <trkpt lat="42.3179665021598339080810546875" lon="2.69619681872427463531494140625">
        <ele>406.399993896484375</ele>
        <time>2020-08-08T11:46:59.000Z</time>
      </trkpt>
      <trkpt lat="42.31799659319221973419189453125" lon="2.69607913680374622344970703125">
        <ele>406.600006103515625</ele>
        <time>2020-08-08T11:47:05.000Z</time>
      </trkpt>
      <trkpt lat="42.318001203238964080810546875" lon="2.6960520632565021514892578125">
        <ele>406.79998779296875</ele>
        <time>2020-08-08T11:47:06.000Z</time>
      </trkpt>
      <trkpt lat="42.31803263537585735321044921875" lon="2.69595759920775890350341796875">
        <ele>407.399993896484375</ele>
        <time>2020-08-08T11:47:10.000Z</time>
      </trkpt>
      <trkpt lat="42.3180483095347881317138671875" lon="2.695910073816776275634765625">
        <ele>407.600006103515625</ele>
        <time>2020-08-08T11:47:12.000Z</time>
      </trkpt>
      <trkpt lat="42.318087033927440643310546875" lon="2.69570790231227874755859375">
        <ele>408.20001220703125</ele>
        <time>2020-08-08T11:47:20.000Z</time>
      </trkpt>
      <trkpt lat="42.31811192817986011505126953125" lon="2.69559885375201702117919921875">
        <ele>408.600006103515625</ele>
        <time>2020-08-08T11:47:25.000Z</time>
      </trkpt>
      <trkpt lat="42.31811796315014362335205078125" lon="2.69557706080377101898193359375">
        <ele>408.79998779296875</ele>
        <time>2020-08-08T11:47:26.000Z</time>
      </trkpt>
      <trkpt lat="42.31814512051641941070556640625" lon="2.69551520235836505889892578125">
        <ele>409.20001220703125</ele>
        <time>2020-08-08T11:47:29.000Z</time>
      </trkpt>
      <trkpt lat="42.31818015687167644500732421875" lon="2.69542333669960498809814453125">
        <ele>409.79998779296875</ele>
        <time>2020-08-08T11:47:33.000Z</time>
      </trkpt>
      <trkpt lat="42.31819842942059040069580078125" lon="2.69538125954568386077880859375">
        <ele>410</ele>
        <time>2020-08-08T11:47:35.000Z</time>
      </trkpt>
      <trkpt lat="42.31823162175714969635009765625" lon="2.6953141205012798309326171875">
        <ele>410.20001220703125</ele>
        <time>2020-08-08T11:47:38.000Z</time>
      </trkpt>
      <trkpt lat="42.31828459538519382476806640625" lon="2.69523574970662593841552734375">
        <ele>410.79998779296875</ele>
        <time>2020-08-08T11:47:42.000Z</time>
      </trkpt>
      <trkpt lat="42.318298928439617156982421875" lon="2.69520238973200321197509765625">
        <ele>411.20001220703125</ele>
        <time>2020-08-08T11:47:44.000Z</time>
      </trkpt>
      <trkpt lat="42.318308316171169281005859375" lon="2.69518445245921611785888671875">
        <ele>411.399993896484375</ele>
        <time>2020-08-08T11:47:45.000Z</time>
      </trkpt>
      <trkpt lat="42.31832901947200298309326171875" lon="2.6951558701694011688232421875">
        <ele>411.600006103515625</ele>
        <time>2020-08-08T11:47:47.000Z</time>
      </trkpt>
      <trkpt lat="42.3183611221611499786376953125" lon="2.69507624208927154541015625">
        <ele>412</ele>
        <time>2020-08-08T11:47:51.000Z</time>
      </trkpt>
      <trkpt lat="42.318371348083019256591796875" lon="2.6950569637119770050048828125">
        <ele>412.20001220703125</ele>
        <time>2020-08-08T11:47:52.000Z</time>
      </trkpt>
      <trkpt lat="42.31838534586131572723388671875" lon="2.69501413218677043914794921875">
        <ele>412.399993896484375</ele>
        <time>2020-08-08T11:47:54.000Z</time>
      </trkpt>
      <trkpt lat="42.31839456595480442047119140625" lon="2.69499485380947589874267578125">
        <ele>412.600006103515625</ele>
        <time>2020-08-08T11:47:55.000Z</time>
      </trkpt>
      <trkpt lat="42.31842172332108020782470703125" lon="2.6949402876198291778564453125">
        <ele>413.20001220703125</ele>
        <time>2020-08-08T11:47:58.000Z</time>
      </trkpt>
      <trkpt lat="42.31844033114612102508544921875" lon="2.69490282051265239715576171875">
        <ele>413.399993896484375</ele>
        <time>2020-08-08T11:48:00.000Z</time>
      </trkpt>
      <trkpt lat="42.318495400249958038330078125" lon="2.6947984658181667327880859375">
        <ele>413.79998779296875</ele>
        <time>2020-08-08T11:48:05.000Z</time>
      </trkpt>
      <trkpt lat="42.318533957004547119140625" lon="2.694744653999805450439453125">
        <ele>414</ele>
        <time>2020-08-08T11:48:08.000Z</time>
      </trkpt>
      <trkpt lat="42.3185411654412746429443359375" lon="2.6947282254695892333984375">
        <ele>414.20001220703125</ele>
        <time>2020-08-08T11:48:09.000Z</time>
      </trkpt>
      <trkpt lat="42.31854736804962158203125" lon="2.69471623934805393218994140625">
        <ele>414.20001220703125</ele>
        <time>2020-08-08T11:48:10.000Z</time>
      </trkpt>
      <trkpt lat="42.3185529001057147979736328125" lon="2.6947012357413768768310546875">
        <ele>414.399993896484375</ele>
        <time>2020-08-08T11:48:11.000Z</time>
      </trkpt>
      <trkpt lat="42.3186045326292514801025390625" lon="2.69460149109363555908203125">
        <ele>415.20001220703125</ele>
        <time>2020-08-08T11:48:16.000Z</time>
      </trkpt>
      <trkpt lat="42.31861819513142108917236328125" lon="2.6945785246789455413818359375">
        <ele>415.399993896484375</ele>
        <time>2020-08-08T11:48:17.000Z</time>
      </trkpt>
      <trkpt lat="42.31865759007632732391357421875" lon="2.69450149498879909515380859375">
        <ele>415.79998779296875</ele>
        <time>2020-08-08T11:48:21.000Z</time>
      </trkpt>
      <trkpt lat="42.31869480572640895843505859375" lon="2.69444148056209087371826171875">
        <ele>416.399993896484375</ele>
        <time>2020-08-08T11:48:24.000Z</time>
      </trkpt>
      <trkpt lat="42.31870553456246852874755859375" lon="2.69441985525190830230712890625">
        <ele>416.79998779296875</ele>
        <time>2020-08-08T11:48:25.000Z</time>
      </trkpt>
      <trkpt lat="42.31871969997882843017578125" lon="2.69438046030700206756591796875">
        <ele>417.20001220703125</ele>
        <time>2020-08-08T11:48:27.000Z</time>
      </trkpt>
      <trkpt lat="42.31874945573508739471435546875" lon="2.69432581029832363128662109375">
        <ele>417.399993896484375</ele>
        <time>2020-08-08T11:48:30.000Z</time>
      </trkpt>
      <trkpt lat="42.31876336969435214996337890625" lon="2.69430468790233135223388671875">
        <ele>417.600006103515625</ele>
        <time>2020-08-08T11:48:31.000Z</time>
      </trkpt>
      <trkpt lat="42.3188127391040325164794921875" lon="2.69420075230300426483154296875">
        <ele>418.399993896484375</ele>
        <time>2020-08-08T11:48:36.000Z</time>
      </trkpt>
      <trkpt lat="42.31882254593074321746826171875" lon="2.69418063573539257049560546875">
        <ele>418.600006103515625</ele>
        <time>2020-08-08T11:48:37.000Z</time>
      </trkpt>
      <trkpt lat="42.31886127032339572906494140625" lon="2.69409614615142345428466796875">
        <ele>419.399993896484375</ele>
        <time>2020-08-08T11:48:41.000Z</time>
      </trkpt>
      <trkpt lat="42.31886990368366241455078125" lon="2.6940762810409069061279296875">
        <ele>419.399993896484375</ele>
        <time>2020-08-08T11:48:42.000Z</time>
      </trkpt>
      <trkpt lat="42.3188794590532779693603515625" lon="2.6940568350255489349365234375">
        <ele>419.600006103515625</ele>
        <time>2020-08-08T11:48:43.000Z</time>
      </trkpt>
      <trkpt lat="42.31891189701855182647705078125" lon="2.69398433156311511993408203125">
        <ele>420</ele>
        <time>2020-08-08T11:48:47.000Z</time>
      </trkpt>
      <trkpt lat="42.318917177617549896240234375" lon="2.69396287389099597930908203125">
        <ele>420.20001220703125</ele>
        <time>2020-08-08T11:48:48.000Z</time>
      </trkpt>
      <trkpt lat="42.3189295828342437744140625" lon="2.6939495466649532318115234375">
        <ele>420.399993896484375</ele>
        <time>2020-08-08T11:48:49.000Z</time>
      </trkpt>
      <trkpt lat="42.31899035163223743438720703125" lon="2.693866230547428131103515625">
        <ele>421.20001220703125</ele>
        <time>2020-08-08T11:48:54.000Z</time>
      </trkpt>
      <trkpt lat="42.31900007463991641998291015625" lon="2.6938519813120365142822265625">
        <ele>421.600006103515625</ele>
        <time>2020-08-08T11:48:55.000Z</time>
      </trkpt>
      <trkpt lat="42.31900895945727825164794921875" lon="2.6938377320766448974609375">
        <ele>421.600006103515625</ele>
        <time>2020-08-08T11:48:56.000Z</time>
      </trkpt>
      <trkpt lat="42.3190249688923358917236328125" lon="2.69381694495677947998046875">
        <ele>422</ele>
        <time>2020-08-08T11:49:00.000Z</time>
      </trkpt>
      <trkpt lat="42.319031171500682830810546875" lon="2.693805880844593048095703125">
        <ele>422.20001220703125</ele>
        <time>2020-08-08T11:49:16.000Z</time>
      </trkpt>
      <trkpt lat="42.31903779320418834686279296875" lon="2.69376908428966999053955078125">
        <ele>422.20001220703125</ele>
        <time>2020-08-08T11:49:19.000Z</time>
      </trkpt>
      <trkpt lat="42.31903175823390483856201171875" lon="2.69373756833374500274658203125">
        <ele>422.399993896484375</ele>
        <time>2020-08-08T11:49:21.000Z</time>
      </trkpt>
      <trkpt lat="42.319027148187160491943359375" lon="2.69372063688933849334716796875">
        <ele>422.600006103515625</ele>
        <time>2020-08-08T11:49:22.000Z</time>
      </trkpt>
      <trkpt lat="42.3189939558506011962890625" lon="2.693673111498355865478515625">
        <ele>423.600006103515625</ele>
        <time>2020-08-08T11:49:26.000Z</time>
      </trkpt>
      <trkpt lat="42.31898146681487560272216796875" lon="2.6936729438602924346923828125">
        <ele>423.79998779296875</ele>
        <time>2020-08-08T11:49:27.000Z</time>
      </trkpt>
      <trkpt lat="42.31894500553607940673828125" lon="2.69370429217815399169921875">
        <ele>424.399993896484375</ele>
        <time>2020-08-08T11:49:31.000Z</time>
      </trkpt>
      <trkpt lat="42.31892430223524570465087890625" lon="2.693716026842594146728515625">
        <ele>425</ele>
        <time>2020-08-08T11:49:33.000Z</time>
      </trkpt>
      <trkpt lat="42.3188942112028598785400390625" lon="2.69374561496078968048095703125">
        <ele>425.600006103515625</ele>
        <time>2020-08-08T11:49:37.000Z</time>
      </trkpt>
      <trkpt lat="42.318887002766132354736328125" lon="2.69377880729734897613525390625">
        <ele>425.600006103515625</ele>
        <time>2020-08-08T11:49:39.000Z</time>
      </trkpt>
      <trkpt lat="42.31887786649167537689208984375" lon="2.69380755722522735595703125">
        <ele>425.79998779296875</ele>
        <time>2020-08-08T11:49:41.000Z</time>
      </trkpt>
      <trkpt lat="42.3188425786793231964111328125" lon="2.693870924413204193115234375">
        <ele>425.79998779296875</ele>
        <time>2020-08-08T11:49:46.000Z</time>
      </trkpt>
      <trkpt lat="42.31879237107932567596435546875" lon="2.69393119029700756072998046875">
        <ele>426.399993896484375</ele>
        <time>2020-08-08T11:49:51.000Z</time>
      </trkpt>
      <trkpt lat="42.318742163479328155517578125" lon="2.6939803920686244964599609375">
        <ele>426.79998779296875</ele>
        <time>2020-08-08T11:49:55.000Z</time>
      </trkpt>
      <trkpt lat="42.31873311102390289306640625" lon="2.69399455748498439788818359375">
        <ele>426.79998779296875</ele>
        <time>2020-08-08T11:49:56.000Z</time>
      </trkpt>
      <trkpt lat="42.31868323870003223419189453125" lon="2.69404619000852108001708984375">
        <ele>427</ele>
        <time>2020-08-08T11:50:00.000Z</time>
      </trkpt>
      <trkpt lat="42.31865356676280498504638671875" lon="2.6940769515931606292724609375">
        <ele>427.399993896484375</ele>
        <time>2020-08-08T11:50:03.000Z</time>
      </trkpt>
      <trkpt lat="42.31862389482557773590087890625" lon="2.69411601126194000244140625">
        <ele>427.600006103515625</ele>
        <time>2020-08-08T11:50:06.000Z</time>
      </trkpt>
      <trkpt lat="42.31853856705129146575927734375" lon="2.69421466626226902008056640625">
        <ele>428.399993896484375</ele>
        <time>2020-08-08T11:50:13.000Z</time>
      </trkpt>
      <trkpt lat="42.31844904832541942596435546875" lon="2.6943032629787921905517578125">
        <ele>429</ele>
        <time>2020-08-08T11:50:20.000Z</time>
      </trkpt>
      <trkpt lat="42.3184030316770076751708984375" lon="2.6943285763263702392578125">
        <ele>429.399993896484375</ele>
        <time>2020-08-08T11:50:23.000Z</time>
      </trkpt>
      <trkpt lat="42.318339161574840545654296875" lon="2.69431625492870807647705078125">
        <ele>429.79998779296875</ele>
        <time>2020-08-08T11:50:27.000Z</time>
      </trkpt>
      <trkpt lat="42.3183071427047252655029296875" lon="2.6942761056125164031982421875">
        <ele>430.20001220703125</ele>
        <time>2020-08-08T11:50:30.000Z</time>
      </trkpt>
      <trkpt lat="42.31830555014312267303466796875" lon="2.6942556537687778472900390625">
        <ele>430.600006103515625</ele>
        <time>2020-08-08T11:50:31.000Z</time>
      </trkpt>
      <trkpt lat="42.318304963409900665283203125" lon="2.6942335255444049835205078125">
        <ele>430.600006103515625</ele>
        <time>2020-08-08T11:50:32.000Z</time>
      </trkpt>
      <trkpt lat="42.318340502679347991943359375" lon="2.6940963976085186004638671875">
        <ele>431.399993896484375</ele>
        <time>2020-08-08T11:50:39.000Z</time>
      </trkpt>
      <trkpt lat="42.31834863312542438507080078125" lon="2.694077789783477783203125">
        <ele>431.600006103515625</ele>
        <time>2020-08-08T11:50:40.000Z</time>
      </trkpt>
      <trkpt lat="42.3183582723140716552734375" lon="2.69406043924391269683837890625">
        <ele>431.600006103515625</ele>
        <time>2020-08-08T11:50:41.000Z</time>
      </trkpt>
      <trkpt lat="42.318416275084018707275390625" lon="2.69395935349166393280029296875">
        <ele>432.600006103515625</ele>
        <time>2020-08-08T11:50:47.000Z</time>
      </trkpt>
      <trkpt lat="42.31842474080622196197509765625" lon="2.69393957220017910003662109375">
        <ele>432.399993896484375</ele>
        <time>2020-08-08T11:50:48.000Z</time>
      </trkpt>
      <trkpt lat="42.31848257593810558319091796875" lon="2.6938127540051937103271484375">
        <ele>433.20001220703125</ele>
        <time>2020-08-08T11:50:55.000Z</time>
      </trkpt>
      <trkpt lat="42.3185026086866855621337890625" lon="2.6937463693320751190185546875">
        <ele>433.399993896484375</ele>
        <time>2020-08-08T11:50:59.000Z</time>
      </trkpt>
      <trkpt lat="42.31851057149469852447509765625" lon="2.6937068067491054534912109375">
        <ele>433.600006103515625</ele>
        <time>2020-08-08T11:51:01.000Z</time>
      </trkpt>
      <trkpt lat="42.31851526536047458648681640625" lon="2.69368878565728664398193359375">
        <ele>433.79998779296875</ele>
        <time>2020-08-08T11:51:02.000Z</time>
      </trkpt>
      <trkpt lat="42.3185460269451141357421875" lon="2.693579234182834625244140625">
        <ele>434</ele>
        <time>2020-08-08T11:51:08.000Z</time>
      </trkpt>
      <trkpt lat="42.3185532353818416595458984375" lon="2.6935381628572940826416015625">
        <ele>434.399993896484375</ele>
        <time>2020-08-08T11:51:10.000Z</time>
      </trkpt>
      <trkpt lat="42.31857360340654850006103515625" lon="2.69343447871506214141845703125">
        <ele>434.79998779296875</ele>
        <time>2020-08-08T11:51:15.000Z</time>
      </trkpt>
      <trkpt lat="42.3185820691287517547607421875" lon="2.693327106535434722900390625">
        <ele>435.399993896484375</ele>
        <time>2020-08-08T11:51:20.000Z</time>
      </trkpt>
      <trkpt lat="42.31858852319419384002685546875" lon="2.6932437904179096221923828125">
        <ele>436</ele>
        <time>2020-08-08T11:51:24.000Z</time>
      </trkpt>
      <trkpt lat="42.3185874335467815399169921875" lon="2.693178243935108184814453125">
        <ele>436.399993896484375</ele>
        <time>2020-08-08T11:51:27.000Z</time>
      </trkpt>
      <trkpt lat="42.3185830749571323394775390625" lon="2.69309216178953647613525390625">
        <ele>436.79998779296875</ele>
        <time>2020-08-08T11:51:31.000Z</time>
      </trkpt>
      <trkpt lat="42.3185797221958637237548828125" lon="2.69300498999655246734619140625">
        <ele>437.79998779296875</ele>
        <time>2020-08-08T11:51:35.000Z</time>
      </trkpt>
      <trkpt lat="42.3185726813971996307373046875" lon="2.6929011382162570953369140625">
        <ele>438.600006103515625</ele>
        <time>2020-08-08T11:51:40.000Z</time>
      </trkpt>
      <trkpt lat="42.3185720108449459075927734375" lon="2.6928801834583282470703125">
        <ele>438.79998779296875</ele>
        <time>2020-08-08T11:51:41.000Z</time>
      </trkpt>
      <trkpt lat="42.31856505386531352996826171875" lon="2.69279913045465946197509765625">
        <ele>440</ele>
        <time>2020-08-08T11:51:45.000Z</time>
      </trkpt>
      <trkpt lat="42.3185513913631439208984375" lon="2.6926858909428119659423828125">
        <ele>440.79998779296875</ele>
        <time>2020-08-08T11:51:51.000Z</time>
      </trkpt>
      <trkpt lat="42.318545021116733551025390625" lon="2.6926097832620143890380859375">
        <ele>441.79998779296875</ele>
        <time>2020-08-08T11:51:55.000Z</time>
      </trkpt>
      <trkpt lat="42.3185388185083866119384765625" lon="2.6925081945955753326416015625">
        <ele>443</ele>
        <time>2020-08-08T11:52:00.000Z</time>
      </trkpt>
      <trkpt lat="42.31853739358484745025634765625" lon="2.69237232394516468048095703125">
        <ele>444.20001220703125</ele>
        <time>2020-08-08T11:52:07.000Z</time>
      </trkpt>
      <trkpt lat="42.3185354657471179962158203125" lon="2.69233142025768756866455078125">
        <ele>444.600006103515625</ele>
        <time>2020-08-08T11:52:09.000Z</time>
      </trkpt>
      <trkpt lat="42.31853521429002285003662109375" lon="2.69225053489208221435546875">
        <ele>445.20001220703125</ele>
        <time>2020-08-08T11:52:13.000Z</time>
      </trkpt>
      <trkpt lat="42.31854141689836978912353515625" lon="2.69215472973883152008056640625">
        <ele>446.20001220703125</ele>
        <time>2020-08-08T11:52:18.000Z</time>
      </trkpt>
      <trkpt lat="42.31854401528835296630859375" lon="2.69208063371479511260986328125">
        <ele>447</ele>
        <time>2020-08-08T11:52:22.000Z</time>
      </trkpt>
      <trkpt lat="42.31854937970638275146484375" lon="2.69202263094484806060791015625">
        <ele>447.600006103515625</ele>
        <time>2020-08-08T11:52:25.000Z</time>
      </trkpt>
      <trkpt lat="42.31855876743793487548828125" lon="2.69194878637790679931640625">
        <ele>448</ele>
        <time>2020-08-08T11:52:29.000Z</time>
      </trkpt>
      <trkpt lat="42.3185755312442779541015625" lon="2.69186102785170078277587890625">
        <ele>449.20001220703125</ele>
        <time>2020-08-08T11:52:34.000Z</time>
      </trkpt>
      <trkpt lat="42.31859497725963592529296875" lon="2.69172213971614837646484375">
        <ele>450.20001220703125</ele>
        <time>2020-08-08T11:52:42.000Z</time>
      </trkpt>
      <trkpt lat="42.3185944743454456329345703125" lon="2.69170814193785190582275390625">
        <ele>450.399993896484375</ele>
        <time>2020-08-08T11:52:43.000Z</time>
      </trkpt>
      <trkpt lat="42.31856421567499637603759765625" lon="2.69159741699695587158203125">
        <ele>451.600006103515625</ele>
        <time>2020-08-08T11:52:49.000Z</time>
      </trkpt>
      <trkpt lat="42.31849196366965770721435546875" lon="2.6914490573108196258544921875">
        <ele>452.399993896484375</ele>
        <time>2020-08-08T11:52:57.000Z</time>
      </trkpt>
      <trkpt lat="42.318467907607555389404296875" lon="2.69142039120197296142578125">
        <ele>452.600006103515625</ele>
        <time>2020-08-08T11:52:59.000Z</time>
      </trkpt>
      <trkpt lat="42.31837771832942962646484375" lon="2.69136984832584857940673828125">
        <ele>453.399993896484375</ele>
        <time>2020-08-08T11:53:05.000Z</time>
      </trkpt>
      <trkpt lat="42.3183249123394489288330078125" lon="2.69135207869112491607666015625">
        <ele>453.600006103515625</ele>
        <time>2020-08-08T11:53:08.000Z</time>
      </trkpt>
      <trkpt lat="42.31825643219053745269775390625" lon="2.691291980445384979248046875">
        <ele>454.399993896484375</ele>
        <time>2020-08-08T11:53:13.000Z</time>
      </trkpt>
      <trkpt lat="42.318247295916080474853515625" lon="2.69127194769680500030517578125">
        <ele>454.600006103515625</ele>
        <time>2020-08-08T11:53:14.000Z</time>
      </trkpt>
      <trkpt lat="42.3182374052703380584716796875" lon="2.69123137928545475006103515625">
        <ele>455</ele>
        <time>2020-08-08T11:53:16.000Z</time>
      </trkpt>
      <trkpt lat="42.31826162897050380706787109375" lon="2.6911734603345394134521484375">
        <ele>455.399993896484375</ele>
        <time>2020-08-08T11:53:19.000Z</time>
      </trkpt>
      <trkpt lat="42.3183255828917026519775390625" lon="2.6911694370210170745849609375">
        <ele>455.79998779296875</ele>
        <time>2020-08-08T11:53:23.000Z</time>
      </trkpt>
      <trkpt lat="42.31833823956549167633056640625" lon="2.6911815069615840911865234375">
        <ele>456</ele>
        <time>2020-08-08T11:53:24.000Z</time>
      </trkpt>
      <trkpt lat="42.318420968949794769287109375" lon="2.691240012645721435546875">
        <ele>457</ele>
        <time>2020-08-08T11:53:30.000Z</time>
      </trkpt>
      <trkpt lat="42.31843597255647182464599609375" lon="2.6912515796720981597900390625">
        <ele>457</ele>
        <time>2020-08-08T11:53:31.000Z</time>
      </trkpt>
      <trkpt lat="42.318544350564479827880859375" lon="2.6913216523826122283935546875">
        <ele>458</ele>
        <time>2020-08-08T11:53:38.000Z</time>
      </trkpt>
      <trkpt lat="42.3185790516436100006103515625" lon="2.6913400925695896148681640625">
        <ele>458.20001220703125</ele>
        <time>2020-08-08T11:53:40.000Z</time>
      </trkpt>
      <trkpt lat="42.3186625353991985321044921875" lon="2.69143573008477687835693359375">
        <ele>458.79998779296875</ele>
        <time>2020-08-08T11:53:46.000Z</time>
      </trkpt>
      <trkpt lat="42.31867678463459014892578125" lon="2.69144989550113677978515625">
        <ele>459</ele>
        <time>2020-08-08T11:53:47.000Z</time>
      </trkpt>
      <trkpt lat="42.31876286678016185760498046875" lon="2.69157302565872669219970703125">
        <ele>459.79998779296875</ele>
        <time>2020-08-08T11:53:54.000Z</time>
      </trkpt>
      <trkpt lat="42.31880553066730499267578125" lon="2.69164544530212879180908203125">
        <ele>460.600006103515625</ele>
        <time>2020-08-08T11:53:58.000Z</time>
      </trkpt>
      <trkpt lat="42.31881952844560146331787109375" lon="2.6916844211518764495849609375">
        <ele>461</ele>
        <time>2020-08-08T11:54:00.000Z</time>
      </trkpt>
      <trkpt lat="42.31884601525962352752685546875" lon="2.69174200482666492462158203125">
        <ele>461.600006103515625</ele>
        <time>2020-08-08T11:54:03.000Z</time>
      </trkpt>
      <trkpt lat="42.31886562891304492950439453125" lon="2.69178114831447601318359375">
        <ele>462</ele>
        <time>2020-08-08T11:54:05.000Z</time>
      </trkpt>
      <trkpt lat="42.31889613904058933258056640625" lon="2.69183940254151821136474609375">
        <ele>462.399993896484375</ele>
        <time>2020-08-08T11:54:08.000Z</time>
      </trkpt>
      <trkpt lat="42.318988256156444549560546875" lon="2.6919348724186420440673828125">
        <ele>463.20001220703125</ele>
        <time>2020-08-08T11:54:15.000Z</time>
      </trkpt>
      <trkpt lat="42.319023124873638153076171875" lon="2.69192171283066272735595703125">
        <ele>463.399993896484375</ele>
        <time>2020-08-08T11:54:17.000Z</time>
      </trkpt>
      <trkpt lat="42.3190449178218841552734375" lon="2.6918631233274936676025390625">
        <ele>463.79998779296875</ele>
        <time>2020-08-08T11:54:20.000Z</time>
      </trkpt>
      <trkpt lat="42.3190306685864925384521484375" lon="2.6918198727071285247802734375">
        <ele>463.79998779296875</ele>
        <time>2020-08-08T11:54:22.000Z</time>
      </trkpt>
      <trkpt lat="42.31902086175978183746337890625" lon="2.691801600158214569091796875">
        <ele>464</ele>
        <time>2020-08-08T11:54:23.000Z</time>
      </trkpt>
      <trkpt lat="42.318987585604190826416015625" lon="2.69174736924469470977783203125">
        <ele>464.600006103515625</ele>
        <time>2020-08-08T11:54:26.000Z</time>
      </trkpt>
      <trkpt lat="42.318956740200519561767578125" lon="2.6916887797415256500244140625">
        <ele>465</ele>
        <time>2020-08-08T11:54:29.000Z</time>
      </trkpt>
      <trkpt lat="42.31892245821654796600341796875" lon="2.6915778033435344696044921875">
        <ele>465.600006103515625</ele>
        <time>2020-08-08T11:54:34.000Z</time>
      </trkpt>
      <trkpt lat="42.31890720315277576446533203125" lon="2.69152231514453887939453125">
        <ele>466</ele>
        <time>2020-08-08T11:54:38.000Z</time>
      </trkpt>
      <trkpt lat="42.31890611350536346435546875" lon="2.6915224827826023101806640625">
        <ele>466.20001220703125</ele>
        <time>2020-08-08T11:54:39.000Z</time>
      </trkpt>
      <trkpt lat="42.31890636496245861053466796875" lon="2.69152365624904632568359375">
        <ele>466.20001220703125</ele>
        <time>2020-08-08T11:54:52.000Z</time>
      </trkpt>
      <trkpt lat="42.3189029283821582794189453125" lon="2.6914961636066436767578125">
        <ele>466.600006103515625</ele>
        <time>2020-08-08T11:55:02.000Z</time>
      </trkpt>
      <trkpt lat="42.31887635774910449981689453125" lon="2.6914078183472156524658203125">
        <ele>467</ele>
        <time>2020-08-08T11:55:07.000Z</time>
      </trkpt>
      <trkpt lat="42.31886194087564945220947265625" lon="2.6913716085255146026611328125">
        <ele>467.20001220703125</ele>
        <time>2020-08-08T11:55:09.000Z</time>
      </trkpt>
      <trkpt lat="42.31880259700119495391845703125" lon="2.69124898128211498260498046875">
        <ele>467.79998779296875</ele>
        <time>2020-08-08T11:55:16.000Z</time>
      </trkpt>
      <trkpt lat="42.318784408271312713623046875" lon="2.6911872066557407379150390625">
        <ele>468.20001220703125</ele>
        <time>2020-08-08T11:55:19.000Z</time>
      </trkpt>
      <trkpt lat="42.3187450133264064788818359375" lon="2.69111570902168750762939453125">
        <ele>469</ele>
        <time>2020-08-08T11:55:23.000Z</time>
      </trkpt>
      <trkpt lat="42.3186927102506160736083984375" lon="2.69103281199932098388671875">
        <ele>469.600006103515625</ele>
        <time>2020-08-08T11:55:28.000Z</time>
      </trkpt>
      <trkpt lat="42.3186685703694820404052734375" lon="2.6910054869949817657470703125">
        <ele>470</ele>
        <time>2020-08-08T11:55:30.000Z</time>
      </trkpt>
      <trkpt lat="42.31858734972774982452392578125" lon="2.69093449227511882781982421875">
        <ele>470.399993896484375</ele>
        <time>2020-08-08T11:55:36.000Z</time>
      </trkpt>
      <trkpt lat="42.31853119097650051116943359375" lon="2.69088218919932842254638671875">
        <ele>470.79998779296875</ele>
        <time>2020-08-08T11:55:40.000Z</time>
      </trkpt>
      <trkpt lat="42.318510152399539947509765625" lon="2.69082603044807910919189453125">
        <ele>471.20001220703125</ele>
        <time>2020-08-08T11:55:43.000Z</time>
      </trkpt>
      <trkpt lat="42.318506129086017608642578125" lon="2.6907872222363948822021484375">
        <ele>471.600006103515625</ele>
        <time>2020-08-08T11:55:45.000Z</time>
      </trkpt>
      <trkpt lat="42.31852347962558269500732421875" lon="2.69075595773756504058837890625">
        <ele>472</ele>
        <time>2020-08-08T11:55:47.000Z</time>
      </trkpt>
      <trkpt lat="42.318536303937435150146484375" lon="2.69074506126344203948974609375">
        <ele>472.20001220703125</ele>
        <time>2020-08-08T11:55:48.000Z</time>
      </trkpt>
      <trkpt lat="42.318564467132091522216796875" lon="2.69073030911386013031005859375">
        <ele>472.600006103515625</ele>
        <time>2020-08-08T11:55:50.000Z</time>
      </trkpt>
      <trkpt lat="42.3185944743454456329345703125" lon="2.69073734991252422332763671875">
        <ele>473</ele>
        <time>2020-08-08T11:55:52.000Z</time>
      </trkpt>
      <trkpt lat="42.3186192847788333892822265625" lon="2.69076526165008544921875">
        <ele>473.399993896484375</ele>
        <time>2020-08-08T11:55:54.000Z</time>
      </trkpt>
      <trkpt lat="42.3186420835554599761962890625" lon="2.6907972805202007293701171875">
        <ele>473.79998779296875</ele>
        <time>2020-08-08T11:55:56.000Z</time>
      </trkpt>
      <trkpt lat="42.31866396032273769378662109375" lon="2.6908287964761257171630859375">
        <ele>474</ele>
        <time>2020-08-08T11:55:58.000Z</time>
      </trkpt>
      <trkpt lat="42.31873285956680774688720703125" lon="2.69089509733021259307861328125">
        <ele>474.399993896484375</ele>
        <time>2020-08-08T11:56:03.000Z</time>
      </trkpt>
      <trkpt lat="42.318821288645267486572265625" lon="2.69096785224974155426025390625">
        <ele>475</ele>
        <time>2020-08-08T11:56:09.000Z</time>
      </trkpt>
      <trkpt lat="42.3188375495374202728271484375" lon="2.69097975455224514007568359375">
        <ele>475.20001220703125</ele>
        <time>2020-08-08T11:56:10.000Z</time>
      </trkpt>
      <trkpt lat="42.31893159449100494384765625" lon="2.69104085862636566162109375">
        <ele>476</ele>
        <time>2020-08-08T11:56:16.000Z</time>
      </trkpt>
      <trkpt lat="42.31895799748599529266357421875" lon="2.691057622432708740234375">
        <ele>476.20001220703125</ele>
        <time>2020-08-08T11:56:18.000Z</time>
      </trkpt>
      <trkpt lat="42.31901214458048343658447265625" lon="2.69108385778963565826416015625">
        <ele>476.79998779296875</ele>
        <time>2020-08-08T11:56:22.000Z</time>
      </trkpt>
      <trkpt lat="42.319027483463287353515625" lon="2.69108469597995281219482421875">
        <ele>477</ele>
        <time>2020-08-08T11:56:23.000Z</time>
      </trkpt>
      <trkpt lat="42.31913854368031024932861328125" lon="2.69110347144305706024169921875">
        <ele>478</ele>
        <time>2020-08-08T11:56:30.000Z</time>
      </trkpt>
      <trkpt lat="42.31921984814107418060302734375" lon="2.6910765655338764190673828125">
        <ele>478.79998779296875</ele>
        <time>2020-08-08T11:56:35.000Z</time>
      </trkpt>
      <trkpt lat="42.31922990642488002777099609375" lon="2.69104245118796825408935546875">
        <ele>479.20001220703125</ele>
        <time>2020-08-08T11:56:37.000Z</time>
      </trkpt>
      <trkpt lat="42.319192774593830108642578125" lon="2.6909887231886386871337890625">
        <ele>480</ele>
        <time>2020-08-08T11:56:41.000Z</time>
      </trkpt>
      <trkpt lat="42.31917777098715305328369140625" lon="2.690981514751911163330078125">
        <ele>480.399993896484375</ele>
        <time>2020-08-08T11:56:42.000Z</time>
      </trkpt>
      <trkpt lat="42.319101579487323760986328125" lon="2.690953351557254791259765625">
        <ele>481.600006103515625</ele>
        <time>2020-08-08T11:56:47.000Z</time>
      </trkpt>
      <trkpt lat="42.319059669971466064453125" lon="2.690935917198657989501953125">
        <ele>482.20001220703125</ele>
        <time>2020-08-08T11:56:50.000Z</time>
      </trkpt>
      <trkpt lat="42.319003008306026458740234375" lon="2.690901719033718109130859375">
        <ele>482.600006103515625</ele>
        <time>2020-08-08T11:56:54.000Z</time>
      </trkpt>
      <trkpt lat="42.3189545609056949615478515625" lon="2.6908432133495807647705078125">
        <ele>483.20001220703125</ele>
        <time>2020-08-08T11:56:58.000Z</time>
      </trkpt>
      <trkpt lat="42.3189173452556133270263671875" lon="2.69080088473856449127197265625">
        <ele>483.600006103515625</ele>
        <time>2020-08-08T11:57:01.000Z</time>
      </trkpt>
      <trkpt lat="42.31883930973708629608154296875" lon="2.6906896568834781646728515625">
        <ele>484.600006103515625</ele>
        <time>2020-08-08T11:57:08.000Z</time>
      </trkpt>
      <trkpt lat="42.3187631182372570037841796875" lon="2.69055043347179889678955078125">
        <ele>485.399993896484375</ele>
        <time>2020-08-08T11:57:16.000Z</time>
      </trkpt>
      <trkpt lat="42.3187537305057048797607421875" lon="2.6905270479619503021240234375">
        <ele>485.600006103515625</ele>
        <time>2020-08-08T11:57:17.000Z</time>
      </trkpt>
      <trkpt lat="42.31871710158884525299072265625" lon="2.6904098689556121826171875">
        <ele>486.600006103515625</ele>
        <time>2020-08-08T11:57:22.000Z</time>
      </trkpt>
      <trkpt lat="42.31871123425662517547607421875" lon="2.69038782455027103424072265625">
        <ele>486.79998779296875</ele>
        <time>2020-08-08T11:57:23.000Z</time>
      </trkpt>
      <trkpt lat="42.318671755492687225341796875" lon="2.69024558365345001220703125">
        <ele>487.399993896484375</ele>
        <time>2020-08-08T11:57:30.000Z</time>
      </trkpt>
      <trkpt lat="42.31865289621055126190185546875" lon="2.69012345932424068450927734375">
        <ele>488.399993896484375</ele>
        <time>2020-08-08T11:57:37.000Z</time>
      </trkpt>
      <trkpt lat="42.3186479508876800537109375" lon="2.69010300748050212860107421875">
        <ele>488.600006103515625</ele>
        <time>2020-08-08T11:57:38.000Z</time>
      </trkpt>
      <trkpt lat="42.31864635832607746124267578125" lon="2.69008331000804901123046875">
        <ele>488.600006103515625</ele>
        <time>2020-08-08T11:57:39.000Z</time>
      </trkpt>
      <trkpt lat="42.31863797642290592193603515625" lon="2.69000980071723461151123046875">
        <ele>489.399993896484375</ele>
        <time>2020-08-08T11:57:43.000Z</time>
      </trkpt>
      <trkpt lat="42.31863177381455898284912109375" lon="2.68997375853359699249267578125">
        <ele>489.600006103515625</ele>
        <time>2020-08-08T11:57:45.000Z</time>
      </trkpt>
      <trkpt lat="42.3185951448976993560791015625" lon="2.68984652124345302581787109375">
        <ele>490.600006103515625</ele>
        <time>2020-08-08T11:57:51.000Z</time>
      </trkpt>
      <trkpt lat="42.318588607013225555419921875" lon="2.68982523120939731597900390625">
        <ele>490.79998779296875</ele>
        <time>2020-08-08T11:57:52.000Z</time>
      </trkpt>
      <trkpt lat="42.31855130754411220550537109375" lon="2.68973571248352527618408203125">
        <ele>491.20001220703125</ele>
        <time>2020-08-08T11:57:57.000Z</time>
      </trkpt>
      <trkpt lat="42.31854074634611606597900390625" lon="2.68973152153193950653076171875">
        <ele>491.399993896484375</ele>
        <time>2020-08-08T11:58:07.000Z</time>
      </trkpt>
      <trkpt lat="42.3185404948890209197998046875" lon="2.6897312700748443603515625">
        <ele>491.600006103515625</ele>
        <time>2020-08-08T11:58:13.000Z</time>
      </trkpt>
      <trkpt lat="42.318542003631591796875" lon="2.6897314377129077911376953125">
        <ele>491.399993896484375</ele>
        <time>2020-08-08T11:58:29.000Z</time>
      </trkpt>
      <trkpt lat="42.318542003631591796875" lon="2.68973101861774921417236328125">
        <ele>491.399993896484375</ele>
        <time>2020-08-08T11:58:49.000Z</time>
      </trkpt>
      <trkpt lat="42.31854225508868694305419921875" lon="2.68973118625581264495849609375">
        <ele>491.600006103515625</ele>
        <time>2020-08-08T11:59:15.000Z</time>
      </trkpt>
      <trkpt lat="42.3185421712696552276611328125" lon="2.68973001278936862945556640625">
        <ele>491.79998779296875</ele>
        <time>2020-08-08T11:59:46.000Z</time>
      </trkpt>
      <trkpt lat="42.318542338907718658447265625" lon="2.68972800113260746002197265625">
        <ele>492</ele>
        <time>2020-08-08T12:00:08.000Z</time>
      </trkpt>
      <trkpt lat="42.31854242272675037384033203125" lon="2.6897280849516391754150390625">
        <ele>492</ele>
        <time>2020-08-08T12:00:13.000Z</time>
      </trkpt>
      <trkpt lat="42.31854267418384552001953125" lon="2.689728923141956329345703125">
        <ele>492</ele>
        <time>2020-08-08T12:00:41.000Z</time>
      </trkpt>
      <trkpt lat="42.31854275800287723541259765625" lon="2.689726240932941436767578125">
        <ele>492</ele>
        <time>2020-08-08T12:01:14.000Z</time>
      </trkpt>
      <trkpt lat="42.31854242272675037384033203125" lon="2.68972565419971942901611328125">
        <ele>492.20001220703125</ele>
        <time>2020-08-08T12:02:00.000Z</time>
      </trkpt>
      <trkpt lat="42.3185421712696552276611328125" lon="2.6897254027426242828369140625">
        <ele>492.399993896484375</ele>
        <time>2020-08-08T12:02:24.000Z</time>
      </trkpt>
      <trkpt lat="42.3185425065457820892333984375" lon="2.6897254027426242828369140625">
        <ele>492.20001220703125</ele>
        <time>2020-08-08T12:02:25.000Z</time>
      </trkpt>
      <trkpt lat="42.31854359619319438934326171875" lon="2.6897285878658294677734375">
        <ele>492.399993896484375</ele>
        <time>2020-08-08T12:02:34.000Z</time>
      </trkpt>
      <trkpt lat="42.31853856705129146575927734375" lon="2.689729593694210052490234375">
        <ele>492.399993896484375</ele>
        <time>2020-08-08T12:02:48.000Z</time>
      </trkpt>
      <trkpt lat="42.318536303937435150146484375" lon="2.6897227205336093902587890625">
        <ele>492.600006103515625</ele>
        <time>2020-08-08T12:03:03.000Z</time>
      </trkpt>
      <trkpt lat="42.31852523982524871826171875" lon="2.68968994729220867156982421875">
        <ele>492.600006103515625</ele>
        <time>2020-08-08T12:03:23.000Z</time>
      </trkpt>
      <trkpt lat="42.31852054595947265625" lon="2.6896684058010578155517578125">
        <ele>492.79998779296875</ele>
        <time>2020-08-08T12:03:25.000Z</time>
      </trkpt>
      <trkpt lat="42.3185002617537975311279296875" lon="2.6896378956735134124755859375">
        <ele>493</ele>
        <time>2020-08-08T12:03:29.000Z</time>
      </trkpt>
      <trkpt lat="42.31849179603159427642822265625" lon="2.6896318607032299041748046875">
        <ele>493</ele>
        <time>2020-08-08T12:03:30.000Z</time>
      </trkpt>
      <trkpt lat="42.318470589816570281982421875" lon="2.68957528285682201385498046875">
        <ele>493.600006103515625</ele>
        <time>2020-08-08T12:03:35.000Z</time>
      </trkpt>
      <trkpt lat="42.3184452764689922332763671875" lon="2.68953748047351837158203125">
        <ele>493.79998779296875</ele>
        <time>2020-08-08T12:03:38.000Z</time>
      </trkpt>
      <trkpt lat="42.31843597255647182464599609375" lon="2.68952549435198307037353515625">
        <ele>493.79998779296875</ele>
        <time>2020-08-08T12:03:39.000Z</time>
      </trkpt>
      <trkpt lat="42.31841795146465301513671875" lon="2.689504958689212799072265625">
        <ele>494</ele>
        <time>2020-08-08T12:03:41.000Z</time>
      </trkpt>
      <trkpt lat="42.31841216795146465301513671875" lon="2.6894910447299480438232421875">
        <ele>494.20001220703125</ele>
        <time>2020-08-08T12:03:42.000Z</time>
      </trkpt>
      <trkpt lat="42.3183735273778438568115234375" lon="2.689411751925945281982421875">
        <ele>495.20001220703125</ele>
        <time>2020-08-08T12:03:48.000Z</time>
      </trkpt>
      <trkpt lat="42.3183381557464599609375" lon="2.68931192345917224884033203125">
        <ele>496</ele>
        <time>2020-08-08T12:03:55.000Z</time>
      </trkpt>
      <trkpt lat="42.3182917200028896331787109375" lon="2.68920329399406909942626953125">
        <ele>497.20001220703125</ele>
        <time>2020-08-08T12:04:02.000Z</time>
      </trkpt>
      <trkpt lat="42.31827252544462680816650390625" lon="2.6891517452895641326904296875">
        <ele>498.20001220703125</ele>
        <time>2020-08-08T12:04:06.000Z</time>
      </trkpt>
      <trkpt lat="42.318254671990871429443359375" lon="2.68911025486886501312255859375">
        <ele>498.79998779296875</ele>
        <time>2020-08-08T12:04:09.000Z</time>
      </trkpt>
      <trkpt lat="42.31822659261524677276611328125" lon="2.68905309028923511505126953125">
        <ele>499.399993896484375</ele>
        <time>2020-08-08T12:04:13.000Z</time>
      </trkpt>
      <trkpt lat="42.31821888126432895660400390625" lon="2.68902040086686611175537109375">
        <ele>499.79998779296875</ele>
        <time>2020-08-08T12:04:15.000Z</time>
      </trkpt>
      <trkpt lat="42.3182035423815250396728515625" lon="2.6889921538531780242919921875">
        <ele>500.20001220703125</ele>
        <time>2020-08-08T12:04:17.000Z</time>
      </trkpt>
      <trkpt lat="42.31819742359220981597900390625" lon="2.68898016773164272308349609375">
        <ele>500.600006103515625</ele>
        <time>2020-08-08T12:04:18.000Z</time>
      </trkpt>
      <trkpt lat="42.3181877844035625457763671875" lon="2.68895535729825496673583984375">
        <ele>500.79998779296875</ele>
        <time>2020-08-08T12:04:20.000Z</time>
      </trkpt>
      <trkpt lat="42.31817663647234439849853515625" lon="2.6889271102845668792724609375">
        <ele>501.20001220703125</ele>
        <time>2020-08-08T12:04:22.000Z</time>
      </trkpt>
      <trkpt lat="42.31816641055047512054443359375" lon="2.688896767795085906982421875">
        <ele>501.600006103515625</ele>
        <time>2020-08-08T12:04:24.000Z</time>
      </trkpt>
      <trkpt lat="42.31813824735581874847412109375" lon="2.68882091157138347625732421875">
        <ele>502.600006103515625</ele>
        <time>2020-08-08T12:04:29.000Z</time>
      </trkpt>
      <trkpt lat="42.318133302032947540283203125" lon="2.68880716525018215179443359375">
        <ele>502.600006103515625</ele>
        <time>2020-08-08T12:04:30.000Z</time>
      </trkpt>
      <trkpt lat="42.31812751851975917816162109375" lon="2.68879341892898082733154296875">
        <ele>503</ele>
        <time>2020-08-08T12:04:31.000Z</time>
      </trkpt>
      <trkpt lat="42.3181089945137500762939453125" lon="2.6887517608702182769775390625">
        <ele>503.600006103515625</ele>
        <time>2020-08-08T12:04:34.000Z</time>
      </trkpt>
      <trkpt lat="42.3180892132222652435302734375" lon="2.68871295265853404998779296875">
        <ele>504.20001220703125</ele>
        <time>2020-08-08T12:04:37.000Z</time>
      </trkpt>
      <trkpt lat="42.31807370670139789581298828125" lon="2.688692249357700347900390625">
        <ele>504.600006103515625</ele>
        <time>2020-08-08T12:04:39.000Z</time>
      </trkpt>
      <trkpt lat="42.3180660791695117950439453125" lon="2.6886800117790699005126953125">
        <ele>504.600006103515625</ele>
        <time>2020-08-08T12:04:40.000Z</time>
      </trkpt>
      <trkpt lat="42.318023331463336944580078125" lon="2.68859661184251308441162109375">
        <ele>505.20001220703125</ele>
        <time>2020-08-08T12:04:46.000Z</time>
      </trkpt>
      <trkpt lat="42.31799894012510776519775390625" lon="2.68853860907256603240966796875">
        <ele>505.600006103515625</ele>
        <time>2020-08-08T12:04:50.000Z</time>
      </trkpt>
      <trkpt lat="42.31798167340457439422607421875" lon="2.688492424786090850830078125">
        <ele>506</ele>
        <time>2020-08-08T12:04:53.000Z</time>
      </trkpt>
      <trkpt lat="42.317965328693389892578125" lon="2.68845026381313800811767578125">
        <ele>506.600006103515625</ele>
        <time>2020-08-08T12:04:56.000Z</time>
      </trkpt>
      <trkpt lat="42.317949235439300537109375" lon="2.68839276395738124847412109375">
        <ele>506.600006103515625</ele>
        <time>2020-08-08T12:04:59.000Z</time>
      </trkpt>
      <trkpt lat="42.3179400153458118438720703125" lon="2.68837600015103816986083984375">
        <ele>506.79998779296875</ele>
        <time>2020-08-08T12:05:00.000Z</time>
      </trkpt>
      <trkpt lat="42.31787145137786865234375" lon="2.68825613893568515777587890625">
        <ele>507.600006103515625</ele>
        <time>2020-08-08T12:05:07.000Z</time>
      </trkpt>
      <trkpt lat="42.31786348856985569000244140625" lon="2.68823795020580291748046875">
        <ele>507.79998779296875</ele>
        <time>2020-08-08T12:05:08.000Z</time>
      </trkpt>
      <trkpt lat="42.31778402812778949737548828125" lon="2.68805229105055332183837890625">
        <ele>508.600006103515625</ele>
        <time>2020-08-08T12:05:17.000Z</time>
      </trkpt>
      <trkpt lat="42.31767506338655948638916015625" lon="2.6878964714705944061279296875">
        <ele>509.20001220703125</ele>
        <time>2020-08-08T12:05:25.000Z</time>
      </trkpt>
      <trkpt lat="42.3176099359989166259765625" lon="2.687828242778778076171875">
        <ele>509.600006103515625</ele>
        <time>2020-08-08T12:05:29.000Z</time>
      </trkpt>
      <trkpt lat="42.31754614971578121185302734375" lon="2.687758170068264007568359375">
        <ele>510</ele>
        <time>2020-08-08T12:05:33.000Z</time>
      </trkpt>
      <trkpt lat="42.317523770034313201904296875" lon="2.68771986477077007293701171875">
        <ele>510.399993896484375</ele>
        <time>2020-08-08T12:05:35.000Z</time>
      </trkpt>
      <trkpt lat="42.3175215907394886016845703125" lon="2.68766873516142368316650390625">
        <ele>510.399993896484375</ele>
        <time>2020-08-08T12:05:37.000Z</time>
      </trkpt>
      <trkpt lat="42.31753910891711711883544921875" lon="2.68761777319014072418212890625">
        <ele>510.600006103515625</ele>
        <time>2020-08-08T12:05:39.000Z</time>
      </trkpt>
      <trkpt lat="42.31757062487304210662841796875" lon="2.68759681843221187591552734375">
        <ele>510.600006103515625</ele>
        <time>2020-08-08T12:05:41.000Z</time>
      </trkpt>
      <trkpt lat="42.31762309558689594268798828125" lon="2.6876275800168514251708984375">
        <ele>511.20001220703125</ele>
        <time>2020-08-08T12:05:44.000Z</time>
      </trkpt>
      <trkpt lat="42.31764145195484161376953125" lon="2.6876416616141796112060546875">
        <ele>511.399993896484375</ele>
        <time>2020-08-08T12:05:45.000Z</time>
      </trkpt>
      <trkpt lat="42.31768143363296985626220703125" lon="2.6876624487340450286865234375">
        <ele>511.79998779296875</ele>
        <time>2020-08-08T12:05:47.000Z</time>
      </trkpt>
      <trkpt lat="42.31772996485233306884765625" lon="2.6877023465931415557861328125">
        <ele>512.5999755859375</ele>
        <time>2020-08-08T12:05:50.000Z</time>
      </trkpt>
      <trkpt lat="42.3177784122526645660400390625" lon="2.68775473348796367645263671875">
        <ele>513.20001220703125</ele>
        <time>2020-08-08T12:05:53.000Z</time>
      </trkpt>
      <trkpt lat="42.317827530205249786376953125" lon="2.687812484800815582275390625">
        <ele>513.5999755859375</ele>
        <time>2020-08-08T12:05:56.000Z</time>
      </trkpt>
      <trkpt lat="42.317913360893726348876953125" lon="2.6878947950899600982666015625">
        <ele>514</ele>
        <time>2020-08-08T12:06:01.000Z</time>
      </trkpt>
      <trkpt lat="42.31798217631876468658447265625" lon="2.68795288167893886566162109375">
        <ele>514.4000244140625</ele>
        <time>2020-08-08T12:06:05.000Z</time>
      </trkpt>
      <trkpt lat="42.318064235150814056396484375" lon="2.688058577477931976318359375">
        <ele>514.5999755859375</ele>
        <time>2020-08-08T12:06:10.000Z</time>
      </trkpt>
      <trkpt lat="42.3181626386940479278564453125" lon="2.6882391236722469329833984375">
        <ele>515.4000244140625</ele>
        <time>2020-08-08T12:06:17.000Z</time>
      </trkpt>
      <trkpt lat="42.31818267144262790679931640625" lon="2.6882535405457019805908203125">
        <ele>515.4000244140625</ele>
        <time>2020-08-08T12:06:18.000Z</time>
      </trkpt>
      <trkpt lat="42.3182397522032260894775390625" lon="2.68823417834937572479248046875">
        <ele>515.5999755859375</ele>
        <time>2020-08-08T12:06:21.000Z</time>
      </trkpt>
      <trkpt lat="42.31824017129838466644287109375" lon="2.68811565823853015899658203125">
        <ele>516.20001220703125</ele>
        <time>2020-08-08T12:06:25.000Z</time>
      </trkpt>
      <trkpt lat="42.31819256208837032318115234375" lon="2.688058912754058837890625">
        <ele>516.5999755859375</ele>
        <time>2020-08-08T12:06:28.000Z</time>
      </trkpt>
      <trkpt lat="42.31814377941191196441650390625" lon="2.68799814395606517791748046875">
        <ele>517</ele>
        <time>2020-08-08T12:06:31.000Z</time>
      </trkpt>
      <trkpt lat="42.318111173808574676513671875" lon="2.68795187585055828094482421875">
        <ele>517.20001220703125</ele>
        <time>2020-08-08T12:06:33.000Z</time>
      </trkpt>
      <trkpt lat="42.31806063093245029449462890625" lon="2.687897980213165283203125">
        <ele>517.5999755859375</ele>
        <time>2020-08-08T12:06:36.000Z</time>
      </trkpt>
      <trkpt lat="42.3180288635194301605224609375" lon="2.68786453641951084136962890625">
        <ele>518</ele>
        <time>2020-08-08T12:06:38.000Z</time>
      </trkpt>
      <trkpt lat="42.31797312386333942413330078125" lon="2.68776261247694492340087890625">
        <ele>518.79998779296875</ele>
        <time>2020-08-08T12:06:43.000Z</time>
      </trkpt>
      <trkpt lat="42.3179577849805355072021484375" lon="2.687724642455577850341796875">
        <ele>518.79998779296875</ele>
        <time>2020-08-08T12:06:45.000Z</time>
      </trkpt>
      <trkpt lat="42.31791880913078784942626953125" lon="2.68766236491501331329345703125">
        <ele>519.5999755859375</ele>
        <time>2020-08-08T12:06:48.000Z</time>
      </trkpt>
      <trkpt lat="42.317863404750823974609375" lon="2.6875793002545833587646484375">
        <ele>520</ele>
        <time>2020-08-08T12:06:52.000Z</time>
      </trkpt>
      <trkpt lat="42.3178186453878879547119140625" lon="2.68753261305391788482666015625">
        <ele>520.79998779296875</ele>
        <time>2020-08-08T12:06:55.000Z</time>
      </trkpt>
      <trkpt lat="42.317745052278041839599609375" lon="2.68746639601886272430419921875">
        <ele>521.4000244140625</ele>
        <time>2020-08-08T12:07:00.000Z</time>
      </trkpt>
      <trkpt lat="42.31770272366702556610107421875" lon="2.6874183677136898040771484375">
        <ele>522</ele>
        <time>2020-08-08T12:07:03.000Z</time>
      </trkpt>
      <trkpt lat="42.3176429606974124908447265625" lon="2.6873127557337284088134765625">
        <ele>522.79998779296875</ele>
        <time>2020-08-08T12:07:08.000Z</time>
      </trkpt>
      <trkpt lat="42.317628376185894012451171875" lon="2.68727227114140987396240234375">
        <ele>522.79998779296875</ele>
        <time>2020-08-08T12:07:10.000Z</time>
      </trkpt>
      <trkpt lat="42.31761672534048557281494140625" lon="2.68726439215242862701416015625">
        <ele>523.20001220703125</ele>
        <time>2020-08-08T12:07:13.000Z</time>
      </trkpt>
      <trkpt lat="42.31761538423597812652587890625" lon="2.68726942129433155059814453125">
        <ele>523.5999755859375</ele>
        <time>2020-08-08T12:07:22.000Z</time>
      </trkpt>
      <trkpt lat="42.317614965140819549560546875" lon="2.68727025948464870452880859375">
        <ele>523.5999755859375</ele>
        <time>2020-08-08T12:07:38.000Z</time>
      </trkpt>
      <trkpt lat="42.3176151327788829803466796875" lon="2.68727025948464870452880859375">
        <ele>523.5999755859375</ele>
        <time>2020-08-08T12:07:44.000Z</time>
      </trkpt>
      <trkpt lat="42.31761555187404155731201171875" lon="2.68726992420852184295654296875">
        <ele>523.4000244140625</ele>
        <time>2020-08-08T12:08:05.000Z</time>
      </trkpt>
      <trkpt lat="42.317613624036312103271484375" lon="2.6872631348669528961181640625">
        <ele>523.5999755859375</ele>
        <time>2020-08-08T12:08:14.000Z</time>
      </trkpt>
      <trkpt lat="42.31760096736252307891845703125" lon="2.68723673187196254730224609375">
        <ele>523.4000244140625</ele>
        <time>2020-08-08T12:08:16.000Z</time>
      </trkpt>
      <trkpt lat="42.31759442947804927825927734375" lon="2.68719750456511974334716796875">
        <ele>523.5999755859375</ele>
        <time>2020-08-08T12:08:18.000Z</time>
      </trkpt>
      <trkpt lat="42.317572049796581268310546875" lon="2.6870891265571117401123046875">
        <ele>524.4000244140625</ele>
        <time>2020-08-08T12:08:23.000Z</time>
      </trkpt>
      <trkpt lat="42.3175675235688686370849609375" lon="2.687066160142421722412109375">
        <ele>524.5999755859375</ele>
        <time>2020-08-08T12:08:24.000Z</time>
      </trkpt>
      <trkpt lat="42.31755562126636505126953125" lon="2.68692559562623500823974609375">
        <ele>525.4000244140625</ele>
        <time>2020-08-08T12:08:30.000Z</time>
      </trkpt>
      <trkpt lat="42.31755503453314304351806640625" lon="2.68690179102122783660888671875">
        <ele>525.5999755859375</ele>
        <time>2020-08-08T12:08:31.000Z</time>
      </trkpt>
      <trkpt lat="42.31755050830543041229248046875" lon="2.68674454651772975921630859375">
        <ele>526.20001220703125</ele>
        <time>2020-08-08T12:08:38.000Z</time>
      </trkpt>
      <trkpt lat="42.3175494186580181121826171875" lon="2.68670364283025264739990234375">
        <ele>526.5999755859375</ele>
        <time>2020-08-08T12:08:40.000Z</time>
      </trkpt>
      <trkpt lat="42.31754413805902004241943359375" lon="2.68662166781723499298095703125">
        <ele>527</ele>
        <time>2020-08-08T12:08:44.000Z</time>
      </trkpt>
      <trkpt lat="42.3175403662025928497314453125" lon="2.68653751350939273834228515625">
        <ele>527.5999755859375</ele>
        <time>2020-08-08T12:08:48.000Z</time>
      </trkpt>
      <trkpt lat="42.31754497624933719635009765625" lon="2.68649443052709102630615234375">
        <ele>528</ele>
        <time>2020-08-08T12:08:50.000Z</time>
      </trkpt>
      <trkpt lat="42.31754229404032230377197265625" lon="2.68639124929904937744140625">
        <ele>528.5999755859375</ele>
        <time>2020-08-08T12:08:55.000Z</time>
      </trkpt>
      <trkpt lat="42.31754229404032230377197265625" lon="2.686351351439952850341796875">
        <ele>528.79998779296875</ele>
        <time>2020-08-08T12:08:57.000Z</time>
      </trkpt>
      <trkpt lat="42.31754262931644916534423828125" lon="2.686211876571178436279296875">
        <ele>529.5999755859375</ele>
        <time>2020-08-08T12:09:04.000Z</time>
      </trkpt>
      <trkpt lat="42.3175655119121074676513671875" lon="2.68604314886033535003662109375">
        <ele>530.5999755859375</ele>
        <time>2020-08-08T12:09:13.000Z</time>
      </trkpt>
      <trkpt lat="42.31757104396820068359375" lon="2.6860083639621734619140625">
        <ele>530.79998779296875</ele>
        <time>2020-08-08T12:09:15.000Z</time>
      </trkpt>
      <trkpt lat="42.31758386828005313873291015625" lon="2.68596000038087368011474609375">
        <ele>531.20001220703125</ele>
        <time>2020-08-08T12:09:18.000Z</time>
      </trkpt>
      <trkpt lat="42.317604906857013702392578125" lon="2.6859079487621784210205078125">
        <ele>531.4000244140625</ele>
        <time>2020-08-08T12:09:21.000Z</time>
      </trkpt>
      <trkpt lat="42.31761194765567779541015625" lon="2.68586947582662105560302734375">
        <ele>531.79998779296875</ele>
        <time>2020-08-08T12:09:23.000Z</time>
      </trkpt>
      <trkpt lat="42.3176313936710357666015625" lon="2.6857785321772098541259765625">
        <ele>532.4000244140625</ele>
        <time>2020-08-08T12:09:28.000Z</time>
      </trkpt>
      <trkpt lat="42.3176416195929050445556640625" lon="2.68571943975985050201416015625">
        <ele>532.5999755859375</ele>
        <time>2020-08-08T12:09:31.000Z</time>
      </trkpt>
      <trkpt lat="42.3176570422947406768798828125" lon="2.68563595600426197052001953125">
        <ele>533.4000244140625</ele>
        <time>2020-08-08T12:09:35.000Z</time>
      </trkpt>
      <trkpt lat="42.317668609321117401123046875" lon="2.68559387885034084320068359375">
        <ele>533.79998779296875</ele>
        <time>2020-08-08T12:09:37.000Z</time>
      </trkpt>
      <trkpt lat="42.31767456047236919403076171875" lon="2.68554928712546825408935546875">
        <ele>534.20001220703125</ele>
        <time>2020-08-08T12:09:39.000Z</time>
      </trkpt>
      <trkpt lat="42.31769048608839511871337890625" lon="2.68545926548540592193603515625">
        <ele>534.79998779296875</ele>
        <time>2020-08-08T12:09:43.000Z</time>
      </trkpt>
      <trkpt lat="42.3177230916917324066162109375" lon="2.68531325273215770721435546875">
        <ele>535.79998779296875</ele>
        <time>2020-08-08T12:09:50.000Z</time>
      </trkpt>
      <trkpt lat="42.31772636063396930694580078125" lon="2.6852922141551971435546875">
        <ele>536</ele>
        <time>2020-08-08T12:09:51.000Z</time>
      </trkpt>
      <trkpt lat="42.31773390434682369232177734375" lon="2.68510001711547374725341796875">
        <ele>536.79998779296875</ele>
        <time>2020-08-08T12:10:00.000Z</time>
      </trkpt>
      <trkpt lat="42.3177334852516651153564453125" lon="2.6850653998553752899169921875">
        <ele>537.20001220703125</ele>
        <time>2020-08-08T12:10:02.000Z</time>
      </trkpt>
      <trkpt lat="42.31772837229073047637939453125" lon="2.6849829219281673431396484375">
        <ele>537.79998779296875</ele>
        <time>2020-08-08T12:10:06.000Z</time>
      </trkpt>
      <trkpt lat="42.3177214153110980987548828125" lon="2.684919051826000213623046875">
        <ele>538.5999755859375</ele>
        <time>2020-08-08T12:10:09.000Z</time>
      </trkpt>
      <trkpt lat="42.31772485189139842987060546875" lon="2.68487337045371532440185546875">
        <ele>538.79998779296875</ele>
        <time>2020-08-08T12:10:11.000Z</time>
      </trkpt>
      <trkpt lat="42.3177373409271240234375" lon="2.68480748869478702545166015625">
        <ele>539.20001220703125</ele>
        <time>2020-08-08T12:10:14.000Z</time>
      </trkpt>
      <trkpt lat="42.3177619837224483489990234375" lon="2.68466952256858348846435546875">
        <ele>540</ele>
        <time>2020-08-08T12:10:20.000Z</time>
      </trkpt>
      <trkpt lat="42.31776793487370014190673828125" lon="2.6846466399729251861572265625">
        <ele>540</ele>
        <time>2020-08-08T12:10:21.000Z</time>
      </trkpt>
      <trkpt lat="42.3178333975374698638916015625" lon="2.68450825475156307220458984375">
        <ele>541.20001220703125</ele>
        <time>2020-08-08T12:10:28.000Z</time>
      </trkpt>
      <trkpt lat="42.31784018687903881072998046875" lon="2.68448797054588794708251953125">
        <ele>541.20001220703125</ele>
        <time>2020-08-08T12:10:29.000Z</time>
      </trkpt>
      <trkpt lat="42.3178808391094207763671875" lon="2.6843888126313686370849609375">
        <ele>542</ele>
        <time>2020-08-08T12:10:34.000Z</time>
      </trkpt>
      <trkpt lat="42.3178833536803722381591796875" lon="2.6843408681452274322509765625">
        <ele>542.20001220703125</ele>
        <time>2020-08-08T12:10:36.000Z</time>
      </trkpt>
      <trkpt lat="42.3178862035274505615234375" lon="2.6842516846954822540283203125">
        <ele>543.20001220703125</ele>
        <time>2020-08-08T12:10:40.000Z</time>
      </trkpt>
      <trkpt lat="42.31788687407970428466796875" lon="2.6841678656637668609619140625">
        <ele>543.5999755859375</ele>
        <time>2020-08-08T12:10:44.000Z</time>
      </trkpt>
      <trkpt lat="42.3178736306726932525634765625" lon="2.684078179299831390380859375">
        <ele>544.20001220703125</ele>
        <time>2020-08-08T12:10:48.000Z</time>
      </trkpt>
      <trkpt lat="42.31786633841693401336669921875" lon="2.683989666402339935302734375">
        <ele>544.4000244140625</ele>
        <time>2020-08-08T12:10:52.000Z</time>
      </trkpt>
      <trkpt lat="42.31784940697252750396728515625" lon="2.68389947712421417236328125">
        <ele>545.20001220703125</ele>
        <time>2020-08-08T12:10:56.000Z</time>
      </trkpt>
      <trkpt lat="42.31783633120357990264892578125" lon="2.6838567294180393218994140625">
        <ele>545.4000244140625</ele>
        <time>2020-08-08T12:10:58.000Z</time>
      </trkpt>
      <trkpt lat="42.3178307153284549713134765625" lon="2.68376528285443782806396484375">
        <ele>546.20001220703125</ele>
        <time>2020-08-08T12:11:02.000Z</time>
      </trkpt>
      <trkpt lat="42.31782811693847179412841796875" lon="2.6837189309298992156982421875">
        <ele>546.5999755859375</ele>
        <time>2020-08-08T12:11:04.000Z</time>
      </trkpt>
      <trkpt lat="42.31783197261393070220947265625" lon="2.68364994786679744720458984375">
        <ele>547.20001220703125</ele>
        <time>2020-08-08T12:11:07.000Z</time>
      </trkpt>
      <trkpt lat="42.31784471310675144195556640625" lon="2.68356311134994029998779296875">
        <ele>548.4000244140625</ele>
        <time>2020-08-08T12:11:11.000Z</time>
      </trkpt>
      <trkpt lat="42.31784873642027378082275390625" lon="2.6835408993065357208251953125">
        <ele>548.4000244140625</ele>
        <time>2020-08-08T12:11:12.000Z</time>
      </trkpt>
      <trkpt lat="42.31784840114414691925048828125" lon="2.68344962038099765777587890625">
        <ele>549.4000244140625</ele>
        <time>2020-08-08T12:11:17.000Z</time>
      </trkpt>
      <trkpt lat="42.31783867813646793365478515625" lon="2.683429419994354248046875">
        <ele>549.79998779296875</ele>
        <time>2020-08-08T12:11:18.000Z</time>
      </trkpt>
      <trkpt lat="42.31779634952545166015625" lon="2.68335456959903240203857421875">
        <ele>550.4000244140625</ele>
        <time>2020-08-08T12:11:22.000Z</time>
      </trkpt>
      <trkpt lat="42.3177864588797092437744140625" lon="2.68334048800170421600341796875">
        <ele>550.5999755859375</ele>
        <time>2020-08-08T12:11:23.000Z</time>
      </trkpt>
      <trkpt lat="42.317758463323116302490234375" lon="2.68331550993025302886962890625">
        <ele>550.79998779296875</ele>
        <time>2020-08-08T12:11:25.000Z</time>
      </trkpt>
      <trkpt lat="42.31773189269006252288818359375" lon="2.68328667618334293365478515625">
        <ele>551.4000244140625</ele>
        <time>2020-08-08T12:11:27.000Z</time>
      </trkpt>
      <trkpt lat="42.317653857171535491943359375" lon="2.68323806114494800567626953125">
        <ele>552.20001220703125</ele>
        <time>2020-08-08T12:11:32.000Z</time>
      </trkpt>
      <trkpt lat="42.3176147975027561187744140625" lon="2.68320637755095958709716796875">
        <ele>552.4000244140625</ele>
        <time>2020-08-08T12:11:35.000Z</time>
      </trkpt>
      <trkpt lat="42.31750256381928920745849609375" lon="2.68312389962375164031982421875">
        <ele>553</ele>
        <time>2020-08-08T12:11:42.000Z</time>
      </trkpt>
      <trkpt lat="42.3174692876636981964111328125" lon="2.68308945000171661376953125">
        <ele>553.4000244140625</ele>
        <time>2020-08-08T12:11:45.000Z</time>
      </trkpt>
      <trkpt lat="42.3174655996263027191162109375" lon="2.683087773621082305908203125">
        <ele>553.79998779296875</ele>
        <time>2020-08-08T12:11:47.000Z</time>
      </trkpt>
      <trkpt lat="42.31746442615985870361328125" lon="2.68308249302208423614501953125">
        <ele>554</ele>
        <time>2020-08-08T12:11:59.000Z</time>
      </trkpt>
      <trkpt lat="42.31745746918022632598876953125" lon="2.68308333121240139007568359375">
        <ele>554</ele>
        <time>2020-08-08T12:12:11.000Z</time>
      </trkpt>
      <trkpt lat="42.3174585588276386260986328125" lon="2.6830819062888622283935546875">
        <ele>554</ele>
        <time>2020-08-08T12:12:32.000Z</time>
      </trkpt>
      <trkpt lat="42.31745847500860691070556640625" lon="2.68308140337467193603515625">
        <ele>554</ele>
        <time>2020-08-08T12:12:46.000Z</time>
      </trkpt>
      <trkpt lat="42.317442633211612701416015625" lon="2.68304494209587574005126953125">
        <ele>554.4000244140625</ele>
        <time>2020-08-08T12:12:55.000Z</time>
      </trkpt>
      <trkpt lat="42.31738840229809284210205078125" lon="2.68293933011591434478759765625">
        <ele>555</ele>
        <time>2020-08-08T12:13:01.000Z</time>
      </trkpt>
      <trkpt lat="42.31734867207705974578857421875" lon="2.6828663237392902374267578125">
        <ele>556.4000244140625</ele>
        <time>2020-08-08T12:13:05.000Z</time>
      </trkpt>
      <trkpt lat="42.31733391992747783660888671875" lon="2.682828940451145172119140625">
        <ele>556.79998779296875</ele>
        <time>2020-08-08T12:13:07.000Z</time>
      </trkpt>
      <trkpt lat="42.31731480918824672698974609375" lon="2.68277470953762531280517578125">
        <ele>557.5999755859375</ele>
        <time>2020-08-08T12:13:10.000Z</time>
      </trkpt>
      <trkpt lat="42.31728362850844860076904296875" lon="2.6827245019376277923583984375">
        <ele>558.4000244140625</ele>
        <time>2020-08-08T12:13:13.000Z</time>
      </trkpt>
      <trkpt lat="42.31727340258657932281494140625" lon="2.6827080734074115753173828125">
        <ele>558.5999755859375</ele>
        <time>2020-08-08T12:13:14.000Z</time>
      </trkpt>
      <trkpt lat="42.31723166070878505706787109375" lon="2.6826556026935577392578125">
        <ele>559.79998779296875</ele>
        <time>2020-08-08T12:13:18.000Z</time>
      </trkpt>
      <trkpt lat="42.317185811698436737060546875" lon="2.682621069252490997314453125">
        <ele>560.4000244140625</ele>
        <time>2020-08-08T12:13:22.000Z</time>
      </trkpt>
      <trkpt lat="42.31714784167706966400146484375" lon="2.682598270475864410400390625">
        <ele>560.79998779296875</ele>
        <time>2020-08-08T12:13:25.000Z</time>
      </trkpt>
      <trkpt lat="42.31708698906004428863525390625" lon="2.6825672574341297149658203125">
        <ele>561.20001220703125</ele>
        <time>2020-08-08T12:13:29.000Z</time>
      </trkpt>
      <trkpt lat="42.31705538928508758544921875" lon="2.68255543895065784454345703125">
        <ele>561.5999755859375</ele>
        <time>2020-08-08T12:13:31.000Z</time>
      </trkpt>
      <trkpt lat="42.31697953306138515472412109375" lon="2.68253280781209468841552734375">
        <ele>562.4000244140625</ele>
        <time>2020-08-08T12:13:36.000Z</time>
      </trkpt>
      <trkpt lat="42.31690929271280765533447265625" lon="2.68250615336000919342041015625">
        <ele>562.79998779296875</ele>
        <time>2020-08-08T12:13:41.000Z</time>
      </trkpt>
      <trkpt lat="42.3168949596583843231201171875" lon="2.68249743618071079254150390625">
        <ele>563</ele>
        <time>2020-08-08T12:13:42.000Z</time>
      </trkpt>
      <trkpt lat="42.3168144933879375457763671875" lon="2.6824499107897281646728515625">
        <ele>563.79998779296875</ele>
        <time>2020-08-08T12:13:48.000Z</time>
      </trkpt>
      <trkpt lat="42.3167987354099750518798828125" lon="2.68244127742946147918701171875">
        <ele>564</ele>
        <time>2020-08-08T12:13:49.000Z</time>
      </trkpt>
      <trkpt lat="42.31672690249979496002197265625" lon="2.68238629214465618133544921875">
        <ele>564.5999755859375</ele>
        <time>2020-08-08T12:13:54.000Z</time>
      </trkpt>
      <trkpt lat="42.31670762412250041961669921875" lon="2.682372964918613433837890625">
        <ele>564.79998779296875</ele>
        <time>2020-08-08T12:13:56.000Z</time>
      </trkpt>
      <trkpt lat="42.3166465200483798980712890625" lon="2.6823766529560089111328125">
        <ele>565.4000244140625</ele>
        <time>2020-08-08T12:14:01.000Z</time>
      </trkpt>
      <trkpt lat="42.3165928758680820465087890625" lon="2.682442031800746917724609375">
        <ele>565.79998779296875</ele>
        <time>2020-08-08T12:14:07.000Z</time>
      </trkpt>
      <trkpt lat="42.31650997884571552276611328125" lon="2.68250917084515094757080078125">
        <ele>566.5999755859375</ele>
        <time>2020-08-08T12:14:14.000Z</time>
      </trkpt>
      <trkpt lat="42.31649539433419704437255859375" lon="2.682515121996402740478515625">
        <ele>566.79998779296875</ele>
        <time>2020-08-08T12:14:15.000Z</time>
      </trkpt>
      <trkpt lat="42.3164292611181735992431640625" lon="2.682571113109588623046875">
        <ele>567.4000244140625</ele>
        <time>2020-08-08T12:14:21.000Z</time>
      </trkpt>
      <trkpt lat="42.31641358695924282073974609375" lon="2.68258527852594852447509765625">
        <ele>567.5999755859375</ele>
        <time>2020-08-08T12:14:23.000Z</time>
      </trkpt>
      <trkpt lat="42.3163997568190097808837890625" lon="2.6825967617332935333251953125">
        <ele>567.5999755859375</ele>
        <time>2020-08-08T12:14:25.000Z</time>
      </trkpt>
      <trkpt lat="42.31639732606709003448486328125" lon="2.68259651027619838714599609375">
        <ele>567.5999755859375</ele>
        <time>2020-08-08T12:14:26.000Z</time>
      </trkpt>
      <trkpt lat="42.31639866717159748077392578125" lon="2.68259994685649871826171875">
        <ele>567.79998779296875</ele>
        <time>2020-08-08T12:14:28.000Z</time>
      </trkpt>
      <trkpt lat="42.316370420157909393310546875" lon="2.6826644875109195709228515625">
        <ele>569</ele>
        <time>2020-08-08T12:23:04.000Z</time>
      </trkpt>
      <trkpt lat="42.3163558356463909149169921875" lon="2.682683765888214111328125">
        <ele>569.20001220703125</ele>
        <time>2020-08-08T12:23:10.000Z</time>
      </trkpt>
      <trkpt lat="42.31629255227744579315185546875" lon="2.682735733687877655029296875">
        <ele>570</ele>
        <time>2020-08-08T12:23:19.000Z</time>
      </trkpt>
      <trkpt lat="42.31627662666141986846923828125" lon="2.68275274895131587982177734375">
        <ele>570</ele>
        <time>2020-08-08T12:23:21.000Z</time>
      </trkpt>
      <trkpt lat="42.31626757420599460601806640625" lon="2.68276029266417026519775390625">
        <ele>570.20001220703125</ele>
        <time>2020-08-08T12:23:22.000Z</time>
      </trkpt>
      <trkpt lat="42.31622180901467800140380859375" lon="2.68279231153428554534912109375">
        <ele>570.4000244140625</ele>
        <time>2020-08-08T12:23:26.000Z</time>
      </trkpt>
      <trkpt lat="42.3161389119923114776611328125" lon="2.68281519412994384765625">
        <ele>571</ele>
        <time>2020-08-08T12:23:33.000Z</time>
      </trkpt>
      <trkpt lat="42.316112257540225982666015625" lon="2.68281796015799045562744140625">
        <ele>571</ele>
        <time>2020-08-08T12:23:35.000Z</time>
      </trkpt>
      <trkpt lat="42.3160477168858051300048828125" lon="2.68281527794897556304931640625">
        <ele>571.5999755859375</ele>
        <time>2020-08-08T12:23:40.000Z</time>
      </trkpt>
      <trkpt lat="42.316023744642734527587890625" lon="2.682802118360996246337890625">
        <ele>572</ele>
        <time>2020-08-08T12:23:42.000Z</time>
      </trkpt>
      <trkpt lat="42.3159833438694477081298828125" lon="2.68276029266417026519775390625">
        <ele>572.20001220703125</ele>
        <time>2020-08-08T12:23:46.000Z</time>
      </trkpt>
      <trkpt lat="42.315945960581302642822265625" lon="2.68273514695465564727783203125">
        <ele>572.4000244140625</ele>
        <time>2020-08-08T12:23:49.000Z</time>
      </trkpt>
      <trkpt lat="42.31591637246310710906982421875" lon="2.6827012002468109130859375">
        <ele>572.79998779296875</ele>
        <time>2020-08-08T12:23:52.000Z</time>
      </trkpt>
      <trkpt lat="42.315897680819034576416015625" lon="2.68268384970724582672119140625">
        <ele>573</ele>
        <time>2020-08-08T12:23:54.000Z</time>
      </trkpt>
      <trkpt lat="42.31587178073823451995849609375" lon="2.6826460473239421844482421875">
        <ele>573.20001220703125</ele>
        <time>2020-08-08T12:23:57.000Z</time>
      </trkpt>
      <trkpt lat="42.31585334055125713348388671875" lon="2.6826229132711887359619140625">
        <ele>573.4000244140625</ele>
        <time>2020-08-08T12:23:59.000Z</time>
      </trkpt>
      <trkpt lat="42.3158103413879871368408203125" lon="2.68253951333463191986083984375">
        <ele>574</ele>
        <time>2020-08-08T12:24:05.000Z</time>
      </trkpt>
      <trkpt lat="42.315793745219707489013671875" lon="2.682510428130626678466796875">
        <ele>574.20001220703125</ele>
        <time>2020-08-08T12:24:07.000Z</time>
      </trkpt>
      <trkpt lat="42.31574605219066143035888671875" lon="2.68241730518639087677001953125">
        <ele>575</ele>
        <time>2020-08-08T12:24:14.000Z</time>
      </trkpt>
      <trkpt lat="42.31574169360101222991943359375" lon="2.68240205012261867523193359375">
        <ele>575.20001220703125</ele>
        <time>2020-08-08T12:24:15.000Z</time>
      </trkpt>
      <trkpt lat="42.31570431031286716461181640625" lon="2.6823101006448268890380859375">
        <ele>575.79998779296875</ele>
        <time>2020-08-08T12:24:21.000Z</time>
      </trkpt>
      <trkpt lat="42.31568067334592342376708984375" lon="2.682233154773712158203125">
        <ele>576.20001220703125</ele>
        <time>2020-08-08T12:24:26.000Z</time>
      </trkpt>
      <trkpt lat="42.315667681396007537841796875" lon="2.6821994595229625701904296875">
        <ele>576.4000244140625</ele>
        <time>2020-08-08T12:24:28.000Z</time>
      </trkpt>
      <trkpt lat="42.3156036436557769775390625" lon="2.68204598687589168548583984375">
        <ele>576.79998779296875</ele>
        <time>2020-08-08T12:24:36.000Z</time>
      </trkpt>
      <trkpt lat="42.315591908991336822509765625" lon="2.68203056417405605316162109375">
        <ele>577</ele>
        <time>2020-08-08T12:24:37.000Z</time>
      </trkpt>
      <trkpt lat="42.31550565920770168304443359375" lon="2.68197633326053619384765625">
        <ele>578</ele>
        <time>2020-08-08T12:24:44.000Z</time>
      </trkpt>
      <trkpt lat="42.31542284600436687469482421875" lon="2.68191405571997165679931640625">
        <ele>578.79998779296875</ele>
        <time>2020-08-08T12:24:50.000Z</time>
      </trkpt>
      <trkpt lat="42.315406836569309234619140625" lon="2.68188270740211009979248046875">
        <ele>579.20001220703125</ele>
        <time>2020-08-08T12:24:52.000Z</time>
      </trkpt>
      <trkpt lat="42.31541178189218044281005859375" lon="2.68183358944952487945556640625">
        <ele>579.5999755859375</ele>
        <time>2020-08-08T12:24:55.000Z</time>
      </trkpt>
      <trkpt lat="42.315455116331577301025390625" lon="2.6817528717219829559326171875">
        <ele>580.20001220703125</ele>
        <time>2020-08-08T12:25:00.000Z</time>
      </trkpt>
      <trkpt lat="42.31546215713024139404296875" lon="2.68173652701079845428466796875">
        <ele>580.20001220703125</ele>
        <time>2020-08-08T12:25:01.000Z</time>
      </trkpt>
      <trkpt lat="42.31550398282706737518310546875" lon="2.68164700828492641448974609375">
        <ele>580.79998779296875</ele>
        <time>2020-08-08T12:25:07.000Z</time>
      </trkpt>
      <trkpt lat="42.3155075870454311370849609375" lon="2.68163292668759822845458984375">
        <ele>580.79998779296875</ele>
        <time>2020-08-08T12:25:08.000Z</time>
      </trkpt>
      <trkpt lat="42.31551370583474636077880859375" lon="2.6816016621887683868408203125">
        <ele>581</ele>
        <time>2020-08-08T12:25:10.000Z</time>
      </trkpt>
      <trkpt lat="42.31551052071154117584228515625" lon="2.6815661229193210601806640625">
        <ele>581.20001220703125</ele>
        <time>2020-08-08T12:25:12.000Z</time>
      </trkpt>
      <trkpt lat="42.315475903451442718505859375" lon="2.68142379820346832275390625">
        <ele>581.79998779296875</ele>
        <time>2020-08-08T12:25:19.000Z</time>
      </trkpt>
      <trkpt lat="42.315471880137920379638671875" lon="2.681400664150714874267578125">
        <ele>582</ele>
        <time>2020-08-08T12:25:20.000Z</time>
      </trkpt>
      <trkpt lat="42.3154606483876705169677734375" lon="2.68129949457943439483642578125">
        <ele>583.20001220703125</ele>
        <time>2020-08-08T12:25:25.000Z</time>
      </trkpt>
      <trkpt lat="42.3154562897980213165283203125" lon="2.681275270879268646240234375">
        <ele>583.4000244140625</ele>
        <time>2020-08-08T12:25:26.000Z</time>
      </trkpt>
      <trkpt lat="42.3154395259916782379150390625" lon="2.68111542798578739166259765625">
        <ele>584.20001220703125</ele>
        <time>2020-08-08T12:25:33.000Z</time>
      </trkpt>
      <trkpt lat="42.3154346644878387451171875" lon="2.68109279684722423553466796875">
        <ele>584.4000244140625</ele>
        <time>2020-08-08T12:25:34.000Z</time>
      </trkpt>
      <trkpt lat="42.31542854569852352142333984375" lon="2.68099003471434116363525390625">
        <ele>585</ele>
        <time>2020-08-08T12:25:39.000Z</time>
      </trkpt>
      <trkpt lat="42.31543575413525104522705078125" lon="2.68095701001584529876708984375">
        <ele>585.4000244140625</ele>
        <time>2020-08-08T12:25:41.000Z</time>
      </trkpt>
      <trkpt lat="42.3154572956264019012451171875" lon="2.680848799645900726318359375">
        <ele>586</ele>
        <time>2020-08-08T12:25:47.000Z</time>
      </trkpt>
      <trkpt lat="42.3154740594327449798583984375" lon="2.6808000169694423675537109375">
        <ele>586.4000244140625</ele>
        <time>2020-08-08T12:25:50.000Z</time>
      </trkpt>
      <trkpt lat="42.31549140997231006622314453125" lon="2.68073237501084804534912109375">
        <ele>587</ele>
        <time>2020-08-08T12:25:54.000Z</time>
      </trkpt>
      <trkpt lat="42.31549761258065700531005859375" lon="2.68071510829031467437744140625">
        <ele>587</ele>
        <time>2020-08-08T12:25:55.000Z</time>
      </trkpt>
      <trkpt lat="42.31551689095795154571533203125" lon="2.68066531978547573089599609375">
        <ele>587.4000244140625</ele>
        <time>2020-08-08T12:25:58.000Z</time>
      </trkpt>
      <trkpt lat="42.31552225537598133087158203125" lon="2.68064453266561031341552734375">
        <ele>587.5999755859375</ele>
        <time>2020-08-08T12:25:59.000Z</time>
      </trkpt>
      <trkpt lat="42.315537594258785247802734375" lon="2.68055736087262630462646484375">
        <ele>588.20001220703125</ele>
        <time>2020-08-08T12:26:04.000Z</time>
      </trkpt>
      <trkpt lat="42.31554656289517879486083984375" lon="2.6804630644619464874267578125">
        <ele>588.5999755859375</ele>
        <time>2020-08-08T12:26:09.000Z</time>
      </trkpt>
      <trkpt lat="42.31555209495127201080322265625" lon="2.68044655211269855499267578125">
        <ele>588.79998779296875</ele>
        <time>2020-08-08T12:26:10.000Z</time>
      </trkpt>
      <trkpt lat="42.3155622370541095733642578125" lon="2.6804208196699619293212890625">
        <ele>589</ele>
        <time>2020-08-08T12:26:16.000Z</time>
      </trkpt>
      <trkpt lat="42.3155598901212215423583984375" lon="2.680423669517040252685546875">
        <ele>589.20001220703125</ele>
        <time>2020-08-08T12:26:29.000Z</time>
      </trkpt>
      <trkpt lat="42.31556064449250698089599609375" lon="2.6804214902222156524658203125">
        <ele>589.4000244140625</ele>
        <time>2020-08-08T12:26:35.000Z</time>
      </trkpt>
      <trkpt lat="42.3155608959496021270751953125" lon="2.68040514551103115081787109375">
        <ele>589.4000244140625</ele>
        <time>2020-08-08T12:26:44.000Z</time>
      </trkpt>
      <trkpt lat="42.3155977763235569000244140625" lon="2.68026952631771564483642578125">
        <ele>590</ele>
        <time>2020-08-08T12:26:52.000Z</time>
      </trkpt>
      <trkpt lat="42.315612025558948516845703125" lon="2.68022879026830196380615234375">
        <ele>590.20001220703125</ele>
        <time>2020-08-08T12:26:54.000Z</time>
      </trkpt>
      <trkpt lat="42.31566156260669231414794921875" lon="2.6801304705440998077392578125">
        <ele>590.5999755859375</ele>
        <time>2020-08-08T12:26:59.000Z</time>
      </trkpt>
      <trkpt lat="42.31570263393223285675048828125" lon="2.68005318939685821533203125">
        <ele>591.20001220703125</ele>
        <time>2020-08-08T12:27:04.000Z</time>
      </trkpt>
      <trkpt lat="42.315715961158275604248046875" lon="2.68001941032707691192626953125">
        <ele>591.5999755859375</ele>
        <time>2020-08-08T12:27:06.000Z</time>
      </trkpt>
      <trkpt lat="42.31576616875827312469482421875" lon="2.6799004711210727691650390625">
        <ele>592</ele>
        <time>2020-08-08T12:27:13.000Z</time>
      </trkpt>
      <trkpt lat="42.315814197063446044921875" lon="2.67978505231440067291259765625">
        <ele>592.79998779296875</ele>
        <time>2020-08-08T12:27:20.000Z</time>
      </trkpt>
      <trkpt lat="42.315850071609020233154296875" lon="2.6797207631170749664306640625">
        <ele>593</ele>
        <time>2020-08-08T12:27:24.000Z</time>
      </trkpt>
      <trkpt lat="42.31588351540267467498779296875" lon="2.679664604365825653076171875">
        <ele>593.5999755859375</ele>
        <time>2020-08-08T12:27:28.000Z</time>
      </trkpt>
      <trkpt lat="42.3159092478454113006591796875" lon="2.679623030126094818115234375">
        <ele>594</ele>
        <time>2020-08-08T12:27:31.000Z</time>
      </trkpt>
      <trkpt lat="42.3159149475395679473876953125" lon="2.6796074397861957550048828125">
        <ele>594.20001220703125</ele>
        <time>2020-08-08T12:27:32.000Z</time>
      </trkpt>
      <trkpt lat="42.315927185118198394775390625" lon="2.67958170734345912933349609375">
        <ele>594.20001220703125</ele>
        <time>2020-08-08T12:27:34.000Z</time>
      </trkpt>
      <trkpt lat="42.31595124118030071258544921875" lon="2.67953895963728427886962890625">
        <ele>594.4000244140625</ele>
        <time>2020-08-08T12:27:37.000Z</time>
      </trkpt>
      <trkpt lat="42.31596347875893115997314453125" lon="2.6795075275003910064697265625">
        <ele>594.79998779296875</ele>
        <time>2020-08-08T12:27:39.000Z</time>
      </trkpt>
      <trkpt lat="42.31598191894590854644775390625" lon="2.67944977618753910064697265625">
        <ele>595.20001220703125</ele>
        <time>2020-08-08T12:27:43.000Z</time>
      </trkpt>
      <trkpt lat="42.31598242186009883880615234375" lon="2.67943435348570346832275390625">
        <ele>595.20001220703125</ele>
        <time>2020-08-08T12:27:44.000Z</time>
      </trkpt>
      <trkpt lat="42.31598694808781147003173828125" lon="2.6794237084686756134033203125">
        <ele>595.4000244140625</ele>
        <time>2020-08-08T12:27:45.000Z</time>
      </trkpt>
      <trkpt lat="42.31598795391619205474853515625" lon="2.679409794509410858154296875">
        <ele>595.5999755859375</ele>
        <time>2020-08-08T12:27:46.000Z</time>
      </trkpt>
      <trkpt lat="42.31597437523305416107177734375" lon="2.67934374511241912841796875">
        <ele>596</ele>
        <time>2020-08-08T12:27:50.000Z</time>
      </trkpt>
      <trkpt lat="42.31597253121435642242431640625" lon="2.6793264783918857574462890625">
        <ele>596.20001220703125</ele>
        <time>2020-08-08T12:27:51.000Z</time>
      </trkpt>
      <trkpt lat="42.31598476879298686981201171875" lon="2.67924576066434383392333984375">
        <ele>596.79998779296875</ele>
        <time>2020-08-08T12:27:56.000Z</time>
      </trkpt>
      <trkpt lat="42.316016368567943572998046875" lon="2.6791843213140964508056640625">
        <ele>597.4000244140625</ele>
        <time>2020-08-08T12:28:00.000Z</time>
      </trkpt>
      <trkpt lat="42.31602139770984649658203125" lon="2.6791531406342983245849609375">
        <ele>597.5999755859375</ele>
        <time>2020-08-08T12:28:02.000Z</time>
      </trkpt>
      <trkpt lat="42.31603791005909442901611328125" lon="2.6790723390877246856689453125">
        <ele>598.20001220703125</ele>
        <time>2020-08-08T12:28:07.000Z</time>
      </trkpt>
      <trkpt lat="42.316043861210346221923828125" lon="2.67905347980558872222900390625">
        <ele>598.4000244140625</ele>
        <time>2020-08-08T12:28:08.000Z</time>
      </trkpt>
      <trkpt lat="42.316057942807674407958984375" lon="2.6790005899965763092041015625">
        <ele>598.5999755859375</ele>
        <time>2020-08-08T12:28:11.000Z</time>
      </trkpt>
      <trkpt lat="42.316071353852748870849609375" lon="2.678955495357513427734375">
        <ele>598.79998779296875</ele>
        <time>2020-08-08T12:28:14.000Z</time>
      </trkpt>
      <trkpt lat="42.31608484871685504913330078125" lon="2.67888844013214111328125">
        <ele>599.20001220703125</ele>
        <time>2020-08-08T12:28:18.000Z</time>
      </trkpt>
      <trkpt lat="42.316093146800994873046875" lon="2.67885231412947177886962890625">
        <ele>599.4000244140625</ele>
        <time>2020-08-08T12:28:20.000Z</time>
      </trkpt>
      <trkpt lat="42.31609909795224666595458984375" lon="2.6788359694182872772216796875">
        <ele>599.79998779296875</ele>
        <time>2020-08-08T12:28:21.000Z</time>
      </trkpt>
      <trkpt lat="42.3161298595368862152099609375" lon="2.67873865552246570587158203125">
        <ele>600.4000244140625</ele>
        <time>2020-08-08T12:28:26.000Z</time>
      </trkpt>
      <trkpt lat="42.31613899581134319305419921875" lon="2.6787199638783931732177734375">
        <ele>600.4000244140625</ele>
        <time>2020-08-08T12:28:27.000Z</time>
      </trkpt>
      <trkpt lat="42.316164560616016387939453125" lon="2.67864796333014965057373046875">
        <ele>601</ele>
        <time>2020-08-08T12:28:31.000Z</time>
      </trkpt>
      <trkpt lat="42.3161784745752811431884765625" lon="2.67861527390778064727783203125">
        <ele>601.20001220703125</ele>
        <time>2020-08-08T12:28:33.000Z</time>
      </trkpt>
      <trkpt lat="42.31618241406977176666259765625" lon="2.67857705242931842803955078125">
        <ele>601.4000244140625</ele>
        <time>2020-08-08T12:28:35.000Z</time>
      </trkpt>
      <trkpt lat="42.3161937296390533447265625" lon="2.67854369245469570159912109375">
        <ele>601.5999755859375</ele>
        <time>2020-08-08T12:28:37.000Z</time>
      </trkpt>
      <trkpt lat="42.31621309183537960052490234375" lon="2.6784453727304935455322265625">
        <ele>602</ele>
        <time>2020-08-08T12:28:42.000Z</time>
      </trkpt>
      <trkpt lat="42.31621921062469482421875" lon="2.6783828437328338623046875">
        <ele>602.4000244140625</ele>
        <time>2020-08-08T12:28:45.000Z</time>
      </trkpt>
      <trkpt lat="42.31621694751083850860595703125" lon="2.678361050784587860107421875">
        <ele>602.5999755859375</ele>
        <time>2020-08-08T12:28:46.000Z</time>
      </trkpt>
      <trkpt lat="42.31621862389147281646728515625" lon="2.67834386788308620452880859375">
        <ele>602.79998779296875</ele>
        <time>2020-08-08T12:28:47.000Z</time>
      </trkpt>
      <trkpt lat="42.31622524559497833251953125" lon="2.678275220096111297607421875">
        <ele>603.5999755859375</ele>
        <time>2020-08-08T12:28:50.000Z</time>
      </trkpt>
      <trkpt lat="42.316222898662090301513671875" lon="2.6782385073602199554443359375">
        <ele>603.79998779296875</ele>
        <time>2020-08-08T12:28:52.000Z</time>
      </trkpt>
      <trkpt lat="42.3162170313298702239990234375" lon="2.67819131724536418914794921875">
        <ele>604</ele>
        <time>2020-08-08T12:28:54.000Z</time>
      </trkpt>
      <trkpt lat="42.316215522587299346923828125" lon="2.6781654171645641326904296875">
        <ele>604.20001220703125</ele>
        <time>2020-08-08T12:28:55.000Z</time>
      </trkpt>
      <trkpt lat="42.31622432358562946319580078125" lon="2.67808922566473484039306640625">
        <ele>604.5999755859375</ele>
        <time>2020-08-08T12:28:58.000Z</time>
      </trkpt>
      <trkpt lat="42.31623304076492786407470703125" lon="2.6780490763485431671142578125">
        <ele>605.20001220703125</ele>
        <time>2020-08-08T12:29:00.000Z</time>
      </trkpt>
      <trkpt lat="42.3162473738193511962890625" lon="2.6779793389141559600830078125">
        <ele>605.5999755859375</ele>
        <time>2020-08-08T12:29:03.000Z</time>
      </trkpt>
      <trkpt lat="42.316253073513507843017578125" lon="2.6779535226523876190185546875">
        <ele>605.79998779296875</ele>
        <time>2020-08-08T12:29:04.000Z</time>
      </trkpt>
      <trkpt lat="42.316286601126194000244140625" lon="2.6777731440961360931396484375">
        <ele>606.4000244140625</ele>
        <time>2020-08-08T12:29:11.000Z</time>
      </trkpt>
      <trkpt lat="42.31629976071417331695556640625" lon="2.67772813327610492706298828125">
        <ele>606.5999755859375</ele>
        <time>2020-08-08T12:29:13.000Z</time>
      </trkpt>
      <trkpt lat="42.31632716953754425048828125" lon="2.6776393689215183258056640625">
        <ele>607.4000244140625</ele>
        <time>2020-08-08T12:29:18.000Z</time>
      </trkpt>
      <trkpt lat="42.31632323004305362701416015625" lon="2.67762620933353900909423828125">
        <ele>607.5999755859375</ele>
        <time>2020-08-08T12:29:22.000Z</time>
      </trkpt>
      <trkpt lat="42.31632356531918048858642578125" lon="2.67762671224772930145263671875">
        <ele>607.4000244140625</ele>
        <time>2020-08-08T12:29:31.000Z</time>
      </trkpt>
      <trkpt lat="42.31633043847978115081787109375" lon="2.67756904475390911102294921875">
        <ele>607.79998779296875</ele>
        <time>2020-08-08T12:29:42.000Z</time>
      </trkpt>
      <trkpt lat="42.31633798219263553619384765625" lon="2.67755446024239063262939453125">
        <ele>607.79998779296875</ele>
        <time>2020-08-08T12:29:43.000Z</time>
      </trkpt>
      <trkpt lat="42.31636849232017993927001953125" lon="2.677499391138553619384765625">
        <ele>608.4000244140625</ele>
        <time>2020-08-08T12:29:47.000Z</time>
      </trkpt>
      <trkpt lat="42.3163779638707637786865234375" lon="2.67747298814356327056884765625">
        <ele>608.5999755859375</ele>
        <time>2020-08-08T12:29:49.000Z</time>
      </trkpt>
      <trkpt lat="42.31640185229480266571044921875" lon="2.6774080283939838409423828125">
        <ele>609.20001220703125</ele>
        <time>2020-08-08T12:29:53.000Z</time>
      </trkpt>
      <trkpt lat="42.3164067976176738739013671875" lon="2.677372656762599945068359375">
        <ele>609.4000244140625</ele>
        <time>2020-08-08T12:29:55.000Z</time>
      </trkpt>
      <trkpt lat="42.316417694091796875" lon="2.6772879995405673980712890625">
        <ele>609.5999755859375</ele>
        <time>2020-08-08T12:29:59.000Z</time>
      </trkpt>
      <trkpt lat="42.3164309374988079071044921875" lon="2.6772494427859783172607421875">
        <ele>609.79998779296875</ele>
        <time>2020-08-08T12:30:01.000Z</time>
      </trkpt>
      <trkpt lat="42.3164745233952999114990234375" lon="2.67718414776027202606201171875">
        <ele>610.4000244140625</ele>
        <time>2020-08-08T12:30:06.000Z</time>
      </trkpt>
      <trkpt lat="42.31648466549813747406005859375" lon="2.6771887578070163726806640625">
        <ele>610.79998779296875</ele>
        <time>2020-08-08T12:30:07.000Z</time>
      </trkpt>
      <trkpt lat="42.3165160976350307464599609375" lon="2.677273415029048919677734375">
        <ele>611.5999755859375</ele>
        <time>2020-08-08T12:30:13.000Z</time>
      </trkpt>
      <trkpt lat="42.3165142536163330078125" lon="2.67728992737829685211181640625">
        <ele>611.79998779296875</ele>
        <time>2020-08-08T12:30:14.000Z</time>
      </trkpt>
      <trkpt lat="42.31651148758828639984130859375" lon="2.67732563428580760955810546875">
        <ele>612</ele>
        <time>2020-08-08T12:30:16.000Z</time>
      </trkpt>
      <trkpt lat="42.31649975292384624481201171875" lon="2.67738514579832553863525390625">
        <ele>612.79998779296875</ele>
        <time>2020-08-08T12:30:19.000Z</time>
      </trkpt>
      <trkpt lat="42.31649614870548248291015625" lon="2.677400819957256317138671875">
        <ele>613</ele>
        <time>2020-08-08T12:30:20.000Z</time>
      </trkpt>
      <trkpt lat="42.3164631240069866180419921875" lon="2.67749880440533161163330078125">
        <ele>613.20001220703125</ele>
        <time>2020-08-08T12:30:26.000Z</time>
      </trkpt>
      <trkpt lat="42.3164587654173374176025390625" lon="2.67751506529748439788818359375">
        <ele>613.20001220703125</ele>
        <time>2020-08-08T12:30:27.000Z</time>
      </trkpt>
      <trkpt lat="42.31644711457192897796630859375" lon="2.67757021822035312652587890625">
        <ele>613.79998779296875</ele>
        <time>2020-08-08T12:30:30.000Z</time>
      </trkpt>
      <trkpt lat="42.316443510353565216064453125" lon="2.67759016714990139007568359375">
        <ele>614</ele>
        <time>2020-08-08T12:30:31.000Z</time>
      </trkpt>
      <trkpt lat="42.31643755920231342315673828125" lon="2.6776215992867946624755859375">
        <ele>614.20001220703125</ele>
        <time>2020-08-08T12:30:33.000Z</time>
      </trkpt>
      <trkpt lat="42.31641660444438457489013671875" lon="2.67769728787243366241455078125">
        <ele>614.5999755859375</ele>
        <time>2020-08-08T12:30:36.000Z</time>
      </trkpt>
      <trkpt lat="42.31640520505607128143310546875" lon="2.6777847111225128173828125">
        <ele>615</ele>
        <time>2020-08-08T12:30:39.000Z</time>
      </trkpt>
      <trkpt lat="42.3163987509906291961669921875" lon="2.67781220376491546630859375">
        <ele>615.20001220703125</ele>
        <time>2020-08-08T12:30:40.000Z</time>
      </trkpt>
      <trkpt lat="42.31638307683169841766357421875" lon="2.67794187180697917938232421875">
        <ele>616.20001220703125</ele>
        <time>2020-08-08T12:30:45.000Z</time>
      </trkpt>
      <trkpt lat="42.31638559140264987945556640625" lon="2.67800523899495601654052734375">
        <ele>616.4000244140625</ele>
        <time>2020-08-08T12:30:47.000Z</time>
      </trkpt>
      <trkpt lat="42.31639062054455280303955078125" lon="2.678100876510143280029296875">
        <ele>617.20001220703125</ele>
        <time>2020-08-08T12:30:52.000Z</time>
      </trkpt>
      <trkpt lat="42.3163930512964725494384765625" lon="2.678105570375919342041015625">
        <ele>617.20001220703125</ele>
        <time>2020-08-08T12:30:53.000Z</time>
      </trkpt>
      <trkpt lat="42.3163975775241851806640625" lon="2.67811671830713748931884765625">
        <ele>617.20001220703125</ele>
        <time>2020-08-08T12:31:05.000Z</time>
      </trkpt>
      <trkpt lat="42.316403277218341827392578125" lon="2.6781226694583892822265625">
        <ele>617.4000244140625</ele>
        <time>2020-08-08T12:31:14.000Z</time>
      </trkpt>
      <trkpt lat="42.316403277218341827392578125" lon="2.6781226694583892822265625">
        <ele>617.4000244140625</ele>
        <time>2020-08-08T12:31:25.000Z</time>
      </trkpt>
      <trkpt lat="42.31640319339931011199951171875" lon="2.67812292091548442840576171875">
        <ele>617.5999755859375</ele>
        <time>2020-08-08T12:31:30.000Z</time>
      </trkpt>
      <trkpt lat="42.31641836464405059814453125" lon="2.67821311019361019134521484375">
        <ele>617.79998779296875</ele>
        <time>2020-08-08T12:31:42.000Z</time>
      </trkpt>
      <trkpt lat="42.3164222203195095062255859375" lon="2.67826390452682971954345703125">
        <ele>618</ele>
        <time>2020-08-08T12:31:45.000Z</time>
      </trkpt>
      <trkpt lat="42.31642498634755611419677734375" lon="2.678289972245693206787109375">
        <ele>618.4000244140625</ele>
        <time>2020-08-08T12:31:47.000Z</time>
      </trkpt>
      <trkpt lat="42.31641945429146289825439453125" lon="2.678325511515140533447265625">
        <ele>618.79998779296875</ele>
        <time>2020-08-08T12:31:49.000Z</time>
      </trkpt>
      <trkpt lat="42.31641861610114574432373046875" lon="2.678346298635005950927734375">
        <ele>619</ele>
        <time>2020-08-08T12:31:50.000Z</time>
      </trkpt>
      <trkpt lat="42.31640084646642208099365234375" lon="2.6784524135291576385498046875">
        <ele>619.5999755859375</ele>
        <time>2020-08-08T12:31:55.000Z</time>
      </trkpt>
      <trkpt lat="42.31639145873486995697021484375" lon="2.67849558033049106597900390625">
        <ele>620.20001220703125</ele>
        <time>2020-08-08T12:31:57.000Z</time>
      </trkpt>
      <trkpt lat="42.316382490098476409912109375" lon="2.67861477099359035491943359375">
        <ele>621</ele>
        <time>2020-08-08T12:32:02.000Z</time>
      </trkpt>
      <trkpt lat="42.31638274155557155609130859375" lon="2.6786384917795658111572265625">
        <ele>621.20001220703125</ele>
        <time>2020-08-08T12:32:03.000Z</time>
      </trkpt>
      <trkpt lat="42.316376455128192901611328125" lon="2.67873614095151424407958984375">
        <ele>621.5999755859375</ele>
        <time>2020-08-08T12:32:07.000Z</time>
      </trkpt>
      <trkpt lat="42.31637335382401943206787109375" lon="2.67876011319458484649658203125">
        <ele>621.79998779296875</ele>
        <time>2020-08-08T12:32:08.000Z</time>
      </trkpt>
      <trkpt lat="42.3163829930126667022705078125" lon="2.67888986505568027496337890625">
        <ele>622</ele>
        <time>2020-08-08T12:32:13.000Z</time>
      </trkpt>
      <trkpt lat="42.316393218934535980224609375" lon="2.678932361304759979248046875">
        <ele>622.20001220703125</ele>
        <time>2020-08-08T12:32:15.000Z</time>
      </trkpt>
      <trkpt lat="42.3164031095802783966064453125" lon="2.6789878495037555694580078125">
        <ele>622.20001220703125</ele>
        <time>2020-08-08T12:32:17.000Z</time>
      </trkpt>
      <trkpt lat="42.31640587560832500457763671875" lon="2.6790116541087627410888671875">
        <ele>622.4000244140625</ele>
        <time>2020-08-08T12:32:18.000Z</time>
      </trkpt>
      <trkpt lat="42.316426746547222137451171875" lon="2.6791467703878879547119140625">
        <ele>623.20001220703125</ele>
        <time>2020-08-08T12:32:24.000Z</time>
      </trkpt>
      <trkpt lat="42.3164326138794422149658203125" lon="2.67916831187903881072998046875">
        <ele>623.20001220703125</ele>
        <time>2020-08-08T12:32:25.000Z</time>
      </trkpt>
      <trkpt lat="42.31643923558294773101806640625" lon="2.67919161356985569000244140625">
        <ele>623.4000244140625</ele>
        <time>2020-08-08T12:32:26.000Z</time>
      </trkpt>
      <trkpt lat="42.31645583175122737884521484375" lon="2.679297141730785369873046875">
        <ele>623.79998779296875</ele>
        <time>2020-08-08T12:32:31.000Z</time>
      </trkpt>
      <trkpt lat="42.31646421365439891815185546875" lon="2.6793284900486469268798828125">
        <ele>624.20001220703125</ele>
        <time>2020-08-08T12:32:33.000Z</time>
      </trkpt>
      <trkpt lat="42.31647930108010768890380859375" lon="2.67940149642527103424072265625">
        <ele>624.5999755859375</ele>
        <time>2020-08-08T12:32:37.000Z</time>
      </trkpt>
      <trkpt lat="42.31649883091449737548828125" lon="2.67951699905097484588623046875">
        <ele>625.20001220703125</ele>
        <time>2020-08-08T12:32:44.000Z</time>
      </trkpt>
      <trkpt lat="42.31649572961032390594482421875" lon="2.67962160520255565643310546875">
        <ele>626.4000244140625</ele>
        <time>2020-08-08T12:32:51.000Z</time>
      </trkpt>
      <trkpt lat="42.3164567537605762481689453125" lon="2.67972738482058048248291015625">
        <ele>626.79998779296875</ele>
        <time>2020-08-08T12:32:58.000Z</time>
      </trkpt>
      <trkpt lat="42.31644292362034320831298828125" lon="2.679801397025585174560546875">
        <ele>627.20001220703125</ele>
        <time>2020-08-08T12:33:03.000Z</time>
      </trkpt>
      <trkpt lat="42.31643605045974254608154296875" lon="2.67985160462558269500732421875">
        <ele>627.5999755859375</ele>
        <time>2020-08-08T12:33:06.000Z</time>
      </trkpt>
      <trkpt lat="42.3164275847375392913818359375" lon="2.6799869723618030548095703125">
        <ele>628.4000244140625</ele>
        <time>2020-08-08T12:33:12.000Z</time>
      </trkpt>
      <trkpt lat="42.316430099308490753173828125" lon="2.680011279881000518798828125">
        <ele>628.4000244140625</ele>
        <time>2020-08-08T12:33:13.000Z</time>
      </trkpt>
      <trkpt lat="42.31642180122435092926025390625" lon="2.68014027737081050872802734375">
        <ele>628.79998779296875</ele>
        <time>2020-08-08T12:33:18.000Z</time>
      </trkpt>
      <trkpt lat="42.3164259083569049835205078125" lon="2.6801891438663005828857421875">
        <ele>629</ele>
        <time>2020-08-08T12:33:20.000Z</time>
      </trkpt>
      <trkpt lat="42.31644677929580211639404296875" lon="2.680243290960788726806640625">
        <ele>629.4000244140625</ele>
        <time>2020-08-08T12:33:23.000Z</time>
      </trkpt>
      <trkpt lat="42.3164607770740985870361328125" lon="2.68025812692940235137939453125">
        <ele>629.5999755859375</ele>
        <time>2020-08-08T12:33:24.000Z</time>
      </trkpt>
      <trkpt lat="42.31652297079563140869140625" lon="2.6802384294569492340087890625">
        <ele>629.5999755859375</ele>
        <time>2020-08-08T12:33:29.000Z</time>
      </trkpt>
      <trkpt lat="42.31653696857392787933349609375" lon="2.68015251494944095611572265625">
        <ele>630</ele>
        <time>2020-08-08T12:33:35.000Z</time>
      </trkpt>
      <trkpt lat="42.31653462164103984832763671875" lon="2.6801033131778240203857421875">
        <ele>630.4000244140625</ele>
        <time>2020-08-08T12:33:38.000Z</time>
      </trkpt>
      <trkpt lat="42.31653998605906963348388671875" lon="2.68005050718784332275390625">
        <ele>630.5999755859375</ele>
        <time>2020-08-08T12:33:41.000Z</time>
      </trkpt>
      <trkpt lat="42.31655742041766643524169921875" lon="2.67996191047132015228271484375">
        <ele>630.4000244140625</ele>
        <time>2020-08-08T12:33:46.000Z</time>
      </trkpt>
      <trkpt lat="42.31656479649245738983154296875" lon="2.6799437217414379119873046875">
        <ele>630.4000244140625</ele>
        <time>2020-08-08T12:33:47.000Z</time>
      </trkpt>
      <trkpt lat="42.31660821475088596343994140625" lon="2.67981019802391529083251953125">
        <ele>630.5999755859375</ele>
        <time>2020-08-08T12:33:54.000Z</time>
      </trkpt>
      <trkpt lat="42.3166215419769287109375" lon="2.67971497960388660430908203125">
        <ele>631</ele>
        <time>2020-08-08T12:34:00.000Z</time>
      </trkpt>
      <trkpt lat="42.3166228830814361572265625" lon="2.67968664877116680145263671875">
        <ele>631.20001220703125</ele>
        <time>2020-08-08T12:34:02.000Z</time>
      </trkpt>
      <trkpt lat="42.316617183387279510498046875" lon="2.6796379499137401580810546875">
        <ele>631.20001220703125</ele>
        <time>2020-08-08T12:34:05.000Z</time>
      </trkpt>
      <trkpt lat="42.31661148369312286376953125" lon="2.67952236346900463104248046875">
        <ele>631.5999755859375</ele>
        <time>2020-08-08T12:34:11.000Z</time>
      </trkpt>
      <trkpt lat="42.31660469435155391693115234375" lon="2.679481543600559234619140625">
        <ele>631.5999755859375</ele>
        <time>2020-08-08T12:34:13.000Z</time>
      </trkpt>
      <trkpt lat="42.31660737656056880950927734375" lon="2.67941289581358432769775390625">
        <ele>631.79998779296875</ele>
        <time>2020-08-08T12:34:16.000Z</time>
      </trkpt>
      <trkpt lat="42.316613495349884033203125" lon="2.679393701255321502685546875">
        <ele>631.79998779296875</ele>
        <time>2020-08-08T12:34:17.000Z</time>
      </trkpt>
      <trkpt lat="42.3166210390627384185791015625" lon="2.679351456463336944580078125">
        <ele>632</ele>
        <time>2020-08-08T12:34:19.000Z</time>
      </trkpt>
      <trkpt lat="42.31663268990814685821533203125" lon="2.6792590878903865814208984375">
        <ele>632</ele>
        <time>2020-08-08T12:34:23.000Z</time>
      </trkpt>
      <trkpt lat="42.31665615923702716827392578125" lon="2.6791336946189403533935546875">
        <ele>632.5999755859375</ele>
        <time>2020-08-08T12:34:28.000Z</time>
      </trkpt>
      <trkpt lat="42.31665833853185176849365234375" lon="2.6790538989007472991943359375">
        <ele>632.5999755859375</ele>
        <time>2020-08-08T12:34:32.000Z</time>
      </trkpt>
      <trkpt lat="42.31666554696857929229736328125" lon="2.6790341176092624664306640625">
        <ele>632.5999755859375</ele>
        <time>2020-08-08T12:34:33.000Z</time>
      </trkpt>
      <trkpt lat="42.31668331660330295562744140625" lon="2.678990028798580169677734375">
        <ele>632.79998779296875</ele>
        <time>2020-08-08T12:34:35.000Z</time>
      </trkpt>
      <trkpt lat="42.3167182691395282745361328125" lon="2.67890277318656444549560546875">
        <ele>633.20001220703125</ele>
        <time>2020-08-08T12:34:39.000Z</time>
      </trkpt>
      <trkpt lat="42.31675690971314907073974609375" lon="2.67875726334750652313232421875">
        <ele>633.79998779296875</ele>
        <time>2020-08-08T12:34:45.000Z</time>
      </trkpt>
      <trkpt lat="42.31676696799695491790771484375" lon="2.67873086035251617431640625">
        <ele>633.79998779296875</ele>
        <time>2020-08-08T12:34:46.000Z</time>
      </trkpt>
      <trkpt lat="42.31679747812449932098388671875" lon="2.678632624447345733642578125">
        <ele>634.4000244140625</ele>
        <time>2020-08-08T12:34:50.000Z</time>
      </trkpt>
      <trkpt lat="42.31681776233017444610595703125" lon="2.67850765027105808258056640625">
        <ele>634.4000244140625</ele>
        <time>2020-08-08T12:34:55.000Z</time>
      </trkpt>
      <trkpt lat="42.3168386332690715789794921875" lon="2.67841042019426822662353515625">
        <ele>634.20001220703125</ele>
        <time>2020-08-08T12:34:59.000Z</time>
      </trkpt>
      <trkpt lat="42.316842488944530487060546875" lon="2.6783856935799121856689453125">
        <ele>634.4000244140625</ele>
        <time>2020-08-08T12:35:00.000Z</time>
      </trkpt>
      <trkpt lat="42.31685766018927097320556640625" lon="2.67826910130679607391357421875">
        <ele>635</ele>
        <time>2020-08-08T12:35:05.000Z</time>
      </trkpt>
      <trkpt lat="42.316869981586933135986328125" lon="2.67810716293752193450927734375">
        <ele>635.4000244140625</ele>
        <time>2020-08-08T12:35:11.000Z</time>
      </trkpt>
      <trkpt lat="42.3168741725385189056396484375" lon="2.6780132018029689788818359375">
        <ele>635.5999755859375</ele>
        <time>2020-08-08T12:35:15.000Z</time>
      </trkpt>
      <trkpt lat="42.316878028213977813720703125" lon="2.67798830755054950714111328125">
        <ele>635.79998779296875</ele>
        <time>2020-08-08T12:35:16.000Z</time>
      </trkpt>
      <trkpt lat="42.31688565574586391448974609375" lon="2.67794555984437465667724609375">
        <ele>636</ele>
        <time>2020-08-08T12:35:18.000Z</time>
      </trkpt>
      <trkpt lat="42.31689018197357654571533203125" lon="2.67788101918995380401611328125">
        <ele>636.20001220703125</ele>
        <time>2020-08-08T12:35:21.000Z</time>
      </trkpt>
      <trkpt lat="42.31689169071614742279052734375" lon="2.6778586395084857940673828125">
        <ele>636.4000244140625</ele>
        <time>2020-08-08T12:35:22.000Z</time>
      </trkpt>
      <trkpt lat="42.31687945313751697540283203125" lon="2.67777808941900730133056640625">
        <ele>637</ele>
        <time>2020-08-08T12:35:25.000Z</time>
      </trkpt>
      <trkpt lat="42.31687677092850208282470703125" lon="2.67775244079530239105224609375">
        <ele>637</ele>
        <time>2020-08-08T12:35:26.000Z</time>
      </trkpt>
      <trkpt lat="42.31687568128108978271484375" lon="2.6777285523712635040283203125">
        <ele>637</ele>
        <time>2020-08-08T12:35:27.000Z</time>
      </trkpt>
      <trkpt lat="42.316887415945529937744140625" lon="2.677625454962253570556640625">
        <ele>638</ele>
        <time>2020-08-08T12:35:32.000Z</time>
      </trkpt>
      <trkpt lat="42.31689018197357654571533203125" lon="2.67760257236659526824951171875">
        <ele>638.20001220703125</ele>
        <time>2020-08-08T12:35:33.000Z</time>
      </trkpt>
      <trkpt lat="42.31687895022332668304443359375" lon="2.6774700544774532318115234375">
        <ele>638.79998779296875</ele>
        <time>2020-08-08T12:35:39.000Z</time>
      </trkpt>
      <trkpt lat="42.31688163243234157562255859375" lon="2.67740786075592041015625">
        <ele>639</ele>
        <time>2020-08-08T12:35:42.000Z</time>
      </trkpt>
      <trkpt lat="42.3168884217739105224609375" lon="2.6773436553776264190673828125">
        <ele>639.5999755859375</ele>
        <time>2020-08-08T12:35:45.000Z</time>
      </trkpt>
      <trkpt lat="42.316883392632007598876953125" lon="2.67730719409883022308349609375">
        <ele>640</ele>
        <time>2020-08-08T12:35:47.000Z</time>
      </trkpt>
      <trkpt lat="42.31686956249177455902099609375" lon="2.67725405283272266387939453125">
        <ele>640.20001220703125</ele>
        <time>2020-08-08T12:35:50.000Z</time>
      </trkpt>
      <trkpt lat="42.316873334348201751708984375" lon="2.67715933732688426971435546875">
        <ele>640.4000244140625</ele>
        <time>2020-08-08T12:35:55.000Z</time>
      </trkpt>
      <trkpt lat="42.31687408871948719024658203125" lon="2.677139304578304290771484375">
        <ele>640.4000244140625</ele>
        <time>2020-08-08T12:35:56.000Z</time>
      </trkpt>
      <trkpt lat="42.31687928549945354461669921875" lon="2.67705422826111316680908203125">
        <ele>641.20001220703125</ele>
        <time>2020-08-08T12:36:00.000Z</time>
      </trkpt>
      <trkpt lat="42.31687794439494609832763671875" lon="2.6770093850791454315185546875">
        <ele>641.20001220703125</ele>
        <time>2020-08-08T12:36:02.000Z</time>
      </trkpt>
      <trkpt lat="42.3168857395648956298828125" lon="2.676965296268463134765625">
        <ele>641.4000244140625</ele>
        <time>2020-08-08T12:36:04.000Z</time>
      </trkpt>
      <trkpt lat="42.31689512729644775390625" lon="2.676818110048770904541015625">
        <ele>641.79998779296875</ele>
        <time>2020-08-08T12:36:10.000Z</time>
      </trkpt>
      <trkpt lat="42.31690342538058757781982421875" lon="2.6767210476100444793701171875">
        <ele>642</ele>
        <time>2020-08-08T12:36:14.000Z</time>
      </trkpt>
      <trkpt lat="42.3169133998453617095947265625" lon="2.6766342110931873321533203125">
        <ele>642.5999755859375</ele>
        <time>2020-08-08T12:36:18.000Z</time>
      </trkpt>
      <trkpt lat="42.31693510897457599639892578125" lon="2.6764838397502899169921875">
        <ele>643</ele>
        <time>2020-08-08T12:36:25.000Z</time>
      </trkpt>
      <trkpt lat="42.31693929992616176605224609375" lon="2.67646229825913906097412109375">
        <ele>643.20001220703125</ele>
        <time>2020-08-08T12:36:26.000Z</time>
      </trkpt>
      <trkpt lat="42.3169554769992828369140625" lon="2.6763497292995452880859375">
        <ele>643.79998779296875</ele>
        <time>2020-08-08T12:36:32.000Z</time>
      </trkpt>
      <trkpt lat="42.31695824302732944488525390625" lon="2.6762209832668304443359375">
        <ele>644</ele>
        <time>2020-08-08T12:36:38.000Z</time>
      </trkpt>
      <trkpt lat="42.3169586621224880218505859375" lon="2.67617999576032161712646484375">
        <ele>644</ele>
        <time>2020-08-08T12:36:40.000Z</time>
      </trkpt>
      <trkpt lat="42.31695086695253849029541015625" lon="2.6761383377015590667724609375">
        <ele>644.20001220703125</ele>
        <time>2020-08-08T12:36:42.000Z</time>
      </trkpt>
      <trkpt lat="42.3169445805251598358154296875" lon="2.67611796967685222625732421875">
        <ele>644.20001220703125</ele>
        <time>2020-08-08T12:36:43.000Z</time>
      </trkpt>
      <trkpt lat="42.3168976418673992156982421875" lon="2.67600313760340213775634765625">
        <ele>644.20001220703125</ele>
        <time>2020-08-08T12:36:48.000Z</time>
      </trkpt>
      <trkpt lat="42.31688749976456165313720703125" lon="2.67597782425582408905029296875">
        <ele>644.20001220703125</ele>
        <time>2020-08-08T12:36:49.000Z</time>
      </trkpt>
      <trkpt lat="42.31682262383401393890380859375" lon="2.67584505490958690643310546875">
        <ele>644.4000244140625</ele>
        <time>2020-08-08T12:36:55.000Z</time>
      </trkpt>
      <trkpt lat="42.3167296685278415679931640625" lon="2.6756749860942363739013671875">
        <ele>644.79998779296875</ele>
        <time>2020-08-08T12:37:03.000Z</time>
      </trkpt>
      <trkpt lat="42.31666135601699352264404296875" lon="2.67558605410158634185791015625">
        <ele>645</ele>
        <time>2020-08-08T12:37:08.000Z</time>
      </trkpt>
      <trkpt lat="42.31663637794554233551025390625" lon="2.67552159726619720458984375">
        <ele>645.20001220703125</ele>
        <time>2020-08-08T12:37:11.000Z</time>
      </trkpt>
      <trkpt lat="42.3166163451969623565673828125" lon="2.67545185983180999755859375">
        <ele>645.20001220703125</ele>
        <time>2020-08-08T12:37:14.000Z</time>
      </trkpt>
      <trkpt lat="42.3165895231068134307861328125" lon="2.675320766866207122802734375">
        <ele>645.4000244140625</ele>
        <time>2020-08-08T12:37:20.000Z</time>
      </trkpt>
      <trkpt lat="42.31657954864203929901123046875" lon="2.675258405506610870361328125">
        <ele>645.79998779296875</ele>
        <time>2020-08-08T12:37:23.000Z</time>
      </trkpt>
      <trkpt lat="42.3165665566921234130859375" lon="2.67519436776638031005859375">
        <ele>646.20001220703125</ele>
        <time>2020-08-08T12:37:26.000Z</time>
      </trkpt>
      <trkpt lat="42.31656747870147228240966796875" lon="2.675172574818134307861328125">
        <ele>646.20001220703125</ele>
        <time>2020-08-08T12:37:27.000Z</time>
      </trkpt>
      <trkpt lat="42.3165633715689182281494140625" lon="2.675044834613800048828125">
        <ele>646.4000244140625</ele>
        <time>2020-08-08T12:37:33.000Z</time>
      </trkpt>
      <trkpt lat="42.31655842624604701995849609375" lon="2.67500518821179866790771484375">
        <ele>646.79998779296875</ele>
        <time>2020-08-08T12:37:35.000Z</time>
      </trkpt>
      <trkpt lat="42.3165559954941272735595703125" lon="2.674987502396106719970703125">
        <ele>646.79998779296875</ele>
        <time>2020-08-08T12:37:36.000Z</time>
      </trkpt>
      <trkpt lat="42.31655758805572986602783203125" lon="2.674897648394107818603515625">
        <ele>647.20001220703125</ele>
        <time>2020-08-08T12:37:41.000Z</time>
      </trkpt>
      <trkpt lat="42.316547445952892303466796875" lon="2.674806118011474609375">
        <ele>648</ele>
        <time>2020-08-08T12:37:46.000Z</time>
      </trkpt>
      <trkpt lat="42.31650964356958866119384765625" lon="2.67467661760747432708740234375">
        <ele>648.79998779296875</ele>
        <time>2020-08-08T12:37:53.000Z</time>
      </trkpt>
      <trkpt lat="42.31645415537059307098388671875" lon="2.674536891281604766845703125">
        <ele>649.79998779296875</ele>
        <time>2020-08-08T12:38:01.000Z</time>
      </trkpt>
      <trkpt lat="42.31644644401967525482177734375" lon="2.67452205531299114227294921875">
        <ele>649.79998779296875</ele>
        <time>2020-08-08T12:38:02.000Z</time>
      </trkpt>
      <trkpt lat="42.3164074681699275970458984375" lon="2.67446774058043956756591796875">
        <ele>650.4000244140625</ele>
        <time>2020-08-08T12:38:06.000Z</time>
      </trkpt>
      <trkpt lat="42.3163947276771068572998046875" lon="2.67445600591599941253662109375">
        <ele>650.5999755859375</ele>
        <time>2020-08-08T12:38:07.000Z</time>
      </trkpt>
      <trkpt lat="42.31635726056993007659912109375" lon="2.67442130483686923980712890625">
        <ele>651</ele>
        <time>2020-08-08T12:38:10.000Z</time>
      </trkpt>
      <trkpt lat="42.3163042031228542327880859375" lon="2.67436497844755649566650390625">
        <ele>651.20001220703125</ele>
        <time>2020-08-08T12:38:14.000Z</time>
      </trkpt>
      <trkpt lat="42.3162958212196826934814453125" lon="2.67434553243219852447509765625">
        <ele>651.4000244140625</ele>
        <time>2020-08-08T12:38:15.000Z</time>
      </trkpt>
      <trkpt lat="42.31625902466475963592529296875" lon="2.67430521547794342041015625">
        <ele>651.5999755859375</ele>
        <time>2020-08-08T12:38:18.000Z</time>
      </trkpt>
      <trkpt lat="42.31621527113020420074462890625" lon="2.674280740320682525634765625">
        <ele>651.79998779296875</ele>
        <time>2020-08-08T12:38:21.000Z</time>
      </trkpt>
      <trkpt lat="42.316172607243061065673828125" lon="2.674245871603488922119140625">
        <ele>652</ele>
        <time>2020-08-08T12:38:24.000Z</time>
      </trkpt>
      <trkpt lat="42.3161409236490726470947265625" lon="2.674224413931369781494140625">
        <ele>652</ele>
        <time>2020-08-08T12:38:26.000Z</time>
      </trkpt>
      <trkpt lat="42.31606858782470226287841796875" lon="2.67419717274606227874755859375">
        <ele>652</ele>
        <time>2020-08-08T12:38:30.000Z</time>
      </trkpt>
      <trkpt lat="42.3159576952457427978515625" lon="2.674132883548736572265625">
        <ele>652</ele>
        <time>2020-08-08T12:38:37.000Z</time>
      </trkpt>
      <trkpt lat="42.315846048295497894287109375" lon="2.67404780723154544830322265625">
        <ele>652</ele>
        <time>2020-08-08T12:38:44.000Z</time>
      </trkpt>
      <trkpt lat="42.3157538473606109619140625" lon="2.67398058436810970306396484375">
        <ele>652.20001220703125</ele>
        <time>2020-08-08T12:38:51.000Z</time>
      </trkpt>
      <trkpt lat="42.315723001956939697265625" lon="2.673981674015522003173828125">
        <ele>652.4000244140625</ele>
        <time>2020-08-08T12:38:53.000Z</time>
      </trkpt>
      <trkpt lat="42.3156706988811492919921875" lon="2.6739895530045032501220703125">
        <ele>652.20001220703125</ele>
        <time>2020-08-08T12:38:56.000Z</time>
      </trkpt>
      <trkpt lat="42.31558612547814846038818359375" lon="2.67400505952537059783935546875">
        <ele>652.4000244140625</ele>
        <time>2020-08-08T12:39:01.000Z</time>
      </trkpt>
      <trkpt lat="42.3155498318374156951904296875" lon="2.67400187440216541290283203125">
        <ele>652.4000244140625</ele>
        <time>2020-08-08T12:39:03.000Z</time>
      </trkpt>
      <trkpt lat="42.315516807138919830322265625" lon="2.67400640062987804412841796875">
        <ele>652.4000244140625</ele>
        <time>2020-08-08T12:39:05.000Z</time>
      </trkpt>
      <trkpt lat="42.31540239416062831878662109375" lon="2.67402986995875835418701171875">
        <ele>652.4000244140625</ele>
        <time>2020-08-08T12:39:10.000Z</time>
      </trkpt>
      <trkpt lat="42.31528454460203647613525390625" lon="2.674076557159423828125">
        <ele>652.4000244140625</ele>
        <time>2020-08-08T12:39:16.000Z</time>
      </trkpt>
      <trkpt lat="42.31519301421940326690673828125" lon="2.67412994988262653350830078125">
        <ele>652.4000244140625</ele>
        <time>2020-08-08T12:39:22.000Z</time>
      </trkpt>
      <trkpt lat="42.3150831274688243865966796875" lon="2.67418577335774898529052734375">
        <ele>652.20001220703125</ele>
        <time>2020-08-08T12:39:28.000Z</time>
      </trkpt>
      <trkpt lat="42.31501079164445400238037109375" lon="2.6742547564208507537841796875">
        <ele>652.20001220703125</ele>
        <time>2020-08-08T12:39:33.000Z</time>
      </trkpt>
      <trkpt lat="42.31492747552692890167236328125" lon="2.674385011196136474609375">
        <ele>651.79998779296875</ele>
        <time>2020-08-08T12:39:38.000Z</time>
      </trkpt>
      <trkpt lat="42.3148232884705066680908203125" lon="2.67448819242417812347412109375">
        <ele>651.5999755859375</ele>
        <time>2020-08-08T12:39:43.000Z</time>
      </trkpt>
      <trkpt lat="42.31466294266283512115478515625" lon="2.6746275834739208221435546875">
        <ele>651.20001220703125</ele>
        <time>2020-08-08T12:39:49.000Z</time>
      </trkpt>
      <trkpt lat="42.31450100429356098175048828125" lon="2.674680054187774658203125">
        <ele>651.4000244140625</ele>
        <time>2020-08-08T12:39:54.000Z</time>
      </trkpt>
      <trkpt lat="42.31426932848989963531494140625" lon="2.67465046606957912445068359375">
        <ele>650.5999755859375</ele>
        <time>2020-08-08T12:40:01.000Z</time>
      </trkpt>
      <trkpt lat="42.31417310424149036407470703125" lon="2.67460294067859649658203125">
        <ele>650.20001220703125</ele>
        <time>2020-08-08T12:40:04.000Z</time>
      </trkpt>
      <trkpt lat="42.314144857227802276611328125" lon="2.6745786331593990325927734375">
        <ele>650</ele>
        <time>2020-08-08T12:40:05.000Z</time>
      </trkpt>
      <trkpt lat="42.31398216448724269866943359375" lon="2.67435290850698947906494140625">
        <ele>650.20001220703125</ele>
        <time>2020-08-08T12:40:12.000Z</time>
      </trkpt>
      <trkpt lat="42.31384587474167346954345703125" lon="2.67425685189664363861083984375">
        <ele>650.20001220703125</ele>
        <time>2020-08-08T12:40:17.000Z</time>
      </trkpt>
      <trkpt lat="42.313721738755702972412109375" lon="2.67421670258045196533203125">
        <ele>650.4000244140625</ele>
        <time>2020-08-08T12:40:23.000Z</time>
      </trkpt>
      <trkpt lat="42.313616462051868438720703125" lon="2.6741779781877994537353515625">
        <ele>650.5999755859375</ele>
        <time>2020-08-08T12:40:29.000Z</time>
      </trkpt>
      <trkpt lat="42.3135544359683990478515625" lon="2.67414973117411136627197265625">
        <ele>651.20001220703125</ele>
        <time>2020-08-08T12:40:33.000Z</time>
      </trkpt>
      <trkpt lat="42.31350171379745006561279296875" lon="2.67410731874406337738037109375">
        <ele>651.5999755859375</ele>
        <time>2020-08-08T12:40:37.000Z</time>
      </trkpt>
      <trkpt lat="42.31342258863151073455810546875" lon="2.67401411198079586029052734375">
        <ele>652</ele>
        <time>2020-08-08T12:40:44.000Z</time>
      </trkpt>
      <trkpt lat="42.31340431608259677886962890625" lon="2.67397689633071422576904296875">
        <ele>652.4000244140625</ele>
        <time>2020-08-08T12:40:46.000Z</time>
      </trkpt>
      <trkpt lat="42.3133671842515468597412109375" lon="2.673907913267612457275390625">
        <ele>652.5999755859375</ele>
        <time>2020-08-08T12:40:50.000Z</time>
      </trkpt>
      <trkpt lat="42.31336073018610477447509765625" lon="2.67389123328030109405517578125">
        <ele>652.5999755859375</ele>
        <time>2020-08-08T12:40:51.000Z</time>
      </trkpt>
      <trkpt lat="42.31334212236106395721435546875" lon="2.67383876256644725799560546875">
        <ele>653.20001220703125</ele>
        <time>2020-08-08T12:40:54.000Z</time>
      </trkpt>
      <trkpt lat="42.31331747956573963165283203125" lon="2.67376902513206005096435546875">
        <ele>653.79998779296875</ele>
        <time>2020-08-08T12:40:58.000Z</time>
      </trkpt>
      <trkpt lat="42.3133128695189952850341796875" lon="2.67374756745994091033935546875">
        <ele>654</ele>
        <time>2020-08-08T12:40:59.000Z</time>
      </trkpt>
      <trkpt lat="42.313302643597126007080078125" lon="2.67370834015309810638427734375">
        <ele>654.20001220703125</ele>
        <time>2020-08-08T12:41:01.000Z</time>
      </trkpt>
      <trkpt lat="42.31328495778143405914306640625" lon="2.6735925860702991485595703125">
        <ele>655.20001220703125</ele>
        <time>2020-08-08T12:41:07.000Z</time>
      </trkpt>
      <trkpt lat="42.3132826946675777435302734375" lon="2.67355578951537609100341796875">
        <ele>655.4000244140625</ele>
        <time>2020-08-08T12:41:09.000Z</time>
      </trkpt>
      <trkpt lat="42.31329149566590785980224609375" lon="2.67347867600619792938232421875">
        <ele>655.79998779296875</ele>
        <time>2020-08-08T12:41:13.000Z</time>
      </trkpt>
      <trkpt lat="42.313306331634521484375" lon="2.67342654056847095489501953125">
        <ele>656.4000244140625</ele>
        <time>2020-08-08T12:41:16.000Z</time>
      </trkpt>
      <trkpt lat="42.31332519091665744781494140625" lon="2.6733672805130481719970703125">
        <ele>656.79998779296875</ele>
        <time>2020-08-08T12:41:19.000Z</time>
      </trkpt>
      <trkpt lat="42.31337179429829120635986328125" lon="2.67328052781522274017333984375">
        <ele>657.5999755859375</ele>
        <time>2020-08-08T12:41:25.000Z</time>
      </trkpt>
      <trkpt lat="42.3133829422295093536376953125" lon="2.673265524208545684814453125">
        <ele>657.79998779296875</ele>
        <time>2020-08-08T12:41:26.000Z</time>
      </trkpt>
      <trkpt lat="42.3134335689246654510498046875" lon="2.6731275580823421478271484375">
        <ele>657.79998779296875</ele>
        <time>2020-08-08T12:41:33.000Z</time>
      </trkpt>
      <trkpt lat="42.31346785090863704681396484375" lon="2.67303359694778919219970703125">
        <ele>658.20001220703125</ele>
        <time>2020-08-08T12:41:38.000Z</time>
      </trkpt>
      <trkpt lat="42.31347355060279369354248046875" lon="2.67301934771239757537841796875">
        <ele>658.20001220703125</ele>
        <time>2020-08-08T12:41:39.000Z</time>
      </trkpt>
      <trkpt lat="42.3134828545153141021728515625" lon="2.67298690974712371826171875">
        <ele>658.4000244140625</ele>
        <time>2020-08-08T12:41:41.000Z</time>
      </trkpt>
      <trkpt lat="42.31349769048392772674560546875" lon="2.6729433238506317138671875">
        <ele>658.5999755859375</ele>
        <time>2020-08-08T12:41:44.000Z</time>
      </trkpt>
      <trkpt lat="42.3135073296725749969482421875" lon="2.67291189171373844146728515625">
        <ele>658.5999755859375</ele>
        <time>2020-08-08T12:41:46.000Z</time>
      </trkpt>
      <trkpt lat="42.31350271962583065032958984375" lon="2.67285925336182117462158203125">
        <ele>658.5999755859375</ele>
        <time>2020-08-08T12:41:49.000Z</time>
      </trkpt>
      <trkpt lat="42.31351646594703197479248046875" lon="2.6726940460503101348876953125">
        <ele>658.79998779296875</ele>
        <time>2020-08-08T12:41:56.000Z</time>
      </trkpt>
      <trkpt lat="42.31352468021214008331298828125" lon="2.672511823475360870361328125">
        <ele>659</ele>
        <time>2020-08-08T12:42:03.000Z</time>
      </trkpt>
      <trkpt lat="42.31351085007190704345703125" lon="2.672341503202915191650390625">
        <ele>659.4000244140625</ele>
        <time>2020-08-08T12:42:10.000Z</time>
      </trkpt>
      <trkpt lat="42.31351076625287532806396484375" lon="2.67229934222996234893798828125">
        <ele>659.5999755859375</ele>
        <time>2020-08-08T12:42:12.000Z</time>
      </trkpt>
      <trkpt lat="42.3135261051356792449951171875" lon="2.67222222872078418731689453125">
        <ele>659.5999755859375</ele>
        <time>2020-08-08T12:42:16.000Z</time>
      </trkpt>
      <trkpt lat="42.3135666735470294952392578125" lon="2.67210085876286029815673828125">
        <ele>660.20001220703125</ele>
        <time>2020-08-08T12:42:22.000Z</time>
      </trkpt>
      <trkpt lat="42.31358787976205348968505859375" lon="2.67205073498189449310302734375">
        <ele>660.4000244140625</ele>
        <time>2020-08-08T12:42:24.000Z</time>
      </trkpt>
      <trkpt lat="42.3136159591376781463623046875" lon="2.6719752140343189239501953125">
        <ele>660.20001220703125</ele>
        <time>2020-08-08T12:42:27.000Z</time>
      </trkpt>
      <trkpt lat="42.3136545158922672271728515625" lon="2.6717904768884181976318359375">
        <ele>660.20001220703125</ele>
        <time>2020-08-08T12:42:34.000Z</time>
      </trkpt>
      <trkpt lat="42.313698269426822662353515625" lon="2.67164186574518680572509765625">
        <ele>660</ele>
        <time>2020-08-08T12:42:40.000Z</time>
      </trkpt>
      <trkpt lat="42.31372852809727191925048828125" lon="2.6714384369552135467529296875">
        <ele>660.4000244140625</ele>
        <time>2020-08-08T12:42:48.000Z</time>
      </trkpt>
      <trkpt lat="42.31373171322047710418701171875" lon="2.6713834516704082489013671875">
        <ele>660.5999755859375</ele>
        <time>2020-08-08T12:42:50.000Z</time>
      </trkpt>
      <trkpt lat="42.31374713592231273651123046875" lon="2.67127054743468761444091796875">
        <ele>660.4000244140625</ele>
        <time>2020-08-08T12:42:53.000Z</time>
      </trkpt>
      <trkpt lat="42.31375233270227909088134765625" lon="2.67104524187743663787841796875">
        <ele>659.79998779296875</ele>
        <time>2020-08-08T12:42:57.000Z</time>
      </trkpt>
      <trkpt lat="42.313747219741344451904296875" lon="2.67098941840231418609619140625">
        <ele>659.5999755859375</ele>
        <time>2020-08-08T12:42:58.000Z</time>
      </trkpt>
      <trkpt lat="42.3136900551617145538330078125" lon="2.67082245089113712310791015625">
        <ele>659.5999755859375</ele>
        <time>2020-08-08T12:43:01.000Z</time>
      </trkpt>
      <trkpt lat="42.313652671873569488525390625" lon="2.670588009059429168701171875">
        <ele>658.79998779296875</ele>
        <time>2020-08-08T12:43:05.000Z</time>
      </trkpt>
      <trkpt lat="42.3136531747877597808837890625" lon="2.67052724026143550872802734375">
        <ele>658.5999755859375</ele>
        <time>2020-08-08T12:43:06.000Z</time>
      </trkpt>
      <trkpt lat="42.31365761719644069671630859375" lon="2.67046554945409297943115234375">
        <ele>658.5999755859375</ele>
        <time>2020-08-08T12:43:07.000Z</time>
      </trkpt>
      <trkpt lat="42.31366574764251708984375" lon="2.670400254428386688232421875">
        <ele>658.4000244140625</ele>
        <time>2020-08-08T12:43:08.000Z</time>
      </trkpt>
      <trkpt lat="42.3136850260198116302490234375" lon="2.6702718436717987060546875">
        <ele>657.79998779296875</ele>
        <time>2020-08-08T12:43:10.000Z</time>
      </trkpt>
      <trkpt lat="42.31369952671229839324951171875" lon="2.67021090723574161529541015625">
        <ele>657.79998779296875</ele>
        <time>2020-08-08T12:43:11.000Z</time>
      </trkpt>
      <trkpt lat="42.31371679343283176422119140625" lon="2.67015038989484310150146484375">
        <ele>657.4000244140625</ele>
        <time>2020-08-08T12:43:12.000Z</time>
      </trkpt>
      <trkpt lat="42.31373456306755542755126953125" lon="2.6700916327536106109619140625">
        <ele>657.4000244140625</ele>
        <time>2020-08-08T12:43:13.000Z</time>
      </trkpt>
      <trkpt lat="42.31382341124117374420166015625" lon="2.66988895833492279052734375">
        <ele>657.4000244140625</ele>
        <time>2020-08-08T12:43:17.000Z</time>
      </trkpt>
      <trkpt lat="42.3139713518321514129638671875" lon="2.669662646949291229248046875">
        <ele>657.5999755859375</ele>
        <time>2020-08-08T12:43:23.000Z</time>
      </trkpt>
      <trkpt lat="42.3140256665647029876708984375" lon="2.66948419623076915740966796875">
        <ele>658</ele>
        <time>2020-08-08T12:43:29.000Z</time>
      </trkpt>
      <trkpt lat="42.31406338512897491455078125" lon="2.66932527534663677215576171875">
        <ele>658.4000244140625</ele>
        <time>2020-08-08T12:43:35.000Z</time>
      </trkpt>
      <trkpt lat="42.3140873573720455169677734375" lon="2.6691039092838764190673828125">
        <ele>658.79998779296875</ele>
        <time>2020-08-08T12:43:43.000Z</time>
      </trkpt>
      <trkpt lat="42.31411158107221126556396484375" lon="2.6689278893172740936279296875">
        <ele>658.79998779296875</ele>
        <time>2020-08-08T12:43:50.000Z</time>
      </trkpt>
      <trkpt lat="42.314131446182727813720703125" lon="2.66884432174265384674072265625">
        <ele>659.5999755859375</ele>
        <time>2020-08-08T12:43:54.000Z</time>
      </trkpt>
      <trkpt lat="42.31414494104683399200439453125" lon="2.6687723211944103240966796875">
        <ele>659.5999755859375</ele>
        <time>2020-08-08T12:43:57.000Z</time>
      </trkpt>
      <trkpt lat="42.3141659796237945556640625" lon="2.66859655268490314483642578125">
        <ele>660</ele>
        <time>2020-08-08T12:44:05.000Z</time>
      </trkpt>
      <trkpt lat="42.314168997108936309814453125" lon="2.6685781963169574737548828125">
        <ele>660</ele>
        <time>2020-08-08T12:44:06.000Z</time>
      </trkpt>
      <trkpt lat="42.3141751997172832489013671875" lon="2.6684870012104511260986328125">
        <ele>660.5999755859375</ele>
        <time>2020-08-08T12:44:10.000Z</time>
      </trkpt>
      <trkpt lat="42.31418718583881855010986328125" lon="2.66841131262481212615966796875">
        <ele>660.79998779296875</ele>
        <time>2020-08-08T12:44:13.000Z</time>
      </trkpt>
      <trkpt lat="42.31420411728322505950927734375" lon="2.6682911999523639678955078125">
        <ele>661.4000244140625</ele>
        <time>2020-08-08T12:44:18.000Z</time>
      </trkpt>
      <trkpt lat="42.31420998461544513702392578125" lon="2.668243087828159332275390625">
        <ele>661.5999755859375</ele>
        <time>2020-08-08T12:44:20.000Z</time>
      </trkpt>
      <trkpt lat="42.31423093937337398529052734375" lon="2.66812984831631183624267578125">
        <ele>662.20001220703125</ele>
        <time>2020-08-08T12:44:25.000Z</time>
      </trkpt>
      <trkpt lat="42.31426052749156951904296875" lon="2.66801585443317890167236328125">
        <ele>662.79998779296875</ele>
        <time>2020-08-08T12:44:30.000Z</time>
      </trkpt>
      <trkpt lat="42.31427393853664398193359375" lon="2.667944692075252532958984375">
        <ele>663.20001220703125</ele>
        <time>2020-08-08T12:44:33.000Z</time>
      </trkpt>
      <trkpt lat="42.3143488727509975433349609375" lon="2.6677970029413700103759765625">
        <ele>663.4000244140625</ele>
        <time>2020-08-08T12:44:40.000Z</time>
      </trkpt>
      <trkpt lat="42.31444350443780422210693359375" lon="2.66776490025222301483154296875">
        <ele>663.5999755859375</ele>
        <time>2020-08-08T12:44:45.000Z</time>
      </trkpt>
      <trkpt lat="42.314489185810089111328125" lon="2.66778417862951755523681640625">
        <ele>664.20001220703125</ele>
        <time>2020-08-08T12:44:48.000Z</time>
      </trkpt>
      <trkpt lat="42.3145242221653461456298828125" lon="2.66781452111899852752685546875">
        <ele>664.5999755859375</ele>
        <time>2020-08-08T12:44:51.000Z</time>
      </trkpt>
      <trkpt lat="42.3145641200244426727294921875" lon="2.66784134320914745330810546875">
        <ele>664.79998779296875</ele>
        <time>2020-08-08T12:44:54.000Z</time>
      </trkpt>
      <trkpt lat="42.31460259296000003814697265625" lon="2.66785156913101673126220703125">
        <ele>665</ele>
        <time>2020-08-08T12:44:57.000Z</time>
      </trkpt>
      <trkpt lat="42.31463176198303699493408203125" lon="2.66783346422016620635986328125">
        <ele>665.20001220703125</ele>
        <time>2020-08-08T12:44:59.000Z</time>
      </trkpt>
      <trkpt lat="42.3146595060825347900390625" lon="2.66780781559646129608154296875">
        <ele>665.20001220703125</ele>
        <time>2020-08-08T12:45:01.000Z</time>
      </trkpt>
      <trkpt lat="42.31470284052193164825439453125" lon="2.667742185294628143310546875">
        <ele>665.5999755859375</ele>
        <time>2020-08-08T12:45:05.000Z</time>
      </trkpt>
      <trkpt lat="42.31471474282443523406982421875" lon="2.66772173345088958740234375">
        <ele>665.79998779296875</ele>
        <time>2020-08-08T12:45:06.000Z</time>
      </trkpt>
      <trkpt lat="42.31480761431157588958740234375" lon="2.66758820973336696624755859375">
        <ele>665.79998779296875</ele>
        <time>2020-08-08T12:45:13.000Z</time>
      </trkpt>
      <trkpt lat="42.31488204561173915863037109375" lon="2.66746692359447479248046875">
        <ele>666.4000244140625</ele>
        <time>2020-08-08T12:45:19.000Z</time>
      </trkpt>
      <trkpt lat="42.31491029262542724609375" lon="2.667406238615512847900390625">
        <ele>666.79998779296875</ele>
        <time>2020-08-08T12:45:22.000Z</time>
      </trkpt>
      <trkpt lat="42.31493644416332244873046875" lon="2.66734354197978973388671875">
        <ele>666.79998779296875</ele>
        <time>2020-08-08T12:45:25.000Z</time>
      </trkpt>
      <trkpt lat="42.31499771587550640106201171875" lon="2.667192332446575164794921875">
        <ele>667.20001220703125</ele>
        <time>2020-08-08T12:45:32.000Z</time>
      </trkpt>
      <trkpt lat="42.31503166258335113525390625" lon="2.667031399905681610107421875">
        <ele>667.4000244140625</ele>
        <time>2020-08-08T12:45:39.000Z</time>
      </trkpt>
      <trkpt lat="42.31504951603710651397705078125" lon="2.66690826974809169769287109375">
        <ele>667.79998779296875</ele>
        <time>2020-08-08T12:45:44.000Z</time>
      </trkpt>
      <trkpt lat="42.31505052186548709869384765625" lon="2.66688647679984569549560546875">
        <ele>667.79998779296875</ele>
        <time>2020-08-08T12:45:45.000Z</time>
      </trkpt>
      <trkpt lat="42.31505119241774082183837890625" lon="2.66673375852406024932861328125">
        <ele>668</ele>
        <time>2020-08-08T12:45:51.000Z</time>
      </trkpt>
      <trkpt lat="42.31503166258335113525390625" lon="2.66656167805194854736328125">
        <ele>668.20001220703125</ele>
        <time>2020-08-08T12:45:57.000Z</time>
      </trkpt>
      <trkpt lat="42.315030656754970550537109375" lon="2.66634710133075714111328125">
        <ele>668.4000244140625</ele>
        <time>2020-08-08T12:46:04.000Z</time>
      </trkpt>
      <trkpt lat="42.3150442354381084442138671875" lon="2.66616060398519039154052734375">
        <ele>668.79998779296875</ele>
        <time>2020-08-08T12:46:11.000Z</time>
      </trkpt>
      <trkpt lat="42.315029986202716827392578125" lon="2.666031606495380401611328125">
        <ele>669</ele>
        <time>2020-08-08T12:46:16.000Z</time>
      </trkpt>
      <trkpt lat="42.31497793458402156829833984375" lon="2.66584678553044795989990234375">
        <ele>669.5999755859375</ele>
        <time>2020-08-08T12:46:23.000Z</time>
      </trkpt>
      <trkpt lat="42.3149671219289302825927734375" lon="2.66579699702560901641845703125">
        <ele>670</ele>
        <time>2020-08-08T12:46:25.000Z</time>
      </trkpt>
      <trkpt lat="42.31497173197567462921142578125" lon="2.66569130122661590576171875">
        <ele>670.20001220703125</ele>
        <time>2020-08-08T12:46:29.000Z</time>
      </trkpt>
      <trkpt lat="42.31497257016599178314208984375" lon="2.66552357934415340423583984375">
        <ele>670.5999755859375</ele>
        <time>2020-08-08T12:46:36.000Z</time>
      </trkpt>
      <trkpt lat="42.314970307052135467529296875" lon="2.6654752157628536224365234375">
        <ele>670.79998779296875</ele>
        <time>2020-08-08T12:46:38.000Z</time>
      </trkpt>
      <trkpt lat="42.31498916633427143096923828125" lon="2.66535409726202487945556640625">
        <ele>671.20001220703125</ele>
        <time>2020-08-08T12:46:43.000Z</time>
      </trkpt>
      <trkpt lat="42.315015234053134918212890625" lon="2.6652546040713787078857421875">
        <ele>671.79998779296875</ele>
        <time>2020-08-08T12:46:47.000Z</time>
      </trkpt>
      <trkpt lat="42.3150345124304294586181640625" lon="2.66514270566403865814208984375">
        <ele>672.79998779296875</ele>
        <time>2020-08-08T12:46:52.000Z</time>
      </trkpt>
      <trkpt lat="42.31503727845847606658935546875" lon="2.66511940397322177886962890625">
        <ele>672.79998779296875</ele>
        <time>2020-08-08T12:46:53.000Z</time>
      </trkpt>
      <trkpt lat="42.315042726695537567138671875" lon="2.665009014308452606201171875">
        <ele>673.4000244140625</ele>
        <time>2020-08-08T12:46:58.000Z</time>
      </trkpt>
      <trkpt lat="42.31504264287650585174560546875" lon="2.664896361529827117919921875">
        <ele>674</ele>
        <time>2020-08-08T12:47:03.000Z</time>
      </trkpt>
      <trkpt lat="42.315044067800045013427734375" lon="2.6648740656673908233642578125">
        <ele>674</ele>
        <time>2020-08-08T12:47:04.000Z</time>
      </trkpt>
      <trkpt lat="42.31506426818668842315673828125" lon="2.664717324078083038330078125">
        <ele>675</ele>
        <time>2020-08-08T12:47:11.000Z</time>
      </trkpt>
      <trkpt lat="42.31506879441440105438232421875" lon="2.66469645313918590545654296875">
        <ele>675</ele>
        <time>2020-08-08T12:47:12.000Z</time>
      </trkpt>
      <trkpt lat="42.3150727339088916778564453125" lon="2.6645649410784244537353515625">
        <ele>675.5999755859375</ele>
        <time>2020-08-08T12:47:18.000Z</time>
      </trkpt>
      <trkpt lat="42.3150677047669887542724609375" lon="2.6645243726670742034912109375">
        <ele>676</ele>
        <time>2020-08-08T12:47:20.000Z</time>
      </trkpt>
      <trkpt lat="42.31504398398101329803466796875" lon="2.6644113846123218536376953125">
        <ele>676.79998779296875</ele>
        <time>2020-08-08T12:47:25.000Z</time>
      </trkpt>
      <trkpt lat="42.31503962539136409759521484375" lon="2.6643892563879489898681640625">
        <ele>677</ele>
        <time>2020-08-08T12:47:26.000Z</time>
      </trkpt>
      <trkpt lat="42.3150097019970417022705078125" lon="2.66426310874521732330322265625">
        <ele>677.5999755859375</ele>
        <time>2020-08-08T12:47:32.000Z</time>
      </trkpt>
      <trkpt lat="42.3149728216230869293212890625" lon="2.66416386701166629791259765625">
        <ele>678</ele>
        <time>2020-08-08T12:47:37.000Z</time>
      </trkpt>
      <trkpt lat="42.31494759209454059600830078125" lon="2.66409077681601047515869140625">
        <ele>678.79998779296875</ele>
        <time>2020-08-08T12:47:41.000Z</time>
      </trkpt>
      <trkpt lat="42.31492512859404087066650390625" lon="2.664036042988300323486328125">
        <ele>679.20001220703125</ele>
        <time>2020-08-08T12:47:44.000Z</time>
      </trkpt>
      <trkpt lat="42.31490752659738063812255859375" lon="2.6639815606176853179931640625">
        <ele>679.5999755859375</ele>
        <time>2020-08-08T12:47:47.000Z</time>
      </trkpt>
      <trkpt lat="42.3148848116397857666015625" lon="2.66390838660299777984619140625">
        <ele>680.20001220703125</ele>
        <time>2020-08-08T12:47:51.000Z</time>
      </trkpt>
      <trkpt lat="42.3148722387850284576416015625" lon="2.6638746075332164764404296875">
        <ele>680.4000244140625</ele>
        <time>2020-08-08T12:47:53.000Z</time>
      </trkpt>
      <trkpt lat="42.314823456108570098876953125" lon="2.66380704939365386962890625">
        <ele>680.79998779296875</ele>
        <time>2020-08-08T12:48:00.000Z</time>
      </trkpt>
      <trkpt lat="42.3148226179182529449462890625" lon="2.66380461864173412322998046875">
        <ele>680.79998779296875</ele>
        <time>2020-08-08T12:48:21.000Z</time>
      </trkpt>
      <trkpt lat="42.314822785556316375732421875" lon="2.6638041995465755462646484375">
        <ele>681</ele>
        <time>2020-08-08T12:48:30.000Z</time>
      </trkpt>
      <trkpt lat="42.31482119299471378326416015625" lon="2.66379925422370433807373046875">
        <ele>681.20001220703125</ele>
        <time>2020-08-08T12:48:37.000Z</time>
      </trkpt>
      <trkpt lat="42.3148229531943798065185546875" lon="2.6637971587479114532470703125">
        <ele>681</ele>
        <time>2020-08-08T12:48:59.000Z</time>
      </trkpt>
      <trkpt lat="42.3148088715970516204833984375" lon="2.66374493949115276336669921875">
        <ele>681</ele>
        <time>2020-08-08T12:49:13.000Z</time>
      </trkpt>
      <trkpt lat="42.31480141170322895050048828125" lon="2.66371677629649639129638671875">
        <ele>681.20001220703125</ele>
        <time>2020-08-08T12:49:15.000Z</time>
      </trkpt>
      <trkpt lat="42.31478749774396419525146484375" lon="2.66367587260901927947998046875">
        <ele>681.4000244140625</ele>
        <time>2020-08-08T12:49:18.000Z</time>
      </trkpt>
      <trkpt lat="42.314760424196720123291015625" lon="2.6635567657649517059326171875">
        <ele>681.4000244140625</ele>
        <time>2020-08-08T12:49:24.000Z</time>
      </trkpt>
      <trkpt lat="42.314742319285869598388671875" lon="2.663329280912876129150390625">
        <ele>681.79998779296875</ele>
        <time>2020-08-08T12:49:33.000Z</time>
      </trkpt>
      <trkpt lat="42.31474106200039386749267578125" lon="2.6632452942430973052978515625">
        <ele>681.79998779296875</ele>
        <time>2020-08-08T12:49:36.000Z</time>
      </trkpt>
      <trkpt lat="42.31475271284580230712890625" lon="2.6631577871739864349365234375">
        <ele>682</ele>
        <time>2020-08-08T12:49:39.000Z</time>
      </trkpt>
      <trkpt lat="42.31477794237434864044189453125" lon="2.66295469366014003753662109375">
        <ele>681.5999755859375</ele>
        <time>2020-08-08T12:49:45.000Z</time>
      </trkpt>
      <trkpt lat="42.3148051835596561431884765625" lon="2.6627581380307674407958984375">
        <ele>681.20001220703125</ele>
        <time>2020-08-08T12:49:50.000Z</time>
      </trkpt>
      <trkpt lat="42.31483049690723419189453125" lon="2.662593685090541839599609375">
        <ele>681.20001220703125</ele>
        <time>2020-08-08T12:49:55.000Z</time>
      </trkpt>
      <trkpt lat="42.31487651355564594268798828125" lon="2.662436775863170623779296875">
        <ele>681.20001220703125</ele>
        <time>2020-08-08T12:50:00.000Z</time>
      </trkpt>
      <trkpt lat="42.31489218771457672119140625" lon="2.66226117499172687530517578125">
        <ele>681.5999755859375</ele>
        <time>2020-08-08T12:50:06.000Z</time>
      </trkpt>
      <trkpt lat="42.31490291655063629150390625" lon="2.662100493907928466796875">
        <ele>682</ele>
        <time>2020-08-08T12:50:12.000Z</time>
      </trkpt>
      <trkpt lat="42.31490132398903369903564453125" lon="2.6620750129222869873046875">
        <ele>682</ele>
        <time>2020-08-08T12:50:13.000Z</time>
      </trkpt>
      <trkpt lat="42.3148548044264316558837890625" lon="2.6619115658104419708251953125">
        <ele>682.4000244140625</ele>
        <time>2020-08-08T12:50:17.000Z</time>
      </trkpt>
      <trkpt lat="42.31482605449855327606201171875" lon="2.66187678091228008270263671875">
        <ele>682.4000244140625</ele>
        <time>2020-08-08T12:50:18.000Z</time>
      </trkpt>
      <trkpt lat="42.31474475003778934478759765625" lon="2.66179564408957958221435546875">
        <ele>682.4000244140625</ele>
        <time>2020-08-08T12:50:21.000Z</time>
      </trkpt>
      <trkpt lat="42.3145763576030731201171875" lon="2.66168802045285701751708984375">
        <ele>682.5999755859375</ele>
        <time>2020-08-08T12:50:28.000Z</time>
      </trkpt>
      <trkpt lat="42.31450418941676616668701171875" lon="2.6616389863193035125732421875">
        <ele>682.5999755859375</ele>
        <time>2020-08-08T12:50:32.000Z</time>
      </trkpt>
      <trkpt lat="42.3144610226154327392578125" lon="2.66159883700311183929443359375">
        <ele>682.5999755859375</ele>
        <time>2020-08-08T12:50:34.000Z</time>
      </trkpt>
      <trkpt lat="42.31434007175266742706298828125" lon="2.66146590001881122589111328125">
        <ele>682.79998779296875</ele>
        <time>2020-08-08T12:50:40.000Z</time>
      </trkpt>
      <trkpt lat="42.31428508646786212921142578125" lon="2.66140840016305446624755859375">
        <ele>682.79998779296875</ele>
        <time>2020-08-08T12:50:43.000Z</time>
      </trkpt>
      <trkpt lat="42.31420847587287425994873046875" lon="2.661342434585094451904296875">
        <ele>682.79998779296875</ele>
        <time>2020-08-08T12:50:47.000Z</time>
      </trkpt>
      <trkpt lat="42.3141611181199550628662109375" lon="2.66120337881147861480712890625">
        <ele>682.79998779296875</ele>
        <time>2020-08-08T12:50:52.000Z</time>
      </trkpt>
      <trkpt lat="42.31412432156503200531005859375" lon="2.6610271073877811431884765625">
        <ele>683.79998779296875</ele>
        <time>2020-08-08T12:50:58.000Z</time>
      </trkpt>
      <trkpt lat="42.31411191634833812713623046875" lon="2.66100590117275714874267578125">
        <ele>684</ele>
        <time>2020-08-08T12:50:59.000Z</time>
      </trkpt>
      <trkpt lat="42.31399272568523883819580078125" lon="2.66092543490231037139892578125">
        <ele>684</ele>
        <time>2020-08-08T12:51:05.000Z</time>
      </trkpt>
      <trkpt lat="42.31390052475035190582275390625" lon="2.6609556935727596282958984375">
        <ele>684</ele>
        <time>2020-08-08T12:51:09.000Z</time>
      </trkpt>
      <trkpt lat="42.3137668333947658538818359375" lon="2.66111872158944606781005859375">
        <ele>684.20001220703125</ele>
        <time>2020-08-08T12:51:16.000Z</time>
      </trkpt>
      <trkpt lat="42.313658706843852996826171875" lon="2.661154679954051971435546875">
        <ele>684.4000244140625</ele>
        <time>2020-08-08T12:51:21.000Z</time>
      </trkpt>
      <trkpt lat="42.313526608049869537353515625" lon="2.661119811236858367919921875">
        <ele>684.5999755859375</ele>
        <time>2020-08-08T12:51:27.000Z</time>
      </trkpt>
      <trkpt lat="42.313504479825496673583984375" lon="2.6611120998859405517578125">
        <ele>684.5999755859375</ele>
        <time>2020-08-08T12:51:28.000Z</time>
      </trkpt>
      <trkpt lat="42.3134245164692401885986328125" lon="2.6610505767166614532470703125">
        <ele>684.79998779296875</ele>
        <time>2020-08-08T12:51:33.000Z</time>
      </trkpt>
      <trkpt lat="42.3133329860866069793701171875" lon="2.66096818260848522186279296875">
        <ele>685</ele>
        <time>2020-08-08T12:51:39.000Z</time>
      </trkpt>
      <trkpt lat="42.3132312297821044921875" lon="2.660911269485950469970703125">
        <ele>685.79998779296875</ele>
        <time>2020-08-08T12:51:45.000Z</time>
      </trkpt>
      <trkpt lat="42.31306585483253002166748046875" lon="2.6609270274639129638671875">
        <ele>686.20001220703125</ele>
        <time>2020-08-08T12:51:52.000Z</time>
      </trkpt>
      <trkpt lat="42.31296191923320293426513671875" lon="2.6609377562999725341796875">
        <ele>686.79998779296875</ele>
        <time>2020-08-08T12:51:56.000Z</time>
      </trkpt>
      <trkpt lat="42.31290978379547595977783203125" lon="2.66093582846224308013916015625">
        <ele>686.79998779296875</ele>
        <time>2020-08-08T12:51:58.000Z</time>
      </trkpt>
      <trkpt lat="42.31267492286860942840576171875" lon="2.6609342359006404876708984375">
        <ele>686.5999755859375</ele>
        <time>2020-08-08T12:52:06.000Z</time>
      </trkpt>
      <trkpt lat="42.31246135197579860687255859375" lon="2.6609030552208423614501953125">
        <ele>686.4000244140625</ele>
        <time>2020-08-08T12:52:13.000Z</time>
      </trkpt>
      <trkpt lat="42.3122723400592803955078125" lon="2.66084027476608753204345703125">
        <ele>686.20001220703125</ele>
        <time>2020-08-08T12:52:20.000Z</time>
      </trkpt>
      <trkpt lat="42.31211610138416290283203125" lon="2.66078428365290164947509765625">
        <ele>686.4000244140625</ele>
        <time>2020-08-08T12:52:26.000Z</time>
      </trkpt>
      <trkpt lat="42.3119261674582958221435546875" lon="2.660759389400482177734375">
        <ele>686.5999755859375</ele>
        <time>2020-08-08T12:52:33.000Z</time>
      </trkpt>
      <trkpt lat="42.31172181665897369384765625" lon="2.6607702858746051788330078125">
        <ele>686.5999755859375</ele>
        <time>2020-08-08T12:52:40.000Z</time>
      </trkpt>
      <trkpt lat="42.31153314001858234405517578125" lon="2.66074120067059993743896484375">
        <ele>686.5999755859375</ele>
        <time>2020-08-08T12:52:47.000Z</time>
      </trkpt>
      <trkpt lat="42.3113719560205936431884765625" lon="2.660729549825191497802734375">
        <ele>686.79998779296875</ele>
        <time>2020-08-08T12:52:54.000Z</time>
      </trkpt>
      <trkpt lat="42.3113052360713481903076171875" lon="2.66072385013103485107421875">
        <ele>687.20001220703125</ele>
        <time>2020-08-08T12:52:57.000Z</time>
      </trkpt>
      <trkpt lat="42.31120071373879909515380859375" lon="2.66070649959146976470947265625">
        <ele>687.79998779296875</ele>
        <time>2020-08-08T12:53:02.000Z</time>
      </trkpt>
      <trkpt lat="42.31113952584564685821533203125" lon="2.660704739391803741455078125">
        <ele>688.4000244140625</ele>
        <time>2020-08-08T12:53:05.000Z</time>
      </trkpt>
      <trkpt lat="42.311058975756168365478515625" lon="2.66072074882686138153076171875">
        <ele>689</ele>
        <time>2020-08-08T12:53:09.000Z</time>
      </trkpt>
      <trkpt lat="42.31102318502962589263916015625" lon="2.6607310585677623748779296875">
        <ele>689.4000244140625</ele>
        <time>2020-08-08T12:53:11.000Z</time>
      </trkpt>
      <trkpt lat="42.31092545203864574432373046875" lon="2.66075930558145046234130859375">
        <ele>690.20001220703125</ele>
        <time>2020-08-08T12:53:16.000Z</time>
      </trkpt>
      <trkpt lat="42.3109042458236217498779296875" lon="2.6607645861804485321044921875">
        <ele>690.4000244140625</ele>
        <time>2020-08-08T12:53:17.000Z</time>
      </trkpt>
      <trkpt lat="42.3107657767832279205322265625" lon="2.660793922841548919677734375">
        <ele>691.4000244140625</ele>
        <time>2020-08-08T12:53:24.000Z</time>
      </trkpt>
      <trkpt lat="42.31074507348239421844482421875" lon="2.66079425811767578125">
        <ele>691.4000244140625</ele>
        <time>2020-08-08T12:53:25.000Z</time>
      </trkpt>
      <trkpt lat="42.31060207821428775787353515625" lon="2.66073734499514102935791015625">
        <ele>692</ele>
        <time>2020-08-08T12:53:32.000Z</time>
      </trkpt>
      <trkpt lat="42.310551367700099945068359375" lon="2.66068336553871631622314453125">
        <ele>692.4000244140625</ele>
        <time>2020-08-08T12:53:35.000Z</time>
      </trkpt>
      <trkpt lat="42.31050585396587848663330078125" lon="2.66060541383922100067138671875">
        <ele>693</ele>
        <time>2020-08-08T12:53:39.000Z</time>
      </trkpt>
      <trkpt lat="42.31048934161663055419921875" lon="2.66055621206760406494140625">
        <ele>693.4000244140625</ele>
        <time>2020-08-08T12:53:41.000Z</time>
      </trkpt>
      <trkpt lat="42.31047148816287517547607421875" lon="2.66044196672737598419189453125">
        <ele>693.79998779296875</ele>
        <time>2020-08-08T12:53:45.000Z</time>
      </trkpt>
      <trkpt lat="42.31046210043132305145263671875" lon="2.660232000052928924560546875">
        <ele>694.20001220703125</ele>
        <time>2020-08-08T12:53:53.000Z</time>
      </trkpt>
      <trkpt lat="42.31045908294618129730224609375" lon="2.660186402499675750732421875">
        <ele>694.5999755859375</ele>
        <time>2020-08-08T12:53:55.000Z</time>
      </trkpt>
      <trkpt lat="42.31046117842197418212890625" lon="2.66006897203624248504638671875">
        <ele>694.79998779296875</ele>
        <time>2020-08-08T12:54:00.000Z</time>
      </trkpt>
      <trkpt lat="42.31047215871512889862060546875" lon="2.65988624654710292816162109375">
        <ele>695.4000244140625</ele>
        <time>2020-08-08T12:54:07.000Z</time>
      </trkpt>
      <trkpt lat="42.31047316454350948333740234375" lon="2.659861184656620025634765625">
        <ele>695.5999755859375</ele>
        <time>2020-08-08T12:54:08.000Z</time>
      </trkpt>
      <trkpt lat="42.3104844801127910614013671875" lon="2.6597145013511180877685546875">
        <ele>696.4000244140625</ele>
        <time>2020-08-08T12:54:14.000Z</time>
      </trkpt>
      <trkpt lat="42.310485653579235076904296875" lon="2.65968994237482547760009765625">
        <ele>696.4000244140625</ele>
        <time>2020-08-08T12:54:15.000Z</time>
      </trkpt>
      <trkpt lat="42.31050484813749790191650390625" lon="2.65949212945997714996337890625">
        <ele>697.20001220703125</ele>
        <time>2020-08-08T12:54:23.000Z</time>
      </trkpt>
      <trkpt lat="42.3105082847177982330322265625" lon="2.65946698375046253204345703125">
        <ele>697.5999755859375</ele>
        <time>2020-08-08T12:54:24.000Z</time>
      </trkpt>
      <trkpt lat="42.31051758863031864166259765625" lon="2.65932097099721431732177734375">
        <ele>698.5999755859375</ele>
        <time>2020-08-08T12:54:30.000Z</time>
      </trkpt>
      <trkpt lat="42.3105186782777309417724609375" lon="2.659297250211238861083984375">
        <ele>698.79998779296875</ele>
        <time>2020-08-08T12:54:31.000Z</time>
      </trkpt>
      <trkpt lat="42.31052580289542675018310546875" lon="2.6591153629124164581298828125">
        <ele>699.20001220703125</ele>
        <time>2020-08-08T12:54:38.000Z</time>
      </trkpt>
      <trkpt lat="42.3105344362556934356689453125" lon="2.65903699211776256561279296875">
        <ele>699.5999755859375</ele>
        <time>2020-08-08T12:54:41.000Z</time>
      </trkpt>
      <trkpt lat="42.310575507581233978271484375" lon="2.65893749892711639404296875">
        <ele>700</ele>
        <time>2020-08-08T12:54:46.000Z</time>
      </trkpt>
      <trkpt lat="42.3106081970036029815673828125" lon="2.6588820107281208038330078125">
        <ele>700.79998779296875</ele>
        <time>2020-08-08T12:54:49.000Z</time>
      </trkpt>
      <trkpt lat="42.31068237684667110443115234375" lon="2.65881453640758991241455078125">
        <ele>701.20001220703125</ele>
        <time>2020-08-08T12:54:55.000Z</time>
      </trkpt>
      <trkpt lat="42.31073954142630100250244140625" lon="2.65874412842094898223876953125">
        <ele>702</ele>
        <time>2020-08-08T12:55:00.000Z</time>
      </trkpt>
      <trkpt lat="42.3107453249394893646240234375" lon="2.65872501768171787261962890625">
        <ele>702.4000244140625</ele>
        <time>2020-08-08T12:55:01.000Z</time>
      </trkpt>
      <trkpt lat="42.31076158583164215087890625" lon="2.65866433270275592803955078125">
        <ele>703</ele>
        <time>2020-08-08T12:55:05.000Z</time>
      </trkpt>
      <trkpt lat="42.31076619587838649749755859375" lon="2.65864974819123744964599609375">
        <ele>703.4000244140625</ele>
        <time>2020-08-08T12:55:06.000Z</time>
      </trkpt>
      <trkpt lat="42.31076896190643310546875" lon="2.65863650478422641754150390625">
        <ele>703.5999755859375</ele>
        <time>2020-08-08T12:55:07.000Z</time>
      </trkpt>
      <trkpt lat="42.310766614973545074462890625" lon="2.65860331244766712188720703125">
        <ele>704</ele>
        <time>2020-08-08T12:55:09.000Z</time>
      </trkpt>
      <trkpt lat="42.31074817478656768798828125" lon="2.6585430465638637542724609375">
        <ele>704.4000244140625</ele>
        <time>2020-08-08T12:55:12.000Z</time>
      </trkpt>
      <trkpt lat="42.31074390001595020294189453125" lon="2.65852418728172779083251953125">
        <ele>704.79998779296875</ele>
        <time>2020-08-08T12:55:13.000Z</time>
      </trkpt>
      <trkpt lat="42.3107168264687061309814453125" lon="2.65846651978790760040283203125">
        <ele>705.5999755859375</ele>
        <time>2020-08-08T12:55:16.000Z</time>
      </trkpt>
      <trkpt lat="42.3106993921101093292236328125" lon="2.65840734355151653289794921875">
        <ele>706.20001220703125</ele>
        <time>2020-08-08T12:55:19.000Z</time>
      </trkpt>
      <trkpt lat="42.3106806166470050811767578125" lon="2.65835638158023357391357421875">
        <ele>706.79998779296875</ele>
        <time>2020-08-08T12:55:22.000Z</time>
      </trkpt>
      <trkpt lat="42.3106588236987590789794921875" lon="2.65828195028007030487060546875">
        <ele>707.4000244140625</ele>
        <time>2020-08-08T12:55:26.000Z</time>
      </trkpt>
      <trkpt lat="42.310626804828643798828125" lon="2.6581708900630474090576171875">
        <ele>707.79998779296875</ele>
        <time>2020-08-08T12:55:31.000Z</time>
      </trkpt>
      <trkpt lat="42.31062403880059719085693359375" lon="2.65813023783266544342041015625">
        <ele>708.20001220703125</ele>
        <time>2020-08-08T12:55:33.000Z</time>
      </trkpt>
      <trkpt lat="42.31061833910644054412841796875" lon="2.6580329239368438720703125">
        <ele>708.79998779296875</ele>
        <time>2020-08-08T12:55:38.000Z</time>
      </trkpt>
      <trkpt lat="42.31061398051679134368896484375" lon="2.6579935289919376373291015625">
        <ele>709</ele>
        <time>2020-08-08T12:55:40.000Z</time>
      </trkpt>
      <trkpt lat="42.310603000223636627197265625" lon="2.657876349985599517822265625">
        <ele>709.79998779296875</ele>
        <time>2020-08-08T12:55:46.000Z</time>
      </trkpt>
      <trkpt lat="42.31060174293816089630126953125" lon="2.6578543893992900848388671875">
        <ele>710.20001220703125</ele>
        <time>2020-08-08T12:55:47.000Z</time>
      </trkpt>
      <trkpt lat="42.31059503741562366485595703125" lon="2.65775757841765880584716796875">
        <ele>710.79998779296875</ele>
        <time>2020-08-08T12:55:52.000Z</time>
      </trkpt>
      <trkpt lat="42.31059587560594081878662109375" lon="2.65772187151014804840087890625">
        <ele>711</ele>
        <time>2020-08-08T12:55:54.000Z</time>
      </trkpt>
      <trkpt lat="42.3105897568166255950927734375" lon="2.6575841568410396575927734375">
        <ele>711.79998779296875</ele>
        <time>2020-08-08T12:56:01.000Z</time>
      </trkpt>
      <trkpt lat="42.3105894215404987335205078125" lon="2.657561190426349639892578125">
        <ele>711.79998779296875</ele>
        <time>2020-08-08T12:56:02.000Z</time>
      </trkpt>
      <trkpt lat="42.3105852305889129638671875" lon="2.65742682851850986480712890625">
        <ele>712.79998779296875</ele>
        <time>2020-08-08T12:56:09.000Z</time>
      </trkpt>
      <trkpt lat="42.310586906969547271728515625" lon="2.65740637667477130889892578125">
        <ele>713</ele>
        <time>2020-08-08T12:56:10.000Z</time>
      </trkpt>
      <trkpt lat="42.310578860342502593994140625" lon="2.657282240688800811767578125">
        <ele>713.5999755859375</ele>
        <time>2020-08-08T12:56:16.000Z</time>
      </trkpt>
      <trkpt lat="42.31057710014283657073974609375" lon="2.6572418399155139923095703125">
        <ele>714</ele>
        <time>2020-08-08T12:56:18.000Z</time>
      </trkpt>
      <trkpt lat="42.31056737713515758514404296875" lon="2.65713639557361602783203125">
        <ele>714.4000244140625</ele>
        <time>2020-08-08T12:56:23.000Z</time>
      </trkpt>
      <trkpt lat="42.3105589114129543304443359375" lon="2.657062299549579620361328125">
        <ele>714.5999755859375</ele>
        <time>2020-08-08T12:56:27.000Z</time>
      </trkpt>
      <trkpt lat="42.31054969131946563720703125" lon="2.65702986158430576324462890625">
        <ele>715.4000244140625</ele>
        <time>2020-08-08T12:56:29.000Z</time>
      </trkpt>
      <trkpt lat="42.310512475669384002685546875" lon="2.6568784005939960479736328125">
        <ele>716.20001220703125</ele>
        <time>2020-08-08T12:56:36.000Z</time>
      </trkpt>
      <trkpt lat="42.31046427972614765167236328125" lon="2.65667664818465709686279296875">
        <ele>716</ele>
        <time>2020-08-08T12:56:44.000Z</time>
      </trkpt>
      <trkpt lat="42.31044986285269260406494140625" lon="2.6566086709499359130859375">
        <ele>716.5999755859375</ele>
        <time>2020-08-08T12:56:47.000Z</time>
      </trkpt>
      <trkpt lat="42.31043846346437931060791015625" lon="2.65652527101337909698486328125">
        <ele>717.20001220703125</ele>
        <time>2020-08-08T12:56:51.000Z</time>
      </trkpt>
      <trkpt lat="42.31041046790778636932373046875" lon="2.65638194046914577484130859375">
        <ele>717.5999755859375</ele>
        <time>2020-08-08T12:56:58.000Z</time>
      </trkpt>
      <trkpt lat="42.310389764606952667236328125" lon="2.6562440581619739532470703125">
        <ele>717.5999755859375</ele>
        <time>2020-08-08T12:57:04.000Z</time>
      </trkpt>
      <trkpt lat="42.31038666330277919769287109375" lon="2.6562212593853473663330078125">
        <ele>717.79998779296875</ele>
        <time>2020-08-08T12:57:05.000Z</time>
      </trkpt>
      <trkpt lat="42.31035699136555194854736328125" lon="2.6560663618147373199462890625">
        <ele>718.5999755859375</ele>
        <time>2020-08-08T12:57:12.000Z</time>
      </trkpt>
      <trkpt lat="42.310355566442012786865234375" lon="2.65599251724779605865478515625">
        <ele>718.79998779296875</ele>
        <time>2020-08-08T12:57:15.000Z</time>
      </trkpt>
      <trkpt lat="42.31034609489142894744873046875" lon="2.6558829657733440399169921875">
        <ele>719.20001220703125</ele>
        <time>2020-08-08T12:57:20.000Z</time>
      </trkpt>
      <trkpt lat="42.31034391559660434722900390625" lon="2.65586645342409610748291015625">
        <ele>719.79998779296875</ele>
        <time>2020-08-08T12:57:23.000Z</time>
      </trkpt>
      <trkpt lat="42.310343496501445770263671875" lon="2.6558641903102397918701171875">
        <ele>719.79998779296875</ele>
        <time>2020-08-08T12:57:24.000Z</time>
      </trkpt>
      <trkpt lat="42.31034022755920886993408203125" lon="2.655818425118923187255859375">
        <ele>719.79998779296875</ele>
        <time>2020-08-08T12:57:40.000Z</time>
      </trkpt>
      <trkpt lat="42.31035330332815647125244140625" lon="2.6556590013206005096435546875">
        <ele>720.79998779296875</ele>
        <time>2020-08-08T12:57:48.000Z</time>
      </trkpt>
      <trkpt lat="42.3103564046323299407958984375" lon="2.65564047731459140777587890625">
        <ele>721</ele>
        <time>2020-08-08T12:57:49.000Z</time>
      </trkpt>
      <trkpt lat="42.310382388532161712646484375" lon="2.6555349491536617279052734375">
        <ele>721.79998779296875</ele>
        <time>2020-08-08T12:57:55.000Z</time>
      </trkpt>
      <trkpt lat="42.31041021645069122314453125" lon="2.65539555810391902923583984375">
        <ele>722</ele>
        <time>2020-08-08T12:58:02.000Z</time>
      </trkpt>
      <trkpt lat="42.31041348539292812347412109375" lon="2.65537418425083160400390625">
        <ele>722.20001220703125</ele>
        <time>2020-08-08T12:58:03.000Z</time>
      </trkpt>
      <trkpt lat="42.31043293140828609466552734375" lon="2.655274607241153717041015625">
        <ele>723.20001220703125</ele>
        <time>2020-08-08T12:58:08.000Z</time>
      </trkpt>
      <trkpt lat="42.31043779291212558746337890625" lon="2.6552224718034267425537109375">
        <ele>723.4000244140625</ele>
        <time>2020-08-08T12:58:11.000Z</time>
      </trkpt>
      <trkpt lat="42.310463525354862213134765625" lon="2.65509766526520252227783203125">
        <ele>723.79998779296875</ele>
        <time>2020-08-08T12:58:19.000Z</time>
      </trkpt>
      <trkpt lat="42.310474924743175506591796875" lon="2.65506707131862640380859375">
        <ele>724.20001220703125</ele>
        <time>2020-08-08T12:58:21.000Z</time>
      </trkpt>
      <trkpt lat="42.3104940354824066162109375" lon="2.65499490313231945037841796875">
        <ele>725.20001220703125</ele>
        <time>2020-08-08T12:58:25.000Z</time>
      </trkpt>
      <trkpt lat="42.31049730442464351654052734375" lon="2.65497612766921520233154296875">
        <ele>725.20001220703125</ele>
        <time>2020-08-08T12:58:26.000Z</time>
      </trkpt>
      <trkpt lat="42.310519851744174957275390625" lon="2.654885016381740570068359375">
        <ele>726</ele>
        <time>2020-08-08T12:58:31.000Z</time>
      </trkpt>
      <trkpt lat="42.3105275630950927734375" lon="2.65485023148357868194580078125">
        <ele>726.4000244140625</ele>
        <time>2020-08-08T12:58:33.000Z</time>
      </trkpt>
      <trkpt lat="42.310551367700099945068359375" lon="2.65476456843316555023193359375">
        <ele>727</ele>
        <time>2020-08-08T12:58:39.000Z</time>
      </trkpt>
      <trkpt lat="42.31055430136620998382568359375" lon="2.65475098975002765655517578125">
        <ele>727.20001220703125</ele>
        <time>2020-08-08T12:58:40.000Z</time>
      </trkpt>
      <trkpt lat="42.31056955642998218536376953125" lon="2.6546729542315006256103515625">
        <ele>727.4000244140625</ele>
        <time>2020-08-08T12:58:44.000Z</time>
      </trkpt>
      <trkpt lat="42.31057458557188510894775390625" lon="2.65465677715837955474853515625">
        <ele>727.5999755859375</ele>
        <time>2020-08-08T12:58:45.000Z</time>
      </trkpt>
      <trkpt lat="42.31058112345635890960693359375" lon="2.6546219922602176666259765625">
        <ele>727.5999755859375</ele>
        <time>2020-08-08T12:58:47.000Z</time>
      </trkpt>
      <trkpt lat="42.3105964623391628265380859375" lon="2.6545485667884349822998046875">
        <ele>728.4000244140625</ele>
        <time>2020-08-08T12:58:51.000Z</time>
      </trkpt>
      <trkpt lat="42.3105994798243045806884765625" lon="2.65452585183084011077880859375">
        <ele>728.5999755859375</ele>
        <time>2020-08-08T12:58:52.000Z</time>
      </trkpt>
      <trkpt lat="42.310634516179561614990234375" lon="2.65437464229762554168701171875">
        <ele>728.5999755859375</ele>
        <time>2020-08-08T12:58:58.000Z</time>
      </trkpt>
      <trkpt lat="42.31068438850343227386474609375" lon="2.65422795899212360382080078125">
        <ele>729.20001220703125</ele>
        <time>2020-08-08T12:59:05.000Z</time>
      </trkpt>
      <trkpt lat="42.3107198439538478851318359375" lon="2.65415704809129238128662109375">
        <ele>729.5999755859375</ele>
        <time>2020-08-08T12:59:09.000Z</time>
      </trkpt>
      <trkpt lat="42.3107429780066013336181640625" lon="2.6541204191744327545166015625">
        <ele>729.79998779296875</ele>
        <time>2020-08-08T12:59:12.000Z</time>
      </trkpt>
      <trkpt lat="42.31079385615885257720947265625" lon="2.6540563814342021942138671875">
        <ele>730.4000244140625</ele>
        <time>2020-08-08T12:59:18.000Z</time>
      </trkpt>
      <trkpt lat="42.31081179343163967132568359375" lon="2.6540265418589115142822265625">
        <ele>730.79998779296875</ele>
        <time>2020-08-08T12:59:20.000Z</time>
      </trkpt>
      <trkpt lat="42.3108432255685329437255859375" lon="2.65400231815874576568603515625">
        <ele>731</ele>
        <time>2020-08-08T12:59:23.000Z</time>
      </trkpt>
      <trkpt lat="42.3109156452119350433349609375" lon="2.65391129069030284881591796875">
        <ele>731.5999755859375</ele>
        <time>2020-08-08T12:59:31.000Z</time>
      </trkpt>
      <trkpt lat="42.31096065603196620941162109375" lon="2.65385060571134090423583984375">
        <ele>732</ele>
        <time>2020-08-08T12:59:36.000Z</time>
      </trkpt>
      <trkpt lat="42.31097909621894359588623046875" lon="2.6538203470408916473388671875">
        <ele>732</ele>
        <time>2020-08-08T12:59:38.000Z</time>
      </trkpt>
      <trkpt lat="42.310996949672698974609375" lon="2.6537898369133472442626953125">
        <ele>732.20001220703125</ele>
        <time>2020-08-08T12:59:40.000Z</time>
      </trkpt>
      <trkpt lat="42.3110319860279560089111328125" lon="2.6537345163524150848388671875">
        <ele>733</ele>
        <time>2020-08-08T12:59:43.000Z</time>
      </trkpt>
      <trkpt lat="42.31104799546301364898681640625" lon="2.65370878390967845916748046875">
        <ele>733.5999755859375</ele>
        <time>2020-08-08T12:59:45.000Z</time>
      </trkpt>
      <trkpt lat="42.311075739562511444091796875" lon="2.653664611279964447021484375">
        <ele>733.79998779296875</ele>
        <time>2020-08-08T12:59:48.000Z</time>
      </trkpt>
      <trkpt lat="42.3111184872686862945556640625" lon="2.653600238263607025146484375">
        <ele>734</ele>
        <time>2020-08-08T12:59:52.000Z</time>
      </trkpt>
      <trkpt lat="42.31113097630441188812255859375" lon="2.653588838875293731689453125">
        <ele>734.20001220703125</ele>
        <time>2020-08-08T12:59:53.000Z</time>
      </trkpt>
      <trkpt lat="42.3111956007778644561767578125" lon="2.6535045169293880462646484375">
        <ele>734.4000244140625</ele>
        <time>2020-08-08T12:59:59.000Z</time>
      </trkpt>
      <trkpt lat="42.31125435791909694671630859375" lon="2.6534287445247173309326171875">
        <ele>735</ele>
        <time>2020-08-08T13:00:04.000Z</time>
      </trkpt>
      <trkpt lat="42.3112764023244380950927734375" lon="2.6533978991210460662841796875">
        <ele>735.20001220703125</ele>
        <time>2020-08-08T13:00:06.000Z</time>
      </trkpt>
      <trkpt lat="42.31135745532810688018798828125" lon="2.65333243645727634429931640625">
        <ele>735.79998779296875</ele>
        <time>2020-08-08T13:00:13.000Z</time>
      </trkpt>
      <trkpt lat="42.3114028014242649078369140625" lon="2.6533144153654575347900390625">
        <ele>736.20001220703125</ele>
        <time>2020-08-08T13:00:16.000Z</time>
      </trkpt>
      <trkpt lat="42.311458624899387359619140625" lon="2.6532932929694652557373046875">
        <ele>736.79998779296875</ele>
        <time>2020-08-08T13:00:20.000Z</time>
      </trkpt>
      <trkpt lat="42.3114849440753459930419921875" lon="2.65328952111303806304931640625">
        <ele>737.20001220703125</ele>
        <time>2020-08-08T13:00:22.000Z</time>
      </trkpt>
      <trkpt lat="42.3115137778222560882568359375" lon="2.6532822288572788238525390625">
        <ele>737.4000244140625</ele>
        <time>2020-08-08T13:00:24.000Z</time>
      </trkpt>
      <trkpt lat="42.3115553520619869232177734375" lon="2.65327661298215389251708984375">
        <ele>737.4000244140625</ele>
        <time>2020-08-08T13:00:27.000Z</time>
      </trkpt>
      <trkpt lat="42.31157789938151836395263671875" lon="2.65326873399317264556884765625">
        <ele>738</ele>
        <time>2020-08-08T13:00:29.000Z</time>
      </trkpt>
      <trkpt lat="42.31163338758051395416259765625" lon="2.65324023552238941192626953125">
        <ele>738.79998779296875</ele>
        <time>2020-08-08T13:00:34.000Z</time>
      </trkpt>
      <trkpt lat="42.31167261488735675811767578125" lon="2.65321156941354274749755859375">
        <ele>739.20001220703125</ele>
        <time>2020-08-08T13:00:38.000Z</time>
      </trkpt>
      <trkpt lat="42.3116840980947017669677734375" lon="2.653196565806865692138671875">
        <ele>739.4000244140625</ele>
        <time>2020-08-08T13:00:39.000Z</time>
      </trkpt>
      <trkpt lat="42.31174218468368053436279296875" lon="2.65304879285395145416259765625">
        <ele>739.5999755859375</ele>
        <time>2020-08-08T13:00:46.000Z</time>
      </trkpt>
      <trkpt lat="42.311763726174831390380859375" lon="2.65289288945496082305908203125">
        <ele>739.5999755859375</ele>
        <time>2020-08-08T13:00:53.000Z</time>
      </trkpt>
      <trkpt lat="42.31176716275513172149658203125" lon="2.65278006903827190399169921875">
        <ele>740</ele>
        <time>2020-08-08T13:00:58.000Z</time>
      </trkpt>
      <trkpt lat="42.31176414526998996734619140625" lon="2.65267060138285160064697265625">
        <ele>740</ele>
        <time>2020-08-08T13:01:03.000Z</time>
      </trkpt>
      <trkpt lat="42.3117189668118953704833984375" lon="2.6525228284299373626708984375">
        <ele>740.79998779296875</ele>
        <time>2020-08-08T13:01:10.000Z</time>
      </trkpt>
      <trkpt lat="42.31166523881256580352783203125" lon="2.6524068228900432586669921875">
        <ele>741.4000244140625</ele>
        <time>2020-08-08T13:01:16.000Z</time>
      </trkpt>
      <trkpt lat="42.3116361536085605621337890625" lon="2.65235460363328456878662109375">
        <ele>741.79998779296875</ele>
        <time>2020-08-08T13:01:19.000Z</time>
      </trkpt>
      <trkpt lat="42.31156633235514163970947265625" lon="2.65222820453345775604248046875">
        <ele>742.20001220703125</ele>
        <time>2020-08-08T13:01:27.000Z</time>
      </trkpt>
      <trkpt lat="42.31152727268636226654052734375" lon="2.65214321203529834747314453125">
        <ele>743.20001220703125</ele>
        <time>2020-08-08T13:01:32.000Z</time>
      </trkpt>
      <trkpt lat="42.311514951288700103759765625" lon="2.6521127857267856597900390625">
        <ele>743.79998779296875</ele>
        <time>2020-08-08T13:01:34.000Z</time>
      </trkpt>
      <trkpt lat="42.3114809207618236541748046875" lon="2.65205000527203083038330078125">
        <ele>744.4000244140625</ele>
        <time>2020-08-08T13:01:38.000Z</time>
      </trkpt>
      <trkpt lat="42.31145518831908702850341796875" lon="2.6519806869328022003173828125">
        <ele>744</ele>
        <time>2020-08-08T13:01:42.000Z</time>
      </trkpt>
      <trkpt lat="42.311452925205230712890625" lon="2.65189829282462596893310546875">
        <ele>743.4000244140625</ele>
        <time>2020-08-08T13:01:48.000Z</time>
      </trkpt>
      <trkpt lat="42.311486788094043731689453125" lon="2.65179368667304515838623046875">
        <ele>743.5999755859375</ele>
        <time>2020-08-08T13:01:54.000Z</time>
      </trkpt>
      <trkpt lat="42.3115000315010547637939453125" lon="2.651772312819957733154296875">
        <ele>743</ele>
        <time>2020-08-08T13:01:55.000Z</time>
      </trkpt>
      <trkpt lat="42.31155258603394031524658203125" lon="2.651682458817958831787109375">
        <ele>742.5999755859375</ele>
        <time>2020-08-08T13:02:00.000Z</time>
      </trkpt>
      <trkpt lat="42.31155308894813060760498046875" lon="2.65166862867772579193115234375">
        <ele>742.20001220703125</ele>
        <time>2020-08-08T13:02:06.000Z</time>
      </trkpt>
      <trkpt lat="42.3115593753755092620849609375" lon="2.65166058205068111419677734375">
        <ele>742.4000244140625</ele>
        <time>2020-08-08T13:02:16.000Z</time>
      </trkpt>
      <trkpt lat="42.31155862100422382354736328125" lon="2.65165932476520538330078125">
        <ele>742.4000244140625</ele>
        <time>2020-08-08T13:02:29.000Z</time>
      </trkpt>
      <trkpt lat="42.3115587048232555389404296875" lon="2.651656977832317352294921875">
        <ele>742.4000244140625</ele>
        <time>2020-08-08T13:02:49.000Z</time>
      </trkpt>
      <trkpt lat="42.3115588724613189697265625" lon="2.6516561396420001983642578125">
        <ele>742.20001220703125</ele>
        <time>2020-08-08T13:03:11.000Z</time>
      </trkpt>
      <trkpt lat="42.311569936573505401611328125" lon="2.651645578444004058837890625">
        <ele>742.20001220703125</ele>
        <time>2020-08-08T13:03:19.000Z</time>
      </trkpt>
      <trkpt lat="42.311592735350131988525390625" lon="2.6516195945441722869873046875">
        <ele>742.20001220703125</ele>
        <time>2020-08-08T13:03:21.000Z</time>
      </trkpt>
      <trkpt lat="42.3116559349000453948974609375" lon="2.65154667198657989501953125">
        <ele>741.5999755859375</ele>
        <time>2020-08-08T13:03:25.000Z</time>
      </trkpt>
      <trkpt lat="42.31166725046932697296142578125" lon="2.651527225971221923828125">
        <ele>741.4000244140625</ele>
        <time>2020-08-08T13:03:26.000Z</time>
      </trkpt>
      <trkpt lat="42.31167714111506938934326171875" lon="2.6515039242804050445556640625">
        <ele>741.20001220703125</ele>
        <time>2020-08-08T13:03:27.000Z</time>
      </trkpt>
      <trkpt lat="42.31175408698618412017822265625" lon="2.65141113661229610443115234375">
        <ele>741</ele>
        <time>2020-08-08T13:03:32.000Z</time>
      </trkpt>
      <trkpt lat="42.31178560294210910797119140625" lon="2.65136419795453548431396484375">
        <ele>740.20001220703125</ele>
        <time>2020-08-08T13:03:34.000Z</time>
      </trkpt>
      <trkpt lat="42.31182239949703216552734375" lon="2.6512799598276615142822265625">
        <ele>739</ele>
        <time>2020-08-08T13:03:37.000Z</time>
      </trkpt>
      <trkpt lat="42.31186288408935070037841796875" lon="2.6510834880173206329345703125">
        <ele>737.79998779296875</ele>
        <time>2020-08-08T13:03:44.000Z</time>
      </trkpt>
      <trkpt lat="42.31187176890671253204345703125" lon="2.65102607198059558868408203125">
        <ele>736.79998779296875</ele>
        <time>2020-08-08T13:03:46.000Z</time>
      </trkpt>
      <trkpt lat="42.31188182719051837921142578125" lon="2.65091408975422382354736328125">
        <ele>735.5999755859375</ele>
        <time>2020-08-08T13:03:49.000Z</time>
      </trkpt>
      <trkpt lat="42.31188517995178699493408203125" lon="2.6508695818483829498291015625">
        <ele>735.4000244140625</ele>
        <time>2020-08-08T13:03:50.000Z</time>
      </trkpt>
      <trkpt lat="42.31188870035111904144287109375" lon="2.65072667039930820465087890625">
        <ele>734.4000244140625</ele>
        <time>2020-08-08T13:03:53.000Z</time>
      </trkpt>
      <trkpt lat="42.3118959926068782806396484375" lon="2.650624997913837432861328125">
        <ele>734.20001220703125</ele>
        <time>2020-08-08T13:03:55.000Z</time>
      </trkpt>
      <trkpt lat="42.3119258321821689605712890625" lon="2.6503284461796283721923828125">
        <ele>733.4000244140625</ele>
        <time>2020-08-08T13:04:01.000Z</time>
      </trkpt>
      <trkpt lat="42.31198006309568881988525390625" lon="2.649970538914203643798828125">
        <ele>733.5999755859375</ele>
        <time>2020-08-08T13:04:09.000Z</time>
      </trkpt>
      <trkpt lat="42.31194435618817806243896484375" lon="2.6498386077582836151123046875">
        <ele>733.4000244140625</ele>
        <time>2020-08-08T13:04:13.000Z</time>
      </trkpt>
      <trkpt lat="42.31188400648534297943115234375" lon="2.6497916691005229949951171875">
        <ele>734.20001220703125</ele>
        <time>2020-08-08T13:04:17.000Z</time>
      </trkpt>
      <trkpt lat="42.3118678294122219085693359375" lon="2.64978001825511455535888671875">
        <ele>734.20001220703125</ele>
        <time>2020-08-08T13:04:18.000Z</time>
      </trkpt>
      <trkpt lat="42.311760373413562774658203125" lon="2.6496377773582935333251953125">
        <ele>734</ele>
        <time>2020-08-08T13:04:24.000Z</time>
      </trkpt>
      <trkpt lat="42.31167756021022796630859375" lon="2.649452872574329376220703125">
        <ele>734</ele>
        <time>2020-08-08T13:04:30.000Z</time>
      </trkpt>
      <trkpt lat="42.31159198097884654998779296875" lon="2.6492679677903652191162109375">
        <ele>735</ele>
        <time>2020-08-08T13:04:38.000Z</time>
      </trkpt>
      <trkpt lat="42.3115422762930393218994140625" lon="2.6492009125649929046630859375">
        <ele>735.20001220703125</ele>
        <time>2020-08-08T13:04:42.000Z</time>
      </trkpt>
      <trkpt lat="42.31150279752910137176513671875" lon="2.6491338573396205902099609375">
        <ele>736.20001220703125</ele>
        <time>2020-08-08T13:04:46.000Z</time>
      </trkpt>
      <trkpt lat="42.31148536317050457000732421875" lon="2.64909605495631694793701171875">
        <ele>736.5999755859375</ele>
        <time>2020-08-08T13:04:48.000Z</time>
      </trkpt>
      <trkpt lat="42.3114312998950481414794921875" lon="2.648944593966007232666015625">
        <ele>737.4000244140625</ele>
        <time>2020-08-08T13:04:55.000Z</time>
      </trkpt>
      <trkpt lat="42.31134622357785701751708984375" lon="2.6486792229115962982177734375">
        <ele>737.20001220703125</ele>
        <time>2020-08-08T13:05:03.000Z</time>
      </trkpt>
      <trkpt lat="42.31129375286400318145751953125" lon="2.648509405553340911865234375">
        <ele>736.20001220703125</ele>
        <time>2020-08-08T13:05:07.000Z</time>
      </trkpt>
      <trkpt lat="42.3112713731825351715087890625" lon="2.6484170369803905487060546875">
        <ele>735.79998779296875</ele>
        <time>2020-08-08T13:05:09.000Z</time>
      </trkpt>
      <trkpt lat="42.31121487915515899658203125" lon="2.64820388518273830413818359375">
        <ele>735.4000244140625</ele>
        <time>2020-08-08T13:05:14.000Z</time>
      </trkpt>
      <trkpt lat="42.3111443035304546356201171875" lon="2.648017220199108123779296875">
        <ele>735.20001220703125</ele>
        <time>2020-08-08T13:05:19.000Z</time>
      </trkpt>
      <trkpt lat="42.3111278750002384185791015625" lon="2.6479744724929332733154296875">
        <ele>735</ele>
        <time>2020-08-08T13:05:20.000Z</time>
      </trkpt>
      <trkpt lat="42.311072051525115966796875" lon="2.64771991409361362457275390625">
        <ele>734.20001220703125</ele>
        <time>2020-08-08T13:05:25.000Z</time>
      </trkpt>
      <trkpt lat="42.31106040067970752716064453125" lon="2.647498548030853271484375">
        <ele>734.20001220703125</ele>
        <time>2020-08-08T13:05:30.000Z</time>
      </trkpt>
      <trkpt lat="42.3110574670135974884033203125" lon="2.64748605899512767791748046875">
        <ele>733.5999755859375</ele>
        <time>2020-08-08T13:05:31.000Z</time>
      </trkpt>
      <trkpt lat="42.31105067767202854156494140625" lon="2.6474641822278499603271484375">
        <ele>733.20001220703125</ele>
        <time>2020-08-08T13:05:35.000Z</time>
      </trkpt>
      <trkpt lat="42.31104531325399875640869140625" lon="2.6474542915821075439453125">
        <ele>733.20001220703125</ele>
        <time>2020-08-08T13:05:36.000Z</time>
      </trkpt>
      <trkpt lat="42.3110143840312957763671875" lon="2.64739838428795337677001953125">
        <ele>733.4000244140625</ele>
        <time>2020-08-08T13:05:39.000Z</time>
      </trkpt>
      <trkpt lat="42.31096736155450344085693359375" lon="2.64729042537510395050048828125">
        <ele>734</ele>
        <time>2020-08-08T13:05:44.000Z</time>
      </trkpt>
      <trkpt lat="42.310958392918109893798828125" lon="2.64726988971233367919921875">
        <ele>734.20001220703125</ele>
        <time>2020-08-08T13:05:45.000Z</time>
      </trkpt>
      <trkpt lat="42.31092243455350399017333984375" lon="2.6471952907741069793701171875">
        <ele>734.5999755859375</ele>
        <time>2020-08-08T13:05:49.000Z</time>
      </trkpt>
      <trkpt lat="42.310902066528797149658203125" lon="2.6471270620822906494140625">
        <ele>734.79998779296875</ele>
        <time>2020-08-08T13:05:52.000Z</time>
      </trkpt>
      <trkpt lat="42.31088387779891490936279296875" lon="2.64693570323288440704345703125">
        <ele>735.4000244140625</ele>
        <time>2020-08-08T13:06:00.000Z</time>
      </trkpt>
      <trkpt lat="42.310873232781887054443359375" lon="2.64686462469398975372314453125">
        <ele>735.5999755859375</ele>
        <time>2020-08-08T13:06:03.000Z</time>
      </trkpt>
      <trkpt lat="42.31086124666035175323486328125" lon="2.64682196080684661865234375">
        <ele>735.79998779296875</ele>
        <time>2020-08-08T13:06:05.000Z</time>
      </trkpt>
      <trkpt lat="42.310844399034976959228515625" lon="2.64676571823656558990478515625">
        <ele>736.79998779296875</ele>
        <time>2020-08-08T13:06:08.000Z</time>
      </trkpt>
      <trkpt lat="42.31081665493547916412353515625" lon="2.646667398512363433837890625">
        <ele>737.79998779296875</ele>
        <time>2020-08-08T13:06:13.000Z</time>
      </trkpt>
      <trkpt lat="42.31080986559391021728515625" lon="2.6466481201350688934326171875">
        <ele>737.79998779296875</ele>
        <time>2020-08-08T13:06:14.000Z</time>
      </trkpt>
      <trkpt lat="42.3107728175818920135498046875" lon="2.64651887118816375732421875">
        <ele>738.4000244140625</ele>
        <time>2020-08-08T13:06:20.000Z</time>
      </trkpt>
      <trkpt lat="42.3107577301561832427978515625" lon="2.64631091617047786712646484375">
        <ele>738.79998779296875</ele>
        <time>2020-08-08T13:06:29.000Z</time>
      </trkpt>
      <trkpt lat="42.3107500188052654266357421875" lon="2.64626540243625640869140625">
        <ele>738.79998779296875</ele>
        <time>2020-08-08T13:06:31.000Z</time>
      </trkpt>
      <trkpt lat="42.31073585338890552520751953125" lon="2.64613539911806583404541015625">
        <ele>740</ele>
        <time>2020-08-08T13:06:37.000Z</time>
      </trkpt>
      <trkpt lat="42.31073250062763690948486328125" lon="2.64611360616981983184814453125">
        <ele>740</ele>
        <time>2020-08-08T13:06:38.000Z</time>
      </trkpt>
      <trkpt lat="42.310717999935150146484375" lon="2.6459829322993755340576171875">
        <ele>740.5999755859375</ele>
        <time>2020-08-08T13:06:44.000Z</time>
      </trkpt>
      <trkpt lat="42.31071867048740386962890625" lon="2.64589031226933002471923828125">
        <ele>741</ele>
        <time>2020-08-08T13:06:48.000Z</time>
      </trkpt>
      <trkpt lat="42.31071439571678638458251953125" lon="2.64582392759621143341064453125">
        <ele>741</ele>
        <time>2020-08-08T13:06:51.000Z</time>
      </trkpt>
      <trkpt lat="42.31072478927671909332275390625" lon="2.645669281482696533203125">
        <ele>741.5999755859375</ele>
        <time>2020-08-08T13:06:58.000Z</time>
      </trkpt>
      <trkpt lat="42.3107329197227954864501953125" lon="2.6456258632242679595947265625">
        <ele>742.20001220703125</ele>
        <time>2020-08-08T13:07:00.000Z</time>
      </trkpt>
      <trkpt lat="42.310730405151844024658203125" lon="2.64549988321959972381591796875">
        <ele>743.20001220703125</ele>
        <time>2020-08-08T13:07:06.000Z</time>
      </trkpt>
      <trkpt lat="42.31072671711444854736328125" lon="2.645480521023273468017578125">
        <ele>743.20001220703125</ele>
        <time>2020-08-08T13:07:07.000Z</time>
      </trkpt>
      <trkpt lat="42.31072939932346343994140625" lon="2.64533467590808868408203125">
        <ele>743.4000244140625</ele>
        <time>2020-08-08T13:07:13.000Z</time>
      </trkpt>
      <trkpt lat="42.310717664659023284912109375" lon="2.64515521936118602752685546875">
        <ele>744.20001220703125</ele>
        <time>2020-08-08T13:07:20.000Z</time>
      </trkpt>
      <trkpt lat="42.31071531772613525390625" lon="2.64512185938656330108642578125">
        <ele>744.4000244140625</ele>
        <time>2020-08-08T13:07:21.000Z</time>
      </trkpt>
      <trkpt lat="42.3106963746249675750732421875" lon="2.64495640061795711517333984375">
        <ele>744</ele>
        <time>2020-08-08T13:07:27.000Z</time>
      </trkpt>
      <trkpt lat="42.31067080982029438018798828125" lon="2.644776441156864166259765625">
        <ele>743.79998779296875</ele>
        <time>2020-08-08T13:07:35.000Z</time>
      </trkpt>
      <trkpt lat="42.3106279782950878143310546875" lon="2.64457955025136470794677734375">
        <ele>744.5999755859375</ele>
        <time>2020-08-08T13:07:43.000Z</time>
      </trkpt>
      <trkpt lat="42.31061582453548908233642578125" lon="2.64447226189076900482177734375">
        <ele>745.20001220703125</ele>
        <time>2020-08-08T13:07:47.000Z</time>
      </trkpt>
      <trkpt lat="42.31061683036386966705322265625" lon="2.64442138373851776123046875">
        <ele>745.79998779296875</ele>
        <time>2020-08-08T13:07:49.000Z</time>
      </trkpt>
      <trkpt lat="42.31067097745835781097412109375" lon="2.64425332657992839813232421875">
        <ele>746</ele>
        <time>2020-08-08T13:07:56.000Z</time>
      </trkpt>
      <trkpt lat="42.31068287976086139678955078125" lon="2.6442354731261730194091796875">
        <ele>746.4000244140625</ele>
        <time>2020-08-08T13:07:57.000Z</time>
      </trkpt>
      <trkpt lat="42.3107506893575191497802734375" lon="2.64412156306207180023193359375">
        <ele>746.4000244140625</ele>
        <time>2020-08-08T13:08:03.000Z</time>
      </trkpt>
      <trkpt lat="42.31075781397521495819091796875" lon="2.64403439126908779144287109375">
        <ele>746.20001220703125</ele>
        <time>2020-08-08T13:08:06.000Z</time>
      </trkpt>
      <trkpt lat="42.3107423074543476104736328125" lon="2.6439940743148326873779296875">
        <ele>746.4000244140625</ele>
        <time>2020-08-08T13:08:08.000Z</time>
      </trkpt>
      <trkpt lat="42.3107309080660343170166015625" lon="2.64393229968845844268798828125">
        <ele>746.5999755859375</ele>
        <time>2020-08-08T13:08:13.000Z</time>
      </trkpt>
      <trkpt lat="42.31073065660893917083740234375" lon="2.6439354009926319122314453125">
        <ele>746.20001220703125</ele>
        <time>2020-08-08T13:08:29.000Z</time>
      </trkpt>
      <trkpt lat="42.310730405151844024658203125" lon="2.643933556973934173583984375">
        <ele>746.4000244140625</ele>
        <time>2020-08-08T13:08:48.000Z</time>
      </trkpt>
      <trkpt lat="42.31073048897087574005126953125" lon="2.64393313787877559661865234375">
        <ele>746.5999755859375</ele>
        <time>2020-08-08T13:09:15.000Z</time>
      </trkpt>
      <trkpt lat="42.31072830967605113983154296875" lon="2.64393112622201442718505859375">
        <ele>746.5999755859375</ele>
        <time>2020-08-08T13:09:40.000Z</time>
      </trkpt>
      <trkpt lat="42.3107272200286388397216796875" lon="2.6439300365746021270751953125">
        <ele>746.5999755859375</ele>
        <time>2020-08-08T13:10:07.000Z</time>
      </trkpt>
      <trkpt lat="42.31072747148573398590087890625" lon="2.64392995275557041168212890625">
        <ele>747</ele>
        <time>2020-08-08T13:10:20.000Z</time>
      </trkpt>
      <trkpt lat="42.310733087360858917236328125" lon="2.643929533660411834716796875">
        <ele>746.5999755859375</ele>
        <time>2020-08-08T13:10:34.000Z</time>
      </trkpt>
      <trkpt lat="42.31073342263698577880859375" lon="2.64392676763236522674560546875">
        <ele>746.5999755859375</ele>
        <time>2020-08-08T13:10:50.000Z</time>
      </trkpt>
      <trkpt lat="42.3107335902750492095947265625" lon="2.64392542652785778045654296875">
        <ele>746.4000244140625</ele>
        <time>2020-08-08T13:11:13.000Z</time>
      </trkpt>
      <trkpt lat="42.31073400937020778656005859375" lon="2.64392651617527008056640625">
        <ele>746.5999755859375</ele>
        <time>2020-08-08T13:11:36.000Z</time>
      </trkpt>
      <trkpt lat="42.3107335902750492095947265625" lon="2.64392592944204807281494140625">
        <ele>746.79998779296875</ele>
        <time>2020-08-08T13:11:52.000Z</time>
      </trkpt>
      <trkpt lat="42.310733757913112640380859375" lon="2.643925510346889495849609375">
        <ele>746.79998779296875</ele>
        <time>2020-08-08T13:12:29.000Z</time>
      </trkpt>
      <trkpt lat="42.310732416808605194091796875" lon="2.64392274431884288787841796875">
        <ele>747</ele>
        <time>2020-08-08T13:12:53.000Z</time>
      </trkpt>
      <trkpt lat="42.310731746256351470947265625" lon="2.64392115175724029541015625">
        <ele>747</ele>
        <time>2020-08-08T13:12:54.000Z</time>
      </trkpt>
      <trkpt lat="42.3107292316854000091552734375" lon="2.64389189891517162322998046875">
        <ele>747.20001220703125</ele>
        <time>2020-08-08T13:12:58.000Z</time>
      </trkpt>
      <trkpt lat="42.3107285611331462860107421875" lon="2.64377363026142120361328125">
        <ele>746.5999755859375</ele>
        <time>2020-08-08T13:13:04.000Z</time>
      </trkpt>
      <trkpt lat="42.31070257723331451416015625" lon="2.6436348259449005126953125">
        <ele>745.20001220703125</ele>
        <time>2020-08-08T13:13:10.000Z</time>
      </trkpt>
      <trkpt lat="42.31067198328673839569091796875" lon="2.64360071159899234771728515625">
        <ele>745</ele>
        <time>2020-08-08T13:13:12.000Z</time>
      </trkpt>
      <trkpt lat="42.31061138212680816650390625" lon="2.64357380568981170654296875">
        <ele>744.4000244140625</ele>
        <time>2020-08-08T13:13:15.000Z</time>
      </trkpt>
      <trkpt lat="42.3105981387197971343994140625" lon="2.6435746438801288604736328125">
        <ele>744</ele>
        <time>2020-08-08T13:13:16.000Z</time>
      </trkpt>
      <trkpt lat="42.3105686344206333160400390625" lon="2.64357590116560459136962890625">
        <ele>743.4000244140625</ele>
        <time>2020-08-08T13:13:21.000Z</time>
      </trkpt>
      <trkpt lat="42.3105176724493503570556640625" lon="2.64361672103404998779296875">
        <ele>744</ele>
        <time>2020-08-08T13:13:30.000Z</time>
      </trkpt>
      <trkpt lat="42.3104512877762317657470703125" lon="2.64370531775057315826416015625">
        <ele>744</ele>
        <time>2020-08-08T13:13:37.000Z</time>
      </trkpt>
      <trkpt lat="42.31034877710044384002685546875" lon="2.64375225640833377838134765625">
        <ele>745</ele>
        <time>2020-08-08T13:13:44.000Z</time>
      </trkpt>
      <trkpt lat="42.31033000163733959197998046875" lon="2.6437577046453952789306640625">
        <ele>745</ele>
        <time>2020-08-08T13:13:45.000Z</time>
      </trkpt>
      <trkpt lat="42.3102269880473613739013671875" lon="2.6437637396156787872314453125">
        <ele>745.20001220703125</ele>
        <time>2020-08-08T13:13:51.000Z</time>
      </trkpt>
      <trkpt lat="42.3100898601114749908447265625" lon="2.6437446288764476776123046875">
        <ele>745.5999755859375</ele>
        <time>2020-08-08T13:13:59.000Z</time>
      </trkpt>
      <trkpt lat="42.30993454344570636749267578125" lon="2.64371822588145732879638671875">
        <ele>745.20001220703125</ele>
        <time>2020-08-08T13:14:08.000Z</time>
      </trkpt>
      <trkpt lat="42.30984753929078578948974609375" lon="2.64369341544806957244873046875">
        <ele>745.5999755859375</ele>
        <time>2020-08-08T13:14:14.000Z</time>
      </trkpt>
      <trkpt lat="42.309831194579601287841796875" lon="2.64369425363838672637939453125">
        <ele>745.4000244140625</ele>
        <time>2020-08-08T13:14:15.000Z</time>
      </trkpt>
      <trkpt lat="42.309720218181610107421875" lon="2.64371755532920360565185546875">
        <ele>745.5999755859375</ele>
        <time>2020-08-08T13:14:22.000Z</time>
      </trkpt>
      <trkpt lat="42.3095866106450557708740234375" lon="2.6437295414507389068603515625">
        <ele>745.20001220703125</ele>
        <time>2020-08-08T13:14:28.000Z</time>
      </trkpt>
      <trkpt lat="42.30945141054689884185791015625" lon="2.64372141100466251373291015625">
        <ele>745.20001220703125</ele>
        <time>2020-08-08T13:14:35.000Z</time>
      </trkpt>
      <trkpt lat="42.30943632312119007110595703125" lon="2.64371872879564762115478515625">
        <ele>745.20001220703125</ele>
        <time>2020-08-08T13:14:36.000Z</time>
      </trkpt>
      <trkpt lat="42.3093760572373867034912109375" lon="2.64372937381267547607421875">
        <ele>745.79998779296875</ele>
        <time>2020-08-08T13:14:40.000Z</time>
      </trkpt>
      <trkpt lat="42.30927790515124797821044921875" lon="2.64376248233020305633544921875">
        <ele>746.20001220703125</ele>
        <time>2020-08-08T13:14:47.000Z</time>
      </trkpt>
      <trkpt lat="42.3091976903378963470458984375" lon="2.643811516463756561279296875">
        <ele>746.79998779296875</ele>
        <time>2020-08-08T13:14:52.000Z</time>
      </trkpt>
      <trkpt lat="42.3091098479926586151123046875" lon="2.64378444291651248931884765625">
        <ele>747.79998779296875</ele>
        <time>2020-08-08T13:14:57.000Z</time>
      </trkpt>
      <trkpt lat="42.30910121463239192962646484375" lon="2.6437657512724399566650390625">
        <ele>748</ele>
        <time>2020-08-08T13:14:58.000Z</time>
      </trkpt>
      <trkpt lat="42.309126444160938262939453125" lon="2.643666006624698638916015625">
        <ele>749.20001220703125</ele>
        <time>2020-08-08T13:15:03.000Z</time>
      </trkpt>
      <trkpt lat="42.30917103588581085205078125" lon="2.64364094473421573638916015625">
        <ele>750.4000244140625</ele>
        <time>2020-08-08T13:15:06.000Z</time>
      </trkpt>
      <trkpt lat="42.30920322239398956298828125" lon="2.64362703077495098114013671875">
        <ele>750.5999755859375</ele>
        <time>2020-08-08T13:15:08.000Z</time>
      </trkpt>
      <trkpt lat="42.30922593735158443450927734375" lon="2.6436044834554195404052734375">
        <ele>750.5999755859375</ele>
        <time>2020-08-08T13:15:10.000Z</time>
      </trkpt>
      <trkpt lat="42.30929433368146419525146484375" lon="2.64354874379932880401611328125">
        <ele>751.4000244140625</ele>
        <time>2020-08-08T13:15:16.000Z</time>
      </trkpt>
      <trkpt lat="42.30938695371150970458984375" lon="2.64350934885442256927490234375">
        <ele>751.79998779296875</ele>
        <time>2020-08-08T13:15:23.000Z</time>
      </trkpt>
      <trkpt lat="42.30944956652820110321044921875" lon="2.6434819400310516357421875">
        <ele>752.4000244140625</ele>
        <time>2020-08-08T13:15:28.000Z</time>
      </trkpt>
      <trkpt lat="42.3094615526497364044189453125" lon="2.6434792578220367431640625">
        <ele>752.5999755859375</ele>
        <time>2020-08-08T13:15:29.000Z</time>
      </trkpt>
      <trkpt lat="42.309484519064426422119140625" lon="2.643468864262104034423828125">
        <ele>753.4000244140625</ele>
        <time>2020-08-08T13:15:31.000Z</time>
      </trkpt>
      <trkpt lat="42.3095447011291980743408203125" lon="2.64344179071485996246337890625">
        <ele>753.5999755859375</ele>
        <time>2020-08-08T13:15:36.000Z</time>
      </trkpt>
      <trkpt lat="42.30957495979964733123779296875" lon="2.6434309780597686767578125">
        <ele>753.5999755859375</ele>
        <time>2020-08-08T13:15:39.000Z</time>
      </trkpt>
      <trkpt lat="42.30959541164338588714599609375" lon="2.6434251107275485992431640625">
        <ele>754</ele>
        <time>2020-08-08T13:15:41.000Z</time>
      </trkpt>
      <trkpt lat="42.3096048831939697265625" lon="2.64341823756694793701171875">
        <ele>754.20001220703125</ele>
        <time>2020-08-08T13:15:42.000Z</time>
      </trkpt>
      <trkpt lat="42.3096828348934650421142578125" lon="2.64336735941469669342041015625">
        <ele>754.79998779296875</ele>
        <time>2020-08-08T13:15:48.000Z</time>
      </trkpt>
      <trkpt lat="42.30971326120197772979736328125" lon="2.6433422975242137908935546875">
        <ele>755.4000244140625</ele>
        <time>2020-08-08T13:15:51.000Z</time>
      </trkpt>
      <trkpt lat="42.309766821563243865966796875" lon="2.6433104462921619415283203125">
        <ele>756.4000244140625</ele>
        <time>2020-08-08T13:15:55.000Z</time>
      </trkpt>
      <trkpt lat="42.3098290152847766876220703125" lon="2.64327683486044406890869140625">
        <ele>757.20001220703125</ele>
        <time>2020-08-08T13:16:00.000Z</time>
      </trkpt>
      <trkpt lat="42.3098447732627391815185546875" lon="2.64327331446111202239990234375">
        <ele>757</ele>
        <time>2020-08-08T13:16:01.000Z</time>
      </trkpt>
      <trkpt lat="42.3099044524133205413818359375" lon="2.64325730502605438232421875">
        <ele>757.79998779296875</ele>
        <time>2020-08-08T13:16:05.000Z</time>
      </trkpt>
      <trkpt lat="42.30995818041265010833740234375" lon="2.643237523734569549560546875">
        <ele>759</ele>
        <time>2020-08-08T13:16:09.000Z</time>
      </trkpt>
      <trkpt lat="42.31008525006473064422607421875" lon="2.64320642687380313873291015625">
        <ele>759.20001220703125</ele>
        <time>2020-08-08T13:16:17.000Z</time>
      </trkpt>
      <trkpt lat="42.31009815819561481475830078125" lon="2.64320433139801025390625">
        <ele>759.20001220703125</ele>
        <time>2020-08-08T13:16:18.000Z</time>
      </trkpt>
      <trkpt lat="42.3101354576647281646728515625" lon="2.64317826367914676666259765625">
        <ele>759.5999755859375</ele>
        <time>2020-08-08T13:16:21.000Z</time>
      </trkpt>
      <trkpt lat="42.31014878489077091217041015625" lon="2.64316384680569171905517578125">
        <ele>760</ele>
        <time>2020-08-08T13:16:22.000Z</time>
      </trkpt>
      <trkpt lat="42.31020226143300533294677734375" lon="2.64310634694993495941162109375">
        <ele>761</ele>
        <time>2020-08-08T13:16:27.000Z</time>
      </trkpt>
      <trkpt lat="42.31021449901163578033447265625" lon="2.64309008605778217315673828125">
        <ele>761</ele>
        <time>2020-08-08T13:16:28.000Z</time>
      </trkpt>
      <trkpt lat="42.31025204993784427642822265625" lon="2.643003500998020172119140625">
        <ele>762</ele>
        <time>2020-08-08T13:16:33.000Z</time>
      </trkpt>
      <trkpt lat="42.31026269495487213134765625" lon="2.64298799447715282440185546875">
        <ele>762.4000244140625</ele>
        <time>2020-08-08T13:16:34.000Z</time>
      </trkpt>
      <trkpt lat="42.31028675101697444915771484375" lon="2.6429567299783229827880859375">
        <ele>763</ele>
        <time>2020-08-08T13:16:36.000Z</time>
      </trkpt>
      <trkpt lat="42.31030787341296672821044921875" lon="2.64292471110820770263671875">
        <ele>763.79998779296875</ele>
        <time>2020-08-08T13:16:40.000Z</time>
      </trkpt>
      <trkpt lat="42.31031038798391819000244140625" lon="2.642915658652782440185546875">
        <ele>764.20001220703125</ele>
        <time>2020-08-08T13:16:46.000Z</time>
      </trkpt>
      <trkpt lat="42.31031340546905994415283203125" lon="2.64291574247181415557861328125">
        <ele>764.20001220703125</ele>
        <time>2020-08-08T13:16:49.000Z</time>
      </trkpt>
      <trkpt lat="42.31032899580895900726318359375" lon="2.64287550933659076690673828125">
        <ele>764.20001220703125</ele>
        <time>2020-08-08T13:16:53.000Z</time>
      </trkpt>
      <trkpt lat="42.31033913791179656982421875" lon="2.64286729507148265838623046875">
        <ele>764.4000244140625</ele>
        <time>2020-08-08T13:16:55.000Z</time>
      </trkpt>
      <trkpt lat="42.31038029305636882781982421875" lon="2.64280744828283786773681640625">
        <ele>764.5999755859375</ele>
        <time>2020-08-08T13:17:04.000Z</time>
      </trkpt>
      <trkpt lat="42.31040007434785366058349609375" lon="2.642789594829082489013671875">
        <ele>765</ele>
        <time>2020-08-08T13:17:08.000Z</time>
      </trkpt>
      <trkpt lat="42.31041398830711841583251953125" lon="2.64276822097599506378173828125">
        <ele>765.20001220703125</ele>
        <time>2020-08-08T13:17:11.000Z</time>
      </trkpt>
      <trkpt lat="42.310454137623310089111328125" lon="2.6427113078534603118896484375">
        <ele>766.20001220703125</ele>
        <time>2020-08-08T13:17:18.000Z</time>
      </trkpt>
      <trkpt lat="42.310460172593593597412109375" lon="2.642708122730255126953125">
        <ele>766.4000244140625</ele>
        <time>2020-08-08T13:17:19.000Z</time>
      </trkpt>
      <trkpt lat="42.31050769798457622528076171875" lon="2.64263897202908992767333984375">
        <ele>766.79998779296875</ele>
        <time>2020-08-08T13:17:27.000Z</time>
      </trkpt>
      <trkpt lat="42.3105203546583652496337890625" lon="2.642607875168323516845703125">
        <ele>767.20001220703125</ele>
        <time>2020-08-08T13:17:30.000Z</time>
      </trkpt>
      <trkpt lat="42.310541309416294097900390625" lon="2.64256102032959461212158203125">
        <ele>767.79998779296875</ele>
        <time>2020-08-08T13:17:35.000Z</time>
      </trkpt>
      <trkpt lat="42.31055907905101776123046875" lon="2.6425255648791790008544921875">
        <ele>768.20001220703125</ele>
        <time>2020-08-08T13:17:39.000Z</time>
      </trkpt>
      <trkpt lat="42.3105743341147899627685546875" lon="2.642461359500885009765625">
        <ele>769</ele>
        <time>2020-08-08T13:17:45.000Z</time>
      </trkpt>
      <trkpt lat="42.310580201447010040283203125" lon="2.642439566552639007568359375">
        <ele>769.4000244140625</ele>
        <time>2020-08-08T13:17:47.000Z</time>
      </trkpt>
      <trkpt lat="42.3106147348880767822265625" lon="2.642394639551639556884765625">
        <ele>770.4000244140625</ele>
        <time>2020-08-08T13:17:53.000Z</time>
      </trkpt>
      <trkpt lat="42.31064566411077976226806640625" lon="2.642334960401058197021484375">
        <ele>771.20001220703125</ele>
        <time>2020-08-08T13:18:00.000Z</time>
      </trkpt>
      <trkpt lat="42.31064851395785808563232421875" lon="2.64231878332793712615966796875">
        <ele>771.5999755859375</ele>
        <time>2020-08-08T13:18:02.000Z</time>
      </trkpt>
      <trkpt lat="42.31064465828239917755126953125" lon="2.64230369590222835540771484375">
        <ele>772</ele>
        <time>2020-08-08T13:18:11.000Z</time>
      </trkpt>
      <trkpt lat="42.31063879095017910003662109375" lon="2.64227989129722118377685546875">
        <ele>771.79998779296875</ele>
        <time>2020-08-08T13:18:23.000Z</time>
      </trkpt>
      <trkpt lat="42.31059319339692592620849609375" lon="2.64227695763111114501953125">
        <ele>772.20001220703125</ele>
        <time>2020-08-08T13:18:29.000Z</time>
      </trkpt>
      <trkpt lat="42.31057374738156795501708984375" lon="2.642294727265834808349609375">
        <ele>772.5999755859375</ele>
        <time>2020-08-08T13:18:33.000Z</time>
      </trkpt>
      <trkpt lat="42.31054742820560932159423828125" lon="2.64233169145882129669189453125">
        <ele>773.20001220703125</ele>
        <time>2020-08-08T13:18:38.000Z</time>
      </trkpt>
      <trkpt lat="42.310536615550518035888671875" lon="2.64236538670957088470458984375">
        <ele>773.79998779296875</ele>
        <time>2020-08-08T13:18:42.000Z</time>
      </trkpt>
      <trkpt lat="42.31052781455218791961669921875" lon="2.6423958130180835723876953125">
        <ele>774.5999755859375</ele>
        <time>2020-08-08T13:18:46.000Z</time>
      </trkpt>
      <trkpt lat="42.31051214039325714111328125" lon="2.64243654906749725341796875">
        <ele>774.20001220703125</ele>
        <time>2020-08-08T13:18:50.000Z</time>
      </trkpt>
      <trkpt lat="42.3104915209114551544189453125" lon="2.64245331287384033203125">
        <ele>774</ele>
        <time>2020-08-08T13:18:52.000Z</time>
      </trkpt>
      <trkpt lat="42.310421951115131378173828125" lon="2.64248885214328765869140625">
        <ele>774.79998779296875</ele>
        <time>2020-08-08T13:18:59.000Z</time>
      </trkpt>
      <trkpt lat="42.31041415594518184661865234375" lon="2.6424948871135711669921875">
        <ele>774.79998779296875</ele>
        <time>2020-08-08T13:19:00.000Z</time>
      </trkpt>
      <trkpt lat="42.31035531498491764068603515625" lon="2.642539478838443756103515625">
        <ele>775.20001220703125</ele>
        <time>2020-08-08T13:19:07.000Z</time>
      </trkpt>
      <trkpt lat="42.31032572686672210693359375" lon="2.64256504364311695098876953125">
        <ele>776.20001220703125</ele>
        <time>2020-08-08T13:19:11.000Z</time>
      </trkpt>
      <trkpt lat="42.31029756367206573486328125" lon="2.64260091818869113922119140625">
        <ele>776.79998779296875</ele>
        <time>2020-08-08T13:19:15.000Z</time>
      </trkpt>
      <trkpt lat="42.31026445515453815460205078125" lon="2.64263796620070934295654296875">
        <ele>777.20001220703125</ele>
        <time>2020-08-08T13:19:20.000Z</time>
      </trkpt>
      <trkpt lat="42.31024802662432193756103515625" lon="2.64264643192291259765625">
        <ele>777.20001220703125</ele>
        <time>2020-08-08T13:19:22.000Z</time>
      </trkpt>
      <trkpt lat="42.3101934604346752166748046875" lon="2.642666883766651153564453125">
        <ele>778.4000244140625</ele>
        <time>2020-08-08T13:19:29.000Z</time>
      </trkpt>
      <trkpt lat="42.31017661280930042266845703125" lon="2.64267099089920520782470703125">
        <ele>779</ele>
        <time>2020-08-08T13:19:31.000Z</time>
      </trkpt>
      <trkpt lat="42.31014174409210681915283203125" lon="2.64267736114561557769775390625">
        <ele>779</ele>
        <time>2020-08-08T13:19:35.000Z</time>
      </trkpt>
      <trkpt lat="42.310110814869403839111328125" lon="2.64267870225012302398681640625">
        <ele>779.20001220703125</ele>
        <time>2020-08-08T13:19:39.000Z</time>
      </trkpt>
      <trkpt lat="42.31009732000529766082763671875" lon="2.64267903752624988555908203125">
        <ele>779.4000244140625</ele>
        <time>2020-08-08T13:19:41.000Z</time>
      </trkpt>
      <trkpt lat="42.31003210879862308502197265625" lon="2.64268507249653339385986328125">
        <ele>780.20001220703125</ele>
        <time>2020-08-08T13:19:50.000Z</time>
      </trkpt>
      <trkpt lat="42.31002263724803924560546875" lon="2.642686329782009124755859375">
        <ele>780.4000244140625</ele>
        <time>2020-08-08T13:19:51.000Z</time>
      </trkpt>
      <trkpt lat="42.30996253900229930877685546875" lon="2.6426982320845127105712890625">
        <ele>780.79998779296875</ele>
        <time>2020-08-08T13:19:58.000Z</time>
      </trkpt>
      <trkpt lat="42.309917695820331573486328125" lon="2.64270585961639881134033203125">
        <ele>781.20001220703125</ele>
        <time>2020-08-08T13:20:03.000Z</time>
      </trkpt>
      <trkpt lat="42.30988827534019947052001953125" lon="2.64269915409386157989501953125">
        <ele>782</ele>
        <time>2020-08-08T13:20:07.000Z</time>
      </trkpt>
      <trkpt lat="42.30984385125339031219482421875" lon="2.6426908560097217559814453125">
        <ele>782.20001220703125</ele>
        <time>2020-08-08T13:20:13.000Z</time>
      </trkpt>
      <trkpt lat="42.309835217893123626708984375" lon="2.64269010163843631744384765625">
        <ele>782.4000244140625</ele>
        <time>2020-08-08T13:20:14.000Z</time>
      </trkpt>
      <trkpt lat="42.309763468801975250244140625" lon="2.64266990125179290771484375">
        <ele>783.4000244140625</ele>
        <time>2020-08-08T13:20:22.000Z</time>
      </trkpt>
      <trkpt lat="42.3096804879605770111083984375" lon="2.64266059733927249908447265625">
        <ele>784.20001220703125</ele>
        <time>2020-08-08T13:20:30.000Z</time>
      </trkpt>
      <trkpt lat="42.30965291149914264678955078125" lon="2.64265917241573333740234375">
        <ele>784.5999755859375</ele>
        <time>2020-08-08T13:20:33.000Z</time>
      </trkpt>
      <trkpt lat="42.3096097446978092193603515625" lon="2.642664872109889984130859375">
        <ele>784.79998779296875</ele>
        <time>2020-08-08T13:20:38.000Z</time>
      </trkpt>
      <trkpt lat="42.30956423096358776092529296875" lon="2.64266244135797023773193359375">
        <ele>785.4000244140625</ele>
        <time>2020-08-08T13:20:43.000Z</time>
      </trkpt>
      <trkpt lat="42.30955165810883045196533203125" lon="2.64266042970120906829833984375">
        <ele>785.20001220703125</ele>
        <time>2020-08-08T13:20:45.000Z</time>
      </trkpt>
      <trkpt lat="42.309480495750904083251953125" lon="2.642682306468486785888671875">
        <ele>786.20001220703125</ele>
        <time>2020-08-08T13:20:54.000Z</time>
      </trkpt>
      <trkpt lat="42.30946163646876811981201171875" lon="2.6426858268678188323974609375">
        <ele>786.20001220703125</ele>
        <time>2020-08-08T13:20:58.000Z</time>
      </trkpt>
      <trkpt lat="42.30945845134556293487548828125" lon="2.6426801271736621856689453125">
        <ele>786.20001220703125</ele>
        <time>2020-08-08T13:21:02.000Z</time>
      </trkpt>
      <trkpt lat="42.3094568587839603424072265625" lon="2.64267861843109130859375">
        <ele>786.4000244140625</ele>
        <time>2020-08-08T13:21:03.000Z</time>
      </trkpt>
      <trkpt lat="42.30945526622235774993896484375" lon="2.642678953707218170166015625">
        <ele>786.4000244140625</ele>
        <time>2020-08-08T13:21:15.000Z</time>
      </trkpt>
      <trkpt lat="42.309454344213008880615234375" lon="2.64267794787883758544921875">
        <ele>786.4000244140625</ele>
        <time>2020-08-08T13:21:52.000Z</time>
      </trkpt>
      <trkpt lat="42.30943858623504638671875" lon="2.64267652295529842376708984375">
        <ele>786.20001220703125</ele>
        <time>2020-08-08T13:21:55.000Z</time>
      </trkpt>
      <trkpt lat="42.30939843691885471343994140625" lon="2.64266026206314563751220703125">
        <ele>786.4000244140625</ele>
        <time>2020-08-08T13:21:58.000Z</time>
      </trkpt>
      <trkpt lat="42.30929902754724025726318359375" lon="2.6426087133586406707763671875">
        <ele>786.79998779296875</ele>
        <time>2020-08-08T13:22:04.000Z</time>
      </trkpt>
      <trkpt lat="42.30925552546977996826171875" lon="2.642584405839443206787109375">
        <ele>787.20001220703125</ele>
        <time>2020-08-08T13:22:07.000Z</time>
      </trkpt>
      <trkpt lat="42.3091494105756282806396484375" lon="2.64252095483243465423583984375">
        <ele>787.5999755859375</ele>
        <time>2020-08-08T13:22:13.000Z</time>
      </trkpt>
      <trkpt lat="42.30901085771620273590087890625" lon="2.64244803227484226226806640625">
        <ele>786.79998779296875</ele>
        <time>2020-08-08T13:22:18.000Z</time>
      </trkpt>
      <trkpt lat="42.3088379390537738800048828125" lon="2.64237510971724987030029296875">
        <ele>787.20001220703125</ele>
        <time>2020-08-08T13:22:23.000Z</time>
      </trkpt>
      <trkpt lat="42.30872738175094127655029296875" lon="2.64233864843845367431640625">
        <ele>786.4000244140625</ele>
        <time>2020-08-08T13:22:27.000Z</time>
      </trkpt>
      <trkpt lat="42.308585308492183685302734375" lon="2.6423532329499721527099609375">
        <ele>786.20001220703125</ele>
        <time>2020-08-08T13:22:34.000Z</time>
      </trkpt>
      <trkpt lat="42.30844927020370960235595703125" lon="2.6423599384725093841552734375">
        <ele>787.20001220703125</ele>
        <time>2020-08-08T13:22:41.000Z</time>
      </trkpt>
      <trkpt lat="42.30839596129953861236572265625" lon="2.64234644360840320587158203125">
        <ele>787.79998779296875</ele>
        <time>2020-08-08T13:22:44.000Z</time>
      </trkpt>
      <trkpt lat="42.30838020332157611846923828125" lon="2.64233957044780254364013671875">
        <ele>788</ele>
        <time>2020-08-08T13:22:45.000Z</time>
      </trkpt>
      <trkpt lat="42.30836444534361362457275390625" lon="2.64233018271625041961669921875">
        <ele>788</ele>
        <time>2020-08-08T13:22:46.000Z</time>
      </trkpt>
      <trkpt lat="42.3082693107426166534423828125" lon="2.642315514385700225830078125">
        <ele>789</ele>
        <time>2020-08-08T13:22:51.000Z</time>
      </trkpt>
      <trkpt lat="42.3081224597990512847900390625" lon="2.6423461921513080596923828125">
        <ele>789.5999755859375</ele>
        <time>2020-08-08T13:22:59.000Z</time>
      </trkpt>
      <trkpt lat="42.30800938792526721954345703125" lon="2.64234795235097408294677734375">
        <ele>790</ele>
        <time>2020-08-08T13:23:05.000Z</time>
      </trkpt>
      <trkpt lat="42.30792037211358547210693359375" lon="2.642278969287872314453125">
        <ele>790</ele>
        <time>2020-08-08T13:23:10.000Z</time>
      </trkpt>
      <trkpt lat="42.307801432907581329345703125" lon="2.64218618161976337432861328125">
        <ele>789.5999755859375</ele>
        <time>2020-08-08T13:23:15.000Z</time>
      </trkpt>
      <trkpt lat="42.307722307741641998291015625" lon="2.6420799829065799713134765625">
        <ele>789.4000244140625</ele>
        <time>2020-08-08T13:23:21.000Z</time>
      </trkpt>
      <trkpt lat="42.307689450681209564208984375" lon="2.64201871119439601898193359375">
        <ele>790</ele>
        <time>2020-08-08T13:23:24.000Z</time>
      </trkpt>
      <trkpt lat="42.30767243541777133941650390625" lon="2.64197646640241146087646484375">
        <ele>790.20001220703125</ele>
        <time>2020-08-08T13:23:26.000Z</time>
      </trkpt>
      <trkpt lat="42.30763521976768970489501953125" lon="2.641889043152332305908203125">
        <ele>791</ele>
        <time>2020-08-08T13:23:30.000Z</time>
      </trkpt>
      <trkpt lat="42.30762348510324954986572265625" lon="2.6418690942227840423583984375">
        <ele>791.4000244140625</ele>
        <time>2020-08-08T13:23:31.000Z</time>
      </trkpt>
      <trkpt lat="42.30758878402411937713623046875" lon="2.64181536622345447540283203125">
        <ele>792</ele>
        <time>2020-08-08T13:23:34.000Z</time>
      </trkpt>
      <trkpt lat="42.30754419229924678802490234375" lon="2.64171528629958629608154296875">
        <ele>793</ele>
        <time>2020-08-08T13:23:39.000Z</time>
      </trkpt>
      <trkpt lat="42.30753279291093349456787109375" lon="2.64167354442179203033447265625">
        <ele>793</ele>
        <time>2020-08-08T13:23:41.000Z</time>
      </trkpt>
      <trkpt lat="42.30751284398138523101806640625" lon="2.64159190468490123748779296875">
        <ele>794</ele>
        <time>2020-08-08T13:23:45.000Z</time>
      </trkpt>
      <trkpt lat="42.30750697664916515350341796875" lon="2.64157153666019439697265625">
        <ele>794.20001220703125</ele>
        <time>2020-08-08T13:23:46.000Z</time>
      </trkpt>
      <trkpt lat="42.3074961639940738677978515625" lon="2.64148092828691005706787109375">
        <ele>795.20001220703125</ele>
        <time>2020-08-08T13:23:50.000Z</time>
      </trkpt>
      <trkpt lat="42.30749063193798065185546875" lon="2.64146156609058380126953125">
        <ele>795.4000244140625</ele>
        <time>2020-08-08T13:23:51.000Z</time>
      </trkpt>
      <trkpt lat="42.30749205686151981353759765625" lon="2.64133474789559841156005859375">
        <ele>796</ele>
        <time>2020-08-08T13:23:57.000Z</time>
      </trkpt>
      <trkpt lat="42.30749624781310558319091796875" lon="2.6412900723516941070556640625">
        <ele>796.20001220703125</ele>
        <time>2020-08-08T13:23:59.000Z</time>
      </trkpt>
      <trkpt lat="42.3075015284121036529541015625" lon="2.64123416505753993988037109375">
        <ele>797</ele>
        <time>2020-08-08T13:24:02.000Z</time>
      </trkpt>
      <trkpt lat="42.307497672736644744873046875" lon="2.64119736850261688232421875">
        <ele>797.4000244140625</ele>
        <time>2020-08-08T13:24:04.000Z</time>
      </trkpt>
      <trkpt lat="42.3074874468147754669189453125" lon="2.6411204226315021514892578125">
        <ele>798.4000244140625</ele>
        <time>2020-08-08T13:24:08.000Z</time>
      </trkpt>
      <trkpt lat="42.30748333968222141265869140625" lon="2.641097120940685272216796875">
        <ele>798.5999755859375</ele>
        <time>2020-08-08T13:24:09.000Z</time>
      </trkpt>
      <trkpt lat="42.3074559308588504791259765625" lon="2.64097901992499828338623046875">
        <ele>798.79998779296875</ele>
        <time>2020-08-08T13:24:15.000Z</time>
      </trkpt>
      <trkpt lat="42.307416535913944244384765625" lon="2.64085404574871063232421875">
        <ele>799.5999755859375</ele>
        <time>2020-08-08T13:24:21.000Z</time>
      </trkpt>
      <trkpt lat="42.30740656144917011260986328125" lon="2.64073678292334079742431640625">
        <ele>800.5999755859375</ele>
        <time>2020-08-08T13:24:26.000Z</time>
      </trkpt>
      <trkpt lat="42.30740941129624843597412109375" lon="2.64069369994103908538818359375">
        <ele>801.20001220703125</ele>
        <time>2020-08-08T13:24:28.000Z</time>
      </trkpt>
      <trkpt lat="42.30740480124950408935546875" lon="2.64065556228160858154296875">
        <ele>801.79998779296875</ele>
        <time>2020-08-08T13:24:31.000Z</time>
      </trkpt>
      <trkpt lat="42.30739616788923740386962890625" lon="2.6406466774642467498779296875">
        <ele>801.79998779296875</ele>
        <time>2020-08-08T13:24:33.000Z</time>
      </trkpt>
      <trkpt lat="42.30739013291895389556884765625" lon="2.6406369544565677642822265625">
        <ele>801.5999755859375</ele>
        <time>2020-08-08T13:24:45.000Z</time>
      </trkpt>
      <trkpt lat="42.3073882050812244415283203125" lon="2.6406245492398738861083984375">
        <ele>801.79998779296875</ele>
        <time>2020-08-08T13:24:46.000Z</time>
      </trkpt>
      <trkpt lat="42.3073791526257991790771484375" lon="2.64055095613002777099609375">
        <ele>802.4000244140625</ele>
        <time>2020-08-08T13:24:52.000Z</time>
      </trkpt>
      <trkpt lat="42.3073719441890716552734375" lon="2.6405293308198451995849609375">
        <ele>802.5999755859375</ele>
        <time>2020-08-08T13:24:56.000Z</time>
      </trkpt>
      <trkpt lat="42.30737018398940563201904296875" lon="2.640490941703319549560546875">
        <ele>803</ele>
        <time>2020-08-08T13:24:59.000Z</time>
      </trkpt>
      <trkpt lat="42.3073734529316425323486328125" lon="2.64047761447727680206298828125">
        <ele>803</ele>
        <time>2020-08-08T13:25:00.000Z</time>
      </trkpt>
      <trkpt lat="42.30739247985184192657470703125" lon="2.640425227582454681396484375">
        <ele>803.5999755859375</ele>
        <time>2020-08-08T13:25:05.000Z</time>
      </trkpt>
      <trkpt lat="42.307415865361690521240234375" lon="2.64034752734005451202392578125">
        <ele>803.79998779296875</ele>
        <time>2020-08-08T13:25:12.000Z</time>
      </trkpt>
      <trkpt lat="42.30741796083748340606689453125" lon="2.6403375528752803802490234375">
        <ele>804</ele>
        <time>2020-08-08T13:25:13.000Z</time>
      </trkpt>
      <trkpt lat="42.30741779319941997528076171875" lon="2.64031969942152500152587890625">
        <ele>804</ele>
        <time>2020-08-08T13:25:24.000Z</time>
      </trkpt>
      <trkpt lat="42.3074297793209552764892578125" lon="2.64027829281985759735107421875">
        <ele>804.4000244140625</ele>
        <time>2020-08-08T13:25:33.000Z</time>
      </trkpt>
      <trkpt lat="42.30743723921477794647216796875" lon="2.640256248414516448974609375">
        <ele>804.5999755859375</ele>
        <time>2020-08-08T13:25:35.000Z</time>
      </trkpt>
      <trkpt lat="42.30745819397270679473876953125" lon="2.64017167501151561737060546875">
        <ele>805.5999755859375</ele>
        <time>2020-08-08T13:25:42.000Z</time>
      </trkpt>
      <trkpt lat="42.3074602894484996795654296875" lon="2.64015809632837772369384765625">
        <ele>805.5999755859375</ele>
        <time>2020-08-08T13:25:43.000Z</time>
      </trkpt>
      <trkpt lat="42.3074867762625217437744140625" lon="2.64009288512170314788818359375">
        <ele>806.4000244140625</ele>
        <time>2020-08-08T13:25:49.000Z</time>
      </trkpt>
      <trkpt lat="42.307488955557346343994140625" lon="2.64005851931869983673095703125">
        <ele>806.5999755859375</ele>
        <time>2020-08-08T13:25:52.000Z</time>
      </trkpt>
      <trkpt lat="42.30749540962278842926025390625" lon="2.63999498449265956878662109375">
        <ele>807</ele>
        <time>2020-08-08T13:25:57.000Z</time>
      </trkpt>
      <trkpt lat="42.30749540962278842926025390625" lon="2.63998224399983882904052734375">
        <ele>807.4000244140625</ele>
        <time>2020-08-08T13:25:58.000Z</time>
      </trkpt>
      <trkpt lat="42.30750479735434055328369140625" lon="2.63988300226628780364990234375">
        <ele>808.20001220703125</ele>
        <time>2020-08-08T13:26:06.000Z</time>
      </trkpt>
      <trkpt lat="42.30750261805951595306396484375" lon="2.6398477144539356231689453125">
        <ele>808.4000244140625</ele>
        <time>2020-08-08T13:26:09.000Z</time>
      </trkpt>
      <trkpt lat="42.307507060468196868896484375" lon="2.6397880353033542633056640625">
        <ele>809</ele>
        <time>2020-08-08T13:26:14.000Z</time>
      </trkpt>
      <trkpt lat="42.30751234106719493865966796875" lon="2.63972072862088680267333984375">
        <ele>809.5999755859375</ele>
        <time>2020-08-08T13:26:19.000Z</time>
      </trkpt>
      <trkpt lat="42.30752424336969852447509765625" lon="2.6396431960165500640869140625">
        <ele>810.20001220703125</ele>
        <time>2020-08-08T13:26:25.000Z</time>
      </trkpt>
      <trkpt lat="42.307537235319614410400390625" lon="2.63956733979284763336181640625">
        <ele>810.5999755859375</ele>
        <time>2020-08-08T13:26:31.000Z</time>
      </trkpt>
      <trkpt lat="42.3075474612414836883544921875" lon="2.63954085297882556915283203125">
        <ele>811</ele>
        <time>2020-08-08T13:26:34.000Z</time>
      </trkpt>
      <trkpt lat="42.3075677454471588134765625" lon="2.63946122489869594573974609375">
        <ele>811.5999755859375</ele>
        <time>2020-08-08T13:26:42.000Z</time>
      </trkpt>
      <trkpt lat="42.307571433484554290771484375" lon="2.6394557766616344451904296875">
        <ele>812</ele>
        <time>2020-08-08T13:26:43.000Z</time>
      </trkpt>
      <trkpt lat="42.30758073739707469940185546875" lon="2.6394494064152240753173828125">
        <ele>812.20001220703125</ele>
        <time>2020-08-08T13:26:45.000Z</time>
      </trkpt>
      <trkpt lat="42.307619713246822357177734375" lon="2.6394252665340900421142578125">
        <ele>812.4000244140625</ele>
        <time>2020-08-08T13:26:49.000Z</time>
      </trkpt>
      <trkpt lat="42.30766790919005870819091796875" lon="2.63944043777883052825927734375">
        <ele>812.79998779296875</ele>
        <time>2020-08-08T13:26:55.000Z</time>
      </trkpt>
      <trkpt lat="42.3076849244534969329833984375" lon="2.63948787935078144073486328125">
        <ele>813.4000244140625</ele>
        <time>2020-08-08T13:26:59.000Z</time>
      </trkpt>
      <trkpt lat="42.30768903158605098724365234375" lon="2.63949827291071414947509765625">
        <ele>813.5999755859375</ele>
        <time>2020-08-08T13:27:01.000Z</time>
      </trkpt>
      <trkpt lat="42.30769054032862186431884765625" lon="2.63949609361588954925537109375">
        <ele>813.79998779296875</ele>
        <time>2020-08-08T13:27:02.000Z</time>
      </trkpt>
      <trkpt lat="42.30768886394798755645751953125" lon="2.63949609361588954925537109375">
        <ele>814.20001220703125</ele>
        <time>2020-08-08T13:27:04.000Z</time>
      </trkpt>
      <trkpt lat="42.307688780128955841064453125" lon="2.6394960097968578338623046875">
        <ele>814</ele>
        <time>2020-08-08T13:27:08.000Z</time>
      </trkpt>
      <trkpt lat="42.30768978595733642578125" lon="2.6394953392446041107177734375">
        <ele>813.79998779296875</ele>
        <time>2020-08-08T13:27:23.000Z</time>
      </trkpt>
      <trkpt lat="42.30770093388855457305908203125" lon="2.63951336033642292022705078125">
        <ele>814</ele>
        <time>2020-08-08T13:27:34.000Z</time>
      </trkpt>
      <trkpt lat="42.3077036999166011810302734375" lon="2.63953297398984432220458984375">
        <ele>814</ele>
        <time>2020-08-08T13:27:35.000Z</time>
      </trkpt>
      <trkpt lat="42.30770478956401348114013671875" lon="2.6396048069000244140625">
        <ele>814.20001220703125</ele>
        <time>2020-08-08T13:27:39.000Z</time>
      </trkpt>
      <trkpt lat="42.3077087290585041046142578125" lon="2.63962349854409694671630859375">
        <ele>814.20001220703125</ele>
        <time>2020-08-08T13:27:40.000Z</time>
      </trkpt>
      <trkpt lat="42.30771861970424652099609375" lon="2.63974227011203765869140625">
        <ele>814.4000244140625</ele>
        <time>2020-08-08T13:27:46.000Z</time>
      </trkpt>
      <trkpt lat="42.3077308572828769683837890625" lon="2.6398654840886592864990234375">
        <ele>814.79998779296875</ele>
        <time>2020-08-08T13:27:52.000Z</time>
      </trkpt>
      <trkpt lat="42.307730019092559814453125" lon="2.639888115227222442626953125">
        <ele>814.79998779296875</ele>
        <time>2020-08-08T13:27:53.000Z</time>
      </trkpt>
      <trkpt lat="42.3077161051332950592041015625" lon="2.64003739692270755767822265625">
        <ele>815</ele>
        <time>2020-08-08T13:27:59.000Z</time>
      </trkpt>
      <trkpt lat="42.30774602852761745452880859375" lon="2.640140913426876068115234375">
        <ele>814.79998779296875</ele>
        <time>2020-08-08T13:28:04.000Z</time>
      </trkpt>
      <trkpt lat="42.30777469463646411895751953125" lon="2.6401560008525848388671875">
        <ele>815</ele>
        <time>2020-08-08T13:28:09.000Z</time>
      </trkpt>
      <trkpt lat="42.30781543068587779998779296875" lon="2.64012582600116729736328125">
        <ele>815</ele>
        <time>2020-08-08T13:28:14.000Z</time>
      </trkpt>
      <trkpt lat="42.3078213818371295928955078125" lon="2.64011652208864688873291015625">
        <ele>815</ele>
        <time>2020-08-08T13:28:15.000Z</time>
      </trkpt>
      <trkpt lat="42.3078371398150920867919921875" lon="2.64006220735609531402587890625">
        <ele>815.79998779296875</ele>
        <time>2020-08-08T13:28:20.000Z</time>
      </trkpt>
      <trkpt lat="42.307836972177028656005859375" lon="2.6400284282863140106201171875">
        <ele>815.79998779296875</ele>
        <time>2020-08-08T13:28:23.000Z</time>
      </trkpt>
      <trkpt lat="42.307834289968013763427734375" lon="2.63993807137012481689453125">
        <ele>816.5999755859375</ele>
        <time>2020-08-08T13:28:31.000Z</time>
      </trkpt>
      <trkpt lat="42.30783890001475811004638671875" lon="2.6398906297981739044189453125">
        <ele>816.79998779296875</ele>
        <time>2020-08-08T13:28:35.000Z</time>
      </trkpt>
      <trkpt lat="42.30784493498504161834716796875" lon="2.63984394259750843048095703125">
        <ele>817</ele>
        <time>2020-08-08T13:28:39.000Z</time>
      </trkpt>
      <trkpt lat="42.30784879066050052642822265625" lon="2.63983271084725856781005859375">
        <ele>817.20001220703125</ele>
        <time>2020-08-08T13:28:40.000Z</time>
      </trkpt>
      <trkpt lat="42.30786211788654327392578125" lon="2.63980521820485591888427734375">
        <ele>818</ele>
        <time>2020-08-08T13:28:43.000Z</time>
      </trkpt>
      <trkpt lat="42.30787552893161773681640625" lon="2.6397348940372467041015625">
        <ele>818.20001220703125</ele>
        <time>2020-08-08T13:28:49.000Z</time>
      </trkpt>
      <trkpt lat="42.30789355002343654632568359375" lon="2.639648728072643280029296875">
        <ele>818.79998779296875</ele>
        <time>2020-08-08T13:28:57.000Z</time>
      </trkpt>
      <trkpt lat="42.30789472348988056182861328125" lon="2.639639340341091156005859375">
        <ele>819</ele>
        <time>2020-08-08T13:28:58.000Z</time>
      </trkpt>
      <trkpt lat="42.30790277011692523956298828125" lon="2.6395721174776554107666015625">
        <ele>819.5999755859375</ele>
        <time>2020-08-08T13:29:05.000Z</time>
      </trkpt>
      <trkpt lat="42.307905368506908416748046875" lon="2.639525346457958221435546875">
        <ele>820</ele>
        <time>2020-08-08T13:29:09.000Z</time>
      </trkpt>
      <trkpt lat="42.3079182766377925872802734375" lon="2.63948117382824420928955078125">
        <ele>820.4000244140625</ele>
        <time>2020-08-08T13:29:14.000Z</time>
      </trkpt>
      <trkpt lat="42.30793613009154796600341796875" lon="2.63940925709903240203857421875">
        <ele>821.20001220703125</ele>
        <time>2020-08-08T13:29:22.000Z</time>
      </trkpt>
      <trkpt lat="42.30795071460306644439697265625" lon="2.63932962901890277862548828125">
        <ele>821.5999755859375</ele>
        <time>2020-08-08T13:29:30.000Z</time>
      </trkpt>
      <trkpt lat="42.30795691721141338348388671875" lon="2.63928185217082500457763671875">
        <ele>822.20001220703125</ele>
        <time>2020-08-08T13:29:34.000Z</time>
      </trkpt>
      <trkpt lat="42.3079611919820308685302734375" lon="2.63924279250204563140869140625">
        <ele>822.4000244140625</ele>
        <time>2020-08-08T13:29:37.000Z</time>
      </trkpt>
      <trkpt lat="42.3079682327806949615478515625" lon="2.6391842029988765716552734375">
        <ele>823.20001220703125</ele>
        <time>2020-08-08T13:29:43.000Z</time>
      </trkpt>
      <trkpt lat="42.3079741001129150390625" lon="2.63915352523326873779296875">
        <ele>823.4000244140625</ele>
        <time>2020-08-08T13:29:46.000Z</time>
      </trkpt>
      <trkpt lat="42.30796664021909236907958984375" lon="2.6391047425568103790283203125">
        <ele>824.20001220703125</ele>
        <time>2020-08-08T13:29:51.000Z</time>
      </trkpt>
      <trkpt lat="42.30796278454363346099853515625" lon="2.6390628330409526824951171875">
        <ele>824.5999755859375</ele>
        <time>2020-08-08T13:29:56.000Z</time>
      </trkpt>
      <trkpt lat="42.307964377105236053466796875" lon="2.6390028186142444610595703125">
        <ele>825.4000244140625</ele>
        <time>2020-08-08T13:30:02.000Z</time>
      </trkpt>
      <trkpt lat="42.3079699091613292694091796875" lon="2.63897675089538097381591796875">
        <ele>825.5999755859375</ele>
        <time>2020-08-08T13:30:05.000Z</time>
      </trkpt>
      <trkpt lat="42.3079808056354522705078125" lon="2.6389092765748500823974609375">
        <ele>826.4000244140625</ele>
        <time>2020-08-08T13:30:12.000Z</time>
      </trkpt>
      <trkpt lat="42.30798273347318172454833984375" lon="2.638901062309741973876953125">
        <ele>826.4000244140625</ele>
        <time>2020-08-08T13:30:13.000Z</time>
      </trkpt>
      <trkpt lat="42.30799027718603610992431640625" lon="2.6388180814683437347412109375">
        <ele>827.20001220703125</ele>
        <time>2020-08-08T13:30:21.000Z</time>
      </trkpt>
      <trkpt lat="42.30799061246216297149658203125" lon="2.63879905454814434051513671875">
        <ele>827.4000244140625</ele>
        <time>2020-08-08T13:30:23.000Z</time>
      </trkpt>
      <trkpt lat="42.307989858090877532958984375" lon="2.63870635069906711578369140625">
        <ele>828.20001220703125</ele>
        <time>2020-08-08T13:30:31.000Z</time>
      </trkpt>
      <trkpt lat="42.30798558332026004791259765625" lon="2.63860392384231090545654296875">
        <ele>828.20001220703125</ele>
        <time>2020-08-08T13:30:38.000Z</time>
      </trkpt>
      <trkpt lat="42.30798558332026004791259765625" lon="2.6385907642543315887451171875">
        <ele>828.4000244140625</ele>
        <time>2020-08-08T13:30:39.000Z</time>
      </trkpt>
      <trkpt lat="42.30798256583511829376220703125" lon="2.6385180093348026275634765625">
        <ele>829.20001220703125</ele>
        <time>2020-08-08T13:30:45.000Z</time>
      </trkpt>
      <trkpt lat="42.3079803027212619781494140625" lon="2.6385069452226161956787109375">
        <ele>829.4000244140625</ele>
        <time>2020-08-08T13:30:46.000Z</time>
      </trkpt>
      <trkpt lat="42.307977788150310516357421875" lon="2.63849512673914432525634765625">
        <ele>829.5999755859375</ele>
        <time>2020-08-08T13:30:47.000Z</time>
      </trkpt>
      <trkpt lat="42.30795088224112987518310546875" lon="2.638394795358180999755859375">
        <ele>830.20001220703125</ele>
        <time>2020-08-08T13:30:55.000Z</time>
      </trkpt>
      <trkpt lat="42.30794451199471950531005859375" lon="2.63837174512445926666259765625">
        <ele>830.4000244140625</ele>
        <time>2020-08-08T13:30:57.000Z</time>
      </trkpt>
      <trkpt lat="42.307918108999729156494140625" lon="2.6382987387478351593017578125">
        <ele>831.4000244140625</ele>
        <time>2020-08-08T13:31:04.000Z</time>
      </trkpt>
      <trkpt lat="42.307912744581699371337890625" lon="2.6382866688072681427001953125">
        <ele>831.4000244140625</ele>
        <time>2020-08-08T13:31:05.000Z</time>
      </trkpt>
      <trkpt lat="42.30790193192660808563232421875" lon="2.638235874474048614501953125">
        <ele>832</ele>
        <time>2020-08-08T13:31:10.000Z</time>
      </trkpt>
      <trkpt lat="42.30787242762744426727294921875" lon="2.63815633021295070648193359375">
        <ele>832.4000244140625</ele>
        <time>2020-08-08T13:31:19.000Z</time>
      </trkpt>
      <trkpt lat="42.307869493961334228515625" lon="2.6381468586623668670654296875">
        <ele>832.79998779296875</ele>
        <time>2020-08-08T13:31:20.000Z</time>
      </trkpt>
      <trkpt lat="42.3078485392034053802490234375" lon="2.63808139599859714508056640625">
        <ele>833.4000244140625</ele>
        <time>2020-08-08T13:31:27.000Z</time>
      </trkpt>
      <trkpt lat="42.3078414984047412872314453125" lon="2.6380318589508533477783203125">
        <ele>833.5999755859375</ele>
        <time>2020-08-08T13:31:32.000Z</time>
      </trkpt>
      <trkpt lat="42.30784242041409015655517578125" lon="2.63800956308841705322265625">
        <ele>833.79998779296875</ele>
        <time>2020-08-08T13:31:34.000Z</time>
      </trkpt>
      <trkpt lat="42.3078321106731891632080078125" lon="2.63795633800327777862548828125">
        <ele>834.79998779296875</ele>
        <time>2020-08-08T13:31:39.000Z</time>
      </trkpt>
      <trkpt lat="42.30782783590257167816162109375" lon="2.63792582787573337554931640625">
        <ele>835</ele>
        <time>2020-08-08T13:31:42.000Z</time>
      </trkpt>
      <trkpt lat="42.307802774012088775634765625" lon="2.637826167047023773193359375">
        <ele>835.4000244140625</ele>
        <time>2020-08-08T13:31:51.000Z</time>
      </trkpt>
      <trkpt lat="42.307798080146312713623046875" lon="2.637802027165889739990234375">
        <ele>835.79998779296875</ele>
        <time>2020-08-08T13:31:54.000Z</time>
      </trkpt>
      <trkpt lat="42.30778005905449390411376953125" lon="2.63774804770946502685546875">
        <ele>836.79998779296875</ele>
        <time>2020-08-08T13:32:00.000Z</time>
      </trkpt>
      <trkpt lat="42.30775373987853527069091796875" lon="2.63765710406005382537841796875">
        <ele>837.20001220703125</ele>
        <time>2020-08-08T13:32:08.000Z</time>
      </trkpt>
      <trkpt lat="42.30774066410958766937255859375" lon="2.637579739093780517578125">
        <ele>837.5999755859375</ele>
        <time>2020-08-08T13:32:15.000Z</time>
      </trkpt>
      <trkpt lat="42.307735383510589599609375" lon="2.63755023479461669921875">
        <ele>837.79998779296875</ele>
        <time>2020-08-08T13:32:18.000Z</time>
      </trkpt>
      <trkpt lat="42.30770998634397983551025390625" lon="2.63747270219027996063232421875">
        <ele>838.4000244140625</ele>
        <time>2020-08-08T13:32:25.000Z</time>
      </trkpt>
      <trkpt lat="42.3076943121850490570068359375" lon="2.637450657784938812255859375">
        <ele>838.5999755859375</ele>
        <time>2020-08-08T13:32:27.000Z</time>
      </trkpt>
      <trkpt lat="42.30767360888421535491943359375" lon="2.63738385401666164398193359375">
        <ele>839.20001220703125</ele>
        <time>2020-08-08T13:32:33.000Z</time>
      </trkpt>
      <trkpt lat="42.30766220949590206146240234375" lon="2.63735803775489330291748046875">
        <ele>839.5999755859375</ele>
        <time>2020-08-08T13:32:35.000Z</time>
      </trkpt>
      <trkpt lat="42.307628095149993896484375" lon="2.6372932456433773040771484375">
        <ele>840</ele>
        <time>2020-08-08T13:32:42.000Z</time>
      </trkpt>
      <trkpt lat="42.30758844874799251556396484375" lon="2.637234069406986236572265625">
        <ele>840.79998779296875</ele>
        <time>2020-08-08T13:32:50.000Z</time>
      </trkpt>
      <trkpt lat="42.30758358724415302276611328125" lon="2.63722904026508331298828125">
        <ele>840.79998779296875</ele>
        <time>2020-08-08T13:32:51.000Z</time>
      </trkpt>
      <trkpt lat="42.30752927251160144805908203125" lon="2.6371519267559051513671875">
        <ele>841.5999755859375</ele>
        <time>2020-08-08T13:33:00.000Z</time>
      </trkpt>
      <trkpt lat="42.3075132630765438079833984375" lon="2.637119404971599578857421875">
        <ele>841.79998779296875</ele>
        <time>2020-08-08T13:33:03.000Z</time>
      </trkpt>
      <trkpt lat="42.307510077953338623046875" lon="2.637064419686794281005859375">
        <ele>842.5999755859375</ele>
        <time>2020-08-08T13:33:08.000Z</time>
      </trkpt>
      <trkpt lat="42.307523153722286224365234375" lon="2.637036927044391632080078125">
        <ele>842.79998779296875</ele>
        <time>2020-08-08T13:33:11.000Z</time>
      </trkpt>
      <trkpt lat="42.30753966607153415679931640625" lon="2.637002728879451751708984375">
        <ele>843.4000244140625</ele>
        <time>2020-08-08T13:33:16.000Z</time>
      </trkpt>
      <trkpt lat="42.3075704276561737060546875" lon="2.6369888149201869964599609375">
        <ele>843.79998779296875</ele>
        <time>2020-08-08T13:33:21.000Z</time>
      </trkpt>
      <trkpt lat="42.30757914483547210693359375" lon="2.636987976729869842529296875">
        <ele>844.20001220703125</ele>
        <time>2020-08-08T13:33:23.000Z</time>
      </trkpt>
      <trkpt lat="42.307575456798076629638671875" lon="2.63698764145374298095703125">
        <ele>844.5999755859375</ele>
        <time>2020-08-08T13:33:35.000Z</time>
      </trkpt>
      <trkpt lat="42.30759515427052974700927734375" lon="2.63700096867978572845458984375">
        <ele>844.4000244140625</ele>
        <time>2020-08-08T13:33:45.000Z</time>
      </trkpt>
      <trkpt lat="42.30763287283480167388916015625" lon="2.63702209107577800750732421875">
        <ele>844.79998779296875</ele>
        <time>2020-08-08T13:33:53.000Z</time>
      </trkpt>
      <trkpt lat="42.30763253755867481231689453125" lon="2.63702326454222202301025390625">
        <ele>844.79998779296875</ele>
        <time>2020-08-08T13:33:59.000Z</time>
      </trkpt>
      <trkpt lat="42.3076316155493259429931640625" lon="2.6370250247418880462646484375">
        <ele>844.5999755859375</ele>
        <time>2020-08-08T13:34:06.000Z</time>
      </trkpt>
      <trkpt lat="42.30763438157737255096435546875" lon="2.63702787458896636962890625">
        <ele>844.5999755859375</ele>
        <time>2020-08-08T13:34:08.000Z</time>
      </trkpt>
      <trkpt lat="42.30766774155199527740478515625" lon="2.63707137666642665863037109375">
        <ele>844.20001220703125</ele>
        <time>2020-08-08T13:34:11.000Z</time>
      </trkpt>
      <trkpt lat="42.3077174462378025054931640625" lon="2.6371440477669239044189453125">
        <ele>844.20001220703125</ele>
        <time>2020-08-08T13:34:15.000Z</time>
      </trkpt>
      <trkpt lat="42.30773295275866985321044921875" lon="2.63717380352318286895751953125">
        <ele>844.20001220703125</ele>
        <time>2020-08-08T13:34:20.000Z</time>
      </trkpt>
      <trkpt lat="42.3077731020748615264892578125" lon="2.6372764818370342254638671875">
        <ele>844.4000244140625</ele>
        <time>2020-08-08T13:34:25.000Z</time>
      </trkpt>
      <trkpt lat="42.3078183643519878387451171875" lon="2.6373606361448764801025390625">
        <ele>844.20001220703125</ele>
        <time>2020-08-08T13:34:29.000Z</time>
      </trkpt>
      <trkpt lat="42.3079172708094120025634765625" lon="2.63750505633652210235595703125">
        <ele>844.20001220703125</ele>
        <time>2020-08-08T13:34:35.000Z</time>
      </trkpt>
      <trkpt lat="42.30800435878336429595947265625" lon="2.63761754147708415985107421875">
        <ele>844</ele>
        <time>2020-08-08T13:34:41.000Z</time>
      </trkpt>
      <trkpt lat="42.308077700436115264892578125" lon="2.63771393336355686187744140625">
        <ele>844.5999755859375</ele>
        <time>2020-08-08T13:34:47.000Z</time>
      </trkpt>
      <trkpt lat="42.30815154500305652618408203125" lon="2.6378144323825836181640625">
        <ele>845</ele>
        <time>2020-08-08T13:34:53.000Z</time>
      </trkpt>
      <trkpt lat="42.30816612951457500457763671875" lon="2.637835554778575897216796875">
        <ele>845.20001220703125</ele>
        <time>2020-08-08T13:34:54.000Z</time>
      </trkpt>
      <trkpt lat="42.308208458125591278076171875" lon="2.6378967426717281341552734375">
        <ele>845.20001220703125</ele>
        <time>2020-08-08T13:34:57.000Z</time>
      </trkpt>
      <trkpt lat="42.308248691260814666748046875" lon="2.6379493810236454010009765625">
        <ele>845.79998779296875</ele>
        <time>2020-08-08T13:35:00.000Z</time>
      </trkpt>
      <trkpt lat="42.3082884214818477630615234375" lon="2.6380067132413387298583984375">
        <ele>846.20001220703125</ele>
        <time>2020-08-08T13:35:03.000Z</time>
      </trkpt>
      <trkpt lat="42.30835505761206150054931640625" lon="2.6381984911859035491943359375">
        <ele>846.20001220703125</ele>
        <time>2020-08-08T13:35:11.000Z</time>
      </trkpt>
      <trkpt lat="42.3083886690437793731689453125" lon="2.6383500359952449798583984375">
        <ele>846.20001220703125</ele>
        <time>2020-08-08T13:35:17.000Z</time>
      </trkpt>
      <trkpt lat="42.30839411728084087371826171875" lon="2.63837023638188838958740234375">
        <ele>846.5999755859375</ele>
        <time>2020-08-08T13:35:18.000Z</time>
      </trkpt>
      <trkpt lat="42.30841373093426227569580078125" lon="2.63845908455550670623779296875">
        <ele>847</ele>
        <time>2020-08-08T13:35:22.000Z</time>
      </trkpt>
      <trkpt lat="42.3084265552461147308349609375" lon="2.63857944868505001068115234375">
        <ele>847.4000244140625</ele>
        <time>2020-08-08T13:35:27.000Z</time>
      </trkpt>
      <trkpt lat="42.30842077173292636871337890625" lon="2.63869998045265674591064453125">
        <ele>847.4000244140625</ele>
        <time>2020-08-08T13:35:33.000Z</time>
      </trkpt>
      <trkpt lat="42.30842194519937038421630859375" lon="2.63875178061425685882568359375">
        <ele>847.20001220703125</ele>
        <time>2020-08-08T13:35:36.000Z</time>
      </trkpt>
      <trkpt lat="42.30842060409486293792724609375" lon="2.638803161680698394775390625">
        <ele>847.4000244140625</ele>
        <time>2020-08-08T13:35:39.000Z</time>
      </trkpt>
      <trkpt lat="42.3084362782537937164306640625" lon="2.63888371177017688751220703125">
        <ele>847.79998779296875</ele>
        <time>2020-08-08T13:35:44.000Z</time>
      </trkpt>
      <trkpt lat="42.3084372840821743011474609375" lon="2.63889762572944164276123046875">
        <ele>847.79998779296875</ele>
        <time>2020-08-08T13:35:45.000Z</time>
      </trkpt>
      <trkpt lat="42.308438457548618316650390625" lon="2.6389776729047298431396484375">
        <ele>847.79998779296875</ele>
        <time>2020-08-08T13:35:50.000Z</time>
      </trkpt>
      <trkpt lat="42.30844407342374324798583984375" lon="2.639022432267665863037109375">
        <ele>847.79998779296875</ele>
        <time>2020-08-08T13:35:52.000Z</time>
      </trkpt>
      <trkpt lat="42.308472655713558197021484375" lon="2.63913181610405445098876953125">
        <ele>848.4000244140625</ele>
        <time>2020-08-08T13:35:58.000Z</time>
      </trkpt>
      <trkpt lat="42.3084796965122222900390625" lon="2.63915075920522212982177734375">
        <ele>848.5999755859375</ele>
        <time>2020-08-08T13:35:59.000Z</time>
      </trkpt>
      <trkpt lat="42.3085133917629718780517578125" lon="2.63924178667366504669189453125">
        <ele>849</ele>
        <time>2020-08-08T13:36:04.000Z</time>
      </trkpt>
      <trkpt lat="42.3085576482117176055908203125" lon="2.6393776573240756988525390625">
        <ele>849.4000244140625</ele>
        <time>2020-08-08T13:36:10.000Z</time>
      </trkpt>
      <trkpt lat="42.30858497321605682373046875" lon="2.6394866220653057098388671875">
        <ele>849.4000244140625</ele>
        <time>2020-08-08T13:36:15.000Z</time>
      </trkpt>
      <trkpt lat="42.3085985518991947174072265625" lon="2.6395550183951854705810546875">
        <ele>849.79998779296875</ele>
        <time>2020-08-08T13:36:18.000Z</time>
      </trkpt>
      <trkpt lat="42.3086662776768207550048828125" lon="2.6396348141133785247802734375">
        <ele>850.4000244140625</ele>
        <time>2020-08-08T13:36:24.000Z</time>
      </trkpt>
      <trkpt lat="42.30868287384510040283203125" lon="2.63963322155177593231201171875">
        <ele>850.5999755859375</ele>
        <time>2020-08-08T13:36:25.000Z</time>
      </trkpt>
      <trkpt lat="42.30872704647481441497802734375" lon="2.639569938182830810546875">
        <ele>851</ele>
        <time>2020-08-08T13:36:29.000Z</time>
      </trkpt>
      <trkpt lat="42.30871631763875484466552734375" lon="2.63951470144093036651611328125">
        <ele>851.5999755859375</ele>
        <time>2020-08-08T13:36:32.000Z</time>
      </trkpt>
      <trkpt lat="42.30870475061237812042236328125" lon="2.639481090009212493896484375">
        <ele>852.20001220703125</ele>
        <time>2020-08-08T13:36:34.000Z</time>
      </trkpt>
      <trkpt lat="42.308691255748271942138671875" lon="2.63943423517048358917236328125">
        <ele>852.4000244140625</ele>
        <time>2020-08-08T13:36:37.000Z</time>
      </trkpt>
      <trkpt lat="42.3086827062070369720458984375" lon="2.63937673531472682952880859375">
        <ele>852.79998779296875</ele>
        <time>2020-08-08T13:36:40.000Z</time>
      </trkpt>
      <trkpt lat="42.30868446640670299530029296875" lon="2.63928922824561595916748046875">
        <ele>853.5999755859375</ele>
        <time>2020-08-08T13:36:45.000Z</time>
      </trkpt>
      <trkpt lat="42.3086880706250667572021484375" lon="2.6392703689634799957275390625">
        <ele>854</ele>
        <time>2020-08-08T13:36:46.000Z</time>
      </trkpt>
      <trkpt lat="42.3087128810584545135498046875" lon="2.63916685245931148529052734375">
        <ele>854.5999755859375</ele>
        <time>2020-08-08T13:36:52.000Z</time>
      </trkpt>
      <trkpt lat="42.308715395629405975341796875" lon="2.639144472777843475341796875">
        <ele>854.79998779296875</ele>
        <time>2020-08-08T13:36:53.000Z</time>
      </trkpt>
      <trkpt lat="42.3087229393422603607177734375" lon="2.63908110558986663818359375">
        <ele>855.5999755859375</ele>
        <time>2020-08-08T13:36:56.000Z</time>
      </trkpt>
      <trkpt lat="42.30873517692089080810546875" lon="2.63901547528803348541259765625">
        <ele>856.20001220703125</ele>
        <time>2020-08-08T13:36:59.000Z</time>
      </trkpt>
      <trkpt lat="42.3087500967085361480712890625" lon="2.63889913447201251983642578125">
        <ele>856.79998779296875</ele>
        <time>2020-08-08T13:37:05.000Z</time>
      </trkpt>
      <trkpt lat="42.308766357600688934326171875" lon="2.63875530101358890533447265625">
        <ele>857.5999755859375</ele>
        <time>2020-08-08T13:37:12.000Z</time>
      </trkpt>
      <trkpt lat="42.30876736342906951904296875" lon="2.638736777007579803466796875">
        <ele>857.79998779296875</ele>
        <time>2020-08-08T13:37:13.000Z</time>
      </trkpt>
      <trkpt lat="42.308759987354278564453125" lon="2.63863141648471355438232421875">
        <ele>858</ele>
        <time>2020-08-08T13:37:18.000Z</time>
      </trkpt>
      <trkpt lat="42.30875537730753421783447265625" lon="2.638522870838642120361328125">
        <ele>859</ele>
        <time>2020-08-08T13:37:23.000Z</time>
      </trkpt>
      <trkpt lat="42.30873827822506427764892578125" lon="2.63842354528605937957763671875">
        <ele>860</ele>
        <time>2020-08-08T13:37:28.000Z</time>
      </trkpt>
      <trkpt lat="42.308712042868137359619140625" lon="2.6382802985608577728271484375">
        <ele>860.5999755859375</ele>
        <time>2020-08-08T13:37:35.000Z</time>
      </trkpt>
      <trkpt lat="42.30870458297431468963623046875" lon="2.638239227235317230224609375">
        <ele>861</ele>
        <time>2020-08-08T13:37:37.000Z</time>
      </trkpt>
      <trkpt lat="42.30868010781705379486083984375" lon="2.638103105127811431884765625">
        <ele>862.20001220703125</ele>
        <time>2020-08-08T13:37:44.000Z</time>
      </trkpt>
      <trkpt lat="42.30865194462239742279052734375" lon="2.63797243125736713409423828125">
        <ele>862.5999755859375</ele>
        <time>2020-08-08T13:37:51.000Z</time>
      </trkpt>
      <trkpt lat="42.308633588254451751708984375" lon="2.63789162971079349517822265625">
        <ele>863</ele>
        <time>2020-08-08T13:37:56.000Z</time>
      </trkpt>
      <trkpt lat="42.3086327500641345977783203125" lon="2.6378860138356685638427734375">
        <ele>863.20001220703125</ele>
        <time>2020-08-08T13:37:58.000Z</time>
      </trkpt>
      <trkpt lat="42.3086340911686420440673828125" lon="2.63788081705570220947265625">
        <ele>863.4000244140625</ele>
        <time>2020-08-08T13:38:06.000Z</time>
      </trkpt>
      <trkpt lat="42.3086273856461048126220703125" lon="2.63782340101897716522216796875">
        <ele>864</ele>
        <time>2020-08-08T13:38:15.000Z</time>
      </trkpt>
      <trkpt lat="42.30861405842006206512451171875" lon="2.6377907954156398773193359375">
        <ele>864.20001220703125</ele>
        <time>2020-08-08T13:38:17.000Z</time>
      </trkpt>
      <trkpt lat="42.30859679169952869415283203125" lon="2.63771611265838146209716796875">
        <ele>864.5999755859375</ele>
        <time>2020-08-08T13:38:21.000Z</time>
      </trkpt>
      <trkpt lat="42.30854767374694347381591796875" lon="2.63754461891949176788330078125">
        <ele>865.20001220703125</ele>
        <time>2020-08-08T13:38:30.000Z</time>
      </trkpt>
      <trkpt lat="42.30848447419703006744384765625" lon="2.63742341659963130950927734375">
        <ele>866.20001220703125</ele>
        <time>2020-08-08T13:38:38.000Z</time>
      </trkpt>
      <trkpt lat="42.308477349579334259033203125" lon="2.63741000555455684661865234375">
        <ele>866.4000244140625</ele>
        <time>2020-08-08T13:38:39.000Z</time>
      </trkpt>
      <trkpt lat="42.30843217112123966217041015625" lon="2.63730824925005435943603515625">
        <ele>867.20001220703125</ele>
        <time>2020-08-08T13:38:45.000Z</time>
      </trkpt>
      <trkpt lat="42.3084260523319244384765625" lon="2.637292407453060150146484375">
        <ele>867.4000244140625</ele>
        <time>2020-08-08T13:38:46.000Z</time>
      </trkpt>
      <trkpt lat="42.30837953276932239532470703125" lon="2.63718989677727222442626953125">
        <ele>867.4000244140625</ele>
        <time>2020-08-08T13:38:52.000Z</time>
      </trkpt>
      <trkpt lat="42.3083745874464511871337890625" lon="2.63704665005207061767578125">
        <ele>868.4000244140625</ele>
        <time>2020-08-08T13:38:59.000Z</time>
      </trkpt>
      <trkpt lat="42.30837366543710231781005859375" lon="2.6370354183018207550048828125">
        <ele>869.4000244140625</ele>
        <time>2020-08-08T13:39:04.000Z</time>
      </trkpt>
      <trkpt lat="42.30837441980838775634765625" lon="2.63703399337828159332275390625">
        <ele>869.4000244140625</ele>
        <time>2020-08-08T13:39:07.000Z</time>
      </trkpt>
      <trkpt lat="42.30836897157132625579833984375" lon="2.63701437972486019134521484375">
        <ele>869.79998779296875</ele>
        <time>2020-08-08T13:39:12.000Z</time>
      </trkpt>
      <trkpt lat="42.30835556052625179290771484375" lon="2.636973895132541656494140625">
        <ele>869.79998779296875</ele>
        <time>2020-08-08T13:39:20.000Z</time>
      </trkpt>
      <trkpt lat="42.308341898024082183837890625" lon="2.63690910302102565765380859375">
        <ele>870.5999755859375</ele>
        <time>2020-08-08T13:39:26.000Z</time>
      </trkpt>
      <trkpt lat="42.30833686888217926025390625" lon="2.63685193844139575958251953125">
        <ele>871</ele>
        <time>2020-08-08T13:39:31.000Z</time>
      </trkpt>
      <trkpt lat="42.30833728797733783721923828125" lon="2.63684003613889217376708984375">
        <ele>871.20001220703125</ele>
        <time>2020-08-08T13:39:32.000Z</time>
      </trkpt>
      <trkpt lat="42.30833393521606922149658203125" lon="2.63679988682270050048828125">
        <ele>871.5999755859375</ele>
        <time>2020-08-08T13:39:36.000Z</time>
      </trkpt>
      <trkpt lat="42.30833091773092746734619140625" lon="2.6367764174938201904296875">
        <ele>871.79998779296875</ele>
        <time>2020-08-08T13:39:38.000Z</time>
      </trkpt>
      <trkpt lat="42.308311723172664642333984375" lon="2.63667927123606204986572265625">
        <ele>872.5999755859375</ele>
        <time>2020-08-08T13:39:46.000Z</time>
      </trkpt>
      <trkpt lat="42.30830912478268146514892578125" lon="2.63666586019098758697509765625">
        <ele>872.5999755859375</ele>
        <time>2020-08-08T13:39:47.000Z</time>
      </trkpt>
      <trkpt lat="42.3082974739372730255126953125" lon="2.63658262789249420166015625">
        <ele>873.20001220703125</ele>
        <time>2020-08-08T13:39:54.000Z</time>
      </trkpt>
      <trkpt lat="42.3082951270043849945068359375" lon="2.6365589909255504608154296875">
        <ele>873.5999755859375</ele>
        <time>2020-08-08T13:39:56.000Z</time>
      </trkpt>
      <trkpt lat="42.308290936052799224853515625" lon="2.636500485241413116455078125">
        <ele>874.5999755859375</ele>
        <time>2020-08-08T13:40:02.000Z</time>
      </trkpt>
      <trkpt lat="42.3082951270043849945068359375" lon="2.63648145832121372222900390625">
        <ele>874.79998779296875</ele>
        <time>2020-08-08T13:40:04.000Z</time>
      </trkpt>
      <trkpt lat="42.30829269625246524810791015625" lon="2.63641767203807830810546875">
        <ele>875</ele>
        <time>2020-08-08T13:40:10.000Z</time>
      </trkpt>
      <trkpt lat="42.30826134793460369110107421875" lon="2.636345587670803070068359375">
        <ele>875.4000244140625</ele>
        <time>2020-08-08T13:40:17.000Z</time>
      </trkpt>
      <trkpt lat="42.3082475177943706512451171875" lon="2.63630812056362628936767578125">
        <ele>875.79998779296875</ele>
        <time>2020-08-08T13:40:21.000Z</time>
      </trkpt>
      <trkpt lat="42.30824978090822696685791015625" lon="2.6363105513155460357666015625">
        <ele>876</ele>
        <time>2020-08-08T13:40:23.000Z</time>
      </trkpt>
      <trkpt lat="42.3082515411078929901123046875" lon="2.636312730610370635986328125">
        <ele>876.20001220703125</ele>
        <time>2020-08-08T13:40:42.000Z</time>
      </trkpt>
      <trkpt lat="42.30825112201273441314697265625" lon="2.63631281442940235137939453125">
        <ele>876.4000244140625</ele>
        <time>2020-08-08T13:40:47.000Z</time>
      </trkpt>
      <trkpt lat="42.30825045146048069000244140625" lon="2.636312060058116912841796875">
        <ele>876.20001220703125</ele>
        <time>2020-08-08T13:41:06.000Z</time>
      </trkpt>
      <trkpt lat="42.308239974081516265869140625" lon="2.6362760178744792938232421875">
        <ele>876.4000244140625</ele>
        <time>2020-08-08T13:41:15.000Z</time>
      </trkpt>
      <trkpt lat="42.3082307539880275726318359375" lon="2.63623234815895557403564453125">
        <ele>876.5999755859375</ele>
        <time>2020-08-08T13:41:19.000Z</time>
      </trkpt>
      <trkpt lat="42.3082354478538036346435546875" lon="2.6362072862684726715087890625">
        <ele>877</ele>
        <time>2020-08-08T13:41:23.000Z</time>
      </trkpt>
      <trkpt lat="42.3082237131893634796142578125" lon="2.636139057576656341552734375">
        <ele>877</ele>
        <time>2020-08-08T13:41:30.000Z</time>
      </trkpt>
      <trkpt lat="42.30820736847817897796630859375" lon="2.63604358769953250885009765625">
        <ele>877.79998779296875</ele>
        <time>2020-08-08T13:41:36.000Z</time>
      </trkpt>
      <trkpt lat="42.30819546617567539215087890625" lon="2.63598860241472721099853515625">
        <ele>879</ele>
        <time>2020-08-08T13:41:39.000Z</time>
      </trkpt>
      <trkpt lat="42.3081831447780132293701171875" lon="2.63592909090220928192138671875">
        <ele>879.4000244140625</ele>
        <time>2020-08-08T13:41:42.000Z</time>
      </trkpt>
      <trkpt lat="42.3081610165536403656005859375" lon="2.6358254067599773406982421875">
        <ele>879.79998779296875</ele>
        <time>2020-08-08T13:41:47.000Z</time>
      </trkpt>
      <trkpt lat="42.30815556831657886505126953125" lon="2.63580621220171451568603515625">
        <ele>879.79998779296875</ele>
        <time>2020-08-08T13:41:48.000Z</time>
      </trkpt>
      <trkpt lat="42.3081462644040584564208984375" lon="2.63576312921941280364990234375">
        <ele>880.20001220703125</ele>
        <time>2020-08-08T13:41:50.000Z</time>
      </trkpt>
      <trkpt lat="42.308121956884860992431640625" lon="2.63566003181040287017822265625">
        <ele>881</ele>
        <time>2020-08-08T13:41:55.000Z</time>
      </trkpt>
      <trkpt lat="42.308116592466831207275390625" lon="2.63563538901507854461669921875">
        <ele>881.20001220703125</ele>
        <time>2020-08-08T13:41:56.000Z</time>
      </trkpt>
      <trkpt lat="42.30811198242008686065673828125" lon="2.635589540004730224609375">
        <ele>882.4000244140625</ele>
        <time>2020-08-08T13:41:59.000Z</time>
      </trkpt>
      <trkpt lat="42.3081095516681671142578125" lon="2.635574452579021453857421875">
        <ele>882.4000244140625</ele>
        <time>2020-08-08T13:42:00.000Z</time>
      </trkpt>
      <trkpt lat="42.30808314867317676544189453125" lon="2.63547814451158046722412109375">
        <ele>883.4000244140625</ele>
        <time>2020-08-08T13:42:05.000Z</time>
      </trkpt>
      <trkpt lat="42.308062948286533355712890625" lon="2.63540790416300296783447265625">
        <ele>884.5999755859375</ele>
        <time>2020-08-08T13:42:09.000Z</time>
      </trkpt>
      <trkpt lat="42.30806085281074047088623046875" lon="2.635386697947978973388671875">
        <ele>885</ele>
        <time>2020-08-08T13:42:10.000Z</time>
      </trkpt>
      <trkpt lat="42.30803419835865497589111328125" lon="2.63530933298170566558837890625">
        <ele>885</ele>
        <time>2020-08-08T13:42:14.000Z</time>
      </trkpt>
      <trkpt lat="42.3080134950578212738037109375" lon="2.63524479232728481292724609375">
        <ele>885.79998779296875</ele>
        <time>2020-08-08T13:42:18.000Z</time>
      </trkpt>
      <trkpt lat="42.30799312703311443328857421875" lon="2.63520539738237857818603515625">
        <ele>886</ele>
        <time>2020-08-08T13:42:20.000Z</time>
      </trkpt>
      <trkpt lat="42.30794585309922695159912109375" lon="2.6350794173777103424072265625">
        <ele>886.79998779296875</ele>
        <time>2020-08-08T13:42:26.000Z</time>
      </trkpt>
      <trkpt lat="42.307941913604736328125" lon="2.6350619830191135406494140625">
        <ele>887</ele>
        <time>2020-08-08T13:42:27.000Z</time>
      </trkpt>
      <trkpt lat="42.30791802518069744110107421875" lon="2.63499501161277294158935546875">
        <ele>888</ele>
        <time>2020-08-08T13:42:31.000Z</time>
      </trkpt>
      <trkpt lat="42.307911403477191925048828125" lon="2.63498243875801563262939453125">
        <ele>888</ele>
        <time>2020-08-08T13:42:32.000Z</time>
      </trkpt>
      <trkpt lat="42.30789137072861194610595703125" lon="2.63493332080543041229248046875">
        <ele>888</ele>
        <time>2020-08-08T13:42:37.000Z</time>
      </trkpt>
      <trkpt lat="42.307859770953655242919921875" lon="2.63482050038874149322509765625">
        <ele>888.5999755859375</ele>
        <time>2020-08-08T13:42:44.000Z</time>
      </trkpt>
      <trkpt lat="42.30782900936901569366455078125" lon="2.63473550789058208465576171875">
        <ele>889.20001220703125</ele>
        <time>2020-08-08T13:42:48.000Z</time>
      </trkpt>
      <trkpt lat="42.3078062944114208221435546875" lon="2.63466887176036834716796875">
        <ele>889.79998779296875</ele>
        <time>2020-08-08T13:42:51.000Z</time>
      </trkpt>
      <trkpt lat="42.30779766105115413665771484375" lon="2.634649761021137237548828125">
        <ele>889.79998779296875</ele>
        <time>2020-08-08T13:42:52.000Z</time>
      </trkpt>
      <trkpt lat="42.30778542347252368927001953125" lon="2.6345850527286529541015625">
        <ele>890.4000244140625</ele>
        <time>2020-08-08T13:42:55.000Z</time>
      </trkpt>
      <trkpt lat="42.3077781312167644500732421875" lon="2.63456434942781925201416015625">
        <ele>890.4000244140625</ele>
        <time>2020-08-08T13:42:56.000Z</time>
      </trkpt>
      <trkpt lat="42.307771258056163787841796875" lon="2.63454205356538295745849609375">
        <ele>890.5999755859375</ele>
        <time>2020-08-08T13:42:57.000Z</time>
      </trkpt>
      <trkpt lat="42.307724989950656890869140625" lon="2.63439905829727649688720703125">
        <ele>890.5999755859375</ele>
        <time>2020-08-08T13:43:03.000Z</time>
      </trkpt>
      <trkpt lat="42.30769640766084194183349609375" lon="2.6343310810625553131103515625">
        <ele>891.4000244140625</ele>
        <time>2020-08-08T13:43:07.000Z</time>
      </trkpt>
      <trkpt lat="42.30769020505249500274658203125" lon="2.63432177715003490447998046875">
        <ele>891.5999755859375</ele>
        <time>2020-08-08T13:43:08.000Z</time>
      </trkpt>
      <trkpt lat="42.30761946178972721099853515625" lon="2.634223960340023040771484375">
        <ele>892.4000244140625</ele>
        <time>2020-08-08T13:43:14.000Z</time>
      </trkpt>
      <trkpt lat="42.307566069066524505615234375" lon="2.63417542912065982818603515625">
        <ele>892.4000244140625</ele>
        <time>2020-08-08T13:43:18.000Z</time>
      </trkpt>
      <trkpt lat="42.30754469521343708038330078125" lon="2.6341567374765872955322265625">
        <ele>892.79998779296875</ele>
        <time>2020-08-08T13:43:20.000Z</time>
      </trkpt>
      <trkpt lat="42.30752541683614253997802734375" lon="2.63414307497441768646240234375">
        <ele>893.20001220703125</ele>
        <time>2020-08-08T13:43:21.000Z</time>
      </trkpt>
      <trkpt lat="42.3074951581656932830810546875" lon="2.634117342531681060791015625">
        <ele>893.4000244140625</ele>
        <time>2020-08-08T13:43:23.000Z</time>
      </trkpt>
      <trkpt lat="42.30747009627521038055419921875" lon="2.63409060426056385040283203125">
        <ele>893.5999755859375</ele>
        <time>2020-08-08T13:43:25.000Z</time>
      </trkpt>
      <trkpt lat="42.3074089922010898590087890625" lon="2.6340306736528873443603515625">
        <ele>893.79998779296875</ele>
        <time>2020-08-08T13:43:29.000Z</time>
      </trkpt>
      <trkpt lat="42.30738124810159206390380859375" lon="2.63398046605288982391357421875">
        <ele>894.4000244140625</ele>
        <time>2020-08-08T13:43:32.000Z</time>
      </trkpt>
      <trkpt lat="42.3073798231780529022216796875" lon="2.63395967893302440643310546875">
        <ele>894.5999755859375</ele>
        <time>2020-08-08T13:43:33.000Z</time>
      </trkpt>
      <trkpt lat="42.3073811642825603485107421875" lon="2.6339398138225078582763671875">
        <ele>894.79998779296875</ele>
        <time>2020-08-08T13:43:34.000Z</time>
      </trkpt>
      <trkpt lat="42.30743028223514556884765625" lon="2.63388826511800289154052734375">
        <ele>895.4000244140625</ele>
        <time>2020-08-08T13:43:39.000Z</time>
      </trkpt>
      <trkpt lat="42.30748333968222141265869140625" lon="2.63388373889029026031494140625">
        <ele>896</ele>
        <time>2020-08-08T13:43:43.000Z</time>
      </trkpt>
      <trkpt lat="42.30749473907053470611572265625" lon="2.63388273306190967559814453125">
        <ele>896.20001220703125</ele>
        <time>2020-08-08T13:43:44.000Z</time>
      </trkpt>
      <trkpt lat="42.30752910487353801727294921875" lon="2.63388893567025661468505859375">
        <ele>897</ele>
        <time>2020-08-08T13:43:47.000Z</time>
      </trkpt>
      <trkpt lat="42.30754117481410503387451171875" lon="2.63389505445957183837890625">
        <ele>897.20001220703125</ele>
        <time>2020-08-08T13:43:48.000Z</time>
      </trkpt>
      <trkpt lat="42.3075675778090953826904296875" lon="2.63391039334237575531005859375">
        <ele>897.79998779296875</ele>
        <time>2020-08-08T13:43:51.000Z</time>
      </trkpt>
      <trkpt lat="42.30757487006485462188720703125" lon="2.6339093036949634552001953125">
        <ele>898</ele>
        <time>2020-08-08T13:43:53.000Z</time>
      </trkpt>
      <trkpt lat="42.307576797902584075927734375" lon="2.6339066214859485626220703125">
        <ele>898</ele>
        <time>2020-08-08T13:43:56.000Z</time>
      </trkpt>
      <trkpt lat="42.30761728249490261077880859375" lon="2.6339052803814411163330078125">
        <ele>898.5999755859375</ele>
        <time>2020-08-08T13:44:02.000Z</time>
      </trkpt>
      <trkpt lat="42.30762516148388385772705078125" lon="2.63390787877142429351806640625">
        <ele>898.79998779296875</ele>
        <time>2020-08-08T13:44:04.000Z</time>
      </trkpt>
      <trkpt lat="42.307624407112598419189453125" lon="2.63391458429396152496337890625">
        <ele>899</ele>
        <time>2020-08-08T13:44:14.000Z</time>
      </trkpt>
      <trkpt lat="42.30762876570224761962890625" lon="2.633930929005146026611328125">
        <ele>899.20001220703125</ele>
        <time>2020-08-08T13:44:25.000Z</time>
      </trkpt>
      <trkpt lat="42.3076296038925647735595703125" lon="2.63393335975706577301025390625">
        <ele>899</ele>
        <time>2020-08-08T13:44:37.000Z</time>
      </trkpt>
      <trkpt lat="42.3076309449970722198486328125" lon="2.633935622870922088623046875">
        <ele>899.20001220703125</ele>
        <time>2020-08-08T13:44:55.000Z</time>
      </trkpt>
      <trkpt lat="42.30763387866318225860595703125" lon="2.63394065201282501220703125">
        <ele>899.20001220703125</ele>
        <time>2020-08-08T13:45:08.000Z</time>
      </trkpt>
      <trkpt lat="42.307632453739643096923828125" lon="2.63394199311733245849609375">
        <ele>899.4000244140625</ele>
        <time>2020-08-08T13:45:19.000Z</time>
      </trkpt>
      <trkpt lat="42.30762834660708904266357421875" lon="2.63394601643085479736328125">
        <ele>899.4000244140625</ele>
        <time>2020-08-08T13:45:34.000Z</time>
      </trkpt>
      <trkpt lat="42.30762474238872528076171875" lon="2.63394408859312534332275390625">
        <ele>899.4000244140625</ele>
        <time>2020-08-08T13:45:44.000Z</time>
      </trkpt>
      <trkpt lat="42.30762206017971038818359375" lon="2.63394224457442760467529296875">
        <ele>899.5999755859375</ele>
        <time>2020-08-08T13:45:46.000Z</time>
      </trkpt>
      <trkpt lat="42.30761962942779064178466796875" lon="2.633938305079936981201171875">
        <ele>899.4000244140625</ele>
        <time>2020-08-08T13:45:56.000Z</time>
      </trkpt>
      <trkpt lat="42.3076178692281246185302734375" lon="2.63393520377576351165771484375">
        <ele>899.4000244140625</ele>
        <time>2020-08-08T13:46:06.000Z</time>
      </trkpt>
      <trkpt lat="42.30761426500976085662841796875" lon="2.63393688015639781951904296875">
        <ele>899.4000244140625</ele>
        <time>2020-08-08T13:46:17.000Z</time>
      </trkpt>
      <trkpt lat="42.30761342681944370269775390625" lon="2.63394174166023731231689453125">
        <ele>899.5999755859375</ele>
        <time>2020-08-08T13:46:26.000Z</time>
      </trkpt>
      <trkpt lat="42.30761309154331684112548828125" lon="2.63394140638411045074462890625">
        <ele>899.4000244140625</ele>
        <time>2020-08-08T13:46:34.000Z</time>
      </trkpt>
      <trkpt lat="42.307631112635135650634765625" lon="2.63395364396274089813232421875">
        <ele>899.4000244140625</ele>
        <time>2020-08-08T13:46:45.000Z</time>
      </trkpt>
      <trkpt lat="42.30770546011626720428466796875" lon="2.63397895731031894683837890625">
        <ele>900.4000244140625</ele>
        <time>2020-08-08T13:46:53.000Z</time>
      </trkpt>
      <trkpt lat="42.30773597024381160736083984375" lon="2.6340164244174957275390625">
        <ele>900.79998779296875</ele>
        <time>2020-08-08T13:46:57.000Z</time>
      </trkpt>
      <trkpt lat="42.30777150951325893402099609375" lon="2.634044922888278961181640625">
        <ele>901</ele>
        <time>2020-08-08T13:47:00.000Z</time>
      </trkpt>
      <trkpt lat="42.30780847370624542236328125" lon="2.634075768291950225830078125">
        <ele>901.20001220703125</ele>
        <time>2020-08-08T13:47:03.000Z</time>
      </trkpt>
      <trkpt lat="42.307815849781036376953125" lon="2.63408725149929523468017578125">
        <ele>901.4000244140625</ele>
        <time>2020-08-08T13:47:04.000Z</time>
      </trkpt>
      <trkpt lat="42.30782263912260532379150390625" lon="2.6341156661510467529296875">
        <ele>901.5999755859375</ele>
        <time>2020-08-08T13:47:06.000Z</time>
      </trkpt>
      <trkpt lat="42.30783856473863124847412109375" lon="2.63416268862783908843994140625">
        <ele>901.79998779296875</ele>
        <time>2020-08-08T13:47:09.000Z</time>
      </trkpt>
      <trkpt lat="42.30786806903779506683349609375" lon="2.63421147130429744720458984375">
        <ele>902</ele>
        <time>2020-08-08T13:47:12.000Z</time>
      </trkpt>
      <trkpt lat="42.30790897272527217864990234375" lon="2.6342804543673992156982421875">
        <ele>902.4000244140625</ele>
        <time>2020-08-08T13:47:16.000Z</time>
      </trkpt>
      <trkpt lat="42.30793981812894344329833984375" lon="2.634342648088932037353515625">
        <ele>903</ele>
        <time>2020-08-08T13:47:20.000Z</time>
      </trkpt>
      <trkpt lat="42.30799798853695392608642578125" lon="2.6344273053109645843505859375">
        <ele>903.5999755859375</ele>
        <time>2020-08-08T13:47:25.000Z</time>
      </trkpt>
      <trkpt lat="42.30801039375364780426025390625" lon="2.63444918207824230194091796875">
        <ele>903.5999755859375</ele>
        <time>2020-08-08T13:47:26.000Z</time>
      </trkpt>
      <trkpt lat="42.30808448977768421173095703125" lon="2.634541131556034088134765625">
        <ele>903.79998779296875</ele>
        <time>2020-08-08T13:47:32.000Z</time>
      </trkpt>
      <trkpt lat="42.30813796631991863250732421875" lon="2.63463643379509449005126953125">
        <ele>904.20001220703125</ele>
        <time>2020-08-08T13:47:37.000Z</time>
      </trkpt>
      <trkpt lat="42.30818658135831356048583984375" lon="2.63474338687956333160400390625">
        <ele>904.4000244140625</ele>
        <time>2020-08-08T13:47:43.000Z</time>
      </trkpt>
      <trkpt lat="42.30823787860572338104248046875" lon="2.6348252780735492706298828125">
        <ele>905.5999755859375</ele>
        <time>2020-08-08T13:47:48.000Z</time>
      </trkpt>
      <trkpt lat="42.30824743397533893585205078125" lon="2.634837515652179718017578125">
        <ele>905.79998779296875</ele>
        <time>2020-08-08T13:47:49.000Z</time>
      </trkpt>
      <trkpt lat="42.30825782753527164459228515625" lon="2.63484933413565158843994140625">
        <ele>905.79998779296875</ele>
        <time>2020-08-08T13:47:50.000Z</time>
      </trkpt>
      <trkpt lat="42.3082807101309299468994140625" lon="2.63486064970493316650390625">
        <ele>906</ele>
        <time>2020-08-08T13:47:52.000Z</time>
      </trkpt>
      <trkpt lat="42.30830661021173000335693359375" lon="2.6348410360515117645263671875">
        <ele>906.20001220703125</ele>
        <time>2020-08-08T13:47:55.000Z</time>
      </trkpt>
      <trkpt lat="42.30829688720405101776123046875" lon="2.6347857154905796051025390625">
        <ele>906.5999755859375</ele>
        <time>2020-08-08T13:47:58.000Z</time>
      </trkpt>
      <trkpt lat="42.308285571634769439697265625" lon="2.63476015068590641021728515625">
        <ele>906.79998779296875</ele>
        <time>2020-08-08T13:48:00.000Z</time>
      </trkpt>
      <trkpt lat="42.30828213505446910858154296875" lon="2.634751684963703155517578125">
        <ele>906.79998779296875</ele>
        <time>2020-08-08T13:48:01.000Z</time>
      </trkpt>
      <trkpt lat="42.30827978812158107757568359375" lon="2.6347374357283115386962890625">
        <ele>907</ele>
        <time>2020-08-08T13:48:06.000Z</time>
      </trkpt>
      <trkpt lat="42.30826319195330142974853515625" lon="2.63470365665853023529052734375">
        <ele>907</ele>
        <time>2020-08-08T13:48:12.000Z</time>
      </trkpt>
      <trkpt lat="42.30822547338902950286865234375" lon="2.63459770940244197845458984375">
        <ele>907</ele>
        <time>2020-08-08T13:48:17.000Z</time>
      </trkpt>
      <trkpt lat="42.30817669071257114410400390625" lon="2.634447924792766571044921875">
        <ele>906.79998779296875</ele>
        <time>2020-08-08T13:48:24.000Z</time>
      </trkpt>
      <trkpt lat="42.3081631958484649658203125" lon="2.634390927851200103759765625">
        <ele>907.4000244140625</ele>
        <time>2020-08-08T13:48:27.000Z</time>
      </trkpt>
      <trkpt lat="42.30815774761140346527099609375" lon="2.63431440107524394989013671875">
        <ele>908</ele>
        <time>2020-08-08T13:48:31.000Z</time>
      </trkpt>
      <trkpt lat="42.3081556521356105804443359375" lon="2.6342754252254962921142578125">
        <ele>908</ele>
        <time>2020-08-08T13:48:36.000Z</time>
      </trkpt>
      <trkpt lat="42.30816118419170379638671875" lon="2.63423292897641658782958984375">
        <ele>908.4000244140625</ele>
        <time>2020-08-08T13:48:42.000Z</time>
      </trkpt>
      <trkpt lat="42.30815724469721317291259765625" lon="2.63422857038676738739013671875">
        <ele>909</ele>
        <time>2020-08-08T13:48:45.000Z</time>
      </trkpt>
      <trkpt lat="42.3081452585756778717041015625" lon="2.63417324982583522796630859375">
        <ele>909.5999755859375</ele>
        <time>2020-08-08T13:48:52.000Z</time>
      </trkpt>
      <trkpt lat="42.30814643204212188720703125" lon="2.63411809690296649932861328125">
        <ele>910.4000244140625</ele>
        <time>2020-08-08T13:49:01.000Z</time>
      </trkpt>
      <trkpt lat="42.30814852751791477203369140625" lon="2.63411826454102993011474609375">
        <ele>910.5999755859375</ele>
        <time>2020-08-08T13:49:03.000Z</time>
      </trkpt>
      <trkpt lat="42.30815581977367401123046875" lon="2.63409278355538845062255859375">
        <ele>910.5999755859375</ele>
        <time>2020-08-08T13:49:08.000Z</time>
      </trkpt>
      <trkpt lat="42.308162190020084381103515625" lon="2.6340378820896148681640625">
        <ele>911.4000244140625</ele>
        <time>2020-08-08T13:49:14.000Z</time>
      </trkpt>
      <trkpt lat="42.30817551724612712860107421875" lon="2.6340025104582309722900390625">
        <ele>911.79998779296875</ele>
        <time>2020-08-08T13:49:18.000Z</time>
      </trkpt>
      <trkpt lat="42.3081873357295989990234375" lon="2.6339552365243434906005859375">
        <ele>912.5999755859375</ele>
        <time>2020-08-08T13:49:24.000Z</time>
      </trkpt>
      <trkpt lat="42.30819613672792911529541015625" lon="2.63391726650297641754150390625">
        <ele>913.4000244140625</ele>
        <time>2020-08-08T13:49:29.000Z</time>
      </trkpt>
      <trkpt lat="42.3082019202411174774169921875" lon="2.63391240499913692474365234375">
        <ele>913.79998779296875</ele>
        <time>2020-08-08T13:49:30.000Z</time>
      </trkpt>
      <trkpt lat="42.30821373872458934783935546875" lon="2.6338365487754344940185546875">
        <ele>914.79998779296875</ele>
        <time>2020-08-08T13:49:38.000Z</time>
      </trkpt>
      <trkpt lat="42.30822329409420490264892578125" lon="2.63378852047026157379150390625">
        <ele>915.4000244140625</ele>
        <time>2020-08-08T13:49:46.000Z</time>
      </trkpt>
      <trkpt lat="42.30822086334228515625" lon="2.63375532813370227813720703125">
        <ele>916</ele>
        <time>2020-08-08T13:49:50.000Z</time>
      </trkpt>
      <trkpt lat="42.30820904485881328582763671875" lon="2.6337145082652568817138671875">
        <ele>916.5999755859375</ele>
        <time>2020-08-08T13:49:55.000Z</time>
      </trkpt>
      <trkpt lat="42.30819395743310451507568359375" lon="2.63367737643420696258544921875">
        <ele>917</ele>
        <time>2020-08-08T13:49:59.000Z</time>
      </trkpt>
      <trkpt lat="42.30817015282809734344482421875" lon="2.6336283423006534576416015625">
        <ele>917.79998779296875</ele>
        <time>2020-08-08T13:50:04.000Z</time>
      </trkpt>
      <trkpt lat="42.3081529699265956878662109375" lon="2.63355382718145847320556640625">
        <ele>918.20001220703125</ele>
        <time>2020-08-08T13:50:12.000Z</time>
      </trkpt>
      <trkpt lat="42.30815070681273937225341796875" lon="2.63354427181184291839599609375">
        <ele>918.20001220703125</ele>
        <time>2020-08-08T13:50:13.000Z</time>
      </trkpt>
      <trkpt lat="42.30812673456966876983642578125" lon="2.63347235508263111114501953125">
        <ele>919</ele>
        <time>2020-08-08T13:50:22.000Z</time>
      </trkpt>
      <trkpt lat="42.30811751447618007659912109375" lon="2.633460201323032379150390625">
        <ele>919</ele>
        <time>2020-08-08T13:50:23.000Z</time>
      </trkpt>
      <trkpt lat="42.30810091830790042877197265625" lon="2.6334236562252044677734375">
        <ele>919.5999755859375</ele>
        <time>2020-08-08T13:50:28.000Z</time>
      </trkpt>
      <trkpt lat="42.30807376094162464141845703125" lon="2.63337696902453899383544921875">
        <ele>919.4000244140625</ele>
        <time>2020-08-08T13:50:35.000Z</time>
      </trkpt>
      <trkpt lat="42.30802078731358051300048828125" lon="2.6332954131066799163818359375">
        <ele>919.79998779296875</ele>
        <time>2020-08-08T13:50:40.000Z</time>
      </trkpt>
      <trkpt lat="42.30799882672727108001708984375" lon="2.633266746997833251953125">
        <ele>920.5999755859375</ele>
        <time>2020-08-08T13:50:42.000Z</time>
      </trkpt>
      <trkpt lat="42.30798927135765552520751953125" lon="2.63324822299182415008544921875">
        <ele>920.5999755859375</ele>
        <time>2020-08-08T13:50:43.000Z</time>
      </trkpt>
      <trkpt lat="42.30796932242810726165771484375" lon="2.63322073034942150115966796875">
        <ele>920.5999755859375</ele>
        <time>2020-08-08T13:50:45.000Z</time>
      </trkpt>
      <trkpt lat="42.3079484514892101287841796875" lon="2.63320044614374637603759765625">
        <ele>920.79998779296875</ele>
        <time>2020-08-08T13:50:47.000Z</time>
      </trkpt>
      <trkpt lat="42.30790310539305210113525390625" lon="2.633144371211528778076171875">
        <ele>921.79998779296875</ele>
        <time>2020-08-08T13:50:51.000Z</time>
      </trkpt>
      <trkpt lat="42.3078596033155918121337890625" lon="2.63308812864124774932861328125">
        <ele>923</ele>
        <time>2020-08-08T13:50:55.000Z</time>
      </trkpt>
      <trkpt lat="42.3078502155840396881103515625" lon="2.63307706452906131744384765625">
        <ele>923.20001220703125</ele>
        <time>2020-08-08T13:50:56.000Z</time>
      </trkpt>
      <trkpt lat="42.30781911872327327728271484375" lon="2.63304420746862888336181640625">
        <ele>924</ele>
        <time>2020-08-08T13:50:59.000Z</time>
      </trkpt>
      <trkpt lat="42.307765893638134002685546875" lon="2.632994838058948516845703125">
        <ele>925</ele>
        <time>2020-08-08T13:51:03.000Z</time>
      </trkpt>
      <trkpt lat="42.3077526502311229705810546875" lon="2.63298176229000091552734375">
        <ele>925.4000244140625</ele>
        <time>2020-08-08T13:51:04.000Z</time>
      </trkpt>
      <trkpt lat="42.30774267576634883880615234375" lon="2.63296541757881641387939453125">
        <ele>925.5999755859375</ele>
        <time>2020-08-08T13:51:05.000Z</time>
      </trkpt>
      <trkpt lat="42.30771836824715137481689453125" lon="2.6329302974045276641845703125">
        <ele>926.4000244140625</ele>
        <time>2020-08-08T13:51:07.000Z</time>
      </trkpt>
      <trkpt lat="42.30770562775433063507080078125" lon="2.6329162158071994781494140625">
        <ele>926.5999755859375</ele>
        <time>2020-08-08T13:51:08.000Z</time>
      </trkpt>
      <trkpt lat="42.3076929710805416107177734375" lon="2.63290406204760074615478515625">
        <ele>927</ele>
        <time>2020-08-08T13:51:09.000Z</time>
      </trkpt>
      <trkpt lat="42.3076510615646839141845703125" lon="2.63286634348332881927490234375">
        <ele>927.4000244140625</ele>
        <time>2020-08-08T13:51:12.000Z</time>
      </trkpt>
      <trkpt lat="42.307610325515270233154296875" lon="2.6328300498425960540771484375">
        <ele>928</ele>
        <time>2020-08-08T13:51:15.000Z</time>
      </trkpt>
      <trkpt lat="42.3076021112501621246337890625" lon="2.6328201591968536376953125">
        <ele>928.20001220703125</ele>
        <time>2020-08-08T13:51:16.000Z</time>
      </trkpt>
      <trkpt lat="42.307600267231464385986328125" lon="2.63281320221722126007080078125">
        <ele>928.4000244140625</ele>
        <time>2020-08-08T13:51:17.000Z</time>
      </trkpt>
      <trkpt lat="42.307599596679210662841796875" lon="2.63281890191137790679931640625">
        <ele>928.79998779296875</ele>
        <time>2020-08-08T13:51:19.000Z</time>
      </trkpt>
      <trkpt lat="42.30755089782178401947021484375" lon="2.6327794231474399566650390625">
        <ele>929.20001220703125</ele>
        <time>2020-08-08T13:51:26.000Z</time>
      </trkpt>
      <trkpt lat="42.3075420968234539031982421875" lon="2.6327707059681415557861328125">
        <ele>929.4000244140625</ele>
        <time>2020-08-08T13:51:27.000Z</time>
      </trkpt>
      <trkpt lat="42.30751971714198589324951171875" lon="2.63273826800286769866943359375">
        <ele>930</ele>
        <time>2020-08-08T13:51:35.000Z</time>
      </trkpt>
      <trkpt lat="42.30752147734165191650390625" lon="2.632736004889011383056640625">
        <ele>930.4000244140625</ele>
        <time>2020-08-08T13:51:39.000Z</time>
      </trkpt>
      <trkpt lat="42.30752156116068363189697265625" lon="2.6327358372509479522705078125">
        <ele>930.20001220703125</ele>
        <time>2020-08-08T13:51:50.000Z</time>
      </trkpt>
      <trkpt lat="42.30748920701444149017333984375" lon="2.63272351585328578948974609375">
        <ele>930.5999755859375</ele>
        <time>2020-08-08T13:52:06.000Z</time>
      </trkpt>
      <trkpt lat="42.30744394473731517791748046875" lon="2.63271898962557315826416015625">
        <ele>931.5999755859375</ele>
        <time>2020-08-08T13:52:10.000Z</time>
      </trkpt>
      <trkpt lat="42.30738795362412929534912109375" lon="2.632719576358795166015625">
        <ele>931.79998779296875</ele>
        <time>2020-08-08T13:52:13.000Z</time>
      </trkpt>
      <trkpt lat="42.3073218204081058502197265625" lon="2.632688395678997039794921875">
        <ele>932.5999755859375</ele>
        <time>2020-08-08T13:52:17.000Z</time>
      </trkpt>
      <trkpt lat="42.3073094151914119720458984375" lon="2.6326724700629711151123046875">
        <ele>933</ele>
        <time>2020-08-08T13:52:18.000Z</time>
      </trkpt>
      <trkpt lat="42.30730648152530193328857421875" lon="2.63261404819786548614501953125">
        <ele>933.79998779296875</ele>
        <time>2020-08-08T13:52:21.000Z</time>
      </trkpt>
      <trkpt lat="42.3073171265423297882080078125" lon="2.63260885141789913177490234375">
        <ele>933.79998779296875</ele>
        <time>2020-08-08T13:52:22.000Z</time>
      </trkpt>
      <trkpt lat="42.30734503827989101409912109375" lon="2.632609270513057708740234375">
        <ele>934.4000244140625</ele>
        <time>2020-08-08T13:52:24.000Z</time>
      </trkpt>
      <trkpt lat="42.30737387202680110931396484375" lon="2.6326104439795017242431640625">
        <ele>934.79998779296875</ele>
        <time>2020-08-08T13:52:26.000Z</time>
      </trkpt>
      <trkpt lat="42.30740220285952091217041015625" lon="2.632598541676998138427734375">
        <ele>934.79998779296875</ele>
        <time>2020-08-08T13:52:28.000Z</time>
      </trkpt>
      <trkpt lat="42.30746188201010227203369140625" lon="2.63255621306598186492919921875">
        <ele>935.79998779296875</ele>
        <time>2020-08-08T13:52:33.000Z</time>
      </trkpt>
      <trkpt lat="42.30747596360743045806884765625" lon="2.632548920810222625732421875">
        <ele>935.79998779296875</ele>
        <time>2020-08-08T13:52:34.000Z</time>
      </trkpt>
      <trkpt lat="42.30752684175968170166015625" lon="2.63251732103526592254638671875">
        <ele>936.79998779296875</ele>
        <time>2020-08-08T13:52:38.000Z</time>
      </trkpt>
      <trkpt lat="42.3075692541897296905517578125" lon="2.63251262716948986053466796875">
        <ele>937.20001220703125</ele>
        <time>2020-08-08T13:52:41.000Z</time>
      </trkpt>
      <trkpt lat="42.3075964115560054779052734375" lon="2.632500641047954559326171875">
        <ele>938</ele>
        <time>2020-08-08T13:52:43.000Z</time>
      </trkpt>
      <trkpt lat="42.30760806240141391754150390625" lon="2.63248748145997524261474609375">
        <ele>938.20001220703125</ele>
        <time>2020-08-08T13:52:44.000Z</time>
      </trkpt>
      <trkpt lat="42.30761577375233173370361328125" lon="2.632467113435268402099609375">
        <ele>938.5999755859375</ele>
        <time>2020-08-08T13:52:46.000Z</time>
      </trkpt>
      <trkpt lat="42.30761460028588771820068359375" lon="2.6324645988643169403076171875">
        <ele>939</ele>
        <time>2020-08-08T13:52:50.000Z</time>
      </trkpt>
      <trkpt lat="42.3076158575713634490966796875" lon="2.63243434019386768341064453125">
        <ele>939.4000244140625</ele>
        <time>2020-08-08T13:52:55.000Z</time>
      </trkpt>
      <trkpt lat="42.3076114989817142486572265625" lon="2.632416822016239166259765625">
        <ele>940</ele>
        <time>2020-08-08T13:53:02.000Z</time>
      </trkpt>
      <trkpt lat="42.30761275626718997955322265625" lon="2.63241707347333431243896484375">
        <ele>940.20001220703125</ele>
        <time>2020-08-08T13:53:03.000Z</time>
      </trkpt>
      <trkpt lat="42.3076133430004119873046875" lon="2.63241715729236602783203125">
        <ele>940.20001220703125</ele>
        <time>2020-08-08T13:53:17.000Z</time>
      </trkpt>
      <trkpt lat="42.3076044581830501556396484375" lon="2.6324015669524669647216796875">
        <ele>940.20001220703125</ele>
        <time>2020-08-08T13:53:35.000Z</time>
      </trkpt>
      <trkpt lat="42.30758392252027988433837890625" lon="2.63238220475614070892333984375">
        <ele>941</ele>
        <time>2020-08-08T13:53:41.000Z</time>
      </trkpt>
      <trkpt lat="42.3075699247419834136962890625" lon="2.63236711733043193817138671875">
        <ele>941.79998779296875</ele>
        <time>2020-08-08T13:53:44.000Z</time>
      </trkpt>
      <trkpt lat="42.30755944736301898956298828125" lon="2.63235278427600860595703125">
        <ele>942.20001220703125</ele>
        <time>2020-08-08T13:53:46.000Z</time>
      </trkpt>
      <trkpt lat="42.3075021989643573760986328125" lon="2.63229536823928356170654296875">
        <ele>943</ele>
        <time>2020-08-08T13:53:53.000Z</time>
      </trkpt>
      <trkpt lat="42.30749222449958324432373046875" lon="2.63228413648903369903564453125">
        <ele>943.20001220703125</ele>
        <time>2020-08-08T13:53:55.000Z</time>
      </trkpt>
      <trkpt lat="42.30745173990726470947265625" lon="2.63225060887634754180908203125">
        <ele>944</ele>
        <time>2020-08-08T13:54:02.000Z</time>
      </trkpt>
      <trkpt lat="42.3074311204254627227783203125" lon="2.6322369463741779327392578125">
        <ele>944.5999755859375</ele>
        <time>2020-08-08T13:54:05.000Z</time>
      </trkpt>
      <trkpt lat="42.30738912709057331085205078125" lon="2.63222898356616497039794921875">
        <ele>945.5999755859375</ele>
        <time>2020-08-08T13:54:12.000Z</time>
      </trkpt>
      <trkpt lat="42.30738191865384578704833984375" lon="2.63223074376583099365234375">
        <ele>945.5999755859375</ele>
        <time>2020-08-08T13:54:13.000Z</time>
      </trkpt>
      <trkpt lat="42.30734604410827159881591796875" lon="2.63222537934780120849609375">
        <ele>946.5999755859375</ele>
        <time>2020-08-08T13:54:19.000Z</time>
      </trkpt>
      <trkpt lat="42.307340092957019805908203125" lon="2.63221993111073970794677734375">
        <ele>946.79998779296875</ele>
        <time>2020-08-08T13:54:20.000Z</time>
      </trkpt>
      <trkpt lat="42.3073303699493408203125" lon="2.63218321837484836578369140625">
        <ele>947.5999755859375</ele>
        <time>2020-08-08T13:54:25.000Z</time>
      </trkpt>
      <trkpt lat="42.30733104050159454345703125" lon="2.63217332772910594940185546875">
        <ele>947.5999755859375</ele>
        <time>2020-08-08T13:54:26.000Z</time>
      </trkpt>
      <trkpt lat="42.307329364120960235595703125" lon="2.63216259889304637908935546875">
        <ele>947.79998779296875</ele>
        <time>2020-08-08T13:54:27.000Z</time>
      </trkpt>
      <trkpt lat="42.30733179487287998199462890625" lon="2.63211213983595371246337890625">
        <ele>948.5999755859375</ele>
        <time>2020-08-08T13:54:34.000Z</time>
      </trkpt>
      <trkpt lat="42.30733246542513370513916015625" lon="2.63210359029471874237060546875">
        <ele>948.5999755859375</ele>
        <time>2020-08-08T13:54:35.000Z</time>
      </trkpt>
      <trkpt lat="42.3073489777743816375732421875" lon="2.6320609264075756072998046875">
        <ele>949.79998779296875</ele>
        <time>2020-08-08T13:54:43.000Z</time>
      </trkpt>
      <trkpt lat="42.3073533363640308380126953125" lon="2.63205531053245067596435546875">
        <ele>949.79998779296875</ele>
        <time>2020-08-08T13:54:44.000Z</time>
      </trkpt>
      <trkpt lat="42.307384349405765533447265625" lon="2.6319965533912181854248046875">
        <ele>950.79998779296875</ele>
        <time>2020-08-08T13:54:53.000Z</time>
      </trkpt>
      <trkpt lat="42.3074026219546794891357421875" lon="2.631930671632289886474609375">
        <ele>951.79998779296875</ele>
        <time>2020-08-08T13:55:01.000Z</time>
      </trkpt>
      <trkpt lat="42.30740153230726718902587890625" lon="2.63192371465265750885009765625">
        <ele>951.79998779296875</ele>
        <time>2020-08-08T13:55:02.000Z</time>
      </trkpt>
      <trkpt lat="42.30740002356469631195068359375" lon="2.63190443627536296844482421875">
        <ele>952.20001220703125</ele>
        <time>2020-08-08T13:55:04.000Z</time>
      </trkpt>
      <trkpt lat="42.30738627724349498748779296875" lon="2.63186772353947162628173828125">
        <ele>952.79998779296875</ele>
        <time>2020-08-08T13:55:09.000Z</time>
      </trkpt>
      <trkpt lat="42.30738510377705097198486328125" lon="2.631860263645648956298828125">
        <ele>953</ele>
        <time>2020-08-08T13:55:10.000Z</time>
      </trkpt>
      <trkpt lat="42.30736850760877132415771484375" lon="2.63183251954615116119384765625">
        <ele>953.79998779296875</ele>
        <time>2020-08-08T13:55:16.000Z</time>
      </trkpt>
      <trkpt lat="42.30736314319074153900146484375" lon="2.631834447383880615234375">
        <ele>954</ele>
        <time>2020-08-08T13:55:24.000Z</time>
      </trkpt>
      <trkpt lat="42.3073650710284709930419921875" lon="2.63184945099055767059326171875">
        <ele>954</ele>
        <time>2020-08-08T13:55:36.000Z</time>
      </trkpt>
      <trkpt lat="42.307364903390407562255859375" lon="2.63184961862862110137939453125">
        <ele>953.79998779296875</ele>
        <time>2020-08-08T13:55:52.000Z</time>
      </trkpt>
      <trkpt lat="42.30733816511929035186767578125" lon="2.63182179071009159088134765625">
        <ele>954.20001220703125</ele>
        <time>2020-08-08T13:56:00.000Z</time>
      </trkpt>
      <trkpt lat="42.30732500553131103515625" lon="2.63180234469473361968994140625">
        <ele>954.20001220703125</ele>
        <time>2020-08-08T13:56:02.000Z</time>
      </trkpt>
      <trkpt lat="42.3073084093630313873291015625" lon="2.63176931999623775482177734375">
        <ele>954.79998779296875</ele>
        <time>2020-08-08T13:56:06.000Z</time>
      </trkpt>
      <trkpt lat="42.30730296112596988677978515625" lon="2.63175121508538722991943359375">
        <ele>955.4000244140625</ele>
        <time>2020-08-08T13:56:08.000Z</time>
      </trkpt>
      <trkpt lat="42.30728519149124622344970703125" lon="2.631669156253337860107421875">
        <ele>955.4000244140625</ele>
        <time>2020-08-08T13:56:15.000Z</time>
      </trkpt>
      <trkpt lat="42.3072849400341510772705078125" lon="2.6316552422940731048583984375">
        <ele>955.20001220703125</ele>
        <time>2020-08-08T13:56:16.000Z</time>
      </trkpt>
      <trkpt lat="42.30729290284216403961181640625" lon="2.63156890869140625">
        <ele>954.5999755859375</ele>
        <time>2020-08-08T13:56:24.000Z</time>
      </trkpt>
      <trkpt lat="42.3072923161089420318603515625" lon="2.631540410220623016357421875">
        <ele>954</ele>
        <time>2020-08-08T13:56:31.000Z</time>
      </trkpt>
      <trkpt lat="42.30729508213698863983154296875" lon="2.6315047033131122589111328125">
        <ele>954</ele>
        <time>2020-08-08T13:56:39.000Z</time>
      </trkpt>
      <trkpt lat="42.30729239992797374725341796875" lon="2.63149489648640155792236328125">
        <ele>953.79998779296875</ele>
        <time>2020-08-08T13:56:47.000Z</time>
      </trkpt>
      <trkpt lat="42.30729239992797374725341796875" lon="2.6314951479434967041015625">
        <ele>953.5999755859375</ele>
        <time>2020-08-08T13:56:48.000Z</time>
      </trkpt>
      <trkpt lat="42.307295836508274078369140625" lon="2.63150160200893878936767578125">
        <ele>953.5999755859375</ele>
        <time>2020-08-08T13:56:59.000Z</time>
      </trkpt>
      <trkpt lat="42.30730346404016017913818359375" lon="2.63148986734449863433837890625">
        <ele>953.20001220703125</ele>
        <time>2020-08-08T13:57:09.000Z</time>
      </trkpt>
      <trkpt lat="42.30730287730693817138671875" lon="2.631485424935817718505859375">
        <ele>953.20001220703125</ele>
        <time>2020-08-08T13:57:19.000Z</time>
      </trkpt>
      <trkpt lat="42.30730061419308185577392578125" lon="2.6314795576035976409912109375">
        <ele>953.4000244140625</ele>
        <time>2020-08-08T13:57:40.000Z</time>
      </trkpt>
      <trkpt lat="42.3073017038404941558837890625" lon="2.6314778812229633331298828125">
        <ele>953.5999755859375</ele>
        <time>2020-08-08T13:57:53.000Z</time>
      </trkpt>
      <trkpt lat="42.30729885399341583251953125" lon="2.6314745284616947174072265625">
        <ele>953.5999755859375</ele>
        <time>2020-08-08T13:58:06.000Z</time>
      </trkpt>
      <trkpt lat="42.30730413459241390228271484375" lon="2.63147964142262935638427734375">
        <ele>953.5999755859375</ele>
        <time>2020-08-08T13:58:25.000Z</time>
      </trkpt>
      <trkpt lat="42.307305224239826202392578125" lon="2.631487436592578887939453125">
        <ele>953.4000244140625</ele>
        <time>2020-08-08T13:58:33.000Z</time>
      </trkpt>
      <trkpt lat="42.307307906448841094970703125" lon="2.63149171136319637298583984375">
        <ele>953.79998779296875</ele>
        <time>2020-08-08T13:58:55.000Z</time>
      </trkpt>
      <trkpt lat="42.307311259210109710693359375" lon="2.63148986734449863433837890625">
        <ele>953.4000244140625</ele>
        <time>2020-08-08T13:59:16.000Z</time>
      </trkpt>
      <trkpt lat="42.3073164559900760650634765625" lon="2.63148567639291286468505859375">
        <ele>953.4000244140625</ele>
        <time>2020-08-08T13:59:30.000Z</time>
      </trkpt>
      <trkpt lat="42.30731972493231296539306640625" lon="2.63146874494850635528564453125">
        <ele>953.4000244140625</ele>
        <time>2020-08-08T13:59:35.000Z</time>
      </trkpt>
      <trkpt lat="42.307327687740325927734375" lon="2.63143421150743961334228515625">
        <ele>953.20001220703125</ele>
        <time>2020-08-08T13:59:37.000Z</time>
      </trkpt>
      <trkpt lat="42.30733145959675312042236328125" lon="2.63135366141796112060546875">
        <ele>952.20001220703125</ele>
        <time>2020-08-08T13:59:41.000Z</time>
      </trkpt>
      <trkpt lat="42.307348810136318206787109375" lon="2.6312993466854095458984375">
        <ele>951.79998779296875</ele>
        <time>2020-08-08T13:59:43.000Z</time>
      </trkpt>
      <trkpt lat="42.3073788173496723175048828125" lon="2.6311674155294895172119140625">
        <ele>950.4000244140625</ele>
        <time>2020-08-08T13:59:47.000Z</time>
      </trkpt>
      <trkpt lat="42.3073855228722095489501953125" lon="2.63113103806972503662109375">
        <ele>950</ele>
        <time>2020-08-08T13:59:48.000Z</time>
      </trkpt>
      <trkpt lat="42.3074056394398212432861328125" lon="2.63102148659527301788330078125">
        <ele>949.20001220703125</ele>
        <time>2020-08-08T13:59:51.000Z</time>
      </trkpt>
      <trkpt lat="42.30740572325885295867919921875" lon="2.630987204611301422119140625">
        <ele>948.79998779296875</ele>
        <time>2020-08-08T13:59:52.000Z</time>
      </trkpt>
      <trkpt lat="42.3074019514024257659912109375" lon="2.63095309026539325714111328125">
        <ele>948.4000244140625</ele>
        <time>2020-08-08T13:59:53.000Z</time>
      </trkpt>
      <trkpt lat="42.307403124868869781494140625" lon="2.63091553933918476104736328125">
        <ele>947.5999755859375</ele>
        <time>2020-08-08T13:59:54.000Z</time>
      </trkpt>
      <trkpt lat="42.30741418898105621337890625" lon="2.63085544109344482421875">
        <ele>947</ele>
        <time>2020-08-08T13:59:56.000Z</time>
      </trkpt>
      <trkpt lat="42.30741829611361026763916015625" lon="2.63082719407975673675537109375">
        <ele>946.5999755859375</ele>
        <time>2020-08-08T13:59:57.000Z</time>
      </trkpt>
      <trkpt lat="42.3074354790151119232177734375" lon="2.63073063455522060394287109375">
        <ele>945.5999755859375</ele>
        <time>2020-08-08T14:00:00.000Z</time>
      </trkpt>
      <trkpt lat="42.3074388317763805389404296875" lon="2.630696184933185577392578125">
        <ele>945</ele>
        <time>2020-08-08T14:00:01.000Z</time>
      </trkpt>
      <trkpt lat="42.30743841268122196197509765625" lon="2.63066031038761138916015625">
        <ele>944.5999755859375</ele>
        <time>2020-08-08T14:00:02.000Z</time>
      </trkpt>
      <trkpt lat="42.30743355117738246917724609375" lon="2.63055704534053802490234375">
        <ele>943.5999755859375</ele>
        <time>2020-08-08T14:00:05.000Z</time>
      </trkpt>
      <trkpt lat="42.307429946959018707275390625" lon="2.63048999011516571044921875">
        <ele>943.20001220703125</ele>
        <time>2020-08-08T14:00:07.000Z</time>
      </trkpt>
      <trkpt lat="42.3074284382164478302001953125" lon="2.6304638385772705078125">
        <ele>942.4000244140625</ele>
        <time>2020-08-08T14:00:08.000Z</time>
      </trkpt>
      <trkpt lat="42.3074260912835597991943359375" lon="2.63035562820732593536376953125">
        <ele>941</ele>
        <time>2020-08-08T14:00:11.000Z</time>
      </trkpt>
      <trkpt lat="42.30742014013230800628662109375" lon="2.63017038814723491668701171875">
        <ele>940.20001220703125</ele>
        <time>2020-08-08T14:00:16.000Z</time>
      </trkpt>
      <trkpt lat="42.307416535913944244384765625" lon="2.63012814335525035858154296875">
        <ele>939.79998779296875</ele>
        <time>2020-08-08T14:00:17.000Z</time>
      </trkpt>
      <trkpt lat="42.30742215178906917572021484375" lon="2.63002471067011356353759765625">
        <ele>938.79998779296875</ele>
        <time>2020-08-08T14:00:20.000Z</time>
      </trkpt>
      <trkpt lat="42.3074162006378173828125" lon="2.62981482781469821929931640625">
        <ele>937.79998779296875</ele>
        <time>2020-08-08T14:00:26.000Z</time>
      </trkpt>
      <trkpt lat="42.3074120096862316131591796875" lon="2.62977652251720428466796875">
        <ele>937.5999755859375</ele>
        <time>2020-08-08T14:00:27.000Z</time>
      </trkpt>
      <trkpt lat="42.3074079863727092742919921875" lon="2.62963579036295413970947265625">
        <ele>936.4000244140625</ele>
        <time>2020-08-08T14:00:31.000Z</time>
      </trkpt>
      <trkpt lat="42.30741125531494617462158203125" lon="2.6295507140457630157470703125">
        <ele>935.5999755859375</ele>
        <time>2020-08-08T14:00:33.000Z</time>
      </trkpt>
      <trkpt lat="42.3074106685817241668701171875" lon="2.6295158453285694122314453125">
        <ele>935.20001220703125</ele>
        <time>2020-08-08T14:00:34.000Z</time>
      </trkpt>
      <trkpt lat="42.30741016566753387451171875" lon="2.62939254753291606903076171875">
        <ele>935.20001220703125</ele>
        <time>2020-08-08T14:00:38.000Z</time>
      </trkpt>
      <trkpt lat="42.30740505270659923553466796875" lon="2.629225663840770721435546875">
        <ele>933.5999755859375</ele>
        <time>2020-08-08T14:00:43.000Z</time>
      </trkpt>
      <trkpt lat="42.30741150677204132080078125" lon="2.6292090676724910736083984375">
        <ele>932.5999755859375</ele>
        <time>2020-08-08T14:00:46.000Z</time>
      </trkpt>
      <trkpt lat="42.307410500943660736083984375" lon="2.629204206168651580810546875">
        <ele>932.4000244140625</ele>
        <time>2020-08-08T14:00:48.000Z</time>
      </trkpt>
      <trkpt lat="42.30741142295300960540771484375" lon="2.62921401299536228179931640625">
        <ele>932.5999755859375</ele>
        <time>2020-08-08T14:01:01.000Z</time>
      </trkpt>
      <trkpt lat="42.30741242878139019012451171875" lon="2.62921887449920177459716796875">
        <ele>932.5999755859375</ele>
        <time>2020-08-08T14:01:17.000Z</time>
      </trkpt>
      <trkpt lat="42.3074116744101047515869140625" lon="2.62921971268951892852783203125">
        <ele>932.4000244140625</ele>
        <time>2020-08-08T14:01:33.000Z</time>
      </trkpt>
      <trkpt lat="42.307411842048168182373046875" lon="2.62921937741339206695556640625">
        <ele>932.4000244140625</ele>
        <time>2020-08-08T14:02:13.000Z</time>
      </trkpt>
      <trkpt lat="42.30741175822913646697998046875" lon="2.62922490946948528289794921875">
        <ele>932.4000244140625</ele>
        <time>2020-08-08T14:02:22.000Z</time>
      </trkpt>
      <trkpt lat="42.30742734856903553009033203125" lon="2.6292479597032070159912109375">
        <ele>932.5999755859375</ele>
        <time>2020-08-08T14:02:44.000Z</time>
      </trkpt>
      <trkpt lat="42.307434640824794769287109375" lon="2.629250474274158477783203125">
        <ele>932.4000244140625</ele>
        <time>2020-08-08T14:02:59.000Z</time>
      </trkpt>
      <trkpt lat="42.307434640824794769287109375" lon="2.62924971990287303924560546875">
        <ele>932.4000244140625</ele>
        <time>2020-08-08T14:03:33.000Z</time>
      </trkpt>
      <trkpt lat="42.30743053369224071502685546875" lon="2.629251815378665924072265625">
        <ele>932.4000244140625</ele>
        <time>2020-08-08T14:03:45.000Z</time>
      </trkpt>
      <trkpt lat="42.30743019841611385345458984375" lon="2.62924552895128726959228515625">
        <ele>932.4000244140625</ele>
        <time>2020-08-08T14:03:47.000Z</time>
      </trkpt>
      <trkpt lat="42.3074173741042613983154296875" lon="2.62917344458401203155517578125">
        <ele>932.4000244140625</ele>
        <time>2020-08-08T14:03:50.000Z</time>
      </trkpt>
      <trkpt lat="42.307379655539989471435546875" lon="2.628942020237445831298828125">
        <ele>930.5999755859375</ele>
        <time>2020-08-08T14:03:56.000Z</time>
      </trkpt>
      <trkpt lat="42.3073530010879039764404296875" lon="2.6287561096251010894775390625">
        <ele>929.20001220703125</ele>
        <time>2020-08-08T14:04:00.000Z</time>
      </trkpt>
      <trkpt lat="42.3073385842144489288330078125" lon="2.628631889820098876953125">
        <ele>928.4000244140625</ele>
        <time>2020-08-08T14:04:03.000Z</time>
      </trkpt>
      <trkpt lat="42.30731637217104434967041015625" lon="2.62853994034230709075927734375">
        <ele>928.20001220703125</ele>
        <time>2020-08-08T14:04:05.000Z</time>
      </trkpt>
      <trkpt lat="42.307296507060527801513671875" lon="2.628449499607086181640625">
        <ele>926.79998779296875</ele>
        <time>2020-08-08T14:04:07.000Z</time>
      </trkpt>
      <trkpt lat="42.3072889633476734161376953125" lon="2.628410942852497100830078125">
        <ele>926</ele>
        <time>2020-08-08T14:04:08.000Z</time>
      </trkpt>
      <trkpt lat="42.3072785697877407073974609375" lon="2.628368698060512542724609375">
        <ele>925.4000244140625</ele>
        <time>2020-08-08T14:04:09.000Z</time>
      </trkpt>
      <trkpt lat="42.30725518427789211273193359375" lon="2.62824439443647861480712890625">
        <ele>924</ele>
        <time>2020-08-08T14:04:12.000Z</time>
      </trkpt>
      <trkpt lat="42.30723573826253414154052734375" lon="2.6281692087650299072265625">
        <ele>922.79998779296875</ele>
        <time>2020-08-08T14:04:14.000Z</time>
      </trkpt>
      <trkpt lat="42.30721696279942989349365234375" lon="2.62804356403648853302001953125">
        <ele>921.20001220703125</ele>
        <time>2020-08-08T14:04:18.000Z</time>
      </trkpt>
      <trkpt lat="42.30718477629125118255615234375" lon="2.6279165782034397125244140625">
        <ele>920</ele>
        <time>2020-08-08T14:04:22.000Z</time>
      </trkpt>
      <trkpt lat="42.30716801248490810394287109375" lon="2.6278481818735599517822265625">
        <ele>919.5999755859375</ele>
        <time>2020-08-08T14:04:24.000Z</time>
      </trkpt>
      <trkpt lat="42.30715611018240451812744140625" lon="2.62781172059476375579833984375">
        <ele>918.79998779296875</ele>
        <time>2020-08-08T14:04:25.000Z</time>
      </trkpt>
      <trkpt lat="42.3071313835680484771728515625" lon="2.62774072587490081787109375">
        <ele>917.79998779296875</ele>
        <time>2020-08-08T14:04:27.000Z</time>
      </trkpt>
      <trkpt lat="42.30711235664784908294677734375" lon="2.627684734761714935302734375">
        <ele>916.20001220703125</ele>
        <time>2020-08-08T14:04:29.000Z</time>
      </trkpt>
      <trkpt lat="42.307103388011455535888671875" lon="2.6276547275483608245849609375">
        <ele>915.79998779296875</ele>
        <time>2020-08-08T14:04:30.000Z</time>
      </trkpt>
      <trkpt lat="42.30708704330027103424072265625" lon="2.62759965844452381134033203125">
        <ele>915.20001220703125</ele>
        <time>2020-08-08T14:04:32.000Z</time>
      </trkpt>
      <trkpt lat="42.30706994421780109405517578125" lon="2.6275477744638919830322265625">
        <ele>914</ele>
        <time>2020-08-08T14:04:34.000Z</time>
      </trkpt>
      <trkpt lat="42.30705066584050655364990234375" lon="2.627501003444194793701171875">
        <ele>912.4000244140625</ele>
        <time>2020-08-08T14:04:36.000Z</time>
      </trkpt>
      <trkpt lat="42.30703121982514858245849609375" lon="2.62745414860546588897705078125">
        <ele>911.20001220703125</ele>
        <time>2020-08-08T14:04:38.000Z</time>
      </trkpt>
      <trkpt lat="42.30701177380979061126708984375" lon="2.6274047791957855224609375">
        <ele>910.20001220703125</ele>
        <time>2020-08-08T14:04:40.000Z</time>
      </trkpt>
      <trkpt lat="42.306980006396770477294921875" lon="2.62731534428894519805908203125">
        <ele>909</ele>
        <time>2020-08-08T14:04:43.000Z</time>
      </trkpt>
      <trkpt lat="42.30697087012231349945068359375" lon="2.6272902823984622955322265625">
        <ele>908.5999755859375</ele>
        <time>2020-08-08T14:04:44.000Z</time>
      </trkpt>
      <trkpt lat="42.30694907717406749725341796875" lon="2.62723647058010101318359375">
        <ele>907.5999755859375</ele>
        <time>2020-08-08T14:04:46.000Z</time>
      </trkpt>
      <trkpt lat="42.30694203637540340423583984375" lon="2.627116106450557708740234375">
        <ele>906.20001220703125</ele>
        <time>2020-08-08T14:04:49.000Z</time>
      </trkpt>
      <trkpt lat="42.30695829726755619049072265625" lon="2.6270384900271892547607421875">
        <ele>905.20001220703125</ele>
        <time>2020-08-08T14:04:51.000Z</time>
      </trkpt>
      <trkpt lat="42.306976653635501861572265625" lon="2.62696690857410430908203125">
        <ele>904.79998779296875</ele>
        <time>2020-08-08T14:04:53.000Z</time>
      </trkpt>
      <trkpt lat="42.30695477686822414398193359375" lon="2.62677806429564952850341796875">
        <ele>904</ele>
        <time>2020-08-08T14:04:58.000Z</time>
      </trkpt>
      <trkpt lat="42.3069535195827484130859375" lon="2.626747302711009979248046875">
        <ele>903.79998779296875</ele>
        <time>2020-08-08T14:04:59.000Z</time>
      </trkpt>
      <trkpt lat="42.30694354511797428131103515625" lon="2.62663255445659160614013671875">
        <ele>903</ele>
        <time>2020-08-08T14:05:03.000Z</time>
      </trkpt>
      <trkpt lat="42.306939773261547088623046875" lon="2.62659433297812938690185546875">
        <ele>902.79998779296875</ele>
        <time>2020-08-08T14:05:04.000Z</time>
      </trkpt>
      <trkpt lat="42.3069365881383419036865234375" lon="2.62650825083255767822265625">
        <ele>901.79998779296875</ele>
        <time>2020-08-08T14:05:06.000Z</time>
      </trkpt>
      <trkpt lat="42.3069396056234836578369140625" lon="2.6263394393026828765869140625">
        <ele>900.4000244140625</ele>
        <time>2020-08-08T14:05:10.000Z</time>
      </trkpt>
      <trkpt lat="42.30693675577640533447265625" lon="2.62614321894943714141845703125">
        <ele>899</ele>
        <time>2020-08-08T14:05:15.000Z</time>
      </trkpt>
      <trkpt lat="42.306935749948024749755859375" lon="2.62607046402990818023681640625">
        <ele>897.4000244140625</ele>
        <time>2020-08-08T14:05:17.000Z</time>
      </trkpt>
      <trkpt lat="42.30693683959543704986572265625" lon="2.6260038278996944427490234375">
        <ele>896.20001220703125</ele>
        <time>2020-08-08T14:05:19.000Z</time>
      </trkpt>
      <trkpt lat="42.30692242272198200225830078125" lon="2.62585781514644622802734375">
        <ele>895</ele>
        <time>2020-08-08T14:05:23.000Z</time>
      </trkpt>
      <trkpt lat="42.30690867640078067779541015625" lon="2.625748850405216217041015625">
        <ele>894</ele>
        <time>2020-08-08T14:05:26.000Z</time>
      </trkpt>
      <trkpt lat="42.3068809323012828826904296875" lon="2.62562018819153308868408203125">
        <ele>893</ele>
        <time>2020-08-08T14:05:29.000Z</time>
      </trkpt>
      <trkpt lat="42.3068665154278278350830078125" lon="2.6255740039050579071044921875">
        <ele>892.20001220703125</ele>
        <time>2020-08-08T14:05:30.000Z</time>
      </trkpt>
      <trkpt lat="42.30684128589928150177001953125" lon="2.625479288399219512939453125">
        <ele>890.4000244140625</ele>
        <time>2020-08-08T14:05:32.000Z</time>
      </trkpt>
      <trkpt lat="42.3068259470164775848388671875" lon="2.62533855624496936798095703125">
        <ele>889.4000244140625</ele>
        <time>2020-08-08T14:05:35.000Z</time>
      </trkpt>
      <trkpt lat="42.30682075023651123046875" lon="2.62529413215816020965576171875">
        <ele>889.4000244140625</ele>
        <time>2020-08-08T14:05:36.000Z</time>
      </trkpt>
      <trkpt lat="42.30680792592465877532958984375" lon="2.625117860734462738037109375">
        <ele>888.4000244140625</ele>
        <time>2020-08-08T14:05:40.000Z</time>
      </trkpt>
      <trkpt lat="42.30679216794669628143310546875" lon="2.625069580972194671630859375">
        <ele>888.20001220703125</ele>
        <time>2020-08-08T14:05:41.000Z</time>
      </trkpt>
      <trkpt lat="42.306727208197116851806640625" lon="2.62484729290008544921875">
        <ele>887.4000244140625</ele>
        <time>2020-08-08T14:05:45.000Z</time>
      </trkpt>
      <trkpt lat="42.30672142468392848968505859375" lon="2.62479071505367755889892578125">
        <ele>887.20001220703125</ele>
        <time>2020-08-08T14:05:46.000Z</time>
      </trkpt>
      <trkpt lat="42.306705750524997711181640625" lon="2.62460983358323574066162109375">
        <ele>885.79998779296875</ele>
        <time>2020-08-08T14:05:49.000Z</time>
      </trkpt>
      <trkpt lat="42.3066975362598896026611328125" lon="2.624527774751186370849609375">
        <ele>885.79998779296875</ele>
        <time>2020-08-08T14:05:51.000Z</time>
      </trkpt>
      <trkpt lat="42.3066858015954494476318359375" lon="2.62431948445737361907958984375">
        <ele>884.79998779296875</ele>
        <time>2020-08-08T14:05:58.000Z</time>
      </trkpt>
      <trkpt lat="42.30668068863451480865478515625" lon="2.624297440052032470703125">
        <ele>884.4000244140625</ele>
        <time>2020-08-08T14:05:59.000Z</time>
      </trkpt>
      <trkpt lat="42.30665319599211215972900390625" lon="2.62424555607140064239501953125">
        <ele>883.79998779296875</ele>
        <time>2020-08-08T14:06:02.000Z</time>
      </trkpt>
      <trkpt lat="42.3066237755119800567626953125" lon="2.62423574924468994140625">
        <ele>883.4000244140625</ele>
        <time>2020-08-08T14:06:04.000Z</time>
      </trkpt>
      <trkpt lat="42.306569628417491912841796875" lon="2.62429182417690753936767578125">
        <ele>882.4000244140625</ele>
        <time>2020-08-08T14:06:09.000Z</time>
      </trkpt>
      <trkpt lat="42.306565605103969573974609375" lon="2.62430355884134769439697265625">
        <ele>882</ele>
        <time>2020-08-08T14:06:10.000Z</time>
      </trkpt>
      <trkpt lat="42.30656384490430355072021484375" lon="2.6243093423545360565185546875">
        <ele>882</ele>
        <time>2020-08-08T14:06:11.000Z</time>
      </trkpt>
      <trkpt lat="42.30656535364687442779541015625" lon="2.62435921467840671539306640625">
        <ele>881.20001220703125</ele>
        <time>2020-08-08T14:06:14.000Z</time>
      </trkpt>
      <trkpt lat="42.3065664432942867279052734375" lon="2.6243847794830799102783203125">
        <ele>881</ele>
        <time>2020-08-08T14:06:16.000Z</time>
      </trkpt>
      <trkpt lat="42.3065592348575592041015625" lon="2.62443783693015575408935546875">
        <ele>879.79998779296875</ele>
        <time>2020-08-08T14:06:20.000Z</time>
      </trkpt>
      <trkpt lat="42.30655680410563945770263671875" lon="2.62445057742297649383544921875">
        <ele>879.4000244140625</ele>
        <time>2020-08-08T14:06:21.000Z</time>
      </trkpt>
      <trkpt lat="42.3065553791821002960205078125" lon="2.62449659407138824462890625">
        <ele>878.4000244140625</ele>
        <time>2020-08-08T14:06:26.000Z</time>
      </trkpt>
      <trkpt lat="42.30655445717275142669677734375" lon="2.62451629154384136199951171875">
        <ele>878</ele>
        <time>2020-08-08T14:06:27.000Z</time>
      </trkpt>
      <trkpt lat="42.30655311606824398040771484375" lon="2.62457043863832950592041015625">
        <ele>877.5999755859375</ele>
        <time>2020-08-08T14:06:29.000Z</time>
      </trkpt>
      <trkpt lat="42.30654892511665821075439453125" lon="2.624603211879730224609375">
        <ele>877.20001220703125</ele>
        <time>2020-08-08T14:06:30.000Z</time>
      </trkpt>
      <trkpt lat="42.306542806327342987060546875" lon="2.62464134953916072845458984375">
        <ele>877</ele>
        <time>2020-08-08T14:06:31.000Z</time>
      </trkpt>
      <trkpt lat="42.306533418595790863037109375" lon="2.62476439587771892547607421875">
        <ele>876</ele>
        <time>2020-08-08T14:06:34.000Z</time>
      </trkpt>
      <trkpt lat="42.30652813799679279327392578125" lon="2.624899260699748992919921875">
        <ele>875</ele>
        <time>2020-08-08T14:06:37.000Z</time>
      </trkpt>
      <trkpt lat="42.3065325804054737091064453125" lon="2.6249446906149387359619140625">
        <ele>874.5999755859375</ele>
        <time>2020-08-08T14:06:38.000Z</time>
      </trkpt>
      <trkpt lat="42.3065533675253391265869140625" lon="2.6250811479985713958740234375">
        <ele>874.79998779296875</ele>
        <time>2020-08-08T14:06:41.000Z</time>
      </trkpt>
      <trkpt lat="42.30657826177775859832763671875" lon="2.6252709142863750457763671875">
        <ele>873.79998779296875</ele>
        <time>2020-08-08T14:06:45.000Z</time>
      </trkpt>
      <trkpt lat="42.30658144690096378326416015625" lon="2.62532698921859264373779296875">
        <ele>873.5999755859375</ele>
        <time>2020-08-08T14:06:46.000Z</time>
      </trkpt>
      <trkpt lat="42.30658136308193206787109375" lon="2.625388093292713165283203125">
        <ele>873.5999755859375</ele>
        <time>2020-08-08T14:06:47.000Z</time>
      </trkpt>
      <trkpt lat="42.3065744899213314056396484375" lon="2.6255193538963794708251953125">
        <ele>872.5999755859375</ele>
        <time>2020-08-08T14:06:49.000Z</time>
      </trkpt>
      <trkpt lat="42.30655998922884464263916015625" lon="2.6256618462502956390380859375">
        <ele>871.79998779296875</ele>
        <time>2020-08-08T14:06:51.000Z</time>
      </trkpt>
      <trkpt lat="42.3065503500401973724365234375" lon="2.6257391273975372314453125">
        <ele>871.4000244140625</ele>
        <time>2020-08-08T14:06:52.000Z</time>
      </trkpt>
      <trkpt lat="42.3065248690545558929443359375" lon="2.62596351094543933868408203125">
        <ele>870.5999755859375</ele>
        <time>2020-08-08T14:06:55.000Z</time>
      </trkpt>
      <trkpt lat="42.3065174929797649383544921875" lon="2.6260341703891754150390625">
        <ele>870.5999755859375</ele>
        <time>2020-08-08T14:06:56.000Z</time>
      </trkpt>
      <trkpt lat="42.30650626122951507568359375" lon="2.6261671073734760284423828125">
        <ele>870.79998779296875</ele>
        <time>2020-08-08T14:06:58.000Z</time>
      </trkpt>
      <trkpt lat="42.30648824013769626617431640625" lon="2.62628495693206787109375">
        <ele>871.20001220703125</ele>
        <time>2020-08-08T14:07:00.000Z</time>
      </trkpt>
      <trkpt lat="42.30647600255906581878662109375" lon="2.6263484917581081390380859375">
        <ele>871.20001220703125</ele>
        <time>2020-08-08T14:07:01.000Z</time>
      </trkpt>
      <trkpt lat="42.30644850991666316986083984375" lon="2.626535408198833465576171875">
        <ele>870.5999755859375</ele>
        <time>2020-08-08T14:07:04.000Z</time>
      </trkpt>
      <trkpt lat="42.3064433969557285308837890625" lon="2.6265992783010005950927734375">
        <ele>870.20001220703125</ele>
        <time>2020-08-08T14:07:05.000Z</time>
      </trkpt>
      <trkpt lat="42.306437194347381591796875" lon="2.62665870599448680877685546875">
        <ele>870</ele>
        <time>2020-08-08T14:07:06.000Z</time>
      </trkpt>
      <trkpt lat="42.3064296506345272064208984375" lon="2.6267449557781219482421875">
        <ele>870.4000244140625</ele>
        <time>2020-08-08T14:07:08.000Z</time>
      </trkpt>
      <trkpt lat="42.30642587877810001373291015625" lon="2.62681377120316028594970703125">
        <ele>870.5999755859375</ele>
        <time>2020-08-08T14:07:10.000Z</time>
      </trkpt>
      <trkpt lat="42.3064065165817737579345703125" lon="2.62704544700682163238525390625">
        <ele>870.4000244140625</ele>
        <time>2020-08-08T14:07:15.000Z</time>
      </trkpt>
      <trkpt lat="42.30642269365489482879638671875" lon="2.6272443495690822601318359375">
        <ele>869.4000244140625</ele>
        <time>2020-08-08T14:07:19.000Z</time>
      </trkpt>
      <trkpt lat="42.30641900561749935150146484375" lon="2.6274227164685726165771484375">
        <ele>868.20001220703125</ele>
        <time>2020-08-08T14:07:22.000Z</time>
      </trkpt>
      <trkpt lat="42.30641548521816730499267578125" lon="2.62748415581881999969482421875">
        <ele>868</ele>
        <time>2020-08-08T14:07:23.000Z</time>
      </trkpt>
      <trkpt lat="42.30639637447893619537353515625" lon="2.62760393321514129638671875">
        <ele>867.79998779296875</ele>
        <time>2020-08-08T14:07:25.000Z</time>
      </trkpt>
      <trkpt lat="42.30635329149663448333740234375" lon="2.6278518699109554290771484375">
        <ele>867.5999755859375</ele>
        <time>2020-08-08T14:07:30.000Z</time>
      </trkpt>
      <trkpt lat="42.30631473474204540252685546875" lon="2.6279651932418346405029296875">
        <ele>867</ele>
        <time>2020-08-08T14:07:33.000Z</time>
      </trkpt>
      <trkpt lat="42.30627668090164661407470703125" lon="2.628030069172382354736328125">
        <ele>866.20001220703125</ele>
        <time>2020-08-08T14:07:35.000Z</time>
      </trkpt>
      <trkpt lat="42.3062626831233501434326171875" lon="2.62806116603314876556396484375">
        <ele>865.5999755859375</ele>
        <time>2020-08-08T14:07:36.000Z</time>
      </trkpt>
      <trkpt lat="42.30619034729897975921630859375" lon="2.628136016428470611572265625">
        <ele>864.20001220703125</ele>
        <time>2020-08-08T14:07:40.000Z</time>
      </trkpt>
      <trkpt lat="42.30615497566759586334228515625" lon="2.6281365193426609039306640625">
        <ele>863.20001220703125</ele>
        <time>2020-08-08T14:07:43.000Z</time>
      </trkpt>
      <trkpt lat="42.3061446659266948699951171875" lon="2.62813425622880458831787109375">
        <ele>863</ele>
        <time>2020-08-08T14:07:44.000Z</time>
      </trkpt>
      <trkpt lat="42.30612538754940032958984375" lon="2.6281298138201236724853515625">
        <ele>862.5999755859375</ele>
        <time>2020-08-08T14:07:48.000Z</time>
      </trkpt>
      <trkpt lat="42.30612044222652912139892578125" lon="2.62812822125852108001708984375">
        <ele>862.5999755859375</ele>
        <time>2020-08-08T14:07:51.000Z</time>
      </trkpt>
      <trkpt lat="42.3060990683734416961669921875" lon="2.6280828751623630523681640625">
        <ele>862</ele>
        <time>2020-08-08T14:07:55.000Z</time>
      </trkpt>
      <trkpt lat="42.30609680525958538055419921875" lon="2.6280651055276393890380859375">
        <ele>861.5999755859375</ele>
        <time>2020-08-08T14:07:57.000Z</time>
      </trkpt>
      <trkpt lat="42.3060952126979827880859375" lon="2.6280498504638671875">
        <ele>861</ele>
        <time>2020-08-08T14:07:59.000Z</time>
      </trkpt>
      <trkpt lat="42.30608775280416011810302734375" lon="2.6280084438621997833251953125">
        <ele>860.5999755859375</ele>
        <time>2020-08-08T14:08:04.000Z</time>
      </trkpt>
      <trkpt lat="42.3060886748135089874267578125" lon="2.62797282077372074127197265625">
        <ele>860.20001220703125</ele>
        <time>2020-08-08T14:08:07.000Z</time>
      </trkpt>
      <trkpt lat="42.3060916922986507415771484375" lon="2.627929151058197021484375">
        <ele>859.5999755859375</ele>
        <time>2020-08-08T14:08:13.000Z</time>
      </trkpt>
      <trkpt lat="42.30610258877277374267578125" lon="2.6278770156204700469970703125">
        <ele>858.79998779296875</ele>
        <time>2020-08-08T14:08:18.000Z</time>
      </trkpt>
      <trkpt lat="42.3061081208288669586181640625" lon="2.6278666220605373382568359375">
        <ele>858.5999755859375</ele>
        <time>2020-08-08T14:08:19.000Z</time>
      </trkpt>
      <trkpt lat="42.306122370064258575439453125" lon="2.62784407474100589752197265625">
        <ele>857.79998779296875</ele>
        <time>2020-08-08T14:08:24.000Z</time>
      </trkpt>
      <trkpt lat="42.3061289079487323760986328125" lon="2.62783183716237545013427734375">
        <ele>857.79998779296875</ele>
        <time>2020-08-08T14:08:37.000Z</time>
      </trkpt>
      <trkpt lat="42.30613837949931621551513671875" lon="2.62775287963449954986572265625">
        <ele>857.20001220703125</ele>
        <time>2020-08-08T14:08:46.000Z</time>
      </trkpt>
      <trkpt lat="42.30613569729030132293701171875" lon="2.62773561291396617889404296875">
        <ele>857</ele>
        <time>2020-08-08T14:08:48.000Z</time>
      </trkpt>
      <trkpt lat="42.30612161569297313690185546875" lon="2.6276808790862560272216796875">
        <ele>855.79998779296875</ele>
        <time>2020-08-08T14:08:54.000Z</time>
      </trkpt>
      <trkpt lat="42.30612111277878284454345703125" lon="2.62767559848725795745849609375">
        <ele>855.5999755859375</ele>
        <time>2020-08-08T14:08:55.000Z</time>
      </trkpt>
      <trkpt lat="42.30611599981784820556640625" lon="2.6276282407343387603759765625">
        <ele>854.5999755859375</ele>
        <time>2020-08-08T14:09:00.000Z</time>
      </trkpt>
      <trkpt lat="42.30610795319080352783203125" lon="2.6275987364351749420166015625">
        <ele>854.20001220703125</ele>
        <time>2020-08-08T14:09:03.000Z</time>
      </trkpt>
      <trkpt lat="42.30609948746860027313232421875" lon="2.62757099233567714691162109375">
        <ele>853.5999755859375</ele>
        <time>2020-08-08T14:09:06.000Z</time>
      </trkpt>
      <trkpt lat="42.30608708225190639495849609375" lon="2.6274703256785869598388671875">
        <ele>852.5999755859375</ele>
        <time>2020-08-08T14:09:12.000Z</time>
      </trkpt>
      <trkpt lat="42.3060859926044940948486328125" lon="2.6274545677006244659423828125">
        <ele>852.20001220703125</ele>
        <time>2020-08-08T14:09:13.000Z</time>
      </trkpt>
      <trkpt lat="42.30605925433337688446044921875" lon="2.62738038785755634307861328125">
        <ele>851.20001220703125</ele>
        <time>2020-08-08T14:09:18.000Z</time>
      </trkpt>
      <trkpt lat="42.306052632629871368408203125" lon="2.6273714192211627960205078125">
        <ele>851</ele>
        <time>2020-08-08T14:09:19.000Z</time>
      </trkpt>
      <trkpt lat="42.3060415685176849365234375" lon="2.62736580334603786468505859375">
        <ele>851</ele>
        <time>2020-08-08T14:09:20.000Z</time>
      </trkpt>
      <trkpt lat="42.306005693972110748291015625" lon="2.62737602926790714263916015625">
        <ele>850.20001220703125</ele>
        <time>2020-08-08T14:09:25.000Z</time>
      </trkpt>
      <trkpt lat="42.30600594542920589447021484375" lon="2.6273806393146514892578125">
        <ele>850</ele>
        <time>2020-08-08T14:09:26.000Z</time>
      </trkpt>
      <trkpt lat="42.3060035146772861480712890625" lon="2.6274002529680728912353515625">
        <ele>849.20001220703125</ele>
        <time>2020-08-08T14:09:33.000Z</time>
      </trkpt>
      <trkpt lat="42.30601097457110881805419921875" lon="2.62741810642182826995849609375">
        <ele>849.4000244140625</ele>
        <time>2020-08-08T14:09:42.000Z</time>
      </trkpt>
      <trkpt lat="42.30599270202219486236572265625" lon="2.62746118940412998199462890625">
        <ele>849</ele>
        <time>2020-08-08T14:09:46.000Z</time>
      </trkpt>
      <trkpt lat="42.30598264373838901519775390625" lon="2.627480886876583099365234375">
        <ele>848.5999755859375</ele>
        <time>2020-08-08T14:09:47.000Z</time>
      </trkpt>
      <trkpt lat="42.30597275309264659881591796875" lon="2.6275031827390193939208984375">
        <ele>848.20001220703125</ele>
        <time>2020-08-08T14:09:50.000Z</time>
      </trkpt>
      <trkpt lat="42.3059669695794582366943359375" lon="2.6275098882615566253662109375">
        <ele>848</ele>
        <time>2020-08-08T14:09:52.000Z</time>
      </trkpt>
      <trkpt lat="42.305913828313350677490234375" lon="2.62756059877574443817138671875">
        <ele>847</ele>
        <time>2020-08-08T14:10:00.000Z</time>
      </trkpt>
      <trkpt lat="42.3058787919580936431884765625" lon="2.6275856606662273406982421875">
        <ele>846</ele>
        <time>2020-08-08T14:10:04.000Z</time>
      </trkpt>
      <trkpt lat="42.3058077134191989898681640625" lon="2.6275876723229885101318359375">
        <ele>845</ele>
        <time>2020-08-08T14:10:11.000Z</time>
      </trkpt>
      <trkpt lat="42.30579891242086887359619140625" lon="2.6275802962481975555419921875">
        <ele>844.79998779296875</ele>
        <time>2020-08-08T14:10:12.000Z</time>
      </trkpt>
      <trkpt lat="42.3057631216943264007568359375" lon="2.62755037285387516021728515625">
        <ele>843.79998779296875</ele>
        <time>2020-08-08T14:10:16.000Z</time>
      </trkpt>
      <trkpt lat="42.3057518899440765380859375" lon="2.62752614915370941162109375">
        <ele>843.20001220703125</ele>
        <time>2020-08-08T14:10:18.000Z</time>
      </trkpt>
      <trkpt lat="42.305750548839569091796875" lon="2.62748700566589832305908203125">
        <ele>842.79998779296875</ele>
        <time>2020-08-08T14:10:22.000Z</time>
      </trkpt>
      <trkpt lat="42.30575365014374256134033203125" lon="2.6274736784398555755615234375">
        <ele>842.4000244140625</ele>
        <time>2020-08-08T14:10:24.000Z</time>
      </trkpt>
      <trkpt lat="42.30576521717011928558349609375" lon="2.6274582557380199432373046875">
        <ele>841.5999755859375</ele>
        <time>2020-08-08T14:10:27.000Z</time>
      </trkpt>
      <trkpt lat="42.30577443726360797882080078125" lon="2.62743101455271244049072265625">
        <ele>841</ele>
        <time>2020-08-08T14:10:31.000Z</time>
      </trkpt>
      <trkpt lat="42.30577829293906688690185546875" lon="2.62739740312099456787109375">
        <ele>840.5999755859375</ele>
        <time>2020-08-08T14:10:34.000Z</time>
      </trkpt>
      <trkpt lat="42.3057875968515872955322265625" lon="2.62734484858810901641845703125">
        <ele>839.4000244140625</ele>
        <time>2020-08-08T14:10:39.000Z</time>
      </trkpt>
      <trkpt lat="42.30579069815576076507568359375" lon="2.62733194045722484588623046875">
        <ele>839.20001220703125</ele>
        <time>2020-08-08T14:10:41.000Z</time>
      </trkpt>
      <trkpt lat="42.30577795766294002532958984375" lon="2.6272936351597309112548828125">
        <ele>839.20001220703125</ele>
        <time>2020-08-08T14:10:50.000Z</time>
      </trkpt>
      <trkpt lat="42.3057661391794681549072265625" lon="2.6272379793226718902587890625">
        <ele>838.4000244140625</ele>
        <time>2020-08-08T14:10:54.000Z</time>
      </trkpt>
      <trkpt lat="42.3057547397911548614501953125" lon="2.6271682418882846832275390625">
        <ele>837.4000244140625</ele>
        <time>2020-08-08T14:10:59.000Z</time>
      </trkpt>
      <trkpt lat="42.30573705397546291351318359375" lon="2.6270958222448825836181640625">
        <ele>836.20001220703125</ele>
        <time>2020-08-08T14:11:05.000Z</time>
      </trkpt>
      <trkpt lat="42.30572498403489589691162109375" lon="2.627060115337371826171875">
        <ele>835.20001220703125</ele>
        <time>2020-08-08T14:11:08.000Z</time>
      </trkpt>
      <trkpt lat="42.30569749139249324798583984375" lon="2.6270022802054882049560546875">
        <ele>834.20001220703125</ele>
        <time>2020-08-08T14:11:13.000Z</time>
      </trkpt>
      <trkpt lat="42.30569179169833660125732421875" lon="2.62698970735073089599609375">
        <ele>833.79998779296875</ele>
        <time>2020-08-08T14:11:14.000Z</time>
      </trkpt>
      <trkpt lat="42.3056829907000064849853515625" lon="2.6269576884806156158447265625">
        <ele>832.79998779296875</ele>
        <time>2020-08-08T14:11:18.000Z</time>
      </trkpt>
      <trkpt lat="42.3056504689157009124755859375" lon="2.626908235251903533935546875">
        <ele>832.4000244140625</ele>
        <time>2020-08-08T14:11:26.000Z</time>
      </trkpt>
      <trkpt lat="42.30562155134975910186767578125" lon="2.62685668654739856719970703125">
        <ele>831.4000244140625</ele>
        <time>2020-08-08T14:11:30.000Z</time>
      </trkpt>
      <trkpt lat="42.3056043684482574462890625" lon="2.62683103792369365692138671875">
        <ele>830.4000244140625</ele>
        <time>2020-08-08T14:11:34.000Z</time>
      </trkpt>
      <trkpt lat="42.3055998422205448150634765625" lon="2.6268272660672664642333984375">
        <ele>830.20001220703125</ele>
        <time>2020-08-08T14:11:43.000Z</time>
      </trkpt>
      <trkpt lat="42.30556757189333438873291015625" lon="2.62674051336944103240966796875">
        <ele>830</ele>
        <time>2020-08-08T14:11:48.000Z</time>
      </trkpt>
      <trkpt lat="42.3055307753384113311767578125" lon="2.62660958804190158843994140625">
        <ele>829.5999755859375</ele>
        <time>2020-08-08T14:11:53.000Z</time>
      </trkpt>
      <trkpt lat="42.3055292665958404541015625" lon="2.62659131549298763275146484375">
        <ele>829.20001220703125</ele>
        <time>2020-08-08T14:11:54.000Z</time>
      </trkpt>
      <trkpt lat="42.305520214140415191650390625" lon="2.6265503279864788055419921875">
        <ele>828.5999755859375</ele>
        <time>2020-08-08T14:11:56.000Z</time>
      </trkpt>
      <trkpt lat="42.30552113614976406097412109375" lon="2.626504562795162200927734375">
        <ele>828.20001220703125</ele>
        <time>2020-08-08T14:11:58.000Z</time>
      </trkpt>
      <trkpt lat="42.3055220581591129302978515625" lon="2.62649257667362689971923828125">
        <ele>827.79998779296875</ele>
        <time>2020-08-08T14:11:59.000Z</time>
      </trkpt>
      <trkpt lat="42.305520884692668914794921875" lon="2.62648813426494598388671875">
        <ele>826.79998779296875</ele>
        <time>2020-08-08T14:12:01.000Z</time>
      </trkpt>
      <trkpt lat="42.30551258660852909088134765625" lon="2.6264651678502559661865234375">
        <ele>826.5999755859375</ele>
        <time>2020-08-08T14:12:03.000Z</time>
      </trkpt>
      <trkpt lat="42.30550177395343780517578125" lon="2.626455612480640411376953125">
        <ele>826.5999755859375</ele>
        <time>2020-08-08T14:12:04.000Z</time>
      </trkpt>
      <trkpt lat="42.3054761253297328948974609375" lon="2.62639023363590240478515625">
        <ele>826.20001220703125</ele>
        <time>2020-08-08T14:12:08.000Z</time>
      </trkpt>
      <trkpt lat="42.3054684139788150787353515625" lon="2.62637548148632049560546875">
        <ele>825.79998779296875</ele>
        <time>2020-08-08T14:12:09.000Z</time>
      </trkpt>
      <trkpt lat="42.3054623790085315704345703125" lon="2.62636098079383373260498046875">
        <ele>825.4000244140625</ele>
        <time>2020-08-08T14:12:10.000Z</time>
      </trkpt>
      <trkpt lat="42.30545324273407459259033203125" lon="2.62633147649466991424560546875">
        <ele>825</ele>
        <time>2020-08-08T14:12:12.000Z</time>
      </trkpt>
      <trkpt lat="42.30543631128966808319091796875" lon="2.62627649120986461639404296875">
        <ele>824</ele>
        <time>2020-08-08T14:12:15.000Z</time>
      </trkpt>
      <trkpt lat="42.3054171167314052581787109375" lon="2.6262066699564456939697265625">
        <ele>822.79998779296875</ele>
        <time>2020-08-08T14:12:19.000Z</time>
      </trkpt>
      <trkpt lat="42.30541435070335865020751953125" lon="2.626192085444927215576171875">
        <ele>822.5999755859375</ele>
        <time>2020-08-08T14:12:20.000Z</time>
      </trkpt>
      <trkpt lat="42.30541326105594635009765625" lon="2.62617808766663074493408203125">
        <ele>822.4000244140625</ele>
        <time>2020-08-08T14:12:21.000Z</time>
      </trkpt>
      <trkpt lat="42.30539356358349323272705078125" lon="2.62611472047865390777587890625">
        <ele>822</ele>
        <time>2020-08-08T14:12:25.000Z</time>
      </trkpt>
      <trkpt lat="42.30539104901254177093505859375" lon="2.62610365636646747589111328125">
        <ele>821.20001220703125</ele>
        <time>2020-08-08T14:12:26.000Z</time>
      </trkpt>
      <trkpt lat="42.305377386510372161865234375" lon="2.62605772353708744049072265625">
        <ele>820.20001220703125</ele>
        <time>2020-08-08T14:12:29.000Z</time>
      </trkpt>
      <trkpt lat="42.30535601265728473663330078125" lon="2.62597474269568920135498046875">
        <ele>819</ele>
        <time>2020-08-08T14:12:33.000Z</time>
      </trkpt>
      <trkpt lat="42.30530597269535064697265625" lon="2.6259032450616359710693359375">
        <ele>817.79998779296875</ele>
        <time>2020-08-08T14:12:37.000Z</time>
      </trkpt>
      <trkpt lat="42.3052918910980224609375" lon="2.6258982159197330474853515625">
        <ele>817.5999755859375</ele>
        <time>2020-08-08T14:12:38.000Z</time>
      </trkpt>
      <trkpt lat="42.30528225190937519073486328125" lon="2.62589729391038417816162109375">
        <ele>817.20001220703125</ele>
        <time>2020-08-08T14:12:39.000Z</time>
      </trkpt>
      <trkpt lat="42.30528292246162891387939453125" lon="2.6259049214422702789306640625">
        <ele>816.79998779296875</ele>
        <time>2020-08-08T14:12:45.000Z</time>
      </trkpt>
      <trkpt lat="42.3052771389484405517578125" lon="2.6259025745093822479248046875">
        <ele>816.79998779296875</ele>
        <time>2020-08-08T14:12:58.000Z</time>
      </trkpt>
      <trkpt lat="42.305245958268642425537109375" lon="2.62598915956914424896240234375">
        <ele>816.79998779296875</ele>
        <time>2020-08-08T14:13:02.000Z</time>
      </trkpt>
      <trkpt lat="42.305211760103702545166015625" lon="2.6260987110435962677001953125">
        <ele>815.79998779296875</ele>
        <time>2020-08-08T14:13:08.000Z</time>
      </trkpt>
      <trkpt lat="42.3051846027374267578125" lon="2.626126706600189208984375">
        <ele>815</ele>
        <time>2020-08-08T14:13:10.000Z</time>
      </trkpt>
      <trkpt lat="42.30514445342123508453369140625" lon="2.62611254118382930755615234375">
        <ele>814.4000244140625</ele>
        <time>2020-08-08T14:13:12.000Z</time>
      </trkpt>
      <trkpt lat="42.30510287918150424957275390625" lon="2.62603643350303173065185546875">
        <ele>813.20001220703125</ele>
        <time>2020-08-08T14:13:15.000Z</time>
      </trkpt>
      <trkpt lat="42.305098436772823333740234375" lon="2.62601212598383426666259765625">
        <ele>813</ele>
        <time>2020-08-08T14:13:16.000Z</time>
      </trkpt>
      <trkpt lat="42.305088378489017486572265625" lon="2.6259000599384307861328125">
        <ele>812</ele>
        <time>2020-08-08T14:13:19.000Z</time>
      </trkpt>
      <trkpt lat="42.3050861991941928863525390625" lon="2.62585773132741451263427734375">
        <ele>811.4000244140625</ele>
        <time>2020-08-08T14:13:20.000Z</time>
      </trkpt>
      <trkpt lat="42.30508578009903430938720703125" lon="2.62581666000187397003173828125">
        <ele>810.79998779296875</ele>
        <time>2020-08-08T14:13:21.000Z</time>
      </trkpt>
      <trkpt lat="42.3050818406045436859130859375" lon="2.62575396336615085601806640625">
        <ele>809.79998779296875</ele>
        <time>2020-08-08T14:13:23.000Z</time>
      </trkpt>
      <trkpt lat="42.30507119558751583099365234375" lon="2.62572102248668670654296875">
        <ele>809.4000244140625</ele>
        <time>2020-08-08T14:13:24.000Z</time>
      </trkpt>
      <trkpt lat="42.30505677871406078338623046875" lon="2.62568213045597076416015625">
        <ele>809</ele>
        <time>2020-08-08T14:13:25.000Z</time>
      </trkpt>
      <trkpt lat="42.30504403822124004364013671875" lon="2.62564097531139850616455078125">
        <ele>808.79998779296875</ele>
        <time>2020-08-08T14:13:26.000Z</time>
      </trkpt>
      <trkpt lat="42.3050047270953655242919921875" lon="2.6254714094102382659912109375">
        <ele>807.20001220703125</ele>
        <time>2020-08-08T14:13:30.000Z</time>
      </trkpt>
      <trkpt lat="42.3049981892108917236328125" lon="2.6253919489681720733642578125">
        <ele>805.5999755859375</ele>
        <time>2020-08-08T14:13:32.000Z</time>
      </trkpt>
      <trkpt lat="42.3050033859908580780029296875" lon="2.625329755246639251708984375">
        <ele>805.20001220703125</ele>
        <time>2020-08-08T14:13:34.000Z</time>
      </trkpt>
      <trkpt lat="42.30500145815312862396240234375" lon="2.62519237585365772247314453125">
        <ele>803.5999755859375</ele>
        <time>2020-08-08T14:13:38.000Z</time>
      </trkpt>
      <trkpt lat="42.30500346980988979339599609375" lon="2.6251678168773651123046875">
        <ele>803</ele>
        <time>2020-08-08T14:13:39.000Z</time>
      </trkpt>
      <trkpt lat="42.30500682257115840911865234375" lon="2.62515231035649776458740234375">
        <ele>802.4000244140625</ele>
        <time>2020-08-08T14:13:40.000Z</time>
      </trkpt>
      <trkpt lat="42.305004894733428955078125" lon="2.6251072995364665985107421875">
        <ele>801.4000244140625</ele>
        <time>2020-08-08T14:13:44.000Z</time>
      </trkpt>
      <trkpt lat="42.30500564910471439361572265625" lon="2.6250955648720264434814453125">
        <ele>801.20001220703125</ele>
        <time>2020-08-08T14:13:45.000Z</time>
      </trkpt>
      <trkpt lat="42.305004559457302093505859375" lon="2.62504569254815578460693359375">
        <ele>800</ele>
        <time>2020-08-08T14:13:50.000Z</time>
      </trkpt>
      <trkpt lat="42.3050022125244140625" lon="2.62504049576818943023681640625">
        <ele>799.5999755859375</ele>
        <time>2020-08-08T14:13:51.000Z</time>
      </trkpt>
      <trkpt lat="42.30500129051506519317626953125" lon="2.62498316355049610137939453125">
        <ele>798.79998779296875</ele>
        <time>2020-08-08T14:13:54.000Z</time>
      </trkpt>
      <trkpt lat="42.30500564910471439361572265625" lon="2.62494720518589019775390625">
        <ele>798.79998779296875</ele>
        <time>2020-08-08T14:13:55.000Z</time>
      </trkpt>
      <trkpt lat="42.3049913160502910614013671875" lon="2.62479876168072223663330078125">
        <ele>797.79998779296875</ele>
        <time>2020-08-08T14:13:59.000Z</time>
      </trkpt>
      <trkpt lat="42.30498352088034152984619140625" lon="2.62476255185902118682861328125">
        <ele>797.20001220703125</ele>
        <time>2020-08-08T14:14:00.000Z</time>
      </trkpt>
      <trkpt lat="42.30496776290237903594970703125" lon="2.62468258850276470184326171875">
        <ele>796.4000244140625</ele>
        <time>2020-08-08T14:14:02.000Z</time>
      </trkpt>
      <trkpt lat="42.3049551062285900115966796875" lon="2.62456323020160198211669921875">
        <ele>794.79998779296875</ele>
        <time>2020-08-08T14:14:05.000Z</time>
      </trkpt>
      <trkpt lat="42.30495820753276348114013671875" lon="2.624532468616962432861328125">
        <ele>794.4000244140625</ele>
        <time>2020-08-08T14:14:06.000Z</time>
      </trkpt>
      <trkpt lat="42.30495435185730457305908203125" lon="2.6244784891605377197265625">
        <ele>793.4000244140625</ele>
        <time>2020-08-08T14:14:08.000Z</time>
      </trkpt>
      <trkpt lat="42.304942198097705841064453125" lon="2.62440808117389678955078125">
        <ele>792.4000244140625</ele>
        <time>2020-08-08T14:14:11.000Z</time>
      </trkpt>
      <trkpt lat="42.30492501519620418548583984375" lon="2.6242692768573760986328125">
        <ele>791.4000244140625</ele>
        <time>2020-08-08T14:14:15.000Z</time>
      </trkpt>
      <trkpt lat="42.3049292899668216705322265625" lon="2.62422979809343814849853515625">
        <ele>790.5999755859375</ele>
        <time>2020-08-08T14:14:16.000Z</time>
      </trkpt>
      <trkpt lat="42.30493792332708835601806640625" lon="2.624184787273406982421875">
        <ele>790.20001220703125</ele>
        <time>2020-08-08T14:14:17.000Z</time>
      </trkpt>
      <trkpt lat="42.304940521717071533203125" lon="2.6240907423198223114013671875">
        <ele>788.79998779296875</ele>
        <time>2020-08-08T14:14:19.000Z</time>
      </trkpt>
      <trkpt lat="42.30494362302124500274658203125" lon="2.62401647865772247314453125">
        <ele>787.5999755859375</ele>
        <time>2020-08-08T14:14:21.000Z</time>
      </trkpt>
      <trkpt lat="42.3049490712583065032958984375" lon="2.62395302765071392059326171875">
        <ele>787</ele>
        <time>2020-08-08T14:14:23.000Z</time>
      </trkpt>
      <trkpt lat="42.3049638234078884124755859375" lon="2.6238439790904521942138671875">
        <ele>786.5999755859375</ele>
        <time>2020-08-08T14:14:26.000Z</time>
      </trkpt>
      <trkpt lat="42.30497614480555057525634765625" lon="2.62377910315990447998046875">
        <ele>785.5999755859375</ele>
        <time>2020-08-08T14:14:28.000Z</time>
      </trkpt>
      <trkpt lat="42.30498276650905609130859375" lon="2.62375437654554843902587890625">
        <ele>785</ele>
        <time>2020-08-08T14:14:29.000Z</time>
      </trkpt>
      <trkpt lat="42.30498737655580043792724609375" lon="2.62366854585707187652587890625">
        <ele>783.4000244140625</ele>
        <time>2020-08-08T14:14:32.000Z</time>
      </trkpt>
      <trkpt lat="42.304983772337436676025390625" lon="2.62357659637928009033203125">
        <ele>782.5999755859375</ele>
        <time>2020-08-08T14:14:35.000Z</time>
      </trkpt>
      <trkpt lat="42.30497966520488262176513671875" lon="2.6235405541956424713134765625">
        <ele>782.20001220703125</ele>
        <time>2020-08-08T14:14:36.000Z</time>
      </trkpt>
      <trkpt lat="42.3049748875200748443603515625" lon="2.6234108023345470428466796875">
        <ele>781</ele>
        <time>2020-08-08T14:14:39.000Z</time>
      </trkpt>
      <trkpt lat="42.30497547425329685211181640625" lon="2.62336646206676959991455078125">
        <ele>780.79998779296875</ele>
        <time>2020-08-08T14:14:40.000Z</time>
      </trkpt>
      <trkpt lat="42.30497078038752079010009765625" lon="2.62329085730016231536865234375">
        <ele>779.79998779296875</ele>
        <time>2020-08-08T14:14:42.000Z</time>
      </trkpt>
      <trkpt lat="42.3049514181911945343017578125" lon="2.623133361339569091796875">
        <ele>778.20001220703125</ele>
        <time>2020-08-08T14:14:46.000Z</time>
      </trkpt>
      <trkpt lat="42.3049393482506275177001953125" lon="2.62305893003940582275390625">
        <ele>777</ele>
        <time>2020-08-08T14:14:48.000Z</time>
      </trkpt>
      <trkpt lat="42.304910011589527130126953125" lon="2.62292875908315181732177734375">
        <ele>775.5999755859375</ele>
        <time>2020-08-08T14:14:51.000Z</time>
      </trkpt>
      <trkpt lat="42.3048746399581432342529296875" lon="2.62275156565010547637939453125">
        <ele>774.4000244140625</ele>
        <time>2020-08-08T14:14:55.000Z</time>
      </trkpt>
      <trkpt lat="42.30485997162759304046630859375" lon="2.622676379978656768798828125">
        <ele>773.5999755859375</ele>
        <time>2020-08-08T14:14:57.000Z</time>
      </trkpt>
      <trkpt lat="42.30484454892575740814208984375" lon="2.6226068101823329925537109375">
        <ele>773.4000244140625</ele>
        <time>2020-08-08T14:14:59.000Z</time>
      </trkpt>
      <trkpt lat="42.30483398772776126861572265625" lon="2.62252458371222019195556640625">
        <ele>773.20001220703125</ele>
        <time>2020-08-08T14:15:02.000Z</time>
      </trkpt>
      <trkpt lat="42.30481236241757869720458984375" lon="2.62240623123943805694580078125">
        <ele>771.79998779296875</ele>
        <time>2020-08-08T14:15:06.000Z</time>
      </trkpt>
      <trkpt lat="42.30481068603694438934326171875" lon="2.62238058261573314666748046875">
        <ele>771.5999755859375</ele>
        <time>2020-08-08T14:15:07.000Z</time>
      </trkpt>
      <trkpt lat="42.3048072494566440582275390625" lon="2.622296176850795745849609375">
        <ele>770.4000244140625</ele>
        <time>2020-08-08T14:15:10.000Z</time>
      </trkpt>
      <trkpt lat="42.304802052676677703857421875" lon="2.622234821319580078125">
        <ele>769.5999755859375</ele>
        <time>2020-08-08T14:15:12.000Z</time>
      </trkpt>
      <trkpt lat="42.3047985322773456573486328125" lon="2.62220607139170169830322265625">
        <ele>769</ele>
        <time>2020-08-08T14:15:13.000Z</time>
      </trkpt>
      <trkpt lat="42.3047804273664951324462890625" lon="2.6221243478357791900634765625">
        <ele>767.79998779296875</ele>
        <time>2020-08-08T14:15:16.000Z</time>
      </trkpt>
      <trkpt lat="42.3047562874853610992431640625" lon="2.62208470143377780914306640625">
        <ele>767.4000244140625</ele>
        <time>2020-08-08T14:15:18.000Z</time>
      </trkpt>
      <trkpt lat="42.30472485534846782684326171875" lon="2.62208134867250919342041015625">
        <ele>766.5999755859375</ele>
        <time>2020-08-08T14:15:20.000Z</time>
      </trkpt>
      <trkpt lat="42.30470675043761730194091796875" lon="2.62210406363010406494140625">
        <ele>766.20001220703125</ele>
        <time>2020-08-08T14:15:22.000Z</time>
      </trkpt>
      <trkpt lat="42.30469753034412860870361328125" lon="2.62215376831591129302978515625">
        <ele>765.5999755859375</ele>
        <time>2020-08-08T14:15:24.000Z</time>
      </trkpt>
      <trkpt lat="42.3046899028122425079345703125" lon="2.62225518934428691864013671875">
        <ele>765.20001220703125</ele>
        <time>2020-08-08T14:15:27.000Z</time>
      </trkpt>
      <trkpt lat="42.304677665233612060546875" lon="2.62238762341439723968505859375">
        <ele>764.4000244140625</ele>
        <time>2020-08-08T14:15:30.000Z</time>
      </trkpt>
      <trkpt lat="42.3046629130840301513671875" lon="2.62251712381839752197265625">
        <ele>764.20001220703125</ele>
        <time>2020-08-08T14:15:33.000Z</time>
      </trkpt>
      <trkpt lat="42.3046627454459667205810546875" lon="2.6227184571325778961181640625">
        <ele>763.5999755859375</ele>
        <time>2020-08-08T14:15:38.000Z</time>
      </trkpt>
      <trkpt lat="42.304664589464664459228515625" lon="2.62285348959267139434814453125">
        <ele>763.79998779296875</ele>
        <time>2020-08-08T14:15:42.000Z</time>
      </trkpt>
      <trkpt lat="42.304667942225933074951171875" lon="2.62300369329750537872314453125">
        <ele>763.20001220703125</ele>
        <time>2020-08-08T14:15:47.000Z</time>
      </trkpt>
      <trkpt lat="42.3046657629311084747314453125" lon="2.623041830956935882568359375">
        <ele>762.79998779296875</ele>
        <time>2020-08-08T14:15:48.000Z</time>
      </trkpt>
      <trkpt lat="42.3046483285725116729736328125" lon="2.623112238943576812744140625">
        <ele>762</ele>
        <time>2020-08-08T14:15:50.000Z</time>
      </trkpt>
      <trkpt lat="42.304613292217254638671875" lon="2.62326546013355255126953125">
        <ele>761</ele>
        <time>2020-08-08T14:15:54.000Z</time>
      </trkpt>
      <trkpt lat="42.30458588339388370513916015625" lon="2.62335397303104400634765625">
        <ele>760.20001220703125</ele>
        <time>2020-08-08T14:15:56.000Z</time>
      </trkpt>
      <trkpt lat="42.30458051897585391998291015625" lon="2.6233973912894725799560546875">
        <ele>759.5999755859375</ele>
        <time>2020-08-08T14:15:57.000Z</time>
      </trkpt>
      <trkpt lat="42.30457666330039501190185546875" lon="2.6234607584774494171142578125">
        <ele>759.20001220703125</ele>
        <time>2020-08-08T14:15:59.000Z</time>
      </trkpt>
      <trkpt lat="42.3045521043241024017333984375" lon="2.62364340014755725860595703125">
        <ele>758.20001220703125</ele>
        <time>2020-08-08T14:16:05.000Z</time>
      </trkpt>
      <trkpt lat="42.30452008545398712158203125" lon="2.6237718947231769561767578125">
        <ele>757</ele>
        <time>2020-08-08T14:16:08.000Z</time>
      </trkpt>
      <trkpt lat="42.3044951073825359344482421875" lon="2.62385764159262180328369140625">
        <ele>756</ele>
        <time>2020-08-08T14:16:10.000Z</time>
      </trkpt>
      <trkpt lat="42.30445009656250476837158203125" lon="2.6240484975278377532958984375">
        <ele>755.20001220703125</ele>
        <time>2020-08-08T14:16:15.000Z</time>
      </trkpt>
      <trkpt lat="42.30438840575516223907470703125" lon="2.62415939010679721832275390625">
        <ele>755</ele>
        <time>2020-08-08T14:16:19.000Z</time>
      </trkpt>
      <trkpt lat="42.30436543934047222137451171875" lon="2.624174058437347412109375">
        <ele>754.4000244140625</ele>
        <time>2020-08-08T14:16:20.000Z</time>
      </trkpt>
      <trkpt lat="42.3043200932443141937255859375" lon="2.62417380698025226593017578125">
        <ele>753.79998779296875</ele>
        <time>2020-08-08T14:16:22.000Z</time>
      </trkpt>
      <trkpt lat="42.3043036647140979766845703125" lon="2.6241671852767467498779296875">
        <ele>753.4000244140625</ele>
        <time>2020-08-08T14:16:24.000Z</time>
      </trkpt>
      <trkpt lat="42.30425999499857425689697265625" lon="2.62411094270646572113037109375">
        <ele>753.20001220703125</ele>
        <time>2020-08-08T14:16:29.000Z</time>
      </trkpt>
      <trkpt lat="42.304238118231296539306640625" lon="2.62408261187374591827392578125">
        <ele>753.20001220703125</ele>
        <time>2020-08-08T14:16:31.000Z</time>
      </trkpt>
      <trkpt lat="42.30419863946735858917236328125" lon="2.624024190008640289306640625">
        <ele>752.79998779296875</ele>
        <time>2020-08-08T14:16:34.000Z</time>
      </trkpt>
      <trkpt lat="42.304117418825626373291015625" lon="2.62396392412483692169189453125">
        <ele>751.79998779296875</ele>
        <time>2020-08-08T14:16:39.000Z</time>
      </trkpt>
      <trkpt lat="42.30410492978990077972412109375" lon="2.62395353056490421295166015625">
        <ele>751.5999755859375</ele>
        <time>2020-08-08T14:16:40.000Z</time>
      </trkpt>
      <trkpt lat="42.30403058230876922607421875" lon="2.62390323914587497711181640625">
        <ele>750.79998779296875</ele>
        <time>2020-08-08T14:16:44.000Z</time>
      </trkpt>
      <trkpt lat="42.3039942048490047454833984375" lon="2.623858563601970672607421875">
        <ele>749.5999755859375</ele>
        <time>2020-08-08T14:16:46.000Z</time>
      </trkpt>
      <trkpt lat="42.3039576597511768341064453125" lon="2.623812295496463775634765625">
        <ele>748.4000244140625</ele>
        <time>2020-08-08T14:16:48.000Z</time>
      </trkpt>
      <trkpt lat="42.3039118945598602294921875" lon="2.6237516105175018310546875">
        <ele>747.4000244140625</ele>
        <time>2020-08-08T14:16:50.000Z</time>
      </trkpt>
      <trkpt lat="42.303853221237659454345703125" lon="2.62364205904304981231689453125">
        <ele>746</ele>
        <time>2020-08-08T14:16:54.000Z</time>
      </trkpt>
      <trkpt lat="42.3038393072783946990966796875" lon="2.62362311594188213348388671875">
        <ele>745.79998779296875</ele>
        <time>2020-08-08T14:16:55.000Z</time>
      </trkpt>
      <trkpt lat="42.3037541471421718597412109375" lon="2.6235211081802845001220703125">
        <ele>745.20001220703125</ele>
        <time>2020-08-08T14:17:00.000Z</time>
      </trkpt>
      <trkpt lat="42.30372707359492778778076171875" lon="2.62349101714789867401123046875">
        <ele>745</ele>
        <time>2020-08-08T14:17:01.000Z</time>
      </trkpt>
      <trkpt lat="42.3036324419081211090087890625" lon="2.62340753339231014251708984375">
        <ele>744</ele>
        <time>2020-08-08T14:17:04.000Z</time>
      </trkpt>
      <trkpt lat="42.303577624261379241943359375" lon="2.62336059473454952239990234375">
        <ele>743.20001220703125</ele>
        <time>2020-08-08T14:17:06.000Z</time>
      </trkpt>
      <trkpt lat="42.30354518629610538482666015625" lon="2.6233387179672718048095703125">
        <ele>742.5999755859375</ele>
        <time>2020-08-08T14:17:07.000Z</time>
      </trkpt>
      <trkpt lat="42.30343789793550968170166015625" lon="2.62330032885074615478515625">
        <ele>741.5999755859375</ele>
        <time>2020-08-08T14:17:10.000Z</time>
      </trkpt>
      <trkpt lat="42.303399257361888885498046875" lon="2.62329454533755779266357421875">
        <ele>741.4000244140625</ele>
        <time>2020-08-08T14:17:11.000Z</time>
      </trkpt>
      <trkpt lat="42.30316950939595699310302734375" lon="2.62328691780567169189453125">
        <ele>740.4000244140625</ele>
        <time>2020-08-08T14:17:17.000Z</time>
      </trkpt>
      <trkpt lat="42.30310010723769664764404296875" lon="2.62329672463238239288330078125">
        <ele>739</ele>
        <time>2020-08-08T14:17:19.000Z</time>
      </trkpt>
      <trkpt lat="42.30297035537660121917724609375" lon="2.6233068667352199554443359375">
        <ele>738.5999755859375</ele>
        <time>2020-08-08T14:17:23.000Z</time>
      </trkpt>
      <trkpt lat="42.3028421960771083831787109375" lon="2.623302675783634185791015625">
        <ele>738.20001220703125</ele>
        <time>2020-08-08T14:17:28.000Z</time>
      </trkpt>
      <trkpt lat="42.302813194692134857177734375" lon="2.623284570872783660888671875">
        <ele>737.79998779296875</ele>
        <time>2020-08-08T14:17:29.000Z</time>
      </trkpt>
      <trkpt lat="42.30272694490849971771240234375" lon="2.6232384704053401947021484375">
        <ele>736.79998779296875</ele>
        <time>2020-08-08T14:17:32.000Z</time>
      </trkpt>
      <trkpt lat="42.3026028089225292205810546875" lon="2.62318323366343975067138671875">
        <ele>737</ele>
        <time>2020-08-08T14:17:37.000Z</time>
      </trkpt>
      <trkpt lat="42.30248621664941310882568359375" lon="2.623137049376964569091796875">
        <ele>737</ele>
        <time>2020-08-08T14:17:42.000Z</time>
      </trkpt>
      <trkpt lat="42.30238362215459346771240234375" lon="2.62310762889683246612548828125">
        <ele>737.79998779296875</ele>
        <time>2020-08-08T14:17:47.000Z</time>
      </trkpt>
      <trkpt lat="42.3023342527449131011962890625" lon="2.62309572659432888031005859375">
        <ele>737.79998779296875</ele>
        <time>2020-08-08T14:17:49.000Z</time>
      </trkpt>
      <trkpt lat="42.3022775910794734954833984375" lon="2.6230688206851482391357421875">
        <ele>737.4000244140625</ele>
        <time>2020-08-08T14:17:51.000Z</time>
      </trkpt>
      <trkpt lat="42.30222738347947597503662109375" lon="2.623041160404682159423828125">
        <ele>736.5999755859375</ele>
        <time>2020-08-08T14:17:53.000Z</time>
      </trkpt>
      <trkpt lat="42.3021867312490940093994140625" lon="2.62300335802137851715087890625">
        <ele>736</ele>
        <time>2020-08-08T14:17:55.000Z</time>
      </trkpt>
      <trkpt lat="42.30214356444776058197021484375" lon="2.6229571737349033355712890625">
        <ele>735.4000244140625</ele>
        <time>2020-08-08T14:17:57.000Z</time>
      </trkpt>
      <trkpt lat="42.30206410400569438934326171875" lon="2.62289674021303653717041015625">
        <ele>734.79998779296875</ele>
        <time>2020-08-08T14:18:00.000Z</time>
      </trkpt>
      <trkpt lat="42.30199637822806835174560546875" lon="2.62285248376429080963134765625">
        <ele>734.4000244140625</ele>
        <time>2020-08-08T14:18:02.000Z</time>
      </trkpt>
      <trkpt lat="42.3019359447062015533447265625" lon="2.6228146813809871673583984375">
        <ele>733.20001220703125</ele>
        <time>2020-08-08T14:18:04.000Z</time>
      </trkpt>
      <trkpt lat="42.3019067756831645965576171875" lon="2.62279984541237354278564453125">
        <ele>732.79998779296875</ele>
        <time>2020-08-08T14:18:05.000Z</time>
      </trkpt>
      <trkpt lat="42.30185170657932758331298828125" lon="2.622777633368968963623046875">
        <ele>731.79998779296875</ele>
        <time>2020-08-08T14:18:07.000Z</time>
      </trkpt>
      <trkpt lat="42.301815412938594818115234375" lon="2.62276380322873592376708984375">
        <ele>730.79998779296875</ele>
        <time>2020-08-08T14:18:09.000Z</time>
      </trkpt>
      <trkpt lat="42.3017917759716510772705078125" lon="2.6227529905736446380615234375">
        <ele>730.20001220703125</ele>
        <time>2020-08-08T14:18:10.000Z</time>
      </trkpt>
      <trkpt lat="42.30176621116697788238525390625" lon="2.6227429322898387908935546875">
        <ele>729.79998779296875</ele>
        <time>2020-08-08T14:18:11.000Z</time>
      </trkpt>
      <trkpt lat="42.30166210792958736419677734375" lon="2.62270814739167690277099609375">
        <ele>728.4000244140625</ele>
        <time>2020-08-08T14:18:15.000Z</time>
      </trkpt>
      <trkpt lat="42.30160175822675228118896484375" lon="2.62269289232790470123291015625">
        <ele>727.5999755859375</ele>
        <time>2020-08-08T14:18:17.000Z</time>
      </trkpt>
      <trkpt lat="42.30154006741940975189208984375" lon="2.62267193756997585296630859375">
        <ele>727.4000244140625</ele>
        <time>2020-08-08T14:18:19.000Z</time>
      </trkpt>
      <trkpt lat="42.30144560337066650390625" lon="2.62264721095561981201171875">
        <ele>726.79998779296875</ele>
        <time>2020-08-08T14:18:22.000Z</time>
      </trkpt>
      <trkpt lat="42.30135046876966953277587890625" lon="2.622645534574985504150390625">
        <ele>726.20001220703125</ele>
        <time>2020-08-08T14:18:25.000Z</time>
      </trkpt>
      <trkpt lat="42.3013150133192539215087890625" lon="2.62266389094293117523193359375">
        <ele>725.20001220703125</ele>
        <time>2020-08-08T14:18:27.000Z</time>
      </trkpt>
      <trkpt lat="42.30126681737601757049560546875" lon="2.6227053813636302947998046875">
        <ele>724.20001220703125</ele>
        <time>2020-08-08T14:18:30.000Z</time>
      </trkpt>
      <trkpt lat="42.30123144574463367462158203125" lon="2.62273304164409637451171875">
        <ele>723.4000244140625</ele>
        <time>2020-08-08T14:18:32.000Z</time>
      </trkpt>
      <trkpt lat="42.3012194596230983734130859375" lon="2.62275206856429576873779296875">
        <ele>723</ele>
        <time>2020-08-08T14:18:33.000Z</time>
      </trkpt>
      <trkpt lat="42.301153242588043212890625" lon="2.62278609909117221832275390625">
        <ele>721.79998779296875</ele>
        <time>2020-08-08T14:18:36.000Z</time>
      </trkpt>
      <trkpt lat="42.30109415017068386077880859375" lon="2.62281493283808231353759765625">
        <ele>720.4000244140625</ele>
        <time>2020-08-08T14:18:38.000Z</time>
      </trkpt>
      <trkpt lat="42.3010380752384662628173828125" lon="2.6228317804634571075439453125">
        <ele>719.20001220703125</ele>
        <time>2020-08-08T14:18:40.000Z</time>
      </trkpt>
      <trkpt lat="42.30093061923980712890625" lon="2.622830606997013092041015625">
        <ele>718.20001220703125</ele>
        <time>2020-08-08T14:18:44.000Z</time>
      </trkpt>
      <trkpt lat="42.30090538971126079559326171875" lon="2.6228396594524383544921875">
        <ele>717.5999755859375</ele>
        <time>2020-08-08T14:18:45.000Z</time>
      </trkpt>
      <trkpt lat="42.30086146853864192962646484375" lon="2.62286555953323841094970703125">
        <ele>716.4000244140625</ele>
        <time>2020-08-08T14:18:48.000Z</time>
      </trkpt>
      <trkpt lat="42.30081369169056415557861328125" lon="2.62289154343307018280029296875">
        <ele>716</ele>
        <time>2020-08-08T14:18:52.000Z</time>
      </trkpt>
      <trkpt lat="42.30078368447721004486083984375" lon="2.62288701720535755157470703125">
        <ele>715.4000244140625</ele>
        <time>2020-08-08T14:18:54.000Z</time>
      </trkpt>
      <trkpt lat="42.300729118287563323974609375" lon="2.62287125922739505767822265625">
        <ele>714.4000244140625</ele>
        <time>2020-08-08T14:18:57.000Z</time>
      </trkpt>
      <trkpt lat="42.30071210302412509918212890625" lon="2.62285231612622737884521484375">
        <ele>713.79998779296875</ele>
        <time>2020-08-08T14:18:58.000Z</time>
      </trkpt>
      <trkpt lat="42.30069265700876712799072265625" lon="2.62279246933758258819580078125">
        <ele>712.79998779296875</ele>
        <time>2020-08-08T14:19:01.000Z</time>
      </trkpt>
      <trkpt lat="42.30066306889057159423828125" lon="2.62271200306713581085205078125">
        <ele>711.79998779296875</ele>
        <time>2020-08-08T14:19:04.000Z</time>
      </trkpt>
      <trkpt lat="42.3006518371403217315673828125" lon="2.62267461977899074554443359375">
        <ele>711.5999755859375</ele>
        <time>2020-08-08T14:19:05.000Z</time>
      </trkpt>
      <trkpt lat="42.30062677524983882904052734375" lon="2.62256280519068241119384765625">
        <ele>711.20001220703125</ele>
        <time>2020-08-08T14:19:08.000Z</time>
      </trkpt>
      <trkpt lat="42.30062744580209255218505859375" lon="2.62252642773091793060302734375">
        <ele>710.4000244140625</ele>
        <time>2020-08-08T14:19:09.000Z</time>
      </trkpt>
      <trkpt lat="42.3006173036992549896240234375" lon="2.62245677411556243896484375">
        <ele>709.20001220703125</ele>
        <time>2020-08-08T14:19:12.000Z</time>
      </trkpt>
      <trkpt lat="42.3006005398929119110107421875" lon="2.6223892159759998321533203125">
        <ele>709.20001220703125</ele>
        <time>2020-08-08T14:19:14.000Z</time>
      </trkpt>
      <trkpt lat="42.300591655075550079345703125" lon="2.62232911773025989532470703125">
        <ele>708.79998779296875</ele>
        <time>2020-08-08T14:19:16.000Z</time>
      </trkpt>
      <trkpt lat="42.30059358291327953338623046875" lon="2.622266001999378204345703125">
        <ele>708.20001220703125</ele>
        <time>2020-08-08T14:19:18.000Z</time>
      </trkpt>
      <trkpt lat="42.30058553628623485565185546875" lon="2.62219316326081752777099609375">
        <ele>707.4000244140625</ele>
        <time>2020-08-08T14:19:20.000Z</time>
      </trkpt>
      <trkpt lat="42.300576232373714447021484375" lon="2.6221528463065624237060546875">
        <ele>706.5999755859375</ele>
        <time>2020-08-08T14:19:21.000Z</time>
      </trkpt>
      <trkpt lat="42.3005596362054347991943359375" lon="2.62207849882543087005615234375">
        <ele>705.5999755859375</ele>
        <time>2020-08-08T14:19:23.000Z</time>
      </trkpt>
      <trkpt lat="42.30051244609057903289794921875" lon="2.62191555462777614593505859375">
        <ele>704.79998779296875</ele>
        <time>2020-08-08T14:19:27.000Z</time>
      </trkpt>
      <trkpt lat="42.30050079524517059326171875" lon="2.62186937034130096435546875">
        <ele>703.79998779296875</ele>
        <time>2020-08-08T14:19:28.000Z</time>
      </trkpt>
      <trkpt lat="42.30046567507088184356689453125" lon="2.6217407919466495513916015625">
        <ele>702.79998779296875</ele>
        <time>2020-08-08T14:19:30.000Z</time>
      </trkpt>
      <trkpt lat="42.300443463027477264404296875" lon="2.62167566455900669097900390625">
        <ele>702.20001220703125</ele>
        <time>2020-08-08T14:19:31.000Z</time>
      </trkpt>
      <trkpt lat="42.30037481524050235748291015625" lon="2.6214863173663616180419921875">
        <ele>701.79998779296875</ele>
        <time>2020-08-08T14:19:35.000Z</time>
      </trkpt>
      <trkpt lat="42.3002753220498561859130859375" lon="2.62132848612964153289794921875">
        <ele>700.79998779296875</ele>
        <time>2020-08-08T14:19:39.000Z</time>
      </trkpt>
      <trkpt lat="42.30023383162915706634521484375" lon="2.6211929507553577423095703125">
        <ele>700.5999755859375</ele>
        <time>2020-08-08T14:19:42.000Z</time>
      </trkpt>
      <trkpt lat="42.30021740309894084930419921875" lon="2.6211337745189666748046875">
        <ele>700.5999755859375</ele>
        <time>2020-08-08T14:19:43.000Z</time>
      </trkpt>
      <trkpt lat="42.30019234120845794677734375" lon="2.62093939818441867828369140625">
        <ele>699.5999755859375</ele>
        <time>2020-08-08T14:19:47.000Z</time>
      </trkpt>
      <trkpt lat="42.30018337257206439971923828125" lon="2.620831690728664398193359375">
        <ele>698.20001220703125</ele>
        <time>2020-08-08T14:19:50.000Z</time>
      </trkpt>
      <trkpt lat="42.30018639005720615386962890625" lon="2.62080453336238861083984375">
        <ele>698</ele>
        <time>2020-08-08T14:19:51.000Z</time>
      </trkpt>
      <trkpt lat="42.3001851327717304229736328125" lon="2.62067134492099285125732421875">
        <ele>697.4000244140625</ele>
        <time>2020-08-08T14:19:55.000Z</time>
      </trkpt>
      <trkpt lat="42.30018161237239837646484375" lon="2.620599679648876190185546875">
        <ele>696.4000244140625</ele>
        <time>2020-08-08T14:19:57.000Z</time>
      </trkpt>
      <trkpt lat="42.30017364956438541412353515625" lon="2.62056221254169940948486328125">
        <ele>696.20001220703125</ele>
        <time>2020-08-08T14:19:58.000Z</time>
      </trkpt>
      <trkpt lat="42.30013869702816009521484375" lon="2.62044888921082019805908203125">
        <ele>695</ele>
        <time>2020-08-08T14:20:01.000Z</time>
      </trkpt>
      <trkpt lat="42.3001318238675594329833984375" lon="2.6203809119760990142822265625">
        <ele>694.79998779296875</ele>
        <time>2020-08-08T14:20:03.000Z</time>
      </trkpt>
      <trkpt lat="42.30015101842582225799560546875" lon="2.62032265774905681610107421875">
        <ele>694.79998779296875</ele>
        <time>2020-08-08T14:20:05.000Z</time>
      </trkpt>
      <trkpt lat="42.3001529462635517120361328125" lon="2.62029449455440044403076171875">
        <ele>694.5999755859375</ele>
        <time>2020-08-08T14:20:06.000Z</time>
      </trkpt>
      <trkpt lat="42.30015101842582225799560546875" lon="2.62021419592201709747314453125">
        <ele>694.20001220703125</ele>
        <time>2020-08-08T14:20:09.000Z</time>
      </trkpt>
      <trkpt lat="42.30015604756772518157958984375" lon="2.620113193988800048828125">
        <ele>692.79998779296875</ele>
        <time>2020-08-08T14:20:12.000Z</time>
      </trkpt>
      <trkpt lat="42.30015277862548828125" lon="2.62007907964289188385009765625">
        <ele>692.79998779296875</ele>
        <time>2020-08-08T14:20:13.000Z</time>
      </trkpt>
      <trkpt lat="42.30015386827290058135986328125" lon="2.620048820972442626953125">
        <ele>692.4000244140625</ele>
        <time>2020-08-08T14:20:14.000Z</time>
      </trkpt>
      <trkpt lat="42.30015202425420284271240234375" lon="2.62001462280750274658203125">
        <ele>691.79998779296875</ele>
        <time>2020-08-08T14:20:15.000Z</time>
      </trkpt>
      <trkpt lat="42.30012821964919567108154296875" lon="2.61987556703388690948486328125">
        <ele>690.79998779296875</ele>
        <time>2020-08-08T14:20:19.000Z</time>
      </trkpt>
      <trkpt lat="42.3001043312251567840576171875" lon="2.61978705413639545440673828125">
        <ele>690.79998779296875</ele>
        <time>2020-08-08T14:20:21.000Z</time>
      </trkpt>
      <trkpt lat="42.3000776767730712890625" lon="2.61970256455242633819580078125">
        <ele>689.5999755859375</ele>
        <time>2020-08-08T14:20:23.000Z</time>
      </trkpt>
      <trkpt lat="42.30006895959377288818359375" lon="2.6196666061878204345703125">
        <ele>688.20001220703125</ele>
        <time>2020-08-08T14:20:24.000Z</time>
      </trkpt>
      <trkpt lat="42.3000580631196498870849609375" lon="2.6196094416081905364990234375">
        <ele>686.79998779296875</ele>
        <time>2020-08-08T14:20:26.000Z</time>
      </trkpt>
      <trkpt lat="42.30005647055804729461669921875" lon="2.61957583017647266387939453125">
        <ele>686.79998779296875</ele>
        <time>2020-08-08T14:20:27.000Z</time>
      </trkpt>
      <trkpt lat="42.300021350383758544921875" lon="2.619416825473308563232421875">
        <ele>685.5999755859375</ele>
        <time>2020-08-08T14:20:31.000Z</time>
      </trkpt>
      <trkpt lat="42.30001221410930156707763671875" lon="2.61937080882489681243896484375">
        <ele>685.4000244140625</ele>
        <time>2020-08-08T14:20:32.000Z</time>
      </trkpt>
      <trkpt lat="42.30000031180679798126220703125" lon="2.6192857325077056884765625">
        <ele>684.4000244140625</ele>
        <time>2020-08-08T14:20:34.000Z</time>
      </trkpt>
      <trkpt lat="42.29998405091464519500732421875" lon="2.61919093318283557891845703125">
        <ele>683.79998779296875</ele>
        <time>2020-08-08T14:20:36.000Z</time>
      </trkpt>
      <trkpt lat="42.29997332207858562469482421875" lon="2.61914365924894809722900390625">
        <ele>683.4000244140625</ele>
        <time>2020-08-08T14:20:37.000Z</time>
      </trkpt>
      <trkpt lat="42.2999447397887706756591796875" lon="2.61901726014912128448486328125">
        <ele>682.4000244140625</ele>
        <time>2020-08-08T14:20:40.000Z</time>
      </trkpt>
      <trkpt lat="42.29993560351431369781494140625" lon="2.61897384189069271087646484375">
        <ele>682.20001220703125</ele>
        <time>2020-08-08T14:20:41.000Z</time>
      </trkpt>
      <trkpt lat="42.299911044538021087646484375" lon="2.618813328444957733154296875">
        <ele>681.79998779296875</ele>
        <time>2020-08-08T14:20:46.000Z</time>
      </trkpt>
      <trkpt lat="42.29990861378610134124755859375" lon="2.61879019439220428466796875">
        <ele>681.5999755859375</ele>
        <time>2020-08-08T14:20:47.000Z</time>
      </trkpt>
      <trkpt lat="42.29989671148359775543212890625" lon="2.6187595166265964508056640625">
        <ele>681</ele>
        <time>2020-08-08T14:20:48.000Z</time>
      </trkpt>
      <trkpt lat="42.29988011531531810760498046875" lon="2.6186927966773509979248046875">
        <ele>680.79998779296875</ele>
        <time>2020-08-08T14:20:50.000Z</time>
      </trkpt>
      <trkpt lat="42.29986066929996013641357421875" lon="2.61860269121825695037841796875">
        <ele>680</ele>
        <time>2020-08-08T14:20:53.000Z</time>
      </trkpt>
      <trkpt lat="42.29986033402383327484130859375" lon="2.6185700856149196624755859375">
        <ele>679.79998779296875</ele>
        <time>2020-08-08T14:20:54.000Z</time>
      </trkpt>
      <trkpt lat="42.2998404689133167266845703125" lon="2.61848065070807933807373046875">
        <ele>679</ele>
        <time>2020-08-08T14:20:57.000Z</time>
      </trkpt>
      <trkpt lat="42.29982010088860988616943359375" lon="2.61844829656183719635009765625">
        <ele>678.5999755859375</ele>
        <time>2020-08-08T14:20:58.000Z</time>
      </trkpt>
      <trkpt lat="42.29979126714169979095458984375" lon="2.61838828213512897491455078125">
        <ele>677.79998779296875</ele>
        <time>2020-08-08T14:21:00.000Z</time>
      </trkpt>
      <trkpt lat="42.2997546382248401641845703125" lon="2.618273533880710601806640625">
        <ele>677.20001220703125</ele>
        <time>2020-08-08T14:21:03.000Z</time>
      </trkpt>
      <trkpt lat="42.29972370900213718414306640625" lon="2.61818644590675830841064453125">
        <ele>676.5999755859375</ele>
        <time>2020-08-08T14:21:05.000Z</time>
      </trkpt>
      <trkpt lat="42.29970593936741352081298828125" lon="2.618089132010936737060546875">
        <ele>676</ele>
        <time>2020-08-08T14:21:07.000Z</time>
      </trkpt>
      <trkpt lat="42.29970862157642841339111328125" lon="2.61800388805568218231201171875">
        <ele>675.79998779296875</ele>
        <time>2020-08-08T14:21:09.000Z</time>
      </trkpt>
      <trkpt lat="42.2997271455824375152587890625" lon="2.617929875850677490234375">
        <ele>675.20001220703125</ele>
        <time>2020-08-08T14:21:11.000Z</time>
      </trkpt>
      <trkpt lat="42.29974164627492427825927734375" lon="2.6179028861224651336669921875">
        <ele>674.5999755859375</ele>
        <time>2020-08-08T14:21:12.000Z</time>
      </trkpt>
      <trkpt lat="42.29978866875171661376953125" lon="2.61783407069742679595947265625">
        <ele>673.20001220703125</ele>
        <time>2020-08-08T14:21:15.000Z</time>
      </trkpt>
      <trkpt lat="42.29984357021749019622802734375" lon="2.6177942566573619842529296875">
        <ele>671.79998779296875</ele>
        <time>2020-08-08T14:21:17.000Z</time>
      </trkpt>
      <trkpt lat="42.29988045059144496917724609375" lon="2.617747150361537933349609375">
        <ele>671.20001220703125</ele>
        <time>2020-08-08T14:21:19.000Z</time>
      </trkpt>
      <trkpt lat="42.29993074201047420501708984375" lon="2.61763575486838817596435546875">
        <ele>670.5999755859375</ele>
        <time>2020-08-08T14:21:22.000Z</time>
      </trkpt>
      <trkpt lat="42.29994197376072406768798828125" lon="2.6176068373024463653564453125">
        <ele>669.79998779296875</ele>
        <time>2020-08-08T14:21:23.000Z</time>
      </trkpt>
      <trkpt lat="42.2999507747590541839599609375" lon="2.61757188476622104644775390625">
        <ele>669.4000244140625</ele>
        <time>2020-08-08T14:21:24.000Z</time>
      </trkpt>
      <trkpt lat="42.29995873756706714630126953125" lon="2.617490328848361968994140625">
        <ele>668</ele>
        <time>2020-08-08T14:21:26.000Z</time>
      </trkpt>
      <trkpt lat="42.29995639063417911529541015625" lon="2.617447413504123687744140625">
        <ele>667.5999755859375</ele>
        <time>2020-08-08T14:21:27.000Z</time>
      </trkpt>
      <trkpt lat="42.29995219968259334564208984375" lon="2.6173567213118076324462890625">
        <ele>666.4000244140625</ele>
        <time>2020-08-08T14:21:29.000Z</time>
      </trkpt>
      <trkpt lat="42.2999556362628936767578125" lon="2.61726192198693752288818359375">
        <ele>665.5999755859375</ele>
        <time>2020-08-08T14:21:31.000Z</time>
      </trkpt>
      <trkpt lat="42.2999829612672328948974609375" lon="2.61715899221599102020263671875">
        <ele>664.5999755859375</ele>
        <time>2020-08-08T14:21:33.000Z</time>
      </trkpt>
      <trkpt lat="42.29999109171330928802490234375" lon="2.61710518039762973785400390625">
        <ele>663.4000244140625</ele>
        <time>2020-08-08T14:21:34.000Z</time>
      </trkpt>
      <trkpt lat="42.29999612085521221160888671875" lon="2.6170532964169979095458984375">
        <ele>663</ele>
        <time>2020-08-08T14:21:35.000Z</time>
      </trkpt>
      <trkpt lat="42.29999997653067111968994140625" lon="2.61695422232151031494140625">
        <ele>662.20001220703125</ele>
        <time>2020-08-08T14:21:37.000Z</time>
      </trkpt>
      <trkpt lat="42.30000324547290802001953125" lon="2.6168709062039852142333984375">
        <ele>661.20001220703125</ele>
        <time>2020-08-08T14:21:39.000Z</time>
      </trkpt>
      <trkpt lat="42.3000067658722400665283203125" lon="2.61682673357427120208740234375">
        <ele>660.5999755859375</ele>
        <time>2020-08-08T14:21:40.000Z</time>
      </trkpt>
      <trkpt lat="42.30000701732933521270751953125" lon="2.616746015846729278564453125">
        <ele>660</ele>
        <time>2020-08-08T14:21:42.000Z</time>
      </trkpt>
      <trkpt lat="42.29999377392232418060302734375" lon="2.616661526262760162353515625">
        <ele>659.20001220703125</ele>
        <time>2020-08-08T14:21:44.000Z</time>
      </trkpt>
      <trkpt lat="42.29998589493334293365478515625" lon="2.6166197843849658966064453125">
        <ele>658.5999755859375</ele>
        <time>2020-08-08T14:21:45.000Z</time>
      </trkpt>
      <trkpt lat="42.29998254217207431793212890625" lon="2.61657913215458393096923828125">
        <ele>658</ele>
        <time>2020-08-08T14:21:47.000Z</time>
      </trkpt>
      <trkpt lat="42.2999963723123073577880859375" lon="2.61653889901936054229736328125">
        <ele>657.79998779296875</ele>
        <time>2020-08-08T14:21:54.000Z</time>
      </trkpt>
      <trkpt lat="42.2999900020658969879150390625" lon="2.61653487570583820343017578125">
        <ele>657.79998779296875</ele>
        <time>2020-08-08T14:22:00.000Z</time>
      </trkpt>
      <trkpt lat="42.29999880306422710418701171875" lon="2.61653688736259937286376953125">
        <ele>657.79998779296875</ele>
        <time>2020-08-08T14:22:03.000Z</time>
      </trkpt>
      <trkpt lat="42.30003350414335727691650390625" lon="2.61652481742203235626220703125">
        <ele>657.5999755859375</ele>
        <time>2020-08-08T14:22:14.000Z</time>
      </trkpt>
      <trkpt lat="42.30003819800913333892822265625" lon="2.616505287587642669677734375">
        <ele>657.79998779296875</ele>
        <time>2020-08-08T14:22:23.000Z</time>
      </trkpt>
      <trkpt lat="42.30004674755036830902099609375" lon="2.61649833060801029205322265625">
        <ele>657.79998779296875</ele>
        <time>2020-08-08T14:22:37.000Z</time>
      </trkpt>
      <trkpt lat="42.3000412993133068084716796875" lon="2.61647016741335391998291015625">
        <ele>657.5999755859375</ele>
        <time>2020-08-08T14:22:40.000Z</time>
      </trkpt>
      <trkpt lat="42.3000282235443592071533203125" lon="2.616427838802337646484375">
        <ele>657.79998779296875</ele>
        <time>2020-08-08T14:22:42.000Z</time>
      </trkpt>
      <trkpt lat="42.30002461932599544525146484375" lon="2.61631141416728496551513671875">
        <ele>657.20001220703125</ele>
        <time>2020-08-08T14:22:46.000Z</time>
      </trkpt>
      <trkpt lat="42.30001791380345821380615234375" lon="2.616271264851093292236328125">
        <ele>656.79998779296875</ele>
        <time>2020-08-08T14:22:48.000Z</time>
      </trkpt>
      <trkpt lat="42.30001674033701419830322265625" lon="2.61623748578131198883056640625">
        <ele>656.4000244140625</ele>
        <time>2020-08-08T14:22:50.000Z</time>
      </trkpt>
      <trkpt lat="42.30000953190028667449951171875" lon="2.61621083132922649383544921875">
        <ele>656.4000244140625</ele>
        <time>2020-08-08T14:22:51.000Z</time>
      </trkpt>
      <trkpt lat="42.29999528266489505767822265625" lon="2.61614411137998104095458984375">
        <ele>656</ele>
        <time>2020-08-08T14:22:53.000Z</time>
      </trkpt>
      <trkpt lat="42.2999843023717403411865234375" lon="2.61608191765844821929931640625">
        <ele>655.79998779296875</ele>
        <time>2020-08-08T14:22:55.000Z</time>
      </trkpt>
      <trkpt lat="42.29997533373534679412841796875" lon="2.61588460765779018402099609375">
        <ele>655.4000244140625</ele>
        <time>2020-08-08T14:23:00.000Z</time>
      </trkpt>
      <trkpt lat="42.2999604977667331695556640625" lon="2.61579240672290325164794921875">
        <ele>655.4000244140625</ele>
        <time>2020-08-08T14:23:02.000Z</time>
      </trkpt>
      <trkpt lat="42.29995488189160823822021484375" lon="2.61565661989152431488037109375">
        <ele>654.4000244140625</ele>
        <time>2020-08-08T14:23:05.000Z</time>
      </trkpt>
      <trkpt lat="42.29994465596973896026611328125" lon="2.6154313981533050537109375">
        <ele>653.5999755859375</ele>
        <time>2020-08-08T14:23:10.000Z</time>
      </trkpt>
      <trkpt lat="42.29993929155170917510986328125" lon="2.61536233127117156982421875">
        <ele>653.4000244140625</ele>
        <time>2020-08-08T14:23:12.000Z</time>
      </trkpt>
      <trkpt lat="42.2999259643256664276123046875" lon="2.6152837090194225311279296875">
        <ele>653</ele>
        <time>2020-08-08T14:23:14.000Z</time>
      </trkpt>
      <trkpt lat="42.29990291409194469451904296875" lon="2.61512956582009792327880859375">
        <ele>652</ele>
        <time>2020-08-08T14:23:17.000Z</time>
      </trkpt>
      <trkpt lat="42.2999004833400249481201171875" lon="2.6150252111256122589111328125">
        <ele>652</ele>
        <time>2020-08-08T14:23:19.000Z</time>
      </trkpt>
      <trkpt lat="42.2998957894742488861083984375" lon="2.614845000207424163818359375">
        <ele>651.79998779296875</ele>
        <time>2020-08-08T14:23:23.000Z</time>
      </trkpt>
      <trkpt lat="42.29989134706556797027587890625" lon="2.61476998217403888702392578125">
        <ele>651.20001220703125</ele>
        <time>2020-08-08T14:23:25.000Z</time>
      </trkpt>
      <trkpt lat="42.29988480918109416961669921875" lon="2.6146688126027584075927734375">
        <ele>650.4000244140625</ele>
        <time>2020-08-08T14:23:28.000Z</time>
      </trkpt>
      <trkpt lat="42.2998807020485401153564453125" lon="2.61462598107755184173583984375">
        <ele>650.20001220703125</ele>
        <time>2020-08-08T14:23:29.000Z</time>
      </trkpt>
      <trkpt lat="42.2998810373246669769287109375" lon="2.614544928073883056640625">
        <ele>649.79998779296875</ele>
        <time>2020-08-08T14:23:31.000Z</time>
      </trkpt>
      <trkpt lat="42.2998750023543834686279296875" lon="2.6145005039870738983154296875">
        <ele>649.79998779296875</ele>
        <time>2020-08-08T14:23:32.000Z</time>
      </trkpt>
      <trkpt lat="42.29986804537475109100341796875" lon="2.614356838166713714599609375">
        <ele>649.20001220703125</ele>
        <time>2020-08-08T14:23:36.000Z</time>
      </trkpt>
      <trkpt lat="42.29986301623284816741943359375" lon="2.61412876658141613006591796875">
        <ele>649.20001220703125</ele>
        <time>2020-08-08T14:23:42.000Z</time>
      </trkpt>
      <trkpt lat="42.2998354397714138031005859375" lon="2.613952495157718658447265625">
        <ele>649.20001220703125</ele>
        <time>2020-08-08T14:23:46.000Z</time>
      </trkpt>
      <trkpt lat="42.29984709061682224273681640625" lon="2.613796256482601165771484375">
        <ele>649.4000244140625</ele>
        <time>2020-08-08T14:23:49.000Z</time>
      </trkpt>
      <trkpt lat="42.29985144920647144317626953125" lon="2.61369475163519382476806640625">
        <ele>648.4000244140625</ele>
        <time>2020-08-08T14:23:52.000Z</time>
      </trkpt>
      <trkpt lat="42.299854718148708343505859375" lon="2.613647393882274627685546875">
        <ele>647.79998779296875</ele>
        <time>2020-08-08T14:23:53.000Z</time>
      </trkpt>
      <trkpt lat="42.2998595796525478363037109375" lon="2.61359567753970623016357421875">
        <ele>647.20001220703125</ele>
        <time>2020-08-08T14:23:54.000Z</time>
      </trkpt>
      <trkpt lat="42.29987391270697116851806640625" lon="2.6134393550455570220947265625">
        <ele>646.5999755859375</ele>
        <time>2020-08-08T14:23:58.000Z</time>
      </trkpt>
      <trkpt lat="42.29988522827625274658203125" lon="2.6134081743657588958740234375">
        <ele>646.4000244140625</ele>
        <time>2020-08-08T14:23:59.000Z</time>
      </trkpt>
      <trkpt lat="42.299895621836185455322265625" lon="2.61338445357978343963623046875">
        <ele>646.20001220703125</ele>
        <time>2020-08-08T14:24:00.000Z</time>
      </trkpt>
      <trkpt lat="42.29990961961448192596435546875" lon="2.61331991292536258697509765625">
        <ele>645</ele>
        <time>2020-08-08T14:24:02.000Z</time>
      </trkpt>
      <trkpt lat="42.2999288141727447509765625" lon="2.61330063454806804656982421875">
        <ele>644.4000244140625</ele>
        <time>2020-08-08T14:24:03.000Z</time>
      </trkpt>
      <trkpt lat="42.2999534569680690765380859375" lon="2.61325168423354625701904296875">
        <ele>644</ele>
        <time>2020-08-08T14:24:05.000Z</time>
      </trkpt>
      <trkpt lat="42.29997533373534679412841796875" lon="2.61316166259348392486572265625">
        <ele>642.79998779296875</ele>
        <time>2020-08-08T14:24:09.000Z</time>
      </trkpt>
      <trkpt lat="42.2999993897974491119384765625" lon="2.61309209279716014862060546875">
        <ele>642.4000244140625</ele>
        <time>2020-08-08T14:24:11.000Z</time>
      </trkpt>
      <trkpt lat="42.3000104539096355438232421875" lon="2.613058984279632568359375">
        <ele>641.79998779296875</ele>
        <time>2020-08-08T14:24:12.000Z</time>
      </trkpt>
      <trkpt lat="42.3000369407236576080322265625" lon="2.61298857629299163818359375">
        <ele>640.5999755859375</ele>
        <time>2020-08-08T14:24:14.000Z</time>
      </trkpt>
      <trkpt lat="42.300050519406795501708984375" lon="2.61291339062154293060302734375">
        <ele>640.4000244140625</ele>
        <time>2020-08-08T14:24:16.000Z</time>
      </trkpt>
      <trkpt lat="42.30006485246121883392333984375" lon="2.61265422217547893524169921875">
        <ele>639.4000244140625</ele>
        <time>2020-08-08T14:24:21.000Z</time>
      </trkpt>
      <trkpt lat="42.300069965422153472900390625" lon="2.6123892702162265777587890625">
        <ele>639</ele>
        <time>2020-08-08T14:24:26.000Z</time>
      </trkpt>
      <trkpt lat="42.3000664450228214263916015625" lon="2.6122370548546314239501953125">
        <ele>638.5999755859375</ele>
        <time>2020-08-08T14:24:29.000Z</time>
      </trkpt>
      <trkpt lat="42.30006569065153598785400390625" lon="2.612188942730426788330078125">
        <ele>638.20001220703125</ele>
        <time>2020-08-08T14:24:30.000Z</time>
      </trkpt>
      <trkpt lat="42.3000610806047916412353515625" lon="2.612097077071666717529296875">
        <ele>636.79998779296875</ele>
        <time>2020-08-08T14:24:32.000Z</time>
      </trkpt>
      <trkpt lat="42.3000543750822544097900390625" lon="2.6120102405548095703125">
        <ele>635.79998779296875</ele>
        <time>2020-08-08T14:24:34.000Z</time>
      </trkpt>
      <trkpt lat="42.300052531063556671142578125" lon="2.611959278583526611328125">
        <ele>635.79998779296875</ele>
        <time>2020-08-08T14:24:35.000Z</time>
      </trkpt>
      <trkpt lat="42.30003886856138706207275390625" lon="2.6118105836212635040283203125">
        <ele>635.4000244140625</ele>
        <time>2020-08-08T14:24:38.000Z</time>
      </trkpt>
      <trkpt lat="42.300037778913974761962890625" lon="2.61170203797519207000732421875">
        <ele>634.4000244140625</ele>
        <time>2020-08-08T14:24:40.000Z</time>
      </trkpt>
      <trkpt lat="42.3000362701714038848876953125" lon="2.6116060651838779449462890625">
        <ele>634</ele>
        <time>2020-08-08T14:24:42.000Z</time>
      </trkpt>
      <trkpt lat="42.30004104785621166229248046875" lon="2.61141872964799404144287109375">
        <ele>633.79998779296875</ele>
        <time>2020-08-08T14:24:46.000Z</time>
      </trkpt>
      <trkpt lat="42.3000553809106349945068359375" lon="2.6113106869161128997802734375">
        <ele>633.20001220703125</ele>
        <time>2020-08-08T14:24:48.000Z</time>
      </trkpt>
      <trkpt lat="42.300059907138347625732421875" lon="2.6112134568393230438232421875">
        <ele>632.20001220703125</ele>
        <time>2020-08-08T14:24:50.000Z</time>
      </trkpt>
      <trkpt lat="42.30006367899477481842041015625" lon="2.61117967776954174041748046875">
        <ele>631.79998779296875</ele>
        <time>2020-08-08T14:24:51.000Z</time>
      </trkpt>
      <trkpt lat="42.300077341496944427490234375" lon="2.611149251461029052734375">
        <ele>631</ele>
        <time>2020-08-08T14:24:54.000Z</time>
      </trkpt>
      <trkpt lat="42.3000882379710674285888671875" lon="2.6111303083598613739013671875">
        <ele>630.79998779296875</ele>
        <time>2020-08-08T14:25:05.000Z</time>
      </trkpt>
      <trkpt lat="42.30009636841714382171630859375" lon="2.61109292507171630859375">
        <ele>630.5999755859375</ele>
        <time>2020-08-08T14:25:13.000Z</time>
      </trkpt>
      <trkpt lat="42.30010324157774448394775390625" lon="2.611077837646007537841796875">
        <ele>630.5999755859375</ele>
        <time>2020-08-08T14:25:14.000Z</time>
      </trkpt>
      <trkpt lat="42.30012126266956329345703125" lon="2.61101120151579380035400390625">
        <ele>629.79998779296875</ele>
        <time>2020-08-08T14:25:17.000Z</time>
      </trkpt>
      <trkpt lat="42.30012453161180019378662109375" lon="2.61097599752247333526611328125">
        <ele>629.5999755859375</ele>
        <time>2020-08-08T14:25:18.000Z</time>
      </trkpt>
      <trkpt lat="42.30012553744018077850341796875" lon="2.61094205081462860107421875">
        <ele>629.20001220703125</ele>
        <time>2020-08-08T14:25:19.000Z</time>
      </trkpt>
      <trkpt lat="42.3001271300017833709716796875" lon="2.6109093613922595977783203125">
        <ele>628.5999755859375</ele>
        <time>2020-08-08T14:25:20.000Z</time>
      </trkpt>
      <trkpt lat="42.300130985677242279052734375" lon="2.610831074416637420654296875">
        <ele>627.4000244140625</ele>
        <time>2020-08-08T14:25:22.000Z</time>
      </trkpt>
      <trkpt lat="42.300131320953369140625" lon="2.61073275469243526458740234375">
        <ele>626.79998779296875</ele>
        <time>2020-08-08T14:25:24.000Z</time>
      </trkpt>
      <trkpt lat="42.3001398704946041107177734375" lon="2.610693611204624176025390625">
        <ele>626.4000244140625</ele>
        <time>2020-08-08T14:25:25.000Z</time>
      </trkpt>
      <trkpt lat="42.30013467371463775634765625" lon="2.61061473749577999114990234375">
        <ele>625.4000244140625</ele>
        <time>2020-08-08T14:25:27.000Z</time>
      </trkpt>
      <trkpt lat="42.30013090185821056365966796875" lon="2.610574923455715179443359375">
        <ele>625.20001220703125</ele>
        <time>2020-08-08T14:25:28.000Z</time>
      </trkpt>
      <trkpt lat="42.30011112056672573089599609375" lon="2.61046235449612140655517578125">
        <ele>624.5999755859375</ele>
        <time>2020-08-08T14:25:31.000Z</time>
      </trkpt>
      <trkpt lat="42.3001083545386791229248046875" lon="2.61042840778827667236328125">
        <ele>624.20001220703125</ele>
        <time>2020-08-08T14:25:32.000Z</time>
      </trkpt>
      <trkpt lat="42.3001036606729030609130859375" lon="2.610349953174591064453125">
        <ele>623.20001220703125</ele>
        <time>2020-08-08T14:25:34.000Z</time>
      </trkpt>
      <trkpt lat="42.30011162348091602325439453125" lon="2.610273845493793487548828125">
        <ele>622.79998779296875</ele>
        <time>2020-08-08T14:25:36.000Z</time>
      </trkpt>
      <trkpt lat="42.30010793544352054595947265625" lon="2.6101992465555667877197265625">
        <ele>621.79998779296875</ele>
        <time>2020-08-08T14:25:38.000Z</time>
      </trkpt>
      <trkpt lat="42.30009988881647586822509765625" lon="2.61010025627911090850830078125">
        <ele>620.79998779296875</ele>
        <time>2020-08-08T14:25:41.000Z</time>
      </trkpt>
      <trkpt lat="42.30009016580879688262939453125" lon="2.609936557710170745849609375">
        <ele>620.4000244140625</ele>
        <time>2020-08-08T14:25:47.000Z</time>
      </trkpt>
      <trkpt lat="42.3000731505453586578369140625" lon="2.609823904931545257568359375">
        <ele>620.4000244140625</ele>
        <time>2020-08-08T14:25:52.000Z</time>
      </trkpt>
      <trkpt lat="42.30006552301347255706787109375" lon="2.60974117554724216461181640625">
        <ele>621.20001220703125</ele>
        <time>2020-08-08T14:25:56.000Z</time>
      </trkpt>
      <trkpt lat="42.30005680583417415618896484375" lon="2.60967227630317211151123046875">
        <ele>621.5999755859375</ele>
        <time>2020-08-08T14:25:59.000Z</time>
      </trkpt>
      <trkpt lat="42.3000557161867618560791015625" lon="2.6096336357295513153076171875">
        <ele>622</ele>
        <time>2020-08-08T14:26:01.000Z</time>
      </trkpt>
      <trkpt lat="42.300052531063556671142578125" lon="2.60956498794257640838623046875">
        <ele>622.5999755859375</ele>
        <time>2020-08-08T14:26:04.000Z</time>
      </trkpt>
      <trkpt lat="42.30007834732532501220703125" lon="2.6094170473515987396240234375">
        <ele>621.79998779296875</ele>
        <time>2020-08-08T14:26:09.000Z</time>
      </trkpt>
      <trkpt lat="42.30009988881647586822509765625" lon="2.60923122055828571319580078125">
        <ele>621</ele>
        <time>2020-08-08T14:26:13.000Z</time>
      </trkpt>
      <trkpt lat="42.3001029901206493377685546875" lon="2.60917372070252895355224609375">
        <ele>621</ele>
        <time>2020-08-08T14:26:14.000Z</time>
      </trkpt>
      <trkpt lat="42.300140373408794403076171875" lon="2.60890885256230831146240234375">
        <ele>620.20001220703125</ele>
        <time>2020-08-08T14:26:19.000Z</time>
      </trkpt>
      <trkpt lat="42.3001465760171413421630859375" lon="2.60885403491556644439697265625">
        <ele>619.5999755859375</ele>
        <time>2020-08-08T14:26:20.000Z</time>
      </trkpt>
      <trkpt lat="42.300150431692600250244140625" lon="2.60874657891690731048583984375">
        <ele>618.4000244140625</ele>
        <time>2020-08-08T14:26:22.000Z</time>
      </trkpt>
      <trkpt lat="42.3001760803163051605224609375" lon="2.6086009852588176727294921875">
        <ele>617.79998779296875</ele>
        <time>2020-08-08T14:26:25.000Z</time>
      </trkpt>
      <trkpt lat="42.300243638455867767333984375" lon="2.60842211544513702392578125">
        <ele>617.4000244140625</ele>
        <time>2020-08-08T14:26:29.000Z</time>
      </trkpt>
      <trkpt lat="42.30026450939476490020751953125" lon="2.60838682763278484344482421875">
        <ele>616.5999755859375</ele>
        <time>2020-08-08T14:26:30.000Z</time>
      </trkpt>
      <trkpt lat="42.3002873919904232025146484375" lon="2.608344666659832000732421875">
        <ele>615.79998779296875</ele>
        <time>2020-08-08T14:26:31.000Z</time>
      </trkpt>
      <trkpt lat="42.30033977888524532318115234375" lon="2.60826042853295803070068359375">
        <ele>614.4000244140625</ele>
        <time>2020-08-08T14:26:33.000Z</time>
      </trkpt>
      <trkpt lat="42.30036777444183826446533203125" lon="2.60821382515132427215576171875">
        <ele>614</ele>
        <time>2020-08-08T14:26:34.000Z</time>
      </trkpt>
      <trkpt lat="42.300481013953685760498046875" lon="2.60805691592395305633544921875">
        <ele>613.4000244140625</ele>
        <time>2020-08-08T14:26:38.000Z</time>
      </trkpt>
      <trkpt lat="42.30052166618406772613525390625" lon="2.608023472130298614501953125">
        <ele>612.5999755859375</ele>
        <time>2020-08-08T14:26:39.000Z</time>
      </trkpt>
      <trkpt lat="42.30056374333798885345458984375" lon="2.6079907827079296112060546875">
        <ele>611.5999755859375</ele>
        <time>2020-08-08T14:26:40.000Z</time>
      </trkpt>
      <trkpt lat="42.300657369196414947509765625" lon="2.607942335307598114013671875">
        <ele>610.4000244140625</ele>
        <time>2020-08-08T14:26:42.000Z</time>
      </trkpt>
      <trkpt lat="42.30075619183480739593505859375" lon="2.6079078018665313720703125">
        <ele>610</ele>
        <time>2020-08-08T14:26:44.000Z</time>
      </trkpt>
      <trkpt lat="42.3010062240064144134521484375" lon="2.60781350545585155487060546875">
        <ele>609.20001220703125</ele>
        <time>2020-08-08T14:26:49.000Z</time>
      </trkpt>
      <trkpt lat="42.3010457865893840789794921875" lon="2.60778567753732204437255859375">
        <ele>608.4000244140625</ele>
        <time>2020-08-08T14:26:50.000Z</time>
      </trkpt>
      <trkpt lat="42.3011024482548236846923828125" lon="2.60770739056169986724853515625">
        <ele>608</ele>
        <time>2020-08-08T14:26:52.000Z</time>
      </trkpt>
      <trkpt lat="42.30111300945281982421875" lon="2.6076565124094486236572265625">
        <ele>608</ele>
        <time>2020-08-08T14:26:53.000Z</time>
      </trkpt>
      <trkpt lat="42.30107654817402362823486328125" lon="2.60745978914201259613037109375">
        <ele>607.5999755859375</ele>
        <time>2020-08-08T14:26:57.000Z</time>
      </trkpt>
      <trkpt lat="42.3010285198688507080078125" lon="2.60731779970228672027587890625">
        <ele>607.20001220703125</ele>
        <time>2020-08-08T14:27:00.000Z</time>
      </trkpt>
      <trkpt lat="42.3009884543716907501220703125" lon="2.6071326434612274169921875">
        <ele>606.4000244140625</ele>
        <time>2020-08-08T14:27:03.000Z</time>
      </trkpt>
      <trkpt lat="42.30094738304615020751953125" lon="2.60701269842684268951416015625">
        <ele>605.79998779296875</ele>
        <time>2020-08-08T14:27:05.000Z</time>
      </trkpt>
      <trkpt lat="42.30086582712829113006591796875" lon="2.60683081112802028656005859375">
        <ele>605.4000244140625</ele>
        <time>2020-08-08T14:27:08.000Z</time>
      </trkpt>
      <trkpt lat="42.3008426092565059661865234375" lon="2.60676828213036060333251953125">
        <ele>605.79998779296875</ele>
        <time>2020-08-08T14:27:09.000Z</time>
      </trkpt>
      <trkpt lat="42.3007836006581783294677734375" lon="2.60658077895641326904296875">
        <ele>605</ele>
        <time>2020-08-08T14:27:12.000Z</time>
      </trkpt>
      <trkpt lat="42.30076390318572521209716796875" lon="2.60652487166225910186767578125">
        <ele>605</ele>
        <time>2020-08-08T14:27:13.000Z</time>
      </trkpt>
      <trkpt lat="42.30074219405651092529296875" lon="2.60647826828062534332275390625">
        <ele>604.79998779296875</ele>
        <time>2020-08-08T14:27:14.000Z</time>
      </trkpt>
      <trkpt lat="42.30065141804516315460205078125" lon="2.60637483559548854827880859375">
        <ele>604.5999755859375</ele>
        <time>2020-08-08T14:27:18.000Z</time>
      </trkpt>
      <trkpt lat="42.30057765729725360870361328125" lon="2.60635555721819400787353515625">
        <ele>604.79998779296875</ele>
        <time>2020-08-08T14:27:21.000Z</time>
      </trkpt>
      <trkpt lat="42.3004942573606967926025390625" lon="2.606377266347408294677734375">
        <ele>605</ele>
        <time>2020-08-08T14:27:24.000Z</time>
      </trkpt>
      <trkpt lat="42.30027741752564907073974609375" lon="2.60649721138179302215576171875">
        <ele>604.5999755859375</ele>
        <time>2020-08-08T14:27:32.000Z</time>
      </trkpt>
      <trkpt lat="42.30013467371463775634765625" lon="2.6065685413777828216552734375">
        <ele>605</ele>
        <time>2020-08-08T14:27:38.000Z</time>
      </trkpt>
      <trkpt lat="42.29999628849327564239501953125" lon="2.606648169457912445068359375">
        <ele>605.4000244140625</ele>
        <time>2020-08-08T14:27:45.000Z</time>
      </trkpt>
      <trkpt lat="42.29991297237575054168701171875" lon="2.60673358105123043060302734375">
        <ele>604.79998779296875</ele>
        <time>2020-08-08T14:27:49.000Z</time>
      </trkpt>
      <trkpt lat="42.29988346807658672332763671875" lon="2.60675285942852497100830078125">
        <ele>604.5999755859375</ele>
        <time>2020-08-08T14:27:50.000Z</time>
      </trkpt>
      <trkpt lat="42.29985446669161319732666015625" lon="2.60677482001483440399169921875">
        <ele>604.4000244140625</ele>
        <time>2020-08-08T14:27:51.000Z</time>
      </trkpt>
      <trkpt lat="42.2997920215129852294921875" lon="2.6068052463233470916748046875">
        <ele>603.79998779296875</ele>
        <time>2020-08-08T14:27:53.000Z</time>
      </trkpt>
      <trkpt lat="42.29976721107959747314453125" lon="2.60678353719413280487060546875">
        <ele>603.4000244140625</ele>
        <time>2020-08-08T14:27:54.000Z</time>
      </trkpt>
      <trkpt lat="42.2997402213513851165771484375" lon="2.60667172260582447052001953125">
        <ele>603</ele>
        <time>2020-08-08T14:27:57.000Z</time>
      </trkpt>
      <trkpt lat="42.29970443062484264373779296875" lon="2.60654297657310962677001953125">
        <ele>602.20001220703125</ele>
        <time>2020-08-08T14:28:00.000Z</time>
      </trkpt>
      <trkpt lat="42.29968230240046977996826171875" lon="2.60645412839949131011962890625">
        <ele>600.79998779296875</ele>
        <time>2020-08-08T14:28:02.000Z</time>
      </trkpt>
      <trkpt lat="42.29966704733669757843017578125" lon="2.60640668682754039764404296875">
        <ele>600.79998779296875</ele>
        <time>2020-08-08T14:28:03.000Z</time>
      </trkpt>
      <trkpt lat="42.29964743368327617645263671875" lon="2.60635706596076488494873046875">
        <ele>600.5999755859375</ele>
        <time>2020-08-08T14:28:04.000Z</time>
      </trkpt>
      <trkpt lat="42.2996024228632450103759765625" lon="2.60626033879816532135009765625">
        <ele>599.5999755859375</ele>
        <time>2020-08-08T14:28:06.000Z</time>
      </trkpt>
      <trkpt lat="42.29955590330064296722412109375" lon="2.6061501167714595794677734375">
        <ele>598.4000244140625</ele>
        <time>2020-08-08T14:28:08.000Z</time>
      </trkpt>
      <trkpt lat="42.299461103975772857666015625" lon="2.6059632003307342529296875">
        <ele>597.79998779296875</ele>
        <time>2020-08-08T14:28:12.000Z</time>
      </trkpt>
      <trkpt lat="42.29943386279046535491943359375" lon="2.60591198690235614776611328125">
        <ele>597.4000244140625</ele>
        <time>2020-08-08T14:28:13.000Z</time>
      </trkpt>
      <trkpt lat="42.29937904514372348785400390625" lon="2.60579262860119342803955078125">
        <ele>596.20001220703125</ele>
        <time>2020-08-08T14:28:15.000Z</time>
      </trkpt>
      <trkpt lat="42.29933193884789943695068359375" lon="2.605669833719730377197265625">
        <ele>595.4000244140625</ele>
        <time>2020-08-08T14:28:17.000Z</time>
      </trkpt>
      <trkpt lat="42.299324311316013336181640625" lon="2.60544997639954090118408203125">
        <ele>596</ele>
        <time>2020-08-08T14:28:21.000Z</time>
      </trkpt>
      <trkpt lat="42.2992755286395549774169921875" lon="2.60527797974646091461181640625">
        <ele>595.5999755859375</ele>
        <time>2020-08-08T14:28:24.000Z</time>
      </trkpt>
      <trkpt lat="42.299259938299655914306640625" lon="2.60521595366299152374267578125">
        <ele>595.20001220703125</ele>
        <time>2020-08-08T14:28:25.000Z</time>
      </trkpt>
      <trkpt lat="42.29924661107361316680908203125" lon="2.6051531732082366943359375">
        <ele>594</ele>
        <time>2020-08-08T14:28:26.000Z</time>
      </trkpt>
      <trkpt lat="42.29921911843121051788330078125" lon="2.60502618737518787384033203125">
        <ele>592.4000244140625</ele>
        <time>2020-08-08T14:28:28.000Z</time>
      </trkpt>
      <trkpt lat="42.2992078028619289398193359375" lon="2.6049578748643398284912109375">
        <ele>591.20001220703125</ele>
        <time>2020-08-08T14:28:29.000Z</time>
      </trkpt>
      <trkpt lat="42.2991803102195262908935546875" lon="2.6048197411000728607177734375">
        <ele>590</ele>
        <time>2020-08-08T14:28:31.000Z</time>
      </trkpt>
      <trkpt lat="42.299168072640895843505859375" lon="2.60474706999957561492919921875">
        <ele>589.5999755859375</ele>
        <time>2020-08-08T14:28:32.000Z</time>
      </trkpt>
      <trkpt lat="42.29914301075041294097900390625" lon="2.6046113669872283935546875">
        <ele>588.5999755859375</ele>
        <time>2020-08-08T14:28:34.000Z</time>
      </trkpt>
      <trkpt lat="42.2991340421140193939208984375" lon="2.60455294512212276458740234375">
        <ele>587.4000244140625</ele>
        <time>2020-08-08T14:28:35.000Z</time>
      </trkpt>
      <trkpt lat="42.2991214692592620849609375" lon="2.6044928468763828277587890625">
        <ele>586.5999755859375</ele>
        <time>2020-08-08T14:28:36.000Z</time>
      </trkpt>
      <trkpt lat="42.29911233298480510711669921875" lon="2.60443056933581829071044921875">
        <ele>585.79998779296875</ele>
        <time>2020-08-08T14:28:37.000Z</time>
      </trkpt>
      <trkpt lat="42.299107052385807037353515625" lon="2.60437105782330036163330078125">
        <ele>584.79998779296875</ele>
        <time>2020-08-08T14:28:38.000Z</time>
      </trkpt>
      <trkpt lat="42.29909640736877918243408203125" lon="2.60431154631078243255615234375">
        <ele>584.20001220703125</ele>
        <time>2020-08-08T14:28:39.000Z</time>
      </trkpt>
      <trkpt lat="42.29907796718180179595947265625" lon="2.6041921041905879974365234375">
        <ele>583.4000244140625</ele>
        <time>2020-08-08T14:28:41.000Z</time>
      </trkpt>
      <trkpt lat="42.299064137041568756103515625" lon="2.60412965901196002960205078125">
        <ele>582.79998779296875</ele>
        <time>2020-08-08T14:28:42.000Z</time>
      </trkpt>
      <trkpt lat="42.299039997160434722900390625" lon="2.604006864130496978759765625">
        <ele>581.5999755859375</ele>
        <time>2020-08-08T14:28:44.000Z</time>
      </trkpt>
      <trkpt lat="42.2990210540592670440673828125" lon="2.60389295406639575958251953125">
        <ele>580.4000244140625</ele>
        <time>2020-08-08T14:28:46.000Z</time>
      </trkpt>
      <trkpt lat="42.29901292361319065093994140625" lon="2.6037753559648990631103515625">
        <ele>579.20001220703125</ele>
        <time>2020-08-08T14:28:48.000Z</time>
      </trkpt>
      <trkpt lat="42.299007810652256011962890625" lon="2.60371576063334941864013671875">
        <ele>578.5999755859375</ele>
        <time>2020-08-08T14:28:49.000Z</time>
      </trkpt>
      <trkpt lat="42.29900286532938480377197265625" lon="2.6036600209772586822509765625">
        <ele>577.4000244140625</ele>
        <time>2020-08-08T14:28:50.000Z</time>
      </trkpt>
      <trkpt lat="42.29897998273372650146484375" lon="2.603442259132862091064453125">
        <ele>576</ele>
        <time>2020-08-08T14:28:54.000Z</time>
      </trkpt>
      <trkpt lat="42.298961542546749114990234375" lon="2.6033354736864566802978515625">
        <ele>575.20001220703125</ele>
        <time>2020-08-08T14:28:56.000Z</time>
      </trkpt>
      <trkpt lat="42.29894855059683322906494140625" lon="2.6032831706106662750244140625">
        <ele>574.5999755859375</ele>
        <time>2020-08-08T14:28:57.000Z</time>
      </trkpt>
      <trkpt lat="42.2989063896238803863525390625" lon="2.6031973399221897125244140625">
        <ele>573.20001220703125</ele>
        <time>2020-08-08T14:28:59.000Z</time>
      </trkpt>
      <trkpt lat="42.2988775558769702911376953125" lon="2.60316632688045501708984375">
        <ele>572.5999755859375</ele>
        <time>2020-08-08T14:29:00.000Z</time>
      </trkpt>
      <trkpt lat="42.29881393723189830780029296875" lon="2.603121735155582427978515625">
        <ele>571.79998779296875</ele>
        <time>2020-08-08T14:29:02.000Z</time>
      </trkpt>
      <trkpt lat="42.29874168522655963897705078125" lon="2.603084854781627655029296875">
        <ele>570.5999755859375</ele>
        <time>2020-08-08T14:29:04.000Z</time>
      </trkpt>
      <trkpt lat="42.29861930944025516510009765625" lon="2.60299491696059703826904296875">
        <ele>569.20001220703125</ele>
        <time>2020-08-08T14:29:07.000Z</time>
      </trkpt>
      <trkpt lat="42.298538424074649810791015625" lon="2.60293968021869659423828125">
        <ele>568</ele>
        <time>2020-08-08T14:29:09.000Z</time>
      </trkpt>
      <trkpt lat="42.2984594665467739105224609375" lon="2.60289299301803112030029296875">
        <ele>567.20001220703125</ele>
        <time>2020-08-08T14:29:11.000Z</time>
      </trkpt>
      <trkpt lat="42.2984118573367595672607421875" lon="2.602874301373958587646484375">
        <ele>567</ele>
        <time>2020-08-08T14:29:12.000Z</time>
      </trkpt>
      <trkpt lat="42.29829727672040462493896484375" lon="2.60284102521836757659912109375">
        <ele>565.79998779296875</ele>
        <time>2020-08-08T14:29:14.000Z</time>
      </trkpt>
      <trkpt lat="42.2981895692646503448486328125" lon="2.6028013788163661956787109375">
        <ele>564</ele>
        <time>2020-08-08T14:29:16.000Z</time>
      </trkpt>
      <trkpt lat="42.29809795506298542022705078125" lon="2.60274513624608516693115234375">
        <ele>563</ele>
        <time>2020-08-08T14:29:18.000Z</time>
      </trkpt>
      <trkpt lat="42.2980681993067264556884765625" lon="2.60270901024341583251953125">
        <ele>562.79998779296875</ele>
        <time>2020-08-08T14:29:19.000Z</time>
      </trkpt>
      <trkpt lat="42.29806442745029926300048828125" lon="2.60256777517497539520263671875">
        <ele>562.20001220703125</ele>
        <time>2020-08-08T14:29:22.000Z</time>
      </trkpt>
      <trkpt lat="42.2980873100459575653076171875" lon="2.6024496741592884063720703125">
        <ele>562.4000244140625</ele>
        <time>2020-08-08T14:29:26.000Z</time>
      </trkpt>
      <trkpt lat="42.29808772914111614227294921875" lon="2.6023283042013645172119140625">
        <ele>563.4000244140625</ele>
        <time>2020-08-08T14:29:30.000Z</time>
      </trkpt>
      <trkpt lat="42.29808487929403781890869140625" lon="2.60226652957499027252197265625">
        <ele>564</ele>
        <time>2020-08-08T14:29:32.000Z</time>
      </trkpt>
      <trkpt lat="42.29809644632041454315185546875" lon="2.60220869444310665130615234375">
        <ele>564</ele>
        <time>2020-08-08T14:29:34.000Z</time>
      </trkpt>
      <trkpt lat="42.29810114018619060516357421875" lon="2.6021817885339260101318359375">
        <ele>564.20001220703125</ele>
        <time>2020-08-08T14:29:35.000Z</time>
      </trkpt>
      <trkpt lat="42.2981148026883602142333984375" lon="2.6019715704023838043212890625">
        <ele>563.20001220703125</ele>
        <time>2020-08-08T14:29:41.000Z</time>
      </trkpt>
      <trkpt lat="42.2981148026883602142333984375" lon="2.601926140487194061279296875">
        <ele>563</ele>
        <time>2020-08-08T14:29:42.000Z</time>
      </trkpt>
      <trkpt lat="42.29811354540288448333740234375" lon="2.60178423486649990081787109375">
        <ele>562</ele>
        <time>2020-08-08T14:29:45.000Z</time>
      </trkpt>
      <trkpt lat="42.29810751043260097503662109375" lon="2.6017345301806926727294921875">
        <ele>561.4000244140625</ele>
        <time>2020-08-08T14:29:46.000Z</time>
      </trkpt>
      <trkpt lat="42.2981017269194126129150390625" lon="2.60169119574129581451416015625">
        <ele>561</ele>
        <time>2020-08-08T14:29:47.000Z</time>
      </trkpt>
      <trkpt lat="42.29810214601457118988037109375" lon="2.60154266841709613800048828125">
        <ele>559.5999755859375</ele>
        <time>2020-08-08T14:29:50.000Z</time>
      </trkpt>
      <trkpt lat="42.2981007210910320281982421875" lon="2.60143437422811985015869140625">
        <ele>558.4000244140625</ele>
        <time>2020-08-08T14:29:52.000Z</time>
      </trkpt>
      <trkpt lat="42.29809560813009738922119140625" lon="2.601375617086887359619140625">
        <ele>558.4000244140625</ele>
        <time>2020-08-08T14:29:53.000Z</time>
      </trkpt>
      <trkpt lat="42.29809376411139965057373046875" lon="2.60125013999640941619873046875">
        <ele>558</ele>
        <time>2020-08-08T14:29:55.000Z</time>
      </trkpt>
      <trkpt lat="42.29809485375881195068359375" lon="2.6011876948177814483642578125">
        <ele>557.4000244140625</ele>
        <time>2020-08-08T14:29:56.000Z</time>
      </trkpt>
      <trkpt lat="42.2980920039117336273193359375" lon="2.60107110254466533660888671875">
        <ele>556.5999755859375</ele>
        <time>2020-08-08T14:29:58.000Z</time>
      </trkpt>
      <trkpt lat="42.2980856336653232574462890625" lon="2.601016201078891754150390625">
        <ele>556.4000244140625</ele>
        <time>2020-08-08T14:29:59.000Z</time>
      </trkpt>
      <trkpt lat="42.29807850904762744903564453125" lon="2.600959874689579010009765625">
        <ele>556.20001220703125</ele>
        <time>2020-08-08T14:30:00.000Z</time>
      </trkpt>
      <trkpt lat="42.29803877882659435272216796875" lon="2.6007739640772342681884765625">
        <ele>555.4000244140625</ele>
        <time>2020-08-08T14:30:03.000Z</time>
      </trkpt>
      <trkpt lat="42.2980122081935405731201171875" lon="2.60063842870295047760009765625">
        <ele>555.20001220703125</ele>
        <time>2020-08-08T14:30:05.000Z</time>
      </trkpt>
      <trkpt lat="42.29799653403460979461669921875" lon="2.60056701488792896270751953125">
        <ele>555</ele>
        <time>2020-08-08T14:30:06.000Z</time>
      </trkpt>
      <trkpt lat="42.29799351654946804046630859375" lon="2.6005030609667301177978515625">
        <ele>554.79998779296875</ele>
        <time>2020-08-08T14:30:07.000Z</time>
      </trkpt>
      <trkpt lat="42.2979748249053955078125" lon="2.600389905273914337158203125">
        <ele>554.79998779296875</ele>
        <time>2020-08-08T14:30:09.000Z</time>
      </trkpt>
      <trkpt lat="42.29791673831641674041748046875" lon="2.60014607571065425872802734375">
        <ele>555</ele>
        <time>2020-08-08T14:30:14.000Z</time>
      </trkpt>
      <trkpt lat="42.2978807799518108367919921875" lon="2.59994742460548877716064453125">
        <ele>555.5999755859375</ele>
        <time>2020-08-08T14:30:19.000Z</time>
      </trkpt>
      <trkpt lat="42.29780777357518672943115234375" lon="2.5997550599277019500732421875">
        <ele>555.79998779296875</ele>
        <time>2020-08-08T14:30:24.000Z</time>
      </trkpt>
      <trkpt lat="42.2976833023130893707275390625" lon="2.5995418243110179901123046875">
        <ele>556.20001220703125</ele>
        <time>2020-08-08T14:30:30.000Z</time>
      </trkpt>
      <trkpt lat="42.2975545562803745269775390625" lon="2.59930671192705631256103515625">
        <ele>554.79998779296875</ele>
        <time>2020-08-08T14:30:35.000Z</time>
      </trkpt>
      <trkpt lat="42.29749261401593685150146484375" lon="2.59915701113641262054443359375">
        <ele>554.5999755859375</ele>
        <time>2020-08-08T14:30:39.000Z</time>
      </trkpt>
      <trkpt lat="42.2974529676139354705810546875" lon="2.59892575442790985107421875">
        <ele>556</ele>
        <time>2020-08-08T14:30:45.000Z</time>
      </trkpt>
      <trkpt lat="42.29743997566401958465576171875" lon="2.598803043365478515625">
        <ele>557.20001220703125</ele>
        <time>2020-08-08T14:30:49.000Z</time>
      </trkpt>
      <trkpt lat="42.29741223156452178955078125" lon="2.59871260263025760650634765625">
        <ele>558</ele>
        <time>2020-08-08T14:30:52.000Z</time>
      </trkpt>
      <trkpt lat="42.29739689268171787261962890625" lon="2.59863414801657199859619140625">
        <ele>558.4000244140625</ele>
        <time>2020-08-08T14:30:54.000Z</time>
      </trkpt>
      <trkpt lat="42.2973470203578472137451171875" lon="2.59856558404862880706787109375">
        <ele>558</ele>
        <time>2020-08-08T14:30:56.000Z</time>
      </trkpt>
      <trkpt lat="42.297290526330471038818359375" lon="2.5984991155564785003662109375">
        <ele>556.4000244140625</ele>
        <time>2020-08-08T14:30:58.000Z</time>
      </trkpt>
      <trkpt lat="42.2972412407398223876953125" lon="2.598406411707401275634765625">
        <ele>555.20001220703125</ele>
        <time>2020-08-08T14:31:00.000Z</time>
      </trkpt>
      <trkpt lat="42.297234199941158294677734375" lon="2.59827842004597187042236328125">
        <ele>555.4000244140625</ele>
        <time>2020-08-08T14:31:03.000Z</time>
      </trkpt>
      <trkpt lat="42.297247946262359619140625" lon="2.598163001239299774169921875">
        <ele>555.79998779296875</ele>
        <time>2020-08-08T14:31:06.000Z</time>
      </trkpt>
      <trkpt lat="42.29725557379424571990966796875" lon="2.59806937538087368011474609375">
        <ele>555.4000244140625</ele>
        <time>2020-08-08T14:31:08.000Z</time>
      </trkpt>
      <trkpt lat="42.2973000817000865936279296875" lon="2.59782445617020130157470703125">
        <ele>554.4000244140625</ele>
        <time>2020-08-08T14:31:13.000Z</time>
      </trkpt>
      <trkpt lat="42.2973168455064296722412109375" lon="2.59771666489541530609130859375">
        <ele>553.5999755859375</ele>
        <time>2020-08-08T14:31:15.000Z</time>
      </trkpt>
      <trkpt lat="42.29731810279190540313720703125" lon="2.597662769258022308349609375">
        <ele>553.20001220703125</ele>
        <time>2020-08-08T14:31:16.000Z</time>
      </trkpt>
      <trkpt lat="42.2973178513348102569580078125" lon="2.59742866270244121551513671875">
        <ele>551.5999755859375</ele>
        <time>2020-08-08T14:31:20.000Z</time>
      </trkpt>
      <trkpt lat="42.29731642641127109527587890625" lon="2.59736781008541584014892578125">
        <ele>551</ele>
        <time>2020-08-08T14:31:21.000Z</time>
      </trkpt>
      <trkpt lat="42.29729983024299144744873046875" lon="2.597186677157878875732421875">
        <ele>550.4000244140625</ele>
        <time>2020-08-08T14:31:24.000Z</time>
      </trkpt>
      <trkpt lat="42.29726445861160755157470703125" lon="2.59698961861431598663330078125">
        <ele>550</ele>
        <time>2020-08-08T14:31:27.000Z</time>
      </trkpt>
      <trkpt lat="42.29721684940159320831298828125" lon="2.596719972789287567138671875">
        <ele>549.4000244140625</ele>
        <time>2020-08-08T14:31:31.000Z</time>
      </trkpt>
      <trkpt lat="42.297199331223964691162109375" lon="2.59664813987910747528076171875">
        <ele>549.20001220703125</ele>
        <time>2020-08-08T14:31:32.000Z</time>
      </trkpt>
      <trkpt lat="42.29716052301228046417236328125" lon="2.59650112129747867584228515625">
        <ele>547.79998779296875</ele>
        <time>2020-08-08T14:31:34.000Z</time>
      </trkpt>
      <trkpt lat="42.297095395624637603759765625" lon="2.59630951099097728729248046875">
        <ele>547</ele>
        <time>2020-08-08T14:31:37.000Z</time>
      </trkpt>
      <trkpt lat="42.297073937952518463134765625" lon="2.5962494127452373504638671875">
        <ele>546.5999755859375</ele>
        <time>2020-08-08T14:31:38.000Z</time>
      </trkpt>
      <trkpt lat="42.29705273173749446868896484375" lon="2.5961843691766262054443359375">
        <ele>545.5999755859375</ele>
        <time>2020-08-08T14:31:39.000Z</time>
      </trkpt>
      <trkpt lat="42.29703697375953197479248046875" lon="2.596115805208683013916015625">
        <ele>545.20001220703125</ele>
        <time>2020-08-08T14:31:40.000Z</time>
      </trkpt>
      <trkpt lat="42.29700009338557720184326171875" lon="2.5959795154631137847900390625">
        <ele>544.20001220703125</ele>
        <time>2020-08-08T14:31:42.000Z</time>
      </trkpt>
      <trkpt lat="42.296976037323474884033203125" lon="2.59590701200067996978759765625">
        <ele>543.79998779296875</ele>
        <time>2020-08-08T14:31:43.000Z</time>
      </trkpt>
      <trkpt lat="42.29695986025035381317138671875" lon="2.5958353467285633087158203125">
        <ele>543.4000244140625</ele>
        <time>2020-08-08T14:31:44.000Z</time>
      </trkpt>
      <trkpt lat="42.29694644920527935028076171875" lon="2.5957627594470977783203125">
        <ele>542.79998779296875</ele>
        <time>2020-08-08T14:31:45.000Z</time>
      </trkpt>
      <trkpt lat="42.29693538509309291839599609375" lon="2.595619261264801025390625">
        <ele>542</ele>
        <time>2020-08-08T14:31:47.000Z</time>
      </trkpt>
      <trkpt lat="42.29691334068775177001953125" lon="2.59541868232190608978271484375">
        <ele>541.79998779296875</ele>
        <time>2020-08-08T14:31:50.000Z</time>
      </trkpt>
      <trkpt lat="42.296900264918804168701171875" lon="2.5953515432775020599365234375">
        <ele>541.5999755859375</ele>
        <time>2020-08-08T14:31:51.000Z</time>
      </trkpt>
      <trkpt lat="42.29686967097222805023193359375" lon="2.59514258243143558502197265625">
        <ele>540</ele>
        <time>2020-08-08T14:31:54.000Z</time>
      </trkpt>
      <trkpt lat="42.296851985156536102294921875" lon="2.595013417303562164306640625">
        <ele>539</ele>
        <time>2020-08-08T14:31:56.000Z</time>
      </trkpt>
      <trkpt lat="42.2968457825481891632080078125" lon="2.59494896046817302703857421875">
        <ele>538.5999755859375</ele>
        <time>2020-08-08T14:31:57.000Z</time>
      </trkpt>
      <trkpt lat="42.29683212004601955413818359375" lon="2.5948077253997325897216796875">
        <ele>537.79998779296875</ele>
        <time>2020-08-08T14:31:59.000Z</time>
      </trkpt>
      <trkpt lat="42.296819128096103668212890625" lon="2.59465676732361316680908203125">
        <ele>537</ele>
        <time>2020-08-08T14:32:01.000Z</time>
      </trkpt>
      <trkpt lat="42.29681435041129589080810546875" lon="2.5945758819580078125">
        <ele>536.5999755859375</ele>
        <time>2020-08-08T14:32:02.000Z</time>
      </trkpt>
      <trkpt lat="42.2967978380620479583740234375" lon="2.59441561996936798095703125">
        <ele>535.4000244140625</ele>
        <time>2020-08-08T14:32:04.000Z</time>
      </trkpt>
      <trkpt lat="42.29678266681730747222900390625" lon="2.59426097385585308074951171875">
        <ele>533.79998779296875</ele>
        <time>2020-08-08T14:32:06.000Z</time>
      </trkpt>
      <trkpt lat="42.29677964933216571807861328125" lon="2.5941864587366580963134765625">
        <ele>533</ele>
        <time>2020-08-08T14:32:07.000Z</time>
      </trkpt>
      <trkpt lat="42.2967743687331676483154296875" lon="2.59411646984517574310302734375">
        <ele>532.5999755859375</ele>
        <time>2020-08-08T14:32:08.000Z</time>
      </trkpt>
      <trkpt lat="42.2967683337628841400146484375" lon="2.59397833608090877532958984375">
        <ele>531.4000244140625</ele>
        <time>2020-08-08T14:32:10.000Z</time>
      </trkpt>
      <trkpt lat="42.29676070623099803924560546875" lon="2.59375537745654582977294921875">
        <ele>529.79998779296875</ele>
        <time>2020-08-08T14:32:13.000Z</time>
      </trkpt>
      <trkpt lat="42.2967525757849216461181640625" lon="2.5936738215386867523193359375">
        <ele>528.79998779296875</ele>
        <time>2020-08-08T14:32:14.000Z</time>
      </trkpt>
      <trkpt lat="42.2967388294637203216552734375" lon="2.59359260089695453643798828125">
        <ele>527.79998779296875</ele>
        <time>2020-08-08T14:32:15.000Z</time>
      </trkpt>
      <trkpt lat="42.2967193834483623504638671875" lon="2.59351037442684173583984375">
        <ele>527</ele>
        <time>2020-08-08T14:32:16.000Z</time>
      </trkpt>
      <trkpt lat="42.29670102708041667938232421875" lon="2.59343317709863185882568359375">
        <ele>525.4000244140625</ele>
        <time>2020-08-08T14:32:17.000Z</time>
      </trkpt>
      <trkpt lat="42.2966778092086315155029296875" lon="2.59336394257843494415283203125">
        <ele>524.20001220703125</ele>
        <time>2020-08-08T14:32:18.000Z</time>
      </trkpt>
      <trkpt lat="42.2966322116553783416748046875" lon="2.59324056096374988555908203125">
        <ele>522.5999755859375</ele>
        <time>2020-08-08T14:32:20.000Z</time>
      </trkpt>
      <trkpt lat="42.2966154478490352630615234375" lon="2.593193538486957550048828125">
        <ele>521.79998779296875</ele>
        <time>2020-08-08T14:32:21.000Z</time>
      </trkpt>
      <trkpt lat="42.2965946607291698455810546875" lon="2.5931474380195140838623046875">
        <ele>521.20001220703125</ele>
        <time>2020-08-08T14:32:22.000Z</time>
      </trkpt>
      <trkpt lat="42.29649935849010944366455078125" lon="2.59305448271334171295166015625">
        <ele>520</ele>
        <time>2020-08-08T14:32:25.000Z</time>
      </trkpt>
      <trkpt lat="42.2964065708220005035400390625" lon="2.59303704835474491119384765625">
        <ele>518.79998779296875</ele>
        <time>2020-08-08T14:32:27.000Z</time>
      </trkpt>
      <trkpt lat="42.29631227441132068634033203125" lon="2.5930528901517391204833984375">
        <ele>517.20001220703125</ele>
        <time>2020-08-08T14:32:29.000Z</time>
      </trkpt>
      <trkpt lat="42.29619727469980716705322265625" lon="2.59312388487160205841064453125">
        <ele>515.79998779296875</ele>
        <time>2020-08-08T14:32:32.000Z</time>
      </trkpt>
      <trkpt lat="42.2961360029876232147216796875" lon="2.59319798089563846588134765625">
        <ele>514.4000244140625</ele>
        <time>2020-08-08T14:32:34.000Z</time>
      </trkpt>
      <trkpt lat="42.29610599577426910400390625" lon="2.59324072860181331634521484375">
        <ele>513.79998779296875</ele>
        <time>2020-08-08T14:32:35.000Z</time>
      </trkpt>
      <trkpt lat="42.2960771620273590087890625" lon="2.59328682906925678253173828125">
        <ele>512.79998779296875</ele>
        <time>2020-08-08T14:32:36.000Z</time>
      </trkpt>
      <trkpt lat="42.29602242819964885711669921875" lon="2.593388669192790985107421875">
        <ele>511</ele>
        <time>2020-08-08T14:32:38.000Z</time>
      </trkpt>
      <trkpt lat="42.29599493555724620819091796875" lon="2.59343971498310565948486328125">
        <ele>510.20001220703125</ele>
        <time>2020-08-08T14:32:39.000Z</time>
      </trkpt>
      <trkpt lat="42.29596341960132122039794921875" lon="2.5934924371540546417236328125">
        <ele>509</ele>
        <time>2020-08-08T14:32:40.000Z</time>
      </trkpt>
      <trkpt lat="42.29590022005140781402587890625" lon="2.59360492229461669921875">
        <ele>507.20001220703125</ele>
        <time>2020-08-08T14:32:42.000Z</time>
      </trkpt>
      <trkpt lat="42.29583467356860637664794921875" lon="2.5937135517597198486328125">
        <ele>505.399993896484375</ele>
        <time>2020-08-08T14:32:44.000Z</time>
      </trkpt>
      <trkpt lat="42.2957728989422321319580078125" lon="2.59381002746522426605224609375">
        <ele>503.399993896484375</ele>
        <time>2020-08-08T14:32:46.000Z</time>
      </trkpt>
      <trkpt lat="42.29574657976627349853515625" lon="2.5938575528562068939208984375">
        <ele>502.600006103515625</ele>
        <time>2020-08-08T14:32:47.000Z</time>
      </trkpt>
      <trkpt lat="42.295722104609012603759765625" lon="2.59390859864652156829833984375">
        <ele>502</ele>
        <time>2020-08-08T14:32:48.000Z</time>
      </trkpt>
      <trkpt lat="42.2956760041415691375732421875" lon="2.5940174795687198638916015625">
        <ele>500.20001220703125</ele>
        <time>2020-08-08T14:32:50.000Z</time>
      </trkpt>
      <trkpt lat="42.29562378488481044769287109375" lon="2.59411361999809741973876953125">
        <ele>498.600006103515625</ele>
        <time>2020-08-08T14:32:52.000Z</time>
      </trkpt>
      <trkpt lat="42.29559092782437801361083984375" lon="2.5941468961536884307861328125">
        <ele>498</ele>
        <time>2020-08-08T14:32:53.000Z</time>
      </trkpt>
      <trkpt lat="42.2955502755939960479736328125" lon="2.59417749010026454925537109375">
        <ele>497.600006103515625</ele>
        <time>2020-08-08T14:32:54.000Z</time>
      </trkpt>
      <trkpt lat="42.29551456868648529052734375" lon="2.59421168826520442962646484375">
        <ele>497</ele>
        <time>2020-08-08T14:32:55.000Z</time>
      </trkpt>
      <trkpt lat="42.2954832203686237335205078125" lon="2.5942508317530155181884765625">
        <ele>496.20001220703125</ele>
        <time>2020-08-08T14:32:56.000Z</time>
      </trkpt>
      <trkpt lat="42.29542479850351810455322265625" lon="2.5943369977176189422607421875">
        <ele>494.79998779296875</ele>
        <time>2020-08-08T14:32:58.000Z</time>
      </trkpt>
      <trkpt lat="42.2953484393656253814697265625" lon="2.5943906418979167938232421875">
        <ele>493.600006103515625</ele>
        <time>2020-08-08T14:33:00.000Z</time>
      </trkpt>
      <trkpt lat="42.29530535638332366943359375" lon="2.59439776651561260223388671875">
        <ele>493</ele>
        <time>2020-08-08T14:33:01.000Z</time>
      </trkpt>
      <trkpt lat="42.2952652908861637115478515625" lon="2.59439877234399318695068359375">
        <ele>492.399993896484375</ele>
        <time>2020-08-08T14:33:02.000Z</time>
      </trkpt>
      <trkpt lat="42.29518742300570011138916015625" lon="2.5944204814732074737548828125">
        <ele>491.20001220703125</ele>
        <time>2020-08-08T14:33:04.000Z</time>
      </trkpt>
      <trkpt lat="42.295146770775318145751953125" lon="2.59444286115467548370361328125">
        <ele>490.79998779296875</ele>
        <time>2020-08-08T14:33:05.000Z</time>
      </trkpt>
      <trkpt lat="42.29506705887615680694580078125" lon="2.59449248202145099639892578125">
        <ele>490</ele>
        <time>2020-08-08T14:33:07.000Z</time>
      </trkpt>
      <trkpt lat="42.2950284183025360107421875" lon="2.5944952480494976043701171875">
        <ele>489.399993896484375</ele>
        <time>2020-08-08T14:33:08.000Z</time>
      </trkpt>
      <trkpt lat="42.2949910350143909454345703125" lon="2.594477646052837371826171875">
        <ele>489</ele>
        <time>2020-08-08T14:33:09.000Z</time>
      </trkpt>
      <trkpt lat="42.2949628718197345733642578125" lon="2.59445107541978359222412109375">
        <ele>488.600006103515625</ele>
        <time>2020-08-08T14:33:10.000Z</time>
      </trkpt>
      <trkpt lat="42.2949246503412723541259765625" lon="2.5943802483379840850830078125">
        <ele>487.399993896484375</ele>
        <time>2020-08-08T14:33:12.000Z</time>
      </trkpt>
      <trkpt lat="42.29490327648818492889404296875" lon="2.59434529580175876617431640625">
        <ele>487</ele>
        <time>2020-08-08T14:33:13.000Z</time>
      </trkpt>
      <trkpt lat="42.294879890978336334228515625" lon="2.59430967271327972412109375">
        <ele>486.399993896484375</ele>
        <time>2020-08-08T14:33:14.000Z</time>
      </trkpt>
      <trkpt lat="42.29482850991189479827880859375" lon="2.59424102492630481719970703125">
        <ele>485.399993896484375</ele>
        <time>2020-08-08T14:33:16.000Z</time>
      </trkpt>
      <trkpt lat="42.29476648382842540740966796875" lon="2.594161145389080047607421875">
        <ele>484.600006103515625</ele>
        <time>2020-08-08T14:33:18.000Z</time>
      </trkpt>
      <trkpt lat="42.29474536143243312835693359375" lon="2.59411965496838092803955078125">
        <ele>484.399993896484375</ele>
        <time>2020-08-08T14:33:19.000Z</time>
      </trkpt>
      <trkpt lat="42.29472021572291851043701171875" lon="2.59406869299709796905517578125">
        <ele>483.399993896484375</ele>
        <time>2020-08-08T14:33:20.000Z</time>
      </trkpt>
      <trkpt lat="42.29470076970756053924560546875" lon="2.5940127857029438018798828125">
        <ele>482.600006103515625</ele>
        <time>2020-08-08T14:33:21.000Z</time>
      </trkpt>
      <trkpt lat="42.29468434117734432220458984375" lon="2.5939480774104595184326171875">
        <ele>481.399993896484375</ele>
        <time>2020-08-08T14:33:22.000Z</time>
      </trkpt>
      <trkpt lat="42.294630110263824462890625" lon="2.59381480515003204345703125">
        <ele>479.79998779296875</ele>
        <time>2020-08-08T14:33:24.000Z</time>
      </trkpt>
      <trkpt lat="42.2945967502892017364501953125" lon="2.59374297223985195159912109375">
        <ele>479.20001220703125</ele>
        <time>2020-08-08T14:33:25.000Z</time>
      </trkpt>
      <trkpt lat="42.29456280358135700225830078125" lon="2.593668289482593536376953125">
        <ele>478.600006103515625</ele>
        <time>2020-08-08T14:33:26.000Z</time>
      </trkpt>
      <trkpt lat="42.29453019797801971435546875" lon="2.5935920141637325286865234375">
        <ele>477.600006103515625</ele>
        <time>2020-08-08T14:33:27.000Z</time>
      </trkpt>
      <trkpt lat="42.29447118937969207763671875" lon="2.5934589095413684844970703125">
        <ele>476</ele>
        <time>2020-08-08T14:33:29.000Z</time>
      </trkpt>
      <trkpt lat="42.2944410145282745361328125" lon="2.59339763782918453216552734375">
        <ele>474.79998779296875</ele>
        <time>2020-08-08T14:33:30.000Z</time>
      </trkpt>
      <trkpt lat="42.294413186609745025634765625" lon="2.5933345220983028411865234375">
        <ele>474.600006103515625</ele>
        <time>2020-08-08T14:33:31.000Z</time>
      </trkpt>
      <trkpt lat="42.29435023851692676544189453125" lon="2.5931960530579090118408203125">
        <ele>473.399993896484375</ele>
        <time>2020-08-08T14:33:33.000Z</time>
      </trkpt>
      <trkpt lat="42.2943188063800334930419921875" lon="2.59312271140515804290771484375">
        <ele>473</ele>
        <time>2020-08-08T14:33:34.000Z</time>
      </trkpt>
      <trkpt lat="42.294283770024776458740234375" lon="2.59305297397077083587646484375">
        <ele>472.399993896484375</ele>
        <time>2020-08-08T14:33:35.000Z</time>
      </trkpt>
      <trkpt lat="42.29420741088688373565673828125" lon="2.5929464399814605712890625">
        <ele>470.79998779296875</ele>
        <time>2020-08-08T14:33:37.000Z</time>
      </trkpt>
      <trkpt lat="42.29416851885616779327392578125" lon="2.59291500784456729888916015625">
        <ele>469.600006103515625</ele>
        <time>2020-08-08T14:33:38.000Z</time>
      </trkpt>
      <trkpt lat="42.29408034123480319976806640625" lon="2.59291064925491809844970703125">
        <ele>468.399993896484375</ele>
        <time>2020-08-08T14:33:40.000Z</time>
      </trkpt>
      <trkpt lat="42.294029295444488525390625" lon="2.59293545968830585479736328125">
        <ele>468</ele>
        <time>2020-08-08T14:33:41.000Z</time>
      </trkpt>
      <trkpt lat="42.293974645435810089111328125" lon="2.59296856820583343505859375">
        <ele>467.399993896484375</ele>
        <time>2020-08-08T14:33:42.000Z</time>
      </trkpt>
      <trkpt lat="42.29392309673130512237548828125" lon="2.59300419129431247711181640625">
        <ele>466.600006103515625</ele>
        <time>2020-08-08T14:33:43.000Z</time>
      </trkpt>
      <trkpt lat="42.29387230239808559417724609375" lon="2.59304073639214038848876953125">
        <ele>465.79998779296875</ele>
        <time>2020-08-08T14:33:44.000Z</time>
      </trkpt>
      <trkpt lat="42.293820418417453765869140625" lon="2.593068145215511322021484375">
        <ele>465</ele>
        <time>2020-08-08T14:33:45.000Z</time>
      </trkpt>
      <trkpt lat="42.2937689535319805145263671875" lon="2.59309454821050167083740234375">
        <ele>464</ele>
        <time>2020-08-08T14:33:46.000Z</time>
      </trkpt>
      <trkpt lat="42.29366862215101718902587890625" lon="2.5931129045784473419189453125">
        <ele>462.600006103515625</ele>
        <time>2020-08-08T14:33:48.000Z</time>
      </trkpt>
      <trkpt lat="42.293621599674224853515625" lon="2.5930951349437236785888671875">
        <ele>461.79998779296875</ele>
        <time>2020-08-08T14:33:49.000Z</time>
      </trkpt>
      <trkpt lat="42.29358212091028690338134765625" lon="2.59306537918746471405029296875">
        <ele>461</ele>
        <time>2020-08-08T14:33:50.000Z</time>
      </trkpt>
      <trkpt lat="42.2935493476688861846923828125" lon="2.5930210389196872711181640625">
        <ele>460.600006103515625</ele>
        <time>2020-08-08T14:33:51.000Z</time>
      </trkpt>
      <trkpt lat="42.293525375425815582275390625" lon="2.59296161122620105743408203125">
        <ele>460.20001220703125</ele>
        <time>2020-08-08T14:33:52.000Z</time>
      </trkpt>
      <trkpt lat="42.29349612258374691009521484375" lon="2.5928306020796298980712890625">
        <ele>459</ele>
        <time>2020-08-08T14:33:54.000Z</time>
      </trkpt>
      <trkpt lat="42.29346544481813907623291015625" lon="2.5927166081964969635009765625">
        <ele>457.600006103515625</ele>
        <time>2020-08-08T14:33:56.000Z</time>
      </trkpt>
      <trkpt lat="42.29342973791062831878662109375" lon="2.5926458649337291717529296875">
        <ele>456.399993896484375</ele>
        <time>2020-08-08T14:33:58.000Z</time>
      </trkpt>
      <trkpt lat="42.2933796979486942291259765625" lon="2.592608146369457244873046875">
        <ele>455.79998779296875</ele>
        <time>2020-08-08T14:34:00.000Z</time>
      </trkpt>
      <trkpt lat="42.29334508068859577178955078125" lon="2.592586018145084381103515625">
        <ele>455.399993896484375</ele>
        <time>2020-08-08T14:34:01.000Z</time>
      </trkpt>
      <trkpt lat="42.29326830245554447174072265625" lon="2.59252994321286678314208984375">
        <ele>454.20001220703125</ele>
        <time>2020-08-08T14:34:03.000Z</time>
      </trkpt>
      <trkpt lat="42.29323477484285831451416015625" lon="2.5924913026392459869384765625">
        <ele>453.79998779296875</ele>
        <time>2020-08-08T14:34:04.000Z</time>
      </trkpt>
      <trkpt lat="42.2931964695453643798828125" lon="2.59238476864993572235107421875">
        <ele>452.79998779296875</ele>
        <time>2020-08-08T14:34:06.000Z</time>
      </trkpt>
      <trkpt lat="42.29318683035671710968017578125" lon="2.59232140146195888519287109375">
        <ele>452.20001220703125</ele>
        <time>2020-08-08T14:34:07.000Z</time>
      </trkpt>
      <trkpt lat="42.29318046011030673980712890625" lon="2.59225451387465000152587890625">
        <ele>451.399993896484375</ele>
        <time>2020-08-08T14:34:08.000Z</time>
      </trkpt>
      <trkpt lat="42.29316495358943939208984375" lon="2.59211151860654354095458984375">
        <ele>450.20001220703125</ele>
        <time>2020-08-08T14:34:10.000Z</time>
      </trkpt>
      <trkpt lat="42.293138802051544189453125" lon="2.591976821422576904296875">
        <ele>449.20001220703125</ele>
        <time>2020-08-08T14:34:12.000Z</time>
      </trkpt>
      <trkpt lat="42.29310988448560237884521484375" lon="2.59185570292174816131591796875">
        <ele>448.20001220703125</ele>
        <time>2020-08-08T14:34:14.000Z</time>
      </trkpt>
      <trkpt lat="42.293101586401462554931640625" lon="2.59179719723761081695556640625">
        <ele>446.79998779296875</ele>
        <time>2020-08-08T14:34:15.000Z</time>
      </trkpt>
      <trkpt lat="42.293091528117656707763671875" lon="2.591679096221923828125">
        <ele>445.399993896484375</ele>
        <time>2020-08-08T14:34:17.000Z</time>
      </trkpt>
      <trkpt lat="42.29306126944720745086669921875" lon="2.5915555469691753387451171875">
        <ele>444.399993896484375</ele>
        <time>2020-08-08T14:34:19.000Z</time>
      </trkpt>
      <trkpt lat="42.2929979860782623291015625" lon="2.59144105017185211181640625">
        <ele>443.399993896484375</ele>
        <time>2020-08-08T14:34:21.000Z</time>
      </trkpt>
      <trkpt lat="42.29293419979512691497802734375" lon="2.59135496802628040313720703125">
        <ele>441.79998779296875</ele>
        <time>2020-08-08T14:34:23.000Z</time>
      </trkpt>
      <trkpt lat="42.292875610291957855224609375" lon="2.5913049280643463134765625">
        <ele>440.600006103515625</ele>
        <time>2020-08-08T14:34:25.000Z</time>
      </trkpt>
      <trkpt lat="42.29284551925957202911376953125" lon="2.5912668742239475250244140625">
        <ele>439.79998779296875</ele>
        <time>2020-08-08T14:34:28.000Z</time>
      </trkpt>
      <trkpt lat="42.29283847846090793609619140625" lon="2.59125337935984134674072265625">
        <ele>439.600006103515625</ele>
        <time>2020-08-08T14:34:29.000Z</time>
      </trkpt>
      <trkpt lat="42.29283235967159271240234375" lon="2.5912410579621791839599609375">
        <ele>438.79998779296875</ele>
        <time>2020-08-08T14:34:34.000Z</time>
      </trkpt>
      <trkpt lat="42.29283160530030727386474609375" lon="2.59124248288571834564208984375">
        <ele>439</ele>
        <time>2020-08-08T14:34:44.000Z</time>
      </trkpt>
      <trkpt lat="42.2928331978619098663330078125" lon="2.59124164469540119171142578125">
        <ele>439</ele>
        <time>2020-08-08T14:34:47.000Z</time>
      </trkpt>
      <trkpt lat="42.29278969578444957733154296875" lon="2.59117995388805866241455078125">
        <ele>438.79998779296875</ele>
        <time>2020-08-08T14:34:53.000Z</time>
      </trkpt>
      <trkpt lat="42.29271325282752513885498046875" lon="2.5910231284797191619873046875">
        <ele>438.20001220703125</ele>
        <time>2020-08-08T14:34:56.000Z</time>
      </trkpt>
      <trkpt lat="42.2926922142505645751953125" lon="2.5909681431949138641357421875">
        <ele>437.600006103515625</ele>
        <time>2020-08-08T14:34:57.000Z</time>
      </trkpt>
      <trkpt lat="42.292665727436542510986328125" lon="2.590920031070709228515625">
        <ele>437.399993896484375</ele>
        <time>2020-08-08T14:34:58.000Z</time>
      </trkpt>
      <trkpt lat="42.2926025278866291046142578125" lon="2.590834535658359527587890625">
        <ele>436.600006103515625</ele>
        <time>2020-08-08T14:35:00.000Z</time>
      </trkpt>
      <trkpt lat="42.292566485702991485595703125" lon="2.5908060371875762939453125">
        <ele>435.79998779296875</ele>
        <time>2020-08-08T14:35:01.000Z</time>
      </trkpt>
      <trkpt lat="42.292521893978118896484375" lon="2.59078600443899631500244140625">
        <ele>435</ele>
        <time>2020-08-08T14:35:02.000Z</time>
      </trkpt>
      <trkpt lat="42.29240681044757366180419921875" lon="2.590765468776226043701171875">
        <ele>433.399993896484375</ele>
        <time>2020-08-08T14:35:04.000Z</time>
      </trkpt>
      <trkpt lat="42.2923473827540874481201171875" lon="2.5907549075782299041748046875">
        <ele>432.79998779296875</ele>
        <time>2020-08-08T14:35:05.000Z</time>
      </trkpt>
      <trkpt lat="42.29228812269866466522216796875" lon="2.590738646686077117919921875">
        <ele>431.79998779296875</ele>
        <time>2020-08-08T14:35:06.000Z</time>
      </trkpt>
      <trkpt lat="42.29223162867128849029541015625" lon="2.590715177357196807861328125">
        <ele>430.79998779296875</ele>
        <time>2020-08-08T14:35:07.000Z</time>
      </trkpt>
      <trkpt lat="42.29217614047229290008544921875" lon="2.59068139828741550445556640625">
        <ele>429.79998779296875</ele>
        <time>2020-08-08T14:35:08.000Z</time>
      </trkpt>
      <trkpt lat="42.2921193949878215789794921875" lon="2.59064384736120700836181640625">
        <ele>428.79998779296875</ele>
        <time>2020-08-08T14:35:09.000Z</time>
      </trkpt>
      <trkpt lat="42.29206197895109653472900390625" lon="2.59061333723366260528564453125">
        <ele>428.20001220703125</ele>
        <time>2020-08-08T14:35:10.000Z</time>
      </trkpt>
      <trkpt lat="42.2919587977230548858642578125" lon="2.59056187234818935394287109375">
        <ele>426.79998779296875</ele>
        <time>2020-08-08T14:35:12.000Z</time>
      </trkpt>
      <trkpt lat="42.29190624319016933441162109375" lon="2.59053085930645465850830078125">
        <ele>426.20001220703125</ele>
        <time>2020-08-08T14:35:13.000Z</time>
      </trkpt>
      <trkpt lat="42.29185494594275951385498046875" lon="2.59049230255186557769775390625">
        <ele>425.399993896484375</ele>
        <time>2020-08-08T14:35:14.000Z</time>
      </trkpt>
      <trkpt lat="42.2917626611888408660888671875" lon="2.590410411357879638671875">
        <ele>423.600006103515625</ele>
        <time>2020-08-08T14:35:16.000Z</time>
      </trkpt>
      <trkpt lat="42.29172200895845890045166015625" lon="2.59036623872816562652587890625">
        <ele>423.20001220703125</ele>
        <time>2020-08-08T14:35:17.000Z</time>
      </trkpt>
      <trkpt lat="42.2916439734399318695068359375" lon="2.590271942317485809326171875">
        <ele>422.600006103515625</ele>
        <time>2020-08-08T14:35:19.000Z</time>
      </trkpt>
      <trkpt lat="42.291552610695362091064453125" lon="2.5901247560977935791015625">
        <ele>421</ele>
        <time>2020-08-08T14:35:22.000Z</time>
      </trkpt>
      <trkpt lat="42.29149200953543186187744140625" lon="2.5900219939649105072021484375">
        <ele>419.600006103515625</ele>
        <time>2020-08-08T14:35:24.000Z</time>
      </trkpt>
      <trkpt lat="42.2914317436516284942626953125" lon="2.58992250077426433563232421875">
        <ele>418</ele>
        <time>2020-08-08T14:35:26.000Z</time>
      </trkpt>
      <trkpt lat="42.29138941504061222076416015625" lon="2.5898828543722629547119140625">
        <ele>417</ele>
        <time>2020-08-08T14:35:27.000Z</time>
      </trkpt>
      <trkpt lat="42.2913484275341033935546875" lon="2.589857876300811767578125">
        <ele>415.79998779296875</ele>
        <time>2020-08-08T14:35:28.000Z</time>
      </trkpt>
      <trkpt lat="42.2912694700062274932861328125" lon="2.5898404419422149658203125">
        <ele>414</ele>
        <time>2020-08-08T14:35:30.000Z</time>
      </trkpt>
      <trkpt lat="42.2912299074232578277587890625" lon="2.58985318243503570556640625">
        <ele>413.399993896484375</ele>
        <time>2020-08-08T14:35:31.000Z</time>
      </trkpt>
      <trkpt lat="42.2911445796489715576171875" lon="2.58991428650915622711181640625">
        <ele>412.600006103515625</ele>
        <time>2020-08-08T14:35:33.000Z</time>
      </trkpt>
      <trkpt lat="42.2911014966666698455810546875" lon="2.58995468728244304656982421875">
        <ele>411.399993896484375</ele>
        <time>2020-08-08T14:35:34.000Z</time>
      </trkpt>
      <trkpt lat="42.2910612635314464569091796875" lon="2.58999693207442760467529296875">
        <ele>410.600006103515625</ele>
        <time>2020-08-08T14:35:35.000Z</time>
      </trkpt>
      <trkpt lat="42.29102195240557193756103515625" lon="2.59004001505672931671142578125">
        <ele>409.79998779296875</ele>
        <time>2020-08-08T14:35:36.000Z</time>
      </trkpt>
      <trkpt lat="42.29093897156417369842529296875" lon="2.59011360816657543182373046875">
        <ele>408.20001220703125</ele>
        <time>2020-08-08T14:35:38.000Z</time>
      </trkpt>
      <trkpt lat="42.2908936254680156707763671875" lon="2.590135149657726287841796875">
        <ele>407.399993896484375</ele>
        <time>2020-08-08T14:35:39.000Z</time>
      </trkpt>
      <trkpt lat="42.29084341786801815032958984375" lon="2.590148560702800750732421875">
        <ele>406.600006103515625</ele>
        <time>2020-08-08T14:35:40.000Z</time>
      </trkpt>
      <trkpt lat="42.29079346172511577606201171875" lon="2.590156607329845428466796875">
        <ele>406.20001220703125</ele>
        <time>2020-08-08T14:35:41.000Z</time>
      </trkpt>
      <trkpt lat="42.290689609944820404052734375" lon="2.59016574360430240631103515625">
        <ele>404.399993896484375</ele>
        <time>2020-08-08T14:35:43.000Z</time>
      </trkpt>
      <trkpt lat="42.2906331159174442291259765625" lon="2.59016775526106357574462890625">
        <ele>403.20001220703125</ele>
        <time>2020-08-08T14:35:44.000Z</time>
      </trkpt>
      <trkpt lat="42.2905727662146091461181640625" lon="2.5901624746620655059814453125">
        <ele>402.600006103515625</ele>
        <time>2020-08-08T14:35:45.000Z</time>
      </trkpt>
      <trkpt lat="42.29051250033080577850341796875" lon="2.5901504047214984893798828125">
        <ele>402</ele>
        <time>2020-08-08T14:35:46.000Z</time>
      </trkpt>
      <trkpt lat="42.29039062745869159698486328125" lon="2.59011746384203433990478515625">
        <ele>400.399993896484375</ele>
        <time>2020-08-08T14:35:48.000Z</time>
      </trkpt>
      <trkpt lat="42.290277890861034393310546875" lon="2.59005510248243808746337890625">
        <ele>398.79998779296875</ele>
        <time>2020-08-08T14:35:50.000Z</time>
      </trkpt>
      <trkpt lat="42.29017563164234161376953125" lon="2.589987628161907196044921875">
        <ele>397.600006103515625</ele>
        <time>2020-08-08T14:35:53.000Z</time>
      </trkpt>
      <trkpt lat="42.2901218198239803314208984375" lon="2.5900089181959629058837890625">
        <ele>396.20001220703125</ele>
        <time>2020-08-08T14:35:55.000Z</time>
      </trkpt>
      <trkpt lat="42.29007882066071033477783203125" lon="2.59007303975522518157958984375">
        <ele>394.600006103515625</ele>
        <time>2020-08-08T14:35:57.000Z</time>
      </trkpt>
      <trkpt lat="42.29005870409309864044189453125" lon="2.59017462842166423797607421875">
        <ele>393.79998779296875</ele>
        <time>2020-08-08T14:35:59.000Z</time>
      </trkpt>
      <trkpt lat="42.29005090892314910888671875" lon="2.590223662555217742919921875">
        <ele>393.79998779296875</ele>
        <time>2020-08-08T14:36:00.000Z</time>
      </trkpt>
      <trkpt lat="42.29003154672682285308837890625" lon="2.5903146900236606597900390625">
        <ele>393</ele>
        <time>2020-08-08T14:36:02.000Z</time>
      </trkpt>
      <trkpt lat="42.2899913974106311798095703125" lon="2.5903750397264957427978515625">
        <ele>392.600006103515625</ele>
        <time>2020-08-08T14:36:04.000Z</time>
      </trkpt>
      <trkpt lat="42.28995569050312042236328125" lon="2.59038853459060192108154296875">
        <ele>392.20001220703125</ele>
        <time>2020-08-08T14:36:05.000Z</time>
      </trkpt>
      <trkpt lat="42.28991185314953327178955078125" lon="2.59039406664669513702392578125">
        <ele>391.79998779296875</ele>
        <time>2020-08-08T14:36:06.000Z</time>
      </trkpt>
      <trkpt lat="42.28980758227407932281494140625" lon="2.59040378965437412261962890625">
        <ele>390.20001220703125</ele>
        <time>2020-08-08T14:36:08.000Z</time>
      </trkpt>
      <trkpt lat="42.28976349346339702606201171875" lon="2.59040043689310550689697265625">
        <ele>389.399993896484375</ele>
        <time>2020-08-08T14:36:09.000Z</time>
      </trkpt>
      <trkpt lat="42.28972770273685455322265625" lon="2.59038652293384075164794921875">
        <ele>388.20001220703125</ele>
        <time>2020-08-08T14:36:10.000Z</time>
      </trkpt>
      <trkpt lat="42.2896712087094783782958984375" lon="2.5903230719268321990966796875">
        <ele>387.600006103515625</ele>
        <time>2020-08-08T14:36:12.000Z</time>
      </trkpt>
      <trkpt lat="42.28964388370513916015625" lon="2.59028275497257709503173828125">
        <ele>387.600006103515625</ele>
        <time>2020-08-08T14:36:13.000Z</time>
      </trkpt>
      <trkpt lat="42.2896175645291805267333984375" lon="2.59024553932249546051025390625">
        <ele>387</ele>
        <time>2020-08-08T14:36:14.000Z</time>
      </trkpt>
      <trkpt lat="42.289591915905475616455078125" lon="2.590196169912815093994140625">
        <ele>386</ele>
        <time>2020-08-08T14:36:15.000Z</time>
      </trkpt>
      <trkpt lat="42.28955143131315708160400390625" lon="2.5900840200483798980712890625">
        <ele>384.600006103515625</ele>
        <time>2020-08-08T14:36:17.000Z</time>
      </trkpt>
      <trkpt lat="42.28954070247709751129150390625" lon="2.59003079496324062347412109375">
        <ele>383.399993896484375</ele>
        <time>2020-08-08T14:36:18.000Z</time>
      </trkpt>
      <trkpt lat="42.2895327396690845489501953125" lon="2.589983604848384857177734375">
        <ele>383</ele>
        <time>2020-08-08T14:36:19.000Z</time>
      </trkpt>
      <trkpt lat="42.2894978709518909454345703125" lon="2.58989232592284679412841796875">
        <ele>382</ele>
        <time>2020-08-08T14:36:21.000Z</time>
      </trkpt>
      <trkpt lat="42.289432324469089508056640625" lon="2.58983884938061237335205078125">
        <ele>380.600006103515625</ele>
        <time>2020-08-08T14:36:23.000Z</time>
      </trkpt>
      <trkpt lat="42.2893905825912952423095703125" lon="2.58983700536191463470458984375">
        <ele>380</ele>
        <time>2020-08-08T14:36:24.000Z</time>
      </trkpt>
      <trkpt lat="42.289343811571598052978515625" lon="2.58984672836959362030029296875">
        <ele>379.20001220703125</ele>
        <time>2020-08-08T14:36:25.000Z</time>
      </trkpt>
      <trkpt lat="42.2892501018941402435302734375" lon="2.58989701978862285614013671875">
        <ele>378.20001220703125</ele>
        <time>2020-08-08T14:36:27.000Z</time>
      </trkpt>
      <trkpt lat="42.289199642837047576904296875" lon="2.58993255905807018280029296875">
        <ele>377.600006103515625</ele>
        <time>2020-08-08T14:36:28.000Z</time>
      </trkpt>
      <trkpt lat="42.28914474137127399444580078125" lon="2.58996072225272655487060546875">
        <ele>376.79998779296875</ele>
        <time>2020-08-08T14:36:29.000Z</time>
      </trkpt>
      <trkpt lat="42.28904382325708866119384765625" lon="2.58999961428344249725341796875">
        <ele>375.399993896484375</ele>
        <time>2020-08-08T14:36:31.000Z</time>
      </trkpt>
      <trkpt lat="42.28899319656193256378173828125" lon="2.590013444423675537109375">
        <ele>375</ele>
        <time>2020-08-08T14:36:32.000Z</time>
      </trkpt>
      <trkpt lat="42.28888071142137050628662109375" lon="2.5900417752563953399658203125">
        <ele>373.600006103515625</ele>
        <time>2020-08-08T14:36:34.000Z</time>
      </trkpt>
      <trkpt lat="42.28876135312020778656005859375" lon="2.59008360095322132110595703125">
        <ele>373</ele>
        <time>2020-08-08T14:36:36.000Z</time>
      </trkpt>
      <trkpt lat="42.2886975668370723724365234375" lon="2.59012014605104923248291015625">
        <ele>372.79998779296875</ele>
        <time>2020-08-08T14:36:37.000Z</time>
      </trkpt>
      <trkpt lat="42.28857829235494136810302734375" lon="2.5901943258941173553466796875">
        <ele>371.600006103515625</ele>
        <time>2020-08-08T14:36:39.000Z</time>
      </trkpt>
      <trkpt lat="42.288462035357952117919921875" lon="2.59025978855788707733154296875">
        <ele>370</ele>
        <time>2020-08-08T14:36:41.000Z</time>
      </trkpt>
      <trkpt lat="42.288407050073146820068359375" lon="2.59029063396155834197998046875">
        <ele>368.79998779296875</ele>
        <time>2020-08-08T14:36:42.000Z</time>
      </trkpt>
      <trkpt lat="42.28829632513225078582763671875" lon="2.59033639915287494659423828125">
        <ele>367</ele>
        <time>2020-08-08T14:36:44.000Z</time>
      </trkpt>
      <trkpt lat="42.28823798708617687225341796875" lon="2.590351067483425140380859375">
        <ele>366.600006103515625</ele>
        <time>2020-08-08T14:36:45.000Z</time>
      </trkpt>
      <trkpt lat="42.28818409144878387451171875" lon="2.5903565995395183563232421875">
        <ele>365.600006103515625</ele>
        <time>2020-08-08T14:36:46.000Z</time>
      </trkpt>
      <trkpt lat="42.28808619081974029541015625" lon="2.59036690928041934967041015625">
        <ele>364.600006103515625</ele>
        <time>2020-08-08T14:36:48.000Z</time>
      </trkpt>
      <trkpt lat="42.28803447447717189788818359375" lon="2.59037696756422519683837890625">
        <ele>363.600006103515625</ele>
        <time>2020-08-08T14:36:49.000Z</time>
      </trkpt>
      <trkpt lat="42.28798988275229930877685546875" lon="2.5903934799134731292724609375">
        <ele>363.399993896484375</ele>
        <time>2020-08-08T14:36:50.000Z</time>
      </trkpt>
      <trkpt lat="42.28775954805314540863037109375" lon="2.59045575745403766632080078125">
        <ele>362.79998779296875</ele>
        <time>2020-08-08T14:36:56.000Z</time>
      </trkpt>
      <trkpt lat="42.2876263596117496490478515625" lon="2.5904799811542034149169921875">
        <ele>362.399993896484375</ele>
        <time>2020-08-08T14:37:00.000Z</time>
      </trkpt>
      <trkpt lat="42.28757514618337154388427734375" lon="2.5904761254787445068359375">
        <ele>361.20001220703125</ele>
        <time>2020-08-08T14:37:02.000Z</time>
      </trkpt>
      <trkpt lat="42.287483699619770050048828125" lon="2.59047687985002994537353515625">
        <ele>360.399993896484375</ele>
        <time>2020-08-08T14:37:06.000Z</time>
      </trkpt>
      <trkpt lat="42.287470959126949310302734375" lon="2.59047285653650760650634765625">
        <ele>359.399993896484375</ele>
        <time>2020-08-08T14:37:08.000Z</time>
      </trkpt>
      <trkpt lat="42.28746970184147357940673828125" lon="2.590469419956207275390625">
        <ele>359.20001220703125</ele>
        <time>2020-08-08T14:37:09.000Z</time>
      </trkpt>
      <trkpt lat="42.2874617390334606170654296875" lon="2.5904680788516998291015625">
        <ele>359.20001220703125</ele>
        <time>2020-08-08T14:37:12.000Z</time>
      </trkpt>
      <trkpt lat="42.28741672821342945098876953125" lon="2.590480148792266845703125">
        <ele>359</ele>
        <time>2020-08-08T14:37:14.000Z</time>
      </trkpt>
      <trkpt lat="42.28735126554965972900390625" lon="2.5905004329979419708251953125">
        <ele>358.399993896484375</ele>
        <time>2020-08-08T14:37:16.000Z</time>
      </trkpt>
      <trkpt lat="42.287254370748996734619140625" lon="2.59052163921296596527099609375">
        <ele>357.399993896484375</ele>
        <time>2020-08-08T14:37:19.000Z</time>
      </trkpt>
      <trkpt lat="42.2872220166027545928955078125" lon="2.59052532725036144256591796875">
        <ele>357.399993896484375</ele>
        <time>2020-08-08T14:37:20.000Z</time>
      </trkpt>
      <trkpt lat="42.28711112402379512786865234375" lon="2.59052214212715625762939453125">
        <ele>356.20001220703125</ele>
        <time>2020-08-08T14:37:23.000Z</time>
      </trkpt>
      <trkpt lat="42.28707365691661834716796875" lon="2.5905249081552028656005859375">
        <ele>355.399993896484375</ele>
        <time>2020-08-08T14:37:24.000Z</time>
      </trkpt>
      <trkpt lat="42.28704071603715419769287109375" lon="2.5905244052410125732421875">
        <ele>355.20001220703125</ele>
        <time>2020-08-08T14:37:25.000Z</time>
      </trkpt>
      <trkpt lat="42.2869001515209674835205078125" lon="2.59050118736922740936279296875">
        <ele>354.79998779296875</ele>
        <time>2020-08-08T14:37:29.000Z</time>
      </trkpt>
      <trkpt lat="42.28683334775269031524658203125" lon="2.5904742814600467681884765625">
        <ele>354</ele>
        <time>2020-08-08T14:37:31.000Z</time>
      </trkpt>
      <trkpt lat="42.28675925172865390777587890625" lon="2.59044569917023181915283203125">
        <ele>352.399993896484375</ele>
        <time>2020-08-08T14:37:33.000Z</time>
      </trkpt>
      <trkpt lat="42.28672388009727001190185546875" lon="2.59042658843100070953369140625">
        <ele>352</ele>
        <time>2020-08-08T14:37:34.000Z</time>
      </trkpt>
      <trkpt lat="42.28660217486321926116943359375" lon="2.590335309505462646484375">
        <ele>351.20001220703125</ele>
        <time>2020-08-08T14:37:38.000Z</time>
      </trkpt>
      <trkpt lat="42.286474518477916717529296875" lon="2.59022408165037631988525390625">
        <ele>350.399993896484375</ele>
        <time>2020-08-08T14:37:42.000Z</time>
      </trkpt>
      <trkpt lat="42.2864294238388538360595703125" lon="2.590200193226337432861328125">
        <ele>349.600006103515625</ele>
        <time>2020-08-08T14:37:43.000Z</time>
      </trkpt>
      <trkpt lat="42.2863787971436977386474609375" lon="2.59018837474286556243896484375">
        <ele>349</ele>
        <time>2020-08-08T14:37:44.000Z</time>
      </trkpt>
      <trkpt lat="42.28632288984954357147216796875" lon="2.5901728682219982147216796875">
        <ele>348.399993896484375</ele>
        <time>2020-08-08T14:37:45.000Z</time>
      </trkpt>
      <trkpt lat="42.28626430034637451171875" lon="2.59014830924570560455322265625">
        <ele>347.399993896484375</ele>
        <time>2020-08-08T14:37:46.000Z</time>
      </trkpt>
      <trkpt lat="42.2861556708812713623046875" lon="2.59010992012917995452880859375">
        <ele>346.600006103515625</ele>
        <time>2020-08-08T14:37:48.000Z</time>
      </trkpt>
      <trkpt lat="42.28610613383352756500244140625" lon="2.59009458124637603759765625">
        <ele>345.79998779296875</ele>
        <time>2020-08-08T14:37:49.000Z</time>
      </trkpt>
      <trkpt lat="42.2860616259276866912841796875" lon="2.59007714688777923583984375">
        <ele>345.20001220703125</ele>
        <time>2020-08-08T14:37:50.000Z</time>
      </trkpt>
      <trkpt lat="42.28601845912635326385498046875" lon="2.59006415493786334991455078125">
        <ele>344.399993896484375</ele>
        <time>2020-08-08T14:37:51.000Z</time>
      </trkpt>
      <trkpt lat="42.285902537405490875244140625" lon="2.59006666950881481170654296875">
        <ele>343.79998779296875</ele>
        <time>2020-08-08T14:37:54.000Z</time>
      </trkpt>
      <trkpt lat="42.2858182154595851898193359375" lon="2.59008041583001613616943359375">
        <ele>343.79998779296875</ele>
        <time>2020-08-08T14:37:58.000Z</time>
      </trkpt>
      <trkpt lat="42.28578091599047183990478515625" lon="2.59006130509078502655029296875">
        <ele>343.600006103515625</ele>
        <time>2020-08-08T14:38:00.000Z</time>
      </trkpt>
      <trkpt lat="42.28572006337344646453857421875" lon="2.59003951214253902435302734375">
        <ele>343.20001220703125</ele>
        <time>2020-08-08T14:38:03.000Z</time>
      </trkpt>
      <trkpt lat="42.2856703586876392364501953125" lon="2.5900040566921234130859375">
        <ele>343.20001220703125</ele>
        <time>2020-08-08T14:38:08.000Z</time>
      </trkpt>
      <trkpt lat="42.2856432013213634490966796875" lon="2.58998435921967029571533203125">
        <ele>343.399993896484375</ele>
        <time>2020-08-08T14:38:10.000Z</time>
      </trkpt>
      <trkpt lat="42.2855459712445735931396484375" lon="2.58995711803436279296875">
        <ele>343</ele>
        <time>2020-08-08T14:38:13.000Z</time>
      </trkpt>
      <trkpt lat="42.2855065762996673583984375" lon="2.5899364985525608062744140625">
        <ele>342.79998779296875</ele>
        <time>2020-08-08T14:38:14.000Z</time>
      </trkpt>
      <trkpt lat="42.285465337336063385009765625" lon="2.589917220175266265869140625">
        <ele>342.600006103515625</ele>
        <time>2020-08-08T14:38:15.000Z</time>
      </trkpt>
      <trkpt lat="42.2853840328752994537353515625" lon="2.58985846303403377532958984375">
        <ele>340.600006103515625</ele>
        <time>2020-08-08T14:38:17.000Z</time>
      </trkpt>
      <trkpt lat="42.285300381481647491455078125" lon="2.58980087935924530029296875">
        <ele>339.600006103515625</ele>
        <time>2020-08-08T14:38:19.000Z</time>
      </trkpt>
      <trkpt lat="42.28523223660886287689208984375" lon="2.58978369645774364471435546875">
        <ele>339</ele>
        <time>2020-08-08T14:38:21.000Z</time>
      </trkpt>
      <trkpt lat="42.285196781158447265625" lon="2.589789815247058868408203125">
        <ele>338.600006103515625</ele>
        <time>2020-08-08T14:38:22.000Z</time>
      </trkpt>
      <trkpt lat="42.2851216793060302734375" lon="2.589855529367923736572265625">
        <ele>337.600006103515625</ele>
        <time>2020-08-08T14:38:25.000Z</time>
      </trkpt>
      <trkpt lat="42.28504213504493236541748046875" lon="2.5899995304644107818603515625">
        <ele>337</ele>
        <time>2020-08-08T14:38:29.000Z</time>
      </trkpt>
      <trkpt lat="42.2850078530609607696533203125" lon="2.59002191014587879180908203125">
        <ele>336.600006103515625</ele>
        <time>2020-08-08T14:38:30.000Z</time>
      </trkpt>
      <trkpt lat="42.28492260910570621490478515625" lon="2.5900283642113208770751953125">
        <ele>335.79998779296875</ele>
        <time>2020-08-08T14:38:32.000Z</time>
      </trkpt>
      <trkpt lat="42.2848368622362613677978515625" lon="2.590015791356563568115234375">
        <ele>335.399993896484375</ele>
        <time>2020-08-08T14:38:34.000Z</time>
      </trkpt>
      <trkpt lat="42.2846789471805095672607421875" lon="2.59004839695990085601806640625">
        <ele>335.600006103515625</ele>
        <time>2020-08-08T14:38:38.000Z</time>
      </trkpt>
      <trkpt lat="42.284638546407222747802734375" lon="2.59007387794554233551025390625">
        <ele>335.20001220703125</ele>
        <time>2020-08-08T14:38:39.000Z</time>
      </trkpt>
      <trkpt lat="42.28459521196782588958740234375" lon="2.59009650908410549163818359375">
        <ele>335</ele>
        <time>2020-08-08T14:38:40.000Z</time>
      </trkpt>
      <trkpt lat="42.28455212898552417755126953125" lon="2.59011427871882915496826171875">
        <ele>334.600006103515625</ele>
        <time>2020-08-08T14:38:41.000Z</time>
      </trkpt>
      <trkpt lat="42.28450736962258815765380859375" lon="2.59012735448777675628662109375">
        <ele>334.20001220703125</ele>
        <time>2020-08-08T14:38:42.000Z</time>
      </trkpt>
      <trkpt lat="42.2844175994396209716796875" lon="2.59016406722366809844970703125">
        <ele>333.79998779296875</ele>
        <time>2020-08-08T14:38:44.000Z</time>
      </trkpt>
      <trkpt lat="42.28432573378086090087890625" lon="2.59019541554152965545654296875">
        <ele>333.20001220703125</ele>
        <time>2020-08-08T14:38:46.000Z</time>
      </trkpt>
      <trkpt lat="42.2842799685895442962646484375" lon="2.59019776247441768646240234375">
        <ele>332.79998779296875</ele>
        <time>2020-08-08T14:38:47.000Z</time>
      </trkpt>
      <trkpt lat="42.28419606573879718780517578125" lon="2.59019742719829082489013671875">
        <ele>332.20001220703125</ele>
        <time>2020-08-08T14:38:49.000Z</time>
      </trkpt>
      <trkpt lat="42.28415583260357379913330078125" lon="2.59020631201565265655517578125">
        <ele>331.79998779296875</ele>
        <time>2020-08-08T14:38:50.000Z</time>
      </trkpt>
      <trkpt lat="42.28411744348704814910888671875" lon="2.59021771140396595001220703125">
        <ele>331.600006103515625</ele>
        <time>2020-08-08T14:38:51.000Z</time>
      </trkpt>
      <trkpt lat="42.2840261645615100860595703125" lon="2.59026599116623401641845703125">
        <ele>330.600006103515625</ele>
        <time>2020-08-08T14:38:54.000Z</time>
      </trkpt>
      <trkpt lat="42.284000180661678314208984375" lon="2.59028275497257709503173828125">
        <ele>330.399993896484375</ele>
        <time>2020-08-08T14:38:55.000Z</time>
      </trkpt>
      <trkpt lat="42.28384419344365596771240234375" lon="2.5903733633458614349365234375">
        <ele>329.600006103515625</ele>
        <time>2020-08-08T14:38:59.000Z</time>
      </trkpt>
      <trkpt lat="42.2837968356907367706298828125" lon="2.590402029454708099365234375">
        <ele>329.20001220703125</ele>
        <time>2020-08-08T14:39:00.000Z</time>
      </trkpt>
      <trkpt lat="42.2837009467184543609619140625" lon="2.59046263061463832855224609375">
        <ele>327.79998779296875</ele>
        <time>2020-08-08T14:39:02.000Z</time>
      </trkpt>
      <trkpt lat="42.283614613115787506103515625" lon="2.59052566252648830413818359375">
        <ele>327</ele>
        <time>2020-08-08T14:39:04.000Z</time>
      </trkpt>
      <trkpt lat="42.2835661657154560089111328125" lon="2.59053354151546955108642578125">
        <ele>326.399993896484375</ele>
        <time>2020-08-08T14:39:05.000Z</time>
      </trkpt>
      <trkpt lat="42.28347337804734706878662109375" lon="2.5905071385204792022705078125">
        <ele>325.79998779296875</ele>
        <time>2020-08-08T14:39:07.000Z</time>
      </trkpt>
      <trkpt lat="42.28335368447005748748779296875" lon="2.59043429978191852569580078125">
        <ele>325.20001220703125</ele>
        <time>2020-08-08T14:39:10.000Z</time>
      </trkpt>
      <trkpt lat="42.28327564895153045654296875" lon="2.5903877802193164825439453125">
        <ele>324.20001220703125</ele>
        <time>2020-08-08T14:39:12.000Z</time>
      </trkpt>
      <trkpt lat="42.28323885239660739898681640625" lon="2.590361796319484710693359375">
        <ele>323.600006103515625</ele>
        <time>2020-08-08T14:39:13.000Z</time>
      </trkpt>
      <trkpt lat="42.28320633061230182647705078125" lon="2.5903314538300037384033203125">
        <ele>323</ele>
        <time>2020-08-08T14:39:14.000Z</time>
      </trkpt>
      <trkpt lat="42.283085547387599945068359375" lon="2.59021452628076076507568359375">
        <ele>323</ele>
        <time>2020-08-08T14:39:18.000Z</time>
      </trkpt>
      <trkpt lat="42.28287625126540660858154296875" lon="2.59008343331515789031982421875">
        <ele>322.79998779296875</ele>
        <time>2020-08-08T14:39:23.000Z</time>
      </trkpt>
      <trkpt lat="42.282832749187946319580078125" lon="2.59006331674754619598388671875">
        <ele>322.20001220703125</ele>
        <time>2020-08-08T14:39:24.000Z</time>
      </trkpt>
      <trkpt lat="42.28271749801933765411376953125" lon="2.59002861566841602325439453125">
        <ele>320.79998779296875</ele>
        <time>2020-08-08T14:39:27.000Z</time>
      </trkpt>
      <trkpt lat="42.2826796956360340118408203125" lon="2.5900193117558956146240234375">
        <ele>320</ele>
        <time>2020-08-08T14:39:28.000Z</time>
      </trkpt>
      <trkpt lat="42.2826391272246837615966796875" lon="2.590003050863742828369140625">
        <ele>319</ele>
        <time>2020-08-08T14:39:29.000Z</time>
      </trkpt>
      <trkpt lat="42.282551787793636322021484375" lon="2.58998335339128971099853515625">
        <ele>318</ele>
        <time>2020-08-08T14:39:31.000Z</time>
      </trkpt>
      <trkpt lat="42.2825093753635883331298828125" lon="2.58998318575322628021240234375">
        <ele>317.79998779296875</ele>
        <time>2020-08-08T14:39:32.000Z</time>
      </trkpt>
      <trkpt lat="42.2823085449635982513427734375" lon="2.59004973806440830230712890625">
        <ele>317.20001220703125</ele>
        <time>2020-08-08T14:39:37.000Z</time>
      </trkpt>
      <trkpt lat="42.2822455130517482757568359375" lon="2.59009416215121746063232421875">
        <ele>316</ele>
        <time>2020-08-08T14:39:39.000Z</time>
      </trkpt>
      <trkpt lat="42.2822173498570919036865234375" lon="2.5901091657578945159912109375">
        <ele>315.600006103515625</ele>
        <time>2020-08-08T14:39:40.000Z</time>
      </trkpt>
      <trkpt lat="42.282154820859432220458984375" lon="2.59013892151415348052978515625">
        <ele>315.20001220703125</ele>
        <time>2020-08-08T14:39:42.000Z</time>
      </trkpt>
      <trkpt lat="42.28207938373088836669921875" lon="2.590194158256053924560546875">
        <ele>314.79998779296875</ele>
        <time>2020-08-08T14:39:44.000Z</time>
      </trkpt>
      <trkpt lat="42.28200436569750308990478515625" lon="2.59025123901665210723876953125">
        <ele>313.79998779296875</ele>
        <time>2020-08-08T14:39:46.000Z</time>
      </trkpt>
      <trkpt lat="42.281964719295501708984375" lon="2.59027521125972270965576171875">
        <ele>313.20001220703125</ele>
        <time>2020-08-08T14:39:47.000Z</time>
      </trkpt>
      <trkpt lat="42.2819283418357372283935546875" lon="2.59030102752149105072021484375">
        <ele>312.600006103515625</ele>
        <time>2020-08-08T14:39:48.000Z</time>
      </trkpt>
      <trkpt lat="42.2818549163639545440673828125" lon="2.59035970084369182586669921875">
        <ele>310.79998779296875</ele>
        <time>2020-08-08T14:39:50.000Z</time>
      </trkpt>
      <trkpt lat="42.2817999310791492462158203125" lon="2.590394653379917144775390625">
        <ele>310</ele>
        <time>2020-08-08T14:39:52.000Z</time>
      </trkpt>
      <trkpt lat="42.2817811556160449981689453125" lon="2.59039524011313915252685546875">
        <ele>309.600006103515625</ele>
        <time>2020-08-08T14:39:53.000Z</time>
      </trkpt>
      <trkpt lat="42.2817308641970157623291015625" lon="2.5903804041445255279541015625">
        <ele>309.399993896484375</ele>
        <time>2020-08-08T14:39:56.000Z</time>
      </trkpt>
      <trkpt lat="42.281722985208034515380859375" lon="2.5903884507715702056884765625">
        <ele>309.600006103515625</ele>
        <time>2020-08-08T14:40:01.000Z</time>
      </trkpt>
      <trkpt lat="42.2817177884280681610107421875" lon="2.5903720222413539886474609375">
        <ele>309.399993896484375</ele>
        <time>2020-08-08T14:40:07.000Z</time>
      </trkpt>
      <trkpt lat="42.28172692470252513885498046875" lon="2.590380571782588958740234375">
        <ele>309.600006103515625</ele>
        <time>2020-08-08T14:40:21.000Z</time>
      </trkpt>
      <trkpt lat="42.2817204706370830535888671875" lon="2.5903757102787494659423828125">
        <ele>309.600006103515625</ele>
        <time>2020-08-08T14:40:33.000Z</time>
      </trkpt>
      <trkpt lat="42.28171619586646556854248046875" lon="2.59037294425070285797119140625">
        <ele>309.600006103515625</ele>
        <time>2020-08-08T14:40:35.000Z</time>
      </trkpt>
      <trkpt lat="42.28171451948583126068115234375" lon="2.5903726927936077117919921875">
        <ele>309.600006103515625</ele>
        <time>2020-08-08T14:40:49.000Z</time>
      </trkpt>
      <trkpt lat="42.28170387446880340576171875" lon="2.59035550989210605621337890625">
        <ele>310</ele>
        <time>2020-08-08T14:40:58.000Z</time>
      </trkpt>
      <trkpt lat="42.28169448673725128173828125" lon="2.5903438590466976165771484375">
        <ele>310.20001220703125</ele>
        <time>2020-08-08T14:40:59.000Z</time>
      </trkpt>
      <trkpt lat="42.2816581092774868011474609375" lon="2.5902959145605564117431640625">
        <ele>310</ele>
        <time>2020-08-08T14:41:02.000Z</time>
      </trkpt>
      <trkpt lat="42.281622402369976043701171875" lon="2.590253837406635284423828125">
        <ele>309.79998779296875</ele>
        <time>2020-08-08T14:41:05.000Z</time>
      </trkpt>
      <trkpt lat="42.28154587559401988983154296875" lon="2.59015015326440334320068359375">
        <ele>309.79998779296875</ele>
        <time>2020-08-08T14:41:11.000Z</time>
      </trkpt>
      <trkpt lat="42.28151553310453891754150390625" lon="2.59011662565171718597412109375">
        <ele>309.600006103515625</ele>
        <time>2020-08-08T14:41:13.000Z</time>
      </trkpt>
      <trkpt lat="42.2814626432955265045166015625" lon="2.59006147272884845733642578125">
        <ele>309.79998779296875</ele>
        <time>2020-08-08T14:41:16.000Z</time>
      </trkpt>
      <trkpt lat="42.28138863109052181243896484375" lon="2.58994278497993946075439453125">
        <ele>310.399993896484375</ele>
        <time>2020-08-08T14:41:21.000Z</time>
      </trkpt>
      <trkpt lat="42.281234152615070343017578125" lon="2.58978403173387050628662109375">
        <ele>311</ele>
        <time>2020-08-08T14:41:28.000Z</time>
      </trkpt>
      <trkpt lat="42.28110934607684612274169921875" lon="2.589641623198986053466796875">
        <ele>311.399993896484375</ele>
        <time>2020-08-08T14:41:34.000Z</time>
      </trkpt>
      <trkpt lat="42.2809610702097415924072265625" lon="2.5893340073525905609130859375">
        <ele>311.600006103515625</ele>
        <time>2020-08-08T14:41:43.000Z</time>
      </trkpt>
      <trkpt lat="42.28084766305983066558837890625" lon="2.58914910256862640380859375">
        <ele>311.600006103515625</ele>
        <time>2020-08-08T14:41:49.000Z</time>
      </trkpt>
      <trkpt lat="42.28067901916801929473876953125" lon="2.58893712423741817474365234375">
        <ele>311.600006103515625</ele>
        <time>2020-08-08T14:41:56.000Z</time>
      </trkpt>
      <trkpt lat="42.28053753264248371124267578125" lon="2.58887275122106075286865234375">
        <ele>311.399993896484375</ele>
        <time>2020-08-08T14:42:01.000Z</time>
      </trkpt>
      <trkpt lat="42.28049109689891338348388671875" lon="2.58886118419468402862548828125">
        <ele>311.79998779296875</ele>
        <time>2020-08-08T14:42:03.000Z</time>
      </trkpt>
      <trkpt lat="42.2804439067840576171875" lon="2.5888921134173870086669921875">
        <ele>311.79998779296875</ele>
        <time>2020-08-08T14:42:05.000Z</time>
      </trkpt>
      <trkpt lat="42.2803106345236301422119140625" lon="2.58898280560970306396484375">
        <ele>312.399993896484375</ele>
        <time>2020-08-08T14:42:11.000Z</time>
      </trkpt>
      <trkpt lat="42.2801949642598628997802734375" lon="2.5890505313873291015625">
        <ele>313.399993896484375</ele>
        <time>2020-08-08T14:42:16.000Z</time>
      </trkpt>
      <trkpt lat="42.2801698185503482818603515625" lon="2.5890694744884967803955078125">
        <ele>313.600006103515625</ele>
        <time>2020-08-08T14:42:17.000Z</time>
      </trkpt>
      <trkpt lat="42.28003260679543018341064453125" lon="2.5891720689833164215087890625">
        <ele>314</ele>
        <time>2020-08-08T14:42:23.000Z</time>
      </trkpt>
      <trkpt lat="42.2797956503927707672119140625" lon="2.589282207190990447998046875">
        <ele>314.399993896484375</ele>
        <time>2020-08-08T14:42:31.000Z</time>
      </trkpt>
      <trkpt lat="42.279619462788105010986328125" lon="2.58937566541135311126708984375">
        <ele>314.20001220703125</ele>
        <time>2020-08-08T14:42:37.000Z</time>
      </trkpt>
      <trkpt lat="42.27943430654704570770263671875" lon="2.58937834762036800384521484375">
        <ele>314.399993896484375</ele>
        <time>2020-08-08T14:42:43.000Z</time>
      </trkpt>
      <trkpt lat="42.27923112921416759490966796875" lon="2.58937231265008449554443359375">
        <ele>314.79998779296875</ele>
        <time>2020-08-08T14:42:51.000Z</time>
      </trkpt>
      <trkpt lat="42.27917178533971309661865234375" lon="2.58946987800300121307373046875">
        <ele>315.399993896484375</ele>
        <time>2020-08-08T14:42:54.000Z</time>
      </trkpt>
      <trkpt lat="42.27910540066659450531005859375" lon="2.5894892401993274688720703125">
        <ele>315.399993896484375</ele>
        <time>2020-08-08T14:42:56.000Z</time>
      </trkpt>
      <trkpt lat="42.27902761660516262054443359375" lon="2.5894889049232006072998046875">
        <ele>314.399993896484375</ele>
        <time>2020-08-08T14:42:58.000Z</time>
      </trkpt>
      <trkpt lat="42.27893642149865627288818359375" lon="2.5894949398934841156005859375">
        <ele>313.20001220703125</ele>
        <time>2020-08-08T14:43:00.000Z</time>
      </trkpt>
      <trkpt lat="42.2788260318338871002197265625" lon="2.5895106978714466094970703125">
        <ele>311.79998779296875</ele>
        <time>2020-08-08T14:43:02.000Z</time>
      </trkpt>
      <trkpt lat="42.27865395136177539825439453125" lon="2.58953123353421688079833984375">
        <ele>310.20001220703125</ele>
        <time>2020-08-08T14:43:05.000Z</time>
      </trkpt>
      <trkpt lat="42.27856040932238101959228515625" lon="2.5895395316183567047119140625">
        <ele>309</ele>
        <time>2020-08-08T14:43:07.000Z</time>
      </trkpt>
      <trkpt lat="42.278515398502349853515625" lon="2.58954497985541820526123046875">
        <ele>308.399993896484375</ele>
        <time>2020-08-08T14:43:08.000Z</time>
      </trkpt>
      <trkpt lat="42.278419174253940582275390625" lon="2.58956082165241241455078125">
        <ele>307.600006103515625</ele>
        <time>2020-08-08T14:43:10.000Z</time>
      </trkpt>
      <trkpt lat="42.27831951342523097991943359375" lon="2.58957766927778720855712890625">
        <ele>307</ele>
        <time>2020-08-08T14:43:12.000Z</time>
      </trkpt>
      <trkpt lat="42.27822245098650455474853515625" lon="2.58961580693721771240234375">
        <ele>306.79998779296875</ele>
        <time>2020-08-08T14:43:14.000Z</time>
      </trkpt>
      <trkpt lat="42.2781439125537872314453125" lon="2.58966735564172267913818359375">
        <ele>306.79998779296875</ele>
        <time>2020-08-08T14:43:16.000Z</time>
      </trkpt>
      <trkpt lat="42.27811046876013278961181640625" lon="2.5896914117038249969482421875">
        <ele>306.600006103515625</ele>
        <time>2020-08-08T14:43:17.000Z</time>
      </trkpt>
      <trkpt lat="42.27805732749402523040771484375" lon="2.58973910473287105560302734375">
        <ele>306</ele>
        <time>2020-08-08T14:43:19.000Z</time>
      </trkpt>
      <trkpt lat="42.2780059464275836944580078125" lon="2.58979761041700839996337890625">
        <ele>305.600006103515625</ele>
        <time>2020-08-08T14:43:21.000Z</time>
      </trkpt>
      <trkpt lat="42.27792221121490001678466796875" lon="2.58989618159830570220947265625">
        <ele>305.20001220703125</ele>
        <time>2020-08-08T14:43:24.000Z</time>
      </trkpt>
      <trkpt lat="42.2778336144983768463134765625" lon="2.59000581689178943634033203125">
        <ele>304.600006103515625</ele>
        <time>2020-08-08T14:43:27.000Z</time>
      </trkpt>
      <trkpt lat="42.27780662477016448974609375" lon="2.5900424458086490631103515625">
        <ele>304.20001220703125</ele>
        <time>2020-08-08T14:43:28.000Z</time>
      </trkpt>
      <trkpt lat="42.2777819819748401641845703125" lon="2.59007907472550868988037109375">
        <ele>303.399993896484375</ele>
        <time>2020-08-08T14:43:29.000Z</time>
      </trkpt>
      <trkpt lat="42.277767397463321685791015625" lon="2.59012165479362010955810546875">
        <ele>302.79998779296875</ele>
        <time>2020-08-08T14:43:30.000Z</time>
      </trkpt>
      <trkpt lat="42.27773445658385753631591796875" lon="2.5901919789612293243408203125">
        <ele>302.399993896484375</ele>
        <time>2020-08-08T14:43:32.000Z</time>
      </trkpt>
      <trkpt lat="42.27766958065330982208251953125" lon="2.59033857844769954681396484375">
        <ele>301.399993896484375</ele>
        <time>2020-08-08T14:43:36.000Z</time>
      </trkpt>
      <trkpt lat="42.2776113264262676239013671875" lon="2.59042910300195217132568359375">
        <ele>300.399993896484375</ele>
        <time>2020-08-08T14:43:39.000Z</time>
      </trkpt>
      <trkpt lat="42.277593724429607391357421875" lon="2.59047302417457103729248046875">
        <ele>300.399993896484375</ele>
        <time>2020-08-08T14:43:40.000Z</time>
      </trkpt>
      <trkpt lat="42.27742843329906463623046875" lon="2.59070805273950099945068359375">
        <ele>299.20001220703125</ele>
        <time>2020-08-08T14:43:46.000Z</time>
      </trkpt>
      <trkpt lat="42.27723003365099430084228515625" lon="2.59073001332581043243408203125">
        <ele>298.20001220703125</ele>
        <time>2020-08-08T14:43:51.000Z</time>
      </trkpt>
      <trkpt lat="42.27715551853179931640625" lon="2.59077074937522411346435546875">
        <ele>297</ele>
        <time>2020-08-08T14:43:53.000Z</time>
      </trkpt>
      <trkpt lat="42.27712743915617465972900390625" lon="2.59080679155886173248291015625">
        <ele>296.399993896484375</ele>
        <time>2020-08-08T14:43:54.000Z</time>
      </trkpt>
      <trkpt lat="42.2771077416837215423583984375" lon="2.5908970646560192108154296875">
        <ele>296</ele>
        <time>2020-08-08T14:43:56.000Z</time>
      </trkpt>
      <trkpt lat="42.2771050594747066497802734375" lon="2.59094484150409698486328125">
        <ele>295.79998779296875</ele>
        <time>2020-08-08T14:43:57.000Z</time>
      </trkpt>
      <trkpt lat="42.27710145525634288787841796875" lon="2.59098968468606472015380859375">
        <ele>295.79998779296875</ele>
        <time>2020-08-08T14:43:58.000Z</time>
      </trkpt>
      <trkpt lat="42.27703976444900035858154296875" lon="2.59117257781326770782470703125">
        <ele>296.20001220703125</ele>
        <time>2020-08-08T14:44:03.000Z</time>
      </trkpt>
      <trkpt lat="42.2769464738667011260986328125" lon="2.59120292030274868011474609375">
        <ele>296.79998779296875</ele>
        <time>2020-08-08T14:44:07.000Z</time>
      </trkpt>
      <trkpt lat="42.27689526043832302093505859375" lon="2.5912001542747020721435546875">
        <ele>297.399993896484375</ele>
        <time>2020-08-08T14:44:10.000Z</time>
      </trkpt>
      <trkpt lat="42.27681311778724193572998046875" lon="2.5911743380129337310791015625">
        <ele>297.600006103515625</ele>
        <time>2020-08-08T14:44:14.000Z</time>
      </trkpt>
      <trkpt lat="42.2766246087849140167236328125" lon="2.591142319142818450927734375">
        <ele>296.79998779296875</ele>
        <time>2020-08-08T14:44:20.000Z</time>
      </trkpt>
      <trkpt lat="42.276589572429656982421875" lon="2.59114139713346958160400390625">
        <ele>296.600006103515625</ele>
        <time>2020-08-08T14:44:21.000Z</time>
      </trkpt>
      <trkpt lat="42.27635496295988559722900390625" lon="2.591148354113101959228515625">
        <ele>296.600006103515625</ele>
        <time>2020-08-08T14:44:27.000Z</time>
      </trkpt>
      <trkpt lat="42.27626879699528217315673828125" lon="2.59113519452512264251708984375">
        <ele>296.20001220703125</ele>
        <time>2020-08-08T14:44:29.000Z</time>
      </trkpt>
      <trkpt lat="42.27615832351148128509521484375" lon="2.591066546738147735595703125">
        <ele>296</ele>
        <time>2020-08-08T14:44:32.000Z</time>
      </trkpt>
      <trkpt lat="42.27596838958561420440673828125" lon="2.59096353314816951751708984375">
        <ele>295.600006103515625</ele>
        <time>2020-08-08T14:44:38.000Z</time>
      </trkpt>
      <trkpt lat="42.27576672099530696868896484375" lon="2.59101734496653079986572265625">
        <ele>296</ele>
        <time>2020-08-08T14:44:44.000Z</time>
      </trkpt>
      <trkpt lat="42.27558399550616741180419921875" lon="2.591047100722789764404296875">
        <ele>296.600006103515625</ele>
        <time>2020-08-08T14:44:50.000Z</time>
      </trkpt>
      <trkpt lat="42.27552046068012714385986328125" lon="2.59103964082896709442138671875">
        <ele>297</ele>
        <time>2020-08-08T14:44:52.000Z</time>
      </trkpt>
      <trkpt lat="42.2753705084323883056640625" lon="2.59101382456719875335693359375">
        <ele>297</ele>
        <time>2020-08-08T14:44:56.000Z</time>
      </trkpt>
      <trkpt lat="42.27518082596361637115478515625" lon="2.59092397056519985198974609375">
        <ele>297</ele>
        <time>2020-08-08T14:45:01.000Z</time>
      </trkpt>
      <trkpt lat="42.2749613039195537567138671875" lon="2.59085792116820812225341796875">
        <ele>296.20001220703125</ele>
        <time>2020-08-08T14:45:06.000Z</time>
      </trkpt>
      <trkpt lat="42.27492148987948894500732421875" lon="2.5908561609685420989990234375">
        <ele>296</ele>
        <time>2020-08-08T14:45:07.000Z</time>
      </trkpt>
      <trkpt lat="42.27477011270821094512939453125" lon="2.5908588431775569915771484375">
        <ele>296.600006103515625</ele>
        <time>2020-08-08T14:45:12.000Z</time>
      </trkpt>
      <trkpt lat="42.274619825184345245361328125" lon="2.59087921120226383209228515625">
        <ele>297.399993896484375</ele>
        <time>2020-08-08T14:45:17.000Z</time>
      </trkpt>
      <trkpt lat="42.2745599783957004547119140625" lon="2.5908823125064373016357421875">
        <ele>298.600006103515625</ele>
        <time>2020-08-08T14:45:19.000Z</time>
      </trkpt>
      <trkpt lat="42.27446299977600574493408203125" lon="2.5909079611301422119140625">
        <ele>299.20001220703125</ele>
        <time>2020-08-08T14:45:23.000Z</time>
      </trkpt>
      <trkpt lat="42.27438588626682758331298828125" lon="2.59094324894249439239501953125">
        <ele>299.79998779296875</ele>
        <time>2020-08-08T14:45:26.000Z</time>
      </trkpt>
      <trkpt lat="42.274269796907901763916015625" lon="2.59100376628339290618896484375">
        <ele>300.20001220703125</ele>
        <time>2020-08-08T14:45:31.000Z</time>
      </trkpt>
      <trkpt lat="42.27420835755765438079833984375" lon="2.59103310294449329376220703125">
        <ele>301</ele>
        <time>2020-08-08T14:45:34.000Z</time>
      </trkpt>
      <trkpt lat="42.2741351835429668426513671875" lon="2.5910474359989166259765625">
        <ele>301.79998779296875</ele>
        <time>2020-08-08T14:45:37.000Z</time>
      </trkpt>
      <trkpt lat="42.273950278759002685546875" lon="2.59102522395551204681396484375">
        <ele>300.600006103515625</ele>
        <time>2020-08-08T14:45:42.000Z</time>
      </trkpt>
      <trkpt lat="42.27386377751827239990234375" lon="2.59102388285100460052490234375">
        <ele>300.20001220703125</ele>
        <time>2020-08-08T14:45:44.000Z</time>
      </trkpt>
      <trkpt lat="42.2737177647650241851806640625" lon="2.591035701334476470947265625">
        <ele>299.20001220703125</ele>
        <time>2020-08-08T14:45:47.000Z</time>
      </trkpt>
      <trkpt lat="42.27365867234766483306884765625" lon="2.59104299359023571014404296875">
        <ele>298.79998779296875</ele>
        <time>2020-08-08T14:45:48.000Z</time>
      </trkpt>
      <trkpt lat="42.2735960595309734344482421875" lon="2.5910549797117710113525390625">
        <ele>298.399993896484375</ele>
        <time>2020-08-08T14:45:49.000Z</time>
      </trkpt>
      <trkpt lat="42.27353545837104320526123046875" lon="2.59106864221394062042236328125">
        <ele>298</ele>
        <time>2020-08-08T14:45:50.000Z</time>
      </trkpt>
      <trkpt lat="42.2734136693179607391357421875" lon="2.59109077043831348419189453125">
        <ele>296.399993896484375</ele>
        <time>2020-08-08T14:45:52.000Z</time>
      </trkpt>
      <trkpt lat="42.27335105650126934051513671875" lon="2.5910972245037555694580078125">
        <ele>295.79998779296875</ele>
        <time>2020-08-08T14:45:53.000Z</time>
      </trkpt>
      <trkpt lat="42.27329355664551258087158203125" lon="2.59110686369240283966064453125">
        <ele>295.600006103515625</ele>
        <time>2020-08-08T14:45:54.000Z</time>
      </trkpt>
      <trkpt lat="42.27324360050261020660400390625" lon="2.5911247171461582183837890625">
        <ele>295</ele>
        <time>2020-08-08T14:45:55.000Z</time>
      </trkpt>
      <trkpt lat="42.27319280616939067840576171875" lon="2.5911465100944042205810546875">
        <ele>294.600006103515625</ele>
        <time>2020-08-08T14:45:56.000Z</time>
      </trkpt>
      <trkpt lat="42.27314603514969348907470703125" lon="2.59117408655583858489990234375">
        <ele>294.20001220703125</ele>
        <time>2020-08-08T14:45:57.000Z</time>
      </trkpt>
      <trkpt lat="42.2729818336665630340576171875" lon="2.59126729331910610198974609375">
        <ele>294.20001220703125</ele>
        <time>2020-08-08T14:46:01.000Z</time>
      </trkpt>
      <trkpt lat="42.2729496471583843231201171875" lon="2.59128992445766925811767578125">
        <ele>294.600006103515625</ele>
        <time>2020-08-08T14:46:02.000Z</time>
      </trkpt>
      <trkpt lat="42.27281042374670505523681640625" lon="2.5913156569004058837890625">
        <ele>295.600006103515625</ele>
        <time>2020-08-08T14:46:06.000Z</time>
      </trkpt>
      <trkpt lat="42.27278008125722408294677734375" lon="2.591325379908084869384765625">
        <ele>296.20001220703125</ele>
        <time>2020-08-08T14:46:07.000Z</time>
      </trkpt>
      <trkpt lat="42.27265083231031894683837890625" lon="2.59136502631008625030517578125">
        <ele>296.600006103515625</ele>
        <time>2020-08-08T14:46:12.000Z</time>
      </trkpt>
      <trkpt lat="42.27243055589497089385986328125" lon="2.5914108753204345703125">
        <ele>296.20001220703125</ele>
        <time>2020-08-08T14:46:19.000Z</time>
      </trkpt>
      <trkpt lat="42.2722630016505718231201171875" lon="2.59144230745732784271240234375">
        <ele>296</ele>
        <time>2020-08-08T14:46:25.000Z</time>
      </trkpt>
      <trkpt lat="42.2720621712505817413330078125" lon="2.5915223546326160430908203125">
        <ele>296.399993896484375</ele>
        <time>2020-08-08T14:46:32.000Z</time>
      </trkpt>
      <trkpt lat="42.272032834589481353759765625" lon="2.591534592211246490478515625">
        <ele>296.20001220703125</ele>
        <time>2020-08-08T14:46:33.000Z</time>
      </trkpt>
      <trkpt lat="42.27183192037045955657958984375" lon="2.5916214287281036376953125">
        <ele>296.20001220703125</ele>
        <time>2020-08-08T14:46:39.000Z</time>
      </trkpt>
      <trkpt lat="42.27166461758315563201904296875" lon="2.59161195717751979827880859375">
        <ele>296.399993896484375</ele>
        <time>2020-08-08T14:46:44.000Z</time>
      </trkpt>
      <trkpt lat="42.2714911960065364837646484375" lon="2.5915656052529811859130859375">
        <ele>296.399993896484375</ele>
        <time>2020-08-08T14:46:49.000Z</time>
      </trkpt>
      <trkpt lat="42.27129430510103702545166015625" lon="2.59160173125565052032470703125">
        <ele>296.399993896484375</ele>
        <time>2020-08-08T14:46:55.000Z</time>
      </trkpt>
      <trkpt lat="42.27110738866031169891357421875" lon="2.59167976677417755126953125">
        <ele>296.399993896484375</ele>
        <time>2020-08-08T14:47:00.000Z</time>
      </trkpt>
      <trkpt lat="42.27091200649738311767578125" lon="2.5917459838092327117919921875">
        <ele>297.399993896484375</ele>
        <time>2020-08-08T14:47:06.000Z</time>
      </trkpt>
      <trkpt lat="42.27076113224029541015625" lon="2.59178814478218555450439453125">
        <ele>297</ele>
        <time>2020-08-08T14:47:11.000Z</time>
      </trkpt>
      <trkpt lat="42.2705929912626743316650390625" lon="2.59182804264128208160400390625">
        <ele>297.20001220703125</ele>
        <time>2020-08-08T14:47:16.000Z</time>
      </trkpt>
      <trkpt lat="42.2703730501234531402587890625" lon="2.59190104901790618896484375">
        <ele>297.600006103515625</ele>
        <time>2020-08-08T14:47:22.000Z</time>
      </trkpt>
      <trkpt lat="42.2701977007091045379638671875" lon="2.5919649191200733184814453125">
        <ele>297.600006103515625</ele>
        <time>2020-08-08T14:47:27.000Z</time>
      </trkpt>
      <trkpt lat="42.27002494968473911285400390625" lon="2.59205603040754795074462890625">
        <ele>297.600006103515625</ele>
        <time>2020-08-08T14:47:32.000Z</time>
      </trkpt>
      <trkpt lat="42.26982177235186100006103515625" lon="2.59218133985996246337890625">
        <ele>297.399993896484375</ele>
        <time>2020-08-08T14:47:38.000Z</time>
      </trkpt>
      <trkpt lat="42.2696287371218204498291015625" lon="2.59230731986463069915771484375">
        <ele>297.79998779296875</ele>
        <time>2020-08-08T14:47:44.000Z</time>
      </trkpt>
      <trkpt lat="42.2695985622704029083251953125" lon="2.59233028627932071685791015625">
        <ele>298</ele>
        <time>2020-08-08T14:47:45.000Z</time>
      </trkpt>
      <trkpt lat="42.2694262303411960601806640625" lon="2.59246657602488994598388671875">
        <ele>298.600006103515625</ele>
        <time>2020-08-08T14:47:51.000Z</time>
      </trkpt>
      <trkpt lat="42.269269488751888275146484375" lon="2.59261745028197765350341796875">
        <ele>299</ele>
        <time>2020-08-08T14:47:57.000Z</time>
      </trkpt>
      <trkpt lat="42.269243337213993072509765625" lon="2.59264393709599971771240234375">
        <ele>299</ele>
        <time>2020-08-08T14:47:58.000Z</time>
      </trkpt>
      <trkpt lat="42.26913764141499996185302734375" lon="2.592773102223873138427734375">
        <ele>299.600006103515625</ele>
        <time>2020-08-08T14:48:03.000Z</time>
      </trkpt>
      <trkpt lat="42.269095145165920257568359375" lon="2.59281777776777744293212890625">
        <ele>300</ele>
        <time>2020-08-08T14:48:05.000Z</time>
      </trkpt>
      <trkpt lat="42.2690544091165065765380859375" lon="2.59285901673138141632080078125">
        <ele>300.20001220703125</ele>
        <time>2020-08-08T14:48:07.000Z</time>
      </trkpt>
      <trkpt lat="42.2689565084874629974365234375" lon="2.5929759442806243896484375">
        <ele>301</ele>
        <time>2020-08-08T14:48:12.000Z</time>
      </trkpt>
      <trkpt lat="42.2689394094049930572509765625" lon="2.59300067089498043060302734375">
        <ele>301.20001220703125</ele>
        <time>2020-08-08T14:48:13.000Z</time>
      </trkpt>
      <trkpt lat="42.26890043355524539947509765625" lon="2.5931449234485626220703125">
        <ele>301.79998779296875</ele>
        <time>2020-08-08T14:48:18.000Z</time>
      </trkpt>
      <trkpt lat="42.26890713907778263092041015625" lon="2.593186832964420318603515625">
        <ele>301.79998779296875</ele>
        <time>2020-08-08T14:48:19.000Z</time>
      </trkpt>
      <trkpt lat="42.26896145381033420562744140625" lon="2.59337903000414371490478515625">
        <ele>302.20001220703125</ele>
        <time>2020-08-08T14:48:25.000Z</time>
      </trkpt>
      <trkpt lat="42.268982492387294769287109375" lon="2.59343921206891536712646484375">
        <ele>302.399993896484375</ele>
        <time>2020-08-08T14:48:27.000Z</time>
      </trkpt>
      <trkpt lat="42.269017361104488372802734375" lon="2.5935195945203304290771484375">
        <ele>302.79998779296875</ele>
        <time>2020-08-08T14:48:30.000Z</time>
      </trkpt>
      <trkpt lat="42.26908206939697265625" lon="2.5936667807400226593017578125">
        <ele>303.399993896484375</ele>
        <time>2020-08-08T14:48:35.000Z</time>
      </trkpt>
      <trkpt lat="42.26909472607076168060302734375" lon="2.59370156563818454742431640625">
        <ele>303.79998779296875</ele>
        <time>2020-08-08T14:48:36.000Z</time>
      </trkpt>
      <trkpt lat="42.2691395692527294158935546875" lon="2.593824528157711029052734375">
        <ele>304</ele>
        <time>2020-08-08T14:48:40.000Z</time>
      </trkpt>
      <trkpt lat="42.2692215442657470703125" lon="2.59395704604685306549072265625">
        <ele>303.79998779296875</ele>
        <time>2020-08-08T14:48:45.000Z</time>
      </trkpt>
      <trkpt lat="42.26933210156857967376708984375" lon="2.5941770710051059722900390625">
        <ele>304.399993896484375</ele>
        <time>2020-08-08T14:48:52.000Z</time>
      </trkpt>
      <trkpt lat="42.26937585510313510894775390625" lon="2.59431025944650173187255859375">
        <ele>305</ele>
        <time>2020-08-08T14:48:57.000Z</time>
      </trkpt>
      <trkpt lat="42.26939613930881023406982421875" lon="2.59437295608222484588623046875">
        <ele>305.399993896484375</ele>
        <time>2020-08-08T14:48:59.000Z</time>
      </trkpt>
      <trkpt lat="42.2694195248186588287353515625" lon="2.594489045441150665283203125">
        <ele>305.399993896484375</ele>
        <time>2020-08-08T14:49:02.000Z</time>
      </trkpt>
      <trkpt lat="42.26947509683668613433837890625" lon="2.59466213174164295196533203125">
        <ele>305.79998779296875</ele>
        <time>2020-08-08T14:49:07.000Z</time>
      </trkpt>
      <trkpt lat="42.2695291601121425628662109375" lon="2.59484619833528995513916015625">
        <ele>306.399993896484375</ele>
        <time>2020-08-08T14:49:13.000Z</time>
      </trkpt>
      <trkpt lat="42.26953963749110698699951171875" lon="2.59490889497101306915283203125">
        <ele>306.79998779296875</ele>
        <time>2020-08-08T14:49:15.000Z</time>
      </trkpt>
      <trkpt lat="42.26957090198993682861328125" lon="2.59502540342509746551513671875">
        <ele>308</ele>
        <time>2020-08-08T14:49:19.000Z</time>
      </trkpt>
      <trkpt lat="42.26958389393985271453857421875" lon="2.59505272842943668365478515625">
        <ele>308.20001220703125</ele>
        <time>2020-08-08T14:49:20.000Z</time>
      </trkpt>
      <trkpt lat="42.269632928073406219482421875" lon="2.5951520539820194244384765625">
        <ele>309.399993896484375</ele>
        <time>2020-08-08T14:49:24.000Z</time>
      </trkpt>
      <trkpt lat="42.269669473171234130859375" lon="2.5952197797596454620361328125">
        <ele>309.79998779296875</ele>
        <time>2020-08-08T14:49:27.000Z</time>
      </trkpt>
      <trkpt lat="42.269695959985256195068359375" lon="2.59525649249553680419921875">
        <ele>310.399993896484375</ele>
        <time>2020-08-08T14:49:29.000Z</time>
      </trkpt>
      <trkpt lat="42.2697732411324977874755859375" lon="2.5953143276274204254150390625">
        <ele>311.20001220703125</ele>
        <time>2020-08-08T14:49:34.000Z</time>
      </trkpt>
      <trkpt lat="42.26990156807005405426025390625" lon="2.595302760601043701171875">
        <ele>311.20001220703125</ele>
        <time>2020-08-08T14:49:40.000Z</time>
      </trkpt>
      <trkpt lat="42.26996292360126972198486328125" lon="2.595277614891529083251953125">
        <ele>312</ele>
        <time>2020-08-08T14:49:43.000Z</time>
      </trkpt>
      <trkpt lat="42.2700099460780620574951171875" lon="2.5952348671853542327880859375">
        <ele>312.399993896484375</ele>
        <time>2020-08-08T14:49:46.000Z</time>
      </trkpt>
      <trkpt lat="42.27010441012680530548095703125" lon="2.59522774256765842437744140625">
        <ele>312.79998779296875</ele>
        <time>2020-08-08T14:49:51.000Z</time>
      </trkpt>
      <trkpt lat="42.2701789252460002899169921875" lon="2.59533586911857128143310546875">
        <ele>312.79998779296875</ele>
        <time>2020-08-08T14:49:56.000Z</time>
      </trkpt>
      <trkpt lat="42.27018378674983978271484375" lon="2.5954269804060459136962890625">
        <ele>313</ele>
        <time>2020-08-08T14:49:59.000Z</time>
      </trkpt>
      <trkpt lat="42.2701789252460002899169921875" lon="2.595448605716228485107421875">
        <ele>313.20001220703125</ele>
        <time>2020-08-08T14:50:00.000Z</time>
      </trkpt>
      <trkpt lat="42.2701728902757167816162109375" lon="2.595470063388347625732421875">
        <ele>313.399993896484375</ele>
        <time>2020-08-08T14:50:01.000Z</time>
      </trkpt>
      <trkpt lat="42.2701562941074371337890625" lon="2.59561381302773952484130859375">
        <ele>314.20001220703125</ele>
        <time>2020-08-08T14:50:07.000Z</time>
      </trkpt>
      <trkpt lat="42.27015688084065914154052734375" lon="2.5956449098885059356689453125">
        <ele>314.399993896484375</ele>
        <time>2020-08-08T14:50:08.000Z</time>
      </trkpt>
      <trkpt lat="42.27018085308372974395751953125" lon="2.595761753618717193603515625">
        <ele>315.399993896484375</ele>
        <time>2020-08-08T14:50:13.000Z</time>
      </trkpt>
      <trkpt lat="42.27018571458756923675537109375" lon="2.5957880727946758270263671875">
        <ele>315.600006103515625</ele>
        <time>2020-08-08T14:50:14.000Z</time>
      </trkpt>
      <trkpt lat="42.2702114470303058624267578125" lon="2.59587633423507213592529296875">
        <ele>316.399993896484375</ele>
        <time>2020-08-08T14:50:18.000Z</time>
      </trkpt>
      <trkpt lat="42.27021194994449615478515625" lon="2.59589913301169872283935546875">
        <ele>316.399993896484375</ele>
        <time>2020-08-08T14:50:19.000Z</time>
      </trkpt>
      <trkpt lat="42.270206250250339508056640625" lon="2.5959371030330657958984375">
        <ele>316.79998779296875</ele>
        <time>2020-08-08T14:50:21.000Z</time>
      </trkpt>
      <trkpt lat="42.27020180784165859222412109375" lon="2.5960117019712924957275390625">
        <ele>317.79998779296875</ele>
        <time>2020-08-08T14:50:25.000Z</time>
      </trkpt>
      <trkpt lat="42.270200550556182861328125" lon="2.59603123180568218231201171875">
        <ele>318</ele>
        <time>2020-08-08T14:50:26.000Z</time>
      </trkpt>
      <trkpt lat="42.27019996382296085357666015625" lon="2.59613147936761379241943359375">
        <ele>319</ele>
        <time>2020-08-08T14:50:31.000Z</time>
      </trkpt>
      <trkpt lat="42.27020381949841976165771484375" lon="2.596147321164608001708984375">
        <ele>319.20001220703125</ele>
        <time>2020-08-08T14:50:32.000Z</time>
      </trkpt>
      <trkpt lat="42.270262576639652252197265625" lon="2.59623709134757518768310546875">
        <ele>319.79998779296875</ele>
        <time>2020-08-08T14:50:37.000Z</time>
      </trkpt>
      <trkpt lat="42.27032057940959930419921875" lon="2.5962857902050018310546875">
        <ele>320</ele>
        <time>2020-08-08T14:50:41.000Z</time>
      </trkpt>
      <trkpt lat="42.27033424191176891326904296875" lon="2.5962923280894756317138671875">
        <ele>320</ele>
        <time>2020-08-08T14:50:42.000Z</time>
      </trkpt>
      <trkpt lat="42.2704030573368072509765625" lon="2.59632158093154430389404296875">
        <ele>320.399993896484375</ele>
        <time>2020-08-08T14:50:47.000Z</time>
      </trkpt>
      <trkpt lat="42.27041772566735744476318359375" lon="2.5963328965008258819580078125">
        <ele>320.399993896484375</ele>
        <time>2020-08-08T14:50:48.000Z</time>
      </trkpt>
      <trkpt lat="42.2704330645501613616943359375" lon="2.59634144604206085205078125">
        <ele>320.399993896484375</ele>
        <time>2020-08-08T14:50:49.000Z</time>
      </trkpt>
      <trkpt lat="42.27051780559122562408447265625" lon="2.5964304618537425994873046875">
        <ele>321.79998779296875</ele>
        <time>2020-08-08T14:50:55.000Z</time>
      </trkpt>
      <trkpt lat="42.270560972392559051513671875" lon="2.59644605219364166259765625">
        <ele>322.20001220703125</ele>
        <time>2020-08-08T14:51:00.000Z</time>
      </trkpt>
      <trkpt lat="42.270589135587215423583984375" lon="2.59645686484873294830322265625">
        <ele>322.79998779296875</ele>
        <time>2020-08-08T14:51:07.000Z</time>
      </trkpt>
      <trkpt lat="42.2705909796059131622314453125" lon="2.5964291207492351531982421875">
        <ele>323.20001220703125</ele>
        <time>2020-08-08T14:51:14.000Z</time>
      </trkpt>
      <trkpt lat="42.2706395946443080902099609375" lon="2.59651319123804569244384765625">
        <ele>323.600006103515625</ele>
        <time>2020-08-08T15:13:23.000Z</time>
      </trkpt>
      <trkpt lat="42.27064018137753009796142578125" lon="2.59653347544372081756591796875">
        <ele>323.399993896484375</ele>
        <time>2020-08-08T15:13:28.000Z</time>
      </trkpt>
      <trkpt lat="42.270682342350482940673828125" lon="2.59661913849413394927978515625">
        <ele>323.79998779296875</ele>
        <time>2020-08-08T15:13:34.000Z</time>
      </trkpt>
      <trkpt lat="42.27075551636517047882080078125" lon="2.59675274603068828582763671875">
        <ele>323.600006103515625</ele>
        <time>2020-08-08T15:13:40.000Z</time>
      </trkpt>
      <trkpt lat="42.2708917222917079925537109375" lon="2.59692348539829254150390625">
        <ele>323.20001220703125</ele>
        <time>2020-08-08T15:13:46.000Z</time>
      </trkpt>
      <trkpt lat="42.27099758572876453399658203125" lon="2.5970480404794216156005859375">
        <ele>322.600006103515625</ele>
        <time>2020-08-08T15:13:49.000Z</time>
      </trkpt>
      <trkpt lat="42.2710355557501316070556640625" lon="2.5971657223999500274658203125">
        <ele>322.20001220703125</ele>
        <time>2020-08-08T15:13:51.000Z</time>
      </trkpt>
      <trkpt lat="42.271026670932769775390625" lon="2.597232274711132049560546875">
        <ele>321.79998779296875</ele>
        <time>2020-08-08T15:13:52.000Z</time>
      </trkpt>
      <trkpt lat="42.270973362028598785400390625" lon="2.59736479260027408599853515625">
        <ele>320.79998779296875</ele>
        <time>2020-08-08T15:13:54.000Z</time>
      </trkpt>
      <trkpt lat="42.27094042114913463592529296875" lon="2.597432099282741546630859375">
        <ele>320.600006103515625</ele>
        <time>2020-08-08T15:13:55.000Z</time>
      </trkpt>
      <trkpt lat="42.27083732374012470245361328125" lon="2.59763435460627079010009765625">
        <ele>319.399993896484375</ele>
        <time>2020-08-08T15:13:58.000Z</time>
      </trkpt>
      <trkpt lat="42.2706818394362926483154296875" lon="2.5979246199131011962890625">
        <ele>318.399993896484375</ele>
        <time>2020-08-08T15:14:02.000Z</time>
      </trkpt>
      <trkpt lat="42.2706436179578304290771484375" lon="2.59800533764064311981201171875">
        <ele>318.20001220703125</ele>
        <time>2020-08-08T15:14:03.000Z</time>
      </trkpt>
      <trkpt lat="42.2705028019845485687255859375" lon="2.5983415357768535614013671875">
        <ele>317.399993896484375</ele>
        <time>2020-08-08T15:14:07.000Z</time>
      </trkpt>
      <trkpt lat="42.27045678533613681793212890625" lon="2.59839911945164203643798828125">
        <ele>317</ele>
        <time>2020-08-08T15:14:08.000Z</time>
      </trkpt>
      <trkpt lat="42.2703371755778789520263671875" lon="2.59843633510172367095947265625">
        <ele>316.399993896484375</ele>
        <time>2020-08-08T15:14:10.000Z</time>
      </trkpt>
      <trkpt lat="42.27020583115518093109130859375" lon="2.5984146259725093841552734375">
        <ele>315.79998779296875</ele>
        <time>2020-08-08T15:14:12.000Z</time>
      </trkpt>
      <trkpt lat="42.2699965350329875946044921875" lon="2.59840406477451324462890625">
        <ele>315.399993896484375</ele>
        <time>2020-08-08T15:14:15.000Z</time>
      </trkpt>
      <trkpt lat="42.269771061837673187255859375" lon="2.5983985327184200286865234375">
        <ele>314.79998779296875</ele>
        <time>2020-08-08T15:14:18.000Z</time>
      </trkpt>
      <trkpt lat="42.2696163319051265716552734375" lon="2.59840850718319416046142578125">
        <ele>314</ele>
        <time>2020-08-08T15:14:20.000Z</time>
      </trkpt>
      <trkpt lat="42.26954198442399501800537109375" lon="2.59843491017818450927734375">
        <ele>313.399993896484375</ele>
        <time>2020-08-08T15:14:21.000Z</time>
      </trkpt>
      <trkpt lat="42.2694034315645694732666015625" lon="2.5985356606543064117431640625">
        <ele>311.79998779296875</ele>
        <time>2020-08-08T15:14:23.000Z</time>
      </trkpt>
      <trkpt lat="42.2693350352346897125244140625" lon="2.59860011748969554901123046875">
        <ele>310.79998779296875</ele>
        <time>2020-08-08T15:14:24.000Z</time>
      </trkpt>
      <trkpt lat="42.2692679800093173980712890625" lon="2.5986694358289241790771484375">
        <ele>310</ele>
        <time>2020-08-08T15:14:25.000Z</time>
      </trkpt>
      <trkpt lat="42.2692069597542285919189453125" lon="2.59874009527266025543212890625">
        <ele>308.600006103515625</ele>
        <time>2020-08-08T15:14:26.000Z</time>
      </trkpt>
      <trkpt lat="42.2691556625068187713623046875" lon="2.5988125987350940704345703125">
        <ele>307.600006103515625</ele>
        <time>2020-08-08T15:14:27.000Z</time>
      </trkpt>
      <trkpt lat="42.26911501027643680572509765625" lon="2.5988875329494476318359375">
        <ele>306.399993896484375</ele>
        <time>2020-08-08T15:14:28.000Z</time>
      </trkpt>
      <trkpt lat="42.26908206939697265625" lon="2.5989651493728160858154296875">
        <ele>305.79998779296875</ele>
        <time>2020-08-08T15:14:29.000Z</time>
      </trkpt>
      <trkpt lat="42.26905365474522113800048828125" lon="2.59904100559651851654052734375">
        <ele>305</ele>
        <time>2020-08-08T15:14:30.000Z</time>
      </trkpt>
      <trkpt lat="42.26900973357260227203369140625" lon="2.599164806306362152099609375">
        <ele>303.600006103515625</ele>
        <time>2020-08-08T15:14:32.000Z</time>
      </trkpt>
      <trkpt lat="42.268983833491802215576171875" lon="2.59920227341353893280029296875">
        <ele>303</ele>
        <time>2020-08-08T15:14:33.000Z</time>
      </trkpt>
      <trkpt lat="42.268952317535877227783203125" lon="2.59921216405928134918212890625">
        <ele>302.399993896484375</ele>
        <time>2020-08-08T15:14:34.000Z</time>
      </trkpt>
      <trkpt lat="42.26892650127410888671875" lon="2.59918668307363986968994140625">
        <ele>302.20001220703125</ele>
        <time>2020-08-08T15:14:35.000Z</time>
      </trkpt>
      <trkpt lat="42.26892675273120403289794921875" lon="2.59906279854476451873779296875">
        <ele>301.20001220703125</ele>
        <time>2020-08-08T15:14:37.000Z</time>
      </trkpt>
      <trkpt lat="42.26897469721734523773193359375" lon="2.59891091845929622650146484375">
        <ele>299.79998779296875</ele>
        <time>2020-08-08T15:14:39.000Z</time>
      </trkpt>
      <trkpt lat="42.26899364031851291656494140625" lon="2.5988387502729892730712890625">
        <ele>299</ele>
        <time>2020-08-08T15:14:40.000Z</time>
      </trkpt>
      <trkpt lat="42.2690014354884624481201171875" lon="2.59877345524728298187255859375">
        <ele>298.20001220703125</ele>
        <time>2020-08-08T15:14:41.000Z</time>
      </trkpt>
      <trkpt lat="42.26894720457494258880615234375" lon="2.59868930093944072723388671875">
        <ele>296.79998779296875</ele>
        <time>2020-08-08T15:14:44.000Z</time>
      </trkpt>
      <trkpt lat="42.2688693366944789886474609375" lon="2.59878762066364288330078125">
        <ele>296.20001220703125</ele>
        <time>2020-08-08T15:14:47.000Z</time>
      </trkpt>
      <trkpt lat="42.26885064505040645599365234375" lon="2.59885107167065143585205078125">
        <ele>295.600006103515625</ele>
        <time>2020-08-08T15:14:48.000Z</time>
      </trkpt>
      <trkpt lat="42.2688187099993228912353515625" lon="2.5990147702395915985107421875">
        <ele>294.79998779296875</ele>
        <time>2020-08-08T15:14:50.000Z</time>
      </trkpt>
      <trkpt lat="42.2687990963459014892578125" lon="2.59910671971738338470458984375">
        <ele>294.20001220703125</ele>
        <time>2020-08-08T15:14:51.000Z</time>
      </trkpt>
      <trkpt lat="42.26874746382236480712890625" lon="2.59930520318448543548583984375">
        <ele>292.600006103515625</ele>
        <time>2020-08-08T15:14:53.000Z</time>
      </trkpt>
      <trkpt lat="42.26868853904306888580322265625" lon="2.59952078573405742645263671875">
        <ele>291.399993896484375</ele>
        <time>2020-08-08T15:14:55.000Z</time>
      </trkpt>
      <trkpt lat="42.2686550952494144439697265625" lon="2.59963494725525379180908203125">
        <ele>290.600006103515625</ele>
        <time>2020-08-08T15:14:56.000Z</time>
      </trkpt>
      <trkpt lat="42.2686222381889820098876953125" lon="2.5997473485767841339111328125">
        <ele>289.600006103515625</ele>
        <time>2020-08-08T15:14:57.000Z</time>
      </trkpt>
      <trkpt lat="42.2685575298964977264404296875" lon="2.5999545492231845855712890625">
        <ele>288</ele>
        <time>2020-08-08T15:14:59.000Z</time>
      </trkpt>
      <trkpt lat="42.26852190680801868438720703125" lon="2.6000470854341983795166015625">
        <ele>287.20001220703125</ele>
        <time>2020-08-08T15:15:00.000Z</time>
      </trkpt>
      <trkpt lat="42.2684797458350658416748046875" lon="2.60012872517108917236328125">
        <ele>286.399993896484375</ele>
        <time>2020-08-08T15:15:01.000Z</time>
      </trkpt>
      <trkpt lat="42.2683617286384105682373046875" lon="2.60026291944086551666259765625">
        <ele>285.20001220703125</ele>
        <time>2020-08-08T15:15:03.000Z</time>
      </trkpt>
      <trkpt lat="42.2682866267859935760498046875" lon="2.6003278791904449462890625">
        <ele>284</ele>
        <time>2020-08-08T15:15:04.000Z</time>
      </trkpt>
      <trkpt lat="42.2682132013142108917236328125" lon="2.60040608234703540802001953125">
        <ele>283</ele>
        <time>2020-08-08T15:15:05.000Z</time>
      </trkpt>
      <trkpt lat="42.26814589463174343109130859375" lon="2.60049945674836635589599609375">
        <ele>282</ele>
        <time>2020-08-08T15:15:06.000Z</time>
      </trkpt>
      <trkpt lat="42.26808537729084491729736328125" lon="2.60060506872832775115966796875">
        <ele>280.79998779296875</ele>
        <time>2020-08-08T15:15:07.000Z</time>
      </trkpt>
      <trkpt lat="42.26797222159802913665771484375" lon="2.600830458104610443115234375">
        <ele>279.399993896484375</ele>
        <time>2020-08-08T15:15:09.000Z</time>
      </trkpt>
      <trkpt lat="42.2678105346858501434326171875" lon="2.60118149220943450927734375">
        <ele>277.79998779296875</ele>
        <time>2020-08-08T15:15:12.000Z</time>
      </trkpt>
      <trkpt lat="42.26771808229386806488037109375" lon="2.6014257408678531646728515625">
        <ele>276.600006103515625</ele>
        <time>2020-08-08T15:15:14.000Z</time>
      </trkpt>
      <trkpt lat="42.2675580717623233795166015625" lon="2.6018964685499668121337890625">
        <ele>275.399993896484375</ele>
        <time>2020-08-08T15:15:18.000Z</time>
      </trkpt>
      <trkpt lat="42.26748556829988956451416015625" lon="2.602112554013729095458984375">
        <ele>274.600006103515625</ele>
        <time>2020-08-08T15:15:20.000Z</time>
      </trkpt>
      <trkpt lat="42.26744751445949077606201171875" lon="2.60221405886113643646240234375">
        <ele>274.399993896484375</ele>
        <time>2020-08-08T15:15:21.000Z</time>
      </trkpt>
      <trkpt lat="42.26735615171492099761962890625" lon="2.60239963419735431671142578125">
        <ele>274.399993896484375</ele>
        <time>2020-08-08T15:15:23.000Z</time>
      </trkpt>
      <trkpt lat="42.26729731075465679168701171875" lon="2.602475322782993316650390625">
        <ele>274.20001220703125</ele>
        <time>2020-08-08T15:15:24.000Z</time>
      </trkpt>
      <trkpt lat="42.2670296765863895416259765625" lon="2.60267958976328372955322265625">
        <ele>274.399993896484375</ele>
        <time>2020-08-08T15:15:28.000Z</time>
      </trkpt>
      <trkpt lat="42.266662381589412689208984375" lon="2.60290942154824733734130859375">
        <ele>274.399993896484375</ele>
        <time>2020-08-08T15:15:34.000Z</time>
      </trkpt>
      <trkpt lat="42.266272120177745819091796875" lon="2.603059373795986175537109375">
        <ele>273.399993896484375</ele>
        <time>2020-08-08T15:15:41.000Z</time>
      </trkpt>
      <trkpt lat="42.2659423761069774627685546875" lon="2.60319180786609649658203125">
        <ele>273.399993896484375</ele>
        <time>2020-08-08T15:15:48.000Z</time>
      </trkpt>
      <trkpt lat="42.26561321876943111419677734375" lon="2.60330119170248508453369140625">
        <ele>273.399993896484375</ele>
        <time>2020-08-08T15:15:56.000Z</time>
      </trkpt>
      <trkpt lat="42.26532228291034698486328125" lon="2.60342390276491641998291015625">
        <ele>272.600006103515625</ele>
        <time>2020-08-08T15:16:02.000Z</time>
      </trkpt>
      <trkpt lat="42.2650253959000110626220703125" lon="2.6035855896770954132080078125">
        <ele>271.20001220703125</ele>
        <time>2020-08-08T15:16:07.000Z</time>
      </trkpt>
      <trkpt lat="42.26496479474008083343505859375" lon="2.60362305678427219390869140625">
        <ele>270.79998779296875</ele>
        <time>2020-08-08T15:16:08.000Z</time>
      </trkpt>
      <trkpt lat="42.2648466937243938446044921875" lon="2.6036995835602283477783203125">
        <ele>270</ele>
        <time>2020-08-08T15:16:10.000Z</time>
      </trkpt>
      <trkpt lat="42.2645938955247402191162109375" lon="2.60390670038759708404541015625">
        <ele>269.600006103515625</ele>
        <time>2020-08-08T15:16:15.000Z</time>
      </trkpt>
      <trkpt lat="42.26427747868001461029052734375" lon="2.60413519106805324554443359375">
        <ele>270</ele>
        <time>2020-08-08T15:16:22.000Z</time>
      </trkpt>
      <trkpt lat="42.264144457876682281494140625" lon="2.6041994802653789520263671875">
        <ele>269.79998779296875</ele>
        <time>2020-08-08T15:16:25.000Z</time>
      </trkpt>
      <trkpt lat="42.26397606544196605682373046875" lon="2.60429017245769500732421875">
        <ele>269.399993896484375</ele>
        <time>2020-08-08T15:16:29.000Z</time>
      </trkpt>
      <trkpt lat="42.2638884745538234710693359375" lon="2.6043342612683773040771484375">
        <ele>269.399993896484375</ele>
        <time>2020-08-08T15:16:31.000Z</time>
      </trkpt>
      <trkpt lat="42.26384296081960201263427734375" lon="2.6043476723134517669677734375">
        <ele>269.20001220703125</ele>
        <time>2020-08-08T15:16:32.000Z</time>
      </trkpt>
      <trkpt lat="42.26371371187269687652587890625" lon="2.60437977500259876251220703125">
        <ele>269.20001220703125</ele>
        <time>2020-08-08T15:16:35.000Z</time>
      </trkpt>
      <trkpt lat="42.26343777962028980255126953125" lon="2.60445303283631801605224609375">
        <ele>269.399993896484375</ele>
        <time>2020-08-08T15:16:43.000Z</time>
      </trkpt>
      <trkpt lat="42.2631827183067798614501953125" lon="2.60455545969307422637939453125">
        <ele>270.399993896484375</ele>
        <time>2020-08-08T15:16:52.000Z</time>
      </trkpt>
      <trkpt lat="42.26315329782664775848388671875" lon="2.60456451214849948883056640625">
        <ele>270.399993896484375</ele>
        <time>2020-08-08T15:16:53.000Z</time>
      </trkpt>
      <trkpt lat="42.26294358260929584503173828125" lon="2.60461966507136821746826171875">
        <ele>271.399993896484375</ele>
        <time>2020-08-08T15:17:00.000Z</time>
      </trkpt>
      <trkpt lat="42.2627978213131427764892578125" lon="2.604637183248996734619140625">
        <ele>271.79998779296875</ele>
        <time>2020-08-08T15:17:05.000Z</time>
      </trkpt>
      <trkpt lat="42.26268298923969268798828125" lon="2.60465738363564014434814453125">
        <ele>271.79998779296875</ele>
        <time>2020-08-08T15:17:09.000Z</time>
      </trkpt>
      <trkpt lat="42.2624449431896209716796875" lon="2.60466677136719226837158203125">
        <ele>272.79998779296875</ele>
        <time>2020-08-08T15:17:17.000Z</time>
      </trkpt>
      <trkpt lat="42.262384928762912750244140625" lon="2.60467045940458774566650390625">
        <ele>273</ele>
        <time>2020-08-08T15:17:19.000Z</time>
      </trkpt>
      <trkpt lat="42.2621874511241912841796875" lon="2.60466794483363628387451171875">
        <ele>273.79998779296875</ele>
        <time>2020-08-08T15:17:26.000Z</time>
      </trkpt>
      <trkpt lat="42.2620142810046672821044921875" lon="2.604660652577877044677734375">
        <ele>274</ele>
        <time>2020-08-08T15:17:32.000Z</time>
      </trkpt>
      <trkpt lat="42.26196055300533771514892578125" lon="2.60465419851243495941162109375">
        <ele>274.399993896484375</ele>
        <time>2020-08-08T15:17:34.000Z</time>
      </trkpt>
      <trkpt lat="42.26177481003105640411376953125" lon="2.604635842144489288330078125">
        <ele>275.399993896484375</ele>
        <time>2020-08-08T15:17:41.000Z</time>
      </trkpt>
      <trkpt lat="42.261748574674129486083984375" lon="2.60463693179190158843994140625">
        <ele>275.399993896484375</ele>
        <time>2020-08-08T15:17:42.000Z</time>
      </trkpt>
      <trkpt lat="42.261489741504192352294921875" lon="2.60468454100191593170166015625">
        <ele>276.20001220703125</ele>
        <time>2020-08-08T15:17:52.000Z</time>
      </trkpt>
      <trkpt lat="42.261465601623058319091796875" lon="2.60469040833413600921630859375">
        <ele>276.399993896484375</ele>
        <time>2020-08-08T15:17:53.000Z</time>
      </trkpt>
      <trkpt lat="42.26131665520370006561279296875" lon="2.6047835312783718109130859375">
        <ele>276.79998779296875</ele>
        <time>2020-08-08T15:18:00.000Z</time>
      </trkpt>
      <trkpt lat="42.26115002296864986419677734375" lon="2.60489366948604583740234375">
        <ele>276.79998779296875</ele>
        <time>2020-08-08T15:18:07.000Z</time>
      </trkpt>
      <trkpt lat="42.26094298996031284332275390625" lon="2.60498545132577419281005859375">
        <ele>277.20001220703125</ele>
        <time>2020-08-08T15:18:14.000Z</time>
      </trkpt>
      <trkpt lat="42.26066806353628635406494140625" lon="2.60502719320356845855712890625">
        <ele>277</ele>
        <time>2020-08-08T15:18:22.000Z</time>
      </trkpt>
      <trkpt lat="42.2604324482381343841552734375" lon="2.60500506497919559478759765625">
        <ele>276.399993896484375</ele>
        <time>2020-08-08T15:18:28.000Z</time>
      </trkpt>
      <trkpt lat="42.260392047464847564697265625" lon="2.60498796589672565460205078125">
        <ele>276.20001220703125</ele>
        <time>2020-08-08T15:18:29.000Z</time>
      </trkpt>
      <trkpt lat="42.26023807190358638763427734375" lon="2.60487615130841732025146484375">
        <ele>275.600006103515625</ele>
        <time>2020-08-08T15:18:33.000Z</time>
      </trkpt>
      <trkpt lat="42.26000689901411533355712890625" lon="2.60463978163897991180419921875">
        <ele>275</ele>
        <time>2020-08-08T15:18:39.000Z</time>
      </trkpt>
      <trkpt lat="42.259775809943675994873046875" lon="2.60434775613248348236083984375">
        <ele>274.79998779296875</ele>
        <time>2020-08-08T15:18:45.000Z</time>
      </trkpt>
      <trkpt lat="42.25971168838441371917724609375" lon="2.6042283140122890472412109375">
        <ele>275</ele>
        <time>2020-08-08T15:18:47.000Z</time>
      </trkpt>
      <trkpt lat="42.25946760736405849456787109375" lon="2.60370670817792415618896484375">
        <ele>274.600006103515625</ele>
        <time>2020-08-08T15:18:55.000Z</time>
      </trkpt>
      <trkpt lat="42.2591832093894481658935546875" lon="2.60315702296793460845947265625">
        <ele>274.20001220703125</ele>
        <time>2020-08-08T15:19:04.000Z</time>
      </trkpt>
      <trkpt lat="42.25895337760448455810546875" lon="2.602673135697841644287109375">
        <ele>273.79998779296875</ele>
        <time>2020-08-08T15:19:13.000Z</time>
      </trkpt>
      <trkpt lat="42.2589004039764404296875" lon="2.60257950983941555023193359375">
        <ele>273.399993896484375</ele>
        <time>2020-08-08T15:19:15.000Z</time>
      </trkpt>
      <trkpt lat="42.2587488591670989990234375" lon="2.6023826189339160919189453125">
        <ele>273.20001220703125</ele>
        <time>2020-08-08T15:19:20.000Z</time>
      </trkpt>
      <trkpt lat="42.2584958933293819427490234375" lon="2.60208598338067531585693359375">
        <ele>272.600006103515625</ele>
        <time>2020-08-08T15:19:28.000Z</time>
      </trkpt>
      <trkpt lat="42.25846529938280582427978515625" lon="2.60205010883510112762451171875">
        <ele>272.600006103515625</ele>
        <time>2020-08-08T15:19:29.000Z</time>
      </trkpt>
      <trkpt lat="42.25824435241520404815673828125" lon="2.60173327289521694183349609375">
        <ele>272.399993896484375</ele>
        <time>2020-08-08T15:19:37.000Z</time>
      </trkpt>
      <trkpt lat="42.2580868564546108245849609375" lon="2.60152607224881649017333984375">
        <ele>272</ele>
        <time>2020-08-08T15:19:42.000Z</time>
      </trkpt>
      <trkpt lat="42.25804888643324375152587890625" lon="2.60149204172194004058837890625">
        <ele>272</ele>
        <time>2020-08-08T15:19:43.000Z</time>
      </trkpt>
      <trkpt lat="42.25792114622890949249267578125" lon="2.601417861878871917724609375">
        <ele>272</ele>
        <time>2020-08-08T15:19:46.000Z</time>
      </trkpt>
      <trkpt lat="42.25779122672975063323974609375" lon="2.601359188556671142578125">
        <ele>271.600006103515625</ele>
        <time>2020-08-08T15:19:49.000Z</time>
      </trkpt>
      <trkpt lat="42.2577026300132274627685546875" lon="2.6013363897800445556640625">
        <ele>271.399993896484375</ele>
        <time>2020-08-08T15:19:51.000Z</time>
      </trkpt>
      <trkpt lat="42.25756709463894367218017578125" lon="2.6013435982167720794677734375">
        <ele>271.399993896484375</ele>
        <time>2020-08-08T15:19:54.000Z</time>
      </trkpt>
      <trkpt lat="42.257243804633617401123046875" lon="2.6013928838074207305908203125">
        <ele>271.399993896484375</ele>
        <time>2020-08-08T15:20:02.000Z</time>
      </trkpt>
      <trkpt lat="42.2569358535110950469970703125" lon="2.6013804785907268524169921875">
        <ele>271.79998779296875</ele>
        <time>2020-08-08T15:20:11.000Z</time>
      </trkpt>
      <trkpt lat="42.25675639696419239044189453125" lon="2.60143822990357875823974609375">
        <ele>271.79998779296875</ele>
        <time>2020-08-08T15:20:16.000Z</time>
      </trkpt>
      <trkpt lat="42.256539054214954376220703125" lon="2.60158642195165157318115234375">
        <ele>272</ele>
        <time>2020-08-08T15:20:23.000Z</time>
      </trkpt>
      <trkpt lat="42.2562535665929317474365234375" lon="2.60180108249187469482421875">
        <ele>272.20001220703125</ele>
        <time>2020-08-08T15:20:33.000Z</time>
      </trkpt>
      <trkpt lat="42.2560222260653972625732421875" lon="2.601960338652133941650390625">
        <ele>272.20001220703125</ele>
        <time>2020-08-08T15:20:41.000Z</time>
      </trkpt>
      <trkpt lat="42.2557888738811016082763671875" lon="2.602025382220745086669921875">
        <ele>272.79998779296875</ele>
        <time>2020-08-08T15:20:49.000Z</time>
      </trkpt>
      <trkpt lat="42.25571033544838428497314453125" lon="2.6020285673439502716064453125">
        <ele>273</ele>
        <time>2020-08-08T15:20:52.000Z</time>
      </trkpt>
      <trkpt lat="42.25550766102969646453857421875" lon="2.60202244855463504791259765625">
        <ele>273.600006103515625</ele>
        <time>2020-08-08T15:20:59.000Z</time>
      </trkpt>
      <trkpt lat="42.25533817894756793975830078125" lon="2.6020034216344356536865234375">
        <ele>273.600006103515625</ele>
        <time>2020-08-08T15:21:05.000Z</time>
      </trkpt>
      <trkpt lat="42.25506308488547801971435546875" lon="2.601871155202388763427734375">
        <ele>273.600006103515625</ele>
        <time>2020-08-08T15:21:15.000Z</time>
      </trkpt>
      <trkpt lat="42.2548688761889934539794921875" lon="2.6016984879970550537109375">
        <ele>273.20001220703125</ele>
        <time>2020-08-08T15:21:22.000Z</time>
      </trkpt>
      <trkpt lat="42.25484155118465423583984375" lon="2.60165850631892681121826171875">
        <ele>273</ele>
        <time>2020-08-08T15:21:23.000Z</time>
      </trkpt>
      <trkpt lat="42.254756055772304534912109375" lon="2.60143839754164218902587890625">
        <ele>272.20001220703125</ele>
        <time>2020-08-08T15:21:27.000Z</time>
      </trkpt>
      <trkpt lat="42.2547404654324054718017578125" lon="2.60137368924915790557861328125">
        <ele>272</ele>
        <time>2020-08-08T15:21:28.000Z</time>
      </trkpt>
      <trkpt lat="42.2546975500881671905517578125" lon="2.60124561376869678497314453125">
        <ele>271.79998779296875</ele>
        <time>2020-08-08T15:21:30.000Z</time>
      </trkpt>
      <trkpt lat="42.25462622009217739105224609375" lon="2.60114318691194057464599609375">
        <ele>271.20001220703125</ele>
        <time>2020-08-08T15:21:32.000Z</time>
      </trkpt>
      <trkpt lat="42.25445237942039966583251953125" lon="2.60105752386152744293212890625">
        <ele>271.20001220703125</ele>
        <time>2020-08-08T15:21:36.000Z</time>
      </trkpt>
      <trkpt lat="42.25437627173960208892822265625" lon="2.601058781147003173828125">
        <ele>271.399993896484375</ele>
        <time>2020-08-08T15:21:38.000Z</time>
      </trkpt>
      <trkpt lat="42.2542449273169040679931640625" lon="2.601053752005100250244140625">
        <ele>272.20001220703125</ele>
        <time>2020-08-08T15:21:42.000Z</time>
      </trkpt>
      <trkpt lat="42.254063375294208526611328125" lon="2.60096280835568904876708984375">
        <ele>272.600006103515625</ele>
        <time>2020-08-08T15:21:48.000Z</time>
      </trkpt>
      <trkpt lat="42.25373052991926670074462890625" lon="2.60074974037706851959228515625">
        <ele>272</ele>
        <time>2020-08-08T15:21:58.000Z</time>
      </trkpt>
      <trkpt lat="42.2534047253429889678955078125" lon="2.6005446352064609527587890625">
        <ele>271.79998779296875</ele>
        <time>2020-08-08T15:22:07.000Z</time>
      </trkpt>
      <trkpt lat="42.2533678449690341949462890625" lon="2.60052393190562725067138671875">
        <ele>271.600006103515625</ele>
        <time>2020-08-08T15:22:08.000Z</time>
      </trkpt>
      <trkpt lat="42.25310523994266986846923828125" lon="2.60039652697741985321044921875">
        <ele>271.399993896484375</ele>
        <time>2020-08-08T15:22:15.000Z</time>
      </trkpt>
      <trkpt lat="42.25281648337841033935546875" lon="2.60027582757174968719482421875">
        <ele>270.600006103515625</ele>
        <time>2020-08-08T15:22:22.000Z</time>
      </trkpt>
      <trkpt lat="42.25273174233734607696533203125" lon="2.60024984367191791534423828125">
        <ele>270.399993896484375</ele>
        <time>2020-08-08T15:22:24.000Z</time>
      </trkpt>
      <trkpt lat="42.25248363800346851348876953125" lon="2.60025839321315288543701171875">
        <ele>270.20001220703125</ele>
        <time>2020-08-08T15:22:30.000Z</time>
      </trkpt>
      <trkpt lat="42.2521841526031494140625" lon="2.60031337849795818328857421875">
        <ele>270.79998779296875</ele>
        <time>2020-08-08T15:22:38.000Z</time>
      </trkpt>
      <trkpt lat="42.2519087232649326324462890625" lon="2.60035159997642040252685546875">
        <ele>271.399993896484375</ele>
        <time>2020-08-08T15:22:46.000Z</time>
      </trkpt>
      <trkpt lat="42.2516596131026744842529296875" lon="2.600401975214481353759765625">
        <ele>271.399993896484375</ele>
        <time>2020-08-08T15:22:53.000Z</time>
      </trkpt>
      <trkpt lat="42.25136817432940006256103515625" lon="2.6004420407116413116455078125">
        <ele>271.20001220703125</ele>
        <time>2020-08-08T15:23:01.000Z</time>
      </trkpt>
      <trkpt lat="42.25108503364026546478271484375" lon="2.60050331242382526397705078125">
        <ele>271.79998779296875</ele>
        <time>2020-08-08T15:23:09.000Z</time>
      </trkpt>
      <trkpt lat="42.25086542777717113494873046875" lon="2.600645385682582855224609375">
        <ele>271.399993896484375</ele>
        <time>2020-08-08T15:23:15.000Z</time>
      </trkpt>
      <trkpt lat="42.25060793571174144744873046875" lon="2.60087496601045131683349609375">
        <ele>270.399993896484375</ele>
        <time>2020-08-08T15:23:21.000Z</time>
      </trkpt>
      <trkpt lat="42.25052210502326488494873046875" lon="2.6009769737720489501953125">
        <ele>269.79998779296875</ele>
        <time>2020-08-08T15:23:23.000Z</time>
      </trkpt>
      <trkpt lat="42.25040073506534099578857421875" lon="2.60115894488990306854248046875">
        <ele>269.600006103515625</ele>
        <time>2020-08-08T15:23:26.000Z</time>
      </trkpt>
      <trkpt lat="42.25024826824665069580078125" lon="2.6014425046741962432861328125">
        <ele>268.600006103515625</ele>
        <time>2020-08-08T15:23:30.000Z</time>
      </trkpt>
      <trkpt lat="42.2501780278980731964111328125" lon="2.60160771198570728302001953125">
        <ele>268.20001220703125</ele>
        <time>2020-08-08T15:23:32.000Z</time>
      </trkpt>
      <trkpt lat="42.25011147558689117431640625" lon="2.601777277886867523193359375">
        <ele>267.399993896484375</ele>
        <time>2020-08-08T15:23:34.000Z</time>
      </trkpt>
      <trkpt lat="42.25007602013647556304931640625" lon="2.60186268948018550872802734375">
        <ele>267</ele>
        <time>2020-08-08T15:23:35.000Z</time>
      </trkpt>
      <trkpt lat="42.249962277710437774658203125" lon="2.6021184213459491729736328125">
        <ele>266.600006103515625</ele>
        <time>2020-08-08T15:23:38.000Z</time>
      </trkpt>
      <trkpt lat="42.24992263130843639373779296875" lon="2.60220953263342380523681640625">
        <ele>266.399993896484375</ele>
        <time>2020-08-08T15:23:39.000Z</time>
      </trkpt>
      <trkpt lat="42.2497634589672088623046875" lon="2.60257112793624401092529296875">
        <ele>265.399993896484375</ele>
        <time>2020-08-08T15:23:43.000Z</time>
      </trkpt>
      <trkpt lat="42.24972330965101718902587890625" lon="2.6026568748056888580322265625">
        <ele>265.20001220703125</ele>
        <time>2020-08-08T15:23:44.000Z</time>
      </trkpt>
      <trkpt lat="42.24948241375386714935302734375" lon="2.60313455946743488311767578125">
        <ele>264.399993896484375</ele>
        <time>2020-08-08T15:23:50.000Z</time>
      </trkpt>
      <trkpt lat="42.2493488900363445281982421875" lon="2.60341820307075977325439453125">
        <ele>264.20001220703125</ele>
        <time>2020-08-08T15:23:54.000Z</time>
      </trkpt>
      <trkpt lat="42.24931879900395870208740234375" lon="2.6034853421151638031005859375">
        <ele>264.20001220703125</ele>
        <time>2020-08-08T15:23:55.000Z</time>
      </trkpt>
      <trkpt lat="42.24909986369311809539794921875" lon="2.60390452109277248382568359375">
        <ele>263.79998779296875</ele>
        <time>2020-08-08T15:24:02.000Z</time>
      </trkpt>
      <trkpt lat="42.24901721812784671783447265625" lon="2.6039906032383441925048828125">
        <ele>264</ele>
        <time>2020-08-08T15:24:04.000Z</time>
      </trkpt>
      <trkpt lat="42.248930633068084716796875" lon="2.6040613465011119842529296875">
        <ele>263.600006103515625</ele>
        <time>2020-08-08T15:24:06.000Z</time>
      </trkpt>
      <trkpt lat="42.2488352470099925994873046875" lon="2.6041156612336635589599609375">
        <ele>263.399993896484375</ele>
        <time>2020-08-08T15:24:08.000Z</time>
      </trkpt>
      <trkpt lat="42.248725779354572296142578125" lon="2.60414910502731800079345703125">
        <ele>263.20001220703125</ele>
        <time>2020-08-08T15:24:10.000Z</time>
      </trkpt>
      <trkpt lat="42.24853374995291233062744140625" lon="2.60418154299259185791015625">
        <ele>262.399993896484375</ele>
        <time>2020-08-08T15:24:13.000Z</time>
      </trkpt>
      <trkpt lat="42.2483242861926555633544921875" lon="2.60421046055853366851806640625">
        <ele>260.79998779296875</ele>
        <time>2020-08-08T15:24:16.000Z</time>
      </trkpt>
      <trkpt lat="42.248260080814361572265625" lon="2.604209370911121368408203125">
        <ele>260.399993896484375</ele>
        <time>2020-08-08T15:24:17.000Z</time>
      </trkpt>
      <trkpt lat="42.24819998256862163543701171875" lon="2.60419738478958606719970703125">
        <ele>260</ele>
        <time>2020-08-08T15:24:18.000Z</time>
      </trkpt>
      <trkpt lat="42.248145751655101776123046875" lon="2.60417483747005462646484375">
        <ele>259.600006103515625</ele>
        <time>2020-08-08T15:24:19.000Z</time>
      </trkpt>
      <trkpt lat="42.24804860539734363555908203125" lon="2.60410644114017486572265625">
        <ele>258.600006103515625</ele>
        <time>2020-08-08T15:24:21.000Z</time>
      </trkpt>
      <trkpt lat="42.24800921045243740081787109375" lon="2.60406025685369968414306640625">
        <ele>258.20001220703125</ele>
        <time>2020-08-08T15:24:22.000Z</time>
      </trkpt>
      <trkpt lat="42.24794835783541202545166015625" lon="2.6039490289986133575439453125">
        <ele>257.399993896484375</ele>
        <time>2020-08-08T15:24:24.000Z</time>
      </trkpt>
      <trkpt lat="42.24791868589818477630615234375" lon="2.6038886792957782745361328125">
        <ele>257</ele>
        <time>2020-08-08T15:24:25.000Z</time>
      </trkpt>
      <trkpt lat="42.24786135368049144744873046875" lon="2.6037652976810932159423828125">
        <ele>256</ele>
        <time>2020-08-08T15:24:27.000Z</time>
      </trkpt>
      <trkpt lat="42.2477818094193935394287109375" lon="2.60358097963035106658935546875">
        <ele>254.8000030517578125</ele>
        <time>2020-08-08T15:24:30.000Z</time>
      </trkpt>
      <trkpt lat="42.2476849146187305450439453125" lon="2.6033911295235157012939453125">
        <ele>253.8000030517578125</ele>
        <time>2020-08-08T15:24:34.000Z</time>
      </trkpt>
      <trkpt lat="42.247611992061138153076171875" lon="2.60324553586542606353759765625">
        <ele>252.8000030517578125</ele>
        <time>2020-08-08T15:24:38.000Z</time>
      </trkpt>
      <trkpt lat="42.2475642152130603790283203125" lon="2.60316540487110614776611328125">
        <ele>252.399993896484375</ele>
        <time>2020-08-08T15:24:41.000Z</time>
      </trkpt>
      <trkpt lat="42.24748265929520130157470703125" lon="2.60304504074156284332275390625">
        <ele>251.600006103515625</ele>
        <time>2020-08-08T15:24:45.000Z</time>
      </trkpt>
      <trkpt lat="42.24743505008518695831298828125" lon="2.6029832661151885986328125">
        <ele>251.1999969482421875</ele>
        <time>2020-08-08T15:24:47.000Z</time>
      </trkpt>
      <trkpt lat="42.24734301678836345672607421875" lon="2.602876983582973480224609375">
        <ele>250.600006103515625</ele>
        <time>2020-08-08T15:24:52.000Z</time>
      </trkpt>
      <trkpt lat="42.2473389096558094024658203125" lon="2.60287002660334110260009765625">
        <ele>249.600006103515625</ele>
        <time>2020-08-08T15:24:58.000Z</time>
      </trkpt>
      <trkpt lat="42.2472782246768474578857421875" lon="2.60283113457262516021728515625">
        <ele>249.8000030517578125</ele>
        <time>2020-08-08T15:25:03.000Z</time>
      </trkpt>
      <trkpt lat="42.24716146476566791534423828125" lon="2.60273323394358158111572265625">
        <ele>249.600006103515625</ele>
        <time>2020-08-08T15:25:07.000Z</time>
      </trkpt>
      <trkpt lat="42.24712676368653774261474609375" lon="2.60270255617797374725341796875">
        <ele>249.399993896484375</ele>
        <time>2020-08-08T15:25:08.000Z</time>
      </trkpt>
      <trkpt lat="42.2470160387456417083740234375" lon="2.60258269496262073516845703125">
        <ele>248.399993896484375</ele>
        <time>2020-08-08T15:25:11.000Z</time>
      </trkpt>
      <trkpt lat="42.24693381227552890777587890625" lon="2.602480687201023101806640625">
        <ele>247.600006103515625</ele>
        <time>2020-08-08T15:25:13.000Z</time>
      </trkpt>
      <trkpt lat="42.24689106456935405731201171875" lon="2.60242142714560031890869140625">
        <ele>247.1999969482421875</ele>
        <time>2020-08-08T15:25:14.000Z</time>
      </trkpt>
      <trkpt lat="42.24674806930124759674072265625" lon="2.60222411714494228363037109375">
        <ele>246.399993896484375</ele>
        <time>2020-08-08T15:25:17.000Z</time>
      </trkpt>
      <trkpt lat="42.24669123999774456024169921875" lon="2.6021640188992023468017578125">
        <ele>246.1999969482421875</ele>
        <time>2020-08-08T15:25:18.000Z</time>
      </trkpt>
      <trkpt lat="42.24662854336202144622802734375" lon="2.60210995562374591827392578125">
        <ele>246</ele>
        <time>2020-08-08T15:25:19.000Z</time>
      </trkpt>
      <trkpt lat="42.24649359472095966339111328125" lon="2.6020191796123981475830078125">
        <ele>245.600006103515625</ele>
        <time>2020-08-08T15:25:21.000Z</time>
      </trkpt>
      <trkpt lat="42.24642083980143070220947265625" lon="2.601981796324253082275390625">
        <ele>245.1999969482421875</ele>
        <time>2020-08-08T15:25:22.000Z</time>
      </trkpt>
      <trkpt lat="42.2463444806635379791259765625" lon="2.60194483213126659393310546875">
        <ele>245</ele>
        <time>2020-08-08T15:25:23.000Z</time>
      </trkpt>
      <trkpt lat="42.24618530832231044769287109375" lon="2.601872496306896209716796875">
        <ele>243.8000030517578125</ele>
        <time>2020-08-08T15:25:25.000Z</time>
      </trkpt>
      <trkpt lat="42.24602085538208484649658203125" lon="2.60179982520639896392822265625">
        <ele>242.600006103515625</ele>
        <time>2020-08-08T15:25:27.000Z</time>
      </trkpt>
      <trkpt lat="42.2458630241453647613525390625" lon="2.601714916527271270751953125">
        <ele>242.1999969482421875</ele>
        <time>2020-08-08T15:25:29.000Z</time>
      </trkpt>
      <trkpt lat="42.24557996727526187896728515625" lon="2.60150796733796596527099609375">
        <ele>241.600006103515625</ele>
        <time>2020-08-08T15:25:33.000Z</time>
      </trkpt>
      <trkpt lat="42.2454536519944667816162109375" lon="2.60139598511159420013427734375">
        <ele>241.1999969482421875</ele>
        <time>2020-08-08T15:25:35.000Z</time>
      </trkpt>
      <trkpt lat="42.2449958324432373046875" lon="2.60099113918840885162353515625">
        <ele>241.399993896484375</ele>
        <time>2020-08-08T15:25:43.000Z</time>
      </trkpt>
      <trkpt lat="42.24465762265026569366455078125" lon="2.6006908155977725982666015625">
        <ele>241</ele>
        <time>2020-08-08T15:25:50.000Z</time>
      </trkpt>
      <trkpt lat="42.24440415389835834503173828125" lon="2.6004695333540439605712890625">
        <ele>240.600006103515625</ele>
        <time>2020-08-08T15:25:56.000Z</time>
      </trkpt>
      <trkpt lat="42.24423835985362529754638671875" lon="2.60032310150563716888427734375">
        <ele>240.1999969482421875</ele>
        <time>2020-08-08T15:26:00.000Z</time>
      </trkpt>
      <trkpt lat="42.2438483498990535736083984375" lon="2.59998631663620471954345703125">
        <ele>240.399993896484375</ele>
        <time>2020-08-08T15:26:10.000Z</time>
      </trkpt>
      <trkpt lat="42.2435087151825428009033203125" lon="2.59969831444323062896728515625">
        <ele>239.600006103515625</ele>
        <time>2020-08-08T15:26:19.000Z</time>
      </trkpt>
      <trkpt lat="42.24315290339291095733642578125" lon="2.59935549460351467132568359375">
        <ele>239.600006103515625</ele>
        <time>2020-08-08T15:26:29.000Z</time>
      </trkpt>
      <trkpt lat="42.242871187627315521240234375" lon="2.59898266755044460296630859375">
        <ele>239.600006103515625</ele>
        <time>2020-08-08T15:26:39.000Z</time>
      </trkpt>
      <trkpt lat="42.24256700836122035980224609375" lon="2.59852970950305461883544921875">
        <ele>240.1999969482421875</ele>
        <time>2020-08-08T15:26:51.000Z</time>
      </trkpt>
      <trkpt lat="42.24235964007675647735595703125" lon="2.5981980375945568084716796875">
        <ele>240.8000030517578125</ele>
        <time>2020-08-08T15:27:00.000Z</time>
      </trkpt>
      <trkpt lat="42.24233583547174930572509765625" lon="2.59816023521125316619873046875">
        <ele>240.8000030517578125</ele>
        <time>2020-08-08T15:27:01.000Z</time>
      </trkpt>
      <trkpt lat="42.24215931259095668792724609375" lon="2.59790643118321895599365234375">
        <ele>241</ele>
        <time>2020-08-08T15:27:08.000Z</time>
      </trkpt>
      <trkpt lat="42.2419664449989795684814453125" lon="2.59763234294950962066650390625">
        <ele>241.399993896484375</ele>
        <time>2020-08-08T15:27:16.000Z</time>
      </trkpt>
      <trkpt lat="42.24178682081401348114013671875" lon="2.59753771126270294189453125">
        <ele>242.1999969482421875</ele>
        <time>2020-08-08T15:27:22.000Z</time>
      </trkpt>
      <trkpt lat="42.24175966344773769378662109375" lon="2.5975331850349903106689453125">
        <ele>242.1999969482421875</ele>
        <time>2020-08-08T15:27:23.000Z</time>
      </trkpt>
      <trkpt lat="42.2416137345135211944580078125" lon="2.59756713174283504486083984375">
        <ele>243.1999969482421875</ele>
        <time>2020-08-08T15:27:29.000Z</time>
      </trkpt>
      <trkpt lat="42.2414615191519260406494140625" lon="2.59767274372279644012451171875">
        <ele>244.1999969482421875</ele>
        <time>2020-08-08T15:27:36.000Z</time>
      </trkpt>
      <trkpt lat="42.24133168347179889678955078125" lon="2.59782738983631134033203125">
        <ele>245</ele>
        <time>2020-08-08T15:27:43.000Z</time>
      </trkpt>
      <trkpt lat="42.24128809757530689239501953125" lon="2.5979050062596797943115234375">
        <ele>245.1999969482421875</ele>
        <time>2020-08-08T15:27:46.000Z</time>
      </trkpt>
      <trkpt lat="42.24125490523874759674072265625" lon="2.59798203594982624053955078125">
        <ele>246</ele>
        <time>2020-08-08T15:27:49.000Z</time>
      </trkpt>
      <trkpt lat="42.2412233054637908935546875" lon="2.5980659388005733489990234375">
        <ele>246.399993896484375</ele>
        <time>2020-08-08T15:27:52.000Z</time>
      </trkpt>
      <trkpt lat="42.241183407604694366455078125" lon="2.59818873368203639984130859375">
        <ele>246.600006103515625</ele>
        <time>2020-08-08T15:27:55.000Z</time>
      </trkpt>
      <trkpt lat="42.24113437347114086151123046875" lon="2.5983479060232639312744140625">
        <ele>247.399993896484375</ele>
        <time>2020-08-08T15:28:00.000Z</time>
      </trkpt>
      <trkpt lat="42.241110317409038543701171875" lon="2.598403394222259521484375">
        <ele>247.8000030517578125</ele>
        <time>2020-08-08T15:28:02.000Z</time>
      </trkpt>
      <trkpt lat="42.24102959968149662017822265625" lon="2.5985549390316009521484375">
        <ele>248.399993896484375</ele>
        <time>2020-08-08T15:28:08.000Z</time>
      </trkpt>
      <trkpt lat="42.24099674262106418609619140625" lon="2.598598189651966094970703125">
        <ele>248.600006103515625</ele>
        <time>2020-08-08T15:28:10.000Z</time>
      </trkpt>
      <trkpt lat="42.24088543094694614410400390625" lon="2.59873858653008937835693359375">
        <ele>249</ele>
        <time>2020-08-08T15:28:17.000Z</time>
      </trkpt>
      <trkpt lat="42.24085827358067035675048828125" lon="2.5987775623798370361328125">
        <ele>249.600006103515625</ele>
        <time>2020-08-08T15:28:19.000Z</time>
      </trkpt>
      <trkpt lat="42.24077562801539897918701171875" lon="2.5988759659230709075927734375">
        <ele>250</ele>
        <time>2020-08-08T15:28:24.000Z</time>
      </trkpt>
      <trkpt lat="42.24070656113326549530029296875" lon="2.598986439406871795654296875">
        <ele>251</ele>
        <time>2020-08-08T15:28:30.000Z</time>
      </trkpt>
      <trkpt lat="42.24059307016432285308837890625" lon="2.59913857094943523406982421875">
        <ele>251.399993896484375</ele>
        <time>2020-08-08T15:28:36.000Z</time>
      </trkpt>
      <trkpt lat="42.2405284456908702850341796875" lon="2.59919623844325542449951171875">
        <ele>252</ele>
        <time>2020-08-08T15:28:39.000Z</time>
      </trkpt>
      <trkpt lat="42.240454517304897308349609375" lon="2.59922507219016551971435546875">
        <ele>252.1999969482421875</ele>
        <time>2020-08-08T15:28:42.000Z</time>
      </trkpt>
      <trkpt lat="42.2403061576187610626220703125" lon="2.5992729328572750091552734375">
        <ele>253.1999969482421875</ele>
        <time>2020-08-08T15:28:48.000Z</time>
      </trkpt>
      <trkpt lat="42.2402488254010677337646484375" lon="2.59928919374942779541015625">
        <ele>253.399993896484375</ele>
        <time>2020-08-08T15:28:50.000Z</time>
      </trkpt>
      <trkpt lat="42.240094430744647979736328125" lon="2.5993242301046848297119140625">
        <ele>254.1999969482421875</ele>
        <time>2020-08-08T15:28:56.000Z</time>
      </trkpt>
      <trkpt lat="42.23990793339908123016357421875" lon="2.59936186484992504119873046875">
        <ele>255.600006103515625</ele>
        <time>2020-08-08T15:29:04.000Z</time>
      </trkpt>
      <trkpt lat="42.2398848831653594970703125" lon="2.59936706162989139556884765625">
        <ele>255.600006103515625</ele>
        <time>2020-08-08T15:29:05.000Z</time>
      </trkpt>
      <trkpt lat="42.23970442079007625579833984375" lon="2.59935465641319751739501953125">
        <ele>256.399993896484375</ele>
        <time>2020-08-08T15:29:13.000Z</time>
      </trkpt>
      <trkpt lat="42.23964281380176544189453125" lon="2.5993205420672893524169921875">
        <ele>256.79998779296875</ele>
        <time>2020-08-08T15:29:16.000Z</time>
      </trkpt>
      <trkpt lat="42.23957567475736141204833984375" lon="2.59923915378749370574951171875">
        <ele>257.399993896484375</ele>
        <time>2020-08-08T15:29:20.000Z</time>
      </trkpt>
      <trkpt lat="42.23955430090427398681640625" lon="2.5991535745561122894287109375">
        <ele>257.79998779296875</ele>
        <time>2020-08-08T15:29:23.000Z</time>
      </trkpt>
      <trkpt lat="42.23955002613365650177001953125" lon="2.59909213520586490631103515625">
        <ele>258</ele>
        <time>2020-08-08T15:29:25.000Z</time>
      </trkpt>
      <trkpt lat="42.239577434957027435302734375" lon="2.59894528426229953765869140625">
        <ele>259</ele>
        <time>2020-08-08T15:29:30.000Z</time>
      </trkpt>
      <trkpt lat="42.23960383795201778411865234375" lon="2.59889633394777774810791015625">
        <ele>259.399993896484375</ele>
        <time>2020-08-08T15:29:32.000Z</time>
      </trkpt>
      <trkpt lat="42.23969603888690471649169921875" lon="2.5987566076219081878662109375">
        <ele>260</ele>
        <time>2020-08-08T15:29:38.000Z</time>
      </trkpt>
      <trkpt lat="42.2397415526211261749267578125" lon="2.59868645109236240386962890625">
        <ele>260.20001220703125</ele>
        <time>2020-08-08T15:29:41.000Z</time>
      </trkpt>
      <trkpt lat="42.23982562310993671417236328125" lon="2.59854161180555820465087890625">
        <ele>261</ele>
        <time>2020-08-08T15:29:47.000Z</time>
      </trkpt>
      <trkpt lat="42.23988815210759639739990234375" lon="2.598455362021923065185546875">
        <ele>261.600006103515625</ele>
        <time>2020-08-08T15:29:51.000Z</time>
      </trkpt>
      <trkpt lat="42.2399430535733699798583984375" lon="2.59836324490606784820556640625">
        <ele>262.20001220703125</ele>
        <time>2020-08-08T15:29:55.000Z</time>
      </trkpt>
      <trkpt lat="42.2399953566491603851318359375" lon="2.59823248721659183502197265625">
        <ele>263</ele>
        <time>2020-08-08T15:30:00.000Z</time>
      </trkpt>
      <trkpt lat="42.2400074265897274017333984375" lon="2.59817800484597682952880859375">
        <ele>263.20001220703125</ele>
        <time>2020-08-08T15:30:02.000Z</time>
      </trkpt>
      <trkpt lat="42.24000600166618824005126953125" lon="2.59806468151509761810302734375">
        <ele>263.600006103515625</ele>
        <time>2020-08-08T15:30:06.000Z</time>
      </trkpt>
      <trkpt lat="42.239944227039813995361328125" lon="2.5979288108646869659423828125">
        <ele>264.399993896484375</ele>
        <time>2020-08-08T15:30:12.000Z</time>
      </trkpt>
      <trkpt lat="42.2399299778044223785400390625" lon="2.5979170762002468109130859375">
        <ele>264.600006103515625</ele>
        <time>2020-08-08T15:30:13.000Z</time>
      </trkpt>
      <trkpt lat="42.23981841467320919036865234375" lon="2.5978855602443218231201171875">
        <ele>265.20001220703125</ele>
        <time>2020-08-08T15:30:19.000Z</time>
      </trkpt>
      <trkpt lat="42.23979863338172435760498046875" lon="2.59788564406335353851318359375">
        <ele>265.399993896484375</ele>
        <time>2020-08-08T15:30:20.000Z</time>
      </trkpt>
      <trkpt lat="42.23968036472797393798828125" lon="2.59790718555450439453125">
        <ele>266</ele>
        <time>2020-08-08T15:30:26.000Z</time>
      </trkpt>
      <trkpt lat="42.23960031755268573760986328125" lon="2.59792688302695751190185546875">
        <ele>266.399993896484375</ele>
        <time>2020-08-08T15:30:30.000Z</time>
      </trkpt>
      <trkpt lat="42.23950509913265705108642578125" lon="2.5979683734476566314697265625">
        <ele>267.20001220703125</ele>
        <time>2020-08-08T15:30:35.000Z</time>
      </trkpt>
      <trkpt lat="42.2394471801817417144775390625" lon="2.59799444116652011871337890625">
        <ele>267.600006103515625</ele>
        <time>2020-08-08T15:30:38.000Z</time>
      </trkpt>
      <trkpt lat="42.23934131674468517303466796875" lon="2.59803794324398040771484375">
        <ele>268.20001220703125</ele>
        <time>2020-08-08T15:30:44.000Z</time>
      </trkpt>
      <trkpt lat="42.23926730453968048095703125" lon="2.598058395087718963623046875">
        <ele>268.600006103515625</ele>
        <time>2020-08-08T15:30:48.000Z</time>
      </trkpt>
      <trkpt lat="42.23919228650629520416259765625" lon="2.59808714501559734344482421875">
        <ele>269.399993896484375</ele>
        <time>2020-08-08T15:30:52.000Z</time>
      </trkpt>
      <trkpt lat="42.23911182023584842681884765625" lon="2.59812251664698123931884765625">
        <ele>269.79998779296875</ele>
        <time>2020-08-08T15:30:57.000Z</time>
      </trkpt>
      <trkpt lat="42.23907150328159332275390625" lon="2.59813542477786540985107421875">
        <ele>270.399993896484375</ele>
        <time>2020-08-08T15:30:59.000Z</time>
      </trkpt>
      <trkpt lat="42.2389724291861057281494140625" lon="2.59816844947636127471923828125">
        <ele>271</ele>
        <time>2020-08-08T15:31:04.000Z</time>
      </trkpt>
      <trkpt lat="42.23891467787325382232666015625" lon="2.59818688966333866119384765625">
        <ele>271.399993896484375</ele>
        <time>2020-08-08T15:31:07.000Z</time>
      </trkpt>
      <trkpt lat="42.23883924074470996856689453125" lon="2.59820633567869663238525390625">
        <ele>272</ele>
        <time>2020-08-08T15:31:11.000Z</time>
      </trkpt>
      <trkpt lat="42.23878727294504642486572265625" lon="2.5982277095317840576171875">
        <ele>272.399993896484375</ele>
        <time>2020-08-08T15:31:14.000Z</time>
      </trkpt>
      <trkpt lat="42.2386535815894603729248046875" lon="2.5982733070850372314453125">
        <ele>273.20001220703125</ele>
        <time>2020-08-08T15:31:22.000Z</time>
      </trkpt>
      <trkpt lat="42.2385432757437229156494140625" lon="2.59831898845732212066650390625">
        <ele>274</ele>
        <time>2020-08-08T15:31:28.000Z</time>
      </trkpt>
      <trkpt lat="42.23848418332636356353759765625" lon="2.59835368953645229339599609375">
        <ele>274.20001220703125</ele>
        <time>2020-08-08T15:31:31.000Z</time>
      </trkpt>
      <trkpt lat="42.23840790800750255584716796875" lon="2.5983941741287708282470703125">
        <ele>274.600006103515625</ele>
        <time>2020-08-08T15:31:35.000Z</time>
      </trkpt>
      <trkpt lat="42.2383184731006622314453125" lon="2.5984489917755126953125">
        <ele>275.20001220703125</ele>
        <time>2020-08-08T15:31:40.000Z</time>
      </trkpt>
      <trkpt lat="42.23826684057712554931640625" lon="2.598480843007564544677734375">
        <ele>275.79998779296875</ele>
        <time>2020-08-08T15:31:43.000Z</time>
      </trkpt>
      <trkpt lat="42.23821361549198627471923828125" lon="2.5985173881053924560546875">
        <ele>276.399993896484375</ele>
        <time>2020-08-08T15:31:46.000Z</time>
      </trkpt>
      <trkpt lat="42.2381214983761310577392578125" lon="2.59857664816081523895263671875">
        <ele>277.20001220703125</ele>
        <time>2020-08-08T15:31:51.000Z</time>
      </trkpt>
      <trkpt lat="42.23804891109466552734375" lon="2.598625682294368743896484375">
        <ele>277.600006103515625</ele>
        <time>2020-08-08T15:31:55.000Z</time>
      </trkpt>
      <trkpt lat="42.23797808401286602020263671875" lon="2.59868209250271320343017578125">
        <ele>278.20001220703125</ele>
        <time>2020-08-08T15:31:59.000Z</time>
      </trkpt>
      <trkpt lat="42.23794288001954555511474609375" lon="2.59870606474578380584716796875">
        <ele>278.79998779296875</ele>
        <time>2020-08-08T15:32:01.000Z</time>
      </trkpt>
      <trkpt lat="42.2378133796155452728271484375" lon="2.5987856090068817138671875">
        <ele>279.20001220703125</ele>
        <time>2020-08-08T15:32:08.000Z</time>
      </trkpt>
      <trkpt lat="42.23773249424993991851806640625" lon="2.59880480356514453887939453125">
        <ele>280</ele>
        <time>2020-08-08T15:32:12.000Z</time>
      </trkpt>
      <trkpt lat="42.2376692108809947967529296875" lon="2.5988070666790008544921875">
        <ele>280.399993896484375</ele>
        <time>2020-08-08T15:32:15.000Z</time>
      </trkpt>
      <trkpt lat="42.23758681677281856536865234375" lon="2.598771192133426666259765625">
        <ele>281.20001220703125</ele>
        <time>2020-08-08T15:32:19.000Z</time>
      </trkpt>
      <trkpt lat="42.237534262239933013916015625" lon="2.59872869588434696197509765625">
        <ele>281.79998779296875</ele>
        <time>2020-08-08T15:32:22.000Z</time>
      </trkpt>
      <trkpt lat="42.23750886507332324981689453125" lon="2.59869064204394817352294921875">
        <ele>282.399993896484375</ele>
        <time>2020-08-08T15:32:24.000Z</time>
      </trkpt>
      <trkpt lat="42.23745740018784999847412109375" lon="2.5985832698643207550048828125">
        <ele>283.20001220703125</ele>
        <time>2020-08-08T15:32:29.000Z</time>
      </trkpt>
      <trkpt lat="42.23745220340788364410400390625" lon="2.59853289462625980377197265625">
        <ele>283.399993896484375</ele>
        <time>2020-08-08T15:32:31.000Z</time>
      </trkpt>
      <trkpt lat="42.23745589144527912139892578125" lon="2.598390318453311920166015625">
        <ele>284.20001220703125</ele>
        <time>2020-08-08T15:32:37.000Z</time>
      </trkpt>
      <trkpt lat="42.23745756782591342926025390625" lon="2.59834639728069305419921875">
        <ele>284.399993896484375</ele>
        <time>2020-08-08T15:32:39.000Z</time>
      </trkpt>
      <trkpt lat="42.23747097887098789215087890625" lon="2.5982007198035717010498046875">
        <ele>285.399993896484375</ele>
        <time>2020-08-08T15:32:45.000Z</time>
      </trkpt>
      <trkpt lat="42.23747533746063709259033203125" lon="2.59817616082727909088134765625">
        <ele>285.600006103515625</ele>
        <time>2020-08-08T15:32:46.000Z</time>
      </trkpt>
      <trkpt lat="42.237507440149784088134765625" lon="2.59799209423363208770751953125">
        <ele>286.20001220703125</ele>
        <time>2020-08-08T15:32:53.000Z</time>
      </trkpt>
      <trkpt lat="42.23754423670470714569091796875" lon="2.5978144817054271697998046875">
        <ele>286.79998779296875</ele>
        <time>2020-08-08T15:32:59.000Z</time>
      </trkpt>
      <trkpt lat="42.23754943348467350006103515625" lon="2.597783468663692474365234375">
        <ele>286.79998779296875</ele>
        <time>2020-08-08T15:33:00.000Z</time>
      </trkpt>
      <trkpt lat="42.2376165725290775299072265625" lon="2.59738348424434661865234375">
        <ele>287.79998779296875</ele>
        <time>2020-08-08T15:33:12.000Z</time>
      </trkpt>
      <trkpt lat="42.2376427240669727325439453125" lon="2.59721240960061550140380859375">
        <ele>287.79998779296875</ele>
        <time>2020-08-08T15:33:17.000Z</time>
      </trkpt>
      <trkpt lat="42.2376688756048679351806640625" lon="2.5970386527478694915771484375">
        <ele>288.399993896484375</ele>
        <time>2020-08-08T15:33:22.000Z</time>
      </trkpt>
      <trkpt lat="42.23773039877414703369140625" lon="2.5966478884220123291015625">
        <ele>288.600006103515625</ele>
        <time>2020-08-08T15:33:33.000Z</time>
      </trkpt>
      <trkpt lat="42.23773802630603313446044921875" lon="2.5965736247599124908447265625">
        <ele>288.79998779296875</ele>
        <time>2020-08-08T15:33:35.000Z</time>
      </trkpt>
      <trkpt lat="42.2377144731581211090087890625" lon="2.5963479839265346527099609375">
        <ele>289</ele>
        <time>2020-08-08T15:33:41.000Z</time>
      </trkpt>
      <trkpt lat="42.23761447705328464508056640625" lon="2.59615159593522548675537109375">
        <ele>289</ele>
        <time>2020-08-08T15:33:47.000Z</time>
      </trkpt>
      <trkpt lat="42.23745907656848430633544921875" lon="2.59605151601135730743408203125">
        <ele>289.20001220703125</ele>
        <time>2020-08-08T15:33:53.000Z</time>
      </trkpt>
      <trkpt lat="42.2373332642018795013427734375" lon="2.5960204191505908966064453125">
        <ele>289.399993896484375</ele>
        <time>2020-08-08T15:33:58.000Z</time>
      </trkpt>
      <trkpt lat="42.23732295446097850799560546875" lon="2.5959966145455837249755859375">
        <ele>289.399993896484375</ele>
        <time>2020-08-08T15:33:59.000Z</time>
      </trkpt>
      <trkpt lat="42.23738045431673526763916015625" lon="2.5959366001188755035400390625">
        <ele>289.20001220703125</ele>
        <time>2020-08-08T15:34:02.000Z</time>
      </trkpt>
      <trkpt lat="42.237563095986843109130859375" lon="2.59595914743840694427490234375">
        <ele>288.600006103515625</ele>
        <time>2020-08-08T15:34:07.000Z</time>
      </trkpt>
      <trkpt lat="42.23766007460653781890869140625" lon="2.59597423486411571502685546875">
        <ele>288.79998779296875</ele>
        <time>2020-08-08T15:34:10.000Z</time>
      </trkpt>
      <trkpt lat="42.2377650998532772064208984375" lon="2.5959961116313934326171875">
        <ele>288.79998779296875</ele>
        <time>2020-08-08T15:34:14.000Z</time>
      </trkpt>
      <trkpt lat="42.23794497549533843994140625" lon="2.59603559039533138275146484375">
        <ele>289.79998779296875</ele>
        <time>2020-08-08T15:34:22.000Z</time>
      </trkpt>
      <trkpt lat="42.23798428662121295928955078125" lon="2.5960646755993366241455078125">
        <ele>290</ele>
        <time>2020-08-08T15:34:24.000Z</time>
      </trkpt>
      <trkpt lat="42.2380282916128635406494140625" lon="2.5961173139512538909912109375">
        <ele>290.600006103515625</ele>
        <time>2020-08-08T15:34:27.000Z</time>
      </trkpt>
      <trkpt lat="42.2380665130913257598876953125" lon="2.5961783342063426971435546875">
        <ele>291.20001220703125</ele>
        <time>2020-08-08T15:34:30.000Z</time>
      </trkpt>
      <trkpt lat="42.23810993134975433349609375" lon="2.5962884724140167236328125">
        <ele>292</ele>
        <time>2020-08-08T15:34:35.000Z</time>
      </trkpt>
      <trkpt lat="42.23813784308731555938720703125" lon="2.59635753929615020751953125">
        <ele>292.399993896484375</ele>
        <time>2020-08-08T15:34:38.000Z</time>
      </trkpt>
      <trkpt lat="42.23819844424724578857421875" lon="2.59647279046475887298583984375">
        <ele>293.20001220703125</ele>
        <time>2020-08-08T15:34:43.000Z</time>
      </trkpt>
      <trkpt lat="42.23822551779448986053466796875" lon="2.596516795456409454345703125">
        <ele>293.600006103515625</ele>
        <time>2020-08-08T15:34:45.000Z</time>
      </trkpt>
      <trkpt lat="42.23834638483822345733642578125" lon="2.59672843851149082183837890625">
        <ele>294</ele>
        <time>2020-08-08T15:34:53.000Z</time>
      </trkpt>
      <trkpt lat="42.23844327963888645172119140625" lon="2.59685232304036617279052734375">
        <ele>293.20001220703125</ele>
        <time>2020-08-08T15:34:56.000Z</time>
      </trkpt>
      <trkpt lat="42.23849005065858364105224609375" lon="2.596893310546875">
        <ele>293</ele>
        <time>2020-08-08T15:34:57.000Z</time>
      </trkpt>
      <trkpt lat="42.23854436539113521575927734375" lon="2.59692457504570484161376953125">
        <ele>292.399993896484375</ele>
        <time>2020-08-08T15:34:58.000Z</time>
      </trkpt>
      <trkpt lat="42.2386602871119976043701171875" lon="2.596921138465404510498046875">
        <ele>292</ele>
        <time>2020-08-08T15:35:00.000Z</time>
      </trkpt>
      <trkpt lat="42.23879263736307621002197265625" lon="2.5968314521014690399169921875">
        <ele>291.600006103515625</ele>
        <time>2020-08-08T15:35:03.000Z</time>
      </trkpt>
      <trkpt lat="42.2388235665857791900634765625" lon="2.5968099944293498992919921875">
        <ele>291.79998779296875</ele>
        <time>2020-08-08T15:35:04.000Z</time>
      </trkpt>
      <trkpt lat="42.23891233094036579132080078125" lon="2.59673899970948696136474609375">
        <ele>292.79998779296875</ele>
        <time>2020-08-08T15:35:09.000Z</time>
      </trkpt>
      <trkpt lat="42.23896413110196590423583984375" lon="2.59671159088611602783203125">
        <ele>293.600006103515625</ele>
        <time>2020-08-08T15:35:12.000Z</time>
      </trkpt>
      <trkpt lat="42.2390238940715789794921875" lon="2.59669273160398006439208984375">
        <ele>294.20001220703125</ele>
        <time>2020-08-08T15:35:16.000Z</time>
      </trkpt>
      <trkpt lat="42.2390616126358509063720703125" lon="2.5966768898069858551025390625">
        <ele>294.600006103515625</ele>
        <time>2020-08-08T15:35:18.000Z</time>
      </trkpt>
      <trkpt lat="42.2391202859580516815185546875" lon="2.5966322980821132659912109375">
        <ele>295.399993896484375</ele>
        <time>2020-08-08T15:35:21.000Z</time>
      </trkpt>
      <trkpt lat="42.23915255628526210784912109375" lon="2.59661243297159671783447265625">
        <ele>295.79998779296875</ele>
        <time>2020-08-08T15:35:23.000Z</time>
      </trkpt>
      <trkpt lat="42.239256910979747772216796875" lon="2.596538923680782318115234375">
        <ele>296.600006103515625</ele>
        <time>2020-08-08T15:35:30.000Z</time>
      </trkpt>
      <trkpt lat="42.23928549326956272125244140625" lon="2.59651386179029941558837890625">
        <ele>297</ele>
        <time>2020-08-08T15:35:32.000Z</time>
      </trkpt>
      <trkpt lat="42.23935958929359912872314453125" lon="2.5964542664587497711181640625">
        <ele>297.79998779296875</ele>
        <time>2020-08-08T15:35:37.000Z</time>
      </trkpt>
      <trkpt lat="42.23936813883483409881591796875" lon="2.596449740231037139892578125">
        <ele>298</ele>
        <time>2020-08-08T15:35:39.000Z</time>
      </trkpt>
      <trkpt lat="42.23937149159610271453857421875" lon="2.5964368321001529693603515625">
        <ele>298.399993896484375</ele>
        <time>2020-08-08T15:35:41.000Z</time>
      </trkpt>
      <trkpt lat="42.23941055126488208770751953125" lon="2.59638561867177486419677734375">
        <ele>298.600006103515625</ele>
        <time>2020-08-08T15:35:46.000Z</time>
      </trkpt>
      <trkpt lat="42.2394431568682193756103515625" lon="2.59636734612286090850830078125">
        <ele>299.20001220703125</ele>
        <time>2020-08-08T15:35:49.000Z</time>
      </trkpt>
      <trkpt lat="42.23946469835937023162841796875" lon="2.59634354151785373687744140625">
        <ele>299.399993896484375</ele>
        <time>2020-08-08T15:35:51.000Z</time>
      </trkpt>
      <trkpt lat="42.2394850663840770721435546875" lon="2.59632091037929058074951171875">
        <ele>299.399993896484375</ele>
        <time>2020-08-08T15:35:53.000Z</time>
      </trkpt>
      <trkpt lat="42.23953359760344028472900390625" lon="2.5962857902050018310546875">
        <ele>300.20001220703125</ele>
        <time>2020-08-08T15:35:57.000Z</time>
      </trkpt>
      <trkpt lat="42.23957709968090057373046875" lon="2.5962536036968231201171875">
        <ele>300.79998779296875</ele>
        <time>2020-08-08T15:36:01.000Z</time>
      </trkpt>
      <trkpt lat="42.2396329231560230255126953125" lon="2.59623105637729167938232421875">
        <ele>301.20001220703125</ele>
        <time>2020-08-08T15:36:05.000Z</time>
      </trkpt>
      <trkpt lat="42.23967240191996097564697265625" lon="2.59619836695492267608642578125">
        <ele>301.79998779296875</ele>
        <time>2020-08-08T15:36:08.000Z</time>
      </trkpt>
      <trkpt lat="42.23970928229391574859619140625" lon="2.59616576135158538818359375">
        <ele>302.20001220703125</ele>
        <time>2020-08-08T15:36:11.000Z</time>
      </trkpt>
      <trkpt lat="42.23976560868322849273681640625" lon="2.59611119516193866729736328125">
        <ele>303.20001220703125</ele>
        <time>2020-08-08T15:36:16.000Z</time>
      </trkpt>
      <trkpt lat="42.2397764213383197784423828125" lon="2.5960998795926570892333984375">
        <ele>303.399993896484375</ele>
        <time>2020-08-08T15:36:17.000Z</time>
      </trkpt>
      <trkpt lat="42.239816486835479736328125" lon="2.596056796610355377197265625">
        <ele>304</ele>
        <time>2020-08-08T15:36:21.000Z</time>
      </trkpt>
      <trkpt lat="42.23983199335634708404541015625" lon="2.59603240527212619781494140625">
        <ele>304.20001220703125</ele>
        <time>2020-08-08T15:36:23.000Z</time>
      </trkpt>
      <trkpt lat="42.23985294811427593231201171875" lon="2.59600826539099216461181640625">
        <ele>304.399993896484375</ele>
        <time>2020-08-08T15:36:25.000Z</time>
      </trkpt>
      <trkpt lat="42.23990994505584239959716796875" lon="2.595954872667789459228515625">
        <ele>305</ele>
        <time>2020-08-08T15:36:30.000Z</time>
      </trkpt>
      <trkpt lat="42.23995017819106578826904296875" lon="2.59592863731086254119873046875">
        <ele>305.399993896484375</ele>
        <time>2020-08-08T15:36:33.000Z</time>
      </trkpt>
      <trkpt lat="42.239993512630462646484375" lon="2.59588119573891162872314453125">
        <ele>306</ele>
        <time>2020-08-08T15:36:37.000Z</time>
      </trkpt>
      <trkpt lat="42.24000357091426849365234375" lon="2.59587063454091548919677734375">
        <ele>306</ele>
        <time>2020-08-08T15:36:38.000Z</time>
      </trkpt>
      <trkpt lat="42.2400205023586750030517578125" lon="2.59584280662238597869873046875">
        <ele>306.600006103515625</ele>
        <time>2020-08-08T15:36:40.000Z</time>
      </trkpt>
      <trkpt lat="42.24004522897303104400634765625" lon="2.59580575861036777496337890625">
        <ele>307.20001220703125</ele>
        <time>2020-08-08T15:36:43.000Z</time>
      </trkpt>
      <trkpt lat="42.24005595780909061431884765625" lon="2.5958001427352428436279296875">
        <ele>307.399993896484375</ele>
        <time>2020-08-08T15:36:44.000Z</time>
      </trkpt>
      <trkpt lat="42.24012502469122409820556640625" lon="2.5957414694130420684814453125">
        <ele>308.600006103515625</ele>
        <time>2020-08-08T15:36:52.000Z</time>
      </trkpt>
      <trkpt lat="42.24016249179840087890625" lon="2.595701403915882110595703125">
        <ele>309.600006103515625</ele>
        <time>2020-08-08T15:36:57.000Z</time>
      </trkpt>
      <trkpt lat="42.2401740588247776031494140625" lon="2.59569277055561542510986328125">
        <ele>309.79998779296875</ele>
        <time>2020-08-08T15:36:58.000Z</time>
      </trkpt>
      <trkpt lat="42.2402146272361278533935546875" lon="2.59566460736095905303955078125">
        <ele>310.399993896484375</ele>
        <time>2020-08-08T15:37:02.000Z</time>
      </trkpt>
      <trkpt lat="42.240239940583705902099609375" lon="2.5956232845783233642578125">
        <ele>310.79998779296875</ele>
        <time>2020-08-08T15:37:05.000Z</time>
      </trkpt>
      <trkpt lat="42.24025678820908069610595703125" lon="2.5955951213836669921875">
        <ele>311.20001220703125</ele>
        <time>2020-08-08T15:37:07.000Z</time>
      </trkpt>
      <trkpt lat="42.24029400385916233062744140625" lon="2.5955342687666416168212890625">
        <ele>311.79998779296875</ele>
        <time>2020-08-08T15:37:11.000Z</time>
      </trkpt>
      <trkpt lat="42.2402981109917163848876953125" lon="2.595516331493854522705078125">
        <ele>312.20001220703125</ele>
        <time>2020-08-08T15:37:12.000Z</time>
      </trkpt>
      <trkpt lat="42.24030171521008014678955078125" lon="2.59549864567816257476806640625">
        <ele>312.399993896484375</ele>
        <time>2020-08-08T15:37:13.000Z</time>
      </trkpt>
      <trkpt lat="42.24032342433929443359375" lon="2.59545405395328998565673828125">
        <ele>313.20001220703125</ele>
        <time>2020-08-08T15:37:16.000Z</time>
      </trkpt>
      <trkpt lat="42.24034245125949382781982421875" lon="2.59540535509586334228515625">
        <ele>313.79998779296875</ele>
        <time>2020-08-08T15:37:19.000Z</time>
      </trkpt>
      <trkpt lat="42.24034865386784076690673828125" lon="2.59538884274661540985107421875">
        <ele>314</ele>
        <time>2020-08-08T15:37:20.000Z</time>
      </trkpt>
      <trkpt lat="42.24037899635732173919677734375" lon="2.59535028599202632904052734375">
        <ele>314.399993896484375</ele>
        <time>2020-08-08T15:37:23.000Z</time>
      </trkpt>
      <trkpt lat="42.2404184751212596893310546875" lon="2.5952637009322643280029296875">
        <ele>314.79998779296875</ele>
        <time>2020-08-08T15:37:27.000Z</time>
      </trkpt>
      <trkpt lat="42.24049097858369350433349609375" lon="2.595143504440784454345703125">
        <ele>315.20001220703125</ele>
        <time>2020-08-08T15:37:33.000Z</time>
      </trkpt>
      <trkpt lat="42.2405901364982128143310546875" lon="2.5949384830892086029052734375">
        <ele>315.399993896484375</ele>
        <time>2020-08-08T15:37:42.000Z</time>
      </trkpt>
      <trkpt lat="42.24059927277266979217529296875" lon="2.59491727687418460845947265625">
        <ele>315.600006103515625</ele>
        <time>2020-08-08T15:37:43.000Z</time>
      </trkpt>
      <trkpt lat="42.240657694637775421142578125" lon="2.59480051696300506591796875">
        <ele>316</ele>
        <time>2020-08-08T15:37:49.000Z</time>
      </trkpt>
      <trkpt lat="42.2407004423439502716064453125" lon="2.59471468627452850341796875">
        <ele>316.600006103515625</ele>
        <time>2020-08-08T15:37:54.000Z</time>
      </trkpt>
      <trkpt lat="42.24070756696164608001708984375" lon="2.5946947373449802398681640625">
        <ele>316.79998779296875</ele>
        <time>2020-08-08T15:37:55.000Z</time>
      </trkpt>
      <trkpt lat="42.2407584451138973236083984375" lon="2.594613097608089447021484375">
        <ele>317.79998779296875</ele>
        <time>2020-08-08T15:38:00.000Z</time>
      </trkpt>
      <trkpt lat="42.24076674319803714752197265625" lon="2.594595663249492645263671875">
        <ele>318</ele>
        <time>2020-08-08T15:38:01.000Z</time>
      </trkpt>
      <trkpt lat="42.24080781452357769012451171875" lon="2.59451813064515590667724609375">
        <ele>318.79998779296875</ele>
        <time>2020-08-08T15:38:06.000Z</time>
      </trkpt>
      <trkpt lat="42.24085777066648006439208984375" lon="2.59441972710192203521728515625">
        <ele>319.79998779296875</ele>
        <time>2020-08-08T15:38:12.000Z</time>
      </trkpt>
      <trkpt lat="42.24087034352123737335205078125" lon="2.59440262801945209503173828125">
        <ele>319.79998779296875</ele>
        <time>2020-08-08T15:38:13.000Z</time>
      </trkpt>
      <trkpt lat="42.240918539464473724365234375" lon="2.5942794978618621826171875">
        <ele>320.600006103515625</ele>
        <time>2020-08-08T15:38:19.000Z</time>
      </trkpt>
      <trkpt lat="42.2409792244434356689453125" lon="2.59419073350727558135986328125">
        <ele>320.79998779296875</ele>
        <time>2020-08-08T15:38:24.000Z</time>
      </trkpt>
      <trkpt lat="42.240992970764636993408203125" lon="2.59414647705852985382080078125">
        <ele>321</ele>
        <time>2020-08-08T15:38:26.000Z</time>
      </trkpt>
      <trkpt lat="42.241023145616054534912109375" lon="2.59408839046955108642578125">
        <ele>321.20001220703125</ele>
        <time>2020-08-08T15:38:29.000Z</time>
      </trkpt>
      <trkpt lat="42.24107368849217891693115234375" lon="2.5940158031880855560302734375">
        <ele>321.600006103515625</ele>
        <time>2020-08-08T15:38:33.000Z</time>
      </trkpt>
      <trkpt lat="42.24116052500903606414794921875" lon="2.59388747625052928924560546875">
        <ele>322</ele>
        <time>2020-08-08T15:38:40.000Z</time>
      </trkpt>
      <trkpt lat="42.24120528437197208404541015625" lon="2.5938422977924346923828125">
        <ele>322.600006103515625</ele>
        <time>2020-08-08T15:38:43.000Z</time>
      </trkpt>
      <trkpt lat="42.2412502951920032501220703125" lon="2.5937666930258274078369140625">
        <ele>323.20001220703125</ele>
        <time>2020-08-08T15:38:47.000Z</time>
      </trkpt>
      <trkpt lat="42.24127854220569133758544921875" lon="2.5937056727707386016845703125">
        <ele>323.600006103515625</ele>
        <time>2020-08-08T15:38:50.000Z</time>
      </trkpt>
      <trkpt lat="42.2413334436714649200439453125" lon="2.59361271746456623077392578125">
        <ele>324.20001220703125</ele>
        <time>2020-08-08T15:38:55.000Z</time>
      </trkpt>
      <trkpt lat="42.24136789329349994659423828125" lon="2.5935601629316806793212890625">
        <ele>324.399993896484375</ele>
        <time>2020-08-08T15:38:58.000Z</time>
      </trkpt>
      <trkpt lat="42.24143159575760364532470703125" lon="2.59342278353869915008544921875">
        <ele>324.600006103515625</ele>
        <time>2020-08-08T15:39:05.000Z</time>
      </trkpt>
      <trkpt lat="42.24145623855292797088623046875" lon="2.59331029839813709259033203125">
        <ele>325.20001220703125</ele>
        <time>2020-08-08T15:39:10.000Z</time>
      </trkpt>
      <trkpt lat="42.2414645366370677947998046875" lon="2.59327006526291370391845703125">
        <ele>325.600006103515625</ele>
        <time>2020-08-08T15:39:12.000Z</time>
      </trkpt>
      <trkpt lat="42.241515330970287322998046875" lon="2.5931685604155063629150390625">
        <ele>325.399993896484375</ele>
        <time>2020-08-08T15:39:18.000Z</time>
      </trkpt>
      <trkpt lat="42.2415309213101863861083984375" lon="2.5931407324969768524169921875">
        <ele>325.399993896484375</ele>
        <time>2020-08-08T15:39:20.000Z</time>
      </trkpt>
      <trkpt lat="42.2415639460086822509765625" lon="2.593123801052570343017578125">
        <ele>325.399993896484375</ele>
        <time>2020-08-08T15:39:22.000Z</time>
      </trkpt>
      <trkpt lat="42.2416972182691097259521484375" lon="2.5931051932275295257568359375">
        <ele>326.399993896484375</ele>
        <time>2020-08-08T15:39:29.000Z</time>
      </trkpt>
      <trkpt lat="42.241849265992641448974609375" lon="2.59313377551734447479248046875">
        <ele>327</ele>
        <time>2020-08-08T15:39:37.000Z</time>
      </trkpt>
      <trkpt lat="42.24188874475657939910888671875" lon="2.5931367091834545135498046875">
        <ele>327.399993896484375</ele>
        <time>2020-08-08T15:39:39.000Z</time>
      </trkpt>
      <trkpt lat="42.2419877350330352783203125" lon="2.59316579438745975494384765625">
        <ele>327.79998779296875</ele>
        <time>2020-08-08T15:39:45.000Z</time>
      </trkpt>
      <trkpt lat="42.2420780919492244720458984375" lon="2.593155987560749053955078125">
        <ele>328.399993896484375</ele>
        <time>2020-08-08T15:39:51.000Z</time>
      </trkpt>
      <trkpt lat="42.24218395538628101348876953125" lon="2.59310946799814701080322265625">
        <ele>329.600006103515625</ele>
        <time>2020-08-08T15:39:58.000Z</time>
      </trkpt>
      <trkpt lat="42.24225268699228763580322265625" lon="2.59307761676609516143798828125">
        <ele>330.600006103515625</ele>
        <time>2020-08-08T15:40:03.000Z</time>
      </trkpt>
      <trkpt lat="42.24231169559061527252197265625" lon="2.59302950464189052581787109375">
        <ele>331.399993896484375</ele>
        <time>2020-08-08T15:40:07.000Z</time>
      </trkpt>
      <trkpt lat="42.24232795648276805877685546875" lon="2.59301953017711639404296875">
        <ele>331.79998779296875</ele>
        <time>2020-08-08T15:40:08.000Z</time>
      </trkpt>
      <trkpt lat="42.242423258721828460693359375" lon="2.59296119213104248046875">
        <ele>332.399993896484375</ele>
        <time>2020-08-08T15:40:14.000Z</time>
      </trkpt>
      <trkpt lat="42.2425082512199878692626953125" lon="2.5929223001003265380859375">
        <ele>332.79998779296875</ele>
        <time>2020-08-08T15:40:19.000Z</time>
      </trkpt>
      <trkpt lat="42.24254420958459377288818359375" lon="2.59290327318012714385986328125">
        <ele>333.20001220703125</ele>
        <time>2020-08-08T15:40:21.000Z</time>
      </trkpt>
      <trkpt lat="42.24269516766071319580078125" lon="2.59279690682888031005859375">
        <ele>333.399993896484375</ele>
        <time>2020-08-08T15:40:30.000Z</time>
      </trkpt>
      <trkpt lat="42.242723666131496429443359375" lon="2.5927571766078472137451171875">
        <ele>333.79998779296875</ele>
        <time>2020-08-08T15:40:32.000Z</time>
      </trkpt>
      <trkpt lat="42.24278007633984088897705078125" lon="2.59264242835342884063720703125">
        <ele>334</ele>
        <time>2020-08-08T15:40:37.000Z</time>
      </trkpt>
      <trkpt lat="42.24285735748708248138427734375" lon="2.592429108917713165283203125">
        <ele>334.79998779296875</ele>
        <time>2020-08-08T15:40:46.000Z</time>
      </trkpt>
      <trkpt lat="42.24286842159926891326904296875" lon="2.5923853553831577301025390625">
        <ele>335</ele>
        <time>2020-08-08T15:40:48.000Z</time>
      </trkpt>
      <trkpt lat="42.24290899001061916351318359375" lon="2.59228250943124294281005859375">
        <ele>336</ele>
        <time>2020-08-08T15:40:53.000Z</time>
      </trkpt>
      <trkpt lat="42.24296280182898044586181640625" lon="2.5920997001230716705322265625">
        <ele>336.79998779296875</ele>
        <time>2020-08-08T15:41:01.000Z</time>
      </trkpt>
      <trkpt lat="42.24298057146370410919189453125" lon="2.59203993715345859527587890625">
        <ele>337</ele>
        <time>2020-08-08T15:41:04.000Z</time>
      </trkpt>
      <trkpt lat="42.24299415014684200286865234375" lon="2.59197455830872058868408203125">
        <ele>337.399993896484375</ele>
        <time>2020-08-08T15:41:07.000Z</time>
      </trkpt>
      <trkpt lat="42.243022732436656951904296875" lon="2.5918279588222503662109375">
        <ele>338</ele>
        <time>2020-08-08T15:41:13.000Z</time>
      </trkpt>
      <trkpt lat="42.24302516318857669830322265625" lon="2.59180658496916294097900390625">
        <ele>338.20001220703125</ele>
        <time>2020-08-08T15:41:14.000Z</time>
      </trkpt>
      <trkpt lat="42.24303446710109710693359375" lon="2.59167649783194065093994140625">
        <ele>338.79998779296875</ele>
        <time>2020-08-08T15:41:20.000Z</time>
      </trkpt>
      <trkpt lat="42.2430418431758880615234375" lon="2.59160525165498256683349609375">
        <ele>339.20001220703125</ele>
        <time>2020-08-08T15:41:23.000Z</time>
      </trkpt>
      <trkpt lat="42.2430557571351528167724609375" lon="2.59151036851108074188232421875">
        <ele>339.79998779296875</ele>
        <time>2020-08-08T15:41:27.000Z</time>
      </trkpt>
      <trkpt lat="42.24306589923799037933349609375" lon="2.59138866327702999114990234375">
        <ele>339.600006103515625</ele>
        <time>2020-08-08T15:41:32.000Z</time>
      </trkpt>
      <trkpt lat="42.2430859319865703582763671875" lon="2.59120392613112926483154296875">
        <ele>339.600006103515625</ele>
        <time>2020-08-08T15:41:39.000Z</time>
      </trkpt>
      <trkpt lat="42.24304343573749065399169921875" lon="2.5909621082246303558349609375">
        <ele>339.399993896484375</ele>
        <time>2020-08-08T15:41:46.000Z</time>
      </trkpt>
      <trkpt lat="42.24301879294216632843017578125" lon="2.59071023203432559967041015625">
        <ele>339.79998779296875</ele>
        <time>2020-08-08T15:41:53.000Z</time>
      </trkpt>
      <trkpt lat="42.2430379875004291534423828125" lon="2.59049532003700733184814453125">
        <ele>340.399993896484375</ele>
        <time>2020-08-08T15:41:59.000Z</time>
      </trkpt>
      <trkpt lat="42.2430329583585262298583984375" lon="2.5903934799134731292724609375">
        <ele>340.399993896484375</ele>
        <time>2020-08-08T15:42:02.000Z</time>
      </trkpt>
      <trkpt lat="42.242947630584239959716796875" lon="2.5902104191482067108154296875">
        <ele>340.79998779296875</ele>
        <time>2020-08-08T15:42:09.000Z</time>
      </trkpt>
      <trkpt lat="42.24282852374017238616943359375" lon="2.5900243408977985382080078125">
        <ele>340.399993896484375</ele>
        <time>2020-08-08T15:42:14.000Z</time>
      </trkpt>
      <trkpt lat="42.24278996698558330535888671875" lon="2.58990774862468242645263671875">
        <ele>339.79998779296875</ele>
        <time>2020-08-08T15:42:16.000Z</time>
      </trkpt>
      <trkpt lat="42.24279382266104221343994140625" lon="2.58977849967777729034423828125">
        <ele>339.399993896484375</ele>
        <time>2020-08-08T15:42:18.000Z</time>
      </trkpt>
      <trkpt lat="42.2428031265735626220703125" lon="2.58971546776592731475830078125">
        <ele>339.20001220703125</ele>
        <time>2020-08-08T15:42:19.000Z</time>
      </trkpt>
      <trkpt lat="42.24282634444534778594970703125" lon="2.58953123353421688079833984375">
        <ele>339</ele>
        <time>2020-08-08T15:42:22.000Z</time>
      </trkpt>
      <trkpt lat="42.2428395040333271026611328125" lon="2.58946669287979602813720703125">
        <ele>339</ele>
        <time>2020-08-08T15:42:23.000Z</time>
      </trkpt>
      <trkpt lat="42.24293061532080173492431640625" lon="2.5892852246761322021484375">
        <ele>338.79998779296875</ele>
        <time>2020-08-08T15:42:27.000Z</time>
      </trkpt>
      <trkpt lat="42.24308584816753864288330078125" lon="2.589099816977977752685546875">
        <ele>338.399993896484375</ele>
        <time>2020-08-08T15:42:32.000Z</time>
      </trkpt>
      <trkpt lat="42.2431062161922454833984375" lon="2.58902706205844879150390625">
        <ele>338</ele>
        <time>2020-08-08T15:42:33.000Z</time>
      </trkpt>
      <trkpt lat="42.243128679692745208740234375" lon="2.58885682560503482818603515625">
        <ele>337.399993896484375</ele>
        <time>2020-08-08T15:42:35.000Z</time>
      </trkpt>
      <trkpt lat="42.24311493337154388427734375" lon="2.58868432603776454925537109375">
        <ele>337</ele>
        <time>2020-08-08T15:42:37.000Z</time>
      </trkpt>
      <trkpt lat="42.243102528154850006103515625" lon="2.58860100992023944854736328125">
        <ele>336.79998779296875</ele>
        <time>2020-08-08T15:42:38.000Z</time>
      </trkpt>
      <trkpt lat="42.24307780154049396514892578125" lon="2.5884304381906986236572265625">
        <ele>336.20001220703125</ele>
        <time>2020-08-08T15:42:40.000Z</time>
      </trkpt>
      <trkpt lat="42.24307294003665447235107421875" lon="2.5883429311215877532958984375">
        <ele>335.79998779296875</ele>
        <time>2020-08-08T15:42:41.000Z</time>
      </trkpt>
      <trkpt lat="42.2431063838303089141845703125" lon="2.5880951620638370513916015625">
        <ele>335.399993896484375</ele>
        <time>2020-08-08T15:42:44.000Z</time>
      </trkpt>
      <trkpt lat="42.2432304359972476959228515625" lon="2.58788100443780422210693359375">
        <ele>335.79998779296875</ele>
        <time>2020-08-08T15:42:48.000Z</time>
      </trkpt>
      <trkpt lat="42.24328785203397274017333984375" lon="2.58772208355367183685302734375">
        <ele>336.399993896484375</ele>
        <time>2020-08-08T15:42:52.000Z</time>
      </trkpt>
      <trkpt lat="42.2432857565581798553466796875" lon="2.5876116938889026641845703125">
        <ele>337</ele>
        <time>2020-08-08T15:42:55.000Z</time>
      </trkpt>
      <trkpt lat="42.243265807628631591796875" lon="2.58745688013732433319091796875">
        <ele>337</ele>
        <time>2020-08-08T15:42:58.000Z</time>
      </trkpt>
      <trkpt lat="42.24322766996920108795166015625" lon="2.58720718324184417724609375">
        <ele>335.20001220703125</ele>
        <time>2020-08-08T15:43:01.000Z</time>
      </trkpt>
      <trkpt lat="42.24320403300225734710693359375" lon="2.58711607195436954498291015625">
        <ele>334.600006103515625</ele>
        <time>2020-08-08T15:43:02.000Z</time>
      </trkpt>
      <trkpt lat="42.24317603744566440582275390625" lon="2.5870252959430217742919921875">
        <ele>334</ele>
        <time>2020-08-08T15:43:03.000Z</time>
      </trkpt>
      <trkpt lat="42.24316514097154140472412109375" lon="2.58679169230163097381591796875">
        <ele>333.79998779296875</ele>
        <time>2020-08-08T15:43:06.000Z</time>
      </trkpt>
      <trkpt lat="42.2432341240346431732177734375" lon="2.58670234121382236480712890625">
        <ele>334.79998779296875</ele>
        <time>2020-08-08T15:43:09.000Z</time>
      </trkpt>
      <trkpt lat="42.2432532347738742828369140625" lon="2.58668591268360614776611328125">
        <ele>335.20001220703125</ele>
        <time>2020-08-08T15:43:10.000Z</time>
      </trkpt>
      <trkpt lat="42.2432696633040904998779296875" lon="2.5866688974201679229736328125">
        <ele>335.399993896484375</ele>
        <time>2020-08-08T15:43:11.000Z</time>
      </trkpt>
      <trkpt lat="42.24333395250141620635986328125" lon="2.5866055302321910858154296875">
        <ele>336.399993896484375</ele>
        <time>2020-08-08T15:43:15.000Z</time>
      </trkpt>
      <trkpt lat="42.24340050481259822845458984375" lon="2.58655398152768611907958984375">
        <ele>337.399993896484375</ele>
        <time>2020-08-08T15:43:19.000Z</time>
      </trkpt>
      <trkpt lat="42.24343084730207920074462890625" lon="2.586524896323680877685546875">
        <ele>337.600006103515625</ele>
        <time>2020-08-08T15:43:21.000Z</time>
      </trkpt>
      <trkpt lat="42.24354006350040435791015625" lon="2.5864653848111629486083984375">
        <ele>338.600006103515625</ele>
        <time>2020-08-08T15:43:27.000Z</time>
      </trkpt>
      <trkpt lat="42.2435596771538257598876953125" lon="2.58645272813737392425537109375">
        <ele>338.600006103515625</ele>
        <time>2020-08-08T15:43:28.000Z</time>
      </trkpt>
      <trkpt lat="42.2436667978763580322265625" lon="2.5863215513527393341064453125">
        <ele>339.20001220703125</ele>
        <time>2020-08-08T15:43:35.000Z</time>
      </trkpt>
      <trkpt lat="42.24369420669972896575927734375" lon="2.58619372732937335968017578125">
        <ele>339.600006103515625</ele>
        <time>2020-08-08T15:43:40.000Z</time>
      </trkpt>
      <trkpt lat="42.24369772709906101226806640625" lon="2.58616187609732151031494140625">
        <ele>339.600006103515625</ele>
        <time>2020-08-08T15:43:41.000Z</time>
      </trkpt>
      <trkpt lat="42.24369973875582218170166015625" lon="2.5859601236879825592041015625">
        <ele>339.600006103515625</ele>
        <time>2020-08-08T15:43:47.000Z</time>
      </trkpt>
      <trkpt lat="42.24369454197585582733154296875" lon="2.5856724567711353302001953125">
        <ele>339.20001220703125</ele>
        <time>2020-08-08T15:43:53.000Z</time>
      </trkpt>
      <trkpt lat="42.2436404787003993988037109375" lon="2.58536911569535732269287109375">
        <ele>338.79998779296875</ele>
        <time>2020-08-08T15:43:58.000Z</time>
      </trkpt>
      <trkpt lat="42.243622876703739166259765625" lon="2.58522444404661655426025390625">
        <ele>338.399993896484375</ele>
        <time>2020-08-08T15:44:00.000Z</time>
      </trkpt>
      <trkpt lat="42.2436022572219371795654296875" lon="2.58491389453411102294921875">
        <ele>337.20001220703125</ele>
        <time>2020-08-08T15:44:04.000Z</time>
      </trkpt>
      <trkpt lat="42.24359831772744655609130859375" lon="2.584834434092044830322265625">
        <ele>337</ele>
        <time>2020-08-08T15:44:05.000Z</time>
      </trkpt>
      <trkpt lat="42.24353947676718235015869140625" lon="2.58442514576017856597900390625">
        <ele>336.399993896484375</ele>
        <time>2020-08-08T15:44:10.000Z</time>
      </trkpt>
      <trkpt lat="42.243510894477367401123046875" lon="2.584352307021617889404296875">
        <ele>336</ele>
        <time>2020-08-08T15:44:11.000Z</time>
      </trkpt>
      <trkpt lat="42.24344350397586822509765625" lon="2.58422146551311016082763671875">
        <ele>337</ele>
        <time>2020-08-08T15:44:14.000Z</time>
      </trkpt>
      <trkpt lat="42.24341358058154582977294921875" lon="2.584150135517120361328125">
        <ele>338.20001220703125</ele>
        <time>2020-08-08T15:44:17.000Z</time>
      </trkpt>
      <trkpt lat="42.24340586923062801361083984375" lon="2.5841305218636989593505859375">
        <ele>338.600006103515625</ele>
        <time>2020-08-08T15:44:18.000Z</time>
      </trkpt>
      <trkpt lat="42.24340016953647136688232421875" lon="2.5841087289154529571533203125">
        <ele>339</ele>
        <time>2020-08-08T15:44:19.000Z</time>
      </trkpt>
      <trkpt lat="42.2433947212994098663330078125" lon="2.58408685214817523956298828125">
        <ele>339.399993896484375</ele>
        <time>2020-08-08T15:44:20.000Z</time>
      </trkpt>
      <trkpt lat="42.2433662228286266326904296875" lon="2.58399599231779575347900390625">
        <ele>340.600006103515625</ele>
        <time>2020-08-08T15:44:24.000Z</time>
      </trkpt>
      <trkpt lat="42.24335976876318454742431640625" lon="2.58397051133215427398681640625">
        <ele>340.79998779296875</ele>
        <time>2020-08-08T15:44:25.000Z</time>
      </trkpt>
      <trkpt lat="42.2433315217494964599609375" lon="2.58380605839192867279052734375">
        <ele>341</ele>
        <time>2020-08-08T15:44:31.000Z</time>
      </trkpt>
      <trkpt lat="42.24330780096352100372314453125" lon="2.583687789738178253173828125">
        <ele>341.79998779296875</ele>
        <time>2020-08-08T15:44:35.000Z</time>
      </trkpt>
      <trkpt lat="42.24328584037721157073974609375" lon="2.58356415666639804840087890625">
        <ele>342.20001220703125</ele>
        <time>2020-08-08T15:44:39.000Z</time>
      </trkpt>
      <trkpt lat="42.2432358004152774810791015625" lon="2.58332669734954833984375">
        <ele>342.79998779296875</ele>
        <time>2020-08-08T15:44:47.000Z</time>
      </trkpt>
      <trkpt lat="42.24323085509240627288818359375" lon="2.58329006843268871307373046875">
        <ele>343.20001220703125</ele>
        <time>2020-08-08T15:44:49.000Z</time>
      </trkpt>
      <trkpt lat="42.24322699941694736480712890625" lon="2.58328269235789775848388671875">
        <ele>343.20001220703125</ele>
        <time>2020-08-08T15:44:54.000Z</time>
      </trkpt>
      <trkpt lat="42.2432267479598522186279296875" lon="2.5832824409008026123046875">
        <ele>343</ele>
        <time>2020-08-08T15:45:12.000Z</time>
      </trkpt>
      <trkpt lat="42.24322683177888393402099609375" lon="2.5832824409008026123046875">
        <ele>342.79998779296875</ele>
        <time>2020-08-08T15:45:31.000Z</time>
      </trkpt>
      <trkpt lat="42.2432267479598522186279296875" lon="2.5832826085388660430908203125">
        <ele>342.79998779296875</ele>
        <time>2020-08-08T15:45:35.000Z</time>
      </trkpt>
      <trkpt lat="42.2432297654449939727783203125" lon="2.5832852907478809356689453125">
        <ele>343</ele>
        <time>2020-08-08T15:46:49.000Z</time>
      </trkpt>
      <trkpt lat="42.24321819841861724853515625" lon="2.58326106704771518707275390625">
        <ele>343</ele>
        <time>2020-08-08T15:46:55.000Z</time>
      </trkpt>
      <trkpt lat="42.24315860308706760406494140625" lon="2.583119831979274749755859375">
        <ele>342.20001220703125</ele>
        <time>2020-08-08T15:47:00.000Z</time>
      </trkpt>
      <trkpt lat="42.2430359758436679840087890625" lon="2.58291221223771572113037109375">
        <ele>342</ele>
        <time>2020-08-08T15:47:06.000Z</time>
      </trkpt>
      <trkpt lat="42.24295693449676036834716796875" lon="2.5828283093869686126708984375">
        <ele>343</ele>
        <time>2020-08-08T15:47:11.000Z</time>
      </trkpt>
      <trkpt lat="42.24279181100428104400634765625" lon="2.5827418081462383270263671875">
        <ele>344</ele>
        <time>2020-08-08T15:47:19.000Z</time>
      </trkpt>
      <trkpt lat="42.24274612963199615478515625" lon="2.5827459990978240966796875">
        <ele>344.20001220703125</ele>
        <time>2020-08-08T15:47:21.000Z</time>
      </trkpt>
      <trkpt lat="42.242667675018310546875" lon="2.58275471627712249755859375">
        <ele>344.399993896484375</ele>
        <time>2020-08-08T15:47:25.000Z</time>
      </trkpt>
      <trkpt lat="42.24259550683200359344482421875" lon="2.582766450941562652587890625">
        <ele>345.20001220703125</ele>
        <time>2020-08-08T15:47:29.000Z</time>
      </trkpt>
      <trkpt lat="42.24256264977157115936279296875" lon="2.58276904933154582977294921875">
        <ele>345.600006103515625</ele>
        <time>2020-08-08T15:47:31.000Z</time>
      </trkpt>
      <trkpt lat="42.2424888052046298980712890625" lon="2.5827783532440662384033203125">
        <ele>346.399993896484375</ele>
        <time>2020-08-08T15:47:35.000Z</time>
      </trkpt>
      <trkpt lat="42.24245737306773662567138671875" lon="2.58276670239865779876708984375">
        <ele>346.399993896484375</ele>
        <time>2020-08-08T15:47:37.000Z</time>
      </trkpt>
      <trkpt lat="42.24243172444403171539306640625" lon="2.58273594081401824951171875">
        <ele>346.399993896484375</ele>
        <time>2020-08-08T15:47:39.000Z</time>
      </trkpt>
      <trkpt lat="42.2424120269715785980224609375" lon="2.58268690668046474456787109375">
        <ele>346.399993896484375</ele>
        <time>2020-08-08T15:47:41.000Z</time>
      </trkpt>
      <trkpt lat="42.2424043156206607818603515625" lon="2.58255665190517902374267578125">
        <ele>346.79998779296875</ele>
        <time>2020-08-08T15:47:47.000Z</time>
      </trkpt>
      <trkpt lat="42.24241864867508411407470703125" lon="2.58240376599133014678955078125">
        <ele>347.399993896484375</ele>
        <time>2020-08-08T15:47:53.000Z</time>
      </trkpt>
      <trkpt lat="42.24241043440997600555419921875" lon="2.58224769495427608489990234375">
        <ele>348.79998779296875</ele>
        <time>2020-08-08T15:47:59.000Z</time>
      </trkpt>
      <trkpt lat="42.24241160787642002105712890625" lon="2.5822228007018566131591796875">
        <ele>349</ele>
        <time>2020-08-08T15:48:00.000Z</time>
      </trkpt>
      <trkpt lat="42.24239266477525234222412109375" lon="2.58203228004276752471923828125">
        <ele>349.79998779296875</ele>
        <time>2020-08-08T15:48:07.000Z</time>
      </trkpt>
      <trkpt lat="42.24238629452884197235107421875" lon="2.5820078887045383453369140625">
        <ele>349.79998779296875</ele>
        <time>2020-08-08T15:48:08.000Z</time>
      </trkpt>
      <trkpt lat="42.24231421016156673431396484375" lon="2.5818674080073833465576171875">
        <ele>350.600006103515625</ele>
        <time>2020-08-08T15:48:14.000Z</time>
      </trkpt>
      <trkpt lat="42.24226810969412326812744140625" lon="2.58178233169019222259521484375">
        <ele>351</ele>
        <time>2020-08-08T15:48:18.000Z</time>
      </trkpt>
      <trkpt lat="42.2422484122216701507568359375" lon="2.58174008689820766448974609375">
        <ele>351.399993896484375</ele>
        <time>2020-08-08T15:48:20.000Z</time>
      </trkpt>
      <trkpt lat="42.24215612746775150299072265625" lon="2.5815747119486331939697265625">
        <ele>351.600006103515625</ele>
        <time>2020-08-08T15:48:26.000Z</time>
      </trkpt>
      <trkpt lat="42.2420160658657550811767578125" lon="2.581398189067840576171875">
        <ele>351.600006103515625</ele>
        <time>2020-08-08T15:48:32.000Z</time>
      </trkpt>
      <trkpt lat="42.24181808531284332275390625" lon="2.58125494234263896942138671875">
        <ele>351.20001220703125</ele>
        <time>2020-08-08T15:48:38.000Z</time>
      </trkpt>
      <trkpt lat="42.24171155132353305816650390625" lon="2.5811958499252796173095703125">
        <ele>351.20001220703125</ele>
        <time>2020-08-08T15:48:42.000Z</time>
      </trkpt>
      <trkpt lat="42.2415610961616039276123046875" lon="2.58114865981042385101318359375">
        <ele>351.20001220703125</ele>
        <time>2020-08-08T15:48:47.000Z</time>
      </trkpt>
      <trkpt lat="42.24139421246945858001708984375" lon="2.58105813525617122650146484375">
        <ele>351</ele>
        <time>2020-08-08T15:48:53.000Z</time>
      </trkpt>
      <trkpt lat="42.24126798100769519805908203125" lon="2.58096073754131793975830078125">
        <ele>350.79998779296875</ele>
        <time>2020-08-08T15:48:57.000Z</time>
      </trkpt>
      <trkpt lat="42.24117779172956943511962890625" lon="2.58091061376035213470458984375">
        <ele>350.399993896484375</ele>
        <time>2020-08-08T15:48:59.000Z</time>
      </trkpt>
      <trkpt lat="42.24108223803341388702392578125" lon="2.58082763291895389556884765625">
        <ele>349.79998779296875</ele>
        <time>2020-08-08T15:49:01.000Z</time>
      </trkpt>
      <trkpt lat="42.2409961558878421783447265625" lon="2.580614984035491943359375">
        <ele>348.79998779296875</ele>
        <time>2020-08-08T15:49:04.000Z</time>
      </trkpt>
      <trkpt lat="42.24101250059902667999267578125" lon="2.58044608868658542633056640625">
        <ele>347.79998779296875</ele>
        <time>2020-08-08T15:49:07.000Z</time>
      </trkpt>
      <trkpt lat="42.2410886920988559722900390625" lon="2.5803717412054538726806640625">
        <ele>348.20001220703125</ele>
        <time>2020-08-08T15:49:10.000Z</time>
      </trkpt>
      <trkpt lat="42.24112280644476413726806640625" lon="2.580352462828159332275390625">
        <ele>347.79998779296875</ele>
        <time>2020-08-08T15:49:11.000Z</time>
      </trkpt>
      <trkpt lat="42.24116270430386066436767578125" lon="2.5803251378238201141357421875">
        <ele>347.399993896484375</ele>
        <time>2020-08-08T15:49:12.000Z</time>
      </trkpt>
      <trkpt lat="42.2413062863051891326904296875" lon="2.58020318113267421722412109375">
        <ele>346.600006103515625</ele>
        <time>2020-08-08T15:49:15.000Z</time>
      </trkpt>
      <trkpt lat="42.24135833792388439178466796875" lon="2.58015557192265987396240234375">
        <ele>346.20001220703125</ele>
        <time>2020-08-08T15:49:16.000Z</time>
      </trkpt>
      <trkpt lat="42.24154491908848285675048828125" lon="2.57999413646757602691650390625">
        <ele>345</ele>
        <time>2020-08-08T15:49:19.000Z</time>
      </trkpt>
      <trkpt lat="42.2416194342076778411865234375" lon="2.57994937710464000701904296875">
        <ele>344.600006103515625</ele>
        <time>2020-08-08T15:49:20.000Z</time>
      </trkpt>
      <trkpt lat="42.2416953742504119873046875" lon="2.57991299964487552642822265625">
        <ele>343.79998779296875</ele>
        <time>2020-08-08T15:49:21.000Z</time>
      </trkpt>
      <trkpt lat="42.2418541274964809417724609375" lon="2.57985482923686504364013671875">
        <ele>343.20001220703125</ele>
        <time>2020-08-08T15:49:23.000Z</time>
      </trkpt>
      <trkpt lat="42.2419999726116657257080078125" lon="2.57980302907526493072509765625">
        <ele>342.600006103515625</ele>
        <time>2020-08-08T15:49:25.000Z</time>
      </trkpt>
      <trkpt lat="42.24214405752718448638916015625" lon="2.57971853949129581451416015625">
        <ele>341.600006103515625</ele>
        <time>2020-08-08T15:49:27.000Z</time>
      </trkpt>
      <trkpt lat="42.24220708943903446197509765625" lon="2.57966472767293453216552734375">
        <ele>341.399993896484375</ele>
        <time>2020-08-08T15:49:28.000Z</time>
      </trkpt>
      <trkpt lat="42.24237070418894290924072265625" lon="2.5794524140655994415283203125">
        <ele>340.20001220703125</ele>
        <time>2020-08-08T15:49:31.000Z</time>
      </trkpt>
      <trkpt lat="42.242534570395946502685546875" lon="2.5791949220001697540283203125">
        <ele>339</ele>
        <time>2020-08-08T15:49:34.000Z</time>
      </trkpt>
      <trkpt lat="42.24263490177690982818603515625" lon="2.57902753539383411407470703125">
        <ele>338.79998779296875</ele>
        <time>2020-08-08T15:49:36.000Z</time>
      </trkpt>
      <trkpt lat="42.24274478852748870849609375" lon="2.57876518182456493377685546875">
        <ele>339.600006103515625</ele>
        <time>2020-08-08T15:49:40.000Z</time>
      </trkpt>
      <trkpt lat="42.24276230670511722564697265625" lon="2.5787208415567874908447265625">
        <ele>340.20001220703125</ele>
        <time>2020-08-08T15:49:41.000Z</time>
      </trkpt>
      <trkpt lat="42.24281561560928821563720703125" lon="2.5785692967474460601806640625">
        <ele>341</ele>
        <time>2020-08-08T15:49:45.000Z</time>
      </trkpt>
      <trkpt lat="42.24282919429242610931396484375" lon="2.57853819988667964935302734375">
        <ele>341.20001220703125</ele>
        <time>2020-08-08T15:49:46.000Z</time>
      </trkpt>
      <trkpt lat="42.24288535304367542266845703125" lon="2.57838070392608642578125">
        <ele>342</ele>
        <time>2020-08-08T15:49:51.000Z</time>
      </trkpt>
      <trkpt lat="42.24289608187973499298095703125" lon="2.57835128344595432281494140625">
        <ele>342.20001220703125</ele>
        <time>2020-08-08T15:49:52.000Z</time>
      </trkpt>
      <trkpt lat="42.242995239794254302978515625" lon="2.5781652890145778656005859375">
        <ele>342</ele>
        <time>2020-08-08T15:49:57.000Z</time>
      </trkpt>
      <trkpt lat="42.24307210184633731842041015625" lon="2.57790754549205303192138671875">
        <ele>342</ele>
        <time>2020-08-08T15:50:03.000Z</time>
      </trkpt>
      <trkpt lat="42.2431063838303089141845703125" lon="2.577668242156505584716796875">
        <ele>343.20001220703125</ele>
        <time>2020-08-08T15:50:09.000Z</time>
      </trkpt>
      <trkpt lat="42.24311015568673610687255859375" lon="2.57762792520225048065185546875">
        <ele>343.20001220703125</ele>
        <time>2020-08-08T15:50:10.000Z</time>
      </trkpt>
      <trkpt lat="42.243132703006267547607421875" lon="2.5773520767688751220703125">
        <ele>343</ele>
        <time>2020-08-08T15:50:16.000Z</time>
      </trkpt>
      <trkpt lat="42.24313111044466495513916015625" lon="2.57728912867605686187744140625">
        <ele>342.79998779296875</ele>
        <time>2020-08-08T15:50:17.000Z</time>
      </trkpt>
      <trkpt lat="42.243095152080059051513671875" lon="2.577159963548183441162109375">
        <ele>342.399993896484375</ele>
        <time>2020-08-08T15:50:19.000Z</time>
      </trkpt>
      <trkpt lat="42.2430606186389923095703125" lon="2.5771095044910907745361328125">
        <ele>342.20001220703125</ele>
        <time>2020-08-08T15:50:20.000Z</time>
      </trkpt>
      <trkpt lat="42.2429752908647060394287109375" lon="2.57694798521697521209716796875">
        <ele>341.79998779296875</ele>
        <time>2020-08-08T15:50:23.000Z</time>
      </trkpt>
      <trkpt lat="42.24295157007873058319091796875" lon="2.5768853724002838134765625">
        <ele>341.79998779296875</ele>
        <time>2020-08-08T15:50:24.000Z</time>
      </trkpt>
      <trkpt lat="42.242912091314792633056640625" lon="2.57673324085772037506103515625">
        <ele>341</ele>
        <time>2020-08-08T15:50:26.000Z</time>
      </trkpt>
      <trkpt lat="42.24289105273783206939697265625" lon="2.57665160112082958221435546875">
        <ele>340.79998779296875</ele>
        <time>2020-08-08T15:50:27.000Z</time>
      </trkpt>
      <trkpt lat="42.2428648173809051513671875" lon="2.5765688717365264892578125">
        <ele>340.600006103515625</ele>
        <time>2020-08-08T15:50:28.000Z</time>
      </trkpt>
      <trkpt lat="42.2428334690630435943603515625" lon="2.57649167440831661224365234375">
        <ele>340</ele>
        <time>2020-08-08T15:50:29.000Z</time>
      </trkpt>
      <trkpt lat="42.24277831614017486572265625" lon="2.5763487629592418670654296875">
        <ele>339.399993896484375</ele>
        <time>2020-08-08T15:50:31.000Z</time>
      </trkpt>
      <trkpt lat="42.242753170430660247802734375" lon="2.5761973857879638671875">
        <ele>338.79998779296875</ele>
        <time>2020-08-08T15:50:33.000Z</time>
      </trkpt>
      <trkpt lat="42.24276356399059295654296875" lon="2.57605698890984058380126953125">
        <ele>338.79998779296875</ele>
        <time>2020-08-08T15:50:35.000Z</time>
      </trkpt>
      <trkpt lat="42.24280086345970630645751953125" lon="2.575808130204677581787109375">
        <ele>339.600006103515625</ele>
        <time>2020-08-08T15:50:40.000Z</time>
      </trkpt>
      <trkpt lat="42.24280656315386295318603515625" lon="2.575771249830722808837890625">
        <ele>339.79998779296875</ele>
        <time>2020-08-08T15:50:41.000Z</time>
      </trkpt>
      <trkpt lat="42.24283606745302677154541015625" lon="2.57562942802906036376953125">
        <ele>340.79998779296875</ele>
        <time>2020-08-08T15:50:45.000Z</time>
      </trkpt>
      <trkpt lat="42.2428505681455135345458984375" lon="2.5755652226507663726806640625">
        <ele>341.20001220703125</ele>
        <time>2020-08-08T15:50:47.000Z</time>
      </trkpt>
      <trkpt lat="42.24292105995118618011474609375" lon="2.5753942318260669708251953125">
        <ele>341.399993896484375</ele>
        <time>2020-08-08T15:50:52.000Z</time>
      </trkpt>
      <trkpt lat="42.2430483810603618621826171875" lon="2.57514688186347484588623046875">
        <ele>341</ele>
        <time>2020-08-08T15:50:58.000Z</time>
      </trkpt>
      <trkpt lat="42.24307763390243053436279296875" lon="2.57494680583477020263671875">
        <ele>340.399993896484375</ele>
        <time>2020-08-08T15:51:02.000Z</time>
      </trkpt>
      <trkpt lat="42.2430121712386608123779296875" lon="2.574846558272838592529296875">
        <ele>339.79998779296875</ele>
        <time>2020-08-08T15:51:04.000Z</time>
      </trkpt>
      <trkpt lat="42.24296095781028270721435546875" lon="2.57480540312826633453369140625">
        <ele>339.20001220703125</ele>
        <time>2020-08-08T15:51:05.000Z</time>
      </trkpt>
      <trkpt lat="42.2428991831839084625244140625" lon="2.5747691094875335693359375">
        <ele>338.399993896484375</ele>
        <time>2020-08-08T15:51:06.000Z</time>
      </trkpt>
      <trkpt lat="42.242765910923480987548828125" lon="2.57469467818737030029296875">
        <ele>337</ele>
        <time>2020-08-08T15:51:08.000Z</time>
      </trkpt>
      <trkpt lat="42.24264663644134998321533203125" lon="2.5746217556297779083251953125">
        <ele>336</ele>
        <time>2020-08-08T15:51:10.000Z</time>
      </trkpt>
      <trkpt lat="42.24256080575287342071533203125" lon="2.57455159910023212432861328125">
        <ele>335</ele>
        <time>2020-08-08T15:51:12.000Z</time>
      </trkpt>
      <trkpt lat="42.24253683350980281829833984375" lon="2.57450155913829803466796875">
        <ele>334.79998779296875</ele>
        <time>2020-08-08T15:51:13.000Z</time>
      </trkpt>
      <trkpt lat="42.2425344027578830718994140625" lon="2.57444732822477817535400390625">
        <ele>334.600006103515625</ele>
        <time>2020-08-08T15:51:14.000Z</time>
      </trkpt>
      <trkpt lat="42.2425682656466960906982421875" lon="2.57434439845383167266845703125">
        <ele>334.79998779296875</ele>
        <time>2020-08-08T15:51:17.000Z</time>
      </trkpt>
      <trkpt lat="42.2426390089094638824462890625" lon="2.5742070190608501434326171875">
        <ele>336</ele>
        <time>2020-08-08T15:51:22.000Z</time>
      </trkpt>
      <trkpt lat="42.242645211517810821533203125" lon="2.57418380118906497955322265625">
        <ele>336.20001220703125</ele>
        <time>2020-08-08T15:51:23.000Z</time>
      </trkpt>
      <trkpt lat="42.24265619181096553802490234375" lon="2.5740568153560161590576171875">
        <ele>337</ele>
        <time>2020-08-08T15:51:27.000Z</time>
      </trkpt>
      <trkpt lat="42.24265954457223415374755859375" lon="2.57399219088256359100341796875">
        <ele>337.20001220703125</ele>
        <time>2020-08-08T15:51:29.000Z</time>
      </trkpt>
      <trkpt lat="42.2426323033869266510009765625" lon="2.57383159361779689788818359375">
        <ele>337.399993896484375</ele>
        <time>2020-08-08T15:51:34.000Z</time>
      </trkpt>
      <trkpt lat="42.24257220514118671417236328125" lon="2.573667727410793304443359375">
        <ele>338.20001220703125</ele>
        <time>2020-08-08T15:51:39.000Z</time>
      </trkpt>
      <trkpt lat="42.24256105720996856689453125" lon="2.57363428361713886260986328125">
        <ele>338.20001220703125</ele>
        <time>2020-08-08T15:51:40.000Z</time>
      </trkpt>
      <trkpt lat="42.2424512542784214019775390625" lon="2.57345340214669704437255859375">
        <ele>339</ele>
        <time>2020-08-08T15:51:47.000Z</time>
      </trkpt>
      <trkpt lat="42.2423915751278400421142578125" lon="2.5732937268912792205810546875">
        <ele>339.20001220703125</ele>
        <time>2020-08-08T15:51:52.000Z</time>
      </trkpt>
      <trkpt lat="42.24238671362400054931640625" lon="2.573255002498626708984375">
        <ele>339.399993896484375</ele>
        <time>2020-08-08T15:51:53.000Z</time>
      </trkpt>
      <trkpt lat="42.2423681057989597320556640625" lon="2.57296373136341571807861328125">
        <ele>340.20001220703125</ele>
        <time>2020-08-08T15:52:01.000Z</time>
      </trkpt>
      <trkpt lat="42.24233441054821014404296875" lon="2.57269802503287792205810546875">
        <ele>340.399993896484375</ele>
        <time>2020-08-08T15:52:07.000Z</time>
      </trkpt>
      <trkpt lat="42.24232099950313568115234375" lon="2.57261772640049457550048828125">
        <ele>340.399993896484375</ele>
        <time>2020-08-08T15:52:09.000Z</time>
      </trkpt>
      <trkpt lat="42.24229509942233562469482421875" lon="2.572493590414524078369140625">
        <ele>341.20001220703125</ele>
        <time>2020-08-08T15:52:13.000Z</time>
      </trkpt>
      <trkpt lat="42.24228478968143463134765625" lon="2.5724370963871479034423828125">
        <ele>341.600006103515625</ele>
        <time>2020-08-08T15:52:15.000Z</time>
      </trkpt>
      <trkpt lat="42.24222972057759761810302734375" lon="2.57228546775877475738525390625">
        <ele>342.20001220703125</ele>
        <time>2020-08-08T15:52:21.000Z</time>
      </trkpt>
      <trkpt lat="42.24219300784170627593994140625" lon="2.57221355102956295013427734375">
        <ele>342.79998779296875</ele>
        <time>2020-08-08T15:52:24.000Z</time>
      </trkpt>
      <trkpt lat="42.2421350888907909393310546875" lon="2.5720850564539432525634765625">
        <ele>343.399993896484375</ele>
        <time>2020-08-08T15:52:29.000Z</time>
      </trkpt>
      <trkpt lat="42.2421112842857837677001953125" lon="2.57203602232038974761962890625">
        <ele>344</ele>
        <time>2020-08-08T15:52:31.000Z</time>
      </trkpt>
      <trkpt lat="42.24207448773086071014404296875" lon="2.5719033367931842803955078125">
        <ele>344.600006103515625</ele>
        <time>2020-08-08T15:52:36.000Z</time>
      </trkpt>
      <trkpt lat="42.24206174723803997039794921875" lon="2.571847178041934967041015625">
        <ele>345.20001220703125</ele>
        <time>2020-08-08T15:52:38.000Z</time>
      </trkpt>
      <trkpt lat="42.2420335002243518829345703125" lon="2.57170912809669971466064453125">
        <ele>346.399993896484375</ele>
        <time>2020-08-08T15:52:43.000Z</time>
      </trkpt>
      <trkpt lat="42.24201816134154796600341796875" lon="2.5716572441160678863525390625">
        <ele>347.20001220703125</ele>
        <time>2020-08-08T15:52:45.000Z</time>
      </trkpt>
      <trkpt lat="42.24200441502034664154052734375" lon="2.5716067850589752197265625">
        <ele>347.600006103515625</ele>
        <time>2020-08-08T15:52:47.000Z</time>
      </trkpt>
      <trkpt lat="42.24198094569146633148193359375" lon="2.57150259800255298614501953125">
        <ele>348</ele>
        <time>2020-08-08T15:52:51.000Z</time>
      </trkpt>
      <trkpt lat="42.24196870811283588409423828125" lon="2.57144895382225513458251953125">
        <ele>348.79998779296875</ele>
        <time>2020-08-08T15:52:53.000Z</time>
      </trkpt>
      <trkpt lat="42.24192579276859760284423828125" lon="2.57132942788302898406982421875">
        <ele>350</ele>
        <time>2020-08-08T15:52:58.000Z</time>
      </trkpt>
      <trkpt lat="42.24189050495624542236328125" lon="2.571235634386539459228515625">
        <ele>351.20001220703125</ele>
        <time>2020-08-08T15:53:02.000Z</time>
      </trkpt>
      <trkpt lat="42.24186343140900135040283203125" lon="2.5711982510983943939208984375">
        <ele>351.600006103515625</ele>
        <time>2020-08-08T15:53:04.000Z</time>
      </trkpt>
      <trkpt lat="42.2418293170630931854248046875" lon="2.5711707584559917449951171875">
        <ele>352.399993896484375</ele>
        <time>2020-08-08T15:53:06.000Z</time>
      </trkpt>
      <trkpt lat="42.24177424795925617218017578125" lon="2.5711412541568279266357421875">
        <ele>353.600006103515625</ele>
        <time>2020-08-08T15:53:09.000Z</time>
      </trkpt>
      <trkpt lat="42.2417223639786243438720703125" lon="2.57112801074981689453125">
        <ele>354</ele>
        <time>2020-08-08T15:53:12.000Z</time>
      </trkpt>
      <trkpt lat="42.24168724380433559417724609375" lon="2.57112373597919940948486328125">
        <ele>354.20001220703125</ele>
        <time>2020-08-08T15:53:14.000Z</time>
      </trkpt>
      <trkpt lat="42.24163234233856201171875" lon="2.57110445760190486907958984375">
        <ele>354.79998779296875</ele>
        <time>2020-08-08T15:53:17.000Z</time>
      </trkpt>
      <trkpt lat="42.24158146418631076812744140625" lon="2.57107864134013652801513671875">
        <ele>355.20001220703125</ele>
        <time>2020-08-08T15:53:20.000Z</time>
      </trkpt>
      <trkpt lat="42.24152379669249057769775390625" lon="2.57103522308170795440673828125">
        <ele>355.399993896484375</ele>
        <time>2020-08-08T15:53:24.000Z</time>
      </trkpt>
      <trkpt lat="42.24149622023105621337890625" lon="2.57101041264832019805908203125">
        <ele>355.600006103515625</ele>
        <time>2020-08-08T15:53:26.000Z</time>
      </trkpt>
      <trkpt lat="42.2414351999759674072265625" lon="2.5709442794322967529296875">
        <ele>356.399993896484375</ele>
        <time>2020-08-08T15:53:31.000Z</time>
      </trkpt>
      <trkpt lat="42.2414137423038482666015625" lon="2.5709146074950695037841796875">
        <ele>356.600006103515625</ele>
        <time>2020-08-08T15:53:33.000Z</time>
      </trkpt>
      <trkpt lat="42.24136068485677242279052734375" lon="2.570856772363185882568359375">
        <ele>357</ele>
        <time>2020-08-08T15:53:38.000Z</time>
      </trkpt>
      <trkpt lat="42.24129329435527324676513671875" lon="2.5707922317087650299072265625">
        <ele>357.600006103515625</ele>
        <time>2020-08-08T15:53:43.000Z</time>
      </trkpt>
      <trkpt lat="42.24127736873924732208251953125" lon="2.57077923975884914398193359375">
        <ele>357.79998779296875</ele>
        <time>2020-08-08T15:53:44.000Z</time>
      </trkpt>
      <trkpt lat="42.2412036918103694915771484375" lon="2.57071436382830142974853515625">
        <ele>358.79998779296875</ele>
        <time>2020-08-08T15:53:49.000Z</time>
      </trkpt>
      <trkpt lat="42.24118567071855068206787109375" lon="2.570705898106098175048828125">
        <ele>358.79998779296875</ele>
        <time>2020-08-08T15:53:50.000Z</time>
      </trkpt>
      <trkpt lat="42.241078801453113555908203125" lon="2.570633478462696075439453125">
        <ele>359.399993896484375</ele>
        <time>2020-08-08T15:53:57.000Z</time>
      </trkpt>
      <trkpt lat="42.24104586057364940643310546875" lon="2.57061713375151157379150390625">
        <ele>359.79998779296875</ele>
        <time>2020-08-08T15:53:59.000Z</time>
      </trkpt>
      <trkpt lat="42.24098123610019683837890625" lon="2.570548318326473236083984375">
        <ele>360.399993896484375</ele>
        <time>2020-08-08T15:54:04.000Z</time>
      </trkpt>
      <trkpt lat="42.2409604489803314208984375" lon="2.57049123756587505340576171875">
        <ele>360.79998779296875</ele>
        <time>2020-08-08T15:54:07.000Z</time>
      </trkpt>
      <trkpt lat="42.2409550845623016357421875" lon="2.5704475678503513336181640625">
        <ele>361</ele>
        <time>2020-08-08T15:54:09.000Z</time>
      </trkpt>
      <trkpt lat="42.240966819226741790771484375" lon="2.57037975825369358062744140625">
        <ele>362</ele>
        <time>2020-08-08T15:54:12.000Z</time>
      </trkpt>
      <trkpt lat="42.240984924137592315673828125" lon="2.570338435471057891845703125">
        <ele>362.600006103515625</ele>
        <time>2020-08-08T15:54:14.000Z</time>
      </trkpt>
      <trkpt lat="42.2409944795072078704833984375" lon="2.5703171454370021820068359375">
        <ele>362.79998779296875</ele>
        <time>2020-08-08T15:54:15.000Z</time>
      </trkpt>
      <trkpt lat="42.24102146923542022705078125" lon="2.57025428116321563720703125">
        <ele>363</ele>
        <time>2020-08-08T15:54:18.000Z</time>
      </trkpt>
      <trkpt lat="42.24106949754059314727783203125" lon="2.5701530277729034423828125">
        <ele>363.600006103515625</ele>
        <time>2020-08-08T15:54:23.000Z</time>
      </trkpt>
      <trkpt lat="42.2411071322858333587646484375" lon="2.570049762725830078125">
        <ele>364.20001220703125</ele>
        <time>2020-08-08T15:54:28.000Z</time>
      </trkpt>
      <trkpt lat="42.24111509509384632110595703125" lon="2.5700298137962818145751953125">
        <ele>364.20001220703125</ele>
        <time>2020-08-08T15:54:29.000Z</time>
      </trkpt>
      <trkpt lat="42.24115080200135707855224609375" lon="2.56986594758927822113037109375">
        <ele>364.79998779296875</ele>
        <time>2020-08-08T15:54:36.000Z</time>
      </trkpt>
      <trkpt lat="42.24116052500903606414794921875" lon="2.569788582623004913330078125">
        <ele>365.20001220703125</ele>
        <time>2020-08-08T15:54:39.000Z</time>
      </trkpt>
      <trkpt lat="42.24117745645344257354736328125" lon="2.5697133131325244903564453125">
        <ele>365.20001220703125</ele>
        <time>2020-08-08T15:54:42.000Z</time>
      </trkpt>
      <trkpt lat="42.24119187332689762115478515625" lon="2.56952798925340175628662109375">
        <ele>365.79998779296875</ele>
        <time>2020-08-08T15:54:49.000Z</time>
      </trkpt>
      <trkpt lat="42.24119857884943485260009765625" lon="2.5693763606250286102294921875">
        <ele>365.79998779296875</ele>
        <time>2020-08-08T15:54:56.000Z</time>
      </trkpt>
      <trkpt lat="42.241198159754276275634765625" lon="2.5691641308367252349853515625">
        <ele>365.79998779296875</ele>
        <time>2020-08-08T15:55:03.000Z</time>
      </trkpt>
      <trkpt lat="42.24120830185711383819580078125" lon="2.56893237121403217315673828125">
        <ele>365</ele>
        <time>2020-08-08T15:55:07.000Z</time>
      </trkpt>
      <trkpt lat="42.2412258200347423553466796875" lon="2.5686188042163848876953125">
        <ele>364</ele>
        <time>2020-08-08T15:55:11.000Z</time>
      </trkpt>
      <trkpt lat="42.24124434404075145721435546875" lon="2.56836793385446071624755859375">
        <ele>363.600006103515625</ele>
        <time>2020-08-08T15:55:14.000Z</time>
      </trkpt>
      <trkpt lat="42.2412730939686298370361328125" lon="2.56804472766816616058349609375">
        <ele>363</ele>
        <time>2020-08-08T15:55:18.000Z</time>
      </trkpt>
      <trkpt lat="42.24133193492889404296875" lon="2.5676607526838779449462890625">
        <ele>362.399993896484375</ele>
        <time>2020-08-08T15:55:23.000Z</time>
      </trkpt>
      <trkpt lat="42.241414748132228851318359375" lon="2.56726789288222789764404296875">
        <ele>361.600006103515625</ele>
        <time>2020-08-08T15:55:28.000Z</time>
      </trkpt>
      <trkpt lat="42.24144215695559978485107421875" lon="2.56708198226988315582275390625">
        <ele>361.20001220703125</ele>
        <time>2020-08-08T15:55:30.000Z</time>
      </trkpt>
      <trkpt lat="42.24143444560468196868896484375" lon="2.56687276996672153472900390625">
        <ele>360.399993896484375</ele>
        <time>2020-08-08T15:55:32.000Z</time>
      </trkpt>
      <trkpt lat="42.2414135746657848358154296875" lon="2.56676481105387210845947265625">
        <ele>360</ele>
        <time>2020-08-08T15:55:33.000Z</time>
      </trkpt>
      <trkpt lat="42.24138750694692134857177734375" lon="2.56665450520813465118408203125">
        <ele>359.600006103515625</ele>
        <time>2020-08-08T15:55:34.000Z</time>
      </trkpt>
      <trkpt lat="42.24135800264775753021240234375" lon="2.566539756953716278076171875">
        <ele>358.79998779296875</ele>
        <time>2020-08-08T15:55:35.000Z</time>
      </trkpt>
      <trkpt lat="42.24130150862038135528564453125" lon="2.566295675933361053466796875">
        <ele>357.600006103515625</ele>
        <time>2020-08-08T15:55:37.000Z</time>
      </trkpt>
      <trkpt lat="42.24128541536629199981689453125" lon="2.56616969592869281768798828125">
        <ele>357</ele>
        <time>2020-08-08T15:55:38.000Z</time>
      </trkpt>
      <trkpt lat="42.2412818111479282379150390625" lon="2.56603918969631195068359375">
        <ele>356.20001220703125</ele>
        <time>2020-08-08T15:55:39.000Z</time>
      </trkpt>
      <trkpt lat="42.2412962280213832855224609375" lon="2.56577138788998126983642578125">
        <ele>354.399993896484375</ele>
        <time>2020-08-08T15:55:41.000Z</time>
      </trkpt>
      <trkpt lat="42.241321541368961334228515625" lon="2.565543986856937408447265625">
        <ele>353.20001220703125</ele>
        <time>2020-08-08T15:55:43.000Z</time>
      </trkpt>
      <trkpt lat="42.2413411550223827362060546875" lon="2.56544901989400386810302734375">
        <ele>353</ele>
        <time>2020-08-08T15:55:44.000Z</time>
      </trkpt>
      <trkpt lat="42.2414152510464191436767578125" lon="2.56528280675411224365234375">
        <ele>352</ele>
        <time>2020-08-08T15:55:46.000Z</time>
      </trkpt>
      <trkpt lat="42.24147166125476360321044921875" lon="2.5652065314352512359619140625">
        <ele>351.399993896484375</ele>
        <time>2020-08-08T15:55:47.000Z</time>
      </trkpt>
      <trkpt lat="42.2415393032133579254150390625" lon="2.5651321001350879669189453125">
        <ele>351</ele>
        <time>2020-08-08T15:55:48.000Z</time>
      </trkpt>
      <trkpt lat="42.24164801649749279022216796875" lon="2.56496965885162353515625">
        <ele>349.20001220703125</ele>
        <time>2020-08-08T15:55:50.000Z</time>
      </trkpt>
      <trkpt lat="42.241705767810344696044921875" lon="2.5646677426993846893310546875">
        <ele>348.20001220703125</ele>
        <time>2020-08-08T15:55:53.000Z</time>
      </trkpt>
      <trkpt lat="42.2416633553802967071533203125" lon="2.564257867634296417236328125">
        <ele>347.79998779296875</ele>
        <time>2020-08-08T15:55:57.000Z</time>
      </trkpt>
      <trkpt lat="42.24152530543506145477294921875" lon="2.5639817677438259124755859375">
        <ele>346.600006103515625</ele>
        <time>2020-08-08T15:56:00.000Z</time>
      </trkpt>
      <trkpt lat="42.24146663211286067962646484375" lon="2.56389250047504901885986328125">
        <ele>346</ele>
        <time>2020-08-08T15:56:01.000Z</time>
      </trkpt>
      <trkpt lat="42.24141064099967479705810546875" lon="2.56379862315952777862548828125">
        <ele>345.600006103515625</ele>
        <time>2020-08-08T15:56:02.000Z</time>
      </trkpt>
      <trkpt lat="42.24136613309383392333984375" lon="2.5636994652450084686279296875">
        <ele>345.20001220703125</ele>
        <time>2020-08-08T15:56:03.000Z</time>
      </trkpt>
      <trkpt lat="42.2413334436714649200439453125" lon="2.56359678693115711212158203125">
        <ele>344.600006103515625</ele>
        <time>2020-08-08T15:56:04.000Z</time>
      </trkpt>
      <trkpt lat="42.241314835846424102783203125" lon="2.56349268369376659393310546875">
        <ele>343.79998779296875</ele>
        <time>2020-08-08T15:56:05.000Z</time>
      </trkpt>
      <trkpt lat="42.24130754359066486358642578125" lon="2.56328162737190723419189453125">
        <ele>342.399993896484375</ele>
        <time>2020-08-08T15:56:07.000Z</time>
      </trkpt>
      <trkpt lat="42.24129513837397098541259765625" lon="2.56305917166173458099365234375">
        <ele>341.20001220703125</ele>
        <time>2020-08-08T15:56:09.000Z</time>
      </trkpt>
      <trkpt lat="42.2412804700434207916259765625" lon="2.5629467703402042388916015625">
        <ele>340.399993896484375</ele>
        <time>2020-08-08T15:56:10.000Z</time>
      </trkpt>
      <trkpt lat="42.2412546537816524505615234375" lon="2.56283520720899105072021484375">
        <ele>339.600006103515625</ele>
        <time>2020-08-08T15:56:11.000Z</time>
      </trkpt>
      <trkpt lat="42.2412278316915035247802734375" lon="2.5627241469919681549072265625">
        <ele>338</ele>
        <time>2020-08-08T15:56:12.000Z</time>
      </trkpt>
      <trkpt lat="42.24119983613491058349609375" lon="2.5626148469746112823486328125">
        <ele>336.600006103515625</ele>
        <time>2020-08-08T15:56:13.000Z</time>
      </trkpt>
      <trkpt lat="42.24116303957998752593994140625" lon="2.56250806152820587158203125">
        <ele>335.20001220703125</ele>
        <time>2020-08-08T15:56:14.000Z</time>
      </trkpt>
      <trkpt lat="42.2411161847412586212158203125" lon="2.56240437738597393035888671875">
        <ele>334.20001220703125</ele>
        <time>2020-08-08T15:56:15.000Z</time>
      </trkpt>
      <trkpt lat="42.24106036126613616943359375" lon="2.56229893304407596588134765625">
        <ele>333.600006103515625</ele>
        <time>2020-08-08T15:56:16.000Z</time>
      </trkpt>
      <trkpt lat="42.24100395105779170989990234375" lon="2.56219281814992427825927734375">
        <ele>332.20001220703125</ele>
        <time>2020-08-08T15:56:17.000Z</time>
      </trkpt>
      <trkpt lat="42.24094569683074951171875" lon="2.56209190003573894500732421875">
        <ele>331</ele>
        <time>2020-08-08T15:56:18.000Z</time>
      </trkpt>
      <trkpt lat="42.24088945426046848297119140625" lon="2.5620019622147083282470703125">
        <ele>329.79998779296875</ele>
        <time>2020-08-08T15:56:19.000Z</time>
      </trkpt>
      <trkpt lat="42.24083530716598033905029296875" lon="2.56192333996295928955078125">
        <ele>328.600006103515625</ele>
        <time>2020-08-08T15:56:20.000Z</time>
      </trkpt>
      <trkpt lat="42.24078786559402942657470703125" lon="2.561852596700191497802734375">
        <ele>327</ele>
        <time>2020-08-08T15:56:21.000Z</time>
      </trkpt>
      <trkpt lat="42.2407507337629795074462890625" lon="2.56178830750286579132080078125">
        <ele>325.79998779296875</ele>
        <time>2020-08-08T15:56:22.000Z</time>
      </trkpt>
      <trkpt lat="42.24072969518601894378662109375" lon="2.561725191771984100341796875">
        <ele>324.79998779296875</ele>
        <time>2020-08-08T15:56:23.000Z</time>
      </trkpt>
      <trkpt lat="42.2407470457255840301513671875" lon="2.561595104634761810302734375">
        <ele>323.600006103515625</ele>
        <time>2020-08-08T15:56:25.000Z</time>
      </trkpt>
      <trkpt lat="42.24078116007149219512939453125" lon="2.56152570247650146484375">
        <ele>322.79998779296875</ele>
        <time>2020-08-08T15:56:26.000Z</time>
      </trkpt>
      <trkpt lat="42.2408115863800048828125" lon="2.5614559650421142578125">
        <ele>321.79998779296875</ele>
        <time>2020-08-08T15:56:27.000Z</time>
      </trkpt>
      <trkpt lat="42.24082977510988712310791015625" lon="2.5613247044384479522705078125">
        <ele>320</ele>
        <time>2020-08-08T15:56:29.000Z</time>
      </trkpt>
      <trkpt lat="42.24070907570421695709228515625" lon="2.56121297366917133331298828125">
        <ele>318.79998779296875</ele>
        <time>2020-08-08T15:56:32.000Z</time>
      </trkpt>
      <trkpt lat="42.24055870436131954193115234375" lon="2.561176680028438568115234375">
        <ele>318.20001220703125</ele>
        <time>2020-08-08T15:56:35.000Z</time>
      </trkpt>
      <trkpt lat="42.24050807766616344451904296875" lon="2.561166621744632720947265625">
        <ele>318</ele>
        <time>2020-08-08T15:56:36.000Z</time>
      </trkpt>
      <trkpt lat="42.240453176200389862060546875" lon="2.561145834624767303466796875">
        <ele>317.399993896484375</ele>
        <time>2020-08-08T15:56:37.000Z</time>
      </trkpt>
      <trkpt lat="42.2402845323085784912109375" lon="2.56102882325649261474609375">
        <ele>316.399993896484375</ele>
        <time>2020-08-08T15:56:40.000Z</time>
      </trkpt>
      <trkpt lat="42.24016592837870121002197265625" lon="2.56082237698137760162353515625">
        <ele>315.399993896484375</ele>
        <time>2020-08-08T15:56:43.000Z</time>
      </trkpt>
      <trkpt lat="42.2401370108127593994140625" lon="2.56075012497603893280029296875">
        <ele>315</ele>
        <time>2020-08-08T15:56:44.000Z</time>
      </trkpt>
      <trkpt lat="42.24003517068922519683837890625" lon="2.56053638644516468048095703125">
        <ele>314.79998779296875</ele>
        <time>2020-08-08T15:56:47.000Z</time>
      </trkpt>
      <trkpt lat="42.24000851623713970184326171875" lon="2.56047427654266357421875">
        <ele>314.79998779296875</ele>
        <time>2020-08-08T15:56:48.000Z</time>
      </trkpt>
      <trkpt lat="42.23996358923614025115966796875" lon="2.56033413112163543701171875">
        <ele>314.600006103515625</ele>
        <time>2020-08-08T15:56:50.000Z</time>
      </trkpt>
      <trkpt lat="42.2399179078638553619384765625" lon="2.56016422994434833526611328125">
        <ele>314.399993896484375</ele>
        <time>2020-08-08T15:56:52.000Z</time>
      </trkpt>
      <trkpt lat="42.23989686928689479827880859375" lon="2.56007219664752483367919921875">
        <ele>314</ele>
        <time>2020-08-08T15:56:53.000Z</time>
      </trkpt>
      <trkpt lat="42.23985948599874973297119140625" lon="2.55975351668894290924072265625">
        <ele>312.79998779296875</ele>
        <time>2020-08-08T15:56:56.000Z</time>
      </trkpt>
      <trkpt lat="42.23984087817370891571044921875" lon="2.55964388139545917510986328125">
        <ele>312.600006103515625</ele>
        <time>2020-08-08T15:56:57.000Z</time>
      </trkpt>
      <trkpt lat="42.23977985791862010955810546875" lon="2.55942645482718944549560546875">
        <ele>311.600006103515625</ele>
        <time>2020-08-08T15:56:59.000Z</time>
      </trkpt>
      <trkpt lat="42.23969419486820697784423828125" lon="2.55922612734138965606689453125">
        <ele>311.20001220703125</ele>
        <time>2020-08-08T15:57:01.000Z</time>
      </trkpt>
      <trkpt lat="42.23955505527555942535400390625" lon="2.5588436610996723175048828125">
        <ele>311</ele>
        <time>2020-08-08T15:57:05.000Z</time>
      </trkpt>
      <trkpt lat="42.23952077329158782958984375" lon="2.5587568245828151702880859375">
        <ele>311</ele>
        <time>2020-08-08T15:57:06.000Z</time>
      </trkpt>
      <trkpt lat="42.2394800372421741485595703125" lon="2.55867795087397098541259765625">
        <ele>310.79998779296875</ele>
        <time>2020-08-08T15:57:07.000Z</time>
      </trkpt>
      <trkpt lat="42.23938825540244579315185546875" lon="2.55854384042322635650634765625">
        <ele>310.600006103515625</ele>
        <time>2020-08-08T15:57:09.000Z</time>
      </trkpt>
      <trkpt lat="42.239337377250194549560546875" lon="2.55849069915711879730224609375">
        <ele>310.399993896484375</ele>
        <time>2020-08-08T15:57:10.000Z</time>
      </trkpt>
      <trkpt lat="42.239204607903957366943359375" lon="2.5584091432392597198486328125">
        <ele>309.600006103515625</ele>
        <time>2020-08-08T15:57:12.000Z</time>
      </trkpt>
      <trkpt lat="42.2391323558986186981201171875" lon="2.5583662278950214385986328125">
        <ele>309.399993896484375</ele>
        <time>2020-08-08T15:57:13.000Z</time>
      </trkpt>
      <trkpt lat="42.23905566148459911346435546875" lon="2.55832247436046600341796875">
        <ele>308.600006103515625</ele>
        <time>2020-08-08T15:57:14.000Z</time>
      </trkpt>
      <trkpt lat="42.23897938616573810577392578125" lon="2.5582726858556270599365234375">
        <ele>307.79998779296875</ele>
        <time>2020-08-08T15:57:15.000Z</time>
      </trkpt>
      <trkpt lat="42.23890461958944797515869140625" lon="2.55821594037115573883056640625">
        <ele>307.20001220703125</ele>
        <time>2020-08-08T15:57:16.000Z</time>
      </trkpt>
      <trkpt lat="42.23884058184921741485595703125" lon="2.5581489689648151397705078125">
        <ele>306.20001220703125</ele>
        <time>2020-08-08T15:57:17.000Z</time>
      </trkpt>
      <trkpt lat="42.23878182470798492431640625" lon="2.55808174610137939453125">
        <ele>305.399993896484375</ele>
        <time>2020-08-08T15:57:18.000Z</time>
      </trkpt>
      <trkpt lat="42.23872977308928966522216796875" lon="2.5580195523798465728759765625">
        <ele>305</ele>
        <time>2020-08-08T15:57:19.000Z</time>
      </trkpt>
      <trkpt lat="42.2386832535266876220703125" lon="2.55795777775347232818603515625">
        <ele>304.600006103515625</ele>
        <time>2020-08-08T15:57:20.000Z</time>
      </trkpt>
      <trkpt lat="42.23860220052301883697509765625" lon="2.55783422850072383880615234375">
        <ele>303.79998779296875</ele>
        <time>2020-08-08T15:57:22.000Z</time>
      </trkpt>
      <trkpt lat="42.23855241201817989349365234375" lon="2.55770531482994556427001953125">
        <ele>302.79998779296875</ele>
        <time>2020-08-08T15:57:24.000Z</time>
      </trkpt>
      <trkpt lat="42.23854721523821353912353515625" lon="2.557647228240966796875">
        <ele>302</ele>
        <time>2020-08-08T15:57:25.000Z</time>
      </trkpt>
      <trkpt lat="42.2385545074939727783203125" lon="2.55759987048804759979248046875">
        <ele>301.20001220703125</ele>
        <time>2020-08-08T15:57:26.000Z</time>
      </trkpt>
      <trkpt lat="42.23861879669129848480224609375" lon="2.55752627737820148468017578125">
        <ele>300.399993896484375</ele>
        <time>2020-08-08T15:57:28.000Z</time>
      </trkpt>
      <trkpt lat="42.23866255022585391998291015625" lon="2.5575049035251140594482421875">
        <ele>300.20001220703125</ele>
        <time>2020-08-08T15:57:29.000Z</time>
      </trkpt>
      <trkpt lat="42.2387555055320262908935546875" lon="2.55748420022428035736083984375">
        <ele>299.600006103515625</ele>
        <time>2020-08-08T15:57:31.000Z</time>
      </trkpt>
      <trkpt lat="42.23880889825522899627685546875" lon="2.55748101510107517242431640625">
        <ele>299.399993896484375</ele>
        <time>2020-08-08T15:57:32.000Z</time>
      </trkpt>
      <trkpt lat="42.2389633767306804656982421875" lon="2.5575493276119232177734375">
        <ele>299.600006103515625</ele>
        <time>2020-08-08T15:57:36.000Z</time>
      </trkpt>
      <trkpt lat="42.2389814816415309906005859375" lon="2.557583190500736236572265625">
        <ele>300.20001220703125</ele>
        <time>2020-08-08T15:57:39.000Z</time>
      </trkpt>
      <trkpt lat="42.2389885224401950836181640625" lon="2.55757682025432586669921875">
        <ele>300.600006103515625</ele>
        <time>2020-08-08T15:57:56.000Z</time>
      </trkpt>
      <trkpt lat="42.23899112083017826080322265625" lon="2.55756047554314136505126953125">
        <ele>300.600006103515625</ele>
        <time>2020-08-08T15:58:01.000Z</time>
      </trkpt>
      <trkpt lat="42.2389891929924488067626953125" lon="2.5575528480112552642822265625">
        <ele>300.600006103515625</ele>
        <time>2020-08-08T15:58:03.000Z</time>
      </trkpt>
      <trkpt lat="42.2389560006558895111083984375" lon="2.557518817484378814697265625">
        <ele>300.20001220703125</ele>
        <time>2020-08-08T15:58:10.000Z</time>
      </trkpt>
      <trkpt lat="42.2388872690498828887939453125" lon="2.55748696625232696533203125">
        <ele>299.79998779296875</ele>
        <time>2020-08-08T15:58:13.000Z</time>
      </trkpt>
      <trkpt lat="42.23885315470397472381591796875" lon="2.5574817694723606109619140625">
        <ele>299.600006103515625</ele>
        <time>2020-08-08T15:58:14.000Z</time>
      </trkpt>
      <trkpt lat="42.23868400789797306060791015625" lon="2.55749098956584930419921875">
        <ele>299.600006103515625</ele>
        <time>2020-08-08T15:58:19.000Z</time>
      </trkpt>
      <trkpt lat="42.2385744564235210418701171875" lon="2.55753390491008758544921875">
        <ele>300</ele>
        <time>2020-08-08T15:58:25.000Z</time>
      </trkpt>
      <trkpt lat="42.2385245002806186676025390625" lon="2.55757682025432586669921875">
        <ele>300.399993896484375</ele>
        <time>2020-08-08T15:58:29.000Z</time>
      </trkpt>
      <trkpt lat="42.23849491216242313385009765625" lon="2.55756651051342487335205078125">
        <ele>300.600006103515625</ele>
        <time>2020-08-08T15:58:31.000Z</time>
      </trkpt>
      <trkpt lat="42.23847605288028717041015625" lon="2.55754840560257434844970703125">
        <ele>300</ele>
        <time>2020-08-08T15:58:35.000Z</time>
      </trkpt>
      <trkpt lat="42.238475382328033447265625" lon="2.55754999816417694091796875">
        <ele>299.600006103515625</ele>
        <time>2020-08-08T15:58:51.000Z</time>
      </trkpt>
      <trkpt lat="42.2384713590145111083984375" lon="2.5575437955558300018310546875">
        <ele>300</ele>
        <time>2020-08-08T15:59:05.000Z</time>
      </trkpt>
      <trkpt lat="42.23847278393805027008056640625" lon="2.55754530429840087890625">
        <ele>299.600006103515625</ele>
        <time>2020-08-08T15:59:17.000Z</time>
      </trkpt>
      <trkpt lat="42.23847546614706516265869140625" lon="2.557551674544811248779296875">
        <ele>300</ele>
        <time>2020-08-08T15:59:29.000Z</time>
      </trkpt>
      <trkpt lat="42.238483428955078125" lon="2.55755628459155559539794921875">
        <ele>299.79998779296875</ele>
        <time>2020-08-08T15:59:38.000Z</time>
      </trkpt>
      <trkpt lat="42.238488458096981048583984375" lon="2.557555027306079864501953125">
        <ele>299.79998779296875</ele>
        <time>2020-08-08T15:59:46.000Z</time>
      </trkpt>
      <trkpt lat="42.23852039314806461334228515625" lon="2.5575494952499866485595703125">
        <ele>299.79998779296875</ele>
        <time>2020-08-08T15:59:49.000Z</time>
      </trkpt>
      <trkpt lat="42.23859650082886219024658203125" lon="2.55753449164330959320068359375">
        <ele>300.20001220703125</ele>
        <time>2020-08-08T15:59:55.000Z</time>
      </trkpt>
      <trkpt lat="42.2387181222438812255859375" lon="2.5574958510696887969970703125">
        <ele>299.600006103515625</ele>
        <time>2020-08-08T16:00:00.000Z</time>
      </trkpt>
      <trkpt lat="42.23887092433869838714599609375" lon="2.5575065799057483673095703125">
        <ele>299.600006103515625</ele>
        <time>2020-08-08T16:00:05.000Z</time>
      </trkpt>
      <trkpt lat="42.23896094597876071929931640625" lon="2.55760272033512592315673828125">
        <ele>300.20001220703125</ele>
        <time>2020-08-08T16:00:11.000Z</time>
      </trkpt>
      <trkpt lat="42.23906018771231174468994140625" lon="2.5577627308666706085205078125">
        <ele>300.399993896484375</ele>
        <time>2020-08-08T16:00:18.000Z</time>
      </trkpt>
      <trkpt lat="42.23911634646356105804443359375" lon="2.55781159736216068267822265625">
        <ele>300.79998779296875</ele>
        <time>2020-08-08T16:00:21.000Z</time>
      </trkpt>
      <trkpt lat="42.23916496150195598602294921875" lon="2.55785384215414524078369140625">
        <ele>300.79998779296875</ele>
        <time>2020-08-08T16:00:24.000Z</time>
      </trkpt>
      <trkpt lat="42.23927744664251804351806640625" lon="2.5579179637134075164794921875">
        <ele>301</ele>
        <time>2020-08-08T16:00:31.000Z</time>
      </trkpt>
      <trkpt lat="42.23940636031329631805419921875" lon="2.55798828788101673126220703125">
        <ele>301.399993896484375</ele>
        <time>2020-08-08T16:00:38.000Z</time>
      </trkpt>
      <trkpt lat="42.23958305083215236663818359375" lon="2.55807034671306610107421875">
        <ele>301.600006103515625</ele>
        <time>2020-08-08T16:00:47.000Z</time>
      </trkpt>
      <trkpt lat="42.2396273910999298095703125" lon="2.55808853544294834136962890625">
        <ele>301.79998779296875</ele>
        <time>2020-08-08T16:00:49.000Z</time>
      </trkpt>
      <trkpt lat="42.23975412547588348388671875" lon="2.55807713605463504791259765625">
        <ele>302.79998779296875</ele>
        <time>2020-08-08T16:00:54.000Z</time>
      </trkpt>
      <trkpt lat="42.23991774022579193115234375" lon="2.5580218993127346038818359375">
        <ele>302.600006103515625</ele>
        <time>2020-08-08T16:01:01.000Z</time>
      </trkpt>
      <trkpt lat="42.2399769164621829986572265625" lon="2.55792659707367420196533203125">
        <ele>303.20001220703125</ele>
        <time>2020-08-08T16:01:05.000Z</time>
      </trkpt>
      <trkpt lat="42.239983789622783660888671875" lon="2.5578955002129077911376953125">
        <ele>303.399993896484375</ele>
        <time>2020-08-08T16:01:06.000Z</time>
      </trkpt>
      <trkpt lat="42.2399906627833843231201171875" lon="2.55779768340289592742919921875">
        <ele>303.600006103515625</ele>
        <time>2020-08-08T16:01:09.000Z</time>
      </trkpt>
      <trkpt lat="42.2399772517383098602294921875" lon="2.55773716606199741363525390625">
        <ele>303.399993896484375</ele>
        <time>2020-08-08T16:01:11.000Z</time>
      </trkpt>
      <trkpt lat="42.23992846906185150146484375" lon="2.5575385987758636474609375">
        <ele>304.20001220703125</ele>
        <time>2020-08-08T16:01:18.000Z</time>
      </trkpt>
      <trkpt lat="42.23992444574832916259765625" lon="2.55750984884798526763916015625">
        <ele>304.20001220703125</ele>
        <time>2020-08-08T16:01:19.000Z</time>
      </trkpt>
      <trkpt lat="42.2398639284074306488037109375" lon="2.55731186829507350921630859375">
        <ele>305</ele>
        <time>2020-08-08T16:01:27.000Z</time>
      </trkpt>
      <trkpt lat="42.239836938679218292236328125" lon="2.55723576061427593231201171875">
        <ele>305.20001220703125</ele>
        <time>2020-08-08T16:01:30.000Z</time>
      </trkpt>
      <trkpt lat="42.23979829810559749603271484375" lon="2.55711757577955722808837890625">
        <ele>306.399993896484375</ele>
        <time>2020-08-08T16:01:35.000Z</time>
      </trkpt>
      <trkpt lat="42.23977985791862010955810546875" lon="2.5570003129541873931884765625">
        <ele>307.399993896484375</ele>
        <time>2020-08-08T16:01:40.000Z</time>
      </trkpt>
      <trkpt lat="42.23979142494499683380126953125" lon="2.55693082697689533233642578125">
        <ele>308</ele>
        <time>2020-08-08T16:01:43.000Z</time>
      </trkpt>
      <trkpt lat="42.23980885930359363555908203125" lon="2.55686678923666477203369140625">
        <ele>308.600006103515625</ele>
        <time>2020-08-08T16:01:46.000Z</time>
      </trkpt>
      <trkpt lat="42.23982159979641437530517578125" lon="2.5567741692066192626953125">
        <ele>309.79998779296875</ele>
        <time>2020-08-08T16:01:50.000Z</time>
      </trkpt>
      <trkpt lat="42.23982654511928558349609375" lon="2.5567290745675563812255859375">
        <ele>310.20001220703125</ele>
        <time>2020-08-08T16:01:52.000Z</time>
      </trkpt>
      <trkpt lat="42.23983517847955226898193359375" lon="2.55663762800395488739013671875">
        <ele>310.79998779296875</ele>
        <time>2020-08-08T16:01:56.000Z</time>
      </trkpt>
      <trkpt lat="42.239830903708934783935546875" lon="2.55657040514051914215087890625">
        <ele>311.399993896484375</ele>
        <time>2020-08-08T16:01:59.000Z</time>
      </trkpt>
      <trkpt lat="42.23982964642345905303955078125" lon="2.556547857820987701416015625">
        <ele>311.79998779296875</ele>
        <time>2020-08-08T16:02:00.000Z</time>
      </trkpt>
      <trkpt lat="42.23981355316936969757080078125" lon="2.55643612705171108245849609375">
        <ele>313.20001220703125</ele>
        <time>2020-08-08T16:02:05.000Z</time>
      </trkpt>
      <trkpt lat="42.23979645408689975738525390625" lon="2.5563746877014636993408203125">
        <ele>314</ele>
        <time>2020-08-08T16:02:08.000Z</time>
      </trkpt>
      <trkpt lat="42.23979058675467967987060546875" lon="2.55635482259094715118408203125">
        <ele>314.20001220703125</ele>
        <time>2020-08-08T16:02:09.000Z</time>
      </trkpt>
      <trkpt lat="42.23973258398473262786865234375" lon="2.55623395554721355438232421875">
        <ele>315.399993896484375</ele>
        <time>2020-08-08T16:02:16.000Z</time>
      </trkpt>
      <trkpt lat="42.23963317461311817169189453125" lon="2.556189112365245819091796875">
        <ele>316.600006103515625</ele>
        <time>2020-08-08T16:02:22.000Z</time>
      </trkpt>
      <trkpt lat="42.23961423151195049285888671875" lon="2.5561859272420406341552734375">
        <ele>316.79998779296875</ele>
        <time>2020-08-08T16:02:23.000Z</time>
      </trkpt>
      <trkpt lat="42.23948515020310878753662109375" lon="2.5561322830617427825927734375">
        <ele>317</ele>
        <time>2020-08-08T16:02:30.000Z</time>
      </trkpt>
      <trkpt lat="42.23932371474802494049072265625" lon="2.556144185364246368408203125">
        <ele>317.20001220703125</ele>
        <time>2020-08-08T16:02:38.000Z</time>
      </trkpt>
      <trkpt lat="42.23916496150195598602294921875" lon="2.5562251545488834381103515625">
        <ele>317.600006103515625</ele>
        <time>2020-08-08T16:02:46.000Z</time>
      </trkpt>
      <trkpt lat="42.23914685659110546112060546875" lon="2.5562429241836071014404296875">
        <ele>317.600006103515625</ele>
        <time>2020-08-08T16:02:47.000Z</time>
      </trkpt>
      <trkpt lat="42.2390032745897769927978515625" lon="2.55632154643535614013671875">
        <ele>317.79998779296875</ele>
        <time>2020-08-08T16:02:54.000Z</time>
      </trkpt>
      <trkpt lat="42.23888047970831394195556640625" lon="2.55627251230180263519287109375">
        <ele>318.20001220703125</ele>
        <time>2020-08-08T16:03:00.000Z</time>
      </trkpt>
      <trkpt lat="42.23879951052367687225341796875" lon="2.55613781511783599853515625">
        <ele>318.600006103515625</ele>
        <time>2020-08-08T16:03:06.000Z</time>
      </trkpt>
      <trkpt lat="42.238672859966754913330078125" lon="2.55603245459496974945068359375">
        <ele>318.399993896484375</ele>
        <time>2020-08-08T16:03:11.000Z</time>
      </trkpt>
      <trkpt lat="42.23844445310533046722412109375" lon="2.555869929492473602294921875">
        <ele>317.600006103515625</ele>
        <time>2020-08-08T16:03:17.000Z</time>
      </trkpt>
      <trkpt lat="42.23817673511803150177001953125" lon="2.55563548766076564788818359375">
        <ele>316.600006103515625</ele>
        <time>2020-08-08T16:03:23.000Z</time>
      </trkpt>
      <trkpt lat="42.23812677897512912750244140625" lon="2.55559408105909824371337890625">
        <ele>316.399993896484375</ele>
        <time>2020-08-08T16:03:24.000Z</time>
      </trkpt>
      <trkpt lat="42.23792762495577335357666015625" lon="2.55538738332688808441162109375">
        <ele>315.600006103515625</ele>
        <time>2020-08-08T16:03:28.000Z</time>
      </trkpt>
      <trkpt lat="42.237884961068630218505859375" lon="2.5553195737302303314208984375">
        <ele>315.399993896484375</ele>
        <time>2020-08-08T16:03:29.000Z</time>
      </trkpt>
      <trkpt lat="42.2377754934132099151611328125" lon="2.55496577359735965728759765625">
        <ele>314.399993896484375</ele>
        <time>2020-08-08T16:03:33.000Z</time>
      </trkpt>
      <trkpt lat="42.23775596357882022857666015625" lon="2.5548706389963626861572265625">
        <ele>314.399993896484375</ele>
        <time>2020-08-08T16:03:34.000Z</time>
      </trkpt>
      <trkpt lat="42.2376879863440990447998046875" lon="2.5545828044414520263671875">
        <ele>313.20001220703125</ele>
        <time>2020-08-08T16:03:37.000Z</time>
      </trkpt>
      <trkpt lat="42.2376561351120471954345703125" lon="2.55449236370623111724853515625">
        <ele>312.600006103515625</ele>
        <time>2020-08-08T16:03:38.000Z</time>
      </trkpt>
      <trkpt lat="42.237565107643604278564453125" lon="2.55433268845081329345703125">
        <ele>311.79998779296875</ele>
        <time>2020-08-08T16:03:40.000Z</time>
      </trkpt>
      <trkpt lat="42.23750433884561061859130859375" lon="2.554264627397060394287109375">
        <ele>311.600006103515625</ele>
        <time>2020-08-08T16:03:41.000Z</time>
      </trkpt>
      <trkpt lat="42.2373617626726627349853515625" lon="2.5541487894952297210693359375">
        <ele>311.20001220703125</ele>
        <time>2020-08-08T16:03:43.000Z</time>
      </trkpt>
      <trkpt lat="42.23721541464328765869140625" lon="2.55401325412094593048095703125">
        <ele>310.399993896484375</ele>
        <time>2020-08-08T16:03:45.000Z</time>
      </trkpt>
      <trkpt lat="42.23707719705998897552490234375" lon="2.55383589304983615875244140625">
        <ele>309</ele>
        <time>2020-08-08T16:03:47.000Z</time>
      </trkpt>
      <trkpt lat="42.2369463555514812469482421875" lon="2.55363531410694122314453125">
        <ele>308.20001220703125</ele>
        <time>2020-08-08T16:03:49.000Z</time>
      </trkpt>
      <trkpt lat="42.236877121031284332275390625" lon="2.55354051478207111358642578125">
        <ele>307.600006103515625</ele>
        <time>2020-08-08T16:03:50.000Z</time>
      </trkpt>
      <trkpt lat="42.2366608679294586181640625" lon="2.55327816121280193328857421875">
        <ele>306.600006103515625</ele>
        <time>2020-08-08T16:03:53.000Z</time>
      </trkpt>
      <trkpt lat="42.236378900706768035888671875" lon="2.552893348038196563720703125">
        <ele>305.399993896484375</ele>
        <time>2020-08-08T16:03:57.000Z</time>
      </trkpt>
      <trkpt lat="42.23619692958891391754150390625" lon="2.55260291509330272674560546875">
        <ele>304</ele>
        <time>2020-08-08T16:04:00.000Z</time>
      </trkpt>
      <trkpt lat="42.236096598207950592041015625" lon="2.55242588929831981658935546875">
        <ele>302.79998779296875</ele>
        <time>2020-08-08T16:04:02.000Z</time>
      </trkpt>
      <trkpt lat="42.23598696291446685791015625" lon="2.552274763584136962890625">
        <ele>301.79998779296875</ele>
        <time>2020-08-08T16:04:04.000Z</time>
      </trkpt>
      <trkpt lat="42.23591965623199939727783203125" lon="2.55220837891101837158203125">
        <ele>301.399993896484375</ele>
        <time>2020-08-08T16:04:05.000Z</time>
      </trkpt>
      <trkpt lat="42.2358429618179798126220703125" lon="2.552151717245578765869140625">
        <ele>300.600006103515625</ele>
        <time>2020-08-08T16:04:06.000Z</time>
      </trkpt>
      <trkpt lat="42.23566836677491664886474609375" lon="2.5520831532776355743408203125">
        <ele>299.399993896484375</ele>
        <time>2020-08-08T16:04:08.000Z</time>
      </trkpt>
      <trkpt lat="42.23557616584002971649169921875" lon="2.55206295289099216461181640625">
        <ele>298.79998779296875</ele>
        <time>2020-08-08T16:04:09.000Z</time>
      </trkpt>
      <trkpt lat="42.23548446781933307647705078125" lon="2.55203579552471637725830078125">
        <ele>298.20001220703125</ele>
        <time>2020-08-08T16:04:10.000Z</time>
      </trkpt>
      <trkpt lat="42.23531096242368221282958984375" lon="2.55194392986595630645751953125">
        <ele>297.399993896484375</ele>
        <time>2020-08-08T16:04:12.000Z</time>
      </trkpt>
      <trkpt lat="42.235229909420013427734375" lon="2.55188190378248691558837890625">
        <ele>297</ele>
        <time>2020-08-08T16:04:13.000Z</time>
      </trkpt>
      <trkpt lat="42.23515011370182037353515625" lon="2.55181484855711460113525390625">
        <ele>296.79998779296875</ele>
        <time>2020-08-08T16:04:14.000Z</time>
      </trkpt>
      <trkpt lat="42.23492749035358428955078125" lon="2.5516181252896785736083984375">
        <ele>295.79998779296875</ele>
        <time>2020-08-08T16:04:17.000Z</time>
      </trkpt>
      <trkpt lat="42.23476530052721500396728515625" lon="2.551454007625579833984375">
        <ele>294.600006103515625</ele>
        <time>2020-08-08T16:04:20.000Z</time>
      </trkpt>
      <trkpt lat="42.2347204573452472686767578125" lon="2.5513991899788379669189453125">
        <ele>294.399993896484375</ele>
        <time>2020-08-08T16:04:21.000Z</time>
      </trkpt>
      <trkpt lat="42.23458726890385150909423828125" lon="2.5512349046766757965087890625">
        <ele>293.600006103515625</ele>
        <time>2020-08-08T16:04:24.000Z</time>
      </trkpt>
      <trkpt lat="42.23439632914960384368896484375" lon="2.5510637462139129638671875">
        <ele>292.399993896484375</ele>
        <time>2020-08-08T16:04:28.000Z</time>
      </trkpt>
      <trkpt lat="42.23434679210186004638671875" lon="2.5510334037244319915771484375">
        <ele>292</ele>
        <time>2020-08-08T16:04:29.000Z</time>
      </trkpt>
      <trkpt lat="42.23415308631956577301025390625" lon="2.55096961744129657745361328125">
        <ele>291.399993896484375</ele>
        <time>2020-08-08T16:04:33.000Z</time>
      </trkpt>
      <trkpt lat="42.23405451513826847076416015625" lon="2.55095955915749073028564453125">
        <ele>291</ele>
        <time>2020-08-08T16:04:35.000Z</time>
      </trkpt>
      <trkpt lat="42.23390758037567138671875" lon="2.55097632296383380889892578125">
        <ele>290.600006103515625</ele>
        <time>2020-08-08T16:04:38.000Z</time>
      </trkpt>
      <trkpt lat="42.2338390164077281951904296875" lon="2.55096877925097942352294921875">
        <ele>290.600006103515625</ele>
        <time>2020-08-08T16:04:40.000Z</time>
      </trkpt>
      <trkpt lat="42.23382082767784595489501953125" lon="2.55094581283628940582275390625">
        <ele>290.600006103515625</ele>
        <time>2020-08-08T16:04:41.000Z</time>
      </trkpt>
      <trkpt lat="42.23380825482308864593505859375" lon="2.55091865547001361846923828125">
        <ele>290.20001220703125</ele>
        <time>2020-08-08T16:04:42.000Z</time>
      </trkpt>
      <trkpt lat="42.2337104380130767822265625" lon="2.55082360468804836273193359375">
        <ele>289.600006103515625</ele>
        <time>2020-08-08T16:04:46.000Z</time>
      </trkpt>
      <trkpt lat="42.23367464728653430938720703125" lon="2.550802566111087799072265625">
        <ele>289.600006103515625</ele>
        <time>2020-08-08T16:04:49.000Z</time>
      </trkpt>
      <trkpt lat="42.23367414437234401702880859375" lon="2.55080298520624637603759765625">
        <ele>289.399993896484375</ele>
        <time>2020-08-08T16:04:50.000Z</time>
      </trkpt>
      <trkpt lat="42.2336754016578197479248046875" lon="2.5508008897304534912109375">
        <ele>289.600006103515625</ele>
        <time>2020-08-08T16:05:11.000Z</time>
      </trkpt>
      <trkpt lat="42.2336059994995594024658203125" lon="2.55076845176517963409423828125">
        <ele>289.20001220703125</ele>
        <time>2020-08-08T16:05:15.000Z</time>
      </trkpt>
      <trkpt lat="42.23344246856868267059326171875" lon="2.55067742429673671722412109375">
        <ele>288.600006103515625</ele>
        <time>2020-08-08T16:05:20.000Z</time>
      </trkpt>
      <trkpt lat="42.233386896550655364990234375" lon="2.55051791667938232421875">
        <ele>288.399993896484375</ele>
        <time>2020-08-08T16:05:24.000Z</time>
      </trkpt>
      <trkpt lat="42.2334360145032405853271484375" lon="2.550269477069377899169921875">
        <ele>288.600006103515625</ele>
        <time>2020-08-08T16:05:30.000Z</time>
      </trkpt>
      <trkpt lat="42.233449928462505340576171875" lon="2.55002246238291263580322265625">
        <ele>289.20001220703125</ele>
        <time>2020-08-08T16:05:36.000Z</time>
      </trkpt>
      <trkpt lat="42.233404330909252166748046875" lon="2.549881227314472198486328125">
        <ele>290.20001220703125</ele>
        <time>2020-08-08T16:05:41.000Z</time>
      </trkpt>
      <trkpt lat="42.23338119685649871826171875" lon="2.54982733167707920074462890625">
        <ele>290.399993896484375</ele>
        <time>2020-08-08T16:05:43.000Z</time>
      </trkpt>
      <trkpt lat="42.23328731954097747802734375" lon="2.54967578686773777008056640625">
        <ele>291.20001220703125</ele>
        <time>2020-08-08T16:05:49.000Z</time>
      </trkpt>
      <trkpt lat="42.2331713140010833740234375" lon="2.5494847632944583892822265625">
        <ele>291.79998779296875</ele>
        <time>2020-08-08T16:05:56.000Z</time>
      </trkpt>
      <trkpt lat="42.2330380417406558990478515625" lon="2.5493068993091583251953125">
        <ele>292.399993896484375</ele>
        <time>2020-08-08T16:06:03.000Z</time>
      </trkpt>
      <trkpt lat="42.23295145668089389801025390625" lon="2.54921796731650829315185546875">
        <ele>292.79998779296875</ele>
        <time>2020-08-08T16:06:07.000Z</time>
      </trkpt>
      <trkpt lat="42.23285741172730922698974609375" lon="2.54914789460599422454833984375">
        <ele>293</ele>
        <time>2020-08-08T16:06:11.000Z</time>
      </trkpt>
      <trkpt lat="42.23265825770795345306396484375" lon="2.5490359961986541748046875">
        <ele>293</ele>
        <time>2020-08-08T16:06:18.000Z</time>
      </trkpt>
      <trkpt lat="42.2324097342789173126220703125" lon="2.54894773475825786590576171875">
        <ele>293</ele>
        <time>2020-08-08T16:06:25.000Z</time>
      </trkpt>
      <trkpt lat="42.232189960777759552001953125" lon="2.548780180513858795166015625">
        <ele>292.79998779296875</ele>
        <time>2020-08-08T16:06:32.000Z</time>
      </trkpt>
      <trkpt lat="42.2319628112018108367919921875" lon="2.54852629266679286956787109375">
        <ele>292.20001220703125</ele>
        <time>2020-08-08T16:06:40.000Z</time>
      </trkpt>
      <trkpt lat="42.23179458640515804290771484375" lon="2.548356391489505767822265625">
        <ele>292</ele>
        <time>2020-08-08T16:06:47.000Z</time>
      </trkpt>
      <trkpt lat="42.23170540295541286468505859375" lon="2.54827265627682209014892578125">
        <ele>291.600006103515625</ele>
        <time>2020-08-08T16:06:50.000Z</time>
      </trkpt>
      <trkpt lat="42.23160129971802234649658203125" lon="2.5482258014380931854248046875">
        <ele>291</ele>
        <time>2020-08-08T16:06:53.000Z</time>
      </trkpt>
      <trkpt lat="42.23143449984490871429443359375" lon="2.54825480282306671142578125">
        <ele>290.600006103515625</ele>
        <time>2020-08-08T16:06:57.000Z</time>
      </trkpt>
      <trkpt lat="42.231387980282306671142578125" lon="2.548269219696521759033203125">
        <ele>290.399993896484375</ele>
        <time>2020-08-08T16:06:58.000Z</time>
      </trkpt>
      <trkpt lat="42.23129846155643463134765625" lon="2.5482988916337490081787109375">
        <ele>289.20001220703125</ele>
        <time>2020-08-08T16:07:00.000Z</time>
      </trkpt>
      <trkpt lat="42.2311457432806491851806640625" lon="2.54832546226680278778076171875">
        <ele>288.20001220703125</ele>
        <time>2020-08-08T16:07:04.000Z</time>
      </trkpt>
      <trkpt lat="42.23102353513240814208984375" lon="2.548342980444431304931640625">
        <ele>288</ele>
        <time>2020-08-08T16:07:07.000Z</time>
      </trkpt>
      <trkpt lat="42.230936028063297271728515625" lon="2.54834172315895557403564453125">
        <ele>287.600006103515625</ele>
        <time>2020-08-08T16:07:09.000Z</time>
      </trkpt>
      <trkpt lat="42.23084650933742523193359375" lon="2.54832009784877300262451171875">
        <ele>286.79998779296875</ele>
        <time>2020-08-08T16:07:11.000Z</time>
      </trkpt>
      <trkpt lat="42.2307548113167285919189453125" lon="2.5482797808945178985595703125">
        <ele>285.600006103515625</ele>
        <time>2020-08-08T16:07:13.000Z</time>
      </trkpt>
      <trkpt lat="42.23066235892474651336669921875" lon="2.54819990135729312896728515625">
        <ele>284</ele>
        <time>2020-08-08T16:07:15.000Z</time>
      </trkpt>
      <trkpt lat="42.23061726428568363189697265625" lon="2.54815757274627685546875">
        <ele>282.79998779296875</ele>
        <time>2020-08-08T16:07:16.000Z</time>
      </trkpt>
      <trkpt lat="42.2305412404239177703857421875" lon="2.54807241261005401611328125">
        <ele>282.399993896484375</ele>
        <time>2020-08-08T16:07:19.000Z</time>
      </trkpt>
      <trkpt lat="42.2304932959377765655517578125" lon="2.5480206124484539031982421875">
        <ele>284.399993896484375</ele>
        <time>2020-08-08T16:07:22.000Z</time>
      </trkpt>
      <trkpt lat="42.2304627858102321624755859375" lon="2.54798800684511661529541015625">
        <ele>285.399993896484375</ele>
        <time>2020-08-08T16:07:24.000Z</time>
      </trkpt>
      <trkpt lat="42.23044878803193569183349609375" lon="2.54797375760972499847412109375">
        <ele>285.600006103515625</ele>
        <time>2020-08-08T16:07:25.000Z</time>
      </trkpt>
      <trkpt lat="42.2303839959204196929931640625" lon="2.5478962250053882598876953125">
        <ele>286.600006103515625</ele>
        <time>2020-08-08T16:07:30.000Z</time>
      </trkpt>
      <trkpt lat="42.2303684055805206298828125" lon="2.5478844903409481048583984375">
        <ele>286.600006103515625</ele>
        <time>2020-08-08T16:07:31.000Z</time>
      </trkpt>
      <trkpt lat="42.23026908002793788909912109375" lon="2.54778097383677959442138671875">
        <ele>286.79998779296875</ele>
        <time>2020-08-08T16:07:37.000Z</time>
      </trkpt>
      <trkpt lat="42.230135388672351837158203125" lon="2.547631524503231048583984375">
        <ele>287.399993896484375</ele>
        <time>2020-08-08T16:07:44.000Z</time>
      </trkpt>
      <trkpt lat="42.22995593212544918060302734375" lon="2.5474415905773639678955078125">
        <ele>287.399993896484375</ele>
        <time>2020-08-08T16:07:52.000Z</time>
      </trkpt>
      <trkpt lat="42.22978795878589153289794921875" lon="2.5472370721399784088134765625">
        <ele>286.79998779296875</ele>
        <time>2020-08-08T16:07:59.000Z</time>
      </trkpt>
      <trkpt lat="42.22963658161461353302001953125" lon="2.5471197254955768585205078125">
        <ele>285.79998779296875</ele>
        <time>2020-08-08T16:08:04.000Z</time>
      </trkpt>
      <trkpt lat="42.2295290417969226837158203125" lon="2.5470389239490032196044921875">
        <ele>284.600006103515625</ele>
        <time>2020-08-08T16:08:07.000Z</time>
      </trkpt>
      <trkpt lat="42.2294485755264759063720703125" lon="2.546934820711612701416015625">
        <ele>284.600006103515625</ele>
        <time>2020-08-08T16:08:10.000Z</time>
      </trkpt>
      <trkpt lat="42.2293191589415073394775390625" lon="2.54667439498007297515869140625">
        <ele>283.600006103515625</ele>
        <time>2020-08-08T16:08:16.000Z</time>
      </trkpt>
      <trkpt lat="42.229249589145183563232421875" lon="2.54652888514101505279541015625">
        <ele>282.600006103515625</ele>
        <time>2020-08-08T16:08:19.000Z</time>
      </trkpt>
      <trkpt lat="42.22922838293015956878662109375" lon="2.54646568559110164642333984375">
        <ele>282.399993896484375</ele>
        <time>2020-08-08T16:08:21.000Z</time>
      </trkpt>
      <trkpt lat="42.22920156084001064300537109375" lon="2.54641170613467693328857421875">
        <ele>281.79998779296875</ele>
        <time>2020-08-08T16:08:25.000Z</time>
      </trkpt>
      <trkpt lat="42.22918814979493618011474609375" lon="2.546411789953708648681640625">
        <ele>281.79998779296875</ele>
        <time>2020-08-08T16:08:26.000Z</time>
      </trkpt>
      <trkpt lat="42.22915931604802608489990234375" lon="2.54644640721380710601806640625">
        <ele>281.79998779296875</ele>
        <time>2020-08-08T16:08:29.000Z</time>
      </trkpt>
      <trkpt lat="42.2291397862136363983154296875" lon="2.5464756600558757781982421875">
        <ele>281.79998779296875</ele>
        <time>2020-08-08T16:08:31.000Z</time>
      </trkpt>
      <trkpt lat="42.2290039993822574615478515625" lon="2.54656828008592128753662109375">
        <ele>282.399993896484375</ele>
        <time>2020-08-08T16:08:39.000Z</time>
      </trkpt>
      <trkpt lat="42.22884817980229854583740234375" lon="2.54667322151362895965576171875">
        <ele>282.20001220703125</ele>
        <time>2020-08-08T16:08:47.000Z</time>
      </trkpt>
      <trkpt lat="42.22872965969145298004150390625" lon="2.54682719707489013671875">
        <ele>282.20001220703125</ele>
        <time>2020-08-08T16:08:53.000Z</time>
      </trkpt>
      <trkpt lat="42.2286854870617389678955078125" lon="2.54691730253398418426513671875">
        <ele>281.600006103515625</ele>
        <time>2020-08-08T16:08:56.000Z</time>
      </trkpt>
      <trkpt lat="42.2286546416580677032470703125" lon="2.54701134748756885528564453125">
        <ele>281.600006103515625</ele>
        <time>2020-08-08T16:08:59.000Z</time>
      </trkpt>
      <trkpt lat="42.2286150790750980377197265625" lon="2.547210752964019775390625">
        <ele>281</ele>
        <time>2020-08-08T16:09:05.000Z</time>
      </trkpt>
      <trkpt lat="42.228548862040042877197265625" lon="2.54747453145682811737060546875">
        <ele>281.20001220703125</ele>
        <time>2020-08-08T16:09:12.000Z</time>
      </trkpt>
      <trkpt lat="42.22853100858628749847412109375" lon="2.54772045649588108062744140625">
        <ele>280.399993896484375</ele>
        <time>2020-08-08T16:09:19.000Z</time>
      </trkpt>
      <trkpt lat="42.2285037674009799957275390625" lon="2.5480152480304241180419921875">
        <ele>280.20001220703125</ele>
        <time>2020-08-08T16:09:27.000Z</time>
      </trkpt>
      <trkpt lat="42.2284739278256893157958984375" lon="2.5483283959329128265380859375">
        <ele>279.20001220703125</ele>
        <time>2020-08-08T16:09:35.000Z</time>
      </trkpt>
      <trkpt lat="42.22848750650882720947265625" lon="2.54852847196161746978759765625">
        <ele>279.600006103515625</ele>
        <time>2020-08-08T16:09:40.000Z</time>
      </trkpt>
      <trkpt lat="42.228509970009326934814453125" lon="2.5486992113292217254638671875">
        <ele>279.600006103515625</ele>
        <time>2020-08-08T16:09:46.000Z</time>
      </trkpt>
      <trkpt lat="42.228514663875102996826171875" lon="2.5487555377185344696044921875">
        <ele>280.20001220703125</ele>
        <time>2020-08-08T16:09:48.000Z</time>
      </trkpt>
      <trkpt lat="42.228509970009326934814453125" lon="2.54881077446043491363525390625">
        <ele>280.20001220703125</ele>
        <time>2020-08-08T16:09:50.000Z</time>
      </trkpt>
      <trkpt lat="42.22844853065907955169677734375" lon="2.548959888517856597900390625">
        <ele>279</ele>
        <time>2020-08-08T16:09:56.000Z</time>
      </trkpt>
      <trkpt lat="42.2284259833395481109619140625" lon="2.54900674335658550262451171875">
        <ele>278.20001220703125</ele>
        <time>2020-08-08T16:09:58.000Z</time>
      </trkpt>
      <trkpt lat="42.22840779460966587066650390625" lon="2.5490378402173519134521484375">
        <ele>278</ele>
        <time>2020-08-08T16:10:00.000Z</time>
      </trkpt>
      <trkpt lat="42.228406034409999847412109375" lon="2.54904873669147491455078125">
        <ele>277.600006103515625</ele>
        <time>2020-08-08T16:10:02.000Z</time>
      </trkpt>
      <trkpt lat="42.22840930335223674774169921875" lon="2.54906080663204193115234375">
        <ele>277.600006103515625</ele>
        <time>2020-08-08T16:10:12.000Z</time>
      </trkpt>
      <trkpt lat="42.22839362919330596923828125" lon="2.5490780733525753021240234375">
        <ele>277.399993896484375</ele>
        <time>2020-08-08T16:10:20.000Z</time>
      </trkpt>
      <trkpt lat="42.22837963141500949859619140625" lon="2.54909827373921871185302734375">
        <ele>277.20001220703125</ele>
        <time>2020-08-08T16:10:25.000Z</time>
      </trkpt>
      <trkpt lat="42.22837326116859912872314453125" lon="2.549104392528533935546875">
        <ele>277.20001220703125</ele>
        <time>2020-08-08T16:10:29.000Z</time>
      </trkpt>
      <trkpt lat="42.2283621132373809814453125" lon="2.54912710748612880706787109375">
        <ele>277.399993896484375</ele>
        <time>2020-08-08T16:10:40.000Z</time>
      </trkpt>
      <trkpt lat="42.22836186178028583526611328125" lon="2.54914102144539356231689453125">
        <ele>277.399993896484375</ele>
        <time>2020-08-08T16:10:50.000Z</time>
      </trkpt>
      <trkpt lat="42.2283594310283660888671875" lon="2.54915325902402400970458984375">
        <ele>277.20001220703125</ele>
        <time>2020-08-08T16:10:58.000Z</time>
      </trkpt>
      <trkpt lat="42.22835381515324115753173828125" lon="2.54915158264338970184326171875">
        <ele>277.600006103515625</ele>
        <time>2020-08-08T16:11:04.000Z</time>
      </trkpt>
      <trkpt lat="42.2283446788787841796875" lon="2.54914638586342334747314453125">
        <ele>277.20001220703125</ele>
        <time>2020-08-08T16:11:14.000Z</time>
      </trkpt>
      <trkpt lat="42.22833436913788318634033203125" lon="2.54914571531116962432861328125">
        <ele>277.20001220703125</ele>
        <time>2020-08-08T16:11:21.000Z</time>
      </trkpt>
      <trkpt lat="42.22830737940967082977294921875" lon="2.54915468394756317138671875">
        <ele>277.399993896484375</ele>
        <time>2020-08-08T16:11:30.000Z</time>
      </trkpt>
      <trkpt lat="42.228278629481792449951171875" lon="2.5491843558847904205322265625">
        <ele>277.20001220703125</ele>
        <time>2020-08-08T16:11:34.000Z</time>
      </trkpt>
      <trkpt lat="42.2282687388360500335693359375" lon="2.549206316471099853515625">
        <ele>277.399993896484375</ele>
        <time>2020-08-08T16:11:36.000Z</time>
      </trkpt>
      <trkpt lat="42.2282523103058338165283203125" lon="2.54925954155623912811279296875">
        <ele>277.600006103515625</ele>
        <time>2020-08-08T16:11:43.000Z</time>
      </trkpt>
      <trkpt lat="42.228191792964935302734375" lon="2.5493188016116619110107421875">
        <ele>278.20001220703125</ele>
        <time>2020-08-08T16:11:51.000Z</time>
      </trkpt>
      <trkpt lat="42.22817092202603816986083984375" lon="2.54935258068144321441650390625">
        <ele>278.399993896484375</ele>
        <time>2020-08-08T16:11:55.000Z</time>
      </trkpt>
      <trkpt lat="42.22816698253154754638671875" lon="2.54936867393553256988525390625">
        <ele>278.399993896484375</ele>
        <time>2020-08-08T16:11:58.000Z</time>
      </trkpt>
      <trkpt lat="42.22816907800734043121337890625" lon="2.5493664108216762542724609375">
        <ele>278.600006103515625</ele>
        <time>2020-08-08T16:12:17.000Z</time>
      </trkpt>
      <trkpt lat="42.22816790454089641571044921875" lon="2.549368925392627716064453125">
        <ele>278.600006103515625</ele>
        <time>2020-08-08T16:13:18.000Z</time>
      </trkpt>
      <trkpt lat="42.228155918419361114501953125" lon="2.54942416213452816009521484375">
        <ele>278.600006103515625</ele>
        <time>2020-08-08T16:13:26.000Z</time>
      </trkpt>
      <trkpt lat="42.228125743567943572998046875" lon="2.5495555065572261810302734375">
        <ele>278</ele>
        <time>2020-08-08T16:13:32.000Z</time>
      </trkpt>
      <trkpt lat="42.22805860452353954315185546875" lon="2.54967109300196170806884765625">
        <ele>277.79998779296875</ele>
        <time>2020-08-08T16:13:38.000Z</time>
      </trkpt>
      <trkpt lat="42.22796087153255939483642578125" lon="2.54977620206773281097412109375">
        <ele>278.399993896484375</ele>
        <time>2020-08-08T16:13:44.000Z</time>
      </trkpt>
      <trkpt lat="42.22784578800201416015625" lon="2.5498914532363414764404296875">
        <ele>278.79998779296875</ele>
        <time>2020-08-08T16:13:50.000Z</time>
      </trkpt>
      <trkpt lat="42.2277376614511013031005859375" lon="2.5499989092350006103515625">
        <ele>278.20001220703125</ele>
        <time>2020-08-08T16:13:55.000Z</time>
      </trkpt>
      <trkpt lat="42.227587960660457611083984375" lon="2.550113238394260406494140625">
        <ele>278</ele>
        <time>2020-08-08T16:14:01.000Z</time>
      </trkpt>
      <trkpt lat="42.22739459015429019927978515625" lon="2.550190351903438568115234375">
        <ele>278</ele>
        <time>2020-08-08T16:14:07.000Z</time>
      </trkpt>
      <trkpt lat="42.2272141277790069580078125" lon="2.55025464110076427459716796875">
        <ele>277.79998779296875</ele>
        <time>2020-08-08T16:14:13.000Z</time>
      </trkpt>
      <trkpt lat="42.227024026215076446533203125" lon="2.55030493251979351043701171875">
        <ele>277.600006103515625</ele>
        <time>2020-08-08T16:14:20.000Z</time>
      </trkpt>
      <trkpt lat="42.2268304042518138885498046875" lon="2.550315074622631072998046875">
        <ele>277.20001220703125</ele>
        <time>2020-08-08T16:14:26.000Z</time>
      </trkpt>
      <trkpt lat="42.22679771482944488525390625" lon="2.5503172539174556732177734375">
        <ele>277.20001220703125</ele>
        <time>2020-08-08T16:14:27.000Z</time>
      </trkpt>
      <trkpt lat="42.22661264240741729736328125" lon="2.55029973573982715606689453125">
        <ele>276.600006103515625</ele>
        <time>2020-08-08T16:14:32.000Z</time>
      </trkpt>
      <trkpt lat="42.22652588970959186553955078125" lon="2.55027760751545429229736328125">
        <ele>276</ele>
        <time>2020-08-08T16:14:34.000Z</time>
      </trkpt>
      <trkpt lat="42.226417176425457000732421875" lon="2.55022983066737651824951171875">
        <ele>275.79998779296875</ele>
        <time>2020-08-08T16:14:37.000Z</time>
      </trkpt>
      <trkpt lat="42.2262818925082683563232421875" lon="2.5501747615635395050048828125">
        <ele>275.20001220703125</ele>
        <time>2020-08-08T16:14:42.000Z</time>
      </trkpt>
      <trkpt lat="42.226254232227802276611328125" lon="2.55016193725168704986572265625">
        <ele>274.79998779296875</ele>
        <time>2020-08-08T16:14:43.000Z</time>
      </trkpt>
      <trkpt lat="42.22604678012430667877197265625" lon="2.54996328614652156829833984375">
        <ele>274.600006103515625</ele>
        <time>2020-08-08T16:14:51.000Z</time>
      </trkpt>
      <trkpt lat="42.225847877562046051025390625" lon="2.54968844354152679443359375">
        <ele>274</ele>
        <time>2020-08-08T16:14:59.000Z</time>
      </trkpt>
      <trkpt lat="42.2257296927273273468017578125" lon="2.5494981743395328521728515625">
        <ele>273.600006103515625</ele>
        <time>2020-08-08T16:15:06.000Z</time>
      </trkpt>
      <trkpt lat="42.2255994379520416259765625" lon="2.54929625429213047027587890625">
        <ele>274</ele>
        <time>2020-08-08T16:15:15.000Z</time>
      </trkpt>
      <trkpt lat="42.22556649707257747650146484375" lon="2.54931159317493438720703125">
        <ele>273.79998779296875</ele>
        <time>2020-08-08T16:15:17.000Z</time>
      </trkpt>
      <trkpt lat="42.2255295328795909881591796875" lon="2.54937521182000637054443359375">
        <ele>273.79998779296875</ele>
        <time>2020-08-08T16:15:20.000Z</time>
      </trkpt>
      <trkpt lat="42.22543456591665744781494140625" lon="2.5494827516376972198486328125">
        <ele>273.79998779296875</ele>
        <time>2020-08-08T16:15:25.000Z</time>
      </trkpt>
      <trkpt lat="42.22536197863519191741943359375" lon="2.5494502298533916473388671875">
        <ele>273.79998779296875</ele>
        <time>2020-08-08T16:15:29.000Z</time>
      </trkpt>
      <trkpt lat="42.22525552846491336822509765625" lon="2.54945643246173858642578125">
        <ele>275</ele>
        <time>2020-08-08T16:15:35.000Z</time>
      </trkpt>
      <trkpt lat="42.22523055039346218109130859375" lon="2.54946607165038585662841796875">
        <ele>275.20001220703125</ele>
        <time>2020-08-08T16:15:41.000Z</time>
      </trkpt>
      <trkpt lat="42.2252291254699230194091796875" lon="2.54946489818394184112548828125">
        <ele>275</ele>
        <time>2020-08-08T16:16:00.000Z</time>
      </trkpt>
      <trkpt lat="42.2252046503126621246337890625" lon="2.54946791566908359527587890625">
        <ele>275.20001220703125</ele>
        <time>2020-08-08T16:16:14.000Z</time>
      </trkpt>
      <trkpt lat="42.22513030283153057098388671875" lon="2.549508400261402130126953125">
        <ele>275.79998779296875</ele>
        <time>2020-08-08T16:16:19.000Z</time>
      </trkpt>
      <trkpt lat="42.22506609745323657989501953125" lon="2.54953295923769474029541015625">
        <ele>275.79998779296875</ele>
        <time>2020-08-08T16:16:22.000Z</time>
      </trkpt>
      <trkpt lat="42.22490667365491390228271484375" lon="2.54960454069077968597412109375">
        <ele>276.79998779296875</ele>
        <time>2020-08-08T16:16:30.000Z</time>
      </trkpt>
      <trkpt lat="42.22488605417311191558837890625" lon="2.5496114976704120635986328125">
        <ele>276.79998779296875</ele>
        <time>2020-08-08T16:16:31.000Z</time>
      </trkpt>
      <trkpt lat="42.22478413023054599761962890625" lon="2.54965919069945812225341796875">
        <ele>277.399993896484375</ele>
        <time>2020-08-08T16:16:36.000Z</time>
      </trkpt>
      <trkpt lat="42.22463862039148807525634765625" lon="2.54971082322299480438232421875">
        <ele>278</ele>
        <time>2020-08-08T16:16:43.000Z</time>
      </trkpt>
      <trkpt lat="42.22461816854774951934814453125" lon="2.54972021095454692840576171875">
        <ele>278.20001220703125</ele>
        <time>2020-08-08T16:16:44.000Z</time>
      </trkpt>
      <trkpt lat="42.22451808862388134002685546875" lon="2.549755163490772247314453125">
        <ele>278.79998779296875</ele>
        <time>2020-08-08T16:16:49.000Z</time>
      </trkpt>
      <trkpt lat="42.2244734130799770355224609375" lon="2.54975457675755023956298828125">
        <ele>279.20001220703125</ele>
        <time>2020-08-08T16:16:52.000Z</time>
      </trkpt>
      <trkpt lat="42.224426306784152984619140625" lon="2.54976220428943634033203125">
        <ele>280</ele>
        <time>2020-08-08T16:16:55.000Z</time>
      </trkpt>
      <trkpt lat="42.224369309842586517333984375" lon="2.549780309200286865234375">
        <ele>280.399993896484375</ele>
        <time>2020-08-08T16:16:59.000Z</time>
      </trkpt>
      <trkpt lat="42.22435145638883113861083984375" lon="2.549786679446697235107421875">
        <ele>280.399993896484375</ele>
        <time>2020-08-08T16:17:00.000Z</time>
      </trkpt>
      <trkpt lat="42.224284149706363677978515625" lon="2.5498307682573795318603515625">
        <ele>281.20001220703125</ele>
        <time>2020-08-08T16:17:04.000Z</time>
      </trkpt>
      <trkpt lat="42.22424483858048915863037109375" lon="2.54988214932382106781005859375">
        <ele>281.399993896484375</ele>
        <time>2020-08-08T16:17:07.000Z</time>
      </trkpt>
      <trkpt lat="42.224191613495349884033203125" lon="2.5499253161251544952392578125">
        <ele>282</ele>
        <time>2020-08-08T16:17:10.000Z</time>
      </trkpt>
      <trkpt lat="42.224099747836589813232421875" lon="2.55001910962164402008056640625">
        <ele>282.399993896484375</ele>
        <time>2020-08-08T16:17:16.000Z</time>
      </trkpt>
      <trkpt lat="42.224082313477993011474609375" lon="2.5500312633812427520751953125">
        <ele>282.79998779296875</ele>
        <time>2020-08-08T16:17:17.000Z</time>
      </trkpt>
      <trkpt lat="42.22400276921689510345458984375" lon="2.55006873048841953277587890625">
        <ele>283.600006103515625</ele>
        <time>2020-08-08T16:17:21.000Z</time>
      </trkpt>
      <trkpt lat="42.223986424505710601806640625" lon="2.55006956867873668670654296875">
        <ele>284</ele>
        <time>2020-08-08T16:17:22.000Z</time>
      </trkpt>
      <trkpt lat="42.2239074669778347015380859375" lon="2.55009018816053867340087890625">
        <ele>285</ele>
        <time>2020-08-08T16:17:27.000Z</time>
      </trkpt>
      <trkpt lat="42.22389212809503078460693359375" lon="2.5500942952930927276611328125">
        <ele>285.20001220703125</ele>
        <time>2020-08-08T16:17:28.000Z</time>
      </trkpt>
      <trkpt lat="42.22378534264862537384033203125" lon="2.5501073710620403289794921875">
        <ele>286</ele>
        <time>2020-08-08T16:17:35.000Z</time>
      </trkpt>
      <trkpt lat="42.22376841120421886444091796875" lon="2.5501103885471820831298828125">
        <ele>286.20001220703125</ele>
        <time>2020-08-08T16:17:36.000Z</time>
      </trkpt>
      <trkpt lat="42.22365953028202056884765625" lon="2.5500976480543613433837890625">
        <ele>287</ele>
        <time>2020-08-08T16:17:43.000Z</time>
      </trkpt>
      <trkpt lat="42.22361770458519458770751953125" lon="2.550091780722141265869140625">
        <ele>287.79998779296875</ele>
        <time>2020-08-08T16:17:46.000Z</time>
      </trkpt>
      <trkpt lat="42.22355618141591548919677734375" lon="2.5500875897705554962158203125">
        <ele>288.600006103515625</ele>
        <time>2020-08-08T16:17:51.000Z</time>
      </trkpt>
      <trkpt lat="42.2235443629324436187744140625" lon="2.5500872544944286346435546875">
        <ele>288.79998779296875</ele>
        <time>2020-08-08T16:17:52.000Z</time>
      </trkpt>
      <trkpt lat="42.22349650226533412933349609375" lon="2.55009354092180728912353515625">
        <ele>289.399993896484375</ele>
        <time>2020-08-08T16:17:56.000Z</time>
      </trkpt>
      <trkpt lat="42.22348644398152828216552734375" lon="2.55009873770177364349365234375">
        <ele>289.600006103515625</ele>
        <time>2020-08-08T16:17:57.000Z</time>
      </trkpt>
      <trkpt lat="42.223474793136119842529296875" lon="2.5501147471368312835693359375">
        <ele>289.79998779296875</ele>
        <time>2020-08-08T16:17:59.000Z</time>
      </trkpt>
      <trkpt lat="42.22346800379455089569091796875" lon="2.55012187175452709197998046875">
        <ele>290</ele>
        <time>2020-08-08T16:18:00.000Z</time>
      </trkpt>
      <trkpt lat="42.223413102328777313232421875" lon="2.55019135773181915283203125">
        <ele>290.600006103515625</ele>
        <time>2020-08-08T16:18:06.000Z</time>
      </trkpt>
      <trkpt lat="42.22336440347135066986083984375" lon="2.5502456724643707275390625">
        <ele>291</ele>
        <time>2020-08-08T16:18:10.000Z</time>
      </trkpt>
      <trkpt lat="42.2233007848262786865234375" lon="2.55029889754951000213623046875">
        <ele>291.20001220703125</ele>
        <time>2020-08-08T16:18:14.000Z</time>
      </trkpt>
      <trkpt lat="42.22316592000424861907958984375" lon="2.55039545707404613494873046875">
        <ele>291.79998779296875</ele>
        <time>2020-08-08T16:18:22.000Z</time>
      </trkpt>
      <trkpt lat="42.22310070879757404327392578125" lon="2.5505479238927364349365234375">
        <ele>291.79998779296875</ele>
        <time>2020-08-08T16:18:28.000Z</time>
      </trkpt>
      <trkpt lat="42.22309048287570476531982421875" lon="2.55060383118689060211181640625">
        <ele>292</ele>
        <time>2020-08-08T16:18:30.000Z</time>
      </trkpt>
      <trkpt lat="42.22307078540325164794921875" lon="2.55070005543529987335205078125">
        <ele>292.399993896484375</ele>
        <time>2020-08-08T16:18:34.000Z</time>
      </trkpt>
      <trkpt lat="42.22301253117620944976806640625" lon="2.55080415867269039154052734375">
        <ele>292.79998779296875</ele>
        <time>2020-08-08T16:18:39.000Z</time>
      </trkpt>
      <trkpt lat="42.2228523530066013336181640625" lon="2.55095939151942729949951171875">
        <ele>292.20001220703125</ele>
        <time>2020-08-08T16:18:45.000Z</time>
      </trkpt>
      <trkpt lat="42.22261170856654644012451171875" lon="2.5512354075908660888671875">
        <ele>291.399993896484375</ele>
        <time>2020-08-08T16:18:52.000Z</time>
      </trkpt>
      <trkpt lat="42.22250081598758697509765625" lon="2.5513864494860172271728515625">
        <ele>291</ele>
        <time>2020-08-08T16:18:55.000Z</time>
      </trkpt>
      <trkpt lat="42.22236511297523975372314453125" lon="2.551586441695690155029296875">
        <ele>290.79998779296875</ele>
        <time>2020-08-08T16:18:59.000Z</time>
      </trkpt>
      <trkpt lat="42.2221978940069675445556640625" lon="2.5518102385103702545166015625">
        <ele>290.20001220703125</ele>
        <time>2020-08-08T16:19:05.000Z</time>
      </trkpt>
      <trkpt lat="42.2221060283482074737548828125" lon="2.551927752792835235595703125">
        <ele>290.20001220703125</ele>
        <time>2020-08-08T16:19:08.000Z</time>
      </trkpt>
      <trkpt lat="42.22207836806774139404296875" lon="2.55197477526962757110595703125">
        <ele>289.79998779296875</ele>
        <time>2020-08-08T16:19:09.000Z</time>
      </trkpt>
      <trkpt lat="42.222014330327510833740234375" lon="2.5520789623260498046875">
        <ele>289.399993896484375</ele>
        <time>2020-08-08T16:19:11.000Z</time>
      </trkpt>
      <trkpt lat="42.22190595231950283050537109375" lon="2.55224919877946376800537109375">
        <ele>288.79998779296875</ele>
        <time>2020-08-08T16:19:14.000Z</time>
      </trkpt>
      <trkpt lat="42.2217928804457187652587890625" lon="2.55243343301117420196533203125">
        <ele>287.600006103515625</ele>
        <time>2020-08-08T16:19:17.000Z</time>
      </trkpt>
      <trkpt lat="42.2217531502246856689453125" lon="2.55249202251434326171875">
        <ele>287.20001220703125</ele>
        <time>2020-08-08T16:19:18.000Z</time>
      </trkpt>
      <trkpt lat="42.22163756377995014190673828125" lon="2.552654631435871124267578125">
        <ele>286.20001220703125</ele>
        <time>2020-08-08T16:19:21.000Z</time>
      </trkpt>
      <trkpt lat="42.221567742526531219482421875" lon="2.5527374446392059326171875">
        <ele>285.600006103515625</ele>
        <time>2020-08-08T16:19:23.000Z</time>
      </trkpt>
      <trkpt lat="42.2215333767235279083251953125" lon="2.55276024341583251953125">
        <ele>285.399993896484375</ele>
        <time>2020-08-08T16:19:24.000Z</time>
      </trkpt>
      <trkpt lat="42.2215015254914760589599609375" lon="2.5527671165764331817626953125">
        <ele>285</ele>
        <time>2020-08-08T16:19:25.000Z</time>
      </trkpt>
      <trkpt lat="42.2214555926620960235595703125" lon="2.55273736082017421722412109375">
        <ele>284.20001220703125</ele>
        <time>2020-08-08T16:19:27.000Z</time>
      </trkpt>
      <trkpt lat="42.2214431874454021453857421875" lon="2.55271707661449909210205078125">
        <ele>284</ele>
        <time>2020-08-08T16:19:28.000Z</time>
      </trkpt>
      <trkpt lat="42.22143991850316524505615234375" lon="2.55270333029329776763916015625">
        <ele>283.600006103515625</ele>
        <time>2020-08-08T16:19:30.000Z</time>
      </trkpt>
      <trkpt lat="42.2214381583034992218017578125" lon="2.55270232446491718292236328125">
        <ele>283.20001220703125</ele>
        <time>2020-08-08T16:19:39.000Z</time>
      </trkpt>
      <trkpt lat="42.22143606282770633697509765625" lon="2.55269511602818965911865234375">
        <ele>283.20001220703125</ele>
        <time>2020-08-08T16:19:51.000Z</time>
      </trkpt>
      <trkpt lat="42.22143606282770633697509765625" lon="2.5526896677911281585693359375">
        <ele>283.399993896484375</ele>
        <time>2020-08-08T16:19:59.000Z</time>
      </trkpt>
      <trkpt lat="42.22143555991351604461669921875" lon="2.55268790759146213531494140625">
        <ele>283</ele>
        <time>2020-08-08T16:20:19.000Z</time>
      </trkpt>
      <trkpt lat="42.22143488936126232147216796875" lon="2.5526863150298595428466796875">
        <ele>283.20001220703125</ele>
        <time>2020-08-08T16:20:26.000Z</time>
      </trkpt>
      <trkpt lat="42.2214321233332157135009765625" lon="2.55267416127026081085205078125">
        <ele>283.399993896484375</ele>
        <time>2020-08-08T16:20:35.000Z</time>
      </trkpt>
      <trkpt lat="42.22144008614122867584228515625" lon="2.5525290705263614654541015625">
        <ele>283.399993896484375</ele>
        <time>2020-08-08T16:20:41.000Z</time>
      </trkpt>
      <trkpt lat="42.22144796513020992279052734375" lon="2.55235414020717144012451171875">
        <ele>283.600006103515625</ele>
        <time>2020-08-08T16:20:47.000Z</time>
      </trkpt>
      <trkpt lat="42.22145249135792255401611328125" lon="2.5520856678485870361328125">
        <ele>284</ele>
        <time>2020-08-08T16:20:55.000Z</time>
      </trkpt>
      <trkpt lat="42.221449054777622222900390625" lon="2.55204685963690280914306640625">
        <ele>284</ele>
        <time>2020-08-08T16:20:56.000Z</time>
      </trkpt>
      <trkpt lat="42.221436314284801483154296875" lon="2.55170789547264575958251953125">
        <ele>284.399993896484375</ele>
        <time>2020-08-08T16:21:04.000Z</time>
      </trkpt>
      <trkpt lat="42.22141125239431858062744140625" lon="2.55134345032274723052978515625">
        <ele>285</ele>
        <time>2020-08-08T16:21:13.000Z</time>
      </trkpt>
      <trkpt lat="42.22140890546143054962158203125" lon="2.5512635707855224609375">
        <ele>285</ele>
        <time>2020-08-08T16:21:15.000Z</time>
      </trkpt>
      <trkpt lat="42.221392057836055755615234375" lon="2.55091798491775989532470703125">
        <ele>285.600006103515625</ele>
        <time>2020-08-08T16:21:24.000Z</time>
      </trkpt>
      <trkpt lat="42.22138342447578907012939453125" lon="2.55077683366835117340087890625">
        <ele>286</ele>
        <time>2020-08-08T16:21:28.000Z</time>
      </trkpt>
      <trkpt lat="42.22137521021068096160888671875" lon="2.55060307681560516357421875">
        <ele>286.399993896484375</ele>
        <time>2020-08-08T16:21:33.000Z</time>
      </trkpt>
      <trkpt lat="42.2213697619736194610595703125" lon="2.55037911236286163330078125">
        <ele>286.399993896484375</ele>
        <time>2020-08-08T16:21:40.000Z</time>
      </trkpt>
      <trkpt lat="42.2213566862046718597412109375" lon="2.55009974353015422821044921875">
        <ele>287</ele>
        <time>2020-08-08T16:21:48.000Z</time>
      </trkpt>
      <trkpt lat="42.2213426046073436737060546875" lon="2.5497962348163127899169921875">
        <ele>287.600006103515625</ele>
        <time>2020-08-08T16:21:57.000Z</time>
      </trkpt>
      <trkpt lat="42.221351154148578643798828125" lon="2.54967461340129375457763671875">
        <ele>288.20001220703125</ele>
        <time>2020-08-08T16:22:01.000Z</time>
      </trkpt>
      <trkpt lat="42.22136087715625762939453125" lon="2.5495347194373607635498046875">
        <ele>289.20001220703125</ele>
        <time>2020-08-08T16:22:06.000Z</time>
      </trkpt>
      <trkpt lat="42.22139985300600528717041015625" lon="2.5493590347468852996826171875">
        <ele>290.20001220703125</ele>
        <time>2020-08-08T16:22:13.000Z</time>
      </trkpt>
      <trkpt lat="42.22146322019398212432861328125" lon="2.54917153157293796539306640625">
        <ele>291.399993896484375</ele>
        <time>2020-08-08T16:22:21.000Z</time>
      </trkpt>
      <trkpt lat="42.221561707556247711181640625" lon="2.54891940392553806304931640625">
        <ele>292.20001220703125</ele>
        <time>2020-08-08T16:22:31.000Z</time>
      </trkpt>
      <trkpt lat="42.22157268784940242767333984375" lon="2.548895180225372314453125">
        <ele>292.600006103515625</ele>
        <time>2020-08-08T16:22:32.000Z</time>
      </trkpt>
      <trkpt lat="42.22161275334656238555908203125" lon="2.5487632490694522857666015625">
        <ele>293.600006103515625</ele>
        <time>2020-08-08T16:22:37.000Z</time>
      </trkpt>
      <trkpt lat="42.22162641584873199462890625" lon="2.54871136508882045745849609375">
        <ele>293.600006103515625</ele>
        <time>2020-08-08T16:22:39.000Z</time>
      </trkpt>
      <trkpt lat="42.22165013663470745086669921875" lon="2.5485060922801494598388671875">
        <ele>294.600006103515625</ele>
        <time>2020-08-08T16:22:46.000Z</time>
      </trkpt>
      <trkpt lat="42.22165164537727832794189453125" lon="2.54847566597163677215576171875">
        <ele>294.600006103515625</ele>
        <time>2020-08-08T16:22:47.000Z</time>
      </trkpt>
      <trkpt lat="42.221649549901485443115234375" lon="2.54821322858333587646484375">
        <ele>295.600006103515625</ele>
        <time>2020-08-08T16:22:56.000Z</time>
      </trkpt>
      <trkpt lat="42.2216470353305339813232421875" lon="2.54818498156964778900146484375">
        <ele>295.79998779296875</ele>
        <time>2020-08-08T16:22:57.000Z</time>
      </trkpt>
      <trkpt lat="42.22164091654121875762939453125" lon="2.54798951558768749237060546875">
        <ele>296.600006103515625</ele>
        <time>2020-08-08T16:23:04.000Z</time>
      </trkpt>
      <trkpt lat="42.2216386534273624420166015625" lon="2.5479631125926971435546875">
        <ele>296.79998779296875</ele>
        <time>2020-08-08T16:23:05.000Z</time>
      </trkpt>
      <trkpt lat="42.2216289304196834564208984375" lon="2.54777544178068637847900390625">
        <ele>297.79998779296875</ele>
        <time>2020-08-08T16:23:12.000Z</time>
      </trkpt>
      <trkpt lat="42.22157687880098819732666015625" lon="2.54761484451591968536376953125">
        <ele>298.79998779296875</ele>
        <time>2020-08-08T16:23:19.000Z</time>
      </trkpt>
      <trkpt lat="42.22156204283237457275390625" lon="2.54759875126183032989501953125">
        <ele>299</ele>
        <time>2020-08-08T16:23:20.000Z</time>
      </trkpt>
      <trkpt lat="42.22145467065274715423583984375" lon="2.547537982463836669921875">
        <ele>299.79998779296875</ele>
        <time>2020-08-08T16:23:26.000Z</time>
      </trkpt>
      <trkpt lat="42.2214366495609283447265625" lon="2.54753060638904571533203125">
        <ele>299.79998779296875</ele>
        <time>2020-08-08T16:23:27.000Z</time>
      </trkpt>
      <trkpt lat="42.22141644917428493499755859375" lon="2.547533623874187469482421875">
        <ele>300</ele>
        <time>2020-08-08T16:23:28.000Z</time>
      </trkpt>
      <trkpt lat="42.22137738950550556182861328125" lon="2.54754577763378620147705078125">
        <ele>300.20001220703125</ele>
        <time>2020-08-08T16:23:30.000Z</time>
      </trkpt>
      <trkpt lat="42.22129105590283870697021484375" lon="2.54759338684380054473876953125">
        <ele>301</ele>
        <time>2020-08-08T16:23:35.000Z</time>
      </trkpt>
      <trkpt lat="42.22127848304808139801025390625" lon="2.54761316813528537750244140625">
        <ele>301.20001220703125</ele>
        <time>2020-08-08T16:23:36.000Z</time>
      </trkpt>
      <trkpt lat="42.2212664969265460968017578125" lon="2.54763462580740451812744140625">
        <ele>301.20001220703125</ele>
        <time>2020-08-08T16:23:37.000Z</time>
      </trkpt>
      <trkpt lat="42.22121335566043853759765625" lon="2.54782506264746189117431640625">
        <ele>301.79998779296875</ele>
        <time>2020-08-08T16:23:44.000Z</time>
      </trkpt>
      <trkpt lat="42.22119390964508056640625" lon="2.54790720529854297637939453125">
        <ele>302.399993896484375</ele>
        <time>2020-08-08T16:23:47.000Z</time>
      </trkpt>
      <trkpt lat="42.22116105258464813232421875" lon="2.54810317419469356536865234375">
        <ele>303</ele>
        <time>2020-08-08T16:23:54.000Z</time>
      </trkpt>
      <trkpt lat="42.2211407683789730072021484375" lon="2.5482110492885112762451171875">
        <ele>303.600006103515625</ele>
        <time>2020-08-08T16:23:58.000Z</time>
      </trkpt>
      <trkpt lat="42.2211099229753017425537109375" lon="2.54834440536797046661376953125">
        <ele>304</ele>
        <time>2020-08-08T16:24:03.000Z</time>
      </trkpt>
      <trkpt lat="42.22108284942805767059326171875" lon="2.54847600124776363372802734375">
        <ele>304.600006103515625</ele>
        <time>2020-08-08T16:24:08.000Z</time>
      </trkpt>
      <trkpt lat="42.22108100540935993194580078125" lon="2.54850332625210285186767578125">
        <ele>304.600006103515625</ele>
        <time>2020-08-08T16:24:09.000Z</time>
      </trkpt>
      <trkpt lat="42.221052087843418121337890625" lon="2.54868529736995697021484375">
        <ele>305.600006103515625</ele>
        <time>2020-08-08T16:24:16.000Z</time>
      </trkpt>
      <trkpt lat="42.22104881890118122100830078125" lon="2.54871253855526447296142578125">
        <ele>305.79998779296875</ele>
        <time>2020-08-08T16:24:17.000Z</time>
      </trkpt>
      <trkpt lat="42.22100405953824520111083984375" lon="2.54892476834356784820556640625">
        <ele>306.399993896484375</ele>
        <time>2020-08-08T16:24:25.000Z</time>
      </trkpt>
      <trkpt lat="42.22098805010318756103515625" lon="2.5490029715001583099365234375">
        <ele>306.600006103515625</ele>
        <time>2020-08-08T16:24:28.000Z</time>
      </trkpt>
      <trkpt lat="42.22096332348883152008056640625" lon="2.54914219491183757781982421875">
        <ele>307.20001220703125</ele>
        <time>2020-08-08T16:24:33.000Z</time>
      </trkpt>
      <trkpt lat="42.2209375910460948944091796875" lon="2.5492812506854534149169921875">
        <ele>307.79998779296875</ele>
        <time>2020-08-08T16:24:38.000Z</time>
      </trkpt>
      <trkpt lat="42.2209104336798191070556640625" lon="2.5493892095983028411865234375">
        <ele>308.399993896484375</ele>
        <time>2020-08-08T16:24:42.000Z</time>
      </trkpt>
      <trkpt lat="42.22087212838232517242431640625" lon="2.54954569973051548004150390625">
        <ele>308.79998779296875</ele>
        <time>2020-08-08T16:24:48.000Z</time>
      </trkpt>
      <trkpt lat="42.22084362991154193878173828125" lon="2.54968249239027500152587890625">
        <ele>309.399993896484375</ele>
        <time>2020-08-08T16:24:53.000Z</time>
      </trkpt>
      <trkpt lat="42.22081898711621761322021484375" lon="2.549818865954875946044921875">
        <ele>310</ele>
        <time>2020-08-08T16:24:58.000Z</time>
      </trkpt>
      <trkpt lat="42.220798619091510772705078125" lon="2.5499031879007816314697265625">
        <ele>310.399993896484375</ele>
        <time>2020-08-08T16:25:01.000Z</time>
      </trkpt>
      <trkpt lat="42.220743633806705474853515625" lon="2.55010527558624744415283203125">
        <ele>311</ele>
        <time>2020-08-08T16:25:09.000Z</time>
      </trkpt>
      <trkpt lat="42.2207414545118808746337890625" lon="2.5501249730587005615234375">
        <ele>311</ele>
        <time>2020-08-08T16:25:10.000Z</time>
      </trkpt>
      <trkpt lat="42.220684625208377838134765625" lon="2.55024231970310211181640625">
        <ele>311.79998779296875</ele>
        <time>2020-08-08T16:25:16.000Z</time>
      </trkpt>
      <trkpt lat="42.220652103424072265625" lon="2.5502778589725494384765625">
        <ele>312.20001220703125</ele>
        <time>2020-08-08T16:25:18.000Z</time>
      </trkpt>
      <trkpt lat="42.220594100654125213623046875" lon="2.550311721861362457275390625">
        <ele>312.399993896484375</ele>
        <time>2020-08-08T16:25:21.000Z</time>
      </trkpt>
      <trkpt lat="42.22045253030955791473388671875" lon="2.55032680928707122802734375">
        <ele>313.20001220703125</ele>
        <time>2020-08-08T16:25:28.000Z</time>
      </trkpt>
      <trkpt lat="42.22029344178736209869384765625" lon="2.55029437132179737091064453125">
        <ele>313.79998779296875</ele>
        <time>2020-08-08T16:25:35.000Z</time>
      </trkpt>
      <trkpt lat="42.22017173655331134796142578125" lon="2.5502545572817325592041015625">
        <ele>313.79998779296875</ele>
        <time>2020-08-08T16:25:41.000Z</time>
      </trkpt>
      <trkpt lat="42.22011029720306396484375" lon="2.55022882483899593353271484375">
        <ele>314.399993896484375</ele>
        <time>2020-08-08T16:25:44.000Z</time>
      </trkpt>
      <trkpt lat="42.2200306691229343414306640625" lon="2.550207115709781646728515625">
        <ele>314.600006103515625</ele>
        <time>2020-08-08T16:25:48.000Z</time>
      </trkpt>
      <trkpt lat="42.219894044101238250732421875" lon="2.55015850067138671875">
        <ele>315.399993896484375</ele>
        <time>2020-08-08T16:25:55.000Z</time>
      </trkpt>
      <trkpt lat="42.219791114330291748046875" lon="2.5501288287341594696044921875">
        <ele>315.79998779296875</ele>
        <time>2020-08-08T16:26:00.000Z</time>
      </trkpt>
      <trkpt lat="42.2197691537439823150634765625" lon="2.55013394169509410858154296875">
        <ele>315.79998779296875</ele>
        <time>2020-08-08T16:26:01.000Z</time>
      </trkpt>
      <trkpt lat="42.21969120204448699951171875" lon="2.550124637782573699951171875">
        <ele>316.20001220703125</ele>
        <time>2020-08-08T16:26:05.000Z</time>
      </trkpt>
      <trkpt lat="42.21967167221009731292724609375" lon="2.55012053065001964569091796875">
        <ele>316.399993896484375</ele>
        <time>2020-08-08T16:26:06.000Z</time>
      </trkpt>
      <trkpt lat="42.219540663063526153564453125" lon="2.55010552704334259033203125">
        <ele>316.79998779296875</ele>
        <time>2020-08-08T16:26:12.000Z</time>
      </trkpt>
      <trkpt lat="42.219389118254184722900390625" lon="2.55008138716220855712890625">
        <ele>317.399993896484375</ele>
        <time>2020-08-08T16:26:19.000Z</time>
      </trkpt>
      <trkpt lat="42.21937201917171478271484375" lon="2.55007409490644931793212890625">
        <ele>317.600006103515625</ele>
        <time>2020-08-08T16:26:20.000Z</time>
      </trkpt>
      <trkpt lat="42.21928878687322139739990234375" lon="2.549994550645351409912109375">
        <ele>318</ele>
        <time>2020-08-08T16:26:25.000Z</time>
      </trkpt>
      <trkpt lat="42.21924436278641223907470703125" lon="2.5499313510954380035400390625">
        <ele>318.600006103515625</ele>
        <time>2020-08-08T16:26:28.000Z</time>
      </trkpt>
      <trkpt lat="42.21921603195369243621826171875" lon="2.549888603389263153076171875">
        <ele>318.79998779296875</ele>
        <time>2020-08-08T16:26:31.000Z</time>
      </trkpt>
      <trkpt lat="42.2192001901566982269287109375" lon="2.5498874299228191375732421875">
        <ele>319</ele>
        <time>2020-08-08T16:26:32.000Z</time>
      </trkpt>
      <trkpt lat="42.21912886016070842742919921875" lon="2.54988147877156734466552734375">
        <ele>318.79998779296875</ele>
        <time>2020-08-08T16:26:36.000Z</time>
      </trkpt>
      <trkpt lat="42.2190942429006099700927734375" lon="2.54985247738659381866455078125">
        <ele>319</ele>
        <time>2020-08-08T16:26:38.000Z</time>
      </trkpt>
      <trkpt lat="42.21906683407723903656005859375" lon="2.54983236081898212432861328125">
        <ele>319.20001220703125</ele>
        <time>2020-08-08T16:26:40.000Z</time>
      </trkpt>
      <trkpt lat="42.21904772333800792694091796875" lon="2.5498046167194843292236328125">
        <ele>319.20001220703125</ele>
        <time>2020-08-08T16:26:41.000Z</time>
      </trkpt>
      <trkpt lat="42.21901235170662403106689453125" lon="2.54972289316356182098388671875">
        <ele>319.20001220703125</ele>
        <time>2020-08-08T16:26:44.000Z</time>
      </trkpt>
      <trkpt lat="42.21899743191897869110107421875" lon="2.5496926344931125640869140625">
        <ele>319</ele>
        <time>2020-08-08T16:26:46.000Z</time>
      </trkpt>
      <trkpt lat="42.219387777149677276611328125" lon="2.54985784180462360382080078125">
        <ele>294</ele>
        <time>2020-08-09T05:16:56.000Z</time>
      </trkpt>
      <trkpt lat="42.21938786096870899200439453125" lon="2.549857757985591888427734375">
        <ele>294.20001220703125</ele>
        <time>2020-08-09T05:16:57.000Z</time>
      </trkpt>
      <trkpt lat="42.2193901240825653076171875" lon="2.5498582608997821807861328125">
        <ele>294.20001220703125</ele>
        <time>2020-08-09T05:16:58.000Z</time>
      </trkpt>
      <trkpt lat="42.21938752569258213043212890625" lon="2.54986169748008251190185546875">
        <ele>294.20001220703125</ele>
        <time>2020-08-09T05:16:59.000Z</time>
      </trkpt>
      <trkpt lat="42.219390459358692169189453125" lon="2.5498740188777446746826171875">
        <ele>294.20001220703125</ele>
        <time>2020-08-09T05:17:00.000Z</time>
      </trkpt>
      <trkpt lat="42.2194033674895763397216796875" lon="2.5499209575355052947998046875">
        <ele>294</ele>
        <time>2020-08-09T05:17:02.000Z</time>
      </trkpt>
      <trkpt lat="42.2194281779229640960693359375" lon="2.54997669719159603118896484375">
        <ele>294</ele>
        <time>2020-08-09T05:17:04.000Z</time>
      </trkpt>
      <trkpt lat="42.21945910714566707611083984375" lon="2.550014667212963104248046875">
        <ele>293.600006103515625</ele>
        <time>2020-08-09T05:17:06.000Z</time>
      </trkpt>
      <trkpt lat="42.21959640271961688995361328125" lon="2.550068981945514678955078125">
        <ele>292.79998779296875</ele>
        <time>2020-08-09T05:17:11.000Z</time>
      </trkpt>
      <trkpt lat="42.21976672299206256866455078125" lon="2.550123967230319976806640625">
        <ele>292.20001220703125</ele>
        <time>2020-08-09T05:17:17.000Z</time>
      </trkpt>
      <trkpt lat="42.21979807130992412567138671875" lon="2.5501378811895847320556640625">
        <ele>292</ele>
        <time>2020-08-09T05:17:18.000Z</time>
      </trkpt>
      <trkpt lat="42.21998029388487339019775390625" lon="2.55018456839025020599365234375">
        <ele>291.20001220703125</ele>
        <time>2020-08-09T05:17:23.000Z</time>
      </trkpt>
      <trkpt lat="42.22002069465816020965576171875" lon="2.55019730888307094573974609375">
        <ele>290.79998779296875</ele>
        <time>2020-08-09T05:17:24.000Z</time>
      </trkpt>
      <trkpt lat="42.22005958668887615203857421875" lon="2.55020879209041595458984375">
        <ele>290.600006103515625</ele>
        <time>2020-08-09T05:17:25.000Z</time>
      </trkpt>
      <trkpt lat="42.2201802022755146026611328125" lon="2.5502501986920833587646484375">
        <ele>290.20001220703125</ele>
        <time>2020-08-09T05:17:28.000Z</time>
      </trkpt>
      <trkpt lat="42.22035060636699199676513671875" lon="2.55031473934650421142578125">
        <ele>289.600006103515625</ele>
        <time>2020-08-09T05:17:32.000Z</time>
      </trkpt>
      <trkpt lat="42.22048387862741947174072265625" lon="2.550343908369541168212890625">
        <ele>289</ele>
        <time>2020-08-09T05:17:35.000Z</time>
      </trkpt>
      <trkpt lat="42.22056887112557888031005859375" lon="2.55032144486904144287109375">
        <ele>288.600006103515625</ele>
        <time>2020-08-09T05:17:37.000Z</time>
      </trkpt>
      <trkpt lat="42.22064665518701076507568359375" lon="2.5502537190914154052734375">
        <ele>288</ele>
        <time>2020-08-09T05:17:39.000Z</time>
      </trkpt>
      <trkpt lat="42.220687977969646453857421875" lon="2.55021491087973117828369140625">
        <ele>287.79998779296875</ele>
        <time>2020-08-09T05:17:40.000Z</time>
      </trkpt>
      <trkpt lat="42.22072921693325042724609375" lon="2.55016981624066829681396484375">
        <ele>287.600006103515625</ele>
        <time>2020-08-09T05:17:41.000Z</time>
      </trkpt>
      <trkpt lat="42.22076433710753917694091796875" lon="2.550120614469051361083984375">
        <ele>287.399993896484375</ele>
        <time>2020-08-09T05:17:42.000Z</time>
      </trkpt>
      <trkpt lat="42.22078462131321430206298828125" lon="2.55006219260394573211669921875">
        <ele>287.20001220703125</ele>
        <time>2020-08-09T05:17:43.000Z</time>
      </trkpt>
      <trkpt lat="42.22082284279167652130126953125" lon="2.54992741160094738006591796875">
        <ele>286.600006103515625</ele>
        <time>2020-08-09T05:17:45.000Z</time>
      </trkpt>
      <trkpt lat="42.22086307592689990997314453125" lon="2.54978743381798267364501953125">
        <ele>286.20001220703125</ele>
        <time>2020-08-09T05:17:47.000Z</time>
      </trkpt>
      <trkpt lat="42.22087883390486240386962890625" lon="2.54971786402165889739990234375">
        <ele>286.20001220703125</ele>
        <time>2020-08-09T05:17:48.000Z</time>
      </trkpt>
      <trkpt lat="42.2209127806127071380615234375" lon="2.54957352764904499053955078125">
        <ele>285.20001220703125</ele>
        <time>2020-08-09T05:17:50.000Z</time>
      </trkpt>
      <trkpt lat="42.2209699451923370361328125" lon="2.54935777746140956878662109375">
        <ele>284.20001220703125</ele>
        <time>2020-08-09T05:17:53.000Z</time>
      </trkpt>
      <trkpt lat="42.2210046462714672088623046875" lon="2.549218051135540008544921875">
        <ele>283.79998779296875</ele>
        <time>2020-08-09T05:17:55.000Z</time>
      </trkpt>
      <trkpt lat="42.2210284508764743804931640625" lon="2.54907832480967044830322265625">
        <ele>282.79998779296875</ele>
        <time>2020-08-09T05:17:57.000Z</time>
      </trkpt>
      <trkpt lat="42.22108586691319942474365234375" lon="2.54877875559031963348388671875">
        <ele>281.600006103515625</ele>
        <time>2020-08-09T05:18:01.000Z</time>
      </trkpt>
      <trkpt lat="42.221101038157939910888671875" lon="2.54869627766311168670654296875">
        <ele>281.600006103515625</ele>
        <time>2020-08-09T05:18:02.000Z</time>
      </trkpt>
      <trkpt lat="42.22114361822605133056640625" lon="2.54844733513891696929931640625">
        <ele>280.600006103515625</ele>
        <time>2020-08-09T05:18:05.000Z</time>
      </trkpt>
      <trkpt lat="42.22121260128915309906005859375" lon="2.5480933673679828643798828125">
        <ele>279.20001220703125</ele>
        <time>2020-08-09T05:18:09.000Z</time>
      </trkpt>
      <trkpt lat="42.2212675027549266815185546875" lon="2.54783847369253635406494140625">
        <ele>278</ele>
        <time>2020-08-09T05:18:12.000Z</time>
      </trkpt>
      <trkpt lat="42.22128870896995067596435546875" lon="2.547766305506229400634765625">
        <ele>277.600006103515625</ele>
        <time>2020-08-09T05:18:13.000Z</time>
      </trkpt>
      <trkpt lat="42.22132056020200252532958984375" lon="2.5477034412324428558349609375">
        <ele>277.20001220703125</ele>
        <time>2020-08-09T05:18:14.000Z</time>
      </trkpt>
      <trkpt lat="42.22136029042303562164306640625" lon="2.54765264689922332763671875">
        <ele>276.79998779296875</ele>
        <time>2020-08-09T05:18:15.000Z</time>
      </trkpt>
      <trkpt lat="42.22147311083972454071044921875" lon="2.5476075522601604461669921875">
        <ele>275.79998779296875</ele>
        <time>2020-08-09T05:18:17.000Z</time>
      </trkpt>
      <trkpt lat="42.22157503478229045867919921875" lon="2.54767502658069133758544921875">
        <ele>274.79998779296875</ele>
        <time>2020-08-09T05:18:19.000Z</time>
      </trkpt>
      <trkpt lat="42.2216259129345417022705078125" lon="2.54793369211256504058837890625">
        <ele>273.399993896484375</ele>
        <time>2020-08-09T05:18:22.000Z</time>
      </trkpt>
      <trkpt lat="42.22163043916225433349609375" lon="2.54803377203643321990966796875">
        <ele>273</ele>
        <time>2020-08-09T05:18:23.000Z</time>
      </trkpt>
      <trkpt lat="42.2216369770467281341552734375" lon="2.548245079815387725830078125">
        <ele>272</ele>
        <time>2020-08-09T05:18:25.000Z</time>
      </trkpt>
      <trkpt lat="42.22163722850382328033447265625" lon="2.54846912808716297149658203125">
        <ele>270.79998779296875</ele>
        <time>2020-08-09T05:18:27.000Z</time>
      </trkpt>
      <trkpt lat="42.221631444990634918212890625" lon="2.54857876338064670562744140625">
        <ele>270.399993896484375</ele>
        <time>2020-08-09T05:18:28.000Z</time>
      </trkpt>
      <trkpt lat="42.2216168604791164398193359375" lon="2.5486811064183712005615234375">
        <ele>269.79998779296875</ele>
        <time>2020-08-09T05:18:29.000Z</time>
      </trkpt>
      <trkpt lat="42.22159397788345813751220703125" lon="2.54877573810517787933349609375">
        <ele>269.399993896484375</ele>
        <time>2020-08-09T05:18:30.000Z</time>
      </trkpt>
      <trkpt lat="42.22156346775591373443603515625" lon="2.54886542446911334991455078125">
        <ele>269</ele>
        <time>2020-08-09T05:18:31.000Z</time>
      </trkpt>
      <trkpt lat="42.22149490378797054290771484375" lon="2.54904898814857006072998046875">
        <ele>267.79998779296875</ele>
        <time>2020-08-09T05:18:33.000Z</time>
      </trkpt>
      <trkpt lat="42.22140806727111339569091796875" lon="2.54935584962368011474609375">
        <ele>266.600006103515625</ele>
        <time>2020-08-09T05:18:36.000Z</time>
      </trkpt>
      <trkpt lat="42.221360541880130767822265625" lon="2.549575455486774444580078125">
        <ele>265.399993896484375</ele>
        <time>2020-08-09T05:18:38.000Z</time>
      </trkpt>
      <trkpt lat="42.22133849747478961944580078125" lon="2.54980587400496006011962890625">
        <ele>264.600006103515625</ele>
        <time>2020-08-09T05:18:40.000Z</time>
      </trkpt>
      <trkpt lat="42.22133380360901355743408203125" lon="2.5499259866774082183837890625">
        <ele>263.79998779296875</ele>
        <time>2020-08-09T05:18:41.000Z</time>
      </trkpt>
      <trkpt lat="42.221345119178295135498046875" lon="2.5501812994480133056640625">
        <ele>262.600006103515625</ele>
        <time>2020-08-09T05:18:43.000Z</time>
      </trkpt>
      <trkpt lat="42.22136263735592365264892578125" lon="2.5505455769598484039306640625">
        <ele>261.20001220703125</ele>
        <time>2020-08-09T05:18:46.000Z</time>
      </trkpt>
      <trkpt lat="42.221362553536891937255859375" lon="2.55064867436885833740234375">
        <ele>261</ele>
        <time>2020-08-09T05:18:47.000Z</time>
      </trkpt>
      <trkpt lat="42.22136548720300197601318359375" lon="2.5509408675134181976318359375">
        <ele>260.20001220703125</ele>
        <time>2020-08-09T05:18:51.000Z</time>
      </trkpt>
      <trkpt lat="42.22136347554624080657958984375" lon="2.55098470486700534820556640625">
        <ele>259.79998779296875</ele>
        <time>2020-08-09T05:18:54.000Z</time>
      </trkpt>
      <trkpt lat="42.2213483043015003204345703125" lon="2.55101588554680347442626953125">
        <ele>259.79998779296875</ele>
        <time>2020-08-09T05:19:10.000Z</time>
      </trkpt>
      <trkpt lat="42.221345789730548858642578125" lon="2.55100817419588565826416015625">
        <ele>259.79998779296875</ele>
        <time>2020-08-09T05:19:27.000Z</time>
      </trkpt>
      <trkpt lat="42.22134939394891262054443359375" lon="2.55099828355014324188232421875">
        <ele>259.79998779296875</ele>
        <time>2020-08-09T05:19:46.000Z</time>
      </trkpt>
      <trkpt lat="42.2213513217866420745849609375" lon="2.550992332398891448974609375">
        <ele>259.600006103515625</ele>
        <time>2020-08-09T05:20:06.000Z</time>
      </trkpt>
      <trkpt lat="42.22135174088180065155029296875" lon="2.5509908236563205718994140625">
        <ele>259.600006103515625</ele>
        <time>2020-08-09T05:20:10.000Z</time>
      </trkpt>
      <trkpt lat="42.2213627211749553680419921875" lon="2.55103491246700286865234375">
        <ele>259.79998779296875</ele>
        <time>2020-08-09T05:20:25.000Z</time>
      </trkpt>
      <trkpt lat="42.22137370146811008453369140625" lon="2.551260553300380706787109375">
        <ele>260</ele>
        <time>2020-08-09T05:20:31.000Z</time>
      </trkpt>
      <trkpt lat="42.2213885374367237091064453125" lon="2.55159473977982997894287109375">
        <ele>259</ele>
        <time>2020-08-09T05:20:38.000Z</time>
      </trkpt>
      <trkpt lat="42.2213908843696117401123046875" lon="2.5516999326646327972412109375">
        <ele>258.600006103515625</ele>
        <time>2020-08-09T05:20:40.000Z</time>
      </trkpt>
      <trkpt lat="42.221401445567607879638671875" lon="2.55202858708798885345458984375">
        <ele>258.20001220703125</ele>
        <time>2020-08-09T05:20:46.000Z</time>
      </trkpt>
      <trkpt lat="42.22135492600500583648681640625" lon="2.55241231061518192291259765625">
        <ele>257.79998779296875</ele>
        <time>2020-08-09T05:20:53.000Z</time>
      </trkpt>
      <trkpt lat="42.221339754760265350341796875" lon="2.55245983600616455078125">
        <ele>257.600006103515625</ele>
        <time>2020-08-09T05:20:54.000Z</time>
      </trkpt>
      <trkpt lat="42.22128736786544322967529296875" lon="2.55261414684355258941650390625">
        <ele>257</ele>
        <time>2020-08-09T05:20:58.000Z</time>
      </trkpt>
      <trkpt lat="42.221276722848415374755859375" lon="2.5527991354465484619140625">
        <ele>257.20001220703125</ele>
        <time>2020-08-09T05:21:03.000Z</time>
      </trkpt>
      <trkpt lat="42.22131234593689441680908203125" lon="2.55285319872200489044189453125">
        <ele>257.20001220703125</ele>
        <time>2020-08-09T05:21:05.000Z</time>
      </trkpt>
      <trkpt lat="42.22136096097528934478759765625" lon="2.55287264473736286163330078125">
        <ele>257.20001220703125</ele>
        <time>2020-08-09T05:21:07.000Z</time>
      </trkpt>
      <trkpt lat="42.22149071283638477325439453125" lon="2.55284481681883335113525390625">
        <ele>257.600006103515625</ele>
        <time>2020-08-09T05:21:13.000Z</time>
      </trkpt>
      <trkpt lat="42.22160453908145427703857421875" lon="2.55276024341583251953125">
        <ele>258.399993896484375</ele>
        <time>2020-08-09T05:21:19.000Z</time>
      </trkpt>
      <trkpt lat="42.22165181301534175872802734375" lon="2.5527017377316951751708984375">
        <ele>258.79998779296875</ele>
        <time>2020-08-09T05:21:22.000Z</time>
      </trkpt>
      <trkpt lat="42.22170596010982990264892578125" lon="2.55261330865323543548583984375">
        <ele>259.600006103515625</ele>
        <time>2020-08-09T05:21:26.000Z</time>
      </trkpt>
      <trkpt lat="42.22177033312618732452392578125" lon="2.55252781324088573455810546875">
        <ele>260</ele>
        <time>2020-08-09T05:21:30.000Z</time>
      </trkpt>
      <trkpt lat="42.22181819379329681396484375" lon="2.55246310494840145111083984375">
        <ele>260.20001220703125</ele>
        <time>2020-08-09T05:21:33.000Z</time>
      </trkpt>
      <trkpt lat="42.22190913744270801544189453125" lon="2.55231575109064579010009765625">
        <ele>261</ele>
        <time>2020-08-09T05:21:40.000Z</time>
      </trkpt>
      <trkpt lat="42.22193352878093719482421875" lon="2.5522705726325511932373046875">
        <ele>261</ele>
        <time>2020-08-09T05:21:42.000Z</time>
      </trkpt>
      <trkpt lat="42.22200997173786163330078125" lon="2.5521408207714557647705078125">
        <ele>262.20001220703125</ele>
        <time>2020-08-09T05:21:48.000Z</time>
      </trkpt>
      <trkpt lat="42.22202380187809467315673828125" lon="2.552119530737400054931640625">
        <ele>262.399993896484375</ele>
        <time>2020-08-09T05:21:49.000Z</time>
      </trkpt>
      <trkpt lat="42.22211969085037708282470703125" lon="2.55196572281420230865478515625">
        <ele>263</ele>
        <time>2020-08-09T05:21:56.000Z</time>
      </trkpt>
      <trkpt lat="42.22216411493718624114990234375" lon="2.5519047863781452178955078125">
        <ele>263.20001220703125</ele>
        <time>2020-08-09T05:21:59.000Z</time>
      </trkpt>
      <trkpt lat="42.22223930060863494873046875" lon="2.55179439671337604522705078125">
        <ele>263.600006103515625</ele>
        <time>2020-08-09T05:22:04.000Z</time>
      </trkpt>
      <trkpt lat="42.222338207066059112548828125" lon="2.5516565144062042236328125">
        <ele>264.20001220703125</ele>
        <time>2020-08-09T05:22:10.000Z</time>
      </trkpt>
      <trkpt lat="42.22245647571980953216552734375" lon="2.55148284137248992919921875">
        <ele>264</ele>
        <time>2020-08-09T05:22:17.000Z</time>
      </trkpt>
      <trkpt lat="42.222544066607952117919921875" lon="2.55136323161423206329345703125">
        <ele>264.399993896484375</ele>
        <time>2020-08-09T05:22:22.000Z</time>
      </trkpt>
      <trkpt lat="42.22264724783599376678466796875" lon="2.55122241564095020294189453125">
        <ele>264.79998779296875</ele>
        <time>2020-08-09T05:22:28.000Z</time>
      </trkpt>
      <trkpt lat="42.22273810766637325286865234375" lon="2.55111294798552989959716796875">
        <ele>265.399993896484375</ele>
        <time>2020-08-09T05:22:33.000Z</time>
      </trkpt>
      <trkpt lat="42.222795188426971435546875" lon="2.55105125717818737030029296875">
        <ele>265.399993896484375</ele>
        <time>2020-08-09T05:22:36.000Z</time>
      </trkpt>
      <trkpt lat="42.22290390171110630035400390625" lon="2.5509344972670078277587890625">
        <ele>265.79998779296875</ele>
        <time>2020-08-09T05:22:42.000Z</time>
      </trkpt>
      <trkpt lat="42.22296341322362422943115234375" lon="2.5508813560009002685546875">
        <ele>266.20001220703125</ele>
        <time>2020-08-09T05:22:45.000Z</time>
      </trkpt>
      <trkpt lat="42.22303055226802825927734375" lon="2.5508034043014049530029296875">
        <ele>266.600006103515625</ele>
        <time>2020-08-09T05:22:49.000Z</time>
      </trkpt>
      <trkpt lat="42.22306248731911182403564453125" lon="2.55076342262327671051025390625">
        <ele>266.79998779296875</ele>
        <time>2020-08-09T05:22:51.000Z</time>
      </trkpt>
      <trkpt lat="42.2231916524469852447509765625" lon="2.55059578455984592437744140625">
        <ele>267.600006103515625</ele>
        <time>2020-08-09T05:22:59.000Z</time>
      </trkpt>
      <trkpt lat="42.22320715896785259246826171875" lon="2.5505744107067584991455078125">
        <ele>267.600006103515625</ele>
        <time>2020-08-09T05:23:00.000Z</time>
      </trkpt>
      <trkpt lat="42.22331025637686252593994140625" lon="2.55041909404098987579345703125">
        <ele>268.399993896484375</ele>
        <time>2020-08-09T05:23:07.000Z</time>
      </trkpt>
      <trkpt lat="42.22337764687836170196533203125" lon="2.55033460445702075958251953125">
        <ele>268.600006103515625</ele>
        <time>2020-08-09T05:23:11.000Z</time>
      </trkpt>
      <trkpt lat="42.2234350629150867462158203125" lon="2.5502860732376575469970703125">
        <ele>269</ele>
        <time>2020-08-09T05:23:14.000Z</time>
      </trkpt>
      <trkpt lat="42.2235661558806896209716796875" lon="2.55028196610510349273681640625">
        <ele>269.600006103515625</ele>
        <time>2020-08-09T05:23:20.000Z</time>
      </trkpt>
      <trkpt lat="42.22358769737184047698974609375" lon="2.550294287502765655517578125">
        <ele>269.79998779296875</ele>
        <time>2020-08-09T05:23:21.000Z</time>
      </trkpt>
      <trkpt lat="42.22366363741457462310791015625" lon="2.550382800400257110595703125">
        <ele>270.20001220703125</ele>
        <time>2020-08-09T05:23:26.000Z</time>
      </trkpt>
      <trkpt lat="42.2237113304436206817626953125" lon="2.55048095248639583587646484375">
        <ele>271</ele>
        <time>2020-08-09T05:23:30.000Z</time>
      </trkpt>
      <trkpt lat="42.22373404540121555328369140625" lon="2.55053007043898105621337890625">
        <ele>271.20001220703125</ele>
        <time>2020-08-09T05:23:32.000Z</time>
      </trkpt>
      <trkpt lat="42.22379925660789012908935546875" lon="2.5507112033665180206298828125">
        <ele>272</ele>
        <time>2020-08-09T05:23:39.000Z</time>
      </trkpt>
      <trkpt lat="42.2238719277083873748779296875" lon="2.55084984004497528076171875">
        <ele>272.79998779296875</ele>
        <time>2020-08-09T05:23:46.000Z</time>
      </trkpt>
      <trkpt lat="42.2239245660603046417236328125" lon="2.55087305791676044464111328125">
        <ele>273</ele>
        <time>2020-08-09T05:23:49.000Z</time>
      </trkpt>
      <trkpt lat="42.2239570878446102142333984375" lon="2.55088328383862972259521484375">
        <ele>273.20001220703125</ele>
        <time>2020-08-09T05:23:51.000Z</time>
      </trkpt>
      <trkpt lat="42.22406177781522274017333984375" lon="2.5508949346840381622314453125">
        <ele>273.600006103515625</ele>
        <time>2020-08-09T05:23:56.000Z</time>
      </trkpt>
      <trkpt lat="42.22415582276880741119384765625" lon="2.55085344426333904266357421875">
        <ele>274.20001220703125</ele>
        <time>2020-08-09T05:24:01.000Z</time>
      </trkpt>
      <trkpt lat="42.2241736762225627899169921875" lon="2.5508411228656768798828125">
        <ele>274.399993896484375</ele>
        <time>2020-08-09T05:24:02.000Z</time>
      </trkpt>
      <trkpt lat="42.2243004105985164642333984375" lon="2.5507242791354656219482421875">
        <ele>275.20001220703125</ele>
        <time>2020-08-09T05:24:09.000Z</time>
      </trkpt>
      <trkpt lat="42.22442739643156528472900390625" lon="2.55058857612311840057373046875">
        <ele>275.79998779296875</ele>
        <time>2020-08-09T05:24:16.000Z</time>
      </trkpt>
      <trkpt lat="42.22452328540384769439697265625" lon="2.5504671223461627960205078125">
        <ele>276.20001220703125</ele>
        <time>2020-08-09T05:24:22.000Z</time>
      </trkpt>
      <trkpt lat="42.2245585732161998748779296875" lon="2.550431750714778900146484375">
        <ele>276.399993896484375</ele>
        <time>2020-08-09T05:24:24.000Z</time>
      </trkpt>
      <trkpt lat="42.22467181272804737091064453125" lon="2.55034784786403179168701171875">
        <ele>276.79998779296875</ele>
        <time>2020-08-09T05:24:30.000Z</time>
      </trkpt>
      <trkpt lat="42.22478337585926055908203125" lon="2.5503370352089405059814453125">
        <ele>277.399993896484375</ele>
        <time>2020-08-09T05:24:35.000Z</time>
      </trkpt>
      <trkpt lat="42.22480642609298229217529296875" lon="2.55033611319959163665771484375">
        <ele>277.399993896484375</ele>
        <time>2020-08-09T05:24:36.000Z</time>
      </trkpt>
      <trkpt lat="42.2249622456729412078857421875" lon="2.5503739155828952789306640625">
        <ele>278.20001220703125</ele>
        <time>2020-08-09T05:24:43.000Z</time>
      </trkpt>
      <trkpt lat="42.22500507719814777374267578125" lon="2.5503916852176189422607421875">
        <ele>278.399993896484375</ele>
        <time>2020-08-09T05:24:45.000Z</time>
      </trkpt>
      <trkpt lat="42.22509677521884441375732421875" lon="2.5504232011735439300537109375">
        <ele>278.399993896484375</ele>
        <time>2020-08-09T05:24:49.000Z</time>
      </trkpt>
      <trkpt lat="42.22525100223720073699951171875" lon="2.5504775159060955047607421875">
        <ele>279</ele>
        <time>2020-08-09T05:24:56.000Z</time>
      </trkpt>
      <trkpt lat="42.225344963371753692626953125" lon="2.55051582120358943939208984375">
        <ele>279.20001220703125</ele>
        <time>2020-08-09T05:25:00.000Z</time>
      </trkpt>
      <trkpt lat="42.22540925256907939910888671875" lon="2.55054549314081668853759765625">
        <ele>279.600006103515625</ele>
        <time>2020-08-09T05:25:03.000Z</time>
      </trkpt>
      <trkpt lat="42.225542776286602020263671875" lon="2.5506243668496608734130859375">
        <ele>280.20001220703125</ele>
        <time>2020-08-09T05:25:10.000Z</time>
      </trkpt>
      <trkpt lat="42.22563891671597957611083984375" lon="2.550683207809925079345703125">
        <ele>281</ele>
        <time>2020-08-09T05:25:15.000Z</time>
      </trkpt>
      <trkpt lat="42.22569800913333892822265625" lon="2.5507209263741970062255859375">
        <ele>281.399993896484375</ele>
        <time>2020-08-09T05:25:18.000Z</time>
      </trkpt>
      <trkpt lat="42.225750647485256195068359375" lon="2.550768367946147918701171875">
        <ele>281.600006103515625</ele>
        <time>2020-08-09T05:25:21.000Z</time>
      </trkpt>
      <trkpt lat="42.2258879430592060089111328125" lon="2.550863921642303466796875">
        <ele>282.20001220703125</ele>
        <time>2020-08-09T05:25:28.000Z</time>
      </trkpt>
      <trkpt lat="42.2259285114705562591552734375" lon="2.5508880615234375">
        <ele>282.399993896484375</ele>
        <time>2020-08-09T05:25:30.000Z</time>
      </trkpt>
      <trkpt lat="42.22601048648357391357421875" lon="2.550927288830280303955078125">
        <ele>283</ele>
        <time>2020-08-09T05:25:34.000Z</time>
      </trkpt>
      <trkpt lat="42.22608332522213459014892578125" lon="2.5509700365364551544189453125">
        <ele>283.399993896484375</ele>
        <time>2020-08-09T05:25:38.000Z</time>
      </trkpt>
      <trkpt lat="42.22610704600811004638671875" lon="2.5509767420589923858642578125">
        <ele>283.399993896484375</ele>
        <time>2020-08-09T05:25:39.000Z</time>
      </trkpt>
      <trkpt lat="42.2262155078351497650146484375" lon="2.55102409981191158294677734375">
        <ele>283.79998779296875</ele>
        <time>2020-08-09T05:25:44.000Z</time>
      </trkpt>
      <trkpt lat="42.22625724971294403076171875" lon="2.55104673095047473907470703125">
        <ele>284</ele>
        <time>2020-08-09T05:25:46.000Z</time>
      </trkpt>
      <trkpt lat="42.2263207845389842987060546875" lon="2.551079504191875457763671875">
        <ele>284.600006103515625</ele>
        <time>2020-08-09T05:25:49.000Z</time>
      </trkpt>
      <trkpt lat="42.22638255916535854339599609375" lon="2.55111412145197391510009765625">
        <ele>285</ele>
        <time>2020-08-09T05:25:52.000Z</time>
      </trkpt>
      <trkpt lat="42.22649437375366687774658203125" lon="2.55118419416248798370361328125">
        <ele>285.399993896484375</ele>
        <time>2020-08-09T05:25:58.000Z</time>
      </trkpt>
      <trkpt lat="42.2266154922544956207275390625" lon="2.5512302108108997344970703125">
        <ele>285.600006103515625</ele>
        <time>2020-08-09T05:26:03.000Z</time>
      </trkpt>
      <trkpt lat="42.226639799773693084716796875" lon="2.5512342341244220733642578125">
        <ele>285.600006103515625</ele>
        <time>2020-08-09T05:26:04.000Z</time>
      </trkpt>
      <trkpt lat="42.22683048807084560394287109375" lon="2.55125594325363636016845703125">
        <ele>286</ele>
        <time>2020-08-09T05:26:11.000Z</time>
      </trkpt>
      <trkpt lat="42.22705763764679431915283203125" lon="2.551286034286022186279296875">
        <ele>285.20001220703125</ele>
        <time>2020-08-09T05:26:17.000Z</time>
      </trkpt>
      <trkpt lat="42.22730020992457866668701171875" lon="2.55130455829203128814697265625">
        <ele>284.20001220703125</ele>
        <time>2020-08-09T05:26:22.000Z</time>
      </trkpt>
      <trkpt lat="42.22741118632256984710693359375" lon="2.5512836873531341552734375">
        <ele>283.79998779296875</ele>
        <time>2020-08-09T05:26:24.000Z</time>
      </trkpt>
      <trkpt lat="42.22759164869785308837890625" lon="2.5512206554412841796875">
        <ele>283.20001220703125</ele>
        <time>2020-08-09T05:26:27.000Z</time>
      </trkpt>
      <trkpt lat="42.22778770141303539276123046875" lon="2.55115418694913387298583984375">
        <ele>282.20001220703125</ele>
        <time>2020-08-09T05:26:30.000Z</time>
      </trkpt>
      <trkpt lat="42.22799121402204036712646484375" lon="2.5510642491281032562255859375">
        <ele>281.20001220703125</ele>
        <time>2020-08-09T05:26:33.000Z</time>
      </trkpt>
      <trkpt lat="42.2280612029135227203369140625" lon="2.55102074705064296722412109375">
        <ele>280.79998779296875</ele>
        <time>2020-08-09T05:26:34.000Z</time>
      </trkpt>
      <trkpt lat="42.22828290425240993499755859375" lon="2.5508840382099151611328125">
        <ele>279.79998779296875</ele>
        <time>2020-08-09T05:26:37.000Z</time>
      </trkpt>
      <trkpt lat="42.22836772911250591278076171875" lon="2.550857551395893096923828125">
        <ele>279.399993896484375</ele>
        <time>2020-08-09T05:26:38.000Z</time>
      </trkpt>
      <trkpt lat="42.228454314172267913818359375" lon="2.5508352555334568023681640625">
        <ele>278.600006103515625</ele>
        <time>2020-08-09T05:26:39.000Z</time>
      </trkpt>
      <trkpt lat="42.22853972576558589935302734375" lon="2.55080801434814929962158203125">
        <ele>278</ele>
        <time>2020-08-09T05:26:40.000Z</time>
      </trkpt>
      <trkpt lat="42.228609211742877960205078125" lon="2.550757639110088348388671875">
        <ele>277.600006103515625</ele>
        <time>2020-08-09T05:26:41.000Z</time>
      </trkpt>
      <trkpt lat="42.22866998054087162017822265625" lon="2.55068865604698657989501953125">
        <ele>277.20001220703125</ele>
        <time>2020-08-09T05:26:42.000Z</time>
      </trkpt>
      <trkpt lat="42.228787578642368316650390625" lon="2.55055052228271961212158203125">
        <ele>276.79998779296875</ele>
        <time>2020-08-09T05:26:44.000Z</time>
      </trkpt>
      <trkpt lat="42.2288484312593936920166015625" lon="2.55049285478889942169189453125">
        <ele>276.399993896484375</ele>
        <time>2020-08-09T05:26:45.000Z</time>
      </trkpt>
      <trkpt lat="42.22891557030379772186279296875" lon="2.5504453293979167938232421875">
        <ele>276</ele>
        <time>2020-08-09T05:26:46.000Z</time>
      </trkpt>
      <trkpt lat="42.2290613315999507904052734375" lon="2.55037701688706874847412109375">
        <ele>275.600006103515625</ele>
        <time>2020-08-09T05:26:48.000Z</time>
      </trkpt>
      <trkpt lat="42.22913366742432117462158203125" lon="2.5503447465598583221435546875">
        <ele>275.399993896484375</ele>
        <time>2020-08-09T05:26:49.000Z</time>
      </trkpt>
      <trkpt lat="42.2293392755091190338134765625" lon="2.55022999830543994903564453125">
        <ele>274.600006103515625</ele>
        <time>2020-08-09T05:26:52.000Z</time>
      </trkpt>
      <trkpt lat="42.2294019721448421478271484375" lon="2.55017853341996669769287109375">
        <ele>274.399993896484375</ele>
        <time>2020-08-09T05:26:53.000Z</time>
      </trkpt>
      <trkpt lat="42.22946114838123321533203125" lon="2.55011893808841705322265625">
        <ele>274.20001220703125</ele>
        <time>2020-08-09T05:26:54.000Z</time>
      </trkpt>
      <trkpt lat="42.22958042286336421966552734375" lon="2.54999295808374881744384765625">
        <ele>273.600006103515625</ele>
        <time>2020-08-09T05:26:56.000Z</time>
      </trkpt>
      <trkpt lat="42.22964831627905368804931640625" lon="2.54993855953216552734375">
        <ele>273.20001220703125</ele>
        <time>2020-08-09T05:26:57.000Z</time>
      </trkpt>
      <trkpt lat="42.2297214902937412261962890625" lon="2.54989841021597385406494140625">
        <ele>273</ele>
        <time>2020-08-09T05:26:58.000Z</time>
      </trkpt>
      <trkpt lat="42.22979885526001453399658203125" lon="2.5498767010867595672607421875">
        <ele>272.600006103515625</ele>
        <time>2020-08-09T05:26:59.000Z</time>
      </trkpt>
      <trkpt lat="42.229956351220607757568359375" lon="2.54987158812582492828369140625">
        <ele>271.79998779296875</ele>
        <time>2020-08-09T05:27:01.000Z</time>
      </trkpt>
      <trkpt lat="42.230197750031948089599609375" lon="2.54986303858458995819091796875">
        <ele>271</ele>
        <time>2020-08-09T05:27:04.000Z</time>
      </trkpt>
      <trkpt lat="42.23028031177818775177001953125" lon="2.54985331557691097259521484375">
        <ele>270.600006103515625</ele>
        <time>2020-08-09T05:27:05.000Z</time>
      </trkpt>
      <trkpt lat="42.23052799701690673828125" lon="2.5498406589031219482421875">
        <ele>269.79998779296875</ele>
        <time>2020-08-09T05:27:08.000Z</time>
      </trkpt>
      <trkpt lat="42.23060620017349720001220703125" lon="2.5498602725565433502197265625">
        <ele>269.399993896484375</ele>
        <time>2020-08-09T05:27:09.000Z</time>
      </trkpt>
      <trkpt lat="42.23080334253609180450439453125" lon="2.5500057823956012725830078125">
        <ele>268.600006103515625</ele>
        <time>2020-08-09T05:27:12.000Z</time>
      </trkpt>
      <trkpt lat="42.23085866309702396392822265625" lon="2.55006940104067325592041015625">
        <ele>268.399993896484375</ele>
        <time>2020-08-09T05:27:13.000Z</time>
      </trkpt>
      <trkpt lat="42.23107575438916683197021484375" lon="2.5502877496182918548583984375">
        <ele>268</ele>
        <time>2020-08-09T05:27:17.000Z</time>
      </trkpt>
      <trkpt lat="42.23138135857880115509033203125" lon="2.55041054449975490570068359375">
        <ele>267.399993896484375</ele>
        <time>2020-08-09T05:27:22.000Z</time>
      </trkpt>
      <trkpt lat="42.23144170828163623809814453125" lon="2.55042479373514652252197265625">
        <ele>267.20001220703125</ele>
        <time>2020-08-09T05:27:23.000Z</time>
      </trkpt>
      <trkpt lat="42.23167791031301021575927734375" lon="2.5504299066960811614990234375">
        <ele>266.79998779296875</ele>
        <time>2020-08-09T05:27:27.000Z</time>
      </trkpt>
      <trkpt lat="42.2317351587116718292236328125" lon="2.55041523836553096771240234375">
        <ele>266.79998779296875</ele>
        <time>2020-08-09T05:27:28.000Z</time>
      </trkpt>
      <trkpt lat="42.23194462247192859649658203125" lon="2.55033711902797222137451171875">
        <ele>266.79998779296875</ele>
        <time>2020-08-09T05:27:32.000Z</time>
      </trkpt>
      <trkpt lat="42.2319986857473850250244140625" lon="2.5503266416490077972412109375">
        <ele>266.600006103515625</ele>
        <time>2020-08-09T05:27:33.000Z</time>
      </trkpt>
      <trkpt lat="42.23222156055271625518798828125" lon="2.55036436021327972412109375">
        <ele>265.79998779296875</ele>
        <time>2020-08-09T05:27:37.000Z</time>
      </trkpt>
      <trkpt lat="42.2322749532759189605712890625" lon="2.550390176475048065185546875">
        <ele>265.399993896484375</ele>
        <time>2020-08-09T05:27:38.000Z</time>
      </trkpt>
      <trkpt lat="42.23260469734668731689453125" lon="2.55056326277554035186767578125">
        <ele>264.79998779296875</ele>
        <time>2020-08-09T05:27:44.000Z</time>
      </trkpt>
      <trkpt lat="42.23266093991696834564208984375" lon="2.55058991722762584686279296875">
        <ele>264.399993896484375</ele>
        <time>2020-08-09T05:27:45.000Z</time>
      </trkpt>
      <trkpt lat="42.2329760156571865081787109375" lon="2.5507806055247783660888671875">
        <ele>263.600006103515625</ele>
        <time>2020-08-09T05:27:51.000Z</time>
      </trkpt>
      <trkpt lat="42.23322152160108089447021484375" lon="2.5510074198246002197265625">
        <ele>263</ele>
        <time>2020-08-09T05:27:57.000Z</time>
      </trkpt>
      <trkpt lat="42.2334091924130916595458984375" lon="2.55109702236950397491455078125">
        <ele>263.20001220703125</ele>
        <time>2020-08-09T05:28:02.000Z</time>
      </trkpt>
      <trkpt lat="42.233464680612087249755859375" lon="2.551109679043292999267578125">
        <ele>263.399993896484375</ele>
        <time>2020-08-09T05:28:06.000Z</time>
      </trkpt>
      <trkpt lat="42.233486473560333251953125" lon="2.55109149031341075897216796875">
        <ele>263.399993896484375</ele>
        <time>2020-08-09T05:28:13.000Z</time>
      </trkpt>
      <trkpt lat="42.23350298590958118438720703125" lon="2.55108411423861980438232421875">
        <ele>263.399993896484375</ele>
        <time>2020-08-09T05:28:14.000Z</time>
      </trkpt>
      <trkpt lat="42.23359652794897556304931640625" lon="2.5510692782700061798095703125">
        <ele>263.399993896484375</ele>
        <time>2020-08-09T05:28:19.000Z</time>
      </trkpt>
      <trkpt lat="42.23372477106750011444091796875" lon="2.55099275149405002593994140625">
        <ele>263.399993896484375</ele>
        <time>2020-08-09T05:28:25.000Z</time>
      </trkpt>
      <trkpt lat="42.2337330691516399383544921875" lon="2.55097095854580402374267578125">
        <ele>263.399993896484375</ele>
        <time>2020-08-09T05:28:26.000Z</time>
      </trkpt>
      <trkpt lat="42.23374354653060436248779296875" lon="2.5509002991020679473876953125">
        <ele>263.399993896484375</ele>
        <time>2020-08-09T05:28:29.000Z</time>
      </trkpt>
      <trkpt lat="42.23371110856533050537109375" lon="2.55084791220724582672119140625">
        <ele>263.399993896484375</ele>
        <time>2020-08-09T05:28:31.000Z</time>
      </trkpt>
      <trkpt lat="42.23362100310623645782470703125" lon="2.550804913043975830078125">
        <ele>262.79998779296875</ele>
        <time>2020-08-09T05:28:34.000Z</time>
      </trkpt>
      <trkpt lat="42.233559899032115936279296875" lon="2.550779096782207489013671875">
        <ele>262.399993896484375</ele>
        <time>2020-08-09T05:28:36.000Z</time>
      </trkpt>
      <trkpt lat="42.2334081865847110748291015625" lon="2.55065378732979297637939453125">
        <ele>262</ele>
        <time>2020-08-09T05:28:41.000Z</time>
      </trkpt>
      <trkpt lat="42.23336753435432910919189453125" lon="2.55049738101661205291748046875">
        <ele>262</ele>
        <time>2020-08-09T05:28:45.000Z</time>
      </trkpt>
      <trkpt lat="42.2334246151149272918701171875" lon="2.55028791725635528564453125">
        <ele>261.79998779296875</ele>
        <time>2020-08-09T05:28:51.000Z</time>
      </trkpt>
      <trkpt lat="42.23343341611325740814208984375" lon="2.5500892661511898040771484375">
        <ele>262</ele>
        <time>2020-08-09T05:28:57.000Z</time>
      </trkpt>
      <trkpt lat="42.23339368589222431182861328125" lon="2.54993679933249950408935546875">
        <ele>262.79998779296875</ele>
        <time>2020-08-09T05:29:03.000Z</time>
      </trkpt>
      <trkpt lat="42.23333903588354587554931640625" lon="2.54982464946806430816650390625">
        <ele>263.399993896484375</ele>
        <time>2020-08-09T05:29:08.000Z</time>
      </trkpt>
      <trkpt lat="42.23332629539072513580322265625" lon="2.54980243742465972900390625">
        <ele>263.600006103515625</ele>
        <time>2020-08-09T05:29:09.000Z</time>
      </trkpt>
      <trkpt lat="42.23320417106151580810546875" lon="2.54963085986673831939697265625">
        <ele>264.399993896484375</ele>
        <time>2020-08-09T05:29:17.000Z</time>
      </trkpt>
      <trkpt lat="42.23316519521176815032958984375" lon="2.54956313408911228179931640625">
        <ele>264.600006103515625</ele>
        <time>2020-08-09T05:29:20.000Z</time>
      </trkpt>
      <trkpt lat="42.233091853559017181396484375" lon="2.54946020431816577911376953125">
        <ele>265</ele>
        <time>2020-08-09T05:29:25.000Z</time>
      </trkpt>
      <trkpt lat="42.2329589165747165679931640625" lon="2.54929759539663791656494140625">
        <ele>265.600006103515625</ele>
        <time>2020-08-09T05:29:33.000Z</time>
      </trkpt>
      <trkpt lat="42.2329245507717132568359375" lon="2.5492628104984760284423828125">
        <ele>265.600006103515625</ele>
        <time>2020-08-09T05:29:35.000Z</time>
      </trkpt>
      <trkpt lat="42.23275364376604557037353515625" lon="2.5491199828684329986572265625">
        <ele>266.20001220703125</ele>
        <time>2020-08-09T05:29:45.000Z</time>
      </trkpt>
      <trkpt lat="42.23259455524384975433349609375" lon="2.54905133508145809173583984375">
        <ele>266.20001220703125</ele>
        <time>2020-08-09T05:29:53.000Z</time>
      </trkpt>
      <trkpt lat="42.23245541565120220184326171875" lon="2.54899970255792140960693359375">
        <ele>265.79998779296875</ele>
        <time>2020-08-09T05:29:59.000Z</time>
      </trkpt>
      <trkpt lat="42.23235198296606540679931640625" lon="2.548941783607006072998046875">
        <ele>266</ele>
        <time>2020-08-09T05:30:04.000Z</time>
      </trkpt>
      <trkpt lat="42.23230588249862194061279296875" lon="2.54891471005976200103759765625">
        <ele>266</ele>
        <time>2020-08-09T05:30:06.000Z</time>
      </trkpt>
      <trkpt lat="42.23217881284654140472412109375" lon="2.5488007999956607818603515625">
        <ele>266</ele>
        <time>2020-08-09T05:30:12.000Z</time>
      </trkpt>
      <trkpt lat="42.23202265799045562744140625" lon="2.54862503148615360260009765625">
        <ele>265.79998779296875</ele>
        <time>2020-08-09T05:30:19.000Z</time>
      </trkpt>
      <trkpt lat="42.23188988864421844482421875" lon="2.54845119081437587738037109375">
        <ele>265.600006103515625</ele>
        <time>2020-08-09T05:30:26.000Z</time>
      </trkpt>
      <trkpt lat="42.23181369714438915252685546875" lon="2.5482688844203948974609375">
        <ele>266</ele>
        <time>2020-08-09T05:30:33.000Z</time>
      </trkpt>
      <trkpt lat="42.23181671462953090667724609375" lon="2.548144496977329254150390625">
        <ele>266.79998779296875</ele>
        <time>2020-08-09T05:30:38.000Z</time>
      </trkpt>
      <trkpt lat="42.2318226657807826995849609375" lon="2.548125050961971282958984375">
        <ele>267</ele>
        <time>2020-08-09T05:30:39.000Z</time>
      </trkpt>
      <trkpt lat="42.23186683841049671173095703125" lon="2.548039890825748443603515625">
        <ele>268</ele>
        <time>2020-08-09T05:30:44.000Z</time>
      </trkpt>
      <trkpt lat="42.23188175819814205169677734375" lon="2.54803025163710117340087890625">
        <ele>268.20001220703125</ele>
        <time>2020-08-09T05:30:45.000Z</time>
      </trkpt>
      <trkpt lat="42.23192752338945865631103515625" lon="2.54800795577466487884521484375">
        <ele>268.79998779296875</ele>
        <time>2020-08-09T05:30:48.000Z</time>
      </trkpt>
      <trkpt lat="42.231941521167755126953125" lon="2.5480028428137302398681640625">
        <ele>269.20001220703125</ele>
        <time>2020-08-09T05:30:49.000Z</time>
      </trkpt>
      <trkpt lat="42.231981754302978515625" lon="2.54798783920705318450927734375">
        <ele>269.600006103515625</ele>
        <time>2020-08-09T05:30:52.000Z</time>
      </trkpt>
      <trkpt lat="42.232024334371089935302734375" lon="2.54799471236765384674072265625">
        <ele>270.20001220703125</ele>
        <time>2020-08-09T05:30:55.000Z</time>
      </trkpt>
      <trkpt lat="42.23206331022083759307861328125" lon="2.5479813851416110992431640625">
        <ele>271</ele>
        <time>2020-08-09T05:30:58.000Z</time>
      </trkpt>
      <trkpt lat="42.23207638598978519439697265625" lon="2.54798046313226222991943359375">
        <ele>271.20001220703125</ele>
        <time>2020-08-09T05:30:59.000Z</time>
      </trkpt>
      <trkpt lat="42.23210044205188751220703125" lon="2.5479787029325962066650390625">
        <ele>271.600006103515625</ele>
        <time>2020-08-09T05:31:01.000Z</time>
      </trkpt>
      <trkpt lat="42.23216406069695949554443359375" lon="2.54795565269887447357177734375">
        <ele>272.600006103515625</ele>
        <time>2020-08-09T05:31:06.000Z</time>
      </trkpt>
      <trkpt lat="42.23217596299946308135986328125" lon="2.54794777370989322662353515625">
        <ele>272.79998779296875</ele>
        <time>2020-08-09T05:31:07.000Z</time>
      </trkpt>
      <trkpt lat="42.23224821500480175018310546875" lon="2.5479170121252536773681640625">
        <ele>273.79998779296875</ele>
        <time>2020-08-09T05:31:13.000Z</time>
      </trkpt>
      <trkpt lat="42.23229129798710346221923828125" lon="2.54784417338669300079345703125">
        <ele>275</ele>
        <time>2020-08-09T05:31:19.000Z</time>
      </trkpt>
      <trkpt lat="42.2323044575750827789306640625" lon="2.5478147529065608978271484375">
        <ele>275.20001220703125</ele>
        <time>2020-08-09T05:31:21.000Z</time>
      </trkpt>
      <trkpt lat="42.23230739124119281768798828125" lon="2.547800838947296142578125">
        <ele>275.20001220703125</ele>
        <time>2020-08-09T05:31:22.000Z</time>
      </trkpt>
      <trkpt lat="42.2323011048138141632080078125" lon="2.54772380925714969635009765625">
        <ele>276</ele>
        <time>2020-08-09T05:31:27.000Z</time>
      </trkpt>
      <trkpt lat="42.232299931347370147705078125" lon="2.54770671017467975616455078125">
        <ele>276.20001220703125</ele>
        <time>2020-08-09T05:31:28.000Z</time>
      </trkpt>
      <trkpt lat="42.23229733295738697052001953125" lon="2.5476776249706745147705078125">
        <ele>276.600006103515625</ele>
        <time>2020-08-09T05:31:30.000Z</time>
      </trkpt>
      <trkpt lat="42.23229045979678630828857421875" lon="2.54761501215398311614990234375">
        <ele>277</ele>
        <time>2020-08-09T05:31:34.000Z</time>
      </trkpt>
      <trkpt lat="42.232283838093280792236328125" lon="2.54760193638503551483154296875">
        <ele>277.20001220703125</ele>
        <time>2020-08-09T05:31:35.000Z</time>
      </trkpt>
      <trkpt lat="42.2322716005146503448486328125" lon="2.54753622226417064666748046875">
        <ele>277.399993896484375</ele>
        <time>2020-08-09T05:31:39.000Z</time>
      </trkpt>
      <trkpt lat="42.2322699241340160369873046875" lon="2.54749414511024951934814453125">
        <ele>277.600006103515625</ele>
        <time>2020-08-09T05:31:41.000Z</time>
      </trkpt>
      <trkpt lat="42.23225508816540241241455078125" lon="2.54744703881442546844482421875">
        <ele>278.20001220703125</ele>
        <time>2020-08-09T05:31:44.000Z</time>
      </trkpt>
      <trkpt lat="42.2322432696819305419921875" lon="2.54741468466818332672119140625">
        <ele>278.79998779296875</ele>
        <time>2020-08-09T05:31:46.000Z</time>
      </trkpt>
      <trkpt lat="42.23224134184420108795166015625" lon="2.5473849289119243621826171875">
        <ele>279</ele>
        <time>2020-08-09T05:31:48.000Z</time>
      </trkpt>
      <trkpt lat="42.23222441039979457855224609375" lon="2.54733807407319545745849609375">
        <ele>279.399993896484375</ele>
        <time>2020-08-09T05:31:51.000Z</time>
      </trkpt>
      <trkpt lat="42.23221988417208194732666015625" lon="2.5473188795149326324462890625">
        <ele>279.600006103515625</ele>
        <time>2020-08-09T05:31:52.000Z</time>
      </trkpt>
      <trkpt lat="42.2322045452892780303955078125" lon="2.5472028739750385284423828125">
        <ele>280.399993896484375</ele>
        <time>2020-08-09T05:31:58.000Z</time>
      </trkpt>
      <trkpt lat="42.2321998514235019683837890625" lon="2.54718418233096599578857421875">
        <ele>280.600006103515625</ele>
        <time>2020-08-09T05:31:59.000Z</time>
      </trkpt>
      <trkpt lat="42.2321582771837711334228515625" lon="2.54708393476903438568115234375">
        <ele>281.600006103515625</ele>
        <time>2020-08-09T05:32:06.000Z</time>
      </trkpt>
      <trkpt lat="42.23215182311832904815673828125" lon="2.5470538437366485595703125">
        <ele>281.600006103515625</ele>
        <time>2020-08-09T05:32:08.000Z</time>
      </trkpt>
      <trkpt lat="42.23212617449462413787841796875" lon="2.54697798751294612884521484375">
        <ele>282.399993896484375</ele>
        <time>2020-08-09T05:32:13.000Z</time>
      </trkpt>
      <trkpt lat="42.2321136854588985443115234375" lon="2.546945549547672271728515625">
        <ele>282.600006103515625</ele>
        <time>2020-08-09T05:32:15.000Z</time>
      </trkpt>
      <trkpt lat="42.23210236988961696624755859375" lon="2.5469071604311466217041015625">
        <ele>282.79998779296875</ele>
        <time>2020-08-09T05:32:17.000Z</time>
      </trkpt>
      <trkpt lat="42.2320888750255107879638671875" lon="2.546864412724971771240234375">
        <ele>283</ele>
        <time>2020-08-09T05:32:19.000Z</time>
      </trkpt>
      <trkpt lat="42.23205341957509517669677734375" lon="2.5467442162334918975830078125">
        <ele>283</ele>
        <time>2020-08-09T05:32:25.000Z</time>
      </trkpt>
      <trkpt lat="42.23202642984688282012939453125" lon="2.5465936772525310516357421875">
        <ele>283.399993896484375</ele>
        <time>2020-08-09T05:32:31.000Z</time>
      </trkpt>
      <trkpt lat="42.231992818415164947509765625" lon="2.54639712162315845489501953125">
        <ele>283.20001220703125</ele>
        <time>2020-08-09T05:32:38.000Z</time>
      </trkpt>
      <trkpt lat="42.23194395191967487335205078125" lon="2.5461444072425365447998046875">
        <ele>282.600006103515625</ele>
        <time>2020-08-09T05:32:44.000Z</time>
      </trkpt>
      <trkpt lat="42.2319343127310276031494140625" lon="2.5459734164178371429443359375">
        <ele>281.79998779296875</ele>
        <time>2020-08-09T05:32:47.000Z</time>
      </trkpt>
      <trkpt lat="42.2319701872766017913818359375" lon="2.545852549374103546142578125">
        <ele>280.600006103515625</ele>
        <time>2020-08-09T05:32:49.000Z</time>
      </trkpt>
      <trkpt lat="42.232096754014492034912109375" lon="2.54572036676108837127685546875">
        <ele>279.20001220703125</ele>
        <time>2020-08-09T05:32:52.000Z</time>
      </trkpt>
      <trkpt lat="42.2321405075490474700927734375" lon="2.5456817261874675750732421875">
        <ele>278.600006103515625</ele>
        <time>2020-08-09T05:32:53.000Z</time>
      </trkpt>
      <trkpt lat="42.2322055511176586151123046875" lon="2.54557200707495212554931640625">
        <ele>278</ele>
        <time>2020-08-09T05:32:55.000Z</time>
      </trkpt>
      <trkpt lat="42.23219222389161586761474609375" lon="2.54544996656477451324462890625">
        <ele>276.79998779296875</ele>
        <time>2020-08-09T05:32:57.000Z</time>
      </trkpt>
      <trkpt lat="42.23216087557375431060791015625" lon="2.5454057939350605010986328125">
        <ele>276.399993896484375</ele>
        <time>2020-08-09T05:32:58.000Z</time>
      </trkpt>
      <trkpt lat="42.23197865299880504608154296875" lon="2.54533815197646617889404296875">
        <ele>275.79998779296875</ele>
        <time>2020-08-09T05:33:02.000Z</time>
      </trkpt>
      <trkpt lat="42.23192886449396610260009765625" lon="2.54533899016678333282470703125">
        <ele>275.79998779296875</ele>
        <time>2020-08-09T05:33:03.000Z</time>
      </trkpt>
      <trkpt lat="42.23187245428562164306640625" lon="2.5453397445380687713623046875">
        <ele>275.600006103515625</ele>
        <time>2020-08-09T05:33:04.000Z</time>
      </trkpt>
      <trkpt lat="42.23177053034305572509765625" lon="2.545293979346752166748046875">
        <ele>275</ele>
        <time>2020-08-09T05:33:06.000Z</time>
      </trkpt>
      <trkpt lat="42.2317331470549106597900390625" lon="2.54512810148298740386962890625">
        <ele>274.600006103515625</ele>
        <time>2020-08-09T05:33:09.000Z</time>
      </trkpt>
      <trkpt lat="42.23173256032168865203857421875" lon="2.54507160745561122894287109375">
        <ele>274.600006103515625</ele>
        <time>2020-08-09T05:33:10.000Z</time>
      </trkpt>
      <trkpt lat="42.2317586280405521392822265625" lon="2.544858790934085845947265625">
        <ele>274.399993896484375</ele>
        <time>2020-08-09T05:33:14.000Z</time>
      </trkpt>
      <trkpt lat="42.2317753918468952178955078125" lon="2.54454740323126316070556640625">
        <ele>274.20001220703125</ele>
        <time>2020-08-09T05:33:21.000Z</time>
      </trkpt>
      <trkpt lat="42.2317901439964771270751953125" lon="2.54427381791174411773681640625">
        <ele>274.20001220703125</ele>
        <time>2020-08-09T05:33:28.000Z</time>
      </trkpt>
      <trkpt lat="42.23181520588696002960205078125" lon="2.5440660305321216583251953125">
        <ele>273.600006103515625</ele>
        <time>2020-08-09T05:33:32.000Z</time>
      </trkpt>
      <trkpt lat="42.2318307124078273773193359375" lon="2.5439416430890560150146484375">
        <ele>273.399993896484375</ele>
        <time>2020-08-09T05:33:34.000Z</time>
      </trkpt>
      <trkpt lat="42.23185711540281772613525390625" lon="2.54373905248939990997314453125">
        <ele>272.79998779296875</ele>
        <time>2020-08-09T05:33:37.000Z</time>
      </trkpt>
      <trkpt lat="42.23185979761183261871337890625" lon="2.5436100549995899200439453125">
        <ele>272.399993896484375</ele>
        <time>2020-08-09T05:33:39.000Z</time>
      </trkpt>
      <trkpt lat="42.23185770213603973388671875" lon="2.54354895092546939849853515625">
        <ele>272.20001220703125</ele>
        <time>2020-08-09T05:33:40.000Z</time>
      </trkpt>
      <trkpt lat="42.2318570315837860107421875" lon="2.5432533212006092071533203125">
        <ele>272.79998779296875</ele>
        <time>2020-08-09T05:33:46.000Z</time>
      </trkpt>
      <trkpt lat="42.231887876987457275390625" lon="2.54306397400796413421630859375">
        <ele>273.399993896484375</ele>
        <time>2020-08-09T05:33:51.000Z</time>
      </trkpt>
      <trkpt lat="42.2319026291370391845703125" lon="2.54299624823033809661865234375">
        <ele>273.600006103515625</ele>
        <time>2020-08-09T05:33:53.000Z</time>
      </trkpt>
      <trkpt lat="42.23198720254004001617431640625" lon="2.5427054800093173980712890625">
        <ele>274.399993896484375</ele>
        <time>2020-08-09T05:34:02.000Z</time>
      </trkpt>
      <trkpt lat="42.23199893720448017120361328125" lon="2.542671449482440948486328125">
        <ele>274.399993896484375</ele>
        <time>2020-08-09T05:34:03.000Z</time>
      </trkpt>
      <trkpt lat="42.23210572265088558197021484375" lon="2.54243575036525726318359375">
        <ele>274.399993896484375</ele>
        <time>2020-08-09T05:34:10.000Z</time>
      </trkpt>
      <trkpt lat="42.23228308372199535369873046875" lon="2.5420533679425716400146484375">
        <ele>274.79998779296875</ele>
        <time>2020-08-09T05:34:22.000Z</time>
      </trkpt>
      <trkpt lat="42.23237377591431140899658203125" lon="2.541892267763614654541015625">
        <ele>275.600006103515625</ele>
        <time>2020-08-09T05:34:28.000Z</time>
      </trkpt>
      <trkpt lat="42.23244619555771350860595703125" lon="2.541805095970630645751953125">
        <ele>275.79998779296875</ele>
        <time>2020-08-09T05:34:32.000Z</time>
      </trkpt>
      <trkpt lat="42.23255868069827556610107421875" lon="2.54168716259300708770751953125">
        <ele>276.399993896484375</ele>
        <time>2020-08-09T05:34:38.000Z</time>
      </trkpt>
      <trkpt lat="42.23260478116571903228759765625" lon="2.5416178442537784576416015625">
        <ele>276.600006103515625</ele>
        <time>2020-08-09T05:34:41.000Z</time>
      </trkpt>
      <trkpt lat="42.2326643764972686767578125" lon="2.54144878126680850982666015625">
        <ele>277</ele>
        <time>2020-08-09T05:34:47.000Z</time>
      </trkpt>
      <trkpt lat="42.23268206231296062469482421875" lon="2.54140041768550872802734375">
        <ele>277.399993896484375</ele>
        <time>2020-08-09T05:34:49.000Z</time>
      </trkpt>
      <trkpt lat="42.2327208705246448516845703125" lon="2.541308887302875518798828125">
        <ele>278.20001220703125</ele>
        <time>2020-08-09T05:34:53.000Z</time>
      </trkpt>
      <trkpt lat="42.23273210227489471435546875" lon="2.541261948645114898681640625">
        <ele>278.600006103515625</ele>
        <time>2020-08-09T05:34:55.000Z</time>
      </trkpt>
      <trkpt lat="42.23275213502347469329833984375" lon="2.54113663919270038604736328125">
        <ele>279.20001220703125</ele>
        <time>2020-08-09T05:35:00.000Z</time>
      </trkpt>
      <trkpt lat="42.23277074284851551055908203125" lon="2.5410632975399494171142578125">
        <ele>279.600006103515625</ele>
        <time>2020-08-09T05:35:03.000Z</time>
      </trkpt>
      <trkpt lat="42.2328016720712184906005859375" lon="2.54094821400940418243408203125">
        <ele>280.399993896484375</ele>
        <time>2020-08-09T05:35:08.000Z</time>
      </trkpt>
      <trkpt lat="42.23281449638307094573974609375" lon="2.540875039994716644287109375">
        <ele>280.600006103515625</ele>
        <time>2020-08-09T05:35:11.000Z</time>
      </trkpt>
      <trkpt lat="42.23283536732196807861328125" lon="2.54077143967151641845703125">
        <ele>281.20001220703125</ele>
        <time>2020-08-09T05:35:15.000Z</time>
      </trkpt>
      <trkpt lat="42.23285657353699207305908203125" lon="2.54064311273396015167236328125">
        <ele>281.600006103515625</ele>
        <time>2020-08-09T05:35:20.000Z</time>
      </trkpt>
      <trkpt lat="42.232861183583736419677734375" lon="2.5406167097389698028564453125">
        <ele>281.79998779296875</ele>
        <time>2020-08-09T05:35:21.000Z</time>
      </trkpt>
      <trkpt lat="42.23290183581411838531494140625" lon="2.5404510833323001861572265625">
        <ele>282.399993896484375</ele>
        <time>2020-08-09T05:35:28.000Z</time>
      </trkpt>
      <trkpt lat="42.2329111397266387939453125" lon="2.54040204919874668121337890625">
        <ele>282.79998779296875</ele>
        <time>2020-08-09T05:35:30.000Z</time>
      </trkpt>
      <trkpt lat="42.23295740783214569091796875" lon="2.5402361713349819183349609375">
        <ele>283.600006103515625</ele>
        <time>2020-08-09T05:35:37.000Z</time>
      </trkpt>
      <trkpt lat="42.2329810447990894317626953125" lon="2.5401738099753856658935546875">
        <ele>284</ele>
        <time>2020-08-09T05:35:40.000Z</time>
      </trkpt>
      <trkpt lat="42.2330023348331451416015625" lon="2.5401067547500133514404296875">
        <ele>284.600006103515625</ele>
        <time>2020-08-09T05:35:43.000Z</time>
      </trkpt>
      <trkpt lat="42.2330326773226261138916015625" lon="2.54002603702247142791748046875">
        <ele>285</ele>
        <time>2020-08-09T05:35:47.000Z</time>
      </trkpt>
      <trkpt lat="42.23307366482913494110107421875" lon="2.539906762540340423583984375">
        <ele>286</ele>
        <time>2020-08-09T05:35:53.000Z</time>
      </trkpt>
      <trkpt lat="42.23308087326586246490478515625" lon="2.5398868136107921600341796875">
        <ele>286.20001220703125</ele>
        <time>2020-08-09T05:35:54.000Z</time>
      </trkpt>
      <trkpt lat="42.23312102258205413818359375" lon="2.5397662818431854248046875">
        <ele>287.20001220703125</ele>
        <time>2020-08-09T05:36:00.000Z</time>
      </trkpt>
      <trkpt lat="42.23312848247587680816650390625" lon="2.53974675200879573822021484375">
        <ele>287.20001220703125</ele>
        <time>2020-08-09T05:36:01.000Z</time>
      </trkpt>
      <trkpt lat="42.23319570533931255340576171875" lon="2.539622448384761810302734375">
        <ele>288.20001220703125</ele>
        <time>2020-08-09T05:36:08.000Z</time>
      </trkpt>
      <trkpt lat="42.23320484161376953125" lon="2.5396041758358478546142578125">
        <ele>288.399993896484375</ele>
        <time>2020-08-09T05:36:09.000Z</time>
      </trkpt>
      <trkpt lat="42.23327248357236385345458984375" lon="2.53952530212700366973876953125">
        <ele>289.20001220703125</ele>
        <time>2020-08-09T05:36:14.000Z</time>
      </trkpt>
      <trkpt lat="42.2333159856498241424560546875" lon="2.53948238678276538848876953125">
        <ele>289.399993896484375</ele>
        <time>2020-08-09T05:36:17.000Z</time>
      </trkpt>
      <trkpt lat="42.23348203115165233612060546875" lon="2.53939052112400531768798828125">
        <ele>290.399993896484375</ele>
        <time>2020-08-09T05:36:27.000Z</time>
      </trkpt>
      <trkpt lat="42.23361991345882415771484375" lon="2.53933201543986797332763671875">
        <ele>290.79998779296875</ele>
        <time>2020-08-09T05:36:35.000Z</time>
      </trkpt>
      <trkpt lat="42.233687303960323333740234375" lon="2.53929999656975269317626953125">
        <ele>291.20001220703125</ele>
        <time>2020-08-09T05:36:39.000Z</time>
      </trkpt>
      <trkpt lat="42.23371974192559719085693359375" lon="2.53928423859179019927978515625">
        <ele>291.20001220703125</ele>
        <time>2020-08-09T05:36:41.000Z</time>
      </trkpt>
      <trkpt lat="42.2338175587356090545654296875" lon="2.53923185169696807861328125">
        <ele>292</ele>
        <time>2020-08-09T05:36:47.000Z</time>
      </trkpt>
      <trkpt lat="42.2338490746915340423583984375" lon="2.5392075441777706146240234375">
        <ele>292.20001220703125</ele>
        <time>2020-08-09T05:36:49.000Z</time>
      </trkpt>
      <trkpt lat="42.23395393230020999908447265625" lon="2.5391493737697601318359375">
        <ele>293</ele>
        <time>2020-08-09T05:36:55.000Z</time>
      </trkpt>
      <trkpt lat="42.23398343659937381744384765625" lon="2.5391225516796112060546875">
        <ele>293.399993896484375</ele>
        <time>2020-08-09T05:36:57.000Z</time>
      </trkpt>
      <trkpt lat="42.23405300639569759368896484375" lon="2.53906689584255218505859375">
        <ele>294.399993896484375</ele>
        <time>2020-08-09T05:37:02.000Z</time>
      </trkpt>
      <trkpt lat="42.2340659983456134796142578125" lon="2.539055161178112030029296875">
        <ele>294.399993896484375</ele>
        <time>2020-08-09T05:37:03.000Z</time>
      </trkpt>
      <trkpt lat="42.23407697863876819610595703125" lon="2.53904367797076702117919921875">
        <ele>294.600006103515625</ele>
        <time>2020-08-09T05:37:04.000Z</time>
      </trkpt>
      <trkpt lat="42.2341075725853443145751953125" lon="2.539004869759082794189453125">
        <ele>295.600006103515625</ele>
        <time>2020-08-09T05:37:07.000Z</time>
      </trkpt>
      <trkpt lat="42.2341209836304187774658203125" lon="2.53899036906659603118896484375">
        <ele>295.79998779296875</ele>
        <time>2020-08-09T05:37:08.000Z</time>
      </trkpt>
      <trkpt lat="42.2341744601726531982421875" lon="2.53894125111401081085205078125">
        <ele>296.600006103515625</ele>
        <time>2020-08-09T05:37:12.000Z</time>
      </trkpt>
      <trkpt lat="42.2342165373265743255615234375" lon="2.53887704573571681976318359375">
        <ele>297.20001220703125</ele>
        <time>2020-08-09T05:37:16.000Z</time>
      </trkpt>
      <trkpt lat="42.2343365661799907684326171875" lon="2.53867638297379016876220703125">
        <ele>297.399993896484375</ele>
        <time>2020-08-09T05:37:25.000Z</time>
      </trkpt>
      <trkpt lat="42.2344519011676311492919921875" lon="2.53846901468932628631591796875">
        <ele>297</ele>
        <time>2020-08-09T05:37:30.000Z</time>
      </trkpt>
      <trkpt lat="42.23445416428148746490478515625" lon="2.5383210740983486175537109375">
        <ele>296.600006103515625</ele>
        <time>2020-08-09T05:37:33.000Z</time>
      </trkpt>
      <trkpt lat="42.2343633882701396942138671875" lon="2.53825376741588115692138671875">
        <ele>296.79998779296875</ele>
        <time>2020-08-09T05:37:37.000Z</time>
      </trkpt>
      <trkpt lat="42.2341910563409328460693359375" lon="2.5382173061370849609375">
        <ele>297.20001220703125</ele>
        <time>2020-08-09T05:37:45.000Z</time>
      </trkpt>
      <trkpt lat="42.23410715349018573760986328125" lon="2.53825158812105655670166015625">
        <ele>297.79998779296875</ele>
        <time>2020-08-09T05:37:50.000Z</time>
      </trkpt>
      <trkpt lat="42.23409156315028667449951171875" lon="2.538264580070972442626953125">
        <ele>298</ele>
        <time>2020-08-09T05:37:51.000Z</time>
      </trkpt>
      <trkpt lat="42.23397907800972461700439453125" lon="2.53835367970168590545654296875">
        <ele>298.600006103515625</ele>
        <time>2020-08-09T05:37:58.000Z</time>
      </trkpt>
      <trkpt lat="42.233938090503215789794921875" lon="2.53838184289634227752685546875">
        <ele>298.79998779296875</ele>
        <time>2020-08-09T05:38:00.000Z</time>
      </trkpt>
      <trkpt lat="42.23382870666682720184326171875" lon="2.53844202496111392974853515625">
        <ele>298.79998779296875</ele>
        <time>2020-08-09T05:38:05.000Z</time>
      </trkpt>
      <trkpt lat="42.23362871445715427398681640625" lon="2.5384957529604434967041015625">
        <ele>298.600006103515625</ele>
        <time>2020-08-09T05:38:12.000Z</time>
      </trkpt>
      <trkpt lat="42.2335521876811981201171875" lon="2.53844671882688999176025390625">
        <ele>298.600006103515625</ele>
        <time>2020-08-09T05:38:15.000Z</time>
      </trkpt>
      <trkpt lat="42.23352603614330291748046875" lon="2.538386620581150054931640625">
        <ele>298.600006103515625</ele>
        <time>2020-08-09T05:38:17.000Z</time>
      </trkpt>
      <trkpt lat="42.23351522348821163177490234375" lon="2.53823700360953807830810546875">
        <ele>298.600006103515625</ele>
        <time>2020-08-09T05:38:22.000Z</time>
      </trkpt>
      <trkpt lat="42.2335295565426349639892578125" lon="2.5380994565784931182861328125">
        <ele>299</ele>
        <time>2020-08-09T05:38:27.000Z</time>
      </trkpt>
      <trkpt lat="42.2335604019463062286376953125" lon="2.53787959925830364227294921875">
        <ele>300</ele>
        <time>2020-08-09T05:38:35.000Z</time>
      </trkpt>
      <trkpt lat="42.23359736613929271697998046875" lon="2.5377045013010501861572265625">
        <ele>300</ele>
        <time>2020-08-09T05:38:41.000Z</time>
      </trkpt>
      <trkpt lat="42.23362452350556850433349609375" lon="2.53751062788069248199462890625">
        <ele>300.399993896484375</ele>
        <time>2020-08-09T05:38:47.000Z</time>
      </trkpt>
      <trkpt lat="42.23365771584212779998779296875" lon="2.53733645193278789520263671875">
        <ele>300.600006103515625</ele>
        <time>2020-08-09T05:38:53.000Z</time>
      </trkpt>
      <trkpt lat="42.233702726662158966064453125" lon="2.53713562153279781341552734375">
        <ele>300.600006103515625</ele>
        <time>2020-08-09T05:38:59.000Z</time>
      </trkpt>
      <trkpt lat="42.2337642498314380645751953125" lon="2.53691718913614749908447265625">
        <ele>301.20001220703125</ele>
        <time>2020-08-09T05:39:06.000Z</time>
      </trkpt>
      <trkpt lat="42.23379157483577728271484375" lon="2.5366909615695476531982421875">
        <ele>301.399993896484375</ele>
        <time>2020-08-09T05:39:13.000Z</time>
      </trkpt>
      <trkpt lat="42.23379962146282196044921875" lon="2.53654939122498035430908203125">
        <ele>302.20001220703125</ele>
        <time>2020-08-09T05:39:18.000Z</time>
      </trkpt>
      <trkpt lat="42.23378176800906658172607421875" lon="2.53635895438492298126220703125">
        <ele>303</ele>
        <time>2020-08-09T05:39:24.000Z</time>
      </trkpt>
      <trkpt lat="42.23376316018402576446533203125" lon="2.53625820390880107879638671875">
        <ele>303.20001220703125</ele>
        <time>2020-08-09T05:39:27.000Z</time>
      </trkpt>
      <trkpt lat="42.233740948140621185302734375" lon="2.5361193157732486724853515625">
        <ele>303.20001220703125</ele>
        <time>2020-08-09T05:39:31.000Z</time>
      </trkpt>
      <trkpt lat="42.23371915519237518310546875" lon="2.53592737019062042236328125">
        <ele>303.399993896484375</ele>
        <time>2020-08-09T05:39:36.000Z</time>
      </trkpt>
      <trkpt lat="42.23368856124579906463623046875" lon="2.5355583988130092620849609375">
        <ele>302.79998779296875</ele>
        <time>2020-08-09T05:39:43.000Z</time>
      </trkpt>
      <trkpt lat="42.2336945123970508575439453125" lon="2.53513653762638568878173828125">
        <ele>302</ele>
        <time>2020-08-09T05:39:50.000Z</time>
      </trkpt>
      <trkpt lat="42.2336998768150806427001953125" lon="2.53507954068481922149658203125">
        <ele>302</ele>
        <time>2020-08-09T05:39:51.000Z</time>
      </trkpt>
      <trkpt lat="42.233738936483860015869140625" lon="2.53463395871222019195556640625">
        <ele>301.600006103515625</ele>
        <time>2020-08-09T05:39:59.000Z</time>
      </trkpt>
      <trkpt lat="42.233769781887531280517578125" lon="2.53446212969720363616943359375">
        <ele>301</ele>
        <time>2020-08-09T05:40:02.000Z</time>
      </trkpt>
      <trkpt lat="42.233777828514575958251953125" lon="2.53439960069954395294189453125">
        <ele>300.79998779296875</ele>
        <time>2020-08-09T05:40:03.000Z</time>
      </trkpt>
      <trkpt lat="42.233783192932605743408203125" lon="2.53426867537200450897216796875">
        <ele>300.600006103515625</ele>
        <time>2020-08-09T05:40:05.000Z</time>
      </trkpt>
      <trkpt lat="42.23375930450856685638427734375" lon="2.53407798707485198974609375">
        <ele>300.20001220703125</ele>
        <time>2020-08-09T05:40:08.000Z</time>
      </trkpt>
      <trkpt lat="42.23374706692993640899658203125" lon="2.5340100936591625213623046875">
        <ele>300</ele>
        <time>2020-08-09T05:40:09.000Z</time>
      </trkpt>
      <trkpt lat="42.23373918794095516204833984375" lon="2.53394044004380702972412109375">
        <ele>299.79998779296875</ele>
        <time>2020-08-09T05:40:10.000Z</time>
      </trkpt>
      <trkpt lat="42.23375092260539531707763671875" lon="2.53379073925316333770751953125">
        <ele>299.20001220703125</ele>
        <time>2020-08-09T05:40:12.000Z</time>
      </trkpt>
      <trkpt lat="42.23377942107617855072021484375" lon="2.53371228463947772979736328125">
        <ele>298.79998779296875</ele>
        <time>2020-08-09T05:40:13.000Z</time>
      </trkpt>
      <trkpt lat="42.23386391066014766693115234375" lon="2.53355336375534534454345703125">
        <ele>297.600006103515625</ele>
        <time>2020-08-09T05:40:15.000Z</time>
      </trkpt>
      <trkpt lat="42.2339788265526294708251953125" lon="2.53339595161378383636474609375">
        <ele>296</ele>
        <time>2020-08-09T05:40:17.000Z</time>
      </trkpt>
      <trkpt lat="42.2340953350067138671875" lon="2.53322864882647991180419921875">
        <ele>295</ele>
        <time>2020-08-09T05:40:19.000Z</time>
      </trkpt>
      <trkpt lat="42.2341524995863437652587890625" lon="2.533142901957035064697265625">
        <ele>294.20001220703125</ele>
        <time>2020-08-09T05:40:20.000Z</time>
      </trkpt>
      <trkpt lat="42.23421293310821056365966796875" lon="2.5330552272498607635498046875">
        <ele>293.600006103515625</ele>
        <time>2020-08-09T05:40:21.000Z</time>
      </trkpt>
      <trkpt lat="42.23440169356763362884521484375" lon="2.53279144875705242156982421875">
        <ele>292.20001220703125</ele>
        <time>2020-08-09T05:40:24.000Z</time>
      </trkpt>
      <trkpt lat="42.23452725447714328765869140625" lon="2.53261148929595947265625">
        <ele>290.79998779296875</ele>
        <time>2020-08-09T05:40:26.000Z</time>
      </trkpt>
      <trkpt lat="42.23459129221737384796142578125" lon="2.5325345434248447418212890625">
        <ele>290.600006103515625</ele>
        <time>2020-08-09T05:40:27.000Z</time>
      </trkpt>
      <trkpt lat="42.234861440956592559814453125" lon="2.5322405062615871429443359375">
        <ele>290.600006103515625</ele>
        <time>2020-08-09T05:40:32.000Z</time>
      </trkpt>
      <trkpt lat="42.23504894413053989410400390625" lon="2.532039843499660491943359375">
        <ele>291.399993896484375</ele>
        <time>2020-08-09T05:40:37.000Z</time>
      </trkpt>
      <trkpt lat="42.235217504203319549560546875" lon="2.53191922791302204132080078125">
        <ele>291.399993896484375</ele>
        <time>2020-08-09T05:40:41.000Z</time>
      </trkpt>
      <trkpt lat="42.2352602519094944000244140625" lon="2.53188804723322391510009765625">
        <ele>291.20001220703125</ele>
        <time>2020-08-09T05:40:42.000Z</time>
      </trkpt>
      <trkpt lat="42.23545798100531101226806640625" lon="2.53169895149767398834228515625">
        <ele>291.20001220703125</ele>
        <time>2020-08-09T05:40:48.000Z</time>
      </trkpt>
      <trkpt lat="42.23559133708477020263671875" lon="2.53145478665828704833984375">
        <ele>292</ele>
        <time>2020-08-09T05:40:55.000Z</time>
      </trkpt>
      <trkpt lat="42.2356230206787586212158203125" lon="2.5313909165561199188232421875">
        <ele>292</ele>
        <time>2020-08-09T05:40:57.000Z</time>
      </trkpt>
      <trkpt lat="42.235757969319820404052734375" lon="2.53111959435045719146728515625">
        <ele>292.79998779296875</ele>
        <time>2020-08-09T05:41:06.000Z</time>
      </trkpt>
      <trkpt lat="42.23586567677557468414306640625" lon="2.53089286386966705322265625">
        <ele>292.600006103515625</ele>
        <time>2020-08-09T05:41:13.000Z</time>
      </trkpt>
      <trkpt lat="42.23600112833082675933837890625" lon="2.5306026823818683624267578125">
        <ele>291.600006103515625</ele>
        <time>2020-08-09T05:41:20.000Z</time>
      </trkpt>
      <trkpt lat="42.23612937144935131072998046875" lon="2.530355751514434814453125">
        <ele>290.600006103515625</ele>
        <time>2020-08-09T05:41:25.000Z</time>
      </trkpt>
      <trkpt lat="42.23618821240961551666259765625" lon="2.53026547841727733612060546875">
        <ele>289.79998779296875</ele>
        <time>2020-08-09T05:41:27.000Z</time>
      </trkpt>
      <trkpt lat="42.23622341640293598175048828125" lon="2.5302275083959102630615234375">
        <ele>289.600006103515625</ele>
        <time>2020-08-09T05:41:28.000Z</time>
      </trkpt>
      <trkpt lat="42.23634797148406505584716796875" lon="2.530134133994579315185546875">
        <ele>288.600006103515625</ele>
        <time>2020-08-09T05:41:31.000Z</time>
      </trkpt>
      <trkpt lat="42.23643380217254161834716796875" lon="2.53007085062563419342041015625">
        <ele>288.20001220703125</ele>
        <time>2020-08-09T05:41:33.000Z</time>
      </trkpt>
      <trkpt lat="42.23647789098322391510009765625" lon="2.52995618619024753570556640625">
        <ele>287.600006103515625</ele>
        <time>2020-08-09T05:41:35.000Z</time>
      </trkpt>
      <trkpt lat="42.23648023791611194610595703125" lon="2.529894411563873291015625">
        <ele>287.399993896484375</ele>
        <time>2020-08-09T05:41:36.000Z</time>
      </trkpt>
      <trkpt lat="42.23644427955150604248046875" lon="2.52973892726004123687744140625">
        <ele>287.79998779296875</ele>
        <time>2020-08-09T05:41:40.000Z</time>
      </trkpt>
      <trkpt lat="42.23642542026937007904052734375" lon="2.52968092449009418487548828125">
        <ele>288.600006103515625</ele>
        <time>2020-08-09T05:41:42.000Z</time>
      </trkpt>
      <trkpt lat="42.23641938529908657073974609375" lon="2.529653348028659820556640625">
        <ele>288.79998779296875</ele>
        <time>2020-08-09T05:41:43.000Z</time>
      </trkpt>
      <trkpt lat="42.2364006936550140380859375" lon="2.52957346849143505096435546875">
        <ele>289.79998779296875</ele>
        <time>2020-08-09T05:41:46.000Z</time>
      </trkpt>
      <trkpt lat="42.23639977164566516876220703125" lon="2.52954781986773014068603515625">
        <ele>290</ele>
        <time>2020-08-09T05:41:47.000Z</time>
      </trkpt>
      <trkpt lat="42.23641988821327686309814453125" lon="2.5294178165495395660400390625">
        <ele>290.79998779296875</ele>
        <time>2020-08-09T05:41:52.000Z</time>
      </trkpt>
      <trkpt lat="42.23644268698990345001220703125" lon="2.5293725542724132537841796875">
        <ele>291.20001220703125</ele>
        <time>2020-08-09T05:41:54.000Z</time>
      </trkpt>
      <trkpt lat="42.236486859619617462158203125" lon="2.52927959896624088287353515625">
        <ele>291.79998779296875</ele>
        <time>2020-08-09T05:41:58.000Z</time>
      </trkpt>
      <trkpt lat="42.23652181215584278106689453125" lon="2.5292171537876129150390625">
        <ele>292.20001220703125</ele>
        <time>2020-08-09T05:42:01.000Z</time>
      </trkpt>
      <trkpt lat="42.2366070561110973358154296875" lon="2.52910106442868709564208984375">
        <ele>292.79998779296875</ele>
        <time>2020-08-09T05:42:07.000Z</time>
      </trkpt>
      <trkpt lat="42.236635051667690277099609375" lon="2.529065273702144622802734375">
        <ele>293</ele>
        <time>2020-08-09T05:42:09.000Z</time>
      </trkpt>
      <trkpt lat="42.23676086403429508209228515625" lon="2.52896762453019618988037109375">
        <ele>293.79998779296875</ele>
        <time>2020-08-09T05:42:16.000Z</time>
      </trkpt>
      <trkpt lat="42.2367803938686847686767578125" lon="2.52895421348512172698974609375">
        <ele>294</ele>
        <time>2020-08-09T05:42:17.000Z</time>
      </trkpt>
      <trkpt lat="42.2368378937244415283203125" lon="2.5289159081876277923583984375">
        <ele>294.20001220703125</ele>
        <time>2020-08-09T05:42:20.000Z</time>
      </trkpt>
      <trkpt lat="42.23690025508403778076171875" lon="2.528892271220684051513671875">
        <ele>294.399993896484375</ele>
        <time>2020-08-09T05:42:23.000Z</time>
      </trkpt>
      <trkpt lat="42.23702640272676944732666015625" lon="2.52882278524339199066162109375">
        <ele>295</ele>
        <time>2020-08-09T05:42:29.000Z</time>
      </trkpt>
      <trkpt lat="42.23704819567501544952392578125" lon="2.52881281077861785888671875">
        <ele>295</ele>
        <time>2020-08-09T05:42:30.000Z</time>
      </trkpt>
      <trkpt lat="42.23722790367901325225830078125" lon="2.528691776096820831298828125">
        <ele>295.399993896484375</ele>
        <time>2020-08-09T05:42:39.000Z</time>
      </trkpt>
      <trkpt lat="42.23736084066331386566162109375" lon="2.52859429456293582916259765625">
        <ele>295.79998779296875</ele>
        <time>2020-08-09T05:42:46.000Z</time>
      </trkpt>
      <trkpt lat="42.2373775206506252288818359375" lon="2.52857736311852931976318359375">
        <ele>296</ele>
        <time>2020-08-09T05:42:47.000Z</time>
      </trkpt>
      <trkpt lat="42.23748070187866687774658203125" lon="2.52843118272721767425537109375">
        <ele>297</ele>
        <time>2020-08-09T05:42:54.000Z</time>
      </trkpt>
      <trkpt lat="42.23750400356948375701904296875" lon="2.5283811427652835845947265625">
        <ele>297.20001220703125</ele>
        <time>2020-08-09T05:42:56.000Z</time>
      </trkpt>
      <trkpt lat="42.2375726513564586639404296875" lon="2.528227753937244415283203125">
        <ele>297.79998779296875</ele>
        <time>2020-08-09T05:43:02.000Z</time>
      </trkpt>
      <trkpt lat="42.23764766938984394073486328125" lon="2.52800454385578632354736328125">
        <ele>298</ele>
        <time>2020-08-09T05:43:10.000Z</time>
      </trkpt>
      <trkpt lat="42.2377617470920085906982421875" lon="2.5277679227292537689208984375">
        <ele>297.79998779296875</ele>
        <time>2020-08-09T05:43:18.000Z</time>
      </trkpt>
      <trkpt lat="42.23784573376178741455078125" lon="2.52771821804344654083251953125">
        <ele>297.600006103515625</ele>
        <time>2020-08-09T05:43:22.000Z</time>
      </trkpt>
      <trkpt lat="42.23785269074141979217529296875" lon="2.5277206487953662872314453125">
        <ele>297</ele>
        <time>2020-08-09T05:43:31.000Z</time>
      </trkpt>
      <trkpt lat="42.23789895884692668914794921875" lon="2.527716793119907379150390625">
        <ele>297</ele>
        <time>2020-08-09T05:43:49.000Z</time>
      </trkpt>
      <trkpt lat="42.23805871792137622833251953125" lon="2.5277649052441120147705078125">
        <ele>296.600006103515625</ele>
        <time>2020-08-09T05:43:54.000Z</time>
      </trkpt>
      <trkpt lat="42.2381027229130268096923828125" lon="2.527790553867816925048828125">
        <ele>296.399993896484375</ele>
        <time>2020-08-09T05:43:55.000Z</time>
      </trkpt>
      <trkpt lat="42.2381982766091823577880859375" lon="2.527861297130584716796875">
        <ele>295.79998779296875</ele>
        <time>2020-08-09T05:43:57.000Z</time>
      </trkpt>
      <trkpt lat="42.238302715122699737548828125" lon="2.527951486408710479736328125">
        <ele>295.20001220703125</ele>
        <time>2020-08-09T05:43:59.000Z</time>
      </trkpt>
      <trkpt lat="42.238350324332714080810546875" lon="2.52800119109451770782470703125">
        <ele>294.399993896484375</ele>
        <time>2020-08-09T05:44:00.000Z</time>
      </trkpt>
      <trkpt lat="42.23844093270599842071533203125" lon="2.52808081917464733123779296875">
        <ele>293.20001220703125</ele>
        <time>2020-08-09T05:44:02.000Z</time>
      </trkpt>
      <trkpt lat="42.2384916432201862335205078125" lon="2.52809942699968814849853515625">
        <ele>292.79998779296875</ele>
        <time>2020-08-09T05:44:03.000Z</time>
      </trkpt>
      <trkpt lat="42.238570936024188995361328125" lon="2.5280736945569515228271484375">
        <ele>292.20001220703125</ele>
        <time>2020-08-09T05:44:05.000Z</time>
      </trkpt>
      <trkpt lat="42.23859407007694244384765625" lon="2.52803136594593524932861328125">
        <ele>292</ele>
        <time>2020-08-09T05:44:06.000Z</time>
      </trkpt>
      <trkpt lat="42.2386220656335353851318359375" lon="2.52787646837532520294189453125">
        <ele>292.20001220703125</ele>
        <time>2020-08-09T05:44:10.000Z</time>
      </trkpt>
      <trkpt lat="42.23862181417644023895263671875" lon="2.52784587442874908447265625">
        <ele>292.399993896484375</ele>
        <time>2020-08-09T05:44:11.000Z</time>
      </trkpt>
      <trkpt lat="42.23862919025123119354248046875" lon="2.52770413644611835479736328125">
        <ele>293.399993896484375</ele>
        <time>2020-08-09T05:44:16.000Z</time>
      </trkpt>
      <trkpt lat="42.23863430321216583251953125" lon="2.5275459699332714080810546875">
        <ele>294.600006103515625</ele>
        <time>2020-08-09T05:44:22.000Z</time>
      </trkpt>
      <trkpt lat="42.23863539285957813262939453125" lon="2.5274924933910369873046875">
        <ele>295</ele>
        <time>2020-08-09T05:44:24.000Z</time>
      </trkpt>
      <trkpt lat="42.2386552579700946807861328125" lon="2.5273717939853668212890625">
        <ele>295.79998779296875</ele>
        <time>2020-08-09T05:44:29.000Z</time>
      </trkpt>
      <trkpt lat="42.23867059685289859771728515625" lon="2.527324520051479339599609375">
        <ele>296</ele>
        <time>2020-08-09T05:44:31.000Z</time>
      </trkpt>
      <trkpt lat="42.2386971674859523773193359375" lon="2.5272234342992305755615234375">
        <ele>296.399993896484375</ele>
        <time>2020-08-09T05:44:35.000Z</time>
      </trkpt>
      <trkpt lat="42.2387142665684223175048828125" lon="2.527167610824108123779296875">
        <ele>296.399993896484375</ele>
        <time>2020-08-09T05:44:37.000Z</time>
      </trkpt>
      <trkpt lat="42.2387970797717571258544921875" lon="2.52693635411560535430908203125">
        <ele>296.79998779296875</ele>
        <time>2020-08-09T05:44:45.000Z</time>
      </trkpt>
      <trkpt lat="42.2388497181236743927001953125" lon="2.52671800553798675537109375">
        <ele>297.79998779296875</ele>
        <time>2020-08-09T05:44:52.000Z</time>
      </trkpt>
      <trkpt lat="42.23885969258844852447509765625" lon="2.5266571529209613800048828125">
        <ele>298</ele>
        <time>2020-08-09T05:44:54.000Z</time>
      </trkpt>
      <trkpt lat="42.238853238523006439208984375" lon="2.52653804607689380645751953125">
        <ele>298.20001220703125</ele>
        <time>2020-08-09T05:44:58.000Z</time>
      </trkpt>
      <trkpt lat="42.2387692518532276153564453125" lon="2.526327408850193023681640625">
        <ele>298.20001220703125</ele>
        <time>2020-08-09T05:45:05.000Z</time>
      </trkpt>
      <trkpt lat="42.238707728683948516845703125" lon="2.52609036862850189208984375">
        <ele>299</ele>
        <time>2020-08-09T05:45:12.000Z</time>
      </trkpt>
      <trkpt lat="42.238762043416500091552734375" lon="2.5258947350084781646728515625">
        <ele>299.20001220703125</ele>
        <time>2020-08-09T05:45:18.000Z</time>
      </trkpt>
      <trkpt lat="42.23886656574904918670654296875" lon="2.52570203505456447601318359375">
        <ele>300</ele>
        <time>2020-08-09T05:45:25.000Z</time>
      </trkpt>
      <trkpt lat="42.23898072727024555206298828125" lon="2.52543649636209011077880859375">
        <ele>300</ele>
        <time>2020-08-09T05:45:34.000Z</time>
      </trkpt>
      <trkpt lat="42.23907846026122570037841796875" lon="2.52517615444958209991455078125">
        <ele>300.20001220703125</ele>
        <time>2020-08-09T05:45:43.000Z</time>
      </trkpt>
      <trkpt lat="42.2392222099006175994873046875" lon="2.52495738677680492401123046875">
        <ele>301</ele>
        <time>2020-08-09T05:45:52.000Z</time>
      </trkpt>
      <trkpt lat="42.2392654605209827423095703125" lon="2.5249231047928333282470703125">
        <ele>301</ele>
        <time>2020-08-09T05:45:54.000Z</time>
      </trkpt>
      <trkpt lat="42.2393392212688922882080078125" lon="2.5249100290238857269287109375">
        <ele>301</ele>
        <time>2020-08-09T05:45:57.000Z</time>
      </trkpt>
      <trkpt lat="42.23950736224651336669921875" lon="2.52498253248631954193115234375">
        <ele>301.399993896484375</ele>
        <time>2020-08-09T05:46:04.000Z</time>
      </trkpt>
      <trkpt lat="42.239706851541996002197265625" lon="2.52515452913939952850341796875">
        <ele>301.399993896484375</ele>
        <time>2020-08-09T05:46:12.000Z</time>
      </trkpt>
      <trkpt lat="42.2399143874645233154296875" lon="2.5252852030098438262939453125">
        <ele>300.600006103515625</ele>
        <time>2020-08-09T05:46:19.000Z</time>
      </trkpt>
      <trkpt lat="42.2399997152388095855712890625" lon="2.52526885829865932464599609375">
        <ele>300.600006103515625</ele>
        <time>2020-08-09T05:46:23.000Z</time>
      </trkpt>
      <trkpt lat="42.240014970302581787109375" lon="2.52525997348129749298095703125">
        <ele>300.600006103515625</ele>
        <time>2020-08-09T05:46:24.000Z</time>
      </trkpt>
      <trkpt lat="42.24009015597403049468994140625" lon="2.52523197792470455169677734375">
        <ele>301.399993896484375</ele>
        <time>2020-08-09T05:46:28.000Z</time>
      </trkpt>
      <trkpt lat="42.2401324845850467681884765625" lon="2.52522057853639125823974609375">
        <ele>301.79998779296875</ele>
        <time>2020-08-09T05:46:30.000Z</time>
      </trkpt>
      <trkpt lat="42.24020431749522686004638671875" lon="2.525212951004505157470703125">
        <ele>302.79998779296875</ele>
        <time>2020-08-09T05:46:34.000Z</time>
      </trkpt>
      <trkpt lat="42.24031613208353519439697265625" lon="2.52514715306460857391357421875">
        <ele>303.79998779296875</ele>
        <time>2020-08-09T05:46:40.000Z</time>
      </trkpt>
      <trkpt lat="42.2403542697429656982421875" lon="2.52511530183255672454833984375">
        <ele>304</ele>
        <time>2020-08-09T05:46:42.000Z</time>
      </trkpt>
      <trkpt lat="42.24048678763210773468017578125" lon="2.52499845810234546661376953125">
        <ele>304.79998779296875</ele>
        <time>2020-08-09T05:46:49.000Z</time>
      </trkpt>
      <trkpt lat="42.240551076829433441162109375" lon="2.524915896356105804443359375">
        <ele>305</ele>
        <time>2020-08-09T05:46:53.000Z</time>
      </trkpt>
      <trkpt lat="42.2405958361923694610595703125" lon="2.52484716475009918212890625">
        <ele>305.399993896484375</ele>
        <time>2020-08-09T05:46:56.000Z</time>
      </trkpt>
      <trkpt lat="42.24062777124345302581787109375" lon="2.52476007677614688873291015625">
        <ele>306.20001220703125</ele>
        <time>2020-08-09T05:46:59.000Z</time>
      </trkpt>
      <trkpt lat="42.24067051894962787628173828125" lon="2.5246022455394268035888671875">
        <ele>306.20001220703125</ele>
        <time>2020-08-09T05:47:04.000Z</time>
      </trkpt>
      <trkpt lat="42.2407619655132293701171875" lon="2.524392195045948028564453125">
        <ele>306.600006103515625</ele>
        <time>2020-08-09T05:47:11.000Z</time>
      </trkpt>
      <trkpt lat="42.240823321044445037841796875" lon="2.5242522172629833221435546875">
        <ele>307.20001220703125</ele>
        <time>2020-08-09T05:47:16.000Z</time>
      </trkpt>
      <trkpt lat="42.24085877649486064910888671875" lon="2.52417284063994884490966796875">
        <ele>307.79998779296875</ele>
        <time>2020-08-09T05:47:19.000Z</time>
      </trkpt>
      <trkpt lat="42.2408932261168956756591796875" lon="2.52410209737718105316162109375">
        <ele>308.20001220703125</ele>
        <time>2020-08-09T05:47:22.000Z</time>
      </trkpt>
      <trkpt lat="42.2409317828714847564697265625" lon="2.5240337848663330078125">
        <ele>308.600006103515625</ele>
        <time>2020-08-09T05:47:25.000Z</time>
      </trkpt>
      <trkpt lat="42.24101887084543704986572265625" lon="2.5238582678139209747314453125">
        <ele>309</ele>
        <time>2020-08-09T05:47:32.000Z</time>
      </trkpt>
      <trkpt lat="42.24104267545044422149658203125" lon="2.523804120719432830810546875">
        <ele>309.600006103515625</ele>
        <time>2020-08-09T05:47:34.000Z</time>
      </trkpt>
      <trkpt lat="42.2411031089723110198974609375" lon="2.523680068552494049072265625">
        <ele>310.399993896484375</ele>
        <time>2020-08-09T05:47:39.000Z</time>
      </trkpt>
      <trkpt lat="42.24114040844142436981201171875" lon="2.52360136248171329498291015625">
        <ele>310.600006103515625</ele>
        <time>2020-08-09T05:47:42.000Z</time>
      </trkpt>
      <trkpt lat="42.24119178950786590576171875" lon="2.52348669804632663726806640625">
        <ele>311</ele>
        <time>2020-08-09T05:47:46.000Z</time>
      </trkpt>
      <trkpt lat="42.24126881919801235198974609375" lon="2.52331721596419811248779296875">
        <ele>311.600006103515625</ele>
        <time>2020-08-09T05:47:52.000Z</time>
      </trkpt>
      <trkpt lat="42.2412901930510997772216796875" lon="2.52325988374650478363037109375">
        <ele>311.79998779296875</ele>
        <time>2020-08-09T05:47:54.000Z</time>
      </trkpt>
      <trkpt lat="42.2413909435272216796875" lon="2.52299484796822071075439453125">
        <ele>312.399993896484375</ele>
        <time>2020-08-09T05:48:03.000Z</time>
      </trkpt>
      <trkpt lat="42.24139991216361522674560546875" lon="2.52296551130712032318115234375">
        <ele>312.600006103515625</ele>
        <time>2020-08-09T05:48:04.000Z</time>
      </trkpt>
      <trkpt lat="42.24143989384174346923828125" lon="2.52278722822666168212890625">
        <ele>313.600006103515625</ele>
        <time>2020-08-09T05:48:10.000Z</time>
      </trkpt>
      <trkpt lat="42.24144601263105869293212890625" lon="2.5227575562894344329833984375">
        <ele>313.600006103515625</ele>
        <time>2020-08-09T05:48:11.000Z</time>
      </trkpt>
      <trkpt lat="42.2414903528988361358642578125" lon="2.52255856990814208984375">
        <ele>314.79998779296875</ele>
        <time>2020-08-09T05:48:18.000Z</time>
      </trkpt>
      <trkpt lat="42.24149596877396106719970703125" lon="2.52253107726573944091796875">
        <ele>315</ele>
        <time>2020-08-09T05:48:19.000Z</time>
      </trkpt>
      <trkpt lat="42.24154341034591197967529296875" lon="2.52239294350147247314453125">
        <ele>315.79998779296875</ele>
        <time>2020-08-09T05:48:24.000Z</time>
      </trkpt>
      <trkpt lat="42.24155598320066928863525390625" lon="2.5223672948777675628662109375">
        <ele>315.79998779296875</ele>
        <time>2020-08-09T05:48:25.000Z</time>
      </trkpt>
      <trkpt lat="42.24166452884674072265625" lon="2.522169649600982666015625">
        <ele>316.399993896484375</ele>
        <time>2020-08-09T05:48:33.000Z</time>
      </trkpt>
      <trkpt lat="42.24169143475592136383056640625" lon="2.52211977727711200714111328125">
        <ele>316.79998779296875</ele>
        <time>2020-08-09T05:48:35.000Z</time>
      </trkpt>
      <trkpt lat="42.241773493587970733642578125" lon="2.52196823246777057647705078125">
        <ele>317.600006103515625</ele>
        <time>2020-08-09T05:48:41.000Z</time>
      </trkpt>
      <trkpt lat="42.2418041713535785675048828125" lon="2.52192280255258083343505859375">
        <ele>317.79998779296875</ele>
        <time>2020-08-09T05:48:43.000Z</time>
      </trkpt>
      <trkpt lat="42.2418655268847942352294921875" lon="2.52181920222938060760498046875">
        <ele>317.600006103515625</ele>
        <time>2020-08-09T05:48:47.000Z</time>
      </trkpt>
      <trkpt lat="42.24195093847811222076416015625" lon="2.52165005542337894439697265625">
        <ele>317.600006103515625</ele>
        <time>2020-08-09T05:48:52.000Z</time>
      </trkpt>
      <trkpt lat="42.242067866027355194091796875" lon="2.5214084051549434661865234375">
        <ele>316.600006103515625</ele>
        <time>2020-08-09T05:48:56.000Z</time>
      </trkpt>
      <trkpt lat="42.24216450937092304229736328125" lon="2.52130807377398014068603515625">
        <ele>315.399993896484375</ele>
        <time>2020-08-09T05:48:58.000Z</time>
      </trkpt>
      <trkpt lat="42.2422272898256778717041015625" lon="2.52126482315361499786376953125">
        <ele>314.79998779296875</ele>
        <time>2020-08-09T05:48:59.000Z</time>
      </trkpt>
      <trkpt lat="42.24229174666106700897216796875" lon="2.521220147609710693359375">
        <ele>314.399993896484375</ele>
        <time>2020-08-09T05:49:00.000Z</time>
      </trkpt>
      <trkpt lat="42.24235427565872669219970703125" lon="2.52117044292390346527099609375">
        <ele>314</ele>
        <time>2020-08-09T05:49:01.000Z</time>
      </trkpt>
      <trkpt lat="42.24254001863300800323486328125" lon="2.52104370854794979095458984375">
        <ele>313</ele>
        <time>2020-08-09T05:49:04.000Z</time>
      </trkpt>
      <trkpt lat="42.24275224842131137847900390625" lon="2.52086819149553775787353515625">
        <ele>313.79998779296875</ele>
        <time>2020-08-09T05:49:09.000Z</time>
      </trkpt>
      <trkpt lat="42.24286942742764949798583984375" lon="2.5207214243710041046142578125">
        <ele>314.399993896484375</ele>
        <time>2020-08-09T05:49:14.000Z</time>
      </trkpt>
      <trkpt lat="42.2429712675511837005615234375" lon="2.52050743438303470611572265625">
        <ele>314.20001220703125</ele>
        <time>2020-08-09T05:49:20.000Z</time>
      </trkpt>
      <trkpt lat="42.2430686652660369873046875" lon="2.52018171362578868865966796875">
        <ele>313.79998779296875</ele>
        <time>2020-08-09T05:49:27.000Z</time>
      </trkpt>
      <trkpt lat="42.2431959025561809539794921875" lon="2.52000401727855205535888671875">
        <ele>314</ele>
        <time>2020-08-09T05:49:32.000Z</time>
      </trkpt>
      <trkpt lat="42.24332473240792751312255859375" lon="2.51987594179809093475341796875">
        <ele>314.20001220703125</ele>
        <time>2020-08-09T05:49:38.000Z</time>
      </trkpt>
      <trkpt lat="42.2434124909341335296630859375" lon="2.51969086937606334686279296875">
        <ele>314.399993896484375</ele>
        <time>2020-08-09T05:49:44.000Z</time>
      </trkpt>
      <trkpt lat="42.243488095700740814208984375" lon="2.51947604119777679443359375">
        <ele>315</ele>
        <time>2020-08-09T05:49:51.000Z</time>
      </trkpt>
      <trkpt lat="42.2435013391077518463134765625" lon="2.5194490514695644378662109375">
        <ele>315.399993896484375</ele>
        <time>2020-08-09T05:49:52.000Z</time>
      </trkpt>
      <trkpt lat="42.243557162582874298095703125" lon="2.51935123465955257415771484375">
        <ele>316.399993896484375</ele>
        <time>2020-08-09T05:49:56.000Z</time>
      </trkpt>
      <trkpt lat="42.24361457861959934234619140625" lon="2.519261129200458526611328125">
        <ele>316.600006103515625</ele>
        <time>2020-08-09T05:50:00.000Z</time>
      </trkpt>
      <trkpt lat="42.24369839765131473541259765625" lon="2.51913414336740970611572265625">
        <ele>317.399993896484375</ele>
        <time>2020-08-09T05:50:06.000Z</time>
      </trkpt>
      <trkpt lat="42.24373728968203067779541015625" lon="2.5190711952745914459228515625">
        <ele>318</ele>
        <time>2020-08-09T05:50:09.000Z</time>
      </trkpt>
      <trkpt lat="42.2437702305614948272705078125" lon="2.519002966582775115966796875">
        <ele>318.399993896484375</ele>
        <time>2020-08-09T05:50:12.000Z</time>
      </trkpt>
      <trkpt lat="42.243819348514080047607421875" lon="2.51891772262752056121826171875">
        <ele>319</ele>
        <time>2020-08-09T05:50:16.000Z</time>
      </trkpt>
      <trkpt lat="42.24387802183628082275390625" lon="2.518816553056240081787109375">
        <ele>319.600006103515625</ele>
        <time>2020-08-09T05:50:21.000Z</time>
      </trkpt>
      <trkpt lat="42.24389009177684783935546875" lon="2.51879652030766010284423828125">
        <ele>319.600006103515625</ele>
        <time>2020-08-09T05:50:22.000Z</time>
      </trkpt>
      <trkpt lat="42.2439509443938732147216796875" lon="2.51870264299213886260986328125">
        <ele>320.600006103515625</ele>
        <time>2020-08-09T05:50:27.000Z</time>
      </trkpt>
      <trkpt lat="42.24396242760121822357177734375" lon="2.51868353225290775299072265625">
        <ele>320.600006103515625</ele>
        <time>2020-08-09T05:50:28.000Z</time>
      </trkpt>
      <trkpt lat="42.24400215782225131988525390625" lon="2.5186170637607574462890625">
        <ele>321.600006103515625</ele>
        <time>2020-08-09T05:50:31.000Z</time>
      </trkpt>
      <trkpt lat="42.24406636320054531097412109375" lon="2.51855998300015926361083984375">
        <ele>322</ele>
        <time>2020-08-09T05:50:35.000Z</time>
      </trkpt>
      <trkpt lat="42.2441433928906917572021484375" lon="2.51849929802119731903076171875">
        <ele>322.600006103515625</ele>
        <time>2020-08-09T05:50:40.000Z</time>
      </trkpt>
      <trkpt lat="42.244158647954463958740234375" lon="2.5184911675751209259033203125">
        <ele>322.79998779296875</ele>
        <time>2020-08-09T05:50:41.000Z</time>
      </trkpt>
      <trkpt lat="42.24426317028701305389404296875" lon="2.5184006430208683013916015625">
        <ele>323.399993896484375</ele>
        <time>2020-08-09T05:50:47.000Z</time>
      </trkpt>
      <trkpt lat="42.24432351998984813690185546875" lon="2.51834356226027011871337890625">
        <ele>323.600006103515625</ele>
        <time>2020-08-09T05:50:51.000Z</time>
      </trkpt>
      <trkpt lat="42.244337685406208038330078125" lon="2.51832176931202411651611328125">
        <ele>323.79998779296875</ele>
        <time>2020-08-09T05:50:52.000Z</time>
      </trkpt>
      <trkpt lat="42.2444203309714794158935546875" lon="2.518230490386486053466796875">
        <ele>324.20001220703125</ele>
        <time>2020-08-09T05:50:57.000Z</time>
      </trkpt>
      <trkpt lat="42.2445205785334110260009765625" lon="2.51816284842789173126220703125">
        <ele>324.20001220703125</ele>
        <time>2020-08-09T05:51:02.000Z</time>
      </trkpt>
      <trkpt lat="42.2446412779390811920166015625" lon="2.518084309995174407958984375">
        <ele>324.20001220703125</ele>
        <time>2020-08-09T05:51:08.000Z</time>
      </trkpt>
      <trkpt lat="42.244730629026889801025390625" lon="2.51805991865694522857666015625">
        <ele>324.399993896484375</ele>
        <time>2020-08-09T05:51:12.000Z</time>
      </trkpt>
      <trkpt lat="42.244799025356769561767578125" lon="2.51804315485060214996337890625">
        <ele>325.20001220703125</ele>
        <time>2020-08-09T05:51:15.000Z</time>
      </trkpt>
      <trkpt lat="42.24489969201385974884033203125" lon="2.517989762127399444580078125">
        <ele>325.600006103515625</ele>
        <time>2020-08-09T05:51:20.000Z</time>
      </trkpt>
      <trkpt lat="42.24493606947362422943115234375" lon="2.5179594196379184722900390625">
        <ele>326</ele>
        <time>2020-08-09T05:51:22.000Z</time>
      </trkpt>
      <trkpt lat="42.24506489932537078857421875" lon="2.5178276561200618743896484375">
        <ele>326.20001220703125</ele>
        <time>2020-08-09T05:51:28.000Z</time>
      </trkpt>
      <trkpt lat="42.245250307023525238037109375" lon="2.51773738302290439605712890625">
        <ele>326</ele>
        <time>2020-08-09T05:51:35.000Z</time>
      </trkpt>
      <trkpt lat="42.24545457400381565093994140625" lon="2.5176097266376018524169921875">
        <ele>326.20001220703125</ele>
        <time>2020-08-09T05:51:43.000Z</time>
      </trkpt>
      <trkpt lat="42.2455391474068164825439453125" lon="2.51751962117850780487060546875">
        <ele>326.600006103515625</ele>
        <time>2020-08-09T05:51:47.000Z</time>
      </trkpt>
      <trkpt lat="42.245622463524341583251953125" lon="2.51743781380355358123779296875">
        <ele>327.20001220703125</ele>
        <time>2020-08-09T05:51:51.000Z</time>
      </trkpt>
      <trkpt lat="42.24570586346089839935302734375" lon="2.51735508441925048828125">
        <ele>327.79998779296875</ele>
        <time>2020-08-09T05:51:55.000Z</time>
      </trkpt>
      <trkpt lat="42.24576629698276519775390625" lon="2.51729615963995456695556640625">
        <ele>328.20001220703125</ele>
        <time>2020-08-09T05:51:58.000Z</time>
      </trkpt>
      <trkpt lat="42.24588020704686641693115234375" lon="2.51717328093945980072021484375">
        <ele>328.600006103515625</ele>
        <time>2020-08-09T05:52:04.000Z</time>
      </trkpt>
      <trkpt lat="42.2459173388779163360595703125" lon="2.51712374389171600341796875">
        <ele>328.79998779296875</ele>
        <time>2020-08-09T05:52:06.000Z</time>
      </trkpt>
      <trkpt lat="42.246084474027156829833984375" lon="2.5169569440186023712158203125">
        <ele>328.399993896484375</ele>
        <time>2020-08-09T05:52:12.000Z</time>
      </trkpt>
      <trkpt lat="42.2461195103824138641357421875" lon="2.51692417077720165252685546875">
        <ele>328.399993896484375</ele>
        <time>2020-08-09T05:52:13.000Z</time>
      </trkpt>
      <trkpt lat="42.24624196998775005340576171875" lon="2.51673440448939800262451171875">
        <ele>327.600006103515625</ele>
        <time>2020-08-09T05:52:17.000Z</time>
      </trkpt>
      <trkpt lat="42.2462687082588672637939453125" lon="2.51667556352913379669189453125">
        <ele>327.600006103515625</ele>
        <time>2020-08-09T05:52:18.000Z</time>
      </trkpt>
      <trkpt lat="42.24642746150493621826171875" lon="2.51633944921195507049560546875">
        <ele>326.600006103515625</ele>
        <time>2020-08-09T05:52:24.000Z</time>
      </trkpt>
      <trkpt lat="42.2465850412845611572265625" lon="2.51601456664502620697021484375">
        <ele>327</ele>
        <time>2020-08-09T05:52:31.000Z</time>
      </trkpt>
      <trkpt lat="42.2467481531202793121337890625" lon="2.5157036818563938140869140625">
        <ele>326.79998779296875</ele>
        <time>2020-08-09T05:52:39.000Z</time>
      </trkpt>
      <trkpt lat="42.24693850614130496978759765625" lon="2.51551978290081024169921875">
        <ele>326.79998779296875</ele>
        <time>2020-08-09T05:52:46.000Z</time>
      </trkpt>
      <trkpt lat="42.24714361131191253662109375" lon="2.51530679874122142791748046875">
        <ele>327.600006103515625</ele>
        <time>2020-08-09T05:52:54.000Z</time>
      </trkpt>
      <trkpt lat="42.24732273258268833160400390625" lon="2.515090294182300567626953125">
        <ele>328.600006103515625</ele>
        <time>2020-08-09T05:53:02.000Z</time>
      </trkpt>
      <trkpt lat="42.24734502844512462615966796875" lon="2.51506514847278594970703125">
        <ele>328.79998779296875</ele>
        <time>2020-08-09T05:53:03.000Z</time>
      </trkpt>
      <trkpt lat="42.2475263290107250213623046875" lon="2.51486138440668582916259765625">
        <ele>329.79998779296875</ele>
        <time>2020-08-09T05:53:11.000Z</time>
      </trkpt>
      <trkpt lat="42.247551642358303070068359375" lon="2.51484361477196216583251953125">
        <ele>329.79998779296875</ele>
        <time>2020-08-09T05:53:12.000Z</time>
      </trkpt>
      <trkpt lat="42.2477385587990283966064453125" lon="2.51465611159801483154296875">
        <ele>330</ele>
        <time>2020-08-09T05:53:20.000Z</time>
      </trkpt>
      <trkpt lat="42.24775850772857666015625" lon="2.51446693204343318939208984375">
        <ele>330</ele>
        <time>2020-08-09T05:53:25.000Z</time>
      </trkpt>
      <trkpt lat="42.24773545749485492706298828125" lon="2.51428437419235706329345703125">
        <ele>330</ele>
        <time>2020-08-09T05:53:30.000Z</time>
      </trkpt>
      <trkpt lat="42.2476875968277454376220703125" lon="2.51409997232258319854736328125">
        <ele>329.79998779296875</ele>
        <time>2020-08-09T05:53:35.000Z</time>
      </trkpt>
      <trkpt lat="42.2476051189005374908447265625" lon="2.513830661773681640625">
        <ele>330.20001220703125</ele>
        <time>2020-08-09T05:53:42.000Z</time>
      </trkpt>
      <trkpt lat="42.247526831924915313720703125" lon="2.51364466734230518341064453125">
        <ele>330.79998779296875</ele>
        <time>2020-08-09T05:53:47.000Z</time>
      </trkpt>
      <trkpt lat="42.24748198874294757843017578125" lon="2.5135317631065845489501953125">
        <ele>331.20001220703125</ele>
        <time>2020-08-09T05:53:50.000Z</time>
      </trkpt>
      <trkpt lat="42.2474126704037189483642578125" lon="2.51332330517470836639404296875">
        <ele>331.600006103515625</ele>
        <time>2020-08-09T05:53:56.000Z</time>
      </trkpt>
      <trkpt lat="42.24740378558635711669921875" lon="2.51328625716269016265869140625">
        <ele>331.79998779296875</ele>
        <time>2020-08-09T05:53:57.000Z</time>
      </trkpt>
      <trkpt lat="42.24736195988953113555908203125" lon="2.51304821111261844635009765625">
        <ele>332.399993896484375</ele>
        <time>2020-08-09T05:54:03.000Z</time>
      </trkpt>
      <trkpt lat="42.24733429960906505584716796875" lon="2.51290085725486278533935546875">
        <ele>332.79998779296875</ele>
        <time>2020-08-09T05:54:07.000Z</time>
      </trkpt>
      <trkpt lat="42.24732734262943267822265625" lon="2.5128692574799060821533203125">
        <ele>333</ele>
        <time>2020-08-09T05:54:08.000Z</time>
      </trkpt>
      <trkpt lat="42.2473114170134067535400390625" lon="2.512613944709300994873046875">
        <ele>333.600006103515625</ele>
        <time>2020-08-09T05:54:15.000Z</time>
      </trkpt>
      <trkpt lat="42.24731124937534332275390625" lon="2.5125779025256633758544921875">
        <ele>333.79998779296875</ele>
        <time>2020-08-09T05:54:16.000Z</time>
      </trkpt>
      <trkpt lat="42.24732876755297183990478515625" lon="2.51239039935171604156494140625">
        <ele>334</ele>
        <time>2020-08-09T05:54:21.000Z</time>
      </trkpt>
      <trkpt lat="42.24733916111290454864501953125" lon="2.512186802923679351806640625">
        <ele>334.600006103515625</ele>
        <time>2020-08-09T05:54:26.000Z</time>
      </trkpt>
      <trkpt lat="42.24734075367450714111328125" lon="2.5121041573584079742431640625">
        <ele>334.79998779296875</ele>
        <time>2020-08-09T05:54:28.000Z</time>
      </trkpt>
      <trkpt lat="42.247351147234439849853515625" lon="2.511944733560085296630859375">
        <ele>335</ele>
        <time>2020-08-09T05:54:32.000Z</time>
      </trkpt>
      <trkpt lat="42.24739481694996356964111328125" lon="2.51159210689365863800048828125">
        <ele>335.600006103515625</ele>
        <time>2020-08-09T05:54:40.000Z</time>
      </trkpt>
      <trkpt lat="42.24745885469019412994384765625" lon="2.511399574577808380126953125">
        <ele>335.79998779296875</ele>
        <time>2020-08-09T05:54:45.000Z</time>
      </trkpt>
      <trkpt lat="42.24750948138535022735595703125" lon="2.51129957847297191619873046875">
        <ele>336</ele>
        <time>2020-08-09T05:54:48.000Z</time>
      </trkpt>
      <trkpt lat="42.2476094774901866912841796875" lon="2.5111229717731475830078125">
        <ele>336.79998779296875</ele>
        <time>2020-08-09T05:54:54.000Z</time>
      </trkpt>
      <trkpt lat="42.24762431345880031585693359375" lon="2.51109279692173004150390625">
        <ele>336.79998779296875</ele>
        <time>2020-08-09T05:54:55.000Z</time>
      </trkpt>
      <trkpt lat="42.2477073781192302703857421875" lon="2.5109494663774967193603515625">
        <ele>337.79998779296875</ele>
        <time>2020-08-09T05:55:00.000Z</time>
      </trkpt>
      <trkpt lat="42.2477228008210659027099609375" lon="2.510920800268650054931640625">
        <ele>338.20001220703125</ele>
        <time>2020-08-09T05:55:01.000Z</time>
      </trkpt>
      <trkpt lat="42.2477851621806621551513671875" lon="2.5108009390532970428466796875">
        <ele>339</ele>
        <time>2020-08-09T05:55:05.000Z</time>
      </trkpt>
      <trkpt lat="42.2478237189352512359619140625" lon="2.510699518024921417236328125">
        <ele>339</ele>
        <time>2020-08-09T05:55:08.000Z</time>
      </trkpt>
      <trkpt lat="42.247873507440090179443359375" lon="2.510476894676685333251953125">
        <ele>339.20001220703125</ele>
        <time>2020-08-09T05:55:14.000Z</time>
      </trkpt>
      <trkpt lat="42.2478931210935115814208984375" lon="2.51020238734781742095947265625">
        <ele>339.79998779296875</ele>
        <time>2020-08-09T05:55:21.000Z</time>
      </trkpt>
      <trkpt lat="42.247876860201358795166015625" lon="2.50997029244899749755859375">
        <ele>340</ele>
        <time>2020-08-09T05:55:27.000Z</time>
      </trkpt>
      <trkpt lat="42.2478723339736461639404296875" lon="2.50993081368505954742431640625">
        <ele>340</ele>
        <time>2020-08-09T05:55:28.000Z</time>
      </trkpt>
      <trkpt lat="42.24787107668817043304443359375" lon="2.5097501836717128753662109375">
        <ele>340.399993896484375</ele>
        <time>2020-08-09T05:55:33.000Z</time>
      </trkpt>
      <trkpt lat="42.24787660874426364898681640625" lon="2.50971321947872638702392578125">
        <ele>340.399993896484375</ele>
        <time>2020-08-09T05:55:34.000Z</time>
      </trkpt>
      <trkpt lat="42.24790091626346111297607421875" lon="2.50954926945269107818603515625">
        <ele>341</ele>
        <time>2020-08-09T05:55:38.000Z</time>
      </trkpt>
      <trkpt lat="42.24794416688382625579833984375" lon="2.50936268828809261322021484375">
        <ele>341.399993896484375</ele>
        <time>2020-08-09T05:55:43.000Z</time>
      </trkpt>
      <trkpt lat="42.2479769401252269744873046875" lon="2.50927115790545940399169921875">
        <ele>342</ele>
        <time>2020-08-09T05:55:46.000Z</time>
      </trkpt>
      <trkpt lat="42.248010970652103424072265625" lon="2.50918432138860225677490234375">
        <ele>342.399993896484375</ele>
        <time>2020-08-09T05:55:49.000Z</time>
      </trkpt>
      <trkpt lat="42.24805891513824462890625" lon="2.5090467743575572967529296875">
        <ele>343</ele>
        <time>2020-08-09T05:55:54.000Z</time>
      </trkpt>
      <trkpt lat="42.24806687794625759124755859375" lon="2.5090199522674083709716796875">
        <ele>343</ele>
        <time>2020-08-09T05:55:55.000Z</time>
      </trkpt>
      <trkpt lat="42.24812923930585384368896484375" lon="2.5088409148156642913818359375">
        <ele>344</ele>
        <time>2020-08-09T05:56:01.000Z</time>
      </trkpt>
      <trkpt lat="42.24820467643439769744873046875" lon="2.50862122513353824615478515625">
        <ele>344.600006103515625</ele>
        <time>2020-08-09T05:56:08.000Z</time>
      </trkpt>
      <trkpt lat="42.248255722224712371826171875" lon="2.50850337557494640350341796875">
        <ele>345</ele>
        <time>2020-08-09T05:56:12.000Z</time>
      </trkpt>
      <trkpt lat="42.24830173887312412261962890625" lon="2.50841938890516757965087890625">
        <ele>345.20001220703125</ele>
        <time>2020-08-09T05:56:15.000Z</time>
      </trkpt>
      <trkpt lat="42.24841003306210041046142578125" lon="2.5082142837345600128173828125">
        <ele>346</ele>
        <time>2020-08-09T05:56:22.000Z</time>
      </trkpt>
      <trkpt lat="42.24843769334256649017333984375" lon="2.50815385021269321441650390625">
        <ele>346.399993896484375</ele>
        <time>2020-08-09T05:56:24.000Z</time>
      </trkpt>
      <trkpt lat="42.2485108673572540283203125" lon="2.5079702027142047882080078125">
        <ele>347</ele>
        <time>2020-08-09T05:56:30.000Z</time>
      </trkpt>
      <trkpt lat="42.24859644658863544464111328125" lon="2.507811449468135833740234375">
        <ele>347.20001220703125</ele>
        <time>2020-08-09T05:56:35.000Z</time>
      </trkpt>
      <trkpt lat="42.248742878437042236328125" lon="2.50763081945478916168212890625">
        <ele>346.79998779296875</ele>
        <time>2020-08-09T05:56:41.000Z</time>
      </trkpt>
      <trkpt lat="42.24889500997960567474365234375" lon="2.50739344395697116851806640625">
        <ele>346.399993896484375</ele>
        <time>2020-08-09T05:56:47.000Z</time>
      </trkpt>
      <trkpt lat="42.24893775768578052520751953125" lon="2.5071722455322742462158203125">
        <ele>346.399993896484375</ele>
        <time>2020-08-09T05:56:52.000Z</time>
      </trkpt>
      <trkpt lat="42.24899441935122013092041015625" lon="2.5069207884371280670166015625">
        <ele>347.399993896484375</ele>
        <time>2020-08-09T05:56:59.000Z</time>
      </trkpt>
      <trkpt lat="42.24906600080430507659912109375" lon="2.50673680566251277923583984375">
        <ele>348</ele>
        <time>2020-08-09T05:57:05.000Z</time>
      </trkpt>
      <trkpt lat="42.24917865358293056488037109375" lon="2.50657570548355579376220703125">
        <ele>348.399993896484375</ele>
        <time>2020-08-09T05:57:11.000Z</time>
      </trkpt>
      <trkpt lat="42.2492017038166522979736328125" lon="2.50655357725918292999267578125">
        <ele>348.399993896484375</ele>
        <time>2020-08-09T05:57:12.000Z</time>
      </trkpt>
      <trkpt lat="42.249327600002288818359375" lon="2.50644528307020664215087890625">
        <ele>348.399993896484375</ele>
        <time>2020-08-09T05:57:17.000Z</time>
      </trkpt>
      <trkpt lat="42.24949498660862445831298828125" lon="2.5062569417059421539306640625">
        <ele>348.399993896484375</ele>
        <time>2020-08-09T05:57:24.000Z</time>
      </trkpt>
      <trkpt lat="42.249633371829986572265625" lon="2.50594203360378742218017578125">
        <ele>348.600006103515625</ele>
        <time>2020-08-09T05:57:33.000Z</time>
      </trkpt>
      <trkpt lat="42.24969749338924884796142578125" lon="2.5057144649326801300048828125">
        <ele>349.20001220703125</ele>
        <time>2020-08-09T05:57:39.000Z</time>
      </trkpt>
      <trkpt lat="42.24977561272680759429931640625" lon="2.505347169935703277587890625">
        <ele>349.20001220703125</ele>
        <time>2020-08-09T05:57:48.000Z</time>
      </trkpt>
      <trkpt lat="42.249796651303768157958984375" lon="2.50514541752636432647705078125">
        <ele>349.399993896484375</ele>
        <time>2020-08-09T05:57:53.000Z</time>
      </trkpt>
      <trkpt lat="42.2498028539121150970458984375" lon="2.50511012971401214599609375">
        <ele>349.399993896484375</ele>
        <time>2020-08-09T05:57:54.000Z</time>
      </trkpt>
      <trkpt lat="42.249813079833984375" lon="2.50501759350299835205078125">
        <ele>349.79998779296875</ele>
        <time>2020-08-09T05:57:57.000Z</time>
      </trkpt>
      <trkpt lat="42.24982984364032745361328125" lon="2.5049619376659393310546875">
        <ele>350.399993896484375</ele>
        <time>2020-08-09T05:57:59.000Z</time>
      </trkpt>
      <trkpt lat="42.249857671558856964111328125" lon="2.50481617636978626251220703125">
        <ele>351.600006103515625</ele>
        <time>2020-08-09T05:58:04.000Z</time>
      </trkpt>
      <trkpt lat="42.24987183697521686553955078125" lon="2.50466178171336650848388671875">
        <ele>352.399993896484375</ele>
        <time>2020-08-09T05:58:09.000Z</time>
      </trkpt>
      <trkpt lat="42.24986412562429904937744140625" lon="2.50460009090602397918701171875">
        <ele>352.600006103515625</ele>
        <time>2020-08-09T05:58:11.000Z</time>
      </trkpt>
      <trkpt lat="42.2498273290693759918212890625" lon="2.50445273704826831817626953125">
        <ele>353.20001220703125</ele>
        <time>2020-08-09T05:58:16.000Z</time>
      </trkpt>
      <trkpt lat="42.24982154555618762969970703125" lon="2.50442507676780223846435546875">
        <ele>353.399993896484375</ele>
        <time>2020-08-09T05:58:17.000Z</time>
      </trkpt>
      <trkpt lat="42.24980360828340053558349609375" lon="2.5042882002890110015869140625">
        <ele>354.399993896484375</ele>
        <time>2020-08-09T05:58:22.000Z</time>
      </trkpt>
      <trkpt lat="42.24980528466403484344482421875" lon="2.5042570196092128753662109375">
        <ele>354.600006103515625</ele>
        <time>2020-08-09T05:58:23.000Z</time>
      </trkpt>
      <trkpt lat="42.2498005069792270660400390625" lon="2.50411159358918666839599609375">
        <ele>355.399993896484375</ele>
        <time>2020-08-09T05:58:28.000Z</time>
      </trkpt>
      <trkpt lat="42.24979958496987819671630859375" lon="2.50407806597650051116943359375">
        <ele>355.600006103515625</ele>
        <time>2020-08-09T05:58:29.000Z</time>
      </trkpt>
      <trkpt lat="42.2498166002333164215087890625" lon="2.5037732161581516265869140625">
        <ele>356.20001220703125</ele>
        <time>2020-08-09T05:58:38.000Z</time>
      </trkpt>
      <trkpt lat="42.24982791580259799957275390625" lon="2.5036263652145862579345703125">
        <ele>356.600006103515625</ele>
        <time>2020-08-09T05:58:42.000Z</time>
      </trkpt>
      <trkpt lat="42.24983646534383296966552734375" lon="2.50355201773345470428466796875">
        <ele>356.600006103515625</ele>
        <time>2020-08-09T05:58:44.000Z</time>
      </trkpt>
      <trkpt lat="42.2498749382793903350830078125" lon="2.503337524831295013427734375">
        <ele>356.79998779296875</ele>
        <time>2020-08-09T05:58:50.000Z</time>
      </trkpt>
      <trkpt lat="42.249940820038318634033203125" lon="2.50317734666168689727783203125">
        <ele>356.399993896484375</ele>
        <time>2020-08-09T05:58:54.000Z</time>
      </trkpt>
      <trkpt lat="42.249966301023960113525390625" lon="2.5031294859945774078369140625">
        <ele>356.20001220703125</ele>
        <time>2020-08-09T05:58:55.000Z</time>
      </trkpt>
      <trkpt lat="42.25000795908272266387939453125" lon="2.50293058343231678009033203125">
        <ele>355.399993896484375</ele>
        <time>2020-08-09T05:58:58.000Z</time>
      </trkpt>
      <trkpt lat="42.249971330165863037109375" lon="2.50273427926003932952880859375">
        <ele>355</ele>
        <time>2020-08-09T05:59:02.000Z</time>
      </trkpt>
      <trkpt lat="42.2499590925872325897216796875" lon="2.50270226038992404937744140625">
        <ele>355.20001220703125</ele>
        <time>2020-08-09T05:59:03.000Z</time>
      </trkpt>
      <trkpt lat="42.2499324381351470947265625" lon="2.50261324457824230194091796875">
        <ele>356.399993896484375</ele>
        <time>2020-08-09T05:59:06.000Z</time>
      </trkpt>
      <trkpt lat="42.24991500377655029296875" lon="2.50252054072916507720947265625">
        <ele>357.20001220703125</ele>
        <time>2020-08-09T05:59:09.000Z</time>
      </trkpt>
      <trkpt lat="42.24991458468139171600341796875" lon="2.502418868243694305419921875">
        <ele>357.399993896484375</ele>
        <time>2020-08-09T05:59:11.000Z</time>
      </trkpt>
      <trkpt lat="42.24992237985134124755859375" lon="2.5022919662296772003173828125">
        <ele>357.600006103515625</ele>
        <time>2020-08-09T05:59:13.000Z</time>
      </trkpt>
      <trkpt lat="42.24992363713681697845458984375" lon="2.502079904079437255859375">
        <ele>356.79998779296875</ele>
        <time>2020-08-09T05:59:16.000Z</time>
      </trkpt>
      <trkpt lat="42.2499141655862331390380859375" lon="2.5019949115812778472900390625">
        <ele>356.399993896484375</ele>
        <time>2020-08-09T05:59:17.000Z</time>
      </trkpt>
      <trkpt lat="42.24989966489374637603759765625" lon="2.5019040517508983612060546875">
        <ele>356</ele>
        <time>2020-08-09T05:59:18.000Z</time>
      </trkpt>
      <trkpt lat="42.2498635388910770416259765625" lon="2.50163122080266475677490234375">
        <ele>355</ele>
        <time>2020-08-09T05:59:21.000Z</time>
      </trkpt>
      <trkpt lat="42.2498573362827301025390625" lon="2.5015593878924846649169921875">
        <ele>354.79998779296875</ele>
        <time>2020-08-09T05:59:22.000Z</time>
      </trkpt>
      <trkpt lat="42.2498450987040996551513671875" lon="2.50142251141369342803955078125">
        <ele>355.399993896484375</ele>
        <time>2020-08-09T05:59:25.000Z</time>
      </trkpt>
      <trkpt lat="42.249850295484066009521484375" lon="2.501361072063446044921875">
        <ele>356.399993896484375</ele>
        <time>2020-08-09T05:59:27.000Z</time>
      </trkpt>
      <trkpt lat="42.24984635598957538604736328125" lon="2.501298375427722930908203125">
        <ele>357.399993896484375</ele>
        <time>2020-08-09T05:59:29.000Z</time>
      </trkpt>
      <trkpt lat="42.24984702654182910919189453125" lon="2.50127063132822513580322265625">
        <ele>357.600006103515625</ele>
        <time>2020-08-09T05:59:30.000Z</time>
      </trkpt>
      <trkpt lat="42.24985792301595211029052734375" lon="2.50119184143841266632080078125">
        <ele>358.399993896484375</ele>
        <time>2020-08-09T05:59:33.000Z</time>
      </trkpt>
      <trkpt lat="42.24985532462596893310546875" lon="2.5011102855205535888671875">
        <ele>358.79998779296875</ele>
        <time>2020-08-09T05:59:36.000Z</time>
      </trkpt>
      <trkpt lat="42.24987753666937351226806640625" lon="2.50090233050286769866943359375">
        <ele>359.20001220703125</ele>
        <time>2020-08-09T05:59:43.000Z</time>
      </trkpt>
      <trkpt lat="42.249945513904094696044921875" lon="2.50070384703576564788818359375">
        <ele>359.399993896484375</ele>
        <time>2020-08-09T05:59:50.000Z</time>
      </trkpt>
      <trkpt lat="42.24995783530175685882568359375" lon="2.500643916428089141845703125">
        <ele>359.399993896484375</ele>
        <time>2020-08-09T05:59:52.000Z</time>
      </trkpt>
      <trkpt lat="42.2499668039381504058837890625" lon="2.50045247375965118408203125">
        <ele>359.600006103515625</ele>
        <time>2020-08-09T05:59:58.000Z</time>
      </trkpt>
      <trkpt lat="42.24992564879357814788818359375" lon="2.50023077242076396942138671875">
        <ele>359.79998779296875</ele>
        <time>2020-08-09T06:00:04.000Z</time>
      </trkpt>
      <trkpt lat="42.2498672269284725189208984375" lon="2.49994209967553615570068359375">
        <ele>359.79998779296875</ele>
        <time>2020-08-09T06:00:12.000Z</time>
      </trkpt>
      <trkpt lat="42.24983160383999347686767578125" lon="2.49976255930960178375244140625">
        <ele>360.20001220703125</ele>
        <time>2020-08-09T06:00:17.000Z</time>
      </trkpt>
      <trkpt lat="42.249815426766872406005859375" lon="2.49969877302646636962890625">
        <ele>360.399993896484375</ele>
        <time>2020-08-09T06:00:19.000Z</time>
      </trkpt>
      <trkpt lat="42.2497810609638690948486328125" lon="2.49951303005218505859375">
        <ele>361.399993896484375</ele>
        <time>2020-08-09T06:00:25.000Z</time>
      </trkpt>
      <trkpt lat="42.24975717253983020782470703125" lon="2.49934078194200992584228515625">
        <ele>362.399993896484375</ele>
        <time>2020-08-09T06:00:31.000Z</time>
      </trkpt>
      <trkpt lat="42.24975281395018100738525390625" lon="2.4992815218865871429443359375">
        <ele>363</ele>
        <time>2020-08-09T06:00:33.000Z</time>
      </trkpt>
      <trkpt lat="42.24975180812180042266845703125" lon="2.49921941198408603668212890625">
        <ele>363.399993896484375</ele>
        <time>2020-08-09T06:00:35.000Z</time>
      </trkpt>
      <trkpt lat="42.24974392913281917572021484375" lon="2.49907121993601322174072265625">
        <ele>364.399993896484375</ele>
        <time>2020-08-09T06:00:40.000Z</time>
      </trkpt>
      <trkpt lat="42.24975314922630786895751953125" lon="2.49901539646089076995849609375">
        <ele>365</ele>
        <time>2020-08-09T06:00:42.000Z</time>
      </trkpt>
      <trkpt lat="42.24976857192814350128173828125" lon="2.4989298172295093536376953125">
        <ele>365.399993896484375</ele>
        <time>2020-08-09T06:00:45.000Z</time>
      </trkpt>
      <trkpt lat="42.24978600628674030303955078125" lon="2.4987729080021381378173828125">
        <ele>366.600006103515625</ele>
        <time>2020-08-09T06:00:50.000Z</time>
      </trkpt>
      <trkpt lat="42.24981643259525299072265625" lon="2.49845959246158599853515625">
        <ele>367.399993896484375</ele>
        <time>2020-08-09T06:01:00.000Z</time>
      </trkpt>
      <trkpt lat="42.249820120632648468017578125" lon="2.4984285794198513031005859375">
        <ele>367.600006103515625</ele>
        <time>2020-08-09T06:01:01.000Z</time>
      </trkpt>
      <trkpt lat="42.249837219715118408203125" lon="2.49817552976310253143310546875">
        <ele>368</ele>
        <time>2020-08-09T06:01:09.000Z</time>
      </trkpt>
      <trkpt lat="42.24983965046703815460205078125" lon="2.498115263879299163818359375">
        <ele>368.399993896484375</ele>
        <time>2020-08-09T06:01:11.000Z</time>
      </trkpt>
      <trkpt lat="42.24983654916286468505859375" lon="2.49795089475810527801513671875">
        <ele>368.79998779296875</ele>
        <time>2020-08-09T06:01:16.000Z</time>
      </trkpt>
      <trkpt lat="42.24984618835151195526123046875" lon="2.4977521598339080810546875">
        <ele>369.600006103515625</ele>
        <time>2020-08-09T06:01:22.000Z</time>
      </trkpt>
      <trkpt lat="42.2498551569879055023193359375" lon="2.4976906366646289825439453125">
        <ele>370</ele>
        <time>2020-08-09T06:01:24.000Z</time>
      </trkpt>
      <trkpt lat="42.24988206289708614349365234375" lon="2.4974616430699825286865234375">
        <ele>370.600006103515625</ele>
        <time>2020-08-09T06:01:31.000Z</time>
      </trkpt>
      <trkpt lat="42.2498870082199573516845703125" lon="2.4974284507334232330322265625">
        <ele>370.600006103515625</ele>
        <time>2020-08-09T06:01:32.000Z</time>
      </trkpt>
      <trkpt lat="42.2499074600636959075927734375" lon="2.497251927852630615234375">
        <ele>371</ele>
        <time>2020-08-09T06:01:37.000Z</time>
      </trkpt>
      <trkpt lat="42.24994274787604808807373046875" lon="2.49685621820390224456787109375">
        <ele>371.79998779296875</ele>
        <time>2020-08-09T06:01:48.000Z</time>
      </trkpt>
      <trkpt lat="42.249944843351840972900390625" lon="2.4968212656676769256591796875">
        <ele>371.79998779296875</ele>
        <time>2020-08-09T06:01:49.000Z</time>
      </trkpt>
      <trkpt lat="42.24997334182262420654296875" lon="2.496621273458003997802734375">
        <ele>372.600006103515625</ele>
        <time>2020-08-09T06:01:55.000Z</time>
      </trkpt>
      <trkpt lat="42.24998080171644687652587890625" lon="2.49658816494047641754150390625">
        <ele>372.79998779296875</ele>
        <time>2020-08-09T06:01:56.000Z</time>
      </trkpt>
      <trkpt lat="42.25000259466469287872314453125" lon="2.49642455019056797027587890625">
        <ele>373.399993896484375</ele>
        <time>2020-08-09T06:02:01.000Z</time>
      </trkpt>
      <trkpt lat="42.2500046901404857635498046875" lon="2.49639295041561126708984375">
        <ele>373.79998779296875</ele>
        <time>2020-08-09T06:02:02.000Z</time>
      </trkpt>
      <trkpt lat="42.25001198239624500274658203125" lon="2.49620762653648853302001953125">
        <ele>374.600006103515625</ele>
        <time>2020-08-09T06:02:08.000Z</time>
      </trkpt>
      <trkpt lat="42.25001231767237186431884765625" lon="2.49617879278957843780517578125">
        <ele>375</ele>
        <time>2020-08-09T06:02:09.000Z</time>
      </trkpt>
      <trkpt lat="42.250005863606929779052734375" lon="2.4959819018840789794921875">
        <ele>375.79998779296875</ele>
        <time>2020-08-09T06:02:16.000Z</time>
      </trkpt>
      <trkpt lat="42.25000158883631229400634765625" lon="2.495949380099773406982421875">
        <ele>376</ele>
        <time>2020-08-09T06:02:17.000Z</time>
      </trkpt>
      <trkpt lat="42.24997946061193943023681640625" lon="2.49578249640762805938720703125">
        <ele>376</ele>
        <time>2020-08-09T06:02:22.000Z</time>
      </trkpt>
      <trkpt lat="42.24994249641895294189453125" lon="2.4956082366406917572021484375">
        <ele>376.20001220703125</ele>
        <time>2020-08-09T06:02:27.000Z</time>
      </trkpt>
      <trkpt lat="42.24989430047571659088134765625" lon="2.49539441429078578948974609375">
        <ele>376.600006103515625</ele>
        <time>2020-08-09T06:02:33.000Z</time>
      </trkpt>
      <trkpt lat="42.24987544119358062744140625" lon="2.4952303804457187652587890625">
        <ele>377</ele>
        <time>2020-08-09T06:02:38.000Z</time>
      </trkpt>
      <trkpt lat="42.24986664019525051116943359375" lon="2.495162151753902435302734375">
        <ele>377.20001220703125</ele>
        <time>2020-08-09T06:02:40.000Z</time>
      </trkpt>
      <trkpt lat="42.2498450987040996551513671875" lon="2.4949588067829608917236328125">
        <ele>377.79998779296875</ele>
        <time>2020-08-09T06:02:46.000Z</time>
      </trkpt>
      <trkpt lat="42.24983193911612033843994140625" lon="2.4947405420243740081787109375">
        <ele>378</ele>
        <time>2020-08-09T06:02:52.000Z</time>
      </trkpt>
      <trkpt lat="42.249773852527141571044921875" lon="2.49460014514625072479248046875">
        <ele>378</ele>
        <time>2020-08-09T06:02:56.000Z</time>
      </trkpt>
      <trkpt lat="42.24968894384801387786865234375" lon="2.49446980655193328857421875">
        <ele>377.79998779296875</ele>
        <time>2020-08-09T06:03:00.000Z</time>
      </trkpt>
      <trkpt lat="42.24963680841028690338134765625" lon="2.49438665807247161865234375">
        <ele>378.20001220703125</ele>
        <time>2020-08-09T06:03:03.000Z</time>
      </trkpt>
      <trkpt lat="42.2495718486607074737548828125" lon="2.49424324370920658111572265625">
        <ele>378.79998779296875</ele>
        <time>2020-08-09T06:03:08.000Z</time>
      </trkpt>
      <trkpt lat="42.2495386563241481781005859375" lon="2.49415464699268341064453125">
        <ele>379.399993896484375</ele>
        <time>2020-08-09T06:03:11.000Z</time>
      </trkpt>
      <trkpt lat="42.249501608312129974365234375" lon="2.49403470195829868316650390625">
        <ele>380</ele>
        <time>2020-08-09T06:03:15.000Z</time>
      </trkpt>
      <trkpt lat="42.2494732774794101715087890625" lon="2.49388751573860645294189453125">
        <ele>381</ele>
        <time>2020-08-09T06:03:20.000Z</time>
      </trkpt>
      <trkpt lat="42.24947034381330013275146484375" lon="2.493858598172664642333984375">
        <ele>381.20001220703125</ele>
        <time>2020-08-09T06:03:21.000Z</time>
      </trkpt>
      <trkpt lat="42.24947738461196422576904296875" lon="2.493647038936614990234375">
        <ele>382</ele>
        <time>2020-08-09T06:03:28.000Z</time>
      </trkpt>
      <trkpt lat="42.24947822280228137969970703125" lon="2.493588030338287353515625">
        <ele>382.20001220703125</ele>
        <time>2020-08-09T06:03:30.000Z</time>
      </trkpt>
      <trkpt lat="42.24946497939527034759521484375" lon="2.49341905117034912109375">
        <ele>382.79998779296875</ele>
        <time>2020-08-09T06:03:36.000Z</time>
      </trkpt>
      <trkpt lat="42.24942457862198352813720703125" lon="2.4932207353413105010986328125">
        <ele>383</ele>
        <time>2020-08-09T06:03:43.000Z</time>
      </trkpt>
      <trkpt lat="42.24941921420395374298095703125" lon="2.4931912310421466827392578125">
        <ele>383</ele>
        <time>2020-08-09T06:03:44.000Z</time>
      </trkpt>
      <trkpt lat="42.24938669241964817047119140625" lon="2.492941282689571380615234375">
        <ele>383.399993896484375</ele>
        <time>2020-08-09T06:03:51.000Z</time>
      </trkpt>
      <trkpt lat="42.24932852201163768768310546875" lon="2.49262754805386066436767578125">
        <ele>382.79998779296875</ele>
        <time>2020-08-09T06:03:59.000Z</time>
      </trkpt>
      <trkpt lat="42.24924243986606597900390625" lon="2.4922776035964488983154296875">
        <ele>383.20001220703125</ele>
        <time>2020-08-09T06:04:09.000Z</time>
      </trkpt>
      <trkpt lat="42.249207906424999237060546875" lon="2.4920846521854400634765625">
        <ele>383.79998779296875</ele>
        <time>2020-08-09T06:04:15.000Z</time>
      </trkpt>
      <trkpt lat="42.249186448752880096435546875" lon="2.4919902719557285308837890625">
        <ele>384</ele>
        <time>2020-08-09T06:04:18.000Z</time>
      </trkpt>
      <trkpt lat="42.24916675128042697906494140625" lon="2.49189295805990695953369140625">
        <ele>384.20001220703125</ele>
        <time>2020-08-09T06:04:21.000Z</time>
      </trkpt>
      <trkpt lat="42.24914051592350006103515625" lon="2.491651475429534912109375">
        <ele>384.600006103515625</ele>
        <time>2020-08-09T06:04:28.000Z</time>
      </trkpt>
      <trkpt lat="42.24914613179862499237060546875" lon="2.491556592285633087158203125">
        <ele>385</ele>
        <time>2020-08-09T06:04:31.000Z</time>
      </trkpt>
      <trkpt lat="42.24916574545204639434814453125" lon="2.49137294478714466094970703125">
        <ele>385.600006103515625</ele>
        <time>2020-08-09T06:04:37.000Z</time>
      </trkpt>
      <trkpt lat="42.2491852752864360809326171875" lon="2.49128879047930240631103515625">
        <ele>386</ele>
        <time>2020-08-09T06:04:40.000Z</time>
      </trkpt>
      <trkpt lat="42.24921570159494876861572265625" lon="2.49118301086127758026123046875">
        <ele>386.399993896484375</ele>
        <time>2020-08-09T06:04:44.000Z</time>
      </trkpt>
      <trkpt lat="42.24924570880830287933349609375" lon="2.491034232079982757568359375">
        <ele>387</ele>
        <time>2020-08-09T06:04:49.000Z</time>
      </trkpt>
      <trkpt lat="42.24925694055855274200439453125" lon="2.491012774407863616943359375">
        <ele>387</ele>
        <time>2020-08-09T06:04:50.000Z</time>
      </trkpt>
      <trkpt lat="42.24929449148476123809814453125" lon="2.49088210053741931915283203125">
        <ele>387.399993896484375</ele>
        <time>2020-08-09T06:04:55.000Z</time>
      </trkpt>
      <trkpt lat="42.249341346323490142822265625" lon="2.4907507561147212982177734375">
        <ele>387.79998779296875</ele>
        <time>2020-08-09T06:05:00.000Z</time>
      </trkpt>
      <trkpt lat="42.2493509016931056976318359375" lon="2.49072812497615814208984375">
        <ele>387.79998779296875</ele>
        <time>2020-08-09T06:05:01.000Z</time>
      </trkpt>
      <trkpt lat="42.249440252780914306640625" lon="2.49060876667499542236328125">
        <ele>388.399993896484375</ele>
        <time>2020-08-09T06:05:07.000Z</time>
      </trkpt>
      <trkpt lat="42.249598838388919830322265625" lon="2.4903789348900318145751953125">
        <ele>388.399993896484375</ele>
        <time>2020-08-09T06:05:15.000Z</time>
      </trkpt>
      <trkpt lat="42.24964384920895099639892578125" lon="2.490183301270008087158203125">
        <ele>388.20001220703125</ele>
        <time>2020-08-09T06:05:19.000Z</time>
      </trkpt>
      <trkpt lat="42.24960780702531337738037109375" lon="2.4899953790009021759033203125">
        <ele>388.399993896484375</ele>
        <time>2020-08-09T06:05:24.000Z</time>
      </trkpt>
      <trkpt lat="42.249577045440673828125" lon="2.48988113366067409515380859375">
        <ele>389</ele>
        <time>2020-08-09T06:05:28.000Z</time>
      </trkpt>
      <trkpt lat="42.2495730221271514892578125" lon="2.48985297046601772308349609375">
        <ele>389.399993896484375</ele>
        <time>2020-08-09T06:05:29.000Z</time>
      </trkpt>
      <trkpt lat="42.24956254474818706512451171875" lon="2.4897657148540019989013671875">
        <ele>390</ele>
        <time>2020-08-09T06:05:32.000Z</time>
      </trkpt>
      <trkpt lat="42.24956355057656764984130859375" lon="2.48969203792512416839599609375">
        <ele>390.600006103515625</ele>
        <time>2020-08-09T06:05:35.000Z</time>
      </trkpt>
      <trkpt lat="42.24957176484167575836181640625" lon="2.48966538347303867340087890625">
        <ele>390.79998779296875</ele>
        <time>2020-08-09T06:05:36.000Z</time>
      </trkpt>
      <trkpt lat="42.24959305487573146820068359375" lon="2.489618025720119476318359375">
        <ele>391.20001220703125</ele>
        <time>2020-08-09T06:05:38.000Z</time>
      </trkpt>
      <trkpt lat="42.249633371829986572265625" lon="2.48955465853214263916015625">
        <ele>392</ele>
        <time>2020-08-09T06:05:41.000Z</time>
      </trkpt>
      <trkpt lat="42.24966865964233875274658203125" lon="2.48953026719391345977783203125">
        <ele>392.20001220703125</ele>
        <time>2020-08-09T06:05:43.000Z</time>
      </trkpt>
      <trkpt lat="42.249734289944171905517578125" lon="2.4894844181835651397705078125">
        <ele>392.600006103515625</ele>
        <time>2020-08-09T06:05:47.000Z</time>
      </trkpt>
      <trkpt lat="42.24980511702597141265869140625" lon="2.48943454585969448089599609375">
        <ele>393.600006103515625</ele>
        <time>2020-08-09T06:05:51.000Z</time>
      </trkpt>
      <trkpt lat="42.24985473789274692535400390625" lon="2.4893925525248050689697265625">
        <ele>394</ele>
        <time>2020-08-09T06:05:54.000Z</time>
      </trkpt>
      <trkpt lat="42.24995724856853485107421875" lon="2.48923975042998790740966796875">
        <ele>394.399993896484375</ele>
        <time>2020-08-09T06:06:01.000Z</time>
      </trkpt>
      <trkpt lat="42.249970324337482452392578125" lon="2.4892146885395050048828125">
        <ele>394.600006103515625</ele>
        <time>2020-08-09T06:06:02.000Z</time>
      </trkpt>
      <trkpt lat="42.2500861622393131256103515625" lon="2.48901243321597576141357421875">
        <ele>394.79998779296875</ele>
        <time>2020-08-09T06:06:10.000Z</time>
      </trkpt>
      <trkpt lat="42.25015916861593723297119140625" lon="2.48886206187307834625244140625">
        <ele>395.20001220703125</ele>
        <time>2020-08-09T06:06:16.000Z</time>
      </trkpt>
      <trkpt lat="42.25018029101192951202392578125" lon="2.48881277628242969512939453125">
        <ele>395.399993896484375</ele>
        <time>2020-08-09T06:06:18.000Z</time>
      </trkpt>
      <trkpt lat="42.25022354163229465484619140625" lon="2.4887159653007984161376953125">
        <ele>395.79998779296875</ele>
        <time>2020-08-09T06:06:22.000Z</time>
      </trkpt>
      <trkpt lat="42.2503213584423065185546875" lon="2.48851572163403034210205078125">
        <ele>396.600006103515625</ele>
        <time>2020-08-09T06:06:30.000Z</time>
      </trkpt>
      <trkpt lat="42.2503342665731906890869140625" lon="2.48848982155323028564453125">
        <ele>396.600006103515625</ele>
        <time>2020-08-09T06:06:31.000Z</time>
      </trkpt>
      <trkpt lat="42.2504328377544879913330078125" lon="2.4882858060300350189208984375">
        <ele>397.399993896484375</ele>
        <time>2020-08-09T06:06:39.000Z</time>
      </trkpt>
      <trkpt lat="42.2504472546279430389404296875" lon="2.4882633425295352935791015625">
        <ele>397.600006103515625</ele>
        <time>2020-08-09T06:06:40.000Z</time>
      </trkpt>
      <trkpt lat="42.25052587687969207763671875" lon="2.48811288736760616302490234375">
        <ele>398.600006103515625</ele>
        <time>2020-08-09T06:06:46.000Z</time>
      </trkpt>
      <trkpt lat="42.2505666129291057586669921875" lon="2.4880175851285457611083984375">
        <ele>399.20001220703125</ele>
        <time>2020-08-09T06:06:50.000Z</time>
      </trkpt>
      <trkpt lat="42.2506031580269336700439453125" lon="2.48792588710784912109375">
        <ele>399.600006103515625</ele>
        <time>2020-08-09T06:06:54.000Z</time>
      </trkpt>
      <trkpt lat="42.25062243640422821044921875" lon="2.487855814397335052490234375">
        <ele>400.20001220703125</ele>
        <time>2020-08-09T06:06:57.000Z</time>
      </trkpt>
      <trkpt lat="42.25065973587334156036376953125" lon="2.487681470811367034912109375">
        <ele>400.79998779296875</ele>
        <time>2020-08-09T06:07:04.000Z</time>
      </trkpt>
      <trkpt lat="42.25069410167634487152099609375" lon="2.48755984939634799957275390625">
        <ele>402</ele>
        <time>2020-08-09T06:07:09.000Z</time>
      </trkpt>
      <trkpt lat="42.25071170367300510406494140625" lon="2.4874895252287387847900390625">
        <ele>402.20001220703125</ele>
        <time>2020-08-09T06:07:12.000Z</time>
      </trkpt>
      <trkpt lat="42.25074992515146732330322265625" lon="2.48734292574226856231689453125">
        <ele>403</ele>
        <time>2020-08-09T06:07:18.000Z</time>
      </trkpt>
      <trkpt lat="42.2507644258439540863037109375" lon="2.4872947297990322113037109375">
        <ele>403.399993896484375</ele>
        <time>2020-08-09T06:07:20.000Z</time>
      </trkpt>
      <trkpt lat="42.2508422099053859710693359375" lon="2.4870828352868556976318359375">
        <ele>404.20001220703125</ele>
        <time>2020-08-09T06:07:29.000Z</time>
      </trkpt>
      <trkpt lat="42.2508546151220798492431640625" lon="2.4870617128908634185791015625">
        <ele>404.20001220703125</ele>
        <time>2020-08-09T06:07:30.000Z</time>
      </trkpt>
      <trkpt lat="42.250941954553127288818359375" lon="2.48687270097434520721435546875">
        <ele>405</ele>
        <time>2020-08-09T06:07:38.000Z</time>
      </trkpt>
      <trkpt lat="42.25095025263726711273193359375" lon="2.48684856109321117401123046875">
        <ele>405.20001220703125</ele>
        <time>2020-08-09T06:07:39.000Z</time>
      </trkpt>
      <trkpt lat="42.25099383853375911712646484375" lon="2.48670615255832672119140625">
        <ele>406.20001220703125</ele>
        <time>2020-08-09T06:07:45.000Z</time>
      </trkpt>
      <trkpt lat="42.2510152123868465423583984375" lon="2.48663281090557575225830078125">
        <ele>406.600006103515625</ele>
        <time>2020-08-09T06:07:48.000Z</time>
      </trkpt>
      <trkpt lat="42.25105117075145244598388671875" lon="2.4865158833563327789306640625">
        <ele>407.399993896484375</ele>
        <time>2020-08-09T06:07:53.000Z</time>
      </trkpt>
      <trkpt lat="42.2510655038058757781982421875" lon="2.48644388280808925628662109375">
        <ele>408</ele>
        <time>2020-08-09T06:07:56.000Z</time>
      </trkpt>
      <trkpt lat="42.25111286155879497528076171875" lon="2.48633508570492267608642578125">
        <ele>408.600006103515625</ele>
        <time>2020-08-09T06:08:01.000Z</time>
      </trkpt>
      <trkpt lat="42.25117455236613750457763671875" lon="2.4862382747232913970947265625">
        <ele>409.600006103515625</ele>
        <time>2020-08-09T06:08:06.000Z</time>
      </trkpt>
      <trkpt lat="42.25122249685227870941162109375" lon="2.486143223941326141357421875">
        <ele>410.600006103515625</ele>
        <time>2020-08-09T06:08:11.000Z</time>
      </trkpt>
      <trkpt lat="42.25124470889568328857421875" lon="2.48605127446353435516357421875">
        <ele>411</ele>
        <time>2020-08-09T06:08:15.000Z</time>
      </trkpt>
      <trkpt lat="42.251244373619556427001953125" lon="2.48586117289960384368896484375">
        <ele>410.399993896484375</ele>
        <time>2020-08-09T06:08:19.000Z</time>
      </trkpt>
      <trkpt lat="42.25125183351337909698486328125" lon="2.48568012379109859466552734375">
        <ele>409.20001220703125</ele>
        <time>2020-08-09T06:08:23.000Z</time>
      </trkpt>
      <trkpt lat="42.2512522526085376739501953125" lon="2.48565137386322021484375">
        <ele>408.79998779296875</ele>
        <time>2020-08-09T06:08:27.000Z</time>
      </trkpt>
      <trkpt lat="42.25126960314810276031494140625" lon="2.48558021150529384613037109375">
        <ele>408.600006103515625</ele>
        <time>2020-08-09T06:08:33.000Z</time>
      </trkpt>
      <trkpt lat="42.251333892345428466796875" lon="2.4853953905403614044189453125">
        <ele>408.399993896484375</ele>
        <time>2020-08-09T06:08:38.000Z</time>
      </trkpt>
      <trkpt lat="42.2513595409691333770751953125" lon="2.48530562035739421844482421875">
        <ele>408.20001220703125</ele>
        <time>2020-08-09T06:08:40.000Z</time>
      </trkpt>
      <trkpt lat="42.2513781487941741943359375" lon="2.48520319350063800811767578125">
        <ele>407.399993896484375</ele>
        <time>2020-08-09T06:08:43.000Z</time>
      </trkpt>
      <trkpt lat="42.25138820707798004150390625" lon="2.48516228981316089630126953125">
        <ele>407.20001220703125</ele>
        <time>2020-08-09T06:08:45.000Z</time>
      </trkpt>
      <trkpt lat="42.2513887099921703338623046875" lon="2.48515608720481395721435546875">
        <ele>407</ele>
        <time>2020-08-09T06:08:46.000Z</time>
      </trkpt>
      <trkpt lat="42.2514183819293975830078125" lon="2.48516262508928775787353515625">
        <ele>406.79998779296875</ele>
        <time>2020-08-09T06:17:35.000Z</time>
      </trkpt>
      <trkpt lat="42.251422740519046783447265625" lon="2.48515759594738483428955078125">
        <ele>406.79998779296875</ele>
        <time>2020-08-09T06:17:48.000Z</time>
      </trkpt>
      <trkpt lat="42.2514913044869899749755859375" lon="2.48513638973236083984375">
        <ele>406.600006103515625</ele>
        <time>2020-08-09T06:17:53.000Z</time>
      </trkpt>
      <trkpt lat="42.251538746058940887451171875" lon="2.48506573028862476348876953125">
        <ele>406.79998779296875</ele>
        <time>2020-08-09T06:17:57.000Z</time>
      </trkpt>
      <trkpt lat="42.25150647573173046112060546875" lon="2.4849303625524044036865234375">
        <ele>406.79998779296875</ele>
        <time>2020-08-09T06:18:01.000Z</time>
      </trkpt>
      <trkpt lat="42.25149021483957767486572265625" lon="2.48490027152001857757568359375">
        <ele>406.600006103515625</ele>
        <time>2020-08-09T06:18:02.000Z</time>
      </trkpt>
      <trkpt lat="42.25138007663190364837646484375" lon="2.4847238324582576751708984375">
        <ele>406.600006103515625</ele>
        <time>2020-08-09T06:18:09.000Z</time>
      </trkpt>
      <trkpt lat="42.2513045556843280792236328125" lon="2.48456700704991817474365234375">
        <ele>407</ele>
        <time>2020-08-09T06:18:15.000Z</time>
      </trkpt>
      <trkpt lat="42.251291982829570770263671875" lon="2.4845411069691181182861328125">
        <ele>407</ele>
        <time>2020-08-09T06:18:16.000Z</time>
      </trkpt>
      <trkpt lat="42.251237332820892333984375" lon="2.48437740840017795562744140625">
        <ele>407.600006103515625</ele>
        <time>2020-08-09T06:18:22.000Z</time>
      </trkpt>
      <trkpt lat="42.2512217424809932708740234375" lon="2.48432292602956295013427734375">
        <ele>408</ele>
        <time>2020-08-09T06:18:24.000Z</time>
      </trkpt>
      <trkpt lat="42.25118779577314853668212890625" lon="2.484195940196514129638671875">
        <ele>409</ele>
        <time>2020-08-09T06:18:29.000Z</time>
      </trkpt>
      <trkpt lat="42.2511823475360870361328125" lon="2.48417146503925323486328125">
        <ele>409.20001220703125</ele>
        <time>2020-08-09T06:18:30.000Z</time>
      </trkpt>
      <trkpt lat="42.25115912966430187225341796875" lon="2.48404498212039470672607421875">
        <ele>410</ele>
        <time>2020-08-09T06:18:36.000Z</time>
      </trkpt>
      <trkpt lat="42.25112895481288433074951171875" lon="2.483941800892353057861328125">
        <ele>410.600006103515625</ele>
        <time>2020-08-09T06:18:41.000Z</time>
      </trkpt>
      <trkpt lat="42.251078076660633087158203125" lon="2.4838373623788356781005859375">
        <ele>411</ele>
        <time>2020-08-09T06:18:47.000Z</time>
      </trkpt>
      <trkpt lat="42.25105955265462398529052734375" lon="2.48380240984261035919189453125">
        <ele>411.399993896484375</ele>
        <time>2020-08-09T06:18:49.000Z</time>
      </trkpt>
      <trkpt lat="42.2510202415287494659423828125" lon="2.48370987363159656524658203125">
        <ele>412.20001220703125</ele>
        <time>2020-08-09T06:18:54.000Z</time>
      </trkpt>
      <trkpt lat="42.25099870003759860992431640625" lon="2.4836496077477931976318359375">
        <ele>412.399993896484375</ele>
        <time>2020-08-09T06:18:57.000Z</time>
      </trkpt>
      <trkpt lat="42.2509786672890186309814453125" lon="2.48354743234813213348388671875">
        <ele>413.20001220703125</ele>
        <time>2020-08-09T06:19:02.000Z</time>
      </trkpt>
      <trkpt lat="42.2509753145277500152587890625" lon="2.48350485228002071380615234375">
        <ele>413.399993896484375</ele>
        <time>2020-08-09T06:19:04.000Z</time>
      </trkpt>
      <trkpt lat="42.25095846690237522125244140625" lon="2.4834018386900424957275390625">
        <ele>414.20001220703125</ele>
        <time>2020-08-09T06:19:09.000Z</time>
      </trkpt>
      <trkpt lat="42.25095645524561405181884765625" lon="2.483360767364501953125">
        <ele>414.600006103515625</ele>
        <time>2020-08-09T06:19:11.000Z</time>
      </trkpt>
      <trkpt lat="42.2509491629898548126220703125" lon="2.48326395638287067413330078125">
        <ele>415.20001220703125</ele>
        <time>2020-08-09T06:19:16.000Z</time>
      </trkpt>
      <trkpt lat="42.2509396076202392578125" lon="2.48318684287369251251220703125">
        <ele>415.79998779296875</ele>
        <time>2020-08-09T06:19:20.000Z</time>
      </trkpt>
      <trkpt lat="42.25093650631606578826904296875" lon="2.4831285886466503143310546875">
        <ele>416.20001220703125</ele>
        <time>2020-08-09T06:19:23.000Z</time>
      </trkpt>
      <trkpt lat="42.250929214060306549072265625" lon="2.48302976600825786590576171875">
        <ele>417</ele>
        <time>2020-08-09T06:19:28.000Z</time>
      </trkpt>
      <trkpt lat="42.25093097425997257232666015625" lon="2.48299087397754192352294921875">
        <ele>417.399993896484375</ele>
        <time>2020-08-09T06:19:30.000Z</time>
      </trkpt>
      <trkpt lat="42.2509176470339298248291015625" lon="2.48287805356085300445556640625">
        <ele>418.399993896484375</ele>
        <time>2020-08-09T06:19:36.000Z</time>
      </trkpt>
      <trkpt lat="42.25091571919620037078857421875" lon="2.4828576855361461639404296875">
        <ele>418.399993896484375</ele>
        <time>2020-08-09T06:19:37.000Z</time>
      </trkpt>
      <trkpt lat="42.25091253407299518585205078125" lon="2.48274318873882293701171875">
        <ele>419.399993896484375</ele>
        <time>2020-08-09T06:19:43.000Z</time>
      </trkpt>
      <trkpt lat="42.2509116120636463165283203125" lon="2.48270203359425067901611328125">
        <ele>419.600006103515625</ele>
        <time>2020-08-09T06:19:45.000Z</time>
      </trkpt>
      <trkpt lat="42.25090130232274532318115234375" lon="2.48255870305001735687255859375">
        <ele>420.399993896484375</ele>
        <time>2020-08-09T06:19:52.000Z</time>
      </trkpt>
      <trkpt lat="42.25089912302792072296142578125" lon="2.48253942467272281646728515625">
        <ele>420.600006103515625</ele>
        <time>2020-08-09T06:19:53.000Z</time>
      </trkpt>
      <trkpt lat="42.25089141167700290679931640625" lon="2.48242861591279506683349609375">
        <ele>421.399993896484375</ele>
        <time>2020-08-09T06:19:59.000Z</time>
      </trkpt>
      <trkpt lat="42.25087414495646953582763671875" lon="2.48233406804502010345458984375">
        <ele>422</ele>
        <time>2020-08-09T06:20:04.000Z</time>
      </trkpt>
      <trkpt lat="42.25087733007967472076416015625" lon="2.48229400254786014556884765625">
        <ele>422.399993896484375</ele>
        <time>2020-08-09T06:20:06.000Z</time>
      </trkpt>
      <trkpt lat="42.250866182148456573486328125" lon="2.48217523097991943359375">
        <ele>423.399993896484375</ele>
        <time>2020-08-09T06:20:12.000Z</time>
      </trkpt>
      <trkpt lat="42.25086643360555171966552734375" lon="2.48215385712683200836181640625">
        <ele>423.600006103515625</ele>
        <time>2020-08-09T06:20:13.000Z</time>
      </trkpt>
      <trkpt lat="42.2508873045444488525390625" lon="2.48202008195221424102783203125">
        <ele>424.399993896484375</ele>
        <time>2020-08-09T06:20:20.000Z</time>
      </trkpt>
      <trkpt lat="42.25089107640087604522705078125" lon="2.4820030666887760162353515625">
        <ele>424.600006103515625</ele>
        <time>2020-08-09T06:20:21.000Z</time>
      </trkpt>
      <trkpt lat="42.2508868016302585601806640625" lon="2.4819665215909481048583984375">
        <ele>425</ele>
        <time>2020-08-09T06:20:23.000Z</time>
      </trkpt>
      <trkpt lat="42.2508344985544681549072265625" lon="2.481828890740871429443359375">
        <ele>425.399993896484375</ele>
        <time>2020-08-09T06:20:31.000Z</time>
      </trkpt>
      <trkpt lat="42.25077657960355281829833984375" lon="2.48172084800899028778076171875">
        <ele>425.20001220703125</ele>
        <time>2020-08-09T06:20:36.000Z</time>
      </trkpt>
      <trkpt lat="42.25073819048702716827392578125" lon="2.481493614614009857177734375">
        <ele>425</ele>
        <time>2020-08-09T06:20:45.000Z</time>
      </trkpt>
      <trkpt lat="42.2507064230740070343017578125" lon="2.48132790438830852508544921875">
        <ele>425.20001220703125</ele>
        <time>2020-08-09T06:20:52.000Z</time>
      </trkpt>
      <trkpt lat="42.2506983764469623565673828125" lon="2.481305189430713653564453125">
        <ele>425.399993896484375</ele>
        <time>2020-08-09T06:20:53.000Z</time>
      </trkpt>
      <trkpt lat="42.25065118633210659027099609375" lon="2.481128163635730743408203125">
        <ele>426.399993896484375</ele>
        <time>2020-08-09T06:21:01.000Z</time>
      </trkpt>
      <trkpt lat="42.25062788464128971099853515625" lon="2.4809801392257213592529296875">
        <ele>427.20001220703125</ele>
        <time>2020-08-09T06:21:08.000Z</time>
      </trkpt>
      <trkpt lat="42.25062453188002109527587890625" lon="2.48096077702939510345458984375">
        <ele>427.399993896484375</ele>
        <time>2020-08-09T06:21:09.000Z</time>
      </trkpt>
      <trkpt lat="42.25061380304396152496337890625" lon="2.480922304093837738037109375">
        <ele>427.79998779296875</ele>
        <time>2020-08-09T06:21:11.000Z</time>
      </trkpt>
      <trkpt lat="42.25062377750873565673828125" lon="2.4808596074581146240234375">
        <ele>428.20001220703125</ele>
        <time>2020-08-09T06:21:14.000Z</time>
      </trkpt>
      <trkpt lat="42.25062872283160686492919921875" lon="2.48084074817597866058349609375">
        <ele>428.20001220703125</ele>
        <time>2020-08-09T06:21:15.000Z</time>
      </trkpt>
      <trkpt lat="42.2506316564977169036865234375" lon="2.48082314617931842803955078125">
        <ele>428.399993896484375</ele>
        <time>2020-08-09T06:21:16.000Z</time>
      </trkpt>
      <trkpt lat="42.2506293095648288726806640625" lon="2.48080395162105560302734375">
        <ele>428.600006103515625</ele>
        <time>2020-08-09T06:21:17.000Z</time>
      </trkpt>
      <trkpt lat="42.25062771700322628021240234375" lon="2.48076505959033966064453125">
        <ele>428.600006103515625</ele>
        <time>2020-08-09T06:21:19.000Z</time>
      </trkpt>
      <trkpt lat="42.250637523829936981201171875" lon="2.4806850962340831756591796875">
        <ele>429.20001220703125</ele>
        <time>2020-08-09T06:21:23.000Z</time>
      </trkpt>
      <trkpt lat="42.25065537728369235992431640625" lon="2.4805982597172260284423828125">
        <ele>429.79998779296875</ele>
        <time>2020-08-09T06:21:28.000Z</time>
      </trkpt>
      <trkpt lat="42.25069820880889892578125" lon="2.4804604612290859222412109375">
        <ele>430</ele>
        <time>2020-08-09T06:21:36.000Z</time>
      </trkpt>
      <trkpt lat="42.25072578527033329010009765625" lon="2.48028117232024669647216796875">
        <ele>429.79998779296875</ele>
        <time>2020-08-09T06:21:42.000Z</time>
      </trkpt>
      <trkpt lat="42.250631153583526611328125" lon="2.48005653731524944305419921875">
        <ele>429.20001220703125</ele>
        <time>2020-08-09T06:21:47.000Z</time>
      </trkpt>
      <trkpt lat="42.2505756653845310211181640625" lon="2.47993818484246730804443359375">
        <ele>428.600006103515625</ele>
        <time>2020-08-09T06:21:49.000Z</time>
      </trkpt>
      <trkpt lat="42.25054557435214519500732421875" lon="2.47978496365249156951904296875">
        <ele>427.79998779296875</ele>
        <time>2020-08-09T06:21:51.000Z</time>
      </trkpt>
      <trkpt lat="42.25057826377451419830322265625" lon="2.4795776791870594024658203125">
        <ele>427.20001220703125</ele>
        <time>2020-08-09T06:21:54.000Z</time>
      </trkpt>
      <trkpt lat="42.25061598233878612518310546875" lon="2.47949209995567798614501953125">
        <ele>427.600006103515625</ele>
        <time>2020-08-09T06:21:56.000Z</time>
      </trkpt>
      <trkpt lat="42.250638194382190704345703125" lon="2.47943979687988758087158203125">
        <ele>428</ele>
        <time>2020-08-09T06:21:58.000Z</time>
      </trkpt>
      <trkpt lat="42.2506953589618206024169921875" lon="2.4793419800698757171630859375">
        <ele>428.79998779296875</ele>
        <time>2020-08-09T06:22:03.000Z</time>
      </trkpt>
      <trkpt lat="42.25070566870272159576416015625" lon="2.47932110913097858428955078125">
        <ele>429.20001220703125</ele>
        <time>2020-08-09T06:22:04.000Z</time>
      </trkpt>
      <trkpt lat="42.250729389488697052001953125" lon="2.47923879884183406829833984375">
        <ele>429.79998779296875</ele>
        <time>2020-08-09T06:22:08.000Z</time>
      </trkpt>
      <trkpt lat="42.25074958987534046173095703125" lon="2.479200661182403564453125">
        <ele>430</ele>
        <time>2020-08-09T06:22:10.000Z</time>
      </trkpt>
      <trkpt lat="42.25077389739453792572021484375" lon="2.47912111692130565643310546875">
        <ele>430.79998779296875</ele>
        <time>2020-08-09T06:22:14.000Z</time>
      </trkpt>
      <trkpt lat="42.25078403949737548828125" lon="2.4790797941386699676513671875">
        <ele>431.20001220703125</ele>
        <time>2020-08-09T06:22:16.000Z</time>
      </trkpt>
      <trkpt lat="42.2507929243147373199462890625" lon="2.479036711156368255615234375">
        <ele>431.600006103515625</ele>
        <time>2020-08-09T06:22:18.000Z</time>
      </trkpt>
      <trkpt lat="42.25080206058919429779052734375" lon="2.47899220325052738189697265625">
        <ele>431.79998779296875</ele>
        <time>2020-08-09T06:22:20.000Z</time>
      </trkpt>
      <trkpt lat="42.250814549624919891357421875" lon="2.4789284169673919677734375">
        <ele>432.20001220703125</ele>
        <time>2020-08-09T06:22:23.000Z</time>
      </trkpt>
      <trkpt lat="42.25083072669804096221923828125" lon="2.47881769202649593353271484375">
        <ele>433</ele>
        <time>2020-08-09T06:22:28.000Z</time>
      </trkpt>
      <trkpt lat="42.2508338280022144317626953125" lon="2.478749714791774749755859375">
        <ele>433.399993896484375</ele>
        <time>2020-08-09T06:22:31.000Z</time>
      </trkpt>
      <trkpt lat="42.2508381865918636322021484375" lon="2.47863630764186382293701171875">
        <ele>434.20001220703125</ele>
        <time>2020-08-09T06:22:36.000Z</time>
      </trkpt>
      <trkpt lat="42.2508388571441173553466796875" lon="2.47861325740814208984375">
        <ele>434.399993896484375</ele>
        <time>2020-08-09T06:22:37.000Z</time>
      </trkpt>
      <trkpt lat="42.2508497536182403564453125" lon="2.478482834994792938232421875">
        <ele>435.20001220703125</ele>
        <time>2020-08-09T06:22:43.000Z</time>
      </trkpt>
      <trkpt lat="42.25085386075079441070556640625" lon="2.47846112586557865142822265625">
        <ele>435.600006103515625</ele>
        <time>2020-08-09T06:22:44.000Z</time>
      </trkpt>
      <trkpt lat="42.25091991014778614044189453125" lon="2.47829114086925983428955078125">
        <ele>436.399993896484375</ele>
        <time>2020-08-09T06:22:53.000Z</time>
      </trkpt>
      <trkpt lat="42.2509838640689849853515625" lon="2.47818720526993274688720703125">
        <ele>437.20001220703125</ele>
        <time>2020-08-09T06:22:59.000Z</time>
      </trkpt>
      <trkpt lat="42.25101144053041934967041015625" lon="2.47815719805657863616943359375">
        <ele>437.399993896484375</ele>
        <time>2020-08-09T06:23:01.000Z</time>
      </trkpt>
      <trkpt lat="42.25105385296046733856201171875" lon="2.47810103930532932281494140625">
        <ele>438</ele>
        <time>2020-08-09T06:23:05.000Z</time>
      </trkpt>
      <trkpt lat="42.25109626539051532745361328125" lon="2.47807220555841922760009765625">
        <ele>438.600006103515625</ele>
        <time>2020-08-09T06:23:08.000Z</time>
      </trkpt>
      <trkpt lat="42.25114814937114715576171875" lon="2.47803851030766963958740234375">
        <ele>439.399993896484375</ele>
        <time>2020-08-09T06:23:12.000Z</time>
      </trkpt>
      <trkpt lat="42.25117187015712261199951171875" lon="2.478023506700992584228515625">
        <ele>439.79998779296875</ele>
        <time>2020-08-09T06:23:14.000Z</time>
      </trkpt>
      <trkpt lat="42.2512261010706424713134765625" lon="2.47796474955976009368896484375">
        <ele>440.600006103515625</ele>
        <time>2020-08-09T06:23:19.000Z</time>
      </trkpt>
      <trkpt lat="42.25125015713274478912353515625" lon="2.477951087057590484619140625">
        <ele>441</ele>
        <time>2020-08-09T06:23:21.000Z</time>
      </trkpt>
      <trkpt lat="42.2512790746986865997314453125" lon="2.47791479341685771942138671875">
        <ele>441.600006103515625</ele>
        <time>2020-08-09T06:23:24.000Z</time>
      </trkpt>
      <trkpt lat="42.2513042204082012176513671875" lon="2.4778707884252071380615234375">
        <ele>442</ele>
        <time>2020-08-09T06:23:27.000Z</time>
      </trkpt>
      <trkpt lat="42.2513464652001857757568359375" lon="2.477778084576129913330078125">
        <ele>442.79998779296875</ele>
        <time>2020-08-09T06:23:33.000Z</time>
      </trkpt>
      <trkpt lat="42.25136063061654567718505859375" lon="2.47774631716310977935791015625">
        <ele>443.20001220703125</ele>
        <time>2020-08-09T06:23:35.000Z</time>
      </trkpt>
      <trkpt lat="42.2513689287006855010986328125" lon="2.477713711559772491455078125">
        <ele>443.600006103515625</ele>
        <time>2020-08-09T06:23:37.000Z</time>
      </trkpt>
      <trkpt lat="42.251371107995510101318359375" lon="2.47766031883656978607177734375">
        <ele>444</ele>
        <time>2020-08-09T06:23:40.000Z</time>
      </trkpt>
      <trkpt lat="42.2513779811561107635498046875" lon="2.47764489613473415374755859375">
        <ele>444</ele>
        <time>2020-08-09T06:23:41.000Z</time>
      </trkpt>
      <trkpt lat="42.25138611160218715667724609375" lon="2.47756023891270160675048828125">
        <ele>445</ele>
        <time>2020-08-09T06:23:46.000Z</time>
      </trkpt>
      <trkpt lat="42.251387871801853179931640625" lon="2.47754313983023166656494140625">
        <ele>445.20001220703125</ele>
        <time>2020-08-09T06:23:47.000Z</time>
      </trkpt>
      <trkpt lat="42.2513888776302337646484375" lon="2.4775254540145397186279296875">
        <ele>445.399993896484375</ele>
        <time>2020-08-09T06:23:48.000Z</time>
      </trkpt>
      <trkpt lat="42.2513913922011852264404296875" lon="2.47745714150369167327880859375">
        <ele>446.20001220703125</ele>
        <time>2020-08-09T06:23:52.000Z</time>
      </trkpt>
      <trkpt lat="42.2513910569250583648681640625" lon="2.47740450315177440643310546875">
        <ele>446.600006103515625</ele>
        <time>2020-08-09T06:23:55.000Z</time>
      </trkpt>
      <trkpt lat="42.251398600637912750244140625" lon="2.47735270299017429351806640625">
        <ele>447.20001220703125</ele>
        <time>2020-08-09T06:23:58.000Z</time>
      </trkpt>
      <trkpt lat="42.25141645409166812896728515625" lon="2.477285228669643402099609375">
        <ele>448.399993896484375</ele>
        <time>2020-08-09T06:24:02.000Z</time>
      </trkpt>
      <trkpt lat="42.2514291107654571533203125" lon="2.47725513763725757598876953125">
        <ele>449</ele>
        <time>2020-08-09T06:24:04.000Z</time>
      </trkpt>
      <trkpt lat="42.251431457698345184326171875" lon="2.4772253818809986114501953125">
        <ele>449.20001220703125</ele>
        <time>2020-08-09T06:24:06.000Z</time>
      </trkpt>
      <trkpt lat="42.25143522955477237701416015625" lon="2.4771935306489467620849609375">
        <ele>449.399993896484375</ele>
        <time>2020-08-09T06:24:08.000Z</time>
      </trkpt>
      <trkpt lat="42.25144327618181705474853515625" lon="2.47717835940420627593994140625">
        <ele>449.600006103515625</ele>
        <time>2020-08-09T06:24:09.000Z</time>
      </trkpt>
      <trkpt lat="42.2514507360756397247314453125" lon="2.477161847054958343505859375">
        <ele>449.600006103515625</ele>
        <time>2020-08-09T06:24:10.000Z</time>
      </trkpt>
      <trkpt lat="42.251483090221881866455078125" lon="2.4770621024072170257568359375">
        <ele>450.399993896484375</ele>
        <time>2020-08-09T06:24:16.000Z</time>
      </trkpt>
      <trkpt lat="42.25148719735443592071533203125" lon="2.47704475186765193939208984375">
        <ele>450.600006103515625</ele>
        <time>2020-08-09T06:24:17.000Z</time>
      </trkpt>
      <trkpt lat="42.25153447128832340240478515625" lon="2.4769393913447856903076171875">
        <ele>451.399993896484375</ele>
        <time>2020-08-09T06:24:24.000Z</time>
      </trkpt>
      <trkpt lat="42.2515811584889888763427734375" lon="2.4768478609621524810791015625">
        <ele>452.20001220703125</ele>
        <time>2020-08-09T06:24:30.000Z</time>
      </trkpt>
      <trkpt lat="42.2515928931534290313720703125" lon="2.4768203683197498321533203125">
        <ele>452.600006103515625</ele>
        <time>2020-08-09T06:24:32.000Z</time>
      </trkpt>
      <trkpt lat="42.25162298418581485748291015625" lon="2.47672506608068943023681640625">
        <ele>453.600006103515625</ele>
        <time>2020-08-09T06:24:38.000Z</time>
      </trkpt>
      <trkpt lat="42.2516758739948272705078125" lon="2.47665616683661937713623046875">
        <ele>454.399993896484375</ele>
        <time>2020-08-09T06:24:44.000Z</time>
      </trkpt>
      <trkpt lat="42.25170412100851535797119140625" lon="2.47661710716784000396728515625">
        <ele>454.79998779296875</ele>
        <time>2020-08-09T06:24:47.000Z</time>
      </trkpt>
      <trkpt lat="42.25173094309866428375244140625" lon="2.47655332088470458984375">
        <ele>455.600006103515625</ele>
        <time>2020-08-09T06:24:51.000Z</time>
      </trkpt>
      <trkpt lat="42.2517655603587627410888671875" lon="2.47649556957185268402099609375">
        <ele>456.20001220703125</ele>
        <time>2020-08-09T06:24:55.000Z</time>
      </trkpt>
      <trkpt lat="42.2517850063741207122802734375" lon="2.47646774165332317352294921875">
        <ele>456.600006103515625</ele>
        <time>2020-08-09T06:24:57.000Z</time>
      </trkpt>
      <trkpt lat="42.2518299333751201629638671875" lon="2.4763734452426433563232421875">
        <ele>457.79998779296875</ele>
        <time>2020-08-09T06:25:03.000Z</time>
      </trkpt>
      <trkpt lat="42.2518902830779552459716796875" lon="2.47624092735350131988525390625">
        <ele>458.600006103515625</ele>
        <time>2020-08-09T06:25:11.000Z</time>
      </trkpt>
      <trkpt lat="42.2518966533243656158447265625" lon="2.47622273862361907958984375">
        <ele>458.79998779296875</ele>
        <time>2020-08-09T06:25:12.000Z</time>
      </trkpt>
      <trkpt lat="42.25193210877478122711181640625" lon="2.4761397577822208404541015625">
        <ele>459.79998779296875</ele>
        <time>2020-08-09T06:25:17.000Z</time>
      </trkpt>
      <trkpt lat="42.25196664221584796905517578125" lon="2.4760613031685352325439453125">
        <ele>460.20001220703125</ele>
        <time>2020-08-09T06:25:21.000Z</time>
      </trkpt>
      <trkpt lat="42.25199329666793346405029296875" lon="2.4759550206363201141357421875">
        <ele>460.79998779296875</ele>
        <time>2020-08-09T06:25:26.000Z</time>
      </trkpt>
      <trkpt lat="42.25201928056776523590087890625" lon="2.47590531595051288604736328125">
        <ele>461.20001220703125</ele>
        <time>2020-08-09T06:25:29.000Z</time>
      </trkpt>
      <trkpt lat="42.252037636935710906982421875" lon="2.47585594654083251953125">
        <ele>461.79998779296875</ele>
        <time>2020-08-09T06:25:32.000Z</time>
      </trkpt>
      <trkpt lat="42.25205934606492519378662109375" lon="2.47576986439526081085205078125">
        <ele>462.399993896484375</ele>
        <time>2020-08-09T06:25:37.000Z</time>
      </trkpt>
      <trkpt lat="42.25208348594605922698974609375" lon="2.475724518299102783203125">
        <ele>462.79998779296875</ele>
        <time>2020-08-09T06:25:40.000Z</time>
      </trkpt>
      <trkpt lat="42.2521165944635868072509765625" lon="2.47566425241529941558837890625">
        <ele>463.399993896484375</ele>
        <time>2020-08-09T06:25:44.000Z</time>
      </trkpt>
      <trkpt lat="42.25213780067861080169677734375" lon="2.4756158888339996337890625">
        <ele>464</ele>
        <time>2020-08-09T06:25:47.000Z</time>
      </trkpt>
      <trkpt lat="42.2521591745316982269287109375" lon="2.475527711212635040283203125">
        <ele>465</ele>
        <time>2020-08-09T06:25:52.000Z</time>
      </trkpt>
      <trkpt lat="42.2521655447781085968017578125" lon="2.4755117855966091156005859375">
        <ele>465</ele>
        <time>2020-08-09T06:25:53.000Z</time>
      </trkpt>
      <trkpt lat="42.252230085432529449462890625" lon="2.4754179082810878753662109375">
        <ele>466</ele>
        <time>2020-08-09T06:26:00.000Z</time>
      </trkpt>
      <trkpt lat="42.25223855115473270416259765625" lon="2.47540240176022052764892578125">
        <ele>466.20001220703125</ele>
        <time>2020-08-09T06:26:01.000Z</time>
      </trkpt>
      <trkpt lat="42.252292446792125701904296875" lon="2.475314475595951080322265625">
        <ele>467.20001220703125</ele>
        <time>2020-08-09T06:26:07.000Z</time>
      </trkpt>
      <trkpt lat="42.25232253782451152801513671875" lon="2.47527264989912509918212890625">
        <ele>467.399993896484375</ele>
        <time>2020-08-09T06:26:10.000Z</time>
      </trkpt>
      <trkpt lat="42.2523720748722553253173828125" lon="2.47520257718861103057861328125">
        <ele>468.20001220703125</ele>
        <time>2020-08-09T06:26:15.000Z</time>
      </trkpt>
      <trkpt lat="42.25243552587926387786865234375" lon="2.47515010647475719451904296875">
        <ele>468.79998779296875</ele>
        <time>2020-08-09T06:26:20.000Z</time>
      </trkpt>
      <trkpt lat="42.2525021620094776153564453125" lon="2.47506662271916866302490234375">
        <ele>469.399993896484375</ele>
        <time>2020-08-09T06:26:26.000Z</time>
      </trkpt>
      <trkpt lat="42.25256158970296382904052734375" lon="2.47497148811817169189453125">
        <ele>470.399993896484375</ele>
        <time>2020-08-09T06:26:32.000Z</time>
      </trkpt>
      <trkpt lat="42.2525900043547153472900390625" lon="2.4748794548213481903076171875">
        <ele>471</ele>
        <time>2020-08-09T06:26:37.000Z</time>
      </trkpt>
      <trkpt lat="42.25258648395538330078125" lon="2.4748392216861248016357421875">
        <ele>471.399993896484375</ele>
        <time>2020-08-09T06:26:39.000Z</time>
      </trkpt>
      <trkpt lat="42.25258321501314640045166015625" lon="2.47481935657560825347900390625">
        <ele>471.399993896484375</ele>
        <time>2020-08-09T06:26:40.000Z</time>
      </trkpt>
      <trkpt lat="42.25257265381515026092529296875" lon="2.474760599434375762939453125">
        <ele>472</ele>
        <time>2020-08-09T06:26:43.000Z</time>
      </trkpt>
      <trkpt lat="42.25255169905722141265869140625" lon="2.47470729053020477294921875">
        <ele>472.600006103515625</ele>
        <time>2020-08-09T06:26:46.000Z</time>
      </trkpt>
      <trkpt lat="42.2525423951447010040283203125" lon="2.4746910296380519866943359375">
        <ele>472.79998779296875</ele>
        <time>2020-08-09T06:26:47.000Z</time>
      </trkpt>
      <trkpt lat="42.25248162634670734405517578125" lon="2.47463579289615154266357421875">
        <ele>473.79998779296875</ele>
        <time>2020-08-09T06:26:52.000Z</time>
      </trkpt>
      <trkpt lat="42.25244700908660888671875" lon="2.47460444457828998565673828125">
        <ele>474.20001220703125</ele>
        <time>2020-08-09T06:26:55.000Z</time>
      </trkpt>
      <trkpt lat="42.25243552587926387786865234375" lon="2.47459891252219676971435546875">
        <ele>474.399993896484375</ele>
        <time>2020-08-09T06:26:56.000Z</time>
      </trkpt>
      <trkpt lat="42.25240954197943210601806640625" lon="2.474596984684467315673828125">
        <ele>474.79998779296875</ele>
        <time>2020-08-09T06:26:58.000Z</time>
      </trkpt>
      <trkpt lat="42.2523754276335239410400390625" lon="2.47457678429782390594482421875">
        <ele>475.600006103515625</ele>
        <time>2020-08-09T06:27:01.000Z</time>
      </trkpt>
      <trkpt lat="42.25235086865723133087158203125" lon="2.47456136159598827362060546875">
        <ele>475.79998779296875</ele>
        <time>2020-08-09T06:27:03.000Z</time>
      </trkpt>
      <trkpt lat="42.2523382119834423065185546875" lon="2.474553398787975311279296875">
        <ele>476</ele>
        <time>2020-08-09T06:27:04.000Z</time>
      </trkpt>
      <trkpt lat="42.25230007432401180267333984375" lon="2.47453562915325164794921875">
        <ele>476.399993896484375</ele>
        <time>2020-08-09T06:27:07.000Z</time>
      </trkpt>
      <trkpt lat="42.25227576680481433868408203125" lon="2.47452280484139919281005859375">
        <ele>477</ele>
        <time>2020-08-09T06:27:09.000Z</time>
      </trkpt>
      <trkpt lat="42.25226503796875476837158203125" lon="2.474511153995990753173828125">
        <ele>477.20001220703125</ele>
        <time>2020-08-09T06:27:10.000Z</time>
      </trkpt>
      <trkpt lat="42.2522292472422122955322265625" lon="2.47445709072053432464599609375">
        <ele>478</ele>
        <time>2020-08-09T06:27:14.000Z</time>
      </trkpt>
      <trkpt lat="42.25221675820648670196533203125" lon="2.47444854117929935455322265625">
        <ele>478.399993896484375</ele>
        <time>2020-08-09T06:27:15.000Z</time>
      </trkpt>
      <trkpt lat="42.2521990723907947540283203125" lon="2.47442440129816532135009765625">
        <ele>478.79998779296875</ele>
        <time>2020-08-09T06:27:17.000Z</time>
      </trkpt>
      <trkpt lat="42.25219630636274814605712890625" lon="2.4744070507586002349853515625">
        <ele>479</ele>
        <time>2020-08-09T06:27:18.000Z</time>
      </trkpt>
      <trkpt lat="42.25219060666859149932861328125" lon="2.474372349679470062255859375">
        <ele>479.399993896484375</ele>
        <time>2020-08-09T06:27:20.000Z</time>
      </trkpt>
      <trkpt lat="42.25214685313403606414794921875" lon="2.474301941692829132080078125">
        <ele>480.399993896484375</ele>
        <time>2020-08-09T06:27:25.000Z</time>
      </trkpt>
      <trkpt lat="42.2521403990685939788818359375" lon="2.47428710572421550750732421875">
        <ele>480.600006103515625</ele>
        <time>2020-08-09T06:27:26.000Z</time>
      </trkpt>
      <trkpt lat="42.252134867012500762939453125" lon="2.47419859282672405242919921875">
        <ele>481.399993896484375</ele>
        <time>2020-08-09T06:27:31.000Z</time>
      </trkpt>
      <trkpt lat="42.2521293349564075469970703125" lon="2.47418166138231754302978515625">
        <ele>481.600006103515625</ele>
        <time>2020-08-09T06:27:32.000Z</time>
      </trkpt>
      <trkpt lat="42.25212179124355316162109375" lon="2.474128268659114837646484375">
        <ele>482.399993896484375</ele>
        <time>2020-08-09T06:27:35.000Z</time>
      </trkpt>
      <trkpt lat="42.25211952812969684600830078125" lon="2.474110163748264312744140625">
        <ele>482.399993896484375</ele>
        <time>2020-08-09T06:27:36.000Z</time>
      </trkpt>
      <trkpt lat="42.25210569798946380615234375" lon="2.47403950430452823638916015625">
        <ele>483.20001220703125</ele>
        <time>2020-08-09T06:27:40.000Z</time>
      </trkpt>
      <trkpt lat="42.2521031834185123443603515625" lon="2.4740218184888362884521484375">
        <ele>483.399993896484375</ele>
        <time>2020-08-09T06:27:41.000Z</time>
      </trkpt>
      <trkpt lat="42.25210494361817836761474609375" lon="2.47400413267314434051513671875">
        <ele>483.600006103515625</ele>
        <time>2020-08-09T06:27:42.000Z</time>
      </trkpt>
      <trkpt lat="42.252110727131366729736328125" lon="2.473929114639759063720703125">
        <ele>484.399993896484375</ele>
        <time>2020-08-09T06:27:46.000Z</time>
      </trkpt>
      <trkpt lat="42.252110056579113006591796875" lon="2.473910339176654815673828125">
        <ele>484.600006103515625</ele>
        <time>2020-08-09T06:27:47.000Z</time>
      </trkpt>
      <trkpt lat="42.25211097858846187591552734375" lon="2.47378687374293804168701171875">
        <ele>485.79998779296875</ele>
        <time>2020-08-09T06:27:54.000Z</time>
      </trkpt>
      <trkpt lat="42.252114079892635345458984375" lon="2.47376893647015094757080078125">
        <ele>486</ele>
        <time>2020-08-09T06:27:55.000Z</time>
      </trkpt>
      <trkpt lat="42.252127826213836669921875" lon="2.4737183935940265655517578125">
        <ele>486.600006103515625</ele>
        <time>2020-08-09T06:27:58.000Z</time>
      </trkpt>
      <trkpt lat="42.252129502594470977783203125" lon="2.4736820161342620849609375">
        <ele>487</ele>
        <time>2020-08-09T06:28:00.000Z</time>
      </trkpt>
      <trkpt lat="42.2521238029003143310546875" lon="2.473644800484180450439453125">
        <ele>487.20001220703125</ele>
        <time>2020-08-09T06:28:02.000Z</time>
      </trkpt>
      <trkpt lat="42.252135537564754486083984375" lon="2.47358989901840686798095703125">
        <ele>487.79998779296875</ele>
        <time>2020-08-09T06:28:05.000Z</time>
      </trkpt>
      <trkpt lat="42.2521400637924671173095703125" lon="2.47357137501239776611328125">
        <ele>488</ele>
        <time>2020-08-09T06:28:06.000Z</time>
      </trkpt>
      <trkpt lat="42.25214383564889430999755859375" lon="2.473513372242450714111328125">
        <ele>488.600006103515625</ele>
        <time>2020-08-09T06:28:09.000Z</time>
      </trkpt>
      <trkpt lat="42.25214199163019657135009765625" lon="2.473471462726593017578125">
        <ele>489</ele>
        <time>2020-08-09T06:28:11.000Z</time>
      </trkpt>
      <trkpt lat="42.2521460987627506256103515625" lon="2.47335151769220829010009765625">
        <ele>490</ele>
        <time>2020-08-09T06:28:17.000Z</time>
      </trkpt>
      <trkpt lat="42.2521564923226833343505859375" lon="2.47331128455698490142822265625">
        <ele>490</ele>
        <time>2020-08-09T06:28:19.000Z</time>
      </trkpt>
      <trkpt lat="42.25215355865657329559326171875" lon="2.47320718131959438323974609375">
        <ele>490.79998779296875</ele>
        <time>2020-08-09T06:28:24.000Z</time>
      </trkpt>
      <trkpt lat="42.25215355865657329559326171875" lon="2.47314062900841236114501953125">
        <ele>491.20001220703125</ele>
        <time>2020-08-09T06:28:27.000Z</time>
      </trkpt>
      <trkpt lat="42.25216194055974483489990234375" lon="2.4730060994625091552734375">
        <ele>491.600006103515625</ele>
        <time>2020-08-09T06:28:33.000Z</time>
      </trkpt>
      <trkpt lat="42.25219949148595333099365234375" lon="2.472867630422115325927734375">
        <ele>492.20001220703125</ele>
        <time>2020-08-09T06:28:40.000Z</time>
      </trkpt>
      <trkpt lat="42.25220493972301483154296875" lon="2.4728478491306304931640625">
        <ele>492.20001220703125</ele>
        <time>2020-08-09T06:28:41.000Z</time>
      </trkpt>
      <trkpt lat="42.252251207828521728515625" lon="2.47271181084215641021728515625">
        <ele>493.20001220703125</ele>
        <time>2020-08-09T06:28:48.000Z</time>
      </trkpt>
      <trkpt lat="42.25227140821516513824462890625" lon="2.47265514917671680450439453125">
        <ele>493.399993896484375</ele>
        <time>2020-08-09T06:28:51.000Z</time>
      </trkpt>
      <trkpt lat="42.25229479372501373291015625" lon="2.47255138121545314788818359375">
        <ele>493.79998779296875</ele>
        <time>2020-08-09T06:28:57.000Z</time>
      </trkpt>
      <trkpt lat="42.252347767353057861328125" lon="2.47243889607489109039306640625">
        <ele>494</ele>
        <time>2020-08-09T06:29:03.000Z</time>
      </trkpt>
      <trkpt lat="42.2523968853056430816650390625" lon="2.47234434820711612701416015625">
        <ele>494.399993896484375</ele>
        <time>2020-08-09T06:29:08.000Z</time>
      </trkpt>
      <trkpt lat="42.2524019144475460052490234375" lon="2.4723323620855808258056640625">
        <ele>494.399993896484375</ele>
        <time>2020-08-09T06:29:09.000Z</time>
      </trkpt>
      <trkpt lat="42.2524042613804340362548828125" lon="2.4723256565630435943603515625">
        <ele>494.600006103515625</ele>
        <time>2020-08-09T06:29:13.000Z</time>
      </trkpt>
      <trkpt lat="42.2524027526378631591796875" lon="2.47232238762080669403076171875">
        <ele>494.399993896484375</ele>
        <time>2020-08-09T06:30:24.000Z</time>
      </trkpt>
      <trkpt lat="42.2524035908281803131103515625" lon="2.4723186157643795013427734375">
        <ele>494.399993896484375</ele>
        <time>2020-08-09T06:30:27.000Z</time>
      </trkpt>
      <trkpt lat="42.2524196840822696685791015625" lon="2.47224041260778903961181640625">
        <ele>494.399993896484375</ele>
        <time>2020-08-09T06:30:33.000Z</time>
      </trkpt>
      <trkpt lat="42.252409122884273529052734375" lon="2.47206707485020160675048828125">
        <ele>494</ele>
        <time>2020-08-09T06:30:38.000Z</time>
      </trkpt>
      <trkpt lat="42.2523978911340236663818359375" lon="2.47199934907257556915283203125">
        <ele>493.600006103515625</ele>
        <time>2020-08-09T06:30:39.000Z</time>
      </trkpt>
      <trkpt lat="42.25239244289696216583251953125" lon="2.4719206430017948150634765625">
        <ele>493</ele>
        <time>2020-08-09T06:30:40.000Z</time>
      </trkpt>
      <trkpt lat="42.2524005733430385589599609375" lon="2.4718366563320159912109375">
        <ele>492.20001220703125</ele>
        <time>2020-08-09T06:30:41.000Z</time>
      </trkpt>
      <trkpt lat="42.2524693049490451812744140625" lon="2.47170279733836650848388671875">
        <ele>491.600006103515625</ele>
        <time>2020-08-09T06:30:43.000Z</time>
      </trkpt>
      <trkpt lat="42.25257164798676967620849609375" lon="2.471676729619503021240234375">
        <ele>491.20001220703125</ele>
        <time>2020-08-09T06:30:45.000Z</time>
      </trkpt>
      <trkpt lat="42.25261540152132511138916015625" lon="2.47169190086424350738525390625">
        <ele>491.20001220703125</ele>
        <time>2020-08-09T06:30:46.000Z</time>
      </trkpt>
      <trkpt lat="42.25270248949527740478515625" lon="2.47168905101716518402099609375">
        <ele>492.399993896484375</ele>
        <time>2020-08-09T06:30:49.000Z</time>
      </trkpt>
      <trkpt lat="42.25278270430862903594970703125" lon="2.4716527573764324188232421875">
        <ele>493.600006103515625</ele>
        <time>2020-08-09T06:30:54.000Z</time>
      </trkpt>
      <trkpt lat="42.25279041565954685211181640625" lon="2.47163674794137477874755859375">
        <ele>493.79998779296875</ele>
        <time>2020-08-09T06:30:55.000Z</time>
      </trkpt>
      <trkpt lat="42.25283450447022914886474609375" lon="2.471547983586788177490234375">
        <ele>494.600006103515625</ele>
        <time>2020-08-09T06:31:01.000Z</time>
      </trkpt>
      <trkpt lat="42.25284506566822528839111328125" lon="2.47153599746525287628173828125">
        <ele>494.600006103515625</ele>
        <time>2020-08-09T06:31:02.000Z</time>
      </trkpt>
      <trkpt lat="42.25285948254168033599853515625" lon="2.47149358503520488739013671875">
        <ele>495.20001220703125</ele>
        <time>2020-08-09T06:31:05.000Z</time>
      </trkpt>
      <trkpt lat="42.25286903791129589080810546875" lon="2.47146341018378734588623046875">
        <ele>495.600006103515625</ele>
        <time>2020-08-09T06:31:07.000Z</time>
      </trkpt>
      <trkpt lat="42.25287423469126224517822265625" lon="2.47144798748195171356201171875">
        <ele>495.79998779296875</ele>
        <time>2020-08-09T06:31:08.000Z</time>
      </trkpt>
      <trkpt lat="42.2529031522572040557861328125" lon="2.47138294391334056854248046875">
        <ele>496.399993896484375</ele>
        <time>2020-08-09T06:31:13.000Z</time>
      </trkpt>
      <trkpt lat="42.25290759466588497161865234375" lon="2.471371628344058990478515625">
        <ele>496.600006103515625</ele>
        <time>2020-08-09T06:31:14.000Z</time>
      </trkpt>
      <trkpt lat="42.2529132105410099029541015625" lon="2.4713600613176822662353515625">
        <ele>496.79998779296875</ele>
        <time>2020-08-09T06:31:15.000Z</time>
      </trkpt>
      <trkpt lat="42.25292980670928955078125" lon="2.47133349068462848663330078125">
        <ele>497</ele>
        <time>2020-08-09T06:31:17.000Z</time>
      </trkpt>
      <trkpt lat="42.25296006537973880767822265625" lon="2.4712618254125118255615234375">
        <ele>497.79998779296875</ele>
        <time>2020-08-09T06:31:22.000Z</time>
      </trkpt>
      <trkpt lat="42.25298068486154079437255859375" lon="2.4711830355226993560791015625">
        <ele>498.399993896484375</ele>
        <time>2020-08-09T06:31:27.000Z</time>
      </trkpt>
      <trkpt lat="42.25298806093633174896240234375" lon="2.47116920538246631622314453125">
        <ele>498.600006103515625</ele>
        <time>2020-08-09T06:31:28.000Z</time>
      </trkpt>
      <trkpt lat="42.25299946032464504241943359375" lon="2.4711404554545879364013671875">
        <ele>499</ele>
        <time>2020-08-09T06:31:30.000Z</time>
      </trkpt>
      <trkpt lat="42.25302628241479396820068359375" lon="2.47104465030133724212646484375">
        <ele>500</ele>
        <time>2020-08-09T06:31:36.000Z</time>
      </trkpt>
      <trkpt lat="42.2530302219092845916748046875" lon="2.47102905996143817901611328125">
        <ele>500.20001220703125</ele>
        <time>2020-08-09T06:31:37.000Z</time>
      </trkpt>
      <trkpt lat="42.2530530206859111785888671875" lon="2.47093199752271175384521484375">
        <ele>500.79998779296875</ele>
        <time>2020-08-09T06:31:43.000Z</time>
      </trkpt>
      <trkpt lat="42.25305997766554355621337890625" lon="2.47091732919216156005859375">
        <ele>501</ele>
        <time>2020-08-09T06:31:44.000Z</time>
      </trkpt>
      <trkpt lat="42.25306701846420764923095703125" lon="2.47088505886495113372802734375">
        <ele>501.20001220703125</ele>
        <time>2020-08-09T06:31:46.000Z</time>
      </trkpt>
      <trkpt lat="42.2530902363359928131103515625" lon="2.47080710716545581817626953125">
        <ele>502.20001220703125</ele>
        <time>2020-08-09T06:31:51.000Z</time>
      </trkpt>
      <trkpt lat="42.25311965681612491607666015625" lon="2.470713816583156585693359375">
        <ele>503.399993896484375</ele>
        <time>2020-08-09T06:31:57.000Z</time>
      </trkpt>
      <trkpt lat="42.2531163878738880157470703125" lon="2.47066126205027103424072265625">
        <ele>504</ele>
        <time>2020-08-09T06:32:00.000Z</time>
      </trkpt>
      <trkpt lat="42.2530853748321533203125" lon="2.4706242978572845458984375">
        <ele>504.399993896484375</ele>
        <time>2020-08-09T06:32:03.000Z</time>
      </trkpt>
      <trkpt lat="42.25302376784384250640869140625" lon="2.47064215131103992462158203125">
        <ele>505.399993896484375</ele>
        <time>2020-08-09T06:32:09.000Z</time>
      </trkpt>
      <trkpt lat="42.25301957689225673675537109375" lon="2.47065723873674869537353515625">
        <ele>505.399993896484375</ele>
        <time>2020-08-09T06:32:10.000Z</time>
      </trkpt>
      <trkpt lat="42.25301505066454410552978515625" lon="2.47067366726696491241455078125">
        <ele>505.600006103515625</ele>
        <time>2020-08-09T06:32:11.000Z</time>
      </trkpt>
      <trkpt lat="42.252962328493595123291015625" lon="2.470800988376140594482421875">
        <ele>506.600006103515625</ele>
        <time>2020-08-09T06:32:19.000Z</time>
      </trkpt>
      <trkpt lat="42.25291580893099308013916015625" lon="2.47092948295176029205322265625">
        <ele>507.79998779296875</ele>
        <time>2020-08-09T06:32:27.000Z</time>
      </trkpt>
      <trkpt lat="42.25283986888825893402099609375" lon="2.4710546247661113739013671875">
        <ele>508.79998779296875</ele>
        <time>2020-08-09T06:32:36.000Z</time>
      </trkpt>
      <trkpt lat="42.25276124663650989532470703125" lon="2.471135593950748443603515625">
        <ele>509.79998779296875</ele>
        <time>2020-08-09T06:32:44.000Z</time>
      </trkpt>
      <trkpt lat="42.25269134156405925750732421875" lon="2.4711620807647705078125">
        <ele>511</ele>
        <time>2020-08-09T06:32:50.000Z</time>
      </trkpt>
      <trkpt lat="42.252680696547031402587890625" lon="2.4711531959474086761474609375">
        <ele>511</ele>
        <time>2020-08-09T06:32:51.000Z</time>
      </trkpt>
      <trkpt lat="42.25265479646623134613037109375" lon="2.47107231058180332183837890625">
        <ele>512</ele>
        <time>2020-08-09T06:32:56.000Z</time>
      </trkpt>
      <trkpt lat="42.252647839486598968505859375" lon="2.4710371904075145721435546875">
        <ele>512.4000244140625</ele>
        <time>2020-08-09T06:32:58.000Z</time>
      </trkpt>
      <trkpt lat="42.2526537068188190460205078125" lon="2.471005506813526153564453125">
        <ele>512.5999755859375</ele>
        <time>2020-08-09T06:33:00.000Z</time>
      </trkpt>
      <trkpt lat="42.252677343785762786865234375" lon="2.47096049599349498748779296875">
        <ele>513</ele>
        <time>2020-08-09T06:33:03.000Z</time>
      </trkpt>
      <trkpt lat="42.25268178619444370269775390625" lon="2.47094423510134220123291015625">
        <ele>513.20001220703125</ele>
        <time>2020-08-09T06:33:04.000Z</time>
      </trkpt>
      <trkpt lat="42.25268245674669742584228515625" lon="2.4709067679941654205322265625">
        <ele>513.5999755859375</ele>
        <time>2020-08-09T06:33:06.000Z</time>
      </trkpt>
      <trkpt lat="42.25269176065921783447265625" lon="2.47081951238214969635009765625">
        <ele>514.20001220703125</ele>
        <time>2020-08-09T06:33:11.000Z</time>
      </trkpt>
      <trkpt lat="42.252718247473239898681640625" lon="2.4707408063113689422607421875">
        <ele>515</ele>
        <time>2020-08-09T06:33:16.000Z</time>
      </trkpt>
      <trkpt lat="42.2527165710926055908203125" lon="2.47072286903858184814453125">
        <ele>515.20001220703125</ele>
        <time>2020-08-09T06:33:17.000Z</time>
      </trkpt>
      <trkpt lat="42.252714894711971282958984375" lon="2.4707045964896678924560546875">
        <ele>515.4000244140625</ele>
        <time>2020-08-09T06:33:18.000Z</time>
      </trkpt>
      <trkpt lat="42.25273543037474155426025390625" lon="2.4706348590552806854248046875">
        <ele>516.20001220703125</ele>
        <time>2020-08-09T06:33:22.000Z</time>
      </trkpt>
      <trkpt lat="42.2527432255446910858154296875" lon="2.470617927610874176025390625">
        <ele>516.20001220703125</ele>
        <time>2020-08-09T06:33:23.000Z</time>
      </trkpt>
      <trkpt lat="42.25274967961013317108154296875" lon="2.47059890069067478179931640625">
        <ele>516.4000244140625</ele>
        <time>2020-08-09T06:33:24.000Z</time>
      </trkpt>
      <trkpt lat="42.2527916729450225830078125" lon="2.47045464813709259033203125">
        <ele>517.5999755859375</ele>
        <time>2020-08-09T06:33:32.000Z</time>
      </trkpt>
      <trkpt lat="42.25279024802148342132568359375" lon="2.470414750277996063232421875">
        <ele>517.79998779296875</ele>
        <time>2020-08-09T06:33:34.000Z</time>
      </trkpt>
      <trkpt lat="42.252791337668895721435546875" lon="2.47039672918617725372314453125">
        <ele>518</ele>
        <time>2020-08-09T06:33:35.000Z</time>
      </trkpt>
      <trkpt lat="42.25281891413033008575439453125" lon="2.470331601798534393310546875">
        <ele>518.5999755859375</ele>
        <time>2020-08-09T06:33:39.000Z</time>
      </trkpt>
      <trkpt lat="42.25282478146255016326904296875" lon="2.47031576000154018402099609375">
        <ele>518.5999755859375</ele>
        <time>2020-08-09T06:33:40.000Z</time>
      </trkpt>
      <trkpt lat="42.25285562686622142791748046875" lon="2.4702147580683231353759765625">
        <ele>519.5999755859375</ele>
        <time>2020-08-09T06:33:46.000Z</time>
      </trkpt>
      <trkpt lat="42.2528716363012790679931640625" lon="2.47016086243093013763427734375">
        <ele>520.20001220703125</ele>
        <time>2020-08-09T06:33:49.000Z</time>
      </trkpt>
      <trkpt lat="42.2528850473463535308837890625" lon="2.47010721825063228607177734375">
        <ele>520.79998779296875</ele>
        <time>2020-08-09T06:33:52.000Z</time>
      </trkpt>
      <trkpt lat="42.25289183668792247772216796875" lon="2.46999691240489482879638671875">
        <ele>522</ele>
        <time>2020-08-09T06:33:58.000Z</time>
      </trkpt>
      <trkpt lat="42.252897955477237701416015625" lon="2.4699602834880352020263671875">
        <ele>522.4000244140625</ele>
        <time>2020-08-09T06:34:00.000Z</time>
      </trkpt>
      <trkpt lat="42.25291262380778789520263671875" lon="2.46990689076483249664306640625">
        <ele>523</ele>
        <time>2020-08-09T06:34:03.000Z</time>
      </trkpt>
      <trkpt lat="42.2529058344662189483642578125" lon="2.46985056437551975250244140625">
        <ele>523.4000244140625</ele>
        <time>2020-08-09T06:34:06.000Z</time>
      </trkpt>
      <trkpt lat="42.25290290080010890960693359375" lon="2.469831369817256927490234375">
        <ele>523.5999755859375</ele>
        <time>2020-08-09T06:34:07.000Z</time>
      </trkpt>
      <trkpt lat="42.25290499627590179443359375" lon="2.46981251053512096405029296875">
        <ele>523.79998779296875</ele>
        <time>2020-08-09T06:34:08.000Z</time>
      </trkpt>
      <trkpt lat="42.2529125399887561798095703125" lon="2.469775713980197906494140625">
        <ele>524.20001220703125</ele>
        <time>2020-08-09T06:34:10.000Z</time>
      </trkpt>
      <trkpt lat="42.25292653776705265045166015625" lon="2.46964034624397754669189453125">
        <ele>525.4000244140625</ele>
        <time>2020-08-09T06:34:17.000Z</time>
      </trkpt>
      <trkpt lat="42.25292821414768695831298828125" lon="2.46949986554682254791259765625">
        <ele>526.4000244140625</ele>
        <time>2020-08-09T06:34:24.000Z</time>
      </trkpt>
      <trkpt lat="42.25292888469994068145751953125" lon="2.46945879422128200531005859375">
        <ele>526.5999755859375</ele>
        <time>2020-08-09T06:34:26.000Z</time>
      </trkpt>
      <trkpt lat="42.25292201153934001922607421875" lon="2.46933809481561183929443359375">
        <ele>527.5999755859375</ele>
        <time>2020-08-09T06:34:32.000Z</time>
      </trkpt>
      <trkpt lat="42.25292301736772060394287109375" lon="2.46931965462863445281982421875">
        <ele>527.5999755859375</ele>
        <time>2020-08-09T06:34:33.000Z</time>
      </trkpt>
      <trkpt lat="42.25291312672197818756103515625" lon="2.46916425414383411407470703125">
        <ele>528.5999755859375</ele>
        <time>2020-08-09T06:34:41.000Z</time>
      </trkpt>
      <trkpt lat="42.2529259510338306427001953125" lon="2.469061575829982757568359375">
        <ele>529.5999755859375</ele>
        <time>2020-08-09T06:34:46.000Z</time>
      </trkpt>
      <trkpt lat="42.2529222629964351654052734375" lon="2.4690409563481807708740234375">
        <ele>529.5999755859375</ele>
        <time>2020-08-09T06:34:47.000Z</time>
      </trkpt>
      <trkpt lat="42.25291782058775424957275390625" lon="2.4690198339521884918212890625">
        <ele>529.79998779296875</ele>
        <time>2020-08-09T06:34:48.000Z</time>
      </trkpt>
      <trkpt lat="42.25290155969560146331787109375" lon="2.468929477035999298095703125">
        <ele>530.5999755859375</ele>
        <time>2020-08-09T06:34:53.000Z</time>
      </trkpt>
      <trkpt lat="42.2529014758765697479248046875" lon="2.4689279682934284210205078125">
        <ele>530.5999755859375</ele>
        <time>2020-08-09T06:34:54.000Z</time>
      </trkpt>
      <trkpt lat="42.2529028169810771942138671875" lon="2.4689266271889209747314453125">
        <ele>530.5999755859375</ele>
        <time>2020-08-09T06:35:10.000Z</time>
      </trkpt>
      <trkpt lat="42.252902649343013763427734375" lon="2.4689264595508575439453125">
        <ele>530.4000244140625</ele>
        <time>2020-08-09T06:35:20.000Z</time>
      </trkpt>
      <trkpt lat="42.252902984619140625" lon="2.4689236097037792205810546875">
        <ele>530.5999755859375</ele>
        <time>2020-08-09T06:35:32.000Z</time>
      </trkpt>
      <trkpt lat="42.2529028169810771942138671875" lon="2.46891371905803680419921875">
        <ele>530.5999755859375</ele>
        <time>2020-08-09T06:35:33.000Z</time>
      </trkpt>
      <trkpt lat="42.25289066322147846221923828125" lon="2.468820177018642425537109375">
        <ele>530.79998779296875</ele>
        <time>2020-08-09T06:35:39.000Z</time>
      </trkpt>
      <trkpt lat="42.25286333821713924407958984375" lon="2.46868447400629520416259765625">
        <ele>531.5999755859375</ele>
        <time>2020-08-09T06:35:47.000Z</time>
      </trkpt>
      <trkpt lat="42.25285445339977741241455078125" lon="2.46865094639360904693603515625">
        <ele>531.5999755859375</ele>
        <time>2020-08-09T06:35:49.000Z</time>
      </trkpt>
      <trkpt lat="42.2528344206511974334716796875" lon="2.468536198139190673828125">
        <ele>532.5999755859375</ele>
        <time>2020-08-09T06:35:56.000Z</time>
      </trkpt>
      <trkpt lat="42.25281757302582263946533203125" lon="2.4684716574847698211669921875">
        <ele>533</ele>
        <time>2020-08-09T06:36:00.000Z</time>
      </trkpt>
      <trkpt lat="42.252807430922985076904296875" lon="2.46839337050914764404296875">
        <ele>533.5999755859375</ele>
        <time>2020-08-09T06:36:05.000Z</time>
      </trkpt>
      <trkpt lat="42.2527970373630523681640625" lon="2.46836545877158641815185546875">
        <ele>533.5999755859375</ele>
        <time>2020-08-09T06:36:07.000Z</time>
      </trkpt>
      <trkpt lat="42.2527794353663921356201171875" lon="2.468343414366245269775390625">
        <ele>534.20001220703125</ele>
        <time>2020-08-09T06:36:09.000Z</time>
      </trkpt>
      <trkpt lat="42.25277222692966461181640625" lon="2.46831214986741542816162109375">
        <ele>534.5999755859375</ele>
        <time>2020-08-09T06:36:11.000Z</time>
      </trkpt>
      <trkpt lat="42.25278790108859539031982421875" lon="2.46823604218661785125732421875">
        <ele>535.20001220703125</ele>
        <time>2020-08-09T06:36:16.000Z</time>
      </trkpt>
      <trkpt lat="42.2527941875159740447998046875" lon="2.4682218767702579498291015625">
        <ele>535.4000244140625</ele>
        <time>2020-08-09T06:36:17.000Z</time>
      </trkpt>
      <trkpt lat="42.25279896520078182220458984375" lon="2.4682071246206760406494140625">
        <ele>535.79998779296875</ele>
        <time>2020-08-09T06:36:18.000Z</time>
      </trkpt>
      <trkpt lat="42.25279930047690868377685546875" lon="2.46819111518561840057373046875">
        <ele>536</ele>
        <time>2020-08-09T06:36:19.000Z</time>
      </trkpt>
      <trkpt lat="42.25279527716338634490966796875" lon="2.46815741993486881256103515625">
        <ele>536.20001220703125</ele>
        <time>2020-08-09T06:36:21.000Z</time>
      </trkpt>
      <trkpt lat="42.2527878172695636749267578125" lon="2.4680922925472259521484375">
        <ele>537</ele>
        <time>2020-08-09T06:36:25.000Z</time>
      </trkpt>
      <trkpt lat="42.2527901642024517059326171875" lon="2.46807821094989776611328125">
        <ele>537</ele>
        <time>2020-08-09T06:36:26.000Z</time>
      </trkpt>
      <trkpt lat="42.25280432961881160736083984375" lon="2.46805214323103427886962890625">
        <ele>537.4000244140625</ele>
        <time>2020-08-09T06:36:28.000Z</time>
      </trkpt>
      <trkpt lat="42.252818159759044647216796875" lon="2.46802590787410736083984375">
        <ele>538.20001220703125</ele>
        <time>2020-08-09T06:36:30.000Z</time>
      </trkpt>
      <trkpt lat="42.25281908176839351654052734375" lon="2.46800989843904972076416015625">
        <ele>538.4000244140625</ele>
        <time>2020-08-09T06:36:31.000Z</time>
      </trkpt>
      <trkpt lat="42.2528146393597126007080078125" lon="2.4679474532604217529296875">
        <ele>539</ele>
        <time>2020-08-09T06:36:35.000Z</time>
      </trkpt>
      <trkpt lat="42.2528236918151378631591796875" lon="2.46792021207511425018310546875">
        <ele>539.20001220703125</ele>
        <time>2020-08-09T06:36:37.000Z</time>
      </trkpt>
      <trkpt lat="42.25283115170896053314208984375" lon="2.46790789067745208740234375">
        <ele>539.4000244140625</ele>
        <time>2020-08-09T06:36:38.000Z</time>
      </trkpt>
      <trkpt lat="42.25284975953400135040283203125" lon="2.4678487144410610198974609375">
        <ele>540.20001220703125</ele>
        <time>2020-08-09T06:36:42.000Z</time>
      </trkpt>
      <trkpt lat="42.25284724496304988861083984375" lon="2.4678321182727813720703125">
        <ele>540.4000244140625</ele>
        <time>2020-08-09T06:36:43.000Z</time>
      </trkpt>
      <trkpt lat="42.25284389220178127288818359375" lon="2.467816360294818878173828125">
        <ele>540.5999755859375</ele>
        <time>2020-08-09T06:36:44.000Z</time>
      </trkpt>
      <trkpt lat="42.25284397602081298828125" lon="2.467801272869110107421875">
        <ele>540.79998779296875</ele>
        <time>2020-08-09T06:36:45.000Z</time>
      </trkpt>
      <trkpt lat="42.2528640925884246826171875" lon="2.46774234808981418609619140625">
        <ele>541.5999755859375</ele>
        <time>2020-08-09T06:36:49.000Z</time>
      </trkpt>
      <trkpt lat="42.25286534987390041351318359375" lon="2.467727176845073699951171875">
        <ele>541.79998779296875</ele>
        <time>2020-08-09T06:36:50.000Z</time>
      </trkpt>
      <trkpt lat="42.252863757312297821044921875" lon="2.4677115865051746368408203125">
        <ele>541.79998779296875</ele>
        <time>2020-08-09T06:36:51.000Z</time>
      </trkpt>
      <trkpt lat="42.25286786444485187530517578125" lon="2.467633970081806182861328125">
        <ele>542.79998779296875</ele>
        <time>2020-08-09T06:36:56.000Z</time>
      </trkpt>
      <trkpt lat="42.25286987610161304473876953125" lon="2.4675345607101917266845703125">
        <ele>543.5999755859375</ele>
        <time>2020-08-09T06:37:02.000Z</time>
      </trkpt>
      <trkpt lat="42.25286342203617095947265625" lon="2.46748468838632106781005859375">
        <ele>544.20001220703125</ele>
        <time>2020-08-09T06:37:05.000Z</time>
      </trkpt>
      <trkpt lat="42.252869121730327606201171875" lon="2.4674185551702976226806640625">
        <ele>544.79998779296875</ele>
        <time>2020-08-09T06:37:09.000Z</time>
      </trkpt>
      <trkpt lat="42.25287322886288166046142578125" lon="2.467370443046092987060546875">
        <ele>545.4000244140625</ele>
        <time>2020-08-09T06:37:12.000Z</time>
      </trkpt>
      <trkpt lat="42.25287071429193019866943359375" lon="2.46735141612589359283447265625">
        <ele>545.5999755859375</ele>
        <time>2020-08-09T06:37:13.000Z</time>
      </trkpt>
      <trkpt lat="42.2528531961143016815185546875" lon="2.46730330400168895721435546875">
        <ele>546.20001220703125</ele>
        <time>2020-08-09T06:37:16.000Z</time>
      </trkpt>
      <trkpt lat="42.252853028476238250732421875" lon="2.46727061457931995391845703125">
        <ele>546.5999755859375</ele>
        <time>2020-08-09T06:37:18.000Z</time>
      </trkpt>
      <trkpt lat="42.2528485022485256195068359375" lon="2.46720724739134311676025390625">
        <ele>547.4000244140625</ele>
        <time>2020-08-09T06:37:22.000Z</time>
      </trkpt>
      <trkpt lat="42.25284892134368419647216796875" lon="2.4671898968517780303955078125">
        <ele>547.5999755859375</ele>
        <time>2020-08-09T06:37:23.000Z</time>
      </trkpt>
      <trkpt lat="42.2528454847633838653564453125" lon="2.467174641788005828857421875">
        <ele>547.5999755859375</ele>
        <time>2020-08-09T06:37:24.000Z</time>
      </trkpt>
      <trkpt lat="42.252841629087924957275390625" lon="2.46711219660937786102294921875">
        <ele>548.79998779296875</ele>
        <time>2020-08-09T06:37:28.000Z</time>
      </trkpt>
      <trkpt lat="42.25284389220178127288818359375" lon="2.46709526516497135162353515625">
        <ele>549</ele>
        <time>2020-08-09T06:37:29.000Z</time>
      </trkpt>
      <trkpt lat="42.25284338928759098052978515625" lon="2.46707699261605739593505859375">
        <ele>549.20001220703125</ele>
        <time>2020-08-09T06:37:30.000Z</time>
      </trkpt>
      <trkpt lat="42.25282545201480388641357421875" lon="2.4670101888477802276611328125">
        <ele>549.79998779296875</ele>
        <time>2020-08-09T06:37:34.000Z</time>
      </trkpt>
      <trkpt lat="42.2528350912034511566162109375" lon="2.466959059238433837890625">
        <ele>550.5999755859375</ele>
        <time>2020-08-09T06:37:37.000Z</time>
      </trkpt>
      <trkpt lat="42.25283768959343433380126953125" lon="2.46692460961639881134033203125">
        <ele>550.79998779296875</ele>
        <time>2020-08-09T06:37:39.000Z</time>
      </trkpt>
      <trkpt lat="42.25282696075737476348876953125" lon="2.46688471175730228424072265625">
        <ele>551.20001220703125</ele>
        <time>2020-08-09T06:37:41.000Z</time>
      </trkpt>
      <trkpt lat="42.25280868820846080780029296875" lon="2.46683224104344844818115234375">
        <ele>551.79998779296875</ele>
        <time>2020-08-09T06:37:44.000Z</time>
      </trkpt>
      <trkpt lat="42.25280952639877796173095703125" lon="2.4668160639703273773193359375">
        <ele>552</ele>
        <time>2020-08-09T06:37:45.000Z</time>
      </trkpt>
      <trkpt lat="42.25282344035804271697998046875" lon="2.46678865514695644378662109375">
        <ele>552.4000244140625</ele>
        <time>2020-08-09T06:37:47.000Z</time>
      </trkpt>
      <trkpt lat="42.25283517502248287200927734375" lon="2.46675998903810977935791015625">
        <ele>553</ele>
        <time>2020-08-09T06:37:49.000Z</time>
      </trkpt>
      <trkpt lat="42.252835594117641448974609375" lon="2.46674121357500553131103515625">
        <ele>553.20001220703125</ele>
        <time>2020-08-09T06:37:50.000Z</time>
      </trkpt>
      <trkpt lat="42.25282947532832622528076171875" lon="2.4666900001466274261474609375">
        <ele>553.5999755859375</ele>
        <time>2020-08-09T06:37:53.000Z</time>
      </trkpt>
      <trkpt lat="42.25283014588057994842529296875" lon="2.4666742421686649322509765625">
        <ele>553.79998779296875</ele>
        <time>2020-08-09T06:37:54.000Z</time>
      </trkpt>
      <trkpt lat="42.2528350912034511566162109375" lon="2.4666588194668292999267578125">
        <ele>554</ele>
        <time>2020-08-09T06:37:55.000Z</time>
      </trkpt>
      <trkpt lat="42.2528562135994434356689453125" lon="2.46661934070289134979248046875">
        <ele>554.79998779296875</ele>
        <time>2020-08-09T06:37:58.000Z</time>
      </trkpt>
      <trkpt lat="42.25286073982715606689453125" lon="2.4665880762040615081787109375">
        <ele>555.4000244140625</ele>
        <time>2020-08-09T06:38:00.000Z</time>
      </trkpt>
      <trkpt lat="42.25286300294101238250732421875" lon="2.4665548838675022125244140625">
        <ele>555.79998779296875</ele>
        <time>2020-08-09T06:38:02.000Z</time>
      </trkpt>
      <trkpt lat="42.252872474491596221923828125" lon="2.46652663685381412506103515625">
        <ele>556</ele>
        <time>2020-08-09T06:38:04.000Z</time>
      </trkpt>
      <trkpt lat="42.2528833709657192230224609375" lon="2.46651657857000827789306640625">
        <ele>556.20001220703125</ele>
        <time>2020-08-09T06:38:05.000Z</time>
      </trkpt>
      <trkpt lat="42.25291111506521701812744140625" lon="2.4665089510381221771240234375">
        <ele>556.4000244140625</ele>
        <time>2020-08-09T06:38:07.000Z</time>
      </trkpt>
      <trkpt lat="42.2529472410678863525390625" lon="2.46648908592760562896728515625">
        <ele>557.20001220703125</ele>
        <time>2020-08-09T06:38:10.000Z</time>
      </trkpt>
      <trkpt lat="42.252953946590423583984375" lon="2.46647466905415058135986328125">
        <ele>557.5999755859375</ele>
        <time>2020-08-09T06:38:11.000Z</time>
      </trkpt>
      <trkpt lat="42.25299417972564697265625" lon="2.4664132297039031982421875">
        <ele>558.5999755859375</ele>
        <time>2020-08-09T06:38:16.000Z</time>
      </trkpt>
      <trkpt lat="42.253072969615459442138671875" lon="2.4663688056170940399169921875">
        <ele>559.4000244140625</ele>
        <time>2020-08-09T06:38:23.000Z</time>
      </trkpt>
      <trkpt lat="42.25307439453899860382080078125" lon="2.46635212562978267669677734375">
        <ele>559.5999755859375</ele>
        <time>2020-08-09T06:38:24.000Z</time>
      </trkpt>
      <trkpt lat="42.25311152637004852294921875" lon="2.466304600238800048828125">
        <ele>560.79998779296875</ele>
        <time>2020-08-09T06:38:29.000Z</time>
      </trkpt>
      <trkpt lat="42.253186963498592376708984375" lon="2.46631063520908355712890625">
        <ele>561.79998779296875</ele>
        <time>2020-08-09T06:38:36.000Z</time>
      </trkpt>
      <trkpt lat="42.253195010125637054443359375" lon="2.46630183421075344085693359375">
        <ele>562</ele>
        <time>2020-08-09T06:38:37.000Z</time>
      </trkpt>
      <trkpt lat="42.25321286357939243316650390625" lon="2.46628456749022006988525390625">
        <ele>562.4000244140625</ele>
        <time>2020-08-09T06:38:39.000Z</time>
      </trkpt>
      <trkpt lat="42.2532434575259685516357421875" lon="2.4662474356591701507568359375">
        <ele>563.20001220703125</ele>
        <time>2020-08-09T06:38:43.000Z</time>
      </trkpt>
      <trkpt lat="42.2532515041530132293701171875" lon="2.46623913757503032684326171875">
        <ele>563.4000244140625</ele>
        <time>2020-08-09T06:38:44.000Z</time>
      </trkpt>
      <trkpt lat="42.25326768122613430023193359375" lon="2.4662065319716930389404296875">
        <ele>564.20001220703125</ele>
        <time>2020-08-09T06:38:47.000Z</time>
      </trkpt>
      <trkpt lat="42.253282181918621063232421875" lon="2.466168142855167388916015625">
        <ele>564.5999755859375</ele>
        <time>2020-08-09T06:38:51.000Z</time>
      </trkpt>
      <trkpt lat="42.2532836906611919403076171875" lon="2.4661686457693576812744140625">
        <ele>564.79998779296875</ele>
        <time>2020-08-09T06:39:03.000Z</time>
      </trkpt>
      <trkpt lat="42.2532836906611919403076171875" lon="2.46616940014064311981201171875">
        <ele>564.5999755859375</ele>
        <time>2020-08-09T06:39:28.000Z</time>
      </trkpt>
      <trkpt lat="42.25328394211828708648681640625" lon="2.4661696515977382659912109375">
        <ele>565</ele>
        <time>2020-08-09T06:39:52.000Z</time>
      </trkpt>
      <trkpt lat="42.25328377448022365570068359375" lon="2.46616981923580169677734375">
        <ele>564.79998779296875</ele>
        <time>2020-08-09T06:40:06.000Z</time>
      </trkpt>
      <trkpt lat="42.25328377448022365570068359375" lon="2.46617124415934085845947265625">
        <ele>565</ele>
        <time>2020-08-09T06:40:39.000Z</time>
      </trkpt>
      <trkpt lat="42.25328394211828708648681640625" lon="2.46617124415934085845947265625">
        <ele>564.79998779296875</ele>
        <time>2020-08-09T06:41:01.000Z</time>
      </trkpt>
      <trkpt lat="42.25329416804015636444091796875" lon="2.4661508761346340179443359375">
        <ele>565</ele>
        <time>2020-08-09T06:41:14.000Z</time>
      </trkpt>
      <trkpt lat="42.25333440117537975311279296875" lon="2.4660725891590118408203125">
        <ele>565.4000244140625</ele>
        <time>2020-08-09T06:41:21.000Z</time>
      </trkpt>
      <trkpt lat="42.25334814749658107757568359375" lon="2.46597225777804851531982421875">
        <ele>566.5999755859375</ele>
        <time>2020-08-09T06:41:29.000Z</time>
      </trkpt>
      <trkpt lat="42.253352589905261993408203125" lon="2.4659601040184497833251953125">
        <ele>566.5999755859375</ele>
        <time>2020-08-09T06:41:30.000Z</time>
      </trkpt>
      <trkpt lat="42.253368012607097625732421875" lon="2.46585994027554988861083984375">
        <ele>567.4000244140625</ele>
        <time>2020-08-09T06:41:37.000Z</time>
      </trkpt>
      <trkpt lat="42.25337279029190540313720703125" lon="2.4658313579857349395751953125">
        <ele>567.5999755859375</ele>
        <time>2020-08-09T06:41:39.000Z</time>
      </trkpt>
      <trkpt lat="42.253374718129634857177734375" lon="2.46574779041111469268798828125">
        <ele>568</ele>
        <time>2020-08-09T06:41:44.000Z</time>
      </trkpt>
      <trkpt lat="42.2533844411373138427734375" lon="2.46567897498607635498046875">
        <ele>568.5999755859375</ele>
        <time>2020-08-09T06:41:49.000Z</time>
      </trkpt>
      <trkpt lat="42.25338670425117015838623046875" lon="2.46566564776003360748291015625">
        <ele>568.79998779296875</ele>
        <time>2020-08-09T06:41:50.000Z</time>
      </trkpt>
      <trkpt lat="42.2533856146037578582763671875" lon="2.4655648134648799896240234375">
        <ele>569.79998779296875</ele>
        <time>2020-08-09T06:41:57.000Z</time>
      </trkpt>
      <trkpt lat="42.25338368676602840423583984375" lon="2.4655369855463504791259765625">
        <ele>569.79998779296875</ele>
        <time>2020-08-09T06:41:59.000Z</time>
      </trkpt>
      <trkpt lat="42.25338385440409183502197265625" lon="2.46550203301012516021728515625">
        <ele>570.20001220703125</ele>
        <time>2020-08-09T06:42:02.000Z</time>
      </trkpt>
      <trkpt lat="42.253386788070201873779296875" lon="2.46544453315436840057373046875">
        <ele>570.79998779296875</ele>
        <time>2020-08-09T06:42:07.000Z</time>
      </trkpt>
      <trkpt lat="42.2533871233463287353515625" lon="2.46543011628091335296630859375">
        <ele>571</ele>
        <time>2020-08-09T06:42:08.000Z</time>
      </trkpt>
      <trkpt lat="42.2533846087753772735595703125" lon="2.46540396474301815032958984375">
        <ele>571.20001220703125</ele>
        <time>2020-08-09T06:42:10.000Z</time>
      </trkpt>
      <trkpt lat="42.2533812560141086578369140625" lon="2.465368174016475677490234375">
        <ele>571.79998779296875</ele>
        <time>2020-08-09T06:42:13.000Z</time>
      </trkpt>
      <trkpt lat="42.25337429903447628021240234375" lon="2.4653371609747409820556640625">
        <ele>571.79998779296875</ele>
        <time>2020-08-09T06:42:15.000Z</time>
      </trkpt>
      <trkpt lat="42.253372371196746826171875" lon="2.4653214029967784881591796875">
        <ele>572.20001220703125</ele>
        <time>2020-08-09T06:42:16.000Z</time>
      </trkpt>
      <trkpt lat="42.25337170064449310302734375" lon="2.46525141410529613494873046875">
        <ele>573.20001220703125</ele>
        <time>2020-08-09T06:42:21.000Z</time>
      </trkpt>
      <trkpt lat="42.253374047577381134033203125" lon="2.46521520428359508514404296875">
        <ele>573.4000244140625</ele>
        <time>2020-08-09T06:42:23.000Z</time>
      </trkpt>
      <trkpt lat="42.25339374504983425140380859375" lon="2.46512099169194698333740234375">
        <ele>574.20001220703125</ele>
        <time>2020-08-09T06:42:29.000Z</time>
      </trkpt>
      <trkpt lat="42.253416962921619415283203125" lon="2.46509131975471973419189453125">
        <ele>574.4000244140625</ele>
        <time>2020-08-09T06:42:32.000Z</time>
      </trkpt>
      <trkpt lat="42.253448478877544403076171875" lon="2.4650184810161590576171875">
        <ele>575.4000244140625</ele>
        <time>2020-08-09T06:42:37.000Z</time>
      </trkpt>
      <trkpt lat="42.25345577113330364227294921875" lon="2.465001046657562255859375">
        <ele>575.5999755859375</ele>
        <time>2020-08-09T06:42:38.000Z</time>
      </trkpt>
      <trkpt lat="42.25349617190659046173095703125" lon="2.46495218016207218170166015625">
        <ele>576</ele>
        <time>2020-08-09T06:42:42.000Z</time>
      </trkpt>
      <trkpt lat="42.2535069845616817474365234375" lon="2.464923597872257232666015625">
        <ele>576.20001220703125</ele>
        <time>2020-08-09T06:42:44.000Z</time>
      </trkpt>
      <trkpt lat="42.25352517329156398773193359375" lon="2.4648872204124927520751953125">
        <ele>576.79998779296875</ele>
        <time>2020-08-09T06:42:47.000Z</time>
      </trkpt>
      <trkpt lat="42.2535452060401439666748046875" lon="2.46486718766391277313232421875">
        <ele>577.20001220703125</ele>
        <time>2020-08-09T06:42:49.000Z</time>
      </trkpt>
      <trkpt lat="42.25357177667319774627685546875" lon="2.4648409523069858551025390625">
        <ele>577.5999755859375</ele>
        <time>2020-08-09T06:42:52.000Z</time>
      </trkpt>
      <trkpt lat="42.25358116440474987030029296875" lon="2.46481656096875667572021484375">
        <ele>577.79998779296875</ele>
        <time>2020-08-09T06:42:54.000Z</time>
      </trkpt>
      <trkpt lat="42.253592647612094879150390625" lon="2.46479124762117862701416015625">
        <ele>578.20001220703125</ele>
        <time>2020-08-09T06:42:56.000Z</time>
      </trkpt>
      <trkpt lat="42.25363028235733509063720703125" lon="2.4647462368011474609375">
        <ele>579</ele>
        <time>2020-08-09T06:43:00.000Z</time>
      </trkpt>
      <trkpt lat="42.253648974001407623291015625" lon="2.46471337974071502685546875">
        <ele>579.5999755859375</ele>
        <time>2020-08-09T06:43:03.000Z</time>
      </trkpt>
      <trkpt lat="42.25366045720875263214111328125" lon="2.46469217352569103240966796875">
        <ele>580</ele>
        <time>2020-08-09T06:43:05.000Z</time>
      </trkpt>
      <trkpt lat="42.25367872975766658782958984375" lon="2.464625872671604156494140625">
        <ele>581.20001220703125</ele>
        <time>2020-08-09T06:43:10.000Z</time>
      </trkpt>
      <trkpt lat="42.25371477194130420684814453125" lon="2.46458639390766620635986328125">
        <ele>582.20001220703125</ele>
        <time>2020-08-09T06:43:14.000Z</time>
      </trkpt>
      <trkpt lat="42.253727428615093231201171875" lon="2.464564852416515350341796875">
        <ele>582.4000244140625</ele>
        <time>2020-08-09T06:43:16.000Z</time>
      </trkpt>
      <trkpt lat="42.253734134137630462646484375" lon="2.4645517766475677490234375">
        <ele>582.5999755859375</ele>
        <time>2020-08-09T06:43:17.000Z</time>
      </trkpt>
      <trkpt lat="42.253749556839466094970703125" lon="2.4645207636058330535888671875">
        <ele>583.20001220703125</ele>
        <time>2020-08-09T06:43:20.000Z</time>
      </trkpt>
      <trkpt lat="42.25375601090490818023681640625" lon="2.46451129205524921417236328125">
        <ele>583.4000244140625</ele>
        <time>2020-08-09T06:43:21.000Z</time>
      </trkpt>
      <trkpt lat="42.25377134978771209716796875" lon="2.464490421116352081298828125">
        <ele>584</ele>
        <time>2020-08-09T06:43:23.000Z</time>
      </trkpt>
      <trkpt lat="42.25377562455832958221435546875" lon="2.4644785188138484954833984375">
        <ele>584</ele>
        <time>2020-08-09T06:43:24.000Z</time>
      </trkpt>
      <trkpt lat="42.25378585048019886016845703125" lon="2.46445328928530216217041015625">
        <ele>584.4000244140625</ele>
        <time>2020-08-09T06:43:26.000Z</time>
      </trkpt>
      <trkpt lat="42.2537966631352901458740234375" lon="2.46442906558513641357421875">
        <ele>584.79998779296875</ele>
        <time>2020-08-09T06:43:28.000Z</time>
      </trkpt>
      <trkpt lat="42.2538228146731853485107421875" lon="2.46439679525792598724365234375">
        <ele>585.4000244140625</ele>
        <time>2020-08-09T06:43:31.000Z</time>
      </trkpt>
      <trkpt lat="42.25383915938436985015869140625" lon="2.46436310000717639923095703125">
        <ele>586</ele>
        <time>2020-08-09T06:43:34.000Z</time>
      </trkpt>
      <trkpt lat="42.25384016521275043487548828125" lon="2.4643345177173614501953125">
        <ele>586.5999755859375</ele>
        <time>2020-08-09T06:43:36.000Z</time>
      </trkpt>
      <trkpt lat="42.25384167395532131195068359375" lon="2.46426721103489398956298828125">
        <ele>587.5999755859375</ele>
        <time>2020-08-09T06:43:41.000Z</time>
      </trkpt>
      <trkpt lat="42.25388039834797382354736328125" lon="2.464181296527385711669921875">
        <ele>589</ele>
        <time>2020-08-09T06:43:48.000Z</time>
      </trkpt>
      <trkpt lat="42.25391794927418231964111328125" lon="2.4641201086342334747314453125">
        <ele>590</ele>
        <time>2020-08-09T06:43:53.000Z</time>
      </trkpt>
      <trkpt lat="42.25392415188252925872802734375" lon="2.464108206331729888916015625">
        <ele>590.20001220703125</ele>
        <time>2020-08-09T06:43:54.000Z</time>
      </trkpt>
      <trkpt lat="42.25394837558269500732421875" lon="2.46407375670969486236572265625">
        <ele>591.20001220703125</ele>
        <time>2020-08-09T06:43:57.000Z</time>
      </trkpt>
      <trkpt lat="42.25397025234997272491455078125" lon="2.46405866928398609161376953125">
        <ele>591.4000244140625</ele>
        <time>2020-08-09T06:43:59.000Z</time>
      </trkpt>
      <trkpt lat="42.25403848104178905487060546875" lon="2.46404978446662425994873046875">
        <ele>592.4000244140625</ele>
        <time>2020-08-09T06:44:05.000Z</time>
      </trkpt>
      <trkpt lat="42.25405993871390819549560546875" lon="2.46405967511236667633056640625">
        <ele>592.4000244140625</ele>
        <time>2020-08-09T06:44:07.000Z</time>
      </trkpt>
      <trkpt lat="42.25410402752459049224853515625" lon="2.46406788937747478485107421875">
        <ele>593</ele>
        <time>2020-08-09T06:44:11.000Z</time>
      </trkpt>
      <trkpt lat="42.2541141696274280548095703125" lon="2.46407660655677318572998046875">
        <ele>593.20001220703125</ele>
        <time>2020-08-09T06:44:12.000Z</time>
      </trkpt>
      <trkpt lat="42.25412263534963130950927734375" lon="2.4640852399170398712158203125">
        <ele>593.4000244140625</ele>
        <time>2020-08-09T06:44:13.000Z</time>
      </trkpt>
      <trkpt lat="42.25413286127150058746337890625" lon="2.4641261436045169830322265625">
        <ele>594</ele>
        <time>2020-08-09T06:44:16.000Z</time>
      </trkpt>
      <trkpt lat="42.254140488803386688232421875" lon="2.46415615081787109375">
        <ele>594.20001220703125</ele>
        <time>2020-08-09T06:44:18.000Z</time>
      </trkpt>
      <trkpt lat="42.25414761342108249664306640625" lon="2.46416880749166011810302734375">
        <ele>594.4000244140625</ele>
        <time>2020-08-09T06:44:19.000Z</time>
      </trkpt>
      <trkpt lat="42.25418399088084697723388671875" lon="2.4642079509794712066650390625">
        <ele>595.20001220703125</ele>
        <time>2020-08-09T06:44:23.000Z</time>
      </trkpt>
      <trkpt lat="42.2542170993983745574951171875" lon="2.464252375066280364990234375">
        <ele>595.79998779296875</ele>
        <time>2020-08-09T06:44:27.000Z</time>
      </trkpt>
      <trkpt lat="42.25423545576632022857666015625" lon="2.4642755091190338134765625">
        <ele>596.20001220703125</ele>
        <time>2020-08-09T06:44:29.000Z</time>
      </trkpt>
      <trkpt lat="42.2542935423552989959716796875" lon="2.4642984755337238311767578125">
        <ele>597.4000244140625</ele>
        <time>2020-08-09T06:44:34.000Z</time>
      </trkpt>
      <trkpt lat="42.25433687679469585418701171875" lon="2.46431632898747920989990234375">
        <ele>598.4000244140625</ele>
        <time>2020-08-09T06:44:38.000Z</time>
      </trkpt>
      <trkpt lat="42.254391610622406005859375" lon="2.46434030123054981231689453125">
        <ele>599.4000244140625</ele>
        <time>2020-08-09T06:44:43.000Z</time>
      </trkpt>
      <trkpt lat="42.25439521484076976776123046875" lon="2.4643413908779621124267578125">
        <ele>599.4000244140625</ele>
        <time>2020-08-09T06:44:44.000Z</time>
      </trkpt>
      <trkpt lat="42.254395969212055206298828125" lon="2.4643373675644397735595703125">
        <ele>599.79998779296875</ele>
        <time>2020-08-09T06:44:49.000Z</time>
      </trkpt>
      <trkpt lat="42.254423461854457855224609375" lon="2.46427140198647975921630859375">
        <ele>600.20001220703125</ele>
        <time>2020-08-09T06:49:00.000Z</time>
      </trkpt>
      <trkpt lat="42.2544457577168941497802734375" lon="2.46422924101352691650390625">
        <ele>600.4000244140625</ele>
        <time>2020-08-09T06:49:06.000Z</time>
      </trkpt>
      <trkpt lat="42.25452446378767490386962890625" lon="2.4642030894756317138671875">
        <ele>601.20001220703125</ele>
        <time>2020-08-09T06:49:13.000Z</time>
      </trkpt>
      <trkpt lat="42.25453318096697330474853515625" lon="2.46419479139149188995361328125">
        <ele>601.20001220703125</ele>
        <time>2020-08-09T06:49:14.000Z</time>
      </trkpt>
      <trkpt lat="42.25455832667648792266845703125" lon="2.46416411362588405609130859375">
        <ele>601.79998779296875</ele>
        <time>2020-08-09T06:49:17.000Z</time>
      </trkpt>
      <trkpt lat="42.2545708157122135162353515625" lon="2.4641368724405765533447265625">
        <ele>602</ele>
        <time>2020-08-09T06:49:19.000Z</time>
      </trkpt>
      <trkpt lat="42.25458062253892421722412109375" lon="2.46412731707096099853515625">
        <ele>602.20001220703125</ele>
        <time>2020-08-09T06:49:20.000Z</time>
      </trkpt>
      <trkpt lat="42.25462571717798709869384765625" lon="2.464105524122714996337890625">
        <ele>602.5999755859375</ele>
        <time>2020-08-09T06:49:24.000Z</time>
      </trkpt>
      <trkpt lat="42.25464767776429653167724609375" lon="2.46408850885927677154541015625">
        <ele>603</ele>
        <time>2020-08-09T06:49:26.000Z</time>
      </trkpt>
      <trkpt lat="42.2546713985502719879150390625" lon="2.46406855992972850799560546875">
        <ele>603.20001220703125</ele>
        <time>2020-08-09T06:49:28.000Z</time>
      </trkpt>
      <trkpt lat="42.25472261197865009307861328125" lon="2.46401877142488956451416015625">
        <ele>604.20001220703125</ele>
        <time>2020-08-09T06:49:33.000Z</time>
      </trkpt>
      <trkpt lat="42.25475932471454143524169921875" lon="2.46400083415210247039794921875">
        <ele>604.5999755859375</ele>
        <time>2020-08-09T06:49:36.000Z</time>
      </trkpt>
      <trkpt lat="42.2547716461122035980224609375" lon="2.46399597264826297760009765625">
        <ele>604.79998779296875</ele>
        <time>2020-08-09T06:49:37.000Z</time>
      </trkpt>
      <trkpt lat="42.25481933914124965667724609375" lon="2.4639558233320713043212890625">
        <ele>605.20001220703125</ele>
        <time>2020-08-09T06:49:41.000Z</time>
      </trkpt>
      <trkpt lat="42.25485286675393581390380859375" lon="2.463921792805194854736328125">
        <ele>605.5999755859375</ele>
        <time>2020-08-09T06:49:44.000Z</time>
      </trkpt>
      <trkpt lat="42.25494171492755413055419921875" lon="2.4638294242322444915771484375">
        <ele>606.20001220703125</ele>
        <time>2020-08-09T06:49:52.000Z</time>
      </trkpt>
      <trkpt lat="42.2549553774297237396240234375" lon="2.46382582001388072967529296875">
        <ele>606.4000244140625</ele>
        <time>2020-08-09T06:49:53.000Z</time>
      </trkpt>
      <trkpt lat="42.2550231032073497772216796875" lon="2.46376379393041133880615234375">
        <ele>607</ele>
        <time>2020-08-09T06:49:59.000Z</time>
      </trkpt>
      <trkpt lat="42.2550930082798004150390625" lon="2.4637157656252384185791015625">
        <ele>607.4000244140625</ele>
        <time>2020-08-09T06:50:05.000Z</time>
      </trkpt>
      <trkpt lat="42.255178503692150115966796875" lon="2.463617362082004547119140625">
        <ele>608.20001220703125</ele>
        <time>2020-08-09T06:50:14.000Z</time>
      </trkpt>
      <trkpt lat="42.2551890648901462554931640625" lon="2.46361124329268932342529296875">
        <ele>608.4000244140625</ele>
        <time>2020-08-09T06:50:19.000Z</time>
      </trkpt>
      <trkpt lat="42.25519015453755855560302734375" lon="2.4636098183691501617431640625">
        <ele>608.5999755859375</ele>
        <time>2020-08-09T06:50:41.000Z</time>
      </trkpt>
      <trkpt lat="42.25520859472453594207763671875" lon="2.46360562741756439208984375">
        <ele>608.4000244140625</ele>
        <time>2020-08-09T06:50:46.000Z</time>
      </trkpt>
      <trkpt lat="42.25521882064640522003173828125" lon="2.46360437013208866119384765625">
        <ele>608.5999755859375</ele>
        <time>2020-08-09T06:50:47.000Z</time>
      </trkpt>
      <trkpt lat="42.2552507556974887847900390625" lon="2.46358215808868408203125">
        <ele>608.5999755859375</ele>
        <time>2020-08-09T06:50:50.000Z</time>
      </trkpt>
      <trkpt lat="42.255271039903163909912109375" lon="2.4635726027190685272216796875">
        <ele>608.5999755859375</ele>
        <time>2020-08-09T06:50:52.000Z</time>
      </trkpt>
      <trkpt lat="42.25534622557461261749267578125" lon="2.4635016918182373046875">
        <ele>608.79998779296875</ele>
        <time>2020-08-09T06:50:58.000Z</time>
      </trkpt>
      <trkpt lat="42.25541328079998493194580078125" lon="2.4633930623531341552734375">
        <ele>608.4000244140625</ele>
        <time>2020-08-09T06:51:03.000Z</time>
      </trkpt>
      <trkpt lat="42.2554981894791126251220703125" lon="2.46328954584896564483642578125">
        <ele>607.79998779296875</ele>
        <time>2020-08-09T06:51:07.000Z</time>
      </trkpt>
      <trkpt lat="42.2555221617221832275390625" lon="2.46325987391173839569091796875">
        <ele>607.20001220703125</ele>
        <time>2020-08-09T06:51:09.000Z</time>
      </trkpt>
      <trkpt lat="42.255523167550563812255859375" lon="2.4632537551224231719970703125">
        <ele>607</ele>
        <time>2020-08-09T06:51:10.000Z</time>
      </trkpt>
      <trkpt lat="42.25552626885473728179931640625" lon="2.463229782879352569580078125">
        <ele>606.79998779296875</ele>
        <time>2020-08-09T06:51:18.000Z</time>
      </trkpt>
      <trkpt lat="42.25553247146308422088623046875" lon="2.46321511454880237579345703125">
        <ele>606.79998779296875</ele>
        <time>2020-08-09T06:51:19.000Z</time>
      </trkpt>
      <trkpt lat="42.2555706091225147247314453125" lon="2.46309424750506877899169921875">
        <ele>606.20001220703125</ele>
        <time>2020-08-09T06:51:23.000Z</time>
      </trkpt>
      <trkpt lat="42.25559265352785587310791015625" lon="2.4630546011030673980712890625">
        <ele>606.20001220703125</ele>
        <time>2020-08-09T06:51:24.000Z</time>
      </trkpt>
      <trkpt lat="42.25565803237259387969970703125" lon="2.4629489891231060028076171875">
        <ele>605.79998779296875</ele>
        <time>2020-08-09T06:51:26.000Z</time>
      </trkpt>
      <trkpt lat="42.25569583475589752197265625" lon="2.46288520283997058868408203125">
        <ele>605.20001220703125</ele>
        <time>2020-08-09T06:51:27.000Z</time>
      </trkpt>
      <trkpt lat="42.2557322122156620025634765625" lon="2.46281546540558338165283203125">
        <ele>604.79998779296875</ele>
        <time>2020-08-09T06:51:28.000Z</time>
      </trkpt>
      <trkpt lat="42.25584042258560657501220703125" lon="2.462583370506763458251953125">
        <ele>603.4000244140625</ele>
        <time>2020-08-09T06:51:31.000Z</time>
      </trkpt>
      <trkpt lat="42.25588082335889339447021484375" lon="2.462504915893077850341796875">
        <ele>603.20001220703125</ele>
        <time>2020-08-09T06:51:32.000Z</time>
      </trkpt>
      <trkpt lat="42.2560128383338451385498046875" lon="2.4622757546603679656982421875">
        <ele>602.4000244140625</ele>
        <time>2020-08-09T06:51:35.000Z</time>
      </trkpt>
      <trkpt lat="42.25620470009744167327880859375" lon="2.46197082102298736572265625">
        <ele>601.20001220703125</ele>
        <time>2020-08-09T06:51:39.000Z</time>
      </trkpt>
      <trkpt lat="42.2564299218356609344482421875" lon="2.46170788072049617767333984375">
        <ele>600.20001220703125</ele>
        <time>2020-08-09T06:51:43.000Z</time>
      </trkpt>
      <trkpt lat="42.25647979415953159332275390625" lon="2.46162774972617626190185546875">
        <ele>600</ele>
        <time>2020-08-09T06:51:44.000Z</time>
      </trkpt>
      <trkpt lat="42.2566233761608600616455078125" lon="2.4613540805876255035400390625">
        <ele>598.79998779296875</ele>
        <time>2020-08-09T06:51:47.000Z</time>
      </trkpt>
      <trkpt lat="42.2567098774015903472900390625" lon="2.46115408837795257568359375">
        <ele>597.5999755859375</ele>
        <time>2020-08-09T06:51:49.000Z</time>
      </trkpt>
      <trkpt lat="42.25680283270776271820068359375" lon="2.46095417998731136322021484375">
        <ele>596</ele>
        <time>2020-08-09T06:51:51.000Z</time>
      </trkpt>
      <trkpt lat="42.25690660066902637481689453125" lon="2.4607703648507595062255859375">
        <ele>595</ele>
        <time>2020-08-09T06:51:53.000Z</time>
      </trkpt>
      <trkpt lat="42.25696292705833911895751953125" lon="2.460689730942249298095703125">
        <ele>594.20001220703125</ele>
        <time>2020-08-09T06:51:54.000Z</time>
      </trkpt>
      <trkpt lat="42.2570247016847133636474609375" lon="2.46061705984175205230712890625">
        <ele>593.79998779296875</ele>
        <time>2020-08-09T06:51:55.000Z</time>
      </trkpt>
      <trkpt lat="42.2572360932826995849609375" lon="2.4604451470077037811279296875">
        <ele>592.5999755859375</ele>
        <time>2020-08-09T06:51:58.000Z</time>
      </trkpt>
      <trkpt lat="42.257384955883026123046875" lon="2.460366524755954742431640625">
        <ele>591.5999755859375</ele>
        <time>2020-08-09T06:52:00.000Z</time>
      </trkpt>
      <trkpt lat="42.25746533833444118499755859375" lon="2.46034448035061359405517578125">
        <ele>591.20001220703125</ele>
        <time>2020-08-09T06:52:01.000Z</time>
      </trkpt>
      <trkpt lat="42.257548905909061431884765625" lon="2.46033073402941226959228515625">
        <ele>590.5999755859375</ele>
        <time>2020-08-09T06:52:02.000Z</time>
      </trkpt>
      <trkpt lat="42.25771545432507991790771484375" lon="2.460303492844104766845703125">
        <ele>589.79998779296875</ele>
        <time>2020-08-09T06:52:04.000Z</time>
      </trkpt>
      <trkpt lat="42.25788049399852752685546875" lon="2.46026770211756229400634765625">
        <ele>588.79998779296875</ele>
        <time>2020-08-09T06:52:06.000Z</time>
      </trkpt>
      <trkpt lat="42.2579602897167205810546875" lon="2.460235096514225006103515625">
        <ele>588.5999755859375</ele>
        <time>2020-08-09T06:52:07.000Z</time>
      </trkpt>
      <trkpt lat="42.25817017257213592529296875" lon="2.46005932800471782684326171875">
        <ele>587.4000244140625</ele>
        <time>2020-08-09T06:52:10.000Z</time>
      </trkpt>
      <trkpt lat="42.25823094137012958526611328125" lon="2.45998657308518886566162109375">
        <ele>587</ele>
        <time>2020-08-09T06:52:11.000Z</time>
      </trkpt>
      <trkpt lat="42.2582950629293918609619140625" lon="2.45991549454629421234130859375">
        <ele>586.4000244140625</ele>
        <time>2020-08-09T06:52:12.000Z</time>
      </trkpt>
      <trkpt lat="42.2583626210689544677734375" lon="2.4598540551960468292236328125">
        <ele>586</ele>
        <time>2020-08-09T06:52:13.000Z</time>
      </trkpt>
      <trkpt lat="42.2584918700158596038818359375" lon="2.4597289972007274627685546875">
        <ele>584.4000244140625</ele>
        <time>2020-08-09T06:52:15.000Z</time>
      </trkpt>
      <trkpt lat="42.258591614663600921630859375" lon="2.45959446765482425689697265625">
        <ele>582.5999755859375</ele>
        <time>2020-08-09T06:52:17.000Z</time>
      </trkpt>
      <trkpt lat="42.25863645784556865692138671875" lon="2.459542416036128997802734375">
        <ele>581.5999755859375</ele>
        <time>2020-08-09T06:52:18.000Z</time>
      </trkpt>
      <trkpt lat="42.25867501460015773773193359375" lon="2.45951282791793346405029296875">
        <ele>581</ele>
        <time>2020-08-09T06:52:19.000Z</time>
      </trkpt>
      <trkpt lat="42.2587198577821254730224609375" lon="2.459486424922943115234375">
        <ele>580</ele>
        <time>2020-08-09T06:52:21.000Z</time>
      </trkpt>
      <trkpt lat="42.25872664712369441986083984375" lon="2.459482066333293914794921875">
        <ele>579.5999755859375</ele>
        <time>2020-08-09T06:52:22.000Z</time>
      </trkpt>
      <trkpt lat="42.25872404873371124267578125" lon="2.4594735167920589447021484375">
        <ele>579</ele>
        <time>2020-08-09T06:52:25.000Z</time>
      </trkpt>
      <trkpt lat="42.258723042905330657958984375" lon="2.45947024784982204437255859375">
        <ele>578.79998779296875</ele>
        <time>2020-08-09T06:52:26.000Z</time>
      </trkpt>
      <trkpt lat="42.25872463546693325042724609375" lon="2.4594715051352977752685546875">
        <ele>578.5999755859375</ele>
        <time>2020-08-09T06:52:30.000Z</time>
      </trkpt>
      <trkpt lat="42.25872547365725040435791015625" lon="2.45947058312594890594482421875">
        <ele>578.79998779296875</ele>
        <time>2020-08-09T06:52:43.000Z</time>
      </trkpt>
      <trkpt lat="42.25872564129531383514404296875" lon="2.45946832001209259033203125">
        <ele>578.4000244140625</ele>
        <time>2020-08-09T06:52:52.000Z</time>
      </trkpt>
      <trkpt lat="42.2587248869240283966064453125" lon="2.459463290870189666748046875">
        <ele>578.4000244140625</ele>
        <time>2020-08-09T06:53:00.000Z</time>
      </trkpt>
      <trkpt lat="42.25872815586626529693603515625" lon="2.45946538634598255157470703125">
        <ele>578.20001220703125</ele>
        <time>2020-08-09T06:53:18.000Z</time>
      </trkpt>
      <trkpt lat="42.25880258716642856597900390625" lon="2.45943437330424785614013671875">
        <ele>578.20001220703125</ele>
        <time>2020-08-09T06:53:22.000Z</time>
      </trkpt>
      <trkpt lat="42.258913479745388031005859375" lon="2.45940973050892353057861328125">
        <ele>577.5999755859375</ele>
        <time>2020-08-09T06:53:25.000Z</time>
      </trkpt>
      <trkpt lat="42.25895849056541919708251953125" lon="2.45939497835934162139892578125">
        <ele>577.4000244140625</ele>
        <time>2020-08-09T06:53:26.000Z</time>
      </trkpt>
      <trkpt lat="42.2591174952685832977294921875" lon="2.459349296987056732177734375">
        <ele>576.5999755859375</ele>
        <time>2020-08-09T06:53:29.000Z</time>
      </trkpt>
      <trkpt lat="42.2591791860759258270263671875" lon="2.45934217236936092376708984375">
        <ele>576.4000244140625</ele>
        <time>2020-08-09T06:53:30.000Z</time>
      </trkpt>
      <trkpt lat="42.25931438617408275604248046875" lon="2.459351308643817901611328125">
        <ele>575.5999755859375</ele>
        <time>2020-08-09T06:53:32.000Z</time>
      </trkpt>
      <trkpt lat="42.25938529707491397857666015625" lon="2.4593652226030826568603515625">
        <ele>575.4000244140625</ele>
        <time>2020-08-09T06:53:33.000Z</time>
      </trkpt>
      <trkpt lat="42.2594584710896015167236328125" lon="2.45937385596334934234619140625">
        <ele>575</ele>
        <time>2020-08-09T06:53:34.000Z</time>
      </trkpt>
      <trkpt lat="42.25953483022749423980712890625" lon="2.4593896977603435516357421875">
        <ele>574.4000244140625</ele>
        <time>2020-08-09T06:53:35.000Z</time>
      </trkpt>
      <trkpt lat="42.25976734422147274017333984375" lon="2.459434457123279571533203125">
        <ele>573</ele>
        <time>2020-08-09T06:53:38.000Z</time>
      </trkpt>
      <trkpt lat="42.259913943707942962646484375" lon="2.45943051762878894805908203125">
        <ele>571.4000244140625</ele>
        <time>2020-08-09T06:53:40.000Z</time>
      </trkpt>
      <trkpt lat="42.2600519098341464996337890625" lon="2.4594181962311267852783203125">
        <ele>569.79998779296875</ele>
        <time>2020-08-09T06:53:42.000Z</time>
      </trkpt>
      <trkpt lat="42.2601266764104366302490234375" lon="2.4594242312014102935791015625">
        <ele>569</ele>
        <time>2020-08-09T06:53:43.000Z</time>
      </trkpt>
      <trkpt lat="42.260206304490566253662109375" lon="2.4594406597316265106201171875">
        <ele>568.20001220703125</ele>
        <time>2020-08-09T06:53:44.000Z</time>
      </trkpt>
      <trkpt lat="42.26037771441042423248291015625" lon="2.45950930751860141754150390625">
        <ele>565.79998779296875</ele>
        <time>2020-08-09T06:53:46.000Z</time>
      </trkpt>
      <trkpt lat="42.2604669816792011260986328125" lon="2.4595467746257781982421875">
        <ele>564.4000244140625</ele>
        <time>2020-08-09T06:53:47.000Z</time>
      </trkpt>
      <trkpt lat="42.26055624894797801971435546875" lon="2.4595818109810352325439453125">
        <ele>563.20001220703125</ele>
        <time>2020-08-09T06:53:48.000Z</time>
      </trkpt>
      <trkpt lat="42.26064258255064487457275390625" lon="2.4596136622130870819091796875">
        <ele>562</ele>
        <time>2020-08-09T06:53:49.000Z</time>
      </trkpt>
      <trkpt lat="42.26081005297601222991943359375" lon="2.45966973714530467987060546875">
        <ele>559.79998779296875</ele>
        <time>2020-08-09T06:53:51.000Z</time>
      </trkpt>
      <trkpt lat="42.26088515482842922210693359375" lon="2.4597048573195934295654296875">
        <ele>558.79998779296875</ele>
        <time>2020-08-09T06:53:52.000Z</time>
      </trkpt>
      <trkpt lat="42.26102697663009166717529296875" lon="2.45976730249822139739990234375">
        <ele>556.20001220703125</ele>
        <time>2020-08-09T06:53:54.000Z</time>
      </trkpt>
      <trkpt lat="42.26109235547482967376708984375" lon="2.45978473685681819915771484375">
        <ele>555.4000244140625</ele>
        <time>2020-08-09T06:53:55.000Z</time>
      </trkpt>
      <trkpt lat="42.26115371100604534149169921875" lon="2.45979077182710170745849609375">
        <ele>554.79998779296875</ele>
        <time>2020-08-09T06:53:56.000Z</time>
      </trkpt>
      <trkpt lat="42.26126410067081451416015625" lon="2.45975925587117671966552734375">
        <ele>553.4000244140625</ele>
        <time>2020-08-09T06:53:58.000Z</time>
      </trkpt>
      <trkpt lat="42.26131062023341655731201171875" lon="2.4597239680588245391845703125">
        <ele>553</ele>
        <time>2020-08-09T06:53:59.000Z</time>
      </trkpt>
      <trkpt lat="42.26139418780803680419921875" lon="2.45962866581976413726806640625">
        <ele>552.4000244140625</ele>
        <time>2020-08-09T06:54:01.000Z</time>
      </trkpt>
      <trkpt lat="42.2614627517759799957275390625" lon="2.45954233221709728240966796875">
        <ele>552.20001220703125</ele>
        <time>2020-08-09T06:54:03.000Z</time>
      </trkpt>
      <trkpt lat="42.2615495882928371429443359375" lon="2.4594477005302906036376953125">
        <ele>552.5999755859375</ele>
        <time>2020-08-09T06:54:07.000Z</time>
      </trkpt>
      <trkpt lat="42.26159962825477123260498046875" lon="2.45940235443413257598876953125">
        <ele>553.4000244140625</ele>
        <time>2020-08-09T06:54:10.000Z</time>
      </trkpt>
      <trkpt lat="42.261682860553264617919921875" lon="2.4593508057296276092529296875">
        <ele>554.20001220703125</ele>
        <time>2020-08-09T06:54:15.000Z</time>
      </trkpt>
      <trkpt lat="42.26172745227813720703125" lon="2.45930965058505535125732421875">
        <ele>554.4000244140625</ele>
        <time>2020-08-09T06:54:18.000Z</time>
      </trkpt>
      <trkpt lat="42.2617933340370655059814453125" lon="2.459218539297580718994140625">
        <ele>554.79998779296875</ele>
        <time>2020-08-09T06:54:23.000Z</time>
      </trkpt>
      <trkpt lat="42.26182359270751476287841796875" lon="2.45910488069057464599609375">
        <ele>555.5999755859375</ele>
        <time>2020-08-09T06:54:28.000Z</time>
      </trkpt>
      <trkpt lat="42.26182736456394195556640625" lon="2.45908074080944061279296875">
        <ele>555.5999755859375</ele>
        <time>2020-08-09T06:54:29.000Z</time>
      </trkpt>
      <trkpt lat="42.261835746467113494873046875" lon="2.4588991887867450714111328125">
        <ele>556.20001220703125</ele>
        <time>2020-08-09T06:54:37.000Z</time>
      </trkpt>
      <trkpt lat="42.26184136234223842620849609375" lon="2.45881260372698307037353515625">
        <ele>556.5999755859375</ele>
        <time>2020-08-09T06:54:41.000Z</time>
      </trkpt>
      <trkpt lat="42.2618426196277141571044921875" lon="2.4587707780301570892333984375">
        <ele>557</ele>
        <time>2020-08-09T06:54:43.000Z</time>
      </trkpt>
      <trkpt lat="42.26182811893522739410400390625" lon="2.458605654537677764892578125">
        <ele>557.5999755859375</ele>
        <time>2020-08-09T06:54:51.000Z</time>
      </trkpt>
      <trkpt lat="42.261816300451755523681640625" lon="2.4585411138832569122314453125">
        <ele>557.79998779296875</ele>
        <time>2020-08-09T06:54:54.000Z</time>
      </trkpt>
      <trkpt lat="42.261783443391323089599609375" lon="2.4584576301276683807373046875">
        <ele>558.20001220703125</ele>
        <time>2020-08-09T06:54:58.000Z</time>
      </trkpt>
      <trkpt lat="42.2617168910801410675048828125" lon="2.4583094380795955657958984375">
        <ele>558.79998779296875</ele>
        <time>2020-08-09T06:55:04.000Z</time>
      </trkpt>
      <trkpt lat="42.26170775480568408966064453125" lon="2.45828487910330295562744140625">
        <ele>558.79998779296875</ele>
        <time>2020-08-09T06:55:05.000Z</time>
      </trkpt>
      <trkpt lat="42.26164455525577068328857421875" lon="2.45812361128628253936767578125">
        <ele>559.5999755859375</ele>
        <time>2020-08-09T06:55:12.000Z</time>
      </trkpt>
      <trkpt lat="42.26162896491587162017822265625" lon="2.45808186940848827362060546875">
        <ele>559.79998779296875</ele>
        <time>2020-08-09T06:55:14.000Z</time>
      </trkpt>
      <trkpt lat="42.26159761659801006317138671875" lon="2.45795295573770999908447265625">
        <ele>560.4000244140625</ele>
        <time>2020-08-09T06:55:19.000Z</time>
      </trkpt>
      <trkpt lat="42.26157498545944690704345703125" lon="2.45781180448830127716064453125">
        <ele>560.79998779296875</ele>
        <time>2020-08-09T06:55:24.000Z</time>
      </trkpt>
      <trkpt lat="42.2615559585392475128173828125" lon="2.457573004066944122314453125">
        <ele>560.5999755859375</ele>
        <time>2020-08-09T06:55:31.000Z</time>
      </trkpt>
      <trkpt lat="42.26158998906612396240234375" lon="2.45732791721820831298828125">
        <ele>560.20001220703125</ele>
        <time>2020-08-09T06:55:36.000Z</time>
      </trkpt>
      <trkpt lat="42.2616686113178730010986328125" lon="2.45704988949000835418701171875">
        <ele>559</ele>
        <time>2020-08-09T06:55:40.000Z</time>
      </trkpt>
      <trkpt lat="42.2617232613265514373779296875" lon="2.4568932317197322845458984375">
        <ele>558.4000244140625</ele>
        <time>2020-08-09T06:55:42.000Z</time>
      </trkpt>
      <trkpt lat="42.2617663443088531494140625" lon="2.4566473066806793212890625">
        <ele>557.79998779296875</ele>
        <time>2020-08-09T06:55:45.000Z</time>
      </trkpt>
      <trkpt lat="42.26179375313222408294677734375" lon="2.4562783353030681610107421875">
        <ele>557.4000244140625</ele>
        <time>2020-08-09T06:55:50.000Z</time>
      </trkpt>
      <trkpt lat="42.2618027217686176300048828125" lon="2.456214129924774169921875">
        <ele>557.4000244140625</ele>
        <time>2020-08-09T06:55:51.000Z</time>
      </trkpt>
      <trkpt lat="42.26181395351886749267578125" lon="2.45615403167903423309326171875">
        <ele>557.4000244140625</ele>
        <time>2020-08-09T06:55:52.000Z</time>
      </trkpt>
      <trkpt lat="42.26186332292854785919189453125" lon="2.45592604391276836395263671875">
        <ele>557.4000244140625</ele>
        <time>2020-08-09T06:55:56.000Z</time>
      </trkpt>
      <trkpt lat="42.26187321357429027557373046875" lon="2.45584943331778049468994140625">
        <ele>557.4000244140625</ele>
        <time>2020-08-09T06:55:57.000Z</time>
      </trkpt>
      <trkpt lat="42.26187991909682750701904296875" lon="2.4556788615882396697998046875">
        <ele>557</ele>
        <time>2020-08-09T06:55:59.000Z</time>
      </trkpt>
      <trkpt lat="42.26188343949615955352783203125" lon="2.4555933661758899688720703125">
        <ele>556.5999755859375</ele>
        <time>2020-08-09T06:56:00.000Z</time>
      </trkpt>
      <trkpt lat="42.2619029693305492401123046875" lon="2.45541105978190898895263671875">
        <ele>556</ele>
        <time>2020-08-09T06:56:02.000Z</time>
      </trkpt>
      <trkpt lat="42.26191495545208454132080078125" lon="2.45523185469210147857666015625">
        <ele>555.20001220703125</ele>
        <time>2020-08-09T06:56:04.000Z</time>
      </trkpt>
      <trkpt lat="42.2619200684130191802978515625" lon="2.45513856410980224609375">
        <ele>555</ele>
        <time>2020-08-09T06:56:05.000Z</time>
      </trkpt>
      <trkpt lat="42.2619230858981609344482421875" lon="2.45505516417324542999267578125">
        <ele>554.79998779296875</ele>
        <time>2020-08-09T06:56:06.000Z</time>
      </trkpt>
      <trkpt lat="42.26193373091518878936767578125" lon="2.45497637428343296051025390625">
        <ele>554.79998779296875</ele>
        <time>2020-08-09T06:56:07.000Z</time>
      </trkpt>
      <trkpt lat="42.26195451803505420684814453125" lon="2.4547769688069820404052734375">
        <ele>555</ele>
        <time>2020-08-09T06:56:10.000Z</time>
      </trkpt>
      <trkpt lat="42.26197329349815845489501953125" lon="2.45454244315624237060546875">
        <ele>555.79998779296875</ele>
        <time>2020-08-09T06:56:15.000Z</time>
      </trkpt>
      <trkpt lat="42.26197899319231510162353515625" lon="2.45449961163103580474853515625">
        <ele>555.79998779296875</ele>
        <time>2020-08-09T06:56:16.000Z</time>
      </trkpt>
      <trkpt lat="42.26201956160366535186767578125" lon="2.4542495794594287872314453125">
        <ele>556</ele>
        <time>2020-08-09T06:56:22.000Z</time>
      </trkpt>
      <trkpt lat="42.26202006451785564422607421875" lon="2.4539917521178722381591796875">
        <ele>556.5999755859375</ele>
        <time>2020-08-09T06:56:29.000Z</time>
      </trkpt>
      <trkpt lat="42.26201704703271389007568359375" lon="2.45392796583473682403564453125">
        <ele>557.20001220703125</ele>
        <time>2020-08-09T06:56:31.000Z</time>
      </trkpt>
      <trkpt lat="42.26200782693922519683837890625" lon="2.45381715707480907440185546875">
        <ele>558</ele>
        <time>2020-08-09T06:56:35.000Z</time>
      </trkpt>
      <trkpt lat="42.26200363598763942718505859375" lon="2.45375563390552997589111328125">
        <ele>558.4000244140625</ele>
        <time>2020-08-09T06:56:37.000Z</time>
      </trkpt>
      <trkpt lat="42.26199475117027759552001953125" lon="2.453645579516887664794921875">
        <ele>559</ele>
        <time>2020-08-09T06:56:41.000Z</time>
      </trkpt>
      <trkpt lat="42.2619881294667720794677734375" lon="2.4535682983696460723876953125">
        <ele>559.4000244140625</ele>
        <time>2020-08-09T06:56:44.000Z</time>
      </trkpt>
      <trkpt lat="42.2619854472577571868896484375" lon="2.45351322926580905914306640625">
        <ele>559.5999755859375</ele>
        <time>2020-08-09T06:56:46.000Z</time>
      </trkpt>
      <trkpt lat="42.26198159158229827880859375" lon="2.45332580991089344024658203125">
        <ele>560.20001220703125</ele>
        <time>2020-08-09T06:56:52.000Z</time>
      </trkpt>
      <trkpt lat="42.26202224381268024444580078125" lon="2.45305172167718410491943359375">
        <ele>560.4000244140625</ele>
        <time>2020-08-09T06:57:00.000Z</time>
      </trkpt>
      <trkpt lat="42.26204202510416507720947265625" lon="2.45287234894931316375732421875">
        <ele>560.4000244140625</ele>
        <time>2020-08-09T06:57:05.000Z</time>
      </trkpt>
      <trkpt lat="42.26207421161234378814697265625" lon="2.45258216746151447296142578125">
        <ele>560.5999755859375</ele>
        <time>2020-08-09T06:57:13.000Z</time>
      </trkpt>
      <trkpt lat="42.2620856948196887969970703125" lon="2.45254687964916229248046875">
        <ele>560.5999755859375</ele>
        <time>2020-08-09T06:57:14.000Z</time>
      </trkpt>
      <trkpt lat="42.2621393389999866485595703125" lon="2.45224739424884319305419921875">
        <ele>561</ele>
        <time>2020-08-09T06:57:22.000Z</time>
      </trkpt>
      <trkpt lat="42.26216624490916728973388671875" lon="2.4519748985767364501953125">
        <ele>561.4000244140625</ele>
        <time>2020-08-09T06:57:29.000Z</time>
      </trkpt>
      <trkpt lat="42.26218954659998416900634765625" lon="2.45176761411130428314208984375">
        <ele>562</ele>
        <time>2020-08-09T06:57:35.000Z</time>
      </trkpt>
      <trkpt lat="42.26220899261534214019775390625" lon="2.4516703002154827117919921875">
        <ele>562.20001220703125</ele>
        <time>2020-08-09T06:57:38.000Z</time>
      </trkpt>
      <trkpt lat="42.262225337326526641845703125" lon="2.4515432305634021759033203125">
        <ele>562.79998779296875</ele>
        <time>2020-08-09T06:57:42.000Z</time>
      </trkpt>
      <trkpt lat="42.2623156942427158355712890625" lon="2.45126402936875820159912109375">
        <ele>562.79998779296875</ele>
        <time>2020-08-09T06:57:50.000Z</time>
      </trkpt>
      <trkpt lat="42.2624266706407070159912109375" lon="2.450998239219188690185546875">
        <ele>562.20001220703125</ele>
        <time>2020-08-09T06:57:56.000Z</time>
      </trkpt>
      <trkpt lat="42.26248593069612979888916015625" lon="2.45083185844123363494873046875">
        <ele>561.79998779296875</ele>
        <time>2020-08-09T06:57:59.000Z</time>
      </trkpt>
      <trkpt lat="42.2625468671321868896484375" lon="2.45061811991035938262939453125">
        <ele>561.5999755859375</ele>
        <time>2020-08-09T06:58:03.000Z</time>
      </trkpt>
      <trkpt lat="42.262588441371917724609375" lon="2.45048434473574161529541015625">
        <ele>561.20001220703125</ele>
        <time>2020-08-09T06:58:06.000Z</time>
      </trkpt>
      <trkpt lat="42.2626496292650699615478515625" lon="2.45032307691872119903564453125">
        <ele>561.20001220703125</ele>
        <time>2020-08-09T06:58:10.000Z</time>
      </trkpt>
      <trkpt lat="42.2627096436917781829833984375" lon="2.4500529281795024871826171875">
        <ele>561.4000244140625</ele>
        <time>2020-08-09T06:58:17.000Z</time>
      </trkpt>
      <trkpt lat="42.2627884335815906524658203125" lon="2.44969946332275867462158203125">
        <ele>562.20001220703125</ele>
        <time>2020-08-09T06:58:27.000Z</time>
      </trkpt>
      <trkpt lat="42.262852974236011505126953125" lon="2.449424453079700469970703125">
        <ele>562.4000244140625</ele>
        <time>2020-08-09T06:58:35.000Z</time>
      </trkpt>
      <trkpt lat="42.2628611885011196136474609375" lon="2.449388243257999420166015625">
        <ele>562.5999755859375</ele>
        <time>2020-08-09T06:58:36.000Z</time>
      </trkpt>
      <trkpt lat="42.2629242204129695892333984375" lon="2.44910988025367259979248046875">
        <ele>562.5999755859375</ele>
        <time>2020-08-09T06:58:44.000Z</time>
      </trkpt>
      <trkpt lat="42.2629778645932674407958984375" lon="2.4489897675812244415283203125">
        <ele>562.5999755859375</ele>
        <time>2020-08-09T06:58:48.000Z</time>
      </trkpt>
      <trkpt lat="42.26303829811513423919677734375" lon="2.44896085001528263092041015625">
        <ele>562.5999755859375</ele>
        <time>2020-08-09T06:58:50.000Z</time>
      </trkpt>
      <trkpt lat="42.2631367854773998260498046875" lon="2.4490003287792205810546875">
        <ele>562.4000244140625</ele>
        <time>2020-08-09T06:58:53.000Z</time>
      </trkpt>
      <trkpt lat="42.26322907023131847381591796875" lon="2.44909512810409069061279296875">
        <ele>562.5999755859375</ele>
        <time>2020-08-09T06:58:58.000Z</time>
      </trkpt>
      <trkpt lat="42.2632913477718830108642578125" lon="2.4491292424499988555908203125">
        <ele>562.79998779296875</ele>
        <time>2020-08-09T06:59:03.000Z</time>
      </trkpt>
      <trkpt lat="42.2632898390293121337890625" lon="2.4491359479725360870361328125">
        <ele>563</ele>
        <time>2020-08-09T06:59:19.000Z</time>
      </trkpt>
      <trkpt lat="42.26328782737255096435546875" lon="2.4491371214389801025390625">
        <ele>563.20001220703125</ele>
        <time>2020-08-09T06:59:27.000Z</time>
      </trkpt>
      <trkpt lat="42.26328648626804351806640625" lon="2.4491406418383121490478515625">
        <ele>563</ele>
        <time>2020-08-09T06:59:38.000Z</time>
      </trkpt>
      <trkpt lat="42.26329545490443706512451171875" lon="2.44913837872445583343505859375">
        <ele>562.79998779296875</ele>
        <time>2020-08-09T06:59:44.000Z</time>
      </trkpt>
      <trkpt lat="42.26332378573715686798095703125" lon="2.449118681252002716064453125">
        <ele>562.79998779296875</ele>
        <time>2020-08-09T06:59:46.000Z</time>
      </trkpt>
      <trkpt lat="42.26337231695652008056640625" lon="2.44905464351177215576171875">
        <ele>563</ele>
        <time>2020-08-09T06:59:49.000Z</time>
      </trkpt>
      <trkpt lat="42.2634105384349822998046875" lon="2.44896990247070789337158203125">
        <ele>563.20001220703125</ele>
        <time>2020-08-09T06:59:52.000Z</time>
      </trkpt>
      <trkpt lat="42.263451106846332550048828125" lon="2.44884769432246685028076171875">
        <ele>563.5999755859375</ele>
        <time>2020-08-09T06:59:56.000Z</time>
      </trkpt>
      <trkpt lat="42.2634650208055973052978515625" lon="2.44874962605535984039306640625">
        <ele>564</ele>
        <time>2020-08-09T06:59:59.000Z</time>
      </trkpt>
      <trkpt lat="42.26347952149808406829833984375" lon="2.4486229754984378814697265625">
        <ele>564.79998779296875</ele>
        <time>2020-08-09T07:00:03.000Z</time>
      </trkpt>
      <trkpt lat="42.26350751705467700958251953125" lon="2.44846866466104984283447265625">
        <ele>565.5999755859375</ele>
        <time>2020-08-09T07:00:08.000Z</time>
      </trkpt>
      <trkpt lat="42.26351237855851650238037109375" lon="2.44843815453350543975830078125">
        <ele>566</ele>
        <time>2020-08-09T07:00:09.000Z</time>
      </trkpt>
      <trkpt lat="42.2635352611541748046875" lon="2.44827655144035816192626953125">
        <ele>567</ele>
        <time>2020-08-09T07:00:14.000Z</time>
      </trkpt>
      <trkpt lat="42.26354942657053470611572265625" lon="2.44820530526340007781982421875">
        <ele>567.20001220703125</ele>
        <time>2020-08-09T07:00:16.000Z</time>
      </trkpt>
      <trkpt lat="42.2636175714433193206787109375" lon="2.44789919815957546234130859375">
        <ele>567.4000244140625</ele>
        <time>2020-08-09T07:00:24.000Z</time>
      </trkpt>
      <trkpt lat="42.26361849345266819000244140625" lon="2.44757138192653656005859375">
        <ele>567.79998779296875</ele>
        <time>2020-08-09T07:00:32.000Z</time>
      </trkpt>
      <trkpt lat="42.26359871216118335723876953125" lon="2.44741153903305530548095703125">
        <ele>568</ele>
        <time>2020-08-09T07:00:36.000Z</time>
      </trkpt>
      <trkpt lat="42.2635763324797153472900390625" lon="2.447213642299175262451171875">
        <ele>568.4000244140625</ele>
        <time>2020-08-09T07:00:41.000Z</time>
      </trkpt>
      <trkpt lat="42.263476587831974029541015625" lon="2.4467685632407665252685546875">
        <ele>568.79998779296875</ele>
        <time>2020-08-09T07:00:52.000Z</time>
      </trkpt>
      <trkpt lat="42.263395786285400390625" lon="2.446509897708892822265625">
        <ele>568.4000244140625</ele>
        <time>2020-08-09T07:00:57.000Z</time>
      </trkpt>
      <trkpt lat="42.26338413543999195098876953125" lon="2.44645449332892894744873046875">
        <ele>568.4000244140625</ele>
        <time>2020-08-09T07:00:58.000Z</time>
      </trkpt>
      <trkpt lat="42.2633791901171207427978515625" lon="2.446280904114246368408203125">
        <ele>568.20001220703125</ele>
        <time>2020-08-09T07:01:02.000Z</time>
      </trkpt>
      <trkpt lat="42.26344901137053966522216796875" lon="2.44601561687886714935302734375">
        <ele>568.20001220703125</ele>
        <time>2020-08-09T07:01:08.000Z</time>
      </trkpt>
      <trkpt lat="42.26347935386002063751220703125" lon="2.44572090916335582733154296875">
        <ele>568.79998779296875</ele>
        <time>2020-08-09T07:01:15.000Z</time>
      </trkpt>
      <trkpt lat="42.26348035968840122222900390625" lon="2.44559325277805328369140625">
        <ele>569</ele>
        <time>2020-08-09T07:01:18.000Z</time>
      </trkpt>
      <trkpt lat="42.26345856674015522003173828125" lon="2.4454854615032672882080078125">
        <ele>569.4000244140625</ele>
        <time>2020-08-09T07:01:21.000Z</time>
      </trkpt>
      <trkpt lat="42.26338882930576801300048828125" lon="2.4453205056488513946533203125">
        <ele>570</ele>
        <time>2020-08-09T07:01:27.000Z</time>
      </trkpt>
      <trkpt lat="42.2633791901171207427978515625" lon="2.445292174816131591796875">
        <ele>570.20001220703125</ele>
        <time>2020-08-09T07:01:28.000Z</time>
      </trkpt>
      <trkpt lat="42.26331540383398532867431640625" lon="2.44504968635737895965576171875">
        <ele>570</ele>
        <time>2020-08-09T07:01:36.000Z</time>
      </trkpt>
      <trkpt lat="42.26319269277155399322509765625" lon="2.44480476714670658111572265625">
        <ele>569.5999755859375</ele>
        <time>2020-08-09T07:01:42.000Z</time>
      </trkpt>
      <trkpt lat="42.263113148510456085205078125" lon="2.4446536414325237274169921875">
        <ele>569</ele>
        <time>2020-08-09T07:01:45.000Z</time>
      </trkpt>
      <trkpt lat="42.26301348768174648284912109375" lon="2.4444450996816158294677734375">
        <ele>568.5999755859375</ele>
        <time>2020-08-09T07:01:49.000Z</time>
      </trkpt>
      <trkpt lat="42.26291407831013202667236328125" lon="2.44424636475741863250732421875">
        <ele>568.5999755859375</ele>
        <time>2020-08-09T07:01:54.000Z</time>
      </trkpt>
      <trkpt lat="42.2629151679575443267822265625" lon="2.4440682493150234222412109375">
        <ele>569.20001220703125</ele>
        <time>2020-08-09T07:01:59.000Z</time>
      </trkpt>
      <trkpt lat="42.26295749656856060028076171875" lon="2.44394511915743350982666015625">
        <ele>570</ele>
        <time>2020-08-09T07:02:03.000Z</time>
      </trkpt>
      <trkpt lat="42.262991778552532196044921875" lon="2.4438620544970035552978515625">
        <ele>570.4000244140625</ele>
        <time>2020-08-09T07:02:06.000Z</time>
      </trkpt>
      <trkpt lat="42.26304776966571807861328125" lon="2.44372702203691005706787109375">
        <ele>571.20001220703125</ele>
        <time>2020-08-09T07:02:11.000Z</time>
      </trkpt>
      <trkpt lat="42.26306696422398090362548828125" lon="2.44366767816245555877685546875">
        <ele>571.4000244140625</ele>
        <time>2020-08-09T07:02:13.000Z</time>
      </trkpt>
      <trkpt lat="42.2631190158426761627197265625" lon="2.44348109699785709381103515625">
        <ele>572</ele>
        <time>2020-08-09T07:02:19.000Z</time>
      </trkpt>
      <trkpt lat="42.2631086222827434539794921875" lon="2.44326132349669933319091796875">
        <ele>571.5999755859375</ele>
        <time>2020-08-09T07:02:24.000Z</time>
      </trkpt>
      <trkpt lat="42.26308674551546573638916015625" lon="2.4432109482586383819580078125">
        <ele>571.4000244140625</ele>
        <time>2020-08-09T07:02:25.000Z</time>
      </trkpt>
      <trkpt lat="42.26298381574451923370361328125" lon="2.44307239539921283721923828125">
        <ele>570.5999755859375</ele>
        <time>2020-08-09T07:02:28.000Z</time>
      </trkpt>
      <trkpt lat="42.26291189901530742645263671875" lon="2.44296778924763202667236328125">
        <ele>570.4000244140625</ele>
        <time>2020-08-09T07:02:30.000Z</time>
      </trkpt>
      <trkpt lat="42.26288155652582645416259765625" lon="2.44290794245898723602294921875">
        <ele>570</ele>
        <time>2020-08-09T07:02:31.000Z</time>
      </trkpt>
      <trkpt lat="42.26285221986472606658935546875" lon="2.44277232326567173004150390625">
        <ele>569.79998779296875</ele>
        <time>2020-08-09T07:02:33.000Z</time>
      </trkpt>
      <trkpt lat="42.26289228536188602447509765625" lon="2.44261373765766620635986328125">
        <ele>569.79998779296875</ele>
        <time>2020-08-09T07:02:36.000Z</time>
      </trkpt>
      <trkpt lat="42.26291231811046600341796875" lon="2.44257953949272632598876953125">
        <ele>570</ele>
        <time>2020-08-09T07:02:37.000Z</time>
      </trkpt>
      <trkpt lat="42.26300083100795745849609375" lon="2.44245230220258235931396484375">
        <ele>570.5999755859375</ele>
        <time>2020-08-09T07:02:42.000Z</time>
      </trkpt>
      <trkpt lat="42.2630586661398410797119140625" lon="2.44235708378255367279052734375">
        <ele>571</ele>
        <time>2020-08-09T07:02:46.000Z</time>
      </trkpt>
      <trkpt lat="42.26310200057923793792724609375" lon="2.4422668106853961944580078125">
        <ele>571.79998779296875</ele>
        <time>2020-08-09T07:02:50.000Z</time>
      </trkpt>
      <trkpt lat="42.2631170041859149932861328125" lon="2.44221274740993976593017578125">
        <ele>572.20001220703125</ele>
        <time>2020-08-09T07:02:52.000Z</time>
      </trkpt>
      <trkpt lat="42.26317115128040313720703125" lon="2.442075200378894805908203125">
        <ele>573</ele>
        <time>2020-08-09T07:02:57.000Z</time>
      </trkpt>
      <trkpt lat="42.26318313740193843841552734375" lon="2.44204896502196788787841796875">
        <ele>573.20001220703125</ele>
        <time>2020-08-09T07:02:58.000Z</time>
      </trkpt>
      <trkpt lat="42.26323963142931461334228515625" lon="2.44189255870878696441650390625">
        <ele>574.4000244140625</ele>
        <time>2020-08-09T07:03:04.000Z</time>
      </trkpt>
      <trkpt lat="42.26324918679893016815185546875" lon="2.44186540134251117706298828125">
        <ele>574.5999755859375</ele>
        <time>2020-08-09T07:03:05.000Z</time>
      </trkpt>
      <trkpt lat="42.26333208382129669189453125" lon="2.44164210744202136993408203125">
        <ele>575.4000244140625</ele>
        <time>2020-08-09T07:03:13.000Z</time>
      </trkpt>
      <trkpt lat="42.263354547321796417236328125" lon="2.44140272028744220733642578125">
        <ele>575.4000244140625</ele>
        <time>2020-08-09T07:03:19.000Z</time>
      </trkpt>
      <trkpt lat="42.26328187622129917144775390625" lon="2.44120926596224308013916015625">
        <ele>575.4000244140625</ele>
        <time>2020-08-09T07:03:25.000Z</time>
      </trkpt>
      <trkpt lat="42.26316771470010280609130859375" lon="2.44092562235891819000244140625">
        <ele>575.79998779296875</ele>
        <time>2020-08-09T07:03:34.000Z</time>
      </trkpt>
      <trkpt lat="42.263111136853694915771484375" lon="2.4407203495502471923828125">
        <ele>576.4000244140625</ele>
        <time>2020-08-09T07:03:41.000Z</time>
      </trkpt>
      <trkpt lat="42.26310811936855316162109375" lon="2.44069344364106655120849609375">
        <ele>576.5999755859375</ele>
        <time>2020-08-09T07:03:42.000Z</time>
      </trkpt>
      <trkpt lat="42.26309076882898807525634765625" lon="2.44047031737864017486572265625">
        <ele>577.5999755859375</ele>
        <time>2020-08-09T07:03:50.000Z</time>
      </trkpt>
      <trkpt lat="42.263082303106784820556640625" lon="2.44030100293457508087158203125">
        <ele>578.79998779296875</ele>
        <time>2020-08-09T07:03:56.000Z</time>
      </trkpt>
      <trkpt lat="42.26307719014585018157958984375" lon="2.4402461014688014984130859375">
        <ele>579</ele>
        <time>2020-08-09T07:03:58.000Z</time>
      </trkpt>
      <trkpt lat="42.26307853125035762786865234375" lon="2.44008491747081279754638671875">
        <ele>579.79998779296875</ele>
        <time>2020-08-09T07:04:04.000Z</time>
      </trkpt>
      <trkpt lat="42.26311457343399524688720703125" lon="2.4398350529372692108154296875">
        <ele>580.4000244140625</ele>
        <time>2020-08-09T07:04:13.000Z</time>
      </trkpt>
      <trkpt lat="42.26315681822597980499267578125" lon="2.43958619423210620880126953125">
        <ele>580.5999755859375</ele>
        <time>2020-08-09T07:04:21.000Z</time>
      </trkpt>
      <trkpt lat="42.26316486485302448272705078125" lon="2.4395004473626613616943359375">
        <ele>580.79998779296875</ele>
        <time>2020-08-09T07:04:24.000Z</time>
      </trkpt>
      <trkpt lat="42.26316310465335845947265625" lon="2.4393904767930507659912109375">
        <ele>581.5999755859375</ele>
        <time>2020-08-09T07:04:28.000Z</time>
      </trkpt>
      <trkpt lat="42.26316084153950214385986328125" lon="2.439364492893218994140625">
        <ele>582</ele>
        <time>2020-08-09T07:04:29.000Z</time>
      </trkpt>
      <trkpt lat="42.26315178908407688140869140625" lon="2.43926860392093658447265625">
        <ele>583</ele>
        <time>2020-08-09T07:04:33.000Z</time>
      </trkpt>
      <trkpt lat="42.26314575411379337310791015625" lon="2.439245469868183135986328125">
        <ele>583.20001220703125</ele>
        <time>2020-08-09T07:04:34.000Z</time>
      </trkpt>
      <trkpt lat="42.26313033141195774078369140625" lon="2.4391567893326282501220703125">
        <ele>584</ele>
        <time>2020-08-09T07:04:38.000Z</time>
      </trkpt>
      <trkpt lat="42.26311750710010528564453125" lon="2.4391044862568378448486328125">
        <ele>584.4000244140625</ele>
        <time>2020-08-09T07:04:40.000Z</time>
      </trkpt>
      <trkpt lat="42.26310468278825283050537109375" lon="2.43900180794298648834228515625">
        <ele>585</ele>
        <time>2020-08-09T07:04:44.000Z</time>
      </trkpt>
      <trkpt lat="42.26306797005236148834228515625" lon="2.4388536997139453887939453125">
        <ele>586</ele>
        <time>2020-08-09T07:04:50.000Z</time>
      </trkpt>
      <trkpt lat="42.2629865817725658416748046875" lon="2.43867239914834499359130859375">
        <ele>587</ele>
        <time>2020-08-09T07:04:58.000Z</time>
      </trkpt>
      <trkpt lat="42.2629785351455211639404296875" lon="2.43864758871495723724365234375">
        <ele>587.20001220703125</ele>
        <time>2020-08-09T07:04:59.000Z</time>
      </trkpt>
      <trkpt lat="42.2629170119762420654296875" lon="2.43848347105085849761962890625">
        <ele>588.20001220703125</ele>
        <time>2020-08-09T07:05:06.000Z</time>
      </trkpt>
      <trkpt lat="42.26288926787674427032470703125" lon="2.438415326178073883056640625">
        <ele>588.4000244140625</ele>
        <time>2020-08-09T07:05:09.000Z</time>
      </trkpt>
      <trkpt lat="42.262851297855377197265625" lon="2.43820787407457828521728515625">
        <ele>589</ele>
        <time>2020-08-09T07:05:17.000Z</time>
      </trkpt>
      <trkpt lat="42.2628467716276645660400390625" lon="2.43818088434636592864990234375">
        <ele>589.20001220703125</ele>
        <time>2020-08-09T07:05:18.000Z</time>
      </trkpt>
      <trkpt lat="42.26283428259193897247314453125" lon="2.43807661347091197967529296875">
        <ele>589.4000244140625</ele>
        <time>2020-08-09T07:05:22.000Z</time>
      </trkpt>
      <trkpt lat="42.26282254792749881744384765625" lon="2.43799455463886260986328125">
        <ele>589.79998779296875</ele>
        <time>2020-08-09T07:05:25.000Z</time>
      </trkpt>
      <trkpt lat="42.26281031034886837005615234375" lon="2.43788718245923519134521484375">
        <ele>590.20001220703125</ele>
        <time>2020-08-09T07:05:29.000Z</time>
      </trkpt>
      <trkpt lat="42.26279991678893566131591796875" lon="2.4378069676458835601806640625">
        <ele>590.4000244140625</ele>
        <time>2020-08-09T07:05:32.000Z</time>
      </trkpt>
      <trkpt lat="42.26279606111347675323486328125" lon="2.43762415833771228790283203125">
        <ele>591.20001220703125</ele>
        <time>2020-08-09T07:05:39.000Z</time>
      </trkpt>
      <trkpt lat="42.26279052905738353729248046875" lon="2.43757504038512706756591796875">
        <ele>591.5999755859375</ele>
        <time>2020-08-09T07:05:41.000Z</time>
      </trkpt>
      <trkpt lat="42.26278784684836864471435546875" lon="2.43747680447995662689208984375">
        <ele>592.20001220703125</ele>
        <time>2020-08-09T07:05:45.000Z</time>
      </trkpt>
      <trkpt lat="42.262802012264728546142578125" lon="2.43738711811602115631103515625">
        <ele>593.20001220703125</ele>
        <time>2020-08-09T07:05:49.000Z</time>
      </trkpt>
      <trkpt lat="42.2627998329699039459228515625" lon="2.43736557662487030029296875">
        <ele>593.4000244140625</ele>
        <time>2020-08-09T07:05:50.000Z</time>
      </trkpt>
      <trkpt lat="42.26278717629611492156982421875" lon="2.43723859079182147979736328125">
        <ele>594.5999755859375</ele>
        <time>2020-08-09T07:05:56.000Z</time>
      </trkpt>
      <trkpt lat="42.262786924839019775390625" lon="2.4371967650949954986572265625">
        <ele>595</ele>
        <time>2020-08-09T07:05:58.000Z</time>
      </trkpt>
      <trkpt lat="42.262792289257049560546875" lon="2.43711805902421474456787109375">
        <ele>595.79998779296875</ele>
        <time>2020-08-09T07:06:02.000Z</time>
      </trkpt>
      <trkpt lat="42.26280058734118938446044921875" lon="2.437056787312030792236328125">
        <ele>596.4000244140625</ele>
        <time>2020-08-09T07:06:05.000Z</time>
      </trkpt>
      <trkpt lat="42.2628011740744113922119140625" lon="2.4370167218148708343505859375">
        <ele>596.79998779296875</ele>
        <time>2020-08-09T07:06:07.000Z</time>
      </trkpt>
      <trkpt lat="42.26279874332249164581298828125" lon="2.4369168095290660858154296875">
        <ele>597.79998779296875</ele>
        <time>2020-08-09T07:06:12.000Z</time>
      </trkpt>
      <trkpt lat="42.26280980743467807769775390625" lon="2.4367796815931797027587890625">
        <ele>598.79998779296875</ele>
        <time>2020-08-09T07:06:19.000Z</time>
      </trkpt>
      <trkpt lat="42.26280997507274150848388671875" lon="2.43675830774009227752685546875">
        <ele>599</ele>
        <time>2020-08-09T07:06:20.000Z</time>
      </trkpt>
      <trkpt lat="42.26279941387474536895751953125" lon="2.43660609237849712371826171875">
        <ele>599.4000244140625</ele>
        <time>2020-08-09T07:06:27.000Z</time>
      </trkpt>
      <trkpt lat="42.262781560420989990234375" lon="2.43647214956581592559814453125">
        <ele>599.79998779296875</ele>
        <time>2020-08-09T07:06:33.000Z</time>
      </trkpt>
      <trkpt lat="42.26277661509811878204345703125" lon="2.43642403744161128997802734375">
        <ele>599.79998779296875</ele>
        <time>2020-08-09T07:06:35.000Z</time>
      </trkpt>
      <trkpt lat="42.26274962536990642547607421875" lon="2.436227984726428985595703125">
        <ele>600.5999755859375</ele>
        <time>2020-08-09T07:06:43.000Z</time>
      </trkpt>
      <trkpt lat="42.26273789070546627044677734375" lon="2.4361285753548145294189453125">
        <ele>601</ele>
        <time>2020-08-09T07:06:47.000Z</time>
      </trkpt>
      <trkpt lat="42.26273654960095882415771484375" lon="2.43603260256350040435791015625">
        <ele>601.20001220703125</ele>
        <time>2020-08-09T07:06:51.000Z</time>
      </trkpt>
      <trkpt lat="42.26274828426539897918701171875" lon="2.4359408207237720489501953125">
        <ele>602</ele>
        <time>2020-08-09T07:06:55.000Z</time>
      </trkpt>
      <trkpt lat="42.2627411596477031707763671875" lon="2.43584970943629741668701171875">
        <ele>603</ele>
        <time>2020-08-09T07:06:59.000Z</time>
      </trkpt>
      <trkpt lat="42.2627411596477031707763671875" lon="2.43582875467836856842041015625">
        <ele>603.20001220703125</ele>
        <time>2020-08-09T07:07:00.000Z</time>
      </trkpt>
      <trkpt lat="42.26276974193751811981201171875" lon="2.43573077023029327392578125">
        <ele>604</ele>
        <time>2020-08-09T07:07:05.000Z</time>
      </trkpt>
      <trkpt lat="42.2627723403275012969970703125" lon="2.4357104860246181488037109375">
        <ele>604.20001220703125</ele>
        <time>2020-08-09T07:07:06.000Z</time>
      </trkpt>
      <trkpt lat="42.2627746872603893280029296875" lon="2.435605041682720184326171875">
        <ele>605.20001220703125</ele>
        <time>2020-08-09T07:07:11.000Z</time>
      </trkpt>
      <trkpt lat="42.2627770341932773590087890625" lon="2.4355638027191162109375">
        <ele>605.79998779296875</ele>
        <time>2020-08-09T07:07:13.000Z</time>
      </trkpt>
      <trkpt lat="42.2627803869545459747314453125" lon="2.43552424013614654541015625">
        <ele>606.4000244140625</ele>
        <time>2020-08-09T07:07:15.000Z</time>
      </trkpt>
      <trkpt lat="42.262800671160221099853515625" lon="2.43538417853415012359619140625">
        <ele>607.4000244140625</ele>
        <time>2020-08-09T07:07:22.000Z</time>
      </trkpt>
      <trkpt lat="42.2628447599709033966064453125" lon="2.43524529039859771728515625">
        <ele>608.4000244140625</ele>
        <time>2020-08-09T07:07:29.000Z</time>
      </trkpt>
      <trkpt lat="42.2628553211688995361328125" lon="2.43522810749709606170654296875">
        <ele>608.5999755859375</ele>
        <time>2020-08-09T07:07:30.000Z</time>
      </trkpt>
      <trkpt lat="42.262924052774906158447265625" lon="2.43510824628174304962158203125">
        <ele>609.5999755859375</ele>
        <time>2020-08-09T07:07:37.000Z</time>
      </trkpt>
      <trkpt lat="42.26293536834418773651123046875" lon="2.4350932426750659942626953125">
        <ele>609.5999755859375</ele>
        <time>2020-08-09T07:07:38.000Z</time>
      </trkpt>
      <trkpt lat="42.26304282434284687042236328125" lon="2.4350164644420146942138671875">
        <ele>610.79998779296875</ele>
        <time>2020-08-09T07:07:46.000Z</time>
      </trkpt>
      <trkpt lat="42.26311524398624897003173828125" lon="2.43500866927206516265869140625">
        <ele>612</ele>
        <time>2020-08-09T07:07:51.000Z</time>
      </trkpt>
      <trkpt lat="42.26315849460661411285400390625" lon="2.43501755408942699432373046875">
        <ele>612.4000244140625</ele>
        <time>2020-08-09T07:07:54.000Z</time>
      </trkpt>
      <trkpt lat="42.26319973357021808624267578125" lon="2.43503163568675518035888671875">
        <ele>613.20001220703125</ele>
        <time>2020-08-09T07:07:57.000Z</time>
      </trkpt>
      <trkpt lat="42.26326460950076580047607421875" lon="2.435045130550861358642578125">
        <ele>614.20001220703125</ele>
        <time>2020-08-09T07:08:02.000Z</time>
      </trkpt>
      <trkpt lat="42.26333233527839183807373046875" lon="2.43506491184234619140625">
        <ele>615.20001220703125</ele>
        <time>2020-08-09T07:08:07.000Z</time>
      </trkpt>
      <trkpt lat="42.26335865445435047149658203125" lon="2.43507371284067630767822265625">
        <ele>615.5999755859375</ele>
        <time>2020-08-09T07:08:09.000Z</time>
      </trkpt>
      <trkpt lat="42.26339955814182758331298828125" lon="2.43508075363934040069580078125">
        <ele>616</ele>
        <time>2020-08-09T07:08:12.000Z</time>
      </trkpt>
      <trkpt lat="42.26347013376653194427490234375" lon="2.4350781552493572235107421875">
        <ele>617</ele>
        <time>2020-08-09T07:08:17.000Z</time>
      </trkpt>
      <trkpt lat="42.26348455063998699188232421875" lon="2.435078322887420654296875">
        <ele>617.4000244140625</ele>
        <time>2020-08-09T07:08:18.000Z</time>
      </trkpt>
      <trkpt lat="42.2635572217404842376708984375" lon="2.4350687675178050994873046875">
        <ele>618.20001220703125</ele>
        <time>2020-08-09T07:08:23.000Z</time>
      </trkpt>
      <trkpt lat="42.2635971195995807647705078125" lon="2.43505074642598628997802734375">
        <ele>618.79998779296875</ele>
        <time>2020-08-09T07:08:26.000Z</time>
      </trkpt>
      <trkpt lat="42.26362134329974651336669921875" lon="2.43503364734351634979248046875">
        <ele>619.4000244140625</ele>
        <time>2020-08-09T07:08:28.000Z</time>
      </trkpt>
      <trkpt lat="42.26366777904331684112548828125" lon="2.4350047297775745391845703125">
        <ele>619.79998779296875</ele>
        <time>2020-08-09T07:08:32.000Z</time>
      </trkpt>
      <trkpt lat="42.26372913457453250885009765625" lon="2.4349723756313323974609375">
        <ele>620.4000244140625</ele>
        <time>2020-08-09T07:08:37.000Z</time>
      </trkpt>
      <trkpt lat="42.26376366801559925079345703125" lon="2.434950582683086395263671875">
        <ele>620.79998779296875</ele>
        <time>2020-08-09T07:08:40.000Z</time>
      </trkpt>
      <trkpt lat="42.26380440406501293182373046875" lon="2.43491060100495815277099609375">
        <ele>621.4000244140625</ele>
        <time>2020-08-09T07:08:44.000Z</time>
      </trkpt>
      <trkpt lat="42.263856120407581329345703125" lon="2.43486165069043636322021484375">
        <ele>622.4000244140625</ele>
        <time>2020-08-09T07:08:49.000Z</time>
      </trkpt>
      <trkpt lat="42.26386584341526031494140625" lon="2.43484991602599620819091796875">
        <ele>622.79998779296875</ele>
        <time>2020-08-09T07:08:50.000Z</time>
      </trkpt>
      <trkpt lat="42.2639223374426364898681640625" lon="2.43481538258492946624755859375">
        <ele>623.5999755859375</ele>
        <time>2020-08-09T07:08:55.000Z</time>
      </trkpt>
      <trkpt lat="42.26393247954547405242919921875" lon="2.43480741977691650390625">
        <ele>623.79998779296875</ele>
        <time>2020-08-09T07:08:56.000Z</time>
      </trkpt>
      <trkpt lat="42.2639925777912139892578125" lon="2.43476995266973972320556640625">
        <ele>624.79998779296875</ele>
        <time>2020-08-09T07:09:01.000Z</time>
      </trkpt>
      <trkpt lat="42.2640038095414638519287109375" lon="2.43475771509110927581787109375">
        <ele>625</ele>
        <time>2020-08-09T07:09:02.000Z</time>
      </trkpt>
      <trkpt lat="42.2640701942145824432373046875" lon="2.43469501845538616180419921875">
        <ele>626</ele>
        <time>2020-08-09T07:09:08.000Z</time>
      </trkpt>
      <trkpt lat="42.2640802524983882904052734375" lon="2.43468412198126316070556640625">
        <ele>626.20001220703125</ele>
        <time>2020-08-09T07:09:09.000Z</time>
      </trkpt>
      <trkpt lat="42.26410497911274433135986328125" lon="2.43464179337024688720703125">
        <ele>626.79998779296875</ele>
        <time>2020-08-09T07:09:12.000Z</time>
      </trkpt>
      <trkpt lat="42.2641345672309398651123046875" lon="2.4346127919852733612060546875">
        <ele>627.20001220703125</ele>
        <time>2020-08-09T07:09:15.000Z</time>
      </trkpt>
      <trkpt lat="42.26414839737117290496826171875" lon="2.43458404205739498138427734375">
        <ele>627.5999755859375</ele>
        <time>2020-08-09T07:09:17.000Z</time>
      </trkpt>
      <trkpt lat="42.264206148684024810791015625" lon="2.434537522494792938232421875">
        <ele>628.20001220703125</ele>
        <time>2020-08-09T07:09:22.000Z</time>
      </trkpt>
      <trkpt lat="42.26425652392208576202392578125" lon="2.43445043452084064483642578125">
        <ele>629.20001220703125</ele>
        <time>2020-08-09T07:09:28.000Z</time>
      </trkpt>
      <trkpt lat="42.264278233051300048828125" lon="2.4344236962497234344482421875">
        <ele>629.5999755859375</ele>
        <time>2020-08-09T07:09:30.000Z</time>
      </trkpt>
      <trkpt lat="42.26434034295380115509033203125" lon="2.43437566794455051422119140625">
        <ele>630</ele>
        <time>2020-08-09T07:09:36.000Z</time>
      </trkpt>
      <trkpt lat="42.264340259134769439697265625" lon="2.43437566794455051422119140625">
        <ele>630</ele>
        <time>2020-08-09T07:09:37.000Z</time>
      </trkpt>
      <trkpt lat="42.26433916948735713958740234375" lon="2.43437550030648708343505859375">
        <ele>630.4000244140625</ele>
        <time>2020-08-09T07:09:47.000Z</time>
      </trkpt>
      <trkpt lat="42.26433916948735713958740234375" lon="2.434375919401645660400390625">
        <ele>630.20001220703125</ele>
        <time>2020-08-09T07:10:05.000Z</time>
      </trkpt>
      <trkpt lat="42.2643394209444522857666015625" lon="2.43437566794455051422119140625">
        <ele>630.5999755859375</ele>
        <time>2020-08-09T07:10:19.000Z</time>
      </trkpt>
      <trkpt lat="42.26435509510338306427001953125" lon="2.4343422241508960723876953125">
        <ele>630.4000244140625</ele>
        <time>2020-08-09T07:10:22.000Z</time>
      </trkpt>
      <trkpt lat="42.2643578611314296722412109375" lon="2.434324286878108978271484375">
        <ele>630.4000244140625</ele>
        <time>2020-08-09T07:10:23.000Z</time>
      </trkpt>
      <trkpt lat="42.26436431519687175750732421875" lon="2.43430643342435359954833984375">
        <ele>630.4000244140625</ele>
        <time>2020-08-09T07:10:24.000Z</time>
      </trkpt>
      <trkpt lat="42.26439834572374820709228515625" lon="2.43426083587110042572021484375">
        <ele>630.5999755859375</ele>
        <time>2020-08-09T07:10:27.000Z</time>
      </trkpt>
      <trkpt lat="42.26440957747399806976318359375" lon="2.43424616754055023193359375">
        <ele>630.79998779296875</ele>
        <time>2020-08-09T07:10:28.000Z</time>
      </trkpt>
      <trkpt lat="42.26444746367633342742919921875" lon="2.4341784417629241943359375">
        <ele>631</ele>
        <time>2020-08-09T07:10:32.000Z</time>
      </trkpt>
      <trkpt lat="42.26448006927967071533203125" lon="2.43412756361067295074462890625">
        <ele>631</ele>
        <time>2020-08-09T07:10:35.000Z</time>
      </trkpt>
      <trkpt lat="42.264515943825244903564453125" lon="2.43404927663505077362060546875">
        <ele>631.20001220703125</ele>
        <time>2020-08-09T07:10:39.000Z</time>
      </trkpt>
      <trkpt lat="42.264568917453289031982421875" lon="2.43392270989716053009033203125">
        <ele>631.4000244140625</ele>
        <time>2020-08-09T07:10:45.000Z</time>
      </trkpt>
      <trkpt lat="42.264641337096691131591796875" lon="2.43378004990518093109130859375">
        <ele>631.5999755859375</ele>
        <time>2020-08-09T07:10:52.000Z</time>
      </trkpt>
      <trkpt lat="42.264684252440929412841796875" lon="2.43370293639600276947021484375">
        <ele>632</ele>
        <time>2020-08-09T07:10:56.000Z</time>
      </trkpt>
      <trkpt lat="42.2647283412516117095947265625" lon="2.43363001383841037750244140625">
        <ele>632.20001220703125</ele>
        <time>2020-08-09T07:11:00.000Z</time>
      </trkpt>
      <trkpt lat="42.264815680682659149169921875" lon="2.43348198942840099334716796875">
        <ele>632.5999755859375</ele>
        <time>2020-08-09T07:11:08.000Z</time>
      </trkpt>
      <trkpt lat="42.26490545086562633514404296875" lon="2.4333414249122142791748046875">
        <ele>632.79998779296875</ele>
        <time>2020-08-09T07:11:16.000Z</time>
      </trkpt>
      <trkpt lat="42.2649268247187137603759765625" lon="2.43330513127148151397705078125">
        <ele>633</ele>
        <time>2020-08-09T07:11:18.000Z</time>
      </trkpt>
      <trkpt lat="42.2650166787207126617431640625" lon="2.43315517902374267578125">
        <ele>633.79998779296875</ele>
        <time>2020-08-09T07:11:26.000Z</time>
      </trkpt>
      <trkpt lat="42.26510192267596721649169921875" lon="2.43298552930355072021484375">
        <ele>634.20001220703125</ele>
        <time>2020-08-09T07:11:34.000Z</time>
      </trkpt>
      <trkpt lat="42.26511382497847080230712890625" lon="2.43296046741306781768798828125">
        <ele>634.20001220703125</ele>
        <time>2020-08-09T07:11:35.000Z</time>
      </trkpt>
      <trkpt lat="42.265188507735729217529296875" lon="2.4327875487506389617919921875">
        <ele>634</ele>
        <time>2020-08-09T07:11:41.000Z</time>
      </trkpt>
      <trkpt lat="42.26529420353472232818603515625" lon="2.432554699480533599853515625">
        <ele>633.79998779296875</ele>
        <time>2020-08-09T07:11:47.000Z</time>
      </trkpt>
      <trkpt lat="42.26540409028530120849609375" lon="2.43234724737703800201416015625">
        <ele>632.79998779296875</ele>
        <time>2020-08-09T07:11:51.000Z</time>
      </trkpt>
      <trkpt lat="42.26544164121150970458984375" lon="2.4322873167693614959716796875">
        <ele>632.5999755859375</ele>
        <time>2020-08-09T07:11:52.000Z</time>
      </trkpt>
      <trkpt lat="42.265576086938381195068359375" lon="2.43207651190459728240966796875">
        <ele>631.4000244140625</ele>
        <time>2020-08-09T07:11:55.000Z</time>
      </trkpt>
      <trkpt lat="42.265689410269260406494140625" lon="2.4319211952388286590576171875">
        <ele>630.20001220703125</ele>
        <time>2020-08-09T07:11:57.000Z</time>
      </trkpt>
      <trkpt lat="42.26581622846424579620361328125" lon="2.43176470510661602020263671875">
        <ele>629.20001220703125</ele>
        <time>2020-08-09T07:11:59.000Z</time>
      </trkpt>
      <trkpt lat="42.26593508385121822357177734375" lon="2.4316169321537017822265625">
        <ele>627.79998779296875</ele>
        <time>2020-08-09T07:12:01.000Z</time>
      </trkpt>
      <trkpt lat="42.26598453707993030548095703125" lon="2.43153755553066730499267578125">
        <ele>626.79998779296875</ele>
        <time>2020-08-09T07:12:02.000Z</time>
      </trkpt>
      <trkpt lat="42.2660256922245025634765625" lon="2.4314487911760807037353515625">
        <ele>626.20001220703125</ele>
        <time>2020-08-09T07:12:03.000Z</time>
      </trkpt>
      <trkpt lat="42.2660744749009609222412109375" lon="2.431262545287609100341796875">
        <ele>625.4000244140625</ele>
        <time>2020-08-09T07:12:05.000Z</time>
      </trkpt>
      <trkpt lat="42.26608092896640300750732421875" lon="2.43118249811232089996337890625">
        <ele>625.20001220703125</ele>
        <time>2020-08-09T07:12:06.000Z</time>
      </trkpt>
      <trkpt lat="42.26604119874536991119384765625" lon="2.43106146343052387237548828125">
        <ele>624.79998779296875</ele>
        <time>2020-08-09T07:12:08.000Z</time>
      </trkpt>
      <trkpt lat="42.26591479964554309844970703125" lon="2.43104704655706882476806640625">
        <ele>624.5999755859375</ele>
        <time>2020-08-09T07:12:11.000Z</time>
      </trkpt>
      <trkpt lat="42.2658149711787700653076171875" lon="2.431102283298969268798828125">
        <ele>624.20001220703125</ele>
        <time>2020-08-09T07:12:13.000Z</time>
      </trkpt>
      <trkpt lat="42.26570055820047855377197265625" lon="2.4311555922031402587890625">
        <ele>623.4000244140625</ele>
        <time>2020-08-09T07:12:15.000Z</time>
      </trkpt>
      <trkpt lat="42.2656339220702648162841796875" lon="2.431166656315326690673828125">
        <ele>622.79998779296875</ele>
        <time>2020-08-09T07:12:16.000Z</time>
      </trkpt>
      <trkpt lat="42.265492938458919525146484375" lon="2.43113656528294086456298828125">
        <ele>621.79998779296875</ele>
        <time>2020-08-09T07:12:18.000Z</time>
      </trkpt>
      <trkpt lat="42.26530727930366992950439453125" lon="2.431017458438873291015625">
        <ele>620.79998779296875</ele>
        <time>2020-08-09T07:12:21.000Z</time>
      </trkpt>
      <trkpt lat="42.26520250551402568817138671875" lon="2.43101167492568492889404296875">
        <ele>621.4000244140625</ele>
        <time>2020-08-09T07:12:24.000Z</time>
      </trkpt>
      <trkpt lat="42.26514467038214206695556640625" lon="2.43101050145924091339111328125">
        <ele>622.79998779296875</ele>
        <time>2020-08-09T07:12:27.000Z</time>
      </trkpt>
      <trkpt lat="42.26510611362755298614501953125" lon="2.43100941181182861328125">
        <ele>623</ele>
        <time>2020-08-09T07:12:29.000Z</time>
      </trkpt>
      <trkpt lat="42.2649650461971759796142578125" lon="2.43104335851967334747314453125">
        <ele>623.79998779296875</ele>
        <time>2020-08-09T07:12:36.000Z</time>
      </trkpt>
      <trkpt lat="42.26494484581053256988525390625" lon="2.431050650775432586669921875">
        <ele>624</ele>
        <time>2020-08-09T07:12:37.000Z</time>
      </trkpt>
      <trkpt lat="42.26477720774710178375244140625" lon="2.43113723583519458770751953125">
        <ele>624.4000244140625</ele>
        <time>2020-08-09T07:12:45.000Z</time>
      </trkpt>
      <trkpt lat="42.26462448947131633758544921875" lon="2.43115785531699657440185546875">
        <ele>624.20001220703125</ele>
        <time>2020-08-09T07:12:51.000Z</time>
      </trkpt>
      <trkpt lat="42.2645392455160617828369140625" lon="2.43098594248294830322265625">
        <ele>623.4000244140625</ele>
        <time>2020-08-09T07:12:54.000Z</time>
      </trkpt>
      <trkpt lat="42.2644641436636447906494140625" lon="2.43080489337444305419921875">
        <ele>622.20001220703125</ele>
        <time>2020-08-09T07:12:56.000Z</time>
      </trkpt>
      <trkpt lat="42.26435023359954357147216796875" lon="2.43059744127094745635986328125">
        <ele>620</ele>
        <time>2020-08-09T07:12:58.000Z</time>
      </trkpt>
      <trkpt lat="42.26421360857784748077392578125" lon="2.4303876422345638275146484375">
        <ele>618</ele>
        <time>2020-08-09T07:13:00.000Z</time>
      </trkpt>
      <trkpt lat="42.26406835019588470458984375" lon="2.43020231835544109344482421875">
        <ele>616.5999755859375</ele>
        <time>2020-08-09T07:13:02.000Z</time>
      </trkpt>
      <trkpt lat="42.26399567909538745880126953125" lon="2.43012503720819950103759765625">
        <ele>616</ele>
        <time>2020-08-09T07:13:03.000Z</time>
      </trkpt>
      <trkpt lat="42.26387447677552700042724609375" lon="2.42996527813374996185302734375">
        <ele>615.5999755859375</ele>
        <time>2020-08-09T07:13:05.000Z</time>
      </trkpt>
      <trkpt lat="42.26383139379322528839111328125" lon="2.429875843226909637451171875">
        <ele>615.20001220703125</ele>
        <time>2020-08-09T07:13:06.000Z</time>
      </trkpt>
      <trkpt lat="42.263797782361507415771484375" lon="2.429786659777164459228515625">
        <ele>615</ele>
        <time>2020-08-09T07:13:07.000Z</time>
      </trkpt>
      <trkpt lat="42.26378043182194232940673828125" lon="2.42939363233745098114013671875">
        <ele>614.4000244140625</ele>
        <time>2020-08-09T07:13:11.000Z</time>
      </trkpt>
      <trkpt lat="42.2637914121150970458984375" lon="2.42930260486900806427001953125">
        <ele>614.4000244140625</ele>
        <time>2020-08-09T07:13:12.000Z</time>
      </trkpt>
      <trkpt lat="42.26384329609572887420654296875" lon="2.4290160275995731353759765625">
        <ele>614.79998779296875</ele>
        <time>2020-08-09T07:13:16.000Z</time>
      </trkpt>
      <trkpt lat="42.26387548260390758514404296875" lon="2.4288561008870601654052734375">
        <ele>615.5999755859375</ele>
        <time>2020-08-09T07:13:20.000Z</time>
      </trkpt>
      <trkpt lat="42.2638911567628383636474609375" lon="2.42877404205501079559326171875">
        <ele>616.20001220703125</ele>
        <time>2020-08-09T07:13:23.000Z</time>
      </trkpt>
      <trkpt lat="42.26392208598554134368896484375" lon="2.42868385277688503265380859375">
        <ele>617.20001220703125</ele>
        <time>2020-08-09T07:13:27.000Z</time>
      </trkpt>
      <trkpt lat="42.26393197663128376007080078125" lon="2.42863607592880725860595703125">
        <ele>617.4000244140625</ele>
        <time>2020-08-09T07:13:29.000Z</time>
      </trkpt>
      <trkpt lat="42.263962738215923309326171875" lon="2.428517974913120269775390625">
        <ele>618</ele>
        <time>2020-08-09T07:13:34.000Z</time>
      </trkpt>
      <trkpt lat="42.2639803402125835418701171875" lon="2.428447902202606201171875">
        <ele>618.4000244140625</ele>
        <time>2020-08-09T07:13:37.000Z</time>
      </trkpt>
      <trkpt lat="42.26401344873011112213134765625" lon="2.4283580482006072998046875">
        <ele>618.79998779296875</ele>
        <time>2020-08-09T07:13:41.000Z</time>
      </trkpt>
      <trkpt lat="42.26404110901057720184326171875" lon="2.42823592387139797210693359375">
        <ele>619.5999755859375</ele>
        <time>2020-08-09T07:13:46.000Z</time>
      </trkpt>
      <trkpt lat="42.26404462940990924835205078125" lon="2.428134419023990631103515625">
        <ele>620</ele>
        <time>2020-08-09T07:13:50.000Z</time>
      </trkpt>
      <trkpt lat="42.26402887143194675445556640625" lon="2.42796468548476696014404296875">
        <ele>620.4000244140625</ele>
        <time>2020-08-09T07:13:57.000Z</time>
      </trkpt>
      <trkpt lat="42.26402015425264835357666015625" lon="2.4279153160750865936279296875">
        <ele>620.5999755859375</ele>
        <time>2020-08-09T07:13:59.000Z</time>
      </trkpt>
      <trkpt lat="42.26399123668670654296875" lon="2.4277518689632415771484375">
        <ele>621</ele>
        <time>2020-08-09T07:14:05.000Z</time>
      </trkpt>
      <trkpt lat="42.2639384306967258453369140625" lon="2.42751524783670902252197265625">
        <ele>621.20001220703125</ele>
        <time>2020-08-09T07:14:13.000Z</time>
      </trkpt>
      <trkpt lat="42.26385804824531078338623046875" lon="2.4273307621479034423828125">
        <ele>620.79998779296875</ele>
        <time>2020-08-09T07:14:19.000Z</time>
      </trkpt>
      <trkpt lat="42.26372745819389820098876953125" lon="2.427134625613689422607421875">
        <ele>620.4000244140625</ele>
        <time>2020-08-09T07:14:25.000Z</time>
      </trkpt>
      <trkpt lat="42.263601981103420257568359375" lon="2.426925413310527801513671875">
        <ele>619.5999755859375</ele>
        <time>2020-08-09T07:14:29.000Z</time>
      </trkpt>
      <trkpt lat="42.26357750594615936279296875" lon="2.42684301920235157012939453125">
        <ele>619.20001220703125</ele>
        <time>2020-08-09T07:14:30.000Z</time>
      </trkpt>
      <trkpt lat="42.26355227641761302947998046875" lon="2.4266486428678035736083984375">
        <ele>618.20001220703125</ele>
        <time>2020-08-09T07:14:32.000Z</time>
      </trkpt>
      <trkpt lat="42.263544313609600067138671875" lon="2.4265410192310810089111328125">
        <ele>617.4000244140625</ele>
        <time>2020-08-09T07:14:33.000Z</time>
      </trkpt>
      <trkpt lat="42.26353702135384082794189453125" lon="2.42642727680504322052001953125">
        <ele>616.5999755859375</ele>
        <time>2020-08-09T07:14:34.000Z</time>
      </trkpt>
      <trkpt lat="42.26352159865200519561767578125" lon="2.42619560100138187408447265625">
        <ele>615.20001220703125</ele>
        <time>2020-08-09T07:14:36.000Z</time>
      </trkpt>
      <trkpt lat="42.26350282318890094757080078125" lon="2.425967864692211151123046875">
        <ele>614.4000244140625</ele>
        <time>2020-08-09T07:14:38.000Z</time>
      </trkpt>
      <trkpt lat="42.263489663600921630859375" lon="2.4258560501039028167724609375">
        <ele>614</ele>
        <time>2020-08-09T07:14:39.000Z</time>
      </trkpt>
      <trkpt lat="42.26346577517688274383544921875" lon="2.4254634417593479156494140625">
        <ele>613.79998779296875</ele>
        <time>2020-08-09T07:14:43.000Z</time>
      </trkpt>
      <trkpt lat="42.26345102302730083465576171875" lon="2.42501140572130680084228515625">
        <ele>614.5999755859375</ele>
        <time>2020-08-09T07:14:49.000Z</time>
      </trkpt>
      <trkpt lat="42.26344230584800243377685546875" lon="2.424762547016143798828125">
        <ele>614.79998779296875</ele>
        <time>2020-08-09T07:14:53.000Z</time>
      </trkpt>
      <trkpt lat="42.2634489275515079498291015625" lon="2.42457672022283077239990234375">
        <ele>614.5999755859375</ele>
        <time>2020-08-09T07:14:56.000Z</time>
      </trkpt>
      <trkpt lat="42.2634546272456645965576171875" lon="2.42451016791164875030517578125">
        <ele>614.4000244140625</ele>
        <time>2020-08-09T07:14:57.000Z</time>
      </trkpt>
      <trkpt lat="42.26351447403430938720703125" lon="2.4242846108973026275634765625">
        <ele>613.79998779296875</ele>
        <time>2020-08-09T07:15:00.000Z</time>
      </trkpt>
      <trkpt lat="42.26353551261126995086669921875" lon="2.42419349960982799530029296875">
        <ele>613.4000244140625</ele>
        <time>2020-08-09T07:15:01.000Z</time>
      </trkpt>
      <trkpt lat="42.2635491751134395599365234375" lon="2.424097694456577301025390625">
        <ele>612.79998779296875</ele>
        <time>2020-08-09T07:15:02.000Z</time>
      </trkpt>
      <trkpt lat="42.263548336923122406005859375" lon="2.42400742135941982269287109375">
        <ele>612.20001220703125</ele>
        <time>2020-08-09T07:15:03.000Z</time>
      </trkpt>
      <trkpt lat="42.263515479862689971923828125" lon="2.42385822348296642303466796875">
        <ele>611.5999755859375</ele>
        <time>2020-08-09T07:15:05.000Z</time>
      </trkpt>
      <trkpt lat="42.26348186843097209930419921875" lon="2.423739619553089141845703125">
        <ele>612</ele>
        <time>2020-08-09T07:15:07.000Z</time>
      </trkpt>
      <trkpt lat="42.26345404051244258880615234375" lon="2.4235409684479236602783203125">
        <ele>613</ele>
        <time>2020-08-09T07:15:12.000Z</time>
      </trkpt>
      <trkpt lat="42.26345370523631572723388671875" lon="2.42347919382154941558837890625">
        <ele>613.79998779296875</ele>
        <time>2020-08-09T07:15:14.000Z</time>
      </trkpt>
      <trkpt lat="42.263467870652675628662109375" lon="2.42321214638650417327880859375">
        <ele>614.79998779296875</ele>
        <time>2020-08-09T07:15:23.000Z</time>
      </trkpt>
      <trkpt lat="42.2634700499475002288818359375" lon="2.4231838993728160858154296875">
        <ele>614.79998779296875</ele>
        <time>2020-08-09T07:15:24.000Z</time>
      </trkpt>
      <trkpt lat="42.26348773576319217681884765625" lon="2.4228989146649837493896484375">
        <ele>615.20001220703125</ele>
        <time>2020-08-09T07:15:34.000Z</time>
      </trkpt>
      <trkpt lat="42.2634901665151119232177734375" lon="2.422677464783191680908203125">
        <ele>615.79998779296875</ele>
        <time>2020-08-09T07:15:42.000Z</time>
      </trkpt>
      <trkpt lat="42.26348756812512874603271484375" lon="2.4226508103311061859130859375">
        <ele>615.79998779296875</ele>
        <time>2020-08-09T07:15:43.000Z</time>
      </trkpt>
      <trkpt lat="42.26346393115818500518798828125" lon="2.4223752133548259735107421875">
        <ele>616.5999755859375</ele>
        <time>2020-08-09T07:15:53.000Z</time>
      </trkpt>
      <trkpt lat="42.2634516097605228424072265625" lon="2.42223515175282955169677734375">
        <ele>616.79998779296875</ele>
        <time>2020-08-09T07:15:58.000Z</time>
      </trkpt>
      <trkpt lat="42.26343979127705097198486328125" lon="2.4220986105501651763916015625">
        <ele>617.20001220703125</ele>
        <time>2020-08-09T07:16:03.000Z</time>
      </trkpt>
      <trkpt lat="42.26342688314616680145263671875" lon="2.42188545875251293182373046875">
        <ele>617.79998779296875</ele>
        <time>2020-08-09T07:16:11.000Z</time>
      </trkpt>
      <trkpt lat="42.2634284757077693939208984375" lon="2.42185897193849086761474609375">
        <ele>618</ele>
        <time>2020-08-09T07:16:12.000Z</time>
      </trkpt>
      <trkpt lat="42.26342805661261081695556640625" lon="2.4216154776513576507568359375">
        <ele>618.5999755859375</ele>
        <time>2020-08-09T07:16:21.000Z</time>
      </trkpt>
      <trkpt lat="42.26343727670609951019287109375" lon="2.42153660394251346588134765625">
        <ele>618.79998779296875</ele>
        <time>2020-08-09T07:16:24.000Z</time>
      </trkpt>
      <trkpt lat="42.26342855952680110931396484375" lon="2.4214325845241546630859375">
        <ele>619.4000244140625</ele>
        <time>2020-08-09T07:16:28.000Z</time>
      </trkpt>
      <trkpt lat="42.26343803107738494873046875" lon="2.42133057676255702972412109375">
        <ele>619.79998779296875</ele>
        <time>2020-08-09T07:16:32.000Z</time>
      </trkpt>
      <trkpt lat="42.26344565860927104949951171875" lon="2.42125027813017368316650390625">
        <ele>620</ele>
        <time>2020-08-09T07:16:35.000Z</time>
      </trkpt>
      <trkpt lat="42.2634452395141124725341796875" lon="2.421112395823001861572265625">
        <ele>620.79998779296875</ele>
        <time>2020-08-09T07:16:41.000Z</time>
      </trkpt>
      <trkpt lat="42.263465188443660736083984375" lon="2.42095959372818470001220703125">
        <ele>621.79998779296875</ele>
        <time>2020-08-09T07:16:48.000Z</time>
      </trkpt>
      <trkpt lat="42.26346845738589763641357421875" lon="2.42093780077993869781494140625">
        <ele>621.79998779296875</ele>
        <time>2020-08-09T07:16:49.000Z</time>
      </trkpt>
      <trkpt lat="42.2634666971862316131591796875" lon="2.4208527244627475738525390625">
        <ele>623</ele>
        <time>2020-08-09T07:16:53.000Z</time>
      </trkpt>
      <trkpt lat="42.26346761919558048248291015625" lon="2.42079279385507106781005859375">
        <ele>623.4000244140625</ele>
        <time>2020-08-09T07:16:56.000Z</time>
      </trkpt>
      <trkpt lat="42.26347566582262516021728515625" lon="2.4207316897809505462646484375">
        <ele>624</ele>
        <time>2020-08-09T07:16:59.000Z</time>
      </trkpt>
      <trkpt lat="42.26349276490509510040283203125" lon="2.42062465287744998931884765625">
        <ele>625</ele>
        <time>2020-08-09T07:17:04.000Z</time>
      </trkpt>
      <trkpt lat="42.2634975425899028778076171875" lon="2.420602105557918548583984375">
        <ele>625</ele>
        <time>2020-08-09T07:17:05.000Z</time>
      </trkpt>
      <trkpt lat="42.26350433193147182464599609375" lon="2.42049288935959339141845703125">
        <ele>626.20001220703125</ele>
        <time>2020-08-09T07:17:10.000Z</time>
      </trkpt>
      <trkpt lat="42.2635129652917385101318359375" lon="2.42045223712921142578125">
        <ele>626.5999755859375</ele>
        <time>2020-08-09T07:17:12.000Z</time>
      </trkpt>
      <trkpt lat="42.26352528668940067291259765625" lon="2.42036917246878147125244140625">
        <ele>627.4000244140625</ele>
        <time>2020-08-09T07:17:16.000Z</time>
      </trkpt>
      <trkpt lat="42.26354506798088550567626953125" lon="2.42024394683539867401123046875">
        <ele>628.5999755859375</ele>
        <time>2020-08-09T07:17:22.000Z</time>
      </trkpt>
      <trkpt lat="42.26357205770909786224365234375" lon="2.420064322650432586669921875">
        <ele>629.5999755859375</ele>
        <time>2020-08-09T07:17:30.000Z</time>
      </trkpt>
      <trkpt lat="42.263576500117778778076171875" lon="2.42004227824509143829345703125">
        <ele>630</ele>
        <time>2020-08-09T07:17:31.000Z</time>
      </trkpt>
      <trkpt lat="42.263593263924121856689453125" lon="2.41990431211888790130615234375">
        <ele>630.5999755859375</ele>
        <time>2020-08-09T07:17:37.000Z</time>
      </trkpt>
      <trkpt lat="42.263589240610599517822265625" lon="2.41980909369885921478271484375">
        <ele>631.20001220703125</ele>
        <time>2020-08-09T07:17:41.000Z</time>
      </trkpt>
      <trkpt lat="42.2635929286479949951171875" lon="2.41973382420837879180908203125">
        <ele>631.5999755859375</ele>
        <time>2020-08-09T07:17:44.000Z</time>
      </trkpt>
      <trkpt lat="42.26359401829540729522705078125" lon="2.41957825608551502227783203125">
        <ele>632.20001220703125</ele>
        <time>2020-08-09T07:17:50.000Z</time>
      </trkpt>
      <trkpt lat="42.26360701024532318115234375" lon="2.41934574209153652191162109375">
        <ele>632.5999755859375</ele>
        <time>2020-08-09T07:17:59.000Z</time>
      </trkpt>
      <trkpt lat="42.26361363194882869720458984375" lon="2.41909327916800975799560546875">
        <ele>632.20001220703125</ele>
        <time>2020-08-09T07:18:05.000Z</time>
      </trkpt>
      <trkpt lat="42.26361916400492191314697265625" lon="2.4189614318311214447021484375">
        <ele>631.79998779296875</ele>
        <time>2020-08-09T07:18:07.000Z</time>
      </trkpt>
      <trkpt lat="42.26365218870341777801513671875" lon="2.41882422007620334625244140625">
        <ele>631.20001220703125</ele>
        <time>2020-08-09T07:18:09.000Z</time>
      </trkpt>
      <trkpt lat="42.26371723227202892303466796875" lon="2.41870637051761150360107421875">
        <ele>630.5999755859375</ele>
        <time>2020-08-09T07:18:11.000Z</time>
      </trkpt>
      <trkpt lat="42.26380012929439544677734375" lon="2.41860494948923587799072265625">
        <ele>630.20001220703125</ele>
        <time>2020-08-09T07:18:13.000Z</time>
      </trkpt>
      <trkpt lat="42.2638958506286144256591796875" lon="2.41841468028724193572998046875">
        <ele>629.4000244140625</ele>
        <time>2020-08-09T07:18:16.000Z</time>
      </trkpt>
      <trkpt lat="42.26391152478754520416259765625" lon="2.4183364771306514739990234375">
        <ele>628.79998779296875</ele>
        <time>2020-08-09T07:18:17.000Z</time>
      </trkpt>
      <trkpt lat="42.26392108015716075897216796875" lon="2.41827000863850116729736328125">
        <ele>627.79998779296875</ele>
        <time>2020-08-09T07:18:18.000Z</time>
      </trkpt>
      <trkpt lat="42.2639186494052410125732421875" lon="2.418163307011127471923828125">
        <ele>626</ele>
        <time>2020-08-09T07:18:20.000Z</time>
      </trkpt>
      <trkpt lat="42.2639045678079128265380859375" lon="2.41811645217239856719970703125">
        <ele>625.5999755859375</ele>
        <time>2020-08-09T07:18:21.000Z</time>
      </trkpt>
      <trkpt lat="42.2638422064483165740966796875" lon="2.4180276878178119659423828125">
        <ele>624.79998779296875</ele>
        <time>2020-08-09T07:18:23.000Z</time>
      </trkpt>
      <trkpt lat="42.2637131251394748687744140625" lon="2.41799198091030120849609375">
        <ele>624</ele>
        <time>2020-08-09T07:18:26.000Z</time>
      </trkpt>
      <trkpt lat="42.26367079652845859527587890625" lon="2.417987287044525146484375">
        <ele>623.79998779296875</ele>
        <time>2020-08-09T07:18:27.000Z</time>
      </trkpt>
      <trkpt lat="42.26354339160025119781494140625" lon="2.41789919324219226837158203125">
        <ele>623.5999755859375</ele>
        <time>2020-08-09T07:18:31.000Z</time>
      </trkpt>
      <trkpt lat="42.263527549803256988525390625" lon="2.4178684316575527191162109375">
        <ele>623.5999755859375</ele>
        <time>2020-08-09T07:18:32.000Z</time>
      </trkpt>
      <trkpt lat="42.26350114680826663970947265625" lon="2.4177507497370243072509765625">
        <ele>624.20001220703125</ele>
        <time>2020-08-09T07:18:36.000Z</time>
      </trkpt>
      <trkpt lat="42.26351321674883365631103515625" lon="2.41763968952000141143798828125">
        <ele>625</ele>
        <time>2020-08-09T07:18:40.000Z</time>
      </trkpt>
      <trkpt lat="42.26353081874549388885498046875" lon="2.4175616540014743804931640625">
        <ele>625.20001220703125</ele>
        <time>2020-08-09T07:18:43.000Z</time>
      </trkpt>
      <trkpt lat="42.2635588981211185455322265625" lon="2.417418323457241058349609375">
        <ele>625.79998779296875</ele>
        <time>2020-08-09T07:18:49.000Z</time>
      </trkpt>
      <trkpt lat="42.26356904022395610809326171875" lon="2.41734950803220272064208984375">
        <ele>626.5999755859375</ele>
        <time>2020-08-09T07:18:52.000Z</time>
      </trkpt>
      <trkpt lat="42.2635702975094318389892578125" lon="2.41732813417911529541015625">
        <ele>626.79998779296875</ele>
        <time>2020-08-09T07:18:53.000Z</time>
      </trkpt>
      <trkpt lat="42.26357993669807910919189453125" lon="2.41724305786192417144775390625">
        <ele>628</ele>
        <time>2020-08-09T07:18:57.000Z</time>
      </trkpt>
      <trkpt lat="42.2635880671441555023193359375" lon="2.41715823300182819366455078125">
        <ele>628.79998779296875</ele>
        <time>2020-08-09T07:19:01.000Z</time>
      </trkpt>
      <trkpt lat="42.26359267719089984893798828125" lon="2.4171385355293750762939453125">
        <ele>629</ele>
        <time>2020-08-09T07:19:02.000Z</time>
      </trkpt>
      <trkpt lat="42.26360776461660861968994140625" lon="2.4170399643480777740478515625">
        <ele>630</ele>
        <time>2020-08-09T07:19:07.000Z</time>
      </trkpt>
      <trkpt lat="42.26361061446368694305419921875" lon="2.4170205183327198028564453125">
        <ele>630</ele>
        <time>2020-08-09T07:19:08.000Z</time>
      </trkpt>
      <trkpt lat="42.2636112011969089508056640625" lon="2.4168961308896541595458984375">
        <ele>631.20001220703125</ele>
        <time>2020-08-09T07:19:14.000Z</time>
      </trkpt>
      <trkpt lat="42.26363140158355236053466796875" lon="2.41675439290702342987060546875">
        <ele>632.4000244140625</ele>
        <time>2020-08-09T07:19:21.000Z</time>
      </trkpt>
      <trkpt lat="42.26363559253513813018798828125" lon="2.4167123995721340179443359375">
        <ele>632.4000244140625</ele>
        <time>2020-08-09T07:19:23.000Z</time>
      </trkpt>
      <trkpt lat="42.26365269161760807037353515625" lon="2.41661039181053638458251953125">
        <ele>633.20001220703125</ele>
        <time>2020-08-09T07:19:28.000Z</time>
      </trkpt>
      <trkpt lat="42.2636574693024158477783203125" lon="2.41654903627932071685791015625">
        <ele>633.5999755859375</ele>
        <time>2020-08-09T07:19:31.000Z</time>
      </trkpt>
      <trkpt lat="42.263669706881046295166015625" lon="2.41642154753208160400390625">
        <ele>634.20001220703125</ele>
        <time>2020-08-09T07:19:37.000Z</time>
      </trkpt>
      <trkpt lat="42.26367616094648838043212890625" lon="2.41637905128300189971923828125">
        <ele>634.5999755859375</ele>
        <time>2020-08-09T07:19:39.000Z</time>
      </trkpt>
      <trkpt lat="42.26369577459990978240966796875" lon="2.416275702416896820068359375">
        <ele>635.4000244140625</ele>
        <time>2020-08-09T07:19:44.000Z</time>
      </trkpt>
      <trkpt lat="42.2637023963034152984619140625" lon="2.41623647511005401611328125">
        <ele>635.79998779296875</ele>
        <time>2020-08-09T07:19:46.000Z</time>
      </trkpt>
      <trkpt lat="42.26371228694915771484375" lon="2.4161749519407749176025390625">
        <ele>636.4000244140625</ele>
        <time>2020-08-09T07:19:49.000Z</time>
      </trkpt>
      <trkpt lat="42.26374455727636814117431640625" lon="2.41607780568301677703857421875">
        <ele>637.20001220703125</ele>
        <time>2020-08-09T07:19:54.000Z</time>
      </trkpt>
      <trkpt lat="42.2637498378753662109375" lon="2.41605835966765880584716796875">
        <ele>637.4000244140625</ele>
        <time>2020-08-09T07:19:55.000Z</time>
      </trkpt>
      <trkpt lat="42.2637940943241119384765625" lon="2.41595040075480937957763671875">
        <ele>638.5999755859375</ele>
        <time>2020-08-09T07:20:01.000Z</time>
      </trkpt>
      <trkpt lat="42.263805828988552093505859375" lon="2.41591318510472774505615234375">
        <ele>639</ele>
        <time>2020-08-09T07:20:03.000Z</time>
      </trkpt>
      <trkpt lat="42.263828627765178680419921875" lon="2.41585803218185901641845703125">
        <ele>639.79998779296875</ele>
        <time>2020-08-09T07:20:06.000Z</time>
      </trkpt>
      <trkpt lat="42.26386676542460918426513671875" lon="2.415764071047306060791015625">
        <ele>640.5999755859375</ele>
        <time>2020-08-09T07:20:11.000Z</time>
      </trkpt>
      <trkpt lat="42.26388252340257167816162109375" lon="2.4157263524830341339111328125">
        <ele>640.79998779296875</ele>
        <time>2020-08-09T07:20:13.000Z</time>
      </trkpt>
      <trkpt lat="42.26389979012310504913330078125" lon="2.4155966006219387054443359375">
        <ele>641.5999755859375</ele>
        <time>2020-08-09T07:20:19.000Z</time>
      </trkpt>
      <trkpt lat="42.2639038972556591033935546875" lon="2.4155278690159320831298828125">
        <ele>642</ele>
        <time>2020-08-09T07:20:22.000Z</time>
      </trkpt>
      <trkpt lat="42.26391085423529148101806640625" lon="2.41540892980992794036865234375">
        <ele>642.4000244140625</ele>
        <time>2020-08-09T07:20:27.000Z</time>
      </trkpt>
      <trkpt lat="42.26390951313078403472900390625" lon="2.41526258178055286407470703125">
        <ele>643</ele>
        <time>2020-08-09T07:20:33.000Z</time>
      </trkpt>
      <trkpt lat="42.26390129886567592620849609375" lon="2.4152177385985851287841796875">
        <ele>643.20001220703125</ele>
        <time>2020-08-09T07:20:35.000Z</time>
      </trkpt>
      <trkpt lat="42.2638968564569950103759765625" lon="2.41510081104934215545654296875">
        <ele>643.79998779296875</ele>
        <time>2020-08-09T07:20:40.000Z</time>
      </trkpt>
      <trkpt lat="42.2638901509344577789306640625" lon="2.41505169309675693511962890625">
        <ele>644</ele>
        <time>2020-08-09T07:20:42.000Z</time>
      </trkpt>
      <trkpt lat="42.2638745605945587158203125" lon="2.41481616161763668060302734375">
        <ele>644.79998779296875</ele>
        <time>2020-08-09T07:20:51.000Z</time>
      </trkpt>
      <trkpt lat="42.2638760693371295928955078125" lon="2.41476000286638736724853515625">
        <ele>644.79998779296875</ele>
        <time>2020-08-09T07:20:53.000Z</time>
      </trkpt>
      <trkpt lat="42.2638774104416370391845703125" lon="2.414569817483425140380859375">
        <ele>645.20001220703125</ele>
        <time>2020-08-09T07:21:00.000Z</time>
      </trkpt>
      <trkpt lat="42.26386860944330692291259765625" lon="2.41439069621264934539794921875">
        <ele>646</ele>
        <time>2020-08-09T07:21:07.000Z</time>
      </trkpt>
      <trkpt lat="42.2638723812997341156005859375" lon="2.41432003676891326904296875">
        <ele>646.20001220703125</ele>
        <time>2020-08-09T07:21:10.000Z</time>
      </trkpt>
      <trkpt lat="42.26388855837285518646240234375" lon="2.414201013743877410888671875">
        <ele>647.20001220703125</ele>
        <time>2020-08-09T07:21:15.000Z</time>
      </trkpt>
      <trkpt lat="42.263897024095058441162109375" lon="2.41415667347609996795654296875">
        <ele>647.5999755859375</ele>
        <time>2020-08-09T07:21:17.000Z</time>
      </trkpt>
      <trkpt lat="42.26391571573913097381591796875" lon="2.41407134570181369781494140625">
        <ele>648.4000244140625</ele>
        <time>2020-08-09T07:21:21.000Z</time>
      </trkpt>
      <trkpt lat="42.2639550268650054931640625" lon="2.41398283280432224273681640625">
        <ele>649.5999755859375</ele>
        <time>2020-08-09T07:21:26.000Z</time>
      </trkpt>
      <trkpt lat="42.2639860399067401885986328125" lon="2.4138866923749446868896484375">
        <ele>650.79998779296875</ele>
        <time>2020-08-09T07:21:31.000Z</time>
      </trkpt>
      <trkpt lat="42.264004312455654144287109375" lon="2.4138531647622585296630859375">
        <ele>651.20001220703125</ele>
        <time>2020-08-09T07:21:33.000Z</time>
      </trkpt>
      <trkpt lat="42.26402250118553638458251953125" lon="2.41382424719631671905517578125">
        <ele>651.79998779296875</ele>
        <time>2020-08-09T07:21:35.000Z</time>
      </trkpt>
      <trkpt lat="42.26405317895114421844482421875" lon="2.4137787334620952606201171875">
        <ele>652.5999755859375</ele>
        <time>2020-08-09T07:21:38.000Z</time>
      </trkpt>
      <trkpt lat="42.2640705294907093048095703125" lon="2.413743697106838226318359375">
        <ele>653</ele>
        <time>2020-08-09T07:21:40.000Z</time>
      </trkpt>
      <trkpt lat="42.264118976891040802001953125" lon="2.41366012953221797943115234375">
        <ele>654</ele>
        <time>2020-08-09T07:21:45.000Z</time>
      </trkpt>
      <trkpt lat="42.264184020459651947021484375" lon="2.41356457583606243133544921875">
        <ele>655.20001220703125</ele>
        <time>2020-08-09T07:21:51.000Z</time>
      </trkpt>
      <trkpt lat="42.26420572958886623382568359375" lon="2.4135373346507549285888671875">
        <ele>655.5999755859375</ele>
        <time>2020-08-09T07:21:53.000Z</time>
      </trkpt>
      <trkpt lat="42.26428871043026447296142578125" lon="2.41346214897930622100830078125">
        <ele>656.20001220703125</ele>
        <time>2020-08-09T07:22:00.000Z</time>
      </trkpt>
      <trkpt lat="42.264304719865322113037109375" lon="2.4134528450667858123779296875">
        <ele>656.4000244140625</ele>
        <time>2020-08-09T07:22:01.000Z</time>
      </trkpt>
      <trkpt lat="42.26440421305596828460693359375" lon="2.413366176187992095947265625">
        <ele>656.20001220703125</ele>
        <time>2020-08-09T07:22:06.000Z</time>
      </trkpt>
      <trkpt lat="42.26445727050304412841796875" lon="2.41323600523173809051513671875">
        <ele>655.79998779296875</ele>
        <time>2020-08-09T07:22:09.000Z</time>
      </trkpt>
      <trkpt lat="42.2644581086933612823486328125" lon="2.413182444870471954345703125">
        <ele>655.79998779296875</ele>
        <time>2020-08-09T07:22:10.000Z</time>
      </trkpt>
      <trkpt lat="42.26442080922424793243408203125" lon="2.41303081624209880828857421875">
        <ele>655.5999755859375</ele>
        <time>2020-08-09T07:22:14.000Z</time>
      </trkpt>
      <trkpt lat="42.26441510953009128570556640625" lon="2.41300768218934535980224609375">
        <ele>655.79998779296875</ele>
        <time>2020-08-09T07:22:15.000Z</time>
      </trkpt>
      <trkpt lat="42.2643675841391086578369140625" lon="2.41289150901138782501220703125">
        <ele>657.20001220703125</ele>
        <time>2020-08-09T07:22:21.000Z</time>
      </trkpt>
      <trkpt lat="42.26435475982725620269775390625" lon="2.41287767887115478515625">
        <ele>657.4000244140625</ele>
        <time>2020-08-09T07:22:22.000Z</time>
      </trkpt>
      <trkpt lat="42.26429239846765995025634765625" lon="2.41280869580805301666259765625">
        <ele>658.4000244140625</ele>
        <time>2020-08-09T07:22:27.000Z</time>
      </trkpt>
      <trkpt lat="42.26427932269871234893798828125" lon="2.41279679350554943084716796875">
        <ele>658.5999755859375</ele>
        <time>2020-08-09T07:22:28.000Z</time>
      </trkpt>
      <trkpt lat="42.2642178833484649658203125" lon="2.41272621788084506988525390625">
        <ele>659.4000244140625</ele>
        <time>2020-08-09T07:22:33.000Z</time>
      </trkpt>
      <trkpt lat="42.2642006166279315948486328125" lon="2.41271632723510265350341796875">
        <ele>659.5999755859375</ele>
        <time>2020-08-09T07:22:34.000Z</time>
      </trkpt>
      <trkpt lat="42.264182008802890777587890625" lon="2.41270693950355052947998046875">
        <ele>659.4000244140625</ele>
        <time>2020-08-09T07:22:38.000Z</time>
      </trkpt>
      <trkpt lat="42.264157198369503021240234375" lon="2.41270073689520359039306640625">
        <ele>659.4000244140625</ele>
        <time>2020-08-09T07:22:55.000Z</time>
      </trkpt>
      <trkpt lat="42.26407581008970737457275390625" lon="2.41260970942676067352294921875">
        <ele>659.20001220703125</ele>
        <time>2020-08-09T07:23:00.000Z</time>
      </trkpt>
      <trkpt lat="42.26403306238353252410888671875" lon="2.412493117153644561767578125">
        <ele>658</ele>
        <time>2020-08-09T07:23:03.000Z</time>
      </trkpt>
      <trkpt lat="42.26400556974112987518310546875" lon="2.41233662702143192291259765625">
        <ele>657.20001220703125</ele>
        <time>2020-08-09T07:23:06.000Z</time>
      </trkpt>
      <trkpt lat="42.26399190723896026611328125" lon="2.41227426566183567047119140625">
        <ele>657</ele>
        <time>2020-08-09T07:23:07.000Z</time>
      </trkpt>
      <trkpt lat="42.26397338323295116424560546875" lon="2.41220972500741481781005859375">
        <ele>656.5999755859375</ele>
        <time>2020-08-09T07:23:08.000Z</time>
      </trkpt>
      <trkpt lat="42.26392040960490703582763671875" lon="2.4120792187750339508056640625">
        <ele>656</ele>
        <time>2020-08-09T07:23:10.000Z</time>
      </trkpt>
      <trkpt lat="42.2638891451060771942138671875" lon="2.41201844997704029083251953125">
        <ele>655.79998779296875</ele>
        <time>2020-08-09T07:23:11.000Z</time>
      </trkpt>
      <trkpt lat="42.26385511457920074462890625" lon="2.411960698664188385009765625">
        <ele>655.4000244140625</ele>
        <time>2020-08-09T07:23:12.000Z</time>
      </trkpt>
      <trkpt lat="42.26373952813446521759033203125" lon="2.4118337966501712799072265625">
        <ele>654.20001220703125</ele>
        <time>2020-08-09T07:23:15.000Z</time>
      </trkpt>
      <trkpt lat="42.26363492198288440704345703125" lon="2.41173028014600276947021484375">
        <ele>653.5999755859375</ele>
        <time>2020-08-09T07:23:18.000Z</time>
      </trkpt>
      <trkpt lat="42.26357750594615936279296875" lon="2.41163221187889575958251953125">
        <ele>653</ele>
        <time>2020-08-09T07:23:20.000Z</time>
      </trkpt>
      <trkpt lat="42.26355697028338909149169921875" lon="2.41156767122447490692138671875">
        <ele>652.5999755859375</ele>
        <time>2020-08-09T07:23:21.000Z</time>
      </trkpt>
      <trkpt lat="42.26354666054248809814453125" lon="2.411407493054866790771484375">
        <ele>651.5999755859375</ele>
        <time>2020-08-09T07:23:23.000Z</time>
      </trkpt>
      <trkpt lat="42.26355697028338909149169921875" lon="2.411317639052867889404296875">
        <ele>651.20001220703125</ele>
        <time>2020-08-09T07:23:24.000Z</time>
      </trkpt>
      <trkpt lat="42.2635743208229541778564453125" lon="2.41122744977474212646484375">
        <ele>650.5999755859375</ele>
        <time>2020-08-09T07:23:25.000Z</time>
      </trkpt>
      <trkpt lat="42.263630144298076629638671875" lon="2.41106961853802204132080078125">
        <ele>649.20001220703125</ele>
        <time>2020-08-09T07:23:27.000Z</time>
      </trkpt>
      <trkpt lat="42.26367540657520294189453125" lon="2.41099954582750797271728515625">
        <ele>648.5999755859375</ele>
        <time>2020-08-09T07:23:28.000Z</time>
      </trkpt>
      <trkpt lat="42.26373198442161083221435546875" lon="2.4109282158315181732177734375">
        <ele>648</ele>
        <time>2020-08-09T07:23:29.000Z</time>
      </trkpt>
      <trkpt lat="42.263790071010589599609375" lon="2.41084934212267398834228515625">
        <ele>647</ele>
        <time>2020-08-09T07:23:30.000Z</time>
      </trkpt>
      <trkpt lat="42.26383893750607967376708984375" lon="2.410761415958404541015625">
        <ele>646</ele>
        <time>2020-08-09T07:23:31.000Z</time>
      </trkpt>
      <trkpt lat="42.263874895870685577392578125" lon="2.41066418588161468505859375">
        <ele>645.20001220703125</ele>
        <time>2020-08-09T07:23:32.000Z</time>
      </trkpt>
      <trkpt lat="42.263899035751819610595703125" lon="2.4105637706816196441650390625">
        <ele>644.20001220703125</ele>
        <time>2020-08-09T07:23:33.000Z</time>
      </trkpt>
      <trkpt lat="42.26392460055649280548095703125" lon="2.41036780178546905517578125">
        <ele>642.79998779296875</ele>
        <time>2020-08-09T07:23:35.000Z</time>
      </trkpt>
      <trkpt lat="42.26393465884029865264892578125" lon="2.41028104908764362335205078125">
        <ele>642.5999755859375</ele>
        <time>2020-08-09T07:23:36.000Z</time>
      </trkpt>
      <trkpt lat="42.2639498300850391387939453125" lon="2.41001249291002750396728515625">
        <ele>642.5999755859375</ele>
        <time>2020-08-09T07:23:40.000Z</time>
      </trkpt>
      <trkpt lat="42.26388386450707912445068359375" lon="2.4097342975437641143798828125">
        <ele>643.5999755859375</ele>
        <time>2020-08-09T07:23:46.000Z</time>
      </trkpt>
      <trkpt lat="42.2638606466352939605712890625" lon="2.4096789769828319549560546875">
        <ele>643.79998779296875</ele>
        <time>2020-08-09T07:23:48.000Z</time>
      </trkpt>
      <trkpt lat="42.26381261833012104034423828125" lon="2.40955777466297149658203125">
        <ele>644.4000244140625</ele>
        <time>2020-08-09T07:23:53.000Z</time>
      </trkpt>
      <trkpt lat="42.2637788392603397369384765625" lon="2.40948510356247425079345703125">
        <ele>645</ele>
        <time>2020-08-09T07:23:56.000Z</time>
      </trkpt>
      <trkpt lat="42.2637332417070865631103515625" lon="2.4093899689614772796630859375">
        <ele>645.4000244140625</ele>
        <time>2020-08-09T07:24:00.000Z</time>
      </trkpt>
      <trkpt lat="42.26368504576385021209716796875" lon="2.40927186794579029083251953125">
        <ele>645.79998779296875</ele>
        <time>2020-08-09T07:24:05.000Z</time>
      </trkpt>
      <trkpt lat="42.26364699192345142364501953125" lon="2.4091507494449615478515625">
        <ele>646.4000244140625</ele>
        <time>2020-08-09T07:24:10.000Z</time>
      </trkpt>
      <trkpt lat="42.263631485402584075927734375" lon="2.4090798385441303253173828125">
        <ele>646.79998779296875</ele>
        <time>2020-08-09T07:24:13.000Z</time>
      </trkpt>
      <trkpt lat="42.26361329667270183563232421875" lon="2.4089618213474750518798828125">
        <ele>647.79998779296875</ele>
        <time>2020-08-09T07:24:18.000Z</time>
      </trkpt>
      <trkpt lat="42.26360994391143321990966796875" lon="2.40893826819956302642822265625">
        <ele>648</ele>
        <time>2020-08-09T07:24:19.000Z</time>
      </trkpt>
      <trkpt lat="42.26362176239490509033203125" lon="2.408821843564510345458984375">
        <ele>648.4000244140625</ele>
        <time>2020-08-09T07:24:24.000Z</time>
      </trkpt>
      <trkpt lat="42.26362444460391998291015625" lon="2.4087489210069179534912109375">
        <ele>649</ele>
        <time>2020-08-09T07:24:27.000Z</time>
      </trkpt>
      <trkpt lat="42.26363810710608959197998046875" lon="2.40860517136752605438232421875">
        <ele>649.5999755859375</ele>
        <time>2020-08-09T07:24:33.000Z</time>
      </trkpt>
      <trkpt lat="42.2636492550373077392578125" lon="2.40845739841461181640625">
        <ele>650.20001220703125</ele>
        <time>2020-08-09T07:24:39.000Z</time>
      </trkpt>
      <trkpt lat="42.26365235634148120880126953125" lon="2.40838422439992427825927734375">
        <ele>650.5999755859375</ele>
        <time>2020-08-09T07:24:42.000Z</time>
      </trkpt>
      <trkpt lat="42.26366191171109676361083984375" lon="2.40826360881328582763671875">
        <ele>651.4000244140625</ele>
        <time>2020-08-09T07:24:47.000Z</time>
      </trkpt>
      <trkpt lat="42.26367431692779064178466796875" lon="2.4081745930016040802001953125">
        <ele>652.20001220703125</ele>
        <time>2020-08-09T07:24:51.000Z</time>
      </trkpt>
      <trkpt lat="42.26368169300258159637451171875" lon="2.408129833638668060302734375">
        <ele>652.4000244140625</ele>
        <time>2020-08-09T07:24:53.000Z</time>
      </trkpt>
      <trkpt lat="42.2637020610272884368896484375" lon="2.40797535516321659088134765625">
        <ele>653.4000244140625</ele>
        <time>2020-08-09T07:25:00.000Z</time>
      </trkpt>
      <trkpt lat="42.26371002383530139923095703125" lon="2.40793193690478801727294921875">
        <ele>653.79998779296875</ele>
        <time>2020-08-09T07:25:02.000Z</time>
      </trkpt>
      <trkpt lat="42.2637377679347991943359375" lon="2.4078500457108020782470703125">
        <ele>654.5999755859375</ele>
        <time>2020-08-09T07:25:06.000Z</time>
      </trkpt>
      <trkpt lat="42.26375645957887172698974609375" lon="2.4077860079705715179443359375">
        <ele>655</ele>
        <time>2020-08-09T07:25:09.000Z</time>
      </trkpt>
      <trkpt lat="42.26378713734447956085205078125" lon="2.40768047980964183807373046875">
        <ele>655.5999755859375</ele>
        <time>2020-08-09T07:25:14.000Z</time>
      </trkpt>
      <trkpt lat="42.263805158436298370361328125" lon="2.40761845372617244720458984375">
        <ele>656</ele>
        <time>2020-08-09T07:25:17.000Z</time>
      </trkpt>
      <trkpt lat="42.2638539411127567291259765625" lon="2.40752558223903179168701171875">
        <ele>656.79998779296875</ele>
        <time>2020-08-09T07:25:22.000Z</time>
      </trkpt>
      <trkpt lat="42.26387397386133670806884765625" lon="2.40749037824571132659912109375">
        <ele>657</ele>
        <time>2020-08-09T07:25:24.000Z</time>
      </trkpt>
      <trkpt lat="42.26394186727702617645263671875" lon="2.4073283560574054718017578125">
        <ele>657.79998779296875</ele>
        <time>2020-08-09T07:25:32.000Z</time>
      </trkpt>
      <trkpt lat="42.2639603912830352783203125" lon="2.407287620007991790771484375">
        <ele>658</ele>
        <time>2020-08-09T07:25:34.000Z</time>
      </trkpt>
      <trkpt lat="42.26404395885765552520751953125" lon="2.40712425671517848968505859375">
        <ele>658.20001220703125</ele>
        <time>2020-08-09T07:25:42.000Z</time>
      </trkpt>
      <trkpt lat="42.26408184505999088287353515625" lon="2.4070396833121776580810546875">
        <ele>659</ele>
        <time>2020-08-09T07:25:46.000Z</time>
      </trkpt>
      <trkpt lat="42.26412727497518062591552734375" lon="2.4069387651979923248291015625">
        <ele>659.4000244140625</ele>
        <time>2020-08-09T07:25:51.000Z</time>
      </trkpt>
      <trkpt lat="42.26415225304663181304931640625" lon="2.4068837799131870269775390625">
        <ele>660</ele>
        <time>2020-08-09T07:25:54.000Z</time>
      </trkpt>
      <trkpt lat="42.264181673526763916015625" lon="2.40678663365542888641357421875">
        <ele>660.79998779296875</ele>
        <time>2020-08-09T07:25:59.000Z</time>
      </trkpt>
      <trkpt lat="42.26419852115213871002197265625" lon="2.4067533574998378753662109375">
        <ele>661.20001220703125</ele>
        <time>2020-08-09T07:26:01.000Z</time>
      </trkpt>
      <trkpt lat="42.2642411850392818450927734375" lon="2.40664347074925899505615234375">
        <ele>662</ele>
        <time>2020-08-09T07:26:07.000Z</time>
      </trkpt>
      <trkpt lat="42.264248393476009368896484375" lon="2.40662620402872562408447265625">
        <ele>662</ele>
        <time>2020-08-09T07:26:08.000Z</time>
      </trkpt>
      <trkpt lat="42.2642569430172443389892578125" lon="2.40660977549850940704345703125">
        <ele>662.20001220703125</ele>
        <time>2020-08-09T07:26:09.000Z</time>
      </trkpt>
      <trkpt lat="42.2642854414880275726318359375" lon="2.40653953514993190765380859375">
        <ele>662.79998779296875</ele>
        <time>2020-08-09T07:26:13.000Z</time>
      </trkpt>
      <trkpt lat="42.26430664770305156707763671875" lon="2.406462840735912322998046875">
        <ele>663.4000244140625</ele>
        <time>2020-08-09T07:26:17.000Z</time>
      </trkpt>
      <trkpt lat="42.2643360681831836700439453125" lon="2.4063476733863353729248046875">
        <ele>664.20001220703125</ele>
        <time>2020-08-09T07:26:23.000Z</time>
      </trkpt>
      <trkpt lat="42.26434193551540374755859375" lon="2.40630484186112880706787109375">
        <ele>664.4000244140625</ele>
        <time>2020-08-09T07:26:25.000Z</time>
      </trkpt>
      <trkpt lat="42.26436833851039409637451171875" lon="2.40620392374694347381591796875">
        <ele>665.20001220703125</ele>
        <time>2020-08-09T07:26:30.000Z</time>
      </trkpt>
      <trkpt lat="42.26438610814511775970458984375" lon="2.40614541806280612945556640625">
        <ele>665.5999755859375</ele>
        <time>2020-08-09T07:26:33.000Z</time>
      </trkpt>
      <trkpt lat="42.26440622471272945404052734375" lon="2.40602304227650165557861328125">
        <ele>666.4000244140625</ele>
        <time>2020-08-09T07:26:39.000Z</time>
      </trkpt>
      <trkpt lat="42.26440974511206150054931640625" lon="2.40600292570888996124267578125">
        <ele>666.79998779296875</ele>
        <time>2020-08-09T07:26:40.000Z</time>
      </trkpt>
      <trkpt lat="42.2644366510212421417236328125" lon="2.40589831955730915069580078125">
        <ele>667.4000244140625</ele>
        <time>2020-08-09T07:26:45.000Z</time>
      </trkpt>
      <trkpt lat="42.26445458829402923583984375" lon="2.4058350361883640289306640625">
        <ele>667.79998779296875</ele>
        <time>2020-08-09T07:26:48.000Z</time>
      </trkpt>
      <trkpt lat="42.26447738707065582275390625" lon="2.4057274125516414642333984375">
        <ele>668.5999755859375</ele>
        <time>2020-08-09T07:26:53.000Z</time>
      </trkpt>
      <trkpt lat="42.2644866071641445159912109375" lon="2.40568357519805431365966796875">
        <ele>669</ele>
        <time>2020-08-09T07:26:55.000Z</time>
      </trkpt>
      <trkpt lat="42.26451066322624683380126953125" lon="2.40554074756801128387451171875">
        <ele>670.20001220703125</ele>
        <time>2020-08-09T07:27:02.000Z</time>
      </trkpt>
      <trkpt lat="42.26451485417783260345458984375" lon="2.405521385371685028076171875">
        <ele>670.4000244140625</ele>
        <time>2020-08-09T07:27:03.000Z</time>
      </trkpt>
      <trkpt lat="42.26452994160354137420654296875" lon="2.4054427631199359893798828125">
        <ele>671.20001220703125</ele>
        <time>2020-08-09T07:27:07.000Z</time>
      </trkpt>
      <trkpt lat="42.26453715004026889801025390625" lon="2.405383251607418060302734375">
        <ele>671.5999755859375</ele>
        <time>2020-08-09T07:27:10.000Z</time>
      </trkpt>
      <trkpt lat="42.26456028409302234649658203125" lon="2.40528945811092853546142578125">
        <ele>672.20001220703125</ele>
        <time>2020-08-09T07:27:15.000Z</time>
      </trkpt>
      <trkpt lat="42.2645888663828372955322265625" lon="2.4052013643085956573486328125">
        <ele>673.20001220703125</ele>
        <time>2020-08-09T07:27:20.000Z</time>
      </trkpt>
      <trkpt lat="42.2645960748195648193359375" lon="2.40518351085484027862548828125">
        <ele>673.20001220703125</ele>
        <time>2020-08-09T07:27:21.000Z</time>
      </trkpt>
      <trkpt lat="42.2646270878612995147705078125" lon="2.40504101850092411041259765625">
        <ele>674.20001220703125</ele>
        <time>2020-08-09T07:27:28.000Z</time>
      </trkpt>
      <trkpt lat="42.26463203318417072296142578125" lon="2.405000366270542144775390625">
        <ele>674.4000244140625</ele>
        <time>2020-08-09T07:27:30.000Z</time>
      </trkpt>
      <trkpt lat="42.26467260159552097320556640625" lon="2.40484236739575862884521484375">
        <ele>675.4000244140625</ele>
        <time>2020-08-09T07:27:38.000Z</time>
      </trkpt>
      <trkpt lat="42.26467746309936046600341796875" lon="2.40482040680944919586181640625">
        <ele>675.4000244140625</ele>
        <time>2020-08-09T07:27:39.000Z</time>
      </trkpt>
      <trkpt lat="42.26470914669334888458251953125" lon="2.4046934209764003753662109375">
        <ele>675.5999755859375</ele>
        <time>2020-08-09T07:27:45.000Z</time>
      </trkpt>
      <trkpt lat="42.2647658921778202056884765625" lon="2.40448714233934879302978515625">
        <ele>676.20001220703125</ele>
        <time>2020-08-09T07:27:54.000Z</time>
      </trkpt>
      <trkpt lat="42.26479648612439632415771484375" lon="2.40439116954803466796875">
        <ele>676.4000244140625</ele>
        <time>2020-08-09T07:27:58.000Z</time>
      </trkpt>
      <trkpt lat="42.2648252360522747039794921875" lon="2.40429050289094448089599609375">
        <ele>676.79998779296875</ele>
        <time>2020-08-09T07:28:02.000Z</time>
      </trkpt>
      <trkpt lat="42.2648419998586177825927734375" lon="2.4041331745684146881103515625">
        <ele>677.5999755859375</ele>
        <time>2020-08-09T07:28:08.000Z</time>
      </trkpt>
      <trkpt lat="42.264846861362457275390625" lon="2.40410710684955120086669921875">
        <ele>677.5999755859375</ele>
        <time>2020-08-09T07:28:09.000Z</time>
      </trkpt>
      <trkpt lat="42.26486957632005214691162109375" lon="2.40387559868395328521728515625">
        <ele>678</ele>
        <time>2020-08-09T07:28:17.000Z</time>
      </trkpt>
      <trkpt lat="42.26490930654108524322509765625" lon="2.40364073775708675384521484375">
        <ele>677.79998779296875</ele>
        <time>2020-08-09T07:28:23.000Z</time>
      </trkpt>
      <trkpt lat="42.2649851627647876739501953125" lon="2.403238154947757720947265625">
        <ele>677.20001220703125</ele>
        <time>2020-08-09T07:28:31.000Z</time>
      </trkpt>
      <trkpt lat="42.2650424949824810028076171875" lon="2.4030193872749805450439453125">
        <ele>677.20001220703125</ele>
        <time>2020-08-09T07:28:37.000Z</time>
      </trkpt>
      <trkpt lat="42.26509823463857173919677734375" lon="2.402847222983837127685546875">
        <ele>677.4000244140625</ele>
        <time>2020-08-09T07:28:43.000Z</time>
      </trkpt>
      <trkpt lat="42.2652129828929901123046875" lon="2.40263524465262889862060546875">
        <ele>677.79998779296875</ele>
        <time>2020-08-09T07:28:52.000Z</time>
      </trkpt>
      <trkpt lat="42.26527911610901355743408203125" lon="2.4025023914873600006103515625">
        <ele>678</ele>
        <time>2020-08-09T07:28:58.000Z</time>
      </trkpt>
      <trkpt lat="42.26528230123221874237060546875" lon="2.40246475674211978912353515625">
        <ele>678.20001220703125</ele>
        <time>2020-08-09T07:29:00.000Z</time>
      </trkpt>
      <trkpt lat="42.26530551910400390625" lon="2.4024105258285999298095703125">
        <ele>678.4000244140625</ele>
        <time>2020-08-09T07:29:03.000Z</time>
      </trkpt>
      <trkpt lat="42.26531147025525569915771484375" lon="2.40236601792275905609130859375">
        <ele>678.5999755859375</ele>
        <time>2020-08-09T07:29:05.000Z</time>
      </trkpt>
      <trkpt lat="42.2653050161898136138916015625" lon="2.402323186397552490234375">
        <ele>678.79998779296875</ele>
        <time>2020-08-09T07:29:07.000Z</time>
      </trkpt>
      <trkpt lat="42.26530727930366992950439453125" lon="2.40230047143995761871337890625">
        <ele>678.79998779296875</ele>
        <time>2020-08-09T07:29:08.000Z</time>
      </trkpt>
      <trkpt lat="42.2653123922646045684814453125" lon="2.40211891941726207733154296875">
        <ele>679.5999755859375</ele>
        <time>2020-08-09T07:29:15.000Z</time>
      </trkpt>
      <trkpt lat="42.2653107158839702606201171875" lon="2.40209343843162059783935546875">
        <ele>679.4000244140625</ele>
        <time>2020-08-09T07:29:16.000Z</time>
      </trkpt>
      <trkpt lat="42.2653435729444026947021484375" lon="2.401873581111431121826171875">
        <ele>679.79998779296875</ele>
        <time>2020-08-09T07:29:24.000Z</time>
      </trkpt>
      <trkpt lat="42.26539562456309795379638671875" lon="2.401728741824626922607421875">
        <ele>680.4000244140625</ele>
        <time>2020-08-09T07:29:30.000Z</time>
      </trkpt>
      <trkpt lat="42.265416495501995086669921875" lon="2.4016802944242954254150390625">
        <ele>680.5999755859375</ele>
        <time>2020-08-09T07:29:32.000Z</time>
      </trkpt>
      <trkpt lat="42.2654786892235279083251953125" lon="2.401565127074718475341796875">
        <ele>681.4000244140625</ele>
        <time>2020-08-09T07:29:37.000Z</time>
      </trkpt>
      <trkpt lat="42.26555588655173778533935546875" lon="2.4014328606426715850830078125">
        <ele>681.79998779296875</ele>
        <time>2020-08-09T07:29:43.000Z</time>
      </trkpt>
      <trkpt lat="42.26567792706191539764404296875" lon="2.40127050317823886871337890625">
        <ele>682.4000244140625</ele>
        <time>2020-08-09T07:29:51.000Z</time>
      </trkpt>
      <trkpt lat="42.2656942717730998992919921875" lon="2.40125038661062717437744140625">
        <ele>682.4000244140625</ele>
        <time>2020-08-09T07:29:52.000Z</time>
      </trkpt>
      <trkpt lat="42.26582880131900310516357421875" lon="2.40114192478358745574951171875">
        <ele>683.20001220703125</ele>
        <time>2020-08-09T07:29:59.000Z</time>
      </trkpt>
      <trkpt lat="42.26593759842216968536376953125" lon="2.40111476741731166839599609375">
        <ele>683.5999755859375</ele>
        <time>2020-08-09T07:30:04.000Z</time>
      </trkpt>
      <trkpt lat="42.26601588539779186248779296875" lon="2.4011213891208171844482421875">
        <ele>683.5999755859375</ele>
        <time>2020-08-09T07:30:07.000Z</time>
      </trkpt>
      <trkpt lat="42.2661291249096393585205078125" lon="2.4010960757732391357421875">
        <ele>683.20001220703125</ele>
        <time>2020-08-09T07:30:10.000Z</time>
      </trkpt>
      <trkpt lat="42.26616558618843555450439453125" lon="2.40106598474085330963134765625">
        <ele>683</ele>
        <time>2020-08-09T07:30:11.000Z</time>
      </trkpt>
      <trkpt lat="42.26620950736105442047119140625" lon="2.40091108717024326324462890625">
        <ele>682.5999755859375</ele>
        <time>2020-08-09T07:30:14.000Z</time>
      </trkpt>
      <trkpt lat="42.26615988649427890777587890625" lon="2.400768510997295379638671875">
        <ele>682.4000244140625</ele>
        <time>2020-08-09T07:30:17.000Z</time>
      </trkpt>
      <trkpt lat="42.26614094339311122894287109375" lon="2.40072903223335742950439453125">
        <ele>682.5999755859375</ele>
        <time>2020-08-09T07:30:18.000Z</time>
      </trkpt>
      <trkpt lat="42.26606818847358226776123046875" lon="2.40065149962902069091796875">
        <ele>682.79998779296875</ele>
        <time>2020-08-09T07:30:22.000Z</time>
      </trkpt>
      <trkpt lat="42.2659923322498798370361328125" lon="2.40062476135790348052978515625">
        <ele>683.79998779296875</ele>
        <time>2020-08-09T07:30:26.000Z</time>
      </trkpt>
      <trkpt lat="42.26595126092433929443359375" lon="2.40062945522367954254150390625">
        <ele>684.4000244140625</ele>
        <time>2020-08-09T07:30:28.000Z</time>
      </trkpt>
      <trkpt lat="42.26591563783586025238037109375" lon="2.400627024471759796142578125">
        <ele>684.79998779296875</ele>
        <time>2020-08-09T07:30:30.000Z</time>
      </trkpt>
      <trkpt lat="42.2658598981797695159912109375" lon="2.400637082755565643310546875">
        <ele>685.4000244140625</ele>
        <time>2020-08-09T07:30:33.000Z</time>
      </trkpt>
      <trkpt lat="42.2657606564462184906005859375" lon="2.40063280798494815826416015625">
        <ele>686</ele>
        <time>2020-08-09T07:30:38.000Z</time>
      </trkpt>
      <trkpt lat="42.26571899838745594024658203125" lon="2.40061461925506591796875">
        <ele>686.20001220703125</ele>
        <time>2020-08-09T07:30:40.000Z</time>
      </trkpt>
      <trkpt lat="42.26562537252902984619140625" lon="2.40050238557159900665283203125">
        <ele>686.4000244140625</ele>
        <time>2020-08-09T07:30:46.000Z</time>
      </trkpt>
      <trkpt lat="42.2655772604048252105712890625" lon="2.40031681023538112640380859375">
        <ele>686.79998779296875</ele>
        <time>2020-08-09T07:30:53.000Z</time>
      </trkpt>
      <trkpt lat="42.2655732370913028717041015625" lon="2.40028881467878818511962890625">
        <ele>686.79998779296875</ele>
        <time>2020-08-09T07:30:54.000Z</time>
      </trkpt>
      <trkpt lat="42.26554029621183872222900390625" lon="2.4001531116664409637451171875">
        <ele>687.79998779296875</ele>
        <time>2020-08-09T07:31:00.000Z</time>
      </trkpt>
      <trkpt lat="42.2655093669891357421875" lon="2.40006099455058574676513671875">
        <ele>688.5999755859375</ele>
        <time>2020-08-09T07:31:05.000Z</time>
      </trkpt>
      <trkpt lat="42.26549469865858554840087890625" lon="2.3999951966106891632080078125">
        <ele>689</ele>
        <time>2020-08-09T07:31:08.000Z</time>
      </trkpt>
      <trkpt lat="42.2654575668275356292724609375" lon="2.399884723126888275146484375">
        <ele>689</ele>
        <time>2020-08-09T07:31:12.000Z</time>
      </trkpt>
      <trkpt lat="42.26535958237946033477783203125" lon="2.39972035400569438934326171875">
        <ele>689.20001220703125</ele>
        <time>2020-08-09T07:31:19.000Z</time>
      </trkpt>
      <trkpt lat="42.2652570717036724090576171875" lon="2.39966570399701595306396484375">
        <ele>689.20001220703125</ele>
        <time>2020-08-09T07:31:24.000Z</time>
      </trkpt>
      <trkpt lat="42.2652413137257099151611328125" lon="2.39967308007180690765380859375">
        <ele>689.20001220703125</ele>
        <time>2020-08-09T07:31:25.000Z</time>
      </trkpt>
      <trkpt lat="42.2651585005223751068115234375" lon="2.3997517861425876617431640625">
        <ele>688.79998779296875</ele>
        <time>2020-08-09T07:31:30.000Z</time>
      </trkpt>
      <trkpt lat="42.265118099749088287353515625" lon="2.39985446445643901824951171875">
        <ele>689.20001220703125</ele>
        <time>2020-08-09T07:31:35.000Z</time>
      </trkpt>
      <trkpt lat="42.26510745473206043243408203125" lon="2.39997298456728458404541015625">
        <ele>689.5999755859375</ele>
        <time>2020-08-09T07:31:40.000Z</time>
      </trkpt>
      <trkpt lat="42.26511516608297824859619140625" lon="2.400006093084812164306640625">
        <ele>689.79998779296875</ele>
        <time>2020-08-09T07:31:41.000Z</time>
      </trkpt>
      <trkpt lat="42.26512723602354526519775390625" lon="2.40011262707412242889404296875">
        <ele>689.79998779296875</ele>
        <time>2020-08-09T07:31:45.000Z</time>
      </trkpt>
      <trkpt lat="42.265132181346416473388671875" lon="2.40013877861201763153076171875">
        <ele>689.79998779296875</ele>
        <time>2020-08-09T07:31:46.000Z</time>
      </trkpt>
      <trkpt lat="42.2651539742946624755859375" lon="2.40030960179865360260009765625">
        <ele>689.5999755859375</ele>
        <time>2020-08-09T07:31:52.000Z</time>
      </trkpt>
      <trkpt lat="42.265149615705013275146484375" lon="2.40053775720298290252685546875">
        <ele>689.20001220703125</ele>
        <time>2020-08-09T07:31:58.000Z</time>
      </trkpt>
      <trkpt lat="42.2650585882365703582763671875" lon="2.40070707164704799652099609375">
        <ele>689</ele>
        <time>2020-08-09T07:32:03.000Z</time>
      </trkpt>
      <trkpt lat="42.2649420797824859619140625" lon="2.40074009634554386138916015625">
        <ele>689</ele>
        <time>2020-08-09T07:32:07.000Z</time>
      </trkpt>
      <trkpt lat="42.2648108191788196563720703125" lon="2.40072567947208881378173828125">
        <ele>688.79998779296875</ele>
        <time>2020-08-09T07:32:12.000Z</time>
      </trkpt>
      <trkpt lat="42.26478609256446361541748046875" lon="2.40073506720364093780517578125">
        <ele>689</ele>
        <time>2020-08-09T07:32:13.000Z</time>
      </trkpt>
      <trkpt lat="42.2647176124155521392822265625" lon="2.40076549351215362548828125">
        <ele>689</ele>
        <time>2020-08-09T07:32:16.000Z</time>
      </trkpt>
      <trkpt lat="42.26467947475612163543701171875" lon="2.40078200586140155792236328125">
        <ele>689.20001220703125</ele>
        <time>2020-08-09T07:32:18.000Z</time>
      </trkpt>
      <trkpt lat="42.26465499959886074066162109375" lon="2.40082676522433757781982421875">
        <ele>689.4000244140625</ele>
        <time>2020-08-09T07:32:20.000Z</time>
      </trkpt>
      <trkpt lat="42.26464443840086460113525390625" lon="2.40085476078093051910400390625">
        <ele>689.4000244140625</ele>
        <time>2020-08-09T07:32:21.000Z</time>
      </trkpt>
      <trkpt lat="42.26460940204560756683349609375" lon="2.40099775604903697967529296875">
        <ele>689.79998779296875</ele>
        <time>2020-08-09T07:32:26.000Z</time>
      </trkpt>
      <trkpt lat="42.264599762856960296630859375" lon="2.40101921372115612030029296875">
        <ele>690</ele>
        <time>2020-08-09T07:32:27.000Z</time>
      </trkpt>
      <trkpt lat="42.26457889191806316375732421875" lon="2.40113102830946445465087890625">
        <ele>690.4000244140625</ele>
        <time>2020-08-09T07:32:31.000Z</time>
      </trkpt>
      <trkpt lat="42.2645607031881809234619140625" lon="2.4012729339301586151123046875">
        <ele>691</ele>
        <time>2020-08-09T07:32:36.000Z</time>
      </trkpt>
      <trkpt lat="42.26451619528234004974365234375" lon="2.40144182927906513214111328125">
        <ele>692</ele>
        <time>2020-08-09T07:32:43.000Z</time>
      </trkpt>
      <trkpt lat="42.2644973360002040863037109375" lon="2.4014707468450069427490234375">
        <ele>692.20001220703125</ele>
        <time>2020-08-09T07:32:45.000Z</time>
      </trkpt>
      <trkpt lat="42.26442650891840457916259765625" lon="2.40158624947071075439453125">
        <ele>693.20001220703125</ele>
        <time>2020-08-09T07:32:50.000Z</time>
      </trkpt>
      <trkpt lat="42.2644083201885223388671875" lon="2.40160846151411533355712890625">
        <ele>693.4000244140625</ele>
        <time>2020-08-09T07:32:51.000Z</time>
      </trkpt>
      <trkpt lat="42.2642876207828521728515625" lon="2.40174290724098682403564453125">
        <ele>694.20001220703125</ele>
        <time>2020-08-09T07:32:58.000Z</time>
      </trkpt>
      <trkpt lat="42.2641463018953800201416015625" lon="2.40188129246234893798828125">
        <ele>694</ele>
        <time>2020-08-09T07:33:04.000Z</time>
      </trkpt>
      <trkpt lat="42.26394035853445529937744140625" lon="2.402017079293727874755859375">
        <ele>693.20001220703125</ele>
        <time>2020-08-09T07:33:10.000Z</time>
      </trkpt>
      <trkpt lat="42.2637694515287876129150390625" lon="2.40202504210174083709716796875">
        <ele>693.4000244140625</ele>
        <time>2020-08-09T07:33:16.000Z</time>
      </trkpt>
      <trkpt lat="42.263645231723785400390625" lon="2.40201515145599842071533203125">
        <ele>693.5999755859375</ele>
        <time>2020-08-09T07:33:21.000Z</time>
      </trkpt>
      <trkpt lat="42.26352327503263950347900390625" lon="2.40203577093780040740966796875">
        <ele>694</ele>
        <time>2020-08-09T07:33:26.000Z</time>
      </trkpt>
      <trkpt lat="42.263446748256683349609375" lon="2.40211062133312225341796875">
        <ele>694.5999755859375</ele>
        <time>2020-08-09T07:33:30.000Z</time>
      </trkpt>
      <trkpt lat="42.2634237818419933319091796875" lon="2.40215831436216831207275390625">
        <ele>694.79998779296875</ele>
        <time>2020-08-09T07:33:32.000Z</time>
      </trkpt>
      <trkpt lat="42.2634070180356502532958984375" lon="2.40222134627401828765869140625">
        <ele>694.79998779296875</ele>
        <time>2020-08-09T07:33:34.000Z</time>
      </trkpt>
      <trkpt lat="42.26337910629808902740478515625" lon="2.40230776369571685791015625">
        <ele>695.20001220703125</ele>
        <time>2020-08-09T07:33:37.000Z</time>
      </trkpt>
      <trkpt lat="42.26333904080092906951904296875" lon="2.4024152196943759918212890625">
        <ele>695.5999755859375</ele>
        <time>2020-08-09T07:33:41.000Z</time>
      </trkpt>
      <trkpt lat="42.26333049125969409942626953125" lon="2.40243977867066860198974609375">
        <ele>695.79998779296875</ele>
        <time>2020-08-09T07:33:42.000Z</time>
      </trkpt>
      <trkpt lat="42.26331892423331737518310546875" lon="2.4025456421077251434326171875">
        <ele>696.20001220703125</ele>
        <time>2020-08-09T07:33:46.000Z</time>
      </trkpt>
      <trkpt lat="42.26330836303532123565673828125" lon="2.402599789202213287353515625">
        <ele>696.20001220703125</ele>
        <time>2020-08-09T07:33:48.000Z</time>
      </trkpt>
      <trkpt lat="42.26327852346003055572509765625" lon="2.4027062393724918365478515625">
        <ele>696.5999755859375</ele>
        <time>2020-08-09T07:33:52.000Z</time>
      </trkpt>
      <trkpt lat="42.2632484324276447296142578125" lon="2.4028554372489452362060546875">
        <ele>697</ele>
        <time>2020-08-09T07:33:57.000Z</time>
      </trkpt>
      <trkpt lat="42.26318665780127048492431640625" lon="2.40301259793341159820556640625">
        <ele>697.5999755859375</ele>
        <time>2020-08-09T07:34:03.000Z</time>
      </trkpt>
      <trkpt lat="42.26317307911813259124755859375" lon="2.40303841419517993927001953125">
        <ele>697.79998779296875</ele>
        <time>2020-08-09T07:34:04.000Z</time>
      </trkpt>
      <trkpt lat="42.263093031942844390869140625" lon="2.40319599397480487823486328125">
        <ele>698.20001220703125</ele>
        <time>2020-08-09T07:34:10.000Z</time>
      </trkpt>
      <trkpt lat="42.26295481435954570770263671875" lon="2.4034059606492519378662109375">
        <ele>698.5999755859375</ele>
        <time>2020-08-09T07:34:19.000Z</time>
      </trkpt>
      <trkpt lat="42.26293654181063175201416015625" lon="2.40342490375041961669921875">
        <ele>698.79998779296875</ele>
        <time>2020-08-09T07:34:20.000Z</time>
      </trkpt>
      <trkpt lat="42.26284484378993511199951171875" lon="2.40353479050099849700927734375">
        <ele>699.79998779296875</ele>
        <time>2020-08-09T07:34:26.000Z</time>
      </trkpt>
      <trkpt lat="42.2627297602593898773193359375" lon="2.40366102196276187896728515625">
        <ele>700.79998779296875</ele>
        <time>2020-08-09T07:34:33.000Z</time>
      </trkpt>
      <trkpt lat="42.26271609775722026824951171875" lon="2.40367862395942211151123046875">
        <ele>701</ele>
        <time>2020-08-09T07:34:34.000Z</time>
      </trkpt>
      <trkpt lat="42.26263076998293399810791015625" lon="2.403765209019184112548828125">
        <ele>701.79998779296875</ele>
        <time>2020-08-09T07:34:40.000Z</time>
      </trkpt>
      <trkpt lat="42.26261434145271778106689453125" lon="2.40377317182719707489013671875">
        <ele>702</ele>
        <time>2020-08-09T07:34:41.000Z</time>
      </trkpt>
      <trkpt lat="42.2625409997999668121337890625" lon="2.40386403165757656097412109375">
        <ele>702.79998779296875</ele>
        <time>2020-08-09T07:34:48.000Z</time>
      </trkpt>
      <trkpt lat="42.26248978637158870697021484375" lon="2.403938882052898406982421875">
        <ele>702.79998779296875</ele>
        <time>2020-08-09T07:34:53.000Z</time>
      </trkpt>
      <trkpt lat="42.26248090155422687530517578125" lon="2.40394952706992626190185546875">
        <ele>702.79998779296875</ele>
        <time>2020-08-09T07:34:55.000Z</time>
      </trkpt>
      <trkpt lat="42.26248324848711490631103515625" lon="2.40395254455506801605224609375">
        <ele>703</ele>
        <time>2020-08-09T07:34:58.000Z</time>
      </trkpt>
      <trkpt lat="42.2625155188143253326416015625" lon="2.40394567139446735382080078125">
        <ele>702.5999755859375</ele>
        <time>2020-08-09T07:56:36.000Z</time>
      </trkpt>
      <trkpt lat="42.26251476444303989410400390625" lon="2.4039410613477230072021484375">
        <ele>702.79998779296875</ele>
        <time>2020-08-09T07:56:41.000Z</time>
      </trkpt>
      <trkpt lat="42.26251308806240558624267578125" lon="2.40392873995006084442138671875">
        <ele>703</ele>
        <time>2020-08-09T07:56:42.000Z</time>
      </trkpt>
      <trkpt lat="42.26251761429011821746826171875" lon="2.40383167751133441925048828125">
        <ele>702.79998779296875</ele>
        <time>2020-08-09T07:56:48.000Z</time>
      </trkpt>
      <trkpt lat="42.2625178657472133636474609375" lon="2.403688095510005950927734375">
        <ele>703.20001220703125</ele>
        <time>2020-08-09T07:56:57.000Z</time>
      </trkpt>
      <trkpt lat="42.2624893672764301300048828125" lon="2.40364811383187770843505859375">
        <ele>703.5999755859375</ele>
        <time>2020-08-09T07:57:00.000Z</time>
      </trkpt>
      <trkpt lat="42.26246547885239124298095703125" lon="2.40360804833471775054931640625">
        <ele>704</ele>
        <time>2020-08-09T07:57:03.000Z</time>
      </trkpt>
      <trkpt lat="42.26243329234421253204345703125" lon="2.40354560315608978271484375">
        <ele>704.79998779296875</ele>
        <time>2020-08-09T07:57:07.000Z</time>
      </trkpt>
      <trkpt lat="42.2623934783041477203369140625" lon="2.403471171855926513671875">
        <ele>705.79998779296875</ele>
        <time>2020-08-09T07:57:12.000Z</time>
      </trkpt>
      <trkpt lat="42.2623790614306926727294921875" lon="2.40344326011836528778076171875">
        <ele>706.20001220703125</ele>
        <time>2020-08-09T07:57:14.000Z</time>
      </trkpt>
      <trkpt lat="42.2623485513031482696533203125" lon="2.40336723625659942626953125">
        <ele>707</ele>
        <time>2020-08-09T07:57:19.000Z</time>
      </trkpt>
      <trkpt lat="42.26233589462935924530029296875" lon="2.4033171124756336212158203125">
        <ele>707.4000244140625</ele>
        <time>2020-08-09T07:57:22.000Z</time>
      </trkpt>
      <trkpt lat="42.2623106651008129119873046875" lon="2.40323320962488651275634765625">
        <ele>708</ele>
        <time>2020-08-09T07:57:27.000Z</time>
      </trkpt>
      <trkpt lat="42.2623116709291934967041015625" lon="2.403184510767459869384765625">
        <ele>708.20001220703125</ele>
        <time>2020-08-09T07:57:30.000Z</time>
      </trkpt>
      <trkpt lat="42.262319214642047882080078125" lon="2.40314997732639312744140625">
        <ele>708.4000244140625</ele>
        <time>2020-08-09T07:57:35.000Z</time>
      </trkpt>
      <trkpt lat="42.2623193822801113128662109375" lon="2.403127513825893402099609375">
        <ele>708.5999755859375</ele>
        <time>2020-08-09T07:57:52.000Z</time>
      </trkpt>
      <trkpt lat="42.262312509119510650634765625" lon="2.40306540392339229583740234375">
        <ele>708.79998779296875</ele>
        <time>2020-08-09T07:57:56.000Z</time>
      </trkpt>
      <trkpt lat="42.26232684217393398284912109375" lon="2.40301142446696758270263671875">
        <ele>709</ele>
        <time>2020-08-09T07:57:59.000Z</time>
      </trkpt>
      <trkpt lat="42.26233539171516895294189453125" lon="2.4029067344963550567626953125">
        <ele>709.4000244140625</ele>
        <time>2020-08-09T07:58:04.000Z</time>
      </trkpt>
      <trkpt lat="42.2623371519148349761962890625" lon="2.4028862826526165008544921875">
        <ele>709.5999755859375</ele>
        <time>2020-08-09T07:58:05.000Z</time>
      </trkpt>
      <trkpt lat="42.26233455352485179901123046875" lon="2.40279458463191986083984375">
        <ele>710.20001220703125</ele>
        <time>2020-08-09T07:58:09.000Z</time>
      </trkpt>
      <trkpt lat="42.26233027875423431396484375" lon="2.40272979252040386199951171875">
        <ele>710.20001220703125</ele>
        <time>2020-08-09T07:58:12.000Z</time>
      </trkpt>
      <trkpt lat="42.26229784078896045684814453125" lon="2.40258193574845790863037109375">
        <ele>710.79998779296875</ele>
        <time>2020-08-09T07:58:19.000Z</time>
      </trkpt>
      <trkpt lat="42.2622667439281940460205078125" lon="2.4025151319801807403564453125">
        <ele>711.20001220703125</ele>
        <time>2020-08-09T07:58:23.000Z</time>
      </trkpt>
      <trkpt lat="42.26225106976926326751708984375" lon="2.40248135291039943695068359375">
        <ele>711.4000244140625</ele>
        <time>2020-08-09T07:58:25.000Z</time>
      </trkpt>
      <trkpt lat="42.2621886245906352996826171875" lon="2.40238948725163936614990234375">
        <ele>712.20001220703125</ele>
        <time>2020-08-09T07:58:31.000Z</time>
      </trkpt>
      <trkpt lat="42.2621767222881317138671875" lon="2.40237406454980373382568359375">
        <ele>712.4000244140625</ele>
        <time>2020-08-09T07:58:32.000Z</time>
      </trkpt>
      <trkpt lat="42.2621242515742778778076171875" lon="2.40227381698787212371826171875">
        <ele>713.4000244140625</ele>
        <time>2020-08-09T07:58:38.000Z</time>
      </trkpt>
      <trkpt lat="42.2621195577085018157958984375" lon="2.40225353278219699859619140625">
        <ele>713.5999755859375</ele>
        <time>2020-08-09T07:58:39.000Z</time>
      </trkpt>
      <trkpt lat="42.2621115110814571380615234375" lon="2.402189411222934722900390625">
        <ele>714.4000244140625</ele>
        <time>2020-08-09T07:58:42.000Z</time>
      </trkpt>
      <trkpt lat="42.262107990682125091552734375" lon="2.40208916366100311279296875">
        <ele>715.4000244140625</ele>
        <time>2020-08-09T07:58:47.000Z</time>
      </trkpt>
      <trkpt lat="42.26210807450115680694580078125" lon="2.402051948010921478271484375">
        <ele>715.5999755859375</ele>
        <time>2020-08-09T07:58:49.000Z</time>
      </trkpt>
      <trkpt lat="42.26210220716893672943115234375" lon="2.40199863910675048828125">
        <ele>716.4000244140625</ele>
        <time>2020-08-09T07:58:52.000Z</time>
      </trkpt>
      <trkpt lat="42.26211729459464550018310546875" lon="2.40191490389406681060791015625">
        <ele>717.5999755859375</ele>
        <time>2020-08-09T07:58:57.000Z</time>
      </trkpt>
      <trkpt lat="42.26211947388947010040283203125" lon="2.4018415622413158416748046875">
        <ele>718.20001220703125</ele>
        <time>2020-08-09T07:59:01.000Z</time>
      </trkpt>
      <trkpt lat="42.2621202282607555389404296875" lon="2.4018053524196147918701171875">
        <ele>718.5999755859375</ele>
        <time>2020-08-09T07:59:03.000Z</time>
      </trkpt>
      <trkpt lat="42.26213238202035427093505859375" lon="2.40175715647637844085693359375">
        <ele>719</ele>
        <time>2020-08-09T07:59:06.000Z</time>
      </trkpt>
      <trkpt lat="42.26214378140866756439208984375" lon="2.4016836471855640411376953125">
        <ele>719.79998779296875</ele>
        <time>2020-08-09T07:59:10.000Z</time>
      </trkpt>
      <trkpt lat="42.26214948110282421112060546875" lon="2.40158834494650363922119140625">
        <ele>720.79998779296875</ele>
        <time>2020-08-09T07:59:15.000Z</time>
      </trkpt>
      <trkpt lat="42.26215057075023651123046875" lon="2.40147653035819530487060546875">
        <ele>722</ele>
        <time>2020-08-09T07:59:21.000Z</time>
      </trkpt>
      <trkpt lat="42.2621537558734416961669921875" lon="2.401437722146511077880859375">
        <ele>722.4000244140625</ele>
        <time>2020-08-09T07:59:23.000Z</time>
      </trkpt>
      <trkpt lat="42.2621477209031581878662109375" lon="2.40137829445302486419677734375">
        <ele>723</ele>
        <time>2020-08-09T07:59:26.000Z</time>
      </trkpt>
      <trkpt lat="42.26214252412319183349609375" lon="2.4012642167508602142333984375">
        <ele>724</ele>
        <time>2020-08-09T07:59:32.000Z</time>
      </trkpt>
      <trkpt lat="42.2621450386941432952880859375" lon="2.4012464471161365509033203125">
        <ele>724.20001220703125</ele>
        <time>2020-08-09T07:59:33.000Z</time>
      </trkpt>
      <trkpt lat="42.26213523186743259429931640625" lon="2.4011348001658916473388671875">
        <ele>725.20001220703125</ele>
        <time>2020-08-09T07:59:39.000Z</time>
      </trkpt>
      <trkpt lat="42.26213506422936916351318359375" lon="2.4010191299021244049072265625">
        <ele>726.4000244140625</ele>
        <time>2020-08-09T07:59:45.000Z</time>
      </trkpt>
      <trkpt lat="42.26213355548679828643798828125" lon="2.40098032169044017791748046875">
        <ele>726.4000244140625</ele>
        <time>2020-08-09T07:59:47.000Z</time>
      </trkpt>
      <trkpt lat="42.26211561821401119232177734375" lon="2.40080782212316989898681640625">
        <ele>727.20001220703125</ele>
        <time>2020-08-09T07:59:56.000Z</time>
      </trkpt>
      <trkpt lat="42.26211645640432834625244140625" lon="2.4007876217365264892578125">
        <ele>727.4000244140625</ele>
        <time>2020-08-09T07:59:57.000Z</time>
      </trkpt>
      <trkpt lat="42.26210296154022216796875" lon="2.4006684310734272003173828125">
        <ele>727.79998779296875</ele>
        <time>2020-08-09T08:00:03.000Z</time>
      </trkpt>
      <trkpt lat="42.26211863569915294647216796875" lon="2.40049551241099834442138671875">
        <ele>728.20001220703125</ele>
        <time>2020-08-09T08:00:11.000Z</time>
      </trkpt>
      <trkpt lat="42.26216859184205532073974609375" lon="2.400296442210674285888671875">
        <ele>727.5999755859375</ele>
        <time>2020-08-09T08:00:17.000Z</time>
      </trkpt>
      <trkpt lat="42.26227127015590667724609375" lon="2.3999630101025104522705078125">
        <ele>726.79998779296875</ele>
        <time>2020-08-09T08:00:23.000Z</time>
      </trkpt>
      <trkpt lat="42.26230605505406856536865234375" lon="2.3998292349278926849365234375">
        <ele>726.4000244140625</ele>
        <time>2020-08-09T08:00:25.000Z</time>
      </trkpt>
      <trkpt lat="42.26234947331249713897705078125" lon="2.39956461824476718902587890625">
        <ele>725.4000244140625</ele>
        <time>2020-08-09T08:00:29.000Z</time>
      </trkpt>
      <trkpt lat="42.26235601119697093963623046875" lon="2.39949990995228290557861328125">
        <ele>725.20001220703125</ele>
        <time>2020-08-09T08:00:30.000Z</time>
      </trkpt>
      <trkpt lat="42.2623643092811107635498046875" lon="2.39928566850721836090087890625">
        <ele>724</ele>
        <time>2020-08-09T08:00:33.000Z</time>
      </trkpt>
      <trkpt lat="42.26236439310014247894287109375" lon="2.3991234786808490753173828125">
        <ele>723.4000244140625</ele>
        <time>2020-08-09T08:00:35.000Z</time>
      </trkpt>
      <trkpt lat="42.26236204616725444793701171875" lon="2.39903840236365795135498046875">
        <ele>722.79998779296875</ele>
        <time>2020-08-09T08:00:36.000Z</time>
      </trkpt>
      <trkpt lat="42.26235701702535152435302734375" lon="2.3988617956638336181640625">
        <ele>721.5999755859375</ele>
        <time>2020-08-09T08:00:38.000Z</time>
      </trkpt>
      <trkpt lat="42.26235441863536834716796875" lon="2.3987704329192638397216796875">
        <ele>721.20001220703125</ele>
        <time>2020-08-09T08:00:39.000Z</time>
      </trkpt>
      <trkpt lat="42.26235131733119487762451171875" lon="2.39860095083713531494140625">
        <ele>720.79998779296875</ele>
        <time>2020-08-09T08:00:41.000Z</time>
      </trkpt>
      <trkpt lat="42.26235349662601947784423828125" lon="2.3985226638615131378173828125">
        <ele>720.79998779296875</ele>
        <time>2020-08-09T08:00:42.000Z</time>
      </trkpt>
      <trkpt lat="42.26236187852919101715087890625" lon="2.39844647236168384552001953125">
        <ele>720.5999755859375</ele>
        <time>2020-08-09T08:00:43.000Z</time>
      </trkpt>
      <trkpt lat="42.26241032592952251434326171875" lon="2.398304231464862823486328125">
        <ele>720.20001220703125</ele>
        <time>2020-08-09T08:00:45.000Z</time>
      </trkpt>
      <trkpt lat="42.26249129511415958404541015625" lon="2.398187220096588134765625">
        <ele>719.4000244140625</ele>
        <time>2020-08-09T08:00:47.000Z</time>
      </trkpt>
      <trkpt lat="42.2625815682113170623779296875" lon="2.39805386401712894439697265625">
        <ele>718.5999755859375</ele>
        <time>2020-08-09T08:00:49.000Z</time>
      </trkpt>
      <trkpt lat="42.2626192867755889892578125" lon="2.3979721404612064361572265625">
        <ele>718.20001220703125</ele>
        <time>2020-08-09T08:00:50.000Z</time>
      </trkpt>
      <trkpt lat="42.262671254575252532958984375" lon="2.39779972471296787261962890625">
        <ele>716.79998779296875</ele>
        <time>2020-08-09T08:00:52.000Z</time>
      </trkpt>
      <trkpt lat="42.2626858390867710113525390625" lon="2.3977112956345081329345703125">
        <ele>716</ele>
        <time>2020-08-09T08:00:53.000Z</time>
      </trkpt>
      <trkpt lat="42.26269531063735485076904296875" lon="2.3976207710802555084228515625">
        <ele>715.4000244140625</ele>
        <time>2020-08-09T08:00:54.000Z</time>
      </trkpt>
      <trkpt lat="42.26270151324570178985595703125" lon="2.39752748049795627593994140625">
        <ele>714.20001220703125</ele>
        <time>2020-08-09T08:00:55.000Z</time>
      </trkpt>
      <trkpt lat="42.26271190680563449859619140625" lon="2.3973344452679157257080078125">
        <ele>712.5999755859375</ele>
        <time>2020-08-09T08:00:57.000Z</time>
      </trkpt>
      <trkpt lat="42.262736968696117401123046875" lon="2.3971478641033172607421875">
        <ele>711</ele>
        <time>2020-08-09T08:00:59.000Z</time>
      </trkpt>
      <trkpt lat="42.2627954743802547454833984375" lon="2.3969998396933078765869140625">
        <ele>709.20001220703125</ele>
        <time>2020-08-09T08:01:01.000Z</time>
      </trkpt>
      <trkpt lat="42.2628400661051273345947265625" lon="2.3969472013413906097412109375">
        <ele>708.20001220703125</ele>
        <time>2020-08-09T08:01:02.000Z</time>
      </trkpt>
      <trkpt lat="42.26288926787674427032470703125" lon="2.39689372479915618896484375">
        <ele>707.20001220703125</ele>
        <time>2020-08-09T08:01:03.000Z</time>
      </trkpt>
      <trkpt lat="42.2629545629024505615234375" lon="2.396763972938060760498046875">
        <ele>706</ele>
        <time>2020-08-09T08:01:05.000Z</time>
      </trkpt>
      <trkpt lat="42.2629453428089618682861328125" lon="2.39653087221086025238037109375">
        <ele>704.79998779296875</ele>
        <time>2020-08-09T08:01:08.000Z</time>
      </trkpt>
      <trkpt lat="42.26293017156422138214111328125" lon="2.39644235931336879730224609375">
        <ele>704.20001220703125</ele>
        <time>2020-08-09T08:01:09.000Z</time>
      </trkpt>
      <trkpt lat="42.2629030980169773101806640625" lon="2.39626399241387844085693359375">
        <ele>703.20001220703125</ele>
        <time>2020-08-09T08:01:11.000Z</time>
      </trkpt>
      <trkpt lat="42.26292162202298641204833984375" lon="2.3960882239043712615966796875">
        <ele>701.79998779296875</ele>
        <time>2020-08-09T08:01:13.000Z</time>
      </trkpt>
      <trkpt lat="42.26302941329777240753173828125" lon="2.39585881121456623077392578125">
        <ele>700.79998779296875</ele>
        <time>2020-08-09T08:01:16.000Z</time>
      </trkpt>
      <trkpt lat="42.2630687244236469268798828125" lon="2.39578337408602237701416015625">
        <ele>700.5999755859375</ele>
        <time>2020-08-09T08:01:17.000Z</time>
      </trkpt>
      <trkpt lat="42.26314793340861797332763671875" lon="2.3955182544887065887451171875">
        <ele>699.4000244140625</ele>
        <time>2020-08-09T08:01:20.000Z</time>
      </trkpt>
      <trkpt lat="42.26317257620394229888916015625" lon="2.39542789757251739501953125">
        <ele>699.20001220703125</ele>
        <time>2020-08-09T08:01:21.000Z</time>
      </trkpt>
      <trkpt lat="42.26320291869342327117919921875" lon="2.3953445814549922943115234375">
        <ele>698.79998779296875</ele>
        <time>2020-08-09T08:01:22.000Z</time>
      </trkpt>
      <trkpt lat="42.26328858174383640289306640625" lon="2.39521491341292858123779296875">
        <ele>698.4000244140625</ele>
        <time>2020-08-09T08:01:24.000Z</time>
      </trkpt>
      <trkpt lat="42.26333434693515300750732421875" lon="2.39516395144164562225341796875">
        <ele>698.4000244140625</ele>
        <time>2020-08-09T08:01:25.000Z</time>
      </trkpt>
      <trkpt lat="42.2634100355207920074462890625" lon="2.3950673080980777740478515625">
        <ele>698.4000244140625</ele>
        <time>2020-08-09T08:01:27.000Z</time>
      </trkpt>
      <trkpt lat="42.2634388692677021026611328125" lon="2.39501760341227054595947265625">
        <ele>698.4000244140625</ele>
        <time>2020-08-09T08:01:28.000Z</time>
      </trkpt>
      <trkpt lat="42.2635226882994174957275390625" lon="2.3947521485388278961181640625">
        <ele>698.79998779296875</ele>
        <time>2020-08-09T08:01:33.000Z</time>
      </trkpt>
      <trkpt lat="42.26355428807437419891357421875" lon="2.3946555890142917633056640625">
        <ele>698.79998779296875</ele>
        <time>2020-08-09T08:01:35.000Z</time>
      </trkpt>
      <trkpt lat="42.2636169008910655975341796875" lon="2.39449725486338138580322265625">
        <ele>698</ele>
        <time>2020-08-09T08:01:38.000Z</time>
      </trkpt>
      <trkpt lat="42.26366660557687282562255859375" lon="2.3943752981722354888916015625">
        <ele>697.5999755859375</ele>
        <time>2020-08-09T08:01:40.000Z</time>
      </trkpt>
      <trkpt lat="42.2637697868049144744873046875" lon="2.394066341221332550048828125">
        <ele>696.79998779296875</ele>
        <time>2020-08-09T08:01:45.000Z</time>
      </trkpt>
      <trkpt lat="42.26385318674147129058837890625" lon="2.3937986232340335845947265625">
        <ele>697.20001220703125</ele>
        <time>2020-08-09T08:01:51.000Z</time>
      </trkpt>
      <trkpt lat="42.26394832134246826171875" lon="2.393541298806667327880859375">
        <ele>697.5999755859375</ele>
        <time>2020-08-09T08:01:59.000Z</time>
      </trkpt>
      <trkpt lat="42.26402409374713897705078125" lon="2.39334910176694393157958984375">
        <ele>697.79998779296875</ele>
        <time>2020-08-09T08:02:05.000Z</time>
      </trkpt>
      <trkpt lat="42.26405452005565166473388671875" lon="2.3932826332747936248779296875">
        <ele>697.79998779296875</ele>
        <time>2020-08-09T08:02:07.000Z</time>
      </trkpt>
      <trkpt lat="42.2641439549624919891357421875" lon="2.39302866160869598388671875">
        <ele>697.5999755859375</ele>
        <time>2020-08-09T08:02:14.000Z</time>
      </trkpt>
      <trkpt lat="42.26417639292776584625244140625" lon="2.392803691327571868896484375">
        <ele>698.20001220703125</ele>
        <time>2020-08-09T08:02:21.000Z</time>
      </trkpt>
      <trkpt lat="42.26417832076549530029296875" lon="2.3927482031285762786865234375">
        <ele>698.5999755859375</ele>
        <time>2020-08-09T08:02:23.000Z</time>
      </trkpt>
      <trkpt lat="42.264183349907398223876953125" lon="2.39260763861238956451416015625">
        <ele>699.5999755859375</ele>
        <time>2020-08-09T08:02:29.000Z</time>
      </trkpt>
      <trkpt lat="42.26416884921491146087646484375" lon="2.3924803175032138824462890625">
        <ele>701</ele>
        <time>2020-08-09T08:02:35.000Z</time>
      </trkpt>
      <trkpt lat="42.26416868157684803009033203125" lon="2.392442263662815093994140625">
        <ele>701.4000244140625</ele>
        <time>2020-08-09T08:02:37.000Z</time>
      </trkpt>
      <trkpt lat="42.26416650228202342987060546875" lon="2.39236338995397090911865234375">
        <ele>702.20001220703125</ele>
        <time>2020-08-09T08:02:41.000Z</time>
      </trkpt>
      <trkpt lat="42.26416918449103832244873046875" lon="2.392322905361652374267578125">
        <ele>702.4000244140625</ele>
        <time>2020-08-09T08:02:43.000Z</time>
      </trkpt>
      <trkpt lat="42.26415686309337615966796875" lon="2.3922429420053958892822265625">
        <ele>703.20001220703125</ele>
        <time>2020-08-09T08:02:47.000Z</time>
      </trkpt>
      <trkpt lat="42.264141105115413665771484375" lon="2.39218938164412975311279296875">
        <ele>703.5999755859375</ele>
        <time>2020-08-09T08:02:50.000Z</time>
      </trkpt>
      <trkpt lat="42.26412911899387836456298828125" lon="2.39213305525481700897216796875">
        <ele>704.20001220703125</ele>
        <time>2020-08-09T08:02:53.000Z</time>
      </trkpt>
      <trkpt lat="42.26411520503461360931396484375" lon="2.3920575343072414398193359375">
        <ele>704.79998779296875</ele>
        <time>2020-08-09T08:02:57.000Z</time>
      </trkpt>
      <trkpt lat="42.26411218754947185516357421875" lon="2.39201922900974750518798828125">
        <ele>705.20001220703125</ele>
        <time>2020-08-09T08:02:59.000Z</time>
      </trkpt>
      <trkpt lat="42.2641050629317760467529296875" lon="2.39191981963813304901123046875">
        <ele>706.4000244140625</ele>
        <time>2020-08-09T08:03:04.000Z</time>
      </trkpt>
      <trkpt lat="42.26410749368369579315185546875" lon="2.39181018434464931488037109375">
        <ele>707.4000244140625</ele>
        <time>2020-08-09T08:03:10.000Z</time>
      </trkpt>
      <trkpt lat="42.2641228325664997100830078125" lon="2.39174430258572101593017578125">
        <ele>708.20001220703125</ele>
        <time>2020-08-09T08:03:14.000Z</time>
      </trkpt>
      <trkpt lat="42.264130376279354095458984375" lon="2.3917110264301300048828125">
        <ele>708.4000244140625</ele>
        <time>2020-08-09T08:03:16.000Z</time>
      </trkpt>
      <trkpt lat="42.264147140085697174072265625" lon="2.39161756820976734161376953125">
        <ele>709.5999755859375</ele>
        <time>2020-08-09T08:03:21.000Z</time>
      </trkpt>
      <trkpt lat="42.26415216922760009765625" lon="2.39159828983247280120849609375">
        <ele>709.79998779296875</ele>
        <time>2020-08-09T08:03:22.000Z</time>
      </trkpt>
      <trkpt lat="42.26416298188269138336181640625" lon="2.39152436144649982452392578125">
        <ele>710.79998779296875</ele>
        <time>2020-08-09T08:03:26.000Z</time>
      </trkpt>
      <trkpt lat="42.26417387835681438446044921875" lon="2.39145428873598575592041015625">
        <ele>711.5999755859375</ele>
        <time>2020-08-09T08:03:30.000Z</time>
      </trkpt>
      <trkpt lat="42.26417589001357555389404296875" lon="2.39143400453031063079833984375">
        <ele>711.79998779296875</ele>
        <time>2020-08-09T08:03:31.000Z</time>
      </trkpt>
      <trkpt lat="42.26418477483093738555908203125" lon="2.39134021103382110595703125">
        <ele>713</ele>
        <time>2020-08-09T08:03:36.000Z</time>
      </trkpt>
      <trkpt lat="42.26419080980122089385986328125" lon="2.39130307920277118682861328125">
        <ele>713.4000244140625</ele>
        <time>2020-08-09T08:03:38.000Z</time>
      </trkpt>
      <trkpt lat="42.264215536415576934814453125" lon="2.39120869897305965423583984375">
        <ele>714</ele>
        <time>2020-08-09T08:03:43.000Z</time>
      </trkpt>
      <trkpt lat="42.26424646563827991485595703125" lon="2.3911395482718944549560546875">
        <ele>715</ele>
        <time>2020-08-09T08:03:47.000Z</time>
      </trkpt>
      <trkpt lat="42.26425551809370517730712890625" lon="2.39112404175102710723876953125">
        <ele>715.4000244140625</ele>
        <time>2020-08-09T08:03:48.000Z</time>
      </trkpt>
      <trkpt lat="42.26431536488234996795654296875" lon="2.3910443298518657684326171875">
        <ele>716.4000244140625</ele>
        <time>2020-08-09T08:03:54.000Z</time>
      </trkpt>
      <trkpt lat="42.2643260098993778228759765625" lon="2.39103200845420360565185546875">
        <ele>716.5999755859375</ele>
        <time>2020-08-09T08:03:55.000Z</time>
      </trkpt>
      <trkpt lat="42.264361716806888580322265625" lon="2.39097668789327144622802734375">
        <ele>717.4000244140625</ele>
        <time>2020-08-09T08:03:59.000Z</time>
      </trkpt>
      <trkpt lat="42.26438174955546855926513671875" lon="2.3909310065209865570068359375">
        <ele>718</ele>
        <time>2020-08-09T08:04:02.000Z</time>
      </trkpt>
      <trkpt lat="42.26439180783927440643310546875" lon="2.39091885276138782501220703125">
        <ele>718.20001220703125</ele>
        <time>2020-08-09T08:04:03.000Z</time>
      </trkpt>
      <trkpt lat="42.26441309787333011627197265625" lon="2.3908750154078006744384765625">
        <ele>718.5999755859375</ele>
        <time>2020-08-09T08:04:06.000Z</time>
      </trkpt>
      <trkpt lat="42.264436818659305572509765625" lon="2.39079438149929046630859375">
        <ele>719.79998779296875</ele>
        <time>2020-08-09T08:04:11.000Z</time>
      </trkpt>
      <trkpt lat="42.26448476314544677734375" lon="2.39068516530096530914306640625">
        <ele>720.79998779296875</ele>
        <time>2020-08-09T08:04:18.000Z</time>
      </trkpt>
      <trkpt lat="42.26449188776314258575439453125" lon="2.3906691558659076690673828125">
        <ele>721</ele>
        <time>2020-08-09T08:04:19.000Z</time>
      </trkpt>
      <trkpt lat="42.264538742601871490478515625" lon="2.39057502709329128265380859375">
        <ele>722</ele>
        <time>2020-08-09T08:04:25.000Z</time>
      </trkpt>
      <trkpt lat="42.26455760188400745391845703125" lon="2.39052825607359409332275390625">
        <ele>722.4000244140625</ele>
        <time>2020-08-09T08:04:28.000Z</time>
      </trkpt>
      <trkpt lat="42.26460454054176807403564453125" lon="2.39045918919146060943603515625">
        <ele>723.20001220703125</ele>
        <time>2020-08-09T08:04:33.000Z</time>
      </trkpt>
      <trkpt lat="42.26463035680353641510009765625" lon="2.390421219170093536376953125">
        <ele>723.79998779296875</ele>
        <time>2020-08-09T08:04:36.000Z</time>
      </trkpt>
      <trkpt lat="42.2646492160856723785400390625" lon="2.3903726041316986083984375">
        <ele>724.20001220703125</ele>
        <time>2020-08-09T08:04:39.000Z</time>
      </trkpt>
      <trkpt lat="42.2646881081163883209228515625" lon="2.3903151042759418487548828125">
        <ele>724.79998779296875</ele>
        <time>2020-08-09T08:04:43.000Z</time>
      </trkpt>
      <trkpt lat="42.2647065483033657073974609375" lon="2.39026523195207118988037109375">
        <ele>725.4000244140625</ele>
        <time>2020-08-09T08:04:46.000Z</time>
      </trkpt>
      <trkpt lat="42.2647541575133800506591796875" lon="2.39017068408429622650146484375">
        <ele>726.20001220703125</ele>
        <time>2020-08-09T08:04:52.000Z</time>
      </trkpt>
      <trkpt lat="42.26476245559751987457275390625" lon="2.39013145677745342254638671875">
        <ele>726.4000244140625</ele>
        <time>2020-08-09T08:04:54.000Z</time>
      </trkpt>
      <trkpt lat="42.26479296572506427764892578125" lon="2.39006205461919307708740234375">
        <ele>726.79998779296875</ele>
        <time>2020-08-09T08:04:58.000Z</time>
      </trkpt>
      <trkpt lat="42.26483671925961971282958984375" lon="2.389960549771785736083984375">
        <ele>727.5999755859375</ele>
        <time>2020-08-09T08:05:03.000Z</time>
      </trkpt>
      <trkpt lat="42.2648862563073635101318359375" lon="2.38982920534908771514892578125">
        <ele>727.79998779296875</ele>
        <time>2020-08-09T08:05:09.000Z</time>
      </trkpt>
      <trkpt lat="42.2649469412863254547119140625" lon="2.3896499164402484893798828125">
        <ele>728.4000244140625</ele>
        <time>2020-08-09T08:05:18.000Z</time>
      </trkpt>
      <trkpt lat="42.26500787772238254547119140625" lon="2.38950826227664947509765625">
        <ele>729</ele>
        <time>2020-08-09T08:05:26.000Z</time>
      </trkpt>
      <trkpt lat="42.26502028293907642364501953125" lon="2.3894098587334156036376953125">
        <ele>729.5999755859375</ele>
        <time>2020-08-09T08:05:31.000Z</time>
      </trkpt>
      <trkpt lat="42.2650166787207126617431640625" lon="2.38928790204226970672607421875">
        <ele>730.4000244140625</ele>
        <time>2020-08-09T08:05:37.000Z</time>
      </trkpt>
      <trkpt lat="42.26501382887363433837890625" lon="2.38926912657916545867919921875">
        <ele>730.5999755859375</ele>
        <time>2020-08-09T08:05:38.000Z</time>
      </trkpt>
      <trkpt lat="42.2649962268769741058349609375" lon="2.38916384987533092498779296875">
        <ele>731.79998779296875</ele>
        <time>2020-08-09T08:05:44.000Z</time>
      </trkpt>
      <trkpt lat="42.26498709060251712799072265625" lon="2.38911104388535022735595703125">
        <ele>732.20001220703125</ele>
        <time>2020-08-09T08:05:47.000Z</time>
      </trkpt>
      <trkpt lat="42.26497367955744266510009765625" lon="2.38904449157416820526123046875">
        <ele>733</ele>
        <time>2020-08-09T08:05:51.000Z</time>
      </trkpt>
      <trkpt lat="42.2649796307086944580078125" lon="2.3890041746199131011962890625">
        <ele>733.4000244140625</ele>
        <time>2020-08-09T08:05:53.000Z</time>
      </trkpt>
      <trkpt lat="42.26498994044959545135498046875" lon="2.38889730535447597503662109375">
        <ele>734.20001220703125</ele>
        <time>2020-08-09T08:05:58.000Z</time>
      </trkpt>
      <trkpt lat="42.26499580778181552886962890625" lon="2.3888127319514751434326171875">
        <ele>734.5999755859375</ele>
        <time>2020-08-09T08:06:02.000Z</time>
      </trkpt>
      <trkpt lat="42.26500586606562137603759765625" lon="2.38875280134379863739013671875">
        <ele>735.20001220703125</ele>
        <time>2020-08-09T08:06:05.000Z</time>
      </trkpt>
      <trkpt lat="42.2650069557130336761474609375" lon="2.38867166452109813690185546875">
        <ele>735.5999755859375</ele>
        <time>2020-08-09T08:06:09.000Z</time>
      </trkpt>
      <trkpt lat="42.2650136612355709075927734375" lon="2.3885703273117542266845703125">
        <ele>736.20001220703125</ele>
        <time>2020-08-09T08:06:14.000Z</time>
      </trkpt>
      <trkpt lat="42.265017516911029815673828125" lon="2.38848994486033916473388671875">
        <ele>737</ele>
        <time>2020-08-09T08:06:18.000Z</time>
      </trkpt>
      <trkpt lat="42.2650196962058544158935546875" lon="2.3884482868015766143798828125">
        <ele>737.4000244140625</ele>
        <time>2020-08-09T08:06:20.000Z</time>
      </trkpt>
      <trkpt lat="42.26507493294775485992431640625" lon="2.38834644667804241180419921875">
        <ele>738.4000244140625</ele>
        <time>2020-08-09T08:06:26.000Z</time>
      </trkpt>
      <trkpt lat="42.26520426571369171142578125" lon="2.38831426016986370086669921875">
        <ele>739.4000244140625</ele>
        <time>2020-08-09T08:06:34.000Z</time>
      </trkpt>
      <trkpt lat="42.26523737423121929168701171875" lon="2.38831442780792713165283203125">
        <ele>739.4000244140625</ele>
        <time>2020-08-09T08:06:36.000Z</time>
      </trkpt>
      <trkpt lat="42.2653254680335521697998046875" lon="2.388304285705089569091796875">
        <ele>739.79998779296875</ele>
        <time>2020-08-09T08:06:41.000Z</time>
      </trkpt>
      <trkpt lat="42.2654555551707744598388671875" lon="2.38827981054782867431640625">
        <ele>740.20001220703125</ele>
        <time>2020-08-09T08:06:49.000Z</time>
      </trkpt>
      <trkpt lat="42.26550257764756679534912109375" lon="2.38827235065400600433349609375">
        <ele>740.4000244140625</ele>
        <time>2020-08-09T08:06:52.000Z</time>
      </trkpt>
      <trkpt lat="42.265595532953739166259765625" lon="2.3882536590099334716796875">
        <ele>741.20001220703125</ele>
        <time>2020-08-09T08:06:58.000Z</time>
      </trkpt>
      <trkpt lat="42.26565663702785968780517578125" lon="2.388260364532470703125">
        <ele>741.4000244140625</ele>
        <time>2020-08-09T08:07:02.000Z</time>
      </trkpt>
      <trkpt lat="42.26573945023119449615478515625" lon="2.38827419467270374298095703125">
        <ele>742</ele>
        <time>2020-08-09T08:07:07.000Z</time>
      </trkpt>
      <trkpt lat="42.26582787930965423583984375" lon="2.38830319605767726898193359375">
        <ele>742.4000244140625</ele>
        <time>2020-08-09T08:07:12.000Z</time>
      </trkpt>
      <trkpt lat="42.2658421285450458526611328125" lon="2.38830956630408763885498046875">
        <ele>742.5999755859375</ele>
        <time>2020-08-09T08:07:13.000Z</time>
      </trkpt>
      <trkpt lat="42.26593240164220333099365234375" lon="2.38832230679690837860107421875">
        <ele>743.20001220703125</ele>
        <time>2020-08-09T08:07:19.000Z</time>
      </trkpt>
      <trkpt lat="42.26599660702049732208251953125" lon="2.3883356340229511260986328125">
        <ele>743.5999755859375</ele>
        <time>2020-08-09T08:07:23.000Z</time>
      </trkpt>
      <trkpt lat="42.2660245187580585479736328125" lon="2.38834611140191555023193359375">
        <ele>744</ele>
        <time>2020-08-09T08:07:25.000Z</time>
      </trkpt>
      <trkpt lat="42.2660979442298412322998046875" lon="2.3883537389338016510009765625">
        <ele>744.5999755859375</ele>
        <time>2020-08-09T08:07:30.000Z</time>
      </trkpt>
      <trkpt lat="42.26613474078476428985595703125" lon="2.38835985772311687469482421875">
        <ele>745</ele>
        <time>2020-08-09T08:07:32.000Z</time>
      </trkpt>
      <trkpt lat="42.266231216490268707275390625" lon="2.388368658721446990966796875">
        <ele>745.79998779296875</ele>
        <time>2020-08-09T08:07:38.000Z</time>
      </trkpt>
      <trkpt lat="42.2663611359894275665283203125" lon="2.38838198594748973846435546875">
        <ele>746.79998779296875</ele>
        <time>2020-08-09T08:07:46.000Z</time>
      </trkpt>
      <trkpt lat="42.266506813466548919677734375" lon="2.388369999825954437255859375">
        <ele>747.79998779296875</ele>
        <time>2020-08-09T08:07:54.000Z</time>
      </trkpt>
      <trkpt lat="42.2665441967546939849853515625" lon="2.38836505450308322906494140625">
        <ele>748.20001220703125</ele>
        <time>2020-08-09T08:07:56.000Z</time>
      </trkpt>
      <trkpt lat="42.26665534079074859619140625" lon="2.38836740143597126007080078125">
        <ele>749</ele>
        <time>2020-08-09T08:08:02.000Z</time>
      </trkpt>
      <trkpt lat="42.26667386479675769805908203125" lon="2.3883654735982418060302734375">
        <ele>749</ele>
        <time>2020-08-09T08:08:03.000Z</time>
      </trkpt>
      <trkpt lat="42.2667825780808925628662109375" lon="2.3883594386279582977294921875">
        <ele>750</ele>
        <time>2020-08-09T08:08:09.000Z</time>
      </trkpt>
      <trkpt lat="42.26682038046419620513916015625" lon="2.38835382275283336639404296875">
        <ele>750.20001220703125</ele>
        <time>2020-08-09T08:08:11.000Z</time>
      </trkpt>
      <trkpt lat="42.26693169213831424713134765625" lon="2.38834711723029613494873046875">
        <ele>751</ele>
        <time>2020-08-09T08:08:17.000Z</time>
      </trkpt>
      <trkpt lat="42.2669696621596813201904296875" lon="2.38834594376385211944580078125">
        <ele>751.20001220703125</ele>
        <time>2020-08-09T08:08:19.000Z</time>
      </trkpt>
      <trkpt lat="42.26709413342177867889404296875" lon="2.3883654735982418060302734375">
        <ele>752.20001220703125</ele>
        <time>2020-08-09T08:08:26.000Z</time>
      </trkpt>
      <trkpt lat="42.26717845536768436431884765625" lon="2.3883815668523311614990234375">
        <ele>753.20001220703125</ele>
        <time>2020-08-09T08:08:31.000Z</time>
      </trkpt>
      <trkpt lat="42.26724366657435894012451171875" lon="2.38838617689907550811767578125">
        <ele>753.79998779296875</ele>
        <time>2020-08-09T08:08:35.000Z</time>
      </trkpt>
      <trkpt lat="42.26727635599672794342041015625" lon="2.38839053548872470855712890625">
        <ele>754.20001220703125</ele>
        <time>2020-08-09T08:08:37.000Z</time>
      </trkpt>
      <trkpt lat="42.26736805401742458343505859375" lon="2.38840025849640369415283203125">
        <ele>755.4000244140625</ele>
        <time>2020-08-09T08:08:43.000Z</time>
      </trkpt>
      <trkpt lat="42.26738297380506992340087890625" lon="2.38840713165700435638427734375">
        <ele>755.5999755859375</ele>
        <time>2020-08-09T08:08:44.000Z</time>
      </trkpt>
      <trkpt lat="42.26744147948920726776123046875" lon="2.388418614864349365234375">
        <ele>756.4000244140625</ele>
        <time>2020-08-09T08:08:48.000Z</time>
      </trkpt>
      <trkpt lat="42.26748456247150897979736328125" lon="2.3884197883307933807373046875">
        <ele>756.79998779296875</ele>
        <time>2020-08-09T08:08:51.000Z</time>
      </trkpt>
      <trkpt lat="42.2675289027392864227294921875" lon="2.38843428902328014373779296875">
        <ele>757.4000244140625</ele>
        <time>2020-08-09T08:08:54.000Z</time>
      </trkpt>
      <trkpt lat="42.267591096460819244384765625" lon="2.388435713946819305419921875">
        <ele>758.20001220703125</ele>
        <time>2020-08-09T08:08:58.000Z</time>
      </trkpt>
      <trkpt lat="42.26760693825781345367431640625" lon="2.38844015635550022125244140625">
        <ele>758.4000244140625</ele>
        <time>2020-08-09T08:08:59.000Z</time>
      </trkpt>
      <trkpt lat="42.26769561879336833953857421875" lon="2.3884697444736957550048828125">
        <ele>759.4000244140625</ele>
        <time>2020-08-09T08:09:05.000Z</time>
      </trkpt>
      <trkpt lat="42.26778580807149410247802734375" lon="2.3884603567421436309814453125">
        <ele>760.5999755859375</ele>
        <time>2020-08-09T08:09:11.000Z</time>
      </trkpt>
      <trkpt lat="42.2678603231906890869140625" lon="2.38845013082027435302734375">
        <ele>761.4000244140625</ele>
        <time>2020-08-09T08:09:16.000Z</time>
      </trkpt>
      <trkpt lat="42.26787507534027099609375" lon="2.3884519748389720916748046875">
        <ele>761.5999755859375</ele>
        <time>2020-08-09T08:09:17.000Z</time>
      </trkpt>
      <trkpt lat="42.2678898274898529052734375" lon="2.38845415413379669189453125">
        <ele>761.79998779296875</ele>
        <time>2020-08-09T08:09:18.000Z</time>
      </trkpt>
      <trkpt lat="42.26797909475862979888916015625" lon="2.38846890628337860107421875">
        <ele>762.79998779296875</ele>
        <time>2020-08-09T08:09:24.000Z</time>
      </trkpt>
      <trkpt lat="42.26804397068917751312255859375" lon="2.3884707503020763397216796875">
        <ele>763.79998779296875</ele>
        <time>2020-08-09T08:09:28.000Z</time>
      </trkpt>
      <trkpt lat="42.26807112805545330047607421875" lon="2.38846982829272747039794921875">
        <ele>764.20001220703125</ele>
        <time>2020-08-09T08:09:30.000Z</time>
      </trkpt>
      <trkpt lat="42.26808655075728893280029296875" lon="2.38846999593079090118408203125">
        <ele>764.20001220703125</ele>
        <time>2020-08-09T08:09:31.000Z</time>
      </trkpt>
      <trkpt lat="42.26815092377364635467529296875" lon="2.38847955130040645599365234375">
        <ele>765</ele>
        <time>2020-08-09T08:09:36.000Z</time>
      </trkpt>
      <trkpt lat="42.2681743092834949493408203125" lon="2.38848474808037281036376953125">
        <ele>765.20001220703125</ele>
        <time>2020-08-09T08:09:38.000Z</time>
      </trkpt>
      <trkpt lat="42.26822912693023681640625" lon="2.38846681080758571624755859375">
        <ele>766</ele>
        <time>2020-08-09T08:09:42.000Z</time>
      </trkpt>
      <trkpt lat="42.2682906500995159149169921875" lon="2.38845507614314556121826171875">
        <ele>766.5999755859375</ele>
        <time>2020-08-09T08:09:46.000Z</time>
      </trkpt>
      <trkpt lat="42.26832124404609203338623046875" lon="2.3884456045925617218017578125">
        <ele>767</ele>
        <time>2020-08-09T08:09:48.000Z</time>
      </trkpt>
      <trkpt lat="42.26833574473857879638671875" lon="2.388445772230625152587890625">
        <ele>767.20001220703125</ele>
        <time>2020-08-09T08:09:49.000Z</time>
      </trkpt>
      <trkpt lat="42.26837706752121448516845703125" lon="2.38844032399356365203857421875">
        <ele>767.79998779296875</ele>
        <time>2020-08-09T08:09:52.000Z</time>
      </trkpt>
      <trkpt lat="42.26842015050351619720458984375" lon="2.3884181119501590728759765625">
        <ele>768.20001220703125</ele>
        <time>2020-08-09T08:09:55.000Z</time>
      </trkpt>
      <trkpt lat="42.268503047525882720947265625" lon="2.38839036785066127777099609375">
        <ele>769</ele>
        <time>2020-08-09T08:10:01.000Z</time>
      </trkpt>
      <trkpt lat="42.26852978579699993133544921875" lon="2.38837779499590396881103515625">
        <ele>769.20001220703125</ele>
        <time>2020-08-09T08:10:03.000Z</time>
      </trkpt>
      <trkpt lat="42.26859617047011852264404296875" lon="2.38832004368305206298828125">
        <ele>769.79998779296875</ele>
        <time>2020-08-09T08:10:08.000Z</time>
      </trkpt>
      <trkpt lat="42.268608324229717254638671875" lon="2.38830906338989734649658203125">
        <ele>770</ele>
        <time>2020-08-09T08:10:09.000Z</time>
      </trkpt>
      <trkpt lat="42.26863556541502475738525390625" lon="2.3882873542606830596923828125">
        <ele>770.20001220703125</ele>
        <time>2020-08-09T08:10:11.000Z</time>
      </trkpt>
      <trkpt lat="42.2687060572206974029541015625" lon="2.38824200816452503204345703125">
        <ele>771</ele>
        <time>2020-08-09T08:10:16.000Z</time>
      </trkpt>
      <trkpt lat="42.26873405277729034423828125" lon="2.38822356797754764556884765625">
        <ele>771.20001220703125</ele>
        <time>2020-08-09T08:10:18.000Z</time>
      </trkpt>
      <trkpt lat="42.268802784383296966552734375" lon="2.38819423131644725799560546875">
        <ele>772.20001220703125</ele>
        <time>2020-08-09T08:10:23.000Z</time>
      </trkpt>
      <trkpt lat="42.26883103139698505401611328125" lon="2.38818232901394367218017578125">
        <ele>772.5999755859375</ele>
        <time>2020-08-09T08:10:25.000Z</time>
      </trkpt>
      <trkpt lat="42.2688988409936428070068359375" lon="2.38815869204699993133544921875">
        <ele>773.4000244140625</ele>
        <time>2020-08-09T08:10:30.000Z</time>
      </trkpt>
      <trkpt lat="42.26892591454088687896728515625" lon="2.388139329850673675537109375">
        <ele>773.79998779296875</ele>
        <time>2020-08-09T08:10:32.000Z</time>
      </trkpt>
      <trkpt lat="42.26898358203470706939697265625" lon="2.38808258436620235443115234375">
        <ele>774.4000244140625</ele>
        <time>2020-08-09T08:10:37.000Z</time>
      </trkpt>
      <trkpt lat="42.2690037824213504791259765625" lon="2.38805945031344890594482421875">
        <ele>774.79998779296875</ele>
        <time>2020-08-09T08:10:39.000Z</time>
      </trkpt>
      <trkpt lat="42.2690664790570735931396484375" lon="2.38799281418323516845703125">
        <ele>775.20001220703125</ele>
        <time>2020-08-09T08:10:44.000Z</time>
      </trkpt>
      <trkpt lat="42.2691107355058193206787109375" lon="2.3879601247608661651611328125">
        <ele>775.5999755859375</ele>
        <time>2020-08-09T08:10:47.000Z</time>
      </trkpt>
      <trkpt lat="42.26916329003870487213134765625" lon="2.38790958188474178314208984375">
        <ele>776.4000244140625</ele>
        <time>2020-08-09T08:10:51.000Z</time>
      </trkpt>
      <trkpt lat="42.269221879541873931884765625" lon="2.3878759704530239105224609375">
        <ele>777.20001220703125</ele>
        <time>2020-08-09T08:10:55.000Z</time>
      </trkpt>
      <trkpt lat="42.26923638023436069488525390625" lon="2.38786649890244007110595703125">
        <ele>777.4000244140625</ele>
        <time>2020-08-09T08:10:56.000Z</time>
      </trkpt>
      <trkpt lat="42.26934752427041530609130859375" lon="2.3877991922199726104736328125">
        <ele>778</ele>
        <time>2020-08-09T08:11:03.000Z</time>
      </trkpt>
      <trkpt lat="42.26947409100830554962158203125" lon="2.3876925744116306304931640625">
        <ele>778.20001220703125</ele>
        <time>2020-08-09T08:11:10.000Z</time>
      </trkpt>
      <trkpt lat="42.26960518397390842437744140625" lon="2.3876171372830867767333984375">
        <ele>778.79998779296875</ele>
        <time>2020-08-09T08:11:17.000Z</time>
      </trkpt>
      <trkpt lat="42.26971331052482128143310546875" lon="2.3875403590500354766845703125">
        <ele>779.4000244140625</ele>
        <time>2020-08-09T08:11:23.000Z</time>
      </trkpt>
      <trkpt lat="42.26974884979426860809326171875" lon="2.38751160912215709686279296875">
        <ele>779.5999755859375</ele>
        <time>2020-08-09T08:11:25.000Z</time>
      </trkpt>
      <trkpt lat="42.26987407542765140533447265625" lon="2.3874324001371860504150390625">
        <ele>780.20001220703125</ele>
        <time>2020-08-09T08:11:32.000Z</time>
      </trkpt>
      <trkpt lat="42.26988178677856922149658203125" lon="2.38742762245237827301025390625">
        <ele>780.4000244140625</ele>
        <time>2020-08-09T08:11:35.000Z</time>
      </trkpt>
      <trkpt lat="42.26988078095018863677978515625" lon="2.38742812536656856536865234375">
        <ele>780.4000244140625</ele>
        <time>2020-08-09T08:11:36.000Z</time>
      </trkpt>
      <trkpt lat="42.269880361855030059814453125" lon="2.3874280415475368499755859375">
        <ele>780.5999755859375</ele>
        <time>2020-08-09T08:11:51.000Z</time>
      </trkpt>
      <trkpt lat="42.2698800265789031982421875" lon="2.38742426969110965728759765625">
        <ele>780.4000244140625</ele>
        <time>2020-08-09T08:12:37.000Z</time>
      </trkpt>
      <trkpt lat="42.26989704184234142303466796875" lon="2.38740884698927402496337890625">
        <ele>780.4000244140625</ele>
        <time>2020-08-09T08:12:49.000Z</time>
      </trkpt>
      <trkpt lat="42.26990760304033756256103515625" lon="2.387396357953548431396484375">
        <ele>780.4000244140625</ele>
        <time>2020-08-09T08:12:50.000Z</time>
      </trkpt>
      <trkpt lat="42.26994833908975124359130859375" lon="2.38731681369245052337646484375">
        <ele>780.4000244140625</ele>
        <time>2020-08-09T08:12:54.000Z</time>
      </trkpt>
      <trkpt lat="42.26995303295552730560302734375" lon="2.3872915841639041900634765625">
        <ele>780.4000244140625</ele>
        <time>2020-08-09T08:12:55.000Z</time>
      </trkpt>
      <trkpt lat="42.269951440393924713134765625" lon="2.387185804545879364013671875">
        <ele>780.5999755859375</ele>
        <time>2020-08-09T08:12:59.000Z</time>
      </trkpt>
      <trkpt lat="42.26988631300628185272216796875" lon="2.38702679984271526336669921875">
        <ele>780.5999755859375</ele>
        <time>2020-08-09T08:13:06.000Z</time>
      </trkpt>
      <trkpt lat="42.269829399883747100830078125" lon="2.3869740776717662811279296875">
        <ele>781</ele>
        <time>2020-08-09T08:13:10.000Z</time>
      </trkpt>
      <trkpt lat="42.269787155091762542724609375" lon="2.386951446533203125">
        <ele>781.4000244140625</ele>
        <time>2020-08-09T08:13:13.000Z</time>
      </trkpt>
      <trkpt lat="42.26973074488341808319091796875" lon="2.38692537881433963775634765625">
        <ele>782</ele>
        <time>2020-08-09T08:13:17.000Z</time>
      </trkpt>
      <trkpt lat="42.2697008214890956878662109375" lon="2.386920265853404998779296875">
        <ele>782.20001220703125</ele>
        <time>2020-08-09T08:13:19.000Z</time>
      </trkpt>
      <trkpt lat="42.26960434578359127044677734375" lon="2.38688103854656219482421875">
        <ele>783.20001220703125</ele>
        <time>2020-08-09T08:13:26.000Z</time>
      </trkpt>
      <trkpt lat="42.2695911861956119537353515625" lon="2.38687676377594470977783203125">
        <ele>783.4000244140625</ele>
        <time>2020-08-09T08:13:27.000Z</time>
      </trkpt>
      <trkpt lat="42.269543074071407318115234375" lon="2.38684709183871746063232421875">
        <ele>784.20001220703125</ele>
        <time>2020-08-09T08:13:31.000Z</time>
      </trkpt>
      <trkpt lat="42.26950585842132568359375" lon="2.3868349380791187286376953125">
        <ele>784.5999755859375</ele>
        <time>2020-08-09T08:13:34.000Z</time>
      </trkpt>
      <trkpt lat="42.2694329358637332916259765625" lon="2.3868339322507381439208984375">
        <ele>785.20001220703125</ele>
        <time>2020-08-09T08:13:39.000Z</time>
      </trkpt>
      <trkpt lat="42.26942111738026142120361328125" lon="2.3868322558701038360595703125">
        <ele>785.4000244140625</ele>
        <time>2020-08-09T08:13:40.000Z</time>
      </trkpt>
      <trkpt lat="42.26933847181499004364013671875" lon="2.386823706328868865966796875">
        <ele>786.20001220703125</ele>
        <time>2020-08-09T08:13:46.000Z</time>
      </trkpt>
      <trkpt lat="42.26932405494153499603271484375" lon="2.3868198506534099578857421875">
        <ele>786.20001220703125</ele>
        <time>2020-08-09T08:13:47.000Z</time>
      </trkpt>
      <trkpt lat="42.26923772133886814117431640625" lon="2.386802919209003448486328125">
        <ele>787.20001220703125</ele>
        <time>2020-08-09T08:13:53.000Z</time>
      </trkpt>
      <trkpt lat="42.26920888759195804595947265625" lon="2.3867983929812908172607421875">
        <ele>787.4000244140625</ele>
        <time>2020-08-09T08:13:55.000Z</time>
      </trkpt>
      <trkpt lat="42.26915524341166019439697265625" lon="2.38678037188947200775146484375">
        <ele>788.4000244140625</ele>
        <time>2020-08-09T08:13:59.000Z</time>
      </trkpt>
      <trkpt lat="42.2691271640360355377197265625" lon="2.38678825087845325469970703125">
        <ele>788.79998779296875</ele>
        <time>2020-08-09T08:14:01.000Z</time>
      </trkpt>
      <trkpt lat="42.26907528005540370941162109375" lon="2.386789508163928985595703125">
        <ele>789.4000244140625</ele>
        <time>2020-08-09T08:14:05.000Z</time>
      </trkpt>
      <trkpt lat="42.26902616210281848907470703125" lon="2.386790178716182708740234375">
        <ele>790</ele>
        <time>2020-08-09T08:14:08.000Z</time>
      </trkpt>
      <trkpt lat="42.268995232880115509033203125" lon="2.38678858615458011627197265625">
        <ele>790.5999755859375</ele>
        <time>2020-08-09T08:14:10.000Z</time>
      </trkpt>
      <trkpt lat="42.26890747435390949249267578125" lon="2.38677634857594966888427734375">
        <ele>791.4000244140625</ele>
        <time>2020-08-09T08:14:16.000Z</time>
      </trkpt>
      <trkpt lat="42.2688519023358821868896484375" lon="2.38675455562770366668701171875">
        <ele>792.4000244140625</ele>
        <time>2020-08-09T08:14:21.000Z</time>
      </trkpt>
      <trkpt lat="42.26883203722536563873291015625" lon="2.3867343552410602569580078125">
        <ele>792.79998779296875</ele>
        <time>2020-08-09T08:14:23.000Z</time>
      </trkpt>
      <trkpt lat="42.26878945715725421905517578125" lon="2.3867098800837993621826171875">
        <ele>793.5999755859375</ele>
        <time>2020-08-09T08:14:27.000Z</time>
      </trkpt>
      <trkpt lat="42.26878241635859012603759765625" lon="2.38669638521969318389892578125">
        <ele>794</ele>
        <time>2020-08-09T08:14:28.000Z</time>
      </trkpt>
      <trkpt lat="42.26877721957862377166748046875" lon="2.38665615208446979522705078125">
        <ele>794.4000244140625</ele>
        <time>2020-08-09T08:14:30.000Z</time>
      </trkpt>
      <trkpt lat="42.26878560148179531097412109375" lon="2.38661541603505611419677734375">
        <ele>794.79998779296875</ele>
        <time>2020-08-09T08:14:32.000Z</time>
      </trkpt>
      <trkpt lat="42.268788702785968780517578125" lon="2.386594712734222412109375">
        <ele>794.79998779296875</ele>
        <time>2020-08-09T08:14:33.000Z</time>
      </trkpt>
      <trkpt lat="42.26880420930683612823486328125" lon="2.386534698307514190673828125">
        <ele>795.20001220703125</ele>
        <time>2020-08-09T08:14:36.000Z</time>
      </trkpt>
      <trkpt lat="42.268816530704498291015625" lon="2.3864798806607723236083984375">
        <ele>795.79998779296875</ele>
        <time>2020-08-09T08:14:39.000Z</time>
      </trkpt>
      <trkpt lat="42.26884142495691776275634765625" lon="2.3864057846367359161376953125">
        <ele>796.4000244140625</ele>
        <time>2020-08-09T08:14:43.000Z</time>
      </trkpt>
      <trkpt lat="42.2688555903732776641845703125" lon="2.38632716238498687744140625">
        <ele>796.79998779296875</ele>
        <time>2020-08-09T08:14:47.000Z</time>
      </trkpt>
      <trkpt lat="42.26887059397995471954345703125" lon="2.3862696625292301177978515625">
        <ele>797.20001220703125</ele>
        <time>2020-08-09T08:14:50.000Z</time>
      </trkpt>
      <trkpt lat="42.26889498531818389892578125" lon="2.38612339831888675689697265625">
        <ele>797.5999755859375</ele>
        <time>2020-08-09T08:14:57.000Z</time>
      </trkpt>
      <trkpt lat="42.268899343907833099365234375" lon="2.3861003480851650238037109375">
        <ele>797.79998779296875</ele>
        <time>2020-08-09T08:14:58.000Z</time>
      </trkpt>
      <trkpt lat="42.2689182870090007781982421875" lon="2.3859799839556217193603515625">
        <ele>798.5999755859375</ele>
        <time>2020-08-09T08:15:03.000Z</time>
      </trkpt>
      <trkpt lat="42.2689310275018215179443359375" lon="2.38585735671222209930419921875">
        <ele>799</ele>
        <time>2020-08-09T08:15:08.000Z</time>
      </trkpt>
      <trkpt lat="42.268945612013339996337890625" lon="2.385783009231090545654296875">
        <ele>799.4000244140625</ele>
        <time>2020-08-09T08:15:11.000Z</time>
      </trkpt>
      <trkpt lat="42.2689964063465595245361328125" lon="2.3856224119663238525390625">
        <ele>800</ele>
        <time>2020-08-09T08:15:18.000Z</time>
      </trkpt>
      <trkpt lat="42.2690163552761077880859375" lon="2.38558016717433929443359375">
        <ele>800.20001220703125</ele>
        <time>2020-08-09T08:15:20.000Z</time>
      </trkpt>
      <trkpt lat="42.26904963143169879913330078125" lon="2.3854693584144115447998046875">
        <ele>800.79998779296875</ele>
        <time>2020-08-09T08:15:25.000Z</time>
      </trkpt>
      <trkpt lat="42.26906907744705677032470703125" lon="2.3853707872331142425537109375">
        <ele>801.20001220703125</ele>
        <time>2020-08-09T08:15:29.000Z</time>
      </trkpt>
      <trkpt lat="42.26908232085406780242919921875" lon="2.3852668516337871551513671875">
        <ele>801.5999755859375</ele>
        <time>2020-08-09T08:15:33.000Z</time>
      </trkpt>
      <trkpt lat="42.26910595782101154327392578125" lon="2.3851905763149261474609375">
        <ele>802.20001220703125</ele>
        <time>2020-08-09T08:15:36.000Z</time>
      </trkpt>
      <trkpt lat="42.26915650069713592529296875" lon="2.3850207589566707611083984375">
        <ele>802.79998779296875</ele>
        <time>2020-08-09T08:15:43.000Z</time>
      </trkpt>
      <trkpt lat="42.26916865445673465728759765625" lon="2.384974323213100433349609375">
        <ele>803.20001220703125</ele>
        <time>2020-08-09T08:15:45.000Z</time>
      </trkpt>
      <trkpt lat="42.2692039422690868377685546875" lon="2.38480827771127223968505859375">
        <ele>804.20001220703125</ele>
        <time>2020-08-09T08:15:52.000Z</time>
      </trkpt>
      <trkpt lat="42.26920100860297679901123046875" lon="2.38478581421077251434326171875">
        <ele>804.20001220703125</ele>
        <time>2020-08-09T08:15:53.000Z</time>
      </trkpt>
      <trkpt lat="42.269189357757568359375" lon="2.38470710813999176025390625">
        <ele>804.79998779296875</ele>
        <time>2020-08-09T08:15:57.000Z</time>
      </trkpt>
      <trkpt lat="42.26914971135556697845458984375" lon="2.38459755666553974151611328125">
        <ele>805.4000244140625</ele>
        <time>2020-08-09T08:16:02.000Z</time>
      </trkpt>
      <trkpt lat="42.26914116181433200836181640625" lon="2.38455262966454029083251953125">
        <ele>805.79998779296875</ele>
        <time>2020-08-09T08:16:04.000Z</time>
      </trkpt>
      <trkpt lat="42.269129343330860137939453125" lon="2.38445690833032131195068359375">
        <ele>806.4000244140625</ele>
        <time>2020-08-09T08:16:08.000Z</time>
      </trkpt>
      <trkpt lat="42.269142754375934600830078125" lon="2.3843629471957683563232421875">
        <ele>807.4000244140625</ele>
        <time>2020-08-09T08:16:12.000Z</time>
      </trkpt>
      <trkpt lat="42.269156165421009063720703125" lon="2.384320199489593505859375">
        <ele>807.5999755859375</ele>
        <time>2020-08-09T08:16:14.000Z</time>
      </trkpt>
      <trkpt lat="42.269167564809322357177734375" lon="2.3842196166515350341796875">
        <ele>808.4000244140625</ele>
        <time>2020-08-09T08:16:19.000Z</time>
      </trkpt>
      <trkpt lat="42.26916194893419742584228515625" lon="2.38417594693601131439208984375">
        <ele>808.5999755859375</ele>
        <time>2020-08-09T08:16:21.000Z</time>
      </trkpt>
      <trkpt lat="42.26914015598595142364501953125" lon="2.3840789683163166046142578125">
        <ele>809.5999755859375</ele>
        <time>2020-08-09T08:16:26.000Z</time>
      </trkpt>
      <trkpt lat="42.26913906633853912353515625" lon="2.38405943848192691802978515625">
        <ele>809.79998779296875</ele>
        <time>2020-08-09T08:16:27.000Z</time>
      </trkpt>
      <trkpt lat="42.26914552040398120880126953125" lon="2.3839594423770904541015625">
        <ele>810.79998779296875</ele>
        <time>2020-08-09T08:16:32.000Z</time>
      </trkpt>
      <trkpt lat="42.269154824316501617431640625" lon="2.38388056866824626922607421875">
        <ele>811.4000244140625</ele>
        <time>2020-08-09T08:16:36.000Z</time>
      </trkpt>
      <trkpt lat="42.269170917570590972900390625" lon="2.3838244937360286712646484375">
        <ele>811.79998779296875</ele>
        <time>2020-08-09T08:16:39.000Z</time>
      </trkpt>
      <trkpt lat="42.26920788176357746124267578125" lon="2.38376691006124019622802734375">
        <ele>813</ele>
        <time>2020-08-09T08:16:43.000Z</time>
      </trkpt>
      <trkpt lat="42.26931340992450714111328125" lon="2.383638583123683929443359375">
        <ele>814</ele>
        <time>2020-08-09T08:16:52.000Z</time>
      </trkpt>
      <trkpt lat="42.26932547986507415771484375" lon="2.38362492062151432037353515625">
        <ele>814.20001220703125</ele>
        <time>2020-08-09T08:16:53.000Z</time>
      </trkpt>
      <trkpt lat="42.2693918645381927490234375" lon="2.3835421912372112274169921875">
        <ele>815.20001220703125</ele>
        <time>2020-08-09T08:16:59.000Z</time>
      </trkpt>
      <trkpt lat="42.26939949207007884979248046875" lon="2.383525259792804718017578125">
        <ele>815.20001220703125</ele>
        <time>2020-08-09T08:17:00.000Z</time>
      </trkpt>
      <trkpt lat="42.26941424421966075897216796875" lon="2.38338201306760311126708984375">
        <ele>816.20001220703125</ele>
        <time>2020-08-09T08:17:07.000Z</time>
      </trkpt>
      <trkpt lat="42.269396893680095672607421875" lon="2.3833427019417285919189453125">
        <ele>816.4000244140625</ele>
        <time>2020-08-09T08:17:09.000Z</time>
      </trkpt>
      <trkpt lat="42.26934383623301982879638671875" lon="2.3832273669540882110595703125">
        <ele>817</ele>
        <time>2020-08-09T08:17:15.000Z</time>
      </trkpt>
      <trkpt lat="42.2693229652941226959228515625" lon="2.38319308497011661529541015625">
        <ele>817.20001220703125</ele>
        <time>2020-08-09T08:17:17.000Z</time>
      </trkpt>
      <trkpt lat="42.2692756913602352142333984375" lon="2.38313927315175533294677734375">
        <ele>817.79998779296875</ele>
        <time>2020-08-09T08:17:21.000Z</time>
      </trkpt>
      <trkpt lat="42.2692411579191684722900390625" lon="2.3830689489841461181640625">
        <ele>818.20001220703125</ele>
        <time>2020-08-09T08:17:25.000Z</time>
      </trkpt>
      <trkpt lat="42.269218862056732177734375" lon="2.38301572389900684356689453125">
        <ele>818.5999755859375</ele>
        <time>2020-08-09T08:17:28.000Z</time>
      </trkpt>
      <trkpt lat="42.26920519955456256866455078125" lon="2.382957637310028076171875">
        <ele>819.4000244140625</ele>
        <time>2020-08-09T08:17:31.000Z</time>
      </trkpt>
      <trkpt lat="42.26919715292751789093017578125" lon="2.38287515938282012939453125">
        <ele>820.20001220703125</ele>
        <time>2020-08-09T08:17:35.000Z</time>
      </trkpt>
      <trkpt lat="42.26919095031917095184326171875" lon="2.38283484242856502532958984375">
        <ele>820.5999755859375</ele>
        <time>2020-08-09T08:17:37.000Z</time>
      </trkpt>
      <trkpt lat="42.26919044740498065948486328125" lon="2.3827180825173854827880859375">
        <ele>821.79998779296875</ele>
        <time>2020-08-09T08:17:43.000Z</time>
      </trkpt>
      <trkpt lat="42.26919128559529781341552734375" lon="2.38262261264026165008544921875">
        <ele>822.79998779296875</ele>
        <time>2020-08-09T08:17:48.000Z</time>
      </trkpt>
      <trkpt lat="42.26919128559529781341552734375" lon="2.38256226293742656707763671875">
        <ele>823.4000244140625</ele>
        <time>2020-08-09T08:17:51.000Z</time>
      </trkpt>
      <trkpt lat="42.2691898606717586517333984375" lon="2.38252236507833003997802734375">
        <ele>823.79998779296875</ele>
        <time>2020-08-09T08:17:53.000Z</time>
      </trkpt>
      <trkpt lat="42.269193045794963836669921875" lon="2.3823764361441135406494140625">
        <ele>824.79998779296875</ele>
        <time>2020-08-09T08:18:00.000Z</time>
      </trkpt>
      <trkpt lat="42.26919564418494701385498046875" lon="2.38235472701489925384521484375">
        <ele>825</ele>
        <time>2020-08-09T08:18:01.000Z</time>
      </trkpt>
      <trkpt lat="42.26920603774487972259521484375" lon="2.3822044394910335540771484375">
        <ele>826</ele>
        <time>2020-08-09T08:18:08.000Z</time>
      </trkpt>
      <trkpt lat="42.26920855231583118438720703125" lon="2.3821838200092315673828125">
        <ele>826.20001220703125</ele>
        <time>2020-08-09T08:18:09.000Z</time>
      </trkpt>
      <trkpt lat="42.26921953260898590087890625" lon="2.38206286914646625518798828125">
        <ele>826.5999755859375</ele>
        <time>2020-08-09T08:18:15.000Z</time>
      </trkpt>
      <trkpt lat="42.2692290879786014556884765625" lon="2.38199950195848941802978515625">
        <ele>827</ele>
        <time>2020-08-09T08:18:18.000Z</time>
      </trkpt>
      <trkpt lat="42.2692525573074817657470703125" lon="2.3819000087678432464599609375">
        <ele>828.20001220703125</ele>
        <time>2020-08-09T08:18:23.000Z</time>
      </trkpt>
      <trkpt lat="42.26926571689546108245849609375" lon="2.381798923015594482421875">
        <ele>829.20001220703125</ele>
        <time>2020-08-09T08:18:29.000Z</time>
      </trkpt>
      <trkpt lat="42.26926487870514392852783203125" lon="2.38174603320658206939697265625">
        <ele>829.79998779296875</ele>
        <time>2020-08-09T08:18:32.000Z</time>
      </trkpt>
      <trkpt lat="42.26924224756658077239990234375" lon="2.3816897906363010406494140625">
        <ele>830.20001220703125</ele>
        <time>2020-08-09T08:18:35.000Z</time>
      </trkpt>
      <trkpt lat="42.2691972367465496063232421875" lon="2.38162114284932613372802734375">
        <ele>830.79998779296875</ele>
        <time>2020-08-09T08:18:39.000Z</time>
      </trkpt>
      <trkpt lat="42.26915339939296245574951171875" lon="2.3815865255892276763916015625">
        <ele>831.20001220703125</ele>
        <time>2020-08-09T08:18:42.000Z</time>
      </trkpt>
      <trkpt lat="42.2690644674003124237060546875" lon="2.3815580271184444427490234375">
        <ele>832.20001220703125</ele>
        <time>2020-08-09T08:18:48.000Z</time>
      </trkpt>
      <trkpt lat="42.26903152652084827423095703125" lon="2.3815640620887279510498046875">
        <ele>832.4000244140625</ele>
        <time>2020-08-09T08:18:50.000Z</time>
      </trkpt>
      <trkpt lat="42.2689457796514034271240234375" lon="2.38161988556385040283203125">
        <ele>833.4000244140625</ele>
        <time>2020-08-09T08:18:56.000Z</time>
      </trkpt>
      <trkpt lat="42.26893245242536067962646484375" lon="2.3816321231424808502197265625">
        <ele>833.5999755859375</ele>
        <time>2020-08-09T08:18:57.000Z</time>
      </trkpt>
      <trkpt lat="42.2688715159893035888671875" lon="2.3816991783678531646728515625">
        <ele>834.5999755859375</ele>
        <time>2020-08-09T08:19:02.000Z</time>
      </trkpt>
      <trkpt lat="42.2688599489629268646240234375" lon="2.381713092327117919921875">
        <ele>834.79998779296875</ele>
        <time>2020-08-09T08:19:03.000Z</time>
      </trkpt>
      <trkpt lat="42.26878375746309757232666015625" lon="2.38181476481258869171142578125">
        <ele>835.4000244140625</ele>
        <time>2020-08-09T08:19:10.000Z</time>
      </trkpt>
      <trkpt lat="42.26875928230583667755126953125" lon="2.381845526397228240966796875">
        <ele>835.5999755859375</ele>
        <time>2020-08-09T08:19:12.000Z</time>
      </trkpt>
      <trkpt lat="42.26871083490550518035888671875" lon="2.38191668875515460968017578125">
        <ele>836.4000244140625</ele>
        <time>2020-08-09T08:19:17.000Z</time>
      </trkpt>
      <trkpt lat="42.26869071833789348602294921875" lon="2.38194250501692295074462890625">
        <ele>836.5999755859375</ele>
        <time>2020-08-09T08:19:19.000Z</time>
      </trkpt>
      <trkpt lat="42.268633805215358734130859375" lon="2.38201727159321308135986328125">
        <ele>837.20001220703125</ele>
        <time>2020-08-09T08:19:24.000Z</time>
      </trkpt>
      <trkpt lat="42.26859600283205509185791015625" lon="2.382059432566165924072265625">
        <ele>837.5999755859375</ele>
        <time>2020-08-09T08:19:27.000Z</time>
      </trkpt>
      <trkpt lat="42.268500030040740966796875" lon="2.382127828896045684814453125">
        <ele>838.5999755859375</ele>
        <time>2020-08-09T08:19:34.000Z</time>
      </trkpt>
      <trkpt lat="42.26848536171019077301025390625" lon="2.38214065320789813995361328125">
        <ele>838.79998779296875</ele>
        <time>2020-08-09T08:19:35.000Z</time>
      </trkpt>
      <trkpt lat="42.2684128582477569580078125" lon="2.3822067864239215850830078125">
        <ele>839.4000244140625</ele>
        <time>2020-08-09T08:19:40.000Z</time>
      </trkpt>
      <trkpt lat="42.268358208239078521728515625" lon="2.382254563271999359130859375">
        <ele>839.79998779296875</ele>
        <time>2020-08-09T08:19:44.000Z</time>
      </trkpt>
      <trkpt lat="42.26830062456429004669189453125" lon="2.3822899349033832550048828125">
        <ele>840.20001220703125</ele>
        <time>2020-08-09T08:19:48.000Z</time>
      </trkpt>
      <trkpt lat="42.26824949495494365692138671875" lon="2.382333017885684967041015625">
        <ele>840.79998779296875</ele>
        <time>2020-08-09T08:19:52.000Z</time>
      </trkpt>
      <trkpt lat="42.2681981138885021209716796875" lon="2.38237224519252777099609375">
        <ele>841.20001220703125</ele>
        <time>2020-08-09T08:19:56.000Z</time>
      </trkpt>
      <trkpt lat="42.26815913803875446319580078125" lon="2.38240837119519710540771484375">
        <ele>842</ele>
        <time>2020-08-09T08:19:59.000Z</time>
      </trkpt>
      <trkpt lat="42.26810733787715435028076171875" lon="2.38245849497616291046142578125">
        <ele>842.4000244140625</ele>
        <time>2020-08-09T08:20:03.000Z</time>
      </trkpt>
      <trkpt lat="42.26804665289819240570068359375" lon="2.38252387382090091705322265625">
        <ele>843.20001220703125</ele>
        <time>2020-08-09T08:20:08.000Z</time>
      </trkpt>
      <trkpt lat="42.268035002052783966064453125" lon="2.38253711722791194915771484375">
        <ele>843.4000244140625</ele>
        <time>2020-08-09T08:20:09.000Z</time>
      </trkpt>
      <trkpt lat="42.2679429687559604644775390625" lon="2.38265127874910831451416015625">
        <ele>844</ele>
        <time>2020-08-09T08:20:17.000Z</time>
      </trkpt>
      <trkpt lat="42.2679312340915203094482421875" lon="2.38266460597515106201171875">
        <ele>844.20001220703125</ele>
        <time>2020-08-09T08:20:18.000Z</time>
      </trkpt>
      <trkpt lat="42.26787499152123928070068359375" lon="2.38273375667631626129150390625">
        <ele>844.79998779296875</ele>
        <time>2020-08-09T08:20:23.000Z</time>
      </trkpt>
      <trkpt lat="42.26783878169953823089599609375" lon="2.382771559059619903564453125">
        <ele>845</ele>
        <time>2020-08-09T08:20:26.000Z</time>
      </trkpt>
      <trkpt lat="42.2677703015506267547607421875" lon="2.382843978703022003173828125">
        <ele>845.79998779296875</ele>
        <time>2020-08-09T08:20:32.000Z</time>
      </trkpt>
      <trkpt lat="42.267764769494533538818359375" lon="2.38285713829100131988525390625">
        <ele>845.79998779296875</ele>
        <time>2020-08-09T08:20:33.000Z</time>
      </trkpt>
      <trkpt lat="42.2677424736320972442626953125" lon="2.3828853853046894073486328125">
        <ele>846</ele>
        <time>2020-08-09T08:20:35.000Z</time>
      </trkpt>
      <trkpt lat="42.26770752109587192535400390625" lon="2.3829336650669574737548828125">
        <ele>846.20001220703125</ele>
        <time>2020-08-09T08:20:38.000Z</time>
      </trkpt>
      <trkpt lat="42.26764348335564136505126953125" lon="2.38303684629499912261962890625">
        <ele>847</ele>
        <time>2020-08-09T08:20:44.000Z</time>
      </trkpt>
      <trkpt lat="42.26763275451958179473876953125" lon="2.3830520175397396087646484375">
        <ele>847.20001220703125</ele>
        <time>2020-08-09T08:20:45.000Z</time>
      </trkpt>
      <trkpt lat="42.26757106371223926544189453125" lon="2.38312016241252422332763671875">
        <ele>848</ele>
        <time>2020-08-09T08:20:50.000Z</time>
      </trkpt>
      <trkpt lat="42.26756167598068714141845703125" lon="2.3831365071237087249755859375">
        <ele>848.20001220703125</ele>
        <time>2020-08-09T08:20:51.000Z</time>
      </trkpt>
      <trkpt lat="42.26754055358469486236572265625" lon="2.38316617906093597412109375">
        <ele>848.4000244140625</ele>
        <time>2020-08-09T08:20:53.000Z</time>
      </trkpt>
      <trkpt lat="42.26748154498636722564697265625" lon="2.38323432393372058868408203125">
        <ele>849</ele>
        <time>2020-08-09T08:20:59.000Z</time>
      </trkpt>
      <trkpt lat="42.26746947504580020904541015625" lon="2.3832471482455730438232421875">
        <ele>849</ele>
        <time>2020-08-09T08:21:00.000Z</time>
      </trkpt>
      <trkpt lat="42.26741767488420009613037109375" lon="2.38331370055675506591796875">
        <ele>849.5999755859375</ele>
        <time>2020-08-09T08:21:05.000Z</time>
      </trkpt>
      <trkpt lat="42.2673679701983928680419921875" lon="2.38337866030633449554443359375">
        <ele>850</ele>
        <time>2020-08-09T08:21:10.000Z</time>
      </trkpt>
      <trkpt lat="42.26735430769622325897216796875" lon="2.38339777104556560516357421875">
        <ele>850.4000244140625</ele>
        <time>2020-08-09T08:21:12.000Z</time>
      </trkpt>
      <trkpt lat="42.26735212840139865875244140625" lon="2.3834074102342128753662109375">
        <ele>850.4000244140625</ele>
        <time>2020-08-09T08:21:14.000Z</time>
      </trkpt>
      <trkpt lat="42.26733000017702579498291015625" lon="2.38343171775341033935546875">
        <ele>850.5999755859375</ele>
        <time>2020-08-09T08:27:38.000Z</time>
      </trkpt>
      <trkpt lat="42.26732882671058177947998046875" lon="2.383438758552074432373046875">
        <ele>850.5999755859375</ele>
        <time>2020-08-09T08:27:41.000Z</time>
      </trkpt>
      <trkpt lat="42.26732128299772739410400390625" lon="2.383461892604827880859375">
        <ele>850.5999755859375</ele>
        <time>2020-08-09T08:27:43.000Z</time>
      </trkpt>
      <trkpt lat="42.2672787867486476898193359375" lon="2.3835200630128383636474609375">
        <ele>851.20001220703125</ele>
        <time>2020-08-09T08:27:50.000Z</time>
      </trkpt>
      <trkpt lat="42.26722505874931812286376953125" lon="2.38360312767326831817626953125">
        <ele>851.79998779296875</ele>
        <time>2020-08-09T08:27:57.000Z</time>
      </trkpt>
      <trkpt lat="42.26721801795065402984619140625" lon="2.38361737690865993499755859375">
        <ele>852</ele>
        <time>2020-08-09T08:27:58.000Z</time>
      </trkpt>
      <trkpt lat="42.26715624332427978515625" lon="2.38371293060481548309326171875">
        <ele>852.5999755859375</ele>
        <time>2020-08-09T08:28:05.000Z</time>
      </trkpt>
      <trkpt lat="42.267147190868854522705078125" lon="2.38372600637376308441162109375">
        <ele>852.79998779296875</ele>
        <time>2020-08-09T08:28:06.000Z</time>
      </trkpt>
      <trkpt lat="42.26707854308187961578369140625" lon="2.38377294503152370452880859375">
        <ele>853.79998779296875</ele>
        <time>2020-08-09T08:28:12.000Z</time>
      </trkpt>
      <trkpt lat="42.267066054046154022216796875" lon="2.38376925699412822723388671875">
        <ele>854</ele>
        <time>2020-08-09T08:28:13.000Z</time>
      </trkpt>
      <trkpt lat="42.2670229710638523101806640625" lon="2.38370002247393131256103515625">
        <ele>854.79998779296875</ele>
        <time>2020-08-09T08:28:18.000Z</time>
      </trkpt>
      <trkpt lat="42.26701634936034679412841796875" lon="2.38366582430899143218994140625">
        <ele>855.20001220703125</ele>
        <time>2020-08-09T08:28:20.000Z</time>
      </trkpt>
      <trkpt lat="42.26704903878271579742431640625" lon="2.38354579545557498931884765625">
        <ele>855.79998779296875</ele>
        <time>2020-08-09T08:28:27.000Z</time>
      </trkpt>
      <trkpt lat="42.26710486225783824920654296875" lon="2.38343096338212490081787109375">
        <ele>857</ele>
        <time>2020-08-09T08:28:34.000Z</time>
      </trkpt>
      <trkpt lat="42.26716403849422931671142578125" lon="2.38332903943955898284912109375">
        <ele>857.79998779296875</ele>
        <time>2020-08-09T08:28:41.000Z</time>
      </trkpt>
      <trkpt lat="42.26717091165482997894287109375" lon="2.3833128623664379119873046875">
        <ele>857.79998779296875</ele>
        <time>2020-08-09T08:28:42.000Z</time>
      </trkpt>
      <trkpt lat="42.26721189916133880615234375" lon="2.38321579992771148681640625">
        <ele>858.5999755859375</ele>
        <time>2020-08-09T08:28:48.000Z</time>
      </trkpt>
      <trkpt lat="42.26722522638738155364990234375" lon="2.38318017683923244476318359375">
        <ele>859</ele>
        <time>2020-08-09T08:28:50.000Z</time>
      </trkpt>
      <trkpt lat="42.2672563232481479644775390625" lon="2.38311588764190673828125">
        <ele>859.4000244140625</ele>
        <time>2020-08-09T08:28:54.000Z</time>
      </trkpt>
      <trkpt lat="42.26726696826517581939697265625" lon="2.38310314714908599853515625">
        <ele>859.5999755859375</ele>
        <time>2020-08-09T08:28:55.000Z</time>
      </trkpt>
      <trkpt lat="42.26728993467986583709716796875" lon="2.3830555379390716552734375">
        <ele>860.20001220703125</ele>
        <time>2020-08-09T08:28:58.000Z</time>
      </trkpt>
      <trkpt lat="42.26731776259839534759521484375" lon="2.38298521377146244049072265625">
        <ele>860.79998779296875</ele>
        <time>2020-08-09T08:29:02.000Z</time>
      </trkpt>
      <trkpt lat="42.267347015440464019775390625" lon="2.382935173809528350830078125">
        <ele>861.20001220703125</ele>
        <time>2020-08-09T08:29:05.000Z</time>
      </trkpt>
      <trkpt lat="42.267369143664836883544921875" lon="2.3828837089240550994873046875">
        <ele>861.5999755859375</ele>
        <time>2020-08-09T08:29:08.000Z</time>
      </trkpt>
      <trkpt lat="42.26739286445081233978271484375" lon="2.382809780538082122802734375">
        <ele>862.20001220703125</ele>
        <time>2020-08-09T08:29:12.000Z</time>
      </trkpt>
      <trkpt lat="42.26741583086550235748291015625" lon="2.38273845054209232330322265625">
        <ele>863</ele>
        <time>2020-08-09T08:29:16.000Z</time>
      </trkpt>
      <trkpt lat="42.26742153055965900421142578125" lon="2.38272093236446380615234375">
        <ele>863.20001220703125</ele>
        <time>2020-08-09T08:29:17.000Z</time>
      </trkpt>
      <trkpt lat="42.26742538623511791229248046875" lon="2.38270215690135955810546875">
        <ele>863.4000244140625</ele>
        <time>2020-08-09T08:29:18.000Z</time>
      </trkpt>
      <trkpt lat="42.26743846200406551361083984375" lon="2.38262127153575420379638671875">
        <ele>864</ele>
        <time>2020-08-09T08:29:22.000Z</time>
      </trkpt>
      <trkpt lat="42.2674434073269367218017578125" lon="2.38260048441588878631591796875">
        <ele>864.20001220703125</ele>
        <time>2020-08-09T08:29:23.000Z</time>
      </trkpt>
      <trkpt lat="42.2674561478197574615478515625" lon="2.38255991600453853607177734375">
        <ele>864.4000244140625</ele>
        <time>2020-08-09T08:29:25.000Z</time>
      </trkpt>
      <trkpt lat="42.2674816288053989410400390625" lon="2.3824803717434406280517578125">
        <ele>865.20001220703125</ele>
        <time>2020-08-09T08:29:29.000Z</time>
      </trkpt>
      <trkpt lat="42.2674859873950481414794921875" lon="2.38246067427098751068115234375">
        <ele>865.20001220703125</ele>
        <time>2020-08-09T08:29:30.000Z</time>
      </trkpt>
      <trkpt lat="42.26752161048352718353271484375" lon="2.3822939582169055938720703125">
        <ele>866.4000244140625</ele>
        <time>2020-08-09T08:29:38.000Z</time>
      </trkpt>
      <trkpt lat="42.2675305791199207305908203125" lon="2.3822750151157379150390625">
        <ele>866.5999755859375</ele>
        <time>2020-08-09T08:29:39.000Z</time>
      </trkpt>
      <trkpt lat="42.2675714828073978424072265625" lon="2.38217887468636035919189453125">
        <ele>867.4000244140625</ele>
        <time>2020-08-09T08:29:44.000Z</time>
      </trkpt>
      <trkpt lat="42.2676063515245914459228515625" lon="2.382080219686031341552734375">
        <ele>868.20001220703125</ele>
        <time>2020-08-09T08:29:49.000Z</time>
      </trkpt>
      <trkpt lat="42.2676150687038898468017578125" lon="2.38203923217952251434326171875">
        <ele>868.5999755859375</ele>
        <time>2020-08-09T08:29:51.000Z</time>
      </trkpt>
      <trkpt lat="42.26764750666916370391845703125" lon="2.3819196224212646484375">
        <ele>869.5999755859375</ele>
        <time>2020-08-09T08:29:57.000Z</time>
      </trkpt>
      <trkpt lat="42.2676884941756725311279296875" lon="2.38180705346167087554931640625">
        <ele>870.5999755859375</ele>
        <time>2020-08-09T08:30:03.000Z</time>
      </trkpt>
      <trkpt lat="42.2677065990865230560302734375" lon="2.38174804486334323883056640625">
        <ele>871.20001220703125</ele>
        <time>2020-08-09T08:30:06.000Z</time>
      </trkpt>
      <trkpt lat="42.2677240334451198577880859375" lon="2.3816901259124279022216796875">
        <ele>871.5999755859375</ele>
        <time>2020-08-09T08:30:09.000Z</time>
      </trkpt>
      <trkpt lat="42.267754040658473968505859375" lon="2.38162047229707241058349609375">
        <ele>872.4000244140625</ele>
        <time>2020-08-09T08:30:13.000Z</time>
      </trkpt>
      <trkpt lat="42.26776585914194583892822265625" lon="2.3815830051898956298828125">
        <ele>872.5999755859375</ele>
        <time>2020-08-09T08:30:15.000Z</time>
      </trkpt>
      <trkpt lat="42.26780240423977375030517578125" lon="2.3814661614596843719482421875">
        <ele>873.5999755859375</ele>
        <time>2020-08-09T08:30:21.000Z</time>
      </trkpt>
      <trkpt lat="42.26786258630454540252685546875" lon="2.38134554587304592132568359375">
        <ele>874.79998779296875</ele>
        <time>2020-08-09T08:30:28.000Z</time>
      </trkpt>
      <trkpt lat="42.26791790686547756195068359375" lon="2.38123658113181591033935546875">
        <ele>875.79998779296875</ele>
        <time>2020-08-09T08:30:35.000Z</time>
      </trkpt>
      <trkpt lat="42.26796316914260387420654296875" lon="2.381146140396595001220703125">
        <ele>876.79998779296875</ele>
        <time>2020-08-09T08:30:41.000Z</time>
      </trkpt>
      <trkpt lat="42.26797473616898059844970703125" lon="2.38113314844667911529541015625">
        <ele>877</ele>
        <time>2020-08-09T08:30:42.000Z</time>
      </trkpt>
      <trkpt lat="42.26802754215896129608154296875" lon="2.3810581304132938385009765625">
        <ele>878</ele>
        <time>2020-08-09T08:30:47.000Z</time>
      </trkpt>
      <trkpt lat="42.26803441531956195831298828125" lon="2.3810411989688873291015625">
        <ele>878.20001220703125</ele>
        <time>2020-08-09T08:30:48.000Z</time>
      </trkpt>
      <trkpt lat="42.26808235980570316314697265625" lon="2.380932904779911041259765625">
        <ele>878.79998779296875</ele>
        <time>2020-08-09T08:30:54.000Z</time>
      </trkpt>
      <trkpt lat="42.2681089304387569427490234375" lon="2.38088571466505527496337890625">
        <ele>879.20001220703125</ele>
        <time>2020-08-09T08:30:57.000Z</time>
      </trkpt>
      <trkpt lat="42.26812812499701976776123046875" lon="2.380806170403957366943359375">
        <ele>880</ele>
        <time>2020-08-09T08:31:01.000Z</time>
      </trkpt>
      <trkpt lat="42.2681629098951816558837890625" lon="2.38073165528476238250732421875">
        <ele>880.5999755859375</ele>
        <time>2020-08-09T08:31:05.000Z</time>
      </trkpt>
      <trkpt lat="42.268183529376983642578125" lon="2.38067063502967357635498046875">
        <ele>881</ele>
        <time>2020-08-09T08:31:08.000Z</time>
      </trkpt>
      <trkpt lat="42.26823625154793262481689453125" lon="2.3805247060954570770263671875">
        <ele>882.20001220703125</ele>
        <time>2020-08-09T08:31:15.000Z</time>
      </trkpt>
      <trkpt lat="42.26831722073256969451904296875" lon="2.380311302840709686279296875">
        <ele>883.20001220703125</ele>
        <time>2020-08-09T08:31:25.000Z</time>
      </trkpt>
      <trkpt lat="42.2683466412127017974853515625" lon="2.3801807127892971038818359375">
        <ele>884</ele>
        <time>2020-08-09T08:31:31.000Z</time>
      </trkpt>
      <trkpt lat="42.2683603875339031219482421875" lon="2.38014458678662776947021484375">
        <ele>884.4000244140625</ele>
        <time>2020-08-09T08:31:33.000Z</time>
      </trkpt>
      <trkpt lat="42.26839332841336727142333984375" lon="2.38004014827311038970947265625">
        <ele>885</ele>
        <time>2020-08-09T08:31:38.000Z</time>
      </trkpt>
      <trkpt lat="42.26840271614491939544677734375" lon="2.379976697266101837158203125">
        <ele>885.5999755859375</ele>
        <time>2020-08-09T08:31:41.000Z</time>
      </trkpt>
      <trkpt lat="42.268406488001346588134765625" lon="2.37989480607211589813232421875">
        <ele>886.4000244140625</ele>
        <time>2020-08-09T08:31:45.000Z</time>
      </trkpt>
      <trkpt lat="42.2684043087065219879150390625" lon="2.37987435422837734222412109375">
        <ele>886.5999755859375</ele>
        <time>2020-08-09T08:31:46.000Z</time>
      </trkpt>
      <trkpt lat="42.268408834934234619140625" lon="2.37973521463572978973388671875">
        <ele>887.79998779296875</ele>
        <time>2020-08-09T08:31:53.000Z</time>
      </trkpt>
      <trkpt lat="42.268409840762615203857421875" lon="2.3797126673161983489990234375">
        <ele>888</ele>
        <time>2020-08-09T08:31:54.000Z</time>
      </trkpt>
      <trkpt lat="42.26841981522738933563232421875" lon="2.3796144314110279083251953125">
        <ele>888.79998779296875</ele>
        <time>2020-08-09T08:31:59.000Z</time>
      </trkpt>
      <trkpt lat="42.26841595955193042755126953125" lon="2.379578053951263427734375">
        <ele>889.5999755859375</ele>
        <time>2020-08-09T08:32:01.000Z</time>
      </trkpt>
      <trkpt lat="42.26841218769550323486328125" lon="2.37953840754926204681396484375">
        <ele>889.79998779296875</ele>
        <time>2020-08-09T08:32:03.000Z</time>
      </trkpt>
      <trkpt lat="42.26839466951787471771240234375" lon="2.379438243806362152099609375">
        <ele>890.4000244140625</ele>
        <time>2020-08-09T08:32:08.000Z</time>
      </trkpt>
      <trkpt lat="42.268392406404018402099609375" lon="2.379377894103527069091796875">
        <ele>891</ele>
        <time>2020-08-09T08:32:11.000Z</time>
      </trkpt>
      <trkpt lat="42.26839684881269931793212890625" lon="2.3792843520641326904296875">
        <ele>891.5999755859375</ele>
        <time>2020-08-09T08:32:15.000Z</time>
      </trkpt>
      <trkpt lat="42.268401794135570526123046875" lon="2.3791956715285778045654296875">
        <ele>892.20001220703125</ele>
        <time>2020-08-09T08:32:19.000Z</time>
      </trkpt>
      <trkpt lat="42.26841009221971035003662109375" lon="2.37911025993525981903076171875">
        <ele>892.79998779296875</ele>
        <time>2020-08-09T08:32:23.000Z</time>
      </trkpt>
      <trkpt lat="42.268415205180644989013671875" lon="2.3790746368467807769775390625">
        <ele>893.20001220703125</ele>
        <time>2020-08-09T08:32:25.000Z</time>
      </trkpt>
      <trkpt lat="42.268419563770294189453125" lon="2.3790424503386020660400390625">
        <ele>893.5999755859375</ele>
        <time>2020-08-09T08:32:27.000Z</time>
      </trkpt>
      <trkpt lat="42.268424592912197113037109375" lon="2.37901252694427967071533203125">
        <ele>893.79998779296875</ele>
        <time>2020-08-09T08:32:29.000Z</time>
      </trkpt>
      <trkpt lat="42.26842953823506832122802734375" lon="2.37897497601807117462158203125">
        <ele>894.4000244140625</ele>
        <time>2020-08-09T08:32:31.000Z</time>
      </trkpt>
      <trkpt lat="42.26840305142104625701904296875" lon="2.37889417447149753570556640625">
        <ele>895</ele>
        <time>2020-08-09T08:32:35.000Z</time>
      </trkpt>
      <trkpt lat="42.268391065299510955810546875" lon="2.37885058857500553131103515625">
        <ele>895.4000244140625</ele>
        <time>2020-08-09T08:32:37.000Z</time>
      </trkpt>
      <trkpt lat="42.26836784742772579193115234375" lon="2.37879208289086818695068359375">
        <ele>895.5999755859375</ele>
        <time>2020-08-09T08:32:40.000Z</time>
      </trkpt>
      <trkpt lat="42.2683483175933361053466796875" lon="2.37875620834529399871826171875">
        <ele>896.20001220703125</ele>
        <time>2020-08-09T08:32:42.000Z</time>
      </trkpt>
      <trkpt lat="42.26834110915660858154296875" lon="2.37873927690088748931884765625">
        <ele>896.5999755859375</ele>
        <time>2020-08-09T08:32:43.000Z</time>
      </trkpt>
      <trkpt lat="42.2683144547045230865478515625" lon="2.378700636327266693115234375">
        <ele>896.79998779296875</ele>
        <time>2020-08-09T08:32:46.000Z</time>
      </trkpt>
      <trkpt lat="42.2682926617562770843505859375" lon="2.3786682821810245513916015625">
        <ele>897.4000244140625</ele>
        <time>2020-08-09T08:32:49.000Z</time>
      </trkpt>
      <trkpt lat="42.268285118043422698974609375" lon="2.37865612842142581939697265625">
        <ele>897.5999755859375</ele>
        <time>2020-08-09T08:32:50.000Z</time>
      </trkpt>
      <trkpt lat="42.26824228651821613311767578125" lon="2.37857365049421787261962890625">
        <ele>898.20001220703125</ele>
        <time>2020-08-09T08:32:55.000Z</time>
      </trkpt>
      <trkpt lat="42.268226109445095062255859375" lon="2.378520257771015167236328125">
        <ele>898.5999755859375</ele>
        <time>2020-08-09T08:32:58.000Z</time>
      </trkpt>
      <trkpt lat="42.26821496151387691497802734375" lon="2.37842931412160396575927734375">
        <ele>899.4000244140625</ele>
        <time>2020-08-09T08:33:02.000Z</time>
      </trkpt>
      <trkpt lat="42.26821127347648143768310546875" lon="2.3783873207867145538330078125">
        <ele>899.5999755859375</ele>
        <time>2020-08-09T08:33:04.000Z</time>
      </trkpt>
      <trkpt lat="42.26821026764810085296630859375" lon="2.378272153437137603759765625">
        <ele>900.4000244140625</ele>
        <time>2020-08-09T08:33:09.000Z</time>
      </trkpt>
      <trkpt lat="42.26821378804743289947509765625" lon="2.378250025212764739990234375">
        <ele>900.5999755859375</ele>
        <time>2020-08-09T08:33:10.000Z</time>
      </trkpt>
      <trkpt lat="42.268224097788333892822265625" lon="2.37816494889557361602783203125">
        <ele>901.20001220703125</ele>
        <time>2020-08-09T08:33:14.000Z</time>
      </trkpt>
      <trkpt lat="42.268236838281154632568359375" lon="2.37812672741711139678955078125">
        <ele>901.79998779296875</ele>
        <time>2020-08-09T08:33:16.000Z</time>
      </trkpt>
      <trkpt lat="42.26827531121671199798583984375" lon="2.37802379764616489410400390625">
        <ele>902.79998779296875</ele>
        <time>2020-08-09T08:33:22.000Z</time>
      </trkpt>
      <trkpt lat="42.2682841122150421142578125" lon="2.37800971604883670806884765625">
        <ele>903</ele>
        <time>2020-08-09T08:33:23.000Z</time>
      </trkpt>
      <trkpt lat="42.26829148828983306884765625" lon="2.3779933713376522064208984375">
        <ele>903.20001220703125</ele>
        <time>2020-08-09T08:33:24.000Z</time>
      </trkpt>
      <trkpt lat="42.2683332301676273345947265625" lon="2.37790946848690509796142578125">
        <ele>903.79998779296875</ele>
        <time>2020-08-09T08:33:29.000Z</time>
      </trkpt>
      <trkpt lat="42.26834035478532314300537109375" lon="2.3778922855854034423828125">
        <ele>904</ele>
        <time>2020-08-09T08:33:30.000Z</time>
      </trkpt>
      <trkpt lat="42.268346808850765228271484375" lon="2.37787443213164806365966796875">
        <ele>903.79998779296875</ele>
        <time>2020-08-09T08:33:31.000Z</time>
      </trkpt>
      <trkpt lat="42.26836047135293483734130859375" lon="2.37782916985452175140380859375">
        <ele>904</ele>
        <time>2020-08-09T08:33:35.000Z</time>
      </trkpt>
      <trkpt lat="42.26836684159934520721435546875" lon="2.37781156785786151885986328125">
        <ele>904.4000244140625</ele>
        <time>2020-08-09T08:36:46.000Z</time>
      </trkpt>
      <trkpt lat="42.2683687694370746612548828125" lon="2.37780922092497348785400390625">
        <ele>904.4000244140625</ele>
        <time>2020-08-09T08:36:49.000Z</time>
      </trkpt>
      <trkpt lat="42.26835661567747592926025390625" lon="2.377754151821136474609375">
        <ele>904.4000244140625</ele>
        <time>2020-08-09T08:36:52.000Z</time>
      </trkpt>
      <trkpt lat="42.2683023847639560699462890625" lon="2.37758718430995941162109375">
        <ele>904.4000244140625</ele>
        <time>2020-08-09T08:36:58.000Z</time>
      </trkpt>
      <trkpt lat="42.26822904311120510101318359375" lon="2.37741242162883281707763671875">
        <ele>904</ele>
        <time>2020-08-09T08:37:03.000Z</time>
      </trkpt>
      <trkpt lat="42.2681592218577861785888671875" lon="2.377376295626163482666015625">
        <ele>903.5999755859375</ele>
        <time>2020-08-09T08:37:05.000Z</time>
      </trkpt>
      <trkpt lat="42.2681132890284061431884765625" lon="2.37737252376973628997802734375">
        <ele>903.20001220703125</ele>
        <time>2020-08-09T08:37:06.000Z</time>
      </trkpt>
      <trkpt lat="42.2679649293422698974609375" lon="2.37740303389728069305419921875">
        <ele>902.20001220703125</ele>
        <time>2020-08-09T08:37:09.000Z</time>
      </trkpt>
      <trkpt lat="42.2679161466658115386962890625" lon="2.37740571610629558563232421875">
        <ele>901.79998779296875</ele>
        <time>2020-08-09T08:37:10.000Z</time>
      </trkpt>
      <trkpt lat="42.267765440046787261962890625" lon="2.3773600347340106964111328125">
        <ele>901</ele>
        <time>2020-08-09T08:37:13.000Z</time>
      </trkpt>
      <trkpt lat="42.267715819180011749267578125" lon="2.37733597867190837860107421875">
        <ele>900.5999755859375</ele>
        <time>2020-08-09T08:37:14.000Z</time>
      </trkpt>
      <trkpt lat="42.2676053456962108612060546875" lon="2.37727261148393154144287109375">
        <ele>899.5999755859375</ele>
        <time>2020-08-09T08:37:16.000Z</time>
      </trkpt>
      <trkpt lat="42.267486155033111572265625" lon="2.3772001080214977264404296875">
        <ele>898.4000244140625</ele>
        <time>2020-08-09T08:37:18.000Z</time>
      </trkpt>
      <trkpt lat="42.26737559773027896881103515625" lon="2.37712475471198558807373046875">
        <ele>896.79998779296875</ele>
        <time>2020-08-09T08:37:20.000Z</time>
      </trkpt>
      <trkpt lat="42.2673290781676769256591796875" lon="2.377082593739032745361328125">
        <ele>895.79998779296875</ele>
        <time>2020-08-09T08:37:21.000Z</time>
      </trkpt>
      <trkpt lat="42.26725121028721332550048828125" lon="2.3769843578338623046875">
        <ele>894.4000244140625</ele>
        <time>2020-08-09T08:37:23.000Z</time>
      </trkpt>
      <trkpt lat="42.26721483282744884490966796875" lon="2.37691872753202915191650390625">
        <ele>893.5999755859375</ele>
        <time>2020-08-09T08:37:24.000Z</time>
      </trkpt>
      <trkpt lat="42.267175018787384033203125" lon="2.3768433742225170135498046875">
        <ele>893</ele>
        <time>2020-08-09T08:37:25.000Z</time>
      </trkpt>
      <trkpt lat="42.26709396578371524810791015625" lon="2.3766626603901386260986328125">
        <ele>891.4000244140625</ele>
        <time>2020-08-09T08:37:27.000Z</time>
      </trkpt>
      <trkpt lat="42.26705959998071193695068359375" lon="2.37655629403889179229736328125">
        <ele>890.5999755859375</ele>
        <time>2020-08-09T08:37:28.000Z</time>
      </trkpt>
      <trkpt lat="42.26702640764415264129638671875" lon="2.37644364126026630401611328125">
        <ele>889.79998779296875</ele>
        <time>2020-08-09T08:37:29.000Z</time>
      </trkpt>
      <trkpt lat="42.26695449091494083404541015625" lon="2.37620584666728973388671875">
        <ele>888.4000244140625</ele>
        <time>2020-08-09T08:37:31.000Z</time>
      </trkpt>
      <trkpt lat="42.26688089780509471893310546875" lon="2.37597727216780185699462890625">
        <ele>887.20001220703125</ele>
        <time>2020-08-09T08:37:33.000Z</time>
      </trkpt>
      <trkpt lat="42.26684636436402797698974609375" lon="2.37587233074009418487548828125">
        <ele>886.79998779296875</ele>
        <time>2020-08-09T08:37:34.000Z</time>
      </trkpt>
      <trkpt lat="42.2668127529323101043701171875" lon="2.37577040679752826690673828125">
        <ele>886</ele>
        <time>2020-08-09T08:37:35.000Z</time>
      </trkpt>
      <trkpt lat="42.2667403332889080047607421875" lon="2.37556370906531810760498046875">
        <ele>884.4000244140625</ele>
        <time>2020-08-09T08:37:37.000Z</time>
      </trkpt>
      <trkpt lat="42.26666984148323535919189453125" lon="2.37534443847835063934326171875">
        <ele>883.4000244140625</ele>
        <time>2020-08-09T08:37:39.000Z</time>
      </trkpt>
      <trkpt lat="42.26659373380243778228759765625" lon="2.375111170113086700439453125">
        <ele>882</ele>
        <time>2020-08-09T08:37:41.000Z</time>
      </trkpt>
      <trkpt lat="42.266519553959369659423828125" lon="2.3748582042753696441650390625">
        <ele>880.5999755859375</ele>
        <time>2020-08-09T08:37:43.000Z</time>
      </trkpt>
      <trkpt lat="42.26645275019109249114990234375" lon="2.37458671443164348602294921875">
        <ele>879</ele>
        <time>2020-08-09T08:37:45.000Z</time>
      </trkpt>
      <trkpt lat="42.2664184682071208953857421875" lon="2.3744461499154567718505859375">
        <ele>878.4000244140625</ele>
        <time>2020-08-09T08:37:46.000Z</time>
      </trkpt>
      <trkpt lat="42.26638175547122955322265625" lon="2.3743053339421749114990234375">
        <ele>877.5999755859375</ele>
        <time>2020-08-09T08:37:47.000Z</time>
      </trkpt>
      <trkpt lat="42.2662991099059581756591796875" lon="2.37404289655387401580810546875">
        <ele>875.5999755859375</ele>
        <time>2020-08-09T08:37:49.000Z</time>
      </trkpt>
      <trkpt lat="42.26624890230596065521240234375" lon="2.3739279806613922119140625">
        <ele>874.5999755859375</ele>
        <time>2020-08-09T08:37:50.000Z</time>
      </trkpt>
      <trkpt lat="42.266187630593776702880859375" lon="2.3738265596330165863037109375">
        <ele>873.79998779296875</ele>
        <time>2020-08-09T08:37:51.000Z</time>
      </trkpt>
      <trkpt lat="42.2660298831760883331298828125" lon="2.37367979250848293304443359375">
        <ele>872.4000244140625</ele>
        <time>2020-08-09T08:37:53.000Z</time>
      </trkpt>
      <trkpt lat="42.26584732532501220703125" lon="2.37361927516758441925048828125">
        <ele>871.20001220703125</ele>
        <time>2020-08-09T08:37:55.000Z</time>
      </trkpt>
      <trkpt lat="42.2657526098191738128662109375" lon="2.37362011335790157318115234375">
        <ele>870.79998779296875</ele>
        <time>2020-08-09T08:37:56.000Z</time>
      </trkpt>
      <trkpt lat="42.265659235417842864990234375" lon="2.3736304230988025665283203125">
        <ele>870.4000244140625</ele>
        <time>2020-08-09T08:37:57.000Z</time>
      </trkpt>
      <trkpt lat="42.26556946523487567901611328125" lon="2.37364257685840129852294921875">
        <ele>869.79998779296875</ele>
        <time>2020-08-09T08:37:58.000Z</time>
      </trkpt>
      <trkpt lat="42.2653060220181941986083984375" lon="2.37367593683302402496337890625">
        <ele>868.5999755859375</ele>
        <time>2020-08-09T08:38:01.000Z</time>
      </trkpt>
      <trkpt lat="42.265216670930385589599609375" lon="2.3736854083836078643798828125">
        <ele>868.4000244140625</ele>
        <time>2020-08-09T08:38:02.000Z</time>
      </trkpt>
      <trkpt lat="42.2650364600121974945068359375" lon="2.37369823269546031951904296875">
        <ele>867.5999755859375</ele>
        <time>2020-08-09T08:38:04.000Z</time>
      </trkpt>
      <trkpt lat="42.26476840674877166748046875" lon="2.37373695708811283111572265625">
        <ele>866.4000244140625</ele>
        <time>2020-08-09T08:38:07.000Z</time>
      </trkpt>
      <trkpt lat="42.26468919776380062103271484375" lon="2.37375204451382160186767578125">
        <ele>865.79998779296875</ele>
        <time>2020-08-09T08:38:08.000Z</time>
      </trkpt>
      <trkpt lat="42.26461887359619140625" lon="2.37376545555889606475830078125">
        <ele>865.20001220703125</ele>
        <time>2020-08-09T08:38:09.000Z</time>
      </trkpt>
      <trkpt lat="42.2644500620663166046142578125" lon="2.3737799562513828277587890625">
        <ele>864.20001220703125</ele>
        <time>2020-08-09T08:38:12.000Z</time>
      </trkpt>
      <trkpt lat="42.26434503681957721710205078125" lon="2.37370711751282215118408203125">
        <ele>863</ele>
        <time>2020-08-09T08:38:15.000Z</time>
      </trkpt>
      <trkpt lat="42.26429072208702564239501953125" lon="2.3735819756984710693359375">
        <ele>861.79998779296875</ele>
        <time>2020-08-09T08:38:17.000Z</time>
      </trkpt>
      <trkpt lat="42.264261133968830108642578125" lon="2.37350025214254856109619140625">
        <ele>861.4000244140625</ele>
        <time>2020-08-09T08:38:18.000Z</time>
      </trkpt>
      <trkpt lat="42.264192067086696624755859375" lon="2.3733085580170154571533203125">
        <ele>860.20001220703125</ele>
        <time>2020-08-09T08:38:20.000Z</time>
      </trkpt>
      <trkpt lat="42.2641520015895366668701171875" lon="2.3732005991041660308837890625">
        <ele>858.79998779296875</ele>
        <time>2020-08-09T08:38:21.000Z</time>
      </trkpt>
      <trkpt lat="42.264108918607234954833984375" lon="2.37308518029749393463134765625">
        <ele>857.79998779296875</ele>
        <time>2020-08-09T08:38:22.000Z</time>
      </trkpt>
      <trkpt lat="42.2640628181397914886474609375" lon="2.37296364270150661468505859375">
        <ele>856.4000244140625</ele>
        <time>2020-08-09T08:38:23.000Z</time>
      </trkpt>
      <trkpt lat="42.26401495747268199920654296875" lon="2.37283833324909210205078125">
        <ele>855.20001220703125</ele>
        <time>2020-08-09T08:38:24.000Z</time>
      </trkpt>
      <trkpt lat="42.26396667771041393280029296875" lon="2.3727134428918361663818359375">
        <ele>853.5999755859375</ele>
        <time>2020-08-09T08:38:25.000Z</time>
      </trkpt>
      <trkpt lat="42.26387313567101955413818359375" lon="2.37247355282306671142578125">
        <ele>852.4000244140625</ele>
        <time>2020-08-09T08:38:27.000Z</time>
      </trkpt>
      <trkpt lat="42.26382954977452754974365234375" lon="2.37236182205379009246826171875">
        <ele>851.79998779296875</ele>
        <time>2020-08-09T08:38:28.000Z</time>
      </trkpt>
      <trkpt lat="42.26378747262060642242431640625" lon="2.372253946959972381591796875">
        <ele>851.20001220703125</ele>
        <time>2020-08-09T08:38:29.000Z</time>
      </trkpt>
      <trkpt lat="42.263703905045986175537109375" lon="2.3720425553619861602783203125">
        <ele>850</ele>
        <time>2020-08-09T08:38:31.000Z</time>
      </trkpt>
      <trkpt lat="42.26354791782796382904052734375" lon="2.3716534674167633056640625">
        <ele>848.79998779296875</ele>
        <time>2020-08-09T08:38:35.000Z</time>
      </trkpt>
      <trkpt lat="42.26351606659591197967529296875" lon="2.3715621046721935272216796875">
        <ele>848.5999755859375</ele>
        <time>2020-08-09T08:38:36.000Z</time>
      </trkpt>
      <trkpt lat="42.26331691257655620574951171875" lon="2.37105441279709339141845703125">
        <ele>848</ele>
        <time>2020-08-09T08:38:42.000Z</time>
      </trkpt>
      <trkpt lat="42.2632662020623683929443359375" lon="2.37091812305152416229248046875">
        <ele>847.79998779296875</ele>
        <time>2020-08-09T08:38:44.000Z</time>
      </trkpt>
      <trkpt lat="42.26320325396955013275146484375" lon="2.37074880860745906829833984375">
        <ele>847.20001220703125</ele>
        <time>2020-08-09T08:38:47.000Z</time>
      </trkpt>
      <trkpt lat="42.26316000334918498992919921875" lon="2.3706343956291675567626953125">
        <ele>846.4000244140625</ele>
        <time>2020-08-09T08:38:49.000Z</time>
      </trkpt>
      <trkpt lat="42.2631247155368328094482421875" lon="2.37050749361515045166015625">
        <ele>845.5999755859375</ele>
        <time>2020-08-09T08:38:51.000Z</time>
      </trkpt>
      <trkpt lat="42.26311021484434604644775390625" lon="2.3704303801059722900390625">
        <ele>845</ele>
        <time>2020-08-09T08:38:52.000Z</time>
      </trkpt>
      <trkpt lat="42.26305439136922359466552734375" lon="2.3701460659503936767578125">
        <ele>843</ele>
        <time>2020-08-09T08:38:55.000Z</time>
      </trkpt>
      <trkpt lat="42.26303704082965850830078125" lon="2.3700419627130031585693359375">
        <ele>842</ele>
        <time>2020-08-09T08:38:56.000Z</time>
      </trkpt>
      <trkpt lat="42.263020612299442291259765625" lon="2.3699400387704372406005859375">
        <ele>841.4000244140625</ele>
        <time>2020-08-09T08:38:57.000Z</time>
      </trkpt>
      <trkpt lat="42.26298582740128040313720703125" lon="2.36965052783489227294921875">
        <ele>840.20001220703125</ele>
        <time>2020-08-09T08:39:00.000Z</time>
      </trkpt>
      <trkpt lat="42.262974679470062255859375" lon="2.36956469714641571044921875">
        <ele>839.79998779296875</ele>
        <time>2020-08-09T08:39:01.000Z</time>
      </trkpt>
      <trkpt lat="42.2629419900476932525634765625" lon="2.3693414032459259033203125">
        <ele>838.79998779296875</ele>
        <time>2020-08-09T08:39:04.000Z</time>
      </trkpt>
      <trkpt lat="42.26292899809777736663818359375" lon="2.36922581680119037628173828125">
        <ele>837.79998779296875</ele>
        <time>2020-08-09T08:39:06.000Z</time>
      </trkpt>
      <trkpt lat="42.26292547769844532012939453125" lon="2.369177453219890594482421875">
        <ele>837.79998779296875</ele>
        <time>2020-08-09T08:39:07.000Z</time>
      </trkpt>
      <trkpt lat="42.262911312282085418701171875" lon="2.3689845018088817596435546875">
        <ele>837.20001220703125</ele>
        <time>2020-08-09T08:39:12.000Z</time>
      </trkpt>
      <trkpt lat="42.26289262063801288604736328125" lon="2.3688547499477863311767578125">
        <ele>836.5999755859375</ele>
        <time>2020-08-09T08:39:16.000Z</time>
      </trkpt>
      <trkpt lat="42.26288842968642711639404296875" lon="2.3688242398202419281005859375">
        <ele>836.4000244140625</ele>
        <time>2020-08-09T08:39:17.000Z</time>
      </trkpt>
      <trkpt lat="42.2628893516957759857177734375" lon="2.36878392286598682403564453125">
        <ele>835.79998779296875</ele>
        <time>2020-08-09T08:39:21.000Z</time>
      </trkpt>
      <trkpt lat="42.26288842968642711639404296875" lon="2.3687736131250858306884765625">
        <ele>835.5999755859375</ele>
        <time>2020-08-09T08:39:36.000Z</time>
      </trkpt>
      <trkpt lat="42.26288692094385623931884765625" lon="2.3687568493187427520751953125">
        <ele>835.5999755859375</ele>
        <time>2020-08-09T08:39:37.000Z</time>
      </trkpt>
      <trkpt lat="42.2628501243889331817626953125" lon="2.3686411790549755096435546875">
        <ele>835.5999755859375</ele>
        <time>2020-08-09T08:39:41.000Z</time>
      </trkpt>
      <trkpt lat="42.2628363780677318572998046875" lon="2.3686116747558116912841796875">
        <ele>835.4000244140625</ele>
        <time>2020-08-09T08:39:42.000Z</time>
      </trkpt>
      <trkpt lat="42.2627220489084720611572265625" lon="2.3684705235064029693603515625">
        <ele>834.20001220703125</ele>
        <time>2020-08-09T08:39:47.000Z</time>
      </trkpt>
      <trkpt lat="42.26258835755288600921630859375" lon="2.3683860339224338531494140625">
        <ele>832.79998779296875</ele>
        <time>2020-08-09T08:39:51.000Z</time>
      </trkpt>
      <trkpt lat="42.26251241751015186309814453125" lon="2.36834228038787841796875">
        <ele>831.79998779296875</ele>
        <time>2020-08-09T08:39:53.000Z</time>
      </trkpt>
      <trkpt lat="42.26247469894587993621826171875" lon="2.36832308582961559295654296875">
        <ele>831.4000244140625</ele>
        <time>2020-08-09T08:39:54.000Z</time>
      </trkpt>
      <trkpt lat="42.2624025307595729827880859375" lon="2.3682794161140918731689453125">
        <ele>830.4000244140625</ele>
        <time>2020-08-09T08:39:56.000Z</time>
      </trkpt>
      <trkpt lat="42.262283675372600555419921875" lon="2.36821663565933704376220703125">
        <ele>829</ele>
        <time>2020-08-09T08:39:59.000Z</time>
      </trkpt>
      <trkpt lat="42.26223967038094997406005859375" lon="2.3681935854256153106689453125">
        <ele>828.79998779296875</ele>
        <time>2020-08-09T08:40:00.000Z</time>
      </trkpt>
      <trkpt lat="42.2621483914554119110107421875" lon="2.368150167167186737060546875">
        <ele>827.5999755859375</ele>
        <time>2020-08-09T08:40:02.000Z</time>
      </trkpt>
      <trkpt lat="42.262016125023365020751953125" lon="2.368071377277374267578125">
        <ele>826.20001220703125</ele>
        <time>2020-08-09T08:40:05.000Z</time>
      </trkpt>
      <trkpt lat="42.26193775422871112823486328125" lon="2.36798831261694431304931640625">
        <ele>825.5999755859375</ele>
        <time>2020-08-09T08:40:07.000Z</time>
      </trkpt>
      <trkpt lat="42.2619049809873104095458984375" lon="2.3679411225020885467529296875">
        <ele>825.20001220703125</ele>
        <time>2020-08-09T08:40:08.000Z</time>
      </trkpt>
      <trkpt lat="42.26187438704073429107666015625" lon="2.367889992892742156982421875">
        <ele>824</ele>
        <time>2020-08-09T08:40:09.000Z</time>
      </trkpt>
      <trkpt lat="42.26182468235492706298828125" lon="2.3677872307598590850830078125">
        <ele>823.4000244140625</ele>
        <time>2020-08-09T08:40:11.000Z</time>
      </trkpt>
      <trkpt lat="42.261805236339569091796875" lon="2.36773945391178131103515625">
        <ele>823.20001220703125</ele>
        <time>2020-08-09T08:40:12.000Z</time>
      </trkpt>
      <trkpt lat="42.26178637705743312835693359375" lon="2.367688827216625213623046875">
        <ele>822.79998779296875</ele>
        <time>2020-08-09T08:40:13.000Z</time>
      </trkpt>
      <trkpt lat="42.261678166687488555908203125" lon="2.36741079948842525482177734375">
        <ele>821.79998779296875</ele>
        <time>2020-08-09T08:40:18.000Z</time>
      </trkpt>
      <trkpt lat="42.26154397241771221160888671875" lon="2.36703009344637393951416015625">
        <ele>820.4000244140625</ele>
        <time>2020-08-09T08:40:25.000Z</time>
      </trkpt>
      <trkpt lat="42.26153626106679439544677734375" lon="2.36699044704437255859375">
        <ele>820</ele>
        <time>2020-08-09T08:40:28.000Z</time>
      </trkpt>
      <trkpt lat="42.26153190247714519500732421875" lon="2.3669691570103168487548828125">
        <ele>820.4000244140625</ele>
        <time>2020-08-09T08:40:41.000Z</time>
      </trkpt>
      <trkpt lat="42.26153005845844745635986328125" lon="2.3669624514877796173095703125">
        <ele>820</ele>
        <time>2020-08-09T08:40:52.000Z</time>
      </trkpt>
      <trkpt lat="42.2615086846053600311279296875" lon="2.366926409304141998291015625">
        <ele>820</ele>
        <time>2020-08-09T08:41:00.000Z</time>
      </trkpt>
      <trkpt lat="42.26146526634693145751953125" lon="2.36676983535289764404296875">
        <ele>819.5999755859375</ele>
        <time>2020-08-09T08:41:06.000Z</time>
      </trkpt>
      <trkpt lat="42.261391170322895050048828125" lon="2.36657612957060337066650390625">
        <ele>819.20001220703125</ele>
        <time>2020-08-09T08:41:11.000Z</time>
      </trkpt>
      <trkpt lat="42.2613346762955188751220703125" lon="2.3662781529128551483154296875">
        <ele>818.4000244140625</ele>
        <time>2020-08-09T08:41:17.000Z</time>
      </trkpt>
      <trkpt lat="42.26133945398032665252685546875" lon="2.3659727163612842559814453125">
        <ele>818.4000244140625</ele>
        <time>2020-08-09T08:41:23.000Z</time>
      </trkpt>
      <trkpt lat="42.26135252974927425384521484375" lon="2.36591680906713008880615234375">
        <ele>818.20001220703125</ele>
        <time>2020-08-09T08:41:26.000Z</time>
      </trkpt>
      <trkpt lat="42.261367700994014739990234375" lon="2.365895099937915802001953125">
        <ele>818.4000244140625</ele>
        <time>2020-08-09T08:41:28.000Z</time>
      </trkpt>
      <trkpt lat="42.2614449821412563323974609375" lon="2.36589451320469379425048828125">
        <ele>818.4000244140625</ele>
        <time>2020-08-09T08:41:33.000Z</time>
      </trkpt>
      <trkpt lat="42.261629886925220489501953125" lon="2.3659663461148738861083984375">
        <ele>818.5999755859375</ele>
        <time>2020-08-09T08:41:42.000Z</time>
      </trkpt>
      <trkpt lat="42.26180347613990306854248046875" lon="2.36604161560535430908203125">
        <ele>819.20001220703125</ele>
        <time>2020-08-09T08:41:50.000Z</time>
      </trkpt>
      <trkpt lat="42.26197220385074615478515625" lon="2.366113364696502685546875">
        <ele>819.4000244140625</ele>
        <time>2020-08-09T08:41:58.000Z</time>
      </trkpt>
      <trkpt lat="42.26208594627678394317626953125" lon="2.36616575159132480621337890625">
        <ele>819.5999755859375</ele>
        <time>2020-08-09T08:42:04.000Z</time>
      </trkpt>
      <trkpt lat="42.26221703924238681793212890625" lon="2.366208247840404510498046875">
        <ele>819.5999755859375</ele>
        <time>2020-08-09T08:42:12.000Z</time>
      </trkpt>
      <trkpt lat="42.26238098926842212677001953125" lon="2.36628695391118526458740234375">
        <ele>819.79998779296875</ele>
        <time>2020-08-09T08:42:19.000Z</time>
      </trkpt>
      <trkpt lat="42.2624541632831096649169921875" lon="2.3663143627345561981201171875">
        <ele>820.20001220703125</ele>
        <time>2020-08-09T08:42:22.000Z</time>
      </trkpt>
      <trkpt lat="42.26257528178393840789794921875" lon="2.3663646541535854339599609375">
        <ele>820.20001220703125</ele>
        <time>2020-08-09T08:42:27.000Z</time>
      </trkpt>
      <trkpt lat="42.26282338611781597137451171875" lon="2.36647319979965686798095703125">
        <ele>820.79998779296875</ele>
        <time>2020-08-09T08:42:37.000Z</time>
      </trkpt>
      <trkpt lat="42.262993119657039642333984375" lon="2.3665242455899715423583984375">
        <ele>820.79998779296875</ele>
        <time>2020-08-09T08:42:44.000Z</time>
      </trkpt>
      <trkpt lat="42.263062857091426849365234375" lon="2.3665493912994861602783203125">
        <ele>821</ele>
        <time>2020-08-09T08:42:47.000Z</time>
      </trkpt>
      <trkpt lat="42.263265363872051239013671875" lon="2.3666271753609180450439453125">
        <ele>821.4000244140625</ele>
        <time>2020-08-09T08:42:55.000Z</time>
      </trkpt>
      <trkpt lat="42.26353685371577739715576171875" lon="2.36673052422702312469482421875">
        <ele>822</ele>
        <time>2020-08-09T08:43:05.000Z</time>
      </trkpt>
      <trkpt lat="42.26359150372445583343505859375" lon="2.36675105988979339599609375">
        <ele>822</ele>
        <time>2020-08-09T08:43:07.000Z</time>
      </trkpt>
      <trkpt lat="42.26381228305399417877197265625" lon="2.3668477870523929595947265625">
        <ele>822.20001220703125</ele>
        <time>2020-08-09T08:43:15.000Z</time>
      </trkpt>
      <trkpt lat="42.26409257389605045318603515625" lon="2.366959936916828155517578125">
        <ele>822.79998779296875</ele>
        <time>2020-08-09T08:43:25.000Z</time>
      </trkpt>
      <trkpt lat="42.2642029635608196258544921875" lon="2.36700511537492275238037109375">
        <ele>823</ele>
        <time>2020-08-09T08:43:29.000Z</time>
      </trkpt>
      <trkpt lat="42.26444712840020656585693359375" lon="2.36710251308977603912353515625">
        <ele>823.4000244140625</ele>
        <time>2020-08-09T08:43:38.000Z</time>
      </trkpt>
      <trkpt lat="42.264558188617229461669921875" lon="2.36714400351047515869140625">
        <ele>823.5999755859375</ele>
        <time>2020-08-09T08:43:42.000Z</time>
      </trkpt>
      <trkpt lat="42.2646951489150524139404296875" lon="2.36719873733818531036376953125">
        <ele>823.79998779296875</ele>
        <time>2020-08-09T08:43:47.000Z</time>
      </trkpt>
      <trkpt lat="42.26480520330369472503662109375" lon="2.367238886654376983642578125">
        <ele>824</ele>
        <time>2020-08-09T08:43:51.000Z</time>
      </trkpt>
      <trkpt lat="42.2651504538953304290771484375" lon="2.36736721359193325042724609375">
        <ele>824.5999755859375</ele>
        <time>2020-08-09T08:44:03.000Z</time>
      </trkpt>
      <trkpt lat="42.26517953909933567047119140625" lon="2.3673775233328342437744140625">
        <ele>824.5999755859375</ele>
        <time>2020-08-09T08:44:04.000Z</time>
      </trkpt>
      <trkpt lat="42.26544742472469806671142578125" lon="2.3674764297902584075927734375">
        <ele>825</ele>
        <time>2020-08-09T08:44:13.000Z</time>
      </trkpt>
      <trkpt lat="42.26565898396074771881103515625" lon="2.3675682954490184783935546875">
        <ele>825.5999755859375</ele>
        <time>2020-08-09T08:44:20.000Z</time>
      </trkpt>
      <trkpt lat="42.2657744027674198150634765625" lon="2.36762437038123607635498046875">
        <ele>825.5999755859375</ele>
        <time>2020-08-09T08:44:24.000Z</time>
      </trkpt>
      <trkpt lat="42.26594614796340465545654296875" lon="2.3676910065114498138427734375">
        <ele>826</ele>
        <time>2020-08-09T08:44:30.000Z</time>
      </trkpt>
      <trkpt lat="42.266260720789432525634765625" lon="2.36780810169875621795654296875">
        <ele>826.4000244140625</ele>
        <time>2020-08-09T08:44:41.000Z</time>
      </trkpt>
      <trkpt lat="42.26648292504251003265380859375" lon="2.36789728514850139617919921875">
        <ele>826.5999755859375</ele>
        <time>2020-08-09T08:44:49.000Z</time>
      </trkpt>
      <trkpt lat="42.2665421850979328155517578125" lon="2.36792176030576229095458984375">
        <ele>826.79998779296875</ele>
        <time>2020-08-09T08:44:51.000Z</time>
      </trkpt>
      <trkpt lat="42.266750223934650421142578125" lon="2.36799870617687702178955078125">
        <ele>826.79998779296875</ele>
        <time>2020-08-09T08:44:58.000Z</time>
      </trkpt>
      <trkpt lat="42.26704585365951061248779296875" lon="2.368115969002246856689453125">
        <ele>827.4000244140625</ele>
        <time>2020-08-09T08:45:08.000Z</time>
      </trkpt>
      <trkpt lat="42.267074771225452423095703125" lon="2.368129380047321319580078125">
        <ele>827.5999755859375</ele>
        <time>2020-08-09T08:45:09.000Z</time>
      </trkpt>
      <trkpt lat="42.26739789359271526336669921875" lon="2.3682712018489837646484375">
        <ele>828</ele>
        <time>2020-08-09T08:45:20.000Z</time>
      </trkpt>
      <trkpt lat="42.2677914239466190338134765625" lon="2.36842735670506954193115234375">
        <ele>828.5999755859375</ele>
        <time>2020-08-09T08:45:33.000Z</time>
      </trkpt>
      <trkpt lat="42.26782344281673431396484375" lon="2.36843741498887538909912109375">
        <ele>828.5999755859375</ele>
        <time>2020-08-09T08:45:34.000Z</time>
      </trkpt>
      <trkpt lat="42.2680489160120487213134765625" lon="2.36852391622960567474365234375">
        <ele>828.5999755859375</ele>
        <time>2020-08-09T08:45:41.000Z</time>
      </trkpt>
      <trkpt lat="42.2683002054691314697265625" lon="2.3686279356479644775390625">
        <ele>829.20001220703125</ele>
        <time>2020-08-09T08:45:49.000Z</time>
      </trkpt>
      <trkpt lat="42.26846641860902309417724609375" lon="2.36869566142559051513671875">
        <ele>829.4000244140625</ele>
        <time>2020-08-09T08:45:56.000Z</time>
      </trkpt>
      <trkpt lat="42.26858678273856639862060546875" lon="2.3687461204826831817626953125">
        <ele>829.5999755859375</ele>
        <time>2020-08-09T08:46:01.000Z</time>
      </trkpt>
      <trkpt lat="42.26869574747979640960693359375" lon="2.368786521255970001220703125">
        <ele>829.79998779296875</ele>
        <time>2020-08-09T08:46:05.000Z</time>
      </trkpt>
      <trkpt lat="42.26900939829647541046142578125" lon="2.36891501583158969879150390625">
        <ele>830</ele>
        <time>2020-08-09T08:46:16.000Z</time>
      </trkpt>
      <trkpt lat="42.269247360527515411376953125" lon="2.36900051124393939971923828125">
        <ele>830.4000244140625</ele>
        <time>2020-08-09T08:46:24.000Z</time>
      </trkpt>
      <trkpt lat="42.269428074359893798828125" lon="2.36907376907765865325927734375">
        <ele>830.5999755859375</ele>
        <time>2020-08-09T08:46:30.000Z</time>
      </trkpt>
      <trkpt lat="42.2695187665522098541259765625" lon="2.36911064945161342620849609375">
        <ele>830.79998779296875</ele>
        <time>2020-08-09T08:46:33.000Z</time>
      </trkpt>
      <trkpt lat="42.2697963751852512359619140625" lon="2.3692367970943450927734375">
        <ele>831.4000244140625</ele>
        <time>2020-08-09T08:46:42.000Z</time>
      </trkpt>
      <trkpt lat="42.2700731456279754638671875" lon="2.369352467358112335205078125">
        <ele>831.5999755859375</ele>
        <time>2020-08-09T08:46:51.000Z</time>
      </trkpt>
      <trkpt lat="42.2701034881174564361572265625" lon="2.36936545930802822113037109375">
        <ele>831.79998779296875</ele>
        <time>2020-08-09T08:46:52.000Z</time>
      </trkpt>
      <trkpt lat="42.27041085250675678253173828125" lon="2.369481213390827178955078125">
        <ele>832</ele>
        <time>2020-08-09T08:47:02.000Z</time>
      </trkpt>
      <trkpt lat="42.27063347585499286651611328125" lon="2.369577102363109588623046875">
        <ele>832.20001220703125</ele>
        <time>2020-08-09T08:47:09.000Z</time>
      </trkpt>
      <trkpt lat="42.27085324935615062713623046875" lon="2.3696557246148586273193359375">
        <ele>832.5999755859375</ele>
        <time>2020-08-09T08:47:16.000Z</time>
      </trkpt>
      <trkpt lat="42.27091711945831775665283203125" lon="2.3696801997721195220947265625">
        <ele>832.5999755859375</ele>
        <time>2020-08-09T08:47:18.000Z</time>
      </trkpt>
      <trkpt lat="42.271237559616565704345703125" lon="2.36981707625091075897216796875">
        <ele>832.79998779296875</ele>
        <time>2020-08-09T08:47:28.000Z</time>
      </trkpt>
      <trkpt lat="42.2714626975357532501220703125" lon="2.3698424734175205230712890625">
        <ele>833.20001220703125</ele>
        <time>2020-08-09T08:47:35.000Z</time>
      </trkpt>
      <trkpt lat="42.27168993093073368072509765625" lon="2.36972571350634098052978515625">
        <ele>833</ele>
        <time>2020-08-09T08:47:42.000Z</time>
      </trkpt>
      <trkpt lat="42.27177173830568790435791015625" lon="2.36971951089799404144287109375">
        <ele>833.5999755859375</ele>
        <time>2020-08-09T08:47:45.000Z</time>
      </trkpt>
      <trkpt lat="42.27183929644525051116943359375" lon="2.36972537823021411895751953125">
        <ele>834.20001220703125</ele>
        <time>2020-08-09T08:47:48.000Z</time>
      </trkpt>
      <trkpt lat="42.2719602473080158233642578125" lon="2.36976896412670612335205078125">
        <ele>834.5999755859375</ele>
        <time>2020-08-09T08:47:55.000Z</time>
      </trkpt>
      <trkpt lat="42.27208237163722515106201171875" lon="2.3698153160512447357177734375">
        <ele>835.5999755859375</ele>
        <time>2020-08-09T08:48:02.000Z</time>
      </trkpt>
      <trkpt lat="42.2721761651337146759033203125" lon="2.369871474802494049072265625">
        <ele>836.4000244140625</ele>
        <time>2020-08-09T08:48:08.000Z</time>
      </trkpt>
      <trkpt lat="42.27219083346426486968994140625" lon="2.3698729835450649261474609375">
        <ele>836.5999755859375</ele>
        <time>2020-08-09T08:48:09.000Z</time>
      </trkpt>
      <trkpt lat="42.2722720541059970855712890625" lon="2.36986870877444744110107421875">
        <ele>837.20001220703125</ele>
        <time>2020-08-09T08:48:14.000Z</time>
      </trkpt>
      <trkpt lat="42.27237842045724391937255859375" lon="2.36988932825624942779541015625">
        <ele>837.5999755859375</ele>
        <time>2020-08-09T08:48:20.000Z</time>
      </trkpt>
      <trkpt lat="42.27241949178278446197509765625" lon="2.36989988945424556732177734375">
        <ele>837.79998779296875</ele>
        <time>2020-08-09T08:48:22.000Z</time>
      </trkpt>
      <trkpt lat="42.2725047357380390167236328125" lon="2.3698957823216915130615234375">
        <ele>838.20001220703125</ele>
        <time>2020-08-09T08:48:26.000Z</time>
      </trkpt>
      <trkpt lat="42.272516302764415740966796875" lon="2.36989385448396205902099609375">
        <ele>838.4000244140625</ele>
        <time>2020-08-09T08:48:30.000Z</time>
      </trkpt>
      <trkpt lat="42.27251705713570117950439453125" lon="2.3698951117694377899169921875">
        <ele>838.20001220703125</ele>
        <time>2020-08-09T08:48:50.000Z</time>
      </trkpt>
      <trkpt lat="42.27251756004989147186279296875" lon="2.36989435739815235137939453125">
        <ele>838.4000244140625</ele>
        <time>2020-08-09T08:49:08.000Z</time>
      </trkpt>
      <trkpt lat="42.27251722477376461029052734375" lon="2.36989452503621578216552734375">
        <ele>838.5999755859375</ele>
        <time>2020-08-09T08:49:24.000Z</time>
      </trkpt>
      <trkpt lat="42.272517643868923187255859375" lon="2.36989452503621578216552734375">
        <ele>838.5999755859375</ele>
        <time>2020-08-09T08:49:46.000Z</time>
      </trkpt>
      <trkpt lat="42.27252577431499958038330078125" lon="2.36988899298012256622314453125">
        <ele>838.5999755859375</ele>
        <time>2020-08-09T08:49:51.000Z</time>
      </trkpt>
      <trkpt lat="42.272547148168087005615234375" lon="2.3698713071644306182861328125">
        <ele>838.5999755859375</ele>
        <time>2020-08-09T08:49:53.000Z</time>
      </trkpt>
      <trkpt lat="42.2726525925099849700927734375" lon="2.369864098727703094482421875">
        <ele>838.5999755859375</ele>
        <time>2020-08-09T08:49:59.000Z</time>
      </trkpt>
      <trkpt lat="42.27282735519111156463623046875" lon="2.3698062635958194732666015625">
        <ele>838.5999755859375</ele>
        <time>2020-08-09T08:50:08.000Z</time>
      </trkpt>
      <trkpt lat="42.27300949394702911376953125" lon="2.3697710596024990081787109375">
        <ele>838.4000244140625</ele>
        <time>2020-08-09T08:50:15.000Z</time>
      </trkpt>
      <trkpt lat="42.27313823997974395751953125" lon="2.36974549479782581329345703125">
        <ele>838.5999755859375</ele>
        <time>2020-08-09T08:50:20.000Z</time>
      </trkpt>
      <trkpt lat="42.2732591070234775543212890625" lon="2.36980567686259746551513671875">
        <ele>838</ele>
        <time>2020-08-09T08:50:25.000Z</time>
      </trkpt>
      <trkpt lat="42.273406796157360076904296875" lon="2.36990340985357761383056640625">
        <ele>838</ele>
        <time>2020-08-09T08:50:31.000Z</time>
      </trkpt>
      <trkpt lat="42.273484580218791961669921875" lon="2.36996023915708065032958984375">
        <ele>838.20001220703125</ele>
        <time>2020-08-09T08:50:36.000Z</time>
      </trkpt>
      <trkpt lat="42.2735548205673694610595703125" lon="2.3700171522796154022216796875">
        <ele>838.5999755859375</ele>
        <time>2020-08-09T08:50:41.000Z</time>
      </trkpt>
      <trkpt lat="42.2735699079930782318115234375" lon="2.37002670764923095703125">
        <ele>838.79998779296875</ele>
        <time>2020-08-09T08:50:42.000Z</time>
      </trkpt>
      <trkpt lat="42.2736178524792194366455078125" lon="2.3700503446161746978759765625">
        <ele>839.4000244140625</ele>
        <time>2020-08-09T08:50:45.000Z</time>
      </trkpt>
      <trkpt lat="42.27365791797637939453125" lon="2.37005813978612422943115234375">
        <ele>839.79998779296875</ele>
        <time>2020-08-09T08:50:48.000Z</time>
      </trkpt>
      <trkpt lat="42.27373762987554073333740234375" lon="2.3700751550495624542236328125">
        <ele>840.4000244140625</ele>
        <time>2020-08-09T08:50:53.000Z</time>
      </trkpt>
      <trkpt lat="42.2737512923777103424072265625" lon="2.37008110620081424713134765625">
        <ele>840.79998779296875</ele>
        <time>2020-08-09T08:50:54.000Z</time>
      </trkpt>
      <trkpt lat="42.2737965546548366546630859375" lon="2.370093427598476409912109375">
        <ele>841.4000244140625</ele>
        <time>2020-08-09T08:50:57.000Z</time>
      </trkpt>
      <trkpt lat="42.27385313250124454498291015625" lon="2.37011195160448551177978515625">
        <ele>842.4000244140625</ele>
        <time>2020-08-09T08:51:01.000Z</time>
      </trkpt>
      <trkpt lat="42.27386436425149440765380859375" lon="2.3701153881847858428955078125">
        <ele>842.5999755859375</ele>
        <time>2020-08-09T08:51:02.000Z</time>
      </trkpt>
      <trkpt lat="42.27388414554297924041748046875" lon="2.3701246082782745361328125">
        <ele>843</ele>
        <time>2020-08-09T08:51:04.000Z</time>
      </trkpt>
      <trkpt lat="42.2739113867282867431640625" lon="2.37014497630298137664794921875">
        <ele>843.5999755859375</ele>
        <time>2020-08-09T08:51:06.000Z</time>
      </trkpt>
      <trkpt lat="42.27392672561109066009521484375" lon="2.37015478312969207763671875">
        <ele>844</ele>
        <time>2020-08-09T08:51:07.000Z</time>
      </trkpt>
      <trkpt lat="42.27394156157970428466796875" lon="2.37016324885189533233642578125">
        <ele>844.20001220703125</ele>
        <time>2020-08-09T08:51:08.000Z</time>
      </trkpt>
      <trkpt lat="42.27397735230624675750732421875" lon="2.3701943457126617431640625">
        <ele>845</ele>
        <time>2020-08-09T08:51:11.000Z</time>
      </trkpt>
      <trkpt lat="42.2739987261593341827392578125" lon="2.370222508907318115234375">
        <ele>845.5999755859375</ele>
        <time>2020-08-09T08:51:13.000Z</time>
      </trkpt>
      <trkpt lat="42.2740178368985652923583984375" lon="2.37023918889462947845458984375">
        <ele>846.20001220703125</ele>
        <time>2020-08-09T08:51:15.000Z</time>
      </trkpt>
      <trkpt lat="42.27406268008053302764892578125" lon="2.3702847026288509368896484375">
        <ele>847</ele>
        <time>2020-08-09T08:51:19.000Z</time>
      </trkpt>
      <trkpt lat="42.27407324127852916717529296875" lon="2.37029694020748138427734375">
        <ele>847.20001220703125</ele>
        <time>2020-08-09T08:51:20.000Z</time>
      </trkpt>
      <trkpt lat="42.2741331718862056732177734375" lon="2.37034379504621028900146484375">
        <ele>848.20001220703125</ele>
        <time>2020-08-09T08:51:25.000Z</time>
      </trkpt>
      <trkpt lat="42.27415479719638824462890625" lon="2.37036575563251972198486328125">
        <ele>848.5999755859375</ele>
        <time>2020-08-09T08:51:27.000Z</time>
      </trkpt>
      <trkpt lat="42.2741878218948841094970703125" lon="2.3703876323997974395751953125">
        <ele>849</ele>
        <time>2020-08-09T08:51:30.000Z</time>
      </trkpt>
      <trkpt lat="42.27419880218803882598876953125" lon="2.37039207480847835540771484375">
        <ele>849.20001220703125</ele>
        <time>2020-08-09T08:51:31.000Z</time>
      </trkpt>
      <trkpt lat="42.27425429038703441619873046875" lon="2.37041839398443698883056640625">
        <ele>850.4000244140625</ele>
        <time>2020-08-09T08:51:36.000Z</time>
      </trkpt>
      <trkpt lat="42.27427323348820209503173828125" lon="2.37043549306690692901611328125">
        <ele>850.79998779296875</ele>
        <time>2020-08-09T08:51:38.000Z</time>
      </trkpt>
      <trkpt lat="42.27430508472025394439697265625" lon="2.37045594491064548492431640625">
        <ele>851.4000244140625</ele>
        <time>2020-08-09T08:51:41.000Z</time>
      </trkpt>
      <trkpt lat="42.27432645857334136962890625" lon="2.37046767957508563995361328125">
        <ele>851.5999755859375</ele>
        <time>2020-08-09T08:51:43.000Z</time>
      </trkpt>
      <trkpt lat="42.2743521071970462799072265625" lon="2.37048804759979248046875">
        <ele>852.5999755859375</ele>
        <time>2020-08-09T08:51:46.000Z</time>
      </trkpt>
      <trkpt lat="42.27439426816999912261962890625" lon="2.37053389661014080047607421875">
        <ele>853.4000244140625</ele>
        <time>2020-08-09T08:51:50.000Z</time>
      </trkpt>
      <trkpt lat="42.27442511357367038726806640625" lon="2.37059592269361019134521484375">
        <ele>853.5999755859375</ele>
        <time>2020-08-09T08:51:54.000Z</time>
      </trkpt>
      <trkpt lat="42.27444112300872802734375" lon="2.3706234991550445556640625">
        <ele>854</ele>
        <time>2020-08-09T08:51:56.000Z</time>
      </trkpt>
      <trkpt lat="42.27446182630956172943115234375" lon="2.37066012807190418243408203125">
        <ele>854.5999755859375</ele>
        <time>2020-08-09T08:51:59.000Z</time>
      </trkpt>
      <trkpt lat="42.274467609822750091552734375" lon="2.37067488022148609161376953125">
        <ele>854.79998779296875</ele>
        <time>2020-08-09T08:52:00.000Z</time>
      </trkpt>
      <trkpt lat="42.2744775004684925079345703125" lon="2.37070262432098388671875">
        <ele>855.5999755859375</ele>
        <time>2020-08-09T08:52:02.000Z</time>
      </trkpt>
      <trkpt lat="42.27449032478034496307373046875" lon="2.3707473836839199066162109375">
        <ele>856</ele>
        <time>2020-08-09T08:52:05.000Z</time>
      </trkpt>
      <trkpt lat="42.27450306527316570281982421875" lon="2.37080119550228118896484375">
        <ele>856.4000244140625</ele>
        <time>2020-08-09T08:52:09.000Z</time>
      </trkpt>
      <trkpt lat="42.27454313077032566070556640625" lon="2.37088878639042377471923828125">
        <ele>856.4000244140625</ele>
        <time>2020-08-09T08:52:15.000Z</time>
      </trkpt>
      <trkpt lat="42.2745717130601406097412109375" lon="2.37093203701078891754150390625">
        <ele>856.5999755859375</ele>
        <time>2020-08-09T08:52:18.000Z</time>
      </trkpt>
      <trkpt lat="42.27459174580872058868408203125" lon="2.37096372060477733612060546875">
        <ele>857</ele>
        <time>2020-08-09T08:52:20.000Z</time>
      </trkpt>
      <trkpt lat="42.27460205554962158203125" lon="2.37097780220210552215576171875">
        <ele>857.20001220703125</ele>
        <time>2020-08-09T08:52:21.000Z</time>
      </trkpt>
      <trkpt lat="42.274663746356964111328125" lon="2.37107788212597370147705078125">
        <ele>857.5999755859375</ele>
        <time>2020-08-09T08:52:28.000Z</time>
      </trkpt>
      <trkpt lat="42.27466852404177188873291015625" lon="2.37111627124249935150146484375">
        <ele>857.79998779296875</ele>
        <time>2020-08-09T08:52:35.000Z</time>
      </trkpt>
      <trkpt lat="42.27466852404177188873291015625" lon="2.37111635506153106689453125">
        <ele>857.79998779296875</ele>
        <time>2020-08-09T08:52:36.000Z</time>
      </trkpt>
      <trkpt lat="42.27470439858734607696533203125" lon="2.3711396567523479461669921875">
        <ele>858.20001220703125</ele>
        <time>2020-08-09T08:52:56.000Z</time>
      </trkpt>
      <trkpt lat="42.2747725434601306915283203125" lon="2.37120646052062511444091796875">
        <ele>858.20001220703125</ele>
        <time>2020-08-09T08:53:01.000Z</time>
      </trkpt>
      <trkpt lat="42.2748369164764881134033203125" lon="2.37127686850726604461669921875">
        <ele>858.5999755859375</ele>
        <time>2020-08-09T08:53:06.000Z</time>
      </trkpt>
      <trkpt lat="42.2748476453125476837158203125" lon="2.3712898604571819305419921875">
        <ele>858.79998779296875</ele>
        <time>2020-08-09T08:53:07.000Z</time>
      </trkpt>
      <trkpt lat="42.2749163769185543060302734375" lon="2.3713709972798824310302734375">
        <ele>858.79998779296875</ele>
        <time>2020-08-09T08:53:13.000Z</time>
      </trkpt>
      <trkpt lat="42.2749468870460987091064453125" lon="2.3714119009673595428466796875">
        <ele>859</ele>
        <time>2020-08-09T08:53:16.000Z</time>
      </trkpt>
      <trkpt lat="42.2749628126621246337890625" lon="2.37143763341009616851806640625">
        <ele>859</ele>
        <time>2020-08-09T08:53:18.000Z</time>
      </trkpt>
      <trkpt lat="42.27499432861804962158203125" lon="2.37147619016468524932861328125">
        <ele>859.20001220703125</ele>
        <time>2020-08-09T08:53:21.000Z</time>
      </trkpt>
      <trkpt lat="42.27503799833357334136962890625" lon="2.37152664922177791595458984375">
        <ele>859.4000244140625</ele>
        <time>2020-08-09T08:53:25.000Z</time>
      </trkpt>
      <trkpt lat="42.2751105017960071563720703125" lon="2.3715976439416408538818359375">
        <ele>859.20001220703125</ele>
        <time>2020-08-09T08:53:29.000Z</time>
      </trkpt>
      <trkpt lat="42.2752459533512592315673828125" lon="2.37172345630824565887451171875">
        <ele>858.20001220703125</ele>
        <time>2020-08-09T08:53:35.000Z</time>
      </trkpt>
      <trkpt lat="42.2753669880330562591552734375" lon="2.37188740633428096771240234375">
        <ele>857</ele>
        <time>2020-08-09T08:53:39.000Z</time>
      </trkpt>
      <trkpt lat="42.275398671627044677734375" lon="2.37193250097334384918212890625">
        <ele>856.5999755859375</ele>
        <time>2020-08-09T08:53:40.000Z</time>
      </trkpt>
      <trkpt lat="42.275430522859096527099609375" lon="2.371972985565662384033203125">
        <ele>856</ele>
        <time>2020-08-09T08:53:41.000Z</time>
      </trkpt>
      <trkpt lat="42.2755420021712779998779296875" lon="2.37207390367984771728515625">
        <ele>855.4000244140625</ele>
        <time>2020-08-09T08:53:44.000Z</time>
      </trkpt>
      <trkpt lat="42.27557360194623470306396484375" lon="2.37211422063410282135009765625">
        <ele>855</ele>
        <time>2020-08-09T08:53:45.000Z</time>
      </trkpt>
      <trkpt lat="42.2756633721292018890380859375" lon="2.37224766053259372711181640625">
        <ele>855</ele>
        <time>2020-08-09T08:53:48.000Z</time>
      </trkpt>
      <trkpt lat="42.27579555474221706390380859375" lon="2.37243390642106533050537109375">
        <ele>855.20001220703125</ele>
        <time>2020-08-09T08:53:53.000Z</time>
      </trkpt>
      <trkpt lat="42.2758511267602443695068359375" lon="2.37253096885979175567626953125">
        <ele>856</ele>
        <time>2020-08-09T08:53:57.000Z</time>
      </trkpt>
      <trkpt lat="42.2758598439395427703857421875" lon="2.372558377683162689208984375">
        <ele>856</ele>
        <time>2020-08-09T08:53:58.000Z</time>
      </trkpt>
      <trkpt lat="42.27590418420732021331787109375" lon="2.3727023787796497344970703125">
        <ele>856.79998779296875</ele>
        <time>2020-08-09T08:54:04.000Z</time>
      </trkpt>
      <trkpt lat="42.27591290138661861419677734375" lon="2.37272576428949832916259765625">
        <ele>857</ele>
        <time>2020-08-09T08:54:05.000Z</time>
      </trkpt>
      <trkpt lat="42.2759201936423778533935546875" lon="2.3727513290941715240478515625">
        <ele>857.20001220703125</ele>
        <time>2020-08-09T08:54:06.000Z</time>
      </trkpt>
      <trkpt lat="42.275931425392627716064453125" lon="2.37281746231019496917724609375">
        <ele>857.79998779296875</ele>
        <time>2020-08-09T08:54:09.000Z</time>
      </trkpt>
      <trkpt lat="42.27593201212584972381591796875" lon="2.37285786308348178863525390625">
        <ele>858.20001220703125</ele>
        <time>2020-08-09T08:54:11.000Z</time>
      </trkpt>
      <trkpt lat="42.275934778153896331787109375" lon="2.37293195910751819610595703125">
        <ele>859.4000244140625</ele>
        <time>2020-08-09T08:54:16.000Z</time>
      </trkpt>
      <trkpt lat="42.2759418189525604248046875" lon="2.3729524947702884674072265625">
        <ele>859.5999755859375</ele>
        <time>2020-08-09T08:54:17.000Z</time>
      </trkpt>
      <trkpt lat="42.27595229633152484893798828125" lon="2.37298124469816684722900390625">
        <ele>859.79998779296875</ele>
        <time>2020-08-09T08:54:19.000Z</time>
      </trkpt>
      <trkpt lat="42.27596185170114040374755859375" lon="2.37303421832621097564697265625">
        <ele>859.79998779296875</ele>
        <time>2020-08-09T08:54:21.000Z</time>
      </trkpt>
      <trkpt lat="42.2760035097599029541015625" lon="2.37317352555692195892333984375">
        <ele>859.79998779296875</ele>
        <time>2020-08-09T08:54:26.000Z</time>
      </trkpt>
      <trkpt lat="42.27601432241499423980712890625" lon="2.37324091605842113494873046875">
        <ele>859.79998779296875</ele>
        <time>2020-08-09T08:54:28.000Z</time>
      </trkpt>
      <trkpt lat="42.27603712119162082672119140625" lon="2.37337150610983371734619140625">
        <ele>859.4000244140625</ele>
        <time>2020-08-09T08:54:31.000Z</time>
      </trkpt>
      <trkpt lat="42.27604935877025127410888671875" lon="2.37354283221065998077392578125">
        <ele>859</ele>
        <time>2020-08-09T08:54:34.000Z</time>
      </trkpt>
      <trkpt lat="42.276040054857730865478515625" lon="2.37360184080898761749267578125">
        <ele>858.79998779296875</ele>
        <time>2020-08-09T08:54:35.000Z</time>
      </trkpt>
      <trkpt lat="42.27602966129779815673828125" lon="2.37373419106006622314453125">
        <ele>858.4000244140625</ele>
        <time>2020-08-09T08:54:37.000Z</time>
      </trkpt>
      <trkpt lat="42.27604231797158718109130859375" lon="2.37379311583936214447021484375">
        <ele>858</ele>
        <time>2020-08-09T08:54:38.000Z</time>
      </trkpt>
      <trkpt lat="42.27606645785272121429443359375" lon="2.373843491077423095703125">
        <ele>857.79998779296875</ele>
        <time>2020-08-09T08:54:39.000Z</time>
      </trkpt>
      <trkpt lat="42.2761545516550540924072265625" lon="2.37394080497324466705322265625">
        <ele>856.79998779296875</ele>
        <time>2020-08-09T08:54:42.000Z</time>
      </trkpt>
      <trkpt lat="42.27618279866874217987060546875" lon="2.3739663697779178619384765625">
        <ele>856.79998779296875</ele>
        <time>2020-08-09T08:54:43.000Z</time>
      </trkpt>
      <trkpt lat="42.2762092016637325286865234375" lon="2.373988665640354156494140625">
        <ele>857</ele>
        <time>2020-08-09T08:54:44.000Z</time>
      </trkpt>
      <trkpt lat="42.2762782685458660125732421875" lon="2.3740501888096332550048828125">
        <ele>857.4000244140625</ele>
        <time>2020-08-09T08:54:48.000Z</time>
      </trkpt>
      <trkpt lat="42.27637591771781444549560546875" lon="2.374096624553203582763671875">
        <ele>857.5999755859375</ele>
        <time>2020-08-09T08:54:53.000Z</time>
      </trkpt>
      <trkpt lat="42.276412881910800933837890625" lon="2.37411514855921268463134765625">
        <ele>857.79998779296875</ele>
        <time>2020-08-09T08:54:55.000Z</time>
      </trkpt>
      <trkpt lat="42.27652310393750667572021484375" lon="2.37412202171981334686279296875">
        <ele>858</ele>
        <time>2020-08-09T08:55:00.000Z</time>
      </trkpt>
      <trkpt lat="42.2766668535768985748291015625" lon="2.37410224042832851409912109375">
        <ele>858.20001220703125</ele>
        <time>2020-08-09T08:55:06.000Z</time>
      </trkpt>
      <trkpt lat="42.2767989523708820343017578125" lon="2.37416862510144710540771484375">
        <ele>858</ele>
        <time>2020-08-09T08:55:10.000Z</time>
      </trkpt>
      <trkpt lat="42.27688536979258060455322265625" lon="2.37436962313950061798095703125">
        <ele>856.79998779296875</ele>
        <time>2020-08-09T08:55:14.000Z</time>
      </trkpt>
      <trkpt lat="42.276908420026302337646484375" lon="2.37441371195018291473388671875">
        <ele>855.5999755859375</ele>
        <time>2020-08-09T08:55:15.000Z</time>
      </trkpt>
      <trkpt lat="42.2769588790833950042724609375" lon="2.374462075531482696533203125">
        <ele>854.20001220703125</ele>
        <time>2020-08-09T08:55:17.000Z</time>
      </trkpt>
      <trkpt lat="42.2769833542406558990478515625" lon="2.37446308135986328125">
        <ele>854</ele>
        <time>2020-08-09T08:55:18.000Z</time>
      </trkpt>
      <trkpt lat="42.27703959681093692779541015625" lon="2.37441421486437320709228515625">
        <ele>853.4000244140625</ele>
        <time>2020-08-09T08:55:22.000Z</time>
      </trkpt>
      <trkpt lat="42.27707949467003345489501953125" lon="2.3743640072643756866455078125">
        <ele>853.4000244140625</ele>
        <time>2020-08-09T08:55:25.000Z</time>
      </trkpt>
      <trkpt lat="42.27708435617387294769287109375" lon="2.37434363923966884613037109375">
        <ele>853.4000244140625</ele>
        <time>2020-08-09T08:55:26.000Z</time>
      </trkpt>
      <trkpt lat="42.27709181606769561767578125" lon="2.3743254505097866058349609375">
        <ele>853.4000244140625</ele>
        <time>2020-08-09T08:55:27.000Z</time>
      </trkpt>
      <trkpt lat="42.2771332226693630218505859375" lon="2.37420030869543552398681640625">
        <ele>854.4000244140625</ele>
        <time>2020-08-09T08:55:33.000Z</time>
      </trkpt>
      <trkpt lat="42.2771536745131015777587890625" lon="2.37410844303667545318603515625">
        <ele>855.20001220703125</ele>
        <time>2020-08-09T08:55:37.000Z</time>
      </trkpt>
      <trkpt lat="42.2771613858640193939208984375" lon="2.3740589059889316558837890625">
        <ele>855.4000244140625</ele>
        <time>2020-08-09T08:55:39.000Z</time>
      </trkpt>
      <trkpt lat="42.27718091569840908050537109375" lon="2.3739318363368511199951171875">
        <ele>856.4000244140625</ele>
        <time>2020-08-09T08:55:45.000Z</time>
      </trkpt>
      <trkpt lat="42.27718560956418514251708984375" lon="2.37391415052115917205810546875">
        <ele>856.5999755859375</ele>
        <time>2020-08-09T08:55:46.000Z</time>
      </trkpt>
      <trkpt lat="42.27717756293714046478271484375" lon="2.37381122075021266937255859375">
        <ele>856.79998779296875</ele>
        <time>2020-08-09T08:55:51.000Z</time>
      </trkpt>
      <trkpt lat="42.27718996815383434295654296875" lon="2.3737578280270099639892578125">
        <ele>857</ele>
        <time>2020-08-09T08:55:54.000Z</time>
      </trkpt>
      <trkpt lat="42.27719550020992755889892578125" lon="2.37371734343469142913818359375">
        <ele>857.20001220703125</ele>
        <time>2020-08-09T08:55:56.000Z</time>
      </trkpt>
      <trkpt lat="42.27719767950475215911865234375" lon="2.37368188798427581787109375">
        <ele>857.4000244140625</ele>
        <time>2020-08-09T08:55:58.000Z</time>
      </trkpt>
      <trkpt lat="42.27721109054982662200927734375" lon="2.3736498691141605377197265625">
        <ele>857.4000244140625</ele>
        <time>2020-08-09T08:56:01.000Z</time>
      </trkpt>
      <trkpt lat="42.27722366340458393096923828125" lon="2.37359429709613323211669921875">
        <ele>857.5999755859375</ele>
        <time>2020-08-09T08:56:04.000Z</time>
      </trkpt>
      <trkpt lat="42.27725408971309661865234375" lon="2.37351718358695507049560546875">
        <ele>857.4000244140625</ele>
        <time>2020-08-09T08:56:07.000Z</time>
      </trkpt>
      <trkpt lat="42.27726188488304615020751953125" lon="2.3734738491475582122802734375">
        <ele>857.4000244140625</ele>
        <time>2020-08-09T08:56:08.000Z</time>
      </trkpt>
      <trkpt lat="42.27728166617453098297119140625" lon="2.3733803071081638336181640625">
        <ele>857.20001220703125</ele>
        <time>2020-08-09T08:56:10.000Z</time>
      </trkpt>
      <trkpt lat="42.277389876544475555419921875" lon="2.37322867847979068756103515625">
        <ele>856.5999755859375</ele>
        <time>2020-08-09T08:56:14.000Z</time>
      </trkpt>
      <trkpt lat="42.2774279303848743438720703125" lon="2.37320571206510066986083984375">
        <ele>856.4000244140625</ele>
        <time>2020-08-09T08:56:15.000Z</time>
      </trkpt>
      <trkpt lat="42.2775323688983917236328125" lon="2.37316765822470188140869140625">
        <ele>856</ele>
        <time>2020-08-09T08:56:17.000Z</time>
      </trkpt>
      <trkpt lat="42.27759079076349735260009765625" lon="2.3731694184243679046630859375">
        <ele>855.79998779296875</ele>
        <time>2020-08-09T08:56:18.000Z</time>
      </trkpt>
      <trkpt lat="42.27771031670272350311279296875" lon="2.373184002935886383056640625">
        <ele>854.4000244140625</ele>
        <time>2020-08-09T08:56:20.000Z</time>
      </trkpt>
      <trkpt lat="42.27781877852976322174072265625" lon="2.37318609841167926788330078125">
        <ele>853.79998779296875</ele>
        <time>2020-08-09T08:56:22.000Z</time>
      </trkpt>
      <trkpt lat="42.27801726199686527252197265625" lon="2.37321191467344760894775390625">
        <ele>853.5999755859375</ele>
        <time>2020-08-09T08:56:26.000Z</time>
      </trkpt>
      <trkpt lat="42.2780612669885158538818359375" lon="2.3732327856123447418212890625">
        <ele>853.5999755859375</ele>
        <time>2020-08-09T08:56:27.000Z</time>
      </trkpt>
      <trkpt lat="42.27813930250704288482666015625" lon="2.3732649721205234527587890625">
        <ele>853.20001220703125</ele>
        <time>2020-08-09T08:56:29.000Z</time>
      </trkpt>
      <trkpt lat="42.278252206742763519287109375" lon="2.37329238094389438629150390625">
        <ele>853</ele>
        <time>2020-08-09T08:56:32.000Z</time>
      </trkpt>
      <trkpt lat="42.278383634984493255615234375" lon="2.37329992465674877166748046875">
        <ele>853.4000244140625</ele>
        <time>2020-08-09T08:56:36.000Z</time>
      </trkpt>
      <trkpt lat="42.2784860618412494659423828125" lon="2.373279891908168792724609375">
        <ele>853.5999755859375</ele>
        <time>2020-08-09T08:56:40.000Z</time>
      </trkpt>
      <trkpt lat="42.278539873659610748291015625" lon="2.3732730187475681304931640625">
        <ele>853.79998779296875</ele>
        <time>2020-08-09T08:56:43.000Z</time>
      </trkpt>
      <trkpt lat="42.2785638459026813507080078125" lon="2.37327243201434612274169921875">
        <ele>853.79998779296875</ele>
        <time>2020-08-09T08:56:45.000Z</time>
      </trkpt>
      <trkpt lat="42.2786627523601055145263671875" lon="2.3732498846948146820068359375">
        <ele>853.79998779296875</ele>
        <time>2020-08-09T08:56:50.000Z</time>
      </trkpt>
      <trkpt lat="42.27873601019382476806640625" lon="2.373238988220691680908203125">
        <ele>854</ele>
        <time>2020-08-09T08:56:54.000Z</time>
      </trkpt>
      <trkpt lat="42.2787723876535892486572265625" lon="2.373231612145900726318359375">
        <ele>854.20001220703125</ele>
        <time>2020-08-09T08:56:56.000Z</time>
      </trkpt>
      <trkpt lat="42.27890272624790668487548828125" lon="2.37320856191217899322509765625">
        <ele>854.79998779296875</ele>
        <time>2020-08-09T08:57:02.000Z</time>
      </trkpt>
      <trkpt lat="42.2789269499480724334716796875" lon="2.37320688553154468536376953125">
        <ele>855</ele>
        <time>2020-08-09T08:57:03.000Z</time>
      </trkpt>
      <trkpt lat="42.2790885530412197113037109375" lon="2.37319800071418285369873046875">
        <ele>854.5999755859375</ele>
        <time>2020-08-09T08:57:09.000Z</time>
      </trkpt>
      <trkpt lat="42.2792149521410465240478515625" lon="2.3731640540063381195068359375">
        <ele>854.4000244140625</ele>
        <time>2020-08-09T08:57:14.000Z</time>
      </trkpt>
      <trkpt lat="42.27936741895973682403564453125" lon="2.37309255637228488922119140625">
        <ele>854.5999755859375</ele>
        <time>2020-08-09T08:57:21.000Z</time>
      </trkpt>
      <trkpt lat="42.27948292158544063568115234375" lon="2.373063303530216217041015625">
        <ele>855.20001220703125</ele>
        <time>2020-08-09T08:57:26.000Z</time>
      </trkpt>
      <trkpt lat="42.27961334399878978729248046875" lon="2.3730353079736232757568359375">
        <ele>855.20001220703125</ele>
        <time>2020-08-09T08:57:32.000Z</time>
      </trkpt>
      <trkpt lat="42.27971577085554599761962890625" lon="2.373034469783306121826171875">
        <ele>855.79998779296875</ele>
        <time>2020-08-09T08:57:37.000Z</time>
      </trkpt>
      <trkpt lat="42.27984334342181682586669921875" lon="2.37302868627011775970458984375">
        <ele>856.5999755859375</ele>
        <time>2020-08-09T08:57:43.000Z</time>
      </trkpt>
      <trkpt lat="42.27989681996405124664306640625" lon="2.3730118386447429656982421875">
        <ele>856.79998779296875</ele>
        <time>2020-08-09T08:57:47.000Z</time>
      </trkpt>
      <trkpt lat="42.27991274558007717132568359375" lon="2.37300052307546138763427734375">
        <ele>857</ele>
        <time>2020-08-09T08:57:48.000Z</time>
      </trkpt>
      <trkpt lat="42.27998030371963977813720703125" lon="2.37296783365309238433837890625">
        <ele>858</ele>
        <time>2020-08-09T08:57:52.000Z</time>
      </trkpt>
      <trkpt lat="42.28000075556337833404541015625" lon="2.3729602061212062835693359375">
        <ele>858.20001220703125</ele>
        <time>2020-08-09T08:57:53.000Z</time>
      </trkpt>
      <trkpt lat="42.28006999008357524871826171875" lon="2.37294017337262630462646484375">
        <ele>858.5999755859375</ele>
        <time>2020-08-09T08:57:57.000Z</time>
      </trkpt>
      <trkpt lat="42.28013721294701099395751953125" lon="2.37291972152888774871826171875">
        <ele>859.20001220703125</ele>
        <time>2020-08-09T08:58:01.000Z</time>
      </trkpt>
      <trkpt lat="42.28015515021979808807373046875" lon="2.37291905097663402557373046875">
        <ele>859.4000244140625</ele>
        <time>2020-08-09T08:58:02.000Z</time>
      </trkpt>
      <trkpt lat="42.280228324234485626220703125" lon="2.37292022444307804107666015625">
        <ele>860</ele>
        <time>2020-08-09T08:58:07.000Z</time>
      </trkpt>
      <trkpt lat="42.28025405667722225189208984375" lon="2.3729129321873188018798828125">
        <ele>860.4000244140625</ele>
        <time>2020-08-09T08:58:09.000Z</time>
      </trkpt>
      <trkpt lat="42.28030602447688579559326171875" lon="2.37289943732321262359619140625">
        <ele>861.4000244140625</ele>
        <time>2020-08-09T08:58:13.000Z</time>
      </trkpt>
      <trkpt lat="42.28031625039875507354736328125" lon="2.3728985153138637542724609375">
        <ele>861.5999755859375</ele>
        <time>2020-08-09T08:58:14.000Z</time>
      </trkpt>
      <trkpt lat="42.28032681159675121307373046875" lon="2.37289440818130970001220703125">
        <ele>861.79998779296875</ele>
        <time>2020-08-09T08:58:15.000Z</time>
      </trkpt>
      <trkpt lat="42.28037349879741668701171875" lon="2.37288686446845531463623046875">
        <ele>862.20001220703125</ele>
        <time>2020-08-09T08:58:19.000Z</time>
      </trkpt>
      <trkpt lat="42.28043963201344013214111328125" lon="2.37287865020334720611572265625">
        <ele>862.4000244140625</ele>
        <time>2020-08-09T08:58:24.000Z</time>
      </trkpt>
      <trkpt lat="42.2804588265717029571533203125" lon="2.3728770576417446136474609375">
        <ele>862.5999755859375</ele>
        <time>2020-08-09T08:58:25.000Z</time>
      </trkpt>
      <trkpt lat="42.280525378882884979248046875" lon="2.372872196137905120849609375">
        <ele>863</ele>
        <time>2020-08-09T08:58:28.000Z</time>
      </trkpt>
      <trkpt lat="42.28055831976234912872314453125" lon="2.3728726990520954132080078125">
        <ele>863.4000244140625</ele>
        <time>2020-08-09T08:58:30.000Z</time>
      </trkpt>
      <trkpt lat="42.28057801723480224609375" lon="2.3728747107088565826416015625">
        <ele>863.5999755859375</ele>
        <time>2020-08-09T08:58:31.000Z</time>
      </trkpt>
      <trkpt lat="42.2806864790618419647216796875" lon="2.37286842428147792816162109375">
        <ele>864.4000244140625</ele>
        <time>2020-08-09T08:58:37.000Z</time>
      </trkpt>
      <trkpt lat="42.28074590675532817840576171875" lon="2.37286054529249668121337890625">
        <ele>864.5999755859375</ele>
        <time>2020-08-09T08:58:40.000Z</time>
      </trkpt>
      <trkpt lat="42.2808226011693477630615234375" lon="2.37284495495259761810302734375">
        <ele>864.79998779296875</ele>
        <time>2020-08-09T08:58:44.000Z</time>
      </trkpt>
      <trkpt lat="42.28088311851024627685546875" lon="2.3728368245065212249755859375">
        <ele>865.4000244140625</ele>
        <time>2020-08-09T08:58:48.000Z</time>
      </trkpt>
      <trkpt lat="42.28091589175164699554443359375" lon="2.37284009344875812530517578125">
        <ele>865.5999755859375</ele>
        <time>2020-08-09T08:58:50.000Z</time>
      </trkpt>
      <trkpt lat="42.2810103558003902435302734375" lon="2.37285266630351543426513671875">
        <ele>866</ele>
        <time>2020-08-09T08:58:56.000Z</time>
      </trkpt>
      <trkpt lat="42.28109710849821567535400390625" lon="2.37286322750151157379150390625">
        <ele>866.4000244140625</ele>
        <time>2020-08-09T08:59:03.000Z</time>
      </trkpt>
      <trkpt lat="42.2811186499893665313720703125" lon="2.3728669993579387664794921875">
        <ele>866.4000244140625</ele>
        <time>2020-08-09T08:59:05.000Z</time>
      </trkpt>
      <trkpt lat="42.28116969577968120574951171875" lon="2.37287764437496662139892578125">
        <ele>866.79998779296875</ele>
        <time>2020-08-09T08:59:10.000Z</time>
      </trkpt>
      <trkpt lat="42.2812443785369396209716796875" lon="2.3728931508958339691162109375">
        <ele>867</ele>
        <time>2020-08-09T08:59:16.000Z</time>
      </trkpt>
      <trkpt lat="42.2812882997095584869384765625" lon="2.37290312536060810089111328125">
        <ele>867.4000244140625</ele>
        <time>2020-08-09T08:59:19.000Z</time>
      </trkpt>
      <trkpt lat="42.28134688921272754669189453125" lon="2.3729092441499233245849609375">
        <ele>867.5999755859375</ele>
        <time>2020-08-09T08:59:23.000Z</time>
      </trkpt>
      <trkpt lat="42.28136189281940460205078125" lon="2.37291536293923854827880859375">
        <ele>867.5999755859375</ele>
        <time>2020-08-09T08:59:24.000Z</time>
      </trkpt>
      <trkpt lat="42.28142349980771541595458984375" lon="2.3729253374040126800537109375">
        <ele>867.5999755859375</ele>
        <time>2020-08-09T08:59:28.000Z</time>
      </trkpt>
      <trkpt lat="42.28151804767549037933349609375" lon="2.37293816171586513519287109375">
        <ele>868.4000244140625</ele>
        <time>2020-08-09T08:59:34.000Z</time>
      </trkpt>
      <trkpt lat="42.28163019753992557525634765625" lon="2.37295844592154026031494140625">
        <ele>869</ele>
        <time>2020-08-09T08:59:41.000Z</time>
      </trkpt>
      <trkpt lat="42.281770594418048858642578125" lon="2.37298057414591312408447265625">
        <ele>869.20001220703125</ele>
        <time>2020-08-09T08:59:48.000Z</time>
      </trkpt>
      <trkpt lat="42.28195306845009326934814453125" lon="2.3730135150253772735595703125">
        <ele>868</ele>
        <time>2020-08-09T08:59:54.000Z</time>
      </trkpt>
      <trkpt lat="42.28213294409215450286865234375" lon="2.3730332963168621063232421875">
        <ele>867.20001220703125</ele>
        <time>2020-08-09T08:59:58.000Z</time>
      </trkpt>
      <trkpt lat="42.2821828164160251617431640625" lon="2.3730450309813022613525390625">
        <ele>867.20001220703125</ele>
        <time>2020-08-09T08:59:59.000Z</time>
      </trkpt>
      <trkpt lat="42.282231934368610382080078125" lon="2.37306020222604274749755859375">
        <ele>867.20001220703125</ele>
        <time>2020-08-09T09:00:00.000Z</time>
      </trkpt>
      <trkpt lat="42.28237836621701717376708984375" lon="2.37312742508947849273681640625">
        <ele>866.79998779296875</ele>
        <time>2020-08-09T09:00:03.000Z</time>
      </trkpt>
      <trkpt lat="42.282537035644054412841796875" lon="2.37321317195892333984375">
        <ele>866.79998779296875</ele>
        <time>2020-08-09T09:00:07.000Z</time>
      </trkpt>
      <trkpt lat="42.282578945159912109375" lon="2.373231612145900726318359375">
        <ele>866.5999755859375</ele>
        <time>2020-08-09T09:00:08.000Z</time>
      </trkpt>
      <trkpt lat="42.2827759198844432830810546875" lon="2.37331040203571319580078125">
        <ele>866.20001220703125</ele>
        <time>2020-08-09T09:00:13.000Z</time>
      </trkpt>
      <trkpt lat="42.28295571170747280120849609375" lon="2.373434789478778839111328125">
        <ele>866.4000244140625</ele>
        <time>2020-08-09T09:00:19.000Z</time>
      </trkpt>
      <trkpt lat="42.28318956680595874786376953125" lon="2.37361349165439605712890625">
        <ele>867</ele>
        <time>2020-08-09T09:00:28.000Z</time>
      </trkpt>
      <trkpt lat="42.283300459384918212890625" lon="2.37375740893185138702392578125">
        <ele>867.5999755859375</ele>
        <time>2020-08-09T09:00:35.000Z</time>
      </trkpt>
      <trkpt lat="42.28338017128407955169677734375" lon="2.37386561930179595947265625">
        <ele>867.79998779296875</ele>
        <time>2020-08-09T09:00:41.000Z</time>
      </trkpt>
      <trkpt lat="42.283489219844341278076171875" lon="2.37396477721631526947021484375">
        <ele>868</ele>
        <time>2020-08-09T09:00:47.000Z</time>
      </trkpt>
      <trkpt lat="42.2835936583578586578369140625" lon="2.3741085268557071685791015625">
        <ele>868</ele>
        <time>2020-08-09T09:00:53.000Z</time>
      </trkpt>
      <trkpt lat="42.2836717776954174041748046875" lon="2.374268285930156707763671875">
        <ele>868</ele>
        <time>2020-08-09T09:00:59.000Z</time>
      </trkpt>
      <trkpt lat="42.28376473300158977508544921875" lon="2.374441623687744140625">
        <ele>868.4000244140625</ele>
        <time>2020-08-09T09:01:05.000Z</time>
      </trkpt>
      <trkpt lat="42.2838347218930721282958984375" lon="2.37458889372646808624267578125">
        <ele>868.4000244140625</ele>
        <time>2020-08-09T09:01:12.000Z</time>
      </trkpt>
      <trkpt lat="42.28384620510041713714599609375" lon="2.3745963536202907562255859375">
        <ele>868.4000244140625</ele>
        <time>2020-08-09T09:01:17.000Z</time>
      </trkpt>
      <trkpt lat="42.28387889452278614044189453125" lon="2.37464169971644878387451171875">
        <ele>868.4000244140625</ele>
        <time>2020-08-09T09:01:26.000Z</time>
      </trkpt>
      <trkpt lat="42.28391560725867748260498046875" lon="2.37478150986135005950927734375">
        <ele>868</ele>
        <time>2020-08-09T09:01:30.000Z</time>
      </trkpt>
      <trkpt lat="42.28400529362261295318603515625" lon="2.37501134164631366729736328125">
        <ele>866.79998779296875</ele>
        <time>2020-08-09T09:01:36.000Z</time>
      </trkpt>
      <trkpt lat="42.28403328917920589447021484375" lon="2.37502676434814929962158203125">
        <ele>866.20001220703125</ele>
        <time>2020-08-09T09:01:37.000Z</time>
      </trkpt>
      <trkpt lat="42.28411945514380931854248046875" lon="2.3749872855842113494873046875">
        <ele>866.4000244140625</ele>
        <time>2020-08-09T09:01:41.000Z</time>
      </trkpt>
      <trkpt lat="42.284178547561168670654296875" lon="2.37485007382929325103759765625">
        <ele>867</ele>
        <time>2020-08-09T09:01:47.000Z</time>
      </trkpt>
      <trkpt lat="42.28422707878053188323974609375" lon="2.374710179865360260009765625">
        <ele>867.79998779296875</ele>
        <time>2020-08-09T09:01:53.000Z</time>
      </trkpt>
      <trkpt lat="42.2842347063124179840087890625" lon="2.3746848665177822113037109375">
        <ele>868</ele>
        <time>2020-08-09T09:01:54.000Z</time>
      </trkpt>
      <trkpt lat="42.284276783466339111328125" lon="2.37456726841628551483154296875">
        <ele>868.20001220703125</ele>
        <time>2020-08-09T09:01:59.000Z</time>
      </trkpt>
      <trkpt lat="42.2843091376125812530517578125" lon="2.37441723234951496124267578125">
        <ele>869</ele>
        <time>2020-08-09T09:02:05.000Z</time>
      </trkpt>
      <trkpt lat="42.28430285118520259857177734375" lon="2.37433969974517822265625">
        <ele>869</ele>
        <time>2020-08-09T09:02:08.000Z</time>
      </trkpt>
      <trkpt lat="42.28429949842393398284912109375" lon="2.37428965978324413299560546875">
        <ele>869</ele>
        <time>2020-08-09T09:02:10.000Z</time>
      </trkpt>
      <trkpt lat="42.2842994146049022674560546875" lon="2.37422796897590160369873046875">
        <ele>869.4000244140625</ele>
        <time>2020-08-09T09:02:15.000Z</time>
      </trkpt>
      <trkpt lat="42.28429832495748996734619140625" lon="2.3742288909852504730224609375">
        <ele>869.4000244140625</ele>
        <time>2020-08-09T09:02:25.000Z</time>
      </trkpt>
      <trkpt lat="42.28429664857685565948486328125" lon="2.3742268793284893035888671875">
        <ele>869.20001220703125</ele>
        <time>2020-08-09T09:02:50.000Z</time>
      </trkpt>
      <trkpt lat="42.28429681621491909027099609375" lon="2.37422578968107700347900390625">
        <ele>869.20001220703125</ele>
        <time>2020-08-09T09:02:57.000Z</time>
      </trkpt>
      <trkpt lat="42.2842927090823650360107421875" lon="2.37421095371246337890625">
        <ele>869.20001220703125</ele>
        <time>2020-08-09T09:02:59.000Z</time>
      </trkpt>
      <trkpt lat="42.2842942178249359130859375" lon="2.37419712357223033905029296875">
        <ele>869.20001220703125</ele>
        <time>2020-08-09T09:03:00.000Z</time>
      </trkpt>
      <trkpt lat="42.28429547511041164398193359375" lon="2.3741440661251544952392578125">
        <ele>869.20001220703125</ele>
        <time>2020-08-09T09:03:03.000Z</time>
      </trkpt>
      <trkpt lat="42.28428239934146404266357421875" lon="2.3740880750119686126708984375">
        <ele>869.20001220703125</ele>
        <time>2020-08-09T09:03:06.000Z</time>
      </trkpt>
      <trkpt lat="42.2842836566269397735595703125" lon="2.37391197122633457183837890625">
        <ele>869</ele>
        <time>2020-08-09T09:03:13.000Z</time>
      </trkpt>
      <trkpt lat="42.28429220616817474365234375" lon="2.37375807948410511016845703125">
        <ele>868.20001220703125</ele>
        <time>2020-08-09T09:03:20.000Z</time>
      </trkpt>
      <trkpt lat="42.28429296053946018218994140625" lon="2.37371365539729595184326171875">
        <ele>868.20001220703125</ele>
        <time>2020-08-09T09:03:23.000Z</time>
      </trkpt>
      <trkpt lat="42.28430335409939289093017578125" lon="2.37365598790347576141357421875">
        <ele>868.20001220703125</ele>
        <time>2020-08-09T09:03:26.000Z</time>
      </trkpt>
      <trkpt lat="42.28435263969004154205322265625" lon="2.3734463565051555633544921875">
        <ele>868</ele>
        <time>2020-08-09T09:03:33.000Z</time>
      </trkpt>
      <trkpt lat="42.28436336852610111236572265625" lon="2.373411990702152252197265625">
        <ele>868</ele>
        <time>2020-08-09T09:03:34.000Z</time>
      </trkpt>
      <trkpt lat="42.2843961417675018310546875" lon="2.373286597430706024169921875">
        <ele>867.5999755859375</ele>
        <time>2020-08-09T09:03:38.000Z</time>
      </trkpt>
      <trkpt lat="42.28440762497484683990478515625" lon="2.37319984473288059234619140625">
        <ele>867.4000244140625</ele>
        <time>2020-08-09T09:03:41.000Z</time>
      </trkpt>
      <trkpt lat="42.28443478234112262725830078125" lon="2.373087443411350250244140625">
        <ele>867.20001220703125</ele>
        <time>2020-08-09T09:03:44.000Z</time>
      </trkpt>
      <trkpt lat="42.284472249448299407958984375" lon="2.3729592002928256988525390625">
        <ele>866.5999755859375</ele>
        <time>2020-08-09T09:03:47.000Z</time>
      </trkpt>
      <trkpt lat="42.2845515422523021697998046875" lon="2.3727573640644550323486328125">
        <ele>865.5999755859375</ele>
        <time>2020-08-09T09:03:51.000Z</time>
      </trkpt>
      <trkpt lat="42.2845790348947048187255859375" lon="2.37270330078899860382080078125">
        <ele>865.20001220703125</ele>
        <time>2020-08-09T09:03:52.000Z</time>
      </trkpt>
      <trkpt lat="42.2846107184886932373046875" lon="2.37265133298933506011962890625">
        <ele>864.5999755859375</ele>
        <time>2020-08-09T09:03:53.000Z</time>
      </trkpt>
      <trkpt lat="42.2846831381320953369140625" lon="2.3725629039108753204345703125">
        <ele>863.5999755859375</ele>
        <time>2020-08-09T09:03:55.000Z</time>
      </trkpt>
      <trkpt lat="42.28472211398184299468994140625" lon="2.37252661027014255523681640625">
        <ele>863.20001220703125</ele>
        <time>2020-08-09T09:03:56.000Z</time>
      </trkpt>
      <trkpt lat="42.28481112979352474212646484375" lon="2.372460477054119110107421875">
        <ele>862.4000244140625</ele>
        <time>2020-08-09T09:03:58.000Z</time>
      </trkpt>
      <trkpt lat="42.28491154499351978302001953125" lon="2.37238395027816295623779296875">
        <ele>861.20001220703125</ele>
        <time>2020-08-09T09:04:00.000Z</time>
      </trkpt>
      <trkpt lat="42.28496854193508625030517578125" lon="2.37234153784811496734619140625">
        <ele>861</ele>
        <time>2020-08-09T09:04:01.000Z</time>
      </trkpt>
      <trkpt lat="42.28509611450135707855224609375" lon="2.37224950455129146575927734375">
        <ele>860.4000244140625</ele>
        <time>2020-08-09T09:04:03.000Z</time>
      </trkpt>
      <trkpt lat="42.2852244414389133453369140625" lon="2.37214632332324981689453125">
        <ele>859.20001220703125</ele>
        <time>2020-08-09T09:04:05.000Z</time>
      </trkpt>
      <trkpt lat="42.28528219275176525115966796875" lon="2.37208924256265163421630859375">
        <ele>858.79998779296875</ele>
        <time>2020-08-09T09:04:06.000Z</time>
      </trkpt>
      <trkpt lat="42.28539065457880496978759765625" lon="2.371963597834110260009765625">
        <ele>858</ele>
        <time>2020-08-09T09:04:08.000Z</time>
      </trkpt>
      <trkpt lat="42.28550196625292301177978515625" lon="2.3718360252678394317626953125">
        <ele>857</ele>
        <time>2020-08-09T09:04:10.000Z</time>
      </trkpt>
      <trkpt lat="42.28561143390834331512451171875" lon="2.37171859480440616607666015625">
        <ele>855</ele>
        <time>2020-08-09T09:04:12.000Z</time>
      </trkpt>
      <trkpt lat="42.28578460402786731719970703125" lon="2.371539138257503509521484375">
        <ele>853.79998779296875</ele>
        <time>2020-08-09T09:04:15.000Z</time>
      </trkpt>
      <trkpt lat="42.2859358973801136016845703125" lon="2.37132833339273929595947265625">
        <ele>852.5999755859375</ele>
        <time>2020-08-09T09:04:18.000Z</time>
      </trkpt>
      <trkpt lat="42.28605114854872226715087890625" lon="2.37112465314567089080810546875">
        <ele>852.20001220703125</ele>
        <time>2020-08-09T09:04:21.000Z</time>
      </trkpt>
      <trkpt lat="42.286072187125682830810546875" lon="2.37105466425418853759765625">
        <ele>852</ele>
        <time>2020-08-09T09:04:22.000Z</time>
      </trkpt>
      <trkpt lat="42.28608937002718448638916015625" lon="2.37084905616939067840576171875">
        <ele>851.5999755859375</ele>
        <time>2020-08-09T09:04:25.000Z</time>
      </trkpt>
      <trkpt lat="42.2860911302268505096435546875" lon="2.37078703008592128753662109375">
        <ele>851.5999755859375</ele>
        <time>2020-08-09T09:04:26.000Z</time>
      </trkpt>
      <trkpt lat="42.2861166112124919891357421875" lon="2.37061603926122188568115234375">
        <ele>852</ele>
        <time>2020-08-09T09:04:30.000Z</time>
      </trkpt>
      <trkpt lat="42.286158017814159393310546875" lon="2.37053439952433109283447265625">
        <ele>852.79998779296875</ele>
        <time>2020-08-09T09:04:33.000Z</time>
      </trkpt>
      <trkpt lat="42.28622582741081714630126953125" lon="2.37043901346623897552490234375">
        <ele>853.20001220703125</ele>
        <time>2020-08-09T09:04:37.000Z</time>
      </trkpt>
      <trkpt lat="42.28636580519378185272216796875" lon="2.370292581617832183837890625">
        <ele>853.79998779296875</ele>
        <time>2020-08-09T09:04:44.000Z</time>
      </trkpt>
      <trkpt lat="42.28639908134937286376953125" lon="2.3702555336058139801025390625">
        <ele>854.20001220703125</ele>
        <time>2020-08-09T09:04:46.000Z</time>
      </trkpt>
      <trkpt lat="42.286483235657215118408203125" lon="2.37013039179146289825439453125">
        <ele>854.79998779296875</ele>
        <time>2020-08-09T09:04:52.000Z</time>
      </trkpt>
      <trkpt lat="42.28649564087390899658203125" lon="2.370109856128692626953125">
        <ele>855</ele>
        <time>2020-08-09T09:04:53.000Z</time>
      </trkpt>
      <trkpt lat="42.28659890592098236083984375" lon="2.36998379230499267578125">
        <ele>855.79998779296875</ele>
        <time>2020-08-09T09:05:00.000Z</time>
      </trkpt>
      <trkpt lat="42.2866141609847545623779296875" lon="2.36996627412736415863037109375">
        <ele>855.79998779296875</ele>
        <time>2020-08-09T09:05:01.000Z</time>
      </trkpt>
      <trkpt lat="42.28663302026689052581787109375" lon="2.36992411315441131591796875">
        <ele>855.79998779296875</ele>
        <time>2020-08-09T09:05:03.000Z</time>
      </trkpt>
      <trkpt lat="42.2866533882915973663330078125" lon="2.3698697984218597412109375">
        <ele>855.5999755859375</ele>
        <time>2020-08-09T09:05:05.000Z</time>
      </trkpt>
      <trkpt lat="42.2867392189800739288330078125" lon="2.36972269602119922637939453125">
        <ele>854.5999755859375</ele>
        <time>2020-08-09T09:05:11.000Z</time>
      </trkpt>
      <trkpt lat="42.2867968864738941192626953125" lon="2.36962278373539447784423828125">
        <ele>854.20001220703125</ele>
        <time>2020-08-09T09:05:14.000Z</time>
      </trkpt>
      <trkpt lat="42.28684525005519390106201171875" lon="2.36950946040451526641845703125">
        <ele>853.4000244140625</ele>
        <time>2020-08-09T09:05:16.000Z</time>
      </trkpt>
      <trkpt lat="42.2869447432458400726318359375" lon="2.3692195303738117218017578125">
        <ele>852</ele>
        <time>2020-08-09T09:05:20.000Z</time>
      </trkpt>
      <trkpt lat="42.286970727145671844482421875" lon="2.36915892921388149261474609375">
        <ele>851.5999755859375</ele>
        <time>2020-08-09T09:05:21.000Z</time>
      </trkpt>
      <trkpt lat="42.28703870438039302825927734375" lon="2.3690599389374256134033203125">
        <ele>850.4000244140625</ele>
        <time>2020-08-09T09:05:23.000Z</time>
      </trkpt>
      <trkpt lat="42.28707960806787014007568359375" lon="2.3690294288098812103271484375">
        <ele>850</ele>
        <time>2020-08-09T09:05:24.000Z</time>
      </trkpt>
      <trkpt lat="42.28712084703147411346435546875" lon="2.36900755204260349273681640625">
        <ele>849.4000244140625</ele>
        <time>2020-08-09T09:05:25.000Z</time>
      </trkpt>
      <trkpt lat="42.2872008942067623138427734375" lon="2.36891962587833404541015625">
        <ele>847.79998779296875</ele>
        <time>2020-08-09T09:05:28.000Z</time>
      </trkpt>
      <trkpt lat="42.2872206754982471466064453125" lon="2.36874754540622234344482421875">
        <ele>847</ele>
        <time>2020-08-09T09:05:31.000Z</time>
      </trkpt>
      <trkpt lat="42.287185303866863250732421875" lon="2.368643023073673248291015625">
        <ele>845.79998779296875</ele>
        <time>2020-08-09T09:05:33.000Z</time>
      </trkpt>
      <trkpt lat="42.2871670313179492950439453125" lon="2.36861041747033596038818359375">
        <ele>845.4000244140625</ele>
        <time>2020-08-09T09:05:34.000Z</time>
      </trkpt>
      <trkpt lat="42.2871093638241291046142578125" lon="2.36853280104696750640869140625">
        <ele>844.4000244140625</ele>
        <time>2020-08-09T09:05:37.000Z</time>
      </trkpt>
      <trkpt lat="42.28707633912563323974609375" lon="2.368476390838623046875">
        <ele>844.20001220703125</ele>
        <time>2020-08-09T09:05:39.000Z</time>
      </trkpt>
      <trkpt lat="42.28710374794900417327880859375" lon="2.3683236725628376007080078125">
        <ele>844</ele>
        <time>2020-08-09T09:05:43.000Z</time>
      </trkpt>
      <trkpt lat="42.2871620021760463714599609375" lon="2.36818545497953891754150390625">
        <ele>844.79998779296875</ele>
        <time>2020-08-09T09:05:48.000Z</time>
      </trkpt>
      <trkpt lat="42.2871747426688671112060546875" lon="2.36816299147903919219970703125">
        <ele>845</ele>
        <time>2020-08-09T09:05:49.000Z</time>
      </trkpt>
      <trkpt lat="42.287214137613773345947265625" lon="2.36809979192912578582763671875">
        <ele>845.5999755859375</ele>
        <time>2020-08-09T09:05:52.000Z</time>
      </trkpt>
      <trkpt lat="42.28723727166652679443359375" lon="2.368017733097076416015625">
        <ele>846.5999755859375</ele>
        <time>2020-08-09T09:05:55.000Z</time>
      </trkpt>
      <trkpt lat="42.2872438095510005950927734375" lon="2.36799133010208606719970703125">
        <ele>847</ele>
        <time>2020-08-09T09:05:56.000Z</time>
      </trkpt>
      <trkpt lat="42.28727473877370357513427734375" lon="2.3678703792393207550048828125">
        <ele>848.20001220703125</ele>
        <time>2020-08-09T09:06:01.000Z</time>
      </trkpt>
      <trkpt lat="42.2872840426862239837646484375" lon="2.3678224347531795501708984375">
        <ele>848.5999755859375</ele>
        <time>2020-08-09T09:06:03.000Z</time>
      </trkpt>
      <trkpt lat="42.2873068414628505706787109375" lon="2.36765169538557529449462890625">
        <ele>849.4000244140625</ele>
        <time>2020-08-09T09:06:10.000Z</time>
      </trkpt>
      <trkpt lat="42.28731413371860980987548828125" lon="2.36762680113315582275390625">
        <ele>849.4000244140625</ele>
        <time>2020-08-09T09:06:11.000Z</time>
      </trkpt>
      <trkpt lat="42.28739661164581775665283203125" lon="2.3674439080059528350830078125">
        <ele>850.20001220703125</ele>
        <time>2020-08-09T09:06:19.000Z</time>
      </trkpt>
      <trkpt lat="42.28750222362577915191650390625" lon="2.36726461909711360931396484375">
        <ele>850.4000244140625</ele>
        <time>2020-08-09T09:06:27.000Z</time>
      </trkpt>
      <trkpt lat="42.2875133715569972991943359375" lon="2.36724182032048702239990234375">
        <ele>850.5999755859375</ele>
        <time>2020-08-09T09:06:28.000Z</time>
      </trkpt>
      <trkpt lat="42.28760632686316967010498046875" lon="2.3670620284974575042724609375">
        <ele>851.20001220703125</ele>
        <time>2020-08-09T09:06:36.000Z</time>
      </trkpt>
      <trkpt lat="42.28765460662543773651123046875" lon="2.3669775389134883880615234375">
        <ele>851.4000244140625</ele>
        <time>2020-08-09T09:06:40.000Z</time>
      </trkpt>
      <trkpt lat="42.28769861161708831787109375" lon="2.3668548278510570526123046875">
        <ele>851.5999755859375</ele>
        <time>2020-08-09T09:06:45.000Z</time>
      </trkpt>
      <trkpt lat="42.28779441677033901214599609375" lon="2.3666886985301971435546875">
        <ele>852.20001220703125</ele>
        <time>2020-08-09T09:06:52.000Z</time>
      </trkpt>
      <trkpt lat="42.28790287859737873077392578125" lon="2.3664699308574199676513671875">
        <ele>852</ele>
        <time>2020-08-09T09:07:00.000Z</time>
      </trkpt>
      <trkpt lat="42.287930287420749664306640625" lon="2.3664166219532489776611328125">
        <ele>852.4000244140625</ele>
        <time>2020-08-09T09:07:02.000Z</time>
      </trkpt>
      <trkpt lat="42.2879911400377750396728515625" lon="2.36629307270050048828125">
        <ele>853.4000244140625</ele>
        <time>2020-08-09T09:07:07.000Z</time>
      </trkpt>
      <trkpt lat="42.2880042158067226409912109375" lon="2.36626951955258846282958984375">
        <ele>853.5999755859375</ele>
        <time>2020-08-09T09:07:08.000Z</time>
      </trkpt>
      <trkpt lat="42.2880843468010425567626953125" lon="2.36613507382571697235107421875">
        <ele>853.5999755859375</ele>
        <time>2020-08-09T09:07:14.000Z</time>
      </trkpt>
      <trkpt lat="42.28817445226013660430908203125" lon="2.36597548238933086395263671875">
        <ele>853.79998779296875</ele>
        <time>2020-08-09T09:07:21.000Z</time>
      </trkpt>
      <trkpt lat="42.28823664598166942596435546875" lon="2.3658557049930095672607421875">
        <ele>854.4000244140625</ele>
        <time>2020-08-09T09:07:26.000Z</time>
      </trkpt>
      <trkpt lat="42.28826363570988178253173828125" lon="2.3658057488501071929931640625">
        <ele>854.5999755859375</ele>
        <time>2020-08-09T09:07:28.000Z</time>
      </trkpt>
      <trkpt lat="42.28828023187816143035888671875" lon="2.36578655429184436798095703125">
        <ele>854.5999755859375</ele>
        <time>2020-08-09T09:07:29.000Z</time>
      </trkpt>
      <trkpt lat="42.2883425094187259674072265625" lon="2.36570206470787525177001953125">
        <ele>854.4000244140625</ele>
        <time>2020-08-09T09:07:33.000Z</time>
      </trkpt>
      <trkpt lat="42.28842205367982387542724609375" lon="2.36553333699703216552734375">
        <ele>855.4000244140625</ele>
        <time>2020-08-09T09:07:39.000Z</time>
      </trkpt>
      <trkpt lat="42.28850184939801692962646484375" lon="2.36540266312658786773681640625">
        <ele>855.4000244140625</ele>
        <time>2020-08-09T09:07:44.000Z</time>
      </trkpt>
      <trkpt lat="42.28853303007781505584716796875" lon="2.365347929298877716064453125">
        <ele>855.5999755859375</ele>
        <time>2020-08-09T09:07:46.000Z</time>
      </trkpt>
      <trkpt lat="42.28863713331520557403564453125" lon="2.36515087075531482696533203125">
        <ele>856</ele>
        <time>2020-08-09T09:07:53.000Z</time>
      </trkpt>
      <trkpt lat="42.288741655647754669189453125" lon="2.36495942808687686920166015625">
        <ele>856.4000244140625</ele>
        <time>2020-08-09T09:08:00.000Z</time>
      </trkpt>
      <trkpt lat="42.28888339363038539886474609375" lon="2.364737726747989654541015625">
        <ele>856.4000244140625</ele>
        <time>2020-08-09T09:08:08.000Z</time>
      </trkpt>
      <trkpt lat="42.288935445249080657958984375" lon="2.36465734429657459259033203125">
        <ele>856.5999755859375</ele>
        <time>2020-08-09T09:08:11.000Z</time>
      </trkpt>
      <trkpt lat="42.28901431895792484283447265625" lon="2.36454620026051998138427734375">
        <ele>857</ele>
        <time>2020-08-09T09:08:16.000Z</time>
      </trkpt>
      <trkpt lat="42.28913803584873676300048828125" lon="2.3643498122692108154296875">
        <ele>857.4000244140625</ele>
        <time>2020-08-09T09:08:24.000Z</time>
      </trkpt>
      <trkpt lat="42.28922587819397449493408203125" lon="2.3642105050384998321533203125">
        <ele>857.4000244140625</ele>
        <time>2020-08-09T09:08:30.000Z</time>
      </trkpt>
      <trkpt lat="42.28930659592151641845703125" lon="2.36410112120211124420166015625">
        <ele>857.4000244140625</ele>
        <time>2020-08-09T09:08:35.000Z</time>
      </trkpt>
      <trkpt lat="42.2894438914954662322998046875" lon="2.3639181442558765411376953125">
        <ele>857.4000244140625</ele>
        <time>2020-08-09T09:08:43.000Z</time>
      </trkpt>
      <trkpt lat="42.28959199972450733184814453125" lon="2.3637672699987888336181640625">
        <ele>857.5999755859375</ele>
        <time>2020-08-09T09:08:50.000Z</time>
      </trkpt>
      <trkpt lat="42.28973650373518466949462890625" lon="2.36367213539779186248779296875">
        <ele>857.4000244140625</ele>
        <time>2020-08-09T09:08:56.000Z</time>
      </trkpt>
      <trkpt lat="42.28984178043901920318603515625" lon="2.3635934293270111083984375">
        <ele>857.4000244140625</ele>
        <time>2020-08-09T09:09:01.000Z</time>
      </trkpt>
      <trkpt lat="42.2899867035448551177978515625" lon="2.36349594779312610626220703125">
        <ele>857.4000244140625</ele>
        <time>2020-08-09T09:09:07.000Z</time>
      </trkpt>
      <trkpt lat="42.2901509888470172882080078125" lon="2.3633837141096591949462890625">
        <ele>857.5999755859375</ele>
        <time>2020-08-09T09:09:13.000Z</time>
      </trkpt>
      <trkpt lat="42.29020178318023681640625" lon="2.363349683582782745361328125">
        <ele>857.79998779296875</ele>
        <time>2020-08-09T09:09:15.000Z</time>
      </trkpt>
      <trkpt lat="42.29036430828273296356201171875" lon="2.3632439039647579193115234375">
        <ele>857.4000244140625</ele>
        <time>2020-08-09T09:09:21.000Z</time>
      </trkpt>
      <trkpt lat="42.29052565991878509521484375" lon="2.3631198517978191375732421875">
        <ele>857.79998779296875</ele>
        <time>2020-08-09T09:09:27.000Z</time>
      </trkpt>
      <trkpt lat="42.29067812673747539520263671875" lon="2.3629931174218654632568359375">
        <ele>858.20001220703125</ele>
        <time>2020-08-09T09:09:33.000Z</time>
      </trkpt>
      <trkpt lat="42.29087032377719879150390625" lon="2.3629367910325527191162109375">
        <ele>858.79998779296875</ele>
        <time>2020-08-09T09:09:39.000Z</time>
      </trkpt>
      <trkpt lat="42.291065789759159088134765625" lon="2.36283947713673114776611328125">
        <ele>858.5999755859375</ele>
        <time>2020-08-09T09:09:45.000Z</time>
      </trkpt>
      <trkpt lat="42.29126871563494205474853515625" lon="2.3626799695193767547607421875">
        <ele>858.5999755859375</ele>
        <time>2020-08-09T09:09:52.000Z</time>
      </trkpt>
      <trkpt lat="42.29149234481155872344970703125" lon="2.362561784684658050537109375">
        <ele>858.79998779296875</ele>
        <time>2020-08-09T09:09:59.000Z</time>
      </trkpt>
      <trkpt lat="42.29169242084026336669921875" lon="2.36248458735644817352294921875">
        <ele>858.79998779296875</ele>
        <time>2020-08-09T09:10:05.000Z</time>
      </trkpt>
      <trkpt lat="42.29187154211103916168212890625" lon="2.36240630038082599639892578125">
        <ele>859.20001220703125</ele>
        <time>2020-08-09T09:10:11.000Z</time>
      </trkpt>
      <trkpt lat="42.29197313077747821807861328125" lon="2.36235382966697216033935546875">
        <ele>860</ele>
        <time>2020-08-09T09:10:15.000Z</time>
      </trkpt>
      <trkpt lat="42.2920194827020168304443359375" lon="2.362339831888675689697265625">
        <ele>860.5999755859375</ele>
        <time>2020-08-09T09:10:17.000Z</time>
      </trkpt>
      <trkpt lat="42.29209466837346553802490234375" lon="2.362321726977825164794921875">
        <ele>861</ele>
        <time>2020-08-09T09:10:20.000Z</time>
      </trkpt>
      <trkpt lat="42.29216993786394596099853515625" lon="2.36229582689702510833740234375">
        <ele>861.20001220703125</ele>
        <time>2020-08-09T09:10:23.000Z</time>
      </trkpt>
      <trkpt lat="42.29233673773705959320068359375" lon="2.3623091541230678558349609375">
        <ele>861.5999755859375</ele>
        <time>2020-08-09T09:10:28.000Z</time>
      </trkpt>
      <trkpt lat="42.29250571690499782562255859375" lon="2.3622461222112178802490234375">
        <ele>862</ele>
        <time>2020-08-09T09:10:33.000Z</time>
      </trkpt>
      <trkpt lat="42.292591296136379241943359375" lon="2.3622042126953601837158203125">
        <ele>862</ele>
        <time>2020-08-09T09:10:36.000Z</time>
      </trkpt>
      <trkpt lat="42.29268106631934642791748046875" lon="2.362149395048618316650390625">
        <ele>862</ele>
        <time>2020-08-09T09:10:39.000Z</time>
      </trkpt>
      <trkpt lat="42.29285557754337787628173828125" lon="2.3620617203414440155029296875">
        <ele>862.79998779296875</ele>
        <time>2020-08-09T09:10:45.000Z</time>
      </trkpt>
      <trkpt lat="42.29288139380514621734619140625" lon="2.36204990185797214508056640625">
        <ele>863.20001220703125</ele>
        <time>2020-08-09T09:10:46.000Z</time>
      </trkpt>
      <trkpt lat="42.29308825917541980743408203125" lon="2.36193590797483921051025390625">
        <ele>864.20001220703125</ele>
        <time>2020-08-09T09:10:54.000Z</time>
      </trkpt>
      <trkpt lat="42.29327023029327392578125" lon="2.36180112697184085845947265625">
        <ele>864.4000244140625</ele>
        <time>2020-08-09T09:11:01.000Z</time>
      </trkpt>
      <trkpt lat="42.29346410371363162994384765625" lon="2.3616372607648372650146484375">
        <ele>864.4000244140625</ele>
        <time>2020-08-09T09:11:07.000Z</time>
      </trkpt>
      <trkpt lat="42.2936428897082805633544921875" lon="2.36144430935382843017578125">
        <ele>863.5999755859375</ele>
        <time>2020-08-09T09:11:13.000Z</time>
      </trkpt>
      <trkpt lat="42.29382402263581752777099609375" lon="2.36126619391143321990966796875">
        <ele>863.79998779296875</ele>
        <time>2020-08-09T09:11:19.000Z</time>
      </trkpt>
      <trkpt lat="42.2940225899219512939453125" lon="2.36110366880893707275390625">
        <ele>863.79998779296875</ele>
        <time>2020-08-09T09:11:26.000Z</time>
      </trkpt>
      <trkpt lat="42.29418477974832057952880859375" lon="2.36093728803098201751708984375">
        <ele>864.5999755859375</ele>
        <time>2020-08-09T09:11:33.000Z</time>
      </trkpt>
      <trkpt lat="42.29425518773496150970458984375" lon="2.36089554615318775177001953125">
        <ele>865</ele>
        <time>2020-08-09T09:11:36.000Z</time>
      </trkpt>
      <trkpt lat="42.294281758368015289306640625" lon="2.360894791781902313232421875">
        <ele>865</ele>
        <time>2020-08-09T09:11:37.000Z</time>
      </trkpt>
      <trkpt lat="42.29431168176233768463134765625" lon="2.3608922772109508514404296875">
        <ele>865.20001220703125</ele>
        <time>2020-08-09T09:11:38.000Z</time>
      </trkpt>
      <trkpt lat="42.2944374941289424896240234375" lon="2.3608580790460109710693359375">
        <ele>865</ele>
        <time>2020-08-09T09:11:42.000Z</time>
      </trkpt>
      <trkpt lat="42.29446171782910823822021484375" lon="2.3608253896236419677734375">
        <ele>865</ele>
        <time>2020-08-09T09:11:43.000Z</time>
      </trkpt>
      <trkpt lat="42.2945992648601531982421875" lon="2.36057904548943042755126953125">
        <ele>865</ele>
        <time>2020-08-09T09:11:50.000Z</time>
      </trkpt>
      <trkpt lat="42.29479883797466754913330078125" lon="2.3604440130293369293212890625">
        <ele>865.5999755859375</ele>
        <time>2020-08-09T09:11:57.000Z</time>
      </trkpt>
      <trkpt lat="42.2950460202991962432861328125" lon="2.3603259958326816558837890625">
        <ele>865.5999755859375</ele>
        <time>2020-08-09T09:12:06.000Z</time>
      </trkpt>
      <trkpt lat="42.2950994968414306640625" lon="2.36030730418860912322998046875">
        <ele>866</ele>
        <time>2020-08-09T09:12:08.000Z</time>
      </trkpt>
      <trkpt lat="42.2953422367572784423828125" lon="2.3602513968944549560546875">
        <ele>867</ele>
        <time>2020-08-09T09:12:17.000Z</time>
      </trkpt>
      <trkpt lat="42.2953695617616176605224609375" lon="2.36024661920964717864990234375">
        <ele>867</ele>
        <time>2020-08-09T09:12:18.000Z</time>
      </trkpt>
      <trkpt lat="42.2955985553562641143798828125" lon="2.36019431613385677337646484375">
        <ele>867.4000244140625</ele>
        <time>2020-08-09T09:12:26.000Z</time>
      </trkpt>
      <trkpt lat="42.29581472463905811309814453125" lon="2.36017218790948390960693359375">
        <ele>868</ele>
        <time>2020-08-09T09:12:33.000Z</time>
      </trkpt>
      <trkpt lat="42.295931987464427947998046875" lon="2.36016548238694667816162109375">
        <ele>868.5999755859375</ele>
        <time>2020-08-09T09:12:37.000Z</time>
      </trkpt>
      <trkpt lat="42.295960485935211181640625" lon="2.36016749404370784759521484375">
        <ele>868.5999755859375</ele>
        <time>2020-08-09T09:12:38.000Z</time>
      </trkpt>
      <trkpt lat="42.29620121419429779052734375" lon="2.360170595347881317138671875">
        <ele>868.5999755859375</ele>
        <time>2020-08-09T09:12:46.000Z</time>
      </trkpt>
      <trkpt lat="42.2962939180433750152587890625" lon="2.3601761274039745330810546875">
        <ele>869</ele>
        <time>2020-08-09T09:12:49.000Z</time>
      </trkpt>
      <trkpt lat="42.2964875400066375732421875" lon="2.36018098890781402587890625">
        <ele>869</ele>
        <time>2020-08-09T09:12:55.000Z</time>
      </trkpt>
      <trkpt lat="42.29671695269644260406494140625" lon="2.36018325202167034149169921875">
        <ele>869</ele>
        <time>2020-08-09T09:13:02.000Z</time>
      </trkpt>
      <trkpt lat="42.2970003448426723480224609375" lon="2.360185682773590087890625">
        <ele>868</ele>
        <time>2020-08-09T09:13:09.000Z</time>
      </trkpt>
      <trkpt lat="42.29704937897622585296630859375" lon="2.3601858504116535186767578125">
        <ele>867.79998779296875</ele>
        <time>2020-08-09T09:13:10.000Z</time>
      </trkpt>
      <trkpt lat="42.29731542058289051055908203125" lon="2.360179983079433441162109375">
        <ele>867.20001220703125</ele>
        <time>2020-08-09T09:13:15.000Z</time>
      </trkpt>
      <trkpt lat="42.29747652076184749603271484375" lon="2.360179983079433441162109375">
        <ele>867.5999755859375</ele>
        <time>2020-08-09T09:13:19.000Z</time>
      </trkpt>
      <trkpt lat="42.297655977308750152587890625" lon="2.36014871858060359954833984375">
        <ele>868.79998779296875</ele>
        <time>2020-08-09T09:13:25.000Z</time>
      </trkpt>
      <trkpt lat="42.2976833023130893707275390625" lon="2.3601415939629077911376953125">
        <ele>868.79998779296875</ele>
        <time>2020-08-09T09:13:26.000Z</time>
      </trkpt>
      <trkpt lat="42.2978688776493072509765625" lon="2.3601060546934604644775390625">
        <ele>869</ele>
        <time>2020-08-09T09:13:32.000Z</time>
      </trkpt>
      <trkpt lat="42.298125363886356353759765625" lon="2.36005735583603382110595703125">
        <ele>868.4000244140625</ele>
        <time>2020-08-09T09:13:39.000Z</time>
      </trkpt>
      <trkpt lat="42.29826760478317737579345703125" lon="2.36009624786674976348876953125">
        <ele>868.20001220703125</ele>
        <time>2020-08-09T09:13:43.000Z</time>
      </trkpt>
      <trkpt lat="42.29836030863225460052490234375" lon="2.36001913435757160186767578125">
        <ele>867.79998779296875</ele>
        <time>2020-08-09T09:13:46.000Z</time>
      </trkpt>
      <trkpt lat="42.29838050901889801025390625" lon="2.35998242162168025970458984375">
        <ele>867.79998779296875</ele>
        <time>2020-08-09T09:13:47.000Z</time>
      </trkpt>
      <trkpt lat="42.29848637245595455169677734375" lon="2.359860800206661224365234375">
        <ele>868.20001220703125</ele>
        <time>2020-08-09T09:13:52.000Z</time>
      </trkpt>
      <trkpt lat="42.2985640726983547210693359375" lon="2.3598106764256954193115234375">
        <ele>868.79998779296875</ele>
        <time>2020-08-09T09:13:56.000Z</time>
      </trkpt>
      <trkpt lat="42.29863355867564678192138671875" lon="2.35976499505341053009033203125">
        <ele>869</ele>
        <time>2020-08-09T09:13:59.000Z</time>
      </trkpt>
      <trkpt lat="42.2987432777881622314453125" lon="2.3596852831542491912841796875">
        <ele>869.20001220703125</ele>
        <time>2020-08-09T09:14:04.000Z</time>
      </trkpt>
      <trkpt lat="42.29892424307763576507568359375" lon="2.359541617333889007568359375">
        <ele>869.79998779296875</ele>
        <time>2020-08-09T09:14:12.000Z</time>
      </trkpt>
      <trkpt lat="42.2989496402442455291748046875" lon="2.3595236800611019134521484375">
        <ele>870</ele>
        <time>2020-08-09T09:14:13.000Z</time>
      </trkpt>
      <trkpt lat="42.2991125844419002532958984375" lon="2.35943541862070560455322265625">
        <ele>870.20001220703125</ele>
        <time>2020-08-09T09:14:19.000Z</time>
      </trkpt>
      <trkpt lat="42.29921677149832248687744140625" lon="2.359388060867786407470703125">
        <ele>870.5999755859375</ele>
        <time>2020-08-09T09:14:23.000Z</time>
      </trkpt>
      <trkpt lat="42.2992634586989879608154296875" lon="2.35935511998832225799560546875">
        <ele>870.79998779296875</ele>
        <time>2020-08-09T09:14:25.000Z</time>
      </trkpt>
      <trkpt lat="42.299287430942058563232421875" lon="2.35933902673423290252685546875">
        <ele>871</ele>
        <time>2020-08-09T09:14:26.000Z</time>
      </trkpt>
      <trkpt lat="42.2994485311210155487060546875" lon="2.3592115379869937896728515625">
        <ele>872</ele>
        <time>2020-08-09T09:14:33.000Z</time>
      </trkpt>
      <trkpt lat="42.29947292245924472808837890625" lon="2.3591919243335723876953125">
        <ele>872</ele>
        <time>2020-08-09T09:14:34.000Z</time>
      </trkpt>
      <trkpt lat="42.29954726994037628173828125" lon="2.3591250367462635040283203125">
        <ele>872.4000244140625</ele>
        <time>2020-08-09T09:14:38.000Z</time>
      </trkpt>
      <trkpt lat="42.299664951860904693603515625" lon="2.35900727100670337677001953125">
        <ele>872.79998779296875</ele>
        <time>2020-08-09T09:14:44.000Z</time>
      </trkpt>
      <trkpt lat="42.29968481697142124176025390625" lon="2.3589882440865039825439453125">
        <ele>872.79998779296875</ele>
        <time>2020-08-09T09:14:45.000Z</time>
      </trkpt>
      <trkpt lat="42.29980400763452053070068359375" lon="2.358892522752285003662109375">
        <ele>873.20001220703125</ele>
        <time>2020-08-09T09:14:51.000Z</time>
      </trkpt>
      <trkpt lat="42.29992051608860492706298828125" lon="2.358796633780002593994140625">
        <ele>873.79998779296875</ele>
        <time>2020-08-09T09:14:57.000Z</time>
      </trkpt>
      <trkpt lat="42.2999598272144794464111328125" lon="2.35876067541539669036865234375">
        <ele>874</ele>
        <time>2020-08-09T09:14:59.000Z</time>
      </trkpt>
      <trkpt lat="42.3000763356685638427734375" lon="2.3586737550795078277587890625">
        <ele>874.5999755859375</ele>
        <time>2020-08-09T09:15:04.000Z</time>
      </trkpt>
      <trkpt lat="42.300227545201778411865234375" lon="2.3585446737706661224365234375">
        <ele>874.5999755859375</ele>
        <time>2020-08-09T09:15:10.000Z</time>
      </trkpt>
      <trkpt lat="42.3002766631543636322021484375" lon="2.3585025966167449951171875">
        <ele>875</ele>
        <time>2020-08-09T09:15:12.000Z</time>
      </trkpt>
      <trkpt lat="42.3003718815743923187255859375" lon="2.35841584391891956329345703125">
        <ele>875.4000244140625</ele>
        <time>2020-08-09T09:15:16.000Z</time>
      </trkpt>
      <trkpt lat="42.30047137476503849029541015625" lon="2.3583148419857025146484375">
        <ele>876.20001220703125</ele>
        <time>2020-08-09T09:15:21.000Z</time>
      </trkpt>
      <trkpt lat="42.30051060207188129425048828125" lon="2.35827318392693996429443359375">
        <ele>876.79998779296875</ele>
        <time>2020-08-09T09:15:23.000Z</time>
      </trkpt>
      <trkpt lat="42.30069517157971858978271484375" lon="2.35811158083379268646240234375">
        <ele>877.20001220703125</ele>
        <time>2020-08-09T09:15:31.000Z</time>
      </trkpt>
      <trkpt lat="42.30071981437504291534423828125" lon="2.358093224465847015380859375">
        <ele>877.20001220703125</ele>
        <time>2020-08-09T09:15:32.000Z</time>
      </trkpt>
      <trkpt lat="42.3008315451443195343017578125" lon="2.35800328664481639862060546875">
        <ele>877.5999755859375</ele>
        <time>2020-08-09T09:15:37.000Z</time>
      </trkpt>
      <trkpt lat="42.30096674524247646331787109375" lon="2.357938997447490692138671875">
        <ele>878.5999755859375</ele>
        <time>2020-08-09T09:15:43.000Z</time>
      </trkpt>
      <trkpt lat="42.301032878458499908447265625" lon="2.357921563088893890380859375">
        <ele>879.5999755859375</ele>
        <time>2020-08-09T09:15:46.000Z</time>
      </trkpt>
      <trkpt lat="42.3010984249413013458251953125" lon="2.3579083196818828582763671875">
        <ele>879.79998779296875</ele>
        <time>2020-08-09T09:15:49.000Z</time>
      </trkpt>
      <trkpt lat="42.30116640217602252960205078125" lon="2.35791049897670745849609375">
        <ele>880.20001220703125</ele>
        <time>2020-08-09T09:15:52.000Z</time>
      </trkpt>
      <trkpt lat="42.30120889842510223388671875" lon="2.357911504805088043212890625">
        <ele>880.79998779296875</ele>
        <time>2020-08-09T09:15:54.000Z</time>
      </trkpt>
      <trkpt lat="42.301277630031108856201171875" lon="2.35793053172528743743896484375">
        <ele>881</ele>
        <time>2020-08-09T09:15:57.000Z</time>
      </trkpt>
      <trkpt lat="42.30148139409720897674560546875" lon="2.358075790107250213623046875">
        <ele>881.4000244140625</ele>
        <time>2020-08-09T09:16:07.000Z</time>
      </trkpt>
      <trkpt lat="42.301555238664150238037109375" lon="2.35814996995031833648681640625">
        <ele>881.79998779296875</ele>
        <time>2020-08-09T09:16:11.000Z</time>
      </trkpt>
      <trkpt lat="42.3016150854527950286865234375" lon="2.358202524483203887939453125">
        <ele>882.20001220703125</ele>
        <time>2020-08-09T09:16:14.000Z</time>
      </trkpt>
      <trkpt lat="42.30176218785345554351806640625" lon="2.358384914696216583251953125">
        <ele>882</ele>
        <time>2020-08-09T09:16:22.000Z</time>
      </trkpt>
      <trkpt lat="42.3019201867282390594482421875" lon="2.358616255223751068115234375">
        <ele>882.20001220703125</ele>
        <time>2020-08-09T09:16:31.000Z</time>
      </trkpt>
      <trkpt lat="42.302059493958950042724609375" lon="2.3588222824037075042724609375">
        <ele>882.20001220703125</ele>
        <time>2020-08-09T09:16:39.000Z</time>
      </trkpt>
      <trkpt lat="42.3020975477993488311767578125" lon="2.358855642378330230712890625">
        <ele>882.4000244140625</ele>
        <time>2020-08-09T09:16:41.000Z</time>
      </trkpt>
      <trkpt lat="42.302142642438411712646484375" lon="2.358863353729248046875">
        <ele>882.5999755859375</ele>
        <time>2020-08-09T09:16:43.000Z</time>
      </trkpt>
      <trkpt lat="42.30229510925710201263427734375" lon="2.35889964736998081207275390625">
        <ele>882.79998779296875</ele>
        <time>2020-08-09T09:16:49.000Z</time>
      </trkpt>
      <trkpt lat="42.30240256525576114654541015625" lon="2.35892898403108119964599609375">
        <ele>883</ele>
        <time>2020-08-09T09:16:53.000Z</time>
      </trkpt>
      <trkpt lat="42.3025649227201938629150390625" lon="2.35896284691989421844482421875">
        <ele>882.79998779296875</ele>
        <time>2020-08-09T09:16:59.000Z</time>
      </trkpt>
      <trkpt lat="42.3027456365525722503662109375" lon="2.35904029570519924163818359375">
        <ele>883.20001220703125</ele>
        <time>2020-08-09T09:17:06.000Z</time>
      </trkpt>
      <trkpt lat="42.30294437147676944732666015625" lon="2.3591257072985172271728515625">
        <ele>883</ele>
        <time>2020-08-09T09:17:14.000Z</time>
      </trkpt>
      <trkpt lat="42.30306054465472698211669921875" lon="2.3591236956417560577392578125">
        <ele>883</ele>
        <time>2020-08-09T09:17:19.000Z</time>
      </trkpt>
      <trkpt lat="42.30322055518627166748046875" lon="2.35916535370051860809326171875">
        <ele>882.79998779296875</ele>
        <time>2020-08-09T09:17:26.000Z</time>
      </trkpt>
      <trkpt lat="42.30342918075621128082275390625" lon="2.35922436229884624481201171875">
        <ele>883.20001220703125</ele>
        <time>2020-08-09T09:17:34.000Z</time>
      </trkpt>
      <trkpt lat="42.30364962480962276458740234375" lon="2.35929141752421855926513671875">
        <ele>883.4000244140625</ele>
        <time>2020-08-09T09:17:42.000Z</time>
      </trkpt>
      <trkpt lat="42.303760685026645660400390625" lon="2.3593302257359027862548828125">
        <ele>883.5999755859375</ele>
        <time>2020-08-09T09:17:46.000Z</time>
      </trkpt>
      <trkpt lat="42.30398423038423061370849609375" lon="2.359398119151592254638671875">
        <ele>884</ele>
        <time>2020-08-09T09:17:54.000Z</time>
      </trkpt>
      <trkpt lat="42.304209284484386444091796875" lon="2.359465174376964569091796875">
        <ele>884.5999755859375</ele>
        <time>2020-08-09T09:18:02.000Z</time>
      </trkpt>
      <trkpt lat="42.30446149595081806182861328125" lon="2.3595049045979976654052734375">
        <ele>884.20001220703125</ele>
        <time>2020-08-09T09:18:11.000Z</time>
      </trkpt>
      <trkpt lat="42.30451815761625766754150390625" lon="2.3594869673252105712890625">
        <ele>884.20001220703125</ele>
        <time>2020-08-09T09:18:13.000Z</time>
      </trkpt>
      <trkpt lat="42.30465042404830455780029296875" lon="2.3594425432384014129638671875">
        <ele>884.20001220703125</ele>
        <time>2020-08-09T09:18:17.000Z</time>
      </trkpt>
      <trkpt lat="42.30479543097317218780517578125" lon="2.35947280190885066986083984375">
        <ele>883.79998779296875</ele>
        <time>2020-08-09T09:18:21.000Z</time>
      </trkpt>
      <trkpt lat="42.30494521558284759521484375" lon="2.35956718213856220245361328125">
        <ele>883.79998779296875</ele>
        <time>2020-08-09T09:18:26.000Z</time>
      </trkpt>
      <trkpt lat="42.3051140271127223968505859375" lon="2.3596815951168537139892578125">
        <ele>883.5999755859375</ele>
        <time>2020-08-09T09:18:32.000Z</time>
      </trkpt>
      <trkpt lat="42.30530806817114353179931640625" lon="2.3598257638514041900634765625">
        <ele>883.79998779296875</ele>
        <time>2020-08-09T09:18:39.000Z</time>
      </trkpt>
      <trkpt lat="42.3054466210305690765380859375" lon="2.35992760397493839263916015625">
        <ele>884.20001220703125</ele>
        <time>2020-08-09T09:18:45.000Z</time>
      </trkpt>
      <trkpt lat="42.30569615028798580169677734375" lon="2.360140420496463775634765625">
        <ele>884.5999755859375</ele>
        <time>2020-08-09T09:18:54.000Z</time>
      </trkpt>
      <trkpt lat="42.3060102201998233795166015625" lon="2.36038156785070896148681640625">
        <ele>884.4000244140625</ele>
        <time>2020-08-09T09:19:04.000Z</time>
      </trkpt>
      <trkpt lat="42.30613234452903270721435546875" lon="2.36048131249845027923583984375">
        <ele>884.5999755859375</ele>
        <time>2020-08-09T09:19:08.000Z</time>
      </trkpt>
      <trkpt lat="42.30630584992468357086181640625" lon="2.36061760224401950836181640625">
        <ele>884.79998779296875</ele>
        <time>2020-08-09T09:19:14.000Z</time>
      </trkpt>
      <trkpt lat="42.3065315745770931243896484375" lon="2.3608071170747280120849609375">
        <ele>885</ele>
        <time>2020-08-09T09:19:23.000Z</time>
      </trkpt>
      <trkpt lat="42.306728549301624298095703125" lon="2.36096830107271671295166015625">
        <ele>885.4000244140625</ele>
        <time>2020-08-09T09:19:31.000Z</time>
      </trkpt>
      <trkpt lat="42.30680725537240505218505859375" lon="2.3610357753932476043701171875">
        <ele>885.79998779296875</ele>
        <time>2020-08-09T09:19:35.000Z</time>
      </trkpt>
      <trkpt lat="42.3069215007126331329345703125" lon="2.36113325692713260650634765625">
        <ele>886</ele>
        <time>2020-08-09T09:19:42.000Z</time>
      </trkpt>
      <trkpt lat="42.3070163838565349578857421875" lon="2.36127398908138275146484375">
        <ele>885.79998779296875</ele>
        <time>2020-08-09T09:19:48.000Z</time>
      </trkpt>
      <trkpt lat="42.30712006799876689910888671875" lon="2.36146174371242523193359375">
        <ele>886.20001220703125</ele>
        <time>2020-08-09T09:19:54.000Z</time>
      </trkpt>
      <trkpt lat="42.30729977600276470184326171875" lon="2.361552603542804718017578125">
        <ele>886.4000244140625</ele>
        <time>2020-08-09T09:20:01.000Z</time>
      </trkpt>
      <trkpt lat="42.307398431003093719482421875" lon="2.36161328852176666259765625">
        <ele>886.79998779296875</ele>
        <time>2020-08-09T09:20:05.000Z</time>
      </trkpt>
      <trkpt lat="42.30748929083347320556640625" lon="2.361687719821929931640625">
        <ele>887</ele>
        <time>2020-08-09T09:20:09.000Z</time>
      </trkpt>
      <trkpt lat="42.30760353617370128631591796875" lon="2.36182124353945255279541015625">
        <ele>887.20001220703125</ele>
        <time>2020-08-09T09:20:15.000Z</time>
      </trkpt>
      <trkpt lat="42.3076643049716949462890625" lon="2.36205342225730419158935546875">
        <ele>887.79998779296875</ele>
        <time>2020-08-09T09:20:21.000Z</time>
      </trkpt>
      <trkpt lat="42.30769808404147624969482421875" lon="2.36213640309870243072509765625">
        <ele>887.79998779296875</ele>
        <time>2020-08-09T09:20:23.000Z</time>
      </trkpt>
      <trkpt lat="42.307767234742641448974609375" lon="2.3622370697557926177978515625">
        <ele>888.20001220703125</ele>
        <time>2020-08-09T09:20:26.000Z</time>
      </trkpt>
      <trkpt lat="42.30792003683745861053466796875" lon="2.3622684180736541748046875">
        <ele>888.4000244140625</ele>
        <time>2020-08-09T09:20:31.000Z</time>
      </trkpt>
      <trkpt lat="42.3080587573349475860595703125" lon="2.36217294819653034210205078125">
        <ele>888.4000244140625</ele>
        <time>2020-08-09T09:20:35.000Z</time>
      </trkpt>
      <trkpt lat="42.30810008011758327484130859375" lon="2.36215651966631412506103515625">
        <ele>888.4000244140625</ele>
        <time>2020-08-09T09:20:36.000Z</time>
      </trkpt>
      <trkpt lat="42.30825028382241725921630859375" lon="2.36221016384661197662353515625">
        <ele>888.20001220703125</ele>
        <time>2020-08-09T09:20:40.000Z</time>
      </trkpt>
      <trkpt lat="42.308282218873500823974609375" lon="2.362234890460968017578125">
        <ele>888.20001220703125</ele>
        <time>2020-08-09T09:20:41.000Z</time>
      </trkpt>
      <trkpt lat="42.308516241610050201416015625" lon="2.36244116909801959991455078125">
        <ele>888.79998779296875</ele>
        <time>2020-08-09T09:20:49.000Z</time>
      </trkpt>
      <trkpt lat="42.30854582972824573516845703125" lon="2.3624637164175510406494140625">
        <ele>889</ele>
        <time>2020-08-09T09:20:50.000Z</time>
      </trkpt>
      <trkpt lat="42.30879896320402622222900390625" lon="2.36267301253974437713623046875">
        <ele>889.4000244140625</ele>
        <time>2020-08-09T09:20:59.000Z</time>
      </trkpt>
      <trkpt lat="42.30901756323873996734619140625" lon="2.36286043189465999603271484375">
        <ele>890</ele>
        <time>2020-08-09T09:21:07.000Z</time>
      </trkpt>
      <trkpt lat="42.3090719617903232574462890625" lon="2.36290477216243743896484375">
        <ele>890.20001220703125</ele>
        <time>2020-08-09T09:21:09.000Z</time>
      </trkpt>
      <trkpt lat="42.3093341477215290069580078125" lon="2.3631374537944793701171875">
        <ele>890.79998779296875</ele>
        <time>2020-08-09T09:21:19.000Z</time>
      </trkpt>
      <trkpt lat="42.3095182143151760101318359375" lon="2.36328556202352046966552734375">
        <ele>890.79998779296875</ele>
        <time>2020-08-09T09:21:27.000Z</time>
      </trkpt>
      <trkpt lat="42.30957563035190105438232421875" lon="2.36332193948328495025634765625">
        <ele>891.20001220703125</ele>
        <time>2020-08-09T09:21:29.000Z</time>
      </trkpt>
      <trkpt lat="42.3097337968647480010986328125" lon="2.36344448290765285491943359375">
        <ele>891.5999755859375</ele>
        <time>2020-08-09T09:21:35.000Z</time>
      </trkpt>
      <trkpt lat="42.309942506253719329833984375" lon="2.36360482871532440185546875">
        <ele>892.20001220703125</ele>
        <time>2020-08-09T09:21:43.000Z</time>
      </trkpt>
      <trkpt lat="42.31014258228242397308349609375" lon="2.36376685090363025665283203125">
        <ele>892.79998779296875</ele>
        <time>2020-08-09T09:21:51.000Z</time>
      </trkpt>
      <trkpt lat="42.310374677181243896484375" lon="2.3639479838311672210693359375">
        <ele>893.20001220703125</ele>
        <time>2020-08-09T09:22:00.000Z</time>
      </trkpt>
      <trkpt lat="42.31040007434785366058349609375" lon="2.36396298743784427642822265625">
        <ele>893</ele>
        <time>2020-08-09T09:22:01.000Z</time>
      </trkpt>
      <trkpt lat="42.31056419201195240020751953125" lon="2.3640574514865875244140625">
        <ele>893.20001220703125</ele>
        <time>2020-08-09T09:22:08.000Z</time>
      </trkpt>
      <trkpt lat="42.31058858335018157958984375" lon="2.36411453224718570709228515625">
        <ele>893.20001220703125</ele>
        <time>2020-08-09T09:22:10.000Z</time>
      </trkpt>
      <trkpt lat="42.31057978235185146331787109375" lon="2.36417789943516254425048828125">
        <ele>893.20001220703125</ele>
        <time>2020-08-09T09:22:12.000Z</time>
      </trkpt>
      <trkpt lat="42.31050099246203899383544921875" lon="2.36445106565952301025390625">
        <ele>893.4000244140625</ele>
        <time>2020-08-09T09:22:19.000Z</time>
      </trkpt>
      <trkpt lat="42.3104254715144634246826171875" lon="2.364799082279205322265625">
        <ele>893.5999755859375</ele>
        <time>2020-08-09T09:22:27.000Z</time>
      </trkpt>
      <trkpt lat="42.31039814651012420654296875" lon="2.365216501057147979736328125">
        <ele>893.79998779296875</ele>
        <time>2020-08-09T09:22:36.000Z</time>
      </trkpt>
      <trkpt lat="42.31040996499359607696533203125" lon="2.365329824388027191162109375">
        <ele>893.79998779296875</ele>
        <time>2020-08-09T09:22:39.000Z</time>
      </trkpt>
      <trkpt lat="42.3104546405375003814697265625" lon="2.3653675429522991180419921875">
        <ele>893.79998779296875</ele>
        <time>2020-08-09T09:22:41.000Z</time>
      </trkpt>
      <trkpt lat="42.310575507581233978271484375" lon="2.3653725720942020416259765625">
        <ele>893.79998779296875</ele>
        <time>2020-08-09T09:22:45.000Z</time>
      </trkpt>
      <trkpt lat="42.31060333549976348876953125" lon="2.36537148244678974151611328125">
        <ele>893.79998779296875</ele>
        <time>2020-08-09T09:22:46.000Z</time>
      </trkpt>
      <trkpt lat="42.3107704706490039825439453125" lon="2.36539780162274837493896484375">
        <ele>893.79998779296875</ele>
        <time>2020-08-09T09:22:52.000Z</time>
      </trkpt>
      <trkpt lat="42.310792766511440277099609375" lon="2.3654000647366046905517578125">
        <ele>893.79998779296875</ele>
        <time>2020-08-09T09:22:53.000Z</time>
      </trkpt>
      <trkpt lat="42.31092142872512340545654296875" lon="2.36537064425647258758544921875">
        <ele>894</ele>
        <time>2020-08-09T09:22:59.000Z</time>
      </trkpt>
      <trkpt lat="42.311046905815601348876953125" lon="2.3653789423406124114990234375">
        <ele>894</ele>
        <time>2020-08-09T09:23:04.000Z</time>
      </trkpt>
      <trkpt lat="42.3111593909561634063720703125" lon="2.36538791097700595855712890625">
        <ele>894</ele>
        <time>2020-08-09T09:23:09.000Z</time>
      </trkpt>
      <trkpt lat="42.31123927049338817596435546875" lon="2.3653843067586421966552734375">
        <ele>894</ele>
        <time>2020-08-09T09:23:13.000Z</time>
      </trkpt>
      <trkpt lat="42.31132744811475276947021484375" lon="2.36541456542909145355224609375">
        <ele>894.4000244140625</ele>
        <time>2020-08-09T09:23:18.000Z</time>
      </trkpt>
      <trkpt lat="42.31140037067234516143798828125" lon="2.3654114641249179840087890625">
        <ele>894.79998779296875</ele>
        <time>2020-08-09T09:23:22.000Z</time>
      </trkpt>
      <trkpt lat="42.3114242590963840484619140625" lon="2.36540249548852443695068359375">
        <ele>894.79998779296875</ele>
        <time>2020-08-09T09:23:23.000Z</time>
      </trkpt>
      <trkpt lat="42.31152911670506000518798828125" lon="2.36534365452826023101806640625">
        <ele>895</ele>
        <time>2020-08-09T09:23:27.000Z</time>
      </trkpt>
      <trkpt lat="42.31163598597049713134765625" lon="2.3652810417115688323974609375">
        <ele>895.20001220703125</ele>
        <time>2020-08-09T09:23:32.000Z</time>
      </trkpt>
      <trkpt lat="42.31165166012942790985107421875" lon="2.36526788212358951568603515625">
        <ele>895.20001220703125</ele>
        <time>2020-08-09T09:23:33.000Z</time>
      </trkpt>
      <trkpt lat="42.311702705919742584228515625" lon="2.365222536027431488037109375">
        <ele>895.20001220703125</ele>
        <time>2020-08-09T09:23:39.000Z</time>
      </trkpt>
      <trkpt lat="42.31170170009136199951171875" lon="2.36522077582776546478271484375">
        <ele>895.20001220703125</ele>
        <time>2020-08-09T09:23:41.000Z</time>
      </trkpt>
      <trkpt lat="42.311683259904384613037109375" lon="2.36515455879271030426025390625">
        <ele>894.20001220703125</ele>
        <time>2020-08-09T10:16:59.000Z</time>
      </trkpt>
      <trkpt lat="42.31168317608535289764404296875" lon="2.36515472643077373504638671875">
        <ele>894</ele>
        <time>2020-08-09T10:17:03.000Z</time>
      </trkpt>
      <trkpt lat="42.31172382831573486328125" lon="2.36513025127351284027099609375">
        <ele>894.20001220703125</ele>
        <time>2020-08-09T10:17:07.000Z</time>
      </trkpt>
      <trkpt lat="42.31176263652741909027099609375" lon="2.36512991599738597869873046875">
        <ele>894</ele>
        <time>2020-08-09T10:17:09.000Z</time>
      </trkpt>
      <trkpt lat="42.31181703507900238037109375" lon="2.36509772948920726776123046875">
        <ele>894.20001220703125</ele>
        <time>2020-08-09T10:17:12.000Z</time>
      </trkpt>
      <trkpt lat="42.3118336312472820281982421875" lon="2.36508482135832309722900390625">
        <ele>894.20001220703125</ele>
        <time>2020-08-09T10:17:13.000Z</time>
      </trkpt>
      <trkpt lat="42.3118849284946918487548828125" lon="2.365054227411746978759765625">
        <ele>894.4000244140625</ele>
        <time>2020-08-09T10:17:17.000Z</time>
      </trkpt>
      <trkpt lat="42.311908565461635589599609375" lon="2.36506436951458454132080078125">
        <ele>894.4000244140625</ele>
        <time>2020-08-09T10:17:19.000Z</time>
      </trkpt>
      <trkpt lat="42.31200705282390117645263671875" lon="2.36506931483745574951171875">
        <ele>894.79998779296875</ele>
        <time>2020-08-09T10:17:25.000Z</time>
      </trkpt>
      <trkpt lat="42.31204510666429996490478515625" lon="2.365080378949642181396484375">
        <ele>894.79998779296875</ele>
        <time>2020-08-09T10:17:28.000Z</time>
      </trkpt>
      <trkpt lat="42.31208257377147674560546875" lon="2.3650738410651683807373046875">
        <ele>894.79998779296875</ele>
        <time>2020-08-09T10:17:30.000Z</time>
      </trkpt>
      <trkpt lat="42.31215097010135650634765625" lon="2.36506755463778972625732421875">
        <ele>894.79998779296875</ele>
        <time>2020-08-09T10:17:35.000Z</time>
      </trkpt>
      <trkpt lat="42.31216060929000377655029296875" lon="2.3650681413710117340087890625">
        <ele>894.79998779296875</ele>
        <time>2020-08-09T10:17:36.000Z</time>
      </trkpt>
      <trkpt lat="42.3122017644345760345458984375" lon="2.36505456268787384033203125">
        <ele>894.79998779296875</ele>
        <time>2020-08-09T10:17:42.000Z</time>
      </trkpt>
      <trkpt lat="42.31222883798182010650634765625" lon="2.36503846943378448486328125">
        <ele>894.79998779296875</ele>
        <time>2020-08-09T10:17:44.000Z</time>
      </trkpt>
      <trkpt lat="42.312304861843585968017578125" lon="2.36499915830790996551513671875">
        <ele>895</ele>
        <time>2020-08-09T10:17:47.000Z</time>
      </trkpt>
      <trkpt lat="42.3124466836452484130859375" lon="2.364936210215091705322265625">
        <ele>895.4000244140625</ele>
        <time>2020-08-09T10:17:54.000Z</time>
      </trkpt>
      <trkpt lat="42.31248448602855205535888671875" lon="2.36492238007485866546630859375">
        <ele>895.20001220703125</ele>
        <time>2020-08-09T10:17:59.000Z</time>
      </trkpt>
      <trkpt lat="42.31250627897679805755615234375" lon="2.36491642892360687255859375">
        <ele>895.4000244140625</ele>
        <time>2020-08-09T10:18:03.000Z</time>
      </trkpt>
      <trkpt lat="42.31250703334808349609375" lon="2.36491383053362369537353515625">
        <ele>895.5999755859375</ele>
        <time>2020-08-09T10:18:07.000Z</time>
      </trkpt>
      <trkpt lat="42.31250544078648090362548828125" lon="2.3649142496287822723388671875">
        <ele>895.5999755859375</ele>
        <time>2020-08-09T10:18:26.000Z</time>
      </trkpt>
      <trkpt lat="42.3125051893293857574462890625" lon="2.3649176023900508880615234375">
        <ele>895.4000244140625</ele>
        <time>2020-08-09T10:19:12.000Z</time>
      </trkpt>
      <trkpt lat="42.31250477023422718048095703125" lon="2.3649192787706851959228515625">
        <ele>895.4000244140625</ele>
        <time>2020-08-09T10:19:53.000Z</time>
      </trkpt>
      <trkpt lat="42.3125056922435760498046875" lon="2.36491936258971691131591796875">
        <ele>895.5999755859375</ele>
        <time>2020-08-09T10:20:40.000Z</time>
      </trkpt>
      <trkpt lat="42.312505356967449188232421875" lon="2.3649211227893829345703125">
        <ele>895.5999755859375</ele>
        <time>2020-08-09T10:21:26.000Z</time>
      </trkpt>
      <trkpt lat="42.3125056922435760498046875" lon="2.3649219609797000885009765625">
        <ele>895.5999755859375</ele>
        <time>2020-08-09T10:21:38.000Z</time>
      </trkpt>
      <trkpt lat="42.31250527314841747283935546875" lon="2.36492288298904895782470703125">
        <ele>895.4000244140625</ele>
        <time>2020-08-09T10:21:58.000Z</time>
      </trkpt>
      <trkpt lat="42.31250510551035404205322265625" lon="2.36494467593729496002197265625">
        <ele>895.5999755859375</ele>
        <time>2020-08-09T10:22:37.000Z</time>
      </trkpt>
      <trkpt lat="42.31250963173806667327880859375" lon="2.36495356075465679168701171875">
        <ele>895.5999755859375</ele>
        <time>2020-08-09T10:22:38.000Z</time>
      </trkpt>
      <trkpt lat="42.31252253986895084381103515625" lon="2.3649635352194309234619140625">
        <ele>895.5999755859375</ele>
        <time>2020-08-09T10:22:40.000Z</time>
      </trkpt>
      <trkpt lat="42.3125660419464111328125" lon="2.3649518005549907684326171875">
        <ele>895.79998779296875</ele>
        <time>2020-08-09T10:22:44.000Z</time>
      </trkpt>
      <trkpt lat="42.3126584105193614959716796875" lon="2.364929504692554473876953125">
        <ele>896</ele>
        <time>2020-08-09T10:22:52.000Z</time>
      </trkpt>
      <trkpt lat="42.3139294423162937164306640625" lon="2.36489857546985149383544921875">
        <ele>899.79998779296875</ele>
        <time>2020-08-09T10:25:04.000Z</time>
      </trkpt>
      <trkpt lat="42.3140632174909114837646484375" lon="2.3647298477590084075927734375">
        <ele>900.4000244140625</ele>
        <time>2020-08-09T10:25:11.000Z</time>
      </trkpt>
      <trkpt lat="42.31421031989157199859619140625" lon="2.36458475701510906219482421875">
        <ele>900.79998779296875</ele>
        <time>2020-08-09T10:25:16.000Z</time>
      </trkpt>
      <trkpt lat="42.31423093937337398529052734375" lon="2.3645548336207866668701171875">
        <ele>900.79998779296875</ele>
        <time>2020-08-09T10:25:17.000Z</time>
      </trkpt>
      <trkpt lat="42.31434099376201629638671875" lon="2.364376299083232879638671875">
        <ele>900.5999755859375</ele>
        <time>2020-08-09T10:25:22.000Z</time>
      </trkpt>
      <trkpt lat="42.31448222883045673370361328125" lon="2.36414001323282718658447265625">
        <ele>900.79998779296875</ele>
        <time>2020-08-09T10:25:28.000Z</time>
      </trkpt>
      <trkpt lat="42.31455766595900058746337890625" lon="2.3640574514865875244140625">
        <ele>901</ele>
        <time>2020-08-09T10:25:31.000Z</time>
      </trkpt>
      <trkpt lat="42.31463796459138393402099609375" lon="2.3639801703393459320068359375">
        <ele>901.4000244140625</ele>
        <time>2020-08-09T10:25:34.000Z</time>
      </trkpt>
      <trkpt lat="42.314763776957988739013671875" lon="2.3637880571186542510986328125">
        <ele>901.79998779296875</ele>
        <time>2020-08-09T10:25:39.000Z</time>
      </trkpt>
      <trkpt lat="42.3148821294307708740234375" lon="2.36363475210964679718017578125">
        <ele>902.4000244140625</ele>
        <time>2020-08-09T10:25:44.000Z</time>
      </trkpt>
      <trkpt lat="42.314924038946628570556640625" lon="2.36358161084353923797607421875">
        <ele>902.5999755859375</ele>
        <time>2020-08-09T10:25:46.000Z</time>
      </trkpt>
      <trkpt lat="42.31504331342875957489013671875" lon="2.36343987286090850830078125">
        <ele>903.20001220703125</ele>
        <time>2020-08-09T10:25:52.000Z</time>
      </trkpt>
      <trkpt lat="42.31509796343743801116943359375" lon="2.36326008103787899017333984375">
        <ele>903.4000244140625</ele>
        <time>2020-08-09T10:25:58.000Z</time>
      </trkpt>
      <trkpt lat="42.31510114856064319610595703125" lon="2.36325320787727832794189453125">
        <ele>903.4000244140625</ele>
        <time>2020-08-09T10:26:00.000Z</time>
      </trkpt>
      <trkpt lat="42.31510366313159465789794921875" lon="2.36324985511600971221923828125">
        <ele>903.4000244140625</ele>
        <time>2020-08-09T10:26:03.000Z</time>
      </trkpt>
      <trkpt lat="42.31510542333126068115234375" lon="2.36325169913470745086669921875">
        <ele>903.4000244140625</ele>
        <time>2020-08-09T10:26:16.000Z</time>
      </trkpt>
      <trkpt lat="42.31510542333126068115234375" lon="2.3632516153156757354736328125">
        <ele>903.4000244140625</ele>
        <time>2020-08-09T10:26:18.000Z</time>
      </trkpt>
      <trkpt lat="42.31510500423610210418701171875" lon="2.36325077712535858154296875">
        <ele>903.4000244140625</ele>
        <time>2020-08-09T10:26:40.000Z</time>
      </trkpt>
      <trkpt lat="42.31509997509419918060302734375" lon="2.36324935220181941986083984375">
        <ele>903.4000244140625</ele>
        <time>2020-08-09T10:27:06.000Z</time>
      </trkpt>
      <trkpt lat="42.31509528122842311859130859375" lon="2.3632455803453922271728515625">
        <ele>903.4000244140625</ele>
        <time>2020-08-09T10:27:16.000Z</time>
      </trkpt>
      <trkpt lat="42.3150962032377719879150390625" lon="2.36324541270732879638671875">
        <ele>903.5999755859375</ele>
        <time>2020-08-09T10:27:46.000Z</time>
      </trkpt>
      <trkpt lat="42.3150962032377719879150390625" lon="2.363245077431201934814453125">
        <ele>903.5999755859375</ele>
        <time>2020-08-09T10:28:15.000Z</time>
      </trkpt>
      <trkpt lat="42.31509628705680370330810546875" lon="2.3632455803453922271728515625">
        <ele>903.79998779296875</ele>
        <time>2020-08-09T10:28:29.000Z</time>
      </trkpt>
      <trkpt lat="42.315113805234432220458984375" lon="2.36322353594005107879638671875">
        <ele>903.5999755859375</ele>
        <time>2020-08-09T10:28:34.000Z</time>
      </trkpt>
      <trkpt lat="42.31518714688718318939208984375" lon="2.363099567592144012451171875">
        <ele>904</ele>
        <time>2020-08-09T10:28:39.000Z</time>
      </trkpt>
      <trkpt lat="42.31525696814060211181640625" lon="2.36293293535709381103515625">
        <ele>904</ele>
        <time>2020-08-09T10:28:44.000Z</time>
      </trkpt>
      <trkpt lat="42.31533533893525600433349609375" lon="2.362748868763446807861328125">
        <ele>904.20001220703125</ele>
        <time>2020-08-09T10:28:49.000Z</time>
      </trkpt>
      <trkpt lat="42.31542519293725490570068359375" lon="2.3625612817704677581787109375">
        <ele>904.5999755859375</ele>
        <time>2020-08-09T10:28:54.000Z</time>
      </trkpt>
      <trkpt lat="42.3155370913445949554443359375" lon="2.36228710971772670745849609375">
        <ele>905</ele>
        <time>2020-08-09T10:29:01.000Z</time>
      </trkpt>
      <trkpt lat="42.315648905932903289794921875" lon="2.36206498928368091583251953125">
        <ele>905.20001220703125</ele>
        <time>2020-08-09T10:29:07.000Z</time>
      </trkpt>
      <trkpt lat="42.31577823869884014129638671875" lon="2.3618929088115692138671875">
        <ele>905.79998779296875</ele>
        <time>2020-08-09T10:29:13.000Z</time>
      </trkpt>
      <trkpt lat="42.3157711140811443328857421875" lon="2.36173708923161029815673828125">
        <ele>906</ele>
        <time>2020-08-09T10:29:17.000Z</time>
      </trkpt>
      <trkpt lat="42.31575074605643749237060546875" lon="2.361449338495731353759765625">
        <ele>905.79998779296875</ele>
        <time>2020-08-09T10:29:23.000Z</time>
      </trkpt>
      <trkpt lat="42.31574169360101222991943359375" lon="2.36113660968840122222900390625">
        <ele>906</ele>
        <time>2020-08-09T10:29:31.000Z</time>
      </trkpt>
      <trkpt lat="42.315761558711528778076171875" lon="2.36096226610243320465087890625">
        <ele>906.4000244140625</ele>
        <time>2020-08-09T10:29:37.000Z</time>
      </trkpt>
      <trkpt lat="42.31576985679566860198974609375" lon="2.36078205518424510955810546875">
        <ele>906.4000244140625</ele>
        <time>2020-08-09T10:29:42.000Z</time>
      </trkpt>
      <trkpt lat="42.3157697729766368865966796875" lon="2.3607464320957660675048828125">
        <ele>906.5999755859375</ele>
        <time>2020-08-09T10:29:43.000Z</time>
      </trkpt>
      <trkpt lat="42.3157768137753009796142578125" lon="2.36059832386672496795654296875">
        <ele>906.5999755859375</ele>
        <time>2020-08-09T10:29:47.000Z</time>
      </trkpt>
      <trkpt lat="42.31579332612454891204833984375" lon="2.36039782874286174774169921875">
        <ele>906.5999755859375</ele>
        <time>2020-08-09T10:29:52.000Z</time>
      </trkpt>
      <trkpt lat="42.31582224369049072265625" lon="2.36015257425606250762939453125">
        <ele>907</ele>
        <time>2020-08-09T10:29:58.000Z</time>
      </trkpt>
      <trkpt lat="42.3158442042768001556396484375" lon="2.35988552682101726531982421875">
        <ele>907.5999755859375</ele>
        <time>2020-08-09T10:30:04.000Z</time>
      </trkpt>
      <trkpt lat="42.3158705234527587890625" lon="2.3595974408090114593505859375">
        <ele>907.5999755859375</ele>
        <time>2020-08-09T10:30:10.000Z</time>
      </trkpt>
      <trkpt lat="42.31589089147746562957763671875" lon="2.359356544911861419677734375">
        <ele>907.79998779296875</ele>
        <time>2020-08-09T10:30:15.000Z</time>
      </trkpt>
      <trkpt lat="42.31590413488447666168212890625" lon="2.35921648330986499786376953125">
        <ele>908.20001220703125</ele>
        <time>2020-08-09T10:30:18.000Z</time>
      </trkpt>
      <trkpt lat="42.3159239999949932098388671875" lon="2.35909561626613140106201171875">
        <ele>908.5999755859375</ele>
        <time>2020-08-09T10:30:21.000Z</time>
      </trkpt>
      <trkpt lat="42.31596750207245349884033203125" lon="2.35882488079369068145751953125">
        <ele>908.79998779296875</ele>
        <time>2020-08-09T10:30:27.000Z</time>
      </trkpt>
      <trkpt lat="42.31601611711084842681884765625" lon="2.35864819027483463287353515625">
        <ele>909.4000244140625</ele>
        <time>2020-08-09T10:30:32.000Z</time>
      </trkpt>
      <trkpt lat="42.31606699526309967041015625" lon="2.35841500572860240936279296875">
        <ele>909.5999755859375</ele>
        <time>2020-08-09T10:30:38.000Z</time>
      </trkpt>
      <trkpt lat="42.31610865332186222076416015625" lon="2.3582585155963897705078125">
        <ele>909.79998779296875</ele>
        <time>2020-08-09T10:30:42.000Z</time>
      </trkpt>
      <trkpt lat="42.31612608768045902252197265625" lon="2.35819037072360515594482421875">
        <ele>910.20001220703125</ele>
        <time>2020-08-09T10:30:44.000Z</time>
      </trkpt>
      <trkpt lat="42.3162032850086688995361328125" lon="2.35798828303813934326171875">
        <ele>910.79998779296875</ele>
        <time>2020-08-09T10:30:50.000Z</time>
      </trkpt>
      <trkpt lat="42.316234298050403594970703125" lon="2.3578722774982452392578125">
        <ele>911.20001220703125</ele>
        <time>2020-08-09T10:30:54.000Z</time>
      </trkpt>
      <trkpt lat="42.3162351362407207489013671875" lon="2.357786782085895538330078125">
        <ele>911.20001220703125</ele>
        <time>2020-08-09T10:30:57.000Z</time>
      </trkpt>
      <trkpt lat="42.316227257251739501953125" lon="2.35774495638906955718994140625">
        <ele>911.4000244140625</ele>
        <time>2020-08-09T10:30:59.000Z</time>
      </trkpt>
      <trkpt lat="42.31624108739197254180908203125" lon="2.35769717954099178314208984375">
        <ele>911.20001220703125</ele>
        <time>2020-08-09T10:31:01.000Z</time>
      </trkpt>
      <trkpt lat="42.3162676580250263214111328125" lon="2.3576162941753864288330078125">
        <ele>911.4000244140625</ele>
        <time>2020-08-09T10:31:04.000Z</time>
      </trkpt>
      <trkpt lat="42.31628366746008396148681640625" lon="2.35755912959575653076171875">
        <ele>911.5999755859375</ele>
        <time>2020-08-09T10:31:06.000Z</time>
      </trkpt>
      <trkpt lat="42.31632373295724391937255859375" lon="2.3573738895356655120849609375">
        <ele>911.79998779296875</ele>
        <time>2020-08-09T10:31:11.000Z</time>
      </trkpt>
      <trkpt lat="42.31639824807643890380859375" lon="2.357149422168731689453125">
        <ele>912.5999755859375</ele>
        <time>2020-08-09T10:31:17.000Z</time>
      </trkpt>
      <trkpt lat="42.3164661414921283721923828125" lon="2.35694934614002704620361328125">
        <ele>912.5999755859375</ele>
        <time>2020-08-09T10:31:22.000Z</time>
      </trkpt>
      <trkpt lat="42.3165182769298553466796875" lon="2.3568099550902843475341796875">
        <ele>912.79998779296875</ele>
        <time>2020-08-09T10:31:26.000Z</time>
      </trkpt>
      <trkpt lat="42.31654367409646511077880859375" lon="2.356740720570087432861328125">
        <ele>913.20001220703125</ele>
        <time>2020-08-09T10:31:28.000Z</time>
      </trkpt>
      <trkpt lat="42.31658876873552799224853515625" lon="2.35669001005589962005615234375">
        <ele>913.20001220703125</ele>
        <time>2020-08-09T10:31:30.000Z</time>
      </trkpt>
      <trkpt lat="42.31661575846374034881591796875" lon="2.35667760483920574188232421875">
        <ele>913.20001220703125</ele>
        <time>2020-08-09T10:31:31.000Z</time>
      </trkpt>
      <trkpt lat="42.316710054874420166015625" lon="2.35668866895139217376708984375">
        <ele>913.5999755859375</ele>
        <time>2020-08-09T10:31:34.000Z</time>
      </trkpt>
      <trkpt lat="42.31684575788676738739013671875" lon="2.35671616159379482269287109375">
        <ele>914</ele>
        <time>2020-08-09T10:31:39.000Z</time>
      </trkpt>
      <trkpt lat="42.31696109287440776824951171875" lon="2.356756813824176788330078125">
        <ele>914.4000244140625</ele>
        <time>2020-08-09T10:31:44.000Z</time>
      </trkpt>
      <trkpt lat="42.3170082829892635345458984375" lon="2.3567801155149936676025390625">
        <ele>914.79998779296875</ele>
        <time>2020-08-09T10:31:46.000Z</time>
      </trkpt>
      <trkpt lat="42.3171028308570384979248046875" lon="2.3568237014114856719970703125">
        <ele>915.4000244140625</ele>
        <time>2020-08-09T10:31:50.000Z</time>
      </trkpt>
      <trkpt lat="42.3172097839415073394775390625" lon="2.3568719811737537384033203125">
        <ele>916</ele>
        <time>2020-08-09T10:31:54.000Z</time>
      </trkpt>
      <trkpt lat="42.31725730933248996734619140625" lon="2.35688128508627414703369140625">
        <ele>916</ele>
        <time>2020-08-09T10:31:56.000Z</time>
      </trkpt>
      <trkpt lat="42.31738320551812648773193359375" lon="2.3569132201373577117919921875">
        <ele>916.5999755859375</ele>
        <time>2020-08-09T10:32:02.000Z</time>
      </trkpt>
      <trkpt lat="42.31742016971111297607421875" lon="2.35692554153501987457275390625">
        <ele>917</ele>
        <time>2020-08-09T10:32:08.000Z</time>
      </trkpt>
      <trkpt lat="42.3174196667969226837158203125" lon="2.35692612826824188232421875">
        <ele>917.20001220703125</ele>
        <time>2020-08-09T10:32:10.000Z</time>
      </trkpt>
      <trkpt lat="42.317449338734149932861328125" lon="2.35691162757575511932373046875">
        <ele>917.20001220703125</ele>
        <time>2020-08-09T10:32:12.000Z</time>
      </trkpt>
      <trkpt lat="42.31746735982596874237060546875" lon="2.356898300349712371826171875">
        <ele>917.20001220703125</ele>
        <time>2020-08-09T10:32:13.000Z</time>
      </trkpt>
      <trkpt lat="42.317537851631641387939453125" lon="2.35675178468227386474609375">
        <ele>917.4000244140625</ele>
        <time>2020-08-09T10:32:18.000Z</time>
      </trkpt>
      <trkpt lat="42.31759945861995220184326171875" lon="2.35645984299480915069580078125">
        <ele>917.5999755859375</ele>
        <time>2020-08-09T10:32:25.000Z</time>
      </trkpt>
      <trkpt lat="42.31765561737120151519775390625" lon="2.35609724186360836029052734375">
        <ele>917.79998779296875</ele>
        <time>2020-08-09T10:32:33.000Z</time>
      </trkpt>
      <trkpt lat="42.3177240975201129913330078125" lon="2.35564445145428180694580078125">
        <ele>918</ele>
        <time>2020-08-09T10:32:42.000Z</time>
      </trkpt>
      <trkpt lat="42.31782174669206142425537109375" lon="2.35506174154579639434814453125">
        <ele>918.4000244140625</ele>
        <time>2020-08-09T10:32:54.000Z</time>
      </trkpt>
      <trkpt lat="42.31790975667536258697509765625" lon="2.3544459231197834014892578125">
        <ele>918.4000244140625</ele>
        <time>2020-08-09T10:33:06.000Z</time>
      </trkpt>
      <trkpt lat="42.3179440386593341827392578125" lon="2.35408323816955089569091796875">
        <ele>918.4000244140625</ele>
        <time>2020-08-09T10:33:14.000Z</time>
      </trkpt>
      <trkpt lat="42.31789031066000461578369140625" lon="2.35387419350445270538330078125">
        <ele>918.79998779296875</ele>
        <time>2020-08-09T10:33:19.000Z</time>
      </trkpt>
      <trkpt lat="42.31792869977653026580810546875" lon="2.3535249195992946624755859375">
        <ele>918.5999755859375</ele>
        <time>2020-08-09T10:33:26.000Z</time>
      </trkpt>
      <trkpt lat="42.31798745691776275634765625" lon="2.35315494239330291748046875">
        <ele>919.20001220703125</ele>
        <time>2020-08-09T10:33:34.000Z</time>
      </trkpt>
      <trkpt lat="42.3179973475635051727294921875" lon="2.35311068594455718994140625">
        <ele>919.4000244140625</ele>
        <time>2020-08-09T10:33:35.000Z</time>
      </trkpt>
      <trkpt lat="42.31813388876616954803466796875" lon="2.352657057344913482666015625">
        <ele>919.79998779296875</ele>
        <time>2020-08-09T10:33:45.000Z</time>
      </trkpt>
      <trkpt lat="42.31827118434011936187744140625" lon="2.352343238890171051025390625">
        <ele>920</ele>
        <time>2020-08-09T10:33:53.000Z</time>
      </trkpt>
      <trkpt lat="42.31835802085697650909423828125" lon="2.352136038243770599365234375">
        <ele>920.4000244140625</ele>
        <time>2020-08-09T10:33:58.000Z</time>
      </trkpt>
      <trkpt lat="42.3184436000883579254150390625" lon="2.35193378292024135589599609375">
        <ele>920.79998779296875</ele>
        <time>2020-08-09T10:34:03.000Z</time>
      </trkpt>
      <trkpt lat="42.31858022511005401611328125" lon="2.35161543823778629302978515625">
        <ele>921.5999755859375</ele>
        <time>2020-08-09T10:34:11.000Z</time>
      </trkpt>
      <trkpt lat="42.31863060034811496734619140625" lon="2.35149524174630641937255859375">
        <ele>921.79998779296875</ele>
        <time>2020-08-09T10:34:14.000Z</time>
      </trkpt>
      <trkpt lat="42.3188107274472713470458984375" lon="2.35105770640075206756591796875">
        <ele>922.5999755859375</ele>
        <time>2020-08-09T10:34:25.000Z</time>
      </trkpt>
      <trkpt lat="42.31882606633007526397705078125" lon="2.3510170541703701019287109375">
        <ele>922.5999755859375</ele>
        <time>2020-08-09T10:34:26.000Z</time>
      </trkpt>
      <trkpt lat="42.31897358782589435577392578125" lon="2.35067264176905155181884765625">
        <ele>923.4000244140625</ele>
        <time>2020-08-09T10:34:35.000Z</time>
      </trkpt>
      <trkpt lat="42.31903460808098316192626953125" lon="2.350520677864551544189453125">
        <ele>923.79998779296875</ele>
        <time>2020-08-09T10:34:39.000Z</time>
      </trkpt>
      <trkpt lat="42.319092862308025360107421875" lon="2.35037273727357387542724609375">
        <ele>924</ele>
        <time>2020-08-09T10:34:43.000Z</time>
      </trkpt>
      <trkpt lat="42.31921833939850330352783203125" lon="2.35008674673736095428466796875">
        <ele>924.79998779296875</ele>
        <time>2020-08-09T10:34:51.000Z</time>
      </trkpt>
      <trkpt lat="42.31925304047763347625732421875" lon="2.34997509978711605072021484375">
        <ele>925.20001220703125</ele>
        <time>2020-08-09T10:34:54.000Z</time>
      </trkpt>
      <trkpt lat="42.31927835382521152496337890625" lon="2.3498801328241825103759765625">
        <ele>925.5999755859375</ele>
        <time>2020-08-09T10:34:57.000Z</time>
      </trkpt>
      <trkpt lat="42.3193270526826381683349609375" lon="2.34969849698245525360107421875">
        <ele>926</ele>
        <time>2020-08-09T10:35:04.000Z</time>
      </trkpt>
      <trkpt lat="42.319349013268947601318359375" lon="2.349499762058258056640625">
        <ele>926</ele>
        <time>2020-08-09T10:35:10.000Z</time>
      </trkpt>
      <trkpt lat="42.3193575628101825714111328125" lon="2.34946128912270069122314453125">
        <ele>926.20001220703125</ele>
        <time>2020-08-09T10:35:11.000Z</time>
      </trkpt>
      <trkpt lat="42.3194162361323833465576171875" lon="2.34917362220585346221923828125">
        <ele>927</ele>
        <time>2020-08-09T10:35:18.000Z</time>
      </trkpt>
      <trkpt lat="42.3194641806185245513916015625" lon="2.348918057978153228759765625">
        <ele>927.4000244140625</ele>
        <time>2020-08-09T10:35:24.000Z</time>
      </trkpt>
      <trkpt lat="42.319483794271945953369140625" lon="2.34883180819451808929443359375">
        <ele>927.5999755859375</ele>
        <time>2020-08-09T10:35:26.000Z</time>
      </trkpt>
      <trkpt lat="42.31958798132836818695068359375" lon="2.34848697669804096221923828125">
        <ele>928.4000244140625</ele>
        <time>2020-08-09T10:35:34.000Z</time>
      </trkpt>
      <trkpt lat="42.31964061968028545379638671875" lon="2.34830391593277454376220703125">
        <ele>928.5999755859375</ele>
        <time>2020-08-09T10:35:38.000Z</time>
      </trkpt>
      <trkpt lat="42.319715805351734161376953125" lon="2.348029911518096923828125">
        <ele>929</ele>
        <time>2020-08-09T10:35:44.000Z</time>
      </trkpt>
      <trkpt lat="42.3198054917156696319580078125" lon="2.3477227985858917236328125">
        <ele>929.79998779296875</ele>
        <time>2020-08-09T10:35:51.000Z</time>
      </trkpt>
      <trkpt lat="42.31982049532234668731689453125" lon="2.34768382273614406585693359375">
        <ele>929.79998779296875</ele>
        <time>2020-08-09T10:35:52.000Z</time>
      </trkpt>
      <trkpt lat="42.31989928521215915679931640625" lon="2.34746396541595458984375">
        <ele>930.79998779296875</ele>
        <time>2020-08-09T10:35:58.000Z</time>
      </trkpt>
      <trkpt lat="42.31995217502117156982421875" lon="2.34735240228474140167236328125">
        <ele>931</ele>
        <time>2020-08-09T10:36:01.000Z</time>
      </trkpt>
      <trkpt lat="42.32002803124487400054931640625" lon="2.34721359796822071075439453125">
        <ele>931</ele>
        <time>2020-08-09T10:36:05.000Z</time>
      </trkpt>
      <trkpt lat="42.3201400972902774810791015625" lon="2.34702475368976593017578125">
        <ele>931.4000244140625</ele>
        <time>2020-08-09T10:36:11.000Z</time>
      </trkpt>
      <trkpt lat="42.32027881778776645660400390625" lon="2.34676449559628963470458984375">
        <ele>932</ele>
        <time>2020-08-09T10:36:19.000Z</time>
      </trkpt>
      <trkpt lat="42.32041276060044765472412109375" lon="2.3465251922607421875">
        <ele>932.5999755859375</ele>
        <time>2020-08-09T10:36:26.000Z</time>
      </trkpt>
      <trkpt lat="42.3204844258725643157958984375" lon="2.34639669768512248992919921875">
        <ele>933</ele>
        <time>2020-08-09T10:36:30.000Z</time>
      </trkpt>
      <trkpt lat="42.3205737769603729248046875" lon="2.34624029137194156646728515625">
        <ele>933</ele>
        <time>2020-08-09T10:36:35.000Z</time>
      </trkpt>
      <trkpt lat="42.32068031094968318939208984375" lon="2.346029989421367645263671875">
        <ele>933.5999755859375</ele>
        <time>2020-08-09T10:36:42.000Z</time>
      </trkpt>
      <trkpt lat="42.32081358321011066436767578125" lon="2.34579571522772312164306640625">
        <ele>934</ele>
        <time>2020-08-09T10:36:50.000Z</time>
      </trkpt>
      <trkpt lat="42.3208237253129482269287109375" lon="2.34577090479433536529541015625">
        <ele>934.20001220703125</ele>
        <time>2020-08-09T10:36:51.000Z</time>
      </trkpt>
      <trkpt lat="42.320819534361362457275390625" lon="2.34564115293323993682861328125">
        <ele>934.5999755859375</ele>
        <time>2020-08-09T10:36:55.000Z</time>
      </trkpt>
      <trkpt lat="42.320731021463871002197265625" lon="2.34532129950821399688720703125">
        <ele>934.5999755859375</ele>
        <time>2020-08-09T10:37:04.000Z</time>
      </trkpt>
      <trkpt lat="42.320674024522304534912109375" lon="2.34508090652525424957275390625">
        <ele>935</ele>
        <time>2020-08-09T10:37:11.000Z</time>
      </trkpt>
      <trkpt lat="42.32059330679476261138916015625" lon="2.34489130787551403045654296875">
        <ele>935.20001220703125</ele>
        <time>2020-08-09T10:37:17.000Z</time>
      </trkpt>
      <trkpt lat="42.32047797180712223052978515625" lon="2.3447262682020664215087890625">
        <ele>935.4000244140625</ele>
        <time>2020-08-09T10:37:24.000Z</time>
      </trkpt>
      <trkpt lat="42.32047076337039470672607421875" lon="2.34469659626483917236328125">
        <ele>935.5999755859375</ele>
        <time>2020-08-09T10:37:25.000Z</time>
      </trkpt>
      <trkpt lat="42.3203942365944385528564453125" lon="2.344531975686550140380859375">
        <ele>935.5999755859375</ele>
        <time>2020-08-09T10:37:30.000Z</time>
      </trkpt>
      <trkpt lat="42.32028971426188945770263671875" lon="2.34430306591093540191650390625">
        <ele>936</ele>
        <time>2020-08-09T10:37:37.000Z</time>
      </trkpt>
      <trkpt lat="42.32032257132232189178466796875" lon="2.344113551080226898193359375">
        <ele>936.5999755859375</ele>
        <time>2020-08-09T10:37:42.000Z</time>
      </trkpt>
      <trkpt lat="42.32040504924952983856201171875" lon="2.34388765878975391387939453125">
        <ele>937.4000244140625</ele>
        <time>2020-08-09T10:37:49.000Z</time>
      </trkpt>
      <trkpt lat="42.32040957547724246978759765625" lon="2.34385513700544834136962890625">
        <ele>937.5999755859375</ele>
        <time>2020-08-09T10:37:50.000Z</time>
      </trkpt>
      <trkpt lat="42.32040756382048130035400390625" lon="2.3437009938061237335205078125">
        <ele>938.5999755859375</ele>
        <time>2020-08-09T10:37:55.000Z</time>
      </trkpt>
      <trkpt lat="42.32040588743984699249267578125" lon="2.343668304383754730224609375">
        <ele>938.79998779296875</ele>
        <time>2020-08-09T10:37:56.000Z</time>
      </trkpt>
      <trkpt lat="42.32035190798342227935791015625" lon="2.3433990776538848876953125">
        <ele>940</ele>
        <time>2020-08-09T10:38:04.000Z</time>
      </trkpt>
      <trkpt lat="42.3202990181744098663330078125" lon="2.343164049088954925537109375">
        <ele>940.79998779296875</ele>
        <time>2020-08-09T10:38:11.000Z</time>
      </trkpt>
      <trkpt lat="42.3202916420996189117431640625" lon="2.343131862580776214599609375">
        <ele>941</ele>
        <time>2020-08-09T10:38:12.000Z</time>
      </trkpt>
      <trkpt lat="42.32022785581648349761962890625" lon="2.3428514041006565093994140625">
        <ele>941.79998779296875</ele>
        <time>2020-08-09T10:38:20.000Z</time>
      </trkpt>
      <trkpt lat="42.32020874507725238800048828125" lon="2.34277881681919097900390625">
        <ele>942</ele>
        <time>2020-08-09T10:38:22.000Z</time>
      </trkpt>
      <trkpt lat="42.32013951055705547332763671875" lon="2.342488132417201995849609375">
        <ele>942.5999755859375</ele>
        <time>2020-08-09T10:38:30.000Z</time>
      </trkpt>
      <trkpt lat="42.3201285302639007568359375" lon="2.34224363230168819427490234375">
        <ele>943</ele>
        <time>2020-08-09T10:38:36.000Z</time>
      </trkpt>
      <trkpt lat="42.32013314031064510345458984375" lon="2.34211631119251251220703125">
        <ele>943</ele>
        <time>2020-08-09T10:38:39.000Z</time>
      </trkpt>
      <trkpt lat="42.3201473057270050048828125" lon="2.342032827436923980712890625">
        <ele>943.20001220703125</ele>
        <time>2020-08-09T10:38:41.000Z</time>
      </trkpt>
      <trkpt lat="42.32017421163618564605712890625" lon="2.34195780940353870391845703125">
        <ele>943</ele>
        <time>2020-08-09T10:38:43.000Z</time>
      </trkpt>
      <trkpt lat="42.320303879678249359130859375" lon="2.3417937755584716796875">
        <ele>943.5999755859375</ele>
        <time>2020-08-09T10:38:49.000Z</time>
      </trkpt>
      <trkpt lat="42.3203878663480281829833984375" lon="2.3416824638843536376953125">
        <ele>944.20001220703125</ele>
        <time>2020-08-09T10:38:53.000Z</time>
      </trkpt>
      <trkpt lat="42.32042952440679073333740234375" lon="2.3415770195424556732177734375">
        <ele>944.4000244140625</ele>
        <time>2020-08-09T10:38:56.000Z</time>
      </trkpt>
      <trkpt lat="42.320515103638172149658203125" lon="2.34118600375950336456298828125">
        <ele>944.5999755859375</ele>
        <time>2020-08-09T10:39:06.000Z</time>
      </trkpt>
      <trkpt lat="42.3205940611660480499267578125" lon="2.340767495334148406982421875">
        <ele>945.4000244140625</ele>
        <time>2020-08-09T10:39:16.000Z</time>
      </trkpt>
      <trkpt lat="42.320605628192424774169921875" lon="2.34067596495151519775390625">
        <ele>945.4000244140625</ele>
        <time>2020-08-09T10:39:18.000Z</time>
      </trkpt>
      <trkpt lat="42.32066673226654529571533203125" lon="2.34027505852282047271728515625">
        <ele>946</ele>
        <time>2020-08-09T10:39:27.000Z</time>
      </trkpt>
      <trkpt lat="42.32071316801011562347412109375" lon="2.3400557041168212890625">
        <ele>946.5999755859375</ele>
        <time>2020-08-09T10:39:32.000Z</time>
      </trkpt>
      <trkpt lat="42.32079438865184783935546875" lon="2.33980399556457996368408203125">
        <ele>946.79998779296875</ele>
        <time>2020-08-09T10:39:38.000Z</time>
      </trkpt>
      <trkpt lat="42.32095020823180675506591796875" lon="2.339500486850738525390625">
        <ele>947.5999755859375</ele>
        <time>2020-08-09T10:39:46.000Z</time>
      </trkpt>
      <trkpt lat="42.3210188560187816619873046875" lon="2.33940057456493377685546875">
        <ele>947.79998779296875</ele>
        <time>2020-08-09T10:39:49.000Z</time>
      </trkpt>
      <trkpt lat="42.32119780965149402618408203125" lon="2.3391918651759624481201171875">
        <ele>948.4000244140625</ele>
        <time>2020-08-09T10:39:56.000Z</time>
      </trkpt>
      <trkpt lat="42.3213387094438076019287109375" lon="2.33905582688748836517333984375">
        <ele>948.79998779296875</ele>
        <time>2020-08-09T10:40:01.000Z</time>
      </trkpt>
      <trkpt lat="42.32139428146183490753173828125" lon="2.3390014283359050750732421875">
        <ele>948.79998779296875</ele>
        <time>2020-08-09T10:40:03.000Z</time>
      </trkpt>
      <trkpt lat="42.32166719622910022735595703125" lon="2.33872256241738796234130859375">
        <ele>949.5999755859375</ele>
        <time>2020-08-09T10:40:13.000Z</time>
      </trkpt>
      <trkpt lat="42.32174347154796123504638671875" lon="2.33862684108316898345947265625">
        <ele>949.79998779296875</ele>
        <time>2020-08-09T10:40:16.000Z</time>
      </trkpt>
      <trkpt lat="42.32182561419904232025146484375" lon="2.338478565216064453125">
        <ele>950</ele>
        <time>2020-08-09T10:40:20.000Z</time>
      </trkpt>
      <trkpt lat="42.32196207158267498016357421875" lon="2.33815259300172328948974609375">
        <ele>950.4000244140625</ele>
        <time>2020-08-09T10:40:28.000Z</time>
      </trkpt>
      <trkpt lat="42.3220793344080448150634765625" lon="2.33791789971292018890380859375">
        <ele>950.79998779296875</ele>
        <time>2020-08-09T10:40:34.000Z</time>
      </trkpt>
      <trkpt lat="42.32217044569551944732666015625" lon="2.3377699591219425201416015625">
        <ele>951.20001220703125</ele>
        <time>2020-08-09T10:40:38.000Z</time>
      </trkpt>
      <trkpt lat="42.3224191367626190185546875" lon="2.3374286480247974395751953125">
        <ele>951.20001220703125</ele>
        <time>2020-08-09T10:40:47.000Z</time>
      </trkpt>
      <trkpt lat="42.32257001101970672607421875" lon="2.33714617788791656494140625">
        <ele>951.5999755859375</ele>
        <time>2020-08-09T10:40:54.000Z</time>
      </trkpt>
      <trkpt lat="42.322682999074459075927734375" lon="2.33674627728760242462158203125">
        <ele>951.79998779296875</ele>
        <time>2020-08-09T10:41:02.000Z</time>
      </trkpt>
      <trkpt lat="42.3227998428046703338623046875" lon="2.33631209470331668853759765625">
        <ele>952</ele>
        <time>2020-08-09T10:41:11.000Z</time>
      </trkpt>
      <trkpt lat="42.32282004319131374359130859375" lon="2.3362179659307003021240234375">
        <ele>952.20001220703125</ele>
        <time>2020-08-09T10:41:13.000Z</time>
      </trkpt>
      <trkpt lat="42.32290620915591716766357421875" lon="2.3358525149524211883544921875">
        <ele>953</ele>
        <time>2020-08-09T10:41:21.000Z</time>
      </trkpt>
      <trkpt lat="42.32298483140766620635986328125" lon="2.33558437786996364593505859375">
        <ele>953</ele>
        <time>2020-08-09T10:41:27.000Z</time>
      </trkpt>
      <trkpt lat="42.323028333485126495361328125" lon="2.3354461602866649627685546875">
        <ele>953.5999755859375</ele>
        <time>2020-08-09T10:41:30.000Z</time>
      </trkpt>
      <trkpt lat="42.32314744032919406890869140625" lon="2.33501625247299671173095703125">
        <ele>953.5999755859375</ele>
        <time>2020-08-09T10:41:39.000Z</time>
      </trkpt>
      <trkpt lat="42.32329462654888629913330078125" lon="2.33456932939589023590087890625">
        <ele>953.79998779296875</ele>
        <time>2020-08-09T10:41:48.000Z</time>
      </trkpt>
      <trkpt lat="42.323517836630344390869140625" lon="2.334159202873706817626953125">
        <ele>954</ele>
        <time>2020-08-09T10:41:58.000Z</time>
      </trkpt>
      <trkpt lat="42.32353962957859039306640625" lon="2.3341201432049274444580078125">
        <ele>954.20001220703125</ele>
        <time>2020-08-09T10:41:59.000Z</time>
      </trkpt>
      <trkpt lat="42.32356184162199497222900390625" lon="2.334082089364528656005859375">
        <ele>954.4000244140625</ele>
        <time>2020-08-09T10:42:00.000Z</time>
      </trkpt>
      <trkpt lat="42.32375420629978179931640625" lon="2.33375050127506256103515625">
        <ele>955.20001220703125</ele>
        <time>2020-08-09T10:42:09.000Z</time>
      </trkpt>
      <trkpt lat="42.32381413690745830535888671875" lon="2.33364715240895748138427734375">
        <ele>955.4000244140625</ele>
        <time>2020-08-09T10:42:12.000Z</time>
      </trkpt>
      <trkpt lat="42.32389259152114391326904296875" lon="2.333516813814640045166015625">
        <ele>955.79998779296875</ele>
        <time>2020-08-09T10:42:16.000Z</time>
      </trkpt>
      <trkpt lat="42.32397205196321010589599609375" lon="2.33337926678359508514404296875">
        <ele>956.5999755859375</ele>
        <time>2020-08-09T10:42:20.000Z</time>
      </trkpt>
      <trkpt lat="42.32406659983098506927490234375" lon="2.333213724195957183837890625">
        <ele>957.5999755859375</ele>
        <time>2020-08-09T10:42:25.000Z</time>
      </trkpt>
      <trkpt lat="42.32410247437655925750732421875" lon="2.333150021731853485107421875">
        <ele>958</ele>
        <time>2020-08-09T10:42:27.000Z</time>
      </trkpt>
      <trkpt lat="42.32422887347638607025146484375" lon="2.33292630873620510101318359375">
        <ele>959</ele>
        <time>2020-08-09T10:42:34.000Z</time>
      </trkpt>
      <trkpt lat="42.32424630783498287200927734375" lon="2.33289278112351894378662109375">
        <ele>959</ele>
        <time>2020-08-09T10:42:35.000Z</time>
      </trkpt>
      <trkpt lat="42.3243424482643604278564453125" lon="2.3326878435909748077392578125">
        <ele>960</ele>
        <time>2020-08-09T10:42:41.000Z</time>
      </trkpt>
      <trkpt lat="42.32439466752111911773681640625" lon="2.33254484832286834716796875">
        <ele>960.5999755859375</ele>
        <time>2020-08-09T10:42:45.000Z</time>
      </trkpt>
      <trkpt lat="42.32444621622562408447265625" lon="2.3323579318821430206298828125">
        <ele>961.20001220703125</ele>
        <time>2020-08-09T10:42:50.000Z</time>
      </trkpt>
      <trkpt lat="42.3244715295732021331787109375" lon="2.33220311813056468963623046875">
        <ele>961.4000244140625</ele>
        <time>2020-08-09T10:42:54.000Z</time>
      </trkpt>
      <trkpt lat="42.32446960173547267913818359375" lon="2.3318674229085445404052734375">
        <ele>962</ele>
        <time>2020-08-09T10:43:02.000Z</time>
      </trkpt>
      <trkpt lat="42.32446356676518917083740234375" lon="2.3317349888384342193603515625">
        <ele>962.20001220703125</ele>
        <time>2020-08-09T10:43:05.000Z</time>
      </trkpt>
      <trkpt lat="42.324447892606258392333984375" lon="2.33142343349754810333251953125">
        <ele>962.5999755859375</ele>
        <time>2020-08-09T10:43:12.000Z</time>
      </trkpt>
      <trkpt lat="42.324498854577541351318359375" lon="2.3310220241546630859375">
        <ele>963</ele>
        <time>2020-08-09T10:43:21.000Z</time>
      </trkpt>
      <trkpt lat="42.32452257536351680755615234375" lon="2.33094164170324802398681640625">
        <ele>963.4000244140625</ele>
        <time>2020-08-09T10:43:23.000Z</time>
      </trkpt>
      <trkpt lat="42.3246431909501552581787109375" lon="2.33067392371594905853271484375">
        <ele>963.79998779296875</ele>
        <time>2020-08-09T10:43:30.000Z</time>
      </trkpt>
      <trkpt lat="42.3248017765581607818603515625" lon="2.3303207941353321075439453125">
        <ele>964.4000244140625</ele>
        <time>2020-08-09T10:43:39.000Z</time>
      </trkpt>
      <trkpt lat="42.3248262517154216766357421875" lon="2.3301595263183116912841796875">
        <ele>964.4000244140625</ele>
        <time>2020-08-09T10:43:43.000Z</time>
      </trkpt>
      <trkpt lat="42.324739582836627960205078125" lon="2.33007394708693027496337890625">
        <ele>964.20001220703125</ele>
        <time>2020-08-09T10:43:46.000Z</time>
      </trkpt>
      <trkpt lat="42.32465601526200771331787109375" lon="2.33003572560846805572509765625">
        <ele>964</ele>
        <time>2020-08-09T10:43:48.000Z</time>
      </trkpt>
      <trkpt lat="42.32442341744899749755859375" lon="2.32995341531932353973388671875">
        <ele>963.4000244140625</ele>
        <time>2020-08-09T10:43:53.000Z</time>
      </trkpt>
      <trkpt lat="42.32428754679858684539794921875" lon="2.3299084044992923736572265625">
        <ele>963</ele>
        <time>2020-08-09T10:43:56.000Z</time>
      </trkpt>
      <trkpt lat="42.3241640813648700714111328125" lon="2.32987529598176479339599609375">
        <ele>962.79998779296875</ele>
        <time>2020-08-09T10:43:59.000Z</time>
      </trkpt>
      <trkpt lat="42.32396869920194149017333984375" lon="2.329810671508312225341796875">
        <ele>963.4000244140625</ele>
        <time>2020-08-09T10:44:05.000Z</time>
      </trkpt>
      <trkpt lat="42.32385068200528621673583984375" lon="2.3297830112278461456298828125">
        <ele>963.79998779296875</ele>
        <time>2020-08-09T10:44:09.000Z</time>
      </trkpt>
      <trkpt lat="42.3237949423491954803466796875" lon="2.32976951636373996734619140625">
        <ele>964</ele>
        <time>2020-08-09T10:44:11.000Z</time>
      </trkpt>
      <trkpt lat="42.3235890828073024749755859375" lon="2.32974990271031856536865234375">
        <ele>964.20001220703125</ele>
        <time>2020-08-09T10:44:18.000Z</time>
      </trkpt>
      <trkpt lat="42.32356519438326358795166015625" lon="2.32977471314370632171630859375">
        <ele>964.5999755859375</ele>
        <time>2020-08-09T10:44:19.000Z</time>
      </trkpt>
      <trkpt lat="42.32350920327007770538330078125" lon="2.3299090750515460968017578125">
        <ele>965.20001220703125</ele>
        <time>2020-08-09T10:44:23.000Z</time>
      </trkpt>
      <trkpt lat="42.32347953133285045623779296875" lon="2.33008786104619503021240234375">
        <ele>965.79998779296875</ele>
        <time>2020-08-09T10:44:28.000Z</time>
      </trkpt>
      <trkpt lat="42.323454134166240692138671875" lon="2.3302111588418483734130859375">
        <ele>966.20001220703125</ele>
        <time>2020-08-09T10:44:32.000Z</time>
      </trkpt>
      <trkpt lat="42.32339722104370594024658203125" lon="2.33038458041846752166748046875">
        <ele>967</ele>
        <time>2020-08-09T10:44:38.000Z</time>
      </trkpt>
      <trkpt lat="42.323383726179599761962890625" lon="2.3304099775850772857666015625">
        <ele>967</ele>
        <time>2020-08-09T10:44:39.000Z</time>
      </trkpt>
      <trkpt lat="42.3233074508607387542724609375" lon="2.3305648751556873321533203125">
        <ele>967.79998779296875</ele>
        <time>2020-08-09T10:44:45.000Z</time>
      </trkpt>
      <trkpt lat="42.32329554855823516845703125" lon="2.330587841570377349853515625">
        <ele>968</ele>
        <time>2020-08-09T10:44:46.000Z</time>
      </trkpt>
      <trkpt lat="42.32322958298027515411376953125" lon="2.33073645271360874176025390625">
        <ele>968.79998779296875</ele>
        <time>2020-08-09T10:44:52.000Z</time>
      </trkpt>
      <trkpt lat="42.323201000690460205078125" lon="2.330781631171703338623046875">
        <ele>969</ele>
        <time>2020-08-09T10:44:54.000Z</time>
      </trkpt>
      <trkpt lat="42.3231465183198451995849609375" lon="2.33089721761643886566162109375">
        <ele>970</ele>
        <time>2020-08-09T10:44:59.000Z</time>
      </trkpt>
      <trkpt lat="42.323134280741214752197265625" lon="2.33091942965984344482421875">
        <ele>970.20001220703125</ele>
        <time>2020-08-09T10:45:00.000Z</time>
      </trkpt>
      <trkpt lat="42.32309312559664249420166015625" lon="2.331006936728954315185546875">
        <ele>971.4000244140625</ele>
        <time>2020-08-09T10:45:04.000Z</time>
      </trkpt>
      <trkpt lat="42.32307183556258678436279296875" lon="2.331048510968685150146484375">
        <ele>971.79998779296875</ele>
        <time>2020-08-09T10:45:06.000Z</time>
      </trkpt>
      <trkpt lat="42.32305037789046764373779296875" lon="2.33111581765115261077880859375">
        <ele>972.5999755859375</ele>
        <time>2020-08-09T10:45:09.000Z</time>
      </trkpt>
      <trkpt lat="42.32302623800933361053466796875" lon="2.33121254481375217437744140625">
        <ele>973.5999755859375</ele>
        <time>2020-08-09T10:45:13.000Z</time>
      </trkpt>
      <trkpt lat="42.32299053110182285308837890625" lon="2.3313008062541484832763671875">
        <ele>974.5999755859375</ele>
        <time>2020-08-09T10:45:17.000Z</time>
      </trkpt>
      <trkpt lat="42.32297896407544612884521484375" lon="2.33132167719304561614990234375">
        <ele>974.79998779296875</ele>
        <time>2020-08-09T10:45:18.000Z</time>
      </trkpt>
      <trkpt lat="42.3229393176734447479248046875" lon="2.33139879070222377777099609375">
        <ele>975.79998779296875</ele>
        <time>2020-08-09T10:45:22.000Z</time>
      </trkpt>
      <trkpt lat="42.32290939427912235260009765625" lon="2.3314523510634899139404296875">
        <ele>976.4000244140625</ele>
        <time>2020-08-09T10:45:25.000Z</time>
      </trkpt>
      <trkpt lat="42.32289330102503299713134765625" lon="2.3314915783703327178955078125">
        <ele>977</ele>
        <time>2020-08-09T10:45:27.000Z</time>
      </trkpt>
      <trkpt lat="42.32283127494156360626220703125" lon="2.33160917647182941436767578125">
        <ele>978.20001220703125</ele>
        <time>2020-08-09T10:45:33.000Z</time>
      </trkpt>
      <trkpt lat="42.32281819917261600494384765625" lon="2.33162694610655307769775390625">
        <ele>978.4000244140625</ele>
        <time>2020-08-09T10:45:34.000Z</time>
      </trkpt>
      <trkpt lat="42.32273588888347148895263671875" lon="2.33174697495996952056884765625">
        <ele>979.20001220703125</ele>
        <time>2020-08-09T10:45:41.000Z</time>
      </trkpt>
      <trkpt lat="42.32271350920200347900390625" lon="2.3317839391529560089111328125">
        <ele>979.79998779296875</ele>
        <time>2020-08-09T10:45:43.000Z</time>
      </trkpt>
      <trkpt lat="42.322692386806011199951171875" lon="2.3318382538855075836181640625">
        <ele>980.20001220703125</ele>
        <time>2020-08-09T10:45:46.000Z</time>
      </trkpt>
      <trkpt lat="42.32268107123672962188720703125" lon="2.33191830106079578399658203125">
        <ele>981</ele>
        <time>2020-08-09T10:45:50.000Z</time>
      </trkpt>
      <trkpt lat="42.322663553059101104736328125" lon="2.3319514095783233642578125">
        <ele>981.5999755859375</ele>
        <time>2020-08-09T10:45:52.000Z</time>
      </trkpt>
      <trkpt lat="42.322648800909519195556640625" lon="2.3319675028324127197265625">
        <ele>981.79998779296875</ele>
        <time>2020-08-09T10:45:53.000Z</time>
      </trkpt>
      <trkpt lat="42.32261418364942073822021484375" lon="2.3319703526794910430908203125">
        <ele>982.5999755859375</ele>
        <time>2020-08-09T10:45:55.000Z</time>
      </trkpt>
      <trkpt lat="42.3225970007479190826416015625" lon="2.33196406625211238861083984375">
        <ele>982.79998779296875</ele>
        <time>2020-08-09T10:45:56.000Z</time>
      </trkpt>
      <trkpt lat="42.32256732881069183349609375" lon="2.33189064078032970428466796875">
        <ele>983.4000244140625</ele>
        <time>2020-08-09T10:46:00.000Z</time>
      </trkpt>
      <trkpt lat="42.32257914729416370391845703125" lon="2.33185091055929660797119140625">
        <ele>983.5999755859375</ele>
        <time>2020-08-09T10:46:02.000Z</time>
      </trkpt>
      <trkpt lat="42.32259549200534820556640625" lon="2.3318157903850078582763671875">
        <ele>984</ele>
        <time>2020-08-09T10:46:04.000Z</time>
      </trkpt>
      <trkpt lat="42.32261770404875278472900390625" lon="2.331757284700870513916015625">
        <ele>984.4000244140625</ele>
        <time>2020-08-09T10:46:07.000Z</time>
      </trkpt>
      <trkpt lat="42.3226456157863140106201171875" lon="2.33170657418668270111083984375">
        <ele>985</ele>
        <time>2020-08-09T10:46:10.000Z</time>
      </trkpt>
      <trkpt lat="42.3226918838918209075927734375" lon="2.33159811235964298248291015625">
        <ele>986.20001220703125</ele>
        <time>2020-08-09T10:46:16.000Z</time>
      </trkpt>
      <trkpt lat="42.322737313807010650634765625" lon="2.3314956016838550567626953125">
        <ele>987.20001220703125</ele>
        <time>2020-08-09T10:46:22.000Z</time>
      </trkpt>
      <trkpt lat="42.32274728827178478240966796875" lon="2.33145645819604396820068359375">
        <ele>987.79998779296875</ele>
        <time>2020-08-09T10:46:24.000Z</time>
      </trkpt>
      <trkpt lat="42.32275516726076602935791015625" lon="2.33141153119504451751708984375">
        <ele>988.20001220703125</ele>
        <time>2020-08-09T10:46:26.000Z</time>
      </trkpt>
      <trkpt lat="42.32276187278330326080322265625" lon="2.33138881623744964599609375">
        <ele>988.4000244140625</ele>
        <time>2020-08-09T10:46:27.000Z</time>
      </trkpt>
      <trkpt lat="42.32278433628380298614501953125" lon="2.33131564222276210784912109375">
        <ele>988.79998779296875</ele>
        <time>2020-08-09T10:46:31.000Z</time>
      </trkpt>
      <trkpt lat="42.322791628539562225341796875" lon="2.3312830366194248199462890625">
        <ele>989.4000244140625</ele>
        <time>2020-08-09T10:46:33.000Z</time>
      </trkpt>
      <trkpt lat="42.322799675166606903076171875" lon="2.33117155730724334716796875">
        <ele>990.5999755859375</ele>
        <time>2020-08-09T10:46:39.000Z</time>
      </trkpt>
      <trkpt lat="42.32280026189982891082763671875" lon="2.3311542905867099761962890625">
        <ele>990.5999755859375</ele>
        <time>2020-08-09T10:46:40.000Z</time>
      </trkpt>
      <trkpt lat="42.32278249226510524749755859375" lon="2.33108128421008586883544921875">
        <ele>991.79998779296875</ele>
        <time>2020-08-09T10:46:44.000Z</time>
      </trkpt>
      <trkpt lat="42.3227351345121860504150390625" lon="2.330986820161342620849609375">
        <ele>992.79998779296875</ele>
        <time>2020-08-09T10:46:50.000Z</time>
      </trkpt>
      <trkpt lat="42.32271007262170314788818359375" lon="2.33088548295199871063232421875">
        <ele>994</ele>
        <time>2020-08-09T10:46:55.000Z</time>
      </trkpt>
      <trkpt lat="42.32270671986043453216552734375" lon="2.3308733291923999786376953125">
        <ele>994.4000244140625</ele>
        <time>2020-08-09T10:46:57.000Z</time>
      </trkpt>
      <trkpt lat="42.32270219363272190093994140625" lon="2.3308758437633514404296875">
        <ele>994.5999755859375</ele>
        <time>2020-08-09T10:47:09.000Z</time>
      </trkpt>
      <trkpt lat="42.32270219363272190093994140625" lon="2.33087508939206600189208984375">
        <ele>994.5999755859375</ele>
        <time>2020-08-09T10:47:40.000Z</time>
      </trkpt>
      <trkpt lat="42.32270236127078533172607421875" lon="2.33087542466819286346435546875">
        <ele>994.4000244140625</ele>
        <time>2020-08-09T10:47:56.000Z</time>
      </trkpt>
      <trkpt lat="42.3226070590317249298095703125" lon="2.33065179549157619476318359375">
        <ele>996.5999755859375</ele>
        <time>2020-08-09T10:50:10.000Z</time>
      </trkpt>
      <trkpt lat="42.32260622084140777587890625" lon="2.3306349478662014007568359375">
        <ele>996.79998779296875</ele>
        <time>2020-08-09T10:50:11.000Z</time>
      </trkpt>
      <trkpt lat="42.32259674929082393646240234375" lon="2.330553643405437469482421875">
        <ele>997.79998779296875</ele>
        <time>2020-08-09T10:50:16.000Z</time>
      </trkpt>
      <trkpt lat="42.32257847674190998077392578125" lon="2.3304931260645389556884765625">
        <ele>998.5999755859375</ele>
        <time>2020-08-09T10:50:20.000Z</time>
      </trkpt>
      <trkpt lat="42.32257646508514881134033203125" lon="2.3304773680865764617919921875">
        <ele>998.79998779296875</ele>
        <time>2020-08-09T10:50:21.000Z</time>
      </trkpt>
      <trkpt lat="42.32257562689483165740966796875" lon="2.3304305970668792724609375">
        <ele>999.4000244140625</ele>
        <time>2020-08-09T10:50:24.000Z</time>
      </trkpt>
      <trkpt lat="42.3225721903145313262939453125" lon="2.33038206584751605987548828125">
        <ele>1000</ele>
        <time>2020-08-09T10:50:27.000Z</time>
      </trkpt>
      <trkpt lat="42.3225728608667850494384765625" lon="2.33036379329860210418701171875">
        <ele>1000.20001220703125</ele>
        <time>2020-08-09T10:50:28.000Z</time>
      </trkpt>
      <trkpt lat="42.3225612938404083251953125" lon="2.33024158515036106109619140625">
        <ele>1001</ele>
        <time>2020-08-09T10:50:35.000Z</time>
      </trkpt>
      <trkpt lat="42.322560958564281463623046875" lon="2.33022465370595455169677734375">
        <ele>1001</ele>
        <time>2020-08-09T10:50:36.000Z</time>
      </trkpt>
      <trkpt lat="42.32255366630852222442626953125" lon="2.33012457378208637237548828125">
        <ele>1002.20001220703125</ele>
        <time>2020-08-09T10:50:42.000Z</time>
      </trkpt>
      <trkpt lat="42.322546206414699554443359375" lon="2.33010848052799701690673828125">
        <ele>1002.4000244140625</ele>
        <time>2020-08-09T10:50:43.000Z</time>
      </trkpt>
      <trkpt lat="42.3225128464400768280029296875" lon="2.32998727820813655853271484375">
        <ele>1003.20001220703125</ele>
        <time>2020-08-09T10:50:50.000Z</time>
      </trkpt>
      <trkpt lat="42.32251158915460109710693359375" lon="2.3299690894782543182373046875">
        <ele>1003.20001220703125</ele>
        <time>2020-08-09T10:50:51.000Z</time>
      </trkpt>
      <trkpt lat="42.3225175403058528900146484375" lon="2.32983757741749286651611328125">
        <ele>1004.4000244140625</ele>
        <time>2020-08-09T10:50:58.000Z</time>
      </trkpt>
      <trkpt lat="42.32251427136361598968505859375" lon="2.32978091575205326080322265625">
        <ele>1005</ele>
        <time>2020-08-09T10:51:01.000Z</time>
      </trkpt>
      <trkpt lat="42.322520054876804351806640625" lon="2.32972542755305767059326171875">
        <ele>1005.4000244140625</ele>
        <time>2020-08-09T10:51:04.000Z</time>
      </trkpt>
      <trkpt lat="42.3225413449108600616455078125" lon="2.3295939154922962188720703125">
        <ele>1006.5999755859375</ele>
        <time>2020-08-09T10:51:11.000Z</time>
      </trkpt>
      <trkpt lat="42.3225698433816432952880859375" lon="2.3294792510569095611572265625">
        <ele>1007.5999755859375</ele>
        <time>2020-08-09T10:51:17.000Z</time>
      </trkpt>
      <trkpt lat="42.32258744537830352783203125" lon="2.32940238900482654571533203125">
        <ele>1008.5999755859375</ele>
        <time>2020-08-09T10:51:21.000Z</time>
      </trkpt>
      <trkpt lat="42.322598509490489959716796875" lon="2.32936752028763294219970703125">
        <ele>1008.79998779296875</ele>
        <time>2020-08-09T10:51:23.000Z</time>
      </trkpt>
      <trkpt lat="42.32261736877262592315673828125" lon="2.329246066510677337646484375">
        <ele>1010</ele>
        <time>2020-08-09T10:51:29.000Z</time>
      </trkpt>
      <trkpt lat="42.322636060416698455810546875" lon="2.329144813120365142822265625">
        <ele>1011</ele>
        <time>2020-08-09T10:51:34.000Z</time>
      </trkpt>
      <trkpt lat="42.32266061939299106597900390625" lon="2.32904666103422641754150390625">
        <ele>1011.79998779296875</ele>
        <time>2020-08-09T10:51:39.000Z</time>
      </trkpt>
      <trkpt lat="42.32266749255359172821044921875" lon="2.329007349908351898193359375">
        <ele>1012.20001220703125</ele>
        <time>2020-08-09T10:51:41.000Z</time>
      </trkpt>
      <trkpt lat="42.3226865194737911224365234375" lon="2.3288660310208797454833984375">
        <ele>1013.20001220703125</ele>
        <time>2020-08-09T10:51:48.000Z</time>
      </trkpt>
      <trkpt lat="42.322699762880802154541015625" lon="2.32882521115243434906005859375">
        <ele>1013.5999755859375</ele>
        <time>2020-08-09T10:51:50.000Z</time>
      </trkpt>
      <trkpt lat="42.32273496687412261962890625" lon="2.32872538268566131591796875">
        <ele>1014.20001220703125</ele>
        <time>2020-08-09T10:51:55.000Z</time>
      </trkpt>
      <trkpt lat="42.3227592743933200836181640625" lon="2.3286420665681362152099609375">
        <ele>1015</ele>
        <time>2020-08-09T10:51:59.000Z</time>
      </trkpt>
      <trkpt lat="42.322782911360263824462890625" lon="2.32858280651271343231201171875">
        <ele>1015.5999755859375</ele>
        <time>2020-08-09T10:52:02.000Z</time>
      </trkpt>
      <trkpt lat="42.32282959856092929840087890625" lon="2.32843947596848011016845703125">
        <ele>1016.5999755859375</ele>
        <time>2020-08-09T10:52:09.000Z</time>
      </trkpt>
      <trkpt lat="42.32285675592720508575439453125" lon="2.32834450900554656982421875">
        <ele>1017.4000244140625</ele>
        <time>2020-08-09T10:52:14.000Z</time>
      </trkpt>
      <trkpt lat="42.32286279089748859405517578125" lon="2.32830301858484745025634765625">
        <ele>1017.5999755859375</ele>
        <time>2020-08-09T10:52:16.000Z</time>
      </trkpt>
      <trkpt lat="42.32286999933421611785888671875" lon="2.3282598517835140228271484375">
        <ele>1017.79998779296875</ele>
        <time>2020-08-09T10:52:18.000Z</time>
      </trkpt>
      <trkpt lat="42.3228789679706096649169921875" lon="2.328067235648632049560546875">
        <ele>1018.79998779296875</ele>
        <time>2020-08-09T10:52:26.000Z</time>
      </trkpt>
      <trkpt lat="42.32287955470383167266845703125" lon="2.32804334722459316253662109375">
        <ele>1019</ele>
        <time>2020-08-09T10:52:27.000Z</time>
      </trkpt>
      <trkpt lat="42.3228843323886394500732421875" lon="2.3278581909835338592529296875">
        <ele>1019.79998779296875</ele>
        <time>2020-08-09T10:52:35.000Z</time>
      </trkpt>
      <trkpt lat="42.32288911007344722747802734375" lon="2.3277666606009006500244140625">
        <ele>1020.4000244140625</ele>
        <time>2020-08-09T10:52:39.000Z</time>
      </trkpt>
      <trkpt lat="42.32288517057895660400390625" lon="2.327674962580204010009765625">
        <ele>1021</ele>
        <time>2020-08-09T10:52:43.000Z</time>
      </trkpt>
      <trkpt lat="42.32287938706576824188232421875" lon="2.32749399729073047637939453125">
        <ele>1022</ele>
        <time>2020-08-09T10:52:51.000Z</time>
      </trkpt>
      <trkpt lat="42.3228719271719455718994140625" lon="2.32731730677187442779541015625">
        <ele>1023</ele>
        <time>2020-08-09T10:52:59.000Z</time>
      </trkpt>
      <trkpt lat="42.32287050224840641021728515625" lon="2.32724924571812152862548828125">
        <ele>1023.4000244140625</ele>
        <time>2020-08-09T10:53:02.000Z</time>
      </trkpt>
      <trkpt lat="42.32286614365875720977783203125" lon="2.327158637344837188720703125">
        <ele>1024</ele>
        <time>2020-08-09T10:53:06.000Z</time>
      </trkpt>
      <trkpt lat="42.3228585161268711090087890625" lon="2.3270215094089508056640625">
        <ele>1025</ele>
        <time>2020-08-09T10:53:12.000Z</time>
      </trkpt>
      <trkpt lat="42.32285558246076107025146484375" lon="2.32699912972748279571533203125">
        <ele>1025</ele>
        <time>2020-08-09T10:53:13.000Z</time>
      </trkpt>
      <trkpt lat="42.32284518890082836151123046875" lon="2.3268875665962696075439453125">
        <ele>1026.199951171875</ele>
        <time>2020-08-09T10:53:18.000Z</time>
      </trkpt>
      <trkpt lat="42.32283982448279857635498046875" lon="2.32679762877523899078369140625">
        <ele>1027</ele>
        <time>2020-08-09T10:53:22.000Z</time>
      </trkpt>
      <trkpt lat="42.32283714227378368377685546875" lon="2.32677533291280269622802734375">
        <ele>1027.199951171875</ele>
        <time>2020-08-09T10:53:23.000Z</time>
      </trkpt>
      <trkpt lat="42.32280914671719074249267578125" lon="2.32662496156990528106689453125">
        <ele>1028.199951171875</ele>
        <time>2020-08-09T10:53:30.000Z</time>
      </trkpt>
      <trkpt lat="42.322772853076457977294921875" lon="2.32644894160330295562744140625">
        <ele>1029.199951171875</ele>
        <time>2020-08-09T10:53:38.000Z</time>
      </trkpt>
      <trkpt lat="42.32276824302971363067626953125" lon="2.32642672955989837646484375">
        <ele>1029.4000244140625</ele>
        <time>2020-08-09T10:53:39.000Z</time>
      </trkpt>
      <trkpt lat="42.32274242676794528961181640625" lon="2.326290942728519439697265625">
        <ele>1030.4000244140625</ele>
        <time>2020-08-09T10:53:45.000Z</time>
      </trkpt>
      <trkpt lat="42.32272633351385593414306640625" lon="2.3262223787605762481689453125">
        <ele>1031</ele>
        <time>2020-08-09T10:53:48.000Z</time>
      </trkpt>
      <trkpt lat="42.32271560467779636383056640625" lon="2.3261281661689281463623046875">
        <ele>1031.5999755859375</ele>
        <time>2020-08-09T10:53:52.000Z</time>
      </trkpt>
      <trkpt lat="42.32269548811018466949462890625" lon="2.32598911039531230926513671875">
        <ele>1032.5999755859375</ele>
        <time>2020-08-09T10:53:58.000Z</time>
      </trkpt>
      <trkpt lat="42.32267570681869983673095703125" lon="2.3258280940353870391845703125">
        <ele>1033.5999755859375</ele>
        <time>2020-08-09T10:54:05.000Z</time>
      </trkpt>
      <trkpt lat="42.32266791164875030517578125" lon="2.32578224502503871917724609375">
        <ele>1034</ele>
        <time>2020-08-09T10:54:07.000Z</time>
      </trkpt>
      <trkpt lat="42.32265508733689785003662109375" lon="2.32568853534758090972900390625">
        <ele>1034.5999755859375</ele>
        <time>2020-08-09T10:54:11.000Z</time>
      </trkpt>
      <trkpt lat="42.322654165327548980712890625" lon="2.32561913318932056427001953125">
        <ele>1035.199951171875</ele>
        <time>2020-08-09T10:54:14.000Z</time>
      </trkpt>
      <trkpt lat="42.3226466216146945953369140625" lon="2.32552005909383296966552734375">
        <ele>1035.800048828125</ele>
        <time>2020-08-09T10:54:18.000Z</time>
      </trkpt>
      <trkpt lat="42.32263463549315929412841796875" lon="2.32544596306979656219482421875">
        <ele>1036.199951171875</ele>
        <time>2020-08-09T10:54:21.000Z</time>
      </trkpt>
      <trkpt lat="42.32262432575225830078125" lon="2.325316965579986572265625">
        <ele>1036.800048828125</ele>
        <time>2020-08-09T10:54:26.000Z</time>
      </trkpt>
      <trkpt lat="42.322609908878803253173828125" lon="2.3252162151038646697998046875">
        <ele>1037.4000244140625</ele>
        <time>2020-08-09T10:54:30.000Z</time>
      </trkpt>
      <trkpt lat="42.3226077295839786529541015625" lon="2.32513767667114734649658203125">
        <ele>1037.800048828125</ele>
        <time>2020-08-09T10:54:33.000Z</time>
      </trkpt>
      <trkpt lat="42.32259641401469707489013671875" lon="2.325004823505878448486328125">
        <ele>1038.4000244140625</ele>
        <time>2020-08-09T10:54:38.000Z</time>
      </trkpt>
      <trkpt lat="42.32258182950317859649658203125" lon="2.324927039444446563720703125">
        <ele>1038.800048828125</ele>
        <time>2020-08-09T10:54:41.000Z</time>
      </trkpt>
      <trkpt lat="42.3225438594818115234375" lon="2.32477541081607341766357421875">
        <ele>1039.4000244140625</ele>
        <time>2020-08-09T10:54:47.000Z</time>
      </trkpt>
      <trkpt lat="42.3225068114697933197021484375" lon="2.32465018518269062042236328125">
        <ele>1039.800048828125</ele>
        <time>2020-08-09T10:54:52.000Z</time>
      </trkpt>
      <trkpt lat="42.32246280647814273834228515625" lon="2.3245278932154178619384765625">
        <ele>1040.5999755859375</ele>
        <time>2020-08-09T10:54:57.000Z</time>
      </trkpt>
      <trkpt lat="42.32244126498699188232421875" lon="2.32445262372493743896484375">
        <ele>1040.800048828125</ele>
        <time>2020-08-09T10:55:00.000Z</time>
      </trkpt>
      <trkpt lat="42.32243162579834461212158203125" lon="2.324429489672183990478515625">
        <ele>1041</ele>
        <time>2020-08-09T10:55:01.000Z</time>
      </trkpt>
      <trkpt lat="42.32237881980836391448974609375" lon="2.3243126459419727325439453125">
        <ele>1041.800048828125</ele>
        <time>2020-08-09T10:55:06.000Z</time>
      </trkpt>
      <trkpt lat="42.3223596252501010894775390625" lon="2.3242620192468166351318359375">
        <ele>1042</ele>
        <time>2020-08-09T10:55:08.000Z</time>
      </trkpt>
      <trkpt lat="42.32227287255227565765380859375" lon="2.32406814582645893096923828125">
        <ele>1042.800048828125</ele>
        <time>2020-08-09T10:55:16.000Z</time>
      </trkpt>
      <trkpt lat="42.3222640715539455413818359375" lon="2.324043251574039459228515625">
        <ele>1043</ele>
        <time>2020-08-09T10:55:17.000Z</time>
      </trkpt>
      <trkpt lat="42.32218913733959197998046875" lon="2.32383797876536846160888671875">
        <ele>1044</ele>
        <time>2020-08-09T10:55:25.000Z</time>
      </trkpt>
      <trkpt lat="42.32218184508383274078369140625" lon="2.32381266541779041290283203125">
        <ele>1044.199951171875</ele>
        <time>2020-08-09T10:55:26.000Z</time>
      </trkpt>
      <trkpt lat="42.32214379124343395233154296875" lon="2.3236927203834056854248046875">
        <ele>1045.199951171875</ele>
        <time>2020-08-09T10:55:31.000Z</time>
      </trkpt>
      <trkpt lat="42.322124429047107696533203125" lon="2.3236196301877498626708984375">
        <ele>1045.4000244140625</ele>
        <time>2020-08-09T10:55:34.000Z</time>
      </trkpt>
      <trkpt lat="42.3220944218337535858154296875" lon="2.32352164573967456817626953125">
        <ele>1046.4000244140625</ele>
        <time>2020-08-09T10:55:38.000Z</time>
      </trkpt>
      <trkpt lat="42.3220498301088809967041015625" lon="2.323372364044189453125">
        <ele>1047.4000244140625</ele>
        <time>2020-08-09T10:55:44.000Z</time>
      </trkpt>
      <trkpt lat="42.32203767634928226470947265625" lon="2.32332048006355762481689453125">
        <ele>1047.4000244140625</ele>
        <time>2020-08-09T10:55:46.000Z</time>
      </trkpt>
      <trkpt lat="42.322009764611721038818359375" lon="2.32318955473601818084716796875">
        <ele>1048.5999755859375</ele>
        <time>2020-08-09T10:55:51.000Z</time>
      </trkpt>
      <trkpt lat="42.32198419980704784393310546875" lon="2.32308696024119853973388671875">
        <ele>1049.199951171875</ele>
        <time>2020-08-09T10:55:55.000Z</time>
      </trkpt>
      <trkpt lat="42.3219696991145610809326171875" lon="2.32303935103118419647216796875">
        <ele>1049.800048828125</ele>
        <time>2020-08-09T10:55:57.000Z</time>
      </trkpt>
      <trkpt lat="42.32193189673125743865966796875" lon="2.32289166189730167388916015625">
        <ele>1051</ele>
        <time>2020-08-09T10:56:03.000Z</time>
      </trkpt>
      <trkpt lat="42.3219090141355991363525390625" lon="2.32282192446291446685791015625">
        <ele>1051.800048828125</ele>
        <time>2020-08-09T10:56:06.000Z</time>
      </trkpt>
      <trkpt lat="42.32189468108117580413818359375" lon="2.32277624309062957763671875">
        <ele>1052</ele>
        <time>2020-08-09T10:56:08.000Z</time>
      </trkpt>
      <trkpt lat="42.321876995265483856201171875" lon="2.322685383260250091552734375">
        <ele>1052.800048828125</ele>
        <time>2020-08-09T10:56:12.000Z</time>
      </trkpt>
      <trkpt lat="42.32186920009553432464599609375" lon="2.32266400940716266632080078125">
        <ele>1053</ele>
        <time>2020-08-09T10:56:13.000Z</time>
      </trkpt>
      <trkpt lat="42.32182435691356658935546875" lon="2.322529815137386322021484375">
        <ele>1054.199951171875</ele>
        <time>2020-08-09T10:56:19.000Z</time>
      </trkpt>
      <trkpt lat="42.321815304458141326904296875" lon="2.3225075192749500274658203125">
        <ele>1054.4000244140625</ele>
        <time>2020-08-09T10:56:20.000Z</time>
      </trkpt>
      <trkpt lat="42.32177046127617359161376953125" lon="2.3224009014666080474853515625">
        <ele>1055.199951171875</ele>
        <time>2020-08-09T10:56:25.000Z</time>
      </trkpt>
      <trkpt lat="42.321752943098545074462890625" lon="2.32235790230333805084228515625">
        <ele>1055.5999755859375</ele>
        <time>2020-08-09T10:56:27.000Z</time>
      </trkpt>
      <trkpt lat="42.3217199184000492095947265625" lon="2.3222698085010051727294921875">
        <ele>1056.199951171875</ele>
        <time>2020-08-09T10:56:31.000Z</time>
      </trkpt>
      <trkpt lat="42.3216759972274303436279296875" lon="2.3221380449831485748291015625">
        <ele>1057.199951171875</ele>
        <time>2020-08-09T10:56:37.000Z</time>
      </trkpt>
      <trkpt lat="42.321616820991039276123046875" lon="2.32195406220853328704833984375">
        <ele>1058.5999755859375</ele>
        <time>2020-08-09T10:56:45.000Z</time>
      </trkpt>
      <trkpt lat="42.32160734944045543670654296875" lon="2.3219328559935092926025390625">
        <ele>1058.800048828125</ele>
        <time>2020-08-09T10:56:46.000Z</time>
      </trkpt>
      <trkpt lat="42.32155806384980678558349609375" lon="2.3218312673270702362060546875">
        <ele>1059.800048828125</ele>
        <time>2020-08-09T10:56:51.000Z</time>
      </trkpt>
      <trkpt lat="42.3214771784842014312744140625" lon="2.32169623486697673797607421875">
        <ele>1060.800048828125</ele>
        <time>2020-08-09T10:56:58.000Z</time>
      </trkpt>
      <trkpt lat="42.321372069418430328369140625" lon="2.321547456085681915283203125">
        <ele>1061.5999755859375</ele>
        <time>2020-08-09T10:57:06.000Z</time>
      </trkpt>
      <trkpt lat="42.3213444091379642486572265625" lon="2.321514599025249481201171875">
        <ele>1062</ele>
        <time>2020-08-09T10:57:08.000Z</time>
      </trkpt>
      <trkpt lat="42.3212676309049129486083984375" lon="2.32140990905463695526123046875">
        <ele>1062.800048828125</ele>
        <time>2020-08-09T10:57:14.000Z</time>
      </trkpt>
      <trkpt lat="42.32125581242144107818603515625" lon="2.32139079831540584564208984375">
        <ele>1063</ele>
        <time>2020-08-09T10:57:15.000Z</time>
      </trkpt>
      <trkpt lat="42.32116512022912502288818359375" lon="2.3212535865604877471923828125">
        <ele>1064</ele>
        <time>2020-08-09T10:57:22.000Z</time>
      </trkpt>
      <trkpt lat="42.321151457726955413818359375" lon="2.3212344758212566375732421875">
        <ele>1064.199951171875</ele>
        <time>2020-08-09T10:57:23.000Z</time>
      </trkpt>
      <trkpt lat="42.32106017880141735076904296875" lon="2.32110061682760715484619140625">
        <ele>1065</ele>
        <time>2020-08-09T10:57:30.000Z</time>
      </trkpt>
      <trkpt lat="42.32104794122278690338134765625" lon="2.32108133845031261444091796875">
        <ele>1065.199951171875</ele>
        <time>2020-08-09T10:57:31.000Z</time>
      </trkpt>
      <trkpt lat="42.32096496038138866424560546875" lon="2.3209437914192676544189453125">
        <ele>1066.199951171875</ele>
        <time>2020-08-09T10:57:38.000Z</time>
      </trkpt>
      <trkpt lat="42.3209330253303050994873046875" lon="2.32087849639356136322021484375">
        <ele>1066.800048828125</ele>
        <time>2020-08-09T10:57:41.000Z</time>
      </trkpt>
      <trkpt lat="42.32091165147721767425537109375" lon="2.320833317935466766357421875">
        <ele>1067.4000244140625</ele>
        <time>2020-08-09T10:57:43.000Z</time>
      </trkpt>
      <trkpt lat="42.3208354599773883819580078125" lon="2.32067800126969814300537109375">
        <ele>1068</ele>
        <time>2020-08-09T10:57:50.000Z</time>
      </trkpt>
      <trkpt lat="42.32079296372830867767333984375" lon="2.32058932073414325714111328125">
        <ele>1068.5999755859375</ele>
        <time>2020-08-09T10:57:54.000Z</time>
      </trkpt>
      <trkpt lat="42.32073429040610790252685546875" lon="2.32048672623932361602783203125">
        <ele>1069.199951171875</ele>
        <time>2020-08-09T10:57:59.000Z</time>
      </trkpt>
      <trkpt lat="42.32069975696504116058349609375" lon="2.32042931020259857177734375">
        <ele>1069.5999755859375</ele>
        <time>2020-08-09T10:58:02.000Z</time>
      </trkpt>
      <trkpt lat="42.3206175304949283599853515625" lon="2.32029427774250507354736328125">
        <ele>1070.5999755859375</ele>
        <time>2020-08-09T10:58:09.000Z</time>
      </trkpt>
      <trkpt lat="42.32054972089827060699462890625" lon="2.32016335241496562957763671875">
        <ele>1071.800048828125</ele>
        <time>2020-08-09T10:58:16.000Z</time>
      </trkpt>
      <trkpt lat="42.320547290146350860595703125" lon="2.32015572488307952880859375">
        <ele>1072.199951171875</ele>
        <time>2020-08-09T10:58:20.000Z</time>
      </trkpt>
      <trkpt lat="42.32054687105119228363037109375" lon="2.3201542161405086517333984375">
        <ele>1072.199951171875</ele>
        <time>2020-08-09T10:58:34.000Z</time>
      </trkpt>
      <trkpt lat="42.32054385356605052947998046875" lon="2.32015178538858890533447265625">
        <ele>1072.199951171875</ele>
        <time>2020-08-09T10:58:52.000Z</time>
      </trkpt>
      <trkpt lat="42.32053765095770359039306640625" lon="2.3201448284089565277099609375">
        <ele>1072.4000244140625</ele>
        <time>2020-08-09T10:59:03.000Z</time>
      </trkpt>
      <trkpt lat="42.3205377347767353057861328125" lon="2.3201448284089565277099609375">
        <ele>1072.800048828125</ele>
        <time>2020-08-09T10:59:07.000Z</time>
      </trkpt>
      <trkpt lat="42.320526503026485443115234375" lon="2.320127896964550018310546875">
        <ele>1072.800048828125</ele>
        <time>2020-08-09T10:59:41.000Z</time>
      </trkpt>
      <trkpt lat="42.32047964818775653839111328125" lon="2.32000686228275299072265625">
        <ele>1073.4000244140625</ele>
        <time>2020-08-09T10:59:48.000Z</time>
      </trkpt>
      <trkpt lat="42.32045852579176425933837890625" lon="2.31994517147541046142578125">
        <ele>1074</ele>
        <time>2020-08-09T10:59:51.000Z</time>
      </trkpt>
      <trkpt lat="42.32041351497173309326171875" lon="2.31979404576122760772705078125">
        <ele>1075.199951171875</ele>
        <time>2020-08-09T10:59:58.000Z</time>
      </trkpt>
      <trkpt lat="42.320373952388763427734375" lon="2.319667898118495941162109375">
        <ele>1076.199951171875</ele>
        <time>2020-08-09T11:00:04.000Z</time>
      </trkpt>
      <trkpt lat="42.32033246196806430816650390625" lon="2.31959740631282329559326171875">
        <ele>1076.800048828125</ele>
        <time>2020-08-09T11:00:08.000Z</time>
      </trkpt>
      <trkpt lat="42.3202946595847606658935546875" lon="2.31954610906541347503662109375">
        <ele>1077.199951171875</ele>
        <time>2020-08-09T11:00:11.000Z</time>
      </trkpt>
      <trkpt lat="42.32021762989461421966552734375" lon="2.3194471187889575958251953125">
        <ele>1078.4000244140625</ele>
        <time>2020-08-09T11:00:17.000Z</time>
      </trkpt>
      <trkpt lat="42.32013246975839138031005859375" lon="2.31934946961700916290283203125">
        <ele>1079.4000244140625</ele>
        <time>2020-08-09T11:00:23.000Z</time>
      </trkpt>
      <trkpt lat="42.32010548003017902374267578125" lon="2.31931460089981555938720703125">
        <ele>1079.5999755859375</ele>
        <time>2020-08-09T11:00:25.000Z</time>
      </trkpt>
      <trkpt lat="42.32004932127892971038818359375" lon="2.3192208074033260345458984375">
        <ele>1080.4000244140625</ele>
        <time>2020-08-09T11:00:30.000Z</time>
      </trkpt>
      <trkpt lat="42.32001814059913158416748046875" lon="2.31916506774723529815673828125">
        <ele>1081</ele>
        <time>2020-08-09T11:00:33.000Z</time>
      </trkpt>
      <trkpt lat="42.319985367357730865478515625" lon="2.31911293230950832366943359375">
        <ele>1081.5999755859375</ele>
        <time>2020-08-09T11:00:36.000Z</time>
      </trkpt>
      <trkpt lat="42.3199104331433773040771484375" lon="2.319044284522533416748046875">
        <ele>1082.4000244140625</ele>
        <time>2020-08-09T11:00:41.000Z</time>
      </trkpt>
      <trkpt lat="42.31989442370831966400146484375" lon="2.31903280131518840789794921875">
        <ele>1082.5999755859375</ele>
        <time>2020-08-09T11:00:42.000Z</time>
      </trkpt>
      <trkpt lat="42.31981915421783924102783203125" lon="2.3189629800617694854736328125">
        <ele>1083.5999755859375</ele>
        <time>2020-08-09T11:00:47.000Z</time>
      </trkpt>
      <trkpt lat="42.31980574317276477813720703125" lon="2.31894814409315586090087890625">
        <ele>1083.800048828125</ele>
        <time>2020-08-09T11:00:48.000Z</time>
      </trkpt>
      <trkpt lat="42.319763414561748504638671875" lon="2.31890489347279071807861328125">
        <ele>1084.5999755859375</ele>
        <time>2020-08-09T11:00:51.000Z</time>
      </trkpt>
      <trkpt lat="42.3196868039667606353759765625" lon="2.3188315518200397491455078125">
        <ele>1085.199951171875</ele>
        <time>2020-08-09T11:00:56.000Z</time>
      </trkpt>
      <trkpt lat="42.31964112259447574615478515625" lon="2.31878721155226230621337890625">
        <ele>1085.800048828125</ele>
        <time>2020-08-09T11:00:59.000Z</time>
      </trkpt>
      <trkpt lat="42.31955646537244319915771484375" lon="2.3186904005706310272216796875">
        <ele>1086.800048828125</ele>
        <time>2020-08-09T11:01:05.000Z</time>
      </trkpt>
      <trkpt lat="42.3195439763367176055908203125" lon="2.31867439113557338714599609375">
        <ele>1087</ele>
        <time>2020-08-09T11:01:06.000Z</time>
      </trkpt>
      <trkpt lat="42.3194539546966552734375" lon="2.31858269311487674713134765625">
        <ele>1088</ele>
        <time>2020-08-09T11:01:12.000Z</time>
      </trkpt>
      <trkpt lat="42.3194266296923160552978515625" lon="2.31854715384542942047119140625">
        <ele>1088.199951171875</ele>
        <time>2020-08-09T11:01:14.000Z</time>
      </trkpt>
      <trkpt lat="42.3193582333624362945556640625" lon="2.3184567131102085113525390625">
        <ele>1089</ele>
        <time>2020-08-09T11:01:19.000Z</time>
      </trkpt>
      <trkpt lat="42.31929763220250606536865234375" lon="2.31835906393826007843017578125">
        <ele>1090</ele>
        <time>2020-08-09T11:01:24.000Z</time>
      </trkpt>
      <trkpt lat="42.3192368634045124053955078125" lon="2.3182374425232410430908203125">
        <ele>1091.199951171875</ele>
        <time>2020-08-09T11:01:30.000Z</time>
      </trkpt>
      <trkpt lat="42.31920920312404632568359375" lon="2.3181747458875179290771484375">
        <ele>1092</ele>
        <time>2020-08-09T11:01:33.000Z</time>
      </trkpt>
      <trkpt lat="42.31919310986995697021484375" lon="2.31812990270555019378662109375">
        <ele>1092.4000244140625</ele>
        <time>2020-08-09T11:01:35.000Z</time>
      </trkpt>
      <trkpt lat="42.31915547512471675872802734375" lon="2.3180191777646541595458984375">
        <ele>1093.4000244140625</ele>
        <time>2020-08-09T11:01:40.000Z</time>
      </trkpt>
      <trkpt lat="42.31911876238882541656494140625" lon="2.3179350234568119049072265625">
        <ele>1094</ele>
        <time>2020-08-09T11:01:44.000Z</time>
      </trkpt>
      <trkpt lat="42.319099903106689453125" lon="2.3178951255977153778076171875">
        <ele>1094.4000244140625</ele>
        <time>2020-08-09T11:01:46.000Z</time>
      </trkpt>
      <trkpt lat="42.319049276411533355712890625" lon="2.31779864989221096038818359375">
        <ele>1095.5999755859375</ele>
        <time>2020-08-09T11:01:51.000Z</time>
      </trkpt>
      <trkpt lat="42.31904064305126667022705078125" lon="2.31777920387685298919677734375">
        <ele>1095.5999755859375</ele>
        <time>2020-08-09T11:01:52.000Z</time>
      </trkpt>
      <trkpt lat="42.318968810141086578369140625" lon="2.3176792077720165252685546875">
        <ele>1096.5999755859375</ele>
        <time>2020-08-09T11:01:58.000Z</time>
      </trkpt>
      <trkpt lat="42.31895707547664642333984375" lon="2.31766118668019771575927734375">
        <ele>1096.800048828125</ele>
        <time>2020-08-09T11:01:59.000Z</time>
      </trkpt>
      <trkpt lat="42.31891290284693241119384765625" lon="2.31758541427552700042724609375">
        <ele>1097.800048828125</ele>
        <time>2020-08-09T11:02:03.000Z</time>
      </trkpt>
      <trkpt lat="42.31885674409568309783935546875" lon="2.317495308816432952880859375">
        <ele>1098.5999755859375</ele>
        <time>2020-08-09T11:02:08.000Z</time>
      </trkpt>
      <trkpt lat="42.31885322369635105133056640625" lon="2.31747996993362903594970703125">
        <ele>1099</ele>
        <time>2020-08-09T11:02:10.000Z</time>
      </trkpt>
      <trkpt lat="42.31885406188666820526123046875" lon="2.31748097576200962066650390625">
        <ele>1099.199951171875</ele>
        <time>2020-08-09T11:02:12.000Z</time>
      </trkpt>
      <trkpt lat="42.31884484179317951202392578125" lon="2.317477203905582427978515625">
        <ele>1099.4000244140625</ele>
        <time>2020-08-09T11:02:21.000Z</time>
      </trkpt>
      <trkpt lat="42.3188357055187225341796875" lon="2.3174728453159332275390625">
        <ele>1099.4000244140625</ele>
        <time>2020-08-09T11:02:22.000Z</time>
      </trkpt>
      <trkpt lat="42.318807207047939300537109375" lon="2.31743034906685352325439453125">
        <ele>1099.5999755859375</ele>
        <time>2020-08-09T11:02:25.000Z</time>
      </trkpt>
      <trkpt lat="42.31877468526363372802734375" lon="2.31737318448722362518310546875">
        <ele>1100</ele>
        <time>2020-08-09T11:02:28.000Z</time>
      </trkpt>
      <trkpt lat="42.31876353733241558074951171875" lon="2.3173523135483264923095703125">
        <ele>1100</ele>
        <time>2020-08-09T11:02:29.000Z</time>
      </trkpt>
      <trkpt lat="42.31870218180119991302490234375" lon="2.3172235675156116485595703125">
        <ele>1101.199951171875</ele>
        <time>2020-08-09T11:02:35.000Z</time>
      </trkpt>
      <trkpt lat="42.3186769522726535797119140625" lon="2.31715475209057331085205078125">
        <ele>1101.800048828125</ele>
        <time>2020-08-09T11:02:38.000Z</time>
      </trkpt>
      <trkpt lat="42.31865557841956615447998046875" lon="2.31705752201378345489501953125">
        <ele>1102.199951171875</ele>
        <time>2020-08-09T11:02:42.000Z</time>
      </trkpt>
      <trkpt lat="42.3186501301825046539306640625" lon="2.31700840406119823455810546875">
        <ele>1102.5999755859375</ele>
        <time>2020-08-09T11:02:44.000Z</time>
      </trkpt>
      <trkpt lat="42.31863713823258876800537109375" lon="2.31689147651195526123046875">
        <ele>1103.4000244140625</ele>
        <time>2020-08-09T11:02:49.000Z</time>
      </trkpt>
      <trkpt lat="42.31863143853843212127685546875" lon="2.31681905686855316162109375">
        <ele>1103.800048828125</ele>
        <time>2020-08-09T11:02:52.000Z</time>
      </trkpt>
      <trkpt lat="42.31861819513142108917236328125" lon="2.3167230002582073211669921875">
        <ele>1104.4000244140625</ele>
        <time>2020-08-09T11:02:56.000Z</time>
      </trkpt>
      <trkpt lat="42.31860302388668060302734375" lon="2.31657975353300571441650390625">
        <ele>1105.199951171875</ele>
        <time>2020-08-09T11:03:02.000Z</time>
      </trkpt>
      <trkpt lat="42.3185995034873485565185546875" lon="2.3165567032992839813232421875">
        <ele>1105.4000244140625</ele>
        <time>2020-08-09T11:03:03.000Z</time>
      </trkpt>
      <trkpt lat="42.31858349405229091644287109375" lon="2.3164433799684047698974609375">
        <ele>1106.4000244140625</ele>
        <time>2020-08-09T11:03:08.000Z</time>
      </trkpt>
      <trkpt lat="42.31857754290103912353515625" lon="2.3163629136979579925537109375">
        <ele>1107</ele>
        <time>2020-08-09T11:03:12.000Z</time>
      </trkpt>
      <trkpt lat="42.31856949627399444580078125" lon="2.316327206790447235107421875">
        <ele>1107.4000244140625</ele>
        <time>2020-08-09T11:03:14.000Z</time>
      </trkpt>
      <trkpt lat="42.31854292564094066619873046875" lon="2.31625218875706195831298828125">
        <ele>1108.5999755859375</ele>
        <time>2020-08-09T11:03:18.000Z</time>
      </trkpt>
      <trkpt lat="42.31853722594678401947021484375" lon="2.316232658922672271728515625">
        <ele>1108.800048828125</ele>
        <time>2020-08-09T11:03:19.000Z</time>
      </trkpt>
      <trkpt lat="42.318509481847286224365234375" lon="2.3161587305366992950439453125">
        <ele>1109.800048828125</ele>
        <time>2020-08-09T11:03:23.000Z</time>
      </trkpt>
      <trkpt lat="42.318472601473331451416015625" lon="2.31608941219747066497802734375">
        <ele>1110.800048828125</ele>
        <time>2020-08-09T11:03:27.000Z</time>
      </trkpt>
      <trkpt lat="42.31846413575112819671630859375" lon="2.31607298366725444793701171875">
        <ele>1111</ele>
        <time>2020-08-09T11:03:28.000Z</time>
      </trkpt>
      <trkpt lat="42.3184291832149028778076171875" lon="2.3159773461520671844482421875">
        <ele>1112.199951171875</ele>
        <time>2020-08-09T11:03:33.000Z</time>
      </trkpt>
      <trkpt lat="42.31842826120555400848388671875" lon="2.315937615931034088134765625">
        <ele>1112.4000244140625</ele>
        <time>2020-08-09T11:03:35.000Z</time>
      </trkpt>
      <trkpt lat="42.31847033835947513580322265625" lon="2.31589109636843204498291015625">
        <ele>1113.4000244140625</ele>
        <time>2020-08-09T11:03:39.000Z</time>
      </trkpt>
      <trkpt lat="42.31848391704261302947998046875" lon="2.315891347825527191162109375">
        <ele>1113.5999755859375</ele>
        <time>2020-08-09T11:03:40.000Z</time>
      </trkpt>
      <trkpt lat="42.31853135861456394195556640625" lon="2.31593904085457324981689453125">
        <ele>1114.5999755859375</ele>
        <time>2020-08-09T11:03:44.000Z</time>
      </trkpt>
      <trkpt lat="42.318541668355464935302734375" lon="2.31595379300415515899658203125">
        <ele>1114.800048828125</ele>
        <time>2020-08-09T11:03:45.000Z</time>
      </trkpt>
      <trkpt lat="42.31855113990604877471923828125" lon="2.31596871279180049896240234375">
        <ele>1115</ele>
        <time>2020-08-09T11:03:46.000Z</time>
      </trkpt>
      <trkpt lat="42.31858802028000354766845703125" lon="2.316010706126689910888671875">
        <ele>1115.5999755859375</ele>
        <time>2020-08-09T11:03:50.000Z</time>
      </trkpt>
      <trkpt lat="42.31858827173709869384765625" lon="2.3160132206976413726806640625">
        <ele>1116</ele>
        <time>2020-08-09T11:03:52.000Z</time>
      </trkpt>
      <trkpt lat="42.3185881040990352630615234375" lon="2.31601439416408538818359375">
        <ele>1115.800048828125</ele>
        <time>2020-08-09T11:04:03.000Z</time>
      </trkpt>
      <trkpt lat="42.3185889422893524169921875" lon="2.31601431034505367279052734375">
        <ele>1115.800048828125</ele>
        <time>2020-08-09T11:04:17.000Z</time>
      </trkpt>
      <trkpt lat="42.318590618669986724853515625" lon="2.31601581908762454986572265625">
        <ele>1115.800048828125</ele>
        <time>2020-08-09T11:04:28.000Z</time>
      </trkpt>
      <trkpt lat="42.31860444881021976470947265625" lon="2.31603275053203105926513671875">
        <ele>1116</ele>
        <time>2020-08-09T11:04:37.000Z</time>
      </trkpt>
      <trkpt lat="42.31860972940921783447265625" lon="2.316034175455570220947265625">
        <ele>1116.199951171875</ele>
        <time>2020-08-09T11:04:51.000Z</time>
      </trkpt>
      <trkpt lat="42.3186105675995349884033203125" lon="2.31603442691266536712646484375">
        <ele>1116</ele>
        <time>2020-08-09T11:05:08.000Z</time>
      </trkpt>
      <trkpt lat="42.3186105675995349884033203125" lon="2.3160340078175067901611328125">
        <ele>1115.800048828125</ele>
        <time>2020-08-09T11:05:25.000Z</time>
      </trkpt>
      <trkpt lat="42.3186105675995349884033203125" lon="2.3160333372652530670166015625">
        <ele>1116.199951171875</ele>
        <time>2020-08-09T11:05:56.000Z</time>
      </trkpt>
      <trkpt lat="42.31861065141856670379638671875" lon="2.31603325344622135162353515625">
        <ele>1116</ele>
        <time>2020-08-09T11:05:59.000Z</time>
      </trkpt>
      <trkpt lat="42.318610735237598419189453125" lon="2.31603342108428478240966796875">
        <ele>1115.800048828125</ele>
        <time>2020-08-09T11:06:20.000Z</time>
      </trkpt>
      <trkpt lat="42.31861031614243984222412109375" lon="2.31603451073169708251953125">
        <ele>1116</ele>
        <time>2020-08-09T11:06:43.000Z</time>
      </trkpt>
      <trkpt lat="42.31860981322824954986572265625" lon="2.31603258289396762847900390625">
        <ele>1115.800048828125</ele>
        <time>2020-08-09T11:07:00.000Z</time>
      </trkpt>
      <trkpt lat="42.3186385631561279296875" lon="2.31603451073169708251953125">
        <ele>1116</ele>
        <time>2020-08-09T11:07:12.000Z</time>
      </trkpt>
      <trkpt lat="42.31867284514009952545166015625" lon="2.3160581476986408233642578125">
        <ele>1116.4000244140625</ele>
        <time>2020-08-09T11:07:15.000Z</time>
      </trkpt>
      <trkpt lat="42.31872397474944591522216796875" lon="2.316086478531360626220703125">
        <ele>1116.5999755859375</ele>
        <time>2020-08-09T11:07:19.000Z</time>
      </trkpt>
      <trkpt lat="42.318771667778491973876953125" lon="2.31612444855272769927978515625">
        <ele>1117.4000244140625</ele>
        <time>2020-08-09T11:07:23.000Z</time>
      </trkpt>
      <trkpt lat="42.3187839053571224212646484375" lon="2.316134087741374969482421875">
        <ele>1117.5999755859375</ele>
        <time>2020-08-09T11:07:24.000Z</time>
      </trkpt>
      <trkpt lat="42.3188422434031963348388671875" lon="2.31619007885456085205078125">
        <ele>1118.4000244140625</ele>
        <time>2020-08-09T11:07:29.000Z</time>
      </trkpt>
      <trkpt lat="42.31890351511538028717041015625" lon="2.31624104082584381103515625">
        <ele>1119.5999755859375</ele>
        <time>2020-08-09T11:07:34.000Z</time>
      </trkpt>
      <trkpt lat="42.3189163394272327423095703125" lon="2.316254116594791412353515625">
        <ele>1119.5999755859375</ele>
        <time>2020-08-09T11:07:35.000Z</time>
      </trkpt>
      <trkpt lat="42.31903745792806148529052734375" lon="2.31638797558844089508056640625">
        <ele>1120.5999755859375</ele>
        <time>2020-08-09T11:07:45.000Z</time>
      </trkpt>
      <trkpt lat="42.31904952786862850189208984375" lon="2.31640038080513477325439453125">
        <ele>1120.5999755859375</ele>
        <time>2020-08-09T11:07:46.000Z</time>
      </trkpt>
      <trkpt lat="42.31912949122488498687744140625" lon="2.3164577968418598175048828125">
        <ele>1121.5999755859375</ele>
        <time>2020-08-09T11:07:52.000Z</time>
      </trkpt>
      <trkpt lat="42.31915346346795558929443359375" lon="2.3164638318121433258056640625">
        <ele>1121.800048828125</ele>
        <time>2020-08-09T11:07:54.000Z</time>
      </trkpt>
      <trkpt lat="42.319171987473964691162109375" lon="2.31645704247057437896728515625">
        <ele>1122</ele>
        <time>2020-08-09T11:07:56.000Z</time>
      </trkpt>
      <trkpt lat="42.31919101439416408538818359375" lon="2.316415049135684967041015625">
        <ele>1122.5999755859375</ele>
        <time>2020-08-09T11:07:59.000Z</time>
      </trkpt>
      <trkpt lat="42.3192058503627777099609375" lon="2.31637825258076190948486328125">
        <ele>1123.199951171875</ele>
        <time>2020-08-09T11:08:04.000Z</time>
      </trkpt>
      <trkpt lat="42.31915581040084362030029296875" lon="2.3164366744458675384521484375">
        <ele>1122.800048828125</ele>
        <time>2020-08-09T11:11:17.000Z</time>
      </trkpt>
      <trkpt lat="42.31916117481887340545654296875" lon="2.31642301194369792938232421875">
        <ele>1122.800048828125</ele>
        <time>2020-08-09T11:11:18.000Z</time>
      </trkpt>
      <trkpt lat="42.319175340235233306884765625" lon="2.3163682781159877777099609375">
        <ele>1123</ele>
        <time>2020-08-09T11:11:21.000Z</time>
      </trkpt>
      <trkpt lat="42.319181375205516815185546875" lon="2.31632863171398639678955078125">
        <ele>1123.5999755859375</ele>
        <time>2020-08-09T11:11:23.000Z</time>
      </trkpt>
      <trkpt lat="42.3191682994365692138671875" lon="2.31625084765255451202392578125">
        <ele>1124.4000244140625</ele>
        <time>2020-08-09T11:11:27.000Z</time>
      </trkpt>
      <trkpt lat="42.31915019452571868896484375" lon="2.3161651007831096649169921875">
        <ele>1124.800048828125</ele>
        <time>2020-08-09T11:11:31.000Z</time>
      </trkpt>
      <trkpt lat="42.31913141906261444091796875" lon="2.3160789348185062408447265625">
        <ele>1125.4000244140625</ele>
        <time>2020-08-09T11:11:35.000Z</time>
      </trkpt>
      <trkpt lat="42.31910727918148040771484375" lon="2.31600961647927761077880859375">
        <ele>1126.199951171875</ele>
        <time>2020-08-09T11:11:39.000Z</time>
      </trkpt>
      <trkpt lat="42.3190953768789768218994140625" lon="2.31597608886659145355224609375">
        <ele>1126.4000244140625</ele>
        <time>2020-08-09T11:11:41.000Z</time>
      </trkpt>
      <trkpt lat="42.319065034389495849609375" lon="2.315906099975109100341796875">
        <ele>1126.800048828125</ele>
        <time>2020-08-09T11:11:45.000Z</time>
      </trkpt>
      <trkpt lat="42.31901583261787891387939453125" lon="2.31578934006392955780029296875">
        <ele>1127.5999755859375</ele>
        <time>2020-08-09T11:11:51.000Z</time>
      </trkpt>
      <trkpt lat="42.31900208629667758941650390625" lon="2.31575044803321361541748046875">
        <ele>1128</ele>
        <time>2020-08-09T11:11:53.000Z</time>
      </trkpt>
      <trkpt lat="42.3190071992576122283935546875" lon="2.31561030261218547821044921875">
        <ele>1128.5999755859375</ele>
        <time>2020-08-09T11:12:00.000Z</time>
      </trkpt>
      <trkpt lat="42.31904416345059871673583984375" lon="2.31553369201719760894775390625">
        <ele>1129.800048828125</ele>
        <time>2020-08-09T11:12:05.000Z</time>
      </trkpt>
      <trkpt lat="42.319064699113368988037109375" lon="2.31551659293472766876220703125">
        <ele>1130.4000244140625</ele>
        <time>2020-08-09T11:12:07.000Z</time>
      </trkpt>
      <trkpt lat="42.3190863244235515594482421875" lon="2.31550184078514575958251953125">
        <ele>1130.800048828125</ele>
        <time>2020-08-09T11:12:09.000Z</time>
      </trkpt>
      <trkpt lat="42.319097556173801422119140625" lon="2.31549538671970367431640625">
        <ele>1131</ele>
        <time>2020-08-09T11:12:10.000Z</time>
      </trkpt>
      <trkpt lat="42.31912069022655487060546875" lon="2.31549270451068878173828125">
        <ele>1131.4000244140625</ele>
        <time>2020-08-09T11:12:12.000Z</time>
      </trkpt>
      <trkpt lat="42.31913066469132900238037109375" lon="2.31549580581486225128173828125">
        <ele>1131.5999755859375</ele>
        <time>2020-08-09T11:12:13.000Z</time>
      </trkpt>
      <trkpt lat="42.31913435272872447967529296875" lon="2.31549463234841823577880859375">
        <ele>1132</ele>
        <time>2020-08-09T11:12:16.000Z</time>
      </trkpt>
      <trkpt lat="42.3191342689096927642822265625" lon="2.31549345888197422027587890625">
        <ele>1132.199951171875</ele>
        <time>2020-08-09T11:12:19.000Z</time>
      </trkpt>
      <trkpt lat="42.3191419802606105804443359375" lon="2.3154868371784687042236328125">
        <ele>1132.199951171875</ele>
        <time>2020-08-09T11:12:28.000Z</time>
      </trkpt>
      <trkpt lat="42.31914474628865718841552734375" lon="2.31543503701686859130859375">
        <ele>1132.5999755859375</ele>
        <time>2020-08-09T11:12:35.000Z</time>
      </trkpt>
      <trkpt lat="42.31914055533707141876220703125" lon="2.31539614498615264892578125">
        <ele>1132.800048828125</ele>
        <time>2020-08-09T11:12:39.000Z</time>
      </trkpt>
      <trkpt lat="42.31913678348064422607421875" lon="2.3153584264218807220458984375">
        <ele>1134</ele>
        <time>2020-08-09T11:12:43.000Z</time>
      </trkpt>
      <trkpt lat="42.3190886713564395904541015625" lon="2.31527301482856273651123046875">
        <ele>1135.199951171875</ele>
        <time>2020-08-09T11:12:52.000Z</time>
      </trkpt>
      <trkpt lat="42.319083474576473236083984375" lon="2.31526362709701061248779296875">
        <ele>1135.4000244140625</ele>
        <time>2020-08-09T11:12:53.000Z</time>
      </trkpt>
      <trkpt lat="42.31905740685760974884033203125" lon="2.3152008466422557830810546875">
        <ele>1135.5999755859375</ele>
        <time>2020-08-09T11:12:59.000Z</time>
      </trkpt>
      <trkpt lat="42.3190605081617832183837890625" lon="2.31518425047397613525390625">
        <ele>1135.800048828125</ele>
        <time>2020-08-09T11:13:00.000Z</time>
      </trkpt>
      <trkpt lat="42.3190636932849884033203125" lon="2.31517083942890167236328125">
        <ele>1136.199951171875</ele>
        <time>2020-08-09T11:13:01.000Z</time>
      </trkpt>
      <trkpt lat="42.31907718814909458160400390625" lon="2.31510722078382968902587890625">
        <ele>1136.5999755859375</ele>
        <time>2020-08-09T11:13:06.000Z</time>
      </trkpt>
      <trkpt lat="42.319091856479644775390625" lon="2.31506631709635257720947265625">
        <ele>1137.4000244140625</ele>
        <time>2020-08-09T11:13:10.000Z</time>
      </trkpt>
      <trkpt lat="42.31911591254174709320068359375" lon="2.31502491049468517303466796875">
        <ele>1138.4000244140625</ele>
        <time>2020-08-09T11:13:15.000Z</time>
      </trkpt>
      <trkpt lat="42.31913066469132900238037109375" lon="2.31500194407999515533447265625">
        <ele>1139.199951171875</ele>
        <time>2020-08-09T11:13:18.000Z</time>
      </trkpt>
      <trkpt lat="42.3191468417644500732421875" lon="2.314976043999195098876953125">
        <ele>1139.4000244140625</ele>
        <time>2020-08-09T11:13:22.000Z</time>
      </trkpt>
      <trkpt lat="42.3191704787313938140869140625" lon="2.31495332904160022735595703125">
        <ele>1140.5999755859375</ele>
        <time>2020-08-09T11:13:27.000Z</time>
      </trkpt>
      <trkpt lat="42.31920844875276088714599609375" lon="2.3149225674569606781005859375">
        <ele>1141.800048828125</ele>
        <time>2020-08-09T11:13:34.000Z</time>
      </trkpt>
      <trkpt lat="42.31923191808164119720458984375" lon="2.31489951722323894500732421875">
        <ele>1142.4000244140625</ele>
        <time>2020-08-09T11:13:38.000Z</time>
      </trkpt>
      <trkpt lat="42.3192398808896541595458984375" lon="2.3148933984339237213134765625">
        <ele>1142.800048828125</ele>
        <time>2020-08-09T11:13:40.000Z</time>
      </trkpt>
      <trkpt lat="42.3192703910171985626220703125" lon="2.314874790608882904052734375">
        <ele>1143.4000244140625</ele>
        <time>2020-08-09T11:13:45.000Z</time>
      </trkpt>
      <trkpt lat="42.31928036548197269439697265625" lon="2.314863391220569610595703125">
        <ele>1143.5999755859375</ele>
        <time>2020-08-09T11:13:47.000Z</time>
      </trkpt>
      <trkpt lat="42.31928170658648014068603515625" lon="2.31483430601656436920166015625">
        <ele>1144</ele>
        <time>2020-08-09T11:13:51.000Z</time>
      </trkpt>
      <trkpt lat="42.31927533634006977081298828125" lon="2.31480999849736690521240234375">
        <ele>1144.5999755859375</ele>
        <time>2020-08-09T11:13:55.000Z</time>
      </trkpt>
      <trkpt lat="42.31927365995943546295166015625" lon="2.31480563990771770477294921875">
        <ele>1145.199951171875</ele>
        <time>2020-08-09T11:13:59.000Z</time>
      </trkpt>
      <trkpt lat="42.3192640207707881927490234375" lon="2.3147901333868503570556640625">
        <ele>1145.5999755859375</ele>
        <time>2020-08-09T11:14:06.000Z</time>
      </trkpt>
      <trkpt lat="42.3192593269050121307373046875" lon="2.3147799074649810791015625">
        <ele>1146</ele>
        <time>2020-08-09T11:14:08.000Z</time>
      </trkpt>
      <trkpt lat="42.31925119645893573760986328125" lon="2.31475912034511566162109375">
        <ele>1146.5999755859375</ele>
        <time>2020-08-09T11:14:12.000Z</time>
      </trkpt>
      <trkpt lat="42.31923460029065608978271484375" lon="2.3147291131317615509033203125">
        <ele>1147.4000244140625</ele>
        <time>2020-08-09T11:14:17.000Z</time>
      </trkpt>
      <trkpt lat="42.31922940351068973541259765625" lon="2.314713187515735626220703125">
        <ele>1147.800048828125</ele>
        <time>2020-08-09T11:14:19.000Z</time>
      </trkpt>
      <trkpt lat="42.31922554783523082733154296875" lon="2.31469617225229740142822265625">
        <ele>1148</ele>
        <time>2020-08-09T11:14:21.000Z</time>
      </trkpt>
      <trkpt lat="42.319235689938068389892578125" lon="2.31464671902358531951904296875">
        <ele>1148.800048828125</ele>
        <time>2020-08-09T11:14:27.000Z</time>
      </trkpt>
      <trkpt lat="42.31926393695175647735595703125" lon="2.31462123803794384002685546875">
        <ele>1149.800048828125</ele>
        <time>2020-08-09T11:14:31.000Z</time>
      </trkpt>
      <trkpt lat="42.319292686879634857177734375" lon="2.314599193632602691650390625">
        <ele>1150.4000244140625</ele>
        <time>2020-08-09T11:14:36.000Z</time>
      </trkpt>
      <trkpt lat="42.319305427372455596923828125" lon="2.3145921528339385986328125">
        <ele>1150.800048828125</ele>
        <time>2020-08-09T11:14:38.000Z</time>
      </trkpt>
      <trkpt lat="42.31933551840484142303466796875" lon="2.31455795466899871826171875">
        <ele>1151.800048828125</ele>
        <time>2020-08-09T11:14:45.000Z</time>
      </trkpt>
      <trkpt lat="42.31935898773372173309326171875" lon="2.31451646424829959869384765625">
        <ele>1153</ele>
        <time>2020-08-09T11:14:53.000Z</time>
      </trkpt>
      <trkpt lat="42.3193585686385631561279296875" lon="2.3145074956119060516357421875">
        <ele>1153.199951171875</ele>
        <time>2020-08-09T11:14:54.000Z</time>
      </trkpt>
      <trkpt lat="42.3193619213998317718505859375" lon="2.3144320584833621978759765625">
        <ele>1154</ele>
        <time>2020-08-09T11:15:02.000Z</time>
      </trkpt>
      <trkpt lat="42.319368459284305572509765625" lon="2.3144109360873699188232421875">
        <ele>1154</ele>
        <time>2020-08-09T11:15:04.000Z</time>
      </trkpt>
      <trkpt lat="42.3193669505417346954345703125" lon="2.314348407089710235595703125">
        <ele>1155</ele>
        <time>2020-08-09T11:15:11.000Z</time>
      </trkpt>
      <trkpt lat="42.3193659447133541107177734375" lon="2.3143375106155872344970703125">
        <ele>1155</ele>
        <time>2020-08-09T11:15:12.000Z</time>
      </trkpt>
      <trkpt lat="42.31935731135308742523193359375" lon="2.314306832849979400634765625">
        <ele>1155.4000244140625</ele>
        <time>2020-08-09T11:15:17.000Z</time>
      </trkpt>
      <trkpt lat="42.31935747899115085601806640625" lon="2.3143043182790279388427734375">
        <ele>1156.199951171875</ele>
        <time>2020-08-09T11:15:49.000Z</time>
      </trkpt>
      <trkpt lat="42.31935680843889713287353515625" lon="2.31430448591709136962890625">
        <ele>1156.199951171875</ele>
        <time>2020-08-09T11:15:51.000Z</time>
      </trkpt>
      <trkpt lat="42.3193682916462421417236328125" lon="2.31425427831709384918212890625">
        <ele>1156</ele>
        <time>2020-08-09T11:15:59.000Z</time>
      </trkpt>
      <trkpt lat="42.31934658251702785491943359375" lon="2.31412569992244243621826171875">
        <ele>1156</ele>
        <time>2020-08-09T11:16:05.000Z</time>
      </trkpt>
      <trkpt lat="42.3193176649510860443115234375" lon="2.31395806185901165008544921875">
        <ele>1156</ele>
        <time>2020-08-09T11:16:13.000Z</time>
      </trkpt>
      <trkpt lat="42.3193066008388996124267578125" lon="2.313812635838985443115234375">
        <ele>1156.199951171875</ele>
        <time>2020-08-09T11:16:19.000Z</time>
      </trkpt>
      <trkpt lat="42.31928036548197269439697265625" lon="2.31357014738023281097412109375">
        <ele>1156</ele>
        <time>2020-08-09T11:16:26.000Z</time>
      </trkpt>
      <trkpt lat="42.31926745735108852386474609375" lon="2.313370741903781890869140625">
        <ele>1155.5999755859375</ele>
        <time>2020-08-09T11:16:33.000Z</time>
      </trkpt>
      <trkpt lat="42.3193102888762950897216796875" lon="2.31320612132549285888671875">
        <ele>1156.5999755859375</ele>
        <time>2020-08-09T11:16:41.000Z</time>
      </trkpt>
      <trkpt lat="42.31932344846427440643310546875" lon="2.31315406970679759979248046875">
        <ele>1157</ele>
        <time>2020-08-09T11:16:44.000Z</time>
      </trkpt>
      <trkpt lat="42.3193287290632724761962890625" lon="2.31313646771013736724853515625">
        <ele>1157.199951171875</ele>
        <time>2020-08-09T11:16:45.000Z</time>
      </trkpt>
      <trkpt lat="42.3193495161831378936767578125" lon="2.31308684684336185455322265625">
        <ele>1157.4000244140625</ele>
        <time>2020-08-09T11:16:48.000Z</time>
      </trkpt>
      <trkpt lat="42.31937156058847904205322265625" lon="2.31300604529678821563720703125">
        <ele>1158</ele>
        <time>2020-08-09T11:16:53.000Z</time>
      </trkpt>
      <trkpt lat="42.3193790204823017120361328125" lon="2.3129555024206638336181640625">
        <ele>1158.199951171875</ele>
        <time>2020-08-09T11:16:56.000Z</time>
      </trkpt>
      <trkpt lat="42.31938580982387065887451171875" lon="2.31288853101432323455810546875">
        <ele>1159</ele>
        <time>2020-08-09T11:17:00.000Z</time>
      </trkpt>
      <trkpt lat="42.3193981312215328216552734375" lon="2.312780655920505523681640625">
        <ele>1159.800048828125</ele>
        <time>2020-08-09T11:17:06.000Z</time>
      </trkpt>
      <trkpt lat="42.319397963583469390869140625" lon="2.31274209916591644287109375">
        <ele>1160</ele>
        <time>2020-08-09T11:17:08.000Z</time>
      </trkpt>
      <trkpt lat="42.31939922086894512176513671875" lon="2.3127281852066516876220703125">
        <ele>1160.199951171875</ele>
        <time>2020-08-09T11:17:11.000Z</time>
      </trkpt>
      <trkpt lat="42.31939586810767650604248046875" lon="2.3127244971692562103271484375">
        <ele>1160.4000244140625</ele>
        <time>2020-08-09T11:17:29.000Z</time>
      </trkpt>
      <trkpt lat="42.31939561665058135986328125" lon="2.312722988426685333251953125">
        <ele>1160.4000244140625</ele>
        <time>2020-08-09T11:17:55.000Z</time>
      </trkpt>
      <trkpt lat="42.31939561665058135986328125" lon="2.31272189877927303314208984375">
        <ele>1160.5999755859375</ele>
        <time>2020-08-09T11:18:12.000Z</time>
      </trkpt>
      <trkpt lat="42.3193947784602642059326171875" lon="2.31272064149379730224609375">
        <ele>1160.4000244140625</ele>
        <time>2020-08-09T11:18:32.000Z</time>
      </trkpt>
      <trkpt lat="42.31939938850700855255126953125" lon="2.312648557126522064208984375">
        <ele>1160.800048828125</ele>
        <time>2020-08-09T11:18:38.000Z</time>
      </trkpt>
      <trkpt lat="42.3193988017737865447998046875" lon="2.31262098066508769989013671875">
        <ele>1161</ele>
        <time>2020-08-09T11:18:40.000Z</time>
      </trkpt>
      <trkpt lat="42.31940693221986293792724609375" lon="2.3125367425382137298583984375">
        <ele>1162.199951171875</ele>
        <time>2020-08-09T11:18:47.000Z</time>
      </trkpt>
      <trkpt lat="42.3194091953337192535400390625" lon="2.3125159554183483123779296875">
        <ele>1162.5999755859375</ele>
        <time>2020-08-09T11:18:49.000Z</time>
      </trkpt>
      <trkpt lat="42.31941682286560535430908203125" lon="2.31246910057961940765380859375">
        <ele>1163.199951171875</ele>
        <time>2020-08-09T11:18:54.000Z</time>
      </trkpt>
      <trkpt lat="42.3194257915019989013671875" lon="2.3124195635318756103515625">
        <ele>1164</ele>
        <time>2020-08-09T11:18:59.000Z</time>
      </trkpt>
      <trkpt lat="42.31942822225391864776611328125" lon="2.31240975670516490936279296875">
        <ele>1164.199951171875</ele>
        <time>2020-08-09T11:19:00.000Z</time>
      </trkpt>
      <trkpt lat="42.3194306530058383941650390625" lon="2.3124012909829616546630859375">
        <ele>1164.4000244140625</ele>
        <time>2020-08-09T11:19:01.000Z</time>
      </trkpt>
      <trkpt lat="42.3194319941103458404541015625" lon="2.31238159351050853729248046875">
        <ele>1164.800048828125</ele>
        <time>2020-08-09T11:19:03.000Z</time>
      </trkpt>
      <trkpt lat="42.3194252885878086090087890625" lon="2.31232996098697185516357421875">
        <ele>1165.4000244140625</ele>
        <time>2020-08-09T11:19:08.000Z</time>
      </trkpt>
      <trkpt lat="42.31940123252570629119873046875" lon="2.312283106148242950439453125">
        <ele>1166.199951171875</ele>
        <time>2020-08-09T11:19:15.000Z</time>
      </trkpt>
      <trkpt lat="42.31937575154006481170654296875" lon="2.3122530989348888397216796875">
        <ele>1167</ele>
        <time>2020-08-09T11:19:20.000Z</time>
      </trkpt>
      <trkpt lat="42.31936150230467319488525390625" lon="2.31223390437662601470947265625">
        <ele>1167.4000244140625</ele>
        <time>2020-08-09T11:19:23.000Z</time>
      </trkpt>
      <trkpt lat="42.31933568604290485382080078125" lon="2.31220121495425701141357421875">
        <ele>1168.199951171875</ele>
        <time>2020-08-09T11:19:29.000Z</time>
      </trkpt>
      <trkpt lat="42.31933233328163623809814453125" lon="2.31219383887946605682373046875">
        <ele>1168.4000244140625</ele>
        <time>2020-08-09T11:19:30.000Z</time>
      </trkpt>
      <trkpt lat="42.31931691057980060577392578125" lon="2.31215645559132099151611328125">
        <ele>1169.4000244140625</ele>
        <time>2020-08-09T11:19:35.000Z</time>
      </trkpt>
      <trkpt lat="42.319307439029216766357421875" lon="2.3121327348053455352783203125">
        <ele>1169.800048828125</ele>
        <time>2020-08-09T11:19:39.000Z</time>
      </trkpt>
      <trkpt lat="42.3192988894879817962646484375" lon="2.3121106065809726715087890625">
        <ele>1170.5999755859375</ele>
        <time>2020-08-09T11:19:43.000Z</time>
      </trkpt>
      <trkpt lat="42.31928162276744842529296875" lon="2.3120646737515926361083984375">
        <ele>1171.4000244140625</ele>
        <time>2020-08-09T11:19:50.000Z</time>
      </trkpt>
      <trkpt lat="42.31927885673940181732177734375" lon="2.31205872260034084320068359375">
        <ele>1171.5999755859375</ele>
        <time>2020-08-09T11:19:51.000Z</time>
      </trkpt>
      <trkpt lat="42.31925773434340953826904296875" lon="2.3120257817208766937255859375">
        <ele>1173</ele>
        <time>2020-08-09T11:19:57.000Z</time>
      </trkpt>
      <trkpt lat="42.31924482621252536773681640625" lon="2.31201597489416599273681640625">
        <ele>1173.199951171875</ele>
        <time>2020-08-09T11:20:00.000Z</time>
      </trkpt>
      <trkpt lat="42.31921113096177577972412109375" lon="2.31197389774024486541748046875">
        <ele>1174</ele>
        <time>2020-08-09T11:20:08.000Z</time>
      </trkpt>
      <trkpt lat="42.31920652091503143310546875" lon="2.31196962296962738037109375">
        <ele>1174.4000244140625</ele>
        <time>2020-08-09T11:20:09.000Z</time>
      </trkpt>
      <trkpt lat="42.319188751280307769775390625" lon="2.31196417473256587982177734375">
        <ele>1175</ele>
        <time>2020-08-09T11:20:13.000Z</time>
      </trkpt>
      <trkpt lat="42.31916385702788829803466796875" lon="2.3119657672941684722900390625">
        <ele>1176</ele>
        <time>2020-08-09T11:20:20.000Z</time>
      </trkpt>
      <trkpt lat="42.31916519813239574432373046875" lon="2.3119661025702953338623046875">
        <ele>1176</ele>
        <time>2020-08-09T11:20:23.000Z</time>
      </trkpt>
      <trkpt lat="42.3191577382385730743408203125" lon="2.31195076368749141693115234375">
        <ele>1176.199951171875</ele>
        <time>2020-08-09T11:20:42.000Z</time>
      </trkpt>
      <trkpt lat="42.31914290226995944976806640625" lon="2.3118648491799831390380859375">
        <ele>1177</ele>
        <time>2020-08-09T11:20:52.000Z</time>
      </trkpt>
      <trkpt lat="42.31914524920284748077392578125" lon="2.31185638345777988433837890625">
        <ele>1177.4000244140625</ele>
        <time>2020-08-09T11:20:53.000Z</time>
      </trkpt>
      <trkpt lat="42.3191768489778041839599609375" lon="2.3118172399699687957763671875">
        <ele>1178.4000244140625</ele>
        <time>2020-08-09T11:20:59.000Z</time>
      </trkpt>
      <trkpt lat="42.31918313540518283843994140625" lon="2.31181128881871700286865234375">
        <ele>1178.5999755859375</ele>
        <time>2020-08-09T11:21:00.000Z</time>
      </trkpt>
      <trkpt lat="42.31921993196010589599609375" lon="2.3117959499359130859375">
        <ele>1179.4000244140625</ele>
        <time>2020-08-09T11:21:05.000Z</time>
      </trkpt>
      <trkpt lat="42.31924784369766712188720703125" lon="2.311790250241756439208984375">
        <ele>1180</ele>
        <time>2020-08-09T11:21:09.000Z</time>
      </trkpt>
      <trkpt lat="42.31928589753806591033935546875" lon="2.31178991496562957763671875">
        <ele>1180.5999755859375</ele>
        <time>2020-08-09T11:21:15.000Z</time>
      </trkpt>
      <trkpt lat="42.31931640766561031341552734375" lon="2.3117880709469318389892578125">
        <ele>1181.800048828125</ele>
        <time>2020-08-09T11:21:20.000Z</time>
      </trkpt>
      <trkpt lat="42.31936074793338775634765625" lon="2.31181346811354160308837890625">
        <ele>1182.800048828125</ele>
        <time>2020-08-09T11:21:27.000Z</time>
      </trkpt>
      <trkpt lat="42.319380529224872589111328125" lon="2.31183442287147045135498046875">
        <ele>1183.199951171875</ele>
        <time>2020-08-09T11:21:30.000Z</time>
      </trkpt>
      <trkpt lat="42.31939838267862796783447265625" lon="2.31185403652489185333251953125">
        <ele>1183.5999755859375</ele>
        <time>2020-08-09T11:21:33.000Z</time>
      </trkpt>
      <trkpt lat="42.31944062747061252593994140625" lon="2.3119000531733036041259765625">
        <ele>1184.4000244140625</ele>
        <time>2020-08-09T11:21:39.000Z</time>
      </trkpt>
      <trkpt lat="42.319455631077289581298828125" lon="2.31191187165677547454833984375">
        <ele>1184.800048828125</ele>
        <time>2020-08-09T11:21:41.000Z</time>
      </trkpt>
      <trkpt lat="42.3194641806185245513916015625" lon="2.311912961304187774658203125">
        <ele>1184.800048828125</ele>
        <time>2020-08-09T11:21:42.000Z</time>
      </trkpt>
      <trkpt lat="42.3194785974919795989990234375" lon="2.31189225800335407257080078125">
        <ele>1185</ele>
        <time>2020-08-09T11:21:45.000Z</time>
      </trkpt>
      <trkpt lat="42.3194447346031665802001953125" lon="2.311813049018383026123046875">
        <ele>1185.4000244140625</ele>
        <time>2020-08-09T11:21:52.000Z</time>
      </trkpt>
      <trkpt lat="42.31943727470934391021728515625" lon="2.311802990734577178955078125">
        <ele>1185.4000244140625</ele>
        <time>2020-08-09T11:21:53.000Z</time>
      </trkpt>
      <trkpt lat="42.31940089724957942962646484375" lon="2.3117535375058650970458984375">
        <ele>1185.800048828125</ele>
        <time>2020-08-09T11:21:58.000Z</time>
      </trkpt>
      <trkpt lat="42.31938111595809459686279296875" lon="2.31170517392456531524658203125">
        <ele>1186.4000244140625</ele>
        <time>2020-08-09T11:22:03.000Z</time>
      </trkpt>
      <trkpt lat="42.3193713091313838958740234375" lon="2.3116415552794933319091796875">
        <ele>1187</ele>
        <time>2020-08-09T11:22:09.000Z</time>
      </trkpt>
      <trkpt lat="42.31937541626393795013427734375" lon="2.3116043396294116973876953125">
        <ele>1187.4000244140625</ele>
        <time>2020-08-09T11:22:13.000Z</time>
      </trkpt>
      <trkpt lat="42.3193770088255405426025390625" lon="2.31160375289618968963623046875">
        <ele>1187.800048828125</ele>
        <time>2020-08-09T11:22:20.000Z</time>
      </trkpt>
      <trkpt lat="42.319378517568111419677734375" lon="2.3115862347185611724853515625">
        <ele>1188</ele>
        <time>2020-08-09T11:22:24.000Z</time>
      </trkpt>
      <trkpt lat="42.31937843374907970428466796875" lon="2.311554215848445892333984375">
        <ele>1188.4000244140625</ele>
        <time>2020-08-09T11:22:27.000Z</time>
      </trkpt>
      <trkpt lat="42.31937675736844539642333984375" lon="2.31147131882607936859130859375">
        <ele>1189.199951171875</ele>
        <time>2020-08-09T11:22:34.000Z</time>
      </trkpt>
      <trkpt lat="42.31937122531235218048095703125" lon="2.31141842901706695556640625">
        <ele>1189.800048828125</ele>
        <time>2020-08-09T11:22:39.000Z</time>
      </trkpt>
      <trkpt lat="42.319369800388813018798828125" lon="2.3113957978785037994384765625">
        <ele>1190.199951171875</ele>
        <time>2020-08-09T11:22:41.000Z</time>
      </trkpt>
      <trkpt lat="42.3193533718585968017578125" lon="2.31132052838802337646484375">
        <ele>1191.199951171875</ele>
        <time>2020-08-09T11:22:48.000Z</time>
      </trkpt>
      <trkpt lat="42.31934976764023303985595703125" lon="2.31130175292491912841796875">
        <ele>1191.4000244140625</ele>
        <time>2020-08-09T11:22:50.000Z</time>
      </trkpt>
      <trkpt lat="42.31933266855776309967041015625" lon="2.31123025529086589813232421875">
        <ele>1192.4000244140625</ele>
        <time>2020-08-09T11:22:57.000Z</time>
      </trkpt>
      <trkpt lat="42.3193304054439067840576171875" lon="2.31121868826448917388916015625">
        <ele>1192.5999755859375</ele>
        <time>2020-08-09T11:22:58.000Z</time>
      </trkpt>
      <trkpt lat="42.31931523419916629791259765625" lon="2.311181388795375823974609375">
        <ele>1193.4000244140625</ele>
        <time>2020-08-09T11:23:02.000Z</time>
      </trkpt>
      <trkpt lat="42.31929260306060314178466796875" lon="2.31113268993794918060302734375">
        <ele>1194</ele>
        <time>2020-08-09T11:23:07.000Z</time>
      </trkpt>
      <trkpt lat="42.31927935965359210968017578125" lon="2.31110486201941967010498046875">
        <ele>1194.4000244140625</ele>
        <time>2020-08-09T11:23:10.000Z</time>
      </trkpt>
      <trkpt lat="42.31926075182855129241943359375" lon="2.3110199533402919769287109375">
        <ele>1195.4000244140625</ele>
        <time>2020-08-09T11:23:18.000Z</time>
      </trkpt>
      <trkpt lat="42.31926125474274158477783203125" lon="2.31100805103778839111328125">
        <ele>1195.5999755859375</ele>
        <time>2020-08-09T11:23:19.000Z</time>
      </trkpt>
      <trkpt lat="42.31927852146327495574951171875" lon="2.31094309128820896148681640625">
        <ele>1196.5999755859375</ele>
        <time>2020-08-09T11:23:25.000Z</time>
      </trkpt>
      <trkpt lat="42.3192915134131908416748046875" lon="2.31091660447418689727783203125">
        <ele>1197</ele>
        <time>2020-08-09T11:23:28.000Z</time>
      </trkpt>
      <trkpt lat="42.31931037269532680511474609375" lon="2.3108717612922191619873046875">
        <ele>1197.5999755859375</ele>
        <time>2020-08-09T11:23:33.000Z</time>
      </trkpt>
      <trkpt lat="42.3193337582051753997802734375" lon="2.3108325339853763580322265625">
        <ele>1198.5999755859375</ele>
        <time>2020-08-09T11:23:39.000Z</time>
      </trkpt>
      <trkpt lat="42.3193404637277126312255859375" lon="2.31081836856901645660400390625">
        <ele>1198.800048828125</ele>
        <time>2020-08-09T11:23:41.000Z</time>
      </trkpt>
      <trkpt lat="42.31935940682888031005859375" lon="2.310790121555328369140625">
        <ele>1199.800048828125</ele>
        <time>2020-08-09T11:23:47.000Z</time>
      </trkpt>
      <trkpt lat="42.31935949064791202545166015625" lon="2.31079003773629665374755859375">
        <ele>1200</ele>
        <time>2020-08-09T11:23:48.000Z</time>
      </trkpt>
      <trkpt lat="42.3193726502358913421630859375" lon="2.31077059172093868255615234375">
        <ele>1200.4000244140625</ele>
        <time>2020-08-09T11:24:04.000Z</time>
      </trkpt>
      <trkpt lat="42.31938497163355350494384765625" lon="2.3107430152595043182373046875">
        <ele>1201</ele>
        <time>2020-08-09T11:24:08.000Z</time>
      </trkpt>
      <trkpt lat="42.3194038309156894683837890625" lon="2.31069599278271198272705078125">
        <ele>1201.800048828125</ele>
        <time>2020-08-09T11:24:15.000Z</time>
      </trkpt>
      <trkpt lat="42.3194061778485774993896484375" lon="2.31068794615566730499267578125">
        <ele>1202</ele>
        <time>2020-08-09T11:24:16.000Z</time>
      </trkpt>
      <trkpt lat="42.3194360174238681793212890625" lon="2.31063564307987689971923828125">
        <ele>1203</ele>
        <time>2020-08-09T11:24:23.000Z</time>
      </trkpt>
      <trkpt lat="42.31943878345191478729248046875" lon="2.31062659062445163726806640625">
        <ele>1203.199951171875</ele>
        <time>2020-08-09T11:24:24.000Z</time>
      </trkpt>
      <trkpt lat="42.31944448314607143402099609375" lon="2.31055987067520618438720703125">
        <ele>1204.199951171875</ele>
        <time>2020-08-09T11:24:31.000Z</time>
      </trkpt>
      <trkpt lat="42.31944934464991092681884765625" lon="2.31052315793931484222412109375">
        <ele>1204.800048828125</ele>
        <time>2020-08-09T11:24:35.000Z</time>
      </trkpt>
      <trkpt lat="42.31945353560149669647216796875" lon="2.31049030087888240814208984375">
        <ele>1205.4000244140625</ele>
        <time>2020-08-09T11:24:39.000Z</time>
      </trkpt>
      <trkpt lat="42.3194628395140171051025390625" lon="2.3104369081556797027587890625">
        <ele>1206.4000244140625</ele>
        <time>2020-08-09T11:24:45.000Z</time>
      </trkpt>
      <trkpt lat="42.319470383226871490478515625" lon="2.3103582859039306640625">
        <ele>1207.5999755859375</ele>
        <time>2020-08-09T11:24:53.000Z</time>
      </trkpt>
      <trkpt lat="42.31947264634072780609130859375" lon="2.31033741496503353118896484375">
        <ele>1208</ele>
        <time>2020-08-09T11:24:55.000Z</time>
      </trkpt>
      <trkpt lat="42.31947415508329868316650390625" lon="2.31029416434466838836669921875">
        <ele>1208.5999755859375</ele>
        <time>2020-08-09T11:25:00.000Z</time>
      </trkpt>
      <trkpt lat="42.31947650201618671417236328125" lon="2.3102592118084430694580078125">
        <ele>1209</ele>
        <time>2020-08-09T11:25:04.000Z</time>
      </trkpt>
      <trkpt lat="42.31946610845625400543212890625" lon="2.310198359191417694091796875">
        <ele>1209.5999755859375</ele>
        <time>2020-08-09T11:25:10.000Z</time>
      </trkpt>
      <trkpt lat="42.31946761719882488250732421875" lon="2.31017899699509143829345703125">
        <ele>1210</ele>
        <time>2020-08-09T11:25:12.000Z</time>
      </trkpt>
      <trkpt lat="42.31946392916142940521240234375" lon="2.3101348243653774261474609375">
        <ele>1210.800048828125</ele>
        <time>2020-08-09T11:25:17.000Z</time>
      </trkpt>
      <trkpt lat="42.3194544576108455657958984375" lon="2.31011043302714824676513671875">
        <ele>1211.4000244140625</ele>
        <time>2020-08-09T11:25:20.000Z</time>
      </trkpt>
      <trkpt lat="42.31944414786994457244873046875" lon="2.3100657574832439422607421875">
        <ele>1211.800048828125</ele>
        <time>2020-08-09T11:25:25.000Z</time>
      </trkpt>
      <trkpt lat="42.319432832300662994384765625" lon="2.31001705862581729888916015625">
        <ele>1212.800048828125</ele>
        <time>2020-08-09T11:25:30.000Z</time>
      </trkpt>
      <trkpt lat="42.31943182647228240966796875" lon="2.3100070841610431671142578125">
        <ele>1213</ele>
        <time>2020-08-09T11:25:31.000Z</time>
      </trkpt>
      <trkpt lat="42.3194286413490772247314453125" lon="2.3099202476441860198974609375">
        <ele>1213.800048828125</ele>
        <time>2020-08-09T11:25:39.000Z</time>
      </trkpt>
      <trkpt lat="42.31943040154874324798583984375" lon="2.309859730303287506103515625">
        <ele>1214</ele>
        <time>2020-08-09T11:25:44.000Z</time>
      </trkpt>
      <trkpt lat="42.319432161748409271240234375" lon="2.30980868451297283172607421875">
        <ele>1214.5999755859375</ele>
        <time>2020-08-09T11:25:49.000Z</time>
      </trkpt>
      <trkpt lat="42.319428808987140655517578125" lon="2.30976208113133907318115234375">
        <ele>1215.199951171875</ele>
        <time>2020-08-09T11:25:54.000Z</time>
      </trkpt>
      <trkpt lat="42.31942889280617237091064453125" lon="2.3097373545169830322265625">
        <ele>1215.800048828125</ele>
        <time>2020-08-09T11:25:57.000Z</time>
      </trkpt>
      <trkpt lat="42.3194299824535846710205078125" lon="2.309727966785430908203125">
        <ele>1216</ele>
        <time>2020-08-09T11:25:58.000Z</time>
      </trkpt>
      <trkpt lat="42.3194333352148532867431640625" lon="2.309710197150707244873046875">
        <ele>1216.199951171875</ele>
        <time>2020-08-09T11:26:00.000Z</time>
      </trkpt>
      <trkpt lat="42.31943526305258274078369140625" lon="2.3096553795039653778076171875">
        <ele>1217.199951171875</ele>
        <time>2020-08-09T11:26:06.000Z</time>
      </trkpt>
      <trkpt lat="42.31943358667194843292236328125" lon="2.30964791961014270782470703125">
        <ele>1217.4000244140625</ele>
        <time>2020-08-09T11:26:07.000Z</time>
      </trkpt>
      <trkpt lat="42.31941439211368560791015625" lon="2.30958673171699047088623046875">
        <ele>1218.4000244140625</ele>
        <time>2020-08-09T11:26:15.000Z</time>
      </trkpt>
      <trkpt lat="42.3193981312215328216552734375" lon="2.309515736997127532958984375">
        <ele>1219.4000244140625</ele>
        <time>2020-08-09T11:26:24.000Z</time>
      </trkpt>
      <trkpt lat="42.31939419172704219818115234375" lon="2.30950643308460712432861328125">
        <ele>1219.800048828125</ele>
        <time>2020-08-09T11:26:26.000Z</time>
      </trkpt>
      <trkpt lat="42.31937994249165058135986328125" lon="2.30947994627058506011962890625">
        <ele>1220.5999755859375</ele>
        <time>2020-08-09T11:26:30.000Z</time>
      </trkpt>
      <trkpt lat="42.3193495161831378936767578125" lon="2.30943501926958560943603515625">
        <ele>1221.199951171875</ele>
        <time>2020-08-09T11:26:37.000Z</time>
      </trkpt>
      <trkpt lat="42.31934540905058383941650390625" lon="2.30942848138511180877685546875">
        <ele>1221.4000244140625</ele>
        <time>2020-08-09T11:26:38.000Z</time>
      </trkpt>
      <trkpt lat="42.3193223588168621063232421875" lon="2.3093640245497226715087890625">
        <ele>1222.4000244140625</ele>
        <time>2020-08-09T11:26:46.000Z</time>
      </trkpt>
      <trkpt lat="42.31931976042687892913818359375" lon="2.30935488827526569366455078125">
        <ele>1222.5999755859375</ele>
        <time>2020-08-09T11:26:47.000Z</time>
      </trkpt>
      <trkpt lat="42.31930132023990154266357421875" lon="2.30929319746792316436767578125">
        <ele>1223.4000244140625</ele>
        <time>2020-08-09T11:26:54.000Z</time>
      </trkpt>
      <trkpt lat="42.31929930858314037322998046875" lon="2.30928339064121246337890625">
        <ele>1223.800048828125</ele>
        <time>2020-08-09T11:26:55.000Z</time>
      </trkpt>
      <trkpt lat="42.3192817904055118560791015625" lon="2.3091970570385456085205078125">
        <ele>1224.4000244140625</ele>
        <time>2020-08-09T11:27:03.000Z</time>
      </trkpt>
      <trkpt lat="42.3192777670919895172119140625" lon="2.30912757106125354766845703125">
        <ele>1224.5999755859375</ele>
        <time>2020-08-09T11:27:11.000Z</time>
      </trkpt>
      <trkpt lat="42.3192777670919895172119140625" lon="2.3091283254325389862060546875">
        <ele>1224.800048828125</ele>
        <time>2020-08-09T11:27:14.000Z</time>
      </trkpt>
      <trkpt lat="42.31927516870200634002685546875" lon="2.30912874452769756317138671875">
        <ele>1224.800048828125</ele>
        <time>2020-08-09T11:27:26.000Z</time>
      </trkpt>
      <trkpt lat="42.31927466578781604766845703125" lon="2.30912790633738040924072265625">
        <ele>1225</ele>
        <time>2020-08-09T11:27:47.000Z</time>
      </trkpt>
      <trkpt lat="42.3192757554352283477783203125" lon="2.30912673287093639373779296875">
        <ele>1224.800048828125</ele>
        <time>2020-08-09T11:28:06.000Z</time>
      </trkpt>
      <trkpt lat="42.31927491724491119384765625" lon="2.3090726695954799652099609375">
        <ele>1225.199951171875</ele>
        <time>2020-08-09T11:28:15.000Z</time>
      </trkpt>
      <trkpt lat="42.31927902437746524810791015625" lon="2.3090227134525775909423828125">
        <ele>1225.4000244140625</ele>
        <time>2020-08-09T11:28:18.000Z</time>
      </trkpt>
      <trkpt lat="42.31927785091102123260498046875" lon="2.30898968875408172607421875">
        <ele>1225.5999755859375</ele>
        <time>2020-08-09T11:28:20.000Z</time>
      </trkpt>
      <trkpt lat="42.31928120367228984832763671875" lon="2.30893411673605442047119140625">
        <ele>1226.199951171875</ele>
        <time>2020-08-09T11:28:23.000Z</time>
      </trkpt>
      <trkpt lat="42.31928137131035327911376953125" lon="2.30887812562286853790283203125">
        <ele>1226.5999755859375</ele>
        <time>2020-08-09T11:28:26.000Z</time>
      </trkpt>
      <trkpt lat="42.319288663566112518310546875" lon="2.3087890259921550750732421875">
        <ele>1227.5999755859375</ele>
        <time>2020-08-09T11:28:31.000Z</time>
      </trkpt>
      <trkpt lat="42.31929008848965167999267578125" lon="2.3087709210813045501708984375">
        <ele>1227.5999755859375</ele>
        <time>2020-08-09T11:28:32.000Z</time>
      </trkpt>
      <trkpt lat="42.31929746456444263458251953125" lon="2.3086854256689548492431640625">
        <ele>1229</ele>
        <time>2020-08-09T11:28:37.000Z</time>
      </trkpt>
      <trkpt lat="42.31930601410567760467529296875" lon="2.3086539097130298614501953125">
        <ele>1229.4000244140625</ele>
        <time>2020-08-09T11:28:39.000Z</time>
      </trkpt>
      <trkpt lat="42.31932814233005046844482421875" lon="2.30862331576645374298095703125">
        <ele>1229.800048828125</ele>
        <time>2020-08-09T11:28:41.000Z</time>
      </trkpt>
      <trkpt lat="42.31932814233005046844482421875" lon="2.30862331576645374298095703125">
        <ele>1230</ele>
        <time>2020-08-09T11:28:42.000Z</time>
      </trkpt>
      <trkpt lat="42.3193371109664440155029296875" lon="2.3086217232048511505126953125">
        <ele>1230.199951171875</ele>
        <time>2020-08-09T11:28:43.000Z</time>
      </trkpt>
      <trkpt lat="42.31935965828597545623779296875" lon="2.30863471515476703643798828125">
        <ele>1230.5999755859375</ele>
        <time>2020-08-09T11:28:45.000Z</time>
      </trkpt>
      <trkpt lat="42.3193760029971599578857421875" lon="2.30866304598748683929443359375">
        <ele>1231</ele>
        <time>2020-08-09T11:28:47.000Z</time>
      </trkpt>
      <trkpt lat="42.31939754448831081390380859375" lon="2.30870830826461315155029296875">
        <ele>1231.4000244140625</ele>
        <time>2020-08-09T11:28:50.000Z</time>
      </trkpt>
      <trkpt lat="42.31942721642553806304931640625" lon="2.30876245535910129547119140625">
        <ele>1232.199951171875</ele>
        <time>2020-08-09T11:28:53.000Z</time>
      </trkpt>
      <trkpt lat="42.319461666047573089599609375" lon="2.30877377092838287353515625">
        <ele>1233.199951171875</ele>
        <time>2020-08-09T11:28:57.000Z</time>
      </trkpt>
      <trkpt lat="42.3194792680442333221435546875" lon="2.30875239707529544830322265625">
        <ele>1233.5999755859375</ele>
        <time>2020-08-09T11:28:59.000Z</time>
      </trkpt>
      <trkpt lat="42.31948656029999256134033203125" lon="2.30872054584324359893798828125">
        <ele>1234.4000244140625</ele>
        <time>2020-08-09T11:29:01.000Z</time>
      </trkpt>
      <trkpt lat="42.31948186643421649932861328125" lon="2.30863094329833984375">
        <ele>1235.5999755859375</ele>
        <time>2020-08-09T11:29:05.000Z</time>
      </trkpt>
      <trkpt lat="42.31948186643421649932861328125" lon="2.30863094329833984375">
        <ele>1235.800048828125</ele>
        <time>2020-08-09T11:29:06.000Z</time>
      </trkpt>
      <trkpt lat="42.3194829560816287994384765625" lon="2.308612167835235595703125">
        <ele>1236</ele>
        <time>2020-08-09T11:29:07.000Z</time>
      </trkpt>
      <trkpt lat="42.3194889910519123077392578125" lon="2.3085794784128665924072265625">
        <ele>1236.5999755859375</ele>
        <time>2020-08-09T11:29:09.000Z</time>
      </trkpt>
      <trkpt lat="42.3194980435073375701904296875" lon="2.30855139903724193572998046875">
        <ele>1237</ele>
        <time>2020-08-09T11:29:11.000Z</time>
      </trkpt>
      <trkpt lat="42.3195235244929790496826171875" lon="2.30853178538382053375244140625">
        <ele>1237.199951171875</ele>
        <time>2020-08-09T11:29:20.000Z</time>
      </trkpt>
      <trkpt lat="42.319534756243228912353515625" lon="2.3085221461951732635498046875">
        <ele>1237.4000244140625</ele>
        <time>2020-08-09T11:29:22.000Z</time>
      </trkpt>
      <trkpt lat="42.31956484727561473846435546875" lon="2.30852709151804447174072265625">
        <ele>1238.4000244140625</ele>
        <time>2020-08-09T11:29:28.000Z</time>
      </trkpt>
      <trkpt lat="42.3195952735841274261474609375" lon="2.3085519857704639434814453125">
        <ele>1239.5999755859375</ele>
        <time>2020-08-09T11:29:35.000Z</time>
      </trkpt>
      <trkpt lat="42.31959569267928600311279296875" lon="2.3085529915988445281982421875">
        <ele>1239.800048828125</ele>
        <time>2020-08-09T11:29:38.000Z</time>
      </trkpt>
      <trkpt lat="42.31961614452302455902099609375" lon="2.308580316603183746337890625">
        <ele>1240.199951171875</ele>
        <time>2020-08-09T11:29:47.000Z</time>
      </trkpt>
      <trkpt lat="42.3196247778832912445068359375" lon="2.3085893690586090087890625">
        <ele>1240.5999755859375</ele>
        <time>2020-08-09T11:29:49.000Z</time>
      </trkpt>
      <trkpt lat="42.319660484790802001953125" lon="2.3086297698318958282470703125">
        <ele>1241.5999755859375</ele>
        <time>2020-08-09T11:29:56.000Z</time>
      </trkpt>
      <trkpt lat="42.319665849208831787109375" lon="2.308633290231227874755859375">
        <ele>1241.800048828125</ele>
        <time>2020-08-09T11:29:57.000Z</time>
      </trkpt>
      <trkpt lat="42.319700717926025390625" lon="2.30867318809032440185546875">
        <ele>1242.5999755859375</ele>
        <time>2020-08-09T11:30:04.000Z</time>
      </trkpt>
      <trkpt lat="42.3197114467620849609375" lon="2.3086864314973354339599609375">
        <ele>1242.800048828125</ele>
        <time>2020-08-09T11:30:06.000Z</time>
      </trkpt>
      <trkpt lat="42.319754697382450103759765625" lon="2.308721803128719329833984375">
        <ele>1243.5999755859375</ele>
        <time>2020-08-09T11:30:13.000Z</time>
      </trkpt>
      <trkpt lat="42.319770790636539459228515625" lon="2.308741249144077301025390625">
        <ele>1244</ele>
        <time>2020-08-09T11:30:16.000Z</time>
      </trkpt>
      <trkpt lat="42.31979669071733951568603515625" lon="2.30878005735576152801513671875">
        <ele>1245</ele>
        <time>2020-08-09T11:30:21.000Z</time>
      </trkpt>
      <trkpt lat="42.31983013451099395751953125" lon="2.30881861411035060882568359375">
        <ele>1245.800048828125</ele>
        <time>2020-08-09T11:30:27.000Z</time>
      </trkpt>
      <trkpt lat="42.3198420368134975433349609375" lon="2.30883135460317134857177734375">
        <ele>1246</ele>
        <time>2020-08-09T11:30:29.000Z</time>
      </trkpt>
      <trkpt lat="42.31989442370831966400146484375" lon="2.30889807455241680145263671875">
        <ele>1247</ele>
        <time>2020-08-09T11:30:38.000Z</time>
      </trkpt>
      <trkpt lat="42.3199474811553955078125" lon="2.30894451029598712921142578125">
        <ele>1247.800048828125</ele>
        <time>2020-08-09T11:30:46.000Z</time>
      </trkpt>
      <trkpt lat="42.31995393522083759307861328125" lon="2.3089502938091754913330078125">
        <ele>1248</ele>
        <time>2020-08-09T11:30:47.000Z</time>
      </trkpt>
      <trkpt lat="42.31999509036540985107421875" lon="2.309006117284297943115234375">
        <ele>1248.800048828125</ele>
        <time>2020-08-09T11:30:55.000Z</time>
      </trkpt>
      <trkpt lat="42.32000389136373996734619140625" lon="2.3090158402919769287109375">
        <ele>1249</ele>
        <time>2020-08-09T11:30:57.000Z</time>
      </trkpt>
      <trkpt lat="42.3200321383774280548095703125" lon="2.3090582527220249176025390625">
        <ele>1249.199951171875</ele>
        <time>2020-08-09T11:31:01.000Z</time>
      </trkpt>
      <trkpt lat="42.32008569873869419097900390625" lon="2.30910879559814929962158203125">
        <ele>1249.800048828125</ele>
        <time>2020-08-09T11:31:09.000Z</time>
      </trkpt>
      <trkpt lat="42.320100367069244384765625" lon="2.30912907980382442474365234375">
        <ele>1250.199951171875</ele>
        <time>2020-08-09T11:31:12.000Z</time>
      </trkpt>
      <trkpt lat="42.320118136703968048095703125" lon="2.30914785526692867279052734375">
        <ele>1250.5999755859375</ele>
        <time>2020-08-09T11:31:16.000Z</time>
      </trkpt>
      <trkpt lat="42.3201323859393596649169921875" lon="2.30917098931968212127685546875">
        <ele>1251</ele>
        <time>2020-08-09T11:31:20.000Z</time>
      </trkpt>
      <trkpt lat="42.320153675973415374755859375" lon="2.309198565781116485595703125">
        <ele>1251.5999755859375</ele>
        <time>2020-08-09T11:31:25.000Z</time>
      </trkpt>
      <trkpt lat="42.32016063295304775238037109375" lon="2.30921541340649127960205078125">
        <ele>1252</ele>
        <time>2020-08-09T11:31:29.000Z</time>
      </trkpt>
      <trkpt lat="42.32016415335237979888916015625" lon="2.309220023453235626220703125">
        <ele>1252.199951171875</ele>
        <time>2020-08-09T11:31:33.000Z</time>
      </trkpt>
      <trkpt lat="42.320193909108638763427734375" lon="2.3092627711594104766845703125">
        <ele>1253</ele>
        <time>2020-08-09T11:31:41.000Z</time>
      </trkpt>
      <trkpt lat="42.32020254246890544891357421875" lon="2.3092879168689250946044921875">
        <ele>1253.5999755859375</ele>
        <time>2020-08-09T11:31:44.000Z</time>
      </trkpt>
      <trkpt lat="42.3202249221503734588623046875" lon="2.30932404287159442901611328125">
        <ele>1254.199951171875</ele>
        <time>2020-08-09T11:31:50.000Z</time>
      </trkpt>
      <trkpt lat="42.32023556716740131378173828125" lon="2.309336364269256591796875">
        <ele>1254.4000244140625</ele>
        <time>2020-08-09T11:31:52.000Z</time>
      </trkpt>
      <trkpt lat="42.32025937177240848541259765625" lon="2.3093663714826107025146484375">
        <ele>1255.199951171875</ele>
        <time>2020-08-09T11:31:57.000Z</time>
      </trkpt>
      <trkpt lat="42.32028082944452762603759765625" lon="2.30939746834337711334228515625">
        <ele>1255.5999755859375</ele>
        <time>2020-08-09T11:32:02.000Z</time>
      </trkpt>
      <trkpt lat="42.3202926479279994964599609375" lon="2.30942361988127231597900390625">
        <ele>1256</ele>
        <time>2020-08-09T11:32:05.000Z</time>
      </trkpt>
      <trkpt lat="42.32031452469527721405029296875" lon="2.30948279611766338348388671875">
        <ele>1256.800048828125</ele>
        <time>2020-08-09T11:32:11.000Z</time>
      </trkpt>
      <trkpt lat="42.32031762599945068359375" lon="2.30949503369629383087158203125">
        <ele>1257</ele>
        <time>2020-08-09T11:32:13.000Z</time>
      </trkpt>
      <trkpt lat="42.32033698819577693939208984375" lon="2.3095474205911159515380859375">
        <ele>1257.5999755859375</ele>
        <time>2020-08-09T11:32:19.000Z</time>
      </trkpt>
      <trkpt lat="42.32035224325954914093017578125" lon="2.309589497745037078857421875">
        <ele>1258.199951171875</ele>
        <time>2020-08-09T11:32:24.000Z</time>
      </trkpt>
      <trkpt lat="42.3203768022358417510986328125" lon="2.30963417328894138336181640625">
        <ele>1259</ele>
        <time>2020-08-09T11:32:30.000Z</time>
      </trkpt>
      <trkpt lat="42.3203885369002819061279296875" lon="2.30965630151331424713134765625">
        <ele>1259.199951171875</ele>
        <time>2020-08-09T11:32:33.000Z</time>
      </trkpt>
      <trkpt lat="42.32040806673467159271240234375" lon="2.30969603173434734344482421875">
        <ele>1260.199951171875</ele>
        <time>2020-08-09T11:32:39.000Z</time>
      </trkpt>
      <trkpt lat="42.32041083276271820068359375" lon="2.30970139615237712860107421875">
        <ele>1260.4000244140625</ele>
        <time>2020-08-09T11:32:40.000Z</time>
      </trkpt>
      <trkpt lat="42.32044360600411891937255859375" lon="2.309762500226497650146484375">
        <ele>1261.4000244140625</ele>
        <time>2020-08-09T11:32:50.000Z</time>
      </trkpt>
      <trkpt lat="42.3204602859914302825927734375" lon="2.309792675077915191650390625">
        <ele>1262.199951171875</ele>
        <time>2020-08-09T11:32:58.000Z</time>
      </trkpt>
      <trkpt lat="42.3204599507153034210205078125" lon="2.3097915016114711761474609375">
        <ele>1262.4000244140625</ele>
        <time>2020-08-09T11:33:01.000Z</time>
      </trkpt>
      <trkpt lat="42.32047797180712223052978515625" lon="2.30983190238475799560546875">
        <ele>1262.800048828125</ele>
        <time>2020-08-09T11:33:05.000Z</time>
      </trkpt>
      <trkpt lat="42.32050965540111064910888671875" lon="2.30990524403750896453857421875">
        <ele>1263.5999755859375</ele>
        <time>2020-08-09T11:33:13.000Z</time>
      </trkpt>
      <trkpt lat="42.32051485218107700347900390625" lon="2.3099135421216487884521484375">
        <ele>1263.800048828125</ele>
        <time>2020-08-09T11:33:14.000Z</time>
      </trkpt>
      <trkpt lat="42.32053815387189388275146484375" lon="2.3099537752568721771240234375">
        <ele>1264.5999755859375</ele>
        <time>2020-08-09T11:33:19.000Z</time>
      </trkpt>
      <trkpt lat="42.3205608688294887542724609375" lon="2.309973053634166717529296875">
        <ele>1265</ele>
        <time>2020-08-09T11:33:23.000Z</time>
      </trkpt>
      <trkpt lat="42.32058224268257617950439453125" lon="2.3099846206605434417724609375">
        <ele>1265.5999755859375</ele>
        <time>2020-08-09T11:33:26.000Z</time>
      </trkpt>
      <trkpt lat="42.32063069008290767669677734375" lon="2.30997598730027675628662109375">
        <ele>1266.4000244140625</ele>
        <time>2020-08-09T11:33:33.000Z</time>
      </trkpt>
      <trkpt lat="42.32064192183315753936767578125" lon="2.30997162871062755584716796875">
        <ele>1266.5999755859375</ele>
        <time>2020-08-09T11:33:35.000Z</time>
      </trkpt>
      <trkpt lat="42.32066941447556018829345703125" lon="2.30996374972164630889892578125">
        <ele>1266.5999755859375</ele>
        <time>2020-08-09T11:33:38.000Z</time>
      </trkpt>
      <trkpt lat="42.320680730044841766357421875" lon="2.30994363315403461456298828125">
        <ele>1266.199951171875</ele>
        <time>2020-08-09T11:37:02.000Z</time>
      </trkpt>
      <trkpt lat="42.32069942168891429901123046875" lon="2.3098813556134700775146484375">
        <ele>1266.199951171875</ele>
        <time>2020-08-09T11:37:08.000Z</time>
      </trkpt>
      <trkpt lat="42.3207077197730541229248046875" lon="2.30970449745655059814453125">
        <ele>1266.4000244140625</ele>
        <time>2020-08-09T11:37:15.000Z</time>
      </trkpt>
      <trkpt lat="42.32071517966687679290771484375" lon="2.30957432650029659271240234375">
        <ele>1267.5999755859375</ele>
        <time>2020-08-09T11:37:20.000Z</time>
      </trkpt>
      <trkpt lat="42.320738397538661956787109375" lon="2.3094522021710872650146484375">
        <ele>1267.5999755859375</ele>
        <time>2020-08-09T11:37:25.000Z</time>
      </trkpt>
      <trkpt lat="42.32075943611562252044677734375" lon="2.3092999868094921112060546875">
        <ele>1268.800048828125</ele>
        <time>2020-08-09T11:37:31.000Z</time>
      </trkpt>
      <trkpt lat="42.32076345942914485931396484375" lon="2.30926369316875934600830078125">
        <ele>1268.800048828125</ele>
        <time>2020-08-09T11:37:32.000Z</time>
      </trkpt>
      <trkpt lat="42.3208099789917469024658203125" lon="2.3091097176074981689453125">
        <ele>1268.5999755859375</ele>
        <time>2020-08-09T11:37:37.000Z</time>
      </trkpt>
      <trkpt lat="42.3209186084568500518798828125" lon="2.30892405845224857330322265625">
        <ele>1269.800048828125</ele>
        <time>2020-08-09T11:37:46.000Z</time>
      </trkpt>
      <trkpt lat="42.32095557264983654022216796875" lon="2.3087219707667827606201171875">
        <ele>1270</ele>
        <time>2020-08-09T11:37:54.000Z</time>
      </trkpt>
      <trkpt lat="42.3209199495613574981689453125" lon="2.3085650615394115447998046875">
        <ele>1270.5999755859375</ele>
        <time>2020-08-09T11:38:00.000Z</time>
      </trkpt>
      <trkpt lat="42.32087460346519947052001953125" lon="2.3084748722612857818603515625">
        <ele>1270.800048828125</ele>
        <time>2020-08-09T11:38:04.000Z</time>
      </trkpt>
      <trkpt lat="42.3208237253129482269287109375" lon="2.30840002186596393585205078125">
        <ele>1271.4000244140625</ele>
        <time>2020-08-09T11:38:08.000Z</time>
      </trkpt>
      <trkpt lat="42.32079899869859218597412109375" lon="2.30836448259651660919189453125">
        <ele>1272</ele>
        <time>2020-08-09T11:38:10.000Z</time>
      </trkpt>
      <trkpt lat="42.32071484439074993133544921875" lon="2.3082277737557888031005859375">
        <ele>1273.4000244140625</ele>
        <time>2020-08-09T11:38:18.000Z</time>
      </trkpt>
      <trkpt lat="42.32068735174834728240966796875" lon="2.30817555449903011322021484375">
        <ele>1273.5999755859375</ele>
        <time>2020-08-09T11:38:21.000Z</time>
      </trkpt>
      <trkpt lat="42.32064745388925075531005859375" lon="2.3080809228122234344482421875">
        <ele>1274.199951171875</ele>
        <time>2020-08-09T11:38:26.000Z</time>
      </trkpt>
      <trkpt lat="42.32061342336237430572509765625" lon="2.308006323873996734619140625">
        <ele>1274.800048828125</ele>
        <time>2020-08-09T11:38:29.000Z</time>
      </trkpt>
      <trkpt lat="42.32059716247022151947021484375" lon="2.30797220952808856964111328125">
        <ele>1275.4000244140625</ele>
        <time>2020-08-09T11:38:32.000Z</time>
      </trkpt>
      <trkpt lat="42.32056346721947193145751953125" lon="2.307875566184520721435546875">
        <ele>1275.800048828125</ele>
        <time>2020-08-09T11:38:37.000Z</time>
      </trkpt>
      <trkpt lat="42.32052356936037540435791015625" lon="2.30778001248836517333984375">
        <ele>1276.4000244140625</ele>
        <time>2020-08-09T11:38:41.000Z</time>
      </trkpt>
      <trkpt lat="42.3204750381410121917724609375" lon="2.30766207911074161529541015625">
        <ele>1277</ele>
        <time>2020-08-09T11:38:47.000Z</time>
      </trkpt>
      <trkpt lat="42.3204582743346691131591796875" lon="2.30762503109872341156005859375">
        <ele>1277.4000244140625</ele>
        <time>2020-08-09T11:38:50.000Z</time>
      </trkpt>
      <trkpt lat="42.32040873728692531585693359375" lon="2.3075029067695140838623046875">
        <ele>1278.5999755859375</ele>
        <time>2020-08-09T11:38:57.000Z</time>
      </trkpt>
      <trkpt lat="42.3203928954899311065673828125" lon="2.30745169334113597869873046875">
        <ele>1278.5999755859375</ele>
        <time>2020-08-09T11:38:59.000Z</time>
      </trkpt>
      <trkpt lat="42.3203597031533718109130859375" lon="2.30736787430942058563232421875">
        <ele>1279.4000244140625</ele>
        <time>2020-08-09T11:39:04.000Z</time>
      </trkpt>
      <trkpt lat="42.3203402571380138397216796875" lon="2.3072789423167705535888671875">
        <ele>1280.4000244140625</ele>
        <time>2020-08-09T11:39:10.000Z</time>
      </trkpt>
      <trkpt lat="42.3203231580555438995361328125" lon="2.3071159981191158294677734375">
        <ele>1281.5999755859375</ele>
        <time>2020-08-09T11:39:17.000Z</time>
      </trkpt>
      <trkpt lat="42.3203231580555438995361328125" lon="2.3071159981191158294677734375">
        <ele>1281.800048828125</ele>
        <time>2020-08-09T11:39:18.000Z</time>
      </trkpt>
      <trkpt lat="42.32031301595270633697509765625" lon="2.3070392198860645294189453125">
        <ele>1282</ele>
        <time>2020-08-09T11:39:22.000Z</time>
      </trkpt>
      <trkpt lat="42.32029960490763187408447265625" lon="2.306978367269039154052734375">
        <ele>1282.199951171875</ele>
        <time>2020-08-09T11:39:25.000Z</time>
      </trkpt>
      <trkpt lat="42.32025098986923694610595703125" lon="2.3067703284323215484619140625">
        <ele>1282.4000244140625</ele>
        <time>2020-08-09T11:39:34.000Z</time>
      </trkpt>
      <trkpt lat="42.3202331364154815673828125" lon="2.30669681914150714874267578125">
        <ele>1282.800048828125</ele>
        <time>2020-08-09T11:39:37.000Z</time>
      </trkpt>
      <trkpt lat="42.3201887123286724090576171875" lon="2.30653739534318447113037109375">
        <ele>1283.199951171875</ele>
        <time>2020-08-09T11:39:44.000Z</time>
      </trkpt>
      <trkpt lat="42.32012392021715641021728515625" lon="2.3063069768249988555908203125">
        <ele>1283.800048828125</ele>
        <time>2020-08-09T11:39:53.000Z</time>
      </trkpt>
      <trkpt lat="42.3200582899153232574462890625" lon="2.30615015141665935516357421875">
        <ele>1283.5999755859375</ele>
        <time>2020-08-09T11:40:01.000Z</time>
      </trkpt>
      <trkpt lat="42.319927029311656951904296875" lon="2.3059723712503910064697265625">
        <ele>1283.800048828125</ele>
        <time>2020-08-09T11:40:10.000Z</time>
      </trkpt>
      <trkpt lat="42.31984195299446582794189453125" lon="2.30585343204438686370849609375">
        <ele>1284.5999755859375</ele>
        <time>2020-08-09T11:40:17.000Z</time>
      </trkpt>
      <trkpt lat="42.31983072124421596527099609375" lon="2.30583599768579006195068359375">
        <ele>1284.5999755859375</ele>
        <time>2020-08-09T11:40:18.000Z</time>
      </trkpt>
      <trkpt lat="42.319741286337375640869140625" lon="2.30570272542536258697509765625">
        <ele>1285.199951171875</ele>
        <time>2020-08-09T11:40:27.000Z</time>
      </trkpt>
      <trkpt lat="42.31970080174505710601806640625" lon="2.30566550977528095245361328125">
        <ele>1285.800048828125</ele>
        <time>2020-08-09T11:40:30.000Z</time>
      </trkpt>
      <trkpt lat="42.31961564160883426666259765625" lon="2.3055596463382244110107421875">
        <ele>1286.5999755859375</ele>
        <time>2020-08-09T11:40:36.000Z</time>
      </trkpt>
      <trkpt lat="42.3195386119186878204345703125" lon="2.30542100965976715087890625">
        <ele>1287.4000244140625</ele>
        <time>2020-08-09T11:40:44.000Z</time>
      </trkpt>
      <trkpt lat="42.3195386119186878204345703125" lon="2.30542100965976715087890625">
        <ele>1287.5999755859375</ele>
        <time>2020-08-09T11:40:45.000Z</time>
      </trkpt>
      <trkpt lat="42.31949510984122753143310546875" lon="2.30536040849983692169189453125">
        <ele>1288.4000244140625</ele>
        <time>2020-08-09T11:40:48.000Z</time>
      </trkpt>
      <trkpt lat="42.31947071850299835205078125" lon="2.30532386340200901031494140625">
        <ele>1288.800048828125</ele>
        <time>2020-08-09T11:40:50.000Z</time>
      </trkpt>
      <trkpt lat="42.3194319941103458404541015625" lon="2.30526007711887359619140625">
        <ele>1289</ele>
        <time>2020-08-09T11:40:55.000Z</time>
      </trkpt>
      <trkpt lat="42.31938648037612438201904296875" lon="2.30518162250518798828125">
        <ele>1289.800048828125</ele>
        <time>2020-08-09T11:40:59.000Z</time>
      </trkpt>
      <trkpt lat="42.3193589039146900177001953125" lon="2.30513577349483966827392578125">
        <ele>1290.800048828125</ele>
        <time>2020-08-09T11:41:03.000Z</time>
      </trkpt>
      <trkpt lat="42.31934976764023303985595703125" lon="2.30512135662138462066650390625">
        <ele>1291</ele>
        <time>2020-08-09T11:41:04.000Z</time>
      </trkpt>
      <trkpt lat="42.31929360888898372650146484375" lon="2.30503032915294170379638671875">
        <ele>1291.800048828125</ele>
        <time>2020-08-09T11:41:10.000Z</time>
      </trkpt>
      <trkpt lat="42.319279611110687255859375" lon="2.304996885359287261962890625">
        <ele>1292</ele>
        <time>2020-08-09T11:41:11.000Z</time>
      </trkpt>
      <trkpt lat="42.3192375339567661285400390625" lon="2.30488431639969348907470703125">
        <ele>1293</ele>
        <time>2020-08-09T11:41:17.000Z</time>
      </trkpt>
      <trkpt lat="42.319229654967784881591796875" lon="2.3048683069646358489990234375">
        <ele>1293.4000244140625</ele>
        <time>2020-08-09T11:41:18.000Z</time>
      </trkpt>
      <trkpt lat="42.31922253035008907318115234375" lon="2.3048401437699794769287109375">
        <ele>1293.800048828125</ele>
        <time>2020-08-09T11:41:20.000Z</time>
      </trkpt>
      <trkpt lat="42.3192184232175350189208984375" lon="2.30482413433492183685302734375">
        <ele>1294</ele>
        <time>2020-08-09T11:41:22.000Z</time>
      </trkpt>
      <trkpt lat="42.31919621117413043975830078125" lon="2.30477769859135150909423828125">
        <ele>1294.5999755859375</ele>
        <time>2020-08-09T11:41:25.000Z</time>
      </trkpt>
      <trkpt lat="42.31915631331503391265869140625" lon="2.30472388677299022674560546875">
        <ele>1295.199951171875</ele>
        <time>2020-08-09T11:41:28.000Z</time>
      </trkpt>
      <trkpt lat="42.3191175051033496856689453125" lon="2.3046704940497875213623046875">
        <ele>1295.4000244140625</ele>
        <time>2020-08-09T11:41:32.000Z</time>
      </trkpt>
      <trkpt lat="42.31907819397747516632080078125" lon="2.30459379963576793670654296875">
        <ele>1296</ele>
        <time>2020-08-09T11:41:38.000Z</time>
      </trkpt>
      <trkpt lat="42.31902790255844593048095703125" lon="2.304488606750965118408203125">
        <ele>1297.199951171875</ele>
        <time>2020-08-09T11:41:44.000Z</time>
      </trkpt>
      <trkpt lat="42.31899823062121868133544921875" lon="2.3044119961559772491455078125">
        <ele>1298.199951171875</ele>
        <time>2020-08-09T11:41:50.000Z</time>
      </trkpt>
      <trkpt lat="42.31896839104592800140380859375" lon="2.304357178509235382080078125">
        <ele>1299</ele>
        <time>2020-08-09T11:41:54.000Z</time>
      </trkpt>
      <trkpt lat="42.31894391588866710662841796875" lon="2.30431585572659969329833984375">
        <ele>1299.4000244140625</ele>
        <time>2020-08-09T11:41:57.000Z</time>
      </trkpt>
      <trkpt lat="42.31890636496245861053466796875" lon="2.30423958040773868560791015625">
        <ele>1300.4000244140625</ele>
        <time>2020-08-09T11:42:02.000Z</time>
      </trkpt>
      <trkpt lat="42.318899743258953094482421875" lon="2.3042239062488079071044921875">
        <ele>1300.5999755859375</ele>
        <time>2020-08-09T11:42:03.000Z</time>
      </trkpt>
      <trkpt lat="42.3188563250005245208740234375" lon="2.30409960262477397918701171875">
        <ele>1301.5999755859375</ele>
        <time>2020-08-09T11:42:10.000Z</time>
      </trkpt>
      <trkpt lat="42.31885054148733615875244140625" lon="2.304088957607746124267578125">
        <ele>1302.199951171875</ele>
        <time>2020-08-09T11:42:15.000Z</time>
      </trkpt>
      <trkpt lat="42.31885238550603389739990234375" lon="2.30409021489322185516357421875">
        <ele>1302.199951171875</ele>
        <time>2020-08-09T11:42:32.000Z</time>
      </trkpt>
      <trkpt lat="42.31883629225194454193115234375" lon="2.3040430247783660888671875">
        <ele>1302.4000244140625</ele>
        <time>2020-08-09T11:42:38.000Z</time>
      </trkpt>
      <trkpt lat="42.31883629225194454193115234375" lon="2.3040430247783660888671875">
        <ele>1302.5999755859375</ele>
        <time>2020-08-09T11:42:39.000Z</time>
      </trkpt>
      <trkpt lat="42.31880846433341503143310546875" lon="2.303973622620105743408203125">
        <ele>1303.5999755859375</ele>
        <time>2020-08-09T11:42:46.000Z</time>
      </trkpt>
      <trkpt lat="42.3187976516783237457275390625" lon="2.30394872836768627166748046875">
        <ele>1303.5999755859375</ele>
        <time>2020-08-09T11:42:48.000Z</time>
      </trkpt>
      <trkpt lat="42.31877694837749004364013671875" lon="2.30388033203780651092529296875">
        <ele>1304.5999755859375</ele>
        <time>2020-08-09T11:42:55.000Z</time>
      </trkpt>
      <trkpt lat="42.31876621954143047332763671875" lon="2.30384596623480319976806640625">
        <ele>1305.199951171875</ele>
        <time>2020-08-09T11:42:58.000Z</time>
      </trkpt>
      <trkpt lat="42.31875859200954437255859375" lon="2.30382786132395267486572265625">
        <ele>1305.800048828125</ele>
        <time>2020-08-09T11:43:01.000Z</time>
      </trkpt>
      <trkpt lat="42.31874392367899417877197265625" lon="2.30376650579273700714111328125">
        <ele>1306.5999755859375</ele>
        <time>2020-08-09T11:43:08.000Z</time>
      </trkpt>
      <trkpt lat="42.31873051263391971588134765625" lon="2.30370850302278995513916015625">
        <ele>1307.5999755859375</ele>
        <time>2020-08-09T11:43:15.000Z</time>
      </trkpt>
      <trkpt lat="42.3187289200723171234130859375" lon="2.30369861237704753875732421875">
        <ele>1307.800048828125</ele>
        <time>2020-08-09T11:43:16.000Z</time>
      </trkpt>
      <trkpt lat="42.3187242262065410614013671875" lon="2.3036737181246280670166015625">
        <ele>1308.199951171875</ele>
        <time>2020-08-09T11:43:18.000Z</time>
      </trkpt>
      <trkpt lat="42.3187175206840038299560546875" lon="2.303623259067535400390625">
        <ele>1308.800048828125</ele>
        <time>2020-08-09T11:43:25.000Z</time>
      </trkpt>
      <trkpt lat="42.3187111504375934600830078125" lon="2.3035764880478382110595703125">
        <ele>1309.800048828125</ele>
        <time>2020-08-09T11:43:31.000Z</time>
      </trkpt>
      <trkpt lat="42.3187114857137203216552734375" lon="2.30357204563915729522705078125">
        <ele>1310</ele>
        <time>2020-08-09T11:43:32.000Z</time>
      </trkpt>
      <trkpt lat="42.318702600896358489990234375" lon="2.30354622937738895416259765625">
        <ele>1310.4000244140625</ele>
        <time>2020-08-09T11:43:37.000Z</time>
      </trkpt>
      <trkpt lat="42.31868525035679340362548828125" lon="2.30347749777138233184814453125">
        <ele>1310.800048828125</ele>
        <time>2020-08-09T11:43:43.000Z</time>
      </trkpt>
      <trkpt lat="42.31867820955812931060791015625" lon="2.303433828055858612060546875">
        <ele>1311</ele>
        <time>2020-08-09T11:43:46.000Z</time>
      </trkpt>
      <trkpt lat="42.3186598531901836395263671875" lon="2.30336182750761508941650390625">
        <ele>1311.800048828125</ele>
        <time>2020-08-09T11:43:55.000Z</time>
      </trkpt>
      <trkpt lat="42.318625487387180328369140625" lon="2.30326845310628414154052734375">
        <ele>1312.800048828125</ele>
        <time>2020-08-09T11:44:04.000Z</time>
      </trkpt>
      <trkpt lat="42.31861836276948451995849609375" lon="2.30324883945286273956298828125">
        <ele>1313</ele>
        <time>2020-08-09T11:44:06.000Z</time>
      </trkpt>
      <trkpt lat="42.31860545463860034942626953125" lon="2.303215898573398590087890625">
        <ele>1314</ele>
        <time>2020-08-09T11:44:10.000Z</time>
      </trkpt>
      <trkpt lat="42.318594641983509063720703125" lon="2.30316468514502048492431640625">
        <ele>1314.4000244140625</ele>
        <time>2020-08-09T11:44:16.000Z</time>
      </trkpt>
      <trkpt lat="42.3185860924422740936279296875" lon="2.30313308537006378173828125">
        <ele>1315</ele>
        <time>2020-08-09T11:44:21.000Z</time>
      </trkpt>
      <trkpt lat="42.31858022511005401611328125" lon="2.3031178303062915802001953125">
        <ele>1315</ele>
        <time>2020-08-09T11:44:22.000Z</time>
      </trkpt>
      <trkpt lat="42.3185699991881847381591796875" lon="2.3031007312238216400146484375">
        <ele>1315.800048828125</ele>
        <time>2020-08-09T11:44:27.000Z</time>
      </trkpt>
      <trkpt lat="42.3185532353818416595458984375" lon="2.3030651919543743133544921875">
        <ele>1315.5999755859375</ele>
        <time>2020-08-09T11:44:54.000Z</time>
      </trkpt>
      <trkpt lat="42.3185218870639801025390625" lon="2.30299620889127254486083984375">
        <ele>1315.5999755859375</ele>
        <time>2020-08-09T11:45:02.000Z</time>
      </trkpt>
      <trkpt lat="42.31851057149469852447509765625" lon="2.3029743321239948272705078125">
        <ele>1315.800048828125</ele>
        <time>2020-08-09T11:45:05.000Z</time>
      </trkpt>
      <trkpt lat="42.3184979148209095001220703125" lon="2.30294876731932163238525390625">
        <ele>1316.5999755859375</ele>
        <time>2020-08-09T11:45:09.000Z</time>
      </trkpt>
      <trkpt lat="42.3184724338352680206298828125" lon="2.30289679951965808868408203125">
        <ele>1317</ele>
        <time>2020-08-09T11:45:14.000Z</time>
      </trkpt>
      <trkpt lat="42.31845474801957607269287109375" lon="2.30286352336406707763671875">
        <ele>1317.800048828125</ele>
        <time>2020-08-09T11:45:19.000Z</time>
      </trkpt>
      <trkpt lat="42.31840563006699085235595703125" lon="2.3027681373059749603271484375">
        <ele>1318.5999755859375</ele>
        <time>2020-08-09T11:45:29.000Z</time>
      </trkpt>
      <trkpt lat="42.3184006847441196441650390625" lon="2.3027600906789302825927734375">
        <ele>1318.800048828125</ele>
        <time>2020-08-09T11:45:30.000Z</time>
      </trkpt>
      <trkpt lat="42.31837394647300243377685546875" lon="2.30269395746290683746337890625">
        <ele>1319.800048828125</ele>
        <time>2020-08-09T11:45:38.000Z</time>
      </trkpt>
      <trkpt lat="42.318365313112735748291015625" lon="2.3026806302368640899658203125">
        <ele>1320</ele>
        <time>2020-08-09T11:45:40.000Z</time>
      </trkpt>
      <trkpt lat="42.31835424900054931640625" lon="2.30264936573803424835205078125">
        <ele>1320.800048828125</ele>
        <time>2020-08-09T11:45:45.000Z</time>
      </trkpt>
      <trkpt lat="42.318347208201885223388671875" lon="2.30262212455272674560546875">
        <ele>1321</ele>
        <time>2020-08-09T11:45:48.000Z</time>
      </trkpt>
      <trkpt lat="42.31834142468869686126708984375" lon="2.30260510928928852081298828125">
        <ele>1321.199951171875</ele>
        <time>2020-08-09T11:45:51.000Z</time>
      </trkpt>
      <trkpt lat="42.3183208890259265899658203125" lon="2.30253235436975955963134765625">
        <ele>1321.800048828125</ele>
        <time>2020-08-09T11:45:58.000Z</time>
      </trkpt>
      <trkpt lat="42.3183141835033893585205078125" lon="2.3025150038301944732666015625">
        <ele>1322.4000244140625</ele>
        <time>2020-08-09T11:46:01.000Z</time>
      </trkpt>
      <trkpt lat="42.3183011077344417572021484375" lon="2.302478961646556854248046875">
        <ele>1322.800048828125</ele>
        <time>2020-08-09T11:46:04.000Z</time>
      </trkpt>
      <trkpt lat="42.31828786432743072509765625" lon="2.30242959223687648773193359375">
        <ele>1323.199951171875</ele>
        <time>2020-08-09T11:46:09.000Z</time>
      </trkpt>
      <trkpt lat="42.3182508163154125213623046875" lon="2.302337475121021270751953125">
        <ele>1323.800048828125</ele>
        <time>2020-08-09T11:46:16.000Z</time>
      </trkpt>
      <trkpt lat="42.318244278430938720703125" lon="2.30232037603855133056640625">
        <ele>1323.800048828125</ele>
        <time>2020-08-09T11:46:19.000Z</time>
      </trkpt>
      <trkpt lat="42.31820630840957164764404296875" lon="2.30223731137812137603759765625">
        <ele>1324.5999755859375</ele>
        <time>2020-08-09T11:46:27.000Z</time>
      </trkpt>
      <trkpt lat="42.31817998923361301422119140625" lon="2.30217327363789081573486328125">
        <ele>1324.800048828125</ele>
        <time>2020-08-09T11:46:32.000Z</time>
      </trkpt>
      <trkpt lat="42.31816314160823822021484375" lon="2.3021277599036693572998046875">
        <ele>1325.800048828125</ele>
        <time>2020-08-09T11:46:37.000Z</time>
      </trkpt>
      <trkpt lat="42.31815367005765438079833984375" lon="2.30210906825959682464599609375">
        <ele>1326</ele>
        <time>2020-08-09T11:46:38.000Z</time>
      </trkpt>
      <trkpt lat="42.3181227408349514007568359375" lon="2.30202399194240570068359375">
        <ele>1326.4000244140625</ele>
        <time>2020-08-09T11:46:48.000Z</time>
      </trkpt>
      <trkpt lat="42.3181247524917125701904296875" lon="2.30202591978013515472412109375">
        <ele>1326.5999755859375</ele>
        <time>2020-08-09T11:46:55.000Z</time>
      </trkpt>
      <trkpt lat="42.3181249201297760009765625" lon="2.30202591978013515472412109375">
        <ele>1326.800048828125</ele>
        <time>2020-08-09T11:46:59.000Z</time>
      </trkpt>
      <trkpt lat="42.3181249201297760009765625" lon="2.3020251654088497161865234375">
        <ele>1326.5999755859375</ele>
        <time>2020-08-09T11:47:14.000Z</time>
      </trkpt>
      <trkpt lat="42.31812550686299800872802734375" lon="2.30202357284724712371826171875">
        <ele>1326.5999755859375</ele>
        <time>2020-08-09T11:48:03.000Z</time>
      </trkpt>
      <trkpt lat="42.31812265701591968536376953125" lon="2.30202189646661281585693359375">
        <ele>1326.800048828125</ele>
        <time>2020-08-09T11:48:09.000Z</time>
      </trkpt>
      <trkpt lat="42.318125925958156585693359375" lon="2.3020241595804691314697265625">
        <ele>1327</ele>
        <time>2020-08-09T11:49:51.000Z</time>
      </trkpt>
      <trkpt lat="42.31812701560556888580322265625" lon="2.3020228184759616851806640625">
        <ele>1327.199951171875</ele>
        <time>2020-08-09T11:49:53.000Z</time>
      </trkpt>
      <trkpt lat="42.31808460317552089691162109375" lon="2.30194360949099063873291015625">
        <ele>1328.199951171875</ele>
        <time>2020-08-09T11:50:03.000Z</time>
      </trkpt>
      <trkpt lat="42.31807001866400241851806640625" lon="2.30192047543823719024658203125">
        <ele>1328.199951171875</ele>
        <time>2020-08-09T11:50:04.000Z</time>
      </trkpt>
      <trkpt lat="42.31801159679889678955078125" lon="2.30183330364525318145751953125">
        <ele>1328.800048828125</ele>
        <time>2020-08-09T11:50:13.000Z</time>
      </trkpt>
      <trkpt lat="42.31800531037151813507080078125" lon="2.301822490990161895751953125">
        <ele>1329.4000244140625</ele>
        <time>2020-08-09T11:50:15.000Z</time>
      </trkpt>
      <trkpt lat="42.31796340085566043853759765625" lon="2.30174395255744457244873046875">
        <ele>1329.800048828125</ele>
        <time>2020-08-09T11:50:22.000Z</time>
      </trkpt>
      <trkpt lat="42.31795258820056915283203125" lon="2.30172484181821346282958984375">
        <ele>1330.199951171875</ele>
        <time>2020-08-09T11:50:24.000Z</time>
      </trkpt>
      <trkpt lat="42.3179286159574985504150390625" lon="2.301691733300685882568359375">
        <ele>1330.800048828125</ele>
        <time>2020-08-09T11:50:28.000Z</time>
      </trkpt>
      <trkpt lat="42.31790774501860141754150390625" lon="2.30165292508900165557861328125">
        <ele>1331.4000244140625</ele>
        <time>2020-08-09T11:50:32.000Z</time>
      </trkpt>
      <trkpt lat="42.31790774501860141754150390625" lon="2.30165292508900165557861328125">
        <ele>1331.800048828125</ele>
        <time>2020-08-09T11:50:33.000Z</time>
      </trkpt>
      <trkpt lat="42.31788746081292629241943359375" lon="2.30160556733608245849609375">
        <ele>1332.5999755859375</ele>
        <time>2020-08-09T11:50:37.000Z</time>
      </trkpt>
      <trkpt lat="42.31785946525633335113525390625" lon="2.30155535973608493804931640625">
        <ele>1333</ele>
        <time>2020-08-09T11:50:42.000Z</time>
      </trkpt>
      <trkpt lat="42.31785091571509838104248046875" lon="2.301535494625568389892578125">
        <ele>1333.5999755859375</ele>
        <time>2020-08-09T11:50:45.000Z</time>
      </trkpt>
      <trkpt lat="42.3178451322019100189208984375" lon="2.301515378057956695556640625">
        <ele>1334</ele>
        <time>2020-08-09T11:50:48.000Z</time>
      </trkpt>
      <trkpt lat="42.31783599592745304107666015625" lon="2.30149534530937671661376953125">
        <ele>1334.5999755859375</ele>
        <time>2020-08-09T11:50:51.000Z</time>
      </trkpt>
      <trkpt lat="42.3178132809698581695556640625" lon="2.30140951462090015411376953125">
        <ele>1335.5999755859375</ele>
        <time>2020-08-09T11:50:58.000Z</time>
      </trkpt>
      <trkpt lat="42.31781168840825557708740234375" lon="2.301401384174823760986328125">
        <ele>1335.800048828125</ele>
        <time>2020-08-09T11:50:59.000Z</time>
      </trkpt>
      <trkpt lat="42.3177945055067539215087890625" lon="2.3013358376920223236083984375">
        <ele>1336.5999755859375</ele>
        <time>2020-08-09T11:51:07.000Z</time>
      </trkpt>
      <trkpt lat="42.317792661488056182861328125" lon="2.3013286292552947998046875">
        <ele>1337</ele>
        <time>2020-08-09T11:51:09.000Z</time>
      </trkpt>
      <trkpt lat="42.31778352521359920501708984375" lon="2.30125486850738525390625">
        <ele>1338</ele>
        <time>2020-08-09T11:51:17.000Z</time>
      </trkpt>
      <trkpt lat="42.31777614913880825042724609375" lon="2.30118219740688800811767578125">
        <ele>1339</ele>
        <time>2020-08-09T11:51:25.000Z</time>
      </trkpt>
      <trkpt lat="42.31777564622461795806884765625" lon="2.30117373168468475341796875">
        <ele>1339.4000244140625</ele>
        <time>2020-08-09T11:51:27.000Z</time>
      </trkpt>
      <trkpt lat="42.31776676140725612640380859375" lon="2.30113760568201541900634765625">
        <ele>1340</ele>
        <time>2020-08-09T11:51:30.000Z</time>
      </trkpt>
      <trkpt lat="42.31776240281760692596435546875" lon="2.30110525153577327728271484375">
        <ele>1341</ele>
        <time>2020-08-09T11:51:34.000Z</time>
      </trkpt>
      <trkpt lat="42.31776022352278232574462890625" lon="2.30109737254679203033447265625">
        <ele>1341</ele>
        <time>2020-08-09T11:51:35.000Z</time>
      </trkpt>
      <trkpt lat="42.31772518716752529144287109375" lon="2.301018498837947845458984375">
        <ele>1341.5999755859375</ele>
        <time>2020-08-09T11:51:43.000Z</time>
      </trkpt>
      <trkpt lat="42.31770716607570648193359375" lon="2.300977595150470733642578125">
        <ele>1342</ele>
        <time>2020-08-09T11:51:48.000Z</time>
      </trkpt>
      <trkpt lat="42.31768931262195110321044921875" lon="2.300935350358486175537109375">
        <ele>1342.5999755859375</ele>
        <time>2020-08-09T11:51:53.000Z</time>
      </trkpt>
      <trkpt lat="42.31768378056585788726806640625" lon="2.3009204305708408355712890625">
        <ele>1343</ele>
        <time>2020-08-09T11:51:55.000Z</time>
      </trkpt>
      <trkpt lat="42.31766550801694393157958984375" lon="2.30085932649672031402587890625">
        <ele>1343.800048828125</ele>
        <time>2020-08-09T11:52:03.000Z</time>
      </trkpt>
      <trkpt lat="42.31765477918088436126708984375" lon="2.30080702342092990875244140625">
        <ele>1344</ele>
        <time>2020-08-09T11:52:07.000Z</time>
      </trkpt>
      <trkpt lat="42.31764413416385650634765625" lon="2.300730831921100616455078125">
        <ele>1344.5999755859375</ele>
        <time>2020-08-09T11:52:14.000Z</time>
      </trkpt>
      <trkpt lat="42.317641116678714752197265625" lon="2.300701327621936798095703125">
        <ele>1345</ele>
        <time>2020-08-09T11:52:17.000Z</time>
      </trkpt>
      <trkpt lat="42.31762477196753025054931640625" lon="2.30060317553579807281494140625">
        <ele>1346</ele>
        <time>2020-08-09T11:52:25.000Z</time>
      </trkpt>
      <trkpt lat="42.31762175448238849639892578125" lon="2.3005901835858821868896484375">
        <ele>1346</ele>
        <time>2020-08-09T11:52:26.000Z</time>
      </trkpt>
      <trkpt lat="42.31761203147470951080322265625" lon="2.3005695641040802001953125">
        <ele>1346.5999755859375</ele>
        <time>2020-08-09T11:52:28.000Z</time>
      </trkpt>
      <trkpt lat="42.31759157963097095489501953125" lon="2.30053536593914031982421875">
        <ele>1347</ele>
        <time>2020-08-09T11:52:32.000Z</time>
      </trkpt>
      <trkpt lat="42.3175574652850627899169921875" lon="2.3004631139338016510009765625">
        <ele>1348.199951171875</ele>
        <time>2020-08-09T11:52:41.000Z</time>
      </trkpt>
      <trkpt lat="42.31755201704800128936767578125" lon="2.30043947696685791015625">
        <ele>1348.199951171875</ele>
        <time>2020-08-09T11:52:44.000Z</time>
      </trkpt>
      <trkpt lat="42.317527122795581817626953125" lon="2.300372757017612457275390625">
        <ele>1349.199951171875</ele>
        <time>2020-08-09T11:52:54.000Z</time>
      </trkpt>
      <trkpt lat="42.317527122795581817626953125" lon="2.300372757017612457275390625">
        <ele>1349.4000244140625</ele>
        <time>2020-08-09T11:52:55.000Z</time>
      </trkpt>
      <trkpt lat="42.3175199143588542938232421875" lon="2.300325147807598114013671875">
        <ele>1350.5999755859375</ele>
        <time>2020-08-09T11:52:59.000Z</time>
      </trkpt>
      <trkpt lat="42.3175158910453319549560546875" lon="2.300296314060688018798828125">
        <ele>1351.4000244140625</ele>
        <time>2020-08-09T11:53:03.000Z</time>
      </trkpt>
      <trkpt lat="42.317512035369873046875" lon="2.30026672594249248504638671875">
        <ele>1351.5999755859375</ele>
        <time>2020-08-09T11:53:05.000Z</time>
      </trkpt>
      <trkpt lat="42.3175061680376529693603515625" lon="2.30022012256085872650146484375">
        <ele>1352.800048828125</ele>
        <time>2020-08-09T11:53:10.000Z</time>
      </trkpt>
      <trkpt lat="42.3175048269331455230712890625" lon="2.30018843896687030792236328125">
        <ele>1353.800048828125</ele>
        <time>2020-08-09T11:53:14.000Z</time>
      </trkpt>
      <trkpt lat="42.3174971155822277069091796875" lon="2.3001197911798954010009765625">
        <ele>1354.800048828125</ele>
        <time>2020-08-09T11:53:23.000Z</time>
      </trkpt>
      <trkpt lat="42.31749619357287883758544921875" lon="2.300101853907108306884765625">
        <ele>1355.199951171875</ele>
        <time>2020-08-09T11:53:27.000Z</time>
      </trkpt>
      <trkpt lat="42.31748730875551700592041015625" lon="2.30005935765802860260009765625">
        <ele>1355.5999755859375</ele>
        <time>2020-08-09T11:53:33.000Z</time>
      </trkpt>
      <trkpt lat="42.3174796812236309051513671875" lon="2.3000446893274784088134765625">
        <ele>1355.800048828125</ele>
        <time>2020-08-09T11:53:34.000Z</time>
      </trkpt>
      <trkpt lat="42.3174712993204593658447265625" lon="2.30002851225435733795166015625">
        <ele>1356</ele>
        <time>2020-08-09T11:53:36.000Z</time>
      </trkpt>
      <trkpt lat="42.31746166013181209564208984375" lon="2.29999129660427570343017578125">
        <ele>1356.800048828125</ele>
        <time>2020-08-09T11:53:40.000Z</time>
      </trkpt>
      <trkpt lat="42.3174481652677059173583984375" lon="2.2999464534223079681396484375">
        <ele>1357.4000244140625</ele>
        <time>2020-08-09T11:53:46.000Z</time>
      </trkpt>
      <trkpt lat="42.3174371011555194854736328125" lon="2.29991837404668331146240234375">
        <ele>1357.800048828125</ele>
        <time>2020-08-09T11:53:50.000Z</time>
      </trkpt>
      <trkpt lat="42.31741614639759063720703125" lon="2.2998757101595401763916015625">
        <ele>1358.4000244140625</ele>
        <time>2020-08-09T11:53:56.000Z</time>
      </trkpt>
      <trkpt lat="42.31739929877221584320068359375" lon="2.29983933269977569580078125">
        <ele>1358.800048828125</ele>
        <time>2020-08-09T11:54:01.000Z</time>
      </trkpt>
      <trkpt lat="42.3173918388783931732177734375" lon="2.29982114396989345550537109375">
        <ele>1359.199951171875</ele>
        <time>2020-08-09T11:54:05.000Z</time>
      </trkpt>
      <trkpt lat="42.3173921741545200347900390625" lon="2.29981929995119571685791015625">
        <ele>1359.800048828125</ele>
        <time>2020-08-09T11:54:10.000Z</time>
      </trkpt>
      <trkpt lat="42.3173928447067737579345703125" lon="2.299818880856037139892578125">
        <ele>1359.4000244140625</ele>
        <time>2020-08-09T11:54:30.000Z</time>
      </trkpt>
      <trkpt lat="42.3173918388783931732177734375" lon="2.29981921613216400146484375">
        <ele>1359.800048828125</ele>
        <time>2020-08-09T11:54:45.000Z</time>
      </trkpt>
      <trkpt lat="42.317391671240329742431640625" lon="2.29981946758925914764404296875">
        <ele>1359.4000244140625</ele>
        <time>2020-08-09T11:54:49.000Z</time>
      </trkpt>
      <trkpt lat="42.3173770867288112640380859375" lon="2.29978434741497039794921875">
        <ele>1359.4000244140625</ele>
        <time>2020-08-09T11:54:58.000Z</time>
      </trkpt>
      <trkpt lat="42.31737012974917888641357421875" lon="2.29975123889744281768798828125">
        <ele>1360.4000244140625</ele>
        <time>2020-08-09T11:55:03.000Z</time>
      </trkpt>
      <trkpt lat="42.317372225224971771240234375" lon="2.29971854947507381439208984375">
        <ele>1361.199951171875</ele>
        <time>2020-08-09T11:55:07.000Z</time>
      </trkpt>
      <trkpt lat="42.3173723928630352020263671875" lon="2.29971016757190227508544921875">
        <ele>1361.4000244140625</ele>
        <time>2020-08-09T11:55:09.000Z</time>
      </trkpt>
      <trkpt lat="42.31737851165235042572021484375" lon="2.29966104961931705474853515625">
        <ele>1362.5999755859375</ele>
        <time>2020-08-09T11:55:15.000Z</time>
      </trkpt>
      <trkpt lat="42.317387647926807403564453125" lon="2.2996200621128082275390625">
        <ele>1362.800048828125</ele>
        <time>2020-08-09T11:55:19.000Z</time>
      </trkpt>
      <trkpt lat="42.31739762239158153533935546875" lon="2.29957924224436283111572265625">
        <ele>1363.5999755859375</ele>
        <time>2020-08-09T11:55:24.000Z</time>
      </trkpt>
      <trkpt lat="42.31740902177989482879638671875" lon="2.29953029192984104156494140625">
        <ele>1364.5999755859375</ele>
        <time>2020-08-09T11:55:30.000Z</time>
      </trkpt>
      <trkpt lat="42.31740675866603851318359375" lon="2.2994993627071380615234375">
        <ele>1365.5999755859375</ele>
        <time>2020-08-09T11:55:38.000Z</time>
      </trkpt>
      <trkpt lat="42.31740675866603851318359375" lon="2.2994993627071380615234375">
        <ele>1365.800048828125</ele>
        <time>2020-08-09T11:55:39.000Z</time>
      </trkpt>
      <trkpt lat="42.3174062557518482208251953125" lon="2.299462817609310150146484375">
        <ele>1366</ele>
        <time>2020-08-09T11:55:44.000Z</time>
      </trkpt>
      <trkpt lat="42.3174062557518482208251953125" lon="2.299462817609310150146484375">
        <ele>1366</ele>
        <time>2020-08-09T11:55:45.000Z</time>
      </trkpt>
      <trkpt lat="42.3173670284450054168701171875" lon="2.29940322227776050567626953125">
        <ele>1366.800048828125</ele>
        <time>2020-08-09T11:55:52.000Z</time>
      </trkpt>
      <trkpt lat="42.317361496388912200927734375" lon="2.29939676821231842041015625">
        <ele>1367</ele>
        <time>2020-08-09T11:55:53.000Z</time>
      </trkpt>
      <trkpt lat="42.31731749139726161956787109375" lon="2.29936282150447368621826171875">
        <ele>1368</ele>
        <time>2020-08-09T11:56:00.000Z</time>
      </trkpt>
      <trkpt lat="42.317283041775226593017578125" lon="2.2993409447371959686279296875">
        <ele>1369</ele>
        <time>2020-08-09T11:56:05.000Z</time>
      </trkpt>
      <trkpt lat="42.3172634281218051910400390625" lon="2.299326360225677490234375">
        <ele>1370</ele>
        <time>2020-08-09T11:56:09.000Z</time>
      </trkpt>
      <trkpt lat="42.31722612865269184112548828125" lon="2.29929777793586254119873046875">
        <ele>1370.800048828125</ele>
        <time>2020-08-09T11:56:15.000Z</time>
      </trkpt>
      <trkpt lat="42.31721137650310993194580078125" lon="2.29928688146173954010009765625">
        <ele>1371</ele>
        <time>2020-08-09T11:56:16.000Z</time>
      </trkpt>
      <trkpt lat="42.31716133654117584228515625" lon="2.2992651723325252532958984375">
        <ele>1372</ele>
        <time>2020-08-09T11:56:23.000Z</time>
      </trkpt>
      <trkpt lat="42.31713895685970783233642578125" lon="2.29925888590514659881591796875">
        <ele>1372.199951171875</ele>
        <time>2020-08-09T11:56:26.000Z</time>
      </trkpt>
      <trkpt lat="42.3171179182827472686767578125" lon="2.2992531023919582366943359375">
        <ele>1373.199951171875</ele>
        <time>2020-08-09T11:56:29.000Z</time>
      </trkpt>
      <trkpt lat="42.31706335209310054779052734375" lon="2.2992472350597381591796875">
        <ele>1373.800048828125</ele>
        <time>2020-08-09T11:56:36.000Z</time>
      </trkpt>
      <trkpt lat="42.31705664657056331634521484375" lon="2.299245558679103851318359375">
        <ele>1374</ele>
        <time>2020-08-09T11:56:37.000Z</time>
      </trkpt>
      <trkpt lat="42.3170079477131366729736328125" lon="2.29923742823302745819091796875">
        <ele>1375</ele>
        <time>2020-08-09T11:56:44.000Z</time>
      </trkpt>
      <trkpt lat="42.317000739276409149169921875" lon="2.29923583567142486572265625">
        <ele>1375</ele>
        <time>2020-08-09T11:56:45.000Z</time>
      </trkpt>
      <trkpt lat="42.316933684051036834716796875" lon="2.29921865276992321014404296875">
        <ele>1375.5999755859375</ele>
        <time>2020-08-09T11:56:54.000Z</time>
      </trkpt>
      <trkpt lat="42.31691197492182254791259765625" lon="2.29921127669513225555419921875">
        <ele>1376.199951171875</ele>
        <time>2020-08-09T11:56:57.000Z</time>
      </trkpt>
      <trkpt lat="42.31686369515955448150634765625" lon="2.29919292032718658447265625">
        <ele>1377.199951171875</ele>
        <time>2020-08-09T11:57:04.000Z</time>
      </trkpt>
      <trkpt lat="42.3168007470667362213134765625" lon="2.29916081763803958892822265625">
        <ele>1378.199951171875</ele>
        <time>2020-08-09T11:57:15.000Z</time>
      </trkpt>
      <trkpt lat="42.3167655430734157562255859375" lon="2.2991354204714298248291015625">
        <ele>1379.5999755859375</ele>
        <time>2020-08-09T11:57:20.000Z</time>
      </trkpt>
      <trkpt lat="42.31674735434353351593017578125" lon="2.29912326671183109283447265625">
        <ele>1380.199951171875</ele>
        <time>2020-08-09T11:57:23.000Z</time>
      </trkpt>
      <trkpt lat="42.31672841124236583709716796875" lon="2.29910910129547119140625">
        <ele>1380.5999755859375</ele>
        <time>2020-08-09T11:57:27.000Z</time>
      </trkpt>
      <trkpt lat="42.31669605709612369537353515625" lon="2.2990733943879604339599609375">
        <ele>1381.800048828125</ele>
        <time>2020-08-09T11:57:32.000Z</time>
      </trkpt>
      <trkpt lat="42.316684909164905548095703125" lon="2.29906040243804454803466796875">
        <ele>1381.800048828125</ele>
        <time>2020-08-09T11:57:34.000Z</time>
      </trkpt>
      <trkpt lat="42.31667376123368740081787109375" lon="2.29904782958328723907470703125">
        <ele>1382.4000244140625</ele>
        <time>2020-08-09T11:57:41.000Z</time>
      </trkpt>
      <trkpt lat="42.31663696467876434326171875" lon="2.29901396669447422027587890625">
        <ele>1382.800048828125</ele>
        <time>2020-08-09T11:57:47.000Z</time>
      </trkpt>
      <trkpt lat="42.3166228830814361572265625" lon="2.29899519123136997222900390625">
        <ele>1383.4000244140625</ele>
        <time>2020-08-09T11:57:50.000Z</time>
      </trkpt>
      <trkpt lat="42.31661207042634487152099609375" lon="2.298973314464092254638671875">
        <ele>1384</ele>
        <time>2020-08-09T11:57:53.000Z</time>
      </trkpt>
      <trkpt lat="42.3165905289351940155029296875" lon="2.29892201721668243408203125">
        <ele>1385</ele>
        <time>2020-08-09T11:58:00.000Z</time>
      </trkpt>
      <trkpt lat="42.316582985222339630126953125" lon="2.298899553716182708740234375">
        <ele>1385.5999755859375</ele>
        <time>2020-08-09T11:58:03.000Z</time>
      </trkpt>
      <trkpt lat="42.3165767826139926910400390625" lon="2.29886971414089202880859375">
        <ele>1386</ele>
        <time>2020-08-09T11:58:07.000Z</time>
      </trkpt>
      <trkpt lat="42.31656647287309169769287109375" lon="2.2988427244126796722412109375">
        <ele>1386.5999755859375</ele>
        <time>2020-08-09T11:58:11.000Z</time>
      </trkpt>
      <trkpt lat="42.31656177900731563568115234375" lon="2.29883216321468353271484375">
        <ele>1387</ele>
        <time>2020-08-09T11:58:13.000Z</time>
      </trkpt>
      <trkpt lat="42.31654920615255832672119140625" lon="2.2987810336053371429443359375">
        <ele>1388.199951171875</ele>
        <time>2020-08-09T11:58:20.000Z</time>
      </trkpt>
      <trkpt lat="42.31654711067676544189453125" lon="2.2987711429595947265625">
        <ele>1388.4000244140625</ele>
        <time>2020-08-09T11:58:21.000Z</time>
      </trkpt>
      <trkpt lat="42.3165439255535602569580078125" lon="2.29873015545308589935302734375">
        <ele>1389.199951171875</ele>
        <time>2020-08-09T11:58:25.000Z</time>
      </trkpt>
      <trkpt lat="42.31654484756290912628173828125" lon="2.2987213544547557830810546875">
        <ele>1389.4000244140625</ele>
        <time>2020-08-09T11:58:26.000Z</time>
      </trkpt>
      <trkpt lat="42.31655155308544635772705078125" lon="2.2986569814383983612060546875">
        <ele>1389.4000244140625</ele>
        <time>2020-08-09T11:58:31.000Z</time>
      </trkpt>
      <trkpt lat="42.31655004434287548065185546875" lon="2.2986464202404022216796875">
        <ele>1389.4000244140625</ele>
        <time>2020-08-09T11:58:37.000Z</time>
      </trkpt>
      <trkpt lat="42.31655037961900234222412109375" lon="2.29864633642137050628662109375">
        <ele>1389.4000244140625</ele>
        <time>2020-08-09T11:58:58.000Z</time>
      </trkpt>
      <trkpt lat="42.31655054725706577301025390625" lon="2.2986459173262119293212890625">
        <ele>1389.199951171875</ele>
        <time>2020-08-09T11:59:27.000Z</time>
      </trkpt>
      <trkpt lat="42.3165502957999706268310546875" lon="2.2986459173262119293212890625">
        <ele>1389.5999755859375</ele>
        <time>2020-08-09T11:59:52.000Z</time>
      </trkpt>
      <trkpt lat="42.3165502957999706268310546875" lon="2.2986459173262119293212890625">
        <ele>1389.5999755859375</ele>
        <time>2020-08-09T11:59:53.000Z</time>
      </trkpt>
      <trkpt lat="42.316544763743877410888671875" lon="2.2986258007586002349853515625">
        <ele>1389.800048828125</ele>
        <time>2020-08-09T12:00:15.000Z</time>
      </trkpt>
      <trkpt lat="42.31653495691716670989990234375" lon="2.2985808737576007843017578125">
        <ele>1390.4000244140625</ele>
        <time>2020-08-09T12:00:19.000Z</time>
      </trkpt>
      <trkpt lat="42.31652288697659969329833984375" lon="2.2985141538083553314208984375">
        <ele>1390.5999755859375</ele>
        <time>2020-08-09T12:00:25.000Z</time>
      </trkpt>
      <trkpt lat="42.31649002991616725921630859375" lon="2.29841147549450397491455078125">
        <ele>1391</ele>
        <time>2020-08-09T12:00:33.000Z</time>
      </trkpt>
      <trkpt lat="42.3164860904216766357421875" lon="2.298399321734905242919921875">
        <ele>1391.199951171875</ele>
        <time>2020-08-09T12:00:34.000Z</time>
      </trkpt>
      <trkpt lat="42.3164349608123302459716796875" lon="2.2982735931873321533203125">
        <ele>1390.5999755859375</ele>
        <time>2020-08-09T12:00:44.000Z</time>
      </trkpt>
      <trkpt lat="42.3164215497672557830810546875" lon="2.29823847301304340362548828125">
        <ele>1391</ele>
        <time>2020-08-09T12:00:49.000Z</time>
      </trkpt>
      <trkpt lat="42.316399924457073211669921875" lon="2.29818918742239475250244140625">
        <ele>1391.199951171875</ele>
        <time>2020-08-09T12:00:53.000Z</time>
      </trkpt>
      <trkpt lat="42.31637771241366863250732421875" lon="2.2981222160160541534423828125">
        <ele>1392</ele>
        <time>2020-08-09T12:00:58.000Z</time>
      </trkpt>
      <trkpt lat="42.31637083925306797027587890625" lon="2.2980937175452709197998046875">
        <ele>1392.4000244140625</ele>
        <time>2020-08-09T12:01:00.000Z</time>
      </trkpt>
      <trkpt lat="42.3163457773625850677490234375" lon="2.29799791239202022552490234375">
        <ele>1393.4000244140625</ele>
        <time>2020-08-09T12:01:07.000Z</time>
      </trkpt>
      <trkpt lat="42.31634384952485561370849609375" lon="2.29798416607081890106201171875">
        <ele>1393.199951171875</ele>
        <time>2020-08-09T12:01:08.000Z</time>
      </trkpt>
      <trkpt lat="42.31632323004305362701416015625" lon="2.2978627122938632965087890625">
        <ele>1394.199951171875</ele>
        <time>2020-08-09T12:01:18.000Z</time>
      </trkpt>
      <trkpt lat="42.31631032191216945648193359375" lon="2.29778836481273174285888671875">
        <ele>1395.199951171875</ele>
        <time>2020-08-09T12:01:25.000Z</time>
      </trkpt>
      <trkpt lat="42.31630629859864711761474609375" lon="2.29774394072592258453369140625">
        <ele>1396.199951171875</ele>
        <time>2020-08-09T12:01:29.000Z</time>
      </trkpt>
      <trkpt lat="42.316305376589298248291015625" lon="2.2977343015372753143310546875">
        <ele>1396.4000244140625</ele>
        <time>2020-08-09T12:01:30.000Z</time>
      </trkpt>
      <trkpt lat="42.3162998445332050323486328125" lon="2.297665067017078399658203125">
        <ele>1397.4000244140625</ele>
        <time>2020-08-09T12:01:38.000Z</time>
      </trkpt>
      <trkpt lat="42.31630244292318820953369140625" lon="2.29763044975697994232177734375">
        <ele>1398.4000244140625</ele>
        <time>2020-08-09T12:01:44.000Z</time>
      </trkpt>
      <trkpt lat="42.31630168855190277099609375" lon="2.29762793518602848052978515625">
        <ele>1398.4000244140625</ele>
        <time>2020-08-09T12:01:45.000Z</time>
      </trkpt>
      <trkpt lat="42.3162874393165111541748046875" lon="2.2975535877048969268798828125">
        <ele>1398.800048828125</ele>
        <time>2020-08-09T12:01:52.000Z</time>
      </trkpt>
      <trkpt lat="42.31627897359430789947509765625" lon="2.2975214011967182159423828125">
        <ele>1399.4000244140625</ele>
        <time>2020-08-09T12:01:55.000Z</time>
      </trkpt>
      <trkpt lat="42.3162569291889667510986328125" lon="2.297459207475185394287109375">
        <ele>1399.5999755859375</ele>
        <time>2020-08-09T12:01:59.000Z</time>
      </trkpt>
      <trkpt lat="42.31622817926108837127685546875" lon="2.29737614281475543975830078125">
        <ele>1399.5999755859375</ele>
        <time>2020-08-09T12:02:05.000Z</time>
      </trkpt>
      <trkpt lat="42.31621560640633106231689453125" lon="2.297314703464508056640625">
        <ele>1400</ele>
        <time>2020-08-09T12:02:13.000Z</time>
      </trkpt>
      <trkpt lat="42.3162116669118404388427734375" lon="2.29728729464113712310791015625">
        <ele>1400.4000244140625</ele>
        <time>2020-08-09T12:02:17.000Z</time>
      </trkpt>
      <trkpt lat="42.31620789505541324615478515625" lon="2.297250665724277496337890625">
        <ele>1400.5999755859375</ele>
        <time>2020-08-09T12:02:20.000Z</time>
      </trkpt>
      <trkpt lat="42.316186688840389251708984375" lon="2.2971515916287899017333984375">
        <ele>1401.4000244140625</ele>
        <time>2020-08-09T12:02:28.000Z</time>
      </trkpt>
      <trkpt lat="42.31618392281234264373779296875" lon="2.2971415333449840545654296875">
        <ele>1401.5999755859375</ele>
        <time>2020-08-09T12:02:29.000Z</time>
      </trkpt>
      <trkpt lat="42.31616757810115814208984375" lon="2.2970585525035858154296875">
        <ele>1402</ele>
        <time>2020-08-09T12:02:36.000Z</time>
      </trkpt>
      <trkpt lat="42.31616363860666751861572265625" lon="2.297036759555339813232421875">
        <ele>1402.4000244140625</ele>
        <time>2020-08-09T12:02:38.000Z</time>
      </trkpt>
      <trkpt lat="42.316156513988971710205078125" lon="2.29698152281343936920166015625">
        <ele>1403.4000244140625</ele>
        <time>2020-08-09T12:02:43.000Z</time>
      </trkpt>
      <trkpt lat="42.31615148484706878662109375" lon="2.296960651874542236328125">
        <ele>1403.800048828125</ele>
        <time>2020-08-09T12:02:45.000Z</time>
      </trkpt>
      <trkpt lat="42.3161494731903076171875" lon="2.296948246657848358154296875">
        <ele>1404</ele>
        <time>2020-08-09T12:02:46.000Z</time>
      </trkpt>
      <trkpt lat="42.31613673269748687744140625" lon="2.2968669421970844268798828125">
        <ele>1404.5999755859375</ele>
        <time>2020-08-09T12:02:52.000Z</time>
      </trkpt>
      <trkpt lat="42.3161332122981548309326171875" lon="2.296851687133312225341796875">
        <ele>1404.5999755859375</ele>
        <time>2020-08-09T12:02:53.000Z</time>
      </trkpt>
      <trkpt lat="42.31611921451985836029052734375" lon="2.29673601686954498291015625">
        <ele>1405.199951171875</ele>
        <time>2020-08-09T12:03:02.000Z</time>
      </trkpt>
      <trkpt lat="42.316112257540225982666015625" lon="2.29666837491095066070556640625">
        <ele>1405.5999755859375</ele>
        <time>2020-08-09T12:03:06.000Z</time>
      </trkpt>
      <trkpt lat="42.316096164286136627197265625" lon="2.296590842306613922119140625">
        <ele>1406.199951171875</ele>
        <time>2020-08-09T12:03:11.000Z</time>
      </trkpt>
      <trkpt lat="42.31606339104473590850830078125" lon="2.29645036160945892333984375">
        <ele>1406.800048828125</ele>
        <time>2020-08-09T12:03:19.000Z</time>
      </trkpt>
      <trkpt lat="42.3160617984831333160400390625" lon="2.29643401689827442169189453125">
        <ele>1407</ele>
        <time>2020-08-09T12:03:20.000Z</time>
      </trkpt>
      <trkpt lat="42.31601125560700893402099609375" lon="2.29627895168960094451904296875">
        <ele>1407.5999755859375</ele>
        <time>2020-08-09T12:03:29.000Z</time>
      </trkpt>
      <trkpt lat="42.31598158366978168487548828125" lon="2.29615657590329647064208984375">
        <ele>1408</ele>
        <time>2020-08-09T12:03:38.000Z</time>
      </trkpt>
      <trkpt lat="42.31597605161368846893310546875" lon="2.29611667804419994354248046875">
        <ele>1408.199951171875</ele>
        <time>2020-08-09T12:03:41.000Z</time>
      </trkpt>
      <trkpt lat="42.31596834026277065277099609375" lon="2.2960394807159900665283203125">
        <ele>1408.800048828125</ele>
        <time>2020-08-09T12:03:47.000Z</time>
      </trkpt>
      <trkpt lat="42.31596649624407291412353515625" lon="2.29602682404220104217529296875">
        <ele>1409</ele>
        <time>2020-08-09T12:03:48.000Z</time>
      </trkpt>
      <trkpt lat="42.31596481986343860626220703125" lon="2.29600100778043270111083984375">
        <ele>1409.4000244140625</ele>
        <time>2020-08-09T12:03:50.000Z</time>
      </trkpt>
      <trkpt lat="42.31595593504607677459716796875" lon="2.29592724703252315521240234375">
        <ele>1410.199951171875</ele>
        <time>2020-08-09T12:03:56.000Z</time>
      </trkpt>
      <trkpt lat="42.31595107354223728179931640625" lon="2.295880056917667388916015625">
        <ele>1410.4000244140625</ele>
        <time>2020-08-09T12:04:00.000Z</time>
      </trkpt>
      <trkpt lat="42.315943278372287750244140625" lon="2.29582163505256175994873046875">
        <ele>1411.199951171875</ele>
        <time>2020-08-09T12:04:05.000Z</time>
      </trkpt>
      <trkpt lat="42.31593866832554340362548828125" lon="2.29578425176441669464111328125">
        <ele>1411.800048828125</ele>
        <time>2020-08-09T12:04:09.000Z</time>
      </trkpt>
      <trkpt lat="42.315933890640735626220703125" lon="2.2957603633403778076171875">
        <ele>1412.199951171875</ele>
        <time>2020-08-09T12:04:19.000Z</time>
      </trkpt>
      <trkpt lat="42.3159335553646087646484375" lon="2.29573748074471950531005859375">
        <ele>1412.199951171875</ele>
        <time>2020-08-09T12:04:21.000Z</time>
      </trkpt>
      <trkpt lat="42.31592207215726375579833984375" lon="2.295646369457244873046875">
        <ele>1413</ele>
        <time>2020-08-09T12:04:28.000Z</time>
      </trkpt>
      <trkpt lat="42.3159126006066799163818359375" lon="2.29560102336108684539794921875">
        <ele>1413.4000244140625</ele>
        <time>2020-08-09T12:04:32.000Z</time>
      </trkpt>
      <trkpt lat="42.31591251678764820098876953125" lon="2.2955967485904693603515625">
        <ele>1413.800048828125</ele>
        <time>2020-08-09T12:04:36.000Z</time>
      </trkpt>
      <trkpt lat="42.31589424423873424530029296875" lon="2.2955323755741119384765625">
        <ele>1414</ele>
        <time>2020-08-09T12:04:42.000Z</time>
      </trkpt>
      <trkpt lat="42.31582651846110820770263671875" lon="2.29539650492370128631591796875">
        <ele>1414.199951171875</ele>
        <time>2020-08-09T12:04:48.000Z</time>
      </trkpt>
      <trkpt lat="42.3158140294253826141357421875" lon="2.29536800645291805267333984375">
        <ele>1414.199951171875</ele>
        <time>2020-08-09T12:04:49.000Z</time>
      </trkpt>
      <trkpt lat="42.31569961644709110260009765625" lon="2.29509056545794010162353515625">
        <ele>1414.5999755859375</ele>
        <time>2020-08-09T12:04:58.000Z</time>
      </trkpt>
      <trkpt lat="42.3156256042420864105224609375" lon="2.294866852462291717529296875">
        <ele>1415.199951171875</ele>
        <time>2020-08-09T12:05:07.000Z</time>
      </trkpt>
      <trkpt lat="42.31562518514692783355712890625" lon="2.2948646731674671173095703125">
        <ele>1415.199951171875</ele>
        <time>2020-08-09T12:05:08.000Z</time>
      </trkpt>
      <trkpt lat="42.31561998836696147918701171875" lon="2.2948609851300716400146484375">
        <ele>1415.5999755859375</ele>
        <time>2020-08-09T12:05:11.000Z</time>
      </trkpt>
      <trkpt lat="42.3156130313873291015625" lon="2.2948484122753143310546875">
        <ele>1415.5999755859375</ele>
        <time>2020-08-09T12:05:12.000Z</time>
      </trkpt>
      <trkpt lat="42.31557455845177173614501953125" lon="2.29474707506597042083740234375">
        <ele>1415.5999755859375</ele>
        <time>2020-08-09T12:05:16.000Z</time>
      </trkpt>
      <trkpt lat="42.3155595548450946807861328125" lon="2.29472075589001178741455078125">
        <ele>1415.800048828125</ele>
        <time>2020-08-09T12:05:17.000Z</time>
      </trkpt>
      <trkpt lat="42.315516136586666107177734375" lon="2.29464389383792877197265625">
        <ele>1416.199951171875</ele>
        <time>2020-08-09T12:05:20.000Z</time>
      </trkpt>
      <trkpt lat="42.31546458788216114044189453125" lon="2.2945646010339260101318359375">
        <ele>1416.4000244140625</ele>
        <time>2020-08-09T12:05:23.000Z</time>
      </trkpt>
      <trkpt lat="42.315373308956623077392578125" lon="2.294401824474334716796875">
        <ele>1416.5999755859375</ele>
        <time>2020-08-09T12:05:30.000Z</time>
      </trkpt>
      <trkpt lat="42.315345145761966705322265625" lon="2.29432613588869571685791015625">
        <ele>1416.800048828125</ele>
        <time>2020-08-09T12:05:33.000Z</time>
      </trkpt>
      <trkpt lat="42.31532268226146697998046875" lon="2.29424969293177127838134765625">
        <ele>1417.199951171875</ele>
        <time>2020-08-09T12:05:36.000Z</time>
      </trkpt>
      <trkpt lat="42.315287478268146514892578125" lon="2.2940938733518123626708984375">
        <ele>1418.199951171875</ele>
        <time>2020-08-09T12:05:42.000Z</time>
      </trkpt>
      <trkpt lat="42.31528538279235363006591796875" lon="2.294069565832614898681640625">
        <ele>1418.4000244140625</ele>
        <time>2020-08-09T12:05:43.000Z</time>
      </trkpt>
      <trkpt lat="42.31528823263943195343017578125" lon="2.293973006308078765869140625">
        <ele>1419.4000244140625</ele>
        <time>2020-08-09T12:05:48.000Z</time>
      </trkpt>
      <trkpt lat="42.31528085656464099884033203125" lon="2.29393118061125278472900390625">
        <ele>1419.800048828125</ele>
        <time>2020-08-09T12:05:50.000Z</time>
      </trkpt>
      <trkpt lat="42.31525353156030178070068359375" lon="2.29382238350808620452880859375">
        <ele>1420.800048828125</ele>
        <time>2020-08-09T12:05:55.000Z</time>
      </trkpt>
      <trkpt lat="42.3152370192110538482666015625" lon="2.293763123452663421630859375">
        <ele>1421.5999755859375</ele>
        <time>2020-08-09T12:05:58.000Z</time>
      </trkpt>
      <trkpt lat="42.315227799117565155029296875" lon="2.293725572526454925537109375">
        <ele>1421.800048828125</ele>
        <time>2020-08-09T12:06:00.000Z</time>
      </trkpt>
      <trkpt lat="42.31519066728651523590087890625" lon="2.29366061277687549591064453125">
        <ele>1422.5999755859375</ele>
        <time>2020-08-09T12:06:04.000Z</time>
      </trkpt>
      <trkpt lat="42.31516820378601551055908203125" lon="2.2936261631548404693603515625">
        <ele>1423</ele>
        <time>2020-08-09T12:06:06.000Z</time>
      </trkpt>
      <trkpt lat="42.31509192846715450286865234375" lon="2.29350370354950428009033203125">
        <ele>1423.5999755859375</ele>
        <time>2020-08-09T12:06:12.000Z</time>
      </trkpt>
      <trkpt lat="42.3150472529232501983642578125" lon="2.29342776350677013397216796875">
        <ele>1423.800048828125</ele>
        <time>2020-08-09T12:06:16.000Z</time>
      </trkpt>
      <trkpt lat="42.3150036670267581939697265625" lon="2.293353416025638580322265625">
        <ele>1424.5999755859375</ele>
        <time>2020-08-09T12:06:20.000Z</time>
      </trkpt>
      <trkpt lat="42.31495731510221958160400390625" lon="2.2932788170874118804931640625">
        <ele>1424.800048828125</ele>
        <time>2020-08-09T12:06:24.000Z</time>
      </trkpt>
      <trkpt lat="42.31490534730255603790283203125" lon="2.293143533170223236083984375">
        <ele>1425.5999755859375</ele>
        <time>2020-08-09T12:06:30.000Z</time>
      </trkpt>
      <trkpt lat="42.31489310972392559051513671875" lon="2.293069772422313690185546875">
        <ele>1425.800048828125</ele>
        <time>2020-08-09T12:06:33.000Z</time>
      </trkpt>
      <trkpt lat="42.31488472782075405120849609375" lon="2.29294739663600921630859375">
        <ele>1426.5999755859375</ele>
        <time>2020-08-09T12:06:38.000Z</time>
      </trkpt>
      <trkpt lat="42.314884476363658905029296875" lon="2.29292132891714572906494140625">
        <ele>1426.800048828125</ele>
        <time>2020-08-09T12:06:39.000Z</time>
      </trkpt>
      <trkpt lat="42.314889170229434967041015625" lon="2.292761988937854766845703125">
        <ele>1427.4000244140625</ele>
        <time>2020-08-09T12:06:46.000Z</time>
      </trkpt>
      <trkpt lat="42.31489025987684726715087890625" lon="2.29274078272283077239990234375">
        <ele>1427.5999755859375</ele>
        <time>2020-08-09T12:06:47.000Z</time>
      </trkpt>
      <trkpt lat="42.31489260680973529815673828125" lon="2.292696945369243621826171875">
        <ele>1428.199951171875</ele>
        <time>2020-08-09T12:06:49.000Z</time>
      </trkpt>
      <trkpt lat="42.3148866556584835052490234375" lon="2.292590998113155364990234375">
        <ele>1429.199951171875</ele>
        <time>2020-08-09T12:06:54.000Z</time>
      </trkpt>
      <trkpt lat="42.31488456018269062042236328125" lon="2.2925697080790996551513671875">
        <ele>1429.4000244140625</ele>
        <time>2020-08-09T12:06:55.000Z</time>
      </trkpt>
      <trkpt lat="42.3148645274341106414794921875" lon="2.292474322021007537841796875">
        <ele>1430.199951171875</ele>
        <time>2020-08-09T12:07:00.000Z</time>
      </trkpt>
      <trkpt lat="42.3148558102548122406005859375" lon="2.29239578358829021453857421875">
        <ele>1431.199951171875</ele>
        <time>2020-08-09T12:07:04.000Z</time>
      </trkpt>
      <trkpt lat="42.31485539115965366363525390625" lon="2.29237516410648822784423828125">
        <ele>1431.4000244140625</ele>
        <time>2020-08-09T12:07:05.000Z</time>
      </trkpt>
      <trkpt lat="42.31485002674162387847900390625" lon="2.2923155687749385833740234375">
        <ele>1432.5999755859375</ele>
        <time>2020-08-09T12:07:08.000Z</time>
      </trkpt>
      <trkpt lat="42.31484667398035526275634765625" lon="2.292224876582622528076171875">
        <ele>1433.5999755859375</ele>
        <time>2020-08-09T12:07:13.000Z</time>
      </trkpt>
      <trkpt lat="42.31484591960906982421875" lon="2.29220844805240631103515625">
        <ele>1433.800048828125</ele>
        <time>2020-08-09T12:07:14.000Z</time>
      </trkpt>
      <trkpt lat="42.314846925437450408935546875" lon="2.29214432649314403533935546875">
        <ele>1434.5999755859375</ele>
        <time>2020-08-09T12:07:18.000Z</time>
      </trkpt>
      <trkpt lat="42.3148470930755138397216796875" lon="2.29209705255925655364990234375">
        <ele>1435.4000244140625</ele>
        <time>2020-08-09T12:07:21.000Z</time>
      </trkpt>
      <trkpt lat="42.314843237400054931640625" lon="2.292063273489475250244140625">
        <ele>1435.5999755859375</ele>
        <time>2020-08-09T12:07:23.000Z</time>
      </trkpt>
      <trkpt lat="42.31482806615531444549560546875" lon="2.29199429042637348175048828125">
        <ele>1436.199951171875</ele>
        <time>2020-08-09T12:07:27.000Z</time>
      </trkpt>
      <trkpt lat="42.3147703148424625396728515625" lon="2.2918545641005039215087890625">
        <ele>1436.800048828125</ele>
        <time>2020-08-09T12:07:35.000Z</time>
      </trkpt>
      <trkpt lat="42.31475061737000942230224609375" lon="2.29182195849716663360595703125">
        <ele>1436.800048828125</ele>
        <time>2020-08-09T12:07:37.000Z</time>
      </trkpt>
      <trkpt lat="42.3147076182067394256591796875" lon="2.2916557453572750091552734375">
        <ele>1437.4000244140625</ele>
        <time>2020-08-09T12:07:46.000Z</time>
      </trkpt>
      <trkpt lat="42.3147079534828662872314453125" lon="2.29163588024675846099853515625">
        <ele>1437.800048828125</ele>
        <time>2020-08-09T12:07:47.000Z</time>
      </trkpt>
      <trkpt lat="42.31470887549221515655517578125" lon="2.29155130684375762939453125">
        <ele>1438.5999755859375</ele>
        <time>2020-08-09T12:07:51.000Z</time>
      </trkpt>
      <trkpt lat="42.3147077858448028564453125" lon="2.29148685000836849212646484375">
        <ele>1438.800048828125</ele>
        <time>2020-08-09T12:07:54.000Z</time>
      </trkpt>
      <trkpt lat="42.314703427255153656005859375" lon="2.291317619383335113525390625">
        <ele>1439.5999755859375</ele>
        <time>2020-08-09T12:08:02.000Z</time>
      </trkpt>
      <trkpt lat="42.31469504535198211669921875" lon="2.29121812619268894195556640625">
        <ele>1440.800048828125</ele>
        <time>2020-08-09T12:08:07.000Z</time>
      </trkpt>
      <trkpt lat="42.3146955482661724090576171875" lon="2.29117001406848430633544921875">
        <ele>1441.4000244140625</ele>
        <time>2020-08-09T12:08:10.000Z</time>
      </trkpt>
      <trkpt lat="42.314697392284870147705078125" lon="2.2911511547863483428955078125">
        <ele>1441.4000244140625</ele>
        <time>2020-08-09T12:08:11.000Z</time>
      </trkpt>
      <trkpt lat="42.3146975599229335784912109375" lon="2.29112726636230945587158203125">
        <ele>1441.5999755859375</ele>
        <time>2020-08-09T12:08:12.000Z</time>
      </trkpt>
      <trkpt lat="42.31469638645648956298828125" lon="2.291057109832763671875">
        <ele>1441.800048828125</ele>
        <time>2020-08-09T12:08:15.000Z</time>
      </trkpt>
      <trkpt lat="42.31469194404780864715576171875" lon="2.2908866219222545623779296875">
        <ele>1442.800048828125</ele>
        <time>2020-08-09T12:08:23.000Z</time>
      </trkpt>
      <trkpt lat="42.31469638645648956298828125" lon="2.290810011327266693115234375">
        <ele>1443.5999755859375</ele>
        <time>2020-08-09T12:08:27.000Z</time>
      </trkpt>
      <trkpt lat="42.3146985657513141632080078125" lon="2.2907722927629947662353515625">
        <ele>1443.800048828125</ele>
        <time>2020-08-09T12:08:29.000Z</time>
      </trkpt>
      <trkpt lat="42.3146989010274410247802734375" lon="2.29071303270757198333740234375">
        <ele>1444.5999755859375</ele>
        <time>2020-08-09T12:08:32.000Z</time>
      </trkpt>
      <trkpt lat="42.31470049358904361724853515625" lon="2.29069207794964313507080078125">
        <ele>1445</ele>
        <time>2020-08-09T12:08:33.000Z</time>
      </trkpt>
      <trkpt lat="42.31470501981675624847412109375" lon="2.2906110249459743499755859375">
        <ele>1446</ele>
        <time>2020-08-09T12:08:37.000Z</time>
      </trkpt>
      <trkpt lat="42.31470233760774135589599609375" lon="2.29055679403245449066162109375">
        <ele>1446.5999755859375</ele>
        <time>2020-08-09T12:08:40.000Z</time>
      </trkpt>
      <trkpt lat="42.314702086150646209716796875" lon="2.29042000137269496917724609375">
        <ele>1447</ele>
        <time>2020-08-09T12:08:48.000Z</time>
      </trkpt>
      <trkpt lat="42.31470284052193164825439453125" lon="2.29041648097336292266845703125">
        <ele>1446.800048828125</ele>
        <time>2020-08-09T12:08:58.000Z</time>
      </trkpt>
      <trkpt lat="42.31469814665615558624267578125" lon="2.29036048986017704010009765625">
        <ele>1446.5999755859375</ele>
        <time>2020-08-09T12:09:04.000Z</time>
      </trkpt>
      <trkpt lat="42.3146888427436351776123046875" lon="2.29019318707287311553955078125">
        <ele>1446.4000244140625</ele>
        <time>2020-08-09T12:09:12.000Z</time>
      </trkpt>
      <trkpt lat="42.3146729171276092529296875" lon="2.29001666419208049774169921875">
        <ele>1447.5999755859375</ele>
        <time>2020-08-09T12:09:20.000Z</time>
      </trkpt>
      <trkpt lat="42.314670570194721221923828125" lon="2.28996989317238330841064453125">
        <ele>1447.800048828125</ele>
        <time>2020-08-09T12:09:22.000Z</time>
      </trkpt>
      <trkpt lat="42.31464701704680919647216796875" lon="2.289824299514293670654296875">
        <ele>1447.800048828125</ele>
        <time>2020-08-09T12:09:28.000Z</time>
      </trkpt>
      <trkpt lat="42.31461566872894763946533203125" lon="2.28964651934802532196044921875">
        <ele>1448.4000244140625</ele>
        <time>2020-08-09T12:09:35.000Z</time>
      </trkpt>
      <trkpt lat="42.3145738430321216583251953125" lon="2.28953696787357330322265625">
        <ele>1448.800048828125</ele>
        <time>2020-08-09T12:09:40.000Z</time>
      </trkpt>
      <trkpt lat="42.314539141952991485595703125" lon="2.28943076916038990020751953125">
        <ele>1449.4000244140625</ele>
        <time>2020-08-09T12:09:45.000Z</time>
      </trkpt>
      <trkpt lat="42.31453386135399341583251953125" lon="2.28940981440246105194091796875">
        <ele>1449.5999755859375</ele>
        <time>2020-08-09T12:09:46.000Z</time>
      </trkpt>
      <trkpt lat="42.31451324187219142913818359375" lon="2.289287857711315155029296875">
        <ele>1451</ele>
        <time>2020-08-09T12:09:52.000Z</time>
      </trkpt>
      <trkpt lat="42.31451131403446197509765625" lon="2.2892672382295131683349609375">
        <ele>1451</ele>
        <time>2020-08-09T12:09:53.000Z</time>
      </trkpt>
      <trkpt lat="42.3145044408738613128662109375" lon="2.28918266482651233673095703125">
        <ele>1452</ele>
        <time>2020-08-09T12:09:57.000Z</time>
      </trkpt>
      <trkpt lat="42.3145054467022418975830078125" lon="2.28907252661883831024169921875">
        <ele>1453.199951171875</ele>
        <time>2020-08-09T12:10:02.000Z</time>
      </trkpt>
      <trkpt lat="42.31451190076768398284912109375" lon="2.288989126682281494140625">
        <ele>1454.4000244140625</ele>
        <time>2020-08-09T12:10:06.000Z</time>
      </trkpt>
      <trkpt lat="42.31452346779406070709228515625" lon="2.288923747837543487548828125">
        <ele>1455.199951171875</ele>
        <time>2020-08-09T12:10:09.000Z</time>
      </trkpt>
      <trkpt lat="42.31452648527920246124267578125" lon="2.28890656493604183197021484375">
        <ele>1455.5999755859375</ele>
        <time>2020-08-09T12:10:10.000Z</time>
      </trkpt>
      <trkpt lat="42.31453503482043743133544921875" lon="2.2887928225100040435791015625">
        <ele>1456.4000244140625</ele>
        <time>2020-08-09T12:10:16.000Z</time>
      </trkpt>
      <trkpt lat="42.314535118639469146728515625" lon="2.2887723706662654876708984375">
        <ele>1456.800048828125</ele>
        <time>2020-08-09T12:10:17.000Z</time>
      </trkpt>
      <trkpt lat="42.3145198635756969451904296875" lon="2.28872015140950679779052734375">
        <ele>1457.4000244140625</ele>
        <time>2020-08-09T12:10:20.000Z</time>
      </trkpt>
      <trkpt lat="42.31450167484581470489501953125" lon="2.28869517333805561065673828125">
        <ele>1457.5999755859375</ele>
        <time>2020-08-09T12:10:22.000Z</time>
      </trkpt>
      <trkpt lat="42.31440000236034393310546875" lon="2.288596518337726593017578125">
        <ele>1458.4000244140625</ele>
        <time>2020-08-09T12:10:31.000Z</time>
      </trkpt>
      <trkpt lat="42.31436915695667266845703125" lon="2.2885425388813018798828125">
        <ele>1458.800048828125</ele>
        <time>2020-08-09T12:10:34.000Z</time>
      </trkpt>
      <trkpt lat="42.31434225104749202728271484375" lon="2.2884126193821430206298828125">
        <ele>1459.5999755859375</ele>
        <time>2020-08-09T12:10:40.000Z</time>
      </trkpt>
      <trkpt lat="42.314340658485889434814453125" lon="2.2883911617100238800048828125">
        <ele>1459.800048828125</ele>
        <time>2020-08-09T12:10:41.000Z</time>
      </trkpt>
      <trkpt lat="42.31435599736869335174560546875" lon="2.2882929258048534393310546875">
        <ele>1460.4000244140625</ele>
        <time>2020-08-09T12:10:46.000Z</time>
      </trkpt>
      <trkpt lat="42.31437695212662220001220703125" lon="2.28822863660752773284912109375">
        <ele>1461</ele>
        <time>2020-08-09T12:10:49.000Z</time>
      </trkpt>
      <trkpt lat="42.31438650749623775482177734375" lon="2.28814062662422657012939453125">
        <ele>1461.4000244140625</ele>
        <time>2020-08-09T12:10:53.000Z</time>
      </trkpt>
      <trkpt lat="42.31432666070759296417236328125" lon="2.28806468658149242401123046875">
        <ele>1461.800048828125</ele>
        <time>2020-08-09T12:10:58.000Z</time>
      </trkpt>
      <trkpt lat="42.314303778111934661865234375" lon="2.2880562208592891693115234375">
        <ele>1462</ele>
        <time>2020-08-09T12:11:02.000Z</time>
      </trkpt>
      <trkpt lat="42.31430369429290294647216796875" lon="2.2880565561354160308837890625">
        <ele>1462</ele>
        <time>2020-08-09T12:11:03.000Z</time>
      </trkpt>
      <trkpt lat="42.3143002577126026153564453125" lon="2.288057394325733184814453125">
        <ele>1462.199951171875</ele>
        <time>2020-08-09T12:11:09.000Z</time>
      </trkpt>
      <trkpt lat="42.3142680712044239044189453125" lon="2.28805647231638431549072265625">
        <ele>1462.4000244140625</ele>
        <time>2020-08-09T12:11:12.000Z</time>
      </trkpt>
      <trkpt lat="42.31422699987888336181640625" lon="2.288027219474315643310546875">
        <ele>1462.5999755859375</ele>
        <time>2020-08-09T12:11:15.000Z</time>
      </trkpt>
      <trkpt lat="42.314175032079219818115234375" lon="2.28795982897281646728515625">
        <ele>1462.4000244140625</ele>
        <time>2020-08-09T12:11:19.000Z</time>
      </trkpt>
      <trkpt lat="42.3141282610595226287841796875" lon="2.28778925724327564239501953125">
        <ele>1462.800048828125</ele>
        <time>2020-08-09T12:11:26.000Z</time>
      </trkpt>
      <trkpt lat="42.31414787471294403076171875" lon="2.28757501579821109771728515625">
        <ele>1462.800048828125</ele>
        <time>2020-08-09T12:11:33.000Z</time>
      </trkpt>
      <trkpt lat="42.314166314899921417236328125" lon="2.2872850857675075531005859375">
        <ele>1462.199951171875</ele>
        <time>2020-08-09T12:11:39.000Z</time>
      </trkpt>
      <trkpt lat="42.31409783475100994110107421875" lon="2.28720872662961483001708984375">
        <ele>1461.4000244140625</ele>
        <time>2020-08-09T12:11:42.000Z</time>
      </trkpt>
      <trkpt lat="42.3140665702521800994873046875" lon="2.2871952317655086517333984375">
        <ele>1461.4000244140625</ele>
        <time>2020-08-09T12:11:43.000Z</time>
      </trkpt>
      <trkpt lat="42.31393539346754550933837890625" lon="2.28719129227101802825927734375">
        <ele>1461.5999755859375</ele>
        <time>2020-08-09T12:11:48.000Z</time>
      </trkpt>
      <trkpt lat="42.3138228245079517364501953125" lon="2.2871368937194347381591796875">
        <ele>1462.5999755859375</ele>
        <time>2020-08-09T12:11:54.000Z</time>
      </trkpt>
      <trkpt lat="42.313807569444179534912109375" lon="2.28711971081793308258056640625">
        <ele>1462.5999755859375</ele>
        <time>2020-08-09T12:11:55.000Z</time>
      </trkpt>
      <trkpt lat="42.31370489113032817840576171875" lon="2.28698945604264736175537109375">
        <ele>1463.4000244140625</ele>
        <time>2020-08-09T12:12:02.000Z</time>
      </trkpt>
      <trkpt lat="42.31363230384886264801025390625" lon="2.2868700139224529266357421875">
        <ele>1463.5999755859375</ele>
        <time>2020-08-09T12:12:07.000Z</time>
      </trkpt>
      <trkpt lat="42.3135596327483654022216796875" lon="2.28673716075718402862548828125">
        <ele>1464</ele>
        <time>2020-08-09T12:12:12.000Z</time>
      </trkpt>
      <trkpt lat="42.31346399523317813873291015625" lon="2.28648318909108638763427734375">
        <ele>1463.800048828125</ele>
        <time>2020-08-09T12:12:19.000Z</time>
      </trkpt>
      <trkpt lat="42.31343616731464862823486328125" lon="2.2863241843879222869873046875">
        <ele>1463.199951171875</ele>
        <time>2020-08-09T12:12:22.000Z</time>
      </trkpt>
      <trkpt lat="42.31342661194503307342529296875" lon="2.28616065345704555511474609375">
        <ele>1462.800048828125</ele>
        <time>2020-08-09T12:12:25.000Z</time>
      </trkpt>
      <trkpt lat="42.313427031040191650390625" lon="2.2861122898757457733154296875">
        <ele>1462.4000244140625</ele>
        <time>2020-08-09T12:12:26.000Z</time>
      </trkpt>
      <trkpt lat="42.31343348510563373565673828125" lon="2.28592378087341785430908203125">
        <ele>1462.5999755859375</ele>
        <time>2020-08-09T12:12:31.000Z</time>
      </trkpt>
      <trkpt lat="42.31344337575137615203857421875" lon="2.28571456857025623321533203125">
        <ele>1463.4000244140625</ele>
        <time>2020-08-09T12:12:38.000Z</time>
      </trkpt>
      <trkpt lat="42.3134458065032958984375" lon="2.285663187503814697265625">
        <ele>1463.800048828125</ele>
        <time>2020-08-09T12:12:40.000Z</time>
      </trkpt>
      <trkpt lat="42.31347464025020599365234375" lon="2.28548289276659488677978515625">
        <ele>1464.5999755859375</ele>
        <time>2020-08-09T12:12:47.000Z</time>
      </trkpt>
      <trkpt lat="42.31347623281180858612060546875" lon="2.28546026162803173065185546875">
        <ele>1464.800048828125</ele>
        <time>2020-08-09T12:12:48.000Z</time>
      </trkpt>
      <trkpt lat="42.313446812331676483154296875" lon="2.285352051258087158203125">
        <ele>1465.800048828125</ele>
        <time>2020-08-09T12:12:53.000Z</time>
      </trkpt>
      <trkpt lat="42.31343130581080913543701171875" lon="2.2853371314704418182373046875">
        <ele>1466.199951171875</ele>
        <time>2020-08-09T12:12:54.000Z</time>
      </trkpt>
      <trkpt lat="42.313385121524333953857421875" lon="2.285340316593647003173828125">
        <ele>1467</ele>
        <time>2020-08-09T12:12:57.000Z</time>
      </trkpt>
      <trkpt lat="42.31329895555973052978515625" lon="2.2853669710457324981689453125">
        <ele>1467.5999755859375</ele>
        <time>2020-08-09T12:13:03.000Z</time>
      </trkpt>
      <trkpt lat="42.3132129572331905364990234375" lon="2.2853783704340457916259765625">
        <ele>1467.800048828125</ele>
        <time>2020-08-09T12:13:09.000Z</time>
      </trkpt>
      <trkpt lat="42.31319376267492771148681640625" lon="2.2853775322437286376953125">
        <ele>1467.800048828125</ele>
        <time>2020-08-09T12:13:10.000Z</time>
      </trkpt>
      <trkpt lat="42.31303475797176361083984375" lon="2.2853592596948146820068359375">
        <ele>1467.199951171875</ele>
        <time>2020-08-09T12:13:17.000Z</time>
      </trkpt>
      <trkpt lat="42.31289335526525974273681640625" lon="2.28531491942703723907470703125">
        <ele>1466.800048828125</ele>
        <time>2020-08-09T12:13:22.000Z</time>
      </trkpt>
      <trkpt lat="42.31283267028629779815673828125" lon="2.28527284227311611175537109375">
        <ele>1466</ele>
        <time>2020-08-09T12:13:24.000Z</time>
      </trkpt>
      <trkpt lat="42.312718592584133148193359375" lon="2.2851517237722873687744140625">
        <ele>1465.4000244140625</ele>
        <time>2020-08-09T12:13:28.000Z</time>
      </trkpt>
      <trkpt lat="42.31264541856944561004638671875" lon="2.285022474825382232666015625">
        <ele>1464.800048828125</ele>
        <time>2020-08-09T12:13:31.000Z</time>
      </trkpt>
      <trkpt lat="42.31259596534073352813720703125" lon="2.28489297442138195037841796875">
        <ele>1464.4000244140625</ele>
        <time>2020-08-09T12:13:34.000Z</time>
      </trkpt>
      <trkpt lat="42.3125249706208705902099609375" lon="2.28468527086079120635986328125">
        <ele>1464.800048828125</ele>
        <time>2020-08-09T12:13:40.000Z</time>
      </trkpt>
      <trkpt lat="42.31252773664891719818115234375" lon="2.284448146820068359375">
        <ele>1465.4000244140625</ele>
        <time>2020-08-09T12:13:47.000Z</time>
      </trkpt>
      <trkpt lat="42.31255372054874897003173828125" lon="2.28435183875262737274169921875">
        <ele>1465.800048828125</ele>
        <time>2020-08-09T12:13:50.000Z</time>
      </trkpt>
      <trkpt lat="42.3125839792191982269287109375" lon="2.28427304886281490325927734375">
        <ele>1466.4000244140625</ele>
        <time>2020-08-09T12:13:53.000Z</time>
      </trkpt>
      <trkpt lat="42.31261205859482288360595703125" lon="2.28420616127550601959228515625">
        <ele>1467</ele>
        <time>2020-08-09T12:13:56.000Z</time>
      </trkpt>
      <trkpt lat="42.31264592148363590240478515625" lon="2.2841378487646579742431640625">
        <ele>1466.800048828125</ele>
        <time>2020-08-09T12:13:59.000Z</time>
      </trkpt>
      <trkpt lat="42.31260853819549083709716796875" lon="2.2839839570224285125732421875">
        <ele>1467.5999755859375</ele>
        <time>2020-08-09T12:14:05.000Z</time>
      </trkpt>
      <trkpt lat="42.31246654875576496124267578125" lon="2.28387759067118167877197265625">
        <ele>1467.800048828125</ele>
        <time>2020-08-09T12:14:12.000Z</time>
      </trkpt>
      <trkpt lat="42.31230930425226688385009765625" lon="2.28369168005883693695068359375">
        <ele>1467.800048828125</ele>
        <time>2020-08-09T12:14:18.000Z</time>
      </trkpt>
      <trkpt lat="42.31214485131204128265380859375" lon="2.28346302174031734466552734375">
        <ele>1466.5999755859375</ele>
        <time>2020-08-09T12:14:25.000Z</time>
      </trkpt>
      <trkpt lat="42.31199808418750762939453125" lon="2.28326252661645412445068359375">
        <ele>1467.5999755859375</ele>
        <time>2020-08-09T12:14:33.000Z</time>
      </trkpt>
      <trkpt lat="42.31194804422557353973388671875" lon="2.28319060988724231719970703125">
        <ele>1467.800048828125</ele>
        <time>2020-08-09T12:14:36.000Z</time>
      </trkpt>
      <trkpt lat="42.31187897734344005584716796875" lon="2.28306018747389316558837890625">
        <ele>1468.199951171875</ele>
        <time>2020-08-09T12:14:41.000Z</time>
      </trkpt>
      <trkpt lat="42.31180672533810138702392578125" lon="2.28284041397273540496826171875">
        <ele>1468.4000244140625</ele>
        <time>2020-08-09T12:14:49.000Z</time>
      </trkpt>
      <trkpt lat="42.3117944039404392242431640625" lon="2.28278182446956634521484375">
        <ele>1468.800048828125</ele>
        <time>2020-08-09T12:14:51.000Z</time>
      </trkpt>
      <trkpt lat="42.311764396727085113525390625" lon="2.2826130129396915435791015625">
        <ele>1469.4000244140625</ele>
        <time>2020-08-09T12:14:57.000Z</time>
      </trkpt>
      <trkpt lat="42.311758697032928466796875" lon="2.28244747035205364227294921875">
        <ele>1470</ele>
        <time>2020-08-09T12:15:03.000Z</time>
      </trkpt>
      <trkpt lat="42.311759032309055328369140625" lon="2.28239919058978557586669921875">
        <ele>1470.199951171875</ele>
        <time>2020-08-09T12:15:05.000Z</time>
      </trkpt>
      <trkpt lat="42.31175844557583332061767578125" lon="2.28223909623920917510986328125">
        <ele>1471</ele>
        <time>2020-08-09T12:15:11.000Z</time>
      </trkpt>
      <trkpt lat="42.31180605478584766387939453125" lon="2.28206475265324115753173828125">
        <ele>1471.5999755859375</ele>
        <time>2020-08-09T12:15:18.000Z</time>
      </trkpt>
      <trkpt lat="42.31182910501956939697265625" lon="2.28199367411434650421142578125">
        <ele>1472</ele>
        <time>2020-08-09T12:15:21.000Z</time>
      </trkpt>
      <trkpt lat="42.31185601092875003814697265625" lon="2.281903736293315887451171875">
        <ele>1472.4000244140625</ele>
        <time>2020-08-09T12:15:25.000Z</time>
      </trkpt>
      <trkpt lat="42.31187880970537662506103515625" lon="2.28182167746126651763916015625">
        <ele>1473</ele>
        <time>2020-08-09T12:15:29.000Z</time>
      </trkpt>
      <trkpt lat="42.31187294237315654754638671875" lon="2.28178001940250396728515625">
        <ele>1473.199951171875</ele>
        <time>2020-08-09T12:15:31.000Z</time>
      </trkpt>
      <trkpt lat="42.31186104007065296173095703125" lon="2.281761579215526580810546875">
        <ele>1473.199951171875</ele>
        <time>2020-08-09T12:15:32.000Z</time>
      </trkpt>
      <trkpt lat="42.31179683469235897064208984375" lon="2.28175026364624500274658203125">
        <ele>1473.199951171875</ele>
        <time>2020-08-09T12:15:36.000Z</time>
      </trkpt>
      <trkpt lat="42.31178040616214275360107421875" lon="2.28175596334040164947509765625">
        <ele>1473.199951171875</ele>
        <time>2020-08-09T12:15:37.000Z</time>
      </trkpt>
      <trkpt lat="42.31169993989169597625732421875" lon="2.28175747208297252655029296875">
        <ele>1474</ele>
        <time>2020-08-09T12:15:42.000Z</time>
      </trkpt>
      <trkpt lat="42.31166741810739040374755859375" lon="2.28174959309399127960205078125">
        <ele>1474.199951171875</ele>
        <time>2020-08-09T12:15:44.000Z</time>
      </trkpt>
      <trkpt lat="42.311568595468997955322265625" lon="2.28170349262654781341552734375">
        <ele>1475.199951171875</ele>
        <time>2020-08-09T12:15:51.000Z</time>
      </trkpt>
      <trkpt lat="42.31155627407133579254150390625" lon="2.28169259615242481231689453125">
        <ele>1475.199951171875</ele>
        <time>2020-08-09T12:15:52.000Z</time>
      </trkpt>
      <trkpt lat="42.311479747295379638671875" lon="2.281561754643917083740234375">
        <ele>1475.800048828125</ele>
        <time>2020-08-09T12:16:01.000Z</time>
      </trkpt>
      <trkpt lat="42.311468012630939483642578125" lon="2.28153367526829242706298828125">
        <ele>1476.199951171875</ele>
        <time>2020-08-09T12:16:03.000Z</time>
      </trkpt>
      <trkpt lat="42.3114328086376190185546875" lon="2.28144298307597637176513671875">
        <ele>1477.199951171875</ele>
        <time>2020-08-09T12:16:09.000Z</time>
      </trkpt>
      <trkpt lat="42.3114048130810260772705078125" lon="2.28136360645294189453125">
        <ele>1478.199951171875</ele>
        <time>2020-08-09T12:16:14.000Z</time>
      </trkpt>
      <trkpt lat="42.311400286853313446044921875" lon="2.281304262578487396240234375">
        <ele>1478.5999755859375</ele>
        <time>2020-08-09T12:16:17.000Z</time>
      </trkpt>
      <trkpt lat="42.31140037067234516143798828125" lon="2.281246595084667205810546875">
        <ele>1479.199951171875</ele>
        <time>2020-08-09T12:16:20.000Z</time>
      </trkpt>
      <trkpt lat="42.311400286853313446044921875" lon="2.28123955428600311279296875">
        <ele>1479.5999755859375</ele>
        <time>2020-08-09T12:16:23.000Z</time>
      </trkpt>
      <trkpt lat="42.31139919720590114593505859375" lon="2.28124014101922512054443359375">
        <ele>1480.199951171875</ele>
        <time>2020-08-09T12:16:28.000Z</time>
      </trkpt>
      <trkpt lat="42.3114014603197574615478515625" lon="2.2812388837337493896484375">
        <ele>1480</ele>
        <time>2020-08-09T12:16:39.000Z</time>
      </trkpt>
      <trkpt lat="42.31140070594847202301025390625" lon="2.28123930282890796661376953125">
        <ele>1479.800048828125</ele>
        <time>2020-08-09T12:17:02.000Z</time>
      </trkpt>
      <trkpt lat="42.31140003539621829986572265625" lon="2.2812061943113803863525390625">
        <ele>1479.5999755859375</ele>
        <time>2020-08-09T12:17:10.000Z</time>
      </trkpt>
      <trkpt lat="42.3114192299544811248779296875" lon="2.28111105971038341522216796875">
        <ele>1480.5999755859375</ele>
        <time>2020-08-09T12:17:18.000Z</time>
      </trkpt>
      <trkpt lat="42.31144110672175884246826171875" lon="2.281055152416229248046875">
        <ele>1481</ele>
        <time>2020-08-09T12:17:23.000Z</time>
      </trkpt>
      <trkpt lat="42.311459295451641082763671875" lon="2.2810127399861812591552734375">
        <ele>1481.4000244140625</ele>
        <time>2020-08-09T12:17:27.000Z</time>
      </trkpt>
      <trkpt lat="42.31148502789437770843505859375" lon="2.280963622033596038818359375">
        <ele>1482.199951171875</ele>
        <time>2020-08-09T12:17:32.000Z</time>
      </trkpt>
      <trkpt lat="42.3114970140159130096435546875" lon="2.280914671719074249267578125">
        <ele>1482.5999755859375</ele>
        <time>2020-08-09T12:17:35.000Z</time>
      </trkpt>
      <trkpt lat="42.311517633497714996337890625" lon="2.28081442415714263916015625">
        <ele>1483.199951171875</ele>
        <time>2020-08-09T12:17:43.000Z</time>
      </trkpt>
      <trkpt lat="42.3115379177033901214599609375" lon="2.2807265818119049072265625">
        <ele>1484.4000244140625</ele>
        <time>2020-08-09T12:17:51.000Z</time>
      </trkpt>
      <trkpt lat="42.31153883971273899078369140625" lon="2.28071786463260650634765625">
        <ele>1484.4000244140625</ele>
        <time>2020-08-09T12:17:52.000Z</time>
      </trkpt>
      <trkpt lat="42.311551831662654876708984375" lon="2.2806514799594879150390625">
        <ele>1485.199951171875</ele>
        <time>2020-08-09T12:17:59.000Z</time>
      </trkpt>
      <trkpt lat="42.3115607164800167083740234375" lon="2.28061635978519916534423828125">
        <ele>1485.800048828125</ele>
        <time>2020-08-09T12:18:03.000Z</time>
      </trkpt>
      <trkpt lat="42.31156826019287109375" lon="2.28057797066867351531982421875">
        <ele>1486.199951171875</ele>
        <time>2020-08-09T12:18:07.000Z</time>
      </trkpt>
      <trkpt lat="42.31158007867634296417236328125" lon="2.28051343001425266265869140625">
        <ele>1487</ele>
        <time>2020-08-09T12:18:13.000Z</time>
      </trkpt>
      <trkpt lat="42.31158460490405559539794921875" lon="2.28049482218921184539794921875">
        <ele>1487.199951171875</ele>
        <time>2020-08-09T12:18:15.000Z</time>
      </trkpt>
      <trkpt lat="42.31160053052008152008056640625" lon="2.280433215200901031494140625">
        <ele>1488.4000244140625</ele>
        <time>2020-08-09T12:18:22.000Z</time>
      </trkpt>
      <trkpt lat="42.311602123081684112548828125" lon="2.2804248332977294921875">
        <ele>1488.5999755859375</ele>
        <time>2020-08-09T12:18:23.000Z</time>
      </trkpt>
      <trkpt lat="42.31160623021423816680908203125" lon="2.28036507032811641693115234375">
        <ele>1489.4000244140625</ele>
        <time>2020-08-09T12:18:30.000Z</time>
      </trkpt>
      <trkpt lat="42.31161008588969707489013671875" lon="2.28034713305532932281494140625">
        <ele>1489.5999755859375</ele>
        <time>2020-08-09T12:18:32.000Z</time>
      </trkpt>
      <trkpt lat="42.31161712668836116790771484375" lon="2.28030078113079071044921875">
        <ele>1490.4000244140625</ele>
        <time>2020-08-09T12:18:37.000Z</time>
      </trkpt>
      <trkpt lat="42.311622239649295806884765625" lon="2.280280329287052154541015625">
        <ele>1490.5999755859375</ele>
        <time>2020-08-09T12:18:39.000Z</time>
      </trkpt>
      <trkpt lat="42.31162148527801036834716796875" lon="2.28018200956284999847412109375">
        <ele>1491.199951171875</ele>
        <time>2020-08-09T12:18:47.000Z</time>
      </trkpt>
      <trkpt lat="42.31160648167133331298828125" lon="2.28004186414182186126708984375">
        <ele>1491.5999755859375</ele>
        <time>2020-08-09T12:18:58.000Z</time>
      </trkpt>
      <trkpt lat="42.31160908006131649017333984375" lon="2.28002585470676422119140625">
        <ele>1491.800048828125</ele>
        <time>2020-08-09T12:19:05.000Z</time>
      </trkpt>
      <trkpt lat="42.311608828604221343994140625" lon="2.2800156287848949432373046875">
        <ele>1491.800048828125</ele>
        <time>2020-08-09T12:19:08.000Z</time>
      </trkpt>
      <trkpt lat="42.31160555966198444366455078125" lon="2.27998830378055572509765625">
        <ele>1491.800048828125</ele>
        <time>2020-08-09T12:19:10.000Z</time>
      </trkpt>
      <trkpt lat="42.3115620575845241546630859375" lon="2.2799301333725452423095703125">
        <ele>1492.199951171875</ele>
        <time>2020-08-09T12:19:14.000Z</time>
      </trkpt>
      <trkpt lat="42.311547808349132537841796875" lon="2.279916889965534210205078125">
        <ele>1492.4000244140625</ele>
        <time>2020-08-09T12:19:15.000Z</time>
      </trkpt>
      <trkpt lat="42.31152073480188846588134765625" lon="2.27989400736987590789794921875">
        <ele>1492.5999755859375</ele>
        <time>2020-08-09T12:19:17.000Z</time>
      </trkpt>
      <trkpt lat="42.31149139814078807830810546875" lon="2.279871962964534759521484375">
        <ele>1492.800048828125</ele>
        <time>2020-08-09T12:19:19.000Z</time>
      </trkpt>
      <trkpt lat="42.3114359937608242034912109375" lon="2.27982276119291782379150390625">
        <ele>1493.199951171875</ele>
        <time>2020-08-09T12:19:23.000Z</time>
      </trkpt>
      <trkpt lat="42.31141864322125911712646484375" lon="2.27981672622263431549072265625">
        <ele>1493.4000244140625</ele>
        <time>2020-08-09T12:19:24.000Z</time>
      </trkpt>
      <trkpt lat="42.31138394214212894439697265625" lon="2.27979593910276889801025390625">
        <ele>1493.5999755859375</ele>
        <time>2020-08-09T12:19:26.000Z</time>
      </trkpt>
      <trkpt lat="42.31131814420223236083984375" lon="2.2797460667788982391357421875">
        <ele>1493.5999755859375</ele>
        <time>2020-08-09T12:19:30.000Z</time>
      </trkpt>
      <trkpt lat="42.31119501404464244842529296875" lon="2.2795884869992733001708984375">
        <ele>1494.199951171875</ele>
        <time>2020-08-09T12:19:38.000Z</time>
      </trkpt>
      <trkpt lat="42.31113550253212451934814453125" lon="2.27943551726639270782470703125">
        <ele>1494.5999755859375</ele>
        <time>2020-08-09T12:19:44.000Z</time>
      </trkpt>
      <trkpt lat="42.3111028969287872314453125" lon="2.27936343289911746978759765625">
        <ele>1494.800048828125</ele>
        <time>2020-08-09T12:19:47.000Z</time>
      </trkpt>
      <trkpt lat="42.31107850559055805206298828125" lon="2.27931817062199115753173828125">
        <ele>1494.800048828125</ele>
        <time>2020-08-09T12:19:49.000Z</time>
      </trkpt>
      <trkpt lat="42.31100206263363361358642578125" lon="2.2792273946106433868408203125">
        <ele>1495.199951171875</ele>
        <time>2020-08-09T12:19:54.000Z</time>
      </trkpt>
      <trkpt lat="42.3109149746596813201904296875" lon="2.27912790141999721527099609375">
        <ele>1495.199951171875</ele>
        <time>2020-08-09T12:20:00.000Z</time>
      </trkpt>
      <trkpt lat="42.3108854703605175018310546875" lon="2.27909387089312076568603515625">
        <ele>1495.4000244140625</ele>
        <time>2020-08-09T12:20:02.000Z</time>
      </trkpt>
      <trkpt lat="42.3108200915157794952392578125" lon="2.27901935577392578125">
        <ele>1495.800048828125</ele>
        <time>2020-08-09T12:20:07.000Z</time>
      </trkpt>
      <trkpt lat="42.31075613759458065032958984375" lon="2.27894802577793598175048828125">
        <ele>1496.4000244140625</ele>
        <time>2020-08-09T12:20:12.000Z</time>
      </trkpt>
      <trkpt lat="42.31070634908974170684814453125" lon="2.27887845598161220550537109375">
        <ele>1497</ele>
        <time>2020-08-09T12:20:16.000Z</time>
      </trkpt>
      <trkpt lat="42.310612387955188751220703125" lon="2.2786986641585826873779296875">
        <ele>1497.4000244140625</ele>
        <time>2020-08-09T12:20:25.000Z</time>
      </trkpt>
      <trkpt lat="42.31061247177422046661376953125" lon="2.27860160171985626220703125">
        <ele>1497.4000244140625</ele>
        <time>2020-08-09T12:20:29.000Z</time>
      </trkpt>
      <trkpt lat="42.31061968021094799041748046875" lon="2.278547622263431549072265625">
        <ele>1497.4000244140625</ele>
        <time>2020-08-09T12:20:31.000Z</time>
      </trkpt>
      <trkpt lat="42.31062219478189945220947265625" lon="2.278486602008342742919921875">
        <ele>1497.5999755859375</ele>
        <time>2020-08-09T12:20:33.000Z</time>
      </trkpt>
      <trkpt lat="42.3105894215404987335205078125" lon="2.27842717431485652923583984375">
        <ele>1497.5999755859375</ele>
        <time>2020-08-09T12:20:35.000Z</time>
      </trkpt>
      <trkpt lat="42.31051993556320667266845703125" lon="2.27841476909816265106201171875">
        <ele>1497.199951171875</ele>
        <time>2020-08-09T12:20:39.000Z</time>
      </trkpt>
      <trkpt lat="42.31041013263165950775146484375" lon="2.2784488834440708160400390625">
        <ele>1498.199951171875</ele>
        <time>2020-08-09T12:20:46.000Z</time>
      </trkpt>
      <trkpt lat="42.31039236299693584442138671875" lon="2.27843890897929668426513671875">
        <ele>1498.4000244140625</ele>
        <time>2020-08-09T12:20:47.000Z</time>
      </trkpt>
      <trkpt lat="42.310292534530162811279296875" lon="2.2783555090427398681640625">
        <ele>1498.4000244140625</ele>
        <time>2020-08-09T12:20:52.000Z</time>
      </trkpt>
      <trkpt lat="42.31017828918993473052978515625" lon="2.27822466753423213958740234375">
        <ele>1497.199951171875</ele>
        <time>2020-08-09T12:20:57.000Z</time>
      </trkpt>
      <trkpt lat="42.31015465222299098968505859375" lon="2.2782007791101932525634765625">
        <ele>1497</ele>
        <time>2020-08-09T12:20:58.000Z</time>
      </trkpt>
      <trkpt lat="42.31000788509845733642578125" lon="2.27808318100869655609130859375">
        <ele>1496.4000244140625</ele>
        <time>2020-08-09T12:21:04.000Z</time>
      </trkpt>
      <trkpt lat="42.30995046906173229217529296875" lon="2.27804764173924922943115234375">
        <ele>1496</ele>
        <time>2020-08-09T12:21:06.000Z</time>
      </trkpt>
      <trkpt lat="42.30985508300364017486572265625" lon="2.27800573222339153289794921875">
        <ele>1495</ele>
        <time>2020-08-09T12:21:09.000Z</time>
      </trkpt>
      <trkpt lat="42.30982172302901744842529296875" lon="2.27798896841704845428466796875">
        <ele>1494.800048828125</ele>
        <time>2020-08-09T12:21:10.000Z</time>
      </trkpt>
      <trkpt lat="42.309684343636035919189453125" lon="2.27784748189151287078857421875">
        <ele>1493.5999755859375</ele>
        <time>2020-08-09T12:21:15.000Z</time>
      </trkpt>
      <trkpt lat="42.30966380797326564788818359375" lon="2.27780406363308429718017578125">
        <ele>1493.4000244140625</ele>
        <time>2020-08-09T12:21:16.000Z</time>
      </trkpt>
      <trkpt lat="42.3096472956240177154541015625" lon="2.27775611914694309234619140625">
        <ele>1492.5999755859375</ele>
        <time>2020-08-09T12:21:17.000Z</time>
      </trkpt>
      <trkpt lat="42.3096016980707645416259765625" lon="2.27754606865346431732177734375">
        <ele>1491.800048828125</ele>
        <time>2020-08-09T12:21:21.000Z</time>
      </trkpt>
      <trkpt lat="42.3095946572721004486083984375" lon="2.277498207986354827880859375">
        <ele>1491.4000244140625</ele>
        <time>2020-08-09T12:21:22.000Z</time>
      </trkpt>
      <trkpt lat="42.309581749141216278076171875" lon="2.27724331431090831756591796875">
        <ele>1491</ele>
        <time>2020-08-09T12:21:28.000Z</time>
      </trkpt>
      <trkpt lat="42.3096328787505626678466796875" lon="2.277014069259166717529296875">
        <ele>1490.800048828125</ele>
        <time>2020-08-09T12:21:34.000Z</time>
      </trkpt>
      <trkpt lat="42.309636063873767852783203125" lon="2.276738472282886505126953125">
        <ele>1490.5999755859375</ele>
        <time>2020-08-09T12:21:40.000Z</time>
      </trkpt>
      <trkpt lat="42.30963162146508693695068359375" lon="2.2766662202775478363037109375">
        <ele>1490.4000244140625</ele>
        <time>2020-08-09T12:21:42.000Z</time>
      </trkpt>
      <trkpt lat="42.30965442024171352386474609375" lon="2.27653387002646923065185546875">
        <ele>1490.5999755859375</ele>
        <time>2020-08-09T12:21:46.000Z</time>
      </trkpt>
      <trkpt lat="42.309723235666751861572265625" lon="2.2763795591890811920166015625">
        <ele>1490.5999755859375</ele>
        <time>2020-08-09T12:21:52.000Z</time>
      </trkpt>
      <trkpt lat="42.3098048754036426544189453125" lon="2.27618736214935779571533203125">
        <ele>1491.199951171875</ele>
        <time>2020-08-09T12:21:59.000Z</time>
      </trkpt>
      <trkpt lat="42.30985927395522594451904296875" lon="2.27604277431964874267578125">
        <ele>1491</ele>
        <time>2020-08-09T12:22:04.000Z</time>
      </trkpt>
      <trkpt lat="42.30990420095622539520263671875" lon="2.27588159032166004180908203125">
        <ele>1490.800048828125</ele>
        <time>2020-08-09T12:22:10.000Z</time>
      </trkpt>
      <trkpt lat="42.30989883653819561004638671875" lon="2.2758297063410282135009765625">
        <ele>1490.5999755859375</ele>
        <time>2020-08-09T12:22:12.000Z</time>
      </trkpt>
      <trkpt lat="42.30992381460964679718017578125" lon="2.275754101574420928955078125">
        <ele>1490.5999755859375</ele>
        <time>2020-08-09T12:22:15.000Z</time>
      </trkpt>
      <trkpt lat="42.30991409160196781158447265625" lon="2.27566215209662914276123046875">
        <ele>1489.800048828125</ele>
        <time>2020-08-09T12:22:19.000Z</time>
      </trkpt>
      <trkpt lat="42.30990487150847911834716796875" lon="2.27564656175673007965087890625">
        <ele>1489.4000244140625</ele>
        <time>2020-08-09T12:22:20.000Z</time>
      </trkpt>
      <trkpt lat="42.30988123454153537750244140625" lon="2.27563667111098766326904296875">
        <ele>1489</ele>
        <time>2020-08-09T12:22:22.000Z</time>
      </trkpt>
      <trkpt lat="42.30986983515322208404541015625" lon="2.27563734166324138641357421875">
        <ele>1488.800048828125</ele>
        <time>2020-08-09T12:22:23.000Z</time>
      </trkpt>
      <trkpt lat="42.30985575355589389801025390625" lon="2.27563600055873394012451171875">
        <ele>1488.800048828125</ele>
        <time>2020-08-09T12:22:24.000Z</time>
      </trkpt>
      <trkpt lat="42.30978501029312610626220703125" lon="2.27565477602183818817138671875">
        <ele>1489</ele>
        <time>2020-08-09T12:22:28.000Z</time>
      </trkpt>
      <trkpt lat="42.30970638804137706756591796875" lon="2.27576424367725849151611328125">
        <ele>1490</ele>
        <time>2020-08-09T12:22:34.000Z</time>
      </trkpt>
      <trkpt lat="42.30962759815156459808349609375" lon="2.27584320120513439178466796875">
        <ele>1490</ele>
        <time>2020-08-09T12:22:38.000Z</time>
      </trkpt>
      <trkpt lat="42.30948845855891704559326171875" lon="2.2759336419403553009033203125">
        <ele>1489.199951171875</ele>
        <time>2020-08-09T12:22:44.000Z</time>
      </trkpt>
      <trkpt lat="42.30934680439531803131103515625" lon="2.2760045528411865234375">
        <ele>1489.199951171875</ele>
        <time>2020-08-09T12:22:50.000Z</time>
      </trkpt>
      <trkpt lat="42.3091789148747920989990234375" lon="2.27605191059410572052001953125">
        <ele>1489.4000244140625</ele>
        <time>2020-08-09T12:22:56.000Z</time>
      </trkpt>
      <trkpt lat="42.309006415307521820068359375" lon="2.27609834633767604827880859375">
        <ele>1488.5999755859375</ele>
        <time>2020-08-09T12:23:01.000Z</time>
      </trkpt>
      <trkpt lat="42.3089009709656238555908203125" lon="2.2761156968772411346435546875">
        <ele>1488.199951171875</ele>
        <time>2020-08-09T12:23:04.000Z</time>
      </trkpt>
      <trkpt lat="42.3087588138878345489501953125" lon="2.27610580623149871826171875">
        <ele>1488.199951171875</ele>
        <time>2020-08-09T12:23:10.000Z</time>
      </trkpt>
      <trkpt lat="42.30859796516597270965576171875" lon="2.276019640266895294189453125">
        <ele>1488.199951171875</ele>
        <time>2020-08-09T12:23:17.000Z</time>
      </trkpt>
      <trkpt lat="42.308518588542938232421875" lon="2.2759289480745792388916015625">
        <ele>1488.199951171875</ele>
        <time>2020-08-09T12:23:21.000Z</time>
      </trkpt>
      <trkpt lat="42.30840928852558135986328125" lon="2.275813110172748565673828125">
        <ele>1487.5999755859375</ele>
        <time>2020-08-09T12:23:26.000Z</time>
      </trkpt>
      <trkpt lat="42.30828330852091312408447265625" lon="2.275706827640533447265625">
        <ele>1487.800048828125</ele>
        <time>2020-08-09T12:23:32.000Z</time>
      </trkpt>
      <trkpt lat="42.3082163371145725250244140625" lon="2.275627367198467254638671875">
        <ele>1487.4000244140625</ele>
        <time>2020-08-09T12:23:35.000Z</time>
      </trkpt>
      <trkpt lat="42.3081482760608196258544921875" lon="2.2755423747003078460693359375">
        <ele>1487.199951171875</ele>
        <time>2020-08-09T12:23:38.000Z</time>
      </trkpt>
      <trkpt lat="42.3080262355506420135498046875" lon="2.2753837890923023223876953125">
        <ele>1486.800048828125</ele>
        <time>2020-08-09T12:23:45.000Z</time>
      </trkpt>
      <trkpt lat="42.3079839907586574554443359375" lon="2.2753251157701015472412109375">
        <ele>1486.4000244140625</ele>
        <time>2020-08-09T12:23:48.000Z</time>
      </trkpt>
      <trkpt lat="42.30795457027852535247802734375" lon="2.2752815298736095428466796875">
        <ele>1486.4000244140625</ele>
        <time>2020-08-09T12:23:50.000Z</time>
      </trkpt>
      <trkpt lat="42.30780906043946743011474609375" lon="2.275063432753086090087890625">
        <ele>1486.199951171875</ele>
        <time>2020-08-09T12:23:59.000Z</time>
      </trkpt>
      <trkpt lat="42.3077197931706905364990234375" lon="2.2748580761253833770751953125">
        <ele>1486.4000244140625</ele>
        <time>2020-08-09T12:24:06.000Z</time>
      </trkpt>
      <trkpt lat="42.30768802575767040252685546875" lon="2.2746424935758113861083984375">
        <ele>1486.4000244140625</ele>
        <time>2020-08-09T12:24:12.000Z</time>
      </trkpt>
      <trkpt lat="42.30768567882478237152099609375" lon="2.274305038154125213623046875">
        <ele>1485.5999755859375</ele>
        <time>2020-08-09T12:24:21.000Z</time>
      </trkpt>
      <trkpt lat="42.3076725192368030548095703125" lon="2.274026088416576385498046875">
        <ele>1485</ele>
        <time>2020-08-09T12:24:27.000Z</time>
      </trkpt>
      <trkpt lat="42.3076648078858852386474609375" lon="2.27394637651741504669189453125">
        <ele>1484.800048828125</ele>
        <time>2020-08-09T12:24:29.000Z</time>
      </trkpt>
      <trkpt lat="42.30765399523079395294189453125" lon="2.2737729549407958984375">
        <ele>1485</ele>
        <time>2020-08-09T12:24:34.000Z</time>
      </trkpt>
      <trkpt lat="42.307639829814434051513671875" lon="2.2735220007598400115966796875">
        <ele>1485</ele>
        <time>2020-08-09T12:24:40.000Z</time>
      </trkpt>
      <trkpt lat="42.3076242394745349884033203125" lon="2.27341127581894397735595703125">
        <ele>1484.5999755859375</ele>
        <time>2020-08-09T12:24:45.000Z</time>
      </trkpt>
      <trkpt lat="42.30762281455099582672119140625" lon="2.27340842597186565399169921875">
        <ele>1484.199951171875</ele>
        <time>2020-08-09T12:24:51.000Z</time>
      </trkpt>
      <trkpt lat="42.30762231163680553436279296875" lon="2.27340641431510448455810546875">
        <ele>1484</ele>
        <time>2020-08-09T12:24:57.000Z</time>
      </trkpt>
      <trkpt lat="42.3076225630939006805419921875" lon="2.27340591140091419219970703125">
        <ele>1483.5999755859375</ele>
        <time>2020-08-09T12:24:58.000Z</time>
      </trkpt>
      <trkpt lat="42.30762281455099582672119140625" lon="2.273405157029628753662109375">
        <ele>1485</ele>
        <time>2020-08-09T12:25:07.000Z</time>
      </trkpt>
      <trkpt lat="42.3076228983700275421142578125" lon="2.27340507321059703826904296875">
        <ele>1485.199951171875</ele>
        <time>2020-08-09T12:25:10.000Z</time>
      </trkpt>
      <trkpt lat="42.30762331746518611907958984375" lon="2.2734043188393115997314453125">
        <ele>1483.800048828125</ele>
        <time>2020-08-09T12:25:15.000Z</time>
      </trkpt>
      <trkpt lat="42.307622730731964111328125" lon="2.27340490557253360748291015625">
        <ele>1484.199951171875</ele>
        <time>2020-08-09T12:25:37.000Z</time>
      </trkpt>
      <trkpt lat="42.3076262511312961578369140625" lon="2.27340281009674072265625">
        <ele>1483.5999755859375</ele>
        <time>2020-08-09T12:25:50.000Z</time>
      </trkpt>
      <trkpt lat="42.3076299391686916351318359375" lon="2.27339451201260089874267578125">
        <ele>1484.5999755859375</ele>
        <time>2020-08-09T12:26:00.000Z</time>
      </trkpt>
      <trkpt lat="42.30762901715934276580810546875" lon="2.2733949311077594757080078125">
        <ele>1484.5999755859375</ele>
        <time>2020-08-09T12:26:06.000Z</time>
      </trkpt>
      <trkpt lat="42.3076259158551692962646484375" lon="2.27336148731410503387451171875">
        <ele>1484.5999755859375</ele>
        <time>2020-08-09T12:26:12.000Z</time>
      </trkpt>
      <trkpt lat="42.30758928693830966949462890625" lon="2.273226790130138397216796875">
        <ele>1484.4000244140625</ele>
        <time>2020-08-09T12:26:17.000Z</time>
      </trkpt>
      <trkpt lat="42.30753715150058269500732421875" lon="2.27312008850276470184326171875">
        <ele>1484.199951171875</ele>
        <time>2020-08-09T12:26:21.000Z</time>
      </trkpt>
      <trkpt lat="42.307525835931301116943359375" lon="2.273095361888408660888671875">
        <ele>1482.5999755859375</ele>
        <time>2020-08-09T12:26:22.000Z</time>
      </trkpt>
      <trkpt lat="42.30751485563814640045166015625" lon="2.27306845597922801971435546875">
        <ele>1483.800048828125</ele>
        <time>2020-08-09T12:26:23.000Z</time>
      </trkpt>
      <trkpt lat="42.3075032047927379608154296875" lon="2.27304331026971340179443359375">
        <ele>1484.199951171875</ele>
        <time>2020-08-09T12:26:24.000Z</time>
      </trkpt>
      <trkpt lat="42.3074918054044246673583984375" lon="2.273016907274723052978515625">
        <ele>1484.4000244140625</ele>
        <time>2020-08-09T12:26:25.000Z</time>
      </trkpt>
      <trkpt lat="42.307413518428802490234375" lon="2.27286628447473049163818359375">
        <ele>1484.800048828125</ele>
        <time>2020-08-09T12:26:31.000Z</time>
      </trkpt>
      <trkpt lat="42.30732525698840618133544921875" lon="2.272686660289764404296875">
        <ele>1485</ele>
        <time>2020-08-09T12:26:38.000Z</time>
      </trkpt>
      <trkpt lat="42.30724428780376911163330078125" lon="2.27252363227307796478271484375">
        <ele>1485</ele>
        <time>2020-08-09T12:26:44.000Z</time>
      </trkpt>
      <trkpt lat="42.3071806691586971282958984375" lon="2.27238046936690807342529296875">
        <ele>1484.4000244140625</ele>
        <time>2020-08-09T12:26:48.000Z</time>
      </trkpt>
      <trkpt lat="42.30714839883148670196533203125" lon="2.272284328937530517578125">
        <ele>1483.800048828125</ele>
        <time>2020-08-09T12:26:50.000Z</time>
      </trkpt>
      <trkpt lat="42.3071280308067798614501953125" lon="2.2720581851899623870849609375">
        <ele>1484.199951171875</ele>
        <time>2020-08-09T12:26:55.000Z</time>
      </trkpt>
      <trkpt lat="42.3071468062698841094970703125" lon="2.271917872130870819091796875">
        <ele>1484</ele>
        <time>2020-08-09T12:27:00.000Z</time>
      </trkpt>
      <trkpt lat="42.30720958672463893890380859375" lon="2.2717867791652679443359375">
        <ele>1484</ele>
        <time>2020-08-09T12:27:06.000Z</time>
      </trkpt>
      <trkpt lat="42.30727429501712322235107421875" lon="2.2716097533702850341796875">
        <ele>1484.4000244140625</ele>
        <time>2020-08-09T12:27:13.000Z</time>
      </trkpt>
      <trkpt lat="42.30737286619842052459716796875" lon="2.27141998708248138427734375">
        <ele>1484.5999755859375</ele>
        <time>2020-08-09T12:27:20.000Z</time>
      </trkpt>
      <trkpt lat="42.30748585425317287445068359375" lon="2.271156795322895050048828125">
        <ele>1483.5999755859375</ele>
        <time>2020-08-09T12:27:27.000Z</time>
      </trkpt>
      <trkpt lat="42.3075695894658565521240234375" lon="2.2710034064948558807373046875">
        <ele>1482.800048828125</ele>
        <time>2020-08-09T12:27:32.000Z</time>
      </trkpt>
      <trkpt lat="42.30759833939373493194580078125" lon="2.27094297297298908233642578125">
        <ele>1482.4000244140625</ele>
        <time>2020-08-09T12:27:34.000Z</time>
      </trkpt>
      <trkpt lat="42.3077380657196044921875" lon="2.2707943618297576904296875">
        <ele>1482.199951171875</ele>
        <time>2020-08-09T12:27:40.000Z</time>
      </trkpt>
      <trkpt lat="42.30779782868921756744384765625" lon="2.27073468267917633056640625">
        <ele>1482.4000244140625</ele>
        <time>2020-08-09T12:27:43.000Z</time>
      </trkpt>
      <trkpt lat="42.3078522272408008575439453125" lon="2.27067994885146617889404296875">
        <ele>1481.800048828125</ele>
        <time>2020-08-09T12:27:46.000Z</time>
      </trkpt>
      <trkpt lat="42.3078656382858753204345703125" lon="2.27065715007483959197998046875">
        <ele>1481.4000244140625</ele>
        <time>2020-08-09T12:27:47.000Z</time>
      </trkpt>
      <trkpt lat="42.30787443928420543670654296875" lon="2.27063275873661041259765625">
        <ele>1481.199951171875</ele>
        <time>2020-08-09T12:27:48.000Z</time>
      </trkpt>
      <trkpt lat="42.30787863023579120635986328125" lon="2.27059797383844852447509765625">
        <ele>1481</ele>
        <time>2020-08-09T12:27:51.000Z</time>
      </trkpt>
      <trkpt lat="42.3078820668160915374755859375" lon="2.27056947536766529083251953125">
        <ele>1481.199951171875</ele>
        <time>2020-08-09T12:27:54.000Z</time>
      </trkpt>
      <trkpt lat="42.3078686557710170745849609375" lon="2.27053997106850147247314453125">
        <ele>1481.4000244140625</ele>
        <time>2020-08-09T12:27:57.000Z</time>
      </trkpt>
      <trkpt lat="42.30782733298838138580322265625" lon="2.27051666937768459320068359375">
        <ele>1481.5999755859375</ele>
        <time>2020-08-09T12:28:02.000Z</time>
      </trkpt>
      <trkpt lat="42.3077412508428096771240234375" lon="2.270496301352977752685546875">
        <ele>1481.199951171875</ele>
        <time>2020-08-09T12:28:10.000Z</time>
      </trkpt>
      <trkpt lat="42.3076886124908924102783203125" lon="2.27048867382109165191650390625">
        <ele>1480.5999755859375</ele>
        <time>2020-08-09T12:28:13.000Z</time>
      </trkpt>
      <trkpt lat="42.30758409015834331512451171875" lon="2.270458750426769256591796875">
        <ele>1480</ele>
        <time>2020-08-09T12:28:18.000Z</time>
      </trkpt>
      <trkpt lat="42.30748451314866542816162109375" lon="2.27044810540974140167236328125">
        <ele>1479.4000244140625</ele>
        <time>2020-08-09T12:28:22.000Z</time>
      </trkpt>
      <trkpt lat="42.30740589089691638946533203125" lon="2.27045380510389804840087890625">
        <ele>1478.800048828125</ele>
        <time>2020-08-09T12:28:25.000Z</time>
      </trkpt>
      <trkpt lat="42.30727680958807468414306640625" lon="2.270481884479522705078125">
        <ele>1479</ele>
        <time>2020-08-09T12:28:31.000Z</time>
      </trkpt>
      <trkpt lat="42.30710707604885101318359375" lon="2.2705073654651641845703125">
        <ele>1478.5999755859375</ele>
        <time>2020-08-09T12:28:38.000Z</time>
      </trkpt>
      <trkpt lat="42.306872718036174774169921875" lon="2.27054315619170665740966796875">
        <ele>1478.4000244140625</ele>
        <time>2020-08-09T12:28:46.000Z</time>
      </trkpt>
      <trkpt lat="42.30670700781047344207763671875" lon="2.2705812938511371612548828125">
        <ele>1477.800048828125</ele>
        <time>2020-08-09T12:28:53.000Z</time>
      </trkpt>
      <trkpt lat="42.30659871362149715423583984375" lon="2.270538546144962310791015625">
        <ele>1478.199951171875</ele>
        <time>2020-08-09T12:28:58.000Z</time>
      </trkpt>
      <trkpt lat="42.3064718954265117645263671875" lon="2.27035406045615673065185546875">
        <ele>1477.800048828125</ele>
        <time>2020-08-09T12:29:06.000Z</time>
      </trkpt>
      <trkpt lat="42.306370474398136138916015625" lon="2.27017351426184177398681640625">
        <ele>1478</ele>
        <time>2020-08-09T12:29:13.000Z</time>
      </trkpt>
      <trkpt lat="42.30625891126692295074462890625" lon="2.26996815763413906097412109375">
        <ele>1478</ele>
        <time>2020-08-09T12:29:21.000Z</time>
      </trkpt>
      <trkpt lat="42.30614818632602691650390625" lon="2.26973564364016056060791015625">
        <ele>1478</ele>
        <time>2020-08-09T12:29:28.000Z</time>
      </trkpt>
      <trkpt lat="42.3060370422899723052978515625" lon="2.2696042992174625396728515625">
        <ele>1477.800048828125</ele>
        <time>2020-08-09T12:29:34.000Z</time>
      </trkpt>
      <trkpt lat="42.3059250600636005401611328125" lon="2.26945619098842144012451171875">
        <ele>1478.199951171875</ele>
        <time>2020-08-09T12:29:42.000Z</time>
      </trkpt>
      <trkpt lat="42.30588935315608978271484375" lon="2.26930146105587482452392578125">
        <ele>1478</ele>
        <time>2020-08-09T12:29:46.000Z</time>
      </trkpt>
      <trkpt lat="42.30585071258246898651123046875" lon="2.26910792291164398193359375">
        <ele>1477.5999755859375</ele>
        <time>2020-08-09T12:29:52.000Z</time>
      </trkpt>
      <trkpt lat="42.3058103956282138824462890625" lon="2.26898931898176670074462890625">
        <ele>1477.199951171875</ele>
        <time>2020-08-09T12:29:58.000Z</time>
      </trkpt>
      <trkpt lat="42.30579949915409088134765625" lon="2.2689820267260074615478515625">
        <ele>1477.199951171875</ele>
        <time>2020-08-09T12:30:12.000Z</time>
      </trkpt>
      <trkpt lat="42.30579279363155364990234375" lon="2.268971465528011322021484375">
        <ele>1477</ele>
        <time>2020-08-09T12:30:17.000Z</time>
      </trkpt>
      <trkpt lat="42.3057735152542591094970703125" lon="2.268957383930683135986328125">
        <ele>1476.800048828125</ele>
        <time>2020-08-09T12:30:20.000Z</time>
      </trkpt>
      <trkpt lat="42.30574049055576324462890625" lon="2.2689622454345226287841796875">
        <ele>1477.800048828125</ele>
        <time>2020-08-09T12:30:25.000Z</time>
      </trkpt>
      <trkpt lat="42.30572615750133991241455078125" lon="2.26897071115672588348388671875">
        <ele>1478</ele>
        <time>2020-08-09T12:30:28.000Z</time>
      </trkpt>
      <trkpt lat="42.30564518831670284271240234375" lon="2.2690420411527156829833984375">
        <ele>1478.5999755859375</ele>
        <time>2020-08-09T12:30:38.000Z</time>
      </trkpt>
      <trkpt lat="42.3056365549564361572265625" lon="2.26904715411365032196044921875">
        <ele>1478.800048828125</ele>
        <time>2020-08-09T12:30:39.000Z</time>
      </trkpt>
      <trkpt lat="42.30557846836745738983154296875" lon="2.269064672291278839111328125">
        <ele>1479.4000244140625</ele>
        <time>2020-08-09T12:30:45.000Z</time>
      </trkpt>
      <trkpt lat="42.3055337928235530853271484375" lon="2.269053272902965545654296875">
        <ele>1478.800048828125</ele>
        <time>2020-08-09T12:30:50.000Z</time>
      </trkpt>
      <trkpt lat="42.30551526881754398345947265625" lon="2.26908805780112743377685546875">
        <ele>1479.199951171875</ele>
        <time>2020-08-09T12:30:56.000Z</time>
      </trkpt>
      <trkpt lat="42.3054992593824863433837890625" lon="2.26914069615304470062255859375">
        <ele>1479.5999755859375</ele>
        <time>2020-08-09T12:31:00.000Z</time>
      </trkpt>
      <trkpt lat="42.30549531988799571990966796875" lon="2.269192747771739959716796875">
        <ele>1480</ele>
        <time>2020-08-09T12:31:03.000Z</time>
      </trkpt>
      <trkpt lat="42.30548165738582611083984375" lon="2.269236333668231964111328125">
        <ele>1480.800048828125</ele>
        <time>2020-08-09T12:31:06.000Z</time>
      </trkpt>
      <trkpt lat="42.3054724372923374176025390625" lon="2.26931051351130008697509765625">
        <ele>1481.5999755859375</ele>
        <time>2020-08-09T12:31:12.000Z</time>
      </trkpt>
      <trkpt lat="42.3054717667400836944580078125" lon="2.2693417780101299285888671875">
        <ele>1482</ele>
        <time>2020-08-09T12:31:15.000Z</time>
      </trkpt>
      <trkpt lat="42.305487692356109619140625" lon="2.26940908469259738922119140625">
        <ele>1482.4000244140625</ele>
        <time>2020-08-09T12:31:19.000Z</time>
      </trkpt>
      <trkpt lat="42.30548475868999958038330078125" lon="2.26948988623917102813720703125">
        <ele>1483</ele>
        <time>2020-08-09T12:31:25.000Z</time>
      </trkpt>
      <trkpt lat="42.305483333766460418701171875" lon="2.269511930644512176513671875">
        <ele>1483.199951171875</ele>
        <time>2020-08-09T12:31:27.000Z</time>
      </trkpt>
      <trkpt lat="42.30548727326095104217529296875" lon="2.26961662061512470245361328125">
        <ele>1484.199951171875</ele>
        <time>2020-08-09T12:31:34.000Z</time>
      </trkpt>
      <trkpt lat="42.30548794381320476531982421875" lon="2.269629277288913726806640625">
        <ele>1484.4000244140625</ele>
        <time>2020-08-09T12:31:35.000Z</time>
      </trkpt>
      <trkpt lat="42.30550269596278667449951171875" lon="2.26973363198339939117431640625">
        <ele>1485</ele>
        <time>2020-08-09T12:31:44.000Z</time>
      </trkpt>
      <trkpt lat="42.3055016063153743743896484375" lon="2.26974084042012691497802734375">
        <ele>1485.199951171875</ele>
        <time>2020-08-09T12:31:45.000Z</time>
      </trkpt>
      <trkpt lat="42.30546548031270503997802734375" lon="2.26980957202613353729248046875">
        <ele>1486.199951171875</ele>
        <time>2020-08-09T12:31:52.000Z</time>
      </trkpt>
      <trkpt lat="42.30545123107731342315673828125" lon="2.269817031919956207275390625">
        <ele>1486.199951171875</ele>
        <time>2020-08-09T12:31:54.000Z</time>
      </trkpt>
      <trkpt lat="42.305443771183490753173828125" lon="2.269817031919956207275390625">
        <ele>1486.4000244140625</ele>
        <time>2020-08-09T12:31:55.000Z</time>
      </trkpt>
      <trkpt lat="42.3054161109030246734619140625" lon="2.2697806544601917266845703125">
        <ele>1486.800048828125</ele>
        <time>2020-08-09T12:32:00.000Z</time>
      </trkpt>
      <trkpt lat="42.30541686527431011199951171875" lon="2.269769422709941864013671875">
        <ele>1487.199951171875</ele>
        <time>2020-08-09T12:32:01.000Z</time>
      </trkpt>
      <trkpt lat="42.3054177872836589813232421875" lon="2.269749976694583892822265625">
        <ele>1487.199951171875</ele>
        <time>2020-08-09T12:32:03.000Z</time>
      </trkpt>
      <trkpt lat="42.305407561361789703369140625" lon="2.26971200667321681976318359375">
        <ele>1487.5999755859375</ele>
        <time>2020-08-09T12:32:07.000Z</time>
      </trkpt>
      <trkpt lat="42.30539808981120586395263671875" lon="2.26965911686420440673828125">
        <ele>1488.4000244140625</ele>
        <time>2020-08-09T12:32:12.000Z</time>
      </trkpt>
      <trkpt lat="42.30539674870669841766357421875" lon="2.2696418501436710357666015625">
        <ele>1488.5999755859375</ele>
        <time>2020-08-09T12:32:14.000Z</time>
      </trkpt>
      <trkpt lat="42.30537529103457927703857421875" lon="2.269585020840167999267578125">
        <ele>1489.4000244140625</ele>
        <time>2020-08-09T12:32:20.000Z</time>
      </trkpt>
      <trkpt lat="42.30537327937781810760498046875" lon="2.26957621984183788299560546875">
        <ele>1489.5999755859375</ele>
        <time>2020-08-09T12:32:21.000Z</time>
      </trkpt>
      <trkpt lat="42.305357940495014190673828125" lon="2.26950354874134063720703125">
        <ele>1490.4000244140625</ele>
        <time>2020-08-09T12:32:30.000Z</time>
      </trkpt>
      <trkpt lat="42.30533572845160961151123046875" lon="2.2694467194378376007080078125">
        <ele>1491.5999755859375</ele>
        <time>2020-08-09T12:32:36.000Z</time>
      </trkpt>
      <trkpt lat="42.3053269274532794952392578125" lon="2.2694172151386737823486328125">
        <ele>1491.800048828125</ele>
        <time>2020-08-09T12:32:39.000Z</time>
      </trkpt>
      <trkpt lat="42.3052954114973545074462890625" lon="2.26932845078408718109130859375">
        <ele>1492.4000244140625</ele>
        <time>2020-08-09T12:32:46.000Z</time>
      </trkpt>
      <trkpt lat="42.305269427597522735595703125" lon="2.2692831046879291534423828125">
        <ele>1492.5999755859375</ele>
        <time>2020-08-09T12:32:51.000Z</time>
      </trkpt>
      <trkpt lat="42.3052514903247356414794921875" lon="2.26924513466656208038330078125">
        <ele>1493</ele>
        <time>2020-08-09T12:32:55.000Z</time>
      </trkpt>
      <trkpt lat="42.30523698963224887847900390625" lon="2.2692170552909374237060546875">
        <ele>1493.4000244140625</ele>
        <time>2020-08-09T12:32:58.000Z</time>
      </trkpt>
      <trkpt lat="42.3052068985998630523681640625" lon="2.269175313413143157958984375">
        <ele>1494.199951171875</ele>
        <time>2020-08-09T12:33:03.000Z</time>
      </trkpt>
      <trkpt lat="42.3051780648529529571533203125" lon="2.26914404891431331634521484375">
        <ele>1494.5999755859375</ele>
        <time>2020-08-09T12:33:07.000Z</time>
      </trkpt>
      <trkpt lat="42.30513858608901500701904296875" lon="2.26909794844686985015869140625">
        <ele>1495.199951171875</ele>
        <time>2020-08-09T12:33:13.000Z</time>
      </trkpt>
      <trkpt lat="42.3050935752689838409423828125" lon="2.2690527699887752532958984375">
        <ele>1495.800048828125</ele>
        <time>2020-08-09T12:33:19.000Z</time>
      </trkpt>
      <trkpt lat="42.30504906736314296722412109375" lon="2.2690182365477085113525390625">
        <ele>1496.199951171875</ele>
        <time>2020-08-09T12:33:25.000Z</time>
      </trkpt>
      <trkpt lat="42.30502174235880374908447265625" lon="2.26899552159011363983154296875">
        <ele>1496.800048828125</ele>
        <time>2020-08-09T12:33:29.000Z</time>
      </trkpt>
      <trkpt lat="42.30499349534511566162109375" lon="2.2689753212034702301025390625">
        <ele>1497</ele>
        <time>2020-08-09T12:33:33.000Z</time>
      </trkpt>
      <trkpt lat="42.3049866221845149993896484375" lon="2.26897037588059902191162109375">
        <ele>1497.4000244140625</ele>
        <time>2020-08-09T12:33:34.000Z</time>
      </trkpt>
      <trkpt lat="42.3049457184970378875732421875" lon="2.26894120685756206512451171875">
        <ele>1497.5999755859375</ele>
        <time>2020-08-09T12:33:40.000Z</time>
      </trkpt>
      <trkpt lat="42.30493851006031036376953125" lon="2.26893567480146884918212890625">
        <ele>1498</ele>
        <time>2020-08-09T12:33:43.000Z</time>
      </trkpt>
      <trkpt lat="42.304938174784183502197265625" lon="2.2689354233443737030029296875">
        <ele>1498.5999755859375</ele>
        <time>2020-08-09T12:33:54.000Z</time>
      </trkpt>
      <trkpt lat="42.30493624694645404815673828125" lon="2.2689357586205005645751953125">
        <ele>1498.5999755859375</ele>
        <time>2020-08-09T12:34:30.000Z</time>
      </trkpt>
      <trkpt lat="42.30490003712475299835205078125" lon="2.26890684105455875396728515625">
        <ele>1498.5999755859375</ele>
        <time>2020-08-09T12:34:37.000Z</time>
      </trkpt>
      <trkpt lat="42.3048900626599788665771484375" lon="2.2688965313136577606201171875">
        <ele>1498.800048828125</ele>
        <time>2020-08-09T12:34:39.000Z</time>
      </trkpt>
      <trkpt lat="42.30486097745597362518310546875" lon="2.2688633389770984649658203125">
        <ele>1499.800048828125</ele>
        <time>2020-08-09T12:34:45.000Z</time>
      </trkpt>
      <trkpt lat="42.3048377595841884613037109375" lon="2.26884196512401103973388671875">
        <ele>1500.199951171875</ele>
        <time>2020-08-09T12:34:49.000Z</time>
      </trkpt>
      <trkpt lat="42.30479408986866474151611328125" lon="2.26881799288094043731689453125">
        <ele>1500.5999755859375</ele>
        <time>2020-08-09T12:34:56.000Z</time>
      </trkpt>
      <trkpt lat="42.3047755658626556396484375" lon="2.26880173198878765106201171875">
        <ele>1501</ele>
        <time>2020-08-09T12:34:58.000Z</time>
      </trkpt>
      <trkpt lat="42.30473726056516170501708984375" lon="2.26876283995807170867919921875">
        <ele>1501.4000244140625</ele>
        <time>2020-08-09T12:35:03.000Z</time>
      </trkpt>
      <trkpt lat="42.30472770519554615020751953125" lon="2.2687590681016445159912109375">
        <ele>1501.5999755859375</ele>
        <time>2020-08-09T12:35:04.000Z</time>
      </trkpt>
      <trkpt lat="42.30472259223461151123046875" lon="2.268752865493297576904296875">
        <ele>1501.800048828125</ele>
        <time>2020-08-09T12:35:05.000Z</time>
      </trkpt>
      <trkpt lat="42.30469099245965480804443359375" lon="2.26871238090097904205322265625">
        <ele>1502.800048828125</ele>
        <time>2020-08-09T12:35:11.000Z</time>
      </trkpt>
      <trkpt lat="42.30468445457518100738525390625" lon="2.26870634593069553375244140625">
        <ele>1503</ele>
        <time>2020-08-09T12:35:12.000Z</time>
      </trkpt>
      <trkpt lat="42.30464279651641845703125" lon="2.26867851801216602325439453125">
        <ele>1503.800048828125</ele>
        <time>2020-08-09T12:35:18.000Z</time>
      </trkpt>
      <trkpt lat="42.304618321359157562255859375" lon="2.26865538395941257476806640625">
        <ele>1504.199951171875</ele>
        <time>2020-08-09T12:35:22.000Z</time>
      </trkpt>
      <trkpt lat="42.30459845624864101409912109375" lon="2.26864431984722614288330078125">
        <ele>1505</ele>
        <time>2020-08-09T12:35:26.000Z</time>
      </trkpt>
      <trkpt lat="42.3045588098466396331787109375" lon="2.26861515082418918609619140625">
        <ele>1505.800048828125</ele>
        <time>2020-08-09T12:35:33.000Z</time>
      </trkpt>
      <trkpt lat="42.304535172879695892333984375" lon="2.26858648471534252166748046875">
        <ele>1506</ele>
        <time>2020-08-09T12:35:37.000Z</time>
      </trkpt>
      <trkpt lat="42.3045028187334537506103515625" lon="2.268573828041553497314453125">
        <ele>1506.800048828125</ele>
        <time>2020-08-09T12:35:42.000Z</time>
      </trkpt>
      <trkpt lat="42.30448597110807895660400390625" lon="2.26857206784188747406005859375">
        <ele>1507.199951171875</ele>
        <time>2020-08-09T12:35:46.000Z</time>
      </trkpt>
      <trkpt lat="42.30445948429405689239501953125" lon="2.26856536231935024261474609375">
        <ele>1508.199951171875</ele>
        <time>2020-08-09T12:35:51.000Z</time>
      </trkpt>
      <trkpt lat="42.3044491745531558990478515625" lon="2.26856167428195476531982421875">
        <ele>1508.4000244140625</ele>
        <time>2020-08-09T12:35:53.000Z</time>
      </trkpt>
      <trkpt lat="42.30442126281559467315673828125" lon="2.26856075227260589599609375">
        <ele>1509.199951171875</ele>
        <time>2020-08-09T12:35:59.000Z</time>
      </trkpt>
      <trkpt lat="42.30439326725900173187255859375" lon="2.268567793071269989013671875">
        <ele>1509.800048828125</ele>
        <time>2020-08-09T12:36:03.000Z</time>
      </trkpt>
      <trkpt lat="42.30435973964631557464599609375" lon="2.26855270564556121826171875">
        <ele>1510</ele>
        <time>2020-08-09T12:36:09.000Z</time>
      </trkpt>
      <trkpt lat="42.30434699915349483489990234375" lon="2.2685511969029903411865234375">
        <ele>1510.4000244140625</ele>
        <time>2020-08-09T12:36:11.000Z</time>
      </trkpt>
      <trkpt lat="42.3042989708483219146728515625" lon="2.26855061016976833343505859375">
        <ele>1511</ele>
        <time>2020-08-09T12:36:18.000Z</time>
      </trkpt>
      <trkpt lat="42.3042761720716953277587890625" lon="2.26854926906526088714599609375">
        <ele>1511.4000244140625</ele>
        <time>2020-08-09T12:36:21.000Z</time>
      </trkpt>
      <trkpt lat="42.30423166416585445404052734375" lon="2.268539965152740478515625">
        <ele>1511.5999755859375</ele>
        <time>2020-08-09T12:36:27.000Z</time>
      </trkpt>
      <trkpt lat="42.30419277213513851165771484375" lon="2.268533594906330108642578125">
        <ele>1512.5999755859375</ele>
        <time>2020-08-09T12:36:32.000Z</time>
      </trkpt>
      <trkpt lat="42.3041658662259578704833984375" lon="2.26852898485958576202392578125">
        <ele>1513</ele>
        <time>2020-08-09T12:36:36.000Z</time>
      </trkpt>
      <trkpt lat="42.3041497729718685150146484375" lon="2.26852412335574626922607421875">
        <ele>1513.4000244140625</ele>
        <time>2020-08-09T12:36:39.000Z</time>
      </trkpt>
      <trkpt lat="42.304106019437313079833984375" lon="2.268522195518016815185546875">
        <ele>1514.199951171875</ele>
        <time>2020-08-09T12:36:46.000Z</time>
      </trkpt>
      <trkpt lat="42.30407291091978549957275390625" lon="2.26851708255708217620849609375">
        <ele>1514.5999755859375</ele>
        <time>2020-08-09T12:36:51.000Z</time>
      </trkpt>
      <trkpt lat="42.30404458008706569671630859375" lon="2.268508784472942352294921875">
        <ele>1515.4000244140625</ele>
        <time>2020-08-09T12:36:56.000Z</time>
      </trkpt>
      <trkpt lat="42.3040299117565155029296875" lon="2.26851004175841808319091796875">
        <ele>1515.800048828125</ele>
        <time>2020-08-09T12:36:58.000Z</time>
      </trkpt>
      <trkpt lat="42.30397433973848819732666015625" lon="2.26850417442619800567626953125">
        <ele>1516.4000244140625</ele>
        <time>2020-08-09T12:37:04.000Z</time>
      </trkpt>
      <trkpt lat="42.30391600169241428375244140625" lon="2.268469221889972686767578125">
        <ele>1516.800048828125</ele>
        <time>2020-08-09T12:37:11.000Z</time>
      </trkpt>
      <trkpt lat="42.30391214601695537567138671875" lon="2.26846494711935520172119140625">
        <ele>1516.800048828125</ele>
        <time>2020-08-09T12:37:12.000Z</time>
      </trkpt>
      <trkpt lat="42.30383486486971378326416015625" lon="2.2684714011847972869873046875">
        <ele>1517.5999755859375</ele>
        <time>2020-08-09T12:37:21.000Z</time>
      </trkpt>
      <trkpt lat="42.30376546271145343780517578125" lon="2.2684791125357151031494140625">
        <ele>1518.800048828125</ele>
        <time>2020-08-09T12:37:29.000Z</time>
      </trkpt>
      <trkpt lat="42.30375406332314014434814453125" lon="2.26847936399281024932861328125">
        <ele>1518.800048828125</ele>
        <time>2020-08-09T12:37:30.000Z</time>
      </trkpt>
      <trkpt lat="42.303654067218303680419921875" lon="2.268516160547733306884765625">
        <ele>1519.800048828125</ele>
        <time>2020-08-09T12:37:40.000Z</time>
      </trkpt>
      <trkpt lat="42.30364434421062469482421875" lon="2.2685166634619235992431640625">
        <ele>1520</ele>
        <time>2020-08-09T12:37:41.000Z</time>
      </trkpt>
      <trkpt lat="42.30356882326304912567138671875" lon="2.26854273118078708648681640625">
        <ele>1521</ele>
        <time>2020-08-09T12:37:50.000Z</time>
      </trkpt>
      <trkpt lat="42.30355323292315006256103515625" lon="2.26855547167360782623291015625">
        <ele>1521</ele>
        <time>2020-08-09T12:37:52.000Z</time>
      </trkpt>
      <trkpt lat="42.3035026900470256805419921875" lon="2.26857709698379039764404296875">
        <ele>1521.800048828125</ele>
        <time>2020-08-09T12:37:59.000Z</time>
      </trkpt>
      <trkpt lat="42.303468324244022369384765625" lon="2.268588580191135406494140625">
        <ele>1522.199951171875</ele>
        <time>2020-08-09T12:38:03.000Z</time>
      </trkpt>
      <trkpt lat="42.30343068949878215789794921875" lon="2.26860676892101764678955078125">
        <ele>1523</ele>
        <time>2020-08-09T12:38:08.000Z</time>
      </trkpt>
      <trkpt lat="42.3034228943288326263427734375" lon="2.26860911585390567779541015625">
        <ele>1523</ele>
        <time>2020-08-09T12:38:09.000Z</time>
      </trkpt>
      <trkpt lat="42.30334796011447906494140625" lon="2.26863090880215167999267578125">
        <ele>1524</ele>
        <time>2020-08-09T12:38:19.000Z</time>
      </trkpt>
      <trkpt lat="42.3032723553478717803955078125" lon="2.268639542162418365478515625">
        <ele>1524.199951171875</ele>
        <time>2020-08-09T12:38:28.000Z</time>
      </trkpt>
      <trkpt lat="42.3032440245151519775390625" lon="2.2686387039721012115478515625">
        <ele>1524.4000244140625</ele>
        <time>2020-08-09T12:38:31.000Z</time>
      </trkpt>
      <trkpt lat="42.30318275280296802520751953125" lon="2.26863920688629150390625">
        <ele>1525.4000244140625</ele>
        <time>2020-08-09T12:38:37.000Z</time>
      </trkpt>
      <trkpt lat="42.303154170513153076171875" lon="2.2686417214572429656982421875">
        <ele>1525.4000244140625</ele>
        <time>2020-08-09T12:38:40.000Z</time>
      </trkpt>
      <trkpt lat="42.303102202713489532470703125" lon="2.2686350159347057342529296875">
        <ele>1526.199951171875</ele>
        <time>2020-08-09T12:38:46.000Z</time>
      </trkpt>
      <trkpt lat="42.3030416853725910186767578125" lon="2.26862914860248565673828125">
        <ele>1526.800048828125</ele>
        <time>2020-08-09T12:38:52.000Z</time>
      </trkpt>
      <trkpt lat="42.3030106723308563232421875" lon="2.26862889714539051055908203125">
        <ele>1527.4000244140625</ele>
        <time>2020-08-09T12:38:55.000Z</time>
      </trkpt>
      <trkpt lat="42.30292014777660369873046875" lon="2.2686393745243549346923828125">
        <ele>1528</ele>
        <time>2020-08-09T12:39:04.000Z</time>
      </trkpt>
      <trkpt lat="42.30283054523169994354248046875" lon="2.26863920688629150390625">
        <ele>1528</ele>
        <time>2020-08-09T12:39:13.000Z</time>
      </trkpt>
      <trkpt lat="42.302741110324859619140625" lon="2.2686460800468921661376953125">
        <ele>1528.4000244140625</ele>
        <time>2020-08-09T12:39:22.000Z</time>
      </trkpt>
      <trkpt lat="42.3027211613953113555908203125" lon="2.2686474211513996124267578125">
        <ele>1528.5999755859375</ele>
        <time>2020-08-09T12:39:24.000Z</time>
      </trkpt>
      <trkpt lat="42.302614040672779083251953125" lon="2.268652953207492828369140625">
        <ele>1529.4000244140625</ele>
        <time>2020-08-09T12:39:35.000Z</time>
      </trkpt>
      <trkpt lat="42.30259434320032596588134765625" lon="2.2686594910919666290283203125">
        <ele>1529.5999755859375</ele>
        <time>2020-08-09T12:39:37.000Z</time>
      </trkpt>
      <trkpt lat="42.30250038206577301025390625" lon="2.2686893306672573089599609375">
        <ele>1528.800048828125</ele>
        <time>2020-08-09T12:39:47.000Z</time>
      </trkpt>
      <trkpt lat="42.30239820666611194610595703125" lon="2.268720008432865142822265625">
        <ele>1529.4000244140625</ele>
        <time>2020-08-09T12:39:58.000Z</time>
      </trkpt>
      <trkpt lat="42.30231690220534801483154296875" lon="2.26872160099446773529052734375">
        <ele>1528.5999755859375</ele>
        <time>2020-08-09T12:40:08.000Z</time>
      </trkpt>
      <trkpt lat="42.3022956959903240203857421875" lon="2.26870961487293243408203125">
        <ele>1528.4000244140625</ele>
        <time>2020-08-09T12:40:15.000Z</time>
      </trkpt>
      <trkpt lat="42.30229460634291172027587890625" lon="2.26870919577777385711669921875">
        <ele>1528.5999755859375</ele>
        <time>2020-08-09T12:40:31.000Z</time>
      </trkpt>
      <trkpt lat="42.3022945225238800048828125" lon="2.268706262111663818359375">
        <ele>1528.800048828125</ele>
        <time>2020-08-09T12:41:03.000Z</time>
      </trkpt>
      <trkpt lat="42.30226594023406505584716796875" lon="2.26864431984722614288330078125">
        <ele>1528.800048828125</ele>
        <time>2020-08-09T12:41:07.000Z</time>
      </trkpt>
      <trkpt lat="42.30224691331386566162109375" lon="2.26849813945591449737548828125">
        <ele>1528</ele>
        <time>2020-08-09T12:41:11.000Z</time>
      </trkpt>
      <trkpt lat="42.30225806124508380889892578125" lon="2.26844944059848785400390625">
        <ele>1527.800048828125</ele>
        <time>2020-08-09T12:41:12.000Z</time>
      </trkpt>
      <trkpt lat="42.30233718641102313995361328125" lon="2.2682531364262104034423828125">
        <ele>1526.800048828125</ele>
        <time>2020-08-09T12:41:16.000Z</time>
      </trkpt>
      <trkpt lat="42.30237741954624652862548828125" lon="2.268153727054595947265625">
        <ele>1526.199951171875</ele>
        <time>2020-08-09T12:41:18.000Z</time>
      </trkpt>
      <trkpt lat="42.30240625329315662384033203125" lon="2.26806295104324817657470703125">
        <ele>1525.5999755859375</ele>
        <time>2020-08-09T12:41:20.000Z</time>
      </trkpt>
      <trkpt lat="42.3024339973926544189453125" lon="2.26795163936913013458251953125">
        <ele>1525.800048828125</ele>
        <time>2020-08-09T12:41:23.000Z</time>
      </trkpt>
      <trkpt lat="42.30249996297061443328857421875" lon="2.2676607035100460052490234375">
        <ele>1526.4000244140625</ele>
        <time>2020-08-09T12:41:31.000Z</time>
      </trkpt>
      <trkpt lat="42.30250633321702480316162109375" lon="2.26762474514544010162353515625">
        <ele>1526.800048828125</ele>
        <time>2020-08-09T12:41:32.000Z</time>
      </trkpt>
      <trkpt lat="42.30255276896059513092041015625" lon="2.267397344112396240234375">
        <ele>1527.4000244140625</ele>
        <time>2020-08-09T12:41:39.000Z</time>
      </trkpt>
      <trkpt lat="42.3025790043175220489501953125" lon="2.267290391027927398681640625">
        <ele>1528</ele>
        <time>2020-08-09T12:41:43.000Z</time>
      </trkpt>
      <trkpt lat="42.302603982388973236083984375" lon="2.267215289175510406494140625">
        <ele>1528.800048828125</ele>
        <time>2020-08-09T12:41:46.000Z</time>
      </trkpt>
      <trkpt lat="42.3026138730347156524658203125" lon="2.2671913169324398040771484375">
        <ele>1529.199951171875</ele>
        <time>2020-08-09T12:41:47.000Z</time>
      </trkpt>
      <trkpt lat="42.30265871621668338775634765625" lon="2.2671090066432952880859375">
        <ele>1530.199951171875</ele>
        <time>2020-08-09T12:41:51.000Z</time>
      </trkpt>
      <trkpt lat="42.302675731480121612548828125" lon="2.26706181652843952178955078125">
        <ele>1530.4000244140625</ele>
        <time>2020-08-09T12:41:53.000Z</time>
      </trkpt>
      <trkpt lat="42.30268067680299282073974609375" lon="2.26690155453979969024658203125">
        <ele>1529.800048828125</ele>
        <time>2020-08-09T12:41:58.000Z</time>
      </trkpt>
      <trkpt lat="42.30270867235958576202392578125" lon="2.2667541168630123138427734375">
        <ele>1528.800048828125</ele>
        <time>2020-08-09T12:42:02.000Z</time>
      </trkpt>
      <trkpt lat="42.30272476561367511749267578125" lon="2.26671882905066013336181640625">
        <ele>1528.4000244140625</ele>
        <time>2020-08-09T12:42:03.000Z</time>
      </trkpt>
      <trkpt lat="42.30276030488312244415283203125" lon="2.2666542045772075653076171875">
        <ele>1527.4000244140625</ele>
        <time>2020-08-09T12:42:05.000Z</time>
      </trkpt>
      <trkpt lat="42.302826941013336181640625" lon="2.26656242273747920989990234375">
        <ele>1526.199951171875</ele>
        <time>2020-08-09T12:42:08.000Z</time>
      </trkpt>
      <trkpt lat="42.30287530459463596343994140625" lon="2.26649989373981952667236328125">
        <ele>1525.800048828125</ele>
        <time>2020-08-09T12:42:10.000Z</time>
      </trkpt>
      <trkpt lat="42.303004972636699676513671875" lon="2.26634348742663860321044921875">
        <ele>1525</ele>
        <time>2020-08-09T12:42:15.000Z</time>
      </trkpt>
      <trkpt lat="42.30306238867342472076416015625" lon="2.26628380827605724334716796875">
        <ele>1524.5999755859375</ele>
        <time>2020-08-09T12:42:17.000Z</time>
      </trkpt>
      <trkpt lat="42.30312089435756206512451171875" lon="2.2662265598773956298828125">
        <ele>1523.800048828125</ele>
        <time>2020-08-09T12:42:19.000Z</time>
      </trkpt>
      <trkpt lat="42.303244359791278839111328125" lon="2.26613444276154041290283203125">
        <ele>1523.5999755859375</ele>
        <time>2020-08-09T12:42:23.000Z</time>
      </trkpt>
      <trkpt lat="42.30338416993618011474609375" lon="2.26601391099393367767333984375">
        <ele>1523.4000244140625</ele>
        <time>2020-08-09T12:42:27.000Z</time>
      </trkpt>
      <trkpt lat="42.3034505546092987060546875" lon="2.26594970561563968658447265625">
        <ele>1522.800048828125</ele>
        <time>2020-08-09T12:42:29.000Z</time>
      </trkpt>
      <trkpt lat="42.30348433367908000946044921875" lon="2.265922129154205322265625">
        <ele>1522.5999755859375</ele>
        <time>2020-08-09T12:42:30.000Z</time>
      </trkpt>
      <trkpt lat="42.303639985620975494384765625" lon="2.2658129967749118804931640625">
        <ele>1521.800048828125</ele>
        <time>2020-08-09T12:42:35.000Z</time>
      </trkpt>
      <trkpt lat="42.3036693222820758819580078125" lon="2.26580469869077205657958984375">
        <ele>1521.5999755859375</ele>
        <time>2020-08-09T12:42:36.000Z</time>
      </trkpt>
      <trkpt lat="42.30375221930444240570068359375" lon="2.26573144085705280303955078125">
        <ele>1521.4000244140625</ele>
        <time>2020-08-09T12:42:40.000Z</time>
      </trkpt>
      <trkpt lat="42.30376160703599452972412109375" lon="2.26557738147675991058349609375">
        <ele>1521.4000244140625</ele>
        <time>2020-08-09T12:42:44.000Z</time>
      </trkpt>
      <trkpt lat="42.30372975580394268035888671875" lon="2.265279404819011688232421875">
        <ele>1520.199951171875</ele>
        <time>2020-08-09T12:42:50.000Z</time>
      </trkpt>
      <trkpt lat="42.303727157413959503173828125" lon="2.26517974399030208587646484375">
        <ele>1518.800048828125</ele>
        <time>2020-08-09T12:42:52.000Z</time>
      </trkpt>
      <trkpt lat="42.30373998172581195831298828125" lon="2.26504479534924030303955078125">
        <ele>1517.800048828125</ele>
        <time>2020-08-09T12:42:55.000Z</time>
      </trkpt>
      <trkpt lat="42.3037541471421718597412109375" lon="2.2650016285479068756103515625">
        <ele>1517.5999755859375</ele>
        <time>2020-08-09T12:42:56.000Z</time>
      </trkpt>
      <trkpt lat="42.30386638082563877105712890625" lon="2.2648732177913188934326171875">
        <ele>1516.800048828125</ele>
        <time>2020-08-09T12:43:00.000Z</time>
      </trkpt>
      <trkpt lat="42.3039003275334835052490234375" lon="2.26485662162303924560546875">
        <ele>1516.5999755859375</ele>
        <time>2020-08-09T12:43:01.000Z</time>
      </trkpt>
      <trkpt lat="42.30401591397821903228759765625" lon="2.2647424601018428802490234375">
        <ele>1515.800048828125</ele>
        <time>2020-08-09T12:43:05.000Z</time>
      </trkpt>
      <trkpt lat="42.30406234972178936004638671875" lon="2.26467062719166278839111328125">
        <ele>1515.4000244140625</ele>
        <time>2020-08-09T12:43:07.000Z</time>
      </trkpt>
      <trkpt lat="42.30417282320559024810791015625" lon="2.2645637579262256622314453125">
        <ele>1514.4000244140625</ele>
        <time>2020-08-09T12:43:11.000Z</time>
      </trkpt>
      <trkpt lat="42.3042765073478221893310546875" lon="2.26450734771788120269775390625">
        <ele>1514.199951171875</ele>
        <time>2020-08-09T12:43:16.000Z</time>
      </trkpt>
      <trkpt lat="42.304289080202579498291015625" lon="2.26448454894125461578369140625">
        <ele>1514.199951171875</ele>
        <time>2020-08-09T12:43:17.000Z</time>
      </trkpt>
      <trkpt lat="42.3042919300496578216552734375" lon="2.26438321173191070556640625">
        <ele>1513.800048828125</ele>
        <time>2020-08-09T12:43:20.000Z</time>
      </trkpt>
      <trkpt lat="42.30427709408104419708251953125" lon="2.2643354348838329315185546875">
        <ele>1513.800048828125</ele>
        <time>2020-08-09T12:43:21.000Z</time>
      </trkpt>
      <trkpt lat="42.30424390174448490142822265625" lon="2.26423527114093303680419921875">
        <ele>1513</ele>
        <time>2020-08-09T12:43:23.000Z</time>
      </trkpt>
      <trkpt lat="42.30417852289974689483642578125" lon="2.264056988060474395751953125">
        <ele>1512.5999755859375</ele>
        <time>2020-08-09T12:43:27.000Z</time>
      </trkpt>
      <trkpt lat="42.30409068055450916290283203125" lon="2.26390971802175045013427734375">
        <ele>1512.4000244140625</ele>
        <time>2020-08-09T12:43:32.000Z</time>
      </trkpt>
      <trkpt lat="42.30391382239758968353271484375" lon="2.26370134390890598297119140625">
        <ele>1511.800048828125</ele>
        <time>2020-08-09T12:43:39.000Z</time>
      </trkpt>
      <trkpt lat="42.30389605276286602020263671875" lon="2.26367167197167873382568359375">
        <ele>1512</ele>
        <time>2020-08-09T12:43:40.000Z</time>
      </trkpt>
      <trkpt lat="42.3038180172443389892578125" lon="2.2635277546942234039306640625">
        <ele>1512.800048828125</ele>
        <time>2020-08-09T12:43:45.000Z</time>
      </trkpt>
      <trkpt lat="42.30377552099525928497314453125" lon="2.26344083435833454132080078125">
        <ele>1513</ele>
        <time>2020-08-09T12:43:48.000Z</time>
      </trkpt>
      <trkpt lat="42.30373528786003589630126953125" lon="2.263240925967693328857421875">
        <ele>1514</ele>
        <time>2020-08-09T12:43:54.000Z</time>
      </trkpt>
      <trkpt lat="42.303735874593257904052734375" lon="2.2632119245827198028564453125">
        <ele>1514.199951171875</ele>
        <time>2020-08-09T12:43:55.000Z</time>
      </trkpt>
      <trkpt lat="42.30375288985669612884521484375" lon="2.26309348829090595245361328125">
        <ele>1515.199951171875</ele>
        <time>2020-08-09T12:43:59.000Z</time>
      </trkpt>
      <trkpt lat="42.303784154355525970458984375" lon="2.26300916634500026702880859375">
        <ele>1515.5999755859375</ele>
        <time>2020-08-09T12:44:02.000Z</time>
      </trkpt>
      <trkpt lat="42.3038024269044399261474609375" lon="2.2629846073687076568603515625">
        <ele>1515.5999755859375</ele>
        <time>2020-08-09T12:44:03.000Z</time>
      </trkpt>
      <trkpt lat="42.3038983158767223358154296875" lon="2.262892238795757293701171875">
        <ele>1515.800048828125</ele>
        <time>2020-08-09T12:44:07.000Z</time>
      </trkpt>
      <trkpt lat="42.30403586290776729583740234375" lon="2.26279425434768199920654296875">
        <ele>1515</ele>
        <time>2020-08-09T12:44:12.000Z</time>
      </trkpt>
      <trkpt lat="42.304189167916774749755859375" lon="2.26277782581746578216552734375">
        <ele>1515.800048828125</ele>
        <time>2020-08-09T12:44:18.000Z</time>
      </trkpt>
      <trkpt lat="42.30423216708004474639892578125" lon="2.26276391185820102691650390625">
        <ele>1516</ele>
        <time>2020-08-09T12:44:20.000Z</time>
      </trkpt>
      <trkpt lat="42.30427323840558528900146484375" lon="2.2627009637653827667236328125">
        <ele>1516</ele>
        <time>2020-08-09T12:44:23.000Z</time>
      </trkpt>
      <trkpt lat="42.30428673326969146728515625" lon="2.2626402787864208221435546875">
        <ele>1515.5999755859375</ele>
        <time>2020-08-09T12:44:25.000Z</time>
      </trkpt>
      <trkpt lat="42.30430827476084232330322265625" lon="2.2625212557613849639892578125">
        <ele>1515.5999755859375</ele>
        <time>2020-08-09T12:44:28.000Z</time>
      </trkpt>
      <trkpt lat="42.304388992488384246826171875" lon="2.26234146393835544586181640625">
        <ele>1516.199951171875</ele>
        <time>2020-08-09T12:44:34.000Z</time>
      </trkpt>
      <trkpt lat="42.30453022755682468414306640625" lon="2.2621869854629039764404296875">
        <ele>1516.800048828125</ele>
        <time>2020-08-09T12:44:42.000Z</time>
      </trkpt>
      <trkpt lat="42.30461404658854007720947265625" lon="2.2619462572038173675537109375">
        <ele>1517</ele>
        <time>2020-08-09T12:44:50.000Z</time>
      </trkpt>
      <trkpt lat="42.30462594889104366302490234375" lon="2.2619157470762729644775390625">
        <ele>1517.199951171875</ele>
        <time>2020-08-09T12:44:51.000Z</time>
      </trkpt>
      <trkpt lat="42.3047137074172496795654296875" lon="2.2617481090128421783447265625">
        <ele>1517.4000244140625</ele>
        <time>2020-08-09T12:44:57.000Z</time>
      </trkpt>
      <trkpt lat="42.30484773404896259307861328125" lon="2.26156379096210002899169921875">
        <ele>1517.199951171875</ele>
        <time>2020-08-09T12:45:04.000Z</time>
      </trkpt>
      <trkpt lat="42.3049926571547985076904296875" lon="2.2613444365561008453369140625">
        <ele>1516.800048828125</ele>
        <time>2020-08-09T12:45:11.000Z</time>
      </trkpt>
      <trkpt lat="42.30510078370571136474609375" lon="2.26110898889601230621337890625">
        <ele>1517</ele>
        <time>2020-08-09T12:45:18.000Z</time>
      </trkpt>
      <trkpt lat="42.3051636479794979095458984375" lon="2.2608542628586292266845703125">
        <ele>1516.4000244140625</ele>
        <time>2020-08-09T12:45:25.000Z</time>
      </trkpt>
      <trkpt lat="42.30520664714276790618896484375" lon="2.26056885905563831329345703125">
        <ele>1516.199951171875</ele>
        <time>2020-08-09T12:45:32.000Z</time>
      </trkpt>
      <trkpt lat="42.30521536432206630706787109375" lon="2.26052762009203433990478515625">
        <ele>1516.199951171875</ele>
        <time>2020-08-09T12:45:33.000Z</time>
      </trkpt>
      <trkpt lat="42.30526305735111236572265625" lon="2.26035813800990581512451171875">
        <ele>1515.4000244140625</ele>
        <time>2020-08-09T12:45:37.000Z</time>
      </trkpt>
      <trkpt lat="42.305444441735744476318359375" lon="2.25998681969940662384033203125">
        <ele>1515.199951171875</ele>
        <time>2020-08-09T12:45:46.000Z</time>
      </trkpt>
      <trkpt lat="42.30546916835010051727294921875" lon="2.2599486820399761199951171875">
        <ele>1515</ele>
        <time>2020-08-09T12:45:47.000Z</time>
      </trkpt>
      <trkpt lat="42.30560780502855777740478515625" lon="2.25980342365801334381103515625">
        <ele>1514</ele>
        <time>2020-08-09T12:45:52.000Z</time>
      </trkpt>
      <trkpt lat="42.30563697405159473419189453125" lon="2.25978615693747997283935546875">
        <ele>1514</ele>
        <time>2020-08-09T12:45:53.000Z</time>
      </trkpt>
      <trkpt lat="42.3057872615754604339599609375" lon="2.25972295738756656646728515625">
        <ele>1513.800048828125</ele>
        <time>2020-08-09T12:45:58.000Z</time>
      </trkpt>
      <trkpt lat="42.305938303470611572265625" lon="2.2596026770770549774169921875">
        <ele>1513.199951171875</ele>
        <time>2020-08-09T12:46:04.000Z</time>
      </trkpt>
      <trkpt lat="42.3059854097664356231689453125" lon="2.25952195934951305389404296875">
        <ele>1513</ele>
        <time>2020-08-09T12:46:06.000Z</time>
      </trkpt>
      <trkpt lat="42.3060263134539127349853515625" lon="2.25941668264567852020263671875">
        <ele>1512.800048828125</ele>
        <time>2020-08-09T12:46:08.000Z</time>
      </trkpt>
      <trkpt lat="42.30601332150399684906005859375" lon="2.25924703292548656463623046875">
        <ele>1511.800048828125</ele>
        <time>2020-08-09T12:46:11.000Z</time>
      </trkpt>
      <trkpt lat="42.305921204388141632080078125" lon="2.2591359727084636688232421875">
        <ele>1510.800048828125</ele>
        <time>2020-08-09T12:46:14.000Z</time>
      </trkpt>
      <trkpt lat="42.305784411728382110595703125" lon="2.25896456278860569000244140625">
        <ele>1509.5999755859375</ele>
        <time>2020-08-09T12:46:18.000Z</time>
      </trkpt>
      <trkpt lat="42.3056977428495883941650390625" lon="2.2588352300226688385009765625">
        <ele>1508.5999755859375</ele>
        <time>2020-08-09T12:46:21.000Z</time>
      </trkpt>
      <trkpt lat="42.3056622035801410675048828125" lon="2.25880983285605907440185546875">
        <ele>1508.199951171875</ele>
        <time>2020-08-09T12:46:22.000Z</time>
      </trkpt>
      <trkpt lat="42.3055857606232166290283203125" lon="2.25876607932150363922119140625">
        <ele>1507.4000244140625</ele>
        <time>2020-08-09T12:46:24.000Z</time>
      </trkpt>
      <trkpt lat="42.30554737150669097900390625" lon="2.258739173412322998046875">
        <ele>1507</ele>
        <time>2020-08-09T12:46:25.000Z</time>
      </trkpt>
      <trkpt lat="42.30544502846896648406982421875" lon="2.25864035077393054962158203125">
        <ele>1506</ele>
        <time>2020-08-09T12:46:28.000Z</time>
      </trkpt>
      <trkpt lat="42.3053685016930103302001953125" lon="2.2584909014403820037841796875">
        <ele>1505</ele>
        <time>2020-08-09T12:46:32.000Z</time>
      </trkpt>
      <trkpt lat="42.305357940495014190673828125" lon="2.25845150649547576904296875">
        <ele>1504.800048828125</ele>
        <time>2020-08-09T12:46:33.000Z</time>
      </trkpt>
      <trkpt lat="42.305337823927402496337890625" lon="2.25837171077728271484375">
        <ele>1503.800048828125</ele>
        <time>2020-08-09T12:46:35.000Z</time>
      </trkpt>
      <trkpt lat="42.305293567478656768798828125" lon="2.25827313959598541259765625">
        <ele>1502.5999755859375</ele>
        <time>2020-08-09T12:46:38.000Z</time>
      </trkpt>
      <trkpt lat="42.30527537874877452850341796875" lon="2.25824497640132904052734375">
        <ele>1502</ele>
        <time>2020-08-09T12:46:39.000Z</time>
      </trkpt>
      <trkpt lat="42.30523983947932720184326171875" lon="2.25818839855492115020751953125">
        <ele>1501.199951171875</ele>
        <time>2020-08-09T12:46:41.000Z</time>
      </trkpt>
      <trkpt lat="42.30519675649702548980712890625" lon="2.2581009753048419952392578125">
        <ele>1499.5999755859375</ele>
        <time>2020-08-09T12:46:44.000Z</time>
      </trkpt>
      <trkpt lat="42.30518736876547336578369140625" lon="2.25804573856294155120849609375">
        <ele>1498.5999755859375</ele>
        <time>2020-08-09T12:46:46.000Z</time>
      </trkpt>
      <trkpt lat="42.305178232491016387939453125" lon="2.25796745158731937408447265625">
        <ele>1497</ele>
        <time>2020-08-09T12:46:49.000Z</time>
      </trkpt>
      <trkpt lat="42.305172868072986602783203125" lon="2.2578649409115314483642578125">
        <ele>1496.4000244140625</ele>
        <time>2020-08-09T12:46:52.000Z</time>
      </trkpt>
      <trkpt lat="42.30517026968300342559814453125" lon="2.25782982073724269866943359375">
        <ele>1496</ele>
        <time>2020-08-09T12:46:53.000Z</time>
      </trkpt>
      <trkpt lat="42.305169515311717987060546875" lon="2.25768179632723331451416015625">
        <ele>1494.5999755859375</ele>
        <time>2020-08-09T12:46:57.000Z</time>
      </trkpt>
      <trkpt lat="42.3051760531961917877197265625" lon="2.25761524401605129241943359375">
        <ele>1493.800048828125</ele>
        <time>2020-08-09T12:46:59.000Z</time>
      </trkpt>
      <trkpt lat="42.30517881922423839569091796875" lon="2.2575826384127140045166015625">
        <ele>1493.199951171875</ele>
        <time>2020-08-09T12:47:00.000Z</time>
      </trkpt>
      <trkpt lat="42.3051859438419342041015625" lon="2.25749186240136623382568359375">
        <ele>1492</ele>
        <time>2020-08-09T12:47:03.000Z</time>
      </trkpt>
      <trkpt lat="42.30518586002290248870849609375" lon="2.25739446468651294708251953125">
        <ele>1491</ele>
        <time>2020-08-09T12:47:06.000Z</time>
      </trkpt>
      <trkpt lat="42.30518301017582416534423828125" lon="2.2573620267212390899658203125">
        <ele>1490.800048828125</ele>
        <time>2020-08-09T12:47:07.000Z</time>
      </trkpt>
      <trkpt lat="42.30517395772039890289306640625" lon="2.25730997510254383087158203125">
        <ele>1490</ele>
        <time>2020-08-09T12:47:09.000Z</time>
      </trkpt>
      <trkpt lat="42.30515216477215290069580078125" lon="2.25722615607082843780517578125">
        <ele>1489</ele>
        <time>2020-08-09T12:47:12.000Z</time>
      </trkpt>
      <trkpt lat="42.3051294498145580291748046875" lon="2.25712339393794536590576171875">
        <ele>1487.5999755859375</ele>
        <time>2020-08-09T12:47:15.000Z</time>
      </trkpt>
      <trkpt lat="42.30512299574911594390869140625" lon="2.25708986632525920867919921875">
        <ele>1486.4000244140625</ele>
        <time>2020-08-09T12:47:16.000Z</time>
      </trkpt>
      <trkpt lat="42.3051110096275806427001953125" lon="2.25702884607017040252685546875">
        <ele>1485.199951171875</ele>
        <time>2020-08-09T12:47:18.000Z</time>
      </trkpt>
      <trkpt lat="42.3051054775714874267578125" lon="2.25700168870389461517333984375">
        <ele>1484.5999755859375</ele>
        <time>2020-08-09T12:47:19.000Z</time>
      </trkpt>
      <trkpt lat="42.305101454257965087890625" lon="2.256975285708904266357421875">
        <ele>1484</ele>
        <time>2020-08-09T12:47:20.000Z</time>
      </trkpt>
      <trkpt lat="42.30509265325963497161865234375" lon="2.2568550892174243927001953125">
        <ele>1482.5999755859375</ele>
        <time>2020-08-09T12:47:24.000Z</time>
      </trkpt>
      <trkpt lat="42.305087037384510040283203125" lon="2.25676967762410640716552734375">
        <ele>1481.4000244140625</ele>
        <time>2020-08-09T12:47:26.000Z</time>
      </trkpt>
      <trkpt lat="42.30508678592741489410400390625" lon="2.256644032895565032958984375">
        <ele>1480.199951171875</ele>
        <time>2020-08-09T12:47:29.000Z</time>
      </trkpt>
      <trkpt lat="42.30508603155612945556640625" lon="2.25650363601744174957275390625">
        <ele>1478.800048828125</ele>
        <time>2020-08-09T12:47:32.000Z</time>
      </trkpt>
      <trkpt lat="42.30508737266063690185546875" lon="2.25640724413096904754638671875">
        <ele>1477.800048828125</ele>
        <time>2020-08-09T12:47:34.000Z</time>
      </trkpt>
      <trkpt lat="42.30509399436414241790771484375" lon="2.25631018169224262237548828125">
        <ele>1476.4000244140625</ele>
        <time>2020-08-09T12:47:36.000Z</time>
      </trkpt>
      <trkpt lat="42.305100448429584503173828125" lon="2.256209515035152435302734375">
        <ele>1475.4000244140625</ele>
        <time>2020-08-09T12:47:38.000Z</time>
      </trkpt>
      <trkpt lat="42.30510572902858257293701171875" lon="2.2561573795974254608154296875">
        <ele>1475</ele>
        <time>2020-08-09T12:47:39.000Z</time>
      </trkpt>
      <trkpt lat="42.3051096685230731964111328125" lon="2.256109602749347686767578125">
        <ele>1474.4000244140625</ele>
        <time>2020-08-09T12:47:40.000Z</time>
      </trkpt>
      <trkpt lat="42.305117547512054443359375" lon="2.256031818687915802001953125">
        <ele>1473</ele>
        <time>2020-08-09T12:47:42.000Z</time>
      </trkpt>
      <trkpt lat="42.30512282811105251312255859375" lon="2.25594707764685153961181640625">
        <ele>1471.5999755859375</ele>
        <time>2020-08-09T12:47:44.000Z</time>
      </trkpt>
      <trkpt lat="42.305128276348114013671875" lon="2.25581866689026355743408203125">
        <ele>1469.800048828125</ele>
        <time>2020-08-09T12:47:47.000Z</time>
      </trkpt>
      <trkpt lat="42.30513724498450756072998046875" lon="2.25574390031397342681884765625">
        <ele>1468.5999755859375</ele>
        <time>2020-08-09T12:47:49.000Z</time>
      </trkpt>
      <trkpt lat="42.30516247451305389404296875" lon="2.25563510321080684661865234375">
        <ele>1467.5999755859375</ele>
        <time>2020-08-09T12:47:52.000Z</time>
      </trkpt>
      <trkpt lat="42.30517563410103321075439453125" lon="2.2555957920849323272705078125">
        <ele>1466.5999755859375</ele>
        <time>2020-08-09T12:47:53.000Z</time>
      </trkpt>
      <trkpt lat="42.3052074015140533447265625" lon="2.2555273957550525665283203125">
        <ele>1465.4000244140625</ele>
        <time>2020-08-09T12:47:55.000Z</time>
      </trkpt>
      <trkpt lat="42.3052424378693103790283203125" lon="2.25545790977776050567626953125">
        <ele>1464.800048828125</ele>
        <time>2020-08-09T12:47:57.000Z</time>
      </trkpt>
      <trkpt lat="42.30527873151004314422607421875" lon="2.25538414902985095977783203125">
        <ele>1464.4000244140625</ele>
        <time>2020-08-09T12:47:59.000Z</time>
      </trkpt>
      <trkpt lat="42.30534494854509830474853515625" lon="2.25527971051633358001708984375">
        <ele>1463.199951171875</ele>
        <time>2020-08-09T12:48:02.000Z</time>
      </trkpt>
      <trkpt lat="42.30539037846028804779052734375" lon="2.2552222944796085357666015625">
        <ele>1461.5999755859375</ele>
        <time>2020-08-09T12:48:04.000Z</time>
      </trkpt>
      <trkpt lat="42.30548324994742870330810546875" lon="2.25518013350665569305419921875">
        <ele>1460.4000244140625</ele>
        <time>2020-08-09T12:48:07.000Z</time>
      </trkpt>
      <trkpt lat="42.3055371455848217010498046875" lon="2.25515909492969512939453125">
        <ele>1459.5999755859375</ele>
        <time>2020-08-09T12:48:09.000Z</time>
      </trkpt>
      <trkpt lat="42.30555701069533824920654296875" lon="2.25513688288629055023193359375">
        <ele>1459</ele>
        <time>2020-08-09T12:48:10.000Z</time>
      </trkpt>
      <trkpt lat="42.30556857772171497344970703125" lon="2.255059182643890380859375">
        <ele>1458</ele>
        <time>2020-08-09T12:48:13.000Z</time>
      </trkpt>
      <trkpt lat="42.30549640953540802001953125" lon="2.25494275800883769989013671875">
        <ele>1458</ele>
        <time>2020-08-09T12:48:18.000Z</time>
      </trkpt>
      <trkpt lat="42.3054647259414196014404296875" lon="2.25485064089298248291015625">
        <ele>1457.199951171875</ele>
        <time>2020-08-09T12:48:21.000Z</time>
      </trkpt>
      <trkpt lat="42.3054576851427555084228515625" lon="2.25481845438480377197265625">
        <ele>1456.5999755859375</ele>
        <time>2020-08-09T12:48:22.000Z</time>
      </trkpt>
      <trkpt lat="42.3054472915828227996826171875" lon="2.2547237388789653778076171875">
        <ele>1455.5999755859375</ele>
        <time>2020-08-09T12:48:25.000Z</time>
      </trkpt>
      <trkpt lat="42.3054596967995166778564453125" lon="2.254612259566783905029296875">
        <ele>1454</ele>
        <time>2020-08-09T12:48:28.000Z</time>
      </trkpt>
      <trkpt lat="42.30548526160418987274169921875" lon="2.25454662926495075225830078125">
        <ele>1453.199951171875</ele>
        <time>2020-08-09T12:48:30.000Z</time>
      </trkpt>
      <trkpt lat="42.30550319887697696685791015625" lon="2.254521735012531280517578125">
        <ele>1452.800048828125</ele>
        <time>2020-08-09T12:48:31.000Z</time>
      </trkpt>
      <trkpt lat="42.30556212365627288818359375" lon="2.25446532480418682098388671875">
        <ele>1451.5999755859375</ele>
        <time>2020-08-09T12:48:34.000Z</time>
      </trkpt>
      <trkpt lat="42.3055887781083583831787109375" lon="2.25444604642689228057861328125">
        <ele>1451.199951171875</ele>
        <time>2020-08-09T12:48:35.000Z</time>
      </trkpt>
      <trkpt lat="42.30561870150268077850341796875" lon="2.25442559458315372467041015625">
        <ele>1450.4000244140625</ele>
        <time>2020-08-09T12:48:36.000Z</time>
      </trkpt>
      <trkpt lat="42.3056779615581035614013671875" lon="2.254371531307697296142578125">
        <ele>1448.5999755859375</ele>
        <time>2020-08-09T12:48:38.000Z</time>
      </trkpt>
      <trkpt lat="42.30569631792604923248291015625" lon="2.254345379769802093505859375">
        <ele>1447.800048828125</ele>
        <time>2020-08-09T12:48:39.000Z</time>
      </trkpt>
      <trkpt lat="42.30570637620985507965087890625" lon="2.25431914441287517547607421875">
        <ele>1447.4000244140625</ele>
        <time>2020-08-09T12:48:40.000Z</time>
      </trkpt>
      <trkpt lat="42.30572649277746677398681640625" lon="2.25419039838016033172607421875">
        <ele>1446.199951171875</ele>
        <time>2020-08-09T12:48:44.000Z</time>
      </trkpt>
      <trkpt lat="42.3057299293577671051025390625" lon="2.2541566193103790283203125">
        <ele>1446</ele>
        <time>2020-08-09T12:48:45.000Z</time>
      </trkpt>
      <trkpt lat="42.30574124492704868316650390625" lon="2.2540870495140552520751953125">
        <ele>1445.199951171875</ele>
        <time>2020-08-09T12:48:47.000Z</time>
      </trkpt>
      <trkpt lat="42.3057832382619380950927734375" lon="2.253930307924747467041015625">
        <ele>1443.5999755859375</ele>
        <time>2020-08-09T12:48:51.000Z</time>
      </trkpt>
      <trkpt lat="42.30579589493572711944580078125" lon="2.2538905777037143707275390625">
        <ele>1443</ele>
        <time>2020-08-09T12:48:52.000Z</time>
      </trkpt>
      <trkpt lat="42.305807210505008697509765625" lon="2.25384883582592010498046875">
        <ele>1442.4000244140625</ele>
        <time>2020-08-09T12:48:53.000Z</time>
      </trkpt>
      <trkpt lat="42.30582288466393947601318359375" lon="2.25374422967433929443359375">
        <ele>1441.4000244140625</ele>
        <time>2020-08-09T12:48:56.000Z</time>
      </trkpt>
      <trkpt lat="42.30582556687295436859130859375" lon="2.25371070206165313720703125">
        <ele>1441</ele>
        <time>2020-08-09T12:48:57.000Z</time>
      </trkpt>
      <trkpt lat="42.30583042837679386138916015625" lon="2.25364071317017078399658203125">
        <ele>1440.4000244140625</ele>
        <time>2020-08-09T12:48:59.000Z</time>
      </trkpt>
      <trkpt lat="42.30584853328764438629150390625" lon="2.25350978784263134002685546875">
        <ele>1439</ele>
        <time>2020-08-09T12:49:03.000Z</time>
      </trkpt>
      <trkpt lat="42.30585850775241851806640625" lon="2.25348195992410182952880859375">
        <ele>1438.5999755859375</ele>
        <time>2020-08-09T12:49:04.000Z</time>
      </trkpt>
      <trkpt lat="42.3058945499360561370849609375" lon="2.25337919779121875762939453125">
        <ele>1437.800048828125</ele>
        <time>2020-08-09T12:49:07.000Z</time>
      </trkpt>
      <trkpt lat="42.30594542808830738067626953125" lon="2.25327744148671627044677734375">
        <ele>1436.5999755859375</ele>
        <time>2020-08-09T12:49:10.000Z</time>
      </trkpt>
      <trkpt lat="42.3059787042438983917236328125" lon="2.253229580819606781005859375">
        <ele>1435.5999755859375</ele>
        <time>2020-08-09T12:49:12.000Z</time>
      </trkpt>
      <trkpt lat="42.3060196079313755035400390625" lon="2.25317669101059436798095703125">
        <ele>1434.5999755859375</ele>
        <time>2020-08-09T12:49:15.000Z</time>
      </trkpt>
      <trkpt lat="42.30603142641484737396240234375" lon="2.2531546466052532196044921875">
        <ele>1434.199951171875</ele>
        <time>2020-08-09T12:49:16.000Z</time>
      </trkpt>
      <trkpt lat="42.30604735203087329864501953125" lon="2.25308013148605823516845703125">
        <ele>1433.4000244140625</ele>
        <time>2020-08-09T12:49:20.000Z</time>
      </trkpt>
      <trkpt lat="42.30604534037411212921142578125" lon="2.25306772626936435699462890625">
        <ele>1433</ele>
        <time>2020-08-09T12:49:21.000Z</time>
      </trkpt>
      <trkpt lat="42.306040227413177490234375" lon="2.2530569136142730712890625">
        <ele>1432.800048828125</ele>
        <time>2020-08-09T12:49:22.000Z</time>
      </trkpt>
      <trkpt lat="42.30600468814373016357421875" lon="2.25303084589540958404541015625">
        <ele>1431.800048828125</ele>
        <time>2020-08-09T12:49:25.000Z</time>
      </trkpt>
      <trkpt lat="42.30599035508930683135986328125" lon="2.25302481092512607574462890625">
        <ele>1431.5999755859375</ele>
        <time>2020-08-09T12:49:26.000Z</time>
      </trkpt>
      <trkpt lat="42.30593838728964328765869140625" lon="2.25302380509674549102783203125">
        <ele>1431</ele>
        <time>2020-08-09T12:49:29.000Z</time>
      </trkpt>
      <trkpt lat="42.305918522179126739501953125" lon="2.253031432628631591796875">
        <ele>1430.5999755859375</ele>
        <time>2020-08-09T12:49:30.000Z</time>
      </trkpt>
      <trkpt lat="42.305873595178127288818359375" lon="2.25305247120559215545654296875">
        <ele>1429.5999755859375</ele>
        <time>2020-08-09T12:49:32.000Z</time>
      </trkpt>
      <trkpt lat="42.30583394877612590789794921875" lon="2.25307946093380451202392578125">
        <ele>1428.5999755859375</ele>
        <time>2020-08-09T12:49:34.000Z</time>
      </trkpt>
      <trkpt lat="42.3058254830539226531982421875" lon="2.25308147259056568145751953125">
        <ele>1427.800048828125</ele>
        <time>2020-08-09T12:49:36.000Z</time>
      </trkpt>
      <trkpt lat="42.305823974311351776123046875" lon="2.25308046676218509674072265625">
        <ele>1427.5999755859375</ele>
        <time>2020-08-09T12:49:38.000Z</time>
      </trkpt>
      <trkpt lat="42.30579421855509281158447265625" lon="2.2530922852456569671630859375">
        <ele>1427</ele>
        <time>2020-08-09T12:49:44.000Z</time>
      </trkpt>
      <trkpt lat="42.30577091686427593231201171875" lon="2.2531016729772090911865234375">
        <ele>1426.4000244140625</ele>
        <time>2020-08-09T12:49:47.000Z</time>
      </trkpt>
      <trkpt lat="42.3057329468429088592529296875" lon="2.2531335242092609405517578125">
        <ele>1425.4000244140625</ele>
        <time>2020-08-09T12:49:51.000Z</time>
      </trkpt>
      <trkpt lat="42.30572314001619815826416015625" lon="2.25314366631209850311279296875">
        <ele>1425.199951171875</ele>
        <time>2020-08-09T12:49:52.000Z</time>
      </trkpt>
      <trkpt lat="42.30568273924291133880615234375" lon="2.25318775512278079986572265625">
        <ele>1424.199951171875</ele>
        <time>2020-08-09T12:49:56.000Z</time>
      </trkpt>
      <trkpt lat="42.30565273202955722808837890625" lon="2.2532109729945659637451171875">
        <ele>1423</ele>
        <time>2020-08-09T12:49:59.000Z</time>
      </trkpt>
      <trkpt lat="42.30564166791737079620361328125" lon="2.25321575067937374114990234375">
        <ele>1422.800048828125</ele>
        <time>2020-08-09T12:50:00.000Z</time>
      </trkpt>
      <trkpt lat="42.305600009858608245849609375" lon="2.25320644676685333251953125">
        <ele>1421.800048828125</ele>
        <time>2020-08-09T12:50:04.000Z</time>
      </trkpt>
      <trkpt lat="42.3055882751941680908203125" lon="2.25319211371243000030517578125">
        <ele>1421.199951171875</ele>
        <time>2020-08-09T12:50:06.000Z</time>
      </trkpt>
      <trkpt lat="42.3055716790258884429931640625" lon="2.253153137862682342529296875">
        <ele>1420.5999755859375</ele>
        <time>2020-08-09T12:50:09.000Z</time>
      </trkpt>
      <trkpt lat="42.3055733554065227508544921875" lon="2.253106199204921722412109375">
        <ele>1419.5999755859375</ele>
        <time>2020-08-09T12:50:13.000Z</time>
      </trkpt>
      <trkpt lat="42.30557595379650592803955078125" lon="2.25309739820659160614013671875">
        <ele>1419.4000244140625</ele>
        <time>2020-08-09T12:50:14.000Z</time>
      </trkpt>
      <trkpt lat="42.30558400042355060577392578125" lon="2.253068648278713226318359375">
        <ele>1418.4000244140625</ele>
        <time>2020-08-09T12:50:17.000Z</time>
      </trkpt>
      <trkpt lat="42.3056005127727985382080078125" lon="2.25302833132445812225341796875">
        <ele>1417.4000244140625</ele>
        <time>2020-08-09T12:50:22.000Z</time>
      </trkpt>
      <trkpt lat="42.30560495518147945404052734375" lon="2.2530212067067623138427734375">
        <ele>1417.199951171875</ele>
        <time>2020-08-09T12:50:23.000Z</time>
      </trkpt>
      <trkpt lat="42.30561819858849048614501953125" lon="2.252980135381221771240234375">
        <ele>1416.5999755859375</ele>
        <time>2020-08-09T12:50:27.000Z</time>
      </trkpt>
      <trkpt lat="42.30561979115009307861328125" lon="2.25296504795551300048828125">
        <ele>1416.4000244140625</ele>
        <time>2020-08-09T12:50:28.000Z</time>
      </trkpt>
      <trkpt lat="42.3056223057210445404052734375" lon="2.25295373238623142242431640625">
        <ele>1416.199951171875</ele>
        <time>2020-08-09T12:50:29.000Z</time>
      </trkpt>
      <trkpt lat="42.30564150027930736541748046875" lon="2.2528852522373199462890625">
        <ele>1415.4000244140625</ele>
        <time>2020-08-09T12:50:36.000Z</time>
      </trkpt>
      <trkpt lat="42.3056437633931636810302734375" lon="2.2528772056102752685546875">
        <ele>1415</ele>
        <time>2020-08-09T12:50:37.000Z</time>
      </trkpt>
      <trkpt lat="42.3056591860949993133544921875" lon="2.25282414816319942474365234375">
        <ele>1414.199951171875</ele>
        <time>2020-08-09T12:50:43.000Z</time>
      </trkpt>
      <trkpt lat="42.30566312558948993682861328125" lon="2.2527994215488433837890625">
        <ele>1413.5999755859375</ele>
        <time>2020-08-09T12:50:45.000Z</time>
      </trkpt>
      <trkpt lat="42.305671088397502899169921875" lon="2.25275323726236820220947265625">
        <ele>1413</ele>
        <time>2020-08-09T12:50:48.000Z</time>
      </trkpt>
      <trkpt lat="42.3056901991367340087890625" lon="2.252701856195926666259765625">
        <ele>1411.800048828125</ele>
        <time>2020-08-09T12:50:52.000Z</time>
      </trkpt>
      <trkpt lat="42.305696904659271240234375" lon="2.25268878042697906494140625">
        <ele>1411.5999755859375</ele>
        <time>2020-08-09T12:50:53.000Z</time>
      </trkpt>
      <trkpt lat="42.30570738203823566436767578125" lon="2.25266732275485992431640625">
        <ele>1411.4000244140625</ele>
        <time>2020-08-09T12:50:55.000Z</time>
      </trkpt>
      <trkpt lat="42.30574459768831729888916015625" lon="2.25261711515486240386962890625">
        <ele>1410.800048828125</ele>
        <time>2020-08-09T12:51:00.000Z</time>
      </trkpt>
      <trkpt lat="42.30577024631202220916748046875" lon="2.25255022756755352020263671875">
        <ele>1409.5999755859375</ele>
        <time>2020-08-09T12:51:05.000Z</time>
      </trkpt>
      <trkpt lat="42.30578617192804813385009765625" lon="2.2525177896022796630859375">
        <ele>1409.4000244140625</ele>
        <time>2020-08-09T12:51:08.000Z</time>
      </trkpt>
      <trkpt lat="42.3058184422552585601806640625" lon="2.25245903246104717254638671875">
        <ele>1408.5999755859375</ele>
        <time>2020-08-09T12:51:13.000Z</time>
      </trkpt>
      <trkpt lat="42.30584132485091686248779296875" lon="2.252415530383586883544921875">
        <ele>1407</ele>
        <time>2020-08-09T12:51:17.000Z</time>
      </trkpt>
      <trkpt lat="42.3058761097490787506103515625" lon="2.25236264057457447052001953125">
        <ele>1406</ele>
        <time>2020-08-09T12:51:22.000Z</time>
      </trkpt>
      <trkpt lat="42.30589664541184902191162109375" lon="2.25232190452516078948974609375">
        <ele>1404.800048828125</ele>
        <time>2020-08-09T12:51:25.000Z</time>
      </trkpt>
      <trkpt lat="42.305903099477291107177734375" lon="2.25230664946138858795166015625">
        <ele>1404.800048828125</ele>
        <time>2020-08-09T12:51:26.000Z</time>
      </trkpt>
      <trkpt lat="42.30593268759548664093017578125" lon="2.25225250236690044403076171875">
        <ele>1403.5999755859375</ele>
        <time>2020-08-09T12:51:31.000Z</time>
      </trkpt>
      <trkpt lat="42.3059450089931488037109375" lon="2.2522343136370182037353515625">
        <ele>1403.4000244140625</ele>
        <time>2020-08-09T12:51:33.000Z</time>
      </trkpt>
      <trkpt lat="42.3059730045497417449951171875" lon="2.25219148211181163787841796875">
        <ele>1402.5999755859375</ele>
        <time>2020-08-09T12:51:37.000Z</time>
      </trkpt>
      <trkpt lat="42.30600326322019100189208984375" lon="2.25214839912950992584228515625">
        <ele>1401.4000244140625</ele>
        <time>2020-08-09T12:51:41.000Z</time>
      </trkpt>
      <trkpt lat="42.30601851828396320343017578125" lon="2.2521273605525493621826171875">
        <ele>1401</ele>
        <time>2020-08-09T12:51:43.000Z</time>
      </trkpt>
      <trkpt lat="42.306040562689304351806640625" lon="2.25210011936724185943603515625">
        <ele>1400.4000244140625</ele>
        <time>2020-08-09T12:51:46.000Z</time>
      </trkpt>
      <trkpt lat="42.30606780387461185455322265625" lon="2.25206424482166767120361328125">
        <ele>1399.199951171875</ele>
        <time>2020-08-09T12:51:50.000Z</time>
      </trkpt>
      <trkpt lat="42.30608255602419376373291015625" lon="2.25204546935856342315673828125">
        <ele>1399</ele>
        <time>2020-08-09T12:51:52.000Z</time>
      </trkpt>
      <trkpt lat="42.3061030916869640350341796875" lon="2.25202065892517566680908203125">
        <ele>1398</ele>
        <time>2020-08-09T12:51:55.000Z</time>
      </trkpt>
      <trkpt lat="42.30614013969898223876953125" lon="2.25197070278227329254150390625">
        <ele>1397.199951171875</ele>
        <time>2020-08-09T12:52:00.000Z</time>
      </trkpt>
      <trkpt lat="42.30615313164889812469482421875" lon="2.251936756074428558349609375">
        <ele>1397</ele>
        <time>2020-08-09T12:52:02.000Z</time>
      </trkpt>
      <trkpt lat="42.306177355349063873291015625" lon="2.25184899754822254180908203125">
        <ele>1395.800048828125</ele>
        <time>2020-08-09T12:52:08.000Z</time>
      </trkpt>
      <trkpt lat="42.30618012137711048126220703125" lon="2.25183709524571895599365234375">
        <ele>1395.800048828125</ele>
        <time>2020-08-09T12:52:09.000Z</time>
      </trkpt>
      <trkpt lat="42.30618732981383800506591796875" lon="2.2517994605004787445068359375">
        <ele>1394.5999755859375</ele>
        <time>2020-08-09T12:52:13.000Z</time>
      </trkpt>
      <trkpt lat="42.30619370006024837493896484375" lon="2.25175495259463787078857421875">
        <ele>1394</ele>
        <time>2020-08-09T12:52:17.000Z</time>
      </trkpt>
      <trkpt lat="42.30620040558278560638427734375" lon="2.25173450075089931488037109375">
        <ele>1393.5999755859375</ele>
        <time>2020-08-09T12:52:19.000Z</time>
      </trkpt>
      <trkpt lat="42.3062090389430522918701171875" lon="2.2516774199903011322021484375">
        <ele>1392.5999755859375</ele>
        <time>2020-08-09T12:52:23.000Z</time>
      </trkpt>
      <trkpt lat="42.3062160797417163848876953125" lon="2.25162754766643047332763671875">
        <ele>1391.5999755859375</ele>
        <time>2020-08-09T12:52:26.000Z</time>
      </trkpt>
      <trkpt lat="42.30621968396008014678955078125" lon="2.251610197126865386962890625">
        <ele>1391.4000244140625</ele>
        <time>2020-08-09T12:52:27.000Z</time>
      </trkpt>
      <trkpt lat="42.3062382079660892486572265625" lon="2.25152763538062572479248046875">
        <ele>1390.4000244140625</ele>
        <time>2020-08-09T12:52:32.000Z</time>
      </trkpt>
      <trkpt lat="42.3062566481530666351318359375" lon="2.25148178637027740478515625">
        <ele>1389.800048828125</ele>
        <time>2020-08-09T12:52:35.000Z</time>
      </trkpt>
      <trkpt lat="42.30626444332301616668701171875" lon="2.2514661960303783416748046875">
        <ele>1389.199951171875</ele>
        <time>2020-08-09T12:52:36.000Z</time>
      </trkpt>
      <trkpt lat="42.30628606863319873809814453125" lon="2.25140266120433807373046875">
        <ele>1387.800048828125</ele>
        <time>2020-08-09T12:52:40.000Z</time>
      </trkpt>
      <trkpt lat="42.30629847384989261627197265625" lon="2.2513515315949916839599609375">
        <ele>1387.4000244140625</ele>
        <time>2020-08-09T12:52:43.000Z</time>
      </trkpt>
      <trkpt lat="42.306322865188121795654296875" lon="2.25128590129315853118896484375">
        <ele>1386.800048828125</ele>
        <time>2020-08-09T12:52:48.000Z</time>
      </trkpt>
      <trkpt lat="42.3063290677964687347412109375" lon="2.2512717358767986297607421875">
        <ele>1386.5999755859375</ele>
        <time>2020-08-09T12:52:49.000Z</time>
      </trkpt>
      <trkpt lat="42.3063647747039794921875" lon="2.251223623752593994140625">
        <ele>1385.4000244140625</ele>
        <time>2020-08-09T12:52:53.000Z</time>
      </trkpt>
      <trkpt lat="42.30638849548995494842529296875" lon="2.251191772520542144775390625">
        <ele>1384.4000244140625</ele>
        <time>2020-08-09T12:52:56.000Z</time>
      </trkpt>
      <trkpt lat="42.30639721266925334930419921875" lon="2.25118280388414859771728515625">
        <ele>1384</ele>
        <time>2020-08-09T12:52:57.000Z</time>
      </trkpt>
      <trkpt lat="42.30641263537108898162841796875" lon="2.25116151385009288787841796875">
        <ele>1383.199951171875</ele>
        <time>2020-08-09T12:52:59.000Z</time>
      </trkpt>
      <trkpt lat="42.30643442831933498382568359375" lon="2.25113284774124622344970703125">
        <ele>1382.199951171875</ele>
        <time>2020-08-09T12:53:02.000Z</time>
      </trkpt>
      <trkpt lat="42.306455634534358978271484375" lon="2.2510967217385768890380859375">
        <ele>1381</ele>
        <time>2020-08-09T12:53:05.000Z</time>
      </trkpt>
      <trkpt lat="42.30646862648427486419677734375" lon="2.25107551552355289459228515625">
        <ele>1379.800048828125</ele>
        <time>2020-08-09T12:53:10.000Z</time>
      </trkpt>
      <trkpt lat="42.3064759187400341033935546875" lon="2.25106478668749332427978515625">
        <ele>1379.800048828125</ele>
        <time>2020-08-09T12:53:11.000Z</time>
      </trkpt>
      <trkpt lat="42.30651522986590862274169921875" lon="2.2509889304637908935546875">
        <ele>1378.800048828125</ele>
        <time>2020-08-09T12:53:17.000Z</time>
      </trkpt>
      <trkpt lat="42.306528054177761077880859375" lon="2.25096009671688079833984375">
        <ele>1378.199951171875</ele>
        <time>2020-08-09T12:53:19.000Z</time>
      </trkpt>
      <trkpt lat="42.30653232894837856292724609375" lon="2.2509441711008548736572265625">
        <ele>1377.800048828125</ele>
        <time>2020-08-09T12:53:20.000Z</time>
      </trkpt>
      <trkpt lat="42.30653149075806140899658203125" lon="2.2508754394948482513427734375">
        <ele>1376.4000244140625</ele>
        <time>2020-08-09T12:53:24.000Z</time>
      </trkpt>
      <trkpt lat="42.30652025900781154632568359375" lon="2.250834368169307708740234375">
        <ele>1375.5999755859375</ele>
        <time>2020-08-09T12:53:26.000Z</time>
      </trkpt>
      <trkpt lat="42.306516654789447784423828125" lon="2.25082020275294780731201171875">
        <ele>1375.199951171875</ele>
        <time>2020-08-09T12:53:27.000Z</time>
      </trkpt>
      <trkpt lat="42.306512631475925445556640625" lon="2.25081567652523517608642578125">
        <ele>1374.5999755859375</ele>
        <time>2020-08-09T12:53:31.000Z</time>
      </trkpt>
      <trkpt lat="42.3065007291734218597412109375" lon="2.25077326409518718719482421875">
        <ele>1374.4000244140625</ele>
        <time>2020-08-09T12:53:50.000Z</time>
      </trkpt>
      <trkpt lat="42.3064997233450412750244140625" lon="2.25075901485979557037353515625">
        <ele>1374.199951171875</ele>
        <time>2020-08-09T12:53:51.000Z</time>
      </trkpt>
      <trkpt lat="42.30649829842150211334228515625" lon="2.25068248808383941650390625">
        <ele>1373</ele>
        <time>2020-08-09T12:53:56.000Z</time>
      </trkpt>
      <trkpt lat="42.30650148354470729827880859375" lon="2.25065021775662899017333984375">
        <ele>1372.4000244140625</ele>
        <time>2020-08-09T12:53:58.000Z</time>
      </trkpt>
      <trkpt lat="42.30650424957275390625" lon="2.2506186179816722869873046875">
        <ele>1371.5999755859375</ele>
        <time>2020-08-09T12:54:00.000Z</time>
      </trkpt>
      <trkpt lat="42.30652193538844585418701171875" lon="2.2505599446594715118408203125">
        <ele>1370.4000244140625</ele>
        <time>2020-08-09T12:54:04.000Z</time>
      </trkpt>
      <trkpt lat="42.3065302334725856781005859375" lon="2.25052515976130962371826171875">
        <ele>1369.800048828125</ele>
        <time>2020-08-09T12:54:06.000Z</time>
      </trkpt>
      <trkpt lat="42.30653853155672550201416015625" lon="2.25049607455730438232421875">
        <ele>1369.199951171875</ele>
        <time>2020-08-09T12:54:08.000Z</time>
      </trkpt>
      <trkpt lat="42.3065436445176601409912109375" lon="2.250483669340610504150390625">
        <ele>1368.800048828125</ele>
        <time>2020-08-09T12:54:09.000Z</time>
      </trkpt>
      <trkpt lat="42.3065597377717494964599609375" lon="2.25044787861406803131103515625">
        <ele>1368.199951171875</ele>
        <time>2020-08-09T12:54:12.000Z</time>
      </trkpt>
      <trkpt lat="42.306574322283267974853515625" lon="2.25042072124779224395751953125">
        <ele>1367.800048828125</ele>
        <time>2020-08-09T12:54:14.000Z</time>
      </trkpt>
      <trkpt lat="42.30660013854503631591796875" lon="2.25037529133260250091552734375">
        <ele>1367</ele>
        <time>2020-08-09T12:54:17.000Z</time>
      </trkpt>
      <trkpt lat="42.30661598034203052520751953125" lon="2.2503477148711681365966796875">
        <ele>1366.4000244140625</ele>
        <time>2020-08-09T12:54:19.000Z</time>
      </trkpt>
      <trkpt lat="42.3066237755119800567626953125" lon="2.2503343038260936737060546875">
        <ele>1366</ele>
        <time>2020-08-09T12:54:20.000Z</time>
      </trkpt>
      <trkpt lat="42.30665403418242931365966796875" lon="2.25028024055063724517822265625">
        <ele>1364.5999755859375</ele>
        <time>2020-08-09T12:54:24.000Z</time>
      </trkpt>
      <trkpt lat="42.306678928434848785400390625" lon="2.2502417676150798797607421875">
        <ele>1363.5999755859375</ele>
        <time>2020-08-09T12:54:27.000Z</time>
      </trkpt>
      <trkpt lat="42.30669493786990642547607421875" lon="2.25021779537200927734375">
        <ele>1362.4000244140625</ele>
        <time>2020-08-09T12:54:29.000Z</time>
      </trkpt>
      <trkpt lat="42.306726872920989990234375" lon="2.25017060525715351104736328125">
        <ele>1361.4000244140625</ele>
        <time>2020-08-09T12:54:33.000Z</time>
      </trkpt>
      <trkpt lat="42.30674900114536285400390625" lon="2.25012886337935924530029296875">
        <ele>1360.4000244140625</ele>
        <time>2020-08-09T12:54:36.000Z</time>
      </trkpt>
      <trkpt lat="42.30677657760679721832275390625" lon="2.2500667534768581390380859375">
        <ele>1359.199951171875</ele>
        <time>2020-08-09T12:54:41.000Z</time>
      </trkpt>
      <trkpt lat="42.3067880608141422271728515625" lon="2.250043787062168121337890625">
        <ele>1358.800048828125</ele>
        <time>2020-08-09T12:54:43.000Z</time>
      </trkpt>
      <trkpt lat="42.3068006336688995361328125" lon="2.2500198148190975189208984375">
        <ele>1358</ele>
        <time>2020-08-09T12:54:45.000Z</time>
      </trkpt>
      <trkpt lat="42.306831143796443939208984375" lon="2.2499777376651763916015625">
        <ele>1356.800048828125</ele>
        <time>2020-08-09T12:54:49.000Z</time>
      </trkpt>
      <trkpt lat="42.30685603804886341094970703125" lon="2.2499517537653446197509765625">
        <ele>1356</ele>
        <time>2020-08-09T12:54:52.000Z</time>
      </trkpt>
      <trkpt lat="42.3068650066852569580078125" lon="2.24994328804314136505126953125">
        <ele>1355.5999755859375</ele>
        <time>2020-08-09T12:54:53.000Z</time>
      </trkpt>
      <trkpt lat="42.30689845047891139984130859375" lon="2.249920070171356201171875">
        <ele>1354.4000244140625</ele>
        <time>2020-08-09T12:54:57.000Z</time>
      </trkpt>
      <trkpt lat="42.30691395699977874755859375" lon="2.24990959279239177703857421875">
        <ele>1353.800048828125</ele>
        <time>2020-08-09T12:54:59.000Z</time>
      </trkpt>
      <trkpt lat="42.30692091397941112518310546875" lon="2.24990389309823513031005859375">
        <ele>1353.199951171875</ele>
        <time>2020-08-09T12:55:00.000Z</time>
      </trkpt>
      <trkpt lat="42.30696315877139568328857421875" lon="2.24987916648387908935546875">
        <ele>1352.199951171875</ele>
        <time>2020-08-09T12:55:05.000Z</time>
      </trkpt>
      <trkpt lat="42.30700381100177764892578125" lon="2.249867431819438934326171875">
        <ele>1351</ele>
        <time>2020-08-09T12:55:12.000Z</time>
      </trkpt>
      <trkpt lat="42.3070271126925945281982421875" lon="2.249866761267185211181640625">
        <ele>1350</ele>
        <time>2020-08-09T12:55:16.000Z</time>
      </trkpt>
      <trkpt lat="42.3070592992007732391357421875" lon="2.24985410459339618682861328125">
        <ele>1348.5999755859375</ele>
        <time>2020-08-09T12:55:21.000Z</time>
      </trkpt>
      <trkpt lat="42.3070921562612056732177734375" lon="2.24985645152628421783447265625">
        <ele>1347.5999755859375</ele>
        <time>2020-08-09T12:55:25.000Z</time>
      </trkpt>
      <trkpt lat="42.30713297612965106964111328125" lon="2.2498635761439800262451171875">
        <ele>1346.5999755859375</ele>
        <time>2020-08-09T12:55:30.000Z</time>
      </trkpt>
      <trkpt lat="42.30716113932430744171142578125" lon="2.24987086839973926544189453125">
        <ele>1345.800048828125</ele>
        <time>2020-08-09T12:55:33.000Z</time>
      </trkpt>
      <trkpt lat="42.3071709461510181427001953125" lon="2.2498709522187709808349609375">
        <ele>1345.4000244140625</ele>
        <time>2020-08-09T12:55:34.000Z</time>
      </trkpt>
      <trkpt lat="42.30721277184784412384033203125" lon="2.249870114028453826904296875">
        <ele>1344.4000244140625</ele>
        <time>2020-08-09T12:55:38.000Z</time>
      </trkpt>
      <trkpt lat="42.30723506771028041839599609375" lon="2.249872125685214996337890625">
        <ele>1343.800048828125</ele>
        <time>2020-08-09T12:55:40.000Z</time>
      </trkpt>
      <trkpt lat="42.307256944477558135986328125" lon="2.24987514317035675048828125">
        <ele>1343</ele>
        <time>2020-08-09T12:55:42.000Z</time>
      </trkpt>
      <trkpt lat="42.3073089122772216796875" lon="2.24986265413463115692138671875">
        <ele>1342</ele>
        <time>2020-08-09T12:55:47.000Z</time>
      </trkpt>
      <trkpt lat="42.30732089839875698089599609375" lon="2.2498645819723606109619140625">
        <ele>1341.800048828125</ele>
        <time>2020-08-09T12:55:48.000Z</time>
      </trkpt>
      <trkpt lat="42.3073275201022624969482421875" lon="2.2498615644872188568115234375">
        <ele>1341</ele>
        <time>2020-08-09T12:55:52.000Z</time>
      </trkpt>
      <trkpt lat="42.30732693336904048919677734375" lon="2.2498608939349651336669921875">
        <ele>1340.800048828125</ele>
        <time>2020-08-09T12:55:53.000Z</time>
      </trkpt>
      <trkpt lat="42.3073466308414936065673828125" lon="2.24984672851860523223876953125">
        <ele>1340.199951171875</ele>
        <time>2020-08-09T12:56:03.000Z</time>
      </trkpt>
      <trkpt lat="42.30737672187387943267822265625" lon="2.24984161555767059326171875">
        <ele>1339.4000244140625</ele>
        <time>2020-08-09T12:56:07.000Z</time>
      </trkpt>
      <trkpt lat="42.30741125531494617462158203125" lon="2.2498458065092563629150390625">
        <ele>1338.4000244140625</ele>
        <time>2020-08-09T12:56:11.000Z</time>
      </trkpt>
      <trkpt lat="42.30742131359875202178955078125" lon="2.2498476505279541015625">
        <ele>1338</ele>
        <time>2020-08-09T12:56:12.000Z</time>
      </trkpt>
      <trkpt lat="42.30745173990726470947265625" lon="2.24985578097403049468994140625">
        <ele>1337.199951171875</ele>
        <time>2020-08-09T12:56:15.000Z</time>
      </trkpt>
      <trkpt lat="42.30746590532362461090087890625" lon="2.24985896609723567962646484375">
        <ele>1336.800048828125</ele>
        <time>2020-08-09T12:56:16.000Z</time>
      </trkpt>
      <trkpt lat="42.30750362388789653778076171875" lon="2.24985410459339618682861328125">
        <ele>1336</ele>
        <time>2020-08-09T12:56:19.000Z</time>
      </trkpt>
      <trkpt lat="42.307546623051166534423828125" lon="2.249834574759006500244140625">
        <ele>1335.199951171875</ele>
        <time>2020-08-09T12:56:22.000Z</time>
      </trkpt>
      <trkpt lat="42.3075612075626850128173828125" lon="2.24982543848454952239990234375">
        <ele>1334.800048828125</ele>
        <time>2020-08-09T12:56:23.000Z</time>
      </trkpt>
      <trkpt lat="42.30759448371827602386474609375" lon="2.2497864626348018646240234375">
        <ele>1333.5999755859375</ele>
        <time>2020-08-09T12:56:26.000Z</time>
      </trkpt>
      <trkpt lat="42.30762331746518611907958984375" lon="2.24973306991159915924072265625">
        <ele>1332.4000244140625</ele>
        <time>2020-08-09T12:56:30.000Z</time>
      </trkpt>
      <trkpt lat="42.30761342681944370269775390625" lon="2.2496516816318035125732421875">
        <ele>1331.5999755859375</ele>
        <time>2020-08-09T12:56:37.000Z</time>
      </trkpt>
      <trkpt lat="42.30760755948722362518310546875" lon="2.24964371882379055023193359375">
        <ele>1331.4000244140625</ele>
        <time>2020-08-09T12:56:38.000Z</time>
      </trkpt>
      <trkpt lat="42.30757755227386951446533203125" lon="2.24962376989424228668212890625">
        <ele>1330.199951171875</ele>
        <time>2020-08-09T12:56:42.000Z</time>
      </trkpt>
      <trkpt lat="42.30755441822111606597900390625" lon="2.24960633553564548492431640625">
        <ele>1329.800048828125</ele>
        <time>2020-08-09T12:56:45.000Z</time>
      </trkpt>
      <trkpt lat="42.307510077953338623046875" lon="2.2495715506374835968017578125">
        <ele>1329.199951171875</ele>
        <time>2020-08-09T12:56:50.000Z</time>
      </trkpt>
      <trkpt lat="42.30749733746051788330078125" lon="2.24954632110893726348876953125">
        <ele>1328.5999755859375</ele>
        <time>2020-08-09T12:56:52.000Z</time>
      </trkpt>
      <trkpt lat="42.30749306268990039825439453125" lon="2.24953458644449710845947265625">
        <ele>1328.4000244140625</ele>
        <time>2020-08-09T12:56:53.000Z</time>
      </trkpt>
      <trkpt lat="42.30748736299574375152587890625" lon="2.2495215944945812225341796875">
        <ele>1328</ele>
        <time>2020-08-09T12:56:54.000Z</time>
      </trkpt>
      <trkpt lat="42.30748753063380718231201171875" lon="2.2494320757687091827392578125">
        <ele>1327</ele>
        <time>2020-08-09T12:57:00.000Z</time>
      </trkpt>
      <trkpt lat="42.30749331414699554443359375" lon="2.24941992200911045074462890625">
        <ele>1327</ele>
        <time>2020-08-09T12:57:01.000Z</time>
      </trkpt>
      <trkpt lat="42.3075058870017528533935546875" lon="2.249371893703937530517578125">
        <ele>1326.800048828125</ele>
        <time>2020-08-09T12:57:05.000Z</time>
      </trkpt>
      <trkpt lat="42.30751368217170238494873046875" lon="2.249335348606109619140625">
        <ele>1325.800048828125</ele>
        <time>2020-08-09T12:57:08.000Z</time>
      </trkpt>
      <trkpt lat="42.30751745402812957763671875" lon="2.24932554177939891815185546875">
        <ele>1325.4000244140625</ele>
        <time>2020-08-09T12:57:11.000Z</time>
      </trkpt>
      <trkpt lat="42.3075087368488311767578125" lon="2.24927407689392566680908203125">
        <ele>1325.199951171875</ele>
        <time>2020-08-09T12:57:18.000Z</time>
      </trkpt>
      <trkpt lat="42.3074854351580142974853515625" lon="2.24922328256070613861083984375">
        <ele>1325.4000244140625</ele>
        <time>2020-08-09T12:57:25.000Z</time>
      </trkpt>
      <trkpt lat="42.30746489949524402618408203125" lon="2.24918925203382968902587890625">
        <ele>1325.5999755859375</ele>
        <time>2020-08-09T12:57:32.000Z</time>
      </trkpt>
      <trkpt lat="42.30741108767688274383544921875" lon="2.2491749189794063568115234375">
        <ele>1325.800048828125</ele>
        <time>2020-08-09T12:57:41.000Z</time>
      </trkpt>
      <trkpt lat="42.30735174380242824554443359375" lon="2.24907450377941131591796875">
        <ele>1326.199951171875</ele>
        <time>2020-08-09T12:57:48.000Z</time>
      </trkpt>
      <trkpt lat="42.30728200636804103851318359375" lon="2.2489787824451923370361328125">
        <ele>1326.800048828125</ele>
        <time>2020-08-09T12:57:55.000Z</time>
      </trkpt>
      <trkpt lat="42.30726943351328372955322265625" lon="2.2489670477807521820068359375">
        <ele>1327</ele>
        <time>2020-08-09T12:57:56.000Z</time>
      </trkpt>
      <trkpt lat="42.307247221469879150390625" lon="2.24894575774669647216796875">
        <ele>1327.5999755859375</ele>
        <time>2020-08-09T12:57:58.000Z</time>
      </trkpt>
      <trkpt lat="42.3072081618010997772216796875" lon="2.24892052821815013885498046875">
        <ele>1328</ele>
        <time>2020-08-09T12:58:01.000Z</time>
      </trkpt>
      <trkpt lat="42.3071052320301532745361328125" lon="2.24887710995972156524658203125">
        <ele>1328.5999755859375</ele>
        <time>2020-08-09T12:58:08.000Z</time>
      </trkpt>
      <trkpt lat="42.30707698501646518707275390625" lon="2.24887040443718433380126953125">
        <ele>1329</ele>
        <time>2020-08-09T12:58:10.000Z</time>
      </trkpt>
      <trkpt lat="42.306988053023815155029296875" lon="2.2488324344158172607421875">
        <ele>1330</ele>
        <time>2020-08-09T12:58:16.000Z</time>
      </trkpt>
      <trkpt lat="42.30690347962081432342529296875" lon="2.24875557236373424530029296875">
        <ele>1330.4000244140625</ele>
        <time>2020-08-09T12:58:22.000Z</time>
      </trkpt>
      <trkpt lat="42.30682234279811382293701171875" lon="2.24868382327258586883544921875">
        <ele>1331</ele>
        <time>2020-08-09T12:58:28.000Z</time>
      </trkpt>
      <trkpt lat="42.3068098537623882293701171875" lon="2.24866974167525768280029296875">
        <ele>1331.4000244140625</ele>
        <time>2020-08-09T12:58:29.000Z</time>
      </trkpt>
      <trkpt lat="42.306711785495281219482421875" lon="2.24855281412601470947265625">
        <ele>1332.199951171875</ele>
        <time>2020-08-09T12:58:37.000Z</time>
      </trkpt>
      <trkpt lat="42.30665939860045909881591796875" lon="2.2485030256211757659912109375">
        <ele>1332.4000244140625</ele>
        <time>2020-08-09T12:58:40.000Z</time>
      </trkpt>
      <trkpt lat="42.30659854598343372344970703125" lon="2.24843001924455165863037109375">
        <ele>1332.5999755859375</ele>
        <time>2020-08-09T12:58:43.000Z</time>
      </trkpt>
      <trkpt lat="42.30654020793735980987548828125" lon="2.24833932705223560333251953125">
        <ele>1332.4000244140625</ele>
        <time>2020-08-09T12:58:47.000Z</time>
      </trkpt>
      <trkpt lat="42.30650383047759532928466796875" lon="2.248149476945400238037109375">
        <ele>1332.800048828125</ele>
        <time>2020-08-09T12:58:54.000Z</time>
      </trkpt>
      <trkpt lat="42.30649553239345550537109375" lon="2.2479612194001674652099609375">
        <ele>1333.4000244140625</ele>
        <time>2020-08-09T12:59:01.000Z</time>
      </trkpt>
      <trkpt lat="42.3064963705837726593017578125" lon="2.24793129600584506988525390625">
        <ele>1333.800048828125</ele>
        <time>2020-08-09T12:59:02.000Z</time>
      </trkpt>
      <trkpt lat="42.3065198399126529693603515625" lon="2.24776080809533596038818359375">
        <ele>1333.5999755859375</ele>
        <time>2020-08-09T12:59:08.000Z</time>
      </trkpt>
      <trkpt lat="42.30655663646757602691650390625" lon="2.24764899350702762603759765625">
        <ele>1334.5999755859375</ele>
        <time>2020-08-09T12:59:13.000Z</time>
      </trkpt>
      <trkpt lat="42.306574992835521697998046875" lon="2.24760557524859905242919921875">
        <ele>1335</ele>
        <time>2020-08-09T12:59:15.000Z</time>
      </trkpt>
      <trkpt lat="42.306624613702297210693359375" lon="2.24751706235110759735107421875">
        <ele>1335.4000244140625</ele>
        <time>2020-08-09T12:59:20.000Z</time>
      </trkpt>
      <trkpt lat="42.30664565227925777435302734375" lon="2.247478254139423370361328125">
        <ele>1335.5999755859375</ele>
        <time>2020-08-09T12:59:22.000Z</time>
      </trkpt>
      <trkpt lat="42.30669829063117504119873046875" lon="2.24739837460219860076904296875">
        <ele>1336.5999755859375</ele>
        <time>2020-08-09T12:59:26.000Z</time>
      </trkpt>
      <trkpt lat="42.30676802806556224822998046875" lon="2.24729259498417377471923828125">
        <ele>1337.4000244140625</ele>
        <time>2020-08-09T12:59:32.000Z</time>
      </trkpt>
      <trkpt lat="42.30680893175303936004638671875" lon="2.2471692971885204315185546875">
        <ele>1337.800048828125</ele>
        <time>2020-08-09T12:59:37.000Z</time>
      </trkpt>
      <trkpt lat="42.3068138770759105682373046875" lon="2.247140966355800628662109375">
        <ele>1337.800048828125</ele>
        <time>2020-08-09T12:59:38.000Z</time>
      </trkpt>
      <trkpt lat="42.306833155453205108642578125" lon="2.24696653895080089569091796875">
        <ele>1336.800048828125</ele>
        <time>2020-08-09T12:59:43.000Z</time>
      </trkpt>
      <trkpt lat="42.30683977715671062469482421875" lon="2.24692697636783123016357421875">
        <ele>1336.4000244140625</ele>
        <time>2020-08-09T12:59:44.000Z</time>
      </trkpt>
      <trkpt lat="42.306854613125324249267578125" lon="2.2468514554202556610107421875">
        <ele>1335.5999755859375</ele>
        <time>2020-08-09T12:59:46.000Z</time>
      </trkpt>
      <trkpt lat="42.30689249932765960693359375" lon="2.2467404790222644805908203125">
        <ele>1334.800048828125</ele>
        <time>2020-08-09T12:59:49.000Z</time>
      </trkpt>
      <trkpt lat="42.306904904544353485107421875" lon="2.2466965578496456146240234375">
        <ele>1334.5999755859375</ele>
        <time>2020-08-09T12:59:50.000Z</time>
      </trkpt>
      <trkpt lat="42.30695745907723903656005859375" lon="2.24650151096284389495849609375">
        <ele>1333.5999755859375</ele>
        <time>2020-08-09T12:59:55.000Z</time>
      </trkpt>
      <trkpt lat="42.3070080019533634185791015625" lon="2.246340997517108917236328125">
        <ele>1332.5999755859375</ele>
        <time>2020-08-09T12:59:59.000Z</time>
      </trkpt>
      <trkpt lat="42.3070190660655498504638671875" lon="2.24631073884665966033935546875">
        <ele>1332.4000244140625</ele>
        <time>2020-08-09T13:00:00.000Z</time>
      </trkpt>
      <trkpt lat="42.3070529289543628692626953125" lon="2.246170677244663238525390625">
        <ele>1332</ele>
        <time>2020-08-09T13:00:04.000Z</time>
      </trkpt>
      <trkpt lat="42.30711537413299083709716796875" lon="2.24596540443599224090576171875">
        <ele>1331.4000244140625</ele>
        <time>2020-08-09T13:00:10.000Z</time>
      </trkpt>
      <trkpt lat="42.30711990036070346832275390625" lon="2.2459314577281475067138671875">
        <ele>1331.4000244140625</ele>
        <time>2020-08-09T13:00:11.000Z</time>
      </trkpt>
      <trkpt lat="42.30715661309659481048583984375" lon="2.24578670226037502288818359375">
        <ele>1331.199951171875</ele>
        <time>2020-08-09T13:00:15.000Z</time>
      </trkpt>
      <trkpt lat="42.30721059255301952362060546875" lon="2.24558821879327297210693359375">
        <ele>1330.800048828125</ele>
        <time>2020-08-09T13:00:20.000Z</time>
      </trkpt>
      <trkpt lat="42.3072539269924163818359375" lon="2.245477326214313507080078125">
        <ele>1330.199951171875</ele>
        <time>2020-08-09T13:00:23.000Z</time>
      </trkpt>
      <trkpt lat="42.3072995245456695556640625" lon="2.24539426155388355255126953125">
        <ele>1329.800048828125</ele>
        <time>2020-08-09T13:00:25.000Z</time>
      </trkpt>
      <trkpt lat="42.30734336189925670623779296875" lon="2.2453054971992969512939453125">
        <ele>1329.199951171875</ele>
        <time>2020-08-09T13:00:27.000Z</time>
      </trkpt>
      <trkpt lat="42.3073811642825603485107421875" lon="2.2452263720333576202392578125">
        <ele>1328.5999755859375</ele>
        <time>2020-08-09T13:00:29.000Z</time>
      </trkpt>
      <trkpt lat="42.30746456421911716461181640625" lon="2.24507926963269710540771484375">
        <ele>1328.199951171875</ele>
        <time>2020-08-09T13:00:33.000Z</time>
      </trkpt>
      <trkpt lat="42.30748501606285572052001953125" lon="2.24503551609814167022705078125">
        <ele>1328</ele>
        <time>2020-08-09T13:00:34.000Z</time>
      </trkpt>
      <trkpt lat="42.30756263248622417449951171875" lon="2.24483099766075611114501953125">
        <ele>1327.4000244140625</ele>
        <time>2020-08-09T13:00:39.000Z</time>
      </trkpt>
      <trkpt lat="42.3076187074184417724609375" lon="2.244670651853084564208984375">
        <ele>1327.800048828125</ele>
        <time>2020-08-09T13:00:44.000Z</time>
      </trkpt>
      <trkpt lat="42.30767478235065937042236328125" lon="2.2445078752934932708740234375">
        <ele>1327.5999755859375</ele>
        <time>2020-08-09T13:00:49.000Z</time>
      </trkpt>
      <trkpt lat="42.30768132023513317108154296875" lon="2.24445867352187633514404296875">
        <ele>1327.199951171875</ele>
        <time>2020-08-09T13:00:50.000Z</time>
      </trkpt>
      <trkpt lat="42.307696156203746795654296875" lon="2.24430243484675884246826171875">
        <ele>1326.4000244140625</ele>
        <time>2020-08-09T13:00:53.000Z</time>
      </trkpt>
      <trkpt lat="42.30771132744848728179931640625" lon="2.24418592639267444610595703125">
        <ele>1326.199951171875</ele>
        <time>2020-08-09T13:00:55.000Z</time>
      </trkpt>
      <trkpt lat="42.30772993527352809906005859375" lon="2.24402113817632198333740234375">
        <ele>1324.5999755859375</ele>
        <time>2020-08-09T13:00:58.000Z</time>
      </trkpt>
      <trkpt lat="42.30773597024381160736083984375" lon="2.24395810626447200775146484375">
        <ele>1323.800048828125</ele>
        <time>2020-08-09T13:00:59.000Z</time>
      </trkpt>
      <trkpt lat="42.30774234049022197723388671875" lon="2.24389105103909969329833984375">
        <ele>1323</ele>
        <time>2020-08-09T13:01:00.000Z</time>
      </trkpt>
      <trkpt lat="42.30776262469589710235595703125" lon="2.24376163445413112640380859375">
        <ele>1321.800048828125</ele>
        <time>2020-08-09T13:01:02.000Z</time>
      </trkpt>
      <trkpt lat="42.30778072960674762725830078125" lon="2.243635319173336029052734375">
        <ele>1320.800048828125</ele>
        <time>2020-08-09T13:01:04.000Z</time>
      </trkpt>
      <trkpt lat="42.3077912069857120513916015625" lon="2.24357505328953266143798828125">
        <ele>1320.199951171875</ele>
        <time>2020-08-09T13:01:05.000Z</time>
      </trkpt>
      <trkpt lat="42.30781258083879947662353515625" lon="2.24345385096967220306396484375">
        <ele>1319.5999755859375</ele>
        <time>2020-08-09T13:01:07.000Z</time>
      </trkpt>
      <trkpt lat="42.30783822946250438690185546875" lon="2.24332124926149845123291015625">
        <ele>1319.5999755859375</ele>
        <time>2020-08-09T13:01:10.000Z</time>
      </trkpt>
      <trkpt lat="42.30782180093228816986083984375" lon="2.24307012744247913360595703125">
        <ele>1319.800048828125</ele>
        <time>2020-08-09T13:01:15.000Z</time>
      </trkpt>
      <trkpt lat="42.3077650554478168487548828125" lon="2.24279972724616527557373046875">
        <ele>1319</ele>
        <time>2020-08-09T13:01:21.000Z</time>
      </trkpt>
      <trkpt lat="42.3077501356601715087890625" lon="2.24264030344784259796142578125">
        <ele>1318.4000244140625</ele>
        <time>2020-08-09T13:01:24.000Z</time>
      </trkpt>
      <trkpt lat="42.3077593557536602020263671875" lon="2.2425820492208003997802734375">
        <ele>1318</ele>
        <time>2020-08-09T13:01:25.000Z</time>
      </trkpt>
      <trkpt lat="42.30778944678604602813720703125" lon="2.2424717433750629425048828125">
        <ele>1316.800048828125</ele>
        <time>2020-08-09T13:01:27.000Z</time>
      </trkpt>
      <trkpt lat="42.307822220027446746826171875" lon="2.2423849068582057952880859375">
        <ele>1315.4000244140625</ele>
        <time>2020-08-09T13:01:29.000Z</time>
      </trkpt>
      <trkpt lat="42.307838983833789825439453125" lon="2.242350876331329345703125">
        <ele>1315.199951171875</ele>
        <time>2020-08-09T13:01:30.000Z</time>
      </trkpt>
      <trkpt lat="42.3079541511833667755126953125" lon="2.24220335483551025390625">
        <ele>1314.800048828125</ele>
        <time>2020-08-09T13:01:35.000Z</time>
      </trkpt>
      <trkpt lat="42.30797854252159595489501953125" lon="2.242177538573741912841796875">
        <ele>1314.199951171875</ele>
        <time>2020-08-09T13:01:36.000Z</time>
      </trkpt>
      <trkpt lat="42.30805347673594951629638671875" lon="2.24207527935504913330078125">
        <ele>1313.199951171875</ele>
        <time>2020-08-09T13:01:40.000Z</time>
      </trkpt>
      <trkpt lat="42.30811064131557941436767578125" lon="2.24199305288493633270263671875">
        <ele>1311.5999755859375</ele>
        <time>2020-08-09T13:01:44.000Z</time>
      </trkpt>
      <trkpt lat="42.3081295005977153778076171875" lon="2.2419688291847705841064453125">
        <ele>1311.199951171875</ele>
        <time>2020-08-09T13:01:45.000Z</time>
      </trkpt>
      <trkpt lat="42.308194376528263092041015625" lon="2.2418789751827716827392578125">
        <ele>1310.199951171875</ele>
        <time>2020-08-09T13:01:48.000Z</time>
      </trkpt>
      <trkpt lat="42.3082062788307666778564453125" lon="2.24185273982584476470947265625">
        <ele>1310</ele>
        <time>2020-08-09T13:01:49.000Z</time>
      </trkpt>
      <trkpt lat="42.30827115476131439208984375" lon="2.2417777217924594879150390625">
        <ele>1309</ele>
        <time>2020-08-09T13:01:52.000Z</time>
      </trkpt>
      <trkpt lat="42.30829739011824131011962890625" lon="2.2417576052248477935791015625">
        <ele>1308.5999755859375</ele>
        <time>2020-08-09T13:01:53.000Z</time>
      </trkpt>
      <trkpt lat="42.3083454184234142303466796875" lon="2.2417022846639156341552734375">
        <ele>1307.800048828125</ele>
        <time>2020-08-09T13:01:55.000Z</time>
      </trkpt>
      <trkpt lat="42.30837467126548290252685546875" lon="2.24165014922618865966796875">
        <ele>1306.5999755859375</ele>
        <time>2020-08-09T13:01:57.000Z</time>
      </trkpt>
      <trkpt lat="42.30845161713659763336181640625" lon="2.241496928036212921142578125">
        <ele>1305.4000244140625</ele>
        <time>2020-08-09T13:02:01.000Z</time>
      </trkpt>
      <trkpt lat="42.30848112143576145172119140625" lon="2.24139156751334667205810546875">
        <ele>1304.5999755859375</ele>
        <time>2020-08-09T13:02:03.000Z</time>
      </trkpt>
      <trkpt lat="42.30851649306714534759521484375" lon="2.2413002885878086090087890625">
        <ele>1304.199951171875</ele>
        <time>2020-08-09T13:02:05.000Z</time>
      </trkpt>
      <trkpt lat="42.3085767589509487152099609375" lon="2.24117950536310672760009765625">
        <ele>1303.199951171875</ele>
        <time>2020-08-09T13:02:08.000Z</time>
      </trkpt>
      <trkpt lat="42.30860584415495395660400390625" lon="2.241148240864276885986328125">
        <ele>1303</ele>
        <time>2020-08-09T13:02:09.000Z</time>
      </trkpt>
      <trkpt lat="42.30867742560803890228271484375" lon="2.2410701215267181396484375">
        <ele>1302</ele>
        <time>2020-08-09T13:02:12.000Z</time>
      </trkpt>
      <trkpt lat="42.30869050137698650360107421875" lon="2.24105226807296276092529296875">
        <ele>1301.5999755859375</ele>
        <time>2020-08-09T13:02:13.000Z</time>
      </trkpt>
      <trkpt lat="42.30875168927013874053955078125" lon="2.24100650288164615631103515625">
        <ele>1300.800048828125</ele>
        <time>2020-08-09T13:02:16.000Z</time>
      </trkpt>
      <trkpt lat="42.30880784802138805389404296875" lon="2.240989990532398223876953125">
        <ele>1300.199951171875</ele>
        <time>2020-08-09T13:02:18.000Z</time>
      </trkpt>
      <trkpt lat="42.30887825600802898406982421875" lon="2.24098227918148040771484375">
        <ele>1299.199951171875</ele>
        <time>2020-08-09T13:02:20.000Z</time>
      </trkpt>
      <trkpt lat="42.30898487381637096405029296875" lon="2.2409857995808124542236328125">
        <ele>1298</ele>
        <time>2020-08-09T13:02:23.000Z</time>
      </trkpt>
      <trkpt lat="42.3090159706771373748779296875" lon="2.240984626114368438720703125">
        <ele>1297.5999755859375</ele>
        <time>2020-08-09T13:02:24.000Z</time>
      </trkpt>
      <trkpt lat="42.30907036922872066497802734375" lon="2.24098186008632183074951171875">
        <ele>1296.5999755859375</ele>
        <time>2020-08-09T13:02:26.000Z</time>
      </trkpt>
      <trkpt lat="42.30909593403339385986328125" lon="2.24097163416445255279541015625">
        <ele>1296.199951171875</ele>
        <time>2020-08-09T13:02:27.000Z</time>
      </trkpt>
      <trkpt lat="42.309156954288482666015625" lon="2.2409710474312305450439453125">
        <ele>1295.4000244140625</ele>
        <time>2020-08-09T13:02:29.000Z</time>
      </trkpt>
      <trkpt lat="42.3092275299131870269775390625" lon="2.241010107100009918212890625">
        <ele>1294.4000244140625</ele>
        <time>2020-08-09T13:02:31.000Z</time>
      </trkpt>
      <trkpt lat="42.30929869227111339569091796875" lon="2.24105478264391422271728515625">
        <ele>1293</ele>
        <time>2020-08-09T13:02:33.000Z</time>
      </trkpt>
      <trkpt lat="42.3093358241021633148193359375" lon="2.2410723008215427398681640625">
        <ele>1292.5999755859375</ele>
        <time>2020-08-09T13:02:34.000Z</time>
      </trkpt>
      <trkpt lat="42.3093777336180210113525390625" lon="2.24108847789466381072998046875">
        <ele>1292</ele>
        <time>2020-08-09T13:02:35.000Z</time>
      </trkpt>
      <trkpt lat="42.30945560149848461151123046875" lon="2.2410942614078521728515625">
        <ele>1291</ele>
        <time>2020-08-09T13:02:37.000Z</time>
      </trkpt>
      <trkpt lat="42.309554256498813629150390625" lon="2.24111211486160755157470703125">
        <ele>1290.199951171875</ele>
        <time>2020-08-09T13:02:40.000Z</time>
      </trkpt>
      <trkpt lat="42.309607230126857757568359375" lon="2.241082526743412017822265625">
        <ele>1289.5999755859375</ele>
        <time>2020-08-09T13:02:42.000Z</time>
      </trkpt>
      <trkpt lat="42.30964788235723972320556640625" lon="2.2410515137016773223876953125">
        <ele>1289.5999755859375</ele>
        <time>2020-08-09T13:02:44.000Z</time>
      </trkpt>
      <trkpt lat="42.30964939109981060028076171875" lon="2.2410203330218791961669921875">
        <ele>1289.4000244140625</ele>
        <time>2020-08-09T13:02:45.000Z</time>
      </trkpt>
      <trkpt lat="42.30969029478728771209716796875" lon="2.24094045348465442657470703125">
        <ele>1289</ele>
        <time>2020-08-09T13:02:49.000Z</time>
      </trkpt>
      <trkpt lat="42.309693731367588043212890625" lon="2.24087658338248729705810546875">
        <ele>1289.199951171875</ele>
        <time>2020-08-09T13:02:57.000Z</time>
      </trkpt>
      <trkpt lat="42.3096979223191738128662109375" lon="2.24087557755410671234130859375">
        <ele>1289</ele>
        <time>2020-08-09T13:03:00.000Z</time>
      </trkpt>
      <trkpt lat="42.309719212353229522705078125" lon="2.2408573888242244720458984375">
        <ele>1289</ele>
        <time>2020-08-09T13:03:04.000Z</time>
      </trkpt>
      <trkpt lat="42.30972759425640106201171875" lon="2.2408423013985157012939453125">
        <ele>1288.800048828125</ele>
        <time>2020-08-09T13:03:11.000Z</time>
      </trkpt>
      <trkpt lat="42.30973429977893829345703125" lon="2.2408233582973480224609375">
        <ele>1288.800048828125</ele>
        <time>2020-08-09T13:03:21.000Z</time>
      </trkpt>
      <trkpt lat="42.3097425140440464019775390625" lon="2.240814976394176483154296875">
        <ele>1288.800048828125</ele>
        <time>2020-08-09T13:03:34.000Z</time>
      </trkpt>
      <trkpt lat="42.3097394965589046478271484375" lon="2.24078069441020488739013671875">
        <ele>1289</ele>
        <time>2020-08-09T13:03:43.000Z</time>
      </trkpt>
      <trkpt lat="42.30968090705573558807373046875" lon="2.24069670774042606353759765625">
        <ele>1289</ele>
        <time>2020-08-09T13:03:52.000Z</time>
      </trkpt>
      <trkpt lat="42.30961770750582218170166015625" lon="2.24056276492774486541748046875">
        <ele>1290.5999755859375</ele>
        <time>2020-08-09T13:04:02.000Z</time>
      </trkpt>
      <trkpt lat="42.30960681103169918060302734375" lon="2.24054516293108463287353515625">
        <ele>1291</ele>
        <time>2020-08-09T13:04:05.000Z</time>
      </trkpt>
      <trkpt lat="42.30957948602735996246337890625" lon="2.24050157703459262847900390625">
        <ele>1291.5999755859375</ele>
        <time>2020-08-09T13:04:11.000Z</time>
      </trkpt>
      <trkpt lat="42.30956607498228549957275390625" lon="2.24046369083225727081298828125">
        <ele>1292.199951171875</ele>
        <time>2020-08-09T13:04:16.000Z</time>
      </trkpt>
      <trkpt lat="42.309550233185291290283203125" lon="2.24043435417115688323974609375">
        <ele>1292.800048828125</ele>
        <time>2020-08-09T13:04:21.000Z</time>
      </trkpt>
      <trkpt lat="42.309538833796977996826171875" lon="2.240403927862644195556640625">
        <ele>1293.199951171875</ele>
        <time>2020-08-09T13:04:25.000Z</time>
      </trkpt>
      <trkpt lat="42.30952642858028411865234375" lon="2.24037383683025836944580078125">
        <ele>1294.199951171875</ele>
        <time>2020-08-09T13:04:30.000Z</time>
      </trkpt>
      <trkpt lat="42.30951863341033458709716796875" lon="2.24036210216581821441650390625">
        <ele>1294.5999755859375</ele>
        <time>2020-08-09T13:04:32.000Z</time>
      </trkpt>
      <trkpt lat="42.30948208831250667572021484375" lon="2.24031935445964336395263671875">
        <ele>1295.4000244140625</ele>
        <time>2020-08-09T13:04:39.000Z</time>
      </trkpt>
      <trkpt lat="42.3094766400754451751708984375" lon="2.24031080491840839385986328125">
        <ele>1295.5999755859375</ele>
        <time>2020-08-09T13:04:41.000Z</time>
      </trkpt>
      <trkpt lat="42.3094531707465648651123046875" lon="2.24028247408568859100341796875">
        <ele>1297</ele>
        <time>2020-08-09T13:04:47.000Z</time>
      </trkpt>
      <trkpt lat="42.3094437830150127410888671875" lon="2.24027275107800960540771484375">
        <ele>1297</ele>
        <time>2020-08-09T13:04:49.000Z</time>
      </trkpt>
      <trkpt lat="42.309426181018352508544921875" lon="2.24027560092508792877197265625">
        <ele>1297.199951171875</ele>
        <time>2020-08-09T13:04:58.000Z</time>
      </trkpt>
      <trkpt lat="42.3094209842383861541748046875" lon="2.2402575798332691192626953125">
        <ele>1297.5999755859375</ele>
        <time>2020-08-09T13:05:13.000Z</time>
      </trkpt>
      <trkpt lat="42.3094122670590877532958984375" lon="2.24024207331240177154541015625">
        <ele>1297.800048828125</ele>
        <time>2020-08-09T13:05:14.000Z</time>
      </trkpt>
      <trkpt lat="42.30936809442937374114990234375" lon="2.24018977023661136627197265625">
        <ele>1297.800048828125</ele>
        <time>2020-08-09T13:05:18.000Z</time>
      </trkpt>
      <trkpt lat="42.30933104641735553741455078125" lon="2.24015858955681324005126953125">
        <ele>1298</ele>
        <time>2020-08-09T13:05:21.000Z</time>
      </trkpt>
      <trkpt lat="42.30929181911051273345947265625" lon="2.24012707360088825225830078125">
        <ele>1298.4000244140625</ele>
        <time>2020-08-09T13:05:24.000Z</time>
      </trkpt>
      <trkpt lat="42.30925393290817737579345703125" lon="2.2401093877851963043212890625">
        <ele>1298.5999755859375</ele>
        <time>2020-08-09T13:05:27.000Z</time>
      </trkpt>
      <trkpt lat="42.309226356446743011474609375" lon="2.24008751101791858673095703125">
        <ele>1298.800048828125</ele>
        <time>2020-08-09T13:05:29.000Z</time>
      </trkpt>
      <trkpt lat="42.30917866341769695281982421875" lon="2.24004727788269519805908203125">
        <ele>1299.199951171875</ele>
        <time>2020-08-09T13:05:33.000Z</time>
      </trkpt>
      <trkpt lat="42.30910490266978740692138671875" lon="2.240001596510410308837890625">
        <ele>1299.4000244140625</ele>
        <time>2020-08-09T13:05:38.000Z</time>
      </trkpt>
      <trkpt lat="42.30905008502304553985595703125" lon="2.23997016437351703643798828125">
        <ele>1300.5999755859375</ele>
        <time>2020-08-09T13:05:42.000Z</time>
      </trkpt>
      <trkpt lat="42.30903231538832187652587890625" lon="2.239966057240962982177734375">
        <ele>1300.800048828125</ele>
        <time>2020-08-09T13:05:43.000Z</time>
      </trkpt>
      <trkpt lat="42.3090153001248836517333984375" lon="2.2399570047855377197265625">
        <ele>1301.199951171875</ele>
        <time>2020-08-09T13:05:44.000Z</time>
      </trkpt>
      <trkpt lat="42.3090008832514286041259765625" lon="2.23994367755949497222900390625">
        <ele>1301.4000244140625</ele>
        <time>2020-08-09T13:05:45.000Z</time>
      </trkpt>
      <trkpt lat="42.3089703731238842010498046875" lon="2.239917106926441192626953125">
        <ele>1301.800048828125</ele>
        <time>2020-08-09T13:05:47.000Z</time>
      </trkpt>
      <trkpt lat="42.30894765816628932952880859375" lon="2.23989523015916347503662109375">
        <ele>1302.199951171875</ele>
        <time>2020-08-09T13:05:49.000Z</time>
      </trkpt>
      <trkpt lat="42.30891262181103229522705078125" lon="2.2398658096790313720703125">
        <ele>1302.5999755859375</ele>
        <time>2020-08-09T13:05:52.000Z</time>
      </trkpt>
      <trkpt lat="42.3088768310844898223876953125" lon="2.23984393291175365447998046875">
        <ele>1302.800048828125</ele>
        <time>2020-08-09T13:05:54.000Z</time>
      </trkpt>
      <trkpt lat="42.308858893811702728271484375" lon="2.239839993417263031005859375">
        <ele>1303</ele>
        <time>2020-08-09T13:05:55.000Z</time>
      </trkpt>
      <trkpt lat="42.3088419623672962188720703125" lon="2.23983789794147014617919921875">
        <ele>1303.199951171875</ele>
        <time>2020-08-09T13:05:56.000Z</time>
      </trkpt>
      <trkpt lat="42.30879829265177249908447265625" lon="2.23981979303061962127685546875">
        <ele>1303.5999755859375</ele>
        <time>2020-08-09T13:05:59.000Z</time>
      </trkpt>
      <trkpt lat="42.30877214111387729644775390625" lon="2.23980487324297428131103515625">
        <ele>1304.199951171875</ele>
        <time>2020-08-09T13:06:01.000Z</time>
      </trkpt>
      <trkpt lat="42.308759987354278564453125" lon="2.239797748625278472900390625">
        <ele>1304.4000244140625</ele>
        <time>2020-08-09T13:06:02.000Z</time>
      </trkpt>
      <trkpt lat="42.3087085224688053131103515625" lon="2.2397851757705211639404296875">
        <ele>1305.199951171875</ele>
        <time>2020-08-09T13:06:06.000Z</time>
      </trkpt>
      <trkpt lat="42.30869628489017486572265625" lon="2.23978375084698200225830078125">
        <ele>1305.4000244140625</ele>
        <time>2020-08-09T13:06:07.000Z</time>
      </trkpt>
      <trkpt lat="42.30861539952456951141357421875" lon="2.23976832814514636993408203125">
        <ele>1305.5999755859375</ele>
        <time>2020-08-09T13:06:12.000Z</time>
      </trkpt>
      <trkpt lat="42.30859930627048015594482421875" lon="2.23976547829806804656982421875">
        <ele>1305.5999755859375</ele>
        <time>2020-08-09T13:06:13.000Z</time>
      </trkpt>
      <trkpt lat="42.3085127212107181549072265625" lon="2.23974653519690036773681640625">
        <ele>1306.4000244140625</ele>
        <time>2020-08-09T13:06:18.000Z</time>
      </trkpt>
      <trkpt lat="42.30849604122340679168701171875" lon="2.23974435590207576751708984375">
        <ele>1306.4000244140625</ele>
        <time>2020-08-09T13:06:19.000Z</time>
      </trkpt>
      <trkpt lat="42.30841171927750110626220703125" lon="2.239732034504413604736328125">
        <ele>1307.4000244140625</ele>
        <time>2020-08-09T13:06:24.000Z</time>
      </trkpt>
      <trkpt lat="42.3083792813122272491455078125" lon="2.239716611802577972412109375">
        <ele>1307.800048828125</ele>
        <time>2020-08-09T13:06:26.000Z</time>
      </trkpt>
      <trkpt lat="42.30836193077266216278076171875" lon="2.2397124208509922027587890625">
        <ele>1308</ele>
        <time>2020-08-09T13:06:27.000Z</time>
      </trkpt>
      <trkpt lat="42.3083115555346012115478515625" lon="2.2396983392536640167236328125">
        <ele>1308.4000244140625</ele>
        <time>2020-08-09T13:06:30.000Z</time>
      </trkpt>
      <trkpt lat="42.3082843981683254241943359375" lon="2.23968249745666980743408203125">
        <ele>1308.800048828125</ele>
        <time>2020-08-09T13:06:32.000Z</time>
      </trkpt>
      <trkpt lat="42.3081784509122371673583984375" lon="2.2396235726773738861083984375">
        <ele>1309.4000244140625</ele>
        <time>2020-08-09T13:06:38.000Z</time>
      </trkpt>
      <trkpt lat="42.30807845480740070343017578125" lon="2.23949105478823184967041015625">
        <ele>1308.199951171875</ele>
        <time>2020-08-09T13:06:43.000Z</time>
      </trkpt>
      <trkpt lat="42.308067642152309417724609375" lon="2.2394193895161151885986328125">
        <ele>1307.199951171875</ele>
        <time>2020-08-09T13:06:45.000Z</time>
      </trkpt>
      <trkpt lat="42.30808474123477935791015625" lon="2.23930564709007740020751953125">
        <ele>1306.4000244140625</ele>
        <time>2020-08-09T13:06:48.000Z</time>
      </trkpt>
      <trkpt lat="42.30808666907250881195068359375" lon="2.2392587922513484954833984375">
        <ele>1306</ele>
        <time>2020-08-09T13:06:49.000Z</time>
      </trkpt>
      <trkpt lat="42.3081229627132415771484375" lon="2.23911118693649768829345703125">
        <ele>1305.199951171875</ele>
        <time>2020-08-09T13:06:52.000Z</time>
      </trkpt>
      <trkpt lat="42.30815112590789794921875" lon="2.2389593906700611114501953125">
        <ele>1305</ele>
        <time>2020-08-09T13:06:55.000Z</time>
      </trkpt>
      <trkpt lat="42.30815757997334003448486328125" lon="2.23891387693583965301513671875">
        <ele>1304.800048828125</ele>
        <time>2020-08-09T13:06:56.000Z</time>
      </trkpt>
      <trkpt lat="42.30818138457834720611572265625" lon="2.23876769654452800750732421875">
        <ele>1304.5999755859375</ele>
        <time>2020-08-09T13:06:59.000Z</time>
      </trkpt>
      <trkpt lat="42.30818674899637699127197265625" lon="2.23871891386806964874267578125">
        <ele>1304.4000244140625</ele>
        <time>2020-08-09T13:07:00.000Z</time>
      </trkpt>
      <trkpt lat="42.3082173429429531097412109375" lon="2.23850953392684459686279296875">
        <ele>1303.800048828125</ele>
        <time>2020-08-09T13:07:05.000Z</time>
      </trkpt>
      <trkpt lat="42.3082183487713336944580078125" lon="2.2383324243128299713134765625">
        <ele>1302.5999755859375</ele>
        <time>2020-08-09T13:07:09.000Z</time>
      </trkpt>
      <trkpt lat="42.3082230426371097564697265625" lon="2.2382942028343677520751953125">
        <ele>1302.4000244140625</ele>
        <time>2020-08-09T13:07:10.000Z</time>
      </trkpt>
      <trkpt lat="42.3082263953983783721923828125" lon="2.2381599247455596923828125">
        <ele>1301.5999755859375</ele>
        <time>2020-08-09T13:07:13.000Z</time>
      </trkpt>
      <trkpt lat="42.308215834200382232666015625" lon="2.23811776377260684967041015625">
        <ele>1301</ele>
        <time>2020-08-09T13:07:14.000Z</time>
      </trkpt>
      <trkpt lat="42.308186329901218414306640625" lon="2.238027490675449371337890625">
        <ele>1300</ele>
        <time>2020-08-09T13:07:16.000Z</time>
      </trkpt>
      <trkpt lat="42.308127991855144500732421875" lon="2.2379153408110141754150390625">
        <ele>1298.800048828125</ele>
        <time>2020-08-09T13:07:19.000Z</time>
      </trkpt>
      <trkpt lat="42.30810494162142276763916015625" lon="2.23782188259065151214599609375">
        <ele>1298.199951171875</ele>
        <time>2020-08-09T13:07:21.000Z</time>
      </trkpt>
      <trkpt lat="42.30810963548719882965087890625" lon="2.23778064362704753875732421875">
        <ele>1297.800048828125</ele>
        <time>2020-08-09T13:07:22.000Z</time>
      </trkpt>
      <trkpt lat="42.308123968541622161865234375" lon="2.23774242214858531951904296875">
        <ele>1297.800048828125</ele>
        <time>2020-08-09T13:07:23.000Z</time>
      </trkpt>
      <trkpt lat="42.308172918856143951416015625" lon="2.23767779767513275146484375">
        <ele>1297.4000244140625</ele>
        <time>2020-08-09T13:07:25.000Z</time>
      </trkpt>
      <trkpt lat="42.30820200406014919281005859375" lon="2.2376501373946666717529296875">
        <ele>1296.800048828125</ele>
        <time>2020-08-09T13:07:26.000Z</time>
      </trkpt>
      <trkpt lat="42.3082327656447887420654296875" lon="2.23762222565710544586181640625">
        <ele>1296.800048828125</ele>
        <time>2020-08-09T13:07:27.000Z</time>
      </trkpt>
      <trkpt lat="42.3083611764013767242431640625" lon="2.23752080462872982025146484375">
        <ele>1296</ele>
        <time>2020-08-09T13:07:31.000Z</time>
      </trkpt>
      <trkpt lat="42.308391518890857696533203125" lon="2.237496078014373779296875">
        <ele>1295.5999755859375</ele>
        <time>2020-08-09T13:07:32.000Z</time>
      </trkpt>
      <trkpt lat="42.30846184305846691131591796875" lon="2.23735182546079158782958984375">
        <ele>1295.5999755859375</ele>
        <time>2020-08-09T13:07:37.000Z</time>
      </trkpt>
      <trkpt lat="42.3084751702845096588134765625" lon="2.237312011420726776123046875">
        <ele>1296.5999755859375</ele>
        <time>2020-08-09T13:07:39.000Z</time>
      </trkpt>
      <trkpt lat="42.30847726576030254364013671875" lon="2.237287200987339019775390625">
        <ele>1297</ele>
        <time>2020-08-09T13:07:40.000Z</time>
      </trkpt>
      <trkpt lat="42.3084768466651439666748046875" lon="2.2372618876397609710693359375">
        <ele>1297.199951171875</ele>
        <time>2020-08-09T13:07:41.000Z</time>
      </trkpt>
      <trkpt lat="42.308442480862140655517578125" lon="2.23716977052390575408935546875">
        <ele>1297.5999755859375</ele>
        <time>2020-08-09T13:07:46.000Z</time>
      </trkpt>
      <trkpt lat="42.3084366135299205780029296875" lon="2.237153761088848114013671875">
        <ele>1297.5999755859375</ele>
        <time>2020-08-09T13:07:47.000Z</time>
      </trkpt>
      <trkpt lat="42.3084309138357639312744140625" lon="2.237037084996700286865234375">
        <ele>1297.199951171875</ele>
        <time>2020-08-09T13:07:52.000Z</time>
      </trkpt>
      <trkpt lat="42.308490090072154998779296875" lon="2.236904986202716827392578125">
        <ele>1295.5999755859375</ele>
        <time>2020-08-09T13:07:56.000Z</time>
      </trkpt>
      <trkpt lat="42.30851280502974987030029296875" lon="2.23687372170388698577880859375">
        <ele>1295.199951171875</ele>
        <time>2020-08-09T13:07:57.000Z</time>
      </trkpt>
      <trkpt lat="42.3085382021963596343994140625" lon="2.23684371449053287506103515625">
        <ele>1294.5999755859375</ele>
        <time>2020-08-09T13:07:58.000Z</time>
      </trkpt>
      <trkpt lat="42.30858824215829372406005859375" lon="2.23679157905280590057373046875">
        <ele>1293.4000244140625</ele>
        <time>2020-08-09T13:08:00.000Z</time>
      </trkpt>
      <trkpt lat="42.308634929358959197998046875" lon="2.236733995378017425537109375">
        <ele>1292.4000244140625</ele>
        <time>2020-08-09T13:08:02.000Z</time>
      </trkpt>
      <trkpt lat="42.3086635954678058624267578125" lon="2.23669317550957202911376953125">
        <ele>1291.199951171875</ele>
        <time>2020-08-09T13:08:05.000Z</time>
      </trkpt>
      <trkpt lat="42.30866837315261363983154296875" lon="2.23668261431157588958740234375">
        <ele>1291.199951171875</ele>
        <time>2020-08-09T13:08:06.000Z</time>
      </trkpt>
      <trkpt lat="42.30870567262172698974609375" lon="2.236594855785369873046875">
        <ele>1290</ele>
        <time>2020-08-09T13:08:12.000Z</time>
      </trkpt>
      <trkpt lat="42.3087259568274021148681640625" lon="2.2365309856832027435302734375">
        <ele>1289</ele>
        <time>2020-08-09T13:08:17.000Z</time>
      </trkpt>
      <trkpt lat="42.30873140506446361541748046875" lon="2.23651112057268619537353515625">
        <ele>1288.5999755859375</ele>
        <time>2020-08-09T13:08:19.000Z</time>
      </trkpt>
      <trkpt lat="42.3087336681783199310302734375" lon="2.23649787716567516326904296875">
        <ele>1288</ele>
        <time>2020-08-09T13:08:20.000Z</time>
      </trkpt>
      <trkpt lat="42.30873978696763515472412109375" lon="2.236484549939632415771484375">
        <ele>1287.5999755859375</ele>
        <time>2020-08-09T13:08:24.000Z</time>
      </trkpt>
      <trkpt lat="42.308742217719554901123046875" lon="2.23647273145616054534912109375">
        <ele>1287.4000244140625</ele>
        <time>2020-08-09T13:08:25.000Z</time>
      </trkpt>
      <trkpt lat="42.30875135399401187896728515625" lon="2.23643668927252292633056640625">
        <ele>1286.800048828125</ele>
        <time>2020-08-09T13:08:28.000Z</time>
      </trkpt>
      <trkpt lat="42.308765351772308349609375" lon="2.2363936901092529296875">
        <ele>1286</ele>
        <time>2020-08-09T13:08:32.000Z</time>
      </trkpt>
      <trkpt lat="42.3087688721716403961181640625" lon="2.23638203926384449005126953125">
        <ele>1285.800048828125</ele>
        <time>2020-08-09T13:08:33.000Z</time>
      </trkpt>
      <trkpt lat="42.30878689326345920562744140625" lon="2.23633426241576671600341796875">
        <ele>1284.5999755859375</ele>
        <time>2020-08-09T13:08:37.000Z</time>
      </trkpt>
      <trkpt lat="42.30878722853958606719970703125" lon="2.23633258603513240814208984375">
        <ele>1284.5999755859375</ele>
        <time>2020-08-09T13:08:38.000Z</time>
      </trkpt>
      <trkpt lat="42.3087961971759796142578125" lon="2.2362939454615116119384765625">
        <ele>1283.800048828125</ele>
        <time>2020-08-09T13:08:46.000Z</time>
      </trkpt>
      <trkpt lat="42.30881153605878353118896484375" lon="2.23626938648521900177001953125">
        <ele>1283.5999755859375</ele>
        <time>2020-08-09T13:08:48.000Z</time>
      </trkpt>
      <trkpt lat="42.30887733399868011474609375" lon="2.23621926270425319671630859375">
        <ele>1282.4000244140625</ele>
        <time>2020-08-09T13:08:53.000Z</time>
      </trkpt>
      <trkpt lat="42.3089163936674594879150390625" lon="2.23618573509156703948974609375">
        <ele>1281.5999755859375</ele>
        <time>2020-08-09T13:08:56.000Z</time>
      </trkpt>
      <trkpt lat="42.30893475003540515899658203125" lon="2.2361776046454906463623046875">
        <ele>1281.4000244140625</ele>
        <time>2020-08-09T13:08:57.000Z</time>
      </trkpt>
      <trkpt lat="42.30895268730819225311279296875" lon="2.23616779781877994537353515625">
        <ele>1281.199951171875</ele>
        <time>2020-08-09T13:08:58.000Z</time>
      </trkpt>
      <trkpt lat="42.3090039007365703582763671875" lon="2.236133851110935211181640625">
        <ele>1280.4000244140625</ele>
        <time>2020-08-09T13:09:01.000Z</time>
      </trkpt>
      <trkpt lat="42.30903801508247852325439453125" lon="2.236107699573040008544921875">
        <ele>1279.800048828125</ele>
        <time>2020-08-09T13:09:03.000Z</time>
      </trkpt>
      <trkpt lat="42.30907238088548183441162109375" lon="2.23608364351093769073486328125">
        <ele>1279.199951171875</ele>
        <time>2020-08-09T13:09:05.000Z</time>
      </trkpt>
      <trkpt lat="42.30912032537162303924560546875" lon="2.23601105622947216033935546875">
        <ele>1278.4000244140625</ele>
        <time>2020-08-09T13:09:09.000Z</time>
      </trkpt>
      <trkpt lat="42.30913407169282436370849609375" lon="2.235974930226802825927734375">
        <ele>1278.199951171875</ele>
        <time>2020-08-09T13:09:10.000Z</time>
      </trkpt>
      <trkpt lat="42.30919643305242061614990234375" lon="2.23584559746086597442626953125">
        <ele>1277</ele>
        <time>2020-08-09T13:09:14.000Z</time>
      </trkpt>
      <trkpt lat="42.30921604670584201812744140625" lon="2.23582170903682708740234375">
        <ele>1276.199951171875</ele>
        <time>2020-08-09T13:09:15.000Z</time>
      </trkpt>
      <trkpt lat="42.30923867784440517425537109375" lon="2.23580301739275455474853515625">
        <ele>1275.4000244140625</ele>
        <time>2020-08-09T13:09:16.000Z</time>
      </trkpt>
      <trkpt lat="42.30929299257695674896240234375" lon="2.23574392497539520263671875">
        <ele>1274.4000244140625</ele>
        <time>2020-08-09T13:09:19.000Z</time>
      </trkpt>
      <trkpt lat="42.30930254794657230377197265625" lon="2.23573495633900165557861328125">
        <ele>1274</ele>
        <time>2020-08-09T13:09:20.000Z</time>
      </trkpt>
      <trkpt lat="42.30931051075458526611328125" lon="2.2357325255870819091796875">
        <ele>1273.4000244140625</ele>
        <time>2020-08-09T13:09:24.000Z</time>
      </trkpt>
      <trkpt lat="42.309312857687473297119140625" lon="2.2357320226728916168212890625">
        <ele>1273.199951171875</ele>
        <time>2020-08-09T13:09:25.000Z</time>
      </trkpt>
      <trkpt lat="42.309355102479457855224609375" lon="2.23567955195903778076171875">
        <ele>1272.199951171875</ele>
        <time>2020-08-09T13:09:32.000Z</time>
      </trkpt>
      <trkpt lat="42.30935568921267986297607421875" lon="2.23566756583750247955322265625">
        <ele>1272</ele>
        <time>2020-08-09T13:09:33.000Z</time>
      </trkpt>
      <trkpt lat="42.30935988016426563262939453125" lon="2.23559179343283176422119140625">
        <ele>1271</ele>
        <time>2020-08-09T13:09:40.000Z</time>
      </trkpt>
      <trkpt lat="42.309363819658756256103515625" lon="2.2355784662067890167236328125">
        <ele>1270.5999755859375</ele>
        <time>2020-08-09T13:09:42.000Z</time>
      </trkpt>
      <trkpt lat="42.30938586406409740447998046875" lon="2.235523648560047149658203125">
        <ele>1269.800048828125</ele>
        <time>2020-08-09T13:09:47.000Z</time>
      </trkpt>
      <trkpt lat="42.3094015382230281829833984375" lon="2.23549640737473964691162109375">
        <ele>1269.199951171875</ele>
        <time>2020-08-09T13:09:50.000Z</time>
      </trkpt>
      <trkpt lat="42.3094162903726100921630859375" lon="2.23546388559043407440185546875">
        <ele>1269</ele>
        <time>2020-08-09T13:09:53.000Z</time>
      </trkpt>
      <trkpt lat="42.30944068171083927154541015625" lon="2.23542482592165470123291015625">
        <ele>1268</ele>
        <time>2020-08-09T13:09:57.000Z</time>
      </trkpt>
      <trkpt lat="42.3094424419105052947998046875" lon="2.23541158251464366912841796875">
        <ele>1267.800048828125</ele>
        <time>2020-08-09T13:09:58.000Z</time>
      </trkpt>
      <trkpt lat="42.3094551824033260345458984375" lon="2.235363386571407318115234375">
        <ele>1267</ele>
        <time>2020-08-09T13:10:02.000Z</time>
      </trkpt>
      <trkpt lat="42.30946247465908527374267578125" lon="2.23535232245922088623046875">
        <ele>1266.800048828125</ele>
        <time>2020-08-09T13:10:03.000Z</time>
      </trkpt>
      <trkpt lat="42.30947152711451053619384765625" lon="2.23534385673701763153076171875">
        <ele>1266.4000244140625</ele>
        <time>2020-08-09T13:10:04.000Z</time>
      </trkpt>
      <trkpt lat="42.30951310135424137115478515625" lon="2.2352907992899417877197265625">
        <ele>1265.199951171875</ele>
        <time>2020-08-09T13:10:09.000Z</time>
      </trkpt>
      <trkpt lat="42.30952483601868152618408203125" lon="2.23528082482516765594482421875">
        <ele>1265.199951171875</ele>
        <time>2020-08-09T13:10:10.000Z</time>
      </trkpt>
      <trkpt lat="42.3095336370170116424560546875" lon="2.23526892252266407012939453125">
        <ele>1264.800048828125</ele>
        <time>2020-08-09T13:10:11.000Z</time>
      </trkpt>
      <trkpt lat="42.30955685488879680633544921875" lon="2.23522919230163097381591796875">
        <ele>1264.199951171875</ele>
        <time>2020-08-09T13:10:15.000Z</time>
      </trkpt>
      <trkpt lat="42.30956221930682659149169921875" lon="2.23521779291331768035888671875">
        <ele>1263.800048828125</ele>
        <time>2020-08-09T13:10:16.000Z</time>
      </trkpt>
      <trkpt lat="42.30957336723804473876953125" lon="2.23519499413669109344482421875">
        <ele>1263</ele>
        <time>2020-08-09T13:10:18.000Z</time>
      </trkpt>
      <trkpt lat="42.3095996864140033721923828125" lon="2.2351317107677459716796875">
        <ele>1262</ele>
        <time>2020-08-09T13:10:24.000Z</time>
      </trkpt>
      <trkpt lat="42.30960379354655742645263671875" lon="2.23512073047459125518798828125">
        <ele>1261.800048828125</ele>
        <time>2020-08-09T13:10:25.000Z</time>
      </trkpt>
      <trkpt lat="42.30963170528411865234375" lon="2.23505937494337558746337890625">
        <ele>1261</ele>
        <time>2020-08-09T13:10:30.000Z</time>
      </trkpt>
      <trkpt lat="42.30963530950248241424560546875" lon="2.2350440360605716705322265625">
        <ele>1260.800048828125</ele>
        <time>2020-08-09T13:10:31.000Z</time>
      </trkpt>
      <trkpt lat="42.30964167974889278411865234375" lon="2.23502836190164089202880859375">
        <ele>1260.5999755859375</ele>
        <time>2020-08-09T13:10:32.000Z</time>
      </trkpt>
      <trkpt lat="42.3096687532961368560791015625" lon="2.23496918566524982452392578125">
        <ele>1259.199951171875</ele>
        <time>2020-08-09T13:10:36.000Z</time>
      </trkpt>
      <trkpt lat="42.309680320322513580322265625" lon="2.2349333949387073516845703125">
        <ele>1258.4000244140625</ele>
        <time>2020-08-09T13:10:39.000Z</time>
      </trkpt>
      <trkpt lat="42.30968526564538478851318359375" lon="2.23492224700748920440673828125">
        <ele>1258.199951171875</ele>
        <time>2020-08-09T13:10:40.000Z</time>
      </trkpt>
      <trkpt lat="42.3097193799912929534912109375" lon="2.23485703580081462860107421875">
        <ele>1257.199951171875</ele>
        <time>2020-08-09T13:10:46.000Z</time>
      </trkpt>
      <trkpt lat="42.3097274266183376312255859375" lon="2.23484764806926250457763671875">
        <ele>1256.800048828125</ele>
        <time>2020-08-09T13:10:47.000Z</time>
      </trkpt>
      <trkpt lat="42.30976154096424579620361328125" lon="2.23481713794171810150146484375">
        <ele>1256</ele>
        <time>2020-08-09T13:10:51.000Z</time>
      </trkpt>
      <trkpt lat="42.30979464948177337646484375" lon="2.23479601554572582244873046875">
        <ele>1255.4000244140625</ele>
        <time>2020-08-09T13:10:54.000Z</time>
      </trkpt>
      <trkpt lat="42.3098394088447093963623046875" lon="2.234750501811504364013671875">
        <ele>1254.5999755859375</ele>
        <time>2020-08-09T13:10:58.000Z</time>
      </trkpt>
      <trkpt lat="42.3098524846136569976806640625" lon="2.2347288765013217926025390625">
        <ele>1254</ele>
        <time>2020-08-09T13:11:00.000Z</time>
      </trkpt>
      <trkpt lat="42.30983429588377475738525390625" lon="2.23462167195975780487060546875">
        <ele>1253.800048828125</ele>
        <time>2020-08-09T13:11:07.000Z</time>
      </trkpt>
      <trkpt lat="42.30982658453285694122314453125" lon="2.23460909910500049591064453125">
        <ele>1253.4000244140625</ele>
        <time>2020-08-09T13:11:08.000Z</time>
      </trkpt>
      <trkpt lat="42.309780232608318328857421875" lon="2.23451689817011356353759765625">
        <ele>1253</ele>
        <time>2020-08-09T13:11:14.000Z</time>
      </trkpt>
      <trkpt lat="42.30975014157593250274658203125" lon="2.23440608941018581390380859375">
        <ele>1252.199951171875</ele>
        <time>2020-08-09T13:11:21.000Z</time>
      </trkpt>
      <trkpt lat="42.3097472079098224639892578125" lon="2.2342987172305583953857421875">
        <ele>1252</ele>
        <time>2020-08-09T13:11:27.000Z</time>
      </trkpt>
      <trkpt lat="42.30975533835589885711669921875" lon="2.234161756932735443115234375">
        <ele>1251.199951171875</ele>
        <time>2020-08-09T13:11:35.000Z</time>
      </trkpt>
      <trkpt lat="42.3097564280033111572265625" lon="2.23414457403123378753662109375">
        <ele>1251</ele>
        <time>2020-08-09T13:11:36.000Z</time>
      </trkpt>
      <trkpt lat="42.309759445488452911376953125" lon="2.2340526245534420013427734375">
        <ele>1250</ele>
        <time>2020-08-09T13:11:41.000Z</time>
      </trkpt>
      <trkpt lat="42.30975718237459659576416015625" lon="2.2340358607470989227294921875">
        <ele>1249.800048828125</ele>
        <time>2020-08-09T13:11:42.000Z</time>
      </trkpt>
      <trkpt lat="42.30974913574755191802978515625" lon="2.23392899148166179656982421875">
        <ele>1248.800048828125</ele>
        <time>2020-08-09T13:11:48.000Z</time>
      </trkpt>
      <trkpt lat="42.30974880047142505645751953125" lon="2.23389454185962677001953125">
        <ele>1248.5999755859375</ele>
        <time>2020-08-09T13:11:50.000Z</time>
      </trkpt>
      <trkpt lat="42.30976975522935390472412109375" lon="2.23378314636647701263427734375">
        <ele>1247.800048828125</ele>
        <time>2020-08-09T13:11:57.000Z</time>
      </trkpt>
      <trkpt lat="42.309773527085781097412109375" lon="2.2337790392339229583740234375">
        <ele>1247.800048828125</ele>
        <time>2020-08-09T13:12:04.000Z</time>
      </trkpt>
      <trkpt lat="42.30977453291416168212890625" lon="2.23377811722457408905029296875">
        <ele>1247.5999755859375</ele>
        <time>2020-08-09T13:12:33.000Z</time>
      </trkpt>
      <trkpt lat="42.30978584848344326019287109375" lon="2.2337190248072147369384765625">
        <ele>1247.199951171875</ele>
        <time>2020-08-09T13:12:42.000Z</time>
      </trkpt>
      <trkpt lat="42.3098253272473812103271484375" lon="2.23360243253409862518310546875">
        <ele>1246.5999755859375</ele>
        <time>2020-08-09T13:12:46.000Z</time>
      </trkpt>
      <trkpt lat="42.30984234251081943511962890625" lon="2.2334099002182483673095703125">
        <ele>1246</ele>
        <time>2020-08-09T13:12:51.000Z</time>
      </trkpt>
      <trkpt lat="42.30984100140631198883056640625" lon="2.2333683259785175323486328125">
        <ele>1245.4000244140625</ele>
        <time>2020-08-09T13:12:52.000Z</time>
      </trkpt>
      <trkpt lat="42.309838570654392242431640625" lon="2.23324636928737163543701171875">
        <ele>1244</ele>
        <time>2020-08-09T13:12:55.000Z</time>
      </trkpt>
      <trkpt lat="42.30985038913786411285400390625" lon="2.23306800238788127899169921875">
        <ele>1242.4000244140625</ele>
        <time>2020-08-09T13:12:59.000Z</time>
      </trkpt>
      <trkpt lat="42.3098595254123210906982421875" lon="2.2330186329782009124755859375">
        <ele>1240.800048828125</ele>
        <time>2020-08-09T13:13:00.000Z</time>
      </trkpt>
      <trkpt lat="42.30987469665706157684326171875" lon="2.23292827606201171875">
        <ele>1239.800048828125</ele>
        <time>2020-08-09T13:13:02.000Z</time>
      </trkpt>
      <trkpt lat="42.30988358147442340850830078125" lon="2.23285091109573841094970703125">
        <ele>1239</ele>
        <time>2020-08-09T13:13:04.000Z</time>
      </trkpt>
      <trkpt lat="42.30988559313118457794189453125" lon="2.23281604237854480743408203125">
        <ele>1238.4000244140625</ele>
        <time>2020-08-09T13:13:05.000Z</time>
      </trkpt>
      <trkpt lat="42.30988852679729461669921875" lon="2.23275183700025081634521484375">
        <ele>1237</ele>
        <time>2020-08-09T13:13:08.000Z</time>
      </trkpt>
      <trkpt lat="42.30988743714988231658935546875" lon="2.2327363304793834686279296875">
        <ele>1236.5999755859375</ele>
        <time>2020-08-09T13:13:09.000Z</time>
      </trkpt>
      <trkpt lat="42.30988173745572566986083984375" lon="2.23268779926002025604248046875">
        <ele>1236</ele>
        <time>2020-08-09T13:13:12.000Z</time>
      </trkpt>
      <trkpt lat="42.30985826812684535980224609375" lon="2.2326099313795566558837890625">
        <ele>1235</ele>
        <time>2020-08-09T13:13:16.000Z</time>
      </trkpt>
      <trkpt lat="42.3098414205014705657958984375" lon="2.23256559111177921295166015625">
        <ele>1233.800048828125</ele>
        <time>2020-08-09T13:13:18.000Z</time>
      </trkpt>
      <trkpt lat="42.3098208010196685791015625" lon="2.23250037990510463714599609375">
        <ele>1232.800048828125</ele>
        <time>2020-08-09T13:13:22.000Z</time>
      </trkpt>
      <trkpt lat="42.30981476604938507080078125" lon="2.2324778325855731964111328125">
        <ele>1232.199951171875</ele>
        <time>2020-08-09T13:13:24.000Z</time>
      </trkpt>
      <trkpt lat="42.30979808606207370758056640625" lon="2.232420332729816436767578125">
        <ele>1231.5999755859375</ele>
        <time>2020-08-09T13:13:27.000Z</time>
      </trkpt>
      <trkpt lat="42.30979330837726593017578125" lon="2.23240616731345653533935546875">
        <ele>1231.4000244140625</ele>
        <time>2020-08-09T13:13:28.000Z</time>
      </trkpt>
      <trkpt lat="42.30977830477058887481689453125" lon="2.2323564626276493072509765625">
        <ele>1230.4000244140625</ele>
        <time>2020-08-09T13:13:31.000Z</time>
      </trkpt>
      <trkpt lat="42.30976439081132411956787109375" lon="2.2322870604693889617919921875">
        <ele>1229.5999755859375</ele>
        <time>2020-08-09T13:13:34.000Z</time>
      </trkpt>
      <trkpt lat="42.3097599484026432037353515625" lon="2.23225797526538372039794921875">
        <ele>1229.4000244140625</ele>
        <time>2020-08-09T13:13:35.000Z</time>
      </trkpt>
      <trkpt lat="42.3097512312233448028564453125" lon="2.23217147402465343475341796875">
        <ele>1228.199951171875</ele>
        <time>2020-08-09T13:13:38.000Z</time>
      </trkpt>
      <trkpt lat="42.309742011129856109619140625" lon="2.23210223950445652008056640625">
        <ele>1227.4000244140625</ele>
        <time>2020-08-09T13:13:40.000Z</time>
      </trkpt>
      <trkpt lat="42.309735305607318878173828125" lon="2.232064940035343170166015625">
        <ele>1226.800048828125</ele>
        <time>2020-08-09T13:13:41.000Z</time>
      </trkpt>
      <trkpt lat="42.3097210563719272613525390625" lon="2.23197014071047306060791015625">
        <ele>1225.5999755859375</ele>
        <time>2020-08-09T13:13:44.000Z</time>
      </trkpt>
      <trkpt lat="42.30971896089613437652587890625" lon="2.2319437377154827117919921875">
        <ele>1225.4000244140625</ele>
        <time>2020-08-09T13:13:45.000Z</time>
      </trkpt>
      <trkpt lat="42.30971694923937320709228515625" lon="2.23188959062099456787109375">
        <ele>1224.4000244140625</ele>
        <time>2020-08-09T13:13:47.000Z</time>
      </trkpt>
      <trkpt lat="42.30974058620631694793701171875" lon="2.2317777760326862335205078125">
        <ele>1223.5999755859375</ele>
        <time>2020-08-09T13:13:51.000Z</time>
      </trkpt>
      <trkpt lat="42.30974771082401275634765625" lon="2.23175087012350559234619140625">
        <ele>1223.4000244140625</ele>
        <time>2020-08-09T13:13:52.000Z</time>
      </trkpt>
      <trkpt lat="42.3097733594477176666259765625" lon="2.2316654585301876068115234375">
        <ele>1222</ele>
        <time>2020-08-09T13:13:55.000Z</time>
      </trkpt>
      <trkpt lat="42.3098031990230083465576171875" lon="2.231612317264080047607421875">
        <ele>1220.5999755859375</ele>
        <time>2020-08-09T13:13:57.000Z</time>
      </trkpt>
      <trkpt lat="42.309846617281436920166015625" lon="2.23155808635056018829345703125">
        <ele>1219.199951171875</ele>
        <time>2020-08-09T13:13:59.000Z</time>
      </trkpt>
      <trkpt lat="42.30992901138961315155029296875" lon="2.23150360397994518280029296875">
        <ele>1218.199951171875</ele>
        <time>2020-08-09T13:14:02.000Z</time>
      </trkpt>
      <trkpt lat="42.31000629253685474395751953125" lon="2.23143101669847965240478515625">
        <ele>1216.800048828125</ele>
        <time>2020-08-09T13:14:06.000Z</time>
      </trkpt>
      <trkpt lat="42.31005222536623477935791015625" lon="2.2313496284186840057373046875">
        <ele>1215.4000244140625</ele>
        <time>2020-08-09T13:14:10.000Z</time>
      </trkpt>
      <trkpt lat="42.31006630696356296539306640625" lon="2.2313275001943111419677734375">
        <ele>1215.199951171875</ele>
        <time>2020-08-09T13:14:11.000Z</time>
      </trkpt>
      <trkpt lat="42.3101056180894374847412109375" lon="2.23129087127745151519775390625">
        <ele>1214.4000244140625</ele>
        <time>2020-08-09T13:14:13.000Z</time>
      </trkpt>
      <trkpt lat="42.3101632855832576751708984375" lon="2.2312336228787899017333984375">
        <ele>1213.4000244140625</ele>
        <time>2020-08-09T13:14:16.000Z</time>
      </trkpt>
      <trkpt lat="42.31017795391380786895751953125" lon="2.2312128357589244842529296875">
        <ele>1213.199951171875</ele>
        <time>2020-08-09T13:14:17.000Z</time>
      </trkpt>
      <trkpt lat="42.31021986342966556549072265625" lon="2.23114804364740848541259765625">
        <ele>1212.199951171875</ele>
        <time>2020-08-09T13:14:20.000Z</time>
      </trkpt>
      <trkpt lat="42.31024928390979766845703125" lon="2.23110563121736049652099609375">
        <ele>1211</ele>
        <time>2020-08-09T13:14:22.000Z</time>
      </trkpt>
      <trkpt lat="42.3102846555411815643310546875" lon="2.23107964731752872467041015625">
        <ele>1209.5999755859375</ele>
        <time>2020-08-09T13:14:24.000Z</time>
      </trkpt>
      <trkpt lat="42.31032446958124637603759765625" lon="2.2310559265315532684326171875">
        <ele>1208.800048828125</ele>
        <time>2020-08-09T13:14:27.000Z</time>
      </trkpt>
      <trkpt lat="42.31036151759326457977294921875" lon="2.23102114163339138031005859375">
        <ele>1207.800048828125</ele>
        <time>2020-08-09T13:14:30.000Z</time>
      </trkpt>
      <trkpt lat="42.31039370410144329071044921875" lon="2.2309918887913227081298828125">
        <ele>1206.800048828125</ele>
        <time>2020-08-09T13:14:34.000Z</time>
      </trkpt>
      <trkpt lat="42.31040594168007373809814453125" lon="2.2309841774404048919677734375">
        <ele>1206.5999755859375</ele>
        <time>2020-08-09T13:14:35.000Z</time>
      </trkpt>
      <trkpt lat="42.31043008156120777130126953125" lon="2.2309689223766326904296875">
        <ele>1206.199951171875</ele>
        <time>2020-08-09T13:14:37.000Z</time>
      </trkpt>
      <trkpt lat="42.3104430735111236572265625" lon="2.23096783272922039031982421875">
        <ele>1205.5999755859375</ele>
        <time>2020-08-09T13:14:39.000Z</time>
      </trkpt>
      <trkpt lat="42.31043972074985504150390625" lon="2.2309581935405731201171875">
        <ele>1205.199951171875</ele>
        <time>2020-08-09T13:14:41.000Z</time>
      </trkpt>
      <trkpt lat="42.3104455880820751190185546875" lon="2.2309405915439128875732421875">
        <ele>1205</ele>
        <time>2020-08-09T13:14:43.000Z</time>
      </trkpt>
      <trkpt lat="42.310458831489086151123046875" lon="2.2309087403118610382080078125">
        <ele>1204.800048828125</ele>
        <time>2020-08-09T13:14:46.000Z</time>
      </trkpt>
      <trkpt lat="42.31046394445002079010009765625" lon="2.23089675419032573699951171875">
        <ele>1204.5999755859375</ele>
        <time>2020-08-09T13:14:47.000Z</time>
      </trkpt>
      <trkpt lat="42.31048238463699817657470703125" lon="2.230862639844417572021484375">
        <ele>1204.4000244140625</ele>
        <time>2020-08-09T13:14:50.000Z</time>
      </trkpt>
      <trkpt lat="42.31050132773816585540771484375" lon="2.230806648731231689453125">
        <ele>1203.5999755859375</ele>
        <time>2020-08-09T13:14:53.000Z</time>
      </trkpt>
      <trkpt lat="42.3105099610984325408935546875" lon="2.23079499788582324981689453125">
        <ele>1203</ele>
        <time>2020-08-09T13:14:54.000Z</time>
      </trkpt>
      <trkpt lat="42.3105170018970966339111328125" lon="2.2307810001075267791748046875">
        <ele>1202.800048828125</ele>
        <time>2020-08-09T13:14:55.000Z</time>
      </trkpt>
      <trkpt lat="42.31052144430577754974365234375" lon="2.230765409767627716064453125">
        <ele>1202.4000244140625</ele>
        <time>2020-08-09T13:14:56.000Z</time>
      </trkpt>
      <trkpt lat="42.310539297759532928466796875" lon="2.23071285523474216461181640625">
        <ele>1202</ele>
        <time>2020-08-09T13:14:59.000Z</time>
      </trkpt>
      <trkpt lat="42.31054021976888179779052734375" lon="2.2307022102177143096923828125">
        <ele>1201.5999755859375</ele>
        <time>2020-08-09T13:15:01.000Z</time>
      </trkpt>
      <trkpt lat="42.31056167744100093841552734375" lon="2.2306706942617893218994140625">
        <ele>1201.199951171875</ele>
        <time>2020-08-09T13:15:05.000Z</time>
      </trkpt>
      <trkpt lat="42.3106115497648715972900390625" lon="2.23061277531087398529052734375">
        <ele>1200.5999755859375</ele>
        <time>2020-08-09T13:15:14.000Z</time>
      </trkpt>
      <trkpt lat="42.3106340132653713226318359375" lon="2.23059131763875484466552734375">
        <ele>1199.800048828125</ele>
        <time>2020-08-09T13:15:21.000Z</time>
      </trkpt>
      <trkpt lat="42.31067449785768985748291015625" lon="2.23051822744309902191162109375">
        <ele>1199.5999755859375</ele>
        <time>2020-08-09T13:15:24.000Z</time>
      </trkpt>
      <trkpt lat="42.31069176457822322845458984375" lon="2.23048838786780834197998046875">
        <ele>1199.5999755859375</ele>
        <time>2020-08-09T13:15:25.000Z</time>
      </trkpt>
      <trkpt lat="42.31077658943831920623779296875" lon="2.23033784888684749603271484375">
        <ele>1198.5999755859375</ele>
        <time>2020-08-09T13:15:30.000Z</time>
      </trkpt>
      <trkpt lat="42.31083241291344165802001953125" lon="2.23024095408618450164794921875">
        <ele>1197.800048828125</ele>
        <time>2020-08-09T13:15:33.000Z</time>
      </trkpt>
      <trkpt lat="42.31087733991444110870361328125" lon="2.23019887693226337432861328125">
        <ele>1197.4000244140625</ele>
        <time>2020-08-09T13:15:35.000Z</time>
      </trkpt>
      <trkpt lat="42.31098982505500316619873046875" lon="2.23014540039002895355224609375">
        <ele>1197.199951171875</ele>
        <time>2020-08-09T13:15:41.000Z</time>
      </trkpt>
      <trkpt lat="42.3110430501401424407958984375" lon="2.23009075038135051727294921875">
        <ele>1196.5999755859375</ele>
        <time>2020-08-09T13:15:46.000Z</time>
      </trkpt>
      <trkpt lat="42.311077080667018890380859375" lon="2.23004967905580997467041015625">
        <ele>1196.199951171875</ele>
        <time>2020-08-09T13:15:51.000Z</time>
      </trkpt>
      <trkpt lat="42.3111375980079174041748046875" lon="2.229981534183025360107421875">
        <ele>1195.199951171875</ele>
        <time>2020-08-09T13:15:56.000Z</time>
      </trkpt>
      <trkpt lat="42.3111496679484844207763671875" lon="2.22996644675731658935546875">
        <ele>1194.800048828125</ele>
        <time>2020-08-09T13:15:57.000Z</time>
      </trkpt>
      <trkpt lat="42.3111674375832080841064453125" lon="2.2299391217529773712158203125">
        <ele>1194</ele>
        <time>2020-08-09T13:15:59.000Z</time>
      </trkpt>
      <trkpt lat="42.3111912421882152557373046875" lon="2.22988757304847240447998046875">
        <ele>1193</ele>
        <time>2020-08-09T13:16:02.000Z</time>
      </trkpt>
      <trkpt lat="42.31119476258754730224609375" lon="2.2298734076321125030517578125">
        <ele>1192.5999755859375</ele>
        <time>2020-08-09T13:16:03.000Z</time>
      </trkpt>
      <trkpt lat="42.311214543879032135009765625" lon="2.2297976352274417877197265625">
        <ele>1191.5999755859375</ele>
        <time>2020-08-09T13:16:07.000Z</time>
      </trkpt>
      <trkpt lat="42.31121756136417388916015625" lon="2.22975916229188442230224609375">
        <ele>1191</ele>
        <time>2020-08-09T13:16:09.000Z</time>
      </trkpt>
      <trkpt lat="42.31121915392577648162841796875" lon="2.2297429852187633514404296875">
        <ele>1190.5999755859375</ele>
        <time>2020-08-09T13:16:10.000Z</time>
      </trkpt>
      <trkpt lat="42.3112247698009014129638671875" lon="2.22973183728754520416259765625">
        <ele>1190</ele>
        <time>2020-08-09T13:16:11.000Z</time>
      </trkpt>
      <trkpt lat="42.31123097240924835205078125" lon="2.22970451228320598602294921875">
        <ele>1189.4000244140625</ele>
        <time>2020-08-09T13:16:13.000Z</time>
      </trkpt>
      <trkpt lat="42.31123675592243671417236328125" lon="2.22969311289489269256591796875">
        <ele>1189</ele>
        <time>2020-08-09T13:16:14.000Z</time>
      </trkpt>
      <trkpt lat="42.3112492449581623077392578125" lon="2.22966193221509456634521484375">
        <ele>1188.4000244140625</ele>
        <time>2020-08-09T13:16:16.000Z</time>
      </trkpt>
      <trkpt lat="42.3112827725708484649658203125" lon="2.22954542376101016998291015625">
        <ele>1186.800048828125</ele>
        <time>2020-08-09T13:16:22.000Z</time>
      </trkpt>
      <trkpt lat="42.31130314059555530548095703125" lon="2.229480631649494171142578125">
        <ele>1185.5999755859375</ele>
        <time>2020-08-09T13:16:26.000Z</time>
      </trkpt>
      <trkpt lat="42.31130599044263362884521484375" lon="2.22946646623313426971435546875">
        <ele>1185.4000244140625</ele>
        <time>2020-08-09T13:16:27.000Z</time>
      </trkpt>
      <trkpt lat="42.31130850501358509063720703125" lon="2.22945271991193294525146484375">
        <ele>1185.199951171875</ele>
        <time>2020-08-09T13:16:28.000Z</time>
      </trkpt>
      <trkpt lat="42.3113469779491424560546875" lon="2.229385413229465484619140625">
        <ele>1184.800048828125</ele>
        <time>2020-08-09T13:16:34.000Z</time>
      </trkpt>
      <trkpt lat="42.31135544367134571075439453125" lon="2.22937711514532566070556640625">
        <ele>1184.5999755859375</ele>
        <time>2020-08-09T13:16:35.000Z</time>
      </trkpt>
      <trkpt lat="42.31138260103762149810791015625" lon="2.22935750149190425872802734375">
        <ele>1183.5999755859375</ele>
        <time>2020-08-09T13:16:38.000Z</time>
      </trkpt>
      <trkpt lat="42.3113954253494739532470703125" lon="2.2293527238070964813232421875">
        <ele>1183.4000244140625</ele>
        <time>2020-08-09T13:16:39.000Z</time>
      </trkpt>
      <trkpt lat="42.3114336468279361724853515625" lon="2.22935498692095279693603515625">
        <ele>1182.5999755859375</ele>
        <time>2020-08-09T13:16:42.000Z</time>
      </trkpt>
      <trkpt lat="42.31144487857818603515625" lon="2.22935113124549388885498046875">
        <ele>1182.199951171875</ele>
        <time>2020-08-09T13:16:43.000Z</time>
      </trkpt>
      <trkpt lat="42.31149592436850070953369140625" lon="2.22933076322078704833984375">
        <ele>1181.199951171875</ele>
        <time>2020-08-09T13:16:48.000Z</time>
      </trkpt>
      <trkpt lat="42.3115235008299350738525390625" lon="2.22930201329290866851806640625">
        <ele>1180.4000244140625</ele>
        <time>2020-08-09T13:16:52.000Z</time>
      </trkpt>
      <trkpt lat="42.3115360736846923828125" lon="2.22928382456302642822265625">
        <ele>1180.199951171875</ele>
        <time>2020-08-09T13:16:54.000Z</time>
      </trkpt>
      <trkpt lat="42.311543785035610198974609375" lon="2.2292769514024257659912109375">
        <ele>1180</ele>
        <time>2020-08-09T13:16:55.000Z</time>
      </trkpt>
      <trkpt lat="42.31157689355313777923583984375" lon="2.22922557033598423004150390625">
        <ele>1178.5999755859375</ele>
        <time>2020-08-09T13:17:00.000Z</time>
      </trkpt>
      <trkpt lat="42.31158561073243618011474609375" lon="2.2292176075279712677001953125">
        <ele>1178.4000244140625</ele>
        <time>2020-08-09T13:17:01.000Z</time>
      </trkpt>
      <trkpt lat="42.31160589493811130523681640625" lon="2.2291986644268035888671875">
        <ele>1178.199951171875</ele>
        <time>2020-08-09T13:17:03.000Z</time>
      </trkpt>
      <trkpt lat="42.3116648197174072265625" lon="2.22916739992797374725341796875">
        <ele>1177.4000244140625</ele>
        <time>2020-08-09T13:17:08.000Z</time>
      </trkpt>
      <trkpt lat="42.3116716928780078887939453125" lon="2.22916807048022747039794921875">
        <ele>1176.4000244140625</ele>
        <time>2020-08-09T13:17:13.000Z</time>
      </trkpt>
      <trkpt lat="42.31167378835380077362060546875" lon="2.22916446626186370849609375">
        <ele>1176.4000244140625</ele>
        <time>2020-08-09T13:17:14.000Z</time>
      </trkpt>
      <trkpt lat="42.31167756021022796630859375" lon="2.22916086204349994659423828125">
        <ele>1176.199951171875</ele>
        <time>2020-08-09T13:17:15.000Z</time>
      </trkpt>
      <trkpt lat="42.31171888299286365509033203125" lon="2.22912649624049663543701171875">
        <ele>1176</ele>
        <time>2020-08-09T13:17:17.000Z</time>
      </trkpt>
      <trkpt lat="42.31177621521055698394775390625" lon="2.22908643074333667755126953125">
        <ele>1175.199951171875</ele>
        <time>2020-08-09T13:17:19.000Z</time>
      </trkpt>
      <trkpt lat="42.31191954575479030609130859375" lon="2.2290147654712200164794921875">
        <ele>1174.4000244140625</ele>
        <time>2020-08-09T13:17:23.000Z</time>
      </trkpt>
      <trkpt lat="42.3119838349521160125732421875" lon="2.22897805273532867431640625">
        <ele>1174.199951171875</ele>
        <time>2020-08-09T13:17:25.000Z</time>
      </trkpt>
      <trkpt lat="42.31208802200853824615478515625" lon="2.22893119789659976959228515625">
        <ele>1173.199951171875</ele>
        <time>2020-08-09T13:17:28.000Z</time>
      </trkpt>
      <trkpt lat="42.31211584992706775665283203125" lon="2.22892264835536479949951171875">
        <ele>1173.199951171875</ele>
        <time>2020-08-09T13:17:29.000Z</time>
      </trkpt>
      <trkpt lat="42.3122520558536052703857421875" lon="2.22890672273933887481689453125">
        <ele>1172</ele>
        <time>2020-08-09T13:17:34.000Z</time>
      </trkpt>
      <trkpt lat="42.3122750222682952880859375" lon="2.22890504635870456695556640625">
        <ele>1171.5999755859375</ele>
        <time>2020-08-09T13:17:35.000Z</time>
      </trkpt>
      <trkpt lat="42.31230477802455425262451171875" lon="2.22888543270528316497802734375">
        <ele>1170.5999755859375</ele>
        <time>2020-08-09T13:17:38.000Z</time>
      </trkpt>
      <trkpt lat="42.31231399811804294586181640625" lon="2.2288612090051174163818359375">
        <ele>1170.5999755859375</ele>
        <time>2020-08-09T13:17:42.000Z</time>
      </trkpt>
      <trkpt lat="42.31232305057346820831298828125" lon="2.22881921567022800445556640625">
        <ele>1170.5999755859375</ele>
        <time>2020-08-09T13:17:44.000Z</time>
      </trkpt>
      <trkpt lat="42.31236797757446765899658203125" lon="2.22871192730963230133056640625">
        <ele>1169.199951171875</ele>
        <time>2020-08-09T13:17:49.000Z</time>
      </trkpt>
      <trkpt lat="42.312394045293331146240234375" lon="2.22867001779377460479736328125">
        <ele>1168.199951171875</ele>
        <time>2020-08-09T13:17:51.000Z</time>
      </trkpt>
      <trkpt lat="42.312438972294330596923828125" lon="2.228615283966064453125">
        <ele>1166.800048828125</ele>
        <time>2020-08-09T13:17:54.000Z</time>
      </trkpt>
      <trkpt lat="42.31245514936745166778564453125" lon="2.2285996936261653900146484375">
        <ele>1166.5999755859375</ele>
        <time>2020-08-09T13:17:55.000Z</time>
      </trkpt>
      <trkpt lat="42.312481217086315155029296875" lon="2.22857169806957244873046875">
        <ele>1165.5999755859375</ele>
        <time>2020-08-09T13:17:57.000Z</time>
      </trkpt>
      <trkpt lat="42.31251801364123821258544921875" lon="2.2285286150872707366943359375">
        <ele>1164.4000244140625</ele>
        <time>2020-08-09T13:18:00.000Z</time>
      </trkpt>
      <trkpt lat="42.31253175996243953704833984375" lon="2.228515036404132843017578125">
        <ele>1163.800048828125</ele>
        <time>2020-08-09T13:18:01.000Z</time>
      </trkpt>
      <trkpt lat="42.312552966177463531494140625" lon="2.228486537933349609375">
        <ele>1163.199951171875</ele>
        <time>2020-08-09T13:18:03.000Z</time>
      </trkpt>
      <trkpt lat="42.3126067779958248138427734375" lon="2.22841755487024784088134765625">
        <ele>1162</ele>
        <time>2020-08-09T13:18:09.000Z</time>
      </trkpt>
      <trkpt lat="42.3126600868999958038330078125" lon="2.22837447188794612884521484375">
        <ele>1160.800048828125</ele>
        <time>2020-08-09T13:18:15.000Z</time>
      </trkpt>
      <trkpt lat="42.31267441995441913604736328125" lon="2.2283428721129894256591796875">
        <ele>1159.800048828125</ele>
        <time>2020-08-09T13:18:18.000Z</time>
      </trkpt>
      <trkpt lat="42.3127026669681072235107421875" lon="2.2283019684255123138427734375">
        <ele>1158.800048828125</ele>
        <time>2020-08-09T13:18:22.000Z</time>
      </trkpt>
      <trkpt lat="42.3127211071550846099853515625" lon="2.228267602622509002685546875">
        <ele>1157.800048828125</ele>
        <time>2020-08-09T13:18:25.000Z</time>
      </trkpt>
      <trkpt lat="42.312725968658924102783203125" lon="2.2282560355961322784423828125">
        <ele>1157.5999755859375</ele>
        <time>2020-08-09T13:18:26.000Z</time>
      </trkpt>
      <trkpt lat="42.31273527257144451141357421875" lon="2.22824941389262676239013671875">
        <ele>1156.5999755859375</ele>
        <time>2020-08-09T13:18:29.000Z</time>
      </trkpt>
      <trkpt lat="42.3127368651330471038818359375" lon="2.22823197953402996063232421875">
        <ele>1156.4000244140625</ele>
        <time>2020-08-09T13:18:32.000Z</time>
      </trkpt>
      <trkpt lat="42.31276947073638439178466796875" lon="2.22815461456775665283203125">
        <ele>1155.4000244140625</ele>
        <time>2020-08-09T13:18:38.000Z</time>
      </trkpt>
      <trkpt lat="42.31277584098279476165771484375" lon="2.2281417064368724822998046875">
        <ele>1155.199951171875</ele>
        <time>2020-08-09T13:18:39.000Z</time>
      </trkpt>
      <trkpt lat="42.3128136433660984039306640625" lon="2.2280655987560749053955078125">
        <ele>1154.199951171875</ele>
        <time>2020-08-09T13:18:45.000Z</time>
      </trkpt>
      <trkpt lat="42.3128739930689334869384765625" lon="2.2280035726726055145263671875">
        <ele>1153.199951171875</ele>
        <time>2020-08-09T13:18:51.000Z</time>
      </trkpt>
      <trkpt lat="42.31288882903754711151123046875" lon="2.22799812443554401397705078125">
        <ele>1153</ele>
        <time>2020-08-09T13:18:52.000Z</time>
      </trkpt>
      <trkpt lat="42.3129021562635898590087890625" lon="2.22799778915941715240478515625">
        <ele>1152.5999755859375</ele>
        <time>2020-08-09T13:18:53.000Z</time>
      </trkpt>
      <trkpt lat="42.31292487122118473052978515625" lon="2.22800306975841522216796875">
        <ele>1152</ele>
        <time>2020-08-09T13:18:55.000Z</time>
      </trkpt>
      <trkpt lat="42.31294599361717700958251953125" lon="2.228017151355743408203125">
        <ele>1151.800048828125</ele>
        <time>2020-08-09T13:18:57.000Z</time>
      </trkpt>
      <trkpt lat="42.31297214515507221221923828125" lon="2.22804204560816287994384765625">
        <ele>1150.800048828125</ele>
        <time>2020-08-09T13:19:00.000Z</time>
      </trkpt>
      <trkpt lat="42.31299192644655704498291015625" lon="2.2280699573457241058349609375">
        <ele>1150.4000244140625</ele>
        <time>2020-08-09T13:19:03.000Z</time>
      </trkpt>
      <trkpt lat="42.31300768442451953887939453125" lon="2.2280776686966419219970703125">
        <ele>1150.199951171875</ele>
        <time>2020-08-09T13:19:05.000Z</time>
      </trkpt>
      <trkpt lat="42.3130389489233493804931640625" lon="2.228079177439212799072265625">
        <ele>1149.800048828125</ele>
        <time>2020-08-09T13:19:08.000Z</time>
      </trkpt>
      <trkpt lat="42.3130526952445507049560546875" lon="2.2280749864876270294189453125">
        <ele>1149.800048828125</ele>
        <time>2020-08-09T13:19:09.000Z</time>
      </trkpt>
      <trkpt lat="42.3130929283797740936279296875" lon="2.2280159778892993927001953125">
        <ele>1148.800048828125</ele>
        <time>2020-08-09T13:19:13.000Z</time>
      </trkpt>
      <trkpt lat="42.31310089118778705596923828125" lon="2.22800172865390777587890625">
        <ele>1148.800048828125</ele>
        <time>2020-08-09T13:19:14.000Z</time>
      </trkpt>
      <trkpt lat="42.3131043277680873870849609375" lon="2.22798320464789867401123046875">
        <ele>1148.5999755859375</ele>
        <time>2020-08-09T13:19:15.000Z</time>
      </trkpt>
      <trkpt lat="42.31310910545289516448974609375" lon="2.2279380261898040771484375">
        <ele>1148.199951171875</ele>
        <time>2020-08-09T13:19:18.000Z</time>
      </trkpt>
      <trkpt lat="42.31310156174004077911376953125" lon="2.22788647748529911041259765625">
        <ele>1148</ele>
        <time>2020-08-09T13:19:26.000Z</time>
      </trkpt>
      <trkpt lat="42.313065268099308013916015625" lon="2.22783115692436695098876953125">
        <ele>1147.800048828125</ele>
        <time>2020-08-09T13:19:34.000Z</time>
      </trkpt>
      <trkpt lat="42.31304925866425037384033203125" lon="2.2277058474719524383544921875">
        <ele>1148.199951171875</ele>
        <time>2020-08-09T13:19:40.000Z</time>
      </trkpt>
      <trkpt lat="42.313035093247890472412109375" lon="2.22750174812972545623779296875">
        <ele>1149.199951171875</ele>
        <time>2020-08-09T13:19:48.000Z</time>
      </trkpt>
      <trkpt lat="42.31303249485790729522705078125" lon="2.227322794497013092041015625">
        <ele>1149.199951171875</ele>
        <time>2020-08-09T13:19:54.000Z</time>
      </trkpt>
      <trkpt lat="42.313049174845218658447265625" lon="2.2272445075213909149169921875">
        <ele>1149.199951171875</ele>
        <time>2020-08-09T13:19:57.000Z</time>
      </trkpt>
      <trkpt lat="42.31307608075439929962158203125" lon="2.22717820666730403900146484375">
        <ele>1149</ele>
        <time>2020-08-09T13:20:00.000Z</time>
      </trkpt>
      <trkpt lat="42.3131117038428783416748046875" lon="2.22706454806029796600341796875">
        <ele>1149.199951171875</ele>
        <time>2020-08-09T13:20:04.000Z</time>
      </trkpt>
      <trkpt lat="42.31314850039780139923095703125" lon="2.22697620280086994171142578125">
        <ele>1149.800048828125</ele>
        <time>2020-08-09T13:20:08.000Z</time>
      </trkpt>
      <trkpt lat="42.3131566308438777923583984375" lon="2.22695558331906795501708984375">
        <ele>1150</ele>
        <time>2020-08-09T13:20:09.000Z</time>
      </trkpt>
      <trkpt lat="42.31319124810397624969482421875" lon="2.226797081530094146728515625">
        <ele>1150.800048828125</ele>
        <time>2020-08-09T13:20:15.000Z</time>
      </trkpt>
      <trkpt lat="42.31321739964187145233154296875" lon="2.2266182117164134979248046875">
        <ele>1150.800048828125</ele>
        <time>2020-08-09T13:20:21.000Z</time>
      </trkpt>
      <trkpt lat="42.3132471553981304168701171875" lon="2.226451076567173004150390625">
        <ele>1150.800048828125</ele>
        <time>2020-08-09T13:20:25.000Z</time>
      </trkpt>
      <trkpt lat="42.31325981207191944122314453125" lon="2.22627648152410984039306640625">
        <ele>1149.5999755859375</ele>
        <time>2020-08-09T13:20:29.000Z</time>
      </trkpt>
      <trkpt lat="42.313263416290283203125" lon="2.226236164569854736328125">
        <ele>1149.4000244140625</ele>
        <time>2020-08-09T13:20:30.000Z</time>
      </trkpt>
      <trkpt lat="42.3132552020251750946044921875" lon="2.2260122001171112060546875">
        <ele>1149.199951171875</ele>
        <time>2020-08-09T13:20:35.000Z</time>
      </trkpt>
      <trkpt lat="42.3132588900625705718994140625" lon="2.22585286013782024383544921875">
        <ele>1148.4000244140625</ele>
        <time>2020-08-09T13:20:39.000Z</time>
      </trkpt>
      <trkpt lat="42.31326702050864696502685546875" lon="2.22581497393548488616943359375">
        <ele>1148.199951171875</ele>
        <time>2020-08-09T13:20:40.000Z</time>
      </trkpt>
      <trkpt lat="42.3132947646081447601318359375" lon="2.22574540413916110992431640625">
        <ele>1147.199951171875</ele>
        <time>2020-08-09T13:20:42.000Z</time>
      </trkpt>
      <trkpt lat="42.31333223171532154083251953125" lon="2.2256398759782314300537109375">
        <ele>1146</ele>
        <time>2020-08-09T13:20:45.000Z</time>
      </trkpt>
      <trkpt lat="42.3133665136992931365966796875" lon="2.2255500219762325286865234375">
        <ele>1145</ele>
        <time>2020-08-09T13:20:49.000Z</time>
      </trkpt>
      <trkpt lat="42.31337539851665496826171875" lon="2.22553602419793605804443359375">
        <ele>1144.5999755859375</ele>
        <time>2020-08-09T13:20:50.000Z</time>
      </trkpt>
      <trkpt lat="42.31338679790496826171875" lon="2.2255159914493560791015625">
        <ele>1143.800048828125</ele>
        <time>2020-08-09T13:20:54.000Z</time>
      </trkpt>
      <trkpt lat="42.31338704936206340789794921875" lon="2.22551339305937290191650390625">
        <ele>1143.800048828125</ele>
        <time>2020-08-09T13:20:55.000Z</time>
      </trkpt>
      <trkpt lat="42.3133889771997928619384765625" lon="2.225509621202945709228515625">
        <ele>1143.800048828125</ele>
        <time>2020-08-09T13:20:56.000Z</time>
      </trkpt>
      <trkpt lat="42.31341403909027576446533203125" lon="2.22547768615186214447021484375">
        <ele>1143.199951171875</ele>
        <time>2020-08-09T13:21:00.000Z</time>
      </trkpt>
      <trkpt lat="42.3134318925440311431884765625" lon="2.2254514507949352264404296875">
        <ele>1142.800048828125</ele>
        <time>2020-08-09T13:21:03.000Z</time>
      </trkpt>
      <trkpt lat="42.3134375922381877899169921875" lon="2.22539671696722507476806640625">
        <ele>1142</ele>
        <time>2020-08-09T13:21:09.000Z</time>
      </trkpt>
      <trkpt lat="42.3134379275143146514892578125" lon="2.2253917716443538665771484375">
        <ele>1141.800048828125</ele>
        <time>2020-08-09T13:21:11.000Z</time>
      </trkpt>
      <trkpt lat="42.31344102881848812103271484375" lon="2.2253726609051227569580078125">
        <ele>1141.5999755859375</ele>
        <time>2020-08-09T13:21:15.000Z</time>
      </trkpt>
      <trkpt lat="42.31344019062817096710205078125" lon="2.22535044886171817779541015625">
        <ele>1141.5999755859375</ele>
        <time>2020-08-09T13:21:16.000Z</time>
      </trkpt>
      <trkpt lat="42.313403226435184478759765625" lon="2.22518582828342914581298828125">
        <ele>1140.800048828125</ele>
        <time>2020-08-09T13:21:21.000Z</time>
      </trkpt>
      <trkpt lat="42.31336760334670543670654296875" lon="2.22506680525839328765869140625">
        <ele>1140.4000244140625</ele>
        <time>2020-08-09T13:21:24.000Z</time>
      </trkpt>
      <trkpt lat="42.313362993299961090087890625" lon="2.225029505789279937744140625">
        <ele>1140.4000244140625</ele>
        <time>2020-08-09T13:21:25.000Z</time>
      </trkpt>
      <trkpt lat="42.3133782483637332916259765625" lon="2.22487117163836956024169921875">
        <ele>1140.4000244140625</ele>
        <time>2020-08-09T13:21:30.000Z</time>
      </trkpt>
      <trkpt lat="42.31337112374603748321533203125" lon="2.2247024439275264739990234375">
        <ele>1141.4000244140625</ele>
        <time>2020-08-09T13:21:37.000Z</time>
      </trkpt>
      <trkpt lat="42.31334983371198177337646484375" lon="2.22453824244439601898193359375">
        <ele>1141.4000244140625</ele>
        <time>2020-08-09T13:21:42.000Z</time>
      </trkpt>
      <trkpt lat="42.31323030777275562286376953125" lon="2.22431913949549198150634765625">
        <ele>1139.4000244140625</ele>
        <time>2020-08-09T13:21:48.000Z</time>
      </trkpt>
      <trkpt lat="42.313187308609485626220703125" lon="2.22422844730317592620849609375">
        <ele>1137.800048828125</ele>
        <time>2020-08-09T13:21:50.000Z</time>
      </trkpt>
      <trkpt lat="42.31313911266624927520751953125" lon="2.22412719391286373138427734375">
        <ele>1137</ele>
        <time>2020-08-09T13:21:52.000Z</time>
      </trkpt>
      <trkpt lat="42.31309535913169384002685546875" lon="2.22400984726846218109130859375">
        <ele>1136.4000244140625</ele>
        <time>2020-08-09T13:21:54.000Z</time>
      </trkpt>
      <trkpt lat="42.31299527920782566070556640625" lon="2.22363643348217010498046875">
        <ele>1136.199951171875</ele>
        <time>2020-08-09T13:22:00.000Z</time>
      </trkpt>
      <trkpt lat="42.3129692114889621734619140625" lon="2.223529480397701263427734375">
        <ele>1135.800048828125</ele>
        <time>2020-08-09T13:22:02.000Z</time>
      </trkpt>
      <trkpt lat="42.3129403777420520782470703125" lon="2.223432920873165130615234375">
        <ele>1135.800048828125</ele>
        <time>2020-08-09T13:22:04.000Z</time>
      </trkpt>
      <trkpt lat="42.31290542520582675933837890625" lon="2.22329889424145221710205078125">
        <ele>1136.5999755859375</ele>
        <time>2020-08-09T13:22:08.000Z</time>
      </trkpt>
      <trkpt lat="42.31289335526525974273681640625" lon="2.2232671268284320831298828125">
        <ele>1136.800048828125</ele>
        <time>2020-08-09T13:22:09.000Z</time>
      </trkpt>
      <trkpt lat="42.31283937580883502960205078125" lon="2.2231663763523101806640625">
        <ele>1137</ele>
        <time>2020-08-09T13:22:13.000Z</time>
      </trkpt>
      <trkpt lat="42.31282956898212432861328125" lon="2.22313754260540008544921875">
        <ele>1137.199951171875</ele>
        <time>2020-08-09T13:22:14.000Z</time>
      </trkpt>
      <trkpt lat="42.31277500279247760772705078125" lon="2.2229848243296146392822265625">
        <ele>1137</ele>
        <time>2020-08-09T13:22:19.000Z</time>
      </trkpt>
      <trkpt lat="42.3127335123717784881591796875" lon="2.2228322736918926239013671875">
        <ele>1137.199951171875</ele>
        <time>2020-08-09T13:22:24.000Z</time>
      </trkpt>
      <trkpt lat="42.31271649710834026336669921875" lon="2.2226728498935699462890625">
        <ele>1137</ele>
        <time>2020-08-09T13:22:28.000Z</time>
      </trkpt>
      <trkpt lat="42.3127177543938159942626953125" lon="2.22247746773064136505126953125">
        <ele>1136.5999755859375</ele>
        <time>2020-08-09T13:22:33.000Z</time>
      </trkpt>
      <trkpt lat="42.312774248421192169189453125" lon="2.222264148294925689697265625">
        <ele>1135.199951171875</ele>
        <time>2020-08-09T13:22:39.000Z</time>
      </trkpt>
      <trkpt lat="42.31284893117845058441162109375" lon="2.22212526015937328338623046875">
        <ele>1134.199951171875</ele>
        <time>2020-08-09T13:22:43.000Z</time>
      </trkpt>
      <trkpt lat="42.3128879070281982421875" lon="2.2220614738762378692626953125">
        <ele>1133.4000244140625</ele>
        <time>2020-08-09T13:22:45.000Z</time>
      </trkpt>
      <trkpt lat="42.31290332973003387451171875" lon="2.2220279462635517120361328125">
        <ele>1133.199951171875</ele>
        <time>2020-08-09T13:22:46.000Z</time>
      </trkpt>
      <trkpt lat="42.3129467479884624481201171875" lon="2.22187262959778308868408203125">
        <ele>1131.800048828125</ele>
        <time>2020-08-09T13:22:50.000Z</time>
      </trkpt>
      <trkpt lat="42.31295437552034854888916015625" lon="2.22183776088058948516845703125">
        <ele>1131.4000244140625</ele>
        <time>2020-08-09T13:22:51.000Z</time>
      </trkpt>
      <trkpt lat="42.312966696918010711669921875" lon="2.2218123637139797210693359375">
        <ele>1130.800048828125</ele>
        <time>2020-08-09T13:22:52.000Z</time>
      </trkpt>
      <trkpt lat="42.31298102997243404388427734375" lon="2.221791744232177734375">
        <ele>1130.5999755859375</ele>
        <time>2020-08-09T13:22:53.000Z</time>
      </trkpt>
      <trkpt lat="42.313000895082950592041015625" lon="2.2217694483697414398193359375">
        <ele>1130.199951171875</ele>
        <time>2020-08-09T13:22:55.000Z</time>
      </trkpt>
      <trkpt lat="42.3129940219223499298095703125" lon="2.221761904656887054443359375">
        <ele>1130.199951171875</ele>
        <time>2020-08-09T13:23:02.000Z</time>
      </trkpt>
      <trkpt lat="42.31300449930131435394287109375" lon="2.221749834716320037841796875">
        <ele>1130.199951171875</ele>
        <time>2020-08-09T13:23:12.000Z</time>
      </trkpt>
      <trkpt lat="42.31300684623420238494873046875" lon="2.2217439673840999603271484375">
        <ele>1130.199951171875</ele>
        <time>2020-08-09T13:23:28.000Z</time>
      </trkpt>
      <trkpt lat="42.313006259500980377197265625" lon="2.22174304537475109100341796875">
        <ele>1129.5999755859375</ele>
        <time>2020-08-09T13:23:48.000Z</time>
      </trkpt>
      <trkpt lat="42.3130060918629169464111328125" lon="2.22174388356506824493408203125">
        <ele>1129.800048828125</ele>
        <time>2020-08-09T13:23:59.000Z</time>
      </trkpt>
      <trkpt lat="42.31301187537610530853271484375" lon="2.22174237482249736785888671875">
        <ele>1129.5999755859375</ele>
        <time>2020-08-09T13:24:07.000Z</time>
      </trkpt>
      <trkpt lat="42.31307473964989185333251953125" lon="2.22170054912567138671875">
        <ele>1129.800048828125</ele>
        <time>2020-08-09T13:24:13.000Z</time>
      </trkpt>
      <trkpt lat="42.3131257854402065277099609375" lon="2.22167280502617359161376953125">
        <ele>1130.199951171875</ele>
        <time>2020-08-09T13:24:16.000Z</time>
      </trkpt>
      <trkpt lat="42.31316350400447845458984375" lon="2.2216567955911159515380859375">
        <ele>1130.5999755859375</ele>
        <time>2020-08-09T13:24:18.000Z</time>
      </trkpt>
      <trkpt lat="42.31318135745823383331298828125" lon="2.22164983861148357391357421875">
        <ele>1131</ele>
        <time>2020-08-09T13:24:19.000Z</time>
      </trkpt>
      <trkpt lat="42.3131978698074817657470703125" lon="2.2216450609266757965087890625">
        <ele>1131.199951171875</ele>
        <time>2020-08-09T13:24:20.000Z</time>
      </trkpt>
      <trkpt lat="42.31324321590363979339599609375" lon="2.2216380201280117034912109375">
        <ele>1131.5999755859375</ele>
        <time>2020-08-09T13:24:23.000Z</time>
      </trkpt>
      <trkpt lat="42.313277162611484527587890625" lon="2.221639193594455718994140625">
        <ele>1132</ele>
        <time>2020-08-09T13:24:25.000Z</time>
      </trkpt>
      <trkpt lat="42.3133101873099803924560546875" lon="2.2216410376131534576416015625">
        <ele>1132.199951171875</ele>
        <time>2020-08-09T13:24:27.000Z</time>
      </trkpt>
      <trkpt lat="42.31334379874169826507568359375" lon="2.221620082855224609375">
        <ele>1132.4000244140625</ele>
        <time>2020-08-09T13:24:29.000Z</time>
      </trkpt>
      <trkpt lat="42.31336626224219799041748046875" lon="2.22158722579479217529296875">
        <ele>1132.800048828125</ele>
        <time>2020-08-09T13:24:31.000Z</time>
      </trkpt>
      <trkpt lat="42.3133698664605617523193359375" lon="2.2215401194989681243896484375">
        <ele>1132.800048828125</ele>
        <time>2020-08-09T13:24:33.000Z</time>
      </trkpt>
      <trkpt lat="42.313357628881931304931640625" lon="2.2214945219457149505615234375">
        <ele>1132.800048828125</ele>
        <time>2020-08-09T13:24:35.000Z</time>
      </trkpt>
      <trkpt lat="42.313326112926006317138671875" lon="2.221440039575099945068359375">
        <ele>1133</ele>
        <time>2020-08-09T13:24:38.000Z</time>
      </trkpt>
      <trkpt lat="42.31331479735672473907470703125" lon="2.22141950391232967376708984375">
        <ele>1133.199951171875</ele>
        <time>2020-08-09T13:24:39.000Z</time>
      </trkpt>
      <trkpt lat="42.3132588900625705718994140625" lon="2.221326045691967010498046875">
        <ele>1133.5999755859375</ele>
        <time>2020-08-09T13:24:43.000Z</time>
      </trkpt>
      <trkpt lat="42.3132327385246753692626953125" lon="2.22128572873771190643310546875">
        <ele>1133.800048828125</ele>
        <time>2020-08-09T13:24:45.000Z</time>
      </trkpt>
      <trkpt lat="42.31318035162985324859619140625" lon="2.2211949527263641357421875">
        <ele>1134.199951171875</ele>
        <time>2020-08-09T13:24:49.000Z</time>
      </trkpt>
      <trkpt lat="42.31315235607326030731201171875" lon="2.221155054867267608642578125">
        <ele>1134.199951171875</ele>
        <time>2020-08-09T13:24:51.000Z</time>
      </trkpt>
      <trkpt lat="42.31309602968394756317138671875" lon="2.2210817970335483551025390625">
        <ele>1135</ele>
        <time>2020-08-09T13:24:55.000Z</time>
      </trkpt>
      <trkpt lat="42.3130758292973041534423828125" lon="2.22104215063154697418212890625">
        <ele>1135.199951171875</ele>
        <time>2020-08-09T13:24:57.000Z</time>
      </trkpt>
      <trkpt lat="42.313020341098308563232421875" lon="2.22094290889799594879150390625">
        <ele>1136.199951171875</ele>
        <time>2020-08-09T13:25:02.000Z</time>
      </trkpt>
      <trkpt lat="42.31300500221550464630126953125" lon="2.2208994068205356597900390625">
        <ele>1136.4000244140625</ele>
        <time>2020-08-09T13:25:04.000Z</time>
      </trkpt>
      <trkpt lat="42.3129923455417156219482421875" lon="2.22081265412271022796630859375">
        <ele>1137.4000244140625</ele>
        <time>2020-08-09T13:25:08.000Z</time>
      </trkpt>
      <trkpt lat="42.312990166246891021728515625" lon="2.2207899391651153564453125">
        <ele>1137.5999755859375</ele>
        <time>2020-08-09T13:25:09.000Z</time>
      </trkpt>
      <trkpt lat="42.31301103718578815460205078125" lon="2.22065708599984645843505859375">
        <ele>1138.4000244140625</ele>
        <time>2020-08-09T13:25:15.000Z</time>
      </trkpt>
      <trkpt lat="42.31301388703286647796630859375" lon="2.22063948400318622589111328125">
        <ele>1138.4000244140625</ele>
        <time>2020-08-09T13:25:16.000Z</time>
      </trkpt>
      <trkpt lat="42.31302595697343349456787109375" lon="2.2205637954175472259521484375">
        <ele>1139.199951171875</ele>
        <time>2020-08-09T13:25:20.000Z</time>
      </trkpt>
      <trkpt lat="42.31303484179079532623291015625" lon="2.22051945514976978302001953125">
        <ele>1139.5999755859375</ele>
        <time>2020-08-09T13:25:22.000Z</time>
      </trkpt>
      <trkpt lat="42.3130761645734310150146484375" lon="2.22038182429969310760498046875">
        <ele>1140.5999755859375</ele>
        <time>2020-08-09T13:25:28.000Z</time>
      </trkpt>
      <trkpt lat="42.31309854425489902496337890625" lon="2.2203126735985279083251953125">
        <ele>1140.800048828125</ele>
        <time>2020-08-09T13:25:31.000Z</time>
      </trkpt>
      <trkpt lat="42.31311128474771976470947265625" lon="2.22026632167398929595947265625">
        <ele>1141.4000244140625</ele>
        <time>2020-08-09T13:25:33.000Z</time>
      </trkpt>
      <trkpt lat="42.3131172358989715576171875" lon="2.2202405892312526702880859375">
        <ele>1141.4000244140625</ele>
        <time>2020-08-09T13:25:34.000Z</time>
      </trkpt>
      <trkpt lat="42.31313978321850299835205078125" lon="2.22016699612140655517578125">
        <ele>1141.800048828125</ele>
        <time>2020-08-09T13:25:37.000Z</time>
      </trkpt>
      <trkpt lat="42.31314883567392826080322265625" lon="2.22008158452808856964111328125">
        <ele>1142</ele>
        <time>2020-08-09T13:25:40.000Z</time>
      </trkpt>
      <trkpt lat="42.313188649713993072509765625" lon="2.2199324704706668853759765625">
        <ele>1142.5999755859375</ele>
        <time>2020-08-09T13:25:46.000Z</time>
      </trkpt>
      <trkpt lat="42.3132035695016384124755859375" lon="2.21988695673644542694091796875">
        <ele>1142.800048828125</ele>
        <time>2020-08-09T13:25:48.000Z</time>
      </trkpt>
      <trkpt lat="42.31320868246257305145263671875" lon="2.21986499615013599395751953125">
        <ele>1142.800048828125</ele>
        <time>2020-08-09T13:25:49.000Z</time>
      </trkpt>
      <trkpt lat="42.3132203333079814910888671875" lon="2.21979408524930477142333984375">
        <ele>1143.4000244140625</ele>
        <time>2020-08-09T13:25:52.000Z</time>
      </trkpt>
      <trkpt lat="42.31322343461215496063232421875" lon="2.21972384490072727203369140625">
        <ele>1143.800048828125</ele>
        <time>2020-08-09T13:25:55.000Z</time>
      </trkpt>
      <trkpt lat="42.31322460807859897613525390625" lon="2.21962518990039825439453125">
        <ele>1144.4000244140625</ele>
        <time>2020-08-09T13:25:59.000Z</time>
      </trkpt>
      <trkpt lat="42.31323282234370708465576171875" lon="2.21952100284397602081298828125">
        <ele>1144.800048828125</ele>
        <time>2020-08-09T13:26:03.000Z</time>
      </trkpt>
      <trkpt lat="42.31323801912367343902587890625" lon="2.21942360512912273406982421875">
        <ele>1145.199951171875</ele>
        <time>2020-08-09T13:26:07.000Z</time>
      </trkpt>
      <trkpt lat="42.3132397793233394622802734375" lon="2.21930324099957942962646484375">
        <ele>1146.199951171875</ele>
        <time>2020-08-09T13:26:12.000Z</time>
      </trkpt>
      <trkpt lat="42.31324103660881519317626953125" lon="2.219251692295074462890625">
        <ele>1146.5999755859375</ele>
        <time>2020-08-09T13:26:14.000Z</time>
      </trkpt>
      <trkpt lat="42.3132406175136566162109375" lon="2.21917265094816684722900390625">
        <ele>1147.199951171875</ele>
        <time>2020-08-09T13:26:17.000Z</time>
      </trkpt>
      <trkpt lat="42.3132495023310184478759765625" lon="2.21904851496219635009765625">
        <ele>1148</ele>
        <time>2020-08-09T13:26:22.000Z</time>
      </trkpt>
      <trkpt lat="42.313255034387111663818359375" lon="2.218997217714786529541015625">
        <ele>1148.199951171875</ele>
        <time>2020-08-09T13:26:24.000Z</time>
      </trkpt>
      <trkpt lat="42.31326752342283725738525390625" lon="2.21887827850878238677978515625">
        <ele>1149.199951171875</ele>
        <time>2020-08-09T13:26:29.000Z</time>
      </trkpt>
      <trkpt lat="42.31326936744153499603271484375" lon="2.2188533842563629150390625">
        <ele>1149.4000244140625</ele>
        <time>2020-08-09T13:26:30.000Z</time>
      </trkpt>
      <trkpt lat="42.3132781684398651123046875" lon="2.21867308951914310455322265625">
        <ele>1150.4000244140625</ele>
        <time>2020-08-09T13:26:37.000Z</time>
      </trkpt>
      <trkpt lat="42.31327724643051624298095703125" lon="2.21864593215286731719970703125">
        <ele>1150.5999755859375</ele>
        <time>2020-08-09T13:26:38.000Z</time>
      </trkpt>
      <trkpt lat="42.31326433829963207244873046875" lon="2.21842532046139240264892578125">
        <ele>1151.5999755859375</ele>
        <time>2020-08-09T13:26:46.000Z</time>
      </trkpt>
      <trkpt lat="42.31324740685522556304931640625" lon="2.2181876935064792633056640625">
        <ele>1152.5999755859375</ele>
        <time>2020-08-09T13:26:55.000Z</time>
      </trkpt>
      <trkpt lat="42.3132459819316864013671875" lon="2.21816179342567920684814453125">
        <ele>1153</ele>
        <time>2020-08-09T13:26:56.000Z</time>
      </trkpt>
      <trkpt lat="42.31323198415338993072509765625" lon="2.217967249453067779541015625">
        <ele>1153.5999755859375</ele>
        <time>2020-08-09T13:27:03.000Z</time>
      </trkpt>
      <trkpt lat="42.31323449872434139251708984375" lon="2.21787295304238796234130859375">
        <ele>1153.800048828125</ele>
        <time>2020-08-09T13:27:06.000Z</time>
      </trkpt>
      <trkpt lat="42.313253693282604217529296875" lon="2.21764437854290008544921875">
        <ele>1154.4000244140625</ele>
        <time>2020-08-09T13:27:14.000Z</time>
      </trkpt>
      <trkpt lat="42.3132701218128204345703125" lon="2.2175846993923187255859375">
        <ele>1154.800048828125</ele>
        <time>2020-08-09T13:27:17.000Z</time>
      </trkpt>
      <trkpt lat="42.31329090893268585205078125" lon="2.2175328992307186126708984375">
        <ele>1155.4000244140625</ele>
        <time>2020-08-09T13:27:21.000Z</time>
      </trkpt>
      <trkpt lat="42.31328898109495639801025390625" lon="2.21750448457896709442138671875">
        <ele>1155.5999755859375</ele>
        <time>2020-08-09T13:27:26.000Z</time>
      </trkpt>
      <trkpt lat="42.31328495778143405914306640625" lon="2.2174908220767974853515625">
        <ele>1155.4000244140625</ele>
        <time>2020-08-09T13:27:27.000Z</time>
      </trkpt>
      <trkpt lat="42.31328152120113372802734375" lon="2.21743114292621612548828125">
        <ele>1155.4000244140625</ele>
        <time>2020-08-09T13:27:30.000Z</time>
      </trkpt>
      <trkpt lat="42.31328831054270267486572265625" lon="2.21736668609082698822021484375">
        <ele>1155.4000244140625</ele>
        <time>2020-08-09T13:27:33.000Z</time>
      </trkpt>
      <trkpt lat="42.3132971115410327911376953125" lon="2.217275910079479217529296875">
        <ele>1156</ele>
        <time>2020-08-09T13:27:37.000Z</time>
      </trkpt>
      <trkpt lat="42.3133142106235027313232421875" lon="2.21715009771287441253662109375">
        <ele>1156.4000244140625</ele>
        <time>2020-08-09T13:27:42.000Z</time>
      </trkpt>
      <trkpt lat="42.3133289627730846405029296875" lon="2.21699050627648830413818359375">
        <ele>1157.199951171875</ele>
        <time>2020-08-09T13:27:48.000Z</time>
      </trkpt>
      <trkpt lat="42.3133323155343532562255859375" lon="2.21696586348116397857666015625">
        <ele>1157.199951171875</ele>
        <time>2020-08-09T13:27:49.000Z</time>
      </trkpt>
      <trkpt lat="42.31335670687258243560791015625" lon="2.21671675331890583038330078125">
        <ele>1158.199951171875</ele>
        <time>2020-08-09T13:27:58.000Z</time>
      </trkpt>
      <trkpt lat="42.31337933801114559173583984375" lon="2.2164603509008884429931640625">
        <ele>1158.4000244140625</ele>
        <time>2020-08-09T13:28:07.000Z</time>
      </trkpt>
      <trkpt lat="42.3133487440645694732666015625" lon="2.21628491766750812530517578125">
        <ele>1158.800048828125</ele>
        <time>2020-08-09T13:28:13.000Z</time>
      </trkpt>
      <trkpt lat="42.313255704939365386962890625" lon="2.2160754539072513580322265625">
        <ele>1158.4000244140625</ele>
        <time>2020-08-09T13:28:18.000Z</time>
      </trkpt>
      <trkpt lat="42.31306166388094425201416015625" lon="2.2158327139914035797119140625">
        <ele>1157.4000244140625</ele>
        <time>2020-08-09T13:28:23.000Z</time>
      </trkpt>
      <trkpt lat="42.3130201734602451324462890625" lon="2.21578820608556270599365234375">
        <ele>1157</ele>
        <time>2020-08-09T13:28:24.000Z</time>
      </trkpt>
      <trkpt lat="42.312884889543056488037109375" lon="2.21565007232129573822021484375">
        <ele>1156.800048828125</ele>
        <time>2020-08-09T13:28:28.000Z</time>
      </trkpt>
      <trkpt lat="42.31279604136943817138671875" lon="2.21555217169225215911865234375">
        <ele>1158</ele>
        <time>2020-08-09T13:28:32.000Z</time>
      </trkpt>
      <trkpt lat="42.31276092119514942169189453125" lon="2.21550540067255496978759765625">
        <ele>1158.4000244140625</ele>
        <time>2020-08-09T13:28:34.000Z</time>
      </trkpt>
      <trkpt lat="42.31269277632236480712890625" lon="2.2154169715940952301025390625">
        <ele>1159.199951171875</ele>
        <time>2020-08-09T13:28:38.000Z</time>
      </trkpt>
      <trkpt lat="42.312618009746074676513671875" lon="2.21531529910862445831298828125">
        <ele>1160</ele>
        <time>2020-08-09T13:28:43.000Z</time>
      </trkpt>
      <trkpt lat="42.31260292232036590576171875" lon="2.21529551781713962554931640625">
        <ele>1160.4000244140625</ele>
        <time>2020-08-09T13:28:44.000Z</time>
      </trkpt>
      <trkpt lat="42.31252438388764858245849609375" lon="2.215154282748699188232421875">
        <ele>1161.5999755859375</ele>
        <time>2020-08-09T13:28:50.000Z</time>
      </trkpt>
      <trkpt lat="42.31251616962254047393798828125" lon="2.2151339985430240631103515625">
        <ele>1161.800048828125</ele>
        <time>2020-08-09T13:28:51.000Z</time>
      </trkpt>
      <trkpt lat="42.31248834170401096343994140625" lon="2.21509183757007122039794921875">
        <ele>1162.5999755859375</ele>
        <time>2020-08-09T13:28:54.000Z</time>
      </trkpt>
      <trkpt lat="42.31246101669967174530029296875" lon="2.21506283618509769439697265625">
        <ele>1162.5999755859375</ele>
        <time>2020-08-09T13:28:56.000Z</time>
      </trkpt>
      <trkpt lat="42.31237233616411685943603515625" lon="2.21495990641415119171142578125">
        <ele>1161.4000244140625</ele>
        <time>2020-08-09T13:29:01.000Z</time>
      </trkpt>
      <trkpt lat="42.3123496212065219879150390625" lon="2.21491388976573944091796875">
        <ele>1161</ele>
        <time>2020-08-09T13:29:03.000Z</time>
      </trkpt>
      <trkpt lat="42.3123367130756378173828125" lon="2.21487256698310375213623046875">
        <ele>1160.4000244140625</ele>
        <time>2020-08-09T13:29:05.000Z</time>
      </trkpt>
      <trkpt lat="42.3123321868479251861572265625" lon="2.21484490670263767242431640625">
        <ele>1159.4000244140625</ele>
        <time>2020-08-09T13:29:08.000Z</time>
      </trkpt>
      <trkpt lat="42.31233444996178150177001953125" lon="2.21484557725489139556884765625">
        <ele>1159</ele>
        <time>2020-08-09T13:29:18.000Z</time>
      </trkpt>
      <trkpt lat="42.3123385570943355560302734375" lon="2.21484507434070110321044921875">
        <ele>1159.199951171875</ele>
        <time>2020-08-09T13:29:24.000Z</time>
      </trkpt>
      <trkpt lat="42.31233797036111354827880859375" lon="2.21484289504587650299072265625">
        <ele>1159.800048828125</ele>
        <time>2020-08-09T13:29:48.000Z</time>
      </trkpt>
      <trkpt lat="42.31234903447329998016357421875" lon="2.21480031497776508331298828125">
        <ele>1160</ele>
        <time>2020-08-09T13:29:58.000Z</time>
      </trkpt>
      <trkpt lat="42.31235506944358348846435546875" lon="2.21475270576775074005126953125">
        <ele>1160.4000244140625</ele>
        <time>2020-08-09T13:30:03.000Z</time>
      </trkpt>
      <trkpt lat="42.31235708110034465789794921875" lon="2.21471607685089111328125">
        <ele>1161</ele>
        <time>2020-08-09T13:30:07.000Z</time>
      </trkpt>
      <trkpt lat="42.31235825456678867340087890625" lon="2.214717082679271697998046875">
        <ele>1161.4000244140625</ele>
        <time>2020-08-09T13:30:11.000Z</time>
      </trkpt>
      <trkpt lat="42.312358506023883819580078125" lon="2.2147169150412082672119140625">
        <ele>1161.5999755859375</ele>
        <time>2020-08-09T13:30:13.000Z</time>
      </trkpt>
      <trkpt lat="42.31236093677580356597900390625" lon="2.21470459364354610443115234375">
        <ele>1161.4000244140625</ele>
        <time>2020-08-09T13:30:24.000Z</time>
      </trkpt>
      <trkpt lat="42.3123844899237155914306640625" lon="2.21462245099246501922607421875">
        <ele>1162</ele>
        <time>2020-08-09T13:30:33.000Z</time>
      </trkpt>
      <trkpt lat="42.31239211745560169219970703125" lon="2.21458154730498790740966796875">
        <ele>1162.199951171875</ele>
        <time>2020-08-09T13:30:40.000Z</time>
      </trkpt>
      <trkpt lat="42.31238742358982563018798828125" lon="2.2145522944629192352294921875">
        <ele>1162.199951171875</ele>
        <time>2020-08-09T13:30:48.000Z</time>
      </trkpt>
      <trkpt lat="42.31235154904425144195556640625" lon="2.2144906036555767059326171875">
        <ele>1161.800048828125</ele>
        <time>2020-08-09T13:30:53.000Z</time>
      </trkpt>
      <trkpt lat="42.312309555709362030029296875" lon="2.2143702395260334014892578125">
        <ele>1161.199951171875</ele>
        <time>2020-08-09T13:30:58.000Z</time>
      </trkpt>
      <trkpt lat="42.31230318546295166015625" lon="2.21423822455108165740966796875">
        <ele>1160.5999755859375</ele>
        <time>2020-08-09T13:31:03.000Z</time>
      </trkpt>
      <trkpt lat="42.31229254044592380523681640625" lon="2.21405969001352787017822265625">
        <ele>1160</ele>
        <time>2020-08-09T13:31:09.000Z</time>
      </trkpt>
      <trkpt lat="42.31228365562856197357177734375" lon="2.2139959037303924560546875">
        <ele>1159.5999755859375</ele>
        <time>2020-08-09T13:31:13.000Z</time>
      </trkpt>
      <trkpt lat="42.3122869245707988739013671875" lon="2.2139927186071872711181640625">
        <ele>1159.199951171875</ele>
        <time>2020-08-09T13:31:15.000Z</time>
      </trkpt>
      <trkpt lat="42.3122882656753063201904296875" lon="2.213982157409191131591796875">
        <ele>1159.199951171875</ele>
        <time>2020-08-09T13:31:28.000Z</time>
      </trkpt>
      <trkpt lat="42.31229404918849468231201171875" lon="2.213980145752429962158203125">
        <ele>1159.199951171875</ele>
        <time>2020-08-09T13:31:44.000Z</time>
      </trkpt>
      <trkpt lat="42.312326319515705108642578125" lon="2.213966734707355499267578125">
        <ele>1159.4000244140625</ele>
        <time>2020-08-09T13:31:50.000Z</time>
      </trkpt>
      <trkpt lat="42.312332354485988616943359375" lon="2.21395768225193023681640625">
        <ele>1159.4000244140625</ele>
        <time>2020-08-09T13:31:51.000Z</time>
      </trkpt>
      <trkpt lat="42.31234014965593814849853515625" lon="2.21395491622388362884521484375">
        <ele>1159.5999755859375</ele>
        <time>2020-08-09T13:31:57.000Z</time>
      </trkpt>
      <trkpt lat="42.31234073638916015625" lon="2.213953994214534759521484375">
        <ele>1159.4000244140625</ele>
        <time>2020-08-09T13:32:18.000Z</time>
      </trkpt>
      <trkpt lat="42.312366552650928497314453125" lon="2.2138832509517669677734375">
        <ele>1159.5999755859375</ele>
        <time>2020-08-09T13:32:25.000Z</time>
      </trkpt>
      <trkpt lat="42.31240116991102695465087890625" lon="2.21374402754008769989013671875">
        <ele>1159.800048828125</ele>
        <time>2020-08-09T13:32:31.000Z</time>
      </trkpt>
      <trkpt lat="42.312406115233898162841796875" lon="2.2137218154966831207275390625">
        <ele>1160.199951171875</ele>
        <time>2020-08-09T13:32:32.000Z</time>
      </trkpt>
      <trkpt lat="42.31245866976678371429443359375" lon="2.21359700895845890045166015625">
        <ele>1160.800048828125</ele>
        <time>2020-08-09T13:32:38.000Z</time>
      </trkpt>
      <trkpt lat="42.312472499907016754150390625" lon="2.2135548479855060577392578125">
        <ele>1160.800048828125</ele>
        <time>2020-08-09T13:32:40.000Z</time>
      </trkpt>
      <trkpt lat="42.31249068863689899444580078125" lon="2.213488630950450897216796875">
        <ele>1161.199951171875</ele>
        <time>2020-08-09T13:32:43.000Z</time>
      </trkpt>
      <trkpt lat="42.31250694952905178070068359375" lon="2.2134489007294178009033203125">
        <ele>1161.4000244140625</ele>
        <time>2020-08-09T13:32:45.000Z</time>
      </trkpt>
      <trkpt lat="42.3125829733908176422119140625" lon="2.2132896445691585540771484375">
        <ele>1161.4000244140625</ele>
        <time>2020-08-09T13:32:52.000Z</time>
      </trkpt>
      <trkpt lat="42.31267391704022884368896484375" lon="2.213160730898380279541015625">
        <ele>1161.5999755859375</ele>
        <time>2020-08-09T13:32:58.000Z</time>
      </trkpt>
      <trkpt lat="42.312764860689640045166015625" lon="2.2130472399294376373291015625">
        <ele>1161.5999755859375</ele>
        <time>2020-08-09T13:33:03.000Z</time>
      </trkpt>
      <trkpt lat="42.31297549791634082794189453125" lon="2.212871722877025604248046875">
        <ele>1160.199951171875</ele>
        <time>2020-08-09T13:33:10.000Z</time>
      </trkpt>
      <trkpt lat="42.31310424394905567169189453125" lon="2.21282587386667728424072265625">
        <ele>1159.800048828125</ele>
        <time>2020-08-09T13:33:13.000Z</time>
      </trkpt>
      <trkpt lat="42.31319912709295749664306640625" lon="2.212814055383205413818359375">
        <ele>1159.4000244140625</ele>
        <time>2020-08-09T13:33:15.000Z</time>
      </trkpt>
      <trkpt lat="42.31324397027492523193359375" lon="2.212803997099399566650390625">
        <ele>1158.5999755859375</ele>
        <time>2020-08-09T13:33:16.000Z</time>
      </trkpt>
      <trkpt lat="42.3132942616939544677734375" lon="2.21280558966100215911865234375">
        <ele>1158.199951171875</ele>
        <time>2020-08-09T13:33:17.000Z</time>
      </trkpt>
      <trkpt lat="42.3134010471403598785400390625" lon="2.212830819189548492431640625">
        <ele>1157.4000244140625</ele>
        <time>2020-08-09T13:33:19.000Z</time>
      </trkpt>
      <trkpt lat="42.3134577088057994842529296875" lon="2.21285001374781131744384765625">
        <ele>1157.199951171875</ele>
        <time>2020-08-09T13:33:20.000Z</time>
      </trkpt>
      <trkpt lat="42.3136804997920989990234375" lon="2.21290147863328456878662109375">
        <ele>1156.4000244140625</ele>
        <time>2020-08-09T13:33:24.000Z</time>
      </trkpt>
      <trkpt lat="42.3137339763343334197998046875" lon="2.212901227176189422607421875">
        <ele>1156.199951171875</ele>
        <time>2020-08-09T13:33:25.000Z</time>
      </trkpt>
      <trkpt lat="42.31378317810595035552978515625" lon="2.21288756467401981353759765625">
        <ele>1156.199951171875</ele>
        <time>2020-08-09T13:33:26.000Z</time>
      </trkpt>
      <trkpt lat="42.31388459913432598114013671875" lon="2.21274825744330883026123046875">
        <ele>1155.5999755859375</ele>
        <time>2020-08-09T13:33:29.000Z</time>
      </trkpt>
      <trkpt lat="42.31390203349292278289794921875" lon="2.2126925177872180938720703125">
        <ele>1155.199951171875</ele>
        <time>2020-08-09T13:33:30.000Z</time>
      </trkpt>
      <trkpt lat="42.31392449699342250823974609375" lon="2.21253887750208377838134765625">
        <ele>1154</ele>
        <time>2020-08-09T13:33:33.000Z</time>
      </trkpt>
      <trkpt lat="42.31394159607589244842529296875" lon="2.212308458983898162841796875">
        <ele>1152.5999755859375</ele>
        <time>2020-08-09T13:33:37.000Z</time>
      </trkpt>
      <trkpt lat="42.31396473012864589691162109375" lon="2.212109304964542388916015625">
        <ele>1151.5999755859375</ele>
        <time>2020-08-09T13:33:40.000Z</time>
      </trkpt>
      <trkpt lat="42.31398082338273525238037109375" lon="2.2120393998920917510986328125">
        <ele>1151.4000244140625</ele>
        <time>2020-08-09T13:33:41.000Z</time>
      </trkpt>
      <trkpt lat="42.314030192792415618896484375" lon="2.2119032777845859527587890625">
        <ele>1150.4000244140625</ele>
        <time>2020-08-09T13:33:43.000Z</time>
      </trkpt>
      <trkpt lat="42.31406330130994319915771484375" lon="2.21184217371046543121337890625">
        <ele>1149.5999755859375</ele>
        <time>2020-08-09T13:33:44.000Z</time>
      </trkpt>
      <trkpt lat="42.31410185806453227996826171875" lon="2.2117882780730724334716796875">
        <ele>1149</ele>
        <time>2020-08-09T13:33:45.000Z</time>
      </trkpt>
      <trkpt lat="42.31423680670559406280517578125" lon="2.2116739489138126373291015625">
        <ele>1148.4000244140625</ele>
        <time>2020-08-09T13:33:48.000Z</time>
      </trkpt>
      <trkpt lat="42.31432867236435413360595703125" lon="2.211609072983264923095703125">
        <ele>1147.800048828125</ele>
        <time>2020-08-09T13:33:50.000Z</time>
      </trkpt>
      <trkpt lat="42.3144685663282871246337890625" lon="2.211492061614990234375">
        <ele>1146.800048828125</ele>
        <time>2020-08-09T13:33:53.000Z</time>
      </trkpt>
      <trkpt lat="42.3145668022334575653076171875" lon="2.21140027977526187896728515625">
        <ele>1146.4000244140625</ele>
        <time>2020-08-09T13:33:55.000Z</time>
      </trkpt>
      <trkpt lat="42.31461592018604278564453125" lon="2.2113485634326934814453125">
        <ele>1145.5999755859375</ele>
        <time>2020-08-09T13:33:56.000Z</time>
      </trkpt>
      <trkpt lat="42.3147679679095745086669921875" lon="2.21119634807109832763671875">
        <ele>1144.4000244140625</ele>
        <time>2020-08-09T13:33:59.000Z</time>
      </trkpt>
      <trkpt lat="42.31488414108753204345703125" lon="2.211109511554241180419921875">
        <ele>1143.199951171875</ele>
        <time>2020-08-09T13:34:01.000Z</time>
      </trkpt>
      <trkpt lat="42.31494725681841373443603515625" lon="2.21107422374188899993896484375">
        <ele>1142.800048828125</ele>
        <time>2020-08-09T13:34:02.000Z</time>
      </trkpt>
      <trkpt lat="42.3150764219462871551513671875" lon="2.21102577634155750274658203125">
        <ele>1141.4000244140625</ele>
        <time>2020-08-09T13:34:04.000Z</time>
      </trkpt>
      <trkpt lat="42.31521665118634700775146484375" lon="2.21099073998630046844482421875">
        <ele>1140.800048828125</ele>
        <time>2020-08-09T13:34:06.000Z</time>
      </trkpt>
      <trkpt lat="42.31536081992089748382568359375" lon="2.2109470702707767486572265625">
        <ele>1140.199951171875</ele>
        <time>2020-08-09T13:34:08.000Z</time>
      </trkpt>
      <trkpt lat="42.31557304970920085906982421875" lon="2.21084958873689174652099609375">
        <ele>1138.800048828125</ele>
        <time>2020-08-09T13:34:11.000Z</time>
      </trkpt>
      <trkpt lat="42.315643541514873504638671875" lon="2.210808098316192626953125">
        <ele>1138.199951171875</ele>
        <time>2020-08-09T13:34:12.000Z</time>
      </trkpt>
      <trkpt lat="42.31571403332054615020751953125" lon="2.21076627261936664581298828125">
        <ele>1137.4000244140625</ele>
        <time>2020-08-09T13:34:13.000Z</time>
      </trkpt>
      <trkpt lat="42.31584562920033931732177734375" lon="2.21068010665476322174072265625">
        <ele>1136.199951171875</ele>
        <time>2020-08-09T13:34:15.000Z</time>
      </trkpt>
      <trkpt lat="42.31595836579799652099609375" lon="2.2105819545686244964599609375">
        <ele>1135</ele>
        <time>2020-08-09T13:34:17.000Z</time>
      </trkpt>
      <trkpt lat="42.31599331833422183990478515625" lon="2.21051950938999652862548828125">
        <ele>1134.4000244140625</ele>
        <time>2020-08-09T13:34:18.000Z</time>
      </trkpt>
      <trkpt lat="42.31601410545408725738525390625" lon="2.2104475088417530059814453125">
        <ele>1134</ele>
        <time>2020-08-09T13:34:19.000Z</time>
      </trkpt>
      <trkpt lat="42.3160135187208652496337890625" lon="2.21028531901538372039794921875">
        <ele>1133.199951171875</ele>
        <time>2020-08-09T13:34:21.000Z</time>
      </trkpt>
      <trkpt lat="42.31599667109549045562744140625" lon="2.21020183525979518890380859375">
        <ele>1132.800048828125</ele>
        <time>2020-08-09T13:34:22.000Z</time>
      </trkpt>
      <trkpt lat="42.3159067332744598388671875" lon="2.2099781222641468048095703125">
        <ele>1132</ele>
        <time>2020-08-09T13:34:25.000Z</time>
      </trkpt>
      <trkpt lat="42.31587094254791736602783203125" lon="2.2099060378968715667724609375">
        <ele>1131.5999755859375</ele>
        <time>2020-08-09T13:34:26.000Z</time>
      </trkpt>
      <trkpt lat="42.31579818762838840484619140625" lon="2.20976136624813079833984375">
        <ele>1130.5999755859375</ele>
        <time>2020-08-09T13:34:28.000Z</time>
      </trkpt>
      <trkpt lat="42.31573037803173065185546875" lon="2.2096116654574871063232421875">
        <ele>1129.800048828125</ele>
        <time>2020-08-09T13:34:30.000Z</time>
      </trkpt>
      <trkpt lat="42.31570464558899402618408203125" lon="2.20952893607318401336669921875">
        <ele>1129.4000244140625</ele>
        <time>2020-08-09T13:34:31.000Z</time>
      </trkpt>
      <trkpt lat="42.31570816598832607269287109375" lon="2.2092639841139316558837890625">
        <ele>1128</ele>
        <time>2020-08-09T13:34:34.000Z</time>
      </trkpt>
      <trkpt lat="42.31578293256461620330810546875" lon="2.2090976871550083160400390625">
        <ele>1126.800048828125</ele>
        <time>2020-08-09T13:34:36.000Z</time>
      </trkpt>
      <trkpt lat="42.3158307932317256927490234375" lon="2.2090205736458301544189453125">
        <ele>1126.199951171875</ele>
        <time>2020-08-09T13:34:37.000Z</time>
      </trkpt>
      <trkpt lat="42.31588385067880153656005859375" lon="2.208947651088237762451171875">
        <ele>1125.4000244140625</ele>
        <time>2020-08-09T13:34:38.000Z</time>
      </trkpt>
      <trkpt lat="42.31606992892920970916748046875" lon="2.20875344239175319671630859375">
        <ele>1124</ele>
        <time>2020-08-09T13:34:41.000Z</time>
      </trkpt>
      <trkpt lat="42.3161409236490726470947265625" lon="2.20869812183082103729248046875">
        <ele>1123.800048828125</ele>
        <time>2020-08-09T13:34:42.000Z</time>
      </trkpt>
      <trkpt lat="42.316210158169269561767578125" lon="2.208640538156032562255859375">
        <ele>1123</ele>
        <time>2020-08-09T13:34:43.000Z</time>
      </trkpt>
      <trkpt lat="42.31634753756225109100341796875" lon="2.20850818790495395660400390625">
        <ele>1121.5999755859375</ele>
        <time>2020-08-09T13:34:45.000Z</time>
      </trkpt>
      <trkpt lat="42.316413335502147674560546875" lon="2.20843073911964893341064453125">
        <ele>1121.199951171875</ele>
        <time>2020-08-09T13:34:46.000Z</time>
      </trkpt>
      <trkpt lat="42.31647728942334651947021484375" lon="2.2083476744592189788818359375">
        <ele>1120.800048828125</ele>
        <time>2020-08-09T13:34:47.000Z</time>
      </trkpt>
      <trkpt lat="42.3165375553071498870849609375" lon="2.20826125703752040863037109375">
        <ele>1120.4000244140625</ele>
        <time>2020-08-09T13:34:48.000Z</time>
      </trkpt>
      <trkpt lat="42.3166522197425365447998046875" lon="2.20809160731732845306396484375">
        <ele>1120</ele>
        <time>2020-08-09T13:34:50.000Z</time>
      </trkpt>
      <trkpt lat="42.31669639237225055694580078125" lon="2.20800829119980335235595703125">
        <ele>1120</ele>
        <time>2020-08-09T13:34:51.000Z</time>
      </trkpt>
      <trkpt lat="42.3167409002780914306640625" lon="2.20782824791967868804931640625">
        <ele>1118.800048828125</ele>
        <time>2020-08-09T13:34:53.000Z</time>
      </trkpt>
      <trkpt lat="42.3167068697512149810791015625" lon="2.20763697288930416107177734375">
        <ele>1117.4000244140625</ele>
        <time>2020-08-09T13:34:55.000Z</time>
      </trkpt>
      <trkpt lat="42.316570244729518890380859375" lon="2.20740579999983310699462890625">
        <ele>1116.4000244140625</ele>
        <time>2020-08-09T13:34:58.000Z</time>
      </trkpt>
      <trkpt lat="42.31646371074020862579345703125" lon="2.20710505731403827667236328125">
        <ele>1115</ele>
        <time>2020-08-09T13:35:01.000Z</time>
      </trkpt>
      <trkpt lat="42.3164351284503936767578125" lon="2.206875644624233245849609375">
        <ele>1113.800048828125</ele>
        <time>2020-08-09T13:35:03.000Z</time>
      </trkpt>
      <trkpt lat="42.316396236419677734375" lon="2.2066702879965305328369140625">
        <ele>1112.4000244140625</ele>
        <time>2020-08-09T13:35:05.000Z</time>
      </trkpt>
      <trkpt lat="42.316334210336208343505859375" lon="2.20637775957584381103515625">
        <ele>1110.800048828125</ele>
        <time>2020-08-09T13:35:08.000Z</time>
      </trkpt>
      <trkpt lat="42.31632943265140056610107421875" lon="2.20628731884062290191650390625">
        <ele>1110.4000244140625</ele>
        <time>2020-08-09T13:35:09.000Z</time>
      </trkpt>
      <trkpt lat="42.31634569354355335235595703125" lon="2.2060547210276126861572265625">
        <ele>1109.800048828125</ele>
        <time>2020-08-09T13:35:12.000Z</time>
      </trkpt>
      <trkpt lat="42.3163414187729358673095703125" lon="2.20598272047936916351318359375">
        <ele>1109.800048828125</ele>
        <time>2020-08-09T13:35:13.000Z</time>
      </trkpt>
      <trkpt lat="42.31632490642368793487548828125" lon="2.20591683872044086456298828125">
        <ele>1109.4000244140625</ele>
        <time>2020-08-09T13:35:14.000Z</time>
      </trkpt>
      <trkpt lat="42.316255755722522735595703125" lon="2.20583285205066204071044921875">
        <ele>1108.5999755859375</ele>
        <time>2020-08-09T13:35:16.000Z</time>
      </trkpt>
      <trkpt lat="42.31621191836893558502197265625" lon="2.2058217041194438934326171875">
        <ele>1108.4000244140625</ele>
        <time>2020-08-09T13:35:17.000Z</time>
      </trkpt>
      <trkpt lat="42.31613405048847198486328125" lon="2.20585430972278118133544921875">
        <ele>1108.199951171875</ele>
        <time>2020-08-09T13:35:19.000Z</time>
      </trkpt>
      <trkpt lat="42.31608308851718902587890625" lon="2.20594902522861957550048828125">
        <ele>1107.4000244140625</ele>
        <time>2020-08-09T13:35:21.000Z</time>
      </trkpt>
      <trkpt lat="42.316066659986972808837890625" lon="2.206009291112422943115234375">
        <ele>1107.199951171875</ele>
        <time>2020-08-09T13:35:22.000Z</time>
      </trkpt>
      <trkpt lat="42.316070012748241424560546875" lon="2.20627273432910442352294921875">
        <ele>1106.199951171875</ele>
        <time>2020-08-09T13:35:26.000Z</time>
      </trkpt>
      <trkpt lat="42.31610295362770557403564453125" lon="2.20649720169603824615478515625">
        <ele>1105</ele>
        <time>2020-08-09T13:35:29.000Z</time>
      </trkpt>
      <trkpt lat="42.3161466233432292938232421875" lon="2.20670155249536037445068359375">
        <ele>1103.800048828125</ele>
        <time>2020-08-09T13:35:32.000Z</time>
      </trkpt>
      <trkpt lat="42.3161630518734455108642578125" lon="2.20677162520587444305419921875">
        <ele>1103.5999755859375</ele>
        <time>2020-08-09T13:35:33.000Z</time>
      </trkpt>
      <trkpt lat="42.316222228109836578369140625" lon="2.2069924883544445037841796875">
        <ele>1102.5999755859375</ele>
        <time>2020-08-09T13:35:36.000Z</time>
      </trkpt>
      <trkpt lat="42.31623865664005279541015625" lon="2.20706599764525890350341796875">
        <ele>1102</ele>
        <time>2020-08-09T13:35:37.000Z</time>
      </trkpt>
      <trkpt lat="42.31624242849647998809814453125" lon="2.2072099149227142333984375">
        <ele>1101.199951171875</ele>
        <time>2020-08-09T13:35:39.000Z</time>
      </trkpt>
      <trkpt lat="42.3161375708878040313720703125" lon="2.2073217295110225677490234375">
        <ele>1100.199951171875</ele>
        <time>2020-08-09T13:35:42.000Z</time>
      </trkpt>
      <trkpt lat="42.3160879500210285186767578125" lon="2.20730789937078952789306640625">
        <ele>1099.800048828125</ele>
        <time>2020-08-09T13:35:43.000Z</time>
      </trkpt>
      <trkpt lat="42.31600907631218433380126953125" lon="2.20720564015209674835205078125">
        <ele>1098.800048828125</ele>
        <time>2020-08-09T13:35:45.000Z</time>
      </trkpt>
      <trkpt lat="42.31598577462136745452880859375" lon="2.2071286104619503021240234375">
        <ele>1098.5999755859375</ele>
        <time>2020-08-09T13:35:46.000Z</time>
      </trkpt>
      <trkpt lat="42.3159528337419033050537109375" lon="2.20696340315043926239013671875">
        <ele>1098.199951171875</ele>
        <time>2020-08-09T13:35:48.000Z</time>
      </trkpt>
      <trkpt lat="42.31593799777328968048095703125" lon="2.206878997385501861572265625">
        <ele>1098</ele>
        <time>2020-08-09T13:35:49.000Z</time>
      </trkpt>
      <trkpt lat="42.31591016985476016998291015625" lon="2.2067031450569629669189453125">
        <ele>1097.4000244140625</ele>
        <time>2020-08-09T13:35:51.000Z</time>
      </trkpt>
      <trkpt lat="42.31586323119699954986572265625" lon="2.20632738433778285980224609375">
        <ele>1096.199951171875</ele>
        <time>2020-08-09T13:35:55.000Z</time>
      </trkpt>
      <trkpt lat="42.315856777131557464599609375" lon="2.2062282264232635498046875">
        <ele>1095.800048828125</ele>
        <time>2020-08-09T13:35:56.000Z</time>
      </trkpt>
      <trkpt lat="42.31584437191486358642578125" lon="2.20602597109973430633544921875">
        <ele>1095.199951171875</ele>
        <time>2020-08-09T13:35:58.000Z</time>
      </trkpt>
      <trkpt lat="42.31580891646444797515869140625" lon="2.20561140216886997222900390625">
        <ele>1093.800048828125</ele>
        <time>2020-08-09T13:36:02.000Z</time>
      </trkpt>
      <trkpt lat="42.31578938663005828857421875" lon="2.205507718026638031005859375">
        <ele>1093.4000244140625</ele>
        <time>2020-08-09T13:36:03.000Z</time>
      </trkpt>
      <trkpt lat="42.3157613910734653472900390625" lon="2.2054069675505161285400390625">
        <ele>1093.199951171875</ele>
        <time>2020-08-09T13:36:04.000Z</time>
      </trkpt>
      <trkpt lat="42.3157235048711299896240234375" lon="2.20531032420694828033447265625">
        <ele>1092.800048828125</ele>
        <time>2020-08-09T13:36:05.000Z</time>
      </trkpt>
      <trkpt lat="42.31562686152756214141845703125" lon="2.205124832689762115478515625">
        <ele>1092</ele>
        <time>2020-08-09T13:36:07.000Z</time>
      </trkpt>
      <trkpt lat="42.3155746422708034515380859375" lon="2.20503036864101886749267578125">
        <ele>1091.800048828125</ele>
        <time>2020-08-09T13:36:08.000Z</time>
      </trkpt>
      <trkpt lat="42.31552326120436191558837890625" lon="2.20493230037391185760498046875">
        <ele>1091.5999755859375</ele>
        <time>2020-08-09T13:36:09.000Z</time>
      </trkpt>
      <trkpt lat="42.31537892483174800872802734375" lon="2.204626612365245819091796875">
        <ele>1090</ele>
        <time>2020-08-09T13:36:12.000Z</time>
      </trkpt>
      <trkpt lat="42.31529426760971546173095703125" lon="2.204428128898143768310546875">
        <ele>1089.199951171875</ele>
        <time>2020-08-09T13:36:14.000Z</time>
      </trkpt>
      <trkpt lat="42.31525403447449207305908203125" lon="2.2043324075639247894287109375">
        <ele>1088.4000244140625</ele>
        <time>2020-08-09T13:36:15.000Z</time>
      </trkpt>
      <trkpt lat="42.3151127994060516357421875" lon="2.20396368764340877532958984375">
        <ele>1087.4000244140625</ele>
        <time>2020-08-09T13:36:19.000Z</time>
      </trkpt>
      <trkpt lat="42.3150881566107273101806640625" lon="2.20388154499232769012451171875">
        <ele>1086.800048828125</ele>
        <time>2020-08-09T13:36:20.000Z</time>
      </trkpt>
      <trkpt lat="42.31510466895997524261474609375" lon="2.20367099158465862274169921875">
        <ele>1086.5999755859375</ele>
        <time>2020-08-09T13:36:23.000Z</time>
      </trkpt>
      <trkpt lat="42.3151344247162342071533203125" lon="2.20362237654626369476318359375">
        <ele>1086.4000244140625</ele>
        <time>2020-08-09T13:36:24.000Z</time>
      </trkpt>
      <trkpt lat="42.31516485102474689483642578125" lon="2.20357879064977169036865234375">
        <ele>1086.199951171875</ele>
        <time>2020-08-09T13:36:25.000Z</time>
      </trkpt>
      <trkpt lat="42.31522771529853343963623046875" lon="2.2034677304327487945556640625">
        <ele>1085.199951171875</ele>
        <time>2020-08-09T13:36:28.000Z</time>
      </trkpt>
      <trkpt lat="42.315253950655460357666015625" lon="2.20338718034327030181884765625">
        <ele>1084.199951171875</ele>
        <time>2020-08-09T13:36:31.000Z</time>
      </trkpt>
      <trkpt lat="42.3152630031108856201171875" lon="2.2033138386905193328857421875">
        <ele>1083.4000244140625</ele>
        <time>2020-08-09T13:36:33.000Z</time>
      </trkpt>
      <trkpt lat="42.31527247466146945953369140625" lon="2.2032005153596401214599609375">
        <ele>1083</ele>
        <time>2020-08-09T13:36:35.000Z</time>
      </trkpt>
      <trkpt lat="42.31528068892657756805419921875" lon="2.20306028611958026885986328125">
        <ele>1082.5999755859375</ele>
        <time>2020-08-09T13:36:37.000Z</time>
      </trkpt>
      <trkpt lat="42.3152859695255756378173828125" lon="2.20290161669254302978515625">
        <ele>1081.4000244140625</ele>
        <time>2020-08-09T13:36:39.000Z</time>
      </trkpt>
      <trkpt lat="42.3152852989733219146728515625" lon="2.20273087732493877410888671875">
        <ele>1080.199951171875</ele>
        <time>2020-08-09T13:36:41.000Z</time>
      </trkpt>
      <trkpt lat="42.31529125012457370758056640625" lon="2.20264454372227191925048828125">
        <ele>1079.4000244140625</ele>
        <time>2020-08-09T13:36:42.000Z</time>
      </trkpt>
      <trkpt lat="42.315302900969982147216796875" lon="2.20255519263446331024169921875">
        <ele>1078.800048828125</ele>
        <time>2020-08-09T13:36:43.000Z</time>
      </trkpt>
      <trkpt lat="42.31532209552824497222900390625" lon="2.20246215350925922393798828125">
        <ele>1078.4000244140625</ele>
        <time>2020-08-09T13:36:44.000Z</time>
      </trkpt>
      <trkpt lat="42.3153466545045375823974609375" lon="2.2023680247366428375244140625">
        <ele>1077.800048828125</ele>
        <time>2020-08-09T13:36:45.000Z</time>
      </trkpt>
      <trkpt lat="42.315373979508876800537109375" lon="2.2022748179733753204345703125">
        <ele>1077.199951171875</ele>
        <time>2020-08-09T13:36:46.000Z</time>
      </trkpt>
      <trkpt lat="42.3154013045132160186767578125" lon="2.202181778848171234130859375">
        <ele>1076.4000244140625</ele>
        <time>2020-08-09T13:36:47.000Z</time>
      </trkpt>
      <trkpt lat="42.31545855291187763214111328125" lon="2.2019970417022705078125">
        <ele>1075.199951171875</ele>
        <time>2020-08-09T13:36:49.000Z</time>
      </trkpt>
      <trkpt lat="42.315545976161956787109375" lon="2.2017229534685611724853515625">
        <ele>1073.800048828125</ele>
        <time>2020-08-09T13:36:52.000Z</time>
      </trkpt>
      <trkpt lat="42.3155676014721393585205078125" lon="2.2014802135527133941650390625">
        <ele>1072.4000244140625</ele>
        <time>2020-08-09T13:36:55.000Z</time>
      </trkpt>
      <trkpt lat="42.31546911410987377166748046875" lon="2.2012726776301860809326171875">
        <ele>1071.800048828125</ele>
        <time>2020-08-09T13:36:58.000Z</time>
      </trkpt>
      <trkpt lat="42.31542066670954227447509765625" lon="2.201211489737033843994140625">
        <ele>1071.5999755859375</ele>
        <time>2020-08-09T13:36:59.000Z</time>
      </trkpt>
      <trkpt lat="42.31537339277565479278564453125" lon="2.20114468596875667572021484375">
        <ele>1070.800048828125</ele>
        <time>2020-08-09T13:37:00.000Z</time>
      </trkpt>
      <trkpt lat="42.3152836225926876068115234375" lon="2.200989536941051483154296875">
        <ele>1069.800048828125</ele>
        <time>2020-08-09T13:37:02.000Z</time>
      </trkpt>
      <trkpt lat="42.315244562923908233642578125" lon="2.20090161077678203582763671875">
        <ele>1068.800048828125</ele>
        <time>2020-08-09T13:37:03.000Z</time>
      </trkpt>
      <trkpt lat="42.31521128676831722259521484375" lon="2.20080739818513393402099609375">
        <ele>1068.199951171875</ele>
        <time>2020-08-09T13:37:04.000Z</time>
      </trkpt>
      <trkpt lat="42.3151605762541294097900390625" lon="2.2006054781377315521240234375">
        <ele>1066.800048828125</ele>
        <time>2020-08-09T13:37:06.000Z</time>
      </trkpt>
      <trkpt lat="42.3151411302387714385986328125" lon="2.2005015425384044647216796875">
        <ele>1066.199951171875</ele>
        <time>2020-08-09T13:37:07.000Z</time>
      </trkpt>
      <trkpt lat="42.3151200078427791595458984375" lon="2.2003945894539356231689453125">
        <ele>1065.5999755859375</ele>
        <time>2020-08-09T13:37:08.000Z</time>
      </trkpt>
      <trkpt lat="42.3151020705699920654296875" lon="2.20028512179851531982421875">
        <ele>1064.800048828125</ele>
        <time>2020-08-09T13:37:09.000Z</time>
      </trkpt>
      <trkpt lat="42.31508773751556873321533203125" lon="2.2001786716282367706298828125">
        <ele>1064.199951171875</ele>
        <time>2020-08-09T13:37:10.000Z</time>
      </trkpt>
      <trkpt lat="42.31507566757500171661376953125" lon="2.20007381401956081390380859375">
        <ele>1063.4000244140625</ele>
        <time>2020-08-09T13:37:11.000Z</time>
      </trkpt>
      <trkpt lat="42.31506577692925930023193359375" lon="2.19996920786798000335693359375">
        <ele>1062.5999755859375</ele>
        <time>2020-08-09T13:37:12.000Z</time>
      </trkpt>
      <trkpt lat="42.31504348106682300567626953125" lon="2.1996586583554744720458984375">
        <ele>1061</ele>
        <time>2020-08-09T13:37:15.000Z</time>
      </trkpt>
      <trkpt lat="42.31504012830555438995361328125" lon="2.19943461008369922637939453125">
        <ele>1059.5999755859375</ele>
        <time>2020-08-09T13:37:17.000Z</time>
      </trkpt>
      <trkpt lat="42.31504046358168125152587890625" lon="2.19919052906334400177001953125">
        <ele>1058</ele>
        <time>2020-08-09T13:37:19.000Z</time>
      </trkpt>
      <trkpt lat="42.31507399119436740875244140625" lon="2.19881636090576648712158203125">
        <ele>1056.199951171875</ele>
        <time>2020-08-09T13:37:22.000Z</time>
      </trkpt>
      <trkpt lat="42.31509477831423282623291015625" lon="2.198575548827648162841796875">
        <ele>1054.4000244140625</ele>
        <time>2020-08-09T13:37:24.000Z</time>
      </trkpt>
      <trkpt lat="42.31511958874762058258056640625" lon="2.1983520872890949249267578125">
        <ele>1053.4000244140625</ele>
        <time>2020-08-09T13:37:26.000Z</time>
      </trkpt>
      <trkpt lat="42.3151340894401073455810546875" lon="2.19823935069143772125244140625">
        <ele>1053</ele>
        <time>2020-08-09T13:37:27.000Z</time>
      </trkpt>
      <trkpt lat="42.315173484385013580322265625" lon="2.1980124525725841522216796875">
        <ele>1051.800048828125</ele>
        <time>2020-08-09T13:37:29.000Z</time>
      </trkpt>
      <trkpt lat="42.31522738002240657806396484375" lon="2.197791673243045806884765625">
        <ele>1050.5999755859375</ele>
        <time>2020-08-09T13:37:31.000Z</time>
      </trkpt>
      <trkpt lat="42.31530767865478992462158203125" lon="2.19757902435958385467529296875">
        <ele>1049</ele>
        <time>2020-08-09T13:37:33.000Z</time>
      </trkpt>
      <trkpt lat="42.31541262008249759674072265625" lon="2.19738406129181385040283203125">
        <ele>1047.5999755859375</ele>
        <time>2020-08-09T13:37:35.000Z</time>
      </trkpt>
      <trkpt lat="42.31555427424609661102294921875" lon="2.19711114652454853057861328125">
        <ele>1046.199951171875</ele>
        <time>2020-08-09T13:37:38.000Z</time>
      </trkpt>
      <trkpt lat="42.31558344326913356781005859375" lon="2.19701441936194896697998046875">
        <ele>1046</ele>
        <time>2020-08-09T13:37:39.000Z</time>
      </trkpt>
      <trkpt lat="42.31560070998966693878173828125" lon="2.19680990092456340789794921875">
        <ele>1045</ele>
        <time>2020-08-09T13:37:41.000Z</time>
      </trkpt>
      <trkpt lat="42.31558847241103649139404296875" lon="2.196696661412715911865234375">
        <ele>1044.4000244140625</ele>
        <time>2020-08-09T13:37:42.000Z</time>
      </trkpt>
      <trkpt lat="42.3155659250915050506591796875" lon="2.1965784765779972076416015625">
        <ele>1043.800048828125</ele>
        <time>2020-08-09T13:37:43.000Z</time>
      </trkpt>
      <trkpt lat="42.3155437968671321868896484375" lon="2.19645853154361248016357421875">
        <ele>1043</ele>
        <time>2020-08-09T13:37:44.000Z</time>
      </trkpt>
      <trkpt lat="42.31552057899534702301025390625" lon="2.19634001143276691436767578125">
        <ele>1042.199951171875</ele>
        <time>2020-08-09T13:37:45.000Z</time>
      </trkpt>
      <trkpt lat="42.31547246687114238739013671875" lon="2.19610665924847126007080078125">
        <ele>1040.5999755859375</ele>
        <time>2020-08-09T13:37:47.000Z</time>
      </trkpt>
      <trkpt lat="42.31545142829418182373046875" lon="2.19599425792694091796875">
        <ele>1039.800048828125</ele>
        <time>2020-08-09T13:37:48.000Z</time>
      </trkpt>
      <trkpt lat="42.31543131172657012939453125" lon="2.19588722102344036102294921875">
        <ele>1039.4000244140625</ele>
        <time>2020-08-09T13:37:49.000Z</time>
      </trkpt>
      <trkpt lat="42.3154106922447681427001953125" lon="2.19569158740341663360595703125">
        <ele>1038.4000244140625</ele>
        <time>2020-08-09T13:37:51.000Z</time>
      </trkpt>
      <trkpt lat="42.31540926732122898101806640625" lon="2.19560240395367145538330078125">
        <ele>1037.5999755859375</ele>
        <time>2020-08-09T13:37:52.000Z</time>
      </trkpt>
      <trkpt lat="42.31540851294994354248046875" lon="2.19552042894065380096435546875">
        <ele>1036.800048828125</ele>
        <time>2020-08-09T13:37:53.000Z</time>
      </trkpt>
      <trkpt lat="42.3154029808938503265380859375" lon="2.195444069802761077880859375">
        <ele>1036.199951171875</ele>
        <time>2020-08-09T13:37:54.000Z</time>
      </trkpt>
      <trkpt lat="42.3153858818113803863525390625" lon="2.1953815408051013946533203125">
        <ele>1035.5999755859375</ele>
        <time>2020-08-09T13:37:55.000Z</time>
      </trkpt>
      <trkpt lat="42.31535696424543857574462890625" lon="2.19534407369792461395263671875">
        <ele>1035</ele>
        <time>2020-08-09T13:37:56.000Z</time>
      </trkpt>
      <trkpt lat="42.3152906633913516998291015625" lon="2.1953600831329822540283203125">
        <ele>1034.5999755859375</ele>
        <time>2020-08-09T13:37:58.000Z</time>
      </trkpt>
      <trkpt lat="42.31526660732924938201904296875" lon="2.1954009868204593658447265625">
        <ele>1034.199951171875</ele>
        <time>2020-08-09T13:37:59.000Z</time>
      </trkpt>
      <trkpt lat="42.3152661882340908050537109375" lon="2.1955753304064273834228515625">
        <ele>1033.4000244140625</ele>
        <time>2020-08-09T13:38:02.000Z</time>
      </trkpt>
      <trkpt lat="42.31527884490787982940673828125" lon="2.19563995487987995147705078125">
        <ele>1033.199951171875</ele>
        <time>2020-08-09T13:38:03.000Z</time>
      </trkpt>
      <trkpt lat="42.3153087683022022247314453125" lon="2.1957855485379695892333984375">
        <ele>1032.4000244140625</ele>
        <time>2020-08-09T13:38:05.000Z</time>
      </trkpt>
      <trkpt lat="42.31533617712557315826416015625" lon="2.19594798982143402099609375">
        <ele>1031.5999755859375</ele>
        <time>2020-08-09T13:38:07.000Z</time>
      </trkpt>
      <trkpt lat="42.3153459839522838592529296875" lon="2.1960363350808620452880859375">
        <ele>1031.199951171875</ele>
        <time>2020-08-09T13:38:08.000Z</time>
      </trkpt>
      <trkpt lat="42.31535227037966251373291015625" lon="2.19613029621541500091552734375">
        <ele>1030.800048828125</ele>
        <time>2020-08-09T13:38:09.000Z</time>
      </trkpt>
      <trkpt lat="42.3153490014374256134033203125" lon="2.19632710330188274383544921875">
        <ele>1029.800048828125</ele>
        <time>2020-08-09T13:38:11.000Z</time>
      </trkpt>
      <trkpt lat="42.31531572528183460235595703125" lon="2.1965268440544605255126953125">
        <ele>1028.4000244140625</ele>
        <time>2020-08-09T13:38:13.000Z</time>
      </trkpt>
      <trkpt lat="42.31526392512023448944091796875" lon="2.19672826118767261505126953125">
        <ele>1027.5999755859375</ele>
        <time>2020-08-09T13:38:15.000Z</time>
      </trkpt>
      <trkpt lat="42.31523509137332439422607421875" lon="2.19682850874960422515869140625">
        <ele>1027.199951171875</ele>
        <time>2020-08-09T13:38:16.000Z</time>
      </trkpt>
      <trkpt lat="42.315105758607387542724609375" lon="2.1972205303609371185302734375">
        <ele>1025.800048828125</ele>
        <time>2020-08-09T13:38:20.000Z</time>
      </trkpt>
      <trkpt lat="42.31501598842442035675048828125" lon="2.1973921917378902435302734375">
        <ele>1025</ele>
        <time>2020-08-09T13:38:22.000Z</time>
      </trkpt>
      <trkpt lat="42.314972989261150360107421875" lon="2.19747819006443023681640625">
        <ele>1024.800048828125</ele>
        <time>2020-08-09T13:38:23.000Z</time>
      </trkpt>
      <trkpt lat="42.31481968425214290618896484375" lon="2.1978381089866161346435546875">
        <ele>1024</ele>
        <time>2020-08-09T13:38:27.000Z</time>
      </trkpt>
      <trkpt lat="42.31478028930723667144775390625" lon="2.19792016781866550445556640625">
        <ele>1023.5999755859375</ele>
        <time>2020-08-09T13:38:28.000Z</time>
      </trkpt>
      <trkpt lat="42.31470401398837566375732421875" lon="2.19807095825672149658203125">
        <ele>1023.4000244140625</ele>
        <time>2020-08-09T13:38:30.000Z</time>
      </trkpt>
      <trkpt lat="42.314645089209079742431640625" lon="2.19822250306606292724609375">
        <ele>1023.20001220703125</ele>
        <time>2020-08-09T13:38:32.000Z</time>
      </trkpt>
      <trkpt lat="42.31460778973996639251708984375" lon="2.19852819107472896575927734375">
        <ele>1023</ele>
        <time>2020-08-09T13:38:36.000Z</time>
      </trkpt>
      <trkpt lat="42.31461164541542530059814453125" lon="2.19866079278290271759033203125">
        <ele>1023</ele>
        <time>2020-08-09T13:38:38.000Z</time>
      </trkpt>
      <trkpt lat="42.3146053589880466461181640625" lon="2.1987212263047695159912109375">
        <ele>1022.5999755859375</ele>
        <time>2020-08-09T13:38:39.000Z</time>
      </trkpt>
      <trkpt lat="42.3145849071443080902099609375" lon="2.1988372318446636199951171875">
        <ele>1022.20001220703125</ele>
        <time>2020-08-09T13:38:41.000Z</time>
      </trkpt>
      <trkpt lat="42.31454140506684780120849609375" lon="2.199057005345821380615234375">
        <ele>1021.5999755859375</ele>
        <time>2020-08-09T13:38:45.000Z</time>
      </trkpt>
      <trkpt lat="42.3144863359630107879638671875" lon="2.19926445744931697845458984375">
        <ele>1020.79998779296875</ele>
        <time>2020-08-09T13:38:49.000Z</time>
      </trkpt>
      <trkpt lat="42.3144648782908916473388671875" lon="2.19930955208837985992431640625">
        <ele>1020.5999755859375</ele>
        <time>2020-08-09T13:38:50.000Z</time>
      </trkpt>
      <trkpt lat="42.31440176256000995635986328125" lon="2.1993542276322841644287109375">
        <ele>1020.20001220703125</ele>
        <time>2020-08-09T13:38:52.000Z</time>
      </trkpt>
      <trkpt lat="42.314338646829128265380859375" lon="2.1993126533925533294677734375">
        <ele>1019.5999755859375</ele>
        <time>2020-08-09T13:38:54.000Z</time>
      </trkpt>
      <trkpt lat="42.3143280856311321258544921875" lon="2.1992623619735240936279296875">
        <ele>1019.20001220703125</ele>
        <time>2020-08-09T13:38:55.000Z</time>
      </trkpt>
      <trkpt lat="42.3143478669226169586181640625" lon="2.19915180467069149017333984375">
        <ele>1018.5999755859375</ele>
        <time>2020-08-09T13:38:57.000Z</time>
      </trkpt>
      <trkpt lat="42.31438533402979373931884765625" lon="2.1990506350994110107421875">
        <ele>1018.20001220703125</ele>
        <time>2020-08-09T13:38:59.000Z</time>
      </trkpt>
      <trkpt lat="42.31440645642578601837158203125" lon="2.19900528900325298309326171875">
        <ele>1018</ele>
        <time>2020-08-09T13:39:00.000Z</time>
      </trkpt>
      <trkpt lat="42.31450133956968784332275390625" lon="2.19875165261328220367431640625">
        <ele>1017.4000244140625</ele>
        <time>2020-08-09T13:39:06.000Z</time>
      </trkpt>
      <trkpt lat="42.31449279002845287322998046875" lon="2.19857378862798213958740234375">
        <ele>1017.4000244140625</ele>
        <time>2020-08-09T13:39:10.000Z</time>
      </trkpt>
      <trkpt lat="42.3144098930060863494873046875" lon="2.1983728744089603424072265625">
        <ele>1016.79998779296875</ele>
        <time>2020-08-09T13:39:15.000Z</time>
      </trkpt>
      <trkpt lat="42.3143978230655193328857421875" lon="2.1983209066092967987060546875">
        <ele>1016.5999755859375</ele>
        <time>2020-08-09T13:39:16.000Z</time>
      </trkpt>
      <trkpt lat="42.3143924586474895477294921875" lon="2.198263071477413177490234375">
        <ele>1016.4000244140625</ele>
        <time>2020-08-09T13:39:17.000Z</time>
      </trkpt>
      <trkpt lat="42.31440628878772258758544921875" lon="2.1981391869485378265380859375">
        <ele>1015.5999755859375</ele>
        <time>2020-08-09T13:39:19.000Z</time>
      </trkpt>
      <trkpt lat="42.3144293390214443206787109375" lon="2.1980852074921131134033203125">
        <ele>1015.20001220703125</ele>
        <time>2020-08-09T13:39:20.000Z</time>
      </trkpt>
      <trkpt lat="42.314506955444812774658203125" lon="2.19799694605171680450439453125">
        <ele>1014.4000244140625</ele>
        <time>2020-08-09T13:39:22.000Z</time>
      </trkpt>
      <trkpt lat="42.3145543970167636871337890625" lon="2.1979601494967937469482421875">
        <ele>1014</ele>
        <time>2020-08-09T13:39:23.000Z</time>
      </trkpt>
      <trkpt lat="42.31464148499071598052978515625" lon="2.19788094051182270050048828125">
        <ele>1013.5999755859375</ele>
        <time>2020-08-09T13:39:25.000Z</time>
      </trkpt>
      <trkpt lat="42.314710803329944610595703125" lon="2.19777700491249561309814453125">
        <ele>1012.79998779296875</ele>
        <time>2020-08-09T13:39:27.000Z</time>
      </trkpt>
      <trkpt lat="42.31480811722576618194580078125" lon="2.19746410846710205078125">
        <ele>1012</ele>
        <time>2020-08-09T13:39:32.000Z</time>
      </trkpt>
      <trkpt lat="42.31479269452393054962158203125" lon="2.19726026058197021484375">
        <ele>1011.79998779296875</ele>
        <time>2020-08-09T13:39:35.000Z</time>
      </trkpt>
      <trkpt lat="42.3147753439843654632568359375" lon="2.197193205356597900390625">
        <ele>1011.5999755859375</ele>
        <time>2020-08-09T13:39:36.000Z</time>
      </trkpt>
      <trkpt lat="42.31475514359772205352783203125" lon="2.19712589867413043975830078125">
        <ele>1011.20001220703125</ele>
        <time>2020-08-09T13:39:37.000Z</time>
      </trkpt>
      <trkpt lat="42.31468775309622287750244140625" lon="2.196919620037078857421875">
        <ele>1010.5999755859375</ele>
        <time>2020-08-09T13:39:40.000Z</time>
      </trkpt>
      <trkpt lat="42.31463176198303699493408203125" lon="2.19669221900403499603271484375">
        <ele>1010.20001220703125</ele>
        <time>2020-08-09T13:39:43.000Z</time>
      </trkpt>
      <trkpt lat="42.3146083764731884002685546875" lon="2.19626708887517452239990234375">
        <ele>1009.4000244140625</ele>
        <time>2020-08-09T13:39:48.000Z</time>
      </trkpt>
      <trkpt lat="42.31461080722510814666748046875" lon="2.19580457545816898345947265625">
        <ele>1007.79998779296875</ele>
        <time>2020-08-09T13:39:53.000Z</time>
      </trkpt>
      <trkpt lat="42.31460007838904857635498046875" lon="2.1957201696932315826416015625">
        <ele>1007.4000244140625</ele>
        <time>2020-08-09T13:39:54.000Z</time>
      </trkpt>
      <trkpt lat="42.314547188580036163330078125" lon="2.19557424075901508331298828125">
        <ele>1006.5999755859375</ele>
        <time>2020-08-09T13:39:56.000Z</time>
      </trkpt>
      <trkpt lat="42.3145034350454807281494140625" lon="2.19551640562713146209716796875">
        <ele>1006.20001220703125</ele>
        <time>2020-08-09T13:39:57.000Z</time>
      </trkpt>
      <trkpt lat="42.3143974877893924713134765625" lon="2.1954284794628620147705078125">
        <ele>1005.5999755859375</ele>
        <time>2020-08-09T13:39:59.000Z</time>
      </trkpt>
      <trkpt lat="42.3143414966762065887451171875" lon="2.195383720099925994873046875">
        <ele>1005.20001220703125</ele>
        <time>2020-08-09T13:40:00.000Z</time>
      </trkpt>
      <trkpt lat="42.31428869068622589111328125" lon="2.19533083029091358184814453125">
        <ele>1005</ele>
        <time>2020-08-09T13:40:01.000Z</time>
      </trkpt>
      <trkpt lat="42.3141711764037609100341796875" lon="2.195101082324981689453125">
        <ele>1003.5999755859375</ele>
        <time>2020-08-09T13:40:04.000Z</time>
      </trkpt>
      <trkpt lat="42.31412507593631744384765625" lon="2.19491458497941493988037109375">
        <ele>1003.20001220703125</ele>
        <time>2020-08-09T13:40:06.000Z</time>
      </trkpt>
      <trkpt lat="42.31410386972129344940185546875" lon="2.19473688863217830657958984375">
        <ele>1002.5999755859375</ele>
        <time>2020-08-09T13:40:08.000Z</time>
      </trkpt>
      <trkpt lat="42.3141096532344818115234375" lon="2.1946526505053043365478515625">
        <ele>1002.20001220703125</ele>
        <time>2020-08-09T13:40:09.000Z</time>
      </trkpt>
      <trkpt lat="42.31415634043514728546142578125" lon="2.19451300799846649169921875">
        <ele>1001.4000244140625</ele>
        <time>2020-08-09T13:40:11.000Z</time>
      </trkpt>
      <trkpt lat="42.3142073862254619598388671875" lon="2.19447101466357707977294921875">
        <ele>1000.5999755859375</ele>
        <time>2020-08-09T13:40:12.000Z</time>
      </trkpt>
      <trkpt lat="42.314268238842487335205078125" lon="2.1944477967917919158935546875">
        <ele>1000</ele>
        <time>2020-08-09T13:40:13.000Z</time>
      </trkpt>
      <trkpt lat="42.314397990703582763671875" lon="2.19446816481649875640869140625">
        <ele>999.20001220703125</ele>
        <time>2020-08-09T13:40:15.000Z</time>
      </trkpt>
      <trkpt lat="42.3144578374922275543212890625" lon="2.1944920532405376434326171875">
        <ele>998.5999755859375</ele>
        <time>2020-08-09T13:40:16.000Z</time>
      </trkpt>
      <trkpt lat="42.31451542116701602935791015625" lon="2.19450672157108783721923828125">
        <ele>998</ele>
        <time>2020-08-09T13:40:17.000Z</time>
      </trkpt>
      <trkpt lat="42.31457090936601161956787109375" lon="2.19450789503753185272216796875">
        <ele>997.5999755859375</ele>
        <time>2020-08-09T13:40:18.000Z</time>
      </trkpt>
      <trkpt lat="42.3146271519362926483154296875" lon="2.1944910474121570587158203125">
        <ele>997.20001220703125</ele>
        <time>2020-08-09T13:40:19.000Z</time>
      </trkpt>
      <trkpt lat="42.31473888270556926727294921875" lon="2.19441351480782032012939453125">
        <ele>996.4000244140625</ele>
        <time>2020-08-09T13:40:21.000Z</time>
      </trkpt>
      <trkpt lat="42.31479571200907230377197265625" lon="2.1943649835884571075439453125">
        <ele>995.79998779296875</ele>
        <time>2020-08-09T13:40:22.000Z</time>
      </trkpt>
      <trkpt lat="42.314853966236114501953125" lon="2.19431980513036251068115234375">
        <ele>995.4000244140625</ele>
        <time>2020-08-09T13:40:23.000Z</time>
      </trkpt>
      <trkpt lat="42.3149175010621547698974609375" lon="2.194282002747058868408203125">
        <ele>995</ele>
        <time>2020-08-09T13:40:24.000Z</time>
      </trkpt>
      <trkpt lat="42.3151200078427791595458984375" lon="2.19424587674438953399658203125">
        <ele>994</ele>
        <time>2020-08-09T13:40:27.000Z</time>
      </trkpt>
      <trkpt lat="42.31518278829753398895263671875" lon="2.19423783011734485626220703125">
        <ele>993</ele>
        <time>2020-08-09T13:40:28.000Z</time>
      </trkpt>
      <trkpt lat="42.3152390308678150177001953125" lon="2.1942119300365447998046875">
        <ele>992.4000244140625</ele>
        <time>2020-08-09T13:40:29.000Z</time>
      </trkpt>
      <trkpt lat="42.31528605334460735321044921875" lon="2.19415920786559581756591796875">
        <ele>991.5999755859375</ele>
        <time>2020-08-09T13:40:30.000Z</time>
      </trkpt>
      <trkpt lat="42.31532268226146697998046875" lon="2.194085530936717987060546875">
        <ele>991</ele>
        <time>2020-08-09T13:40:31.000Z</time>
      </trkpt>
      <trkpt lat="42.3153506778180599212646484375" lon="2.19391529448330402374267578125">
        <ele>990.4000244140625</ele>
        <time>2020-08-09T13:40:33.000Z</time>
      </trkpt>
      <trkpt lat="42.31533341109752655029296875" lon="2.193832062184810638427734375">
        <ele>989.79998779296875</ele>
        <time>2020-08-09T13:40:34.000Z</time>
      </trkpt>
      <trkpt lat="42.31525453738868236541748046875" lon="2.19368747435510158538818359375">
        <ele>988.79998779296875</ele>
        <time>2020-08-09T13:40:36.000Z</time>
      </trkpt>
      <trkpt lat="42.31521002948284149169921875" lon="2.19362787902355194091796875">
        <ele>988.5999755859375</ele>
        <time>2020-08-09T13:40:37.000Z</time>
      </trkpt>
      <trkpt lat="42.3151649348437786102294921875" lon="2.19357155263423919677734375">
        <ele>988</ele>
        <time>2020-08-09T13:40:38.000Z</time>
      </trkpt>
      <trkpt lat="42.31507784686982631683349609375" lon="2.19346334226429462432861328125">
        <ele>987.4000244140625</ele>
        <time>2020-08-09T13:40:40.000Z</time>
      </trkpt>
      <trkpt lat="42.31500140391290187835693359375" lon="2.1933628432452678680419921875">
        <ele>986.79998779296875</ele>
        <time>2020-08-09T13:40:42.000Z</time>
      </trkpt>
      <trkpt lat="42.31493175029754638671875" lon="2.19327625818550586700439453125">
        <ele>986</ele>
        <time>2020-08-09T13:40:44.000Z</time>
      </trkpt>
      <trkpt lat="42.3148353584110736846923828125" lon="2.19314181245863437652587890625">
        <ele>985</ele>
        <time>2020-08-09T13:40:47.000Z</time>
      </trkpt>
      <trkpt lat="42.3148061893880367279052734375" lon="2.1930859051644802093505859375">
        <ele>984.5999755859375</ele>
        <time>2020-08-09T13:40:48.000Z</time>
      </trkpt>
      <trkpt lat="42.31478087604045867919921875" lon="2.19302094541490077972412109375">
        <ele>984.20001220703125</ele>
        <time>2020-08-09T13:40:49.000Z</time>
      </trkpt>
      <trkpt lat="42.31475983746349811553955078125" lon="2.1929497830569744110107421875">
        <ele>983.79998779296875</ele>
        <time>2020-08-09T13:40:50.000Z</time>
      </trkpt>
      <trkpt lat="42.31470644474029541015625" lon="2.19263370148837566375732421875">
        <ele>982.4000244140625</ele>
        <time>2020-08-09T13:40:54.000Z</time>
      </trkpt>
      <trkpt lat="42.3146995715796947479248046875" lon="2.19246405176818370819091796875">
        <ele>981.20001220703125</ele>
        <time>2020-08-09T13:40:56.000Z</time>
      </trkpt>
      <trkpt lat="42.31469898484647274017333984375" lon="2.19228685833513736724853515625">
        <ele>980.20001220703125</ele>
        <time>2020-08-09T13:40:58.000Z</time>
      </trkpt>
      <trkpt lat="42.31469680555164813995361328125" lon="2.1920120157301425933837890625">
        <ele>979</ele>
        <time>2020-08-09T13:41:01.000Z</time>
      </trkpt>
      <trkpt lat="42.314695380628108978271484375" lon="2.1919167973101139068603515625">
        <ele>978.5999755859375</ele>
        <time>2020-08-09T13:41:02.000Z</time>
      </trkpt>
      <trkpt lat="42.3146943747997283935546875" lon="2.191726863384246826171875">
        <ele>977.5999755859375</ele>
        <time>2020-08-09T13:41:04.000Z</time>
      </trkpt>
      <trkpt lat="42.31469244696199893951416015625" lon="2.19153617508709430694580078125">
        <ele>976.20001220703125</ele>
        <time>2020-08-09T13:41:06.000Z</time>
      </trkpt>
      <trkpt lat="42.314682640135288238525390625" lon="2.191347666084766387939453125">
        <ele>974.79998779296875</ele>
        <time>2020-08-09T13:41:08.000Z</time>
      </trkpt>
      <trkpt lat="42.314655147492885589599609375" lon="2.1910769306123256683349609375">
        <ele>973.79998779296875</ele>
        <time>2020-08-09T13:41:11.000Z</time>
      </trkpt>
      <trkpt lat="42.3146476037800312042236328125" lon="2.19098816625773906707763671875">
        <ele>973.4000244140625</ele>
        <time>2020-08-09T13:41:12.000Z</time>
      </trkpt>
      <trkpt lat="42.31463737785816192626953125" lon="2.19081130810081958770751953125">
        <ele>972.4000244140625</ele>
        <time>2020-08-09T13:41:14.000Z</time>
      </trkpt>
      <trkpt lat="42.31464249081909656524658203125" lon="2.1906360425055027008056640625">
        <ele>971.4000244140625</ele>
        <time>2020-08-09T13:41:16.000Z</time>
      </trkpt>
      <trkpt lat="42.314655482769012451171875" lon="2.190552055835723876953125">
        <ele>970.79998779296875</ele>
        <time>2020-08-09T13:41:17.000Z</time>
      </trkpt>
      <trkpt lat="42.31469764374196529388427734375" lon="2.19039422459900379180908203125">
        <ele>969.79998779296875</ele>
        <time>2020-08-09T13:41:19.000Z</time>
      </trkpt>
      <trkpt lat="42.31478431262075901031494140625" lon="2.19017730094492435455322265625">
        <ele>969</ele>
        <time>2020-08-09T13:41:22.000Z</time>
      </trkpt>
      <trkpt lat="42.3148633539676666259765625" lon="2.19005743972957134246826171875">
        <ele>968.20001220703125</ele>
        <time>2020-08-09T13:41:24.000Z</time>
      </trkpt>
      <trkpt lat="42.31495161540806293487548828125" lon="2.18995065428316593170166015625">
        <ele>967.20001220703125</ele>
        <time>2020-08-09T13:41:26.000Z</time>
      </trkpt>
      <trkpt lat="42.314993441104888916015625" lon="2.18989818356931209564208984375">
        <ele>967</ele>
        <time>2020-08-09T13:41:27.000Z</time>
      </trkpt>
      <trkpt lat="42.31506560929119586944580078125" lon="2.18979106284677982330322265625">
        <ele>966.5999755859375</ele>
        <time>2020-08-09T13:41:29.000Z</time>
      </trkpt>
      <trkpt lat="42.31509176082909107208251953125" lon="2.189732976257801055908203125">
        <ele>966.20001220703125</ele>
        <time>2020-08-09T13:41:30.000Z</time>
      </trkpt>
      <trkpt lat="42.31510944664478302001953125" lon="2.18967170454561710357666015625">
        <ele>965.79998779296875</ele>
        <time>2020-08-09T13:41:31.000Z</time>
      </trkpt>
      <trkpt lat="42.31512830592691898345947265625" lon="2.1895450539886951446533203125">
        <ele>965.20001220703125</ele>
        <time>2020-08-09T13:41:33.000Z</time>
      </trkpt>
      <trkpt lat="42.3151146434247493743896484375" lon="2.189329303801059722900390625">
        <ele>964.20001220703125</ele>
        <time>2020-08-09T13:41:36.000Z</time>
      </trkpt>
      <trkpt lat="42.3151059262454509735107421875" lon="2.189254201948642730712890625">
        <ele>963.79998779296875</ele>
        <time>2020-08-09T13:41:37.000Z</time>
      </trkpt>
      <trkpt lat="42.31509008444845676422119140625" lon="2.18910173512995243072509765625">
        <ele>962.79998779296875</ele>
        <time>2020-08-09T13:41:39.000Z</time>
      </trkpt>
      <trkpt lat="42.31510366313159465789794921875" lon="2.188947089016437530517578125">
        <ele>962.20001220703125</ele>
        <time>2020-08-09T13:41:41.000Z</time>
      </trkpt>
      <trkpt lat="42.3151476681232452392578125" lon="2.188808955252170562744140625">
        <ele>961.4000244140625</ele>
        <time>2020-08-09T13:41:43.000Z</time>
      </trkpt>
      <trkpt lat="42.31521195732057094573974609375" lon="2.18868750147521495819091796875">
        <ele>960.5999755859375</ele>
        <time>2020-08-09T13:41:45.000Z</time>
      </trkpt>
      <trkpt lat="42.31523819267749786376953125" lon="2.18862664885818958282470703125">
        <ele>960.20001220703125</ele>
        <time>2020-08-09T13:41:46.000Z</time>
      </trkpt>
      <trkpt lat="42.31525772251188755035400390625" lon="2.18849547207355499267578125">
        <ele>959</ele>
        <time>2020-08-09T13:41:48.000Z</time>
      </trkpt>
      <trkpt lat="42.31521011330187320709228515625" lon="2.1882894448935985565185546875">
        <ele>958.20001220703125</ele>
        <time>2020-08-09T13:41:51.000Z</time>
      </trkpt>
      <trkpt lat="42.3151863925158977508544921875" lon="2.18822113238275051116943359375">
        <ele>957.79998779296875</ele>
        <time>2020-08-09T13:41:52.000Z</time>
      </trkpt>
      <trkpt lat="42.31514724902808666229248046875" lon="2.187987864017486572265625">
        <ele>956.5999755859375</ele>
        <time>2020-08-09T13:41:55.000Z</time>
      </trkpt>
      <trkpt lat="42.3151619173586368560791015625" lon="2.18773565255105495452880859375">
        <ele>955</ele>
        <time>2020-08-09T13:41:58.000Z</time>
      </trkpt>
      <trkpt lat="42.3151800222694873809814453125" lon="2.1876520849764347076416015625">
        <ele>954.5999755859375</ele>
        <time>2020-08-09T13:41:59.000Z</time>
      </trkpt>
      <trkpt lat="42.3152308166027069091796875" lon="2.187496684491634368896484375">
        <ele>953.5999755859375</ele>
        <time>2020-08-09T13:42:01.000Z</time>
      </trkpt>
      <trkpt lat="42.31527683325111865997314453125" lon="2.18735150992870330810546875">
        <ele>952.79998779296875</ele>
        <time>2020-08-09T13:42:03.000Z</time>
      </trkpt>
      <trkpt lat="42.31528739444911479949951171875" lon="2.187280096113681793212890625">
        <ele>952.20001220703125</ele>
        <time>2020-08-09T13:42:04.000Z</time>
      </trkpt>
      <trkpt lat="42.315270714461803436279296875" lon="2.18714523129165172576904296875">
        <ele>951.5999755859375</ele>
        <time>2020-08-09T13:42:06.000Z</time>
      </trkpt>
      <trkpt lat="42.31524447910487651824951171875" lon="2.187093682587146759033203125">
        <ele>951.4000244140625</ele>
        <time>2020-08-09T13:42:07.000Z</time>
      </trkpt>
      <trkpt lat="42.31516040861606597900390625" lon="2.18700475059449672698974609375">
        <ele>950.5999755859375</ele>
        <time>2020-08-09T13:42:09.000Z</time>
      </trkpt>
      <trkpt lat="42.3151181638240814208984375" lon="2.1869511902332305908203125">
        <ele>950.20001220703125</ele>
        <time>2020-08-09T13:42:10.000Z</time>
      </trkpt>
      <trkpt lat="42.3150589875876903533935546875" lon="2.18680559657514095306396484375">
        <ele>949</ele>
        <time>2020-08-09T13:42:12.000Z</time>
      </trkpt>
      <trkpt lat="42.3150318302214145660400390625" lon="2.18654173426330089569091796875">
        <ele>947.5999755859375</ele>
        <time>2020-08-09T13:42:15.000Z</time>
      </trkpt>
      <trkpt lat="42.315024621784687042236328125" lon="2.1864591725170612335205078125">
        <ele>947</ele>
        <time>2020-08-09T13:42:16.000Z</time>
      </trkpt>
      <trkpt lat="42.3149996437132358551025390625" lon="2.18630938790738582611083984375">
        <ele>946.20001220703125</ele>
        <time>2020-08-09T13:42:18.000Z</time>
      </trkpt>
      <trkpt lat="42.31494943611323833465576171875" lon="2.1861827373504638671875">
        <ele>945.20001220703125</ele>
        <time>2020-08-09T13:42:20.000Z</time>
      </trkpt>
      <trkpt lat="42.3148185946047306060791015625" lon="2.18610554002225399017333984375">
        <ele>943.79998779296875</ele>
        <time>2020-08-09T13:42:23.000Z</time>
      </trkpt>
      <trkpt lat="42.31471658684313297271728515625" lon="2.1860969066619873046875">
        <ele>943</ele>
        <time>2020-08-09T13:42:25.000Z</time>
      </trkpt>
      <trkpt lat="42.31466596014797687530517578125" lon="2.186085171997547149658203125">
        <ele>942.5999755859375</ele>
        <time>2020-08-09T13:42:26.000Z</time>
      </trkpt>
      <trkpt lat="42.31457828544080257415771484375" lon="2.18602222390472888946533203125">
        <ele>941.5999755859375</ele>
        <time>2020-08-09T13:42:28.000Z</time>
      </trkpt>
      <trkpt lat="42.314544506371021270751953125" lon="2.18597025610506534576416015625">
        <ele>941</ele>
        <time>2020-08-09T13:42:29.000Z</time>
      </trkpt>
      <trkpt lat="42.3145084641873836517333984375" lon="2.18584435991942882537841796875">
        <ele>940</ele>
        <time>2020-08-09T13:42:31.000Z</time>
      </trkpt>
      <trkpt lat="42.31450586579740047454833984375" lon="2.185778729617595672607421875">
        <ele>939.4000244140625</ele>
        <time>2020-08-09T13:42:32.000Z</time>
      </trkpt>
      <trkpt lat="42.31449916027486324310302734375" lon="2.18570991419255733489990234375">
        <ele>938.79998779296875</ele>
        <time>2020-08-09T13:42:33.000Z</time>
      </trkpt>
      <trkpt lat="42.3144682310521602630615234375" lon="2.1855727024376392364501953125">
        <ele>938</ele>
        <time>2020-08-09T13:42:35.000Z</time>
      </trkpt>
      <trkpt lat="42.31440746225416660308837890625" lon="2.18545158393681049346923828125">
        <ele>937.20001220703125</ele>
        <time>2020-08-09T13:42:37.000Z</time>
      </trkpt>
      <trkpt lat="42.31437292881309986114501953125" lon="2.18539441935718059539794921875">
        <ele>936.79998779296875</ele>
        <time>2020-08-09T13:42:38.000Z</time>
      </trkpt>
      <trkpt lat="42.31433403678238391876220703125" lon="2.185335494577884674072265625">
        <ele>936.4000244140625</ele>
        <time>2020-08-09T13:42:39.000Z</time>
      </trkpt>
      <trkpt lat="42.314291037619113922119140625" lon="2.18527548015117645263671875">
        <ele>936</ele>
        <time>2020-08-09T13:42:40.000Z</time>
      </trkpt>
      <trkpt lat="42.31420177035033702850341796875" lon="2.18514732085168361663818359375">
        <ele>935</ele>
        <time>2020-08-09T13:42:42.000Z</time>
      </trkpt>
      <trkpt lat="42.31411342509090900421142578125" lon="2.1850174851715564727783203125">
        <ele>933.79998779296875</ele>
        <time>2020-08-09T13:42:44.000Z</time>
      </trkpt>
      <trkpt lat="42.31406648643314838409423828125" lon="2.1849588118493556976318359375">
        <ele>933.4000244140625</ele>
        <time>2020-08-09T13:42:45.000Z</time>
      </trkpt>
      <trkpt lat="42.31401619501411914825439453125" lon="2.18490743078291416168212890625">
        <ele>933</ele>
        <time>2020-08-09T13:42:46.000Z</time>
      </trkpt>
      <trkpt lat="42.3139612935483455657958984375" lon="2.18486719764769077301025390625">
        <ele>932.20001220703125</ele>
        <time>2020-08-09T13:42:47.000Z</time>
      </trkpt>
      <trkpt lat="42.3138369061052799224853515625" lon="2.184822522103786468505859375">
        <ele>931.20001220703125</ele>
        <time>2020-08-09T13:42:49.000Z</time>
      </trkpt>
      <trkpt lat="42.31363330967724323272705078125" lon="2.184828557074069976806640625">
        <ele>930.20001220703125</ele>
        <time>2020-08-09T13:42:52.000Z</time>
      </trkpt>
      <trkpt lat="42.31349433772265911102294921875" lon="2.1848528645932674407958984375">
        <ele>929.20001220703125</ele>
        <time>2020-08-09T13:42:54.000Z</time>
      </trkpt>
      <trkpt lat="42.3134245164692401885986328125" lon="2.18486116267740726470947265625">
        <ele>928.5999755859375</ele>
        <time>2020-08-09T13:42:55.000Z</time>
      </trkpt>
      <trkpt lat="42.3133544437587261199951171875" lon="2.184860743582248687744140625">
        <ele>928</ele>
        <time>2020-08-09T13:42:56.000Z</time>
      </trkpt>
      <trkpt lat="42.31328294612467288970947265625" lon="2.18484238721430301666259765625">
        <ele>927.5999755859375</ele>
        <time>2020-08-09T13:42:57.000Z</time>
      </trkpt>
      <trkpt lat="42.313212789595127105712890625" lon="2.18480567447841167449951171875">
        <ele>926.79998779296875</ele>
        <time>2020-08-09T13:42:58.000Z</time>
      </trkpt>
      <trkpt lat="42.313072979450225830078125" lon="2.18470291234552860260009765625">
        <ele>925.79998779296875</ele>
        <time>2020-08-09T13:43:00.000Z</time>
      </trkpt>
      <trkpt lat="42.312922775745391845703125" lon="2.184600569307804107666015625">
        <ele>924.4000244140625</ele>
        <time>2020-08-09T13:43:02.000Z</time>
      </trkpt>
      <trkpt lat="42.31284566223621368408203125" lon="2.18455220572650432586669921875">
        <ele>923.79998779296875</ele>
        <time>2020-08-09T13:43:03.000Z</time>
      </trkpt>
      <trkpt lat="42.3127693869173526763916015625" lon="2.18450375832617282867431640625">
        <ele>923.4000244140625</ele>
        <time>2020-08-09T13:43:04.000Z</time>
      </trkpt>
      <trkpt lat="42.31262966059148311614990234375" lon="2.18440753407776355743408203125">
        <ele>922.20001220703125</ele>
        <time>2020-08-09T13:43:06.000Z</time>
      </trkpt>
      <trkpt lat="42.3125700652599334716796875" lon="2.18435347080230712890625">
        <ele>921.20001220703125</ele>
        <time>2020-08-09T13:43:07.000Z</time>
      </trkpt>
      <trkpt lat="42.3125189356505870819091796875" lon="2.184292785823345184326171875">
        <ele>920.5999755859375</ele>
        <time>2020-08-09T13:43:08.000Z</time>
      </trkpt>
      <trkpt lat="42.3124046064913272857666015625" lon="2.1840971522033214569091796875">
        <ele>919.20001220703125</ele>
        <time>2020-08-09T13:43:11.000Z</time>
      </trkpt>
      <trkpt lat="42.31236998923122882843017578125" lon="2.1840388141572475433349609375">
        <ele>918.5999755859375</ele>
        <time>2020-08-09T13:43:12.000Z</time>
      </trkpt>
      <trkpt lat="42.31228952296078205108642578125" lon="2.18393663875758647918701171875">
        <ele>918</ele>
        <time>2020-08-09T13:43:14.000Z</time>
      </trkpt>
      <trkpt lat="42.31219195760786533355712890625" lon="2.18382700346410274505615234375">
        <ele>916.79998779296875</ele>
        <time>2020-08-09T13:43:16.000Z</time>
      </trkpt>
      <trkpt lat="42.312137894332408905029296875" lon="2.183771096169948577880859375">
        <ele>916.5999755859375</ele>
        <time>2020-08-09T13:43:17.000Z</time>
      </trkpt>
      <trkpt lat="42.3120287619531154632568359375" lon="2.1836616285145282745361328125">
        <ele>915.4000244140625</ele>
        <time>2020-08-09T13:43:19.000Z</time>
      </trkpt>
      <trkpt lat="42.311976961791515350341796875" lon="2.18360312283039093017578125">
        <ele>914.79998779296875</ele>
        <time>2020-08-09T13:43:20.000Z</time>
      </trkpt>
      <trkpt lat="42.31189741753041744232177734375" lon="2.18346230685710906982421875">
        <ele>914</ele>
        <time>2020-08-09T13:43:22.000Z</time>
      </trkpt>
      <trkpt lat="42.31186992488801479339599609375" lon="2.18327413313090801239013671875">
        <ele>912.5999755859375</ele>
        <time>2020-08-09T13:43:24.000Z</time>
      </trkpt>
      <trkpt lat="42.3118758760392665863037109375" lon="2.1831741370260715484619140625">
        <ele>912</ele>
        <time>2020-08-09T13:43:25.000Z</time>
      </trkpt>
      <trkpt lat="42.3118866048753261566162109375" lon="2.1830752305686473846435546875">
        <ele>911.4000244140625</ele>
        <time>2020-08-09T13:43:26.000Z</time>
      </trkpt>
      <trkpt lat="42.3119008541107177734375" lon="2.18287683092057704925537109375">
        <ele>910.4000244140625</ele>
        <time>2020-08-09T13:43:28.000Z</time>
      </trkpt>
      <trkpt lat="42.311899848282337188720703125" lon="2.18277566134929656982421875">
        <ele>909.5999755859375</ele>
        <time>2020-08-09T13:43:29.000Z</time>
      </trkpt>
      <trkpt lat="42.3118946515023708343505859375" lon="2.18267197720706462860107421875">
        <ele>909</ele>
        <time>2020-08-09T13:43:30.000Z</time>
      </trkpt>
      <trkpt lat="42.311888448894023895263671875" lon="2.1825652755796909332275390625">
        <ele>908.79998779296875</ele>
        <time>2020-08-09T13:43:31.000Z</time>
      </trkpt>
      <trkpt lat="42.3118896223604679107666015625" lon="2.18246259726583957672119140625">
        <ele>908.20001220703125</ele>
        <time>2020-08-09T13:43:32.000Z</time>
      </trkpt>
      <trkpt lat="42.31190378777682781219482421875" lon="2.182366289198398590087890625">
        <ele>907.79998779296875</ele>
        <time>2020-08-09T13:43:33.000Z</time>
      </trkpt>
      <trkpt lat="42.31192675419151782989501953125" lon="2.18227584846317768096923828125">
        <ele>907</ele>
        <time>2020-08-09T13:43:34.000Z</time>
      </trkpt>
      <trkpt lat="42.3119550012052059173583984375" lon="2.18218817375600337982177734375">
        <ele>906.5999755859375</ele>
        <time>2020-08-09T13:43:35.000Z</time>
      </trkpt>
      <trkpt lat="42.31200202368199825286865234375" lon="2.1820130757987499237060546875">
        <ele>905.5999755859375</ele>
        <time>2020-08-09T13:43:37.000Z</time>
      </trkpt>
      <trkpt lat="42.3120163567364215850830078125" lon="2.18183328397572040557861328125">
        <ele>904.4000244140625</ele>
        <time>2020-08-09T13:43:39.000Z</time>
      </trkpt>
      <trkpt lat="42.3120096512138843536376953125" lon="2.181652821600437164306640625">
        <ele>903.20001220703125</ele>
        <time>2020-08-09T13:43:41.000Z</time>
      </trkpt>
      <trkpt lat="42.3120068013668060302734375" lon="2.18148392625153064727783203125">
        <ele>902.20001220703125</ele>
        <time>2020-08-09T13:43:43.000Z</time>
      </trkpt>
      <trkpt lat="42.31201359070837497711181640625" lon="2.18140178360044956207275390625">
        <ele>902</ele>
        <time>2020-08-09T13:43:44.000Z</time>
      </trkpt>
      <trkpt lat="42.31208324432373046875" lon="2.181158959865570068359375">
        <ele>901.20001220703125</ele>
        <time>2020-08-09T13:43:47.000Z</time>
      </trkpt>
      <trkpt lat="42.3121162690222263336181640625" lon="2.18108193017542362213134765625">
        <ele>900.20001220703125</ele>
        <time>2020-08-09T13:43:48.000Z</time>
      </trkpt>
      <trkpt lat="42.312237136065959930419921875" lon="2.180852182209491729736328125">
        <ele>899</ele>
        <time>2020-08-09T13:43:51.000Z</time>
      </trkpt>
      <trkpt lat="42.3123392276465892791748046875" lon="2.18071413226425647735595703125">
        <ele>897.79998779296875</ele>
        <time>2020-08-09T13:43:53.000Z</time>
      </trkpt>
      <trkpt lat="42.31244391761720180511474609375" lon="2.18058069236576557159423828125">
        <ele>896.79998779296875</ele>
        <time>2020-08-09T13:43:55.000Z</time>
      </trkpt>
      <trkpt lat="42.31259009800851345062255859375" lon="2.18034801073372364044189453125">
        <ele>895.4000244140625</ele>
        <time>2020-08-09T13:43:58.000Z</time>
      </trkpt>
      <trkpt lat="42.3126319237053394317626953125" lon="2.18025849200785160064697265625">
        <ele>895</ele>
        <time>2020-08-09T13:43:59.000Z</time>
      </trkpt>
      <trkpt lat="42.31267089955508708953857421875" lon="2.180165536701679229736328125">
        <ele>894.4000244140625</ele>
        <time>2020-08-09T13:44:00.000Z</time>
      </trkpt>
      <trkpt lat="42.31274105608463287353515625" lon="2.1799774467945098876953125">
        <ele>893.4000244140625</ele>
        <time>2020-08-09T13:44:02.000Z</time>
      </trkpt>
      <trkpt lat="42.31283702887594699859619140625" lon="2.17969137243926525115966796875">
        <ele>892.5999755859375</ele>
        <time>2020-08-09T13:44:05.000Z</time>
      </trkpt>
      <trkpt lat="42.312869131565093994140625" lon="2.17959799803793430328369140625">
        <ele>892.20001220703125</ele>
        <time>2020-08-09T13:44:06.000Z</time>
      </trkpt>
      <trkpt lat="42.3129589855670928955078125" lon="2.1793151088058948516845703125">
        <ele>891</ele>
        <time>2020-08-09T13:44:09.000Z</time>
      </trkpt>
      <trkpt lat="42.31302277185022830963134765625" lon="2.1790247596800327301025390625">
        <ele>890.20001220703125</ele>
        <time>2020-08-09T13:44:12.000Z</time>
      </trkpt>
      <trkpt lat="42.3130322434008121490478515625" lon="2.17892291955649852752685546875">
        <ele>889.79998779296875</ele>
        <time>2020-08-09T13:44:13.000Z</time>
      </trkpt>
      <trkpt lat="42.31304540298879146575927734375" lon="2.17849041335284709930419921875">
        <ele>888.79998779296875</ele>
        <time>2020-08-09T13:44:17.000Z</time>
      </trkpt>
      <trkpt lat="42.31304037384688854217529296875" lon="2.1782563067972660064697265625">
        <ele>887.5999755859375</ele>
        <time>2020-08-09T13:44:19.000Z</time>
      </trkpt>
      <trkpt lat="42.31304540298879146575927734375" lon="2.17801163904368877410888671875">
        <ele>886.4000244140625</ele>
        <time>2020-08-09T13:44:21.000Z</time>
      </trkpt>
      <trkpt lat="42.31306032277643680572509765625" lon="2.177767641842365264892578125">
        <ele>885.5999755859375</ele>
        <time>2020-08-09T13:44:23.000Z</time>
      </trkpt>
      <trkpt lat="42.3130674473941326141357421875" lon="2.17764585278928279876708984375">
        <ele>885</ele>
        <time>2020-08-09T13:44:24.000Z</time>
      </trkpt>
      <trkpt lat="42.3130832053720951080322265625" lon="2.1774067170917987823486328125">
        <ele>883.5999755859375</ele>
        <time>2020-08-09T13:44:26.000Z</time>
      </trkpt>
      <trkpt lat="42.313102148473262786865234375" lon="2.177177555859088897705078125">
        <ele>882.5999755859375</ele>
        <time>2020-08-09T13:44:28.000Z</time>
      </trkpt>
      <trkpt lat="42.31311162002384662628173828125" lon="2.17706548981368541717529296875">
        <ele>882.4000244140625</ele>
        <time>2020-08-09T13:44:29.000Z</time>
      </trkpt>
      <trkpt lat="42.31313240714371204376220703125" lon="2.1766637451946735382080078125">
        <ele>881.4000244140625</ele>
        <time>2020-08-09T13:44:33.000Z</time>
      </trkpt>
      <trkpt lat="42.31312536634504795074462890625" lon="2.176574058830738067626953125">
        <ele>881</ele>
        <time>2020-08-09T13:44:34.000Z</time>
      </trkpt>
      <trkpt lat="42.3130986280739307403564453125" lon="2.17640952207148075103759765625">
        <ele>880.20001220703125</ele>
        <time>2020-08-09T13:44:36.000Z</time>
      </trkpt>
      <trkpt lat="42.313049174845218658447265625" lon="2.17626594007015228271484375">
        <ele>879.5999755859375</ele>
        <time>2020-08-09T13:44:38.000Z</time>
      </trkpt>
      <trkpt lat="42.31297700665891170501708984375" lon="2.1761467494070529937744140625">
        <ele>879.20001220703125</ele>
        <time>2020-08-09T13:44:40.000Z</time>
      </trkpt>
      <trkpt lat="42.31293694116175174713134765625" lon="2.176092602312564849853515625">
        <ele>878.79998779296875</ele>
        <time>2020-08-09T13:44:41.000Z</time>
      </trkpt>
      <trkpt lat="42.31289922259747982025146484375" lon="2.17604004777967929840087890625">
        <ele>878.4000244140625</ele>
        <time>2020-08-09T13:44:42.000Z</time>
      </trkpt>
      <trkpt lat="42.31282646767795085906982421875" lon="2.1759361959993839263916015625">
        <ele>877.79998779296875</ele>
        <time>2020-08-09T13:44:44.000Z</time>
      </trkpt>
      <trkpt lat="42.31268263421952724456787109375" lon="2.1757306717336177825927734375">
        <ele>876.4000244140625</ele>
        <time>2020-08-09T13:44:48.000Z</time>
      </trkpt>
      <trkpt lat="42.31255690567195415496826171875" lon="2.17553981579840183258056640625">
        <ele>875.4000244140625</ele>
        <time>2020-08-09T13:44:52.000Z</time>
      </trkpt>
      <trkpt lat="42.31240703724324703216552734375" lon="2.1753162704408168792724609375">
        <ele>874.4000244140625</ele>
        <time>2020-08-09T13:44:58.000Z</time>
      </trkpt>
      <trkpt lat="42.3123769462108612060546875" lon="2.1752800606191158294677734375">
        <ele>874.20001220703125</ele>
        <time>2020-08-09T13:44:59.000Z</time>
      </trkpt>
      <trkpt lat="42.31218692846596240997314453125" lon="2.1750078164041042327880859375">
        <ele>873.4000244140625</ele>
        <time>2020-08-09T13:45:05.000Z</time>
      </trkpt>
      <trkpt lat="42.31215591542422771453857421875" lon="2.17495433986186981201171875">
        <ele>873.20001220703125</ele>
        <time>2020-08-09T13:45:06.000Z</time>
      </trkpt>
      <trkpt lat="42.31200906448066234588623046875" lon="2.17470900155603885650634765625">
        <ele>872.20001220703125</ele>
        <time>2020-08-09T13:45:11.000Z</time>
      </trkpt>
      <trkpt lat="42.311911918222904205322265625" lon="2.17457455582916736602783203125">
        <ele>871.5999755859375</ele>
        <time>2020-08-09T13:45:14.000Z</time>
      </trkpt>
      <trkpt lat="42.31184519827365875244140625" lon="2.17448386363685131072998046875">
        <ele>871.20001220703125</ele>
        <time>2020-08-09T13:45:16.000Z</time>
      </trkpt>
      <trkpt lat="42.3117454536259174346923828125" lon="2.17433533631265163421630859375">
        <ele>870.79998779296875</ele>
        <time>2020-08-09T13:45:20.000Z</time>
      </trkpt>
      <trkpt lat="42.31156951747834682464599609375" lon="2.1742051653563976287841796875">
        <ele>870.20001220703125</ele>
        <time>2020-08-09T13:45:26.000Z</time>
      </trkpt>
      <trkpt lat="42.3113484866917133331298828125" lon="2.17415730468928813934326171875">
        <ele>869.20001220703125</ele>
        <time>2020-08-09T13:45:32.000Z</time>
      </trkpt>
      <trkpt lat="42.31127279810607433319091796875" lon="2.174143306910991668701171875">
        <ele>869</ele>
        <time>2020-08-09T13:45:34.000Z</time>
      </trkpt>
      <trkpt lat="42.31103039346635341644287109375" lon="2.17409108765423297882080078125">
        <ele>868</ele>
        <time>2020-08-09T13:45:40.000Z</time>
      </trkpt>
      <trkpt lat="42.31094456277787685394287109375" lon="2.174048088490962982177734375">
        <ele>867.4000244140625</ele>
        <time>2020-08-09T13:45:42.000Z</time>
      </trkpt>
      <trkpt lat="42.3108132183551788330078125" lon="2.173953540623188018798828125">
        <ele>867</ele>
        <time>2020-08-09T13:45:45.000Z</time>
      </trkpt>
      <trkpt lat="42.31068371795117855072021484375" lon="2.17384792864322662353515625">
        <ele>866.4000244140625</ele>
        <time>2020-08-09T13:45:48.000Z</time>
      </trkpt>
      <trkpt lat="42.31054793111979961395263671875" lon="2.1737413108348846435546875">
        <ele>865.79998779296875</ele>
        <time>2020-08-09T13:45:51.000Z</time>
      </trkpt>
      <trkpt lat="42.31033067218959331512451171875" lon="2.17356269247829914093017578125">
        <ele>864.79998779296875</ele>
        <time>2020-08-09T13:45:56.000Z</time>
      </trkpt>
      <trkpt lat="42.31028951704502105712890625" lon="2.17352346517145633697509765625">
        <ele>864.5999755859375</ele>
        <time>2020-08-09T13:45:57.000Z</time>
      </trkpt>
      <trkpt lat="42.310116179287433624267578125" lon="2.1733233891427516937255859375">
        <ele>864</ele>
        <time>2020-08-09T13:46:02.000Z</time>
      </trkpt>
      <trkpt lat="42.310004532337188720703125" lon="2.17312549240887165069580078125">
        <ele>863.5999755859375</ele>
        <time>2020-08-09T13:46:06.000Z</time>
      </trkpt>
      <trkpt lat="42.3099617846310138702392578125" lon="2.17301351018249988555908203125">
        <ele>863.20001220703125</ele>
        <time>2020-08-09T13:46:08.000Z</time>
      </trkpt>
      <trkpt lat="42.30990990065038204193115234375" lon="2.1728362329304218292236328125">
        <ele>862.5999755859375</ele>
        <time>2020-08-09T13:46:11.000Z</time>
      </trkpt>
      <trkpt lat="42.3098424263298511505126953125" lon="2.17253498733043670654296875">
        <ele>861.5999755859375</ele>
        <time>2020-08-09T13:46:16.000Z</time>
      </trkpt>
      <trkpt lat="42.30982415378093719482421875" lon="2.17247539199888706207275390625">
        <ele>861.4000244140625</ele>
        <time>2020-08-09T13:46:17.000Z</time>
      </trkpt>
      <trkpt lat="42.30971376411616802215576171875" lon="2.1722686104476451873779296875">
        <ele>860.79998779296875</ele>
        <time>2020-08-09T13:46:21.000Z</time>
      </trkpt>
      <trkpt lat="42.309641428291797637939453125" lon="2.1721757389605045318603515625">
        <ele>860.5999755859375</ele>
        <time>2020-08-09T13:46:23.000Z</time>
      </trkpt>
      <trkpt lat="42.3094957508146762847900390625" lon="2.17196996323764324188232421875">
        <ele>860</ele>
        <time>2020-08-09T13:46:28.000Z</time>
      </trkpt>
      <trkpt lat="42.30940933339297771453857421875" lon="2.17184524051845073699951171875">
        <ele>859.5999755859375</ele>
        <time>2020-08-09T13:46:32.000Z</time>
      </trkpt>
      <trkpt lat="42.30937262065708637237548828125" lon="2.1717948652803897857666015625">
        <ele>859.5999755859375</ele>
        <time>2020-08-09T13:46:34.000Z</time>
      </trkpt>
      <trkpt lat="42.30928159318864345550537109375" lon="2.17165430076420307159423828125">
        <ele>859</ele>
        <time>2020-08-09T13:46:40.000Z</time>
      </trkpt>
      <trkpt lat="42.30921336449682712554931640625" lon="2.1715338528156280517578125">
        <ele>858.5999755859375</ele>
        <time>2020-08-09T13:46:43.000Z</time>
      </trkpt>
      <trkpt lat="42.3091701976954936981201171875" lon="2.17145296745002269744873046875">
        <ele>858.20001220703125</ele>
        <time>2020-08-09T13:46:45.000Z</time>
      </trkpt>
      <trkpt lat="42.30910724960267543792724609375" lon="2.17134601436555385589599609375">
        <ele>857.79998779296875</ele>
        <time>2020-08-09T13:46:48.000Z</time>
      </trkpt>
      <trkpt lat="42.3090635798871517181396484375" lon="2.17129320837557315826416015625">
        <ele>857.5999755859375</ele>
        <time>2020-08-09T13:46:50.000Z</time>
      </trkpt>
      <trkpt lat="42.30902477167546749114990234375" lon="2.171229422092437744140625">
        <ele>857.5999755859375</ele>
        <time>2020-08-09T13:46:52.000Z</time>
      </trkpt>
      <trkpt lat="42.30897213332355022430419921875" lon="2.1711266599595546722412109375">
        <ele>857.4000244140625</ele>
        <time>2020-08-09T13:46:55.000Z</time>
      </trkpt>
      <trkpt lat="42.30890273116528987884521484375" lon="2.1710425056517124176025390625">
        <ele>857.20001220703125</ele>
        <time>2020-08-09T13:46:59.000Z</time>
      </trkpt>
      <trkpt lat="42.308782450854778289794921875" lon="2.1709228120744228363037109375">
        <ele>857.4000244140625</ele>
        <time>2020-08-09T13:47:05.000Z</time>
      </trkpt>
      <trkpt lat="42.30875370092689990997314453125" lon="2.170872353017330169677734375">
        <ele>857.5999755859375</ele>
        <time>2020-08-09T13:47:07.000Z</time>
      </trkpt>
      <trkpt lat="42.3087447322905063629150390625" lon="2.170812673866748809814453125">
        <ele>857.79998779296875</ele>
        <time>2020-08-09T13:47:10.000Z</time>
      </trkpt>
      <trkpt lat="42.30875520966947078704833984375" lon="2.17079096473753452301025390625">
        <ele>857.79998779296875</ele>
        <time>2020-08-09T13:47:16.000Z</time>
      </trkpt>
      <trkpt lat="42.308764345943927764892578125" lon="2.17080052010715007781982421875">
        <ele>857.5999755859375</ele>
        <time>2020-08-09T13:47:28.000Z</time>
      </trkpt>
      <trkpt lat="42.30876761488616466522216796875" lon="2.17079934664070606231689453125">
        <ele>857.5999755859375</ele>
        <time>2020-08-09T13:47:44.000Z</time>
      </trkpt>
      <trkpt lat="42.3087675310671329498291015625" lon="2.170803286135196685791015625">
        <ele>857.5999755859375</ele>
        <time>2020-08-09T13:48:00.000Z</time>
      </trkpt>
      <trkpt lat="42.30874967761337757110595703125" lon="2.17077939771115779876708984375">
        <ele>857.5999755859375</ele>
        <time>2020-08-09T13:48:04.000Z</time>
      </trkpt>
      <trkpt lat="42.3087068460881710052490234375" lon="2.17074587009847164154052734375">
        <ele>857.5999755859375</ele>
        <time>2020-08-09T13:48:06.000Z</time>
      </trkpt>
      <trkpt lat="42.30865043587982654571533203125" lon="2.1707072295248508453369140625">
        <ele>857.5999755859375</ele>
        <time>2020-08-09T13:48:08.000Z</time>
      </trkpt>
      <trkpt lat="42.30856192298233509063720703125" lon="2.1706844307482242584228515625">
        <ele>857.4000244140625</ele>
        <time>2020-08-09T13:48:11.000Z</time>
      </trkpt>
      <trkpt lat="42.30853375978767871856689453125" lon="2.1706683374941349029541015625">
        <ele>857.20001220703125</ele>
        <time>2020-08-09T13:48:12.000Z</time>
      </trkpt>
      <trkpt lat="42.30846838094294071197509765625" lon="2.17063925229012966156005859375">
        <ele>857</ele>
        <time>2020-08-09T13:48:14.000Z</time>
      </trkpt>
      <trkpt lat="42.308391518890857696533203125" lon="2.17061930336058139801025390625">
        <ele>856.5999755859375</ele>
        <time>2020-08-09T13:48:17.000Z</time>
      </trkpt>
      <trkpt lat="42.30832136236131191253662109375" lon="2.17058778740465641021728515625">
        <ele>856</ele>
        <time>2020-08-09T13:48:21.000Z</time>
      </trkpt>
      <trkpt lat="42.3083108849823474884033203125" lon="2.170569933950901031494140625">
        <ele>855.79998779296875</ele>
        <time>2020-08-09T13:48:22.000Z</time>
      </trkpt>
      <trkpt lat="42.30827794410288333892822265625" lon="2.170478738844394683837890625">
        <ele>855.4000244140625</ele>
        <time>2020-08-09T13:48:27.000Z</time>
      </trkpt>
      <trkpt lat="42.3082515411078929901123046875" lon="2.170346640050411224365234375">
        <ele>855</ele>
        <time>2020-08-09T13:48:31.000Z</time>
      </trkpt>
      <trkpt lat="42.3082315921783447265625" lon="2.1703055687248706817626953125">
        <ele>854.79998779296875</ele>
        <time>2020-08-09T13:48:33.000Z</time>
      </trkpt>
      <trkpt lat="42.3082210309803485870361328125" lon="2.17028754763305187225341796875">
        <ele>854.79998779296875</ele>
        <time>2020-08-09T13:48:34.000Z</time>
      </trkpt>
      <trkpt lat="42.30815623886883258819580078125" lon="2.17024982906877994537353515625">
        <ele>855</ele>
        <time>2020-08-09T13:48:38.000Z</time>
      </trkpt>
      <trkpt lat="42.30807057581841945648193359375" lon="2.170247398316860198974609375">
        <ele>854.79998779296875</ele>
        <time>2020-08-09T13:48:42.000Z</time>
      </trkpt>
      <trkpt lat="42.30804543010890483856201171875" lon="2.1702505834400653839111328125">
        <ele>854.5999755859375</ele>
        <time>2020-08-09T13:48:43.000Z</time>
      </trkpt>
      <trkpt lat="42.30802061967551708221435546875" lon="2.17025368474423885345458984375">
        <ele>854.5999755859375</ele>
        <time>2020-08-09T13:48:44.000Z</time>
      </trkpt>
      <trkpt lat="42.3078854195773601531982421875" lon="2.17026525177061557769775390625">
        <ele>854.20001220703125</ele>
        <time>2020-08-09T13:48:49.000Z</time>
      </trkpt>
      <trkpt lat="42.30778056196868419647216796875" lon="2.1702666766941547393798828125">
        <ele>853.79998779296875</ele>
        <time>2020-08-09T13:48:54.000Z</time>
      </trkpt>
      <trkpt lat="42.30767545290291309356689453125" lon="2.17024630866944789886474609375">
        <ele>853.79998779296875</ele>
        <time>2020-08-09T13:49:00.000Z</time>
      </trkpt>
      <trkpt lat="42.3076503910124301910400390625" lon="2.17024169862270355224609375">
        <ele>853.5999755859375</ele>
        <time>2020-08-09T13:49:02.000Z</time>
      </trkpt>
      <trkpt lat="42.30761133134365081787109375" lon="2.170238681137561798095703125">
        <ele>853.20001220703125</ele>
        <time>2020-08-09T13:49:06.000Z</time>
      </trkpt>
      <trkpt lat="42.3075142689049243927001953125" lon="2.17020171694457530975341796875">
        <ele>853.20001220703125</ele>
        <time>2020-08-09T13:49:12.000Z</time>
      </trkpt>
      <trkpt lat="42.30737018398940563201904296875" lon="2.170060984790325164794921875">
        <ele>852.5999755859375</ele>
        <time>2020-08-09T13:49:17.000Z</time>
      </trkpt>
      <trkpt lat="42.30720288120210170745849609375" lon="2.16985219158232212066650390625">
        <ele>851.79998779296875</ele>
        <time>2020-08-09T13:49:23.000Z</time>
      </trkpt>
      <trkpt lat="42.30714437551796436309814453125" lon="2.1697895787656307220458984375">
        <ele>851.5999755859375</ele>
        <time>2020-08-09T13:49:25.000Z</time>
      </trkpt>
      <trkpt lat="42.30695863254368305206298828125" lon="2.1696138940751552581787109375">
        <ele>851</ele>
        <time>2020-08-09T13:49:31.000Z</time>
      </trkpt>
      <trkpt lat="42.306837178766727447509765625" lon="2.16952881775796413421630859375">
        <ele>850.79998779296875</ele>
        <time>2020-08-09T13:49:35.000Z</time>
      </trkpt>
      <trkpt lat="42.3067873902618885040283203125" lon="2.16951926238834857940673828125">
        <ele>850.79998779296875</ele>
        <time>2020-08-09T13:49:37.000Z</time>
      </trkpt>
      <trkpt lat="42.30665068142116069793701171875" lon="2.16942387633025646209716796875">
        <ele>850</ele>
        <time>2020-08-09T13:49:44.000Z</time>
      </trkpt>
      <trkpt lat="42.306643389165401458740234375" lon="2.16940728016197681427001953125">
        <ele>850</ele>
        <time>2020-08-09T13:49:45.000Z</time>
      </trkpt>
      <trkpt lat="42.306622602045536041259765625" lon="2.169384062290191650390625">
        <ele>849.79998779296875</ele>
        <time>2020-08-09T13:49:47.000Z</time>
      </trkpt>
      <trkpt lat="42.30660709552466869354248046875" lon="2.1693708188831806182861328125">
        <ele>849.5999755859375</ele>
        <time>2020-08-09T13:49:48.000Z</time>
      </trkpt>
      <trkpt lat="42.30649662204086780548095703125" lon="2.16923897154629230499267578125">
        <ele>849.4000244140625</ele>
        <time>2020-08-09T13:49:56.000Z</time>
      </trkpt>
      <trkpt lat="42.30643157847225666046142578125" lon="2.1691579185426235198974609375">
        <ele>849.4000244140625</ele>
        <time>2020-08-09T13:50:02.000Z</time>
      </trkpt>
      <trkpt lat="42.3063929378986358642578125" lon="2.1690367162227630615234375">
        <ele>849</ele>
        <time>2020-08-09T13:50:07.000Z</time>
      </trkpt>
      <trkpt lat="42.3063810355961322784423828125" lon="2.16897075064480304718017578125">
        <ele>848.79998779296875</ele>
        <time>2020-08-09T13:50:09.000Z</time>
      </trkpt>
      <trkpt lat="42.30636410415172576904296875" lon="2.16888424940407276153564453125">
        <ele>848.5999755859375</ele>
        <time>2020-08-09T13:50:12.000Z</time>
      </trkpt>
      <trkpt lat="42.30631825514137744903564453125" lon="2.1687938086688518524169921875">
        <ele>848.4000244140625</ele>
        <time>2020-08-09T13:50:17.000Z</time>
      </trkpt>
      <trkpt lat="42.30631540529429912567138671875" lon="2.168791629374027252197265625">
        <ele>848.4000244140625</ele>
        <time>2020-08-09T13:50:18.000Z</time>
      </trkpt>
      <trkpt lat="42.306270562112331390380859375" lon="2.1687891148030757904052734375">
        <ele>848.79998779296875</ele>
        <time>2020-08-09T13:50:26.000Z</time>
      </trkpt>
      <trkpt lat="42.306245081126689910888671875" lon="2.1687953174114227294921875">
        <ele>848.79998779296875</ele>
        <time>2020-08-09T13:50:34.000Z</time>
      </trkpt>
      <trkpt lat="42.30623225681483745574951171875" lon="2.1687845885753631591796875">
        <ele>848.79998779296875</ele>
        <time>2020-08-09T13:50:43.000Z</time>
      </trkpt>
      <trkpt lat="42.30622270144522190093994140625" lon="2.16876782476902008056640625">
        <ele>848.79998779296875</ele>
        <time>2020-08-09T13:50:49.000Z</time>
      </trkpt>
      <trkpt lat="42.30621792376041412353515625" lon="2.16875701211392879486083984375">
        <ele>848.79998779296875</ele>
        <time>2020-08-09T13:50:50.000Z</time>
      </trkpt>
      <trkpt lat="42.30619671754539012908935546875" lon="2.16870236210525035858154296875">
        <ele>849</ele>
        <time>2020-08-09T13:50:53.000Z</time>
      </trkpt>
      <trkpt lat="42.30616696178913116455078125" lon="2.16865005902945995330810546875">
        <ele>849</ele>
        <time>2020-08-09T13:50:55.000Z</time>
      </trkpt>
      <trkpt lat="42.3061000742018222808837890625" lon="2.16850421391427516937255859375">
        <ele>848.5999755859375</ele>
        <time>2020-08-09T13:51:00.000Z</time>
      </trkpt>
      <trkpt lat="42.30607719160616397857666015625" lon="2.1684317104518413543701171875">
        <ele>848.79998779296875</ele>
        <time>2020-08-09T13:51:02.000Z</time>
      </trkpt>
      <trkpt lat="42.3060390539467334747314453125" lon="2.16818704269826412200927734375">
        <ele>849</ele>
        <time>2020-08-09T13:51:09.000Z</time>
      </trkpt>
      <trkpt lat="42.30602069757878780364990234375" lon="2.16801873408257961273193359375">
        <ele>849</ele>
        <time>2020-08-09T13:51:15.000Z</time>
      </trkpt>
      <trkpt lat="42.30600628070533275604248046875" lon="2.1678332425653934478759765625">
        <ele>849.20001220703125</ele>
        <time>2020-08-09T13:51:21.000Z</time>
      </trkpt>
      <trkpt lat="42.30598616413772106170654296875" lon="2.16767641715705394744873046875">
        <ele>849.5999755859375</ele>
        <time>2020-08-09T13:51:27.000Z</time>
      </trkpt>
      <trkpt lat="42.30599521659314632415771484375" lon="2.1676647663116455078125">
        <ele>849.79998779296875</ele>
        <time>2020-08-09T13:51:28.000Z</time>
      </trkpt>
      <trkpt lat="42.30601885356009006500244140625" lon="2.16765395365655422210693359375">
        <ele>849.79998779296875</ele>
        <time>2020-08-09T13:51:31.000Z</time>
      </trkpt>
      <trkpt lat="42.30603553354740142822265625" lon="2.1676384471356868743896484375">
        <ele>849.4000244140625</ele>
        <time>2020-08-09T13:51:40.000Z</time>
      </trkpt>
      <trkpt lat="42.30603477917611598968505859375" lon="2.16763861477375030517578125">
        <ele>850</ele>
        <time>2020-08-09T13:51:50.000Z</time>
      </trkpt>
      <trkpt lat="42.30603276751935482025146484375" lon="2.16764573939144611358642578125">
        <ele>849.79998779296875</ele>
        <time>2020-08-09T13:52:03.000Z</time>
      </trkpt>
      <trkpt lat="42.30601633898913860321044921875" lon="2.1676350943744182586669921875">
        <ele>850</ele>
        <time>2020-08-09T13:52:12.000Z</time>
      </trkpt>
      <trkpt lat="42.3060172609984874725341796875" lon="2.16763718985021114349365234375">
        <ele>849.79998779296875</ele>
        <time>2020-08-09T13:52:13.000Z</time>
      </trkpt>
      <trkpt lat="42.306201159954071044921875" lon="2.1676553785800933837890625">
        <ele>860</ele>
        <time>2020-08-09T14:53:24.000Z</time>
      </trkpt>
      <trkpt lat="42.30619789101183414459228515625" lon="2.16762277297675609588623046875">
        <ele>860</ele>
        <time>2020-08-09T14:53:32.000Z</time>
      </trkpt>
      <trkpt lat="42.30617844499647617340087890625" lon="2.16754599474370479583740234375">
        <ele>860</ele>
        <time>2020-08-09T14:53:37.000Z</time>
      </trkpt>
      <trkpt lat="42.306104935705661773681640625" lon="2.167445160448551177978515625">
        <ele>859.5999755859375</ele>
        <time>2020-08-09T14:53:42.000Z</time>
      </trkpt>
      <trkpt lat="42.30607065372169017791748046875" lon="2.167382799088954925537109375">
        <ele>859.5999755859375</ele>
        <time>2020-08-09T14:53:44.000Z</time>
      </trkpt>
      <trkpt lat="42.306019775569438934326171875" lon="2.167183645069599151611328125">
        <ele>859.79998779296875</ele>
        <time>2020-08-09T14:53:48.000Z</time>
      </trkpt>
      <trkpt lat="42.3060477711260318756103515625" lon="2.1670304238796234130859375">
        <ele>860.20001220703125</ele>
        <time>2020-08-09T14:53:53.000Z</time>
      </trkpt>
      <trkpt lat="42.30607618577778339385986328125" lon="2.166993878781795501708984375">
        <ele>860.20001220703125</ele>
        <time>2020-08-09T14:53:55.000Z</time>
      </trkpt>
      <trkpt lat="42.3061017505824565887451171875" lon="2.1669514663517475128173828125">
        <ele>860.20001220703125</ele>
        <time>2020-08-09T14:53:57.000Z</time>
      </trkpt>
      <trkpt lat="42.30610518716275691986083984375" lon="2.16688935644924640655517578125">
        <ele>860.20001220703125</ele>
        <time>2020-08-09T14:53:59.000Z</time>
      </trkpt>
      <trkpt lat="42.3061564005911350250244140625" lon="2.1668455190956592559814453125">
        <ele>860.4000244140625</ele>
        <time>2020-08-09T14:54:02.000Z</time>
      </trkpt>
      <trkpt lat="42.3061758466064929962158203125" lon="2.1668317727744579315185546875">
        <ele>860.4000244140625</ele>
        <time>2020-08-09T14:54:03.000Z</time>
      </trkpt>
      <trkpt lat="42.30619244277477264404296875" lon="2.1668227203190326690673828125">
        <ele>860.5999755859375</ele>
        <time>2020-08-09T14:54:04.000Z</time>
      </trkpt>
      <trkpt lat="42.30624583549797534942626953125" lon="2.166796736419200897216796875">
        <ele>861</ele>
        <time>2020-08-09T14:54:07.000Z</time>
      </trkpt>
      <trkpt lat="42.3062749207019805908203125" lon="2.1667684055864810943603515625">
        <ele>861.20001220703125</ele>
        <time>2020-08-09T14:54:15.000Z</time>
      </trkpt>
      <trkpt lat="42.3063334263861179351806640625" lon="2.1666347980499267578125">
        <ele>860.5999755859375</ele>
        <time>2020-08-09T14:55:54.000Z</time>
      </trkpt>
      <trkpt lat="42.30636251159012317657470703125" lon="2.1666088141500949859619140625">
        <ele>860.79998779296875</ele>
        <time>2020-08-09T14:56:00.000Z</time>
      </trkpt>
      <trkpt lat="42.30642118491232395172119140625" lon="2.166518457233905792236328125">
        <ele>861</ele>
        <time>2020-08-09T14:56:05.000Z</time>
      </trkpt>
      <trkpt lat="42.3064678721129894256591796875" lon="2.1664666570723056793212890625">
        <ele>861.4000244140625</ele>
        <time>2020-08-09T14:56:08.000Z</time>
      </trkpt>
      <trkpt lat="42.3065404593944549560546875" lon="2.16638074256479740142822265625">
        <ele>861.4000244140625</ele>
        <time>2020-08-09T14:56:12.000Z</time>
      </trkpt>
      <trkpt lat="42.3066274635493755340576171875" lon="2.16627982445061206817626953125">
        <ele>861.79998779296875</ele>
        <time>2020-08-09T14:56:19.000Z</time>
      </trkpt>
      <trkpt lat="42.30661489069461822509765625" lon="2.16627714224159717559814453125">
        <ele>861.79998779296875</ele>
        <time>2020-08-09T14:56:30.000Z</time>
      </trkpt>
      <trkpt lat="42.30661262758076190948486328125" lon="2.1662725321948528289794921875">
        <ele>861.4000244140625</ele>
        <time>2020-08-09T14:56:35.000Z</time>
      </trkpt>
      <trkpt lat="42.30661195702850818634033203125" lon="2.16627026908099651336669921875">
        <ele>860.20001220703125</ele>
        <time>2020-08-09T14:56:39.000Z</time>
      </trkpt>
      <trkpt lat="42.30661095120012760162353515625" lon="2.166267670691013336181640625">
        <ele>859</ele>
        <time>2020-08-09T14:56:40.000Z</time>
      </trkpt>
      <trkpt lat="42.30661380104720592498779296875" lon="2.16626490466296672821044921875">
        <ele>862</ele>
        <time>2020-08-09T14:56:44.000Z</time>
      </trkpt>
      <trkpt lat="42.30661212466657161712646484375" lon="2.16626373119652271270751953125">
        <ele>863.20001220703125</ele>
        <time>2020-08-09T14:56:45.000Z</time>
      </trkpt>
      <trkpt lat="42.3066103644669055938720703125" lon="2.16626121662557125091552734375">
        <ele>862</ele>
        <time>2020-08-09T14:56:50.000Z</time>
      </trkpt>
      <trkpt lat="42.30660944245755672454833984375" lon="2.1662607975304126739501953125">
        <ele>861.5999755859375</ele>
        <time>2020-08-09T14:56:53.000Z</time>
      </trkpt>
      <trkpt lat="42.30661195702850818634033203125" lon="2.16625065542757511138916015625">
        <ele>861.20001220703125</ele>
        <time>2020-08-09T14:57:03.000Z</time>
      </trkpt>
      <trkpt lat="42.30661229230463504791259765625" lon="2.16624646447598934173583984375">
        <ele>861.20001220703125</ele>
        <time>2020-08-09T14:57:14.000Z</time>
      </trkpt>
      <trkpt lat="42.30661195702850818634033203125" lon="2.16624277643859386444091796875">
        <ele>861.20001220703125</ele>
        <time>2020-08-09T14:57:23.000Z</time>
      </trkpt>
      <trkpt lat="42.3066075146198272705078125" lon="2.16623405925929546356201171875">
        <ele>861.20001220703125</ele>
        <time>2020-08-09T14:57:32.000Z</time>
      </trkpt>
      <trkpt lat="42.30660743080079555511474609375" lon="2.16623246669769287109375">
        <ele>861.20001220703125</ele>
        <time>2020-08-09T14:57:40.000Z</time>
      </trkpt>
      <trkpt lat="42.30661078356206417083740234375" lon="2.16623020358383655548095703125">
        <ele>861.79998779296875</ele>
        <time>2020-08-09T14:57:46.000Z</time>
      </trkpt>
      <trkpt lat="42.30660743080079555511474609375" lon="2.16622970066964626312255859375">
        <ele>862.20001220703125</ele>
        <time>2020-08-09T14:58:09.000Z</time>
      </trkpt>
      <trkpt lat="42.3066100291907787322998046875" lon="2.16621461324393749237060546875">
        <ele>862.4000244140625</ele>
        <time>2020-08-09T14:58:19.000Z</time>
      </trkpt>
      <trkpt lat="42.306664176285266876220703125" lon="2.166138924658298492431640625">
        <ele>862.4000244140625</ele>
        <time>2020-08-09T14:58:25.000Z</time>
      </trkpt>
      <trkpt lat="42.30680675245821475982666015625" lon="2.16596231795847415924072265625">
        <ele>862.79998779296875</ele>
        <time>2020-08-09T14:58:32.000Z</time>
      </trkpt>
      <trkpt lat="42.3069114424288272857666015625" lon="2.1658396907150745391845703125">
        <ele>863.20001220703125</ele>
        <time>2020-08-09T14:58:37.000Z</time>
      </trkpt>
      <trkpt lat="42.3069776594638824462890625" lon="2.16578328050673007965087890625">
        <ele>863.4000244140625</ele>
        <time>2020-08-09T14:58:40.000Z</time>
      </trkpt>
      <trkpt lat="42.3071059025824069976806640625" lon="2.16564715839922428131103515625">
        <ele>863.79998779296875</ele>
        <time>2020-08-09T14:58:46.000Z</time>
      </trkpt>
      <trkpt lat="42.30716465972363948822021484375" lon="2.1655704639852046966552734375">
        <ele>864</ele>
        <time>2020-08-09T14:58:49.000Z</time>
      </trkpt>
      <trkpt lat="42.3072349838912487030029296875" lon="2.1654903329908847808837890625">
        <ele>864.20001220703125</ele>
        <time>2020-08-09T14:58:52.000Z</time>
      </trkpt>
      <trkpt lat="42.3072581179440021514892578125" lon="2.1654635109007358551025390625">
        <ele>864.4000244140625</ele>
        <time>2020-08-09T14:58:53.000Z</time>
      </trkpt>
      <trkpt lat="42.3074180446565151214599609375" lon="2.16525639407336711883544921875">
        <ele>865.5999755859375</ele>
        <time>2020-08-09T14:59:00.000Z</time>
      </trkpt>
      <trkpt lat="42.30744059197604656219482421875" lon="2.1652234531939029693603515625">
        <ele>865.5999755859375</ele>
        <time>2020-08-09T14:59:01.000Z</time>
      </trkpt>
      <trkpt lat="42.3076044581830501556396484375" lon="2.165001332759857177734375">
        <ele>866.4000244140625</ele>
        <time>2020-08-09T14:59:08.000Z</time>
      </trkpt>
      <trkpt lat="42.30767830274999141693115234375" lon="2.1649119816720485687255859375">
        <ele>866.79998779296875</ele>
        <time>2020-08-09T14:59:11.000Z</time>
      </trkpt>
      <trkpt lat="42.30774301104247570037841796875" lon="2.16481626033782958984375">
        <ele>867.20001220703125</ele>
        <time>2020-08-09T14:59:14.000Z</time>
      </trkpt>
      <trkpt lat="42.30785675346851348876953125" lon="2.16465809382498264312744140625">
        <ele>867.79998779296875</ele>
        <time>2020-08-09T14:59:19.000Z</time>
      </trkpt>
      <trkpt lat="42.307877205312252044677734375" lon="2.1646280027925968170166015625">
        <ele>868</ele>
        <time>2020-08-09T14:59:20.000Z</time>
      </trkpt>
      <trkpt lat="42.3079849965870380401611328125" lon="2.1644684113562107086181640625">
        <ele>869</ele>
        <time>2020-08-09T14:59:25.000Z</time>
      </trkpt>
      <trkpt lat="42.3080077953636646270751953125" lon="2.1644385717809200286865234375">
        <ele>869.20001220703125</ele>
        <time>2020-08-09T14:59:26.000Z</time>
      </trkpt>
      <trkpt lat="42.3081586696207523345947265625" lon="2.1642169542610645294189453125">
        <ele>870.20001220703125</ele>
        <time>2020-08-09T14:59:33.000Z</time>
      </trkpt>
      <trkpt lat="42.3082907684147357940673828125" lon="2.16384974308311939239501953125">
        <ele>871</ele>
        <time>2020-08-09T14:59:42.000Z</time>
      </trkpt>
      <trkpt lat="42.30831683613359928131103515625" lon="2.16376441530883312225341796875">
        <ele>871.20001220703125</ele>
        <time>2020-08-09T14:59:44.000Z</time>
      </trkpt>
      <trkpt lat="42.30838824994862079620361328125" lon="2.163489572703838348388671875">
        <ele>872</ele>
        <time>2020-08-09T14:59:50.000Z</time>
      </trkpt>
      <trkpt lat="42.308408282697200775146484375" lon="2.1633911691606044769287109375">
        <ele>872.5999755859375</ele>
        <time>2020-08-09T14:59:52.000Z</time>
      </trkpt>
      <trkpt lat="42.30845597572624683380126953125" lon="2.1632081083953380584716796875">
        <ele>872.79998779296875</ele>
        <time>2020-08-09T14:59:56.000Z</time>
      </trkpt>
      <trkpt lat="42.30850392021238803863525390625" lon="2.16302881948649883270263671875">
        <ele>873.79998779296875</ele>
        <time>2020-08-09T15:00:00.000Z</time>
      </trkpt>
      <trkpt lat="42.30853308923542499542236328125" lon="2.16289940290153026580810546875">
        <ele>874</ele>
        <time>2020-08-09T15:00:03.000Z</time>
      </trkpt>
      <trkpt lat="42.30862495489418506622314453125" lon="2.1625613607466220855712890625">
        <ele>875</ele>
        <time>2020-08-09T15:00:11.000Z</time>
      </trkpt>
      <trkpt lat="42.3086354322731494903564453125" lon="2.1625187806785106658935546875">
        <ele>875.20001220703125</ele>
        <time>2020-08-09T15:00:12.000Z</time>
      </trkpt>
      <trkpt lat="42.308682538568973541259765625" lon="2.1622465364634990692138671875">
        <ele>875.5999755859375</ele>
        <time>2020-08-09T15:00:18.000Z</time>
      </trkpt>
      <trkpt lat="42.3087051697075366973876953125" lon="2.16211703605949878692626953125">
        <ele>876.20001220703125</ele>
        <time>2020-08-09T15:00:21.000Z</time>
      </trkpt>
      <trkpt lat="42.30873660184442996978759765625" lon="2.1619934029877185821533203125">
        <ele>876.79998779296875</ele>
        <time>2020-08-09T15:00:24.000Z</time>
      </trkpt>
      <trkpt lat="42.30878622271120548248291015625" lon="2.16189038939774036407470703125">
        <ele>877</ele>
        <time>2020-08-09T15:00:27.000Z</time>
      </trkpt>
      <trkpt lat="42.30882394127547740936279296875" lon="2.1618294529616832733154296875">
        <ele>877</ele>
        <time>2020-08-09T15:00:29.000Z</time>
      </trkpt>
      <trkpt lat="42.30885596014559268951416015625" lon="2.16176189482212066650390625">
        <ele>877.20001220703125</ele>
        <time>2020-08-09T15:00:31.000Z</time>
      </trkpt>
      <trkpt lat="42.3088684491813182830810546875" lon="2.16172702610492706298828125">
        <ele>877.4000244140625</ele>
        <time>2020-08-09T15:00:32.000Z</time>
      </trkpt>
      <trkpt lat="42.30891346000134944915771484375" lon="2.1615652553737163543701171875">
        <ele>878</ele>
        <time>2020-08-09T15:00:36.000Z</time>
      </trkpt>
      <trkpt lat="42.30895771645009517669677734375" lon="2.16139711439609527587890625">
        <ele>878.4000244140625</ele>
        <time>2020-08-09T15:00:40.000Z</time>
      </trkpt>
      <trkpt lat="42.30900515802204608917236328125" lon="2.1612906642258167266845703125">
        <ele>878.79998779296875</ele>
        <time>2020-08-09T15:00:43.000Z</time>
      </trkpt>
      <trkpt lat="42.30906986631453037261962890625" lon="2.16115211136639118194580078125">
        <ele>879.20001220703125</ele>
        <time>2020-08-09T15:00:47.000Z</time>
      </trkpt>
      <trkpt lat="42.30908981524407863616943359375" lon="2.16112730093300342559814453125">
        <ele>879.4000244140625</ele>
        <time>2020-08-09T15:00:48.000Z</time>
      </trkpt>
      <trkpt lat="42.30916927568614482879638671875" lon="2.16102562844753265380859375">
        <ele>880.4000244140625</ele>
        <time>2020-08-09T15:00:52.000Z</time>
      </trkpt>
      <trkpt lat="42.30921738781034946441650390625" lon="2.16092638671398162841796875">
        <ele>880.5999755859375</ele>
        <time>2020-08-09T15:00:55.000Z</time>
      </trkpt>
      <trkpt lat="42.30924873612821102142333984375" lon="2.16081767342984676361083984375">
        <ele>881</ele>
        <time>2020-08-09T15:00:58.000Z</time>
      </trkpt>
      <trkpt lat="42.30923817493021488189697265625" lon="2.16065288521349430084228515625">
        <ele>881.5999755859375</ele>
        <time>2020-08-09T15:01:02.000Z</time>
      </trkpt>
      <trkpt lat="42.30922912247478961944580078125" lon="2.16057895682752132415771484375">
        <ele>881.79998779296875</ele>
        <time>2020-08-09T15:01:04.000Z</time>
      </trkpt>
      <trkpt lat="42.30917505919933319091796875" lon="2.160314507782459259033203125">
        <ele>882.5999755859375</ele>
        <time>2020-08-09T15:01:11.000Z</time>
      </trkpt>
      <trkpt lat="42.3091587983071804046630859375" lon="2.16024066321551799774169921875">
        <ele>882.5999755859375</ele>
        <time>2020-08-09T15:01:13.000Z</time>
      </trkpt>
      <trkpt lat="42.30911546386778354644775390625" lon="2.16006967239081859588623046875">
        <ele>883.5999755859375</ele>
        <time>2020-08-09T15:01:18.000Z</time>
      </trkpt>
      <trkpt lat="42.3090967722237110137939453125" lon="2.16000479646027088165283203125">
        <ele>884</ele>
        <time>2020-08-09T15:01:20.000Z</time>
      </trkpt>
      <trkpt lat="42.30905544944107532501220703125" lon="2.1598206460475921630859375">
        <ele>884</ele>
        <time>2020-08-09T15:01:25.000Z</time>
      </trkpt>
      <trkpt lat="42.309050001204013824462890625" lon="2.1595551073551177978515625">
        <ele>885</ele>
        <time>2020-08-09T15:01:32.000Z</time>
      </trkpt>
      <trkpt lat="42.3090538568794727325439453125" lon="2.15948159806430339813232421875">
        <ele>885.20001220703125</ele>
        <time>2020-08-09T15:01:34.000Z</time>
      </trkpt>
      <trkpt lat="42.30907313525676727294921875" lon="2.15934782288968563079833984375">
        <ele>885.79998779296875</ele>
        <time>2020-08-09T15:01:38.000Z</time>
      </trkpt>
      <trkpt lat="42.30912971310317516326904296875" lon="2.1592112816870212554931640625">
        <ele>886.20001220703125</ele>
        <time>2020-08-09T15:01:42.000Z</time>
      </trkpt>
      <trkpt lat="42.30916575528681278228759765625" lon="2.15915554203093051910400390625">
        <ele>886.5999755859375</ele>
        <time>2020-08-09T15:01:44.000Z</time>
      </trkpt>
      <trkpt lat="42.30933473445475101470947265625" lon="2.1589252911508083343505859375">
        <ele>887.20001220703125</ele>
        <time>2020-08-09T15:01:52.000Z</time>
      </trkpt>
      <trkpt lat="42.3093559406697750091552734375" lon="2.158897630870342254638671875">
        <ele>887.4000244140625</ele>
        <time>2020-08-09T15:01:53.000Z</time>
      </trkpt>
      <trkpt lat="42.309415452182292938232421875" lon="2.15876880101859569549560546875">
        <ele>887.5999755859375</ele>
        <time>2020-08-09T15:01:57.000Z</time>
      </trkpt>
      <trkpt lat="42.30946599505841732025146484375" lon="2.15853377245366573333740234375">
        <ele>888.4000244140625</ele>
        <time>2020-08-09T15:02:03.000Z</time>
      </trkpt>
      <trkpt lat="42.30948594398796558380126953125" lon="2.15842011384665966033935546875">
        <ele>888.5999755859375</ele>
        <time>2020-08-09T15:02:06.000Z</time>
      </trkpt>
      <trkpt lat="42.30949818156659603118896484375" lon="2.1583083830773830413818359375">
        <ele>889</ele>
        <time>2020-08-09T15:02:09.000Z</time>
      </trkpt>
      <trkpt lat="42.3095406778156757354736328125" lon="2.15809539891779422760009765625">
        <ele>889.79998779296875</ele>
        <time>2020-08-09T15:02:15.000Z</time>
      </trkpt>
      <trkpt lat="42.30958535335958003997802734375" lon="2.1578936465084552764892578125">
        <ele>890.5999755859375</ele>
        <time>2020-08-09T15:02:21.000Z</time>
      </trkpt>
      <trkpt lat="42.30959214270114898681640625" lon="2.1578577719628810882568359375">
        <ele>890.79998779296875</ele>
        <time>2020-08-09T15:02:22.000Z</time>
      </trkpt>
      <trkpt lat="42.30962189845740795135498046875" lon="2.15766591019928455352783203125">
        <ele>891.4000244140625</ele>
        <time>2020-08-09T15:02:27.000Z</time>
      </trkpt>
      <trkpt lat="42.30964084155857563018798828125" lon="2.15747061185538768768310546875">
        <ele>892</ele>
        <time>2020-08-09T15:02:32.000Z</time>
      </trkpt>
      <trkpt lat="42.30966280214488506317138671875" lon="2.1572401933372020721435546875">
        <ele>892.4000244140625</ele>
        <time>2020-08-09T15:02:38.000Z</time>
      </trkpt>
      <trkpt lat="42.30970102362334728240966796875" lon="2.15701580978929996490478515625">
        <ele>893.20001220703125</ele>
        <time>2020-08-09T15:02:44.000Z</time>
      </trkpt>
      <trkpt lat="42.30972298420965671539306640625" lon="2.15694598853588104248046875">
        <ele>893.79998779296875</ele>
        <time>2020-08-09T15:02:46.000Z</time>
      </trkpt>
      <trkpt lat="42.30974460951983928680419921875" lon="2.1568298153579235076904296875">
        <ele>894.20001220703125</ele>
        <time>2020-08-09T15:02:49.000Z</time>
      </trkpt>
      <trkpt lat="42.30978953652083873748779296875" lon="2.1566454134881496429443359375">
        <ele>894.4000244140625</ele>
        <time>2020-08-09T15:02:53.000Z</time>
      </trkpt>
      <trkpt lat="42.30983915738761425018310546875" lon="2.1564408950507640838623046875">
        <ele>895.4000244140625</ele>
        <time>2020-08-09T15:03:00.000Z</time>
      </trkpt>
      <trkpt lat="42.30989581905305385589599609375" lon="2.15617728419601917266845703125">
        <ele>896.20001220703125</ele>
        <time>2020-08-09T15:03:07.000Z</time>
      </trkpt>
      <trkpt lat="42.309913001954555511474609375" lon="2.15610955841839313507080078125">
        <ele>896.5999755859375</ele>
        <time>2020-08-09T15:03:09.000Z</time>
      </trkpt>
      <trkpt lat="42.30995063669979572296142578125" lon="2.15594016015529632568359375">
        <ele>897</ele>
        <time>2020-08-09T15:03:14.000Z</time>
      </trkpt>
      <trkpt lat="42.30999656952917575836181640625" lon="2.15576388873159885406494140625">
        <ele>897.79998779296875</ele>
        <time>2020-08-09T15:03:19.000Z</time>
      </trkpt>
      <trkpt lat="42.3100058734416961669921875" lon="2.15572969056665897369384765625">
        <ele>898</ele>
        <time>2020-08-09T15:03:20.000Z</time>
      </trkpt>
      <trkpt lat="42.31005289591848850250244140625" lon="2.1555259265005588531494140625">
        <ele>899</ele>
        <time>2020-08-09T15:03:26.000Z</time>
      </trkpt>
      <trkpt lat="42.3100610263645648956298828125" lon="2.15549315325915813446044921875">
        <ele>899</ele>
        <time>2020-08-09T15:03:27.000Z</time>
      </trkpt>
      <trkpt lat="42.31010436080396175384521484375" lon="2.15528394095599651336669921875">
        <ele>899.5999755859375</ele>
        <time>2020-08-09T15:03:33.000Z</time>
      </trkpt>
      <trkpt lat="42.31011609546840190887451171875" lon="2.15521001257002353668212890625">
        <ele>900</ele>
        <time>2020-08-09T15:03:35.000Z</time>
      </trkpt>
      <trkpt lat="42.310157082974910736083984375" lon="2.15496006421744823455810546875">
        <ele>901.20001220703125</ele>
        <time>2020-08-09T15:03:41.000Z</time>
      </trkpt>
      <trkpt lat="42.310157082974910736083984375" lon="2.15496006421744823455810546875">
        <ele>901.4000244140625</ele>
        <time>2020-08-09T15:03:42.000Z</time>
      </trkpt>
      <trkpt lat="42.310197651386260986328125" lon="2.15475261211395263671875">
        <ele>902.4000244140625</ele>
        <time>2020-08-09T15:03:47.000Z</time>
      </trkpt>
      <trkpt lat="42.31021047569811344146728515625" lon="2.154681868851184844970703125">
        <ele>902.5999755859375</ele>
        <time>2020-08-09T15:03:50.000Z</time>
      </trkpt>
      <trkpt lat="42.310234867036342620849609375" lon="2.15450291521847248077392578125">
        <ele>903.5999755859375</ele>
        <time>2020-08-09T15:03:55.000Z</time>
      </trkpt>
      <trkpt lat="42.310236878693103790283203125" lon="2.15446762740612030029296875">
        <ele>903.5999755859375</ele>
        <time>2020-08-09T15:03:56.000Z</time>
      </trkpt>
      <trkpt lat="42.3102400638163089752197265625" lon="2.1542837284505367279052734375">
        <ele>904.4000244140625</ele>
        <time>2020-08-09T15:04:01.000Z</time>
      </trkpt>
      <trkpt lat="42.31023830361664295196533203125" lon="2.15421239845454692840576171875">
        <ele>904.79998779296875</ele>
        <time>2020-08-09T15:04:03.000Z</time>
      </trkpt>
      <trkpt lat="42.31018415652215480804443359375" lon="2.15398524887859821319580078125">
        <ele>905.4000244140625</ele>
        <time>2020-08-09T15:04:09.000Z</time>
      </trkpt>
      <trkpt lat="42.3101284168660640716552734375" lon="2.15380218811333179473876953125">
        <ele>905.79998779296875</ele>
        <time>2020-08-09T15:04:14.000Z</time>
      </trkpt>
      <trkpt lat="42.3100905306637287139892578125" lon="2.153665982186794281005859375">
        <ele>906.20001220703125</ele>
        <time>2020-08-09T15:04:17.000Z</time>
      </trkpt>
      <trkpt lat="42.310014255344867706298828125" lon="2.15340077877044677734375">
        <ele>906.5999755859375</ele>
        <time>2020-08-09T15:04:26.000Z</time>
      </trkpt>
      <trkpt lat="42.310004197061061859130859375" lon="2.15336884371936321258544921875">
        <ele>907</ele>
        <time>2020-08-09T15:04:27.000Z</time>
      </trkpt>
      <trkpt lat="42.30991275049746036529541015625" lon="2.1530695259571075439453125">
        <ele>908</ele>
        <time>2020-08-09T15:04:35.000Z</time>
      </trkpt>
      <trkpt lat="42.3099021054804325103759765625" lon="2.15303557924926280975341796875">
        <ele>908.20001220703125</ele>
        <time>2020-08-09T15:04:37.000Z</time>
      </trkpt>
      <trkpt lat="42.30986245907843112945556640625" lon="2.15277917683124542236328125">
        <ele>909.20001220703125</ele>
        <time>2020-08-09T15:04:44.000Z</time>
      </trkpt>
      <trkpt lat="42.30986413545906543731689453125" lon="2.15274472720921039581298828125">
        <ele>909.4000244140625</ele>
        <time>2020-08-09T15:04:45.000Z</time>
      </trkpt>
      <trkpt lat="42.30991291813552379608154296875" lon="2.15251590125262737274169921875">
        <ele>910.20001220703125</ele>
        <time>2020-08-09T15:04:52.000Z</time>
      </trkpt>
      <trkpt lat="42.30993010103702545166015625" lon="2.15245194733142852783203125">
        <ele>910.4000244140625</ele>
        <time>2020-08-09T15:04:53.000Z</time>
      </trkpt>
      <trkpt lat="42.3100070469081401824951171875" lon="2.15219755657017230987548828125">
        <ele>911.5999755859375</ele>
        <time>2020-08-09T15:05:02.000Z</time>
      </trkpt>
      <trkpt lat="42.3100214637815952301025390625" lon="2.15216872282326221466064453125">
        <ele>911.5999755859375</ele>
        <time>2020-08-09T15:05:03.000Z</time>
      </trkpt>
      <trkpt lat="42.310112826526165008544921875" lon="2.15204684995114803314208984375">
        <ele>912.5999755859375</ele>
        <time>2020-08-09T15:05:08.000Z</time>
      </trkpt>
      <trkpt lat="42.31015674769878387451171875" lon="2.15200896374881267547607421875">
        <ele>912.79998779296875</ele>
        <time>2020-08-09T15:05:10.000Z</time>
      </trkpt>
      <trkpt lat="42.31030887924134731292724609375" lon="2.15192648582160472869873046875">
        <ele>913.5999755859375</ele>
        <time>2020-08-09T15:05:16.000Z</time>
      </trkpt>
      <trkpt lat="42.31038934551179409027099609375" lon="2.15189413167536258697509765625">
        <ele>913.79998779296875</ele>
        <time>2020-08-09T15:05:19.000Z</time>
      </trkpt>
      <trkpt lat="42.31049059890210628509521484375" lon="2.15184786356985569000244140625">
        <ele>914.5999755859375</ele>
        <time>2020-08-09T15:05:23.000Z</time>
      </trkpt>
      <trkpt lat="42.31061515398323535919189453125" lon="2.15179069899022579193115234375">
        <ele>915.20001220703125</ele>
        <time>2020-08-09T15:05:28.000Z</time>
      </trkpt>
      <trkpt lat="42.3107473365962505340576171875" lon="2.15175993740558624267578125">
        <ele>916</ele>
        <time>2020-08-09T15:05:33.000Z</time>
      </trkpt>
      <trkpt lat="42.31082654558122158050537109375" lon="2.15175448916852474212646484375">
        <ele>916.4000244140625</ele>
        <time>2020-08-09T15:05:35.000Z</time>
      </trkpt>
      <trkpt lat="42.31090642511844635009765625" lon="2.151750884950160980224609375">
        <ele>917</ele>
        <time>2020-08-09T15:05:39.000Z</time>
      </trkpt>
      <trkpt lat="42.31101346202194690704345703125" lon="2.151752226054668426513671875">
        <ele>917.4000244140625</ele>
        <time>2020-08-09T15:05:43.000Z</time>
      </trkpt>
      <trkpt lat="42.31114489026367664337158203125" lon="2.1517379768192768096923828125">
        <ele>918</ele>
        <time>2020-08-09T15:05:48.000Z</time>
      </trkpt>
      <trkpt lat="42.31126341037452220916748046875" lon="2.15172884054481983184814453125">
        <ele>918.5999755859375</ele>
        <time>2020-08-09T15:05:52.000Z</time>
      </trkpt>
      <trkpt lat="42.31131076812744140625" lon="2.1517337858676910400390625">
        <ele>919.4000244140625</ele>
        <time>2020-08-09T15:05:55.000Z</time>
      </trkpt>
      <trkpt lat="42.3114287853240966796875" lon="2.15171207673847675323486328125">
        <ele>920</ele>
        <time>2020-08-09T15:05:59.000Z</time>
      </trkpt>
      <trkpt lat="42.3114698566496372222900390625" lon="2.15167184360325336456298828125">
        <ele>920.4000244140625</ele>
        <time>2020-08-09T15:06:02.000Z</time>
      </trkpt>
      <trkpt lat="42.31155325658619403839111328125" lon="2.15152214281260967254638671875">
        <ele>920.5999755859375</ele>
        <time>2020-08-09T15:06:06.000Z</time>
      </trkpt>
      <trkpt lat="42.3115991055965423583984375" lon="2.15133656747639179229736328125">
        <ele>921.4000244140625</ele>
        <time>2020-08-09T15:06:12.000Z</time>
      </trkpt>
      <trkpt lat="42.311616875231266021728515625" lon="2.1512317098677158355712890625">
        <ele>921.5999755859375</ele>
        <time>2020-08-09T15:06:15.000Z</time>
      </trkpt>
      <trkpt lat="42.3116522468626499176025390625" lon="2.150869108736515045166015625">
        <ele>922.79998779296875</ele>
        <time>2020-08-09T15:06:24.000Z</time>
      </trkpt>
      <trkpt lat="42.3116851039230823516845703125" lon="2.1505738981068134307861328125">
        <ele>923.79998779296875</ele>
        <time>2020-08-09T15:06:33.000Z</time>
      </trkpt>
      <trkpt lat="42.3116931505501270294189453125" lon="2.15049519203603267669677734375">
        <ele>923.79998779296875</ele>
        <time>2020-08-09T15:06:34.000Z</time>
      </trkpt>
      <trkpt lat="42.31173682026565074920654296875" lon="2.15019352734088897705078125">
        <ele>925</ele>
        <time>2020-08-09T15:06:43.000Z</time>
      </trkpt>
      <trkpt lat="42.3117434419691562652587890625" lon="2.1501548029482364654541015625">
        <ele>925</ele>
        <time>2020-08-09T15:06:44.000Z</time>
      </trkpt>
      <trkpt lat="42.31182105839252471923828125" lon="2.1497833169996738433837890625">
        <ele>926</ele>
        <time>2020-08-09T15:06:53.000Z</time>
      </trkpt>
      <trkpt lat="42.31182105839252471923828125" lon="2.1497833169996738433837890625">
        <ele>926.20001220703125</ele>
        <time>2020-08-09T15:06:54.000Z</time>
      </trkpt>
      <trkpt lat="42.3119275085628032684326171875" lon="2.14949338696897029876708984375">
        <ele>927</ele>
        <time>2020-08-09T15:07:03.000Z</time>
      </trkpt>
      <trkpt lat="42.3119717650115489959716796875" lon="2.1494071371853351593017578125">
        <ele>927.4000244140625</ele>
        <time>2020-08-09T15:07:05.000Z</time>
      </trkpt>
      <trkpt lat="42.31203320436179637908935546875" lon="2.14929498732089996337890625">
        <ele>928.5999755859375</ele>
        <time>2020-08-09T15:07:10.000Z</time>
      </trkpt>
      <trkpt lat="42.31208869256079196929931640625" lon="2.14918560348451137542724609375">
        <ele>929.5999755859375</ele>
        <time>2020-08-09T15:07:14.000Z</time>
      </trkpt>
      <trkpt lat="42.3121176101267337799072265625" lon="2.14913497678935527801513671875">
        <ele>929.79998779296875</ele>
        <time>2020-08-09T15:07:16.000Z</time>
      </trkpt>
      <trkpt lat="42.31223118491470813751220703125" lon="2.14893599040806293487548828125">
        <ele>930.79998779296875</ele>
        <time>2020-08-09T15:07:24.000Z</time>
      </trkpt>
      <trkpt lat="42.312243171036243438720703125" lon="2.14890782721340656280517578125">
        <ele>931</ele>
        <time>2020-08-09T15:07:25.000Z</time>
      </trkpt>
      <trkpt lat="42.31232640333473682403564453125" lon="2.14876382611691951751708984375">
        <ele>932</ele>
        <time>2020-08-09T15:07:31.000Z</time>
      </trkpt>
      <trkpt lat="42.31235356070101261138916015625" lon="2.1487164683640003204345703125">
        <ele>932.20001220703125</ele>
        <time>2020-08-09T15:07:33.000Z</time>
      </trkpt>
      <trkpt lat="42.31242656707763671875" lon="2.14857104234397411346435546875">
        <ele>933.5999755859375</ele>
        <time>2020-08-09T15:07:39.000Z</time>
      </trkpt>
      <trkpt lat="42.31250426732003688812255859375" lon="2.14842184446752071380615234375">
        <ele>934.5999755859375</ele>
        <time>2020-08-09T15:07:45.000Z</time>
      </trkpt>
      <trkpt lat="42.3125445842742919921875" lon="2.1483510173857212066650390625">
        <ele>934.79998779296875</ele>
        <time>2020-08-09T15:07:47.000Z</time>
      </trkpt>
      <trkpt lat="42.3126061074435710906982421875" lon="2.14823207817971706390380859375">
        <ele>935.5999755859375</ele>
        <time>2020-08-09T15:07:52.000Z</time>
      </trkpt>
      <trkpt lat="42.3126637749373912811279296875" lon="2.14812965132296085357666015625">
        <ele>936.20001220703125</ele>
        <time>2020-08-09T15:07:56.000Z</time>
      </trkpt>
      <trkpt lat="42.312720604240894317626953125" lon="2.14803166687488555908203125">
        <ele>936.79998779296875</ele>
        <time>2020-08-09T15:08:00.000Z</time>
      </trkpt>
      <trkpt lat="42.312787659466266632080078125" lon="2.1479084528982639312744140625">
        <ele>937.79998779296875</ele>
        <time>2020-08-09T15:08:05.000Z</time>
      </trkpt>
      <trkpt lat="42.31286569498479366302490234375" lon="2.1477612666785717010498046875">
        <ele>938.79998779296875</ele>
        <time>2020-08-09T15:08:11.000Z</time>
      </trkpt>
      <trkpt lat="42.3128783516585826873779296875" lon="2.147737629711627960205078125">
        <ele>939.20001220703125</ele>
        <time>2020-08-09T15:08:13.000Z</time>
      </trkpt>
      <trkpt lat="42.3129601590335369110107421875" lon="2.14759136550128459930419921875">
        <ele>940.4000244140625</ele>
        <time>2020-08-09T15:08:18.000Z</time>
      </trkpt>
      <trkpt lat="42.31301606632769107818603515625" lon="2.147460021078586578369140625">
        <ele>941</ele>
        <time>2020-08-09T15:08:23.000Z</time>
      </trkpt>
      <trkpt lat="42.3130312375724315643310546875" lon="2.147343344986438751220703125">
        <ele>941.4000244140625</ele>
        <time>2020-08-09T15:08:27.000Z</time>
      </trkpt>
      <trkpt lat="42.31303769163787364959716796875" lon="2.14725759811699390411376953125">
        <ele>942.20001220703125</ele>
        <time>2020-08-09T15:08:31.000Z</time>
      </trkpt>
      <trkpt lat="42.3130433075129985809326171875" lon="2.14720160700380802154541015625">
        <ele>942.4000244140625</ele>
        <time>2020-08-09T15:08:33.000Z</time>
      </trkpt>
      <trkpt lat="42.31302981264889240264892578125" lon="2.1470333822071552276611328125">
        <ele>943.20001220703125</ele>
        <time>2020-08-09T15:08:39.000Z</time>
      </trkpt>
      <trkpt lat="42.31302377767860889434814453125" lon="2.14694671332836151123046875">
        <ele>943.79998779296875</ele>
        <time>2020-08-09T15:08:42.000Z</time>
      </trkpt>
      <trkpt lat="42.31301472522318363189697265625" lon="2.146773040294647216796875">
        <ele>944.4000244140625</ele>
        <time>2020-08-09T15:08:47.000Z</time>
      </trkpt>
      <trkpt lat="42.3130144737660884857177734375" lon="2.14674429036676883697509765625">
        <ele>944.79998779296875</ele>
        <time>2020-08-09T15:08:49.000Z</time>
      </trkpt>
      <trkpt lat="42.31302696280181407928466796875" lon="2.146553099155426025390625">
        <ele>945.5999755859375</ele>
        <time>2020-08-09T15:08:54.000Z</time>
      </trkpt>
      <trkpt lat="42.3130188323557376861572265625" lon="2.1463993750512599945068359375">
        <ele>946</ele>
        <time>2020-08-09T15:08:59.000Z</time>
      </trkpt>
      <trkpt lat="42.31300332583487033843994140625" lon="2.14630206115543842315673828125">
        <ele>946.20001220703125</ele>
        <time>2020-08-09T15:09:03.000Z</time>
      </trkpt>
      <trkpt lat="42.3129920102655887603759765625" lon="2.146135680377483367919921875">
        <ele>947.20001220703125</ele>
        <time>2020-08-09T15:09:08.000Z</time>
      </trkpt>
      <trkpt lat="42.3129920102655887603759765625" lon="2.146135680377483367919921875">
        <ele>947.20001220703125</ele>
        <time>2020-08-09T15:09:09.000Z</time>
      </trkpt>
      <trkpt lat="42.31298337690532207489013671875" lon="2.1459561400115489959716796875">
        <ele>948.20001220703125</ele>
        <time>2020-08-09T15:09:15.000Z</time>
      </trkpt>
      <trkpt lat="42.31297683902084827423095703125" lon="2.14589134790003299713134765625">
        <ele>948.20001220703125</ele>
        <time>2020-08-09T15:09:16.000Z</time>
      </trkpt>
      <trkpt lat="42.31297080405056476593017578125" lon="2.145774252712726593017578125">
        <ele>948.79998779296875</ele>
        <time>2020-08-09T15:09:21.000Z</time>
      </trkpt>
      <trkpt lat="42.312941886484622955322265625" lon="2.145587503910064697265625">
        <ele>949.5999755859375</ele>
        <time>2020-08-09T15:09:26.000Z</time>
      </trkpt>
      <trkpt lat="42.3129286430776119232177734375" lon="2.14552287943661212921142578125">
        <ele>950</ele>
        <time>2020-08-09T15:09:28.000Z</time>
      </trkpt>
      <trkpt lat="42.3128535412251949310302734375" lon="2.14529656805098056793212890625">
        <ele>950.5999755859375</ele>
        <time>2020-08-09T15:09:36.000Z</time>
      </trkpt>
      <trkpt lat="42.31282294727861881256103515625" lon="2.14520302601158618927001953125">
        <ele>951</ele>
        <time>2020-08-09T15:09:38.000Z</time>
      </trkpt>
      <trkpt lat="42.3127656988799571990966796875" lon="2.145018875598907470703125">
        <ele>951.5999755859375</ele>
        <time>2020-08-09T15:09:45.000Z</time>
      </trkpt>
      <trkpt lat="42.31274113990366458892822265625" lon="2.14489976875483989715576171875">
        <ele>952</ele>
        <time>2020-08-09T15:09:48.000Z</time>
      </trkpt>
      <trkpt lat="42.3127395473420619964599609375" lon="2.1448400057852268218994140625">
        <ele>952.5999755859375</ele>
        <time>2020-08-09T15:09:51.000Z</time>
      </trkpt>
      <trkpt lat="42.31274331919848918914794921875" lon="2.1446586214005947113037109375">
        <ele>953.20001220703125</ele>
        <time>2020-08-09T15:09:56.000Z</time>
      </trkpt>
      <trkpt lat="42.312737368047237396240234375" lon="2.14456466026604175567626953125">
        <ele>953.79998779296875</ele>
        <time>2020-08-09T15:09:59.000Z</time>
      </trkpt>
      <trkpt lat="42.3127256333827972412109375" lon="2.14447178877890110015869140625">
        <ele>954.4000244140625</ele>
        <time>2020-08-09T15:10:03.000Z</time>
      </trkpt>
      <trkpt lat="42.31269705109298229217529296875" lon="2.14428135193884372711181640625">
        <ele>955.4000244140625</ele>
        <time>2020-08-09T15:10:09.000Z</time>
      </trkpt>
      <trkpt lat="42.31268766336143016815185546875" lon="2.14421848766505718231201171875">
        <ele>955.5999755859375</ele>
        <time>2020-08-09T15:10:10.000Z</time>
      </trkpt>
      <trkpt lat="42.3126386292278766632080078125" lon="2.143969796597957611083984375">
        <ele>956.79998779296875</ele>
        <time>2020-08-09T15:10:19.000Z</time>
      </trkpt>
      <trkpt lat="42.3126255534589290618896484375" lon="2.14390969835221767425537109375">
        <ele>957</ele>
        <time>2020-08-09T15:10:21.000Z</time>
      </trkpt>
      <trkpt lat="42.31254081241786479949951171875" lon="2.143677435815334320068359375">
        <ele>957.79998779296875</ele>
        <time>2020-08-09T15:10:28.000Z</time>
      </trkpt>
      <trkpt lat="42.31252849102020263671875" lon="2.143648602068424224853515625">
        <ele>958</ele>
        <time>2020-08-09T15:10:29.000Z</time>
      </trkpt>
      <trkpt lat="42.3124709911644458770751953125" lon="2.14349948801100254058837890625">
        <ele>958.79998779296875</ele>
        <time>2020-08-09T15:10:34.000Z</time>
      </trkpt>
      <trkpt lat="42.3124364577233791351318359375" lon="2.143327407538890838623046875">
        <ele>959.5999755859375</ele>
        <time>2020-08-09T15:10:40.000Z</time>
      </trkpt>
      <trkpt lat="42.3124408163130283355712890625" lon="2.1431535668671131134033203125">
        <ele>960</ele>
        <time>2020-08-09T15:10:45.000Z</time>
      </trkpt>
      <trkpt lat="42.3124388046562671661376953125" lon="2.143003530800342559814453125">
        <ele>960.4000244140625</ele>
        <time>2020-08-09T15:10:48.000Z</time>
      </trkpt>
      <trkpt lat="42.31238340027630329132080078125" lon="2.14279339648783206939697265625">
        <ele>960.79998779296875</ele>
        <time>2020-08-09T15:10:55.000Z</time>
      </trkpt>
      <trkpt lat="42.31231215409934520721435546875" lon="2.14267194271087646484375">
        <ele>961.20001220703125</ele>
        <time>2020-08-09T15:10:58.000Z</time>
      </trkpt>
      <trkpt lat="42.312263287603855133056640625" lon="2.1426265127956867218017578125">
        <ele>961.4000244140625</ele>
        <time>2020-08-09T15:11:00.000Z</time>
      </trkpt>
      <trkpt lat="42.3119999282062053680419921875" lon="2.1424209885299205780029296875">
        <ele>961.5999755859375</ele>
        <time>2020-08-09T15:11:10.000Z</time>
      </trkpt>
      <trkpt lat="42.311813347041606903076171875" lon="2.142208926379680633544921875">
        <ele>962.20001220703125</ele>
        <time>2020-08-09T15:11:19.000Z</time>
      </trkpt>
      <trkpt lat="42.3117052204906940460205078125" lon="2.14190189726650714874267578125">
        <ele>962.4000244140625</ele>
        <time>2020-08-09T15:11:27.000Z</time>
      </trkpt>
      <trkpt lat="42.311601452529430389404296875" lon="2.1414946205914020538330078125">
        <ele>962.79998779296875</ele>
        <time>2020-08-09T15:11:36.000Z</time>
      </trkpt>
      <trkpt lat="42.3115338943898677825927734375" lon="2.140996567904949188232421875">
        <ele>963.4000244140625</ele>
        <time>2020-08-09T15:11:48.000Z</time>
      </trkpt>
      <trkpt lat="42.31151252053678035736083984375" lon="2.14082867838442325592041015625">
        <ele>963.5999755859375</ele>
        <time>2020-08-09T15:11:52.000Z</time>
      </trkpt>
      <trkpt lat="42.31148452498018741607666015625" lon="2.14058853685855865478515625">
        <ele>964.4000244140625</ele>
        <time>2020-08-09T15:11:58.000Z</time>
      </trkpt>
      <trkpt lat="42.3114514164626598358154296875" lon="2.14025183580815792083740234375">
        <ele>965</ele>
        <time>2020-08-09T15:12:06.000Z</time>
      </trkpt>
      <trkpt lat="42.31144781224429607391357421875" lon="2.1401665918529033660888671875">
        <ele>965</ele>
        <time>2020-08-09T15:12:08.000Z</time>
      </trkpt>
      <trkpt lat="42.3114768974483013153076171875" lon="2.13993005454540252685546875">
        <ele>965.5999755859375</ele>
        <time>2020-08-09T15:12:15.000Z</time>
      </trkpt>
      <trkpt lat="42.31150112114846706390380859375" lon="2.1398650109767913818359375">
        <ele>966</ele>
        <time>2020-08-09T15:12:16.000Z</time>
      </trkpt>
      <trkpt lat="42.31157287023961544036865234375" lon="2.13975478895008563995361328125">
        <ele>966.5999755859375</ele>
        <time>2020-08-09T15:12:21.000Z</time>
      </trkpt>
      <trkpt lat="42.311632633209228515625" lon="2.139680273830890655517578125">
        <ele>967</ele>
        <time>2020-08-09T15:12:23.000Z</time>
      </trkpt>
      <trkpt lat="42.3117129318416118621826171875" lon="2.13953183032572269439697265625">
        <ele>967.79998779296875</ele>
        <time>2020-08-09T15:12:28.000Z</time>
      </trkpt>
      <trkpt lat="42.3117330484092235565185546875" lon="2.13945706374943256378173828125">
        <ele>968</ele>
        <time>2020-08-09T15:12:30.000Z</time>
      </trkpt>
      <trkpt lat="42.31174218468368053436279296875" lon="2.13930107653141021728515625">
        <ele>968.4000244140625</ele>
        <time>2020-08-09T15:12:34.000Z</time>
      </trkpt>
      <trkpt lat="42.31168736703693866729736328125" lon="2.13900142349302768707275390625">
        <ele>969</ele>
        <time>2020-08-09T15:12:43.000Z</time>
      </trkpt>
      <trkpt lat="42.31166775338351726531982421875" lon="2.13889614678919315338134765625">
        <ele>969.4000244140625</ele>
        <time>2020-08-09T15:12:45.000Z</time>
      </trkpt>
      <trkpt lat="42.3116447031497955322265625" lon="2.1386816538870334625244140625">
        <ele>970.20001220703125</ele>
        <time>2020-08-09T15:12:51.000Z</time>
      </trkpt>
      <trkpt lat="42.31163959018886089324951171875" lon="2.13857419788837432861328125">
        <ele>970.4000244140625</ele>
        <time>2020-08-09T15:12:54.000Z</time>
      </trkpt>
      <trkpt lat="42.31163330376148223876953125" lon="2.13836071081459522247314453125">
        <ele>971</ele>
        <time>2020-08-09T15:13:00.000Z</time>
      </trkpt>
      <trkpt lat="42.3116358183324337005615234375" lon="2.13821972720324993133544921875">
        <ele>971.79998779296875</ele>
        <time>2020-08-09T15:13:04.000Z</time>
      </trkpt>
      <trkpt lat="42.31163154356181621551513671875" lon="2.1380727924406528472900390625">
        <ele>972.4000244140625</ele>
        <time>2020-08-09T15:13:08.000Z</time>
      </trkpt>
      <trkpt lat="42.3116237483918666839599609375" lon="2.1379661746323108673095703125">
        <ele>972.79998779296875</ele>
        <time>2020-08-09T15:13:11.000Z</time>
      </trkpt>
      <trkpt lat="42.31161410920321941375732421875" lon="2.1377445571124553680419921875">
        <ele>973.20001220703125</ele>
        <time>2020-08-09T15:13:17.000Z</time>
      </trkpt>
      <trkpt lat="42.3115991055965423583984375" lon="2.13755839504301548004150390625">
        <ele>973.79998779296875</ele>
        <time>2020-08-09T15:13:22.000Z</time>
      </trkpt>
      <trkpt lat="42.31157697737216949462890625" lon="2.13734306395053863525390625">
        <ele>974.79998779296875</ele>
        <time>2020-08-09T15:13:28.000Z</time>
      </trkpt>
      <trkpt lat="42.31157186441123485565185546875" lon="2.13730811141431331634521484375">
        <ele>974.79998779296875</ele>
        <time>2020-08-09T15:13:29.000Z</time>
      </trkpt>
      <trkpt lat="42.31153230182826519012451171875" lon="2.13696730323135852813720703125">
        <ele>976</ele>
        <time>2020-08-09T15:13:38.000Z</time>
      </trkpt>
      <trkpt lat="42.311527021229267120361328125" lon="2.13692975230515003204345703125">
        <ele>976.20001220703125</ele>
        <time>2020-08-09T15:13:39.000Z</time>
      </trkpt>
      <trkpt lat="42.311502210795879364013671875" lon="2.1366624534130096435546875">
        <ele>977.20001220703125</ele>
        <time>2020-08-09T15:13:46.000Z</time>
      </trkpt>
      <trkpt lat="42.3114926554262638092041015625" lon="2.13659028522670269012451171875">
        <ele>977.5999755859375</ele>
        <time>2020-08-09T15:13:49.000Z</time>
      </trkpt>
      <trkpt lat="42.31145904399454593658447265625" lon="2.13629105128347873687744140625">
        <ele>978.4000244140625</ele>
        <time>2020-08-09T15:13:56.000Z</time>
      </trkpt>
      <trkpt lat="42.311460636556148529052734375" lon="2.13621242903172969818115234375">
        <ele>978.5999755859375</ele>
        <time>2020-08-09T15:13:58.000Z</time>
      </trkpt>
      <trkpt lat="42.3115347325801849365234375" lon="2.135985195636749267578125">
        <ele>979.5999755859375</ele>
        <time>2020-08-09T15:14:05.000Z</time>
      </trkpt>
      <trkpt lat="42.31166104786098003387451171875" lon="2.1358658373355865478515625">
        <ele>980.4000244140625</ele>
        <time>2020-08-09T15:14:11.000Z</time>
      </trkpt>
      <trkpt lat="42.311683930456638336181640625" lon="2.13584639132022857666015625">
        <ele>980.5999755859375</ele>
        <time>2020-08-09T15:14:12.000Z</time>
      </trkpt>
      <trkpt lat="42.3118222318589687347412109375" lon="2.13575008325278759002685546875">
        <ele>981.5999755859375</ele>
        <time>2020-08-09T15:14:19.000Z</time>
      </trkpt>
      <trkpt lat="42.3118664883077144622802734375" lon="2.1357156336307525634765625">
        <ele>982</ele>
        <time>2020-08-09T15:14:20.000Z</time>
      </trkpt>
      <trkpt lat="42.31197251938283443450927734375" lon="2.1356056630611419677734375">
        <ele>982.20001220703125</ele>
        <time>2020-08-09T15:14:25.000Z</time>
      </trkpt>
      <trkpt lat="42.3119821585714817047119140625" lon="2.13556987233459949493408203125">
        <ele>982.20001220703125</ele>
        <time>2020-08-09T15:14:26.000Z</time>
      </trkpt>
      <trkpt lat="42.31198727153241634368896484375" lon="2.135492004454135894775390625">
        <ele>982.4000244140625</ele>
        <time>2020-08-09T15:14:28.000Z</time>
      </trkpt>
      <trkpt lat="42.3119818232953548431396484375" lon="2.13544934056699275970458984375">
        <ele>982.5999755859375</ele>
        <time>2020-08-09T15:14:29.000Z</time>
      </trkpt>
      <trkpt lat="42.3119214735925197601318359375" lon="2.13524700142443180084228515625">
        <ele>983</ele>
        <time>2020-08-09T15:14:34.000Z</time>
      </trkpt>
      <trkpt lat="42.3119077272713184356689453125" lon="2.1352148987352848052978515625">
        <ele>983</ele>
        <time>2020-08-09T15:14:35.000Z</time>
      </trkpt>
      <trkpt lat="42.31178560294210910797119140625" lon="2.13496570475399494171142578125">
        <ele>983.4000244140625</ele>
        <time>2020-08-09T15:14:42.000Z</time>
      </trkpt>
      <trkpt lat="42.31175995431840419769287109375" lon="2.134697735309600830078125">
        <ele>984</ele>
        <time>2020-08-09T15:14:49.000Z</time>
      </trkpt>
      <trkpt lat="42.311763055622577667236328125" lon="2.1346588432788848876953125">
        <ele>984.20001220703125</ele>
        <time>2020-08-09T15:14:50.000Z</time>
      </trkpt>
      <trkpt lat="42.3117555119097232818603515625" lon="2.13442540727555751800537109375">
        <ele>984.79998779296875</ele>
        <time>2020-08-09T15:14:56.000Z</time>
      </trkpt>
      <trkpt lat="42.31175928376615047454833984375" lon="2.13407437317073345184326171875">
        <ele>985.4000244140625</ele>
        <time>2020-08-09T15:15:05.000Z</time>
      </trkpt>
      <trkpt lat="42.31175056658685207366943359375" lon="2.13375317864120006561279296875">
        <ele>986.20001220703125</ele>
        <time>2020-08-09T15:15:13.000Z</time>
      </trkpt>
      <trkpt lat="42.3117595352232456207275390625" lon="2.1335975266993045806884765625">
        <ele>986.4000244140625</ele>
        <time>2020-08-09T15:15:17.000Z</time>
      </trkpt>
      <trkpt lat="42.3117591999471187591552734375" lon="2.13348512537777423858642578125">
        <ele>986.5999755859375</ele>
        <time>2020-08-09T15:15:20.000Z</time>
      </trkpt>
      <trkpt lat="42.31174386106431484222412109375" lon="2.13312386535108089447021484375">
        <ele>987.79998779296875</ele>
        <time>2020-08-09T15:15:30.000Z</time>
      </trkpt>
      <trkpt lat="42.3117291927337646484375" lon="2.13290400803089141845703125">
        <ele>988.5999755859375</ele>
        <time>2020-08-09T15:15:36.000Z</time>
      </trkpt>
      <trkpt lat="42.3117323778569698333740234375" lon="2.13282982818782329559326171875">
        <ele>988.79998779296875</ele>
        <time>2020-08-09T15:15:38.000Z</time>
      </trkpt>
      <trkpt lat="42.3117719404399394989013671875" lon="2.132611982524394989013671875">
        <ele>989.20001220703125</ele>
        <time>2020-08-09T15:15:44.000Z</time>
      </trkpt>
      <trkpt lat="42.31183958239853382110595703125" lon="2.1324475295841693878173828125">
        <ele>990</ele>
        <time>2020-08-09T15:15:49.000Z</time>
      </trkpt>
      <trkpt lat="42.31187562458217144012451171875" lon="2.1323865093290805816650390625">
        <ele>990</ele>
        <time>2020-08-09T15:15:51.000Z</time>
      </trkpt>
      <trkpt lat="42.31198358349502086639404296875" lon="2.1322148479521274566650390625">
        <ele>991</ele>
        <time>2020-08-09T15:15:57.000Z</time>
      </trkpt>
      <trkpt lat="42.3120113275945186614990234375" lon="2.132149636745452880859375">
        <ele>991.20001220703125</ele>
        <time>2020-08-09T15:15:59.000Z</time>
      </trkpt>
      <trkpt lat="42.3121038638055324554443359375" lon="2.1319258399307727813720703125">
        <ele>992</ele>
        <time>2020-08-09T15:16:06.000Z</time>
      </trkpt>
      <trkpt lat="42.31217569671571254730224609375" lon="2.1316874586045742034912109375">
        <ele>992.79998779296875</ele>
        <time>2020-08-09T15:16:13.000Z</time>
      </trkpt>
      <trkpt lat="42.31220855377614498138427734375" lon="2.13158913888037204742431640625">
        <ele>993.4000244140625</ele>
        <time>2020-08-09T15:16:16.000Z</time>
      </trkpt>
      <trkpt lat="42.3122708313167095184326171875" lon="2.13137774728238582611083984375">
        <ele>994</ele>
        <time>2020-08-09T15:16:22.000Z</time>
      </trkpt>
      <trkpt lat="42.31234484352171421051025390625" lon="2.1312148869037628173828125">
        <ele>994.4000244140625</ele>
        <time>2020-08-09T15:16:27.000Z</time>
      </trkpt>
      <trkpt lat="42.31241860426962375640869140625" lon="2.13109754025936126708984375">
        <ele>995</ele>
        <time>2020-08-09T15:16:31.000Z</time>
      </trkpt>
      <trkpt lat="42.3124961368739604949951171875" lon="2.1309936046600341796875">
        <ele>995.5999755859375</ele>
        <time>2020-08-09T15:16:35.000Z</time>
      </trkpt>
      <trkpt lat="42.31260367669165134429931640625" lon="2.13088388554751873016357421875">
        <ele>995.79998779296875</ele>
        <time>2020-08-09T15:16:40.000Z</time>
      </trkpt>
      <trkpt lat="42.31273175217211246490478515625" lon="2.13075916282832622528076171875">
        <ele>996.5999755859375</ele>
        <time>2020-08-09T15:16:46.000Z</time>
      </trkpt>
      <trkpt lat="42.31277734972536563873291015625" lon="2.13072161190211772918701171875">
        <ele>996.79998779296875</ele>
        <time>2020-08-09T15:16:48.000Z</time>
      </trkpt>
      <trkpt lat="42.31294163502752780914306640625" lon="2.13059504516422748565673828125">
        <ele>997.5999755859375</ele>
        <time>2020-08-09T15:16:55.000Z</time>
      </trkpt>
      <trkpt lat="42.31307658366858959197998046875" lon="2.13055933825671672821044921875">
        <ele>998.20001220703125</ele>
        <time>2020-08-09T15:17:00.000Z</time>
      </trkpt>
      <trkpt lat="42.31326903216540813446044921875" lon="2.1305067837238311767578125">
        <ele>998.79998779296875</ele>
        <time>2020-08-09T15:17:07.000Z</time>
      </trkpt>
      <trkpt lat="42.31329836882650852203369140625" lon="2.130500413477420806884765625">
        <ele>998.79998779296875</ele>
        <time>2020-08-09T15:17:08.000Z</time>
      </trkpt>
      <trkpt lat="42.3134781606495380401611328125" lon="2.130395807325839996337890625">
        <ele>1000</ele>
        <time>2020-08-09T15:17:15.000Z</time>
      </trkpt>
      <trkpt lat="42.3135542683303356170654296875" lon="2.13025490753352642059326171875">
        <ele>1000.4000244140625</ele>
        <time>2020-08-09T15:17:20.000Z</time>
      </trkpt>
      <trkpt lat="42.31356860138475894927978515625" lon="2.13011912070214748382568359375">
        <ele>1001</ele>
        <time>2020-08-09T15:17:25.000Z</time>
      </trkpt>
      <trkpt lat="42.3135686852037906646728515625" lon="2.13011627085506916046142578125">
        <ele>1001</ele>
        <time>2020-08-09T15:17:26.000Z</time>
      </trkpt>
      <trkpt lat="42.3135737143456935882568359375" lon="2.13011710904538631439208984375">
        <ele>1001</ele>
        <time>2020-08-09T15:17:38.000Z</time>
      </trkpt>
      <trkpt lat="42.31357396580278873443603515625" lon="2.13011987507343292236328125">
        <ele>1001.20001220703125</ele>
        <time>2020-08-09T15:17:54.000Z</time>
      </trkpt>
      <trkpt lat="42.31357379816472530364990234375" lon="2.13012113235890865325927734375">
        <ele>1001.20001220703125</ele>
        <time>2020-08-09T15:18:20.000Z</time>
      </trkpt>
      <trkpt lat="42.31357295997440814971923828125" lon="2.1301230601966381072998046875">
        <ele>1001.4000244140625</ele>
        <time>2020-08-09T15:18:40.000Z</time>
      </trkpt>
      <trkpt lat="42.31357346288859844207763671875" lon="2.13012347929179668426513671875">
        <ele>1001.4000244140625</ele>
        <time>2020-08-09T15:19:03.000Z</time>
      </trkpt>
      <trkpt lat="42.31357346288859844207763671875" lon="2.13012314401566982269287109375">
        <ele>1001.4000244140625</ele>
        <time>2020-08-09T15:19:28.000Z</time>
      </trkpt>
      <trkpt lat="42.31357245706021785736083984375" lon="2.13011962361633777618408203125">
        <ele>1001.4000244140625</ele>
        <time>2020-08-09T15:19:50.000Z</time>
      </trkpt>
      <trkpt lat="42.3135717026889324188232421875" lon="2.130110152065753936767578125">
        <ele>1001.5999755859375</ele>
        <time>2020-08-09T15:19:57.000Z</time>
      </trkpt>
      <trkpt lat="42.31356675736606121063232421875" lon="2.1300935558974742889404296875">
        <ele>1001.5999755859375</ele>
        <time>2020-08-09T15:19:58.000Z</time>
      </trkpt>
      <trkpt lat="42.31352048926055431365966796875" lon="2.1299202181398868560791015625">
        <ele>1001.5999755859375</ele>
        <time>2020-08-09T15:20:05.000Z</time>
      </trkpt>
      <trkpt lat="42.31342476792633533477783203125" lon="2.12970002554357051849365234375">
        <ele>1002.4000244140625</ele>
        <time>2020-08-09T15:20:13.000Z</time>
      </trkpt>
      <trkpt lat="42.31331563554704189300537109375" lon="2.12944337166845798492431640625">
        <ele>1003</ele>
        <time>2020-08-09T15:20:22.000Z</time>
      </trkpt>
      <trkpt lat="42.31326676905155181884765625" lon="2.12918378412723541259765625">
        <ele>1003.5999755859375</ele>
        <time>2020-08-09T15:20:30.000Z</time>
      </trkpt>
      <trkpt lat="42.31328227557241916656494140625" lon="2.12901975028216838836669921875">
        <ele>1004.20001220703125</ele>
        <time>2020-08-09T15:20:35.000Z</time>
      </trkpt>
      <trkpt lat="42.3133105225861072540283203125" lon="2.1288962848484516143798828125">
        <ele>1004.5999755859375</ele>
        <time>2020-08-09T15:20:39.000Z</time>
      </trkpt>
      <trkpt lat="42.31333784759044647216796875" lon="2.128772400319576263427734375">
        <ele>1005.20001220703125</ele>
        <time>2020-08-09T15:20:43.000Z</time>
      </trkpt>
      <trkpt lat="42.31338839046657085418701171875" lon="2.12858975864946842193603515625">
        <ele>1005.5999755859375</ele>
        <time>2020-08-09T15:20:49.000Z</time>
      </trkpt>
      <trkpt lat="42.313422672450542449951171875" lon="2.12843134067952632904052734375">
        <ele>1006.20001220703125</ele>
        <time>2020-08-09T15:20:54.000Z</time>
      </trkpt>
      <trkpt lat="42.313439436256885528564453125" lon="2.12836763821542263031005859375">
        <ele>1006.5999755859375</ele>
        <time>2020-08-09T15:20:56.000Z</time>
      </trkpt>
      <trkpt lat="42.313532643020153045654296875" lon="2.1280606091022491455078125">
        <ele>1007.4000244140625</ele>
        <time>2020-08-09T15:21:06.000Z</time>
      </trkpt>
      <trkpt lat="42.31364403851330280303955078125" lon="2.1279340423643589019775390625">
        <ele>1008.20001220703125</ele>
        <time>2020-08-09T15:21:12.000Z</time>
      </trkpt>
      <trkpt lat="42.31375685892999172210693359375" lon="2.12786816060543060302734375">
        <ele>1008.4000244140625</ele>
        <time>2020-08-09T15:21:17.000Z</time>
      </trkpt>
      <trkpt lat="42.3138427734375" lon="2.12780051864683628082275390625">
        <ele>1008.79998779296875</ele>
        <time>2020-08-09T15:21:21.000Z</time>
      </trkpt>
      <trkpt lat="42.3139218986034393310546875" lon="2.12771535851061344146728515625">
        <ele>1009.4000244140625</ele>
        <time>2020-08-09T15:21:25.000Z</time>
      </trkpt>
      <trkpt lat="42.3140159435570240020751953125" lon="2.1276048012077808380126953125">
        <ele>1009.79998779296875</ele>
        <time>2020-08-09T15:21:30.000Z</time>
      </trkpt>
      <trkpt lat="42.31405475176870822906494140625" lon="2.127564065158367156982421875">
        <ele>1010</ele>
        <time>2020-08-09T15:21:32.000Z</time>
      </trkpt>
      <trkpt lat="42.31418618001043796539306640625" lon="2.1274141967296600341796875">
        <ele>1010.5999755859375</ele>
        <time>2020-08-09T15:21:39.000Z</time>
      </trkpt>
      <trkpt lat="42.3142218030989170074462890625" lon="2.12736390531063079833984375">
        <ele>1011</ele>
        <time>2020-08-09T15:21:41.000Z</time>
      </trkpt>
      <trkpt lat="42.31433470733463764190673828125" lon="2.1272266097366809844970703125">
        <ele>1011.4000244140625</ele>
        <time>2020-08-09T15:21:47.000Z</time>
      </trkpt>
      <trkpt lat="42.31445859186351299285888671875" lon="2.1271084249019622802734375">
        <ele>1012</ele>
        <time>2020-08-09T15:21:53.000Z</time>
      </trkpt>
      <trkpt lat="42.3145084641873836517333984375" lon="2.12708369828760623931884765625">
        <ele>1012.20001220703125</ele>
        <time>2020-08-09T15:21:55.000Z</time>
      </trkpt>
      <trkpt lat="42.31470166705548763275146484375" lon="2.12706324644386768341064453125">
        <ele>1012.4000244140625</ele>
        <time>2020-08-09T15:22:02.000Z</time>
      </trkpt>
      <trkpt lat="42.314907945692539215087890625" lon="2.12706576101481914520263671875">
        <ele>1013</ele>
        <time>2020-08-09T15:22:09.000Z</time>
      </trkpt>
      <trkpt lat="42.3149349354207515716552734375" lon="2.1270673535764217376708984375">
        <ele>1013.20001220703125</ele>
        <time>2020-08-09T15:22:10.000Z</time>
      </trkpt>
      <trkpt lat="42.3151505179703235626220703125" lon="2.12705436162650585174560546875">
        <ele>1013.5999755859375</ele>
        <time>2020-08-09T15:22:17.000Z</time>
      </trkpt>
      <trkpt lat="42.31531195342540740966796875" lon="2.12688169442117214202880859375">
        <ele>1014</ele>
        <time>2020-08-09T15:22:23.000Z</time>
      </trkpt>
      <trkpt lat="42.31535352766513824462890625" lon="2.1267733164131641387939453125">
        <ele>1014</ele>
        <time>2020-08-09T15:22:26.000Z</time>
      </trkpt>
      <trkpt lat="42.3153434693813323974609375" lon="2.126694023609161376953125">
        <ele>1014</ele>
        <time>2020-08-09T15:22:28.000Z</time>
      </trkpt>
      <trkpt lat="42.31526643969118595123291015625" lon="2.12649310939013957977294921875">
        <ele>1014</ele>
        <time>2020-08-09T15:22:33.000Z</time>
      </trkpt>
      <trkpt lat="42.315090000629425048828125" lon="2.126317508518695831298828125">
        <ele>1014.4000244140625</ele>
        <time>2020-08-09T15:22:40.000Z</time>
      </trkpt>
      <trkpt lat="42.31494641862809658050537109375" lon="2.1261657960712909698486328125">
        <ele>1014.4000244140625</ele>
        <time>2020-08-09T15:22:46.000Z</time>
      </trkpt>
      <trkpt lat="42.3148745857179164886474609375" lon="2.126003690063953399658203125">
        <ele>1015</ele>
        <time>2020-08-09T15:22:51.000Z</time>
      </trkpt>
      <trkpt lat="42.314822115004062652587890625" lon="2.1258804760873317718505859375">
        <ele>1015.20001220703125</ele>
        <time>2020-08-09T15:22:55.000Z</time>
      </trkpt>
      <trkpt lat="42.31480677612125873565673828125" lon="2.1258489601314067840576171875">
        <ele>1015.4000244140625</ele>
        <time>2020-08-09T15:22:56.000Z</time>
      </trkpt>
      <trkpt lat="42.31471356935799121856689453125" lon="2.1257027797400951385498046875">
        <ele>1016</ele>
        <time>2020-08-09T15:23:01.000Z</time>
      </trkpt>
      <trkpt lat="42.31468993239104747772216796875" lon="2.1256739459931850433349609375">
        <ele>1016.20001220703125</ele>
        <time>2020-08-09T15:23:02.000Z</time>
      </trkpt>
      <trkpt lat="42.31459722854197025299072265625" lon="2.12557394988834857940673828125">
        <ele>1016.79998779296875</ele>
        <time>2020-08-09T15:23:06.000Z</time>
      </trkpt>
      <trkpt lat="42.31446747668087482452392578125" lon="2.12547403760254383087158203125">
        <ele>1017.4000244140625</ele>
        <time>2020-08-09T15:23:11.000Z</time>
      </trkpt>
      <trkpt lat="42.31441047973930835723876953125" lon="2.12543598376214504241943359375">
        <ele>1017.79998779296875</ele>
        <time>2020-08-09T15:23:13.000Z</time>
      </trkpt>
      <trkpt lat="42.3142261616885662078857421875" lon="2.12523062713444232940673828125">
        <ele>1018.5999755859375</ele>
        <time>2020-08-09T15:23:21.000Z</time>
      </trkpt>
      <trkpt lat="42.31414058245718479156494140625" lon="2.1249943412840366363525390625">
        <ele>1019.5999755859375</ele>
        <time>2020-08-09T15:23:28.000Z</time>
      </trkpt>
      <trkpt lat="42.31406740844249725341796875" lon="2.1247051656246185302734375">
        <ele>1020.79998779296875</ele>
        <time>2020-08-09T15:23:36.000Z</time>
      </trkpt>
      <trkpt lat="42.31404058635234832763671875" lon="2.12459360249340534210205078125">
        <ele>1021.4000244140625</ele>
        <time>2020-08-09T15:23:39.000Z</time>
      </trkpt>
      <trkpt lat="42.31399138458073139190673828125" lon="2.12440970353782176971435546875">
        <ele>1022</ele>
        <time>2020-08-09T15:23:44.000Z</time>
      </trkpt>
      <trkpt lat="42.31394209899008274078369140625" lon="2.12419244460761547088623046875">
        <ele>1022.79998779296875</ele>
        <time>2020-08-09T15:23:50.000Z</time>
      </trkpt>
      <trkpt lat="42.3139286041259765625" lon="2.1241202764213085174560546875">
        <ele>1023</ele>
        <time>2020-08-09T15:23:52.000Z</time>
      </trkpt>
      <trkpt lat="42.3138875328004360198974609375" lon="2.12390745989978313446044921875">
        <ele>1024</ele>
        <time>2020-08-09T15:23:58.000Z</time>
      </trkpt>
      <trkpt lat="42.31387185864150524139404296875" lon="2.12383587844669818878173828125">
        <ele>1024.199951171875</ele>
        <time>2020-08-09T15:24:00.000Z</time>
      </trkpt>
      <trkpt lat="42.31384151615202426910400390625" lon="2.12357637472450733184814453125">
        <ele>1024.800048828125</ele>
        <time>2020-08-09T15:24:07.000Z</time>
      </trkpt>
      <trkpt lat="42.31384621001780033111572265625" lon="2.12343002669513225555419921875">
        <ele>1025.4000244140625</ele>
        <time>2020-08-09T15:24:11.000Z</time>
      </trkpt>
      <trkpt lat="42.31387454085052013397216796875" lon="2.12329457513988018035888671875">
        <ele>1025.800048828125</ele>
        <time>2020-08-09T15:24:15.000Z</time>
      </trkpt>
      <trkpt lat="42.31392567045986652374267578125" lon="2.12309575639665126800537109375">
        <ele>1026.5999755859375</ele>
        <time>2020-08-09T15:24:21.000Z</time>
      </trkpt>
      <trkpt lat="42.31395014561712741851806640625" lon="2.122998945415019989013671875">
        <ele>1027.199951171875</ele>
        <time>2020-08-09T15:24:24.000Z</time>
      </trkpt>
      <trkpt lat="42.31400077231228351593017578125" lon="2.12280557490885257720947265625">
        <ele>1027.800048828125</ele>
        <time>2020-08-09T15:24:30.000Z</time>
      </trkpt>
      <trkpt lat="42.3140283487737178802490234375" lon="2.122674398124217987060546875">
        <ele>1028</ele>
        <time>2020-08-09T15:24:34.000Z</time>
      </trkpt>
      <trkpt lat="42.31409900821745395660400390625" lon="2.1224609948694705963134765625">
        <ele>1029</ele>
        <time>2020-08-09T15:24:41.000Z</time>
      </trkpt>
      <trkpt lat="42.31411493383347988128662109375" lon="2.12243543006479740142822265625">
        <ele>1029</ele>
        <time>2020-08-09T15:24:42.000Z</time>
      </trkpt>
      <trkpt lat="42.31429346837103366851806640625" lon="2.12224633432924747467041015625">
        <ele>1029.4000244140625</ele>
        <time>2020-08-09T15:24:51.000Z</time>
      </trkpt>
      <trkpt lat="42.31434124521911144256591796875" lon="2.12212211452424526214599609375">
        <ele>1030</ele>
        <time>2020-08-09T15:24:55.000Z</time>
      </trkpt>
      <trkpt lat="42.314358763396739959716796875" lon="2.12205447256565093994140625">
        <ele>1030.199951171875</ele>
        <time>2020-08-09T15:24:57.000Z</time>
      </trkpt>
      <trkpt lat="42.31438667513430118560791015625" lon="2.1218457631766796112060546875">
        <ele>1031.199951171875</ele>
        <time>2020-08-09T15:25:03.000Z</time>
      </trkpt>
      <trkpt lat="42.31439354829490184783935546875" lon="2.12181131355464458465576171875">
        <ele>1031.199951171875</ele>
        <time>2020-08-09T15:25:04.000Z</time>
      </trkpt>
      <trkpt lat="42.31446295045316219329833984375" lon="2.12154351174831390380859375">
        <ele>1032</ele>
        <time>2020-08-09T15:25:12.000Z</time>
      </trkpt>
      <trkpt lat="42.3144735954701900482177734375" lon="2.12151224724948406219482421875">
        <ele>1032.199951171875</ele>
        <time>2020-08-09T15:25:13.000Z</time>
      </trkpt>
      <trkpt lat="42.3145388066768646240234375" lon="2.12124176323413848876953125">
        <ele>1033</ele>
        <time>2020-08-09T15:25:21.000Z</time>
      </trkpt>
      <trkpt lat="42.314548194408416748046875" lon="2.1212067268788814544677734375">
        <ele>1033.199951171875</ele>
        <time>2020-08-09T15:25:22.000Z</time>
      </trkpt>
      <trkpt lat="42.3146315105259418487548828125" lon="2.12103079073131084442138671875">
        <ele>1033.800048828125</ele>
        <time>2020-08-09T15:25:28.000Z</time>
      </trkpt>
      <trkpt lat="42.3147404752671718597412109375" lon="2.1209351532161235809326171875">
        <ele>1034.4000244140625</ele>
        <time>2020-08-09T15:25:33.000Z</time>
      </trkpt>
      <trkpt lat="42.31478582136332988739013671875" lon="2.120899446308612823486328125">
        <ele>1034.5999755859375</ele>
        <time>2020-08-09T15:25:35.000Z</time>
      </trkpt>
      <trkpt lat="42.314915992319583892822265625" lon="2.120790146291255950927734375">
        <ele>1035.4000244140625</ele>
        <time>2020-08-09T15:25:41.000Z</time>
      </trkpt>
      <trkpt lat="42.314955890178680419921875" lon="2.1207430399954319000244140625">
        <ele>1035.5999755859375</ele>
        <time>2020-08-09T15:25:43.000Z</time>
      </trkpt>
      <trkpt lat="42.3150086961686611175537109375" lon="2.12057380937039852142333984375">
        <ele>1036.4000244140625</ele>
        <time>2020-08-09T15:25:48.000Z</time>
      </trkpt>
      <trkpt lat="42.31500844471156597137451171875" lon="2.12046685628592967987060546875">
        <ele>1036.4000244140625</ele>
        <time>2020-08-09T15:25:51.000Z</time>
      </trkpt>
      <trkpt lat="42.314986400306224822998046875" lon="2.12035520933568477630615234375">
        <ele>1036.5999755859375</ele>
        <time>2020-08-09T15:25:54.000Z</time>
      </trkpt>
      <trkpt lat="42.3149652779102325439453125" lon="2.12008682079613208770751953125">
        <ele>1037.4000244140625</ele>
        <time>2020-08-09T15:26:01.000Z</time>
      </trkpt>
      <trkpt lat="42.3149641044437885284423828125" lon="2.12004893459379673004150390625">
        <ele>1037.5999755859375</ele>
        <time>2020-08-09T15:26:02.000Z</time>
      </trkpt>
      <trkpt lat="42.3149926029145717620849609375" lon="2.1197680570185184478759765625">
        <ele>1038</ele>
        <time>2020-08-09T15:26:10.000Z</time>
      </trkpt>
      <trkpt lat="42.31504046358168125152587890625" lon="2.11968935094773769378662109375">
        <ele>1038.800048828125</ele>
        <time>2020-08-09T15:26:13.000Z</time>
      </trkpt>
      <trkpt lat="42.31509662233293056488037109375" lon="2.11963369511067867279052734375">
        <ele>1039</ele>
        <time>2020-08-09T15:26:16.000Z</time>
      </trkpt>
      <trkpt lat="42.3152236081659793853759765625" lon="2.1195534802973270416259765625">
        <ele>1039.800048828125</ele>
        <time>2020-08-09T15:26:22.000Z</time>
      </trkpt>
      <trkpt lat="42.3154023103415966033935546875" lon="2.1194411627948284149169921875">
        <ele>1041</ele>
        <time>2020-08-09T15:26:30.000Z</time>
      </trkpt>
      <trkpt lat="42.315498031675815582275390625" lon="2.11927243508398532867431640625">
        <ele>1041.4000244140625</ele>
        <time>2020-08-09T15:26:36.000Z</time>
      </trkpt>
      <trkpt lat="42.3155196569859981536865234375" lon="2.11908501572906970977783203125">
        <ele>1041.800048828125</ele>
        <time>2020-08-09T15:26:41.000Z</time>
      </trkpt>
      <trkpt lat="42.31548001058399677276611328125" lon="2.11884311400353908538818359375">
        <ele>1042</ele>
        <time>2020-08-09T15:26:47.000Z</time>
      </trkpt>
      <trkpt lat="42.31545872054994106292724609375" lon="2.11876264773309230804443359375">
        <ele>1042.199951171875</ele>
        <time>2020-08-09T15:26:49.000Z</time>
      </trkpt>
      <trkpt lat="42.3154140450060367584228515625" lon="2.11851127445697784423828125">
        <ele>1042.199951171875</ele>
        <time>2020-08-09T15:26:55.000Z</time>
      </trkpt>
      <trkpt lat="42.31542351655662059783935546875" lon="2.118258811533451080322265625">
        <ele>1042.4000244140625</ele>
        <time>2020-08-09T15:27:01.000Z</time>
      </trkpt>
      <trkpt lat="42.31551085598766803741455078125" lon="2.118039540946483612060546875">
        <ele>1043</ele>
        <time>2020-08-09T15:27:08.000Z</time>
      </trkpt>
      <trkpt lat="42.3155407793819904327392578125" lon="2.1179397962987422943115234375">
        <ele>1043.199951171875</ele>
        <time>2020-08-09T15:27:11.000Z</time>
      </trkpt>
      <trkpt lat="42.31555779464542865753173828125" lon="2.1177993156015872955322265625">
        <ele>1043.800048828125</ele>
        <time>2020-08-09T15:27:15.000Z</time>
      </trkpt>
      <trkpt lat="42.31558662839233875274658203125" lon="2.11755682714283466339111328125">
        <ele>1044.4000244140625</ele>
        <time>2020-08-09T15:27:22.000Z</time>
      </trkpt>
      <trkpt lat="42.315599285066127777099609375" lon="2.11748625151813030242919921875">
        <ele>1044.5999755859375</ele>
        <time>2020-08-09T15:27:24.000Z</time>
      </trkpt>
      <trkpt lat="42.3156346566975116729736328125" lon="2.117285840213298797607421875">
        <ele>1045.4000244140625</ele>
        <time>2020-08-09T15:27:30.000Z</time>
      </trkpt>
      <trkpt lat="42.3156571201980113983154296875" lon="2.11718819104135036468505859375">
        <ele>1045.800048828125</ele>
        <time>2020-08-09T15:27:33.000Z</time>
      </trkpt>
      <trkpt lat="42.3156867921352386474609375" lon="2.11705676279962062835693359375">
        <ele>1046.4000244140625</ele>
        <time>2020-08-09T15:27:37.000Z</time>
      </trkpt>
      <trkpt lat="42.31573046185076236724853515625" lon="2.11690220050513744354248046875">
        <ele>1047.199951171875</ele>
        <time>2020-08-09T15:27:42.000Z</time>
      </trkpt>
      <trkpt lat="42.315816543996334075927734375" lon="2.116745375096797943115234375">
        <ele>1047.5999755859375</ele>
        <time>2020-08-09T15:27:48.000Z</time>
      </trkpt>
      <trkpt lat="42.31586222536861896514892578125" lon="2.11667203344404697418212890625">
        <ele>1048</ele>
        <time>2020-08-09T15:27:51.000Z</time>
      </trkpt>
      <trkpt lat="42.31591771356761455535888671875" lon="2.1165654994547367095947265625">
        <ele>1048.5999755859375</ele>
        <time>2020-08-09T15:27:55.000Z</time>
      </trkpt>
      <trkpt lat="42.31594688259065151214599609375" lon="2.11647572927176952362060546875">
        <ele>1049</ele>
        <time>2020-08-09T15:27:58.000Z</time>
      </trkpt>
      <trkpt lat="42.3159997723996639251708984375" lon="2.11626500822603702545166015625">
        <ele>1049.5999755859375</ele>
        <time>2020-08-09T15:28:05.000Z</time>
      </trkpt>
      <trkpt lat="42.31600672937929630279541015625" lon="2.1162000484764575958251953125">
        <ele>1049.800048828125</ele>
        <time>2020-08-09T15:28:07.000Z</time>
      </trkpt>
      <trkpt lat="42.31601444073021411895751953125" lon="2.11604095995426177978515625">
        <ele>1050.800048828125</ele>
        <time>2020-08-09T15:28:12.000Z</time>
      </trkpt>
      <trkpt lat="42.31601762585341930389404296875" lon="2.11597985588014125823974609375">
        <ele>1050.800048828125</ele>
        <time>2020-08-09T15:28:14.000Z</time>
      </trkpt>
      <trkpt lat="42.316015027463436126708984375" lon="2.11571197025477886199951171875">
        <ele>1051.5999755859375</ele>
        <time>2020-08-09T15:28:22.000Z</time>
      </trkpt>
      <trkpt lat="42.316017039120197296142578125" lon="2.1155915223062038421630859375">
        <ele>1051.800048828125</ele>
        <time>2020-08-09T15:28:26.000Z</time>
      </trkpt>
      <trkpt lat="42.31602416373789310455322265625" lon="2.1154118143022060394287109375">
        <ele>1052.800048828125</ele>
        <time>2020-08-09T15:28:32.000Z</time>
      </trkpt>
      <trkpt lat="42.316031120717525482177734375" lon="2.11516832001507282257080078125">
        <ele>1053.800048828125</ele>
        <time>2020-08-09T15:28:40.000Z</time>
      </trkpt>
      <trkpt lat="42.31602902524173259735107421875" lon="2.115105874836444854736328125">
        <ele>1054</ele>
        <time>2020-08-09T15:28:42.000Z</time>
      </trkpt>
      <trkpt lat="42.31603103689849376678466796875" lon="2.1148909628391265869140625">
        <ele>1055</ele>
        <time>2020-08-09T15:28:49.000Z</time>
      </trkpt>
      <trkpt lat="42.31603078544139862060546875" lon="2.11485634557902812957763671875">
        <ele>1055</ele>
        <time>2020-08-09T15:28:50.000Z</time>
      </trkpt>
      <trkpt lat="42.3160247504711151123046875" lon="2.11461897008121013641357421875">
        <ele>1055.5999755859375</ele>
        <time>2020-08-09T15:28:57.000Z</time>
      </trkpt>
      <trkpt lat="42.31602567248046398162841796875" lon="2.11451872251927852630615234375">
        <ele>1056</ele>
        <time>2020-08-09T15:29:00.000Z</time>
      </trkpt>
      <trkpt lat="42.31604914180934429168701171875" lon="2.11429978720843791961669921875">
        <ele>1056.5999755859375</ele>
        <time>2020-08-09T15:29:07.000Z</time>
      </trkpt>
      <trkpt lat="42.31605869717895984649658203125" lon="2.114201299846172332763671875">
        <ele>1057</ele>
        <time>2020-08-09T15:29:11.000Z</time>
      </trkpt>
      <trkpt lat="42.316053248941898345947265625" lon="2.11415042169392108917236328125">
        <ele>1057.199951171875</ele>
        <time>2020-08-09T15:29:13.000Z</time>
      </trkpt>
      <trkpt lat="42.3160688392817974090576171875" lon="2.1140013076364994049072265625">
        <ele>1058</ele>
        <time>2020-08-09T15:29:20.000Z</time>
      </trkpt>
      <trkpt lat="42.31606774963438510894775390625" lon="2.11398546583950519561767578125">
        <ele>1058.199951171875</ele>
        <time>2020-08-09T15:29:21.000Z</time>
      </trkpt>
      <trkpt lat="42.316068001091480255126953125" lon="2.11398010142147541046142578125">
        <ele>1058.4000244140625</ele>
        <time>2020-08-09T15:29:24.000Z</time>
      </trkpt>
      <trkpt lat="42.3160674981772899627685546875" lon="2.113980688154697418212890625">
        <ele>1058.199951171875</ele>
        <time>2020-08-09T15:29:39.000Z</time>
      </trkpt>
      <trkpt lat="42.3160674981772899627685546875" lon="2.11398043669760227203369140625">
        <ele>1057.5999755859375</ele>
        <time>2020-08-09T15:30:05.000Z</time>
      </trkpt>
      <trkpt lat="42.3160688392817974090576171875" lon="2.113980688154697418212890625">
        <ele>1057.4000244140625</ele>
        <time>2020-08-09T15:30:23.000Z</time>
      </trkpt>
      <trkpt lat="42.31606875546276569366455078125" lon="2.11396417580544948577880859375">
        <ele>1057.5999755859375</ele>
        <time>2020-08-09T15:30:26.000Z</time>
      </trkpt>
      <trkpt lat="42.31608836911618709564208984375" lon="2.11392528377473354339599609375">
        <ele>1057.800048828125</ele>
        <time>2020-08-09T15:30:29.000Z</time>
      </trkpt>
      <trkpt lat="42.316114269196987152099609375" lon="2.1138454042375087738037109375">
        <ele>1057.199951171875</ele>
        <time>2020-08-09T15:30:32.000Z</time>
      </trkpt>
      <trkpt lat="42.31612206436693668365478515625" lon="2.11378882639110088348388671875">
        <ele>1056.5999755859375</ele>
        <time>2020-08-09T15:30:34.000Z</time>
      </trkpt>
      <trkpt lat="42.31613648124039173126220703125" lon="2.113712131977081298828125">
        <ele>1055.800048828125</ele>
        <time>2020-08-09T15:30:39.000Z</time>
      </trkpt>
      <trkpt lat="42.31613597832620143890380859375" lon="2.11371456272900104522705078125">
        <ele>1055.5999755859375</ele>
        <time>2020-08-09T15:30:48.000Z</time>
      </trkpt>
      <trkpt lat="42.31613597832620143890380859375" lon="2.11371506564319133758544921875">
        <ele>1055.199951171875</ele>
        <time>2020-08-09T15:31:06.000Z</time>
      </trkpt>
      <trkpt lat="42.31608820147812366485595703125" lon="2.1136563085019588470458984375">
        <ele>1055</ele>
        <time>2020-08-09T15:31:14.000Z</time>
      </trkpt>
      <trkpt lat="42.31600622646510601043701171875" lon="2.11355589330196380615234375">
        <ele>1054</ele>
        <time>2020-08-09T15:31:17.000Z</time>
      </trkpt>
      <trkpt lat="42.31595811434090137481689453125" lon="2.1134766004979610443115234375">
        <ele>1053.199951171875</ele>
        <time>2020-08-09T15:31:19.000Z</time>
      </trkpt>
      <trkpt lat="42.315941937267780303955078125" lon="2.1134310029447078704833984375">
        <ele>1052.199951171875</ele>
        <time>2020-08-09T15:31:20.000Z</time>
      </trkpt>
      <trkpt lat="42.31592508964240550994873046875" lon="2.113340981304645538330078125">
        <ele>1050.5999755859375</ele>
        <time>2020-08-09T15:31:22.000Z</time>
      </trkpt>
      <trkpt lat="42.3159176297485828399658203125" lon="2.11330217309296131134033203125">
        <ele>1050</ele>
        <time>2020-08-09T15:31:23.000Z</time>
      </trkpt>
      <trkpt lat="42.3159055598080158233642578125" lon="2.1132677234709262847900390625">
        <ele>1049.4000244140625</ele>
        <time>2020-08-09T15:31:24.000Z</time>
      </trkpt>
      <trkpt lat="42.3158435337245464324951171875" lon="2.11319656111299991607666015625">
        <ele>1048.5999755859375</ele>
        <time>2020-08-09T15:31:27.000Z</time>
      </trkpt>
      <trkpt lat="42.3158155381679534912109375" lon="2.11318180896341800689697265625">
        <ele>1048</ele>
        <time>2020-08-09T15:31:28.000Z</time>
      </trkpt>
      <trkpt lat="42.315734736621379852294921875" lon="2.11316772736608982086181640625">
        <ele>1046.4000244140625</ele>
        <time>2020-08-09T15:31:31.000Z</time>
      </trkpt>
      <trkpt lat="42.31571068055927753448486328125" lon="2.1131745167076587677001953125">
        <ele>1046</ele>
        <time>2020-08-09T15:31:32.000Z</time>
      </trkpt>
      <trkpt lat="42.315659634768962860107421875" lon="2.11319220252335071563720703125">
        <ele>1045</ele>
        <time>2020-08-09T15:31:34.000Z</time>
      </trkpt>
      <trkpt lat="42.31558042578399181365966796875" lon="2.1132167614996433258056640625">
        <ele>1043.5999755859375</ele>
        <time>2020-08-09T15:31:37.000Z</time>
      </trkpt>
      <trkpt lat="42.31548621319234371185302734375" lon="2.1132083795964717864990234375">
        <ele>1041.800048828125</ele>
        <time>2020-08-09T15:31:40.000Z</time>
      </trkpt>
      <trkpt lat="42.315424270927906036376953125" lon="2.1131678111851215362548828125">
        <ele>1040.4000244140625</ele>
        <time>2020-08-09T15:31:42.000Z</time>
      </trkpt>
      <trkpt lat="42.315375320613384246826171875" lon="2.11310000158846378326416015625">
        <ele>1038.5999755859375</ele>
        <time>2020-08-09T15:31:44.000Z</time>
      </trkpt>
      <trkpt lat="42.31535294093191623687744140625" lon="2.11305323056876659393310546875">
        <ele>1037.5999755859375</ele>
        <time>2020-08-09T15:31:45.000Z</time>
      </trkpt>
      <trkpt lat="42.31531237252056598663330078125" lon="2.1129544079303741455078125">
        <ele>1036.199951171875</ele>
        <time>2020-08-09T15:31:47.000Z</time>
      </trkpt>
      <trkpt lat="42.31529125012457370758056640625" lon="2.1129059605300426483154296875">
        <ele>1035.4000244140625</ele>
        <time>2020-08-09T15:31:48.000Z</time>
      </trkpt>
      <trkpt lat="42.31526761315762996673583984375" lon="2.11285960860550403594970703125">
        <ele>1034.800048828125</ele>
        <time>2020-08-09T15:31:49.000Z</time>
      </trkpt>
      <trkpt lat="42.315224446356296539306640625" lon="2.1127688325941562652587890625">
        <ele>1033.4000244140625</ele>
        <time>2020-08-09T15:31:51.000Z</time>
      </trkpt>
      <trkpt lat="42.31517926789820194244384765625" lon="2.11267076432704925537109375">
        <ele>1032</ele>
        <time>2020-08-09T15:31:53.000Z</time>
      </trkpt>
      <trkpt lat="42.3151568882167339324951171875" lon="2.112618796527385711669921875">
        <ele>1031.4000244140625</ele>
        <time>2020-08-09T15:31:54.000Z</time>
      </trkpt>
      <trkpt lat="42.3151361010968685150146484375" lon="2.11256657727062702178955078125">
        <ele>1030.800048828125</ele>
        <time>2020-08-09T15:31:55.000Z</time>
      </trkpt>
      <trkpt lat="42.31510408222675323486328125" lon="2.11245627142488956451416015625">
        <ele>1029.199951171875</ele>
        <time>2020-08-09T15:31:57.000Z</time>
      </trkpt>
      <trkpt lat="42.31508673168718814849853515625" lon="2.112333476543426513671875">
        <ele>1028.199951171875</ele>
        <time>2020-08-09T15:31:59.000Z</time>
      </trkpt>
      <trkpt lat="42.31508002616465091705322265625" lon="2.1122712828218936920166015625">
        <ele>1027.800048828125</ele>
        <time>2020-08-09T15:32:00.000Z</time>
      </trkpt>
      <trkpt lat="42.31507784686982631683349609375" lon="2.1122132800519466400146484375">
        <ele>1027.199951171875</ele>
        <time>2020-08-09T15:32:01.000Z</time>
      </trkpt>
      <trkpt lat="42.31508002616465091705322265625" lon="2.11210490204393863677978515625">
        <ele>1025.800048828125</ele>
        <time>2020-08-09T15:32:03.000Z</time>
      </trkpt>
      <trkpt lat="42.31507549993693828582763671875" lon="2.11200691759586334228515625">
        <ele>1024.4000244140625</ele>
        <time>2020-08-09T15:32:05.000Z</time>
      </trkpt>
      <trkpt lat="42.31503702700138092041015625" lon="2.11191144771873950958251953125">
        <ele>1023.79998779296875</ele>
        <time>2020-08-09T15:32:07.000Z</time>
      </trkpt>
      <trkpt lat="42.315007187426090240478515625" lon="2.1118679456412792205810546875">
        <ele>1023</ele>
        <time>2020-08-09T15:32:08.000Z</time>
      </trkpt>
      <trkpt lat="42.31495697982609272003173828125" lon="2.1117908321321010589599609375">
        <ele>1021.5999755859375</ele>
        <time>2020-08-09T15:32:10.000Z</time>
      </trkpt>
      <trkpt lat="42.3149191774427890777587890625" lon="2.1117152273654937744140625">
        <ele>1020.20001220703125</ele>
        <time>2020-08-09T15:32:12.000Z</time>
      </trkpt>
      <trkpt lat="42.31489964760839939117431640625" lon="2.1116761676967144012451171875">
        <ele>1020</ele>
        <time>2020-08-09T15:32:13.000Z</time>
      </trkpt>
      <trkpt lat="42.31484969146549701690673828125" lon="2.11156929843127727508544921875">
        <ele>1018.4000244140625</ele>
        <time>2020-08-09T15:32:16.000Z</time>
      </trkpt>
      <trkpt lat="42.31480241753160953521728515625" lon="2.11150576360523700714111328125">
        <ele>1017.20001220703125</ele>
        <time>2020-08-09T15:32:19.000Z</time>
      </trkpt>
      <trkpt lat="42.3147391341626644134521484375" lon="2.11149369366466999053955078125">
        <ele>1016.20001220703125</ele>
        <time>2020-08-09T15:32:22.000Z</time>
      </trkpt>
      <trkpt lat="42.31471893377602100372314453125" lon="2.11150710470974445343017578125">
        <ele>1015.79998779296875</ele>
        <time>2020-08-09T15:32:23.000Z</time>
      </trkpt>
      <trkpt lat="42.314696721732616424560546875" lon="2.11152277886867523193359375">
        <ele>1015.20001220703125</ele>
        <time>2020-08-09T15:32:24.000Z</time>
      </trkpt>
      <trkpt lat="42.31462539173662662506103515625" lon="2.11158069781959056854248046875">
        <ele>1013.79998779296875</ele>
        <time>2020-08-09T15:32:27.000Z</time>
      </trkpt>
      <trkpt lat="42.31457996182143688201904296875" lon="2.11161724291741847991943359375">
        <ele>1012.5999755859375</ele>
        <time>2020-08-09T15:32:29.000Z</time>
      </trkpt>
      <trkpt lat="42.3145617730915546417236328125" lon="2.11163115687668323516845703125">
        <ele>1012.20001220703125</ele>
        <time>2020-08-09T15:32:30.000Z</time>
      </trkpt>
      <trkpt lat="42.314544506371021270751953125" lon="2.1116369403898715972900390625">
        <ele>1012</ele>
        <time>2020-08-09T15:32:31.000Z</time>
      </trkpt>
      <trkpt lat="42.31452933512628078460693359375" lon="2.11163618601858615875244140625">
        <ele>1011.20001220703125</ele>
        <time>2020-08-09T15:32:32.000Z</time>
      </trkpt>
      <trkpt lat="42.31450988911092281341552734375" lon="2.1116201765835285186767578125">
        <ele>1010.79998779296875</ele>
        <time>2020-08-09T15:32:34.000Z</time>
      </trkpt>
      <trkpt lat="42.31449999846518039703369140625" lon="2.11156443692743778228759765625">
        <ele>1010</ele>
        <time>2020-08-09T15:32:37.000Z</time>
      </trkpt>
      <trkpt lat="42.31449656188488006591796875" lon="2.11154230870306491851806640625">
        <ele>1009.5999755859375</ele>
        <time>2020-08-09T15:32:38.000Z</time>
      </trkpt>
      <trkpt lat="42.3144967295229434967041015625" lon="2.1115207672119140625">
        <ele>1009.20001220703125</ele>
        <time>2020-08-09T15:32:39.000Z</time>
      </trkpt>
      <trkpt lat="42.31449413113296031951904296875" lon="2.111496292054653167724609375">
        <ele>1008.5999755859375</ele>
        <time>2020-08-09T15:32:40.000Z</time>
      </trkpt>
      <trkpt lat="42.31448574922978878021240234375" lon="2.1114408038556575775146484375">
        <ele>1007.5999755859375</ele>
        <time>2020-08-09T15:32:42.000Z</time>
      </trkpt>
      <trkpt lat="42.31447510421276092529296875" lon="2.111385650932788848876953125">
        <ele>1006.79998779296875</ele>
        <time>2020-08-09T15:32:44.000Z</time>
      </trkpt>
      <trkpt lat="42.31447166763246059417724609375" lon="2.111362516880035400390625">
        <ele>1006.4000244140625</ele>
        <time>2020-08-09T15:32:45.000Z</time>
      </trkpt>
      <trkpt lat="42.31444132514297962188720703125" lon="2.11131499148905277252197265625">
        <ele>1005</ele>
        <time>2020-08-09T15:32:48.000Z</time>
      </trkpt>
      <trkpt lat="42.314370833337306976318359375" lon="2.11127459071576595306396484375">
        <ele>1003.79998779296875</ele>
        <time>2020-08-09T15:32:52.000Z</time>
      </trkpt>
      <trkpt lat="42.3143606074154376983642578125" lon="2.11124827153980731964111328125">
        <ele>1003.20001220703125</ele>
        <time>2020-08-09T15:32:53.000Z</time>
      </trkpt>
      <trkpt lat="42.31436085887253284454345703125" lon="2.1112171746790409088134765625">
        <ele>1002.79998779296875</ele>
        <time>2020-08-09T15:32:54.000Z</time>
      </trkpt>
      <trkpt lat="42.3143904469907283782958984375" lon="2.11115590296685695648193359375">
        <ele>1001.79998779296875</ele>
        <time>2020-08-09T15:32:56.000Z</time>
      </trkpt>
      <trkpt lat="42.3144122399389743804931640625" lon="2.111129499971866607666015625">
        <ele>1001.5999755859375</ele>
        <time>2020-08-09T15:32:57.000Z</time>
      </trkpt>
      <trkpt lat="42.3144350387156009674072265625" lon="2.1111055277287960052490234375">
        <ele>1001.4000244140625</ele>
        <time>2020-08-09T15:32:58.000Z</time>
      </trkpt>
      <trkpt lat="42.31450569815933704376220703125" lon="2.11101852357387542724609375">
        <ele>1000.4000244140625</ele>
        <time>2020-08-09T15:33:01.000Z</time>
      </trkpt>
      <trkpt lat="42.31452715583145618438720703125" lon="2.110984660685062408447265625">
        <ele>999.79998779296875</ele>
        <time>2020-08-09T15:33:02.000Z</time>
      </trkpt>
      <trkpt lat="42.31457677669823169708251953125" lon="2.1109164319932460784912109375">
        <ele>999</ele>
        <time>2020-08-09T15:33:04.000Z</time>
      </trkpt>
      <trkpt lat="42.31467761099338531494140625" lon="2.11078961379826068878173828125">
        <ele>997.4000244140625</ele>
        <time>2020-08-09T15:33:08.000Z</time>
      </trkpt>
      <trkpt lat="42.3147287406027317047119140625" lon="2.11073596961796283721923828125">
        <ele>996.5999755859375</ele>
        <time>2020-08-09T15:33:10.000Z</time>
      </trkpt>
      <trkpt lat="42.3147572390735149383544921875" lon="2.11071367375552654266357421875">
        <ele>996.20001220703125</ele>
        <time>2020-08-09T15:33:11.000Z</time>
      </trkpt>
      <trkpt lat="42.3148507811129093170166015625" lon="2.1106852591037750244140625">
        <ele>995.4000244140625</ele>
        <time>2020-08-09T15:33:14.000Z</time>
      </trkpt>
      <trkpt lat="42.31488053686916828155517578125" lon="2.110674865543842315673828125">
        <ele>995</ele>
        <time>2020-08-09T15:33:15.000Z</time>
      </trkpt>
      <trkpt lat="42.31494893319904804229736328125" lon="2.11060345172882080078125">
        <ele>993.5999755859375</ele>
        <time>2020-08-09T15:33:18.000Z</time>
      </trkpt>
      <trkpt lat="42.31495924293994903564453125" lon="2.11053463630378246307373046875">
        <ele>993.20001220703125</ele>
        <time>2020-08-09T15:33:20.000Z</time>
      </trkpt>
      <trkpt lat="42.3149319179356098175048828125" lon="2.1104721911251544952392578125">
        <ele>993.20001220703125</ele>
        <time>2020-08-09T15:33:22.000Z</time>
      </trkpt>
      <trkpt lat="42.31487701646983623504638671875" lon="2.11041527800261974334716796875">
        <ele>993</ele>
        <time>2020-08-09T15:33:24.000Z</time>
      </trkpt>
      <trkpt lat="42.314811386168003082275390625" lon="2.110350318253040313720703125">
        <ele>992.4000244140625</ele>
        <time>2020-08-09T15:33:26.000Z</time>
      </trkpt>
      <trkpt lat="42.31477643363177776336669921875" lon="2.11031821556389331817626953125">
        <ele>992</ele>
        <time>2020-08-09T15:33:27.000Z</time>
      </trkpt>
      <trkpt lat="42.31474273838102817535400390625" lon="2.11028653196990489959716796875">
        <ele>991</ele>
        <time>2020-08-09T15:33:28.000Z</time>
      </trkpt>
      <trkpt lat="42.31468121521174907684326171875" lon="2.11022769100964069366455078125">
        <ele>990</ele>
        <time>2020-08-09T15:33:30.000Z</time>
      </trkpt>
      <trkpt lat="42.3146211169660091400146484375" lon="2.11017454974353313446044921875">
        <ele>989</ele>
        <time>2020-08-09T15:33:32.000Z</time>
      </trkpt>
      <trkpt lat="42.3145882599055767059326171875" lon="2.11015778593719005584716796875">
        <ele>988.4000244140625</ele>
        <time>2020-08-09T15:33:33.000Z</time>
      </trkpt>
      <trkpt lat="42.314550541341304779052734375" lon="2.1101540140807628631591796875">
        <ele>988</ele>
        <time>2020-08-09T15:33:34.000Z</time>
      </trkpt>
      <trkpt lat="42.3144927062094211578369140625" lon="2.1101650781929492950439453125">
        <ele>987</ele>
        <time>2020-08-09T15:33:36.000Z</time>
      </trkpt>
      <trkpt lat="42.31438449583947658538818359375" lon="2.110178656876087188720703125">
        <ele>986</ele>
        <time>2020-08-09T15:33:39.000Z</time>
      </trkpt>
      <trkpt lat="42.3143378086388111114501953125" lon="2.110176645219326019287109375">
        <ele>985.4000244140625</ele>
        <time>2020-08-09T15:33:40.000Z</time>
      </trkpt>
      <trkpt lat="42.3142948932945728302001953125" lon="2.11016348563134670257568359375">
        <ele>984.79998779296875</ele>
        <time>2020-08-09T15:33:41.000Z</time>
      </trkpt>
      <trkpt lat="42.31421283446252346038818359375" lon="2.11013750173151493072509765625">
        <ele>983.5999755859375</ele>
        <time>2020-08-09T15:33:43.000Z</time>
      </trkpt>
      <trkpt lat="42.31417126022279262542724609375" lon="2.11011520586907863616943359375">
        <ele>982.5999755859375</ele>
        <time>2020-08-09T15:33:44.000Z</time>
      </trkpt>
      <trkpt lat="42.31413052417337894439697265625" lon="2.11009441874921321868896484375">
        <ele>982</ele>
        <time>2020-08-09T15:33:45.000Z</time>
      </trkpt>
      <trkpt lat="42.314008735120296478271484375" lon="2.11004043929278850555419921875">
        <ele>980.20001220703125</ele>
        <time>2020-08-09T15:33:48.000Z</time>
      </trkpt>
      <trkpt lat="42.31397244147956371307373046875" lon="2.1100125275552272796630859375">
        <ele>979.79998779296875</ele>
        <time>2020-08-09T15:33:49.000Z</time>
      </trkpt>
      <trkpt lat="42.31393170543015003204345703125" lon="2.1098891459405422210693359375">
        <ele>979.4000244140625</ele>
        <time>2020-08-09T15:33:52.000Z</time>
      </trkpt>
      <trkpt lat="42.31394193135201930999755859375" lon="2.10984664969146251678466796875">
        <ele>979.4000244140625</ele>
        <time>2020-08-09T15:33:53.000Z</time>
      </trkpt>
      <trkpt lat="42.3139921389520168304443359375" lon="2.10965570993721485137939453125">
        <ele>979</ele>
        <time>2020-08-09T15:33:57.000Z</time>
      </trkpt>
      <trkpt lat="42.31399859301745891571044921875" lon="2.109599970281124114990234375">
        <ele>978.79998779296875</ele>
        <time>2020-08-09T15:33:58.000Z</time>
      </trkpt>
      <trkpt lat="42.31401921249926090240478515625" lon="2.1093039214611053466796875">
        <ele>978.20001220703125</ele>
        <time>2020-08-09T15:34:03.000Z</time>
      </trkpt>
      <trkpt lat="42.31402759440243244171142578125" lon="2.10924751125276088714599609375">
        <ele>978</ele>
        <time>2020-08-09T15:34:04.000Z</time>
      </trkpt>
      <trkpt lat="42.31403597630560398101806640625" lon="2.10919185541570186614990234375">
        <ele>978</ele>
        <time>2020-08-09T15:34:05.000Z</time>
      </trkpt>
      <trkpt lat="42.31404050253331661224365234375" lon="2.10894190706312656402587890625">
        <ele>977.79998779296875</ele>
        <time>2020-08-09T15:34:10.000Z</time>
      </trkpt>
      <trkpt lat="42.3140384070575237274169921875" lon="2.10889555513858795166015625">
        <ele>978</ele>
        <time>2020-08-09T15:34:11.000Z</time>
      </trkpt>
      <trkpt lat="42.31401703320443630218505859375" lon="2.1086601912975311279296875">
        <ele>978</ele>
        <time>2020-08-09T15:34:17.000Z</time>
      </trkpt>
      <trkpt lat="42.31403295882046222686767578125" lon="2.10840043611824512481689453125">
        <ele>978.5999755859375</ele>
        <time>2020-08-09T15:34:25.000Z</time>
      </trkpt>
      <trkpt lat="42.31401887722313404083251953125" lon="2.10832080803811550140380859375">
        <ele>978.79998779296875</ele>
        <time>2020-08-09T15:34:29.000Z</time>
      </trkpt>
      <trkpt lat="42.31401653029024600982666015625" lon="2.10831820964813232421875">
        <ele>979</ele>
        <time>2020-08-09T15:34:33.000Z</time>
      </trkpt>
      <trkpt lat="42.31401250697672367095947265625" lon="2.1083177067339420318603515625">
        <ele>979</ele>
        <time>2020-08-09T15:34:37.000Z</time>
      </trkpt>
      <trkpt lat="42.31401636265218257904052734375" lon="2.1083183772861957550048828125">
        <ele>978.5999755859375</ele>
        <time>2020-08-09T15:34:49.000Z</time>
      </trkpt>
      <trkpt lat="42.3140162788331508636474609375" lon="2.10831896401941776275634765625">
        <ele>978.20001220703125</ele>
        <time>2020-08-09T15:35:22.000Z</time>
      </trkpt>
      <trkpt lat="42.31401300989091396331787109375" lon="2.1083034574985504150390625">
        <ele>978.4000244140625</ele>
        <time>2020-08-09T15:35:31.000Z</time>
      </trkpt>
      <trkpt lat="42.31398384086787700653076171875" lon="2.10825794376432895660400390625">
        <ele>978.4000244140625</ele>
        <time>2020-08-09T15:35:40.000Z</time>
      </trkpt>
      <trkpt lat="42.31396908871829509735107421875" lon="2.108248136937618255615234375">
        <ele>978.4000244140625</ele>
        <time>2020-08-09T15:35:41.000Z</time>
      </trkpt>
      <trkpt lat="42.31388543732464313507080078125" lon="2.10819306783378124237060546875">
        <ele>978.4000244140625</ele>
        <time>2020-08-09T15:35:45.000Z</time>
      </trkpt>
      <trkpt lat="42.3136726208031177520751953125" lon="2.10810757242143154144287109375">
        <ele>978.79998779296875</ele>
        <time>2020-08-09T15:35:52.000Z</time>
      </trkpt>
      <trkpt lat="42.31340917758643627166748046875" lon="2.10809047333896160125732421875">
        <ele>978.79998779296875</ele>
        <time>2020-08-09T15:36:01.000Z</time>
      </trkpt>
      <trkpt lat="42.313233911991119384765625" lon="2.10814327932894229888916015625">
        <ele>980</ele>
        <time>2020-08-09T15:36:08.000Z</time>
      </trkpt>
      <trkpt lat="42.31321371160447597503662109375" lon="2.10815467871725559234619140625">
        <ele>980.20001220703125</ele>
        <time>2020-08-09T15:36:09.000Z</time>
      </trkpt>
      <trkpt lat="42.31313140131533145904541015625" lon="2.1082067303359508514404296875">
        <ele>981</ele>
        <time>2020-08-09T15:36:13.000Z</time>
      </trkpt>
      <trkpt lat="42.3130530305206775665283203125" lon="2.1082506515085697174072265625">
        <ele>981</ele>
        <time>2020-08-09T15:36:17.000Z</time>
      </trkpt>
      <trkpt lat="42.31302243657410144805908203125" lon="2.10826791822910308837890625">
        <ele>981.20001220703125</ele>
        <time>2020-08-09T15:36:21.000Z</time>
      </trkpt>
      <trkpt lat="42.31296359561383724212646484375" lon="2.10821670480072498321533203125">
        <ele>981</ele>
        <time>2020-08-09T15:36:26.000Z</time>
      </trkpt>
      <trkpt lat="42.3128327541053295135498046875" lon="2.108089216053485870361328125">
        <ele>980.5999755859375</ele>
        <time>2020-08-09T15:36:33.000Z</time>
      </trkpt>
      <trkpt lat="42.31277751736342906951904296875" lon="2.10795384831726551055908203125">
        <ele>980.4000244140625</ele>
        <time>2020-08-09T15:36:38.000Z</time>
      </trkpt>
      <trkpt lat="42.312709875404834747314453125" lon="2.10781906731426715850830078125">
        <ele>981</ele>
        <time>2020-08-09T15:36:44.000Z</time>
      </trkpt>
      <trkpt lat="42.3126312531530857086181640625" lon="2.1077698655426502227783203125">
        <ele>982</ele>
        <time>2020-08-09T15:36:49.000Z</time>
      </trkpt>
      <trkpt lat="42.312557660043239593505859375" lon="2.10771781392395496368408203125">
        <ele>983.20001220703125</ele>
        <time>2020-08-09T15:36:54.000Z</time>
      </trkpt>
      <trkpt lat="42.3125266470015048980712890625" lon="2.10769820027053356170654296875">
        <ele>984</ele>
        <time>2020-08-09T15:36:56.000Z</time>
      </trkpt>
      <trkpt lat="42.31251097284257411956787109375" lon="2.1076877228915691375732421875">
        <ele>984.20001220703125</ele>
        <time>2020-08-09T15:36:57.000Z</time>
      </trkpt>
      <trkpt lat="42.3124143294990062713623046875" lon="2.10763902403414249420166015625">
        <ele>985.4000244140625</ele>
        <time>2020-08-09T15:37:03.000Z</time>
      </trkpt>
      <trkpt lat="42.31240041553974151611328125" lon="2.107629887759685516357421875">
        <ele>985.4000244140625</ele>
        <time>2020-08-09T15:37:04.000Z</time>
      </trkpt>
      <trkpt lat="42.31238541193306446075439453125" lon="2.10762150585651397705078125">
        <ele>985.5999755859375</ele>
        <time>2020-08-09T15:37:05.000Z</time>
      </trkpt>
      <trkpt lat="42.31233931146562099456787109375" lon="2.1075935102999210357666015625">
        <ele>986.20001220703125</ele>
        <time>2020-08-09T15:37:08.000Z</time>
      </trkpt>
      <trkpt lat="42.31232464313507080078125" lon="2.10758152417838573455810546875">
        <ele>986.4000244140625</ele>
        <time>2020-08-09T15:37:09.000Z</time>
      </trkpt>
      <trkpt lat="42.31230611912906169891357421875" lon="2.1075725555419921875">
        <ele>986.5999755859375</ele>
        <time>2020-08-09T15:37:10.000Z</time>
      </trkpt>
      <trkpt lat="42.3121972382068634033203125" lon="2.10748949088156223297119140625">
        <ele>987.4000244140625</ele>
        <time>2020-08-09T15:37:17.000Z</time>
      </trkpt>
      <trkpt lat="42.3121846653521060943603515625" lon="2.10747725330293178558349609375">
        <ele>987.5999755859375</ele>
        <time>2020-08-09T15:37:18.000Z</time>
      </trkpt>
      <trkpt lat="42.3121142573654651641845703125" lon="2.10742847062647342681884765625">
        <ele>988.4000244140625</ele>
        <time>2020-08-09T15:37:23.000Z</time>
      </trkpt>
      <trkpt lat="42.31209942139685153961181640625" lon="2.10741774179041385650634765625">
        <ele>988.5999755859375</ele>
        <time>2020-08-09T15:37:24.000Z</time>
      </trkpt>
      <trkpt lat="42.312038652598857879638671875" lon="2.10735823027789592742919921875">
        <ele>989.79998779296875</ele>
        <time>2020-08-09T15:37:29.000Z</time>
      </trkpt>
      <trkpt lat="42.31202364899218082427978515625" lon="2.107350938022136688232421875">
        <ele>990.20001220703125</ele>
        <time>2020-08-09T15:37:30.000Z</time>
      </trkpt>
      <trkpt lat="42.3119714297354221343994140625" lon="2.10730894468724727630615234375">
        <ele>991</ele>
        <time>2020-08-09T15:37:34.000Z</time>
      </trkpt>
      <trkpt lat="42.31194041669368743896484375" lon="2.10726686753332614898681640625">
        <ele>991.4000244140625</ele>
        <time>2020-08-09T15:37:37.000Z</time>
      </trkpt>
      <trkpt lat="42.31192960403859615325927734375" lon="2.10725831799209117889404296875">
        <ele>991.4000244140625</ele>
        <time>2020-08-09T15:37:38.000Z</time>
      </trkpt>
      <trkpt lat="42.31188031844794750213623046875" lon="2.107204087078571319580078125">
        <ele>992</ele>
        <time>2020-08-09T15:37:42.000Z</time>
      </trkpt>
      <trkpt lat="42.311801277101039886474609375" lon="2.10712051950395107269287109375">
        <ele>993</ele>
        <time>2020-08-09T15:37:48.000Z</time>
      </trkpt>
      <trkpt lat="42.3117863573133945465087890625" lon="2.10711146704852581024169921875">
        <ele>993.20001220703125</ele>
        <time>2020-08-09T15:37:49.000Z</time>
      </trkpt>
      <trkpt lat="42.31172659434378147125244140625" lon="2.1070812083780765533447265625">
        <ele>993.79998779296875</ele>
        <time>2020-08-09T15:37:53.000Z</time>
      </trkpt>
      <trkpt lat="42.31171318329870700836181640625" lon="2.1070724911987781524658203125">
        <ele>993.79998779296875</ele>
        <time>2020-08-09T15:37:54.000Z</time>
      </trkpt>
      <trkpt lat="42.31167412362992763519287109375" lon="2.10704290308058261871337890625">
        <ele>994.20001220703125</ele>
        <time>2020-08-09T15:37:57.000Z</time>
      </trkpt>
      <trkpt lat="42.3116259276866912841796875" lon="2.1069972217082977294921875">
        <ele>995.20001220703125</ele>
        <time>2020-08-09T15:38:01.000Z</time>
      </trkpt>
      <trkpt lat="42.31160790659487247467041015625" lon="2.10698925890028476715087890625">
        <ele>995.4000244140625</ele>
        <time>2020-08-09T15:38:02.000Z</time>
      </trkpt>
      <trkpt lat="42.31157437898218631744384765625" lon="2.1069605089724063873291015625">
        <ele>996.20001220703125</ele>
        <time>2020-08-09T15:38:05.000Z</time>
      </trkpt>
      <trkpt lat="42.31156448833644390106201171875" lon="2.10694969631731510162353515625">
        <ele>996.5999755859375</ele>
        <time>2020-08-09T15:38:06.000Z</time>
      </trkpt>
      <trkpt lat="42.3115328885614871978759765625" lon="2.10689253173768520355224609375">
        <ele>997.79998779296875</ele>
        <time>2020-08-09T15:38:10.000Z</time>
      </trkpt>
      <trkpt lat="42.3115100897848606109619140625" lon="2.1068079583346843719482421875">
        <ele>998.79998779296875</ele>
        <time>2020-08-09T15:38:15.000Z</time>
      </trkpt>
      <trkpt lat="42.31149760074913501739501953125" lon="2.1067858301103115081787109375">
        <ele>999.20001220703125</ele>
        <time>2020-08-09T15:38:17.000Z</time>
      </trkpt>
      <trkpt lat="42.31145971454679965972900390625" lon="2.10676261223852634429931640625">
        <ele>999.79998779296875</ele>
        <time>2020-08-09T15:38:20.000Z</time>
      </trkpt>
      <trkpt lat="42.31143741868436336517333984375" lon="2.10675188340246677398681640625">
        <ele>999.79998779296875</ele>
        <time>2020-08-09T15:38:21.000Z</time>
      </trkpt>
      <trkpt lat="42.31139936484396457672119140625" lon="2.10673998109996318817138671875">
        <ele>1000.20001220703125</ele>
        <time>2020-08-09T15:38:23.000Z</time>
      </trkpt>
      <trkpt lat="42.311369441449642181396484375" lon="2.1067258156836032867431640625">
        <ele>1001</ele>
        <time>2020-08-09T15:38:25.000Z</time>
      </trkpt>
      <trkpt lat="42.31134907342493534088134765625" lon="2.10671986453235149383544921875">
        <ele>1001.20001220703125</ele>
        <time>2020-08-09T15:38:26.000Z</time>
      </trkpt>
      <trkpt lat="42.31126525439321994781494140625" lon="2.1067102253437042236328125">
        <ele>1001.79998779296875</ele>
        <time>2020-08-09T15:38:32.000Z</time>
      </trkpt>
      <trkpt lat="42.31123365461826324462890625" lon="2.10670377127826213836669921875">
        <ele>1002</ele>
        <time>2020-08-09T15:38:34.000Z</time>
      </trkpt>
      <trkpt lat="42.3112036474049091339111328125" lon="2.106688432395458221435546875">
        <ele>1002.4000244140625</ele>
        <time>2020-08-09T15:38:38.000Z</time>
      </trkpt>
      <trkpt lat="42.31118478812277317047119140625" lon="2.10669153369963169097900390625">
        <ele>1002.79998779296875</ele>
        <time>2020-08-09T15:38:49.000Z</time>
      </trkpt>
      <trkpt lat="42.31111354194581508636474609375" lon="2.1066785417497158050537109375">
        <ele>1003.20001220703125</ele>
        <time>2020-08-09T15:38:54.000Z</time>
      </trkpt>
      <trkpt lat="42.3110990412533283233642578125" lon="2.10667460225522518157958984375">
        <ele>1003.4000244140625</ele>
        <time>2020-08-09T15:38:55.000Z</time>
      </trkpt>
      <trkpt lat="42.31101639568805694580078125" lon="2.10665264166891574859619140625">
        <ele>1004.5999755859375</ele>
        <time>2020-08-09T15:39:00.000Z</time>
      </trkpt>
      <trkpt lat="42.3109997995197772979736328125" lon="2.106644175946712493896484375">
        <ele>1005</ele>
        <time>2020-08-09T15:39:01.000Z</time>
      </trkpt>
      <trkpt lat="42.31095629744231700897216796875" lon="2.106614671647548675537109375">
        <ele>1005.79998779296875</ele>
        <time>2020-08-09T15:39:04.000Z</time>
      </trkpt>
      <trkpt lat="42.31094456277787685394287109375" lon="2.106604613363742828369140625">
        <ele>1006.20001220703125</ele>
        <time>2020-08-09T15:39:05.000Z</time>
      </trkpt>
      <trkpt lat="42.31092293746769428253173828125" lon="2.10657787509262561798095703125">
        <ele>1006.4000244140625</ele>
        <time>2020-08-09T15:39:07.000Z</time>
      </trkpt>
      <trkpt lat="42.31088228523731231689453125" lon="2.10652071051299571990966796875">
        <ele>1007</ele>
        <time>2020-08-09T15:39:11.000Z</time>
      </trkpt>
      <trkpt lat="42.3108713887631893157958984375" lon="2.106507383286952972412109375">
        <ele>1007.4000244140625</ele>
        <time>2020-08-09T15:39:12.000Z</time>
      </trkpt>
      <trkpt lat="42.31078413315117359161376953125" lon="2.1064634621143341064453125">
        <ele>1008</ele>
        <time>2020-08-09T15:39:17.000Z</time>
      </trkpt>
      <trkpt lat="42.31077088974416255950927734375" lon="2.10645700804889202117919921875">
        <ele>1008.20001220703125</ele>
        <time>2020-08-09T15:39:18.000Z</time>
      </trkpt>
      <trkpt lat="42.31069578789174556732177734375" lon="2.1064351312816143035888671875">
        <ele>1008.79998779296875</ele>
        <time>2020-08-09T15:39:23.000Z</time>
      </trkpt>
      <trkpt lat="42.3106695525348186492919921875" lon="2.106432281434535980224609375">
        <ele>1009.20001220703125</ele>
        <time>2020-08-09T15:39:25.000Z</time>
      </trkpt>
      <trkpt lat="42.3106568120419979095458984375" lon="2.10642750374972820281982421875">
        <ele>1009.5999755859375</ele>
        <time>2020-08-09T15:39:26.000Z</time>
      </trkpt>
      <trkpt lat="42.31060258112847805023193359375" lon="2.10640512406826019287109375">
        <ele>1010</ele>
        <time>2020-08-09T15:39:29.000Z</time>
      </trkpt>
      <trkpt lat="42.31052018702030181884765625" lon="2.10633396171033382415771484375">
        <ele>1010.5999755859375</ele>
        <time>2020-08-09T15:39:36.000Z</time>
      </trkpt>
      <trkpt lat="42.310452125966548919677734375" lon="2.10624754428863525390625">
        <ele>1011.79998779296875</ele>
        <time>2020-08-09T15:39:42.000Z</time>
      </trkpt>
      <trkpt lat="42.3104140721261501312255859375" lon="2.10617504082620143890380859375">
        <ele>1012.20001220703125</ele>
        <time>2020-08-09T15:39:46.000Z</time>
      </trkpt>
      <trkpt lat="42.3104328475892543792724609375" lon="2.10614386014640331268310546875">
        <ele>1012.4000244140625</ele>
        <time>2020-08-09T15:39:48.000Z</time>
      </trkpt>
      <trkpt lat="42.31047232635319232940673828125" lon="2.10612961091101169586181640625">
        <ele>1012.5999755859375</ele>
        <time>2020-08-09T15:39:51.000Z</time>
      </trkpt>
      <trkpt lat="42.31047651730477809906005859375" lon="2.10612961091101169586181640625">
        <ele>1012.79998779296875</ele>
        <time>2020-08-09T15:39:52.000Z</time>
      </trkpt>
      <trkpt lat="42.310486994683742523193359375" lon="2.106141932308673858642578125">
        <ele>1013</ele>
        <time>2020-08-09T15:39:53.000Z</time>
      </trkpt>
      <trkpt lat="42.3105448298156261444091796875" lon="2.106197588145732879638671875">
        <ele>1014</ele>
        <time>2020-08-09T15:39:58.000Z</time>
      </trkpt>
      <trkpt lat="42.3105575703084468841552734375" lon="2.1062086522579193115234375">
        <ele>1014</ele>
        <time>2020-08-09T15:39:59.000Z</time>
      </trkpt>
      <trkpt lat="42.3105833865702152252197265625" lon="2.10623346269130706787109375">
        <ele>1014.4000244140625</ele>
        <time>2020-08-09T15:40:01.000Z</time>
      </trkpt>
      <trkpt lat="42.3106494359672069549560546875" lon="2.10627931170165538787841796875">
        <ele>1015.20001220703125</ele>
        <time>2020-08-09T15:40:06.000Z</time>
      </trkpt>
      <trkpt lat="42.3107262142002582550048828125" lon="2.1062973327934741973876953125">
        <ele>1016.20001220703125</ele>
        <time>2020-08-09T15:40:11.000Z</time>
      </trkpt>
      <trkpt lat="42.310766614973545074462890625" lon="2.10629791952669620513916015625">
        <ele>1017</ele>
        <time>2020-08-09T15:40:14.000Z</time>
      </trkpt>
      <trkpt lat="42.31079402379691600799560546875" lon="2.106299512088298797607421875">
        <ele>1017.4000244140625</ele>
        <time>2020-08-09T15:40:16.000Z</time>
      </trkpt>
      <trkpt lat="42.3108653537929058074951171875" lon="2.1063174493610858917236328125">
        <ele>1018.4000244140625</ele>
        <time>2020-08-09T15:40:21.000Z</time>
      </trkpt>
      <trkpt lat="42.31095361523330211639404296875" lon="2.10633647628128528594970703125">
        <ele>1019.5999755859375</ele>
        <time>2020-08-09T15:40:27.000Z</time>
      </trkpt>
      <trkpt lat="42.3110425472259521484375" lon="2.10634703747928142547607421875">
        <ele>1020.5999755859375</ele>
        <time>2020-08-09T15:40:33.000Z</time>
      </trkpt>
      <trkpt lat="42.3110537789762020111083984375" lon="2.10634988732635974884033203125">
        <ele>1020.79998779296875</ele>
        <time>2020-08-09T15:40:34.000Z</time>
      </trkpt>
      <trkpt lat="42.31108076870441436767578125" lon="2.10634745657444000244140625">
        <ele>1021.20001220703125</ele>
        <time>2020-08-09T15:40:36.000Z</time>
      </trkpt>
      <trkpt lat="42.311097197234630584716796875" lon="2.1063335426151752471923828125">
        <ele>1021.5999755859375</ele>
        <time>2020-08-09T15:40:38.000Z</time>
      </trkpt>
      <trkpt lat="42.31111831963062286376953125" lon="2.1063197962939739227294921875">
        <ele>1021.79998779296875</ele>
        <time>2020-08-09T15:40:40.000Z</time>
      </trkpt>
      <trkpt lat="42.31121077202260494232177734375" lon="2.1062825806438922882080078125">
        <ele>1022.4000244140625</ele>
        <time>2020-08-09T15:40:46.000Z</time>
      </trkpt>
      <trkpt lat="42.31125184334814548492431640625" lon="2.1062741987407207489013671875">
        <ele>1022.79998779296875</ele>
        <time>2020-08-09T15:40:49.000Z</time>
      </trkpt>
      <trkpt lat="42.31132275424897670745849609375" lon="2.10626355372369289398193359375">
        <ele>1023.5999755859375</ele>
        <time>2020-08-09T15:40:53.000Z</time>
      </trkpt>
      <trkpt lat="42.3113518394529819488525390625" lon="2.1062691695988178253173828125">
        <ele>1024</ele>
        <time>2020-08-09T15:40:55.000Z</time>
      </trkpt>
      <trkpt lat="42.31136684305965900421142578125" lon="2.1062757074832916259765625">
        <ele>1024.199951171875</ele>
        <time>2020-08-09T15:40:56.000Z</time>
      </trkpt>
      <trkpt lat="42.31139584444463253021240234375" lon="2.10627763532102108001708984375">
        <ele>1024.4000244140625</ele>
        <time>2020-08-09T15:40:58.000Z</time>
      </trkpt>
      <trkpt lat="42.31146206147968769073486328125" lon="2.10633597336709499359130859375">
        <ele>1025</ele>
        <time>2020-08-09T15:41:03.000Z</time>
      </trkpt>
      <trkpt lat="42.31154705397784709930419921875" lon="2.1063509769737720489501953125">
        <ele>1026</ele>
        <time>2020-08-09T15:41:08.000Z</time>
      </trkpt>
      <trkpt lat="42.3115593753755092620849609375" lon="2.1063543297350406646728515625">
        <ele>1026.4000244140625</ele>
        <time>2020-08-09T15:41:09.000Z</time>
      </trkpt>
      <trkpt lat="42.31159131042659282684326171875" lon="2.10634871385991573333740234375">
        <ele>1027.4000244140625</ele>
        <time>2020-08-09T15:41:12.000Z</time>
      </trkpt>
      <trkpt lat="42.31160782277584075927734375" lon="2.10632801055908203125">
        <ele>1027.800048828125</ele>
        <time>2020-08-09T15:41:14.000Z</time>
      </trkpt>
      <trkpt lat="42.3116096667945384979248046875" lon="2.1063161082565784454345703125">
        <ele>1027.800048828125</ele>
        <time>2020-08-09T15:41:15.000Z</time>
      </trkpt>
      <trkpt lat="42.3115811683237552642822265625" lon="2.10626372136175632476806640625">
        <ele>1028</ele>
        <time>2020-08-09T15:41:19.000Z</time>
      </trkpt>
      <trkpt lat="42.31153582222759723663330078125" lon="2.1062406711280345916748046875">
        <ele>1028.800048828125</ele>
        <time>2020-08-09T15:41:23.000Z</time>
      </trkpt>
      <trkpt lat="42.3115278594195842742919921875" lon="2.10623807273805141448974609375">
        <ele>1029.199951171875</ele>
        <time>2020-08-09T15:41:24.000Z</time>
      </trkpt>
      <trkpt lat="42.31150313280522823333740234375" lon="2.1062309481203556060791015625">
        <ele>1029.800048828125</ele>
        <time>2020-08-09T15:41:26.000Z</time>
      </trkpt>
      <trkpt lat="42.3114658333361148834228515625" lon="2.10622063837945461273193359375">
        <ele>1030.4000244140625</ele>
        <time>2020-08-09T15:41:29.000Z</time>
      </trkpt>
      <trkpt lat="42.31143792159855365753173828125" lon="2.1062111668288707733154296875">
        <ele>1030.5999755859375</ele>
        <time>2020-08-09T15:41:31.000Z</time>
      </trkpt>
      <trkpt lat="42.311416380107402801513671875" lon="2.10620588622987270355224609375">
        <ele>1031</ele>
        <time>2020-08-09T15:41:33.000Z</time>
      </trkpt>
      <trkpt lat="42.31138662435114383697509765625" lon="2.1061923913657665252685546875">
        <ele>1031.4000244140625</ele>
        <time>2020-08-09T15:41:36.000Z</time>
      </trkpt>
      <trkpt lat="42.31134002096951007843017578125" lon="2.10616582073271274566650390625">
        <ele>1032</ele>
        <time>2020-08-09T15:41:41.000Z</time>
      </trkpt>
      <trkpt lat="42.3113119415938854217529296875" lon="2.10615240968763828277587890625">
        <ele>1033</ele>
        <time>2020-08-09T15:41:44.000Z</time>
      </trkpt>
      <trkpt lat="42.311304397881031036376953125" lon="2.1061471290886402130126953125">
        <ele>1033.199951171875</ele>
        <time>2020-08-09T15:41:45.000Z</time>
      </trkpt>
      <trkpt lat="42.31126894243061542510986328125" lon="2.10612977854907512664794921875">
        <ele>1034.4000244140625</ele>
        <time>2020-08-09T15:41:49.000Z</time>
      </trkpt>
      <trkpt lat="42.31124413199722766876220703125" lon="2.10611972026526927947998046875">
        <ele>1034.5999755859375</ele>
        <time>2020-08-09T15:41:51.000Z</time>
      </trkpt>
      <trkpt lat="42.3112194053828716278076171875" lon="2.10610563866794109344482421875">
        <ele>1035</ele>
        <time>2020-08-09T15:41:53.000Z</time>
      </trkpt>
      <trkpt lat="42.31117623858153820037841796875" lon="2.10608703084290027618408203125">
        <ele>1035.4000244140625</ele>
        <time>2020-08-09T15:41:56.000Z</time>
      </trkpt>
      <trkpt lat="42.3111597262322902679443359375" lon="2.10608183406293392181396484375">
        <ele>1035.4000244140625</ele>
        <time>2020-08-09T15:41:57.000Z</time>
      </trkpt>
      <trkpt lat="42.31114623136818408966064453125" lon="2.1060757152736186981201171875">
        <ele>1035.5999755859375</ele>
        <time>2020-08-09T15:41:58.000Z</time>
      </trkpt>
      <trkpt lat="42.3110879771411418914794921875" lon="2.10605618543922901153564453125">
        <ele>1036.5999755859375</ele>
        <time>2020-08-09T15:42:02.000Z</time>
      </trkpt>
      <trkpt lat="42.31107431463897228240966796875" lon="2.1060465462505817413330078125">
        <ele>1036.5999755859375</ele>
        <time>2020-08-09T15:42:03.000Z</time>
      </trkpt>
      <trkpt lat="42.31100700795650482177734375" lon="2.10602014325559139251708984375">
        <ele>1037.199951171875</ele>
        <time>2020-08-09T15:42:08.000Z</time>
      </trkpt>
      <trkpt lat="42.3109848797321319580078125" lon="2.106002457439899444580078125">
        <ele>1037.5999755859375</ele>
        <time>2020-08-09T15:42:10.000Z</time>
      </trkpt>
      <trkpt lat="42.3109666071832180023193359375" lon="2.1059828437864780426025390625">
        <ele>1037.800048828125</ele>
        <time>2020-08-09T15:42:12.000Z</time>
      </trkpt>
      <trkpt lat="42.310932576656341552734375" lon="2.10595912300050258636474609375">
        <ele>1038.199951171875</ele>
        <time>2020-08-09T15:42:15.000Z</time>
      </trkpt>
      <trkpt lat="42.3109186626970767974853515625" lon="2.10594914853572845458984375">
        <ele>1038.5999755859375</ele>
        <time>2020-08-09T15:42:16.000Z</time>
      </trkpt>
      <trkpt lat="42.3108603246510028839111328125" lon="2.10586977191269397735595703125">
        <ele>1039.4000244140625</ele>
        <time>2020-08-09T15:42:22.000Z</time>
      </trkpt>
      <trkpt lat="42.31084498576819896697998046875" lon="2.1058343164622783660888671875">
        <ele>1039.800048828125</ele>
        <time>2020-08-09T15:42:24.000Z</time>
      </trkpt>
      <trkpt lat="42.3107905872166156768798828125" lon="2.10575963370501995086669921875">
        <ele>1040.4000244140625</ele>
        <time>2020-08-09T15:42:29.000Z</time>
      </trkpt>
      <trkpt lat="42.310782372951507568359375" lon="2.1057327277958393096923828125">
        <ele>1040.800048828125</ele>
        <time>2020-08-09T15:42:31.000Z</time>
      </trkpt>
      <trkpt lat="42.310756556689739227294921875" lon="2.10566885769367218017578125">
        <ele>1041.4000244140625</ele>
        <time>2020-08-09T15:42:35.000Z</time>
      </trkpt>
      <trkpt lat="42.3107211850583553314208984375" lon="2.1056227572262287139892578125">
        <ele>1042</ele>
        <time>2020-08-09T15:42:39.000Z</time>
      </trkpt>
      <trkpt lat="42.31070995330810546875" lon="2.1055942587554454803466796875">
        <ele>1042.800048828125</ele>
        <time>2020-08-09T15:42:41.000Z</time>
      </trkpt>
      <trkpt lat="42.310701906681060791015625" lon="2.10557992570102214813232421875">
        <ele>1043</ele>
        <time>2020-08-09T15:42:42.000Z</time>
      </trkpt>
      <trkpt lat="42.31068388558924198150634765625" lon="2.10554681718349456787109375">
        <ele>1043.199951171875</ele>
        <time>2020-08-09T15:42:44.000Z</time>
      </trkpt>
      <trkpt lat="42.31066142208874225616455078125" lon="2.105483114719390869140625">
        <ele>1043.5999755859375</ele>
        <time>2020-08-09T15:42:47.000Z</time>
      </trkpt>
      <trkpt lat="42.3106306605041027069091796875" lon="2.105402313172817230224609375">
        <ele>1044.4000244140625</ele>
        <time>2020-08-09T15:42:51.000Z</time>
      </trkpt>
      <trkpt lat="42.3106147348880767822265625" lon="2.10536182858049869537353515625">
        <ele>1044.4000244140625</ele>
        <time>2020-08-09T15:42:53.000Z</time>
      </trkpt>
      <trkpt lat="42.310578189790248870849609375" lon="2.10528664290904998779296875">
        <ele>1044.5999755859375</ele>
        <time>2020-08-09T15:42:57.000Z</time>
      </trkpt>
      <trkpt lat="42.3105558939278125762939453125" lon="2.10525135509669780731201171875">
        <ele>1045</ele>
        <time>2020-08-09T15:42:59.000Z</time>
      </trkpt>
      <trkpt lat="42.3105334304273128509521484375" lon="2.10521422326564788818359375">
        <ele>1045.4000244140625</ele>
        <time>2020-08-09T15:43:01.000Z</time>
      </trkpt>
      <trkpt lat="42.31051943264901638031005859375" lon="2.1052003093063831329345703125">
        <ele>1045.5999755859375</ele>
        <time>2020-08-09T15:43:02.000Z</time>
      </trkpt>
      <trkpt lat="42.310478277504444122314453125" lon="2.10516393184661865234375">
        <ele>1046</ele>
        <time>2020-08-09T15:43:05.000Z</time>
      </trkpt>
      <trkpt lat="42.31040040962398052215576171875" lon="2.10510349832475185394287109375">
        <ele>1046.5999755859375</ele>
        <time>2020-08-09T15:43:10.000Z</time>
      </trkpt>
      <trkpt lat="42.31038599275052547454833984375" lon="2.10509360767900943756103515625">
        <ele>1046.5999755859375</ele>
        <time>2020-08-09T15:43:11.000Z</time>
      </trkpt>
      <trkpt lat="42.3103332705795764923095703125" lon="2.10506728850305080413818359375">
        <ele>1047</ele>
        <time>2020-08-09T15:43:14.000Z</time>
      </trkpt>
      <trkpt lat="42.310301922261714935302734375" lon="2.10504884831607341766357421875">
        <ele>1047</ele>
        <time>2020-08-09T15:43:16.000Z</time>
      </trkpt>
      <trkpt lat="42.3102450929582118988037109375" lon="2.10502873174846172332763671875">
        <ele>1047.5999755859375</ele>
        <time>2020-08-09T15:43:20.000Z</time>
      </trkpt>
      <trkpt lat="42.3101914487779140472412109375" lon="2.10500945337116718292236328125">
        <ele>1048</ele>
        <time>2020-08-09T15:43:23.000Z</time>
      </trkpt>
      <trkpt lat="42.3101059533655643463134765625" lon="2.1049882471561431884765625">
        <ele>1048.5999755859375</ele>
        <time>2020-08-09T15:43:28.000Z</time>
      </trkpt>
      <trkpt lat="42.3100888542830944061279296875" lon="2.10498489439487457275390625">
        <ele>1049</ele>
        <time>2020-08-09T15:43:29.000Z</time>
      </trkpt>
      <trkpt lat="42.31002640910446643829345703125" lon="2.10498212836682796478271484375">
        <ele>1049.4000244140625</ele>
        <time>2020-08-09T15:43:33.000Z</time>
      </trkpt>
      <trkpt lat="42.3100147582590579986572265625" lon="2.10497827269136905670166015625">
        <ele>1049.5999755859375</ele>
        <time>2020-08-09T15:43:34.000Z</time>
      </trkpt>
      <trkpt lat="42.3099751956760883331298828125" lon="2.1049766801297664642333984375">
        <ele>1050.199951171875</ele>
        <time>2020-08-09T15:43:37.000Z</time>
      </trkpt>
      <trkpt lat="42.30992130003869533538818359375" lon="2.10496746003627777099609375">
        <ele>1050.5999755859375</ele>
        <time>2020-08-09T15:43:40.000Z</time>
      </trkpt>
      <trkpt lat="42.30989213101565837860107421875" lon="2.1049196831881999969482421875">
        <ele>1051.199951171875</ele>
        <time>2020-08-09T15:43:43.000Z</time>
      </trkpt>
      <trkpt lat="42.30989523231983184814453125" lon="2.10487752221524715423583984375">
        <ele>1051.800048828125</ele>
        <time>2020-08-09T15:43:45.000Z</time>
      </trkpt>
      <trkpt lat="42.30991308577358722686767578125" lon="2.10484064184129238128662109375">
        <ele>1052.199951171875</ele>
        <time>2020-08-09T15:43:47.000Z</time>
      </trkpt>
      <trkpt lat="42.3099393211305141448974609375" lon="2.10482572205364704132080078125">
        <ele>1052.4000244140625</ele>
        <time>2020-08-09T15:43:49.000Z</time>
      </trkpt>
      <trkpt lat="42.3099782131612300872802734375" lon="2.10482035763561725616455078125">
        <ele>1053.199951171875</ele>
        <time>2020-08-09T15:43:52.000Z</time>
      </trkpt>
      <trkpt lat="42.3100030235946178436279296875" lon="2.1048248000442981719970703125">
        <ele>1053.5999755859375</ele>
        <time>2020-08-09T15:43:54.000Z</time>
      </trkpt>
      <trkpt lat="42.310043089091777801513671875" lon="2.10482169874012470245361328125">
        <ele>1054.199951171875</ele>
        <time>2020-08-09T15:43:57.000Z</time>
      </trkpt>
      <trkpt lat="42.310055829584598541259765625" lon="2.10481868125498294830322265625">
        <ele>1054.4000244140625</ele>
        <time>2020-08-09T15:43:58.000Z</time>
      </trkpt>
      <trkpt lat="42.3100821487605571746826171875" lon="2.10481398738920688629150390625">
        <ele>1054.800048828125</ele>
        <time>2020-08-09T15:44:00.000Z</time>
      </trkpt>
      <trkpt lat="42.3100952245295047760009765625" lon="2.10481013171374797821044921875">
        <ele>1055.199951171875</ele>
        <time>2020-08-09T15:44:01.000Z</time>
      </trkpt>
      <trkpt lat="42.3101196996867656707763671875" lon="2.10480862297117710113525390625">
        <ele>1055.4000244140625</ele>
        <time>2020-08-09T15:44:03.000Z</time>
      </trkpt>
      <trkpt lat="42.31014694087207317352294921875" lon="2.104806862771511077880859375">
        <ele>1055.800048828125</ele>
        <time>2020-08-09T15:44:05.000Z</time>
      </trkpt>
      <trkpt lat="42.31016119010746479034423828125" lon="2.1048073656857013702392578125">
        <ele>1056</ele>
        <time>2020-08-09T15:44:06.000Z</time>
      </trkpt>
      <trkpt lat="42.31022916734218597412109375" lon="2.10479605011641979217529296875">
        <ele>1056.4000244140625</ele>
        <time>2020-08-09T15:44:11.000Z</time>
      </trkpt>
      <trkpt lat="42.310244254767894744873046875" lon="2.1047946251928806304931640625">
        <ele>1056.5999755859375</ele>
        <time>2020-08-09T15:44:12.000Z</time>
      </trkpt>
      <trkpt lat="42.3102953843772411346435546875" lon="2.104785740375518798828125">
        <ele>1057.4000244140625</ele>
        <time>2020-08-09T15:44:16.000Z</time>
      </trkpt>
      <trkpt lat="42.31031893752515316009521484375" lon="2.10478842258453369140625">
        <ele>1057.5999755859375</ele>
        <time>2020-08-09T15:44:18.000Z</time>
      </trkpt>
      <trkpt lat="42.31033218093216419219970703125" lon="2.10478465072810649871826171875">
        <ele>1058.199951171875</ele>
        <time>2020-08-09T15:44:19.000Z</time>
      </trkpt>
      <trkpt lat="42.31035984121263027191162109375" lon="2.10477543063461780548095703125">
        <ele>1058.800048828125</ele>
        <time>2020-08-09T15:44:21.000Z</time>
      </trkpt>
      <trkpt lat="42.31037224642932415008544921875" lon="2.10476973094046115875244140625">
        <ele>1059</ele>
        <time>2020-08-09T15:44:22.000Z</time>
      </trkpt>
      <trkpt lat="42.31042723171412944793701171875" lon="2.10478431545197963714599609375">
        <ele>1059.4000244140625</ele>
        <time>2020-08-09T15:44:26.000Z</time>
      </trkpt>
      <trkpt lat="42.3104422353208065032958984375" lon="2.10478506982326507568359375">
        <ele>1059.4000244140625</ele>
        <time>2020-08-09T15:44:27.000Z</time>
      </trkpt>
      <trkpt lat="42.3104747571051120758056640625" lon="2.10479152388870716094970703125">
        <ele>1059.5999755859375</ele>
        <time>2020-08-09T15:44:30.000Z</time>
      </trkpt>
      <trkpt lat="42.31050468049943447113037109375" lon="2.1047906018793582916259765625">
        <ele>1060</ele>
        <time>2020-08-09T15:44:32.000Z</time>
      </trkpt>
      <trkpt lat="42.3105870746076107025146484375" lon="2.10480409674346446990966796875">
        <ele>1061</ele>
        <time>2020-08-09T15:44:37.000Z</time>
      </trkpt>
      <trkpt lat="42.3106018267571926116943359375" lon="2.1048063598573207855224609375">
        <ele>1061.199951171875</ele>
        <time>2020-08-09T15:44:38.000Z</time>
      </trkpt>
      <trkpt lat="42.31066997162997722625732421875" lon="2.10481147281825542449951171875">
        <ele>1061.5999755859375</ele>
        <time>2020-08-09T15:44:43.000Z</time>
      </trkpt>
      <trkpt lat="42.31071355752646923065185546875" lon="2.10480191744863986968994140625">
        <ele>1062.199951171875</ele>
        <time>2020-08-09T15:44:46.000Z</time>
      </trkpt>
      <trkpt lat="42.31076401658356189727783203125" lon="2.10476302541792392730712890625">
        <ele>1062.4000244140625</ele>
        <time>2020-08-09T15:44:49.000Z</time>
      </trkpt>
      <trkpt lat="42.31083140708506107330322265625" lon="2.10468540899455547332763671875">
        <ele>1063.199951171875</ele>
        <time>2020-08-09T15:44:54.000Z</time>
      </trkpt>
      <trkpt lat="42.31085001491010189056396484375" lon="2.1046457625925540924072265625">
        <ele>1064</ele>
        <time>2020-08-09T15:44:56.000Z</time>
      </trkpt>
      <trkpt lat="42.31087063439190387725830078125" lon="2.104609049856662750244140625">
        <ele>1064.4000244140625</ele>
        <time>2020-08-09T15:44:58.000Z</time>
      </trkpt>
      <trkpt lat="42.3108767531812191009521484375" lon="2.10455750115215778350830078125">
        <ele>1064.5999755859375</ele>
        <time>2020-08-09T15:45:01.000Z</time>
      </trkpt>
      <trkpt lat="42.31083140708506107330322265625" lon="2.10451592691242694854736328125">
        <ele>1065.199951171875</ele>
        <time>2020-08-09T15:45:05.000Z</time>
      </trkpt>
      <trkpt lat="42.31081732548773288726806640625" lon="2.104513160884380340576171875">
        <ele>1065.4000244140625</ele>
        <time>2020-08-09T15:45:06.000Z</time>
      </trkpt>
      <trkpt lat="42.31077943928539752960205078125" lon="2.104503773152828216552734375">
        <ele>1066.5999755859375</ele>
        <time>2020-08-09T15:45:09.000Z</time>
      </trkpt>
      <trkpt lat="42.3107483424246311187744140625" lon="2.10449673235416412353515625">
        <ele>1067</ele>
        <time>2020-08-09T15:45:12.000Z</time>
      </trkpt>
      <trkpt lat="42.31070752255618572235107421875" lon="2.10448910482227802276611328125">
        <ele>1067.800048828125</ele>
        <time>2020-08-09T15:45:16.000Z</time>
      </trkpt>
      <trkpt lat="42.3106950335204601287841796875" lon="2.10448625497519969940185546875">
        <ele>1068.199951171875</ele>
        <time>2020-08-09T15:45:17.000Z</time>
      </trkpt>
      <trkpt lat="42.31067248620092868804931640625" lon="2.10448390804231166839599609375">
        <ele>1069</ele>
        <time>2020-08-09T15:45:19.000Z</time>
      </trkpt>
      <trkpt lat="42.31063610874116420745849609375" lon="2.104480974376201629638671875">
        <ele>1069.800048828125</ele>
        <time>2020-08-09T15:45:23.000Z</time>
      </trkpt>
      <trkpt lat="42.31062957085669040679931640625" lon="2.1044834889471530914306640625">
        <ele>1070</ele>
        <time>2020-08-09T15:45:26.000Z</time>
      </trkpt>
      <trkpt lat="42.310625799000263214111328125" lon="2.10447820834815502166748046875">
        <ele>1070.4000244140625</ele>
        <time>2020-08-09T15:45:28.000Z</time>
      </trkpt>
      <trkpt lat="42.31062336824834346771240234375" lon="2.10447787307202816009521484375">
        <ele>1070.4000244140625</ele>
        <time>2020-08-09T15:45:40.000Z</time>
      </trkpt>
      <trkpt lat="42.31062269769608974456787109375" lon="2.10447502322494983673095703125">
        <ele>1069.5999755859375</ele>
        <time>2020-08-09T15:45:54.000Z</time>
      </trkpt>
      <trkpt lat="42.3105978034436702728271484375" lon="2.10446245037019252777099609375">
        <ele>1070.199951171875</ele>
        <time>2020-08-09T15:46:06.000Z</time>
      </trkpt>
      <trkpt lat="42.3105129785835742950439453125" lon="2.1044342033565044403076171875">
        <ele>1071</ele>
        <time>2020-08-09T15:46:15.000Z</time>
      </trkpt>
      <trkpt lat="42.31050141155719757080078125" lon="2.1044342033565044403076171875">
        <ele>1071</ele>
        <time>2020-08-09T15:46:16.000Z</time>
      </trkpt>
      <trkpt lat="42.31049143709242343902587890625" lon="2.10442925803363323211669921875">
        <ele>1071</ele>
        <time>2020-08-09T15:46:17.000Z</time>
      </trkpt>
      <trkpt lat="42.3104281537234783172607421875" lon="2.10440914146602153778076171875">
        <ele>1072</ele>
        <time>2020-08-09T15:46:23.000Z</time>
      </trkpt>
      <trkpt lat="42.31035833247005939483642578125" lon="2.1043874323368072509765625">
        <ele>1073.199951171875</ele>
        <time>2020-08-09T15:46:29.000Z</time>
      </trkpt>
      <trkpt lat="42.3103466816246509552001953125" lon="2.10438198409974575042724609375">
        <ele>1073.5999755859375</ele>
        <time>2020-08-09T15:46:30.000Z</time>
      </trkpt>
      <trkpt lat="42.31032765470445156097412109375" lon="2.10436538793146610260009765625">
        <ele>1074.199951171875</ele>
        <time>2020-08-09T15:46:32.000Z</time>
      </trkpt>
      <trkpt lat="42.3102963902056217193603515625" lon="2.1043426729738712310791015625">
        <ele>1075</ele>
        <time>2020-08-09T15:46:35.000Z</time>
      </trkpt>
      <trkpt lat="42.310257665812969207763671875" lon="2.10433655418455600738525390625">
        <ele>1075.199951171875</ele>
        <time>2020-08-09T15:46:38.000Z</time>
      </trkpt>
      <trkpt lat="42.310222126543521881103515625" lon="2.10431878454983234405517578125">
        <ele>1075.5999755859375</ele>
        <time>2020-08-09T15:46:41.000Z</time>
      </trkpt>
      <trkpt lat="42.31013252399861812591552734375" lon="2.104286849498748779296875">
        <ele>1076.199951171875</ele>
        <time>2020-08-09T15:46:48.000Z</time>
      </trkpt>
      <trkpt lat="42.3101196996867656707763671875" lon="2.10428559221327304840087890625">
        <ele>1076.5999755859375</ele>
        <time>2020-08-09T15:46:49.000Z</time>
      </trkpt>
      <trkpt lat="42.31006152927875518798828125" lon="2.10426078177988529205322265625">
        <ele>1077.5999755859375</ele>
        <time>2020-08-09T15:46:54.000Z</time>
      </trkpt>
      <trkpt lat="42.3100482858717441558837890625" lon="2.104254662990570068359375">
        <ele>1077.800048828125</ele>
        <time>2020-08-09T15:46:55.000Z</time>
      </trkpt>
      <trkpt lat="42.30998282320797443389892578125" lon="2.1042306907474994659423828125">
        <ele>1078.800048828125</ele>
        <time>2020-08-09T15:47:00.000Z</time>
      </trkpt>
      <trkpt lat="42.309959940612316131591796875" lon="2.10422473959624767303466796875">
        <ele>1079</ele>
        <time>2020-08-09T15:47:02.000Z</time>
      </trkpt>
      <trkpt lat="42.30993219651281833648681640625" lon="2.10421107709407806396484375">
        <ele>1079.800048828125</ele>
        <time>2020-08-09T15:47:04.000Z</time>
      </trkpt>
      <trkpt lat="42.30988726951181888580322265625" lon="2.104185260832309722900390625">
        <ele>1080.5999755859375</ele>
        <time>2020-08-09T15:47:08.000Z</time>
      </trkpt>
      <trkpt lat="42.30986648239195346832275390625" lon="2.10417478345334529876708984375">
        <ele>1080.800048828125</ele>
        <time>2020-08-09T15:47:10.000Z</time>
      </trkpt>
      <trkpt lat="42.3098437674343585968017578125" lon="2.10416355170309543609619140625">
        <ele>1080.800048828125</ele>
        <time>2020-08-09T15:47:12.000Z</time>
      </trkpt>
      <trkpt lat="42.30980646796524524688720703125" lon="2.10415801964700222015380859375">
        <ele>1081</ele>
        <time>2020-08-09T15:47:15.000Z</time>
      </trkpt>
      <trkpt lat="42.3097710125148296356201171875" lon="2.1041398309171199798583984375">
        <ele>1081.4000244140625</ele>
        <time>2020-08-09T15:47:18.000Z</time>
      </trkpt>
      <trkpt lat="42.30973689816892147064208984375" lon="2.1041291020810604095458984375">
        <ele>1081.800048828125</ele>
        <time>2020-08-09T15:47:21.000Z</time>
      </trkpt>
      <trkpt lat="42.30972667224705219268798828125" lon="2.10412482731044292449951171875">
        <ele>1081.800048828125</ele>
        <time>2020-08-09T15:47:22.000Z</time>
      </trkpt>
      <trkpt lat="42.30966011993587017059326171875" lon="2.10410906933248043060302734375">
        <ele>1083.199951171875</ele>
        <time>2020-08-09T15:47:27.000Z</time>
      </trkpt>
      <trkpt lat="42.30960429646074771881103515625" lon="2.1040942333638668060302734375">
        <ele>1084.199951171875</ele>
        <time>2020-08-09T15:47:31.000Z</time>
      </trkpt>
      <trkpt lat="42.3095820844173431396484375" lon="2.10409046150743961334228515625">
        <ele>1084.5999755859375</ele>
        <time>2020-08-09T15:47:33.000Z</time>
      </trkpt>
      <trkpt lat="42.3095715232193470001220703125" lon="2.10408509708940982818603515625">
        <ele>1084.800048828125</ele>
        <time>2020-08-09T15:47:34.000Z</time>
      </trkpt>
      <trkpt lat="42.30953975580632686614990234375" lon="2.1040789783000946044921875">
        <ele>1085.199951171875</ele>
        <time>2020-08-09T15:47:36.000Z</time>
      </trkpt>
      <trkpt lat="42.30949047021567821502685546875" lon="2.10407520644366741180419921875">
        <ele>1085.800048828125</ele>
        <time>2020-08-09T15:47:39.000Z</time>
      </trkpt>
      <trkpt lat="42.30947555042803287506103515625" lon="2.1040694229304790496826171875">
        <ele>1085.800048828125</ele>
        <time>2020-08-09T15:47:40.000Z</time>
      </trkpt>
      <trkpt lat="42.30942391790449619293212890625" lon="2.10404519923031330108642578125">
        <ele>1086.199951171875</ele>
        <time>2020-08-09T15:47:44.000Z</time>
      </trkpt>
      <trkpt lat="42.3093943297863006591796875" lon="2.104037068784236907958984375">
        <ele>1086.4000244140625</ele>
        <time>2020-08-09T15:47:46.000Z</time>
      </trkpt>
      <trkpt lat="42.30932568199932575225830078125" lon="2.1040117554366588592529296875">
        <ele>1086.4000244140625</ele>
        <time>2020-08-09T15:47:50.000Z</time>
      </trkpt>
      <trkpt lat="42.309240438044071197509765625" lon="2.10399323143064975738525390625">
        <ele>1086.5999755859375</ele>
        <time>2020-08-09T15:47:56.000Z</time>
      </trkpt>
      <trkpt lat="42.30919827707111835479736328125" lon="2.10397562943398952484130859375">
        <ele>1086.800048828125</ele>
        <time>2020-08-09T15:47:59.000Z</time>
      </trkpt>
      <trkpt lat="42.3091691918671131134033203125" lon="2.1039715223014354705810546875">
        <ele>1086.800048828125</ele>
        <time>2020-08-09T15:48:01.000Z</time>
      </trkpt>
      <trkpt lat="42.309053353965282440185546875" lon="2.10395266301929950714111328125">
        <ele>1087.4000244140625</ele>
        <time>2020-08-09T15:48:08.000Z</time>
      </trkpt>
      <trkpt lat="42.30901940725743770599365234375" lon="2.1039436943829059600830078125">
        <ele>1087.4000244140625</ele>
        <time>2020-08-09T15:48:10.000Z</time>
      </trkpt>
      <trkpt lat="42.30898059904575347900390625" lon="2.103911004960536956787109375">
        <ele>1087.800048828125</ele>
        <time>2020-08-09T15:48:13.000Z</time>
      </trkpt>
      <trkpt lat="42.3089512623846530914306640625" lon="2.103884182870388031005859375">
        <ele>1088.199951171875</ele>
        <time>2020-08-09T15:48:15.000Z</time>
      </trkpt>
      <trkpt lat="42.308936677873134613037109375" lon="2.10387085564434528350830078125">
        <ele>1088.4000244140625</ele>
        <time>2020-08-09T15:48:16.000Z</time>
      </trkpt>
      <trkpt lat="42.3089120350778102874755859375" lon="2.1038414351642131805419921875">
        <ele>1089</ele>
        <time>2020-08-09T15:48:18.000Z</time>
      </trkpt>
      <trkpt lat="42.30886518023908138275146484375" lon="2.10376423783600330352783203125">
        <ele>1089.4000244140625</ele>
        <time>2020-08-09T15:48:23.000Z</time>
      </trkpt>
      <trkpt lat="42.30882494710385799407958984375" lon="2.1037036366760730743408203125">
        <ele>1090.5999755859375</ele>
        <time>2020-08-09T15:48:27.000Z</time>
      </trkpt>
      <trkpt lat="42.30881069786846637725830078125" lon="2.103669941425323486328125">
        <ele>1091</ele>
        <time>2020-08-09T15:48:29.000Z</time>
      </trkpt>
      <trkpt lat="42.30878622271120548248291015625" lon="2.10364085622131824493408203125">
        <ele>1091.4000244140625</ele>
        <time>2020-08-09T15:48:31.000Z</time>
      </trkpt>
      <trkpt lat="42.30877541005611419677734375" lon="2.1036268584430217742919921875">
        <ele>1091.800048828125</ele>
        <time>2020-08-09T15:48:32.000Z</time>
      </trkpt>
      <trkpt lat="42.308754287660121917724609375" lon="2.10360087454319000244140625">
        <ele>1092.199951171875</ele>
        <time>2020-08-09T15:48:34.000Z</time>
      </trkpt>
      <trkpt lat="42.3087269626557826995849609375" lon="2.10357614792883396148681640625">
        <ele>1092.800048828125</ele>
        <time>2020-08-09T15:48:36.000Z</time>
      </trkpt>
      <trkpt lat="42.30868362821638584136962890625" lon="2.103542201220989227294921875">
        <ele>1093.4000244140625</ele>
        <time>2020-08-09T15:48:39.000Z</time>
      </trkpt>
      <trkpt lat="42.30866669677197933197021484375" lon="2.1035001240670680999755859375">
        <ele>1094</ele>
        <time>2020-08-09T15:48:42.000Z</time>
      </trkpt>
      <trkpt lat="42.30864473618566989898681640625" lon="2.10348042659461498260498046875">
        <ele>1094.4000244140625</ele>
        <time>2020-08-09T15:48:44.000Z</time>
      </trkpt>
      <trkpt lat="42.3085948638617992401123046875" lon="2.10343399085104465484619140625">
        <ele>1094.800048828125</ele>
        <time>2020-08-09T15:48:48.000Z</time>
      </trkpt>
      <trkpt lat="42.30856594629585742950439453125" lon="2.10340985096991062164306640625">
        <ele>1095.199951171875</ele>
        <time>2020-08-09T15:48:51.000Z</time>
      </trkpt>
      <trkpt lat="42.30853208340704441070556640625" lon="2.1033717133104801177978515625">
        <ele>1095.800048828125</ele>
        <time>2020-08-09T15:48:55.000Z</time>
      </trkpt>
      <trkpt lat="42.3085237853229045867919921875" lon="2.10336240939795970916748046875">
        <ele>1096</ele>
        <time>2020-08-09T15:48:56.000Z</time>
      </trkpt>
      <trkpt lat="42.30847475118935108184814453125" lon="2.1032557077705860137939453125">
        <ele>1096.800048828125</ele>
        <time>2020-08-09T15:49:03.000Z</time>
      </trkpt>
      <trkpt lat="42.30845312587916851043701171875" lon="2.10322008468210697174072265625">
        <ele>1097.199951171875</ele>
        <time>2020-08-09T15:49:05.000Z</time>
      </trkpt>
      <trkpt lat="42.30841892771422863006591796875" lon="2.10313727147877216339111328125">
        <ele>1098.199951171875</ele>
        <time>2020-08-09T15:49:09.000Z</time>
      </trkpt>
      <trkpt lat="42.30839747004210948944091796875" lon="2.10308589041233062744140625">
        <ele>1098.4000244140625</ele>
        <time>2020-08-09T15:49:12.000Z</time>
      </trkpt>
      <trkpt lat="42.30839109979569911956787109375" lon="2.1030532009899616241455078125">
        <ele>1098.800048828125</ele>
        <time>2020-08-09T15:49:14.000Z</time>
      </trkpt>
      <trkpt lat="42.30838523246347904205322265625" lon="2.10303585045039653778076171875">
        <ele>1099</ele>
        <time>2020-08-09T15:49:15.000Z</time>
      </trkpt>
      <trkpt lat="42.3083675466477870941162109375" lon="2.10299930535256862640380859375">
        <ele>1099.5999755859375</ele>
        <time>2020-08-09T15:49:17.000Z</time>
      </trkpt>
      <trkpt lat="42.3083517886698246002197265625" lon="2.10294465534389019012451171875">
        <ele>1100.4000244140625</ele>
        <time>2020-08-09T15:49:20.000Z</time>
      </trkpt>
      <trkpt lat="42.30834030546247959136962890625" lon="2.1029284782707691192626953125">
        <ele>1100.5999755859375</ele>
        <time>2020-08-09T15:49:21.000Z</time>
      </trkpt>
      <trkpt lat="42.308327816426753997802734375" lon="2.10291481576859951019287109375">
        <ele>1100.5999755859375</ele>
        <time>2020-08-09T15:49:22.000Z</time>
      </trkpt>
      <trkpt lat="42.30828649364411830902099609375" lon="2.1028639376163482666015625">
        <ele>1101</ele>
        <time>2020-08-09T15:49:26.000Z</time>
      </trkpt>
      <trkpt lat="42.30827241204679012298583984375" lon="2.10283602587878704071044921875">
        <ele>1101.4000244140625</ele>
        <time>2020-08-09T15:49:28.000Z</time>
      </trkpt>
      <trkpt lat="42.308239638805389404296875" lon="2.1028027497231960296630859375">
        <ele>1101.800048828125</ele>
        <time>2020-08-09T15:49:31.000Z</time>
      </trkpt>
      <trkpt lat="42.30821943841874599456787109375" lon="2.1027531288564205169677734375">
        <ele>1102.199951171875</ele>
        <time>2020-08-09T15:49:34.000Z</time>
      </trkpt>
      <trkpt lat="42.3081911914050579071044921875" lon="2.10271465592086315155029296875">
        <ele>1102.800048828125</ele>
        <time>2020-08-09T15:49:37.000Z</time>
      </trkpt>
      <trkpt lat="42.3081631958484649658203125" lon="2.10269889794290065765380859375">
        <ele>1103.199951171875</ele>
        <time>2020-08-09T15:49:39.000Z</time>
      </trkpt>
      <trkpt lat="42.30812706984579563140869140625" lon="2.10264458321034908294677734375">
        <ele>1103.5999755859375</ele>
        <time>2020-08-09T15:49:44.000Z</time>
      </trkpt>
      <trkpt lat="42.30811692774295806884765625" lon="2.1026173420250415802001953125">
        <ele>1104</ele>
        <time>2020-08-09T15:49:46.000Z</time>
      </trkpt>
      <trkpt lat="42.30809052474796772003173828125" lon="2.102550454437732696533203125">
        <ele>1104.5999755859375</ele>
        <time>2020-08-09T15:49:50.000Z</time>
      </trkpt>
      <trkpt lat="42.308070994913578033447265625" lon="2.10251684300601482391357421875">
        <ele>1105</ele>
        <time>2020-08-09T15:49:52.000Z</time>
      </trkpt>
      <trkpt lat="42.30806571431457996368408203125" lon="2.10249655880033969879150390625">
        <ele>1105.199951171875</ele>
        <time>2020-08-09T15:49:53.000Z</time>
      </trkpt>
      <trkpt lat="42.3080429993569850921630859375" lon="2.10241542197763919830322265625">
        <ele>1105.800048828125</ele>
        <time>2020-08-09T15:49:57.000Z</time>
      </trkpt>
      <trkpt lat="42.3080366291105747222900390625" lon="2.10235289297997951507568359375">
        <ele>1106.4000244140625</ele>
        <time>2020-08-09T15:50:00.000Z</time>
      </trkpt>
      <trkpt lat="42.308029420673847198486328125" lon="2.1023226343095302581787109375">
        <ele>1106.5999755859375</ele>
        <time>2020-08-09T15:50:02.000Z</time>
      </trkpt>
      <trkpt lat="42.3080252297222614288330078125" lon="2.10228851996362209320068359375">
        <ele>1106.800048828125</ele>
        <time>2020-08-09T15:50:04.000Z</time>
      </trkpt>
      <trkpt lat="42.30800628662109375" lon="2.102237977087497711181640625">
        <ele>1107.199951171875</ele>
        <time>2020-08-09T15:50:07.000Z</time>
      </trkpt>
      <trkpt lat="42.3079853318631649017333984375" lon="2.1022052876651287078857421875">
        <ele>1107.4000244140625</ele>
        <time>2020-08-09T15:50:09.000Z</time>
      </trkpt>
      <trkpt lat="42.3078984953463077545166015625" lon="2.10210311226546764373779296875">
        <ele>1108.4000244140625</ele>
        <time>2020-08-09T15:50:16.000Z</time>
      </trkpt>
      <trkpt lat="42.3078917898237705230712890625" lon="2.10208408534526824951171875">
        <ele>1108.5999755859375</ele>
        <time>2020-08-09T15:50:17.000Z</time>
      </trkpt>
      <trkpt lat="42.3078592680394649505615234375" lon="2.1020094864070415496826171875">
        <ele>1109</ele>
        <time>2020-08-09T15:50:21.000Z</time>
      </trkpt>
      <trkpt lat="42.3078532330691814422607421875" lon="2.101987861096858978271484375">
        <ele>1109.4000244140625</ele>
        <time>2020-08-09T15:50:22.000Z</time>
      </trkpt>
      <trkpt lat="42.307853400707244873046875" lon="2.10196229629218578338623046875">
        <ele>1109.800048828125</ele>
        <time>2020-08-09T15:50:23.000Z</time>
      </trkpt>
      <trkpt lat="42.30785683728754520416259765625" lon="2.10193715058267116546630859375">
        <ele>1110.199951171875</ele>
        <time>2020-08-09T15:50:24.000Z</time>
      </trkpt>
      <trkpt lat="42.307883240282535552978515625" lon="2.10185400210320949554443359375">
        <ele>1110.800048828125</ele>
        <time>2020-08-09T15:50:28.000Z</time>
      </trkpt>
      <trkpt lat="42.307887263596057891845703125" lon="2.101833634078502655029296875">
        <ele>1111</ele>
        <time>2020-08-09T15:50:29.000Z</time>
      </trkpt>
      <trkpt lat="42.30788290500640869140625" lon="2.10178233683109283447265625">
        <ele>1111</ele>
        <time>2020-08-09T15:50:33.000Z</time>
      </trkpt>
      <trkpt lat="42.3078720085322856903076171875" lon="2.101762555539608001708984375">
        <ele>1111</ele>
        <time>2020-08-09T15:50:44.000Z</time>
      </trkpt>
      <trkpt lat="42.307870499789714813232421875" lon="2.1017563529312610626220703125">
        <ele>1110.199951171875</ele>
        <time>2020-08-09T15:50:55.000Z</time>
      </trkpt>
      <trkpt lat="42.307867817580699920654296875" lon="2.10173699073493480682373046875">
        <ele>1110.199951171875</ele>
        <time>2020-08-09T15:51:06.000Z</time>
      </trkpt>
      <trkpt lat="42.30787008069455623626708984375" lon="2.1017322130501270294189453125">
        <ele>1110.4000244140625</ele>
        <time>2020-08-09T15:51:19.000Z</time>
      </trkpt>
      <trkpt lat="42.30784736573696136474609375" lon="2.10165451280772686004638671875">
        <ele>1111.199951171875</ele>
        <time>2020-08-09T15:51:26.000Z</time>
      </trkpt>
      <trkpt lat="42.30782330967485904693603515625" lon="2.1016048081219196319580078125">
        <ele>1111.800048828125</ele>
        <time>2020-08-09T15:51:29.000Z</time>
      </trkpt>
      <trkpt lat="42.30778559111058712005615234375" lon="2.101545296609401702880859375">
        <ele>1112.4000244140625</ele>
        <time>2020-08-09T15:51:33.000Z</time>
      </trkpt>
      <trkpt lat="42.307747118175029754638671875" lon="2.10151545703411102294921875">
        <ele>1113</ele>
        <time>2020-08-09T15:51:36.000Z</time>
      </trkpt>
      <trkpt lat="42.3077063821256160736083984375" lon="2.10145837627351284027099609375">
        <ele>1113</ele>
        <time>2020-08-09T15:51:40.000Z</time>
      </trkpt>
      <trkpt lat="42.30768651701509952545166015625" lon="2.10142870433628559112548828125">
        <ele>1113.199951171875</ele>
        <time>2020-08-09T15:51:42.000Z</time>
      </trkpt>
      <trkpt lat="42.3076611198484897613525390625" lon="2.10137556307017803192138671875">
        <ele>1113.800048828125</ele>
        <time>2020-08-09T15:51:45.000Z</time>
      </trkpt>
      <trkpt lat="42.3076446913182735443115234375" lon="2.101344801485538482666015625">
        <ele>1114</ele>
        <time>2020-08-09T15:51:47.000Z</time>
      </trkpt>
      <trkpt lat="42.30761845596134662628173828125" lon="2.1012846194207668304443359375">
        <ele>1114.800048828125</ele>
        <time>2020-08-09T15:51:51.000Z</time>
      </trkpt>
      <trkpt lat="42.3076094873249530792236328125" lon="2.101272381842136383056640625">
        <ele>1115</ele>
        <time>2020-08-09T15:51:52.000Z</time>
      </trkpt>
      <trkpt lat="42.3075615428388118743896484375" lon="2.10117808543145656585693359375">
        <ele>1116</ele>
        <time>2020-08-09T15:51:58.000Z</time>
      </trkpt>
      <trkpt lat="42.30755341239273548126220703125" lon="2.10116115398705005645751953125">
        <ele>1116.4000244140625</ele>
        <time>2020-08-09T15:51:59.000Z</time>
      </trkpt>
      <trkpt lat="42.30752776376903057098388671875" lon="2.1010740660130977630615234375">
        <ele>1116.800048828125</ele>
        <time>2020-08-09T15:52:04.000Z</time>
      </trkpt>
      <trkpt lat="42.30750496499240398406982421875" lon="2.10097272880375385284423828125">
        <ele>1117.199951171875</ele>
        <time>2020-08-09T15:52:09.000Z</time>
      </trkpt>
      <trkpt lat="42.307507060468196868896484375" lon="2.1008695475757122039794921875">
        <ele>1117.199951171875</ele>
        <time>2020-08-09T15:52:14.000Z</time>
      </trkpt>
      <trkpt lat="42.30750395916402339935302734375" lon="2.10078765638172626495361328125">
        <ele>1117.5999755859375</ele>
        <time>2020-08-09T15:52:18.000Z</time>
      </trkpt>
      <trkpt lat="42.30750915594398975372314453125" lon="2.10077491588890552520751953125">
        <ele>1117.800048828125</ele>
        <time>2020-08-09T15:52:19.000Z</time>
      </trkpt>
      <trkpt lat="42.30752591975033283233642578125" lon="2.10072210989892482757568359375">
        <ele>1118.199951171875</ele>
        <time>2020-08-09T15:52:22.000Z</time>
      </trkpt>
      <trkpt lat="42.30753396637737751007080078125" lon="2.1006680466234683990478515625">
        <ele>1118</ele>
        <time>2020-08-09T15:52:25.000Z</time>
      </trkpt>
      <trkpt lat="42.30754964053630828857421875" lon="2.1005411446094512939453125">
        <ele>1118.4000244140625</ele>
        <time>2020-08-09T15:52:31.000Z</time>
      </trkpt>
      <trkpt lat="42.30754452757537364959716796875" lon="2.10050535388290882110595703125">
        <ele>1118.5999755859375</ele>
        <time>2020-08-09T15:52:33.000Z</time>
      </trkpt>
      <trkpt lat="42.3075156100094318389892578125" lon="2.10043930448591709136962890625">
        <ele>1119.4000244140625</ele>
        <time>2020-08-09T15:52:37.000Z</time>
      </trkpt>
      <trkpt lat="42.3074824176728725433349609375" lon="2.100397981703281402587890625">
        <ele>1119.5999755859375</ele>
        <time>2020-08-09T15:52:39.000Z</time>
      </trkpt>
      <trkpt lat="42.30743288062512874603271484375" lon="2.10029773414134979248046875">
        <ele>1120.4000244140625</ele>
        <time>2020-08-09T15:52:45.000Z</time>
      </trkpt>
      <trkpt lat="42.30741058476269245147705078125" lon="2.10027216933667659759521484375">
        <ele>1121</ele>
        <time>2020-08-09T15:52:47.000Z</time>
      </trkpt>
      <trkpt lat="42.30733984149992465972900390625" lon="2.1001594327390193939208984375">
        <ele>1122</ele>
        <time>2020-08-09T15:52:53.000Z</time>
      </trkpt>
      <trkpt lat="42.30731687508523464202880859375" lon="2.10013487376272678375244140625">
        <ele>1122.199951171875</ele>
        <time>2020-08-09T15:52:55.000Z</time>
      </trkpt>
      <trkpt lat="42.3072852753102779388427734375" lon="2.10008583962917327880859375">
        <ele>1123</ele>
        <time>2020-08-09T15:52:58.000Z</time>
      </trkpt>
      <trkpt lat="42.30727362446486949920654296875" lon="2.10006765089929103851318359375">
        <ele>1123</ele>
        <time>2020-08-09T15:52:59.000Z</time>
      </trkpt>
      <trkpt lat="42.3072378337383270263671875" lon="2.09999858401715755462646484375">
        <ele>1123.199951171875</ele>
        <time>2020-08-09T15:53:03.000Z</time>
      </trkpt>
      <trkpt lat="42.3072266019880771636962890625" lon="2.0999596081674098968505859375">
        <ele>1123.4000244140625</ele>
        <time>2020-08-09T15:53:05.000Z</time>
      </trkpt>
      <trkpt lat="42.307214029133319854736328125" lon="2.099876292049884796142578125">
        <ele>1124.199951171875</ele>
        <time>2020-08-09T15:53:09.000Z</time>
      </trkpt>
      <trkpt lat="42.30720589868724346160888671875" lon="2.0998368971049785614013671875">
        <ele>1124.5999755859375</ele>
        <time>2020-08-09T15:53:11.000Z</time>
      </trkpt>
      <trkpt lat="42.30716080404818058013916015625" lon="2.09973178803920745849609375">
        <ele>1125.4000244140625</ele>
        <time>2020-08-09T15:53:16.000Z</time>
      </trkpt>
      <trkpt lat="42.30715041048824787139892578125" lon="2.0997145213186740875244140625">
        <ele>1125.4000244140625</ele>
        <time>2020-08-09T15:53:17.000Z</time>
      </trkpt>
      <trkpt lat="42.3070790804922580718994140625" lon="2.09960983134806156158447265625">
        <ele>1125.800048828125</ele>
        <time>2020-08-09T15:53:24.000Z</time>
      </trkpt>
      <trkpt lat="42.3070187307894229888916015625" lon="2.0995549298822879791259765625">
        <ele>1126.199951171875</ele>
        <time>2020-08-09T15:53:28.000Z</time>
      </trkpt>
      <trkpt lat="42.3070069961249828338623046875" lon="2.0995428599417209625244140625">
        <ele>1126.4000244140625</ele>
        <time>2020-08-09T15:53:29.000Z</time>
      </trkpt>
      <trkpt lat="42.30696014128625392913818359375" lon="2.09944671951234340667724609375">
        <ele>1127.199951171875</ele>
        <time>2020-08-09T15:53:35.000Z</time>
      </trkpt>
      <trkpt lat="42.3069573752582073211669921875" lon="2.099433057010173797607421875">
        <ele>1127.5999755859375</ele>
        <time>2020-08-09T15:53:36.000Z</time>
      </trkpt>
      <trkpt lat="42.30694622732698917388916015625" lon="2.09936507977545261383056640625">
        <ele>1128.4000244140625</ele>
        <time>2020-08-09T15:53:40.000Z</time>
      </trkpt>
      <trkpt lat="42.30695041827857494354248046875" lon="2.0993287861347198486328125">
        <ele>1129</ele>
        <time>2020-08-09T15:53:42.000Z</time>
      </trkpt>
      <trkpt lat="42.3069546930491924285888671875" lon="2.0992950908839702606201171875">
        <ele>1129.4000244140625</ele>
        <time>2020-08-09T15:53:44.000Z</time>
      </trkpt>
      <trkpt lat="42.30696248821914196014404296875" lon="2.09924220107495784759521484375">
        <ele>1129.800048828125</ele>
        <time>2020-08-09T15:53:47.000Z</time>
      </trkpt>
      <trkpt lat="42.3069670982658863067626953125" lon="2.0992216654121875762939453125">
        <ele>1129.800048828125</ele>
        <time>2020-08-09T15:53:48.000Z</time>
      </trkpt>
      <trkpt lat="42.3069898970425128936767578125" lon="2.0991504192352294921875">
        <ele>1130.4000244140625</ele>
        <time>2020-08-09T15:53:51.000Z</time>
      </trkpt>
      <trkpt lat="42.3069972731173038482666015625" lon="2.09912569262087345123291015625">
        <ele>1130.5999755859375</ele>
        <time>2020-08-09T15:53:52.000Z</time>
      </trkpt>
      <trkpt lat="42.3070066608488559722900390625" lon="2.0990486629307270050048828125">
        <ele>1131</ele>
        <time>2020-08-09T15:53:56.000Z</time>
      </trkpt>
      <trkpt lat="42.3070106841623783111572265625" lon="2.09899895824491977691650390625">
        <ele>1131.4000244140625</ele>
        <time>2020-08-09T15:53:58.000Z</time>
      </trkpt>
      <trkpt lat="42.30701319873332977294921875" lon="2.09897599183022975921630859375">
        <ele>1131.5999755859375</ele>
        <time>2020-08-09T15:53:59.000Z</time>
      </trkpt>
      <trkpt lat="42.30702535249292850494384765625" lon="2.09887758828699588775634765625">
        <ele>1132.199951171875</ele>
        <time>2020-08-09T15:54:04.000Z</time>
      </trkpt>
      <trkpt lat="42.30698101222515106201171875" lon="2.0987791009247303009033203125">
        <ele>1132.4000244140625</ele>
        <time>2020-08-09T15:54:09.000Z</time>
      </trkpt>
      <trkpt lat="42.306945137679576873779296875" lon="2.0987207628786563873291015625">
        <ele>1132.5999755859375</ele>
        <time>2020-08-09T15:54:12.000Z</time>
      </trkpt>
      <trkpt lat="42.3069184832274913787841796875" lon="2.098699472844600677490234375">
        <ele>1133</ele>
        <time>2020-08-09T15:54:14.000Z</time>
      </trkpt>
      <trkpt lat="42.30690917931497097015380859375" lon="2.098687402904033660888671875">
        <ele>1133.4000244140625</ele>
        <time>2020-08-09T15:54:15.000Z</time>
      </trkpt>
      <trkpt lat="42.3068976961076259613037109375" lon="2.09867809899151325225830078125">
        <ele>1133.5999755859375</ele>
        <time>2020-08-09T15:54:16.000Z</time>
      </trkpt>
      <trkpt lat="42.3068889789283275604248046875" lon="2.09866737015545368194580078125">
        <ele>1133.800048828125</ele>
        <time>2020-08-09T15:54:17.000Z</time>
      </trkpt>
      <trkpt lat="42.30687372386455535888671875" lon="2.0986500196158885955810546875">
        <ele>1134.199951171875</ele>
        <time>2020-08-09T15:54:19.000Z</time>
      </trkpt>
      <trkpt lat="42.306864000856876373291015625" lon="2.09863401018083095550537109375">
        <ele>1134.5999755859375</ele>
        <time>2020-08-09T15:54:22.000Z</time>
      </trkpt>
      <trkpt lat="42.30680666863918304443359375" lon="2.09863266907632350921630859375">
        <ele>1135.199951171875</ele>
        <time>2020-08-09T15:54:26.000Z</time>
      </trkpt>
      <trkpt lat="42.306772805750370025634765625" lon="2.0986594073474407196044921875">
        <ele>1135.800048828125</ele>
        <time>2020-08-09T15:54:30.000Z</time>
      </trkpt>
      <trkpt lat="42.30676685459911823272705078125" lon="2.09866686724126338958740234375">
        <ele>1136</ele>
        <time>2020-08-09T15:54:31.000Z</time>
      </trkpt>
      <trkpt lat="42.30671815574169158935546875" lon="2.09870894439518451690673828125">
        <ele>1136.800048828125</ele>
        <time>2020-08-09T15:54:36.000Z</time>
      </trkpt>
      <trkpt lat="42.30669108219444751739501953125" lon="2.09873761050403118133544921875">
        <ele>1137</ele>
        <time>2020-08-09T15:54:38.000Z</time>
      </trkpt>
      <trkpt lat="42.30661480687558650970458984375" lon="2.0988183282315731048583984375">
        <ele>1137.800048828125</ele>
        <time>2020-08-09T15:54:43.000Z</time>
      </trkpt>
      <trkpt lat="42.30660458095371723175048828125" lon="2.0988344214856624603271484375">
        <ele>1138</ele>
        <time>2020-08-09T15:54:44.000Z</time>
      </trkpt>
      <trkpt lat="42.306542806327342987060546875" lon="2.09891983307898044586181640625">
        <ele>1138.4000244140625</ele>
        <time>2020-08-09T15:54:50.000Z</time>
      </trkpt>
      <trkpt lat="42.3065305687487125396728515625" lon="2.0989504270255565643310546875">
        <ele>1138.800048828125</ele>
        <time>2020-08-09T15:54:52.000Z</time>
      </trkpt>
      <trkpt lat="42.30649058707058429718017578125" lon="2.09901572205126285552978515625">
        <ele>1139.800048828125</ele>
        <time>2020-08-09T15:54:57.000Z</time>
      </trkpt>
      <trkpt lat="42.3064832948148250579833984375" lon="2.09902812726795673370361328125">
        <ele>1140</ele>
        <time>2020-08-09T15:54:58.000Z</time>
      </trkpt>
      <trkpt lat="42.30643291957676410675048828125" lon="2.0990774966776371002197265625">
        <ele>1141</ele>
        <time>2020-08-09T15:55:03.000Z</time>
      </trkpt>
      <trkpt lat="42.306418754160404205322265625" lon="2.09907724522054195404052734375">
        <ele>1141.199951171875</ele>
        <time>2020-08-09T15:55:04.000Z</time>
      </trkpt>
      <trkpt lat="42.3063956201076507568359375" lon="2.0990620739758014678955078125">
        <ele>1142</ele>
        <time>2020-08-09T15:55:06.000Z</time>
      </trkpt>
      <trkpt lat="42.30637072585523128509521484375" lon="2.09900625050067901611328125">
        <ele>1143.199951171875</ele>
        <time>2020-08-09T15:55:10.000Z</time>
      </trkpt>
      <trkpt lat="42.30638849548995494842529296875" lon="2.09892385639250278472900390625">
        <ele>1144</ele>
        <time>2020-08-09T15:55:15.000Z</time>
      </trkpt>
      <trkpt lat="42.30639620684087276458740234375" lon="2.0989088527858257293701171875">
        <ele>1144.199951171875</ele>
        <time>2020-08-09T15:55:16.000Z</time>
      </trkpt>
      <trkpt lat="42.3063988052308559417724609375" lon="2.0988930948078632354736328125">
        <ele>1144.5999755859375</ele>
        <time>2020-08-09T15:55:17.000Z</time>
      </trkpt>
      <trkpt lat="42.30640609748661518096923828125" lon="2.09886149503290653228759765625">
        <ele>1145.199951171875</ele>
        <time>2020-08-09T15:55:19.000Z</time>
      </trkpt>
      <trkpt lat="42.3064185865223407745361328125" lon="2.098835594952106475830078125">
        <ele>1145.5999755859375</ele>
        <time>2020-08-09T15:55:21.000Z</time>
      </trkpt>
      <trkpt lat="42.3064420558512210845947265625" lon="2.09878890775144100189208984375">
        <ele>1146.199951171875</ele>
        <time>2020-08-09T15:55:24.000Z</time>
      </trkpt>
      <trkpt lat="42.3064685426652431488037109375" lon="2.0987432263791561126708984375">
        <ele>1147</ele>
        <time>2020-08-09T15:55:28.000Z</time>
      </trkpt>
      <trkpt lat="42.30647801421582698822021484375" lon="2.098713219165802001953125">
        <ele>1147.199951171875</ele>
        <time>2020-08-09T15:55:30.000Z</time>
      </trkpt>
      <trkpt lat="42.30648471973836421966552734375" lon="2.0986998081207275390625">
        <ele>1147.199951171875</ele>
        <time>2020-08-09T15:55:31.000Z</time>
      </trkpt>
      <trkpt lat="42.30649561621248722076416015625" lon="2.09867239929735660552978515625">
        <ele>1148</ele>
        <time>2020-08-09T15:55:33.000Z</time>
      </trkpt>
      <trkpt lat="42.30650047771632671356201171875" lon="2.09865982644259929656982421875">
        <ele>1148.199951171875</ele>
        <time>2020-08-09T15:55:34.000Z</time>
      </trkpt>
      <trkpt lat="42.30652864091098308563232421875" lon="2.09857634268701076507568359375">
        <ele>1149.4000244140625</ele>
        <time>2020-08-09T15:55:40.000Z</time>
      </trkpt>
      <trkpt lat="42.30653149075806140899658203125" lon="2.09855974651873111724853515625">
        <ele>1149.4000244140625</ele>
        <time>2020-08-09T15:55:41.000Z</time>
      </trkpt>
      <trkpt lat="42.306556217372417449951171875" lon="2.09845413453876972198486328125">
        <ele>1150.199951171875</ele>
        <time>2020-08-09T15:55:48.000Z</time>
      </trkpt>
      <trkpt lat="42.30655931867659091949462890625" lon="2.098441980779170989990234375">
        <ele>1150.4000244140625</ele>
        <time>2020-08-09T15:55:49.000Z</time>
      </trkpt>
      <trkpt lat="42.306568957865238189697265625" lon="2.098347432911396026611328125">
        <ele>1151.4000244140625</ele>
        <time>2020-08-09T15:55:56.000Z</time>
      </trkpt>
      <trkpt lat="42.30657105334103107452392578125" lon="2.09832957945764064788818359375">
        <ele>1151.5999755859375</ele>
        <time>2020-08-09T15:55:57.000Z</time>
      </trkpt>
      <trkpt lat="42.30659988708794116973876953125" lon="2.0982507057487964630126953125">
        <ele>1152.5999755859375</ele>
        <time>2020-08-09T15:56:01.000Z</time>
      </trkpt>
      <trkpt lat="42.30663341470062732696533203125" lon="2.09816806018352508544921875">
        <ele>1153.199951171875</ele>
        <time>2020-08-09T15:56:07.000Z</time>
      </trkpt>
      <trkpt lat="42.30663894675672054290771484375" lon="2.09815003909170627593994140625">
        <ele>1153.5999755859375</ele>
        <time>2020-08-09T15:56:09.000Z</time>
      </trkpt>
      <trkpt lat="42.30666040442883968353271484375" lon="2.0980891026556491851806640625">
        <ele>1154.5999755859375</ele>
        <time>2020-08-09T15:56:15.000Z</time>
      </trkpt>
      <trkpt lat="42.30667783878743648529052734375" lon="2.09805280901491641998291015625">
        <ele>1155</ele>
        <time>2020-08-09T15:56:17.000Z</time>
      </trkpt>
      <trkpt lat="42.30671656318008899688720703125" lon="2.0980277471244335174560546875">
        <ele>1155.5999755859375</ele>
        <time>2020-08-09T15:56:19.000Z</time>
      </trkpt>
      <trkpt lat="42.3067619092762470245361328125" lon="2.09802229888737201690673828125">
        <ele>1156.5999755859375</ele>
        <time>2020-08-09T15:56:24.000Z</time>
      </trkpt>
      <trkpt lat="42.30685268528759479522705078125" lon="2.0980525575578212738037109375">
        <ele>1157.5999755859375</ele>
        <time>2020-08-09T15:56:29.000Z</time>
      </trkpt>
      <trkpt lat="42.30691554956138134002685546875" lon="2.0980642922222614288330078125">
        <ele>1158.5999755859375</ele>
        <time>2020-08-09T15:56:32.000Z</time>
      </trkpt>
      <trkpt lat="42.306933738291263580322265625" lon="2.09807041101157665252685546875">
        <ele>1158.800048828125</ele>
        <time>2020-08-09T15:56:33.000Z</time>
      </trkpt>
      <trkpt lat="42.30697941966354846954345703125" lon="2.09808633662760257720947265625">
        <ele>1159.199951171875</ele>
        <time>2020-08-09T15:56:36.000Z</time>
      </trkpt>
      <trkpt lat="42.30699417181313037872314453125" lon="2.09808751009404659271240234375">
        <ele>1159.4000244140625</ele>
        <time>2020-08-09T15:56:37.000Z</time>
      </trkpt>
      <trkpt lat="42.30702434666454792022705078125" lon="2.098086588084697723388671875">
        <ele>1160</ele>
        <time>2020-08-09T15:56:39.000Z</time>
      </trkpt>
      <trkpt lat="42.307073213160037994384765625" lon="2.09805331192910671234130859375">
        <ele>1160.5999755859375</ele>
        <time>2020-08-09T15:56:43.000Z</time>
      </trkpt>
      <trkpt lat="42.307106070220470428466796875" lon="2.09803386591374874114990234375">
        <ele>1161</ele>
        <time>2020-08-09T15:56:46.000Z</time>
      </trkpt>
      <trkpt lat="42.3071374185383319854736328125" lon="2.09801626391708850860595703125">
        <ele>1161.4000244140625</ele>
        <time>2020-08-09T15:56:49.000Z</time>
      </trkpt>
      <trkpt lat="42.30721461586654186248779296875" lon="2.0979754440486431121826171875">
        <ele>1162.199951171875</ele>
        <time>2020-08-09T15:56:55.000Z</time>
      </trkpt>
      <trkpt lat="42.30724931694567203521728515625" lon="2.09795884788036346435546875">
        <ele>1162.800048828125</ele>
        <time>2020-08-09T15:56:58.000Z</time>
      </trkpt>
      <trkpt lat="42.30728887952864170074462890625" lon="2.09794116206467151641845703125">
        <ele>1163.199951171875</ele>
        <time>2020-08-09T15:57:01.000Z</time>
      </trkpt>
      <trkpt lat="42.3073486424982547760009765625" lon="2.09791149012744426727294921875">
        <ele>1163.800048828125</ele>
        <time>2020-08-09T15:57:07.000Z</time>
      </trkpt>
      <trkpt lat="42.30736867524683475494384765625" lon="2.097901515662670135498046875">
        <ele>1164.199951171875</ele>
        <time>2020-08-09T15:57:09.000Z</time>
      </trkpt>
      <trkpt lat="42.30746406130492687225341796875" lon="2.09789120592176914215087890625">
        <ele>1165.199951171875</ele>
        <time>2020-08-09T15:57:17.000Z</time>
      </trkpt>
      <trkpt lat="42.30757319368422031402587890625" lon="2.09786237217485904693603515625">
        <ele>1166.4000244140625</ele>
        <time>2020-08-09T15:57:23.000Z</time>
      </trkpt>
      <trkpt lat="42.30759850703179836273193359375" lon="2.09785667248070240020751953125">
        <ele>1167</ele>
        <time>2020-08-09T15:57:25.000Z</time>
      </trkpt>
      <trkpt lat="42.3076643049716949462890625" lon="2.0978446863591670989990234375">
        <ele>1167.4000244140625</ele>
        <time>2020-08-09T15:57:30.000Z</time>
      </trkpt>
      <trkpt lat="42.307722307741641998291015625" lon="2.09784745238721370697021484375">
        <ele>1167.800048828125</ele>
        <time>2020-08-09T15:57:35.000Z</time>
      </trkpt>
      <trkpt lat="42.30775843374431133270263671875" lon="2.0978688262403011322021484375">
        <ele>1168.5999755859375</ele>
        <time>2020-08-09T15:57:38.000Z</time>
      </trkpt>
      <trkpt lat="42.30785918422043323516845703125" lon="2.09790327586233615875244140625">
        <ele>1169.5999755859375</ele>
        <time>2020-08-09T15:57:43.000Z</time>
      </trkpt>
      <trkpt lat="42.30787997134029865264892578125" lon="2.09791333414614200592041015625">
        <ele>1169.800048828125</ele>
        <time>2020-08-09T15:57:44.000Z</time>
      </trkpt>
      <trkpt lat="42.30794166214764118194580078125" lon="2.09798659197986125946044921875">
        <ele>1170.5999755859375</ele>
        <time>2020-08-09T15:57:49.000Z</time>
      </trkpt>
      <trkpt lat="42.30796529911458492279052734375" lon="2.098009474575519561767578125">
        <ele>1171</ele>
        <time>2020-08-09T15:57:51.000Z</time>
      </trkpt>
      <trkpt lat="42.3079940490424633026123046875" lon="2.09805415011942386627197265625">
        <ele>1171.199951171875</ele>
        <time>2020-08-09T15:57:54.000Z</time>
      </trkpt>
      <trkpt lat="42.30803201906383037567138671875" lon="2.098089940845966339111328125">
        <ele>1171.5999755859375</ele>
        <time>2020-08-09T15:57:57.000Z</time>
      </trkpt>
      <trkpt lat="42.30804450809955596923828125" lon="2.09809966385364532470703125">
        <ele>1171.5999755859375</ele>
        <time>2020-08-09T15:57:58.000Z</time>
      </trkpt>
      <trkpt lat="42.3081150837242603302001953125" lon="2.09816713817417621612548828125">
        <ele>1172.800048828125</ele>
        <time>2020-08-09T15:58:04.000Z</time>
      </trkpt>
      <trkpt lat="42.3081794567406177520751953125" lon="2.0982101373374462127685546875">
        <ele>1173.800048828125</ele>
        <time>2020-08-09T15:58:09.000Z</time>
      </trkpt>
      <trkpt lat="42.30821457691490650177001953125" lon="2.09823536686599254608154296875">
        <ele>1175</ele>
        <time>2020-08-09T15:58:12.000Z</time>
      </trkpt>
      <trkpt lat="42.30826453305780887603759765625" lon="2.0982553996145725250244140625">
        <ele>1176.199951171875</ele>
        <time>2020-08-09T15:58:16.000Z</time>
      </trkpt>
      <trkpt lat="42.30830191634595394134521484375" lon="2.0982580818235874176025390625">
        <ele>1176.800048828125</ele>
        <time>2020-08-09T15:58:19.000Z</time>
      </trkpt>
      <trkpt lat="42.30831599794328212738037109375" lon="2.09825548343360424041748046875">
        <ele>1177</ele>
        <time>2020-08-09T15:58:20.000Z</time>
      </trkpt>
      <trkpt lat="42.3083603382110595703125" lon="2.09824039600789546966552734375">
        <ele>1178.199951171875</ele>
        <time>2020-08-09T15:58:24.000Z</time>
      </trkpt>
      <trkpt lat="42.3083938658237457275390625" lon="2.0982218720018863677978515625">
        <ele>1178.5999755859375</ele>
        <time>2020-08-09T15:58:27.000Z</time>
      </trkpt>
      <trkpt lat="42.3084180057048797607421875" lon="2.098191864788532257080078125">
        <ele>1178.800048828125</ele>
        <time>2020-08-09T15:58:30.000Z</time>
      </trkpt>
      <trkpt lat="42.30843502096831798553466796875" lon="2.0981517992913722991943359375">
        <ele>1179.199951171875</ele>
        <time>2020-08-09T15:58:33.000Z</time>
      </trkpt>
      <trkpt lat="42.308436445891857147216796875" lon="2.09813495166599750518798828125">
        <ele>1179.4000244140625</ele>
        <time>2020-08-09T15:58:34.000Z</time>
      </trkpt>
      <trkpt lat="42.30842060409486293792724609375" lon="2.098057083785533905029296875">
        <ele>1180.4000244140625</ele>
        <time>2020-08-09T15:58:39.000Z</time>
      </trkpt>
      <trkpt lat="42.30840065516531467437744140625" lon="2.098034955561161041259765625">
        <ele>1181</ele>
        <time>2020-08-09T15:58:41.000Z</time>
      </trkpt>
      <trkpt lat="42.30832924135029315948486328125" lon="2.09793982096016407012939453125">
        <ele>1180.4000244140625</ele>
        <time>2020-08-09T15:58:48.000Z</time>
      </trkpt>
      <trkpt lat="42.30832345783710479736328125" lon="2.097929678857326507568359375">
        <ele>1181.4000244140625</ele>
        <time>2020-08-09T15:58:52.000Z</time>
      </trkpt>
      <trkpt lat="42.3083246313035488128662109375" lon="2.0979298464953899383544921875">
        <ele>1181.5999755859375</ele>
        <time>2020-08-09T15:58:53.000Z</time>
      </trkpt>
      <trkpt lat="42.3083229549229145050048828125" lon="2.0979295112192630767822265625">
        <ele>1182.4000244140625</ele>
        <time>2020-08-09T15:59:02.000Z</time>
      </trkpt>
      <trkpt lat="42.308324463665485382080078125" lon="2.09792858920991420745849609375">
        <ele>1182</ele>
        <time>2020-08-09T15:59:10.000Z</time>
      </trkpt>
      <trkpt lat="42.308444492518901824951171875" lon="2.09806940518319606781005859375">
        <ele>1249.800048828125</ele>
        <time>2020-08-10T04:55:40.000Z</time>
      </trkpt>
      <trkpt lat="42.30845312587916851043701171875" lon="2.09809807129204273223876953125">
        <ele>1249.199951171875</ele>
        <time>2020-08-10T04:55:45.000Z</time>
      </trkpt>
      <trkpt lat="42.30845815502107143402099609375" lon="2.09817049093544483184814453125">
        <ele>1249</ele>
        <time>2020-08-10T04:55:47.000Z</time>
      </trkpt>
      <trkpt lat="42.30841733515262603759765625" lon="2.0982398092746734619140625">
        <ele>1248.5999755859375</ele>
        <time>2020-08-10T04:55:49.000Z</time>
      </trkpt>
      <trkpt lat="42.30835556052625179290771484375" lon="2.0982909388840198516845703125">
        <ele>1247.800048828125</ele>
        <time>2020-08-10T04:55:51.000Z</time>
      </trkpt>
      <trkpt lat="42.30835556052625179290771484375" lon="2.0982909388840198516845703125">
        <ele>1247.199951171875</ele>
        <time>2020-08-10T04:55:52.000Z</time>
      </trkpt>
      <trkpt lat="42.30828867293894290924072265625" lon="2.098297812044620513916015625">
        <ele>1246.800048828125</ele>
        <time>2020-08-10T04:55:53.000Z</time>
      </trkpt>
      <trkpt lat="42.3082170076668262481689453125" lon="2.09827107377350330352783203125">
        <ele>1246</ele>
        <time>2020-08-10T04:55:55.000Z</time>
      </trkpt>
      <trkpt lat="42.308145426213741302490234375" lon="2.098213322460651397705078125">
        <ele>1245</ele>
        <time>2020-08-10T04:55:57.000Z</time>
      </trkpt>
      <trkpt lat="42.30811114422976970672607421875" lon="2.0981756038963794708251953125">
        <ele>1244</ele>
        <time>2020-08-10T04:55:58.000Z</time>
      </trkpt>
      <trkpt lat="42.3080771975219249725341796875" lon="2.09813495166599750518798828125">
        <ele>1242.800048828125</ele>
        <time>2020-08-10T04:55:59.000Z</time>
      </trkpt>
      <trkpt lat="42.30801575817167758941650390625" lon="2.09804610349237918853759765625">
        <ele>1241.4000244140625</ele>
        <time>2020-08-10T04:56:01.000Z</time>
      </trkpt>
      <trkpt lat="42.30795892886817455291748046875" lon="2.097957842051982879638671875">
        <ele>1239.800048828125</ele>
        <time>2020-08-10T04:56:03.000Z</time>
      </trkpt>
      <trkpt lat="42.307865135371685028076171875" lon="2.0978597737848758697509765625">
        <ele>1238.800048828125</ele>
        <time>2020-08-10T04:56:06.000Z</time>
      </trkpt>
      <trkpt lat="42.3078294284641742706298828125" lon="2.09783487953245639801025390625">
        <ele>1238.4000244140625</ele>
        <time>2020-08-10T04:56:07.000Z</time>
      </trkpt>
      <trkpt lat="42.30774519033730030059814453125" lon="2.097800262272357940673828125">
        <ele>1237.4000244140625</ele>
        <time>2020-08-10T04:56:09.000Z</time>
      </trkpt>
      <trkpt lat="42.3076289333403110504150390625" lon="2.09778106771409511566162109375">
        <ele>1236.199951171875</ele>
        <time>2020-08-10T04:56:12.000Z</time>
      </trkpt>
      <trkpt lat="42.307513095438480377197265625" lon="2.09775391034781932830810546875">
        <ele>1234.800048828125</ele>
        <time>2020-08-10T04:56:15.000Z</time>
      </trkpt>
      <trkpt lat="42.3074284382164478302001953125" lon="2.0977645553648471832275390625">
        <ele>1234</ele>
        <time>2020-08-10T04:56:17.000Z</time>
      </trkpt>
      <trkpt lat="42.30738946236670017242431640625" lon="2.09777587093412876129150390625">
        <ele>1233.4000244140625</ele>
        <time>2020-08-10T04:56:18.000Z</time>
      </trkpt>
      <trkpt lat="42.30729885399341583251953125" lon="2.09781241603195667266845703125">
        <ele>1232</ele>
        <time>2020-08-10T04:56:21.000Z</time>
      </trkpt>
      <trkpt lat="42.30728276073932647705078125" lon="2.09782197140157222747802734375">
        <ele>1231.4000244140625</ele>
        <time>2020-08-10T04:56:22.000Z</time>
      </trkpt>
      <trkpt lat="42.307271696627140045166015625" lon="2.09782549180090427398681640625">
        <ele>1230.800048828125</ele>
        <time>2020-08-10T04:56:23.000Z</time>
      </trkpt>
      <trkpt lat="42.307225428521633148193359375" lon="2.0978852547705173492431640625">
        <ele>1230.199951171875</ele>
        <time>2020-08-10T04:56:27.000Z</time>
      </trkpt>
      <trkpt lat="42.3071390949189662933349609375" lon="2.09794049151241779327392578125">
        <ele>1230</ele>
        <time>2020-08-10T04:56:30.000Z</time>
      </trkpt>
      <trkpt lat="42.30710431002080440521240234375" lon="2.09794719703495502471923828125">
        <ele>1229.5999755859375</ele>
        <time>2020-08-10T04:56:31.000Z</time>
      </trkpt>
      <trkpt lat="42.30704513378441333770751953125" lon="2.0979154296219348907470703125">
        <ele>1228.4000244140625</ele>
        <time>2020-08-10T04:56:33.000Z</time>
      </trkpt>
      <trkpt lat="42.30698847211897373199462890625" lon="2.097849547863006591796875">
        <ele>1227.4000244140625</ele>
        <time>2020-08-10T04:56:35.000Z</time>
      </trkpt>
      <trkpt lat="42.30687112547457218170166015625" lon="2.09783772937953472137451171875">
        <ele>1225.199951171875</ele>
        <time>2020-08-10T04:56:38.000Z</time>
      </trkpt>
      <trkpt lat="42.30678998865187168121337890625" lon="2.09794342517852783203125">
        <ele>1224.199951171875</ele>
        <time>2020-08-10T04:56:40.000Z</time>
      </trkpt>
      <trkpt lat="42.30676241219043731689453125" lon="2.0980197004973888397216796875">
        <ele>1223.800048828125</ele>
        <time>2020-08-10T04:56:41.000Z</time>
      </trkpt>
      <trkpt lat="42.30671346187591552734375" lon="2.09816001355648040771484375">
        <ele>1222.800048828125</ele>
        <time>2020-08-10T04:56:43.000Z</time>
      </trkpt>
      <trkpt lat="42.30665319599211215972900390625" lon="2.0982899330556392669677734375">
        <ele>1221.4000244140625</ele>
        <time>2020-08-10T04:56:45.000Z</time>
      </trkpt>
      <trkpt lat="42.30662151239812374114990234375" lon="2.0983600057661533355712890625">
        <ele>1220.5999755859375</ele>
        <time>2020-08-10T04:56:46.000Z</time>
      </trkpt>
      <trkpt lat="42.306591086089611053466796875" lon="2.09844139404594898223876953125">
        <ele>1220.4000244140625</ele>
        <time>2020-08-10T04:56:47.000Z</time>
      </trkpt>
      <trkpt lat="42.30653836391866207122802734375" lon="2.09859780035912990570068359375">
        <ele>1219</ele>
        <time>2020-08-10T04:56:49.000Z</time>
      </trkpt>
      <trkpt lat="42.30648220516741275787353515625" lon="2.0987314917147159576416015625">
        <ele>1217.199951171875</ele>
        <time>2020-08-10T04:56:51.000Z</time>
      </trkpt>
      <trkpt lat="42.3064319975674152374267578125" lon="2.09885328076779842376708984375">
        <ele>1215.5999755859375</ele>
        <time>2020-08-10T04:56:53.000Z</time>
      </trkpt>
      <trkpt lat="42.30642017908394336700439453125" lon="2.09890608675777912139892578125">
        <ele>1214.5999755859375</ele>
        <time>2020-08-10T04:56:54.000Z</time>
      </trkpt>
      <trkpt lat="42.3064229451119899749755859375" lon="2.0989534445106983184814453125">
        <ele>1213.800048828125</ele>
        <time>2020-08-10T04:56:55.000Z</time>
      </trkpt>
      <trkpt lat="42.30644993484020233154296875" lon="2.0989987067878246307373046875">
        <ele>1213.199951171875</ele>
        <time>2020-08-10T04:56:56.000Z</time>
      </trkpt>
      <trkpt lat="42.30649746023118495941162109375" lon="2.09902678616344928741455078125">
        <ele>1211.800048828125</ele>
        <time>2020-08-10T04:56:58.000Z</time>
      </trkpt>
      <trkpt lat="42.30653635226190090179443359375" lon="2.09900599904358386993408203125">
        <ele>1210.5999755859375</ele>
        <time>2020-08-10T04:57:00.000Z</time>
      </trkpt>
      <trkpt lat="42.306551523506641387939453125" lon="2.098986804485321044921875">
        <ele>1210.199951171875</ele>
        <time>2020-08-10T04:57:01.000Z</time>
      </trkpt>
      <trkpt lat="42.3065654374659061431884765625" lon="2.09897138178348541259765625">
        <ele>1209.5999755859375</ele>
        <time>2020-08-10T04:57:02.000Z</time>
      </trkpt>
      <trkpt lat="42.30661598034203052520751953125" lon="2.09891597740352153778076171875">
        <ele>1208.5999755859375</ele>
        <time>2020-08-10T04:57:05.000Z</time>
      </trkpt>
      <trkpt lat="42.3066479153931140899658203125" lon="2.09886250086128711700439453125">
        <ele>1208</ele>
        <time>2020-08-10T04:57:07.000Z</time>
      </trkpt>
      <trkpt lat="42.30667549185454845428466796875" lon="2.09881405346095561981201171875">
        <ele>1207.4000244140625</ele>
        <time>2020-08-10T04:57:09.000Z</time>
      </trkpt>
      <trkpt lat="42.3067139647901058197021484375" lon="2.09877599962055683135986328125">
        <ele>1206.800048828125</ele>
        <time>2020-08-10T04:57:11.000Z</time>
      </trkpt>
      <trkpt lat="42.3067501746118068695068359375" lon="2.09872956387698650360107421875">
        <ele>1206.199951171875</ele>
        <time>2020-08-10T04:57:13.000Z</time>
      </trkpt>
      <trkpt lat="42.3067840375006198883056640625" lon="2.09869620390236377716064453125">
        <ele>1205.5999755859375</ele>
        <time>2020-08-10T04:57:15.000Z</time>
      </trkpt>
      <trkpt lat="42.3068041540682315826416015625" lon="2.09867206402122974395751953125">
        <ele>1205.199951171875</ele>
        <time>2020-08-10T04:57:16.000Z</time>
      </trkpt>
      <trkpt lat="42.3068614862859249114990234375" lon="2.09866066463291645050048828125">
        <ele>1204.199951171875</ele>
        <time>2020-08-10T04:57:19.000Z</time>
      </trkpt>
      <trkpt lat="42.3068614862859249114990234375" lon="2.09866066463291645050048828125">
        <ele>1203.800048828125</ele>
        <time>2020-08-10T04:57:20.000Z</time>
      </trkpt>
      <trkpt lat="42.30694706551730632781982421875" lon="2.0987254567444324493408203125">
        <ele>1202.800048828125</ele>
        <time>2020-08-10T04:57:24.000Z</time>
      </trkpt>
      <trkpt lat="42.30696030892431735992431640625" lon="2.0987670309841632843017578125">
        <ele>1202.5999755859375</ele>
        <time>2020-08-10T04:57:25.000Z</time>
      </trkpt>
      <trkpt lat="42.3069669306278228759765625" lon="2.09885244257748126983642578125">
        <ele>1201.5999755859375</ele>
        <time>2020-08-10T04:57:27.000Z</time>
      </trkpt>
      <trkpt lat="42.3069580458104610443115234375" lon="2.09892637096345424652099609375">
        <ele>1201</ele>
        <time>2020-08-10T04:57:29.000Z</time>
      </trkpt>
      <trkpt lat="42.30693700723350048065185546875" lon="2.09899795241653919219970703125">
        <ele>1200.199951171875</ele>
        <time>2020-08-10T04:57:32.000Z</time>
      </trkpt>
      <trkpt lat="42.3069064132869243621826171875" lon="2.0991073362529277801513671875">
        <ele>1199.5999755859375</ele>
        <time>2020-08-10T04:57:34.000Z</time>
      </trkpt>
      <trkpt lat="42.30690993368625640869140625" lon="2.099139355123043060302734375">
        <ele>1199.199951171875</ele>
        <time>2020-08-10T04:57:35.000Z</time>
      </trkpt>
      <trkpt lat="42.306919991970062255859375" lon="2.0991710387170314788818359375">
        <ele>1199</ele>
        <time>2020-08-10T04:57:36.000Z</time>
      </trkpt>
      <trkpt lat="42.30692678131163120269775390625" lon="2.099216468632221221923828125">
        <ele>1198.800048828125</ele>
        <time>2020-08-10T04:57:37.000Z</time>
      </trkpt>
      <trkpt lat="42.306945137679576873779296875" lon="2.0992682687938213348388671875">
        <ele>1198.4000244140625</ele>
        <time>2020-08-10T04:57:38.000Z</time>
      </trkpt>
      <trkpt lat="42.3069996200501918792724609375" lon="2.0993695221841335296630859375">
        <ele>1197.4000244140625</ele>
        <time>2020-08-10T04:57:40.000Z</time>
      </trkpt>
      <trkpt lat="42.30705686844885349273681640625" lon="2.09948158822953701019287109375">
        <ele>1196.199951171875</ele>
        <time>2020-08-10T04:57:42.000Z</time>
      </trkpt>
      <trkpt lat="42.30709324590861797332763671875" lon="2.09958317689597606658935546875">
        <ele>1195.4000244140625</ele>
        <time>2020-08-10T04:57:44.000Z</time>
      </trkpt>
      <trkpt lat="42.30710414238274097442626953125" lon="2.09963598288595676422119140625">
        <ele>1194.5999755859375</ele>
        <time>2020-08-10T04:57:45.000Z</time>
      </trkpt>
      <trkpt lat="42.30713398195803165435791015625" lon="2.0997534133493900299072265625">
        <ele>1193.5999755859375</ele>
        <time>2020-08-10T04:57:47.000Z</time>
      </trkpt>
      <trkpt lat="42.3071555234491825103759765625" lon="2.0998652279376983642578125">
        <ele>1192.800048828125</ele>
        <time>2020-08-10T04:57:49.000Z</time>
      </trkpt>
      <trkpt lat="42.30718192644417285919189453125" lon="2.09992314688861370086669921875">
        <ele>1192.4000244140625</ele>
        <time>2020-08-10T04:57:50.000Z</time>
      </trkpt>
      <trkpt lat="42.30725686065852642059326171875" lon="2.10004518739879131317138671875">
        <ele>1191.5999755859375</ele>
        <time>2020-08-10T04:57:52.000Z</time>
      </trkpt>
      <trkpt lat="42.30730446986854076385498046875" lon="2.10010922513902187347412109375">
        <ele>1191.199951171875</ele>
        <time>2020-08-10T04:57:53.000Z</time>
      </trkpt>
      <trkpt lat="42.3073506541550159454345703125" lon="2.10016890428960323333740234375">
        <ele>1190.4000244140625</ele>
        <time>2020-08-10T04:57:54.000Z</time>
      </trkpt>
      <trkpt lat="42.30738963000476360321044921875" lon="2.100214250385761260986328125">
        <ele>1189.800048828125</ele>
        <time>2020-08-10T04:57:55.000Z</time>
      </trkpt>
      <trkpt lat="42.30742030777037143707275390625" lon="2.10025842301547527313232421875">
        <ele>1189.4000244140625</ele>
        <time>2020-08-10T04:57:56.000Z</time>
      </trkpt>
      <trkpt lat="42.30744629167020320892333984375" lon="2.1003039367496967315673828125">
        <ele>1188.800048828125</ele>
        <time>2020-08-10T04:57:57.000Z</time>
      </trkpt>
      <trkpt lat="42.30745232664048671722412109375" lon="2.100393287837505340576171875">
        <ele>1187.5999755859375</ele>
        <time>2020-08-10T04:57:59.000Z</time>
      </trkpt>
      <trkpt lat="42.30743472464382648468017578125" lon="2.10048615932464599609375">
        <ele>1187.199951171875</ele>
        <time>2020-08-10T04:58:01.000Z</time>
      </trkpt>
      <trkpt lat="42.30742868967354297637939453125" lon="2.10053217597305774688720703125">
        <ele>1186.800048828125</ele>
        <time>2020-08-10T04:58:02.000Z</time>
      </trkpt>
      <trkpt lat="42.30741578154265880584716796875" lon="2.10058364085853099822998046875">
        <ele>1186.5999755859375</ele>
        <time>2020-08-10T04:58:03.000Z</time>
      </trkpt>
      <trkpt lat="42.30741226114332675933837890625" lon="2.10064751096069812774658203125">
        <ele>1186.4000244140625</ele>
        <time>2020-08-10T04:58:04.000Z</time>
      </trkpt>
      <trkpt lat="42.307427264750003814697265625" lon="2.1008480899035930633544921875">
        <ele>1185</ele>
        <time>2020-08-10T04:58:07.000Z</time>
      </trkpt>
      <trkpt lat="42.307480238378047943115234375" lon="2.1010358445346355438232421875">
        <ele>1184</ele>
        <time>2020-08-10T04:58:10.000Z</time>
      </trkpt>
      <trkpt lat="42.30754201300442218780517578125" lon="2.10114606656134128570556640625">
        <ele>1183.5999755859375</ele>
        <time>2020-08-10T04:58:12.000Z</time>
      </trkpt>
      <trkpt lat="42.30760135687887668609619140625" lon="2.10124648176133632659912109375">
        <ele>1182.800048828125</ele>
        <time>2020-08-10T04:58:14.000Z</time>
      </trkpt>
      <trkpt lat="42.30770059861242771148681640625" lon="2.1013815142214298248291015625">
        <ele>1181.5999755859375</ele>
        <time>2020-08-10T04:58:17.000Z</time>
      </trkpt>
      <trkpt lat="42.30774049647152423858642578125" lon="2.10143230855464935302734375">
        <ele>1181.199951171875</ele>
        <time>2020-08-10T04:58:18.000Z</time>
      </trkpt>
      <trkpt lat="42.30780352838337421417236328125" lon="2.10152710787951946258544921875">
        <ele>1180.199951171875</ele>
        <time>2020-08-10T04:58:20.000Z</time>
      </trkpt>
      <trkpt lat="42.30781392194330692291259765625" lon="2.10157857276499271392822265625">
        <ele>1179.800048828125</ele>
        <time>2020-08-10T04:58:21.000Z</time>
      </trkpt>
      <trkpt lat="42.3078190349042415618896484375" lon="2.10163221694529056549072265625">
        <ele>1179.199951171875</ele>
        <time>2020-08-10T04:58:22.000Z</time>
      </trkpt>
      <trkpt lat="42.30781107209622859954833984375" lon="2.101739756762981414794921875">
        <ele>1178.199951171875</ele>
        <time>2020-08-10T04:58:24.000Z</time>
      </trkpt>
      <trkpt lat="42.3077992536127567291259765625" lon="2.10183857940137386322021484375">
        <ele>1177</ele>
        <time>2020-08-10T04:58:26.000Z</time>
      </trkpt>
      <trkpt lat="42.307852394878864288330078125" lon="2.1019883640110492706298828125">
        <ele>1176</ele>
        <time>2020-08-10T04:58:29.000Z</time>
      </trkpt>
      <trkpt lat="42.30792188085615634918212890625" lon="2.10213278420269489288330078125">
        <ele>1174.800048828125</ele>
        <time>2020-08-10T04:58:32.000Z</time>
      </trkpt>
      <trkpt lat="42.30794652365148067474365234375" lon="2.1022404916584491729736328125">
        <ele>1174</ele>
        <time>2020-08-10T04:58:34.000Z</time>
      </trkpt>
      <trkpt lat="42.30795959942042827606201171875" lon="2.10230042226612567901611328125">
        <ele>1173.5999755859375</ele>
        <time>2020-08-10T04:58:35.000Z</time>
      </trkpt>
      <trkpt lat="42.30798994190990924835205078125" lon="2.10241542197763919830322265625">
        <ele>1172.5999755859375</ele>
        <time>2020-08-10T04:58:37.000Z</time>
      </trkpt>
      <trkpt lat="42.30801458470523357391357421875" lon="2.1024657972157001495361328125">
        <ele>1172</ele>
        <time>2020-08-10T04:58:38.000Z</time>
      </trkpt>
      <trkpt lat="42.30803704820573329925537109375" lon="2.10251952521502971649169921875">
        <ele>1171.800048828125</ele>
        <time>2020-08-10T04:58:39.000Z</time>
      </trkpt>
      <trkpt lat="42.3080621100962162017822265625" lon="2.1025687269866466522216796875">
        <ele>1171.199951171875</ele>
        <time>2020-08-10T04:58:40.000Z</time>
      </trkpt>
      <trkpt lat="42.308140732347965240478515625" lon="2.10273544304072856903076171875">
        <ele>1170.199951171875</ele>
        <time>2020-08-10T04:58:43.000Z</time>
      </trkpt>
      <trkpt lat="42.30816386640071868896484375" lon="2.1027822978794574737548828125">
        <ele>1169.5999755859375</ele>
        <time>2020-08-10T04:58:44.000Z</time>
      </trkpt>
      <trkpt lat="42.3082076199352741241455078125" lon="2.1028835512697696685791015625">
        <ele>1168.4000244140625</ele>
        <time>2020-08-10T04:58:46.000Z</time>
      </trkpt>
      <trkpt lat="42.308225892484188079833984375" lon="2.10293744690716266632080078125">
        <ele>1168</ele>
        <time>2020-08-10T04:58:47.000Z</time>
      </trkpt>
      <trkpt lat="42.30828012339770793914794921875" lon="2.10303668864071369171142578125">
        <ele>1167</ele>
        <time>2020-08-10T04:58:49.000Z</time>
      </trkpt>
      <trkpt lat="42.308341562747955322265625" lon="2.10314615629613399505615234375">
        <ele>1165.5999755859375</ele>
        <time>2020-08-10T04:58:51.000Z</time>
      </trkpt>
      <trkpt lat="42.308409623801708221435546875" lon="2.1032716333866119384765625">
        <ele>1164</ele>
        <time>2020-08-10T04:58:53.000Z</time>
      </trkpt>
      <trkpt lat="42.30844809673726558685302734375" lon="2.1033341623842716217041015625">
        <ele>1163</ele>
        <time>2020-08-10T04:58:54.000Z</time>
      </trkpt>
      <trkpt lat="42.30852101929485797882080078125" lon="2.10346232168376445770263671875">
        <ele>1161.4000244140625</ele>
        <time>2020-08-10T04:58:56.000Z</time>
      </trkpt>
      <trkpt lat="42.30855974368751049041748046875" lon="2.10351772606372833251953125">
        <ele>1160.800048828125</ele>
        <time>2020-08-10T04:58:57.000Z</time>
      </trkpt>
      <trkpt lat="42.30860265903174877166748046875" lon="2.10356533527374267578125">
        <ele>1160.199951171875</ele>
        <time>2020-08-10T04:58:58.000Z</time>
      </trkpt>
      <trkpt lat="42.3086478374898433685302734375" lon="2.103616297245025634765625">
        <ele>1159.800048828125</ele>
        <time>2020-08-10T04:58:59.000Z</time>
      </trkpt>
      <trkpt lat="42.3086942732334136962890625" lon="2.103663571178913116455078125">
        <ele>1159.199951171875</ele>
        <time>2020-08-10T04:59:00.000Z</time>
      </trkpt>
      <trkpt lat="42.30877784080803394317626953125" lon="2.10375778377056121826171875">
        <ele>1158</ele>
        <time>2020-08-10T04:59:02.000Z</time>
      </trkpt>
      <trkpt lat="42.3088164813816547393798828125" lon="2.1038045547902584075927734375">
        <ele>1157.4000244140625</ele>
        <time>2020-08-10T04:59:03.000Z</time>
      </trkpt>
      <trkpt lat="42.3088604025542736053466796875" lon="2.10384939797222614288330078125">
        <ele>1156.800048828125</ele>
        <time>2020-08-10T04:59:04.000Z</time>
      </trkpt>
      <trkpt lat="42.30895520187914371490478515625" lon="2.10390865802764892578125">
        <ele>1155.4000244140625</ele>
        <time>2020-08-10T04:59:06.000Z</time>
      </trkpt>
      <trkpt lat="42.3089982010424137115478515625" lon="2.10392030887305736541748046875">
        <ele>1154.5999755859375</ele>
        <time>2020-08-10T04:59:07.000Z</time>
      </trkpt>
      <trkpt lat="42.30904203839600086212158203125" lon="2.10392718203365802764892578125">
        <ele>1153.5999755859375</ele>
        <time>2020-08-10T04:59:08.000Z</time>
      </trkpt>
      <trkpt lat="42.30911496095359325408935546875" lon="2.10394084453582763671875">
        <ele>1152.800048828125</ele>
        <time>2020-08-10T04:59:10.000Z</time>
      </trkpt>
      <trkpt lat="42.3091530986130237579345703125" lon="2.103946208953857421875">
        <ele>1152.4000244140625</ele>
        <time>2020-08-10T04:59:11.000Z</time>
      </trkpt>
      <trkpt lat="42.30919593013823032379150390625" lon="2.1039534173905849456787109375">
        <ele>1152.199951171875</ele>
        <time>2020-08-10T04:59:12.000Z</time>
      </trkpt>
      <trkpt lat="42.30923582799732685089111328125" lon="2.10396070964634418487548828125">
        <ele>1152</ele>
        <time>2020-08-10T04:59:13.000Z</time>
      </trkpt>
      <trkpt lat="42.3093190602958202362060546875" lon="2.10399004630744457244873046875">
        <ele>1151.5999755859375</ele>
        <time>2020-08-10T04:59:15.000Z</time>
      </trkpt>
      <trkpt lat="42.3093594610691070556640625" lon="2.10400722920894622802734375">
        <ele>1151.199951171875</ele>
        <time>2020-08-10T04:59:16.000Z</time>
      </trkpt>
      <trkpt lat="42.3094035498797893524169921875" lon="2.1040214784443378448486328125">
        <ele>1151</ele>
        <time>2020-08-10T04:59:17.000Z</time>
      </trkpt>
      <trkpt lat="42.3094954155385494232177734375" lon="2.104045115411281585693359375">
        <ele>1150</ele>
        <time>2020-08-10T04:59:19.000Z</time>
      </trkpt>
      <trkpt lat="42.3096301965415477752685546875" lon="2.1040897071361541748046875">
        <ele>1149.199951171875</ele>
        <time>2020-08-10T04:59:22.000Z</time>
      </trkpt>
      <trkpt lat="42.309679649770259857177734375" lon="2.1041046269237995147705078125">
        <ele>1148.4000244140625</ele>
        <time>2020-08-10T04:59:23.000Z</time>
      </trkpt>
      <trkpt lat="42.3097270913422107696533203125" lon="2.1041234023869037628173828125">
        <ele>1147.5999755859375</ele>
        <time>2020-08-10T04:59:24.000Z</time>
      </trkpt>
      <trkpt lat="42.309772185981273651123046875" lon="2.10414192639291286468505859375">
        <ele>1146.800048828125</ele>
        <time>2020-08-10T04:59:25.000Z</time>
      </trkpt>
      <trkpt lat="42.3098179511725902557373046875" lon="2.1041639707982540130615234375">
        <ele>1145.800048828125</ele>
        <time>2020-08-10T04:59:26.000Z</time>
      </trkpt>
      <trkpt lat="42.30995868332684040069580078125" lon="2.1042306907474994659423828125">
        <ele>1144.4000244140625</ele>
        <time>2020-08-10T04:59:29.000Z</time>
      </trkpt>
      <trkpt lat="42.31004602275788784027099609375" lon="2.10428215563297271728515625">
        <ele>1143.5999755859375</ele>
        <time>2020-08-10T04:59:31.000Z</time>
      </trkpt>
      <trkpt lat="42.31008994393050670623779296875" lon="2.10430604405701160430908203125">
        <ele>1142.4000244140625</ele>
        <time>2020-08-10T04:59:32.000Z</time>
      </trkpt>
      <trkpt lat="42.310183234512805938720703125" lon="2.10434895940124988555908203125">
        <ele>1140.800048828125</ele>
        <time>2020-08-10T04:59:34.000Z</time>
      </trkpt>
      <trkpt lat="42.31027836911380290985107421875" lon="2.10437779314815998077392578125">
        <ele>1139.5999755859375</ele>
        <time>2020-08-10T04:59:36.000Z</time>
      </trkpt>
      <trkpt lat="42.3103223741054534912109375" lon="2.10439103655517101287841796875">
        <ele>1138.800048828125</ele>
        <time>2020-08-10T04:59:37.000Z</time>
      </trkpt>
      <trkpt lat="42.3103634454309940338134765625" lon="2.10440277121961116790771484375">
        <ele>1138.199951171875</ele>
        <time>2020-08-10T04:59:38.000Z</time>
      </trkpt>
      <trkpt lat="42.31043745763599872589111328125" lon="2.10443093441426753997802734375">
        <ele>1137</ele>
        <time>2020-08-10T04:59:40.000Z</time>
      </trkpt>
      <trkpt lat="42.31049780733883380889892578125" lon="2.1044435910880565643310546875">
        <ele>1135.5999755859375</ele>
        <time>2020-08-10T04:59:42.000Z</time>
      </trkpt>
      <trkpt lat="42.3105693049728870391845703125" lon="2.10445138625800609588623046875">
        <ele>1134.5999755859375</ele>
        <time>2020-08-10T04:59:44.000Z</time>
      </trkpt>
      <trkpt lat="42.310637868940830230712890625" lon="2.10447116754949092864990234375">
        <ele>1133.4000244140625</ele>
        <time>2020-08-10T04:59:46.000Z</time>
      </trkpt>
      <trkpt lat="42.3106775991618633270263671875" lon="2.1044804714620113372802734375">
        <ele>1132.800048828125</ele>
        <time>2020-08-10T04:59:47.000Z</time>
      </trkpt>
      <trkpt lat="42.31071473099291324615478515625" lon="2.104496397078037261962890625">
        <ele>1132.199951171875</ele>
        <time>2020-08-10T04:59:48.000Z</time>
      </trkpt>
      <trkpt lat="42.31078078038990497589111328125" lon="2.104548029601573944091796875">
        <ele>1131</ele>
        <time>2020-08-10T04:59:50.000Z</time>
      </trkpt>
      <trkpt lat="42.31078597716987133026123046875" lon="2.10463042370975017547607421875">
        <ele>1129.199951171875</ele>
        <time>2020-08-10T04:59:52.000Z</time>
      </trkpt>
      <trkpt lat="42.31077206321060657501220703125" lon="2.10467099212110042572021484375">
        <ele>1128.5999755859375</ele>
        <time>2020-08-10T04:59:53.000Z</time>
      </trkpt>
      <trkpt lat="42.31075286865234375" lon="2.10471055470407009124755859375">
        <ele>1127.800048828125</ele>
        <time>2020-08-10T04:59:54.000Z</time>
      </trkpt>
      <trkpt lat="42.31067885644733905792236328125" lon="2.10478079505264759063720703125">
        <ele>1127</ele>
        <time>2020-08-10T04:59:57.000Z</time>
      </trkpt>
      <trkpt lat="42.3106420598924160003662109375" lon="2.1047946251928806304931640625">
        <ele>1126.4000244140625</ele>
        <time>2020-08-10T04:59:58.000Z</time>
      </trkpt>
      <trkpt lat="42.31057123281061649322509765625" lon="2.10480560548603534698486328125">
        <ele>1125.199951171875</ele>
        <time>2020-08-10T05:00:00.000Z</time>
      </trkpt>
      <trkpt lat="42.310539968311786651611328125" lon="2.1048046834766864776611328125">
        <ele>1124.800048828125</ele>
        <time>2020-08-10T05:00:01.000Z</time>
      </trkpt>
      <trkpt lat="42.3104693926870822906494140625" lon="2.10479537956416606903076171875">
        <ele>1124</ele>
        <time>2020-08-10T05:00:03.000Z</time>
      </trkpt>
      <trkpt lat="42.31036419980227947235107421875" lon="2.10477157495915889739990234375">
        <ele>1122.800048828125</ele>
        <time>2020-08-10T05:00:06.000Z</time>
      </trkpt>
      <trkpt lat="42.31026546098291873931884765625" lon="2.10475229658186435699462890625">
        <ele>1121.199951171875</ele>
        <time>2020-08-10T05:00:09.000Z</time>
      </trkpt>
      <trkpt lat="42.3102343641221523284912109375" lon="2.104746513068675994873046875">
        <ele>1120.5999755859375</ele>
        <time>2020-08-10T05:00:10.000Z</time>
      </trkpt>
      <trkpt lat="42.31020309962332248687744140625" lon="2.10473989136517047882080078125">
        <ele>1120.199951171875</ele>
        <time>2020-08-10T05:00:11.000Z</time>
      </trkpt>
      <trkpt lat="42.3100727610290050506591796875" lon="2.1047495305538177490234375">
        <ele>1119</ele>
        <time>2020-08-10T05:00:15.000Z</time>
      </trkpt>
      <trkpt lat="42.31004082597792148590087890625" lon="2.10475380532443523406982421875">
        <ele>1118.199951171875</ele>
        <time>2020-08-10T05:00:16.000Z</time>
      </trkpt>
      <trkpt lat="42.31001383624970912933349609375" lon="2.10475078783929347991943359375">
        <ele>1117.800048828125</ele>
        <time>2020-08-10T05:00:17.000Z</time>
      </trkpt>
      <trkpt lat="42.309943176805973052978515625" lon="2.10475531406700611114501953125">
        <ele>1116.800048828125</ele>
        <time>2020-08-10T05:00:20.000Z</time>
      </trkpt>
      <trkpt lat="42.3099225573241710662841796875" lon="2.1047701500356197357177734375">
        <ele>1116.5999755859375</ele>
        <time>2020-08-10T05:00:21.000Z</time>
      </trkpt>
      <trkpt lat="42.309895567595958709716796875" lon="2.10480074398219585418701171875">
        <ele>1115.4000244140625</ele>
        <time>2020-08-10T05:00:24.000Z</time>
      </trkpt>
      <trkpt lat="42.30989280156791210174560546875" lon="2.10481298156082630157470703125">
        <ele>1114.800048828125</ele>
        <time>2020-08-10T05:00:35.000Z</time>
      </trkpt>
      <trkpt lat="42.309888191521167755126953125" lon="2.10482773371040821075439453125">
        <ele>1114.800048828125</ele>
        <time>2020-08-10T05:00:39.000Z</time>
      </trkpt>
      <trkpt lat="42.30990889482200145721435546875" lon="2.10488489829003810882568359375">
        <ele>1114.5999755859375</ele>
        <time>2020-08-10T05:00:41.000Z</time>
      </trkpt>
      <trkpt lat="42.30997326783835887908935546875" lon="2.10492345504462718963623046875">
        <ele>1114.4000244140625</ele>
        <time>2020-08-10T05:00:43.000Z</time>
      </trkpt>
      <trkpt lat="42.3100164346396923065185546875" lon="2.104933261871337890625">
        <ele>1114</ele>
        <time>2020-08-10T05:00:44.000Z</time>
      </trkpt>
      <trkpt lat="42.31010888703167438507080078125" lon="2.10495228879153728485107421875">
        <ele>1113</ele>
        <time>2020-08-10T05:00:46.000Z</time>
      </trkpt>
      <trkpt lat="42.3102323524653911590576171875" lon="2.1049790270626544952392578125">
        <ele>1111.4000244140625</ele>
        <time>2020-08-10T05:00:49.000Z</time>
      </trkpt>
      <trkpt lat="42.310272417962551116943359375" lon="2.10499218665063381195068359375">
        <ele>1111</ele>
        <time>2020-08-10T05:00:50.000Z</time>
      </trkpt>
      <trkpt lat="42.3103473521769046783447265625" lon="2.105019092559814453125">
        <ele>1110.199951171875</ele>
        <time>2020-08-10T05:00:52.000Z</time>
      </trkpt>
      <trkpt lat="42.310421280562877655029296875" lon="2.1050821244716644287109375">
        <ele>1109.5999755859375</ele>
        <time>2020-08-10T05:00:54.000Z</time>
      </trkpt>
      <trkpt lat="42.3104921914637088775634765625" lon="2.10516728460788726806640625">
        <ele>1109.4000244140625</ele>
        <time>2020-08-10T05:00:56.000Z</time>
      </trkpt>
      <trkpt lat="42.3105444945394992828369140625" lon="2.10526510141789913177490234375">
        <ele>1108.800048828125</ele>
        <time>2020-08-10T05:00:58.000Z</time>
      </trkpt>
      <trkpt lat="42.31057140044867992401123046875" lon="2.105312459170818328857421875">
        <ele>1108.199951171875</ele>
        <time>2020-08-10T05:00:59.000Z</time>
      </trkpt>
      <trkpt lat="42.31064918451011180877685546875" lon="2.1054710447788238525390625">
        <ele>1106.800048828125</ele>
        <time>2020-08-10T05:01:02.000Z</time>
      </trkpt>
      <trkpt lat="42.31070668436586856842041015625" lon="2.10558126680552959442138671875">
        <ele>1106.4000244140625</ele>
        <time>2020-08-10T05:01:04.000Z</time>
      </trkpt>
      <trkpt lat="42.310731410980224609375" lon="2.1056361682713031768798828125">
        <ele>1105.800048828125</ele>
        <time>2020-08-10T05:01:05.000Z</time>
      </trkpt>
      <trkpt lat="42.31079050339758396148681640625" lon="2.1057582087814807891845703125">
        <ele>1104.800048828125</ele>
        <time>2020-08-10T05:01:07.000Z</time>
      </trkpt>
      <trkpt lat="42.31082327663898468017578125" lon="2.105816043913364410400390625">
        <ele>1104.199951171875</ele>
        <time>2020-08-10T05:01:08.000Z</time>
      </trkpt>
      <trkpt lat="42.3109008930623531341552734375" lon="2.10591771639883518218994140625">
        <ele>1102.800048828125</ele>
        <time>2020-08-10T05:01:10.000Z</time>
      </trkpt>
      <trkpt lat="42.3109820298850536346435546875" lon="2.10599482990801334381103515625">
        <ele>1101.4000244140625</ele>
        <time>2020-08-10T05:01:12.000Z</time>
      </trkpt>
      <trkpt lat="42.3111161403357982635498046875" lon="2.106072194874286651611328125">
        <ele>1100.4000244140625</ele>
        <time>2020-08-10T05:01:15.000Z</time>
      </trkpt>
      <trkpt lat="42.3111657612025737762451171875" lon="2.10608853958547115325927734375">
        <ele>1099.5999755859375</ele>
        <time>2020-08-10T05:01:16.000Z</time>
      </trkpt>
      <trkpt lat="42.311216555535793304443359375" lon="2.106104381382465362548828125">
        <ele>1098.4000244140625</ele>
        <time>2020-08-10T05:01:17.000Z</time>
      </trkpt>
      <trkpt lat="42.31126760132610797882080078125" lon="2.1061203069984912872314453125">
        <ele>1096.800048828125</ele>
        <time>2020-08-10T05:01:18.000Z</time>
      </trkpt>
      <trkpt lat="42.3113561980426311492919921875" lon="2.106156013906002044677734375">
        <ele>1095.5999755859375</ele>
        <time>2020-08-10T05:01:20.000Z</time>
      </trkpt>
      <trkpt lat="42.31144445948302745819091796875" lon="2.1061927266418933868408203125">
        <ele>1093.800048828125</ele>
        <time>2020-08-10T05:01:22.000Z</time>
      </trkpt>
      <trkpt lat="42.3115213215351104736328125" lon="2.10621342994272708892822265625">
        <ele>1092.5999755859375</ele>
        <time>2020-08-10T05:01:24.000Z</time>
      </trkpt>
      <trkpt lat="42.31155644170939922332763671875" lon="2.10623220540583133697509765625">
        <ele>1092</ele>
        <time>2020-08-10T05:01:25.000Z</time>
      </trkpt>
      <trkpt lat="42.31157806701958179473876953125" lon="2.1062584407627582550048828125">
        <ele>1091.199951171875</ele>
        <time>2020-08-10T05:01:26.000Z</time>
      </trkpt>
      <trkpt lat="42.3115761391818523406982421875" lon="2.10633010603487491607666015625">
        <ele>1090</ele>
        <time>2020-08-10T05:01:28.000Z</time>
      </trkpt>
      <trkpt lat="42.311554513871669769287109375" lon="2.10635860450565814971923828125">
        <ele>1089.5999755859375</ele>
        <time>2020-08-10T05:01:29.000Z</time>
      </trkpt>
      <trkpt lat="42.31146440841257572174072265625" lon="2.10637436248362064361572265625">
        <ele>1088.800048828125</ele>
        <time>2020-08-10T05:01:32.000Z</time>
      </trkpt>
      <trkpt lat="42.31142635457217693328857421875" lon="2.1063588559627532958984375">
        <ele>1088.4000244140625</ele>
        <time>2020-08-10T05:01:33.000Z</time>
      </trkpt>
      <trkpt lat="42.31138410978019237518310546875" lon="2.10634318180382251739501953125">
        <ele>1087.800048828125</ele>
        <time>2020-08-10T05:01:34.000Z</time>
      </trkpt>
      <trkpt lat="42.31132023967802524566650390625" lon="2.10632071830332279205322265625">
        <ele>1086.800048828125</ele>
        <time>2020-08-10T05:01:36.000Z</time>
      </trkpt>
      <trkpt lat="42.31128738261759281158447265625" lon="2.10630613379180431365966796875">
        <ele>1086.199951171875</ele>
        <time>2020-08-10T05:01:37.000Z</time>
      </trkpt>
      <trkpt lat="42.311215214431285858154296875" lon="2.106283418834209442138671875">
        <ele>1085.4000244140625</ele>
        <time>2020-08-10T05:01:39.000Z</time>
      </trkpt>
      <trkpt lat="42.31111563742160797119140625" lon="2.106294818222522735595703125">
        <ele>1084</ele>
        <time>2020-08-10T05:01:42.000Z</time>
      </trkpt>
      <trkpt lat="42.31100122444331645965576171875" lon="2.106287442147731781005859375">
        <ele>1082.4000244140625</ele>
        <time>2020-08-10T05:01:45.000Z</time>
      </trkpt>
      <trkpt lat="42.31091606430709362030029296875" lon="2.10627076216042041778564453125">
        <ele>1081.4000244140625</ele>
        <time>2020-08-10T05:01:47.000Z</time>
      </trkpt>
      <trkpt lat="42.3108174093067646026611328125" lon="2.106259949505329132080078125">
        <ele>1080.5999755859375</ele>
        <time>2020-08-10T05:01:49.000Z</time>
      </trkpt>
      <trkpt lat="42.3107721470296382904052734375" lon="2.106255590915679931640625">
        <ele>1080</ele>
        <time>2020-08-10T05:01:50.000Z</time>
      </trkpt>
      <trkpt lat="42.31067332439124584197998046875" lon="2.10623907856643199920654296875">
        <ele>1078.800048828125</ele>
        <time>2020-08-10T05:01:52.000Z</time>
      </trkpt>
      <trkpt lat="42.31058564968407154083251953125" lon="2.10619649849832057952880859375">
        <ele>1077.800048828125</ele>
        <time>2020-08-10T05:01:54.000Z</time>
      </trkpt>
      <trkpt lat="42.31055279262363910675048828125" lon="2.1061642281711101531982421875">
        <ele>1076.5999755859375</ele>
        <time>2020-08-10T05:01:55.000Z</time>
      </trkpt>
      <trkpt lat="42.31052144430577754974365234375" lon="2.1061313711106777191162109375">
        <ele>1076</ele>
        <time>2020-08-10T05:01:56.000Z</time>
      </trkpt>
      <trkpt lat="42.31049311347305774688720703125" lon="2.10610848851501941680908203125">
        <ele>1075.5999755859375</ele>
        <time>2020-08-10T05:01:57.000Z</time>
      </trkpt>
      <trkpt lat="42.31046863831579685211181640625" lon="2.10609893314540386199951171875">
        <ele>1075</ele>
        <time>2020-08-10T05:01:58.000Z</time>
      </trkpt>
      <trkpt lat="42.31045003049075603485107421875" lon="2.1061089076101779937744140625">
        <ele>1074.4000244140625</ele>
        <time>2020-08-10T05:01:59.000Z</time>
      </trkpt>
      <trkpt lat="42.31043460778892040252685546875" lon="2.10615576244890689849853515625">
        <ele>1073.800048828125</ele>
        <time>2020-08-10T05:02:01.000Z</time>
      </trkpt>
      <trkpt lat="42.31043829582631587982177734375" lon="2.10618996061384677886962890625">
        <ele>1073.4000244140625</ele>
        <time>2020-08-10T05:02:02.000Z</time>
      </trkpt>
      <trkpt lat="42.310496382415294647216796875" lon="2.10628987289965152740478515625">
        <ele>1072.4000244140625</ele>
        <time>2020-08-10T05:02:05.000Z</time>
      </trkpt>
      <trkpt lat="42.310523875057697296142578125" lon="2.106325663626194000244140625">
        <ele>1072</ele>
        <time>2020-08-10T05:02:06.000Z</time>
      </trkpt>
      <trkpt lat="42.3106219433248043060302734375" lon="2.10639305412769317626953125">
        <ele>1071</ele>
        <time>2020-08-10T05:02:09.000Z</time>
      </trkpt>
      <trkpt lat="42.31065672822296619415283203125" lon="2.10640378296375274658203125">
        <ele>1070.800048828125</ele>
        <time>2020-08-10T05:02:10.000Z</time>
      </trkpt>
      <trkpt lat="42.31072671711444854736328125" lon="2.10641794838011264801025390625">
        <ele>1069.5999755859375</ele>
        <time>2020-08-10T05:02:12.000Z</time>
      </trkpt>
      <trkpt lat="42.3107543773949146270751953125" lon="2.1064217202365398406982421875">
        <ele>1069</ele>
        <time>2020-08-10T05:02:13.000Z</time>
      </trkpt>
      <trkpt lat="42.3108051717281341552734375" lon="2.106464803218841552734375">
        <ele>1068.199951171875</ele>
        <time>2020-08-10T05:02:15.000Z</time>
      </trkpt>
      <trkpt lat="42.31086024083197116851806640625" lon="2.1065224707126617431640625">
        <ele>1067.5999755859375</ele>
        <time>2020-08-10T05:02:17.000Z</time>
      </trkpt>
      <trkpt lat="42.31088823638856410980224609375" lon="2.106549628078937530517578125">
        <ele>1067.199951171875</ele>
        <time>2020-08-10T05:02:18.000Z</time>
      </trkpt>
      <trkpt lat="42.3109153099358081817626953125" lon="2.10657318122684955596923828125">
        <ele>1066.800048828125</ele>
        <time>2020-08-10T05:02:19.000Z</time>
      </trkpt>
      <trkpt lat="42.3110249452292919158935546875" lon="2.1066289208829402923583984375">
        <ele>1065.800048828125</ele>
        <time>2020-08-10T05:02:22.000Z</time>
      </trkpt>
      <trkpt lat="42.31109619140625" lon="2.10665297694504261016845703125">
        <ele>1064.800048828125</ele>
        <time>2020-08-10T05:02:24.000Z</time>
      </trkpt>
      <trkpt lat="42.31115721166133880615234375" lon="2.1066674776375293731689453125">
        <ele>1063.4000244140625</ele>
        <time>2020-08-10T05:02:26.000Z</time>
      </trkpt>
      <trkpt lat="42.3112666793167591094970703125" lon="2.10671550594270229339599609375">
        <ele>1062.199951171875</ele>
        <time>2020-08-10T05:02:29.000Z</time>
      </trkpt>
      <trkpt lat="42.31133733876049518585205078125" lon="2.10677820257842540740966796875">
        <ele>1061.199951171875</ele>
        <time>2020-08-10T05:02:31.000Z</time>
      </trkpt>
      <trkpt lat="42.31138947419822216033935546875" lon="2.10686872713267803192138671875">
        <ele>1060</ele>
        <time>2020-08-10T05:02:33.000Z</time>
      </trkpt>
      <trkpt lat="42.3114644922316074371337890625" lon="2.106947265565395355224609375">
        <ele>1059.199951171875</ele>
        <time>2020-08-10T05:02:35.000Z</time>
      </trkpt>
      <trkpt lat="42.31150589883327484130859375" lon="2.1069823019206523895263671875">
        <ele>1058.5999755859375</ele>
        <time>2020-08-10T05:02:36.000Z</time>
      </trkpt>
      <trkpt lat="42.31158141978085041046142578125" lon="2.107035778462886810302734375">
        <ele>1057</ele>
        <time>2020-08-10T05:02:38.000Z</time>
      </trkpt>
      <trkpt lat="42.311634309589862823486328125" lon="2.1070567332208156585693359375">
        <ele>1056.4000244140625</ele>
        <time>2020-08-10T05:02:39.000Z</time>
      </trkpt>
      <trkpt lat="42.31167714111506938934326171875" lon="2.107082046568393707275390625">
        <ele>1055.800048828125</ele>
        <time>2020-08-10T05:02:40.000Z</time>
      </trkpt>
      <trkpt lat="42.31175123713910579681396484375" lon="2.10715471766889095306396484375">
        <ele>1054.4000244140625</ele>
        <time>2020-08-10T05:02:42.000Z</time>
      </trkpt>
      <trkpt lat="42.3117920570075511932373046875" lon="2.10719310678541660308837890625">
        <ele>1053.800048828125</ele>
        <time>2020-08-10T05:02:43.000Z</time>
      </trkpt>
      <trkpt lat="42.31183203868567943572998046875" lon="2.10723116062581539154052734375">
        <ele>1053.4000244140625</ele>
        <time>2020-08-10T05:02:44.000Z</time>
      </trkpt>
      <trkpt lat="42.31195474974811077117919921875" lon="2.10732646286487579345703125">
        <ele>1052.199951171875</ele>
        <time>2020-08-10T05:02:47.000Z</time>
      </trkpt>
      <trkpt lat="42.31208651326596736907958984375" lon="2.10741690360009670257568359375">
        <ele>1050.5999755859375</ele>
        <time>2020-08-10T05:02:50.000Z</time>
      </trkpt>
      <trkpt lat="42.312136553227901458740234375" lon="2.10745579563081264495849609375">
        <ele>1049.800048828125</ele>
        <time>2020-08-10T05:02:51.000Z</time>
      </trkpt>
      <trkpt lat="42.3121891915798187255859375" lon="2.1074922569096088409423828125">
        <ele>1049</ele>
        <time>2020-08-10T05:02:52.000Z</time>
      </trkpt>
      <trkpt lat="42.31230360455811023712158203125" lon="2.10755445063114166259765625">
        <ele>1047.5999755859375</ele>
        <time>2020-08-10T05:02:54.000Z</time>
      </trkpt>
      <trkpt lat="42.31235926039516925811767578125" lon="2.1075754053890705108642578125">
        <ele>1046.800048828125</ele>
        <time>2020-08-10T05:02:55.000Z</time>
      </trkpt>
      <trkpt lat="42.31240686960518360137939453125" lon="2.10759778507053852081298828125">
        <ele>1046.4000244140625</ele>
        <time>2020-08-10T05:02:56.000Z</time>
      </trkpt>
      <trkpt lat="42.312454394996166229248046875" lon="2.10761605761945247650146484375">
        <ele>1045.800048828125</ele>
        <time>2020-08-10T05:02:57.000Z</time>
      </trkpt>
      <trkpt lat="42.312497310340404510498046875" lon="2.1076404489576816558837890625">
        <ele>1045.199951171875</ele>
        <time>2020-08-10T05:02:58.000Z</time>
      </trkpt>
      <trkpt lat="42.31262781657278537750244140625" lon="2.1077120304107666015625">
        <ele>1043.5999755859375</ele>
        <time>2020-08-10T05:03:01.000Z</time>
      </trkpt>
      <trkpt lat="42.3126952908933162689208984375" lon="2.10778486914932727813720703125">
        <ele>1042.199951171875</ele>
        <time>2020-08-10T05:03:03.000Z</time>
      </trkpt>
      <trkpt lat="42.3127358593046665191650390625" lon="2.1078748069703578948974609375">
        <ele>1041.4000244140625</ele>
        <time>2020-08-10T05:03:05.000Z</time>
      </trkpt>
      <trkpt lat="42.31275807134807109832763671875" lon="2.10793272592127323150634765625">
        <ele>1041.199951171875</ele>
        <time>2020-08-10T05:03:06.000Z</time>
      </trkpt>
      <trkpt lat="42.31284356676042079925537109375" lon="2.10806616581976413726806640625">
        <ele>1040</ele>
        <time>2020-08-10T05:03:09.000Z</time>
      </trkpt>
      <trkpt lat="42.31295806355774402618408203125" lon="2.108231373131275177001953125">
        <ele>1039.4000244140625</ele>
        <time>2020-08-10T05:03:14.000Z</time>
      </trkpt>
      <trkpt lat="42.31296661309897899627685546875" lon="2.10826397873461246490478515625">
        <ele>1039.4000244140625</ele>
        <time>2020-08-10T05:03:15.000Z</time>
      </trkpt>
      <trkpt lat="42.31301103718578815460205078125" lon="2.10836975835263729095458984375">
        <ele>1039.800048828125</ele>
        <time>2020-08-10T05:03:18.000Z</time>
      </trkpt>
      <trkpt lat="42.31301371939480304718017578125" lon="2.1084397472441196441650390625">
        <ele>1040.4000244140625</ele>
        <time>2020-08-10T05:03:24.000Z</time>
      </trkpt>
      <trkpt lat="42.31298756785690784454345703125" lon="2.1084317006170749664306640625">
        <ele>1040.5999755859375</ele>
        <time>2020-08-10T05:03:31.000Z</time>
      </trkpt>
      <trkpt lat="42.3129916749894618988037109375" lon="2.1084142662584781646728515625">
        <ele>1040.5999755859375</ele>
        <time>2020-08-10T05:03:32.000Z</time>
      </trkpt>
      <trkpt lat="42.313068620860576629638671875" lon="2.10829784162342548370361328125">
        <ele>1040.199951171875</ele>
        <time>2020-08-10T05:03:36.000Z</time>
      </trkpt>
      <trkpt lat="42.3131757415831089019775390625" lon="2.10821318440139293670654296875">
        <ele>1039.5999755859375</ele>
        <time>2020-08-10T05:03:39.000Z</time>
      </trkpt>
      <trkpt lat="42.31328261084854602813720703125" lon="2.10815736092627048492431640625">
        <ele>1039.199951171875</ele>
        <time>2020-08-10T05:03:42.000Z</time>
      </trkpt>
      <trkpt lat="42.3133708722889423370361328125" lon="2.10812844336032867431640625">
        <ele>1038.800048828125</ele>
        <time>2020-08-10T05:03:44.000Z</time>
      </trkpt>
      <trkpt lat="42.3135264404118061065673828125" lon="2.10810455493628978729248046875">
        <ele>1037.800048828125</ele>
        <time>2020-08-10T05:03:47.000Z</time>
      </trkpt>
      <trkpt lat="42.31358016841113567352294921875" lon="2.10810539312660694122314453125">
        <ele>1037.800048828125</ele>
        <time>2020-08-10T05:03:48.000Z</time>
      </trkpt>
      <trkpt lat="42.31378250755369663238525390625" lon="2.1081624738872051239013671875">
        <ele>1037.199951171875</ele>
        <time>2020-08-10T05:03:52.000Z</time>
      </trkpt>
      <trkpt lat="42.31387051753699779510498046875" lon="2.10820379666984081268310546875">
        <ele>1037</ele>
        <time>2020-08-10T05:03:54.000Z</time>
      </trkpt>
      <trkpt lat="42.31397378258407115936279296875" lon="2.10822592489421367645263671875">
        <ele>1037</ele>
        <time>2020-08-10T05:03:57.000Z</time>
      </trkpt>
      <trkpt lat="42.314053662121295928955078125" lon="2.1081641502678394317626953125">
        <ele>1037.199951171875</ele>
        <time>2020-08-10T05:04:01.000Z</time>
      </trkpt>
      <trkpt lat="42.3141418397426605224609375" lon="2.10800397209823131561279296875">
        <ele>1038.199951171875</ele>
        <time>2020-08-10T05:04:08.000Z</time>
      </trkpt>
      <trkpt lat="42.3141597770154476165771484375" lon="2.10796860046684741973876953125">
        <ele>1038.800048828125</ele>
        <time>2020-08-10T05:04:10.000Z</time>
      </trkpt>
      <trkpt lat="42.31416924856603145599365234375" lon="2.10787363350391387939453125">
        <ele>1039.800048828125</ele>
        <time>2020-08-10T05:04:14.000Z</time>
      </trkpt>
      <trkpt lat="42.3141695000231266021728515625" lon="2.107849158346652984619140625">
        <ele>1040</ele>
        <time>2020-08-10T05:04:15.000Z</time>
      </trkpt>
      <trkpt lat="42.3141587711870670318603515625" lon="2.10770457051694393157958984375">
        <ele>1041</ele>
        <time>2020-08-10T05:04:20.000Z</time>
      </trkpt>
      <trkpt lat="42.3141346313059329986572265625" lon="2.1075334958732128143310546875">
        <ele>1042.4000244140625</ele>
        <time>2020-08-10T05:04:26.000Z</time>
      </trkpt>
      <trkpt lat="42.3141311109066009521484375" lon="2.10750617086887359619140625">
        <ele>1042.4000244140625</ele>
        <time>2020-08-10T05:04:27.000Z</time>
      </trkpt>
      <trkpt lat="42.31411828659474849700927734375" lon="2.10737901739776134490966796875">
        <ele>1043.4000244140625</ele>
        <time>2020-08-10T05:04:32.000Z</time>
      </trkpt>
      <trkpt lat="42.31410319916903972625732421875" lon="2.1073363535106182098388671875">
        <ele>1044</ele>
        <time>2020-08-10T05:04:34.000Z</time>
      </trkpt>
      <trkpt lat="42.3140989243984222412109375" lon="2.1072887443006038665771484375">
        <ele>1044.4000244140625</ele>
        <time>2020-08-10T05:04:36.000Z</time>
      </trkpt>
      <trkpt lat="42.31409691274166107177734375" lon="2.107265107333660125732421875">
        <ele>1044.5999755859375</ele>
        <time>2020-08-10T05:04:37.000Z</time>
      </trkpt>
      <trkpt lat="42.3140940628945827484130859375" lon="2.10721523500978946685791015625">
        <ele>1044.800048828125</ele>
        <time>2020-08-10T05:04:39.000Z</time>
      </trkpt>
      <trkpt lat="42.3140840046107769012451171875" lon="2.10712906904518604278564453125">
        <ele>1045.4000244140625</ele>
        <time>2020-08-10T05:04:43.000Z</time>
      </trkpt>
      <trkpt lat="42.3140806518495082855224609375" lon="2.10710274986922740936279296875">
        <ele>1045.5999755859375</ele>
        <time>2020-08-10T05:04:44.000Z</time>
      </trkpt>
      <trkpt lat="42.31407403014600276947021484375" lon="2.10699579678475856781005859375">
        <ele>1046.5999755859375</ele>
        <time>2020-08-10T05:04:48.000Z</time>
      </trkpt>
      <trkpt lat="42.314073778688907623291015625" lon="2.10691516287624835968017578125">
        <ele>1047.199951171875</ele>
        <time>2020-08-10T05:04:51.000Z</time>
      </trkpt>
      <trkpt lat="42.31407335959374904632568359375" lon="2.106838636100292205810546875">
        <ele>1048</ele>
        <time>2020-08-10T05:04:54.000Z</time>
      </trkpt>
      <trkpt lat="42.31408660300076007843017578125" lon="2.10672288201749324798583984375">
        <ele>1048.4000244140625</ele>
        <time>2020-08-10T05:04:59.000Z</time>
      </trkpt>
      <trkpt lat="42.31409112922847270965576171875" lon="2.10661374963819980621337890625">
        <ele>1049</ele>
        <time>2020-08-10T05:05:03.000Z</time>
      </trkpt>
      <trkpt lat="42.31409448198974132537841796875" lon="2.10653521120548248291015625">
        <ele>1049.4000244140625</ele>
        <time>2020-08-10T05:05:06.000Z</time>
      </trkpt>
      <trkpt lat="42.31409900821745395660400390625" lon="2.10646270774304866790771484375">
        <ele>1050</ele>
        <time>2020-08-10T05:05:09.000Z</time>
      </trkpt>
      <trkpt lat="42.314087189733982086181640625" lon="2.1063848398625850677490234375">
        <ele>1050.5999755859375</ele>
        <time>2020-08-10T05:05:12.000Z</time>
      </trkpt>
      <trkpt lat="42.31406472623348236083984375" lon="2.10622063837945461273193359375">
        <ele>1051.199951171875</ele>
        <time>2020-08-10T05:05:18.000Z</time>
      </trkpt>
      <trkpt lat="42.31405475176870822906494140625" lon="2.1061662398278713226318359375">
        <ele>1051.5999755859375</ele>
        <time>2020-08-10T05:05:20.000Z</time>
      </trkpt>
      <trkpt lat="42.31402759440243244171142578125" lon="2.10601477883756160736083984375">
        <ele>1052.199951171875</ele>
        <time>2020-08-10T05:05:26.000Z</time>
      </trkpt>
      <trkpt lat="42.3140182904899120330810546875" lon="2.105962224304676055908203125">
        <ele>1052.4000244140625</ele>
        <time>2020-08-10T05:05:28.000Z</time>
      </trkpt>
      <trkpt lat="42.31398819945752620697021484375" lon="2.10584546439349651336669921875">
        <ele>1053</ele>
        <time>2020-08-10T05:05:33.000Z</time>
      </trkpt>
      <trkpt lat="42.31397361494600772857666015625" lon="2.10575561039149761199951171875">
        <ele>1053.4000244140625</ele>
        <time>2020-08-10T05:05:37.000Z</time>
      </trkpt>
      <trkpt lat="42.3139669932425022125244140625" lon="2.1057092584669589996337890625">
        <ele>1053.5999755859375</ele>
        <time>2020-08-10T05:05:39.000Z</time>
      </trkpt>
      <trkpt lat="42.31394981034100055694580078125" lon="2.10561412386596202850341796875">
        <ele>1054</ele>
        <time>2020-08-10T05:05:43.000Z</time>
      </trkpt>
      <trkpt lat="42.313921563327312469482421875" lon="2.10552804172039031982421875">
        <ele>1054.5999755859375</ele>
        <time>2020-08-10T05:05:47.000Z</time>
      </trkpt>
      <trkpt lat="42.3138952441513538360595703125" lon="2.1054651774466037750244140625">
        <ele>1055</ele>
        <time>2020-08-10T05:05:50.000Z</time>
      </trkpt>
      <trkpt lat="42.31386984698474407196044921875" lon="2.10539636202156543731689453125">
        <ele>1055.5999755859375</ele>
        <time>2020-08-10T05:05:53.000Z</time>
      </trkpt>
      <trkpt lat="42.31383313424885272979736328125" lon="2.10530516691505908966064453125">
        <ele>1056.199951171875</ele>
        <time>2020-08-10T05:05:57.000Z</time>
      </trkpt>
      <trkpt lat="42.31378133408725261688232421875" lon="2.105177007615566253662109375">
        <ele>1056.800048828125</ele>
        <time>2020-08-10T05:06:03.000Z</time>
      </trkpt>
      <trkpt lat="42.3137624748051166534423828125" lon="2.1051329188048839569091796875">
        <ele>1057.199951171875</ele>
        <time>2020-08-10T05:06:05.000Z</time>
      </trkpt>
      <trkpt lat="42.3137209005653858184814453125" lon="2.1050511114299297332763671875">
        <ele>1057.800048828125</ele>
        <time>2020-08-10T05:06:09.000Z</time>
      </trkpt>
      <trkpt lat="42.3137019574642181396484375" lon="2.105012051761150360107421875">
        <ele>1058.199951171875</ele>
        <time>2020-08-10T05:06:11.000Z</time>
      </trkpt>
      <trkpt lat="42.31366164050996303558349609375" lon="2.104905433952808380126953125">
        <ele>1059.199951171875</ele>
        <time>2020-08-10T05:06:16.000Z</time>
      </trkpt>
      <trkpt lat="42.3136474750936031341552734375" lon="2.10487064905464649200439453125">
        <ele>1059.199951171875</ele>
        <time>2020-08-10T05:06:18.000Z</time>
      </trkpt>
      <trkpt lat="42.31360833160579204559326171875" lon="2.104746513068675994873046875">
        <ele>1060.199951171875</ele>
        <time>2020-08-10T05:06:24.000Z</time>
      </trkpt>
      <trkpt lat="42.31360162608325481414794921875" lon="2.10472614504396915435791015625">
        <ele>1060.4000244140625</ele>
        <time>2020-08-10T05:06:25.000Z</time>
      </trkpt>
      <trkpt lat="42.31357547454535961151123046875" lon="2.1045921184122562408447265625">
        <ele>1061.4000244140625</ele>
        <time>2020-08-10T05:06:31.000Z</time>
      </trkpt>
      <trkpt lat="42.313569523394107818603515625" lon="2.10446245037019252777099609375">
        <ele>1062.4000244140625</ele>
        <time>2020-08-10T05:06:38.000Z</time>
      </trkpt>
      <trkpt lat="42.31356742791831493377685546875" lon="2.10441769100725650787353515625">
        <ele>1062.5999755859375</ele>
        <time>2020-08-10T05:06:39.000Z</time>
      </trkpt>
      <trkpt lat="42.31355988420546054840087890625" lon="2.10424368269741535186767578125">
        <ele>1063.199951171875</ele>
        <time>2020-08-10T05:06:46.000Z</time>
      </trkpt>
      <trkpt lat="42.31355150230228900909423828125" lon="2.104167155921459197998046875">
        <ele>1063.800048828125</ele>
        <time>2020-08-10T05:06:49.000Z</time>
      </trkpt>
      <trkpt lat="42.31351378373801708221435546875" lon="2.10405207239091396331787109375">
        <ele>1064.5999755859375</ele>
        <time>2020-08-10T05:06:54.000Z</time>
      </trkpt>
      <trkpt lat="42.31350976042449474334716796875" lon="2.10402877070009708404541015625">
        <ele>1064.800048828125</ele>
        <time>2020-08-10T05:06:56.000Z</time>
      </trkpt>
      <trkpt lat="42.3134882189333438873291015625" lon="2.10395182482898235321044921875">
        <ele>1065.199951171875</ele>
        <time>2020-08-10T05:06:59.000Z</time>
      </trkpt>
      <trkpt lat="42.313484363257884979248046875" lon="2.10390907712280750274658203125">
        <ele>1065.5999755859375</ele>
        <time>2020-08-10T05:07:01.000Z</time>
      </trkpt>
      <trkpt lat="42.31347824446856975555419921875" lon="2.1038670837879180908203125">
        <ele>1066</ele>
        <time>2020-08-10T05:07:03.000Z</time>
      </trkpt>
      <trkpt lat="42.31347329914569854736328125" lon="2.10370548069477081298828125">
        <ele>1067</ele>
        <time>2020-08-10T05:07:10.000Z</time>
      </trkpt>
      <trkpt lat="42.313470952212810516357421875" lon="2.10357480682432651519775390625">
        <ele>1068</ele>
        <time>2020-08-10T05:07:16.000Z</time>
      </trkpt>
      <trkpt lat="42.313475310802459716796875" lon="2.103490568697452545166015625">
        <ele>1068.800048828125</ele>
        <time>2020-08-10T05:07:20.000Z</time>
      </trkpt>
      <trkpt lat="42.313474304974079132080078125" lon="2.1034555323421955108642578125">
        <ele>1069.199951171875</ele>
        <time>2020-08-10T05:07:22.000Z</time>
      </trkpt>
      <trkpt lat="42.31349215842783451080322265625" lon="2.1033378504216670989990234375">
        <ele>1070.199951171875</ele>
        <time>2020-08-10T05:07:28.000Z</time>
      </trkpt>
      <trkpt lat="42.31349333189427852630615234375" lon="2.10331915877759456634521484375">
        <ele>1070.5999755859375</ele>
        <time>2020-08-10T05:07:29.000Z</time>
      </trkpt>
      <trkpt lat="42.31349634937942028045654296875" lon="2.10328035056591033935546875">
        <ele>1071.199951171875</ele>
        <time>2020-08-10T05:07:31.000Z</time>
      </trkpt>
      <trkpt lat="42.31350204907357692718505859375" lon="2.10326082073152065277099609375">
        <ele>1071.4000244140625</ele>
        <time>2020-08-10T05:07:32.000Z</time>
      </trkpt>
      <trkpt lat="42.3135093413293361663818359375" lon="2.103202901780605316162109375">
        <ele>1071.800048828125</ele>
        <time>2020-08-10T05:07:35.000Z</time>
      </trkpt>
      <trkpt lat="42.31352568604052066802978515625" lon="2.10309234447777271270751953125">
        <ele>1072.5999755859375</ele>
        <time>2020-08-10T05:07:41.000Z</time>
      </trkpt>
      <trkpt lat="42.3135364986956119537353515625" lon="2.1030575595796108245849609375">
        <ele>1072.800048828125</ele>
        <time>2020-08-10T05:07:43.000Z</time>
      </trkpt>
      <trkpt lat="42.31355183757841587066650390625" lon="2.10298388265073299407958984375">
        <ele>1073.5999755859375</ele>
        <time>2020-08-10T05:07:47.000Z</time>
      </trkpt>
      <trkpt lat="42.3135571181774139404296875" lon="2.102946750819683074951171875">
        <ele>1073.800048828125</ele>
        <time>2020-08-10T05:07:49.000Z</time>
      </trkpt>
      <trkpt lat="42.31356457807123661041259765625" lon="2.102888412773609161376953125">
        <ele>1074.199951171875</ele>
        <time>2020-08-10T05:07:52.000Z</time>
      </trkpt>
      <trkpt lat="42.3135757260024547576904296875" lon="2.1028523705899715423583984375">
        <ele>1074.800048828125</ele>
        <time>2020-08-10T05:07:54.000Z</time>
      </trkpt>
      <trkpt lat="42.31359290890395641326904296875" lon="2.10278539918363094329833984375">
        <ele>1075.5999755859375</ele>
        <time>2020-08-10T05:07:58.000Z</time>
      </trkpt>
      <trkpt lat="42.31359726749360561370849609375" lon="2.1027517877519130706787109375">
        <ele>1076</ele>
        <time>2020-08-10T05:08:00.000Z</time>
      </trkpt>
      <trkpt lat="42.31359860859811305999755859375" lon="2.10273309610784053802490234375">
        <ele>1076</ele>
        <time>2020-08-10T05:08:01.000Z</time>
      </trkpt>
      <trkpt lat="42.31360665522515773773193359375" lon="2.10264592431485652923583984375">
        <ele>1076.5999755859375</ele>
        <time>2020-08-10T05:08:06.000Z</time>
      </trkpt>
      <trkpt lat="42.31361252255737781524658203125" lon="2.10261507891118526458740234375">
        <ele>1077</ele>
        <time>2020-08-10T05:08:08.000Z</time>
      </trkpt>
      <trkpt lat="42.3136293701827526092529296875" lon="2.1025479398667812347412109375">
        <ele>1078</ele>
        <time>2020-08-10T05:08:12.000Z</time>
      </trkpt>
      <trkpt lat="42.3136394284665584564208984375" lon="2.10251835174858570098876953125">
        <ele>1078.199951171875</ele>
        <time>2020-08-10T05:08:14.000Z</time>
      </trkpt>
      <trkpt lat="42.31366231106221675872802734375" lon="2.1024423278868198394775390625">
        <ele>1079.199951171875</ele>
        <time>2020-08-10T05:08:20.000Z</time>
      </trkpt>
      <trkpt lat="42.31366985477507114410400390625" lon="2.1023903600871562957763671875">
        <ele>1079.4000244140625</ele>
        <time>2020-08-10T05:08:22.000Z</time>
      </trkpt>
      <trkpt lat="42.3136831820011138916015625" lon="2.1023167669773101806640625">
        <ele>1080.199951171875</ele>
        <time>2020-08-10T05:08:26.000Z</time>
      </trkpt>
      <trkpt lat="42.31368494220077991485595703125" lon="2.10229790769517421722412109375">
        <ele>1080.199951171875</ele>
        <time>2020-08-10T05:08:27.000Z</time>
      </trkpt>
      <trkpt lat="42.313698269426822662353515625" lon="2.1022612787783145904541015625">
        <ele>1080.5999755859375</ele>
        <time>2020-08-10T05:08:29.000Z</time>
      </trkpt>
      <trkpt lat="42.31371327303349971771240234375" lon="2.10222766734659671783447265625">
        <ele>1081.199951171875</ele>
        <time>2020-08-10T05:08:32.000Z</time>
      </trkpt>
      <trkpt lat="42.3137641511857509613037109375" lon="2.102144099771976470947265625">
        <ele>1081.800048828125</ele>
        <time>2020-08-10T05:08:36.000Z</time>
      </trkpt>
      <trkpt lat="42.3137641511857509613037109375" lon="2.102057933807373046875">
        <ele>1082.199951171875</ele>
        <time>2020-08-10T05:08:41.000Z</time>
      </trkpt>
      <trkpt lat="42.31375149451196193695068359375" lon="2.102025412023067474365234375">
        <ele>1082.5999755859375</ele>
        <time>2020-08-10T05:08:43.000Z</time>
      </trkpt>
      <trkpt lat="42.31374361552298069000244140625" lon="2.1019742824137210845947265625">
        <ele>1083.199951171875</ele>
        <time>2020-08-10T05:08:46.000Z</time>
      </trkpt>
      <trkpt lat="42.31373012065887451171875" lon="2.1018981747329235076904296875">
        <ele>1083.800048828125</ele>
        <time>2020-08-10T05:08:51.000Z</time>
      </trkpt>
      <trkpt lat="42.3137058131396770477294921875" lon="2.1018264256417751312255859375">
        <ele>1084.4000244140625</ele>
        <time>2020-08-10T05:08:56.000Z</time>
      </trkpt>
      <trkpt lat="42.31368695385754108428955078125" lon="2.10177839733660221099853515625">
        <ele>1084.5999755859375</ele>
        <time>2020-08-10T05:09:00.000Z</time>
      </trkpt>
      <trkpt lat="42.3136323876678943634033203125" lon="2.10169658996164798736572265625">
        <ele>1084.800048828125</ele>
        <time>2020-08-10T05:09:07.000Z</time>
      </trkpt>
      <trkpt lat="42.3135678470134735107421875" lon="2.1016956679522991180419921875">
        <ele>1084.4000244140625</ele>
        <time>2020-08-10T05:09:11.000Z</time>
      </trkpt>
      <trkpt lat="42.31355552561581134796142578125" lon="2.1017127670347690582275390625">
        <ele>1084.4000244140625</ele>
        <time>2020-08-10T05:09:12.000Z</time>
      </trkpt>
      <trkpt lat="42.3135472275316715240478515625" lon="2.1017801575362682342529296875">
        <ele>1084.5999755859375</ele>
        <time>2020-08-10T05:09:15.000Z</time>
      </trkpt>
      <trkpt lat="42.3135490715503692626953125" lon="2.1018327958881855010986328125">
        <ele>1084.800048828125</ele>
        <time>2020-08-10T05:09:17.000Z</time>
      </trkpt>
      <trkpt lat="42.3135556094348430633544921875" lon="2.10191016085445880889892578125">
        <ele>1085.199951171875</ele>
        <time>2020-08-10T05:09:20.000Z</time>
      </trkpt>
      <trkpt lat="42.31355912983417510986328125" lon="2.1019605360925197601318359375">
        <ele>1085.4000244140625</ele>
        <time>2020-08-10T05:09:22.000Z</time>
      </trkpt>
      <trkpt lat="42.31355938129127025604248046875" lon="2.10203689523041248321533203125">
        <ele>1085.800048828125</ele>
        <time>2020-08-10T05:09:25.000Z</time>
      </trkpt>
      <trkpt lat="42.31356927193701267242431640625" lon="2.10215709172189235687255859375">
        <ele>1086.4000244140625</ele>
        <time>2020-08-10T05:09:30.000Z</time>
      </trkpt>
      <trkpt lat="42.31357480399310588836669921875" lon="2.1022049523890018463134765625">
        <ele>1086.800048828125</ele>
        <time>2020-08-10T05:09:32.000Z</time>
      </trkpt>
      <trkpt lat="42.31358586810529232025146484375" lon="2.10237401537597179412841796875">
        <ele>1087.5999755859375</ele>
        <time>2020-08-10T05:09:39.000Z</time>
      </trkpt>
      <trkpt lat="42.313621155917644500732421875" lon="2.1025841496884822845458984375">
        <ele>1088.800048828125</ele>
        <time>2020-08-10T05:09:48.000Z</time>
      </trkpt>
      <trkpt lat="42.31368041597306728363037109375" lon="2.10272915661334991455078125">
        <ele>1089.5999755859375</ele>
        <time>2020-08-10T05:09:55.000Z</time>
      </trkpt>
      <trkpt lat="42.3136912286281585693359375" lon="2.10274550132453441619873046875">
        <ele>1089.800048828125</ele>
        <time>2020-08-10T05:09:56.000Z</time>
      </trkpt>
      <trkpt lat="42.3137529194355010986328125" lon="2.1028476767241954803466796875">
        <ele>1090.800048828125</ele>
        <time>2020-08-10T05:10:02.000Z</time>
      </trkpt>
      <trkpt lat="42.31376540847122669219970703125" lon="2.10286133922636508941650390625">
        <ele>1090.800048828125</ele>
        <time>2020-08-10T05:10:03.000Z</time>
      </trkpt>
      <trkpt lat="42.31384403072297573089599609375" lon="2.10293191485106945037841796875">
        <ele>1091.4000244140625</ele>
        <time>2020-08-10T05:10:09.000Z</time>
      </trkpt>
      <trkpt lat="42.31392935849726200103759765625" lon="2.1030008979141712188720703125">
        <ele>1091.800048828125</ele>
        <time>2020-08-10T05:10:15.000Z</time>
      </trkpt>
      <trkpt lat="42.313955090939998626708984375" lon="2.1030330844223499298095703125">
        <ele>1092</ele>
        <time>2020-08-10T05:10:17.000Z</time>
      </trkpt>
      <trkpt lat="42.3140551708638668060302734375" lon="2.10316635668277740478515625">
        <ele>1092.5999755859375</ele>
        <time>2020-08-10T05:10:25.000Z</time>
      </trkpt>
      <trkpt lat="42.314071767032146453857421875" lon="2.1032091043889522552490234375">
        <ele>1092.800048828125</ele>
        <time>2020-08-10T05:10:27.000Z</time>
      </trkpt>
      <trkpt lat="42.3140960745513439178466796875" lon="2.10327020846307277679443359375">
        <ele>1093.199951171875</ele>
        <time>2020-08-10T05:10:30.000Z</time>
      </trkpt>
      <trkpt lat="42.31410018168389797210693359375" lon="2.10331790149211883544921875">
        <ele>1093.4000244140625</ele>
        <time>2020-08-10T05:10:32.000Z</time>
      </trkpt>
      <trkpt lat="42.3141114972531795501708984375" lon="2.1034585498273372650146484375">
        <ele>1094</ele>
        <time>2020-08-10T05:10:38.000Z</time>
      </trkpt>
      <trkpt lat="42.31411166489124298095703125" lon="2.1034806780517101287841796875">
        <ele>1094</ele>
        <time>2020-08-10T05:10:39.000Z</time>
      </trkpt>
      <trkpt lat="42.314110659062862396240234375" lon="2.10350188426673412322998046875">
        <ele>1094</ele>
        <time>2020-08-10T05:10:40.000Z</time>
      </trkpt>
      <trkpt lat="42.31410604901611804962158203125" lon="2.103664912283420562744140625">
        <ele>1094.800048828125</ele>
        <time>2020-08-10T05:10:47.000Z</time>
      </trkpt>
      <trkpt lat="42.31410370208323001861572265625" lon="2.10371579043567180633544921875">
        <ele>1095</ele>
        <time>2020-08-10T05:10:49.000Z</time>
      </trkpt>
      <trkpt lat="42.31410521082580089569091796875" lon="2.10383330471813678741455078125">
        <ele>1096</ele>
        <time>2020-08-10T05:10:54.000Z</time>
      </trkpt>
      <trkpt lat="42.31413940899074077606201171875" lon="2.10401519201695919036865234375">
        <ele>1096.800048828125</ele>
        <time>2020-08-10T05:11:02.000Z</time>
      </trkpt>
      <trkpt lat="42.31414695270359516143798828125" lon="2.10406087338924407958984375">
        <ele>1097.199951171875</ele>
        <time>2020-08-10T05:11:04.000Z</time>
      </trkpt>
      <trkpt lat="42.31414913199841976165771484375" lon="2.10408124141395092010498046875">
        <ele>1097.199951171875</ele>
        <time>2020-08-10T05:11:05.000Z</time>
      </trkpt>
      <trkpt lat="42.31415382586419582366943359375" lon="2.10414913482964038848876953125">
        <ele>1097.5999755859375</ele>
        <time>2020-08-10T05:11:08.000Z</time>
      </trkpt>
      <trkpt lat="42.31419087387621402740478515625" lon="2.10425022058188915252685546875">
        <ele>1098</ele>
        <time>2020-08-10T05:11:14.000Z</time>
      </trkpt>
      <trkpt lat="42.31420981697738170623779296875" lon="2.1042960695922374725341796875">
        <ele>1098.199951171875</ele>
        <time>2020-08-10T05:11:16.000Z</time>
      </trkpt>
      <trkpt lat="42.31429112143814563751220703125" lon="2.10443680174648761749267578125">
        <ele>1098.800048828125</ele>
        <time>2020-08-10T05:11:22.000Z</time>
      </trkpt>
      <trkpt lat="42.31433889828622341156005859375" lon="2.1045000851154327392578125">
        <ele>1099.4000244140625</ele>
        <time>2020-08-10T05:11:26.000Z</time>
      </trkpt>
      <trkpt lat="42.31435230933129787445068359375" lon="2.1045134961605072021484375">
        <ele>1099.4000244140625</ele>
        <time>2020-08-10T05:11:27.000Z</time>
      </trkpt>
      <trkpt lat="42.31441534124314785003662109375" lon="2.10459270514547824859619140625">
        <ele>1099.800048828125</ele>
        <time>2020-08-10T05:11:32.000Z</time>
      </trkpt>
      <trkpt lat="42.3144672252237796783447265625" lon="2.10463084280490875244140625">
        <ele>1100.4000244140625</ele>
        <time>2020-08-10T05:11:35.000Z</time>
      </trkpt>
      <trkpt lat="42.31454174034297466278076171875" lon="2.1046987362205982208251953125">
        <ele>1101</ele>
        <time>2020-08-10T05:11:40.000Z</time>
      </trkpt>
      <trkpt lat="42.31458314694464206695556640625" lon="2.1047376282513141632080078125">
        <ele>1101.5999755859375</ele>
        <time>2020-08-10T05:11:44.000Z</time>
      </trkpt>
      <trkpt lat="42.31464936397969722747802734375" lon="2.10480920970439910888671875">
        <ele>1102</ele>
        <time>2020-08-10T05:11:48.000Z</time>
      </trkpt>
      <trkpt lat="42.3147257231175899505615234375" lon="2.10489797405898571014404296875">
        <ele>1102.5999755859375</ele>
        <time>2020-08-10T05:11:54.000Z</time>
      </trkpt>
      <trkpt lat="42.3147562332451343536376953125" lon="2.1049225330352783203125">
        <ele>1102.5999755859375</ele>
        <time>2020-08-10T05:11:56.000Z</time>
      </trkpt>
      <trkpt lat="42.3148363642394542694091796875" lon="2.10500928573310375213623046875">
        <ele>1103.5999755859375</ele>
        <time>2020-08-10T05:12:02.000Z</time>
      </trkpt>
      <trkpt lat="42.314874418079853057861328125" lon="2.1050561405718326568603515625">
        <ele>1103.800048828125</ele>
        <time>2020-08-10T05:12:05.000Z</time>
      </trkpt>
      <trkpt lat="42.314939461648464202880859375" lon="2.10512244142591953277587890625">
        <ele>1104.199951171875</ele>
        <time>2020-08-10T05:12:10.000Z</time>
      </trkpt>
      <trkpt lat="42.3149651102721691131591796875" lon="2.10515077225863933563232421875">
        <ele>1104.5999755859375</ele>
        <time>2020-08-10T05:12:12.000Z</time>
      </trkpt>
      <trkpt lat="42.31497801840305328369140625" lon="2.10516334511339664459228515625">
        <ele>1104.5999755859375</ele>
        <time>2020-08-10T05:12:13.000Z</time>
      </trkpt>
      <trkpt lat="42.315089665353298187255859375" lon="2.1052935160696506500244140625">
        <ele>1105.800048828125</ele>
        <time>2020-08-10T05:12:22.000Z</time>
      </trkpt>
      <trkpt lat="42.3151619173586368560791015625" lon="2.1053719706833362579345703125">
        <ele>1106.5999755859375</ele>
        <time>2020-08-10T05:12:28.000Z</time>
      </trkpt>
      <trkpt lat="42.3152226023375988006591796875" lon="2.10544086992740631103515625">
        <ele>1106.800048828125</ele>
        <time>2020-08-10T05:12:33.000Z</time>
      </trkpt>
      <trkpt lat="42.31525001116096973419189453125" lon="2.10549325682222843170166015625">
        <ele>1107.199951171875</ele>
        <time>2020-08-10T05:12:36.000Z</time>
      </trkpt>
      <trkpt lat="42.31528923846781253814697265625" lon="2.10559149272739887237548828125">
        <ele>1107.800048828125</ele>
        <time>2020-08-10T05:12:41.000Z</time>
      </trkpt>
      <trkpt lat="42.3153050802648067474365234375" lon="2.10562921129167079925537109375">
        <ele>1108</ele>
        <time>2020-08-10T05:12:43.000Z</time>
      </trkpt>
      <trkpt lat="42.31535512022674083709716796875" lon="2.105798609554767608642578125">
        <ele>1108.800048828125</ele>
        <time>2020-08-10T05:12:51.000Z</time>
      </trkpt>
      <trkpt lat="42.31535729952156543731689453125" lon="2.1058232523500919342041015625">
        <ele>1109</ele>
        <time>2020-08-10T05:12:52.000Z</time>
      </trkpt>
      <trkpt lat="42.31536467559635639190673828125" lon="2.10599818266928195953369140625">
        <ele>1110.199951171875</ele>
        <time>2020-08-10T05:13:00.000Z</time>
      </trkpt>
      <trkpt lat="42.31538839638233184814453125" lon="2.10616766475141048431396484375">
        <ele>1111.199951171875</ele>
        <time>2020-08-10T05:13:08.000Z</time>
      </trkpt>
      <trkpt lat="42.31539107859134674072265625" lon="2.10618912242352962493896484375">
        <ele>1111.199951171875</ele>
        <time>2020-08-10T05:13:09.000Z</time>
      </trkpt>
      <trkpt lat="42.3154110275208950042724609375" lon="2.10632340051233768463134765625">
        <ele>1111.800048828125</ele>
        <time>2020-08-10T05:13:15.000Z</time>
      </trkpt>
      <trkpt lat="42.31542997062206268310546875" lon="2.10638274438679218292236328125">
        <ele>1112.199951171875</ele>
        <time>2020-08-10T05:13:18.000Z</time>
      </trkpt>
      <trkpt lat="42.3154760710895061492919921875" lon="2.1064525656402111053466796875">
        <ele>1112.5999755859375</ele>
        <time>2020-08-10T05:13:22.000Z</time>
      </trkpt>
      <trkpt lat="42.31555779464542865753173828125" lon="2.1064870990812778472900390625">
        <ele>1113.4000244140625</ele>
        <time>2020-08-10T05:13:27.000Z</time>
      </trkpt>
      <trkpt lat="42.31557573191821575164794921875" lon="2.1064874343574047088623046875">
        <ele>1113.5999755859375</ele>
        <time>2020-08-10T05:13:28.000Z</time>
      </trkpt>
      <trkpt lat="42.315653599798679351806640625" lon="2.10646321065723896026611328125">
        <ele>1114.199951171875</ele>
        <time>2020-08-10T05:13:33.000Z</time>
      </trkpt>
      <trkpt lat="42.31566441245377063751220703125" lon="2.10644694976508617401123046875">
        <ele>1114.199951171875</ele>
        <time>2020-08-10T05:13:34.000Z</time>
      </trkpt>
      <trkpt lat="42.31568771414458751678466796875" lon="2.1064160205423831939697265625">
        <ele>1114.5999755859375</ele>
        <time>2020-08-10T05:13:36.000Z</time>
      </trkpt>
      <trkpt lat="42.3157255165278911590576171875" lon="2.1062958240509033203125">
        <ele>1115.199951171875</ele>
        <time>2020-08-10T05:13:42.000Z</time>
      </trkpt>
      <trkpt lat="42.315726019442081451416015625" lon="2.1062064729630947113037109375">
        <ele>1115.800048828125</ele>
        <time>2020-08-10T05:13:46.000Z</time>
      </trkpt>
      <trkpt lat="42.31572895310819149017333984375" lon="2.10614000447094440460205078125">
        <ele>1116</ele>
        <time>2020-08-10T05:13:49.000Z</time>
      </trkpt>
      <trkpt lat="42.3157214932143688201904296875" lon="2.10605216212570667266845703125">
        <ele>1116.800048828125</ele>
        <time>2020-08-10T05:13:53.000Z</time>
      </trkpt>
      <trkpt lat="42.31571587733924388885498046875" lon="2.10599030368030071258544921875">
        <ele>1117</ele>
        <time>2020-08-10T05:13:56.000Z</time>
      </trkpt>
      <trkpt lat="42.31572090648114681243896484375" lon="2.10591754876077175140380859375">
        <ele>1117.4000244140625</ele>
        <time>2020-08-10T05:14:00.000Z</time>
      </trkpt>
      <trkpt lat="42.31571830809116363525390625" lon="2.10589609108865261077880859375">
        <ele>1117.5999755859375</ele>
        <time>2020-08-10T05:14:01.000Z</time>
      </trkpt>
      <trkpt lat="42.31571202166378498077392578125" lon="2.10584965534508228302001953125">
        <ele>1117.800048828125</ele>
        <time>2020-08-10T05:14:03.000Z</time>
      </trkpt>
      <trkpt lat="42.3156836070120334625244140625" lon="2.105759717524051666259765625">
        <ele>1118.199951171875</ele>
        <time>2020-08-10T05:14:07.000Z</time>
      </trkpt>
      <trkpt lat="42.3156705312430858612060546875" lon="2.10560205392539501190185546875">
        <ele>1119</ele>
        <time>2020-08-10T05:14:14.000Z</time>
      </trkpt>
      <trkpt lat="42.31565217487514019012451171875" lon="2.10545000620186328887939453125">
        <ele>1120</ele>
        <time>2020-08-10T05:14:21.000Z</time>
      </trkpt>
      <trkpt lat="42.31564412824809551239013671875" lon="2.105407677590847015380859375">
        <ele>1120.199951171875</ele>
        <time>2020-08-10T05:14:23.000Z</time>
      </trkpt>
      <trkpt lat="42.31562719680368900299072265625" lon="2.10532193072140216827392578125">
        <ele>1120.5999755859375</ele>
        <time>2020-08-10T05:14:27.000Z</time>
      </trkpt>
      <trkpt lat="42.31562216766178607940673828125" lon="2.105236351490020751953125">
        <ele>1121.199951171875</ele>
        <time>2020-08-10T05:14:31.000Z</time>
      </trkpt>
      <trkpt lat="42.31561378575861454010009765625" lon="2.10517474450170993804931640625">
        <ele>1121.5999755859375</ele>
        <time>2020-08-10T05:14:34.000Z</time>
      </trkpt>
      <trkpt lat="42.315594591200351715087890625" lon="2.10502571426331996917724609375">
        <ele>1122.199951171875</ele>
        <time>2020-08-10T05:14:41.000Z</time>
      </trkpt>
      <trkpt lat="42.315589226782321929931640625" lon="2.10496067069470882415771484375">
        <ele>1122.800048828125</ele>
        <time>2020-08-10T05:14:44.000Z</time>
      </trkpt>
      <trkpt lat="42.31557958759367465972900390625" lon="2.104872576892375946044921875">
        <ele>1123.199951171875</ele>
        <time>2020-08-10T05:14:48.000Z</time>
      </trkpt>
      <trkpt lat="42.31557070277631282806396484375" lon="2.10480828769505023956298828125">
        <ele>1123.5999755859375</ele>
        <time>2020-08-10T05:14:51.000Z</time>
      </trkpt>
      <trkpt lat="42.31556768529117107391357421875" lon="2.10474156774580478668212890625">
        <ele>1124.199951171875</ele>
        <time>2020-08-10T05:14:54.000Z</time>
      </trkpt>
      <trkpt lat="42.3155548609793186187744140625" lon="2.10463193245232105255126953125">
        <ele>1124.5999755859375</ele>
        <time>2020-08-10T05:14:59.000Z</time>
      </trkpt>
      <trkpt lat="42.31554262340068817138671875" lon="2.10453839041292667388916015625">
        <ele>1125.4000244140625</ele>
        <time>2020-08-10T05:15:03.000Z</time>
      </trkpt>
      <trkpt lat="42.31553784571588039398193359375" lon="2.1044700779020786285400390625">
        <ele>1125.5999755859375</ele>
        <time>2020-08-10T05:15:06.000Z</time>
      </trkpt>
      <trkpt lat="42.31552158482372760772705078125" lon="2.1043326146900653839111328125">
        <ele>1126.4000244140625</ele>
        <time>2020-08-10T05:15:12.000Z</time>
      </trkpt>
      <trkpt lat="42.315504737198352813720703125" lon="2.1041991747915744781494140625">
        <ele>1127</ele>
        <time>2020-08-10T05:15:18.000Z</time>
      </trkpt>
      <trkpt lat="42.31550104916095733642578125" lon="2.10413186810910701751708984375">
        <ele>1127.5999755859375</ele>
        <time>2020-08-10T05:15:21.000Z</time>
      </trkpt>
      <trkpt lat="42.31549945659935474395751953125" lon="2.1040449477732181549072265625">
        <ele>1128</ele>
        <time>2020-08-10T05:15:25.000Z</time>
      </trkpt>
      <trkpt lat="42.3154857940971851348876953125" lon="2.10395819507539272308349609375">
        <ele>1128.5999755859375</ele>
        <time>2020-08-10T05:15:29.000Z</time>
      </trkpt>
      <trkpt lat="42.31548068113625049591064453125" lon="2.10389382205903530120849609375">
        <ele>1129</ele>
        <time>2020-08-10T05:15:32.000Z</time>
      </trkpt>
      <trkpt lat="42.31546123512089252471923828125" lon="2.10376557894051074981689453125">
        <ele>1129.5999755859375</ele>
        <time>2020-08-10T05:15:38.000Z</time>
      </trkpt>
      <trkpt lat="42.3154552839696407318115234375" lon="2.103726603090763092041015625">
        <ele>1129.800048828125</ele>
        <time>2020-08-10T05:15:40.000Z</time>
      </trkpt>
      <trkpt lat="42.31544463895261287689208984375" lon="2.1036429516971111297607421875">
        <ele>1130.4000244140625</ele>
        <time>2020-08-10T05:15:44.000Z</time>
      </trkpt>
      <trkpt lat="42.3154469020664691925048828125" lon="2.10360615514218807220458984375">
        <ele>1130.4000244140625</ele>
        <time>2020-08-10T05:15:46.000Z</time>
      </trkpt>
      <trkpt lat="42.31544380076229572296142578125" lon="2.10358754731714725494384765625">
        <ele>1130.800048828125</ele>
        <time>2020-08-10T05:15:47.000Z</time>
      </trkpt>
      <trkpt lat="42.3154453933238983154296875" lon="2.10353071801364421844482421875">
        <ele>1131.199951171875</ele>
        <time>2020-08-10T05:15:50.000Z</time>
      </trkpt>
      <trkpt lat="42.3154462315142154693603515625" lon="2.1034847013652324676513671875">
        <ele>1131.4000244140625</ele>
        <time>2020-08-10T05:15:52.000Z</time>
      </trkpt>
      <trkpt lat="42.31544564478099346160888671875" lon="2.10337783209979534149169921875">
        <ele>1131.800048828125</ele>
        <time>2020-08-10T05:15:57.000Z</time>
      </trkpt>
      <trkpt lat="42.31545922346413135528564453125" lon="2.103288061916828155517578125">
        <ele>1132</ele>
        <time>2020-08-10T05:16:01.000Z</time>
      </trkpt>
      <trkpt lat="42.3154829442501068115234375" lon="2.10320030339062213897705078125">
        <ele>1132.800048828125</ele>
        <time>2020-08-10T05:16:05.000Z</time>
      </trkpt>
      <trkpt lat="42.31551446020603179931640625" lon="2.103119753301143646240234375">
        <ele>1133.5999755859375</ele>
        <time>2020-08-10T05:16:09.000Z</time>
      </trkpt>
      <trkpt lat="42.31553365476429462432861328125" lon="2.10306200198829174041748046875">
        <ele>1134</ele>
        <time>2020-08-10T05:16:12.000Z</time>
      </trkpt>
      <trkpt lat="42.31557254679501056671142578125" lon="2.10298673249781131744384765625">
        <ele>1134.5999755859375</ele>
        <time>2020-08-10T05:16:16.000Z</time>
      </trkpt>
      <trkpt lat="42.31560188345611095428466796875" lon="2.1029281429946422576904296875">
        <ele>1135</ele>
        <time>2020-08-10T05:16:19.000Z</time>
      </trkpt>
      <trkpt lat="42.3156544379889965057373046875" lon="2.1028114669024944305419921875">
        <ele>1135.4000244140625</ele>
        <time>2020-08-10T05:16:25.000Z</time>
      </trkpt>
      <trkpt lat="42.315728701651096343994140625" lon="2.1027244627475738525390625">
        <ele>1136</ele>
        <time>2020-08-10T05:16:31.000Z</time>
      </trkpt>
      <trkpt lat="42.315744124352931976318359375" lon="2.102716080844402313232421875">
        <ele>1136</ele>
        <time>2020-08-10T05:16:32.000Z</time>
      </trkpt>
      <trkpt lat="42.3158262670040130615234375" lon="2.10268230177462100982666015625">
        <ele>1136.4000244140625</ele>
        <time>2020-08-10T05:16:38.000Z</time>
      </trkpt>
      <trkpt lat="42.31588720344007015228271484375" lon="2.10268783383071422576904296875">
        <ele>1136.800048828125</ele>
        <time>2020-08-10T05:16:42.000Z</time>
      </trkpt>
      <trkpt lat="42.31593397445976734161376953125" lon="2.1027004905045032501220703125">
        <ele>1137.4000244140625</ele>
        <time>2020-08-10T05:16:45.000Z</time>
      </trkpt>
      <trkpt lat="42.31598996557295322418212890625" lon="2.10272647440433502197265625">
        <ele>1138</ele>
        <time>2020-08-10T05:16:49.000Z</time>
      </trkpt>
      <trkpt lat="42.31601343490183353424072265625" lon="2.1027467586100101470947265625">
        <ele>1138</ele>
        <time>2020-08-10T05:16:51.000Z</time>
      </trkpt>
      <trkpt lat="42.316065318882465362548828125" lon="2.102771066129207611083984375">
        <ele>1138.800048828125</ele>
        <time>2020-08-10T05:16:55.000Z</time>
      </trkpt>
      <trkpt lat="42.3160802386701107025146484375" lon="2.1027646958827972412109375">
        <ele>1139.199951171875</ele>
        <time>2020-08-10T05:16:56.000Z</time>
      </trkpt>
      <trkpt lat="42.31614151038229465484619140625" lon="2.102717421948909759521484375">
        <ele>1139.5999755859375</ele>
        <time>2020-08-10T05:17:00.000Z</time>
      </trkpt>
      <trkpt lat="42.31615928001701831817626953125" lon="2.10270258598029613494873046875">
        <ele>1139.5999755859375</ele>
        <time>2020-08-10T05:17:01.000Z</time>
      </trkpt>
      <trkpt lat="42.31626053340733051300048828125" lon="2.1025807969272136688232421875">
        <ele>1138.4000244140625</ele>
        <time>2020-08-10T05:17:07.000Z</time>
      </trkpt>
      <trkpt lat="42.316283248364925384521484375" lon="2.1025445871055126190185546875">
        <ele>1138</ele>
        <time>2020-08-10T05:17:09.000Z</time>
      </trkpt>
      <trkpt lat="42.31632406823337078094482421875" lon="2.102512232959270477294921875">
        <ele>1137.4000244140625</ele>
        <time>2020-08-10T05:17:11.000Z</time>
      </trkpt>
      <trkpt lat="42.31639020144939422607421875" lon="2.1024721674621105194091796875">
        <ele>1136.800048828125</ele>
        <time>2020-08-10T05:17:13.000Z</time>
      </trkpt>
      <trkpt lat="42.31642783619463443756103515625" lon="2.1024428308010101318359375">
        <ele>1136.4000244140625</ele>
        <time>2020-08-10T05:17:14.000Z</time>
      </trkpt>
      <trkpt lat="42.3165040276944637298583984375" lon="2.102367393672466278076171875">
        <ele>1135.5999755859375</ele>
        <time>2020-08-10T05:17:16.000Z</time>
      </trkpt>
      <trkpt lat="42.31654174625873565673828125" lon="2.10232389159500598907470703125">
        <ele>1134.5999755859375</ele>
        <time>2020-08-10T05:17:17.000Z</time>
      </trkpt>
      <trkpt lat="42.3165772855281829833984375" lon="2.1022770367562770843505859375">
        <ele>1133.4000244140625</ele>
        <time>2020-08-10T05:17:18.000Z</time>
      </trkpt>
      <trkpt lat="42.31663503684103488922119140625" lon="2.10215692408382892608642578125">
        <ele>1131.800048828125</ele>
        <time>2020-08-10T05:17:20.000Z</time>
      </trkpt>
      <trkpt lat="42.31665817089378833770751953125" lon="2.10209255106747150421142578125">
        <ele>1131</ele>
        <time>2020-08-10T05:17:21.000Z</time>
      </trkpt>
      <trkpt lat="42.3166773654520511627197265625" lon="2.10202415473759174346923828125">
        <ele>1129.800048828125</ele>
        <time>2020-08-10T05:17:22.000Z</time>
      </trkpt>
      <trkpt lat="42.31670930050313472747802734375" lon="2.1018700115382671356201171875">
        <ele>1128</ele>
        <time>2020-08-10T05:17:24.000Z</time>
      </trkpt>
      <trkpt lat="42.31672522611916065216064453125" lon="2.1017935685813426971435546875">
        <ele>1127</ele>
        <time>2020-08-10T05:17:25.000Z</time>
      </trkpt>
      <trkpt lat="42.31673662550747394561767578125" lon="2.10171804763376712799072265625">
        <ele>1125.800048828125</ele>
        <time>2020-08-10T05:17:26.000Z</time>
      </trkpt>
      <trkpt lat="42.31674333103001117706298828125" lon="2.10164110176265239715576171875">
        <ele>1125.199951171875</ele>
        <time>2020-08-10T05:17:27.000Z</time>
      </trkpt>
      <trkpt lat="42.31674366630613803863525390625" lon="2.10156641900539398193359375">
        <ele>1124.5999755859375</ele>
        <time>2020-08-10T05:17:28.000Z</time>
      </trkpt>
      <trkpt lat="42.31673754751682281494140625" lon="2.1014445461332798004150390625">
        <ele>1123.5999755859375</ele>
        <time>2020-08-10T05:17:30.000Z</time>
      </trkpt>
      <trkpt lat="42.316732518374919891357421875" lon="2.10140406154096126556396484375">
        <ele>1123</ele>
        <time>2020-08-10T05:17:31.000Z</time>
      </trkpt>
      <trkpt lat="42.316724471747875213623046875" lon="2.101366259157657623291015625">
        <ele>1122.4000244140625</ele>
        <time>2020-08-10T05:17:33.000Z</time>
      </trkpt>
      <trkpt lat="42.3167206160724163055419921875" lon="2.10135854780673980712890625">
        <ele>1122</ele>
        <time>2020-08-10T05:17:35.000Z</time>
      </trkpt>
      <trkpt lat="42.31671885587275028228759765625" lon="2.1013565361499786376953125">
        <ele>1121.800048828125</ele>
        <time>2020-08-10T05:17:41.000Z</time>
      </trkpt>
      <trkpt lat="42.31669689528644084930419921875" lon="2.10131554864346981048583984375">
        <ele>1121.4000244140625</ele>
        <time>2020-08-10T05:18:02.000Z</time>
      </trkpt>
      <trkpt lat="42.31666420586407184600830078125" lon="2.10115143097937107086181640625">
        <ele>1121</ele>
        <time>2020-08-10T05:18:08.000Z</time>
      </trkpt>
      <trkpt lat="42.31671273708343505859375" lon="2.10099552758038043975830078125">
        <ele>1120.5999755859375</ele>
        <time>2020-08-10T05:18:12.000Z</time>
      </trkpt>
      <trkpt lat="42.316730506718158721923828125" lon="2.1009124629199504852294921875">
        <ele>1120.4000244140625</ele>
        <time>2020-08-10T05:18:14.000Z</time>
      </trkpt>
      <trkpt lat="42.316739894449710845947265625" lon="2.10076653398573398590087890625">
        <ele>1120</ele>
        <time>2020-08-10T05:18:17.000Z</time>
      </trkpt>
      <trkpt lat="42.31672287918627262115478515625" lon="2.10064499638974666595458984375">
        <ele>1119.199951171875</ele>
        <time>2020-08-10T05:18:19.000Z</time>
      </trkpt>
      <trkpt lat="42.31667585670948028564453125" lon="2.10053485818207263946533203125">
        <ele>1118</ele>
        <time>2020-08-10T05:18:21.000Z</time>
      </trkpt>
      <trkpt lat="42.31659748591482639312744140625" lon="2.10044651292264461517333984375">
        <ele>1116.4000244140625</ele>
        <time>2020-08-10T05:18:23.000Z</time>
      </trkpt>
      <trkpt lat="42.316554486751556396484375" lon="2.10041306912899017333984375">
        <ele>1116</ele>
        <time>2020-08-10T05:18:24.000Z</time>
      </trkpt>
      <trkpt lat="42.3165182769298553466796875" lon="2.10038985125720500946044921875">
        <ele>1115.800048828125</ele>
        <time>2020-08-10T05:18:25.000Z</time>
      </trkpt>
      <trkpt lat="42.31643177568912506103515625" lon="2.10036554373800754547119140625">
        <ele>1116.199951171875</ele>
        <time>2020-08-10T05:18:29.000Z</time>
      </trkpt>
      <trkpt lat="42.316314764320850372314453125" lon="2.1003431640565395355224609375">
        <ele>1117.5999755859375</ele>
        <time>2020-08-10T05:18:36.000Z</time>
      </trkpt>
      <trkpt lat="42.31621594168245792388916015625" lon="2.1003183536231517791748046875">
        <ele>1118.5999755859375</ele>
        <time>2020-08-10T05:18:42.000Z</time>
      </trkpt>
      <trkpt lat="42.31617034412920475006103515625" lon="2.10028507746756076812744140625">
        <ele>1119</ele>
        <time>2020-08-10T05:18:45.000Z</time>
      </trkpt>
      <trkpt lat="42.3161412589251995086669921875" lon="2.100271247327327728271484375">
        <ele>1119.800048828125</ele>
        <time>2020-08-10T05:18:48.000Z</time>
      </trkpt>
      <trkpt lat="42.31609893031418323516845703125" lon="2.1002455987036228179931640625">
        <ele>1120</ele>
        <time>2020-08-10T05:18:51.000Z</time>
      </trkpt>
      <trkpt lat="42.31608979403972625732421875" lon="2.1002341993153095245361328125">
        <ele>1120.199951171875</ele>
        <time>2020-08-10T05:18:52.000Z</time>
      </trkpt>
      <trkpt lat="42.3160542547702789306640625" lon="2.100193798542022705078125">
        <ele>1121</ele>
        <time>2020-08-10T05:18:55.000Z</time>
      </trkpt>
      <trkpt lat="42.31604176573455333709716796875" lon="2.10017845965921878814697265625">
        <ele>1121.199951171875</ele>
        <time>2020-08-10T05:18:56.000Z</time>
      </trkpt>
      <trkpt lat="42.31592475436627864837646484375" lon="2.10007913410663604736328125">
        <ele>1121.800048828125</ele>
        <time>2020-08-10T05:19:04.000Z</time>
      </trkpt>
      <trkpt lat="42.31591218151152133941650390625" lon="2.100065387785434722900390625">
        <ele>1122</ele>
        <time>2020-08-10T05:19:05.000Z</time>
      </trkpt>
      <trkpt lat="42.31581847183406352996826171875" lon="2.09992356598377227783203125">
        <ele>1122.800048828125</ele>
        <time>2020-08-10T05:19:14.000Z</time>
      </trkpt>
      <trkpt lat="42.31579349376261234283447265625" lon="2.09987553767859935760498046875">
        <ele>1123.4000244140625</ele>
        <time>2020-08-10T05:19:17.000Z</time>
      </trkpt>
      <trkpt lat="42.31576449237763881683349609375" lon="2.09983170032501220703125">
        <ele>1123.800048828125</ele>
        <time>2020-08-10T05:19:20.000Z</time>
      </trkpt>
      <trkpt lat="42.31571185402572154998779296875" lon="2.0997507311403751373291015625">
        <ele>1124.5999755859375</ele>
        <time>2020-08-10T05:19:25.000Z</time>
      </trkpt>
      <trkpt lat="42.31569995172321796417236328125" lon="2.09973589517176151275634765625">
        <ele>1124.800048828125</ele>
        <time>2020-08-10T05:19:26.000Z</time>
      </trkpt>
      <trkpt lat="42.31564077548682689666748046875" lon="2.09966615773737430572509765625">
        <ele>1125.5999755859375</ele>
        <time>2020-08-10T05:19:31.000Z</time>
      </trkpt>
      <trkpt lat="42.31563373468816280364990234375" lon="2.0996506512165069580078125">
        <ele>1125.800048828125</ele>
        <time>2020-08-10T05:19:32.000Z</time>
      </trkpt>
      <trkpt lat="42.31562736444175243377685546875" lon="2.0996193028986454010009765625">
        <ele>1126.199951171875</ele>
        <time>2020-08-10T05:19:34.000Z</time>
      </trkpt>
      <trkpt lat="42.3156197369098663330078125" lon="2.099565826356410980224609375">
        <ele>1126.5999755859375</ele>
        <time>2020-08-10T05:19:37.000Z</time>
      </trkpt>
      <trkpt lat="42.315573133528232574462890625" lon="2.099488042294979095458984375">
        <ele>1127.4000244140625</ele>
        <time>2020-08-10T05:19:42.000Z</time>
      </trkpt>
      <trkpt lat="42.3155498318374156951904296875" lon="2.09945493377745151519775390625">
        <ele>1127.800048828125</ele>
        <time>2020-08-10T05:19:44.000Z</time>
      </trkpt>
      <trkpt lat="42.31555745936930179595947265625" lon="2.099422328174114227294921875">
        <ele>1128.4000244140625</ele>
        <time>2020-08-10T05:19:46.000Z</time>
      </trkpt>
      <trkpt lat="42.31558025814592838287353515625" lon="2.099355272948741912841796875">
        <ele>1129</ele>
        <time>2020-08-10T05:19:50.000Z</time>
      </trkpt>
      <trkpt lat="42.31559450738131999969482421875" lon="2.09932467900216579437255859375">
        <ele>1129.5999755859375</ele>
        <time>2020-08-10T05:19:52.000Z</time>
      </trkpt>
      <trkpt lat="42.315635494887828826904296875" lon="2.09927849471569061279296875">
        <ele>1130.199951171875</ele>
        <time>2020-08-10T05:19:56.000Z</time>
      </trkpt>
      <trkpt lat="42.31564748100936412811279296875" lon="2.09928176365792751312255859375">
        <ele>1130.199951171875</ele>
        <time>2020-08-10T05:19:57.000Z</time>
      </trkpt>
      <trkpt lat="42.31565351597964763641357421875" lon="2.09929190576076507568359375">
        <ele>1130.5999755859375</ele>
        <time>2020-08-10T05:19:58.000Z</time>
      </trkpt>
      <trkpt lat="42.31567832641303539276123046875" lon="2.099352590739727020263671875">
        <ele>1131.4000244140625</ele>
        <time>2020-08-10T05:20:02.000Z</time>
      </trkpt>
      <trkpt lat="42.31568972580134868621826171875" lon="2.09936055354773998260498046875">
        <ele>1131.5999755859375</ele>
        <time>2020-08-10T05:20:03.000Z</time>
      </trkpt>
      <trkpt lat="42.3157017119228839874267578125" lon="2.0993636548519134521484375">
        <ele>1131.800048828125</ele>
        <time>2020-08-10T05:20:04.000Z</time>
      </trkpt>
      <trkpt lat="42.31574018485844135284423828125" lon="2.09937681443989276885986328125">
        <ele>1132.4000244140625</ele>
        <time>2020-08-10T05:20:07.000Z</time>
      </trkpt>
      <trkpt lat="42.3157473094761371612548828125" lon="2.09938938729465007781982421875">
        <ele>1132.5999755859375</ele>
        <time>2020-08-10T05:20:08.000Z</time>
      </trkpt>
      <trkpt lat="42.3157538473606109619140625" lon="2.0994253456592559814453125">
        <ele>1133.199951171875</ele>
        <time>2020-08-10T05:20:10.000Z</time>
      </trkpt>
      <trkpt lat="42.31577052734792232513427734375" lon="2.0994774810969829559326171875">
        <ele>1133.800048828125</ele>
        <time>2020-08-10T05:20:13.000Z</time>
      </trkpt>
      <trkpt lat="42.31578159146010875701904296875" lon="2.099485360085964202880859375">
        <ele>1134</ele>
        <time>2020-08-10T05:20:14.000Z</time>
      </trkpt>
      <trkpt lat="42.3158073239028453826904296875" lon="2.09948628209531307220458984375">
        <ele>1134.199951171875</ele>
        <time>2020-08-10T05:20:16.000Z</time>
      </trkpt>
      <trkpt lat="42.3158492334187030792236328125" lon="2.09948929958045482635498046875">
        <ele>1134.5999755859375</ele>
        <time>2020-08-10T05:20:19.000Z</time>
      </trkpt>
      <trkpt lat="42.31585853733122348785400390625" lon="2.09949818439781665802001953125">
        <ele>1134.800048828125</ele>
        <time>2020-08-10T05:20:20.000Z</time>
      </trkpt>
      <trkpt lat="42.31586515903472900390625" lon="2.0995069853961467742919921875">
        <ele>1134.800048828125</ele>
        <time>2020-08-10T05:20:21.000Z</time>
      </trkpt>
      <trkpt lat="42.31588602997362613677978515625" lon="2.09952400065958499908447265625">
        <ele>1135.800048828125</ele>
        <time>2020-08-10T05:20:24.000Z</time>
      </trkpt>
      <trkpt lat="42.31589893810451030731201171875" lon="2.09952986799180507659912109375">
        <ele>1136.199951171875</ele>
        <time>2020-08-10T05:20:25.000Z</time>
      </trkpt>
      <trkpt lat="42.31591385789215564727783203125" lon="2.09953120909631252288818359375">
        <ele>1136.4000244140625</ele>
        <time>2020-08-10T05:20:26.000Z</time>
      </trkpt>
      <trkpt lat="42.31595970690250396728515625" lon="2.0995053090155124664306640625">
        <ele>1137</ele>
        <time>2020-08-10T05:20:30.000Z</time>
      </trkpt>
      <trkpt lat="42.31596884317696094512939453125" lon="2.09947337396442890167236328125">
        <ele>1137.199951171875</ele>
        <time>2020-08-10T05:20:32.000Z</time>
      </trkpt>
      <trkpt lat="42.316009663045406341552734375" lon="2.09939139895141124725341796875">
        <ele>1138.199951171875</ele>
        <time>2020-08-10T05:20:38.000Z</time>
      </trkpt>
      <trkpt lat="42.3160416819155216217041015625" lon="2.09936206229031085968017578125">
        <ele>1138.800048828125</ele>
        <time>2020-08-10T05:20:41.000Z</time>
      </trkpt>
      <trkpt lat="42.31606339104473590850830078125" lon="2.0993443764746189117431640625">
        <ele>1139.4000244140625</ele>
        <time>2020-08-10T05:20:43.000Z</time>
      </trkpt>
      <trkpt lat="42.316075377166271209716796875" lon="2.09933725185692310333251953125">
        <ele>1139.4000244140625</ele>
        <time>2020-08-10T05:20:44.000Z</time>
      </trkpt>
      <trkpt lat="42.31611954979598522186279296875" lon="2.09928461350500583648681640625">
        <ele>1140.4000244140625</ele>
        <time>2020-08-10T05:20:49.000Z</time>
      </trkpt>
      <trkpt lat="42.316166572272777557373046875" lon="2.09928779862821102142333984375">
        <ele>1141.199951171875</ele>
        <time>2020-08-10T05:20:54.000Z</time>
      </trkpt>
      <trkpt lat="42.31619230471551418304443359375" lon="2.09929333068430423736572265625">
        <ele>1141.5999755859375</ele>
        <time>2020-08-10T05:20:56.000Z</time>
      </trkpt>
      <trkpt lat="42.316256426274776458740234375" lon="2.09927757270634174346923828125">
        <ele>1142.199951171875</ele>
        <time>2020-08-10T05:21:01.000Z</time>
      </trkpt>
      <trkpt lat="42.316264472901821136474609375" lon="2.099270783364772796630859375">
        <ele>1142.5999755859375</ele>
        <time>2020-08-10T05:21:02.000Z</time>
      </trkpt>
      <trkpt lat="42.3162693344056606292724609375" lon="2.0992739684879779815673828125">
        <ele>1142.800048828125</ele>
        <time>2020-08-10T05:21:03.000Z</time>
      </trkpt>
      <trkpt lat="42.31628484092652797698974609375" lon="2.09929701872169971466064453125">
        <ele>1143.199951171875</ele>
        <time>2020-08-10T05:21:06.000Z</time>
      </trkpt>
      <trkpt lat="42.3163021914660930633544921875" lon="2.09931059740483760833740234375">
        <ele>1143.4000244140625</ele>
        <time>2020-08-10T05:21:08.000Z</time>
      </trkpt>
      <trkpt lat="42.31631183065474033355712890625" lon="2.09931193850934505462646484375">
        <ele>1143.5999755859375</ele>
        <time>2020-08-10T05:21:09.000Z</time>
      </trkpt>
      <trkpt lat="42.31632205657660961151123046875" lon="2.09931604564189910888671875">
        <ele>1144</ele>
        <time>2020-08-10T05:21:10.000Z</time>
      </trkpt>
      <trkpt lat="42.316346280276775360107421875" lon="2.0993220806121826171875">
        <ele>1144.199951171875</ele>
        <time>2020-08-10T05:21:12.000Z</time>
      </trkpt>
      <trkpt lat="42.316377460956573486328125" lon="2.09935602732002735137939453125">
        <ele>1144.5999755859375</ele>
        <time>2020-08-10T05:21:16.000Z</time>
      </trkpt>
      <trkpt lat="42.31639062054455280303955078125" lon="2.09935938008129596710205078125">
        <ele>1144.800048828125</ele>
        <time>2020-08-10T05:21:17.000Z</time>
      </trkpt>
      <trkpt lat="42.3164431750774383544921875" lon="2.09934731014072895050048828125">
        <ele>1145.5999755859375</ele>
        <time>2020-08-10T05:21:21.000Z</time>
      </trkpt>
      <trkpt lat="42.316456250846385955810546875" lon="2.099351920187473297119140625">
        <ele>1145.800048828125</ele>
        <time>2020-08-10T05:21:22.000Z</time>
      </trkpt>
      <trkpt lat="42.31646664440631866455078125" lon="2.099360637366771697998046875">
        <ele>1146</ele>
        <time>2020-08-10T05:21:23.000Z</time>
      </trkpt>
      <trkpt lat="42.31649480760097503662109375" lon="2.0994038879871368408203125">
        <ele>1146.5999755859375</ele>
        <time>2020-08-10T05:21:26.000Z</time>
      </trkpt>
      <trkpt lat="42.3165046982467174530029296875" lon="2.099429033696651458740234375">
        <ele>1147</ele>
        <time>2020-08-10T05:21:28.000Z</time>
      </trkpt>
      <trkpt lat="42.31654702685773372650146484375" lon="2.099426351487636566162109375">
        <ele>1147.4000244140625</ele>
        <time>2020-08-10T05:21:31.000Z</time>
      </trkpt>
      <trkpt lat="42.31659270823001861572265625" lon="2.0994184724986553192138671875">
        <ele>1148</ele>
        <time>2020-08-10T05:21:34.000Z</time>
      </trkpt>
      <trkpt lat="42.31664056889712810516357421875" lon="2.0994245074689388275146484375">
        <ele>1148.199951171875</ele>
        <time>2020-08-10T05:21:37.000Z</time>
      </trkpt>
      <trkpt lat="42.3166522197425365447998046875" lon="2.09942492656409740447998046875">
        <ele>1148.4000244140625</ele>
        <time>2020-08-10T05:21:38.000Z</time>
      </trkpt>
      <trkpt lat="42.31665976345539093017578125" lon="2.09942861460149288177490234375">
        <ele>1149</ele>
        <time>2020-08-10T05:21:40.000Z</time>
      </trkpt>
      <trkpt lat="42.316662110388278961181640625" lon="2.0994281955063343048095703125">
        <ele>1149.5999755859375</ele>
        <time>2020-08-10T05:21:44.000Z</time>
      </trkpt>
      <trkpt lat="42.316686250269412994384765625" lon="2.09940179251134395599365234375">
        <ele>1149.4000244140625</ele>
        <time>2020-08-10T05:21:55.000Z</time>
      </trkpt>
      <trkpt lat="42.3167569935321807861328125" lon="2.09936122409999370574951171875">
        <ele>1150.199951171875</ele>
        <time>2020-08-10T05:22:01.000Z</time>
      </trkpt>
      <trkpt lat="42.31679446063935756683349609375" lon="2.0993410237133502960205078125">
        <ele>1150.5999755859375</ele>
        <time>2020-08-10T05:22:04.000Z</time>
      </trkpt>
      <trkpt lat="42.31684357859194278717041015625" lon="2.09930623881518840789794921875">
        <ele>1151.4000244140625</ele>
        <time>2020-08-10T05:22:08.000Z</time>
      </trkpt>
      <trkpt lat="42.3169063590466976165771484375" lon="2.0992769859731197357177734375">
        <ele>1152.199951171875</ele>
        <time>2020-08-10T05:22:13.000Z</time>
      </trkpt>
      <trkpt lat="42.31693267822265625" lon="2.099274806678295135498046875">
        <ele>1152.4000244140625</ele>
        <time>2020-08-10T05:22:15.000Z</time>
      </trkpt>
      <trkpt lat="42.31698523275554180145263671875" lon="2.09925946779549121856689453125">
        <ele>1153.199951171875</ele>
        <time>2020-08-10T05:22:19.000Z</time>
      </trkpt>
      <trkpt lat="42.317004762589931488037109375" lon="2.09923801012337207794189453125">
        <ele>1153.4000244140625</ele>
        <time>2020-08-10T05:22:21.000Z</time>
      </trkpt>
      <trkpt lat="42.31705497018992900848388671875" lon="2.09917950443923473358154296875">
        <ele>1154.199951171875</ele>
        <time>2020-08-10T05:22:26.000Z</time>
      </trkpt>
      <trkpt lat="42.31706804595887660980224609375" lon="2.09917967207729816436767578125">
        <ele>1154.4000244140625</ele>
        <time>2020-08-10T05:22:27.000Z</time>
      </trkpt>
      <trkpt lat="42.317134179174900054931640625" lon="2.0991945080459117889404296875">
        <ele>1155.199951171875</ele>
        <time>2020-08-10T05:22:32.000Z</time>
      </trkpt>
      <trkpt lat="42.31716913171112537384033203125" lon="2.09917212836444377899169921875">
        <ele>1155.5999755859375</ele>
        <time>2020-08-10T05:22:35.000Z</time>
      </trkpt>
      <trkpt lat="42.31719478033483028411865234375" lon="2.09913256578147411346435546875">
        <ele>1156.199951171875</ele>
        <time>2020-08-10T05:22:38.000Z</time>
      </trkpt>
      <trkpt lat="42.3172060959041118621826171875" lon="2.0991251058876514434814453125">
        <ele>1156.199951171875</ele>
        <time>2020-08-10T05:22:39.000Z</time>
      </trkpt>
      <trkpt lat="42.31724406592547893524169921875" lon="2.09912971593439579010009765625">
        <ele>1156.5999755859375</ele>
        <time>2020-08-10T05:22:42.000Z</time>
      </trkpt>
      <trkpt lat="42.31726887635886669158935546875" lon="2.09913005121052265167236328125">
        <ele>1157</ele>
        <time>2020-08-10T05:22:44.000Z</time>
      </trkpt>
      <trkpt lat="42.31731832958757877349853515625" lon="2.09911412559449672698974609375">
        <ele>1157.5999755859375</ele>
        <time>2020-08-10T05:22:48.000Z</time>
      </trkpt>
      <trkpt lat="42.3173676989972591400146484375" lon="2.0990644209086894989013671875">
        <ele>1158.5999755859375</ele>
        <time>2020-08-10T05:22:53.000Z</time>
      </trkpt>
      <trkpt lat="42.31737792491912841796875" lon="2.099054865539073944091796875">
        <ele>1158.5999755859375</ele>
        <time>2020-08-10T05:22:54.000Z</time>
      </trkpt>
      <trkpt lat="42.31744028627872467041015625" lon="2.0990047417581081390380859375">
        <ele>1159.800048828125</ele>
        <time>2020-08-10T05:23:00.000Z</time>
      </trkpt>
      <trkpt lat="42.317461408674716949462890625" lon="2.09899761714041233062744140625">
        <ele>1160.199951171875</ele>
        <time>2020-08-10T05:23:02.000Z</time>
      </trkpt>
      <trkpt lat="42.3174726404249668121337890625" lon="2.098993845283985137939453125">
        <ele>1160.199951171875</ele>
        <time>2020-08-10T05:23:03.000Z</time>
      </trkpt>
      <trkpt lat="42.31748965568840503692626953125" lon="2.09897339344024658203125">
        <ele>1160.800048828125</ele>
        <time>2020-08-10T05:23:05.000Z</time>
      </trkpt>
      <trkpt lat="42.31749669648706912994384765625" lon="2.09894330240786075592041015625">
        <ele>1161</ele>
        <time>2020-08-10T05:23:07.000Z</time>
      </trkpt>
      <trkpt lat="42.31750172562897205352783203125" lon="2.098928801715373992919921875">
        <ele>1161.199951171875</ele>
        <time>2020-08-10T05:23:08.000Z</time>
      </trkpt>
      <trkpt lat="42.317529805004596710205078125" lon="2.0988810248672962188720703125">
        <ele>1161.800048828125</ele>
        <time>2020-08-10T05:23:12.000Z</time>
      </trkpt>
      <trkpt lat="42.317537851631641387939453125" lon="2.09886853583157062530517578125">
        <ele>1161.800048828125</ele>
        <time>2020-08-10T05:23:13.000Z</time>
      </trkpt>
      <trkpt lat="42.317570038139820098876953125" lon="2.09884691052138805389404296875">
        <ele>1162.199951171875</ele>
        <time>2020-08-10T05:23:16.000Z</time>
      </trkpt>
      <trkpt lat="42.31759325601160526275634765625" lon="2.09884121082723140716552734375">
        <ele>1162.5999755859375</ele>
        <time>2020-08-10T05:23:18.000Z</time>
      </trkpt>
      <trkpt lat="42.3176194913685321807861328125" lon="2.09882461465895175933837890625">
        <ele>1163</ele>
        <time>2020-08-10T05:23:21.000Z</time>
      </trkpt>
      <trkpt lat="42.3176191560924053192138671875" lon="2.09882344119250774383544921875">
        <ele>1163.199951171875</ele>
        <time>2020-08-10T05:23:23.000Z</time>
      </trkpt>
      <trkpt lat="42.3176158033311367034912109375" lon="2.09882277064025402069091796875">
        <ele>1163.4000244140625</ele>
        <time>2020-08-10T05:23:35.000Z</time>
      </trkpt>
      <trkpt lat="42.31761672534048557281494140625" lon="2.09881908260285854339599609375">
        <ele>1163.199951171875</ele>
        <time>2020-08-10T05:23:45.000Z</time>
      </trkpt>
      <trkpt lat="42.3176168091595172882080078125" lon="2.09881958551704883575439453125">
        <ele>1163</ele>
        <time>2020-08-10T05:23:50.000Z</time>
      </trkpt>
      <trkpt lat="42.31761823408305644989013671875" lon="2.098821513354778289794921875">
        <ele>1162.5999755859375</ele>
        <time>2020-08-10T05:23:54.000Z</time>
      </trkpt>
      <trkpt lat="42.31761689297854900360107421875" lon="2.09882461465895175933837890625">
        <ele>1163.199951171875</ele>
        <time>2020-08-10T05:23:58.000Z</time>
      </trkpt>
      <trkpt lat="42.317622341215610504150390625" lon="2.09881522692739963531494140625">
        <ele>1163.4000244140625</ele>
        <time>2020-08-10T05:25:36.000Z</time>
      </trkpt>
      <trkpt lat="42.3176221735775470733642578125" lon="2.0988138020038604736328125">
        <ele>1160.5999755859375</ele>
        <time>2020-08-10T05:25:55.000Z</time>
      </trkpt>
      <trkpt lat="42.31762141920626163482666015625" lon="2.0988146401941776275634765625">
        <ele>1163.4000244140625</ele>
        <time>2020-08-10T05:26:07.000Z</time>
      </trkpt>
      <trkpt lat="42.31762561015784740447998046875" lon="2.0988086052238941192626953125">
        <ele>1163.5999755859375</ele>
        <time>2020-08-10T05:26:18.000Z</time>
      </trkpt>
      <trkpt lat="42.31761731207370758056640625" lon="2.098792009055614471435546875">
        <ele>1163.4000244140625</ele>
        <time>2020-08-10T05:26:30.000Z</time>
      </trkpt>
      <trkpt lat="42.31762343086302280426025390625" lon="2.098794691264629364013671875">
        <ele>1163.199951171875</ele>
        <time>2020-08-10T05:26:43.000Z</time>
      </trkpt>
      <trkpt lat="42.317623682320117950439453125" lon="2.09879494272172451019287109375">
        <ele>1163.4000244140625</ele>
        <time>2020-08-10T05:27:13.000Z</time>
      </trkpt>
      <trkpt lat="42.3176238499581813812255859375" lon="2.098795361816883087158203125">
        <ele>1163.4000244140625</ele>
        <time>2020-08-10T05:27:35.000Z</time>
      </trkpt>
      <trkpt lat="42.31762393377721309661865234375" lon="2.09879527799785137176513671875">
        <ele>1163.4000244140625</ele>
        <time>2020-08-10T05:27:36.000Z</time>
      </trkpt>
      <trkpt lat="42.3176396079361438751220703125" lon="2.09878052584826946258544921875">
        <ele>1163.4000244140625</ele>
        <time>2020-08-10T05:27:39.000Z</time>
      </trkpt>
      <trkpt lat="42.31767171062529087066650390625" lon="2.0987620018422603607177734375">
        <ele>1163.5999755859375</ele>
        <time>2020-08-10T05:27:42.000Z</time>
      </trkpt>
      <trkpt lat="42.31769216246902942657470703125" lon="2.098747752606868743896484375">
        <ele>1163.800048828125</ele>
        <time>2020-08-10T05:27:44.000Z</time>
      </trkpt>
      <trkpt lat="42.31770238839089870452880859375" lon="2.098743058741092681884765625">
        <ele>1163.800048828125</ele>
        <time>2020-08-10T05:27:45.000Z</time>
      </trkpt>
      <trkpt lat="42.31771781109273433685302734375" lon="2.098724953830242156982421875">
        <ele>1164.199951171875</ele>
        <time>2020-08-10T05:27:47.000Z</time>
      </trkpt>
      <trkpt lat="42.31772669591009616851806640625" lon="2.09871682338416576385498046875">
        <ele>1164.199951171875</ele>
        <time>2020-08-10T05:27:48.000Z</time>
      </trkpt>
      <trkpt lat="42.3177536018192768096923828125" lon="2.09869109094142913818359375">
        <ele>1164.5999755859375</ele>
        <time>2020-08-10T05:27:51.000Z</time>
      </trkpt>
      <trkpt lat="42.31776391156017780303955078125" lon="2.09868346340954303741455078125">
        <ele>1164.800048828125</ele>
        <time>2020-08-10T05:27:52.000Z</time>
      </trkpt>
      <trkpt lat="42.3177723772823810577392578125" lon="2.098671309649944305419921875">
        <ele>1165</ele>
        <time>2020-08-10T05:27:53.000Z</time>
      </trkpt>
      <trkpt lat="42.31782945804297924041748046875" lon="2.09860266186296939849853515625">
        <ele>1165.800048828125</ele>
        <time>2020-08-10T05:27:59.000Z</time>
      </trkpt>
      <trkpt lat="42.31785711832344532012939453125" lon="2.0985710620880126953125">
        <ele>1166.199951171875</ele>
        <time>2020-08-10T05:28:02.000Z</time>
      </trkpt>
      <trkpt lat="42.31786533258855342864990234375" lon="2.09855941124260425567626953125">
        <ele>1166.4000244140625</ele>
        <time>2020-08-10T05:28:03.000Z</time>
      </trkpt>
      <trkpt lat="42.317886538803577423095703125" lon="2.09851674735546112060546875">
        <ele>1166.800048828125</ele>
        <time>2020-08-10T05:28:06.000Z</time>
      </trkpt>
      <trkpt lat="42.31789416633546352386474609375" lon="2.098500989377498626708984375">
        <ele>1166.800048828125</ele>
        <time>2020-08-10T05:28:07.000Z</time>
      </trkpt>
      <trkpt lat="42.3179447092115879058837890625" lon="2.0984344370663166046142578125">
        <ele>1168</ele>
        <time>2020-08-10T05:28:13.000Z</time>
      </trkpt>
      <trkpt lat="42.31795535422861576080322265625" lon="2.09842421114444732666015625">
        <ele>1168</ele>
        <time>2020-08-10T05:28:14.000Z</time>
      </trkpt>
      <trkpt lat="42.31797404587268829345703125" lon="2.09840543568134307861328125">
        <ele>1168.4000244140625</ele>
        <time>2020-08-10T05:28:16.000Z</time>
      </trkpt>
      <trkpt lat="42.31801402755081653594970703125" lon="2.09837920032441616058349609375">
        <ele>1169</ele>
        <time>2020-08-10T05:28:20.000Z</time>
      </trkpt>
      <trkpt lat="42.31802911497652530670166015625" lon="2.09835237823426723480224609375">
        <ele>1169</ele>
        <time>2020-08-10T05:28:22.000Z</time>
      </trkpt>
      <trkpt lat="42.318043448030948638916015625" lon="2.09832220338284969329833984375">
        <ele>1169.4000244140625</ele>
        <time>2020-08-10T05:28:24.000Z</time>
      </trkpt>
      <trkpt lat="42.31806901283562183380126953125" lon="2.0982835628092288970947265625">
        <ele>1169.800048828125</ele>
        <time>2020-08-10T05:28:27.000Z</time>
      </trkpt>
      <trkpt lat="42.3181007802486419677734375" lon="2.09826470352709293365478515625">
        <ele>1170.199951171875</ele>
        <time>2020-08-10T05:28:30.000Z</time>
      </trkpt>
      <trkpt lat="42.31814973056316375732421875" lon="2.09821793250739574432373046875">
        <ele>1170.800048828125</ele>
        <time>2020-08-10T05:28:35.000Z</time>
      </trkpt>
      <trkpt lat="42.31817378662526607513427734375" lon="2.0981816388666629791259765625">
        <ele>1171.199951171875</ele>
        <time>2020-08-10T05:28:38.000Z</time>
      </trkpt>
      <trkpt lat="42.31821938417851924896240234375" lon="2.098134197294712066650390625">
        <ele>1172.199951171875</ele>
        <time>2020-08-10T05:28:43.000Z</time>
      </trkpt>
      <trkpt lat="42.31822751462459564208984375" lon="2.09812137298285961151123046875">
        <ele>1172.199951171875</ele>
        <time>2020-08-10T05:28:44.000Z</time>
      </trkpt>
      <trkpt lat="42.318282164633274078369140625" lon="2.0980654656887054443359375">
        <ele>1173</ele>
        <time>2020-08-10T05:28:50.000Z</time>
      </trkpt>
      <trkpt lat="42.31830370612442493438720703125" lon="2.09805867634713649749755859375">
        <ele>1173.199951171875</ele>
        <time>2020-08-10T05:28:52.000Z</time>
      </trkpt>
      <trkpt lat="42.31832533143460750579833984375" lon="2.0980542339384555816650390625">
        <ele>1173.4000244140625</ele>
        <time>2020-08-10T05:28:54.000Z</time>
      </trkpt>
      <trkpt lat="42.31836942024528980255126953125" lon="2.09803705103695392608642578125">
        <ele>1174.199951171875</ele>
        <time>2020-08-10T05:28:58.000Z</time>
      </trkpt>
      <trkpt lat="42.318378724157810211181640625" lon="2.09802590310573577880859375">
        <ele>1174.199951171875</ele>
        <time>2020-08-10T05:28:59.000Z</time>
      </trkpt>
      <trkpt lat="42.31839640997350215911865234375" lon="2.09800436161458492279052734375">
        <ele>1174.4000244140625</ele>
        <time>2020-08-10T05:29:01.000Z</time>
      </trkpt>
      <trkpt lat="42.318452484905719757080078125" lon="2.0979751087725162506103515625">
        <ele>1175.4000244140625</ele>
        <time>2020-08-10T05:29:06.000Z</time>
      </trkpt>
      <trkpt lat="42.31846312992274761199951171875" lon="2.0979791320860385894775390625">
        <ele>1175.4000244140625</ele>
        <time>2020-08-10T05:29:07.000Z</time>
      </trkpt>
      <trkpt lat="42.31853169389069080352783203125" lon="2.09799715317785739898681640625">
        <ele>1176.4000244140625</ele>
        <time>2020-08-10T05:29:13.000Z</time>
      </trkpt>
      <trkpt lat="42.31854141689836978912353515625" lon="2.09799346514046192169189453125">
        <ele>1176.4000244140625</ele>
        <time>2020-08-10T05:29:14.000Z</time>
      </trkpt>
      <trkpt lat="42.31861283071339130401611328125" lon="2.0979596860706806182861328125">
        <ele>1177.5999755859375</ele>
        <time>2020-08-10T05:29:21.000Z</time>
      </trkpt>
      <trkpt lat="42.31862322427332401275634765625" lon="2.09795775823295116424560546875">
        <ele>1177.800048828125</ele>
        <time>2020-08-10T05:29:22.000Z</time>
      </trkpt>
      <trkpt lat="42.31865524314343929290771484375" lon="2.09799480624496936798095703125">
        <ele>1178.199951171875</ele>
        <time>2020-08-10T05:29:26.000Z</time>
      </trkpt>
      <trkpt lat="42.31867334805428981781005859375" lon="2.0980099774897098541259765625">
        <ele>1178.800048828125</ele>
        <time>2020-08-10T05:29:28.000Z</time>
      </trkpt>
      <trkpt lat="42.318723388016223907470703125" lon="2.09800855256617069244384765625">
        <ele>1179.4000244140625</ele>
        <time>2020-08-10T05:29:32.000Z</time>
      </trkpt>
      <trkpt lat="42.31874543242156505584716796875" lon="2.098005115985870361328125">
        <ele>1179.4000244140625</ele>
        <time>2020-08-10T05:29:34.000Z</time>
      </trkpt>
      <trkpt lat="42.318755574524402618408203125" lon="2.098006792366504669189453125">
        <ele>1179.5999755859375</ele>
        <time>2020-08-10T05:29:35.000Z</time>
      </trkpt>
      <trkpt lat="42.3187651298940181732177734375" lon="2.09801249206066131591796875">
        <ele>1179.800048828125</ele>
        <time>2020-08-10T05:29:36.000Z</time>
      </trkpt>
      <trkpt lat="42.3187926225364208221435546875" lon="2.09802716039121150970458984375">
        <ele>1180.199951171875</ele>
        <time>2020-08-10T05:29:39.000Z</time>
      </trkpt>
      <trkpt lat="42.3188100568950176239013671875" lon="2.09803529083728790283203125">
        <ele>1180.5999755859375</ele>
        <time>2020-08-10T05:29:41.000Z</time>
      </trkpt>
      <trkpt lat="42.3188204504549503326416015625" lon="2.098037637770175933837890625">
        <ele>1180.800048828125</ele>
        <time>2020-08-10T05:29:42.000Z</time>
      </trkpt>
      <trkpt lat="42.3188469372689723968505859375" lon="2.09802187979221343994140625">
        <ele>1181.5999755859375</ele>
        <time>2020-08-10T05:29:45.000Z</time>
      </trkpt>
      <trkpt lat="42.31885607354342937469482421875" lon="2.09802062250673770904541015625">
        <ele>1181.800048828125</ele>
        <time>2020-08-10T05:29:46.000Z</time>
      </trkpt>
      <trkpt lat="42.318866215646266937255859375" lon="2.09802447818219661712646484375">
        <ele>1182</ele>
        <time>2020-08-10T05:29:47.000Z</time>
      </trkpt>
      <trkpt lat="42.318908460438251495361328125" lon="2.09804627113044261932373046875">
        <ele>1182.5999755859375</ele>
        <time>2020-08-10T05:29:51.000Z</time>
      </trkpt>
      <trkpt lat="42.31891575269401073455810546875" lon="2.09804945625364780426025390625">
        <ele>1182.800048828125</ele>
        <time>2020-08-10T05:29:52.000Z</time>
      </trkpt>
      <trkpt lat="42.31893830001354217529296875" lon="2.09804409183561801910400390625">
        <ele>1183</ele>
        <time>2020-08-10T05:29:54.000Z</time>
      </trkpt>
      <trkpt lat="42.3189683072268962860107421875" lon="2.09804476238787174224853515625">
        <ele>1183.4000244140625</ele>
        <time>2020-08-10T05:29:56.000Z</time>
      </trkpt>
      <trkpt lat="42.3190159164369106292724609375" lon="2.09807108156383037567138671875">
        <ele>1184.199951171875</ele>
        <time>2020-08-10T05:30:01.000Z</time>
      </trkpt>
      <trkpt lat="42.3190330155193805694580078125" lon="2.0980830676853656768798828125">
        <ele>1184.4000244140625</ele>
        <time>2020-08-10T05:30:03.000Z</time>
      </trkpt>
      <trkpt lat="42.31905321590602397918701171875" lon="2.0980837382376194000244140625">
        <ele>1185</ele>
        <time>2020-08-10T05:30:06.000Z</time>
      </trkpt>
      <trkpt lat="42.31907148845493793487548828125" lon="2.09808885119855403900146484375">
        <ele>1185.199951171875</ele>
        <time>2020-08-10T05:30:08.000Z</time>
      </trkpt>
      <trkpt lat="42.3191419802606105804443359375" lon="2.0981095544993877410888671875">
        <ele>1185.800048828125</ele>
        <time>2020-08-10T05:30:14.000Z</time>
      </trkpt>
      <trkpt lat="42.31918917037546634674072265625" lon="2.09811843931674957275390625">
        <ele>1186.199951171875</ele>
        <time>2020-08-10T05:30:19.000Z</time>
      </trkpt>
      <trkpt lat="42.3192003183066844940185546875" lon="2.0981186069548130035400390625">
        <ele>1186.5999755859375</ele>
        <time>2020-08-10T05:30:20.000Z</time>
      </trkpt>
      <trkpt lat="42.3192365281283855438232421875" lon="2.098108716309070587158203125">
        <ele>1187.4000244140625</ele>
        <time>2020-08-10T05:30:23.000Z</time>
      </trkpt>
      <trkpt lat="42.31925823725759983062744140625" lon="2.098090946674346923828125">
        <ele>1187.800048828125</ele>
        <time>2020-08-10T05:30:25.000Z</time>
      </trkpt>
      <trkpt lat="42.31927089393138885498046875" lon="2.0980538986623287200927734375">
        <ele>1188.199951171875</ele>
        <time>2020-08-10T05:30:28.000Z</time>
      </trkpt>
      <trkpt lat="42.31926796026527881622314453125" lon="2.0980305969715118408203125">
        <ele>1188.199951171875</ele>
        <time>2020-08-10T05:30:30.000Z</time>
      </trkpt>
      <trkpt lat="42.3192556388676166534423828125" lon="2.09796044044196605682373046875">
        <ele>1188</ele>
        <time>2020-08-10T05:30:36.000Z</time>
      </trkpt>
      <trkpt lat="42.31926293112337589263916015625" lon="2.09787477739155292510986328125">
        <ele>1188</ele>
        <time>2020-08-10T05:30:42.000Z</time>
      </trkpt>
      <trkpt lat="42.3192608356475830078125" lon="2.09775323979556560516357421875">
        <ele>1188.199951171875</ele>
        <time>2020-08-10T05:30:49.000Z</time>
      </trkpt>
      <trkpt lat="42.31926024891436100006103515625" lon="2.09773396141827106475830078125">
        <ele>1188.199951171875</ele>
        <time>2020-08-10T05:30:50.000Z</time>
      </trkpt>
      <trkpt lat="42.3192724026739597320556640625" lon="2.0976163633167743682861328125">
        <ele>1188.5999755859375</ele>
        <time>2020-08-10T05:30:56.000Z</time>
      </trkpt>
      <trkpt lat="42.31929042376577854156494140625" lon="2.0974302850663661956787109375">
        <ele>1188.4000244140625</ele>
        <time>2020-08-10T05:31:04.000Z</time>
      </trkpt>
      <trkpt lat="42.31928966939449310302734375" lon="2.0972747169435024261474609375">
        <ele>1188.4000244140625</ele>
        <time>2020-08-10T05:31:10.000Z</time>
      </trkpt>
      <trkpt lat="42.31929210014641284942626953125" lon="2.09713750518858432769775390625">
        <ele>1188.199951171875</ele>
        <time>2020-08-10T05:31:15.000Z</time>
      </trkpt>
      <trkpt lat="42.31929302215576171875" lon="2.09695410914719104766845703125">
        <ele>1188.199951171875</ele>
        <time>2020-08-10T05:31:21.000Z</time>
      </trkpt>
      <trkpt lat="42.31929947622120380401611328125" lon="2.09674221463501453399658203125">
        <ele>1188.199951171875</ele>
        <time>2020-08-10T05:31:29.000Z</time>
      </trkpt>
      <trkpt lat="42.319311797618865966796875" lon="2.09649126045405864715576171875">
        <ele>1187.5999755859375</ele>
        <time>2020-08-10T05:31:36.000Z</time>
      </trkpt>
      <trkpt lat="42.3193511925637722015380859375" lon="2.09631725214421749114990234375">
        <ele>1187</ele>
        <time>2020-08-10T05:31:40.000Z</time>
      </trkpt>
      <trkpt lat="42.31939184479415416717529296875" lon="2.0962373726069927215576171875">
        <ele>1186.5999755859375</ele>
        <time>2020-08-10T05:31:42.000Z</time>
      </trkpt>
      <trkpt lat="42.31951723806560039520263671875" lon="2.09612715058028697967529296875">
        <ele>1186</ele>
        <time>2020-08-10T05:31:46.000Z</time>
      </trkpt>
      <trkpt lat="42.31955931521952152252197265625" lon="2.09611893631517887115478515625">
        <ele>1185.5999755859375</ele>
        <time>2020-08-10T05:31:47.000Z</time>
      </trkpt>
      <trkpt lat="42.31970247812569141387939453125" lon="2.09614156745374202728271484375">
        <ele>1184.800048828125</ele>
        <time>2020-08-10T05:31:50.000Z</time>
      </trkpt>
      <trkpt lat="42.319750003516674041748046875" lon="2.09615732543170452117919921875">
        <ele>1184.4000244140625</ele>
        <time>2020-08-10T05:31:51.000Z</time>
      </trkpt>
      <trkpt lat="42.31980054639279842376708984375" lon="2.096170485019683837890625">
        <ele>1184.199951171875</ele>
        <time>2020-08-10T05:31:52.000Z</time>
      </trkpt>
      <trkpt lat="42.3199084214866161346435546875" lon="2.09617978893220424652099609375">
        <ele>1183.5999755859375</ele>
        <time>2020-08-10T05:31:54.000Z</time>
      </trkpt>
      <trkpt lat="42.320016883313655853271484375" lon="2.09616805426776409149169921875">
        <ele>1182.800048828125</ele>
        <time>2020-08-10T05:31:56.000Z</time>
      </trkpt>
      <trkpt lat="42.32007555663585662841796875" lon="2.09615514613687992095947265625">
        <ele>1182.4000244140625</ele>
        <time>2020-08-10T05:31:57.000Z</time>
      </trkpt>
      <trkpt lat="42.32020505703985691070556640625" lon="2.09611843340098857879638671875">
        <ele>1181.5999755859375</ele>
        <time>2020-08-10T05:31:59.000Z</time>
      </trkpt>
      <trkpt lat="42.32027278281748294830322265625" lon="2.09609328769147396087646484375">
        <ele>1181</ele>
        <time>2020-08-10T05:32:00.000Z</time>
      </trkpt>
      <trkpt lat="42.32033849693834781646728515625" lon="2.09606344811618328094482421875">
        <ele>1180.4000244140625</ele>
        <time>2020-08-10T05:32:01.000Z</time>
      </trkpt>
      <trkpt lat="42.3204006068408489227294921875" lon="2.096031010150909423828125">
        <ele>1180</ele>
        <time>2020-08-10T05:32:02.000Z</time>
      </trkpt>
      <trkpt lat="42.32046053744852542877197265625" lon="2.0959929563105106353759765625">
        <ele>1179.5999755859375</ele>
        <time>2020-08-10T05:32:03.000Z</time>
      </trkpt>
      <trkpt lat="42.32056212611496448516845703125" lon="2.09588658995926380157470703125">
        <ele>1179</ele>
        <time>2020-08-10T05:32:05.000Z</time>
      </trkpt>
      <trkpt lat="42.32059431262314319610595703125" lon="2.09582188166677951812744140625">
        <ele>1178.800048828125</ele>
        <time>2020-08-10T05:32:06.000Z</time>
      </trkpt>
      <trkpt lat="42.32062884606420993804931640625" lon="2.09568978287279605865478515625">
        <ele>1177.800048828125</ele>
        <time>2020-08-10T05:32:08.000Z</time>
      </trkpt>
      <trkpt lat="42.32064041309058666229248046875" lon="2.09555902518332004547119140625">
        <ele>1177.4000244140625</ele>
        <time>2020-08-10T05:32:10.000Z</time>
      </trkpt>
      <trkpt lat="42.32065432704985141754150390625" lon="2.09543128497898578643798828125">
        <ele>1177.4000244140625</ele>
        <time>2020-08-10T05:32:12.000Z</time>
      </trkpt>
      <trkpt lat="42.320665307343006134033203125" lon="2.0953698456287384033203125">
        <ele>1177.4000244140625</ele>
        <time>2020-08-10T05:32:13.000Z</time>
      </trkpt>
      <trkpt lat="42.32074216939508914947509765625" lon="2.09514948539435863494873046875">
        <ele>1177.199951171875</ele>
        <time>2020-08-10T05:32:17.000Z</time>
      </trkpt>
      <trkpt lat="42.32076027430593967437744140625" lon="2.095100618898868560791015625">
        <ele>1177.199951171875</ele>
        <time>2020-08-10T05:32:18.000Z</time>
      </trkpt>
      <trkpt lat="42.32082649134099483489990234375" lon="2.09483466111123561859130859375">
        <ele>1177.5999755859375</ele>
        <time>2020-08-10T05:32:24.000Z</time>
      </trkpt>
      <trkpt lat="42.3208428360521793365478515625" lon="2.09462343715131282806396484375">
        <ele>1177.4000244140625</ele>
        <time>2020-08-10T05:32:30.000Z</time>
      </trkpt>
      <trkpt lat="42.32087560929358005523681640625" lon="2.094434760510921478271484375">
        <ele>1177</ele>
        <time>2020-08-10T05:32:38.000Z</time>
      </trkpt>
      <trkpt lat="42.3208902776241302490234375" lon="2.09427441470324993133544921875">
        <ele>1176.4000244140625</ele>
        <time>2020-08-10T05:32:43.000Z</time>
      </trkpt>
      <trkpt lat="42.32089304365217685699462890625" lon="2.0940382964909076690673828125">
        <ele>1176</ele>
        <time>2020-08-10T05:32:48.000Z</time>
      </trkpt>
      <trkpt lat="42.3209122382104396820068359375" lon="2.09385506808757781982421875">
        <ele>1175.199951171875</ele>
        <time>2020-08-10T05:32:51.000Z</time>
      </trkpt>
      <trkpt lat="42.32094417326152324676513671875" lon="2.09372154437005519866943359375">
        <ele>1174.199951171875</ele>
        <time>2020-08-10T05:32:53.000Z</time>
      </trkpt>
      <trkpt lat="42.32096713967621326446533203125" lon="2.09365298040211200714111328125">
        <ele>1173.800048828125</ele>
        <time>2020-08-10T05:32:54.000Z</time>
      </trkpt>
      <trkpt lat="42.3210986517369747161865234375" lon="2.09338299930095672607421875">
        <ele>1172.800048828125</ele>
        <time>2020-08-10T05:32:58.000Z</time>
      </trkpt>
      <trkpt lat="42.32126134447753429412841796875" lon="2.093098349869251251220703125">
        <ele>1171.4000244140625</ele>
        <time>2020-08-10T05:33:02.000Z</time>
      </trkpt>
      <trkpt lat="42.3213423974812030792236328125" lon="2.0929449610412120819091796875">
        <ele>1170.800048828125</ele>
        <time>2020-08-10T05:33:04.000Z</time>
      </trkpt>
      <trkpt lat="42.32138506136834621429443359375" lon="2.09287279285490512847900390625">
        <ele>1170</ele>
        <time>2020-08-10T05:33:05.000Z</time>
      </trkpt>
      <trkpt lat="42.321430742740631103515625" lon="2.09281428717076778411865234375">
        <ele>1169.4000244140625</ele>
        <time>2020-08-10T05:33:06.000Z</time>
      </trkpt>
      <trkpt lat="42.321533001959323883056640625" lon="2.0927451364696025848388671875">
        <ele>1168.5999755859375</ele>
        <time>2020-08-10T05:33:08.000Z</time>
      </trkpt>
      <trkpt lat="42.32165026478469371795654296875" lon="2.09274589084088802337646484375">
        <ele>1167.5999755859375</ele>
        <time>2020-08-10T05:33:10.000Z</time>
      </trkpt>
      <trkpt lat="42.32171027921140193939208984375" lon="2.09276265464723110198974609375">
        <ele>1167</ele>
        <time>2020-08-10T05:33:11.000Z</time>
      </trkpt>
      <trkpt lat="42.32177012600004673004150390625" lon="2.092787884175777435302734375">
        <ele>1166.4000244140625</ele>
        <time>2020-08-10T05:33:12.000Z</time>
      </trkpt>
      <trkpt lat="42.321829386055469512939453125" lon="2.09281814284622669219970703125">
        <ele>1166</ele>
        <time>2020-08-10T05:33:13.000Z</time>
      </trkpt>
      <trkpt lat="42.3220132850110530853271484375" lon="2.09293364547193050384521484375">
        <ele>1164.5999755859375</ele>
        <time>2020-08-10T05:33:16.000Z</time>
      </trkpt>
      <trkpt lat="42.3220758140087127685546875" lon="2.0929821766912937164306640625">
        <ele>1164</ele>
        <time>2020-08-10T05:33:17.000Z</time>
      </trkpt>
      <trkpt lat="42.32219056226313114166259765625" lon="2.0930502377450466156005859375">
        <ele>1163.199951171875</ele>
        <time>2020-08-10T05:33:19.000Z</time>
      </trkpt>
      <trkpt lat="42.3222493194043636322021484375" lon="2.0930881239473819732666015625">
        <ele>1162.800048828125</ele>
        <time>2020-08-10T05:33:20.000Z</time>
      </trkpt>
      <trkpt lat="42.32230807654559612274169921875" lon="2.0931226573884487152099609375">
        <ele>1162.199951171875</ele>
        <time>2020-08-10T05:33:21.000Z</time>
      </trkpt>
      <trkpt lat="42.3224095813930034637451171875" lon="2.09317915141582489013671875">
        <ele>1161</ele>
        <time>2020-08-10T05:33:23.000Z</time>
      </trkpt>
      <trkpt lat="42.322455681860446929931640625" lon="2.093197591602802276611328125">
        <ele>1160.5999755859375</ele>
        <time>2020-08-10T05:33:24.000Z</time>
      </trkpt>
      <trkpt lat="42.32250429689884185791015625" lon="2.09320505149662494659423828125">
        <ele>1160.199951171875</ele>
        <time>2020-08-10T05:33:25.000Z</time>
      </trkpt>
      <trkpt lat="42.3225460387766361236572265625" lon="2.0931957475841045379638671875">
        <ele>1159.4000244140625</ele>
        <time>2020-08-10T05:33:26.000Z</time>
      </trkpt>
      <trkpt lat="42.32259574346244335174560546875" lon="2.09311754442751407623291015625">
        <ele>1158.800048828125</ele>
        <time>2020-08-10T05:33:28.000Z</time>
      </trkpt>
      <trkpt lat="42.32261066325008869171142578125" lon="2.093054763972759246826171875">
        <ele>1158.4000244140625</ele>
        <time>2020-08-10T05:33:29.000Z</time>
      </trkpt>
      <trkpt lat="42.32264217920601367950439453125" lon="2.09285854361951351165771484375">
        <ele>1157.800048828125</ele>
        <time>2020-08-10T05:33:32.000Z</time>
      </trkpt>
      <trkpt lat="42.32264377176761627197265625" lon="2.09272879175841808319091796875">
        <ele>1157.199951171875</ele>
        <time>2020-08-10T05:33:34.000Z</time>
      </trkpt>
      <trkpt lat="42.32263647951185703277587890625" lon="2.09267129190266132354736328125">
        <ele>1156.800048828125</ele>
        <time>2020-08-10T05:33:35.000Z</time>
      </trkpt>
      <trkpt lat="42.32260965742170810699462890625" lon="2.092612870037555694580078125">
        <ele>1156.4000244140625</ele>
        <time>2020-08-10T05:33:36.000Z</time>
      </trkpt>
      <trkpt lat="42.32257562689483165740966796875" lon="2.09255578927695751190185546875">
        <ele>1156</ele>
        <time>2020-08-10T05:33:37.000Z</time>
      </trkpt>
      <trkpt lat="42.322469763457775115966796875" lon="2.0924209244549274444580078125">
        <ele>1155.4000244140625</ele>
        <time>2020-08-10T05:33:40.000Z</time>
      </trkpt>
      <trkpt lat="42.3223720304667949676513671875" lon="2.09219989366829395294189453125">
        <ele>1155</ele>
        <time>2020-08-10T05:33:44.000Z</time>
      </trkpt>
      <trkpt lat="42.32235032133758068084716796875" lon="2.09214247763156890869140625">
        <ele>1155</ele>
        <time>2020-08-10T05:33:45.000Z</time>
      </trkpt>
      <trkpt lat="42.32224546372890472412109375" lon="2.091839723289012908935546875">
        <ele>1154.800048828125</ele>
        <time>2020-08-10T05:33:51.000Z</time>
      </trkpt>
      <trkpt lat="42.32215334661304950714111328125" lon="2.0915740169584751129150390625">
        <ele>1155.199951171875</ele>
        <time>2020-08-10T05:33:57.000Z</time>
      </trkpt>
      <trkpt lat="42.32209484092891216278076171875" lon="2.091360278427600860595703125">
        <ele>1156.199951171875</ele>
        <time>2020-08-10T05:34:02.000Z</time>
      </trkpt>
      <trkpt lat="42.32208981178700923919677734375" lon="2.09108862094581127166748046875">
        <ele>1156.4000244140625</ele>
        <time>2020-08-10T05:34:08.000Z</time>
      </trkpt>
      <trkpt lat="42.32210087589919567108154296875" lon="2.09098334424197673797607421875">
        <ele>1156.4000244140625</ele>
        <time>2020-08-10T05:34:10.000Z</time>
      </trkpt>
      <trkpt lat="42.32213574461638927459716796875" lon="2.090796343982219696044921875">
        <ele>1156.4000244140625</ele>
        <time>2020-08-10T05:34:13.000Z</time>
      </trkpt>
      <trkpt lat="42.32214731164276599884033203125" lon="2.09072719328105449676513671875">
        <ele>1156.4000244140625</ele>
        <time>2020-08-10T05:34:14.000Z</time>
      </trkpt>
      <trkpt lat="42.322192154824733734130859375" lon="2.09042024798691272735595703125">
        <ele>1155.4000244140625</ele>
        <time>2020-08-10T05:34:18.000Z</time>
      </trkpt>
      <trkpt lat="42.322195507586002349853515625" lon="2.09033810533583164215087890625">
        <ele>1155.199951171875</ele>
        <time>2020-08-10T05:34:19.000Z</time>
      </trkpt>
      <trkpt lat="42.3221936635673046112060546875" lon="2.09026400931179523468017578125">
        <ele>1155</ele>
        <time>2020-08-10T05:34:20.000Z</time>
      </trkpt>
      <trkpt lat="42.32215703465044498443603515625" lon="2.090137191116809844970703125">
        <ele>1154.4000244140625</ele>
        <time>2020-08-10T05:34:22.000Z</time>
      </trkpt>
      <trkpt lat="42.3220248520374298095703125" lon="2.09003970958292484283447265625">
        <ele>1154</ele>
        <time>2020-08-10T05:34:25.000Z</time>
      </trkpt>
      <trkpt lat="42.32192317955195903778076171875" lon="2.08998321555554866790771484375">
        <ele>1153.800048828125</ele>
        <time>2020-08-10T05:34:27.000Z</time>
      </trkpt>
      <trkpt lat="42.321870289742946624755859375" lon="2.08994750864803791046142578125">
        <ele>1153.800048828125</ele>
        <time>2020-08-10T05:34:28.000Z</time>
      </trkpt>
      <trkpt lat="42.321784794330596923828125" lon="2.089848183095455169677734375">
        <ele>1153.5999755859375</ele>
        <time>2020-08-10T05:34:30.000Z</time>
      </trkpt>
      <trkpt lat="42.32173894532024860382080078125" lon="2.08970476873219013214111328125">
        <ele>1152.5999755859375</ele>
        <time>2020-08-10T05:34:32.000Z</time>
      </trkpt>
      <trkpt lat="42.32173156924545764923095703125" lon="2.089620530605316162109375">
        <ele>1152.199951171875</ele>
        <time>2020-08-10T05:34:33.000Z</time>
      </trkpt>
      <trkpt lat="42.32173458673059940338134765625" lon="2.089448533952236175537109375">
        <ele>1151.5999755859375</ele>
        <time>2020-08-10T05:34:35.000Z</time>
      </trkpt>
      <trkpt lat="42.32177741825580596923828125" lon="2.089201770722866058349609375">
        <ele>1151</ele>
        <time>2020-08-10T05:34:38.000Z</time>
      </trkpt>
      <trkpt lat="42.3218317329883575439453125" lon="2.08904586732387542724609375">
        <ele>1150.5999755859375</ele>
        <time>2020-08-10T05:34:40.000Z</time>
      </trkpt>
      <trkpt lat="42.32192334719002246856689453125" lon="2.08883506245911121368408203125">
        <ele>1150</ele>
        <time>2020-08-10T05:34:43.000Z</time>
      </trkpt>
      <trkpt lat="42.322068773210048675537109375" lon="2.08841697312891483306884765625">
        <ele>1149.4000244140625</ele>
        <time>2020-08-10T05:34:49.000Z</time>
      </trkpt>
      <trkpt lat="42.3220843635499477386474609375" lon="2.08834907971322536468505859375">
        <ele>1149.4000244140625</ele>
        <time>2020-08-10T05:34:50.000Z</time>
      </trkpt>
      <trkpt lat="42.3221041448414325714111328125" lon="2.08828906528651714324951171875">
        <ele>1149.199951171875</ele>
        <time>2020-08-10T05:34:51.000Z</time>
      </trkpt>
      <trkpt lat="42.32216390781104564666748046875" lon="2.088114805519580841064453125">
        <ele>1149.199951171875</ele>
        <time>2020-08-10T05:34:54.000Z</time>
      </trkpt>
      <trkpt lat="42.32218771241605281829833984375" lon="2.0880603231489658355712890625">
        <ele>1149</ele>
        <time>2020-08-10T05:34:55.000Z</time>
      </trkpt>
      <trkpt lat="42.32221906073391437530517578125" lon="2.088011540472507476806640625">
        <ele>1149</ele>
        <time>2020-08-10T05:34:56.000Z</time>
      </trkpt>
      <trkpt lat="42.32233808375895023345947265625" lon="2.087866365909576416015625">
        <ele>1148.800048828125</ele>
        <time>2020-08-10T05:34:59.000Z</time>
      </trkpt>
      <trkpt lat="42.3224271833896636962890625" lon="2.08766855299472808837890625">
        <ele>1148.4000244140625</ele>
        <time>2020-08-10T05:35:02.000Z</time>
      </trkpt>
      <trkpt lat="42.32242810539901256561279296875" lon="2.08759420551359653472900390625">
        <ele>1148</ele>
        <time>2020-08-10T05:35:03.000Z</time>
      </trkpt>
      <trkpt lat="42.3223723657429218292236328125" lon="2.08736085332930088043212890625">
        <ele>1147</ele>
        <time>2020-08-10T05:35:06.000Z</time>
      </trkpt>
      <trkpt lat="42.322347722947597503662109375" lon="2.0872771181166172027587890625">
        <ele>1146.5999755859375</ele>
        <time>2020-08-10T05:35:07.000Z</time>
      </trkpt>
      <trkpt lat="42.322329618036746978759765625" lon="2.08719137124717235565185546875">
        <ele>1146</ele>
        <time>2020-08-10T05:35:08.000Z</time>
      </trkpt>
      <trkpt lat="42.322318218648433685302734375" lon="2.08710269071161746978759765625">
        <ele>1145.5999755859375</ele>
        <time>2020-08-10T05:35:09.000Z</time>
      </trkpt>
      <trkpt lat="42.32232534326612949371337890625" lon="2.08692415617406368255615234375">
        <ele>1145</ele>
        <time>2020-08-10T05:35:11.000Z</time>
      </trkpt>
      <trkpt lat="42.32237898744642734527587890625" lon="2.0867487229406833648681640625">
        <ele>1144.4000244140625</ele>
        <time>2020-08-10T05:35:13.000Z</time>
      </trkpt>
      <trkpt lat="42.32241787947714328765869140625" lon="2.08666884340345859527587890625">
        <ele>1144</ele>
        <time>2020-08-10T05:35:14.000Z</time>
      </trkpt>
      <trkpt lat="42.32251293025910854339599609375" lon="2.0865163765847682952880859375">
        <ele>1142.800048828125</ele>
        <time>2020-08-10T05:35:16.000Z</time>
      </trkpt>
      <trkpt lat="42.3226382397115230560302734375" lon="2.08639743737876415252685546875">
        <ele>1142.199951171875</ele>
        <time>2020-08-10T05:35:18.000Z</time>
      </trkpt>
      <trkpt lat="42.32271007262170314788818359375" lon="2.08635301329195499420166015625">
        <ele>1141.800048828125</ele>
        <time>2020-08-10T05:35:19.000Z</time>
      </trkpt>
      <trkpt lat="42.32278517447412014007568359375" lon="2.08631244488060474395751953125">
        <ele>1141.5999755859375</ele>
        <time>2020-08-10T05:35:20.000Z</time>
      </trkpt>
      <trkpt lat="42.32292884029448032379150390625" lon="2.0862421207129955291748046875">
        <ele>1140.5999755859375</ele>
        <time>2020-08-10T05:35:22.000Z</time>
      </trkpt>
      <trkpt lat="42.32299187220633029937744140625" lon="2.0862035639584064483642578125">
        <ele>1140.199951171875</ele>
        <time>2020-08-10T05:35:23.000Z</time>
      </trkpt>
      <trkpt lat="42.32310016639530658721923828125" lon="2.08612686954438686370849609375">
        <ele>1139.199951171875</ele>
        <time>2020-08-10T05:35:25.000Z</time>
      </trkpt>
      <trkpt lat="42.3231656290590763092041015625" lon="2.08601807244122028350830078125">
        <ele>1138.800048828125</ele>
        <time>2020-08-10T05:35:27.000Z</time>
      </trkpt>
      <trkpt lat="42.3231894336640834808349609375" lon="2.08588798530399799346923828125">
        <ele>1138</ele>
        <time>2020-08-10T05:35:29.000Z</time>
      </trkpt>
      <trkpt lat="42.3231813870370388031005859375" lon="2.0858076028525829315185546875">
        <ele>1137.4000244140625</ele>
        <time>2020-08-10T05:35:30.000Z</time>
      </trkpt>
      <trkpt lat="42.32316152192652225494384765625" lon="2.08562848158180713653564453125">
        <ele>1136.800048828125</ele>
        <time>2020-08-10T05:35:32.000Z</time>
      </trkpt>
      <trkpt lat="42.323194630444049835205078125" lon="2.08545438945293426513671875">
        <ele>1136.4000244140625</ele>
        <time>2020-08-10T05:35:34.000Z</time>
      </trkpt>
      <trkpt lat="42.3233299143612384796142578125" lon="2.085238806903362274169921875">
        <ele>1135.4000244140625</ele>
        <time>2020-08-10T05:35:37.000Z</time>
      </trkpt>
      <trkpt lat="42.3233852349221706390380859375" lon="2.08517217077314853668212890625">
        <ele>1134.800048828125</ele>
        <time>2020-08-10T05:35:38.000Z</time>
      </trkpt>
      <trkpt lat="42.32343577779829502105712890625" lon="2.0850998349487781524658203125">
        <ele>1134.5999755859375</ele>
        <time>2020-08-10T05:35:39.000Z</time>
      </trkpt>
      <trkpt lat="42.32348003424704074859619140625" lon="2.08502615801990032196044921875">
        <ele>1134.4000244140625</ele>
        <time>2020-08-10T05:35:40.000Z</time>
      </trkpt>
      <trkpt lat="42.32352160848677158355712890625" lon="2.08496354520320892333984375">
        <ele>1134</ele>
        <time>2020-08-10T05:35:41.000Z</time>
      </trkpt>
      <trkpt lat="42.32356217689812183380126953125" lon="2.08491115830838680267333984375">
        <ele>1133.5999755859375</ele>
        <time>2020-08-10T05:35:42.000Z</time>
      </trkpt>
      <trkpt lat="42.32359503395855426788330078125" lon="2.0848577655851840972900390625">
        <ele>1133.199951171875</ele>
        <time>2020-08-10T05:35:43.000Z</time>
      </trkpt>
      <trkpt lat="42.323623783886432647705078125" lon="2.08473312668502330780029296875">
        <ele>1132.800048828125</ele>
        <time>2020-08-10T05:35:45.000Z</time>
      </trkpt>
      <trkpt lat="42.32359704561531543731689453125" lon="2.0845996029675006866455078125">
        <ele>1132.199951171875</ele>
        <time>2020-08-10T05:35:47.000Z</time>
      </trkpt>
      <trkpt lat="42.32356653548777103424072265625" lon="2.0845315419137477874755859375">
        <ele>1132</ele>
        <time>2020-08-10T05:35:48.000Z</time>
      </trkpt>
      <trkpt lat="42.3234759271144866943359375" lon="2.08440019749104976654052734375">
        <ele>1131.199951171875</ele>
        <time>2020-08-10T05:35:51.000Z</time>
      </trkpt>
      <trkpt lat="42.323401831090450286865234375" lon="2.0843298733234405517578125">
        <ele>1130.199951171875</ele>
        <time>2020-08-10T05:35:54.000Z</time>
      </trkpt>
      <trkpt lat="42.323348186910152435302734375" lon="2.0842884667217731475830078125">
        <ele>1130</ele>
        <time>2020-08-10T05:35:56.000Z</time>
      </trkpt>
      <trkpt lat="42.3232118971645832061767578125" lon="2.08417103625833988189697265625">
        <ele>1130.5999755859375</ele>
        <time>2020-08-10T05:36:02.000Z</time>
      </trkpt>
      <trkpt lat="42.32317660935223102569580078125" lon="2.08412761799991130828857421875">
        <ele>1131</ele>
        <time>2020-08-10T05:36:04.000Z</time>
      </trkpt>
      <trkpt lat="42.32311181724071502685546875" lon="2.08400708623230457305908203125">
        <ele>1132</ele>
        <time>2020-08-10T05:36:09.000Z</time>
      </trkpt>
      <trkpt lat="42.32310167513787746429443359375" lon="2.083977162837982177734375">
        <ele>1132.199951171875</ele>
        <time>2020-08-10T05:36:10.000Z</time>
      </trkpt>
      <trkpt lat="42.32305406592786312103271484375" lon="2.08381815813481807708740234375">
        <ele>1132.5999755859375</ele>
        <time>2020-08-10T05:36:15.000Z</time>
      </trkpt>
      <trkpt lat="42.32299220748245716094970703125" lon="2.0836169086396694183349609375">
        <ele>1133</ele>
        <time>2020-08-10T05:36:22.000Z</time>
      </trkpt>
      <trkpt lat="42.3229939676821231842041015625" lon="2.08336670882999897003173828125">
        <ele>1132.800048828125</ele>
        <time>2020-08-10T05:36:29.000Z</time>
      </trkpt>
      <trkpt lat="42.32304736040532588958740234375" lon="2.08312229253351688385009765625">
        <ele>1132.800048828125</ele>
        <time>2020-08-10T05:36:36.000Z</time>
      </trkpt>
      <trkpt lat="42.32309094630181789398193359375" lon="2.08298784680664539337158203125">
        <ele>1132.5999755859375</ele>
        <time>2020-08-10T05:36:41.000Z</time>
      </trkpt>
      <trkpt lat="42.323171831667423248291015625" lon="2.082825489342212677001953125">
        <ele>1132.4000244140625</ele>
        <time>2020-08-10T05:36:46.000Z</time>
      </trkpt>
      <trkpt lat="42.32319119386374950408935546875" lon="2.082799337804317474365234375">
        <ele>1132.4000244140625</ele>
        <time>2020-08-10T05:36:47.000Z</time>
      </trkpt>
      <trkpt lat="42.3232742585241794586181640625" lon="2.082627676427364349365234375">
        <ele>1132.4000244140625</ele>
        <time>2020-08-10T05:36:53.000Z</time>
      </trkpt>
      <trkpt lat="42.323364280164241790771484375" lon="2.082479484379291534423828125">
        <ele>1132.4000244140625</ele>
        <time>2020-08-10T05:36:58.000Z</time>
      </trkpt>
      <trkpt lat="42.323495708405971527099609375" lon="2.08233137615025043487548828125">
        <ele>1132</ele>
        <time>2020-08-10T05:37:03.000Z</time>
      </trkpt>
      <trkpt lat="42.32359134592115879058837890625" lon="2.08222676999866962432861328125">
        <ele>1131.5999755859375</ele>
        <time>2020-08-10T05:37:06.000Z</time>
      </trkpt>
      <trkpt lat="42.32369192875921726226806640625" lon="2.082096599042415618896484375">
        <ele>1131.4000244140625</ele>
        <time>2020-08-10T05:37:09.000Z</time>
      </trkpt>
      <trkpt lat="42.3237382806837558746337890625" lon="2.0819710381329059600830078125">
        <ele>1130.800048828125</ele>
        <time>2020-08-10T05:37:11.000Z</time>
      </trkpt>
      <trkpt lat="42.32375445775687694549560546875" lon="2.0818295516073703765869140625">
        <ele>1130.4000244140625</ele>
        <time>2020-08-10T05:37:13.000Z</time>
      </trkpt>
      <trkpt lat="42.3237513564527034759521484375" lon="2.08170709200203418731689453125">
        <ele>1130.199951171875</ele>
        <time>2020-08-10T05:37:15.000Z</time>
      </trkpt>
      <trkpt lat="42.32373811304569244384765625" lon="2.0815596543252468109130859375">
        <ele>1130.4000244140625</ele>
        <time>2020-08-10T05:37:18.000Z</time>
      </trkpt>
      <trkpt lat="42.3237516917288303375244140625" lon="2.08135471679270267486572265625">
        <ele>1131</ele>
        <time>2020-08-10T05:37:23.000Z</time>
      </trkpt>
      <trkpt lat="42.32376283966004848480224609375" lon="2.0812887512147426605224609375">
        <ele>1131.199951171875</ele>
        <time>2020-08-10T05:37:25.000Z</time>
      </trkpt>
      <trkpt lat="42.3237523622810840606689453125" lon="2.081214822828769683837890625">
        <ele>1131.199951171875</ele>
        <time>2020-08-10T05:37:27.000Z</time>
      </trkpt>
      <trkpt lat="42.32370835728943347930908203125" lon="2.0810238830745220184326171875">
        <ele>1131.4000244140625</ele>
        <time>2020-08-10T05:37:32.000Z</time>
      </trkpt>
      <trkpt lat="42.32369142584502696990966796875" lon="2.08091349340975284576416015625">
        <ele>1131.800048828125</ele>
        <time>2020-08-10T05:37:35.000Z</time>
      </trkpt>
      <trkpt lat="42.323640882968902587890625" lon="2.08067041821777820587158203125">
        <ele>1131.4000244140625</ele>
        <time>2020-08-10T05:37:41.000Z</time>
      </trkpt>
      <trkpt lat="42.3236234486103057861328125" lon="2.08037990145385265350341796875">
        <ele>1131.4000244140625</ele>
        <time>2020-08-10T05:37:47.000Z</time>
      </trkpt>
      <trkpt lat="42.32363107614219188690185546875" lon="2.0800344832241535186767578125">
        <ele>1131</ele>
        <time>2020-08-10T05:37:54.000Z</time>
      </trkpt>
      <trkpt lat="42.32362520880997180938720703125" lon="2.079799957573413848876953125">
        <ele>1131.199951171875</ele>
        <time>2020-08-10T05:38:00.000Z</time>
      </trkpt>
      <trkpt lat="42.32360375113785266876220703125" lon="2.0795957744121551513671875">
        <ele>1131.199951171875</ele>
        <time>2020-08-10T05:38:05.000Z</time>
      </trkpt>
      <trkpt lat="42.32358464039862155914306640625" lon="2.0793498493731021881103515625">
        <ele>1131.5999755859375</ele>
        <time>2020-08-10T05:38:11.000Z</time>
      </trkpt>
      <trkpt lat="42.32356888242065906524658203125" lon="2.07922705449163913726806640625">
        <ele>1131.5999755859375</ele>
        <time>2020-08-10T05:38:14.000Z</time>
      </trkpt>
      <trkpt lat="42.3235414735972881317138671875" lon="2.078855820000171661376953125">
        <ele>1132.199951171875</ele>
        <time>2020-08-10T05:38:22.000Z</time>
      </trkpt>
      <trkpt lat="42.323538959026336669921875" lon="2.0786360464990139007568359375">
        <ele>1132.5999755859375</ele>
        <time>2020-08-10T05:38:27.000Z</time>
      </trkpt>
      <trkpt lat="42.3235351033508777618408203125" lon="2.07854694686830043792724609375">
        <ele>1133</ele>
        <time>2020-08-10T05:38:29.000Z</time>
      </trkpt>
      <trkpt lat="42.323514483869075775146484375" lon="2.078183926641941070556640625">
        <ele>1132.800048828125</ele>
        <time>2020-08-10T05:38:37.000Z</time>
      </trkpt>
      <trkpt lat="42.3234791122376918792724609375" lon="2.07794546149671077728271484375">
        <ele>1133</ele>
        <time>2020-08-10T05:38:43.000Z</time>
      </trkpt>
      <trkpt lat="42.3234571516513824462890625" lon="2.07780883647501468658447265625">
        <ele>1133</ele>
        <time>2020-08-10T05:38:47.000Z</time>
      </trkpt>
      <trkpt lat="42.32344977557659149169921875" lon="2.077744714915752410888671875">
        <ele>1133.5999755859375</ele>
        <time>2020-08-10T05:38:49.000Z</time>
      </trkpt>
      <trkpt lat="42.32342739589512348175048828125" lon="2.077648155391216278076171875">
        <ele>1134</ele>
        <time>2020-08-10T05:38:52.000Z</time>
      </trkpt>
      <trkpt lat="42.32341113500297069549560546875" lon="2.0774904079735279083251953125">
        <ele>1134.5999755859375</ele>
        <time>2020-08-10T05:38:57.000Z</time>
      </trkpt>
      <trkpt lat="42.3234006576240062713623046875" lon="2.0774639211595058441162109375">
        <ele>1134.800048828125</ele>
        <time>2020-08-10T05:38:58.000Z</time>
      </trkpt>
      <trkpt lat="42.32338196597993373870849609375" lon="2.07736979238688945770263671875">
        <ele>1135.199951171875</ele>
        <time>2020-08-10T05:39:01.000Z</time>
      </trkpt>
      <trkpt lat="42.32333846390247344970703125" lon="2.07709520123898983001708984375">
        <ele>1135.5999755859375</ele>
        <time>2020-08-10T05:39:08.000Z</time>
      </trkpt>
      <trkpt lat="42.323292531073093414306640625" lon="2.076979614794254302978515625">
        <ele>1135.800048828125</ele>
        <time>2020-08-10T05:39:11.000Z</time>
      </trkpt>
      <trkpt lat="42.32325573451817035675048828125" lon="2.076873667538166046142578125">
        <ele>1136.199951171875</ele>
        <time>2020-08-10T05:39:14.000Z</time>
      </trkpt>
      <trkpt lat="42.323195971548557281494140625" lon="2.07669831812381744384765625">
        <ele>1136.5999755859375</ele>
        <time>2020-08-10T05:39:19.000Z</time>
      </trkpt>
      <trkpt lat="42.32314266264438629150390625" lon="2.07647259347140789031982421875">
        <ele>1137</ele>
        <time>2020-08-10T05:39:25.000Z</time>
      </trkpt>
      <trkpt lat="42.32311542145907878875732421875" lon="2.0763970725238323211669921875">
        <ele>1137.199951171875</ele>
        <time>2020-08-10T05:39:27.000Z</time>
      </trkpt>
      <trkpt lat="42.3230601847171783447265625" lon="2.07623563706874847412109375">
        <ele>1137.4000244140625</ele>
        <time>2020-08-10T05:39:31.000Z</time>
      </trkpt>
      <trkpt lat="42.32296186499297618865966796875" lon="2.07591737620532512664794921875">
        <ele>1137.800048828125</ele>
        <time>2020-08-10T05:39:39.000Z</time>
      </trkpt>
      <trkpt lat="42.3229399882256984710693359375" lon="2.07572869956493377685546875">
        <ele>1138</ele>
        <time>2020-08-10T05:39:44.000Z</time>
      </trkpt>
      <trkpt lat="42.32294552028179168701171875" lon="2.07565669901669025421142578125">
        <ele>1138.199951171875</ele>
        <time>2020-08-10T05:39:46.000Z</time>
      </trkpt>
      <trkpt lat="42.3229366354644298553466796875" lon="2.0755813457071781158447265625">
        <ele>1138.5999755859375</ele>
        <time>2020-08-10T05:39:48.000Z</time>
      </trkpt>
      <trkpt lat="42.322898246347904205322265625" lon="2.0753858797252178192138671875">
        <ele>1139</ele>
        <time>2020-08-10T05:39:54.000Z</time>
      </trkpt>
      <trkpt lat="42.32289112173020839691162109375" lon="2.0753526873886585235595703125">
        <ele>1139</ele>
        <time>2020-08-10T05:39:55.000Z</time>
      </trkpt>
      <trkpt lat="42.3228826560080051422119140625" lon="2.07523022778332233428955078125">
        <ele>1139.199951171875</ele>
        <time>2020-08-10T05:39:58.000Z</time>
      </trkpt>
      <trkpt lat="42.32287871651351451873779296875" lon="2.07516183145344257354736328125">
        <ele>1139.4000244140625</ele>
        <time>2020-08-10T05:40:00.000Z</time>
      </trkpt>
      <trkpt lat="42.32286916114389896392822265625" lon="2.07508723251521587371826171875">
        <ele>1139.5999755859375</ele>
        <time>2020-08-10T05:40:02.000Z</time>
      </trkpt>
      <trkpt lat="42.32284233905375003814697265625" lon="2.07490182481706142425537109375">
        <ele>1139.800048828125</ele>
        <time>2020-08-10T05:40:07.000Z</time>
      </trkpt>
      <trkpt lat="42.32281903736293315887451171875" lon="2.07470971159636974334716796875">
        <ele>1140.199951171875</ele>
        <time>2020-08-10T05:40:12.000Z</time>
      </trkpt>
      <trkpt lat="42.322813756763935089111328125" lon="2.07463796250522136688232421875">
        <ele>1140.5999755859375</ele>
        <time>2020-08-10T05:40:14.000Z</time>
      </trkpt>
      <trkpt lat="42.3227991722524166107177734375" lon="2.0745289139449596405029296875">
        <ele>1140.800048828125</ele>
        <time>2020-08-10T05:40:17.000Z</time>
      </trkpt>
      <trkpt lat="42.3227730207145214080810546875" lon="2.074258513748645782470703125">
        <ele>1141.199951171875</ele>
        <time>2020-08-10T05:40:24.000Z</time>
      </trkpt>
      <trkpt lat="42.32273907400667667388916015625" lon="2.07414795644581317901611328125">
        <ele>1141.5999755859375</ele>
        <time>2020-08-10T05:40:27.000Z</time>
      </trkpt>
      <trkpt lat="42.3227086476981639862060546875" lon="2.07407671026885509490966796875">
        <ele>1141.5999755859375</ele>
        <time>2020-08-10T05:40:29.000Z</time>
      </trkpt>
      <trkpt lat="42.3226097412407398223876953125" lon="2.0738553442060947418212890625">
        <ele>1142.199951171875</ele>
        <time>2020-08-10T05:40:35.000Z</time>
      </trkpt>
      <trkpt lat="42.3225292749702930450439453125" lon="2.07362174056470394134521484375">
        <ele>1142.199951171875</ele>
        <time>2020-08-10T05:40:41.000Z</time>
      </trkpt>
      <trkpt lat="42.32247621752321720123291015625" lon="2.073478661477565765380859375">
        <ele>1142.199951171875</ele>
        <time>2020-08-10T05:40:45.000Z</time>
      </trkpt>
      <trkpt lat="42.3224030435085296630859375" lon="2.0732984505593776702880859375">
        <ele>1142.4000244140625</ele>
        <time>2020-08-10T05:40:50.000Z</time>
      </trkpt>
      <trkpt lat="42.3223328031599521636962890625" lon="2.07306216470897197723388671875">
        <ele>1142.5999755859375</ele>
        <time>2020-08-10T05:40:56.000Z</time>
      </trkpt>
      <trkpt lat="42.32227236963808536529541015625" lon="2.0728565566241741180419921875">
        <ele>1142.5999755859375</ele>
        <time>2020-08-10T05:41:01.000Z</time>
      </trkpt>
      <trkpt lat="42.32218670658767223358154296875" lon="2.07263653166592121124267578125">
        <ele>1142.5999755859375</ele>
        <time>2020-08-10T05:41:07.000Z</time>
      </trkpt>
      <trkpt lat="42.322133146226406097412109375" lon="2.07255832850933074951171875">
        <ele>1142.800048828125</ele>
        <time>2020-08-10T05:41:10.000Z</time>
      </trkpt>
      <trkpt lat="42.32211596332490444183349609375" lon="2.07252840511500835418701171875">
        <ele>1142.800048828125</ele>
        <time>2020-08-10T05:41:11.000Z</time>
      </trkpt>
      <trkpt lat="42.32203214429318904876708984375" lon="2.0723683945834636688232421875">
        <ele>1143.4000244140625</ele>
        <time>2020-08-10T05:41:16.000Z</time>
      </trkpt>
      <trkpt lat="42.32195050455629825592041015625" lon="2.07217452116310596466064453125">
        <ele>1143.800048828125</ele>
        <time>2020-08-10T05:41:22.000Z</time>
      </trkpt>
      <trkpt lat="42.32192401774227619171142578125" lon="2.07210109569132328033447265625">
        <ele>1144</ele>
        <time>2020-08-10T05:41:24.000Z</time>
      </trkpt>
      <trkpt lat="42.32188470661640167236328125" lon="2.07199280150234699249267578125">
        <ele>1144.4000244140625</ele>
        <time>2020-08-10T05:41:27.000Z</time>
      </trkpt>
      <trkpt lat="42.3218342475593090057373046875" lon="2.07177839241921901702880859375">
        <ele>1144.5999755859375</ele>
        <time>2020-08-10T05:41:33.000Z</time>
      </trkpt>
      <trkpt lat="42.32176140882074832916259765625" lon="2.0716046355664730072021484375">
        <ele>1144.800048828125</ele>
        <time>2020-08-10T05:41:38.000Z</time>
      </trkpt>
      <trkpt lat="42.32171304523944854736328125" lon="2.0715147815644741058349609375">
        <ele>1145</ele>
        <time>2020-08-10T05:41:41.000Z</time>
      </trkpt>
      <trkpt lat="42.32166820205748081207275390625" lon="2.07142174243927001953125">
        <ele>1145.4000244140625</ele>
        <time>2020-08-10T05:41:44.000Z</time>
      </trkpt>
      <trkpt lat="42.32155689038336277008056640625" lon="2.0711966045200824737548828125">
        <ele>1146</ele>
        <time>2020-08-10T05:41:51.000Z</time>
      </trkpt>
      <trkpt lat="42.32153107412159442901611328125" lon="2.07113005220890045166015625">
        <ele>1146.4000244140625</ele>
        <time>2020-08-10T05:41:53.000Z</time>
      </trkpt>
      <trkpt lat="42.321498803794384002685546875" lon="2.07099460065364837646484375">
        <ele>1146.5999755859375</ele>
        <time>2020-08-10T05:41:57.000Z</time>
      </trkpt>
      <trkpt lat="42.3215187527239322662353515625" lon="2.07084196619689464569091796875">
        <ele>1147.4000244140625</ele>
        <time>2020-08-10T05:42:03.000Z</time>
      </trkpt>
      <trkpt lat="42.32157901860773563385009765625" lon="2.0707111246883869171142578125">
        <ele>1148</ele>
        <time>2020-08-10T05:42:08.000Z</time>
      </trkpt>
      <trkpt lat="42.32159092091023921966552734375" lon="2.07068480551242828369140625">
        <ele>1148.199951171875</ele>
        <time>2020-08-10T05:42:09.000Z</time>
      </trkpt>
      <trkpt lat="42.32161187566816806793212890625" lon="2.07062202505767345428466796875">
        <ele>1148.4000244140625</ele>
        <time>2020-08-10T05:42:12.000Z</time>
      </trkpt>
      <trkpt lat="42.32163551263511180877685546875" lon="2.0705428160727024078369140625">
        <ele>1148.800048828125</ele>
        <time>2020-08-10T05:42:15.000Z</time>
      </trkpt>
      <trkpt lat="42.3216558806598186492919921875" lon="2.07038129679858684539794921875">
        <ele>1149.4000244140625</ele>
        <time>2020-08-10T05:42:20.000Z</time>
      </trkpt>
      <trkpt lat="42.32165546156466007232666015625" lon="2.07027375698089599609375">
        <ele>1149.5999755859375</ele>
        <time>2020-08-10T05:42:23.000Z</time>
      </trkpt>
      <trkpt lat="42.321652360260486602783203125" lon="2.070069573819637298583984375">
        <ele>1150</ele>
        <time>2020-08-10T05:42:29.000Z</time>
      </trkpt>
      <trkpt lat="42.3216220177710056304931640625" lon="2.06981308758258819580078125">
        <ele>1150.5999755859375</ele>
        <time>2020-08-10T05:42:37.000Z</time>
      </trkpt>
      <trkpt lat="42.32162679545581340789794921875" lon="2.06952475011348724365234375">
        <ele>1151</ele>
        <time>2020-08-10T05:42:45.000Z</time>
      </trkpt>
      <trkpt lat="42.32170994393527507781982421875" lon="2.06931076012551784515380859375">
        <ele>1150.5999755859375</ele>
        <time>2020-08-10T05:42:51.000Z</time>
      </trkpt>
      <trkpt lat="42.321843467652797698974609375" lon="2.069134823977947235107421875">
        <ele>1151.4000244140625</ele>
        <time>2020-08-10T05:42:59.000Z</time>
      </trkpt>
      <trkpt lat="42.32187808491289615631103515625" lon="2.0691031403839588165283203125">
        <ele>1151.5999755859375</ele>
        <time>2020-08-10T05:43:01.000Z</time>
      </trkpt>
      <trkpt lat="42.32194715179502964019775390625" lon="2.069058716297149658203125">
        <ele>1152.4000244140625</ele>
        <time>2020-08-10T05:43:05.000Z</time>
      </trkpt>
      <trkpt lat="42.32196760363876819610595703125" lon="2.06904890947043895721435546875">
        <ele>1152.5999755859375</ele>
        <time>2020-08-10T05:43:06.000Z</time>
      </trkpt>
      <trkpt lat="42.32206097804009914398193359375" lon="2.069005407392978668212890625">
        <ele>1153.800048828125</ele>
        <time>2020-08-10T05:43:11.000Z</time>
      </trkpt>
      <trkpt lat="42.32208159752190113067626953125" lon="2.06900171935558319091796875">
        <ele>1154.199951171875</ele>
        <time>2020-08-10T05:43:12.000Z</time>
      </trkpt>
      <trkpt lat="42.32213742099702358245849609375" lon="2.06898738630115985870361328125">
        <ele>1154.800048828125</ele>
        <time>2020-08-10T05:43:15.000Z</time>
      </trkpt>
      <trkpt lat="42.3222312144935131072998046875" lon="2.06897330470383167266845703125">
        <ele>1155.199951171875</ele>
        <time>2020-08-10T05:43:20.000Z</time>
      </trkpt>
      <trkpt lat="42.3223789036273956298828125" lon="2.06895411014556884765625">
        <ele>1155.4000244140625</ele>
        <time>2020-08-10T05:43:26.000Z</time>
      </trkpt>
      <trkpt lat="42.32260697521269321441650390625" lon="2.0689070038497447967529296875">
        <ele>1155.199951171875</ele>
        <time>2020-08-10T05:43:34.000Z</time>
      </trkpt>
      <trkpt lat="42.32280814088881015777587890625" lon="2.06885478459298610687255859375">
        <ele>1155.4000244140625</ele>
        <time>2020-08-10T05:43:41.000Z</time>
      </trkpt>
      <trkpt lat="42.3229178600013256072998046875" lon="2.0688288845121860504150390625">
        <ele>1155.800048828125</ele>
        <time>2020-08-10T05:43:45.000Z</time>
      </trkpt>
      <trkpt lat="42.323024980723857879638671875" lon="2.06878907047212123870849609375">
        <ele>1156</ele>
        <time>2020-08-10T05:43:49.000Z</time>
      </trkpt>
      <trkpt lat="42.32316370122134685516357421875" lon="2.0687051676213741302490234375">
        <ele>1156.199951171875</ele>
        <time>2020-08-10T05:43:55.000Z</time>
      </trkpt>
      <trkpt lat="42.3232561536133289337158203125" lon="2.06865127198398113250732421875">
        <ele>1156.5999755859375</ele>
        <time>2020-08-10T05:43:59.000Z</time>
      </trkpt>
      <trkpt lat="42.32331390492618083953857421875" lon="2.0685968734323978424072265625">
        <ele>1157</ele>
        <time>2020-08-10T05:44:02.000Z</time>
      </trkpt>
      <trkpt lat="42.3234043456614017486572265625" lon="2.068473659455776214599609375">
        <ele>1157.4000244140625</ele>
        <time>2020-08-10T05:44:07.000Z</time>
      </trkpt>
      <trkpt lat="42.323443405330181121826171875" lon="2.068363018333911895751953125">
        <ele>1157.5999755859375</ele>
        <time>2020-08-10T05:44:10.000Z</time>
      </trkpt>
      <trkpt lat="42.32347601093351840972900390625" lon="2.06825497560203075408935546875">
        <ele>1157.800048828125</ele>
        <time>2020-08-10T05:44:13.000Z</time>
      </trkpt>
      <trkpt lat="42.32353434897959232330322265625" lon="2.06808063201606273651123046875">
        <ele>1158</ele>
        <time>2020-08-10T05:44:18.000Z</time>
      </trkpt>
      <trkpt lat="42.323578856885433197021484375" lon="2.067951969802379608154296875">
        <ele>1158.800048828125</ele>
        <time>2020-08-10T05:44:22.000Z</time>
      </trkpt>
      <trkpt lat="42.3236154019832611083984375" lon="2.06784845329821109771728515625">
        <ele>1159.4000244140625</ele>
        <time>2020-08-10T05:44:25.000Z</time>
      </trkpt>
      <trkpt lat="42.3236480914056301116943359375" lon="2.06770730204880237579345703125">
        <ele>1159.800048828125</ele>
        <time>2020-08-10T05:44:29.000Z</time>
      </trkpt>
      <trkpt lat="42.32365873642265796661376953125" lon="2.06767276860773563385009765625">
        <ele>1160</ele>
        <time>2020-08-10T05:44:30.000Z</time>
      </trkpt>
      <trkpt lat="42.323770634829998016357421875" lon="2.0673808269202709197998046875">
        <ele>1160.5999755859375</ele>
        <time>2020-08-10T05:44:39.000Z</time>
      </trkpt>
      <trkpt lat="42.32381966896355152130126953125" lon="2.06716750748455524444580078125">
        <ele>1161</ele>
        <time>2020-08-10T05:44:45.000Z</time>
      </trkpt>
      <trkpt lat="42.32383157126605510711669921875" lon="2.06713314168155193328857421875">
        <ele>1161.199951171875</ele>
        <time>2020-08-10T05:44:46.000Z</time>
      </trkpt>
      <trkpt lat="42.32390818186104297637939453125" lon="2.06684966571629047393798828125">
        <ele>1162</ele>
        <time>2020-08-10T05:44:54.000Z</time>
      </trkpt>
      <trkpt lat="42.32391790486872196197509765625" lon="2.0668135397136211395263671875">
        <ele>1162</ele>
        <time>2020-08-10T05:44:55.000Z</time>
      </trkpt>
      <trkpt lat="42.323989905416965484619140625" lon="2.06655529327690601348876953125">
        <ele>1162.199951171875</ele>
        <time>2020-08-10T05:45:02.000Z</time>
      </trkpt>
      <trkpt lat="42.3240552842617034912109375" lon="2.06633451394736766815185546875">
        <ele>1162.800048828125</ele>
        <time>2020-08-10T05:45:08.000Z</time>
      </trkpt>
      <trkpt lat="42.3240963555872440338134765625" lon="2.06619470380246639251708984375">
        <ele>1163</ele>
        <time>2020-08-10T05:45:12.000Z</time>
      </trkpt>
      <trkpt lat="42.32417640276253223419189453125" lon="2.06592581234872341156005859375">
        <ele>1163.5999755859375</ele>
        <time>2020-08-10T05:45:20.000Z</time>
      </trkpt>
      <trkpt lat="42.32419333420693874359130859375" lon="2.0658606849610805511474609375">
        <ele>1163.5999755859375</ele>
        <time>2020-08-10T05:45:22.000Z</time>
      </trkpt>
      <trkpt lat="42.32425837777554988861083984375" lon="2.06566412933170795440673828125">
        <ele>1164.199951171875</ele>
        <time>2020-08-10T05:45:28.000Z</time>
      </trkpt>
      <trkpt lat="42.32429710216820240020751953125" lon="2.06553219817578792572021484375">
        <ele>1164.800048828125</ele>
        <time>2020-08-10T05:45:32.000Z</time>
      </trkpt>
      <trkpt lat="42.3243344016373157501220703125" lon="2.06540512852370738983154296875">
        <ele>1165.4000244140625</ele>
        <time>2020-08-10T05:45:36.000Z</time>
      </trkpt>
      <trkpt lat="42.324365079402923583984375" lon="2.0653121732175350189208984375">
        <ele>1165.800048828125</ele>
        <time>2020-08-10T05:45:39.000Z</time>
      </trkpt>
      <trkpt lat="42.324421741068363189697265625" lon="2.0650791563093662261962890625">
        <ele>1166.5999755859375</ele>
        <time>2020-08-10T05:45:46.000Z</time>
      </trkpt>
      <trkpt lat="42.32445434667170047760009765625" lon="2.06491394899785518646240234375">
        <ele>1166.800048828125</ele>
        <time>2020-08-10T05:45:51.000Z</time>
      </trkpt>
      <trkpt lat="42.32447169721126556396484375" lon="2.06481386907398700714111328125">
        <ele>1167.199951171875</ele>
        <time>2020-08-10T05:45:54.000Z</time>
      </trkpt>
      <trkpt lat="42.3245107568800449371337890625" lon="2.06460935063660144805908203125">
        <ele>1167.800048828125</ele>
        <time>2020-08-10T05:46:00.000Z</time>
      </trkpt>
      <trkpt lat="42.3245166242122650146484375" lon="2.06457884050905704498291015625">
        <ele>1168</ele>
        <time>2020-08-10T05:46:01.000Z</time>
      </trkpt>
      <trkpt lat="42.32453950680792331695556640625" lon="2.0644002221524715423583984375">
        <ele>1168.4000244140625</ele>
        <time>2020-08-10T05:46:06.000Z</time>
      </trkpt>
      <trkpt lat="42.3245546780526638031005859375" lon="2.0642959512770175933837890625">
        <ele>1168.800048828125</ele>
        <time>2020-08-10T05:46:09.000Z</time>
      </trkpt>
      <trkpt lat="42.32458108104765415191650390625" lon="2.0641199313104152679443359375">
        <ele>1169.4000244140625</ele>
        <time>2020-08-10T05:46:14.000Z</time>
      </trkpt>
      <trkpt lat="42.324611507356166839599609375" lon="2.0639600045979022979736328125">
        <ele>1169.800048828125</ele>
        <time>2020-08-10T05:46:19.000Z</time>
      </trkpt>
      <trkpt lat="42.32463388703763484954833984375" lon="2.0638994872570037841796875">
        <ele>1169.800048828125</ele>
        <time>2020-08-10T05:46:21.000Z</time>
      </trkpt>
      <trkpt lat="42.324673198163509368896484375" lon="2.06376445479691028594970703125">
        <ele>1170.199951171875</ele>
        <time>2020-08-10T05:46:25.000Z</time>
      </trkpt>
      <trkpt lat="42.32477688230574131011962890625" lon="2.0635114051401615142822265625">
        <ele>1170.800048828125</ele>
        <time>2020-08-10T05:46:33.000Z</time>
      </trkpt>
      <trkpt lat="42.32479155063629150390625" lon="2.06348064355552196502685546875">
        <ele>1171</ele>
        <time>2020-08-10T05:46:34.000Z</time>
      </trkpt>
      <trkpt lat="42.32485215179622173309326171875" lon="2.06331987865269184112548828125">
        <ele>1171.199951171875</ele>
        <time>2020-08-10T05:46:39.000Z</time>
      </trkpt>
      <trkpt lat="42.32491786591708660125732421875" lon="2.06309088505804538726806640625">
        <ele>1172</ele>
        <time>2020-08-10T05:46:46.000Z</time>
      </trkpt>
      <trkpt lat="42.3249457776546478271484375" lon="2.0628425292670726776123046875">
        <ele>1172.800048828125</ele>
        <time>2020-08-10T05:46:53.000Z</time>
      </trkpt>
      <trkpt lat="42.32494636438786983489990234375" lon="2.062775306403636932373046875">
        <ele>1173</ele>
        <time>2020-08-10T05:46:55.000Z</time>
      </trkpt>
      <trkpt lat="42.324963547289371490478515625" lon="2.0625753141939640045166015625">
        <ele>1173.5999755859375</ele>
        <time>2020-08-10T05:47:01.000Z</time>
      </trkpt>
      <trkpt lat="42.32496522367000579833984375" lon="2.06244044937193393707275390625">
        <ele>1174</ele>
        <time>2020-08-10T05:47:05.000Z</time>
      </trkpt>
      <trkpt lat="42.32496782205998897552490234375" lon="2.06240491010248661041259765625">
        <ele>1174</ele>
        <time>2020-08-10T05:47:06.000Z</time>
      </trkpt>
      <trkpt lat="42.324978299438953399658203125" lon="2.06214590929448604583740234375">
        <ele>1174.5999755859375</ele>
        <time>2020-08-10T05:47:13.000Z</time>
      </trkpt>
      <trkpt lat="42.32498466968536376953125" lon="2.06200861372053623199462890625">
        <ele>1175</ele>
        <time>2020-08-10T05:47:17.000Z</time>
      </trkpt>
      <trkpt lat="42.32498642988502979278564453125" lon="2.0618839748203754425048828125">
        <ele>1175.4000244140625</ele>
        <time>2020-08-10T05:47:21.000Z</time>
      </trkpt>
      <trkpt lat="42.325000762939453125" lon="2.06171893514692783355712890625">
        <ele>1176</ele>
        <time>2020-08-10T05:47:26.000Z</time>
      </trkpt>
      <trkpt lat="42.3250039480626583099365234375" lon="2.0616222918033599853515625">
        <ele>1176.5999755859375</ele>
        <time>2020-08-10T05:47:29.000Z</time>
      </trkpt>
      <trkpt lat="42.32500688172876834869384765625" lon="2.06142959184944629669189453125">
        <ele>1177</ele>
        <time>2020-08-10T05:47:35.000Z</time>
      </trkpt>
      <trkpt lat="42.32500520534813404083251953125" lon="2.06139899790287017822265625">
        <ele>1177</ele>
        <time>2020-08-10T05:47:36.000Z</time>
      </trkpt>
      <trkpt lat="42.3249965719878673553466796875" lon="2.06121199764311313629150390625">
        <ele>1177.800048828125</ele>
        <time>2020-08-10T05:47:42.000Z</time>
      </trkpt>
      <trkpt lat="42.32499598525464534759521484375" lon="2.0611564256250858306884765625">
        <ele>1178</ele>
        <time>2020-08-10T05:47:44.000Z</time>
      </trkpt>
      <trkpt lat="42.325003109872341156005859375" lon="2.06101217307150363922119140625">
        <ele>1179</ele>
        <time>2020-08-10T05:47:49.000Z</time>
      </trkpt>
      <trkpt lat="42.32500369660556316375732421875" lon="2.060982249677181243896484375">
        <ele>1179</ele>
        <time>2020-08-10T05:47:50.000Z</time>
      </trkpt>
      <trkpt lat="42.3250133357942104339599609375" lon="2.0608449541032314300537109375">
        <ele>1179.5999755859375</ele>
        <time>2020-08-10T05:47:55.000Z</time>
      </trkpt>
      <trkpt lat="42.325009815394878387451171875" lon="2.0607748813927173614501953125">
        <ele>1180.199951171875</ele>
        <time>2020-08-10T05:47:58.000Z</time>
      </trkpt>
      <trkpt lat="42.32500637881457805633544921875" lon="2.06072551198303699493408203125">
        <ele>1180.4000244140625</ele>
        <time>2020-08-10T05:48:00.000Z</time>
      </trkpt>
      <trkpt lat="42.3250140063464641571044921875" lon="2.06056122668087482452392578125">
        <ele>1181</ele>
        <time>2020-08-10T05:48:06.000Z</time>
      </trkpt>
      <trkpt lat="42.3250156827270984649658203125" lon="2.0604258589446544647216796875">
        <ele>1181.5999755859375</ele>
        <time>2020-08-10T05:48:11.000Z</time>
      </trkpt>
      <trkpt lat="42.32501056976616382598876953125" lon="2.06031010486185550689697265625">
        <ele>1182</ele>
        <time>2020-08-10T05:48:15.000Z</time>
      </trkpt>
      <trkpt lat="42.32500419951975345611572265625" lon="2.06024564802646636962890625">
        <ele>1182.199951171875</ele>
        <time>2020-08-10T05:48:17.000Z</time>
      </trkpt>
      <trkpt lat="42.32499070465564727783203125" lon="2.060071639716625213623046875">
        <ele>1182.800048828125</ele>
        <time>2020-08-10T05:48:23.000Z</time>
      </trkpt>
      <trkpt lat="42.324987687170505523681640625" lon="2.05997901968657970428466796875">
        <ele>1183.199951171875</ele>
        <time>2020-08-10T05:48:26.000Z</time>
      </trkpt>
      <trkpt lat="42.324984334409236907958984375" lon="2.05985127948224544525146484375">
        <ele>1183.5999755859375</ele>
        <time>2020-08-10T05:48:30.000Z</time>
      </trkpt>
      <trkpt lat="42.3249828256666660308837890625" lon="2.0597556419670581817626953125">
        <ele>1184.199951171875</ele>
        <time>2020-08-10T05:48:33.000Z</time>
      </trkpt>
      <trkpt lat="42.3249902017414569854736328125" lon="2.05966738052666187286376953125">
        <ele>1184.5999755859375</ele>
        <time>2020-08-10T05:48:36.000Z</time>
      </trkpt>
      <trkpt lat="42.32505147345364093780517578125" lon="2.05944173969328403472900390625">
        <ele>1185.4000244140625</ele>
        <time>2020-08-10T05:48:44.000Z</time>
      </trkpt>
      <trkpt lat="42.32509690336883068084716796875" lon="2.05928198061883449554443359375">
        <ele>1186</ele>
        <time>2020-08-10T05:48:50.000Z</time>
      </trkpt>
      <trkpt lat="42.32513680122792720794677734375" lon="2.0591065473854541778564453125">
        <ele>1186.4000244140625</ele>
        <time>2020-08-10T05:48:56.000Z</time>
      </trkpt>
      <trkpt lat="42.32515105046331882476806640625" lon="2.05904938280582427978515625">
        <ele>1186.5999755859375</ele>
        <time>2020-08-10T05:48:58.000Z</time>
      </trkpt>
      <trkpt lat="42.32518038712441921234130859375" lon="2.05893941223621368408203125">
        <ele>1187</ele>
        <time>2020-08-10T05:49:02.000Z</time>
      </trkpt>
      <trkpt lat="42.32520989142358303070068359375" lon="2.058846540749073028564453125">
        <ele>1187.4000244140625</ele>
        <time>2020-08-10T05:49:06.000Z</time>
      </trkpt>
      <trkpt lat="42.32524006627500057220458984375" lon="2.058775126934051513671875">
        <ele>1187.800048828125</ele>
        <time>2020-08-10T05:49:09.000Z</time>
      </trkpt>
      <trkpt lat="42.32529505155980587005615234375" lon="2.05866104923188686370849609375">
        <ele>1188.5999755859375</ele>
        <time>2020-08-10T05:49:14.000Z</time>
      </trkpt>
      <trkpt lat="42.325339056551456451416015625" lon="2.0585711114108562469482421875">
        <ele>1188.800048828125</ele>
        <time>2020-08-10T05:49:18.000Z</time>
      </trkpt>
      <trkpt lat="42.32538842596113681793212890625" lon="2.0584886334836483001708984375">
        <ele>1189.4000244140625</ele>
        <time>2020-08-10T05:49:22.000Z</time>
      </trkpt>
      <trkpt lat="42.32541725970804691314697265625" lon="2.05845586024224758148193359375">
        <ele>1189.800048828125</ele>
        <time>2020-08-10T05:49:24.000Z</time>
      </trkpt>
      <trkpt lat="42.3254875838756561279296875" lon="2.0583660900592803955078125">
        <ele>1190.5999755859375</ele>
        <time>2020-08-10T05:49:29.000Z</time>
      </trkpt>
      <trkpt lat="42.325540892779827117919921875" lon="2.05829626880586147308349609375">
        <ele>1191.199951171875</ele>
        <time>2020-08-10T05:49:33.000Z</time>
      </trkpt>
      <trkpt lat="42.3255534656345844268798828125" lon="2.0582777447998523712158203125">
        <ele>1191.199951171875</ele>
        <time>2020-08-10T05:49:34.000Z</time>
      </trkpt>
      <trkpt lat="42.3255893401801586151123046875" lon="2.058218903839588165283203125">
        <ele>1191.5999755859375</ele>
        <time>2020-08-10T05:49:37.000Z</time>
      </trkpt>
      <trkpt lat="42.32562663964927196502685546875" lon="2.0581231825053691864013671875">
        <ele>1192.4000244140625</ele>
        <time>2020-08-10T05:49:41.000Z</time>
      </trkpt>
      <trkpt lat="42.32565010897815227508544921875" lon="2.05808169208467006683349609375">
        <ele>1192.5999755859375</ele>
        <time>2020-08-10T05:49:43.000Z</time>
      </trkpt>
      <trkpt lat="42.3257043398916721343994140625" lon="2.05797591246664524078369140625">
        <ele>1193.4000244140625</ele>
        <time>2020-08-10T05:49:48.000Z</time>
      </trkpt>
      <trkpt lat="42.32573962770402431488037109375" lon="2.05791355110704898834228515625">
        <ele>1193.5999755859375</ele>
        <time>2020-08-10T05:49:51.000Z</time>
      </trkpt>
      <trkpt lat="42.325799055397510528564453125" lon="2.05780617892742156982421875">
        <ele>1194</ele>
        <time>2020-08-10T05:49:56.000Z</time>
      </trkpt>
      <trkpt lat="42.32587181031703948974609375" lon="2.05767265520989894866943359375">
        <ele>1194.5999755859375</ele>
        <time>2020-08-10T05:50:02.000Z</time>
      </trkpt>
      <trkpt lat="42.3259024880826473236083984375" lon="2.05760275013744831085205078125">
        <ele>1195</ele>
        <time>2020-08-10T05:50:05.000Z</time>
      </trkpt>
      <trkpt lat="42.32594699598848819732666015625" lon="2.05751691944897174835205078125">
        <ele>1195.5999755859375</ele>
        <time>2020-08-10T05:50:09.000Z</time>
      </trkpt>
      <trkpt lat="42.3259903304278850555419921875" lon="2.05743159167468547821044921875">
        <ele>1196.199951171875</ele>
        <time>2020-08-10T05:50:13.000Z</time>
      </trkpt>
      <trkpt lat="42.32602813281118869781494140625" lon="2.0573416538536548614501953125">
        <ele>1196.5999755859375</ele>
        <time>2020-08-10T05:50:17.000Z</time>
      </trkpt>
      <trkpt lat="42.32605897821485996246337890625" lon="2.057276107370853424072265625">
        <ele>1197.199951171875</ele>
        <time>2020-08-10T05:50:20.000Z</time>
      </trkpt>
      <trkpt lat="42.3260986246168613433837890625" lon="2.0571884326636791229248046875">
        <ele>1197.5999755859375</ele>
        <time>2020-08-10T05:50:24.000Z</time>
      </trkpt>
      <trkpt lat="42.326151430606842041015625" lon="2.0570546574890613555908203125">
        <ele>1198.5999755859375</ele>
        <time>2020-08-10T05:50:30.000Z</time>
      </trkpt>
      <trkpt lat="42.32615972869098186492919921875" lon="2.05703110434114933013916015625">
        <ele>1198.5999755859375</ele>
        <time>2020-08-10T05:50:31.000Z</time>
      </trkpt>
      <trkpt lat="42.3262082599103450775146484375" lon="2.05686044879257678985595703125">
        <ele>1199.5999755859375</ele>
        <time>2020-08-10T05:50:38.000Z</time>
      </trkpt>
      <trkpt lat="42.32621454633772373199462890625" lon="2.0568345487117767333984375">
        <ele>1199.800048828125</ele>
        <time>2020-08-10T05:50:39.000Z</time>
      </trkpt>
      <trkpt lat="42.32625729404389858245849609375" lon="2.0566308684647083282470703125">
        <ele>1200.5999755859375</ele>
        <time>2020-08-10T05:50:47.000Z</time>
      </trkpt>
      <trkpt lat="42.3262662626802921295166015625" lon="2.05657915212213993072509765625">
        <ele>1201</ele>
        <time>2020-08-10T05:50:49.000Z</time>
      </trkpt>
      <trkpt lat="42.326298616826534271240234375" lon="2.05643020570278167724609375">
        <ele>1201.4000244140625</ele>
        <time>2020-08-10T05:50:55.000Z</time>
      </trkpt>
      <trkpt lat="42.326308004558086395263671875" lon="2.05635376274585723876953125">
        <ele>1201.800048828125</ele>
        <time>2020-08-10T05:50:58.000Z</time>
      </trkpt>
      <trkpt lat="42.32631127350032329559326171875" lon="2.05629014410078525543212890625">
        <ele>1202.199951171875</ele>
        <time>2020-08-10T05:51:01.000Z</time>
      </trkpt>
      <trkpt lat="42.32631496153771877288818359375" lon="2.0562737993896007537841796875">
        <ele>1202.199951171875</ele>
        <time>2020-08-10T05:51:02.000Z</time>
      </trkpt>
      <trkpt lat="42.326321415603160858154296875" lon="2.05620699562132358551025390625">
        <ele>1202.800048828125</ele>
        <time>2020-08-10T05:51:06.000Z</time>
      </trkpt>
      <trkpt lat="42.3263205774128437042236328125" lon="2.05613248050212860107421875">
        <ele>1203.199951171875</ele>
        <time>2020-08-10T05:51:10.000Z</time>
      </trkpt>
      <trkpt lat="42.32631714083254337310791015625" lon="2.05595151521265506744384765625">
        <ele>1203.800048828125</ele>
        <time>2020-08-10T05:51:19.000Z</time>
      </trkpt>
      <trkpt lat="42.32631227932870388031005859375" lon="2.0557796023786067962646484375">
        <ele>1204.5999755859375</ele>
        <time>2020-08-10T05:51:27.000Z</time>
      </trkpt>
      <trkpt lat="42.3263085074722766876220703125" lon="2.05573945306241512298583984375">
        <ele>1204.800048828125</ele>
        <time>2020-08-10T05:51:29.000Z</time>
      </trkpt>
      <trkpt lat="42.3263095133006572723388671875" lon="2.0556320808827877044677734375">
        <ele>1205.5999755859375</ele>
        <time>2020-08-10T05:51:34.000Z</time>
      </trkpt>
      <trkpt lat="42.32630456797778606414794921875" lon="2.05556192435324192047119140625">
        <ele>1205.800048828125</ele>
        <time>2020-08-10T05:51:37.000Z</time>
      </trkpt>
      <trkpt lat="42.3263028077781200408935546875" lon="2.05551431514322757720947265625">
        <ele>1206</ele>
        <time>2020-08-10T05:51:39.000Z</time>
      </trkpt>
      <trkpt lat="42.32627171091735363006591796875" lon="2.055357992649078369140625">
        <ele>1206.5999755859375</ele>
        <time>2020-08-10T05:51:45.000Z</time>
      </trkpt>
      <trkpt lat="42.326232232153415679931640625" lon="2.055261768400669097900390625">
        <ele>1207</ele>
        <time>2020-08-10T05:51:49.000Z</time>
      </trkpt>
      <trkpt lat="42.32617800123989582061767578125" lon="2.05518373288214206695556640625">
        <ele>1207.199951171875</ele>
        <time>2020-08-10T05:51:53.000Z</time>
      </trkpt>
      <trkpt lat="42.32615671120584011077880859375" lon="2.05514316447079181671142578125">
        <ele>1207.800048828125</ele>
        <time>2020-08-10T05:51:55.000Z</time>
      </trkpt>
      <trkpt lat="42.3261127062141895294189453125" lon="2.055062614381313323974609375">
        <ele>1208</ele>
        <time>2020-08-10T05:51:59.000Z</time>
      </trkpt>
      <trkpt lat="42.3260607384145259857177734375" lon="2.05494803376495838165283203125">
        <ele>1208.800048828125</ele>
        <time>2020-08-10T05:52:04.000Z</time>
      </trkpt>
      <trkpt lat="42.3260516859591007232666015625" lon="2.0549280010163784027099609375">
        <ele>1208.800048828125</ele>
        <time>2020-08-10T05:52:05.000Z</time>
      </trkpt>
      <trkpt lat="42.3260151408612728118896484375" lon="2.0548478700220584869384765625">
        <ele>1209.199951171875</ele>
        <time>2020-08-10T05:52:09.000Z</time>
      </trkpt>
      <trkpt lat="42.32600449584424495697021484375" lon="2.054825238883495330810546875">
        <ele>1209.199951171875</ele>
        <time>2020-08-10T05:52:10.000Z</time>
      </trkpt>
      <trkpt lat="42.32593090273439884185791015625" lon="2.0547328703105449676513671875">
        <ele>1209.5999755859375</ele>
        <time>2020-08-10T05:52:15.000Z</time>
      </trkpt>
      <trkpt lat="42.3259152285754680633544921875" lon="2.054713256657123565673828125">
        <ele>1209.5999755859375</ele>
        <time>2020-08-10T05:52:16.000Z</time>
      </trkpt>
      <trkpt lat="42.32583216391503810882568359375" lon="2.05462432466447353363037109375">
        <ele>1210.4000244140625</ele>
        <time>2020-08-10T05:52:21.000Z</time>
      </trkpt>
      <trkpt lat="42.3257824592292308807373046875" lon="2.05457923002541065216064453125">
        <ele>1210.800048828125</ele>
        <time>2020-08-10T05:52:24.000Z</time>
      </trkpt>
      <trkpt lat="42.32574415393173694610595703125" lon="2.054518125951290130615234375">
        <ele>1211.199951171875</ele>
        <time>2020-08-10T05:52:27.000Z</time>
      </trkpt>
      <trkpt lat="42.32566888444125652313232421875" lon="2.054400108754634857177734375">
        <ele>1211.5999755859375</ele>
        <time>2020-08-10T05:52:33.000Z</time>
      </trkpt>
      <trkpt lat="42.32565513812005519866943359375" lon="2.0543804951012134552001953125">
        <ele>1211.800048828125</ele>
        <time>2020-08-10T05:52:34.000Z</time>
      </trkpt>
      <trkpt lat="42.32561029493808746337890625" lon="2.05428904853761196136474609375">
        <ele>1212.199951171875</ele>
        <time>2020-08-10T05:52:38.000Z</time>
      </trkpt>
      <trkpt lat="42.3255836404860019683837890625" lon="2.05419726669788360595703125">
        <ele>1212.800048828125</ele>
        <time>2020-08-10T05:52:42.000Z</time>
      </trkpt>
      <trkpt lat="42.32555002905428409576416015625" lon="2.05407380126416683197021484375">
        <ele>1213.4000244140625</ele>
        <time>2020-08-10T05:52:47.000Z</time>
      </trkpt>
      <trkpt lat="42.32555505819618701934814453125" lon="2.05396751873195171356201171875">
        <ele>1213.800048828125</ele>
        <time>2020-08-10T05:52:51.000Z</time>
      </trkpt>
      <trkpt lat="42.325541563332080841064453125" lon="2.0538534410297870635986328125">
        <ele>1214.4000244140625</ele>
        <time>2020-08-10T05:52:56.000Z</time>
      </trkpt>
      <trkpt lat="42.32553678564727306365966796875" lon="2.0537552051246166229248046875">
        <ele>1214.800048828125</ele>
        <time>2020-08-10T05:53:00.000Z</time>
      </trkpt>
      <trkpt lat="42.32554717920720577239990234375" lon="2.05367960035800933837890625">
        <ele>1215.4000244140625</ele>
        <time>2020-08-10T05:53:03.000Z</time>
      </trkpt>
      <trkpt lat="42.3255755938589572906494140625" lon="2.05352579243481159210205078125">
        <ele>1215.800048828125</ele>
        <time>2020-08-10T05:53:09.000Z</time>
      </trkpt>
      <trkpt lat="42.3255806230008602142333984375" lon="2.05350299365818500518798828125">
        <ele>1216</ele>
        <time>2020-08-10T05:53:10.000Z</time>
      </trkpt>
      <trkpt lat="42.3256144858896732330322265625" lon="2.05335245467722415924072265625">
        <ele>1216.199951171875</ele>
        <time>2020-08-10T05:53:16.000Z</time>
      </trkpt>
      <trkpt lat="42.32562596909701824188232421875" lon="2.05327735282480716705322265625">
        <ele>1216.800048828125</ele>
        <time>2020-08-10T05:53:19.000Z</time>
      </trkpt>
      <trkpt lat="42.32563233934342861175537109375" lon="2.0531758479773998260498046875">
        <ele>1217.199951171875</ele>
        <time>2020-08-10T05:53:23.000Z</time>
      </trkpt>
      <trkpt lat="42.325627394020557403564453125" lon="2.05303293652832508087158203125">
        <ele>1217.800048828125</ele>
        <time>2020-08-10T05:53:29.000Z</time>
      </trkpt>
      <trkpt lat="42.32562731020152568817138671875" lon="2.0530125685036182403564453125">
        <ele>1217.800048828125</ele>
        <time>2020-08-10T05:53:30.000Z</time>
      </trkpt>
      <trkpt lat="42.32561775483191013336181640625" lon="2.05286211334168910980224609375">
        <ele>1218</ele>
        <time>2020-08-10T05:53:37.000Z</time>
      </trkpt>
      <trkpt lat="42.32558707706630229949951171875" lon="2.05273118801414966583251953125">
        <ele>1218.800048828125</ele>
        <time>2020-08-10T05:53:43.000Z</time>
      </trkpt>
      <trkpt lat="42.3255742527544498443603515625" lon="2.05268341116607189178466796875">
        <ele>1219</ele>
        <time>2020-08-10T05:53:45.000Z</time>
      </trkpt>
      <trkpt lat="42.32553184032440185546875" lon="2.052509821951389312744140625">
        <ele>1219.800048828125</ele>
        <time>2020-08-10T05:53:52.000Z</time>
      </trkpt>
      <trkpt lat="42.3255132324993610382080078125" lon="2.0524598658084869384765625">
        <ele>1220</ele>
        <time>2020-08-10T05:53:54.000Z</time>
      </trkpt>
      <trkpt lat="42.32546621002256870269775390625" lon="2.0522836782038211822509765625">
        <ele>1221</ele>
        <time>2020-08-10T05:54:01.000Z</time>
      </trkpt>
      <trkpt lat="42.32545078732073307037353515625" lon="2.0522307045757770538330078125">
        <ele>1221</ele>
        <time>2020-08-10T05:54:03.000Z</time>
      </trkpt>
      <trkpt lat="42.3253911919891834259033203125" lon="2.0520308800041675567626953125">
        <ele>1221.5999755859375</ele>
        <time>2020-08-10T05:54:11.000Z</time>
      </trkpt>
      <trkpt lat="42.32538440264761447906494140625" lon="2.0520067401230335235595703125">
        <ele>1221.800048828125</ele>
        <time>2020-08-10T05:54:12.000Z</time>
      </trkpt>
      <trkpt lat="42.32533494941890239715576171875" lon="2.05181144177913665771484375">
        <ele>1222.4000244140625</ele>
        <time>2020-08-10T05:54:20.000Z</time>
      </trkpt>
      <trkpt lat="42.3253107257187366485595703125" lon="2.05173793248832225799560546875">
        <ele>1222.800048828125</ele>
        <time>2020-08-10T05:54:23.000Z</time>
      </trkpt>
      <trkpt lat="42.32527459971606731414794921875" lon="2.05161429941654205322265625">
        <ele>1223.199951171875</ele>
        <time>2020-08-10T05:54:28.000Z</time>
      </trkpt>
      <trkpt lat="42.32524660415947437286376953125" lon="2.0515165664255619049072265625">
        <ele>1223.800048828125</ele>
        <time>2020-08-10T05:54:32.000Z</time>
      </trkpt>
      <trkpt lat="42.32521525584161281585693359375" lon="2.051420174539089202880859375">
        <ele>1224</ele>
        <time>2020-08-10T05:54:36.000Z</time>
      </trkpt>
      <trkpt lat="42.32516898773610591888427734375" lon="2.0512798614799976348876953125">
        <ele>1224.800048828125</ele>
        <time>2020-08-10T05:54:42.000Z</time>
      </trkpt>
      <trkpt lat="42.32513613067567348480224609375" lon="2.051212973892688751220703125">
        <ele>1225</ele>
        <time>2020-08-10T05:54:45.000Z</time>
      </trkpt>
      <trkpt lat="42.3250847496092319488525390625" lon="2.05104005523025989532470703125">
        <ele>1225.800048828125</ele>
        <time>2020-08-10T05:54:52.000Z</time>
      </trkpt>
      <trkpt lat="42.32507519423961639404296875" lon="2.0510153286159038543701171875">
        <ele>1225.800048828125</ele>
        <time>2020-08-10T05:54:53.000Z</time>
      </trkpt>
      <trkpt lat="42.32502196915447711944580078125" lon="2.05086596310138702392578125">
        <ele>1226.4000244140625</ele>
        <time>2020-08-10T05:54:59.000Z</time>
      </trkpt>
      <trkpt lat="42.324971258640289306640625" lon="2.05071819014847278594970703125">
        <ele>1226.800048828125</ele>
        <time>2020-08-10T05:55:05.000Z</time>
      </trkpt>
      <trkpt lat="42.32495407573878765106201171875" lon="2.050667814910411834716796875">
        <ele>1227</ele>
        <time>2020-08-10T05:55:07.000Z</time>
      </trkpt>
      <trkpt lat="42.32488098554313182830810546875" lon="2.05047679133713245391845703125">
        <ele>1227.5999755859375</ele>
        <time>2020-08-10T05:55:15.000Z</time>
      </trkpt>
      <trkpt lat="42.32487143017351627349853515625" lon="2.05045131035149097442626953125">
        <ele>1227.800048828125</ele>
        <time>2020-08-10T05:55:16.000Z</time>
      </trkpt>
      <trkpt lat="42.32479222118854522705078125" lon="2.0502284355461597442626953125">
        <ele>1228.4000244140625</ele>
        <time>2020-08-10T05:55:25.000Z</time>
      </trkpt>
      <trkpt lat="42.32477839104831218719482421875" lon="2.05018057487905025482177734375">
        <ele>1228.800048828125</ele>
        <time>2020-08-10T05:55:27.000Z</time>
      </trkpt>
      <trkpt lat="42.32474251650273799896240234375" lon="2.05005585215985774993896484375">
        <ele>1229.5999755859375</ele>
        <time>2020-08-10T05:55:32.000Z</time>
      </trkpt>
      <trkpt lat="42.32472382485866546630859375" lon="2.050010003149509429931640625">
        <ele>1229.5999755859375</ele>
        <time>2020-08-10T05:55:34.000Z</time>
      </trkpt>
      <trkpt lat="42.3246941529214382171630859375" lon="2.04991218633949756622314453125">
        <ele>1230.4000244140625</ele>
        <time>2020-08-10T05:55:38.000Z</time>
      </trkpt>
      <trkpt lat="42.324665822088718414306640625" lon="2.04984345473349094390869140625">
        <ele>1230.800048828125</ele>
        <time>2020-08-10T05:55:41.000Z</time>
      </trkpt>
      <trkpt lat="42.32462449930608272552490234375" lon="2.04975879751145839691162109375">
        <ele>1231.4000244140625</ele>
        <time>2020-08-10T05:55:45.000Z</time>
      </trkpt>
      <trkpt lat="42.32459373772144317626953125" lon="2.049694843590259552001953125">
        <ele>1231.800048828125</ele>
        <time>2020-08-10T05:55:48.000Z</time>
      </trkpt>
      <trkpt lat="42.32455912046134471893310546875" lon="2.0496128685772418975830078125">
        <ele>1232.5999755859375</ele>
        <time>2020-08-10T05:55:52.000Z</time>
      </trkpt>
      <trkpt lat="42.324522323906421661376953125" lon="2.0495324023067951202392578125">
        <ele>1233</ele>
        <time>2020-08-10T05:55:56.000Z</time>
      </trkpt>
      <trkpt lat="42.3244825936853885650634765625" lon="2.04944975674152374267578125">
        <ele>1233.5999755859375</ele>
        <time>2020-08-10T05:56:00.000Z</time>
      </trkpt>
      <trkpt lat="42.32443775050342082977294921875" lon="2.04937742091715335845947265625">
        <ele>1233.800048828125</ele>
        <time>2020-08-10T05:56:04.000Z</time>
      </trkpt>
      <trkpt lat="42.324407659471035003662109375" lon="2.049320675432682037353515625">
        <ele>1234.199951171875</ele>
        <time>2020-08-10T05:56:07.000Z</time>
      </trkpt>
      <trkpt lat="42.3243364132940769195556640625" lon="2.04921162687242031097412109375">
        <ele>1235</ele>
        <time>2020-08-10T05:56:13.000Z</time>
      </trkpt>
      <trkpt lat="42.32429894618690013885498046875" lon="2.04915781505405902862548828125">
        <ele>1235.4000244140625</ele>
        <time>2020-08-10T05:56:16.000Z</time>
      </trkpt>
      <trkpt lat="42.3242403566837310791015625" lon="2.04907466657459735870361328125">
        <ele>1235.800048828125</ele>
        <time>2020-08-10T05:56:21.000Z</time>
      </trkpt>
      <trkpt lat="42.32419651933014392852783203125" lon="2.04900543205440044403076171875">
        <ele>1236.4000244140625</ele>
        <time>2020-08-10T05:56:25.000Z</time>
      </trkpt>
      <trkpt lat="42.3241531848907470703125" lon="2.04895899631083011627197265625">
        <ele>1236.800048828125</ele>
        <time>2020-08-10T05:56:28.000Z</time>
      </trkpt>
      <trkpt lat="42.324106581509113311767578125" lon="2.04892010428011417388916015625">
        <ele>1237.4000244140625</ele>
        <time>2020-08-10T05:56:32.000Z</time>
      </trkpt>
      <trkpt lat="42.32408889569342136383056640625" lon="2.0489014126360416412353515625">
        <ele>1237.5999755859375</ele>
        <time>2020-08-10T05:56:34.000Z</time>
      </trkpt>
      <trkpt lat="42.3240594752132892608642578125" lon="2.048875428736209869384765625">
        <ele>1237.800048828125</ele>
        <time>2020-08-10T05:56:37.000Z</time>
      </trkpt>
      <trkpt lat="42.3240494169294834136962890625" lon="2.04886662773787975311279296875">
        <ele>1237.800048828125</ele>
        <time>2020-08-10T05:56:38.000Z</time>
      </trkpt>
      <trkpt lat="42.32398353517055511474609375" lon="2.048825807869434356689453125">
        <ele>1238.199951171875</ele>
        <time>2020-08-10T05:56:44.000Z</time>
      </trkpt>
      <trkpt lat="42.32395914383232593536376953125" lon="2.048813737928867340087890625">
        <ele>1238.4000244140625</ele>
        <time>2020-08-10T05:56:46.000Z</time>
      </trkpt>
      <trkpt lat="42.3238811083137989044189453125" lon="2.04877057112753391265869140625">
        <ele>1238.5999755859375</ele>
        <time>2020-08-10T05:56:52.000Z</time>
      </trkpt>
      <trkpt lat="42.3238512687385082244873046875" lon="2.04875498078763484954833984375">
        <ele>1238.5999755859375</ele>
        <time>2020-08-10T05:56:54.000Z</time>
      </trkpt>
      <trkpt lat="42.32370651327073574066162109375" lon="2.04869563691318035125732421875">
        <ele>1239.5999755859375</ele>
        <time>2020-08-10T05:57:03.000Z</time>
      </trkpt>
      <trkpt lat="42.3236886598169803619384765625" lon="2.0486886799335479736328125">
        <ele>1239.5999755859375</ele>
        <time>2020-08-10T05:57:04.000Z</time>
      </trkpt>
      <trkpt lat="42.32350610196590423583984375" lon="2.04859681427478790283203125">
        <ele>1240.5999755859375</ele>
        <time>2020-08-10T05:57:14.000Z</time>
      </trkpt>
      <trkpt lat="42.323378361761569976806640625" lon="2.048467062413692474365234375">
        <ele>1241</ele>
        <time>2020-08-10T05:57:21.000Z</time>
      </trkpt>
      <trkpt lat="42.3233091272413730621337890625" lon="2.04831090755760669708251953125">
        <ele>1240.800048828125</ele>
        <time>2020-08-10T05:57:26.000Z</time>
      </trkpt>
      <trkpt lat="42.32321441173553466796875" lon="2.0480149425566196441650390625">
        <ele>1239.800048828125</ele>
        <time>2020-08-10T05:57:32.000Z</time>
      </trkpt>
      <trkpt lat="42.32313218526542186737060546875" lon="2.04783238470554351806640625">
        <ele>1239.800048828125</ele>
        <time>2020-08-10T05:57:37.000Z</time>
      </trkpt>
      <trkpt lat="42.3230811394751071929931640625" lon="2.047735489904880523681640625">
        <ele>1240.5999755859375</ele>
        <time>2020-08-10T05:57:42.000Z</time>
      </trkpt>
      <trkpt lat="42.32302330434322357177734375" lon="2.047594673931598663330078125">
        <ele>1240.4000244140625</ele>
        <time>2020-08-10T05:57:49.000Z</time>
      </trkpt>
      <trkpt lat="42.32295197434723377227783203125" lon="2.04739560373127460479736328125">
        <ele>1241.199951171875</ele>
        <time>2020-08-10T05:57:58.000Z</time>
      </trkpt>
      <trkpt lat="42.32287888415157794952392578125" lon="2.0472243614494800567626953125">
        <ele>1242</ele>
        <time>2020-08-10T05:58:06.000Z</time>
      </trkpt>
      <trkpt lat="42.322845272719860076904296875" lon="2.04716107808053493499755859375">
        <ele>1242.199951171875</ele>
        <time>2020-08-10T05:58:09.000Z</time>
      </trkpt>
      <trkpt lat="42.32279204763472080230712890625" lon="2.047082372009754180908203125">
        <ele>1242.4000244140625</ele>
        <time>2020-08-10T05:58:13.000Z</time>
      </trkpt>
      <trkpt lat="42.3226962424814701080322265625" lon="2.046981789171695709228515625">
        <ele>1242.5999755859375</ele>
        <time>2020-08-10T05:58:19.000Z</time>
      </trkpt>
      <trkpt lat="42.3226191289722919464111328125" lon="2.0467869937419891357421875">
        <ele>1242.5999755859375</ele>
        <time>2020-08-10T05:58:26.000Z</time>
      </trkpt>
      <trkpt lat="42.3226040415465831756591796875" lon="2.046542577445507049560546875">
        <ele>1242.5999755859375</ele>
        <time>2020-08-10T05:58:34.000Z</time>
      </trkpt>
      <trkpt lat="42.3225708492100238800048828125" lon="2.0463551580905914306640625">
        <ele>1243</ele>
        <time>2020-08-10T05:58:40.000Z</time>
      </trkpt>
      <trkpt lat="42.32256464660167694091796875" lon="2.04632322303950786590576171875">
        <ele>1243</ele>
        <time>2020-08-10T05:58:41.000Z</time>
      </trkpt>
      <trkpt lat="42.32254360802471637725830078125" lon="2.04614116810262203216552734375">
        <ele>1243.199951171875</ele>
        <time>2020-08-10T05:58:47.000Z</time>
      </trkpt>
      <trkpt lat="42.322509326040744781494140625" lon="2.045949809253215789794921875">
        <ele>1243.800048828125</ele>
        <time>2020-08-10T05:58:53.000Z</time>
      </trkpt>
      <trkpt lat="42.3225011117756366729736328125" lon="2.045889794826507568359375">
        <ele>1244</ele>
        <time>2020-08-10T05:58:55.000Z</time>
      </trkpt>
      <trkpt lat="42.3224887065589427947998046875" lon="2.04576440155506134033203125">
        <ele>1244.199951171875</ele>
        <time>2020-08-10T05:58:59.000Z</time>
      </trkpt>
      <trkpt lat="42.32248409651219844818115234375" lon="2.0455612242221832275390625">
        <ele>1244.4000244140625</ele>
        <time>2020-08-10T05:59:05.000Z</time>
      </trkpt>
      <trkpt lat="42.3224913887679576873779296875" lon="2.04546399414539337158203125">
        <ele>1244.800048828125</ele>
        <time>2020-08-10T05:59:08.000Z</time>
      </trkpt>
      <trkpt lat="42.32249884866178035736083984375" lon="2.04533399082720279693603515625">
        <ele>1245.4000244140625</ele>
        <time>2020-08-10T05:59:12.000Z</time>
      </trkpt>
      <trkpt lat="42.3225116729736328125" lon="2.045257799327373504638671875">
        <ele>1245.5999755859375</ele>
        <time>2020-08-10T05:59:15.000Z</time>
      </trkpt>
      <trkpt lat="42.32251427136361598968505859375" lon="2.04517322592437267303466796875">
        <ele>1245.800048828125</ele>
        <time>2020-08-10T05:59:18.000Z</time>
      </trkpt>
      <trkpt lat="42.32251209206879138946533203125" lon="2.0450061745941638946533203125">
        <ele>1246.5999755859375</ele>
        <time>2020-08-10T05:59:23.000Z</time>
      </trkpt>
      <trkpt lat="42.3225111700594425201416015625" lon="2.04490031115710735321044921875">
        <ele>1247</ele>
        <time>2020-08-10T05:59:26.000Z</time>
      </trkpt>
      <trkpt lat="42.32250672765076160430908203125" lon="2.0447325892746448516845703125">
        <ele>1247.800048828125</ele>
        <time>2020-08-10T05:59:31.000Z</time>
      </trkpt>
      <trkpt lat="42.32250697910785675048828125" lon="2.04463762231171131134033203125">
        <ele>1248.199951171875</ele>
        <time>2020-08-10T05:59:34.000Z</time>
      </trkpt>
      <trkpt lat="42.32249583117663860321044921875" lon="2.044412232935428619384765625">
        <ele>1248.5999755859375</ele>
        <time>2020-08-10T05:59:41.000Z</time>
      </trkpt>
      <trkpt lat="42.32248376123607158660888671875" lon="2.04415105283260345458984375">
        <ele>1249.4000244140625</ele>
        <time>2020-08-10T05:59:49.000Z</time>
      </trkpt>
      <trkpt lat="42.32248149812221527099609375" lon="2.0441180281341075897216796875">
        <ele>1249.5999755859375</ele>
        <time>2020-08-10T05:59:50.000Z</time>
      </trkpt>
      <trkpt lat="42.32248560525476932525634765625" lon="2.04394125379621982574462890625">
        <ele>1250.199951171875</ele>
        <time>2020-08-10T05:59:56.000Z</time>
      </trkpt>
      <trkpt lat="42.32248711399734020233154296875" lon="2.04385466873645782470703125">
        <ele>1250.4000244140625</ele>
        <time>2020-08-10T05:59:59.000Z</time>
      </trkpt>
      <trkpt lat="42.322482503950595855712890625" lon="2.0436922274529933929443359375">
        <ele>1251.4000244140625</ele>
        <time>2020-08-10T06:00:04.000Z</time>
      </trkpt>
      <trkpt lat="42.322486527264118194580078125" lon="2.043632380664348602294921875">
        <ele>1251.5999755859375</ele>
        <time>2020-08-10T06:00:06.000Z</time>
      </trkpt>
      <trkpt lat="42.32248242013156414031982421875" lon="2.0435215719044208526611328125">
        <ele>1252</ele>
        <time>2020-08-10T06:00:10.000Z</time>
      </trkpt>
      <trkpt lat="42.3224830068647861480712890625" lon="2.0433455519378185272216796875">
        <ele>1252.5999755859375</ele>
        <time>2020-08-10T06:00:16.000Z</time>
      </trkpt>
      <trkpt lat="42.32248376123607158660888671875" lon="2.0433170534670352935791015625">
        <ele>1252.800048828125</ele>
        <time>2020-08-10T06:00:17.000Z</time>
      </trkpt>
      <trkpt lat="42.32248275540769100189208984375" lon="2.043113373219966888427734375">
        <ele>1253.5999755859375</ele>
        <time>2020-08-10T06:00:24.000Z</time>
      </trkpt>
      <trkpt lat="42.32248845510184764862060546875" lon="2.04303517006337642669677734375">
        <ele>1254</ele>
        <time>2020-08-10T06:00:27.000Z</time>
      </trkpt>
      <trkpt lat="42.32248141430318355560302734375" lon="2.0429760776460170745849609375">
        <ele>1254.199951171875</ele>
        <time>2020-08-10T06:00:29.000Z</time>
      </trkpt>
      <trkpt lat="42.32247739098966121673583984375" lon="2.042913548648357391357421875">
        <ele>1254.5999755859375</ele>
        <time>2020-08-10T06:00:31.000Z</time>
      </trkpt>
      <trkpt lat="42.32246414758265018463134765625" lon="2.04276703298091888427734375">
        <ele>1255</ele>
        <time>2020-08-10T06:00:36.000Z</time>
      </trkpt>
      <trkpt lat="42.3224245011806488037109375" lon="2.04261557199060916900634765625">
        <ele>1255.4000244140625</ele>
        <time>2020-08-10T06:00:41.000Z</time>
      </trkpt>
      <trkpt lat="42.32241821475327014923095703125" lon="2.0425593294203281402587890625">
        <ele>1255.5999755859375</ele>
        <time>2020-08-10T06:00:43.000Z</time>
      </trkpt>
      <trkpt lat="42.32241201214492321014404296875" lon="2.04253359697759151458740234375">
        <ele>1255.5999755859375</ele>
        <time>2020-08-10T06:00:44.000Z</time>
      </trkpt>
      <trkpt lat="42.32238292694091796875" lon="2.0424372889101505279541015625">
        <ele>1255.5999755859375</ele>
        <time>2020-08-10T06:00:47.000Z</time>
      </trkpt>
      <trkpt lat="42.32233808375895023345947265625" lon="2.0422352850437164306640625">
        <ele>1256</ele>
        <time>2020-08-10T06:00:53.000Z</time>
      </trkpt>
      <trkpt lat="42.322286702692508697509765625" lon="2.042041830718517303466796875">
        <ele>1256</ele>
        <time>2020-08-10T06:00:59.000Z</time>
      </trkpt>
      <trkpt lat="42.32227304019033908843994140625" lon="2.04197720624506473541259765625">
        <ele>1256.199951171875</ele>
        <time>2020-08-10T06:01:01.000Z</time>
      </trkpt>
      <trkpt lat="42.32224102132022380828857421875" lon="2.04177419655025005340576171875">
        <ele>1256.5999755859375</ele>
        <time>2020-08-10T06:01:07.000Z</time>
      </trkpt>
      <trkpt lat="42.32222811318933963775634765625" lon="2.04167813993990421295166015625">
        <ele>1257</ele>
        <time>2020-08-10T06:01:10.000Z</time>
      </trkpt>
      <trkpt lat="42.322215624153614044189453125" lon="2.04157747328281402587890625">
        <ele>1257.199951171875</ele>
        <time>2020-08-10T06:01:13.000Z</time>
      </trkpt>
      <trkpt lat="42.32220162637531757354736328125" lon="2.0413877069950103759765625">
        <ele>1257.4000244140625</ele>
        <time>2020-08-10T06:01:19.000Z</time>
      </trkpt>
      <trkpt lat="42.322198860347270965576171875" lon="2.04131738282740116119384765625">
        <ele>1257.800048828125</ele>
        <time>2020-08-10T06:01:21.000Z</time>
      </trkpt>
      <trkpt lat="42.3221950046718120574951171875" lon="2.04122073948383331298828125">
        <ele>1257.800048828125</ele>
        <time>2020-08-10T06:01:24.000Z</time>
      </trkpt>
      <trkpt lat="42.3221913166344165802001953125" lon="2.04118964262306690216064453125">
        <ele>1257.800048828125</ele>
        <time>2020-08-10T06:01:25.000Z</time>
      </trkpt>
      <trkpt lat="42.3221742175519466400146484375" lon="2.040981017053127288818359375">
        <ele>1258.199951171875</ele>
        <time>2020-08-10T06:01:31.000Z</time>
      </trkpt>
      <trkpt lat="42.32216474600136280059814453125" lon="2.0407622493803501129150390625">
        <ele>1258.4000244140625</ele>
        <time>2020-08-10T06:01:37.000Z</time>
      </trkpt>
      <trkpt lat="42.3221665062010288238525390625" lon="2.040724195539951324462890625">
        <ele>1258.5999755859375</ele>
        <time>2020-08-10T06:01:38.000Z</time>
      </trkpt>
      <trkpt lat="42.3221671767532825469970703125" lon="2.04042454250156879425048828125">
        <ele>1259</ele>
        <time>2020-08-10T06:01:46.000Z</time>
      </trkpt>
      <trkpt lat="42.32218620367348194122314453125" lon="2.04017174430191516876220703125">
        <ele>1259.199951171875</ele>
        <time>2020-08-10T06:01:53.000Z</time>
      </trkpt>
      <trkpt lat="42.3221889697015285491943359375" lon="2.04005758278071880340576171875">
        <ele>1259.4000244140625</ele>
        <time>2020-08-10T06:01:56.000Z</time>
      </trkpt>
      <trkpt lat="42.32219575904309749603271484375" lon="2.03994878567755222320556640625">
        <ele>1259.800048828125</ele>
        <time>2020-08-10T06:01:59.000Z</time>
      </trkpt>
      <trkpt lat="42.32220799662172794342041015625" lon="2.03972666524350643157958984375">
        <ele>1260.5999755859375</ele>
        <time>2020-08-10T06:02:05.000Z</time>
      </trkpt>
      <trkpt lat="42.32221269048750400543212890625" lon="2.03965038992464542388916015625">
        <ele>1260.5999755859375</ele>
        <time>2020-08-10T06:02:07.000Z</time>
      </trkpt>
      <trkpt lat="42.32221998274326324462890625" lon="2.03943707048892974853515625">
        <ele>1261.199951171875</ele>
        <time>2020-08-10T06:02:13.000Z</time>
      </trkpt>
      <trkpt lat="42.32223481871187686920166015625" lon="2.0393063127994537353515625">
        <ele>1261.4000244140625</ele>
        <time>2020-08-10T06:02:17.000Z</time>
      </trkpt>
      <trkpt lat="42.32224353589117527008056640625" lon="2.03923850320279598236083984375">
        <ele>1261.5999755859375</ele>
        <time>2020-08-10T06:02:19.000Z</time>
      </trkpt>
      <trkpt lat="42.322263903915882110595703125" lon="2.03903348185122013092041015625">
        <ele>1262.4000244140625</ele>
        <time>2020-08-10T06:02:25.000Z</time>
      </trkpt>
      <trkpt lat="42.32226935215294361114501953125" lon="2.03896475024521350860595703125">
        <ele>1262.4000244140625</ele>
        <time>2020-08-10T06:02:27.000Z</time>
      </trkpt>
      <trkpt lat="42.32226734049618244171142578125" lon="2.0387187413871288299560546875">
        <ele>1263.4000244140625</ele>
        <time>2020-08-10T06:02:34.000Z</time>
      </trkpt>
      <trkpt lat="42.32223314233124256134033203125" lon="2.03839830122888088226318359375">
        <ele>1264.199951171875</ele>
        <time>2020-08-10T06:02:43.000Z</time>
      </trkpt>
      <trkpt lat="42.32221218757331371307373046875" lon="2.03815354965627193450927734375">
        <ele>1265</ele>
        <time>2020-08-10T06:02:50.000Z</time>
      </trkpt>
      <trkpt lat="42.32219760306179523468017578125" lon="2.0379834808409214019775390625">
        <ele>1264.800048828125</ele>
        <time>2020-08-10T06:02:55.000Z</time>
      </trkpt>
      <trkpt lat="42.32218603603541851043701171875" lon="2.03780972398817539215087890625">
        <ele>1265.199951171875</ele>
        <time>2020-08-10T06:03:00.000Z</time>
      </trkpt>
      <trkpt lat="42.32217547483742237091064453125" lon="2.0377031899988651275634765625">
        <ele>1265.4000244140625</ele>
        <time>2020-08-10T06:03:03.000Z</time>
      </trkpt>
      <trkpt lat="42.32214580290019512176513671875" lon="2.0375291816890239715576171875">
        <ele>1266</ele>
        <time>2020-08-10T06:03:08.000Z</time>
      </trkpt>
      <trkpt lat="42.3221507482230663299560546875" lon="2.0374963246285915374755859375">
        <ele>1266.199951171875</ele>
        <time>2020-08-10T06:03:09.000Z</time>
      </trkpt>
      <trkpt lat="42.32214890420436859130859375" lon="2.0374609529972076416015625">
        <ele>1266.199951171875</ele>
        <time>2020-08-10T06:03:10.000Z</time>
      </trkpt>
      <trkpt lat="42.322129793465137481689453125" lon="2.0373645611107349395751953125">
        <ele>1266.4000244140625</ele>
        <time>2020-08-10T06:03:13.000Z</time>
      </trkpt>
      <trkpt lat="42.32211696915328502655029296875" lon="2.03721486032009124755859375">
        <ele>1267.199951171875</ele>
        <time>2020-08-10T06:03:18.000Z</time>
      </trkpt>
      <trkpt lat="42.3221240937709808349609375" lon="2.0370185561478137969970703125">
        <ele>1268</ele>
        <time>2020-08-10T06:03:25.000Z</time>
      </trkpt>
      <trkpt lat="42.32212836854159832000732421875" lon="2.03699517063796520233154296875">
        <ele>1268.199951171875</ele>
        <time>2020-08-10T06:03:26.000Z</time>
      </trkpt>
      <trkpt lat="42.32215669937431812286376953125" lon="2.03689089976251125335693359375">
        <ele>1269.199951171875</ele>
        <time>2020-08-10T06:03:30.000Z</time>
      </trkpt>
      <trkpt lat="42.32216709293425083160400390625" lon="2.03686885535717010498046875">
        <ele>1269.4000244140625</ele>
        <time>2020-08-10T06:03:31.000Z</time>
      </trkpt>
      <trkpt lat="42.32220279984176158905029296875" lon="2.03676902689039707183837890625">
        <ele>1270.199951171875</ele>
        <time>2020-08-10T06:03:35.000Z</time>
      </trkpt>
      <trkpt lat="42.32222408987581729888916015625" lon="2.03671739436686038970947265625">
        <ele>1270.5999755859375</ele>
        <time>2020-08-10T06:03:37.000Z</time>
      </trkpt>
      <trkpt lat="42.32223666273057460784912109375" lon="2.0366940088570117950439453125">
        <ele>1271</ele>
        <time>2020-08-10T06:03:38.000Z</time>
      </trkpt>
      <trkpt lat="42.3222637362778186798095703125" lon="2.03664883039891719818115234375">
        <ele>1271.199951171875</ele>
        <time>2020-08-10T06:03:40.000Z</time>
      </trkpt>
      <trkpt lat="42.3223197273910045623779296875" lon="2.03660507686436176300048828125">
        <ele>1271.5999755859375</ele>
        <time>2020-08-10T06:03:43.000Z</time>
      </trkpt>
      <trkpt lat="42.32233540154993534088134765625" lon="2.036589570343494415283203125">
        <ele>1271.5999755859375</ele>
        <time>2020-08-10T06:03:44.000Z</time>
      </trkpt>
      <trkpt lat="42.32235803268849849700927734375" lon="2.03656383790075778961181640625">
        <ele>1271.800048828125</ele>
        <time>2020-08-10T06:03:46.000Z</time>
      </trkpt>
      <trkpt lat="42.3223720304667949676513671875" lon="2.0365572161972522735595703125">
        <ele>1271.800048828125</ele>
        <time>2020-08-10T06:03:47.000Z</time>
      </trkpt>
      <trkpt lat="42.32242475263774394989013671875" lon="2.03654355369508266448974609375">
        <ele>1272</ele>
        <time>2020-08-10T06:03:52.000Z</time>
      </trkpt>
      <trkpt lat="42.32245727442204952239990234375" lon="2.03652142547070980072021484375">
        <ele>1272</ele>
        <time>2020-08-10T06:03:55.000Z</time>
      </trkpt>
      <trkpt lat="42.32248476706445217132568359375" lon="2.03650667332112789154052734375">
        <ele>1271.800048828125</ele>
        <time>2020-08-10T06:03:57.000Z</time>
      </trkpt>
      <trkpt lat="42.32258266769349575042724609375" lon="2.03648387454450130462646484375">
        <ele>1272</ele>
        <time>2020-08-10T06:04:03.000Z</time>
      </trkpt>
      <trkpt lat="42.3227079771459102630615234375" lon="2.03640927560627460479736328125">
        <ele>1272.800048828125</ele>
        <time>2020-08-10T06:04:10.000Z</time>
      </trkpt>
      <trkpt lat="42.32272616587579250335693359375" lon="2.0363966189324855804443359375">
        <ele>1272.800048828125</ele>
        <time>2020-08-10T06:04:11.000Z</time>
      </trkpt>
      <trkpt lat="42.32283554971218109130859375" lon="2.03633777797222137451171875">
        <ele>1273.199951171875</ele>
        <time>2020-08-10T06:04:17.000Z</time>
      </trkpt>
      <trkpt lat="42.32286371290683746337890625" lon="2.03632361255586147308349609375">
        <ele>1273.800048828125</ele>
        <time>2020-08-10T06:04:19.000Z</time>
      </trkpt>
      <trkpt lat="42.32292515225708484649658203125" lon="2.0363007299602031707763671875">
        <ele>1274.199951171875</ele>
        <time>2020-08-10T06:04:23.000Z</time>
      </trkpt>
      <trkpt lat="42.32300377450883388519287109375" lon="2.0362668670713901519775390625">
        <ele>1274.800048828125</ele>
        <time>2020-08-10T06:04:28.000Z</time>
      </trkpt>
      <trkpt lat="42.32306445948779582977294921875" lon="2.03622336499392986297607421875">
        <ele>1275</ele>
        <time>2020-08-10T06:04:32.000Z</time>
      </trkpt>
      <trkpt lat="42.32316034846007823944091796875" lon="2.0361766777932643890380859375">
        <ele>1275.800048828125</ele>
        <time>2020-08-10T06:04:38.000Z</time>
      </trkpt>
      <trkpt lat="42.32317493297159671783447265625" lon="2.03616871498525142669677734375">
        <ele>1275.800048828125</ele>
        <time>2020-08-10T06:04:39.000Z</time>
      </trkpt>
      <trkpt lat="42.32327719219028949737548828125" lon="2.036096714437007904052734375">
        <ele>1276.800048828125</ele>
        <time>2020-08-10T06:04:46.000Z</time>
      </trkpt>
      <trkpt lat="42.32329362072050571441650390625" lon="2.03609260730445384979248046875">
        <ele>1276.800048828125</ele>
        <time>2020-08-10T06:04:47.000Z</time>
      </trkpt>
      <trkpt lat="42.323409877717494964599609375" lon="2.03605371527373790740966796875">
        <ele>1277.199951171875</ele>
        <time>2020-08-10T06:04:54.000Z</time>
      </trkpt>
      <trkpt lat="42.32347064651548862457275390625" lon="2.03601297922432422637939453125">
        <ele>1277.800048828125</ele>
        <time>2020-08-10T06:04:58.000Z</time>
      </trkpt>
      <trkpt lat="42.323527894914150238037109375" lon="2.03596369363367557525634765625">
        <ele>1278.199951171875</ele>
        <time>2020-08-10T06:05:02.000Z</time>
      </trkpt>
      <trkpt lat="42.32361649163067340850830078125" lon="2.035902254283428192138671875">
        <ele>1278.800048828125</ele>
        <time>2020-08-10T06:05:08.000Z</time>
      </trkpt>
      <trkpt lat="42.32363174669444561004638671875" lon="2.03589119017124176025390625">
        <ele>1278.800048828125</ele>
        <time>2020-08-10T06:05:09.000Z</time>
      </trkpt>
      <trkpt lat="42.3237325809895992279052734375" lon="2.03581801615655422210693359375">
        <ele>1279.800048828125</ele>
        <time>2020-08-10T06:05:16.000Z</time>
      </trkpt>
      <trkpt lat="42.32374708168208599090576171875" lon="2.035803683102130889892578125">
        <ele>1279.800048828125</ele>
        <time>2020-08-10T06:05:17.000Z</time>
      </trkpt>
      <trkpt lat="42.32383601367473602294921875" lon="2.03570988960564136505126953125">
        <ele>1280.5999755859375</ele>
        <time>2020-08-10T06:05:24.000Z</time>
      </trkpt>
      <trkpt lat="42.323849089443683624267578125" lon="2.03569681383669376373291015625">
        <ele>1280.800048828125</ele>
        <time>2020-08-10T06:05:25.000Z</time>
      </trkpt>
      <trkpt lat="42.3239184916019439697265625" lon="2.03563109971582889556884765625">
        <ele>1281.199951171875</ele>
        <time>2020-08-10T06:05:30.000Z</time>
      </trkpt>
      <trkpt lat="42.32393131591379642486572265625" lon="2.03561416827142238616943359375">
        <ele>1281.4000244140625</ele>
        <time>2020-08-10T06:05:31.000Z</time>
      </trkpt>
      <trkpt lat="42.32395897619426250457763671875" lon="2.03558181412518024444580078125">
        <ele>1281.800048828125</ele>
        <time>2020-08-10T06:05:33.000Z</time>
      </trkpt>
      <trkpt lat="42.32401815243065357208251953125" lon="2.03553043305873870849609375">
        <ele>1282.4000244140625</ele>
        <time>2020-08-10T06:05:37.000Z</time>
      </trkpt>
      <trkpt lat="42.32404388487339019775390625" lon="2.03549698926508426666259765625">
        <ele>1283</ele>
        <time>2020-08-10T06:05:39.000Z</time>
      </trkpt>
      <trkpt lat="42.32412569224834442138671875" lon="2.03541107475757598876953125">
        <ele>1284</ele>
        <time>2020-08-10T06:05:45.000Z</time>
      </trkpt>
      <trkpt lat="42.3241379298269748687744140625" lon="2.035400681197643280029296875">
        <ele>1284.199951171875</ele>
        <time>2020-08-10T06:05:46.000Z</time>
      </trkpt>
      <trkpt lat="42.3242135345935821533203125" lon="2.03532532788813114166259765625">
        <ele>1285</ele>
        <time>2020-08-10T06:05:52.000Z</time>
      </trkpt>
      <trkpt lat="42.32425150461494922637939453125" lon="2.035286687314510345458984375">
        <ele>1285.4000244140625</ele>
        <time>2020-08-10T06:05:55.000Z</time>
      </trkpt>
      <trkpt lat="42.3243276961147785186767578125" lon="2.03519959934055805206298828125">
        <ele>1286.199951171875</ele>
        <time>2020-08-10T06:06:01.000Z</time>
      </trkpt>
      <trkpt lat="42.3243401013314723968505859375" lon="2.03518736176192760467529296875">
        <ele>1286.4000244140625</ele>
        <time>2020-08-10T06:06:02.000Z</time>
      </trkpt>
      <trkpt lat="42.324397265911102294921875" lon="2.0350595377385616302490234375">
        <ele>1286.800048828125</ele>
        <time>2020-08-10T06:06:08.000Z</time>
      </trkpt>
      <trkpt lat="42.3244066536426544189453125" lon="2.0349478907883167266845703125">
        <ele>1287.199951171875</ele>
        <time>2020-08-10T06:06:12.000Z</time>
      </trkpt>
      <trkpt lat="42.324388213455677032470703125" lon="2.0348473079502582550048828125">
        <ele>1287.4000244140625</ele>
        <time>2020-08-10T06:06:15.000Z</time>
      </trkpt>
      <trkpt lat="42.324342615902423858642578125" lon="2.034732811152935028076171875">
        <ele>1287.5999755859375</ele>
        <time>2020-08-10T06:06:21.000Z</time>
      </trkpt>
      <trkpt lat="42.32426877133548259735107421875" lon="2.03463465906679630279541015625">
        <ele>1287.5999755859375</ele>
        <time>2020-08-10T06:06:27.000Z</time>
      </trkpt>
      <trkpt lat="42.3241590522229671478271484375" lon="2.03457045368850231170654296875">
        <ele>1287.199951171875</ele>
        <time>2020-08-10T06:06:33.000Z</time>
      </trkpt>
      <trkpt lat="42.3240812681615352630615234375" lon="2.03458361327648162841796875">
        <ele>1287.4000244140625</ele>
        <time>2020-08-10T06:06:38.000Z</time>
      </trkpt>
      <trkpt lat="42.3240018077194690704345703125" lon="2.0346580445766448974609375">
        <ele>1287.4000244140625</ele>
        <time>2020-08-10T06:06:44.000Z</time>
      </trkpt>
      <trkpt lat="42.32389577664434909820556640625" lon="2.034838758409023284912109375">
        <ele>1288.199951171875</ele>
        <time>2020-08-10T06:06:53.000Z</time>
      </trkpt>
      <trkpt lat="42.3238606564700603485107421875" lon="2.03490279614925384521484375">
        <ele>1288.199951171875</ele>
        <time>2020-08-10T06:06:56.000Z</time>
      </trkpt>
      <trkpt lat="42.32380743138492107391357421875" lon="2.034985609352588653564453125">
        <ele>1288.5999755859375</ele>
        <time>2020-08-10T06:07:00.000Z</time>
      </trkpt>
      <trkpt lat="42.32370433397591114044189453125" lon="2.035117037594318389892578125">
        <ele>1289.199951171875</ele>
        <time>2020-08-10T06:07:07.000Z</time>
      </trkpt>
      <trkpt lat="42.3236879892647266387939453125" lon="2.03513455577194690704345703125">
        <ele>1289.4000244140625</ele>
        <time>2020-08-10T06:07:08.000Z</time>
      </trkpt>
      <trkpt lat="42.323574833571910858154296875" lon="2.0352439396083354949951171875">
        <ele>1290.199951171875</ele>
        <time>2020-08-10T06:07:15.000Z</time>
      </trkpt>
      <trkpt lat="42.32354239560663700103759765625" lon="2.03527235426008701324462890625">
        <ele>1290.5999755859375</ele>
        <time>2020-08-10T06:07:17.000Z</time>
      </trkpt>
      <trkpt lat="42.3234499432146549224853515625" lon="2.03535399399697780609130859375">
        <ele>1291.199951171875</ele>
        <time>2020-08-10T06:07:23.000Z</time>
      </trkpt>
      <trkpt lat="42.3234355263411998748779296875" lon="2.03536589629948139190673828125">
        <ele>1291.4000244140625</ele>
        <time>2020-08-10T06:07:24.000Z</time>
      </trkpt>
      <trkpt lat="42.32331323437392711639404296875" lon="2.03541736118495464324951171875">
        <ele>1292</ele>
        <time>2020-08-10T06:07:31.000Z</time>
      </trkpt>
      <trkpt lat="42.3232782818377017974853515625" lon="2.0354219712316989898681640625">
        <ele>1292.199951171875</ele>
        <time>2020-08-10T06:07:33.000Z</time>
      </trkpt>
      <trkpt lat="42.3231984861195087432861328125" lon="2.03540646471083164215087890625">
        <ele>1293</ele>
        <time>2020-08-10T06:07:38.000Z</time>
      </trkpt>
      <trkpt lat="42.32315498404204845428466796875" lon="2.03537997789680957794189453125">
        <ele>1293.4000244140625</ele>
        <time>2020-08-10T06:07:41.000Z</time>
      </trkpt>
      <trkpt lat="42.32310854829847812652587890625" lon="2.03535877168178558349609375">
        <ele>1293.800048828125</ele>
        <time>2020-08-10T06:07:44.000Z</time>
      </trkpt>
      <trkpt lat="42.32303000986576080322265625" lon="2.03532147221267223358154296875">
        <ele>1294.199951171875</ele>
        <time>2020-08-10T06:07:49.000Z</time>
      </trkpt>
      <trkpt lat="42.32297929935157299041748046875" lon="2.035294063389301300048828125">
        <ele>1294.4000244140625</ele>
        <time>2020-08-10T06:07:52.000Z</time>
      </trkpt>
      <trkpt lat="42.32288424856960773468017578125" lon="2.0352318696677684783935546875">
        <ele>1295.4000244140625</ele>
        <time>2020-08-10T06:07:58.000Z</time>
      </trkpt>
      <trkpt lat="42.32286999933421611785888671875" lon="2.03522306866943836212158203125">
        <ele>1295.5999755859375</ele>
        <time>2020-08-10T06:07:59.000Z</time>
      </trkpt>
      <trkpt lat="42.3228145949542522430419921875" lon="2.03518065623939037322998046875">
        <ele>1296.199951171875</ele>
        <time>2020-08-10T06:08:03.000Z</time>
      </trkpt>
      <trkpt lat="42.32280068099498748779296875" lon="2.03516707755625247955322265625">
        <ele>1296.199951171875</ele>
        <time>2020-08-10T06:08:04.000Z</time>
      </trkpt>
      <trkpt lat="42.3227720148861408233642578125" lon="2.0351386629045009613037109375">
        <ele>1296.4000244140625</ele>
        <time>2020-08-10T06:08:06.000Z</time>
      </trkpt>
      <trkpt lat="42.3227210529148578643798828125" lon="2.0350662432610988616943359375">
        <ele>1297.199951171875</ele>
        <time>2020-08-10T06:08:10.000Z</time>
      </trkpt>
      <trkpt lat="42.32270286418497562408447265625" lon="2.035020478069782257080078125">
        <ele>1297.5999755859375</ele>
        <time>2020-08-10T06:08:12.000Z</time>
      </trkpt>
      <trkpt lat="42.32268526218831539154052734375" lon="2.03498451970517635345458984375">
        <ele>1297.800048828125</ele>
        <time>2020-08-10T06:08:14.000Z</time>
      </trkpt>
      <trkpt lat="42.32265793718397617340087890625" lon="2.0349646545946598052978515625">
        <ele>1298</ele>
        <time>2020-08-10T06:08:16.000Z</time>
      </trkpt>
      <trkpt lat="42.322640083730220794677734375" lon="2.034895755350589752197265625">
        <ele>1298.5999755859375</ele>
        <time>2020-08-10T06:08:20.000Z</time>
      </trkpt>
      <trkpt lat="42.32263840734958648681640625" lon="2.03486063517630100250244140625">
        <ele>1298.800048828125</ele>
        <time>2020-08-10T06:08:22.000Z</time>
      </trkpt>
      <trkpt lat="42.32267218641936779022216796875" lon="2.034760974347591400146484375">
        <ele>1299.800048828125</ele>
        <time>2020-08-10T06:08:28.000Z</time>
      </trkpt>
      <trkpt lat="42.32267755083739757537841796875" lon="2.03474211506545543670654296875">
        <ele>1300</ele>
        <time>2020-08-10T06:08:29.000Z</time>
      </trkpt>
      <trkpt lat="42.32274175621569156646728515625" lon="2.03462007455527782440185546875">
        <ele>1300.5999755859375</ele>
        <time>2020-08-10T06:08:36.000Z</time>
      </trkpt>
      <trkpt lat="42.32277159579098224639892578125" lon="2.03451127745211124420166015625">
        <ele>1301</ele>
        <time>2020-08-10T06:08:41.000Z</time>
      </trkpt>
      <trkpt lat="42.3227760381996631622314453125" lon="2.03448914922773838043212890625">
        <ele>1301.199951171875</ele>
        <time>2020-08-10T06:08:42.000Z</time>
      </trkpt>
      <trkpt lat="42.32278316281735897064208984375" lon="2.03432746231555938720703125">
        <ele>1302</ele>
        <time>2020-08-10T06:08:48.000Z</time>
      </trkpt>
      <trkpt lat="42.3227844201028347015380859375" lon="2.03430064022541046142578125">
        <ele>1302</ele>
        <time>2020-08-10T06:08:49.000Z</time>
      </trkpt>
      <trkpt lat="42.32280445285141468048095703125" lon="2.03412755392491817474365234375">
        <ele>1302.4000244140625</ele>
        <time>2020-08-10T06:08:56.000Z</time>
      </trkpt>
      <trkpt lat="42.32283010147511959075927734375" lon="2.03395731747150421142578125">
        <ele>1303.199951171875</ele>
        <time>2020-08-10T06:09:04.000Z</time>
      </trkpt>
      <trkpt lat="42.32284116558730602264404296875" lon="2.03390828333795070648193359375">
        <ele>1303.4000244140625</ele>
        <time>2020-08-10T06:09:07.000Z</time>
      </trkpt>
      <trkpt lat="42.32285407371819019317626953125" lon="2.03382127918303012847900390625">
        <ele>1304</ele>
        <time>2020-08-10T06:09:12.000Z</time>
      </trkpt>
      <trkpt lat="42.32288181781768798828125" lon="2.03369672410190105438232421875">
        <ele>1304.4000244140625</ele>
        <time>2020-08-10T06:09:19.000Z</time>
      </trkpt>
      <trkpt lat="42.322935126721858978271484375" lon="2.03360100276768207550048828125">
        <ele>1305</ele>
        <time>2020-08-10T06:09:25.000Z</time>
      </trkpt>
      <trkpt lat="42.32299153693020343780517578125" lon="2.03349740244448184967041015625">
        <ele>1305.5999755859375</ele>
        <time>2020-08-10T06:09:31.000Z</time>
      </trkpt>
      <trkpt lat="42.32299857772886753082275390625" lon="2.03347594477236270904541015625">
        <ele>1305.800048828125</ele>
        <time>2020-08-10T06:09:32.000Z</time>
      </trkpt>
      <trkpt lat="42.3229979909956455230712890625" lon="2.03333714045584201812744140625">
        <ele>1306.4000244140625</ele>
        <time>2020-08-10T06:09:38.000Z</time>
      </trkpt>
      <trkpt lat="42.323004193603992462158203125" lon="2.03324041329324245452880859375">
        <ele>1306.5999755859375</ele>
        <time>2020-08-10T06:09:42.000Z</time>
      </trkpt>
      <trkpt lat="42.32300712727010250091552734375" lon="2.03314435668289661407470703125">
        <ele>1307</ele>
        <time>2020-08-10T06:09:46.000Z</time>
      </trkpt>
      <trkpt lat="42.32302187941968441009521484375" lon="2.0330004394054412841796875">
        <ele>1307.800048828125</ele>
        <time>2020-08-10T06:09:52.000Z</time>
      </trkpt>
      <trkpt lat="42.32302674092352390289306640625" lon="2.03297688625752925872802734375">
        <ele>1307.800048828125</ele>
        <time>2020-08-10T06:09:53.000Z</time>
      </trkpt>
      <trkpt lat="42.32305054552853107452392578125" lon="2.03280606307089328765869140625">
        <ele>1308</ele>
        <time>2020-08-10T06:10:00.000Z</time>
      </trkpt>
      <trkpt lat="42.32307267375290393829345703125" lon="2.0326854474842548370361328125">
        <ele>1308.5999755859375</ele>
        <time>2020-08-10T06:10:05.000Z</time>
      </trkpt>
      <trkpt lat="42.32308407314121723175048828125" lon="2.03263490460813045501708984375">
        <ele>1309</ele>
        <time>2020-08-10T06:10:07.000Z</time>
      </trkpt>
      <trkpt lat="42.32311584055423736572265625" lon="2.03247883357107639312744140625">
        <ele>1309.5999755859375</ele>
        <time>2020-08-10T06:10:13.000Z</time>
      </trkpt>
      <trkpt lat="42.32316805981099605560302734375" lon="2.03231320716440677642822265625">
        <ele>1310.4000244140625</ele>
        <time>2020-08-10T06:10:20.000Z</time>
      </trkpt>
      <trkpt lat="42.3231817223131656646728515625" lon="2.03226475976407527923583984375">
        <ele>1310.5999755859375</ele>
        <time>2020-08-10T06:10:22.000Z</time>
      </trkpt>
      <trkpt lat="42.3232216201722621917724609375" lon="2.032082788646221160888671875">
        <ele>1311.4000244140625</ele>
        <time>2020-08-10T06:10:29.000Z</time>
      </trkpt>
      <trkpt lat="42.3232340253889560699462890625" lon="2.03200441785156726837158203125">
        <ele>1311.5999755859375</ele>
        <time>2020-08-10T06:10:32.000Z</time>
      </trkpt>
      <trkpt lat="42.3232665471732616424560546875" lon="2.03183409757912158966064453125">
        <ele>1312.4000244140625</ele>
        <time>2020-08-10T06:10:39.000Z</time>
      </trkpt>
      <trkpt lat="42.3232745938003063201904296875" lon="2.0317842252552509307861328125">
        <ele>1312.5999755859375</ele>
        <time>2020-08-10T06:10:41.000Z</time>
      </trkpt>
      <trkpt lat="42.32331759296357631683349609375" lon="2.0315760187804698944091796875">
        <ele>1313.4000244140625</ele>
        <time>2020-08-10T06:10:49.000Z</time>
      </trkpt>
      <trkpt lat="42.3233322612941265106201171875" lon="2.03149865381419658660888671875">
        <ele>1313.4000244140625</ele>
        <time>2020-08-10T06:10:52.000Z</time>
      </trkpt>
      <trkpt lat="42.32335967011749744415283203125" lon="2.03135012648999691009521484375">
        <ele>1314.5999755859375</ele>
        <time>2020-08-10T06:10:58.000Z</time>
      </trkpt>
      <trkpt lat="42.32339856214821338653564453125" lon="2.031098417937755584716796875">
        <ele>1315.4000244140625</ele>
        <time>2020-08-10T06:11:08.000Z</time>
      </trkpt>
      <trkpt lat="42.32340442948043346405029296875" lon="2.0310734398663043975830078125">
        <ele>1315.5999755859375</ele>
        <time>2020-08-10T06:11:09.000Z</time>
      </trkpt>
      <trkpt lat="42.32342320494353771209716796875" lon="2.03088090755045413970947265625">
        <ele>1316.199951171875</ele>
        <time>2020-08-10T06:11:16.000Z</time>
      </trkpt>
      <trkpt lat="42.323436029255390167236328125" lon="2.030694074928760528564453125">
        <ele>1317.4000244140625</ele>
        <time>2020-08-10T06:11:23.000Z</time>
      </trkpt>
      <trkpt lat="42.323447428643703460693359375" lon="2.03051327727735042572021484375">
        <ele>1318</ele>
        <time>2020-08-10T06:11:30.000Z</time>
      </trkpt>
      <trkpt lat="42.3234516195952892303466796875" lon="2.03046550042927265167236328125">
        <ele>1318.199951171875</ele>
        <time>2020-08-10T06:11:32.000Z</time>
      </trkpt>
      <trkpt lat="42.32345782220363616943359375" lon="2.03030875883996486663818359375">
        <ele>1319</ele>
        <time>2020-08-10T06:11:38.000Z</time>
      </trkpt>
      <trkpt lat="42.32345254160463809967041015625" lon="2.03025276772677898406982421875">
        <ele>1319.199951171875</ele>
        <time>2020-08-10T06:11:40.000Z</time>
      </trkpt>
      <trkpt lat="42.323447763919830322265625" lon="2.03012301586568355560302734375">
        <ele>1319.800048828125</ele>
        <time>2020-08-10T06:11:45.000Z</time>
      </trkpt>
      <trkpt lat="42.3234486021101474761962890625" lon="2.03004271723330020904541015625">
        <ele>1320.199951171875</ele>
        <time>2020-08-10T06:11:48.000Z</time>
      </trkpt>
      <trkpt lat="42.3234492726624011993408203125" lon="2.02996753156185150146484375">
        <ele>1320.4000244140625</ele>
        <time>2020-08-10T06:11:51.000Z</time>
      </trkpt>
      <trkpt lat="42.32344985939562320709228515625" lon="2.02984523959457874298095703125">
        <ele>1321</ele>
        <time>2020-08-10T06:11:56.000Z</time>
      </trkpt>
      <trkpt lat="42.32345656491816043853759765625" lon="2.02974096871912479400634765625">
        <ele>1321.5999755859375</ele>
        <time>2020-08-10T06:12:00.000Z</time>
      </trkpt>
      <trkpt lat="42.32346997596323490142822265625" lon="2.02961658127605915069580078125">
        <ele>1322</ele>
        <time>2020-08-10T06:12:05.000Z</time>
      </trkpt>
      <trkpt lat="42.3234866559505462646484375" lon="2.02938859350979328155517578125">
        <ele>1322.800048828125</ele>
        <time>2020-08-10T06:12:14.000Z</time>
      </trkpt>
      <trkpt lat="42.323494367301464080810546875" lon="2.02919681556522846221923828125">
        <ele>1323.5999755859375</ele>
        <time>2020-08-10T06:12:21.000Z</time>
      </trkpt>
      <trkpt lat="42.32349612750113010406494140625" lon="2.029086761176586151123046875">
        <ele>1324</ele>
        <time>2020-08-10T06:12:25.000Z</time>
      </trkpt>
      <trkpt lat="42.323499731719493865966796875" lon="2.02900151722133159637451171875">
        <ele>1324</ele>
        <time>2020-08-10T06:12:28.000Z</time>
      </trkpt>
      <trkpt lat="42.3235045932233333587646484375" lon="2.028896324336528778076171875">
        <ele>1324.800048828125</ele>
        <time>2020-08-10T06:12:32.000Z</time>
      </trkpt>
      <trkpt lat="42.32350886799395084381103515625" lon="2.0287664048373699188232421875">
        <ele>1325.199951171875</ele>
        <time>2020-08-10T06:12:37.000Z</time>
      </trkpt>
      <trkpt lat="42.32351574115455150604248046875" lon="2.02866104431450366973876953125">
        <ele>1325.5999755859375</ele>
        <time>2020-08-10T06:12:41.000Z</time>
      </trkpt>
      <trkpt lat="42.32351222075521945953369140625" lon="2.02855073846876621246337890625">
        <ele>1326</ele>
        <time>2020-08-10T06:12:45.000Z</time>
      </trkpt>
      <trkpt lat="42.323506772518157958984375" lon="2.028436996042728424072265625">
        <ele>1326.4000244140625</ele>
        <time>2020-08-10T06:12:49.000Z</time>
      </trkpt>
      <trkpt lat="42.323511801660060882568359375" lon="2.02832627110183238983154296875">
        <ele>1327</ele>
        <time>2020-08-10T06:12:53.000Z</time>
      </trkpt>
      <trkpt lat="42.32352160848677158355712890625" lon="2.028194926679134368896484375">
        <ele>1327.5999755859375</ele>
        <time>2020-08-10T06:12:58.000Z</time>
      </trkpt>
      <trkpt lat="42.32354231178760528564453125" lon="2.02806006185710430145263671875">
        <ele>1328.199951171875</ele>
        <time>2020-08-10T06:13:03.000Z</time>
      </trkpt>
      <trkpt lat="42.3235481791198253631591796875" lon="2.0279753208160400390625">
        <ele>1328.5999755859375</ele>
        <time>2020-08-10T06:13:06.000Z</time>
      </trkpt>
      <trkpt lat="42.3235330916941165924072265625" lon="2.027863673865795135498046875">
        <ele>1329</ele>
        <time>2020-08-10T06:13:10.000Z</time>
      </trkpt>
      <trkpt lat="42.3234925232827663421630859375" lon="2.02774138189852237701416015625">
        <ele>1329.4000244140625</ele>
        <time>2020-08-10T06:13:15.000Z</time>
      </trkpt>
      <trkpt lat="42.32344751246273517608642578125" lon="2.0276467502117156982421875">
        <ele>1329.800048828125</ele>
        <time>2020-08-10T06:13:19.000Z</time>
      </trkpt>
      <trkpt lat="42.32340526767075061798095703125" lon="2.02749528922140598297119140625">
        <ele>1330.4000244140625</ele>
        <time>2020-08-10T06:13:25.000Z</time>
      </trkpt>
      <trkpt lat="42.32339269481599330902099609375" lon="2.02741348184645175933837890625">
        <ele>1330.800048828125</ele>
        <time>2020-08-10T06:13:28.000Z</time>
      </trkpt>
      <trkpt lat="42.3233847320079803466796875" lon="2.0273284055292606353759765625">
        <ele>1331.4000244140625</ele>
        <time>2020-08-10T06:13:31.000Z</time>
      </trkpt>
      <trkpt lat="42.32338062487542629241943359375" lon="2.0272197760641574859619140625">
        <ele>1331.5999755859375</ele>
        <time>2020-08-10T06:13:35.000Z</time>
      </trkpt>
      <trkpt lat="42.323363609611988067626953125" lon="2.02703529037535190582275390625">
        <ele>1332.199951171875</ele>
        <time>2020-08-10T06:13:42.000Z</time>
      </trkpt>
      <trkpt lat="42.32335749082267284393310546875" lon="2.02690939418971538543701171875">
        <ele>1333.199951171875</ele>
        <time>2020-08-10T06:13:47.000Z</time>
      </trkpt>
      <trkpt lat="42.32334860600531101226806640625" lon="2.02688307501375675201416015625">
        <ele>1333.4000244140625</ele>
        <time>2020-08-10T06:13:48.000Z</time>
      </trkpt>
      <trkpt lat="42.32329546473920345306396484375" lon="2.02671711333096027374267578125">
        <ele>1333.800048828125</ele>
        <time>2020-08-10T06:13:54.000Z</time>
      </trkpt>
      <trkpt lat="42.3232695646584033966064453125" lon="2.02663463540375232696533203125">
        <ele>1334.199951171875</ele>
        <time>2020-08-10T06:13:57.000Z</time>
      </trkpt>
      <trkpt lat="42.32323545031249523162841796875" lon="2.0265016146004199981689453125">
        <ele>1334.800048828125</ele>
        <time>2020-08-10T06:14:02.000Z</time>
      </trkpt>
      <trkpt lat="42.32320980168879032135009765625" lon="2.02639457769691944122314453125">
        <ele>1335.199951171875</ele>
        <time>2020-08-10T06:14:06.000Z</time>
      </trkpt>
      <trkpt lat="42.32316772453486919403076171875" lon="2.0262390933930873870849609375">
        <ele>1335.800048828125</ele>
        <time>2020-08-10T06:14:12.000Z</time>
      </trkpt>
      <trkpt lat="42.32315414585173130035400390625" lon="2.0261911489069461822509765625">
        <ele>1336.199951171875</ele>
        <time>2020-08-10T06:14:14.000Z</time>
      </trkpt>
      <trkpt lat="42.3231299221515655517578125" lon="2.02609886415302753448486328125">
        <ele>1336.800048828125</ele>
        <time>2020-08-10T06:14:18.000Z</time>
      </trkpt>
      <trkpt lat="42.32312254607677459716796875" lon="2.02605192549526691436767578125">
        <ele>1337.199951171875</ele>
        <time>2020-08-10T06:14:20.000Z</time>
      </trkpt>
      <trkpt lat="42.3231029324233531951904296875" lon="2.02592351473867893218994140625">
        <ele>1337.5999755859375</ele>
        <time>2020-08-10T06:14:25.000Z</time>
      </trkpt>
      <trkpt lat="42.32308097183704376220703125" lon="2.0257891528308391571044921875">
        <ele>1338</ele>
        <time>2020-08-10T06:14:30.000Z</time>
      </trkpt>
      <trkpt lat="42.32307652942836284637451171875" lon="2.025708518922328948974609375">
        <ele>1338.5999755859375</ele>
        <time>2020-08-10T06:14:33.000Z</time>
      </trkpt>
      <trkpt lat="42.32306865043938159942626953125" lon="2.02558438293635845184326171875">
        <ele>1339</ele>
        <time>2020-08-10T06:14:38.000Z</time>
      </trkpt>
      <trkpt lat="42.32304249890148639678955078125" lon="2.02537366189062595367431640625">
        <ele>1339.5999755859375</ele>
        <time>2020-08-10T06:14:46.000Z</time>
      </trkpt>
      <trkpt lat="42.32303545810282230377197265625" lon="2.0253465883433818817138671875">
        <ele>1339.800048828125</ele>
        <time>2020-08-10T06:14:47.000Z</time>
      </trkpt>
      <trkpt lat="42.3229984939098358154296875" lon="2.02514466829597949981689453125">
        <ele>1340.800048828125</ele>
        <time>2020-08-10T06:14:55.000Z</time>
      </trkpt>
      <trkpt lat="42.3229932971298694610595703125" lon="2.02512052841484546661376953125">
        <ele>1340.800048828125</ele>
        <time>2020-08-10T06:14:56.000Z</time>
      </trkpt>
      <trkpt lat="42.32296831905841827392578125" lon="2.02499748207628726959228515625">
        <ele>1341.5999755859375</ele>
        <time>2020-08-10T06:15:01.000Z</time>
      </trkpt>
      <trkpt lat="42.3229406587779521942138671875" lon="2.02488918788731098175048828125">
        <ele>1341.800048828125</ele>
        <time>2020-08-10T06:15:05.000Z</time>
      </trkpt>
      <trkpt lat="42.32292213477194309234619140625" lon="2.0248379744589328765869140625">
        <ele>1342</ele>
        <time>2020-08-10T06:15:07.000Z</time>
      </trkpt>
      <trkpt lat="42.32284988276660442352294921875" lon="2.02465164475142955780029296875">
        <ele>1342.4000244140625</ele>
        <time>2020-08-10T06:15:14.000Z</time>
      </trkpt>
      <trkpt lat="42.32284267432987689971923828125" lon="2.02462515793740749359130859375">
        <ele>1342.5999755859375</ele>
        <time>2020-08-10T06:15:15.000Z</time>
      </trkpt>
      <trkpt lat="42.32279791496694087982177734375" lon="2.0244839228689670562744140625">
        <ele>1343.4000244140625</ele>
        <time>2020-08-10T06:15:21.000Z</time>
      </trkpt>
      <trkpt lat="42.32278349809348583221435546875" lon="2.02446137554943561553955078125">
        <ele>1343.5999755859375</ele>
        <time>2020-08-10T06:15:22.000Z</time>
      </trkpt>
      <trkpt lat="42.32271610759198665618896484375" lon="2.0243377424776554107666015625">
        <ele>1344</ele>
        <time>2020-08-10T06:15:27.000Z</time>
      </trkpt>
      <trkpt lat="42.32268140651285648345947265625" lon="2.0242636464536190032958984375">
        <ele>1344.199951171875</ele>
        <time>2020-08-10T06:15:30.000Z</time>
      </trkpt>
      <trkpt lat="42.3226238228380680084228515625" lon="2.0241684280335903167724609375">
        <ele>1344.5999755859375</ele>
        <time>2020-08-10T06:15:34.000Z</time>
      </trkpt>
      <trkpt lat="42.32254914008080959320068359375" lon="2.02402048744261264801025390625">
        <ele>1345.199951171875</ele>
        <time>2020-08-10T06:15:40.000Z</time>
      </trkpt>
      <trkpt lat="42.3225210607051849365234375" lon="2.02397170476615428924560546875">
        <ele>1345.199951171875</ele>
        <time>2020-08-10T06:15:42.000Z</time>
      </trkpt>
      <trkpt lat="42.3224122636020183563232421875" lon="2.0238257758319377899169921875">
        <ele>1346</ele>
        <time>2020-08-10T06:15:49.000Z</time>
      </trkpt>
      <trkpt lat="42.32233707793056964874267578125" lon="2.02371622435748577117919921875">
        <ele>1346.5999755859375</ele>
        <time>2020-08-10T06:15:54.000Z</time>
      </trkpt>
      <trkpt lat="42.32228460721671581268310546875" lon="2.0236561261117458343505859375">
        <ele>1347</ele>
        <time>2020-08-10T06:15:57.000Z</time>
      </trkpt>
      <trkpt lat="42.32221017591655254364013671875" lon="2.0235786773264408111572265625">
        <ele>1347.4000244140625</ele>
        <time>2020-08-10T06:16:01.000Z</time>
      </trkpt>
      <trkpt lat="42.32212283648550510406494140625" lon="2.023502402007579803466796875">
        <ele>1347.800048828125</ele>
        <time>2020-08-10T06:16:06.000Z</time>
      </trkpt>
      <trkpt lat="42.32210221700370311737060546875" lon="2.023487985134124755859375">
        <ele>1348</ele>
        <time>2020-08-10T06:16:07.000Z</time>
      </trkpt>
      <trkpt lat="42.32203365303575992584228515625" lon="2.0234096981585025787353515625">
        <ele>1348.5999755859375</ele>
        <time>2020-08-10T06:16:11.000Z</time>
      </trkpt>
      <trkpt lat="42.321950756013393402099609375" lon="2.02330467291176319122314453125">
        <ele>1348.800048828125</ele>
        <time>2020-08-10T06:16:16.000Z</time>
      </trkpt>
      <trkpt lat="42.3219229280948638916015625" lon="2.02326427213847637176513671875">
        <ele>1349.199951171875</ele>
        <time>2020-08-10T06:16:18.000Z</time>
      </trkpt>
      <trkpt lat="42.3218533582985401153564453125" lon="2.02313594520092010498046875">
        <ele>1349.800048828125</ele>
        <time>2020-08-10T06:16:24.000Z</time>
      </trkpt>
      <trkpt lat="42.32178739272058010101318359375" lon="2.02295078895986080169677734375">
        <ele>1350.5999755859375</ele>
        <time>2020-08-10T06:16:31.000Z</time>
      </trkpt>
      <trkpt lat="42.32176794670522212982177734375" lon="2.02289546839892864227294921875">
        <ele>1351</ele>
        <time>2020-08-10T06:16:33.000Z</time>
      </trkpt>
      <trkpt lat="42.3217313177883625030517578125" lon="2.022763788700103759765625">
        <ele>1351.5999755859375</ele>
        <time>2020-08-10T06:16:38.000Z</time>
      </trkpt>
      <trkpt lat="42.321712039411067962646484375" lon="2.0226811431348323822021484375">
        <ele>1351.800048828125</ele>
        <time>2020-08-10T06:16:41.000Z</time>
      </trkpt>
      <trkpt lat="42.3217028193175792694091796875" lon="2.0225648023188114166259765625">
        <ele>1352.4000244140625</ele>
        <time>2020-08-10T06:16:46.000Z</time>
      </trkpt>
      <trkpt lat="42.3217135481536388397216796875" lon="2.02244552783668041229248046875">
        <ele>1352.800048828125</ele>
        <time>2020-08-10T06:16:51.000Z</time>
      </trkpt>
      <trkpt lat="42.32172016985714435577392578125" lon="2.02242314815521240234375">
        <ele>1353.199951171875</ele>
        <time>2020-08-10T06:16:52.000Z</time>
      </trkpt>
      <trkpt lat="42.3217400349676609039306640625" lon="2.0223522372543811798095703125">
        <ele>1354</ele>
        <time>2020-08-10T06:16:55.000Z</time>
      </trkpt>
      <trkpt lat="42.321776412427425384521484375" lon="2.0222650654613971710205078125">
        <ele>1354.199951171875</ele>
        <time>2020-08-10T06:16:59.000Z</time>
      </trkpt>
      <trkpt lat="42.321833409368991851806640625" lon="2.022146545350551605224609375">
        <ele>1354.800048828125</ele>
        <time>2020-08-10T06:17:05.000Z</time>
      </trkpt>
      <trkpt lat="42.32187674380838871002197265625" lon="2.022054679691791534423828125">
        <ele>1355.800048828125</ele>
        <time>2020-08-10T06:17:10.000Z</time>
      </trkpt>
      <trkpt lat="42.3218845389783382415771484375" lon="2.02203565277159214019775390625">
        <ele>1356</ele>
        <time>2020-08-10T06:17:11.000Z</time>
      </trkpt>
      <trkpt lat="42.32194212265312671661376953125" lon="2.02191210351884365081787109375">
        <ele>1356.800048828125</ele>
        <time>2020-08-10T06:17:17.000Z</time>
      </trkpt>
      <trkpt lat="42.32195067219436168670654296875" lon="2.02175485901534557342529296875">
        <ele>1357.800048828125</ele>
        <time>2020-08-10T06:17:23.000Z</time>
      </trkpt>
      <trkpt lat="42.32195083983242511749267578125" lon="2.021726779639720916748046875">
        <ele>1358</ele>
        <time>2020-08-10T06:17:24.000Z</time>
      </trkpt>
      <trkpt lat="42.32191613875329494476318359375" lon="2.02157758176326751708984375">
        <ele>1358.4000244140625</ele>
        <time>2020-08-10T06:17:30.000Z</time>
      </trkpt>
      <trkpt lat="42.32184589840471744537353515625" lon="2.02144891954958438873291015625">
        <ele>1358.800048828125</ele>
        <time>2020-08-10T06:17:36.000Z</time>
      </trkpt>
      <trkpt lat="42.32182879932224750518798828125" lon="2.021431736648082733154296875">
        <ele>1358.800048828125</ele>
        <time>2020-08-10T06:17:37.000Z</time>
      </trkpt>
      <trkpt lat="42.3217190802097320556640625" lon="2.0213259570300579071044921875">
        <ele>1359.5999755859375</ele>
        <time>2020-08-10T06:17:44.000Z</time>
      </trkpt>
      <trkpt lat="42.3216890729963779449462890625" lon="2.02129486016929149627685546875">
        <ele>1359.800048828125</ele>
        <time>2020-08-10T06:17:46.000Z</time>
      </trkpt>
      <trkpt lat="42.3216404579579830169677734375" lon="2.02122646383941173553466796875">
        <ele>1359.800048828125</ele>
        <time>2020-08-10T06:17:50.000Z</time>
      </trkpt>
      <trkpt lat="42.3215797729790210723876953125" lon="2.02108346857130527496337890625">
        <ele>1360.4000244140625</ele>
        <time>2020-08-10T06:17:56.000Z</time>
      </trkpt>
      <trkpt lat="42.32155881822109222412109375" lon="2.02101239003241062164306640625">
        <ele>1360.800048828125</ele>
        <time>2020-08-10T06:17:59.000Z</time>
      </trkpt>
      <trkpt lat="42.3215452395379543304443359375" lon="2.02091683633625507354736328125">
        <ele>1361.199951171875</ele>
        <time>2020-08-10T06:18:03.000Z</time>
      </trkpt>
      <trkpt lat="42.32154197059571743011474609375" lon="2.02077736146748065948486328125">
        <ele>1361.800048828125</ele>
        <time>2020-08-10T06:18:09.000Z</time>
      </trkpt>
      <trkpt lat="42.32155638746917247772216796875" lon="2.02065951190888881683349609375">
        <ele>1362.4000244140625</ele>
        <time>2020-08-10T06:18:14.000Z</time>
      </trkpt>
      <trkpt lat="42.32156728394329547882080078125" lon="2.020588852465152740478515625">
        <ele>1362.800048828125</ele>
        <time>2020-08-10T06:18:17.000Z</time>
      </trkpt>
      <trkpt lat="42.321594022214412689208984375" lon="2.02047427184879779815673828125">
        <ele>1363.5999755859375</ele>
        <time>2020-08-10T06:18:22.000Z</time>
      </trkpt>
      <trkpt lat="42.32160198502242565155029296875" lon="2.0204264111816883087158203125">
        <ele>1363.800048828125</ele>
        <time>2020-08-10T06:18:24.000Z</time>
      </trkpt>
      <trkpt lat="42.32162646017968654632568359375" lon="2.02030831016600131988525390625">
        <ele>1364.5999755859375</ele>
        <time>2020-08-10T06:18:29.000Z</time>
      </trkpt>
      <trkpt lat="42.32163014821708202362060546875" lon="2.02028433792293071746826171875">
        <ele>1364.800048828125</ele>
        <time>2020-08-10T06:18:30.000Z</time>
      </trkpt>
      <trkpt lat="42.32164875604212284088134765625" lon="2.02013631351292133331298828125">
        <ele>1365.5999755859375</ele>
        <time>2020-08-10T06:18:36.000Z</time>
      </trkpt>
      <trkpt lat="42.321655713021755218505859375" lon="2.02009205706417560577392578125">
        <ele>1366</ele>
        <time>2020-08-10T06:18:38.000Z</time>
      </trkpt>
      <trkpt lat="42.32168018817901611328125" lon="2.019946463406085968017578125">
        <ele>1366.800048828125</ele>
        <time>2020-08-10T06:18:44.000Z</time>
      </trkpt>
      <trkpt lat="42.321692593395709991455078125" lon="2.01974001713097095489501953125">
        <ele>1367.199951171875</ele>
        <time>2020-08-10T06:18:52.000Z</time>
      </trkpt>
      <trkpt lat="42.32168999500572681427001953125" lon="2.01967187225818634033203125">
        <ele>1367.5999755859375</ele>
        <time>2020-08-10T06:18:55.000Z</time>
      </trkpt>
      <trkpt lat="42.32168714515864849090576171875" lon="2.01959945261478424072265625">
        <ele>1368</ele>
        <time>2020-08-10T06:18:58.000Z</time>
      </trkpt>
      <trkpt lat="42.32167373411357402801513671875" lon="2.01944262720644474029541015625">
        <ele>1368.800048828125</ele>
        <time>2020-08-10T06:19:04.000Z</time>
      </trkpt>
      <trkpt lat="42.3216666094958782196044921875" lon="2.019393928349018096923828125">
        <ele>1369</ele>
        <time>2020-08-10T06:19:06.000Z</time>
      </trkpt>
      <trkpt lat="42.32163936831057071685791015625" lon="2.01926476322114467620849609375">
        <ele>1369.5999755859375</ele>
        <time>2020-08-10T06:19:11.000Z</time>
      </trkpt>
      <trkpt lat="42.32162931002676486968994140625" lon="2.01921732164919376373291015625">
        <ele>1370</ele>
        <time>2020-08-10T06:19:13.000Z</time>
      </trkpt>
      <trkpt lat="42.32160441577434539794921875" lon="2.0191468298435211181640625">
        <ele>1370.5999755859375</ele>
        <time>2020-08-10T06:19:16.000Z</time>
      </trkpt>
      <trkpt lat="42.321554124355316162109375" lon="2.01906502246856689453125">
        <ele>1370.800048828125</ele>
        <time>2020-08-10T06:19:20.000Z</time>
      </trkpt>
      <trkpt lat="42.321464605629444122314453125" lon="2.01894633471965789794921875">
        <ele>1370.800048828125</ele>
        <time>2020-08-10T06:19:26.000Z</time>
      </trkpt>
      <trkpt lat="42.321363352239131927490234375" lon="2.01881934888660907745361328125">
        <ele>1371.4000244140625</ele>
        <time>2020-08-10T06:19:33.000Z</time>
      </trkpt>
      <trkpt lat="42.32126587070524692535400390625" lon="2.01869160868227481842041015625">
        <ele>1371.800048828125</ele>
        <time>2020-08-10T06:19:40.000Z</time>
      </trkpt>
      <trkpt lat="42.3212102986872196197509765625" lon="2.0185835659503936767578125">
        <ele>1372.4000244140625</ele>
        <time>2020-08-10T06:19:45.000Z</time>
      </trkpt>
      <trkpt lat="42.321180962026119232177734375" lon="2.0184576697647571563720703125">
        <ele>1373</ele>
        <time>2020-08-10T06:19:50.000Z</time>
      </trkpt>
      <trkpt lat="42.3211750946938991546630859375" lon="2.01837846077978610992431640625">
        <ele>1373.4000244140625</ele>
        <time>2020-08-10T06:19:53.000Z</time>
      </trkpt>
      <trkpt lat="42.32116721570491790771484375" lon="2.0182752795517444610595703125">
        <ele>1374</ele>
        <time>2020-08-10T06:19:57.000Z</time>
      </trkpt>
      <trkpt lat="42.32115958817303180694580078125" lon="2.01815432868897914886474609375">
        <ele>1374.4000244140625</ele>
        <time>2020-08-10T06:20:02.000Z</time>
      </trkpt>
      <trkpt lat="42.32113561592996120452880859375" lon="2.0180362276732921600341796875">
        <ele>1375.199951171875</ele>
        <time>2020-08-10T06:20:07.000Z</time>
      </trkpt>
      <trkpt lat="42.32112237252295017242431640625" lon="2.01798216439783573150634765625">
        <ele>1375.5999755859375</ele>
        <time>2020-08-10T06:20:09.000Z</time>
      </trkpt>
      <trkpt lat="42.32109010219573974609375" lon="2.01786112971603870391845703125">
        <ele>1376.199951171875</ele>
        <time>2020-08-10T06:20:14.000Z</time>
      </trkpt>
      <trkpt lat="42.3210812173783779144287109375" lon="2.01778954826295375823974609375">
        <ele>1376.800048828125</ele>
        <time>2020-08-10T06:20:17.000Z</time>
      </trkpt>
      <trkpt lat="42.321091778576374053955078125" lon="2.01770287938416004180908203125">
        <ele>1377.5999755859375</ele>
        <time>2020-08-10T06:20:21.000Z</time>
      </trkpt>
      <trkpt lat="42.321098484098911285400390625" lon="2.01768712140619754791259765625">
        <ele>1377.800048828125</ele>
        <time>2020-08-10T06:20:22.000Z</time>
      </trkpt>
      <trkpt lat="42.32112564146518707275390625" lon="2.017603218555450439453125">
        <ele>1378.800048828125</ele>
        <time>2020-08-10T06:20:27.000Z</time>
      </trkpt>
      <trkpt lat="42.32114483602344989776611328125" lon="2.01755024492740631103515625">
        <ele>1379.5999755859375</ele>
        <time>2020-08-10T06:20:31.000Z</time>
      </trkpt>
      <trkpt lat="42.3211546428501605987548828125" lon="2.01753658242523670196533203125">
        <ele>1379.800048828125</ele>
        <time>2020-08-10T06:20:32.000Z</time>
      </trkpt>
      <trkpt lat="42.32116746716201305389404296875" lon="2.0175192318856716156005859375">
        <ele>1379.800048828125</ele>
        <time>2020-08-10T06:20:33.000Z</time>
      </trkpt>
      <trkpt lat="42.32121692039072513580322265625" lon="2.017391659319400787353515625">
        <ele>1380.5999755859375</ele>
        <time>2020-08-10T06:20:39.000Z</time>
      </trkpt>
      <trkpt lat="42.321222536265850067138671875" lon="2.01733390800654888153076171875">
        <ele>1380.5999755859375</ele>
        <time>2020-08-10T06:20:41.000Z</time>
      </trkpt>
      <trkpt lat="42.321227230131626129150390625" lon="2.0172221772372722625732421875">
        <ele>1381.199951171875</ele>
        <time>2020-08-10T06:20:45.000Z</time>
      </trkpt>
      <trkpt lat="42.32121088542044162750244140625" lon="2.01701086945831775665283203125">
        <ele>1381.5999755859375</ele>
        <time>2020-08-10T06:20:53.000Z</time>
      </trkpt>
      <trkpt lat="42.32120971195399761199951171875" lon="2.016985304653644561767578125">
        <ele>1381.5999755859375</ele>
        <time>2020-08-10T06:20:54.000Z</time>
      </trkpt>
      <trkpt lat="42.32118942774832248687744140625" lon="2.01681070961058139801025390625">
        <ele>1382.800048828125</ele>
        <time>2020-08-10T06:21:01.000Z</time>
      </trkpt>
      <trkpt lat="42.32116528786718845367431640625" lon="2.016660086810588836669921875">
        <ele>1383.800048828125</ele>
        <time>2020-08-10T06:21:07.000Z</time>
      </trkpt>
      <trkpt lat="42.32116042636334896087646484375" lon="2.016609795391559600830078125">
        <ele>1384.199951171875</ele>
        <time>2020-08-10T06:21:09.000Z</time>
      </trkpt>
      <trkpt lat="42.3211459256708621978759765625" lon="2.01646554283797740936279296875">
        <ele>1384.5999755859375</ele>
        <time>2020-08-10T06:21:15.000Z</time>
      </trkpt>
      <trkpt lat="42.32114399783313274383544921875" lon="2.016441822052001953125">
        <ele>1384.800048828125</ele>
        <time>2020-08-10T06:21:16.000Z</time>
      </trkpt>
      <trkpt lat="42.3211204446852207183837890625" lon="2.0162817277014255523681640625">
        <ele>1385.4000244140625</ele>
        <time>2020-08-10T06:21:23.000Z</time>
      </trkpt>
      <trkpt lat="42.3211209475994110107421875" lon="2.01623671688139438629150390625">
        <ele>1385.800048828125</ele>
        <time>2020-08-10T06:21:25.000Z</time>
      </trkpt>
      <trkpt lat="42.32111223042011260986328125" lon="2.0160986669361591339111328125">
        <ele>1386.5999755859375</ele>
        <time>2020-08-10T06:21:31.000Z</time>
      </trkpt>
      <trkpt lat="42.32111432589590549468994140625" lon="2.0160765387117862701416015625">
        <ele>1386.5999755859375</ele>
        <time>2020-08-10T06:21:32.000Z</time>
      </trkpt>
      <trkpt lat="42.3211134038865566253662109375" lon="2.01591619290411472320556640625">
        <ele>1387.800048828125</ele>
        <time>2020-08-10T06:21:39.000Z</time>
      </trkpt>
      <trkpt lat="42.32110879383981227874755859375" lon="2.01587160117924213409423828125">
        <ele>1388</ele>
        <time>2020-08-10T06:21:41.000Z</time>
      </trkpt>
      <trkpt lat="42.32108968310058116912841796875" lon="2.0157409273087978363037109375">
        <ele>1388.5999755859375</ele>
        <time>2020-08-10T06:21:47.000Z</time>
      </trkpt>
      <trkpt lat="42.32108482159674167633056640625" lon="2.01569457538425922393798828125">
        <ele>1388.800048828125</ele>
        <time>2020-08-10T06:21:49.000Z</time>
      </trkpt>
      <trkpt lat="42.32106436975300312042236328125" lon="2.01552391983568668365478515625">
        <ele>1389.5999755859375</ele>
        <time>2020-08-10T06:21:57.000Z</time>
      </trkpt>
      <trkpt lat="42.321055568754673004150390625" lon="2.015508078038692474365234375">
        <ele>1389.800048828125</ele>
        <time>2020-08-10T06:21:58.000Z</time>
      </trkpt>
      <trkpt lat="42.32096579857170581817626953125" lon="2.01533205807209014892578125">
        <ele>1390.4000244140625</ele>
        <time>2020-08-10T06:22:08.000Z</time>
      </trkpt>
      <trkpt lat="42.32096127234399318695068359375" lon="2.0152879692614078521728515625">
        <ele>1390.5999755859375</ele>
        <time>2020-08-10T06:22:10.000Z</time>
      </trkpt>
      <trkpt lat="42.3209554888308048248291015625" lon="2.01521613635122776031494140625">
        <ele>1390.5999755859375</ele>
        <time>2020-08-10T06:22:14.000Z</time>
      </trkpt>
      <trkpt lat="42.3209600150585174560546875" lon="2.01522569172084331512451171875">
        <ele>1391</ele>
        <time>2020-08-10T06:22:21.000Z</time>
      </trkpt>
      <trkpt lat="42.3209400661289691925048828125" lon="2.014888487756252288818359375">
        <ele>1390.5999755859375</ele>
        <time>2020-08-10T06:26:43.000Z</time>
      </trkpt>
      <trkpt lat="42.32090729288756847381591796875" lon="2.01477927155792713165283203125">
        <ele>1390.800048828125</ele>
        <time>2020-08-10T06:26:49.000Z</time>
      </trkpt>
      <trkpt lat="42.3208582587540149688720703125" lon="2.0145657844841480255126953125">
        <ele>1391.199951171875</ele>
        <time>2020-08-10T06:26:58.000Z</time>
      </trkpt>
      <trkpt lat="42.32083504088222980499267578125" lon="2.01444449834525585174560546875">
        <ele>1391.4000244140625</ele>
        <time>2020-08-10T06:27:04.000Z</time>
      </trkpt>
      <trkpt lat="42.3208166845142841339111328125" lon="2.01433788053691387176513671875">
        <ele>1391.4000244140625</ele>
        <time>2020-08-10T06:27:09.000Z</time>
      </trkpt>
      <trkpt lat="42.3208017647266387939453125" lon="2.01426797546446323394775390625">
        <ele>1391.5999755859375</ele>
        <time>2020-08-10T06:27:12.000Z</time>
      </trkpt>
      <trkpt lat="42.32080109417438507080078125" lon="2.01419069431722164154052734375">
        <ele>1391.800048828125</ele>
        <time>2020-08-10T06:27:18.000Z</time>
      </trkpt>
      <trkpt lat="42.32080218382179737091064453125" lon="2.01419086195528507232666015625">
        <ele>1392</ele>
        <time>2020-08-10T06:27:36.000Z</time>
      </trkpt>
      <trkpt lat="42.32079799287021160125732421875" lon="2.01409078203141689300537109375">
        <ele>1392.199951171875</ele>
        <time>2020-08-10T06:27:41.000Z</time>
      </trkpt>
      <trkpt lat="42.32078558765351772308349609375" lon="2.01392129994928836822509765625">
        <ele>1392</ele>
        <time>2020-08-10T06:27:47.000Z</time>
      </trkpt>
      <trkpt lat="42.32076295651495456695556640625" lon="2.0136565156280994415283203125">
        <ele>1392.4000244140625</ele>
        <time>2020-08-10T06:27:56.000Z</time>
      </trkpt>
      <trkpt lat="42.32076086103916168212890625" lon="2.01363028027117252349853515625">
        <ele>1392.800048828125</ele>
        <time>2020-08-10T06:27:57.000Z</time>
      </trkpt>
      <trkpt lat="42.32074904255568981170654296875" lon="2.01348342932760715484619140625">
        <ele>1393.5999755859375</ele>
        <time>2020-08-10T06:28:02.000Z</time>
      </trkpt>
      <trkpt lat="42.32075273059308528900146484375" lon="2.01345241628587245941162109375">
        <ele>1394.4000244140625</ele>
        <time>2020-08-10T06:28:04.000Z</time>
      </trkpt>
      <trkpt lat="42.32075340114533901214599609375" lon="2.01345342211425304412841796875">
        <ele>1394.800048828125</ele>
        <time>2020-08-10T06:28:05.000Z</time>
      </trkpt>
      <trkpt lat="42.32076262123882770538330078125" lon="2.01347638852894306182861328125">
        <ele>1395.4000244140625</ele>
        <time>2020-08-10T06:28:12.000Z</time>
      </trkpt>
      <trkpt lat="42.32077024877071380615234375" lon="2.0135857723653316497802734375">
        <ele>1395</ele>
        <time>2020-08-10T06:28:15.000Z</time>
      </trkpt>
      <trkpt lat="42.32077402062714099884033203125" lon="2.0137235708534717559814453125">
        <ele>1394.199951171875</ele>
        <time>2020-08-10T06:28:17.000Z</time>
      </trkpt>
      <trkpt lat="42.32078340835869312286376953125" lon="2.013871259987354278564453125">
        <ele>1393</ele>
        <time>2020-08-10T06:28:19.000Z</time>
      </trkpt>
      <trkpt lat="42.3208133317530155181884765625" lon="2.01407544314861297607421875">
        <ele>1392</ele>
        <time>2020-08-10T06:28:23.000Z</time>
      </trkpt>
      <trkpt lat="42.32082146219909191131591796875" lon="2.01410654000937938690185546875">
        <ele>1391.800048828125</ele>
        <time>2020-08-10T06:28:24.000Z</time>
      </trkpt>
      <trkpt lat="42.32082934118807315826416015625" lon="2.014196813106536865234375">
        <ele>1391.800048828125</ele>
        <time>2020-08-10T06:28:29.000Z</time>
      </trkpt>
      <trkpt lat="42.32081810943782329559326171875" lon="2.01423168182373046875">
        <ele>1392.199951171875</ele>
        <time>2020-08-10T06:28:36.000Z</time>
      </trkpt>
      <trkpt lat="42.32078340835869312286376953125" lon="2.01433151029050350189208984375">
        <ele>1391.800048828125</ele>
        <time>2020-08-10T06:28:40.000Z</time>
      </trkpt>
      <trkpt lat="42.32078776694834232330322265625" lon="2.01436487026512622833251953125">
        <ele>1391.5999755859375</ele>
        <time>2020-08-10T06:28:41.000Z</time>
      </trkpt>
      <trkpt lat="42.320850379765033721923828125" lon="2.01466293074190616607666015625">
        <ele>1391</ele>
        <time>2020-08-10T06:28:49.000Z</time>
      </trkpt>
      <trkpt lat="42.32088952325284481048583984375" lon="2.01493618078529834747314453125">
        <ele>1390.5999755859375</ele>
        <time>2020-08-10T06:28:55.000Z</time>
      </trkpt>
      <trkpt lat="42.32089924626052379608154296875" lon="2.01498295180499553680419921875">
        <ele>1390.5999755859375</ele>
        <time>2020-08-10T06:28:56.000Z</time>
      </trkpt>
      <trkpt lat="42.32093495316803455352783203125" lon="2.0152028091251850128173828125">
        <ele>1390.5999755859375</ele>
        <time>2020-08-10T06:29:02.000Z</time>
      </trkpt>
      <trkpt lat="42.3209363780915737152099609375" lon="2.01521345414221286773681640625">
        <ele>1390.5999755859375</ele>
        <time>2020-08-10T06:29:06.000Z</time>
      </trkpt>
      <trkpt lat="42.3209363780915737152099609375" lon="2.01521345414221286773681640625">
        <ele>1390.5999755859375</ele>
        <time>2020-08-10T06:29:07.000Z</time>
      </trkpt>
      <trkpt lat="42.32098172418773174285888671875" lon="2.01517657376825809478759765625">
        <ele>1390.800048828125</ele>
        <time>2020-08-10T06:45:34.000Z</time>
      </trkpt>
      <trkpt lat="42.32097937725484371185302734375" lon="2.01517045497894287109375">
        <ele>1390.800048828125</ele>
        <time>2020-08-10T06:45:36.000Z</time>
      </trkpt>
      <trkpt lat="42.32097552157938480377197265625" lon="2.01513617299497127532958984375">
        <ele>1390.800048828125</ele>
        <time>2020-08-10T06:45:39.000Z</time>
      </trkpt>
      <trkpt lat="42.32098742388188838958740234375" lon="2.01503994874656200408935546875">
        <ele>1390.5999755859375</ele>
        <time>2020-08-10T06:45:45.000Z</time>
      </trkpt>
      <trkpt lat="42.32096663676202297210693359375" lon="2.01491170562803745269775390625">
        <ele>1390.800048828125</ele>
        <time>2020-08-10T06:45:51.000Z</time>
      </trkpt>
      <trkpt lat="42.32092313468456268310546875" lon="2.01476166956126689910888671875">
        <ele>1390.5999755859375</ele>
        <time>2020-08-10T06:45:59.000Z</time>
      </trkpt>
      <trkpt lat="42.320879213511943817138671875" lon="2.0145999826490879058837890625">
        <ele>1391</ele>
        <time>2020-08-10T06:46:06.000Z</time>
      </trkpt>
      <trkpt lat="42.32085130177438259124755859375" lon="2.01444533653557300567626953125">
        <ele>1391.4000244140625</ele>
        <time>2020-08-10T06:46:12.000Z</time>
      </trkpt>
      <trkpt lat="42.3208062909543514251708984375" lon="2.01426579616963863372802734375">
        <ele>1391.5999755859375</ele>
        <time>2020-08-10T06:46:20.000Z</time>
      </trkpt>
      <trkpt lat="42.3207546584308147430419921875" lon="2.01408751308917999267578125">
        <ele>1391.5999755859375</ele>
        <time>2020-08-10T06:46:27.000Z</time>
      </trkpt>
      <trkpt lat="42.3207161016762256622314453125" lon="2.013918198645114898681640625">
        <ele>1392</ele>
        <time>2020-08-10T06:46:34.000Z</time>
      </trkpt>
      <trkpt lat="42.32071149162948131561279296875" lon="2.01380764134228229522705078125">
        <ele>1393.199951171875</ele>
        <time>2020-08-10T06:46:39.000Z</time>
      </trkpt>
      <trkpt lat="42.3207083903253078460693359375" lon="2.01376321725547313690185546875">
        <ele>1393.4000244140625</ele>
        <time>2020-08-10T06:46:41.000Z</time>
      </trkpt>
      <trkpt lat="42.3207100667059421539306640625" lon="2.01370102353394031524658203125">
        <ele>1394.199951171875</ele>
        <time>2020-08-10T06:46:44.000Z</time>
      </trkpt>
      <trkpt lat="42.3207040317356586456298828125" lon="2.0136166177690029144287109375">
        <ele>1395</ele>
        <time>2020-08-10T06:46:48.000Z</time>
      </trkpt>
      <trkpt lat="42.3207043670117855072021484375" lon="2.01359423808753490447998046875">
        <ele>1395.199951171875</ele>
        <time>2020-08-10T06:46:49.000Z</time>
      </trkpt>
      <trkpt lat="42.320690117776393890380859375" lon="2.01344587840139865875244140625">
        <ele>1396.199951171875</ele>
        <time>2020-08-10T06:46:56.000Z</time>
      </trkpt>
      <trkpt lat="42.3206728510558605194091796875" lon="2.01335267163813114166259765625">
        <ele>1397.4000244140625</ele>
        <time>2020-08-10T06:47:01.000Z</time>
      </trkpt>
      <trkpt lat="42.32066354714334011077880859375" lon="2.01329735107719898223876953125">
        <ele>1398</ele>
        <time>2020-08-10T06:47:04.000Z</time>
      </trkpt>
      <trkpt lat="42.32063404284417629241943359375" lon="2.013231553137302398681640625">
        <ele>1398.5999755859375</ele>
        <time>2020-08-10T06:47:08.000Z</time>
      </trkpt>
      <trkpt lat="42.32061258517205715179443359375" lon="2.01318101026117801666259765625">
        <ele>1399.199951171875</ele>
        <time>2020-08-10T06:47:11.000Z</time>
      </trkpt>
      <trkpt lat="42.32058785855770111083984375" lon="2.01313658617436885833740234375">
        <ele>1399.5999755859375</ele>
        <time>2020-08-10T06:47:14.000Z</time>
      </trkpt>
      <trkpt lat="42.320540584623813629150390625" lon="2.013074643909931182861328125">
        <ele>1400.800048828125</ele>
        <time>2020-08-10T06:47:19.000Z</time>
      </trkpt>
      <trkpt lat="42.32050881721079349517822265625" lon="2.01304170303046703338623046875">
        <ele>1401</ele>
        <time>2020-08-10T06:47:22.000Z</time>
      </trkpt>
      <trkpt lat="42.3204396665096282958984375" lon="2.01298688538372516632080078125">
        <ele>1402</ele>
        <time>2020-08-10T06:47:28.000Z</time>
      </trkpt>
      <trkpt lat="42.3203804902732372283935546875" lon="2.012945227324962615966796875">
        <ele>1403</ele>
        <time>2020-08-10T06:47:33.000Z</time>
      </trkpt>
      <trkpt lat="42.3203677497804164886474609375" lon="2.0129386894404888153076171875">
        <ele>1403.199951171875</ele>
        <time>2020-08-10T06:47:34.000Z</time>
      </trkpt>
      <trkpt lat="42.320299856364727020263671875" lon="2.01288579963147640228271484375">
        <ele>1404</ele>
        <time>2020-08-10T06:47:40.000Z</time>
      </trkpt>
      <trkpt lat="42.32028921134769916534423828125" lon="2.0128759928047657012939453125">
        <ele>1404.199951171875</ele>
        <time>2020-08-10T06:47:41.000Z</time>
      </trkpt>
      <trkpt lat="42.32027982361614704132080078125" lon="2.0128635875880718231201171875">
        <ele>1404.199951171875</ele>
        <time>2020-08-10T06:47:42.000Z</time>
      </trkpt>
      <trkpt lat="42.32023112475872039794921875" lon="2.01278219930827617645263671875">
        <ele>1405.4000244140625</ele>
        <time>2020-08-10T06:47:48.000Z</time>
      </trkpt>
      <trkpt lat="42.320196591317653656005859375" lon="2.012717239558696746826171875">
        <ele>1406.4000244140625</ele>
        <time>2020-08-10T06:47:53.000Z</time>
      </trkpt>
      <trkpt lat="42.3201890476047992706298828125" lon="2.01270273886620998382568359375">
        <ele>1406.5999755859375</ele>
        <time>2020-08-10T06:47:54.000Z</time>
      </trkpt>
      <trkpt lat="42.3201578669250011444091796875" lon="2.01258405111730098724365234375">
        <ele>1407.5999755859375</ele>
        <time>2020-08-10T06:48:01.000Z</time>
      </trkpt>
      <trkpt lat="42.3201501555740833282470703125" lon="2.0124837197363376617431640625">
        <ele>1408.800048828125</ele>
        <time>2020-08-10T06:48:07.000Z</time>
      </trkpt>
      <trkpt lat="42.32014487497508525848388671875" lon="2.01245161704719066619873046875">
        <ele>1409.199951171875</ele>
        <time>2020-08-10T06:48:09.000Z</time>
      </trkpt>
      <trkpt lat="42.3201256804168224334716796875" lon="2.0123690553009510040283203125">
        <ele>1409.800048828125</ele>
        <time>2020-08-10T06:48:14.000Z</time>
      </trkpt>
      <trkpt lat="42.32011352665722370147705078125" lon="2.01228506863117218017578125">
        <ele>1410.4000244140625</ele>
        <time>2020-08-10T06:48:19.000Z</time>
      </trkpt>
      <trkpt lat="42.320100031793117523193359375" lon="2.0122039318084716796875">
        <ele>1411</ele>
        <time>2020-08-10T06:48:24.000Z</time>
      </trkpt>
      <trkpt lat="42.32008871622383594512939453125" lon="2.0121380500495433807373046875">
        <ele>1411.800048828125</ele>
        <time>2020-08-10T06:48:28.000Z</time>
      </trkpt>
      <trkpt lat="42.3200643248856067657470703125" lon="2.01205934397876262664794921875">
        <ele>1412.199951171875</ele>
        <time>2020-08-10T06:48:33.000Z</time>
      </trkpt>
      <trkpt lat="42.32005275785923004150390625" lon="2.01199631206691265106201171875">
        <ele>1412.800048828125</ele>
        <time>2020-08-10T06:48:37.000Z</time>
      </trkpt>
      <trkpt lat="42.3200465552508831024169921875" lon="2.01194484718143939971923828125">
        <ele>1413.199951171875</ele>
        <time>2020-08-10T06:48:40.000Z</time>
      </trkpt>
      <trkpt lat="42.32003188692033290863037109375" lon="2.0118483714759349822998046875">
        <ele>1414</ele>
        <time>2020-08-10T06:48:46.000Z</time>
      </trkpt>
      <trkpt lat="42.3200257681310176849365234375" lon="2.01181576587259769439697265625">
        <ele>1414.4000244140625</ele>
        <time>2020-08-10T06:48:48.000Z</time>
      </trkpt>
      <trkpt lat="42.31999936513602733612060546875" lon="2.0116827450692653656005859375">
        <ele>1415.4000244140625</ele>
        <time>2020-08-10T06:48:56.000Z</time>
      </trkpt>
      <trkpt lat="42.31999467127025127410888671875" lon="2.0116661489009857177734375">
        <ele>1415.4000244140625</ele>
        <time>2020-08-10T06:48:57.000Z</time>
      </trkpt>
      <trkpt lat="42.31995812617242336273193359375" lon="2.0115576870739459991455078125">
        <ele>1416.4000244140625</ele>
        <time>2020-08-10T06:49:04.000Z</time>
      </trkpt>
      <trkpt lat="42.31995276175439357757568359375" lon="2.01154251582920551300048828125">
        <ele>1416.5999755859375</ele>
        <time>2020-08-10T06:49:05.000Z</time>
      </trkpt>
      <trkpt lat="42.31991403736174106597900390625" lon="2.01143455691635608673095703125">
        <ele>1417.4000244140625</ele>
        <time>2020-08-10T06:49:12.000Z</time>
      </trkpt>
      <trkpt lat="42.3198695294559001922607421875" lon="2.01133799739181995391845703125">
        <ele>1418.199951171875</ele>
        <time>2020-08-10T06:49:19.000Z</time>
      </trkpt>
      <trkpt lat="42.3198561184108257293701171875" lon="2.011285610496997833251953125">
        <ele>1418.5999755859375</ele>
        <time>2020-08-10T06:49:22.000Z</time>
      </trkpt>
      <trkpt lat="42.31981881894171237945556640625" lon="2.01118108816444873809814453125">
        <ele>1419.199951171875</ele>
        <time>2020-08-10T06:49:28.000Z</time>
      </trkpt>
      <trkpt lat="42.319802977144718170166015625" lon="2.01110347174108028411865234375">
        <ele>1419.5999755859375</ele>
        <time>2020-08-10T06:49:32.000Z</time>
      </trkpt>
      <trkpt lat="42.31978210620582103729248046875" lon="2.0110111869871616363525390625">
        <ele>1420.4000244140625</ele>
        <time>2020-08-10T06:49:37.000Z</time>
      </trkpt>
      <trkpt lat="42.3197733052074909210205078125" lon="2.01095460914075374603271484375">
        <ele>1420.5999755859375</ele>
        <time>2020-08-10T06:49:40.000Z</time>
      </trkpt>
      <trkpt lat="42.319759391248226165771484375" lon="2.01084329746663570404052734375">
        <ele>1421.5999755859375</ele>
        <time>2020-08-10T06:49:46.000Z</time>
      </trkpt>
      <trkpt lat="42.31975545175373554229736328125" lon="2.01082527637481689453125">
        <ele>1421.800048828125</ele>
        <time>2020-08-10T06:49:47.000Z</time>
      </trkpt>
      <trkpt lat="42.3197273723781108856201171875" lon="2.01067917980253696441650390625">
        <ele>1422.5999755859375</ele>
        <time>2020-08-10T06:49:55.000Z</time>
      </trkpt>
      <trkpt lat="42.31972427107393741607666015625" lon="2.01066090725362300872802734375">
        <ele>1422.800048828125</ele>
        <time>2020-08-10T06:49:56.000Z</time>
      </trkpt>
      <trkpt lat="42.319690994918346405029296875" lon="2.01051455922424793243408203125">
        <ele>1423.5999755859375</ele>
        <time>2020-08-10T06:50:04.000Z</time>
      </trkpt>
      <trkpt lat="42.3196821101009845733642578125" lon="2.01047751121222972869873046875">
        <ele>1423.800048828125</ele>
        <time>2020-08-10T06:50:06.000Z</time>
      </trkpt>
      <trkpt lat="42.31965201906859874725341796875" lon="2.01034314930438995361328125">
        <ele>1425</ele>
        <time>2020-08-10T06:50:13.000Z</time>
      </trkpt>
      <trkpt lat="42.31963927857577800750732421875" lon="2.010266371071338653564453125">
        <ele>1425.800048828125</ele>
        <time>2020-08-10T06:50:17.000Z</time>
      </trkpt>
      <trkpt lat="42.31962938793003559112548828125" lon="2.0101924426853656768798828125">
        <ele>1426.199951171875</ele>
        <time>2020-08-10T06:50:21.000Z</time>
      </trkpt>
      <trkpt lat="42.31961782090365886688232421875" lon="2.01009445823729038238525390625">
        <ele>1426.800048828125</ele>
        <time>2020-08-10T06:50:26.000Z</time>
      </trkpt>
      <trkpt lat="42.31961329467594623565673828125" lon="2.01005523093044757843017578125">
        <ele>1427.199951171875</ele>
        <time>2020-08-10T06:50:28.000Z</time>
      </trkpt>
      <trkpt lat="42.31958881951868534088134765625" lon="2.00989161618053913116455078125">
        <ele>1428.5999755859375</ele>
        <time>2020-08-10T06:50:36.000Z</time>
      </trkpt>
      <trkpt lat="42.3195889033377170562744140625" lon="2.00973294675350189208984375">
        <ele>1429.5999755859375</ele>
        <time>2020-08-10T06:50:44.000Z</time>
      </trkpt>
      <trkpt lat="42.31958898715674877166748046875" lon="2.009713836014270782470703125">
        <ele>1429.800048828125</ele>
        <time>2020-08-10T06:50:45.000Z</time>
      </trkpt>
      <trkpt lat="42.31959233991801738739013671875" lon="2.009596489369869232177734375">
        <ele>1430.800048828125</ele>
        <time>2020-08-10T06:50:51.000Z</time>
      </trkpt>
      <trkpt lat="42.31959301047027111053466796875" lon="2.009576372802257537841796875">
        <ele>1430.800048828125</ele>
        <time>2020-08-10T06:50:52.000Z</time>
      </trkpt>
      <trkpt lat="42.31960139237344264984130859375" lon="2.0094625465571880340576171875">
        <ele>1431.800048828125</ele>
        <time>2020-08-10T06:50:58.000Z</time>
      </trkpt>
      <trkpt lat="42.31960508041083812713623046875" lon="2.00940529815852642059326171875">
        <ele>1432.4000244140625</ele>
        <time>2020-08-10T06:51:01.000Z</time>
      </trkpt>
      <trkpt lat="42.31960776261985301971435546875" lon="2.00934528373181819915771484375">
        <ele>1432.800048828125</ele>
        <time>2020-08-10T06:51:04.000Z</time>
      </trkpt>
      <trkpt lat="42.319614551961421966552734375" lon="2.0092677511274814605712890625">
        <ele>1433.4000244140625</ele>
        <time>2020-08-10T06:51:08.000Z</time>
      </trkpt>
      <trkpt lat="42.31962184421718120574951171875" lon="2.00920983217656612396240234375">
        <ele>1434</ele>
        <time>2020-08-10T06:51:11.000Z</time>
      </trkpt>
      <trkpt lat="42.3196241073310375213623046875" lon="2.00911126099526882171630859375">
        <ele>1435</ele>
        <time>2020-08-10T06:51:16.000Z</time>
      </trkpt>
      <trkpt lat="42.31962720863521099090576171875" lon="2.0090726204216480255126953125">
        <ele>1435</ele>
        <time>2020-08-10T06:51:18.000Z</time>
      </trkpt>
      <trkpt lat="42.31962871737778186798095703125" lon="2.008950412273406982421875">
        <ele>1436.4000244140625</ele>
        <time>2020-08-10T06:51:24.000Z</time>
      </trkpt>
      <trkpt lat="42.3196277953684329986572265625" lon="2.0089307986199855804443359375">
        <ele>1436.4000244140625</ele>
        <time>2020-08-10T06:51:25.000Z</time>
      </trkpt>
      <trkpt lat="42.31961832381784915924072265625" lon="2.00879660435020923614501953125">
        <ele>1437.4000244140625</ele>
        <time>2020-08-10T06:51:32.000Z</time>
      </trkpt>
      <trkpt lat="42.319617904722690582275390625" lon="2.00869887135922908782958984375">
        <ele>1438.4000244140625</ele>
        <time>2020-08-10T06:51:37.000Z</time>
      </trkpt>
      <trkpt lat="42.31962251476943492889404296875" lon="2.0086206682026386260986328125">
        <ele>1439</ele>
        <time>2020-08-10T06:51:41.000Z</time>
      </trkpt>
      <trkpt lat="42.31963827274739742279052734375" lon="2.00853123329579830169677734375">
        <ele>1439.5999755859375</ele>
        <time>2020-08-10T06:51:46.000Z</time>
      </trkpt>
      <trkpt lat="42.31967129744589328765869140625" lon="2.00842377729713916778564453125">
        <ele>1440.5999755859375</ele>
        <time>2020-08-10T06:51:52.000Z</time>
      </trkpt>
      <trkpt lat="42.31971840374171733856201171875" lon="2.00827323831617832183837890625">
        <ele>1441.800048828125</ele>
        <time>2020-08-10T06:52:00.000Z</time>
      </trkpt>
      <trkpt lat="42.3197290487587451934814453125" lon="2.00823266990482807159423828125">
        <ele>1442</ele>
        <time>2020-08-10T06:52:02.000Z</time>
      </trkpt>
      <trkpt lat="42.3197572119534015655517578125" lon="2.0081365294754505157470703125">
        <ele>1442.800048828125</ele>
        <time>2020-08-10T06:52:07.000Z</time>
      </trkpt>
      <trkpt lat="42.3198013007640838623046875" lon="2.00798355974256992340087890625">
        <ele>1443.800048828125</ele>
        <time>2020-08-10T06:52:15.000Z</time>
      </trkpt>
      <trkpt lat="42.31982820667326450347900390625" lon="2.0078656263649463653564453125">
        <ele>1444.800048828125</ele>
        <time>2020-08-10T06:52:21.000Z</time>
      </trkpt>
      <trkpt lat="42.31983910314738750457763671875" lon="2.0078294165432453155517578125">
        <ele>1445</ele>
        <time>2020-08-10T06:52:23.000Z</time>
      </trkpt>
      <trkpt lat="42.3198567889630794525146484375" lon="2.007735036313533782958984375">
        <ele>1445.800048828125</ele>
        <time>2020-08-10T06:52:28.000Z</time>
      </trkpt>
      <trkpt lat="42.31986843980848789215087890625" lon="2.00765465386211872100830078125">
        <ele>1446.4000244140625</ele>
        <time>2020-08-10T06:52:32.000Z</time>
      </trkpt>
      <trkpt lat="42.31987849809229373931884765625" lon="2.00757703743875026702880859375">
        <ele>1447</ele>
        <time>2020-08-10T06:52:36.000Z</time>
      </trkpt>
      <trkpt lat="42.31988721527159214019775390625" lon="2.00751685537397861480712890625">
        <ele>1447.5999755859375</ele>
        <time>2020-08-10T06:52:39.000Z</time>
      </trkpt>
      <trkpt lat="42.31989459134638309478759765625" lon="2.00743890367448329925537109375">
        <ele>1448</ele>
        <time>2020-08-10T06:52:43.000Z</time>
      </trkpt>
      <trkpt lat="42.31990749947726726531982421875" lon="2.00738810934126377105712890625">
        <ele>1448.5999755859375</ele>
        <time>2020-08-10T06:52:46.000Z</time>
      </trkpt>
      <trkpt lat="42.31992158107459545135498046875" lon="2.00729490257799625396728515625">
        <ele>1449.199951171875</ele>
        <time>2020-08-10T06:52:51.000Z</time>
      </trkpt>
      <trkpt lat="42.3199312202632427215576171875" lon="2.00724042020738124847412109375">
        <ele>1449.800048828125</ele>
        <time>2020-08-10T06:52:54.000Z</time>
      </trkpt>
      <trkpt lat="42.3199367523193359375" lon="2.00720437802374362945556640625">
        <ele>1450.4000244140625</ele>
        <time>2020-08-10T06:52:56.000Z</time>
      </trkpt>
      <trkpt lat="42.31995376758277416229248046875" lon="2.007110081613063812255859375">
        <ele>1450.800048828125</ele>
        <time>2020-08-10T06:53:01.000Z</time>
      </trkpt>
      <trkpt lat="42.31996198184788227081298828125" lon="2.00705207884311676025390625">
        <ele>1451.4000244140625</ele>
        <time>2020-08-10T06:53:04.000Z</time>
      </trkpt>
      <trkpt lat="42.319967932999134063720703125" lon="2.00692391954362392425537109375">
        <ele>1452.4000244140625</ele>
        <time>2020-08-10T06:53:11.000Z</time>
      </trkpt>
      <trkpt lat="42.31997069902718067169189453125" lon="2.0069052278995513916015625">
        <ele>1452.5999755859375</ele>
        <time>2020-08-10T06:53:12.000Z</time>
      </trkpt>
      <trkpt lat="42.31999735347926616668701171875" lon="2.0068058185279369354248046875">
        <ele>1453.800048828125</ele>
        <time>2020-08-10T06:53:18.000Z</time>
      </trkpt>
      <trkpt lat="42.31999953277409076690673828125" lon="2.00678695924580097198486328125">
        <ele>1454</ele>
        <time>2020-08-10T06:53:19.000Z</time>
      </trkpt>
      <trkpt lat="42.320013530552387237548828125" lon="2.0066529326140880584716796875">
        <ele>1454.800048828125</ele>
        <time>2020-08-10T06:53:26.000Z</time>
      </trkpt>
      <trkpt lat="42.320011518895626068115234375" lon="2.0066140405833721160888671875">
        <ele>1455</ele>
        <time>2020-08-10T06:53:28.000Z</time>
      </trkpt>
      <trkpt lat="42.31999031268060207366943359375" lon="2.00651538558304309844970703125">
        <ele>1455.4000244140625</ele>
        <time>2020-08-10T06:53:36.000Z</time>
      </trkpt>
      <trkpt lat="42.31998980976641178131103515625" lon="2.006514631211757659912109375">
        <ele>1455.800048828125</ele>
        <time>2020-08-10T06:53:53.000Z</time>
      </trkpt>
      <trkpt lat="42.31998972594738006591796875" lon="2.00651471503078937530517578125">
        <ele>1455.5999755859375</ele>
        <time>2020-08-10T06:54:20.000Z</time>
      </trkpt>
      <trkpt lat="42.31998980976641178131103515625" lon="2.00651572085916996002197265625">
        <ele>1455.800048828125</ele>
        <time>2020-08-10T06:54:36.000Z</time>
      </trkpt>
      <trkpt lat="42.3199903964996337890625" lon="2.006515972316265106201171875">
        <ele>1455.800048828125</ele>
        <time>2020-08-10T06:54:46.000Z</time>
      </trkpt>
      <trkpt lat="42.3199677653610706329345703125" lon="2.00645587407052516937255859375">
        <ele>1455.5999755859375</ele>
        <time>2020-08-10T06:54:51.000Z</time>
      </trkpt>
      <trkpt lat="42.31991730630397796630859375" lon="2.006248421967029571533203125">
        <ele>1455.5999755859375</ele>
        <time>2020-08-10T06:54:57.000Z</time>
      </trkpt>
      <trkpt lat="42.3198098503053188323974609375" lon="2.0058221183717250823974609375">
        <ele>1454.800048828125</ele>
        <time>2020-08-10T06:55:07.000Z</time>
      </trkpt>
      <trkpt lat="42.31978076510131359100341796875" lon="2.00568012893199920654296875">
        <ele>1454.5999755859375</ele>
        <time>2020-08-10T06:55:10.000Z</time>
      </trkpt>
      <trkpt lat="42.31975293718278408050537109375" lon="2.00552464462816715240478515625">
        <ele>1454.199951171875</ele>
        <time>2020-08-10T06:55:13.000Z</time>
      </trkpt>
      <trkpt lat="42.31974941678345203399658203125" lon="2.00547016225755214691162109375">
        <ele>1454.199951171875</ele>
        <time>2020-08-10T06:55:14.000Z</time>
      </trkpt>
      <trkpt lat="42.31974899768829345703125" lon="2.0054157637059688568115234375">
        <ele>1454</ele>
        <time>2020-08-10T06:55:15.000Z</time>
      </trkpt>
      <trkpt lat="42.3197887279093265533447265625" lon="2.0052102394402027130126953125">
        <ele>1453.5999755859375</ele>
        <time>2020-08-10T06:55:19.000Z</time>
      </trkpt>
      <trkpt lat="42.3198309727013111114501953125" lon="2.0051388256251811981201171875">
        <ele>1453.5999755859375</ele>
        <time>2020-08-10T06:55:21.000Z</time>
      </trkpt>
      <trkpt lat="42.3199144564568996429443359375" lon="2.005018629133701324462890625">
        <ele>1454</ele>
        <time>2020-08-10T06:55:25.000Z</time>
      </trkpt>
      <trkpt lat="42.32006826438009738922119140625" lon="2.00480095110833644866943359375">
        <ele>1454.5999755859375</ele>
        <time>2020-08-10T06:55:33.000Z</time>
      </trkpt>
      <trkpt lat="42.32027227990329265594482421875" lon="2.0045323111116886138916015625">
        <ele>1455.4000244140625</ele>
        <time>2020-08-10T06:55:44.000Z</time>
      </trkpt>
      <trkpt lat="42.3203791491687297821044921875" lon="2.0044563710689544677734375">
        <ele>1455.5999755859375</ele>
        <time>2020-08-10T06:55:49.000Z</time>
      </trkpt>
      <trkpt lat="42.32048685662448406219482421875" lon="2.00440633110702037811279296875">
        <ele>1456.199951171875</ele>
        <time>2020-08-10T06:55:54.000Z</time>
      </trkpt>
      <trkpt lat="42.3205695860087871551513671875" lon="2.00438839383423328399658203125">
        <ele>1456.5999755859375</ele>
        <time>2020-08-10T06:55:58.000Z</time>
      </trkpt>
      <trkpt lat="42.3206534050405025482177734375" lon="2.0043871365487575531005859375">
        <ele>1457</ele>
        <time>2020-08-10T06:56:02.000Z</time>
      </trkpt>
      <trkpt lat="42.3208123259246349334716796875" lon="2.004429884254932403564453125">
        <ele>1457.800048828125</ele>
        <time>2020-08-10T06:56:10.000Z</time>
      </trkpt>
      <trkpt lat="42.3208297602832317352294921875" lon="2.00443952344357967376708984375">
        <ele>1458</ele>
        <time>2020-08-10T06:56:11.000Z</time>
      </trkpt>
      <trkpt lat="42.3209383897483348846435546875" lon="2.00449802912771701812744140625">
        <ele>1459</ele>
        <time>2020-08-10T06:56:17.000Z</time>
      </trkpt>
      <trkpt lat="42.32097141444683074951171875" lon="2.0045155473053455352783203125">
        <ele>1459.199951171875</ele>
        <time>2020-08-10T06:56:19.000Z</time>
      </trkpt>
      <trkpt lat="42.3210647888481616973876953125" lon="2.00455955229699611663818359375">
        <ele>1460</ele>
        <time>2020-08-10T06:56:25.000Z</time>
      </trkpt>
      <trkpt lat="42.32117719016969203948974609375" lon="2.00460665859282016754150390625">
        <ele>1461</ele>
        <time>2020-08-10T06:56:32.000Z</time>
      </trkpt>
      <trkpt lat="42.32119663618505001068115234375" lon="2.00461395084857940673828125">
        <ele>1461.199951171875</ele>
        <time>2020-08-10T06:56:33.000Z</time>
      </trkpt>
      <trkpt lat="42.321319766342639923095703125" lon="2.004669271409511566162109375">
        <ele>1462.199951171875</ele>
        <time>2020-08-10T06:56:40.000Z</time>
      </trkpt>
      <trkpt lat="42.32135371305048465728759765625" lon="2.00468762777745723724365234375">
        <ele>1462.5999755859375</ele>
        <time>2020-08-10T06:56:42.000Z</time>
      </trkpt>
      <trkpt lat="42.32141607441008090972900390625" lon="2.0047110132873058319091796875">
        <ele>1463.199951171875</ele>
        <time>2020-08-10T06:56:46.000Z</time>
      </trkpt>
      <trkpt lat="42.32143141329288482666015625" lon="2.00472031719982624053955078125">
        <ele>1463.4000244140625</ele>
        <time>2020-08-10T06:56:47.000Z</time>
      </trkpt>
      <trkpt lat="42.32152529060840606689453125" lon="2.00478133745491504669189453125">
        <ele>1464.199951171875</ele>
        <time>2020-08-10T06:56:53.000Z</time>
      </trkpt>
      <trkpt lat="42.32154280878603458404541015625" lon="2.0047884620726108551025390625">
        <ele>1464.4000244140625</ele>
        <time>2020-08-10T06:56:54.000Z</time>
      </trkpt>
      <trkpt lat="42.32165898196399211883544921875" lon="2.00482911430299282073974609375">
        <ele>1465.4000244140625</ele>
        <time>2020-08-10T06:57:01.000Z</time>
      </trkpt>
      <trkpt lat="42.321675159037113189697265625" lon="2.004834897816181182861328125">
        <ele>1465.5999755859375</ele>
        <time>2020-08-10T06:57:02.000Z</time>
      </trkpt>
      <trkpt lat="42.32177465222775936126708984375" lon="2.00488619506359100341796875">
        <ele>1466.5999755859375</ele>
        <time>2020-08-10T06:57:08.000Z</time>
      </trkpt>
      <trkpt lat="42.3217933438718318939208984375" lon="2.0048947446048259735107421875">
        <ele>1466.5999755859375</ele>
        <time>2020-08-10T06:57:09.000Z</time>
      </trkpt>
      <trkpt lat="42.32190876267850399017333984375" lon="2.00493807904422283172607421875">
        <ele>1467.4000244140625</ele>
        <time>2020-08-10T06:57:16.000Z</time>
      </trkpt>
      <trkpt lat="42.32193960808217525482177734375" lon="2.0049470476806163787841796875">
        <ele>1467.5999755859375</ele>
        <time>2020-08-10T06:57:18.000Z</time>
      </trkpt>
      <trkpt lat="42.3220186494290828704833984375" lon="2.00495819561183452606201171875">
        <ele>1468.4000244140625</ele>
        <time>2020-08-10T06:57:23.000Z</time>
      </trkpt>
      <trkpt lat="42.32203884981572628021240234375" lon="2.004960961639881134033203125">
        <ele>1468.800048828125</ele>
        <time>2020-08-10T06:57:24.000Z</time>
      </trkpt>
      <trkpt lat="42.322131134569644927978515625" lon="2.00498409569263458251953125">
        <ele>1469.4000244140625</ele>
        <time>2020-08-10T06:57:30.000Z</time>
      </trkpt>
      <trkpt lat="42.3221655003726482391357421875" lon="2.00498082675039768218994140625">
        <ele>1469.5999755859375</ele>
        <time>2020-08-10T06:57:32.000Z</time>
      </trkpt>
      <trkpt lat="42.32224152423441410064697265625" lon="2.0049651525914669036865234375">
        <ele>1470.199951171875</ele>
        <time>2020-08-10T06:57:37.000Z</time>
      </trkpt>
      <trkpt lat="42.322292067110538482666015625" lon="2.00496054254472255706787109375">
        <ele>1470.800048828125</ele>
        <time>2020-08-10T06:57:40.000Z</time>
      </trkpt>
      <trkpt lat="42.3223706893622875213623046875" lon="2.0049633085727691650390625">
        <ele>1471.800048828125</ele>
        <time>2020-08-10T06:57:45.000Z</time>
      </trkpt>
      <trkpt lat="42.3223841004073619842529296875" lon="2.00496322475373744964599609375">
        <ele>1471.800048828125</ele>
        <time>2020-08-10T06:57:46.000Z</time>
      </trkpt>
      <trkpt lat="42.32247169129550457000732421875" lon="2.00494914315640926361083984375">
        <ele>1473</ele>
        <time>2020-08-10T06:57:52.000Z</time>
      </trkpt>
      <trkpt lat="42.32248493470251560211181640625" lon="2.00494897551834583282470703125">
        <ele>1473</ele>
        <time>2020-08-10T06:57:53.000Z</time>
      </trkpt>
      <trkpt lat="42.32257143594324588775634765625" lon="2.00494830496609210968017578125">
        <ele>1474</ele>
        <time>2020-08-10T06:57:59.000Z</time>
      </trkpt>
      <trkpt lat="42.3226151056587696075439453125" lon="2.0049480535089969635009765625">
        <ele>1474.4000244140625</ele>
        <time>2020-08-10T06:58:02.000Z</time>
      </trkpt>
      <trkpt lat="42.3226570151746273040771484375" lon="2.0049497298896312713623046875">
        <ele>1475</ele>
        <time>2020-08-10T06:58:05.000Z</time>
      </trkpt>
      <trkpt lat="42.3227542452514171600341796875" lon="2.004950903356075286865234375">
        <ele>1476.199951171875</ele>
        <time>2020-08-10T06:58:12.000Z</time>
      </trkpt>
      <trkpt lat="42.3228363879024982452392578125" lon="2.00497881509363651275634765625">
        <ele>1477.199951171875</ele>
        <time>2020-08-10T06:58:18.000Z</time>
      </trkpt>
      <trkpt lat="42.32286497019231319427490234375" lon="2.00498954392969608306884765625">
        <ele>1477.5999755859375</ele>
        <time>2020-08-10T06:58:20.000Z</time>
      </trkpt>
      <trkpt lat="42.32295549474656581878662109375" lon="2.00501921586692333221435546875">
        <ele>1478.4000244140625</ele>
        <time>2020-08-10T06:58:26.000Z</time>
      </trkpt>
      <trkpt lat="42.3229855857789516448974609375" lon="2.005031369626522064208984375">
        <ele>1478.800048828125</ele>
        <time>2020-08-10T06:58:28.000Z</time>
      </trkpt>
      <trkpt lat="42.32303109951317310333251953125" lon="2.0050432719290256500244140625">
        <ele>1479.4000244140625</ele>
        <time>2020-08-10T06:58:31.000Z</time>
      </trkpt>
      <trkpt lat="42.3230754397809505462646484375" lon="2.005052156746387481689453125">
        <ele>1479.800048828125</ele>
        <time>2020-08-10T06:58:34.000Z</time>
      </trkpt>
      <trkpt lat="42.323120534420013427734375" lon="2.00506632216274738311767578125">
        <ele>1480.199951171875</ele>
        <time>2020-08-10T06:58:37.000Z</time>
      </trkpt>
      <trkpt lat="42.3231498710811138153076171875" lon="2.0050774700939655303955078125">
        <ele>1480.5999755859375</ele>
        <time>2020-08-10T06:58:39.000Z</time>
      </trkpt>
      <trkpt lat="42.32324182055890560150146484375" lon="2.005114853382110595703125">
        <ele>1481.5999755859375</ele>
        <time>2020-08-10T06:58:45.000Z</time>
      </trkpt>
      <trkpt lat="42.32333770953118801116943359375" lon="2.0051391609013080596923828125">
        <ele>1482.5999755859375</ele>
        <time>2020-08-10T06:58:51.000Z</time>
      </trkpt>
      <trkpt lat="42.32339286245405673980712890625" lon="2.00516958720982074737548828125">
        <ele>1483.199951171875</ele>
        <time>2020-08-10T06:58:55.000Z</time>
      </trkpt>
      <trkpt lat="42.32346050441265106201171875" lon="2.0051653124392032623291015625">
        <ele>1483.800048828125</ele>
        <time>2020-08-10T06:59:00.000Z</time>
      </trkpt>
      <trkpt lat="42.3234879970550537109375" lon="2.0051519013941287994384765625">
        <ele>1484.4000244140625</ele>
        <time>2020-08-10T06:59:02.000Z</time>
      </trkpt>
      <trkpt lat="42.3235515318810939788818359375" lon="2.00509951449930667877197265625">
        <ele>1485</ele>
        <time>2020-08-10T06:59:07.000Z</time>
      </trkpt>
      <trkpt lat="42.323607690632343292236328125" lon="2.00504452921450138092041015625">
        <ele>1486</ele>
        <time>2020-08-10T06:59:12.000Z</time>
      </trkpt>
      <trkpt lat="42.32361867092549800872802734375" lon="2.00503363274037837982177734375">
        <ele>1486</ele>
        <time>2020-08-10T06:59:13.000Z</time>
      </trkpt>
      <trkpt lat="42.32368689961731433868408203125" lon="2.0049872808158397674560546875">
        <ele>1487</ele>
        <time>2020-08-10T06:59:19.000Z</time>
      </trkpt>
      <trkpt lat="42.32371908612549304962158203125" lon="2.0049698464572429656982421875">
        <ele>1487.5999755859375</ele>
        <time>2020-08-10T06:59:22.000Z</time>
      </trkpt>
      <trkpt lat="42.3237624205648899078369140625" lon="2.0049257576465606689453125">
        <ele>1488.199951171875</ele>
        <time>2020-08-10T06:59:26.000Z</time>
      </trkpt>
      <trkpt lat="42.32384741306304931640625" lon="2.0048421062529087066650390625">
        <ele>1489.4000244140625</ele>
        <time>2020-08-10T06:59:33.000Z</time>
      </trkpt>
      <trkpt lat="42.3238693736493587493896484375" lon="2.0048077404499053955078125">
        <ele>1489.5999755859375</ele>
        <time>2020-08-10T06:59:35.000Z</time>
      </trkpt>
      <trkpt lat="42.3239156417548656463623046875" lon="2.0047425292432308197021484375">
        <ele>1490.4000244140625</ele>
        <time>2020-08-10T06:59:39.000Z</time>
      </trkpt>
      <trkpt lat="42.32397255487740039825439453125" lon="2.00467337854206562042236328125">
        <ele>1491.199951171875</ele>
        <time>2020-08-10T06:59:44.000Z</time>
      </trkpt>
      <trkpt lat="42.32398328371345996856689453125" lon="2.00465686619281768798828125">
        <ele>1491.4000244140625</ele>
        <time>2020-08-10T06:59:45.000Z</time>
      </trkpt>
      <trkpt lat="42.3240604810416698455810546875" lon="2.0045537687838077545166015625">
        <ele>1492.199951171875</ele>
        <time>2020-08-10T06:59:52.000Z</time>
      </trkpt>
      <trkpt lat="42.3240821063518524169921875" lon="2.00452736578881740570068359375">
        <ele>1492.5999755859375</ele>
        <time>2020-08-10T06:59:54.000Z</time>
      </trkpt>
      <trkpt lat="42.32414119876921176910400390625" lon="2.0044518448412418365478515625">
        <ele>1493.5999755859375</ele>
        <time>2020-08-10T07:00:00.000Z</time>
      </trkpt>
      <trkpt lat="42.324150167405605316162109375" lon="2.0044401101768016815185546875">
        <ele>1493.5999755859375</ele>
        <time>2020-08-10T07:00:01.000Z</time>
      </trkpt>
      <trkpt lat="42.32420205138623714447021484375" lon="2.0044065825641155242919921875">
        <ele>1494.5999755859375</ele>
        <time>2020-08-10T07:00:06.000Z</time>
      </trkpt>
      <trkpt lat="42.3242425359785556793212890625" lon="2.00438596308231353759765625">
        <ele>1495.199951171875</ele>
        <time>2020-08-10T07:00:10.000Z</time>
      </trkpt>
      <trkpt lat="42.3242706991732120513916015625" lon="2.0043673552572727203369140625">
        <ele>1495.800048828125</ele>
        <time>2020-08-10T07:00:13.000Z</time>
      </trkpt>
      <trkpt lat="42.3243213258683681488037109375" lon="2.0043381862342357635498046875">
        <ele>1496.4000244140625</ele>
        <time>2020-08-10T07:00:18.000Z</time>
      </trkpt>
      <trkpt lat="42.32434420846402645111083984375" lon="2.0043150521814823150634765625">
        <ele>1496.800048828125</ele>
        <time>2020-08-10T07:00:20.000Z</time>
      </trkpt>
      <trkpt lat="42.324433140456676483154296875" lon="2.00420516543090343475341796875">
        <ele>1497.800048828125</ele>
        <time>2020-08-10T07:00:28.000Z</time>
      </trkpt>
      <trkpt lat="42.32444261200726032257080078125" lon="2.00419359840452671051025390625">
        <ele>1498</ele>
        <time>2020-08-10T07:00:29.000Z</time>
      </trkpt>
      <trkpt lat="42.32449583709239959716796875" lon="2.00415118597447872161865234375">
        <ele>1498.800048828125</ele>
        <time>2020-08-10T07:00:34.000Z</time>
      </trkpt>
      <trkpt lat="42.324521653354167938232421875" lon="2.00413727201521396636962890625">
        <ele>1499.199951171875</ele>
        <time>2020-08-10T07:00:36.000Z</time>
      </trkpt>
      <trkpt lat="42.3246163688600063323974609375" lon="2.00406988151371479034423828125">
        <ele>1500</ele>
        <time>2020-08-10T07:00:43.000Z</time>
      </trkpt>
      <trkpt lat="42.32468702830374240875244140625" lon="2.00403082184493541717529296875">
        <ele>1500.800048828125</ele>
        <time>2020-08-10T07:00:48.000Z</time>
      </trkpt>
      <trkpt lat="42.32473061420023441314697265625" lon="2.0040116272866725921630859375">
        <ele>1501</ele>
        <time>2020-08-10T07:00:51.000Z</time>
      </trkpt>
      <trkpt lat="42.32481828890740871429443359375" lon="2.00397751294076442718505859375">
        <ele>1501.5999755859375</ele>
        <time>2020-08-10T07:00:57.000Z</time>
      </trkpt>
      <trkpt lat="42.32487327419221401214599609375" lon="2.00396007858216762542724609375">
        <ele>1502</ele>
        <time>2020-08-10T07:01:01.000Z</time>
      </trkpt>
      <trkpt lat="42.324936725199222564697265625" lon="2.00394616462290287017822265625">
        <ele>1502.800048828125</ele>
        <time>2020-08-10T07:01:05.000Z</time>
      </trkpt>
      <trkpt lat="42.325019203126430511474609375" lon="2.00394029729068279266357421875">
        <ele>1503.4000244140625</ele>
        <time>2020-08-10T07:01:10.000Z</time>
      </trkpt>
      <trkpt lat="42.32507117092609405517578125" lon="2.0039412193000316619873046875">
        <ele>1503.800048828125</ele>
        <time>2020-08-10T07:01:13.000Z</time>
      </trkpt>
      <trkpt lat="42.32510427944362163543701171875" lon="2.003943733870983123779296875">
        <ele>1503.800048828125</ele>
        <time>2020-08-10T07:01:15.000Z</time>
      </trkpt>
      <trkpt lat="42.3251682333648204803466796875" lon="2.00391515158116817474365234375">
        <ele>1504.199951171875</ele>
        <time>2020-08-10T07:01:19.000Z</time>
      </trkpt>
      <trkpt lat="42.32519966550171375274658203125" lon="2.00390861369669437408447265625">
        <ele>1504.4000244140625</ele>
        <time>2020-08-10T07:01:21.000Z</time>
      </trkpt>
      <trkpt lat="42.32529857195913791656494140625" lon="2.00389972887933254241943359375">
        <ele>1505</ele>
        <time>2020-08-10T07:01:27.000Z</time>
      </trkpt>
      <trkpt lat="42.32536462135612964630126953125" lon="2.00389369390904903411865234375">
        <ele>1505.800048828125</ele>
        <time>2020-08-10T07:01:31.000Z</time>
      </trkpt>
      <trkpt lat="42.32541524805128574371337890625" lon="2.00388598255813121795654296875">
        <ele>1506</ele>
        <time>2020-08-10T07:01:34.000Z</time>
      </trkpt>
      <trkpt lat="42.32553946785628795623779296875" lon="2.0038530416786670684814453125">
        <ele>1506.800048828125</ele>
        <time>2020-08-10T07:01:42.000Z</time>
      </trkpt>
      <trkpt lat="42.32555530965328216552734375" lon="2.00384709052741527557373046875">
        <ele>1506.800048828125</ele>
        <time>2020-08-10T07:01:43.000Z</time>
      </trkpt>
      <trkpt lat="42.3256460018455982208251953125" lon="2.003799565136432647705078125">
        <ele>1507.800048828125</ele>
        <time>2020-08-10T07:01:49.000Z</time>
      </trkpt>
      <trkpt lat="42.32570325024425983428955078125" lon="2.00375623069703578948974609375">
        <ele>1508.4000244140625</ele>
        <time>2020-08-10T07:01:53.000Z</time>
      </trkpt>
      <trkpt lat="42.32576158829033374786376953125" lon="2.00372672639787197113037109375">
        <ele>1509</ele>
        <time>2020-08-10T07:01:57.000Z</time>
      </trkpt>
      <trkpt lat="42.32580467127263545989990234375" lon="2.003688924014568328857421875">
        <ele>1509.199951171875</ele>
        <time>2020-08-10T07:02:00.000Z</time>
      </trkpt>
      <trkpt lat="42.3258619196712970733642578125" lon="2.00365212745964527130126953125">
        <ele>1510.199951171875</ele>
        <time>2020-08-10T07:02:04.000Z</time>
      </trkpt>
      <trkpt lat="42.32589150778949260711669921875" lon="2.00363737531006336212158203125">
        <ele>1510.4000244140625</ele>
        <time>2020-08-10T07:02:06.000Z</time>
      </trkpt>
      <trkpt lat="42.32597666792571544647216796875" lon="2.00358054600656032562255859375">
        <ele>1511</ele>
        <time>2020-08-10T07:02:12.000Z</time>
      </trkpt>
      <trkpt lat="42.32598806731402873992919921875" lon="2.00356830842792987823486328125">
        <ele>1511.199951171875</ele>
        <time>2020-08-10T07:02:13.000Z</time>
      </trkpt>
      <trkpt lat="42.3260764963924884796142578125" lon="2.003512568771839141845703125">
        <ele>1512.199951171875</ele>
        <time>2020-08-10T07:02:19.000Z</time>
      </trkpt>
      <trkpt lat="42.32617112807929515838623046875" lon="2.003418020904064178466796875">
        <ele>1512.800048828125</ele>
        <time>2020-08-10T07:02:26.000Z</time>
      </trkpt>
      <trkpt lat="42.326236926019191741943359375" lon="2.00339010916650295257568359375">
        <ele>1513.5999755859375</ele>
        <time>2020-08-10T07:02:30.000Z</time>
      </trkpt>
      <trkpt lat="42.32629467733204364776611328125" lon="2.003348283469676971435546875">
        <ele>1514.199951171875</ele>
        <time>2020-08-10T07:02:34.000Z</time>
      </trkpt>
      <trkpt lat="42.32632216997444629669189453125" lon="2.00332305394113063812255859375">
        <ele>1514.5999755859375</ele>
        <time>2020-08-10T07:02:36.000Z</time>
      </trkpt>
      <trkpt lat="42.32640020549297332763671875" lon="2.0032347925007343292236328125">
        <ele>1515.4000244140625</ele>
        <time>2020-08-10T07:02:42.000Z</time>
      </trkpt>
      <trkpt lat="42.3264451324939727783203125" lon="2.00319514609873294830322265625">
        <ele>1515.800048828125</ele>
        <time>2020-08-10T07:02:45.000Z</time>
      </trkpt>
      <trkpt lat="42.32651394791901111602783203125" lon="2.00311652384698390960693359375">
        <ele>1516.4000244140625</ele>
        <time>2020-08-10T07:02:50.000Z</time>
      </trkpt>
      <trkpt lat="42.3265381716191768646240234375" lon="2.003080062568187713623046875">
        <ele>1516.800048828125</ele>
        <time>2020-08-10T07:02:52.000Z</time>
      </trkpt>
      <trkpt lat="42.32663330622017383575439453125" lon="2.0029489696025848388671875">
        <ele>1518</ele>
        <time>2020-08-10T07:03:00.000Z</time>
      </trkpt>
      <trkpt lat="42.32664269395172595977783203125" lon="2.00293044559657573699951171875">
        <ele>1518.199951171875</ele>
        <time>2020-08-10T07:03:01.000Z</time>
      </trkpt>
      <trkpt lat="42.3267048038542270660400390625" lon="2.002819217741489410400390625">
        <ele>1519.199951171875</ele>
        <time>2020-08-10T07:03:07.000Z</time>
      </trkpt>
      <trkpt lat="42.3267426900565624237060546875" lon="2.00274352915585041046142578125">
        <ele>1519.800048828125</ele>
        <time>2020-08-10T07:03:11.000Z</time>
      </trkpt>
      <trkpt lat="42.32677278108894824981689453125" lon="2.0026892982423305511474609375">
        <ele>1520.199951171875</ele>
        <time>2020-08-10T07:03:14.000Z</time>
      </trkpt>
      <trkpt lat="42.326846458017826080322265625" lon="2.00257672928273677825927734375">
        <ele>1521.4000244140625</ele>
        <time>2020-08-10T07:03:21.000Z</time>
      </trkpt>
      <trkpt lat="42.32686799950897693634033203125" lon="2.00254253111779689788818359375">
        <ele>1521.5999755859375</ele>
        <time>2020-08-10T07:03:23.000Z</time>
      </trkpt>
      <trkpt lat="42.32693086378276348114013671875" lon="2.00243524275720119476318359375">
        <ele>1522.4000244140625</ele>
        <time>2020-08-10T07:03:29.000Z</time>
      </trkpt>
      <trkpt lat="42.3269643075764179229736328125" lon="2.00238813646137714385986328125">
        <ele>1523</ele>
        <time>2020-08-10T07:03:32.000Z</time>
      </trkpt>
      <trkpt lat="42.32699557207524776458740234375" lon="2.00233533047139644622802734375">
        <ele>1523.5999755859375</ele>
        <time>2020-08-10T07:03:35.000Z</time>
      </trkpt>
      <trkpt lat="42.3270487971603870391845703125" lon="2.0022574625909328460693359375">
        <ele>1524.4000244140625</ele>
        <time>2020-08-10T07:03:40.000Z</time>
      </trkpt>
      <trkpt lat="42.32707033865153789520263671875" lon="2.00222410261631011962890625">
        <ele>1524.5999755859375</ele>
        <time>2020-08-10T07:03:42.000Z</time>
      </trkpt>
      <trkpt lat="42.327148206532001495361328125" lon="2.00210751034319400787353515625">
        <ele>1525.5999755859375</ele>
        <time>2020-08-10T07:03:49.000Z</time>
      </trkpt>
      <trkpt lat="42.32715968973934650421142578125" lon="2.00209275819361209869384765625">
        <ele>1525.800048828125</ele>
        <time>2020-08-10T07:03:50.000Z</time>
      </trkpt>
      <trkpt lat="42.327223978936672210693359375" lon="2.00200407765805721282958984375">
        <ele>1526.800048828125</ele>
        <time>2020-08-10T07:03:56.000Z</time>
      </trkpt>
      <trkpt lat="42.327243424952030181884765625" lon="2.0019728131592273712158203125">
        <ele>1527</ele>
        <time>2020-08-10T07:03:58.000Z</time>
      </trkpt>
      <trkpt lat="42.327319197356700897216796875" lon="2.0018658600747585296630859375">
        <ele>1527.800048828125</ele>
        <time>2020-08-10T07:04:05.000Z</time>
      </trkpt>
      <trkpt lat="42.32735146768391132354736328125" lon="2.00181514956057071685791015625">
        <ele>1528.4000244140625</ele>
        <time>2020-08-10T07:04:08.000Z</time>
      </trkpt>
      <trkpt lat="42.32739455066621303558349609375" lon="2.0017498545348644256591796875">
        <ele>1529</ele>
        <time>2020-08-10T07:04:12.000Z</time>
      </trkpt>
      <trkpt lat="42.32743151485919952392578125" lon="2.00170668773353099822998046875">
        <ele>1529.199951171875</ele>
        <time>2020-08-10T07:04:15.000Z</time>
      </trkpt>
      <trkpt lat="42.3274745978415012359619140625" lon="2.00163803994655609130859375">
        <ele>1530</ele>
        <time>2020-08-10T07:04:19.000Z</time>
      </trkpt>
      <trkpt lat="42.327517010271549224853515625" lon="2.00156788341701030731201171875">
        <ele>1530.5999755859375</ele>
        <time>2020-08-10T07:04:23.000Z</time>
      </trkpt>
      <trkpt lat="42.32754886150360107421875" lon="2.0015389658510684967041015625">
        <ele>1531.199951171875</ele>
        <time>2020-08-10T07:04:27.000Z</time>
      </trkpt>
      <trkpt lat="42.327547855675220489501953125" lon="2.00153821147978305816650390625">
        <ele>1531.4000244140625</ele>
        <time>2020-08-10T07:04:28.000Z</time>
      </trkpt>
      <trkpt lat="42.3275483585894107818603515625" lon="2.00154005549848079681396484375">
        <ele>1531.5999755859375</ele>
        <time>2020-08-10T07:04:37.000Z</time>
      </trkpt>
      <trkpt lat="42.32754827477037906646728515625" lon="2.00154156424105167388916015625">
        <ele>1531.4000244140625</ele>
        <time>2020-08-10T07:05:11.000Z</time>
      </trkpt>
      <trkpt lat="42.327548526227474212646484375" lon="2.001543156802654266357421875">
        <ele>1531.5999755859375</ele>
        <time>2020-08-10T07:05:41.000Z</time>
      </trkpt>
      <trkpt lat="42.32754793949425220489501953125" lon="2.00154407881200313568115234375">
        <ele>1531.5999755859375</ele>
        <time>2020-08-10T07:06:19.000Z</time>
      </trkpt>
      <trkpt lat="42.3275574110448360443115234375" lon="2.00151876546442508697509765625">
        <ele>1531.5999755859375</ele>
        <time>2020-08-10T07:06:25.000Z</time>
      </trkpt>
      <trkpt lat="42.32760963030159473419189453125" lon="2.00145171023905277252197265625">
        <ele>1531.800048828125</ele>
        <time>2020-08-10T07:06:30.000Z</time>
      </trkpt>
      <trkpt lat="42.32763762585818767547607421875" lon="2.0014229603111743927001953125">
        <ele>1532.199951171875</ele>
        <time>2020-08-10T07:06:32.000Z</time>
      </trkpt>
      <trkpt lat="42.32768959365785121917724609375" lon="2.0013642869889736175537109375">
        <ele>1533</ele>
        <time>2020-08-10T07:06:36.000Z</time>
      </trkpt>
      <trkpt lat="42.32773871161043643951416015625" lon="2.001301087439060211181640625">
        <ele>1533.5999755859375</ele>
        <time>2020-08-10T07:06:40.000Z</time>
      </trkpt>
      <trkpt lat="42.32776301912963390350341796875" lon="2.00127057731151580810546875">
        <ele>1534</ele>
        <time>2020-08-10T07:06:42.000Z</time>
      </trkpt>
      <trkpt lat="42.32783929444849491119384765625" lon="2.0011929608881473541259765625">
        <ele>1535.199951171875</ele>
        <time>2020-08-10T07:06:48.000Z</time>
      </trkpt>
      <trkpt lat="42.32785396277904510498046875" lon="2.001182734966278076171875">
        <ele>1535.4000244140625</ele>
        <time>2020-08-10T07:06:49.000Z</time>
      </trkpt>
      <trkpt lat="42.327952869236469268798828125" lon="2.001096904277801513671875">
        <ele>1536.199951171875</ele>
        <time>2020-08-10T07:06:56.000Z</time>
      </trkpt>
      <trkpt lat="42.32796586118638515472412109375" lon="2.0010823197662830352783203125">
        <ele>1536.4000244140625</ele>
        <time>2020-08-10T07:06:57.000Z</time>
      </trkpt>
      <trkpt lat="42.32803576625883579254150390625" lon="2.00102984905242919921875">
        <ele>1537.199951171875</ele>
        <time>2020-08-10T07:07:02.000Z</time>
      </trkpt>
      <trkpt lat="42.3280492611229419708251953125" lon="2.0010176114737987518310546875">
        <ele>1537.4000244140625</ele>
        <time>2020-08-10T07:07:03.000Z</time>
      </trkpt>
      <trkpt lat="42.32811790890991687774658203125" lon="2.00096891261637210845947265625">
        <ele>1538.4000244140625</ele>
        <time>2020-08-10T07:07:08.000Z</time>
      </trkpt>
      <trkpt lat="42.32814121060073375701904296875" lon="2.000950388610363006591796875">
        <ele>1538.5999755859375</ele>
        <time>2020-08-10T07:07:10.000Z</time>
      </trkpt>
      <trkpt lat="42.328154034912586212158203125" lon="2.000942341983318328857421875">
        <ele>1538.800048828125</ele>
        <time>2020-08-10T07:07:11.000Z</time>
      </trkpt>
      <trkpt lat="42.32821212150156497955322265625" lon="2.0009049586951732635498046875">
        <ele>1539</ele>
        <time>2020-08-10T07:07:16.000Z</time>
      </trkpt>
      <trkpt lat="42.32822276651859283447265625" lon="2.00089909136295318603515625">
        <ele>1539.199951171875</ele>
        <time>2020-08-10T07:07:17.000Z</time>
      </trkpt>
      <trkpt lat="42.328251935541629791259765625" lon="2.0008727721869945526123046875">
        <ele>1539.5999755859375</ele>
        <time>2020-08-10T07:07:20.000Z</time>
      </trkpt>
      <trkpt lat="42.32828755863010883331298828125" lon="2.0008533261716365814208984375">
        <ele>1539.800048828125</ele>
        <time>2020-08-10T07:07:23.000Z</time>
      </trkpt>
      <trkpt lat="42.3283335752785205841064453125" lon="2.00082801282405853271484375">
        <ele>1540.199951171875</ele>
        <time>2020-08-10T07:07:27.000Z</time>
      </trkpt>
      <trkpt lat="42.328354530036449432373046875" lon="2.0008032023906707763671875">
        <ele>1540.5999755859375</ele>
        <time>2020-08-10T07:07:29.000Z</time>
      </trkpt>
      <trkpt lat="42.32840473763644695281982421875" lon="2.0007812418043613433837890625">
        <ele>1541.199951171875</ele>
        <time>2020-08-10T07:07:33.000Z</time>
      </trkpt>
      <trkpt lat="42.3284291289746761322021484375" lon="2.0007624663412570953369140625">
        <ele>1541.4000244140625</ele>
        <time>2020-08-10T07:07:35.000Z</time>
      </trkpt>
      <trkpt lat="42.32846290804445743560791015625" lon="2.000732459127902984619140625">
        <ele>1541.800048828125</ele>
        <time>2020-08-10T07:07:38.000Z</time>
      </trkpt>
      <trkpt lat="42.32852174900472164154052734375" lon="2.0007146894931793212890625">
        <ele>1542.4000244140625</ele>
        <time>2020-08-10T07:07:43.000Z</time>
      </trkpt>
      <trkpt lat="42.3286155425012111663818359375" lon="2.000699937343597412109375">
        <ele>1543.5999755859375</ele>
        <time>2020-08-10T07:07:51.000Z</time>
      </trkpt>
      <trkpt lat="42.3287188075482845306396484375" lon="2.00068510137498378753662109375">
        <ele>1544.5999755859375</ele>
        <time>2020-08-10T07:07:59.000Z</time>
      </trkpt>
      <trkpt lat="42.32884361408650875091552734375" lon="2.00065710581839084625244140625">
        <ele>1545.800048828125</ele>
        <time>2020-08-10T07:08:08.000Z</time>
      </trkpt>
      <trkpt lat="42.3289233259856700897216796875" lon="2.0006585307419300079345703125">
        <ele>1546.5999755859375</ele>
        <time>2020-08-10T07:08:14.000Z</time>
      </trkpt>
      <trkpt lat="42.3289511539041996002197265625" lon="2.0006471313536167144775390625">
        <ele>1547</ele>
        <time>2020-08-10T07:08:16.000Z</time>
      </trkpt>
      <trkpt lat="42.32899348251521587371826171875" lon="2.00065056793391704559326171875">
        <ele>1547.4000244140625</ele>
        <time>2020-08-10T07:08:19.000Z</time>
      </trkpt>
      <trkpt lat="42.32905148528516292572021484375" lon="2.000660710036754608154296875">
        <ele>1548</ele>
        <time>2020-08-10T07:08:23.000Z</time>
      </trkpt>
      <trkpt lat="42.3290664888918399810791015625" lon="2.00065593235194683074951171875">
        <ele>1548.199951171875</ele>
        <time>2020-08-10T07:08:24.000Z</time>
      </trkpt>
      <trkpt lat="42.3290809057652950286865234375" lon="2.00064788572490215301513671875">
        <ele>1548.199951171875</ele>
        <time>2020-08-10T07:08:25.000Z</time>
      </trkpt>
      <trkpt lat="42.329169251024723052978515625" lon="2.00063430704176425933837890625">
        <ele>1549</ele>
        <time>2020-08-10T07:08:31.000Z</time>
      </trkpt>
      <trkpt lat="42.3291835002601146697998046875" lon="2.00063128955662250518798828125">
        <ele>1549.199951171875</ele>
        <time>2020-08-10T07:08:32.000Z</time>
      </trkpt>
      <trkpt lat="42.32926757074892520904541015625" lon="2.000615112483501434326171875">
        <ele>1550</ele>
        <time>2020-08-10T07:08:38.000Z</time>
      </trkpt>
      <trkpt lat="42.3293229751288890838623046875" lon="2.00060295872390270233154296875">
        <ele>1550.5999755859375</ele>
        <time>2020-08-10T07:08:42.000Z</time>
      </trkpt>
      <trkpt lat="42.3293781280517578125" lon="2.0005894638597965240478515625">
        <ele>1551.199951171875</ele>
        <time>2020-08-10T07:08:46.000Z</time>
      </trkpt>
      <trkpt lat="42.32940637506544589996337890625" lon="2.000581584870815277099609375">
        <ele>1551.4000244140625</ele>
        <time>2020-08-10T07:08:48.000Z</time>
      </trkpt>
      <trkpt lat="42.32945859432220458984375" lon="2.00057881884276866912841796875">
        <ele>1552.199951171875</ele>
        <time>2020-08-10T07:08:52.000Z</time>
      </trkpt>
      <trkpt lat="42.32950310222804546356201171875" lon="2.00057932175695896148681640625">
        <ele>1552.5999755859375</ele>
        <time>2020-08-10T07:08:55.000Z</time>
      </trkpt>
      <trkpt lat="42.3295779526233673095703125" lon="2.0005787350237369537353515625">
        <ele>1553.4000244140625</ele>
        <time>2020-08-10T07:09:00.000Z</time>
      </trkpt>
      <trkpt lat="42.32963553629815578460693359375" lon="2.00057177804410457611083984375">
        <ele>1553.800048828125</ele>
        <time>2020-08-10T07:09:04.000Z</time>
      </trkpt>
      <trkpt lat="42.32967652380466461181640625" lon="2.00056775473058223724365234375">
        <ele>1554.4000244140625</ele>
        <time>2020-08-10T07:09:07.000Z</time>
      </trkpt>
      <trkpt lat="42.329761348664760589599609375" lon="2.00055467896163463592529296875">
        <ele>1555.199951171875</ele>
        <time>2020-08-10T07:09:13.000Z</time>
      </trkpt>
      <trkpt lat="42.3297893442213535308837890625" lon="2.00054679997265338897705078125">
        <ele>1555.5999755859375</ele>
        <time>2020-08-10T07:09:15.000Z</time>
      </trkpt>
      <trkpt lat="42.3298775218427181243896484375" lon="2.0005458779633045196533203125">
        <ele>1556.4000244140625</ele>
        <time>2020-08-10T07:09:21.000Z</time>
      </trkpt>
      <trkpt lat="42.32990392483770847320556640625" lon="2.00053892098367214202880859375">
        <ele>1556.5999755859375</ele>
        <time>2020-08-10T07:09:23.000Z</time>
      </trkpt>
      <trkpt lat="42.32998640276491641998291015625" lon="2.000531293451786041259765625">
        <ele>1557.4000244140625</ele>
        <time>2020-08-10T07:09:29.000Z</time>
      </trkpt>
      <trkpt lat="42.3300136439502239227294921875" lon="2.0005230791866779327392578125">
        <ele>1557.800048828125</ele>
        <time>2020-08-10T07:09:31.000Z</time>
      </trkpt>
      <trkpt lat="42.33008530922234058380126953125" lon="2.00052819214761257171630859375">
        <ele>1558.4000244140625</ele>
        <time>2020-08-10T07:09:36.000Z</time>
      </trkpt>
      <trkpt lat="42.3301256261765956878662109375" lon="2.00051059015095233917236328125">
        <ele>1558.800048828125</ele>
        <time>2020-08-10T07:09:39.000Z</time>
      </trkpt>
      <trkpt lat="42.3301973752677440643310546875" lon="2.000497765839099884033203125">
        <ele>1559.5999755859375</ele>
        <time>2020-08-10T07:09:44.000Z</time>
      </trkpt>
      <trkpt lat="42.33023501001298427581787109375" lon="2.00048393569886684417724609375">
        <ele>1560</ele>
        <time>2020-08-10T07:09:47.000Z</time>
      </trkpt>
      <trkpt lat="42.3303021490573883056640625" lon="2.000464908778667449951171875">
        <ele>1561</ele>
        <time>2020-08-10T07:09:52.000Z</time>
      </trkpt>
      <trkpt lat="42.3303147219121456146240234375" lon="2.00046055018901824951171875">
        <ele>1561.199951171875</ele>
        <time>2020-08-10T07:09:53.000Z</time>
      </trkpt>
      <trkpt lat="42.330328635871410369873046875" lon="2.00045979581773281097412109375">
        <ele>1561.199951171875</ele>
        <time>2020-08-10T07:09:54.000Z</time>
      </trkpt>
      <trkpt lat="42.33039812184870243072509765625" lon="2.00044848024845123291015625">
        <ele>1561.5999755859375</ele>
        <time>2020-08-10T07:09:59.000Z</time>
      </trkpt>
      <trkpt lat="42.33041052706539630889892578125" lon="2.000440098345279693603515625">
        <ele>1562.199951171875</ele>
        <time>2020-08-10T07:10:00.000Z</time>
      </trkpt>
      <trkpt lat="42.330519072711467742919921875" lon="2.00039324350655078887939453125">
        <ele>1563.199951171875</ele>
        <time>2020-08-10T07:10:08.000Z</time>
      </trkpt>
      <trkpt lat="42.33060456812381744384765625" lon="2.000359632074832916259765625">
        <ele>1564.4000244140625</ele>
        <time>2020-08-10T07:10:14.000Z</time>
      </trkpt>
      <trkpt lat="42.33064605854451656341552734375" lon="2.00034311972558498382568359375">
        <ele>1564.5999755859375</ele>
        <time>2020-08-10T07:10:17.000Z</time>
      </trkpt>
      <trkpt lat="42.33073306269943714141845703125" lon="2.000314034521579742431640625">
        <ele>1565.4000244140625</ele>
        <time>2020-08-10T07:10:23.000Z</time>
      </trkpt>
      <trkpt lat="42.330836914479732513427734375" lon="2.00027857907116413116455078125">
        <ele>1566.4000244140625</ele>
        <time>2020-08-10T07:10:30.000Z</time>
      </trkpt>
      <trkpt lat="42.330881170928478240966796875" lon="2.00026835314929485321044921875">
        <ele>1566.800048828125</ele>
        <time>2020-08-10T07:10:33.000Z</time>
      </trkpt>
      <trkpt lat="42.330942861735820770263671875" lon="2.00024371035397052764892578125">
        <ele>1567.5999755859375</ele>
        <time>2020-08-10T07:10:37.000Z</time>
      </trkpt>
      <trkpt lat="42.331066243350505828857421875" lon="2.000193335115909576416015625">
        <ele>1568.5999755859375</ele>
        <time>2020-08-10T07:10:45.000Z</time>
      </trkpt>
      <trkpt lat="42.33108275569975376129150390625" lon="2.00018805451691150665283203125">
        <ele>1568.5999755859375</ele>
        <time>2020-08-10T07:10:46.000Z</time>
      </trkpt>
      <trkpt lat="42.3311807401478290557861328125" lon="2.0001487433910369873046875">
        <ele>1569.800048828125</ele>
        <time>2020-08-10T07:10:53.000Z</time>
      </trkpt>
      <trkpt lat="42.33120806515216827392578125" lon="2.00014044530689716339111328125">
        <ele>1570</ele>
        <time>2020-08-10T07:10:55.000Z</time>
      </trkpt>
      <trkpt lat="42.33131133019924163818359375" lon="2.00008093379437923431396484375">
        <ele>1570.800048828125</ele>
        <time>2020-08-10T07:11:03.000Z</time>
      </trkpt>
      <trkpt lat="42.33132499270141124725341796875" lon="2.0000701211392879486083984375">
        <ele>1571</ele>
        <time>2020-08-10T07:11:04.000Z</time>
      </trkpt>
      <trkpt lat="42.3313959874212741851806640625" lon="1.9999876432120800018310546875">
        <ele>1572</ele>
        <time>2020-08-10T07:11:10.000Z</time>
      </trkpt>
      <trkpt lat="42.3314241506159305572509765625" lon="1.9999301433563232421875">
        <ele>1572.5999755859375</ele>
        <time>2020-08-10T07:11:13.000Z</time>
      </trkpt>
      <trkpt lat="42.331456504762172698974609375" lon="1.99985168874263763427734375">
        <ele>1573</ele>
        <time>2020-08-10T07:11:17.000Z</time>
      </trkpt>
      <trkpt lat="42.3315005935728549957275390625" lon="1.99969871900975704193115234375">
        <ele>1574</ele>
        <time>2020-08-10T07:11:23.000Z</time>
      </trkpt>
      <trkpt lat="42.3315046168863773345947265625" lon="1.9996728189289569854736328125">
        <ele>1574.199951171875</ele>
        <time>2020-08-10T07:11:24.000Z</time>
      </trkpt>
      <trkpt lat="42.3315243981778621673583984375" lon="1.999571733176708221435546875">
        <ele>1575.199951171875</ele>
        <time>2020-08-10T07:11:28.000Z</time>
      </trkpt>
      <trkpt lat="42.33153437264263629913330078125" lon="1.99950627051293849945068359375">
        <ele>1576</ele>
        <time>2020-08-10T07:11:31.000Z</time>
      </trkpt>
      <trkpt lat="42.331550382077693939208984375" lon="1.9994387961924076080322265625">
        <ele>1576.4000244140625</ele>
        <time>2020-08-10T07:11:34.000Z</time>
      </trkpt>
      <trkpt lat="42.33158759772777557373046875" lon="1.9993486069142818450927734375">
        <ele>1577.4000244140625</ele>
        <time>2020-08-10T07:11:39.000Z</time>
      </trkpt>
      <trkpt lat="42.33164350502192974090576171875" lon="1.99925380758941173553466796875">
        <ele>1578.5999755859375</ele>
        <time>2020-08-10T07:11:45.000Z</time>
      </trkpt>
      <trkpt lat="42.3316766135394573211669921875" lon="1.9992141611874103546142578125">
        <ele>1579.199951171875</ele>
        <time>2020-08-10T07:11:48.000Z</time>
      </trkpt>
      <trkpt lat="42.331707961857318878173828125" lon="1.99917250312864780426025390625">
        <ele>1579.800048828125</ele>
        <time>2020-08-10T07:11:51.000Z</time>
      </trkpt>
      <trkpt lat="42.331762611865997314453125" lon="1.99910963885486125946044921875">
        <ele>1580.4000244140625</ele>
        <time>2020-08-10T07:11:56.000Z</time>
      </trkpt>
      <trkpt lat="42.331799156963825225830078125" lon="1.9990753568708896636962890625">
        <ele>1580.800048828125</ele>
        <time>2020-08-10T07:11:59.000Z</time>
      </trkpt>
      <trkpt lat="42.33185573481023311614990234375" lon="1.99900922365486621856689453125">
        <ele>1581.5999755859375</ele>
        <time>2020-08-10T07:12:04.000Z</time>
      </trkpt>
      <trkpt lat="42.33188088051974773406982421875" lon="1.99898424558341503143310546875">
        <ele>1581.800048828125</ele>
        <time>2020-08-10T07:12:06.000Z</time>
      </trkpt>
      <trkpt lat="42.33195816166698932647705078125" lon="1.9989174418151378631591796875">
        <ele>1582.800048828125</ele>
        <time>2020-08-10T07:12:12.000Z</time>
      </trkpt>
      <trkpt lat="42.3319723270833492279052734375" lon="1.9989090599119663238525390625">
        <ele>1583</ele>
        <time>2020-08-10T07:12:13.000Z</time>
      </trkpt>
      <trkpt lat="42.332066707313060760498046875" lon="1.99884560890495777130126953125">
        <ele>1583.800048828125</ele>
        <time>2020-08-10T07:12:20.000Z</time>
      </trkpt>
      <trkpt lat="42.33209143392741680145263671875" lon="1.99882306158542633056640625">
        <ele>1584</ele>
        <time>2020-08-10T07:12:22.000Z</time>
      </trkpt>
      <trkpt lat="42.33217022381722927093505859375" lon="1.9987729378044605255126953125">
        <ele>1585</ele>
        <time>2020-08-10T07:12:28.000Z</time>
      </trkpt>
      <trkpt lat="42.33227147720754146575927734375" lon="1.9986971653997898101806640625">
        <ele>1586</ele>
        <time>2020-08-10T07:12:36.000Z</time>
      </trkpt>
      <trkpt lat="42.332297377288341522216796875" lon="1.99867763556540012359619140625">
        <ele>1586</ele>
        <time>2020-08-10T07:12:38.000Z</time>
      </trkpt>
      <trkpt lat="42.33237893320620059967041015625" lon="1.9985757954418659210205078125">
        <ele>1586.5999755859375</ele>
        <time>2020-08-10T07:12:45.000Z</time>
      </trkpt>
      <trkpt lat="42.33239972032606601715087890625" lon="1.9985348917543888092041015625">
        <ele>1587</ele>
        <time>2020-08-10T07:12:47.000Z</time>
      </trkpt>
      <trkpt lat="42.33243559487164020538330078125" lon="1.99845685623586177825927734375">
        <ele>1587.5999755859375</ele>
        <time>2020-08-10T07:12:51.000Z</time>
      </trkpt>
      <trkpt lat="42.3324537836015224456787109375" lon="1.99837253428995609283447265625">
        <ele>1588</ele>
        <time>2020-08-10T07:12:55.000Z</time>
      </trkpt>
      <trkpt lat="42.33246124349534511566162109375" lon="1.998307406902313232421875">
        <ele>1588.4000244140625</ele>
        <time>2020-08-10T07:12:58.000Z</time>
      </trkpt>
      <trkpt lat="42.3324715532362461090087890625" lon="1.9982177205383777618408203125">
        <ele>1589.199951171875</ele>
        <time>2020-08-10T07:13:02.000Z</time>
      </trkpt>
      <trkpt lat="42.33247272670269012451171875" lon="1.99810557067394256591796875">
        <ele>1590</ele>
        <time>2020-08-10T07:13:07.000Z</time>
      </trkpt>
      <trkpt lat="42.33247532509267330169677734375" lon="1.9980846159160137176513671875">
        <ele>1590.199951171875</ele>
        <time>2020-08-10T07:13:08.000Z</time>
      </trkpt>
      <trkpt lat="42.3324747383594512939453125" lon="1.99793198145925998687744140625">
        <ele>1591.4000244140625</ele>
        <time>2020-08-10T07:13:15.000Z</time>
      </trkpt>
      <trkpt lat="42.3324708826839923858642578125" lon="1.99780105613172054290771484375">
        <ele>1592.5999755859375</ele>
        <time>2020-08-10T07:13:21.000Z</time>
      </trkpt>
      <trkpt lat="42.33247851021587848663330078125" lon="1.99771874584257602691650390625">
        <ele>1593</ele>
        <time>2020-08-10T07:13:25.000Z</time>
      </trkpt>
      <trkpt lat="42.33247599564492702484130859375" lon="1.9976556301116943359375">
        <ele>1593.5999755859375</ele>
        <time>2020-08-10T07:13:28.000Z</time>
      </trkpt>
      <trkpt lat="42.33248387463390827178955078125" lon="1.9975578971207141876220703125">
        <ele>1594.5999755859375</ele>
        <time>2020-08-10T07:13:33.000Z</time>
      </trkpt>
      <trkpt lat="42.33248454518616199493408203125" lon="1.99753803201019763946533203125">
        <ele>1594.5999755859375</ele>
        <time>2020-08-10T07:13:34.000Z</time>
      </trkpt>
      <trkpt lat="42.33248957432806491851806640625" lon="1.99741934426128864288330078125">
        <ele>1595.5999755859375</ele>
        <time>2020-08-10T07:13:40.000Z</time>
      </trkpt>
      <trkpt lat="42.3324866406619548797607421875" lon="1.997301913797855377197265625">
        <ele>1596.800048828125</ele>
        <time>2020-08-10T07:13:46.000Z</time>
      </trkpt>
      <trkpt lat="42.3324906639754772186279296875" lon="1.9972236268222332000732421875">
        <ele>1597.5999755859375</ele>
        <time>2020-08-10T07:13:50.000Z</time>
      </trkpt>
      <trkpt lat="42.332489825785160064697265625" lon="1.99718582443892955780029296875">
        <ele>1597.800048828125</ele>
        <time>2020-08-10T07:13:52.000Z</time>
      </trkpt>
      <trkpt lat="42.3324893228709697723388671875" lon="1.997041739523410797119140625">
        <ele>1599</ele>
        <time>2020-08-10T07:13:59.000Z</time>
      </trkpt>
      <trkpt lat="42.33248873613774776458740234375" lon="1.99701986275613307952880859375">
        <ele>1599.199951171875</ele>
        <time>2020-08-10T07:14:00.000Z</time>
      </trkpt>
      <trkpt lat="42.33247247524559497833251953125" lon="1.99693612754344940185546875">
        <ele>1599.800048828125</ele>
        <time>2020-08-10T07:14:04.000Z</time>
      </trkpt>
      <trkpt lat="42.33244313858449459075927734375" lon="1.9968616962432861328125">
        <ele>1600.5999755859375</ele>
        <time>2020-08-10T07:14:08.000Z</time>
      </trkpt>
      <trkpt lat="42.33244095928966999053955078125" lon="1.99685272760689258575439453125">
        <ele>1600.800048828125</ele>
        <time>2020-08-10T07:14:09.000Z</time>
      </trkpt>
      <trkpt lat="42.33243978582322597503662109375" lon="1.99684903956949710845947265625">
        <ele>1601.5999755859375</ele>
        <time>2020-08-10T07:17:01.000Z</time>
      </trkpt>
      <trkpt lat="42.332440204918384552001953125" lon="1.9968487881124019622802734375">
        <ele>1601.5999755859375</ele>
        <time>2020-08-10T07:17:03.000Z</time>
      </trkpt>
      <trkpt lat="42.332437522709369659423828125" lon="1.99684686027467250823974609375">
        <ele>1601.4000244140625</ele>
        <time>2020-08-10T07:17:05.000Z</time>
      </trkpt>
      <trkpt lat="42.3323991335928440093994140625" lon="1.9968072138726711273193359375">
        <ele>1601.5999755859375</ele>
        <time>2020-08-10T07:17:09.000Z</time>
      </trkpt>
      <trkpt lat="42.33232763595879077911376953125" lon="1.9967200420796871185302734375">
        <ele>1602.4000244140625</ele>
        <time>2020-08-10T07:17:15.000Z</time>
      </trkpt>
      <trkpt lat="42.33228824101388454437255859375" lon="1.9966868497431278228759765625">
        <ele>1603</ele>
        <time>2020-08-10T07:17:18.000Z</time>
      </trkpt>
      <trkpt lat="42.3322360217571258544921875" lon="1.9966781325638294219970703125">
        <ele>1603.5999755859375</ele>
        <time>2020-08-10T07:17:21.000Z</time>
      </trkpt>
      <trkpt lat="42.33217231929302215576171875" lon="1.996699757874011993408203125">
        <ele>1604.199951171875</ele>
        <time>2020-08-10T07:17:25.000Z</time>
      </trkpt>
      <trkpt lat="42.332142479717731475830078125" lon="1.99672062881290912628173828125">
        <ele>1604.5999755859375</ele>
        <time>2020-08-10T07:17:27.000Z</time>
      </trkpt>
      <trkpt lat="42.3320715688169002532958984375" lon="1.99678458273410797119140625">
        <ele>1605.5999755859375</ele>
        <time>2020-08-10T07:17:32.000Z</time>
      </trkpt>
      <trkpt lat="42.33197517693042755126953125" lon="1.99687737040221691131591796875">
        <ele>1607</ele>
        <time>2020-08-10T07:17:39.000Z</time>
      </trkpt>
      <trkpt lat="42.3319615982472896575927734375" lon="1.9968896917998790740966796875">
        <ele>1607</ele>
        <time>2020-08-10T07:17:40.000Z</time>
      </trkpt>
      <trkpt lat="42.33191004954278469085693359375" lon="1.996937803924083709716796875">
        <ele>1608</ele>
        <time>2020-08-10T07:17:44.000Z</time>
      </trkpt>
      <trkpt lat="42.33184735290706157684326171875" lon="1.99699773453176021575927734375">
        <ele>1608.5999755859375</ele>
        <time>2020-08-10T07:17:49.000Z</time>
      </trkpt>
      <trkpt lat="42.33181893825531005859375" lon="1.997020952403545379638671875">
        <ele>1609</ele>
        <time>2020-08-10T07:17:51.000Z</time>
      </trkpt>
      <trkpt lat="42.33176638372242450714111328125" lon="1.99706344865262508392333984375">
        <ele>1609.800048828125</ele>
        <time>2020-08-10T07:17:55.000Z</time>
      </trkpt>
      <trkpt lat="42.33175280503928661346435546875" lon="1.9970717467367649078369140625">
        <ele>1610</ele>
        <time>2020-08-10T07:17:56.000Z</time>
      </trkpt>
      <trkpt lat="42.33164819888770580291748046875" lon="1.99711457826197147369384765625">
        <ele>1611.4000244140625</ele>
        <time>2020-08-10T07:18:03.000Z</time>
      </trkpt>
      <trkpt lat="42.33157418668270111083984375" lon="1.99711994268000125885009765625">
        <ele>1612.4000244140625</ele>
        <time>2020-08-10T07:18:08.000Z</time>
      </trkpt>
      <trkpt lat="42.33151157386600971221923828125" lon="1.99712798930704593658447265625">
        <ele>1613.199951171875</ele>
        <time>2020-08-10T07:18:12.000Z</time>
      </trkpt>
      <trkpt lat="42.331481315195560455322265625" lon="1.9971247203648090362548828125">
        <ele>1613.4000244140625</ele>
        <time>2020-08-10T07:18:14.000Z</time>
      </trkpt>
      <trkpt lat="42.33140411786735057830810546875" lon="1.99712212197482585906982421875">
        <ele>1614.4000244140625</ele>
        <time>2020-08-10T07:18:19.000Z</time>
      </trkpt>
      <trkpt lat="42.33137377537786960601806640625" lon="1.997128240764141082763671875">
        <ele>1615</ele>
        <time>2020-08-10T07:18:21.000Z</time>
      </trkpt>
      <trkpt lat="42.33127872459590435028076171875" lon="1.99712413363158702850341796875">
        <ele>1615.5999755859375</ele>
        <time>2020-08-10T07:18:27.000Z</time>
      </trkpt>
      <trkpt lat="42.33126464299857616424560546875" lon="1.9971227087080478668212890625">
        <ele>1615.800048828125</ele>
        <time>2020-08-10T07:18:28.000Z</time>
      </trkpt>
      <trkpt lat="42.33119205571711063385009765625" lon="1.997121535241603851318359375">
        <ele>1616.5999755859375</ele>
        <time>2020-08-10T07:18:33.000Z</time>
      </trkpt>
      <trkpt lat="42.33116112649440765380859375" lon="1.99712195433676242828369140625">
        <ele>1617</ele>
        <time>2020-08-10T07:18:35.000Z</time>
      </trkpt>
      <trkpt lat="42.33111443929374217987060546875" lon="1.997132264077663421630859375">
        <ele>1617.5999755859375</ele>
        <time>2020-08-10T07:18:38.000Z</time>
      </trkpt>
      <trkpt lat="42.33109884895384311676025390625" lon="1.99713670648634433746337890625">
        <ele>1617.800048828125</ele>
        <time>2020-08-10T07:18:39.000Z</time>
      </trkpt>
      <trkpt lat="42.3310821689665317535400390625" lon="1.99713871814310550689697265625">
        <ele>1618</ele>
        <time>2020-08-10T07:18:40.000Z</time>
      </trkpt>
      <trkpt lat="42.33106481842696666717529296875" lon="1.997138969600200653076171875">
        <ele>1618.199951171875</ele>
        <time>2020-08-10T07:18:41.000Z</time>
      </trkpt>
      <trkpt lat="42.33101687394082546234130859375" lon="1.99714173562824726104736328125">
        <ele>1618.800048828125</ele>
        <time>2020-08-10T07:18:44.000Z</time>
      </trkpt>
      <trkpt lat="42.33094931580126285552978515625" lon="1.99714844115078449249267578125">
        <ele>1619.5999755859375</ele>
        <time>2020-08-10T07:18:48.000Z</time>
      </trkpt>
      <trkpt lat="42.33090237714350223541259765625" lon="1.99715472757816314697265625">
        <ele>1619.800048828125</ele>
        <time>2020-08-10T07:18:51.000Z</time>
      </trkpt>
      <trkpt lat="42.33082543127238750457763671875" lon="1.99717861600220203399658203125">
        <ele>1620.5999755859375</ele>
        <time>2020-08-10T07:18:56.000Z</time>
      </trkpt>
      <trkpt lat="42.330810092389583587646484375" lon="1.9971820525825023651123046875">
        <ele>1620.800048828125</ele>
        <time>2020-08-10T07:18:57.000Z</time>
      </trkpt>
      <trkpt lat="42.33072459697723388671875" lon="1.99720191769301891326904296875">
        <ele>1621.4000244140625</ele>
        <time>2020-08-10T07:19:03.000Z</time>
      </trkpt>
      <trkpt lat="42.33069752342998981475830078125" lon="1.997206024825572967529296875">
        <ele>1621.800048828125</ele>
        <time>2020-08-10T07:19:05.000Z</time>
      </trkpt>
      <trkpt lat="42.33062736690044403076171875" lon="1.9972108863294124603271484375">
        <ele>1623</ele>
        <time>2020-08-10T07:19:10.000Z</time>
      </trkpt>
      <trkpt lat="42.3306147940456867218017578125" lon="1.99721046723425388336181640625">
        <ele>1623.199951171875</ele>
        <time>2020-08-10T07:19:11.000Z</time>
      </trkpt>
      <trkpt lat="42.3305574618279933929443359375" lon="1.997215412557125091552734375">
        <ele>1624</ele>
        <time>2020-08-10T07:19:16.000Z</time>
      </trkpt>
      <trkpt lat="42.330528460443019866943359375" lon="1.997224129736423492431640625">
        <ele>1624.4000244140625</ele>
        <time>2020-08-10T07:19:18.000Z</time>
      </trkpt>
      <trkpt lat="42.330470122396945953369140625" lon="1.99722656048834323883056640625">
        <ele>1625.199951171875</ele>
        <time>2020-08-10T07:19:22.000Z</time>
      </trkpt>
      <trkpt lat="42.33042108826339244842529296875" lon="1.99722538702189922332763671875">
        <ele>1625.800048828125</ele>
        <time>2020-08-10T07:19:25.000Z</time>
      </trkpt>
      <trkpt lat="42.3303556255996227264404296875" lon="1.9972179271280765533447265625">
        <ele>1626.4000244140625</ele>
        <time>2020-08-10T07:19:29.000Z</time>
      </trkpt>
      <trkpt lat="42.3303083516657352447509765625" lon="1.99720644392073154449462890625">
        <ele>1626.800048828125</ele>
        <time>2020-08-10T07:19:32.000Z</time>
      </trkpt>
      <trkpt lat="42.33026384375989437103271484375" lon="1.99719361960887908935546875">
        <ele>1627.4000244140625</ele>
        <time>2020-08-10T07:19:35.000Z</time>
      </trkpt>
      <trkpt lat="42.33018572442233562469482421875" lon="1.99717023409903049468994140625">
        <ele>1628</ele>
        <time>2020-08-10T07:19:40.000Z</time>
      </trkpt>
      <trkpt lat="42.3301358520984649658203125" lon="1.99716185219585895538330078125">
        <ele>1628.199951171875</ele>
        <time>2020-08-10T07:19:43.000Z</time>
      </trkpt>
      <trkpt lat="42.3300716467201709747314453125" lon="1.997142322361469268798828125">
        <ele>1628.800048828125</ele>
        <time>2020-08-10T07:19:47.000Z</time>
      </trkpt>
      <trkpt lat="42.33002395369112491607666015625" lon="1.997124217450618743896484375">
        <ele>1629.4000244140625</ele>
        <time>2020-08-10T07:19:50.000Z</time>
      </trkpt>
      <trkpt lat="42.329960502684116363525390625" lon="1.9970990717411041259765625">
        <ele>1630.199951171875</ele>
        <time>2020-08-10T07:19:54.000Z</time>
      </trkpt>
      <trkpt lat="42.32992856763303279876708984375" lon="1.9970898516476154327392578125">
        <ele>1630.4000244140625</ele>
        <time>2020-08-10T07:19:56.000Z</time>
      </trkpt>
      <trkpt lat="42.32986629009246826171875" lon="1.9970695674419403076171875">
        <ele>1631.199951171875</ele>
        <time>2020-08-10T07:20:00.000Z</time>
      </trkpt>
      <trkpt lat="42.32981876470148563385009765625" lon="1.99705255217850208282470703125">
        <ele>1631.5999755859375</ele>
        <time>2020-08-10T07:20:03.000Z</time>
      </trkpt>
      <trkpt lat="42.32977115549147129058837890625" lon="1.99703696183860301971435546875">
        <ele>1631.800048828125</ele>
        <time>2020-08-10T07:20:06.000Z</time>
      </trkpt>
      <trkpt lat="42.32973955571651458740234375" lon="1.9970278255641460418701171875">
        <ele>1632.199951171875</ele>
        <time>2020-08-10T07:20:08.000Z</time>
      </trkpt>
      <trkpt lat="42.3297253064811229705810546875" lon="1.997020281851291656494140625">
        <ele>1632.4000244140625</ele>
        <time>2020-08-10T07:20:09.000Z</time>
      </trkpt>
      <trkpt lat="42.32962463982403278350830078125" lon="1.9969694875180721282958984375">
        <ele>1633.4000244140625</ele>
        <time>2020-08-10T07:20:16.000Z</time>
      </trkpt>
      <trkpt lat="42.3295965604484081268310546875" lon="1.9969537295401096343994140625">
        <ele>1633.800048828125</ele>
        <time>2020-08-10T07:20:18.000Z</time>
      </trkpt>
      <trkpt lat="42.32954283244907855987548828125" lon="1.9969145022332668304443359375">
        <ele>1634.5999755859375</ele>
        <time>2020-08-10T07:20:22.000Z</time>
      </trkpt>
      <trkpt lat="42.32944895513355731964111328125" lon="1.9968444295227527618408203125">
        <ele>1635.5999755859375</ele>
        <time>2020-08-10T07:20:29.000Z</time>
      </trkpt>
      <trkpt lat="42.32943587936460971832275390625" lon="1.99683512561023235321044921875">
        <ele>1635.800048828125</ele>
        <time>2020-08-10T07:20:30.000Z</time>
      </trkpt>
      <trkpt lat="42.32934535481035709381103515625" lon="1.99677762575447559356689453125">
        <ele>1636.800048828125</ele>
        <time>2020-08-10T07:20:37.000Z</time>
      </trkpt>
      <trkpt lat="42.32927612029016017913818359375" lon="1.99671610258519649505615234375">
        <ele>1638</ele>
        <time>2020-08-10T07:20:43.000Z</time>
      </trkpt>
      <trkpt lat="42.32926488853991031646728515625" lon="1.9967059604823589324951171875">
        <ele>1638.199951171875</ele>
        <time>2020-08-10T07:20:44.000Z</time>
      </trkpt>
      <trkpt lat="42.32919774949550628662109375" lon="1.99664318002760410308837890625">
        <ele>1639</ele>
        <time>2020-08-10T07:20:50.000Z</time>
      </trkpt>
      <trkpt lat="42.3291861824691295623779296875" lon="1.99663144536316394805908203125">
        <ele>1639.199951171875</ele>
        <time>2020-08-10T07:20:51.000Z</time>
      </trkpt>
      <trkpt lat="42.3291006870567798614501953125" lon="1.99656439013779163360595703125">
        <ele>1640</ele>
        <time>2020-08-10T07:20:58.000Z</time>
      </trkpt>
      <trkpt lat="42.3289954103529453277587890625" lon="1.9964930601418018341064453125">
        <ele>1641</ele>
        <time>2020-08-10T07:21:06.000Z</time>
      </trkpt>
      <trkpt lat="42.3289830051362514495849609375" lon="1.9964816607534885406494140625">
        <ele>1641.199951171875</ele>
        <time>2020-08-10T07:21:07.000Z</time>
      </trkpt>
      <trkpt lat="42.32890069484710693359375" lon="1.9964353926479816436767578125">
        <ele>1642.199951171875</ele>
        <time>2020-08-10T07:21:13.000Z</time>
      </trkpt>
      <trkpt lat="42.32888636179268360137939453125" lon="1.9964273460209369659423828125">
        <ele>1642.4000244140625</ele>
        <time>2020-08-10T07:21:14.000Z</time>
      </trkpt>
      <trkpt lat="42.328818552196025848388671875" lon="1.99639163911342620849609375">
        <ele>1643.199951171875</ele>
        <time>2020-08-10T07:21:19.000Z</time>
      </trkpt>
      <trkpt lat="42.328805141150951385498046875" lon="1.996384598314762115478515625">
        <ele>1643.4000244140625</ele>
        <time>2020-08-10T07:21:20.000Z</time>
      </trkpt>
      <trkpt lat="42.32879080809652805328369140625" lon="1.99637864716351032257080078125">
        <ele>1643.5999755859375</ele>
        <time>2020-08-10T07:21:21.000Z</time>
      </trkpt>
      <trkpt lat="42.32874336652457714080810546875" lon="1.99633338488638401031494140625">
        <ele>1644.4000244140625</ele>
        <time>2020-08-10T07:21:25.000Z</time>
      </trkpt>
      <trkpt lat="42.328721322119235992431640625" lon="1.9963051378726959228515625">
        <ele>1644.5999755859375</ele>
        <time>2020-08-10T07:21:27.000Z</time>
      </trkpt>
      <trkpt lat="42.3286748863756656646728515625" lon="1.9962327182292938232421875">
        <ele>1645.4000244140625</ele>
        <time>2020-08-10T07:21:32.000Z</time>
      </trkpt>
      <trkpt lat="42.32865015976130962371826171875" lon="1.99618913233280181884765625">
        <ele>1646</ele>
        <time>2020-08-10T07:21:35.000Z</time>
      </trkpt>
      <trkpt lat="42.32863607816398143768310546875" lon="1.9961366616189479827880859375">
        <ele>1646.5999755859375</ele>
        <time>2020-08-10T07:21:38.000Z</time>
      </trkpt>
      <trkpt lat="42.3286359943449497222900390625" lon="1.9960610568523406982421875">
        <ele>1647</ele>
        <time>2020-08-10T07:21:42.000Z</time>
      </trkpt>
      <trkpt lat="42.3286380060017108917236328125" lon="1.9959991984069347381591796875">
        <ele>1647.5999755859375</ele>
        <time>2020-08-10T07:21:45.000Z</time>
      </trkpt>
      <trkpt lat="42.32865736819803714752197265625" lon="1.995902471244335174560546875">
        <ele>1648.5999755859375</ele>
        <time>2020-08-10T07:21:50.000Z</time>
      </trkpt>
      <trkpt lat="42.32866222970187664031982421875" lon="1.99588076211512088775634765625">
        <ele>1648.5999755859375</ele>
        <time>2020-08-10T07:21:51.000Z</time>
      </trkpt>
      <trkpt lat="42.32869575731456279754638671875" lon="1.99573449790477752685546875">
        <ele>1649.5999755859375</ele>
        <time>2020-08-10T07:21:58.000Z</time>
      </trkpt>
      <trkpt lat="42.32869927771389484405517578125" lon="1.9957138784229755401611328125">
        <ele>1649.800048828125</ele>
        <time>2020-08-10T07:21:59.000Z</time>
      </trkpt>
      <trkpt lat="42.328729368746280670166015625" lon="1.9955898262560367584228515625">
        <ele>1650.800048828125</ele>
        <time>2020-08-10T07:22:05.000Z</time>
      </trkpt>
      <trkpt lat="42.32874336652457714080810546875" lon="1.9955254532396793365478515625">
        <ele>1651</ele>
        <time>2020-08-10T07:22:08.000Z</time>
      </trkpt>
      <trkpt lat="42.32876264490187168121337890625" lon="1.995395533740520477294921875">
        <ele>1652</ele>
        <time>2020-08-10T07:22:14.000Z</time>
      </trkpt>
      <trkpt lat="42.3287706077098846435546875" lon="1.995333172380924224853515625">
        <ele>1652.4000244140625</ele>
        <time>2020-08-10T07:22:17.000Z</time>
      </trkpt>
      <trkpt lat="42.32877253554761409759521484375" lon="1.9952914305031299591064453125">
        <ele>1652.800048828125</ele>
        <time>2020-08-10T07:22:19.000Z</time>
      </trkpt>
      <trkpt lat="42.32877538539469242095947265625" lon="1.9951546378433704376220703125">
        <ele>1654</ele>
        <time>2020-08-10T07:22:26.000Z</time>
      </trkpt>
      <trkpt lat="42.32877664268016815185546875" lon="1.99511180631816387176513671875">
        <ele>1654.4000244140625</ele>
        <time>2020-08-10T07:22:28.000Z</time>
      </trkpt>
      <trkpt lat="42.328777313232421875" lon="1.995024383068084716796875">
        <ele>1655</ele>
        <time>2020-08-10T07:22:32.000Z</time>
      </trkpt>
      <trkpt lat="42.32877722941339015960693359375" lon="1.99489421211183071136474609375">
        <ele>1655.5999755859375</ele>
        <time>2020-08-10T07:22:38.000Z</time>
      </trkpt>
      <trkpt lat="42.3287744633853435516357421875" lon="1.99485079385340213775634765625">
        <ele>1656</ele>
        <time>2020-08-10T07:22:40.000Z</time>
      </trkpt>
      <trkpt lat="42.32876180671155452728271484375" lon="1.994726993143558502197265625">
        <ele>1657</ele>
        <time>2020-08-10T07:22:46.000Z</time>
      </trkpt>
      <trkpt lat="42.3287437856197357177734375" lon="1.9946322776377201080322265625">
        <ele>1657.5999755859375</ele>
        <time>2020-08-10T07:22:51.000Z</time>
      </trkpt>
      <trkpt lat="42.32873515225946903228759765625" lon="1.99461559765040874481201171875">
        <ele>1658</ele>
        <time>2020-08-10T07:22:52.000Z</time>
      </trkpt>
      <trkpt lat="42.32872928492724895477294921875" lon="1.9945977441966533660888671875">
        <ele>1658.4000244140625</ele>
        <time>2020-08-10T07:22:53.000Z</time>
      </trkpt>
      <trkpt lat="42.32872274704277515411376953125" lon="1.99453881941735744476318359375">
        <ele>1658.800048828125</ele>
        <time>2020-08-10T07:22:56.000Z</time>
      </trkpt>
      <trkpt lat="42.32872040010988712310791015625" lon="1.99449959211051464080810546875">
        <ele>1659.199951171875</ele>
        <time>2020-08-10T07:22:58.000Z</time>
      </trkpt>
      <trkpt lat="42.328709922730922698974609375" lon="1.99444008059799671173095703125">
        <ele>1659.5999755859375</ele>
        <time>2020-08-10T07:23:01.000Z</time>
      </trkpt>
      <trkpt lat="42.32869374565780162811279296875" lon="1.99436481110751628875732421875">
        <ele>1660.199951171875</ele>
        <time>2020-08-10T07:23:05.000Z</time>
      </trkpt>
      <trkpt lat="42.32868486084043979644775390625" lon="1.99426867067813873291015625">
        <ele>1661</ele>
        <time>2020-08-10T07:23:10.000Z</time>
      </trkpt>
      <trkpt lat="42.32868402265012264251708984375" lon="1.99424930848181247711181640625">
        <ele>1661.199951171875</ele>
        <time>2020-08-10T07:23:11.000Z</time>
      </trkpt>
      <trkpt lat="42.32867245562374591827392578125" lon="1.9941276870667934417724609375">
        <ele>1662.199951171875</ele>
        <time>2020-08-10T07:23:17.000Z</time>
      </trkpt>
      <trkpt lat="42.3286705277860164642333984375" lon="1.9941084086894989013671875">
        <ele>1662.4000244140625</ele>
        <time>2020-08-10T07:23:18.000Z</time>
      </trkpt>
      <trkpt lat="42.3286665044724941253662109375" lon="1.99400589801371097564697265625">
        <ele>1663.199951171875</ele>
        <time>2020-08-10T07:23:23.000Z</time>
      </trkpt>
      <trkpt lat="42.32866264879703521728515625" lon="1.9938628189265727996826171875">
        <ele>1664.199951171875</ele>
        <time>2020-08-10T07:23:30.000Z</time>
      </trkpt>
      <trkpt lat="42.3286606371402740478515625" lon="1.993821747601032257080078125">
        <ele>1664.5999755859375</ele>
        <time>2020-08-10T07:23:32.000Z</time>
      </trkpt>
      <trkpt lat="42.32866323553025722503662109375" lon="1.9937397725880146026611328125">
        <ele>1665.199951171875</ele>
        <time>2020-08-10T07:23:36.000Z</time>
      </trkpt>
      <trkpt lat="42.328664995729923248291015625" lon="1.99366006068885326385498046875">
        <ele>1665.800048828125</ele>
        <time>2020-08-10T07:23:40.000Z</time>
      </trkpt>
      <trkpt lat="42.328660972416400909423828125" lon="1.993597447872161865234375">
        <ele>1666.199951171875</ele>
        <time>2020-08-10T07:23:43.000Z</time>
      </trkpt>
      <trkpt lat="42.3286661691963672637939453125" lon="1.99349577538669109344482421875">
        <ele>1667.4000244140625</ele>
        <time>2020-08-10T07:23:48.000Z</time>
      </trkpt>
      <trkpt lat="42.32866491191089153289794921875" lon="1.99345638044178485870361328125">
        <ele>1667.4000244140625</ele>
        <time>2020-08-10T07:23:50.000Z</time>
      </trkpt>
      <trkpt lat="42.32866725884377956390380859375" lon="1.99337708763778209686279296875">
        <ele>1668.199951171875</ele>
        <time>2020-08-10T07:23:54.000Z</time>
      </trkpt>
      <trkpt lat="42.3286688514053821563720703125" lon="1.99325345456600189208984375">
        <ele>1669.199951171875</ele>
        <time>2020-08-10T07:24:00.000Z</time>
      </trkpt>
      <trkpt lat="42.328667342662811279296875" lon="1.99323291890323162078857421875">
        <ele>1669.4000244140625</ele>
        <time>2020-08-10T07:24:01.000Z</time>
      </trkpt>
      <trkpt lat="42.3286638222634792327880859375" lon="1.9931097887456417083740234375">
        <ele>1670.4000244140625</ele>
        <time>2020-08-10T07:24:07.000Z</time>
      </trkpt>
      <trkpt lat="42.3286654986441135406494140625" lon="1.99304834939539432525634765625">
        <ele>1670.800048828125</ele>
        <time>2020-08-10T07:24:10.000Z</time>
      </trkpt>
      <trkpt lat="42.32866306789219379425048828125" lon="1.9929669611155986785888671875">
        <ele>1671.4000244140625</ele>
        <time>2020-08-10T07:24:14.000Z</time>
      </trkpt>
      <trkpt lat="42.32866541482508182525634765625" lon="1.9928636960685253143310546875">
        <ele>1672.199951171875</ele>
        <time>2020-08-10T07:24:19.000Z</time>
      </trkpt>
      <trkpt lat="42.328669019043445587158203125" lon="1.99282237328588962554931640625">
        <ele>1672.5999755859375</ele>
        <time>2020-08-10T07:24:21.000Z</time>
      </trkpt>
      <trkpt lat="42.32868117280304431915283203125" lon="1.9926787912845611572265625">
        <ele>1673.5999755859375</ele>
        <time>2020-08-10T07:24:28.000Z</time>
      </trkpt>
      <trkpt lat="42.32868385501205921173095703125" lon="1.99265842325985431671142578125">
        <ele>1673.800048828125</ele>
        <time>2020-08-10T07:24:29.000Z</time>
      </trkpt>
      <trkpt lat="42.32869475148618221282958984375" lon="1.9925391487777233123779296875">
        <ele>1674.800048828125</ele>
        <time>2020-08-10T07:24:35.000Z</time>
      </trkpt>
      <trkpt lat="42.3286936618387699127197265625" lon="1.99250201694667339324951171875">
        <ele>1675</ele>
        <time>2020-08-10T07:24:37.000Z</time>
      </trkpt>
      <trkpt lat="42.32871101237833499908447265625" lon="1.99241182766854763031005859375">
        <ele>1675.800048828125</ele>
        <time>2020-08-10T07:24:42.000Z</time>
      </trkpt>
      <trkpt lat="42.3287171311676502227783203125" lon="1.99237461201846599578857421875">
        <ele>1676.199951171875</ele>
        <time>2020-08-10T07:24:44.000Z</time>
      </trkpt>
      <trkpt lat="42.32872836291790008544921875" lon="1.99229816906154155731201171875">
        <ele>1676.800048828125</ele>
        <time>2020-08-10T07:24:48.000Z</time>
      </trkpt>
      <trkpt lat="42.32874705456197261810302734375" lon="1.9921653158962726593017578125">
        <ele>1677.800048828125</ele>
        <time>2020-08-10T07:24:55.000Z</time>
      </trkpt>
      <trkpt lat="42.3287670873105525970458984375" lon="1.99203179217875003814697265625">
        <ele>1678.800048828125</ele>
        <time>2020-08-10T07:25:02.000Z</time>
      </trkpt>
      <trkpt lat="42.32877002097666263580322265625" lon="1.9920124299824237823486328125">
        <ele>1679</ele>
        <time>2020-08-10T07:25:03.000Z</time>
      </trkpt>
      <trkpt lat="42.32878460548818111419677734375" lon="1.99191679246723651885986328125">
        <ele>1679.800048828125</ele>
        <time>2020-08-10T07:25:08.000Z</time>
      </trkpt>
      <trkpt lat="42.3287893831729888916015625" lon="1.9918776489794254302978515625">
        <ele>1680</ele>
        <time>2020-08-10T07:25:10.000Z</time>
      </trkpt>
      <trkpt lat="42.32880472205579280853271484375" lon="1.99178150855004787445068359375">
        <ele>1681</ele>
        <time>2020-08-10T07:25:15.000Z</time>
      </trkpt>
      <trkpt lat="42.3288150317966938018798828125" lon="1.99170322157442569732666015625">
        <ele>1681.800048828125</ele>
        <time>2020-08-10T07:25:19.000Z</time>
      </trkpt>
      <trkpt lat="42.32882517389953136444091796875" lon="1.99164454825222492218017578125">
        <ele>1682.199951171875</ele>
        <time>2020-08-10T07:25:22.000Z</time>
      </trkpt>
      <trkpt lat="42.3288411833345890045166015625" lon="1.9915279559791088104248046875">
        <ele>1683</ele>
        <time>2020-08-10T07:25:28.000Z</time>
      </trkpt>
      <trkpt lat="42.3288442008197307586669921875" lon="1.9915091805160045623779296875">
        <ele>1683.199951171875</ele>
        <time>2020-08-10T07:25:29.000Z</time>
      </trkpt>
      <trkpt lat="42.3288690112531185150146484375" lon="1.99139895848929882049560546875">
        <ele>1684</ele>
        <time>2020-08-10T07:25:35.000Z</time>
      </trkpt>
      <trkpt lat="42.32888485305011272430419921875" lon="1.99130374006927013397216796875">
        <ele>1684.800048828125</ele>
        <time>2020-08-10T07:25:40.000Z</time>
      </trkpt>
      <trkpt lat="42.3288881219923496246337890625" lon="1.99128471314907073974609375">
        <ele>1685</ele>
        <time>2020-08-10T07:25:41.000Z</time>
      </trkpt>
      <trkpt lat="42.32891905121505260467529296875" lon="1.99114783667027950286865234375">
        <ele>1686</ele>
        <time>2020-08-10T07:25:48.000Z</time>
      </trkpt>
      <trkpt lat="42.3289307020604610443115234375" lon="1.99108866043388843536376953125">
        <ele>1686.5999755859375</ele>
        <time>2020-08-10T07:25:51.000Z</time>
      </trkpt>
      <trkpt lat="42.32894687913358211517333984375" lon="1.99103258550167083740234375">
        <ele>1687.199951171875</ele>
        <time>2020-08-10T07:25:54.000Z</time>
      </trkpt>
      <trkpt lat="42.32897973619401454925537109375" lon="1.99091817252337932586669921875">
        <ele>1687.800048828125</ele>
        <time>2020-08-10T07:26:00.000Z</time>
      </trkpt>
      <trkpt lat="42.328983508050441741943359375" lon="1.99090107344090938568115234375">
        <ele>1688</ele>
        <time>2020-08-10T07:26:01.000Z</time>
      </trkpt>
      <trkpt lat="42.32901225797832012176513671875" lon="1.99081641621887683868408203125">
        <ele>1688.800048828125</ele>
        <time>2020-08-10T07:26:06.000Z</time>
      </trkpt>
      <trkpt lat="42.3290198855102062225341796875" lon="1.99077417142689228057861328125">
        <ele>1689.199951171875</ele>
        <time>2020-08-10T07:26:08.000Z</time>
      </trkpt>
      <trkpt lat="42.3290517367422580718994140625" lon="1.99068482033908367156982421875">
        <ele>1689.800048828125</ele>
        <time>2020-08-10T07:26:13.000Z</time>
      </trkpt>
      <trkpt lat="42.32907176949083805084228515625" lon="1.99063201434910297393798828125">
        <ele>1690.199951171875</ele>
        <time>2020-08-10T07:26:16.000Z</time>
      </trkpt>
      <trkpt lat="42.32909381389617919921875" lon="1.99057987891137599945068359375">
        <ele>1690.5999755859375</ele>
        <time>2020-08-10T07:26:19.000Z</time>
      </trkpt>
      <trkpt lat="42.32911267317831516265869140625" lon="1.9905264861881732940673828125">
        <ele>1691</ele>
        <time>2020-08-10T07:26:22.000Z</time>
      </trkpt>
      <trkpt lat="42.32914821244776248931884765625" lon="1.9904445111751556396484375">
        <ele>1691.800048828125</ele>
        <time>2020-08-10T07:26:27.000Z</time>
      </trkpt>
      <trkpt lat="42.32916355133056640625" lon="1.99041240848600864410400390625">
        <ele>1692</ele>
        <time>2020-08-10T07:26:29.000Z</time>
      </trkpt>
      <trkpt lat="42.32921250164508819580078125" lon="1.99029455892741680145263671875">
        <ele>1693.199951171875</ele>
        <time>2020-08-10T07:26:36.000Z</time>
      </trkpt>
      <trkpt lat="42.32922214083373546600341796875" lon="1.9902800582349300384521484375">
        <ele>1693.199951171875</ele>
        <time>2020-08-10T07:26:37.000Z</time>
      </trkpt>
      <trkpt lat="42.32927142642438411712646484375" lon="1.99019397608935832977294921875">
        <ele>1694.199951171875</ele>
        <time>2020-08-10T07:26:43.000Z</time>
      </trkpt>
      <trkpt lat="42.329282574355602264404296875" lon="1.9901593588292598724365234375">
        <ele>1694.5999755859375</ele>
        <time>2020-08-10T07:26:45.000Z</time>
      </trkpt>
      <trkpt lat="42.3293223045766353607177734375" lon="1.990102194249629974365234375">
        <ele>1695.199951171875</ele>
        <time>2020-08-10T07:26:49.000Z</time>
      </trkpt>
      <trkpt lat="42.3293367214500904083251953125" lon="1.99007176794111728668212890625">
        <ele>1695.4000244140625</ele>
        <time>2020-08-10T07:26:51.000Z</time>
      </trkpt>
      <trkpt lat="42.32936345972120761871337890625" lon="1.9900289364159107208251953125">
        <ele>1695.800048828125</ele>
        <time>2020-08-10T07:26:54.000Z</time>
      </trkpt>
      <trkpt lat="42.329386509954929351806640625" lon="1.98997705243527889251708984375">
        <ele>1696.199951171875</ele>
        <time>2020-08-10T07:26:57.000Z</time>
      </trkpt>
      <trkpt lat="42.3293960653245449066162109375" lon="1.9899618811905384063720703125">
        <ele>1696.199951171875</ele>
        <time>2020-08-10T07:26:58.000Z</time>
      </trkpt>
      <trkpt lat="42.329447530210018157958984375" lon="1.989894323050975799560546875">
        <ele>1697.199951171875</ele>
        <time>2020-08-10T07:27:03.000Z</time>
      </trkpt>
      <trkpt lat="42.329484410583972930908203125" lon="1.98985735885798931121826171875">
        <ele>1697.5999755859375</ele>
        <time>2020-08-10T07:27:06.000Z</time>
      </trkpt>
      <trkpt lat="42.32953973114490509033203125" lon="1.98979332111775875091552734375">
        <ele>1698.199951171875</ele>
        <time>2020-08-10T07:27:11.000Z</time>
      </trkpt>
      <trkpt lat="42.32957996428012847900390625" lon="1.989740096032619476318359375">
        <ele>1699</ele>
        <time>2020-08-10T07:27:15.000Z</time>
      </trkpt>
      <trkpt lat="42.32960142195224761962890625" lon="1.98971654288470745086669921875">
        <ele>1699.199951171875</ele>
        <time>2020-08-10T07:27:17.000Z</time>
      </trkpt>
      <trkpt lat="42.329663448035717010498046875" lon="1.98963557370007038116455078125">
        <ele>1700</ele>
        <time>2020-08-10T07:27:23.000Z</time>
      </trkpt>
      <trkpt lat="42.3296743445098400115966796875" lon="1.98962316848337650299072265625">
        <ele>1700.199951171875</ele>
        <time>2020-08-10T07:27:24.000Z</time>
      </trkpt>
      <trkpt lat="42.32974936254322528839111328125" lon="1.98953532613813877105712890625">
        <ele>1701.4000244140625</ele>
        <time>2020-08-10T07:27:31.000Z</time>
      </trkpt>
      <trkpt lat="42.329760007560253143310546875" lon="1.9895226694643497467041015625">
        <ele>1701.4000244140625</ele>
        <time>2020-08-10T07:27:32.000Z</time>
      </trkpt>
      <trkpt lat="42.3298211954534053802490234375" lon="1.98944647796452045440673828125">
        <ele>1702.199951171875</ele>
        <time>2020-08-10T07:27:38.000Z</time>
      </trkpt>
      <trkpt lat="42.32984483242034912109375" lon="1.9894261099398136138916015625">
        <ele>1702.5999755859375</ele>
        <time>2020-08-10T07:27:40.000Z</time>
      </trkpt>
      <trkpt lat="42.32990778051316738128662109375" lon="1.98934338055551052093505859375">
        <ele>1703.199951171875</ele>
        <time>2020-08-10T07:27:46.000Z</time>
      </trkpt>
      <trkpt lat="42.32991867698729038238525390625" lon="1.9893312267959117889404296875">
        <ele>1703.5999755859375</ele>
        <time>2020-08-10T07:27:47.000Z</time>
      </trkpt>
      <trkpt lat="42.32996813021600246429443359375" lon="1.9892514310777187347412109375">
        <ele>1704.5999755859375</ele>
        <time>2020-08-10T07:27:52.000Z</time>
      </trkpt>
      <trkpt lat="42.32999838888645172119140625" lon="1.98920709080994129180908203125">
        <ele>1705</ele>
        <time>2020-08-10T07:27:55.000Z</time>
      </trkpt>
      <trkpt lat="42.3300527036190032958984375" lon="1.98912092484533786773681640625">
        <ele>1705.4000244140625</ele>
        <time>2020-08-10T07:28:01.000Z</time>
      </trkpt>
      <trkpt lat="42.33009117655456066131591796875" lon="1.98905705474317073822021484375">
        <ele>1706</ele>
        <time>2020-08-10T07:28:05.000Z</time>
      </trkpt>
      <trkpt lat="42.3301165737211704254150390625" lon="1.98898413218557834625244140625">
        <ele>1706.4000244140625</ele>
        <time>2020-08-10T07:28:09.000Z</time>
      </trkpt>
      <trkpt lat="42.33012084849178791046142578125" lon="1.988943479955196380615234375">
        <ele>1706.5999755859375</ele>
        <time>2020-08-10T07:28:11.000Z</time>
      </trkpt>
      <trkpt lat="42.3301273025572299957275390625" lon="1.98890366591513156890869140625">
        <ele>1706.800048828125</ele>
        <time>2020-08-10T07:28:13.000Z</time>
      </trkpt>
      <trkpt lat="42.33013124205172061920166015625" lon="1.98881280608475208282470703125">
        <ele>1707.5999755859375</ele>
        <time>2020-08-10T07:28:19.000Z</time>
      </trkpt>
      <trkpt lat="42.33014213852584362030029296875" lon="1.98879788629710674285888671875">
        <ele>1707.4000244140625</ele>
        <time>2020-08-10T07:33:32.000Z</time>
      </trkpt>
      <trkpt lat="42.33013459481298923492431640625" lon="1.98875094763934612274169921875">
        <ele>1707.5999755859375</ele>
        <time>2020-08-10T07:33:39.000Z</time>
      </trkpt>
      <trkpt lat="42.3301179148256778717041015625" lon="1.988653130829334259033203125">
        <ele>1708.5999755859375</ele>
        <time>2020-08-10T07:33:45.000Z</time>
      </trkpt>
      <trkpt lat="42.33011313714087009429931640625" lon="1.98863762430846691131591796875">
        <ele>1708.5999755859375</ele>
        <time>2020-08-10T07:33:46.000Z</time>
      </trkpt>
      <trkpt lat="42.3300900869071483612060546875" lon="1.98851994238793849945068359375">
        <ele>1709.800048828125</ele>
        <time>2020-08-10T07:33:53.000Z</time>
      </trkpt>
      <trkpt lat="42.33008732087910175323486328125" lon="1.98841248638927936553955078125">
        <ele>1710.800048828125</ele>
        <time>2020-08-10T07:33:59.000Z</time>
      </trkpt>
      <trkpt lat="42.33009033836424350738525390625" lon="1.98839438147842884063720703125">
        <ele>1710.800048828125</ele>
        <time>2020-08-10T07:34:00.000Z</time>
      </trkpt>
      <trkpt lat="42.33010794036090373992919921875" lon="1.98830301873385906219482421875">
        <ele>1711.800048828125</ele>
        <time>2020-08-10T07:34:05.000Z</time>
      </trkpt>
      <trkpt lat="42.33012554235756397247314453125" lon="1.98824954219162464141845703125">
        <ele>1712.199951171875</ele>
        <time>2020-08-10T07:34:08.000Z</time>
      </trkpt>
      <trkpt lat="42.33015119098126888275146484375" lon="1.98816128075122833251953125">
        <ele>1712.5999755859375</ele>
        <time>2020-08-10T07:34:13.000Z</time>
      </trkpt>
      <trkpt lat="42.33018002472817897796630859375" lon="1.98811660520732402801513671875">
        <ele>1713.4000244140625</ele>
        <time>2020-08-10T07:34:16.000Z</time>
      </trkpt>
      <trkpt lat="42.33019796200096607208251953125" lon="1.98809062130749225616455078125">
        <ele>1713.5999755859375</ele>
        <time>2020-08-10T07:34:18.000Z</time>
      </trkpt>
      <trkpt lat="42.330248169600963592529296875" lon="1.98800378479063510894775390625">
        <ele>1714.5999755859375</ele>
        <time>2020-08-10T07:34:24.000Z</time>
      </trkpt>
      <trkpt lat="42.33026702888309955596923828125" lon="1.9879770465195178985595703125">
        <ele>1714.800048828125</ele>
        <time>2020-08-10T07:34:26.000Z</time>
      </trkpt>
      <trkpt lat="42.33032419346272945404052734375" lon="1.987874619662761688232421875">
        <ele>1715.800048828125</ele>
        <time>2020-08-10T07:34:33.000Z</time>
      </trkpt>
      <trkpt lat="42.33037867583334445953369140625" lon="1.98776892386376857757568359375">
        <ele>1716.800048828125</ele>
        <time>2020-08-10T07:34:40.000Z</time>
      </trkpt>
      <trkpt lat="42.330389656126499176025390625" lon="1.9877554289996623992919921875">
        <ele>1717</ele>
        <time>2020-08-10T07:34:41.000Z</time>
      </trkpt>
      <trkpt lat="42.330452688038349151611328125" lon="1.9876603782176971435546875">
        <ele>1718</ele>
        <time>2020-08-10T07:34:48.000Z</time>
      </trkpt>
      <trkpt lat="42.33047104440629482269287109375" lon="1.98763246648013591766357421875">
        <ele>1718.5999755859375</ele>
        <time>2020-08-10T07:34:50.000Z</time>
      </trkpt>
      <trkpt lat="42.3304981179535388946533203125" lon="1.9875919818878173828125">
        <ele>1719</ele>
        <time>2020-08-10T07:34:53.000Z</time>
      </trkpt>
      <trkpt lat="42.3305504210293292999267578125" lon="1.9875079952180385589599609375">
        <ele>1719.5999755859375</ele>
        <time>2020-08-10T07:34:59.000Z</time>
      </trkpt>
      <trkpt lat="42.33056835830211639404296875" lon="1.9874798320233821868896484375">
        <ele>1720</ele>
        <time>2020-08-10T07:35:01.000Z</time>
      </trkpt>
      <trkpt lat="42.3306235112249851226806640625" lon="1.98739022947847843170166015625">
        <ele>1720.800048828125</ele>
        <time>2020-08-10T07:35:07.000Z</time>
      </trkpt>
      <trkpt lat="42.33063180930912494659423828125" lon="1.9873738847672939300537109375">
        <ele>1721</ele>
        <time>2020-08-10T07:35:08.000Z</time>
      </trkpt>
      <trkpt lat="42.33070607297122478485107421875" lon="1.9872541911900043487548828125">
        <ele>1722.199951171875</ele>
        <time>2020-08-10T07:35:16.000Z</time>
      </trkpt>
      <trkpt lat="42.33071453869342803955078125" lon="1.9872394390404224395751953125">
        <ele>1722.4000244140625</ele>
        <time>2020-08-10T07:35:17.000Z</time>
      </trkpt>
      <trkpt lat="42.3307569511234760284423828125" lon="1.9871629960834980010986328125">
        <ele>1723.199951171875</ele>
        <time>2020-08-10T07:35:22.000Z</time>
      </trkpt>
      <trkpt lat="42.33077245764434337615966796875" lon="1.987133324146270751953125">
        <ele>1723.5999755859375</ele>
        <time>2020-08-10T07:35:24.000Z</time>
      </trkpt>
      <trkpt lat="42.330814786255359649658203125" lon="1.98705847375094890594482421875">
        <ele>1724.4000244140625</ele>
        <time>2020-08-10T07:35:29.000Z</time>
      </trkpt>
      <trkpt lat="42.330830208957195281982421875" lon="1.9870228506624698638916015625">
        <ele>1725</ele>
        <time>2020-08-10T07:35:31.000Z</time>
      </trkpt>
      <trkpt lat="42.33086876571178436279296875" lon="1.98693391866981983184814453125">
        <ele>1725.4000244140625</ele>
        <time>2020-08-10T07:35:36.000Z</time>
      </trkpt>
      <trkpt lat="42.33089701272547245025634765625" lon="1.98686501942574977874755859375">
        <ele>1726</ele>
        <time>2020-08-10T07:35:40.000Z</time>
      </trkpt>
      <trkpt lat="42.33091033995151519775390625" lon="1.98683015070855617523193359375">
        <ele>1726.4000244140625</ele>
        <time>2020-08-10T07:35:42.000Z</time>
      </trkpt>
      <trkpt lat="42.33095333911478519439697265625" lon="1.9867050088942050933837890625">
        <ele>1727.199951171875</ele>
        <time>2020-08-10T07:35:49.000Z</time>
      </trkpt>
      <trkpt lat="42.33096004463732242584228515625" lon="1.98668614961206912994384765625">
        <ele>1727.4000244140625</ele>
        <time>2020-08-10T07:35:50.000Z</time>
      </trkpt>
      <trkpt lat="42.33100195415318012237548828125" lon="1.98657467029988765716552734375">
        <ele>1728.5999755859375</ele>
        <time>2020-08-10T07:35:56.000Z</time>
      </trkpt>
      <trkpt lat="42.3310234956443309783935546875" lon="1.9865199364721775054931640625">
        <ele>1729</ele>
        <time>2020-08-10T07:35:59.000Z</time>
      </trkpt>
      <trkpt lat="42.33104755170643329620361328125" lon="1.98646872304379940032958984375">
        <ele>1729.5999755859375</ele>
        <time>2020-08-10T07:36:02.000Z</time>
      </trkpt>
      <trkpt lat="42.33109113760292530059814453125" lon="1.986356489360332489013671875">
        <ele>1730.4000244140625</ele>
        <time>2020-08-10T07:36:08.000Z</time>
      </trkpt>
      <trkpt lat="42.3311063088476657867431640625" lon="1.9863201119005680084228515625">
        <ele>1730.800048828125</ele>
        <time>2020-08-10T07:36:10.000Z</time>
      </trkpt>
      <trkpt lat="42.3311472125351428985595703125" lon="1.98620083741843700408935546875">
        <ele>1731.800048828125</ele>
        <time>2020-08-10T07:36:16.000Z</time>
      </trkpt>
      <trkpt lat="42.33115551061928272247314453125" lon="1.98618273250758647918701171875">
        <ele>1732</ele>
        <time>2020-08-10T07:36:17.000Z</time>
      </trkpt>
      <trkpt lat="42.33119054697453975677490234375" lon="1.98604635894298553466796875">
        <ele>1733.199951171875</ele>
        <time>2020-08-10T07:36:24.000Z</time>
      </trkpt>
      <trkpt lat="42.33122122474014759063720703125" lon="1.9859275035560131072998046875">
        <ele>1734</ele>
        <time>2020-08-10T07:36:30.000Z</time>
      </trkpt>
      <trkpt lat="42.331258691847324371337890625" lon="1.98578040115535259246826171875">
        <ele>1735.199951171875</ele>
        <time>2020-08-10T07:36:37.000Z</time>
      </trkpt>
      <trkpt lat="42.3312672413885593414306640625" lon="1.98573597706854343414306640625">
        <ele>1735.4000244140625</ele>
        <time>2020-08-10T07:36:39.000Z</time>
      </trkpt>
      <trkpt lat="42.33128693886101245880126953125" lon="1.98557320050895214080810546875">
        <ele>1736.4000244140625</ele>
        <time>2020-08-10T07:36:46.000Z</time>
      </trkpt>
      <trkpt lat="42.33130194246768951416015625" lon="1.985410340130329132080078125">
        <ele>1737.4000244140625</ele>
        <time>2020-08-10T07:36:53.000Z</time>
      </trkpt>
      <trkpt lat="42.33130269683897495269775390625" lon="1.98536097072064876556396484375">
        <ele>1737.800048828125</ele>
        <time>2020-08-10T07:36:55.000Z</time>
      </trkpt>
      <trkpt lat="42.33130604960024356842041015625" lon="1.98518377728760242462158203125">
        <ele>1738.4000244140625</ele>
        <time>2020-08-10T07:37:02.000Z</time>
      </trkpt>
      <trkpt lat="42.33130940236151218414306640625" lon="1.98515963740646839141845703125">
        <ele>1738.4000244140625</ele>
        <time>2020-08-10T07:37:03.000Z</time>
      </trkpt>
      <trkpt lat="42.3313262499868869781494140625" lon="1.9850105233490467071533203125">
        <ele>1739.199951171875</ele>
        <time>2020-08-10T07:37:10.000Z</time>
      </trkpt>
      <trkpt lat="42.33133605681359767913818359375" lon="1.98497154749929904937744140625">
        <ele>1739.4000244140625</ele>
        <time>2020-08-10T07:37:12.000Z</time>
      </trkpt>
      <trkpt lat="42.3313762061297893524169921875" lon="1.98487666435539722442626953125">
        <ele>1739.5999755859375</ele>
        <time>2020-08-10T07:37:18.000Z</time>
      </trkpt>
      <trkpt lat="42.33141333796083927154541015625" lon="1.98481681756675243377685546875">
        <ele>1740</ele>
        <time>2020-08-10T07:37:25.000Z</time>
      </trkpt>
      <trkpt lat="42.33140545897185802459716796875" lon="1.98480390943586826324462890625">
        <ele>1740</ele>
        <time>2020-08-10T07:37:35.000Z</time>
      </trkpt>
      <trkpt lat="42.33138500712811946868896484375" lon="1.98480206541717052459716796875">
        <ele>1740</ele>
        <time>2020-08-10T07:37:37.000Z</time>
      </trkpt>
      <trkpt lat="42.331332452595233917236328125" lon="1.9848935119807720184326171875">
        <ele>1739.800048828125</ele>
        <time>2020-08-10T07:37:43.000Z</time>
      </trkpt>
      <trkpt lat="42.33132381923496723175048828125" lon="1.98491455055773258209228515625">
        <ele>1739.800048828125</ele>
        <time>2020-08-10T07:37:44.000Z</time>
      </trkpt>
      <trkpt lat="42.3312695883214473724365234375" lon="1.98503248393535614013671875">
        <ele>1740</ele>
        <time>2020-08-10T07:37:51.000Z</time>
      </trkpt>
      <trkpt lat="42.3312709294259548187255859375" lon="1.985034830868244171142578125">
        <ele>1739.5999755859375</ele>
        <time>2020-08-10T07:37:58.000Z</time>
      </trkpt>
      <trkpt lat="42.33127151615917682647705078125" lon="1.9850346632301807403564453125">
        <ele>1740</ele>
        <time>2020-08-10T07:38:22.000Z</time>
      </trkpt>
      <trkpt lat="42.3313259147107601165771484375" lon="1.9850286282598972320556640625">
        <ele>1739.4000244140625</ele>
        <time>2020-08-10T07:41:44.000Z</time>
      </trkpt>
      <trkpt lat="42.331390790641307830810546875" lon="1.9848790951073169708251953125">
        <ele>1739.4000244140625</ele>
        <time>2020-08-10T07:41:51.000Z</time>
      </trkpt>
      <trkpt lat="42.33140026219189167022705078125" lon="1.984853111207485198974609375">
        <ele>1739.4000244140625</ele>
        <time>2020-08-10T07:41:52.000Z</time>
      </trkpt>
      <trkpt lat="42.331494390964508056640625" lon="1.98469041846692562103271484375">
        <ele>1739.4000244140625</ele>
        <time>2020-08-10T07:41:59.000Z</time>
      </trkpt>
      <trkpt lat="42.33152783475816249847412109375" lon="1.98458145372569561004638671875">
        <ele>1739.4000244140625</ele>
        <time>2020-08-10T07:42:03.000Z</time>
      </trkpt>
      <trkpt lat="42.33145055361092090606689453125" lon="1.98440660722553730010986328125">
        <ele>1739.4000244140625</ele>
        <time>2020-08-10T07:42:09.000Z</time>
      </trkpt>
      <trkpt lat="42.33137846924364566802978515625" lon="1.984213404357433319091796875">
        <ele>1739.800048828125</ele>
        <time>2020-08-10T07:42:16.000Z</time>
      </trkpt>
      <trkpt lat="42.33136857859790325164794921875" lon="1.98396286927163600921630859375">
        <ele>1740.199951171875</ele>
        <time>2020-08-10T07:42:24.000Z</time>
      </trkpt>
      <trkpt lat="42.33138249255716800689697265625" lon="1.98370051570236682891845703125">
        <ele>1740.199951171875</ele>
        <time>2020-08-10T07:42:32.000Z</time>
      </trkpt>
      <trkpt lat="42.33138416893780231475830078125" lon="1.98366715572774410247802734375">
        <ele>1740.4000244140625</ele>
        <time>2020-08-10T07:42:33.000Z</time>
      </trkpt>
      <trkpt lat="42.33139573596417903900146484375" lon="1.98338854126632213592529296875">
        <ele>1740.800048828125</ele>
        <time>2020-08-10T07:42:41.000Z</time>
      </trkpt>
      <trkpt lat="42.33140596188604831695556640625" lon="1.98311462067067623138427734375">
        <ele>1741</ele>
        <time>2020-08-10T07:42:49.000Z</time>
      </trkpt>
      <trkpt lat="42.3314144276082515716552734375" lon="1.98293273337185382843017578125">
        <ele>1741.4000244140625</ele>
        <time>2020-08-10T07:42:54.000Z</time>
      </trkpt>
      <trkpt lat="42.33142741955816745758056640625" lon="1.98278085328638553619384765625">
        <ele>1741.5999755859375</ele>
        <time>2020-08-10T07:42:58.000Z</time>
      </trkpt>
      <trkpt lat="42.33148165047168731689453125" lon="1.9824654422700405120849609375">
        <ele>1741.800048828125</ele>
        <time>2020-08-10T07:43:06.000Z</time>
      </trkpt>
      <trkpt lat="42.33156882226467132568359375" lon="1.98208549059927463531494140625">
        <ele>1742.4000244140625</ele>
        <time>2020-08-10T07:43:15.000Z</time>
      </trkpt>
      <trkpt lat="42.3315877653658390045166015625" lon="1.98194702155888080596923828125">
        <ele>1742.4000244140625</ele>
        <time>2020-08-10T07:43:18.000Z</time>
      </trkpt>
      <trkpt lat="42.33159036375582218170166015625" lon="1.98177100159227848052978515625">
        <ele>1742.800048828125</ele>
        <time>2020-08-10T07:43:22.000Z</time>
      </trkpt>
      <trkpt lat="42.3315414972603321075439453125" lon="1.9814564287662506103515625">
        <ele>1743.199951171875</ele>
        <time>2020-08-10T07:43:30.000Z</time>
      </trkpt>
      <trkpt lat="42.33150134794414043426513671875" lon="1.9813167862594127655029296875">
        <ele>1743.5999755859375</ele>
        <time>2020-08-10T07:43:34.000Z</time>
      </trkpt>
      <trkpt lat="42.33144342899322509765625" lon="1.9811291992664337158203125">
        <ele>1744</ele>
        <time>2020-08-10T07:43:39.000Z</time>
      </trkpt>
      <trkpt lat="42.331331782042980194091796875" lon="1.98077791370451450347900390625">
        <ele>1744.4000244140625</ele>
        <time>2020-08-10T07:43:48.000Z</time>
      </trkpt>
      <trkpt lat="42.3312464542686939239501953125" lon="1.9803806953132152557373046875">
        <ele>1745</ele>
        <time>2020-08-10T07:43:58.000Z</time>
      </trkpt>
      <trkpt lat="42.33126648701727390289306640625" lon="1.98021464981138706207275390625">
        <ele>1745.4000244140625</ele>
        <time>2020-08-10T07:44:02.000Z</time>
      </trkpt>
      <trkpt lat="42.33129180036485195159912109375" lon="1.980138123035430908203125">
        <ele>1745.5999755859375</ele>
        <time>2020-08-10T07:44:04.000Z</time>
      </trkpt>
      <trkpt lat="42.331428341567516326904296875" lon="1.979858838021755218505859375">
        <ele>1746.199951171875</ele>
        <time>2020-08-10T07:44:12.000Z</time>
      </trkpt>
      <trkpt lat="42.331523559987545013427734375" lon="1.97968524880707263946533203125">
        <ele>1746.4000244140625</ele>
        <time>2020-08-10T07:44:17.000Z</time>
      </trkpt>
      <trkpt lat="42.33162892051041126251220703125" lon="1.9795220531523227691650390625">
        <ele>1746.5999755859375</ele>
        <time>2020-08-10T07:44:22.000Z</time>
      </trkpt>
      <trkpt lat="42.331855483353137969970703125" lon="1.9793058000504970550537109375">
        <ele>1747.199951171875</ele>
        <time>2020-08-10T07:44:30.000Z</time>
      </trkpt>
      <trkpt lat="42.3319637775421142578125" lon="1.97919289581477642059326171875">
        <ele>1747.5999755859375</ele>
        <time>2020-08-10T07:44:34.000Z</time>
      </trkpt>
      <trkpt lat="42.332068383693695068359375" lon="1.97907529771327972412109375">
        <ele>1747.800048828125</ele>
        <time>2020-08-10T07:44:38.000Z</time>
      </trkpt>
      <trkpt lat="42.33222286216914653778076171875" lon="1.97876810096204280853271484375">
        <ele>1748.4000244140625</ele>
        <time>2020-08-10T07:44:46.000Z</time>
      </trkpt>
      <trkpt lat="42.332247756421566009521484375" lon="1.9786841981112957000732421875">
        <ele>1748.5999755859375</ele>
        <time>2020-08-10T07:44:48.000Z</time>
      </trkpt>
      <trkpt lat="42.33228187076747417449951171875" lon="1.97842217981815338134765625">
        <ele>1749.4000244140625</ele>
        <time>2020-08-10T07:44:54.000Z</time>
      </trkpt>
      <trkpt lat="42.3322660289704799652099609375" lon="1.97819150984287261962890625">
        <ele>1749.800048828125</ele>
        <time>2020-08-10T07:44:59.000Z</time>
      </trkpt>
      <trkpt lat="42.3322485946118831634521484375" lon="1.9780998118221759796142578125">
        <ele>1749.5999755859375</ele>
        <time>2020-08-10T07:45:01.000Z</time>
      </trkpt>
      <trkpt lat="42.3321805335581302642822265625" lon="1.97789604775607585906982421875">
        <ele>1750.199951171875</ele>
        <time>2020-08-10T07:45:07.000Z</time>
      </trkpt>
      <trkpt lat="42.332106269896030426025390625" lon="1.9777725823223590850830078125">
        <ele>1750.5999755859375</ele>
        <time>2020-08-10T07:45:11.000Z</time>
      </trkpt>
      <trkpt lat="42.3320605047047138214111328125" lon="1.97770577855408191680908203125">
        <ele>1750.5999755859375</ele>
        <time>2020-08-10T07:45:13.000Z</time>
      </trkpt>
      <trkpt lat="42.331850789487361907958984375" lon="1.9774948060512542724609375">
        <ele>1751</ele>
        <time>2020-08-10T07:45:21.000Z</time>
      </trkpt>
      <trkpt lat="42.33161768876016139984130859375" lon="1.97719196788966655731201171875">
        <ele>1751.5999755859375</ele>
        <time>2020-08-10T07:45:31.000Z</time>
      </trkpt>
      <trkpt lat="42.3314420878887176513671875" lon="1.97685937397181987762451171875">
        <ele>1751.800048828125</ele>
        <time>2020-08-10T07:45:40.000Z</time>
      </trkpt>
      <trkpt lat="42.33123748563230037689208984375" lon="1.9764663465321063995361328125">
        <ele>1752.4000244140625</ele>
        <time>2020-08-10T07:45:50.000Z</time>
      </trkpt>
      <trkpt lat="42.33119507320225238800048828125" lon="1.97638579644262790679931640625">
        <ele>1752.4000244140625</ele>
        <time>2020-08-10T07:45:52.000Z</time>
      </trkpt>
      <trkpt lat="42.331072948873043060302734375" lon="1.9761233590543270111083984375">
        <ele>1753</ele>
        <time>2020-08-10T07:45:58.000Z</time>
      </trkpt>
      <trkpt lat="42.33097312040627002716064453125" lon="1.975870393216609954833984375">
        <ele>1753.4000244140625</ele>
        <time>2020-08-10T07:46:04.000Z</time>
      </trkpt>
      <trkpt lat="42.33094914816319942474365234375" lon="1.97578012011945247650146484375">
        <ele>1753.5999755859375</ele>
        <time>2020-08-10T07:46:06.000Z</time>
      </trkpt>
      <trkpt lat="42.3309083282947540283203125" lon="1.97539539076387882232666015625">
        <ele>1753.800048828125</ele>
        <time>2020-08-10T07:46:14.000Z</time>
      </trkpt>
      <trkpt lat="42.33090640045702457427978515625" lon="1.97495500557124614715576171875">
        <ele>1754</ele>
        <time>2020-08-10T07:46:23.000Z</time>
      </trkpt>
      <trkpt lat="42.3308895528316497802734375" lon="1.97441437281668186187744140625">
        <ele>1754</ele>
        <time>2020-08-10T07:46:34.000Z</time>
      </trkpt>
      <trkpt lat="42.3308685980737209320068359375" lon="1.97421723045408725738525390625">
        <ele>1754.199951171875</ele>
        <time>2020-08-10T07:46:38.000Z</time>
      </trkpt>
      <trkpt lat="42.33083414845168590545654296875" lon="1.9739829562604427337646484375">
        <ele>1754.5999755859375</ele>
        <time>2020-08-10T07:46:43.000Z</time>
      </trkpt>
      <trkpt lat="42.330755777657032012939453125" lon="1.9735172577202320098876953125">
        <ele>1754.800048828125</ele>
        <time>2020-08-10T07:46:52.000Z</time>
      </trkpt>
      <trkpt lat="42.33068729750812053680419921875" lon="1.97319732047617435455322265625">
        <ele>1755.4000244140625</ele>
        <time>2020-08-10T07:46:58.000Z</time>
      </trkpt>
      <trkpt lat="42.33066181652247905731201171875" lon="1.97309606708586215972900390625">
        <ele>1755.5999755859375</ele>
        <time>2020-08-10T07:47:00.000Z</time>
      </trkpt>
      <trkpt lat="42.33051932416856288909912109375" lon="1.97266808710992336273193359375">
        <ele>1756</ele>
        <time>2020-08-10T07:47:09.000Z</time>
      </trkpt>
      <trkpt lat="42.3304682783782482147216796875" lon="1.97253473103046417236328125">
        <ele>1756.199951171875</ele>
        <time>2020-08-10T07:47:12.000Z</time>
      </trkpt>
      <trkpt lat="42.33039510436356067657470703125" lon="1.97229509241878986358642578125">
        <ele>1756.5999755859375</ele>
        <time>2020-08-10T07:47:17.000Z</time>
      </trkpt>
      <trkpt lat="42.33019125647842884063720703125" lon="1.97173484601080417633056640625">
        <ele>1756.800048828125</ele>
        <time>2020-08-10T07:47:29.000Z</time>
      </trkpt>
      <trkpt lat="42.330081202089786529541015625" lon="1.9713094644248485565185546875">
        <ele>1757</ele>
        <time>2020-08-10T07:47:38.000Z</time>
      </trkpt>
      <trkpt lat="42.3300508596003055572509765625" lon="1.97111961431801319122314453125">
        <ele>1757.199951171875</ele>
        <time>2020-08-10T07:47:42.000Z</time>
      </trkpt>
      <trkpt lat="42.3300387896597385406494140625" lon="1.970976702868938446044921875">
        <ele>1757.199951171875</ele>
        <time>2020-08-10T07:47:45.000Z</time>
      </trkpt>
      <trkpt lat="42.33001573942601680755615234375" lon="1.9705088250339031219482421875">
        <ele>1757</ele>
        <time>2020-08-10T07:47:54.000Z</time>
      </trkpt>
      <trkpt lat="42.3300220258533954620361328125" lon="1.97033339180052280426025390625">
        <ele>1756.800048828125</ele>
        <time>2020-08-10T07:47:57.000Z</time>
      </trkpt>
      <trkpt lat="42.3300391249358654022216796875" lon="1.97014647535979747772216796875">
        <ele>1756.5999755859375</ele>
        <time>2020-08-10T07:48:00.000Z</time>
      </trkpt>
      <trkpt lat="42.33009117655456066131591796875" lon="1.96974665857851505279541015625">
        <ele>1756</ele>
        <time>2020-08-10T07:48:06.000Z</time>
      </trkpt>
      <trkpt lat="42.3301309905946254730224609375" lon="1.96953292004764080047607421875">
        <ele>1755.5999755859375</ele>
        <time>2020-08-10T07:48:09.000Z</time>
      </trkpt>
      <trkpt lat="42.33021489344537258148193359375" lon="1.96908096782863140106201171875">
        <ele>1754.800048828125</ele>
        <time>2020-08-10T07:48:15.000Z</time>
      </trkpt>
      <trkpt lat="42.33025881461799144744873046875" lon="1.96884593926370143890380859375">
        <ele>1754.5999755859375</ele>
        <time>2020-08-10T07:48:18.000Z</time>
      </trkpt>
      <trkpt lat="42.33036844991147518157958984375" lon="1.9682116806507110595703125">
        <ele>1753.800048828125</ele>
        <time>2020-08-10T07:48:26.000Z</time>
      </trkpt>
      <trkpt lat="42.33038471080362796783447265625" lon="1.968051753938198089599609375">
        <ele>1753.5999755859375</ele>
        <time>2020-08-10T07:48:28.000Z</time>
      </trkpt>
      <trkpt lat="42.33039510436356067657470703125" lon="1.967418752610683441162109375">
        <ele>1753.199951171875</ele>
        <time>2020-08-10T07:48:36.000Z</time>
      </trkpt>
      <trkpt lat="42.33040876686573028564453125" lon="1.96720384061336517333984375">
        <ele>1753</ele>
        <time>2020-08-10T07:48:39.000Z</time>
      </trkpt>
      <trkpt lat="42.33042527921497821807861328125" lon="1.967080794274806976318359375">
        <ele>1753</ele>
        <time>2020-08-10T07:48:41.000Z</time>
      </trkpt>
      <trkpt lat="42.33048445545136928558349609375" lon="1.966795809566974639892578125">
        <ele>1753.800048828125</ele>
        <time>2020-08-10T07:48:47.000Z</time>
      </trkpt>
      <trkpt lat="42.330557294189929962158203125" lon="1.9665626250207424163818359375">
        <ele>1754.4000244140625</ele>
        <time>2020-08-10T07:48:54.000Z</time>
      </trkpt>
      <trkpt lat="42.3306406103074550628662109375" lon="1.96635366417467594146728515625">
        <ele>1754.5999755859375</ele>
        <time>2020-08-10T07:48:59.000Z</time>
      </trkpt>
      <trkpt lat="42.3306818492710590362548828125" lon="1.96624201722443103790283203125">
        <ele>1754.800048828125</ele>
        <time>2020-08-10T07:49:02.000Z</time>
      </trkpt>
      <trkpt lat="42.3307462222874164581298828125" lon="1.96606901474297046661376953125">
        <ele>1755.199951171875</ele>
        <time>2020-08-10T07:49:09.000Z</time>
      </trkpt>
      <trkpt lat="42.3308072425425052642822265625" lon="1.9659028016030788421630859375">
        <ele>1755.5999755859375</ele>
        <time>2020-08-10T07:49:15.000Z</time>
      </trkpt>
      <trkpt lat="42.33081771992146968841552734375" lon="1.965868435800075531005859375">
        <ele>1755.5999755859375</ele>
        <time>2020-08-10T07:49:16.000Z</time>
      </trkpt>
      <trkpt lat="42.3309292830526828765869140625" lon="1.9655698724091053009033203125">
        <ele>1756</ele>
        <time>2020-08-10T07:49:24.000Z</time>
      </trkpt>
      <trkpt lat="42.3309805803000926971435546875" lon="1.9654109515249729156494140625">
        <ele>1756.4000244140625</ele>
        <time>2020-08-10T07:49:28.000Z</time>
      </trkpt>
      <trkpt lat="42.3310224898159503936767578125" lon="1.96524423547089099884033203125">
        <ele>1756.5999755859375</ele>
        <time>2020-08-10T07:49:32.000Z</time>
      </trkpt>
      <trkpt lat="42.33107940293848514556884765625" lon="1.96484290994703769683837890625">
        <ele>1757.4000244140625</ele>
        <time>2020-08-10T07:49:41.000Z</time>
      </trkpt>
      <trkpt lat="42.33108392916619777679443359375" lon="1.9647973962128162384033203125">
        <ele>1757.5999755859375</ele>
        <time>2020-08-10T07:49:42.000Z</time>
      </trkpt>
      <trkpt lat="42.3310751281678676605224609375" lon="1.964517943561077117919921875">
        <ele>1757.800048828125</ele>
        <time>2020-08-10T07:49:48.000Z</time>
      </trkpt>
      <trkpt lat="42.3310040496289730072021484375" lon="1.96409138850867748260498046875">
        <ele>1758.5999755859375</ele>
        <time>2020-08-10T07:49:57.000Z</time>
      </trkpt>
      <trkpt lat="42.33099357225000858306884765625" lon="1.9640453718602657318115234375">
        <ele>1758.5999755859375</ele>
        <time>2020-08-10T07:49:58.000Z</time>
      </trkpt>
      <trkpt lat="42.33088552951812744140625" lon="1.963604651391506195068359375">
        <ele>1759.5999755859375</ele>
        <time>2020-08-10T07:50:08.000Z</time>
      </trkpt>
      <trkpt lat="42.33087404631078243255615234375" lon="1.9635615684092044830322265625">
        <ele>1759.800048828125</ele>
        <time>2020-08-10T07:50:09.000Z</time>
      </trkpt>
      <trkpt lat="42.3307408578693866729736328125" lon="1.9630918465554714202880859375">
        <ele>1760.5999755859375</ele>
        <time>2020-08-10T07:50:20.000Z</time>
      </trkpt>
      <trkpt lat="42.33071646653115749359130859375" lon="1.96300861425697803497314453125">
        <ele>1760.800048828125</ele>
        <time>2020-08-10T07:50:22.000Z</time>
      </trkpt>
      <trkpt lat="42.3306808434426784515380859375" lon="1.962883807718753814697265625">
        <ele>1761.4000244140625</ele>
        <time>2020-08-10T07:50:25.000Z</time>
      </trkpt>
      <trkpt lat="42.33056676574051380157470703125" lon="1.9625468552112579345703125">
        <ele>1762</ele>
        <time>2020-08-10T07:50:33.000Z</time>
      </trkpt>
      <trkpt lat="42.330405078828334808349609375" lon="1.9622573442757129669189453125">
        <ele>1762.5999755859375</ele>
        <time>2020-08-10T07:50:41.000Z</time>
      </trkpt>
      <trkpt lat="42.33038169331848621368408203125" lon="1.96222591213881969451904296875">
        <ele>1762.800048828125</ele>
        <time>2020-08-10T07:50:42.000Z</time>
      </trkpt>
      <trkpt lat="42.33014993369579315185546875" lon="1.96198082529008388519287109375">
        <ele>1763.4000244140625</ele>
        <time>2020-08-10T07:50:51.000Z</time>
      </trkpt>
      <trkpt lat="42.3300401307642459869384765625" lon="1.961876638233661651611328125">
        <ele>1763.5999755859375</ele>
        <time>2020-08-10T07:50:55.000Z</time>
      </trkpt>
      <trkpt lat="42.32989772222936153411865234375" lon="1.96174629963934421539306640625">
        <ele>1764</ele>
        <time>2020-08-10T07:51:00.000Z</time>
      </trkpt>
      <trkpt lat="42.3297549784183502197265625" lon="1.9616241753101348876953125">
        <ele>1764.4000244140625</ele>
        <time>2020-08-10T07:51:05.000Z</time>
      </trkpt>
      <trkpt lat="42.32961709611117839813232421875" lon="1.961502134799957275390625">
        <ele>1765.199951171875</ele>
        <time>2020-08-10T07:51:10.000Z</time>
      </trkpt>
      <trkpt lat="42.32945834286510944366455078125" lon="1.9613564573228359222412109375">
        <ele>1765.4000244140625</ele>
        <time>2020-08-10T07:51:16.000Z</time>
      </trkpt>
      <trkpt lat="42.3293766193091869354248046875" lon="1.96129024028778076171875">
        <ele>1765.800048828125</ele>
        <time>2020-08-10T07:51:19.000Z</time>
      </trkpt>
      <trkpt lat="42.3290817439556121826171875" lon="1.9610027410089969635009765625">
        <ele>1766.5999755859375</ele>
        <time>2020-08-10T07:51:30.000Z</time>
      </trkpt>
      <trkpt lat="42.32905701734125614166259765625" lon="1.96097617037594318389892578125">
        <ele>1766.5999755859375</ele>
        <time>2020-08-10T07:51:31.000Z</time>
      </trkpt>
      <trkpt lat="42.32883254997432231903076171875" lon="1.96074499748647212982177734375">
        <ele>1767.4000244140625</ele>
        <time>2020-08-10T07:51:40.000Z</time>
      </trkpt>
      <trkpt lat="42.32872970402240753173828125" lon="1.9606382958590984344482421875">
        <ele>1767.5999755859375</ele>
        <time>2020-08-10T07:51:44.000Z</time>
      </trkpt>
      <trkpt lat="42.328575812280178070068359375" lon="1.960473172366619110107421875">
        <ele>1768.199951171875</ele>
        <time>2020-08-10T07:51:50.000Z</time>
      </trkpt>
      <trkpt lat="42.328394092619419097900390625" lon="1.960286758840084075927734375">
        <ele>1768.5999755859375</ele>
        <time>2020-08-10T07:51:57.000Z</time>
      </trkpt>
      <trkpt lat="42.328302562236785888671875" lon="1.96018978022038936614990234375">
        <ele>1769</ele>
        <time>2020-08-10T07:52:01.000Z</time>
      </trkpt>
      <trkpt lat="42.32813567854464054107666015625" lon="1.960032284259796142578125">
        <ele>1769.4000244140625</ele>
        <time>2020-08-10T07:52:08.000Z</time>
      </trkpt>
      <trkpt lat="42.32801212929189205169677734375" lon="1.9599788077175617218017578125">
        <ele>1769.5999755859375</ele>
        <time>2020-08-10T07:52:12.000Z</time>
      </trkpt>
      <trkpt lat="42.327953539788722991943359375" lon="1.95994913578033447265625">
        <ele>1769.5999755859375</ele>
        <time>2020-08-10T07:52:14.000Z</time>
      </trkpt>
      <trkpt lat="42.3276885040104389190673828125" lon="1.9598289392888545989990234375">
        <ele>1769.800048828125</ele>
        <time>2020-08-10T07:52:23.000Z</time>
      </trkpt>
      <trkpt lat="42.327660508453845977783203125" lon="1.95981661789119243621826171875">
        <ele>1769.800048828125</ele>
        <time>2020-08-10T07:52:24.000Z</time>
      </trkpt>
      <trkpt lat="42.32749915681779384613037109375" lon="1.95977454073727130889892578125">
        <ele>1769.800048828125</ele>
        <time>2020-08-10T07:52:30.000Z</time>
      </trkpt>
      <trkpt lat="42.32740611769258975982666015625" lon="1.95973648689687252044677734375">
        <ele>1770.5999755859375</ele>
        <time>2020-08-10T07:52:34.000Z</time>
      </trkpt>
      <trkpt lat="42.32734861783683300018310546875" lon="1.959710754454135894775390625">
        <ele>1770.800048828125</ele>
        <time>2020-08-10T07:52:37.000Z</time>
      </trkpt>
      <trkpt lat="42.32722699642181396484375" lon="1.95965602062642574310302734375">
        <ele>1771.5999755859375</ele>
        <time>2020-08-10T07:52:43.000Z</time>
      </trkpt>
      <trkpt lat="42.32720579020678997039794921875" lon="1.9596499018371105194091796875">
        <ele>1771.800048828125</ele>
        <time>2020-08-10T07:52:44.000Z</time>
      </trkpt>
      <trkpt lat="42.3270689137279987335205078125" lon="1.95957161486148834228515625">
        <ele>1772.800048828125</ele>
        <time>2020-08-10T07:52:51.000Z</time>
      </trkpt>
      <trkpt lat="42.3270498029887676239013671875" lon="1.95956113748252391815185546875">
        <ele>1772.800048828125</ele>
        <time>2020-08-10T07:52:52.000Z</time>
      </trkpt>
      <trkpt lat="42.32695114798843860626220703125" lon="1.95952576585114002227783203125">
        <ele>1773.800048828125</ele>
        <time>2020-08-10T07:52:57.000Z</time>
      </trkpt>
      <trkpt lat="42.326897084712982177734375" lon="1.9594903104007244110107421875">
        <ele>1774.4000244140625</ele>
        <time>2020-08-10T07:53:00.000Z</time>
      </trkpt>
      <trkpt lat="42.32684813439846038818359375" lon="1.959463655948638916015625">
        <ele>1774.800048828125</ele>
        <time>2020-08-10T07:53:03.000Z</time>
      </trkpt>
      <trkpt lat="42.32679323293268680572509765625" lon="1.959452591836452484130859375">
        <ele>1775.5999755859375</ele>
        <time>2020-08-10T07:53:06.000Z</time>
      </trkpt>
      <trkpt lat="42.32671813108026981353759765625" lon="1.95943691767752170562744140625">
        <ele>1776</ele>
        <time>2020-08-10T07:53:10.000Z</time>
      </trkpt>
      <trkpt lat="42.32662224210798740386962890625" lon="1.95942945778369903564453125">
        <ele>1776.5999755859375</ele>
        <time>2020-08-10T07:53:15.000Z</time>
      </trkpt>
      <trkpt lat="42.32654504477977752685546875" lon="1.9594239257276058197021484375">
        <ele>1777.199951171875</ele>
        <time>2020-08-10T07:53:19.000Z</time>
      </trkpt>
      <trkpt lat="42.32646935619413852691650390625" lon="1.95942350663244724273681640625">
        <ele>1777.800048828125</ele>
        <time>2020-08-10T07:53:23.000Z</time>
      </trkpt>
      <trkpt lat="42.3263990320265293121337890625" lon="1.959446556866168975830078125">
        <ele>1778.199951171875</ele>
        <time>2020-08-10T07:53:28.000Z</time>
      </trkpt>
      <trkpt lat="42.326367013156414031982421875" lon="1.95944932289421558380126953125">
        <ele>1778.199951171875</ele>
        <time>2020-08-10T07:53:30.000Z</time>
      </trkpt>
      <trkpt lat="42.3262488283216953277587890625" lon="1.9594732113182544708251953125">
        <ele>1778.800048828125</ele>
        <time>2020-08-10T07:53:38.000Z</time>
      </trkpt>
      <trkpt lat="42.3262012191116809844970703125" lon="1.959484778344631195068359375">
        <ele>1779</ele>
        <time>2020-08-10T07:53:41.000Z</time>
      </trkpt>
      <trkpt lat="42.32610859908163547515869140625" lon="1.959520988166332244873046875">
        <ele>1779.5999755859375</ele>
        <time>2020-08-10T07:53:47.000Z</time>
      </trkpt>
      <trkpt lat="42.32603768818080425262451171875" lon="1.9595600478351116180419921875">
        <ele>1780</ele>
        <time>2020-08-10T07:53:52.000Z</time>
      </trkpt>
      <trkpt lat="42.3259785957634449005126953125" lon="1.959576308727264404296875">
        <ele>1780.800048828125</ele>
        <time>2020-08-10T07:53:56.000Z</time>
      </trkpt>
      <trkpt lat="42.325919754803180694580078125" lon="1.959590725600719451904296875">
        <ele>1781</ele>
        <time>2020-08-10T07:54:00.000Z</time>
      </trkpt>
      <trkpt lat="42.32588044367730617523193359375" lon="1.95960304699838161468505859375">
        <ele>1781.4000244140625</ele>
        <time>2020-08-10T07:54:03.000Z</time>
      </trkpt>
      <trkpt lat="42.32586669735610485076904296875" lon="1.9595949165523052215576171875">
        <ele>1781.4000244140625</ele>
        <time>2020-08-10T07:54:04.000Z</time>
      </trkpt>
      <trkpt lat="42.325791008770465850830078125" lon="1.95955929346382617950439453125">
        <ele>1782.199951171875</ele>
        <time>2020-08-10T07:54:09.000Z</time>
      </trkpt>
      <trkpt lat="42.32574717141687870025634765625" lon="1.95953808724880218505859375">
        <ele>1782.4000244140625</ele>
        <time>2020-08-10T07:54:12.000Z</time>
      </trkpt>
      <trkpt lat="42.32567072845995426177978515625" lon="1.95945368148386478424072265625">
        <ele>1783</ele>
        <time>2020-08-10T07:54:19.000Z</time>
      </trkpt>
      <trkpt lat="42.32564239762723445892333984375" lon="1.9594155438244342803955078125">
        <ele>1783</ele>
        <time>2020-08-10T07:54:22.000Z</time>
      </trkpt>
      <trkpt lat="42.32558053918182849884033203125" lon="1.959337256848812103271484375">
        <ele>1783.5999755859375</ele>
        <time>2020-08-10T07:54:28.000Z</time>
      </trkpt>
      <trkpt lat="42.32548548839986324310302734375" lon="1.95924983359873294830322265625">
        <ele>1783.800048828125</ele>
        <time>2020-08-10T07:54:36.000Z</time>
      </trkpt>
      <trkpt lat="42.32544542290270328521728515625" lon="1.95922468788921833038330078125">
        <ele>1784.199951171875</ele>
        <time>2020-08-10T07:54:39.000Z</time>
      </trkpt>
      <trkpt lat="42.3253821395337581634521484375" lon="1.95917154662311077117919921875">
        <ele>1784.5999755859375</ele>
        <time>2020-08-10T07:54:44.000Z</time>
      </trkpt>
      <trkpt lat="42.3253378830850124359130859375" lon="1.95914673618972301483154296875">
        <ele>1785.199951171875</ele>
        <time>2020-08-10T07:54:47.000Z</time>
      </trkpt>
      <trkpt lat="42.32525565661489963531494140625" lon="1.95908211171627044677734375">
        <ele>1785.800048828125</ele>
        <time>2020-08-10T07:54:53.000Z</time>
      </trkpt>
      <trkpt lat="42.32520100660622119903564453125" lon="1.9590269587934017181396484375">
        <ele>1785.800048828125</ele>
        <time>2020-08-10T07:54:58.000Z</time>
      </trkpt>
      <trkpt lat="42.32520134188234806060791015625" lon="1.9590103626251220703125">
        <ele>1785.800048828125</ele>
        <time>2020-08-10T07:54:59.000Z</time>
      </trkpt>
      <trkpt lat="42.3251682333648204803466796875" lon="1.95889695547521114349365234375">
        <ele>1785.5999755859375</ele>
        <time>2020-08-10T07:55:06.000Z</time>
      </trkpt>
      <trkpt lat="42.3251645453274250030517578125" lon="1.958887986838817596435546875">
        <ele>1786</ele>
        <time>2020-08-10T07:55:11.000Z</time>
      </trkpt>
      <trkpt lat="42.325160019099712371826171875" lon="1.95887960493564605712890625">
        <ele>1786</ele>
        <time>2020-08-10T07:55:18.000Z</time>
      </trkpt>
      <trkpt lat="42.32516295276582241058349609375" lon="1.958863846957683563232421875">
        <ele>1785.5999755859375</ele>
        <time>2020-08-10T07:55:25.000Z</time>
      </trkpt>
      <trkpt lat="42.32515566051006317138671875" lon="1.9588432274758815765380859375">
        <ele>1785.800048828125</ele>
        <time>2020-08-10T07:55:32.000Z</time>
      </trkpt>
      <trkpt lat="42.32513864524662494659423828125" lon="1.95882034488022327423095703125">
        <ele>1786</ele>
        <time>2020-08-10T07:55:39.000Z</time>
      </trkpt>
      <trkpt lat="42.3251290060579776763916015625" lon="1.9588033296167850494384765625">
        <ele>1786</ele>
        <time>2020-08-10T07:55:41.000Z</time>
      </trkpt>
      <trkpt lat="42.3251013457775115966796875" lon="1.95874189026653766632080078125">
        <ele>1786.5999755859375</ele>
        <time>2020-08-10T07:55:48.000Z</time>
      </trkpt>
      <trkpt lat="42.325091622769832611083984375" lon="1.9587138108909130096435546875">
        <ele>1787</ele>
        <time>2020-08-10T07:55:51.000Z</time>
      </trkpt>
      <trkpt lat="42.3250676505267620086669921875" lon="1.9586672075092792510986328125">
        <ele>1787.800048828125</ele>
        <time>2020-08-10T07:55:57.000Z</time>
      </trkpt>
      <trkpt lat="42.325057089328765869140625" lon="1.9586450792849063873291015625">
        <ele>1788.199951171875</ele>
        <time>2020-08-10T07:56:00.000Z</time>
      </trkpt>
      <trkpt lat="42.32503420673310756683349609375" lon="1.95859671570360660552978515625">
        <ele>1789</ele>
        <time>2020-08-10T07:56:07.000Z</time>
      </trkpt>
      <trkpt lat="42.32503185980021953582763671875" lon="1.95859051309525966644287109375">
        <ele>1789.199951171875</ele>
        <time>2020-08-10T07:56:08.000Z</time>
      </trkpt>
      <trkpt lat="42.32500554062426090240478515625" lon="1.9585528783500194549560546875">
        <ele>1790</ele>
        <time>2020-08-10T07:56:15.000Z</time>
      </trkpt>
      <trkpt lat="42.32499766163527965545654296875" lon="1.9585458375513553619384765625">
        <ele>1790.199951171875</ele>
        <time>2020-08-10T07:56:17.000Z</time>
      </trkpt>
      <trkpt lat="42.324987687170505523681640625" lon="1.95853569544851779937744140625">
        <ele>1790.4000244140625</ele>
        <time>2020-08-10T07:56:19.000Z</time>
      </trkpt>
      <trkpt lat="42.32495407573878765106201171875" lon="1.9584908522665500640869140625">
        <ele>1791.199951171875</ele>
        <time>2020-08-10T07:56:26.000Z</time>
      </trkpt>
      <trkpt lat="42.32492054812610149383544921875" lon="1.958454139530658721923828125">
        <ele>1791.800048828125</ele>
        <time>2020-08-10T07:56:33.000Z</time>
      </trkpt>
      <trkpt lat="42.32491719536483287811279296875" lon="1.9584506191313266754150390625">
        <ele>1792</ele>
        <time>2020-08-10T07:56:39.000Z</time>
      </trkpt>
      <trkpt lat="42.32490143738687038421630859375" lon="1.9584261439740657806396484375">
        <ele>1792</ele>
        <time>2020-08-10T07:56:44.000Z</time>
      </trkpt>
      <trkpt lat="42.3249109089374542236328125" lon="1.9584003277122974395751953125">
        <ele>1792</ele>
        <time>2020-08-10T08:01:35.000Z</time>
      </trkpt>
      <trkpt lat="42.3249104060232639312744140625" lon="1.95839856751263141632080078125">
        <ele>1792</ele>
        <time>2020-08-10T08:01:36.000Z</time>
      </trkpt>
      <trkpt lat="42.32488417066633701324462890625" lon="1.958400495350360870361328125">
        <ele>1792</ele>
        <time>2020-08-10T08:01:40.000Z</time>
      </trkpt>
      <trkpt lat="42.3248705081641674041748046875" lon="1.95839018560945987701416015625">
        <ele>1792</ele>
        <time>2020-08-10T08:01:41.000Z</time>
      </trkpt>
      <trkpt lat="42.3247338831424713134765625" lon="1.9583104737102985382080078125">
        <ele>1791.800048828125</ele>
        <time>2020-08-10T08:01:47.000Z</time>
      </trkpt>
      <trkpt lat="42.32456850819289684295654296875" lon="1.95831960998475551605224609375">
        <ele>1791.800048828125</ele>
        <time>2020-08-10T08:01:54.000Z</time>
      </trkpt>
      <trkpt lat="42.32439852319657802581787109375" lon="1.958394460380077362060546875">
        <ele>1792.5999755859375</ele>
        <time>2020-08-10T08:02:03.000Z</time>
      </trkpt>
      <trkpt lat="42.32432627119123935699462890625" lon="1.95844148285686969757080078125">
        <ele>1793.199951171875</ele>
        <time>2020-08-10T08:02:08.000Z</time>
      </trkpt>
      <trkpt lat="42.32428872026503086090087890625" lon="1.95847350172698497772216796875">
        <ele>1793</ele>
        <time>2020-08-10T08:02:11.000Z</time>
      </trkpt>
      <trkpt lat="42.32418126426637172698974609375" lon="1.9585716538131237030029296875">
        <ele>1793.4000244140625</ele>
        <time>2020-08-10T08:02:20.000Z</time>
      </trkpt>
      <trkpt lat="42.32408772222697734832763671875" lon="1.95864214561879634857177734375">
        <ele>1794.199951171875</ele>
        <time>2020-08-10T08:02:28.000Z</time>
      </trkpt>
      <trkpt lat="42.32406307943165302276611328125" lon="1.95865740068256855010986328125">
        <ele>1794.800048828125</ele>
        <time>2020-08-10T08:02:30.000Z</time>
      </trkpt>
      <trkpt lat="42.3240138776600360870361328125" lon="1.95868858136236667633056640625">
        <ele>1795.199951171875</ele>
        <time>2020-08-10T08:02:34.000Z</time>
      </trkpt>
      <trkpt lat="42.32395897619426250457763671875" lon="1.95869964547455310821533203125">
        <ele>1796.199951171875</ele>
        <time>2020-08-10T08:02:38.000Z</time>
      </trkpt>
      <trkpt lat="42.32394506223499774932861328125" lon="1.9587034173309803009033203125">
        <ele>1796.4000244140625</ele>
        <time>2020-08-10T08:02:39.000Z</time>
      </trkpt>
      <trkpt lat="42.323871888220310211181640625" lon="1.9587345980107784271240234375">
        <ele>1797.4000244140625</ele>
        <time>2020-08-10T08:02:45.000Z</time>
      </trkpt>
      <trkpt lat="42.32384615577757358551025390625" lon="1.958734430372714996337890625">
        <ele>1797.5999755859375</ele>
        <time>2020-08-10T08:02:47.000Z</time>
      </trkpt>
      <trkpt lat="42.32375546358525753021240234375" lon="1.9587117992341518402099609375">
        <ele>1798.5999755859375</ele>
        <time>2020-08-10T08:02:54.000Z</time>
      </trkpt>
      <trkpt lat="42.3237441480159759521484375" lon="1.95870182476937770843505859375">
        <ele>1798.5999755859375</ele>
        <time>2020-08-10T08:02:55.000Z</time>
      </trkpt>
      <trkpt lat="42.3237040825188159942626953125" lon="1.95865404792129993438720703125">
        <ele>1799.5999755859375</ele>
        <time>2020-08-10T08:02:59.000Z</time>
      </trkpt>
      <trkpt lat="42.32365823350846767425537109375" lon="1.958631835877895355224609375">
        <ele>1800.800048828125</ele>
        <time>2020-08-10T08:03:03.000Z</time>
      </trkpt>
      <trkpt lat="42.3235907591879367828369140625" lon="1.9585458375513553619384765625">
        <ele>1802</ele>
        <time>2020-08-10T08:03:11.000Z</time>
      </trkpt>
      <trkpt lat="42.3235827125608921051025390625" lon="1.95854608900845050811767578125">
        <ele>1802.4000244140625</ele>
        <time>2020-08-10T08:03:18.000Z</time>
      </trkpt>
      <trkpt lat="42.32355681248009204864501953125" lon="1.958527229726314544677734375">
        <ele>1803</ele>
        <time>2020-08-10T08:03:22.000Z</time>
      </trkpt>
      <trkpt lat="42.3235397972166538238525390625" lon="1.95851960219442844390869140625">
        <ele>1802.800048828125</ele>
        <time>2020-08-10T08:03:26.000Z</time>
      </trkpt>
      <trkpt lat="42.323500402271747589111328125" lon="1.95849361829459667205810546875">
        <ele>1802.800048828125</ele>
        <time>2020-08-10T08:03:33.000Z</time>
      </trkpt>
      <trkpt lat="42.32350015081465244293212890625" lon="1.958493702113628387451171875">
        <ele>1803</ele>
        <time>2020-08-10T08:03:41.000Z</time>
      </trkpt>
      <trkpt lat="42.32349210418760776519775390625" lon="1.958441399037837982177734375">
        <ele>1802.5999755859375</ele>
        <time>2020-08-10T08:03:49.000Z</time>
      </trkpt>
      <trkpt lat="42.32347684912383556365966796875" lon="1.95831055752933025360107421875">
        <ele>1803.4000244140625</ele>
        <time>2020-08-10T08:03:57.000Z</time>
      </trkpt>
      <trkpt lat="42.3234838061034679412841796875" lon="1.9582176022231578826904296875">
        <ele>1804</ele>
        <time>2020-08-10T08:04:02.000Z</time>
      </trkpt>
      <trkpt lat="42.3235045932233333587646484375" lon="1.95809648372232913970947265625">
        <ele>1804.5999755859375</ele>
        <time>2020-08-10T08:04:08.000Z</time>
      </trkpt>
      <trkpt lat="42.32351481914520263671875" lon="1.95803982205688953399658203125">
        <ele>1805</ele>
        <time>2020-08-10T08:04:11.000Z</time>
      </trkpt>
      <trkpt lat="42.3235349357128143310546875" lon="1.9579413346946239471435546875">
        <ele>1806</ele>
        <time>2020-08-10T08:04:16.000Z</time>
      </trkpt>
      <trkpt lat="42.3235394619405269622802734375" lon="1.95792264305055141448974609375">
        <ele>1806.199951171875</ele>
        <time>2020-08-10T08:04:17.000Z</time>
      </trkpt>
      <trkpt lat="42.32357986271381378173828125" lon="1.95774310268461704254150390625">
        <ele>1807.4000244140625</ele>
        <time>2020-08-10T08:04:26.000Z</time>
      </trkpt>
      <trkpt lat="42.32360928319394588470458984375" lon="1.95756490342319011688232421875">
        <ele>1807.800048828125</ele>
        <time>2020-08-10T08:04:35.000Z</time>
      </trkpt>
      <trkpt lat="42.3236195929348468780517578125" lon="1.95746566168963909149169921875">
        <ele>1808.4000244140625</ele>
        <time>2020-08-10T08:04:40.000Z</time>
      </trkpt>
      <trkpt lat="42.323626466095447540283203125" lon="1.95739693008363246917724609375">
        <ele>1808.800048828125</ele>
        <time>2020-08-10T08:04:44.000Z</time>
      </trkpt>
      <trkpt lat="42.32363484799861907958984375" lon="1.957325600087642669677734375">
        <ele>1809.4000244140625</ele>
        <time>2020-08-10T08:04:48.000Z</time>
      </trkpt>
      <trkpt lat="42.3236356861889362335205078125" lon="1.95730841718614101409912109375">
        <ele>1809.5999755859375</ele>
        <time>2020-08-10T08:04:49.000Z</time>
      </trkpt>
      <trkpt lat="42.32363593764603137969970703125" lon="1.95728913880884647369384765625">
        <ele>1809.800048828125</ele>
        <time>2020-08-10T08:04:50.000Z</time>
      </trkpt>
      <trkpt lat="42.32364867813885211944580078125" lon="1.95718042552471160888671875">
        <ele>1810.4000244140625</ele>
        <time>2020-08-10T08:04:56.000Z</time>
      </trkpt>
      <trkpt lat="42.32365102507174015045166015625" lon="1.95716299116611480712890625">
        <ele>1810.5999755859375</ele>
        <time>2020-08-10T08:04:57.000Z</time>
      </trkpt>
      <trkpt lat="42.3236504383385181427001953125" lon="1.95704405196011066436767578125">
        <ele>1810.800048828125</ele>
        <time>2020-08-10T08:05:03.000Z</time>
      </trkpt>
      <trkpt lat="42.32364247553050518035888671875" lon="1.95696853101253509521484375">
        <ele>1811.4000244140625</ele>
        <time>2020-08-10T08:05:07.000Z</time>
      </trkpt>
      <trkpt lat="42.3236454091966152191162109375" lon="1.956913210451602935791015625">
        <ele>1812</ele>
        <time>2020-08-10T08:05:10.000Z</time>
      </trkpt>
      <trkpt lat="42.3236457444727420806884765625" lon="1.9568047486245632171630859375">
        <ele>1812.4000244140625</ele>
        <time>2020-08-10T08:05:16.000Z</time>
      </trkpt>
      <trkpt lat="42.32365521602332592010498046875" lon="1.95667273364961147308349609375">
        <ele>1813.199951171875</ele>
        <time>2020-08-10T08:05:23.000Z</time>
      </trkpt>
      <trkpt lat="42.32365337200462818145751953125" lon="1.95658891461789608001708984375">
        <ele>1813.4000244140625</ele>
        <time>2020-08-10T08:05:27.000Z</time>
      </trkpt>
      <trkpt lat="42.3236467503011226654052734375" lon="1.95653175003826618194580078125">
        <ele>1813.800048828125</ele>
        <time>2020-08-10T08:05:30.000Z</time>
      </trkpt>
      <trkpt lat="42.32362948358058929443359375" lon="1.95645145140588283538818359375">
        <ele>1814.5999755859375</ele>
        <time>2020-08-10T08:05:34.000Z</time>
      </trkpt>
      <trkpt lat="42.32362269423902034759521484375" lon="1.95641507394611835479736328125">
        <ele>1814.800048828125</ele>
        <time>2020-08-10T08:05:36.000Z</time>
      </trkpt>
      <trkpt lat="42.32361565344035625457763671875" lon="1.95633930154144763946533203125">
        <ele>1815.5999755859375</ele>
        <time>2020-08-10T08:05:41.000Z</time>
      </trkpt>
      <trkpt lat="42.323617078363895416259765625" lon="1.95632421411573886871337890625">
        <ele>1815.800048828125</ele>
        <time>2020-08-10T08:05:42.000Z</time>
      </trkpt>
      <trkpt lat="42.32360995374619960784912109375" lon="1.95622581057250499725341796875">
        <ele>1816</ele>
        <time>2020-08-10T08:05:48.000Z</time>
      </trkpt>
      <trkpt lat="42.323600985109806060791015625" lon="1.95615707896649837493896484375">
        <ele>1816.800048828125</ele>
        <time>2020-08-10T08:05:52.000Z</time>
      </trkpt>
      <trkpt lat="42.32359318993985652923583984375" lon="1.95610678754746913909912109375">
        <ele>1817.199951171875</ele>
        <time>2020-08-10T08:05:55.000Z</time>
      </trkpt>
      <trkpt lat="42.3235790245234966278076171875" lon="1.95599514059722423553466796875">
        <ele>1817.800048828125</ele>
        <time>2020-08-10T08:06:00.000Z</time>
      </trkpt>
      <trkpt lat="42.323574163019657135009765625" lon="1.955977790057659149169921875">
        <ele>1817.800048828125</ele>
        <time>2020-08-10T08:06:01.000Z</time>
      </trkpt>
      <trkpt lat="42.3235619254410266876220703125" lon="1.95590830408036708831787109375">
        <ele>1819</ele>
        <time>2020-08-10T08:06:05.000Z</time>
      </trkpt>
      <trkpt lat="42.323538623750209808349609375" lon="1.95583672262728214263916015625">
        <ele>1819.4000244140625</ele>
        <time>2020-08-10T08:06:09.000Z</time>
      </trkpt>
      <trkpt lat="42.32352613471448421478271484375" lon="1.95577360689640045166015625">
        <ele>1820</ele>
        <time>2020-08-10T08:06:12.000Z</time>
      </trkpt>
      <trkpt lat="42.32351473532617092132568359375" lon="1.9556919671595096588134765625">
        <ele>1820.5999755859375</ele>
        <time>2020-08-10T08:06:16.000Z</time>
      </trkpt>
      <trkpt lat="42.32350182719528675079345703125" lon="1.9556393288075923919677734375">
        <ele>1821</ele>
        <time>2020-08-10T08:06:19.000Z</time>
      </trkpt>
      <trkpt lat="42.32349629513919353485107421875" lon="1.95556841790676116943359375">
        <ele>1821.800048828125</ele>
        <time>2020-08-10T08:06:23.000Z</time>
      </trkpt>
      <trkpt lat="42.32349344529211521148681640625" lon="1.955533884465694427490234375">
        <ele>1822</ele>
        <time>2020-08-10T08:06:25.000Z</time>
      </trkpt>
      <trkpt lat="42.3234879970550537109375" lon="1.95541025139391422271728515625">
        <ele>1822.800048828125</ele>
        <time>2020-08-10T08:06:32.000Z</time>
      </trkpt>
      <trkpt lat="42.32348606921732425689697265625" lon="1.955376304686069488525390625">
        <ele>1823.4000244140625</ele>
        <time>2020-08-10T08:06:34.000Z</time>
      </trkpt>
      <trkpt lat="42.323485650122165679931640625" lon="1.95525283925235271453857421875">
        <ele>1824.4000244140625</ele>
        <time>2020-08-10T08:06:41.000Z</time>
      </trkpt>
      <trkpt lat="42.3234844766557216644287109375" lon="1.9551659189164638519287109375">
        <ele>1825.4000244140625</ele>
        <time>2020-08-10T08:06:46.000Z</time>
      </trkpt>
      <trkpt lat="42.32348221354186534881591796875" lon="1.955112107098102569580078125">
        <ele>1825.800048828125</ele>
        <time>2020-08-10T08:06:49.000Z</time>
      </trkpt>
      <trkpt lat="42.32348321937024593353271484375" lon="1.955059133470058441162109375">
        <ele>1826.199951171875</ele>
        <time>2020-08-10T08:06:52.000Z</time>
      </trkpt>
      <trkpt lat="42.32349311001598834991455078125" lon="1.95496533997356891632080078125">
        <ele>1826.4000244140625</ele>
        <time>2020-08-10T08:06:57.000Z</time>
      </trkpt>
      <trkpt lat="42.32348908670246601104736328125" lon="1.95489241741597652435302734375">
        <ele>1827.4000244140625</ele>
        <time>2020-08-10T08:07:01.000Z</time>
      </trkpt>
      <trkpt lat="42.32348330318927764892578125" lon="1.95487531833350658416748046875">
        <ele>1827.5999755859375</ele>
        <time>2020-08-10T08:07:02.000Z</time>
      </trkpt>
      <trkpt lat="42.323474586009979248046875" lon="1.95476836524903774261474609375">
        <ele>1828</ele>
        <time>2020-08-10T08:07:08.000Z</time>
      </trkpt>
      <trkpt lat="42.323466204106807708740234375" lon="1.95467482320964336395263671875">
        <ele>1828.5999755859375</ele>
        <time>2020-08-10T08:07:13.000Z</time>
      </trkpt>
      <trkpt lat="42.32345757074654102325439453125" lon="1.95461866445839405059814453125">
        <ele>1829</ele>
        <time>2020-08-10T08:07:16.000Z</time>
      </trkpt>
      <trkpt lat="42.32344709336757659912109375" lon="1.954582035541534423828125">
        <ele>1829.4000244140625</ele>
        <time>2020-08-10T08:07:18.000Z</time>
      </trkpt>
      <trkpt lat="42.32342991046607494354248046875" lon="1.95447809994220733642578125">
        <ele>1830.199951171875</ele>
        <time>2020-08-10T08:07:24.000Z</time>
      </trkpt>
      <trkpt lat="42.32342429459095001220703125" lon="1.95444080047309398651123046875">
        <ele>1830.5999755859375</ele>
        <time>2020-08-10T08:07:26.000Z</time>
      </trkpt>
      <trkpt lat="42.3234222829341888427734375" lon="1.9543277285993099212646484375">
        <ele>1831.5999755859375</ele>
        <time>2020-08-10T08:07:32.000Z</time>
      </trkpt>
      <trkpt lat="42.323429323732852935791015625" lon="1.95427081547677516937255859375">
        <ele>1831.800048828125</ele>
        <time>2020-08-10T08:07:35.000Z</time>
      </trkpt>
      <trkpt lat="42.32343510724604129791259765625" lon="1.95419571362435817718505859375">
        <ele>1832.199951171875</ele>
        <time>2020-08-10T08:07:39.000Z</time>
      </trkpt>
      <trkpt lat="42.3234412260353565216064453125" lon="1.9541584141552448272705078125">
        <ele>1832.4000244140625</ele>
        <time>2020-08-10T08:07:41.000Z</time>
      </trkpt>
      <trkpt lat="42.3234455846250057220458984375" lon="1.95414022542536258697509765625">
        <ele>1832.5999755859375</ele>
        <time>2020-08-10T08:07:42.000Z</time>
      </trkpt>
      <trkpt lat="42.3234546370804309844970703125" lon="1.95407174527645111083984375">
        <ele>1833.199951171875</ele>
        <time>2020-08-10T08:07:46.000Z</time>
      </trkpt>
      <trkpt lat="42.323465533554553985595703125" lon="1.954002343118190765380859375">
        <ele>1833.800048828125</ele>
        <time>2020-08-10T08:07:50.000Z</time>
      </trkpt>
      <trkpt lat="42.32346377335488796234130859375" lon="1.953935958445072174072265625">
        <ele>1834</ele>
        <time>2020-08-10T08:07:54.000Z</time>
      </trkpt>
      <trkpt lat="42.32345991767942905426025390625" lon="1.95392430759966373443603515625">
        <ele>1834.199951171875</ele>
        <time>2020-08-10T08:07:59.000Z</time>
      </trkpt>
      <trkpt lat="42.32345606200397014617919921875" lon="1.95392581634223461151123046875">
        <ele>1834.4000244140625</ele>
        <time>2020-08-10T08:08:22.000Z</time>
      </trkpt>
      <trkpt lat="42.323463521897792816162109375" lon="1.953895390033721923828125">
        <ele>1834.199951171875</ele>
        <time>2020-08-10T08:08:41.000Z</time>
      </trkpt>
      <trkpt lat="42.32346612028777599334716796875" lon="1.953857839107513427734375">
        <ele>1834.5999755859375</ele>
        <time>2020-08-10T08:08:43.000Z</time>
      </trkpt>
      <trkpt lat="42.3234864883124828338623046875" lon="1.953750215470790863037109375">
        <ele>1834.800048828125</ele>
        <time>2020-08-10T08:08:48.000Z</time>
      </trkpt>
      <trkpt lat="42.3235183395445346832275390625" lon="1.953648291528224945068359375">
        <ele>1835.5999755859375</ele>
        <time>2020-08-10T08:08:53.000Z</time>
      </trkpt>
      <trkpt lat="42.32353652827441692352294921875" lon="1.95360772311687469482421875">
        <ele>1836.199951171875</ele>
        <time>2020-08-10T08:08:55.000Z</time>
      </trkpt>
      <trkpt lat="42.32360743917524814605712890625" lon="1.953494735062122344970703125">
        <ele>1836.800048828125</ele>
        <time>2020-08-10T08:09:01.000Z</time>
      </trkpt>
      <trkpt lat="42.3236601613461971282958984375" lon="1.95344184525310993194580078125">
        <ele>1837</ele>
        <time>2020-08-10T08:09:04.000Z</time>
      </trkpt>
      <trkpt lat="42.32380961067974567413330078125" lon="1.95326984860002994537353515625">
        <ele>1836.800048828125</ele>
        <time>2020-08-10T08:09:13.000Z</time>
      </trkpt>
      <trkpt lat="42.32390566729009151458740234375" lon="1.95316247642040252685546875">
        <ele>1837.800048828125</ele>
        <time>2020-08-10T08:09:19.000Z</time>
      </trkpt>
      <trkpt lat="42.32398931868374347686767578125" lon="1.95305812172591686248779296875">
        <ele>1838.800048828125</ele>
        <time>2020-08-10T08:09:25.000Z</time>
      </trkpt>
      <trkpt lat="42.32402737252414226531982421875" lon="1.9530057348310947418212890625">
        <ele>1838.800048828125</ele>
        <time>2020-08-10T08:09:28.000Z</time>
      </trkpt>
      <trkpt lat="42.32410297729074954986572265625" lon="1.9528937526047229766845703125">
        <ele>1839.800048828125</ele>
        <time>2020-08-10T08:09:34.000Z</time>
      </trkpt>
      <trkpt lat="42.3241137899458408355712890625" lon="1.9528769887983798980712890625">
        <ele>1839.800048828125</ele>
        <time>2020-08-10T08:09:35.000Z</time>
      </trkpt>
      <trkpt lat="42.324233315885066986083984375" lon="1.952682025730609893798828125">
        <ele>1840.4000244140625</ele>
        <time>2020-08-10T08:09:45.000Z</time>
      </trkpt>
      <trkpt lat="42.32424245215952396392822265625" lon="1.95266760885715484619140625">
        <ele>1840.5999755859375</ele>
        <time>2020-08-10T08:09:46.000Z</time>
      </trkpt>
      <trkpt lat="42.32429911382496356964111328125" lon="1.95256761275231838226318359375">
        <ele>1841.800048828125</ele>
        <time>2020-08-10T08:09:52.000Z</time>
      </trkpt>
      <trkpt lat="42.3243075795471668243408203125" lon="1.952551268041133880615234375">
        <ele>1841.800048828125</ele>
        <time>2020-08-10T08:09:53.000Z</time>
      </trkpt>
      <trkpt lat="42.3243940807878971099853515625" lon="1.9524304009974002838134765625">
        <ele>1842.800048828125</ele>
        <time>2020-08-10T08:10:01.000Z</time>
      </trkpt>
      <trkpt lat="42.32440866529941558837890625" lon="1.9524136371910572052001953125">
        <ele>1842.800048828125</ele>
        <time>2020-08-10T08:10:02.000Z</time>
      </trkpt>
      <trkpt lat="42.32444529421627521514892578125" lon="1.952346749603748321533203125">
        <ele>1843</ele>
        <time>2020-08-10T08:10:08.000Z</time>
      </trkpt>
      <trkpt lat="42.3244691826403141021728515625" lon="1.95231079123914241790771484375">
        <ele>1843.4000244140625</ele>
        <time>2020-08-10T08:10:23.000Z</time>
      </trkpt>
      <trkpt lat="42.32447446323931217193603515625" lon="1.95229553617537021636962890625">
        <ele>1843.5999755859375</ele>
        <time>2020-08-10T08:10:29.000Z</time>
      </trkpt>
      <trkpt lat="42.3244768939912319183349609375" lon="1.95229654200375080108642578125">
        <ele>1843.5999755859375</ele>
        <time>2020-08-10T08:10:48.000Z</time>
      </trkpt>
      <trkpt lat="42.32447647489607334136962890625" lon="1.95229612290859222412109375">
        <ele>1843.5999755859375</ele>
        <time>2020-08-10T08:11:00.000Z</time>
      </trkpt>
      <trkpt lat="42.324476726353168487548828125" lon="1.9522966258227825164794921875">
        <ele>1843.4000244140625</ele>
        <time>2020-08-10T08:11:15.000Z</time>
      </trkpt>
      <trkpt lat="42.324476726353168487548828125" lon="1.952296458184719085693359375">
        <ele>1843.4000244140625</ele>
        <time>2020-08-10T08:11:41.000Z</time>
      </trkpt>
      <trkpt lat="42.3244768939912319183349609375" lon="1.95229654200375080108642578125">
        <ele>1843.199951171875</ele>
        <time>2020-08-10T08:12:14.000Z</time>
      </trkpt>
      <trkpt lat="42.32447798363864421844482421875" lon="1.95228832773864269256591796875">
        <ele>1843.199951171875</ele>
        <time>2020-08-10T08:12:32.000Z</time>
      </trkpt>
      <trkpt lat="42.32449810020625591278076171875" lon="1.95224650204181671142578125">
        <ele>1843.4000244140625</ele>
        <time>2020-08-10T08:12:40.000Z</time>
      </trkpt>
      <trkpt lat="42.324509583413600921630859375" lon="1.95223443210124969482421875">
        <ele>1843.4000244140625</ele>
        <time>2020-08-10T08:12:49.000Z</time>
      </trkpt>
      <trkpt lat="42.32450899668037891387939453125" lon="1.95223418064415454864501953125">
        <ele>1843.199951171875</ele>
        <time>2020-08-10T08:13:21.000Z</time>
      </trkpt>
      <trkpt lat="42.32451100833714008331298828125" lon="1.95223351009190082550048828125">
        <ele>1843.4000244140625</ele>
        <time>2020-08-10T08:13:55.000Z</time>
      </trkpt>
      <trkpt lat="42.3245131038129329681396484375" lon="1.95222529582679271697998046875">
        <ele>1843.4000244140625</ele>
        <time>2020-08-10T08:14:03.000Z</time>
      </trkpt>
      <trkpt lat="42.32452425174415111541748046875" lon="1.9521997310221195220947265625">
        <ele>1843.199951171875</ele>
        <time>2020-08-10T08:14:05.000Z</time>
      </trkpt>
      <trkpt lat="42.32456423342227935791015625" lon="1.952087581157684326171875">
        <ele>1843.5999755859375</ele>
        <time>2020-08-10T08:14:12.000Z</time>
      </trkpt>
      <trkpt lat="42.324588708579540252685546875" lon="1.9519449211657047271728515625">
        <ele>1844</ele>
        <time>2020-08-10T08:14:19.000Z</time>
      </trkpt>
      <trkpt lat="42.32459465973079204559326171875" lon="1.951744258403778076171875">
        <ele>1844</ele>
        <time>2020-08-10T08:14:28.000Z</time>
      </trkpt>
      <trkpt lat="42.32459365390241146087646484375" lon="1.95170058868825435638427734375">
        <ele>1844</ele>
        <time>2020-08-10T08:14:30.000Z</time>
      </trkpt>
      <trkpt lat="42.32460019178688526153564453125" lon="1.95153563283383846282958984375">
        <ele>1844.199951171875</ele>
        <time>2020-08-10T08:14:37.000Z</time>
      </trkpt>
      <trkpt lat="42.32463254593312740325927734375" lon="1.9513618759810924530029296875">
        <ele>1844.800048828125</ele>
        <time>2020-08-10T08:14:44.000Z</time>
      </trkpt>
      <trkpt lat="42.32465676963329315185546875" lon="1.951243691146373748779296875">
        <ele>1845</ele>
        <time>2020-08-10T08:14:49.000Z</time>
      </trkpt>
      <trkpt lat="42.32467914931476116180419921875" lon="1.95117236115038394927978515625">
        <ele>1845</ele>
        <time>2020-08-10T08:14:52.000Z</time>
      </trkpt>
      <trkpt lat="42.3247729428112506866455078125" lon="1.950954683125019073486328125">
        <ele>1845.5999755859375</ele>
        <time>2020-08-10T08:15:01.000Z</time>
      </trkpt>
      <trkpt lat="42.32487780041992664337158203125" lon="1.95074052549898624420166015625">
        <ele>1845.5999755859375</ele>
        <time>2020-08-10T08:15:10.000Z</time>
      </trkpt>
      <trkpt lat="42.3249082267284393310546875" lon="1.9506396912038326263427734375">
        <ele>1846.199951171875</ele>
        <time>2020-08-10T08:15:14.000Z</time>
      </trkpt>
      <trkpt lat="42.32493479736149311065673828125" lon="1.9505448080599308013916015625">
        <ele>1846.5999755859375</ele>
        <time>2020-08-10T08:15:18.000Z</time>
      </trkpt>
      <trkpt lat="42.32496413402259349822998046875" lon="1.95038278587162494659423828125">
        <ele>1847</ele>
        <time>2020-08-10T08:15:25.000Z</time>
      </trkpt>
      <trkpt lat="42.324966900050640106201171875" lon="1.9503392837941646575927734375">
        <ele>1847.199951171875</ele>
        <time>2020-08-10T08:15:27.000Z</time>
      </trkpt>
      <trkpt lat="42.32497285120189189910888671875" lon="1.95018681697547435760498046875">
        <ele>1848.199951171875</ele>
        <time>2020-08-10T08:15:34.000Z</time>
      </trkpt>
      <trkpt lat="42.3249757848680019378662109375" lon="1.95003694854676723480224609375">
        <ele>1849.199951171875</ele>
        <time>2020-08-10T08:15:41.000Z</time>
      </trkpt>
      <trkpt lat="42.3249833285808563232421875" lon="1.949861682951450347900390625">
        <ele>1850.4000244140625</ele>
        <time>2020-08-10T08:15:49.000Z</time>
      </trkpt>
      <trkpt lat="42.3250049538910388946533203125" lon="1.94969530217349529266357421875">
        <ele>1851.4000244140625</ele>
        <time>2020-08-10T08:15:57.000Z</time>
      </trkpt>
      <trkpt lat="42.32500839047133922576904296875" lon="1.94963344372808933258056640625">
        <ele>1851.800048828125</ele>
        <time>2020-08-10T08:16:00.000Z</time>
      </trkpt>
      <trkpt lat="42.32501526363193988800048828125" lon="1.9495299272239208221435546875">
        <ele>1852.5999755859375</ele>
        <time>2020-08-10T08:16:05.000Z</time>
      </trkpt>
      <trkpt lat="42.325023896992206573486328125" lon="1.9494521431624889373779296875">
        <ele>1853</ele>
        <time>2020-08-10T08:16:09.000Z</time>
      </trkpt>
      <trkpt lat="42.32502699829638004302978515625" lon="1.94935231469571590423583984375">
        <ele>1853.800048828125</ele>
        <time>2020-08-10T08:16:14.000Z</time>
      </trkpt>
      <trkpt lat="42.32502498663961887359619140625" lon="1.94930814206600189208984375">
        <ele>1854</ele>
        <time>2020-08-10T08:16:16.000Z</time>
      </trkpt>
      <trkpt lat="42.32502599246799945831298828125" lon="1.94924301467835903167724609375">
        <ele>1854.5999755859375</ele>
        <time>2020-08-10T08:16:19.000Z</time>
      </trkpt>
      <trkpt lat="42.32502699829638004302978515625" lon="1.94913648068904876708984375">
        <ele>1855.4000244140625</ele>
        <time>2020-08-10T08:16:24.000Z</time>
      </trkpt>
      <trkpt lat="42.32503018341958522796630859375" lon="1.94911695085465908050537109375">
        <ele>1855.5999755859375</ele>
        <time>2020-08-10T08:16:25.000Z</time>
      </trkpt>
      <trkpt lat="42.325058765709400177001953125" lon="1.94894193671643733978271484375">
        <ele>1856.199951171875</ele>
        <time>2020-08-10T08:16:33.000Z</time>
      </trkpt>
      <trkpt lat="42.32507653534412384033203125" lon="1.9488556869328022003173828125">
        <ele>1856.5999755859375</ele>
        <time>2020-08-10T08:16:37.000Z</time>
      </trkpt>
      <trkpt lat="42.3251035250723361968994140625" lon="1.948751918971538543701171875">
        <ele>1857.199951171875</ele>
        <time>2020-08-10T08:16:42.000Z</time>
      </trkpt>
      <trkpt lat="42.32513017952442169189453125" lon="1.94865477271378040313720703125">
        <ele>1857.5999755859375</ele>
        <time>2020-08-10T08:16:47.000Z</time>
      </trkpt>
      <trkpt lat="42.32513411901891231536865234375" lon="1.94863314740359783172607421875">
        <ele>1857.800048828125</ele>
        <time>2020-08-10T08:16:48.000Z</time>
      </trkpt>
      <trkpt lat="42.325159013271331787109375" lon="1.94851420819759368896484375">
        <ele>1858.5999755859375</ele>
        <time>2020-08-10T08:16:54.000Z</time>
      </trkpt>
      <trkpt lat="42.32517242431640625" lon="1.9484550319612026214599609375">
        <ele>1858.800048828125</ele>
        <time>2020-08-10T08:16:57.000Z</time>
      </trkpt>
      <trkpt lat="42.325196228921413421630859375" lon="1.94833994843065738677978515625">
        <ele>1859.5999755859375</ele>
        <time>2020-08-10T08:17:03.000Z</time>
      </trkpt>
      <trkpt lat="42.32520637102425098419189453125" lon="1.9482813589274883270263671875">
        <ele>1859.5999755859375</ele>
        <time>2020-08-10T08:17:06.000Z</time>
      </trkpt>
      <trkpt lat="42.3252383060753345489501953125" lon="1.94815001450479030609130859375">
        <ele>1860.5999755859375</ele>
        <time>2020-08-10T08:17:13.000Z</time>
      </trkpt>
      <trkpt lat="42.3252408206462860107421875" lon="1.94813056848943233489990234375">
        <ele>1860.800048828125</ele>
        <time>2020-08-10T08:17:14.000Z</time>
      </trkpt>
      <trkpt lat="42.32527694664895534515380859375" lon="1.9479722343385219573974609375">
        <ele>1861.800048828125</ele>
        <time>2020-08-10T08:17:22.000Z</time>
      </trkpt>
      <trkpt lat="42.3253186047077178955078125" lon="1.9478398002684116363525390625">
        <ele>1862.4000244140625</ele>
        <time>2020-08-10T08:17:29.000Z</time>
      </trkpt>
      <trkpt lat="42.32534266076982021331787109375" lon="1.9477522931993007659912109375">
        <ele>1862.800048828125</ele>
        <time>2020-08-10T08:17:33.000Z</time>
      </trkpt>
      <trkpt lat="42.3253486119210720062255859375" lon="1.94770879112184047698974609375">
        <ele>1863.199951171875</ele>
        <time>2020-08-10T08:17:35.000Z</time>
      </trkpt>
      <trkpt lat="42.32535523362457752227783203125" lon="1.9476222060620784759521484375">
        <ele>1864</ele>
        <time>2020-08-10T08:17:40.000Z</time>
      </trkpt>
      <trkpt lat="42.32535439543426036834716796875" lon="1.9475880078971385955810546875">
        <ele>1864.199951171875</ele>
        <time>2020-08-10T08:17:42.000Z</time>
      </trkpt>
      <trkpt lat="42.3253318481147289276123046875" lon="1.94745741784572601318359375">
        <ele>1864.800048828125</ele>
        <time>2020-08-10T08:17:49.000Z</time>
      </trkpt>
      <trkpt lat="42.3253261484205722808837890625" lon="1.9474347867071628570556640625">
        <ele>1865</ele>
        <time>2020-08-10T08:17:50.000Z</time>
      </trkpt>
      <trkpt lat="42.32529873959720134735107421875" lon="1.9472931325435638427734375">
        <ele>1866.199951171875</ele>
        <time>2020-08-10T08:17:56.000Z</time>
      </trkpt>
      <trkpt lat="42.32529245316982269287109375" lon="1.94727024994790554046630859375">
        <ele>1866.4000244140625</ele>
        <time>2020-08-10T08:17:57.000Z</time>
      </trkpt>
      <trkpt lat="42.3252651281654834747314453125" lon="1.94714887998998165130615234375">
        <ele>1867.199951171875</ele>
        <time>2020-08-10T08:18:03.000Z</time>
      </trkpt>
      <trkpt lat="42.32526051811873912811279296875" lon="1.9471099041402339935302734375">
        <ele>1867.4000244140625</ele>
        <time>2020-08-10T08:18:05.000Z</time>
      </trkpt>
      <trkpt lat="42.32525683008134365081787109375" lon="1.94701661355793476104736328125">
        <ele>1868.199951171875</ele>
        <time>2020-08-10T08:18:10.000Z</time>
      </trkpt>
      <trkpt lat="42.3252517171204090118408203125" lon="1.94697051309049129486083984375">
        <ele>1868.4000244140625</ele>
        <time>2020-08-10T08:18:13.000Z</time>
      </trkpt>
      <trkpt lat="42.32524819672107696533203125" lon="1.9469637237489223480224609375">
        <ele>1868.800048828125</ele>
        <time>2020-08-10T08:18:19.000Z</time>
      </trkpt>
      <trkpt lat="42.32524425722658634185791015625" lon="1.94693011231720447540283203125">
        <ele>1868.800048828125</ele>
        <time>2020-08-10T08:18:25.000Z</time>
      </trkpt>
      <trkpt lat="42.32524040155112743377685546875" lon="1.94683824665844440460205078125">
        <ele>1869.199951171875</ele>
        <time>2020-08-10T08:18:30.000Z</time>
      </trkpt>
      <trkpt lat="42.325242497026920318603515625" lon="1.946728862822055816650390625">
        <ele>1869.800048828125</ele>
        <time>2020-08-10T08:18:36.000Z</time>
      </trkpt>
      <trkpt lat="42.325244508683681488037109375" lon="1.94671084173023700714111328125">
        <ele>1870.199951171875</ele>
        <time>2020-08-10T08:18:37.000Z</time>
      </trkpt>
      <trkpt lat="42.32526537962257862091064453125" lon="1.94658033549785614013671875">
        <ele>1871</ele>
        <time>2020-08-10T08:18:44.000Z</time>
      </trkpt>
      <trkpt lat="42.32527208514511585235595703125" lon="1.946541778743267059326171875">
        <ele>1871.199951171875</ele>
        <time>2020-08-10T08:18:46.000Z</time>
      </trkpt>
      <trkpt lat="42.3252966441214084625244140625" lon="1.94644882343709468841552734375">
        <ele>1872.4000244140625</ele>
        <time>2020-08-10T08:18:51.000Z</time>
      </trkpt>
      <trkpt lat="42.32530376873910427093505859375" lon="1.94641269743442535400390625">
        <ele>1873</ele>
        <time>2020-08-10T08:18:53.000Z</time>
      </trkpt>
      <trkpt lat="42.32531684450805187225341796875" lon="1.946335248649120330810546875">
        <ele>1873.5999755859375</ele>
        <time>2020-08-10T08:18:57.000Z</time>
      </trkpt>
      <trkpt lat="42.3253352008759975433349609375" lon="1.94621697999536991119384765625">
        <ele>1874.5999755859375</ele>
        <time>2020-08-10T08:19:03.000Z</time>
      </trkpt>
      <trkpt lat="42.32534634880721569061279296875" lon="1.94611673243343830108642578125">
        <ele>1875.5999755859375</ele>
        <time>2020-08-10T08:19:08.000Z</time>
      </trkpt>
      <trkpt lat="42.3253690637648105621337890625" lon="1.9459994696080684661865234375">
        <ele>1877</ele>
        <time>2020-08-10T08:19:14.000Z</time>
      </trkpt>
      <trkpt lat="42.3253791220486164093017578125" lon="1.94592931307852268218994140625">
        <ele>1878</ele>
        <time>2020-08-10T08:19:18.000Z</time>
      </trkpt>
      <trkpt lat="42.3253942094743251800537109375" lon="1.94586795754730701446533203125">
        <ele>1878.800048828125</ele>
        <time>2020-08-10T08:19:22.000Z</time>
      </trkpt>
      <trkpt lat="42.3254035972058773040771484375" lon="1.9458358548581600189208984375">
        <ele>1879</ele>
        <time>2020-08-10T08:19:24.000Z</time>
      </trkpt>
      <trkpt lat="42.32543905265629291534423828125" lon="1.9457563944160938262939453125">
        <ele>1879</ele>
        <time>2020-08-10T08:19:29.000Z</time>
      </trkpt>
      <trkpt lat="42.3254527151584625244140625" lon="1.94573435001075267791748046875">
        <ele>1879.4000244140625</ele>
        <time>2020-08-10T08:19:34.000Z</time>
      </trkpt>
      <trkpt lat="42.3254542239010334014892578125" lon="1.9457342661917209625244140625">
        <ele>1879</ele>
        <time>2020-08-10T08:19:53.000Z</time>
      </trkpt>
      <trkpt lat="42.325454391539096832275390625" lon="1.94573401473462581634521484375">
        <ele>1879</ele>
        <time>2020-08-10T08:20:11.000Z</time>
      </trkpt>
      <trkpt lat="42.32547350227832794189453125" lon="1.94569042883813381195068359375">
        <ele>1879.4000244140625</ele>
        <time>2020-08-10T08:20:18.000Z</time>
      </trkpt>
      <trkpt lat="42.3255256377160549163818359375" lon="1.94559319876134395599365234375">
        <ele>1879.4000244140625</ele>
        <time>2020-08-10T08:20:26.000Z</time>
      </trkpt>
      <trkpt lat="42.3255427367985248565673828125" lon="1.94557048380374908447265625">
        <ele>1879.199951171875</ele>
        <time>2020-08-10T08:20:32.000Z</time>
      </trkpt>
      <trkpt lat="42.32554298825562000274658203125" lon="1.9455709867179393768310546875">
        <ele>1879.5999755859375</ele>
        <time>2020-08-10T08:20:37.000Z</time>
      </trkpt>
      <trkpt lat="42.325545251369476318359375" lon="1.9455604255199432373046875">
        <ele>1879</ele>
        <time>2020-08-10T08:20:47.000Z</time>
      </trkpt>
      <trkpt lat="42.3255688883364200592041015625" lon="1.94544668309390544891357421875">
        <ele>1879.199951171875</ele>
        <time>2020-08-10T08:20:54.000Z</time>
      </trkpt>
      <trkpt lat="42.32561239041388034820556640625" lon="1.9453134946525096893310546875">
        <ele>1879.5999755859375</ele>
        <time>2020-08-10T08:21:02.000Z</time>
      </trkpt>
      <trkpt lat="42.32565262354910373687744140625" lon="1.9451559148728847503662109375">
        <ele>1879.800048828125</ele>
        <time>2020-08-10T08:21:10.000Z</time>
      </trkpt>
      <trkpt lat="42.325694449245929718017578125" lon="1.94501266814768314361572265625">
        <ele>1880.5999755859375</ele>
        <time>2020-08-10T08:21:17.000Z</time>
      </trkpt>
      <trkpt lat="42.32572286389768123626708984375" lon="1.94495491683483123779296875">
        <ele>1881</ele>
        <time>2020-08-10T08:21:20.000Z</time>
      </trkpt>
      <trkpt lat="42.32581003569066524505615234375" lon="1.94484251551330089569091796875">
        <ele>1881.800048828125</ele>
        <time>2020-08-10T08:21:27.000Z</time>
      </trkpt>
      <trkpt lat="42.32584540732204914093017578125" lon="1.94479859434068202972412109375">
        <ele>1882.199951171875</ele>
        <time>2020-08-10T08:21:30.000Z</time>
      </trkpt>
      <trkpt lat="42.32589771039783954620361328125" lon="1.944729276001453399658203125">
        <ele>1882.5999755859375</ele>
        <time>2020-08-10T08:21:35.000Z</time>
      </trkpt>
      <trkpt lat="42.32592520304024219512939453125" lon="1.9446806609630584716796875">
        <ele>1882.5999755859375</ele>
        <time>2020-08-10T08:21:38.000Z</time>
      </trkpt>
      <trkpt lat="42.3260025680065155029296875" lon="1.944496594369411468505859375">
        <ele>1883.5999755859375</ele>
        <time>2020-08-10T08:21:48.000Z</time>
      </trkpt>
      <trkpt lat="42.3260624147951602935791015625" lon="1.94438301958143711090087890625">
        <ele>1884.4000244140625</ele>
        <time>2020-08-10T08:21:55.000Z</time>
      </trkpt>
      <trkpt lat="42.3260811902582645416259765625" lon="1.94434949196875095367431640625">
        <ele>1884.5999755859375</ele>
        <time>2020-08-10T08:21:57.000Z</time>
      </trkpt>
      <trkpt lat="42.3261127062141895294189453125" lon="1.94428361020982265472412109375">
        <ele>1885.199951171875</ele>
        <time>2020-08-10T08:22:01.000Z</time>
      </trkpt>
      <trkpt lat="42.3261371813714504241943359375" lon="1.9442104361951351165771484375">
        <ele>1885.800048828125</ele>
        <time>2020-08-10T08:22:05.000Z</time>
      </trkpt>
      <trkpt lat="42.3261603154242038726806640625" lon="1.944123096764087677001953125">
        <ele>1886.5999755859375</ele>
        <time>2020-08-10T08:22:09.000Z</time>
      </trkpt>
      <trkpt lat="42.3261876404285430908203125" lon="1.9440256990492343902587890625">
        <ele>1886.800048828125</ele>
        <time>2020-08-10T08:22:14.000Z</time>
      </trkpt>
      <trkpt lat="42.326202057301998138427734375" lon="1.94397448562085628509521484375">
        <ele>1887.199951171875</ele>
        <time>2020-08-10T08:22:17.000Z</time>
      </trkpt>
      <trkpt lat="42.3262394405901432037353515625" lon="1.94384372793138027191162109375">
        <ele>1888</ele>
        <time>2020-08-10T08:22:23.000Z</time>
      </trkpt>
      <trkpt lat="42.3262454755604267120361328125" lon="1.9438211806118488311767578125">
        <ele>1888</ele>
        <time>2020-08-10T08:22:24.000Z</time>
      </trkpt>
      <trkpt lat="42.32628143392503261566162109375" lon="1.94372369907796382904052734375">
        <ele>1889</ele>
        <time>2020-08-10T08:22:29.000Z</time>
      </trkpt>
      <trkpt lat="42.32629920355975627899169921875" lon="1.943689920008182525634765625">
        <ele>1889.4000244140625</ele>
        <time>2020-08-10T08:22:31.000Z</time>
      </trkpt>
      <trkpt lat="42.32632149942219257354736328125" lon="1.94362026639282703399658203125">
        <ele>1890</ele>
        <time>2020-08-10T08:22:35.000Z</time>
      </trkpt>
      <trkpt lat="42.32635167427361011505126953125" lon="1.94353141821920871734619140625">
        <ele>1890.800048828125</ele>
        <time>2020-08-10T08:22:40.000Z</time>
      </trkpt>
      <trkpt lat="42.32636726461350917816162109375" lon="1.943500824272632598876953125">
        <ele>1891.199951171875</ele>
        <time>2020-08-10T08:22:42.000Z</time>
      </trkpt>
      <trkpt lat="42.32641185633838176727294921875" lon="1.94340401329100131988525390625">
        <ele>1891.800048828125</ele>
        <time>2020-08-10T08:22:48.000Z</time>
      </trkpt>
      <trkpt lat="42.32646055519580841064453125" lon="1.94326772354543209075927734375">
        <ele>1892.199951171875</ele>
        <time>2020-08-10T08:22:56.000Z</time>
      </trkpt>
      <trkpt lat="42.3264882154762744903564453125" lon="1.94319379515945911407470703125">
        <ele>1893.4000244140625</ele>
        <time>2020-08-10T08:23:01.000Z</time>
      </trkpt>
      <trkpt lat="42.32650070451200008392333984375" lon="1.94316110573709011077880859375">
        <ele>1893.4000244140625</ele>
        <time>2020-08-10T08:23:03.000Z</time>
      </trkpt>
      <trkpt lat="42.32656038366258144378662109375" lon="1.94305733777582645416259765625">
        <ele>1893.5999755859375</ele>
        <time>2020-08-10T08:23:10.000Z</time>
      </trkpt>
      <trkpt lat="42.326591312885284423828125" lon="1.94295759312808513641357421875">
        <ele>1893.5999755859375</ele>
        <time>2020-08-10T08:23:16.000Z</time>
      </trkpt>
      <trkpt lat="42.32657915912568569183349609375" lon="1.94293026812374591827392578125">
        <ele>1893.5999755859375</ele>
        <time>2020-08-10T08:23:18.000Z</time>
      </trkpt>
      <trkpt lat="42.32651889324188232421875" lon="1.94294032640755176544189453125">
        <ele>1894.4000244140625</ele>
        <time>2020-08-10T08:23:23.000Z</time>
      </trkpt>
      <trkpt lat="42.32646382413804531097412109375" lon="1.94303437136113643646240234375">
        <ele>1895.4000244140625</ele>
        <time>2020-08-10T08:23:29.000Z</time>
      </trkpt>
      <trkpt lat="42.32645544223487377166748046875" lon="1.9430513866245746612548828125">
        <ele>1895.800048828125</ele>
        <time>2020-08-10T08:23:30.000Z</time>
      </trkpt>
      <trkpt lat="42.32643096707761287689208984375" lon="1.94312162697315216064453125">
        <ele>1896.5999755859375</ele>
        <time>2020-08-10T08:23:34.000Z</time>
      </trkpt>
      <trkpt lat="42.326400540769100189208984375" lon="1.94318641908466815948486328125">
        <ele>1897.199951171875</ele>
        <time>2020-08-10T08:23:38.000Z</time>
      </trkpt>
      <trkpt lat="42.32636726461350917816162109375" lon="1.9432398118078708648681640625">
        <ele>1897.5999755859375</ele>
        <time>2020-08-10T08:23:41.000Z</time>
      </trkpt>
      <trkpt lat="42.32631261460483074188232421875" lon="1.94333595223724842071533203125">
        <ele>1898.4000244140625</ele>
        <time>2020-08-10T08:23:47.000Z</time>
      </trkpt>
      <trkpt lat="42.3262949287891387939453125" lon="1.9433685578405857086181640625">
        <ele>1898.5999755859375</ele>
        <time>2020-08-10T08:23:49.000Z</time>
      </trkpt>
      <trkpt lat="42.3262290470302104949951171875" lon="1.94350719451904296875">
        <ele>1899.4000244140625</ele>
        <time>2020-08-10T08:23:57.000Z</time>
      </trkpt>
      <trkpt lat="42.3261995427310466766357421875" lon="1.9435566477477550506591796875">
        <ele>1899.800048828125</ele>
        <time>2020-08-10T08:24:00.000Z</time>
      </trkpt>
      <trkpt lat="42.3261348344385623931884765625" lon="1.94366745650768280029296875">
        <ele>1900.800048828125</ele>
        <time>2020-08-10T08:24:07.000Z</time>
      </trkpt>
      <trkpt lat="42.32612485997378826141357421875" lon="1.94368262775242328643798828125">
        <ele>1901</ele>
        <time>2020-08-10T08:24:08.000Z</time>
      </trkpt>
      <trkpt lat="42.32603969983756542205810546875" lon="1.94379150867462158203125">
        <ele>1901.800048828125</ele>
        <time>2020-08-10T08:24:15.000Z</time>
      </trkpt>
      <trkpt lat="42.3259236104786396026611328125" lon="1.94392469711601734161376953125">
        <ele>1902.800048828125</ele>
        <time>2020-08-10T08:24:24.000Z</time>
      </trkpt>
      <trkpt lat="42.3259108699858188629150390625" lon="1.94393726997077465057373046875">
        <ele>1903</ele>
        <time>2020-08-10T08:24:25.000Z</time>
      </trkpt>
      <trkpt lat="42.32580701820552349090576171875" lon="1.94404807873070240020751953125">
        <ele>1904.199951171875</ele>
        <time>2020-08-10T08:24:34.000Z</time>
      </trkpt>
      <trkpt lat="42.3257102072238922119140625" lon="1.944137848913669586181640625">
        <ele>1905</ele>
        <time>2020-08-10T08:24:42.000Z</time>
      </trkpt>
      <trkpt lat="42.32569838874042034149169921875" lon="1.9441524334251880645751953125">
        <ele>1905.199951171875</ele>
        <time>2020-08-10T08:24:43.000Z</time>
      </trkpt>
      <trkpt lat="42.32561809010803699493408203125" lon="1.9442188180983066558837890625">
        <ele>1906</ele>
        <time>2020-08-10T08:24:49.000Z</time>
      </trkpt>
      <trkpt lat="42.32557366602122783660888671875" lon="1.944245807826519012451171875">
        <ele>1906.800048828125</ele>
        <time>2020-08-10T08:24:52.000Z</time>
      </trkpt>
      <trkpt lat="42.32554432936012744903564453125" lon="1.94426265545189380645751953125">
        <ele>1907</ele>
        <time>2020-08-10T08:24:54.000Z</time>
      </trkpt>
      <trkpt lat="42.32546956278383731842041015625" lon="1.9443049840629100799560546875">
        <ele>1908.199951171875</ele>
        <time>2020-08-10T08:24:59.000Z</time>
      </trkpt>
      <trkpt lat="42.3253952153027057647705078125" lon="1.94434069097042083740234375">
        <ele>1909.4000244140625</ele>
        <time>2020-08-10T08:25:04.000Z</time>
      </trkpt>
      <trkpt lat="42.32530561275780200958251953125" lon="1.9443877972662448883056640625">
        <ele>1910.5999755859375</ele>
        <time>2020-08-10T08:25:10.000Z</time>
      </trkpt>
      <trkpt lat="42.325260601937770843505859375" lon="1.9444166310131549835205078125">
        <ele>1911.4000244140625</ele>
        <time>2020-08-10T08:25:13.000Z</time>
      </trkpt>
      <trkpt lat="42.32524643652141094207763671875" lon="1.94442777894437313079833984375">
        <ele>1911.800048828125</ele>
        <time>2020-08-10T08:25:14.000Z</time>
      </trkpt>
      <trkpt lat="42.32521869242191314697265625" lon="1.9444481469690799713134765625">
        <ele>1912.800048828125</ele>
        <time>2020-08-10T08:25:16.000Z</time>
      </trkpt>
      <trkpt lat="42.32518608681857585906982421875" lon="1.94448460824787616729736328125">
        <ele>1914</ele>
        <time>2020-08-10T08:25:19.000Z</time>
      </trkpt>
      <trkpt lat="42.32516144402325153350830078125" lon="1.944503970444202423095703125">
        <ele>1914.199951171875</ele>
        <time>2020-08-10T08:25:21.000Z</time>
      </trkpt>
      <trkpt lat="42.325123809278011322021484375" lon="1.9445339776575565338134765625">
        <ele>1915</ele>
        <time>2020-08-10T08:25:24.000Z</time>
      </trkpt>
      <trkpt lat="42.3250857554376125335693359375" lon="1.9445946626365184783935546875">
        <ele>1915.5999755859375</ele>
        <time>2020-08-10T08:25:29.000Z</time>
      </trkpt>
      <trkpt lat="42.325087599456310272216796875" lon="1.94459172897040843963623046875">
        <ele>1916.199951171875</ele>
        <time>2020-08-10T08:25:33.000Z</time>
      </trkpt>
      <trkpt lat="42.32508868910372257232666015625" lon="1.9445919804275035858154296875">
        <ele>1916.199951171875</ele>
        <time>2020-08-10T08:25:35.000Z</time>
      </trkpt>
      <trkpt lat="42.3250173591077327728271484375" lon="1.94473036564886569976806640625">
        <ele>1917</ele>
        <time>2020-08-10T08:30:17.000Z</time>
      </trkpt>
      <trkpt lat="42.325006462633609771728515625" lon="1.94473874755203723907470703125">
        <ele>1916.5999755859375</ele>
        <time>2020-08-10T08:30:21.000Z</time>
      </trkpt>
      <trkpt lat="42.3249994218349456787109375" lon="1.9447477161884307861328125">
        <ele>1916.5999755859375</ele>
        <time>2020-08-10T08:30:22.000Z</time>
      </trkpt>
      <trkpt lat="42.32496195472776889801025390625" lon="1.9448062218725681304931640625">
        <ele>1916.800048828125</ele>
        <time>2020-08-10T08:30:28.000Z</time>
      </trkpt>
      <trkpt lat="42.32494418509304523468017578125" lon="1.94482482969760894775390625">
        <ele>1916.800048828125</ele>
        <time>2020-08-10T08:30:30.000Z</time>
      </trkpt>
      <trkpt lat="42.32491065748035907745361328125" lon="1.94487805478274822235107421875">
        <ele>1917</ele>
        <time>2020-08-10T08:30:34.000Z</time>
      </trkpt>
      <trkpt lat="42.32489339075982570648193359375" lon="1.94491476751863956451416015625">
        <ele>1917</ele>
        <time>2020-08-10T08:30:37.000Z</time>
      </trkpt>
      <trkpt lat="42.32486237771809101104736328125" lon="1.9449527375400066375732421875">
        <ele>1917</ele>
        <time>2020-08-10T08:30:41.000Z</time>
      </trkpt>
      <trkpt lat="42.32483915984630584716796875" lon="1.94497394375503063201904296875">
        <ele>1917</ele>
        <time>2020-08-10T08:30:44.000Z</time>
      </trkpt>
      <trkpt lat="42.32481812126934528350830078125" lon="1.9450199604034423828125">
        <ele>1917</ele>
        <time>2020-08-10T08:30:48.000Z</time>
      </trkpt>
      <trkpt lat="42.3247883655130863189697265625" lon="1.94513906724750995635986328125">
        <ele>1916.800048828125</ele>
        <time>2020-08-10T08:30:53.000Z</time>
      </trkpt>
      <trkpt lat="42.32473857700824737548828125" lon="1.94530360400676727294921875">
        <ele>1917.199951171875</ele>
        <time>2020-08-10T08:31:00.000Z</time>
      </trkpt>
      <trkpt lat="42.324680574238300323486328125" lon="1.94545422680675983428955078125">
        <ele>1917</ele>
        <time>2020-08-10T08:31:08.000Z</time>
      </trkpt>
      <trkpt lat="42.32462969608604907989501953125" lon="1.94558850489556789398193359375">
        <ele>1917.800048828125</ele>
        <time>2020-08-10T08:31:15.000Z</time>
      </trkpt>
      <trkpt lat="42.3246073164045810699462890625" lon="1.94565203972160816192626953125">
        <ele>1918.199951171875</ele>
        <time>2020-08-10T08:31:18.000Z</time>
      </trkpt>
      <trkpt lat="42.3245677538216114044189453125" lon="1.94575480185449123382568359375">
        <ele>1918.800048828125</ele>
        <time>2020-08-10T08:31:23.000Z</time>
      </trkpt>
      <trkpt lat="42.32454135082662105560302734375" lon="1.94581456482410430908203125">
        <ele>1919</ele>
        <time>2020-08-10T08:31:26.000Z</time>
      </trkpt>
      <trkpt lat="42.324458621442317962646484375" lon="1.9459458254277706146240234375">
        <ele>1919.800048828125</ele>
        <time>2020-08-10T08:31:34.000Z</time>
      </trkpt>
      <trkpt lat="42.324445210397243499755859375" lon="1.945961415767669677734375">
        <ele>1920</ele>
        <time>2020-08-10T08:31:35.000Z</time>
      </trkpt>
      <trkpt lat="42.324386872351169586181640625" lon="1.94605034776031970977783203125">
        <ele>1920.800048828125</ele>
        <time>2020-08-10T08:31:40.000Z</time>
      </trkpt>
      <trkpt lat="42.324351333081722259521484375" lon="1.94610583595931529998779296875">
        <ele>1921.800048828125</ele>
        <time>2020-08-10T08:31:43.000Z</time>
      </trkpt>
      <trkpt lat="42.32429559342563152313232421875" lon="1.94619518704712390899658203125">
        <ele>1923</ele>
        <time>2020-08-10T08:31:48.000Z</time>
      </trkpt>
      <trkpt lat="42.32424949295818805694580078125" lon="1.946283280849456787109375">
        <ele>1924</ele>
        <time>2020-08-10T08:31:53.000Z</time>
      </trkpt>
      <trkpt lat="42.32423993758857250213623046875" lon="1.9462992064654827117919921875">
        <ele>1924.199951171875</ele>
        <time>2020-08-10T08:31:54.000Z</time>
      </trkpt>
      <trkpt lat="42.32420557178556919097900390625" lon="1.9463873840868473052978515625">
        <ele>1925.199951171875</ele>
        <time>2020-08-10T08:31:59.000Z</time>
      </trkpt>
      <trkpt lat="42.32419232837855815887451171875" lon="1.94642418064177036285400390625">
        <ele>1925.4000244140625</ele>
        <time>2020-08-10T08:32:01.000Z</time>
      </trkpt>
      <trkpt lat="42.32417539693415164947509765625" lon="1.9465030543506145477294921875">
        <ele>1926</ele>
        <time>2020-08-10T08:32:05.000Z</time>
      </trkpt>
      <trkpt lat="42.324152179062366485595703125" lon="1.94662132300436496734619140625">
        <ele>1926.5999755859375</ele>
        <time>2020-08-10T08:32:11.000Z</time>
      </trkpt>
      <trkpt lat="42.32413709163665771484375" lon="1.94667555391788482666015625">
        <ele>1927.199951171875</ele>
        <time>2020-08-10T08:32:14.000Z</time>
      </trkpt>
      <trkpt lat="42.32410498894751071929931640625" lon="1.94678426720201969146728515625">
        <ele>1928.199951171875</ele>
        <time>2020-08-10T08:32:20.000Z</time>
      </trkpt>
      <trkpt lat="42.324095852673053741455078125" lon="1.94682198576629161834716796875">
        <ele>1928.199951171875</ele>
        <time>2020-08-10T08:32:22.000Z</time>
      </trkpt>
      <trkpt lat="42.32407581992447376251220703125" lon="1.94696389138698577880859375">
        <ele>1929</ele>
        <time>2020-08-10T08:32:29.000Z</time>
      </trkpt>
      <trkpt lat="42.32407280243933200836181640625" lon="1.9469835050404071807861328125">
        <ele>1929.4000244140625</ele>
        <time>2020-08-10T08:32:30.000Z</time>
      </trkpt>
      <trkpt lat="42.324027121067047119140625" lon="1.94713043980300426483154296875">
        <ele>1930</ele>
        <time>2020-08-10T08:32:38.000Z</time>
      </trkpt>
      <trkpt lat="42.3240150511264801025390625" lon="1.947166062891483306884765625">
        <ele>1930.4000244140625</ele>
        <time>2020-08-10T08:32:40.000Z</time>
      </trkpt>
      <trkpt lat="42.32397615909576416015625" lon="1.94727041758596897125244140625">
        <ele>1931.4000244140625</ele>
        <time>2020-08-10T08:32:46.000Z</time>
      </trkpt>
      <trkpt lat="42.32395646162331104278564453125" lon="1.9473228044807910919189453125">
        <ele>1931.5999755859375</ele>
        <time>2020-08-10T08:32:49.000Z</time>
      </trkpt>
      <trkpt lat="42.3239230178296566009521484375" lon="1.94740955717861652374267578125">
        <ele>1932.5999755859375</ele>
        <time>2020-08-10T08:32:54.000Z</time>
      </trkpt>
      <trkpt lat="42.323876917362213134765625" lon="1.9475082121789455413818359375">
        <ele>1933</ele>
        <time>2020-08-10T08:33:00.000Z</time>
      </trkpt>
      <trkpt lat="42.32385344803333282470703125" lon="1.94755607284605503082275390625">
        <ele>1933.4000244140625</ele>
        <time>2020-08-10T08:33:03.000Z</time>
      </trkpt>
      <trkpt lat="42.32382151298224925994873046875" lon="1.9476376287639141082763671875">
        <ele>1933.5999755859375</ele>
        <time>2020-08-10T08:33:08.000Z</time>
      </trkpt>
      <trkpt lat="42.3238029889762401580810546875" lon="1.9476874172687530517578125">
        <ele>1934.5999755859375</ele>
        <time>2020-08-10T08:33:11.000Z</time>
      </trkpt>
      <trkpt lat="42.32376283966004848480224609375" lon="1.94778171367943286895751953125">
        <ele>1935.5999755859375</ele>
        <time>2020-08-10T08:33:17.000Z</time>
      </trkpt>
      <trkpt lat="42.3237573914229869842529296875" lon="1.947798393666744232177734375">
        <ele>1935.800048828125</ele>
        <time>2020-08-10T08:33:18.000Z</time>
      </trkpt>
      <trkpt lat="42.3237119615077972412109375" lon="1.94791532121598720550537109375">
        <ele>1936.5999755859375</ele>
        <time>2020-08-10T08:33:25.000Z</time>
      </trkpt>
      <trkpt lat="42.32370567508041858673095703125" lon="1.94793258793652057647705078125">
        <ele>1936.800048828125</ele>
        <time>2020-08-10T08:33:26.000Z</time>
      </trkpt>
      <trkpt lat="42.32364934869110584259033203125" lon="1.9480687938630580902099609375">
        <ele>1937.5999755859375</ele>
        <time>2020-08-10T08:33:34.000Z</time>
      </trkpt>
      <trkpt lat="42.32364297844469547271728515625" lon="1.94808664731681346893310546875">
        <ele>1937.800048828125</ele>
        <time>2020-08-10T08:33:35.000Z</time>
      </trkpt>
      <trkpt lat="42.32357391156256198883056640625" lon="1.94823618046939373016357421875">
        <ele>1938.800048828125</ele>
        <time>2020-08-10T08:33:44.000Z</time>
      </trkpt>
      <trkpt lat="42.3235669545829296112060546875" lon="1.948251686990261077880859375">
        <ele>1939</ele>
        <time>2020-08-10T08:33:45.000Z</time>
      </trkpt>
      <trkpt lat="42.3235163278877735137939453125" lon="1.9483497552573680877685546875">
        <ele>1939.800048828125</ele>
        <time>2020-08-10T08:33:51.000Z</time>
      </trkpt>
      <trkpt lat="42.3235005699098110198974609375" lon="1.94838286377489566802978515625">
        <ele>1940</ele>
        <time>2020-08-10T08:33:53.000Z</time>
      </trkpt>
      <trkpt lat="42.323460839688777923583984375" lon="1.94846819154918193817138671875">
        <ele>1940.5999755859375</ele>
        <time>2020-08-10T08:33:58.000Z</time>
      </trkpt>
      <trkpt lat="42.3234227858483791351318359375" lon="1.94855041801929473876953125">
        <ele>1941.199951171875</ele>
        <time>2020-08-10T08:34:03.000Z</time>
      </trkpt>
      <trkpt lat="42.32340023852884769439697265625" lon="1.94859869778156280517578125">
        <ele>1941.800048828125</ele>
        <time>2020-08-10T08:34:06.000Z</time>
      </trkpt>
      <trkpt lat="42.32336302287876605987548828125" lon="1.94868444465100765228271484375">
        <ele>1942.800048828125</ele>
        <time>2020-08-10T08:34:11.000Z</time>
      </trkpt>
      <trkpt lat="42.32334240339696407318115234375" lon="1.9487349875271320343017578125">
        <ele>1943.199951171875</ele>
        <time>2020-08-10T08:34:14.000Z</time>
      </trkpt>
      <trkpt lat="42.32328875921666622161865234375" lon="1.94884554482996463775634765625">
        <ele>1944</ele>
        <time>2020-08-10T08:34:21.000Z</time>
      </trkpt>
      <trkpt lat="42.32322908006608486175537109375" lon="1.94898233748972415924072265625">
        <ele>1945</ele>
        <time>2020-08-10T08:34:29.000Z</time>
      </trkpt>
      <trkpt lat="42.3232236318290233612060546875" lon="1.9489988498389720916748046875">
        <ele>1944.800048828125</ele>
        <time>2020-08-10T08:34:30.000Z</time>
      </trkpt>
      <trkpt lat="42.3231877572834491729736328125" lon="1.94908325560390949249267578125">
        <ele>1946</ele>
        <time>2020-08-10T08:34:35.000Z</time>
      </trkpt>
      <trkpt lat="42.3231800459325313568115234375" lon="1.94910161197185516357421875">
        <ele>1946</ele>
        <time>2020-08-10T08:34:36.000Z</time>
      </trkpt>
      <trkpt lat="42.32312698848545551300048828125" lon="1.94925474934279918670654296875">
        <ele>1947</ele>
        <time>2020-08-10T08:34:45.000Z</time>
      </trkpt>
      <trkpt lat="42.3231213726103305816650390625" lon="1.949271596968173980712890625">
        <ele>1947</ele>
        <time>2020-08-10T08:34:46.000Z</time>
      </trkpt>
      <trkpt lat="42.32308222912251949310302734375" lon="1.94940880872309207916259765625">
        <ele>1948</ele>
        <time>2020-08-10T08:34:53.000Z</time>
      </trkpt>
      <trkpt lat="42.32303076423704624176025390625" lon="1.94947502575814723968505859375">
        <ele>1949</ele>
        <time>2020-08-10T08:34:58.000Z</time>
      </trkpt>
      <trkpt lat="42.3229943029582500457763671875" lon="1.9494806416332721710205078125">
        <ele>1949.4000244140625</ele>
        <time>2020-08-10T08:35:01.000Z</time>
      </trkpt>
      <trkpt lat="42.3229761980473995208740234375" lon="1.9494655542075634002685546875">
        <ele>1949.199951171875</ele>
        <time>2020-08-10T08:35:03.000Z</time>
      </trkpt>
      <trkpt lat="42.3229738511145114898681640625" lon="1.94941383786499500274658203125">
        <ele>1949.4000244140625</ele>
        <time>2020-08-10T08:35:06.000Z</time>
      </trkpt>
      <trkpt lat="42.32297770678997039794921875" lon="1.9493938051164150238037109375">
        <ele>1949.4000244140625</ele>
        <time>2020-08-10T08:35:07.000Z</time>
      </trkpt>
      <trkpt lat="42.3229959793388843536376953125" lon="1.94933135993778705596923828125">
        <ele>1949.800048828125</ele>
        <time>2020-08-10T08:35:10.000Z</time>
      </trkpt>
      <trkpt lat="42.3230331949889659881591796875" lon="1.9492617063224315643310546875">
        <ele>1950.4000244140625</ele>
        <time>2020-08-10T08:35:14.000Z</time>
      </trkpt>
      <trkpt lat="42.32308038510382175445556640625" lon="1.94911368191242218017578125">
        <ele>1951</ele>
        <time>2020-08-10T08:35:22.000Z</time>
      </trkpt>
      <trkpt lat="42.32310335151851177215576171875" lon="1.948954425752162933349609375">
        <ele>1951.800048828125</ele>
        <time>2020-08-10T08:35:30.000Z</time>
      </trkpt>
      <trkpt lat="42.32310838066041469573974609375" lon="1.948914863169193267822265625">
        <ele>1952.199951171875</ele>
        <time>2020-08-10T08:35:32.000Z</time>
      </trkpt>
      <trkpt lat="42.323111481964588165283203125" lon="1.94887571968138217926025390625">
        <ele>1952.800048828125</ele>
        <time>2020-08-10T08:35:34.000Z</time>
      </trkpt>
      <trkpt lat="42.323135621845722198486328125" lon="1.94872149266302585601806640625">
        <ele>1953.800048828125</ele>
        <time>2020-08-10T08:35:42.000Z</time>
      </trkpt>
      <trkpt lat="42.323138974606990814208984375" lon="1.94870196282863616943359375">
        <ele>1954</ele>
        <time>2020-08-10T08:35:43.000Z</time>
      </trkpt>
      <trkpt lat="42.3231532238423824310302734375" lon="1.9485753960907459259033203125">
        <ele>1954.800048828125</ele>
        <time>2020-08-10T08:35:49.000Z</time>
      </trkpt>
      <trkpt lat="42.32315498404204845428466796875" lon="1.94855502806603908538818359375">
        <ele>1955</ele>
        <time>2020-08-10T08:35:50.000Z</time>
      </trkpt>
      <trkpt lat="42.32316814363002777099609375" lon="1.94838571362197399139404296875">
        <ele>1955.5999755859375</ele>
        <time>2020-08-10T08:35:58.000Z</time>
      </trkpt>
      <trkpt lat="42.3231679759919643402099609375" lon="1.94833676330745220184326171875">
        <ele>1956.199951171875</ele>
        <time>2020-08-10T08:36:00.000Z</time>
      </trkpt>
      <trkpt lat="42.32317795045673847198486328125" lon="1.94822193123400211334228515625">
        <ele>1956.5999755859375</ele>
        <time>2020-08-10T08:36:05.000Z</time>
      </trkpt>
      <trkpt lat="42.32318465597927570343017578125" lon="1.94815889932215213775634765625">
        <ele>1957.199951171875</ele>
        <time>2020-08-10T08:36:08.000Z</time>
      </trkpt>
      <trkpt lat="42.3231988213956356048583984375" lon="1.94800551049411296844482421875">
        <ele>1958.199951171875</ele>
        <time>2020-08-10T08:36:15.000Z</time>
      </trkpt>
      <trkpt lat="42.32321483083069324493408203125" lon="1.94788388907909393310546875">
        <ele>1958.800048828125</ele>
        <time>2020-08-10T08:36:21.000Z</time>
      </trkpt>
      <trkpt lat="42.3232182674109935760498046875" lon="1.9478176720440387725830078125">
        <ele>1959.199951171875</ele>
        <time>2020-08-10T08:36:24.000Z</time>
      </trkpt>
      <trkpt lat="42.32323578558862209320068359375" lon="1.947663612663745880126953125">
        <ele>1960.199951171875</ele>
        <time>2020-08-10T08:36:31.000Z</time>
      </trkpt>
      <trkpt lat="42.3232400603592395782470703125" lon="1.94764089770615100860595703125">
        <ele>1960.199951171875</ele>
        <time>2020-08-10T08:36:32.000Z</time>
      </trkpt>
      <trkpt lat="42.32324936427175998687744140625" lon="1.9475088827311992645263671875">
        <ele>1961.4000244140625</ele>
        <time>2020-08-10T08:36:38.000Z</time>
      </trkpt>
      <trkpt lat="42.32325154356658458709716796875" lon="1.94748667068779468536376953125">
        <ele>1961.5999755859375</ele>
        <time>2020-08-10T08:36:39.000Z</time>
      </trkpt>
      <trkpt lat="42.3232655413448810577392578125" lon="1.94740083999931812286376953125">
        <ele>1962.4000244140625</ele>
        <time>2020-08-10T08:36:43.000Z</time>
      </trkpt>
      <trkpt lat="42.32327735982835292816162109375" lon="1.947315596044063568115234375">
        <ele>1962.4000244140625</ele>
        <time>2020-08-10T08:36:47.000Z</time>
      </trkpt>
      <trkpt lat="42.323283813893795013427734375" lon="1.947231777012348175048828125">
        <ele>1963.199951171875</ele>
        <time>2020-08-10T08:36:51.000Z</time>
      </trkpt>
      <trkpt lat="42.32328356243669986724853515625" lon="1.94714737124741077423095703125">
        <ele>1964</ele>
        <time>2020-08-10T08:36:55.000Z</time>
      </trkpt>
      <trkpt lat="42.32328523881733417510986328125" lon="1.947105713188648223876953125">
        <ele>1964.5999755859375</ele>
        <time>2020-08-10T08:36:57.000Z</time>
      </trkpt>
      <trkpt lat="42.323281802237033843994140625" lon="1.94700454361736774444580078125">
        <ele>1964.800048828125</ele>
        <time>2020-08-10T08:37:02.000Z</time>
      </trkpt>
      <trkpt lat="42.32327166013419628143310546875" lon="1.94686775095760822296142578125">
        <ele>1965.4000244140625</ele>
        <time>2020-08-10T08:37:09.000Z</time>
      </trkpt>
      <trkpt lat="42.32326646335422992706298828125" lon="1.94682785309851169586181640625">
        <ele>1965.800048828125</ele>
        <time>2020-08-10T08:37:11.000Z</time>
      </trkpt>
      <trkpt lat="42.3232574947178363800048828125" lon="1.94676750339567661285400390625">
        <ele>1966.5999755859375</ele>
        <time>2020-08-10T08:37:14.000Z</time>
      </trkpt>
      <trkpt lat="42.32324500568211078643798828125" lon="1.946685612201690673828125">
        <ele>1967</ele>
        <time>2020-08-10T08:37:18.000Z</time>
      </trkpt>
      <trkpt lat="42.32323612086474895477294921875" lon="1.94660590030252933502197265625">
        <ele>1967.4000244140625</ele>
        <time>2020-08-10T08:37:22.000Z</time>
      </trkpt>
      <trkpt lat="42.3232343606650829315185546875" lon="1.946586705744266510009765625">
        <ele>1967.5999755859375</ele>
        <time>2020-08-10T08:37:23.000Z</time>
      </trkpt>
      <trkpt lat="42.32322321273386478424072265625" lon="1.94647178985178470611572265625">
        <ele>1968.5999755859375</ele>
        <time>2020-08-10T08:37:29.000Z</time>
      </trkpt>
      <trkpt lat="42.323223464190959930419921875" lon="1.94645234383642673492431640625">
        <ele>1968.800048828125</ele>
        <time>2020-08-10T08:37:30.000Z</time>
      </trkpt>
      <trkpt lat="42.32321432791650295257568359375" lon="1.9463538564741611480712890625">
        <ele>1969.800048828125</ele>
        <time>2020-08-10T08:37:35.000Z</time>
      </trkpt>
      <trkpt lat="42.32320569455623626708984375" lon="1.9462945125997066497802734375">
        <ele>1970.199951171875</ele>
        <time>2020-08-10T08:37:38.000Z</time>
      </trkpt>
      <trkpt lat="42.32319085858762264251708984375" lon="1.9461583904922008514404296875">
        <ele>1970.5999755859375</ele>
        <time>2020-08-10T08:37:45.000Z</time>
      </trkpt>
      <trkpt lat="42.32318180613219738006591796875" lon="1.94609913043677806854248046875">
        <ele>1971</ele>
        <time>2020-08-10T08:37:48.000Z</time>
      </trkpt>
      <trkpt lat="42.32317158021032810211181640625" lon="1.94597524590790271759033203125">
        <ele>1971.5999755859375</ele>
        <time>2020-08-10T08:37:54.000Z</time>
      </trkpt>
      <trkpt lat="42.32316755689680576324462890625" lon="1.945932917296886444091796875">
        <ele>1972</ele>
        <time>2020-08-10T08:37:56.000Z</time>
      </trkpt>
      <trkpt lat="42.32314945198595523834228515625" lon="1.94581456482410430908203125">
        <ele>1972.800048828125</ele>
        <time>2020-08-10T08:38:02.000Z</time>
      </trkpt>
      <trkpt lat="42.32313939370214939117431640625" lon="1.94577676244080066680908203125">
        <ele>1972.5999755859375</ele>
        <time>2020-08-10T08:38:04.000Z</time>
      </trkpt>
      <trkpt lat="42.32313319109380245208740234375" lon="1.94563142023980617523193359375">
        <ele>1973.5999755859375</ele>
        <time>2020-08-10T08:38:11.000Z</time>
      </trkpt>
      <trkpt lat="42.323130257427692413330078125" lon="1.94559018127620220184326171875">
        <ele>1974</ele>
        <time>2020-08-10T08:38:13.000Z</time>
      </trkpt>
      <trkpt lat="42.323123551905155181884765625" lon="1.94550736807286739349365234375">
        <ele>1974.800048828125</ele>
        <time>2020-08-10T08:38:17.000Z</time>
      </trkpt>
      <trkpt lat="42.323110811412334442138671875" lon="1.9454050250351428985595703125">
        <ele>1975.199951171875</ele>
        <time>2020-08-10T08:38:22.000Z</time>
      </trkpt>
      <trkpt lat="42.32309245504438877105712890625" lon="1.9453064538538455963134765625">
        <ele>1976</ele>
        <time>2020-08-10T08:38:27.000Z</time>
      </trkpt>
      <trkpt lat="42.323079295456409454345703125" lon="1.9452497921884059906005859375">
        <ele>1976.800048828125</ele>
        <time>2020-08-10T08:38:30.000Z</time>
      </trkpt>
      <trkpt lat="42.32307015918195247650146484375" lon="1.94521299563348293304443359375">
        <ele>1977</ele>
        <time>2020-08-10T08:38:32.000Z</time>
      </trkpt>
      <trkpt lat="42.32304266653954982757568359375" lon="1.94512951187789440155029296875">
        <ele>1977.5999755859375</ele>
        <time>2020-08-10T08:38:37.000Z</time>
      </trkpt>
      <trkpt lat="42.323039062321186065673828125" lon="1.94511182606220245361328125">
        <ele>1978</ele>
        <time>2020-08-10T08:38:38.000Z</time>
      </trkpt>
      <trkpt lat="42.323006875813007354736328125" lon="1.944990120828151702880859375">
        <ele>1979</ele>
        <time>2020-08-10T08:38:45.000Z</time>
      </trkpt>
      <trkpt lat="42.32300561852753162384033203125" lon="1.94497209973633289337158203125">
        <ele>1979</ele>
        <time>2020-08-10T08:38:46.000Z</time>
      </trkpt>
      <trkpt lat="42.32299455441534519195556640625" lon="1.94483933039009571075439453125">
        <ele>1979.4000244140625</ele>
        <time>2020-08-10T08:38:53.000Z</time>
      </trkpt>
      <trkpt lat="42.3229963146150112152099609375" lon="1.944809071719646453857421875">
        <ele>1980</ele>
        <time>2020-08-10T08:38:56.000Z</time>
      </trkpt>
      <trkpt lat="42.32299514114856719970703125" lon="1.94481049664318561553955078125">
        <ele>1980.199951171875</ele>
        <time>2020-08-10T08:38:57.000Z</time>
      </trkpt>
      <trkpt lat="42.322994805872440338134765625" lon="1.94481502287089824676513671875">
        <ele>1980.4000244140625</ele>
        <time>2020-08-10T08:39:21.000Z</time>
      </trkpt>
      <trkpt lat="42.32300142757594585418701171875" lon="1.94475215859711170196533203125">
        <ele>1980.4000244140625</ele>
        <time>2020-08-10T08:39:28.000Z</time>
      </trkpt>
      <trkpt lat="42.3230124078691005706787109375" lon="1.9446952454745769500732421875">
        <ele>1980.800048828125</ele>
        <time>2020-08-10T08:39:31.000Z</time>
      </trkpt>
      <trkpt lat="42.323033027350902557373046875" lon="1.94459692575037479400634765625">
        <ele>1981.199951171875</ele>
        <time>2020-08-10T08:39:36.000Z</time>
      </trkpt>
      <trkpt lat="42.32305188663303852081298828125" lon="1.944497935473918914794921875">
        <ele>1982</ele>
        <time>2020-08-10T08:39:41.000Z</time>
      </trkpt>
      <trkpt lat="42.32305859215557575225830078125" lon="1.94445979781448841094970703125">
        <ele>1982.199951171875</ele>
        <time>2020-08-10T08:39:43.000Z</time>
      </trkpt>
      <trkpt lat="42.3230694048106670379638671875" lon="1.94439978338778018951416015625">
        <ele>1983</ele>
        <time>2020-08-10T08:39:46.000Z</time>
      </trkpt>
      <trkpt lat="42.32309798710048198699951171875" lon="1.944277994334697723388671875">
        <ele>1983.800048828125</ele>
        <time>2020-08-10T08:39:52.000Z</time>
      </trkpt>
      <trkpt lat="42.323108129203319549560546875" lon="1.94423818029463291168212890625">
        <ele>1984</ele>
        <time>2020-08-10T08:39:54.000Z</time>
      </trkpt>
      <trkpt lat="42.32315246947109699249267578125" lon="1.94408076815307140350341796875">
        <ele>1985</ele>
        <time>2020-08-10T08:40:02.000Z</time>
      </trkpt>
      <trkpt lat="42.32315833680331707000732421875" lon="1.94406098686158657073974609375">
        <ele>1985</ele>
        <time>2020-08-10T08:40:03.000Z</time>
      </trkpt>
      <trkpt lat="42.32320108450949192047119140625" lon="1.9439348392188549041748046875">
        <ele>1986</ele>
        <time>2020-08-10T08:40:10.000Z</time>
      </trkpt>
      <trkpt lat="42.3232055269181728363037109375" lon="1.943915896117687225341796875">
        <ele>1986.199951171875</ele>
        <time>2020-08-10T08:40:11.000Z</time>
      </trkpt>
      <trkpt lat="42.323226146399974822998046875" lon="1.9437772594392299652099609375">
        <ele>1987.199951171875</ele>
        <time>2020-08-10T08:40:18.000Z</time>
      </trkpt>
      <trkpt lat="42.3232320137321949005126953125" lon="1.94371732883155345916748046875">
        <ele>1987.800048828125</ele>
        <time>2020-08-10T08:40:21.000Z</time>
      </trkpt>
      <trkpt lat="42.32323880307376384735107421875" lon="1.94352672435343265533447265625">
        <ele>1988.199951171875</ele>
        <time>2020-08-10T08:40:31.000Z</time>
      </trkpt>
      <trkpt lat="42.32323830015957355499267578125" lon="1.94341122172772884368896484375">
        <ele>1989.199951171875</ele>
        <time>2020-08-10T08:40:37.000Z</time>
      </trkpt>
      <trkpt lat="42.32323762960731983184814453125" lon="1.94337333552539348602294921875">
        <ele>1989.4000244140625</ele>
        <time>2020-08-10T08:40:39.000Z</time>
      </trkpt>
      <trkpt lat="42.32324031181633472442626953125" lon="1.94331851787865161895751953125">
        <ele>1990.199951171875</ele>
        <time>2020-08-10T08:40:42.000Z</time>
      </trkpt>
      <trkpt lat="42.323242239654064178466796875" lon="1.94325766526162624359130859375">
        <ele>1990.4000244140625</ele>
        <time>2020-08-10T08:40:45.000Z</time>
      </trkpt>
      <trkpt lat="42.32323586940765380859375" lon="1.9432398118078708648681640625">
        <ele>1990.5999755859375</ele>
        <time>2020-08-10T08:40:46.000Z</time>
      </trkpt>
      <trkpt lat="42.32323980890214443206787109375" lon="1.94312430918216705322265625">
        <ele>1991</ele>
        <time>2020-08-10T08:40:53.000Z</time>
      </trkpt>
      <trkpt lat="42.3232407309114933013916015625" lon="1.94310687482357025146484375">
        <ele>1991.199951171875</ele>
        <time>2020-08-10T08:40:54.000Z</time>
      </trkpt>
      <trkpt lat="42.32324232347309589385986328125" lon="1.94308835081756114959716796875">
        <ele>1991.199951171875</ele>
        <time>2020-08-10T08:40:55.000Z</time>
      </trkpt>
      <trkpt lat="42.3232142440974712371826171875" lon="1.9429957307875156402587890625">
        <ele>1991.5999755859375</ele>
        <time>2020-08-10T08:41:00.000Z</time>
      </trkpt>
      <trkpt lat="42.323160432279109954833984375" lon="1.94289891980588436126708984375">
        <ele>1992.199951171875</ele>
        <time>2020-08-10T08:41:06.000Z</time>
      </trkpt>
      <trkpt lat="42.3231471888720989227294921875" lon="1.94289087317883968353271484375">
        <ele>1992.4000244140625</ele>
        <time>2020-08-10T08:41:07.000Z</time>
      </trkpt>
      <trkpt lat="42.3231106437742710113525390625" lon="1.942876875400543212890625">
        <ele>1993</ele>
        <time>2020-08-10T08:41:10.000Z</time>
      </trkpt>
      <trkpt lat="42.3230848275125026702880859375" lon="1.94287813268601894378662109375">
        <ele>1993.4000244140625</ele>
        <time>2020-08-10T08:41:12.000Z</time>
      </trkpt>
      <trkpt lat="42.323059849441051483154296875" lon="1.94288718514144420623779296875">
        <ele>1993.5999755859375</ele>
        <time>2020-08-10T08:41:14.000Z</time>
      </trkpt>
      <trkpt lat="42.3229849152266979217529296875" lon="1.94297368638217449188232421875">
        <ele>1994.5999755859375</ele>
        <time>2020-08-10T08:41:22.000Z</time>
      </trkpt>
      <trkpt lat="42.32297527603805065155029296875" lon="1.9429843313992023468017578125">
        <ele>1995</ele>
        <time>2020-08-10T08:41:27.000Z</time>
      </trkpt>
      <trkpt lat="42.3229728452861309051513671875" lon="1.942984163761138916015625">
        <ele>1995.4000244140625</ele>
        <time>2020-08-10T08:41:41.000Z</time>
      </trkpt>
      <trkpt lat="42.32296220026910305023193359375" lon="1.942987181246280670166015625">
        <ele>1995.4000244140625</ele>
        <time>2020-08-10T08:41:56.000Z</time>
      </trkpt>
      <trkpt lat="42.32292900793254375457763671875" lon="1.9429893605411052703857421875">
        <ele>1995.4000244140625</ele>
        <time>2020-08-10T08:41:59.000Z</time>
      </trkpt>
      <trkpt lat="42.32289011590182781219482421875" lon="1.942981816828250885009765625">
        <ele>1995.4000244140625</ele>
        <time>2020-08-10T08:42:02.000Z</time>
      </trkpt>
      <trkpt lat="42.32287771068513393402099609375" lon="1.94297603331506252288818359375">
        <ele>1995.5999755859375</ele>
        <time>2020-08-10T08:42:03.000Z</time>
      </trkpt>
      <trkpt lat="42.32282155193388462066650390625" lon="1.94290529005229473114013671875">
        <ele>1996.199951171875</ele>
        <time>2020-08-10T08:42:09.000Z</time>
      </trkpt>
      <trkpt lat="42.3228187859058380126953125" lon="1.94289539940655231475830078125">
        <ele>1996.199951171875</ele>
        <time>2020-08-10T08:42:10.000Z</time>
      </trkpt>
      <trkpt lat="42.32281886972486972808837890625" lon="1.94289028644561767578125">
        <ele>1996.199951171875</ele>
        <time>2020-08-10T08:42:17.000Z</time>
      </trkpt>
      <trkpt lat="42.32281903736293315887451171875" lon="1.942889280617237091064453125">
        <ele>1996.5999755859375</ele>
        <time>2020-08-10T08:42:30.000Z</time>
      </trkpt>
      <trkpt lat="42.32281903736293315887451171875" lon="1.94288835860788822174072265625">
        <ele>1996.199951171875</ele>
        <time>2020-08-10T08:42:50.000Z</time>
      </trkpt>
      <trkpt lat="42.3228189535439014434814453125" lon="1.9428874365985393524169921875">
        <ele>1996.4000244140625</ele>
        <time>2020-08-10T08:43:09.000Z</time>
      </trkpt>
      <trkpt lat="42.3228186182677745819091796875" lon="1.942884922027587890625">
        <ele>1996.4000244140625</ele>
        <time>2020-08-10T08:43:56.000Z</time>
      </trkpt>
      <trkpt lat="42.3228187859058380126953125" lon="1.94288517348468303680419921875">
        <ele>1996.5999755859375</ele>
        <time>2020-08-10T08:44:07.000Z</time>
      </trkpt>
      <trkpt lat="42.32281937263906002044677734375" lon="1.9428847543895244598388671875">
        <ele>1996.199951171875</ele>
        <time>2020-08-10T08:44:45.000Z</time>
      </trkpt>
      <trkpt lat="42.32280596159398555755615234375" lon="1.9428552500903606414794921875">
        <ele>1996.4000244140625</ele>
        <time>2020-08-10T08:44:50.000Z</time>
      </trkpt>
      <trkpt lat="42.32280202209949493408203125" lon="1.9428408332169055938720703125">
        <ele>1996.5999755859375</ele>
        <time>2020-08-10T08:44:51.000Z</time>
      </trkpt>
      <trkpt lat="42.32275365851819515228271484375" lon="1.9427030347287654876708984375">
        <ele>1996.5999755859375</ele>
        <time>2020-08-10T08:44:58.000Z</time>
      </trkpt>
      <trkpt lat="42.32269330881536006927490234375" lon="1.94256012327969074249267578125">
        <ele>1996.800048828125</ele>
        <time>2020-08-10T08:45:05.000Z</time>
      </trkpt>
      <trkpt lat="42.3226653970777988433837890625" lon="1.9425340555608272552490234375">
        <ele>1996.800048828125</ele>
        <time>2020-08-10T08:45:07.000Z</time>
      </trkpt>
      <trkpt lat="42.32262390665709972381591796875" lon="1.9424737058579921722412109375">
        <ele>1996.5999755859375</ele>
        <time>2020-08-10T08:45:10.000Z</time>
      </trkpt>
      <trkpt lat="42.3226097412407398223876953125" lon="1.942455768585205078125">
        <ele>1996.4000244140625</ele>
        <time>2020-08-10T08:45:14.000Z</time>
      </trkpt>
      <trkpt lat="42.3225882835686206817626953125" lon="1.94244143553078174591064453125">
        <ele>1996.5999755859375</ele>
        <time>2020-08-10T08:45:33.000Z</time>
      </trkpt>
      <trkpt lat="42.3224991001188755035400390625" lon="1.9423302076756954193115234375">
        <ele>1996.5999755859375</ele>
        <time>2020-08-10T08:45:39.000Z</time>
      </trkpt>
      <trkpt lat="42.32233439572155475616455078125" lon="1.94223037920892238616943359375">
        <ele>1996.199951171875</ele>
        <time>2020-08-10T08:45:47.000Z</time>
      </trkpt>
      <trkpt lat="42.3223143629729747772216796875" lon="1.94222048856317996978759765625">
        <ele>1995.5999755859375</ele>
        <time>2020-08-10T08:45:54.000Z</time>
      </trkpt>
      <trkpt lat="42.3222781531512737274169921875" lon="1.942198611795902252197265625">
        <ele>1995.199951171875</ele>
        <time>2020-08-10T08:45:58.000Z</time>
      </trkpt>
      <trkpt lat="42.3222429491579532623291015625" lon="1.94217354990541934967041015625">
        <ele>1994.4000244140625</ele>
        <time>2020-08-10T08:46:03.000Z</time>
      </trkpt>
      <trkpt lat="42.3222338967025279998779296875" lon="1.94216500036418437957763671875">
        <ele>1994.199951171875</ele>
        <time>2020-08-10T08:46:05.000Z</time>
      </trkpt>
      <trkpt lat="42.32221520505845546722412109375" lon="1.94214907474815845489501953125">
        <ele>1993.4000244140625</ele>
        <time>2020-08-10T08:46:09.000Z</time>
      </trkpt>
      <trkpt lat="42.32219307683408260345458984375" lon="1.94212744943797588348388671875">
        <ele>1992.800048828125</ele>
        <time>2020-08-10T08:46:12.000Z</time>
      </trkpt>
      <trkpt lat="42.3221557773649692535400390625" lon="1.94207933731377124786376953125">
        <ele>1991.800048828125</ele>
        <time>2020-08-10T08:46:17.000Z</time>
      </trkpt>
      <trkpt lat="42.322149574756622314453125" lon="1.9420693628489971160888671875">
        <ele>1991.4000244140625</ele>
        <time>2020-08-10T08:46:18.000Z</time>
      </trkpt>
      <trkpt lat="42.32213524170219898223876953125" lon="1.942045390605926513671875">
        <ele>1990.5999755859375</ele>
        <time>2020-08-10T08:46:21.000Z</time>
      </trkpt>
      <trkpt lat="42.32213708572089672088623046875" lon="1.94203935563564300537109375">
        <ele>1990</ele>
        <time>2020-08-10T08:46:25.000Z</time>
      </trkpt>
      <trkpt lat="42.32211110182106494903564453125" lon="1.9419624097645282745361328125">
        <ele>1989.800048828125</ele>
        <time>2020-08-10T08:46:31.000Z</time>
      </trkpt>
      <trkpt lat="42.3221054859459400177001953125" lon="1.94193466566503047943115234375">
        <ele>1989.5999755859375</ele>
        <time>2020-08-10T08:46:32.000Z</time>
      </trkpt>
      <trkpt lat="42.3220903985202312469482421875" lon="1.941845230758190155029296875">
        <ele>1988.4000244140625</ele>
        <time>2020-08-10T08:46:35.000Z</time>
      </trkpt>
      <trkpt lat="42.32207740657031536102294921875" lon="1.941741295158863067626953125">
        <ele>1987.4000244140625</ele>
        <time>2020-08-10T08:46:38.000Z</time>
      </trkpt>
      <trkpt lat="42.32207112014293670654296875" lon="1.9416712224483489990234375">
        <ele>1986.4000244140625</ele>
        <time>2020-08-10T08:46:40.000Z</time>
      </trkpt>
      <trkpt lat="42.3220679350197315216064453125" lon="1.941638700664043426513671875">
        <ele>1986</ele>
        <time>2020-08-10T08:46:41.000Z</time>
      </trkpt>
      <trkpt lat="42.3220565356314182281494140625" lon="1.94155463017523288726806640625">
        <ele>1984.800048828125</ele>
        <time>2020-08-10T08:46:44.000Z</time>
      </trkpt>
      <trkpt lat="42.3220521770417690277099609375" lon="1.94145924411714076995849609375">
        <ele>1983.5999755859375</ele>
        <time>2020-08-10T08:46:47.000Z</time>
      </trkpt>
      <trkpt lat="42.3220280371606349945068359375" lon="1.94136268459260463714599609375">
        <ele>1982.199951171875</ele>
        <time>2020-08-10T08:46:50.000Z</time>
      </trkpt>
      <trkpt lat="42.32197967357933521270751953125" lon="1.941255815327167510986328125">
        <ele>1981</ele>
        <time>2020-08-10T08:46:54.000Z</time>
      </trkpt>
      <trkpt lat="42.3219455592334270477294921875" lon="1.94120359607040882110595703125">
        <ele>1979.5999755859375</ele>
        <time>2020-08-10T08:46:58.000Z</time>
      </trkpt>
      <trkpt lat="42.32194505631923675537109375" lon="1.94120376370847225189208984375">
        <ele>1979.199951171875</ele>
        <time>2020-08-10T08:46:59.000Z</time>
      </trkpt>
      <trkpt lat="42.32192636467516422271728515625" lon="1.94119253195822238922119140625">
        <ele>1978.5999755859375</ele>
        <time>2020-08-10T08:47:08.000Z</time>
      </trkpt>
      <trkpt lat="42.32191530056297779083251953125" lon="1.94118699990212917327880859375">
        <ele>1978.199951171875</ele>
        <time>2020-08-10T08:47:10.000Z</time>
      </trkpt>
      <trkpt lat="42.32185863889753818511962890625" lon="1.94116621278226375579833984375">
        <ele>1977.800048828125</ele>
        <time>2020-08-10T08:47:16.000Z</time>
      </trkpt>
      <trkpt lat="42.3218382708728313446044921875" lon="1.94116319529712200164794921875">
        <ele>1977</ele>
        <time>2020-08-10T08:47:19.000Z</time>
      </trkpt>
      <trkpt lat="42.3217997141182422637939453125" lon="1.94116973318159580230712890625">
        <ele>1976.5999755859375</ele>
        <time>2020-08-10T08:47:24.000Z</time>
      </trkpt>
      <trkpt lat="42.3217477463185787200927734375" lon="1.9411768577992916107177734375">
        <ele>1975.800048828125</ele>
        <time>2020-08-10T08:47:29.000Z</time>
      </trkpt>
      <trkpt lat="42.32172385789453983306884765625" lon="1.94118247367441654205322265625">
        <ele>1975.199951171875</ele>
        <time>2020-08-10T08:47:32.000Z</time>
      </trkpt>
      <trkpt lat="42.321722768247127532958984375" lon="1.94118079729378223419189453125">
        <ele>1974.5999755859375</ele>
        <time>2020-08-10T08:47:36.000Z</time>
      </trkpt>
      <trkpt lat="42.32172335498034954071044921875" lon="1.9411788694560527801513671875">
        <ele>1974.5999755859375</ele>
        <time>2020-08-10T08:47:37.000Z</time>
      </trkpt>
      <trkpt lat="42.32172251679003238677978515625" lon="1.9411790370941162109375">
        <ele>1974.4000244140625</ele>
        <time>2020-08-10T08:47:50.000Z</time>
      </trkpt>
      <trkpt lat="42.321720086038112640380859375" lon="1.941179372370243072509765625">
        <ele>1974.4000244140625</ele>
        <time>2020-08-10T08:47:55.000Z</time>
      </trkpt>
      <trkpt lat="42.3216739855706691741943359375" lon="1.94116763770580291748046875">
        <ele>1974.199951171875</ele>
        <time>2020-08-10T08:47:58.000Z</time>
      </trkpt>
      <trkpt lat="42.32157248072326183319091796875" lon="1.94114911369979381561279296875">
        <ele>1973.4000244140625</ele>
        <time>2020-08-10T08:48:02.000Z</time>
      </trkpt>
      <trkpt lat="42.3215100355446338653564453125" lon="1.941144503653049468994140625">
        <ele>1972</ele>
        <time>2020-08-10T08:48:04.000Z</time>
      </trkpt>
      <trkpt lat="42.32138874940574169158935546875" lon="1.94113654084503650665283203125">
        <ele>1971</ele>
        <time>2020-08-10T08:48:07.000Z</time>
      </trkpt>
      <trkpt lat="42.32123301364481449127197265625" lon="1.94114190526306629180908203125">
        <ele>1969.5999755859375</ele>
        <time>2020-08-10T08:48:11.000Z</time>
      </trkpt>
      <trkpt lat="42.32095062732696533203125" lon="1.94115648977458477020263671875">
        <ele>1968.5999755859375</ele>
        <time>2020-08-10T08:48:18.000Z</time>
      </trkpt>
      <trkpt lat="42.32091450132429599761962890625" lon="1.9411584176123142242431640625">
        <ele>1968.4000244140625</ele>
        <time>2020-08-10T08:48:19.000Z</time>
      </trkpt>
      <trkpt lat="42.320754826068878173828125" lon="1.94117694161832332611083984375">
        <ele>1967.4000244140625</ele>
        <time>2020-08-10T08:48:23.000Z</time>
      </trkpt>
      <trkpt lat="42.3206406645476818084716796875" lon="1.94118297658860683441162109375">
        <ele>1967</ele>
        <time>2020-08-10T08:48:26.000Z</time>
      </trkpt>
      <trkpt lat="42.320472188293933868408203125" lon="1.94121030159294605255126953125">
        <ele>1967</ele>
        <time>2020-08-10T08:48:32.000Z</time>
      </trkpt>
      <trkpt lat="42.3203590326011180877685546875" lon="1.941224299371242523193359375">
        <ele>1967</ele>
        <time>2020-08-10T08:48:38.000Z</time>
      </trkpt>
      <trkpt lat="42.320277057588100433349609375" lon="1.94117442704737186431884765625">
        <ele>1967.199951171875</ele>
        <time>2020-08-10T08:48:43.000Z</time>
      </trkpt>
      <trkpt lat="42.320293150842189788818359375" lon="1.94103796966373920440673828125">
        <ele>1966.199951171875</ele>
        <time>2020-08-10T08:48:47.000Z</time>
      </trkpt>
      <trkpt lat="42.3203296959400177001953125" lon="1.94099002517759799957275390625">
        <ele>1965.199951171875</ele>
        <time>2020-08-10T08:48:49.000Z</time>
      </trkpt>
      <trkpt lat="42.32034889049828052520751953125" lon="1.94097057916224002838134765625">
        <ele>1965.199951171875</ele>
        <time>2020-08-10T08:48:50.000Z</time>
      </trkpt>
      <trkpt lat="42.3204046301543712615966796875" lon="1.94090888835489749908447265625">
        <ele>1964.5999755859375</ele>
        <time>2020-08-10T08:48:53.000Z</time>
      </trkpt>
      <trkpt lat="42.32050110585987567901611328125" lon="1.94081299938261508941650390625">
        <ele>1964</ele>
        <time>2020-08-10T08:48:58.000Z</time>
      </trkpt>
      <trkpt lat="42.32056262902915477752685546875" lon="1.94074074737727642059326171875">
        <ele>1963.4000244140625</ele>
        <time>2020-08-10T08:49:01.000Z</time>
      </trkpt>
      <trkpt lat="42.320608980953693389892578125" lon="1.9407074712216854095458984375">
        <ele>1963</ele>
        <time>2020-08-10T08:49:03.000Z</time>
      </trkpt>
      <trkpt lat="42.32071719132363796234130859375" lon="1.9406640529632568359375">
        <ele>1961.800048828125</ele>
        <time>2020-08-10T08:49:07.000Z</time>
      </trkpt>
      <trkpt lat="42.320776283740997314453125" lon="1.94063521921634674072265625">
        <ele>1960.199951171875</ele>
        <time>2020-08-10T08:49:09.000Z</time>
      </trkpt>
      <trkpt lat="42.320904023945331573486328125" lon="1.9405723549425601959228515625">
        <ele>1959.199951171875</ele>
        <time>2020-08-10T08:49:13.000Z</time>
      </trkpt>
      <trkpt lat="42.320937216281890869140625" lon="1.94056036882102489471435546875">
        <ele>1958.800048828125</ele>
        <time>2020-08-10T08:49:14.000Z</time>
      </trkpt>
      <trkpt lat="42.3209980688989162445068359375" lon="1.94053455255925655364990234375">
        <ele>1958</ele>
        <time>2020-08-10T08:49:16.000Z</time>
      </trkpt>
      <trkpt lat="42.32111616991460323333740234375" lon="1.940475963056087493896484375">
        <ele>1957</ele>
        <time>2020-08-10T08:49:20.000Z</time>
      </trkpt>
      <trkpt lat="42.3211690597236156463623046875" lon="1.94043581373989582061767578125">
        <ele>1956.5999755859375</ele>
        <time>2020-08-10T08:49:22.000Z</time>
      </trkpt>
      <trkpt lat="42.32126587070524692535400390625" lon="1.94034285843372344970703125">
        <ele>1955.5999755859375</ele>
        <time>2020-08-10T08:49:26.000Z</time>
      </trkpt>
      <trkpt lat="42.3213105462491512298583984375" lon="1.940288878977298736572265625">
        <ele>1954.5999755859375</ele>
        <time>2020-08-10T08:49:28.000Z</time>
      </trkpt>
      <trkpt lat="42.3213715665042400360107421875" lon="1.94020464085042476654052734375">
        <ele>1953.4000244140625</ele>
        <time>2020-08-10T08:49:31.000Z</time>
      </trkpt>
      <trkpt lat="42.32141624204814434051513671875" lon="1.9401331432163715362548828125">
        <ele>1952.4000244140625</ele>
        <time>2020-08-10T08:49:33.000Z</time>
      </trkpt>
      <trkpt lat="42.32143987901508808135986328125" lon="1.94009467028081417083740234375">
        <ele>1951.800048828125</ele>
        <time>2020-08-10T08:49:34.000Z</time>
      </trkpt>
      <trkpt lat="42.32146301306784152984619140625" lon="1.940055191516876220703125">
        <ele>1951.4000244140625</ele>
        <time>2020-08-10T08:49:35.000Z</time>
      </trkpt>
      <trkpt lat="42.321522943675518035888671875" lon="1.9399252720177173614501953125">
        <ele>1950.4000244140625</ele>
        <time>2020-08-10T08:49:38.000Z</time>
      </trkpt>
      <trkpt lat="42.321573235094547271728515625" lon="1.93978001363575458526611328125">
        <ele>1949.199951171875</ele>
        <time>2020-08-10T08:49:41.000Z</time>
      </trkpt>
      <trkpt lat="42.3216049186885356903076171875" lon="1.939680017530918121337890625">
        <ele>1948.199951171875</ele>
        <time>2020-08-10T08:49:43.000Z</time>
      </trkpt>
      <trkpt lat="42.3216461576521396636962890625" lon="1.93953325040638446807861328125">
        <ele>1946.800048828125</ele>
        <time>2020-08-10T08:49:46.000Z</time>
      </trkpt>
      <trkpt lat="42.3216662742197513580322265625" lon="1.93944322876632213592529296875">
        <ele>1945.4000244140625</ele>
        <time>2020-08-10T08:49:48.000Z</time>
      </trkpt>
      <trkpt lat="42.321675829589366912841796875" lon="1.93940165452659130096435546875">
        <ele>1944.800048828125</ele>
        <time>2020-08-10T08:49:49.000Z</time>
      </trkpt>
      <trkpt lat="42.321691252291202545166015625" lon="1.939325630664825439453125">
        <ele>1944</ele>
        <time>2020-08-10T08:49:51.000Z</time>
      </trkpt>
      <trkpt lat="42.32171966694295406341552734375" lon="1.939213983714580535888671875">
        <ele>1942.800048828125</ele>
        <time>2020-08-10T08:49:54.000Z</time>
      </trkpt>
      <trkpt lat="42.3217313177883625030517578125" lon="1.93913443945348262786865234375">
        <ele>1942.4000244140625</ele>
        <time>2020-08-10T08:49:56.000Z</time>
      </trkpt>
      <trkpt lat="42.32173559255897998809814453125" lon="1.93901441060006618499755859375">
        <ele>1941.5999755859375</ele>
        <time>2020-08-10T08:49:59.000Z</time>
      </trkpt>
      <trkpt lat="42.32173852622509002685546875" lon="1.93888717330992221832275390625">
        <ele>1940.4000244140625</ele>
        <time>2020-08-10T08:50:02.000Z</time>
      </trkpt>
      <trkpt lat="42.3217407055199146270751953125" lon="1.93884618580341339111328125">
        <ele>1940</ele>
        <time>2020-08-10T08:50:03.000Z</time>
      </trkpt>
      <trkpt lat="42.32174162752926349639892578125" lon="1.9387685693800449371337890625">
        <ele>1939.4000244140625</ele>
        <time>2020-08-10T08:50:05.000Z</time>
      </trkpt>
      <trkpt lat="42.32174682430922985076904296875" lon="1.93865164183080196380615234375">
        <ele>1937.800048828125</ele>
        <time>2020-08-10T08:50:08.000Z</time>
      </trkpt>
      <trkpt lat="42.3217437230050563812255859375" lon="1.938538067042827606201171875">
        <ele>1936.800048828125</ele>
        <time>2020-08-10T08:50:11.000Z</time>
      </trkpt>
      <trkpt lat="42.32174548320472240447998046875" lon="1.938499510288238525390625">
        <ele>1936.4000244140625</ele>
        <time>2020-08-10T08:50:12.000Z</time>
      </trkpt>
      <trkpt lat="42.32175084762275218963623046875" lon="1.93837679922580718994140625">
        <ele>1934.800048828125</ele>
        <time>2020-08-10T08:50:15.000Z</time>
      </trkpt>
      <trkpt lat="42.3217507638037204742431640625" lon="1.93829457275569438934326171875">
        <ele>1934.199951171875</ele>
        <time>2020-08-10T08:50:17.000Z</time>
      </trkpt>
      <trkpt lat="42.32174766249954700469970703125" lon="1.9382156990468502044677734375">
        <ele>1933.5999755859375</ele>
        <time>2020-08-10T08:50:19.000Z</time>
      </trkpt>
      <trkpt lat="42.321739532053470611572265625" lon="1.9380956701934337615966796875">
        <ele>1932.5999755859375</ele>
        <time>2020-08-10T08:50:22.000Z</time>
      </trkpt>
      <trkpt lat="42.32173441909253597259521484375" lon="1.9380073249340057373046875">
        <ele>1932.4000244140625</ele>
        <time>2020-08-10T08:50:24.000Z</time>
      </trkpt>
      <trkpt lat="42.32172503136098384857177734375" lon="1.937818564474582672119140625">
        <ele>1931</ele>
        <time>2020-08-10T08:50:28.000Z</time>
      </trkpt>
      <trkpt lat="42.3217259533703327178955078125" lon="1.9377310574054718017578125">
        <ele>1930</ele>
        <time>2020-08-10T08:50:30.000Z</time>
      </trkpt>
      <trkpt lat="42.3217232711613178253173828125" lon="1.9376886449754238128662109375">
        <ele>1929</ele>
        <time>2020-08-10T08:50:31.000Z</time>
      </trkpt>
      <trkpt lat="42.3217205889523029327392578125" lon="1.93764363415539264678955078125">
        <ele>1928.199951171875</ele>
        <time>2020-08-10T08:50:32.000Z</time>
      </trkpt>
      <trkpt lat="42.3217212595045566558837890625" lon="1.9375987909734249114990234375">
        <ele>1927.800048828125</ele>
        <time>2020-08-10T08:50:33.000Z</time>
      </trkpt>
      <trkpt lat="42.3217299766838550567626953125" lon="1.9375136308372020721435546875">
        <ele>1926.800048828125</ele>
        <time>2020-08-10T08:50:35.000Z</time>
      </trkpt>
      <trkpt lat="42.32174330390989780426025390625" lon="1.9374318234622478485107421875">
        <ele>1925.4000244140625</ele>
        <time>2020-08-10T08:50:37.000Z</time>
      </trkpt>
      <trkpt lat="42.32175772078335285186767578125" lon="1.93735009990632534027099609375">
        <ele>1924.5999755859375</ele>
        <time>2020-08-10T08:50:39.000Z</time>
      </trkpt>
      <trkpt lat="42.3217712156474590301513671875" lon="1.9372635148465633392333984375">
        <ele>1924.4000244140625</ele>
        <time>2020-08-10T08:50:41.000Z</time>
      </trkpt>
      <trkpt lat="42.321800552308559417724609375" lon="1.93713535554707050323486328125">
        <ele>1923.199951171875</ele>
        <time>2020-08-10T08:50:44.000Z</time>
      </trkpt>
      <trkpt lat="42.32182393781840801239013671875" lon="1.937015242874622344970703125">
        <ele>1922.199951171875</ele>
        <time>2020-08-10T08:50:47.000Z</time>
      </trkpt>
      <trkpt lat="42.321854867041110992431640625" lon="1.93688423372805118560791015625">
        <ele>1921</ele>
        <time>2020-08-10T08:50:50.000Z</time>
      </trkpt>
      <trkpt lat="42.32187674380838871002197265625" lon="1.93679454736411571502685546875">
        <ele>1920</ele>
        <time>2020-08-10T08:50:52.000Z</time>
      </trkpt>
      <trkpt lat="42.32190842740237712860107421875" lon="1.9366677291691303253173828125">
        <ele>1918.800048828125</ele>
        <time>2020-08-10T08:50:55.000Z</time>
      </trkpt>
      <trkpt lat="42.32192669995129108428955078125" lon="1.936496235430240631103515625">
        <ele>1917.800048828125</ele>
        <time>2020-08-10T08:50:59.000Z</time>
      </trkpt>
      <trkpt lat="42.32193307019770145416259765625" lon="1.9364504702389240264892578125">
        <ele>1917.5999755859375</ele>
        <time>2020-08-10T08:51:00.000Z</time>
      </trkpt>
      <trkpt lat="42.32195402495563030242919921875" lon="1.93632381968200206756591796875">
        <ele>1916.199951171875</ele>
        <time>2020-08-10T08:51:03.000Z</time>
      </trkpt>
      <trkpt lat="42.321948744356632232666015625" lon="1.93619440309703350067138671875">
        <ele>1914.800048828125</ele>
        <time>2020-08-10T08:51:06.000Z</time>
      </trkpt>
      <trkpt lat="42.32193709351122379302978515625" lon="1.93610337562859058380126953125">
        <ele>1914</ele>
        <time>2020-08-10T08:51:08.000Z</time>
      </trkpt>
      <trkpt lat="42.3219318129122257232666015625" lon="1.93605258129537105560302734375">
        <ele>1913.5999755859375</ele>
        <time>2020-08-10T08:51:09.000Z</time>
      </trkpt>
      <trkpt lat="42.32189417816698551177978515625" lon="1.9358561933040618896484375">
        <ele>1912.199951171875</ele>
        <time>2020-08-10T08:51:13.000Z</time>
      </trkpt>
      <trkpt lat="42.32186936773359775543212890625" lon="1.935772038996219635009765625">
        <ele>1911.5999755859375</ele>
        <time>2020-08-10T08:51:15.000Z</time>
      </trkpt>
      <trkpt lat="42.3218466527760028839111328125" lon="1.9356900639832019805908203125">
        <ele>1910.800048828125</ele>
        <time>2020-08-10T08:51:17.000Z</time>
      </trkpt>
      <trkpt lat="42.3217995464801788330078125" lon="1.9355693645775318145751953125">
        <ele>1909.5999755859375</ele>
        <time>2020-08-10T08:51:20.000Z</time>
      </trkpt>
      <trkpt lat="42.3217685334384441375732421875" lon="1.93548345007002353668212890625">
        <ele>1908.800048828125</ele>
        <time>2020-08-10T08:51:22.000Z</time>
      </trkpt>
      <trkpt lat="42.321753613650798797607421875" lon="1.935442127287387847900390625">
        <ele>1908.5999755859375</ele>
        <time>2020-08-10T08:51:23.000Z</time>
      </trkpt>
      <trkpt lat="42.3217071779072284698486328125" lon="1.9353256188333034515380859375">
        <ele>1907.199951171875</ele>
        <time>2020-08-10T08:51:26.000Z</time>
      </trkpt>
      <trkpt lat="42.321663759648799896240234375" lon="1.9352025724947452545166015625">
        <ele>1906.5999755859375</ele>
        <time>2020-08-10T08:51:29.000Z</time>
      </trkpt>
      <trkpt lat="42.32163618318736553192138671875" lon="1.9351154007017612457275390625">
        <ele>1906.199951171875</ele>
        <time>2020-08-10T08:51:31.000Z</time>
      </trkpt>
      <trkpt lat="42.321597374975681304931640625" lon="1.9349675439298152923583984375">
        <ele>1905.199951171875</ele>
        <time>2020-08-10T08:51:35.000Z</time>
      </trkpt>
      <trkpt lat="42.32157566584646701812744140625" lon="1.934865452349185943603515625">
        <ele>1904.4000244140625</ele>
        <time>2020-08-10T08:51:38.000Z</time>
      </trkpt>
      <trkpt lat="42.32156686484813690185546875" lon="1.9347932003438472747802734375">
        <ele>1903.800048828125</ele>
        <time>2020-08-10T08:51:40.000Z</time>
      </trkpt>
      <trkpt lat="42.32156409882009029388427734375" lon="1.9347264803946018218994140625">
        <ele>1903</ele>
        <time>2020-08-10T08:51:42.000Z</time>
      </trkpt>
      <trkpt lat="42.32156393118202686309814453125" lon="1.9346974790096282958984375">
        <ele>1902.4000244140625</ele>
        <time>2020-08-10T08:51:43.000Z</time>
      </trkpt>
      <trkpt lat="42.321560494601726531982421875" lon="1.93465883843600749969482421875">
        <ele>1901.4000244140625</ele>
        <time>2020-08-10T08:51:45.000Z</time>
      </trkpt>
      <trkpt lat="42.3215599916875362396240234375" lon="1.9346450082957744598388671875">
        <ele>1900.800048828125</ele>
        <time>2020-08-10T08:51:47.000Z</time>
      </trkpt>
      <trkpt lat="42.32155370526015758514404296875" lon="1.9345883466303348541259765625">
        <ele>1900.4000244140625</ele>
        <time>2020-08-10T08:51:50.000Z</time>
      </trkpt>
      <trkpt lat="42.32155479490756988525390625" lon="1.93456646986305713653564453125">
        <ele>1900.199951171875</ele>
        <time>2020-08-10T08:51:51.000Z</time>
      </trkpt>
      <trkpt lat="42.32157147489488124847412109375" lon="1.93445540964603424072265625">
        <ele>1899</ele>
        <time>2020-08-10T08:51:56.000Z</time>
      </trkpt>
      <trkpt lat="42.32157533057034015655517578125" lon="1.9344344548881053924560546875">
        <ele>1898.4000244140625</ele>
        <time>2020-08-10T08:51:57.000Z</time>
      </trkpt>
      <trkpt lat="42.3215801082551479339599609375" lon="1.9344176910817623138427734375">
        <ele>1897.800048828125</ele>
        <time>2020-08-10T08:51:58.000Z</time>
      </trkpt>
      <trkpt lat="42.32157331891357898712158203125" lon="1.934400089085102081298828125">
        <ele>1896.800048828125</ele>
        <time>2020-08-10T08:52:02.000Z</time>
      </trkpt>
      <trkpt lat="42.3215663619339466094970703125" lon="1.93435658700764179229736328125">
        <ele>1896.4000244140625</ele>
        <time>2020-08-10T08:52:14.000Z</time>
      </trkpt>
      <trkpt lat="42.321567200124263763427734375" lon="1.9343456067144870758056640625">
        <ele>1896.4000244140625</ele>
        <time>2020-08-10T08:52:18.000Z</time>
      </trkpt>
      <trkpt lat="42.32156845740973949432373046875" lon="1.9343291781842708587646484375">
        <ele>1896.199951171875</ele>
        <time>2020-08-10T08:52:19.000Z</time>
      </trkpt>
      <trkpt lat="42.32158186845481395721435546875" lon="1.93428031168878078460693359375">
        <ele>1895.800048828125</ele>
        <time>2020-08-10T08:52:21.000Z</time>
      </trkpt>
      <trkpt lat="42.32160869054496288299560546875" lon="1.93419984541833400726318359375">
        <ele>1895.199951171875</ele>
        <time>2020-08-10T08:52:24.000Z</time>
      </trkpt>
      <trkpt lat="42.32163299806416034698486328125" lon="1.934133879840373992919921875">
        <ele>1894.5999755859375</ele>
        <time>2020-08-10T08:52:26.000Z</time>
      </trkpt>
      <trkpt lat="42.32165780849754810333251953125" lon="1.93407990038394927978515625">
        <ele>1893.199951171875</ele>
        <time>2020-08-10T08:52:28.000Z</time>
      </trkpt>
      <trkpt lat="42.32167909853160381317138671875" lon="1.93403187207877635955810546875">
        <ele>1891.5999755859375</ele>
        <time>2020-08-10T08:52:30.000Z</time>
      </trkpt>
      <trkpt lat="42.32170491479337215423583984375" lon="1.93395207636058330535888671875">
        <ele>1890.4000244140625</ele>
        <time>2020-08-10T08:52:33.000Z</time>
      </trkpt>
      <trkpt lat="42.321733497083187103271484375" lon="1.93387010134756565093994140625">
        <ele>1889.199951171875</ele>
        <time>2020-08-10T08:52:36.000Z</time>
      </trkpt>
      <trkpt lat="42.3217547871172428131103515625" lon="1.93377471528947353363037109375">
        <ele>1887.5999755859375</ele>
        <time>2020-08-10T08:52:39.000Z</time>
      </trkpt>
      <trkpt lat="42.321781106293201446533203125" lon="1.933665834367275238037109375">
        <ele>1886.199951171875</ele>
        <time>2020-08-10T08:52:42.000Z</time>
      </trkpt>
      <trkpt lat="42.32178873382508754730224609375" lon="1.93362786434590816497802734375">
        <ele>1885.800048828125</ele>
        <time>2020-08-10T08:52:43.000Z</time>
      </trkpt>
      <trkpt lat="42.32179594226181507110595703125" lon="1.93359064869582653045654296875">
        <ele>1885</ele>
        <time>2020-08-10T08:52:44.000Z</time>
      </trkpt>
      <trkpt lat="42.32180465944111347198486328125" lon="1.93351931869983673095703125">
        <ele>1883.199951171875</ele>
        <time>2020-08-10T08:52:46.000Z</time>
      </trkpt>
      <trkpt lat="42.32180826365947723388671875" lon="1.93342569284141063690185546875">
        <ele>1882.199951171875</ele>
        <time>2020-08-10T08:52:49.000Z</time>
      </trkpt>
      <trkpt lat="42.32180616818368434906005859375" lon="1.933272220194339752197265625">
        <ele>1881</ele>
        <time>2020-08-10T08:52:53.000Z</time>
      </trkpt>
      <trkpt lat="42.32179476879537105560302734375" lon="1.93319686688482761383056640625">
        <ele>1879.5999755859375</ele>
        <time>2020-08-10T08:52:55.000Z</time>
      </trkpt>
      <trkpt lat="42.3217836208641529083251953125" lon="1.93313400261104106903076171875">
        <ele>1878.4000244140625</ele>
        <time>2020-08-10T08:52:57.000Z</time>
      </trkpt>
      <trkpt lat="42.32177473604679107666015625" lon="1.93306929431855678558349609375">
        <ele>1877</ele>
        <time>2020-08-10T08:53:00.000Z</time>
      </trkpt>
      <trkpt lat="42.32177247293293476104736328125" lon="1.933051608502864837646484375">
        <ele>1876.4000244140625</ele>
        <time>2020-08-10T08:53:01.000Z</time>
      </trkpt>
      <trkpt lat="42.32176861725747585296630859375" lon="1.93302704952657222747802734375">
        <ele>1875.5999755859375</ele>
        <time>2020-08-10T08:53:02.000Z</time>
      </trkpt>
      <trkpt lat="42.32175839133560657501220703125" lon="1.93292831070721149444580078125">
        <ele>1874.800048828125</ele>
        <time>2020-08-10T08:53:05.000Z</time>
      </trkpt>
      <trkpt lat="42.3217567987740039825439453125" lon="1.9328958727419376373291015625">
        <ele>1874.4000244140625</ele>
        <time>2020-08-10T08:53:06.000Z</time>
      </trkpt>
      <trkpt lat="42.321750260889530181884765625" lon="1.93282638676464557647705078125">
        <ele>1873.199951171875</ele>
        <time>2020-08-10T08:53:09.000Z</time>
      </trkpt>
      <trkpt lat="42.32174699194729328155517578125" lon="1.93280928768217563629150390625">
        <ele>1872.800048828125</ele>
        <time>2020-08-10T08:53:10.000Z</time>
      </trkpt>
      <trkpt lat="42.32174112461507320404052734375" lon="1.93275614641606807708740234375">
        <ele>1872</ele>
        <time>2020-08-10T08:53:13.000Z</time>
      </trkpt>
      <trkpt lat="42.32174028642475605010986328125" lon="1.93265439011156558990478515625">
        <ele>1870.800048828125</ele>
        <time>2020-08-10T08:53:17.000Z</time>
      </trkpt>
      <trkpt lat="42.321730144321918487548828125" lon="1.93257325328886508941650390625">
        <ele>1869.4000244140625</ele>
        <time>2020-08-10T08:53:20.000Z</time>
      </trkpt>
      <trkpt lat="42.3217175714671611785888671875" lon="1.93243981339037418365478515625">
        <ele>1868</ele>
        <time>2020-08-10T08:53:24.000Z</time>
      </trkpt>
      <trkpt lat="42.32171514071524143218994140625" lon="1.932364292442798614501953125">
        <ele>1866.800048828125</ele>
        <time>2020-08-10T08:53:26.000Z</time>
      </trkpt>
      <trkpt lat="42.32171899639070034027099609375" lon="1.9322947226464748382568359375">
        <ele>1865.5999755859375</ele>
        <time>2020-08-10T08:53:28.000Z</time>
      </trkpt>
      <trkpt lat="42.32172352261841297149658203125" lon="1.93224200047552585601806640625">
        <ele>1864.4000244140625</ele>
        <time>2020-08-10T08:53:30.000Z</time>
      </trkpt>
      <trkpt lat="42.3217313177883625030517578125" lon="1.93220629356801509857177734375">
        <ele>1863.4000244140625</ele>
        <time>2020-08-10T08:53:32.000Z</time>
      </trkpt>
      <trkpt lat="42.3217324912548065185546875" lon="1.93218919448554515838623046875">
        <ele>1862.4000244140625</ele>
        <time>2020-08-10T08:53:35.000Z</time>
      </trkpt>
      <trkpt lat="42.32172838412225246429443359375" lon="1.9321867637336254119873046875">
        <ele>1861.800048828125</ele>
        <time>2020-08-10T08:53:41.000Z</time>
      </trkpt>
      <trkpt lat="42.3217276297509670257568359375" lon="1.9321870990097522735595703125">
        <ele>1862</ele>
        <time>2020-08-10T08:53:50.000Z</time>
      </trkpt>
      <trkpt lat="42.32172754593193531036376953125" lon="1.9321887753903865814208984375">
        <ele>1862.199951171875</ele>
        <time>2020-08-10T08:54:14.000Z</time>
      </trkpt>
      <trkpt lat="42.3217229358851909637451171875" lon="1.932164132595062255859375">
        <ele>1862</ele>
        <time>2020-08-10T08:54:26.000Z</time>
      </trkpt>
      <trkpt lat="42.32173894532024860382080078125" lon="1.9320710934698581695556640625">
        <ele>1861.199951171875</ele>
        <time>2020-08-10T08:54:32.000Z</time>
      </trkpt>
      <trkpt lat="42.3217433877289295196533203125" lon="1.9320479594171047210693359375">
        <ele>1860.800048828125</ele>
        <time>2020-08-10T08:54:33.000Z</time>
      </trkpt>
      <trkpt lat="42.321755625307559967041015625" lon="1.9320006854832172393798828125">
        <ele>1859.800048828125</ele>
        <time>2020-08-10T08:54:35.000Z</time>
      </trkpt>
      <trkpt lat="42.32177607715129852294921875" lon="1.931933462619781494140625">
        <ele>1858.5999755859375</ele>
        <time>2020-08-10T08:54:38.000Z</time>
      </trkpt>
      <trkpt lat="42.32179108075797557830810546875" lon="1.9319034554064273834228515625">
        <ele>1858</ele>
        <time>2020-08-10T08:54:40.000Z</time>
      </trkpt>
      <trkpt lat="42.3217920027673244476318359375" lon="1.93187554366886615753173828125">
        <ele>1857.199951171875</ele>
        <time>2020-08-10T08:54:43.000Z</time>
      </trkpt>
      <trkpt lat="42.3217914998531341552734375" lon="1.9318323768675327301025390625">
        <ele>1856.199951171875</ele>
        <time>2020-08-10T08:54:47.000Z</time>
      </trkpt>
      <trkpt lat="42.32179309241473674774169921875" lon="1.93181720562279224395751953125">
        <ele>1856</ele>
        <time>2020-08-10T08:54:48.000Z</time>
      </trkpt>
      <trkpt lat="42.32181119732558727264404296875" lon="1.931731961667537689208984375">
        <ele>1854.800048828125</ele>
        <time>2020-08-10T08:54:52.000Z</time>
      </trkpt>
      <trkpt lat="42.32182745821774005889892578125" lon="1.93166918121278285980224609375">
        <ele>1854.4000244140625</ele>
        <time>2020-08-10T08:54:54.000Z</time>
      </trkpt>
      <trkpt lat="42.32184656895697116851806640625" lon="1.9316022098064422607421875">
        <ele>1853.4000244140625</ele>
        <time>2020-08-10T08:54:56.000Z</time>
      </trkpt>
      <trkpt lat="42.32186065055429935455322265625" lon="1.93153372965753078460693359375">
        <ele>1852.4000244140625</ele>
        <time>2020-08-10T08:54:58.000Z</time>
      </trkpt>
      <trkpt lat="42.3218795098364353179931640625" lon="1.93146751262247562408447265625">
        <ele>1851</ele>
        <time>2020-08-10T08:55:00.000Z</time>
      </trkpt>
      <trkpt lat="42.3218905739486217498779296875" lon="1.93142987787723541259765625">
        <ele>1850.5999755859375</ele>
        <time>2020-08-10T08:55:01.000Z</time>
      </trkpt>
      <trkpt lat="42.3219013027846813201904296875" lon="1.9313955120742321014404296875">
        <ele>1850</ele>
        <time>2020-08-10T08:55:02.000Z</time>
      </trkpt>
      <trkpt lat="42.32192401774227619171142578125" lon="1.93131512962281703948974609375">
        <ele>1848.4000244140625</ele>
        <time>2020-08-10T08:55:04.000Z</time>
      </trkpt>
      <trkpt lat="42.321945726871490478515625" lon="1.93123675882816314697265625">
        <ele>1847.199951171875</ele>
        <time>2020-08-10T08:55:06.000Z</time>
      </trkpt>
      <trkpt lat="42.32195268385112285614013671875" lon="1.931198537349700927734375">
        <ele>1846.5999755859375</ele>
        <time>2020-08-10T08:55:07.000Z</time>
      </trkpt>
      <trkpt lat="42.32196123339235782623291015625" lon="1.93116291426122188568115234375">
        <ele>1845.5999755859375</ele>
        <time>2020-08-10T08:55:08.000Z</time>
      </trkpt>
      <trkpt lat="42.32198118232190608978271484375" lon="1.93109367974102497100830078125">
        <ele>1844.199951171875</ele>
        <time>2020-08-10T08:55:10.000Z</time>
      </trkpt>
      <trkpt lat="42.322020493447780609130859375" lon="1.93099745549261569976806640625">
        <ele>1843.199951171875</ele>
        <time>2020-08-10T08:55:13.000Z</time>
      </trkpt>
      <trkpt lat="42.322033904492855072021484375" lon="1.93096627481281757354736328125">
        <ele>1843</ele>
        <time>2020-08-10T08:55:14.000Z</time>
      </trkpt>
      <trkpt lat="42.32206131331622600555419921875" lon="1.93090282380580902099609375">
        <ele>1842</ele>
        <time>2020-08-10T08:55:16.000Z</time>
      </trkpt>
      <trkpt lat="42.32208989560604095458984375" lon="1.9308416359126567840576171875">
        <ele>1840.800048828125</ele>
        <time>2020-08-10T08:55:18.000Z</time>
      </trkpt>
      <trkpt lat="42.322113700211048126220703125" lon="1.93078673444688320159912109375">
        <ele>1839.5999755859375</ele>
        <time>2020-08-10T08:55:20.000Z</time>
      </trkpt>
      <trkpt lat="42.3221346549689769744873046875" lon="1.93073828704655170440673828125">
        <ele>1838.4000244140625</ele>
        <time>2020-08-10T08:55:22.000Z</time>
      </trkpt>
      <trkpt lat="42.3221668414771556854248046875" lon="1.9306527078151702880859375">
        <ele>1837.4000244140625</ele>
        <time>2020-08-10T08:55:25.000Z</time>
      </trkpt>
      <trkpt lat="42.3222045600414276123046875" lon="1.930577941238880157470703125">
        <ele>1836.199951171875</ele>
        <time>2020-08-10T08:55:28.000Z</time>
      </trkpt>
      <trkpt lat="42.3222392611205577850341796875" lon="1.93049244582653045654296875">
        <ele>1835</ele>
        <time>2020-08-10T08:55:31.000Z</time>
      </trkpt>
      <trkpt lat="42.32225107960402965545654296875" lon="1.930463276803493499755859375">
        <ele>1834</ele>
        <time>2020-08-10T08:55:32.000Z</time>
      </trkpt>
      <trkpt lat="42.3222635686397552490234375" lon="1.930432431399822235107421875">
        <ele>1833.5999755859375</ele>
        <time>2020-08-10T08:55:33.000Z</time>
      </trkpt>
      <trkpt lat="42.32229701243340969085693359375" lon="1.93034651689231395721435546875">
        <ele>1832</ele>
        <time>2020-08-10T08:55:36.000Z</time>
      </trkpt>
      <trkpt lat="42.32231788337230682373046875" lon="1.9302974827587604522705078125">
        <ele>1830.800048828125</ele>
        <time>2020-08-10T08:55:38.000Z</time>
      </trkpt>
      <trkpt lat="42.32233037240803241729736328125" lon="1.9302488677203655242919921875">
        <ele>1829.5999755859375</ele>
        <time>2020-08-10T08:55:40.000Z</time>
      </trkpt>
      <trkpt lat="42.3223368264734745025634765625" lon="1.9302267394959926605224609375">
        <ele>1829.199951171875</ele>
        <time>2020-08-10T08:55:41.000Z</time>
      </trkpt>
      <trkpt lat="42.32234344817698001861572265625" lon="1.93020050413906574249267578125">
        <ele>1828.4000244140625</ele>
        <time>2020-08-10T08:55:44.000Z</time>
      </trkpt>
      <trkpt lat="42.3223431967198848724365234375" lon="1.93019933067262172698974609375">
        <ele>1828.199951171875</ele>
        <time>2020-08-10T08:55:45.000Z</time>
      </trkpt>
      <trkpt lat="42.32235015369951725006103515625" lon="1.930167563259601593017578125">
        <ele>1827.5999755859375</ele>
        <time>2020-08-10T08:55:50.000Z</time>
      </trkpt>
      <trkpt lat="42.3223576135933399200439453125" lon="1.930152475833892822265625">
        <ele>1827.4000244140625</ele>
        <time>2020-08-10T08:55:51.000Z</time>
      </trkpt>
      <trkpt lat="42.32237018644809722900390625" lon="1.9301026873290538787841796875">
        <ele>1826.4000244140625</ele>
        <time>2020-08-10T08:55:55.000Z</time>
      </trkpt>
      <trkpt lat="42.32237295247614383697509765625" lon="1.93009078502655029296875">
        <ele>1826</ele>
        <time>2020-08-10T08:55:56.000Z</time>
      </trkpt>
      <trkpt lat="42.3223887942731380462646484375" lon="1.9300384819507598876953125">
        <ele>1825.5999755859375</ele>
        <time>2020-08-10T08:56:00.000Z</time>
      </trkpt>
      <trkpt lat="42.3223961703479290008544921875" lon="1.92999598570168018341064453125">
        <ele>1824.800048828125</ele>
        <time>2020-08-10T08:56:03.000Z</time>
      </trkpt>
      <trkpt lat="42.322406060993671417236328125" lon="1.92997218109667301177978515625">
        <ele>1824.4000244140625</ele>
        <time>2020-08-10T08:56:05.000Z</time>
      </trkpt>
      <trkpt lat="42.3224270157516002655029296875" lon="1.929906718432903289794921875">
        <ele>1823.4000244140625</ele>
        <time>2020-08-10T08:56:10.000Z</time>
      </trkpt>
      <trkpt lat="42.3224303685128688812255859375" lon="1.92989238537847995758056640625">
        <ele>1823.199951171875</ele>
        <time>2020-08-10T08:56:11.000Z</time>
      </trkpt>
      <trkpt lat="42.32243849895894527435302734375" lon="1.9298619590699672698974609375">
        <ele>1822</ele>
        <time>2020-08-10T08:56:13.000Z</time>
      </trkpt>
      <trkpt lat="42.32245509512722492218017578125" lon="1.92982784472405910491943359375">
        <ele>1821</ele>
        <time>2020-08-10T08:56:16.000Z</time>
      </trkpt>
      <trkpt lat="42.32246448285877704620361328125" lon="1.92980370484292507171630859375">
        <ele>1820.5999755859375</ele>
        <time>2020-08-10T08:56:18.000Z</time>
      </trkpt>
      <trkpt lat="42.322481833398342132568359375" lon="1.92974838428199291229248046875">
        <ele>1820</ele>
        <time>2020-08-10T08:56:22.000Z</time>
      </trkpt>
      <trkpt lat="42.32249147258698940277099609375" lon="1.92970647476613521575927734375">
        <ele>1818.800048828125</ele>
        <time>2020-08-10T08:56:25.000Z</time>
      </trkpt>
      <trkpt lat="42.32250069268047809600830078125" lon="1.9296835921704769134521484375">
        <ele>1818.199951171875</ele>
        <time>2020-08-10T08:56:27.000Z</time>
      </trkpt>
      <trkpt lat="42.3225074820220470428466796875" lon="1.9296628050506114959716796875">
        <ele>1817.800048828125</ele>
        <time>2020-08-10T08:56:29.000Z</time>
      </trkpt>
      <trkpt lat="42.3225125111639499664306640625" lon="1.9296510703861713409423828125">
        <ele>1817.5999755859375</ele>
        <time>2020-08-10T08:56:30.000Z</time>
      </trkpt>
      <trkpt lat="42.32252013869583606719970703125" lon="1.929608993232250213623046875">
        <ele>1817</ele>
        <time>2020-08-10T08:56:33.000Z</time>
      </trkpt>
      <trkpt lat="42.3225225694477558135986328125" lon="1.92959784530103206634521484375">
        <ele>1816.5999755859375</ele>
        <time>2020-08-10T08:56:34.000Z</time>
      </trkpt>
      <trkpt lat="42.3225317895412445068359375" lon="1.92957739345729351043701171875">
        <ele>1815.800048828125</ele>
        <time>2020-08-10T08:56:36.000Z</time>
      </trkpt>
      <trkpt lat="42.32253857888281345367431640625" lon="1.92956968210637569427490234375">
        <ele>1815.4000244140625</ele>
        <time>2020-08-10T08:56:37.000Z</time>
      </trkpt>
      <trkpt lat="42.3225440271198749542236328125" lon="1.9295397587120532989501953125">
        <ele>1815</ele>
        <time>2020-08-10T08:56:39.000Z</time>
      </trkpt>
      <trkpt lat="42.3225540854036808013916015625" lon="1.9295042194426059722900390625">
        <ele>1814.4000244140625</ele>
        <time>2020-08-10T08:56:42.000Z</time>
      </trkpt>
      <trkpt lat="42.32255986891686916351318359375" lon="1.92949458025395870208740234375">
        <ele>1813.5999755859375</ele>
        <time>2020-08-10T08:56:45.000Z</time>
      </trkpt>
      <trkpt lat="42.322556935250759124755859375" lon="1.92949038930237293243408203125">
        <ele>1813.199951171875</ele>
        <time>2020-08-10T08:56:48.000Z</time>
      </trkpt>
      <trkpt lat="42.32255366630852222442626953125" lon="1.9294877909123897552490234375">
        <ele>1813.5999755859375</ele>
        <time>2020-08-10T08:56:56.000Z</time>
      </trkpt>
      <trkpt lat="42.32255391776561737060546875" lon="1.92949038930237293243408203125">
        <ele>1813.4000244140625</ele>
        <time>2020-08-10T08:57:21.000Z</time>
      </trkpt>
      <trkpt lat="42.3225534148514270782470703125" lon="1.92949340678751468658447265625">
        <ele>1813.4000244140625</ele>
        <time>2020-08-10T08:57:41.000Z</time>
      </trkpt>
      <trkpt lat="42.32256573624908924102783203125" lon="1.92946641705930233001708984375">
        <ele>1813</ele>
        <time>2020-08-10T08:57:59.000Z</time>
      </trkpt>
      <trkpt lat="42.32257596217095851898193359375" lon="1.92943708039820194244384765625">
        <ele>1812.4000244140625</ele>
        <time>2020-08-10T08:58:04.000Z</time>
      </trkpt>
      <trkpt lat="42.32258652336895465850830078125" lon="1.9294177182018756866455078125">
        <ele>1811.800048828125</ele>
        <time>2020-08-10T08:58:07.000Z</time>
      </trkpt>
      <trkpt lat="42.32258803211152553558349609375" lon="1.92940346896648406982421875">
        <ele>1811.4000244140625</ele>
        <time>2020-08-10T08:58:09.000Z</time>
      </trkpt>
      <trkpt lat="42.322597838938236236572265625" lon="1.92936868406832218170166015625">
        <ele>1810.5999755859375</ele>
        <time>2020-08-10T08:58:13.000Z</time>
      </trkpt>
      <trkpt lat="42.322605550289154052734375" lon="1.929351501166820526123046875">
        <ele>1810.4000244140625</ele>
        <time>2020-08-10T08:58:15.000Z</time>
      </trkpt>
      <trkpt lat="42.3226281814277172088623046875" lon="1.92930783145129680633544921875">
        <ele>1809.199951171875</ele>
        <time>2020-08-10T08:58:20.000Z</time>
      </trkpt>
      <trkpt lat="42.32266078703105449676513671875" lon="1.92926122806966304779052734375">
        <ele>1807.800048828125</ele>
        <time>2020-08-10T08:58:26.000Z</time>
      </trkpt>
      <trkpt lat="42.3226674087345600128173828125" lon="1.929238848388195037841796875">
        <ele>1807</ele>
        <time>2020-08-10T08:58:28.000Z</time>
      </trkpt>
      <trkpt lat="42.3226714320480823516845703125" lon="1.9292266108095645904541015625">
        <ele>1806.800048828125</ele>
        <time>2020-08-10T08:58:29.000Z</time>
      </trkpt>
      <trkpt lat="42.32268827967345714569091796875" lon="1.92917908541858196258544921875">
        <ele>1805.4000244140625</ele>
        <time>2020-08-10T08:58:33.000Z</time>
      </trkpt>
      <trkpt lat="42.3227046243846416473388671875" lon="1.92915075458586215972900390625">
        <ele>1804.800048828125</ele>
        <time>2020-08-10T08:58:36.000Z</time>
      </trkpt>
      <trkpt lat="42.32271795161068439483642578125" lon="1.92910985089838504791259765625">
        <ele>1804.4000244140625</ele>
        <time>2020-08-10T08:58:39.000Z</time>
      </trkpt>
      <trkpt lat="42.32273303903639316558837890625" lon="1.92907414399087429046630859375">
        <ele>1803.5999755859375</ele>
        <time>2020-08-10T08:58:43.000Z</time>
      </trkpt>
      <trkpt lat="42.32273773290216922760009765625" lon="1.9290567934513092041015625">
        <ele>1803</ele>
        <time>2020-08-10T08:58:45.000Z</time>
      </trkpt>
      <trkpt lat="42.32275106012821197509765625" lon="1.92900247871875762939453125">
        <ele>1801.800048828125</ele>
        <time>2020-08-10T08:58:49.000Z</time>
      </trkpt>
      <trkpt lat="42.3227592743933200836181640625" lon="1.92896618507802486419677734375">
        <ele>1800.800048828125</ele>
        <time>2020-08-10T08:58:52.000Z</time>
      </trkpt>
      <trkpt lat="42.3227619566023349761962890625" lon="1.9289520196616649627685546875">
        <ele>1800.5999755859375</ele>
        <time>2020-08-10T08:58:53.000Z</time>
      </trkpt>
      <trkpt lat="42.3227705061435699462890625" lon="1.92890994250774383544921875">
        <ele>1799.5999755859375</ele>
        <time>2020-08-10T08:58:56.000Z</time>
      </trkpt>
      <trkpt lat="42.32277494855225086212158203125" lon="1.928857974708080291748046875">
        <ele>1798.800048828125</ele>
        <time>2020-08-10T08:58:59.000Z</time>
      </trkpt>
      <trkpt lat="42.3227770440280437469482421875" lon="1.92884263582527637481689453125">
        <ele>1798.199951171875</ele>
        <time>2020-08-10T08:59:00.000Z</time>
      </trkpt>
      <trkpt lat="42.32278416864573955535888671875" lon="1.92879485897719860076904296875">
        <ele>1797.199951171875</ele>
        <time>2020-08-10T08:59:03.000Z</time>
      </trkpt>
      <trkpt lat="42.3227951489388942718505859375" lon="1.9287528656423091888427734375">
        <ele>1796.199951171875</ele>
        <time>2020-08-10T08:59:06.000Z</time>
      </trkpt>
      <trkpt lat="42.322807051241397857666015625" lon="1.92870366387069225311279296875">
        <ele>1795.4000244140625</ele>
        <time>2020-08-10T08:59:10.000Z</time>
      </trkpt>
      <trkpt lat="42.32281233184039592742919921875" lon="1.92867650650441646575927734375">
        <ele>1795</ele>
        <time>2020-08-10T08:59:12.000Z</time>
      </trkpt>
      <trkpt lat="42.32282616198062896728515625" lon="1.92862772382795810699462890625">
        <ele>1793.5999755859375</ele>
        <time>2020-08-10T08:59:16.000Z</time>
      </trkpt>
      <trkpt lat="42.32283278368413448333740234375" lon="1.92858095280826091766357421875">
        <ele>1793</ele>
        <time>2020-08-10T08:59:19.000Z</time>
      </trkpt>
      <trkpt lat="42.322839908301830291748046875" lon="1.9285480119287967681884765625">
        <ele>1792</ele>
        <time>2020-08-10T08:59:21.000Z</time>
      </trkpt>
      <trkpt lat="42.322848625481128692626953125" lon="1.92851138301193714141845703125">
        <ele>1791</ele>
        <time>2020-08-10T08:59:24.000Z</time>
      </trkpt>
      <trkpt lat="42.32286237180233001708984375" lon="1.9284615106880664825439453125">
        <ele>1789.800048828125</ele>
        <time>2020-08-10T08:59:28.000Z</time>
      </trkpt>
      <trkpt lat="42.32286815531551837921142578125" lon="1.9283988140523433685302734375">
        <ele>1788.800048828125</ele>
        <time>2020-08-10T08:59:33.000Z</time>
      </trkpt>
      <trkpt lat="42.3228657245635986328125" lon="1.92837341688573360443115234375">
        <ele>1788.5999755859375</ele>
        <time>2020-08-10T08:59:35.000Z</time>
      </trkpt>
      <trkpt lat="42.32286480255424976348876953125" lon="1.92834625951945781707763671875">
        <ele>1788</ele>
        <time>2020-08-10T08:59:37.000Z</time>
      </trkpt>
      <trkpt lat="42.32286639511585235595703125" lon="1.928335614502429962158203125">
        <ele>1787.5999755859375</ele>
        <time>2020-08-10T08:59:38.000Z</time>
      </trkpt>
      <trkpt lat="42.3228632099926471710205078125" lon="1.9282999075949192047119140625">
        <ele>1786.5999755859375</ele>
        <time>2020-08-10T08:59:41.000Z</time>
      </trkpt>
      <trkpt lat="42.32286295853555202484130859375" lon="1.9282911904156208038330078125">
        <ele>1786.4000244140625</ele>
        <time>2020-08-10T08:59:42.000Z</time>
      </trkpt>
      <trkpt lat="42.32286597602069377899169921875" lon="1.9282590039074420928955078125">
        <ele>1785.800048828125</ele>
        <time>2020-08-10T08:59:46.000Z</time>
      </trkpt>
      <trkpt lat="42.322868406772613525390625" lon="1.92824332974851131439208984375">
        <ele>1785.5999755859375</ele>
        <time>2020-08-10T08:59:47.000Z</time>
      </trkpt>
      <trkpt lat="42.32288843952119350433349609375" lon="1.9281785376369953155517578125">
        <ele>1784.4000244140625</ele>
        <time>2020-08-10T08:59:52.000Z</time>
      </trkpt>
      <trkpt lat="42.3229041136801242828369140625" lon="1.92813671194016933441162109375">
        <ele>1783.4000244140625</ele>
        <time>2020-08-10T08:59:55.000Z</time>
      </trkpt>
      <trkpt lat="42.32290662825107574462890625" lon="1.9281248934566974639892578125">
        <ele>1783.4000244140625</ele>
        <time>2020-08-10T08:59:56.000Z</time>
      </trkpt>
      <trkpt lat="42.32291777618229389190673828125" lon="1.92806697450578212738037109375">
        <ele>1782.199951171875</ele>
        <time>2020-08-10T09:00:01.000Z</time>
      </trkpt>
      <trkpt lat="42.32291945256292819976806640625" lon="1.928039900958538055419921875">
        <ele>1781.5999755859375</ele>
        <time>2020-08-10T09:00:03.000Z</time>
      </trkpt>
      <trkpt lat="42.32291593216359615325927734375" lon="1.92801819182932376861572265625">
        <ele>1781</ele>
        <time>2020-08-10T09:00:05.000Z</time>
      </trkpt>
      <trkpt lat="42.32291056774556636810302734375" lon="1.92794426344335079193115234375">
        <ele>1779.800048828125</ele>
        <time>2020-08-10T09:00:11.000Z</time>
      </trkpt>
      <trkpt lat="42.322922386229038238525390625" lon="1.9278848357498645782470703125">
        <ele>1778.800048828125</ele>
        <time>2020-08-10T09:00:17.000Z</time>
      </trkpt>
      <trkpt lat="42.3229232244193553924560546875" lon="1.92787234671413898468017578125">
        <ele>1778.4000244140625</ele>
        <time>2020-08-10T09:00:18.000Z</time>
      </trkpt>
      <trkpt lat="42.32292406260967254638671875" lon="1.92783814854919910430908203125">
        <ele>1777.800048828125</ele>
        <time>2020-08-10T09:00:21.000Z</time>
      </trkpt>
      <trkpt lat="42.3229181952774524688720703125" lon="1.9277681596577167510986328125">
        <ele>1776.5999755859375</ele>
        <time>2020-08-10T09:00:27.000Z</time>
      </trkpt>
      <trkpt lat="42.3229175247251987457275390625" lon="1.92775449715554714202880859375">
        <ele>1776.4000244140625</ele>
        <time>2020-08-10T09:00:28.000Z</time>
      </trkpt>
      <trkpt lat="42.3229165188968181610107421875" lon="1.92770588211715221405029296875">
        <ele>1775.4000244140625</ele>
        <time>2020-08-10T09:00:32.000Z</time>
      </trkpt>
      <trkpt lat="42.32291526161134243011474609375" lon="1.927663050591945648193359375">
        <ele>1774.4000244140625</ele>
        <time>2020-08-10T09:00:36.000Z</time>
      </trkpt>
      <trkpt lat="42.32291643507778644561767578125" lon="1.92764888517558574676513671875">
        <ele>1774.199951171875</ele>
        <time>2020-08-10T09:00:37.000Z</time>
      </trkpt>
      <trkpt lat="42.32291333377361297607421875" lon="1.9275948219001293182373046875">
        <ele>1773.199951171875</ele>
        <time>2020-08-10T09:00:42.000Z</time>
      </trkpt>
      <trkpt lat="42.322912998497486114501953125" lon="1.92755408585071563720703125">
        <ele>1772.4000244140625</ele>
        <time>2020-08-10T09:00:46.000Z</time>
      </trkpt>
      <trkpt lat="42.32291341759264469146728515625" lon="1.9275502301752567291259765625">
        <ele>1772.199951171875</ele>
        <time>2020-08-10T09:00:48.000Z</time>
      </trkpt>
      <trkpt lat="42.32291375286877155303955078125" lon="1.92750169895589351654052734375">
        <ele>1771.800048828125</ele>
        <time>2020-08-10T09:00:54.000Z</time>
      </trkpt>
      <trkpt lat="42.32291257940232753753662109375" lon="1.92746448330581188201904296875">
        <ele>1771.199951171875</ele>
        <time>2020-08-10T09:00:57.000Z</time>
      </trkpt>
      <trkpt lat="42.32291333377361297607421875" lon="1.92741469480097293853759765625">
        <ele>1770.199951171875</ele>
        <time>2020-08-10T09:01:01.000Z</time>
      </trkpt>
      <trkpt lat="42.3229135014116764068603515625" lon="1.9274033792316913604736328125">
        <ele>1770</ele>
        <time>2020-08-10T09:01:02.000Z</time>
      </trkpt>
      <trkpt lat="42.32291400432586669921875" lon="1.92736633121967315673828125">
        <ele>1769.199951171875</ele>
        <time>2020-08-10T09:01:05.000Z</time>
      </trkpt>
      <trkpt lat="42.32291442342102527618408203125" lon="1.92734797485172748565673828125">
        <ele>1768.800048828125</ele>
        <time>2020-08-10T09:01:07.000Z</time>
      </trkpt>
      <trkpt lat="42.3229124955832958221435546875" lon="1.927306652069091796875">
        <ele>1767.800048828125</ele>
        <time>2020-08-10T09:01:11.000Z</time>
      </trkpt>
      <trkpt lat="42.32291090302169322967529296875" lon="1.9272944144904613494873046875">
        <ele>1767.5999755859375</ele>
        <time>2020-08-10T09:01:12.000Z</time>
      </trkpt>
      <trkpt lat="42.3229124955832958221435546875" lon="1.92724965512752532958984375">
        <ele>1766.4000244140625</ele>
        <time>2020-08-10T09:01:16.000Z</time>
      </trkpt>
      <trkpt lat="42.32291869819164276123046875" lon="1.9272095896303653717041015625">
        <ele>1765.800048828125</ele>
        <time>2020-08-10T09:01:20.000Z</time>
      </trkpt>
      <trkpt lat="42.32292163185775279998779296875" lon="1.9271894730627536773681640625">
        <ele>1765.4000244140625</ele>
        <time>2020-08-10T09:01:22.000Z</time>
      </trkpt>
      <trkpt lat="42.32292951084673404693603515625" lon="1.92714194767177104949951171875">
        <ele>1764.4000244140625</ele>
        <time>2020-08-10T09:01:26.000Z</time>
      </trkpt>
      <trkpt lat="42.322932779788970947265625" lon="1.92711160518229007720947265625">
        <ele>1763.5999755859375</ele>
        <time>2020-08-10T09:01:28.000Z</time>
      </trkpt>
      <trkpt lat="42.322935797274112701416015625" lon="1.9270959310233592987060546875">
        <ele>1763.199951171875</ele>
        <time>2020-08-10T09:01:29.000Z</time>
      </trkpt>
      <trkpt lat="42.32294091023504734039306640625" lon="1.92705527879297733306884765625">
        <ele>1762.199951171875</ele>
        <time>2020-08-10T09:01:32.000Z</time>
      </trkpt>
      <trkpt lat="42.3229487054049968719482421875" lon="1.926998533308506011962890625">
        <ele>1761.4000244140625</ele>
        <time>2020-08-10T09:01:36.000Z</time>
      </trkpt>
      <trkpt lat="42.32294954359531402587890625" lon="1.9269819371402263641357421875">
        <ele>1761.199951171875</ele>
        <time>2020-08-10T09:01:37.000Z</time>
      </trkpt>
      <trkpt lat="42.3229567520320415496826171875" lon="1.92694120109081268310546875">
        <ele>1760</ele>
        <time>2020-08-10T09:01:40.000Z</time>
      </trkpt>
      <trkpt lat="42.3229611106216907501220703125" lon="1.92689568735659122467041015625">
        <ele>1758.800048828125</ele>
        <time>2020-08-10T09:01:43.000Z</time>
      </trkpt>
      <trkpt lat="42.3229627870023250579833984375" lon="1.926881186664104461669921875">
        <ele>1758.5999755859375</ele>
        <time>2020-08-10T09:01:44.000Z</time>
      </trkpt>
      <trkpt lat="42.32296488247811794281005859375" lon="1.9268417917191982269287109375">
        <ele>1757.800048828125</ele>
        <time>2020-08-10T09:01:47.000Z</time>
      </trkpt>
      <trkpt lat="42.3229772038757801055908203125" lon="1.926787979900836944580078125">
        <ele>1756.800048828125</ele>
        <time>2020-08-10T09:01:51.000Z</time>
      </trkpt>
      <trkpt lat="42.32298013754189014434814453125" lon="1.9267750717699527740478515625">
        <ele>1756.5999755859375</ele>
        <time>2020-08-10T09:01:52.000Z</time>
      </trkpt>
      <trkpt lat="42.32299773953855037689208984375" lon="1.9267301447689533233642578125">
        <ele>1755.5999755859375</ele>
        <time>2020-08-10T09:01:55.000Z</time>
      </trkpt>
      <trkpt lat="42.32300729490816593170166015625" lon="1.92668412812054157257080078125">
        <ele>1754.5999755859375</ele>
        <time>2020-08-10T09:01:58.000Z</time>
      </trkpt>
      <trkpt lat="42.323014251887798309326171875" lon="1.92666837014257907867431640625">
        <ele>1754.199951171875</ele>
        <time>2020-08-10T09:01:59.000Z</time>
      </trkpt>
      <trkpt lat="42.323018275201320648193359375" lon="1.9266521930694580078125">
        <ele>1754</ele>
        <time>2020-08-10T09:02:00.000Z</time>
      </trkpt>
      <trkpt lat="42.3230388946831226348876953125" lon="1.92659159190952777862548828125">
        <ele>1753.199951171875</ele>
        <time>2020-08-10T09:02:04.000Z</time>
      </trkpt>
      <trkpt lat="42.32305473648011684417724609375" lon="1.92655454389750957489013671875">
        <ele>1752.800048828125</ele>
        <time>2020-08-10T09:02:07.000Z</time>
      </trkpt>
      <trkpt lat="42.32306814752519130706787109375" lon="1.9265286438167095184326171875">
        <ele>1752.800048828125</ele>
        <time>2020-08-10T09:02:09.000Z</time>
      </trkpt>
      <trkpt lat="42.32307552359998226165771484375" lon="1.92651271820068359375">
        <ele>1752</ele>
        <time>2020-08-10T09:02:11.000Z</time>
      </trkpt>
      <trkpt lat="42.32308139093220233917236328125" lon="1.92650735378265380859375">
        <ele>1751.5999755859375</ele>
        <time>2020-08-10T09:02:12.000Z</time>
      </trkpt>
      <trkpt lat="42.3230777867138385772705078125" lon="1.9264897517859935760498046875">
        <ele>1751.4000244140625</ele>
        <time>2020-08-10T09:02:18.000Z</time>
      </trkpt>
      <trkpt lat="42.32309379614889621734619140625" lon="1.926487572491168975830078125">
        <ele>1751.199951171875</ele>
        <time>2020-08-10T09:02:42.000Z</time>
      </trkpt>
      <trkpt lat="42.3231129907071590423583984375" lon="1.9264791905879974365234375">
        <ele>1751.199951171875</ele>
        <time>2020-08-10T09:02:44.000Z</time>
      </trkpt>
      <trkpt lat="42.32312983833253383636474609375" lon="1.92646821029484272003173828125">
        <ele>1751</ele>
        <time>2020-08-10T09:02:46.000Z</time>
      </trkpt>
      <trkpt lat="42.32315766625106334686279296875" lon="1.92644365131855010986328125">
        <ele>1750.4000244140625</ele>
        <time>2020-08-10T09:02:49.000Z</time>
      </trkpt>
      <trkpt lat="42.323184907436370849609375" lon="1.926414482295513153076171875">
        <ele>1749.5999755859375</ele>
        <time>2020-08-10T09:02:52.000Z</time>
      </trkpt>
      <trkpt lat="42.32319228351116180419921875" lon="1.9264042563736438751220703125">
        <ele>1749.199951171875</ele>
        <time>2020-08-10T09:02:53.000Z</time>
      </trkpt>
      <trkpt lat="42.3232291638851165771484375" lon="1.92636729218065738677978515625">
        <ele>1748.800048828125</ele>
        <time>2020-08-10T09:02:57.000Z</time>
      </trkpt>
      <trkpt lat="42.3232390545308589935302734375" lon="1.92636427469551563262939453125">
        <ele>1748.5999755859375</ele>
        <time>2020-08-10T09:02:59.000Z</time>
      </trkpt>
      <trkpt lat="42.32323947362601757049560546875" lon="1.9263576529920101165771484375">
        <ele>1748.199951171875</ele>
        <time>2020-08-10T09:03:02.000Z</time>
      </trkpt>
      <trkpt lat="42.323239557445049285888671875" lon="1.926354132592678070068359375">
        <ele>1748.199951171875</ele>
        <time>2020-08-10T09:03:15.000Z</time>
      </trkpt>
      <trkpt lat="42.323282472789287567138671875" lon="1.92631423473358154296875">
        <ele>1748</ele>
        <time>2020-08-10T09:03:20.000Z</time>
      </trkpt>
      <trkpt lat="42.32336218468844890594482421875" lon="1.9262527115643024444580078125">
        <ele>1747.4000244140625</ele>
        <time>2020-08-10T09:03:23.000Z</time>
      </trkpt>
      <trkpt lat="42.323391772806644439697265625" lon="1.92623167298734188079833984375">
        <ele>1747</ele>
        <time>2020-08-10T09:03:24.000Z</time>
      </trkpt>
      <trkpt lat="42.32344818301498889923095703125" lon="1.9261895120143890380859375">
        <ele>1746.199951171875</ele>
        <time>2020-08-10T09:03:26.000Z</time>
      </trkpt>
      <trkpt lat="42.32350476086139678955078125" lon="1.926131509244441986083984375">
        <ele>1744.800048828125</ele>
        <time>2020-08-10T09:03:29.000Z</time>
      </trkpt>
      <trkpt lat="42.32355077750980854034423828125" lon="1.92608415149152278900146484375">
        <ele>1743.800048828125</ele>
        <time>2020-08-10T09:03:31.000Z</time>
      </trkpt>
      <trkpt lat="42.3236068524420261383056640625" lon="1.926031596958637237548828125">
        <ele>1743</ele>
        <time>2020-08-10T09:03:33.000Z</time>
      </trkpt>
      <trkpt lat="42.32363677583634853363037109375" lon="1.9260056130588054656982421875">
        <ele>1742.800048828125</ele>
        <time>2020-08-10T09:03:34.000Z</time>
      </trkpt>
      <trkpt lat="42.32377574779093265533447265625" lon="1.92586957477033138275146484375">
        <ele>1742.199951171875</ele>
        <time>2020-08-10T09:03:38.000Z</time>
      </trkpt>
      <trkpt lat="42.3238432221114635467529296875" lon="1.92581869661808013916015625">
        <ele>1740.5999755859375</ele>
        <time>2020-08-10T09:03:40.000Z</time>
      </trkpt>
      <trkpt lat="42.323924191296100616455078125" lon="1.92576178349554538726806640625">
        <ele>1739.4000244140625</ele>
        <time>2020-08-10T09:03:42.000Z</time>
      </trkpt>
      <trkpt lat="42.32396987266838550567626953125" lon="1.92573496140539646148681640625">
        <ele>1739</ele>
        <time>2020-08-10T09:03:43.000Z</time>
      </trkpt>
      <trkpt lat="42.32401379384100437164306640625" lon="1.92571216262876987457275390625">
        <ele>1738.4000244140625</ele>
        <time>2020-08-10T09:03:44.000Z</time>
      </trkpt>
      <trkpt lat="42.324098534882068634033203125" lon="1.925674192607402801513671875">
        <ele>1737</ele>
        <time>2020-08-10T09:03:46.000Z</time>
      </trkpt>
      <trkpt lat="42.3241734690964221954345703125" lon="1.92565047182142734527587890625">
        <ele>1735.800048828125</ele>
        <time>2020-08-10T09:03:48.000Z</time>
      </trkpt>
      <trkpt lat="42.32424614019691944122314453125" lon="1.92564125172793865203857421875">
        <ele>1734.5999755859375</ele>
        <time>2020-08-10T09:03:50.000Z</time>
      </trkpt>
      <trkpt lat="42.32434018515050411224365234375" lon="1.9256143458187580108642578125">
        <ele>1733.4000244140625</ele>
        <time>2020-08-10T09:03:53.000Z</time>
      </trkpt>
      <trkpt lat="42.3243880458176136016845703125" lon="1.92556279711425304412841796875">
        <ele>1733</ele>
        <time>2020-08-10T09:03:55.000Z</time>
      </trkpt>
      <trkpt lat="42.3244195617735385894775390625" lon="1.9255466200411319732666015625">
        <ele>1732</ele>
        <time>2020-08-10T09:03:56.000Z</time>
      </trkpt>
      <trkpt lat="42.324473373591899871826171875" lon="1.92551116459071636199951171875">
        <ele>1731</ele>
        <time>2020-08-10T09:03:58.000Z</time>
      </trkpt>
      <trkpt lat="42.32452274300158023834228515625" lon="1.9254735298454761505126953125">
        <ele>1730.4000244140625</ele>
        <time>2020-08-10T09:04:00.000Z</time>
      </trkpt>
      <trkpt lat="42.32456113211810588836669921875" lon="1.92542969249188899993896484375">
        <ele>1729.800048828125</ele>
        <time>2020-08-10T09:04:02.000Z</time>
      </trkpt>
      <trkpt lat="42.32459700666368007659912109375" lon="1.92541276104748249053955078125">
        <ele>1728.800048828125</ele>
        <time>2020-08-10T09:04:04.000Z</time>
      </trkpt>
      <trkpt lat="42.3246056400239467620849609375" lon="1.92540563642978668212890625">
        <ele>1728.4000244140625</ele>
        <time>2020-08-10T09:04:05.000Z</time>
      </trkpt>
      <trkpt lat="42.32461712323129177093505859375" lon="1.9254001043736934661865234375">
        <ele>1728</ele>
        <time>2020-08-10T09:04:12.000Z</time>
      </trkpt>
      <trkpt lat="42.32462885789573192596435546875" lon="1.92540069110691547393798828125">
        <ele>1727.5999755859375</ele>
        <time>2020-08-10T09:04:17.000Z</time>
      </trkpt>
      <trkpt lat="42.32464361004531383514404296875" lon="1.92540639080107212066650390625">
        <ele>1727.4000244140625</ele>
        <time>2020-08-10T09:04:22.000Z</time>
      </trkpt>
      <trkpt lat="42.32464872300624847412109375" lon="1.925409324467182159423828125">
        <ele>1727.4000244140625</ele>
        <time>2020-08-10T09:04:24.000Z</time>
      </trkpt>
      <trkpt lat="42.324709407985210418701171875" lon="1.9254460372030735015869140625">
        <ele>1727.4000244140625</ele>
        <time>2020-08-10T09:04:27.000Z</time>
      </trkpt>
      <trkpt lat="42.32480789534747600555419921875" lon="1.9254929758608341217041015625">
        <ele>1726.4000244140625</ele>
        <time>2020-08-10T09:04:30.000Z</time>
      </trkpt>
      <trkpt lat="42.3248809017241001129150390625" lon="1.92552658729255199432373046875">
        <ele>1725</ele>
        <time>2020-08-10T09:04:32.000Z</time>
      </trkpt>
      <trkpt lat="42.32499229721724987030029296875" lon="1.92559867165982723236083984375">
        <ele>1724</ele>
        <time>2020-08-10T09:04:35.000Z</time>
      </trkpt>
      <trkpt lat="42.32507041655480861663818359375" lon="1.925649382174015045166015625">
        <ele>1722.4000244140625</ele>
        <time>2020-08-10T09:04:37.000Z</time>
      </trkpt>
      <trkpt lat="42.3251093924045562744140625" lon="1.92567461170256137847900390625">
        <ele>1721.4000244140625</ele>
        <time>2020-08-10T09:04:38.000Z</time>
      </trkpt>
      <trkpt lat="42.32517787255346775054931640625" lon="1.9257088936865329742431640625">
        <ele>1720.199951171875</ele>
        <time>2020-08-10T09:04:40.000Z</time>
      </trkpt>
      <trkpt lat="42.32523486949503421783447265625" lon="1.9257367216050624847412109375">
        <ele>1718.800048828125</ele>
        <time>2020-08-10T09:04:42.000Z</time>
      </trkpt>
      <trkpt lat="42.3252684809267520904541015625" lon="1.92575206048786640167236328125">
        <ele>1718.199951171875</ele>
        <time>2020-08-10T09:04:43.000Z</time>
      </trkpt>
      <trkpt lat="42.32532321475446224212646484375" lon="1.92579866386950016021728515625">
        <ele>1717.4000244140625</ele>
        <time>2020-08-10T09:04:45.000Z</time>
      </trkpt>
      <trkpt lat="42.3253918625414371490478515625" lon="1.92585733719170093536376953125">
        <ele>1716.800048828125</ele>
        <time>2020-08-10T09:04:47.000Z</time>
      </trkpt>
      <trkpt lat="42.32542865909636020660400390625" lon="1.9258783757686614990234375">
        <ele>1716</ele>
        <time>2020-08-10T09:04:48.000Z</time>
      </trkpt>
      <trkpt lat="42.32549739070236682891845703125" lon="1.9259194470942020416259765625">
        <ele>1714.5999755859375</ele>
        <time>2020-08-10T09:04:50.000Z</time>
      </trkpt>
      <trkpt lat="42.325599230825901031494140625" lon="1.9259905256330966949462890625">
        <ele>1713.4000244140625</ele>
        <time>2020-08-10T09:04:53.000Z</time>
      </trkpt>
      <trkpt lat="42.32563233934342861175537109375" lon="1.9260103069245815277099609375">
        <ele>1713</ele>
        <time>2020-08-10T09:04:54.000Z</time>
      </trkpt>
      <trkpt lat="42.32573962770402431488037109375" lon="1.92606822587549686431884765625">
        <ele>1712</ele>
        <time>2020-08-10T09:04:57.000Z</time>
      </trkpt>
      <trkpt lat="42.32579209841787815093994140625" lon="1.92610301077365875244140625">
        <ele>1711.199951171875</ele>
        <time>2020-08-10T09:04:59.000Z</time>
      </trkpt>
      <trkpt lat="42.3258153162896633148193359375" lon="1.92611784674227237701416015625">
        <ele>1710.4000244140625</ele>
        <time>2020-08-10T09:05:00.000Z</time>
      </trkpt>
      <trkpt lat="42.32586787082254886627197265625" lon="1.9261507876217365264892578125">
        <ele>1709.800048828125</ele>
        <time>2020-08-10T09:05:02.000Z</time>
      </trkpt>
      <trkpt lat="42.32594230212271213531494140625" lon="1.9261893443763256072998046875">
        <ele>1708.800048828125</ele>
        <time>2020-08-10T09:05:04.000Z</time>
      </trkpt>
      <trkpt lat="42.3259826190769672393798828125" lon="1.92621490918099880218505859375">
        <ele>1708.4000244140625</ele>
        <time>2020-08-10T09:05:05.000Z</time>
      </trkpt>
      <trkpt lat="42.32610122300684452056884765625" lon="1.9262981414794921875">
        <ele>1707.4000244140625</ele>
        <time>2020-08-10T09:05:08.000Z</time>
      </trkpt>
      <trkpt lat="42.3261824436485767364501953125" lon="1.92635706625878810882568359375">
        <ele>1706</ele>
        <time>2020-08-10T09:05:10.000Z</time>
      </trkpt>
      <trkpt lat="42.32626249082386493682861328125" lon="1.9264335930347442626953125">
        <ele>1704.800048828125</ele>
        <time>2020-08-10T09:05:12.000Z</time>
      </trkpt>
      <trkpt lat="42.32636843807995319366455078125" lon="1.92653375677764415740966796875">
        <ele>1704</ele>
        <time>2020-08-10T09:05:15.000Z</time>
      </trkpt>
      <trkpt lat="42.3263914883136749267578125" lon="1.92655052058398723602294921875">
        <ele>1703.4000244140625</ele>
        <time>2020-08-10T09:05:16.000Z</time>
      </trkpt>
      <trkpt lat="42.3265110142529010772705078125" lon="1.92663677036762237548828125">
        <ele>1702.800048828125</ele>
        <time>2020-08-10T09:05:20.000Z</time>
      </trkpt>
      <trkpt lat="42.32654814608395099639892578125" lon="1.92666166462004184722900390625">
        <ele>1702.4000244140625</ele>
        <time>2020-08-10T09:05:21.000Z</time>
      </trkpt>
      <trkpt lat="42.3266337253153324127197265625" lon="1.92670960910618305206298828125">
        <ele>1701.5999755859375</ele>
        <time>2020-08-10T09:05:23.000Z</time>
      </trkpt>
      <trkpt lat="42.32672601006925106048583984375" lon="1.9267573021352291107177734375">
        <ele>1700.4000244140625</ele>
        <time>2020-08-10T09:05:25.000Z</time>
      </trkpt>
      <trkpt lat="42.32681653462350368499755859375" lon="1.92681103013455867767333984375">
        <ele>1699.5999755859375</ele>
        <time>2020-08-10T09:05:27.000Z</time>
      </trkpt>
      <trkpt lat="42.32690487988293170928955078125" lon="1.9268602319061756134033203125">
        <ele>1699.199951171875</ele>
        <time>2020-08-10T09:05:29.000Z</time>
      </trkpt>
      <trkpt lat="42.327096574008464813232421875" lon="1.92695922218263149261474609375">
        <ele>1698</ele>
        <time>2020-08-10T09:05:33.000Z</time>
      </trkpt>
      <trkpt lat="42.3271399922668933868408203125" lon="1.9269812665879726409912109375">
        <ele>1697.5999755859375</ele>
        <time>2020-08-10T09:05:34.000Z</time>
      </trkpt>
      <trkpt lat="42.3272149264812469482421875" lon="1.92701823078095912933349609375">
        <ele>1697</ele>
        <time>2020-08-10T09:05:36.000Z</time>
      </trkpt>
      <trkpt lat="42.32730587013065814971923828125" lon="1.92702560685575008392333984375">
        <ele>1696.5999755859375</ele>
        <time>2020-08-10T09:05:39.000Z</time>
      </trkpt>
      <trkpt lat="42.3274088837206363677978515625" lon="1.926977746188640594482421875">
        <ele>1696</ele>
        <time>2020-08-10T09:05:43.000Z</time>
      </trkpt>
      <trkpt lat="42.32744224369525909423828125" lon="1.92693005315959453582763671875">
        <ele>1695.800048828125</ele>
        <time>2020-08-10T09:05:45.000Z</time>
      </trkpt>
      <trkpt lat="42.32748792506754398345947265625" lon="1.9267837889492511749267578125">
        <ele>1696.5999755859375</ele>
        <time>2020-08-10T09:05:51.000Z</time>
      </trkpt>
      <trkpt lat="42.32755682431161403656005859375" lon="1.92662746645510196685791015625">
        <ele>1697</ele>
        <time>2020-08-10T09:05:57.000Z</time>
      </trkpt>
      <trkpt lat="42.32759219594299793243408203125" lon="1.92658488638699054718017578125">
        <ele>1697.199951171875</ele>
        <time>2020-08-10T09:05:59.000Z</time>
      </trkpt>
      <trkpt lat="42.32764718122780323028564453125" lon="1.92650626413524150848388671875">
        <ele>1698.5999755859375</ele>
        <time>2020-08-10T09:06:03.000Z</time>
      </trkpt>
      <trkpt lat="42.3277109675109386444091796875" lon="1.92639042623341083526611328125">
        <ele>1699.5999755859375</ele>
        <time>2020-08-10T09:06:08.000Z</time>
      </trkpt>
      <trkpt lat="42.3277401365339756011962890625" lon="1.92633728496730327606201171875">
        <ele>1699.5999755859375</ele>
        <time>2020-08-10T09:06:10.000Z</time>
      </trkpt>
      <trkpt lat="42.3278584890067577362060546875" lon="1.92610745318233966827392578125">
        <ele>1699</ele>
        <time>2020-08-10T09:06:18.000Z</time>
      </trkpt>
      <trkpt lat="42.32792411930859088897705078125" lon="1.92590125836431980133056640625">
        <ele>1699.4000244140625</ele>
        <time>2020-08-10T09:06:24.000Z</time>
      </trkpt>
      <trkpt lat="42.328021936118602752685546875" lon="1.9256364740431308746337890625">
        <ele>1699.5999755859375</ele>
        <time>2020-08-10T09:06:32.000Z</time>
      </trkpt>
      <trkpt lat="42.32810466550290584564208984375" lon="1.92548953928053379058837890625">
        <ele>1699.5999755859375</ele>
        <time>2020-08-10T09:06:37.000Z</time>
      </trkpt>
      <trkpt lat="42.32818781398236751556396484375" lon="1.925277225673198699951171875">
        <ele>1699.5999755859375</ele>
        <time>2020-08-10T09:06:43.000Z</time>
      </trkpt>
      <trkpt lat="42.328289486467838287353515625" lon="1.9251238368451595306396484375">
        <ele>1699.800048828125</ele>
        <time>2020-08-10T09:06:48.000Z</time>
      </trkpt>
      <trkpt lat="42.32847229577600955963134765625" lon="1.92497891373932361602783203125">
        <ele>1699.4000244140625</ele>
        <time>2020-08-10T09:06:55.000Z</time>
      </trkpt>
      <trkpt lat="42.328622080385684967041015625" lon="1.92487631924450397491455078125">
        <ele>1699.4000244140625</ele>
        <time>2020-08-10T09:07:01.000Z</time>
      </trkpt>
      <trkpt lat="42.32880522496998310089111328125" lon="1.9248348288238048553466796875">
        <ele>1699</ele>
        <time>2020-08-10T09:07:07.000Z</time>
      </trkpt>
      <trkpt lat="42.32883640564978122711181640625" lon="1.9248237647116184234619140625">
        <ele>1698.5999755859375</ele>
        <time>2020-08-10T09:07:08.000Z</time>
      </trkpt>
      <trkpt lat="42.32902667485177516937255859375" lon="1.92474388517439365386962890625">
        <ele>1698.800048828125</ele>
        <time>2020-08-10T09:07:14.000Z</time>
      </trkpt>
      <trkpt lat="42.32906506396830081939697265625" lon="1.92475209943950176239013671875">
        <ele>1698.5999755859375</ele>
        <time>2020-08-10T09:07:15.000Z</time>
      </trkpt>
      <trkpt lat="42.32914854772388935089111328125" lon="1.92479015327990055084228515625">
        <ele>1697.5999755859375</ele>
        <time>2020-08-10T09:07:17.000Z</time>
      </trkpt>
      <trkpt lat="42.3291935585439205169677734375" lon="1.92480591125786304473876953125">
        <ele>1697.199951171875</ele>
        <time>2020-08-10T09:07:18.000Z</time>
      </trkpt>
      <trkpt lat="42.329359352588653564453125" lon="1.9248405285179615020751953125">
        <ele>1697.5999755859375</ele>
        <time>2020-08-10T09:07:23.000Z</time>
      </trkpt>
      <trkpt lat="42.3294611088931560516357421875" lon="1.92491210997104644775390625">
        <ele>1698.5999755859375</ele>
        <time>2020-08-10T09:07:29.000Z</time>
      </trkpt>
      <trkpt lat="42.32947359792888164520263671875" lon="1.9249243475496768951416015625">
        <ele>1698.800048828125</ele>
        <time>2020-08-10T09:07:30.000Z</time>
      </trkpt>
      <trkpt lat="42.32952942140400409698486328125" lon="1.9249743036925792694091796875">
        <ele>1699.5999755859375</ele>
        <time>2020-08-10T09:07:34.000Z</time>
      </trkpt>
      <trkpt lat="42.32955926097929477691650390625" lon="1.92500020377337932586669921875">
        <ele>1699.800048828125</ele>
        <time>2020-08-10T09:07:36.000Z</time>
      </trkpt>
      <trkpt lat="42.32962782494723796844482421875" lon="1.9250440411269664764404296875">
        <ele>1700.800048828125</ele>
        <time>2020-08-10T09:07:41.000Z</time>
      </trkpt>
      <trkpt lat="42.3296656273305416107177734375" lon="1.925077736377716064453125">
        <ele>1701.199951171875</ele>
        <time>2020-08-10T09:07:44.000Z</time>
      </trkpt>
      <trkpt lat="42.32967526651918888092041015625" lon="1.9250898063182830810546875">
        <ele>1701.5999755859375</ele>
        <time>2020-08-10T09:07:45.000Z</time>
      </trkpt>
      <trkpt lat="42.329688258469104766845703125" lon="1.92510296590626239776611328125">
        <ele>1701.800048828125</ele>
        <time>2020-08-10T09:07:46.000Z</time>
      </trkpt>
      <trkpt lat="42.32975028455257415771484375" lon="1.92514705471694469451904296875">
        <ele>1702.4000244140625</ele>
        <time>2020-08-10T09:07:50.000Z</time>
      </trkpt>
      <trkpt lat="42.32979185879230499267578125" lon="1.9251711107790470123291015625">
        <ele>1702.800048828125</ele>
        <time>2020-08-10T09:07:53.000Z</time>
      </trkpt>
      <trkpt lat="42.32984307222068309783935546875" lon="1.92520572803914546966552734375">
        <ele>1703.5999755859375</ele>
        <time>2020-08-10T09:07:57.000Z</time>
      </trkpt>
      <trkpt lat="42.32990048825740814208984375" lon="1.925236321985721588134765625">
        <ele>1704.199951171875</ele>
        <time>2020-08-10T09:08:00.000Z</time>
      </trkpt>
      <trkpt lat="42.33000786043703556060791015625" lon="1.9253017008304595947265625">
        <ele>1704.800048828125</ele>
        <time>2020-08-10T09:08:06.000Z</time>
      </trkpt>
      <trkpt lat="42.33006519265472888946533203125" lon="1.92533053457736968994140625">
        <ele>1705.4000244140625</ele>
        <time>2020-08-10T09:08:09.000Z</time>
      </trkpt>
      <trkpt lat="42.33011640608310699462890625" lon="1.92536196671426296234130859375">
        <ele>1705.800048828125</ele>
        <time>2020-08-10T09:08:12.000Z</time>
      </trkpt>
      <trkpt lat="42.33019553124904632568359375" lon="1.9253954105079174041748046875">
        <ele>1706</ele>
        <time>2020-08-10T09:08:17.000Z</time>
      </trkpt>
      <trkpt lat="42.3302597366273403167724609375" lon="1.92543304525315761566162109375">
        <ele>1707.199951171875</ele>
        <time>2020-08-10T09:08:21.000Z</time>
      </trkpt>
      <trkpt lat="42.33030625618994235992431640625" lon="1.9254503957927227020263671875">
        <ele>1707.800048828125</ele>
        <time>2020-08-10T09:08:24.000Z</time>
      </trkpt>
      <trkpt lat="42.3303750716149806976318359375" lon="1.92550219595432281494140625">
        <ele>1708.4000244140625</ele>
        <time>2020-08-10T09:08:29.000Z</time>
      </trkpt>
      <trkpt lat="42.33040248043835163116455078125" lon="1.9255342148244380950927734375">
        <ele>1708.5999755859375</ele>
        <time>2020-08-10T09:08:31.000Z</time>
      </trkpt>
      <trkpt lat="42.330427877604961395263671875" lon="1.9255905412137508392333984375">
        <ele>1709.4000244140625</ele>
        <time>2020-08-10T09:08:34.000Z</time>
      </trkpt>
      <trkpt lat="42.33043885789811611175537109375" lon="1.92560546100139617919921875">
        <ele>1709.4000244140625</ele>
        <time>2020-08-10T09:08:35.000Z</time>
      </trkpt>
      <trkpt lat="42.33045025728642940521240234375" lon="1.9256176985800266265869140625">
        <ele>1709.800048828125</ele>
        <time>2020-08-10T09:08:36.000Z</time>
      </trkpt>
      <trkpt lat="42.3304850421845912933349609375" lon="1.92565298639237880706787109375">
        <ele>1710.5999755859375</ele>
        <time>2020-08-10T09:08:39.000Z</time>
      </trkpt>
      <trkpt lat="42.33053793199360370635986328125" lon="1.9256669841706752777099609375">
        <ele>1711.199951171875</ele>
        <time>2020-08-10T09:08:43.000Z</time>
      </trkpt>
      <trkpt lat="42.3306292109191417694091796875" lon="1.925678551197052001953125">
        <ele>1711.4000244140625</ele>
        <time>2020-08-10T09:08:50.000Z</time>
      </trkpt>
      <trkpt lat="42.3306749761104583740234375" lon="1.92567595280706882476806640625">
        <ele>1711.5999755859375</ele>
        <time>2020-08-10T09:08:54.000Z</time>
      </trkpt>
      <trkpt lat="42.33070959337055683135986328125" lon="1.92565399222075939178466796875">
        <ele>1712</ele>
        <time>2020-08-10T09:08:57.000Z</time>
      </trkpt>
      <trkpt lat="42.33077949844300746917724609375" lon="1.925569586455821990966796875">
        <ele>1712</ele>
        <time>2020-08-10T09:09:04.000Z</time>
      </trkpt>
      <trkpt lat="42.3308064043521881103515625" lon="1.92551049403846263885498046875">
        <ele>1712.199951171875</ele>
        <time>2020-08-10T09:09:09.000Z</time>
      </trkpt>
      <trkpt lat="42.33083750121295452117919921875" lon="1.92549951374530792236328125">
        <ele>1712.199951171875</ele>
        <time>2020-08-10T09:09:12.000Z</time>
      </trkpt>
      <trkpt lat="42.33091126196086406707763671875" lon="1.9255318678915500640869140625">
        <ele>1712</ele>
        <time>2020-08-10T09:09:17.000Z</time>
      </trkpt>
      <trkpt lat="42.33095065690577030181884765625" lon="1.92555860616266727447509765625">
        <ele>1711.199951171875</ele>
        <time>2020-08-10T09:09:23.000Z</time>
      </trkpt>
      <trkpt lat="42.33095652423799037933349609375" lon="1.9255543313920497894287109375">
        <ele>1711</ele>
        <time>2020-08-10T09:09:30.000Z</time>
      </trkpt>
      <trkpt lat="42.33098016120493412017822265625" lon="1.925539076328277587890625">
        <ele>1711</ele>
        <time>2020-08-10T09:09:32.000Z</time>
      </trkpt>
      <trkpt lat="42.3309949971735477447509765625" lon="1.9255285151302814483642578125">
        <ele>1710.800048828125</ele>
        <time>2020-08-10T09:09:33.000Z</time>
      </trkpt>
      <trkpt lat="42.33109943568706512451171875" lon="1.9254477135837078094482421875">
        <ele>1709.800048828125</ele>
        <time>2020-08-10T09:09:39.000Z</time>
      </trkpt>
      <trkpt lat="42.3311148583889007568359375" lon="1.92542801611125469207763671875">
        <ele>1709.199951171875</ele>
        <time>2020-08-10T09:09:40.000Z</time>
      </trkpt>
      <trkpt lat="42.33116305433213710784912109375" lon="1.925372779369354248046875">
        <ele>1708.4000244140625</ele>
        <time>2020-08-10T09:09:43.000Z</time>
      </trkpt>
      <trkpt lat="42.33121284283697605133056640625" lon="1.92534931004047393798828125">
        <ele>1707.4000244140625</ele>
        <time>2020-08-10T09:09:46.000Z</time>
      </trkpt>
      <trkpt lat="42.33123463578522205352783203125" lon="1.92533715628087520599365234375">
        <ele>1707</ele>
        <time>2020-08-10T09:09:47.000Z</time>
      </trkpt>
      <trkpt lat="42.3312568478286266326904296875" lon="1.92532776854932308197021484375">
        <ele>1706.5999755859375</ele>
        <time>2020-08-10T09:09:48.000Z</time>
      </trkpt>
      <trkpt lat="42.33129682950675487518310546875" lon="1.92530983127653598785400390625">
        <ele>1706.4000244140625</ele>
        <time>2020-08-10T09:09:50.000Z</time>
      </trkpt>
      <trkpt lat="42.33136807568371295928955078125" lon="1.925267837941646575927734375">
        <ele>1705.800048828125</ele>
        <time>2020-08-10T09:09:54.000Z</time>
      </trkpt>
      <trkpt lat="42.331439070403575897216796875" lon="1.9252385012805461883544921875">
        <ele>1705.199951171875</ele>
        <time>2020-08-10T09:09:57.000Z</time>
      </trkpt>
      <trkpt lat="42.33149564824998378753662109375" lon="1.92521595396101474761962890625">
        <ele>1704.4000244140625</ele>
        <time>2020-08-10T09:09:59.000Z</time>
      </trkpt>
      <trkpt lat="42.3315217159688472747802734375" lon="1.9251955859363079071044921875">
        <ele>1704</ele>
        <time>2020-08-10T09:10:00.000Z</time>
      </trkpt>
      <trkpt lat="42.33168222941458225250244140625" lon="1.9250924885272979736328125">
        <ele>1703.4000244140625</ele>
        <time>2020-08-10T09:10:05.000Z</time>
      </trkpt>
      <trkpt lat="42.33172883279621601104736328125" lon="1.92506826482713222503662109375">
        <ele>1702.5999755859375</ele>
        <time>2020-08-10T09:10:07.000Z</time>
      </trkpt>
      <trkpt lat="42.3317862488329410552978515625" lon="1.9250428676605224609375">
        <ele>1701.4000244140625</ele>
        <time>2020-08-10T09:10:10.000Z</time>
      </trkpt>
      <trkpt lat="42.3318006657063961029052734375" lon="1.9250376708805561065673828125">
        <ele>1701.199951171875</ele>
        <time>2020-08-10T09:10:11.000Z</time>
      </trkpt>
      <trkpt lat="42.33182438649237155914306640625" lon="1.925038509070873260498046875">
        <ele>1700.5999755859375</ele>
        <time>2020-08-10T09:10:16.000Z</time>
      </trkpt>
      <trkpt lat="42.331825979053974151611328125" lon="1.92503725178539752960205078125">
        <ele>1700.800048828125</ele>
        <time>2020-08-10T09:10:31.000Z</time>
      </trkpt>
      <trkpt lat="42.331854812800884246826171875" lon="1.92500540055334568023681640625">
        <ele>1700.4000244140625</ele>
        <time>2020-08-10T09:10:36.000Z</time>
      </trkpt>
      <trkpt lat="42.33186361379921436309814453125" lon="1.92499928176403045654296875">
        <ele>1700.199951171875</ele>
        <time>2020-08-10T09:10:37.000Z</time>
      </trkpt>
      <trkpt lat="42.33191709034144878387451171875" lon="1.92493650130927562713623046875">
        <ele>1700.199951171875</ele>
        <time>2020-08-10T09:10:41.000Z</time>
      </trkpt>
      <trkpt lat="42.331949360668659210205078125" lon="1.92489777691662311553955078125">
        <ele>1700.199951171875</ele>
        <time>2020-08-10T09:10:43.000Z</time>
      </trkpt>
      <trkpt lat="42.33198917470872402191162109375" lon="1.924847066402435302734375">
        <ele>1700</ele>
        <time>2020-08-10T09:10:45.000Z</time>
      </trkpt>
      <trkpt lat="42.33209679834544658660888671875" lon="1.9247905723750591278076171875">
        <ele>1699.5999755859375</ele>
        <time>2020-08-10T09:10:49.000Z</time>
      </trkpt>
      <trkpt lat="42.3322160728275775909423828125" lon="1.92475930787622928619384765625">
        <ele>1698.4000244140625</ele>
        <time>2020-08-10T09:10:52.000Z</time>
      </trkpt>
      <trkpt lat="42.33230986632406711578369140625" lon="1.9247355870902538299560546875">
        <ele>1698.199951171875</ele>
        <time>2020-08-10T09:10:54.000Z</time>
      </trkpt>
      <trkpt lat="42.33260306529700756072998046875" lon="1.9247057475149631500244140625">
        <ele>1698</ele>
        <time>2020-08-10T09:11:01.000Z</time>
      </trkpt>
      <trkpt lat="42.33271119184792041778564453125" lon="1.9246997125446796417236328125">
        <ele>1697.800048828125</ele>
        <time>2020-08-10T09:11:05.000Z</time>
      </trkpt>
      <trkpt lat="42.3327602259814739227294921875" lon="1.92468873225152492523193359375">
        <ele>1697.4000244140625</ele>
        <time>2020-08-10T09:11:07.000Z</time>
      </trkpt>
      <trkpt lat="42.3328668437898159027099609375" lon="1.92466308362782001495361328125">
        <ele>1697.4000244140625</ele>
        <time>2020-08-10T09:11:11.000Z</time>
      </trkpt>
      <trkpt lat="42.3330006189644336700439453125" lon="1.92459887824952602386474609375">
        <ele>1697</ele>
        <time>2020-08-10T09:11:17.000Z</time>
      </trkpt>
      <trkpt lat="42.33312852680683135986328125" lon="1.92453199066221714019775390625">
        <ele>1696.800048828125</ele>
        <time>2020-08-10T09:11:22.000Z</time>
      </trkpt>
      <trkpt lat="42.333250232040882110595703125" lon="1.92445219494402408599853515625">
        <ele>1696.5999755859375</ele>
        <time>2020-08-10T09:11:27.000Z</time>
      </trkpt>
      <trkpt lat="42.33327009715139865875244140625" lon="1.924446411430835723876953125">
        <ele>1696.4000244140625</ele>
        <time>2020-08-10T09:11:28.000Z</time>
      </trkpt>
      <trkpt lat="42.33339901082217693328857421875" lon="1.92441833205521106719970703125">
        <ele>1696.4000244140625</ele>
        <time>2020-08-10T09:11:33.000Z</time>
      </trkpt>
      <trkpt lat="42.33349992893636226654052734375" lon="1.92443375475704669952392578125">
        <ele>1697.199951171875</ele>
        <time>2020-08-10T09:11:38.000Z</time>
      </trkpt>
      <trkpt lat="42.33352943323552608489990234375" lon="1.9244546256959438323974609375">
        <ele>1698</ele>
        <time>2020-08-10T09:11:40.000Z</time>
      </trkpt>
      <trkpt lat="42.33356975018978118896484375" lon="1.92446376197040081024169921875">
        <ele>1698.4000244140625</ele>
        <time>2020-08-10T09:11:43.000Z</time>
      </trkpt>
      <trkpt lat="42.33366957865655422210693359375" lon="1.92441564984619617462158203125">
        <ele>1699</ele>
        <time>2020-08-10T09:11:48.000Z</time>
      </trkpt>
      <trkpt lat="42.3336989991366863250732421875" lon="1.92440450191497802734375">
        <ele>1699</ele>
        <time>2020-08-10T09:11:49.000Z</time>
      </trkpt>
      <trkpt lat="42.3337559960782527923583984375" lon="1.9243734888732433319091796875">
        <ele>1699</ele>
        <time>2020-08-10T09:11:52.000Z</time>
      </trkpt>
      <trkpt lat="42.3337888531386852264404296875" lon="1.92432881332933902740478515625">
        <ele>1698.5999755859375</ele>
        <time>2020-08-10T09:11:54.000Z</time>
      </trkpt>
      <trkpt lat="42.33381391502916812896728515625" lon="1.92424382083117961883544921875">
        <ele>1697.800048828125</ele>
        <time>2020-08-10T09:11:57.000Z</time>
      </trkpt>
      <trkpt lat="42.33382967300713062286376953125" lon="1.92416821606457233428955078125">
        <ele>1697</ele>
        <time>2020-08-10T09:12:00.000Z</time>
      </trkpt>
      <trkpt lat="42.33383755199611186981201171875" lon="1.924155056476593017578125">
        <ele>1696.800048828125</ele>
        <time>2020-08-10T09:12:01.000Z</time>
      </trkpt>
      <trkpt lat="42.33388423919677734375" lon="1.92412219941616058349609375">
        <ele>1696.199951171875</ele>
        <time>2020-08-10T09:12:04.000Z</time>
      </trkpt>
      <trkpt lat="42.33392757363617420196533203125" lon="1.92410468123853206634521484375">
        <ele>1696.199951171875</ele>
        <time>2020-08-10T09:12:09.000Z</time>
      </trkpt>
      <trkpt lat="42.333963699638843536376953125" lon="1.924095712602138519287109375">
        <ele>1696.199951171875</ele>
        <time>2020-08-10T09:12:16.000Z</time>
      </trkpt>
      <trkpt lat="42.3339859955012798309326171875" lon="1.92411012947559356689453125">
        <ele>1695.800048828125</ele>
        <time>2020-08-10T09:12:20.000Z</time>
      </trkpt>
      <trkpt lat="42.33400435186922550201416015625" lon="1.924127899110317230224609375">
        <ele>1695.800048828125</ele>
        <time>2020-08-10T09:12:23.000Z</time>
      </trkpt>
      <trkpt lat="42.33401306904852390289306640625" lon="1.92414022050797939300537109375">
        <ele>1695.5999755859375</ele>
        <time>2020-08-10T09:12:33.000Z</time>
      </trkpt>
      <trkpt lat="42.33406369574368000030517578125" lon="1.92419688217341899871826171875">
        <ele>1696.5999755859375</ele>
        <time>2020-08-10T09:12:41.000Z</time>
      </trkpt>
      <trkpt lat="42.3341211117804050445556640625" lon="1.92425362765789031982421875">
        <ele>1695.800048828125</ele>
        <time>2020-08-10T09:12:48.000Z</time>
      </trkpt>
      <trkpt lat="42.334198057651519775390625" lon="1.92434390075504779815673828125">
        <ele>1695</ele>
        <time>2020-08-10T09:12:57.000Z</time>
      </trkpt>
      <trkpt lat="42.33420803211629390716552734375" lon="1.92435295321047306060791015625">
        <ele>1694.5999755859375</ele>
        <time>2020-08-10T09:12:58.000Z</time>
      </trkpt>
      <trkpt lat="42.33427039347589015960693359375" lon="1.92440911196172237396240234375">
        <ele>1693.5999755859375</ele>
        <time>2020-08-10T09:13:04.000Z</time>
      </trkpt>
      <trkpt lat="42.33431448228657245635986328125" lon="1.9244442321360111236572265625">
        <ele>1693</ele>
        <time>2020-08-10T09:13:09.000Z</time>
      </trkpt>
      <trkpt lat="42.3343254625797271728515625" lon="1.9244506023824214935302734375">
        <ele>1693</ele>
        <time>2020-08-10T09:13:10.000Z</time>
      </trkpt>
      <trkpt lat="42.33438204042613506317138671875" lon="1.92447398789227008819580078125">
        <ele>1692.5999755859375</ele>
        <time>2020-08-10T09:13:15.000Z</time>
      </trkpt>
      <trkpt lat="42.33439260162413120269775390625" lon="1.92448019050061702728271484375">
        <ele>1692.5999755859375</ele>
        <time>2020-08-10T09:13:16.000Z</time>
      </trkpt>
      <trkpt lat="42.3344862274825572967529296875" lon="1.9245149753987789154052734375">
        <ele>1692</ele>
        <time>2020-08-10T09:13:23.000Z</time>
      </trkpt>
      <trkpt lat="42.3345687054097652435302734375" lon="1.92454271949827671051025390625">
        <ele>1692.199951171875</ele>
        <time>2020-08-10T09:13:30.000Z</time>
      </trkpt>
      <trkpt lat="42.33462209813296794891357421875" lon="1.92457490600645542144775390625">
        <ele>1692.4000244140625</ele>
        <time>2020-08-10T09:13:36.000Z</time>
      </trkpt>
      <trkpt lat="42.33462645672261714935302734375" lon="1.9245803542435169219970703125">
        <ele>1692.4000244140625</ele>
        <time>2020-08-10T09:13:37.000Z</time>
      </trkpt>
      <trkpt lat="42.33467440120875835418701171875" lon="1.9246095232665538787841796875">
        <ele>1693</ele>
        <time>2020-08-10T09:13:44.000Z</time>
      </trkpt>
      <trkpt lat="42.334707342088222503662109375" lon="1.92463877610862255096435546875">
        <ele>1693.199951171875</ele>
        <time>2020-08-10T09:13:52.000Z</time>
      </trkpt>
      <trkpt lat="42.33477381058037281036376953125" lon="1.9246983714401721954345703125">
        <ele>1694</ele>
        <time>2020-08-10T09:13:59.000Z</time>
      </trkpt>
      <trkpt lat="42.33482343144714832305908203125" lon="1.92474841140210628509521484375">
        <ele>1694.800048828125</ele>
        <time>2020-08-10T09:14:06.000Z</time>
      </trkpt>
      <trkpt lat="42.33484740369021892547607421875" lon="1.92478227429091930389404296875">
        <ele>1695</ele>
        <time>2020-08-10T09:14:10.000Z</time>
      </trkpt>
      <trkpt lat="42.33485260047018527984619140625" lon="1.9247986190021038055419921875">
        <ele>1695.199951171875</ele>
        <time>2020-08-10T09:14:12.000Z</time>
      </trkpt>
      <trkpt lat="42.33489702455699443817138671875" lon="1.9248552806675434112548828125">
        <ele>1695.4000244140625</ele>
        <time>2020-08-10T09:14:20.000Z</time>
      </trkpt>
      <trkpt lat="42.33491999097168445587158203125" lon="1.924874894320964813232421875">
        <ele>1696.199951171875</ele>
        <time>2020-08-10T09:14:25.000Z</time>
      </trkpt>
      <trkpt lat="42.33493407256901264190673828125" lon="1.924883611500263214111328125">
        <ele>1696.199951171875</ele>
        <time>2020-08-10T09:14:27.000Z</time>
      </trkpt>
      <trkpt lat="42.334975898265838623046875" lon="1.92492283880710601806640625">
        <ele>1697.199951171875</ele>
        <time>2020-08-10T09:14:35.000Z</time>
      </trkpt>
      <trkpt lat="42.33498595654964447021484375" lon="1.9249266944825649261474609375">
        <ele>1697.800048828125</ele>
        <time>2020-08-10T09:14:37.000Z</time>
      </trkpt>
      <trkpt lat="42.335024513304233551025390625" lon="1.9249504990875720977783203125">
        <ele>1698.5999755859375</ele>
        <time>2020-08-10T09:14:44.000Z</time>
      </trkpt>
      <trkpt lat="42.33504940755665302276611328125" lon="1.92496248520910739898681640625">
        <ele>1698.5999755859375</ele>
        <time>2020-08-10T09:14:47.000Z</time>
      </trkpt>
      <trkpt lat="42.33509123325347900390625" lon="1.9250175543129444122314453125">
        <ele>1699.5999755859375</ele>
        <time>2020-08-10T09:14:54.000Z</time>
      </trkpt>
      <trkpt lat="42.33511629514396190643310546875" lon="1.92505217157304286956787109375">
        <ele>1700</ele>
        <time>2020-08-10T09:14:58.000Z</time>
      </trkpt>
      <trkpt lat="42.33515619300305843353271484375" lon="1.92512593232095241546630859375">
        <ele>1701</ele>
        <time>2020-08-10T09:15:06.000Z</time>
      </trkpt>
      <trkpt lat="42.3351644910871982574462890625" lon="1.92514135502278804779052734375">
        <ele>1701</ele>
        <time>2020-08-10T09:15:08.000Z</time>
      </trkpt>
      <trkpt lat="42.335201203823089599609375" lon="1.9251929037272930145263671875">
        <ele>1701.4000244140625</ele>
        <time>2020-08-10T09:15:14.000Z</time>
      </trkpt>
      <trkpt lat="42.33527303673326969146728515625" lon="1.92520723678171634674072265625">
        <ele>1701.4000244140625</ele>
        <time>2020-08-10T09:15:23.000Z</time>
      </trkpt>
      <trkpt lat="42.33526733703911304473876953125" lon="1.92523674108088016510009765625">
        <ele>1701.199951171875</ele>
        <time>2020-08-10T09:15:33.000Z</time>
      </trkpt>
      <trkpt lat="42.33529441058635711669921875" lon="1.92524210549890995025634765625">
        <ele>1701.4000244140625</ele>
        <time>2020-08-10T09:15:41.000Z</time>
      </trkpt>
      <trkpt lat="42.33537085354328155517578125" lon="1.9252519123256206512451171875">
        <ele>1701.4000244140625</ele>
        <time>2020-08-10T09:15:46.000Z</time>
      </trkpt>
      <trkpt lat="42.33549733646214008331298828125" lon="1.92525752820074558258056640625">
        <ele>1701.5999755859375</ele>
        <time>2020-08-10T09:15:52.000Z</time>
      </trkpt>
      <trkpt lat="42.335634715855121612548828125" lon="1.92526750266551971435546875">
        <ele>1701.4000244140625</ele>
        <time>2020-08-10T09:15:56.000Z</time>
      </trkpt>
      <trkpt lat="42.335812747478485107421875" lon="1.925254762172698974609375">
        <ele>1700.800048828125</ele>
        <time>2020-08-10T09:16:01.000Z</time>
      </trkpt>
      <trkpt lat="42.3359658010303974151611328125" lon="1.925262473523616790771484375">
        <ele>1701</ele>
        <time>2020-08-10T09:16:07.000Z</time>
      </trkpt>
      <trkpt lat="42.33612111769616603851318359375" lon="1.92534570582211017608642578125">
        <ele>1700.800048828125</ele>
        <time>2020-08-10T09:16:12.000Z</time>
      </trkpt>
      <trkpt lat="42.3361639492213726043701171875" lon="1.9253558479249477386474609375">
        <ele>1700.199951171875</ele>
        <time>2020-08-10T09:16:13.000Z</time>
      </trkpt>
      <trkpt lat="42.336273752152919769287109375" lon="1.92537655122578144073486328125">
        <ele>1699</ele>
        <time>2020-08-10T09:16:16.000Z</time>
      </trkpt>
      <trkpt lat="42.336459495127201080322265625" lon="1.925371102988719940185546875">
        <ele>1698</ele>
        <time>2020-08-10T09:16:21.000Z</time>
      </trkpt>
      <trkpt lat="42.33664465136826038360595703125" lon="1.92535744048655033111572265625">
        <ele>1698.4000244140625</ele>
        <time>2020-08-10T09:16:26.000Z</time>
      </trkpt>
      <trkpt lat="42.33676149509847164154052734375" lon="1.925329528748989105224609375">
        <ele>1698.199951171875</ele>
        <time>2020-08-10T09:16:30.000Z</time>
      </trkpt>
      <trkpt lat="42.3368904925882816314697265625" lon="1.9252829253673553466796875">
        <ele>1697.5999755859375</ele>
        <time>2020-08-10T09:16:36.000Z</time>
      </trkpt>
      <trkpt lat="42.33701370656490325927734375" lon="1.92524327896535396575927734375">
        <ele>1697.4000244140625</ele>
        <time>2020-08-10T09:16:40.000Z</time>
      </trkpt>
      <trkpt lat="42.33704949729144573211669921875" lon="1.92525149323046207427978515625">
        <ele>1697.199951171875</ele>
        <time>2020-08-10T09:16:41.000Z</time>
      </trkpt>
      <trkpt lat="42.33712811954319477081298828125" lon="1.925275214016437530517578125">
        <ele>1696.800048828125</ele>
        <time>2020-08-10T09:16:43.000Z</time>
      </trkpt>
      <trkpt lat="42.33722937293350696563720703125" lon="1.92531083710491657257080078125">
        <ele>1695.199951171875</ele>
        <time>2020-08-10T09:16:46.000Z</time>
      </trkpt>
      <trkpt lat="42.3372717015445232391357421875" lon="1.92532693035900592803955078125">
        <ele>1694.800048828125</ele>
        <time>2020-08-10T09:16:47.000Z</time>
      </trkpt>
      <trkpt lat="42.337419055402278900146484375" lon="1.92535844631493091583251953125">
        <ele>1694.199951171875</ele>
        <time>2020-08-10T09:16:50.000Z</time>
      </trkpt>
      <trkpt lat="42.337468676269054412841796875" lon="1.9253652356564998626708984375">
        <ele>1693.4000244140625</ele>
        <time>2020-08-10T09:16:51.000Z</time>
      </trkpt>
      <trkpt lat="42.337513603270053863525390625" lon="1.92537219263613224029541015625">
        <ele>1692.800048828125</ele>
        <time>2020-08-10T09:16:52.000Z</time>
      </trkpt>
      <trkpt lat="42.33758392743766307830810546875" lon="1.9253893755376338958740234375">
        <ele>1692.800048828125</ele>
        <time>2020-08-10T09:16:54.000Z</time>
      </trkpt>
      <trkpt lat="42.3376924730837345123291015625" lon="1.92543606273829936981201171875">
        <ele>1693.4000244140625</ele>
        <time>2020-08-10T09:16:58.000Z</time>
      </trkpt>
      <trkpt lat="42.3378326185047626495361328125" lon="1.9255151040852069854736328125">
        <ele>1693.5999755859375</ele>
        <time>2020-08-10T09:17:03.000Z</time>
      </trkpt>
      <trkpt lat="42.337910234928131103515625" lon="1.9255791418254375457763671875">
        <ele>1694.199951171875</ele>
        <time>2020-08-10T09:17:06.000Z</time>
      </trkpt>
      <trkpt lat="42.3379519768059253692626953125" lon="1.92562499083578586578369140625">
        <ele>1694</ele>
        <time>2020-08-10T09:17:08.000Z</time>
      </trkpt>
      <trkpt lat="42.33807611279189586639404296875" lon="1.9257109053432941436767578125">
        <ele>1694.4000244140625</ele>
        <time>2020-08-10T09:17:14.000Z</time>
      </trkpt>
      <trkpt lat="42.33813947997987270355224609375" lon="1.9257414154708385467529296875">
        <ele>1695.199951171875</ele>
        <time>2020-08-10T09:17:17.000Z</time>
      </trkpt>
      <trkpt lat="42.33822396956384181976318359375" lon="1.92578877322375774383544921875">
        <ele>1695.4000244140625</ele>
        <time>2020-08-10T09:17:21.000Z</time>
      </trkpt>
      <trkpt lat="42.3383680544793605804443359375" lon="1.92584090866148471832275390625">
        <ele>1695.5999755859375</ele>
        <time>2020-08-10T09:17:27.000Z</time>
      </trkpt>
      <trkpt lat="42.33849789015948772430419921875" lon="1.9259070418775081634521484375">
        <ele>1695.800048828125</ele>
        <time>2020-08-10T09:17:32.000Z</time>
      </trkpt>
      <trkpt lat="42.3385816253721714019775390625" lon="1.9259449280798435211181640625">
        <ele>1696.4000244140625</ele>
        <time>2020-08-10T09:17:35.000Z</time>
      </trkpt>
      <trkpt lat="42.33866619877517223358154296875" lon="1.92598423920571804046630859375">
        <ele>1696.5999755859375</ele>
        <time>2020-08-10T09:17:39.000Z</time>
      </trkpt>
      <trkpt lat="42.338817156851291656494140625" lon="1.9260850735008716583251953125">
        <ele>1696.800048828125</ele>
        <time>2020-08-10T09:17:45.000Z</time>
      </trkpt>
      <trkpt lat="42.338841967284679412841796875" lon="1.92610393278300762176513671875">
        <ele>1696.800048828125</ele>
        <time>2020-08-10T09:17:46.000Z</time>
      </trkpt>
      <trkpt lat="42.33892880380153656005859375" lon="1.92617216147482395172119140625">
        <ele>1696.199951171875</ele>
        <time>2020-08-10T09:17:49.000Z</time>
      </trkpt>
      <trkpt lat="42.33896442689001560211181640625" lon="1.92619127221405506134033203125">
        <ele>1696</ele>
        <time>2020-08-10T09:17:50.000Z</time>
      </trkpt>
      <trkpt lat="42.33912636525928974151611328125" lon="1.92630358971655368804931640625">
        <ele>1695.5999755859375</ele>
        <time>2020-08-10T09:17:55.000Z</time>
      </trkpt>
      <trkpt lat="42.33927908353507518768310546875" lon="1.9264079444110393524169921875">
        <ele>1696</ele>
        <time>2020-08-10T09:18:01.000Z</time>
      </trkpt>
      <trkpt lat="42.33937807381153106689453125" lon="1.9264595769345760345458984375">
        <ele>1696.199951171875</ele>
        <time>2020-08-10T09:18:05.000Z</time>
      </trkpt>
      <trkpt lat="42.33952601440250873565673828125" lon="1.92652218975126743316650390625">
        <ele>1697</ele>
        <time>2020-08-10T09:18:11.000Z</time>
      </trkpt>
      <trkpt lat="42.33954948373138904571533203125" lon="1.9265336729586124420166015625">
        <ele>1697.4000244140625</ele>
        <time>2020-08-10T09:18:12.000Z</time>
      </trkpt>
      <trkpt lat="42.33965023420751094818115234375" lon="1.9265542924404144287109375">
        <ele>1697</ele>
        <time>2020-08-10T09:18:16.000Z</time>
      </trkpt>
      <trkpt lat="42.339802868664264678955078125" lon="1.92663769237697124481201171875">
        <ele>1696.800048828125</ele>
        <time>2020-08-10T09:18:21.000Z</time>
      </trkpt>
      <trkpt lat="42.33990646898746490478515625" lon="1.92667943425476551055908203125">
        <ele>1696.5999755859375</ele>
        <time>2020-08-10T09:18:25.000Z</time>
      </trkpt>
      <trkpt lat="42.34006832353770732879638671875" lon="1.926745064556598663330078125">
        <ele>1696.199951171875</ele>
        <time>2020-08-10T09:18:31.000Z</time>
      </trkpt>
      <trkpt lat="42.34023093245923519134521484375" lon="1.9267801009118556976318359375">
        <ele>1696.199951171875</ele>
        <time>2020-08-10T09:18:37.000Z</time>
      </trkpt>
      <trkpt lat="42.34038935042917728424072265625" lon="1.92680365405976772308349609375">
        <ele>1696.5999755859375</ele>
        <time>2020-08-10T09:18:42.000Z</time>
      </trkpt>
      <trkpt lat="42.3404913581907749176025390625" lon="1.9268305599689483642578125">
        <ele>1695.800048828125</ele>
        <time>2020-08-10T09:18:46.000Z</time>
      </trkpt>
      <trkpt lat="42.34052111394703388214111328125" lon="1.92683265544474124908447265625">
        <ele>1695.5999755859375</ele>
        <time>2020-08-10T09:18:47.000Z</time>
      </trkpt>
      <trkpt lat="42.34060116112232208251953125" lon="1.92685847170650959014892578125">
        <ele>1694.4000244140625</ele>
        <time>2020-08-10T09:18:50.000Z</time>
      </trkpt>
      <trkpt lat="42.3406445793807506561279296875" lon="1.9268780015408992767333984375">
        <ele>1693.4000244140625</ele>
        <time>2020-08-10T09:18:52.000Z</time>
      </trkpt>
      <trkpt lat="42.3406915180385112762451171875" lon="1.92689468152821063995361328125">
        <ele>1693.4000244140625</ele>
        <time>2020-08-10T09:18:54.000Z</time>
      </trkpt>
      <trkpt lat="42.340766452252864837646484375" lon="1.92692066542804241180419921875">
        <ele>1693.4000244140625</ele>
        <time>2020-08-10T09:18:57.000Z</time>
      </trkpt>
      <trkpt lat="42.340783216059207916259765625" lon="1.92692871205508708953857421875">
        <ele>1693.199951171875</ele>
        <time>2020-08-10T09:18:58.000Z</time>
      </trkpt>
      <trkpt lat="42.34080408699810504913330078125" lon="1.926938854157924652099609375">
        <ele>1692.5999755859375</ele>
        <time>2020-08-10T09:19:04.000Z</time>
      </trkpt>
      <trkpt lat="42.34080366790294647216796875" lon="1.92693910561501979827880859375">
        <ele>1693</ele>
        <time>2020-08-10T09:19:15.000Z</time>
      </trkpt>
      <trkpt lat="42.34080425463616847991943359375" lon="1.92693860270082950592041015625">
        <ele>1692.800048828125</ele>
        <time>2020-08-10T09:19:42.000Z</time>
      </trkpt>
      <trkpt lat="42.340804673731327056884765625" lon="1.9269383512437343597412109375">
        <ele>1692.5999755859375</ele>
        <time>2020-08-10T09:19:49.000Z</time>
      </trkpt>
      <trkpt lat="42.34080475755035877227783203125" lon="1.92693910561501979827880859375">
        <ele>1692.800048828125</ele>
        <time>2020-08-10T09:20:04.000Z</time>
      </trkpt>
      <trkpt lat="42.3408759199082851409912109375" lon="1.92695452831685543060302734375">
        <ele>1692.5999755859375</ele>
        <time>2020-08-10T09:20:10.000Z</time>
      </trkpt>
      <trkpt lat="42.34103978611528873443603515625" lon="1.92699325270950794219970703125">
        <ele>1692.199951171875</ele>
        <time>2020-08-10T09:20:16.000Z</time>
      </trkpt>
      <trkpt lat="42.3411087691783905029296875" lon="1.92701772786676883697509765625">
        <ele>1691.5999755859375</ele>
        <time>2020-08-10T09:20:18.000Z</time>
      </trkpt>
      <trkpt lat="42.3412095196545124053955078125" lon="1.9270451366901397705078125">
        <ele>1690.5999755859375</ele>
        <time>2020-08-10T09:20:21.000Z</time>
      </trkpt>
      <trkpt lat="42.3413255251944065093994140625" lon="1.927067935466766357421875">
        <ele>1689.4000244140625</ele>
        <time>2020-08-10T09:20:24.000Z</time>
      </trkpt>
      <trkpt lat="42.34139978885650634765625" lon="1.92708780057728290557861328125">
        <ele>1688.199951171875</ele>
        <time>2020-08-10T09:20:26.000Z</time>
      </trkpt>
      <trkpt lat="42.34147958457469940185546875" lon="1.927103139460086822509765625">
        <ele>1686.5999755859375</ele>
        <time>2020-08-10T09:20:28.000Z</time>
      </trkpt>
      <trkpt lat="42.3415585421025753021240234375" lon="1.92710355855524539947509765625">
        <ele>1685.5999755859375</ele>
        <time>2020-08-10T09:20:30.000Z</time>
      </trkpt>
      <trkpt lat="42.34159349463880062103271484375" lon="1.9270972721278667449951171875">
        <ele>1685</ele>
        <time>2020-08-10T09:20:31.000Z</time>
      </trkpt>
      <trkpt lat="42.34162501059472560882568359375" lon="1.92709467373788356781005859375">
        <ele>1684.5999755859375</ele>
        <time>2020-08-10T09:20:32.000Z</time>
      </trkpt>
      <trkpt lat="42.34168879687786102294921875" lon="1.927085705101490020751953125">
        <ele>1683.199951171875</ele>
        <time>2020-08-10T09:20:34.000Z</time>
      </trkpt>
      <trkpt lat="42.34176456928253173828125" lon="1.9270800054073333740234375">
        <ele>1681.5999755859375</ele>
        <time>2020-08-10T09:20:36.000Z</time>
      </trkpt>
      <trkpt lat="42.34181175939738750457763671875" lon="1.92707187496125698089599609375">
        <ele>1681.4000244140625</ele>
        <time>2020-08-10T09:20:37.000Z</time>
      </trkpt>
      <trkpt lat="42.341897673904895782470703125" lon="1.92704790271818637847900390625">
        <ele>1680.4000244140625</ele>
        <time>2020-08-10T09:20:39.000Z</time>
      </trkpt>
      <trkpt lat="42.34193279407918453216552734375" lon="1.92703616805374622344970703125">
        <ele>1679.4000244140625</ele>
        <time>2020-08-10T09:20:40.000Z</time>
      </trkpt>
      <trkpt lat="42.3419910483062267303466796875" lon="1.927022673189640045166015625">
        <ele>1677.800048828125</ele>
        <time>2020-08-10T09:20:42.000Z</time>
      </trkpt>
      <trkpt lat="42.3420198820531368255615234375" lon="1.9270151294767856597900390625">
        <ele>1677.199951171875</ele>
        <time>2020-08-10T09:20:43.000Z</time>
      </trkpt>
      <trkpt lat="42.342048548161983489990234375" lon="1.92700825631618499755859375">
        <ele>1676.800048828125</ele>
        <time>2020-08-10T09:20:44.000Z</time>
      </trkpt>
      <trkpt lat="42.3421409167349338531494140625" lon="1.927009262144565582275390625">
        <ele>1675.5999755859375</ele>
        <time>2020-08-10T09:20:47.000Z</time>
      </trkpt>
      <trkpt lat="42.342193387448787689208984375" lon="1.92702258937060832977294921875">
        <ele>1675.199951171875</ele>
        <time>2020-08-10T09:20:49.000Z</time>
      </trkpt>
      <trkpt lat="42.34223823063075542449951171875" lon="1.92702895961701869964599609375">
        <ele>1674.4000244140625</ele>
        <time>2020-08-10T09:20:51.000Z</time>
      </trkpt>
      <trkpt lat="42.342282235622406005859375" lon="1.9270271994173526763916015625">
        <ele>1672.800048828125</ele>
        <time>2020-08-10T09:20:53.000Z</time>
      </trkpt>
      <trkpt lat="42.34230981208384037017822265625" lon="1.92702460102736949920654296875">
        <ele>1672.199951171875</ele>
        <time>2020-08-10T09:20:54.000Z</time>
      </trkpt>
      <trkpt lat="42.3423337005078792572021484375" lon="1.92702057771384716033935546875">
        <ele>1671.5999755859375</ele>
        <time>2020-08-10T09:20:55.000Z</time>
      </trkpt>
      <trkpt lat="42.34239044599235057830810546875" lon="1.927017308771610260009765625">
        <ele>1670.4000244140625</ele>
        <time>2020-08-10T09:20:57.000Z</time>
      </trkpt>
      <trkpt lat="42.342443168163299560546875" lon="1.927009932696819305419921875">
        <ele>1669.4000244140625</ele>
        <time>2020-08-10T09:20:59.000Z</time>
      </trkpt>
      <trkpt lat="42.3424668051302433013916015625" lon="1.9270077534019947052001953125">
        <ele>1669</ele>
        <time>2020-08-10T09:21:00.000Z</time>
      </trkpt>
      <trkpt lat="42.34256311319768428802490234375" lon="1.92700012587010860443115234375">
        <ele>1667.800048828125</ele>
        <time>2020-08-10T09:21:03.000Z</time>
      </trkpt>
      <trkpt lat="42.34264408238232135772705078125" lon="1.92697263322770595550537109375">
        <ele>1666.199951171875</ele>
        <time>2020-08-10T09:21:06.000Z</time>
      </trkpt>
      <trkpt lat="42.34270879067480564117431640625" lon="1.9269510917365550994873046875">
        <ele>1664.4000244140625</ele>
        <time>2020-08-10T09:21:08.000Z</time>
      </trkpt>
      <trkpt lat="42.3427655361592769622802734375" lon="1.92693005315959453582763671875">
        <ele>1662.5999755859375</ele>
        <time>2020-08-10T09:21:10.000Z</time>
      </trkpt>
      <trkpt lat="42.342825718224048614501953125" lon="1.92691228352487087249755859375">
        <ele>1661.4000244140625</ele>
        <time>2020-08-10T09:21:12.000Z</time>
      </trkpt>
      <trkpt lat="42.34292856417596340179443359375" lon="1.92684992216527462005615234375">
        <ele>1660.199951171875</ele>
        <time>2020-08-10T09:21:16.000Z</time>
      </trkpt>
      <trkpt lat="42.342982627451419830322265625" lon="1.926808767020702362060546875">
        <ele>1658.800048828125</ele>
        <time>2020-08-10T09:21:18.000Z</time>
      </trkpt>
      <trkpt lat="42.34304867684841156005859375" lon="1.92677951417863368988037109375">
        <ele>1657.800048828125</ele>
        <time>2020-08-10T09:21:20.000Z</time>
      </trkpt>
      <trkpt lat="42.343125455081462860107421875" lon="1.92673475481569766998291015625">
        <ele>1656.5999755859375</ele>
        <time>2020-08-10T09:21:22.000Z</time>
      </trkpt>
      <trkpt lat="42.343220673501491546630859375" lon="1.92665009759366512298583984375">
        <ele>1655.4000244140625</ele>
        <time>2020-08-10T09:21:25.000Z</time>
      </trkpt>
      <trkpt lat="42.3432573862373828887939453125" lon="1.92661933600902557373046875">
        <ele>1655</ele>
        <time>2020-08-10T09:21:26.000Z</time>
      </trkpt>
      <trkpt lat="42.34331195242702960968017578125" lon="1.92656024359166622161865234375">
        <ele>1654.4000244140625</ele>
        <time>2020-08-10T09:21:28.000Z</time>
      </trkpt>
      <trkpt lat="42.3433837853372097015380859375" lon="1.92649100907146930694580078125">
        <ele>1652.800048828125</ele>
        <time>2020-08-10T09:21:31.000Z</time>
      </trkpt>
      <trkpt lat="42.343408428132534027099609375" lon="1.9264719821512699127197265625">
        <ele>1652</ele>
        <time>2020-08-10T09:21:32.000Z</time>
      </trkpt>
      <trkpt lat="42.343432903289794921875" lon="1.9264523684978485107421875">
        <ele>1651.5999755859375</ele>
        <time>2020-08-10T09:21:33.000Z</time>
      </trkpt>
      <trkpt lat="42.34348847530782222747802734375" lon="1.926391683518886566162109375">
        <ele>1650.199951171875</ele>
        <time>2020-08-10T09:21:36.000Z</time>
      </trkpt>
      <trkpt lat="42.3435054905712604522705078125" lon="1.92637391388416290283203125">
        <ele>1649.800048828125</ele>
        <time>2020-08-10T09:21:37.000Z</time>
      </trkpt>
      <trkpt lat="42.34353189356625080108642578125" lon="1.9263398833572864532470703125">
        <ele>1649.4000244140625</ele>
        <time>2020-08-10T09:21:39.000Z</time>
      </trkpt>
      <trkpt lat="42.3435417003929615020751953125" lon="1.92631901241838932037353515625">
        <ele>1648.4000244140625</ele>
        <time>2020-08-10T09:21:40.000Z</time>
      </trkpt>
      <trkpt lat="42.3435681872069835662841796875" lon="1.92628364078700542449951171875">
        <ele>1647.5999755859375</ele>
        <time>2020-08-10T09:21:42.000Z</time>
      </trkpt>
      <trkpt lat="42.34359459020197391510009765625" lon="1.9262496940791606903076171875">
        <ele>1647.199951171875</ele>
        <time>2020-08-10T09:21:44.000Z</time>
      </trkpt>
      <trkpt lat="42.34361940063536167144775390625" lon="1.92621792666614055633544921875">
        <ele>1646</ele>
        <time>2020-08-10T09:21:46.000Z</time>
      </trkpt>
      <trkpt lat="42.34366960823535919189453125" lon="1.9261531345546245574951171875">
        <ele>1645</ele>
        <time>2020-08-10T09:21:50.000Z</time>
      </trkpt>
      <trkpt lat="42.34373624436557292938232421875" lon="1.92604408599436283111572265625">
        <ele>1644</ele>
        <time>2020-08-10T09:21:54.000Z</time>
      </trkpt>
      <trkpt lat="42.343752086162567138671875" lon="1.92602229304611682891845703125">
        <ele>1643.5999755859375</ele>
        <time>2020-08-10T09:21:55.000Z</time>
      </trkpt>
      <trkpt lat="42.34378301538527011871337890625" lon="1.92598608322441577911376953125">
        <ele>1642.5999755859375</ele>
        <time>2020-08-10T09:21:57.000Z</time>
      </trkpt>
      <trkpt lat="42.343816459178924560546875" lon="1.925955824553966522216796875">
        <ele>1641.199951171875</ele>
        <time>2020-08-10T09:21:59.000Z</time>
      </trkpt>
      <trkpt lat="42.34387211501598358154296875" lon="1.92589270882308483123779296875">
        <ele>1639.5999755859375</ele>
        <time>2020-08-10T09:22:02.000Z</time>
      </trkpt>
      <trkpt lat="42.34390740282833576202392578125" lon="1.92584778182208538055419921875">
        <ele>1638.5999755859375</ele>
        <time>2020-08-10T09:22:04.000Z</time>
      </trkpt>
      <trkpt lat="42.34397697262465953826904296875" lon="1.9257625378668308258056640625">
        <ele>1637.199951171875</ele>
        <time>2020-08-10T09:22:08.000Z</time>
      </trkpt>
      <trkpt lat="42.34400765039026737213134765625" lon="1.92571987397968769073486328125">
        <ele>1636.199951171875</ele>
        <time>2020-08-10T09:22:10.000Z</time>
      </trkpt>
      <trkpt lat="42.34402231872081756591796875" lon="1.92570243962109088897705078125">
        <ele>1635.800048828125</ele>
        <time>2020-08-10T09:22:11.000Z</time>
      </trkpt>
      <trkpt lat="42.34403547830879688262939453125" lon="1.9256881065666675567626953125">
        <ele>1635.199951171875</ele>
        <time>2020-08-10T09:22:12.000Z</time>
      </trkpt>
      <trkpt lat="42.3440882004797458648681640625" lon="1.92564846016466617584228515625">
        <ele>1633.800048828125</ele>
        <time>2020-08-10T09:22:15.000Z</time>
      </trkpt>
      <trkpt lat="42.34413639642298221588134765625" lon="1.92560277879238128662109375">
        <ele>1632.4000244140625</ele>
        <time>2020-08-10T09:22:18.000Z</time>
      </trkpt>
      <trkpt lat="42.344155423343181610107421875" lon="1.92558140493929386138916015625">
        <ele>1632</ele>
        <time>2020-08-10T09:22:20.000Z</time>
      </trkpt>
      <trkpt lat="42.34417042694985866546630859375" lon="1.92557436414062976837158203125">
        <ele>1631.5999755859375</ele>
        <time>2020-08-10T09:22:22.000Z</time>
      </trkpt>
      <trkpt lat="42.344191633164882659912109375" lon="1.92554108798503875732421875">
        <ele>1631.4000244140625</ele>
        <time>2020-08-10T09:22:26.000Z</time>
      </trkpt>
      <trkpt lat="42.34423479996621608734130859375" lon="1.92546187900006771087646484375">
        <ele>1630.4000244140625</ele>
        <time>2020-08-10T09:22:32.000Z</time>
      </trkpt>
      <trkpt lat="42.34424251131713390350341796875" lon="1.92545232363045215606689453125">
        <ele>1630</ele>
        <time>2020-08-10T09:22:33.000Z</time>
      </trkpt>
      <trkpt lat="42.3442590236663818359375" lon="1.9254316203296184539794921875">
        <ele>1629.5999755859375</ele>
        <time>2020-08-10T09:22:36.000Z</time>
      </trkpt>
      <trkpt lat="42.34427218325436115264892578125" lon="1.92542466334998607635498046875">
        <ele>1629.199951171875</ele>
        <time>2020-08-10T09:22:39.000Z</time>
      </trkpt>
      <trkpt lat="42.34427536837756633758544921875" lon="1.9254272617399692535400390625">
        <ele>1629.800048828125</ele>
        <time>2020-08-10T09:22:52.000Z</time>
      </trkpt>
      <trkpt lat="42.3442759551107883453369140625" lon="1.92542734555900096893310546875">
        <ele>1629.4000244140625</ele>
        <time>2020-08-10T09:23:02.000Z</time>
      </trkpt>
      <trkpt lat="42.34432146884500980377197265625" lon="1.92538593895733356475830078125">
        <ele>1629</ele>
        <time>2020-08-10T09:25:06.000Z</time>
      </trkpt>
      <trkpt lat="42.34431224875152111053466796875" lon="1.925345622003078460693359375">
        <ele>1629.199951171875</ele>
        <time>2020-08-10T09:25:10.000Z</time>
      </trkpt>
      <trkpt lat="42.3443094827234745025634765625" lon="1.9251838512718677520751953125">
        <ele>1629.4000244140625</ele>
        <time>2020-08-10T09:25:16.000Z</time>
      </trkpt>
      <trkpt lat="42.344331443309783935546875" lon="1.9249236769974231719970703125">
        <ele>1630</ele>
        <time>2020-08-10T09:25:25.000Z</time>
      </trkpt>
      <trkpt lat="42.344377040863037109375" lon="1.92469476722180843353271484375">
        <ele>1630</ele>
        <time>2020-08-10T09:25:33.000Z</time>
      </trkpt>
      <trkpt lat="42.34440185129642486572265625" lon="1.92460340447723865509033203125">
        <ele>1630.199951171875</ele>
        <time>2020-08-10T09:25:36.000Z</time>
      </trkpt>
      <trkpt lat="42.34443579800426959991455078125" lon="1.92448991350829601287841796875">
        <ele>1631</ele>
        <time>2020-08-10T09:25:40.000Z</time>
      </trkpt>
      <trkpt lat="42.34447837807238101959228515625" lon="1.92437223158776760101318359375">
        <ele>1631.5999755859375</ele>
        <time>2020-08-10T09:25:44.000Z</time>
      </trkpt>
      <trkpt lat="42.3444868437945842742919921875" lon="1.92433920688927173614501953125">
        <ele>1631.5999755859375</ele>
        <time>2020-08-10T09:25:45.000Z</time>
      </trkpt>
      <trkpt lat="42.34455063007771968841552734375" lon="1.92412546835839748382568359375">
        <ele>1632.5999755859375</ele>
        <time>2020-08-10T09:25:52.000Z</time>
      </trkpt>
      <trkpt lat="42.34457024373114109039306640625" lon="1.9240700639784336090087890625">
        <ele>1632.800048828125</ele>
        <time>2020-08-10T09:25:54.000Z</time>
      </trkpt>
      <trkpt lat="42.3446176014840602874755859375" lon="1.92389882169663906097412109375">
        <ele>1634</ele>
        <time>2020-08-10T09:26:00.000Z</time>
      </trkpt>
      <trkpt lat="42.34463059343397617340087890625" lon="1.9238424114882946014404296875">
        <ele>1634.199951171875</ele>
        <time>2020-08-10T09:26:02.000Z</time>
      </trkpt>
      <trkpt lat="42.34466604888439178466796875" lon="1.92368240095674991607666015625">
        <ele>1635</ele>
        <time>2020-08-10T09:26:08.000Z</time>
      </trkpt>
      <trkpt lat="42.3446766100823879241943359375" lon="1.92362490110099315643310546875">
        <ele>1635.4000244140625</ele>
        <time>2020-08-10T09:26:10.000Z</time>
      </trkpt>
      <trkpt lat="42.3447272367775440216064453125" lon="1.92339397966861724853515625">
        <ele>1636.4000244140625</ele>
        <time>2020-08-10T09:26:17.000Z</time>
      </trkpt>
      <trkpt lat="42.34473645687103271484375" lon="1.92336573265492916107177734375">
        <ele>1636.5999755859375</ele>
        <time>2020-08-10T09:26:18.000Z</time>
      </trkpt>
      <trkpt lat="42.34477333724498748779296875" lon="1.9231648184359073638916015625">
        <ele>1637.4000244140625</ele>
        <time>2020-08-10T09:26:25.000Z</time>
      </trkpt>
      <trkpt lat="42.34480527229607105255126953125" lon="1.922883354127407073974609375">
        <ele>1638.4000244140625</ele>
        <time>2020-08-10T09:26:34.000Z</time>
      </trkpt>
      <trkpt lat="42.3448040150105953216552734375" lon="1.92285208962857723236083984375">
        <ele>1638.5999755859375</ele>
        <time>2020-08-10T09:26:35.000Z</time>
      </trkpt>
      <trkpt lat="42.34481030143797397613525390625" lon="1.9226384349167346954345703125">
        <ele>1639.4000244140625</ele>
        <time>2020-08-10T09:26:42.000Z</time>
      </trkpt>
      <trkpt lat="42.344792783260345458984375" lon="1.92248797975480556488037109375">
        <ele>1639.800048828125</ele>
        <time>2020-08-10T09:26:47.000Z</time>
      </trkpt>
      <trkpt lat="42.34477090649306774139404296875" lon="1.92232335917651653289794921875">
        <ele>1640.199951171875</ele>
        <time>2020-08-10T09:26:52.000Z</time>
      </trkpt>
      <trkpt lat="42.34472346492111682891845703125" lon="1.92207491956651210784912109375">
        <ele>1640.800048828125</ele>
        <time>2020-08-10T09:27:00.000Z</time>
      </trkpt>
      <trkpt lat="42.3447191901504993438720703125" lon="1.92204390652477741241455078125">
        <ele>1640.800048828125</ele>
        <time>2020-08-10T09:27:01.000Z</time>
      </trkpt>
      <trkpt lat="42.344667054712772369384765625" lon="1.92183637060225009918212890625">
        <ele>1641.5999755859375</ele>
        <time>2020-08-10T09:27:08.000Z</time>
      </trkpt>
      <trkpt lat="42.34465288929641246795654296875" lon="1.92174819298088550567626953125">
        <ele>1642</ele>
        <time>2020-08-10T09:27:11.000Z</time>
      </trkpt>
      <trkpt lat="42.34461885876953601837158203125" lon="1.9216067902743816375732421875">
        <ele>1643</ele>
        <time>2020-08-10T09:27:16.000Z</time>
      </trkpt>
      <trkpt lat="42.344607375562191009521484375" lon="1.92158105783164501190185546875">
        <ele>1643.199951171875</ele>
        <time>2020-08-10T09:27:17.000Z</time>
      </trkpt>
      <trkpt lat="42.3445361293852329254150390625" lon="1.92140671424567699432373046875">
        <ele>1644.199951171875</ele>
        <time>2020-08-10T09:27:24.000Z</time>
      </trkpt>
      <trkpt lat="42.34452179633080959320068359375" lon="1.92138425074517726898193359375">
        <ele>1644.4000244140625</ele>
        <time>2020-08-10T09:27:25.000Z</time>
      </trkpt>
      <trkpt lat="42.34442573972046375274658203125" lon="1.9212193787097930908203125">
        <ele>1645.4000244140625</ele>
        <time>2020-08-10T09:27:32.000Z</time>
      </trkpt>
      <trkpt lat="42.34440964646637439727783203125" lon="1.92119683139026165008544921875">
        <ele>1645.4000244140625</ele>
        <time>2020-08-10T09:27:33.000Z</time>
      </trkpt>
      <trkpt lat="42.3442818224430084228515625" lon="1.9210408441722393035888671875">
        <ele>1646.4000244140625</ele>
        <time>2020-08-10T09:27:41.000Z</time>
      </trkpt>
      <trkpt lat="42.3442672379314899444580078125" lon="1.92101947031915187835693359375">
        <ele>1646.5999755859375</ele>
        <time>2020-08-10T09:27:42.000Z</time>
      </trkpt>
      <trkpt lat="42.34416179358959197998046875" lon="1.92088016308844089508056640625">
        <ele>1647.5999755859375</ele>
        <time>2020-08-10T09:27:49.000Z</time>
      </trkpt>
      <trkpt lat="42.3441321216523647308349609375" lon="1.9208440370857715606689453125">
        <ele>1647.800048828125</ele>
        <time>2020-08-10T09:27:51.000Z</time>
      </trkpt>
      <trkpt lat="42.344058193266391754150390625" lon="1.920751668512821197509765625">
        <ele>1648.5999755859375</ele>
        <time>2020-08-10T09:27:56.000Z</time>
      </trkpt>
      <trkpt lat="42.34403329901397228240966796875" lon="1.9207109324634075164794921875">
        <ele>1648.800048828125</ele>
        <time>2020-08-10T09:27:58.000Z</time>
      </trkpt>
      <trkpt lat="42.3439036309719085693359375" lon="1.92052812315523624420166015625">
        <ele>1649.5999755859375</ele>
        <time>2020-08-10T09:28:07.000Z</time>
      </trkpt>
      <trkpt lat="42.34389013610780239105224609375" lon="1.92050565965473651885986328125">
        <ele>1649.5999755859375</ele>
        <time>2020-08-10T09:28:08.000Z</time>
      </trkpt>
      <trkpt lat="42.3437787406146526336669921875" lon="1.92032075487077236175537109375">
        <ele>1650.5999755859375</ele>
        <time>2020-08-10T09:28:16.000Z</time>
      </trkpt>
      <trkpt lat="42.34375183470547199249267578125" lon="1.92027230747044086456298828125">
        <ele>1651</ele>
        <time>2020-08-10T09:28:18.000Z</time>
      </trkpt>
      <trkpt lat="42.34367229044437408447265625" lon="1.92012830637395381927490234375">
        <ele>1651.800048828125</ele>
        <time>2020-08-10T09:28:24.000Z</time>
      </trkpt>
      <trkpt lat="42.343640439212322235107421875" lon="1.92005052231252193450927734375">
        <ele>1652</ele>
        <time>2020-08-10T09:28:27.000Z</time>
      </trkpt>
      <trkpt lat="42.34362711198627948760986328125" lon="1.91992714069783687591552734375">
        <ele>1652.4000244140625</ele>
        <time>2020-08-10T09:28:31.000Z</time>
      </trkpt>
      <trkpt lat="42.3436380922794342041015625" lon="1.91983628086745738983154296875">
        <ele>1652.800048828125</ele>
        <time>2020-08-10T09:28:34.000Z</time>
      </trkpt>
      <trkpt lat="42.34373004175722599029541015625" lon="1.919643580913543701171875">
        <ele>1654</ele>
        <time>2020-08-10T09:28:42.000Z</time>
      </trkpt>
      <trkpt lat="42.3438414372503757476806640625" lon="1.91953369416296482086181640625">
        <ele>1655</ele>
        <time>2020-08-10T09:28:48.000Z</time>
      </trkpt>
      <trkpt lat="42.34387370757758617401123046875" lon="1.9194895215332508087158203125">
        <ele>1655.4000244140625</ele>
        <time>2020-08-10T09:28:50.000Z</time>
      </trkpt>
      <trkpt lat="42.34397797845304012298583984375" lon="1.9192930497229099273681640625">
        <ele>1656.199951171875</ele>
        <time>2020-08-10T09:28:58.000Z</time>
      </trkpt>
      <trkpt lat="42.34405442140996456146240234375" lon="1.91910378634929656982421875">
        <ele>1656.5999755859375</ele>
        <time>2020-08-10T09:29:05.000Z</time>
      </trkpt>
      <trkpt lat="42.34414645470678806304931640625" lon="1.918862052261829376220703125">
        <ele>1657.199951171875</ele>
        <time>2020-08-10T09:29:13.000Z</time>
      </trkpt>
      <trkpt lat="42.34431392513215541839599609375" lon="1.918710172176361083984375">
        <ele>1658.199951171875</ele>
        <time>2020-08-10T09:29:21.000Z</time>
      </trkpt>
      <trkpt lat="42.344338484108448028564453125" lon="1.918700449168682098388671875">
        <ele>1658.4000244140625</ele>
        <time>2020-08-10T09:29:22.000Z</time>
      </trkpt>
      <trkpt lat="42.344511486589908599853515625" lon="1.918646134436130523681640625">
        <ele>1659.4000244140625</ele>
        <time>2020-08-10T09:29:29.000Z</time>
      </trkpt>
      <trkpt lat="42.3445347882807254791259765625" lon="1.9186338968575000762939453125">
        <ele>1659.5999755859375</ele>
        <time>2020-08-10T09:29:30.000Z</time>
      </trkpt>
      <trkpt lat="42.34469748102128505706787109375" lon="1.9184625707566738128662109375">
        <ele>1660</ele>
        <time>2020-08-10T09:29:38.000Z</time>
      </trkpt>
      <trkpt lat="42.34473553486168384552001953125" lon="1.91836886107921600341796875">
        <ele>1660.5999755859375</ele>
        <time>2020-08-10T09:29:41.000Z</time>
      </trkpt>
      <trkpt lat="42.34475933946669101715087890625" lon="1.918223686516284942626953125">
        <ele>1661</ele>
        <time>2020-08-10T09:29:45.000Z</time>
      </trkpt>
      <trkpt lat="42.34477845020592212677001953125" lon="1.9179623387753963470458984375">
        <ele>1661.199951171875</ele>
        <time>2020-08-10T09:29:52.000Z</time>
      </trkpt>
      <trkpt lat="42.34482622705399990081787109375" lon="1.91773158498108386993408203125">
        <ele>1661.5999755859375</ele>
        <time>2020-08-10T09:29:58.000Z</time>
      </trkpt>
      <trkpt lat="42.34486293978989124298095703125" lon="1.91766746342182159423828125">
        <ele>1661.800048828125</ele>
        <time>2020-08-10T09:30:00.000Z</time>
      </trkpt>
      <trkpt lat="42.3450236208736896514892578125" lon="1.9175600074231624603271484375">
        <ele>1662.4000244140625</ele>
        <time>2020-08-10T09:30:06.000Z</time>
      </trkpt>
      <trkpt lat="42.34513769857585430145263671875" lon="1.917518265545368194580078125">
        <ele>1662.800048828125</ele>
        <time>2020-08-10T09:30:10.000Z</time>
      </trkpt>
      <trkpt lat="42.345275245606899261474609375" lon="1.917473338544368743896484375">
        <ele>1663.199951171875</ele>
        <time>2020-08-10T09:30:15.000Z</time>
      </trkpt>
      <trkpt lat="42.34547180123627185821533203125" lon="1.91734987311065196990966796875">
        <ele>1663.800048828125</ele>
        <time>2020-08-10T09:30:23.000Z</time>
      </trkpt>
      <trkpt lat="42.34549493528902530670166015625" lon="1.917329840362071990966796875">
        <ele>1664</ele>
        <time>2020-08-10T09:30:24.000Z</time>
      </trkpt>
      <trkpt lat="42.34573331661522388458251953125" lon="1.9171244837343692779541015625">
        <ele>1664.800048828125</ele>
        <time>2020-08-10T09:30:34.000Z</time>
      </trkpt>
      <trkpt lat="42.3457612283527851104736328125" lon="1.91710419952869415283203125">
        <ele>1665</ele>
        <time>2020-08-10T09:30:35.000Z</time>
      </trkpt>
      <trkpt lat="42.34596398659050464630126953125" lon="1.91693899221718311309814453125">
        <ele>1664.800048828125</ele>
        <time>2020-08-10T09:30:42.000Z</time>
      </trkpt>
      <trkpt lat="42.3461902141571044921875" lon="1.9167751260101795196533203125">
        <ele>1665.4000244140625</ele>
        <time>2020-08-10T09:30:50.000Z</time>
      </trkpt>
      <trkpt lat="42.34639464877545833587646484375" lon="1.9166131876409053802490234375">
        <ele>1666</ele>
        <time>2020-08-10T09:30:58.000Z</time>
      </trkpt>
      <trkpt lat="42.3464180342853069305419921875" lon="1.916591227054595947265625">
        <ele>1666.199951171875</ele>
        <time>2020-08-10T09:30:59.000Z</time>
      </trkpt>
      <trkpt lat="42.34656748361885547637939453125" lon="1.91648536361753940582275390625">
        <ele>1667</ele>
        <time>2020-08-10T09:31:05.000Z</time>
      </trkpt>
      <trkpt lat="42.3465917073190212249755859375" lon="1.91646181046962738037109375">
        <ele>1667.199951171875</ele>
        <time>2020-08-10T09:31:06.000Z</time>
      </trkpt>
      <trkpt lat="42.34678541310131549835205078125" lon="1.91627673804759979248046875">
        <ele>1667</ele>
        <time>2020-08-10T09:31:14.000Z</time>
      </trkpt>
      <trkpt lat="42.34697719104588031768798828125" lon="1.9161290489137172698974609375">
        <ele>1666.800048828125</ele>
        <time>2020-08-10T09:31:21.000Z</time>
      </trkpt>
      <trkpt lat="42.34718288294970989227294921875" lon="1.91598714329302310943603515625">
        <ele>1666.800048828125</ele>
        <time>2020-08-10T09:31:28.000Z</time>
      </trkpt>
      <trkpt lat="42.34733283519744873046875" lon="1.9157662801444530487060546875">
        <ele>1666.5999755859375</ele>
        <time>2020-08-10T09:31:34.000Z</time>
      </trkpt>
      <trkpt lat="42.34735362231731414794921875" lon="1.9156610034406185150146484375">
        <ele>1666.4000244140625</ele>
        <time>2020-08-10T09:31:36.000Z</time>
      </trkpt>
      <trkpt lat="42.3473467491567134857177734375" lon="1.9154893420636653900146484375">
        <ele>1666</ele>
        <time>2020-08-10T09:31:39.000Z</time>
      </trkpt>
      <trkpt lat="42.34731799922883510589599609375" lon="1.91536772064864635467529296875">
        <ele>1665.800048828125</ele>
        <time>2020-08-10T09:31:41.000Z</time>
      </trkpt>
      <trkpt lat="42.3472230322659015655517578125" lon="1.91502255387604236602783203125">
        <ele>1665</ele>
        <time>2020-08-10T09:31:46.000Z</time>
      </trkpt>
      <trkpt lat="42.34712789766490459442138671875" lon="1.91469565965235233306884765625">
        <ele>1663.5999755859375</ele>
        <time>2020-08-10T09:31:50.000Z</time>
      </trkpt>
      <trkpt lat="42.3471147380769252777099609375" lon="1.91460966132581233978271484375">
        <ele>1663.199951171875</ele>
        <time>2020-08-10T09:31:51.000Z</time>
      </trkpt>
      <trkpt lat="42.34712890349328517913818359375" lon="1.9144275225698947906494140625">
        <ele>1662.5999755859375</ele>
        <time>2020-08-10T09:31:53.000Z</time>
      </trkpt>
      <trkpt lat="42.34716041944921016693115234375" lon="1.9143380038440227508544921875">
        <ele>1662</ele>
        <time>2020-08-10T09:31:54.000Z</time>
      </trkpt>
      <trkpt lat="42.34720517881214618682861328125" lon="1.914253346621990203857421875">
        <ele>1661.4000244140625</ele>
        <time>2020-08-10T09:31:55.000Z</time>
      </trkpt>
      <trkpt lat="42.3473202623426914215087890625" lon="1.91409149207174777984619140625">
        <ele>1660.199951171875</ele>
        <time>2020-08-10T09:31:57.000Z</time>
      </trkpt>
      <trkpt lat="42.34738321043550968170166015625" lon="1.914007924497127532958984375">
        <ele>1659.5999755859375</ele>
        <time>2020-08-10T09:31:58.000Z</time>
      </trkpt>
      <trkpt lat="42.347447164356708526611328125" lon="1.91391983069479465484619140625">
        <ele>1659.199951171875</ele>
        <time>2020-08-10T09:31:59.000Z</time>
      </trkpt>
      <trkpt lat="42.34758052043616771697998046875" lon="1.91373056732118129730224609375">
        <ele>1658.199951171875</ele>
        <time>2020-08-10T09:32:01.000Z</time>
      </trkpt>
      <trkpt lat="42.3476552031934261322021484375" lon="1.91363769583404064178466796875">
        <ele>1657.4000244140625</ele>
        <time>2020-08-10T09:32:02.000Z</time>
      </trkpt>
      <trkpt lat="42.34773860312998294830322265625" lon="1.91355320625007152557373046875">
        <ele>1656.5999755859375</ele>
        <time>2020-08-10T09:32:03.000Z</time>
      </trkpt>
      <trkpt lat="42.34783113934099674224853515625" lon="1.913479864597320556640625">
        <ele>1655.5999755859375</ele>
        <time>2020-08-10T09:32:04.000Z</time>
      </trkpt>
      <trkpt lat="42.34803632833063602447509765625" lon="1.91336578689515590667724609375">
        <ele>1654</ele>
        <time>2020-08-10T09:32:06.000Z</time>
      </trkpt>
      <trkpt lat="42.34814512543380260467529296875" lon="1.91332018934190273284912109375">
        <ele>1653.4000244140625</ele>
        <time>2020-08-10T09:32:07.000Z</time>
      </trkpt>
      <trkpt lat="42.34825559891760349273681640625" lon="1.91327526234090328216552734375">
        <ele>1652.800048828125</ele>
        <time>2020-08-10T09:32:08.000Z</time>
      </trkpt>
      <trkpt lat="42.3483669944107532501220703125" lon="1.9132289104163646697998046875">
        <ele>1651.5999755859375</ele>
        <time>2020-08-10T09:32:09.000Z</time>
      </trkpt>
      <trkpt lat="42.3485869355499744415283203125" lon="1.91313629038631916046142578125">
        <ele>1649.5999755859375</ele>
        <time>2020-08-10T09:32:11.000Z</time>
      </trkpt>
      <trkpt lat="42.34868927858769893646240234375" lon="1.91309136338531970977783203125">
        <ele>1648.5999755859375</ele>
        <time>2020-08-10T09:32:12.000Z</time>
      </trkpt>
      <trkpt lat="42.34878550283610820770263671875" lon="1.9130455143749713897705078125">
        <ele>1648</ele>
        <time>2020-08-10T09:32:13.000Z</time>
      </trkpt>
      <trkpt lat="42.34897174872457981109619140625" lon="1.91292640753090381622314453125">
        <ele>1646.5999755859375</ele>
        <time>2020-08-10T09:32:15.000Z</time>
      </trkpt>
      <trkpt lat="42.349057495594024658203125" lon="1.91284242086112499237060546875">
        <ele>1645.800048828125</ele>
        <time>2020-08-10T09:32:16.000Z</time>
      </trkpt>
      <trkpt lat="42.34913720749318599700927734375" lon="1.9127424247562885284423828125">
        <ele>1644.800048828125</ele>
        <time>2020-08-10T09:32:17.000Z</time>
      </trkpt>
      <trkpt lat="42.3492732457816600799560546875" lon="1.912502534687519073486328125">
        <ele>1643.800048828125</ele>
        <time>2020-08-10T09:32:19.000Z</time>
      </trkpt>
      <trkpt lat="42.34933309257030487060546875" lon="1.912373118102550506591796875">
        <ele>1643</ele>
        <time>2020-08-10T09:32:20.000Z</time>
      </trkpt>
      <trkpt lat="42.3493892513215541839599609375" lon="1.9122418574988842010498046875">
        <ele>1642</ele>
        <time>2020-08-10T09:32:21.000Z</time>
      </trkpt>
      <trkpt lat="42.3494915105402469635009765625" lon="1.9119853712618350982666015625">
        <ele>1640.5999755859375</ele>
        <time>2020-08-10T09:32:23.000Z</time>
      </trkpt>
      <trkpt lat="42.34953953884541988372802734375" lon="1.9118539430201053619384765625">
        <ele>1639.5999755859375</ele>
        <time>2020-08-10T09:32:24.000Z</time>
      </trkpt>
      <trkpt lat="42.34958656132221221923828125" lon="1.911716647446155548095703125">
        <ele>1638.5999755859375</ele>
        <time>2020-08-10T09:32:25.000Z</time>
      </trkpt>
      <trkpt lat="42.3497000522911548614501953125" lon="1.91145546734333038330078125">
        <ele>1637</ele>
        <time>2020-08-10T09:32:27.000Z</time>
      </trkpt>
      <trkpt lat="42.34977205283939838409423828125" lon="1.9113366119563579559326171875">
        <ele>1636</ele>
        <time>2020-08-10T09:32:28.000Z</time>
      </trkpt>
      <trkpt lat="42.34993524849414825439453125" lon="1.91111574880778789520263671875">
        <ele>1634.199951171875</ele>
        <time>2020-08-10T09:32:30.000Z</time>
      </trkpt>
      <trkpt lat="42.35010447911918163299560546875" lon="1.9108977355062961578369140625">
        <ele>1632.4000244140625</ele>
        <time>2020-08-10T09:32:32.000Z</time>
      </trkpt>
      <trkpt lat="42.35018729232251644134521484375" lon="1.9107844121754169464111328125">
        <ele>1631.5999755859375</ele>
        <time>2020-08-10T09:32:33.000Z</time>
      </trkpt>
      <trkpt lat="42.350267507135868072509765625" lon="1.91067167557775974273681640625">
        <ele>1630.5999755859375</ele>
        <time>2020-08-10T09:32:34.000Z</time>
      </trkpt>
      <trkpt lat="42.35042030923068523406982421875" lon="1.91044268198311328887939453125">
        <ele>1629</ele>
        <time>2020-08-10T09:32:36.000Z</time>
      </trkpt>
      <trkpt lat="42.3505680821835994720458984375" lon="1.91019885241985321044921875">
        <ele>1627.4000244140625</ele>
        <time>2020-08-10T09:32:38.000Z</time>
      </trkpt>
      <trkpt lat="42.35063874162733554840087890625" lon="1.910076141357421875">
        <ele>1626.5999755859375</ele>
        <time>2020-08-10T09:32:39.000Z</time>
      </trkpt>
      <trkpt lat="42.35070747323334217071533203125" lon="1.90995401702821254730224609375">
        <ele>1625.4000244140625</ele>
        <time>2020-08-10T09:32:40.000Z</time>
      </trkpt>
      <trkpt lat="42.35084074549376964569091796875" lon="1.90970205701887607574462890625">
        <ele>1624.199951171875</ele>
        <time>2020-08-10T09:32:42.000Z</time>
      </trkpt>
      <trkpt lat="42.35096789896488189697265625" lon="1.90944054163992404937744140625">
        <ele>1622.800048828125</ele>
        <time>2020-08-10T09:32:44.000Z</time>
      </trkpt>
      <trkpt lat="42.3510274104773998260498046875" lon="1.90931330434978008270263671875">
        <ele>1622.199951171875</ele>
        <time>2020-08-10T09:32:45.000Z</time>
      </trkpt>
      <trkpt lat="42.35108197666704654693603515625" lon="1.90918925218284130096435546875">
        <ele>1620.800048828125</ele>
        <time>2020-08-10T09:32:46.000Z</time>
      </trkpt>
      <trkpt lat="42.35116772353649139404296875" lon="1.90895606763660907745361328125">
        <ele>1618.800048828125</ele>
        <time>2020-08-10T09:32:48.000Z</time>
      </trkpt>
      <trkpt lat="42.351200915873050689697265625" lon="1.9088569097220897674560546875">
        <ele>1618.199951171875</ele>
        <time>2020-08-10T09:32:49.000Z</time>
      </trkpt>
      <trkpt lat="42.35122782178223133087158203125" lon="1.90877183340489864349365234375">
        <ele>1617.5999755859375</ele>
        <time>2020-08-10T09:32:50.000Z</time>
      </trkpt>
      <trkpt lat="42.3512621037662029266357421875" lon="1.9086342863738536834716796875">
        <ele>1616.5999755859375</ele>
        <time>2020-08-10T09:32:52.000Z</time>
      </trkpt>
      <trkpt lat="42.35129512846469879150390625" lon="1.90849564969539642333984375">
        <ele>1615.199951171875</ele>
        <time>2020-08-10T09:32:55.000Z</time>
      </trkpt>
      <trkpt lat="42.351304180920124053955078125" lon="1.90845809876918792724609375">
        <ele>1614.800048828125</ele>
        <time>2020-08-10T09:32:56.000Z</time>
      </trkpt>
      <trkpt lat="42.35132270492613315582275390625" lon="1.908392719924449920654296875">
        <ele>1614.4000244140625</ele>
        <time>2020-08-10T09:32:58.000Z</time>
      </trkpt>
      <trkpt lat="42.351344414055347442626953125" lon="1.9082450307905673980712890625">
        <ele>1613.199951171875</ele>
        <time>2020-08-10T09:33:03.000Z</time>
      </trkpt>
      <trkpt lat="42.35136662609875202178955078125" lon="1.9080348126590251922607421875">
        <ele>1612</ele>
        <time>2020-08-10T09:33:09.000Z</time>
      </trkpt>
      <trkpt lat="42.35134818591177463531494140625" lon="1.90769677050411701202392578125">
        <ele>1610.5999755859375</ele>
        <time>2020-08-10T09:33:14.000Z</time>
      </trkpt>
      <trkpt lat="42.35129387117922306060791015625" lon="1.9074309803545475006103515625">
        <ele>1609.5999755859375</ele>
        <time>2020-08-10T09:33:17.000Z</time>
      </trkpt>
      <trkpt lat="42.35124642960727214813232421875" lon="1.90723794512450695037841796875">
        <ele>1608.800048828125</ele>
        <time>2020-08-10T09:33:19.000Z</time>
      </trkpt>
      <trkpt lat="42.3512201942503452301025390625" lon="1.907142139971256256103515625">
        <ele>1608.199951171875</ele>
        <time>2020-08-10T09:33:20.000Z</time>
      </trkpt>
      <trkpt lat="42.351159341633319854736328125" lon="1.90694441087543964385986328125">
        <ele>1606.800048828125</ele>
        <time>2020-08-10T09:33:22.000Z</time>
      </trkpt>
      <trkpt lat="42.3510961420834064483642578125" lon="1.90674743615090847015380859375">
        <ele>1605.800048828125</ele>
        <time>2020-08-10T09:33:24.000Z</time>
      </trkpt>
      <trkpt lat="42.35105909407138824462890625" lon="1.9066528044641017913818359375">
        <ele>1605.199951171875</ele>
        <time>2020-08-10T09:33:25.000Z</time>
      </trkpt>
      <trkpt lat="42.3510181903839111328125" lon="1.90656177699565887451171875">
        <ele>1604.5999755859375</ele>
        <time>2020-08-10T09:33:26.000Z</time>
      </trkpt>
      <trkpt lat="42.3509301804006099700927734375" lon="1.90639707259833812713623046875">
        <ele>1603</ele>
        <time>2020-08-10T09:33:28.000Z</time>
      </trkpt>
      <trkpt lat="42.3508306033909320831298828125" lon="1.9062702544033527374267578125">
        <ele>1601.800048828125</ele>
        <time>2020-08-10T09:33:30.000Z</time>
      </trkpt>
      <trkpt lat="42.35073211602866649627685546875" lon="1.9061793945729732513427734375">
        <ele>1601</ele>
        <time>2020-08-10T09:33:32.000Z</time>
      </trkpt>
      <trkpt lat="42.35068316571414470672607421875" lon="1.90615139901638031005859375">
        <ele>1600.5999755859375</ele>
        <time>2020-08-10T09:33:33.000Z</time>
      </trkpt>
      <trkpt lat="42.35063455067574977874755859375" lon="1.9061297737061977386474609375">
        <ele>1600.199951171875</ele>
        <time>2020-08-10T09:33:34.000Z</time>
      </trkpt>
      <trkpt lat="42.35054151155054569244384765625" lon="1.90609063021838665008544921875">
        <ele>1598.800048828125</ele>
        <time>2020-08-10T09:33:36.000Z</time>
      </trkpt>
      <trkpt lat="42.35043321736156940460205078125" lon="1.9060402549803256988525390625">
        <ele>1597.800048828125</ele>
        <time>2020-08-10T09:33:39.000Z</time>
      </trkpt>
      <trkpt lat="42.3504121787846088409423828125" lon="1.906028352677822113037109375">
        <ele>1597.4000244140625</ele>
        <time>2020-08-10T09:33:40.000Z</time>
      </trkpt>
      <trkpt lat="42.35039382241666316986083984375" lon="1.90601821057498455047607421875">
        <ele>1596.800048828125</ele>
        <time>2020-08-10T09:33:43.000Z</time>
      </trkpt>
      <trkpt lat="42.350393235683441162109375" lon="1.90601955167949199676513671875">
        <ele>1596.800048828125</ele>
        <time>2020-08-10T09:33:44.000Z</time>
      </trkpt>
      <trkpt lat="42.35039248131215572357177734375" lon="1.90602340735495090484619140625">
        <ele>1596.199951171875</ele>
        <time>2020-08-10T09:34:21.000Z</time>
      </trkpt>
      <trkpt lat="42.3503784835338592529296875" lon="1.90601569600403308868408203125">
        <ele>1596.199951171875</ele>
        <time>2020-08-10T09:35:02.000Z</time>
      </trkpt>
      <trkpt lat="42.35031117685139179229736328125" lon="1.9059631414711475372314453125">
        <ele>1596</ele>
        <time>2020-08-10T09:35:05.000Z</time>
      </trkpt>
      <trkpt lat="42.35029038973152637481689453125" lon="1.9059279374778270721435546875">
        <ele>1595.800048828125</ele>
        <time>2020-08-10T09:35:06.000Z</time>
      </trkpt>
      <trkpt lat="42.35024194233119487762451171875" lon="1.90571445040404796600341796875">
        <ele>1595</ele>
        <time>2020-08-10T09:35:10.000Z</time>
      </trkpt>
      <trkpt lat="42.35023439861834049224853515625" lon="1.9056530110538005828857421875">
        <ele>1594.800048828125</ele>
        <time>2020-08-10T09:35:11.000Z</time>
      </trkpt>
      <trkpt lat="42.3502723686397075653076171875" lon="1.90539627335965633392333984375">
        <ele>1593.800048828125</ele>
        <time>2020-08-10T09:35:15.000Z</time>
      </trkpt>
      <trkpt lat="42.35029592178761959075927734375" lon="1.90533223561942577362060546875">
        <ele>1593.5999755859375</ele>
        <time>2020-08-10T09:35:16.000Z</time>
      </trkpt>
      <trkpt lat="42.35038225539028644561767578125" lon="1.90504507161676883697509765625">
        <ele>1592.800048828125</ele>
        <time>2020-08-10T09:35:20.000Z</time>
      </trkpt>
      <trkpt lat="42.35040488652884960174560546875" lon="1.90496795810759067535400390625">
        <ele>1592.5999755859375</ele>
        <time>2020-08-10T09:35:21.000Z</time>
      </trkpt>
      <trkpt lat="42.35049122013151645660400390625" lon="1.9046310894191265106201171875">
        <ele>1591.5999755859375</ele>
        <time>2020-08-10T09:35:25.000Z</time>
      </trkpt>
      <trkpt lat="42.35055576078593730926513671875" lon="1.90437175333499908447265625">
        <ele>1590.800048828125</ele>
        <time>2020-08-10T09:35:28.000Z</time>
      </trkpt>
      <trkpt lat="42.3505771346390247344970703125" lon="1.90428818576037883758544921875">
        <ele>1590.4000244140625</ele>
        <time>2020-08-10T09:35:29.000Z</time>
      </trkpt>
      <trkpt lat="42.35060320235788822174072265625" lon="1.90420947968959808349609375">
        <ele>1590.199951171875</ele>
        <time>2020-08-10T09:35:30.000Z</time>
      </trkpt>
      <trkpt lat="42.35066891647875308990478515625" lon="1.904075033962726593017578125">
        <ele>1589.5999755859375</ele>
        <time>2020-08-10T09:35:32.000Z</time>
      </trkpt>
      <trkpt lat="42.3507055453956127166748046875" lon="1.90401862375438213348388671875">
        <ele>1589.4000244140625</ele>
        <time>2020-08-10T09:35:33.000Z</time>
      </trkpt>
      <trkpt lat="42.350777126848697662353515625" lon="1.90392524935305118560791015625">
        <ele>1589</ele>
        <time>2020-08-10T09:35:35.000Z</time>
      </trkpt>
      <trkpt lat="42.35085231252014636993408203125" lon="1.903841011226177215576171875">
        <ele>1588.5999755859375</ele>
        <time>2020-08-10T09:35:37.000Z</time>
      </trkpt>
      <trkpt lat="42.35092959366738796234130859375" lon="1.9037560187280178070068359375">
        <ele>1588.4000244140625</ele>
        <time>2020-08-10T09:35:39.000Z</time>
      </trkpt>
      <trkpt lat="42.35116529278457164764404296875" lon="1.9034690223634243011474609375">
        <ele>1587.5999755859375</ele>
        <time>2020-08-10T09:35:45.000Z</time>
      </trkpt>
      <trkpt lat="42.3512034304440021514892578125" lon="1.9034157134592533111572265625">
        <ele>1587.4000244140625</ele>
        <time>2020-08-10T09:35:46.000Z</time>
      </trkpt>
      <trkpt lat="42.3513516224920749664306640625" lon="1.90318043343722820281982421875">
        <ele>1586.4000244140625</ele>
        <time>2020-08-10T09:35:51.000Z</time>
      </trkpt>
      <trkpt lat="42.3514280654489994049072265625" lon="1.90292025916278362274169921875">
        <ele>1585.5999755859375</ele>
        <time>2020-08-10T09:35:57.000Z</time>
      </trkpt>
      <trkpt lat="42.351434268057346343994140625" lon="1.90281338989734649658203125">
        <ele>1585.199951171875</ele>
        <time>2020-08-10T09:35:59.000Z</time>
      </trkpt>
      <trkpt lat="42.35143016092479228973388671875" lon="1.90270744264125823974609375">
        <ele>1584.800048828125</ele>
        <time>2020-08-10T09:36:01.000Z</time>
      </trkpt>
      <trkpt lat="42.3514164984226226806640625" lon="1.9025154970586299896240234375">
        <ele>1584.199951171875</ele>
        <time>2020-08-10T09:36:06.000Z</time>
      </trkpt>
      <trkpt lat="42.35134986229240894317626953125" lon="1.90233587287366390228271484375">
        <ele>1583.5999755859375</ele>
        <time>2020-08-10T09:36:12.000Z</time>
      </trkpt>
      <trkpt lat="42.3512309230864048004150390625" lon="1.90213504247367382049560546875">
        <ele>1583.4000244140625</ele>
        <time>2020-08-10T09:36:19.000Z</time>
      </trkpt>
      <trkpt lat="42.35111399553716182708740234375" lon="1.9019173644483089447021484375">
        <ele>1583.800048828125</ele>
        <time>2020-08-10T09:36:26.000Z</time>
      </trkpt>
      <trkpt lat="42.35103495419025421142578125" lon="1.90174855291843414306640625">
        <ele>1584.4000244140625</ele>
        <time>2020-08-10T09:36:32.000Z</time>
      </trkpt>
      <trkpt lat="42.3509372211992740631103515625" lon="1.90154193900525569915771484375">
        <ele>1584.800048828125</ele>
        <time>2020-08-10T09:36:39.000Z</time>
      </trkpt>
      <trkpt lat="42.35087477602064609527587890625" lon="1.901432387530803680419921875">
        <ele>1585.4000244140625</ele>
        <time>2020-08-10T09:36:43.000Z</time>
      </trkpt>
      <trkpt lat="42.350814342498779296875" lon="1.90132082439959049224853515625">
        <ele>1585.4000244140625</ele>
        <time>2020-08-10T09:36:47.000Z</time>
      </trkpt>
      <trkpt lat="42.350699342787265777587890625" lon="1.90110842697322368621826171875">
        <ele>1585.800048828125</ele>
        <time>2020-08-10T09:36:54.000Z</time>
      </trkpt>
      <trkpt lat="42.3506690002977848052978515625" lon="1.90104472450911998748779296875">
        <ele>1585.800048828125</ele>
        <time>2020-08-10T09:36:56.000Z</time>
      </trkpt>
      <trkpt lat="42.3505313694477081298828125" lon="1.900758482515811920166015625">
        <ele>1586</ele>
        <time>2020-08-10T09:37:05.000Z</time>
      </trkpt>
      <trkpt lat="42.3504079878330230712890625" lon="1.90048263408243656158447265625">
        <ele>1586.4000244140625</ele>
        <time>2020-08-10T09:37:13.000Z</time>
      </trkpt>
      <trkpt lat="42.35035191290080547332763671875" lon="1.90034567378461360931396484375">
        <ele>1586.5999755859375</ele>
        <time>2020-08-10T09:37:17.000Z</time>
      </trkpt>
      <trkpt lat="42.3502899706363677978515625" lon="1.9001745991408824920654296875">
        <ele>1586.800048828125</ele>
        <time>2020-08-10T09:37:22.000Z</time>
      </trkpt>
      <trkpt lat="42.35019408166408538818359375" lon="1.89994568936526775360107421875">
        <ele>1586.5999755859375</ele>
        <time>2020-08-10T09:37:31.000Z</time>
      </trkpt>
      <trkpt lat="42.350099198520183563232421875" lon="1.899917609989643096923828125">
        <ele>1586.800048828125</ele>
        <time>2020-08-10T09:37:37.000Z</time>
      </trkpt>
      <trkpt lat="42.3500829376280307769775390625" lon="1.89992004074156284332275390625">
        <ele>1587</ele>
        <time>2020-08-10T09:37:41.000Z</time>
      </trkpt>
      <trkpt lat="42.350080423057079315185546875" lon="1.8999234773218631744384765625">
        <ele>1586.800048828125</ele>
        <time>2020-08-10T09:37:55.000Z</time>
      </trkpt>
      <trkpt lat="42.35008117742836475372314453125" lon="1.899922974407672882080078125">
        <ele>1586.5999755859375</ele>
        <time>2020-08-10T09:38:15.000Z</time>
      </trkpt>
      <trkpt lat="42.35008100979030132293701171875" lon="1.899921633303165435791015625">
        <ele>1586.800048828125</ele>
        <time>2020-08-10T09:38:42.000Z</time>
      </trkpt>
      <trkpt lat="42.35008100979030132293701171875" lon="1.899921633303165435791015625">
        <ele>1586.800048828125</ele>
        <time>2020-08-10T09:38:43.000Z</time>
      </trkpt>
      <trkpt lat="42.35008142888545989990234375" lon="1.89992087893187999725341796875">
        <ele>1586.800048828125</ele>
        <time>2020-08-10T09:39:30.000Z</time>
      </trkpt>
      <trkpt lat="42.35005720518529415130615234375" lon="1.89986086450517177581787109375">
        <ele>1586.5999755859375</ele>
        <time>2020-08-10T09:39:36.000Z</time>
      </trkpt>
      <trkpt lat="42.349966429173946380615234375" lon="1.89963505603373050689697265625">
        <ele>1586.800048828125</ele>
        <time>2020-08-10T09:39:43.000Z</time>
      </trkpt>
      <trkpt lat="42.34983944334089756011962890625" lon="1.89937806688249111175537109375">
        <ele>1586.4000244140625</ele>
        <time>2020-08-10T09:39:51.000Z</time>
      </trkpt>
      <trkpt lat="42.349770627915859222412109375" lon="1.89940522424876689910888671875">
        <ele>1586.4000244140625</ele>
        <time>2020-08-10T09:39:55.000Z</time>
      </trkpt>
      <trkpt lat="42.34975277446210384368896484375" lon="1.89942684955894947052001953125">
        <ele>1586.5999755859375</ele>
        <time>2020-08-10T09:39:59.000Z</time>
      </trkpt>
      <trkpt lat="42.3497642576694488525390625" lon="1.8994398415088653564453125">
        <ele>1586.5999755859375</ele>
        <time>2020-08-10T09:40:09.000Z</time>
      </trkpt>
      <trkpt lat="42.34976761043071746826171875" lon="1.89943808130919933319091796875">
        <ele>1586.5999755859375</ele>
        <time>2020-08-10T09:40:10.000Z</time>
      </trkpt>
      <trkpt lat="42.34981396235525608062744140625" lon="1.89935107715427875518798828125">
        <ele>1586.5999755859375</ele>
        <time>2020-08-10T09:40:14.000Z</time>
      </trkpt>
      <trkpt lat="42.34979351051151752471923828125" lon="1.89918863587081432342529296875">
        <ele>1586.199951171875</ele>
        <time>2020-08-10T09:40:18.000Z</time>
      </trkpt>
      <trkpt lat="42.34972737729549407958984375" lon="1.89907447434961795806884765625">
        <ele>1586.199951171875</ele>
        <time>2020-08-10T09:40:21.000Z</time>
      </trkpt>
      <trkpt lat="42.34968454577028751373291015625" lon="1.89899266697466373443603515625">
        <ele>1586</ele>
        <time>2020-08-10T09:40:23.000Z</time>
      </trkpt>
      <trkpt lat="42.3495169915258884429931640625" lon="1.89862503670156002044677734375">
        <ele>1585.199951171875</ele>
        <time>2020-08-10T09:40:31.000Z</time>
      </trkpt>
      <trkpt lat="42.34942956827580928802490234375" lon="1.89841632731258869171142578125">
        <ele>1585.5999755859375</ele>
        <time>2020-08-10T09:40:37.000Z</time>
      </trkpt>
      <trkpt lat="42.3493681289255619049072265625" lon="1.8982497788965702056884765625">
        <ele>1586.199951171875</ele>
        <time>2020-08-10T09:40:43.000Z</time>
      </trkpt>
      <trkpt lat="42.34929797239601612091064453125" lon="1.89809094183146953582763671875">
        <ele>1587.199951171875</ele>
        <time>2020-08-10T09:40:49.000Z</time>
      </trkpt>
      <trkpt lat="42.34928808175027370452880859375" lon="1.8980694003403186798095703125">
        <ele>1587.199951171875</ele>
        <time>2020-08-10T09:40:50.000Z</time>
      </trkpt>
      <trkpt lat="42.34922823496162891387939453125" lon="1.8979678116738796234130859375">
        <ele>1588.199951171875</ele>
        <time>2020-08-10T09:40:56.000Z</time>
      </trkpt>
      <trkpt lat="42.3492092080414295196533203125" lon="1.89793889410793781280517578125">
        <ele>1588.4000244140625</ele>
        <time>2020-08-10T09:40:58.000Z</time>
      </trkpt>
      <trkpt lat="42.34915606677532196044921875" lon="1.89787016250193119049072265625">
        <ele>1589.4000244140625</ele>
        <time>2020-08-10T09:41:03.000Z</time>
      </trkpt>
      <trkpt lat="42.34913083724677562713623046875" lon="1.89788885414600372314453125">
        <ele>1589.4000244140625</ele>
        <time>2020-08-10T09:41:05.000Z</time>
      </trkpt>
      <trkpt lat="42.34912455081939697265625" lon="1.8980170972645282745361328125">
        <ele>1589.4000244140625</ele>
        <time>2020-08-10T09:41:12.000Z</time>
      </trkpt>
      <trkpt lat="42.3491300828754901885986328125" lon="1.89802405424416065216064453125">
        <ele>1589.5999755859375</ele>
        <time>2020-08-10T09:41:26.000Z</time>
      </trkpt>
      <trkpt lat="42.349137626588344573974609375" lon="1.8980402313172817230224609375">
        <ele>1589.5999755859375</ele>
        <time>2020-08-10T09:41:27.000Z</time>
      </trkpt>
      <trkpt lat="42.34919185750186443328857421875" lon="1.898120529949665069580078125">
        <ele>1589.199951171875</ele>
        <time>2020-08-10T09:41:30.000Z</time>
      </trkpt>
      <trkpt lat="42.34921381808817386627197265625" lon="1.89815598540008068084716796875">
        <ele>1588.800048828125</ele>
        <time>2020-08-10T09:41:31.000Z</time>
      </trkpt>
      <trkpt lat="42.34925053082406520843505859375" lon="1.8982301652431488037109375">
        <ele>1588.4000244140625</ele>
        <time>2020-08-10T09:41:33.000Z</time>
      </trkpt>
      <trkpt lat="42.34934222884476184844970703125" lon="1.89841716550290584564208984375">
        <ele>1587.199951171875</ele>
        <time>2020-08-10T09:41:37.000Z</time>
      </trkpt>
      <trkpt lat="42.34944297932088375091552734375" lon="1.89864079467952251434326171875">
        <ele>1586.199951171875</ele>
        <time>2020-08-10T09:41:41.000Z</time>
      </trkpt>
      <trkpt lat="42.3495055921375751495361328125" lon="1.89877758733928203582763671875">
        <ele>1585.4000244140625</ele>
        <time>2020-08-10T09:41:44.000Z</time>
      </trkpt>
      <trkpt lat="42.34962436370551586151123046875" lon="1.89899601973593235015869140625">
        <ele>1585.800048828125</ele>
        <time>2020-08-10T09:41:51.000Z</time>
      </trkpt>
      <trkpt lat="42.34967918135225772857666015625" lon="1.89918679185211658477783203125">
        <ele>1585.800048828125</ele>
        <time>2020-08-10T09:41:58.000Z</time>
      </trkpt>
      <trkpt lat="42.349696867167949676513671875" lon="1.89933045767247676849365234375">
        <ele>1586.199951171875</ele>
        <time>2020-08-10T09:42:05.000Z</time>
      </trkpt>
      <trkpt lat="42.34969560988247394561767578125" lon="1.899333894252777099609375">
        <ele>1586</ele>
        <time>2020-08-10T09:42:23.000Z</time>
      </trkpt>
      <trkpt lat="42.34969695098698139190673828125" lon="1.8993457965552806854248046875">
        <ele>1585.800048828125</ele>
        <time>2020-08-10T09:42:49.000Z</time>
      </trkpt>
      <trkpt lat="42.34971924684941768646240234375" lon="1.89946289174258708953857421875">
        <ele>1586.4000244140625</ele>
        <time>2020-08-10T09:42:54.000Z</time>
      </trkpt>
      <trkpt lat="42.34965671785175800323486328125" lon="1.89956297166645526885986328125">
        <ele>1587</ele>
        <time>2020-08-10T09:42:59.000Z</time>
      </trkpt>
      <trkpt lat="42.3496232740581035614013671875" lon="1.89958292059600353240966796875">
        <ele>1587.199951171875</ele>
        <time>2020-08-10T09:43:01.000Z</time>
      </trkpt>
      <trkpt lat="42.3495736531913280487060546875" lon="1.8996168673038482666015625">
        <ele>1587.5999755859375</ele>
        <time>2020-08-10T09:43:04.000Z</time>
      </trkpt>
      <trkpt lat="42.349526546895503997802734375" lon="1.8996559269726276397705078125">
        <ele>1588.199951171875</ele>
        <time>2020-08-10T09:43:07.000Z</time>
      </trkpt>
      <trkpt lat="42.34951489605009555816650390625" lon="1.8996757082641124725341796875">
        <ele>1588.4000244140625</ele>
        <time>2020-08-10T09:43:08.000Z</time>
      </trkpt>
      <trkpt lat="42.3495082743465900421142578125" lon="1.89972675405442714691162109375">
        <ele>1588.5999755859375</ele>
        <time>2020-08-10T09:43:10.000Z</time>
      </trkpt>
      <trkpt lat="42.34951414167881011962890625" lon="1.89975106157362461090087890625">
        <ele>1588.800048828125</ele>
        <time>2020-08-10T09:43:11.000Z</time>
      </trkpt>
      <trkpt lat="42.349544651806354522705078125" lon="1.89982281066477298736572265625">
        <ele>1589.4000244140625</ele>
        <time>2020-08-10T09:43:14.000Z</time>
      </trkpt>
      <trkpt lat="42.34955982305109500885009765625" lon="1.899867318570613861083984375">
        <ele>1589.800048828125</ele>
        <time>2020-08-10T09:43:16.000Z</time>
      </trkpt>
      <trkpt lat="42.34958832152187824249267578125" lon="1.899903528392314910888671875">
        <ele>1590</ele>
        <time>2020-08-10T09:43:18.000Z</time>
      </trkpt>
      <trkpt lat="42.34966007061302661895751953125" lon="1.89997720532119274139404296875">
        <ele>1590.800048828125</ele>
        <time>2020-08-10T09:43:24.000Z</time>
      </trkpt>
      <trkpt lat="42.34968488104641437530517578125" lon="1.899992711842060089111328125">
        <ele>1591.4000244140625</ele>
        <time>2020-08-10T09:43:26.000Z</time>
      </trkpt>
      <trkpt lat="42.34974087215960025787353515625" lon="1.90005247481167316436767578125">
        <ele>1592</ele>
        <time>2020-08-10T09:43:31.000Z</time>
      </trkpt>
      <trkpt lat="42.349751852452754974365234375" lon="1.9000656343996524810791015625">
        <ele>1592</ele>
        <time>2020-08-10T09:43:32.000Z</time>
      </trkpt>
      <trkpt lat="42.3497644253075122833251953125" lon="1.90007929690182209014892578125">
        <ele>1592.199951171875</ele>
        <time>2020-08-10T09:43:33.000Z</time>
      </trkpt>
      <trkpt lat="42.3498204164206981658935546875" lon="1.90016998909413814544677734375">
        <ele>1593.199951171875</ele>
        <time>2020-08-10T09:43:38.000Z</time>
      </trkpt>
      <trkpt lat="42.3498355038464069366455078125" lon="1.90021659247577190399169921875">
        <ele>1593.199951171875</ele>
        <time>2020-08-10T09:43:40.000Z</time>
      </trkpt>
      <trkpt lat="42.3498686961829662322998046875" lon="1.90033502876758575439453125">
        <ele>1594.199951171875</ele>
        <time>2020-08-10T09:43:45.000Z</time>
      </trkpt>
      <trkpt lat="42.3498884774744510650634765625" lon="1.90039730630815029144287109375">
        <ele>1594.5999755859375</ele>
        <time>2020-08-10T09:43:48.000Z</time>
      </trkpt>
      <trkpt lat="42.3499454744160175323486328125" lon="1.90049864351749420166015625">
        <ele>1595.199951171875</ele>
        <time>2020-08-10T09:43:54.000Z</time>
      </trkpt>
      <trkpt lat="42.35000356100499629974365234375" lon="1.90063283778727054595947265625">
        <ele>1596</ele>
        <time>2020-08-10T09:44:01.000Z</time>
      </trkpt>
      <trkpt lat="42.35005837865173816680908203125" lon="1.90077784471213817596435546875">
        <ele>1596.199951171875</ele>
        <time>2020-08-10T09:44:08.000Z</time>
      </trkpt>
      <trkpt lat="42.3500839434564113616943359375" lon="1.90086032263934612274169921875">
        <ele>1596.4000244140625</ele>
        <time>2020-08-10T09:44:12.000Z</time>
      </trkpt>
      <trkpt lat="42.35010665841400623321533203125" lon="1.90091581083834171295166015625">
        <ele>1596.5999755859375</ele>
        <time>2020-08-10T09:44:15.000Z</time>
      </trkpt>
      <trkpt lat="42.3501137830317020416259765625" lon="1.90104220993816852569580078125">
        <ele>1596.5999755859375</ele>
        <time>2020-08-10T09:44:21.000Z</time>
      </trkpt>
      <trkpt lat="42.3500866256654262542724609375" lon="1.90115268342196941375732421875">
        <ele>1596.5999755859375</ele>
        <time>2020-08-10T09:44:26.000Z</time>
      </trkpt>
      <trkpt lat="42.35007874667644500732421875" lon="1.9011958502233028411865234375">
        <ele>1596.5999755859375</ele>
        <time>2020-08-10T09:44:28.000Z</time>
      </trkpt>
      <trkpt lat="42.35001931898295879364013671875" lon="1.9012287072837352752685546875">
        <ele>1596.5999755859375</ele>
        <time>2020-08-10T09:44:32.000Z</time>
      </trkpt>
      <trkpt lat="42.34993533231317996978759765625" lon="1.9011525996029376983642578125">
        <ele>1596.800048828125</ele>
        <time>2020-08-10T09:44:37.000Z</time>
      </trkpt>
      <trkpt lat="42.3498469032347202301025390625" lon="1.90104422159492969512939453125">
        <ele>1596.4000244140625</ele>
        <time>2020-08-10T09:44:43.000Z</time>
      </trkpt>
      <trkpt lat="42.34979468397796154022216796875" lon="1.9009792618453502655029296875">
        <ele>1596.5999755859375</ele>
        <time>2020-08-10T09:44:49.000Z</time>
      </trkpt>
      <trkpt lat="42.34979568980634212493896484375" lon="1.90097884275019168853759765625">
        <ele>1596.4000244140625</ele>
        <time>2020-08-10T09:45:02.000Z</time>
      </trkpt>
      <trkpt lat="42.34979577362537384033203125" lon="1.90097766928374767303466796875">
        <ele>1596.4000244140625</ele>
        <time>2020-08-10T09:45:19.000Z</time>
      </trkpt>
      <trkpt lat="42.3497951030731201171875" lon="1.90097607672214508056640625">
        <ele>1596.4000244140625</ele>
        <time>2020-08-10T09:45:40.000Z</time>
      </trkpt>
      <trkpt lat="42.34980507753789424896240234375" lon="1.9009725563228130340576171875">
        <ele>1596.4000244140625</ele>
        <time>2020-08-10T09:45:46.000Z</time>
      </trkpt>
      <trkpt lat="42.34982921741902828216552734375" lon="1.90098621882498264312744140625">
        <ele>1596.199951171875</ele>
        <time>2020-08-10T09:45:49.000Z</time>
      </trkpt>
      <trkpt lat="42.3498428799211978912353515625" lon="1.90102393738925457000732421875">
        <ele>1596.199951171875</ele>
        <time>2020-08-10T09:45:51.000Z</time>
      </trkpt>
      <trkpt lat="42.34992762096226215362548828125" lon="1.90115955658257007598876953125">
        <ele>1596.199951171875</ele>
        <time>2020-08-10T09:45:59.000Z</time>
      </trkpt>
      <trkpt lat="42.35002149827778339385986328125" lon="1.901214458048343658447265625">
        <ele>1596.4000244140625</ele>
        <time>2020-08-10T09:46:06.000Z</time>
      </trkpt>
      <trkpt lat="42.3500343225896358489990234375" lon="1.90120532177388668060302734375">
        <ele>1596.4000244140625</ele>
        <time>2020-08-10T09:46:07.000Z</time>
      </trkpt>
      <trkpt lat="42.35007866285741329193115234375" lon="1.901171542704105377197265625">
        <ele>1596.4000244140625</ele>
        <time>2020-08-10T09:46:11.000Z</time>
      </trkpt>
      <trkpt lat="42.35010146163403987884521484375" lon="1.9011264480650424957275390625">
        <ele>1596.5999755859375</ele>
        <time>2020-08-10T09:46:14.000Z</time>
      </trkpt>
      <trkpt lat="42.35011839307844638824462890625" lon="1.90097750164568424224853515625">
        <ele>1596.5999755859375</ele>
        <time>2020-08-10T09:46:20.000Z</time>
      </trkpt>
      <trkpt lat="42.350061647593975067138671875" lon="1.9008072651922702789306640625">
        <ele>1596.4000244140625</ele>
        <time>2020-08-10T09:46:27.000Z</time>
      </trkpt>
      <trkpt lat="42.34998461790382862091064453125" lon="1.900626718997955322265625">
        <ele>1596</ele>
        <time>2020-08-10T09:46:33.000Z</time>
      </trkpt>
      <trkpt lat="42.34993214718997478485107421875" lon="1.900474838912487030029296875">
        <ele>1595.800048828125</ele>
        <time>2020-08-10T09:46:37.000Z</time>
      </trkpt>
      <trkpt lat="42.3499022237956523895263671875" lon="1.90040350891649723052978515625">
        <ele>1595.5999755859375</ele>
        <time>2020-08-10T09:46:39.000Z</time>
      </trkpt>
      <trkpt lat="42.34984338283538818359375" lon="1.90020452253520488739013671875">
        <ele>1594.5999755859375</ele>
        <time>2020-08-10T09:46:44.000Z</time>
      </trkpt>
      <trkpt lat="42.349840365350246429443359375" lon="1.9001786224544048309326171875">
        <ele>1594.4000244140625</ele>
        <time>2020-08-10T09:46:45.000Z</time>
      </trkpt>
      <trkpt lat="42.3498361743986606597900390625" lon="1.9001648761332035064697265625">
        <ele>1593.5999755859375</ele>
        <time>2020-08-10T09:46:49.000Z</time>
      </trkpt>
      <trkpt lat="42.3498375155031681060791015625" lon="1.90015490166842937469482421875">
        <ele>1593.5999755859375</ele>
        <time>2020-08-10T09:46:51.000Z</time>
      </trkpt>
      <trkpt lat="42.349851094186305999755859375" lon="1.90014651976525783538818359375">
        <ele>1593.5999755859375</ele>
        <time>2020-08-10T09:46:54.000Z</time>
      </trkpt>
      <trkpt lat="42.349878251552581787109375" lon="1.9001226313412189483642578125">
        <ele>1592.800048828125</ele>
        <time>2020-08-10T09:47:02.000Z</time>
      </trkpt>
      <trkpt lat="42.3498822748661041259765625" lon="1.90011634491384029388427734375">
        <ele>1592.5999755859375</ele>
        <time>2020-08-10T09:47:03.000Z</time>
      </trkpt>
      <trkpt lat="42.3499226756393909454345703125" lon="1.9000451825559139251708984375">
        <ele>1592</ele>
        <time>2020-08-10T09:47:09.000Z</time>
      </trkpt>
      <trkpt lat="42.34994270838797092437744140625" lon="1.90002523362636566162109375">
        <ele>1591.5999755859375</ele>
        <time>2020-08-10T09:47:11.000Z</time>
      </trkpt>
      <trkpt lat="42.349959723651409149169921875" lon="1.8999583460390567779541015625">
        <ele>1590.5999755859375</ele>
        <time>2020-08-10T09:47:16.000Z</time>
      </trkpt>
      <trkpt lat="42.35009894706308841705322265625" lon="1.8999989144504070281982421875">
        <ele>1586</ele>
        <time>2020-08-10T09:50:46.000Z</time>
      </trkpt>
      <trkpt lat="42.3501288704574108123779296875" lon="1.9000297598540782928466796875">
        <ele>1586</ele>
        <time>2020-08-10T09:50:52.000Z</time>
      </trkpt>
      <trkpt lat="42.35015510581433773040771484375" lon="1.90006471239030361175537109375">
        <ele>1586</ele>
        <time>2020-08-10T09:50:54.000Z</time>
      </trkpt>
      <trkpt lat="42.3501898907124996185302734375" lon="1.90015037544071674346923828125">
        <ele>1585.800048828125</ele>
        <time>2020-08-10T09:50:57.000Z</time>
      </trkpt>
      <trkpt lat="42.3502220772206783294677734375" lon="1.9002131558954715728759765625">
        <ele>1586</ele>
        <time>2020-08-10T09:50:59.000Z</time>
      </trkpt>
      <trkpt lat="42.3503075726330280303955078125" lon="1.90039814449846744537353515625">
        <ele>1585.4000244140625</ele>
        <time>2020-08-10T09:51:04.000Z</time>
      </trkpt>
      <trkpt lat="42.35046355985105037689208984375" lon="1.90070894546806812286376953125">
        <ele>1585.199951171875</ele>
        <time>2020-08-10T09:51:12.000Z</time>
      </trkpt>
      <trkpt lat="42.35063890926539897918701171875" lon="1.90106065012514591217041015625">
        <ele>1585</ele>
        <time>2020-08-10T09:51:21.000Z</time>
      </trkpt>
      <trkpt lat="42.35074083320796489715576171875" lon="1.901254691183567047119140625">
        <ele>1584.800048828125</ele>
        <time>2020-08-10T09:51:26.000Z</time>
      </trkpt>
      <trkpt lat="42.3508036136627197265625" lon="1.90137614496052265167236328125">
        <ele>1584.199951171875</ele>
        <time>2020-08-10T09:51:29.000Z</time>
      </trkpt>
      <trkpt lat="42.3509244807064533233642578125" lon="1.90163212828338146209716796875">
        <ele>1584.199951171875</ele>
        <time>2020-08-10T09:51:35.000Z</time>
      </trkpt>
      <trkpt lat="42.35093445517122745513916015625" lon="1.90165576525032520294189453125">
        <ele>1583.5999755859375</ele>
        <time>2020-08-10T09:51:38.000Z</time>
      </trkpt>
      <trkpt lat="42.350937388837337493896484375" lon="1.9016561843454837799072265625">
        <ele>1583.5999755859375</ele>
        <time>2020-08-10T09:51:43.000Z</time>
      </trkpt>
      <trkpt lat="42.35096530057489871978759765625" lon="1.90164134837687015533447265625">
        <ele>1583.5999755859375</ele>
        <time>2020-08-10T09:51:46.000Z</time>
      </trkpt>
      <trkpt lat="42.35099296085536479949951171875" lon="1.90166196785867214202880859375">
        <ele>1583.4000244140625</ele>
        <time>2020-08-10T09:51:52.000Z</time>
      </trkpt>
      <trkpt lat="42.35102514736354351043701171875" lon="1.90181384794414043426513671875">
        <ele>1583.5999755859375</ele>
        <time>2020-08-10T09:51:58.000Z</time>
      </trkpt>
      <trkpt lat="42.35108583234250545501708984375" lon="1.90194343216717243194580078125">
        <ele>1582.800048828125</ele>
        <time>2020-08-10T09:52:02.000Z</time>
      </trkpt>
      <trkpt lat="42.35110393725335597991943359375" lon="1.90198383294045925140380859375">
        <ele>1582.800048828125</ele>
        <time>2020-08-10T09:52:03.000Z</time>
      </trkpt>
      <trkpt lat="42.3512609302997589111328125" lon="1.90228499472141265869140625">
        <ele>1582</ele>
        <time>2020-08-10T09:52:10.000Z</time>
      </trkpt>
      <trkpt lat="42.3512822203338146209716796875" lon="1.90232648514211177825927734375">
        <ele>1581.800048828125</ele>
        <time>2020-08-10T09:52:11.000Z</time>
      </trkpt>
      <trkpt lat="42.3513643629848957061767578125" lon="1.9024283252656459808349609375">
        <ele>1582.4000244140625</ele>
        <time>2020-08-10T09:52:15.000Z</time>
      </trkpt>
      <trkpt lat="42.35137383453547954559326171875" lon="1.902452968060970306396484375">
        <ele>1582.199951171875</ele>
        <time>2020-08-10T09:52:16.000Z</time>
      </trkpt>
      <trkpt lat="42.351371906697750091552734375" lon="1.9025493599474430084228515625">
        <ele>1582.199951171875</ele>
        <time>2020-08-10T09:52:19.000Z</time>
      </trkpt>
      <trkpt lat="42.3513935320079326629638671875" lon="1.90273468382656574249267578125">
        <ele>1582.4000244140625</ele>
        <time>2020-08-10T09:52:25.000Z</time>
      </trkpt>
      <trkpt lat="42.35140870325267314910888671875" lon="1.90282001160085201263427734375">
        <ele>1582.5999755859375</ele>
        <time>2020-08-10T09:52:28.000Z</time>
      </trkpt>
      <trkpt lat="42.35144826583564281463623046875" lon="1.9028650224208831787109375">
        <ele>1582.800048828125</ele>
        <time>2020-08-10T09:52:30.000Z</time>
      </trkpt>
      <trkpt lat="42.351489253342151641845703125" lon="1.90289628691971302032470703125">
        <ele>1582.800048828125</ele>
        <time>2020-08-10T09:52:32.000Z</time>
      </trkpt>
      <trkpt lat="42.35155337490141391754150390625" lon="1.90291807986795902252197265625">
        <ele>1583</ele>
        <time>2020-08-10T09:52:35.000Z</time>
      </trkpt>
      <trkpt lat="42.35149185173213481903076171875" lon="1.90279318951070308685302734375">
        <ele>1582.800048828125</ele>
        <time>2020-08-10T10:05:38.000Z</time>
      </trkpt>
      <trkpt lat="42.35144290141761302947998046875" lon="1.90279972739517688751220703125">
        <ele>1583</ele>
        <time>2020-08-10T10:05:43.000Z</time>
      </trkpt>
      <trkpt lat="42.35134047456085681915283203125" lon="1.90294037573039531707763671875">
        <ele>1583.4000244140625</ele>
        <time>2020-08-10T10:05:50.000Z</time>
      </trkpt>
      <trkpt lat="42.351274676620960235595703125" lon="1.90312595106661319732666015625">
        <ele>1583.4000244140625</ele>
        <time>2020-08-10T10:05:57.000Z</time>
      </trkpt>
      <trkpt lat="42.35121340490877628326416015625" lon="1.9032695330679416656494140625">
        <ele>1583.800048828125</ele>
        <time>2020-08-10T10:06:03.000Z</time>
      </trkpt>
      <trkpt lat="42.35109119676053524017333984375" lon="1.90347329713404178619384765625">
        <ele>1584.199951171875</ele>
        <time>2020-08-10T10:06:12.000Z</time>
      </trkpt>
      <trkpt lat="42.351041324436664581298828125" lon="1.90353934653103351593017578125">
        <ele>1585.199951171875</ele>
        <time>2020-08-10T10:06:15.000Z</time>
      </trkpt>
      <trkpt lat="42.3509766161441802978515625" lon="1.90362769179046154022216796875">
        <ele>1585.5999755859375</ele>
        <time>2020-08-10T10:06:19.000Z</time>
      </trkpt>
      <trkpt lat="42.35086203552782535552978515625" lon="1.9037667475640773773193359375">
        <ele>1586.199951171875</ele>
        <time>2020-08-10T10:06:26.000Z</time>
      </trkpt>
      <trkpt lat="42.35081040300428867340087890625" lon="1.9038247503340244293212890625">
        <ele>1586.4000244140625</ele>
        <time>2020-08-10T10:06:29.000Z</time>
      </trkpt>
      <trkpt lat="42.3507414199411869049072265625" lon="1.90390144474804401397705078125">
        <ele>1586.5999755859375</ele>
        <time>2020-08-10T10:06:33.000Z</time>
      </trkpt>
      <trkpt lat="42.35062147490680217742919921875" lon="1.9040483795106410980224609375">
        <ele>1587.4000244140625</ele>
        <time>2020-08-10T10:06:40.000Z</time>
      </trkpt>
      <trkpt lat="42.35060621984302997589111328125" lon="1.9040746986865997314453125">
        <ele>1587.5999755859375</ele>
        <time>2020-08-10T10:06:41.000Z</time>
      </trkpt>
      <trkpt lat="42.35050127841532230377197265625" lon="1.90430427901446819305419921875">
        <ele>1587.5999755859375</ele>
        <time>2020-08-10T10:06:49.000Z</time>
      </trkpt>
      <trkpt lat="42.3504423536360263824462890625" lon="1.9045613519847393035888671875">
        <ele>1588.4000244140625</ele>
        <time>2020-08-10T10:06:57.000Z</time>
      </trkpt>
      <trkpt lat="42.35043489374220371246337890625" lon="1.90459613688290119171142578125">
        <ele>1588.5999755859375</ele>
        <time>2020-08-10T10:06:58.000Z</time>
      </trkpt>
      <trkpt lat="42.35036012716591358184814453125" lon="1.904912889003753662109375">
        <ele>1589.4000244140625</ele>
        <time>2020-08-10T10:07:08.000Z</time>
      </trkpt>
      <trkpt lat="42.350350655615329742431640625" lon="1.90494331531226634979248046875">
        <ele>1589.4000244140625</ele>
        <time>2020-08-10T10:07:09.000Z</time>
      </trkpt>
      <trkpt lat="42.35027379356324672698974609375" lon="1.90516836941242218017578125">
        <ele>1590</ele>
        <time>2020-08-10T10:07:17.000Z</time>
      </trkpt>
      <trkpt lat="42.35023976303637027740478515625" lon="1.9053153879940509796142578125">
        <ele>1590.4000244140625</ele>
        <time>2020-08-10T10:07:22.000Z</time>
      </trkpt>
      <trkpt lat="42.350206486880779266357421875" lon="1.90543767996132373809814453125">
        <ele>1591</ele>
        <time>2020-08-10T10:07:26.000Z</time>
      </trkpt>
      <trkpt lat="42.35018544830381870269775390625" lon="1.9055259414017200469970703125">
        <ele>1591.5999755859375</ele>
        <time>2020-08-10T10:07:29.000Z</time>
      </trkpt>
      <trkpt lat="42.35017337836325168609619140625" lon="1.90564203076064586639404296875">
        <ele>1592</ele>
        <time>2020-08-10T10:07:33.000Z</time>
      </trkpt>
      <trkpt lat="42.350216545164585113525390625" lon="1.90586180426180362701416015625">
        <ele>1592.5999755859375</ele>
        <time>2020-08-10T10:07:41.000Z</time>
      </trkpt>
      <trkpt lat="42.35025820322334766387939453125" lon="1.90602558664977550506591796875">
        <ele>1593.4000244140625</ele>
        <time>2020-08-10T10:07:47.000Z</time>
      </trkpt>
      <trkpt lat="42.35024965368211269378662109375" lon="1.90604905597865581512451171875">
        <ele>1593.5999755859375</ele>
        <time>2020-08-10T10:07:48.000Z</time>
      </trkpt>
      <trkpt lat="42.350235320627689361572265625" lon="1.90606632269918918609619140625">
        <ele>1593.5999755859375</ele>
        <time>2020-08-10T10:07:49.000Z</time>
      </trkpt>
      <trkpt lat="42.350143454968929290771484375" lon="1.90613262355327606201171875">
        <ele>1594</ele>
        <time>2020-08-10T10:07:54.000Z</time>
      </trkpt>
      <trkpt lat="42.3500658385455608367919921875" lon="1.9061451964080333709716796875">
        <ele>1594.800048828125</ele>
        <time>2020-08-10T10:07:58.000Z</time>
      </trkpt>
      <trkpt lat="42.3500297963619232177734375" lon="1.90613798797130584716796875">
        <ele>1595.199951171875</ele>
        <time>2020-08-10T10:08:00.000Z</time>
      </trkpt>
      <trkpt lat="42.34998084604740142822265625" lon="1.90613128244876861572265625">
        <ele>1595.800048828125</ele>
        <time>2020-08-10T10:08:03.000Z</time>
      </trkpt>
      <trkpt lat="42.3499667644500732421875" lon="1.90612197853624820709228515625">
        <ele>1596</ele>
        <time>2020-08-10T10:08:04.000Z</time>
      </trkpt>
      <trkpt lat="42.3499391041696071624755859375" lon="1.906095407903194427490234375">
        <ele>1596.4000244140625</ele>
        <time>2020-08-10T10:08:06.000Z</time>
      </trkpt>
      <trkpt lat="42.349894344806671142578125" lon="1.90600966103374958038330078125">
        <ele>1597</ele>
        <time>2020-08-10T10:08:11.000Z</time>
      </trkpt>
      <trkpt lat="42.3498935066163539886474609375" lon="1.9059675000607967376708984375">
        <ele>1597.5999755859375</ele>
        <time>2020-08-10T10:08:13.000Z</time>
      </trkpt>
      <trkpt lat="42.34989476390182971954345703125" lon="1.90592684783041477203369140625">
        <ele>1598.4000244140625</ele>
        <time>2020-08-10T10:08:15.000Z</time>
      </trkpt>
      <trkpt lat="42.34991270117461681365966796875" lon="1.90579541958868503570556640625">
        <ele>1599.199951171875</ele>
        <time>2020-08-10T10:08:22.000Z</time>
      </trkpt>
      <trkpt lat="42.3499461449682712554931640625" lon="1.9056815095245838165283203125">
        <ele>1599.4000244140625</ele>
        <time>2020-08-10T10:08:28.000Z</time>
      </trkpt>
      <trkpt lat="42.34995662234723567962646484375" lon="1.905619315803050994873046875">
        <ele>1599.800048828125</ele>
        <time>2020-08-10T10:08:31.000Z</time>
      </trkpt>
      <trkpt lat="42.349957041442394256591796875" lon="1.9055128656327724456787109375">
        <ele>1600.4000244140625</ele>
        <time>2020-08-10T10:08:36.000Z</time>
      </trkpt>
      <trkpt lat="42.349962405860424041748046875" lon="1.90546349622309207916259765625">
        <ele>1600.800048828125</ele>
        <time>2020-08-10T10:08:38.000Z</time>
      </trkpt>
      <trkpt lat="42.34996366314589977264404296875" lon="1.90531815402209758758544921875">
        <ele>1601.5999755859375</ele>
        <time>2020-08-10T10:08:44.000Z</time>
      </trkpt>
      <trkpt lat="42.3499538563191890716552734375" lon="1.90526886843144893646240234375">
        <ele>1601.5999755859375</ele>
        <time>2020-08-10T10:08:46.000Z</time>
      </trkpt>
      <trkpt lat="42.34995243139564990997314453125" lon="1.90509284846484661102294921875">
        <ele>1601.5999755859375</ele>
        <time>2020-08-10T10:08:53.000Z</time>
      </trkpt>
      <trkpt lat="42.3499501682817935943603515625" lon="1.90484692342579364776611328125">
        <ele>1602.199951171875</ele>
        <time>2020-08-10T10:09:02.000Z</time>
      </trkpt>
      <trkpt lat="42.3499676026403903961181640625" lon="1.90456093288958072662353515625">
        <ele>1602.199951171875</ele>
        <time>2020-08-10T10:09:12.000Z</time>
      </trkpt>
      <trkpt lat="42.34996131621301174163818359375" lon="1.90444962121546268463134765625">
        <ele>1602.5999755859375</ele>
        <time>2020-08-10T10:09:16.000Z</time>
      </trkpt>
      <trkpt lat="42.34994606114923954010009765625" lon="1.9043776206672191619873046875">
        <ele>1603.199951171875</ele>
        <time>2020-08-10T10:09:19.000Z</time>
      </trkpt>
      <trkpt lat="42.3499216698110103607177734375" lon="1.90434300340712070465087890625">
        <ele>1603.5999755859375</ele>
        <time>2020-08-10T10:09:21.000Z</time>
      </trkpt>
      <trkpt lat="42.349877245724201202392578125" lon="1.9043246470391750335693359375">
        <ele>1603.800048828125</ele>
        <time>2020-08-10T10:09:24.000Z</time>
      </trkpt>
      <trkpt lat="42.3498254455626010894775390625" lon="1.904370747506618499755859375">
        <ele>1604.5999755859375</ele>
        <time>2020-08-10T10:09:28.000Z</time>
      </trkpt>
      <trkpt lat="42.3498167283833026885986328125" lon="1.904389858245849609375">
        <ele>1604.800048828125</ele>
        <time>2020-08-10T10:09:29.000Z</time>
      </trkpt>
      <trkpt lat="42.34980792738497257232666015625" lon="1.90441139973700046539306640625">
        <ele>1604.800048828125</ele>
        <time>2020-08-10T10:09:30.000Z</time>
      </trkpt>
      <trkpt lat="42.34977473504841327667236328125" lon="1.9044904410839080810546875">
        <ele>1605.800048828125</ele>
        <time>2020-08-10T10:09:34.000Z</time>
      </trkpt>
      <trkpt lat="42.3497496731579303741455078125" lon="1.9045455940067768096923828125">
        <ele>1606.5999755859375</ele>
        <time>2020-08-10T10:09:37.000Z</time>
      </trkpt>
      <trkpt lat="42.349741794168949127197265625" lon="1.904565207660198211669921875">
        <ele>1606.800048828125</ele>
        <time>2020-08-10T10:09:38.000Z</time>
      </trkpt>
      <trkpt lat="42.34972226433455944061279296875" lon="1.90466151572763919830322265625">
        <ele>1607.5999755859375</ele>
        <time>2020-08-10T10:09:43.000Z</time>
      </trkpt>
      <trkpt lat="42.34971463680267333984375" lon="1.90470434725284576416015625">
        <ele>1607.800048828125</ele>
        <time>2020-08-10T10:09:45.000Z</time>
      </trkpt>
      <trkpt lat="42.3496829532086849212646484375" lon="1.90484005026519298553466796875">
        <ele>1609</ele>
        <time>2020-08-10T10:09:52.000Z</time>
      </trkpt>
      <trkpt lat="42.3496785946190357208251953125" lon="1.90485857427120208740234375">
        <ele>1609.199951171875</ele>
        <time>2020-08-10T10:09:53.000Z</time>
      </trkpt>
      <trkpt lat="42.34969376586377620697021484375" lon="1.90499276854097843170166015625">
        <ele>1609</ele>
        <time>2020-08-10T10:09:59.000Z</time>
      </trkpt>
      <trkpt lat="42.349701225757598876953125" lon="1.90515889786183834075927734375">
        <ele>1610</ele>
        <time>2020-08-10T10:10:07.000Z</time>
      </trkpt>
      <trkpt lat="42.34971941448748111724853515625" lon="1.9053299725055694580078125">
        <ele>1610.5999755859375</ele>
        <time>2020-08-10T10:10:15.000Z</time>
      </trkpt>
      <trkpt lat="42.34973517246544361114501953125" lon="1.90543348900973796844482421875">
        <ele>1611.199951171875</ele>
        <time>2020-08-10T10:10:20.000Z</time>
      </trkpt>
      <trkpt lat="42.34974120743572711944580078125" lon="1.90549970604479312896728515625">
        <ele>1611.4000244140625</ele>
        <time>2020-08-10T10:10:23.000Z</time>
      </trkpt>
      <trkpt lat="42.34974204562604427337646484375" lon="1.9056141190230846405029296875">
        <ele>1612.199951171875</ele>
        <time>2020-08-10T10:10:29.000Z</time>
      </trkpt>
      <trkpt lat="42.34973140060901641845703125" lon="1.90570749342441558837890625">
        <ele>1613.4000244140625</ele>
        <time>2020-08-10T10:10:34.000Z</time>
      </trkpt>
      <trkpt lat="42.3497225157916545867919921875" lon="1.9057250954210758209228515625">
        <ele>1613.5999755859375</ele>
        <time>2020-08-10T10:10:35.000Z</time>
      </trkpt>
      <trkpt lat="42.3496194183826446533203125" lon="1.90582676790654659271240234375">
        <ele>1614.4000244140625</ele>
        <time>2020-08-10T10:10:43.000Z</time>
      </trkpt>
      <trkpt lat="42.349529564380645751953125" lon="1.90578368492424488067626953125">
        <ele>1615.5999755859375</ele>
        <time>2020-08-10T10:10:49.000Z</time>
      </trkpt>
      <trkpt lat="42.3495183326303958892822265625" lon="1.90576725639402866363525390625">
        <ele>1615.5999755859375</ele>
        <time>2020-08-10T10:10:50.000Z</time>
      </trkpt>
      <trkpt lat="42.34948153607547283172607421875" lon="1.90564169548451900482177734375">
        <ele>1616.199951171875</ele>
        <time>2020-08-10T10:10:56.000Z</time>
      </trkpt>
      <trkpt lat="42.3494660295546054840087890625" lon="1.90548176877200603485107421875">
        <ele>1616.5999755859375</ele>
        <time>2020-08-10T10:11:03.000Z</time>
      </trkpt>
      <trkpt lat="42.34946125186979770660400390625" lon="1.90543122589588165283203125">
        <ele>1616.800048828125</ele>
        <time>2020-08-10T10:11:05.000Z</time>
      </trkpt>
      <trkpt lat="42.34943375922739505767822265625" lon="1.90524858422577381134033203125">
        <ele>1617</ele>
        <time>2020-08-10T10:11:13.000Z</time>
      </trkpt>
      <trkpt lat="42.3494088649749755859375" lon="1.90508714877068996429443359375">
        <ele>1617.800048828125</ele>
        <time>2020-08-10T10:11:20.000Z</time>
      </trkpt>
      <trkpt lat="42.34940894879400730133056640625" lon="1.90489746630191802978515625">
        <ele>1618.4000244140625</ele>
        <time>2020-08-10T10:11:28.000Z</time>
      </trkpt>
      <trkpt lat="42.34941045753657817840576171875" lon="1.9047330133616924285888671875">
        <ele>1618</ele>
        <time>2020-08-10T10:11:36.000Z</time>
      </trkpt>
      <trkpt lat="42.349382378160953521728515625" lon="1.90469604916870594024658203125">
        <ele>1619</ele>
        <time>2020-08-10T10:11:39.000Z</time>
      </trkpt>
      <trkpt lat="42.34933912754058837890625" lon="1.90468825399875640869140625">
        <ele>1619.199951171875</ele>
        <time>2020-08-10T10:11:42.000Z</time>
      </trkpt>
      <trkpt lat="42.349327392876148223876953125" lon="1.90468800254166126251220703125">
        <ele>1619.5999755859375</ele>
        <time>2020-08-10T10:11:46.000Z</time>
      </trkpt>
      <trkpt lat="42.34927567653357982635498046875" lon="1.90473460592329502105712890625">
        <ele>1620</ele>
        <time>2020-08-10T10:11:53.000Z</time>
      </trkpt>
      <trkpt lat="42.34924181364476680755615234375" lon="1.90477517433464527130126953125">
        <ele>1621.199951171875</ele>
        <time>2020-08-10T10:11:59.000Z</time>
      </trkpt>
      <trkpt lat="42.34923091717064380645751953125" lon="1.9047879986464977264404296875">
        <ele>1621.5999755859375</ele>
        <time>2020-08-10T10:12:01.000Z</time>
      </trkpt>
      <trkpt lat="42.34920032322406768798828125" lon="1.9048527069389820098876953125">
        <ele>1622.4000244140625</ele>
        <time>2020-08-10T10:12:08.000Z</time>
      </trkpt>
      <trkpt lat="42.3491840623319149017333984375" lon="1.9049076922237873077392578125">
        <ele>1623.4000244140625</ele>
        <time>2020-08-10T10:12:13.000Z</time>
      </trkpt>
      <trkpt lat="42.34916537068784236907958984375" lon="1.90498136915266513824462890625">
        <ele>1624.5999755859375</ele>
        <time>2020-08-10T10:12:21.000Z</time>
      </trkpt>
      <trkpt lat="42.3491585813462734222412109375" lon="1.904998384416103363037109375">
        <ele>1624.800048828125</ele>
        <time>2020-08-10T10:12:23.000Z</time>
      </trkpt>
      <trkpt lat="42.34915078617632389068603515625" lon="1.90502814017236232757568359375">
        <ele>1625.5999755859375</ele>
        <time>2020-08-10T10:12:26.000Z</time>
      </trkpt>
      <trkpt lat="42.34913201071321964263916015625" lon="1.90509729087352752685546875">
        <ele>1626.5999755859375</ele>
        <time>2020-08-10T10:12:33.000Z</time>
      </trkpt>
      <trkpt lat="42.349129579961299896240234375" lon="1.90510625950992107391357421875">
        <ele>1626.800048828125</ele>
        <time>2020-08-10T10:12:34.000Z</time>
      </trkpt>
      <trkpt lat="42.34910703264176845550537109375" lon="1.9051799364387989044189453125">
        <ele>1627.800048828125</ele>
        <time>2020-08-10T10:12:42.000Z</time>
      </trkpt>
      <trkpt lat="42.3490831442177295684814453125" lon="1.9052459858357906341552734375">
        <ele>1628.800048828125</ele>
        <time>2020-08-10T10:12:49.000Z</time>
      </trkpt>
      <trkpt lat="42.34907316975295543670654296875" lon="1.9052738137543201446533203125">
        <ele>1629.4000244140625</ele>
        <time>2020-08-10T10:12:52.000Z</time>
      </trkpt>
      <trkpt lat="42.34905204735696315765380859375" lon="1.9053264521062374114990234375">
        <ele>1630</ele>
        <time>2020-08-10T10:12:58.000Z</time>
      </trkpt>
      <trkpt lat="42.34903561882674694061279296875" lon="1.90535788424313068389892578125">
        <ele>1630.5999755859375</ele>
        <time>2020-08-10T10:13:02.000Z</time>
      </trkpt>
      <trkpt lat="42.3490124009549617767333984375" lon="1.9053916633129119873046875">
        <ele>1631</ele>
        <time>2020-08-10T10:13:07.000Z</time>
      </trkpt>
      <trkpt lat="42.3489919491112232208251953125" lon="1.9054250232875347137451171875">
        <ele>1631.5999755859375</ele>
        <time>2020-08-10T10:13:12.000Z</time>
      </trkpt>
      <trkpt lat="42.34897258691489696502685546875" lon="1.905446983873844146728515625">
        <ele>1632.4000244140625</ele>
        <time>2020-08-10T10:13:16.000Z</time>
      </trkpt>
      <trkpt lat="42.34894090332090854644775390625" lon="1.90547808073461055755615234375">
        <ele>1633</ele>
        <time>2020-08-10T10:13:22.000Z</time>
      </trkpt>
      <trkpt lat="42.3489242233335971832275390625" lon="1.90549652092158794403076171875">
        <ele>1633.4000244140625</ele>
        <time>2020-08-10T10:13:26.000Z</time>
      </trkpt>
      <trkpt lat="42.34890134073793888092041015625" lon="1.9055313058197498321533203125">
        <ele>1634</ele>
        <time>2020-08-10T10:13:32.000Z</time>
      </trkpt>
      <trkpt lat="42.34889379702508449554443359375" lon="1.9055380113422870635986328125">
        <ele>1634.199951171875</ele>
        <time>2020-08-10T10:13:34.000Z</time>
      </trkpt>
      <trkpt lat="42.348893545567989349365234375" lon="1.905540190637111663818359375">
        <ele>1634.5999755859375</ele>
        <time>2020-08-10T10:13:41.000Z</time>
      </trkpt>
      <trkpt lat="42.34886731021106243133544921875" lon="1.90557740628719329833984375">
        <ele>1635.199951171875</ele>
        <time>2020-08-10T10:13:49.000Z</time>
      </trkpt>
      <trkpt lat="42.348859012126922607421875" lon="1.90559140406548976898193359375">
        <ele>1635.199951171875</ele>
        <time>2020-08-10T10:13:51.000Z</time>
      </trkpt>
      <trkpt lat="42.34882774762809276580810546875" lon="1.90562174655497074127197265625">
        <ele>1636.4000244140625</ele>
        <time>2020-08-10T10:13:58.000Z</time>
      </trkpt>
      <trkpt lat="42.348822467029094696044921875" lon="1.9056268595159053802490234375">
        <ele>1636.5999755859375</ele>
        <time>2020-08-10T10:13:59.000Z</time>
      </trkpt>
      <trkpt lat="42.34877544455230236053466796875" lon="1.90567505545914173126220703125">
        <ele>1637.5999755859375</ele>
        <time>2020-08-10T10:14:07.000Z</time>
      </trkpt>
      <trkpt lat="42.34876672737300395965576171875" lon="1.90569031052291393280029296875">
        <ele>1637.800048828125</ele>
        <time>2020-08-10T10:14:09.000Z</time>
      </trkpt>
      <trkpt lat="42.3487528972327709197998046875" lon="1.9057173840701580047607421875">
        <ele>1638.5999755859375</ele>
        <time>2020-08-10T10:14:13.000Z</time>
      </trkpt>
      <trkpt lat="42.34873034991323947906494140625" lon="1.9057524204254150390625">
        <ele>1639.4000244140625</ele>
        <time>2020-08-10T10:14:19.000Z</time>
      </trkpt>
      <trkpt lat="42.3487213812768459320068359375" lon="1.90576289780437946319580078125">
        <ele>1639.5999755859375</ele>
        <time>2020-08-10T10:14:21.000Z</time>
      </trkpt>
      <trkpt lat="42.34869196079671382904052734375" lon="1.90580145455896854400634765625">
        <ele>1640.5999755859375</ele>
        <time>2020-08-10T10:14:27.000Z</time>
      </trkpt>
      <trkpt lat="42.348687686026096343994140625" lon="1.90580816008150577545166015625">
        <ele>1640.800048828125</ele>
        <time>2020-08-10T10:14:28.000Z</time>
      </trkpt>
      <trkpt lat="42.34865558333694934844970703125" lon="1.90587370656430721282958984375">
        <ele>1641.800048828125</ele>
        <time>2020-08-10T10:14:36.000Z</time>
      </trkpt>
      <trkpt lat="42.34863546676933765411376953125" lon="1.90592550672590732574462890625">
        <ele>1643</ele>
        <time>2020-08-10T10:14:42.000Z</time>
      </trkpt>
      <trkpt lat="42.34862356446683406829833984375" lon="1.90595735795795917510986328125">
        <ele>1643.199951171875</ele>
        <time>2020-08-10T10:14:46.000Z</time>
      </trkpt>
      <trkpt lat="42.34860210679471492767333984375" lon="1.9060040451586246490478515625">
        <ele>1644</ele>
        <time>2020-08-10T10:14:53.000Z</time>
      </trkpt>
      <trkpt lat="42.34859154559671878814697265625" lon="1.9060238264501094818115234375">
        <ele>1644.199951171875</ele>
        <time>2020-08-10T10:14:56.000Z</time>
      </trkpt>
      <trkpt lat="42.34857461415231227874755859375" lon="1.9060583598911762237548828125">
        <ele>1645.199951171875</ele>
        <time>2020-08-10T10:15:01.000Z</time>
      </trkpt>
      <trkpt lat="42.34855667687952518463134765625" lon="1.90610504709184169769287109375">
        <ele>1645.800048828125</ele>
        <time>2020-08-10T10:15:07.000Z</time>
      </trkpt>
      <trkpt lat="42.34854477457702159881591796875" lon="1.9061237387359142303466796875">
        <ele>1646.199951171875</ele>
        <time>2020-08-10T10:15:10.000Z</time>
      </trkpt>
      <trkpt lat="42.3485178686678409576416015625" lon="1.90616103820502758026123046875">
        <ele>1647.199951171875</ele>
        <time>2020-08-10T10:15:18.000Z</time>
      </trkpt>
      <trkpt lat="42.34851543791592121124267578125" lon="1.9061646424233913421630859375">
        <ele>1647</ele>
        <time>2020-08-10T10:15:19.000Z</time>
      </trkpt>
      <trkpt lat="42.3484937287867069244384765625" lon="1.9062085635960102081298828125">
        <ele>1648</ele>
        <time>2020-08-10T10:15:26.000Z</time>
      </trkpt>
      <trkpt lat="42.3484920524060726165771484375" lon="1.90621443092823028564453125">
        <ele>1648.199951171875</ele>
        <time>2020-08-10T10:15:27.000Z</time>
      </trkpt>
      <trkpt lat="42.34845911152660846710205078125" lon="1.9062789715826511383056640625">
        <ele>1649</ele>
        <time>2020-08-10T10:15:37.000Z</time>
      </trkpt>
      <trkpt lat="42.348457016050815582275390625" lon="1.90628659911453723907470703125">
        <ele>1649.199951171875</ele>
        <time>2020-08-10T10:15:38.000Z</time>
      </trkpt>
      <trkpt lat="42.3484472930431365966796875" lon="1.90635248087346553802490234375">
        <ele>1649.800048828125</ele>
        <time>2020-08-10T10:15:45.000Z</time>
      </trkpt>
      <trkpt lat="42.34844268299639225006103515625" lon="1.90636622719466686248779296875">
        <ele>1650.199951171875</ele>
        <time>2020-08-10T10:15:47.000Z</time>
      </trkpt>
      <trkpt lat="42.34842122532427310943603515625" lon="1.9064321927726268768310546875">
        <ele>1651.199951171875</ele>
        <time>2020-08-10T10:15:55.000Z</time>
      </trkpt>
      <trkpt lat="42.3484203033149242401123046875" lon="1.90644065849483013153076171875">
        <ele>1651.4000244140625</ele>
        <time>2020-08-10T10:15:56.000Z</time>
      </trkpt>
      <trkpt lat="42.34840395860373973846435546875" lon="1.9065103121101856231689453125">
        <ele>1652.4000244140625</ele>
        <time>2020-08-10T10:16:04.000Z</time>
      </trkpt>
      <trkpt lat="42.34838702715933322906494140625" lon="1.9065825641155242919921875">
        <ele>1653.5999755859375</ele>
        <time>2020-08-10T10:16:13.000Z</time>
      </trkpt>
      <trkpt lat="42.34835215844213962554931640625" lon="1.9066672213375568389892578125">
        <ele>1654.4000244140625</ele>
        <time>2020-08-10T10:16:24.000Z</time>
      </trkpt>
      <trkpt lat="42.3483212292194366455078125" lon="1.90673234872519969940185546875">
        <ele>1655.4000244140625</ele>
        <time>2020-08-10T10:16:32.000Z</time>
      </trkpt>
      <trkpt lat="42.34831360168755054473876953125" lon="1.9067486934363842010498046875">
        <ele>1655.5999755859375</ele>
        <time>2020-08-10T10:16:34.000Z</time>
      </trkpt>
      <trkpt lat="42.3482714407145977020263671875" lon="1.90681256353855133056640625">
        <ele>1656.4000244140625</ele>
        <time>2020-08-10T10:16:43.000Z</time>
      </trkpt>
      <trkpt lat="42.34826599247753620147705078125" lon="1.90681918524205684661865234375">
        <ele>1656.5999755859375</ele>
        <time>2020-08-10T10:16:44.000Z</time>
      </trkpt>
      <trkpt lat="42.348226010799407958984375" lon="1.90685011446475982666015625">
        <ele>1657.4000244140625</ele>
        <time>2020-08-10T10:16:52.000Z</time>
      </trkpt>
      <trkpt lat="42.34821804799139499664306640625" lon="1.90685011446475982666015625">
        <ele>1657.4000244140625</ele>
        <time>2020-08-10T10:17:02.000Z</time>
      </trkpt>
      <trkpt lat="42.34821704216301441192626953125" lon="1.9068492762744426727294921875">
        <ele>1657.5999755859375</ele>
        <time>2020-08-10T10:17:05.000Z</time>
      </trkpt>
      <trkpt lat="42.3482177965342998504638671875" lon="1.906850449740886688232421875">
        <ele>1657.5999755859375</ele>
        <time>2020-08-10T10:17:21.000Z</time>
      </trkpt>
      <trkpt lat="42.348217628896236419677734375" lon="1.9068506173789501190185546875">
        <ele>1657.199951171875</ele>
        <time>2020-08-10T10:17:33.000Z</time>
      </trkpt>
      <trkpt lat="42.34820379875600337982177734375" lon="1.9068834744393825531005859375">
        <ele>1657.4000244140625</ele>
        <time>2020-08-10T10:17:41.000Z</time>
      </trkpt>
      <trkpt lat="42.34815434552729129791259765625" lon="1.90695480443537235260009765625">
        <ele>1658.5999755859375</ele>
        <time>2020-08-10T10:17:47.000Z</time>
      </trkpt>
      <trkpt lat="42.34813691116869449615478515625" lon="1.90699621103703975677490234375">
        <ele>1659</ele>
        <time>2020-08-10T10:17:50.000Z</time>
      </trkpt>
      <trkpt lat="42.348115704953670501708984375" lon="1.907054297626018524169921875">
        <ele>1659.5999755859375</ele>
        <time>2020-08-10T10:17:54.000Z</time>
      </trkpt>
      <trkpt lat="42.34809064306318759918212890625" lon="1.90714473836123943328857421875">
        <ele>1660.800048828125</ele>
        <time>2020-08-10T10:18:00.000Z</time>
      </trkpt>
      <trkpt lat="42.34804789535701274871826171875" lon="1.90726174972951412200927734375">
        <ele>1661.800048828125</ele>
        <time>2020-08-10T10:18:08.000Z</time>
      </trkpt>
      <trkpt lat="42.34800984151661396026611328125" lon="1.90738119184970855712890625">
        <ele>1662.800048828125</ele>
        <time>2020-08-10T10:18:16.000Z</time>
      </trkpt>
      <trkpt lat="42.3480047285556793212890625" lon="1.90739686600863933563232421875">
        <ele>1663</ele>
        <time>2020-08-10T10:18:17.000Z</time>
      </trkpt>
      <trkpt lat="42.347976900637149810791015625" lon="1.90747196786105632781982421875">
        <ele>1663.800048828125</ele>
        <time>2020-08-10T10:18:22.000Z</time>
      </trkpt>
      <trkpt lat="42.3479430377483367919921875" lon="1.90756249241530895233154296875">
        <ele>1664.800048828125</ele>
        <time>2020-08-10T10:18:28.000Z</time>
      </trkpt>
      <trkpt lat="42.347915209829807281494140625" lon="1.90764807164669036865234375">
        <ele>1666</ele>
        <time>2020-08-10T10:18:34.000Z</time>
      </trkpt>
      <trkpt lat="42.34791009686887264251708984375" lon="1.9076629914343357086181640625">
        <ele>1666.199951171875</ele>
        <time>2020-08-10T10:18:35.000Z</time>
      </trkpt>
      <trkpt lat="42.34789115376770496368408203125" lon="1.90771839581429958343505859375">
        <ele>1667.199951171875</ele>
        <time>2020-08-10T10:18:39.000Z</time>
      </trkpt>
      <trkpt lat="42.3478781618177890777587890625" lon="1.9077605567872524261474609375">
        <ele>1667.4000244140625</ele>
        <time>2020-08-10T10:18:42.000Z</time>
      </trkpt>
      <trkpt lat="42.34785695560276508331298828125" lon="1.9078162126243114471435546875">
        <ele>1668.199951171875</ele>
        <time>2020-08-10T10:18:46.000Z</time>
      </trkpt>
      <trkpt lat="42.34783901832997798919677734375" lon="1.9078807532787322998046875">
        <ele>1669</ele>
        <time>2020-08-10T10:18:51.000Z</time>
      </trkpt>
      <trkpt lat="42.347828038036823272705078125" lon="1.90790531225502490997314453125">
        <ele>1669.199951171875</ele>
        <time>2020-08-10T10:18:53.000Z</time>
      </trkpt>
      <trkpt lat="42.3478054068982601165771484375" lon="1.907959543168544769287109375">
        <ele>1670.4000244140625</ele>
        <time>2020-08-10T10:18:57.000Z</time>
      </trkpt>
      <trkpt lat="42.34780213795602321624755859375" lon="1.90800455398857593536376953125">
        <ele>1670.5999755859375</ele>
        <time>2020-08-10T10:19:00.000Z</time>
      </trkpt>
      <trkpt lat="42.3477812670171260833740234375" lon="1.9081055559217929840087890625">
        <ele>1671.199951171875</ele>
        <time>2020-08-10T10:19:07.000Z</time>
      </trkpt>
      <trkpt lat="42.3477660119533538818359375" lon="1.9081457890570163726806640625">
        <ele>1671.5999755859375</ele>
        <time>2020-08-10T10:19:10.000Z</time>
      </trkpt>
      <trkpt lat="42.3477450571954250335693359375" lon="1.90823740325868129730224609375">
        <ele>1672.5999755859375</ele>
        <time>2020-08-10T10:19:16.000Z</time>
      </trkpt>
      <trkpt lat="42.3477400280535221099853515625" lon="1.90825232304632663726806640625">
        <ele>1672.5999755859375</ele>
        <time>2020-08-10T10:19:17.000Z</time>
      </trkpt>
      <trkpt lat="42.34771228395402431488037109375" lon="1.908340752124786376953125">
        <ele>1673.199951171875</ele>
        <time>2020-08-10T10:19:23.000Z</time>
      </trkpt>
      <trkpt lat="42.34770105220377445220947265625" lon="1.908368580043315887451171875">
        <ele>1673.800048828125</ele>
        <time>2020-08-10T10:19:25.000Z</time>
      </trkpt>
      <trkpt lat="42.347682528197765350341796875" lon="1.9084354676306247711181640625">
        <ele>1674.5999755859375</ele>
        <time>2020-08-10T10:19:30.000Z</time>
      </trkpt>
      <trkpt lat="42.3476774990558624267578125" lon="1.90844929777085781097412109375">
        <ele>1674.800048828125</ele>
        <time>2020-08-10T10:19:31.000Z</time>
      </trkpt>
      <trkpt lat="42.3476662673056125640869140625" lon="1.9085068814456462860107421875">
        <ele>1675.800048828125</ele>
        <time>2020-08-10T10:19:35.000Z</time>
      </trkpt>
      <trkpt lat="42.34765595756471157073974609375" lon="1.90855055116117000579833984375">
        <ele>1676</ele>
        <time>2020-08-10T10:19:38.000Z</time>
      </trkpt>
      <trkpt lat="42.34764288179576396942138671875" lon="1.90859623253345489501953125">
        <ele>1676.5999755859375</ele>
        <time>2020-08-10T10:19:41.000Z</time>
      </trkpt>
      <trkpt lat="42.3476414568722248077392578125" lon="1.90864342264831066131591796875">
        <ele>1677</ele>
        <time>2020-08-10T10:19:44.000Z</time>
      </trkpt>
      <trkpt lat="42.3476397804915904998779296875" lon="1.90865767188370227813720703125">
        <ele>1677</ele>
        <time>2020-08-10T10:19:45.000Z</time>
      </trkpt>
      <trkpt lat="42.34763198532164096832275390625" lon="1.9087321870028972625732421875">
        <ele>1677.800048828125</ele>
        <time>2020-08-10T10:19:50.000Z</time>
      </trkpt>
      <trkpt lat="42.34762997366487979888916015625" lon="1.90877652727067470550537109375">
        <ele>1678.800048828125</ele>
        <time>2020-08-10T10:19:53.000Z</time>
      </trkpt>
      <trkpt lat="42.34762561507523059844970703125" lon="1.90883872099220752716064453125">
        <ele>1679</ele>
        <time>2020-08-10T10:19:57.000Z</time>
      </trkpt>
      <trkpt lat="42.34762360341846942901611328125" lon="1.908888928592205047607421875">
        <ele>1680</ele>
        <time>2020-08-10T10:20:00.000Z</time>
      </trkpt>
      <trkpt lat="42.34762058593332767486572265625" lon="1.90892052836716175079345703125">
        <ele>1680.199951171875</ele>
        <time>2020-08-10T10:20:02.000Z</time>
      </trkpt>
      <trkpt lat="42.34762276522815227508544921875" lon="1.9090074487030506134033203125">
        <ele>1681.199951171875</ele>
        <time>2020-08-10T10:20:08.000Z</time>
      </trkpt>
      <trkpt lat="42.347635589540004730224609375" lon="1.9090309180319309234619140625">
        <ele>1681.800048828125</ele>
        <time>2020-08-10T10:20:10.000Z</time>
      </trkpt>
      <trkpt lat="42.3476748168468475341796875" lon="1.90909889526665210723876953125">
        <ele>1682.4000244140625</ele>
        <time>2020-08-10T10:20:17.000Z</time>
      </trkpt>
      <trkpt lat="42.3476890660822391510009765625" lon="1.90914868377149105072021484375">
        <ele>1682.800048828125</ele>
        <time>2020-08-10T10:20:23.000Z</time>
      </trkpt>
      <trkpt lat="42.3476937599480152130126953125" lon="1.90918757580220699310302734375">
        <ele>1683.4000244140625</ele>
        <time>2020-08-10T10:20:27.000Z</time>
      </trkpt>
      <trkpt lat="42.34769769944250583648681640625" lon="1.90922655165195465087890625">
        <ele>1683.800048828125</ele>
        <time>2020-08-10T10:20:32.000Z</time>
      </trkpt>
      <trkpt lat="42.3476994596421718597412109375" lon="1.90922730602324008941650390625">
        <ele>1684.199951171875</ele>
        <time>2020-08-10T10:20:37.000Z</time>
      </trkpt>
      <trkpt lat="42.347700633108615875244140625" lon="1.90923719666898250579833984375">
        <ele>1684.4000244140625</ele>
        <time>2020-08-10T10:20:38.000Z</time>
      </trkpt>
      <trkpt lat="42.34770289622247219085693359375" lon="1.90924859605729579925537109375">
        <ele>1684.5999755859375</ele>
        <time>2020-08-10T10:20:39.000Z</time>
      </trkpt>
      <trkpt lat="42.34770859591662883758544921875" lon="1.9093836285173892974853515625">
        <ele>1685.199951171875</ele>
        <time>2020-08-10T10:20:48.000Z</time>
      </trkpt>
      <trkpt lat="42.34770641662180423736572265625" lon="1.90940030850470066070556640625">
        <ele>1685.4000244140625</ele>
        <time>2020-08-10T10:20:49.000Z</time>
      </trkpt>
      <trkpt lat="42.34770960174500942230224609375" lon="1.909502483904361724853515625">
        <ele>1685.800048828125</ele>
        <time>2020-08-10T10:20:55.000Z</time>
      </trkpt>
      <trkpt lat="42.34771027229726314544677734375" lon="1.9096216745674610137939453125">
        <ele>1686.4000244140625</ele>
        <time>2020-08-10T10:21:02.000Z</time>
      </trkpt>
      <trkpt lat="42.347709350287914276123046875" lon="1.9096759893000125885009765625">
        <ele>1687.199951171875</ele>
        <time>2020-08-10T10:21:05.000Z</time>
      </trkpt>
      <trkpt lat="42.347712703049182891845703125" lon="1.90970775671303272247314453125">
        <ele>1687.5999755859375</ele>
        <time>2020-08-10T10:21:07.000Z</time>
      </trkpt>
      <trkpt lat="42.3477096855640411376953125" lon="1.90983516164124011993408203125">
        <ele>1688.4000244140625</ele>
        <time>2020-08-10T10:21:15.000Z</time>
      </trkpt>
      <trkpt lat="42.3477088473737239837646484375" lon="1.9098513387143611907958984375">
        <ele>1688.5999755859375</ele>
        <time>2020-08-10T10:21:16.000Z</time>
      </trkpt>
      <trkpt lat="42.34769820235669612884521484375" lon="1.90994110889732837677001953125">
        <ele>1689.4000244140625</ele>
        <time>2020-08-10T10:21:22.000Z</time>
      </trkpt>
      <trkpt lat="42.3476823605597019195556640625" lon="1.90998704172670841217041015625">
        <ele>1689.800048828125</ele>
        <time>2020-08-10T10:21:25.000Z</time>
      </trkpt>
      <trkpt lat="42.34766836278140544891357421875" lon="1.9100307114422321319580078125">
        <ele>1690.5999755859375</ele>
        <time>2020-08-10T10:21:28.000Z</time>
      </trkpt>
      <trkpt lat="42.347642295062541961669921875" lon="1.91010807640850543975830078125">
        <ele>1691.5999755859375</ele>
        <time>2020-08-10T10:21:33.000Z</time>
      </trkpt>
      <trkpt lat="42.34759694896638393402099609375" lon="1.91014680080115795135498046875">
        <ele>1692.800048828125</ele>
        <time>2020-08-10T10:21:37.000Z</time>
      </trkpt>
      <trkpt lat="42.34757490456104278564453125" lon="1.91016289405524730682373046875">
        <ele>1693</ele>
        <time>2020-08-10T10:21:39.000Z</time>
      </trkpt>
      <trkpt lat="42.34754967503249645233154296875" lon="1.9101976789534091949462890625">
        <ele>1694</ele>
        <time>2020-08-10T10:21:42.000Z</time>
      </trkpt>
      <trkpt lat="42.34752603806555271148681640625" lon="1.9102338887751102447509765625">
        <ele>1695</ele>
        <time>2020-08-10T10:21:45.000Z</time>
      </trkpt>
      <trkpt lat="42.3475138843059539794921875" lon="1.9102620519697666168212890625">
        <ele>1695.4000244140625</ele>
        <time>2020-08-10T10:21:47.000Z</time>
      </trkpt>
      <trkpt lat="42.34750558622181415557861328125" lon="1.910391636192798614501953125">
        <ele>1696.199951171875</ele>
        <time>2020-08-10T10:21:55.000Z</time>
      </trkpt>
      <trkpt lat="42.34750709496438503265380859375" lon="1.9104078970849514007568359375">
        <ele>1696.5999755859375</ele>
        <time>2020-08-10T10:21:56.000Z</time>
      </trkpt>
      <trkpt lat="42.3474982939660549163818359375" lon="1.91048660315573215484619140625">
        <ele>1697.199951171875</ele>
        <time>2020-08-10T10:22:01.000Z</time>
      </trkpt>
      <trkpt lat="42.34747692011296749114990234375" lon="1.91053907386958599090576171875">
        <ele>1697.4000244140625</ele>
        <time>2020-08-10T10:22:05.000Z</time>
      </trkpt>
      <trkpt lat="42.3474329151213169097900390625" lon="1.91063596867024898529052734375">
        <ele>1698.5999755859375</ele>
        <time>2020-08-10T10:22:12.000Z</time>
      </trkpt>
      <trkpt lat="42.34741933643817901611328125" lon="1.910658515989780426025390625">
        <ele>1699</ele>
        <time>2020-08-10T10:22:14.000Z</time>
      </trkpt>
      <trkpt lat="42.34737197868525981903076171875" lon="1.91073286347091197967529296875">
        <ele>1699.800048828125</ele>
        <time>2020-08-10T10:22:21.000Z</time>
      </trkpt>
      <trkpt lat="42.3473675362765789031982421875" lon="1.9107431732118129730224609375">
        <ele>1699.800048828125</ele>
        <time>2020-08-10T10:22:22.000Z</time>
      </trkpt>
      <trkpt lat="42.34729788266122341156005859375" lon="1.91080025397241115570068359375">
        <ele>1700.5999755859375</ele>
        <time>2020-08-10T10:22:29.000Z</time>
      </trkpt>
      <trkpt lat="42.3472770117223262786865234375" lon="1.91082020290195941925048828125">
        <ele>1700.5999755859375</ele>
        <time>2020-08-10T10:22:31.000Z</time>
      </trkpt>
      <trkpt lat="42.34722487628459930419921875" lon="1.9108875095844268798828125">
        <ele>1701.199951171875</ele>
        <time>2020-08-10T10:22:37.000Z</time>
      </trkpt>
      <trkpt lat="42.347185313701629638671875" lon="1.91092296503484249114990234375">
        <ele>1701.5999755859375</ele>
        <time>2020-08-10T10:22:41.000Z</time>
      </trkpt>
      <trkpt lat="42.34714885242283344268798828125" lon="1.91096655093133449554443359375">
        <ele>1701.800048828125</ele>
        <time>2020-08-10T10:22:45.000Z</time>
      </trkpt>
      <trkpt lat="42.34710258431732654571533203125" lon="1.9110211171209812164306640625">
        <ele>1702.800048828125</ele>
        <time>2020-08-10T10:22:50.000Z</time>
      </trkpt>
      <trkpt lat="42.3470724932849407196044921875" lon="1.91105321981012821197509765625">
        <ele>1703.199951171875</ele>
        <time>2020-08-10T10:22:53.000Z</time>
      </trkpt>
      <trkpt lat="42.34702329151332378387451171875" lon="1.9110992364585399627685546875">
        <ele>1703.800048828125</ele>
        <time>2020-08-10T10:22:58.000Z</time>
      </trkpt>
      <trkpt lat="42.3469970561563968658447265625" lon="1.91112999804317951202392578125">
        <ele>1704</ele>
        <time>2020-08-10T10:23:01.000Z</time>
      </trkpt>
      <trkpt lat="42.346948273479938507080078125" lon="1.9111887551844120025634765625">
        <ele>1705</ele>
        <time>2020-08-10T10:23:06.000Z</time>
      </trkpt>
      <trkpt lat="42.3469264805316925048828125" lon="1.9112068600952625274658203125">
        <ele>1705</ele>
        <time>2020-08-10T10:23:08.000Z</time>
      </trkpt>
      <trkpt lat="42.3468904383480548858642578125" lon="1.9112323410809040069580078125">
        <ele>1705.4000244140625</ele>
        <time>2020-08-10T10:23:11.000Z</time>
      </trkpt>
      <trkpt lat="42.3468475230038166046142578125" lon="1.91126561723649501800537109375">
        <ele>1706</ele>
        <time>2020-08-10T10:23:15.000Z</time>
      </trkpt>
      <trkpt lat="42.34676278196275234222412109375" lon="1.9113161601126194000244140625">
        <ele>1706.800048828125</ele>
        <time>2020-08-10T10:23:23.000Z</time>
      </trkpt>
      <trkpt lat="42.34673939645290374755859375" lon="1.9113215245306491851806640625">
        <ele>1707</ele>
        <time>2020-08-10T10:23:25.000Z</time>
      </trkpt>
      <trkpt lat="42.34668114222586154937744140625" lon="1.911338455975055694580078125">
        <ele>1707.5999755859375</ele>
        <time>2020-08-10T10:23:30.000Z</time>
      </trkpt>
      <trkpt lat="42.3466078005731105804443359375" lon="1.9113510288298130035400390625">
        <ele>1708.199951171875</ele>
        <time>2020-08-10T10:23:36.000Z</time>
      </trkpt>
      <trkpt lat="42.34658516943454742431640625" lon="1.9113637693226337432861328125">
        <ele>1708.4000244140625</ele>
        <time>2020-08-10T10:23:38.000Z</time>
      </trkpt>
      <trkpt lat="42.346534542739391326904296875" lon="1.911408863961696624755859375">
        <ele>1709.4000244140625</ele>
        <time>2020-08-10T10:23:42.000Z</time>
      </trkpt>
      <trkpt lat="42.34650646336376667022705078125" lon="1.91143333911895751953125">
        <ele>1710</ele>
        <time>2020-08-10T10:23:45.000Z</time>
      </trkpt>
      <trkpt lat="42.34647528268396854400634765625" lon="1.911439709365367889404296875">
        <ele>1710.4000244140625</ele>
        <time>2020-08-10T10:23:48.000Z</time>
      </trkpt>
      <trkpt lat="42.34643119387328624725341796875" lon="1.9114499352872371673583984375">
        <ele>1711</ele>
        <time>2020-08-10T10:23:52.000Z</time>
      </trkpt>
      <trkpt lat="42.3463865183293819427490234375" lon="1.91146074794232845306396484375">
        <ele>1711.5999755859375</ele>
        <time>2020-08-10T10:23:56.000Z</time>
      </trkpt>
      <trkpt lat="42.3463305272161960601806640625" lon="1.911441385746002197265625">
        <ele>1712.800048828125</ele>
        <time>2020-08-10T10:24:01.000Z</time>
      </trkpt>
      <trkpt lat="42.346254922449588775634765625" lon="1.91142520867288112640380859375">
        <ele>1713.800048828125</ele>
        <time>2020-08-10T10:24:07.000Z</time>
      </trkpt>
      <trkpt lat="42.34624260105192661285400390625" lon="1.9114291481673717498779296875">
        <ele>1714</ele>
        <time>2020-08-10T10:24:08.000Z</time>
      </trkpt>
      <trkpt lat="42.34618283808231353759765625" lon="1.9114455766975879669189453125">
        <ele>1715</ele>
        <time>2020-08-10T10:24:13.000Z</time>
      </trkpt>
      <trkpt lat="42.34614788554608821868896484375" lon="1.91145010292530059814453125">
        <ele>1715.4000244140625</ele>
        <time>2020-08-10T10:24:16.000Z</time>
      </trkpt>
      <trkpt lat="42.346115447580814361572265625" lon="1.911449767649173736572265625">
        <ele>1716</ele>
        <time>2020-08-10T10:24:19.000Z</time>
      </trkpt>
      <trkpt lat="42.34604897908866405487060546875" lon="1.91145186312496662139892578125">
        <ele>1717</ele>
        <time>2020-08-10T10:24:25.000Z</time>
      </trkpt>
      <trkpt lat="42.3459640704095363616943359375" lon="1.91142671741545200347900390625">
        <ele>1718</ele>
        <time>2020-08-10T10:24:33.000Z</time>
      </trkpt>
      <trkpt lat="42.345899529755115509033203125" lon="1.91140274517238140106201171875">
        <ele>1719</ele>
        <time>2020-08-10T10:24:39.000Z</time>
      </trkpt>
      <trkpt lat="42.34588779509067535400390625" lon="1.9113993085920810699462890625">
        <ele>1719.199951171875</ele>
        <time>2020-08-10T10:24:40.000Z</time>
      </trkpt>
      <trkpt lat="42.3457977734506130218505859375" lon="1.91136083565652370452880859375">
        <ele>1720</ele>
        <time>2020-08-10T10:24:48.000Z</time>
      </trkpt>
      <trkpt lat="42.345786206424236297607421875" lon="1.91135513596236705780029296875">
        <ele>1720.199951171875</ele>
        <time>2020-08-10T10:24:49.000Z</time>
      </trkpt>
      <trkpt lat="42.3457179777324199676513671875" lon="1.91134340129792690277099609375">
        <ele>1721.4000244140625</ele>
        <time>2020-08-10T10:24:55.000Z</time>
      </trkpt>
      <trkpt lat="42.345652095973491668701171875" lon="1.911349184811115264892578125">
        <ele>1722.4000244140625</ele>
        <time>2020-08-10T10:25:01.000Z</time>
      </trkpt>
      <trkpt lat="42.3456080071628093719482421875" lon="1.91135354340076446533203125">
        <ele>1723</ele>
        <time>2020-08-10T10:25:05.000Z</time>
      </trkpt>
      <trkpt lat="42.34554891474545001983642578125" lon="1.9113674573600292205810546875">
        <ele>1723.4000244140625</ele>
        <time>2020-08-10T10:25:10.000Z</time>
      </trkpt>
      <trkpt lat="42.3454896546900272369384765625" lon="1.91137022338807582855224609375">
        <ele>1724.4000244140625</ele>
        <time>2020-08-10T10:25:15.000Z</time>
      </trkpt>
      <trkpt lat="42.34540709294378757476806640625" lon="1.9113681279122829437255859375">
        <ele>1725.4000244140625</ele>
        <time>2020-08-10T10:25:22.000Z</time>
      </trkpt>
      <trkpt lat="42.3453957773745059967041015625" lon="1.91136653535068035125732421875">
        <ele>1725.4000244140625</ele>
        <time>2020-08-10T10:25:23.000Z</time>
      </trkpt>
      <trkpt lat="42.34532796777784824371337890625" lon="1.91135597415268421173095703125">
        <ele>1726.5999755859375</ele>
        <time>2020-08-10T10:25:29.000Z</time>
      </trkpt>
      <trkpt lat="42.34530382789671421051025390625" lon="1.91135220229625701904296875">
        <ele>1726.800048828125</ele>
        <time>2020-08-10T10:25:31.000Z</time>
      </trkpt>
      <trkpt lat="42.3452640138566493988037109375" lon="1.91133535467088222503662109375">
        <ele>1727.4000244140625</ele>
        <time>2020-08-10T10:25:37.000Z</time>
      </trkpt>
      <trkpt lat="42.345263846218585968017578125" lon="1.911334097385406494140625">
        <ele>1727.4000244140625</ele>
        <time>2020-08-10T10:25:39.000Z</time>
      </trkpt>
      <trkpt lat="42.34526309184730052947998046875" lon="1.911335773766040802001953125">
        <ele>1727.5999755859375</ele>
        <time>2020-08-10T10:25:49.000Z</time>
      </trkpt>
      <trkpt lat="42.3452636785805225372314453125" lon="1.91133501939475536346435546875">
        <ele>1727.800048828125</ele>
        <time>2020-08-10T10:26:08.000Z</time>
      </trkpt>
      <trkpt lat="42.34526359476149082183837890625" lon="1.91133552230894565582275390625">
        <ele>1727.5999755859375</ele>
        <time>2020-08-10T10:26:40.000Z</time>
      </trkpt>
      <trkpt lat="42.34524113126099109649658203125" lon="1.911327727138996124267578125">
        <ele>1727.5999755859375</ele>
        <time>2020-08-10T10:26:57.000Z</time>
      </trkpt>
      <trkpt lat="42.34518581070005893707275390625" lon="1.91129931248724460601806640625">
        <ele>1728.4000244140625</ele>
        <time>2020-08-10T10:27:06.000Z</time>
      </trkpt>
      <trkpt lat="42.34516418538987636566162109375" lon="1.91127684898674488067626953125">
        <ele>1729.4000244140625</ele>
        <time>2020-08-10T10:27:11.000Z</time>
      </trkpt>
      <trkpt lat="42.3451382853090763092041015625" lon="1.91126410849392414093017578125">
        <ele>1730.4000244140625</ele>
        <time>2020-08-10T10:27:17.000Z</time>
      </trkpt>
      <trkpt lat="42.3451342619955539703369140625" lon="1.91126192919909954071044921875">
        <ele>1730.5999755859375</ele>
        <time>2020-08-10T10:27:18.000Z</time>
      </trkpt>
      <trkpt lat="42.34508170746266841888427734375" lon="1.9112407229840755462646484375">
        <ele>1731.800048828125</ele>
        <time>2020-08-10T10:27:28.000Z</time>
      </trkpt>
      <trkpt lat="42.34503879211843013763427734375" lon="1.9112165831029415130615234375">
        <ele>1732.5999755859375</ele>
        <time>2020-08-10T10:27:37.000Z</time>
      </trkpt>
      <trkpt lat="42.345028817653656005859375" lon="1.91121272742748260498046875">
        <ele>1733</ele>
        <time>2020-08-10T10:27:39.000Z</time>
      </trkpt>
      <trkpt lat="42.3449872434139251708984375" lon="1.91119722090661525726318359375">
        <ele>1733.800048828125</ele>
        <time>2020-08-10T10:27:47.000Z</time>
      </trkpt>
      <trkpt lat="42.34496779739856719970703125" lon="1.911189593374729156494140625">
        <ele>1734</ele>
        <time>2020-08-10T10:27:50.000Z</time>
      </trkpt>
      <trkpt lat="42.3449277319014072418212890625" lon="1.91117123700678348541259765625">
        <ele>1734.800048828125</ele>
        <time>2020-08-10T10:27:57.000Z</time>
      </trkpt>
      <trkpt lat="42.34491591341793537139892578125" lon="1.9111676327884197235107421875">
        <ele>1735.199951171875</ele>
        <time>2020-08-10T10:27:59.000Z</time>
      </trkpt>
      <trkpt lat="42.34488741494715213775634765625" lon="1.91116168163716793060302734375">
        <ele>1736.199951171875</ele>
        <time>2020-08-10T10:28:04.000Z</time>
      </trkpt>
      <trkpt lat="42.34487199224531650543212890625" lon="1.911154724657535552978515625">
        <ele>1736.4000244140625</ele>
        <time>2020-08-10T10:28:07.000Z</time>
      </trkpt>
      <trkpt lat="42.34483142383396625518798828125" lon="1.911132596433162689208984375">
        <ele>1737.199951171875</ele>
        <time>2020-08-10T10:28:16.000Z</time>
      </trkpt>
      <trkpt lat="42.34482639469206333160400390625" lon="1.911130584776401519775390625">
        <ele>1737.199951171875</ele>
        <time>2020-08-10T10:28:17.000Z</time>
      </trkpt>
      <trkpt lat="42.34479923732578754425048828125" lon="1.9111072830855846405029296875">
        <ele>1738.199951171875</ele>
        <time>2020-08-10T10:28:23.000Z</time>
      </trkpt>
      <trkpt lat="42.3447859100997447967529296875" lon="1.91109202802181243896484375">
        <ele>1738.800048828125</ele>
        <time>2020-08-10T10:28:26.000Z</time>
      </trkpt>
      <trkpt lat="42.3447530530393123626708984375" lon="1.91105221398174762725830078125">
        <ele>1739.4000244140625</ele>
        <time>2020-08-10T10:28:33.000Z</time>
      </trkpt>
      <trkpt lat="42.34474911354482173919677734375" lon="1.9110469333827495574951171875">
        <ele>1739.5999755859375</ele>
        <time>2020-08-10T10:28:34.000Z</time>
      </trkpt>
      <trkpt lat="42.3447324335575103759765625" lon="1.91096638329327106475830078125">
        <ele>1740.199951171875</ele>
        <time>2020-08-10T10:28:44.000Z</time>
      </trkpt>
      <trkpt lat="42.344731427729129791259765625" lon="1.91095883958041667938232421875">
        <ele>1740.4000244140625</ele>
        <time>2020-08-10T10:28:45.000Z</time>
      </trkpt>
      <trkpt lat="42.34475213102996349334716796875" lon="1.9108903594315052032470703125">
        <ele>1740.800048828125</ele>
        <time>2020-08-10T10:28:53.000Z</time>
      </trkpt>
      <trkpt lat="42.34476554207503795623779296875" lon="1.91087652929127216339111328125">
        <ele>1740.800048828125</ele>
        <time>2020-08-10T10:28:55.000Z</time>
      </trkpt>
      <trkpt lat="42.344787754118442535400390625" lon="1.91085373051464557647705078125">
        <ele>1741.199951171875</ele>
        <time>2020-08-10T10:28:59.000Z</time>
      </trkpt>
      <trkpt lat="42.3447966389358043670654296875" lon="1.91083663143217563629150390625">
        <ele>1741.4000244140625</ele>
        <time>2020-08-10T10:29:01.000Z</time>
      </trkpt>
      <trkpt lat="42.34481968916952610015869140625" lon="1.91079237498342990875244140625">
        <ele>1741.5999755859375</ele>
        <time>2020-08-10T10:29:07.000Z</time>
      </trkpt>
      <trkpt lat="42.34482622705399990081787109375" lon="1.91077577881515026092529296875">
        <ele>1742.199951171875</ele>
        <time>2020-08-10T10:29:16.000Z</time>
      </trkpt>
      <trkpt lat="42.34482589177787303924560546875" lon="1.9107753597199916839599609375">
        <ele>1742.4000244140625</ele>
        <time>2020-08-10T10:29:25.000Z</time>
      </trkpt>
      <trkpt lat="42.344848103821277618408203125" lon="1.91073185764253139495849609375">
        <ele>1742.4000244140625</ele>
        <time>2020-08-10T10:29:30.000Z</time>
      </trkpt>
      <trkpt lat="42.34486461617052555084228515625" lon="1.91066178493201732635498046875">
        <ele>1742.800048828125</ele>
        <time>2020-08-10T10:29:39.000Z</time>
      </trkpt>
      <trkpt lat="42.34487584792077541351318359375" lon="1.9106466136872768402099609375">
        <ele>1742.5999755859375</ele>
        <time>2020-08-10T10:29:48.000Z</time>
      </trkpt>
      <trkpt lat="42.34491884708404541015625" lon="1.9105664826929569244384765625">
        <ele>1743.199951171875</ele>
        <time>2020-08-10T10:29:54.000Z</time>
      </trkpt>
      <trkpt lat="42.344929240643978118896484375" lon="1.9105353020131587982177734375">
        <ele>1743.4000244140625</ele>
        <time>2020-08-10T10:29:56.000Z</time>
      </trkpt>
      <trkpt lat="42.34497861005365848541259765625" lon="1.91045894287526607513427734375">
        <ele>1744.199951171875</ele>
        <time>2020-08-10T10:30:02.000Z</time>
      </trkpt>
      <trkpt lat="42.3449954576790332794189453125" lon="1.91043295897543430328369140625">
        <ele>1744.5999755859375</ele>
        <time>2020-08-10T10:30:04.000Z</time>
      </trkpt>
      <trkpt lat="42.34503443352878093719482421875" lon="1.91034008748829364776611328125">
        <ele>1745.4000244140625</ele>
        <time>2020-08-10T10:30:10.000Z</time>
      </trkpt>
      <trkpt lat="42.3450417257845401763916015625" lon="1.9103242456912994384765625">
        <ele>1745.5999755859375</ele>
        <time>2020-08-10T10:30:11.000Z</time>
      </trkpt>
      <trkpt lat="42.3450930230319499969482421875" lon="1.91020647995173931121826171875">
        <ele>1746.199951171875</ele>
        <time>2020-08-10T10:30:19.000Z</time>
      </trkpt>
      <trkpt lat="42.3450987227261066436767578125" lon="1.9101928174495697021484375">
        <ele>1746.199951171875</ele>
        <time>2020-08-10T10:30:20.000Z</time>
      </trkpt>
      <trkpt lat="42.3451231978833675384521484375" lon="1.910085864365100860595703125">
        <ele>1747.199951171875</ele>
        <time>2020-08-10T10:30:27.000Z</time>
      </trkpt>
      <trkpt lat="42.3451245389878749847412109375" lon="1.91006876528263092041015625">
        <ele>1747.199951171875</ele>
        <time>2020-08-10T10:30:28.000Z</time>
      </trkpt>
      <trkpt lat="42.34513300471007823944091796875" lon="1.9099730439484119415283203125">
        <ele>1748.199951171875</ele>
        <time>2020-08-10T10:30:34.000Z</time>
      </trkpt>
      <trkpt lat="42.3451362736523151397705078125" lon="1.90995745360851287841796875">
        <ele>1748.4000244140625</ele>
        <time>2020-08-10T10:30:35.000Z</time>
      </trkpt>
      <trkpt lat="42.34516519121825695037841796875" lon="1.90976492129266262054443359375">
        <ele>1749</ele>
        <time>2020-08-10T10:30:46.000Z</time>
      </trkpt>
      <trkpt lat="42.34518161974847316741943359375" lon="1.909719072282314300537109375">
        <ele>1749.4000244140625</ele>
        <time>2020-08-10T10:30:49.000Z</time>
      </trkpt>
      <trkpt lat="42.34520726837217807769775390625" lon="1.9096268713474273681640625">
        <ele>1749.800048828125</ele>
        <time>2020-08-10T10:30:55.000Z</time>
      </trkpt>
      <trkpt lat="42.34521632082760334014892578125" lon="1.90959845669567584991455078125">
        <ele>1750.199951171875</ele>
        <time>2020-08-10T10:30:57.000Z</time>
      </trkpt>
      <trkpt lat="42.34524414874613285064697265625" lon="1.90950927324593067169189453125">
        <ele>1750.5999755859375</ele>
        <time>2020-08-10T10:31:03.000Z</time>
      </trkpt>
      <trkpt lat="42.345253117382526397705078125" lon="1.90939896740019321441650390625">
        <ele>1751.199951171875</ele>
        <time>2020-08-10T10:31:10.000Z</time>
      </trkpt>
      <trkpt lat="42.34526007436215877532958984375" lon="1.909370720386505126953125">
        <ele>1751.5999755859375</ele>
        <time>2020-08-10T10:31:12.000Z</time>
      </trkpt>
      <trkpt lat="42.34528387896716594696044921875" lon="1.90928480587899684906005859375">
        <ele>1752.4000244140625</ele>
        <time>2020-08-10T10:31:18.000Z</time>
      </trkpt>
      <trkpt lat="42.345286309719085693359375" lon="1.90927240066230297088623046875">
        <ele>1752.4000244140625</ele>
        <time>2020-08-10T10:31:19.000Z</time>
      </trkpt>
      <trkpt lat="42.34529075212776660919189453125" lon="1.90916544757783412933349609375">
        <ele>1753.4000244140625</ele>
        <time>2020-08-10T10:31:26.000Z</time>
      </trkpt>
      <trkpt lat="42.34528723172843456268310546875" lon="1.90913426689803600311279296875">
        <ele>1753.5999755859375</ele>
        <time>2020-08-10T10:31:28.000Z</time>
      </trkpt>
      <trkpt lat="42.3452710546553134918212890625" lon="1.90902848728001117706298828125">
        <ele>1754.5999755859375</ele>
        <time>2020-08-10T10:31:35.000Z</time>
      </trkpt>
      <trkpt lat="42.34525940380990505218505859375" lon="1.90898607484996318817138671875">
        <ele>1754.800048828125</ele>
        <time>2020-08-10T10:31:38.000Z</time>
      </trkpt>
      <trkpt lat="42.34523559920489788055419921875" lon="1.9089075364172458648681640625">
        <ele>1755.5999755859375</ele>
        <time>2020-08-10T10:31:44.000Z</time>
      </trkpt>
      <trkpt lat="42.34523794613778591156005859375" lon="1.9089035131037235260009765625">
        <ele>1756</ele>
        <time>2020-08-10T10:31:46.000Z</time>
      </trkpt>
      <trkpt lat="42.34522520564496517181396484375" lon="1.90887107513844966888427734375">
        <ele>1756.199951171875</ele>
        <time>2020-08-10T10:31:53.000Z</time>
      </trkpt>
      <trkpt lat="42.34521514736115932464599609375" lon="1.9088582508265972137451171875">
        <ele>1756.800048828125</ele>
        <time>2020-08-10T10:31:55.000Z</time>
      </trkpt>
      <trkpt lat="42.345202155411243438720703125" lon="1.90881374292075634002685546875">
        <ele>1757.4000244140625</ele>
        <time>2020-08-10T10:32:00.000Z</time>
      </trkpt>
      <trkpt lat="42.34519980847835540771484375" lon="1.90877401269972324371337890625">
        <ele>1757.800048828125</ele>
        <time>2020-08-10T10:32:04.000Z</time>
      </trkpt>
      <trkpt lat="42.34519721008837223052978515625" lon="1.9087429158389568328857421875">
        <ele>1758.199951171875</ele>
        <time>2020-08-10T10:32:08.000Z</time>
      </trkpt>
      <trkpt lat="42.34519972465932369232177734375" lon="1.908684074878692626953125">
        <ele>1759</ele>
        <time>2020-08-10T10:32:15.000Z</time>
      </trkpt>
      <trkpt lat="42.34519980847835540771484375" lon="1.90866018645465373992919921875">
        <ele>1759.4000244140625</ele>
        <time>2020-08-10T10:32:18.000Z</time>
      </trkpt>
      <trkpt lat="42.3451956175267696380615234375" lon="1.90864208154380321502685546875">
        <ele>1759.5999755859375</ele>
        <time>2020-08-10T10:32:25.000Z</time>
      </trkpt>
      <trkpt lat="42.34517835080623626708984375" lon="1.9086151756346225738525390625">
        <ele>1759.800048828125</ele>
        <time>2020-08-10T10:32:29.000Z</time>
      </trkpt>
      <trkpt lat="42.3451681248843669891357421875" lon="1.90859899856150150299072265625">
        <ele>1760.5999755859375</ele>
        <time>2020-08-10T10:32:33.000Z</time>
      </trkpt>
      <trkpt lat="42.34515362419188022613525390625" lon="1.9085682369768619537353515625">
        <ele>1760.800048828125</ele>
        <time>2020-08-10T10:32:38.000Z</time>
      </trkpt>
      <trkpt lat="42.34513971023261547088623046875" lon="1.90852909348905086517333984375">
        <ele>1761.5999755859375</ele>
        <time>2020-08-10T10:32:44.000Z</time>
      </trkpt>
      <trkpt lat="42.345130406320095062255859375" lon="1.9085025228559970855712890625">
        <ele>1761.800048828125</ele>
        <time>2020-08-10T10:32:48.000Z</time>
      </trkpt>
      <trkpt lat="42.3451171629130840301513671875" lon="1.908473186194896697998046875">
        <ele>1763</ele>
        <time>2020-08-10T10:32:55.000Z</time>
      </trkpt>
      <trkpt lat="42.3451198451220989227294921875" lon="1.9084740243852138519287109375">
        <ele>1762.800048828125</ele>
        <time>2020-08-10T10:33:16.000Z</time>
      </trkpt>
      <trkpt lat="42.34510861337184906005859375" lon="1.9084559194743633270263671875">
        <ele>1763.199951171875</ele>
        <time>2020-08-10T10:33:38.000Z</time>
      </trkpt>
      <trkpt lat="42.34508958645164966583251953125" lon="1.908428929746150970458984375">
        <ele>1764</ele>
        <time>2020-08-10T10:33:45.000Z</time>
      </trkpt>
      <trkpt lat="42.34508791007101535797119140625" lon="1.90842934884130954742431640625">
        <ele>1764.199951171875</ele>
        <time>2020-08-10T10:33:48.000Z</time>
      </trkpt>
      <trkpt lat="42.34508874826133251190185546875" lon="1.90842926502227783203125">
        <ele>1764.199951171875</ele>
        <time>2020-08-10T10:33:49.000Z</time>
      </trkpt>
      <trkpt lat="42.345065362751483917236328125" lon="1.9084153510630130767822265625">
        <ele>1764.5999755859375</ele>
        <time>2020-08-10T10:34:01.000Z</time>
      </trkpt>
      <trkpt lat="42.34503694809973239898681640625" lon="1.90839598886668682098388671875">
        <ele>1765.199951171875</ele>
        <time>2020-08-10T10:34:05.000Z</time>
      </trkpt>
      <trkpt lat="42.3450028337538242340087890625" lon="1.90835692919790744781494140625">
        <ele>1765.4000244140625</ele>
        <time>2020-08-10T10:34:11.000Z</time>
      </trkpt>
      <trkpt lat="42.34499319456517696380615234375" lon="1.90834284760057926177978515625">
        <ele>1766.199951171875</ele>
        <time>2020-08-10T10:34:13.000Z</time>
      </trkpt>
      <trkpt lat="42.34496645629405975341796875" lon="1.90829959698021411895751953125">
        <ele>1767.199951171875</ele>
        <time>2020-08-10T10:34:19.000Z</time>
      </trkpt>
      <trkpt lat="42.34496100805699825286865234375" lon="1.90829507075250148773193359375">
        <ele>1767.4000244140625</ele>
        <time>2020-08-10T10:34:20.000Z</time>
      </trkpt>
      <trkpt lat="42.3449300788342952728271484375" lon="1.908271014690399169921875">
        <ele>1768.199951171875</ele>
        <time>2020-08-10T10:34:26.000Z</time>
      </trkpt>
      <trkpt lat="42.34491943381726741790771484375" lon="1.90826154313981533050537109375">
        <ele>1768.5999755859375</ele>
        <time>2020-08-10T10:34:28.000Z</time>
      </trkpt>
      <trkpt lat="42.34489537775516510009765625" lon="1.9082413427531719207763671875">
        <ele>1769.4000244140625</ele>
        <time>2020-08-10T10:34:32.000Z</time>
      </trkpt>
      <trkpt lat="42.3448477685451507568359375" lon="1.90821762196719646453857421875">
        <ele>1770</ele>
        <time>2020-08-10T10:34:39.000Z</time>
      </trkpt>
      <trkpt lat="42.34482706524431705474853515625" lon="1.90821535885334014892578125">
        <ele>1770.4000244140625</ele>
        <time>2020-08-10T10:34:42.000Z</time>
      </trkpt>
      <trkpt lat="42.34477040357887744903564453125" lon="1.90820756368339061737060546875">
        <ele>1771.199951171875</ele>
        <time>2020-08-10T10:34:51.000Z</time>
      </trkpt>
      <trkpt lat="42.34471592120826244354248046875" lon="1.9081947393715381622314453125">
        <ele>1772.4000244140625</ele>
        <time>2020-08-10T10:34:59.000Z</time>
      </trkpt>
      <trkpt lat="42.3446943797171115875244140625" lon="1.90819700248539447784423828125">
        <ele>1772.800048828125</ele>
        <time>2020-08-10T10:35:02.000Z</time>
      </trkpt>
      <trkpt lat="42.3446313478052616119384765625" lon="1.90818275325000286102294921875">
        <ele>1773.5999755859375</ele>
        <time>2020-08-10T10:35:12.000Z</time>
      </trkpt>
      <trkpt lat="42.34462673775851726531982421875" lon="1.908182837069034576416015625">
        <ele>1773.800048828125</ele>
        <time>2020-08-10T10:35:13.000Z</time>
      </trkpt>
      <trkpt lat="42.34458399005234241485595703125" lon="1.90816096030175685882568359375">
        <ele>1774</ele>
        <time>2020-08-10T10:35:21.000Z</time>
      </trkpt>
      <trkpt lat="42.34458583407104015350341796875" lon="1.9081650674343109130859375">
        <ele>1774.5999755859375</ele>
        <time>2020-08-10T10:35:36.000Z</time>
      </trkpt>
      <trkpt lat="42.3445860855281352996826171875" lon="1.90816439688205718994140625">
        <ele>1774.800048828125</ele>
        <time>2020-08-10T10:35:38.000Z</time>
      </trkpt>
      <trkpt lat="42.34457376413047313690185546875" lon="1.9081685878336429595947265625">
        <ele>1774.4000244140625</ele>
        <time>2020-08-10T10:35:45.000Z</time>
      </trkpt>
      <trkpt lat="42.344524562358856201171875" lon="1.90818317234516143798828125">
        <ele>1774.4000244140625</ele>
        <time>2020-08-10T10:35:50.000Z</time>
      </trkpt>
      <trkpt lat="42.3444481194019317626953125" lon="1.9081779755651950836181640625">
        <ele>1775.5999755859375</ele>
        <time>2020-08-10T10:35:57.000Z</time>
      </trkpt>
      <trkpt lat="42.3444244824349880218505859375" lon="1.90817068330943584442138671875">
        <ele>1775.5999755859375</ele>
        <time>2020-08-10T10:35:59.000Z</time>
      </trkpt>
      <trkpt lat="42.34434342943131923675537109375" lon="1.90814084373414516448974609375">
        <ele>1776.800048828125</ele>
        <time>2020-08-10T10:36:06.000Z</time>
      </trkpt>
      <trkpt lat="42.34433303587138652801513671875" lon="1.90813346765935420989990234375">
        <ele>1777</ele>
        <time>2020-08-10T10:36:07.000Z</time>
      </trkpt>
      <trkpt lat="42.3442816548049449920654296875" lon="1.90809206105768680572509765625">
        <ele>1777.800048828125</ele>
        <time>2020-08-10T10:36:12.000Z</time>
      </trkpt>
      <trkpt lat="42.34425005502998828887939453125" lon="1.90807990729808807373046875">
        <ele>1778</ele>
        <time>2020-08-10T10:36:15.000Z</time>
      </trkpt>
      <trkpt lat="42.34416313469409942626953125" lon="1.908052079379558563232421875">
        <ele>1778.5999755859375</ele>
        <time>2020-08-10T10:36:23.000Z</time>
      </trkpt>
      <trkpt lat="42.3441517353057861328125" lon="1.90804746933281421661376953125">
        <ele>1778.800048828125</ele>
        <time>2020-08-10T10:36:24.000Z</time>
      </trkpt>
      <trkpt lat="42.344141341745853424072265625" lon="1.9080445356667041778564453125">
        <ele>1779</ele>
        <time>2020-08-10T10:36:25.000Z</time>
      </trkpt>
      <trkpt lat="42.34406523406505584716796875" lon="1.9080190546810626983642578125">
        <ele>1779.5999755859375</ele>
        <time>2020-08-10T10:36:32.000Z</time>
      </trkpt>
      <trkpt lat="42.344041429460048675537109375" lon="1.908013857901096343994140625">
        <ele>1780</ele>
        <time>2020-08-10T10:36:34.000Z</time>
      </trkpt>
      <trkpt lat="42.34397982247173786163330078125" lon="1.9079932384192943572998046875">
        <ele>1780.800048828125</ele>
        <time>2020-08-10T10:36:40.000Z</time>
      </trkpt>
      <trkpt lat="42.34396926127374172210693359375" lon="1.90799164585769176483154296875">
        <ele>1781</ele>
        <time>2020-08-10T10:36:41.000Z</time>
      </trkpt>
      <trkpt lat="42.34390807338058948516845703125" lon="1.9079801626503467559814453125">
        <ele>1782</ele>
        <time>2020-08-10T10:36:47.000Z</time>
      </trkpt>
      <trkpt lat="42.34389751218259334564208984375" lon="1.90797924064099788665771484375">
        <ele>1782.4000244140625</ele>
        <time>2020-08-10T10:36:48.000Z</time>
      </trkpt>
      <trkpt lat="42.34384370036423206329345703125" lon="1.90797991119325160980224609375">
        <ele>1782.800048828125</ele>
        <time>2020-08-10T10:36:53.000Z</time>
      </trkpt>
      <trkpt lat="42.343810088932514190673828125" lon="1.9079719483852386474609375">
        <ele>1783</ele>
        <time>2020-08-10T10:36:56.000Z</time>
      </trkpt>
      <trkpt lat="42.34374462626874446868896484375" lon="1.907972954213619232177734375">
        <ele>1784</ele>
        <time>2020-08-10T10:37:02.000Z</time>
      </trkpt>
      <trkpt lat="42.3437341488897800445556640625" lon="1.90797186456620693206787109375">
        <ele>1784</ele>
        <time>2020-08-10T10:37:03.000Z</time>
      </trkpt>
      <trkpt lat="42.34370321966707706451416015625" lon="1.90796549431979656219482421875">
        <ele>1785</ele>
        <time>2020-08-10T10:37:06.000Z</time>
      </trkpt>
      <trkpt lat="42.34362845309078693389892578125" lon="1.9079644046723842620849609375">
        <ele>1785.800048828125</ele>
        <time>2020-08-10T10:37:13.000Z</time>
      </trkpt>
      <trkpt lat="42.34361772425472736358642578125" lon="1.90796147100627422332763671875">
        <ele>1786</ele>
        <time>2020-08-10T10:37:14.000Z</time>
      </trkpt>
      <trkpt lat="42.34356123022735118865966796875" lon="1.9079322181642055511474609375">
        <ele>1786.5999755859375</ele>
        <time>2020-08-10T10:37:19.000Z</time>
      </trkpt>
      <trkpt lat="42.34352150000631809234619140625" lon="1.90791469998657703399658203125">
        <ele>1787.199951171875</ele>
        <time>2020-08-10T10:37:23.000Z</time>
      </trkpt>
      <trkpt lat="42.34346517361700534820556640625" lon="1.90789659507572650909423828125">
        <ele>1788.199951171875</ele>
        <time>2020-08-10T10:37:28.000Z</time>
      </trkpt>
      <trkpt lat="42.34339275397360324859619140625" lon="1.9078762270510196685791015625">
        <ele>1789</ele>
        <time>2020-08-10T10:37:35.000Z</time>
      </trkpt>
      <trkpt lat="42.34338252805173397064208984375" lon="1.9078752212226390838623046875">
        <ele>1789.199951171875</ele>
        <time>2020-08-10T10:37:36.000Z</time>
      </trkpt>
      <trkpt lat="42.34330759383738040924072265625" lon="1.907856948673725128173828125">
        <ele>1790.4000244140625</ele>
        <time>2020-08-10T10:37:43.000Z</time>
      </trkpt>
      <trkpt lat="42.34329803846776485443115234375" lon="1.907857619225978851318359375">
        <ele>1790.5999755859375</ele>
        <time>2020-08-10T10:37:44.000Z</time>
      </trkpt>
      <trkpt lat="42.34322276897728443145751953125" lon="1.9078581221401691436767578125">
        <ele>1791.5999755859375</ele>
        <time>2020-08-10T10:37:51.000Z</time>
      </trkpt>
      <trkpt lat="42.34320231713354587554931640625" lon="1.90785686485469341278076171875">
        <ele>1791.800048828125</ele>
        <time>2020-08-10T10:37:53.000Z</time>
      </trkpt>
      <trkpt lat="42.34316937625408172607421875" lon="1.907848902046680450439453125">
        <ele>1792.5999755859375</ele>
        <time>2020-08-10T10:37:56.000Z</time>
      </trkpt>
      <trkpt lat="42.343096621334552764892578125" lon="1.9078259356319904327392578125">
        <ele>1793.5999755859375</ele>
        <time>2020-08-10T10:38:03.000Z</time>
      </trkpt>
      <trkpt lat="42.3430176638066768646240234375" lon="1.9077960960566997528076171875">
        <ele>1793.800048828125</ele>
        <time>2020-08-10T10:38:11.000Z</time>
      </trkpt>
      <trkpt lat="42.343009449541568756103515625" lon="1.90778712742030620574951171875">
        <ele>1794</ele>
        <time>2020-08-10T10:38:12.000Z</time>
      </trkpt>
      <trkpt lat="42.34297030605375766754150390625" lon="1.907758377492427825927734375">
        <ele>1794.5999755859375</ele>
        <time>2020-08-10T10:38:16.000Z</time>
      </trkpt>
      <trkpt lat="42.34293065965175628662109375" lon="1.90773348324000835418701171875">
        <ele>1795</ele>
        <time>2020-08-10T10:38:20.000Z</time>
      </trkpt>
      <trkpt lat="42.34290962107479572296142578125" lon="1.9077256880700588226318359375">
        <ele>1795.4000244140625</ele>
        <time>2020-08-10T10:38:22.000Z</time>
      </trkpt>
      <trkpt lat="42.34288732521235942840576171875" lon="1.9077169708907604217529296875">
        <ele>1795.800048828125</ele>
        <time>2020-08-10T10:38:24.000Z</time>
      </trkpt>
      <trkpt lat="42.342843823134899139404296875" lon="1.90770079381763935089111328125">
        <ele>1796</ele>
        <time>2020-08-10T10:38:28.000Z</time>
      </trkpt>
      <trkpt lat="42.3427568189799785614013671875" lon="1.90772661007940769195556640625">
        <ele>1796.5999755859375</ele>
        <time>2020-08-10T10:38:36.000Z</time>
      </trkpt>
      <trkpt lat="42.34273728914558887481689453125" lon="1.90774236805737018585205078125">
        <ele>1796.5999755859375</ele>
        <time>2020-08-10T10:38:38.000Z</time>
      </trkpt>
      <trkpt lat="42.34271147288382053375244140625" lon="1.907768435776233673095703125">
        <ele>1797.4000244140625</ele>
        <time>2020-08-10T10:38:43.000Z</time>
      </trkpt>
      <trkpt lat="42.34270627610385417938232421875" lon="1.90777958370745182037353515625">
        <ele>1797.4000244140625</ele>
        <time>2020-08-10T10:38:52.000Z</time>
      </trkpt>
      <trkpt lat="42.34269789420068264007568359375" lon="1.90779768861830234527587890625">
        <ele>1797.5999755859375</ele>
        <time>2020-08-10T10:38:55.000Z</time>
      </trkpt>
      <trkpt lat="42.3426790349185466766357421875" lon="1.90785803832113742828369140625">
        <ele>1798.5999755859375</ele>
        <time>2020-08-10T10:39:03.000Z</time>
      </trkpt>
      <trkpt lat="42.3426729999482631683349609375" lon="1.9079298712313175201416015625">
        <ele>1799.5999755859375</ele>
        <time>2020-08-10T10:39:12.000Z</time>
      </trkpt>
      <trkpt lat="42.34266906045377254486083984375" lon="1.90800254233181476593017578125">
        <ele>1800.5999755859375</ele>
        <time>2020-08-10T10:39:22.000Z</time>
      </trkpt>
      <trkpt lat="42.34267123974859714508056640625" lon="1.90803338773548603057861328125">
        <ele>1801.4000244140625</ele>
        <time>2020-08-10T10:39:27.000Z</time>
      </trkpt>
      <trkpt lat="42.34267626889050006866455078125" lon="1.9080539233982563018798828125">
        <ele>1801.800048828125</ele>
        <time>2020-08-10T10:39:30.000Z</time>
      </trkpt>
      <trkpt lat="42.3426840640604496002197265625" lon="1.90808669663965702056884765625">
        <ele>1802</ele>
        <time>2020-08-10T10:39:36.000Z</time>
      </trkpt>
      <trkpt lat="42.342689596116542816162109375" lon="1.90811687149107456207275390625">
        <ele>1802.5999755859375</ele>
        <time>2020-08-10T10:39:41.000Z</time>
      </trkpt>
      <trkpt lat="42.342694960534572601318359375" lon="1.90813229419291019439697265625">
        <ele>1802.5999755859375</ele>
        <time>2020-08-10T10:39:43.000Z</time>
      </trkpt>
      <trkpt lat="42.3427065275609493255615234375" lon="1.90815542824566364288330078125">
        <ele>1803.5999755859375</ele>
        <time>2020-08-10T10:39:47.000Z</time>
      </trkpt>
      <trkpt lat="42.3427092097699642181396484375" lon="1.90816213376820087432861328125">
        <ele>1804</ele>
        <time>2020-08-10T10:39:53.000Z</time>
      </trkpt>
      <trkpt lat="42.34272144734859466552734375" lon="1.9081990979611873626708984375">
        <ele>1804.4000244140625</ele>
        <time>2020-08-10T10:40:00.000Z</time>
      </trkpt>
      <trkpt lat="42.342727482318878173828125" lon="1.90821443684399127960205078125">
        <ele>1804.800048828125</ele>
        <time>2020-08-10T10:40:02.000Z</time>
      </trkpt>
      <trkpt lat="42.34274600632488727569580078125" lon="1.90825483761727809906005859375">
        <ele>1806</ele>
        <time>2020-08-10T10:40:08.000Z</time>
      </trkpt>
      <trkpt lat="42.34275690279901027679443359375" lon="1.90828216262161731719970703125">
        <ele>1806.4000244140625</ele>
        <time>2020-08-10T10:40:12.000Z</time>
      </trkpt>
      <trkpt lat="42.34276997856795787811279296875" lon="1.90830596722662448883056640625">
        <ele>1806.800048828125</ele>
        <time>2020-08-10T10:40:16.000Z</time>
      </trkpt>
      <trkpt lat="42.3428034223616123199462890625" lon="1.908359527587890625">
        <ele>1807.4000244140625</ele>
        <time>2020-08-10T10:40:24.000Z</time>
      </trkpt>
      <trkpt lat="42.3428077809512615203857421875" lon="1.9083677418529987335205078125">
        <ele>1807.800048828125</ele>
        <time>2020-08-10T10:40:25.000Z</time>
      </trkpt>
      <trkpt lat="42.3428495228290557861328125" lon="1.90843773074448108673095703125">
        <ele>1808.5999755859375</ele>
        <time>2020-08-10T10:40:35.000Z</time>
      </trkpt>
      <trkpt lat="42.34285228885710239410400390625" lon="1.90844527445733547210693359375">
        <ele>1808.800048828125</ele>
        <time>2020-08-10T10:40:36.000Z</time>
      </trkpt>
      <trkpt lat="42.34286569990217685699462890625" lon="1.9085219688713550567626953125">
        <ele>1809.800048828125</ele>
        <time>2020-08-10T10:40:46.000Z</time>
      </trkpt>
      <trkpt lat="42.34286653809249401092529296875" lon="1.908534206449985504150390625">
        <ele>1810.199951171875</ele>
        <time>2020-08-10T10:40:48.000Z</time>
      </trkpt>
      <trkpt lat="42.34286469407379627227783203125" lon="1.9085729308426380157470703125">
        <ele>1810.800048828125</ele>
        <time>2020-08-10T10:40:54.000Z</time>
      </trkpt>
      <trkpt lat="42.34286083839833736419677734375" lon="1.90859983675181865692138671875">
        <ele>1811.199951171875</ele>
        <time>2020-08-10T10:40:57.000Z</time>
      </trkpt>
      <trkpt lat="42.34284818172454833984375" lon="1.90864509902894496917724609375">
        <ele>1811.800048828125</ele>
        <time>2020-08-10T10:41:02.000Z</time>
      </trkpt>
      <trkpt lat="42.3428399674594402313232421875" lon="1.90868742763996124267578125">
        <ele>1812.5999755859375</ele>
        <time>2020-08-10T10:41:07.000Z</time>
      </trkpt>
      <trkpt lat="42.34282739460468292236328125" lon="1.90873160026967525482177734375">
        <ele>1813.199951171875</ele>
        <time>2020-08-10T10:41:12.000Z</time>
      </trkpt>
      <trkpt lat="42.34281222335994243621826171875" lon="1.90876445733010768890380859375">
        <ele>1813.800048828125</ele>
        <time>2020-08-10T10:41:17.000Z</time>
      </trkpt>
      <trkpt lat="42.3427985608577728271484375" lon="1.90878055058419704437255859375">
        <ele>1814.199951171875</ele>
        <time>2020-08-10T10:41:21.000Z</time>
      </trkpt>
      <trkpt lat="42.34276729635894298553466796875" lon="1.908815167844295501708984375">
        <ele>1814.800048828125</ele>
        <time>2020-08-10T10:41:27.000Z</time>
      </trkpt>
      <trkpt lat="42.342741228640079498291015625" lon="1.908844001591205596923828125">
        <ele>1815</ele>
        <time>2020-08-10T10:41:32.000Z</time>
      </trkpt>
      <trkpt lat="42.34271231107413768768310546875" lon="1.90887451171875">
        <ele>1815.5999755859375</ele>
        <time>2020-08-10T10:41:37.000Z</time>
      </trkpt>
      <trkpt lat="42.34269353561103343963623046875" lon="1.9088833965361118316650390625">
        <ele>1816.199951171875</ele>
        <time>2020-08-10T10:41:41.000Z</time>
      </trkpt>
      <trkpt lat="42.3426679708063602447509765625" lon="1.9088961370289325714111328125">
        <ele>1816.5999755859375</ele>
        <time>2020-08-10T10:41:47.000Z</time>
      </trkpt>
      <trkpt lat="42.342643328011035919189453125" lon="1.90889789722859859466552734375">
        <ele>1817.4000244140625</ele>
        <time>2020-08-10T10:41:52.000Z</time>
      </trkpt>
      <trkpt lat="42.34261558391153812408447265625" lon="1.90889370627701282501220703125">
        <ele>1817.800048828125</ele>
        <time>2020-08-10T10:41:57.000Z</time>
      </trkpt>
      <trkpt lat="42.342593371868133544921875" lon="1.90887459553778171539306640625">
        <ele>1818.199951171875</ele>
        <time>2020-08-10T10:42:02.000Z</time>
      </trkpt>
      <trkpt lat="42.34258105047047138214111328125" lon="1.90886721946299076080322265625">
        <ele>1818.4000244140625</ele>
        <time>2020-08-10T10:42:04.000Z</time>
      </trkpt>
      <trkpt lat="42.3425720818340778350830078125" lon="1.90886177122592926025390625">
        <ele>1818.5999755859375</ele>
        <time>2020-08-10T10:42:07.000Z</time>
      </trkpt>
      <trkpt lat="42.34256596304476261138916015625" lon="1.90886269323527812957763671875">
        <ele>1819</ele>
        <time>2020-08-10T10:42:12.000Z</time>
      </trkpt>
      <trkpt lat="42.34252489171922206878662109375" lon="1.9088517129421234130859375">
        <ele>1819.199951171875</ele>
        <time>2020-08-10T10:42:19.000Z</time>
      </trkpt>
      <trkpt lat="42.34251215122640132904052734375" lon="1.90885347314178943634033203125">
        <ele>1819.4000244140625</ele>
        <time>2020-08-10T10:42:21.000Z</time>
      </trkpt>
      <trkpt lat="42.34246973879635334014892578125" lon="1.90885028801858425140380859375">
        <ele>1820.199951171875</ele>
        <time>2020-08-10T10:42:27.000Z</time>
      </trkpt>
      <trkpt lat="42.342461608350276947021484375" lon="1.90884961746633052825927734375">
        <ele>1820.4000244140625</ele>
        <time>2020-08-10T10:42:28.000Z</time>
      </trkpt>
      <trkpt lat="42.34243654645979404449462890625" lon="1.90883453004062175750732421875">
        <ele>1821.4000244140625</ele>
        <time>2020-08-10T10:42:34.000Z</time>
      </trkpt>
      <trkpt lat="42.34242782928049564361572265625" lon="1.90882832743227481842041015625">
        <ele>1821.5999755859375</ele>
        <time>2020-08-10T10:42:36.000Z</time>
      </trkpt>
      <trkpt lat="42.34240955673158168792724609375" lon="1.90878407098352909088134765625">
        <ele>1821.800048828125</ele>
        <time>2020-08-10T10:42:43.000Z</time>
      </trkpt>
      <trkpt lat="42.34239866025745868682861328125" lon="1.9087774492800235748291015625">
        <ele>1822.199951171875</ele>
        <time>2020-08-10T10:42:45.000Z</time>
      </trkpt>
      <trkpt lat="42.3423377238214015960693359375" lon="1.9087663851678371429443359375">
        <ele>1823.199951171875</ele>
        <time>2020-08-10T10:42:53.000Z</time>
      </trkpt>
      <trkpt lat="42.3422911204397678375244140625" lon="1.9087519682943820953369140625">
        <ele>1824.199951171875</ele>
        <time>2020-08-10T10:43:01.000Z</time>
      </trkpt>
      <trkpt lat="42.342283241450786590576171875" lon="1.90875121392309665679931640625">
        <ele>1824.4000244140625</ele>
        <time>2020-08-10T10:43:02.000Z</time>
      </trkpt>
      <trkpt lat="42.3422341234982013702392578125" lon="1.90874685533344745635986328125">
        <ele>1824.800048828125</ele>
        <time>2020-08-10T10:43:11.000Z</time>
      </trkpt>
      <trkpt lat="42.3422150127589702606201171875" lon="1.90873579122126102447509765625">
        <ele>1825.4000244140625</ele>
        <time>2020-08-10T10:43:14.000Z</time>
      </trkpt>
      <trkpt lat="42.3421878553926944732666015625" lon="1.90873126499354839324951171875">
        <ele>1825.800048828125</ele>
        <time>2020-08-10T10:43:18.000Z</time>
      </trkpt>
      <trkpt lat="42.34216178767383098602294921875" lon="1.90872363746166229248046875">
        <ele>1826.199951171875</ele>
        <time>2020-08-10T10:43:22.000Z</time>
      </trkpt>
      <trkpt lat="42.3421482928097248077392578125" lon="1.90871852450072765350341796875">
        <ele>1826.4000244140625</ele>
        <time>2020-08-10T10:43:24.000Z</time>
      </trkpt>
      <trkpt lat="42.34213110990822315216064453125" lon="1.90870980732142925262451171875">
        <ele>1826.800048828125</ele>
        <time>2020-08-10T10:43:27.000Z</time>
      </trkpt>
      <trkpt lat="42.3421201296150684356689453125" lon="1.90870930440723896026611328125">
        <ele>1826.800048828125</ele>
        <time>2020-08-10T10:43:31.000Z</time>
      </trkpt>
      <trkpt lat="42.342120967805385589599609375" lon="1.90870930440723896026611328125">
        <ele>1827.4000244140625</ele>
        <time>2020-08-10T10:43:35.000Z</time>
      </trkpt>
      <trkpt lat="42.3420902900397777557373046875" lon="1.90870628692209720611572265625">
        <ele>1827.5999755859375</ele>
        <time>2020-08-10T10:43:44.000Z</time>
      </trkpt>
      <trkpt lat="42.3420503921806812286376953125" lon="1.90868885256350040435791015625">
        <ele>1828.4000244140625</ele>
        <time>2020-08-10T10:43:52.000Z</time>
      </trkpt>
      <trkpt lat="42.3420369811356067657470703125" lon="1.90868365578353404998779296875">
        <ele>1828.5999755859375</ele>
        <time>2020-08-10T10:43:54.000Z</time>
      </trkpt>
      <trkpt lat="42.341997586190700531005859375" lon="1.90866739489138126373291015625">
        <ele>1829.4000244140625</ele>
        <time>2020-08-10T10:44:02.000Z</time>
      </trkpt>
      <trkpt lat="42.3419913835823535919189453125" lon="1.9086658023297786712646484375">
        <ele>1829.4000244140625</ele>
        <time>2020-08-10T10:44:03.000Z</time>
      </trkpt>
      <trkpt lat="42.34194503165781497955322265625" lon="1.9086574204266071319580078125">
        <ele>1830.4000244140625</ele>
        <time>2020-08-10T10:44:10.000Z</time>
      </trkpt>
      <trkpt lat="42.34193824231624603271484375" lon="1.90865616314113140106201171875">
        <ele>1830.4000244140625</ele>
        <time>2020-08-10T10:44:11.000Z</time>
      </trkpt>
      <trkpt lat="42.3419052176177501678466796875" lon="1.90865549258887767791748046875">
        <ele>1831.4000244140625</ele>
        <time>2020-08-10T10:44:17.000Z</time>
      </trkpt>
      <trkpt lat="42.34188258647918701171875" lon="1.908650211989879608154296875">
        <ele>1832</ele>
        <time>2020-08-10T10:44:21.000Z</time>
      </trkpt>
      <trkpt lat="42.3418549261987209320068359375" lon="1.9086487032473087310791015625">
        <ele>1832.5999755859375</ele>
        <time>2020-08-10T10:44:27.000Z</time>
      </trkpt>
      <trkpt lat="42.3418544232845306396484375" lon="1.908648870885372161865234375">
        <ele>1832.5999755859375</ele>
        <time>2020-08-10T10:44:29.000Z</time>
      </trkpt>
      <trkpt lat="42.3418314568698406219482421875" lon="1.908652223646640777587890625">
        <ele>1833</ele>
        <time>2020-08-10T10:44:36.000Z</time>
      </trkpt>
      <trkpt lat="42.341824583709239959716796875" lon="1.908652894198894500732421875">
        <ele>1833</ele>
        <time>2020-08-10T10:44:37.000Z</time>
      </trkpt>
      <trkpt lat="42.34178326092660427093505859375" lon="1.90866555087268352508544921875">
        <ele>1833.199951171875</ele>
        <time>2020-08-10T10:44:44.000Z</time>
      </trkpt>
      <trkpt lat="42.3417721129953861236572265625" lon="1.90866655670106410980224609375">
        <ele>1833.5999755859375</ele>
        <time>2020-08-10T10:44:46.000Z</time>
      </trkpt>
      <trkpt lat="42.34173883683979511260986328125" lon="1.9086497090756893157958984375">
        <ele>1834.800048828125</ele>
        <time>2020-08-10T10:44:54.000Z</time>
      </trkpt>
      <trkpt lat="42.34173213131725788116455078125" lon="1.908648200333118438720703125">
        <ele>1834.800048828125</ele>
        <time>2020-08-10T10:44:55.000Z</time>
      </trkpt>
      <trkpt lat="42.341696508228778839111328125" lon="1.9086483679711818695068359375">
        <ele>1835.4000244140625</ele>
        <time>2020-08-10T10:45:05.000Z</time>
      </trkpt>
      <trkpt lat="42.34168603084981441497802734375" lon="1.908648870885372161865234375">
        <ele>1835.5999755859375</ele>
        <time>2020-08-10T10:45:07.000Z</time>
      </trkpt>
      <trkpt lat="42.341664321720600128173828125" lon="1.90864526666700839996337890625">
        <ele>1836.4000244140625</ele>
        <time>2020-08-10T10:45:14.000Z</time>
      </trkpt>
      <trkpt lat="42.341663651168346405029296875" lon="1.9086430035531520843505859375">
        <ele>1836.5999755859375</ele>
        <time>2020-08-10T10:45:17.000Z</time>
      </trkpt>
      <trkpt lat="42.34166390262544155120849609375" lon="1.9086433388292789459228515625">
        <ele>1836.800048828125</ele>
        <time>2020-08-10T10:45:24.000Z</time>
      </trkpt>
      <trkpt lat="42.34164948575198650360107421875" lon="1.90863923169672489166259765625">
        <ele>1836.5999755859375</ele>
        <time>2020-08-10T10:45:34.000Z</time>
      </trkpt>
      <trkpt lat="42.34161562286317348480224609375" lon="1.90862934105098247528076171875">
        <ele>1837</ele>
        <time>2020-08-10T10:45:39.000Z</time>
      </trkpt>
      <trkpt lat="42.3415947519242763519287109375" lon="1.90861442126333713531494140625">
        <ele>1837.5999755859375</ele>
        <time>2020-08-10T10:45:44.000Z</time>
      </trkpt>
      <trkpt lat="42.3415749706327915191650390625" lon="1.908600591123104095458984375">
        <ele>1838.800048828125</ele>
        <time>2020-08-10T10:45:50.000Z</time>
      </trkpt>
      <trkpt lat="42.3415674269199371337890625" lon="1.90859748981893062591552734375">
        <ele>1839</ele>
        <time>2020-08-10T10:45:52.000Z</time>
      </trkpt>
      <trkpt lat="42.34156541526317596435546875" lon="1.90859463997185230255126953125">
        <ele>1839</ele>
        <time>2020-08-10T10:45:53.000Z</time>
      </trkpt>
      <trkpt lat="42.3415266908705234527587890625" lon="1.90858022309839725494384765625">
        <ele>1839.4000244140625</ele>
        <time>2020-08-10T10:46:02.000Z</time>
      </trkpt>
      <trkpt lat="42.341514788568019866943359375" lon="1.90857821144163608551025390625">
        <ele>1839.800048828125</ele>
        <time>2020-08-10T10:46:04.000Z</time>
      </trkpt>
      <trkpt lat="42.34147547744214534759521484375" lon="1.90857418812811374664306640625">
        <ele>1840.5999755859375</ele>
        <time>2020-08-10T10:46:09.000Z</time>
      </trkpt>
      <trkpt lat="42.341465838253498077392578125" lon="1.90857552923262119293212890625">
        <ele>1840.800048828125</ele>
        <time>2020-08-10T10:46:10.000Z</time>
      </trkpt>
      <trkpt lat="42.34139249660074710845947265625" lon="1.90856697969138622283935546875">
        <ele>1842</ele>
        <time>2020-08-10T10:46:20.000Z</time>
      </trkpt>
      <trkpt lat="42.34135461039841175079345703125" lon="1.908561028540134429931640625">
        <ele>1843</ele>
        <time>2020-08-10T10:46:26.000Z</time>
      </trkpt>
      <trkpt lat="42.34132342971861362457275390625" lon="1.9085618667304515838623046875">
        <ele>1843.199951171875</ele>
        <time>2020-08-10T10:46:31.000Z</time>
      </trkpt>
      <trkpt lat="42.34130113385617733001708984375" lon="1.908554993569850921630859375">
        <ele>1844.199951171875</ele>
        <time>2020-08-10T10:46:38.000Z</time>
      </trkpt>
      <trkpt lat="42.341288812458515167236328125" lon="1.908550970256328582763671875">
        <ele>1844.199951171875</ele>
        <time>2020-08-10T10:46:40.000Z</time>
      </trkpt>
      <trkpt lat="42.3412453942000865936279296875" lon="1.9085588492453098297119140625">
        <ele>1845.199951171875</ele>
        <time>2020-08-10T10:46:48.000Z</time>
      </trkpt>
      <trkpt lat="42.34123944304883480072021484375" lon="1.90855759195983409881591796875">
        <ele>1845.4000244140625</ele>
        <time>2020-08-10T10:46:49.000Z</time>
      </trkpt>
      <trkpt lat="42.341193594038486480712890625" lon="1.9085410796105861663818359375">
        <ele>1846.4000244140625</ele>
        <time>2020-08-10T10:46:56.000Z</time>
      </trkpt>
      <trkpt lat="42.3411883972585201263427734375" lon="1.90854082815349102020263671875">
        <ele>1846.4000244140625</ele>
        <time>2020-08-10T10:46:57.000Z</time>
      </trkpt>
      <trkpt lat="42.3411484993994235992431640625" lon="1.90853747539222240447998046875">
        <ele>1847.4000244140625</ele>
        <time>2020-08-10T10:47:05.000Z</time>
      </trkpt>
      <trkpt lat="42.3411089368164539337158203125" lon="1.908528506755828857421875">
        <ele>1848.4000244140625</ele>
        <time>2020-08-10T10:47:14.000Z</time>
      </trkpt>
      <trkpt lat="42.34109074808657169342041015625" lon="1.90852473489940166473388671875">
        <ele>1848.800048828125</ele>
        <time>2020-08-10T10:47:23.000Z</time>
      </trkpt>
      <trkpt lat="42.34108052216470241546630859375" lon="1.90852054394781589508056640625">
        <ele>1849</ele>
        <time>2020-08-10T10:47:25.000Z</time>
      </trkpt>
      <trkpt lat="42.3410693742334842681884765625" lon="1.90851434133946895599365234375">
        <ele>1849.199951171875</ele>
        <time>2020-08-10T10:47:27.000Z</time>
      </trkpt>
      <trkpt lat="42.34103542752563953399658203125" lon="1.90851350314915180206298828125">
        <ele>1850</ele>
        <time>2020-08-10T10:47:33.000Z</time>
      </trkpt>
      <trkpt lat="42.3410160653293132781982421875" lon="1.90851568244397640228271484375">
        <ele>1850.5999755859375</ele>
        <time>2020-08-10T10:47:36.000Z</time>
      </trkpt>
      <trkpt lat="42.34098580665886402130126953125" lon="1.9085129164159297943115234375">
        <ele>1851.199951171875</ele>
        <time>2020-08-10T10:47:42.000Z</time>
      </trkpt>
      <trkpt lat="42.3409644328057765960693359375" lon="1.9085095636546611785888671875">
        <ele>1851.5999755859375</ele>
        <time>2020-08-10T10:47:46.000Z</time>
      </trkpt>
      <trkpt lat="42.3409543745219707489013671875" lon="1.9085072167217731475830078125">
        <ele>1852.199951171875</ele>
        <time>2020-08-10T10:47:52.000Z</time>
      </trkpt>
      <trkpt lat="42.3409191705286502838134765625" lon="1.90850897692143917083740234375">
        <ele>1852.4000244140625</ele>
        <time>2020-08-10T10:48:04.000Z</time>
      </trkpt>
      <trkpt lat="42.34090366400778293609619140625" lon="1.9085115753114223480224609375">
        <ele>1852.5999755859375</ele>
        <time>2020-08-10T10:48:07.000Z</time>
      </trkpt>
      <trkpt lat="42.34084683470427989959716796875" lon="1.90848802216351032257080078125">
        <ele>1853.5999755859375</ele>
        <time>2020-08-10T10:48:17.000Z</time>
      </trkpt>
      <trkpt lat="42.34080978669226169586181640625" lon="1.90847980789840221405029296875">
        <ele>1854.4000244140625</ele>
        <time>2020-08-10T10:48:24.000Z</time>
      </trkpt>
      <trkpt lat="42.34079805202782154083251953125" lon="1.908475868403911590576171875">
        <ele>1854.800048828125</ele>
        <time>2020-08-10T10:48:26.000Z</time>
      </trkpt>
      <trkpt lat="42.34076234512031078338623046875" lon="1.90845734439790248870849609375">
        <ele>1855.800048828125</ele>
        <time>2020-08-10T10:48:32.000Z</time>
      </trkpt>
      <trkpt lat="42.34075647778809070587158203125" lon="1.90845348872244358062744140625">
        <ele>1856</ele>
        <time>2020-08-10T10:48:33.000Z</time>
      </trkpt>
      <trkpt lat="42.3406992293894290924072265625" lon="1.90843890421092510223388671875">
        <ele>1856.800048828125</ele>
        <time>2020-08-10T10:48:40.000Z</time>
      </trkpt>
      <trkpt lat="42.34069277532398700714111328125" lon="1.90843689255416393280029296875">
        <ele>1856.800048828125</ele>
        <time>2020-08-10T10:48:41.000Z</time>
      </trkpt>
      <trkpt lat="42.3406368680298328399658203125" lon="1.90840043127536773681640625">
        <ele>1857.800048828125</ele>
        <time>2020-08-10T10:48:49.000Z</time>
      </trkpt>
      <trkpt lat="42.34062789939343929290771484375" lon="1.90839498303830623626708984375">
        <ele>1858</ele>
        <time>2020-08-10T10:48:50.000Z</time>
      </trkpt>
      <trkpt lat="42.340574674308300018310546875" lon="1.9083432666957378387451171875">
        <ele>1859</ele>
        <time>2020-08-10T10:48:58.000Z</time>
      </trkpt>
      <trkpt lat="42.3405711539089679718017578125" lon="1.90833832137286663055419921875">
        <ele>1859.199951171875</ele>
        <time>2020-08-10T10:48:59.000Z</time>
      </trkpt>
      <trkpt lat="42.34053368680179119110107421875" lon="1.908309571444988250732421875">
        <ele>1859.4000244140625</ele>
        <time>2020-08-10T10:49:06.000Z</time>
      </trkpt>
      <trkpt lat="42.3405020870268344879150390625" lon="1.90829708240926265716552734375">
        <ele>1860</ele>
        <time>2020-08-10T10:49:11.000Z</time>
      </trkpt>
      <trkpt lat="42.34047082252800464630126953125" lon="1.90829993225634098052978515625">
        <ele>1860.800048828125</ele>
        <time>2020-08-10T10:49:16.000Z</time>
      </trkpt>
      <trkpt lat="42.34045791439712047576904296875" lon="1.908297501504421234130859375">
        <ele>1861</ele>
        <time>2020-08-10T10:49:18.000Z</time>
      </trkpt>
      <trkpt lat="42.3404122330248355865478515625" lon="1.90827646292746067047119140625">
        <ele>1861.800048828125</ele>
        <time>2020-08-10T10:49:25.000Z</time>
      </trkpt>
      <trkpt lat="42.3403907753527164459228515625" lon="1.90825751982629299163818359375">
        <ele>1862</ele>
        <time>2020-08-10T10:49:30.000Z</time>
      </trkpt>
      <trkpt lat="42.34037644229829311370849609375" lon="1.90824687480926513671875">
        <ele>1862.5999755859375</ele>
        <time>2020-08-10T10:49:33.000Z</time>
      </trkpt>
      <trkpt lat="42.34037292189896106719970703125" lon="1.90824511460959911346435546875">
        <ele>1863</ele>
        <time>2020-08-10T10:49:37.000Z</time>
      </trkpt>
      <trkpt lat="42.3403776995837688446044921875" lon="1.90824377350509166717529296875">
        <ele>1862.800048828125</ele>
        <time>2020-08-10T10:49:42.000Z</time>
      </trkpt>
      <trkpt lat="42.34037853777408599853515625" lon="1.90824327059090137481689453125">
        <ele>1862.800048828125</ele>
        <time>2020-08-10T10:49:50.000Z</time>
      </trkpt>
      <trkpt lat="42.34037392772734165191650390625" lon="1.90824075601994991302490234375">
        <ele>1863</ele>
        <time>2020-08-10T10:49:58.000Z</time>
      </trkpt>
      <trkpt lat="42.3403458483517169952392578125" lon="1.9082316197454929351806640625">
        <ele>1863.199951171875</ele>
        <time>2020-08-10T10:50:06.000Z</time>
      </trkpt>
      <trkpt lat="42.34029144980013370513916015625" lon="1.90819867886602878570556640625">
        <ele>1864</ele>
        <time>2020-08-10T10:50:12.000Z</time>
      </trkpt>
      <trkpt lat="42.34028172679245471954345703125" lon="1.90818962641060352325439453125">
        <ele>1864</ele>
        <time>2020-08-10T10:50:13.000Z</time>
      </trkpt>
      <trkpt lat="42.34023110009729862213134765625" lon="1.90815308131277561187744140625">
        <ele>1865</ele>
        <time>2020-08-10T10:50:19.000Z</time>
      </trkpt>
      <trkpt lat="42.34022154472768306732177734375" lon="1.90814520232379436492919921875">
        <ele>1865.199951171875</ele>
        <time>2020-08-10T10:50:20.000Z</time>
      </trkpt>
      <trkpt lat="42.3401547409594058990478515625" lon="1.90808669663965702056884765625">
        <ele>1865.800048828125</ele>
        <time>2020-08-10T10:50:26.000Z</time>
      </trkpt>
      <trkpt lat="42.34014526940882205963134765625" lon="1.90807848237454891204833984375">
        <ele>1866</ele>
        <time>2020-08-10T10:50:27.000Z</time>
      </trkpt>
      <trkpt lat="42.34006631188094615936279296875" lon="1.9080187194049358367919921875">
        <ele>1866.800048828125</ele>
        <time>2020-08-10T10:50:34.000Z</time>
      </trkpt>
      <trkpt lat="42.3400360532104969024658203125" lon="1.907989047467708587646484375">
        <ele>1867.199951171875</ele>
        <time>2020-08-10T10:50:37.000Z</time>
      </trkpt>
      <trkpt lat="42.33997218310832977294921875" lon="1.90793883986771106719970703125">
        <ele>1867.800048828125</ele>
        <time>2020-08-10T10:50:42.000Z</time>
      </trkpt>
      <trkpt lat="42.339937984943389892578125" lon="1.907890141010284423828125">
        <ele>1868.199951171875</ele>
        <time>2020-08-10T10:50:46.000Z</time>
      </trkpt>
      <trkpt lat="42.3399103246629238128662109375" lon="1.90785669721662998199462890625">
        <ele>1868.4000244140625</ele>
        <time>2020-08-10T10:50:49.000Z</time>
      </trkpt>
      <trkpt lat="42.33984771184623241424560546875" lon="1.90773130394518375396728515625">
        <ele>1869.199951171875</ele>
        <time>2020-08-10T10:50:58.000Z</time>
      </trkpt>
      <trkpt lat="42.33982306905090808868408203125" lon="1.907696016132831573486328125">
        <ele>1869.4000244140625</ele>
        <time>2020-08-10T10:51:01.000Z</time>
      </trkpt>
      <trkpt lat="42.3397617973387241363525390625" lon="1.90759040415287017822265625">
        <ele>1870.4000244140625</ele>
        <time>2020-08-10T10:51:09.000Z</time>
      </trkpt>
      <trkpt lat="42.33971812762320041656494140625" lon="1.90751932561397552490234375">
        <ele>1871.4000244140625</ele>
        <time>2020-08-10T10:51:14.000Z</time>
      </trkpt>
      <trkpt lat="42.33970287255942821502685546875" lon="1.90748956985771656036376953125">
        <ele>1871.4000244140625</ele>
        <time>2020-08-10T10:51:16.000Z</time>
      </trkpt>
      <trkpt lat="42.33967739157378673553466796875" lon="1.90744933672249317169189453125">
        <ele>1871.4000244140625</ele>
        <time>2020-08-10T10:51:19.000Z</time>
      </trkpt>
      <trkpt lat="42.33966666273772716522216796875" lon="1.90743844024837017059326171875">
        <ele>1871.5999755859375</ele>
        <time>2020-08-10T10:51:20.000Z</time>
      </trkpt>
      <trkpt lat="42.339647300541400909423828125" lon="1.90741698257625102996826171875">
        <ele>1871.800048828125</ele>
        <time>2020-08-10T10:51:22.000Z</time>
      </trkpt>
      <trkpt lat="42.33959130942821502685546875" lon="1.9073508493602275848388671875">
        <ele>1872.5999755859375</ele>
        <time>2020-08-10T10:51:28.000Z</time>
      </trkpt>
      <trkpt lat="42.33956758864223957061767578125" lon="1.90734389238059520721435546875">
        <ele>1873</ele>
        <time>2020-08-10T10:51:30.000Z</time>
      </trkpt>
      <trkpt lat="42.33953406102955341339111328125" lon="1.90733157098293304443359375">
        <ele>1873.5999755859375</ele>
        <time>2020-08-10T10:51:33.000Z</time>
      </trkpt>
      <trkpt lat="42.33952425420284271240234375" lon="1.9073277153074741363525390625">
        <ele>1874</ele>
        <time>2020-08-10T10:51:37.000Z</time>
      </trkpt>
      <trkpt lat="42.33951277099549770355224609375" lon="1.90731690265238285064697265625">
        <ele>1874</ele>
        <time>2020-08-10T10:51:44.000Z</time>
      </trkpt>
      <trkpt lat="42.339495755732059478759765625" lon="1.90728454850614070892333984375">
        <ele>1874</ele>
        <time>2020-08-10T10:51:49.000Z</time>
      </trkpt>
      <trkpt lat="42.339474968612194061279296875" lon="1.90727029927074909210205078125">
        <ele>1873.5999755859375</ele>
        <time>2020-08-10T10:55:00.000Z</time>
      </trkpt>
      <trkpt lat="42.33946214430034160614013671875" lon="1.90726208500564098358154296875">
        <ele>1873.5999755859375</ele>
        <time>2020-08-10T10:55:01.000Z</time>
      </trkpt>
      <trkpt lat="42.3393306322395801544189453125" lon="1.90717977471649646759033203125">
        <ele>1873.4000244140625</ele>
        <time>2020-08-10T10:55:10.000Z</time>
      </trkpt>
      <trkpt lat="42.33931143768131732940673828125" lon="1.907150857150554656982421875">
        <ele>1873.800048828125</ele>
        <time>2020-08-10T10:55:15.000Z</time>
      </trkpt>
      <trkpt lat="42.339302636682987213134765625" lon="1.90715244971215724945068359375">
        <ele>1874</ele>
        <time>2020-08-10T10:55:25.000Z</time>
      </trkpt>
      <trkpt lat="42.33929920010268688201904296875" lon="1.90715144388377666473388671875">
        <ele>1874</ele>
        <time>2020-08-10T10:55:30.000Z</time>
      </trkpt>
      <trkpt lat="42.3392652533948421478271484375" lon="1.90714373253285884857177734375">
        <ele>1874.199951171875</ele>
        <time>2020-08-10T10:55:33.000Z</time>
      </trkpt>
      <trkpt lat="42.339240945875644683837890625" lon="1.90713618882000446319580078125">
        <ele>1874.4000244140625</ele>
        <time>2020-08-10T10:55:35.000Z</time>
      </trkpt>
      <trkpt lat="42.3392287082970142364501953125" lon="1.9071302376687526702880859375">
        <ele>1874.5999755859375</ele>
        <time>2020-08-10T10:55:36.000Z</time>
      </trkpt>
      <trkpt lat="42.33917648904025554656982421875" lon="1.9071124680340290069580078125">
        <ele>1875.4000244140625</ele>
        <time>2020-08-10T10:55:40.000Z</time>
      </trkpt>
      <trkpt lat="42.3391641676425933837890625" lon="1.90710735507309436798095703125">
        <ele>1875.5999755859375</ele>
        <time>2020-08-10T10:55:41.000Z</time>
      </trkpt>
      <trkpt lat="42.33908864669501781463623046875" lon="1.90708346664905548095703125">
        <ele>1876.4000244140625</ele>
        <time>2020-08-10T10:55:47.000Z</time>
      </trkpt>
      <trkpt lat="42.33907590620219707489013671875" lon="1.90707768313586711883544921875">
        <ele>1876.5999755859375</ele>
        <time>2020-08-10T10:55:48.000Z</time>
      </trkpt>
      <trkpt lat="42.338975407183170318603515625" lon="1.90700006671249866485595703125">
        <ele>1877.800048828125</ele>
        <time>2020-08-10T10:55:57.000Z</time>
      </trkpt>
      <trkpt lat="42.33890332281589508056640625" lon="1.90692245028913021087646484375">
        <ele>1878.4000244140625</ele>
        <time>2020-08-10T10:56:05.000Z</time>
      </trkpt>
      <trkpt lat="42.3388766683638095855712890625" lon="1.906875930726528167724609375">
        <ele>1878.5999755859375</ele>
        <time>2020-08-10T10:56:09.000Z</time>
      </trkpt>
      <trkpt lat="42.338858731091022491455078125" lon="1.90685279667377471923828125">
        <ele>1878.800048828125</ele>
        <time>2020-08-10T10:56:11.000Z</time>
      </trkpt>
      <trkpt lat="42.33885127119719982147216796875" lon="1.90684231929481029510498046875">
        <ele>1879</ele>
        <time>2020-08-10T10:56:12.000Z</time>
      </trkpt>
      <trkpt lat="42.3387958668172359466552734375" lon="1.90672581084072589874267578125">
        <ele>1879.5999755859375</ele>
        <time>2020-08-10T10:56:20.000Z</time>
      </trkpt>
      <trkpt lat="42.3387754149734973907470703125" lon="1.9066843204200267791748046875">
        <ele>1879.800048828125</ele>
        <time>2020-08-10T10:56:23.000Z</time>
      </trkpt>
      <trkpt lat="42.33873191289603710174560546875" lon="1.90659706480801105499267578125">
        <ele>1880.199951171875</ele>
        <time>2020-08-10T10:56:29.000Z</time>
      </trkpt>
      <trkpt lat="42.3386698029935359954833984375" lon="1.906446777284145355224609375">
        <ele>1880.800048828125</ele>
        <time>2020-08-10T10:56:38.000Z</time>
      </trkpt>
      <trkpt lat="42.33865546993911266326904296875" lon="1.90641718916594982147216796875">
        <ele>1880.800048828125</ele>
        <time>2020-08-10T10:56:40.000Z</time>
      </trkpt>
      <trkpt lat="42.3385982215404510498046875" lon="1.90631073899567127227783203125">
        <ele>1881.5999755859375</ele>
        <time>2020-08-10T10:56:47.000Z</time>
      </trkpt>
      <trkpt lat="42.33855036087334156036376953125" lon="1.9062434323132038116455078125">
        <ele>1881.800048828125</ele>
        <time>2020-08-10T10:56:52.000Z</time>
      </trkpt>
      <trkpt lat="42.33852110803127288818359375" lon="1.90620462410151958465576171875">
        <ele>1882.199951171875</ele>
        <time>2020-08-10T10:56:55.000Z</time>
      </trkpt>
      <trkpt lat="42.338513396680355072021484375" lon="1.90619104541838169097900390625">
        <ele>1882.4000244140625</ele>
        <time>2020-08-10T10:56:56.000Z</time>
      </trkpt>
      <trkpt lat="42.33848649077117443084716796875" lon="1.906153745949268341064453125">
        <ele>1883</ele>
        <time>2020-08-10T10:56:59.000Z</time>
      </trkpt>
      <trkpt lat="42.338452041149139404296875" lon="1.90610370598733425140380859375">
        <ele>1883</ele>
        <time>2020-08-10T10:57:03.000Z</time>
      </trkpt>
      <trkpt lat="42.338414154946804046630859375" lon="1.906051151454448699951171875">
        <ele>1883</ele>
        <time>2020-08-10T10:57:07.000Z</time>
      </trkpt>
      <trkpt lat="42.33836964704096317291259765625" lon="1.90598099492490291595458984375">
        <ele>1883.5999755859375</ele>
        <time>2020-08-10T10:57:12.000Z</time>
      </trkpt>
      <trkpt lat="42.33833762817084789276123046875" lon="1.90594394691288471221923828125">
        <ele>1884</ele>
        <time>2020-08-10T10:57:15.000Z</time>
      </trkpt>
      <trkpt lat="42.33825850300490856170654296875" lon="1.9058632291853427886962890625">
        <ele>1884.800048828125</ele>
        <time>2020-08-10T10:57:22.000Z</time>
      </trkpt>
      <trkpt lat="42.3382342793047428131103515625" lon="1.905845291912555694580078125">
        <ele>1885</ele>
        <time>2020-08-10T10:57:24.000Z</time>
      </trkpt>
      <trkpt lat="42.33812958933413028717041015625" lon="1.905791647732257843017578125">
        <ele>1885.5999755859375</ele>
        <time>2020-08-10T10:57:32.000Z</time>
      </trkpt>
      <trkpt lat="42.338088937103748321533203125" lon="1.90578150562942028045654296875">
        <ele>1886</ele>
        <time>2020-08-10T10:57:35.000Z</time>
      </trkpt>
      <trkpt lat="42.33794485218822956085205078125" lon="1.9057794101536273956298828125">
        <ele>1886.800048828125</ele>
        <time>2020-08-10T10:57:46.000Z</time>
      </trkpt>
      <trkpt lat="42.337931357324123382568359375" lon="1.90578301437199115753173828125">
        <ele>1887</ele>
        <time>2020-08-10T10:57:47.000Z</time>
      </trkpt>
      <trkpt lat="42.33787746168673038482666015625" lon="1.90580648370087146759033203125">
        <ele>1888.199951171875</ele>
        <time>2020-08-10T10:57:51.000Z</time>
      </trkpt>
      <trkpt lat="42.33784024603664875030517578125" lon="1.905829198658466339111328125">
        <ele>1888.800048828125</ele>
        <time>2020-08-10T10:57:54.000Z</time>
      </trkpt>
      <trkpt lat="42.33781543560326099395751953125" lon="1.9058468006551265716552734375">
        <ele>1889.199951171875</ele>
        <time>2020-08-10T10:57:56.000Z</time>
      </trkpt>
      <trkpt lat="42.3377655632793903350830078125" lon="1.9058746285736560821533203125">
        <ele>1890.199951171875</ele>
        <time>2020-08-10T10:58:01.000Z</time>
      </trkpt>
      <trkpt lat="42.33776564709842205047607421875" lon="1.9058759696781635284423828125">
        <ele>1890.4000244140625</ele>
        <time>2020-08-10T10:58:02.000Z</time>
      </trkpt>
      <trkpt lat="42.33775659464299678802490234375" lon="1.90587856806814670562744140625">
        <ele>1890.4000244140625</ele>
        <time>2020-08-10T10:58:11.000Z</time>
      </trkpt>
      <trkpt lat="42.3377219773828983306884765625" lon="1.90591326914727687835693359375">
        <ele>1891.199951171875</ele>
        <time>2020-08-10T10:58:18.000Z</time>
      </trkpt>
      <trkpt lat="42.3377102427184581756591796875" lon="1.90592282451689243316650390625">
        <ele>1891.5999755859375</ele>
        <time>2020-08-10T10:58:20.000Z</time>
      </trkpt>
      <trkpt lat="42.3376809060573577880859375" lon="1.90593858249485492706298828125">
        <ele>1892.199951171875</ele>
        <time>2020-08-10T10:58:26.000Z</time>
      </trkpt>
      <trkpt lat="42.33767126686871051788330078125" lon="1.905951909720897674560546875">
        <ele>1892.5999755859375</ele>
        <time>2020-08-10T10:58:29.000Z</time>
      </trkpt>
      <trkpt lat="42.33764846809208393096923828125" lon="1.90597864799201488494873046875">
        <ele>1893.199951171875</ele>
        <time>2020-08-10T10:58:34.000Z</time>
      </trkpt>
      <trkpt lat="42.3376281000673770904541015625" lon="1.90599859692156314849853515625">
        <ele>1893.800048828125</ele>
        <time>2020-08-10T10:58:38.000Z</time>
      </trkpt>
      <trkpt lat="42.33757839538156986236572265625" lon="1.90602256916463375091552734375">
        <ele>1894.4000244140625</ele>
        <time>2020-08-10T10:58:45.000Z</time>
      </trkpt>
      <trkpt lat="42.33756414614617824554443359375" lon="1.90603262744843959808349609375">
        <ele>1894.800048828125</ele>
        <time>2020-08-10T10:58:47.000Z</time>
      </trkpt>
      <trkpt lat="42.33752709813416004180908203125" lon="1.906065233051776885986328125">
        <ele>1895.4000244140625</ele>
        <time>2020-08-10T10:58:53.000Z</time>
      </trkpt>
      <trkpt lat="42.33751201070845127105712890625" lon="1.90607772208750247955322265625">
        <ele>1895.5999755859375</ele>
        <time>2020-08-10T10:58:56.000Z</time>
      </trkpt>
      <trkpt lat="42.33748435042798519134521484375" lon="1.906107477843761444091796875">
        <ele>1896.4000244140625</ele>
        <time>2020-08-10T10:59:02.000Z</time>
      </trkpt>
      <trkpt lat="42.33746507205069065093994140625" lon="1.9061257503926753997802734375">
        <ele>1897</ele>
        <time>2020-08-10T10:59:06.000Z</time>
      </trkpt>
      <trkpt lat="42.33744294382631778717041015625" lon="1.9061545841395854949951171875">
        <ele>1897.4000244140625</ele>
        <time>2020-08-10T10:59:11.000Z</time>
      </trkpt>
      <trkpt lat="42.3374125175178050994873046875" lon="1.90617310814559459686279296875">
        <ele>1897.5999755859375</ele>
        <time>2020-08-10T10:59:16.000Z</time>
      </trkpt>
      <trkpt lat="42.33738477341830730438232421875" lon="1.9062097370624542236328125">
        <ele>1898.5999755859375</ele>
        <time>2020-08-10T10:59:22.000Z</time>
      </trkpt>
      <trkpt lat="42.3373778164386749267578125" lon="1.906220801174640655517578125">
        <ele>1899</ele>
        <time>2020-08-10T10:59:24.000Z</time>
      </trkpt>
      <trkpt lat="42.337364740669727325439453125" lon="1.90623454749584197998046875">
        <ele>1899.4000244140625</ele>
        <time>2020-08-10T10:59:30.000Z</time>
      </trkpt>
      <trkpt lat="42.33736499212682247161865234375" lon="1.9062343798577785491943359375">
        <ele>1899.5999755859375</ele>
        <time>2020-08-10T10:59:31.000Z</time>
      </trkpt>
      <trkpt lat="42.33735292218625545501708984375" lon="1.90624904818832874298095703125">
        <ele>1899.4000244140625</ele>
        <time>2020-08-10T10:59:47.000Z</time>
      </trkpt>
      <trkpt lat="42.33730732463300228118896484375" lon="1.90629766322672367095947265625">
        <ele>1900.4000244140625</ele>
        <time>2020-08-10T10:59:55.000Z</time>
      </trkpt>
      <trkpt lat="42.3373053967952728271484375" lon="1.90630403347313404083251953125">
        <ele>1900.4000244140625</ele>
        <time>2020-08-10T10:59:56.000Z</time>
      </trkpt>
      <trkpt lat="42.33727949671447277069091796875" lon="1.906330771744251251220703125">
        <ele>1901.199951171875</ele>
        <time>2020-08-10T11:00:02.000Z</time>
      </trkpt>
      <trkpt lat="42.33726759441196918487548828125" lon="1.90633906982839107513427734375">
        <ele>1901.4000244140625</ele>
        <time>2020-08-10T11:00:04.000Z</time>
      </trkpt>
      <trkpt lat="42.33723389916121959686279296875" lon="1.90637360326945781707763671875">
        <ele>1902.199951171875</ele>
        <time>2020-08-10T11:00:10.000Z</time>
      </trkpt>
      <trkpt lat="42.3372220806777477264404296875" lon="1.90638248808681964874267578125">
        <ele>1902.4000244140625</ele>
        <time>2020-08-10T11:00:14.000Z</time>
      </trkpt>
      <trkpt lat="42.33722082339227199554443359375" lon="1.906377710402011871337890625">
        <ele>1902.5999755859375</ele>
        <time>2020-08-10T11:00:18.000Z</time>
      </trkpt>
      <trkpt lat="42.3372123576700687408447265625" lon="1.906391791999340057373046875">
        <ele>1902</ele>
        <time>2020-08-10T11:00:26.000Z</time>
      </trkpt>
      <trkpt lat="42.3372076638042926788330078125" lon="1.906392462551593780517578125">
        <ele>1901.800048828125</ele>
        <time>2020-08-10T11:00:38.000Z</time>
      </trkpt>
      <trkpt lat="42.33720908872783184051513671875" lon="1.906392462551593780517578125">
        <ele>1902</ele>
        <time>2020-08-10T11:00:52.000Z</time>
      </trkpt>
      <trkpt lat="42.33721009455621242523193359375" lon="1.90639078617095947265625">
        <ele>1902.199951171875</ele>
        <time>2020-08-10T11:01:08.000Z</time>
      </trkpt>
      <trkpt lat="42.3372140340507030487060546875" lon="1.90639304928481578826904296875">
        <ele>1902.199951171875</ele>
        <time>2020-08-10T11:01:20.000Z</time>
      </trkpt>
      <trkpt lat="42.33721428550779819488525390625" lon="1.906391791999340057373046875">
        <ele>1902</ele>
        <time>2020-08-10T11:01:30.000Z</time>
      </trkpt>
      <trkpt lat="42.3372116871178150177001953125" lon="1.90638869069516658782958984375">
        <ele>1902</ele>
        <time>2020-08-10T11:01:53.000Z</time>
      </trkpt>
      <trkpt lat="42.3372113518416881561279296875" lon="1.906388439238071441650390625">
        <ele>1902.199951171875</ele>
        <time>2020-08-10T11:02:12.000Z</time>
      </trkpt>
      <trkpt lat="42.3372106812894344329833984375" lon="1.9063872657716274261474609375">
        <ele>1902.800048828125</ele>
        <time>2020-08-10T11:02:19.000Z</time>
      </trkpt>
      <trkpt lat="42.337210178375244140625" lon="1.90638785250484943389892578125">
        <ele>1903</ele>
        <time>2020-08-10T11:02:20.000Z</time>
      </trkpt>
      <trkpt lat="42.33719877898693084716796875" lon="1.90640780143439769744873046875">
        <ele>1903.199951171875</ele>
        <time>2020-08-10T11:02:26.000Z</time>
      </trkpt>
      <trkpt lat="42.33716449700295925140380859375" lon="1.9064472801983356475830078125">
        <ele>1904</ele>
        <time>2020-08-10T11:02:32.000Z</time>
      </trkpt>
      <trkpt lat="42.33714471571147441864013671875" lon="1.906467564404010772705078125">
        <ele>1904</ele>
        <time>2020-08-10T11:02:35.000Z</time>
      </trkpt>
      <trkpt lat="42.33712560497224330902099609375" lon="1.90648893825709819793701171875">
        <ele>1904.5999755859375</ele>
        <time>2020-08-10T11:02:38.000Z</time>
      </trkpt>
      <trkpt lat="42.3370956815779209136962890625" lon="1.906514503061771392822265625">
        <ele>1905.199951171875</ele>
        <time>2020-08-10T11:02:42.000Z</time>
      </trkpt>
      <trkpt lat="42.33708688057959079742431640625" lon="1.906516849994659423828125">
        <ele>1905.199951171875</ele>
        <time>2020-08-10T11:02:43.000Z</time>
      </trkpt>
      <trkpt lat="42.33702233992516994476318359375" lon="1.90654610283672809600830078125">
        <ele>1906</ele>
        <time>2020-08-10T11:02:52.000Z</time>
      </trkpt>
      <trkpt lat="42.33701831661164760589599609375" lon="1.9065492041409015655517578125">
        <ele>1906.199951171875</ele>
        <time>2020-08-10T11:02:53.000Z</time>
      </trkpt>
      <trkpt lat="42.3369783349335193634033203125" lon="1.90657493658363819122314453125">
        <ele>1906.4000244140625</ele>
        <time>2020-08-10T11:02:59.000Z</time>
      </trkpt>
      <trkpt lat="42.33694086782634258270263671875" lon="1.90662757493555545806884765625">
        <ele>1907</ele>
        <time>2020-08-10T11:03:06.000Z</time>
      </trkpt>
      <trkpt lat="42.3369364254176616668701171875" lon="1.90663595683872699737548828125">
        <ele>1907.4000244140625</ele>
        <time>2020-08-10T11:03:07.000Z</time>
      </trkpt>
      <trkpt lat="42.3369354195892810821533203125" lon="1.90663981251418590545654296875">
        <ele>1907.4000244140625</ele>
        <time>2020-08-10T11:03:13.000Z</time>
      </trkpt>
      <trkpt lat="42.3369179852306842803955078125" lon="1.90666361711919307708740234375">
        <ele>1907.800048828125</ele>
        <time>2020-08-10T11:03:20.000Z</time>
      </trkpt>
      <trkpt lat="42.33689962886273860931396484375" lon="1.9066819734871387481689453125">
        <ele>1908.199951171875</ele>
        <time>2020-08-10T11:03:22.000Z</time>
      </trkpt>
      <trkpt lat="42.3368589766323566436767578125" lon="1.90674550831317901611328125">
        <ele>1908.800048828125</ele>
        <time>2020-08-10T11:03:27.000Z</time>
      </trkpt>
      <trkpt lat="42.33684296719729900360107421875" lon="1.90677233040332794189453125">
        <ele>1909</ele>
        <time>2020-08-10T11:03:29.000Z</time>
      </trkpt>
      <trkpt lat="42.33679904602468013763427734375" lon="1.9068368710577487945556640625">
        <ele>1910</ele>
        <time>2020-08-10T11:03:34.000Z</time>
      </trkpt>
      <trkpt lat="42.336792089045047760009765625" lon="1.90685120411217212677001953125">
        <ele>1910.199951171875</ele>
        <time>2020-08-10T11:03:35.000Z</time>
      </trkpt>
      <trkpt lat="42.336751185357570648193359375" lon="1.90691021271049976348876953125">
        <ele>1911</ele>
        <time>2020-08-10T11:03:40.000Z</time>
      </trkpt>
      <trkpt lat="42.33673618175089359283447265625" lon="1.90693552605807781219482421875">
        <ele>1911.4000244140625</ele>
        <time>2020-08-10T11:03:42.000Z</time>
      </trkpt>
      <trkpt lat="42.33672059141099452972412109375" lon="1.9069565646350383758544921875">
        <ele>1911.800048828125</ele>
        <time>2020-08-10T11:03:44.000Z</time>
      </trkpt>
      <trkpt lat="42.3367030732333660125732421875" lon="1.90697542391717433929443359375">
        <ele>1912.199951171875</ele>
        <time>2020-08-10T11:03:46.000Z</time>
      </trkpt>
      <trkpt lat="42.33669259585440158843994140625" lon="1.90698430873453617095947265625">
        <ele>1912.4000244140625</ele>
        <time>2020-08-10T11:03:47.000Z</time>
      </trkpt>
      <trkpt lat="42.33668270520865917205810546875" lon="1.9069957919418811798095703125">
        <ele>1912.4000244140625</ele>
        <time>2020-08-10T11:03:48.000Z</time>
      </trkpt>
      <trkpt lat="42.33666325919330120086669921875" lon="1.90703929401934146881103515625">
        <ele>1913</ele>
        <time>2020-08-10T11:03:51.000Z</time>
      </trkpt>
      <trkpt lat="42.33665739186108112335205078125" lon="1.90705337561666965484619140625">
        <ele>1913.199951171875</ele>
        <time>2020-08-10T11:03:52.000Z</time>
      </trkpt>
      <trkpt lat="42.33665437437593936920166015625" lon="1.90706812776625156402587890625">
        <ele>1913.4000244140625</ele>
        <time>2020-08-10T11:03:53.000Z</time>
      </trkpt>
      <trkpt lat="42.3366455733776092529296875" lon="1.90719050355255603790283203125">
        <ele>1914</ele>
        <time>2020-08-10T11:04:00.000Z</time>
      </trkpt>
      <trkpt lat="42.3366400413215160369873046875" lon="1.9072412140667438507080078125">
        <ele>1914.4000244140625</ele>
        <time>2020-08-10T11:04:03.000Z</time>
      </trkpt>
      <trkpt lat="42.3366380296647548675537109375" lon="1.90729494206607341766357421875">
        <ele>1915.199951171875</ele>
        <time>2020-08-10T11:04:06.000Z</time>
      </trkpt>
      <trkpt lat="42.33664012514054775238037109375" lon="1.90732930786907672882080078125">
        <ele>1915.199951171875</ele>
        <time>2020-08-10T11:04:08.000Z</time>
      </trkpt>
      <trkpt lat="42.336638532578945159912109375" lon="1.90736400894820690155029296875">
        <ele>1915.5999755859375</ele>
        <time>2020-08-10T11:04:10.000Z</time>
      </trkpt>
      <trkpt lat="42.33664666302502155303955078125" lon="1.90739619545638561248779296875">
        <ele>1916.199951171875</ele>
        <time>2020-08-10T11:04:12.000Z</time>
      </trkpt>
      <trkpt lat="42.3366511054337024688720703125" lon="1.90741128288209438323974609375">
        <ele>1916.5999755859375</ele>
        <time>2020-08-10T11:04:13.000Z</time>
      </trkpt>
      <trkpt lat="42.33669494278728961944580078125" lon="1.9075040705502033233642578125">
        <ele>1917.4000244140625</ele>
        <time>2020-08-10T11:04:19.000Z</time>
      </trkpt>
      <trkpt lat="42.33671690337359905242919921875" lon="1.90753298811614513397216796875">
        <ele>1917.5999755859375</ele>
        <time>2020-08-10T11:04:21.000Z</time>
      </trkpt>
      <trkpt lat="42.33673668466508388519287109375" lon="1.90756098367273807525634765625">
        <ele>1918</ele>
        <time>2020-08-10T11:04:23.000Z</time>
      </trkpt>
      <trkpt lat="42.3367496766149997711181640625" lon="1.9075929187238216400146484375">
        <ele>1918.5999755859375</ele>
        <time>2020-08-10T11:04:25.000Z</time>
      </trkpt>
      <trkpt lat="42.33676803298294544219970703125" lon="1.907643713057041168212890625">
        <ele>1919</ele>
        <time>2020-08-10T11:04:28.000Z</time>
      </trkpt>
      <trkpt lat="42.336781360208988189697265625" lon="1.90769526176154613494873046875">
        <ele>1919.5999755859375</ele>
        <time>2020-08-10T11:04:31.000Z</time>
      </trkpt>
      <trkpt lat="42.3367957770824432373046875" lon="1.90776248462498188018798828125">
        <ele>1920.800048828125</ele>
        <time>2020-08-10T11:04:35.000Z</time>
      </trkpt>
      <trkpt lat="42.33680491335690021514892578125" lon="1.9077940843999385833740234375">
        <ele>1921.199951171875</ele>
        <time>2020-08-10T11:04:37.000Z</time>
      </trkpt>
      <trkpt lat="42.3368145525455474853515625" lon="1.90784043632447719573974609375">
        <ele>1922</ele>
        <time>2020-08-10T11:04:40.000Z</time>
      </trkpt>
      <trkpt lat="42.33682134188711643218994140625" lon="1.90792425535619258880615234375">
        <ele>1923.199951171875</ele>
        <time>2020-08-10T11:04:45.000Z</time>
      </trkpt>
      <trkpt lat="42.3368200846016407012939453125" lon="1.9079409353435039520263671875">
        <ele>1923.4000244140625</ele>
        <time>2020-08-10T11:04:46.000Z</time>
      </trkpt>
      <trkpt lat="42.33681916259229183197021484375" lon="1.9080120138823986053466796875">
        <ele>1924.199951171875</ele>
        <time>2020-08-10T11:04:50.000Z</time>
      </trkpt>
      <trkpt lat="42.3368190787732601165771484375" lon="1.908101700246334075927734375">
        <ele>1925.4000244140625</ele>
        <time>2020-08-10T11:04:55.000Z</time>
      </trkpt>
      <trkpt lat="42.33682000078260898590087890625" lon="1.90817655064165592193603515625">
        <ele>1925.800048828125</ele>
        <time>2020-08-10T11:05:02.000Z</time>
      </trkpt>
      <trkpt lat="42.3368244431912899017333984375" lon="1.90817537717521190643310546875">
        <ele>1925.4000244140625</ele>
        <time>2020-08-10T11:05:11.000Z</time>
      </trkpt>
      <trkpt lat="42.3368251137435436248779296875" lon="1.90817453898489475250244140625">
        <ele>1925.4000244140625</ele>
        <time>2020-08-10T11:05:58.000Z</time>
      </trkpt>
      <trkpt lat="42.33682704158127307891845703125" lon="1.9081819988787174224853515625">
        <ele>1925.5999755859375</ele>
        <time>2020-08-10T11:06:02.000Z</time>
      </trkpt>
      <trkpt lat="42.33684212900698184967041015625" lon="1.9082508981227874755859375">
        <ele>1925.5999755859375</ele>
        <time>2020-08-10T11:06:05.000Z</time>
      </trkpt>
      <trkpt lat="42.33690775930881500244140625" lon="1.90854971297085285186767578125">
        <ele>1924.800048828125</ele>
        <time>2020-08-10T11:06:11.000Z</time>
      </trkpt>
      <trkpt lat="42.33697238378226757049560546875" lon="1.9087928719818592071533203125">
        <ele>1925</ele>
        <time>2020-08-10T11:06:17.000Z</time>
      </trkpt>
      <trkpt lat="42.3370376788079738616943359375" lon="1.9090356118977069854736328125">
        <ele>1925.800048828125</ele>
        <time>2020-08-10T11:06:26.000Z</time>
      </trkpt>
      <trkpt lat="42.3370447196066379547119140625" lon="1.9090584106743335723876953125">
        <ele>1925.800048828125</ele>
        <time>2020-08-10T11:06:27.000Z</time>
      </trkpt>
      <trkpt lat="42.33708905987441539764404296875" lon="1.9092558883130550384521484375">
        <ele>1926.5999755859375</ele>
        <time>2020-08-10T11:06:35.000Z</time>
      </trkpt>
      <trkpt lat="42.33713516034185886383056640625" lon="1.90942914225161075592041015625">
        <ele>1927.199951171875</ele>
        <time>2020-08-10T11:06:43.000Z</time>
      </trkpt>
      <trkpt lat="42.3371453024446964263916015625" lon="1.90950055606663227081298828125">
        <ele>1928.199951171875</ele>
        <time>2020-08-10T11:06:46.000Z</time>
      </trkpt>
      <trkpt lat="42.3371503315865993499755859375" lon="1.90956140868365764617919921875">
        <ele>1928.4000244140625</ele>
        <time>2020-08-10T11:06:50.000Z</time>
      </trkpt>
      <trkpt lat="42.3371526785194873809814453125" lon="1.90955839119851589202880859375">
        <ele>1928.5999755859375</ele>
        <time>2020-08-10T11:06:59.000Z</time>
      </trkpt>
      <trkpt lat="42.3371530137956142425537109375" lon="1.9095571339130401611328125">
        <ele>1928.800048828125</ele>
        <time>2020-08-10T11:07:11.000Z</time>
      </trkpt>
      <trkpt lat="42.3371526785194873809814453125" lon="1.90955654717981815338134765625">
        <ele>1929</ele>
        <time>2020-08-10T11:07:19.000Z</time>
      </trkpt>
      <trkpt lat="42.3371526785194873809814453125" lon="1.9095566309988498687744140625">
        <ele>1928.800048828125</ele>
        <time>2020-08-10T11:07:34.000Z</time>
      </trkpt>
      <trkpt lat="42.3371525108814239501953125" lon="1.9095546193420886993408203125">
        <ele>1929.199951171875</ele>
        <time>2020-08-10T11:07:51.000Z</time>
      </trkpt>
      <trkpt lat="42.3371530137956142425537109375" lon="1.909554786980152130126953125">
        <ele>1929.5999755859375</ele>
        <time>2020-08-10T11:08:23.000Z</time>
      </trkpt>
      <trkpt lat="42.337152846157550811767578125" lon="1.90955403260886669158935546875">
        <ele>1929.4000244140625</ele>
        <time>2020-08-10T11:08:43.000Z</time>
      </trkpt>
      <trkpt lat="42.33714781701564788818359375" lon="1.9095754064619541168212890625">
        <ele>1929.5999755859375</ele>
        <time>2020-08-10T11:08:58.000Z</time>
      </trkpt>
      <trkpt lat="42.33714513480663299560546875" lon="1.9096134603023529052734375">
        <ele>1929.5999755859375</ele>
        <time>2020-08-10T11:09:04.000Z</time>
      </trkpt>
      <trkpt lat="42.3371432907879352569580078125" lon="1.90964120440185070037841796875">
        <ele>1929.5999755859375</ele>
        <time>2020-08-10T11:09:10.000Z</time>
      </trkpt>
      <trkpt lat="42.3371221683919429779052734375" lon="1.9098198227584362030029296875">
        <ele>1929.199951171875</ele>
        <time>2020-08-10T11:09:17.000Z</time>
      </trkpt>
      <trkpt lat="42.337036840617656707763671875" lon="1.9099717028439044952392578125">
        <ele>1929</ele>
        <time>2020-08-10T11:09:23.000Z</time>
      </trkpt>
      <trkpt lat="42.33695629052817821502685546875" lon="1.9100439548492431640625">
        <ele>1927.800048828125</ele>
        <time>2020-08-10T11:09:26.000Z</time>
      </trkpt>
      <trkpt lat="42.33687163330614566802978515625" lon="1.91011578775942325592041015625">
        <ele>1926.800048828125</ele>
        <time>2020-08-10T11:09:30.000Z</time>
      </trkpt>
      <trkpt lat="42.33686618506908416748046875" lon="1.910118050873279571533203125">
        <ele>1926.199951171875</ele>
        <time>2020-08-10T11:09:36.000Z</time>
      </trkpt>
      <trkpt lat="42.336865179240703582763671875" lon="1.9101172126829624176025390625">
        <ele>1926.199951171875</ele>
        <time>2020-08-10T11:09:58.000Z</time>
      </trkpt>
      <trkpt lat="42.336831651628017425537109375" lon="1.9101661629974842071533203125">
        <ele>1926.4000244140625</ele>
        <time>2020-08-10T11:10:03.000Z</time>
      </trkpt>
      <trkpt lat="42.336735092103481292724609375" lon="1.9103552587330341339111328125">
        <ele>1925.5999755859375</ele>
        <time>2020-08-10T11:10:09.000Z</time>
      </trkpt>
      <trkpt lat="42.33668136410415172576904296875" lon="1.91054829396307468414306640625">
        <ele>1924.199951171875</ele>
        <time>2020-08-10T11:10:13.000Z</time>
      </trkpt>
      <trkpt lat="42.33666879124939441680908203125" lon="1.9106617011129856109619140625">
        <ele>1923.5999755859375</ele>
        <time>2020-08-10T11:10:15.000Z</time>
      </trkpt>
      <trkpt lat="42.33666711486876010894775390625" lon="1.91077225841581821441650390625">
        <ele>1923.199951171875</ele>
        <time>2020-08-10T11:10:17.000Z</time>
      </trkpt>
      <trkpt lat="42.33667247928678989410400390625" lon="1.911055147647857666015625">
        <ele>1922</ele>
        <time>2020-08-10T11:10:22.000Z</time>
      </trkpt>
      <trkpt lat="42.33667583204805850982666015625" lon="1.9111803732812404632568359375">
        <ele>1920.4000244140625</ele>
        <time>2020-08-10T11:10:24.000Z</time>
      </trkpt>
      <trkpt lat="42.33668245375156402587890625" lon="1.911478936672210693359375">
        <ele>1919.4000244140625</ele>
        <time>2020-08-10T11:10:29.000Z</time>
      </trkpt>
      <trkpt lat="42.33668647706508636474609375" lon="1.91153450869023799896240234375">
        <ele>1919.199951171875</ele>
        <time>2020-08-10T11:10:30.000Z</time>
      </trkpt>
      <trkpt lat="42.3366953618824481964111328125" lon="1.91164322197437286376953125">
        <ele>1917.800048828125</ele>
        <time>2020-08-10T11:10:32.000Z</time>
      </trkpt>
      <trkpt lat="42.33671539463102817535400390625" lon="1.9118180684745311737060546875">
        <ele>1916.800048828125</ele>
        <time>2020-08-10T11:10:35.000Z</time>
      </trkpt>
      <trkpt lat="42.33671925030648708343505859375" lon="1.91187179647386074066162109375">
        <ele>1916.4000244140625</ele>
        <time>2020-08-10T11:10:36.000Z</time>
      </trkpt>
      <trkpt lat="42.3367138020694255828857421875" lon="1.912078075110912322998046875">
        <ele>1915.199951171875</ele>
        <time>2020-08-10T11:10:40.000Z</time>
      </trkpt>
      <trkpt lat="42.33670516870915889739990234375" lon="1.9121892191469669342041015625">
        <ele>1914.199951171875</ele>
        <time>2020-08-10T11:10:42.000Z</time>
      </trkpt>
      <trkpt lat="42.3366993851959705352783203125" lon="1.91224914975464344024658203125">
        <ele>1913.800048828125</ele>
        <time>2020-08-10T11:10:43.000Z</time>
      </trkpt>
      <trkpt lat="42.3366839624941349029541015625" lon="1.91236699931323528289794921875">
        <ele>1912.800048828125</ele>
        <time>2020-08-10T11:10:45.000Z</time>
      </trkpt>
      <trkpt lat="42.3366447351872920989990234375" lon="1.9125322066247463226318359375">
        <ele>1911.5999755859375</ele>
        <time>2020-08-10T11:10:48.000Z</time>
      </trkpt>
      <trkpt lat="42.336602993309497833251953125" lon="1.91264326684176921844482421875">
        <ele>1910.5999755859375</ele>
        <time>2020-08-10T11:10:50.000Z</time>
      </trkpt>
      <trkpt lat="42.33657918870449066162109375" lon="1.912698335945606231689453125">
        <ele>1910.199951171875</ele>
        <time>2020-08-10T11:10:51.000Z</time>
      </trkpt>
      <trkpt lat="42.33644650317728519439697265625" lon="1.9129972346127033233642578125">
        <ele>1909.199951171875</ele>
        <time>2020-08-10T11:10:56.000Z</time>
      </trkpt>
      <trkpt lat="42.33641968108713626861572265625" lon="1.9130538962781429290771484375">
        <ele>1909</ele>
        <time>2020-08-10T11:10:57.000Z</time>
      </trkpt>
      <trkpt lat="42.3363191820681095123291015625" lon="1.9132735021412372589111328125">
        <ele>1908.5999755859375</ele>
        <time>2020-08-10T11:11:02.000Z</time>
      </trkpt>
      <trkpt lat="42.33613955788314342498779296875" lon="1.91351951099932193756103515625">
        <ele>1909.800048828125</ele>
        <time>2020-08-10T11:11:11.000Z</time>
      </trkpt>
      <trkpt lat="42.336121536791324615478515625" lon="1.91354884766042232513427734375">
        <ele>1910.199951171875</ele>
        <time>2020-08-10T11:11:12.000Z</time>
      </trkpt>
      <trkpt lat="42.33605909161269664764404296875" lon="1.9136637635529041290283203125">
        <ele>1911.4000244140625</ele>
        <time>2020-08-10T11:11:16.000Z</time>
      </trkpt>
      <trkpt lat="42.33603025786578655242919921875" lon="1.9137224368751049041748046875">
        <ele>1911.5999755859375</ele>
        <time>2020-08-10T11:11:18.000Z</time>
      </trkpt>
      <trkpt lat="42.33597393147647380828857421875" lon="1.91383601166307926177978515625">
        <ele>1912.800048828125</ele>
        <time>2020-08-10T11:11:22.000Z</time>
      </trkpt>
      <trkpt lat="42.33593034557998180389404296875" lon="1.91393651068210601806640625">
        <ele>1914</ele>
        <time>2020-08-10T11:11:26.000Z</time>
      </trkpt>
      <trkpt lat="42.33587485738098621368408203125" lon="1.91404924727976322174072265625">
        <ele>1915</ele>
        <time>2020-08-10T11:11:31.000Z</time>
      </trkpt>
      <trkpt lat="42.33583663590252399444580078125" lon="1.9141294620931148529052734375">
        <ele>1915.5999755859375</ele>
        <time>2020-08-10T11:11:35.000Z</time>
      </trkpt>
      <trkpt lat="42.3358038626611232757568359375" lon="1.91418117843568325042724609375">
        <ele>1916.199951171875</ele>
        <time>2020-08-10T11:11:38.000Z</time>
      </trkpt>
      <trkpt lat="42.33573806472122669219970703125" lon="1.9142823480069637298583984375">
        <ele>1917.199951171875</ele>
        <time>2020-08-10T11:11:44.000Z</time>
      </trkpt>
      <trkpt lat="42.33569850213825702667236328125" lon="1.91440111957490444183349609375">
        <ele>1918.4000244140625</ele>
        <time>2020-08-10T11:11:50.000Z</time>
      </trkpt>
      <trkpt lat="42.33569380827248096466064453125" lon="1.91442140378057956695556640625">
        <ele>1918.5999755859375</ele>
        <time>2020-08-10T11:11:51.000Z</time>
      </trkpt>
      <trkpt lat="42.33567402698099613189697265625" lon="1.914584599435329437255859375">
        <ele>1919.199951171875</ele>
        <time>2020-08-10T11:11:59.000Z</time>
      </trkpt>
      <trkpt lat="42.33567452989518642425537109375" lon="1.91465475596487522125244140625">
        <ele>1919.199951171875</ele>
        <time>2020-08-10T11:12:02.000Z</time>
      </trkpt>
      <trkpt lat="42.335699088871479034423828125" lon="1.91475148312747478485107421875">
        <ele>1919.199951171875</ele>
        <time>2020-08-10T11:12:06.000Z</time>
      </trkpt>
      <trkpt lat="42.3357924632728099822998046875" lon="1.914880312979221343994140625">
        <ele>1919.800048828125</ele>
        <time>2020-08-10T11:12:14.000Z</time>
      </trkpt>
      <trkpt lat="42.33584568835794925689697265625" lon="1.914935298264026641845703125">
        <ele>1920.199951171875</ele>
        <time>2020-08-10T11:12:18.000Z</time>
      </trkpt>
      <trkpt lat="42.33590855263173580169677734375" lon="1.91500402987003326416015625">
        <ele>1921</ele>
        <time>2020-08-10T11:12:23.000Z</time>
      </trkpt>
      <trkpt lat="42.33593336306512355804443359375" lon="1.9150333665311336517333984375">
        <ele>1921.4000244140625</ele>
        <time>2020-08-10T11:12:25.000Z</time>
      </trkpt>
      <trkpt lat="42.33600226230919361114501953125" lon="1.91509866155683994293212890625">
        <ele>1922.5999755859375</ele>
        <time>2020-08-10T11:12:30.000Z</time>
      </trkpt>
      <trkpt lat="42.336038388311862945556640625" lon="1.9151373021304607391357421875">
        <ele>1923.199951171875</ele>
        <time>2020-08-10T11:12:33.000Z</time>
      </trkpt>
      <trkpt lat="42.3360740952193737030029296875" lon="1.9151782058179378509521484375">
        <ele>1923.5999755859375</ele>
        <time>2020-08-10T11:12:36.000Z</time>
      </trkpt>
      <trkpt lat="42.33613536693155765533447265625" lon="1.91526227630674839019775390625">
        <ele>1924.5999755859375</ele>
        <time>2020-08-10T11:12:42.000Z</time>
      </trkpt>
      <trkpt lat="42.33613193035125732421875" lon="1.91537283360958099365234375">
        <ele>1925.5999755859375</ele>
        <time>2020-08-10T11:12:48.000Z</time>
      </trkpt>
      <trkpt lat="42.33612212352454662322998046875" lon="1.91538649611175060272216796875">
        <ele>1925.5999755859375</ele>
        <time>2020-08-10T11:12:49.000Z</time>
      </trkpt>
      <trkpt lat="42.33607702888548374176025390625" lon="1.9154380448162555694580078125">
        <ele>1925.5999755859375</ele>
        <time>2020-08-10T11:12:53.000Z</time>
      </trkpt>
      <trkpt lat="42.33605171553790569305419921875" lon="1.91544768400490283966064453125">
        <ele>1926.199951171875</ele>
        <time>2020-08-10T11:12:55.000Z</time>
      </trkpt>
      <trkpt lat="42.33605037443339824676513671875" lon="1.91545036621391773223876953125">
        <ele>1926</ele>
        <time>2020-08-10T11:13:01.000Z</time>
      </trkpt>
      <trkpt lat="42.33605054207146167755126953125" lon="1.91544952802360057830810546875">
        <ele>1925.800048828125</ele>
        <time>2020-08-10T11:13:19.000Z</time>
      </trkpt>
      <trkpt lat="42.33601215295493602752685546875" lon="1.91544919274747371673583984375">
        <ele>1926</ele>
        <time>2020-08-10T11:13:27.000Z</time>
      </trkpt>
      <trkpt lat="42.33589950017631053924560546875" lon="1.9154578261077404022216796875">
        <ele>1926.4000244140625</ele>
        <time>2020-08-10T11:13:34.000Z</time>
      </trkpt>
      <trkpt lat="42.33586438000202178955078125" lon="1.9154648669064044952392578125">
        <ele>1926.5999755859375</ele>
        <time>2020-08-10T11:13:36.000Z</time>
      </trkpt>
      <trkpt lat="42.335774861276149749755859375" lon="1.91550216637551784515380859375">
        <ele>1926.5999755859375</ele>
        <time>2020-08-10T11:13:41.000Z</time>
      </trkpt>
      <trkpt lat="42.33562574721872806549072265625" lon="1.915534771978855133056640625">
        <ele>1926.5999755859375</ele>
        <time>2020-08-10T11:13:48.000Z</time>
      </trkpt>
      <trkpt lat="42.33541267924010753631591796875" lon="1.91556067205965518951416015625">
        <ele>1925.5999755859375</ele>
        <time>2020-08-10T11:13:54.000Z</time>
      </trkpt>
      <trkpt lat="42.33533472754061222076416015625" lon="1.9155587442219257354736328125">
        <ele>1925.199951171875</ele>
        <time>2020-08-10T11:13:56.000Z</time>
      </trkpt>
      <trkpt lat="42.33514957129955291748046875" lon="1.91554860211908817291259765625">
        <ele>1924.199951171875</ele>
        <time>2020-08-10T11:14:01.000Z</time>
      </trkpt>
      <trkpt lat="42.3350675962865352630615234375" lon="1.9155449979007244110107421875">
        <ele>1923</ele>
        <time>2020-08-10T11:14:03.000Z</time>
      </trkpt>
      <trkpt lat="42.33492158353328704833984375" lon="1.91556201316416263580322265625">
        <ele>1921.800048828125</ele>
        <time>2020-08-10T11:14:06.000Z</time>
      </trkpt>
      <trkpt lat="42.3347648419439792633056640625" lon="1.9156009890139102935791015625">
        <ele>1920.199951171875</ele>
        <time>2020-08-10T11:14:09.000Z</time>
      </trkpt>
      <trkpt lat="42.334666438400745391845703125" lon="1.91564231179654598236083984375">
        <ele>1919</ele>
        <time>2020-08-10T11:14:11.000Z</time>
      </trkpt>
      <trkpt lat="42.33443342149257659912109375" lon="1.9157508574426174163818359375">
        <ele>1917.5999755859375</ele>
        <time>2020-08-10T11:14:16.000Z</time>
      </trkpt>
      <trkpt lat="42.33438757248222827911376953125" lon="1.91577114164829254150390625">
        <ele>1917.199951171875</ele>
        <time>2020-08-10T11:14:17.000Z</time>
      </trkpt>
      <trkpt lat="42.33425245620310306549072265625" lon="1.91584532149136066436767578125">
        <ele>1916</ele>
        <time>2020-08-10T11:14:20.000Z</time>
      </trkpt>
      <trkpt lat="42.3341710679233074188232421875" lon="1.91590483300387859344482421875">
        <ele>1914.800048828125</ele>
        <time>2020-08-10T11:14:22.000Z</time>
      </trkpt>
      <trkpt lat="42.33413276262581348419189453125" lon="1.91593651659786701202392578125">
        <ele>1914.5999755859375</ele>
        <time>2020-08-10T11:14:23.000Z</time>
      </trkpt>
      <trkpt lat="42.3339796252548694610595703125" lon="1.916076242923736572265625">
        <ele>1913.800048828125</ele>
        <time>2020-08-10T11:14:28.000Z</time>
      </trkpt>
      <trkpt lat="42.33395355753600597381591796875" lon="1.91610147245228290557861328125">
        <ele>1913.4000244140625</ele>
        <time>2020-08-10T11:14:29.000Z</time>
      </trkpt>
      <trkpt lat="42.3338186927139759063720703125" lon="1.916169784963130950927734375">
        <ele>1912.199951171875</ele>
        <time>2020-08-10T11:14:33.000Z</time>
      </trkpt>
      <trkpt lat="42.33378089033067226409912109375" lon="1.91618277691304683685302734375">
        <ele>1912</ele>
        <time>2020-08-10T11:14:34.000Z</time>
      </trkpt>
      <trkpt lat="42.3337067104876041412353515625" lon="1.91620205529034137725830078125">
        <ele>1910.800048828125</ele>
        <time>2020-08-10T11:14:36.000Z</time>
      </trkpt>
      <trkpt lat="42.33361400663852691650390625" lon="1.91622988320887088775634765625">
        <ele>1909.4000244140625</ele>
        <time>2020-08-10T11:14:39.000Z</time>
      </trkpt>
      <trkpt lat="42.33358525671064853668212890625" lon="1.9162400253117084503173828125">
        <ele>1909.199951171875</ele>
        <time>2020-08-10T11:14:40.000Z</time>
      </trkpt>
      <trkpt lat="42.3335142619907855987548828125" lon="1.91625486128032207489013671875">
        <ele>1908.5999755859375</ele>
        <time>2020-08-10T11:14:42.000Z</time>
      </trkpt>
      <trkpt lat="42.33343404717743396759033203125" lon="1.9162923283874988555908203125">
        <ele>1908.199951171875</ele>
        <time>2020-08-10T11:14:44.000Z</time>
      </trkpt>
      <trkpt lat="42.3333523236215114593505859375" lon="1.91634085960686206817626953125">
        <ele>1907</ele>
        <time>2020-08-10T11:14:46.000Z</time>
      </trkpt>
      <trkpt lat="42.33331586234271526336669921875" lon="1.916369609534740447998046875">
        <ele>1906.5999755859375</ele>
        <time>2020-08-10T11:14:47.000Z</time>
      </trkpt>
      <trkpt lat="42.3332812450826168060302734375" lon="1.916397772729396820068359375">
        <ele>1905.800048828125</ele>
        <time>2020-08-10T11:14:48.000Z</time>
      </trkpt>
      <trkpt lat="42.33320371247828006744384765625" lon="1.91645066253840923309326171875">
        <ele>1905.199951171875</ele>
        <time>2020-08-10T11:14:50.000Z</time>
      </trkpt>
      <trkpt lat="42.33308963477611541748046875" lon="1.91654068417847156524658203125">
        <ele>1904.5999755859375</ele>
        <time>2020-08-10T11:14:53.000Z</time>
      </trkpt>
      <trkpt lat="42.33302660286426544189453125" lon="1.91659726202487945556640625">
        <ele>1903.800048828125</ele>
        <time>2020-08-10T11:14:55.000Z</time>
      </trkpt>
      <trkpt lat="42.33299441635608673095703125" lon="1.91662265919148921966552734375">
        <ele>1903.4000244140625</ele>
        <time>2020-08-10T11:14:56.000Z</time>
      </trkpt>
      <trkpt lat="42.33288737945258617401123046875" lon="1.91674486733973026275634765625">
        <ele>1902.199951171875</ele>
        <time>2020-08-10T11:15:00.000Z</time>
      </trkpt>
      <trkpt lat="42.33286391012370586395263671875" lon="1.91677093505859375">
        <ele>1902.199951171875</ele>
        <time>2020-08-10T11:15:01.000Z</time>
      </trkpt>
      <trkpt lat="42.332772128283977508544921875" lon="1.91695240326225757598876953125">
        <ele>1900.4000244140625</ele>
        <time>2020-08-10T11:15:05.000Z</time>
      </trkpt>
      <trkpt lat="42.33274631202220916748046875" lon="1.917002610862255096435546875">
        <ele>1899.4000244140625</ele>
        <time>2020-08-10T11:15:06.000Z</time>
      </trkpt>
      <trkpt lat="42.3326985351741313934326171875" lon="1.91709808073937892913818359375">
        <ele>1898</ele>
        <time>2020-08-10T11:15:08.000Z</time>
      </trkpt>
      <trkpt lat="42.33257607556879520416259765625" lon="1.91735087893903255462646484375">
        <ele>1896.800048828125</ele>
        <time>2020-08-10T11:15:13.000Z</time>
      </trkpt>
      <trkpt lat="42.33252595178782939910888671875" lon="1.9174696505069732666015625">
        <ele>1896</ele>
        <time>2020-08-10T11:15:15.000Z</time>
      </trkpt>
      <trkpt lat="42.33250147663056850433349609375" lon="1.91752371378242969512939453125">
        <ele>1896</ele>
        <time>2020-08-10T11:15:16.000Z</time>
      </trkpt>
      <trkpt lat="42.33245638199150562286376953125" lon="1.9176171720027923583984375">
        <ele>1895.5999755859375</ele>
        <time>2020-08-10T11:15:18.000Z</time>
      </trkpt>
      <trkpt lat="42.332416065037250518798828125" lon="1.9176857359707355499267578125">
        <ele>1895.5999755859375</ele>
        <time>2020-08-10T11:15:20.000Z</time>
      </trkpt>
      <trkpt lat="42.33232428319752216339111328125" lon="1.91780534572899341583251953125">
        <ele>1895</ele>
        <time>2020-08-10T11:15:24.000Z</time>
      </trkpt>
      <trkpt lat="42.33227835036814212799072265625" lon="1.9178637675940990447998046875">
        <ele>1894.800048828125</ele>
        <time>2020-08-10T11:15:26.000Z</time>
      </trkpt>
      <trkpt lat="42.33219780027866363525390625" lon="1.9179509393870830535888671875">
        <ele>1894.5999755859375</ele>
        <time>2020-08-10T11:15:29.000Z</time>
      </trkpt>
      <trkpt lat="42.33197928406298160552978515625" lon="1.91819041036069393157958984375">
        <ele>1894.800048828125</ele>
        <time>2020-08-10T11:15:37.000Z</time>
      </trkpt>
      <trkpt lat="42.331810891628265380859375" lon="1.91836458630859851837158203125">
        <ele>1894.4000244140625</ele>
        <time>2020-08-10T11:15:44.000Z</time>
      </trkpt>
      <trkpt lat="42.33172128908336162567138671875" lon="1.91847505979239940643310546875">
        <ele>1895</ele>
        <time>2020-08-10T11:15:50.000Z</time>
      </trkpt>
      <trkpt lat="42.331596314907073974609375" lon="1.91856105811893939971923828125">
        <ele>1895.4000244140625</ele>
        <time>2020-08-10T11:15:56.000Z</time>
      </trkpt>
      <trkpt lat="42.3314191214740276336669921875" lon="1.91865728236734867095947265625">
        <ele>1895.4000244140625</ele>
        <time>2020-08-10T11:16:04.000Z</time>
      </trkpt>
      <trkpt lat="42.33128291554749011993408203125" lon="1.91868779249489307403564453125">
        <ele>1895</ele>
        <time>2020-08-10T11:16:10.000Z</time>
      </trkpt>
      <trkpt lat="42.3311495594680309295654296875" lon="1.918626017868518829345703125">
        <ele>1894.5999755859375</ele>
        <time>2020-08-10T11:16:16.000Z</time>
      </trkpt>
      <trkpt lat="42.3310120962560176849365234375" lon="1.9184474833309650421142578125">
        <ele>1893.800048828125</ele>
        <time>2020-08-10T11:16:23.000Z</time>
      </trkpt>
      <trkpt lat="42.330895923078060150146484375" lon="1.9183287955820560455322265625">
        <ele>1893.5999755859375</ele>
        <time>2020-08-10T11:16:28.000Z</time>
      </trkpt>
      <trkpt lat="42.33085527084767818450927734375" lon="1.9182768277823925018310546875">
        <ele>1893.199951171875</ele>
        <time>2020-08-10T11:16:30.000Z</time>
      </trkpt>
      <trkpt lat="42.3307609744369983673095703125" lon="1.91819585859775543212890625">
        <ele>1892.5999755859375</ele>
        <time>2020-08-10T11:16:34.000Z</time>
      </trkpt>
      <trkpt lat="42.3306147940456867218017578125" lon="1.9180930964648723602294921875">
        <ele>1892</ele>
        <time>2020-08-10T11:16:40.000Z</time>
      </trkpt>
      <trkpt lat="42.33059727586805820465087890625" lon="1.91807650029659271240234375">
        <ele>1892</ele>
        <time>2020-08-10T11:16:41.000Z</time>
      </trkpt>
      <trkpt lat="42.330470122396945953369140625" lon="1.91790777258574962615966796875">
        <ele>1891.5999755859375</ele>
        <time>2020-08-10T11:16:48.000Z</time>
      </trkpt>
      <trkpt lat="42.3302634246647357940673828125" lon="1.91771314479410648345947265625">
        <ele>1891</ele>
        <time>2020-08-10T11:16:57.000Z</time>
      </trkpt>
      <trkpt lat="42.33009285293519496917724609375" lon="1.9176686368882656097412109375">
        <ele>1891.4000244140625</ele>
        <time>2020-08-10T11:17:04.000Z</time>
      </trkpt>
      <trkpt lat="42.32993803918361663818359375" lon="1.91757685504853725433349609375">
        <ele>1891.199951171875</ele>
        <time>2020-08-10T11:17:11.000Z</time>
      </trkpt>
      <trkpt lat="42.329825051128864288330078125" lon="1.91745288670063018798828125">
        <ele>1891.4000244140625</ele>
        <time>2020-08-10T11:17:17.000Z</time>
      </trkpt>
      <trkpt lat="42.32971466146409511566162109375" lon="1.917326487600803375244140625">
        <ele>1891.5999755859375</ele>
        <time>2020-08-10T11:17:24.000Z</time>
      </trkpt>
      <trkpt lat="42.3296431638300418853759765625" lon="1.91726236604154109954833984375">
        <ele>1892</ele>
        <time>2020-08-10T11:17:28.000Z</time>
      </trkpt>
      <trkpt lat="42.32959547080099582672119140625" lon="1.91721743904054164886474609375">
        <ele>1892</ele>
        <time>2020-08-10T11:17:31.000Z</time>
      </trkpt>
      <trkpt lat="42.32946102507412433624267578125" lon="1.91710931248962879180908203125">
        <ele>1892.5999755859375</ele>
        <time>2020-08-10T11:17:39.000Z</time>
      </trkpt>
      <trkpt lat="42.32941056601703166961669921875" lon="1.917068324983119964599609375">
        <ele>1893</ele>
        <time>2020-08-10T11:17:42.000Z</time>
      </trkpt>
      <trkpt lat="42.3293353803455829620361328125" lon="1.91703312098979949951171875">
        <ele>1893.5999755859375</ele>
        <time>2020-08-10T11:17:46.000Z</time>
      </trkpt>
      <trkpt lat="42.329219542443752288818359375" lon="1.9170109927654266357421875">
        <ele>1894</ele>
        <time>2020-08-10T11:17:52.000Z</time>
      </trkpt>
      <trkpt lat="42.32916397042572498321533203125" lon="1.9170175306499004364013671875">
        <ele>1894.5999755859375</ele>
        <time>2020-08-10T11:17:55.000Z</time>
      </trkpt>
      <trkpt lat="42.3290736973285675048828125" lon="1.917040161788463592529296875">
        <ele>1895.199951171875</ele>
        <time>2020-08-10T11:18:00.000Z</time>
      </trkpt>
      <trkpt lat="42.32902499847114086151123046875" lon="1.91704359836876392364501953125">
        <ele>1896</ele>
        <time>2020-08-10T11:18:03.000Z</time>
      </trkpt>
      <trkpt lat="42.32900974340736865997314453125" lon="1.9170420058071613311767578125">
        <ele>1896.199951171875</ele>
        <time>2020-08-10T11:18:04.000Z</time>
      </trkpt>
      <trkpt lat="42.32889868319034576416015625" lon="1.9170239008963108062744140625">
        <ele>1897.199951171875</ele>
        <time>2020-08-10T11:18:11.000Z</time>
      </trkpt>
      <trkpt lat="42.32888233847916126251220703125" lon="1.91702264361083507537841796875">
        <ele>1897.4000244140625</ele>
        <time>2020-08-10T11:18:12.000Z</time>
      </trkpt>
      <trkpt lat="42.32878737151622772216796875" lon="1.91701342351734638214111328125">
        <ele>1898</ele>
        <time>2020-08-10T11:18:18.000Z</time>
      </trkpt>
      <trkpt lat="42.3287074081599712371826171875" lon="1.91702364943921566009521484375">
        <ele>1898.5999755859375</ele>
        <time>2020-08-10T11:18:23.000Z</time>
      </trkpt>
      <trkpt lat="42.328677736222743988037109375" lon="1.91703177988529205322265625">
        <ele>1899.199951171875</ele>
        <time>2020-08-10T11:18:25.000Z</time>
      </trkpt>
      <trkpt lat="42.3286487348377704620361328125" lon="1.9170351326465606689453125">
        <ele>1899.800048828125</ele>
        <time>2020-08-10T11:18:27.000Z</time>
      </trkpt>
      <trkpt lat="42.3285800032317638397216796875" lon="1.91705248318612575531005859375">
        <ele>1900.5999755859375</ele>
        <time>2020-08-10T11:18:32.000Z</time>
      </trkpt>
      <trkpt lat="42.3285139538347721099853515625" lon="1.9170601107180118560791015625">
        <ele>1900.800048828125</ele>
        <time>2020-08-10T11:18:37.000Z</time>
      </trkpt>
      <trkpt lat="42.32845611870288848876953125" lon="1.91706438548862934112548828125">
        <ele>1901.199951171875</ele>
        <time>2020-08-10T11:18:41.000Z</time>
      </trkpt>
      <trkpt lat="42.3283781670033931732177734375" lon="1.917056925594806671142578125">
        <ele>1902</ele>
        <time>2020-08-10T11:18:46.000Z</time>
      </trkpt>
      <trkpt lat="42.3283127881586551666259765625" lon="1.91704711876809597015380859375">
        <ele>1902</ele>
        <time>2020-08-10T11:18:50.000Z</time>
      </trkpt>
      <trkpt lat="42.32818462885916233062744140625" lon="1.91702197305858135223388671875">
        <ele>1903</ele>
        <time>2020-08-10T11:18:58.000Z</time>
      </trkpt>
      <trkpt lat="42.32811103574931621551513671875" lon="1.91699163056910037994384765625">
        <ele>1903.199951171875</ele>
        <time>2020-08-10T11:19:03.000Z</time>
      </trkpt>
      <trkpt lat="42.327993772923946380615234375" lon="1.9168928079307079315185546875">
        <ele>1903.5999755859375</ele>
        <time>2020-08-10T11:19:12.000Z</time>
      </trkpt>
      <trkpt lat="42.32788522727787494659423828125" lon="1.91675006411969661712646484375">
        <ele>1903</ele>
        <time>2020-08-10T11:19:20.000Z</time>
      </trkpt>
      <trkpt lat="42.327787913382053375244140625" lon="1.91670631058514118194580078125">
        <ele>1903</ele>
        <time>2020-08-10T11:19:26.000Z</time>
      </trkpt>
      <trkpt lat="42.327722199261188507080078125" lon="1.91672039218246936798095703125">
        <ele>1903.800048828125</ele>
        <time>2020-08-10T11:19:30.000Z</time>
      </trkpt>
      <trkpt lat="42.32768833637237548828125" lon="1.91673137247562408447265625">
        <ele>1903.800048828125</ele>
        <time>2020-08-10T11:19:32.000Z</time>
      </trkpt>
      <trkpt lat="42.32759856618940830230712890625" lon="1.91678903996944427490234375">
        <ele>1904.4000244140625</ele>
        <time>2020-08-10T11:19:38.000Z</time>
      </trkpt>
      <trkpt lat="42.32756202109158039093017578125" lon="1.9168274290859699249267578125">
        <ele>1905</ele>
        <time>2020-08-10T11:19:41.000Z</time>
      </trkpt>
      <trkpt lat="42.32750770635902881622314453125" lon="1.91688518039882183074951171875">
        <ele>1905.199951171875</ele>
        <time>2020-08-10T11:19:46.000Z</time>
      </trkpt>
      <trkpt lat="42.327459342777729034423828125" lon="1.9169203005731105804443359375">
        <ele>1906</ele>
        <time>2020-08-10T11:19:50.000Z</time>
      </trkpt>
      <trkpt lat="42.3274340294301509857177734375" lon="1.91694997251033782958984375">
        <ele>1906.4000244140625</ele>
        <time>2020-08-10T11:19:52.000Z</time>
      </trkpt>
      <trkpt lat="42.32738700695335865020751953125" lon="1.9169943965971469879150390625">
        <ele>1906.800048828125</ele>
        <time>2020-08-10T11:19:56.000Z</time>
      </trkpt>
      <trkpt lat="42.32731458730995655059814453125" lon="1.91705248318612575531005859375">
        <ele>1907</ele>
        <time>2020-08-10T11:20:02.000Z</time>
      </trkpt>
      <trkpt lat="42.32730302028357982635498046875" lon="1.91706262528896331787109375">
        <ele>1907.4000244140625</ele>
        <time>2020-08-10T11:20:03.000Z</time>
      </trkpt>
      <trkpt lat="42.32722523622214794158935546875" lon="1.9171318598091602325439453125">
        <ele>1908</ele>
        <time>2020-08-10T11:20:09.000Z</time>
      </trkpt>
      <trkpt lat="42.327197156846523284912109375" lon="1.91715843044221401214599609375">
        <ele>1908.4000244140625</ele>
        <time>2020-08-10T11:20:11.000Z</time>
      </trkpt>
      <trkpt lat="42.327128089964389801025390625" lon="1.91722934134304523468017578125">
        <ele>1909</ele>
        <time>2020-08-10T11:20:16.000Z</time>
      </trkpt>
      <trkpt lat="42.32708794064819812774658203125" lon="1.91726102493703365325927734375">
        <ele>1909.5999755859375</ele>
        <time>2020-08-10T11:20:19.000Z</time>
      </trkpt>
      <trkpt lat="42.3270528204739093780517578125" lon="1.9172964803874492645263671875">
        <ele>1909.800048828125</ele>
        <time>2020-08-10T11:20:22.000Z</time>
      </trkpt>
      <trkpt lat="42.32697394676506519317626953125" lon="1.91736898384988307952880859375">
        <ele>1910.800048828125</ele>
        <time>2020-08-10T11:20:28.000Z</time>
      </trkpt>
      <trkpt lat="42.32693388126790523529052734375" lon="1.917397566139698028564453125">
        <ele>1911.199951171875</ele>
        <time>2020-08-10T11:20:31.000Z</time>
      </trkpt>
      <trkpt lat="42.32684017159044742584228515625" lon="1.91746302880346775054931640625">
        <ele>1912</ele>
        <time>2020-08-10T11:20:38.000Z</time>
      </trkpt>
      <trkpt lat="42.3267428576946258544921875" lon="1.91751382313668727874755859375">
        <ele>1913</ele>
        <time>2020-08-10T11:20:44.000Z</time>
      </trkpt>
      <trkpt lat="42.3267115093767642974853515625" lon="1.91751969046890735626220703125">
        <ele>1913.5999755859375</ele>
        <time>2020-08-10T11:20:46.000Z</time>
      </trkpt>
      <trkpt lat="42.3266075737774372100830078125" lon="1.9174580834805965423583984375">
        <ele>1913.199951171875</ele>
        <time>2020-08-10T11:20:53.000Z</time>
      </trkpt>
      <trkpt lat="42.326464913785457611083984375" lon="1.91732682287693023681640625">
        <ele>1913.199951171875</ele>
        <time>2020-08-10T11:21:02.000Z</time>
      </trkpt>
      <trkpt lat="42.32636391185224056243896484375" lon="1.917189024388790130615234375">
        <ele>1913.5999755859375</ele>
        <time>2020-08-10T11:21:10.000Z</time>
      </trkpt>
      <trkpt lat="42.3262525163590908050537109375" lon="1.917085088789463043212890625">
        <ele>1913.199951171875</ele>
        <time>2020-08-10T11:21:18.000Z</time>
      </trkpt>
      <trkpt lat="42.3261157236993312835693359375" lon="1.91700621508061885833740234375">
        <ele>1913</ele>
        <time>2020-08-10T11:21:26.000Z</time>
      </trkpt>
      <trkpt lat="42.3259940184652805328369140625" lon="1.916929520666599273681640625">
        <ele>1914.199951171875</ele>
        <time>2020-08-10T11:21:34.000Z</time>
      </trkpt>
      <trkpt lat="42.32597834430634975433349609375" lon="1.91692591644823551177978515625">
        <ele>1914.199951171875</ele>
        <time>2020-08-10T11:21:35.000Z</time>
      </trkpt>
      <trkpt lat="42.325952611863613128662109375" lon="1.91692809574306011199951171875">
        <ele>1914.199951171875</ele>
        <time>2020-08-10T11:21:37.000Z</time>
      </trkpt>
      <trkpt lat="42.3259031586349010467529296875" lon="1.91696799360215663909912109375">
        <ele>1913.800048828125</ele>
        <time>2020-08-10T11:21:40.000Z</time>
      </trkpt>
      <trkpt lat="42.32580584473907947540283203125" lon="1.9171023555099964141845703125">
        <ele>1913.199951171875</ele>
        <time>2020-08-10T11:21:44.000Z</time>
      </trkpt>
      <trkpt lat="42.32575538568198680877685546875" lon="1.9171791337430477142333984375">
        <ele>1912.4000244140625</ele>
        <time>2020-08-10T11:21:46.000Z</time>
      </trkpt>
      <trkpt lat="42.32573292218148708343505859375" lon="1.9172190316021442413330078125">
        <ele>1912</ele>
        <time>2020-08-10T11:21:47.000Z</time>
      </trkpt>
      <trkpt lat="42.32562496326863765716552734375" lon="1.91740938462316989898681640625">
        <ele>1911</ele>
        <time>2020-08-10T11:21:52.000Z</time>
      </trkpt>
      <trkpt lat="42.3255873285233974456787109375" lon="1.9174708239734172821044921875">
        <ele>1911</ele>
        <time>2020-08-10T11:21:54.000Z</time>
      </trkpt>
      <trkpt lat="42.325495295226573944091796875" lon="1.91760216839611530303955078125">
        <ele>1911</ele>
        <time>2020-08-10T11:22:00.000Z</time>
      </trkpt>
      <trkpt lat="42.325386665761470794677734375" lon="1.91772270016372203826904296875">
        <ele>1911.199951171875</ele>
        <time>2020-08-10T11:22:05.000Z</time>
      </trkpt>
      <trkpt lat="42.32532204128801822662353515625" lon="1.91777986474335193634033203125">
        <ele>1909.800048828125</ele>
        <time>2020-08-10T11:22:08.000Z</time>
      </trkpt>
      <trkpt lat="42.32522942125797271728515625" lon="1.9178366102278232574462890625">
        <ele>1908.800048828125</ele>
        <time>2020-08-10T11:22:11.000Z</time>
      </trkpt>
      <trkpt lat="42.3251937143504619598388671875" lon="1.91784842871129512786865234375">
        <ele>1908.5999755859375</ele>
        <time>2020-08-10T11:22:12.000Z</time>
      </trkpt>
      <trkpt lat="42.32505281455814838409423828125" lon="1.9178838841617107391357421875">
        <ele>1908.199951171875</ele>
        <time>2020-08-10T11:22:17.000Z</time>
      </trkpt>
      <trkpt lat="42.3249509744346141815185546875" lon="1.9179123826324939727783203125">
        <ele>1909.5999755859375</ele>
        <time>2020-08-10T11:22:22.000Z</time>
      </trkpt>
      <trkpt lat="42.32491769827902317047119140625" lon="1.91792361438274383544921875">
        <ele>1910.199951171875</ele>
        <time>2020-08-10T11:22:24.000Z</time>
      </trkpt>
      <trkpt lat="42.32487134635448455810546875" lon="1.91795236431062221527099609375">
        <ele>1910.800048828125</ele>
        <time>2020-08-10T11:22:27.000Z</time>
      </trkpt>
      <trkpt lat="42.3248175345361232757568359375" lon="1.91801707260310649871826171875">
        <ele>1911.800048828125</ele>
        <time>2020-08-10T11:22:31.000Z</time>
      </trkpt>
      <trkpt lat="42.32475978322327136993408203125" lon="1.9181658513844013214111328125">
        <ele>1912.4000244140625</ele>
        <time>2020-08-10T11:22:38.000Z</time>
      </trkpt>
      <trkpt lat="42.324742265045642852783203125" lon="1.9182104431092739105224609375">
        <ele>1912.800048828125</ele>
        <time>2020-08-10T11:22:40.000Z</time>
      </trkpt>
      <trkpt lat="42.3247028701007366180419921875" lon="1.91833307035267353057861328125">
        <ele>1913.199951171875</ele>
        <time>2020-08-10T11:22:46.000Z</time>
      </trkpt>
      <trkpt lat="42.32467127032577991485595703125" lon="1.91842359490692615509033203125">
        <ele>1914</ele>
        <time>2020-08-10T11:22:51.000Z</time>
      </trkpt>
      <trkpt lat="42.32463489286601543426513671875" lon="1.91846969537436962127685546875">
        <ele>1913.800048828125</ele>
        <time>2020-08-10T11:22:54.000Z</time>
      </trkpt>
      <trkpt lat="42.3245355673134326934814453125" lon="1.91853582859039306640625">
        <ele>1914</ele>
        <time>2020-08-10T11:23:01.000Z</time>
      </trkpt>
      <trkpt lat="42.32437706552445888519287109375" lon="1.9185460545122623443603515625">
        <ele>1913.4000244140625</ele>
        <time>2020-08-10T11:23:08.000Z</time>
      </trkpt>
      <trkpt lat="42.324207164347171783447265625" lon="1.918624006211757659912109375">
        <ele>1913</ele>
        <time>2020-08-10T11:23:16.000Z</time>
      </trkpt>
      <trkpt lat="42.3241194896399974822998046875" lon="1.918683350086212158203125">
        <ele>1913.4000244140625</ele>
        <time>2020-08-10T11:23:22.000Z</time>
      </trkpt>
      <trkpt lat="42.3240510933101177215576171875" lon="1.9187928177416324615478515625">
        <ele>1913.5999755859375</ele>
        <time>2020-08-10T11:23:28.000Z</time>
      </trkpt>
      <trkpt lat="42.32401513494551181793212890625" lon="1.91897612996399402618408203125">
        <ele>1913.199951171875</ele>
        <time>2020-08-10T11:23:34.000Z</time>
      </trkpt>
      <trkpt lat="42.3240105248987674713134765625" lon="1.91912390291690826416015625">
        <ele>1912.5999755859375</ele>
        <time>2020-08-10T11:23:37.000Z</time>
      </trkpt>
      <trkpt lat="42.32401077635586261749267578125" lon="1.91929145716130733489990234375">
        <ele>1912.4000244140625</ele>
        <time>2020-08-10T11:23:41.000Z</time>
      </trkpt>
      <trkpt lat="42.3240101896226406097412109375" lon="1.9194911979138851165771484375">
        <ele>1913</ele>
        <time>2020-08-10T11:23:47.000Z</time>
      </trkpt>
      <trkpt lat="42.32401345856487751007080078125" lon="1.919680796563625335693359375">
        <ele>1912</ele>
        <time>2020-08-10T11:23:53.000Z</time>
      </trkpt>
      <trkpt lat="42.32400792650878429412841796875" lon="1.91988824866712093353271484375">
        <ele>1913</ele>
        <time>2020-08-10T11:24:00.000Z</time>
      </trkpt>
      <trkpt lat="42.32400541193783283233642578125" lon="1.92002939991652965545654296875">
        <ele>1913.4000244140625</ele>
        <time>2020-08-10T11:24:05.000Z</time>
      </trkpt>
      <trkpt lat="42.3240008018910884857177734375" lon="1.920085139572620391845703125">
        <ele>1913.800048828125</ele>
        <time>2020-08-10T11:24:07.000Z</time>
      </trkpt>
      <trkpt lat="42.32399384491145610809326171875" lon="1.9201912544667720794677734375">
        <ele>1914.4000244140625</ele>
        <time>2020-08-10T11:24:11.000Z</time>
      </trkpt>
      <trkpt lat="42.32399418018758296966552734375" lon="1.920270882546901702880859375">
        <ele>1914.800048828125</ele>
        <time>2020-08-10T11:24:14.000Z</time>
      </trkpt>
      <trkpt lat="42.3240038193762302398681640625" lon="1.920375488698482513427734375">
        <ele>1915.199951171875</ele>
        <time>2020-08-10T11:24:18.000Z</time>
      </trkpt>
      <trkpt lat="42.3240081779658794403076171875" lon="1.92045318894088268280029296875">
        <ele>1916.199951171875</ele>
        <time>2020-08-10T11:24:21.000Z</time>
      </trkpt>
      <trkpt lat="42.3240070044994354248046875" lon="1.9204764068126678466796875">
        <ele>1916.5999755859375</ele>
        <time>2020-08-10T11:24:22.000Z</time>
      </trkpt>
      <trkpt lat="42.32399694621562957763671875" lon="1.92069056443870067596435546875">
        <ele>1917</ele>
        <time>2020-08-10T11:24:31.000Z</time>
      </trkpt>
      <trkpt lat="42.3239877261221408843994140625" lon="1.92085803486406803131103515625">
        <ele>1917.4000244140625</ele>
        <time>2020-08-10T11:24:38.000Z</time>
      </trkpt>
      <trkpt lat="42.32399158179759979248046875" lon="1.92090514115989208221435546875">
        <ele>1917.800048828125</ele>
        <time>2020-08-10T11:24:40.000Z</time>
      </trkpt>
      <trkpt lat="42.32397682964801788330078125" lon="1.92109775729477405548095703125">
        <ele>1918.199951171875</ele>
        <time>2020-08-10T11:24:48.000Z</time>
      </trkpt>
      <trkpt lat="42.32397548854351043701171875" lon="1.9211219809949398040771484375">
        <ele>1918.5999755859375</ele>
        <time>2020-08-10T11:24:49.000Z</time>
      </trkpt>
      <trkpt lat="42.32395696453750133514404296875" lon="1.92124209366738796234130859375">
        <ele>1919.800048828125</ele>
        <time>2020-08-10T11:24:54.000Z</time>
      </trkpt>
      <trkpt lat="42.323949672281742095947265625" lon="1.92128953523933887481689453125">
        <ele>1919.800048828125</ele>
        <time>2020-08-10T11:24:56.000Z</time>
      </trkpt>
      <trkpt lat="42.32393584214150905609130859375" lon="1.92149170674383640289306640625">
        <ele>1920.199951171875</ele>
        <time>2020-08-10T11:25:04.000Z</time>
      </trkpt>
      <trkpt lat="42.323932237923145294189453125" lon="1.9216054491698741912841796875">
        <ele>1920.800048828125</ele>
        <time>2020-08-10T11:25:09.000Z</time>
      </trkpt>
      <trkpt lat="42.32391673140227794647216796875" lon="1.92166269756853580474853515625">
        <ele>1921.199951171875</ele>
        <time>2020-08-10T11:25:12.000Z</time>
      </trkpt>
      <trkpt lat="42.32386744581162929534912109375" lon="1.921768896281719207763671875">
        <ele>1921.800048828125</ele>
        <time>2020-08-10T11:25:18.000Z</time>
      </trkpt>
      <trkpt lat="42.32381715439260005950927734375" lon="1.92182279191911220550537109375">
        <ele>1921.800048828125</ele>
        <time>2020-08-10T11:25:22.000Z</time>
      </trkpt>
      <trkpt lat="42.3237255401909351348876953125" lon="1.92189102061092853546142578125">
        <ele>1922.800048828125</ele>
        <time>2020-08-10T11:25:28.000Z</time>
      </trkpt>
      <trkpt lat="42.3236765898764133453369140625" lon="1.92191566340625286102294921875">
        <ele>1923.199951171875</ele>
        <time>2020-08-10T11:25:31.000Z</time>
      </trkpt>
      <trkpt lat="42.32364297844469547271728515625" lon="1.92192957736551761627197265625">
        <ele>1924</ele>
        <time>2020-08-10T11:25:33.000Z</time>
      </trkpt>
      <trkpt lat="42.32354231178760528564453125" lon="1.92196813412010669708251953125">
        <ele>1924.5999755859375</ele>
        <time>2020-08-10T11:25:39.000Z</time>
      </trkpt>
      <trkpt lat="42.32341683469712734222412109375" lon="1.92202529869973659515380859375">
        <ele>1924.4000244140625</ele>
        <time>2020-08-10T11:25:47.000Z</time>
      </trkpt>
      <trkpt lat="42.32331859879195690155029296875" lon="1.9220949523150920867919921875">
        <ele>1925</ele>
        <time>2020-08-10T11:25:54.000Z</time>
      </trkpt>
      <trkpt lat="42.32323922216892242431640625" lon="1.922141052782535552978515625">
        <ele>1926</ele>
        <time>2020-08-10T11:26:00.000Z</time>
      </trkpt>
      <trkpt lat="42.3232122324407100677490234375" lon="1.92215924151241779327392578125">
        <ele>1926.5999755859375</ele>
        <time>2020-08-10T11:26:02.000Z</time>
      </trkpt>
      <trkpt lat="42.3230844922363758087158203125" lon="1.92222160287201404571533203125">
        <ele>1927.199951171875</ele>
        <time>2020-08-10T11:26:11.000Z</time>
      </trkpt>
      <trkpt lat="42.32306797988712787628173828125" lon="1.92222545854747295379638671875">
        <ele>1927.4000244140625</ele>
        <time>2020-08-10T11:26:12.000Z</time>
      </trkpt>
      <trkpt lat="42.32294510118663311004638671875" lon="1.92227625288069248199462890625">
        <ele>1927.5999755859375</ele>
        <time>2020-08-10T11:26:20.000Z</time>
      </trkpt>
      <trkpt lat="42.32283781282603740692138671875" lon="1.92229921929538249969482421875">
        <ele>1928.4000244140625</ele>
        <time>2020-08-10T11:26:27.000Z</time>
      </trkpt>
      <trkpt lat="42.3228223063051700592041015625" lon="1.922301314771175384521484375">
        <ele>1928.5999755859375</ele>
        <time>2020-08-10T11:26:28.000Z</time>
      </trkpt>
      <trkpt lat="42.322711832821369171142578125" lon="1.9223085232079029083251953125">
        <ele>1929.4000244140625</ele>
        <time>2020-08-10T11:26:35.000Z</time>
      </trkpt>
      <trkpt lat="42.3225881159305572509765625" lon="1.922289244830608367919921875">
        <ele>1930.4000244140625</ele>
        <time>2020-08-10T11:26:43.000Z</time>
      </trkpt>
      <trkpt lat="42.3225731961429119110107421875" lon="1.92228262312710285186767578125">
        <ele>1930.5999755859375</ele>
        <time>2020-08-10T11:26:44.000Z</time>
      </trkpt>
      <trkpt lat="42.32249884866178035736083984375" lon="1.9222441501915454864501953125">
        <ele>1930.800048828125</ele>
        <time>2020-08-10T11:26:49.000Z</time>
      </trkpt>
      <trkpt lat="42.3223951645195484161376953125" lon="1.92210928536951541900634765625">
        <ele>1930.5999755859375</ele>
        <time>2020-08-10T11:26:58.000Z</time>
      </trkpt>
      <trkpt lat="42.322348393499851226806640625" lon="1.9219999015331268310546875">
        <ele>1931.4000244140625</ele>
        <time>2020-08-10T11:27:03.000Z</time>
      </trkpt>
      <trkpt lat="42.3223043046891689300537109375" lon="1.9218897633254528045654296875">
        <ele>1931.5999755859375</ele>
        <time>2020-08-10T11:27:08.000Z</time>
      </trkpt>
      <trkpt lat="42.32222006656229496002197265625" lon="1.92174601368606090545654296875">
        <ele>1932.5999755859375</ele>
        <time>2020-08-10T11:27:15.000Z</time>
      </trkpt>
      <trkpt lat="42.32213951647281646728515625" lon="1.921646855771541595458984375">
        <ele>1934</ele>
        <time>2020-08-10T11:27:21.000Z</time>
      </trkpt>
      <trkpt lat="42.32209936715662479400634765625" lon="1.9216064549982547760009765625">
        <ele>1933.800048828125</ele>
        <time>2020-08-10T11:27:24.000Z</time>
      </trkpt>
      <trkpt lat="42.321968190371990203857421875" lon="1.92150168120861053466796875">
        <ele>1933.4000244140625</ele>
        <time>2020-08-10T11:27:32.000Z</time>
      </trkpt>
      <trkpt lat="42.32183399610221385955810546875" lon="1.92142616026103496551513671875">
        <ele>1933.800048828125</ele>
        <time>2020-08-10T11:27:40.000Z</time>
      </trkpt>
      <trkpt lat="42.3216971196234226226806640625" lon="1.92139933817088603973388671875">
        <ele>1934</ele>
        <time>2020-08-10T11:27:48.000Z</time>
      </trkpt>
      <trkpt lat="42.32156778685748577117919921875" lon="1.92141509614884853363037109375">
        <ele>1934.800048828125</ele>
        <time>2020-08-10T11:27:56.000Z</time>
      </trkpt>
      <trkpt lat="42.3215361870825290679931640625" lon="1.9214207120239734649658203125">
        <ele>1935</ele>
        <time>2020-08-10T11:27:58.000Z</time>
      </trkpt>
      <trkpt lat="42.3214329220354557037353515625" lon="1.9214254058897495269775390625">
        <ele>1936</ele>
        <time>2020-08-10T11:28:04.000Z</time>
      </trkpt>
      <trkpt lat="42.32132487930357456207275390625" lon="1.92140839062631130218505859375">
        <ele>1936.5999755859375</ele>
        <time>2020-08-10T11:28:11.000Z</time>
      </trkpt>
      <trkpt lat="42.32127852737903594970703125" lon="1.92140453495085239410400390625">
        <ele>1936.800048828125</ele>
        <time>2020-08-10T11:28:14.000Z</time>
      </trkpt>
      <trkpt lat="42.32114718295633792877197265625" lon="1.92136622965335845947265625">
        <ele>1937.4000244140625</ele>
        <time>2020-08-10T11:28:22.000Z</time>
      </trkpt>
      <trkpt lat="42.3211140744388103485107421875" lon="1.921359188854694366455078125">
        <ele>1938</ele>
        <time>2020-08-10T11:28:24.000Z</time>
      </trkpt>
      <trkpt lat="42.32100217603147029876708984375" lon="1.92131702788174152374267578125">
        <ele>1938.800048828125</ele>
        <time>2020-08-10T11:28:31.000Z</time>
      </trkpt>
      <trkpt lat="42.32095389626920223236083984375" lon="1.92129976116120815277099609375">
        <ele>1939.199951171875</ele>
        <time>2020-08-10T11:28:34.000Z</time>
      </trkpt>
      <trkpt lat="42.3208875954151153564453125" lon="1.9212741963565349578857421875">
        <ele>1939.5999755859375</ele>
        <time>2020-08-10T11:28:38.000Z</time>
      </trkpt>
      <trkpt lat="42.3208254016935825347900390625" lon="1.921235807240009307861328125">
        <ele>1940.199951171875</ele>
        <time>2020-08-10T11:28:42.000Z</time>
      </trkpt>
      <trkpt lat="42.32069992460310459136962890625" lon="1.92118593491613864898681640625">
        <ele>1940</ele>
        <time>2020-08-10T11:28:49.000Z</time>
      </trkpt>
      <trkpt lat="42.3205263353884220123291015625" lon="1.921157352626323699951171875">
        <ele>1940.800048828125</ele>
        <time>2020-08-10T11:28:59.000Z</time>
      </trkpt>
      <trkpt lat="42.320492304861545562744140625" lon="1.9211524911224842071533203125">
        <ele>1941.199951171875</ele>
        <time>2020-08-10T11:29:01.000Z</time>
      </trkpt>
      <trkpt lat="42.3204195499420166015625" lon="1.921169422566890716552734375">
        <ele>1941.800048828125</ele>
        <time>2020-08-10T11:29:05.000Z</time>
      </trkpt>
      <trkpt lat="42.3203476332128047943115234375" lon="1.92118643783032894134521484375">
        <ele>1942.199951171875</ele>
        <time>2020-08-10T11:29:09.000Z</time>
      </trkpt>
      <trkpt lat="42.3202735371887683868408203125" lon="1.9211984239518642425537109375">
        <ele>1942.4000244140625</ele>
        <time>2020-08-10T11:29:13.000Z</time>
      </trkpt>
      <trkpt lat="42.3201736249029636383056640625" lon="1.9212363101541996002197265625">
        <ele>1943.5999755859375</ele>
        <time>2020-08-10T11:29:18.000Z</time>
      </trkpt>
      <trkpt lat="42.32013599015772342681884765625" lon="1.9212520681321620941162109375">
        <ele>1944</ele>
        <time>2020-08-10T11:29:20.000Z</time>
      </trkpt>
      <trkpt lat="42.32009743340313434600830078125" lon="1.92127109505236148834228515625">
        <ele>1944.5999755859375</ele>
        <time>2020-08-10T11:29:22.000Z</time>
      </trkpt>
      <trkpt lat="42.319994755089282989501953125" lon="1.92129992879927158355712890625">
        <ele>1945</ele>
        <time>2020-08-10T11:29:28.000Z</time>
      </trkpt>
      <trkpt lat="42.31989291496574878692626953125" lon="1.921329014003276824951171875">
        <ele>1945.5999755859375</ele>
        <time>2020-08-10T11:29:34.000Z</time>
      </trkpt>
      <trkpt lat="42.31984161771833896636962890625" lon="1.9213221408426761627197265625">
        <ele>1945.800048828125</ele>
        <time>2020-08-10T11:29:37.000Z</time>
      </trkpt>
      <trkpt lat="42.3197220079600811004638671875" lon="1.9213052093982696533203125">
        <ele>1946.5999755859375</ele>
        <time>2020-08-10T11:29:44.000Z</time>
      </trkpt>
      <trkpt lat="42.31968672014772891998291015625" lon="1.9213016889989376068115234375">
        <ele>1946.800048828125</ele>
        <time>2020-08-10T11:29:46.000Z</time>
      </trkpt>
      <trkpt lat="42.31958865188062191009521484375" lon="1.9212695024907588958740234375">
        <ele>1947.5999755859375</ele>
        <time>2020-08-10T11:29:52.000Z</time>
      </trkpt>
      <trkpt lat="42.3194591514766216278076171875" lon="1.92121024243533611297607421875">
        <ele>1947.5999755859375</ele>
        <time>2020-08-10T11:30:00.000Z</time>
      </trkpt>
      <trkpt lat="42.31944381259381771087646484375" lon="1.92120839841663837432861328125">
        <ele>1947.800048828125</ele>
        <time>2020-08-10T11:30:01.000Z</time>
      </trkpt>
      <trkpt lat="42.31932261027395725250244140625" lon="1.9212234020233154296875">
        <ele>1948.800048828125</ele>
        <time>2020-08-10T11:30:08.000Z</time>
      </trkpt>
      <trkpt lat="42.3192221112549304962158203125" lon="1.92122164182364940643310546875">
        <ele>1949.800048828125</ele>
        <time>2020-08-10T11:30:14.000Z</time>
      </trkpt>
      <trkpt lat="42.3192070238292217254638671875" lon="1.9212165288627147674560546875">
        <ele>1950</ele>
        <time>2020-08-10T11:30:15.000Z</time>
      </trkpt>
      <trkpt lat="42.3191604204475879669189453125" lon="1.92120454274117946624755859375">
        <ele>1950.800048828125</ele>
        <time>2020-08-10T11:30:18.000Z</time>
      </trkpt>
      <trkpt lat="42.31914457865059375762939453125" lon="1.92120102234184741973876953125">
        <ele>1951.199951171875</ele>
        <time>2020-08-10T11:30:19.000Z</time>
      </trkpt>
      <trkpt lat="42.3190434090793132781982421875" lon="1.9211783073842525482177734375">
        <ele>1950.800048828125</ele>
        <time>2020-08-10T11:30:25.000Z</time>
      </trkpt>
      <trkpt lat="42.318907789885997772216796875" lon="1.9211340509355068206787109375">
        <ele>1951.800048828125</ele>
        <time>2020-08-10T11:30:33.000Z</time>
      </trkpt>
      <trkpt lat="42.318805865943431854248046875" lon="1.92110060714185237884521484375">
        <ele>1952</ele>
        <time>2020-08-10T11:30:39.000Z</time>
      </trkpt>
      <trkpt lat="42.318776361644268035888671875" lon="1.92109222523868083953857421875">
        <ele>1952</ele>
        <time>2020-08-10T11:30:41.000Z</time>
      </trkpt>
      <trkpt lat="42.31863294728100299835205078125" lon="1.92107596434652805328369140625">
        <ele>1952.199951171875</ele>
        <time>2020-08-10T11:30:50.000Z</time>
      </trkpt>
      <trkpt lat="42.31852465309202671051025390625" lon="1.92107655107975006103515625">
        <ele>1953</ele>
        <time>2020-08-10T11:30:57.000Z</time>
      </trkpt>
      <trkpt lat="42.3185119964182376861572265625" lon="1.9210800714790821075439453125">
        <ele>1953</ele>
        <time>2020-08-10T11:30:58.000Z</time>
      </trkpt>
      <trkpt lat="42.318420298397541046142578125" lon="1.9210901297628879547119140625">
        <ele>1954</ele>
        <time>2020-08-10T11:31:05.000Z</time>
      </trkpt>
      <trkpt lat="42.3184070549905300140380859375" lon="1.92108602263033390045166015625">
        <ele>1954.4000244140625</ele>
        <time>2020-08-10T11:31:06.000Z</time>
      </trkpt>
      <trkpt lat="42.3183554224669933319091796875" lon="1.9210522435605525970458984375">
        <ele>1955.4000244140625</ele>
        <time>2020-08-10T11:31:10.000Z</time>
      </trkpt>
      <trkpt lat="42.3182893730700016021728515625" lon="1.92100815474987030029296875">
        <ele>1956.199951171875</ele>
        <time>2020-08-10T11:31:15.000Z</time>
      </trkpt>
      <trkpt lat="42.31824721209704875946044921875" lon="1.9209754653275012969970703125">
        <ele>1956.4000244140625</ele>
        <time>2020-08-10T11:31:18.000Z</time>
      </trkpt>
      <trkpt lat="42.3181743733584880828857421875" lon="1.920938082039356231689453125">
        <ele>1956.5999755859375</ele>
        <time>2020-08-10T11:31:23.000Z</time>
      </trkpt>
      <trkpt lat="42.31805258430540561676025390625" lon="1.92089709453284740447998046875">
        <ele>1956.5999755859375</ele>
        <time>2020-08-10T11:31:31.000Z</time>
      </trkpt>
      <trkpt lat="42.317980416119098663330078125" lon="1.92087932489812374114990234375">
        <ele>1957.5999755859375</ele>
        <time>2020-08-10T11:31:36.000Z</time>
      </trkpt>
      <trkpt lat="42.31793993152678012847900390625" lon="1.92084847949445247650146484375">
        <ele>1957.800048828125</ele>
        <time>2020-08-10T11:31:39.000Z</time>
      </trkpt>
      <trkpt lat="42.31791327707469463348388671875" lon="1.920829117298126220703125">
        <ele>1958.199951171875</ele>
        <time>2020-08-10T11:31:41.000Z</time>
      </trkpt>
      <trkpt lat="42.31786348856985569000244140625" lon="1.9208336435258388519287109375">
        <ele>1958.4000244140625</ele>
        <time>2020-08-10T11:31:44.000Z</time>
      </trkpt>
      <trkpt lat="42.31776223517954349517822265625" lon="1.92085526883602142333984375">
        <ele>1958.800048828125</ele>
        <time>2020-08-10T11:31:50.000Z</time>
      </trkpt>
      <trkpt lat="42.317712195217609405517578125" lon="1.9208996929228305816650390625">
        <ele>1959.4000244140625</ele>
        <time>2020-08-10T11:31:54.000Z</time>
      </trkpt>
      <trkpt lat="42.3176731355488300323486328125" lon="1.92093439400196075439453125">
        <ele>1959.800048828125</ele>
        <time>2020-08-10T11:31:57.000Z</time>
      </trkpt>
      <trkpt lat="42.3176238499581813812255859375" lon="1.92099650390446186065673828125">
        <ele>1960.4000244140625</ele>
        <time>2020-08-10T11:32:01.000Z</time>
      </trkpt>
      <trkpt lat="42.317611612379550933837890625" lon="1.92101058550179004669189453125">
        <ele>1961.199951171875</ele>
        <time>2020-08-10T11:32:02.000Z</time>
      </trkpt>
      <trkpt lat="42.31759811751544475555419921875" lon="1.92102114669978618621826171875">
        <ele>1961.800048828125</ele>
        <time>2020-08-10T11:32:03.000Z</time>
      </trkpt>
      <trkpt lat="42.317582778632640838623046875" lon="1.92102827131748199462890625">
        <ele>1962.199951171875</ele>
        <time>2020-08-10T11:32:04.000Z</time>
      </trkpt>
      <trkpt lat="42.31754514388740062713623046875" lon="1.9210659898817539215087890625">
        <ele>1962.5999755859375</ele>
        <time>2020-08-10T11:32:07.000Z</time>
      </trkpt>
      <trkpt lat="42.3174578882753849029541015625" lon="1.92114452831447124481201171875">
        <ele>1963.4000244140625</ele>
        <time>2020-08-10T11:32:14.000Z</time>
      </trkpt>
      <trkpt lat="42.31743198819458484649658203125" lon="1.92116196267306804656982421875">
        <ele>1963.5999755859375</ele>
        <time>2020-08-10T11:32:16.000Z</time>
      </trkpt>
      <trkpt lat="42.3173613287508487701416015625" lon="1.921199597418308258056640625">
        <ele>1964.4000244140625</ele>
        <time>2020-08-10T11:32:21.000Z</time>
      </trkpt>
      <trkpt lat="42.31731665320694446563720703125" lon="1.9212131761014461517333984375">
        <ele>1964.5999755859375</ele>
        <time>2020-08-10T11:32:24.000Z</time>
      </trkpt>
      <trkpt lat="42.31726636178791522979736328125" lon="1.92121678031980991363525390625">
        <ele>1965.4000244140625</ele>
        <time>2020-08-10T11:32:27.000Z</time>
      </trkpt>
      <trkpt lat="42.31724255718290805816650390625" lon="1.92120387218892574310302734375">
        <ele>1966</ele>
        <time>2020-08-10T11:32:29.000Z</time>
      </trkpt>
      <trkpt lat="42.3172292299568653106689453125" lon="1.921194903552532196044921875">
        <ele>1966.800048828125</ele>
        <time>2020-08-10T11:32:31.000Z</time>
      </trkpt>
      <trkpt lat="42.3172290623188018798828125" lon="1.92119649611413478851318359375">
        <ele>1967</ele>
        <time>2020-08-10T11:32:35.000Z</time>
      </trkpt>
      <trkpt lat="42.31722830794751644134521484375" lon="1.92119347862899303436279296875">
        <ele>1967</ele>
        <time>2020-08-10T11:32:44.000Z</time>
      </trkpt>
      <trkpt lat="42.31720735318958759307861328125" lon="1.9211873598396778106689453125">
        <ele>1967</ele>
        <time>2020-08-10T11:32:47.000Z</time>
      </trkpt>
      <trkpt lat="42.3171883262693881988525390625" lon="1.92117604427039623260498046875">
        <ele>1967.5999755859375</ele>
        <time>2020-08-10T11:32:51.000Z</time>
      </trkpt>
      <trkpt lat="42.3171769268810749053955078125" lon="1.92116229794919490814208984375">
        <ele>1968.4000244140625</ele>
        <time>2020-08-10T11:32:55.000Z</time>
      </trkpt>
      <trkpt lat="42.3171698860824108123779296875" lon="1.9211578555405139923095703125">
        <ele>1968.4000244140625</ele>
        <time>2020-08-10T11:33:03.000Z</time>
      </trkpt>
      <trkpt lat="42.317168712615966796875" lon="1.92116104066371917724609375">
        <ele>1968.4000244140625</ele>
        <time>2020-08-10T11:33:07.000Z</time>
      </trkpt>
      <trkpt lat="42.31716510839760303497314453125" lon="1.921163387596607208251953125">
        <ele>1967.800048828125</ele>
        <time>2020-08-10T11:35:24.000Z</time>
      </trkpt>
      <trkpt lat="42.3171648569405078887939453125" lon="1.92116313613951206207275390625">
        <ele>1967.4000244140625</ele>
        <time>2020-08-10T11:35:29.000Z</time>
      </trkpt>
      <trkpt lat="42.3171433992683887481689453125" lon="1.9211603701114654541015625">
        <ele>1967.5999755859375</ele>
        <time>2020-08-10T11:35:31.000Z</time>
      </trkpt>
      <trkpt lat="42.31707911007106304168701171875" lon="1.92113933153450489044189453125">
        <ele>1968.4000244140625</ele>
        <time>2020-08-10T11:35:36.000Z</time>
      </trkpt>
      <trkpt lat="42.31704541482031345367431640625" lon="1.92110739648342132568359375">
        <ele>1969.5999755859375</ele>
        <time>2020-08-10T11:35:39.000Z</time>
      </trkpt>
      <trkpt lat="42.31693745590746402740478515625" lon="1.921023242175579071044921875">
        <ele>1970.199951171875</ele>
        <time>2020-08-10T11:35:48.000Z</time>
      </trkpt>
      <trkpt lat="42.31691683642566204071044921875" lon="1.921001113951206207275390625">
        <ele>1970.5999755859375</ele>
        <time>2020-08-10T11:35:50.000Z</time>
      </trkpt>
      <trkpt lat="42.31684223748743534088134765625" lon="1.920947134494781494140625">
        <ele>1971.5999755859375</ele>
        <time>2020-08-10T11:35:56.000Z</time>
      </trkpt>
      <trkpt lat="42.316774427890777587890625" lon="1.92087714560329914093017578125">
        <ele>1972.5999755859375</ele>
        <time>2020-08-10T11:36:02.000Z</time>
      </trkpt>
      <trkpt lat="42.31676177121698856353759765625" lon="1.9208665005862712860107421875">
        <ele>1972.5999755859375</ele>
        <time>2020-08-10T11:36:03.000Z</time>
      </trkpt>
      <trkpt lat="42.3166713304817676544189453125" lon="1.92079416476190090179443359375">
        <ele>1973.5999755859375</ele>
        <time>2020-08-10T11:36:10.000Z</time>
      </trkpt>
      <trkpt lat="42.31666420586407184600830078125" lon="1.92077639512717723846435546875">
        <ele>1973.5999755859375</ele>
        <time>2020-08-10T11:36:11.000Z</time>
      </trkpt>
      <trkpt lat="42.31660603545606136322021484375" lon="1.92071269266307353973388671875">
        <ele>1974.199951171875</ele>
        <time>2020-08-10T11:36:16.000Z</time>
      </trkpt>
      <trkpt lat="42.3165630362927913665771484375" lon="1.9206562824547290802001953125">
        <ele>1974.800048828125</ele>
        <time>2020-08-10T11:36:20.000Z</time>
      </trkpt>
      <trkpt lat="42.31650779955089092254638671875" lon="1.92058780230581760406494140625">
        <ele>1975.199951171875</ele>
        <time>2020-08-10T11:36:25.000Z</time>
      </trkpt>
      <trkpt lat="42.31642884202301502227783203125" lon="1.9204990379512310028076171875">
        <ele>1975.5999755859375</ele>
        <time>2020-08-10T11:36:32.000Z</time>
      </trkpt>
      <trkpt lat="42.3164171911776065826416015625" lon="1.9204873032867908477783203125">
        <ele>1976</ele>
        <time>2020-08-10T11:36:33.000Z</time>
      </trkpt>
      <trkpt lat="42.31640403158962726593017578125" lon="1.9204779155552387237548828125">
        <ele>1976</ele>
        <time>2020-08-10T11:36:34.000Z</time>
      </trkpt>
      <trkpt lat="42.3163454420864582061767578125" lon="1.9204266183078289031982421875">
        <ele>1976.800048828125</ele>
        <time>2020-08-10T11:36:39.000Z</time>
      </trkpt>
      <trkpt lat="42.31631920672953128814697265625" lon="1.920378841459751129150390625">
        <ele>1977.199951171875</ele>
        <time>2020-08-10T11:36:42.000Z</time>
      </trkpt>
      <trkpt lat="42.31626036576926708221435546875" lon="1.92029141820967197418212890625">
        <ele>1977.800048828125</ele>
        <time>2020-08-10T11:36:48.000Z</time>
      </trkpt>
      <trkpt lat="42.3162505589425563812255859375" lon="1.92027465440332889556884765625">
        <ele>1977.800048828125</ele>
        <time>2020-08-10T11:36:49.000Z</time>
      </trkpt>
      <trkpt lat="42.31619917787611484527587890625" lon="1.92011497914791107177734375">
        <ele>1979</ele>
        <time>2020-08-10T11:36:57.000Z</time>
      </trkpt>
      <trkpt lat="42.316161878407001495361328125" lon="1.9199984706938266754150390625">
        <ele>1979.4000244140625</ele>
        <time>2020-08-10T11:37:03.000Z</time>
      </trkpt>
      <trkpt lat="42.31615190394222736358642578125" lon="1.9199622608721256256103515625">
        <ele>1979.4000244140625</ele>
        <time>2020-08-10T11:37:05.000Z</time>
      </trkpt>
      <trkpt lat="42.31614721007645130157470703125" lon="1.9198606722056865692138671875">
        <ele>1980</ele>
        <time>2020-08-10T11:37:10.000Z</time>
      </trkpt>
      <trkpt lat="42.316111586987972259521484375" lon="1.9197039306163787841796875">
        <ele>1981</ele>
        <time>2020-08-10T11:37:18.000Z</time>
      </trkpt>
      <trkpt lat="42.3160926438868045806884765625" lon="1.91962690092623233795166015625">
        <ele>1981.199951171875</ele>
        <time>2020-08-10T11:37:22.000Z</time>
      </trkpt>
      <trkpt lat="42.3160705156624317169189453125" lon="1.91955163143575191497802734375">
        <ele>1981.199951171875</ele>
        <time>2020-08-10T11:37:26.000Z</time>
      </trkpt>
      <trkpt lat="42.3160207271575927734375" lon="1.919379048049449920654296875">
        <ele>1982.199951171875</ele>
        <time>2020-08-10T11:37:35.000Z</time>
      </trkpt>
      <trkpt lat="42.31596096418797969818115234375" lon="1.91925927065312862396240234375">
        <ele>1983.199951171875</ele>
        <time>2020-08-10T11:37:42.000Z</time>
      </trkpt>
      <trkpt lat="42.31589055620133876800537109375" lon="1.9191488809883594512939453125">
        <ele>1984.199951171875</ele>
        <time>2020-08-10T11:37:49.000Z</time>
      </trkpt>
      <trkpt lat="42.31588016264140605926513671875" lon="1.9191331230103969573974609375">
        <ele>1984.5999755859375</ele>
        <time>2020-08-10T11:37:50.000Z</time>
      </trkpt>
      <trkpt lat="42.31578209437429904937744140625" lon="1.918996162712574005126953125">
        <ele>1984.800048828125</ele>
        <time>2020-08-10T11:37:59.000Z</time>
      </trkpt>
      <trkpt lat="42.31573716737329959869384765625" lon="1.9189326278865337371826171875">
        <ele>1985.199951171875</ele>
        <time>2020-08-10T11:38:03.000Z</time>
      </trkpt>
      <trkpt lat="42.31566600501537322998046875" lon="1.91883699037134647369384765625">
        <ele>1985.800048828125</ele>
        <time>2020-08-10T11:38:09.000Z</time>
      </trkpt>
      <trkpt lat="42.3156142048537731170654296875" lon="1.91874965094029903411865234375">
        <ele>1986.4000244140625</ele>
        <time>2020-08-10T11:38:14.000Z</time>
      </trkpt>
      <trkpt lat="42.31559148989617824554443359375" lon="1.91871821880340576171875">
        <ele>1986.4000244140625</ele>
        <time>2020-08-10T11:38:16.000Z</time>
      </trkpt>
      <trkpt lat="42.31552518904209136962890625" lon="1.9185658358037471771240234375">
        <ele>1987.199951171875</ele>
        <time>2020-08-10T11:38:24.000Z</time>
      </trkpt>
      <trkpt lat="42.31546106748282909393310546875" lon="1.9184085913002490997314453125">
        <ele>1987.4000244140625</ele>
        <time>2020-08-10T11:38:32.000Z</time>
      </trkpt>
      <trkpt lat="42.3153852112591266632080078125" lon="1.918238438665866851806640625">
        <ele>1988.5999755859375</ele>
        <time>2020-08-10T11:38:41.000Z</time>
      </trkpt>
      <trkpt lat="42.3153288848698139190673828125" lon="1.91810525022447109222412109375">
        <ele>1989.199951171875</ele>
        <time>2020-08-10T11:38:48.000Z</time>
      </trkpt>
      <trkpt lat="42.3153007216751575469970703125" lon="1.918056048452854156494140625">
        <ele>1989.4000244140625</ele>
        <time>2020-08-10T11:38:51.000Z</time>
      </trkpt>
      <trkpt lat="42.31522637419402599334716796875" lon="1.91799008287489414215087890625">
        <ele>1990</ele>
        <time>2020-08-10T11:38:57.000Z</time>
      </trkpt>
      <trkpt lat="42.31516501866281032562255859375" lon="1.91796577535569667816162109375">
        <ele>1990.4000244140625</ele>
        <time>2020-08-10T11:39:01.000Z</time>
      </trkpt>
      <trkpt lat="42.31513249687850475311279296875" lon="1.9179636798799037933349609375">
        <ele>1990.5999755859375</ele>
        <time>2020-08-10T11:39:03.000Z</time>
      </trkpt>
      <trkpt lat="42.31503509916365146636962890625" lon="1.9179432280361652374267578125">
        <ele>1991.5999755859375</ele>
        <time>2020-08-10T11:39:09.000Z</time>
      </trkpt>
      <trkpt lat="42.3149872384965419769287109375" lon="1.9179422222077846527099609375">
        <ele>1992.199951171875</ele>
        <time>2020-08-10T11:39:12.000Z</time>
      </trkpt>
      <trkpt lat="42.31492127291858196258544921875" lon="1.91793174482882022857666015625">
        <ele>1992.5999755859375</ele>
        <time>2020-08-10T11:39:16.000Z</time>
      </trkpt>
      <trkpt lat="42.3148061893880367279052734375" lon="1.917915903031826019287109375">
        <ele>1993.800048828125</ele>
        <time>2020-08-10T11:39:23.000Z</time>
      </trkpt>
      <trkpt lat="42.31471222825348377227783203125" lon="1.9178691320121288299560546875">
        <ele>1994.800048828125</ele>
        <time>2020-08-10T11:39:29.000Z</time>
      </trkpt>
      <trkpt lat="42.31466847471892833709716796875" lon="1.91784189082682132720947265625">
        <ele>1995.4000244140625</ele>
        <time>2020-08-10T11:39:32.000Z</time>
      </trkpt>
      <trkpt lat="42.31456252746284008026123046875" lon="1.9177472591400146484375">
        <ele>1995.800048828125</ele>
        <time>2020-08-10T11:39:40.000Z</time>
      </trkpt>
      <trkpt lat="42.3144501261413097381591796875" lon="1.91764625720679759979248046875">
        <ele>1995.800048828125</ele>
        <time>2020-08-10T11:39:48.000Z</time>
      </trkpt>
      <trkpt lat="42.31443830765783786773681640625" lon="1.9176294095814228057861328125">
        <ele>1995.800048828125</ele>
        <time>2020-08-10T11:39:49.000Z</time>
      </trkpt>
      <trkpt lat="42.31436622329056262969970703125" lon="1.91752941347658634185791015625">
        <ele>1996</ele>
        <time>2020-08-10T11:39:56.000Z</time>
      </trkpt>
      <trkpt lat="42.31430553831160068511962890625" lon="1.91749714314937591552734375">
        <ele>1996.800048828125</ele>
        <time>2020-08-10T11:40:02.000Z</time>
      </trkpt>
      <trkpt lat="42.31429430656135082244873046875" lon="1.917476691305637359619140625">
        <ele>1996.800048828125</ele>
        <time>2020-08-10T11:40:04.000Z</time>
      </trkpt>
      <trkpt lat="42.31425273232161998748779296875" lon="1.91741961054503917694091796875">
        <ele>1997.4000244140625</ele>
        <time>2020-08-10T11:40:12.000Z</time>
      </trkpt>
      <trkpt lat="42.31421350501477718353271484375" lon="1.9174389727413654327392578125">
        <ele>1997.4000244140625</ele>
        <time>2020-08-10T11:40:17.000Z</time>
      </trkpt>
      <trkpt lat="42.31419674120843410491943359375" lon="1.917429752647876739501953125">
        <ele>1997.5999755859375</ele>
        <time>2020-08-10T11:40:19.000Z</time>
      </trkpt>
      <trkpt lat="42.314185090363025665283203125" lon="1.91740988753736019134521484375">
        <ele>1997.800048828125</ele>
        <time>2020-08-10T11:40:21.000Z</time>
      </trkpt>
      <trkpt lat="42.31415214948356151580810546875" lon="1.9174144975841045379638671875">
        <ele>1997.800048828125</ele>
        <time>2020-08-10T11:40:25.000Z</time>
      </trkpt>
      <trkpt lat="42.3141312785446643829345703125" lon="1.91741458140313625335693359375">
        <ele>1998</ele>
        <time>2020-08-10T11:40:27.000Z</time>
      </trkpt>
      <trkpt lat="42.314109317958354949951171875" lon="1.91741005517542362213134765625">
        <ele>1998</ele>
        <time>2020-08-10T11:40:29.000Z</time>
      </trkpt>
      <trkpt lat="42.31409934349358081817626953125" lon="1.91741466522216796875">
        <ele>1998.199951171875</ele>
        <time>2020-08-10T11:40:30.000Z</time>
      </trkpt>
      <trkpt lat="42.31408542953431606292724609375" lon="1.9174537248909473419189453125">
        <ele>1998.199951171875</ele>
        <time>2020-08-10T11:40:34.000Z</time>
      </trkpt>
      <trkpt lat="42.31407905928790569305419921875" lon="1.9174611009657382965087890625">
        <ele>1998.199951171875</ele>
        <time>2020-08-10T11:40:35.000Z</time>
      </trkpt>
      <trkpt lat="42.31405810452997684478759765625" lon="1.9174748472869396209716796875">
        <ele>1998</ele>
        <time>2020-08-10T11:40:37.000Z</time>
      </trkpt>
      <trkpt lat="42.314016111195087432861328125" lon="1.91747342236340045928955078125">
        <ele>1998.4000244140625</ele>
        <time>2020-08-10T11:40:40.000Z</time>
      </trkpt>
      <trkpt lat="42.31400127522647380828857421875" lon="1.91748046316206455230712890625">
        <ele>1998.5999755859375</ele>
        <time>2020-08-10T11:40:41.000Z</time>
      </trkpt>
      <trkpt lat="42.3139861039817333221435546875" lon="1.91749052144587039947509765625">
        <ele>1998.800048828125</ele>
        <time>2020-08-10T11:40:42.000Z</time>
      </trkpt>
      <trkpt lat="42.3139260895550251007080078125" lon="1.917560510337352752685546875">
        <ele>1999</ele>
        <time>2020-08-10T11:40:47.000Z</time>
      </trkpt>
      <trkpt lat="42.31383481062948703765869140625" lon="1.91768296994268894195556640625">
        <ele>1999.5999755859375</ele>
        <time>2020-08-10T11:40:54.000Z</time>
      </trkpt>
      <trkpt lat="42.31381268240511417388916015625" lon="1.9177199341356754302978515625">
        <ele>1999.5999755859375</ele>
        <time>2020-08-10T11:40:56.000Z</time>
      </trkpt>
      <trkpt lat="42.31376389972865581512451171875" lon="1.917819343507289886474609375">
        <ele>2000</ele>
        <time>2020-08-10T11:41:01.000Z</time>
      </trkpt>
      <trkpt lat="42.3136823438107967376708984375" lon="1.9179992191493511199951171875">
        <ele>2000.5999755859375</ele>
        <time>2020-08-10T11:41:09.000Z</time>
      </trkpt>
      <trkpt lat="42.31367002241313457489013671875" lon="1.91801941953599452972412109375">
        <ele>2000.800048828125</ele>
        <time>2020-08-10T11:41:10.000Z</time>
      </trkpt>
      <trkpt lat="42.31360112316906452178955078125" lon="1.9181393645703792572021484375">
        <ele>2001.5999755859375</ele>
        <time>2020-08-10T11:41:16.000Z</time>
      </trkpt>
      <trkpt lat="42.3135651648044586181640625" lon="1.91819493658840656280517578125">
        <ele>2001.800048828125</ele>
        <time>2020-08-10T11:41:19.000Z</time>
      </trkpt>
      <trkpt lat="42.3135247640311717987060546875" lon="1.9182701222598552703857421875">
        <ele>2002.199951171875</ele>
        <time>2020-08-10T11:41:23.000Z</time>
      </trkpt>
      <trkpt lat="42.3134610615670680999755859375" lon="1.9184146262705326080322265625">
        <ele>2002.800048828125</ele>
        <time>2020-08-10T11:41:30.000Z</time>
      </trkpt>
      <trkpt lat="42.31345309875905513763427734375" lon="1.91843667067587375640869140625">
        <ele>2003</ele>
        <time>2020-08-10T11:41:31.000Z</time>
      </trkpt>
      <trkpt lat="42.31342845596373081207275390625" lon="1.91860129125416278839111328125">
        <ele>2003.800048828125</ele>
        <time>2020-08-10T11:41:38.000Z</time>
      </trkpt>
      <trkpt lat="42.313422001898288726806640625" lon="1.9186484813690185546875">
        <ele>2004.199951171875</ele>
        <time>2020-08-10T11:41:40.000Z</time>
      </trkpt>
      <trkpt lat="42.31341420672833919525146484375" lon="1.918817795813083648681640625">
        <ele>2004.800048828125</ele>
        <time>2020-08-10T11:41:47.000Z</time>
      </trkpt>
      <trkpt lat="42.31341336853802204132080078125" lon="1.91884151659905910491943359375">
        <ele>2005</ele>
        <time>2020-08-10T11:41:48.000Z</time>
      </trkpt>
      <trkpt lat="42.313408590853214263916015625" lon="1.91900513134896755218505859375">
        <ele>2005.800048828125</ele>
        <time>2020-08-10T11:41:55.000Z</time>
      </trkpt>
      <trkpt lat="42.31340884231030941009521484375" lon="1.91902910359203815460205078125">
        <ele>2006</ele>
        <time>2020-08-10T11:41:56.000Z</time>
      </trkpt>
      <trkpt lat="42.31339945457875728607177734375" lon="1.91925474442541599273681640625">
        <ele>2006.800048828125</ele>
        <time>2020-08-10T11:42:05.000Z</time>
      </trkpt>
      <trkpt lat="42.31339073739945888519287109375" lon="1.91933118738234043121337890625">
        <ele>2007.199951171875</ele>
        <time>2020-08-10T11:42:08.000Z</time>
      </trkpt>
      <trkpt lat="42.31337766163051128387451171875" lon="1.91946127451956272125244140625">
        <ele>2007.800048828125</ele>
        <time>2020-08-10T11:42:13.000Z</time>
      </trkpt>
      <trkpt lat="42.313358969986438751220703125" lon="1.91954006440937519073486328125">
        <ele>2008.199951171875</ele>
        <time>2020-08-10T11:42:16.000Z</time>
      </trkpt>
      <trkpt lat="42.3133256100118160247802734375" lon="1.91963746212422847747802734375">
        <ele>2008.4000244140625</ele>
        <time>2020-08-10T11:42:20.000Z</time>
      </trkpt>
      <trkpt lat="42.31320097111165523529052734375" lon="1.91985354758799076080322265625">
        <ele>2008.800048828125</ele>
        <time>2020-08-10T11:42:30.000Z</time>
      </trkpt>
      <trkpt lat="42.313068620860576629638671875" lon="1.91998262889683246612548828125">
        <ele>2009.199951171875</ele>
        <time>2020-08-10T11:42:38.000Z</time>
      </trkpt>
      <trkpt lat="42.313035093247890472412109375" lon="1.92001305520534515380859375">
        <ele>2009.4000244140625</ele>
        <time>2020-08-10T11:42:40.000Z</time>
      </trkpt>
      <trkpt lat="42.31293375603854656219482421875" lon="1.92008840851485729217529296875">
        <ele>2010</ele>
        <time>2020-08-10T11:42:46.000Z</time>
      </trkpt>
      <trkpt lat="42.31288262642920017242431640625" lon="1.92012109793722629547119140625">
        <ele>2010.4000244140625</ele>
        <time>2020-08-10T11:42:49.000Z</time>
      </trkpt>
      <trkpt lat="42.312770225107669830322265625" lon="1.92018798552453517913818359375">
        <ele>2011.199951171875</ele>
        <time>2020-08-10T11:42:56.000Z</time>
      </trkpt>
      <trkpt lat="42.3127539642155170440673828125" lon="1.92019569687545299530029296875">
        <ele>2011.4000244140625</ele>
        <time>2020-08-10T11:42:57.000Z</time>
      </trkpt>
      <trkpt lat="42.31263955123722553253173828125" lon="1.9202459044754505157470703125">
        <ele>2012.4000244140625</ele>
        <time>2020-08-10T11:43:04.000Z</time>
      </trkpt>
      <trkpt lat="42.31257316656410694122314453125" lon="1.92027985118329524993896484375">
        <ele>2013.199951171875</ele>
        <time>2020-08-10T11:43:08.000Z</time>
      </trkpt>
      <trkpt lat="42.3125378787517547607421875" lon="1.9202881492674350738525390625">
        <ele>2013.4000244140625</ele>
        <time>2020-08-10T11:43:10.000Z</time>
      </trkpt>
      <trkpt lat="42.31244140304625034332275390625" lon="1.92033919505774974822998046875">
        <ele>2014</ele>
        <time>2020-08-10T11:43:16.000Z</time>
      </trkpt>
      <trkpt lat="42.31239362619817256927490234375" lon="1.9203619100153446197509765625">
        <ele>2014.4000244140625</ele>
        <time>2020-08-10T11:43:19.000Z</time>
      </trkpt>
      <trkpt lat="42.3123018443584442138671875" lon="1.92040557973086833953857421875">
        <ele>2015.199951171875</ele>
        <time>2020-08-10T11:43:25.000Z</time>
      </trkpt>
      <trkpt lat="42.31225498951971530914306640625" lon="1.92042971961200237274169921875">
        <ele>2015.4000244140625</ele>
        <time>2020-08-10T11:43:28.000Z</time>
      </trkpt>
      <trkpt lat="42.3121739365160465240478515625" lon="1.9204678572714328765869140625">
        <ele>2016.199951171875</ele>
        <time>2020-08-10T11:43:33.000Z</time>
      </trkpt>
      <trkpt lat="42.312127836048603057861328125" lon="1.92049241624772548675537109375">
        <ele>2016.4000244140625</ele>
        <time>2020-08-10T11:43:36.000Z</time>
      </trkpt>
      <trkpt lat="42.31205348856747150421142578125" lon="1.92053818143904209136962890625">
        <ele>2017.199951171875</ele>
        <time>2020-08-10T11:43:41.000Z</time>
      </trkpt>
      <trkpt lat="42.31202465482056140899658203125" lon="1.9205595552921295166015625">
        <ele>2017.4000244140625</ele>
        <time>2020-08-10T11:43:43.000Z</time>
      </trkpt>
      <trkpt lat="42.3119493015110492706298828125" lon="1.92060708068311214447021484375">
        <ele>2018.5999755859375</ele>
        <time>2020-08-10T11:43:48.000Z</time>
      </trkpt>
      <trkpt lat="42.311917282640933990478515625" lon="1.92061713896691799163818359375">
        <ele>2019.199951171875</ele>
        <time>2020-08-10T11:43:50.000Z</time>
      </trkpt>
      <trkpt lat="42.31180940754711627960205078125" lon="1.92065804265439510345458984375">
        <ele>2019.5999755859375</ele>
        <time>2020-08-10T11:43:57.000Z</time>
      </trkpt>
      <trkpt lat="42.311781160533428192138671875" lon="1.9206763990223407745361328125">
        <ele>2019.4000244140625</ele>
        <time>2020-08-10T11:43:59.000Z</time>
      </trkpt>
      <trkpt lat="42.31166188605129718780517578125" lon="1.92073817364871501922607421875">
        <ele>2020.199951171875</ele>
        <time>2020-08-10T11:44:07.000Z</time>
      </trkpt>
      <trkpt lat="42.31163154356181621551513671875" lon="1.92075510509312152862548828125">
        <ele>2020.5999755859375</ele>
        <time>2020-08-10T11:44:09.000Z</time>
      </trkpt>
      <trkpt lat="42.3115439526736736297607421875" lon="1.92080941982567310333251953125">
        <ele>2021.199951171875</ele>
        <time>2020-08-10T11:44:15.000Z</time>
      </trkpt>
      <trkpt lat="42.31151855550706386566162109375" lon="1.92083179950714111328125">
        <ele>2021.5999755859375</ele>
        <time>2020-08-10T11:44:17.000Z</time>
      </trkpt>
      <trkpt lat="42.311449237167835235595703125" lon="1.920876391232013702392578125">
        <ele>2022.199951171875</ele>
        <time>2020-08-10T11:44:22.000Z</time>
      </trkpt>
      <trkpt lat="42.3114118538796901702880859375" lon="1.92091201432049274444580078125">
        <ele>2022.800048828125</ele>
        <time>2020-08-10T11:44:25.000Z</time>
      </trkpt>
      <trkpt lat="42.31135628186166286468505859375" lon="1.92095124162733554840087890625">
        <ele>2023.4000244140625</ele>
        <time>2020-08-10T11:44:29.000Z</time>
      </trkpt>
      <trkpt lat="42.31130473315715789794921875" lon="1.9209955818951129913330078125">
        <ele>2024</ele>
        <time>2020-08-10T11:44:33.000Z</time>
      </trkpt>
      <trkpt lat="42.311263494193553924560546875" lon="1.9210250861942768096923828125">
        <ele>2024.5999755859375</ele>
        <time>2020-08-10T11:44:36.000Z</time>
      </trkpt>
      <trkpt lat="42.3112411983311176300048828125" lon="1.92105048336088657379150390625">
        <ele>2025</ele>
        <time>2020-08-10T11:44:38.000Z</time>
      </trkpt>
      <trkpt lat="42.31116433627903461456298828125" lon="1.92112290300428867340087890625">
        <ele>2025.4000244140625</ele>
        <time>2020-08-10T11:44:44.000Z</time>
      </trkpt>
      <trkpt lat="42.311094515025615692138671875" lon="1.92116908729076385498046875">
        <ele>2025.800048828125</ele>
        <time>2020-08-10T11:44:49.000Z</time>
      </trkpt>
      <trkpt lat="42.3110685311257839202880859375" lon="1.9211930595338344573974609375">
        <ele>2026</ele>
        <time>2020-08-10T11:44:51.000Z</time>
      </trkpt>
      <trkpt lat="42.31096006929874420166015625" lon="1.92128517664968967437744140625">
        <ele>2026.800048828125</ele>
        <time>2020-08-10T11:44:59.000Z</time>
      </trkpt>
      <trkpt lat="42.3109320737421512603759765625" lon="1.9213104061782360076904296875">
        <ele>2027</ele>
        <time>2020-08-10T11:45:01.000Z</time>
      </trkpt>
      <trkpt lat="42.31081380508840084075927734375" lon="1.921384669840335845947265625">
        <ele>2027.5999755859375</ele>
        <time>2020-08-10T11:45:09.000Z</time>
      </trkpt>
      <trkpt lat="42.31076435185968875885009765625" lon="1.92140218801796436309814453125">
        <ele>2028</ele>
        <time>2020-08-10T11:45:12.000Z</time>
      </trkpt>
      <trkpt lat="42.310670726001262664794921875" lon="1.92144828848540782928466796875">
        <ele>2028.5999755859375</ele>
        <time>2020-08-10T11:45:18.000Z</time>
      </trkpt>
      <trkpt lat="42.31064147315919399261474609375" lon="1.92146404646337032318115234375">
        <ele>2029</ele>
        <time>2020-08-10T11:45:20.000Z</time>
      </trkpt>
      <trkpt lat="42.31059931218624114990234375" lon="1.921489275991916656494140625">
        <ele>2029.5999755859375</ele>
        <time>2020-08-10T11:45:23.000Z</time>
      </trkpt>
      <trkpt lat="42.310583889484405517578125" lon="1.92149187438189983367919921875">
        <ele>2029.5999755859375</ele>
        <time>2020-08-10T11:45:24.000Z</time>
      </trkpt>
      <trkpt lat="42.31052312068641185760498046875" lon="1.9215233065187931060791015625">
        <ele>2030.199951171875</ele>
        <time>2020-08-10T11:45:28.000Z</time>
      </trkpt>
      <trkpt lat="42.31044642627239227294921875" lon="1.92155540920794010162353515625">
        <ele>2030.5999755859375</ele>
        <time>2020-08-10T11:45:33.000Z</time>
      </trkpt>
      <trkpt lat="42.31040040962398052215576171875" lon="1.9215729273855686187744140625">
        <ele>2031.199951171875</ele>
        <time>2020-08-10T11:45:36.000Z</time>
      </trkpt>
      <trkpt lat="42.310289181768894195556640625" lon="1.92161575891077518463134765625">
        <ele>2032.4000244140625</ele>
        <time>2020-08-10T11:45:43.000Z</time>
      </trkpt>
      <trkpt lat="42.3101602680981159210205078125" lon="1.921656243503093719482421875">
        <ele>2032.800048828125</ele>
        <time>2020-08-10T11:45:51.000Z</time>
      </trkpt>
      <trkpt lat="42.31011115014553070068359375" lon="1.92166605032980442047119140625">
        <ele>2033.199951171875</ele>
        <time>2020-08-10T11:45:54.000Z</time>
      </trkpt>
      <trkpt lat="42.3100318573415279388427734375" lon="1.92169689573347568511962890625">
        <ele>2034.199951171875</ele>
        <time>2020-08-10T11:45:59.000Z</time>
      </trkpt>
      <trkpt lat="42.30999841354787349700927734375" lon="1.9217077083885669708251953125">
        <ele>2034.199951171875</ele>
        <time>2020-08-10T11:46:01.000Z</time>
      </trkpt>
      <trkpt lat="42.3098950646817684173583984375" lon="1.92171357572078704833984375">
        <ele>2035.199951171875</ele>
        <time>2020-08-10T11:46:07.000Z</time>
      </trkpt>
      <trkpt lat="42.30986170470714569091796875" lon="1.92172137089073657989501953125">
        <ele>2035.199951171875</ele>
        <time>2020-08-10T11:46:09.000Z</time>
      </trkpt>
      <trkpt lat="42.309772856533527374267578125" lon="1.92171919159591197967529296875">
        <ele>2035.199951171875</ele>
        <time>2020-08-10T11:46:14.000Z</time>
      </trkpt>
      <trkpt lat="42.30955098755657672882080078125" lon="1.92170980386435985565185546875">
        <ele>2036.4000244140625</ele>
        <time>2020-08-10T11:46:26.000Z</time>
      </trkpt>
      <trkpt lat="42.309429533779621124267578125" lon="1.92169371061027050018310546875">
        <ele>2036.199951171875</ele>
        <time>2020-08-10T11:46:33.000Z</time>
      </trkpt>
      <trkpt lat="42.30932450853288173675537109375" lon="1.92170041613280773162841796875">
        <ele>2036.199951171875</ele>
        <time>2020-08-10T11:46:38.000Z</time>
      </trkpt>
      <trkpt lat="42.3092307150363922119140625" lon="1.9217308424413204193115234375">
        <ele>2036.4000244140625</ele>
        <time>2020-08-10T11:46:43.000Z</time>
      </trkpt>
      <trkpt lat="42.30909283272922039031982421875" lon="1.92178876139223575592041015625">
        <ele>2036.4000244140625</ele>
        <time>2020-08-10T11:46:49.000Z</time>
      </trkpt>
      <trkpt lat="42.30894195847213268280029296875" lon="1.9219006597995758056640625">
        <ele>2036.4000244140625</ele>
        <time>2020-08-10T11:46:56.000Z</time>
      </trkpt>
      <trkpt lat="42.30875973589718341827392578125" lon="1.92203669808804988861083984375">
        <ele>2036.199951171875</ele>
        <time>2020-08-10T11:47:05.000Z</time>
      </trkpt>
      <trkpt lat="42.3085757531225681304931640625" lon="1.92217516712844371795654296875">
        <ele>2036.199951171875</ele>
        <time>2020-08-10T11:47:14.000Z</time>
      </trkpt>
      <trkpt lat="42.30837366543710231781005859375" lon="1.92224792204797267913818359375">
        <ele>2035.5999755859375</ele>
        <time>2020-08-10T11:47:22.000Z</time>
      </trkpt>
      <trkpt lat="42.30811365880072116851806640625" lon="1.92226988263428211212158203125">
        <ele>2035.4000244140625</ele>
        <time>2020-08-10T11:47:31.000Z</time>
      </trkpt>
      <trkpt lat="42.3078877665102481842041015625" lon="1.9222475029528141021728515625">
        <ele>2035</ele>
        <time>2020-08-10T11:47:38.000Z</time>
      </trkpt>
      <trkpt lat="42.30774820782244205474853515625" lon="1.92222990095615386962890625">
        <ele>2034.5999755859375</ele>
        <time>2020-08-10T11:47:43.000Z</time>
      </trkpt>
      <trkpt lat="42.30766522698104381561279296875" lon="1.9222193397581577301025390625">
        <ele>2034.800048828125</ele>
        <time>2020-08-10T11:47:46.000Z</time>
      </trkpt>
      <trkpt lat="42.3073831759393215179443359375" lon="1.9221747480332851409912109375">
        <ele>2034.199951171875</ele>
        <time>2020-08-10T11:47:56.000Z</time>
      </trkpt>
      <trkpt lat="42.307151667773723602294921875" lon="1.92205555737018585205078125">
        <ele>2034.199951171875</ele>
        <time>2020-08-10T11:48:04.000Z</time>
      </trkpt>
      <trkpt lat="42.307018898427486419677734375" lon="1.92198892123997211456298828125">
        <ele>2033.5999755859375</ele>
        <time>2020-08-10T11:48:09.000Z</time>
      </trkpt>
      <trkpt lat="42.30694706551730632781982421875" lon="1.92195363342761993408203125">
        <ele>2033.199951171875</ele>
        <time>2020-08-10T11:48:12.000Z</time>
      </trkpt>
      <trkpt lat="42.30674137361347675323486328125" lon="1.92190359346568584442138671875">
        <ele>2033.4000244140625</ele>
        <time>2020-08-10T11:48:20.000Z</time>
      </trkpt>
      <trkpt lat="42.306560240685939788818359375" lon="1.92188297398388385772705078125">
        <ele>2033.800048828125</ele>
        <time>2020-08-10T11:48:27.000Z</time>
      </trkpt>
      <trkpt lat="42.3063755035400390625" lon="1.92189873196184635162353515625">
        <ele>2034.5999755859375</ele>
        <time>2020-08-10T11:48:34.000Z</time>
      </trkpt>
      <trkpt lat="42.306324876844882965087890625" lon="1.92191549576818943023681640625">
        <ele>2034.800048828125</ele>
        <time>2020-08-10T11:48:36.000Z</time>
      </trkpt>
      <trkpt lat="42.30609043501317501068115234375" lon="1.9219605065882205963134765625">
        <ele>2035.4000244140625</ele>
        <time>2020-08-10T11:48:45.000Z</time>
      </trkpt>
      <trkpt lat="42.3060367070138454437255859375" lon="1.92196276970207691192626953125">
        <ele>2035.5999755859375</ele>
        <time>2020-08-10T11:48:47.000Z</time>
      </trkpt>
      <trkpt lat="42.305830679833889007568359375" lon="1.92195857875049114227294921875">
        <ele>2035.800048828125</ele>
        <time>2020-08-10T11:48:54.000Z</time>
      </trkpt>
      <trkpt lat="42.305577881634235382080078125" lon="1.9218750111758708953857421875">
        <ele>2036</ele>
        <time>2020-08-10T11:49:03.000Z</time>
      </trkpt>
      <trkpt lat="42.30542524717748165130615234375" lon="1.921776942908763885498046875">
        <ele>2036.5999755859375</ele>
        <time>2020-08-10T11:49:09.000Z</time>
      </trkpt>
      <trkpt lat="42.3054020293056964874267578125" lon="1.92175774835050106048583984375">
        <ele>2036.5999755859375</ele>
        <time>2020-08-10T11:49:10.000Z</time>
      </trkpt>
      <trkpt lat="42.30519960634410381317138671875" lon="1.92157535813748836517333984375">
        <ele>2037.4000244140625</ele>
        <time>2020-08-10T11:49:19.000Z</time>
      </trkpt>
      <trkpt lat="42.305076979100704193115234375" lon="1.92149338312447071075439453125">
        <ele>2037.4000244140625</ele>
        <time>2020-08-10T11:49:24.000Z</time>
      </trkpt>
      <trkpt lat="42.30502559803426265716552734375" lon="1.92148064263164997100830078125">
        <ele>2037.4000244140625</ele>
        <time>2020-08-10T11:49:26.000Z</time>
      </trkpt>
      <trkpt lat="42.30480163358151912689208984375" lon="1.9214787147939205169677734375">
        <ele>2038.199951171875</ele>
        <time>2020-08-10T11:49:34.000Z</time>
      </trkpt>
      <trkpt lat="42.3047204129397869110107421875" lon="1.9214837439358234405517578125">
        <ele>2038.4000244140625</ele>
        <time>2020-08-10T11:49:37.000Z</time>
      </trkpt>
      <trkpt lat="42.30458638630807399749755859375" lon="1.92148852162063121795654296875">
        <ele>2039</ele>
        <time>2020-08-10T11:49:42.000Z</time>
      </trkpt>
      <trkpt lat="42.30450801551342010498046875" lon="1.92150092683732509613037109375">
        <ele>2039.4000244140625</ele>
        <time>2020-08-10T11:49:45.000Z</time>
      </trkpt>
      <trkpt lat="42.3043509386479854583740234375" lon="1.9215554930269718170166015625">
        <ele>2039.800048828125</ele>
        <time>2020-08-10T11:49:51.000Z</time>
      </trkpt>
      <trkpt lat="42.3042322508990764617919921875" lon="1.92164392210543155670166015625">
        <ele>2040.5999755859375</ele>
        <time>2020-08-10T11:49:56.000Z</time>
      </trkpt>
      <trkpt lat="42.30421020649373531341552734375" lon="1.9216637872159481048583984375">
        <ele>2040.800048828125</ele>
        <time>2020-08-10T11:49:57.000Z</time>
      </trkpt>
      <trkpt lat="42.3040996491909027099609375" lon="1.9218572415411472320556640625">
        <ele>2041.199951171875</ele>
        <time>2020-08-10T11:50:04.000Z</time>
      </trkpt>
      <trkpt lat="42.30404692701995372772216796875" lon="1.921982131898403167724609375">
        <ele>2041.4000244140625</ele>
        <time>2020-08-10T11:50:08.000Z</time>
      </trkpt>
      <trkpt lat="42.30396545492112636566162109375" lon="1.9221418909728527069091796875">
        <ele>2042</ele>
        <time>2020-08-10T11:50:14.000Z</time>
      </trkpt>
      <trkpt lat="42.30389655567705631256103515625" lon="1.9222602434456348419189453125">
        <ele>2042.4000244140625</ele>
        <time>2020-08-10T11:50:19.000Z</time>
      </trkpt>
      <trkpt lat="42.30383922345936298370361328125" lon="1.922336854040622711181640625">
        <ele>2042.800048828125</ele>
        <time>2020-08-10T11:50:23.000Z</time>
      </trkpt>
      <trkpt lat="42.3037702403962612152099609375" lon="1.92239812575280666351318359375">
        <ele>2042.800048828125</ele>
        <time>2020-08-10T11:50:29.000Z</time>
      </trkpt>
      <trkpt lat="42.30377200059592723846435546875" lon="1.9224000535905361175537109375">
        <ele>2042.800048828125</ele>
        <time>2020-08-10T11:50:44.000Z</time>
      </trkpt>
      <trkpt lat="42.3037722520530223846435546875" lon="1.92240064032375812530517578125">
        <ele>2043</ele>
        <time>2020-08-10T11:50:55.000Z</time>
      </trkpt>
      <trkpt lat="42.30375775136053562164306640625" lon="1.92242410965263843536376953125">
        <ele>2042.199951171875</ele>
        <time>2020-08-10T11:57:09.000Z</time>
      </trkpt>
      <trkpt lat="42.30374895036220550537109375" lon="1.922422684729099273681640625">
        <ele>2042.199951171875</ele>
        <time>2020-08-10T11:57:12.000Z</time>
      </trkpt>
      <trkpt lat="42.30365800671279430389404296875" lon="1.9224156439304351806640625">
        <ele>2041.800048828125</ele>
        <time>2020-08-10T11:57:18.000Z</time>
      </trkpt>
      <trkpt lat="42.30345834977924823760986328125" lon="1.92246719263494014739990234375">
        <ele>2040.800048828125</ele>
        <time>2020-08-10T11:57:25.000Z</time>
      </trkpt>
      <trkpt lat="42.30320219881832599639892578125" lon="1.922523938119411468505859375">
        <ele>2039.800048828125</ele>
        <time>2020-08-10T11:57:32.000Z</time>
      </trkpt>
      <trkpt lat="42.30315844528377056121826171875" lon="1.92253273911774158477783203125">
        <ele>2039.5999755859375</ele>
        <time>2020-08-10T11:57:33.000Z</time>
      </trkpt>
      <trkpt lat="42.303061969578266143798828125" lon="1.9225526042282581329345703125">
        <ele>2039</ele>
        <time>2020-08-10T11:57:35.000Z</time>
      </trkpt>
      <trkpt lat="42.302951328456401824951171875" lon="1.9225603155791759490966796875">
        <ele>2038.5999755859375</ele>
        <time>2020-08-10T11:57:37.000Z</time>
      </trkpt>
      <trkpt lat="42.3028931580483913421630859375" lon="1.92256115376949310302734375">
        <ele>2038.4000244140625</ele>
        <time>2020-08-10T11:57:38.000Z</time>
      </trkpt>
      <trkpt lat="42.3027746379375457763671875" lon="1.922549419105052947998046875">
        <ele>2037.4000244140625</ele>
        <time>2020-08-10T11:57:40.000Z</time>
      </trkpt>
      <trkpt lat="42.3027157969772815704345703125" lon="1.9225291348993778228759765625">
        <ele>2037</ele>
        <time>2020-08-10T11:57:41.000Z</time>
      </trkpt>
      <trkpt lat="42.30266324244439601898193359375" lon="1.9224885664880275726318359375">
        <ele>2036.5999755859375</ele>
        <time>2020-08-10T11:57:42.000Z</time>
      </trkpt>
      <trkpt lat="42.30262108147144317626953125" lon="1.92242410965263843536376953125">
        <ele>2036</ele>
        <time>2020-08-10T11:57:43.000Z</time>
      </trkpt>
      <trkpt lat="42.30257255025207996368408203125" lon="1.92223685793578624725341796875">
        <ele>2034.4000244140625</ele>
        <time>2020-08-10T11:57:45.000Z</time>
      </trkpt>
      <trkpt lat="42.3025551997125148773193359375" lon="1.9220081157982349395751953125">
        <ele>2033.199951171875</ele>
        <time>2020-08-10T11:57:47.000Z</time>
      </trkpt>
      <trkpt lat="42.30253751389682292938232421875" lon="1.92175917327404022216796875">
        <ele>2031.4000244140625</ele>
        <time>2020-08-10T11:57:49.000Z</time>
      </trkpt>
      <trkpt lat="42.30252678506076335906982421875" lon="1.92162866704165935516357421875">
        <ele>2030.4000244140625</ele>
        <time>2020-08-10T11:57:50.000Z</time>
      </trkpt>
      <trkpt lat="42.30250583030283451080322265625" lon="1.92135809920728206634521484375">
        <ele>2028.800048828125</ele>
        <time>2020-08-10T11:57:52.000Z</time>
      </trkpt>
      <trkpt lat="42.30248018167912960052490234375" lon="1.9210814125835895538330078125">
        <ele>2026.800048828125</ele>
        <time>2020-08-10T11:57:54.000Z</time>
      </trkpt>
      <trkpt lat="42.3024274595081806182861328125" lon="1.92067363299429416656494140625">
        <ele>2025.4000244140625</ele>
        <time>2020-08-10T11:57:57.000Z</time>
      </trkpt>
      <trkpt lat="42.30235143564641475677490234375" lon="1.920292340219020843505859375">
        <ele>2024</ele>
        <time>2020-08-10T11:58:00.000Z</time>
      </trkpt>
      <trkpt lat="42.30230919085443019866943359375" lon="1.920182369649410247802734375">
        <ele>2023.800048828125</ele>
        <time>2020-08-10T11:58:01.000Z</time>
      </trkpt>
      <trkpt lat="42.302116490900516510009765625" lon="1.9199614226818084716796875">
        <ele>2022.800048828125</ele>
        <time>2020-08-10T11:58:04.000Z</time>
      </trkpt>
      <trkpt lat="42.3018841445446014404296875" lon="1.91997726447880268096923828125">
        <ele>2021.4000244140625</ele>
        <time>2020-08-10T11:58:07.000Z</time>
      </trkpt>
      <trkpt lat="42.3017740063369274139404296875" lon="1.92012512125074863433837890625">
        <ele>2021.199951171875</ele>
        <time>2020-08-10T11:58:09.000Z</time>
      </trkpt>
      <trkpt lat="42.30169974267482757568359375" lon="1.92031505517661571502685546875">
        <ele>2020.4000244140625</ele>
        <time>2020-08-10T11:58:11.000Z</time>
      </trkpt>
      <trkpt lat="42.30166143737733364105224609375" lon="1.92040960304439067840576171875">
        <ele>2020</ele>
        <time>2020-08-10T11:58:12.000Z</time>
      </trkpt>
      <trkpt lat="42.30154861696064472198486328125" lon="1.92069442011415958404541015625">
        <ele>2018.5999755859375</ele>
        <time>2020-08-10T11:58:15.000Z</time>
      </trkpt>
      <trkpt lat="42.30142875574529170989990234375" lon="1.9209701009094715118408203125">
        <ele>2017.4000244140625</ele>
        <time>2020-08-10T11:58:18.000Z</time>
      </trkpt>
      <trkpt lat="42.30134208686649799346923828125" lon="1.92115810699760913848876953125">
        <ele>2016.199951171875</ele>
        <time>2020-08-10T11:58:20.000Z</time>
      </trkpt>
      <trkpt lat="42.3012519814074039459228515625" lon="1.9213476218283176422119140625">
        <ele>2015.199951171875</ele>
        <time>2020-08-10T11:58:22.000Z</time>
      </trkpt>
      <trkpt lat="42.30120361782610416412353515625" lon="1.9214368052780628204345703125">
        <ele>2014.5999755859375</ele>
        <time>2020-08-10T11:58:23.000Z</time>
      </trkpt>
      <trkpt lat="42.30115097947418689727783203125" lon="1.92152003757655620574951171875">
        <ele>2014.4000244140625</ele>
        <time>2020-08-10T11:58:24.000Z</time>
      </trkpt>
      <trkpt lat="42.30109029449522495269775390625" lon="1.921595893800258636474609375">
        <ele>2013.4000244140625</ele>
        <time>2020-08-10T11:58:25.000Z</time>
      </trkpt>
      <trkpt lat="42.30094377882778644561767578125" lon="1.9217160902917385101318359375">
        <ele>2012</ele>
        <time>2020-08-10T11:58:27.000Z</time>
      </trkpt>
      <trkpt lat="42.3007705248892307281494140625" lon="1.92180150188505649566650390625">
        <ele>2010.4000244140625</ele>
        <time>2020-08-10T11:58:29.000Z</time>
      </trkpt>
      <trkpt lat="42.30058251880109310150146484375" lon="1.92186302505433559417724609375">
        <ele>2008.4000244140625</ele>
        <time>2020-08-10T11:58:31.000Z</time>
      </trkpt>
      <trkpt lat="42.30038705281913280487060546875" lon="1.92190644331276416778564453125">
        <ele>2006.5999755859375</ele>
        <time>2020-08-10T11:58:33.000Z</time>
      </trkpt>
      <trkpt lat="42.30019426904618740081787109375" lon="1.921941228210926055908203125">
        <ele>2005.4000244140625</ele>
        <time>2020-08-10T11:58:35.000Z</time>
      </trkpt>
      <trkpt lat="42.29999930597841739654541015625" lon="1.92196645773947238922119140625">
        <ele>2003.4000244140625</ele>
        <time>2020-08-10T11:58:37.000Z</time>
      </trkpt>
      <trkpt lat="42.2999019920825958251953125" lon="1.9219759292900562286376953125">
        <ele>2002.5999755859375</ele>
        <time>2020-08-10T11:58:38.000Z</time>
      </trkpt>
      <trkpt lat="42.29980484582483768463134765625" lon="1.921980790793895721435546875">
        <ele>2001.5999755859375</ele>
        <time>2020-08-10T11:58:39.000Z</time>
      </trkpt>
      <trkpt lat="42.2996051050722599029541015625" lon="1.9219628535211086273193359375">
        <ele>1999.800048828125</ele>
        <time>2020-08-10T11:58:41.000Z</time>
      </trkpt>
      <trkpt lat="42.29950645007193088531494140625" lon="1.92193930037319660186767578125">
        <ele>1998.800048828125</ele>
        <time>2020-08-10T11:58:42.000Z</time>
      </trkpt>
      <trkpt lat="42.29940871708095073699951171875" lon="1.92190811969339847564697265625">
        <ele>1998</ele>
        <time>2020-08-10T11:58:43.000Z</time>
      </trkpt>
      <trkpt lat="42.29931031353771686553955078125" lon="1.9218684732913970947265625">
        <ele>1997</ele>
        <time>2020-08-10T11:58:44.000Z</time>
      </trkpt>
      <trkpt lat="42.29921107180416584014892578125" lon="1.92181826569139957427978515625">
        <ele>1995.800048828125</ele>
        <time>2020-08-10T11:58:45.000Z</time>
      </trkpt>
      <trkpt lat="42.2991112433373928070068359375" lon="1.92175808362662792205810546875">
        <ele>1994.800048828125</ele>
        <time>2020-08-10T11:58:46.000Z</time>
      </trkpt>
      <trkpt lat="42.29901175014674663543701171875" lon="1.92168566398322582244873046875">
        <ele>1993</ele>
        <time>2020-08-10T11:58:47.000Z</time>
      </trkpt>
      <trkpt lat="42.29891250841319561004638671875" lon="1.92160486243665218353271484375">
        <ele>1991.800048828125</ele>
        <time>2020-08-10T11:58:48.000Z</time>
      </trkpt>
      <trkpt lat="42.298812009394168853759765625" lon="1.9215206243097782135009765625">
        <ele>1990.4000244140625</ele>
        <time>2020-08-10T11:58:49.000Z</time>
      </trkpt>
      <trkpt lat="42.29870907962322235107421875" lon="1.92143906839191913604736328125">
        <ele>1989.4000244140625</ele>
        <time>2020-08-10T11:58:50.000Z</time>
      </trkpt>
      <trkpt lat="42.29860581457614898681640625" lon="1.92136111669242382049560546875">
        <ele>1988.199951171875</ele>
        <time>2020-08-10T11:58:51.000Z</time>
      </trkpt>
      <trkpt lat="42.2984098456799983978271484375" lon="1.921209990978240966796875">
        <ele>1986.199951171875</ele>
        <time>2020-08-10T11:58:53.000Z</time>
      </trkpt>
      <trkpt lat="42.298323176801204681396484375" lon="1.92112960852682590484619140625">
        <ele>1985.4000244140625</ele>
        <time>2020-08-10T11:58:54.000Z</time>
      </trkpt>
      <trkpt lat="42.29824530892074108123779296875" lon="1.92103900015354156494140625">
        <ele>1984.4000244140625</ele>
        <time>2020-08-10T11:58:55.000Z</time>
      </trkpt>
      <trkpt lat="42.29810893535614013671875" lon="1.920820735394954681396484375">
        <ele>1983</ele>
        <time>2020-08-10T11:58:57.000Z</time>
      </trkpt>
      <trkpt lat="42.2980454005300998687744140625" lon="1.9206988625228404998779296875">
        <ele>1982</ele>
        <time>2020-08-10T11:58:58.000Z</time>
      </trkpt>
      <trkpt lat="42.29798178188502788543701171875" lon="1.92057221196591854095458984375">
        <ele>1981.199951171875</ele>
        <time>2020-08-10T11:58:59.000Z</time>
      </trkpt>
      <trkpt lat="42.29791791178286075592041015625" lon="1.9204450584948062896728515625">
        <ele>1980.199951171875</ele>
        <time>2020-08-10T11:59:00.000Z</time>
      </trkpt>
      <trkpt lat="42.2978546284139156341552734375" lon="1.92031941376626491546630859375">
        <ele>1979</ele>
        <time>2020-08-10T11:59:01.000Z</time>
      </trkpt>
      <trkpt lat="42.2977922670543193817138671875" lon="1.9201956130564212799072265625">
        <ele>1977.800048828125</ele>
        <time>2020-08-10T11:59:02.000Z</time>
      </trkpt>
      <trkpt lat="42.29773049242794513702392578125" lon="1.92007566802203655242919921875">
        <ele>1976.4000244140625</ele>
        <time>2020-08-10T11:59:03.000Z</time>
      </trkpt>
      <trkpt lat="42.297612726688385009765625" lon="1.91985170356929302215576171875">
        <ele>1975</ele>
        <time>2020-08-10T11:59:05.000Z</time>
      </trkpt>
      <trkpt lat="42.29755698703229427337646484375" lon="1.91974709741771221160888671875">
        <ele>1974.5999755859375</ele>
        <time>2020-08-10T11:59:06.000Z</time>
      </trkpt>
      <trkpt lat="42.29750300757586956024169921875" lon="1.9196454249322414398193359375">
        <ele>1973.800048828125</ele>
        <time>2020-08-10T11:59:07.000Z</time>
      </trkpt>
      <trkpt lat="42.29740812443196773529052734375" lon="1.91944920457899570465087890625">
        <ele>1972.199951171875</ele>
        <time>2020-08-10T11:59:09.000Z</time>
      </trkpt>
      <trkpt lat="42.29733000509440898895263671875" lon="1.91926128230988979339599609375">
        <ele>1970.199951171875</ele>
        <time>2020-08-10T11:59:11.000Z</time>
      </trkpt>
      <trkpt lat="42.2972600162029266357421875" lon="1.91908475942909717559814453125">
        <ele>1968.5999755859375</ele>
        <time>2020-08-10T11:59:13.000Z</time>
      </trkpt>
      <trkpt lat="42.29719270952045917510986328125" lon="1.91890756599605083465576171875">
        <ele>1967.199951171875</ele>
        <time>2020-08-10T11:59:15.000Z</time>
      </trkpt>
      <trkpt lat="42.29712967760860919952392578125" lon="1.91872802563011646270751953125">
        <ele>1965.800048828125</ele>
        <time>2020-08-10T11:59:17.000Z</time>
      </trkpt>
      <trkpt lat="42.29707117192447185516357421875" lon="1.9185514189302921295166015625">
        <ele>1964.5999755859375</ele>
        <time>2020-08-10T11:59:19.000Z</time>
      </trkpt>
      <trkpt lat="42.297018282115459442138671875" lon="1.918378584086894989013671875">
        <ele>1963.5999755859375</ele>
        <time>2020-08-10T11:59:21.000Z</time>
      </trkpt>
      <trkpt lat="42.29695801623165607452392578125" lon="1.91820415668189525604248046875">
        <ele>1963</ele>
        <time>2020-08-10T11:59:23.000Z</time>
      </trkpt>
      <trkpt lat="42.2969195432960987091064453125" lon="1.91812184639275074005126953125">
        <ele>1962.5999755859375</ele>
        <time>2020-08-10T11:59:24.000Z</time>
      </trkpt>
      <trkpt lat="42.2968759573996067047119140625" lon="1.91804456524550914764404296875">
        <ele>1962.199951171875</ele>
        <time>2020-08-10T11:59:25.000Z</time>
      </trkpt>
      <trkpt lat="42.29677277617156505584716796875" lon="1.91790693439543247222900390625">
        <ele>1961.4000244140625</ele>
        <time>2020-08-10T11:59:27.000Z</time>
      </trkpt>
      <trkpt lat="42.296713180840015411376953125" lon="1.91784272901713848114013671875">
        <ele>1960.800048828125</ele>
        <time>2020-08-10T11:59:28.000Z</time>
      </trkpt>
      <trkpt lat="42.296652495861053466796875" lon="1.91777349449694156646728515625">
        <ele>1960.199951171875</ele>
        <time>2020-08-10T11:59:29.000Z</time>
      </trkpt>
      <trkpt lat="42.29653514921665191650390625" lon="1.9176139868795871734619140625">
        <ele>1959.199951171875</ele>
        <time>2020-08-10T11:59:31.000Z</time>
      </trkpt>
      <trkpt lat="42.29642140679061412811279296875" lon="1.91743075847625732421875">
        <ele>1958</ele>
        <time>2020-08-10T11:59:33.000Z</time>
      </trkpt>
      <trkpt lat="42.2963680140674114227294921875" lon="1.91732841543853282928466796875">
        <ele>1957.4000244140625</ele>
        <time>2020-08-10T11:59:34.000Z</time>
      </trkpt>
      <trkpt lat="42.29631613008677959442138671875" lon="1.9172193668782711029052734375">
        <ele>1956.4000244140625</ele>
        <time>2020-08-10T11:59:35.000Z</time>
      </trkpt>
      <trkpt lat="42.29620926082134246826171875" lon="1.91698886454105377197265625">
        <ele>1954.800048828125</ele>
        <time>2020-08-10T11:59:37.000Z</time>
      </trkpt>
      <trkpt lat="42.2960937581956386566162109375" lon="1.9167456217110157012939453125">
        <ele>1953.4000244140625</ele>
        <time>2020-08-10T11:59:39.000Z</time>
      </trkpt>
      <trkpt lat="42.29603382758796215057373046875" lon="1.91662274301052093505859375">
        <ele>1952.5999755859375</ele>
        <time>2020-08-10T11:59:40.000Z</time>
      </trkpt>
      <trkpt lat="42.29597163386642932891845703125" lon="1.916499696671962738037109375">
        <ele>1951.800048828125</ele>
        <time>2020-08-10T11:59:41.000Z</time>
      </trkpt>
      <trkpt lat="42.295848838984966278076171875" lon="1.9162541069090366363525390625">
        <ele>1950.4000244140625</ele>
        <time>2020-08-10T11:59:43.000Z</time>
      </trkpt>
      <trkpt lat="42.29574121534824371337890625" lon="1.91601798869669437408447265625">
        <ele>1949</ele>
        <time>2020-08-10T11:59:45.000Z</time>
      </trkpt>
      <trkpt lat="42.2956914268434047698974609375" lon="1.91590650938451290130615234375">
        <ele>1948.4000244140625</ele>
        <time>2020-08-10T11:59:46.000Z</time>
      </trkpt>
      <trkpt lat="42.2956431470811367034912109375" lon="1.91579989157617092132568359375">
        <ele>1947.800048828125</ele>
        <time>2020-08-10T11:59:47.000Z</time>
      </trkpt>
      <trkpt lat="42.29555387981235980987548828125" lon="1.9155909307301044464111328125">
        <ele>1946.800048828125</ele>
        <time>2020-08-10T11:59:49.000Z</time>
      </trkpt>
      <trkpt lat="42.29547844268381595611572265625" lon="1.91537761129438877105712890625">
        <ele>1945.4000244140625</ele>
        <time>2020-08-10T11:59:51.000Z</time>
      </trkpt>
      <trkpt lat="42.29544575326144695281982421875" lon="1.91526764072477817535400390625">
        <ele>1944.800048828125</ele>
        <time>2020-08-10T11:59:52.000Z</time>
      </trkpt>
      <trkpt lat="42.29541599750518798828125" lon="1.91515381447970867156982421875">
        <ele>1944</ele>
        <time>2020-08-10T11:59:53.000Z</time>
      </trkpt>
      <trkpt lat="42.29535958729684352874755859375" lon="1.91491526551544666290283203125">
        <ele>1942.5999755859375</ele>
        <time>2020-08-10T11:59:55.000Z</time>
      </trkpt>
      <trkpt lat="42.29530141688883304595947265625" lon="1.914662383496761322021484375">
        <ele>1941.199951171875</ele>
        <time>2020-08-10T11:59:57.000Z</time>
      </trkpt>
      <trkpt lat="42.29526688344776630401611328125" lon="1.91453103907406330108642578125">
        <ele>1940.199951171875</ele>
        <time>2020-08-10T11:59:58.000Z</time>
      </trkpt>
      <trkpt lat="42.2952295839786529541015625" lon="1.91439516842365264892578125">
        <ele>1939</ele>
        <time>2020-08-10T11:59:59.000Z</time>
      </trkpt>
      <trkpt lat="42.2951512970030307769775390625" lon="1.9141168892383575439453125">
        <ele>1937.199951171875</ele>
        <time>2020-08-10T12:00:01.000Z</time>
      </trkpt>
      <trkpt lat="42.29511131532490253448486328125" lon="1.913980431854724884033203125">
        <ele>1936.199951171875</ele>
        <time>2020-08-10T12:00:02.000Z</time>
      </trkpt>
      <trkpt lat="42.2950311005115509033203125" lon="1.9137029908597469329833984375">
        <ele>1934.4000244140625</ele>
        <time>2020-08-10T12:00:04.000Z</time>
      </trkpt>
      <trkpt lat="42.2949565015733242034912109375" lon="1.91342798061668872833251953125">
        <ele>1932.800048828125</ele>
        <time>2020-08-10T12:00:06.000Z</time>
      </trkpt>
      <trkpt lat="42.2949238121509552001953125" lon="1.9132988154888153076171875">
        <ele>1931.4000244140625</ele>
        <time>2020-08-10T12:00:07.000Z</time>
      </trkpt>
      <trkpt lat="42.2948606126010417938232421875" lon="1.9130475260317325592041015625">
        <ele>1929.800048828125</ele>
        <time>2020-08-10T12:00:09.000Z</time>
      </trkpt>
      <trkpt lat="42.2948066331446170806884765625" lon="1.9128031097352504730224609375">
        <ele>1928.5999755859375</ele>
        <time>2020-08-10T12:00:11.000Z</time>
      </trkpt>
      <trkpt lat="42.29477101005613803863525390625" lon="1.912556849420070648193359375">
        <ele>1926.800048828125</ele>
        <time>2020-08-10T12:00:13.000Z</time>
      </trkpt>
      <trkpt lat="42.294760532677173614501953125" lon="1.9124386645853519439697265625">
        <ele>1925.800048828125</ele>
        <time>2020-08-10T12:00:14.000Z</time>
      </trkpt>
      <trkpt lat="42.29475550353527069091796875" lon="1.91232676617801189422607421875">
        <ele>1924.800048828125</ele>
        <time>2020-08-10T12:00:15.000Z</time>
      </trkpt>
      <trkpt lat="42.2947575151920318603515625" lon="1.9121198169887065887451171875">
        <ele>1923.199951171875</ele>
        <time>2020-08-10T12:00:17.000Z</time>
      </trkpt>
      <trkpt lat="42.2947617061436176300048828125" lon="1.912021078169345855712890625">
        <ele>1922.800048828125</ele>
        <time>2020-08-10T12:00:18.000Z</time>
      </trkpt>
      <trkpt lat="42.29476564563810825347900390625" lon="1.91192460246384143829345703125">
        <ele>1922</ele>
        <time>2020-08-10T12:00:19.000Z</time>
      </trkpt>
      <trkpt lat="42.2947724349796772003173828125" lon="1.911748833954334259033203125">
        <ele>1920.5999755859375</ele>
        <time>2020-08-10T12:00:21.000Z</time>
      </trkpt>
      <trkpt lat="42.29477855376899242401123046875" lon="1.9115714728832244873046875">
        <ele>1919.5999755859375</ele>
        <time>2020-08-10T12:00:23.000Z</time>
      </trkpt>
      <trkpt lat="42.29478307999670505523681640625" lon="1.91127634607255458831787109375">
        <ele>1918.199951171875</ele>
        <time>2020-08-10T12:00:26.000Z</time>
      </trkpt>
      <trkpt lat="42.29477888904511928558349609375" lon="1.91095934249460697174072265625">
        <ele>1917.4000244140625</ele>
        <time>2020-08-10T12:00:29.000Z</time>
      </trkpt>
      <trkpt lat="42.29477922432124614715576171875" lon="1.91085071302950382232666015625">
        <ele>1916.800048828125</ele>
        <time>2020-08-10T12:00:30.000Z</time>
      </trkpt>
      <trkpt lat="42.294785678386688232421875" lon="1.910629011690616607666015625">
        <ele>1915.800048828125</ele>
        <time>2020-08-10T12:00:32.000Z</time>
      </trkpt>
      <trkpt lat="42.294800095260143280029296875" lon="1.9102788157761096954345703125">
        <ele>1914.5999755859375</ele>
        <time>2020-08-10T12:00:35.000Z</time>
      </trkpt>
      <trkpt lat="42.29480235837399959564208984375" lon="1.91015660762786865234375">
        <ele>1914</ele>
        <time>2020-08-10T12:00:36.000Z</time>
      </trkpt>
      <trkpt lat="42.29480319656431674957275390625" lon="1.910031549632549285888671875">
        <ele>1913.5999755859375</ele>
        <time>2020-08-10T12:00:37.000Z</time>
      </trkpt>
      <trkpt lat="42.29480780661106109619140625" lon="1.9097738899290561676025390625">
        <ele>1912</ele>
        <time>2020-08-10T12:00:39.000Z</time>
      </trkpt>
      <trkpt lat="42.29480512440204620361328125" lon="1.90950659103691577911376953125">
        <ele>1911</ele>
        <time>2020-08-10T12:00:41.000Z</time>
      </trkpt>
      <trkpt lat="42.29479707777500152587890625" lon="1.90936912782490253448486328125">
        <ele>1910.5999755859375</ele>
        <time>2020-08-10T12:00:42.000Z</time>
      </trkpt>
      <trkpt lat="42.29478366672992706298828125" lon="1.90923057496547698974609375">
        <ele>1910</ele>
        <time>2020-08-10T12:00:43.000Z</time>
      </trkpt>
      <trkpt lat="42.294739075005054473876953125" lon="1.9089554809033870697021484375">
        <ele>1908.800048828125</ele>
        <time>2020-08-10T12:00:45.000Z</time>
      </trkpt>
      <trkpt lat="42.2947092354297637939453125" lon="1.9088200293481349945068359375">
        <ele>1908.199951171875</ele>
        <time>2020-08-10T12:00:46.000Z</time>
      </trkpt>
      <trkpt lat="42.2946775518357753753662109375" lon="1.9086859188973903656005859375">
        <ele>1907.4000244140625</ele>
        <time>2020-08-10T12:00:47.000Z</time>
      </trkpt>
      <trkpt lat="42.2945850156247615814208984375" lon="1.908292472362518310546875">
        <ele>1906.4000244140625</ele>
        <time>2020-08-10T12:00:50.000Z</time>
      </trkpt>
      <trkpt lat="42.29451804421842098236083984375" lon="1.90791402943432331085205078125">
        <ele>1905.5999755859375</ele>
        <time>2020-08-10T12:00:53.000Z</time>
      </trkpt>
      <trkpt lat="42.29451142251491546630859375" lon="1.9077860377728939056396484375">
        <ele>1905.199951171875</ele>
        <time>2020-08-10T12:00:54.000Z</time>
      </trkpt>
      <trkpt lat="42.29450899176299571990966796875" lon="1.9075245223939418792724609375">
        <ele>1904</ele>
        <time>2020-08-10T12:00:56.000Z</time>
      </trkpt>
      <trkpt lat="42.29450664483010768890380859375" lon="1.9072536192834377288818359375">
        <ele>1903</ele>
        <time>2020-08-10T12:00:58.000Z</time>
      </trkpt>
      <trkpt lat="42.29450044222176074981689453125" lon="1.90697089768946170806884765625">
        <ele>1901.4000244140625</ele>
        <time>2020-08-10T12:01:00.000Z</time>
      </trkpt>
      <trkpt lat="42.29447345249354839324951171875" lon="1.9066906906664371490478515625">
        <ele>1899.800048828125</ele>
        <time>2020-08-10T12:01:02.000Z</time>
      </trkpt>
      <trkpt lat="42.29445149190723896026611328125" lon="1.9065565802156925201416015625">
        <ele>1898.800048828125</ele>
        <time>2020-08-10T12:01:03.000Z</time>
      </trkpt>
      <trkpt lat="42.29442290961742401123046875" lon="1.90642573870718479156494140625">
        <ele>1897.800048828125</ele>
        <time>2020-08-10T12:01:04.000Z</time>
      </trkpt>
      <trkpt lat="42.294385693967342376708984375" lon="1.9062970764935016632080078125">
        <ele>1896.800048828125</ele>
        <time>2020-08-10T12:01:05.000Z</time>
      </trkpt>
      <trkpt lat="42.29433976113796234130859375" lon="1.90617084503173828125">
        <ele>1895.800048828125</ele>
        <time>2020-08-10T12:01:06.000Z</time>
      </trkpt>
      <trkpt lat="42.29428745806217193603515625" lon="1.9060488045215606689453125">
        <ele>1894.800048828125</ele>
        <time>2020-08-10T12:01:07.000Z</time>
      </trkpt>
      <trkpt lat="42.2942336462438106536865234375" lon="1.90593103878200054168701171875">
        <ele>1894</ele>
        <time>2020-08-10T12:01:08.000Z</time>
      </trkpt>
      <trkpt lat="42.29412443004548549652099609375" lon="1.90570489503443241119384765625">
        <ele>1892.4000244140625</ele>
        <time>2020-08-10T12:01:10.000Z</time>
      </trkpt>
      <trkpt lat="42.294031642377376556396484375" lon="1.90548495389521121978759765625">
        <ele>1890.800048828125</ele>
        <time>2020-08-10T12:01:12.000Z</time>
      </trkpt>
      <trkpt lat="42.29400021024048328399658203125" lon="1.905381269752979278564453125">
        <ele>1890.4000244140625</ele>
        <time>2020-08-10T12:01:13.000Z</time>
      </trkpt>
      <trkpt lat="42.29396835900843143463134765625" lon="1.90518354065716266632080078125">
        <ele>1889.800048828125</ele>
        <time>2020-08-10T12:01:15.000Z</time>
      </trkpt>
      <trkpt lat="42.2939671017229557037353515625" lon="1.904993355274200439453125">
        <ele>1889.5999755859375</ele>
        <time>2020-08-10T12:01:17.000Z</time>
      </trkpt>
      <trkpt lat="42.293975315988063812255859375" lon="1.9046257250010967254638671875">
        <ele>1889</ele>
        <time>2020-08-10T12:01:21.000Z</time>
      </trkpt>
      <trkpt lat="42.293965257704257965087890625" lon="1.9045333564281463623046875">
        <ele>1888.800048828125</ele>
        <time>2020-08-10T12:01:22.000Z</time>
      </trkpt>
      <trkpt lat="42.2939533554017543792724609375" lon="1.90444140695035457611083984375">
        <ele>1888.5999755859375</ele>
        <time>2020-08-10T12:01:23.000Z</time>
      </trkpt>
      <trkpt lat="42.293945811688899993896484375" lon="1.90434736199676990509033203125">
        <ele>1888.4000244140625</ele>
        <time>2020-08-10T12:01:24.000Z</time>
      </trkpt>
      <trkpt lat="42.2939677722752094268798828125" lon="1.904071010649204254150390625">
        <ele>1887.800048828125</ele>
        <time>2020-08-10T12:01:27.000Z</time>
      </trkpt>
      <trkpt lat="42.29399082250893115997314453125" lon="1.9039860181510448455810546875">
        <ele>1887.800048828125</ele>
        <time>2020-08-10T12:01:28.000Z</time>
      </trkpt>
      <trkpt lat="42.2940549440681934356689453125" lon="1.903826259076595306396484375">
        <ele>1887.5999755859375</ele>
        <time>2020-08-10T12:01:30.000Z</time>
      </trkpt>
      <trkpt lat="42.29408956132829189300537109375" lon="1.90374520607292652130126953125">
        <ele>1887.5999755859375</ele>
        <time>2020-08-10T12:01:31.000Z</time>
      </trkpt>
      <trkpt lat="42.2942782379686832427978515625" lon="1.9033194892108440399169921875">
        <ele>1886.4000244140625</ele>
        <time>2020-08-10T12:01:36.000Z</time>
      </trkpt>
      <trkpt lat="42.2943090833723545074462890625" lon="1.90322150476276874542236328125">
        <ele>1886</ele>
        <time>2020-08-10T12:01:37.000Z</time>
      </trkpt>
      <trkpt lat="42.29434370063245296478271484375" lon="1.90301095135509967803955078125">
        <ele>1885.199951171875</ele>
        <time>2020-08-10T12:01:39.000Z</time>
      </trkpt>
      <trkpt lat="42.294346131384372711181640625" lon="1.9029050879180431365966796875">
        <ele>1884.800048828125</ele>
        <time>2020-08-10T12:01:40.000Z</time>
      </trkpt>
      <trkpt lat="42.294343449175357818603515625" lon="1.90280006267130374908447265625">
        <ele>1884.5999755859375</ele>
        <time>2020-08-10T12:01:41.000Z</time>
      </trkpt>
      <trkpt lat="42.29432995431125164031982421875" lon="1.902587413787841796875">
        <ele>1883.800048828125</ele>
        <time>2020-08-10T12:01:43.000Z</time>
      </trkpt>
      <trkpt lat="42.29431637562811374664306640625" lon="1.90248155035078525543212890625">
        <ele>1883.5999755859375</ele>
        <time>2020-08-10T12:01:44.000Z</time>
      </trkpt>
      <trkpt lat="42.29429072700440883636474609375" lon="1.9023800455033779144287109375">
        <ele>1883.4000244140625</ele>
        <time>2020-08-10T12:01:45.000Z</time>
      </trkpt>
      <trkpt lat="42.29420422576367855072021484375" lon="1.90219908021390438079833984375">
        <ele>1882.800048828125</ele>
        <time>2020-08-10T12:01:47.000Z</time>
      </trkpt>
      <trkpt lat="42.29411621578037738800048828125" lon="1.9020149298012256622314453125">
        <ele>1882</ele>
        <time>2020-08-10T12:01:49.000Z</time>
      </trkpt>
      <trkpt lat="42.2940764017403125762939453125" lon="1.9019197113811969757080078125">
        <ele>1881.800048828125</ele>
        <time>2020-08-10T12:01:50.000Z</time>
      </trkpt>
      <trkpt lat="42.2938879765570163726806640625" lon="1.90156339667737483978271484375">
        <ele>1880.5999755859375</ele>
        <time>2020-08-10T12:01:54.000Z</time>
      </trkpt>
      <trkpt lat="42.2938346676528453826904296875" lon="1.901479996740818023681640625">
        <ele>1880.4000244140625</ele>
        <time>2020-08-10T12:01:55.000Z</time>
      </trkpt>
      <trkpt lat="42.293665520846843719482421875" lon="1.90122376196086406707763671875">
        <ele>1879.4000244140625</ele>
        <time>2020-08-10T12:01:58.000Z</time>
      </trkpt>
      <trkpt lat="42.29353509843349456787109375" lon="1.9010652601718902587890625">
        <ele>1878.800048828125</ele>
        <time>2020-08-10T12:02:00.000Z</time>
      </trkpt>
      <trkpt lat="42.2934584878385066986083984375" lon="1.9010003842413425445556640625">
        <ele>1878.4000244140625</ele>
        <time>2020-08-10T12:02:01.000Z</time>
      </trkpt>
      <trkpt lat="42.293277271091938018798828125" lon="1.9009487517178058624267578125">
        <ele>1877</ele>
        <time>2020-08-10T12:02:03.000Z</time>
      </trkpt>
      <trkpt lat="42.29308624751865863800048828125" lon="1.9010188244283199310302734375">
        <ele>1875.800048828125</ele>
        <time>2020-08-10T12:02:05.000Z</time>
      </trkpt>
      <trkpt lat="42.29298750869929790496826171875" lon="1.901066601276397705078125">
        <ele>1875.4000244140625</ele>
        <time>2020-08-10T12:02:06.000Z</time>
      </trkpt>
      <trkpt lat="42.29288399219512939453125" lon="1.90110675059258937835693359375">
        <ele>1874.800048828125</ele>
        <time>2020-08-10T12:02:07.000Z</time>
      </trkpt>
      <trkpt lat="42.29266815818846225738525390625" lon="1.90117011778056621551513671875">
        <ele>1873.4000244140625</ele>
        <time>2020-08-10T12:02:09.000Z</time>
      </trkpt>
      <trkpt lat="42.29244620539247989654541015625" lon="1.9012315571308135986328125">
        <ele>1871.800048828125</ele>
        <time>2020-08-10T12:02:11.000Z</time>
      </trkpt>
      <trkpt lat="42.29222626425325870513916015625" lon="1.9012766517698764801025390625">
        <ele>1870.5999755859375</ele>
        <time>2020-08-10T12:02:13.000Z</time>
      </trkpt>
      <trkpt lat="42.2920040600001811981201171875" lon="1.90126030705869197845458984375">
        <ele>1868.5999755859375</ele>
        <time>2020-08-10T12:02:15.000Z</time>
      </trkpt>
      <trkpt lat="42.2916754893958568572998046875" lon="1.9012035615742206573486328125">
        <ele>1867.199951171875</ele>
        <time>2020-08-10T12:02:18.000Z</time>
      </trkpt>
      <trkpt lat="42.29146711528301239013671875" lon="1.90117581747472286224365234375">
        <ele>1866</ele>
        <time>2020-08-10T12:02:20.000Z</time>
      </trkpt>
      <trkpt lat="42.29136996902525424957275390625" lon="1.9011485762894153594970703125">
        <ele>1865.4000244140625</ele>
        <time>2020-08-10T12:02:21.000Z</time>
      </trkpt>
      <trkpt lat="42.29118741117417812347412109375" lon="1.90103500150144100189208984375">
        <ele>1864</ele>
        <time>2020-08-10T12:02:23.000Z</time>
      </trkpt>
      <trkpt lat="42.29110660962760448455810546875" lon="1.9009447284042835235595703125">
        <ele>1863.199951171875</ele>
        <time>2020-08-10T12:02:24.000Z</time>
      </trkpt>
      <trkpt lat="42.291031591594219207763671875" lon="1.90084389410912990570068359375">
        <ele>1862.199951171875</ele>
        <time>2020-08-10T12:02:25.000Z</time>
      </trkpt>
      <trkpt lat="42.29095942340791225433349609375" lon="1.90073878504335880279541015625">
        <ele>1861.199951171875</ele>
        <time>2020-08-10T12:02:26.000Z</time>
      </trkpt>
      <trkpt lat="42.29088985361158847808837890625" lon="1.90063049085438251495361328125">
        <ele>1860.4000244140625</ele>
        <time>2020-08-10T12:02:27.000Z</time>
      </trkpt>
      <trkpt lat="42.2908218763768672943115234375" lon="1.900520436465740203857421875">
        <ele>1859.800048828125</ele>
        <time>2020-08-10T12:02:28.000Z</time>
      </trkpt>
      <trkpt lat="42.29075440205633640289306640625" lon="1.9004099629819393157958984375">
        <ele>1859.4000244140625</ele>
        <time>2020-08-10T12:02:29.000Z</time>
      </trkpt>
      <trkpt lat="42.29068952612578868865966796875" lon="1.9002956338226795196533203125">
        <ele>1858.4000244140625</ele>
        <time>2020-08-10T12:02:30.000Z</time>
      </trkpt>
      <trkpt lat="42.29055541567504405975341796875" lon="1.900067143142223358154296875">
        <ele>1857</ele>
        <time>2020-08-10T12:02:32.000Z</time>
      </trkpt>
      <trkpt lat="42.2904027812182903289794921875" lon="1.89985482953488826751708984375">
        <ele>1855.800048828125</ele>
        <time>2020-08-10T12:02:34.000Z</time>
      </trkpt>
      <trkpt lat="42.29031837545335292816162109375" lon="1.8997601978480815887451171875">
        <ele>1855</ele>
        <time>2020-08-10T12:02:35.000Z</time>
      </trkpt>
      <trkpt lat="42.29023003019392490386962890625" lon="1.8996703438460826873779296875">
        <ele>1854.4000244140625</ele>
        <time>2020-08-10T12:02:36.000Z</time>
      </trkpt>
      <trkpt lat="42.290052585303783416748046875" lon="1.8994835950434207916259765625">
        <ele>1853.199951171875</ele>
        <time>2020-08-10T12:02:38.000Z</time>
      </trkpt>
      <trkpt lat="42.28996482677757740020751953125" lon="1.89938745461404323577880859375">
        <ele>1851.800048828125</ele>
        <time>2020-08-10T12:02:39.000Z</time>
      </trkpt>
      <trkpt lat="42.289791740477085113525390625" lon="1.899196766316890716552734375">
        <ele>1850.199951171875</ele>
        <time>2020-08-10T12:02:41.000Z</time>
      </trkpt>
      <trkpt lat="42.289619408547878265380859375" lon="1.899005658924579620361328125">
        <ele>1848.800048828125</ele>
        <time>2020-08-10T12:02:43.000Z</time>
      </trkpt>
      <trkpt lat="42.28953433223068714141845703125" lon="1.8989114463329315185546875">
        <ele>1848.199951171875</ele>
        <time>2020-08-10T12:02:44.000Z</time>
      </trkpt>
      <trkpt lat="42.28945143520832061767578125" lon="1.89881916157901287078857421875">
        <ele>1847.4000244140625</ele>
        <time>2020-08-10T12:02:45.000Z</time>
      </trkpt>
      <trkpt lat="42.28929729200899600982666015625" lon="1.89863911829888820648193359375">
        <ele>1846</ele>
        <time>2020-08-10T12:02:47.000Z</time>
      </trkpt>
      <trkpt lat="42.28923308663070201873779296875" lon="1.89854733645915985107421875">
        <ele>1845</ele>
        <time>2020-08-10T12:02:48.000Z</time>
      </trkpt>
      <trkpt lat="42.289182208478450775146484375" lon="1.8984502740204334259033203125">
        <ele>1844.199951171875</ele>
        <time>2020-08-10T12:02:49.000Z</time>
      </trkpt>
      <trkpt lat="42.28912848047912120819091796875" lon="1.8982299976050853729248046875">
        <ele>1842.5999755859375</ele>
        <time>2020-08-10T12:02:51.000Z</time>
      </trkpt>
      <trkpt lat="42.2891156561672687530517578125" lon="1.8981153331696987152099609375">
        <ele>1841.800048828125</ele>
        <time>2020-08-10T12:02:52.000Z</time>
      </trkpt>
      <trkpt lat="42.2890975512564182281494140625" lon="1.8980020098388195037841796875">
        <ele>1841.4000244140625</ele>
        <time>2020-08-10T12:02:53.000Z</time>
      </trkpt>
      <trkpt lat="42.28903024457395076751708984375" lon="1.89778483472764492034912109375">
        <ele>1840.5999755859375</ele>
        <time>2020-08-10T12:02:55.000Z</time>
      </trkpt>
      <trkpt lat="42.28898447938263416290283203125" lon="1.897682659327983856201171875">
        <ele>1840</ele>
        <time>2020-08-10T12:02:56.000Z</time>
      </trkpt>
      <trkpt lat="42.28887987323105335235595703125" lon="1.8974846787750720977783203125">
        <ele>1839</ele>
        <time>2020-08-10T12:02:58.000Z</time>
      </trkpt>
      <trkpt lat="42.28878465481102466583251953125" lon="1.89727722667157649993896484375">
        <ele>1837.800048828125</ele>
        <time>2020-08-10T12:03:00.000Z</time>
      </trkpt>
      <trkpt lat="42.288689352571964263916015625" lon="1.8969200737774372100830078125">
        <ele>1836</ele>
        <time>2020-08-10T12:03:03.000Z</time>
      </trkpt>
      <trkpt lat="42.2886761091649532318115234375" lon="1.8968033976852893829345703125">
        <ele>1835</ele>
        <time>2020-08-10T12:03:04.000Z</time>
      </trkpt>
      <trkpt lat="42.28867300786077976226806640625" lon="1.89657448790967464447021484375">
        <ele>1833.5999755859375</ele>
        <time>2020-08-10T12:03:06.000Z</time>
      </trkpt>
      <trkpt lat="42.28869312442839145660400390625" lon="1.89635823480784893035888671875">
        <ele>1832</ele>
        <time>2020-08-10T12:03:08.000Z</time>
      </trkpt>
      <trkpt lat="42.2887103073298931121826171875" lon="1.896254718303680419921875">
        <ele>1831.4000244140625</ele>
        <time>2020-08-10T12:03:09.000Z</time>
      </trkpt>
      <trkpt lat="42.2887297533452510833740234375" lon="1.89615304581820964813232421875">
        <ele>1830.800048828125</ele>
        <time>2020-08-10T12:03:10.000Z</time>
      </trkpt>
      <trkpt lat="42.288751713931560516357421875" lon="1.89605246298015117645263671875">
        <ele>1829.800048828125</ele>
        <time>2020-08-10T12:03:11.000Z</time>
      </trkpt>
      <trkpt lat="42.2888068668544292449951171875" lon="1.8958481959998607635498046875">
        <ele>1828.5999755859375</ele>
        <time>2020-08-10T12:03:13.000Z</time>
      </trkpt>
      <trkpt lat="42.2888464294373989105224609375" lon="1.8957479484379291534423828125">
        <ele>1827.800048828125</ele>
        <time>2020-08-10T12:03:14.000Z</time>
      </trkpt>
      <trkpt lat="42.288899235427379608154296875" lon="1.89565197564661502838134765625">
        <ele>1826.800048828125</ele>
        <time>2020-08-10T12:03:15.000Z</time>
      </trkpt>
      <trkpt lat="42.28904063813388347625732421875" lon="1.89550160430371761322021484375">
        <ele>1825.4000244140625</ele>
        <time>2020-08-10T12:03:17.000Z</time>
      </trkpt>
      <trkpt lat="42.2891999781131744384765625" lon="1.8954042904078960418701171875">
        <ele>1824.199951171875</ele>
        <time>2020-08-10T12:03:19.000Z</time>
      </trkpt>
      <trkpt lat="42.28934288956224918365478515625" lon="1.89527445472776889801025390625">
        <ele>1823.199951171875</ele>
        <time>2020-08-10T12:03:21.000Z</time>
      </trkpt>
      <trkpt lat="42.2893979586660861968994140625" lon="1.89518627710640430450439453125">
        <ele>1822.800048828125</ele>
        <time>2020-08-10T12:03:22.000Z</time>
      </trkpt>
      <trkpt lat="42.28947683237493038177490234375" lon="1.89498879946768283843994140625">
        <ele>1822</ele>
        <time>2020-08-10T12:03:24.000Z</time>
      </trkpt>
      <trkpt lat="42.2895002178847789764404296875" lon="1.894886456429958343505859375">
        <ele>1821.5999755859375</ele>
        <time>2020-08-10T12:03:25.000Z</time>
      </trkpt>
      <trkpt lat="42.2894958592951297760009765625" lon="1.89469308592379093170166015625">
        <ele>1820.4000244140625</ele>
        <time>2020-08-10T12:03:27.000Z</time>
      </trkpt>
      <trkpt lat="42.2894288040697574615478515625" lon="1.89451639540493488311767578125">
        <ele>1819.5999755859375</ele>
        <time>2020-08-10T12:03:29.000Z</time>
      </trkpt>
      <trkpt lat="42.28939376771450042724609375" lon="1.8944294750690460205078125">
        <ele>1818.5999755859375</ele>
        <time>2020-08-10T12:03:30.000Z</time>
      </trkpt>
      <trkpt lat="42.28937071748077869415283203125" lon="1.89433819614350795745849609375">
        <ele>1817.5999755859375</ele>
        <time>2020-08-10T12:03:31.000Z</time>
      </trkpt>
      <trkpt lat="42.2893778420984745025634765625" lon="1.894138120114803314208984375">
        <ele>1816</ele>
        <time>2020-08-10T12:03:33.000Z</time>
      </trkpt>
      <trkpt lat="42.2894402034580707550048828125" lon="1.89394332468509674072265625">
        <ele>1814.4000244140625</ele>
        <time>2020-08-10T12:03:35.000Z</time>
      </trkpt>
      <trkpt lat="42.28948689065873622894287109375" lon="1.89385791309177875518798828125">
        <ele>1813.800048828125</ele>
        <time>2020-08-10T12:03:36.000Z</time>
      </trkpt>
      <trkpt lat="42.28954154066741466522216796875" lon="1.89378549344837665557861328125">
        <ele>1813.4000244140625</ele>
        <time>2020-08-10T12:03:37.000Z</time>
      </trkpt>
      <trkpt lat="42.289665676653385162353515625" lon="1.89369245432317256927490234375">
        <ele>1812.5999755859375</ele>
        <time>2020-08-10T12:03:39.000Z</time>
      </trkpt>
      <trkpt lat="42.28973281569778919219970703125" lon="1.8936749361455440521240234375">
        <ele>1812.199951171875</ele>
        <time>2020-08-10T12:03:40.000Z</time>
      </trkpt>
      <trkpt lat="42.28986575268208980560302734375" lon="1.8936947174370288848876953125">
        <ele>1811.199951171875</ele>
        <time>2020-08-10T12:03:42.000Z</time>
      </trkpt>
      <trkpt lat="42.2899270243942737579345703125" lon="1.893704272806644439697265625">
        <ele>1810.5999755859375</ele>
        <time>2020-08-10T12:03:43.000Z</time>
      </trkpt>
      <trkpt lat="42.29004613123834133148193359375" lon="1.893660686910152435302734375">
        <ele>1809.5999755859375</ele>
        <time>2020-08-10T12:03:45.000Z</time>
      </trkpt>
      <trkpt lat="42.2901060618460178375244140625" lon="1.89361366443336009979248046875">
        <ele>1809.199951171875</ele>
        <time>2020-08-10T12:03:46.000Z</time>
      </trkpt>
      <trkpt lat="42.29016850702464580535888671875" lon="1.89355951733887195587158203125">
        <ele>1808.5999755859375</ele>
        <time>2020-08-10T12:03:47.000Z</time>
      </trkpt>
      <trkpt lat="42.2902351431548595428466796875" lon="1.89350302331149578094482421875">
        <ele>1807.800048828125</ele>
        <time>2020-08-10T12:03:48.000Z</time>
      </trkpt>
      <trkpt lat="42.2903068922460079193115234375" lon="1.8934451043605804443359375">
        <ele>1807.199951171875</ele>
        <time>2020-08-10T12:03:49.000Z</time>
      </trkpt>
      <trkpt lat="42.29038350284099578857421875" lon="1.8933859281241893768310546875">
        <ele>1806.5999755859375</ele>
        <time>2020-08-10T12:03:50.000Z</time>
      </trkpt>
      <trkpt lat="42.290550135076045989990234375" lon="1.89327101223170757293701171875">
        <ele>1805</ele>
        <time>2020-08-10T12:03:52.000Z</time>
      </trkpt>
      <trkpt lat="42.29072816669940948486328125" lon="1.8931569345295429229736328125">
        <ele>1803.5999755859375</ele>
        <time>2020-08-10T12:03:54.000Z</time>
      </trkpt>
      <trkpt lat="42.29091868735849857330322265625" lon="1.8930650688707828521728515625">
        <ele>1802.199951171875</ele>
        <time>2020-08-10T12:03:56.000Z</time>
      </trkpt>
      <trkpt lat="42.2910957969725131988525390625" lon="1.8930131010711193084716796875">
        <ele>1801.4000244140625</ele>
        <time>2020-08-10T12:03:58.000Z</time>
      </trkpt>
      <trkpt lat="42.29117450304329395294189453125" lon="1.892996840178966522216796875">
        <ele>1800.800048828125</ele>
        <time>2020-08-10T12:03:59.000Z</time>
      </trkpt>
      <trkpt lat="42.29140819050371646881103515625" lon="1.892959289252758026123046875">
        <ele>1800</ele>
        <time>2020-08-10T12:04:02.000Z</time>
      </trkpt>
      <trkpt lat="42.29148664511740207672119140625" lon="1.89296842552721500396728515625">
        <ele>1800</ele>
        <time>2020-08-10T12:04:03.000Z</time>
      </trkpt>
      <trkpt lat="42.291563339531421661376953125" lon="1.8929939903318881988525390625">
        <ele>1799.5999755859375</ele>
        <time>2020-08-10T12:04:04.000Z</time>
      </trkpt>
      <trkpt lat="42.29171060957014560699462890625" lon="1.89307160675525665283203125">
        <ele>1799.199951171875</ele>
        <time>2020-08-10T12:04:06.000Z</time>
      </trkpt>
      <trkpt lat="42.29178152047097682952880859375" lon="1.89311611466109752655029296875">
        <ele>1799</ele>
        <time>2020-08-10T12:04:07.000Z</time>
      </trkpt>
      <trkpt lat="42.29198503307998180389404296875" lon="1.89322541467845439910888671875">
        <ele>1798.5999755859375</ele>
        <time>2020-08-10T12:04:10.000Z</time>
      </trkpt>
      <trkpt lat="42.29211126454174518585205078125" lon="1.8932347185909748077392578125">
        <ele>1798.199951171875</ele>
        <time>2020-08-10T12:04:12.000Z</time>
      </trkpt>
      <trkpt lat="42.292209081351757049560546875" lon="1.89314058981835842132568359375">
        <ele>1797.800048828125</ele>
        <time>2020-08-10T12:04:14.000Z</time>
      </trkpt>
      <trkpt lat="42.2922330535948276519775390625" lon="1.8930576927959918975830078125">
        <ele>1797.199951171875</ele>
        <time>2020-08-10T12:04:15.000Z</time>
      </trkpt>
      <trkpt lat="42.29223229922354221343994140625" lon="1.89296691678464412689208984375">
        <ele>1796.5999755859375</ele>
        <time>2020-08-10T12:04:16.000Z</time>
      </trkpt>
      <trkpt lat="42.2922069020569324493408203125" lon="1.89288008026778697967529296875">
        <ele>1796</ele>
        <time>2020-08-10T12:04:17.000Z</time>
      </trkpt>
      <trkpt lat="42.2921093367040157318115234375" lon="1.8927214108407497406005859375">
        <ele>1795.199951171875</ele>
        <time>2020-08-10T12:04:19.000Z</time>
      </trkpt>
      <trkpt lat="42.29204915463924407958984375" lon="1.89263482578098773956298828125">
        <ele>1794.5999755859375</ele>
        <time>2020-08-10T12:04:20.000Z</time>
      </trkpt>
      <trkpt lat="42.2919262759387493133544921875" lon="1.89244925044476985931396484375">
        <ele>1793.5999755859375</ele>
        <time>2020-08-10T12:04:22.000Z</time>
      </trkpt>
      <trkpt lat="42.29180566035211086273193359375" lon="1.89225864596664905548095703125">
        <ele>1792</ele>
        <time>2020-08-10T12:04:24.000Z</time>
      </trkpt>
      <trkpt lat="42.29174816049635410308837890625" lon="1.89215739257633686065673828125">
        <ele>1791.4000244140625</ele>
        <time>2020-08-10T12:04:25.000Z</time>
      </trkpt>
      <trkpt lat="42.2916909120976924896240234375" lon="1.8920495174825191497802734375">
        <ele>1790.800048828125</ele>
        <time>2020-08-10T12:04:26.000Z</time>
      </trkpt>
      <trkpt lat="42.29151112027466297149658203125" lon="1.8917263112962245941162109375">
        <ele>1789.199951171875</ele>
        <time>2020-08-10T12:04:29.000Z</time>
      </trkpt>
      <trkpt lat="42.2913774289190769195556640625" lon="1.89151969738304615020751953125">
        <ele>1788</ele>
        <time>2020-08-10T12:04:31.000Z</time>
      </trkpt>
      <trkpt lat="42.29130023159086704254150390625" lon="1.89142682589590549468994140625">
        <ele>1787.5999755859375</ele>
        <time>2020-08-10T12:04:32.000Z</time>
      </trkpt>
      <trkpt lat="42.29112689383327960968017578125" lon="1.89127461053431034088134765625">
        <ele>1787</ele>
        <time>2020-08-10T12:04:34.000Z</time>
      </trkpt>
      <trkpt lat="42.2910324297845363616943359375" lon="1.89121979288756847381591796875">
        <ele>1786.5999755859375</ele>
        <time>2020-08-10T12:04:35.000Z</time>
      </trkpt>
      <trkpt lat="42.2908307611942291259765625" lon="1.89116028137505054473876953125">
        <ele>1785.800048828125</ele>
        <time>2020-08-10T12:04:37.000Z</time>
      </trkpt>
      <trkpt lat="42.29072682559490203857421875" lon="1.8911499716341495513916015625">
        <ele>1785.4000244140625</ele>
        <time>2020-08-10T12:04:38.000Z</time>
      </trkpt>
      <trkpt lat="42.2906223870813846588134765625" lon="1.89113848842680454254150390625">
        <ele>1784.800048828125</ele>
        <time>2020-08-10T12:04:39.000Z</time>
      </trkpt>
      <trkpt lat="42.29031250812113285064697265625" lon="1.8911187909543514251708984375">
        <ele>1783.199951171875</ele>
        <time>2020-08-10T12:04:42.000Z</time>
      </trkpt>
      <trkpt lat="42.2901047207415103912353515625" lon="1.89110663719475269317626953125">
        <ele>1781.800048828125</ele>
        <time>2020-08-10T12:04:44.000Z</time>
      </trkpt>
      <trkpt lat="42.2898951731622219085693359375" lon="1.8910782225430011749267578125">
        <ele>1780.5999755859375</ele>
        <time>2020-08-10T12:04:46.000Z</time>
      </trkpt>
      <trkpt lat="42.2896886430680751800537109375" lon="1.89103891141712665557861328125">
        <ele>1779.199951171875</ele>
        <time>2020-08-10T12:04:48.000Z</time>
      </trkpt>
      <trkpt lat="42.289492003619670867919921875" lon="1.890995241701602935791015625">
        <ele>1778</ele>
        <time>2020-08-10T12:04:50.000Z</time>
      </trkpt>
      <trkpt lat="42.2893161512911319732666015625" lon="1.89093866385519504547119140625">
        <ele>1777.199951171875</ele>
        <time>2020-08-10T12:04:52.000Z</time>
      </trkpt>
      <trkpt lat="42.2892460785806179046630859375" lon="1.89090027473866939544677734375">
        <ele>1777</ele>
        <time>2020-08-10T12:04:53.000Z</time>
      </trkpt>
      <trkpt lat="42.289191596210002899169921875" lon="1.89084311015903949737548828125">
        <ele>1776.5999755859375</ele>
        <time>2020-08-10T12:04:54.000Z</time>
      </trkpt>
      <trkpt lat="42.2891552187502384185791015625" lon="1.8907628953456878662109375">
        <ele>1776.4000244140625</ele>
        <time>2020-08-10T12:04:55.000Z</time>
      </trkpt>
      <trkpt lat="42.289145328104496002197265625" lon="1.89046005718410015106201171875">
        <ele>1775.4000244140625</ele>
        <time>2020-08-10T12:04:58.000Z</time>
      </trkpt>
      <trkpt lat="42.289160080254077911376953125" lon="1.8903533555567264556884765625">
        <ele>1775</ele>
        <time>2020-08-10T12:04:59.000Z</time>
      </trkpt>
      <trkpt lat="42.28919955901801586151123046875" lon="1.89013324677944183349609375">
        <ele>1774</ele>
        <time>2020-08-10T12:05:01.000Z</time>
      </trkpt>
      <trkpt lat="42.28925253264605998992919921875" lon="1.88990232534706592559814453125">
        <ele>1773</ele>
        <time>2020-08-10T12:05:03.000Z</time>
      </trkpt>
      <trkpt lat="42.2892873175442218780517578125" lon="1.8897850625216960906982421875">
        <ele>1772.5999755859375</ele>
        <time>2020-08-10T12:05:04.000Z</time>
      </trkpt>
      <trkpt lat="42.28933232836425304412841796875" lon="1.88966981135308742523193359375">
        <ele>1772</ele>
        <time>2020-08-10T12:05:05.000Z</time>
      </trkpt>
      <trkpt lat="42.28945101611316204071044921875" lon="1.8894625268876552581787109375">
        <ele>1770.800048828125</ele>
        <time>2020-08-10T12:05:07.000Z</time>
      </trkpt>
      <trkpt lat="42.2896819375455379486083984375" lon="1.8892234750092029571533203125">
        <ele>1769</ele>
        <time>2020-08-10T12:05:10.000Z</time>
      </trkpt>
      <trkpt lat="42.2898423671722412109375" lon="1.88907151110470294952392578125">
        <ele>1767.800048828125</ele>
        <time>2020-08-10T12:05:12.000Z</time>
      </trkpt>
      <trkpt lat="42.28999718092381954193115234375" lon="1.888893060386180877685546875">
        <ele>1766.4000244140625</ele>
        <time>2020-08-10T12:05:14.000Z</time>
      </trkpt>
      <trkpt lat="42.2900772280991077423095703125" lon="1.8887996859848499298095703125">
        <ele>1765.800048828125</ele>
        <time>2020-08-10T12:05:15.000Z</time>
      </trkpt>
      <trkpt lat="42.29015953838825225830078125" lon="1.88870723359286785125732421875">
        <ele>1765.4000244140625</ele>
        <time>2020-08-10T12:05:16.000Z</time>
      </trkpt>
      <trkpt lat="42.29031451977789402008056640625" lon="1.88851092942059040069580078125">
        <ele>1763.800048828125</ele>
        <time>2020-08-10T12:05:18.000Z</time>
      </trkpt>
      <trkpt lat="42.29044653475284576416015625" lon="1.8882910721004009246826171875">
        <ele>1762.5999755859375</ele>
        <time>2020-08-10T12:05:20.000Z</time>
      </trkpt>
      <trkpt lat="42.2906287573277950286865234375" lon="1.88794263638556003570556640625">
        <ele>1761.4000244140625</ele>
        <time>2020-08-10T12:05:23.000Z</time>
      </trkpt>
      <trkpt lat="42.290756665170192718505859375" lon="1.887719593942165374755859375">
        <ele>1760.199951171875</ele>
        <time>2020-08-10T12:05:25.000Z</time>
      </trkpt>
      <trkpt lat="42.2908924520015716552734375" lon="1.88753376714885234832763671875">
        <ele>1758.800048828125</ele>
        <time>2020-08-10T12:05:27.000Z</time>
      </trkpt>
      <trkpt lat="42.29103117249906063079833984375" lon="1.88737434335052967071533203125">
        <ele>1757.5999755859375</ele>
        <time>2020-08-10T12:05:29.000Z</time>
      </trkpt>
      <trkpt lat="42.29121792130172252655029296875" lon="1.88716395758092403411865234375">
        <ele>1756.199951171875</ele>
        <time>2020-08-10T12:05:32.000Z</time>
      </trkpt>
      <trkpt lat="42.29126586578786373138427734375" lon="1.8870907835662364959716796875">
        <ele>1755.4000244140625</ele>
        <time>2020-08-10T12:05:33.000Z</time>
      </trkpt>
      <trkpt lat="42.291303835809230804443359375" lon="1.887014843523502349853515625">
        <ele>1755</ele>
        <time>2020-08-10T12:05:34.000Z</time>
      </trkpt>
      <trkpt lat="42.2913308255374431610107421875" lon="1.88693580217659473419189453125">
        <ele>1754.199951171875</ele>
        <time>2020-08-10T12:05:35.000Z</time>
      </trkpt>
      <trkpt lat="42.29134448803961277008056640625" lon="1.8868550844490528106689453125">
        <ele>1753.5999755859375</ele>
        <time>2020-08-10T12:05:36.000Z</time>
      </trkpt>
      <trkpt lat="42.291322611272335052490234375" lon="1.88671074807643890380859375">
        <ele>1752.4000244140625</ele>
        <time>2020-08-10T12:05:38.000Z</time>
      </trkpt>
      <trkpt lat="42.29122697375714778900146484375" lon="1.88661980442702770233154296875">
        <ele>1751.199951171875</ele>
        <time>2020-08-10T12:05:40.000Z</time>
      </trkpt>
      <trkpt lat="42.2911574877798557281494140625" lon="1.886613853275775909423828125">
        <ele>1750.5999755859375</ele>
        <time>2020-08-10T12:05:41.000Z</time>
      </trkpt>
      <trkpt lat="42.29108347557485103607177734375" lon="1.88664126209914684295654296875">
        <ele>1750</ele>
        <time>2020-08-10T12:05:42.000Z</time>
      </trkpt>
      <trkpt lat="42.29100971482694149017333984375" lon="1.88669440336525440216064453125">
        <ele>1749</ele>
        <time>2020-08-10T12:05:43.000Z</time>
      </trkpt>
      <trkpt lat="42.290935702621936798095703125" lon="1.88676246441900730133056640625">
        <ele>1748.4000244140625</ele>
        <time>2020-08-10T12:05:44.000Z</time>
      </trkpt>
      <trkpt lat="42.29086185805499553680419921875" lon="1.8868399970233440399169921875">
        <ele>1747.199951171875</ele>
        <time>2020-08-10T12:05:45.000Z</time>
      </trkpt>
      <trkpt lat="42.29078893549740314483642578125" lon="1.886925660073757171630859375">
        <ele>1746.199951171875</ele>
        <time>2020-08-10T12:05:46.000Z</time>
      </trkpt>
      <trkpt lat="42.29064392857253551483154296875" lon="1.88711282797157764434814453125">
        <ele>1744.4000244140625</ele>
        <time>2020-08-10T12:05:48.000Z</time>
      </trkpt>
      <trkpt lat="42.29057150892913341522216796875" lon="1.88721307553350925445556640625">
        <ele>1743.800048828125</ele>
        <time>2020-08-10T12:05:49.000Z</time>
      </trkpt>
      <trkpt lat="42.290499843657016754150390625" lon="1.8873174302279949188232421875">
        <ele>1743</ele>
        <time>2020-08-10T12:05:50.000Z</time>
      </trkpt>
      <trkpt lat="42.29042918421328067779541015625" lon="1.88742664642632007598876953125">
        <ele>1742.199951171875</ele>
        <time>2020-08-10T12:05:51.000Z</time>
      </trkpt>
      <trkpt lat="42.29036045260727405548095703125" lon="1.88753963448107242584228515625">
        <ele>1741.4000244140625</ele>
        <time>2020-08-10T12:05:52.000Z</time>
      </trkpt>
      <trkpt lat="42.29023304767906665802001953125" lon="1.88776695169508457183837890625">
        <ele>1740</ele>
        <time>2020-08-10T12:05:54.000Z</time>
      </trkpt>
      <trkpt lat="42.29011285118758678436279296875" lon="1.88797985203564167022705078125">
        <ele>1738.4000244140625</ele>
        <time>2020-08-10T12:05:56.000Z</time>
      </trkpt>
      <trkpt lat="42.289960384368896484375" lon="1.8881623260676860809326171875">
        <ele>1736.4000244140625</ele>
        <time>2020-08-10T12:05:58.000Z</time>
      </trkpt>
      <trkpt lat="42.28987094946205615997314453125" lon="1.8882454745471477508544921875">
        <ele>1735.199951171875</ele>
        <time>2020-08-10T12:05:59.000Z</time>
      </trkpt>
      <trkpt lat="42.28977489285171031951904296875" lon="1.88832812011241912841796875">
        <ele>1734.199951171875</ele>
        <time>2020-08-10T12:06:00.000Z</time>
      </trkpt>
      <trkpt lat="42.28967665694653987884521484375" lon="1.8884094245731830596923828125">
        <ele>1733.199951171875</ele>
        <time>2020-08-10T12:06:01.000Z</time>
      </trkpt>
      <trkpt lat="42.28958009742200374603271484375" lon="1.88848310150206089019775390625">
        <ele>1732</ele>
        <time>2020-08-10T12:06:02.000Z</time>
      </trkpt>
      <trkpt lat="42.28948588483035564422607421875" lon="1.8885415233671665191650390625">
        <ele>1730.800048828125</ele>
        <time>2020-08-10T12:06:03.000Z</time>
      </trkpt>
      <trkpt lat="42.28939351625740528106689453125" lon="1.8885784037411212921142578125">
        <ele>1729.800048828125</ele>
        <time>2020-08-10T12:06:04.000Z</time>
      </trkpt>
      <trkpt lat="42.289301566779613494873046875" lon="1.8885958380997180938720703125">
        <ele>1728.5999755859375</ele>
        <time>2020-08-10T12:06:05.000Z</time>
      </trkpt>
      <trkpt lat="42.28911037556827068328857421875" lon="1.88862324692308902740478515625">
        <ele>1726.800048828125</ele>
        <time>2020-08-10T12:06:07.000Z</time>
      </trkpt>
      <trkpt lat="42.28901666589081287384033203125" lon="1.88865400850772857666015625">
        <ele>1725.5999755859375</ele>
        <time>2020-08-10T12:06:08.000Z</time>
      </trkpt>
      <trkpt lat="42.2889263927936553955078125" lon="1.8886980973184108734130859375">
        <ele>1724.5999755859375</ele>
        <time>2020-08-10T12:06:09.000Z</time>
      </trkpt>
      <trkpt lat="42.28884064592421054840087890625" lon="1.8887520767748355865478515625">
        <ele>1723.199951171875</ele>
        <time>2020-08-10T12:06:10.000Z</time>
      </trkpt>
      <trkpt lat="42.28869144804775714874267578125" lon="1.88889549113810062408447265625">
        <ele>1721.4000244140625</ele>
        <time>2020-08-10T12:06:12.000Z</time>
      </trkpt>
      <trkpt lat="42.28857032954692840576171875" lon="1.8890890292823314666748046875">
        <ele>1720.199951171875</ele>
        <time>2020-08-10T12:06:14.000Z</time>
      </trkpt>
      <trkpt lat="42.2885215468704700469970703125" lon="1.88920511864125728607177734375">
        <ele>1719.199951171875</ele>
        <time>2020-08-10T12:06:15.000Z</time>
      </trkpt>
      <trkpt lat="42.288476787507534027099609375" lon="1.88932749442756175994873046875">
        <ele>1718.4000244140625</ele>
        <time>2020-08-10T12:06:16.000Z</time>
      </trkpt>
      <trkpt lat="42.288376204669475555419921875" lon="1.88956939615309238433837890625">
        <ele>1716.800048828125</ele>
        <time>2020-08-10T12:06:18.000Z</time>
      </trkpt>
      <trkpt lat="42.2882397472858428955078125" lon="1.8897931091487407684326171875">
        <ele>1715.199951171875</ele>
        <time>2020-08-10T12:06:20.000Z</time>
      </trkpt>
      <trkpt lat="42.28807973675429821014404296875" lon="1.89001715742051601409912109375">
        <ele>1713.4000244140625</ele>
        <time>2020-08-10T12:06:22.000Z</time>
      </trkpt>
      <trkpt lat="42.2879073210060596466064453125" lon="1.89025126397609710693359375">
        <ele>1711.800048828125</ele>
        <time>2020-08-10T12:06:24.000Z</time>
      </trkpt>
      <trkpt lat="42.28781805373728275299072265625" lon="1.8903701193630695343017578125">
        <ele>1710.800048828125</ele>
        <time>2020-08-10T12:06:25.000Z</time>
      </trkpt>
      <trkpt lat="42.2877286188304424285888671875" lon="1.89048553816974163055419921875">
        <ele>1709.5999755859375</ele>
        <time>2020-08-10T12:06:26.000Z</time>
      </trkpt>
      <trkpt lat="42.28763951919972896575927734375" lon="1.8905971013009548187255859375">
        <ele>1708.5999755859375</ele>
        <time>2020-08-10T12:06:27.000Z</time>
      </trkpt>
      <trkpt lat="42.28755150921642780303955078125" lon="1.8907077424228191375732421875">
        <ele>1707.4000244140625</ele>
        <time>2020-08-10T12:06:28.000Z</time>
      </trkpt>
      <trkpt lat="42.28746383450925350189208984375" lon="1.89081528224050998687744140625">
        <ele>1706.199951171875</ele>
        <time>2020-08-10T12:06:29.000Z</time>
      </trkpt>
      <trkpt lat="42.2873759083449840545654296875" lon="1.89091536216437816619873046875">
        <ele>1705.199951171875</ele>
        <time>2020-08-10T12:06:30.000Z</time>
      </trkpt>
      <trkpt lat="42.2872884012758731842041015625" lon="1.89101041294634342193603515625">
        <ele>1704.199951171875</ele>
        <time>2020-08-10T12:06:31.000Z</time>
      </trkpt>
      <trkpt lat="42.28720106184482574462890625" lon="1.89110361970961093902587890625">
        <ele>1703.4000244140625</ele>
        <time>2020-08-10T12:06:32.000Z</time>
      </trkpt>
      <trkpt lat="42.2870295681059360504150390625" lon="1.89129103906452655792236328125">
        <ele>1701.800048828125</ele>
        <time>2020-08-10T12:06:34.000Z</time>
      </trkpt>
      <trkpt lat="42.286876179277896881103515625" lon="1.891483403742313385009765625">
        <ele>1700.4000244140625</ele>
        <time>2020-08-10T12:06:36.000Z</time>
      </trkpt>
      <trkpt lat="42.28680266998708248138427734375" lon="1.891577951610088348388671875">
        <ele>1699.800048828125</ele>
        <time>2020-08-10T12:06:37.000Z</time>
      </trkpt>
      <trkpt lat="42.2867271490395069122314453125" lon="1.891669817268848419189453125">
        <ele>1699</ele>
        <time>2020-08-10T12:06:38.000Z</time>
      </trkpt>
      <trkpt lat="42.28656277991831302642822265625" lon="1.89183804206550121307373046875">
        <ele>1697.4000244140625</ele>
        <time>2020-08-10T12:06:40.000Z</time>
      </trkpt>
      <trkpt lat="42.2864721715450286865234375" lon="1.89191113226115703582763671875">
        <ele>1696.5999755859375</ele>
        <time>2020-08-10T12:06:41.000Z</time>
      </trkpt>
      <trkpt lat="42.2863764502108097076416015625" lon="1.8919744156301021575927734375">
        <ele>1696</ele>
        <time>2020-08-10T12:06:42.000Z</time>
      </trkpt>
      <trkpt lat="42.2861719317734241485595703125" lon="1.8920662812888622283935546875">
        <ele>1693.800048828125</ele>
        <time>2020-08-10T12:06:44.000Z</time>
      </trkpt>
      <trkpt lat="42.2860671579837799072265625" lon="1.8920988030731678009033203125">
        <ele>1693</ele>
        <time>2020-08-10T12:06:45.000Z</time>
      </trkpt>
      <trkpt lat="42.285962216556072235107421875" lon="1.89212805591523647308349609375">
        <ele>1692</ele>
        <time>2020-08-10T12:06:46.000Z</time>
      </trkpt>
      <trkpt lat="42.2858561016619205474853515625" lon="1.89215563237667083740234375">
        <ele>1690.800048828125</ele>
        <time>2020-08-10T12:06:47.000Z</time>
      </trkpt>
      <trkpt lat="42.285639345645904541015625" lon="1.89220097847282886505126953125">
        <ele>1689.4000244140625</ele>
        <time>2020-08-10T12:06:49.000Z</time>
      </trkpt>
      <trkpt lat="42.28542149998247623443603515625" lon="1.8922480009496212005615234375">
        <ele>1687.5999755859375</ele>
        <time>2020-08-10T12:06:51.000Z</time>
      </trkpt>
      <trkpt lat="42.2853149659931659698486328125" lon="1.892278008162975311279296875">
        <ele>1686.800048828125</ele>
        <time>2020-08-10T12:06:52.000Z</time>
      </trkpt>
      <trkpt lat="42.2852073423564434051513671875" lon="1.892310194671154022216796875">
        <ele>1686</ele>
        <time>2020-08-10T12:06:53.000Z</time>
      </trkpt>
      <trkpt lat="42.28499226272106170654296875" lon="1.8923829495906829833984375">
        <ele>1684.4000244140625</ele>
        <time>2020-08-10T12:06:55.000Z</time>
      </trkpt>
      <trkpt lat="42.28478162549436092376708984375" lon="1.89245293848216533660888671875">
        <ele>1683</ele>
        <time>2020-08-10T12:06:57.000Z</time>
      </trkpt>
      <trkpt lat="42.28459403850138187408447265625" lon="1.89250658266246318817138671875">
        <ele>1681.199951171875</ele>
        <time>2020-08-10T12:06:59.000Z</time>
      </trkpt>
      <trkpt lat="42.28451617062091827392578125" lon="1.89251898787915706634521484375">
        <ele>1680.4000244140625</ele>
        <time>2020-08-10T12:07:00.000Z</time>
      </trkpt>
      <trkpt lat="42.28444718755781650543212890625" lon="1.8925135396420955657958984375">
        <ele>1679.4000244140625</ele>
        <time>2020-08-10T12:07:01.000Z</time>
      </trkpt>
      <trkpt lat="42.2843855805695056915283203125" lon="1.89248663373291492462158203125">
        <ele>1678.4000244140625</ele>
        <time>2020-08-10T12:07:02.000Z</time>
      </trkpt>
      <trkpt lat="42.2842920385301113128662109375" lon="1.8923606537282466888427734375">
        <ele>1677</ele>
        <time>2020-08-10T12:07:04.000Z</time>
      </trkpt>
      <trkpt lat="42.2842648811638355255126953125" lon="1.892269290983676910400390625">
        <ele>1676.4000244140625</ele>
        <time>2020-08-10T12:07:05.000Z</time>
      </trkpt>
      <trkpt lat="42.28424727916717529296875" lon="1.89217030070722103118896484375">
        <ele>1675.5999755859375</ele>
        <time>2020-08-10T12:07:06.000Z</time>
      </trkpt>
      <trkpt lat="42.28423378430306911468505859375" lon="1.89196787774562835693359375">
        <ele>1674.199951171875</ele>
        <time>2020-08-10T12:07:08.000Z</time>
      </trkpt>
      <trkpt lat="42.28423361666500568389892578125" lon="1.89186997711658477783203125">
        <ele>1673.4000244140625</ele>
        <time>2020-08-10T12:07:09.000Z</time>
      </trkpt>
      <trkpt lat="42.2842347063124179840087890625" lon="1.8917766027152538299560546875">
        <ele>1673</ele>
        <time>2020-08-10T12:07:10.000Z</time>
      </trkpt>
      <trkpt lat="42.28423160500824451446533203125" lon="1.891605444252490997314453125">
        <ele>1672</ele>
        <time>2020-08-10T12:07:12.000Z</time>
      </trkpt>
      <trkpt lat="42.28421936742961406707763671875" lon="1.89153009094297885894775390625">
        <ele>1671.4000244140625</ele>
        <time>2020-08-10T12:07:13.000Z</time>
      </trkpt>
      <trkpt lat="42.28419355116784572601318359375" lon="1.8914668075740337371826171875">
        <ele>1671.199951171875</ele>
        <time>2020-08-10T12:07:14.000Z</time>
      </trkpt>
      <trkpt lat="42.28410906158387660980224609375" lon="1.89139313064515590667724609375">
        <ele>1670</ele>
        <time>2020-08-10T12:07:16.000Z</time>
      </trkpt>
      <trkpt lat="42.28405416011810302734375" lon="1.8913826532661914825439453125">
        <ele>1669.4000244140625</ele>
        <time>2020-08-10T12:07:17.000Z</time>
      </trkpt>
      <trkpt lat="42.28399305604398250579833984375" lon="1.8913873471319675445556640625">
        <ele>1669</ele>
        <time>2020-08-10T12:07:18.000Z</time>
      </trkpt>
      <trkpt lat="42.2838682495057582855224609375" lon="1.89143252559006214141845703125">
        <ele>1667.800048828125</ele>
        <time>2020-08-10T12:07:20.000Z</time>
      </trkpt>
      <trkpt lat="42.283737659454345703125" lon="1.89150813035666942596435546875">
        <ele>1667.199951171875</ele>
        <time>2020-08-10T12:07:22.000Z</time>
      </trkpt>
      <trkpt lat="42.28359826840460300445556640625" lon="1.89160502515733242034912109375">
        <ele>1666</ele>
        <time>2020-08-10T12:07:24.000Z</time>
      </trkpt>
      <trkpt lat="42.2835296206176280975341796875" lon="1.89166076481342315673828125">
        <ele>1665.4000244140625</ele>
        <time>2020-08-10T12:07:25.000Z</time>
      </trkpt>
      <trkpt lat="42.28346340358257293701171875" lon="1.8917232938110828399658203125">
        <ele>1664.5999755859375</ele>
        <time>2020-08-10T12:07:26.000Z</time>
      </trkpt>
      <trkpt lat="42.2834022156894207000732421875" lon="1.8917940370738506317138671875">
        <ele>1663.4000244140625</ele>
        <time>2020-08-10T12:07:27.000Z</time>
      </trkpt>
      <trkpt lat="42.2832939215004444122314453125" lon="1.891954801976680755615234375">
        <ele>1662.199951171875</ele>
        <time>2020-08-10T12:07:29.000Z</time>
      </trkpt>
      <trkpt lat="42.2831805981695652008056640625" lon="1.892109699547290802001953125">
        <ele>1661.4000244140625</ele>
        <time>2020-08-10T12:07:31.000Z</time>
      </trkpt>
      <trkpt lat="42.28311379440128803253173828125" lon="1.89216761849820613861083984375">
        <ele>1661</ele>
        <time>2020-08-10T12:07:32.000Z</time>
      </trkpt>
      <trkpt lat="42.28304070420563220977783203125" lon="1.892212294042110443115234375">
        <ele>1660.4000244140625</ele>
        <time>2020-08-10T12:07:33.000Z</time>
      </trkpt>
      <trkpt lat="42.2829656861722469329833984375" lon="1.89224825240671634674072265625">
        <ele>1660</ele>
        <time>2020-08-10T12:07:34.000Z</time>
      </trkpt>
      <trkpt lat="42.28288949467241764068603515625" lon="1.89228043891489505767822265625">
        <ele>1659.4000244140625</ele>
        <time>2020-08-10T12:07:35.000Z</time>
      </trkpt>
      <trkpt lat="42.282737530767917633056640625" lon="1.89234648831188678741455078125">
        <ele>1658.4000244140625</ele>
        <time>2020-08-10T12:07:37.000Z</time>
      </trkpt>
      <trkpt lat="42.282508872449398040771484375" lon="1.89246274530887603759765625">
        <ele>1657.199951171875</ele>
        <time>2020-08-10T12:07:40.000Z</time>
      </trkpt>
      <trkpt lat="42.28235741145908832550048828125" lon="1.892565004527568817138671875">
        <ele>1656</ele>
        <time>2020-08-10T12:07:42.000Z</time>
      </trkpt>
      <trkpt lat="42.2822277434170246124267578125" lon="1.89270691014826297760009765625">
        <ele>1654.5999755859375</ele>
        <time>2020-08-10T12:07:44.000Z</time>
      </trkpt>
      <trkpt lat="42.28204208426177501678466796875" lon="1.8929366581141948699951171875">
        <ele>1653.199951171875</ele>
        <time>2020-08-10T12:07:47.000Z</time>
      </trkpt>
      <trkpt lat="42.28196547366678714752197265625" lon="1.892998181283473968505859375">
        <ele>1652.5999755859375</ele>
        <time>2020-08-10T12:07:48.000Z</time>
      </trkpt>
      <trkpt lat="42.2818824090063571929931640625" lon="1.89305006526410579681396484375">
        <ele>1652</ele>
        <time>2020-08-10T12:07:49.000Z</time>
      </trkpt>
      <trkpt lat="42.2817134298384189605712890625" lon="1.89314679242670536041259765625">
        <ele>1650.4000244140625</ele>
        <time>2020-08-10T12:07:51.000Z</time>
      </trkpt>
      <trkpt lat="42.28163187392055988311767578125" lon="1.8931995145976543426513671875">
        <ele>1649.5999755859375</ele>
        <time>2020-08-10T12:07:52.000Z</time>
      </trkpt>
      <trkpt lat="42.28155476041138172149658203125" lon="1.89325743354856967926025390625">
        <ele>1648.5999755859375</ele>
        <time>2020-08-10T12:07:53.000Z</time>
      </trkpt>
      <trkpt lat="42.28148284368216991424560546875" lon="1.89331560395658016204833984375">
        <ele>1647.800048828125</ele>
        <time>2020-08-10T12:07:54.000Z</time>
      </trkpt>
      <trkpt lat="42.2813489846885204315185546875" lon="1.89340461976826190948486328125">
        <ele>1646.4000244140625</ele>
        <time>2020-08-10T12:07:56.000Z</time>
      </trkpt>
      <trkpt lat="42.28128251619637012481689453125" lon="1.89341702498495578765869140625">
        <ele>1645.800048828125</ele>
        <time>2020-08-10T12:07:57.000Z</time>
      </trkpt>
      <trkpt lat="42.28121512569487094879150390625" lon="1.8933995068073272705078125">
        <ele>1645</ele>
        <time>2020-08-10T12:07:58.000Z</time>
      </trkpt>
      <trkpt lat="42.28115008212625980377197265625" lon="1.89335600472986698150634765625">
        <ele>1644</ele>
        <time>2020-08-10T12:07:59.000Z</time>
      </trkpt>
      <trkpt lat="42.2810891456902027130126953125" lon="1.89329833723604679107666015625">
        <ele>1643.199951171875</ele>
        <time>2020-08-10T12:08:00.000Z</time>
      </trkpt>
      <trkpt lat="42.28103273548185825347900390625" lon="1.8932327069342136383056640625">
        <ele>1642.5999755859375</ele>
        <time>2020-08-10T12:08:01.000Z</time>
      </trkpt>
      <trkpt lat="42.28092879988253116607666015625" lon="1.89297999255359172821044921875">
        <ele>1641.4000244140625</ele>
        <time>2020-08-10T12:08:04.000Z</time>
      </trkpt>
      <trkpt lat="42.28095025755465030670166015625" lon="1.89268268644809722900390625">
        <ele>1640.199951171875</ele>
        <time>2020-08-10T12:08:07.000Z</time>
      </trkpt>
      <trkpt lat="42.280963249504566192626953125" lon="1.89258302561938762664794921875">
        <ele>1640</ele>
        <time>2020-08-10T12:08:08.000Z</time>
      </trkpt>
      <trkpt lat="42.2809872217476367950439453125" lon="1.8922758288681507110595703125">
        <ele>1639.199951171875</ele>
        <time>2020-08-10T12:08:11.000Z</time>
      </trkpt>
      <trkpt lat="42.28097255341708660125732421875" lon="1.89217683859169483184814453125">
        <ele>1638.800048828125</ele>
        <time>2020-08-10T12:08:12.000Z</time>
      </trkpt>
      <trkpt lat="42.28088311851024627685546875" lon="1.89200920052826404571533203125">
        <ele>1637.5999755859375</ele>
        <time>2020-08-10T12:08:14.000Z</time>
      </trkpt>
      <trkpt lat="42.28081212379038333892822265625" lon="1.8919499404728412628173828125">
        <ele>1636.5999755859375</ele>
        <time>2020-08-10T12:08:15.000Z</time>
      </trkpt>
      <trkpt lat="42.28073081932961940765380859375" lon="1.89190375618636608123779296875">
        <ele>1635.800048828125</ele>
        <time>2020-08-10T12:08:16.000Z</time>
      </trkpt>
      <trkpt lat="42.280642725527286529541015625" lon="1.89186151139438152313232421875">
        <ele>1635</ele>
        <time>2020-08-10T12:08:17.000Z</time>
      </trkpt>
      <trkpt lat="42.280550859868526458740234375" lon="1.8918215297162532806396484375">
        <ele>1634.199951171875</ele>
        <time>2020-08-10T12:08:18.000Z</time>
      </trkpt>
      <trkpt lat="42.28045756928622722625732421875" lon="1.891789175570011138916015625">
        <ele>1633.5999755859375</ele>
        <time>2020-08-10T12:08:19.000Z</time>
      </trkpt>
      <trkpt lat="42.28036570362746715545654296875" lon="1.8917698971927165985107421875">
        <ele>1632.800048828125</ele>
        <time>2020-08-10T12:08:20.000Z</time>
      </trkpt>
      <trkpt lat="42.28019538335502147674560546875" lon="1.8917548097670078277587890625">
        <ele>1631.4000244140625</ele>
        <time>2020-08-10T12:08:22.000Z</time>
      </trkpt>
      <trkpt lat="42.28006529621779918670654296875" lon="1.8916867487132549285888671875">
        <ele>1630</ele>
        <time>2020-08-10T12:08:24.000Z</time>
      </trkpt>
      <trkpt lat="42.28002858348190784454345703125" lon="1.8916186876595020294189453125">
        <ele>1629.4000244140625</ele>
        <time>2020-08-10T12:08:25.000Z</time>
      </trkpt>
      <trkpt lat="42.280010394752025604248046875" lon="1.89153344370424747467041015625">
        <ele>1628.800048828125</ele>
        <time>2020-08-10T12:08:26.000Z</time>
      </trkpt>
      <trkpt lat="42.2800035215914249420166015625" lon="1.89134770072996616363525390625">
        <ele>1627.800048828125</ele>
        <time>2020-08-10T12:08:28.000Z</time>
      </trkpt>
      <trkpt lat="42.28004090487957000732421875" lon="1.89107797108590602874755859375">
        <ele>1626.5999755859375</ele>
        <time>2020-08-10T12:08:31.000Z</time>
      </trkpt>
      <trkpt lat="42.2800782881677150726318359375" lon="1.8909062258899211883544921875">
        <ele>1626.199951171875</ele>
        <time>2020-08-10T12:08:33.000Z</time>
      </trkpt>
      <trkpt lat="42.280124723911285400390625" lon="1.89057270996272563934326171875">
        <ele>1625.800048828125</ele>
        <time>2020-08-10T12:08:37.000Z</time>
      </trkpt>
      <trkpt lat="42.280132770538330078125" lon="1.890417896211147308349609375">
        <ele>1625.5999755859375</ele>
        <time>2020-08-10T12:08:39.000Z</time>
      </trkpt>
      <trkpt lat="42.280139140784740447998046875" lon="1.8903436325490474700927734375">
        <ele>1625.5999755859375</ele>
        <time>2020-08-10T12:08:40.000Z</time>
      </trkpt>
      <trkpt lat="42.280178032815456390380859375" lon="1.89000047743320465087890625">
        <ele>1625.199951171875</ele>
        <time>2020-08-10T12:08:45.000Z</time>
      </trkpt>
      <trkpt lat="42.28021097369492053985595703125" lon="1.889727897942066192626953125">
        <ele>1624.5999755859375</ele>
        <time>2020-08-10T12:08:49.000Z</time>
      </trkpt>
      <trkpt lat="42.28023394010961055755615234375" lon="1.88942170701920986175537109375">
        <ele>1624</ele>
        <time>2020-08-10T12:08:53.000Z</time>
      </trkpt>
      <trkpt lat="42.28022756986320018768310546875" lon="1.88934224657714366912841796875">
        <ele>1623.5999755859375</ele>
        <time>2020-08-10T12:08:54.000Z</time>
      </trkpt>
      <trkpt lat="42.28021181188523769378662109375" lon="1.889264546334743499755859375">
        <ele>1623.5999755859375</ele>
        <time>2020-08-10T12:08:55.000Z</time>
      </trkpt>
      <trkpt lat="42.28015087544918060302734375" lon="1.88911962322890758514404296875">
        <ele>1623.199951171875</ele>
        <time>2020-08-10T12:08:57.000Z</time>
      </trkpt>
      <trkpt lat="42.2801121510565280914306640625" lon="1.8890494666993618011474609375">
        <ele>1623</ele>
        <time>2020-08-10T12:08:58.000Z</time>
      </trkpt>
      <trkpt lat="42.28000930510461330413818359375" lon="1.88881167210638523101806640625">
        <ele>1622.199951171875</ele>
        <time>2020-08-10T12:09:01.000Z</time>
      </trkpt>
      <trkpt lat="42.27998751215636730194091796875" lon="1.88872902654111385345458984375">
        <ele>1622</ele>
        <time>2020-08-10T12:09:02.000Z</time>
      </trkpt>
      <trkpt lat="42.27994434535503387451171875" lon="1.88846348784863948822021484375">
        <ele>1621.199951171875</ele>
        <time>2020-08-10T12:09:05.000Z</time>
      </trkpt>
      <trkpt lat="42.27991626597940921783447265625" lon="1.88837614841759204864501953125">
        <ele>1620.800048828125</ele>
        <time>2020-08-10T12:09:06.000Z</time>
      </trkpt>
      <trkpt lat="42.279830686748027801513671875" lon="1.88822141848504543304443359375">
        <ele>1620</ele>
        <time>2020-08-10T12:09:08.000Z</time>
      </trkpt>
      <trkpt lat="42.2797765396535396575927734375" lon="1.88815402798354625701904296875">
        <ele>1619.5999755859375</ele>
        <time>2020-08-10T12:09:09.000Z</time>
      </trkpt>
      <trkpt lat="42.27965408004820346832275390625" lon="1.8880513496696949005126953125">
        <ele>1618.5999755859375</ele>
        <time>2020-08-10T12:09:11.000Z</time>
      </trkpt>
      <trkpt lat="42.27951494045555591583251953125" lon="1.8879819475114345550537109375">
        <ele>1617.4000244140625</ele>
        <time>2020-08-10T12:09:13.000Z</time>
      </trkpt>
      <trkpt lat="42.27937798015773296356201171875" lon="1.88792578876018524169921875">
        <ele>1616.4000244140625</ele>
        <time>2020-08-10T12:09:15.000Z</time>
      </trkpt>
      <trkpt lat="42.2793178819119930267333984375" lon="1.8878920935094356536865234375">
        <ele>1615.800048828125</ele>
        <time>2020-08-10T12:09:16.000Z</time>
      </trkpt>
      <trkpt lat="42.27926574647426605224609375" lon="1.8878488428890705108642578125">
        <ele>1615.4000244140625</ele>
        <time>2020-08-10T12:09:17.000Z</time>
      </trkpt>
      <trkpt lat="42.27918888442218303680419921875" lon="1.88772185705602169036865234375">
        <ele>1614.199951171875</ele>
        <time>2020-08-10T12:09:19.000Z</time>
      </trkpt>
      <trkpt lat="42.27917279116809368133544921875" lon="1.88763652928173542022705078125">
        <ele>1613.5999755859375</ele>
        <time>2020-08-10T12:09:20.000Z</time>
      </trkpt>
      <trkpt lat="42.2791711986064910888671875" lon="1.8875427357852458953857421875">
        <ele>1612.800048828125</ele>
        <time>2020-08-10T12:09:21.000Z</time>
      </trkpt>
      <trkpt lat="42.27919056080281734466552734375" lon="1.88733897171914577484130859375">
        <ele>1611.5999755859375</ele>
        <time>2020-08-10T12:09:23.000Z</time>
      </trkpt>
      <trkpt lat="42.27920196019113063812255859375" lon="1.88722841441631317138671875">
        <ele>1611</ele>
        <time>2020-08-10T12:09:24.000Z</time>
      </trkpt>
      <trkpt lat="42.279212437570095062255859375" lon="1.8871125765144824981689453125">
        <ele>1610.5999755859375</ele>
        <time>2020-08-10T12:09:25.000Z</time>
      </trkpt>
      <trkpt lat="42.2792328894138336181640625" lon="1.88686824403703212738037109375">
        <ele>1609.5999755859375</ele>
        <time>2020-08-10T12:09:27.000Z</time>
      </trkpt>
      <trkpt lat="42.279251329600811004638671875" lon="1.886610500514507293701171875">
        <ele>1607.800048828125</ele>
        <time>2020-08-10T12:09:29.000Z</time>
      </trkpt>
      <trkpt lat="42.27925845421850681304931640625" lon="1.8864775635302066802978515625">
        <ele>1607</ele>
        <time>2020-08-10T12:09:30.000Z</time>
      </trkpt>
      <trkpt lat="42.27926482446491718292236328125" lon="1.886341609060764312744140625">
        <ele>1606.199951171875</ele>
        <time>2020-08-10T12:09:31.000Z</time>
      </trkpt>
      <trkpt lat="42.279286868870258331298828125" lon="1.885912120342254638671875">
        <ele>1604.199951171875</ele>
        <time>2020-08-10T12:09:34.000Z</time>
      </trkpt>
      <trkpt lat="42.27929734624922275543212890625" lon="1.88576350919902324676513671875">
        <ele>1603.199951171875</ele>
        <time>2020-08-10T12:09:35.000Z</time>
      </trkpt>
      <trkpt lat="42.2793115116655826568603515625" lon="1.8856132216751575469970703125">
        <ele>1602.4000244140625</ele>
        <time>2020-08-10T12:09:36.000Z</time>
      </trkpt>
      <trkpt lat="42.27932886220514774322509765625" lon="1.8854640237987041473388671875">
        <ele>1601.4000244140625</ele>
        <time>2020-08-10T12:09:37.000Z</time>
      </trkpt>
      <trkpt lat="42.27936540730297565460205078125" lon="1.88517644070088863372802734375">
        <ele>1600</ele>
        <time>2020-08-10T12:09:39.000Z</time>
      </trkpt>
      <trkpt lat="42.27940496988594532012939453125" lon="1.8848913721740245819091796875">
        <ele>1598</ele>
        <time>2020-08-10T12:09:41.000Z</time>
      </trkpt>
      <trkpt lat="42.27942156605422496795654296875" lon="1.8847515620291233062744140625">
        <ele>1597.199951171875</ele>
        <time>2020-08-10T12:09:42.000Z</time>
      </trkpt>
      <trkpt lat="42.27943606674671173095703125" lon="1.88461535610258579254150390625">
        <ele>1595.800048828125</ele>
        <time>2020-08-10T12:09:43.000Z</time>
      </trkpt>
      <trkpt lat="42.27946045808494091033935546875" lon="1.88433774746954441070556640625">
        <ele>1594.199951171875</ele>
        <time>2020-08-10T12:09:45.000Z</time>
      </trkpt>
      <trkpt lat="42.2794835083186626434326171875" lon="1.88404806889593601226806640625">
        <ele>1592.5999755859375</ele>
        <time>2020-08-10T12:09:47.000Z</time>
      </trkpt>
      <trkpt lat="42.27949851192533969879150390625" lon="1.8839039839804172515869140625">
        <ele>1592</ele>
        <time>2020-08-10T12:09:48.000Z</time>
      </trkpt>
      <trkpt lat="42.2795172035694122314453125" lon="1.88376492820680141448974609375">
        <ele>1591.4000244140625</ele>
        <time>2020-08-10T12:09:49.000Z</time>
      </trkpt>
      <trkpt lat="42.279551066458225250244140625" lon="1.883499808609485626220703125">
        <ele>1589.5999755859375</ele>
        <time>2020-08-10T12:09:51.000Z</time>
      </trkpt>
      <trkpt lat="42.279563806951045989990234375" lon="1.88323049806058406829833984375">
        <ele>1588.5999755859375</ele>
        <time>2020-08-10T12:09:53.000Z</time>
      </trkpt>
      <trkpt lat="42.27955383248627185821533203125" lon="1.88294936902821063995361328125">
        <ele>1587</ele>
        <time>2020-08-10T12:09:55.000Z</time>
      </trkpt>
      <trkpt lat="42.27955047972500324249267578125" lon="1.88265600241720676422119140625">
        <ele>1585.199951171875</ele>
        <time>2020-08-10T12:09:57.000Z</time>
      </trkpt>
      <trkpt lat="42.27955265901982784271240234375" lon="1.88250445760786533355712890625">
        <ele>1584</ele>
        <time>2020-08-10T12:09:58.000Z</time>
      </trkpt>
      <trkpt lat="42.2795572690665721893310546875" lon="1.88235106877982616424560546875">
        <ele>1583</ele>
        <time>2020-08-10T12:09:59.000Z</time>
      </trkpt>
      <trkpt lat="42.27957311086356639862060546875" lon="1.8820510804653167724609375">
        <ele>1581</ele>
        <time>2020-08-10T12:10:01.000Z</time>
      </trkpt>
      <trkpt lat="42.2795944847166538238525390625" lon="1.88177221454679965972900390625">
        <ele>1579.199951171875</ele>
        <time>2020-08-10T12:10:03.000Z</time>
      </trkpt>
      <trkpt lat="42.27962256409227848052978515625" lon="1.8815218470990657806396484375">
        <ele>1577.5999755859375</ele>
        <time>2020-08-10T12:10:05.000Z</time>
      </trkpt>
      <trkpt lat="42.27964259684085845947265625" lon="1.88140877522528171539306640625">
        <ele>1577</ele>
        <time>2020-08-10T12:10:06.000Z</time>
      </trkpt>
      <trkpt lat="42.27967067621648311614990234375" lon="1.881304085254669189453125">
        <ele>1576.199951171875</ele>
        <time>2020-08-10T12:10:07.000Z</time>
      </trkpt>
      <trkpt lat="42.27976220659911632537841796875" lon="1.88112278468906879425048828125">
        <ele>1575</ele>
        <time>2020-08-10T12:10:09.000Z</time>
      </trkpt>
      <trkpt lat="42.27982691489160060882568359375" lon="1.881042905151844024658203125">
        <ele>1574.199951171875</ele>
        <time>2020-08-10T12:10:10.000Z</time>
      </trkpt>
      <trkpt lat="42.27989899925887584686279296875" lon="1.88096470199525356292724609375">
        <ele>1573.199951171875</ele>
        <time>2020-08-10T12:10:11.000Z</time>
      </trkpt>
      <trkpt lat="42.27996555157005786895751953125" lon="1.88088096678256988525390625">
        <ele>1572.199951171875</ele>
        <time>2020-08-10T12:10:12.000Z</time>
      </trkpt>
      <trkpt lat="42.2800243087112903594970703125" lon="1.88079203478991985321044921875">
        <ele>1571</ele>
        <time>2020-08-10T12:10:13.000Z</time>
      </trkpt>
      <trkpt lat="42.280072085559368133544921875" lon="1.8806933797895908355712890625">
        <ele>1570</ele>
        <time>2020-08-10T12:10:14.000Z</time>
      </trkpt>
      <trkpt lat="42.28010871447622776031494140625" lon="1.88058299012482166290283203125">
        <ele>1568.800048828125</ele>
        <time>2020-08-10T12:10:15.000Z</time>
      </trkpt>
      <trkpt lat="42.280153892934322357177734375" lon="1.8803386576473712921142578125">
        <ele>1567.5999755859375</ele>
        <time>2020-08-10T12:10:17.000Z</time>
      </trkpt>
      <trkpt lat="42.28016353212296962738037109375" lon="1.880082003772258758544921875">
        <ele>1566.5999755859375</ele>
        <time>2020-08-10T12:10:19.000Z</time>
      </trkpt>
      <trkpt lat="42.28014257736504077911376953125" lon="1.8798310495913028717041015625">
        <ele>1565.5999755859375</ele>
        <time>2020-08-10T12:10:21.000Z</time>
      </trkpt>
      <trkpt lat="42.280123718082904815673828125" lon="1.87971194274723529815673828125">
        <ele>1565.199951171875</ele>
        <time>2020-08-10T12:10:22.000Z</time>
      </trkpt>
      <trkpt lat="42.2801024280488491058349609375" lon="1.87959878705441951751708984375">
        <ele>1564.800048828125</ele>
        <time>2020-08-10T12:10:23.000Z</time>
      </trkpt>
      <trkpt lat="42.2800695709884166717529296875" lon="1.87938488088548183441162109375">
        <ele>1564.199951171875</ele>
        <time>2020-08-10T12:10:25.000Z</time>
      </trkpt>
      <trkpt lat="42.28005071170628070831298828125" lon="1.8790662847459316253662109375">
        <ele>1563</ele>
        <time>2020-08-10T12:10:28.000Z</time>
      </trkpt>
      <trkpt lat="42.2800464369356632232666015625" lon="1.87883268110454082489013671875">
        <ele>1562</ele>
        <time>2020-08-10T12:10:30.000Z</time>
      </trkpt>
      <trkpt lat="42.28004585020244121551513671875" lon="1.8787072040140628814697265625">
        <ele>1561</ele>
        <time>2020-08-10T12:10:31.000Z</time>
      </trkpt>
      <trkpt lat="42.2800427488982677459716796875" lon="1.878439486026763916015625">
        <ele>1559.5999755859375</ele>
        <time>2020-08-10T12:10:33.000Z</time>
      </trkpt>
      <trkpt lat="42.280037887394428253173828125" lon="1.87829741276800632476806640625">
        <ele>1558.5999755859375</ele>
        <time>2020-08-10T12:10:34.000Z</time>
      </trkpt>
      <trkpt lat="42.28003084659576416015625" lon="1.87815240584313869476318359375">
        <ele>1557.5999755859375</ele>
        <time>2020-08-10T12:10:35.000Z</time>
      </trkpt>
      <trkpt lat="42.28002321906387805938720703125" lon="1.8780076503753662109375">
        <ele>1556.5999755859375</ele>
        <time>2020-08-10T12:10:36.000Z</time>
      </trkpt>
      <trkpt lat="42.2800152562558650970458984375" lon="1.8778659962117671966552734375">
        <ele>1555.5999755859375</ele>
        <time>2020-08-10T12:10:37.000Z</time>
      </trkpt>
      <trkpt lat="42.279984913766384124755859375" lon="1.8775924108922481536865234375">
        <ele>1552.5999755859375</ele>
        <time>2020-08-10T12:10:39.000Z</time>
      </trkpt>
      <trkpt lat="42.2799575887620449066162109375" lon="1.877458803355693817138671875">
        <ele>1551.199951171875</ele>
        <time>2020-08-10T12:10:40.000Z</time>
      </trkpt>
      <trkpt lat="42.27991911582648754119873046875" lon="1.877326704561710357666015625">
        <ele>1550.199951171875</ele>
        <time>2020-08-10T12:10:41.000Z</time>
      </trkpt>
      <trkpt lat="42.27981082163751125335693359375" lon="1.87707424163818359375">
        <ele>1548.5999755859375</ele>
        <time>2020-08-10T12:10:43.000Z</time>
      </trkpt>
      <trkpt lat="42.27968106977641582489013671875" lon="1.87684935517609119415283203125">
        <ele>1547.199951171875</ele>
        <time>2020-08-10T12:10:45.000Z</time>
      </trkpt>
      <trkpt lat="42.2796156071126461029052734375" lon="1.876749359071254730224609375">
        <ele>1546</ele>
        <time>2020-08-10T12:10:46.000Z</time>
      </trkpt>
      <trkpt lat="42.279551066458225250244140625" lon="1.8766598403453826904296875">
        <ele>1545</ele>
        <time>2020-08-10T12:10:47.000Z</time>
      </trkpt>
      <trkpt lat="42.27948895655572414398193359375" lon="1.876583062112331390380859375">
        <ele>1543.800048828125</ele>
        <time>2020-08-10T12:10:48.000Z</time>
      </trkpt>
      <trkpt lat="42.27937663905322551727294921875" lon="1.87645557336509227752685546875">
        <ele>1542.4000244140625</ele>
        <time>2020-08-10T12:10:50.000Z</time>
      </trkpt>
      <trkpt lat="42.27932902984321117401123046875" lon="1.8763884343206882476806640625">
        <ele>1541.5999755859375</ele>
        <time>2020-08-10T12:10:51.000Z</time>
      </trkpt>
      <trkpt lat="42.2792927362024784088134765625" lon="1.87630922533571720123291015625">
        <ele>1541.199951171875</ele>
        <time>2020-08-10T12:10:52.000Z</time>
      </trkpt>
      <trkpt lat="42.27926733903586864471435546875" lon="1.87610655091702938079833984375">
        <ele>1540</ele>
        <time>2020-08-10T12:10:54.000Z</time>
      </trkpt>
      <trkpt lat="42.279284857213497161865234375" lon="1.87587135471403598785400390625">
        <ele>1538.5999755859375</ele>
        <time>2020-08-10T12:10:56.000Z</time>
      </trkpt>
      <trkpt lat="42.279314696788787841796875" lon="1.87561537139117717742919921875">
        <ele>1536.800048828125</ele>
        <time>2020-08-10T12:10:58.000Z</time>
      </trkpt>
      <trkpt lat="42.27934084832668304443359375" lon="1.87534153461456298828125">
        <ele>1535</ele>
        <time>2020-08-10T12:11:00.000Z</time>
      </trkpt>
      <trkpt lat="42.27935987524688243865966796875" lon="1.87506099231541156768798828125">
        <ele>1533.4000244140625</ele>
        <time>2020-08-10T12:11:02.000Z</time>
      </trkpt>
      <trkpt lat="42.2793691791594028472900390625" lon="1.87492067925631999969482421875">
        <ele>1532.4000244140625</ele>
        <time>2020-08-10T12:11:03.000Z</time>
      </trkpt>
      <trkpt lat="42.27937580086290836334228515625" lon="1.8747817911207675933837890625">
        <ele>1531.199951171875</ele>
        <time>2020-08-10T12:11:04.000Z</time>
      </trkpt>
      <trkpt lat="42.27938099764287471771240234375" lon="1.87451415695250034332275390625">
        <ele>1530</ele>
        <time>2020-08-10T12:11:06.000Z</time>
      </trkpt>
      <trkpt lat="42.27940061129629611968994140625" lon="1.874256916344165802001953125">
        <ele>1528.4000244140625</ele>
        <time>2020-08-10T12:11:08.000Z</time>
      </trkpt>
      <trkpt lat="42.27942491881549358367919921875" lon="1.8741305172443389892578125">
        <ele>1527.800048828125</ele>
        <time>2020-08-10T12:11:09.000Z</time>
      </trkpt>
      <trkpt lat="42.27945727296173572540283203125" lon="1.87400705181062221527099609375">
        <ele>1527.199951171875</ele>
        <time>2020-08-10T12:11:10.000Z</time>
      </trkpt>
      <trkpt lat="42.27951980195939540863037109375" lon="1.8737692572176456451416015625">
        <ele>1525.4000244140625</ele>
        <time>2020-08-10T12:11:12.000Z</time>
      </trkpt>
      <trkpt lat="42.27953975088894367218017578125" lon="1.87364294193685054779052734375">
        <ele>1525</ele>
        <time>2020-08-10T12:11:13.000Z</time>
      </trkpt>
      <trkpt lat="42.27955006062984466552734375" lon="1.8735080771148204803466796875">
        <ele>1524</ele>
        <time>2020-08-10T12:11:14.000Z</time>
      </trkpt>
      <trkpt lat="42.2795522399246692657470703125" lon="1.8733689375221729278564453125">
        <ele>1523</ele>
        <time>2020-08-10T12:11:15.000Z</time>
      </trkpt>
      <trkpt lat="42.27955006062984466552734375" lon="1.87322937883436679840087890625">
        <ele>1522</ele>
        <time>2020-08-10T12:11:16.000Z</time>
      </trkpt>
      <trkpt lat="42.27954595349729061126708984375" lon="1.873088143765926361083984375">
        <ele>1521</ele>
        <time>2020-08-10T12:11:17.000Z</time>
      </trkpt>
      <trkpt lat="42.27954226545989513397216796875" lon="1.87294322066009044647216796875">
        <ele>1519.800048828125</ele>
        <time>2020-08-10T12:11:18.000Z</time>
      </trkpt>
      <trkpt lat="42.27954327128827571868896484375" lon="1.872796118259429931640625">
        <ele>1518.800048828125</ele>
        <time>2020-08-10T12:11:19.000Z</time>
      </trkpt>
      <trkpt lat="42.27956204675137996673583984375" lon="1.87250501476228237152099609375">
        <ele>1517</ele>
        <time>2020-08-10T12:11:21.000Z</time>
      </trkpt>
      <trkpt lat="42.279573194682598114013671875" lon="1.87235933728516101837158203125">
        <ele>1516.199951171875</ele>
        <time>2020-08-10T12:11:22.000Z</time>
      </trkpt>
      <trkpt lat="42.27958149276673793792724609375" lon="1.8722098879516124725341796875">
        <ele>1515.4000244140625</ele>
        <time>2020-08-10T12:11:23.000Z</time>
      </trkpt>
      <trkpt lat="42.27958702482283115386962890625" lon="1.8720616959035396575927734375">
        <ele>1514.4000244140625</ele>
        <time>2020-08-10T12:11:24.000Z</time>
      </trkpt>
      <trkpt lat="42.279599010944366455078125" lon="1.87177176587283611297607421875">
        <ele>1512.5999755859375</ele>
        <time>2020-08-10T12:11:26.000Z</time>
      </trkpt>
      <trkpt lat="42.27961049415171146392822265625" lon="1.87163011170923709869384765625">
        <ele>1511.199951171875</ele>
        <time>2020-08-10T12:11:27.000Z</time>
      </trkpt>
      <trkpt lat="42.2796430997550487518310546875" lon="1.87136675231158733367919921875">
        <ele>1509.4000244140625</ele>
        <time>2020-08-10T12:11:29.000Z</time>
      </trkpt>
      <trkpt lat="42.27966950275003910064697265625" lon="1.87123574316501617431640625">
        <ele>1509</ele>
        <time>2020-08-10T12:11:30.000Z</time>
      </trkpt>
      <trkpt lat="42.27970822714269161224365234375" lon="1.8711054883897304534912109375">
        <ele>1508.199951171875</ele>
        <time>2020-08-10T12:11:31.000Z</time>
      </trkpt>
      <trkpt lat="42.27981735952198505401611328125" lon="1.870849169790744781494140625">
        <ele>1506.800048828125</ele>
        <time>2020-08-10T12:11:33.000Z</time>
      </trkpt>
      <trkpt lat="42.27993235923349857330322265625" lon="1.87058019451797008514404296875">
        <ele>1504.800048828125</ele>
        <time>2020-08-10T12:11:35.000Z</time>
      </trkpt>
      <trkpt lat="42.280032522976398468017578125" lon="1.8702947907149791717529296875">
        <ele>1503.4000244140625</ele>
        <time>2020-08-10T12:11:37.000Z</time>
      </trkpt>
      <trkpt lat="42.28007485158741474151611328125" lon="1.87015590257942676544189453125">
        <ele>1502.4000244140625</ele>
        <time>2020-08-10T12:11:38.000Z</time>
      </trkpt>
      <trkpt lat="42.2801440022885799407958984375" lon="1.8699008412659168243408203125">
        <ele>1500.4000244140625</ele>
        <time>2020-08-10T12:11:40.000Z</time>
      </trkpt>
      <trkpt lat="42.2801931202411651611328125" lon="1.869671009480953216552734375">
        <ele>1498.800048828125</ele>
        <time>2020-08-10T12:11:42.000Z</time>
      </trkpt>
      <trkpt lat="42.280214242637157440185546875" lon="1.8695672415196895599365234375">
        <ele>1497.5999755859375</ele>
        <time>2020-08-10T12:11:43.000Z</time>
      </trkpt>
      <trkpt lat="42.280239723622798919677734375" lon="1.8694743700325489044189453125">
        <ele>1496.5999755859375</ele>
        <time>2020-08-10T12:11:44.000Z</time>
      </trkpt>
      <trkpt lat="42.2802737541496753692626953125" lon="1.869394071400165557861328125">
        <ele>1496.199951171875</ele>
        <time>2020-08-10T12:11:45.000Z</time>
      </trkpt>
      <trkpt lat="42.28038816712796688079833984375" lon="1.86928804032504558563232421875">
        <ele>1495.4000244140625</ele>
        <time>2020-08-10T12:11:47.000Z</time>
      </trkpt>
      <trkpt lat="42.28046871721744537353515625" lon="1.8692668341100215911865234375">
        <ele>1494.5999755859375</ele>
        <time>2020-08-10T12:11:48.000Z</time>
      </trkpt>
      <trkpt lat="42.28064264170825481414794921875" lon="1.86919500119984149932861328125">
        <ele>1492.800048828125</ele>
        <time>2020-08-10T12:11:50.000Z</time>
      </trkpt>
      <trkpt lat="42.2807930968701839447021484375" lon="1.86903943307697772979736328125">
        <ele>1491.199951171875</ele>
        <time>2020-08-10T12:11:52.000Z</time>
      </trkpt>
      <trkpt lat="42.280857972800731658935546875" lon="1.86895896680653095245361328125">
        <ele>1490.4000244140625</ele>
        <time>2020-08-10T12:11:53.000Z</time>
      </trkpt>
      <trkpt lat="42.280919663608074188232421875" lon="1.86889191158115863800048828125">
        <ele>1489.5999755859375</ele>
        <time>2020-08-10T12:11:54.000Z</time>
      </trkpt>
      <trkpt lat="42.28103105910122394561767578125" lon="1.868830136954784393310546875">
        <ele>1488.5999755859375</ele>
        <time>2020-08-10T12:11:56.000Z</time>
      </trkpt>
      <trkpt lat="42.28113197721540927886962890625" lon="1.8689392693340778350830078125">
        <ele>1487.5999755859375</ele>
        <time>2020-08-10T12:11:59.000Z</time>
      </trkpt>
      <trkpt lat="42.2811186499893665313720703125" lon="1.86916465871036052703857421875">
        <ele>1486.800048828125</ele>
        <time>2020-08-10T12:12:02.000Z</time>
      </trkpt>
      <trkpt lat="42.28109761141240596771240234375" lon="1.869257278740406036376953125">
        <ele>1486.199951171875</ele>
        <time>2020-08-10T12:12:03.000Z</time>
      </trkpt>
      <trkpt lat="42.2810375131666660308837890625" lon="1.86945534311234951019287109375">
        <ele>1484.800048828125</ele>
        <time>2020-08-10T12:12:05.000Z</time>
      </trkpt>
      <trkpt lat="42.2810036502778530120849609375" lon="1.8695561774075031280517578125">
        <ele>1484.4000244140625</ele>
        <time>2020-08-10T12:12:06.000Z</time>
      </trkpt>
      <trkpt lat="42.2809731401503086090087890625" lon="1.86966170556843280792236328125">
        <ele>1483.5999755859375</ele>
        <time>2020-08-10T12:12:07.000Z</time>
      </trkpt>
      <trkpt lat="42.28093533776700496673583984375" lon="1.8698931299149990081787109375">
        <ele>1482</ele>
        <time>2020-08-10T12:12:09.000Z</time>
      </trkpt>
      <trkpt lat="42.28092544712126255035400390625" lon="1.87001424841582775115966796875">
        <ele>1481.4000244140625</ele>
        <time>2020-08-10T12:12:10.000Z</time>
      </trkpt>
      <trkpt lat="42.28091672994196414947509765625" lon="1.87013763003051280975341796875">
        <ele>1480.5999755859375</ele>
        <time>2020-08-10T12:12:11.000Z</time>
      </trkpt>
      <trkpt lat="42.28091170080006122589111328125" lon="1.87038808129727840423583984375">
        <ele>1478.800048828125</ele>
        <time>2020-08-10T12:12:13.000Z</time>
      </trkpt>
      <trkpt lat="42.280934751033782958984375" lon="1.8706361018121242523193359375">
        <ele>1477.4000244140625</ele>
        <time>2020-08-10T12:12:15.000Z</time>
      </trkpt>
      <trkpt lat="42.28097557090222835540771484375" lon="1.87089250423014163970947265625">
        <ele>1476.199951171875</ele>
        <time>2020-08-10T12:12:17.000Z</time>
      </trkpt>
      <trkpt lat="42.28101463057100772857666015625" lon="1.87115251086652278900146484375">
        <ele>1474.800048828125</ele>
        <time>2020-08-10T12:12:19.000Z</time>
      </trkpt>
      <trkpt lat="42.28105838410556316375732421875" lon="1.87139726243913173675537109375">
        <ele>1473</ele>
        <time>2020-08-10T12:12:21.000Z</time>
      </trkpt>
      <trkpt lat="42.2810894809663295745849609375" lon="1.87150957994163036346435546875">
        <ele>1472.199951171875</ele>
        <time>2020-08-10T12:12:22.000Z</time>
      </trkpt>
      <trkpt lat="42.28112812153995037078857421875" lon="1.871618963778018951416015625">
        <ele>1470.800048828125</ele>
        <time>2020-08-10T12:12:23.000Z</time>
      </trkpt>
      <trkpt lat="42.28120875544846057891845703125" lon="1.87184234149754047393798828125">
        <ele>1469.5999755859375</ele>
        <time>2020-08-10T12:12:25.000Z</time>
      </trkpt>
      <trkpt lat="42.281271032989025115966796875" lon="1.87205960042774677276611328125">
        <ele>1468.199951171875</ele>
        <time>2020-08-10T12:12:27.000Z</time>
      </trkpt>
      <trkpt lat="42.28128536604344844818115234375" lon="1.8722611851990222930908203125">
        <ele>1466.5999755859375</ele>
        <time>2020-08-10T12:12:29.000Z</time>
      </trkpt>
      <trkpt lat="42.28122618980705738067626953125" lon="1.87246151268482208251953125">
        <ele>1464.5999755859375</ele>
        <time>2020-08-10T12:12:31.000Z</time>
      </trkpt>
      <trkpt lat="42.28117925114929676055908203125" lon="1.87256419099867343902587890625">
        <ele>1463.800048828125</ele>
        <time>2020-08-10T12:12:32.000Z</time>
      </trkpt>
      <trkpt lat="42.28113113902509212493896484375" lon="1.872667372226715087890625">
        <ele>1462.800048828125</ele>
        <time>2020-08-10T12:12:33.000Z</time>
      </trkpt>
      <trkpt lat="42.2810408659279346466064453125" lon="1.87287180684506893157958984375">
        <ele>1461</ele>
        <time>2020-08-10T12:12:35.000Z</time>
      </trkpt>
      <trkpt lat="42.28100105188786983489990234375" lon="1.872972808778285980224609375">
        <ele>1459.800048828125</ele>
        <time>2020-08-10T12:12:36.000Z</time>
      </trkpt>
      <trkpt lat="42.2809362597763538360595703125" lon="1.8731796741485595703125">
        <ele>1458.199951171875</ele>
        <time>2020-08-10T12:12:38.000Z</time>
      </trkpt>
      <trkpt lat="42.28092737495899200439453125" lon="1.87339768745005130767822265625">
        <ele>1456.5999755859375</ele>
        <time>2020-08-10T12:12:40.000Z</time>
      </trkpt>
      <trkpt lat="42.280940115451812744140625" lon="1.87350757420063018798828125">
        <ele>1456</ele>
        <time>2020-08-10T12:12:41.000Z</time>
      </trkpt>
      <trkpt lat="42.280958555638790130615234375" lon="1.87362098135054111480712890625">
        <ele>1455.4000244140625</ele>
        <time>2020-08-10T12:12:42.000Z</time>
      </trkpt>
      <trkpt lat="42.28098127059638500213623046875" lon="1.8738446943461894989013671875">
        <ele>1453.800048828125</ele>
        <time>2020-08-10T12:12:44.000Z</time>
      </trkpt>
      <trkpt lat="42.2809764929115772247314453125" lon="1.8739479593932628631591796875">
        <ele>1453</ele>
        <time>2020-08-10T12:12:45.000Z</time>
      </trkpt>
      <trkpt lat="42.2809640876948833465576171875" lon="1.8740505538880825042724609375">
        <ele>1452.4000244140625</ele>
        <time>2020-08-10T12:12:46.000Z</time>
      </trkpt>
      <trkpt lat="42.2809560410678386688232421875" lon="1.874158345162868499755859375">
        <ele>1451.5999755859375</ele>
        <time>2020-08-10T12:12:47.000Z</time>
      </trkpt>
      <trkpt lat="42.28096098639070987701416015625" lon="1.87427091412246227264404296875">
        <ele>1451</ele>
        <time>2020-08-10T12:12:48.000Z</time>
      </trkpt>
      <trkpt lat="42.28098076768219470977783203125" lon="1.8743828125298023223876953125">
        <ele>1450</ele>
        <time>2020-08-10T12:12:49.000Z</time>
      </trkpt>
      <trkpt lat="42.28105000220239162445068359375" lon="1.87459831126034259796142578125">
        <ele>1448.5999755859375</ele>
        <time>2020-08-10T12:12:51.000Z</time>
      </trkpt>
      <trkpt lat="42.28112979792058467864990234375" lon="1.8748173303902149200439453125">
        <ele>1447.4000244140625</ele>
        <time>2020-08-10T12:12:53.000Z</time>
      </trkpt>
      <trkpt lat="42.2812142036855220794677734375" lon="1.87504406087100505828857421875">
        <ele>1446.4000244140625</ele>
        <time>2020-08-10T12:12:55.000Z</time>
      </trkpt>
      <trkpt lat="42.28129609487950801849365234375" lon="1.87523986212909221649169921875">
        <ele>1445.199951171875</ele>
        <time>2020-08-10T12:12:57.000Z</time>
      </trkpt>
      <trkpt lat="42.28133565746247768402099609375" lon="1.87531798146665096282958984375">
        <ele>1444.4000244140625</ele>
        <time>2020-08-10T12:12:58.000Z</time>
      </trkpt>
      <trkpt lat="42.2813768126070499420166015625" lon="1.87539048492908477783203125">
        <ele>1443.800048828125</ele>
        <time>2020-08-10T12:12:59.000Z</time>
      </trkpt>
      <trkpt lat="42.28151234798133373260498046875" lon="1.87561185099184513092041015625">
        <ele>1442.800048828125</ele>
        <time>2020-08-10T12:13:02.000Z</time>
      </trkpt>
      <trkpt lat="42.28161334991455078125" lon="1.87575685791671276092529296875">
        <ele>1442</ele>
        <time>2020-08-10T12:13:04.000Z</time>
      </trkpt>
      <trkpt lat="42.2816736996173858642578125" lon="1.87582097947597503662109375">
        <ele>1441.5999755859375</ele>
        <time>2020-08-10T12:13:05.000Z</time>
      </trkpt>
      <trkpt lat="42.2818234004080295562744140625" lon="1.87592734582722187042236328125">
        <ele>1440.199951171875</ele>
        <time>2020-08-10T12:13:07.000Z</time>
      </trkpt>
      <trkpt lat="42.2819977439939975738525390625" lon="1.87600605189800262451171875">
        <ele>1439</ele>
        <time>2020-08-10T12:13:09.000Z</time>
      </trkpt>
      <trkpt lat="42.282176949083805084228515625" lon="1.87605173327028751373291015625">
        <ele>1437.199951171875</ele>
        <time>2020-08-10T12:13:11.000Z</time>
      </trkpt>
      <trkpt lat="42.2823668830096721649169921875" lon="1.876049973070621490478515625">
        <ele>1435.4000244140625</ele>
        <time>2020-08-10T12:13:13.000Z</time>
      </trkpt>
      <trkpt lat="42.2824607603251934051513671875" lon="1.87603631056845188140869140625">
        <ele>1434.5999755859375</ele>
        <time>2020-08-10T12:13:14.000Z</time>
      </trkpt>
      <trkpt lat="42.28254742920398712158203125" lon="1.87601686455309391021728515625">
        <ele>1433.800048828125</ele>
        <time>2020-08-10T12:13:15.000Z</time>
      </trkpt>
      <trkpt lat="42.282699979841709136962890625" lon="1.87596539966762065887451171875">
        <ele>1432</ele>
        <time>2020-08-10T12:13:17.000Z</time>
      </trkpt>
      <trkpt lat="42.2827672027051448822021484375" lon="1.8759492225944995880126953125">
        <ele>1431</ele>
        <time>2020-08-10T12:13:18.000Z</time>
      </trkpt>
      <trkpt lat="42.282832078635692596435546875" lon="1.8759475462138652801513671875">
        <ele>1430</ele>
        <time>2020-08-10T12:13:19.000Z</time>
      </trkpt>
      <trkpt lat="42.2829606570303440093994140625" lon="1.8760107457637786865234375">
        <ele>1428.800048828125</ele>
        <time>2020-08-10T12:13:21.000Z</time>
      </trkpt>
      <trkpt lat="42.283022515475749969482421875" lon="1.87606682069599628448486328125">
        <ele>1428.199951171875</ele>
        <time>2020-08-10T12:13:22.000Z</time>
      </trkpt>
      <trkpt lat="42.283086888492107391357421875" lon="1.87612867914140224456787109375">
        <ele>1427.5999755859375</ele>
        <time>2020-08-10T12:13:23.000Z</time>
      </trkpt>
      <trkpt lat="42.2832320630550384521484375" lon="1.87624367885291576385498046875">
        <ele>1426.199951171875</ele>
        <time>2020-08-10T12:13:25.000Z</time>
      </trkpt>
      <trkpt lat="42.283314876258373260498046875" lon="1.87629614956676959991455078125">
        <ele>1425.5999755859375</ele>
        <time>2020-08-10T12:13:26.000Z</time>
      </trkpt>
      <trkpt lat="42.2834022156894207000732421875" lon="1.8763465248048305511474609375">
        <ele>1424.800048828125</ele>
        <time>2020-08-10T12:13:27.000Z</time>
      </trkpt>
      <trkpt lat="42.28358921594917774200439453125" lon="1.8764387257397174835205078125">
        <ele>1423</ele>
        <time>2020-08-10T12:13:29.000Z</time>
      </trkpt>
      <trkpt lat="42.283762134611606597900390625" lon="1.87651089392602443695068359375">
        <ele>1421.5999755859375</ele>
        <time>2020-08-10T12:13:31.000Z</time>
      </trkpt>
      <trkpt lat="42.28390119038522243499755859375" lon="1.8766009993851184844970703125">
        <ele>1420.5999755859375</ele>
        <time>2020-08-10T12:13:33.000Z</time>
      </trkpt>
      <trkpt lat="42.28395483456552028656005859375" lon="1.876671575009822845458984375">
        <ele>1419.800048828125</ele>
        <time>2020-08-10T12:13:34.000Z</time>
      </trkpt>
      <trkpt lat="42.28399875573813915252685546875" lon="1.8767558969557285308837890625">
        <ele>1419</ele>
        <time>2020-08-10T12:13:35.000Z</time>
      </trkpt>
      <trkpt lat="42.28404812514781951904296875" lon="1.87695295549929141998291015625">
        <ele>1417.5999755859375</ele>
        <time>2020-08-10T12:13:37.000Z</time>
      </trkpt>
      <trkpt lat="42.28403949178755283355712890625" lon="1.87718329019844532012939453125">
        <ele>1416.4000244140625</ele>
        <time>2020-08-10T12:13:39.000Z</time>
      </trkpt>
      <trkpt lat="42.28402641601860523223876953125" lon="1.8773097731173038482666015625">
        <ele>1415.5999755859375</ele>
        <time>2020-08-10T12:13:40.000Z</time>
      </trkpt>
      <trkpt lat="42.284012921154499053955078125" lon="1.87744262628257274627685546875">
        <ele>1414.4000244140625</ele>
        <time>2020-08-10T12:13:41.000Z</time>
      </trkpt>
      <trkpt lat="42.283990122377872467041015625" lon="1.8777184747159481048583984375">
        <ele>1412.199951171875</ele>
        <time>2020-08-10T12:13:43.000Z</time>
      </trkpt>
      <trkpt lat="42.2839842550456523895263671875" lon="1.87785568647086620330810546875">
        <ele>1411.199951171875</ele>
        <time>2020-08-10T12:13:44.000Z</time>
      </trkpt>
      <trkpt lat="42.28397964499890804290771484375" lon="1.87798476777970790863037109375">
        <ele>1410.4000244140625</ele>
        <time>2020-08-10T12:13:45.000Z</time>
      </trkpt>
      <trkpt lat="42.28397679515182971954345703125" lon="1.87810731120407581329345703125">
        <ele>1409.800048828125</ele>
        <time>2020-08-10T12:13:46.000Z</time>
      </trkpt>
      <trkpt lat="42.28398484177887439727783203125" lon="1.87831811606884002685546875">
        <ele>1407.800048828125</ele>
        <time>2020-08-10T12:13:48.000Z</time>
      </trkpt>
      <trkpt lat="42.28400789201259613037109375" lon="1.87840235419571399688720703125">
        <ele>1407.4000244140625</ele>
        <time>2020-08-10T12:13:49.000Z</time>
      </trkpt>
      <trkpt lat="42.284047789871692657470703125" lon="1.8784671463072299957275390625">
        <ele>1407</ele>
        <time>2020-08-10T12:13:50.000Z</time>
      </trkpt>
      <trkpt lat="42.2841032780706882476806640625" lon="1.87851584516465663909912109375">
        <ele>1406.4000244140625</ele>
        <time>2020-08-10T12:13:51.000Z</time>
      </trkpt>
      <trkpt lat="42.284169830381870269775390625" lon="1.87855255790054798126220703125">
        <ele>1405.800048828125</ele>
        <time>2020-08-10T12:13:52.000Z</time>
      </trkpt>
      <trkpt lat="42.284394465386867523193359375" lon="1.87866487540304660797119140625">
        <ele>1404.199951171875</ele>
        <time>2020-08-10T12:13:55.000Z</time>
      </trkpt>
      <trkpt lat="42.28448004461824893951416015625" lon="1.878693290054798126220703125">
        <ele>1403.800048828125</ele>
        <time>2020-08-10T12:13:56.000Z</time>
      </trkpt>
      <trkpt lat="42.284673415124416351318359375" lon="1.878708042204380035400390625">
        <ele>1402.5999755859375</ele>
        <time>2020-08-10T12:13:58.000Z</time>
      </trkpt>
      <trkpt lat="42.284765280783176422119140625" lon="1.8786875903606414794921875">
        <ele>1401.5999755859375</ele>
        <time>2020-08-10T12:13:59.000Z</time>
      </trkpt>
      <trkpt lat="42.28493652306497097015380859375" lon="1.8786143325269222259521484375">
        <ele>1399.800048828125</ele>
        <time>2020-08-10T12:14:01.000Z</time>
      </trkpt>
      <trkpt lat="42.28508639149367809295654296875" lon="1.87852799892425537109375">
        <ele>1398.4000244140625</ele>
        <time>2020-08-10T12:14:03.000Z</time>
      </trkpt>
      <trkpt lat="42.2852217592298984527587890625" lon="1.87849405221641063690185546875">
        <ele>1397</ele>
        <time>2020-08-10T12:14:05.000Z</time>
      </trkpt>
      <trkpt lat="42.28534698486328125" lon="1.87855440191924571990966796875">
        <ele>1395.5999755859375</ele>
        <time>2020-08-10T12:14:07.000Z</time>
      </trkpt>
      <trkpt lat="42.2853997908532619476318359375" lon="1.87861341051757335662841796875">
        <ele>1395.199951171875</ele>
        <time>2020-08-10T12:14:08.000Z</time>
      </trkpt>
      <trkpt lat="42.285480760037899017333984375" lon="1.87876931391656398773193359375">
        <ele>1394.4000244140625</ele>
        <time>2020-08-10T12:14:10.000Z</time>
      </trkpt>
      <trkpt lat="42.28550900705158710479736328125" lon="1.87887090258300304412841796875">
        <ele>1394</ele>
        <time>2020-08-10T12:14:11.000Z</time>
      </trkpt>
      <trkpt lat="42.28552627377212047576904296875" lon="1.8789794482290744781494140625">
        <ele>1393.4000244140625</ele>
        <time>2020-08-10T12:14:12.000Z</time>
      </trkpt>
      <trkpt lat="42.285526692867279052734375" lon="1.8792114593088626861572265625">
        <ele>1392.199951171875</ele>
        <time>2020-08-10T12:14:14.000Z</time>
      </trkpt>
      <trkpt lat="42.285516969859600067138671875" lon="1.879331655800342559814453125">
        <ele>1391.5999755859375</ele>
        <time>2020-08-10T12:14:15.000Z</time>
      </trkpt>
      <trkpt lat="42.28550045751035213470458984375" lon="1.879453696310520172119140625">
        <ele>1390.800048828125</ele>
        <time>2020-08-10T12:14:16.000Z</time>
      </trkpt>
      <trkpt lat="42.28545251302421092987060546875" lon="1.87969652004539966583251953125">
        <ele>1389.5999755859375</ele>
        <time>2020-08-10T12:14:18.000Z</time>
      </trkpt>
      <trkpt lat="42.28542317636311054229736328125" lon="1.87981185503304004669189453125">
        <ele>1389.199951171875</ele>
        <time>2020-08-10T12:14:19.000Z</time>
      </trkpt>
      <trkpt lat="42.285366095602512359619140625" lon="1.88002190552651882171630859375">
        <ele>1387.800048828125</ele>
        <time>2020-08-10T12:14:21.000Z</time>
      </trkpt>
      <trkpt lat="42.2853273712098598480224609375" lon="1.8802109174430370330810546875">
        <ele>1386.4000244140625</ele>
        <time>2020-08-10T12:14:23.000Z</time>
      </trkpt>
      <trkpt lat="42.2853267006576061248779296875" lon="1.8803027831017971038818359375">
        <ele>1385.800048828125</ele>
        <time>2020-08-10T12:14:24.000Z</time>
      </trkpt>
      <trkpt lat="42.2853364236652851104736328125" lon="1.88038249500095844268798828125">
        <ele>1385.199951171875</ele>
        <time>2020-08-10T12:14:25.000Z</time>
      </trkpt>
      <trkpt lat="42.28540532290935516357421875" lon="1.880520880222320556640625">
        <ele>1384.199951171875</ele>
        <time>2020-08-10T12:14:27.000Z</time>
      </trkpt>
      <trkpt lat="42.285549156367778778076171875" lon="1.8806202895939350128173828125">
        <ele>1383</ele>
        <time>2020-08-10T12:14:30.000Z</time>
      </trkpt>
      <trkpt lat="42.2856921516358852386474609375" lon="1.88057175837457180023193359375">
        <ele>1382.199951171875</ele>
        <time>2020-08-10T12:14:33.000Z</time>
      </trkpt>
      <trkpt lat="42.2857390902936458587646484375" lon="1.8805364705622196197509765625">
        <ele>1381.800048828125</ele>
        <time>2020-08-10T12:14:34.000Z</time>
      </trkpt>
      <trkpt lat="42.2858943231403827667236328125" lon="1.8803758732974529266357421875">
        <ele>1380.800048828125</ele>
        <time>2020-08-10T12:14:38.000Z</time>
      </trkpt>
      <trkpt lat="42.28594268672168254852294921875" lon="1.88034175895154476165771484375">
        <ele>1380.5999755859375</ele>
        <time>2020-08-10T12:14:39.000Z</time>
      </trkpt>
      <trkpt lat="42.28609263896942138671875" lon="1.880244277417659759521484375">
        <ele>1379.800048828125</ele>
        <time>2020-08-10T12:14:42.000Z</time>
      </trkpt>
      <trkpt lat="42.2861350513994693756103515625" lon="1.8802078999578952789306640625">
        <ele>1379.4000244140625</ele>
        <time>2020-08-10T12:14:43.000Z</time>
      </trkpt>
      <trkpt lat="42.28617536835372447967529296875" lon="1.88016875647008419036865234375">
        <ele>1379</ele>
        <time>2020-08-10T12:14:44.000Z</time>
      </trkpt>
      <trkpt lat="42.28626052848994731903076171875" lon="1.880067922174930572509765625">
        <ele>1378.4000244140625</ele>
        <time>2020-08-10T12:14:46.000Z</time>
      </trkpt>
      <trkpt lat="42.28634250350296497344970703125" lon="1.8799329735338687896728515625">
        <ele>1378</ele>
        <time>2020-08-10T12:14:48.000Z</time>
      </trkpt>
      <trkpt lat="42.28647896088659763336181640625" lon="1.8797069974243640899658203125">
        <ele>1377.199951171875</ele>
        <time>2020-08-10T12:14:51.000Z</time>
      </trkpt>
      <trkpt lat="42.2865923680365085601806640625" lon="1.8795641697943210601806640625">
        <ele>1376.199951171875</ele>
        <time>2020-08-10T12:14:53.000Z</time>
      </trkpt>
      <trkpt lat="42.28665196336805820465087890625" lon="1.879495941102504730224609375">
        <ele>1375.800048828125</ele>
        <time>2020-08-10T12:14:54.000Z</time>
      </trkpt>
      <trkpt lat="42.2867070324718952178955078125" lon="1.87941857613623142242431640625">
        <ele>1374.800048828125</ele>
        <time>2020-08-10T12:14:55.000Z</time>
      </trkpt>
      <trkpt lat="42.28675489313900470733642578125" lon="1.879327297210693359375">
        <ele>1374.4000244140625</ele>
        <time>2020-08-10T12:14:56.000Z</time>
      </trkpt>
      <trkpt lat="42.28679730556905269622802734375" lon="1.8792248703539371490478515625">
        <ele>1373.800048828125</ele>
        <time>2020-08-10T12:14:57.000Z</time>
      </trkpt>
      <trkpt lat="42.2868377901613712310791015625" lon="1.87911632470786571502685546875">
        <ele>1373.199951171875</ele>
        <time>2020-08-10T12:14:58.000Z</time>
      </trkpt>
      <trkpt lat="42.28692688979208469390869140625" lon="1.8789087049663066864013671875">
        <ele>1371.4000244140625</ele>
        <time>2020-08-10T12:15:00.000Z</time>
      </trkpt>
      <trkpt lat="42.28698271326720714569091796875" lon="1.87881566584110260009765625">
        <ele>1370.5999755859375</ele>
        <time>2020-08-10T12:15:01.000Z</time>
      </trkpt>
      <trkpt lat="42.28705161251127719879150390625" lon="1.87873360700905323028564453125">
        <ele>1370.199951171875</ele>
        <time>2020-08-10T12:15:02.000Z</time>
      </trkpt>
      <trkpt lat="42.2871321626007556915283203125" lon="1.87866470776498317718505859375">
        <ele>1369</ele>
        <time>2020-08-10T12:15:03.000Z</time>
      </trkpt>
      <trkpt lat="42.28721992112696170806884765625" lon="1.8786029331386089324951171875">
        <ele>1368.4000244140625</ele>
        <time>2020-08-10T12:15:04.000Z</time>
      </trkpt>
      <trkpt lat="42.2873101942241191864013671875" lon="1.87853629700839519500732421875">
        <ele>1367.5999755859375</ele>
        <time>2020-08-10T12:15:05.000Z</time>
      </trkpt>
      <trkpt lat="42.28740222752094268798828125" lon="1.87846320681273937225341796875">
        <ele>1366.800048828125</ele>
        <time>2020-08-10T12:15:06.000Z</time>
      </trkpt>
      <trkpt lat="42.28749417699873447418212890625" lon="1.87838357873260974884033203125">
        <ele>1365.800048828125</ele>
        <time>2020-08-10T12:15:07.000Z</time>
      </trkpt>
      <trkpt lat="42.28758319281041622161865234375" lon="1.87829934060573577880859375">
        <ele>1364.5999755859375</ele>
        <time>2020-08-10T12:15:08.000Z</time>
      </trkpt>
      <trkpt lat="42.28766567073762416839599609375" lon="1.87821493484079837799072265625">
        <ele>1363.5999755859375</ele>
        <time>2020-08-10T12:15:09.000Z</time>
      </trkpt>
      <trkpt lat="42.28774161078035831451416015625" lon="1.87813614495098590850830078125">
        <ele>1362.800048828125</ele>
        <time>2020-08-10T12:15:10.000Z</time>
      </trkpt>
      <trkpt lat="42.28781755082309246063232421875" lon="1.8780681677162647247314453125">
        <ele>1362</ele>
        <time>2020-08-10T12:15:11.000Z</time>
      </trkpt>
      <trkpt lat="42.28798954747617244720458984375" lon="1.87798443250358104705810546875">
        <ele>1360.4000244140625</ele>
        <time>2020-08-10T12:15:13.000Z</time>
      </trkpt>
      <trkpt lat="42.2881785593926906585693359375" lon="1.877946294844150543212890625">
        <ele>1359.4000244140625</ele>
        <time>2020-08-10T12:15:15.000Z</time>
      </trkpt>
      <trkpt lat="42.2882744483649730682373046875" lon="1.8779243342578411102294921875">
        <ele>1358.5999755859375</ele>
        <time>2020-08-10T12:15:16.000Z</time>
      </trkpt>
      <trkpt lat="42.2883669845759868621826171875" lon="1.87790094874799251556396484375">
        <ele>1357.5999755859375</ele>
        <time>2020-08-10T12:15:17.000Z</time>
      </trkpt>
      <trkpt lat="42.2884534858167171478271484375" lon="1.877871863543987274169921875">
        <ele>1356.800048828125</ele>
        <time>2020-08-10T12:15:18.000Z</time>
      </trkpt>
      <trkpt lat="42.28853219188749790191650390625" lon="1.8778351508080959320068359375">
        <ele>1356</ele>
        <time>2020-08-10T12:15:19.000Z</time>
      </trkpt>
      <trkpt lat="42.28865054436028003692626953125" lon="1.87771805562078952789306640625">
        <ele>1354.5999755859375</ele>
        <time>2020-08-10T12:15:21.000Z</time>
      </trkpt>
      <trkpt lat="42.28868055157363414764404296875" lon="1.87755712307989597320556640625">
        <ele>1353.199951171875</ele>
        <time>2020-08-10T12:15:23.000Z</time>
      </trkpt>
      <trkpt lat="42.288629673421382904052734375" lon="1.87738009728491306304931640625">
        <ele>1352</ele>
        <time>2020-08-10T12:15:25.000Z</time>
      </trkpt>
      <trkpt lat="42.288594134151935577392578125" lon="1.8772866390645503997802734375">
        <ele>1351.5999755859375</ele>
        <time>2020-08-10T12:15:26.000Z</time>
      </trkpt>
      <trkpt lat="42.288553230464458465576171875" lon="1.87718580476939678192138671875">
        <ele>1350.800048828125</ele>
        <time>2020-08-10T12:15:27.000Z</time>
      </trkpt>
      <trkpt lat="42.288429178297519683837890625" lon="1.876856647431850433349609375">
        <ele>1349.4000244140625</ele>
        <time>2020-08-10T12:15:30.000Z</time>
      </trkpt>
      <trkpt lat="42.288394309580326080322265625" lon="1.87674055807292461395263671875">
        <ele>1348.5999755859375</ele>
        <time>2020-08-10T12:15:31.000Z</time>
      </trkpt>
      <trkpt lat="42.288364134728908538818359375" lon="1.87662773765623569488525390625">
        <ele>1347.5999755859375</ele>
        <time>2020-08-10T12:15:32.000Z</time>
      </trkpt>
      <trkpt lat="42.28832482360303401947021484375" lon="1.87640662305057048797607421875">
        <ele>1346</ele>
        <time>2020-08-10T12:15:34.000Z</time>
      </trkpt>
      <trkpt lat="42.2883200459182262420654296875" lon="1.87629179097712039947509765625">
        <ele>1345</ele>
        <time>2020-08-10T12:15:35.000Z</time>
      </trkpt>
      <trkpt lat="42.288352064788341522216796875" lon="1.876047961413860321044921875">
        <ele>1343.4000244140625</ele>
        <time>2020-08-10T12:15:37.000Z</time>
      </trkpt>
      <trkpt lat="42.2883854247629642486572265625" lon="1.8759200535714626312255859375">
        <ele>1342.4000244140625</ele>
        <time>2020-08-10T12:15:38.000Z</time>
      </trkpt>
      <trkpt lat="42.2884263284504413604736328125" lon="1.875788457691669464111328125">
        <ele>1341.4000244140625</ele>
        <time>2020-08-10T12:15:39.000Z</time>
      </trkpt>
      <trkpt lat="42.28847511112689971923828125" lon="1.87565459869801998138427734375">
        <ele>1340.199951171875</ele>
        <time>2020-08-10T12:15:40.000Z</time>
      </trkpt>
      <trkpt lat="42.28853336535394191741943359375" lon="1.87552233226597309112548828125">
        <ele>1339.199951171875</ele>
        <time>2020-08-10T12:15:41.000Z</time>
      </trkpt>
      <trkpt lat="42.2885976545512676239013671875" lon="1.875388808548450469970703125">
        <ele>1337.5999755859375</ele>
        <time>2020-08-10T12:15:42.000Z</time>
      </trkpt>
      <trkpt lat="42.28866378776729106903076171875" lon="1.87525142915546894073486328125">
        <ele>1336</ele>
        <time>2020-08-10T12:15:43.000Z</time>
      </trkpt>
      <trkpt lat="42.28872648440301418304443359375" lon="1.875113211572170257568359375">
        <ele>1334.5999755859375</ele>
        <time>2020-08-10T12:15:44.000Z</time>
      </trkpt>
      <trkpt lat="42.2887847386300563812255859375" lon="1.8749728985130786895751953125">
        <ele>1333.4000244140625</ele>
        <time>2020-08-10T12:15:45.000Z</time>
      </trkpt>
      <trkpt lat="42.288836874067783355712890625" lon="1.87483065761625766754150390625">
        <ele>1332.199951171875</ele>
        <time>2020-08-10T12:15:46.000Z</time>
      </trkpt>
      <trkpt lat="42.2888807952404022216796875" lon="1.8746909312903881072998046875">
        <ele>1331.199951171875</ele>
        <time>2020-08-10T12:15:47.000Z</time>
      </trkpt>
      <trkpt lat="42.2889188490808010101318359375" lon="1.8745517916977405548095703125">
        <ele>1330.199951171875</ele>
        <time>2020-08-10T12:15:48.000Z</time>
      </trkpt>
      <trkpt lat="42.2889530472457408905029296875" lon="1.87441709451377391815185546875">
        <ele>1328.800048828125</ele>
        <time>2020-08-10T12:15:49.000Z</time>
      </trkpt>
      <trkpt lat="42.28900493122637271881103515625" lon="1.8741722591221332550048828125">
        <ele>1326.800048828125</ele>
        <time>2020-08-10T12:15:51.000Z</time>
      </trkpt>
      <trkpt lat="42.289021946489810943603515625" lon="1.87406103126704692840576171875">
        <ele>1326</ele>
        <time>2020-08-10T12:15:52.000Z</time>
      </trkpt>
      <trkpt lat="42.28902789764106273651123046875" lon="1.8739536590874195098876953125">
        <ele>1325.4000244140625</ele>
        <time>2020-08-10T12:15:53.000Z</time>
      </trkpt>
      <trkpt lat="42.2890180908143520355224609375" lon="1.87385098077356815338134765625">
        <ele>1324.5999755859375</ele>
        <time>2020-08-10T12:15:54.000Z</time>
      </trkpt>
      <trkpt lat="42.28898900561034679412841796875" lon="1.87375525943934917449951171875">
        <ele>1324</ele>
        <time>2020-08-10T12:15:55.000Z</time>
      </trkpt>
      <trkpt lat="42.288884818553924560546875" lon="1.8735932372510433197021484375">
        <ele>1322.800048828125</ele>
        <time>2020-08-10T12:15:57.000Z</time>
      </trkpt>
      <trkpt lat="42.28882555849850177764892578125" lon="1.8735136091709136962890625">
        <ele>1322.199951171875</ele>
        <time>2020-08-10T12:15:58.000Z</time>
      </trkpt>
      <trkpt lat="42.28876772336661815643310546875" lon="1.87342668883502483367919921875">
        <ele>1321.4000244140625</ele>
        <time>2020-08-10T12:15:59.000Z</time>
      </trkpt>
      <trkpt lat="42.2886576689779758453369140625" lon="1.873231641948223114013671875">
        <ele>1320.199951171875</ele>
        <time>2020-08-10T12:16:01.000Z</time>
      </trkpt>
      <trkpt lat="42.2886067070066928863525390625" lon="1.873123347759246826171875">
        <ele>1319.5999755859375</ele>
        <time>2020-08-10T12:16:02.000Z</time>
      </trkpt>
      <trkpt lat="42.2885587625205516815185546875" lon="1.873009018599987030029296875">
        <ele>1319</ele>
        <time>2020-08-10T12:16:03.000Z</time>
      </trkpt>
      <trkpt lat="42.28846698068082332611083984375" lon="1.87276787124574184417724609375">
        <ele>1317.4000244140625</ele>
        <time>2020-08-10T12:16:05.000Z</time>
      </trkpt>
      <trkpt lat="42.28837192989885807037353515625" lon="1.8725216947495937347412109375">
        <ele>1315</ele>
        <time>2020-08-10T12:16:07.000Z</time>
      </trkpt>
      <trkpt lat="42.288323231041431427001953125" lon="1.87239772640168666839599609375">
        <ele>1314.199951171875</ele>
        <time>2020-08-10T12:16:08.000Z</time>
      </trkpt>
      <trkpt lat="42.2882741130888462066650390625" lon="1.8722771108150482177734375">
        <ele>1313.4000244140625</ele>
        <time>2020-08-10T12:16:09.000Z</time>
      </trkpt>
      <trkpt lat="42.28818652220070362091064453125" lon="1.87204577028751373291015625">
        <ele>1311.800048828125</ele>
        <time>2020-08-10T12:16:11.000Z</time>
      </trkpt>
      <trkpt lat="42.28814193047583103179931640625" lon="1.87180026434361934661865234375">
        <ele>1310</ele>
        <time>2020-08-10T12:16:13.000Z</time>
      </trkpt>
      <trkpt lat="42.28815249167382717132568359375" lon="1.871538497507572174072265625">
        <ele>1308.199951171875</ele>
        <time>2020-08-10T12:16:15.000Z</time>
      </trkpt>
      <trkpt lat="42.2881686687469482421875" lon="1.87140069901943206787109375">
        <ele>1307.5999755859375</ele>
        <time>2020-08-10T12:16:16.000Z</time>
      </trkpt>
      <trkpt lat="42.288187779486179351806640625" lon="1.87125862576067447662353515625">
        <ele>1306.4000244140625</ele>
        <time>2020-08-10T12:16:17.000Z</time>
      </trkpt>
      <trkpt lat="42.28821686469018459320068359375" lon="1.87098084948956966400146484375">
        <ele>1304.5999755859375</ele>
        <time>2020-08-10T12:16:19.000Z</time>
      </trkpt>
      <trkpt lat="42.2882285155355930328369140625" lon="1.87072084285318851470947265625">
        <ele>1302.800048828125</ele>
        <time>2020-08-10T12:16:21.000Z</time>
      </trkpt>
      <trkpt lat="42.28823781944811344146728515625" lon="1.87047005631029605865478515625">
        <ele>1300.5999755859375</ele>
        <time>2020-08-10T12:16:23.000Z</time>
      </trkpt>
      <trkpt lat="42.28825324214994907379150390625" lon="1.87035321258008480072021484375">
        <ele>1299.800048828125</ele>
        <time>2020-08-10T12:16:24.000Z</time>
      </trkpt>
      <trkpt lat="42.2882764600217342376708984375" lon="1.87024734914302825927734375">
        <ele>1299</ele>
        <time>2020-08-10T12:16:25.000Z</time>
      </trkpt>
      <trkpt lat="42.288359105587005615234375" lon="1.8700456805527210235595703125">
        <ele>1297.5999755859375</ele>
        <time>2020-08-10T12:16:27.000Z</time>
      </trkpt>
      <trkpt lat="42.28841836564242839813232421875" lon="1.86995029449462890625">
        <ele>1296.800048828125</ele>
        <time>2020-08-10T12:16:28.000Z</time>
      </trkpt>
      <trkpt lat="42.28848743252456188201904296875" lon="1.86985767446458339691162109375">
        <ele>1296</ele>
        <time>2020-08-10T12:16:29.000Z</time>
      </trkpt>
      <trkpt lat="42.28856370784342288970947265625" lon="1.86976597644388675689697265625">
        <ele>1295.5999755859375</ele>
        <time>2020-08-10T12:16:30.000Z</time>
      </trkpt>
      <trkpt lat="42.28864635340869426727294921875" lon="1.86967612244188785552978515625">
        <ele>1294.4000244140625</ele>
        <time>2020-08-10T12:16:31.000Z</time>
      </trkpt>
      <trkpt lat="42.2887321002781391143798828125" lon="1.86958559788763523101806640625">
        <ele>1293.199951171875</ele>
        <time>2020-08-10T12:16:32.000Z</time>
      </trkpt>
      <trkpt lat="42.28881885297596454620361328125" lon="1.86949088238179683685302734375">
        <ele>1292.199951171875</ele>
        <time>2020-08-10T12:16:33.000Z</time>
      </trkpt>
      <trkpt lat="42.2890023328363895416259765625" lon="1.8693006969988346099853515625">
        <ele>1290.199951171875</ele>
        <time>2020-08-10T12:16:35.000Z</time>
      </trkpt>
      <trkpt lat="42.28910006582736968994140625" lon="1.86920925043523311614990234375">
        <ele>1289.199951171875</ele>
        <time>2020-08-10T12:16:36.000Z</time>
      </trkpt>
      <trkpt lat="42.28929041884839534759521484375" lon="1.8690224178135395050048828125">
        <ele>1287.4000244140625</ele>
        <time>2020-08-10T12:16:38.000Z</time>
      </trkpt>
      <trkpt lat="42.2893754951655864715576171875" lon="1.86892795376479625701904296875">
        <ele>1286.199951171875</ele>
        <time>2020-08-10T12:16:39.000Z</time>
      </trkpt>
      <trkpt lat="42.2894521057605743408203125" lon="1.8688329868018627166748046875">
        <ele>1285</ele>
        <time>2020-08-10T12:16:40.000Z</time>
      </trkpt>
      <trkpt lat="42.28957624174654483795166015625" lon="1.868640370666980743408203125">
        <ele>1283.4000244140625</ele>
        <time>2020-08-10T12:16:42.000Z</time>
      </trkpt>
      <trkpt lat="42.2896557860076427459716796875" lon="1.868425793945789337158203125">
        <ele>1282.199951171875</ele>
        <time>2020-08-10T12:16:44.000Z</time>
      </trkpt>
      <trkpt lat="42.289687804877758026123046875" lon="1.8683092854917049407958984375">
        <ele>1281.4000244140625</ele>
        <time>2020-08-10T12:16:45.000Z</time>
      </trkpt>
      <trkpt lat="42.289728708565235137939453125" lon="1.8681973032653331756591796875">
        <ele>1281</ele>
        <time>2020-08-10T12:16:46.000Z</time>
      </trkpt>
      <trkpt lat="42.289850413799285888671875" lon="1.86800560913980007171630859375">
        <ele>1279.5999755859375</ele>
        <time>2020-08-10T12:16:48.000Z</time>
      </trkpt>
      <trkpt lat="42.2900145314633846282958984375" lon="1.86784802936017513275146484375">
        <ele>1277.5999755859375</ele>
        <time>2020-08-10T12:16:50.000Z</time>
      </trkpt>
      <trkpt lat="42.29010321199893951416015625" lon="1.8677715025842189788818359375">
        <ele>1276.800048828125</ele>
        <time>2020-08-10T12:16:51.000Z</time>
      </trkpt>
      <trkpt lat="42.29019398801028728485107421875" lon="1.8676932156085968017578125">
        <ele>1275.800048828125</ele>
        <time>2020-08-10T12:16:52.000Z</time>
      </trkpt>
      <trkpt lat="42.2902830876410007476806640625" lon="1.867614425718784332275390625">
        <ele>1275.199951171875</ele>
        <time>2020-08-10T12:16:53.000Z</time>
      </trkpt>
      <trkpt lat="42.2904547490179538726806640625" lon="1.8674633838236331939697265625">
        <ele>1273.4000244140625</ele>
        <time>2020-08-10T12:16:55.000Z</time>
      </trkpt>
      <trkpt lat="42.29061283171176910400390625" lon="1.8673252500593662261962890625">
        <ele>1272</ele>
        <time>2020-08-10T12:16:57.000Z</time>
      </trkpt>
      <trkpt lat="42.29068198241293430328369140625" lon="1.8672662414610385894775390625">
        <ele>1271.199951171875</ele>
        <time>2020-08-10T12:16:58.000Z</time>
      </trkpt>
      <trkpt lat="42.29074769653379917144775390625" lon="1.86721737496554851531982421875">
        <ele>1270.199951171875</ele>
        <time>2020-08-10T12:16:59.000Z</time>
      </trkpt>
      <trkpt lat="42.290817014873027801513671875" lon="1.8671961687505245208740234375">
        <ele>1269.5999755859375</ele>
        <time>2020-08-10T12:17:00.000Z</time>
      </trkpt>
      <trkpt lat="42.2908899374306201934814453125" lon="1.867203377187252044677734375">
        <ele>1269</ele>
        <time>2020-08-10T12:17:01.000Z</time>
      </trkpt>
      <trkpt lat="42.2910877503454685211181640625" lon="1.8673376552760601043701171875">
        <ele>1268.199951171875</ele>
        <time>2020-08-10T12:17:04.000Z</time>
      </trkpt>
      <trkpt lat="42.29114818386733531951904296875" lon="1.867399848997592926025390625">
        <ele>1267.800048828125</ele>
        <time>2020-08-10T12:17:05.000Z</time>
      </trkpt>
      <trkpt lat="42.29134247638285160064697265625" lon="1.86759942211210727691650390625">
        <ele>1266.800048828125</ele>
        <time>2020-08-10T12:17:08.000Z</time>
      </trkpt>
      <trkpt lat="42.2914776764810085296630859375" lon="1.86774593777954578399658203125">
        <ele>1266</ele>
        <time>2020-08-10T12:17:10.000Z</time>
      </trkpt>
      <trkpt lat="42.29154783301055431365966796875" lon="1.86781869269907474517822265625">
        <ele>1265.4000244140625</ele>
        <time>2020-08-10T12:17:11.000Z</time>
      </trkpt>
      <trkpt lat="42.2916878946125507354736328125" lon="1.8679592572152614593505859375">
        <ele>1264.199951171875</ele>
        <time>2020-08-10T12:17:13.000Z</time>
      </trkpt>
      <trkpt lat="42.291835248470306396484375" lon="1.86811306513845920562744140625">
        <ele>1262.4000244140625</ele>
        <time>2020-08-10T12:17:15.000Z</time>
      </trkpt>
      <trkpt lat="42.291913367807865142822265625" lon="1.86819017864763736724853515625">
        <ele>1261.800048828125</ele>
        <time>2020-08-10T12:17:16.000Z</time>
      </trkpt>
      <trkpt lat="42.29208662174642086029052734375" lon="1.8683354370296001434326171875">
        <ele>1261</ele>
        <time>2020-08-10T12:17:18.000Z</time>
      </trkpt>
      <trkpt lat="42.2922783158719539642333984375" lon="1.86846678145229816436767578125">
        <ele>1259</ele>
        <time>2020-08-10T12:17:20.000Z</time>
      </trkpt>
      <trkpt lat="42.29237982071936130523681640625" lon="1.8685302324593067169189453125">
        <ele>1257.800048828125</ele>
        <time>2020-08-10T12:17:21.000Z</time>
      </trkpt>
      <trkpt lat="42.29259104467928409576416015625" lon="1.86865017749369144439697265625">
        <ele>1256.4000244140625</ele>
        <time>2020-08-10T12:17:23.000Z</time>
      </trkpt>
      <trkpt lat="42.29280360974371433258056640625" lon="1.868754364550113677978515625">
        <ele>1254.5999755859375</ele>
        <time>2020-08-10T12:17:25.000Z</time>
      </trkpt>
      <trkpt lat="42.29290687479078769683837890625" lon="1.86880205757915973663330078125">
        <ele>1254</ele>
        <time>2020-08-10T12:17:26.000Z</time>
      </trkpt>
      <trkpt lat="42.29300829581916332244873046875" lon="1.868846230208873748779296875">
        <ele>1253</ele>
        <time>2020-08-10T12:17:27.000Z</time>
      </trkpt>
      <trkpt lat="42.29321247898042201995849609375" lon="1.86893700622022151947021484375">
        <ele>1251.199951171875</ele>
        <time>2020-08-10T12:17:29.000Z</time>
      </trkpt>
      <trkpt lat="42.29340576566755771636962890625" lon="1.8690204061567783355712890625">
        <ele>1249.4000244140625</ele>
        <time>2020-08-10T12:17:31.000Z</time>
      </trkpt>
      <trkpt lat="42.29349193163216114044189453125" lon="1.86906960792839527130126953125">
        <ele>1248.5999755859375</ele>
        <time>2020-08-10T12:17:32.000Z</time>
      </trkpt>
      <trkpt lat="42.293578684329986572265625" lon="1.8691199831664562225341796875">
        <ele>1248</ele>
        <time>2020-08-10T12:17:33.000Z</time>
      </trkpt>
      <trkpt lat="42.2937485016882419586181640625" lon="1.86921679414808750152587890625">
        <ele>1246.5999755859375</ele>
        <time>2020-08-10T12:17:35.000Z</time>
      </trkpt>
      <trkpt lat="42.2938343323767185211181640625" lon="1.869275383651256561279296875">
        <ele>1245.800048828125</ele>
        <time>2020-08-10T12:17:36.000Z</time>
      </trkpt>
      <trkpt lat="42.2939168103039264678955078125" lon="1.8693456239998340606689453125">
        <ele>1245.199951171875</ele>
        <time>2020-08-10T12:17:37.000Z</time>
      </trkpt>
      <trkpt lat="42.29408067651093006134033203125" lon="1.86948786489665508270263671875">
        <ele>1244</ele>
        <time>2020-08-10T12:17:39.000Z</time>
      </trkpt>
      <trkpt lat="42.29427195154130458831787109375" lon="1.86958752572536468505859375">
        <ele>1243</ele>
        <time>2020-08-10T12:17:41.000Z</time>
      </trkpt>
      <trkpt lat="42.2944773919880390167236328125" lon="1.86965583823621273040771484375">
        <ele>1241.199951171875</ele>
        <time>2020-08-10T12:17:43.000Z</time>
      </trkpt>
      <trkpt lat="42.29469020850956439971923828125" lon="1.8697352148592472076416015625">
        <ele>1239.800048828125</ele>
        <time>2020-08-10T12:17:45.000Z</time>
      </trkpt>
      <trkpt lat="42.294796742498874664306640625" lon="1.86978307552635669708251953125">
        <ele>1239.199951171875</ele>
        <time>2020-08-10T12:17:46.000Z</time>
      </trkpt>
      <trkpt lat="42.2949021868407726287841796875" lon="1.86983487568795680999755859375">
        <ele>1238.199951171875</ele>
        <time>2020-08-10T12:17:47.000Z</time>
      </trkpt>
      <trkpt lat="42.29510544799268245697021484375" lon="1.86994082294404506683349609375">
        <ele>1237.199951171875</ele>
        <time>2020-08-10T12:17:49.000Z</time>
      </trkpt>
      <trkpt lat="42.29530627839267253875732421875" lon="1.87003679573535919189453125">
        <ele>1236</ele>
        <time>2020-08-10T12:17:51.000Z</time>
      </trkpt>
      <trkpt lat="42.29540501721203327178955078125" lon="1.87008230946958065032958984375">
        <ele>1235.5999755859375</ele>
        <time>2020-08-10T12:17:52.000Z</time>
      </trkpt>
      <trkpt lat="42.29559863917529582977294921875" lon="1.87017803080379962921142578125">
        <ele>1234.5999755859375</ele>
        <time>2020-08-10T12:17:54.000Z</time>
      </trkpt>
      <trkpt lat="42.2958759963512420654296875" lon="1.87033812515437602996826171875">
        <ele>1233.4000244140625</ele>
        <time>2020-08-10T12:17:57.000Z</time>
      </trkpt>
      <trkpt lat="42.2960422933101654052734375" lon="1.870466955006122589111328125">
        <ele>1232.4000244140625</ele>
        <time>2020-08-10T12:17:59.000Z</time>
      </trkpt>
      <trkpt lat="42.2962139546871185302734375" lon="1.870747916400432586669921875">
        <ele>1231.199951171875</ele>
        <time>2020-08-10T12:18:02.000Z</time>
      </trkpt>
      <trkpt lat="42.2962935827672481536865234375" lon="1.87095805071294307708740234375">
        <ele>1230.4000244140625</ele>
        <time>2020-08-10T12:18:04.000Z</time>
      </trkpt>
      <trkpt lat="42.2963297925889492034912109375" lon="1.8710642494261264801025390625">
        <ele>1229.800048828125</ele>
        <time>2020-08-10T12:18:05.000Z</time>
      </trkpt>
      <trkpt lat="42.29639123193919658660888671875" lon="1.871277652680873870849609375">
        <ele>1228.800048828125</ele>
        <time>2020-08-10T12:18:07.000Z</time>
      </trkpt>
      <trkpt lat="42.29647521860897541046142578125" lon="1.87158149667084217071533203125">
        <ele>1227.800048828125</ele>
        <time>2020-08-10T12:18:10.000Z</time>
      </trkpt>
      <trkpt lat="42.296558953821659088134765625" lon="1.87174041755497455596923828125">
        <ele>1227</ele>
        <time>2020-08-10T12:18:12.000Z</time>
      </trkpt>
      <trkpt lat="42.2966154478490352630615234375" lon="1.871791295707225799560546875">
        <ele>1226.4000244140625</ele>
        <time>2020-08-10T12:18:13.000Z</time>
      </trkpt>
      <trkpt lat="42.29674897156655788421630859375" lon="1.87181618995964527130126953125">
        <ele>1225.5999755859375</ele>
        <time>2020-08-10T12:18:15.000Z</time>
      </trkpt>
      <trkpt lat="42.29687604121863842010498046875" lon="1.87174360267817974090576171875">
        <ele>1225.199951171875</ele>
        <time>2020-08-10T12:18:17.000Z</time>
      </trkpt>
      <trkpt lat="42.2969275899231433868408203125" lon="1.87167621217668056488037109375">
        <ele>1225</ele>
        <time>2020-08-10T12:18:18.000Z</time>
      </trkpt>
      <trkpt lat="42.2969990037381649017333984375" lon="1.87141302041709423065185546875">
        <ele>1224.4000244140625</ele>
        <time>2020-08-10T12:18:21.000Z</time>
      </trkpt>
      <trkpt lat="42.2969939745962619781494140625" lon="1.87132534570991992950439453125">
        <ele>1224.199951171875</ele>
        <time>2020-08-10T12:18:22.000Z</time>
      </trkpt>
      <trkpt lat="42.296965308487415313720703125" lon="1.87115854583680629730224609375">
        <ele>1223.4000244140625</ele>
        <time>2020-08-10T12:18:24.000Z</time>
      </trkpt>
      <trkpt lat="42.29694929905235767364501953125" lon="1.871077828109264373779296875">
        <ele>1222.800048828125</ele>
        <time>2020-08-10T12:18:25.000Z</time>
      </trkpt>
      <trkpt lat="42.2968979179859161376953125" lon="1.87083198688924312591552734375">
        <ele>1221.4000244140625</ele>
        <time>2020-08-10T12:18:28.000Z</time>
      </trkpt>
      <trkpt lat="42.2968705929815769195556640625" lon="1.870633922517299652099609375">
        <ele>1220.199951171875</ele>
        <time>2020-08-10T12:18:30.000Z</time>
      </trkpt>
      <trkpt lat="42.29684184305369853973388671875" lon="1.8704091198742389678955078125">
        <ele>1219</ele>
        <time>2020-08-10T12:18:32.000Z</time>
      </trkpt>
      <trkpt lat="42.29679398238658905029296875" lon="1.87017702497541904449462890625">
        <ele>1217.800048828125</ele>
        <time>2020-08-10T12:18:34.000Z</time>
      </trkpt>
      <trkpt lat="42.29676087386906147003173828125" lon="1.8700617738068103790283203125">
        <ele>1217.4000244140625</ele>
        <time>2020-08-10T12:18:35.000Z</time>
      </trkpt>
      <trkpt lat="42.2967220656573772430419921875" lon="1.86994266696274280548095703125">
        <ele>1216.5999755859375</ele>
        <time>2020-08-10T12:18:36.000Z</time>
      </trkpt>
      <trkpt lat="42.2966258414089679718017578125" lon="1.8696990050375461578369140625">
        <ele>1214.5999755859375</ele>
        <time>2020-08-10T12:18:38.000Z</time>
      </trkpt>
      <trkpt lat="42.29656943120062351226806640625" lon="1.86958040110766887664794921875">
        <ele>1213.4000244140625</ele>
        <time>2020-08-10T12:18:39.000Z</time>
      </trkpt>
      <trkpt lat="42.29651033878326416015625" lon="1.86946338973939418792724609375">
        <ele>1212.4000244140625</ele>
        <time>2020-08-10T12:18:40.000Z</time>
      </trkpt>
      <trkpt lat="42.2963921539485454559326171875" lon="1.86922651715576648712158203125">
        <ele>1210.800048828125</ele>
        <time>2020-08-10T12:18:42.000Z</time>
      </trkpt>
      <trkpt lat="42.2963354922831058502197265625" lon="1.8691069073975086212158203125">
        <ele>1209.5999755859375</ele>
        <time>2020-08-10T12:18:43.000Z</time>
      </trkpt>
      <trkpt lat="42.29621998965740203857421875" lon="1.86887380667030811309814453125">
        <ele>1207.800048828125</ele>
        <time>2020-08-10T12:18:45.000Z</time>
      </trkpt>
      <trkpt lat="42.2961500845849514007568359375" lon="1.868775151669979095458984375">
        <ele>1206.800048828125</ele>
        <time>2020-08-10T12:18:46.000Z</time>
      </trkpt>
      <trkpt lat="42.29606886394321918487548828125" lon="1.86869510449469089508056640625">
        <ele>1205.5999755859375</ele>
        <time>2020-08-10T12:18:47.000Z</time>
      </trkpt>
      <trkpt lat="42.29597716592252254486083984375" lon="1.86862863600254058837890625">
        <ele>1204.199951171875</ele>
        <time>2020-08-10T12:18:48.000Z</time>
      </trkpt>
      <trkpt lat="42.2958798520267009735107421875" lon="1.86856887303292751312255859375">
        <ele>1203.4000244140625</ele>
        <time>2020-08-10T12:18:49.000Z</time>
      </trkpt>
      <trkpt lat="42.29578253813087940216064453125" lon="1.8685081042349338531494140625">
        <ele>1202.5999755859375</ele>
        <time>2020-08-10T12:18:50.000Z</time>
      </trkpt>
      <trkpt lat="42.295688576996326446533203125" lon="1.86844364739954471588134765625">
        <ele>1201.5999755859375</ele>
        <time>2020-08-10T12:18:51.000Z</time>
      </trkpt>
      <trkpt lat="42.2955982200801372528076171875" lon="1.86837122775614261627197265625">
        <ele>1200.4000244140625</ele>
        <time>2020-08-10T12:18:52.000Z</time>
      </trkpt>
      <trkpt lat="42.29550920426845550537109375" lon="1.8682915158569812774658203125">
        <ele>1199.4000244140625</ele>
        <time>2020-08-10T12:18:53.000Z</time>
      </trkpt>
      <trkpt lat="42.29541859589517116546630859375" lon="1.86820392496883869171142578125">
        <ele>1198.5999755859375</ele>
        <time>2020-08-10T12:18:54.000Z</time>
      </trkpt>
      <trkpt lat="42.29532740078866481781005859375" lon="1.868109293282032012939453125">
        <ele>1197.199951171875</ele>
        <time>2020-08-10T12:18:55.000Z</time>
      </trkpt>
      <trkpt lat="42.29523302055895328521728515625" lon="1.8680097162723541259765625">
        <ele>1196</ele>
        <time>2020-08-10T12:18:56.000Z</time>
      </trkpt>
      <trkpt lat="42.29513595812022686004638671875" lon="1.867904774844646453857421875">
        <ele>1195</ele>
        <time>2020-08-10T12:18:57.000Z</time>
      </trkpt>
      <trkpt lat="42.29503571055829524993896484375" lon="1.867797486484050750732421875">
        <ele>1193.5999755859375</ele>
        <time>2020-08-10T12:18:58.000Z</time>
      </trkpt>
      <trkpt lat="42.2949353791773319244384765625" lon="1.86769128777086734771728515625">
        <ele>1192.4000244140625</ele>
        <time>2020-08-10T12:18:59.000Z</time>
      </trkpt>
      <trkpt lat="42.2947439365088939666748046875" lon="1.86747704632580280303955078125">
        <ele>1190.199951171875</ele>
        <time>2020-08-10T12:19:01.000Z</time>
      </trkpt>
      <trkpt lat="42.29464880190789699554443359375" lon="1.86736129224300384521484375">
        <ele>1188.800048828125</ele>
        <time>2020-08-10T12:19:02.000Z</time>
      </trkpt>
      <trkpt lat="42.2945536673069000244140625" lon="1.86723799444735050201416015625">
        <ele>1186.800048828125</ele>
        <time>2020-08-10T12:19:03.000Z</time>
      </trkpt>
      <trkpt lat="42.29445911943912506103515625" lon="1.86710841022431850433349609375">
        <ele>1185.199951171875</ele>
        <time>2020-08-10T12:19:04.000Z</time>
      </trkpt>
      <trkpt lat="42.29436683468520641326904296875" lon="1.86697664670646190643310546875">
        <ele>1184</ele>
        <time>2020-08-10T12:19:05.000Z</time>
      </trkpt>
      <trkpt lat="42.29427848942577838897705078125" lon="1.866846978664398193359375">
        <ele>1182</ele>
        <time>2020-08-10T12:19:06.000Z</time>
      </trkpt>
      <trkpt lat="42.29419291019439697265625" lon="1.86672024428844451904296875">
        <ele>1180.5999755859375</ele>
        <time>2020-08-10T12:19:07.000Z</time>
      </trkpt>
      <trkpt lat="42.29411101900041103363037109375" lon="1.86659862287342548370361328125">
        <ele>1179</ele>
        <time>2020-08-10T12:19:08.000Z</time>
      </trkpt>
      <trkpt lat="42.29403491131961345672607421875" lon="1.86648496426641941070556640625">
        <ele>1178</ele>
        <time>2020-08-10T12:19:09.000Z</time>
      </trkpt>
      <trkpt lat="42.29389987885951995849609375" lon="1.86627365648746490478515625">
        <ele>1175.199951171875</ele>
        <time>2020-08-10T12:19:11.000Z</time>
      </trkpt>
      <trkpt lat="42.29383424855768680572509765625" lon="1.866172738373279571533203125">
        <ele>1174.199951171875</ele>
        <time>2020-08-10T12:19:12.000Z</time>
      </trkpt>
      <trkpt lat="42.29376308619976043701171875" lon="1.86607995070517063140869140625">
        <ele>1173</ele>
        <time>2020-08-10T12:19:13.000Z</time>
      </trkpt>
      <trkpt lat="42.2936100326478481292724609375" lon="1.86593309976160526275634765625">
        <ele>1171</ele>
        <time>2020-08-10T12:19:15.000Z</time>
      </trkpt>
      <trkpt lat="42.29353451170027256011962890625" lon="1.8658746778964996337890625">
        <ele>1169.800048828125</ele>
        <time>2020-08-10T12:19:16.000Z</time>
      </trkpt>
      <trkpt lat="42.29346670210361480712890625" lon="1.86581457965075969696044921875">
        <ele>1168.800048828125</ele>
        <time>2020-08-10T12:19:17.000Z</time>
      </trkpt>
      <trkpt lat="42.293353378772735595703125" lon="1.86567150056362152099609375">
        <ele>1166.4000244140625</ele>
        <time>2020-08-10T12:19:19.000Z</time>
      </trkpt>
      <trkpt lat="42.2933091223239898681640625" lon="1.8655798025429248809814453125">
        <ele>1165</ele>
        <time>2020-08-10T12:19:20.000Z</time>
      </trkpt>
      <trkpt lat="42.29323125444352626800537109375" lon="1.8653662316501140594482421875">
        <ele>1163.5999755859375</ele>
        <time>2020-08-10T12:19:22.000Z</time>
      </trkpt>
      <trkpt lat="42.2931664623320102691650390625" lon="1.8651422671973705291748046875">
        <ele>1161.800048828125</ele>
        <time>2020-08-10T12:19:24.000Z</time>
      </trkpt>
      <trkpt lat="42.29314207099378108978271484375" lon="1.86502953059971332550048828125">
        <ele>1161.199951171875</ele>
        <time>2020-08-10T12:19:25.000Z</time>
      </trkpt>
      <trkpt lat="42.29312698356807231903076171875" lon="1.86491134576499462127685546875">
        <ele>1160.4000244140625</ele>
        <time>2020-08-10T12:19:26.000Z</time>
      </trkpt>
      <trkpt lat="42.29312463663518428802490234375" lon="1.86478695832192897796630859375">
        <ele>1158.800048828125</ele>
        <time>2020-08-10T12:19:27.000Z</time>
      </trkpt>
      <trkpt lat="42.29313301853835582733154296875" lon="1.8646596372127532958984375">
        <ele>1157.5999755859375</ele>
        <time>2020-08-10T12:19:28.000Z</time>
      </trkpt>
      <trkpt lat="42.29317375458776950836181640625" lon="1.86440373770892620086669921875">
        <ele>1155.5999755859375</ele>
        <time>2020-08-10T12:19:30.000Z</time>
      </trkpt>
      <trkpt lat="42.29321029968559741973876953125" lon="1.86427683569490909576416015625">
        <ele>1154.5999755859375</ele>
        <time>2020-08-10T12:19:31.000Z</time>
      </trkpt>
      <trkpt lat="42.2933019138872623443603515625" lon="1.864041388034820556640625">
        <ele>1153.199951171875</ele>
        <time>2020-08-10T12:19:33.000Z</time>
      </trkpt>
      <trkpt lat="42.2933917678892612457275390625" lon="1.8638075329363346099853515625">
        <ele>1151.4000244140625</ele>
        <time>2020-08-10T12:19:35.000Z</time>
      </trkpt>
      <trkpt lat="42.29342688806354999542236328125" lon="1.8636811338365077972412109375">
        <ele>1150.4000244140625</ele>
        <time>2020-08-10T12:19:36.000Z</time>
      </trkpt>
      <trkpt lat="42.29345060884952545166015625" lon="1.86354995705187320709228515625">
        <ele>1149.199951171875</ele>
        <time>2020-08-10T12:19:37.000Z</time>
      </trkpt>
      <trkpt lat="42.293461672961711883544921875" lon="1.86341299675405025482177734375">
        <ele>1148.199951171875</ele>
        <time>2020-08-10T12:19:38.000Z</time>
      </trkpt>
      <trkpt lat="42.29344616644084453582763671875" lon="1.86311912722885608673095703125">
        <ele>1146</ele>
        <time>2020-08-10T12:19:40.000Z</time>
      </trkpt>
      <trkpt lat="42.29342035017907619476318359375" lon="1.86296473257243633270263671875">
        <ele>1144.800048828125</ele>
        <time>2020-08-10T12:19:41.000Z</time>
      </trkpt>
      <trkpt lat="42.2933869063854217529296875" lon="1.8628053925931453704833984375">
        <ele>1143.800048828125</ele>
        <time>2020-08-10T12:19:42.000Z</time>
      </trkpt>
      <trkpt lat="42.29335010983049869537353515625" lon="1.86264152638614177703857421875">
        <ele>1142</ele>
        <time>2020-08-10T12:19:43.000Z</time>
      </trkpt>
      <trkpt lat="42.2933143191039562225341796875" lon="1.862479336559772491455078125">
        <ele>1140.5999755859375</ele>
        <time>2020-08-10T12:19:44.000Z</time>
      </trkpt>
      <trkpt lat="42.29328204877674579620361328125" lon="1.86232184059917926788330078125">
        <ele>1139.199951171875</ele>
        <time>2020-08-10T12:19:45.000Z</time>
      </trkpt>
      <trkpt lat="42.2932529635727405548095703125" lon="1.86216962523758411407470703125">
        <ele>1137.800048828125</ele>
        <time>2020-08-10T12:19:46.000Z</time>
      </trkpt>
      <trkpt lat="42.29322438128292560577392578125" lon="1.86202277429401874542236328125">
        <ele>1136.5999755859375</ele>
        <time>2020-08-10T12:19:47.000Z</time>
      </trkpt>
      <trkpt lat="42.2931936196982860565185546875" lon="1.8618776835501194000244140625">
        <ele>1135.199951171875</ele>
        <time>2020-08-10T12:19:48.000Z</time>
      </trkpt>
      <trkpt lat="42.2931567393243312835693359375" lon="1.86173158697783946990966796875">
        <ele>1133.800048828125</ele>
        <time>2020-08-10T12:19:49.000Z</time>
      </trkpt>
      <trkpt lat="42.29311239905655384063720703125" lon="1.861588172614574432373046875">
        <ele>1132.800048828125</ele>
        <time>2020-08-10T12:19:50.000Z</time>
      </trkpt>
      <trkpt lat="42.29306143708527088165283203125" lon="1.8614490330219268798828125">
        <ele>1131.800048828125</ele>
        <time>2020-08-10T12:19:51.000Z</time>
      </trkpt>
      <trkpt lat="42.29300544597208499908447265625" lon="1.8613140843808650970458984375">
        <ele>1130.5999755859375</ele>
        <time>2020-08-10T12:19:52.000Z</time>
      </trkpt>
      <trkpt lat="42.292946688830852508544921875" lon="1.86118676327168941497802734375">
        <ele>1129.5999755859375</ele>
        <time>2020-08-10T12:19:53.000Z</time>
      </trkpt>
      <trkpt lat="42.29288692586123943328857421875" lon="1.861066482961177825927734375">
        <ele>1128.199951171875</ele>
        <time>2020-08-10T12:19:54.000Z</time>
      </trkpt>
      <trkpt lat="42.29282833635807037353515625" lon="1.8609496392309665679931640625">
        <ele>1126.5999755859375</ele>
        <time>2020-08-10T12:19:55.000Z</time>
      </trkpt>
      <trkpt lat="42.2927708365023136138916015625" lon="1.860829778015613555908203125">
        <ele>1125.5999755859375</ele>
        <time>2020-08-10T12:19:56.000Z</time>
      </trkpt>
      <trkpt lat="42.2926573455333709716796875" lon="1.860592402517795562744140625">
        <ele>1124</ele>
        <time>2020-08-10T12:19:58.000Z</time>
      </trkpt>
      <trkpt lat="42.29259590618312358856201171875" lon="1.86048553325235843658447265625">
        <ele>1122.800048828125</ele>
        <time>2020-08-10T12:19:59.000Z</time>
      </trkpt>
      <trkpt lat="42.29244234971702098846435546875" lon="1.8602981977164745330810546875">
        <ele>1120.800048828125</ele>
        <time>2020-08-10T12:20:01.000Z</time>
      </trkpt>
      <trkpt lat="42.292260713875293731689453125" lon="1.86016400344669818878173828125">
        <ele>1118.800048828125</ele>
        <time>2020-08-10T12:20:03.000Z</time>
      </trkpt>
      <trkpt lat="42.2921713627874851226806640625" lon="1.86010449193418025970458984375">
        <ele>1118</ele>
        <time>2020-08-10T12:20:04.000Z</time>
      </trkpt>
      <trkpt lat="42.29208377189934253692626953125" lon="1.86004632152616977691650390625">
        <ele>1116.5999755859375</ele>
        <time>2020-08-10T12:20:05.000Z</time>
      </trkpt>
      <trkpt lat="42.291999198496341705322265625" lon="1.85999686829745769500732421875">
        <ele>1115.5999755859375</ele>
        <time>2020-08-10T12:20:06.000Z</time>
      </trkpt>
      <trkpt lat="42.29191713966429233551025390625" lon="1.859967447817325592041015625">
        <ele>1114.4000244140625</ele>
        <time>2020-08-10T12:20:07.000Z</time>
      </trkpt>
      <trkpt lat="42.29183591902256011962890625" lon="1.8599659390747547149658203125">
        <ele>1113.4000244140625</ele>
        <time>2020-08-10T12:20:08.000Z</time>
      </trkpt>
      <trkpt lat="42.29175469838082790374755859375" lon="1.85999133624136447906494140625">
        <ele>1112.5999755859375</ele>
        <time>2020-08-10T12:20:09.000Z</time>
      </trkpt>
      <trkpt lat="42.29160080663859844207763671875" lon="1.8600738979876041412353515625">
        <ele>1111.4000244140625</ele>
        <time>2020-08-10T12:20:11.000Z</time>
      </trkpt>
      <trkpt lat="42.29143601842224597930908203125" lon="1.86011706478893756866455078125">
        <ele>1109.800048828125</ele>
        <time>2020-08-10T12:20:13.000Z</time>
      </trkpt>
      <trkpt lat="42.2913519479334354400634765625" lon="1.8601198308169841766357421875">
        <ele>1109</ele>
        <time>2020-08-10T12:20:14.000Z</time>
      </trkpt>
      <trkpt lat="42.2912687994539737701416015625" lon="1.860117651522159576416015625">
        <ele>1108.199951171875</ele>
        <time>2020-08-10T12:20:15.000Z</time>
      </trkpt>
      <trkpt lat="42.29109990410506725311279296875" lon="1.86012024991214275360107421875">
        <ele>1106.5999755859375</ele>
        <time>2020-08-10T12:20:17.000Z</time>
      </trkpt>
      <trkpt lat="42.2909251414239406585693359375" lon="1.8601154722273349761962890625">
        <ele>1105.5999755859375</ele>
        <time>2020-08-10T12:20:19.000Z</time>
      </trkpt>
      <trkpt lat="42.29083620943129062652587890625" lon="1.86009611003100872039794921875">
        <ele>1104.800048828125</ele>
        <time>2020-08-10T12:20:20.000Z</time>
      </trkpt>
      <trkpt lat="42.29074551723897457122802734375" lon="1.86006367206573486328125">
        <ele>1104</ele>
        <time>2020-08-10T12:20:21.000Z</time>
      </trkpt>
      <trkpt lat="42.290560193359851837158203125" lon="1.85997784137725830078125">
        <ele>1102.4000244140625</ele>
        <time>2020-08-10T12:20:23.000Z</time>
      </trkpt>
      <trkpt lat="42.290466986596584320068359375" lon="1.85993886552751064300537109375">
        <ele>1101.4000244140625</ele>
        <time>2020-08-10T12:20:24.000Z</time>
      </trkpt>
      <trkpt lat="42.290273867547512054443359375" lon="1.85987952165305614471435546875">
        <ele>1100</ele>
        <time>2020-08-10T12:20:26.000Z</time>
      </trkpt>
      <trkpt lat="42.29017185978591442108154296875" lon="1.8598584830760955810546875">
        <ele>1098.800048828125</ele>
        <time>2020-08-10T12:20:27.000Z</time>
      </trkpt>
      <trkpt lat="42.2900688461959362030029296875" lon="1.85983635485172271728515625">
        <ele>1097.800048828125</ele>
        <time>2020-08-10T12:20:28.000Z</time>
      </trkpt>
      <trkpt lat="42.28986893780529499053955078125" lon="1.859777681529521942138671875">
        <ele>1095.5999755859375</ele>
        <time>2020-08-10T12:20:30.000Z</time>
      </trkpt>
      <trkpt lat="42.2897758148610591888427734375" lon="1.85973644256591796875">
        <ele>1093.5999755859375</ele>
        <time>2020-08-10T12:20:31.000Z</time>
      </trkpt>
      <trkpt lat="42.28969124145805835723876953125" lon="1.85968472622334957122802734375">
        <ele>1092.4000244140625</ele>
        <time>2020-08-10T12:20:32.000Z</time>
      </trkpt>
      <trkpt lat="42.2896172292530536651611328125" lon="1.859620101749897003173828125">
        <ele>1091.4000244140625</ele>
        <time>2020-08-10T12:20:33.000Z</time>
      </trkpt>
      <trkpt lat="42.28949376381933689117431640625" lon="1.85943796299397945404052734375">
        <ele>1089.5999755859375</ele>
        <time>2020-08-10T12:20:35.000Z</time>
      </trkpt>
      <trkpt lat="42.2894413769245147705078125" lon="1.85932405292987823486328125">
        <ele>1088.4000244140625</ele>
        <time>2020-08-10T12:20:36.000Z</time>
      </trkpt>
      <trkpt lat="42.28934842161834239959716796875" lon="1.859071254730224609375">
        <ele>1087.199951171875</ele>
        <time>2020-08-10T12:20:38.000Z</time>
      </trkpt>
      <trkpt lat="42.2893047519028186798095703125" lon="1.85893454588949680328369140625">
        <ele>1086</ele>
        <time>2020-08-10T12:20:39.000Z</time>
      </trkpt>
      <trkpt lat="42.2892195917665958404541015625" lon="1.85864268802106380462646484375">
        <ele>1083.800048828125</ele>
        <time>2020-08-10T12:20:41.000Z</time>
      </trkpt>
      <trkpt lat="42.28917525149881839752197265625" lon="1.85848996974527835845947265625">
        <ele>1082.800048828125</ele>
        <time>2020-08-10T12:20:42.000Z</time>
      </trkpt>
      <trkpt lat="42.28912948630750179290771484375" lon="1.85833356343209743499755859375">
        <ele>1081.5999755859375</ele>
        <time>2020-08-10T12:20:43.000Z</time>
      </trkpt>
      <trkpt lat="42.2890814580023288726806640625" lon="1.85817413963377475738525390625">
        <ele>1080.800048828125</ele>
        <time>2020-08-10T12:20:44.000Z</time>
      </trkpt>
      <trkpt lat="42.28902898728847503662109375" lon="1.8580136261880397796630859375">
        <ele>1079.4000244140625</ele>
        <time>2020-08-10T12:20:45.000Z</time>
      </trkpt>
      <trkpt lat="42.28897266089916229248046875" lon="1.85785227455198764801025390625">
        <ele>1078.199951171875</ele>
        <time>2020-08-10T12:20:46.000Z</time>
      </trkpt>
      <trkpt lat="42.2889144904911518096923828125" lon="1.85769067145884037017822265625">
        <ele>1076.5999755859375</ele>
        <time>2020-08-10T12:20:47.000Z</time>
      </trkpt>
      <trkpt lat="42.28885824792087078094482421875" lon="1.85752789489924907684326171875">
        <ele>1075.5999755859375</ele>
        <time>2020-08-10T12:20:48.000Z</time>
      </trkpt>
      <trkpt lat="42.2887627780437469482421875" lon="1.8572123162448406219482421875">
        <ele>1073.800048828125</ele>
        <time>2020-08-10T12:20:50.000Z</time>
      </trkpt>
      <trkpt lat="42.2887217067182064056396484375" lon="1.85706504620611667633056640625">
        <ele>1072.800048828125</ele>
        <time>2020-08-10T12:20:51.000Z</time>
      </trkpt>
      <trkpt lat="42.28868155740201473236083984375" lon="1.8569253198802471160888671875">
        <ele>1071.5999755859375</ele>
        <time>2020-08-10T12:20:52.000Z</time>
      </trkpt>
      <trkpt lat="42.2886018455028533935546875" lon="1.8566720187664031982421875">
        <ele>1070.4000244140625</ele>
        <time>2020-08-10T12:20:54.000Z</time>
      </trkpt>
      <trkpt lat="42.2885135002434253692626953125" lon="1.856441013514995574951171875">
        <ele>1069</ele>
        <time>2020-08-10T12:20:56.000Z</time>
      </trkpt>
      <trkpt lat="42.2883931361138820648193359375" lon="1.8562390096485614776611328125">
        <ele>1067.800048828125</ele>
        <time>2020-08-10T12:20:58.000Z</time>
      </trkpt>
      <trkpt lat="42.28824586607515811920166015625" lon="1.8560542725026607513427734375">
        <ele>1066.5999755859375</ele>
        <time>2020-08-10T12:21:00.000Z</time>
      </trkpt>
      <trkpt lat="42.2880980931222438812255859375" lon="1.85587397776544094085693359375">
        <ele>1065.199951171875</ele>
        <time>2020-08-10T12:21:02.000Z</time>
      </trkpt>
      <trkpt lat="42.28803112171590328216552734375" lon="1.8557793460786342620849609375">
        <ele>1063.800048828125</ele>
        <time>2020-08-10T12:21:03.000Z</time>
      </trkpt>
      <trkpt lat="42.2879214026033878326416015625" lon="1.85555881820619106292724609375">
        <ele>1062.4000244140625</ele>
        <time>2020-08-10T12:21:05.000Z</time>
      </trkpt>
      <trkpt lat="42.28787873871624469757080078125" lon="1.8554316647350788116455078125">
        <ele>1061.5999755859375</ele>
        <time>2020-08-10T12:21:06.000Z</time>
      </trkpt>
      <trkpt lat="42.2878409363329410552978515625" lon="1.85530065558850765228271484375">
        <ele>1060.4000244140625</ele>
        <time>2020-08-10T12:21:07.000Z</time>
      </trkpt>
      <trkpt lat="42.28776155970990657806396484375" lon="1.85504266060888767242431640625">
        <ele>1058.800048828125</ele>
        <time>2020-08-10T12:21:09.000Z</time>
      </trkpt>
      <trkpt lat="42.2877199016511440277099609375" lon="1.85492196120321750640869140625">
        <ele>1057.5999755859375</ele>
        <time>2020-08-10T12:21:10.000Z</time>
      </trkpt>
      <trkpt lat="42.2876763157546520233154296875" lon="1.8548110686242580413818359375">
        <ele>1056.199951171875</ele>
        <time>2020-08-10T12:21:11.000Z</time>
      </trkpt>
      <trkpt lat="42.28762560524046421051025390625" lon="1.8547161854803562164306640625">
        <ele>1055.199951171875</ele>
        <time>2020-08-10T12:21:12.000Z</time>
      </trkpt>
      <trkpt lat="42.287566848099231719970703125" lon="1.85463781468570232391357421875">
        <ele>1054.5999755859375</ele>
        <time>2020-08-10T12:21:13.000Z</time>
      </trkpt>
      <trkpt lat="42.28743433021008968353271484375" lon="1.85450957156717777252197265625">
        <ele>1053.800048828125</ele>
        <time>2020-08-10T12:21:15.000Z</time>
      </trkpt>
      <trkpt lat="42.28736895136535167694091796875" lon="1.85444737784564495086669921875">
        <ele>1053.199951171875</ele>
        <time>2020-08-10T12:21:16.000Z</time>
      </trkpt>
      <trkpt lat="42.28730876930058002471923828125" lon="1.85437403619289398193359375">
        <ele>1052.800048828125</ele>
        <time>2020-08-10T12:21:17.000Z</time>
      </trkpt>
      <trkpt lat="42.28719846345484256744384765625" lon="1.8541882932186126708984375">
        <ele>1051.199951171875</ele>
        <time>2020-08-10T12:21:19.000Z</time>
      </trkpt>
      <trkpt lat="42.28709955699741840362548828125" lon="1.85396499931812286376953125">
        <ele>1050</ele>
        <time>2020-08-10T12:21:21.000Z</time>
      </trkpt>
      <trkpt lat="42.28701573796570301055908203125" lon="1.85371412895619869232177734375">
        <ele>1048.800048828125</ele>
        <time>2020-08-10T12:21:23.000Z</time>
      </trkpt>
      <trkpt lat="42.2869232855737209320068359375" lon="1.85345630161464214324951171875">
        <ele>1047</ele>
        <time>2020-08-10T12:21:25.000Z</time>
      </trkpt>
      <trkpt lat="42.2868119738996028900146484375" lon="1.85321020893752574920654296875">
        <ele>1044.5999755859375</ele>
        <time>2020-08-10T12:21:27.000Z</time>
      </trkpt>
      <trkpt lat="42.286754809319972991943359375" lon="1.8530957959592342376708984375">
        <ele>1044</ele>
        <time>2020-08-10T12:21:28.000Z</time>
      </trkpt>
      <trkpt lat="42.28669806383550167083740234375" lon="1.85298708267509937286376953125">
        <ele>1043.4000244140625</ele>
        <time>2020-08-10T12:21:29.000Z</time>
      </trkpt>
      <trkpt lat="42.2865833155810832977294921875" lon="1.85277007520198822021484375">
        <ele>1041.800048828125</ele>
        <time>2020-08-10T12:21:31.000Z</time>
      </trkpt>
      <trkpt lat="42.28646337054669857025146484375" lon="1.8525593541562557220458984375">
        <ele>1040.199951171875</ele>
        <time>2020-08-10T12:21:33.000Z</time>
      </trkpt>
      <trkpt lat="42.2863962315022945404052734375" lon="1.8524708412587642669677734375">
        <ele>1039.199951171875</ele>
        <time>2020-08-10T12:21:34.000Z</time>
      </trkpt>
      <trkpt lat="42.28632356040179729461669921875" lon="1.85239884071052074432373046875">
        <ele>1038.4000244140625</ele>
        <time>2020-08-10T12:21:35.000Z</time>
      </trkpt>
      <trkpt lat="42.28616430424153804779052734375" lon="1.852293647825717926025390625">
        <ele>1037.5999755859375</ele>
        <time>2020-08-10T12:21:37.000Z</time>
      </trkpt>
      <trkpt lat="42.2860827483236789703369140625" lon="1.85225500725209712982177734375">
        <ele>1037.199951171875</ele>
        <time>2020-08-10T12:21:38.000Z</time>
      </trkpt>
      <trkpt lat="42.28600211441516876220703125" lon="1.852217875421047210693359375">
        <ele>1036.800048828125</ele>
        <time>2020-08-10T12:21:39.000Z</time>
      </trkpt>
      <trkpt lat="42.28583992458879947662353515625" lon="1.8521248362958431243896484375">
        <ele>1036</ele>
        <time>2020-08-10T12:21:41.000Z</time>
      </trkpt>
      <trkpt lat="42.2856700234115123748779296875" lon="1.85202366672456264495849609375">
        <ele>1034.800048828125</ele>
        <time>2020-08-10T12:21:43.000Z</time>
      </trkpt>
      <trkpt lat="42.28549073450267314910888671875" lon="1.85192241333425045013427734375">
        <ele>1033.5999755859375</ele>
        <time>2020-08-10T12:21:45.000Z</time>
      </trkpt>
      <trkpt lat="42.28530214168131351470947265625" lon="1.85182861983776092529296875">
        <ele>1032.199951171875</ele>
        <time>2020-08-10T12:21:47.000Z</time>
      </trkpt>
      <trkpt lat="42.2851024009287357330322265625" lon="1.85174756683409214019775390625">
        <ele>1031</ele>
        <time>2020-08-10T12:21:49.000Z</time>
      </trkpt>
      <trkpt lat="42.2848915122449398040771484375" lon="1.851664669811725616455078125">
        <ele>1029.199951171875</ele>
        <time>2020-08-10T12:21:51.000Z</time>
      </trkpt>
      <trkpt lat="42.2846749238669872283935546875" lon="1.8515843711793422698974609375">
        <ele>1027.800048828125</ele>
        <time>2020-08-10T12:21:53.000Z</time>
      </trkpt>
      <trkpt lat="42.28445556946098804473876953125" lon="1.8515109457075595855712890625">
        <ele>1026.4000244140625</ele>
        <time>2020-08-10T12:21:55.000Z</time>
      </trkpt>
      <trkpt lat="42.28423495776951313018798828125" lon="1.8514398671686649322509765625">
        <ele>1024.800048828125</ele>
        <time>2020-08-10T12:21:57.000Z</time>
      </trkpt>
      <trkpt lat="42.2840144298970699310302734375" lon="1.85137071646749973297119140625">
        <ele>1023.4000244140625</ele>
        <time>2020-08-10T12:21:59.000Z</time>
      </trkpt>
      <trkpt lat="42.28379423730075359344482421875" lon="1.8512997217476367950439453125">
        <ele>1022.20001220703125</ele>
        <time>2020-08-10T12:22:01.000Z</time>
      </trkpt>
      <trkpt lat="42.28357915766537189483642578125" lon="1.85124079696834087371826171875">
        <ele>1021</ele>
        <time>2020-08-10T12:22:03.000Z</time>
      </trkpt>
      <trkpt lat="42.28336692787706851959228515625" lon="1.85122109949588775634765625">
        <ele>1019.79998779296875</ele>
        <time>2020-08-10T12:22:05.000Z</time>
      </trkpt>
      <trkpt lat="42.28315117768943309783935546875" lon="1.8512628413736820220947265625">
        <ele>1018.20001220703125</ele>
        <time>2020-08-10T12:22:07.000Z</time>
      </trkpt>
      <trkpt lat="42.2830431349575519561767578125" lon="1.8513010628521442413330078125">
        <ele>1017.20001220703125</ele>
        <time>2020-08-10T12:22:08.000Z</time>
      </trkpt>
      <trkpt lat="42.2829345054924488067626953125" lon="1.85133953578770160675048828125">
        <ele>1016.4000244140625</ele>
        <time>2020-08-10T12:22:09.000Z</time>
      </trkpt>
      <trkpt lat="42.28271716274321079254150390625" lon="1.8514066748321056365966796875">
        <ele>1015</ele>
        <time>2020-08-10T12:22:11.000Z</time>
      </trkpt>
      <trkpt lat="42.2825083695352077484130859375" lon="1.85145185329020023345947265625">
        <ele>1013.79998779296875</ele>
        <time>2020-08-10T12:22:13.000Z</time>
      </trkpt>
      <trkpt lat="42.2824067808687686920166015625" lon="1.8514599837362766265869140625">
        <ele>1013.20001220703125</ele>
        <time>2020-08-10T12:22:14.000Z</time>
      </trkpt>
      <trkpt lat="42.28230862878262996673583984375" lon="1.8514448963105678558349609375">
        <ele>1012.4000244140625</ele>
        <time>2020-08-10T12:22:15.000Z</time>
      </trkpt>
      <trkpt lat="42.2821296751499176025390625" lon="1.8513701297342777252197265625">
        <ele>1010.79998779296875</ele>
        <time>2020-08-10T12:22:17.000Z</time>
      </trkpt>
      <trkpt lat="42.28199028410017490386962890625" lon="1.8512400425970554351806640625">
        <ele>1009.79998779296875</ele>
        <time>2020-08-10T12:22:19.000Z</time>
      </trkpt>
      <trkpt lat="42.281943596899509429931640625" lon="1.85114591382443904876708984375">
        <ele>1009.20001220703125</ele>
        <time>2020-08-10T12:22:20.000Z</time>
      </trkpt>
      <trkpt lat="42.28191115893423557281494140625" lon="1.85103929601609706878662109375">
        <ele>1008.4000244140625</ele>
        <time>2020-08-10T12:22:21.000Z</time>
      </trkpt>
      <trkpt lat="42.2817905433475971221923828125" lon="1.85073503293097019195556640625">
        <ele>1007.20001220703125</ele>
        <time>2020-08-10T12:22:24.000Z</time>
      </trkpt>
      <trkpt lat="42.28158426471054553985595703125" lon="1.85053043067455291748046875">
        <ele>1006</ele>
        <time>2020-08-10T12:22:27.000Z</time>
      </trkpt>
      <trkpt lat="42.2814264334738254547119140625" lon="1.850428842008113861083984375">
        <ele>1005</ele>
        <time>2020-08-10T12:22:29.000Z</time>
      </trkpt>
      <trkpt lat="42.28134655393660068511962890625" lon="1.85037829913198947906494140625">
        <ele>1004.5999755859375</ele>
        <time>2020-08-10T12:22:30.000Z</time>
      </trkpt>
      <trkpt lat="42.2812691889703273773193359375" lon="1.85031979344785213470458984375">
        <ele>1004.20001220703125</ele>
        <time>2020-08-10T12:22:31.000Z</time>
      </trkpt>
      <trkpt lat="42.281197272241115570068359375" lon="1.85025324113667011260986328125">
        <ele>1003.79998779296875</ele>
        <time>2020-08-10T12:22:32.000Z</time>
      </trkpt>
      <trkpt lat="42.28113482706248760223388671875" lon="1.85017813928425312042236328125">
        <ele>1003.79998779296875</ele>
        <time>2020-08-10T12:22:33.000Z</time>
      </trkpt>
      <trkpt lat="42.2810552828013896942138671875" lon="1.85000337660312652587890625">
        <ele>1003.20001220703125</ele>
        <time>2020-08-10T12:22:35.000Z</time>
      </trkpt>
      <trkpt lat="42.28107313625514507293701171875" lon="1.8497242592275142669677734375">
        <ele>1003.20001220703125</ele>
        <time>2020-08-10T12:22:38.000Z</time>
      </trkpt>
      <trkpt lat="42.28112409822642803192138671875" lon="1.84935118071734905242919921875">
        <ele>1003.79998779296875</ele>
        <time>2020-08-10T12:22:43.000Z</time>
      </trkpt>
      <trkpt lat="42.28112460114061832427978515625" lon="1.8492877297103404998779296875">
        <ele>1003.79998779296875</ele>
        <time>2020-08-10T12:22:44.000Z</time>
      </trkpt>
      <trkpt lat="42.28108403272926807403564453125" lon="1.84912067838013172149658203125">
        <ele>1003.79998779296875</ele>
        <time>2020-08-10T12:22:47.000Z</time>
      </trkpt>
      <trkpt lat="42.2809422947466373443603515625" lon="1.84901003725826740264892578125">
        <ele>1003.79998779296875</ele>
        <time>2020-08-10T12:22:51.000Z</time>
      </trkpt>
      <trkpt lat="42.28090030141174793243408203125" lon="1.849001906812191009521484375">
        <ele>1003.79998779296875</ele>
        <time>2020-08-10T12:22:52.000Z</time>
      </trkpt>
      <trkpt lat="42.2808571346104145050048828125" lon="1.84899863786995410919189453125">
        <ele>1003.79998779296875</ele>
        <time>2020-08-10T12:22:53.000Z</time>
      </trkpt>
      <trkpt lat="42.28073291480541229248046875" lon="1.8490372784435749053955078125">
        <ele>1003.5999755859375</ele>
        <time>2020-08-10T12:22:56.000Z</time>
      </trkpt>
      <trkpt lat="42.28065554983913898468017578125" lon="1.84909704141318798065185546875">
        <ele>1003.5999755859375</ele>
        <time>2020-08-10T12:22:58.000Z</time>
      </trkpt>
      <trkpt lat="42.28061665780842304229736328125" lon="1.849135346710681915283203125">
        <ele>1003.4000244140625</ele>
        <time>2020-08-10T12:22:59.000Z</time>
      </trkpt>
      <trkpt lat="42.280579693615436553955078125" lon="1.84918052516877651214599609375">
        <ele>1003.4000244140625</ele>
        <time>2020-08-10T12:23:00.000Z</time>
      </trkpt>
      <trkpt lat="42.28054038248956203460693359375" lon="1.849227212369441986083984375">
        <ele>1003.20001220703125</ele>
        <time>2020-08-10T12:23:01.000Z</time>
      </trkpt>
      <trkpt lat="42.2804957069456577301025390625" lon="1.84926819987595081329345703125">
        <ele>1003</ele>
        <time>2020-08-10T12:23:02.000Z</time>
      </trkpt>
      <trkpt lat="42.28034491650760173797607421875" lon="1.8493688665330410003662109375">
        <ele>1002.20001220703125</ele>
        <time>2020-08-10T12:23:05.000Z</time>
      </trkpt>
      <trkpt lat="42.280224300920963287353515625" lon="1.8494466505944728851318359375">
        <ele>1002</ele>
        <time>2020-08-10T12:23:07.000Z</time>
      </trkpt>
      <trkpt lat="42.28008407168090343475341796875" lon="1.8495051562786102294921875">
        <ele>1001.20001220703125</ele>
        <time>2020-08-10T12:23:09.000Z</time>
      </trkpt>
      <trkpt lat="42.280008383095264434814453125" lon="1.84952250681817531585693359375">
        <ele>1000.79998779296875</ele>
        <time>2020-08-10T12:23:10.000Z</time>
      </trkpt>
      <trkpt lat="42.27993093430995941162109375" lon="1.84952602721750736236572265625">
        <ele>1000.20001220703125</ele>
        <time>2020-08-10T12:23:11.000Z</time>
      </trkpt>
      <trkpt lat="42.279782406985759735107421875" lon="1.84949509799480438232421875">
        <ele>999.4000244140625</ele>
        <time>2020-08-10T12:23:13.000Z</time>
      </trkpt>
      <trkpt lat="42.2797071374952793121337890625" lon="1.8494664318859577178955078125">
        <ele>998.79998779296875</ele>
        <time>2020-08-10T12:23:14.000Z</time>
      </trkpt>
      <trkpt lat="42.27962893433868885040283203125" lon="1.8494422920048236846923828125">
        <ele>998.20001220703125</ele>
        <time>2020-08-10T12:23:15.000Z</time>
      </trkpt>
      <trkpt lat="42.2795458696782588958740234375" lon="1.84943139553070068359375">
        <ele>997.5999755859375</ele>
        <time>2020-08-10T12:23:16.000Z</time>
      </trkpt>
      <trkpt lat="42.2794620506465435028076171875" lon="1.84944145381450653076171875">
        <ele>996.79998779296875</ele>
        <time>2020-08-10T12:23:17.000Z</time>
      </trkpt>
      <trkpt lat="42.2793819196522235870361328125" lon="1.849469952285289764404296875">
        <ele>995.79998779296875</ele>
        <time>2020-08-10T12:23:18.000Z</time>
      </trkpt>
      <trkpt lat="42.2793051414191722869873046875" lon="1.84950373135507106781005859375">
        <ele>994.79998779296875</ele>
        <time>2020-08-10T12:23:19.000Z</time>
      </trkpt>
      <trkpt lat="42.2792283631861209869384765625" lon="1.84953038580715656280517578125">
        <ele>994.4000244140625</ele>
        <time>2020-08-10T12:23:20.000Z</time>
      </trkpt>
      <trkpt lat="42.27915032766759395599365234375" lon="1.84954262338578701019287109375">
        <ele>994.20001220703125</ele>
        <time>2020-08-10T12:23:21.000Z</time>
      </trkpt>
      <trkpt lat="42.2790691070258617401123046875" lon="1.849533654749393463134765625">
        <ele>993.5999755859375</ele>
        <time>2020-08-10T12:23:22.000Z</time>
      </trkpt>
      <trkpt lat="42.27889752946794033050537109375" lon="1.84945285320281982421875">
        <ele>992</ele>
        <time>2020-08-10T12:23:24.000Z</time>
      </trkpt>
      <trkpt lat="42.27880784310400485992431640625" lon="1.84939359314739704132080078125">
        <ele>991.20001220703125</ele>
        <time>2020-08-10T12:23:25.000Z</time>
      </trkpt>
      <trkpt lat="42.27871455252170562744140625" lon="1.84932955540716648101806640625">
        <ele>990.20001220703125</ele>
        <time>2020-08-10T12:23:26.000Z</time>
      </trkpt>
      <trkpt lat="42.27851883508265018463134765625" lon="1.84919376857578754425048828125">
        <ele>988</ele>
        <time>2020-08-10T12:23:28.000Z</time>
      </trkpt>
      <trkpt lat="42.2784230299293994903564453125" lon="1.84911883436143398284912109375">
        <ele>986.79998779296875</ele>
        <time>2020-08-10T12:23:29.000Z</time>
      </trkpt>
      <trkpt lat="42.27833560667932033538818359375" lon="1.849042810499668121337890625">
        <ele>985.79998779296875</ele>
        <time>2020-08-10T12:23:30.000Z</time>
      </trkpt>
      <trkpt lat="42.27819110266864299774169921875" lon="1.84890928678214550018310546875">
        <ele>984.5999755859375</ele>
        <time>2020-08-10T12:23:32.000Z</time>
      </trkpt>
      <trkpt lat="42.2781232930719852447509765625" lon="1.84885916300117969512939453125">
        <ele>983.79998779296875</ele>
        <time>2020-08-10T12:23:33.000Z</time>
      </trkpt>
      <trkpt lat="42.27804911322891712188720703125" lon="1.84882194735109806060791015625">
        <ele>983</ele>
        <time>2020-08-10T12:23:34.000Z</time>
      </trkpt>
      <trkpt lat="42.277968563139438629150390625" lon="1.8487968854606151580810546875">
        <ele>982.4000244140625</ele>
        <time>2020-08-10T12:23:35.000Z</time>
      </trkpt>
      <trkpt lat="42.27788281626999378204345703125" lon="1.84878188185393810272216796875">
        <ele>981.4000244140625</ele>
        <time>2020-08-10T12:23:36.000Z</time>
      </trkpt>
      <trkpt lat="42.27770344354212284088134765625" lon="1.84877224266529083251953125">
        <ele>980</ele>
        <time>2020-08-10T12:23:38.000Z</time>
      </trkpt>
      <trkpt lat="42.2776166908442974090576171875" lon="1.84877702035009860992431640625">
        <ele>979.4000244140625</ele>
        <time>2020-08-10T12:23:39.000Z</time>
      </trkpt>
      <trkpt lat="42.2775338776409626007080078125" lon="1.84879696927964687347412109375">
        <ele>978.79998779296875</ele>
        <time>2020-08-10T12:23:40.000Z</time>
      </trkpt>
      <trkpt lat="42.2773870266973972320556640625" lon="1.8488894216716289520263671875">
        <ele>977.4000244140625</ele>
        <time>2020-08-10T12:23:42.000Z</time>
      </trkpt>
      <trkpt lat="42.2772716917097568511962890625" lon="1.849033422768115997314453125">
        <ele>976</ele>
        <time>2020-08-10T12:23:44.000Z</time>
      </trkpt>
      <trkpt lat="42.27717764675617218017578125" lon="1.8491935171186923980712890625">
        <ele>975</ele>
        <time>2020-08-10T12:23:46.000Z</time>
      </trkpt>
      <trkpt lat="42.27709391154348850250244140625" lon="1.84936475940048694610595703125">
        <ele>973.5999755859375</ele>
        <time>2020-08-10T12:23:48.000Z</time>
      </trkpt>
      <trkpt lat="42.27702216245234012603759765625" lon="1.8495445512235164642333984375">
        <ele>972.4000244140625</ele>
        <time>2020-08-10T12:23:50.000Z</time>
      </trkpt>
      <trkpt lat="42.27699517272412776947021484375" lon="1.84964287094771862030029296875">
        <ele>971.79998779296875</ele>
        <time>2020-08-10T12:23:51.000Z</time>
      </trkpt>
      <trkpt lat="42.2769729606807231903076171875" lon="1.849750578403472900390625">
        <ele>971.20001220703125</ele>
        <time>2020-08-10T12:23:52.000Z</time>
      </trkpt>
      <trkpt lat="42.27693214081227779388427734375" lon="1.84998996555805206298828125">
        <ele>970</ele>
        <time>2020-08-10T12:23:54.000Z</time>
      </trkpt>
      <trkpt lat="42.27690984494984149932861328125" lon="1.85011913068592548370361328125">
        <ele>969.20001220703125</ele>
        <time>2020-08-10T12:23:55.000Z</time>
      </trkpt>
      <trkpt lat="42.2768851183354854583740234375" lon="1.8502486310899257659912109375">
        <ele>968.4000244140625</ele>
        <time>2020-08-10T12:23:56.000Z</time>
      </trkpt>
      <trkpt lat="42.27681730873882770538330078125" lon="1.8504910357296466827392578125">
        <ele>966.4000244140625</ele>
        <time>2020-08-10T12:23:58.000Z</time>
      </trkpt>
      <trkpt lat="42.27676517330110073089599609375" lon="1.85059287585318088531494140625">
        <ele>965</ele>
        <time>2020-08-10T12:23:59.000Z</time>
      </trkpt>
      <trkpt lat="42.2766329906880855560302734375" lon="1.8507186882197856903076171875">
        <ele>963.5999755859375</ele>
        <time>2020-08-10T12:24:01.000Z</time>
      </trkpt>
      <trkpt lat="42.27655545808374881744384765625" lon="1.8507357873022556304931640625">
        <ele>963</ele>
        <time>2020-08-10T12:24:02.000Z</time>
      </trkpt>
      <trkpt lat="42.2764733992516994476318359375" lon="1.8507270701229572296142578125">
        <ele>962.5999755859375</ele>
        <time>2020-08-10T12:24:03.000Z</time>
      </trkpt>
      <trkpt lat="42.27638748474419116973876953125" lon="1.8507041037082672119140625">
        <ele>962</ele>
        <time>2020-08-10T12:24:04.000Z</time>
      </trkpt>
      <trkpt lat="42.27629796601831912994384765625" lon="1.85067904181778430938720703125">
        <ele>961.20001220703125</ele>
        <time>2020-08-10T12:24:05.000Z</time>
      </trkpt>
      <trkpt lat="42.2761029191315174102783203125" lon="1.8506450951099395751953125">
        <ele>959.79998779296875</ele>
        <time>2020-08-10T12:24:07.000Z</time>
      </trkpt>
      <trkpt lat="42.2758906893432140350341796875" lon="1.85063377954065799713134765625">
        <ele>958.20001220703125</ele>
        <time>2020-08-10T12:24:09.000Z</time>
      </trkpt>
      <trkpt lat="42.27566865272819995880126953125" lon="1.85062271542847156524658203125">
        <ele>956.79998779296875</ele>
        <time>2020-08-10T12:24:11.000Z</time>
      </trkpt>
      <trkpt lat="42.2754316963255405426025390625" lon="1.8506137467920780181884765625">
        <ele>955</ele>
        <time>2020-08-10T12:24:13.000Z</time>
      </trkpt>
      <trkpt lat="42.27530940435826778411865234375" lon="1.8506073765456676483154296875">
        <ele>953.79998779296875</ele>
        <time>2020-08-10T12:24:14.000Z</time>
      </trkpt>
      <trkpt lat="42.27518920786678791046142578125" lon="1.85059270821511745452880859375">
        <ele>952.5999755859375</ele>
        <time>2020-08-10T12:24:15.000Z</time>
      </trkpt>
      <trkpt lat="42.27496339939534664154052734375" lon="1.850548200309276580810546875">
        <ele>951</ele>
        <time>2020-08-10T12:24:17.000Z</time>
      </trkpt>
      <trkpt lat="42.274854183197021484375" lon="1.85053403489291667938232421875">
        <ele>949.79998779296875</ele>
        <time>2020-08-10T12:24:18.000Z</time>
      </trkpt>
      <trkpt lat="42.27474354207515716552734375" lon="1.85053311288356781005859375">
        <ele>948.79998779296875</ele>
        <time>2020-08-10T12:24:19.000Z</time>
      </trkpt>
      <trkpt lat="42.274520583450794219970703125" lon="1.8505644612014293670654296875">
        <ele>946.79998779296875</ele>
        <time>2020-08-10T12:24:21.000Z</time>
      </trkpt>
      <trkpt lat="42.2743091918528079986572265625" lon="1.85063662938773632049560546875">
        <ele>944.20001220703125</ele>
        <time>2020-08-10T12:24:23.000Z</time>
      </trkpt>
      <trkpt lat="42.27420441806316375732421875" lon="1.85069178231060504913330078125">
        <ele>943.20001220703125</ele>
        <time>2020-08-10T12:24:24.000Z</time>
      </trkpt>
      <trkpt lat="42.274100482463836669921875" lon="1.85076185502111911773681640625">
        <ele>942</ele>
        <time>2020-08-10T12:24:25.000Z</time>
      </trkpt>
      <trkpt lat="42.27400182746350765228271484375" lon="1.850845254957675933837890625">
        <ele>940.5999755859375</ele>
        <time>2020-08-10T12:24:26.000Z</time>
      </trkpt>
      <trkpt lat="42.27390878833830356597900390625" lon="1.85093938373029232025146484375">
        <ele>939.4000244140625</ele>
        <time>2020-08-10T12:24:27.000Z</time>
      </trkpt>
      <trkpt lat="42.2738180123269557952880859375" lon="1.85103845782577991485595703125">
        <ele>938.5999755859375</ele>
        <time>2020-08-10T12:24:28.000Z</time>
      </trkpt>
      <trkpt lat="42.2737274877727031707763671875" lon="1.85113300569355487823486328125">
        <ele>938</ele>
        <time>2020-08-10T12:24:29.000Z</time>
      </trkpt>
      <trkpt lat="42.27363721467554569244384765625" lon="1.85121581889688968658447265625">
        <ele>936.79998779296875</ele>
        <time>2020-08-10T12:24:30.000Z</time>
      </trkpt>
      <trkpt lat="42.27354568429291248321533203125" lon="1.85128354467451572418212890625">
        <ele>935.79998779296875</ele>
        <time>2020-08-10T12:24:31.000Z</time>
      </trkpt>
      <trkpt lat="42.2733513079583644866943359375" lon="1.85137390159070491790771484375">
        <ele>934.79998779296875</ele>
        <time>2020-08-10T12:24:33.000Z</time>
      </trkpt>
      <trkpt lat="42.2731335461139678955078125" lon="1.851395778357982635498046875">
        <ele>932.5999755859375</ele>
        <time>2020-08-10T12:24:35.000Z</time>
      </trkpt>
      <trkpt lat="42.2730167023837566375732421875" lon="1.851386725902557373046875">
        <ele>931.79998779296875</ele>
        <time>2020-08-10T12:24:36.000Z</time>
      </trkpt>
      <trkpt lat="42.2728960029780864715576171875" lon="1.85137054882943630218505859375">
        <ele>930.5999755859375</ele>
        <time>2020-08-10T12:24:37.000Z</time>
      </trkpt>
      <trkpt lat="42.27277153171598911285400390625" lon="1.851346492767333984375">
        <ele>929.5999755859375</ele>
        <time>2020-08-10T12:24:38.000Z</time>
      </trkpt>
      <trkpt lat="42.27264446206390857696533203125" lon="1.8513124622404575347900390625">
        <ele>928</ele>
        <time>2020-08-10T12:24:39.000Z</time>
      </trkpt>
      <trkpt lat="42.27251504547894001007080078125" lon="1.85126443393528461456298828125">
        <ele>926.4000244140625</ele>
        <time>2020-08-10T12:24:40.000Z</time>
      </trkpt>
      <trkpt lat="42.2723847068846225738525390625" lon="1.851209700107574462890625">
        <ele>925.20001220703125</ele>
        <time>2020-08-10T12:24:41.000Z</time>
      </trkpt>
      <trkpt lat="42.2722539491951465606689453125" lon="1.851149015128612518310546875">
        <ele>923.79998779296875</ele>
        <time>2020-08-10T12:24:42.000Z</time>
      </trkpt>
      <trkpt lat="42.27212243713438510894775390625" lon="1.851085312664508819580078125">
        <ele>922.20001220703125</ele>
        <time>2020-08-10T12:24:43.000Z</time>
      </trkpt>
      <trkpt lat="42.27199268527328968048095703125" lon="1.85101767070591449737548828125">
        <ele>921</ele>
        <time>2020-08-10T12:24:44.000Z</time>
      </trkpt>
      <trkpt lat="42.271865867078304290771484375" lon="1.8509455025196075439453125">
        <ele>920</ele>
        <time>2020-08-10T12:24:45.000Z</time>
      </trkpt>
      <trkpt lat="42.271738462150096893310546875" lon="1.85087501071393489837646484375">
        <ele>919</ele>
        <time>2020-08-10T12:24:46.000Z</time>
      </trkpt>
      <trkpt lat="42.2716100513935089111328125" lon="1.85080477036535739898681640625">
        <ele>917.79998779296875</ele>
        <time>2020-08-10T12:24:47.000Z</time>
      </trkpt>
      <trkpt lat="42.2713664732873439788818359375" lon="1.85066311620175838470458984375">
        <ele>916.20001220703125</ele>
        <time>2020-08-10T12:24:49.000Z</time>
      </trkpt>
      <trkpt lat="42.2712575085461139678955078125" lon="1.85058684088289737701416015625">
        <ele>915.20001220703125</ele>
        <time>2020-08-10T12:24:50.000Z</time>
      </trkpt>
      <trkpt lat="42.27115516550838947296142578125" lon="1.8505061231553554534912109375">
        <ele>914.20001220703125</ele>
        <time>2020-08-10T12:24:51.000Z</time>
      </trkpt>
      <trkpt lat="42.27095081470906734466552734375" lon="1.85035281814634799957275390625">
        <ele>913</ele>
        <time>2020-08-10T12:24:53.000Z</time>
      </trkpt>
      <trkpt lat="42.27073657326400279998779296875" lon="1.85024209320545196533203125">
        <ele>912</ele>
        <time>2020-08-10T12:24:55.000Z</time>
      </trkpt>
      <trkpt lat="42.27052551694214344024658203125" lon="1.8501480482518672943115234375">
        <ele>911</ele>
        <time>2020-08-10T12:24:57.000Z</time>
      </trkpt>
      <trkpt lat="42.2702288813889026641845703125" lon="1.8500196374952793121337890625">
        <ele>909.79998779296875</ele>
        <time>2020-08-10T12:25:00.000Z</time>
      </trkpt>
      <trkpt lat="42.270136177539825439453125" lon="1.8500065617263317108154296875">
        <ele>909.5999755859375</ele>
        <time>2020-08-10T12:25:01.000Z</time>
      </trkpt>
      <trkpt lat="42.2699559666216373443603515625" lon="1.850039921700954437255859375">
        <ele>908.5999755859375</ele>
        <time>2020-08-10T12:25:03.000Z</time>
      </trkpt>
      <trkpt lat="42.26986996829509735107421875" lon="1.8500769697129726409912109375">
        <ele>908.20001220703125</ele>
        <time>2020-08-10T12:25:04.000Z</time>
      </trkpt>
      <trkpt lat="42.269787825644016265869140625" lon="1.8501208908855915069580078125">
        <ele>907.79998779296875</ele>
        <time>2020-08-10T12:25:05.000Z</time>
      </trkpt>
      <trkpt lat="42.26970861665904521942138671875" lon="1.85016707517206668853759765625">
        <ele>907.5999755859375</ele>
        <time>2020-08-10T12:25:06.000Z</time>
      </trkpt>
      <trkpt lat="42.269473336637020111083984375" lon="1.85031459666788578033447265625">
        <ele>906.79998779296875</ele>
        <time>2020-08-10T12:25:09.000Z</time>
      </trkpt>
      <trkpt lat="42.2693918645381927490234375" lon="1.850366480648517608642578125">
        <ele>906.20001220703125</ele>
        <time>2020-08-10T12:25:10.000Z</time>
      </trkpt>
      <trkpt lat="42.26930670440196990966796875" lon="1.85041517950594425201416015625">
        <ele>905.5999755859375</ele>
        <time>2020-08-10T12:25:11.000Z</time>
      </trkpt>
      <trkpt lat="42.2691290080547332763671875" lon="1.850514672696590423583984375">
        <ele>904.5999755859375</ele>
        <time>2020-08-10T12:25:13.000Z</time>
      </trkpt>
      <trkpt lat="42.26894753985106945037841796875" lon="1.8506268225610256195068359375">
        <ele>903.5999755859375</ele>
        <time>2020-08-10T12:25:15.000Z</time>
      </trkpt>
      <trkpt lat="42.26885768584907054901123046875" lon="1.850686334073543548583984375">
        <ele>903</ele>
        <time>2020-08-10T12:25:16.000Z</time>
      </trkpt>
      <trkpt lat="42.2687695920467376708984375" lon="1.8507498688995838165283203125">
        <ele>902.4000244140625</ele>
        <time>2020-08-10T12:25:17.000Z</time>
      </trkpt>
      <trkpt lat="42.26860287599265575408935546875" lon="1.85089613310992717742919921875">
        <ele>901</ele>
        <time>2020-08-10T12:25:19.000Z</time>
      </trkpt>
      <trkpt lat="42.26844571530818939208984375" lon="1.8510643579065799713134765625">
        <ele>900</ele>
        <time>2020-08-10T12:25:21.000Z</time>
      </trkpt>
      <trkpt lat="42.26836885325610637664794921875" lon="1.8511498533189296722412109375">
        <ele>899.5999755859375</ele>
        <time>2020-08-10T12:25:22.000Z</time>
      </trkpt>
      <trkpt lat="42.26813516579568386077880859375" lon="1.8513781763613224029541015625">
        <ele>898.5999755859375</ele>
        <time>2020-08-10T12:25:25.000Z</time>
      </trkpt>
      <trkpt lat="42.268054448068141937255859375" lon="1.85143358074128627777099609375">
        <ele>898.4000244140625</ele>
        <time>2020-08-10T12:25:26.000Z</time>
      </trkpt>
      <trkpt lat="42.2678839601576328277587890625" lon="1.85149141587316989898681640625">
        <ele>897.5999755859375</ele>
        <time>2020-08-10T12:25:28.000Z</time>
      </trkpt>
      <trkpt lat="42.26779771037399768829345703125" lon="1.8514827825129032135009765625">
        <ele>897.4000244140625</ele>
        <time>2020-08-10T12:25:29.000Z</time>
      </trkpt>
      <trkpt lat="42.267572320997714996337890625" lon="1.85134179890155792236328125">
        <ele>897.20001220703125</ele>
        <time>2020-08-10T12:25:32.000Z</time>
      </trkpt>
      <trkpt lat="42.26745195686817169189453125" lon="1.8511897511780261993408203125">
        <ele>896.79998779296875</ele>
        <time>2020-08-10T12:25:34.000Z</time>
      </trkpt>
      <trkpt lat="42.2673304192721843719482421875" lon="1.85104767791926860809326171875">
        <ele>896.4000244140625</ele>
        <time>2020-08-10T12:25:36.000Z</time>
      </trkpt>
      <trkpt lat="42.26719915866851806640625" lon="1.8509346060454845428466796875">
        <ele>896.20001220703125</ele>
        <time>2020-08-10T12:25:38.000Z</time>
      </trkpt>
      <trkpt lat="42.26706177927553653717041015625" lon="1.85085606761276721954345703125">
        <ele>896</ele>
        <time>2020-08-10T12:25:40.000Z</time>
      </trkpt>
      <trkpt lat="42.26692968048155307769775390625" lon="1.85079219751060009002685546875">
        <ele>896</ele>
        <time>2020-08-10T12:25:42.000Z</time>
      </trkpt>
      <trkpt lat="42.266687862575054168701171875" lon="1.8507089652121067047119140625">
        <ele>896.20001220703125</ele>
        <time>2020-08-10T12:25:46.000Z</time>
      </trkpt>
      <trkpt lat="42.2663916461169719696044921875" lon="1.85061668045818805694580078125">
        <ele>896.4000244140625</ele>
        <time>2020-08-10T12:25:52.000Z</time>
      </trkpt>
      <trkpt lat="42.26617413572967052459716796875" lon="1.8505416624248027801513671875">
        <ele>897.4000244140625</ele>
        <time>2020-08-10T12:25:57.000Z</time>
      </trkpt>
      <trkpt lat="42.2660060785710811614990234375" lon="1.85047485865652561187744140625">
        <ele>897.20001220703125</ele>
        <time>2020-08-10T12:26:01.000Z</time>
      </trkpt>
      <trkpt lat="42.26566133089363574981689453125" lon="1.8503284268081188201904296875">
        <ele>897.5999755859375</ele>
        <time>2020-08-10T12:26:08.000Z</time>
      </trkpt>
      <trkpt lat="42.26550274528563022613525390625" lon="1.85025139711797237396240234375">
        <ele>897.4000244140625</ele>
        <time>2020-08-10T12:26:11.000Z</time>
      </trkpt>
      <trkpt lat="42.26539134979248046875" lon="1.85025139711797237396240234375">
        <ele>897.4000244140625</ele>
        <time>2020-08-10T12:26:13.000Z</time>
      </trkpt>
      <trkpt lat="42.26522044278681278228759765625" lon="1.8503428436815738677978515625">
        <ele>896.79998779296875</ele>
        <time>2020-08-10T12:26:16.000Z</time>
      </trkpt>
      <trkpt lat="42.2651620209217071533203125" lon="1.85038416646420955657958984375">
        <ele>896.4000244140625</ele>
        <time>2020-08-10T12:26:17.000Z</time>
      </trkpt>
      <trkpt lat="42.2649851627647876739501953125" lon="1.85052498243749141693115234375">
        <ele>895.79998779296875</ele>
        <time>2020-08-10T12:26:20.000Z</time>
      </trkpt>
      <trkpt lat="42.2648161835968494415283203125" lon="1.85068893246352672576904296875">
        <ele>894.79998779296875</ele>
        <time>2020-08-10T12:26:23.000Z</time>
      </trkpt>
      <trkpt lat="42.2647618688642978668212890625" lon="1.85074727050960063934326171875">
        <ele>894.5999755859375</ele>
        <time>2020-08-10T12:26:24.000Z</time>
      </trkpt>
      <trkpt lat="42.264371104538440704345703125" lon="1.85125588439404964447021484375">
        <ele>894.5999755859375</ele>
        <time>2020-08-10T12:26:32.000Z</time>
      </trkpt>
      <trkpt lat="42.26419667713344097137451171875" lon="1.85132897458970546722412109375">
        <ele>894.5999755859375</ele>
        <time>2020-08-10T12:26:35.000Z</time>
      </trkpt>
      <trkpt lat="42.26402350701391696929931640625" lon="1.85125538147985935211181640625">
        <ele>894.5999755859375</ele>
        <time>2020-08-10T12:26:38.000Z</time>
      </trkpt>
      <trkpt lat="42.2639642469584941864013671875" lon="1.851225458085536956787109375">
        <ele>894.5999755859375</ele>
        <time>2020-08-10T12:26:39.000Z</time>
      </trkpt>
      <trkpt lat="42.26359267719089984893798828125" lon="1.85112655162811279296875">
        <ele>894.4000244140625</ele>
        <time>2020-08-10T12:26:45.000Z</time>
      </trkpt>
      <trkpt lat="42.26353148929774761199951171875" lon="1.85111741535365581512451171875">
        <ele>894.4000244140625</ele>
        <time>2020-08-10T12:26:46.000Z</time>
      </trkpt>
      <trkpt lat="42.2632933594286441802978515625" lon="1.8511117994785308837890625">
        <ele>894.4000244140625</ele>
        <time>2020-08-10T12:26:50.000Z</time>
      </trkpt>
      <trkpt lat="42.26318188011646270751953125" lon="1.8511448241770267486572265625">
        <ele>894.4000244140625</ele>
        <time>2020-08-10T12:26:52.000Z</time>
      </trkpt>
      <trkpt lat="42.2628487832844257354736328125" lon="1.85133601538836956024169921875">
        <ele>895</ele>
        <time>2020-08-10T12:26:59.000Z</time>
      </trkpt>
      <trkpt lat="42.2626824863255023956298828125" lon="1.85145000927150249481201171875">
        <ele>896</ele>
        <time>2020-08-10T12:27:03.000Z</time>
      </trkpt>
      <trkpt lat="42.2625267505645751953125" lon="1.8515484966337680816650390625">
        <ele>896.79998779296875</ele>
        <time>2020-08-10T12:27:07.000Z</time>
      </trkpt>
      <trkpt lat="42.26245072670280933380126953125" lon="1.8515954352915287017822265625">
        <ele>897.20001220703125</ele>
        <time>2020-08-10T12:27:09.000Z</time>
      </trkpt>
      <trkpt lat="42.2622529976069927215576171875" lon="1.851670034229755401611328125">
        <ele>897.5999755859375</ele>
        <time>2020-08-10T12:27:14.000Z</time>
      </trkpt>
      <trkpt lat="42.26190204732120037078857421875" lon="1.85170934535562992095947265625">
        <ele>898.4000244140625</ele>
        <time>2020-08-10T12:27:23.000Z</time>
      </trkpt>
      <trkpt lat="42.261655367910861968994140625" lon="1.85184244997799396514892578125">
        <ele>899.20001220703125</ele>
        <time>2020-08-10T12:27:30.000Z</time>
      </trkpt>
      <trkpt lat="42.2613625042140483856201171875" lon="1.852054595947265625">
        <ele>898.5999755859375</ele>
        <time>2020-08-10T12:27:37.000Z</time>
      </trkpt>
      <trkpt lat="42.26131866686046123504638671875" lon="1.8520943261682987213134765625">
        <ele>898.5999755859375</ele>
        <time>2020-08-10T12:27:38.000Z</time>
      </trkpt>
      <trkpt lat="42.2612176649272441864013671875" lon="1.852266155183315277099609375">
        <ele>898.5999755859375</ele>
        <time>2020-08-10T12:27:41.000Z</time>
      </trkpt>
      <trkpt lat="42.26119176484644412994384765625" lon="1.85233698226511478424072265625">
        <ele>898.20001220703125</ele>
        <time>2020-08-10T12:27:42.000Z</time>
      </trkpt>
      <trkpt lat="42.261166870594024658203125" lon="1.85241510160267353057861328125">
        <ele>898</ele>
        <time>2020-08-10T12:27:43.000Z</time>
      </trkpt>
      <trkpt lat="42.26108581759035587310791015625" lon="1.852663457393646240234375">
        <ele>897.4000244140625</ele>
        <time>2020-08-10T12:27:46.000Z</time>
      </trkpt>
      <trkpt lat="42.261049859225749969482421875" lon="1.852743588387966156005859375">
        <ele>897.20001220703125</ele>
        <time>2020-08-10T12:27:47.000Z</time>
      </trkpt>
      <trkpt lat="42.26096662692725658416748046875" lon="1.8528979830443859100341796875">
        <ele>896.79998779296875</ele>
        <time>2020-08-10T12:27:49.000Z</time>
      </trkpt>
      <trkpt lat="42.26088163442909717559814453125" lon="1.853057406842708587646484375">
        <ele>896.4000244140625</ele>
        <time>2020-08-10T12:27:51.000Z</time>
      </trkpt>
      <trkpt lat="42.2607965581119060516357421875" lon="1.85322445817291736602783203125">
        <ele>895.79998779296875</ele>
        <time>2020-08-10T12:27:53.000Z</time>
      </trkpt>
      <trkpt lat="42.2607150860130786895751953125" lon="1.853396706283092498779296875">
        <ele>894.79998779296875</ele>
        <time>2020-08-10T12:27:55.000Z</time>
      </trkpt>
      <trkpt lat="42.26055800914764404296875" lon="1.8537489138543605804443359375">
        <ele>893.79998779296875</ele>
        <time>2020-08-10T12:27:59.000Z</time>
      </trkpt>
      <trkpt lat="42.26051048375666141510009765625" lon="1.85382954776287078857421875">
        <ele>893.4000244140625</ele>
        <time>2020-08-10T12:28:00.000Z</time>
      </trkpt>
      <trkpt lat="42.26038961671292781829833984375" lon="1.85395468957722187042236328125">
        <ele>893</ele>
        <time>2020-08-10T12:28:02.000Z</time>
      </trkpt>
      <trkpt lat="42.26031417958438396453857421875" lon="1.85398587025701999664306640625">
        <ele>892.5999755859375</ele>
        <time>2020-08-10T12:28:03.000Z</time>
      </trkpt>
      <trkpt lat="42.2601638920605182647705078125" lon="1.8539571203291416168212890625">
        <ele>892</ele>
        <time>2020-08-10T12:28:05.000Z</time>
      </trkpt>
      <trkpt lat="42.26001343689858913421630859375" lon="1.85376341454684734344482421875">
        <ele>892.20001220703125</ele>
        <time>2020-08-10T12:28:08.000Z</time>
      </trkpt>
      <trkpt lat="42.25996792316436767578125" lon="1.85352218337357044219970703125">
        <ele>892.20001220703125</ele>
        <time>2020-08-10T12:28:11.000Z</time>
      </trkpt>
      <trkpt lat="42.25996649824082851409912109375" lon="1.8534404598176479339599609375">
        <ele>892.20001220703125</ele>
        <time>2020-08-10T12:28:12.000Z</time>
      </trkpt>
      <trkpt lat="42.25994981825351715087890625" lon="1.8532004021108150482177734375">
        <ele>892.4000244140625</ele>
        <time>2020-08-10T12:28:15.000Z</time>
      </trkpt>
      <trkpt lat="42.25988678634166717529296875" lon="1.85306453146040439605712890625">
        <ele>892.20001220703125</ele>
        <time>2020-08-10T12:28:17.000Z</time>
      </trkpt>
      <trkpt lat="42.25983892567455768585205078125" lon="1.85301625169813632965087890625">
        <ele>892</ele>
        <time>2020-08-10T12:28:18.000Z</time>
      </trkpt>
      <trkpt lat="42.2597250156104564666748046875" lon="1.85296210460364818572998046875">
        <ele>891.5999755859375</ele>
        <time>2020-08-10T12:28:20.000Z</time>
      </trkpt>
      <trkpt lat="42.2595240175724029541015625" lon="1.85296327807009220123291015625">
        <ele>891.20001220703125</ele>
        <time>2020-08-10T12:28:23.000Z</time>
      </trkpt>
      <trkpt lat="42.2594581358134746551513671875" lon="1.8530027568340301513671875">
        <ele>890.79998779296875</ele>
        <time>2020-08-10T12:28:24.000Z</time>
      </trkpt>
      <trkpt lat="42.2593535296618938446044921875" lon="1.85314700938761234283447265625">
        <ele>890</ele>
        <time>2020-08-10T12:28:26.000Z</time>
      </trkpt>
      <trkpt lat="42.2593156434595584869384765625" lon="1.853238455951213836669921875">
        <ele>889.5999755859375</ele>
        <time>2020-08-10T12:28:27.000Z</time>
      </trkpt>
      <trkpt lat="42.259234674274921417236328125" lon="1.8535370193421840667724609375">
        <ele>889</ele>
        <time>2020-08-10T12:28:30.000Z</time>
      </trkpt>
      <trkpt lat="42.2591887414455413818359375" lon="1.85373567044734954833984375">
        <ele>888</ele>
        <time>2020-08-10T12:28:32.000Z</time>
      </trkpt>
      <trkpt lat="42.25910785607993602752685546875" lon="1.85403515584766864776611328125">
        <ele>886.79998779296875</ele>
        <time>2020-08-10T12:28:35.000Z</time>
      </trkpt>
      <trkpt lat="42.259032838046550750732421875" lon="1.85435014776885509490966796875">
        <ele>885.79998779296875</ele>
        <time>2020-08-10T12:28:38.000Z</time>
      </trkpt>
      <trkpt lat="42.25900140590965747833251953125" lon="1.85445140115916728973388671875">
        <ele>885.4000244140625</ele>
        <time>2020-08-10T12:28:39.000Z</time>
      </trkpt>
      <trkpt lat="42.25891104899346828460693359375" lon="1.8546377308666706085205078125">
        <ele>884.4000244140625</ele>
        <time>2020-08-10T12:28:41.000Z</time>
      </trkpt>
      <trkpt lat="42.2588492743670940399169921875" lon="1.85471995733678340911865234375">
        <ele>884</ele>
        <time>2020-08-10T12:28:42.000Z</time>
      </trkpt>
      <trkpt lat="42.25877576507627964019775390625" lon="1.8547896109521389007568359375">
        <ele>883.20001220703125</ele>
        <time>2020-08-10T12:28:43.000Z</time>
      </trkpt>
      <trkpt lat="42.25860242731869220733642578125" lon="1.85488005168735980987548828125">
        <ele>882.20001220703125</ele>
        <time>2020-08-10T12:28:45.000Z</time>
      </trkpt>
      <trkpt lat="42.2585101425647735595703125" lon="1.854910813271999359130859375">
        <ele>881.5999755859375</ele>
        <time>2020-08-10T12:28:46.000Z</time>
      </trkpt>
      <trkpt lat="42.2584197856485843658447265625" lon="1.85494559817016124725341796875">
        <ele>880.5999755859375</ele>
        <time>2020-08-10T12:28:47.000Z</time>
      </trkpt>
      <trkpt lat="42.25833605043590068817138671875" lon="1.8549884296953678131103515625">
        <ele>880</ele>
        <time>2020-08-10T12:28:48.000Z</time>
      </trkpt>
      <trkpt lat="42.25826413370668888092041015625" lon="1.855041570961475372314453125">
        <ele>879.4000244140625</ele>
        <time>2020-08-10T12:28:49.000Z</time>
      </trkpt>
      <trkpt lat="42.258169166743755340576171875" lon="1.85519286431372165679931640625">
        <ele>878.20001220703125</ele>
        <time>2020-08-10T12:28:51.000Z</time>
      </trkpt>
      <trkpt lat="42.2581492178142070770263671875" lon="1.85529327951371669769287109375">
        <ele>877.5999755859375</ele>
        <time>2020-08-10T12:28:52.000Z</time>
      </trkpt>
      <trkpt lat="42.2581421770155429840087890625" lon="1.8554041720926761627197265625">
        <ele>877.20001220703125</ele>
        <time>2020-08-10T12:28:53.000Z</time>
      </trkpt>
      <trkpt lat="42.258136980235576629638671875" lon="1.8555201776325702667236328125">
        <ele>876.5999755859375</ele>
        <time>2020-08-10T12:28:54.000Z</time>
      </trkpt>
      <trkpt lat="42.25813035853207111358642578125" lon="1.85563945211470127105712890625">
        <ele>875.79998779296875</ele>
        <time>2020-08-10T12:28:55.000Z</time>
      </trkpt>
      <trkpt lat="42.258117198944091796875" lon="1.85589090920984745025634765625">
        <ele>874.4000244140625</ele>
        <time>2020-08-10T12:28:57.000Z</time>
      </trkpt>
      <trkpt lat="42.2581022791564464569091796875" lon="1.856154687702655792236328125">
        <ele>872.79998779296875</ele>
        <time>2020-08-10T12:28:59.000Z</time>
      </trkpt>
      <trkpt lat="42.25807361304759979248046875" lon="1.8564247526228427886962890625">
        <ele>871.5999755859375</ele>
        <time>2020-08-10T12:29:01.000Z</time>
      </trkpt>
      <trkpt lat="42.25804519839584827423095703125" lon="1.85655375011265277862548828125">
        <ele>871</ele>
        <time>2020-08-10T12:29:02.000Z</time>
      </trkpt>
      <trkpt lat="42.25800060667097568511962890625" lon="1.85667335987091064453125">
        <ele>870</ele>
        <time>2020-08-10T12:29:03.000Z</time>
      </trkpt>
      <trkpt lat="42.25787244737148284912109375" lon="1.85688600875437259674072265625">
        <ele>868.79998779296875</ele>
        <time>2020-08-10T12:29:05.000Z</time>
      </trkpt>
      <trkpt lat="42.2578008659183979034423828125" lon="1.85698659159243106842041015625">
        <ele>868</ele>
        <time>2020-08-10T12:29:06.000Z</time>
      </trkpt>
      <trkpt lat="42.25772802717983722686767578125" lon="1.85708566568791866302490234375">
        <ele>867.20001220703125</ele>
        <time>2020-08-10T12:29:07.000Z</time>
      </trkpt>
      <trkpt lat="42.25758017040789127349853515625" lon="1.85728213749825954437255859375">
        <ele>866.4000244140625</ele>
        <time>2020-08-10T12:29:09.000Z</time>
      </trkpt>
      <trkpt lat="42.25742862559854984283447265625" lon="1.85748095624148845672607421875">
        <ele>865</ele>
        <time>2020-08-10T12:29:11.000Z</time>
      </trkpt>
      <trkpt lat="42.25727138109505176544189453125" lon="1.85768480412662029266357421875">
        <ele>863.5999755859375</ele>
        <time>2020-08-10T12:29:13.000Z</time>
      </trkpt>
      <trkpt lat="42.257191836833953857421875" lon="1.85778957791626453399658203125">
        <ele>863</ele>
        <time>2020-08-10T12:29:14.000Z</time>
      </trkpt>
      <trkpt lat="42.25711296312510967254638671875" lon="1.8578949384391307830810546875">
        <ele>862.4000244140625</ele>
        <time>2020-08-10T12:29:15.000Z</time>
      </trkpt>
      <trkpt lat="42.256960831582546234130859375" lon="1.85811244882643222808837890625">
        <ele>861.20001220703125</ele>
        <time>2020-08-10T12:29:17.000Z</time>
      </trkpt>
      <trkpt lat="42.25682194344699382781982421875" lon="1.85835535638034343719482421875">
        <ele>859</ele>
        <time>2020-08-10T12:29:19.000Z</time>
      </trkpt>
      <trkpt lat="42.25675907917320728302001953125" lon="1.85848561115562915802001953125">
        <ele>858</ele>
        <time>2020-08-10T12:29:20.000Z</time>
      </trkpt>
      <trkpt lat="42.25669906474649906158447265625" lon="1.85861770994961261749267578125">
        <ele>857.5999755859375</ele>
        <time>2020-08-10T12:29:21.000Z</time>
      </trkpt>
      <trkpt lat="42.25657987408339977264404296875" lon="1.85888492502272129058837890625">
        <ele>856</ele>
        <time>2020-08-10T12:29:23.000Z</time>
      </trkpt>
      <trkpt lat="42.25646437145769596099853515625" lon="1.8591492064297199249267578125">
        <ele>854.20001220703125</ele>
        <time>2020-08-10T12:29:25.000Z</time>
      </trkpt>
      <trkpt lat="42.256349287927150726318359375" lon="1.85938331298530101776123046875">
        <ele>852</ele>
        <time>2020-08-10T12:29:27.000Z</time>
      </trkpt>
      <trkpt lat="42.256203778088092803955078125" lon="1.859567128121852874755859375">
        <ele>850.79998779296875</ele>
        <time>2020-08-10T12:29:29.000Z</time>
      </trkpt>
      <trkpt lat="42.25611384026706218719482421875" lon="1.85963946394622325897216796875">
        <ele>849.5999755859375</ele>
        <time>2020-08-10T12:29:30.000Z</time>
      </trkpt>
      <trkpt lat="42.25601728074252605438232421875" lon="1.85970400460064411163330078125">
        <ele>848.5999755859375</ele>
        <time>2020-08-10T12:29:31.000Z</time>
      </trkpt>
      <trkpt lat="42.25591787137091159820556640625" lon="1.85976720415055751800537109375">
        <ele>848</ele>
        <time>2020-08-10T12:29:32.000Z</time>
      </trkpt>
      <trkpt lat="42.2557157836854457855224609375" lon="1.8598988838493824005126953125">
        <ele>846.5999755859375</ele>
        <time>2020-08-10T12:29:34.000Z</time>
      </trkpt>
      <trkpt lat="42.25551570765674114227294921875" lon="1.86003559269011020660400390625">
        <ele>845</ele>
        <time>2020-08-10T12:29:36.000Z</time>
      </trkpt>
      <trkpt lat="42.2553204931318759918212890625" lon="1.8601657636463642120361328125">
        <ele>843.79998779296875</ele>
        <time>2020-08-10T12:29:38.000Z</time>
      </trkpt>
      <trkpt lat="42.255130894482135772705078125" lon="1.86028830707073211669921875">
        <ele>842.4000244140625</ele>
        <time>2020-08-10T12:29:40.000Z</time>
      </trkpt>
      <trkpt lat="42.254949510097503662109375" lon="1.86041026376187801361083984375">
        <ele>841.4000244140625</ele>
        <time>2020-08-10T12:29:42.000Z</time>
      </trkpt>
      <trkpt lat="42.25486007519066333770751953125" lon="1.86047203838825225830078125">
        <ele>840.79998779296875</ele>
        <time>2020-08-10T12:29:43.000Z</time>
      </trkpt>
      <trkpt lat="42.2547709755599498748779296875" lon="1.860532052814960479736328125">
        <ele>839.79998779296875</ele>
        <time>2020-08-10T12:29:44.000Z</time>
      </trkpt>
      <trkpt lat="42.2546019963920116424560546875" lon="1.86064344830811023712158203125">
        <ele>838.4000244140625</ele>
        <time>2020-08-10T12:29:46.000Z</time>
      </trkpt>
      <trkpt lat="42.2544538043439388275146484375" lon="1.86074285767972469329833984375">
        <ele>837.79998779296875</ele>
        <time>2020-08-10T12:29:48.000Z</time>
      </trkpt>
      <trkpt lat="42.25438498891890048980712890625" lon="1.86078694649040699005126953125">
        <ele>837.4000244140625</ele>
        <time>2020-08-10T12:29:49.000Z</time>
      </trkpt>
      <trkpt lat="42.2542000003159046173095703125" lon="1.86091049574315547943115234375">
        <ele>836.20001220703125</ele>
        <time>2020-08-10T12:29:52.000Z</time>
      </trkpt>
      <trkpt lat="42.25414954125881195068359375" lon="1.8609474599361419677734375">
        <ele>835.5999755859375</ele>
        <time>2020-08-10T12:29:53.000Z</time>
      </trkpt>
      <trkpt lat="42.254077456891536712646484375" lon="1.86100085265934467315673828125">
        <ele>835.20001220703125</ele>
        <time>2020-08-10T12:29:55.000Z</time>
      </trkpt>
      <trkpt lat="42.2540531493723392486572265625" lon="1.86101652681827545166015625">
        <ele>834.79998779296875</ele>
        <time>2020-08-10T12:29:56.000Z</time>
      </trkpt>
      <trkpt lat="42.2540068812668323516845703125" lon="1.86107461340725421905517578125">
        <ele>834</ele>
        <time>2020-08-10T12:29:59.000Z</time>
      </trkpt>
      <trkpt lat="42.25400143302977085113525390625" lon="1.86111199669539928436279296875">
        <ele>833.79998779296875</ele>
        <time>2020-08-10T12:30:00.000Z</time>
      </trkpt>
      <trkpt lat="42.25402372889220714569091796875" lon="1.86124426312744617462158203125">
        <ele>833.4000244140625</ele>
        <time>2020-08-10T12:30:03.000Z</time>
      </trkpt>
      <trkpt lat="42.25403822958469390869140625" lon="1.86129606328904628753662109375">
        <ele>833.20001220703125</ele>
        <time>2020-08-10T12:30:04.000Z</time>
      </trkpt>
      <trkpt lat="42.25405834615230560302734375" lon="1.861350797116756439208984375">
        <ele>833</ele>
        <time>2020-08-10T12:30:05.000Z</time>
      </trkpt>
      <trkpt lat="42.25413185544312000274658203125" lon="1.86145615763962268829345703125">
        <ele>832.4000244140625</ele>
        <time>2020-08-10T12:30:07.000Z</time>
      </trkpt>
      <trkpt lat="42.2541822306811809539794921875" lon="1.8615045212209224700927734375">
        <ele>832</ele>
        <time>2020-08-10T12:30:08.000Z</time>
      </trkpt>
      <trkpt lat="42.25423864088952541351318359375" lon="1.86155221424996852874755859375">
        <ele>831.79998779296875</ele>
        <time>2020-08-10T12:30:09.000Z</time>
      </trkpt>
      <trkpt lat="42.254363112151622772216796875" lon="1.8616463430225849151611328125">
        <ele>830.79998779296875</ele>
        <time>2020-08-10T12:30:11.000Z</time>
      </trkpt>
      <trkpt lat="42.254428826272487640380859375" lon="1.8616916052997112274169921875">
        <ele>830.20001220703125</ele>
        <time>2020-08-10T12:30:12.000Z</time>
      </trkpt>
      <trkpt lat="42.25456369109451770782470703125" lon="1.8617848120629787445068359375">
        <ele>829.5999755859375</ele>
        <time>2020-08-10T12:30:14.000Z</time>
      </trkpt>
      <trkpt lat="42.254771478474140167236328125" lon="1.861909367144107818603515625">
        <ele>828.5999755859375</ele>
        <time>2020-08-10T12:30:17.000Z</time>
      </trkpt>
      <trkpt lat="42.2549121268093585968017578125" lon="1.86197482980787754058837890625">
        <ele>828.20001220703125</ele>
        <time>2020-08-10T12:30:19.000Z</time>
      </trkpt>
      <trkpt lat="42.25510734133422374725341796875" lon="1.86204892583191394805908203125">
        <ele>828.20001220703125</ele>
        <time>2020-08-10T12:30:22.000Z</time>
      </trkpt>
      <trkpt lat="42.25520557723939418792724609375" lon="1.86207675375044345855712890625">
        <ele>828.20001220703125</ele>
        <time>2020-08-10T12:30:24.000Z</time>
      </trkpt>
      <trkpt lat="42.25530959665775299072265625" lon="1.86211195774376392364501953125">
        <ele>828.5999755859375</ele>
        <time>2020-08-10T12:30:28.000Z</time>
      </trkpt>
      <trkpt lat="42.25548326969146728515625" lon="1.862178258597850799560546875">
        <ele>828.5999755859375</ele>
        <time>2020-08-10T12:30:34.000Z</time>
      </trkpt>
      <trkpt lat="42.25567731074988842010498046875" lon="1.86227205209434032440185546875">
        <ele>828.5999755859375</ele>
        <time>2020-08-10T12:30:41.000Z</time>
      </trkpt>
      <trkpt lat="42.2557593695819377899169921875" lon="1.86231605708599090576171875">
        <ele>828.20001220703125</ele>
        <time>2020-08-10T12:30:44.000Z</time>
      </trkpt>
      <trkpt lat="42.25578711368143558502197265625" lon="1.8624181486666202545166015625">
        <ele>828.20001220703125</ele>
        <time>2020-08-10T12:30:46.000Z</time>
      </trkpt>
      <trkpt lat="42.2557918913662433624267578125" lon="1.86247925274074077606201171875">
        <ele>828</ele>
        <time>2020-08-10T12:30:47.000Z</time>
      </trkpt>
      <trkpt lat="42.25574637763202190399169921875" lon="1.862665079534053802490234375">
        <ele>827.4000244140625</ele>
        <time>2020-08-10T12:30:50.000Z</time>
      </trkpt>
      <trkpt lat="42.2555810026824474334716796875" lon="1.86275468207895755767822265625">
        <ele>826.5999755859375</ele>
        <time>2020-08-10T12:30:53.000Z</time>
      </trkpt>
      <trkpt lat="42.255433984100818634033203125" lon="1.8627178855240345001220703125">
        <ele>825.4000244140625</ele>
        <time>2020-08-10T12:30:55.000Z</time>
      </trkpt>
      <trkpt lat="42.25528168492019176483154296875" lon="1.86266264878213405609130859375">
        <ele>824</ele>
        <time>2020-08-10T12:30:57.000Z</time>
      </trkpt>
      <trkpt lat="42.25512645207345485687255859375" lon="1.86260632239282131195068359375">
        <ele>822.79998779296875</ele>
        <time>2020-08-10T12:30:59.000Z</time>
      </trkpt>
      <trkpt lat="42.25497993640601634979248046875" lon="1.862557791173458099365234375">
        <ele>821.79998779296875</ele>
        <time>2020-08-10T12:31:01.000Z</time>
      </trkpt>
      <trkpt lat="42.25491355173289775848388671875" lon="1.86253130435943603515625">
        <ele>821</ele>
        <time>2020-08-10T12:31:02.000Z</time>
      </trkpt>
      <trkpt lat="42.25484649650752544403076171875" lon="1.8625031411647796630859375">
        <ele>820.20001220703125</ele>
        <time>2020-08-10T12:31:03.000Z</time>
      </trkpt>
      <trkpt lat="42.25462638773024082183837890625" lon="1.86242108233273029327392578125">
        <ele>818.79998779296875</ele>
        <time>2020-08-10T12:31:06.000Z</time>
      </trkpt>
      <trkpt lat="42.25456050597131252288818359375" lon="1.86239392496645450592041015625">
        <ele>818.20001220703125</ele>
        <time>2020-08-10T12:31:07.000Z</time>
      </trkpt>
      <trkpt lat="42.254495210945606231689453125" lon="1.86236676760017871856689453125">
        <ele>817.79998779296875</ele>
        <time>2020-08-10T12:31:08.000Z</time>
      </trkpt>
      <trkpt lat="42.25435816682875156402587890625" lon="1.86231278814375400543212890625">
        <ele>816.4000244140625</ele>
        <time>2020-08-10T12:31:10.000Z</time>
      </trkpt>
      <trkpt lat="42.2542244754731655120849609375" lon="1.8622629158198833465576171875">
        <ele>815</ele>
        <time>2020-08-10T12:31:12.000Z</time>
      </trkpt>
      <trkpt lat="42.254155576229095458984375" lon="1.8622360937297344207763671875">
        <ele>814.4000244140625</ele>
        <time>2020-08-10T12:31:13.000Z</time>
      </trkpt>
      <trkpt lat="42.25408692844212055206298828125" lon="1.86220617033541202545166015625">
        <ele>813.79998779296875</ele>
        <time>2020-08-10T12:31:14.000Z</time>
      </trkpt>
      <trkpt lat="42.25394996814429759979248046875" lon="1.86214347369968891143798828125">
        <ele>812.79998779296875</ele>
        <time>2020-08-10T12:31:16.000Z</time>
      </trkpt>
      <trkpt lat="42.25383664481341838836669921875" lon="1.862099803984165191650390625">
        <ele>811.5999755859375</ele>
        <time>2020-08-10T12:31:18.000Z</time>
      </trkpt>
      <trkpt lat="42.25367336533963680267333984375" lon="1.86203685589134693145751953125">
        <ele>810.20001220703125</ele>
        <time>2020-08-10T12:31:21.000Z</time>
      </trkpt>
      <trkpt lat="42.253543697297573089599609375" lon="1.861999221146106719970703125">
        <ele>809.20001220703125</ele>
        <time>2020-08-10T12:31:23.000Z</time>
      </trkpt>
      <trkpt lat="42.25347890518605709075927734375" lon="1.86197399161756038665771484375">
        <ele>808.79998779296875</ele>
        <time>2020-08-10T12:31:24.000Z</time>
      </trkpt>
      <trkpt lat="42.25335418246686458587646484375" lon="1.86192671768367290496826171875">
        <ele>807.79998779296875</ele>
        <time>2020-08-10T12:31:26.000Z</time>
      </trkpt>
      <trkpt lat="42.2532310523092746734619140625" lon="1.86190702021121978759765625">
        <ele>807.20001220703125</ele>
        <time>2020-08-10T12:31:28.000Z</time>
      </trkpt>
      <trkpt lat="42.2531750611960887908935546875" lon="1.86192437075078487396240234375">
        <ele>807</ele>
        <time>2020-08-10T12:31:29.000Z</time>
      </trkpt>
      <trkpt lat="42.253123261034488677978515625" lon="1.86196208931505680084228515625">
        <ele>806.5999755859375</ele>
        <time>2020-08-10T12:31:30.000Z</time>
      </trkpt>
      <trkpt lat="42.25299024023115634918212890625" lon="1.86209184117615222930908203125">
        <ele>805.79998779296875</ele>
        <time>2020-08-10T12:31:33.000Z</time>
      </trkpt>
      <trkpt lat="42.25295369513332843780517578125" lon="1.8621180765330791473388671875">
        <ele>805.5999755859375</ele>
        <time>2020-08-10T12:31:34.000Z</time>
      </trkpt>
      <trkpt lat="42.2528793476521968841552734375" lon="1.86211346648633480072021484375">
        <ele>805.20001220703125</ele>
        <time>2020-08-10T12:31:36.000Z</time>
      </trkpt>
      <trkpt lat="42.25283383391797542572021484375" lon="1.8621066771447658538818359375">
        <ele>805</ele>
        <time>2020-08-10T12:31:37.000Z</time>
      </trkpt>
      <trkpt lat="42.2528079338371753692626953125" lon="1.8620091117918491363525390625">
        <ele>804.5999755859375</ele>
        <time>2020-08-10T12:31:39.000Z</time>
      </trkpt>
      <trkpt lat="42.25280013866722583770751953125" lon="1.86195756308734416961669921875">
        <ele>804.5999755859375</ele>
        <time>2020-08-10T12:31:40.000Z</time>
      </trkpt>
      <trkpt lat="42.2527433931827545166015625" lon="1.861819513142108917236328125">
        <ele>804.4000244140625</ele>
        <time>2020-08-10T12:31:44.000Z</time>
      </trkpt>
      <trkpt lat="42.2526361048221588134765625" lon="1.86172354035079479217529296875">
        <ele>804</ele>
        <time>2020-08-10T12:31:49.000Z</time>
      </trkpt>
      <trkpt lat="42.25255957804620265960693359375" lon="1.86169889755547046661376953125">
        <ele>804</ele>
        <time>2020-08-10T12:31:53.000Z</time>
      </trkpt>
      <trkpt lat="42.25254398770630359649658203125" lon="1.8617092072963714599609375">
        <ele>803.79998779296875</ele>
        <time>2020-08-10T12:31:54.000Z</time>
      </trkpt>
      <trkpt lat="42.2525128908455371856689453125" lon="1.8617700599133968353271484375">
        <ele>803</ele>
        <time>2020-08-10T12:31:57.000Z</time>
      </trkpt>
      <trkpt lat="42.25250811316072940826416015625" lon="1.86177827417850494384765625">
        <ele>802.79998779296875</ele>
        <time>2020-08-10T12:31:58.000Z</time>
      </trkpt>
      <trkpt lat="42.25250476039946079254150390625" lon="1.86177366413176059722900390625">
        <ele>802.5999755859375</ele>
        <time>2020-08-10T12:32:00.000Z</time>
      </trkpt>
      <trkpt lat="42.248871959745883941650390625" lon="1.8675897829234600067138671875">
        <ele>779</ele>
        <time>2020-08-11T05:01:53.000Z</time>
      </trkpt>
      <trkpt lat="42.24883868359029293060302734375" lon="1.8675083108246326446533203125">
        <ele>778</ele>
        <time>2020-08-11T05:01:56.000Z</time>
      </trkpt>
      <trkpt lat="42.248809598386287689208984375" lon="1.86744016595184803009033203125">
        <ele>777.4000244140625</ele>
        <time>2020-08-11T05:01:58.000Z</time>
      </trkpt>
      <trkpt lat="42.24872435443103313446044921875" lon="1.86732281930744647979736328125">
        <ele>777</ele>
        <time>2020-08-11T05:02:03.000Z</time>
      </trkpt>
      <trkpt lat="42.248713038861751556396484375" lon="1.86729465611279010772705078125">
        <ele>776.79998779296875</ele>
        <time>2020-08-11T05:02:04.000Z</time>
      </trkpt>
      <trkpt lat="42.24868495948612689971923828125" lon="1.86719792895019054412841796875">
        <ele>776</ele>
        <time>2020-08-11T05:02:07.000Z</time>
      </trkpt>
      <trkpt lat="42.24868210963904857635498046875" lon="1.867165826261043548583984375">
        <ele>775.79998779296875</ele>
        <time>2020-08-11T05:02:08.000Z</time>
      </trkpt>
      <trkpt lat="42.2486468218266963958740234375" lon="1.8670476414263248443603515625">
        <ele>775</ele>
        <time>2020-08-11T05:02:12.000Z</time>
      </trkpt>
      <trkpt lat="42.2486484982073307037353515625" lon="1.86702325008809566497802734375">
        <ele>774.79998779296875</ele>
        <time>2020-08-11T05:02:13.000Z</time>
      </trkpt>
      <trkpt lat="42.24865847267210483551025390625" lon="1.8670013733208179473876953125">
        <ele>774.5999755859375</ele>
        <time>2020-08-11T05:02:14.000Z</time>
      </trkpt>
      <trkpt lat="42.24867045879364013671875" lon="1.86698653735220432281494140625">
        <ele>774.5999755859375</ele>
        <time>2020-08-11T05:02:15.000Z</time>
      </trkpt>
      <trkpt lat="42.2486984543502330780029296875" lon="1.8669487349689006805419921875">
        <ele>774.5999755859375</ele>
        <time>2020-08-11T05:02:17.000Z</time>
      </trkpt>
      <trkpt lat="42.2487547807395458221435546875" lon="1.86684739775955677032470703125">
        <ele>774.5999755859375</ele>
        <time>2020-08-11T05:02:21.000Z</time>
      </trkpt>
      <trkpt lat="42.2488540224730968475341796875" lon="1.86671898700296878814697265625">
        <ele>775</ele>
        <time>2020-08-11T05:02:27.000Z</time>
      </trkpt>
      <trkpt lat="42.24897212348878383636474609375" lon="1.8665961921215057373046875">
        <ele>775.20001220703125</ele>
        <time>2020-08-11T05:02:34.000Z</time>
      </trkpt>
      <trkpt lat="42.24910154007375240325927734375" lon="1.866467110812664031982421875">
        <ele>775.4000244140625</ele>
        <time>2020-08-11T05:02:41.000Z</time>
      </trkpt>
      <trkpt lat="42.2491572797298431396484375" lon="1.86641086824238300323486328125">
        <ele>775.5999755859375</ele>
        <time>2020-08-11T05:02:44.000Z</time>
      </trkpt>
      <trkpt lat="42.2492332197725772857666015625" lon="1.86633459292352199554443359375">
        <ele>775.79998779296875</ele>
        <time>2020-08-11T05:02:48.000Z</time>
      </trkpt>
      <trkpt lat="42.24939004518091678619384765625" lon="1.86620551161468029022216796875">
        <ele>776.20001220703125</ele>
        <time>2020-08-11T05:02:55.000Z</time>
      </trkpt>
      <trkpt lat="42.249467410147190093994140625" lon="1.86615723185241222381591796875">
        <ele>776.5999755859375</ele>
        <time>2020-08-11T05:02:58.000Z</time>
      </trkpt>
      <trkpt lat="42.249531447887420654296875" lon="1.86609797179698944091796875">
        <ele>776.5999755859375</ele>
        <time>2020-08-11T05:03:01.000Z</time>
      </trkpt>
      <trkpt lat="42.24969380535185337066650390625" lon="1.865940392017364501953125">
        <ele>777.4000244140625</ele>
        <time>2020-08-11T05:03:09.000Z</time>
      </trkpt>
      <trkpt lat="42.24971090443432331085205078125" lon="1.86591717414557933807373046875">
        <ele>777.5999755859375</ele>
        <time>2020-08-11T05:03:10.000Z</time>
      </trkpt>
      <trkpt lat="42.24980494938790798187255859375" lon="1.865813992917537689208984375">
        <ele>778.4000244140625</ele>
        <time>2020-08-11T05:03:15.000Z</time>
      </trkpt>
      <trkpt lat="42.2498843260109424591064453125" lon="1.86574417166411876678466796875">
        <ele>778.5999755859375</ele>
        <time>2020-08-11T05:03:19.000Z</time>
      </trkpt>
      <trkpt lat="42.24995330907404422760009765625" lon="1.865661777555942535400390625">
        <ele>779.20001220703125</ele>
        <time>2020-08-11T05:03:23.000Z</time>
      </trkpt>
      <trkpt lat="42.25006931461393833160400390625" lon="1.8655586801469326019287109375">
        <ele>779.79998779296875</ele>
        <time>2020-08-11T05:03:29.000Z</time>
      </trkpt>
      <trkpt lat="42.25013620220124721527099609375" lon="1.86548047699034214019775390625">
        <ele>780.4000244140625</ele>
        <time>2020-08-11T05:03:33.000Z</time>
      </trkpt>
      <trkpt lat="42.2501515410840511322021484375" lon="1.8654607795178890228271484375">
        <ele>780.5999755859375</ele>
        <time>2020-08-11T05:03:34.000Z</time>
      </trkpt>
      <trkpt lat="42.25022085942327976226806640625" lon="1.8654292635619640350341796875">
        <ele>780.79998779296875</ele>
        <time>2020-08-11T05:03:37.000Z</time>
      </trkpt>
      <trkpt lat="42.25023913197219371795654296875" lon="1.8654128350317478179931640625">
        <ele>781</ele>
        <time>2020-08-11T05:03:38.000Z</time>
      </trkpt>
      <trkpt lat="42.25036519579589366912841796875" lon="1.86528392136096954345703125">
        <ele>781.5999755859375</ele>
        <time>2020-08-11T05:03:45.000Z</time>
      </trkpt>
      <trkpt lat="42.25043895654380321502685546875" lon="1.86521175317466259002685546875">
        <ele>782</ele>
        <time>2020-08-11T05:03:49.000Z</time>
      </trkpt>
      <trkpt lat="42.25050886161625385284423828125" lon="1.86513841152191162109375">
        <ele>782.20001220703125</ele>
        <time>2020-08-11T05:03:53.000Z</time>
      </trkpt>
      <trkpt lat="42.25061866454780101776123046875" lon="1.86503808014094829559326171875">
        <ele>782.79998779296875</ele>
        <time>2020-08-11T05:03:59.000Z</time>
      </trkpt>
      <trkpt lat="42.2507332451641559600830078125" lon="1.86495476402342319488525390625">
        <ele>783.4000244140625</ele>
        <time>2020-08-11T05:04:05.000Z</time>
      </trkpt>
      <trkpt lat="42.25078764371573925018310546875" lon="1.8649069033563137054443359375">
        <ele>783.79998779296875</ele>
        <time>2020-08-11T05:04:08.000Z</time>
      </trkpt>
      <trkpt lat="42.25082360208034515380859375" lon="1.8648773990571498870849609375">
        <ele>784.20001220703125</ele>
        <time>2020-08-11T05:04:10.000Z</time>
      </trkpt>
      <trkpt lat="42.25093918852508068084716796875" lon="1.86480372212827205657958984375">
        <ele>784.79998779296875</ele>
        <time>2020-08-11T05:04:16.000Z</time>
      </trkpt>
      <trkpt lat="42.25100607611238956451416015625" lon="1.8646695278584957122802734375">
        <ele>785</ele>
        <time>2020-08-11T05:04:21.000Z</time>
      </trkpt>
      <trkpt lat="42.251012362539768218994140625" lon="1.86457372270524501800537109375">
        <ele>785.20001220703125</ele>
        <time>2020-08-11T05:04:23.000Z</time>
      </trkpt>
      <trkpt lat="42.25106491707265377044677734375" lon="1.864379011094570159912109375">
        <ele>786</ele>
        <time>2020-08-11T05:04:29.000Z</time>
      </trkpt>
      <trkpt lat="42.2511459700763225555419921875" lon="1.8642682023346424102783203125">
        <ele>786.20001220703125</ele>
        <time>2020-08-11T05:04:34.000Z</time>
      </trkpt>
      <trkpt lat="42.25117790512740612030029296875" lon="1.864229142665863037109375">
        <ele>786.20001220703125</ele>
        <time>2020-08-11T05:04:36.000Z</time>
      </trkpt>
      <trkpt lat="42.2512549348175525665283203125" lon="1.86413316987454891204833984375">
        <ele>786.5999755859375</ele>
        <time>2020-08-11T05:04:41.000Z</time>
      </trkpt>
      <trkpt lat="42.2513350658118724822998046875" lon="1.8640150688588619232177734375">
        <ele>787.20001220703125</ele>
        <time>2020-08-11T05:04:47.000Z</time>
      </trkpt>
      <trkpt lat="42.25139734335243701934814453125" lon="1.863931752741336822509765625">
        <ele>787.20001220703125</ele>
        <time>2020-08-11T05:04:51.000Z</time>
      </trkpt>
      <trkpt lat="42.25141628645360469818115234375" lon="1.86391155235469341278076171875">
        <ele>787.4000244140625</ele>
        <time>2020-08-11T05:04:52.000Z</time>
      </trkpt>
      <trkpt lat="42.25148585624992847442626953125" lon="1.863834522664546966552734375">
        <ele>787.5999755859375</ele>
        <time>2020-08-11T05:04:56.000Z</time>
      </trkpt>
      <trkpt lat="42.25152022205293178558349609375" lon="1.86380292288959026336669921875">
        <ele>788</ele>
        <time>2020-08-11T05:04:58.000Z</time>
      </trkpt>
      <trkpt lat="42.2516438551247119903564453125" lon="1.86366244219243526458740234375">
        <ele>788.4000244140625</ele>
        <time>2020-08-11T05:05:05.000Z</time>
      </trkpt>
      <trkpt lat="42.25171602331101894378662109375" lon="1.86353922821581363677978515625">
        <ele>788.79998779296875</ele>
        <time>2020-08-11T05:05:10.000Z</time>
      </trkpt>
      <trkpt lat="42.25173094309866428375244140625" lon="1.86351542361080646514892578125">
        <ele>788.79998779296875</ele>
        <time>2020-08-11T05:05:11.000Z</time>
      </trkpt>
      <trkpt lat="42.25185566581785678863525390625" lon="1.86336203478276729583740234375">
        <ele>789.4000244140625</ele>
        <time>2020-08-11T05:05:18.000Z</time>
      </trkpt>
      <trkpt lat="42.251899503171443939208984375" lon="1.8632912077009677886962890625">
        <ele>789.4000244140625</ele>
        <time>2020-08-11T05:05:21.000Z</time>
      </trkpt>
      <trkpt lat="42.251950465142726898193359375" lon="1.863196156919002532958984375">
        <ele>790</ele>
        <time>2020-08-11T05:05:25.000Z</time>
      </trkpt>
      <trkpt lat="42.25206236355006694793701171875" lon="1.8631064705550670623779296875">
        <ele>790.20001220703125</ele>
        <time>2020-08-11T05:05:31.000Z</time>
      </trkpt>
      <trkpt lat="42.252146936953067779541015625" lon="1.8630288541316986083984375">
        <ele>790.20001220703125</ele>
        <time>2020-08-11T05:05:35.000Z</time>
      </trkpt>
      <trkpt lat="42.25222111679613590240478515625" lon="1.86299641616642475128173828125">
        <ele>790.4000244140625</ele>
        <time>2020-08-11T05:05:38.000Z</time>
      </trkpt>
      <trkpt lat="42.25224341265857219696044921875" lon="1.86298401094973087310791015625">
        <ele>790.5999755859375</ele>
        <time>2020-08-11T05:05:39.000Z</time>
      </trkpt>
      <trkpt lat="42.252279706299304962158203125" lon="1.862955428659915924072265625">
        <ele>790.79998779296875</ele>
        <time>2020-08-11T05:05:41.000Z</time>
      </trkpt>
      <trkpt lat="42.25231750868260860443115234375" lon="1.86290555633604526519775390625">
        <ele>791</ele>
        <time>2020-08-11T05:05:43.000Z</time>
      </trkpt>
      <trkpt lat="42.25236989557743072509765625" lon="1.86283280141651630401611328125">
        <ele>791</ele>
        <time>2020-08-11T05:05:46.000Z</time>
      </trkpt>
      <trkpt lat="42.25246167741715908050537109375" lon="1.86266398988664150238037109375">
        <ele>791.20001220703125</ele>
        <time>2020-08-11T05:05:52.000Z</time>
      </trkpt>
      <trkpt lat="42.25256527774035930633544921875" lon="1.86252216808497905731201171875">
        <ele>791.4000244140625</ele>
        <time>2020-08-11T05:05:58.000Z</time>
      </trkpt>
      <trkpt lat="42.2526748292148113250732421875" lon="1.8623816035687923431396484375">
        <ele>791.79998779296875</ele>
        <time>2020-08-11T05:06:05.000Z</time>
      </trkpt>
      <trkpt lat="42.2526919282972812652587890625" lon="1.86236961744725704193115234375">
        <ele>791.79998779296875</ele>
        <time>2020-08-11T05:06:06.000Z</time>
      </trkpt>
      <trkpt lat="42.25274347700178623199462890625" lon="1.86225562356412410736083984375">
        <ele>791.79998779296875</ele>
        <time>2020-08-11T05:06:11.000Z</time>
      </trkpt>
      <trkpt lat="42.2527653537690639495849609375" lon="1.86216442845761775970458984375">
        <ele>791.79998779296875</ele>
        <time>2020-08-11T05:06:14.000Z</time>
      </trkpt>
      <trkpt lat="42.25278823636472225189208984375" lon="1.8621284700930118560791015625">
        <ele>791.79998779296875</ele>
        <time>2020-08-11T05:06:16.000Z</time>
      </trkpt>
      <trkpt lat="42.25285965017974376678466796875" lon="1.8621502630412578582763671875">
        <ele>791.5999755859375</ele>
        <time>2020-08-11T05:06:20.000Z</time>
      </trkpt>
      <trkpt lat="42.25287222303450107574462890625" lon="1.86213324777781963348388671875">
        <ele>791.5999755859375</ele>
        <time>2020-08-11T05:06:25.000Z</time>
      </trkpt>
      <trkpt lat="42.25286384113132953643798828125" lon="1.86211212538182735443115234375">
        <ele>791.5999755859375</ele>
        <time>2020-08-11T05:06:26.000Z</time>
      </trkpt>
      <trkpt lat="42.2528372704982757568359375" lon="1.862047500908374786376953125">
        <ele>791.4000244140625</ele>
        <time>2020-08-11T05:06:29.000Z</time>
      </trkpt>
      <trkpt lat="42.2527915053069591522216796875" lon="1.8618746660649776458740234375">
        <ele>790.79998779296875</ele>
        <time>2020-08-11T05:06:34.000Z</time>
      </trkpt>
      <trkpt lat="42.25277616642415523529052734375" lon="1.861840970814228057861328125">
        <ele>790.79998779296875</ele>
        <time>2020-08-11T05:06:35.000Z</time>
      </trkpt>
      <trkpt lat="42.25274850614368915557861328125" lon="1.86176947318017482757568359375">
        <ele>790.5999755859375</ele>
        <time>2020-08-11T05:06:38.000Z</time>
      </trkpt>
      <trkpt lat="42.25270676426589488983154296875" lon="1.86174248345196247100830078125">
        <ele>790.20001220703125</ele>
        <time>2020-08-11T05:06:43.000Z</time>
      </trkpt>
      <trkpt lat="42.25268748588860034942626953125" lon="1.8617680482566356658935546875">
        <ele>790.5999755859375</ele>
        <time>2020-08-11T05:06:54.000Z</time>
      </trkpt>
      <trkpt lat="42.25265613757073879241943359375" lon="1.8617543019354343414306640625">
        <ele>790.4000244140625</ele>
        <time>2020-08-11T05:07:03.000Z</time>
      </trkpt>
      <trkpt lat="42.2526198439300060272216796875" lon="1.86170585453510284423828125">
        <ele>789.79998779296875</ele>
        <time>2020-08-11T05:07:11.000Z</time>
      </trkpt>
      <trkpt lat="42.252606935799121856689453125" lon="1.8616905994713306427001953125">
        <ele>789.5999755859375</ele>
        <time>2020-08-11T05:07:17.000Z</time>
      </trkpt>
      <trkpt lat="42.25260257720947265625" lon="1.86166964471340179443359375">
        <ele>789.4000244140625</ele>
        <time>2020-08-11T05:07:21.000Z</time>
      </trkpt>
      <trkpt lat="42.25257533602416515350341796875" lon="1.86164416372776031494140625">
        <ele>789.20001220703125</ele>
        <time>2020-08-11T05:07:23.000Z</time>
      </trkpt>
      <trkpt lat="42.25252387113869190216064453125" lon="1.8616126477718353271484375">
        <ele>789</ele>
        <time>2020-08-11T05:07:25.000Z</time>
      </trkpt>
      <trkpt lat="42.25243502296507358551025390625" lon="1.86155992560088634490966796875">
        <ele>788.79998779296875</ele>
        <time>2020-08-11T05:07:29.000Z</time>
      </trkpt>
      <trkpt lat="42.2524009086191654205322265625" lon="1.86155372299253940582275390625">
        <ele>788.5999755859375</ele>
        <time>2020-08-11T05:07:39.000Z</time>
      </trkpt>
      <trkpt lat="42.2524022497236728668212890625" lon="1.8615514598786830902099609375">
        <ele>788.5999755859375</ele>
        <time>2020-08-11T05:07:48.000Z</time>
      </trkpt>
      <trkpt lat="42.2524022497236728668212890625" lon="1.8615414015948772430419921875">
        <ele>788.79998779296875</ele>
        <time>2020-08-11T05:07:58.000Z</time>
      </trkpt>
      <trkpt lat="42.25240132771432399749755859375" lon="1.8615410663187503814697265625">
        <ele>788.4000244140625</ele>
        <time>2020-08-11T05:08:07.000Z</time>
      </trkpt>
      <trkpt lat="42.2524027526378631591796875" lon="1.86154215596616268157958984375">
        <ele>788.79998779296875</ele>
        <time>2020-08-11T05:08:14.000Z</time>
      </trkpt>
      <trkpt lat="42.2524022497236728668212890625" lon="1.861540563404560089111328125">
        <ele>788.5999755859375</ele>
        <time>2020-08-11T05:08:24.000Z</time>
      </trkpt>
      <trkpt lat="42.25239193998277187347412109375" lon="1.86153612099587917327880859375">
        <ele>788.5999755859375</ele>
        <time>2020-08-11T05:08:32.000Z</time>
      </trkpt>
      <trkpt lat="42.25240476429462432861328125" lon="1.8615457601845264434814453125">
        <ele>788.5999755859375</ele>
        <time>2020-08-11T05:08:34.000Z</time>
      </trkpt>
      <trkpt lat="42.252426557242870330810546875" lon="1.8615652061998844146728515625">
        <ele>788.5999755859375</ele>
        <time>2020-08-11T05:08:37.000Z</time>
      </trkpt>
      <trkpt lat="42.252433598041534423828125" lon="1.8615658767521381378173828125">
        <ele>788.4000244140625</ele>
        <time>2020-08-11T05:08:38.000Z</time>
      </trkpt>
      <trkpt lat="42.252452708780765533447265625" lon="1.86151139438152313232421875">
        <ele>788.5999755859375</ele>
        <time>2020-08-11T05:08:41.000Z</time>
      </trkpt>
      <trkpt lat="42.25248229689896106719970703125" lon="1.86153343878686428070068359375">
        <ele>789</ele>
        <time>2020-08-11T05:08:44.000Z</time>
      </trkpt>
      <trkpt lat="42.25248464383184909820556640625" lon="1.86158205382525920867919921875">
        <ele>789</ele>
        <time>2020-08-11T05:08:46.000Z</time>
      </trkpt>
      <trkpt lat="42.2524803690612316131591796875" lon="1.8616483546793460845947265625">
        <ele>789</ele>
        <time>2020-08-11T05:08:50.000Z</time>
      </trkpt>
      <trkpt lat="42.2525377012789249420166015625" lon="1.861662603914737701416015625">
        <ele>789</ele>
        <time>2020-08-11T05:09:01.000Z</time>
      </trkpt>
      <trkpt lat="42.2525380365550518035888671875" lon="1.86166721396148204803466796875">
        <ele>789</ele>
        <time>2020-08-11T05:09:13.000Z</time>
      </trkpt>
      <trkpt lat="42.252562344074249267578125" lon="1.861585490405559539794921875">
        <ele>789.20001220703125</ele>
        <time>2020-08-11T05:09:21.000Z</time>
      </trkpt>
      <trkpt lat="42.25251096300780773162841796875" lon="1.86153125949203968048095703125">
        <ele>789</ele>
        <time>2020-08-11T05:09:24.000Z</time>
      </trkpt>
      <trkpt lat="42.2524545527994632720947265625" lon="1.861423887312412261962890625">
        <ele>788.5999755859375</ele>
        <time>2020-08-11T05:09:27.000Z</time>
      </trkpt>
      <trkpt lat="42.2524456679821014404296875" lon="1.86138533055782318115234375">
        <ele>788.5999755859375</ele>
        <time>2020-08-11T05:09:28.000Z</time>
      </trkpt>
      <trkpt lat="42.2524525411427021026611328125" lon="1.8611910380423069000244140625">
        <ele>788.4000244140625</ele>
        <time>2020-08-11T05:09:33.000Z</time>
      </trkpt>
      <trkpt lat="42.2524558939039707183837890625" lon="1.86102298088371753692626953125">
        <ele>788.4000244140625</ele>
        <time>2020-08-11T05:09:38.000Z</time>
      </trkpt>
      <trkpt lat="42.25245949812233448028564453125" lon="1.8608557619154453277587890625">
        <ele>788.79998779296875</ele>
        <time>2020-08-11T05:09:43.000Z</time>
      </trkpt>
      <trkpt lat="42.25245865993201732635498046875" lon="1.86071301810443401336669921875">
        <ele>789.20001220703125</ele>
        <time>2020-08-11T05:09:49.000Z</time>
      </trkpt>
      <trkpt lat="42.25247911177575588226318359375" lon="1.8606214039027690887451171875">
        <ele>789.79998779296875</ele>
        <time>2020-08-11T05:09:52.000Z</time>
      </trkpt>
      <trkpt lat="42.2524988092482089996337890625" lon="1.86056532897055149078369140625">
        <ele>790</ele>
        <time>2020-08-11T05:09:54.000Z</time>
      </trkpt>
      <trkpt lat="42.25256980396807193756103515625" lon="1.8604323081672191619873046875">
        <ele>790.79998779296875</ele>
        <time>2020-08-11T05:10:00.000Z</time>
      </trkpt>
      <trkpt lat="42.25261406041681766510009765625" lon="1.860248744487762451171875">
        <ele>791.4000244140625</ele>
        <time>2020-08-11T05:10:06.000Z</time>
      </trkpt>
      <trkpt lat="42.2526389546692371368408203125" lon="1.860171966254711151123046875">
        <ele>791.79998779296875</ele>
        <time>2020-08-11T05:10:09.000Z</time>
      </trkpt>
      <trkpt lat="42.25265161134302616119384765625" lon="1.8600370176136493682861328125">
        <ele>792.4000244140625</ele>
        <time>2020-08-11T05:10:13.000Z</time>
      </trkpt>
      <trkpt lat="42.25264155305922031402587890625" lon="1.85989812947809696197509765625">
        <ele>793</ele>
        <time>2020-08-11T05:10:17.000Z</time>
      </trkpt>
      <trkpt lat="42.2526446543633937835693359375" lon="1.8598328344523906707763671875">
        <ele>793.20001220703125</ele>
        <time>2020-08-11T05:10:19.000Z</time>
      </trkpt>
      <trkpt lat="42.25266921333968639373779296875" lon="1.85961482115089893341064453125">
        <ele>793.5999755859375</ele>
        <time>2020-08-11T05:10:26.000Z</time>
      </trkpt>
      <trkpt lat="42.252709865570068359375" lon="1.8594640307128429412841796875">
        <ele>793.79998779296875</ele>
        <time>2020-08-11T05:10:31.000Z</time>
      </trkpt>
      <trkpt lat="42.25271522998809814453125" lon="1.85943393968045711517333984375">
        <ele>794</ele>
        <time>2020-08-11T05:10:32.000Z</time>
      </trkpt>
      <trkpt lat="42.2527549602091312408447265625" lon="1.85925724916160106658935546875">
        <ele>794</ele>
        <time>2020-08-11T05:10:38.000Z</time>
      </trkpt>
      <trkpt lat="42.25280500017106533050537109375" lon="1.859036386013031005859375">
        <ele>794.20001220703125</ele>
        <time>2020-08-11T05:10:45.000Z</time>
      </trkpt>
      <trkpt lat="42.25290709175169467926025390625" lon="1.85889850370585918426513671875">
        <ele>794.5999755859375</ele>
        <time>2020-08-11T05:10:51.000Z</time>
      </trkpt>
      <trkpt lat="42.2529338300228118896484375" lon="1.85884385369718074798583984375">
        <ele>794.79998779296875</ele>
        <time>2020-08-11T05:10:53.000Z</time>
      </trkpt>
      <trkpt lat="42.25303751416504383087158203125" lon="1.85872516594827175140380859375">
        <ele>795.79998779296875</ele>
        <time>2020-08-11T05:10:59.000Z</time>
      </trkpt>
      <trkpt lat="42.25305008701980113983154296875" lon="1.85871007852256298065185546875">
        <ele>795.79998779296875</ele>
        <time>2020-08-11T05:11:00.000Z</time>
      </trkpt>
      <trkpt lat="42.253098450601100921630859375" lon="1.85865081846714019775390625">
        <ele>796.4000244140625</ele>
        <time>2020-08-11T05:11:04.000Z</time>
      </trkpt>
      <trkpt lat="42.2531398572027683258056640625" lon="1.85859977267682552337646484375">
        <ele>797.20001220703125</ele>
        <time>2020-08-11T05:11:07.000Z</time>
      </trkpt>
      <trkpt lat="42.25315553136169910430908203125" lon="1.85858267359435558319091796875">
        <ele>797.4000244140625</ele>
        <time>2020-08-11T05:11:08.000Z</time>
      </trkpt>
      <trkpt lat="42.25319308228790760040283203125" lon="1.8585202284157276153564453125">
        <ele>797.79998779296875</ele>
        <time>2020-08-11T05:11:11.000Z</time>
      </trkpt>
      <trkpt lat="42.25324085913598537445068359375" lon="1.85846197418868541717529296875">
        <ele>797.79998779296875</ele>
        <time>2020-08-11T05:11:14.000Z</time>
      </trkpt>
      <trkpt lat="42.2533014602959156036376953125" lon="1.85838754288852214813232421875">
        <ele>798</ele>
        <time>2020-08-11T05:11:18.000Z</time>
      </trkpt>
      <trkpt lat="42.253347896039485931396484375" lon="1.85832761228084564208984375">
        <ele>798.4000244140625</ele>
        <time>2020-08-11T05:11:21.000Z</time>
      </trkpt>
      <trkpt lat="42.2533980198204517364501953125" lon="1.858212612569332122802734375">
        <ele>798.79998779296875</ele>
        <time>2020-08-11T05:11:27.000Z</time>
      </trkpt>
      <trkpt lat="42.253435067832469940185546875" lon="1.8580367602407932281494140625">
        <ele>799</ele>
        <time>2020-08-11T05:11:34.000Z</time>
      </trkpt>
      <trkpt lat="42.2534499876201152801513671875" lon="1.85792469419538974761962890625">
        <ele>799.79998779296875</ele>
        <time>2020-08-11T05:11:38.000Z</time>
      </trkpt>
      <trkpt lat="42.253461219370365142822265625" lon="1.85787691734731197357177734375">
        <ele>799.79998779296875</ele>
        <time>2020-08-11T05:11:40.000Z</time>
      </trkpt>
      <trkpt lat="42.25350086577236652374267578125" lon="1.857755295932292938232421875">
        <ele>800</ele>
        <time>2020-08-11T05:11:45.000Z</time>
      </trkpt>
      <trkpt lat="42.25351863540709018707275390625" lon="1.85771095566451549530029296875">
        <ele>800.20001220703125</ele>
        <time>2020-08-11T05:11:47.000Z</time>
      </trkpt>
      <trkpt lat="42.25356205366551876068115234375" lon="1.85752152465283870697021484375">
        <ele>800.5999755859375</ele>
        <time>2020-08-11T05:11:54.000Z</time>
      </trkpt>
      <trkpt lat="42.25362039171159267425537109375" lon="1.85737567953765392303466796875">
        <ele>801.20001220703125</ele>
        <time>2020-08-11T05:12:00.000Z</time>
      </trkpt>
      <trkpt lat="42.25364620797336101531982421875" lon="1.85732941143214702606201171875">
        <ele>801.20001220703125</ele>
        <time>2020-08-11T05:12:02.000Z</time>
      </trkpt>
      <trkpt lat="42.2537644766271114349365234375" lon="1.85709035955369472503662109375">
        <ele>802.20001220703125</ele>
        <time>2020-08-11T05:12:12.000Z</time>
      </trkpt>
      <trkpt lat="42.25383094511926174163818359375" lon="1.8569166027009487152099609375">
        <ele>802.5999755859375</ele>
        <time>2020-08-11T05:12:19.000Z</time>
      </trkpt>
      <trkpt lat="42.25388408638536930084228515625" lon="1.85679196380078792572021484375">
        <ele>803</ele>
        <time>2020-08-11T05:12:24.000Z</time>
      </trkpt>
      <trkpt lat="42.25391074083745479583740234375" lon="1.8567202985286712646484375">
        <ele>803.20001220703125</ele>
        <time>2020-08-11T05:12:27.000Z</time>
      </trkpt>
      <trkpt lat="42.25399263203144073486328125" lon="1.85651251114904880523681640625">
        <ele>803.79998779296875</ele>
        <time>2020-08-11T05:12:35.000Z</time>
      </trkpt>
      <trkpt lat="42.25403931923210620880126953125" lon="1.85641075484454631805419921875">
        <ele>804</ele>
        <time>2020-08-11T05:12:39.000Z</time>
      </trkpt>
      <trkpt lat="42.2541054524481296539306640625" lon="1.856261976063251495361328125">
        <ele>804.79998779296875</ele>
        <time>2020-08-11T05:12:45.000Z</time>
      </trkpt>
      <trkpt lat="42.2541627846658229827880859375" lon="1.85611085034906864166259765625">
        <ele>805</ele>
        <time>2020-08-11T05:12:51.000Z</time>
      </trkpt>
      <trkpt lat="42.254172675311565399169921875" lon="1.8560857884585857391357421875">
        <ele>805.20001220703125</ele>
        <time>2020-08-11T05:12:52.000Z</time>
      </trkpt>
      <trkpt lat="42.25425791926681995391845703125" lon="1.85587783344089984893798828125">
        <ele>806</ele>
        <time>2020-08-11T05:13:00.000Z</time>
      </trkpt>
      <trkpt lat="42.25426755845546722412109375" lon="1.85585034079849720001220703125">
        <ele>806.20001220703125</ele>
        <time>2020-08-11T05:13:01.000Z</time>
      </trkpt>
      <trkpt lat="42.25431642495095729827880859375" lon="1.85571136884391307830810546875">
        <ele>806.20001220703125</ele>
        <time>2020-08-11T05:13:06.000Z</time>
      </trkpt>
      <trkpt lat="42.254344336688518524169921875" lon="1.85563065111637115478515625">
        <ele>806.4000244140625</ele>
        <time>2020-08-11T05:13:09.000Z</time>
      </trkpt>
      <trkpt lat="42.254408039152622222900390625" lon="1.85543895699083805084228515625">
        <ele>806.79998779296875</ele>
        <time>2020-08-11T05:13:16.000Z</time>
      </trkpt>
      <trkpt lat="42.2544511221349239349365234375" lon="1.85527115128934383392333984375">
        <ele>807.20001220703125</ele>
        <time>2020-08-11T05:13:22.000Z</time>
      </trkpt>
      <trkpt lat="42.25448020733892917633056640625" lon="1.85518682934343814849853515625">
        <ele>807.4000244140625</ele>
        <time>2020-08-11T05:13:25.000Z</time>
      </trkpt>
      <trkpt lat="42.25452899001538753509521484375" lon="1.85500745661556720733642578125">
        <ele>807.5999755859375</ele>
        <time>2020-08-11T05:13:31.000Z</time>
      </trkpt>
      <trkpt lat="42.25459001027047634124755859375" lon="1.85476354323327541351318359375">
        <ele>808</ele>
        <time>2020-08-11T05:13:39.000Z</time>
      </trkpt>
      <trkpt lat="42.25463208742439746856689453125" lon="1.8546159379184246063232421875">
        <ele>808.20001220703125</ele>
        <time>2020-08-11T05:13:44.000Z</time>
      </trkpt>
      <trkpt lat="42.2546504437923431396484375" lon="1.85455801896750926971435546875">
        <ele>808.20001220703125</ele>
        <time>2020-08-11T05:13:46.000Z</time>
      </trkpt>
      <trkpt lat="42.254718840122222900390625" lon="1.85436288826167583465576171875">
        <ele>808.79998779296875</ele>
        <time>2020-08-11T05:13:53.000Z</time>
      </trkpt>
      <trkpt lat="42.25475697778165340423583984375" lon="1.854210086166858673095703125">
        <ele>809</ele>
        <time>2020-08-11T05:13:58.000Z</time>
      </trkpt>
      <trkpt lat="42.25484666414558887481689453125" lon="1.8539738841354846954345703125">
        <ele>808.79998779296875</ele>
        <time>2020-08-11T05:14:06.000Z</time>
      </trkpt>
      <trkpt lat="42.254959903657436370849609375" lon="1.85376249253749847412109375">
        <ele>809</ele>
        <time>2020-08-11T05:14:14.000Z</time>
      </trkpt>
      <trkpt lat="42.2550288029015064239501953125" lon="1.85356928966939449310302734375">
        <ele>809.20001220703125</ele>
        <time>2020-08-11T05:14:21.000Z</time>
      </trkpt>
      <trkpt lat="42.25503525696694850921630859375" lon="1.853538863360881805419921875">
        <ele>809.20001220703125</ele>
        <time>2020-08-11T05:14:22.000Z</time>
      </trkpt>
      <trkpt lat="42.255083620548248291015625" lon="1.85339662246406078338623046875">
        <ele>809.4000244140625</ele>
        <time>2020-08-11T05:14:27.000Z</time>
      </trkpt>
      <trkpt lat="42.25513659417629241943359375" lon="1.85322496108710765838623046875">
        <ele>809.5999755859375</ele>
        <time>2020-08-11T05:14:33.000Z</time>
      </trkpt>
      <trkpt lat="42.255197279155254364013671875" lon="1.85294936411082744598388671875">
        <ele>810</ele>
        <time>2020-08-11T05:14:42.000Z</time>
      </trkpt>
      <trkpt lat="42.25523625500500202178955078125" lon="1.8528295867145061492919921875">
        <ele>810.20001220703125</ele>
        <time>2020-08-11T05:14:46.000Z</time>
      </trkpt>
      <trkpt lat="42.25525972433388233184814453125" lon="1.85273881070315837860107421875">
        <ele>810.5999755859375</ele>
        <time>2020-08-11T05:14:49.000Z</time>
      </trkpt>
      <trkpt lat="42.25530649535357952117919921875" lon="1.85261308215558528900146484375">
        <ele>810.79998779296875</ele>
        <time>2020-08-11T05:14:54.000Z</time>
      </trkpt>
      <trkpt lat="42.25536282174289226531982421875" lon="1.8524577654898166656494140625">
        <ele>811.20001220703125</ele>
        <time>2020-08-11T05:15:00.000Z</time>
      </trkpt>
      <trkpt lat="42.25538293831050395965576171875" lon="1.85240688733756542205810546875">
        <ele>811.4000244140625</ele>
        <time>2020-08-11T05:15:02.000Z</time>
      </trkpt>
      <trkpt lat="42.25543255917727947235107421875" lon="1.85232239775359630584716796875">
        <ele>812</ele>
        <time>2020-08-11T05:15:06.000Z</time>
      </trkpt>
      <trkpt lat="42.25552685558795928955078125" lon="1.85220547020435333251953125">
        <ele>812.4000244140625</ele>
        <time>2020-08-11T05:15:12.000Z</time>
      </trkpt>
      <trkpt lat="42.2555565275251865386962890625" lon="1.852169930934906005859375">
        <ele>812.79998779296875</ele>
        <time>2020-08-11T05:15:14.000Z</time>
      </trkpt>
      <trkpt lat="42.255631126463413238525390625" lon="1.8520344793796539306640625">
        <ele>813.4000244140625</ele>
        <time>2020-08-11T05:15:20.000Z</time>
      </trkpt>
      <trkpt lat="42.2556493990123271942138671875" lon="1.8519870378077030181884765625">
        <ele>813.5999755859375</ele>
        <time>2020-08-11T05:15:22.000Z</time>
      </trkpt>
      <trkpt lat="42.2556965053081512451171875" lon="1.85187312774360179901123046875">
        <ele>814.20001220703125</ele>
        <time>2020-08-11T05:15:27.000Z</time>
      </trkpt>
      <trkpt lat="42.2557261772453784942626953125" lon="1.85177573002874851226806640625">
        <ele>814.5999755859375</ele>
        <time>2020-08-11T05:15:31.000Z</time>
      </trkpt>
      <trkpt lat="42.255759537220001220703125" lon="1.85168621130287647247314453125">
        <ele>815</ele>
        <time>2020-08-11T05:15:35.000Z</time>
      </trkpt>
      <trkpt lat="42.25579884834587574005126953125" lon="1.8515417911112308502197265625">
        <ele>815.5999755859375</ele>
        <time>2020-08-11T05:15:41.000Z</time>
      </trkpt>
      <trkpt lat="42.2558136843144893646240234375" lon="1.85147096402943134307861328125">
        <ele>815.79998779296875</ele>
        <time>2020-08-11T05:15:44.000Z</time>
      </trkpt>
      <trkpt lat="42.25582659244537353515625" lon="1.8512839637696743011474609375">
        <ele>816.4000244140625</ele>
        <time>2020-08-11T05:15:51.000Z</time>
      </trkpt>
      <trkpt lat="42.2558270953595638275146484375" lon="1.85122621245682239532470703125">
        <ele>816.5999755859375</ele>
        <time>2020-08-11T05:15:53.000Z</time>
      </trkpt>
      <trkpt lat="42.255838327109813690185546875" lon="1.8511448241770267486572265625">
        <ele>816.79998779296875</ele>
        <time>2020-08-11T05:15:56.000Z</time>
      </trkpt>
      <trkpt lat="42.255847044289112091064453125" lon="1.8509181775152683258056640625">
        <ele>817.4000244140625</ele>
        <time>2020-08-11T05:16:04.000Z</time>
      </trkpt>
      <trkpt lat="42.25585936568677425384521484375" lon="1.85078297741711139678955078125">
        <ele>817.5999755859375</ele>
        <time>2020-08-11T05:16:09.000Z</time>
      </trkpt>
      <trkpt lat="42.25586573593318462371826171875" lon="1.8506972305476665496826171875">
        <ele>818</ele>
        <time>2020-08-11T05:16:12.000Z</time>
      </trkpt>
      <trkpt lat="42.25588166154921054840087890625" lon="1.85050419531762599945068359375">
        <ele>818.4000244140625</ele>
        <time>2020-08-11T05:16:19.000Z</time>
      </trkpt>
      <trkpt lat="42.255885265767574310302734375" lon="1.85044971294701099395751953125">
        <ele>818.20001220703125</ele>
        <time>2020-08-11T05:16:21.000Z</time>
      </trkpt>
      <trkpt lat="42.25588987581431865692138671875" lon="1.85036522336304187774658203125">
        <ele>818.5999755859375</ele>
        <time>2020-08-11T05:16:24.000Z</time>
      </trkpt>
      <trkpt lat="42.25590010173618793487548828125" lon="1.8502801470458507537841796875">
        <ele>818.5999755859375</ele>
        <time>2020-08-11T05:16:27.000Z</time>
      </trkpt>
      <trkpt lat="42.25595726631581783294677734375" lon="1.85009314678609371185302734375">
        <ele>819</ele>
        <time>2020-08-11T05:16:34.000Z</time>
      </trkpt>
      <trkpt lat="42.25602951832115650177001953125" lon="1.8498875387012958526611328125">
        <ele>819.5999755859375</ele>
        <time>2020-08-11T05:16:42.000Z</time>
      </trkpt>
      <trkpt lat="42.25604779087007045745849609375" lon="1.84984135441482067108154296875">
        <ele>819.5999755859375</ele>
        <time>2020-08-11T05:16:44.000Z</time>
      </trkpt>
      <trkpt lat="42.2561093978583812713623046875" lon="1.849667094647884368896484375">
        <ele>820.20001220703125</ele>
        <time>2020-08-11T05:16:51.000Z</time>
      </trkpt>
      <trkpt lat="42.256195731461048126220703125" lon="1.84939987957477569580078125">
        <ele>820.5999755859375</ele>
        <time>2020-08-11T05:17:01.000Z</time>
      </trkpt>
      <trkpt lat="42.256264127790927886962890625" lon="1.84920902363955974578857421875">
        <ele>820.20001220703125</ele>
        <time>2020-08-11T05:17:07.000Z</time>
      </trkpt>
      <trkpt lat="42.25639245472848415374755859375" lon="1.84888581745326519012451171875">
        <ele>819.20001220703125</ele>
        <time>2020-08-11T05:17:14.000Z</time>
      </trkpt>
      <trkpt lat="42.25647610612213611602783203125" lon="1.8486523814499378204345703125">
        <ele>818.5999755859375</ele>
        <time>2020-08-11T05:17:18.000Z</time>
      </trkpt>
      <trkpt lat="42.25653444416821002960205078125" lon="1.8485259823501110076904296875">
        <ele>818.20001220703125</ele>
        <time>2020-08-11T05:17:20.000Z</time>
      </trkpt>
      <trkpt lat="42.25661390461027622222900390625" lon="1.84839271008968353271484375">
        <ele>817.4000244140625</ele>
        <time>2020-08-11T05:17:22.000Z</time>
      </trkpt>
      <trkpt lat="42.2567640244960784912109375" lon="1.84817637316882610321044921875">
        <ele>816.4000244140625</ele>
        <time>2020-08-11T05:17:25.000Z</time>
      </trkpt>
      <trkpt lat="42.256934009492397308349609375" lon="1.84794251807034015655517578125">
        <ele>814.5999755859375</ele>
        <time>2020-08-11T05:17:28.000Z</time>
      </trkpt>
      <trkpt lat="42.25710240192711353302001953125" lon="1.84773464687168598175048828125">
        <ele>813.20001220703125</ele>
        <time>2020-08-11T05:17:31.000Z</time>
      </trkpt>
      <trkpt lat="42.25735000334680080413818359375" lon="1.8474594689905643463134765625">
        <ele>813.79998779296875</ele>
        <time>2020-08-11T05:17:36.000Z</time>
      </trkpt>
      <trkpt lat="42.2574223391711711883544921875" lon="1.84739434160292148590087890625">
        <ele>814.20001220703125</ele>
        <time>2020-08-11T05:17:38.000Z</time>
      </trkpt>
      <trkpt lat="42.25747472606599330902099609375" lon="1.84735042043030261993408203125">
        <ele>814.5999755859375</ele>
        <time>2020-08-11T05:17:40.000Z</time>
      </trkpt>
      <trkpt lat="42.25755393505096435546875" lon="1.84729426167905330657958984375">
        <ele>815.4000244140625</ele>
        <time>2020-08-11T05:17:44.000Z</time>
      </trkpt>
      <trkpt lat="42.257587797939777374267578125" lon="1.84727020561695098876953125">
        <ele>815.5999755859375</ele>
        <time>2020-08-11T05:17:46.000Z</time>
      </trkpt>
      <trkpt lat="42.2576786577701568603515625" lon="1.84723273850977420806884765625">
        <ele>816.5999755859375</ele>
        <time>2020-08-11T05:17:51.000Z</time>
      </trkpt>
      <trkpt lat="42.25769416429102420806884765625" lon="1.84722703881561756134033203125">
        <ele>816.5999755859375</ele>
        <time>2020-08-11T05:17:52.000Z</time>
      </trkpt>
      <trkpt lat="42.25784436799585819244384765625" lon="1.847148500382900238037109375">
        <ele>817.20001220703125</ele>
        <time>2020-08-11T05:18:01.000Z</time>
      </trkpt>
      <trkpt lat="42.25789482705295085906982421875" lon="1.847118325531482696533203125">
        <ele>817.79998779296875</ele>
        <time>2020-08-11T05:18:04.000Z</time>
      </trkpt>
      <trkpt lat="42.25794729776680469512939453125" lon="1.8470933474600315093994140625">
        <ele>818.20001220703125</ele>
        <time>2020-08-11T05:18:07.000Z</time>
      </trkpt>
      <trkpt lat="42.25803111679852008819580078125" lon="1.84704758226871490478515625">
        <ele>818.79998779296875</ele>
        <time>2020-08-11T05:18:12.000Z</time>
      </trkpt>
      <trkpt lat="42.25806598551571369171142578125" lon="1.847029142081737518310546875">
        <ele>818.79998779296875</ele>
        <time>2020-08-11T05:18:14.000Z</time>
      </trkpt>
      <trkpt lat="42.25815005600452423095703125" lon="1.846977509558200836181640625">
        <ele>819.20001220703125</ele>
        <time>2020-08-11T05:18:19.000Z</time>
      </trkpt>
      <trkpt lat="42.25831224583089351654052734375" lon="1.84688371606171131134033203125">
        <ele>819.4000244140625</ele>
        <time>2020-08-11T05:18:27.000Z</time>
      </trkpt>
      <trkpt lat="42.25848264992237091064453125" lon="1.84676058590412139892578125">
        <ele>819.5999755859375</ele>
        <time>2020-08-11T05:18:35.000Z</time>
      </trkpt>
      <trkpt lat="42.25860728882253170013427734375" lon="1.84663108550012111663818359375">
        <ele>819.5999755859375</ele>
        <time>2020-08-11T05:18:42.000Z</time>
      </trkpt>
      <trkpt lat="42.2586214542388916015625" lon="1.8466092087328433990478515625">
        <ele>819.5999755859375</ele>
        <time>2020-08-11T05:18:43.000Z</time>
      </trkpt>
      <trkpt lat="42.25873134098947048187255859375" lon="1.8464474380016326904296875">
        <ele>820</ele>
        <time>2020-08-11T05:18:50.000Z</time>
      </trkpt>
      <trkpt lat="42.2588274814188480377197265625" lon="1.84632196091115474700927734375">
        <ele>820.20001220703125</ele>
        <time>2020-08-11T05:18:56.000Z</time>
      </trkpt>
      <trkpt lat="42.25889897905290126800537109375" lon="1.8462075479328632354736328125">
        <ele>820.20001220703125</ele>
        <time>2020-08-11T05:19:01.000Z</time>
      </trkpt>
      <trkpt lat="42.25898380391299724578857421875" lon="1.84606128372251987457275390625">
        <ele>820.79998779296875</ele>
        <time>2020-08-11T05:19:07.000Z</time>
      </trkpt>
      <trkpt lat="42.25900040008127689361572265625" lon="1.8460372276604175567626953125">
        <ele>820.79998779296875</ele>
        <time>2020-08-11T05:19:08.000Z</time>
      </trkpt>
      <trkpt lat="42.2591082751750946044921875" lon="1.84587285853922367095947265625">
        <ele>821</ele>
        <time>2020-08-11T05:19:15.000Z</time>
      </trkpt>
      <trkpt lat="42.2592385299503803253173828125" lon="1.84569600038230419158935546875">
        <ele>821.79998779296875</ele>
        <time>2020-08-11T05:19:23.000Z</time>
      </trkpt>
      <trkpt lat="42.25930717773735523223876953125" lon="1.845626346766948699951171875">
        <ele>821.79998779296875</ele>
        <time>2020-08-11T05:19:27.000Z</time>
      </trkpt>
      <trkpt lat="42.25935344584286212921142578125" lon="1.84557111002504825592041015625">
        <ele>822</ele>
        <time>2020-08-11T05:19:30.000Z</time>
      </trkpt>
      <trkpt lat="42.25944221019744873046875" lon="1.84547153301537036895751953125">
        <ele>822.79998779296875</ele>
        <time>2020-08-11T05:19:36.000Z</time>
      </trkpt>
      <trkpt lat="42.2594569623470306396484375" lon="1.84545476920902729034423828125">
        <ele>823</ele>
        <time>2020-08-11T05:19:37.000Z</time>
      </trkpt>
      <trkpt lat="42.25955151021480560302734375" lon="1.84536122716963291168212890625">
        <ele>823.79998779296875</ele>
        <time>2020-08-11T05:19:43.000Z</time>
      </trkpt>
      <trkpt lat="42.25956651382148265838623046875" lon="1.8453438766300678253173828125">
        <ele>824</ele>
        <time>2020-08-11T05:19:44.000Z</time>
      </trkpt>
      <trkpt lat="42.2596717067062854766845703125" lon="1.84526299126446247100830078125">
        <ele>825</ele>
        <time>2020-08-11T05:19:50.000Z</time>
      </trkpt>
      <trkpt lat="42.25968838669359683990478515625" lon="1.84524924494326114654541015625">
        <ele>825.20001220703125</ele>
        <time>2020-08-11T05:19:51.000Z</time>
      </trkpt>
      <trkpt lat="42.2598044760525226593017578125" lon="1.8451638333499431610107421875">
        <ele>825.79998779296875</ele>
        <time>2020-08-11T05:19:58.000Z</time>
      </trkpt>
      <trkpt lat="42.259836830198764801025390625" lon="1.84514053165912628173828125">
        <ele>826.20001220703125</ele>
        <time>2020-08-11T05:20:00.000Z</time>
      </trkpt>
      <trkpt lat="42.25992039777338504791259765625" lon="1.84507892467081546783447265625">
        <ele>826.5999755859375</ele>
        <time>2020-08-11T05:20:05.000Z</time>
      </trkpt>
      <trkpt lat="42.2599882073700428009033203125" lon="1.84500549919903278350830078125">
        <ele>827.4000244140625</ele>
        <time>2020-08-11T05:20:10.000Z</time>
      </trkpt>
      <trkpt lat="42.2600183822214603424072265625" lon="1.844970546662807464599609375">
        <ele>827.4000244140625</ele>
        <time>2020-08-11T05:20:12.000Z</time>
      </trkpt>
      <trkpt lat="42.260108403861522674560546875" lon="1.84478639625012874603271484375">
        <ele>828.20001220703125</ele>
        <time>2020-08-11T05:20:20.000Z</time>
      </trkpt>
      <trkpt lat="42.26011988706886768341064453125" lon="1.84476242400705814361572265625">
        <ele>828.4000244140625</ele>
        <time>2020-08-11T05:20:21.000Z</time>
      </trkpt>
      <trkpt lat="42.26020001806318759918212890625" lon="1.8445583246648311614990234375">
        <ele>828.20001220703125</ele>
        <time>2020-08-11T05:20:29.000Z</time>
      </trkpt>
      <trkpt lat="42.2602524049580097198486328125" lon="1.844310052692890167236328125">
        <ele>828.5999755859375</ele>
        <time>2020-08-11T05:20:38.000Z</time>
      </trkpt>
      <trkpt lat="42.26029305718839168548583984375" lon="1.8440842442214488983154296875">
        <ele>828.4000244140625</ele>
        <time>2020-08-11T05:20:45.000Z</time>
      </trkpt>
      <trkpt lat="42.2603419236838817596435546875" lon="1.843933872878551483154296875">
        <ele>828.4000244140625</ele>
        <time>2020-08-11T05:20:50.000Z</time>
      </trkpt>
      <trkpt lat="42.26044510491192340850830078125" lon="1.84375676326453685760498046875">
        <ele>828.4000244140625</ele>
        <time>2020-08-11T05:20:57.000Z</time>
      </trkpt>
      <trkpt lat="42.26056949235498905181884765625" lon="1.84356699697673320770263671875">
        <ele>828.79998779296875</ele>
        <time>2020-08-11T05:21:05.000Z</time>
      </trkpt>
      <trkpt lat="42.2606694884598255157470703125" lon="1.8434043042361736297607421875">
        <ele>829.20001220703125</ele>
        <time>2020-08-11T05:21:12.000Z</time>
      </trkpt>
      <trkpt lat="42.26069890893995761871337890625" lon="1.84335778467357158660888671875">
        <ele>829.4000244140625</ele>
        <time>2020-08-11T05:21:14.000Z</time>
      </trkpt>
      <trkpt lat="42.26077803410589694976806640625" lon="1.8432547710835933685302734375">
        <ele>829.79998779296875</ele>
        <time>2020-08-11T05:21:19.000Z</time>
      </trkpt>
      <trkpt lat="42.2608401440083980560302734375" lon="1.84314689598977565765380859375">
        <ele>830.20001220703125</ele>
        <time>2020-08-11T05:21:24.000Z</time>
      </trkpt>
      <trkpt lat="42.2608632780611515045166015625" lon="1.84310247190296649932861328125">
        <ele>830.5999755859375</ele>
        <time>2020-08-11T05:21:26.000Z</time>
      </trkpt>
      <trkpt lat="42.26096042431890964508056640625" lon="1.8429647572338581085205078125">
        <ele>831.20001220703125</ele>
        <time>2020-08-11T05:21:33.000Z</time>
      </trkpt>
      <trkpt lat="42.26097282953560352325439453125" lon="1.8429458141326904296875">
        <ele>831.4000244140625</ele>
        <time>2020-08-11T05:21:34.000Z</time>
      </trkpt>
      <trkpt lat="42.26101524196565151214599609375" lon="1.842863000929355621337890625">
        <ele>831.79998779296875</ele>
        <time>2020-08-11T05:21:38.000Z</time>
      </trkpt>
      <trkpt lat="42.261054553091526031494140625" lon="1.84277205727994441986083984375">
        <ele>832</ele>
        <time>2020-08-11T05:21:42.000Z</time>
      </trkpt>
      <trkpt lat="42.261086069047451019287109375" lon="1.84270106256008148193359375">
        <ele>832.20001220703125</ele>
        <time>2020-08-11T05:21:45.000Z</time>
      </trkpt>
      <trkpt lat="42.26113711483776569366455078125" lon="1.8425775133073329925537109375">
        <ele>832.79998779296875</ele>
        <time>2020-08-11T05:21:50.000Z</time>
      </trkpt>
      <trkpt lat="42.261177599430084228515625" lon="1.84244893491268157958984375">
        <ele>833.4000244140625</ele>
        <time>2020-08-11T05:21:55.000Z</time>
      </trkpt>
      <trkpt lat="42.2612030804157257080078125" lon="1.8423173390328884124755859375">
        <ele>834</ele>
        <time>2020-08-11T05:22:00.000Z</time>
      </trkpt>
      <trkpt lat="42.26121875457465648651123046875" lon="1.8422080390155315399169921875">
        <ele>834.4000244140625</ele>
        <time>2020-08-11T05:22:04.000Z</time>
      </trkpt>
      <trkpt lat="42.26122026331722736358642578125" lon="1.84206672012805938720703125">
        <ele>834.79998779296875</ele>
        <time>2020-08-11T05:22:09.000Z</time>
      </trkpt>
      <trkpt lat="42.26121523417532444000244140625" lon="1.8418020196259021759033203125">
        <ele>835.20001220703125</ele>
        <time>2020-08-11T05:22:18.000Z</time>
      </trkpt>
      <trkpt lat="42.2612317465245723724365234375" lon="1.84169028885662555694580078125">
        <ele>835.5999755859375</ele>
        <time>2020-08-11T05:22:22.000Z</time>
      </trkpt>
      <trkpt lat="42.261243648827075958251953125" lon="1.8416062183678150177001953125">
        <ele>835.79998779296875</ele>
        <time>2020-08-11T05:22:25.000Z</time>
      </trkpt>
      <trkpt lat="42.2612947784364223480224609375" lon="1.8413564376533031463623046875">
        <ele>836.4000244140625</ele>
        <time>2020-08-11T05:22:34.000Z</time>
      </trkpt>
      <trkpt lat="42.26131397299468517303466796875" lon="1.8412732891738414764404296875">
        <ele>836.5999755859375</ele>
        <time>2020-08-11T05:22:37.000Z</time>
      </trkpt>
      <trkpt lat="42.261352948844432830810546875" lon="1.8411066569387912750244140625">
        <ele>837</ele>
        <time>2020-08-11T05:22:43.000Z</time>
      </trkpt>
      <trkpt lat="42.2614024020731449127197265625" lon="1.84093977324664592742919921875">
        <ele>837.5999755859375</ele>
        <time>2020-08-11T05:22:49.000Z</time>
      </trkpt>
      <trkpt lat="42.26141975261270999908447265625" lon="1.84088629670441150665283203125">
        <ele>837.79998779296875</ele>
        <time>2020-08-11T05:22:51.000Z</time>
      </trkpt>
      <trkpt lat="42.261515893042087554931640625" lon="1.84067138470709323883056640625">
        <ele>838.5999755859375</ele>
        <time>2020-08-11T05:23:00.000Z</time>
      </trkpt>
      <trkpt lat="42.2615257836878299713134765625" lon="1.840654872357845306396484375">
        <ele>838.5999755859375</ele>
        <time>2020-08-11T05:23:01.000Z</time>
      </trkpt>
      <trkpt lat="42.261562161147594451904296875" lon="1.840597204864025115966796875">
        <ele>839</ele>
        <time>2020-08-11T05:23:07.000Z</time>
      </trkpt>
      <trkpt lat="42.26160247810184955596923828125" lon="1.84053928591310977935791015625">
        <ele>839</ele>
        <time>2020-08-11T05:23:13.000Z</time>
      </trkpt>
      <trkpt lat="42.26169819943606853485107421875" lon="1.8403734080493450164794921875">
        <ele>839.5999755859375</ele>
        <time>2020-08-11T05:23:21.000Z</time>
      </trkpt>
      <trkpt lat="42.26171244867146015167236328125" lon="1.84035521931946277618408203125">
        <ele>839.5999755859375</ele>
        <time>2020-08-11T05:23:22.000Z</time>
      </trkpt>
      <trkpt lat="42.26180749945342540740966796875" lon="1.84021172113716602325439453125">
        <ele>840.4000244140625</ele>
        <time>2020-08-11T05:23:29.000Z</time>
      </trkpt>
      <trkpt lat="42.2618647478520870208740234375" lon="1.84012220241129398345947265625">
        <ele>840.79998779296875</ele>
        <time>2020-08-11T05:23:33.000Z</time>
      </trkpt>
      <trkpt lat="42.26193959824740886688232421875" lon="1.84001508168876171112060546875">
        <ele>841.4000244140625</ele>
        <time>2020-08-11T05:23:38.000Z</time>
      </trkpt>
      <trkpt lat="42.26203984580934047698974609375" lon="1.83990125544369220733642578125">
        <ele>841.79998779296875</ele>
        <time>2020-08-11T05:23:44.000Z</time>
      </trkpt>
      <trkpt lat="42.2621091641485691070556640625" lon="1.8398316018283367156982421875">
        <ele>842.20001220703125</ele>
        <time>2020-08-11T05:23:48.000Z</time>
      </trkpt>
      <trkpt lat="42.2622268460690975189208984375" lon="1.83973881416022777557373046875">
        <ele>842.79998779296875</ele>
        <time>2020-08-11T05:23:54.000Z</time>
      </trkpt>
      <trkpt lat="42.26226800121366977691650390625" lon="1.8397068791091442108154296875">
        <ele>843.20001220703125</ele>
        <time>2020-08-11T05:23:56.000Z</time>
      </trkpt>
      <trkpt lat="42.26241066120564937591552734375" lon="1.83959900401532649993896484375">
        <ele>843.79998779296875</ele>
        <time>2020-08-11T05:24:03.000Z</time>
      </trkpt>
      <trkpt lat="42.2625146806240081787109375" lon="1.83951954357326030731201171875">
        <ele>843.79998779296875</ele>
        <time>2020-08-11T05:24:08.000Z</time>
      </trkpt>
      <trkpt lat="42.2625544108450412750244140625" lon="1.8394844233989715576171875">
        <ele>844</ele>
        <time>2020-08-11T05:24:10.000Z</time>
      </trkpt>
      <trkpt lat="42.2627029381692409515380859375" lon="1.83932424522936344146728515625">
        <ele>844.4000244140625</ele>
        <time>2020-08-11T05:24:18.000Z</time>
      </trkpt>
      <trkpt lat="42.262863032519817352294921875" lon="1.83916951529681682586669921875">
        <ele>844.4000244140625</ele>
        <time>2020-08-11T05:24:26.000Z</time>
      </trkpt>
      <trkpt lat="42.2629627771675586700439453125" lon="1.83906541205942630767822265625">
        <ele>844.4000244140625</ele>
        <time>2020-08-11T05:24:31.000Z</time>
      </trkpt>
      <trkpt lat="42.263111136853694915771484375" lon="1.83890297077596187591552734375">
        <ele>844.4000244140625</ele>
        <time>2020-08-11T05:24:38.000Z</time>
      </trkpt>
      <trkpt lat="42.26327466778457164764404296875" lon="1.83868789114058017730712890625">
        <ele>844.79998779296875</ele>
        <time>2020-08-11T05:24:47.000Z</time>
      </trkpt>
      <trkpt lat="42.26328757591545581817626953125" lon="1.83866023086011409759521484375">
        <ele>845</ele>
        <time>2020-08-11T05:24:48.000Z</time>
      </trkpt>
      <trkpt lat="42.2632993943989276885986328125" lon="1.83845537714660167694091796875">
        <ele>844.79998779296875</ele>
        <time>2020-08-11T05:24:54.000Z</time>
      </trkpt>
      <trkpt lat="42.263257987797260284423828125" lon="1.83817156590521335601806640625">
        <ele>845.5999755859375</ele>
        <time>2020-08-11T05:25:02.000Z</time>
      </trkpt>
      <trkpt lat="42.26324088871479034423828125" lon="1.8380814604461193084716796875">
        <ele>845.79998779296875</ele>
        <time>2020-08-11T05:25:05.000Z</time>
      </trkpt>
      <trkpt lat="42.2632165811955928802490234375" lon="1.83792999945580959320068359375">
        <ele>845.79998779296875</ele>
        <time>2020-08-11T05:25:10.000Z</time>
      </trkpt>
      <trkpt lat="42.2631599195301532745361328125" lon="1.83773185126483440399169921875">
        <ele>845.79998779296875</ele>
        <time>2020-08-11T05:25:16.000Z</time>
      </trkpt>
      <trkpt lat="42.2630747593939304351806640625" lon="1.83739104308187961578369140625">
        <ele>845</ele>
        <time>2020-08-11T05:25:25.000Z</time>
      </trkpt>
      <trkpt lat="42.262977026402950286865234375" lon="1.8372402526438236236572265625">
        <ele>844.5999755859375</ele>
        <time>2020-08-11T05:25:29.000Z</time>
      </trkpt>
      <trkpt lat="42.262808382511138916015625" lon="1.83719892986118793487548828125">
        <ele>844.4000244140625</ele>
        <time>2020-08-11T05:25:34.000Z</time>
      </trkpt>
      <trkpt lat="42.2626694105565547943115234375" lon="1.83722943998873233795166015625">
        <ele>844.4000244140625</ele>
        <time>2020-08-11T05:25:40.000Z</time>
      </trkpt>
      <trkpt lat="42.2626449353992938995361328125" lon="1.83725223876535892486572265625">
        <ele>844.79998779296875</ele>
        <time>2020-08-11T05:25:42.000Z</time>
      </trkpt>
      <trkpt lat="42.26260478608310222625732421875" lon="1.837294064462184906005859375">
        <ele>845</ele>
        <time>2020-08-11T05:25:45.000Z</time>
      </trkpt>
      <trkpt lat="42.26255902089178562164306640625" lon="1.8373914621770381927490234375">
        <ele>845.4000244140625</ele>
        <time>2020-08-11T05:25:50.000Z</time>
      </trkpt>
      <trkpt lat="42.26254527457058429718017578125" lon="1.83741551823914051055908203125">
        <ele>845.5999755859375</ele>
        <time>2020-08-11T05:25:51.000Z</time>
      </trkpt>
      <trkpt lat="42.2625249065458774566650390625" lon="1.8374907039105892181396484375">
        <ele>846.4000244140625</ele>
        <time>2020-08-11T05:25:54.000Z</time>
      </trkpt>
      <trkpt lat="42.26251996122300624847412109375" lon="1.8375141732394695281982421875">
        <ele>846.5999755859375</ele>
        <time>2020-08-11T05:25:55.000Z</time>
      </trkpt>
      <trkpt lat="42.2625141777098178863525390625" lon="1.83753487654030323028564453125">
        <ele>846.5999755859375</ele>
        <time>2020-08-11T05:25:56.000Z</time>
      </trkpt>
      <trkpt lat="42.26248727180063724517822265625" lon="1.83762875385582447052001953125">
        <ele>847.79998779296875</ele>
        <time>2020-08-11T05:26:01.000Z</time>
      </trkpt>
      <trkpt lat="42.262482158839702606201171875" lon="1.83766479603946208953857421875">
        <ele>848.20001220703125</ele>
        <time>2020-08-11T05:26:03.000Z</time>
      </trkpt>
      <trkpt lat="42.26248224265873432159423828125" lon="1.8376861698925495147705078125">
        <ele>848.4000244140625</ele>
        <time>2020-08-11T05:26:04.000Z</time>
      </trkpt>
      <trkpt lat="42.26247805170714855194091796875" lon="1.8377411551773548126220703125">
        <ele>848.79998779296875</ele>
        <time>2020-08-11T05:26:07.000Z</time>
      </trkpt>
      <trkpt lat="42.26247168146073818206787109375" lon="1.83775967918336391448974609375">
        <ele>849</ele>
        <time>2020-08-11T05:26:08.000Z</time>
      </trkpt>
      <trkpt lat="42.26246899925172328948974609375" lon="1.83782053180038928985595703125">
        <ele>849.20001220703125</ele>
        <time>2020-08-11T05:26:11.000Z</time>
      </trkpt>
      <trkpt lat="42.2624638862907886505126953125" lon="1.837904937565326690673828125">
        <ele>849.79998779296875</ele>
        <time>2020-08-11T05:26:15.000Z</time>
      </trkpt>
      <trkpt lat="42.26246614940464496612548828125" lon="1.83792748488485813140869140625">
        <ele>850</ele>
        <time>2020-08-11T05:26:16.000Z</time>
      </trkpt>
      <trkpt lat="42.26247847080230712890625" lon="1.83804751373827457427978515625">
        <ele>851</ele>
        <time>2020-08-11T05:26:22.000Z</time>
      </trkpt>
      <trkpt lat="42.26247888989746570587158203125" lon="1.838067881762981414794921875">
        <ele>851.20001220703125</ele>
        <time>2020-08-11T05:26:23.000Z</time>
      </trkpt>
      <trkpt lat="42.26247721351683139801025390625" lon="1.8381471745669841766357421875">
        <ele>851.79998779296875</ele>
        <time>2020-08-11T05:26:27.000Z</time>
      </trkpt>
      <trkpt lat="42.26246212609112262725830078125" lon="1.83818313293159008026123046875">
        <ele>852.20001220703125</ele>
        <time>2020-08-11T05:26:29.000Z</time>
      </trkpt>
      <trkpt lat="42.262453325092792510986328125" lon="1.83822068385779857635498046875">
        <ele>852.4000244140625</ele>
        <time>2020-08-11T05:26:31.000Z</time>
      </trkpt>
      <trkpt lat="42.2624343819916248321533203125" lon="1.83829746209084987640380859375">
        <ele>853.4000244140625</ele>
        <time>2020-08-11T05:26:35.000Z</time>
      </trkpt>
      <trkpt lat="42.2624263353645801544189453125" lon="1.83831372298300266265869140625">
        <ele>853.5999755859375</ele>
        <time>2020-08-11T05:26:36.000Z</time>
      </trkpt>
      <trkpt lat="42.26236137561500072479248046875" lon="1.83839301578700542449951171875">
        <ele>854.4000244140625</ele>
        <time>2020-08-11T05:26:42.000Z</time>
      </trkpt>
      <trkpt lat="42.2622674144804477691650390625" lon="1.8384294770658016204833984375">
        <ele>855.4000244140625</ele>
        <time>2020-08-11T05:26:49.000Z</time>
      </trkpt>
      <trkpt lat="42.26225207559764385223388671875" lon="1.8384314887225627899169921875">
        <ele>855.4000244140625</ele>
        <time>2020-08-11T05:26:50.000Z</time>
      </trkpt>
      <trkpt lat="42.262136824429035186767578125" lon="1.83846023865044116973876953125">
        <ele>856.4000244140625</ele>
        <time>2020-08-11T05:26:58.000Z</time>
      </trkpt>
      <trkpt lat="42.262107320129871368408203125" lon="1.838454790413379669189453125">
        <ele>856.5999755859375</ele>
        <time>2020-08-11T05:27:00.000Z</time>
      </trkpt>
      <trkpt lat="42.2620333917438983917236328125" lon="1.838458478450775146484375">
        <ele>857.4000244140625</ele>
        <time>2020-08-11T05:27:05.000Z</time>
      </trkpt>
      <trkpt lat="42.26197429932653903961181640625" lon="1.83845914900302886962890625">
        <ele>857.79998779296875</ele>
        <time>2020-08-11T05:27:09.000Z</time>
      </trkpt>
      <trkpt lat="42.26191562600433826446533203125" lon="1.83846644125878810882568359375">
        <ele>858.20001220703125</ele>
        <time>2020-08-11T05:27:13.000Z</time>
      </trkpt>
      <trkpt lat="42.26185762323439121246337890625" lon="1.83845588006079196929931640625">
        <ele>859</ele>
        <time>2020-08-11T05:27:17.000Z</time>
      </trkpt>
      <trkpt lat="42.26181529462337493896484375" lon="1.83845437131822109222412109375">
        <ele>859.4000244140625</ele>
        <time>2020-08-11T05:27:20.000Z</time>
      </trkpt>
      <trkpt lat="42.26174295879900455474853515625" lon="1.8384274654090404510498046875">
        <ele>860</ele>
        <time>2020-08-11T05:27:25.000Z</time>
      </trkpt>
      <trkpt lat="42.26171311922371387481689453125" lon="1.8384251184761524200439453125">
        <ele>860.20001220703125</ele>
        <time>2020-08-11T05:27:27.000Z</time>
      </trkpt>
      <trkpt lat="42.26159627549350261688232421875" lon="1.8383885733783245086669921875">
        <ele>861</ele>
        <time>2020-08-11T05:27:35.000Z</time>
      </trkpt>
      <trkpt lat="42.2615826129913330078125" lon="1.8383882381021976470947265625">
        <ele>861.20001220703125</ele>
        <time>2020-08-11T05:27:36.000Z</time>
      </trkpt>
      <trkpt lat="42.261483706533908843994140625" lon="1.83836133219301700592041015625">
        <ele>862.20001220703125</ele>
        <time>2020-08-11T05:27:43.000Z</time>
      </trkpt>
      <trkpt lat="42.261470295488834381103515625" lon="1.83835730887949466705322265625">
        <ele>862.4000244140625</ele>
        <time>2020-08-11T05:27:44.000Z</time>
      </trkpt>
      <trkpt lat="42.26135571487247943878173828125" lon="1.838317327201366424560546875">
        <ele>863.20001220703125</ele>
        <time>2020-08-11T05:27:52.000Z</time>
      </trkpt>
      <trkpt lat="42.26134481839835643768310546875" lon="1.83830902911722660064697265625">
        <ele>863.4000244140625</ele>
        <time>2020-08-11T05:27:53.000Z</time>
      </trkpt>
      <trkpt lat="42.261307351291179656982421875" lon="1.83825756423175334930419921875">
        <ele>864</ele>
        <time>2020-08-11T05:27:57.000Z</time>
      </trkpt>
      <trkpt lat="42.26130156777799129486083984375" lon="1.8382407166063785552978515625">
        <ele>864.20001220703125</ele>
        <time>2020-08-11T05:27:58.000Z</time>
      </trkpt>
      <trkpt lat="42.2612961195409297943115234375" lon="1.83822202496230602264404296875">
        <ele>864.4000244140625</ele>
        <time>2020-08-11T05:27:59.000Z</time>
      </trkpt>
      <trkpt lat="42.26131506264209747314453125" lon="1.83812764473259449005126953125">
        <ele>865</ele>
        <time>2020-08-11T05:28:04.000Z</time>
      </trkpt>
      <trkpt lat="42.2613532841205596923828125" lon="1.83808875270187854766845703125">
        <ele>865.5999755859375</ele>
        <time>2020-08-11T05:28:07.000Z</time>
      </trkpt>
      <trkpt lat="42.26141388528048992156982421875" lon="1.83806126005947589874267578125">
        <ele>866</ele>
        <time>2020-08-11T05:28:11.000Z</time>
      </trkpt>
      <trkpt lat="42.26146970875561237335205078125" lon="1.83805639855563640594482421875">
        <ele>866.79998779296875</ele>
        <time>2020-08-11T05:28:15.000Z</time>
      </trkpt>
      <trkpt lat="42.26155185140669345855712890625" lon="1.83803728781640529632568359375">
        <ele>867.79998779296875</ele>
        <time>2020-08-11T05:28:21.000Z</time>
      </trkpt>
      <trkpt lat="42.26156610064208507537841796875" lon="1.8380375392735004425048828125">
        <ele>868</ele>
        <time>2020-08-11T05:28:22.000Z</time>
      </trkpt>
      <trkpt lat="42.2616602294147014617919921875" lon="1.83803410269320011138916015625">
        <ele>868.79998779296875</ele>
        <time>2020-08-11T05:28:29.000Z</time>
      </trkpt>
      <trkpt lat="42.2616729699075222015380859375" lon="1.8380345217883586883544921875">
        <ele>869</ele>
        <time>2020-08-11T05:28:30.000Z</time>
      </trkpt>
      <trkpt lat="42.26177464239299297332763671875" lon="1.83803209103643894195556640625">
        <ele>870</ele>
        <time>2020-08-11T05:28:37.000Z</time>
      </trkpt>
      <trkpt lat="42.26178855635225772857666015625" lon="1.83802722953259944915771484375">
        <ele>870.20001220703125</ele>
        <time>2020-08-11T05:28:38.000Z</time>
      </trkpt>
      <trkpt lat="42.26186223328113555908203125" lon="1.83800359256565570831298828125">
        <ele>870.79998779296875</ele>
        <time>2020-08-11T05:28:43.000Z</time>
      </trkpt>
      <trkpt lat="42.26187564432621002197265625" lon="1.8379986472427845001220703125">
        <ele>871</ele>
        <time>2020-08-11T05:28:44.000Z</time>
      </trkpt>
      <trkpt lat="42.26188863627612590789794921875" lon="1.8379919417202472686767578125">
        <ele>871</ele>
        <time>2020-08-11T05:28:45.000Z</time>
      </trkpt>
      <trkpt lat="42.2619703598320484161376953125" lon="1.83794173412024974822998046875">
        <ele>871.79998779296875</ele>
        <time>2020-08-11T05:28:51.000Z</time>
      </trkpt>
      <trkpt lat="42.26199575699865818023681640625" lon="1.83792111463844776153564453125">
        <ele>872.4000244140625</ele>
        <time>2020-08-11T05:28:53.000Z</time>
      </trkpt>
      <trkpt lat="42.262025512754917144775390625" lon="1.8378563225269317626953125">
        <ele>873</ele>
        <time>2020-08-11T05:28:57.000Z</time>
      </trkpt>
      <trkpt lat="42.2620372474193572998046875" lon="1.83776202611625194549560546875">
        <ele>873.5999755859375</ele>
        <time>2020-08-11T05:29:02.000Z</time>
      </trkpt>
      <trkpt lat="42.26204051636159420013427734375" lon="1.83772397227585315704345703125">
        <ele>873.79998779296875</ele>
        <time>2020-08-11T05:29:04.000Z</time>
      </trkpt>
      <trkpt lat="42.2620265185832977294921875" lon="1.83761383406817913055419921875">
        <ele>874.5999755859375</ele>
        <time>2020-08-11T05:29:10.000Z</time>
      </trkpt>
      <trkpt lat="42.26202693767845630645751953125" lon="1.837573349475860595703125">
        <ele>874.79998779296875</ele>
        <time>2020-08-11T05:29:12.000Z</time>
      </trkpt>
      <trkpt lat="42.2620307095348834991455078125" lon="1.837514676153659820556640625">
        <ele>875.20001220703125</ele>
        <time>2020-08-11T05:29:15.000Z</time>
      </trkpt>
      <trkpt lat="42.26202987134456634521484375" lon="1.83745642192661762237548828125">
        <ele>875.5999755859375</ele>
        <time>2020-08-11T05:29:18.000Z</time>
      </trkpt>
      <trkpt lat="42.2620246745645999908447265625" lon="1.8374378979206085205078125">
        <ele>875.79998779296875</ele>
        <time>2020-08-11T05:29:19.000Z</time>
      </trkpt>
      <trkpt lat="42.26201939396560192108154296875" lon="1.83734343387186527252197265625">
        <ele>876.5999755859375</ele>
        <time>2020-08-11T05:29:24.000Z</time>
      </trkpt>
      <trkpt lat="42.2620203159749507904052734375" lon="1.837324239313602447509765625">
        <ele>876.79998779296875</ele>
        <time>2020-08-11T05:29:25.000Z</time>
      </trkpt>
      <trkpt lat="42.26201889105141162872314453125" lon="1.8371884524822235107421875">
        <ele>877.79998779296875</ele>
        <time>2020-08-11T05:29:32.000Z</time>
      </trkpt>
      <trkpt lat="42.2620115987956523895263671875" lon="1.83709868229925632476806640625">
        <ele>878.20001220703125</ele>
        <time>2020-08-11T05:29:37.000Z</time>
      </trkpt>
      <trkpt lat="42.26200682111084461212158203125" lon="1.8370823375880718231201171875">
        <ele>878.4000244140625</ele>
        <time>2020-08-11T05:29:38.000Z</time>
      </trkpt>
      <trkpt lat="42.2620028816163539886474609375" lon="1.83706431649625301361083984375">
        <ele>878.79998779296875</ele>
        <time>2020-08-11T05:29:39.000Z</time>
      </trkpt>
      <trkpt lat="42.2620055638253688812255859375" lon="1.8369723670184612274169921875">
        <ele>879.4000244140625</ele>
        <time>2020-08-11T05:29:44.000Z</time>
      </trkpt>
      <trkpt lat="42.26201185025274753570556640625" lon="1.8368942476809024810791015625">
        <ele>880</ele>
        <time>2020-08-11T05:29:48.000Z</time>
      </trkpt>
      <trkpt lat="42.26200346834957599639892578125" lon="1.83682166039943695068359375">
        <ele>880.5999755859375</ele>
        <time>2020-08-11T05:29:52.000Z</time>
      </trkpt>
      <trkpt lat="42.26199768483638763427734375" lon="1.83676592074334621429443359375">
        <ele>881</ele>
        <time>2020-08-11T05:29:55.000Z</time>
      </trkpt>
      <trkpt lat="42.26199827156960964202880859375" lon="1.83668780140578746795654296875">
        <ele>881.4000244140625</ele>
        <time>2020-08-11T05:29:59.000Z</time>
      </trkpt>
      <trkpt lat="42.2620032168924808502197265625" lon="1.83662795461714267730712890625">
        <ele>882</ele>
        <time>2020-08-11T05:30:02.000Z</time>
      </trkpt>
      <trkpt lat="42.26199173368513584136962890625" lon="1.8365546129643917083740234375">
        <ele>882.4000244140625</ele>
        <time>2020-08-11T05:30:06.000Z</time>
      </trkpt>
      <trkpt lat="42.2619874589145183563232421875" lon="1.83650088496506214141845703125">
        <ele>883</ele>
        <time>2020-08-11T05:30:09.000Z</time>
      </trkpt>
      <trkpt lat="42.2619888000190258026123046875" lon="1.83644204400479793548583984375">
        <ele>883.4000244140625</ele>
        <time>2020-08-11T05:30:12.000Z</time>
      </trkpt>
      <trkpt lat="42.261990644037723541259765625" lon="1.83638789691030979156494140625">
        <ele>883.79998779296875</ele>
        <time>2020-08-11T05:30:15.000Z</time>
      </trkpt>
      <trkpt lat="42.26198955439031124114990234375" lon="1.83634799905121326446533203125">
        <ele>884</ele>
        <time>2020-08-11T05:30:17.000Z</time>
      </trkpt>
      <trkpt lat="42.26199139840900897979736328125" lon="1.83632947504520416259765625">
        <ele>884</ele>
        <time>2020-08-11T05:30:18.000Z</time>
      </trkpt>
      <trkpt lat="42.26197698153555393218994140625" lon="1.836232244968414306640625">
        <ele>884.79998779296875</ele>
        <time>2020-08-11T05:30:23.000Z</time>
      </trkpt>
      <trkpt lat="42.2619767300784587860107421875" lon="1.8362143076956272125244140625">
        <ele>885</ele>
        <time>2020-08-11T05:30:24.000Z</time>
      </trkpt>
      <trkpt lat="42.26197413168847560882568359375" lon="1.83617717586457729339599609375">
        <ele>885.20001220703125</ele>
        <time>2020-08-11T05:30:26.000Z</time>
      </trkpt>
      <trkpt lat="42.26196910254657268524169921875" lon="1.83611682616174221038818359375">
        <ele>885.4000244140625</ele>
        <time>2020-08-11T05:30:29.000Z</time>
      </trkpt>
      <trkpt lat="42.2619633190333843231201171875" lon="1.83607944287359714508056640625">
        <ele>885.79998779296875</ele>
        <time>2020-08-11T05:30:31.000Z</time>
      </trkpt>
      <trkpt lat="42.2619559429585933685302734375" lon="1.8360218591988086700439453125">
        <ele>886</ele>
        <time>2020-08-11T05:30:34.000Z</time>
      </trkpt>
      <trkpt lat="42.26195854134857654571533203125" lon="1.83600283227860927581787109375">
        <ele>886.20001220703125</ele>
        <time>2020-08-11T05:30:35.000Z</time>
      </trkpt>
      <trkpt lat="42.26196893490850925445556640625" lon="1.83595388196408748626708984375">
        <ele>886.5999755859375</ele>
        <time>2020-08-11T05:30:38.000Z</time>
      </trkpt>
      <trkpt lat="42.2619780711829662322998046875" lon="1.83584491722285747528076171875">
        <ele>887.20001220703125</ele>
        <time>2020-08-11T05:30:44.000Z</time>
      </trkpt>
      <trkpt lat="42.26197748444974422454833984375" lon="1.8358284048736095428466796875">
        <ele>887.4000244140625</ele>
        <time>2020-08-11T05:30:45.000Z</time>
      </trkpt>
      <trkpt lat="42.2619701921939849853515625" lon="1.83569421060383319854736328125">
        <ele>888.20001220703125</ele>
        <time>2020-08-11T05:30:52.000Z</time>
      </trkpt>
      <trkpt lat="42.2619670070707798004150390625" lon="1.83567442931234836578369140625">
        <ele>888.4000244140625</ele>
        <time>2020-08-11T05:30:53.000Z</time>
      </trkpt>
      <trkpt lat="42.26195954717695713043212890625" lon="1.83558491058647632598876953125">
        <ele>889.20001220703125</ele>
        <time>2020-08-11T05:30:58.000Z</time>
      </trkpt>
      <trkpt lat="42.26196055300533771514892578125" lon="1.8355672247707843780517578125">
        <ele>889.20001220703125</ele>
        <time>2020-08-11T05:30:59.000Z</time>
      </trkpt>
      <trkpt lat="42.26196608506143093109130859375" lon="1.835513077676296234130859375">
        <ele>889.5999755859375</ele>
        <time>2020-08-11T05:31:02.000Z</time>
      </trkpt>
      <trkpt lat="42.26196357049047946929931640625" lon="1.83543898165225982666015625">
        <ele>890.20001220703125</ele>
        <time>2020-08-11T05:31:06.000Z</time>
      </trkpt>
      <trkpt lat="42.2619472257792949676513671875" lon="1.83536597527563571929931640625">
        <ele>890.5999755859375</ele>
        <time>2020-08-11T05:31:10.000Z</time>
      </trkpt>
      <trkpt lat="42.26193892769515514373779296875" lon="1.83533303439617156982421875">
        <ele>891</ele>
        <time>2020-08-11T05:31:12.000Z</time>
      </trkpt>
      <trkpt lat="42.26193289272487163543701171875" lon="1.83531635440886020660400390625">
        <ele>891.20001220703125</ele>
        <time>2020-08-11T05:31:13.000Z</time>
      </trkpt>
      <trkpt lat="42.2619136981666088104248046875" lon="1.83526053093373775482177734375">
        <ele>891.4000244140625</ele>
        <time>2020-08-11T05:31:16.000Z</time>
      </trkpt>
      <trkpt lat="42.261903472244739532470703125" lon="1.83522733859717845916748046875">
        <ele>891.5999755859375</ele>
        <time>2020-08-11T05:31:18.000Z</time>
      </trkpt>
      <trkpt lat="42.261896096169948577880859375" lon="1.8351917155086994171142578125">
        <ele>892</ele>
        <time>2020-08-11T05:31:20.000Z</time>
      </trkpt>
      <trkpt lat="42.2618664242327213287353515625" lon="1.8351016938686370849609375">
        <ele>892.5999755859375</ele>
        <time>2020-08-11T05:31:25.000Z</time>
      </trkpt>
      <trkpt lat="42.2618446312844753265380859375" lon="1.83497554622590541839599609375">
        <ele>893.20001220703125</ele>
        <time>2020-08-11T05:31:32.000Z</time>
      </trkpt>
      <trkpt lat="42.26182929240167140960693359375" lon="1.8348897993564605712890625">
        <ele>893.79998779296875</ele>
        <time>2020-08-11T05:31:36.000Z</time>
      </trkpt>
      <trkpt lat="42.26182912476360797882080078125" lon="1.83486859314143657684326171875">
        <ele>894</ele>
        <time>2020-08-11T05:31:37.000Z</time>
      </trkpt>
      <trkpt lat="42.26182778365910053253173828125" lon="1.83485015295445919036865234375">
        <ele>894</ele>
        <time>2020-08-11T05:31:38.000Z</time>
      </trkpt>
      <trkpt lat="42.26183130405843257904052734375" lon="1.83474420569837093353271484375">
        <ele>894.79998779296875</ele>
        <time>2020-08-11T05:31:43.000Z</time>
      </trkpt>
      <trkpt lat="42.26183985359966754913330078125" lon="1.8347047269344329833984375">
        <ele>895.4000244140625</ele>
        <time>2020-08-11T05:31:45.000Z</time>
      </trkpt>
      <trkpt lat="42.26184521801769733428955078125" lon="1.83468796312808990478515625">
        <ele>895.5999755859375</ele>
        <time>2020-08-11T05:31:46.000Z</time>
      </trkpt>
      <trkpt lat="42.2618540190160274505615234375" lon="1.8346537649631500244140625">
        <ele>895.79998779296875</ele>
        <time>2020-08-11T05:31:48.000Z</time>
      </trkpt>
      <trkpt lat="42.26185712032020092010498046875" lon="1.83463406749069690704345703125">
        <ele>896</ele>
        <time>2020-08-11T05:31:49.000Z</time>
      </trkpt>
      <trkpt lat="42.261868603527545928955078125" lon="1.834595762193202972412109375">
        <ele>896.20001220703125</ele>
        <time>2020-08-11T05:31:51.000Z</time>
      </trkpt>
      <trkpt lat="42.26190120913088321685791015625" lon="1.83449509553611278533935546875">
        <ele>898.5999755859375</ele>
        <time>2020-08-11T05:31:56.000Z</time>
      </trkpt>
      <trkpt lat="42.26190824992954730987548828125" lon="1.83447363786399364471435546875">
        <ele>897.20001220703125</ele>
        <time>2020-08-11T05:31:57.000Z</time>
      </trkpt>
      <trkpt lat="42.2619515843689441680908203125" lon="1.83438562788069248199462890625">
        <ele>898.20001220703125</ele>
        <time>2020-08-11T05:32:02.000Z</time>
      </trkpt>
      <trkpt lat="42.261986620724201202392578125" lon="1.8343173153698444366455078125">
        <ele>898.79998779296875</ele>
        <time>2020-08-11T05:32:06.000Z</time>
      </trkpt>
      <trkpt lat="42.26200631819665431976318359375" lon="1.83425704948604106903076171875">
        <ele>899.20001220703125</ele>
        <time>2020-08-11T05:32:09.000Z</time>
      </trkpt>
      <trkpt lat="42.26203883998095989227294921875" lon="1.834180690348148345947265625">
        <ele>900</ele>
        <time>2020-08-11T05:32:13.000Z</time>
      </trkpt>
      <trkpt lat="42.26204789243638515472412109375" lon="1.8341443128883838653564453125">
        <ele>900.4000244140625</ele>
        <time>2020-08-11T05:32:15.000Z</time>
      </trkpt>
      <trkpt lat="42.262061052024364471435546875" lon="1.83409410528838634490966796875">
        <ele>900.5999755859375</ele>
        <time>2020-08-11T05:32:18.000Z</time>
      </trkpt>
      <trkpt lat="42.262069098651409149169921875" lon="1.83407532982528209686279296875">
        <ele>900.79998779296875</ele>
        <time>2020-08-11T05:32:19.000Z</time>
      </trkpt>
      <trkpt lat="42.26208393462002277374267578125" lon="1.834003664553165435791015625">
        <ele>901.4000244140625</ele>
        <time>2020-08-11T05:32:23.000Z</time>
      </trkpt>
      <trkpt lat="42.26209231652319431304931640625" lon="1.83394993655383586883544921875">
        <ele>901.79998779296875</ele>
        <time>2020-08-11T05:32:26.000Z</time>
      </trkpt>
      <trkpt lat="42.2621118463575839996337890625" lon="1.83386242948472499847412109375">
        <ele>902.4000244140625</ele>
        <time>2020-08-11T05:32:31.000Z</time>
      </trkpt>
      <trkpt lat="42.26211369037628173828125" lon="1.8338425643742084503173828125">
        <ele>902.5999755859375</ele>
        <time>2020-08-11T05:32:32.000Z</time>
      </trkpt>
      <trkpt lat="42.26211729459464550018310546875" lon="1.833821944892406463623046875">
        <ele>902.5999755859375</ele>
        <time>2020-08-11T05:32:33.000Z</time>
      </trkpt>
      <trkpt lat="42.2621242515742778778076171875" lon="1.83377626352012157440185546875">
        <ele>903</ele>
        <time>2020-08-11T05:32:35.000Z</time>
      </trkpt>
      <trkpt lat="42.26214009337127208709716796875" lon="1.83368481695652008056640625">
        <ele>903.5999755859375</ele>
        <time>2020-08-11T05:32:39.000Z</time>
      </trkpt>
      <trkpt lat="42.2621406801044940948486328125" lon="1.833663694560527801513671875">
        <ele>903.5999755859375</ele>
        <time>2020-08-11T05:32:40.000Z</time>
      </trkpt>
      <trkpt lat="42.26214042864739894866943359375" lon="1.833641566336154937744140625">
        <ele>903.5999755859375</ele>
        <time>2020-08-11T05:32:41.000Z</time>
      </trkpt>
      <trkpt lat="42.26215031929314136505126953125" lon="1.83353436179459095001220703125">
        <ele>904.4000244140625</ele>
        <time>2020-08-11T05:32:46.000Z</time>
      </trkpt>
      <trkpt lat="42.26215568371117115020751953125" lon="1.833514161407947540283203125">
        <ele>904.5999755859375</ele>
        <time>2020-08-11T05:32:47.000Z</time>
      </trkpt>
      <trkpt lat="42.26216943003237247467041015625" lon="1.8333631195127964019775390625">
        <ele>905.4000244140625</ele>
        <time>2020-08-11T05:32:54.000Z</time>
      </trkpt>
      <trkpt lat="42.26216943003237247467041015625" lon="1.8333409912884235382080078125">
        <ele>905.5999755859375</ele>
        <time>2020-08-11T05:32:55.000Z</time>
      </trkpt>
      <trkpt lat="42.2621909715235233306884765625" lon="1.8332437612116336822509765625">
        <ele>906.4000244140625</ele>
        <time>2020-08-11T05:33:00.000Z</time>
      </trkpt>
      <trkpt lat="42.262187786400318145751953125" lon="1.8331812322139739990234375">
        <ele>906.5999755859375</ele>
        <time>2020-08-11T05:33:03.000Z</time>
      </trkpt>
      <trkpt lat="42.2621909715235233306884765625" lon="1.83314108289778232574462890625">
        <ele>907.20001220703125</ele>
        <time>2020-08-11T05:33:05.000Z</time>
      </trkpt>
      <trkpt lat="42.262203209102153778076171875" lon="1.83302641846239566802978515625">
        <ele>907.5999755859375</ele>
        <time>2020-08-11T05:33:10.000Z</time>
      </trkpt>
      <trkpt lat="42.2622115910053253173828125" lon="1.83300714008510112762451171875">
        <ele>907.79998779296875</ele>
        <time>2020-08-11T05:33:11.000Z</time>
      </trkpt>
      <trkpt lat="42.2622201405465602874755859375" lon="1.83298601768910884857177734375">
        <ele>908</ele>
        <time>2020-08-11T05:33:12.000Z</time>
      </trkpt>
      <trkpt lat="42.2622518241405487060546875" lon="1.83290253393352031707763671875">
        <ele>908.79998779296875</ele>
        <time>2020-08-11T05:33:16.000Z</time>
      </trkpt>
      <trkpt lat="42.26228694431483745574951171875" lon="1.83279625140130519866943359375">
        <ele>909.5999755859375</ele>
        <time>2020-08-11T05:33:21.000Z</time>
      </trkpt>
      <trkpt lat="42.2622959129512310028076171875" lon="1.83277881704270839691162109375">
        <ele>909.79998779296875</ele>
        <time>2020-08-11T05:33:22.000Z</time>
      </trkpt>
      <trkpt lat="42.26235701702535152435302734375" lon="1.83270723558962345123291015625">
        <ele>910.5999755859375</ele>
        <time>2020-08-11T05:33:27.000Z</time>
      </trkpt>
      <trkpt lat="42.26238953880965709686279296875" lon="1.8326823413372039794921875">
        <ele>910.79998779296875</ele>
        <time>2020-08-11T05:33:29.000Z</time>
      </trkpt>
      <trkpt lat="42.2624581865966320037841796875" lon="1.8326650746166706085205078125">
        <ele>911.4000244140625</ele>
        <time>2020-08-11T05:33:33.000Z</time>
      </trkpt>
      <trkpt lat="42.2624759562313556671142578125" lon="1.83267295360565185546875">
        <ele>911.4000244140625</ele>
        <time>2020-08-11T05:33:34.000Z</time>
      </trkpt>
      <trkpt lat="42.26250017993152141571044921875" lon="1.83268711902201175689697265625">
        <ele>911.79998779296875</ele>
        <time>2020-08-11T05:33:37.000Z</time>
      </trkpt>
      <trkpt lat="42.2625000961124897003173828125" lon="1.83268368244171142578125">
        <ele>911.79998779296875</ele>
        <time>2020-08-11T05:33:39.000Z</time>
      </trkpt>
      <trkpt lat="42.2625000961124897003173828125" lon="1.83268208988010883331298828125">
        <ele>912</ele>
        <time>2020-08-11T05:33:40.000Z</time>
      </trkpt>
      <trkpt lat="42.262494899332523345947265625" lon="1.83268108405172824859619140625">
        <ele>912.20001220703125</ele>
        <time>2020-08-11T05:34:39.000Z</time>
      </trkpt>
      <trkpt lat="42.262521721422672271728515625" lon="1.83268125168979167938232421875">
        <ele>912.20001220703125</ele>
        <time>2020-08-11T05:34:44.000Z</time>
      </trkpt>
      <trkpt lat="42.26259271614253520965576171875" lon="1.8326751329004764556884765625">
        <ele>912.5999755859375</ele>
        <time>2020-08-11T05:34:49.000Z</time>
      </trkpt>
      <trkpt lat="42.2626058757305145263671875" lon="1.8326744623482227325439453125">
        <ele>912.79998779296875</ele>
        <time>2020-08-11T05:34:50.000Z</time>
      </trkpt>
      <trkpt lat="42.2626697458326816558837890625" lon="1.83266113512217998504638671875">
        <ele>913.20001220703125</ele>
        <time>2020-08-11T05:34:54.000Z</time>
      </trkpt>
      <trkpt lat="42.262718193233013153076171875" lon="1.83261067606508731842041015625">
        <ele>913.5999755859375</ele>
        <time>2020-08-11T05:34:58.000Z</time>
      </trkpt>
      <trkpt lat="42.26277644746005535125732421875" lon="1.8324716202914714813232421875">
        <ele>914.79998779296875</ele>
        <time>2020-08-11T05:35:05.000Z</time>
      </trkpt>
      <trkpt lat="42.262808047235012054443359375" lon="1.832415796816349029541015625">
        <ele>915</ele>
        <time>2020-08-11T05:35:08.000Z</time>
      </trkpt>
      <trkpt lat="42.2628338634967803955078125" lon="1.83240146376192569732666015625">
        <ele>915.20001220703125</ele>
        <time>2020-08-11T05:35:10.000Z</time>
      </trkpt>
      <trkpt lat="42.26289195008575916290283203125" lon="1.8322880566120147705078125">
        <ele>915.4000244140625</ele>
        <time>2020-08-11T05:35:15.000Z</time>
      </trkpt>
      <trkpt lat="42.2629129886627197265625" lon="1.83222167193889617919921875">
        <ele>915.5999755859375</ele>
        <time>2020-08-11T05:35:17.000Z</time>
      </trkpt>
      <trkpt lat="42.26291994564235210418701171875" lon="1.832197196781635284423828125">
        <ele>915.79998779296875</ele>
        <time>2020-08-11T05:35:18.000Z</time>
      </trkpt>
      <trkpt lat="42.2629771940410137176513671875" lon="1.83210365474224090576171875">
        <ele>916.5999755859375</ele>
        <time>2020-08-11T05:35:23.000Z</time>
      </trkpt>
      <trkpt lat="42.26303410716354846954345703125" lon="1.83200441300868988037109375">
        <ele>917</ele>
        <time>2020-08-11T05:35:29.000Z</time>
      </trkpt>
      <trkpt lat="42.2630405612289905548095703125" lon="1.8320109508931636810302734375">
        <ele>917.20001220703125</ele>
        <time>2020-08-11T05:35:33.000Z</time>
      </trkpt>
      <trkpt lat="42.26304098032414913177490234375" lon="1.832000724971294403076171875">
        <ele>917.20001220703125</ele>
        <time>2020-08-11T05:36:44.000Z</time>
      </trkpt>
      <trkpt lat="42.26304106414318084716796875" lon="1.8320005573332309722900390625">
        <ele>917.20001220703125</ele>
        <time>2020-08-11T05:36:45.000Z</time>
      </trkpt>
      <trkpt lat="42.2630388848483562469482421875" lon="1.831988655030727386474609375">
        <ele>917.20001220703125</ele>
        <time>2020-08-11T05:36:47.000Z</time>
      </trkpt>
      <trkpt lat="42.26303637027740478515625" lon="1.8319393694400787353515625">
        <ele>917</ele>
        <time>2020-08-11T05:36:50.000Z</time>
      </trkpt>
      <trkpt lat="42.2630469314754009246826171875" lon="1.831905841827392578125">
        <ele>917.20001220703125</ele>
        <time>2020-08-11T05:36:52.000Z</time>
      </trkpt>
      <trkpt lat="42.2630727477371692657470703125" lon="1.83185328729450702667236328125">
        <ele>917</ele>
        <time>2020-08-11T05:36:55.000Z</time>
      </trkpt>
      <trkpt lat="42.2630767710506916046142578125" lon="1.83183199726045131683349609375">
        <ele>917.20001220703125</ele>
        <time>2020-08-11T05:36:56.000Z</time>
      </trkpt>
      <trkpt lat="42.263091690838336944580078125" lon="1.83177106082439422607421875">
        <ele>917.5999755859375</ele>
        <time>2020-08-11T05:36:59.000Z</time>
      </trkpt>
      <trkpt lat="42.263099066913127899169921875" lon="1.831732504069805145263671875">
        <ele>917.79998779296875</ele>
        <time>2020-08-11T05:37:01.000Z</time>
      </trkpt>
      <trkpt lat="42.2631250508129596710205078125" lon="1.83158732950687408447265625">
        <ele>918.4000244140625</ele>
        <time>2020-08-11T05:37:08.000Z</time>
      </trkpt>
      <trkpt lat="42.263143323361873626708984375" lon="1.83147467672824859619140625">
        <ele>919</ele>
        <time>2020-08-11T05:37:13.000Z</time>
      </trkpt>
      <trkpt lat="42.263144664466381072998046875" lon="1.83145187795162200927734375">
        <ele>919.20001220703125</ele>
        <time>2020-08-11T05:37:14.000Z</time>
      </trkpt>
      <trkpt lat="42.2631428204476833343505859375" lon="1.83129605837166309356689453125">
        <ele>920</ele>
        <time>2020-08-11T05:37:21.000Z</time>
      </trkpt>
      <trkpt lat="42.2631418146193027496337890625" lon="1.83127753436565399169921875">
        <ele>920</ele>
        <time>2020-08-11T05:37:22.000Z</time>
      </trkpt>
      <trkpt lat="42.26313971914350986480712890625" lon="1.83123998343944549560546875">
        <ele>920</ele>
        <time>2020-08-11T05:37:24.000Z</time>
      </trkpt>
      <trkpt lat="42.2631289064884185791015625" lon="1.8311990797519683837890625">
        <ele>920.20001220703125</ele>
        <time>2020-08-11T05:37:26.000Z</time>
      </trkpt>
      <trkpt lat="42.26309998892247676849365234375" lon="1.83107796125113964080810546875">
        <ele>920.5999755859375</ele>
        <time>2020-08-11T05:37:32.000Z</time>
      </trkpt>
      <trkpt lat="42.2630854882299900054931640625" lon="1.831024400889873504638671875">
        <ele>921</ele>
        <time>2020-08-11T05:37:35.000Z</time>
      </trkpt>
      <trkpt lat="42.26306411437690258026123046875" lon="1.8309407494962215423583984375">
        <ele>921.4000244140625</ele>
        <time>2020-08-11T05:37:39.000Z</time>
      </trkpt>
      <trkpt lat="42.26304500363767147064208984375" lon="1.8308866024017333984375">
        <ele>921.79998779296875</ele>
        <time>2020-08-11T05:37:42.000Z</time>
      </trkpt>
      <trkpt lat="42.26303075440227985382080078125" lon="1.8308425135910511016845703125">
        <ele>921.79998779296875</ele>
        <time>2020-08-11T05:37:44.000Z</time>
      </trkpt>
      <trkpt lat="42.26299990899860858917236328125" lon="1.8307305313646793365478515625">
        <ele>922.20001220703125</ele>
        <time>2020-08-11T05:37:49.000Z</time>
      </trkpt>
      <trkpt lat="42.2629942931234836578369140625" lon="1.8307020328938961029052734375">
        <ele>922.20001220703125</ele>
        <time>2020-08-11T05:37:50.000Z</time>
      </trkpt>
      <trkpt lat="42.262971661984920501708984375" lon="1.83055928908288478851318359375">
        <ele>922.79998779296875</ele>
        <time>2020-08-11T05:37:56.000Z</time>
      </trkpt>
      <trkpt lat="42.26296671666204929351806640625" lon="1.83051167987287044525146484375">
        <ele>923.20001220703125</ele>
        <time>2020-08-11T05:37:58.000Z</time>
      </trkpt>
      <trkpt lat="42.262972332537174224853515625" lon="1.8304334767162799835205078125">
        <ele>923.4000244140625</ele>
        <time>2020-08-11T05:38:01.000Z</time>
      </trkpt>
      <trkpt lat="42.26296923123300075531005859375" lon="1.83030783198773860931396484375">
        <ele>923.5999755859375</ele>
        <time>2020-08-11T05:38:06.000Z</time>
      </trkpt>
      <trkpt lat="42.26296864449977874755859375" lon="1.83028100989758968353271484375">
        <ele>923.5999755859375</ele>
        <time>2020-08-11T05:38:07.000Z</time>
      </trkpt>
      <trkpt lat="42.26295565254986286163330078125" lon="1.83015502989292144775390625">
        <ele>924.20001220703125</ele>
        <time>2020-08-11T05:38:12.000Z</time>
      </trkpt>
      <trkpt lat="42.262955568730831146240234375" lon="1.830127872526645660400390625">
        <ele>924.20001220703125</ele>
        <time>2020-08-11T05:38:13.000Z</time>
      </trkpt>
      <trkpt lat="42.26295900531113147735595703125" lon="1.83003005571663379669189453125">
        <ele>924.79998779296875</ele>
        <time>2020-08-11T05:38:17.000Z</time>
      </trkpt>
      <trkpt lat="42.262961603701114654541015625" lon="1.830003149807453155517578125">
        <ele>924.79998779296875</ele>
        <time>2020-08-11T05:38:18.000Z</time>
      </trkpt>
      <trkpt lat="42.26296688430011272430419921875" lon="1.82988152839243412017822265625">
        <ele>925</ele>
        <time>2020-08-11T05:38:23.000Z</time>
      </trkpt>
      <trkpt lat="42.26297224871814250946044921875" lon="1.82976418174803256988525390625">
        <ele>925.4000244140625</ele>
        <time>2020-08-11T05:38:28.000Z</time>
      </trkpt>
      <trkpt lat="42.26297828368842601776123046875" lon="1.82974138297140598297119140625">
        <ele>925.5999755859375</ele>
        <time>2020-08-11T05:38:29.000Z</time>
      </trkpt>
      <trkpt lat="42.26298063062131404876708984375" lon="1.8297203443944454193115234375">
        <ele>925.5999755859375</ele>
        <time>2020-08-11T05:38:30.000Z</time>
      </trkpt>
      <trkpt lat="42.2629859112203121185302734375" lon="1.82963845320045948028564453125">
        <ele>926</ele>
        <time>2020-08-11T05:38:34.000Z</time>
      </trkpt>
      <trkpt lat="42.26298951543867588043212890625" lon="1.829614900052547454833984375">
        <ele>926</ele>
        <time>2020-08-11T05:38:35.000Z</time>
      </trkpt>
      <trkpt lat="42.26300292648375034332275390625" lon="1.82946612127125263214111328125">
        <ele>926.79998779296875</ele>
        <time>2020-08-11T05:38:41.000Z</time>
      </trkpt>
      <trkpt lat="42.2630087099969387054443359375" lon="1.82944349013268947601318359375">
        <ele>926.79998779296875</ele>
        <time>2020-08-11T05:38:42.000Z</time>
      </trkpt>
      <trkpt lat="42.2630191035568714141845703125" lon="1.829295046627521514892578125">
        <ele>927.4000244140625</ele>
        <time>2020-08-11T05:38:48.000Z</time>
      </trkpt>
      <trkpt lat="42.2630325146019458770751953125" lon="1.8292023427784442901611328125">
        <ele>927.79998779296875</ele>
        <time>2020-08-11T05:38:52.000Z</time>
      </trkpt>
      <trkpt lat="42.2630430757999420166015625" lon="1.8291552364826202392578125">
        <ele>928.20001220703125</ele>
        <time>2020-08-11T05:38:54.000Z</time>
      </trkpt>
      <trkpt lat="42.26305581629276275634765625" lon="1.82902137748897075653076171875">
        <ele>928.5999755859375</ele>
        <time>2020-08-11T05:39:00.000Z</time>
      </trkpt>
      <trkpt lat="42.26305606774985790252685546875" lon="1.8289545737206935882568359375">
        <ele>928.79998779296875</ele>
        <time>2020-08-11T05:39:03.000Z</time>
      </trkpt>
      <trkpt lat="42.26305983960628509521484375" lon="1.82888927869498729705810546875">
        <ele>929.20001220703125</ele>
        <time>2020-08-11T05:39:06.000Z</time>
      </trkpt>
      <trkpt lat="42.26303393952548503875732421875" lon="1.82875759899616241455078125">
        <ele>929.20001220703125</ele>
        <time>2020-08-11T05:39:12.000Z</time>
      </trkpt>
      <trkpt lat="42.26294852793216705322265625" lon="1.82861804030835628509521484375">
        <ele>930</ele>
        <time>2020-08-11T05:39:19.000Z</time>
      </trkpt>
      <trkpt lat="42.26285221986472606658935546875" lon="1.8285519070923328399658203125">
        <ele>930.20001220703125</ele>
        <time>2020-08-11T05:39:25.000Z</time>
      </trkpt>
      <trkpt lat="42.26283646188676357269287109375" lon="1.82853941805660724639892578125">
        <ele>930.20001220703125</ele>
        <time>2020-08-11T05:39:26.000Z</time>
      </trkpt>
      <trkpt lat="42.2627311013638973236083984375" lon="1.82845853269100189208984375">
        <ele>931</ele>
        <time>2020-08-11T05:39:33.000Z</time>
      </trkpt>
      <trkpt lat="42.26270369254052639007568359375" lon="1.8284364044666290283203125">
        <ele>931.20001220703125</ele>
        <time>2020-08-11T05:39:35.000Z</time>
      </trkpt>
      <trkpt lat="42.26261719129979610443115234375" lon="1.82838016189634799957275390625">
        <ele>931.4000244140625</ele>
        <time>2020-08-11T05:39:40.000Z</time>
      </trkpt>
      <trkpt lat="42.26249850355088710784912109375" lon="1.8282862007617950439453125">
        <ele>932.20001220703125</ele>
        <time>2020-08-11T05:39:47.000Z</time>
      </trkpt>
      <trkpt lat="42.2624833323061466217041015625" lon="1.828273795545101165771484375">
        <ele>932.4000244140625</ele>
        <time>2020-08-11T05:39:48.000Z</time>
      </trkpt>
      <trkpt lat="42.26238735951483249664306640625" lon="1.828202046453952789306640625">
        <ele>932.79998779296875</ele>
        <time>2020-08-11T05:39:54.000Z</time>
      </trkpt>
      <trkpt lat="42.26225056685507297515869140625" lon="1.828088052570819854736328125">
        <ele>933.20001220703125</ele>
        <time>2020-08-11T05:40:02.000Z</time>
      </trkpt>
      <trkpt lat="42.262098602950572967529296875" lon="1.82797883637249469757080078125">
        <ele>934.20001220703125</ele>
        <time>2020-08-11T05:40:11.000Z</time>
      </trkpt>
      <trkpt lat="42.26197111420333385467529296875" lon="1.82790465652942657470703125">
        <ele>935</ele>
        <time>2020-08-11T05:40:18.000Z</time>
      </trkpt>
      <trkpt lat="42.2618976049125194549560546875" lon="1.8278570473194122314453125">
        <ele>935.20001220703125</ele>
        <time>2020-08-11T05:40:22.000Z</time>
      </trkpt>
      <trkpt lat="42.2618563659489154815673828125" lon="1.82783466763794422149658203125">
        <ele>935.4000244140625</ele>
        <time>2020-08-11T05:40:24.000Z</time>
      </trkpt>
      <trkpt lat="42.26172300986945629119873046875" lon="1.82771262712776660919189453125">
        <ele>936</ele>
        <time>2020-08-11T05:40:31.000Z</time>
      </trkpt>
      <trkpt lat="42.2616689465939998626708984375" lon="1.82757952250540256500244140625">
        <ele>936.20001220703125</ele>
        <time>2020-08-11T05:40:36.000Z</time>
      </trkpt>
      <trkpt lat="42.26165763102471828460693359375" lon="1.82753023691475391387939453125">
        <ele>936.4000244140625</ele>
        <time>2020-08-11T05:40:38.000Z</time>
      </trkpt>
      <trkpt lat="42.26166835986077785491943359375" lon="1.82738338597118854522705078125">
        <ele>937.20001220703125</ele>
        <time>2020-08-11T05:40:44.000Z</time>
      </trkpt>
      <trkpt lat="42.261675484478473663330078125" lon="1.82735874317586421966552734375">
        <ele>937.4000244140625</ele>
        <time>2020-08-11T05:40:45.000Z</time>
      </trkpt>
      <trkpt lat="42.261716388165950775146484375" lon="1.8272106349468231201171875">
        <ele>938.20001220703125</ele>
        <time>2020-08-11T05:40:51.000Z</time>
      </trkpt>
      <trkpt lat="42.26173373870551586151123046875" lon="1.82716411538422107696533203125">
        <ele>938.4000244140625</ele>
        <time>2020-08-11T05:40:53.000Z</time>
      </trkpt>
      <trkpt lat="42.2617665119469165802001953125" lon="1.827040649950504302978515625">
        <ele>939</ele>
        <time>2020-08-11T05:40:58.000Z</time>
      </trkpt>
      <trkpt lat="42.26177372038364410400390625" lon="1.8269851617515087127685546875">
        <ele>939.4000244140625</ele>
        <time>2020-08-11T05:41:00.000Z</time>
      </trkpt>
      <trkpt lat="42.2618084214627742767333984375" lon="1.82685281150043010711669921875">
        <ele>940</ele>
        <time>2020-08-11T05:41:05.000Z</time>
      </trkpt>
      <trkpt lat="42.2618265263736248016357421875" lon="1.82677871547639369964599609375">
        <ele>940.4000244140625</ele>
        <time>2020-08-11T05:41:08.000Z</time>
      </trkpt>
      <trkpt lat="42.26185309700667858123779296875" lon="1.826675198972225189208984375">
        <ele>941</ele>
        <time>2020-08-11T05:41:12.000Z</time>
      </trkpt>
      <trkpt lat="42.26188838481903076171875" lon="1.8264956586062908172607421875">
        <ele>941.5999755859375</ele>
        <time>2020-08-11T05:41:19.000Z</time>
      </trkpt>
      <trkpt lat="42.2618935815989971160888671875" lon="1.82647009380161762237548828125">
        <ele>941.79998779296875</ele>
        <time>2020-08-11T05:41:20.000Z</time>
      </trkpt>
      <trkpt lat="42.26188343949615955352783203125" lon="1.82631067000329494476318359375">
        <ele>942</ele>
        <time>2020-08-11T05:41:26.000Z</time>
      </trkpt>
      <trkpt lat="42.26182174868881702423095703125" lon="1.826134063303470611572265625">
        <ele>942.20001220703125</ele>
        <time>2020-08-11T05:41:33.000Z</time>
      </trkpt>
      <trkpt lat="42.2618027217686176300048828125" lon="1.82609123177826404571533203125">
        <ele>942.4000244140625</ele>
        <time>2020-08-11T05:41:35.000Z</time>
      </trkpt>
      <trkpt lat="42.26176843978464603424072265625" lon="1.8260158784687519073486328125">
        <ele>942.79998779296875</ele>
        <time>2020-08-11T05:41:38.000Z</time>
      </trkpt>
      <trkpt lat="42.26172535680234432220458984375" lon="1.82587078772485256195068359375">
        <ele>943.4000244140625</ele>
        <time>2020-08-11T05:41:44.000Z</time>
      </trkpt>
      <trkpt lat="42.261730134487152099609375" lon="1.8257205002009868621826171875">
        <ele>943.79998779296875</ele>
        <time>2020-08-11T05:41:49.000Z</time>
      </trkpt>
      <trkpt lat="42.26181353442370891571044921875" lon="1.82559351436793804168701171875">
        <ele>944.4000244140625</ele>
        <time>2020-08-11T05:41:55.000Z</time>
      </trkpt>
      <trkpt lat="42.261832058429718017578125" lon="1.825579516589641571044921875">
        <ele>944.4000244140625</ele>
        <time>2020-08-11T05:41:56.000Z</time>
      </trkpt>
      <trkpt lat="42.26192601956427097320556640625" lon="1.825513802468776702880859375">
        <ele>945.20001220703125</ele>
        <time>2020-08-11T05:42:01.000Z</time>
      </trkpt>
      <trkpt lat="42.26195971481502056121826171875" lon="1.825502403080463409423828125">
        <ele>945.4000244140625</ele>
        <time>2020-08-11T05:42:03.000Z</time>
      </trkpt>
      <trkpt lat="42.26200439035892486572265625" lon="1.8254717253148555755615234375">
        <ele>945.79998779296875</ele>
        <time>2020-08-11T05:42:06.000Z</time>
      </trkpt>
      <trkpt lat="42.26208745501935482025146484375" lon="1.82542989961802959442138671875">
        <ele>946.4000244140625</ele>
        <time>2020-08-11T05:42:11.000Z</time>
      </trkpt>
      <trkpt lat="42.26213590241968631744384765625" lon="1.8254036642611026763916015625">
        <ele>946.5999755859375</ele>
        <time>2020-08-11T05:42:14.000Z</time>
      </trkpt>
      <trkpt lat="42.2621671669185161590576171875" lon="1.8253875710070133209228515625">
        <ele>946.79998779296875</ele>
        <time>2020-08-11T05:42:16.000Z</time>
      </trkpt>
      <trkpt lat="42.2622560150921344757080078125" lon="1.82534524239599704742431640625">
        <ele>947.5999755859375</ele>
        <time>2020-08-11T05:42:21.000Z</time>
      </trkpt>
      <trkpt lat="42.262292392551898956298828125" lon="1.82532596401870250701904296875">
        <ele>947.79998779296875</ele>
        <time>2020-08-11T05:42:23.000Z</time>
      </trkpt>
      <trkpt lat="42.2624293528497219085693359375" lon="1.82523661293089389801025390625">
        <ele>948.79998779296875</ele>
        <time>2020-08-11T05:42:31.000Z</time>
      </trkpt>
      <trkpt lat="42.26244754157960414886474609375" lon="1.8252306617796421051025390625">
        <ele>948.79998779296875</ele>
        <time>2020-08-11T05:42:32.000Z</time>
      </trkpt>
      <trkpt lat="42.2625460289418697357177734375" lon="1.82516804896295070648193359375">
        <ele>949</ele>
        <time>2020-08-11T05:42:38.000Z</time>
      </trkpt>
      <trkpt lat="42.26269313134253025054931640625" lon="1.82511725462973117828369140625">
        <ele>949.79998779296875</ele>
        <time>2020-08-11T05:42:45.000Z</time>
      </trkpt>
      <trkpt lat="42.2627140022814273834228515625" lon="1.82511557824909687042236328125">
        <ele>949.79998779296875</ele>
        <time>2020-08-11T05:42:46.000Z</time>
      </trkpt>
      <trkpt lat="42.2628450952470302581787109375" lon="1.825111806392669677734375">
        <ele>950.5999755859375</ele>
        <time>2020-08-11T05:42:53.000Z</time>
      </trkpt>
      <trkpt lat="42.2628813050687313079833984375" lon="1.82511038146913051605224609375">
        <ele>950.79998779296875</ele>
        <time>2020-08-11T05:42:55.000Z</time>
      </trkpt>
      <trkpt lat="42.26297560147941112518310546875" lon="1.825088001787662506103515625">
        <ele>951.20001220703125</ele>
        <time>2020-08-11T05:43:00.000Z</time>
      </trkpt>
      <trkpt lat="42.2630365379154682159423828125" lon="1.82504131458699703216552734375">
        <ele>951.79998779296875</ele>
        <time>2020-08-11T05:43:04.000Z</time>
      </trkpt>
      <trkpt lat="42.26305740885436534881591796875" lon="1.82501046918332576751708984375">
        <ele>952</ele>
        <time>2020-08-11T05:43:06.000Z</time>
      </trkpt>
      <trkpt lat="42.26307987235486507415771484375" lon="1.82486973702907562255859375">
        <ele>952.20001220703125</ele>
        <time>2020-08-11T05:43:12.000Z</time>
      </trkpt>
      <trkpt lat="42.26307953707873821258544921875" lon="1.8247773684561252593994140625">
        <ele>952.5999755859375</ele>
        <time>2020-08-11T05:43:16.000Z</time>
      </trkpt>
      <trkpt lat="42.2630680538713932037353515625" lon="1.82467603124678134918212890625">
        <ele>952.79998779296875</ele>
        <time>2020-08-11T05:43:20.000Z</time>
      </trkpt>
      <trkpt lat="42.2630579955875873565673828125" lon="1.8245203793048858642578125">
        <ele>953</ele>
        <time>2020-08-11T05:43:26.000Z</time>
      </trkpt>
      <trkpt lat="42.263034023344516754150390625" lon="1.8242774717509746551513671875">
        <ele>953.79998779296875</ele>
        <time>2020-08-11T05:43:35.000Z</time>
      </trkpt>
      <trkpt lat="42.26301784627139568328857421875" lon="1.82411461137235164642333984375">
        <ele>954</ele>
        <time>2020-08-11T05:43:41.000Z</time>
      </trkpt>
      <trkpt lat="42.26300309412181377410888671875" lon="1.8240280263125896453857421875">
        <ele>954</ele>
        <time>2020-08-11T05:43:44.000Z</time>
      </trkpt>
      <trkpt lat="42.26298314519226551055908203125" lon="1.823942698538303375244140625">
        <ele>954.20001220703125</ele>
        <time>2020-08-11T05:43:47.000Z</time>
      </trkpt>
      <trkpt lat="42.26297325454652309417724609375" lon="1.8239116854965686798095703125">
        <ele>954.4000244140625</ele>
        <time>2020-08-11T05:43:48.000Z</time>
      </trkpt>
      <trkpt lat="42.2629366256296634674072265625" lon="1.82375972159206867218017578125">
        <ele>954.4000244140625</ele>
        <time>2020-08-11T05:43:53.000Z</time>
      </trkpt>
      <trkpt lat="42.26292614825069904327392578125" lon="1.823698617517948150634765625">
        <ele>954.5999755859375</ele>
        <time>2020-08-11T05:43:55.000Z</time>
      </trkpt>
      <trkpt lat="42.262912653386592864990234375" lon="1.82359241880476474761962890625">
        <ele>955</ele>
        <time>2020-08-11T05:43:59.000Z</time>
      </trkpt>
      <trkpt lat="42.26289077661931514739990234375" lon="1.8233960308134555816650390625">
        <ele>955</ele>
        <time>2020-08-11T05:44:06.000Z</time>
      </trkpt>
      <trkpt lat="42.26293771527707576751708984375" lon="1.82322294451296329498291015625">
        <ele>955.4000244140625</ele>
        <time>2020-08-11T05:44:12.000Z</time>
      </trkpt>
      <trkpt lat="42.26299990899860858917236328125" lon="1.823125295341014862060546875">
        <ele>955.5999755859375</ele>
        <time>2020-08-11T05:44:16.000Z</time>
      </trkpt>
      <trkpt lat="42.26301432587206363677978515625" lon="1.823102496564388275146484375">
        <ele>955.79998779296875</ele>
        <time>2020-08-11T05:44:17.000Z</time>
      </trkpt>
      <trkpt lat="42.26310417987406253814697265625" lon="1.822958998382091522216796875">
        <ele>956.20001220703125</ele>
        <time>2020-08-11T05:44:23.000Z</time>
      </trkpt>
      <trkpt lat="42.2631485201418399810791015625" lon="1.8228934518992900848388671875">
        <ele>956.20001220703125</ele>
        <time>2020-08-11T05:44:26.000Z</time>
      </trkpt>
      <trkpt lat="42.26317173801362514495849609375" lon="1.82283855043351650238037109375">
        <ele>956.4000244140625</ele>
        <time>2020-08-11T05:44:28.000Z</time>
      </trkpt>
      <trkpt lat="42.26318967528641223907470703125" lon="1.82278373278677463531494140625">
        <ele>956.4000244140625</ele>
        <time>2020-08-11T05:44:30.000Z</time>
      </trkpt>
      <trkpt lat="42.26321968249976634979248046875" lon="1.822700835764408111572265625">
        <ele>956.4000244140625</ele>
        <time>2020-08-11T05:44:33.000Z</time>
      </trkpt>
      <trkpt lat="42.26324097253382205963134765625" lon="1.8225507996976375579833984375">
        <ele>956.5999755859375</ele>
        <time>2020-08-11T05:44:38.000Z</time>
      </trkpt>
      <trkpt lat="42.2632504440844058990478515625" lon="1.82245214469730854034423828125">
        <ele>956.79998779296875</ele>
        <time>2020-08-11T05:44:41.000Z</time>
      </trkpt>
      <trkpt lat="42.26325874216854572296142578125" lon="1.82235382497310638427734375">
        <ele>956.79998779296875</ele>
        <time>2020-08-11T05:44:44.000Z</time>
      </trkpt>
      <trkpt lat="42.263269722461700439453125" lon="1.822169758379459381103515625">
        <ele>957</ele>
        <time>2020-08-11T05:44:50.000Z</time>
      </trkpt>
      <trkpt lat="42.2632802836596965789794921875" lon="1.82199968956410884857177734375">
        <ele>957</ele>
        <time>2020-08-11T05:44:56.000Z</time>
      </trkpt>
      <trkpt lat="42.2632853128015995025634765625" lon="1.82184747420251369476318359375">
        <ele>957.20001220703125</ele>
        <time>2020-08-11T05:45:01.000Z</time>
      </trkpt>
      <trkpt lat="42.26327969692647457122802734375" lon="1.8216666765511035919189453125">
        <ele>957.4000244140625</ele>
        <time>2020-08-11T05:45:07.000Z</time>
      </trkpt>
      <trkpt lat="42.2632749192416667938232421875" lon="1.82151823304593563079833984375">
        <ele>957.79998779296875</ele>
        <time>2020-08-11T05:45:13.000Z</time>
      </trkpt>
      <trkpt lat="42.263276092708110809326171875" lon="1.82149275206029415130615234375">
        <ele>957.79998779296875</ele>
        <time>2020-08-11T05:45:14.000Z</time>
      </trkpt>
      <trkpt lat="42.26327030919492244720458984375" lon="1.821414716541767120361328125">
        <ele>957.5999755859375</ele>
        <time>2020-08-11T05:45:17.000Z</time>
      </trkpt>
      <trkpt lat="42.2632668726146221160888671875" lon="1.82129426859319210052490234375">
        <ele>957.79998779296875</ele>
        <time>2020-08-11T05:45:21.000Z</time>
      </trkpt>
      <trkpt lat="42.26327802054584026336669921875" lon="1.8212328292429447174072265625">
        <ele>958</ele>
        <time>2020-08-11T05:45:23.000Z</time>
      </trkpt>
      <trkpt lat="42.26337231695652008056640625" lon="1.82105429470539093017578125">
        <ele>958.4000244140625</ele>
        <time>2020-08-11T05:45:30.000Z</time>
      </trkpt>
      <trkpt lat="42.263500727713108062744140625" lon="1.82094675488770008087158203125">
        <ele>958.5999755859375</ele>
        <time>2020-08-11T05:45:37.000Z</time>
      </trkpt>
      <trkpt lat="42.26353568024933338165283203125" lon="1.82090811431407928466796875">
        <ele>958.79998779296875</ele>
        <time>2020-08-11T05:45:39.000Z</time>
      </trkpt>
      <trkpt lat="42.26359334774315357208251953125" lon="1.820861510932445526123046875">
        <ele>958.79998779296875</ele>
        <time>2020-08-11T05:45:42.000Z</time>
      </trkpt>
      <trkpt lat="42.263667024672031402587890625" lon="1.82072035968303680419921875">
        <ele>959.4000244140625</ele>
        <time>2020-08-11T05:45:48.000Z</time>
      </trkpt>
      <trkpt lat="42.263667695224285125732421875" lon="1.82057283818721771240234375">
        <ele>959.5999755859375</ele>
        <time>2020-08-11T05:45:53.000Z</time>
      </trkpt>
      <trkpt lat="42.263663671910762786865234375" lon="1.820546351373195648193359375">
        <ele>959.79998779296875</ele>
        <time>2020-08-11T05:45:54.000Z</time>
      </trkpt>
      <trkpt lat="42.2636222653090953826904296875" lon="1.82032582350075244903564453125">
        <ele>960.20001220703125</ele>
        <time>2020-08-11T05:46:02.000Z</time>
      </trkpt>
      <trkpt lat="42.2635907493531703948974609375" lon="1.82018928229808807373046875">
        <ele>960.5999755859375</ele>
        <time>2020-08-11T05:46:07.000Z</time>
      </trkpt>
      <trkpt lat="42.2635773383080959320068359375" lon="1.8201363086700439453125">
        <ele>960.79998779296875</ele>
        <time>2020-08-11T05:46:09.000Z</time>
      </trkpt>
      <trkpt lat="42.2635163180530071258544921875" lon="1.8199685029685497283935546875">
        <ele>961.20001220703125</ele>
        <time>2020-08-11T05:46:15.000Z</time>
      </trkpt>
      <trkpt lat="42.263483963906764984130859375" lon="1.81986272335052490234375">
        <ele>961.5999755859375</ele>
        <time>2020-08-11T05:46:19.000Z</time>
      </trkpt>
      <trkpt lat="42.2634737379848957061767578125" lon="1.81980832479894161224365234375">
        <ele>961.79998779296875</ele>
        <time>2020-08-11T05:46:21.000Z</time>
      </trkpt>
      <trkpt lat="42.26345420815050601959228515625" lon="1.8197096697986125946044921875">
        <ele>962.20001220703125</ele>
        <time>2020-08-11T05:46:25.000Z</time>
      </trkpt>
      <trkpt lat="42.26345387287437915802001953125" lon="1.8196851946413516998291015625">
        <ele>962.4000244140625</ele>
        <time>2020-08-11T05:46:26.000Z</time>
      </trkpt>
      <trkpt lat="42.26346393115818500518798828125" lon="1.81958042085170745849609375">
        <ele>962.5999755859375</ele>
        <time>2020-08-11T05:46:30.000Z</time>
      </trkpt>
      <trkpt lat="42.26348002441227436065673828125" lon="1.81953205727040767669677734375">
        <ele>962.79998779296875</ele>
        <time>2020-08-11T05:46:32.000Z</time>
      </trkpt>
      <trkpt lat="42.263537608087062835693359375" lon="1.819382943212985992431640625">
        <ele>963.79998779296875</ele>
        <time>2020-08-11T05:46:38.000Z</time>
      </trkpt>
      <trkpt lat="42.26357482373714447021484375" lon="1.81928160600364208221435546875">
        <ele>963.79998779296875</ele>
        <time>2020-08-11T05:46:42.000Z</time>
      </trkpt>
      <trkpt lat="42.26358362473547458648681640625" lon="1.81922444142401218414306640625">
        <ele>964</ele>
        <time>2020-08-11T05:46:44.000Z</time>
      </trkpt>
      <trkpt lat="42.263597287237644195556640625" lon="1.819042973220348358154296875">
        <ele>964.5999755859375</ele>
        <time>2020-08-11T05:46:50.000Z</time>
      </trkpt>
      <trkpt lat="42.26359804160892963409423828125" lon="1.8190210126340389251708984375">
        <ele>964.5999755859375</ele>
        <time>2020-08-11T05:46:51.000Z</time>
      </trkpt>
      <trkpt lat="42.2635954432189464569091796875" lon="1.81897558271884918212890625">
        <ele>964.79998779296875</ele>
        <time>2020-08-11T05:46:53.000Z</time>
      </trkpt>
      <trkpt lat="42.26358798332512378692626953125" lon="1.81885496713221073150634765625">
        <ele>965.4000244140625</ele>
        <time>2020-08-11T05:46:58.000Z</time>
      </trkpt>
      <trkpt lat="42.263579852879047393798828125" lon="1.81881129741668701171875">
        <ele>965.5999755859375</ele>
        <time>2020-08-11T05:47:00.000Z</time>
      </trkpt>
      <trkpt lat="42.263561077415943145751953125" lon="1.81868322193622589111328125">
        <ele>966.20001220703125</ele>
        <time>2020-08-11T05:47:05.000Z</time>
      </trkpt>
      <trkpt lat="42.26355311460793018341064453125" lon="1.81855506263673305511474609375">
        <ele>966.79998779296875</ele>
        <time>2020-08-11T05:47:10.000Z</time>
      </trkpt>
      <trkpt lat="42.2635511867702007293701171875" lon="1.81851265020668506622314453125">
        <ele>967</ele>
        <time>2020-08-11T05:47:12.000Z</time>
      </trkpt>
      <trkpt lat="42.2635585628449916839599609375" lon="1.8183870054781436920166015625">
        <ele>967.5999755859375</ele>
        <time>2020-08-11T05:47:18.000Z</time>
      </trkpt>
      <trkpt lat="42.2635696269571781158447265625" lon="1.81836931966245174407958984375">
        <ele>967.5999755859375</ele>
        <time>2020-08-11T05:47:19.000Z</time>
      </trkpt>
      <trkpt lat="42.26364590227603912353515625" lon="1.81828625500202178955078125">
        <ele>968</ele>
        <time>2020-08-11T05:47:24.000Z</time>
      </trkpt>
      <trkpt lat="42.2637597285211086273193359375" lon="1.81818030774593353271484375">
        <ele>968</ele>
        <time>2020-08-11T05:47:31.000Z</time>
      </trkpt>
      <trkpt lat="42.26380993612110614776611328125" lon="1.8181047029793262481689453125">
        <ele>968.5999755859375</ele>
        <time>2020-08-11T05:47:35.000Z</time>
      </trkpt>
      <trkpt lat="42.263857461512088775634765625" lon="1.8180312775075435638427734375">
        <ele>968.79998779296875</ele>
        <time>2020-08-11T05:47:39.000Z</time>
      </trkpt>
      <trkpt lat="42.263943292200565338134765625" lon="1.81786648929119110107421875">
        <ele>969.5999755859375</ele>
        <time>2020-08-11T05:47:47.000Z</time>
      </trkpt>
      <trkpt lat="42.2639521770179271697998046875" lon="1.8178431876003742218017578125">
        <ele>969.79998779296875</ele>
        <time>2020-08-11T05:47:48.000Z</time>
      </trkpt>
      <trkpt lat="42.2639967687427997589111328125" lon="1.81767831556499004364013671875">
        <ele>970</ele>
        <time>2020-08-11T05:47:55.000Z</time>
      </trkpt>
      <trkpt lat="42.26401395164430141448974609375" lon="1.81753096170723438262939453125">
        <ele>970.5999755859375</ele>
        <time>2020-08-11T05:48:01.000Z</time>
      </trkpt>
      <trkpt lat="42.26400791667401790618896484375" lon="1.8174810893833637237548828125">
        <ele>970.79998779296875</ele>
        <time>2020-08-11T05:48:03.000Z</time>
      </trkpt>
      <trkpt lat="42.26394102908670902252197265625" lon="1.81734354235231876373291015625">
        <ele>971.4000244140625</ele>
        <time>2020-08-11T05:48:09.000Z</time>
      </trkpt>
      <trkpt lat="42.26392191834747791290283203125" lon="1.8173288740217685699462890625">
        <ele>971.5999755859375</ele>
        <time>2020-08-11T05:48:10.000Z</time>
      </trkpt>
      <trkpt lat="42.26382829248905181884765625" lon="1.81721982546150684356689453125">
        <ele>972.20001220703125</ele>
        <time>2020-08-11T05:48:16.000Z</time>
      </trkpt>
      <trkpt lat="42.2637927532196044921875" lon="1.81715813465416431427001953125">
        <ele>972.20001220703125</ele>
        <time>2020-08-11T05:48:20.000Z</time>
      </trkpt>
      <trkpt lat="42.26371605880558490753173828125" lon="1.81706710718572139739990234375">
        <ele>972.4000244140625</ele>
        <time>2020-08-11T05:48:26.000Z</time>
      </trkpt>
      <trkpt lat="42.26370348595082759857177734375" lon="1.817049421370029449462890625">
        <ele>972.5999755859375</ele>
        <time>2020-08-11T05:48:27.000Z</time>
      </trkpt>
      <trkpt lat="42.26364581845700740814208984375" lon="1.81694372557103633880615234375">
        <ele>973</ele>
        <time>2020-08-11T05:48:32.000Z</time>
      </trkpt>
      <trkpt lat="42.26362737827003002166748046875" lon="1.816883794963359832763671875">
        <ele>973.4000244140625</ele>
        <time>2020-08-11T05:48:35.000Z</time>
      </trkpt>
      <trkpt lat="42.26361648179590702056884765625" lon="1.816860325634479522705078125">
        <ele>973.4000244140625</ele>
        <time>2020-08-11T05:48:36.000Z</time>
      </trkpt>
      <trkpt lat="42.2636112011969089508056640625" lon="1.81684322655200958251953125">
        <ele>973.5999755859375</ele>
        <time>2020-08-11T05:48:37.000Z</time>
      </trkpt>
      <trkpt lat="42.26358161307871341705322265625" lon="1.81676284410059452056884765625">
        <ele>974</ele>
        <time>2020-08-11T05:48:41.000Z</time>
      </trkpt>
      <trkpt lat="42.2635347582399845123291015625" lon="1.81664683856070041656494140625">
        <ele>974.5999755859375</ele>
        <time>2020-08-11T05:48:47.000Z</time>
      </trkpt>
      <trkpt lat="42.26353366859257221221923828125" lon="1.81663879193365573883056640625">
        <ele>974.5999755859375</ele>
        <time>2020-08-11T05:48:48.000Z</time>
      </trkpt>
      <trkpt lat="42.26353283040225505828857421875" lon="1.8166311644017696380615234375">
        <ele>974.79998779296875</ele>
        <time>2020-08-11T05:48:49.000Z</time>
      </trkpt>
      <trkpt lat="42.263521514832973480224609375" lon="1.8165748380124568939208984375">
        <ele>975</ele>
        <time>2020-08-11T05:49:25.000Z</time>
      </trkpt>
      <trkpt lat="42.2635166533291339874267578125" lon="1.81656687520444393157958984375">
        <ele>974.79998779296875</ele>
        <time>2020-08-11T05:49:29.000Z</time>
      </trkpt>
      <trkpt lat="42.26349175907671451568603515625" lon="1.8164799548685550689697265625">
        <ele>975.4000244140625</ele>
        <time>2020-08-11T05:49:35.000Z</time>
      </trkpt>
      <trkpt lat="42.26347683928906917572021484375" lon="1.81643553078174591064453125">
        <ele>975.4000244140625</ele>
        <time>2020-08-11T05:49:37.000Z</time>
      </trkpt>
      <trkpt lat="42.263461165130138397216796875" lon="1.81634257547557353973388671875">
        <ele>975.79998779296875</ele>
        <time>2020-08-11T05:49:41.000Z</time>
      </trkpt>
      <trkpt lat="42.26344767026603221893310546875" lon="1.81624551303684711456298828125">
        <ele>976.20001220703125</ele>
        <time>2020-08-11T05:49:45.000Z</time>
      </trkpt>
      <trkpt lat="42.2634469158947467803955078125" lon="1.8162231333553791046142578125">
        <ele>976.20001220703125</ele>
        <time>2020-08-11T05:49:46.000Z</time>
      </trkpt>
      <trkpt lat="42.263441719114780426025390625" lon="1.81612850166857242584228515625">
        <ele>976.4000244140625</ele>
        <time>2020-08-11T05:49:50.000Z</time>
      </trkpt>
      <trkpt lat="42.263445071876049041748046875" lon="1.81607871316373348236083984375">
        <ele>976.79998779296875</ele>
        <time>2020-08-11T05:49:52.000Z</time>
      </trkpt>
      <trkpt lat="42.26344515569508075714111328125" lon="1.81588291190564632415771484375">
        <ele>977.79998779296875</ele>
        <time>2020-08-11T05:49:59.000Z</time>
      </trkpt>
      <trkpt lat="42.26339620538055896759033203125" lon="1.81570085696876049041748046875">
        <ele>977.4000244140625</ele>
        <time>2020-08-11T05:50:04.000Z</time>
      </trkpt>
      <trkpt lat="42.26335220038890838623046875" lon="1.81555232964456081390380859375">
        <ele>976.4000244140625</ele>
        <time>2020-08-11T05:50:07.000Z</time>
      </trkpt>
      <trkpt lat="42.2633359394967555999755859375" lon="1.81550078094005584716796875">
        <ele>976.4000244140625</ele>
        <time>2020-08-11T05:50:08.000Z</time>
      </trkpt>
      <trkpt lat="42.26327701471745967864990234375" lon="1.8152712844312191009521484375">
        <ele>975.5999755859375</ele>
        <time>2020-08-11T05:50:13.000Z</time>
      </trkpt>
      <trkpt lat="42.2632588259875774383544921875" lon="1.81515251286327838897705078125">
        <ele>975.5999755859375</ele>
        <time>2020-08-11T05:50:16.000Z</time>
      </trkpt>
      <trkpt lat="42.26325823925435543060302734375" lon="1.815108172595500946044921875">
        <ele>975.5999755859375</ele>
        <time>2020-08-11T05:50:17.000Z</time>
      </trkpt>
      <trkpt lat="42.26326745934784412384033203125" lon="1.81492703966796398162841796875">
        <ele>975.79998779296875</ele>
        <time>2020-08-11T05:50:22.000Z</time>
      </trkpt>
      <trkpt lat="42.2632883302867412567138671875" lon="1.81474708020687103271484375">
        <ele>976</ele>
        <time>2020-08-11T05:50:27.000Z</time>
      </trkpt>
      <trkpt lat="42.2632950358092784881591796875" lon="1.81455823592841625213623046875">
        <ele>976</ele>
        <time>2020-08-11T05:50:32.000Z</time>
      </trkpt>
      <trkpt lat="42.26330031640827655792236328125" lon="1.814343072474002838134765625">
        <ele>975.4000244140625</ele>
        <time>2020-08-11T05:50:38.000Z</time>
      </trkpt>
      <trkpt lat="42.2633247077465057373046875" lon="1.814178787171840667724609375">
        <ele>975.79998779296875</ele>
        <time>2020-08-11T05:50:43.000Z</time>
      </trkpt>
      <trkpt lat="42.2633543796837329864501953125" lon="1.813967563211917877197265625">
        <ele>975.20001220703125</ele>
        <time>2020-08-11T05:50:48.000Z</time>
      </trkpt>
      <trkpt lat="42.26336427032947540283203125" lon="1.81392959319055080413818359375">
        <ele>975</ele>
        <time>2020-08-11T05:50:49.000Z</time>
      </trkpt>
      <trkpt lat="42.26343543268740177154541015625" lon="1.813736222684383392333984375">
        <ele>973.5999755859375</ele>
        <time>2020-08-11T05:50:53.000Z</time>
      </trkpt>
      <trkpt lat="42.26353727281093597412109375" lon="1.8135975860059261322021484375">
        <ele>973.5999755859375</ele>
        <time>2020-08-11T05:50:56.000Z</time>
      </trkpt>
      <trkpt lat="42.2636256180703639984130859375" lon="1.81353128515183925628662109375">
        <ele>973.5999755859375</ele>
        <time>2020-08-11T05:50:58.000Z</time>
      </trkpt>
      <trkpt lat="42.26384061388671398162841796875" lon="1.81336984969675540924072265625">
        <ele>973.20001220703125</ele>
        <time>2020-08-11T05:51:04.000Z</time>
      </trkpt>
      <trkpt lat="42.263952679932117462158203125" lon="1.813254766166210174560546875">
        <ele>973.5999755859375</ele>
        <time>2020-08-11T05:51:10.000Z</time>
      </trkpt>
      <trkpt lat="42.2640282846987247467041015625" lon="1.813114620745182037353515625">
        <ele>974.5999755859375</ele>
        <time>2020-08-11T05:51:17.000Z</time>
      </trkpt>
      <trkpt lat="42.2640641592442989349365234375" lon="1.81296030990779399871826171875">
        <ele>974.20001220703125</ele>
        <time>2020-08-11T05:51:23.000Z</time>
      </trkpt>
      <trkpt lat="42.2640665061771869659423828125" lon="1.81289979256689548492431640625">
        <ele>974.20001220703125</ele>
        <time>2020-08-11T05:51:25.000Z</time>
      </trkpt>
      <trkpt lat="42.26404412649571895599365234375" lon="1.812837682664394378662109375">
        <ele>974.20001220703125</ele>
        <time>2020-08-11T05:51:27.000Z</time>
      </trkpt>
      <trkpt lat="42.263954691588878631591796875" lon="1.812680102884769439697265625">
        <ele>972.5999755859375</ele>
        <time>2020-08-11T05:51:32.000Z</time>
      </trkpt>
      <trkpt lat="42.2639092616736888885498046875" lon="1.8126242794096469879150390625">
        <ele>972.20001220703125</ele>
        <time>2020-08-11T05:51:34.000Z</time>
      </trkpt>
      <trkpt lat="42.26385201327502727508544921875" lon="1.81256351061165332794189453125">
        <ele>972</ele>
        <time>2020-08-11T05:51:36.000Z</time>
      </trkpt>
      <trkpt lat="42.2637788392603397369384765625" lon="1.8124740757048130035400390625">
        <ele>971.4000244140625</ele>
        <time>2020-08-11T05:51:39.000Z</time>
      </trkpt>
      <trkpt lat="42.263739444315433502197265625" lon="1.81240509264171123504638671875">
        <ele>971</ele>
        <time>2020-08-11T05:51:41.000Z</time>
      </trkpt>
      <trkpt lat="42.2637245245277881622314453125" lon="1.81226469576358795166015625">
        <ele>970.79998779296875</ele>
        <time>2020-08-11T05:51:45.000Z</time>
      </trkpt>
      <trkpt lat="42.26374941878020763397216796875" lon="1.812151037156581878662109375">
        <ele>971.20001220703125</ele>
        <time>2020-08-11T05:51:49.000Z</time>
      </trkpt>
      <trkpt lat="42.263816557824611663818359375" lon="1.811929754912853240966796875">
        <ele>971</ele>
        <time>2020-08-11T05:51:57.000Z</time>
      </trkpt>
      <trkpt lat="42.26384262554347515106201171875" lon="1.81185054592788219451904296875">
        <ele>970.79998779296875</ele>
        <time>2020-08-11T05:52:00.000Z</time>
      </trkpt>
      <trkpt lat="42.26385620422661304473876953125" lon="1.8118018470704555511474609375">
        <ele>971</ele>
        <time>2020-08-11T05:52:02.000Z</time>
      </trkpt>
      <trkpt lat="42.263872884213924407958984375" lon="1.81165625341236591339111328125">
        <ele>971.4000244140625</ele>
        <time>2020-08-11T05:52:07.000Z</time>
      </trkpt>
      <trkpt lat="42.2638851217925548553466796875" lon="1.8114954046905040740966796875">
        <ele>971.20001220703125</ele>
        <time>2020-08-11T05:52:12.000Z</time>
      </trkpt>
      <trkpt lat="42.2638638317584991455078125" lon="1.811290048062801361083984375">
        <ele>971.20001220703125</ele>
        <time>2020-08-11T05:52:18.000Z</time>
      </trkpt>
      <trkpt lat="42.263805828988552093505859375" lon="1.81115987710654735565185546875">
        <ele>970.79998779296875</ele>
        <time>2020-08-11T05:52:22.000Z</time>
      </trkpt>
      <trkpt lat="42.26377925835549831390380859375" lon="1.81102157570421695709228515625">
        <ele>970.20001220703125</ele>
        <time>2020-08-11T05:52:26.000Z</time>
      </trkpt>
      <trkpt lat="42.26378696970641613006591796875" lon="1.81098469533026218414306640625">
        <ele>970</ele>
        <time>2020-08-11T05:52:27.000Z</time>
      </trkpt>
      <trkpt lat="42.2638157196342945098876953125" lon="1.81087262928485870361328125">
        <ele>970</ele>
        <time>2020-08-11T05:52:30.000Z</time>
      </trkpt>
      <trkpt lat="42.263827286660671234130859375" lon="1.810783445835113525390625">
        <ele>969.20001220703125</ele>
        <time>2020-08-11T05:52:32.000Z</time>
      </trkpt>
      <trkpt lat="42.26383256725966930389404296875" lon="1.81067816913127899169921875">
        <ele>969</ele>
        <time>2020-08-11T05:52:34.000Z</time>
      </trkpt>
      <trkpt lat="42.26381580345332622528076171875" lon="1.81056073866784572601318359375">
        <ele>968.4000244140625</ele>
        <time>2020-08-11T05:52:36.000Z</time>
      </trkpt>
      <trkpt lat="42.26378764025866985321044921875" lon="1.81040366180241107940673828125">
        <ele>968</ele>
        <time>2020-08-11T05:52:39.000Z</time>
      </trkpt>
      <trkpt lat="42.2637714631855487823486328125" lon="1.810316406190395355224609375">
        <ele>967.20001220703125</ele>
        <time>2020-08-11T05:52:41.000Z</time>
      </trkpt>
      <trkpt lat="42.26376852951943874359130859375" lon="1.810273490846157073974609375">
        <ele>966.79998779296875</ele>
        <time>2020-08-11T05:52:42.000Z</time>
      </trkpt>
      <trkpt lat="42.26378244347870349884033203125" lon="1.8101073615252971649169921875">
        <ele>966.20001220703125</ele>
        <time>2020-08-11T05:52:45.000Z</time>
      </trkpt>
      <trkpt lat="42.263808511197566986083984375" lon="1.809801757335662841796875">
        <ele>966.20001220703125</ele>
        <time>2020-08-11T05:52:50.000Z</time>
      </trkpt>
      <trkpt lat="42.2638103552162647247314453125" lon="1.80969178676605224609375">
        <ele>965.5999755859375</ele>
        <time>2020-08-11T05:52:52.000Z</time>
      </trkpt>
      <trkpt lat="42.2638123668730258941650390625" lon="1.80959095247089862823486328125">
        <ele>965.20001220703125</ele>
        <time>2020-08-11T05:52:54.000Z</time>
      </trkpt>
      <trkpt lat="42.263809852302074432373046875" lon="1.809327341616153717041015625">
        <ele>965.4000244140625</ele>
        <time>2020-08-11T05:53:00.000Z</time>
      </trkpt>
      <trkpt lat="42.26382871158421039581298828125" lon="1.80918057449162006378173828125">
        <ele>965.79998779296875</ele>
        <time>2020-08-11T05:53:05.000Z</time>
      </trkpt>
      <trkpt lat="42.263843715190887451171875" lon="1.8090069852769374847412109375">
        <ele>966.20001220703125</ele>
        <time>2020-08-11T05:53:10.000Z</time>
      </trkpt>
      <trkpt lat="42.26385402493178844451904296875" lon="1.80884622037410736083984375">
        <ele>966.4000244140625</ele>
        <time>2020-08-11T05:53:14.000Z</time>
      </trkpt>
      <trkpt lat="42.263856790959835052490234375" lon="1.80874488316476345062255859375">
        <ele>966.4000244140625</ele>
        <time>2020-08-11T05:53:16.000Z</time>
      </trkpt>
      <trkpt lat="42.26386056281626224517822265625" lon="1.80846895091235637664794921875">
        <ele>965.4000244140625</ele>
        <time>2020-08-11T05:53:21.000Z</time>
      </trkpt>
      <trkpt lat="42.26385218091309070587158203125" lon="1.80831489153206348419189453125">
        <ele>965.20001220703125</ele>
        <time>2020-08-11T05:53:24.000Z</time>
      </trkpt>
      <trkpt lat="42.26382561028003692626953125" lon="1.80811707861721515655517578125">
        <ele>965.20001220703125</ele>
        <time>2020-08-11T05:53:29.000Z</time>
      </trkpt>
      <trkpt lat="42.26380507461726665496826171875" lon="1.80801230482757091522216796875">
        <ele>965.20001220703125</ele>
        <time>2020-08-11T05:53:33.000Z</time>
      </trkpt>
      <trkpt lat="42.26374246180057525634765625" lon="1.8078408949077129364013671875">
        <ele>966</ele>
        <time>2020-08-11T05:53:40.000Z</time>
      </trkpt>
      <trkpt lat="42.26372963748872280120849609375" lon="1.8078009970486164093017578125">
        <ele>966.20001220703125</ele>
        <time>2020-08-11T05:53:42.000Z</time>
      </trkpt>
      <trkpt lat="42.2637228481471538543701171875" lon="1.8077812157571315765380859375">
        <ele>966.4000244140625</ele>
        <time>2020-08-11T05:53:43.000Z</time>
      </trkpt>
      <trkpt lat="42.2637047432363033294677734375" lon="1.80773788131773471832275390625">
        <ele>966.79998779296875</ele>
        <time>2020-08-11T05:53:45.000Z</time>
      </trkpt>
      <trkpt lat="42.26368940435349941253662109375" lon="1.80770535953342914581298828125">
        <ele>967</ele>
        <time>2020-08-11T05:53:47.000Z</time>
      </trkpt>
      <trkpt lat="42.26366727612912654876708984375" lon="1.80764148943126201629638671875">
        <ele>967.4000244140625</ele>
        <time>2020-08-11T05:53:50.000Z</time>
      </trkpt>
      <trkpt lat="42.2636564634740352630615234375" lon="1.8076206184923648834228515625">
        <ele>967.5999755859375</ele>
        <time>2020-08-11T05:53:51.000Z</time>
      </trkpt>
      <trkpt lat="42.263612039387226104736328125" lon="1.80752917192876338958740234375">
        <ele>968</ele>
        <time>2020-08-11T05:53:55.000Z</time>
      </trkpt>
      <trkpt lat="42.26357390172779560089111328125" lon="1.807436384260654449462890625">
        <ele>968.4000244140625</ele>
        <time>2020-08-11T05:53:59.000Z</time>
      </trkpt>
      <trkpt lat="42.2635599039494991302490234375" lon="1.80738718248903751373291015625">
        <ele>968.79998779296875</ele>
        <time>2020-08-11T05:54:01.000Z</time>
      </trkpt>
      <trkpt lat="42.263502068817615509033203125" lon="1.807296574115753173828125">
        <ele>969.4000244140625</ele>
        <time>2020-08-11T05:54:06.000Z</time>
      </trkpt>
      <trkpt lat="42.26348899304866790771484375" lon="1.807276122272014617919921875">
        <ele>969.5999755859375</ele>
        <time>2020-08-11T05:54:07.000Z</time>
      </trkpt>
      <trkpt lat="42.26343275047838687896728515625" lon="1.8072068877518177032470703125">
        <ele>970.5999755859375</ele>
        <time>2020-08-11T05:54:12.000Z</time>
      </trkpt>
      <trkpt lat="42.26342260837554931640625" lon="1.807190962135791778564453125">
        <ele>970.5999755859375</ele>
        <time>2020-08-11T05:54:13.000Z</time>
      </trkpt>
      <trkpt lat="42.2633837163448333740234375" lon="1.80711979977786540985107421875">
        <ele>971.5999755859375</ele>
        <time>2020-08-11T05:54:18.000Z</time>
      </trkpt>
      <trkpt lat="42.263376675546169281005859375" lon="1.8071012757718563079833984375">
        <ele>971.79998779296875</ele>
        <time>2020-08-11T05:54:19.000Z</time>
      </trkpt>
      <trkpt lat="42.26336686871945858001708984375" lon="1.80705291219055652618408203125">
        <ele>972.20001220703125</ele>
        <time>2020-08-11T05:54:22.000Z</time>
      </trkpt>
      <trkpt lat="42.2633634321391582489013671875" lon="1.80703463964164257049560546875">
        <ele>972.4000244140625</ele>
        <time>2020-08-11T05:54:23.000Z</time>
      </trkpt>
      <trkpt lat="42.2633470036089420318603515625" lon="1.8069685064256191253662109375">
        <ele>972.5999755859375</ele>
        <time>2020-08-11T05:54:26.000Z</time>
      </trkpt>
      <trkpt lat="42.26332671940326690673828125" lon="1.80690170265734195709228515625">
        <ele>972.5999755859375</ele>
        <time>2020-08-11T05:54:28.000Z</time>
      </trkpt>
      <trkpt lat="42.2632853128015995025634765625" lon="1.8067656643688678741455078125">
        <ele>972.20001220703125</ele>
        <time>2020-08-11T05:54:31.000Z</time>
      </trkpt>
      <trkpt lat="42.26326829753816127777099609375" lon="1.8065598048269748687744140625">
        <ele>971.4000244140625</ele>
        <time>2020-08-11T05:54:36.000Z</time>
      </trkpt>
      <trkpt lat="42.26333585567772388458251953125" lon="1.80644975043833255767822265625">
        <ele>970.4000244140625</ele>
        <time>2020-08-11T05:54:40.000Z</time>
      </trkpt>
      <trkpt lat="42.26337893866002559661865234375" lon="1.8064632453024387359619140625">
        <ele>970.20001220703125</ele>
        <time>2020-08-11T05:54:43.000Z</time>
      </trkpt>
      <trkpt lat="42.26338799111545085906982421875" lon="1.8064796738326549530029296875">
        <ele>970.20001220703125</ele>
        <time>2020-08-11T05:54:44.000Z</time>
      </trkpt>
      <trkpt lat="42.26344549097120761871337890625" lon="1.8065581284463405609130859375">
        <ele>970.5999755859375</ele>
        <time>2020-08-11T05:54:50.000Z</time>
      </trkpt>
      <trkpt lat="42.26351120509207248687744140625" lon="1.8066245131194591522216796875">
        <ele>971.4000244140625</ele>
        <time>2020-08-11T05:54:56.000Z</time>
      </trkpt>
      <trkpt lat="42.2635258734226226806640625" lon="1.80663205683231353759765625">
        <ele>971.4000244140625</ele>
        <time>2020-08-11T05:54:57.000Z</time>
      </trkpt>
      <trkpt lat="42.26360675878822803497314453125" lon="1.806696094572544097900390625">
        <ele>972.20001220703125</ele>
        <time>2020-08-11T05:55:03.000Z</time>
      </trkpt>
      <trkpt lat="42.2636219300329685211181640625" lon="1.8067063204944133758544921875">
        <ele>972.4000244140625</ele>
        <time>2020-08-11T05:55:04.000Z</time>
      </trkpt>
      <trkpt lat="42.26369460113346576690673828125" lon="1.80675066076219081878662109375">
        <ele>973.20001220703125</ele>
        <time>2020-08-11T05:55:09.000Z</time>
      </trkpt>
      <trkpt lat="42.263771630823612213134765625" lon="1.8067934922873973846435546875">
        <ele>974</ele>
        <time>2020-08-11T05:55:15.000Z</time>
      </trkpt>
      <trkpt lat="42.26378445513546466827392578125" lon="1.8068015389144420623779296875">
        <ele>974.4000244140625</ele>
        <time>2020-08-11T05:55:16.000Z</time>
      </trkpt>
      <trkpt lat="42.26385754533112049102783203125" lon="1.80684051476418972015380859375">
        <ele>975</ele>
        <time>2020-08-11T05:55:21.000Z</time>
      </trkpt>
      <trkpt lat="42.26397120393812656402587890625" lon="1.806899607181549072265625">
        <ele>975.20001220703125</ele>
        <time>2020-08-11T05:55:27.000Z</time>
      </trkpt>
      <trkpt lat="42.26406306959688663482666015625" lon="1.80696406401693820953369140625">
        <ele>975.4000244140625</ele>
        <time>2020-08-11T05:55:32.000Z</time>
      </trkpt>
      <trkpt lat="42.2641007043421268463134765625" lon="1.8069966696202754974365234375">
        <ele>975.4000244140625</ele>
        <time>2020-08-11T05:55:34.000Z</time>
      </trkpt>
      <trkpt lat="42.2642177157104015350341796875" lon="1.80711728520691394805908203125">
        <ele>975.4000244140625</ele>
        <time>2020-08-11T05:55:40.000Z</time>
      </trkpt>
      <trkpt lat="42.26432383060455322265625" lon="1.80721535347402095794677734375">
        <ele>975.4000244140625</ele>
        <time>2020-08-11T05:55:46.000Z</time>
      </trkpt>
      <trkpt lat="42.26440438069403171539306640625" lon="1.80721669457852840423583984375">
        <ele>975.5999755859375</ele>
        <time>2020-08-11T05:55:52.000Z</time>
      </trkpt>
      <trkpt lat="42.2644056379795074462890625" lon="1.80721468292176723480224609375">
        <ele>975.4000244140625</ele>
        <time>2020-08-11T05:56:04.000Z</time>
      </trkpt>
      <trkpt lat="42.26440538652241230010986328125" lon="1.80721065960824489593505859375">
        <ele>975.5999755859375</ele>
        <time>2020-08-11T05:56:20.000Z</time>
      </trkpt>
      <trkpt lat="42.2644056379795074462890625" lon="1.80720663629472255706787109375">
        <ele>975.5999755859375</ele>
        <time>2020-08-11T05:56:31.000Z</time>
      </trkpt>
      <trkpt lat="42.26441259495913982391357421875" lon="1.80719573982059955596923828125">
        <ele>975.20001220703125</ele>
        <time>2020-08-11T05:56:41.000Z</time>
      </trkpt>
      <trkpt lat="42.264428772032260894775390625" lon="1.80716154165565967559814453125">
        <ele>975.20001220703125</ele>
        <time>2020-08-11T05:56:43.000Z</time>
      </trkpt>
      <trkpt lat="42.264456935226917266845703125" lon="1.8070084042847156524658203125">
        <ele>975</ele>
        <time>2020-08-11T05:56:49.000Z</time>
      </trkpt>
      <trkpt lat="42.264435477554798126220703125" lon="1.8068679235875606536865234375">
        <ele>974.5999755859375</ele>
        <time>2020-08-11T05:56:55.000Z</time>
      </trkpt>
      <trkpt lat="42.26443606428802013397216796875" lon="1.80682894773781299591064453125">
        <ele>974.79998779296875</ele>
        <time>2020-08-11T05:56:57.000Z</time>
      </trkpt>
      <trkpt lat="42.26442432962357997894287109375" lon="1.80675451643764972686767578125">
        <ele>974.79998779296875</ele>
        <time>2020-08-11T05:57:00.000Z</time>
      </trkpt>
      <trkpt lat="42.26440924219787120819091796875" lon="1.806602887809276580810546875">
        <ele>974.79998779296875</ele>
        <time>2020-08-11T05:57:06.000Z</time>
      </trkpt>
      <trkpt lat="42.26437856443226337432861328125" lon="1.80647724308073520660400390625">
        <ele>975.20001220703125</ele>
        <time>2020-08-11T05:57:11.000Z</time>
      </trkpt>
      <trkpt lat="42.26436951197683811187744140625" lon="1.8064350821077823638916015625">
        <ele>975.4000244140625</ele>
        <time>2020-08-11T05:57:15.000Z</time>
      </trkpt>
      <trkpt lat="42.2643605433404445648193359375" lon="1.80640666745603084564208984375">
        <ele>975.20001220703125</ele>
        <time>2020-08-11T05:57:26.000Z</time>
      </trkpt>
      <trkpt lat="42.264344953000545501708984375" lon="1.80631832219660282135009765625">
        <ele>975.4000244140625</ele>
        <time>2020-08-11T05:57:32.000Z</time>
      </trkpt>
      <trkpt lat="42.26432642899453639984130859375" lon="1.80621539242565631866455078125">
        <ele>975.5999755859375</ele>
        <time>2020-08-11T05:57:37.000Z</time>
      </trkpt>
      <trkpt lat="42.26431310176849365234375" lon="1.80611413903534412384033203125">
        <ele>975.5999755859375</ele>
        <time>2020-08-11T05:57:42.000Z</time>
      </trkpt>
      <trkpt lat="42.2642995230853557586669921875" lon="1.8060186691582202911376953125">
        <ele>975.79998779296875</ele>
        <time>2020-08-11T05:57:46.000Z</time>
      </trkpt>
      <trkpt lat="42.26429373957216739654541015625" lon="1.80596980266273021697998046875">
        <ele>976.20001220703125</ele>
        <time>2020-08-11T05:57:48.000Z</time>
      </trkpt>
      <trkpt lat="42.2642884589731693267822265625" lon="1.805926971137523651123046875">
        <ele>976.4000244140625</ele>
        <time>2020-08-11T05:57:50.000Z</time>
      </trkpt>
      <trkpt lat="42.2642891295254230499267578125" lon="1.805834434926509857177734375">
        <ele>976.5999755859375</ele>
        <time>2020-08-11T05:57:54.000Z</time>
      </trkpt>
      <trkpt lat="42.2642827592790126800537109375" lon="1.8057678826153278350830078125">
        <ele>976.79998779296875</ele>
        <time>2020-08-11T05:57:56.000Z</time>
      </trkpt>
      <trkpt lat="42.264273203909397125244140625" lon="1.80567660368978977203369140625">
        <ele>977.4000244140625</ele>
        <time>2020-08-11T05:58:00.000Z</time>
      </trkpt>
      <trkpt lat="42.26427085697650909423828125" lon="1.805652044713497161865234375">
        <ele>977.4000244140625</ele>
        <time>2020-08-11T05:58:01.000Z</time>
      </trkpt>
      <trkpt lat="42.264249734580516815185546875" lon="1.8055204488337039947509765625">
        <ele>978.20001220703125</ele>
        <time>2020-08-11T05:58:07.000Z</time>
      </trkpt>
      <trkpt lat="42.2642398439347743988037109375" lon="1.8054339475929737091064453125">
        <ele>978.5999755859375</ele>
        <time>2020-08-11T05:58:10.000Z</time>
      </trkpt>
      <trkpt lat="42.26422886364161968231201171875" lon="1.80538306944072246551513671875">
        <ele>978.79998779296875</ele>
        <time>2020-08-11T05:58:12.000Z</time>
      </trkpt>
      <trkpt lat="42.26422484032809734344482421875" lon="1.8052674829959869384765625">
        <ele>979.4000244140625</ele>
        <time>2020-08-11T05:58:17.000Z</time>
      </trkpt>
      <trkpt lat="42.26421109400689601898193359375" lon="1.80516547523438930511474609375">
        <ele>980</ele>
        <time>2020-08-11T05:58:21.000Z</time>
      </trkpt>
      <trkpt lat="42.26420723833143711090087890625" lon="1.80514435283839702606201171875">
        <ele>980.20001220703125</ele>
        <time>2020-08-11T05:58:22.000Z</time>
      </trkpt>
      <trkpt lat="42.264202795922756195068359375" lon="1.8051264993846416473388671875">
        <ele>980.4000244140625</ele>
        <time>2020-08-11T05:58:23.000Z</time>
      </trkpt>
      <trkpt lat="42.2641955874860286712646484375" lon="1.80503320880234241485595703125">
        <ele>981</ele>
        <time>2020-08-11T05:58:27.000Z</time>
      </trkpt>
      <trkpt lat="42.2641932405531406402587890625" lon="1.80499180220067501068115234375">
        <ele>981.20001220703125</ele>
        <time>2020-08-11T05:58:29.000Z</time>
      </trkpt>
      <trkpt lat="42.26416951976716518402099609375" lon="1.80488451384007930755615234375">
        <ele>982.20001220703125</ele>
        <time>2020-08-11T05:58:35.000Z</time>
      </trkpt>
      <trkpt lat="42.264166586101055145263671875" lon="1.804853416979312896728515625">
        <ele>982.4000244140625</ele>
        <time>2020-08-11T05:58:37.000Z</time>
      </trkpt>
      <trkpt lat="42.26415426470339298248291015625" lon="1.8048016168177127838134765625">
        <ele>982.4000244140625</ele>
        <time>2020-08-11T05:58:40.000Z</time>
      </trkpt>
      <trkpt lat="42.2641345672309398651123046875" lon="1.8046688474714756011962890625">
        <ele>982.79998779296875</ele>
        <time>2020-08-11T05:58:46.000Z</time>
      </trkpt>
      <trkpt lat="42.264114953577518463134765625" lon="1.804522164165973663330078125">
        <ele>983.4000244140625</ele>
        <time>2020-08-11T05:58:52.000Z</time>
      </trkpt>
      <trkpt lat="42.26411570794880390167236328125" lon="1.80447011254727840423583984375">
        <ele>983.5999755859375</ele>
        <time>2020-08-11T05:58:55.000Z</time>
      </trkpt>
      <trkpt lat="42.2641218267381191253662109375" lon="1.80441982112824916839599609375">
        <ele>983.5999755859375</ele>
        <time>2020-08-11T05:58:58.000Z</time>
      </trkpt>
      <trkpt lat="42.26411721669137477874755859375" lon="1.80428906343877315521240234375">
        <ele>983.79998779296875</ele>
        <time>2020-08-11T05:59:03.000Z</time>
      </trkpt>
      <trkpt lat="42.2640966810286045074462890625" lon="1.80417641066014766693115234375">
        <ele>984</ele>
        <time>2020-08-11T05:59:07.000Z</time>
      </trkpt>
      <trkpt lat="42.264090813696384429931640625" lon="1.80413014255464076995849609375">
        <ele>984.20001220703125</ele>
        <time>2020-08-11T05:59:09.000Z</time>
      </trkpt>
      <trkpt lat="42.2640805877745151519775390625" lon="1.804087646305561065673828125">
        <ele>984.5999755859375</ele>
        <time>2020-08-11T05:59:11.000Z</time>
      </trkpt>
      <trkpt lat="42.264069020748138427734375" lon="1.8040331639349460601806640625">
        <ele>985.4000244140625</ele>
        <time>2020-08-11T05:59:14.000Z</time>
      </trkpt>
      <trkpt lat="42.264061979949474334716796875" lon="1.80400793440639972686767578125">
        <ele>985.4000244140625</ele>
        <time>2020-08-11T05:59:15.000Z</time>
      </trkpt>
      <trkpt lat="42.26405401714146137237548828125" lon="1.80395253002643585205078125">
        <ele>986</ele>
        <time>2020-08-11T05:59:17.000Z</time>
      </trkpt>
      <trkpt lat="42.264049239456653594970703125" lon="1.80393165908753871917724609375">
        <ele>986.20001220703125</ele>
        <time>2020-08-11T05:59:18.000Z</time>
      </trkpt>
      <trkpt lat="42.2640490718185901641845703125" lon="1.80388622917234897613525390625">
        <ele>986.5999755859375</ele>
        <time>2020-08-11T05:59:20.000Z</time>
      </trkpt>
      <trkpt lat="42.2640430368483066558837890625" lon="1.8038397096097469329833984375">
        <ele>986.79998779296875</ele>
        <time>2020-08-11T05:59:22.000Z</time>
      </trkpt>
      <trkpt lat="42.2640440426766872406005859375" lon="1.80376536212861537933349609375">
        <ele>987.4000244140625</ele>
        <time>2020-08-11T05:59:26.000Z</time>
      </trkpt>
      <trkpt lat="42.26403993554413318634033203125" lon="1.80374306626617908477783203125">
        <ele>987.5999755859375</ele>
        <time>2020-08-11T05:59:27.000Z</time>
      </trkpt>
      <trkpt lat="42.26403188891708850860595703125" lon="1.8036750890314579010009765625">
        <ele>988.4000244140625</ele>
        <time>2020-08-11T05:59:30.000Z</time>
      </trkpt>
      <trkpt lat="42.26403138600289821624755859375" lon="1.803657151758670806884765625">
        <ele>988.5999755859375</ele>
        <time>2020-08-11T05:59:31.000Z</time>
      </trkpt>
      <trkpt lat="42.26402317173779010772705078125" lon="1.80362152867019176483154296875">
        <ele>988.79998779296875</ele>
        <time>2020-08-11T05:59:33.000Z</time>
      </trkpt>
      <trkpt lat="42.2640167176723480224609375" lon="1.8035828880965709686279296875">
        <ele>989.5999755859375</ele>
        <time>2020-08-11T05:59:35.000Z</time>
      </trkpt>
      <trkpt lat="42.2639898955821990966796875" lon="1.80350233800709247589111328125">
        <ele>990.5999755859375</ele>
        <time>2020-08-11T05:59:40.000Z</time>
      </trkpt>
      <trkpt lat="42.2639853693544864654541015625" lon="1.80348842404782772064208984375">
        <ele>990.79998779296875</ele>
        <time>2020-08-11T05:59:41.000Z</time>
      </trkpt>
      <trkpt lat="42.26396751590073108673095703125" lon="1.8034243024885654449462890625">
        <ele>991.79998779296875</ele>
        <time>2020-08-11T05:59:45.000Z</time>
      </trkpt>
      <trkpt lat="42.263954691588878631591796875" lon="1.80338800884783267974853515625">
        <ele>992</ele>
        <time>2020-08-11T05:59:47.000Z</time>
      </trkpt>
      <trkpt lat="42.26394639350473880767822265625" lon="1.80336085148155689239501953125">
        <ele>992.4000244140625</ele>
        <time>2020-08-11T05:59:49.000Z</time>
      </trkpt>
      <trkpt lat="42.2639407776296138763427734375" lon="1.80333553813397884368896484375">
        <ele>993</ele>
        <time>2020-08-11T05:59:51.000Z</time>
      </trkpt>
      <trkpt lat="42.26393801160156726837158203125" lon="1.8033230490982532501220703125">
        <ele>993.20001220703125</ele>
        <time>2020-08-11T05:59:52.000Z</time>
      </trkpt>
      <trkpt lat="42.2639163024723529815673828125" lon="1.8032504618167877197265625">
        <ele>994</ele>
        <time>2020-08-11T05:59:57.000Z</time>
      </trkpt>
      <trkpt lat="42.26388973183929920196533203125" lon="1.80316924117505550384521484375">
        <ele>994.4000244140625</ele>
        <time>2020-08-11T06:00:03.000Z</time>
      </trkpt>
      <trkpt lat="42.26385704241693019866943359375" lon="1.80308927781879901885986328125">
        <ele>995.20001220703125</ele>
        <time>2020-08-11T06:00:10.000Z</time>
      </trkpt>
      <trkpt lat="42.2638505883514881134033203125" lon="1.803082488477230072021484375">
        <ele>995.5999755859375</ele>
        <time>2020-08-11T06:00:11.000Z</time>
      </trkpt>
      <trkpt lat="42.2638469003140926361083984375" lon="1.80306664668023586273193359375">
        <ele>995.79998779296875</ele>
        <time>2020-08-11T06:00:12.000Z</time>
      </trkpt>
      <trkpt lat="42.26382787339389324188232421875" lon="1.80301778018474578857421875">
        <ele>996.5999755859375</ele>
        <time>2020-08-11T06:00:16.000Z</time>
      </trkpt>
      <trkpt lat="42.26379342377185821533203125" lon="1.80294225923717021942138671875">
        <ele>997.5999755859375</ele>
        <time>2020-08-11T06:00:21.000Z</time>
      </trkpt>
      <trkpt lat="42.2637865506112575531005859375" lon="1.802924238145351409912109375">
        <ele>997.5999755859375</ele>
        <time>2020-08-11T06:00:22.000Z</time>
      </trkpt>
      <trkpt lat="42.263739109039306640625" lon="1.8028338812291622161865234375">
        <ele>998.5999755859375</ele>
        <time>2020-08-11T06:00:28.000Z</time>
      </trkpt>
      <trkpt lat="42.2637329064309597015380859375" lon="1.802826337516307830810546875">
        <ele>998.79998779296875</ele>
        <time>2020-08-11T06:00:29.000Z</time>
      </trkpt>
      <trkpt lat="42.26372695527970790863037109375" lon="1.802804209291934967041015625">
        <ele>999.20001220703125</ele>
        <time>2020-08-11T06:00:31.000Z</time>
      </trkpt>
      <trkpt lat="42.26371086202561855316162109375" lon="1.80275970138609409332275390625">
        <ele>999.5999755859375</ele>
        <time>2020-08-11T06:00:34.000Z</time>
      </trkpt>
      <trkpt lat="42.26369510404765605926513671875" lon="1.8027151934802532196044921875">
        <ele>1000</ele>
        <time>2020-08-11T06:00:37.000Z</time>
      </trkpt>
      <trkpt lat="42.2636916674673557281494140625" lon="1.80266431532800197601318359375">
        <ele>1000.5999755859375</ele>
        <time>2020-08-11T06:00:40.000Z</time>
      </trkpt>
      <trkpt lat="42.26368085481226444244384765625" lon="1.80259642191231250762939453125">
        <ele>1001</ele>
        <time>2020-08-11T06:00:44.000Z</time>
      </trkpt>
      <trkpt lat="42.263672053813934326171875" lon="1.80256708525121212005615234375">
        <ele>1001.5999755859375</ele>
        <time>2020-08-11T06:00:46.000Z</time>
      </trkpt>
      <trkpt lat="42.2636519372463226318359375" lon="1.8025180511176586151123046875">
        <ele>1002.4000244140625</ele>
        <time>2020-08-11T06:00:49.000Z</time>
      </trkpt>
      <trkpt lat="42.26362871937453746795654296875" lon="1.80245845578610897064208984375">
        <ele>1003</ele>
        <time>2020-08-11T06:00:53.000Z</time>
      </trkpt>
      <trkpt lat="42.2636182419955730438232421875" lon="1.80242710746824741363525390625">
        <ele>1003.5999755859375</ele>
        <time>2020-08-11T06:00:55.000Z</time>
      </trkpt>
      <trkpt lat="42.2635927610099315643310546875" lon="1.80236600339412689208984375">
        <ele>1004.20001220703125</ele>
        <time>2020-08-11T06:00:59.000Z</time>
      </trkpt>
      <trkpt lat="42.26357557810842990875244140625" lon="1.802324764430522918701171875">
        <ele>1004.5999755859375</ele>
        <time>2020-08-11T06:01:02.000Z</time>
      </trkpt>
      <trkpt lat="42.263567447662353515625" lon="1.80228310637176036834716796875">
        <ele>1005</ele>
        <time>2020-08-11T06:01:05.000Z</time>
      </trkpt>
      <trkpt lat="42.26354221813380718231201171875" lon="1.80221445858478546142578125">
        <ele>1005.5999755859375</ele>
        <time>2020-08-11T06:01:10.000Z</time>
      </trkpt>
      <trkpt lat="42.2635374404489994049072265625" lon="1.802187301218509674072265625">
        <ele>1005.79998779296875</ele>
        <time>2020-08-11T06:01:12.000Z</time>
      </trkpt>
      <trkpt lat="42.26351447403430938720703125" lon="1.8021194078028202056884765625">
        <ele>1006</ele>
        <time>2020-08-11T06:01:17.000Z</time>
      </trkpt>
      <trkpt lat="42.2635129652917385101318359375" lon="1.80210323072969913482666015625">
        <ele>1006.20001220703125</ele>
        <time>2020-08-11T06:01:18.000Z</time>
      </trkpt>
      <trkpt lat="42.263513468205928802490234375" lon="1.8020154722034931182861328125">
        <ele>1006.79998779296875</ele>
        <time>2020-08-11T06:01:23.000Z</time>
      </trkpt>
      <trkpt lat="42.26351271383464336395263671875" lon="1.8019983731210231781005859375">
        <ele>1007</ele>
        <time>2020-08-11T06:01:24.000Z</time>
      </trkpt>
      <trkpt lat="42.263500727713108062744140625" lon="1.80192888714373111724853515625">
        <ele>1007.20001220703125</ele>
        <time>2020-08-11T06:01:28.000Z</time>
      </trkpt>
      <trkpt lat="42.2634990513324737548828125" lon="1.80189217440783977508544921875">
        <ele>1007.4000244140625</ele>
        <time>2020-08-11T06:01:30.000Z</time>
      </trkpt>
      <trkpt lat="42.26348840631544589996337890625" lon="1.80182109586894512176513671875">
        <ele>1007.79998779296875</ele>
        <time>2020-08-11T06:01:34.000Z</time>
      </trkpt>
      <trkpt lat="42.26348421536386013031005859375" lon="1.80178924463689327239990234375">
        <ele>1008</ele>
        <time>2020-08-11T06:01:36.000Z</time>
      </trkpt>
      <trkpt lat="42.26348153315484523773193359375" lon="1.8017578125">
        <ele>1008.5999755859375</ele>
        <time>2020-08-11T06:01:38.000Z</time>
      </trkpt>
      <trkpt lat="42.2634821198880672454833984375" lon="1.80172839201986789703369140625">
        <ele>1009</ele>
        <time>2020-08-11T06:01:40.000Z</time>
      </trkpt>
      <trkpt lat="42.26347851566970348358154296875" lon="1.80169201456010341644287109375">
        <ele>1009.20001220703125</ele>
        <time>2020-08-11T06:01:42.000Z</time>
      </trkpt>
      <trkpt lat="42.26344113238155841827392578125" lon="1.8015719018876552581787109375">
        <ele>1009.5999755859375</ele>
        <time>2020-08-11T06:01:49.000Z</time>
      </trkpt>
      <trkpt lat="42.26343090645968914031982421875" lon="1.801521442830562591552734375">
        <ele>1010</ele>
        <time>2020-08-11T06:01:52.000Z</time>
      </trkpt>
      <trkpt lat="42.2634257934987545013427734375" lon="1.801472492516040802001953125">
        <ele>1010.4000244140625</ele>
        <time>2020-08-11T06:01:55.000Z</time>
      </trkpt>
      <trkpt lat="42.2634200938045978546142578125" lon="1.80144541896879673004150390625">
        <ele>1011</ele>
        <time>2020-08-11T06:01:57.000Z</time>
      </trkpt>
      <trkpt lat="42.26340760476887226104736328125" lon="1.80138699710369110107421875">
        <ele>1011.20001220703125</ele>
        <time>2020-08-11T06:02:01.000Z</time>
      </trkpt>
      <trkpt lat="42.26337944157421588897705078125" lon="1.801308207213878631591796875">
        <ele>1012</ele>
        <time>2020-08-11T06:02:06.000Z</time>
      </trkpt>
      <trkpt lat="42.2633729875087738037109375" lon="1.80129152722656726837158203125">
        <ele>1012</ele>
        <time>2020-08-11T06:02:07.000Z</time>
      </trkpt>
      <trkpt lat="42.2633600793778896331787109375" lon="1.801208294928073883056640625">
        <ele>1013.20001220703125</ele>
        <time>2020-08-11T06:02:12.000Z</time>
      </trkpt>
      <trkpt lat="42.26334750652313232421875" lon="1.80115004070103168487548828125">
        <ele>1013.5999755859375</ele>
        <time>2020-08-11T06:02:15.000Z</time>
      </trkpt>
      <trkpt lat="42.26334205828607082366943359375" lon="1.801050044596195220947265625">
        <ele>1014.4000244140625</ele>
        <time>2020-08-11T06:02:21.000Z</time>
      </trkpt>
      <trkpt lat="42.2633446566760540008544921875" lon="1.80103185586631298065185546875">
        <ele>1014.4000244140625</ele>
        <time>2020-08-11T06:02:22.000Z</time>
      </trkpt>
      <trkpt lat="42.2633557207882404327392578125" lon="1.800980977714061737060546875">
        <ele>1014.79998779296875</ele>
        <time>2020-08-11T06:02:25.000Z</time>
      </trkpt>
      <trkpt lat="42.26335513405501842498779296875" lon="1.800907216966152191162109375">
        <ele>1014.79998779296875</ele>
        <time>2020-08-11T06:02:29.000Z</time>
      </trkpt>
      <trkpt lat="42.2633718140423297882080078125" lon="1.8008218891918659210205078125">
        <ele>1015.4000244140625</ele>
        <time>2020-08-11T06:02:34.000Z</time>
      </trkpt>
      <trkpt lat="42.26338614709675312042236328125" lon="1.800773441791534423828125">
        <ele>1015.5999755859375</ele>
        <time>2020-08-11T06:02:37.000Z</time>
      </trkpt>
      <trkpt lat="42.26343845017254352569580078125" lon="1.80067528970539569854736328125">
        <ele>1016</ele>
        <time>2020-08-11T06:02:44.000Z</time>
      </trkpt>
      <trkpt lat="42.26345504634082317352294921875" lon="1.80056179873645305633544921875">
        <ele>1016.20001220703125</ele>
        <time>2020-08-11T06:02:51.000Z</time>
      </trkpt>
      <trkpt lat="42.26347398944199085235595703125" lon="1.8004658259451389312744140625">
        <ele>1017</ele>
        <time>2020-08-11T06:02:57.000Z</time>
      </trkpt>
      <trkpt lat="42.2634764201939105987548828125" lon="1.8004510737955570220947265625">
        <ele>1017.20001220703125</ele>
        <time>2020-08-11T06:02:58.000Z</time>
      </trkpt>
      <trkpt lat="42.2634794376790523529052734375" lon="1.80043690837919712066650390625">
        <ele>1017.4000244140625</ele>
        <time>2020-08-11T06:02:59.000Z</time>
      </trkpt>
      <trkpt lat="42.26348253898322582244873046875" lon="1.80038946680724620819091796875">
        <ele>1017.79998779296875</ele>
        <time>2020-08-11T06:03:02.000Z</time>
      </trkpt>
      <trkpt lat="42.263481281697750091552734375" lon="1.80037454701960086822509765625">
        <ele>1018</ele>
        <time>2020-08-11T06:03:03.000Z</time>
      </trkpt>
      <trkpt lat="42.26348186843097209930419921875" lon="1.80030514486134052276611328125">
        <ele>1018.4000244140625</ele>
        <time>2020-08-11T06:03:07.000Z</time>
      </trkpt>
      <trkpt lat="42.26348153315484523773193359375" lon="1.8002847768366336822509765625">
        <ele>1018.4000244140625</ele>
        <time>2020-08-11T06:03:08.000Z</time>
      </trkpt>
      <trkpt lat="42.26351070217788219451904296875" lon="1.80019450373947620391845703125">
        <ele>1018.4000244140625</ele>
        <time>2020-08-11T06:03:14.000Z</time>
      </trkpt>
      <trkpt lat="42.263528220355510711669921875" lon="1.8001644127070903778076171875">
        <ele>1018.4000244140625</ele>
        <time>2020-08-11T06:03:16.000Z</time>
      </trkpt>
      <trkpt lat="42.26356032304465770721435546875" lon="1.80014404468238353729248046875">
        <ele>1018.79998779296875</ele>
        <time>2020-08-11T06:03:19.000Z</time>
      </trkpt>
      <trkpt lat="42.26359167136251926422119140625" lon="1.800139434635639190673828125">
        <ele>1019.20001220703125</ele>
        <time>2020-08-11T06:03:22.000Z</time>
      </trkpt>
      <trkpt lat="42.26361044682562351226806640625" lon="1.80013482458889484405517578125">
        <ele>1019.4000244140625</ele>
        <time>2020-08-11T06:03:24.000Z</time>
      </trkpt>
      <trkpt lat="42.2636210918426513671875" lon="1.80013733915984630584716796875">
        <ele>1019.4000244140625</ele>
        <time>2020-08-11T06:03:25.000Z</time>
      </trkpt>
      <trkpt lat="42.263713963329792022705078125" lon="1.80018796585500240325927734375">
        <ele>1020</ele>
        <time>2020-08-11T06:03:32.000Z</time>
      </trkpt>
      <trkpt lat="42.26373835466802120208740234375" lon="1.80020137690007686614990234375">
        <ele>1020</ele>
        <time>2020-08-11T06:03:34.000Z</time>
      </trkpt>
      <trkpt lat="42.2637711279094219207763671875" lon="1.8002287857234477996826171875">
        <ele>1020.20001220703125</ele>
        <time>2020-08-11T06:03:37.000Z</time>
      </trkpt>
      <trkpt lat="42.26380524225533008575439453125" lon="1.800279580056667327880859375">
        <ele>1021.20001220703125</ele>
        <time>2020-08-11T06:03:41.000Z</time>
      </trkpt>
      <trkpt lat="42.26381496526300907135009765625" lon="1.8002931587398052215576171875">
        <ele>1021.20001220703125</ele>
        <time>2020-08-11T06:03:42.000Z</time>
      </trkpt>
      <trkpt lat="42.26382435299456119537353515625" lon="1.80030514486134052276611328125">
        <ele>1021.20001220703125</ele>
        <time>2020-08-11T06:03:43.000Z</time>
      </trkpt>
      <trkpt lat="42.26383374072611331939697265625" lon="1.8003186397254467010498046875">
        <ele>1021.20001220703125</ele>
        <time>2020-08-11T06:03:44.000Z</time>
      </trkpt>
      <trkpt lat="42.26384061388671398162841796875" lon="1.8003308773040771484375">
        <ele>1021.20001220703125</ele>
        <time>2020-08-11T06:03:45.000Z</time>
      </trkpt>
      <trkpt lat="42.26385251618921756744384765625" lon="1.80038041435182094573974609375">
        <ele>1021.4000244140625</ele>
        <time>2020-08-11T06:03:48.000Z</time>
      </trkpt>
      <trkpt lat="42.26388193666934967041015625" lon="1.800479404628276824951171875">
        <ele>1022</ele>
        <time>2020-08-11T06:03:54.000Z</time>
      </trkpt>
      <trkpt lat="42.26388872601091861724853515625" lon="1.80049440823495388031005859375">
        <ele>1022.20001220703125</ele>
        <time>2020-08-11T06:03:55.000Z</time>
      </trkpt>
      <trkpt lat="42.2639005444943904876708984375" lon="1.800545118749141693115234375">
        <ele>1022.5999755859375</ele>
        <time>2020-08-11T06:03:58.000Z</time>
      </trkpt>
      <trkpt lat="42.26390951313078403472900390625" lon="1.80060203187167644500732421875">
        <ele>1023</ele>
        <time>2020-08-11T06:04:01.000Z</time>
      </trkpt>
      <trkpt lat="42.26391144096851348876953125" lon="1.800622232258319854736328125">
        <ele>1023.20001220703125</ele>
        <time>2020-08-11T06:04:02.000Z</time>
      </trkpt>
      <trkpt lat="42.263916470110416412353515625" lon="1.800657771527767181396484375">
        <ele>1023.5999755859375</ele>
        <time>2020-08-11T06:04:04.000Z</time>
      </trkpt>
      <trkpt lat="42.26393415592610836029052734375" lon="1.8007122538983821868896484375">
        <ele>1024.199951171875</ele>
        <time>2020-08-11T06:04:07.000Z</time>
      </trkpt>
      <trkpt lat="42.263939268887042999267578125" lon="1.8007333762943744659423828125">
        <ele>1024</ele>
        <time>2020-08-11T06:04:08.000Z</time>
      </trkpt>
      <trkpt lat="42.26396466605365276336669921875" lon="1.80083848536014556884765625">
        <ele>1024.5999755859375</ele>
        <time>2020-08-11T06:04:14.000Z</time>
      </trkpt>
      <trkpt lat="42.26397304795682430267333984375" lon="1.8009003438055515289306640625">
        <ele>1025.199951171875</ele>
        <time>2020-08-11T06:04:17.000Z</time>
      </trkpt>
      <trkpt lat="42.26399702019989490509033203125" lon="1.80094786919653415679931640625">
        <ele>1025.800048828125</ele>
        <time>2020-08-11T06:04:20.000Z</time>
      </trkpt>
      <trkpt lat="42.264007665216922760009765625" lon="1.80095792748034000396728515625">
        <ele>1026</ele>
        <time>2020-08-11T06:04:21.000Z</time>
      </trkpt>
      <trkpt lat="42.2640185616910457611083984375" lon="1.80096580646932125091552734375">
        <ele>1026.199951171875</ele>
        <time>2020-08-11T06:04:22.000Z</time>
      </trkpt>
      <trkpt lat="42.2640581242740154266357421875" lon="1.80098072625696659088134765625">
        <ele>1027</ele>
        <time>2020-08-11T06:04:26.000Z</time>
      </trkpt>
      <trkpt lat="42.2640681825578212738037109375" lon="1.8009751103818416595458984375">
        <ele>1027.4000244140625</ele>
        <time>2020-08-11T06:04:27.000Z</time>
      </trkpt>
      <trkpt lat="42.26412911899387836456298828125" lon="1.80088349618017673492431640625">
        <ele>1027.800048828125</ele>
        <time>2020-08-11T06:04:34.000Z</time>
      </trkpt>
      <trkpt lat="42.26413599215447902679443359375" lon="1.80085198022425174713134765625">
        <ele>1028.199951171875</ele>
        <time>2020-08-11T06:04:36.000Z</time>
      </trkpt>
      <trkpt lat="42.26412878371775150299072265625" lon="1.800795905292034149169921875">
        <ele>1028.800048828125</ele>
        <time>2020-08-11T06:04:39.000Z</time>
      </trkpt>
      <trkpt lat="42.264118306338787078857421875" lon="1.8007642216980457305908203125">
        <ele>1029.199951171875</ele>
        <time>2020-08-11T06:04:41.000Z</time>
      </trkpt>
      <trkpt lat="42.2641104273498058319091796875" lon="1.8007484637200832366943359375">
        <ele>1029.4000244140625</ele>
        <time>2020-08-11T06:04:42.000Z</time>
      </trkpt>
      <trkpt lat="42.2640879638493061065673828125" lon="1.8006706796586513519287109375">
        <ele>1030.4000244140625</ele>
        <time>2020-08-11T06:04:47.000Z</time>
      </trkpt>
      <trkpt lat="42.26408578455448150634765625" lon="1.80065433494746685028076171875">
        <ele>1030.5999755859375</ele>
        <time>2020-08-11T06:04:48.000Z</time>
      </trkpt>
      <trkpt lat="42.2640758939087390899658203125" lon="1.8005878664553165435791015625">
        <ele>1031.4000244140625</ele>
        <time>2020-08-11T06:04:53.000Z</time>
      </trkpt>
      <trkpt lat="42.2640732116997241973876953125" lon="1.80057571269571781158447265625">
        <ele>1031.4000244140625</ele>
        <time>2020-08-11T06:04:54.000Z</time>
      </trkpt>
      <trkpt lat="42.2640594653785228729248046875" lon="1.800516285002231597900390625">
        <ele>1032.5999755859375</ele>
        <time>2020-08-11T06:04:58.000Z</time>
      </trkpt>
      <trkpt lat="42.2640623152256011962890625" lon="1.80048066191375255584716796875">
        <ele>1033.199951171875</ele>
        <time>2020-08-11T06:05:00.000Z</time>
      </trkpt>
      <trkpt lat="42.26406441070139408111572265625" lon="1.80042852647602558135986328125">
        <ele>1033.800048828125</ele>
        <time>2020-08-11T06:05:03.000Z</time>
      </trkpt>
      <trkpt lat="42.26406164467334747314453125" lon="1.8003746308386325836181640625">
        <ele>1034.199951171875</ele>
        <time>2020-08-11T06:05:06.000Z</time>
      </trkpt>
      <trkpt lat="42.26405167020857334136962890625" lon="1.800317130982875823974609375">
        <ele>1034.800048828125</ele>
        <time>2020-08-11T06:05:09.000Z</time>
      </trkpt>
      <trkpt lat="42.2640256024897098541259765625" lon="1.8002334795892238616943359375">
        <ele>1035.800048828125</ele>
        <time>2020-08-11T06:05:14.000Z</time>
      </trkpt>
      <trkpt lat="42.2639991156756877899169921875" lon="1.800140775740146636962890625">
        <ele>1036.800048828125</ele>
        <time>2020-08-11T06:05:20.000Z</time>
      </trkpt>
      <trkpt lat="42.26399299688637256622314453125" lon="1.80012610740959644317626953125">
        <ele>1036.800048828125</ele>
        <time>2020-08-11T06:05:21.000Z</time>
      </trkpt>
      <trkpt lat="42.26396718062460422515869140625" lon="1.800050921738147735595703125">
        <ele>1037.800048828125</ele>
        <time>2020-08-11T06:05:26.000Z</time>
      </trkpt>
      <trkpt lat="42.26395863108336925506591796875" lon="1.8000011332333087921142578125">
        <ele>1038.4000244140625</ele>
        <time>2020-08-11T06:05:29.000Z</time>
      </trkpt>
      <trkpt lat="42.263958714902400970458984375" lon="1.799967102706432342529296875">
        <ele>1039</ele>
        <time>2020-08-11T06:05:31.000Z</time>
      </trkpt>
      <trkpt lat="42.263961397111415863037109375" lon="1.79988839663565158843994140625">
        <ele>1040.199951171875</ele>
        <time>2020-08-11T06:05:36.000Z</time>
      </trkpt>
      <trkpt lat="42.2639630734920501708984375" lon="1.79987096227705478668212890625">
        <ele>1040.199951171875</ele>
        <time>2020-08-11T06:05:37.000Z</time>
      </trkpt>
      <trkpt lat="42.26399165578186511993408203125" lon="1.7997758276760578155517578125">
        <ele>1041</ele>
        <time>2020-08-11T06:05:43.000Z</time>
      </trkpt>
      <trkpt lat="42.26399567909538745880126953125" lon="1.79975931532680988311767578125">
        <ele>1041.199951171875</ele>
        <time>2020-08-11T06:05:44.000Z</time>
      </trkpt>
      <trkpt lat="42.26401831023395061492919921875" lon="1.79966392926871776580810546875">
        <ele>1042</ele>
        <time>2020-08-11T06:05:50.000Z</time>
      </trkpt>
      <trkpt lat="42.264025770127773284912109375" lon="1.79964884184300899505615234375">
        <ele>1042.199951171875</ele>
        <time>2020-08-11T06:05:51.000Z</time>
      </trkpt>
      <trkpt lat="42.264051921665668487548828125" lon="1.79960877634584903717041015625">
        <ele>1042.5999755859375</ele>
        <time>2020-08-11T06:05:54.000Z</time>
      </trkpt>
      <trkpt lat="42.2640628181397914886474609375" lon="1.7995798587799072265625">
        <ele>1042.800048828125</ele>
        <time>2020-08-11T06:05:56.000Z</time>
      </trkpt>
      <trkpt lat="42.26406642235815525054931640625" lon="1.7995635978877544403076171875">
        <ele>1043.199951171875</ele>
        <time>2020-08-11T06:05:57.000Z</time>
      </trkpt>
      <trkpt lat="42.26407195441424846649169921875" lon="1.79945823736488819122314453125">
        <ele>1043.800048828125</ele>
        <time>2020-08-11T06:06:03.000Z</time>
      </trkpt>
      <trkpt lat="42.264068014919757843017578125" lon="1.79944080300629138946533203125">
        <ele>1044</ele>
        <time>2020-08-11T06:06:04.000Z</time>
      </trkpt>
      <trkpt lat="42.26404077373445034027099609375" lon="1.79936385713517665863037109375">
        <ele>1044.800048828125</ele>
        <time>2020-08-11T06:06:09.000Z</time>
      </trkpt>
      <trkpt lat="42.26402602158486843109130859375" lon="1.79933150298893451690673828125">
        <ele>1045.199951171875</ele>
        <time>2020-08-11T06:06:11.000Z</time>
      </trkpt>
      <trkpt lat="42.263992242515087127685546875" lon="1.799270398914813995361328125">
        <ele>1045.800048828125</ele>
        <time>2020-08-11T06:06:15.000Z</time>
      </trkpt>
      <trkpt lat="42.263961732387542724609375" lon="1.7992232926189899444580078125">
        <ele>1046</ele>
        <time>2020-08-11T06:06:18.000Z</time>
      </trkpt>
      <trkpt lat="42.2639287076890468597412109375" lon="1.7991850711405277252197265625">
        <ele>1046.4000244140625</ele>
        <time>2020-08-11T06:06:21.000Z</time>
      </trkpt>
      <trkpt lat="42.26388989947736263275146484375" lon="1.7991466820240020751953125">
        <ele>1047</ele>
        <time>2020-08-11T06:06:25.000Z</time>
      </trkpt>
      <trkpt lat="42.263860814273357391357421875" lon="1.79910250939428806304931640625">
        <ele>1047.4000244140625</ele>
        <time>2020-08-11T06:06:28.000Z</time>
      </trkpt>
      <trkpt lat="42.2638482414186000823974609375" lon="1.7990714125335216522216796875">
        <ele>1047.800048828125</ele>
        <time>2020-08-11T06:06:30.000Z</time>
      </trkpt>
      <trkpt lat="42.26384547539055347442626953125" lon="1.79905557073652744293212890625">
        <ele>1048</ele>
        <time>2020-08-11T06:06:31.000Z</time>
      </trkpt>
      <trkpt lat="42.2638318128883838653564453125" lon="1.7990087158977985382080078125">
        <ele>1048.5999755859375</ele>
        <time>2020-08-11T06:06:35.000Z</time>
      </trkpt>
      <trkpt lat="42.2638308070600032806396484375" lon="1.7990087158977985382080078125">
        <ele>1048.5999755859375</ele>
        <time>2020-08-11T06:06:36.000Z</time>
      </trkpt>
      <trkpt lat="42.26382183842360973358154296875" lon="1.79898633621633052825927734375">
        <ele>1048.800048828125</ele>
        <time>2020-08-11T06:07:34.000Z</time>
      </trkpt>
      <trkpt lat="42.26381882093846797943115234375" lon="1.798952557146549224853515625">
        <ele>1048.800048828125</ele>
        <time>2020-08-11T06:07:40.000Z</time>
      </trkpt>
      <trkpt lat="42.26384078152477741241455078125" lon="1.798810400068759918212890625">
        <ele>1049.4000244140625</ele>
        <time>2020-08-11T06:07:48.000Z</time>
      </trkpt>
      <trkpt lat="42.2638455592095851898193359375" lon="1.798794306814670562744140625">
        <ele>1049.5999755859375</ele>
        <time>2020-08-11T06:07:49.000Z</time>
      </trkpt>
      <trkpt lat="42.26386525668203830718994140625" lon="1.79870537482202053070068359375">
        <ele>1050.4000244140625</ele>
        <time>2020-08-11T06:07:54.000Z</time>
      </trkpt>
      <trkpt lat="42.2638717107474803924560546875" lon="1.79865022189915180206298828125">
        <ele>1051</ele>
        <time>2020-08-11T06:07:57.000Z</time>
      </trkpt>
      <trkpt lat="42.2638898156583309173583984375" lon="1.79852549917995929718017578125">
        <ele>1051.5999755859375</ele>
        <time>2020-08-11T06:08:04.000Z</time>
      </trkpt>
      <trkpt lat="42.26389073766767978668212890625" lon="1.79850940592586994171142578125">
        <ele>1051.800048828125</ele>
        <time>2020-08-11T06:08:05.000Z</time>
      </trkpt>
      <trkpt lat="42.26390741765499114990234375" lon="1.7984072305262088775634765625">
        <ele>1052.5999755859375</ele>
        <time>2020-08-11T06:08:11.000Z</time>
      </trkpt>
      <trkpt lat="42.2639067471027374267578125" lon="1.7983720265328884124755859375">
        <ele>1052.800048828125</ele>
        <time>2020-08-11T06:08:13.000Z</time>
      </trkpt>
      <trkpt lat="42.26391018368303775787353515625" lon="1.79835584945976734161376953125">
        <ele>1053</ele>
        <time>2020-08-11T06:08:14.000Z</time>
      </trkpt>
      <trkpt lat="42.2639240138232707977294921875" lon="1.79828577674925327301025390625">
        <ele>1053.4000244140625</ele>
        <time>2020-08-11T06:08:18.000Z</time>
      </trkpt>
      <trkpt lat="42.263945639133453369140625" lon="1.79818578064441680908203125">
        <ele>1054.5999755859375</ele>
        <time>2020-08-11T06:08:24.000Z</time>
      </trkpt>
      <trkpt lat="42.26395611651241779327392578125" lon="1.7981524206697940826416015625">
        <ele>1054.800048828125</ele>
        <time>2020-08-11T06:08:26.000Z</time>
      </trkpt>
      <trkpt lat="42.2639793343842029571533203125" lon="1.79806885309517383575439453125">
        <ele>1055.800048828125</ele>
        <time>2020-08-11T06:08:31.000Z</time>
      </trkpt>
      <trkpt lat="42.26398629136383533477783203125" lon="1.79801336489617824554443359375">
        <ele>1056.199951171875</ele>
        <time>2020-08-11T06:08:34.000Z</time>
      </trkpt>
      <trkpt lat="42.26398545317351818084716796875" lon="1.7979338206350803375244140625">
        <ele>1056.5999755859375</ele>
        <time>2020-08-11T06:08:39.000Z</time>
      </trkpt>
      <trkpt lat="42.2639890573918819427490234375" lon="1.79790473543107509613037109375">
        <ele>1056.800048828125</ele>
        <time>2020-08-11T06:08:41.000Z</time>
      </trkpt>
      <trkpt lat="42.263986207544803619384765625" lon="1.7978174798190593719482421875">
        <ele>1057.800048828125</ele>
        <time>2020-08-11T06:08:46.000Z</time>
      </trkpt>
      <trkpt lat="42.26397388614714145660400390625" lon="1.79776643402874469757080078125">
        <ele>1058</ele>
        <time>2020-08-11T06:08:49.000Z</time>
      </trkpt>
      <trkpt lat="42.2639696113765239715576171875" lon="1.79773005656898021697998046875">
        <ele>1058.4000244140625</ele>
        <time>2020-08-11T06:08:51.000Z</time>
      </trkpt>
      <trkpt lat="42.2639629058539867401123046875" lon="1.79767549037933349609375">
        <ele>1058.800048828125</ele>
        <time>2020-08-11T06:08:54.000Z</time>
      </trkpt>
      <trkpt lat="42.26396047510206699371337890625" lon="1.79765646345913410186767578125">
        <ele>1058.800048828125</ele>
        <time>2020-08-11T06:08:55.000Z</time>
      </trkpt>
      <trkpt lat="42.263962738215923309326171875" lon="1.797624193131923675537109375">
        <ele>1058.800048828125</ele>
        <time>2020-08-11T06:08:57.000Z</time>
      </trkpt>
      <trkpt lat="42.26396349258720874786376953125" lon="1.797541715204715728759765625">
        <ele>1059.199951171875</ele>
        <time>2020-08-11T06:09:02.000Z</time>
      </trkpt>
      <trkpt lat="42.2639665938913822174072265625" lon="1.79748496972024440765380859375">
        <ele>1059.4000244140625</ele>
        <time>2020-08-11T06:09:05.000Z</time>
      </trkpt>
      <trkpt lat="42.263972461223602294921875" lon="1.797452867031097412109375">
        <ele>1059.5999755859375</ele>
        <time>2020-08-11T06:09:07.000Z</time>
      </trkpt>
      <trkpt lat="42.263974808156490325927734375" lon="1.797417663037776947021484375">
        <ele>1059.800048828125</ele>
        <time>2020-08-11T06:09:09.000Z</time>
      </trkpt>
      <trkpt lat="42.26397288031876087188720703125" lon="1.79735437966883182525634765625">
        <ele>1060.199951171875</ele>
        <time>2020-08-11T06:09:12.000Z</time>
      </trkpt>
      <trkpt lat="42.2639739699661731719970703125" lon="1.79731364361941814422607421875">
        <ele>1060.5999755859375</ele>
        <time>2020-08-11T06:09:14.000Z</time>
      </trkpt>
      <trkpt lat="42.2639830224215984344482421875" lon="1.7972810380160808563232421875">
        <ele>1060.800048828125</ele>
        <time>2020-08-11T06:09:16.000Z</time>
      </trkpt>
      <trkpt lat="42.26398780010640621185302734375" lon="1.79726502858102321624755859375">
        <ele>1061</ele>
        <time>2020-08-11T06:09:17.000Z</time>
      </trkpt>
      <trkpt lat="42.2640044800937175750732421875" lon="1.797197721898555755615234375">
        <ele>1061.199951171875</ele>
        <time>2020-08-11T06:09:21.000Z</time>
      </trkpt>
      <trkpt lat="42.26401847787201404571533203125" lon="1.79712764918804168701171875">
        <ele>1061.800048828125</ele>
        <time>2020-08-11T06:09:25.000Z</time>
      </trkpt>
      <trkpt lat="42.2640219144523143768310546875" lon="1.79710862226784229278564453125">
        <ele>1062</ele>
        <time>2020-08-11T06:09:26.000Z</time>
      </trkpt>
      <trkpt lat="42.26403524167835712432861328125" lon="1.79700166918337345123291015625">
        <ele>1063</ele>
        <time>2020-08-11T06:09:32.000Z</time>
      </trkpt>
      <trkpt lat="42.26402484811842441558837890625" lon="1.79690661840140819549560546875">
        <ele>1064</ele>
        <time>2020-08-11T06:09:37.000Z</time>
      </trkpt>
      <trkpt lat="42.26401009596884250640869140625" lon="1.7968756891787052154541015625">
        <ele>1064.4000244140625</ele>
        <time>2020-08-11T06:09:39.000Z</time>
      </trkpt>
      <trkpt lat="42.26399995386600494384765625" lon="1.7968321032822132110595703125">
        <ele>1065</ele>
        <time>2020-08-11T06:09:42.000Z</time>
      </trkpt>
      <trkpt lat="42.263994924724102020263671875" lon="1.7968160100281238555908203125">
        <ele>1065</ele>
        <time>2020-08-11T06:09:43.000Z</time>
      </trkpt>
      <trkpt lat="42.2639914043247699737548828125" lon="1.7967997491359710693359375">
        <ele>1065.199951171875</ele>
        <time>2020-08-11T06:09:44.000Z</time>
      </trkpt>
      <trkpt lat="42.26397422142326831817626953125" lon="1.79669489152729511260986328125">
        <ele>1066.199951171875</ele>
        <time>2020-08-11T06:09:50.000Z</time>
      </trkpt>
      <trkpt lat="42.26392426528036594390869140625" lon="1.79657603614032268524169921875">
        <ele>1067.199951171875</ele>
        <time>2020-08-11T06:09:57.000Z</time>
      </trkpt>
      <trkpt lat="42.2638861276209354400634765625" lon="1.7964725196361541748046875">
        <ele>1067.5999755859375</ele>
        <time>2020-08-11T06:10:03.000Z</time>
      </trkpt>
      <trkpt lat="42.26385511457920074462890625" lon="1.79642063565552234649658203125">
        <ele>1068.199951171875</ele>
        <time>2020-08-11T06:10:07.000Z</time>
      </trkpt>
      <trkpt lat="42.26383826695382595062255859375" lon="1.79639247246086597442626953125">
        <ele>1068.4000244140625</ele>
        <time>2020-08-11T06:10:09.000Z</time>
      </trkpt>
      <trkpt lat="42.26377724669873714447021484375" lon="1.79632424376904964447021484375">
        <ele>1069.4000244140625</ele>
        <time>2020-08-11T06:10:15.000Z</time>
      </trkpt>
      <trkpt lat="42.2637560404837131500244140625" lon="1.7963030375540256500244140625">
        <ele>1069.5999755859375</ele>
        <time>2020-08-11T06:10:17.000Z</time>
      </trkpt>
      <trkpt lat="42.26370968855917453765869140625" lon="1.79624059237539768218994140625">
        <ele>1070.4000244140625</ele>
        <time>2020-08-11T06:10:22.000Z</time>
      </trkpt>
      <trkpt lat="42.26368420757353305816650390625" lon="1.79622936062514781951904296875">
        <ele>1070.800048828125</ele>
        <time>2020-08-11T06:10:24.000Z</time>
      </trkpt>
      <trkpt lat="42.26363475434482097625732421875" lon="1.79621008224785327911376953125">
        <ele>1071.199951171875</ele>
        <time>2020-08-11T06:10:28.000Z</time>
      </trkpt>
      <trkpt lat="42.26359896361827850341796875" lon="1.79619482718408107757568359375">
        <ele>1071.5999755859375</ele>
        <time>2020-08-11T06:10:31.000Z</time>
      </trkpt>
      <trkpt lat="42.2635391168296337127685546875" lon="1.79615191183984279632568359375">
        <ele>1072.4000244140625</ele>
        <time>2020-08-11T06:10:36.000Z</time>
      </trkpt>
      <trkpt lat="42.26350282318890094757080078125" lon="1.79612760432064533233642578125">
        <ele>1072.800048828125</ele>
        <time>2020-08-11T06:10:39.000Z</time>
      </trkpt>
      <trkpt lat="42.26346778683364391326904296875" lon="1.79609675891697406768798828125">
        <ele>1073.4000244140625</ele>
        <time>2020-08-11T06:10:42.000Z</time>
      </trkpt>
      <trkpt lat="42.26341724395751953125" lon="1.7960659973323345184326171875">
        <ele>1073.800048828125</ele>
        <time>2020-08-11T06:10:46.000Z</time>
      </trkpt>
      <trkpt lat="42.26336963474750518798828125" lon="1.79604110307991504669189453125">
        <ele>1074.4000244140625</ele>
        <time>2020-08-11T06:10:50.000Z</time>
      </trkpt>
      <trkpt lat="42.26333904080092906951904296875" lon="1.7960120178759098052978515625">
        <ele>1075</ele>
        <time>2020-08-11T06:10:53.000Z</time>
      </trkpt>
      <trkpt lat="42.26329981349408626556396484375" lon="1.7959764786064624786376953125">
        <ele>1075.4000244140625</ele>
        <time>2020-08-11T06:10:57.000Z</time>
      </trkpt>
      <trkpt lat="42.26325170136988162994384765625" lon="1.79592744447290897369384765625">
        <ele>1076.5999755859375</ele>
        <time>2020-08-11T06:11:02.000Z</time>
      </trkpt>
      <trkpt lat="42.26318917237222194671630859375" lon="1.795864664018154144287109375">
        <ele>1077.4000244140625</ele>
        <time>2020-08-11T06:11:08.000Z</time>
      </trkpt>
      <trkpt lat="42.2631703130900859832763671875" lon="1.795843876898288726806640625">
        <ele>1077.800048828125</ele>
        <time>2020-08-11T06:11:10.000Z</time>
      </trkpt>
      <trkpt lat="42.26314793340861797332763671875" lon="1.79580691270530223846435546875">
        <ele>1078.5999755859375</ele>
        <time>2020-08-11T06:11:13.000Z</time>
      </trkpt>
      <trkpt lat="42.26313896477222442626953125" lon="1.79571756161749362945556640625">
        <ele>1079.4000244140625</ele>
        <time>2020-08-11T06:11:19.000Z</time>
      </trkpt>
      <trkpt lat="42.2631503641605377197265625" lon="1.795667521655559539794921875">
        <ele>1079.5999755859375</ele>
        <time>2020-08-11T06:11:22.000Z</time>
      </trkpt>
      <trkpt lat="42.2631874121725559234619140625" lon="1.79559451527893543243408203125">
        <ele>1080.199951171875</ele>
        <time>2020-08-11T06:11:27.000Z</time>
      </trkpt>
      <trkpt lat="42.26328941993415355682373046875" lon="1.79551941342651844024658203125">
        <ele>1080.4000244140625</ele>
        <time>2020-08-11T06:11:35.000Z</time>
      </trkpt>
      <trkpt lat="42.26334021426737308502197265625" lon="1.795487143099308013916015625">
        <ele>1080.800048828125</ele>
        <time>2020-08-11T06:11:39.000Z</time>
      </trkpt>
      <trkpt lat="42.2633922658860683441162109375" lon="1.79546895436942577362060546875">
        <ele>1081.5999755859375</ele>
        <time>2020-08-11T06:11:43.000Z</time>
      </trkpt>
      <trkpt lat="42.26341917179524898529052734375" lon="1.79546576924622058868408203125">
        <ele>1081.800048828125</ele>
        <time>2020-08-11T06:11:45.000Z</time>
      </trkpt>
      <trkpt lat="42.2635109536349773406982421875" lon="1.7954712174832820892333984375">
        <ele>1082.199951171875</ele>
        <time>2020-08-11T06:11:51.000Z</time>
      </trkpt>
      <trkpt lat="42.26360826753079891204833984375" lon="1.79550088942050933837890625">
        <ele>1082.4000244140625</ele>
        <time>2020-08-11T06:11:58.000Z</time>
      </trkpt>
      <trkpt lat="42.2636464051902294158935546875" lon="1.79551203735172748565673828125">
        <ele>1082.5999755859375</ele>
        <time>2020-08-11T06:12:01.000Z</time>
      </trkpt>
      <trkpt lat="42.263699211180210113525390625" lon="1.79552963934838771820068359375">
        <ele>1083.4000244140625</ele>
        <time>2020-08-11T06:12:05.000Z</time>
      </trkpt>
      <trkpt lat="42.26372796110808849334716796875" lon="1.7955322377383708953857421875">
        <ele>1083.800048828125</ele>
        <time>2020-08-11T06:12:07.000Z</time>
      </trkpt>
      <trkpt lat="42.26380415260791778564453125" lon="1.79555830545723438262939453125">
        <ele>1084.800048828125</ele>
        <time>2020-08-11T06:12:13.000Z</time>
      </trkpt>
      <trkpt lat="42.26382904686033725738525390625" lon="1.79557138122618198394775390625">
        <ele>1085.199951171875</ele>
        <time>2020-08-11T06:12:15.000Z</time>
      </trkpt>
      <trkpt lat="42.2638787515461444854736328125" lon="1.7955895699560642242431640625">
        <ele>1085.800048828125</ele>
        <time>2020-08-11T06:12:19.000Z</time>
      </trkpt>
      <trkpt lat="42.2639173083007335662841796875" lon="1.795603819191455841064453125">
        <ele>1086.199951171875</ele>
        <time>2020-08-11T06:12:22.000Z</time>
      </trkpt>
      <trkpt lat="42.2639732994139194488525390625" lon="1.7956344969570636749267578125">
        <ele>1086.5999755859375</ele>
        <time>2020-08-11T06:12:27.000Z</time>
      </trkpt>
      <trkpt lat="42.26399551145732402801513671875" lon="1.795645058155059814453125">
        <ele>1087</ele>
        <time>2020-08-11T06:12:29.000Z</time>
      </trkpt>
      <trkpt lat="42.2640608064830303192138671875" lon="1.79567364044487476348876953125">
        <ele>1087.800048828125</ele>
        <time>2020-08-11T06:12:35.000Z</time>
      </trkpt>
      <trkpt lat="42.26407346315681934356689453125" lon="1.79567816667258739471435546875">
        <ele>1088</ele>
        <time>2020-08-11T06:12:36.000Z</time>
      </trkpt>
      <trkpt lat="42.26412467658519744873046875" lon="1.79570247419178485870361328125">
        <ele>1088.800048828125</ele>
        <time>2020-08-11T06:12:41.000Z</time>
      </trkpt>
      <trkpt lat="42.26413540542125701904296875" lon="1.79569861851632595062255859375">
        <ele>1089</ele>
        <time>2020-08-11T06:12:42.000Z</time>
      </trkpt>
      <trkpt lat="42.264197431504726409912109375" lon="1.79565335623919963836669921875">
        <ele>1089.800048828125</ele>
        <time>2020-08-11T06:12:48.000Z</time>
      </trkpt>
      <trkpt lat="42.26420690305531024932861328125" lon="1.79564170539379119873046875">
        <ele>1090</ele>
        <time>2020-08-11T06:12:49.000Z</time>
      </trkpt>
      <trkpt lat="42.26422182284295558929443359375" lon="1.7955966107547283172607421875">
        <ele>1090.4000244140625</ele>
        <time>2020-08-11T06:12:52.000Z</time>
      </trkpt>
      <trkpt lat="42.26422735489904880523681640625" lon="1.795549504458904266357421875">
        <ele>1090.5999755859375</ele>
        <time>2020-08-11T06:12:55.000Z</time>
      </trkpt>
      <trkpt lat="42.26422718726098537445068359375" lon="1.7955332435667514801025390625">
        <ele>1090.800048828125</ele>
        <time>2020-08-11T06:12:56.000Z</time>
      </trkpt>
      <trkpt lat="42.2642232477664947509765625" lon="1.79551673121750354766845703125">
        <ele>1091</ele>
        <time>2020-08-11T06:12:57.000Z</time>
      </trkpt>
      <trkpt lat="42.264187373220920562744140625" lon="1.7954479157924652099609375">
        <ele>1092</ele>
        <time>2020-08-11T06:13:01.000Z</time>
      </trkpt>
      <trkpt lat="42.26413683034479618072509765625" lon="1.79543224163353443145751953125">
        <ele>1093.199951171875</ele>
        <time>2020-08-11T06:13:05.000Z</time>
      </trkpt>
      <trkpt lat="42.26411520503461360931396484375" lon="1.79543383419513702392578125">
        <ele>1093.800048828125</ele>
        <time>2020-08-11T06:13:07.000Z</time>
      </trkpt>
      <trkpt lat="42.2640695236623287200927734375" lon="1.795425117015838623046875">
        <ele>1094.199951171875</ele>
        <time>2020-08-11T06:13:11.000Z</time>
      </trkpt>
      <trkpt lat="42.26401068270206451416015625" lon="1.7953941039741039276123046875">
        <ele>1095.4000244140625</ele>
        <time>2020-08-11T06:13:16.000Z</time>
      </trkpt>
      <trkpt lat="42.26395125500857830047607421875" lon="1.7953190021216869354248046875">
        <ele>1096.4000244140625</ele>
        <time>2020-08-11T06:13:22.000Z</time>
      </trkpt>
      <trkpt lat="42.2639075852930545806884765625" lon="1.79528103210031986236572265625">
        <ele>1097.4000244140625</ele>
        <time>2020-08-11T06:13:26.000Z</time>
      </trkpt>
      <trkpt lat="42.2638960182666778564453125" lon="1.7952757515013217926025390625">
        <ele>1097.5999755859375</ele>
        <time>2020-08-11T06:13:27.000Z</time>
      </trkpt>
      <trkpt lat="42.2638469003140926361083984375" lon="1.7952227778732776641845703125">
        <ele>1097.5999755859375</ele>
        <time>2020-08-11T06:13:32.000Z</time>
      </trkpt>
      <trkpt lat="42.26381328888237476348876953125" lon="1.7951496876776218414306640625">
        <ele>1098.5999755859375</ele>
        <time>2020-08-11T06:13:37.000Z</time>
      </trkpt>
      <trkpt lat="42.26381027139723300933837890625" lon="1.7951238714158535003662109375">
        <ele>1099</ele>
        <time>2020-08-11T06:13:39.000Z</time>
      </trkpt>
      <trkpt lat="42.26380289532244205474853515625" lon="1.79503477178514003753662109375">
        <ele>1099.800048828125</ele>
        <time>2020-08-11T06:13:45.000Z</time>
      </trkpt>
      <trkpt lat="42.26379518397152423858642578125" lon="1.79498531855642795562744140625">
        <ele>1100.5999755859375</ele>
        <time>2020-08-11T06:13:48.000Z</time>
      </trkpt>
      <trkpt lat="42.26379300467669963836669921875" lon="1.79496738128364086151123046875">
        <ele>1100.800048828125</ele>
        <time>2020-08-11T06:13:49.000Z</time>
      </trkpt>
      <trkpt lat="42.26377858780324459075927734375" lon="1.7948605120182037353515625">
        <ele>1101.5999755859375</ele>
        <time>2020-08-11T06:13:55.000Z</time>
      </trkpt>
      <trkpt lat="42.26377590559422969818115234375" lon="1.79484383203089237213134765625">
        <ele>1102</ele>
        <time>2020-08-11T06:13:56.000Z</time>
      </trkpt>
      <trkpt lat="42.263771630823612213134765625" lon="1.79481918923556804656982421875">
        <ele>1102.4000244140625</ele>
        <time>2020-08-11T06:13:59.000Z</time>
      </trkpt>
      <trkpt lat="42.2637691162526607513427734375" lon="1.794808208942413330078125">
        <ele>1102.800048828125</ele>
        <time>2020-08-11T06:15:58.000Z</time>
      </trkpt>
      <trkpt lat="42.26376920007169246673583984375" lon="1.79480812512338161468505859375">
        <ele>1103</ele>
        <time>2020-08-11T06:15:59.000Z</time>
      </trkpt>
      <trkpt lat="42.2637439705431461334228515625" lon="1.79476923309266567230224609375">
        <ele>1103</ele>
        <time>2020-08-11T06:16:04.000Z</time>
      </trkpt>
      <trkpt lat="42.263709604740142822265625" lon="1.79466093890368938446044921875">
        <ele>1103.5999755859375</ele>
        <time>2020-08-11T06:16:11.000Z</time>
      </trkpt>
      <trkpt lat="42.26369644515216350555419921875" lon="1.7946336977183818817138671875">
        <ele>1104</ele>
        <time>2020-08-11T06:16:13.000Z</time>
      </trkpt>
      <trkpt lat="42.26364162750542163848876953125" lon="1.7945585958659648895263671875">
        <ele>1104.800048828125</ele>
        <time>2020-08-11T06:16:19.000Z</time>
      </trkpt>
      <trkpt lat="42.26363274268805980682373046875" lon="1.794545352458953857421875">
        <ele>1105</ele>
        <time>2020-08-11T06:16:20.000Z</time>
      </trkpt>
      <trkpt lat="42.26358345709741115570068359375" lon="1.794491373002529144287109375">
        <ele>1105.4000244140625</ele>
        <time>2020-08-11T06:16:25.000Z</time>
      </trkpt>
      <trkpt lat="42.2635572217404842376708984375" lon="1.7944405786693096160888671875">
        <ele>1106</ele>
        <time>2020-08-11T06:16:29.000Z</time>
      </trkpt>
      <trkpt lat="42.263518162071704864501953125" lon="1.794397495687007904052734375">
        <ele>1106.4000244140625</ele>
        <time>2020-08-11T06:16:33.000Z</time>
      </trkpt>
      <trkpt lat="42.26347264833748340606689453125" lon="1.79433739744126796722412109375">
        <ele>1107</ele>
        <time>2020-08-11T06:16:38.000Z</time>
      </trkpt>
      <trkpt lat="42.26344599388539791107177734375" lon="1.7942940630018711090087890625">
        <ele>1107.4000244140625</ele>
        <time>2020-08-11T06:16:41.000Z</time>
      </trkpt>
      <trkpt lat="42.26340961642563343048095703125" lon="1.79425240494310855865478515625">
        <ele>1108</ele>
        <time>2020-08-11T06:16:45.000Z</time>
      </trkpt>
      <trkpt lat="42.2633852250874042510986328125" lon="1.79422357119619846343994140625">
        <ele>1108.4000244140625</ele>
        <time>2020-08-11T06:16:48.000Z</time>
      </trkpt>
      <trkpt lat="42.26335563696920871734619140625" lon="1.794183589518070220947265625">
        <ele>1109</ele>
        <time>2020-08-11T06:16:52.000Z</time>
      </trkpt>
      <trkpt lat="42.26334172300994396209716796875" lon="1.7941767163574695587158203125">
        <ele>1109.199951171875</ele>
        <time>2020-08-11T06:16:53.000Z</time>
      </trkpt>
      <trkpt lat="42.26333132945001125335693359375" lon="1.794169507920742034912109375">
        <ele>1109.4000244140625</ele>
        <time>2020-08-11T06:16:54.000Z</time>
      </trkpt>
      <trkpt lat="42.2633044235408306121826171875" lon="1.7941441945731639862060546875">
        <ele>1109.800048828125</ele>
        <time>2020-08-11T06:16:57.000Z</time>
      </trkpt>
      <trkpt lat="42.2632836364209651947021484375" lon="1.7941297776997089385986328125">
        <ele>1110.199951171875</ele>
        <time>2020-08-11T06:16:59.000Z</time>
      </trkpt>
      <trkpt lat="42.26327299140393733978271484375" lon="1.7941250838339328765869140625">
        <ele>1110.199951171875</ele>
        <time>2020-08-11T06:17:00.000Z</time>
      </trkpt>
      <trkpt lat="42.26324918679893016815185546875" lon="1.79411410354077816009521484375">
        <ele>1110.5999755859375</ele>
        <time>2020-08-11T06:17:02.000Z</time>
      </trkpt>
      <trkpt lat="42.26320467889308929443359375" lon="1.79408962838351726531982421875">
        <ele>1111.199951171875</ele>
        <time>2020-08-11T06:17:06.000Z</time>
      </trkpt>
      <trkpt lat="42.2631944529712200164794921875" lon="1.7940821684896945953369140625">
        <ele>1111.4000244140625</ele>
        <time>2020-08-11T06:17:07.000Z</time>
      </trkpt>
      <trkpt lat="42.26312513463199138641357421875" lon="1.79404956288635730743408203125">
        <ele>1112</ele>
        <time>2020-08-11T06:17:13.000Z</time>
      </trkpt>
      <trkpt lat="42.263101749122142791748046875" lon="1.794042102992534637451171875">
        <ele>1112.4000244140625</ele>
        <time>2020-08-11T06:17:15.000Z</time>
      </trkpt>
      <trkpt lat="42.2630512900650501251220703125" lon="1.79402056150138378143310546875">
        <ele>1113.4000244140625</ele>
        <time>2020-08-11T06:17:20.000Z</time>
      </trkpt>
      <trkpt lat="42.263039387762546539306640625" lon="1.7940144427120685577392578125">
        <ele>1113.5999755859375</ele>
        <time>2020-08-11T06:17:21.000Z</time>
      </trkpt>
      <trkpt lat="42.26298096589744091033935546875" lon="1.79397261701524257659912109375">
        <ele>1114.199951171875</ele>
        <time>2020-08-11T06:17:26.000Z</time>
      </trkpt>
      <trkpt lat="42.26293620653450489044189453125" lon="1.79393925704061985015869140625">
        <ele>1114.5999755859375</ele>
        <time>2020-08-11T06:17:30.000Z</time>
      </trkpt>
      <trkpt lat="42.26292195729911327362060546875" lon="1.79391981102526187896728515625">
        <ele>1114.800048828125</ele>
        <time>2020-08-11T06:17:32.000Z</time>
      </trkpt>
      <trkpt lat="42.26286127232015132904052734375" lon="1.7938659153878688812255859375">
        <ele>1115.5999755859375</ele>
        <time>2020-08-11T06:17:39.000Z</time>
      </trkpt>
      <trkpt lat="42.26281047798693180084228515625" lon="1.7938176356256008148193359375">
        <ele>1116.4000244140625</ele>
        <time>2020-08-11T06:17:44.000Z</time>
      </trkpt>
      <trkpt lat="42.2627998329699039459228515625" lon="1.7938072420656681060791015625">
        <ele>1116.4000244140625</ele>
        <time>2020-08-11T06:17:45.000Z</time>
      </trkpt>
      <trkpt lat="42.26275633089244365692138671875" lon="1.7937532626092433929443359375">
        <ele>1117</ele>
        <time>2020-08-11T06:17:50.000Z</time>
      </trkpt>
      <trkpt lat="42.26269665174186229705810546875" lon="1.79364287294447422027587890625">
        <ele>1118</ele>
        <time>2020-08-11T06:17:58.000Z</time>
      </trkpt>
      <trkpt lat="42.26268474943935871124267578125" lon="1.79362979717552661895751953125">
        <ele>1118</ele>
        <time>2020-08-11T06:17:59.000Z</time>
      </trkpt>
      <trkpt lat="42.26264409720897674560546875" lon="1.79354681633412837982177734375">
        <ele>1118.800048828125</ele>
        <time>2020-08-11T06:18:05.000Z</time>
      </trkpt>
      <trkpt lat="42.26263202726840972900390625" lon="1.79352066479623317718505859375">
        <ele>1119</ele>
        <time>2020-08-11T06:18:07.000Z</time>
      </trkpt>
      <trkpt lat="42.2626268304884433746337890625" lon="1.793507672846317291259765625">
        <ele>1119</ele>
        <time>2020-08-11T06:18:08.000Z</time>
      </trkpt>
      <trkpt lat="42.2626139223575592041015625" lon="1.79347875528037548065185546875">
        <ele>1119.4000244140625</ele>
        <time>2020-08-11T06:18:10.000Z</time>
      </trkpt>
      <trkpt lat="42.262553907930850982666015625" lon="1.7933697067201137542724609375">
        <ele>1119.5999755859375</ele>
        <time>2020-08-11T06:18:18.000Z</time>
      </trkpt>
      <trkpt lat="42.26251442916691303253173828125" lon="1.79331782273948192596435546875">
        <ele>1119.800048828125</ele>
        <time>2020-08-11T06:18:25.000Z</time>
      </trkpt>
      <trkpt lat="42.26243999786674976348876953125" lon="1.79324205033481121063232421875">
        <ele>1120</ele>
        <time>2020-08-11T06:18:32.000Z</time>
      </trkpt>
      <trkpt lat="42.2623857669532299041748046875" lon="1.79316124878823757171630859375">
        <ele>1119.5999755859375</ele>
        <time>2020-08-11T06:18:38.000Z</time>
      </trkpt>
      <trkpt lat="42.2623602859675884246826171875" lon="1.7930428124964237213134765625">
        <ele>1119.800048828125</ele>
        <time>2020-08-11T06:18:44.000Z</time>
      </trkpt>
      <trkpt lat="42.262388952076435089111328125" lon="1.79293259046971797943115234375">
        <ele>1120</ele>
        <time>2020-08-11T06:18:49.000Z</time>
      </trkpt>
      <trkpt lat="42.2624072246253490447998046875" lon="1.79288766346871852874755859375">
        <ele>1120.199951171875</ele>
        <time>2020-08-11T06:18:51.000Z</time>
      </trkpt>
      <trkpt lat="42.26242826320230960845947265625" lon="1.792837791144847869873046875">
        <ele>1120.4000244140625</ele>
        <time>2020-08-11T06:18:54.000Z</time>
      </trkpt>
      <trkpt lat="42.26246011443436145782470703125" lon="1.7927563190460205078125">
        <ele>1120.800048828125</ele>
        <time>2020-08-11T06:18:59.000Z</time>
      </trkpt>
      <trkpt lat="42.26250168867409229278564453125" lon="1.7926733382046222686767578125">
        <ele>1121</ele>
        <time>2020-08-11T06:19:04.000Z</time>
      </trkpt>
      <trkpt lat="42.26252968423068523406982421875" lon="1.79256211034953594207763671875">
        <ele>1121.4000244140625</ele>
        <time>2020-08-11T06:19:09.000Z</time>
      </trkpt>
      <trkpt lat="42.26252934895455837249755859375" lon="1.79254400543868541717529296875">
        <ele>1121.5999755859375</ele>
        <time>2020-08-11T06:19:10.000Z</time>
      </trkpt>
      <trkpt lat="42.26253270171582698822021484375" lon="1.79252807982265949249267578125">
        <ele>1121.5999755859375</ele>
        <time>2020-08-11T06:19:11.000Z</time>
      </trkpt>
      <trkpt lat="42.2625430114567279815673828125" lon="1.7924487031996250152587890625">
        <ele>1122</ele>
        <time>2020-08-11T06:19:15.000Z</time>
      </trkpt>
      <trkpt lat="42.26254711858928203582763671875" lon="1.79236362688243389129638671875">
        <ele>1122.5999755859375</ele>
        <time>2020-08-11T06:19:19.000Z</time>
      </trkpt>
      <trkpt lat="42.26254695095121860504150390625" lon="1.79232272319495677947998046875">
        <ele>1122.800048828125</ele>
        <time>2020-08-11T06:19:21.000Z</time>
      </trkpt>
      <trkpt lat="42.26254343055188655853271484375" lon="1.79225164465606212615966796875">
        <ele>1123</ele>
        <time>2020-08-11T06:19:24.000Z</time>
      </trkpt>
      <trkpt lat="42.2625440172851085662841796875" lon="1.792218200862407684326171875">
        <ele>1123.4000244140625</ele>
        <time>2020-08-11T06:19:26.000Z</time>
      </trkpt>
      <trkpt lat="42.26254577748477458953857421875" lon="1.79220504127442836761474609375">
        <ele>1123.5999755859375</ele>
        <time>2020-08-11T06:19:27.000Z</time>
      </trkpt>
      <trkpt lat="42.26255717687308788299560546875" lon="1.79209875874221324920654296875">
        <ele>1124.199951171875</ele>
        <time>2020-08-11T06:19:32.000Z</time>
      </trkpt>
      <trkpt lat="42.262562625110149383544921875" lon="1.79203472100198268890380859375">
        <ele>1124.800048828125</ele>
        <time>2020-08-11T06:19:35.000Z</time>
      </trkpt>
      <trkpt lat="42.2625604458153247833251953125" lon="1.79197638295590877532958984375">
        <ele>1125.800048828125</ele>
        <time>2020-08-11T06:19:38.000Z</time>
      </trkpt>
      <trkpt lat="42.26256203837692737579345703125" lon="1.7919529974460601806640625">
        <ele>1126</ele>
        <time>2020-08-11T06:19:39.000Z</time>
      </trkpt>
      <trkpt lat="42.26256522350013256072998046875" lon="1.79186725057661533355712890625">
        <ele>1127</ele>
        <time>2020-08-11T06:19:43.000Z</time>
      </trkpt>
      <trkpt lat="42.2625648044049739837646484375" lon="1.79180958308279514312744140625">
        <ele>1127.4000244140625</ele>
        <time>2020-08-11T06:19:46.000Z</time>
      </trkpt>
      <trkpt lat="42.26257477886974811553955078125" lon="1.7917023785412311553955078125">
        <ele>1128.4000244140625</ele>
        <time>2020-08-11T06:19:51.000Z</time>
      </trkpt>
      <trkpt lat="42.26258240640163421630859375" lon="1.79162702523171901702880859375">
        <ele>1128.800048828125</ele>
        <time>2020-08-11T06:19:54.000Z</time>
      </trkpt>
      <trkpt lat="42.26258550770580768585205078125" lon="1.79153348319232463836669921875">
        <ele>1129.5999755859375</ele>
        <time>2020-08-11T06:19:58.000Z</time>
      </trkpt>
      <trkpt lat="42.262583412230014801025390625" lon="1.79142787121236324310302734375">
        <ele>1130.800048828125</ele>
        <time>2020-08-11T06:20:02.000Z</time>
      </trkpt>
      <trkpt lat="42.2625829093158245086669921875" lon="1.79140381515026092529296875">
        <ele>1130.800048828125</ele>
        <time>2020-08-11T06:20:03.000Z</time>
      </trkpt>
      <trkpt lat="42.26258249022066593170166015625" lon="1.7913637496531009674072265625">
        <ele>1131.199951171875</ele>
        <time>2020-08-11T06:20:05.000Z</time>
      </trkpt>
      <trkpt lat="42.262583412230014801025390625" lon="1.79130817763507366180419921875">
        <ele>1131.800048828125</ele>
        <time>2020-08-11T06:20:08.000Z</time>
      </trkpt>
      <trkpt lat="42.262582741677761077880859375" lon="1.79128856398165225982666015625">
        <ele>1131.800048828125</ele>
        <time>2020-08-11T06:20:09.000Z</time>
      </trkpt>
      <trkpt lat="42.26259053684771060943603515625" lon="1.7912824451923370361328125">
        <ele>1132.199951171875</ele>
        <time>2020-08-11T06:20:10.000Z</time>
      </trkpt>
      <trkpt lat="42.26258777081966400146484375" lon="1.791192255914211273193359375">
        <ele>1132.4000244140625</ele>
        <time>2020-08-11T06:20:14.000Z</time>
      </trkpt>
      <trkpt lat="42.2625534050166606903076171875" lon="1.79103408940136432647705078125">
        <ele>1131.800048828125</ele>
        <time>2020-08-11T06:20:19.000Z</time>
      </trkpt>
      <trkpt lat="42.26250789128243923187255859375" lon="1.79088522680103778839111328125">
        <ele>1131.800048828125</ele>
        <time>2020-08-11T06:20:25.000Z</time>
      </trkpt>
      <trkpt lat="42.26242591626942157745361328125" lon="1.79073032923042774200439453125">
        <ele>1131.199951171875</ele>
        <time>2020-08-11T06:20:31.000Z</time>
      </trkpt>
      <trkpt lat="42.26236221380531787872314453125" lon="1.790620274841785430908203125">
        <ele>1130.4000244140625</ele>
        <time>2020-08-11T06:20:34.000Z</time>
      </trkpt>
      <trkpt lat="42.26233539171516895294189453125" lon="1.7905758507549762725830078125">
        <ele>1130</ele>
        <time>2020-08-11T06:20:35.000Z</time>
      </trkpt>
      <trkpt lat="42.2622841782867908477783203125" lon="1.79041902534663677215576171875">
        <ele>1128.800048828125</ele>
        <time>2020-08-11T06:20:38.000Z</time>
      </trkpt>
      <trkpt lat="42.26227219216525554656982421875" lon="1.79036253131926059722900390625">
        <ele>1128.4000244140625</ele>
        <time>2020-08-11T06:20:39.000Z</time>
      </trkpt>
      <trkpt lat="42.2622456215322017669677734375" lon="1.7902456037700176239013671875">
        <ele>1128.199951171875</ele>
        <time>2020-08-11T06:20:41.000Z</time>
      </trkpt>
      <trkpt lat="42.26220899261534214019775390625" lon="1.79001434706151485443115234375">
        <ele>1128.199951171875</ele>
        <time>2020-08-11T06:20:45.000Z</time>
      </trkpt>
      <trkpt lat="42.2622184641659259796142578125" lon="1.7898382432758808135986328125">
        <ele>1128.800048828125</ele>
        <time>2020-08-11T06:20:50.000Z</time>
      </trkpt>
      <trkpt lat="42.26219574920833110809326171875" lon="1.7897430248558521270751953125">
        <ele>1129.4000244140625</ele>
        <time>2020-08-11T06:20:55.000Z</time>
      </trkpt>
      <trkpt lat="42.26214520633220672607421875" lon="1.78967387415468692779541015625">
        <ele>1130.199951171875</ele>
        <time>2020-08-11T06:20:59.000Z</time>
      </trkpt>
      <trkpt lat="42.262122742831707000732421875" lon="1.78966113366186618804931640625">
        <ele>1130.4000244140625</ele>
        <time>2020-08-11T06:21:01.000Z</time>
      </trkpt>
      <trkpt lat="42.2621108405292034149169921875" lon="1.78966037929058074951171875">
        <ele>1130.4000244140625</ele>
        <time>2020-08-11T06:21:02.000Z</time>
      </trkpt>
      <trkpt lat="42.2620511613786220550537109375" lon="1.78965258412063121795654296875">
        <ele>1130.199951171875</ele>
        <time>2020-08-11T06:21:06.000Z</time>
      </trkpt>
      <trkpt lat="42.2619535960257053375244140625" lon="1.78957178257405757904052734375">
        <ele>1129.5999755859375</ele>
        <time>2020-08-11T06:21:11.000Z</time>
      </trkpt>
      <trkpt lat="42.26193130016326904296875" lon="1.789508499205112457275390625">
        <ele>1129.199951171875</ele>
        <time>2020-08-11T06:21:13.000Z</time>
      </trkpt>
      <trkpt lat="42.261942364275455474853515625" lon="1.78945980034768581390380859375">
        <ele>1129</ele>
        <time>2020-08-11T06:21:15.000Z</time>
      </trkpt>
      <trkpt lat="42.262000031769275665283203125" lon="1.789383776485919952392578125">
        <ele>1128.5999755859375</ele>
        <time>2020-08-11T06:21:19.000Z</time>
      </trkpt>
      <trkpt lat="42.262087874114513397216796875" lon="1.78935318253934383392333984375">
        <ele>1129</ele>
        <time>2020-08-11T06:21:24.000Z</time>
      </trkpt>
      <trkpt lat="42.2621882893145084381103515625" lon="1.78929400630295276641845703125">
        <ele>1129.5999755859375</ele>
        <time>2020-08-11T06:21:30.000Z</time>
      </trkpt>
      <trkpt lat="42.26226515136659145355224609375" lon="1.78922862745821475982666015625">
        <ele>1130.199951171875</ele>
        <time>2020-08-11T06:21:35.000Z</time>
      </trkpt>
      <trkpt lat="42.26234209723770618438720703125" lon="1.7892386019229888916015625">
        <ele>1130.199951171875</ele>
        <time>2020-08-11T06:21:39.000Z</time>
      </trkpt>
      <trkpt lat="42.262364812195301055908203125" lon="1.78923583589494228363037109375">
        <ele>1130.199951171875</ele>
        <time>2020-08-11T06:21:40.000Z</time>
      </trkpt>
      <trkpt lat="42.26245391182601451873779296875" lon="1.78920951671898365020751953125">
        <ele>1129.800048828125</ele>
        <time>2020-08-11T06:21:43.000Z</time>
      </trkpt>
      <trkpt lat="42.26251509971916675567626953125" lon="1.78917355835437774658203125">
        <ele>1129.4000244140625</ele>
        <time>2020-08-11T06:21:45.000Z</time>
      </trkpt>
      <trkpt lat="42.2626888565719127655029296875" lon="1.7890449799597263336181640625">
        <ele>1129</ele>
        <time>2020-08-11T06:21:51.000Z</time>
      </trkpt>
      <trkpt lat="42.26277158595621585845947265625" lon="1.7889236100018024444580078125">
        <ele>1129</ele>
        <time>2020-08-11T06:21:57.000Z</time>
      </trkpt>
      <trkpt lat="42.2627669759094715118408203125" lon="1.78874784149229526519775390625">
        <ele>1128.4000244140625</ele>
        <time>2020-08-11T06:22:01.000Z</time>
      </trkpt>
      <trkpt lat="42.26274459622800350189208984375" lon="1.7886899225413799285888671875">
        <ele>1128</ele>
        <time>2020-08-11T06:22:02.000Z</time>
      </trkpt>
      <trkpt lat="42.26271593011915683746337890625" lon="1.788635440170764923095703125">
        <ele>1127.800048828125</ele>
        <time>2020-08-11T06:22:03.000Z</time>
      </trkpt>
      <trkpt lat="42.26264602504670619964599609375" lon="1.78853477351367473602294921875">
        <ele>1127.199951171875</ele>
        <time>2020-08-11T06:22:05.000Z</time>
      </trkpt>
      <trkpt lat="42.2626073844730854034423828125" lon="1.78848464973270893096923828125">
        <ele>1127</ele>
        <time>2020-08-11T06:22:06.000Z</time>
      </trkpt>
      <trkpt lat="42.26256757043302059173583984375" lon="1.78843402303755283355712890625">
        <ele>1127</ele>
        <time>2020-08-11T06:22:07.000Z</time>
      </trkpt>
      <trkpt lat="42.26243530400097370147705078125" lon="1.7882542312145233154296875">
        <ele>1125.800048828125</ele>
        <time>2020-08-11T06:22:11.000Z</time>
      </trkpt>
      <trkpt lat="42.262357436120510101318359375" lon="1.7881494574248790740966796875">
        <ele>1125.5999755859375</ele>
        <time>2020-08-11T06:22:14.000Z</time>
      </trkpt>
      <trkpt lat="42.26230538450181484222412109375" lon="1.78810109384357929229736328125">
        <ele>1125.4000244140625</ele>
        <time>2020-08-11T06:22:16.000Z</time>
      </trkpt>
      <trkpt lat="42.2622536681592464447021484375" lon="1.78797352127730846405029296875">
        <ele>1125</ele>
        <time>2020-08-11T06:22:20.000Z</time>
      </trkpt>
      <trkpt lat="42.2622598707675933837890625" lon="1.78794887848198413848876953125">
        <ele>1124.800048828125</ele>
        <time>2020-08-11T06:22:21.000Z</time>
      </trkpt>
      <trkpt lat="42.26229515857994556427001953125" lon="1.78791216574609279632568359375">
        <ele>1124.5999755859375</ele>
        <time>2020-08-11T06:22:23.000Z</time>
      </trkpt>
      <trkpt lat="42.2623850964009761810302734375" lon="1.78784812800586223602294921875">
        <ele>1124</ele>
        <time>2020-08-11T06:22:28.000Z</time>
      </trkpt>
      <trkpt lat="42.26246078498661518096923828125" lon="1.78779481910169124603271484375">
        <ele>1124.199951171875</ele>
        <time>2020-08-11T06:22:32.000Z</time>
      </trkpt>
      <trkpt lat="42.26249967701733112335205078125" lon="1.7877607047557830810546875">
        <ele>1124.5999755859375</ele>
        <time>2020-08-11T06:22:34.000Z</time>
      </trkpt>
      <trkpt lat="42.262588776648044586181640625" lon="1.78767160512506961822509765625">
        <ele>1124.199951171875</ele>
        <time>2020-08-11T06:22:39.000Z</time>
      </trkpt>
      <trkpt lat="42.2626791335642337799072265625" lon="1.787554509937763214111328125">
        <ele>1124.5999755859375</ele>
        <time>2020-08-11T06:22:45.000Z</time>
      </trkpt>
      <trkpt lat="42.2627394832670688629150390625" lon="1.787482090294361114501953125">
        <ele>1125</ele>
        <time>2020-08-11T06:22:49.000Z</time>
      </trkpt>
      <trkpt lat="42.26279773749411106109619140625" lon="1.78744294680655002593994140625">
        <ele>1125.4000244140625</ele>
        <time>2020-08-11T06:22:52.000Z</time>
      </trkpt>
      <trkpt lat="42.26284392178058624267578125" lon="1.7874289490282535552978515625">
        <ele>1125.4000244140625</ele>
        <time>2020-08-11T06:22:54.000Z</time>
      </trkpt>
      <trkpt lat="42.26294911466538906097412109375" lon="1.7874131910502910614013671875">
        <ele>1125.5999755859375</ele>
        <time>2020-08-11T06:22:59.000Z</time>
      </trkpt>
      <trkpt lat="42.263040728867053985595703125" lon="1.78739483468234539031982421875">
        <ele>1126.5999755859375</ele>
        <time>2020-08-11T06:23:04.000Z</time>
      </trkpt>
      <trkpt lat="42.26310141384601593017578125" lon="1.787349991500377655029296875">
        <ele>1127</ele>
        <time>2020-08-11T06:23:08.000Z</time>
      </trkpt>
      <trkpt lat="42.26311759091913700103759765625" lon="1.78733364678919315338134765625">
        <ele>1127.199951171875</ele>
        <time>2020-08-11T06:23:09.000Z</time>
      </trkpt>
      <trkpt lat="42.26313360035419464111328125" lon="1.7873223312199115753173828125">
        <ele>1127.4000244140625</ele>
        <time>2020-08-11T06:23:10.000Z</time>
      </trkpt>
      <trkpt lat="42.2632133960723876953125" lon="1.78723624907433986663818359375">
        <ele>1128</ele>
        <time>2020-08-11T06:23:15.000Z</time>
      </trkpt>
      <trkpt lat="42.26324030198156833648681640625" lon="1.78716994822025299072265625">
        <ele>1128.4000244140625</ele>
        <time>2020-08-11T06:23:18.000Z</time>
      </trkpt>
      <trkpt lat="42.2632611729204654693603515625" lon="1.7870993725955486297607421875">
        <ele>1129</ele>
        <time>2020-08-11T06:23:21.000Z</time>
      </trkpt>
      <trkpt lat="42.26328380405902862548828125" lon="1.7870276235044002532958984375">
        <ele>1129.4000244140625</ele>
        <time>2020-08-11T06:23:24.000Z</time>
      </trkpt>
      <trkpt lat="42.26331389509141445159912109375" lon="1.78695134818553924560546875">
        <ele>1129.800048828125</ele>
        <time>2020-08-11T06:23:27.000Z</time>
      </trkpt>
      <trkpt lat="42.26338447071611881256103515625" lon="1.78684196434915065765380859375">
        <ele>1130</ele>
        <time>2020-08-11T06:23:33.000Z</time>
      </trkpt>
      <trkpt lat="42.263436019420623779296875" lon="1.786773987114429473876953125">
        <ele>1130.4000244140625</ele>
        <time>2020-08-11T06:23:38.000Z</time>
      </trkpt>
      <trkpt lat="42.26344616152346134185791015625" lon="1.78676334209740161895751953125">
        <ele>1130.5999755859375</ele>
        <time>2020-08-11T06:23:39.000Z</time>
      </trkpt>
      <trkpt lat="42.26350902579724788665771484375" lon="1.7867027409374713897705078125">
        <ele>1131.199951171875</ele>
        <time>2020-08-11T06:23:43.000Z</time>
      </trkpt>
      <trkpt lat="42.26354406215250492095947265625" lon="1.78666627965867519378662109375">
        <ele>1131.800048828125</ele>
        <time>2020-08-11T06:23:46.000Z</time>
      </trkpt>
      <trkpt lat="42.26358597166836261749267578125" lon="1.78663141094148159027099609375">
        <ele>1132.199951171875</ele>
        <time>2020-08-11T06:23:49.000Z</time>
      </trkpt>
      <trkpt lat="42.26366492919623851776123046875" lon="1.7865335941314697265625">
        <ele>1132.4000244140625</ele>
        <time>2020-08-11T06:23:55.000Z</time>
      </trkpt>
      <trkpt lat="42.26369082927703857421875" lon="1.78648288361728191375732421875">
        <ele>1133</ele>
        <time>2020-08-11T06:23:58.000Z</time>
      </trkpt>
      <trkpt lat="42.26370901800692081451416015625" lon="1.78641624748706817626953125">
        <ele>1133.5999755859375</ele>
        <time>2020-08-11T06:24:01.000Z</time>
      </trkpt>
      <trkpt lat="42.263741791248321533203125" lon="1.78628104738891124725341796875">
        <ele>1133.800048828125</ele>
        <time>2020-08-11T06:24:07.000Z</time>
      </trkpt>
      <trkpt lat="42.26376785896718502044677734375" lon="1.78610645234584808349609375">
        <ele>1132.5999755859375</ele>
        <time>2020-08-11T06:24:13.000Z</time>
      </trkpt>
      <trkpt lat="42.2637590579688549041748046875" lon="1.7860171012580394744873046875">
        <ele>1132</ele>
        <time>2020-08-11T06:24:16.000Z</time>
      </trkpt>
      <trkpt lat="42.26374908350408077239990234375" lon="1.785959266126155853271484375">
        <ele>1131.5999755859375</ele>
        <time>2020-08-11T06:24:18.000Z</time>
      </trkpt>
      <trkpt lat="42.26370583288371562957763671875" lon="1.7858407460153102874755859375">
        <ele>1130.800048828125</ele>
        <time>2020-08-11T06:24:22.000Z</time>
      </trkpt>
      <trkpt lat="42.26368454284965991973876953125" lon="1.78580160252749919891357421875">
        <ele>1130.800048828125</ele>
        <time>2020-08-11T06:24:23.000Z</time>
      </trkpt>
      <trkpt lat="42.263614051043987274169921875" lon="1.78567972965538501739501953125">
        <ele>1129.800048828125</ele>
        <time>2020-08-11T06:24:26.000Z</time>
      </trkpt>
      <trkpt lat="42.2635585628449916839599609375" lon="1.78553991951048374176025390625">
        <ele>1129.800048828125</ele>
        <time>2020-08-11T06:24:29.000Z</time>
      </trkpt>
      <trkpt lat="42.2635582275688648223876953125" lon="1.785402707755565643310546875">
        <ele>1130</ele>
        <time>2020-08-11T06:24:33.000Z</time>
      </trkpt>
      <trkpt lat="42.2635687887668609619140625" lon="1.78528368473052978515625">
        <ele>1130.199951171875</ele>
        <time>2020-08-11T06:24:38.000Z</time>
      </trkpt>
      <trkpt lat="42.2635749913752079010009765625" lon="1.7851336486637592315673828125">
        <ele>1130.800048828125</ele>
        <time>2020-08-11T06:24:43.000Z</time>
      </trkpt>
      <trkpt lat="42.26357557810842990875244140625" lon="1.78510171361267566680908203125">
        <ele>1131</ele>
        <time>2020-08-11T06:24:44.000Z</time>
      </trkpt>
      <trkpt lat="42.26357272826135158538818359375" lon="1.78495419211685657501220703125">
        <ele>1131.4000244140625</ele>
        <time>2020-08-11T06:24:49.000Z</time>
      </trkpt>
      <trkpt lat="42.26357105188071727752685546875" lon="1.78491211496293544769287109375">
        <ele>1131.5999755859375</ele>
        <time>2020-08-11T06:24:51.000Z</time>
      </trkpt>
      <trkpt lat="42.26356753148138523101806640625" lon="1.784835755825042724609375">
        <ele>1131.5999755859375</ele>
        <time>2020-08-11T06:24:54.000Z</time>
      </trkpt>
      <trkpt lat="42.26356199942529201507568359375" lon="1.78478487767279148101806640625">
        <ele>1131.5999755859375</ele>
        <time>2020-08-11T06:24:56.000Z</time>
      </trkpt>
      <trkpt lat="42.26355093531310558319091796875" lon="1.7847244441509246826171875">
        <ele>1132</ele>
        <time>2020-08-11T06:24:58.000Z</time>
      </trkpt>
      <trkpt lat="42.26353936828672885894775390625" lon="1.78467222489416599273681640625">
        <ele>1132.4000244140625</ele>
        <time>2020-08-11T06:25:00.000Z</time>
      </trkpt>
      <trkpt lat="42.2635267116129398345947265625" lon="1.78459980525076389312744140625">
        <ele>1132.800048828125</ele>
        <time>2020-08-11T06:25:03.000Z</time>
      </trkpt>
      <trkpt lat="42.26351472549140453338623046875" lon="1.7845581471920013427734375">
        <ele>1133.199951171875</ele>
        <time>2020-08-11T06:25:05.000Z</time>
      </trkpt>
      <trkpt lat="42.2634901665151119232177734375" lon="1.784429065883159637451171875">
        <ele>1134</ele>
        <time>2020-08-11T06:25:11.000Z</time>
      </trkpt>
      <trkpt lat="42.26347482763230800628662109375" lon="1.784392856061458587646484375">
        <ele>1134.199951171875</ele>
        <time>2020-08-11T06:25:13.000Z</time>
      </trkpt>
      <trkpt lat="42.26347097195684909820556640625" lon="1.78436008282005786895751953125">
        <ele>1135</ele>
        <time>2020-08-11T06:25:15.000Z</time>
      </trkpt>
      <trkpt lat="42.2634650208055973052978515625" lon="1.784339882433414459228515625">
        <ele>1135.199951171875</ele>
        <time>2020-08-11T06:25:16.000Z</time>
      </trkpt>
      <trkpt lat="42.2634556330740451812744140625" lon="1.784320771694183349609375">
        <ele>1135.4000244140625</ele>
        <time>2020-08-11T06:25:17.000Z</time>
      </trkpt>
      <trkpt lat="42.2634086944162845611572265625" lon="1.7842309176921844482421875">
        <ele>1136.4000244140625</ele>
        <time>2020-08-11T06:25:22.000Z</time>
      </trkpt>
      <trkpt lat="42.26338178850710391998291015625" lon="1.7841546423733234405517578125">
        <ele>1137</ele>
        <time>2020-08-11T06:25:27.000Z</time>
      </trkpt>
      <trkpt lat="42.263392768800258636474609375" lon="1.784095466136932373046875">
        <ele>1137.4000244140625</ele>
        <time>2020-08-11T06:25:31.000Z</time>
      </trkpt>
      <trkpt lat="42.26341548375785350799560546875" lon="1.784073002636432647705078125">
        <ele>1137.4000244140625</ele>
        <time>2020-08-11T06:25:33.000Z</time>
      </trkpt>
      <trkpt lat="42.26345521397888660430908203125" lon="1.78402530960738658905029296875">
        <ele>1137.5999755859375</ele>
        <time>2020-08-11T06:25:36.000Z</time>
      </trkpt>
      <trkpt lat="42.2634693793952465057373046875" lon="1.7840158380568027496337890625">
        <ele>1137.5999755859375</ele>
        <time>2020-08-11T06:25:37.000Z</time>
      </trkpt>
      <trkpt lat="42.26350835524499416351318359375" lon="1.78397476673126220703125">
        <ele>1138.199951171875</ele>
        <time>2020-08-11T06:25:40.000Z</time>
      </trkpt>
      <trkpt lat="42.26354858838021755218505859375" lon="1.78395590744912624359130859375">
        <ele>1138.5999755859375</ele>
        <time>2020-08-11T06:25:43.000Z</time>
      </trkpt>
      <trkpt lat="42.263562418520450592041015625" lon="1.78396311588585376739501953125">
        <ele>1138.800048828125</ele>
        <time>2020-08-11T06:25:44.000Z</time>
      </trkpt>
      <trkpt lat="42.2636044956743717193603515625" lon="1.78397887386381626129150390625">
        <ele>1139.5999755859375</ele>
        <time>2020-08-11T06:25:47.000Z</time>
      </trkpt>
      <trkpt lat="42.2636980377137660980224609375" lon="1.78403033874928951263427734375">
        <ele>1140.199951171875</ele>
        <time>2020-08-11T06:25:53.000Z</time>
      </trkpt>
      <trkpt lat="42.26380021311342716217041015625" lon="1.784084737300872802734375">
        <ele>1141</ele>
        <time>2020-08-11T06:26:00.000Z</time>
      </trkpt>
      <trkpt lat="42.263831980526447296142578125" lon="1.78409077227115631103515625">
        <ele>1141.4000244140625</ele>
        <time>2020-08-11T06:26:02.000Z</time>
      </trkpt>
      <trkpt lat="42.26389928720891475677490234375" lon="1.784127987921237945556640625">
        <ele>1141.800048828125</ele>
        <time>2020-08-11T06:26:07.000Z</time>
      </trkpt>
      <trkpt lat="42.2639126144349575042724609375" lon="1.78413393907248973846435546875">
        <ele>1142</ele>
        <time>2020-08-11T06:26:08.000Z</time>
      </trkpt>
      <trkpt lat="42.263974137604236602783203125" lon="1.78416377864778041839599609375">
        <ele>1143</ele>
        <time>2020-08-11T06:26:13.000Z</time>
      </trkpt>
      <trkpt lat="42.26402652449905872344970703125" lon="1.78419135510921478271484375">
        <ele>1143.199951171875</ele>
        <time>2020-08-11T06:26:17.000Z</time>
      </trkpt>
      <trkpt lat="42.26408310234546661376953125" lon="1.78421524353325366973876953125">
        <ele>1143.800048828125</ele>
        <time>2020-08-11T06:26:21.000Z</time>
      </trkpt>
      <trkpt lat="42.26411017589271068572998046875" lon="1.784218512475490570068359375">
        <ele>1144.199951171875</ele>
        <time>2020-08-11T06:26:23.000Z</time>
      </trkpt>
      <trkpt lat="42.264192737638950347900390625" lon="1.78424407728016376495361328125">
        <ele>1145.199951171875</ele>
        <time>2020-08-11T06:26:29.000Z</time>
      </trkpt>
      <trkpt lat="42.26425610482692718505859375" lon="1.78424458019435405731201171875">
        <ele>1146.4000244140625</ele>
        <time>2020-08-11T06:26:34.000Z</time>
      </trkpt>
      <trkpt lat="42.2642934881150722503662109375" lon="1.7842354439198970794677734375">
        <ele>1146.5999755859375</ele>
        <time>2020-08-11T06:26:37.000Z</time>
      </trkpt>
      <trkpt lat="42.26434939540922641754150390625" lon="1.78417668677866458892822265625">
        <ele>1147.5999755859375</ele>
        <time>2020-08-11T06:26:42.000Z</time>
      </trkpt>
      <trkpt lat="42.26436280645430088043212890625" lon="1.78414584137499332427978515625">
        <ele>1147.800048828125</ele>
        <time>2020-08-11T06:26:44.000Z</time>
      </trkpt>
      <trkpt lat="42.2643922269344329833984375" lon="1.78405162878334522247314453125">
        <ele>1148.5999755859375</ele>
        <time>2020-08-11T06:26:50.000Z</time>
      </trkpt>
      <trkpt lat="42.26439834572374820709228515625" lon="1.78401642479002475738525390625">
        <ele>1148.800048828125</ele>
        <time>2020-08-11T06:26:52.000Z</time>
      </trkpt>
      <trkpt lat="42.26441041566431522369384765625" lon="1.783969067037105560302734375">
        <ele>1149.5999755859375</ele>
        <time>2020-08-11T06:26:56.000Z</time>
      </trkpt>
      <trkpt lat="42.26441879756748676300048828125" lon="1.78395666182041168212890625">
        <ele>1149.5999755859375</ele>
        <time>2020-08-11T06:26:57.000Z</time>
      </trkpt>
      <trkpt lat="42.26442374289035797119140625" lon="1.78394316695630550384521484375">
        <ele>1149.5999755859375</ele>
        <time>2020-08-11T06:26:58.000Z</time>
      </trkpt>
      <trkpt lat="42.2644393332302570343017578125" lon="1.78384291939437389373779296875">
        <ele>1150.199951171875</ele>
        <time>2020-08-11T06:27:04.000Z</time>
      </trkpt>
      <trkpt lat="42.26444075815379619598388671875" lon="1.78379413671791553497314453125">
        <ele>1150.800048828125</ele>
        <time>2020-08-11T06:27:07.000Z</time>
      </trkpt>
      <trkpt lat="42.26444561965763568878173828125" lon="1.78374610841274261474609375">
        <ele>1151.199951171875</ele>
        <time>2020-08-11T06:27:10.000Z</time>
      </trkpt>
      <trkpt lat="42.2644198872148990631103515625" lon="1.7836461961269378662109375">
        <ele>1151.4000244140625</ele>
        <time>2020-08-11T06:27:16.000Z</time>
      </trkpt>
      <trkpt lat="42.26440672762691974639892578125" lon="1.7835977487266063690185546875">
        <ele>1152</ele>
        <time>2020-08-11T06:27:19.000Z</time>
      </trkpt>
      <trkpt lat="42.264404296875" lon="1.783579476177692413330078125">
        <ele>1152.199951171875</ele>
        <time>2020-08-11T06:27:20.000Z</time>
      </trkpt>
      <trkpt lat="42.26439650170505046844482421875" lon="1.783542595803737640380859375">
        <ele>1152.800048828125</ele>
        <time>2020-08-11T06:27:22.000Z</time>
      </trkpt>
      <trkpt lat="42.26439289748668670654296875" lon="1.7835025303065776824951171875">
        <ele>1153</ele>
        <time>2020-08-11T06:27:25.000Z</time>
      </trkpt>
      <trkpt lat="42.2643836773931980133056640625" lon="1.78343187086284160614013671875">
        <ele>1153.5999755859375</ele>
        <time>2020-08-11T06:27:29.000Z</time>
      </trkpt>
      <trkpt lat="42.2643752954900264739990234375" lon="1.78338359110057353973388671875">
        <ele>1154.199951171875</ele>
        <time>2020-08-11T06:27:32.000Z</time>
      </trkpt>
      <trkpt lat="42.2643699310719966888427734375" lon="1.7833243310451507568359375">
        <ele>1154.5999755859375</ele>
        <time>2020-08-11T06:27:35.000Z</time>
      </trkpt>
      <trkpt lat="42.2643679194152355194091796875" lon="1.78324998356401920318603515625">
        <ele>1155.4000244140625</ele>
        <time>2020-08-11T06:27:39.000Z</time>
      </trkpt>
      <trkpt lat="42.2643635608255863189697265625" lon="1.7832306213676929473876953125">
        <ele>1155.4000244140625</ele>
        <time>2020-08-11T06:27:40.000Z</time>
      </trkpt>
      <trkpt lat="42.26435794495046138763427734375" lon="1.78321125917136669158935546875">
        <ele>1155.5999755859375</ele>
        <time>2020-08-11T06:27:41.000Z</time>
      </trkpt>
      <trkpt lat="42.2643531672656536102294921875" lon="1.7831937409937381744384765625">
        <ele>1155.5999755859375</ele>
        <time>2020-08-11T06:27:42.000Z</time>
      </trkpt>
      <trkpt lat="42.26433363743126392364501953125" lon="1.78311017341911792755126953125">
        <ele>1156.4000244140625</ele>
        <time>2020-08-11T06:27:46.000Z</time>
      </trkpt>
      <trkpt lat="42.2643089108169078826904296875" lon="1.78301126696169376373291015625">
        <ele>1157.5999755859375</ele>
        <time>2020-08-11T06:27:51.000Z</time>
      </trkpt>
      <trkpt lat="42.2642978467047214508056640625" lon="1.78292275406420230865478515625">
        <ele>1158.5999755859375</ele>
        <time>2020-08-11T06:27:56.000Z</time>
      </trkpt>
      <trkpt lat="42.26430446840822696685791015625" lon="1.78289995528757572174072265625">
        <ele>1158.5999755859375</ele>
        <time>2020-08-11T06:27:57.000Z</time>
      </trkpt>
      <trkpt lat="42.2643548436462879180908203125" lon="1.78281429223716259002685546875">
        <ele>1159.4000244140625</ele>
        <time>2020-08-11T06:28:03.000Z</time>
      </trkpt>
      <trkpt lat="42.2644158639013767242431640625" lon="1.78276400081813335418701171875">
        <ele>1160</ele>
        <time>2020-08-11T06:28:08.000Z</time>
      </trkpt>
      <trkpt lat="42.2644255869090557098388671875" lon="1.78275243379175662994384765625">
        <ele>1160.199951171875</ele>
        <time>2020-08-11T06:28:09.000Z</time>
      </trkpt>
      <trkpt lat="42.2644762136042118072509765625" lon="1.78270130418241024017333984375">
        <ele>1161.199951171875</ele>
        <time>2020-08-11T06:28:14.000Z</time>
      </trkpt>
      <trkpt lat="42.264499850571155548095703125" lon="1.78266777656972408294677734375">
        <ele>1162</ele>
        <time>2020-08-11T06:28:17.000Z</time>
      </trkpt>
      <trkpt lat="42.264506556093692779541015625" lon="1.7826576344668865203857421875">
        <ele>1162.4000244140625</ele>
        <time>2020-08-11T06:28:18.000Z</time>
      </trkpt>
      <trkpt lat="42.26452122442424297332763671875" lon="1.78263944573700428009033203125">
        <ele>1162.800048828125</ele>
        <time>2020-08-11T06:28:20.000Z</time>
      </trkpt>
      <trkpt lat="42.26454754360020160675048828125" lon="1.7826110310852527618408203125">
        <ele>1162.800048828125</ele>
        <time>2020-08-11T06:28:23.000Z</time>
      </trkpt>
      <trkpt lat="42.26457721553742885589599609375" lon="1.7825785093009471893310546875">
        <ele>1163.5999755859375</ele>
        <time>2020-08-11T06:28:26.000Z</time>
      </trkpt>
      <trkpt lat="42.2646089829504489898681640625" lon="1.782520674169063568115234375">
        <ele>1164.800048828125</ele>
        <time>2020-08-11T06:28:30.000Z</time>
      </trkpt>
      <trkpt lat="42.26461761631071567535400390625" lon="1.78250692784786224365234375">
        <ele>1164.800048828125</ele>
        <time>2020-08-11T06:28:31.000Z</time>
      </trkpt>
      <trkpt lat="42.2646512277424335479736328125" lon="1.7824739031493663787841796875">
        <ele>1165</ele>
        <time>2020-08-11T06:28:35.000Z</time>
      </trkpt>
      <trkpt lat="42.26466170512139797210693359375" lon="1.782464683055877685546875">
        <ele>1165.199951171875</ele>
        <time>2020-08-11T06:28:36.000Z</time>
      </trkpt>
      <trkpt lat="42.26471551693975925445556640625" lon="1.782463006675243377685546875">
        <ele>1165.5999755859375</ele>
        <time>2020-08-11T06:28:41.000Z</time>
      </trkpt>
      <trkpt lat="42.26474217139184474945068359375" lon="1.7824584804475307464599609375">
        <ele>1165.5999755859375</ele>
        <time>2020-08-11T06:28:43.000Z</time>
      </trkpt>
      <trkpt lat="42.2647903673350811004638671875" lon="1.7824499309062957763671875">
        <ele>1165.5999755859375</ele>
        <time>2020-08-11T06:28:47.000Z</time>
      </trkpt>
      <trkpt lat="42.264878712594509124755859375" lon="1.78250650875270366668701171875">
        <ele>1166</ele>
        <time>2020-08-11T06:28:55.000Z</time>
      </trkpt>
      <trkpt lat="42.264908887445926666259765625" lon="1.78251874633133411407470703125">
        <ele>1166</ele>
        <time>2020-08-11T06:28:57.000Z</time>
      </trkpt>
      <trkpt lat="42.2649593465030193328857421875" lon="1.7825503461062908172607421875">
        <ele>1165.800048828125</ele>
        <time>2020-08-11T06:29:01.000Z</time>
      </trkpt>
      <trkpt lat="42.26502011530101299285888671875" lon="1.78262720815837383270263671875">
        <ele>1165.800048828125</ele>
        <time>2020-08-11T06:29:07.000Z</time>
      </trkpt>
      <trkpt lat="42.26504526101052761077880859375" lon="1.7826484143733978271484375">
        <ele>1166</ele>
        <time>2020-08-11T06:29:09.000Z</time>
      </trkpt>
      <trkpt lat="42.26506085135042667388916015625" lon="1.78266710601747035980224609375">
        <ele>1165.5999755859375</ele>
        <time>2020-08-11T06:29:15.000Z</time>
      </trkpt>
      <trkpt lat="42.2650466859340667724609375" lon="1.78267900831997394561767578125">
        <ele>1165.800048828125</ele>
        <time>2020-08-11T06:29:22.000Z</time>
      </trkpt>
      <trkpt lat="42.26504609920084476470947265625" lon="1.78267967887222766876220703125">
        <ele>1166</ele>
        <time>2020-08-11T06:29:37.000Z</time>
      </trkpt>
      <trkpt lat="42.26506655104458332061767578125" lon="1.78267699666321277618408203125">
        <ele>1166.199951171875</ele>
        <time>2020-08-11T06:29:52.000Z</time>
      </trkpt>
      <trkpt lat="42.26506386883556842803955078125" lon="1.782680936157703399658203125">
        <ele>1166</ele>
        <time>2020-08-11T06:29:59.000Z</time>
      </trkpt>
      <trkpt lat="42.2650730051100254058837890625" lon="1.78269200026988983154296875">
        <ele>1166</ele>
        <time>2020-08-11T06:30:00.000Z</time>
      </trkpt>
      <trkpt lat="42.26512086577713489532470703125" lon="1.7827310599386692047119140625">
        <ele>1166.199951171875</ele>
        <time>2020-08-11T06:30:04.000Z</time>
      </trkpt>
      <trkpt lat="42.26513209752738475799560546875" lon="1.7827471531927585601806640625">
        <ele>1166.199951171875</ele>
        <time>2020-08-11T06:30:05.000Z</time>
      </trkpt>
      <trkpt lat="42.2651427425444126129150390625" lon="1.78276039659976959228515625">
        <ele>1166.199951171875</ele>
        <time>2020-08-11T06:30:06.000Z</time>
      </trkpt>
      <trkpt lat="42.26520317606627941131591796875" lon="1.78281228058040142059326171875">
        <ele>1165.800048828125</ele>
        <time>2020-08-11T06:30:09.000Z</time>
      </trkpt>
      <trkpt lat="42.2652751766145229339599609375" lon="1.7828490771353244781494140625">
        <ele>1165.4000244140625</ele>
        <time>2020-08-11T06:30:11.000Z</time>
      </trkpt>
      <trkpt lat="42.26532001979649066925048828125" lon="1.782859303057193756103515625">
        <ele>1165.199951171875</ele>
        <time>2020-08-11T06:30:12.000Z</time>
      </trkpt>
      <trkpt lat="42.26536712609231472015380859375" lon="1.78286341018974781036376953125">
        <ele>1165</ele>
        <time>2020-08-11T06:30:13.000Z</time>
      </trkpt>
      <trkpt lat="42.26551447995007038116455078125" lon="1.78278797306120395660400390625">
        <ele>1164.199951171875</ele>
        <time>2020-08-11T06:30:17.000Z</time>
      </trkpt>
      <trkpt lat="42.26553124375641345977783203125" lon="1.78274723701179027557373046875">
        <ele>1163.800048828125</ele>
        <time>2020-08-11T06:30:18.000Z</time>
      </trkpt>
      <trkpt lat="42.2655460797250270843505859375" lon="1.7826090194284915924072265625">
        <ele>1163.5999755859375</ele>
        <time>2020-08-11T06:30:21.000Z</time>
      </trkpt>
      <trkpt lat="42.26554247550666332244873046875" lon="1.78256501443684101104736328125">
        <ele>1163.5999755859375</ele>
        <time>2020-08-11T06:30:22.000Z</time>
      </trkpt>
      <trkpt lat="42.26551649160683155059814453125" lon="1.782393269240856170654296875">
        <ele>1163.800048828125</ele>
        <time>2020-08-11T06:30:27.000Z</time>
      </trkpt>
      <trkpt lat="42.2655065171420574188232421875" lon="1.78225136362016201019287109375">
        <ele>1164.199951171875</ele>
        <time>2020-08-11T06:30:33.000Z</time>
      </trkpt>
      <trkpt lat="42.2655055113136768341064453125" lon="1.78223409689962863922119140625">
        <ele>1164.4000244140625</ele>
        <time>2020-08-11T06:30:34.000Z</time>
      </trkpt>
      <trkpt lat="42.26550173945724964141845703125" lon="1.78217274136841297149658203125">
        <ele>1164.5999755859375</ele>
        <time>2020-08-11T06:30:37.000Z</time>
      </trkpt>
      <trkpt lat="42.2654999792575836181640625" lon="1.78213653154671192169189453125">
        <ele>1164.800048828125</ele>
        <time>2020-08-11T06:30:39.000Z</time>
      </trkpt>
      <trkpt lat="42.26549637503921985626220703125" lon="1.78210149519145488739013671875">
        <ele>1165.199951171875</ele>
        <time>2020-08-11T06:30:41.000Z</time>
      </trkpt>
      <trkpt lat="42.26549352519214153289794921875" lon="1.78207903169095516204833984375">
        <ele>1165.4000244140625</ele>
        <time>2020-08-11T06:30:42.000Z</time>
      </trkpt>
      <trkpt lat="42.26548950187861919403076171875" lon="1.78205723874270915985107421875">
        <ele>1165.4000244140625</ele>
        <time>2020-08-11T06:30:43.000Z</time>
      </trkpt>
      <trkpt lat="42.26548044942319393157958984375" lon="1.78199219517409801483154296875">
        <ele>1166</ele>
        <time>2020-08-11T06:30:46.000Z</time>
      </trkpt>
      <trkpt lat="42.265476845204830169677734375" lon="1.78196914494037628173828125">
        <ele>1166.199951171875</ele>
        <time>2020-08-11T06:30:47.000Z</time>
      </trkpt>
      <trkpt lat="42.26543820463120937347412109375" lon="1.78186479024589061737060546875">
        <ele>1167</ele>
        <time>2020-08-11T06:30:52.000Z</time>
      </trkpt>
      <trkpt lat="42.26539160124957561492919921875" lon="1.781789101660251617431640625">
        <ele>1167.4000244140625</ele>
        <time>2020-08-11T06:30:57.000Z</time>
      </trkpt>
      <trkpt lat="42.26531960070133209228515625" lon="1.78163680247962474822998046875">
        <ele>1167.5999755859375</ele>
        <time>2020-08-11T06:31:04.000Z</time>
      </trkpt>
      <trkpt lat="42.2652406431734561920166015625" lon="1.7814521491527557373046875">
        <ele>1167.199951171875</ele>
        <time>2020-08-11T06:31:09.000Z</time>
      </trkpt>
      <trkpt lat="42.26524106226861476898193359375" lon="1.7814016900956630706787109375">
        <ele>1166.800048828125</ele>
        <time>2020-08-11T06:31:10.000Z</time>
      </trkpt>
      <trkpt lat="42.2652721591293811798095703125" lon="1.78132466040551662445068359375">
        <ele>1166.5999755859375</ele>
        <time>2020-08-11T06:31:12.000Z</time>
      </trkpt>
      <trkpt lat="42.26530627347528934478759765625" lon="1.78126372396945953369140625">
        <ele>1166.5999755859375</ele>
        <time>2020-08-11T06:31:15.000Z</time>
      </trkpt>
      <trkpt lat="42.2653190977871417999267578125" lon="1.7812548391520977020263671875">
        <ele>1166.5999755859375</ele>
        <time>2020-08-11T06:31:16.000Z</time>
      </trkpt>
      <trkpt lat="42.265406437218189239501953125" lon="1.78117227740585803985595703125">
        <ele>1167.199951171875</ele>
        <time>2020-08-11T06:31:22.000Z</time>
      </trkpt>
      <trkpt lat="42.2654864005744457244873046875" lon="1.78111326880753040313720703125">
        <ele>1168.199951171875</ele>
        <time>2020-08-11T06:31:27.000Z</time>
      </trkpt>
      <trkpt lat="42.26556359790265560150146484375" lon="1.78102970123291015625">
        <ele>1169.199951171875</ele>
        <time>2020-08-11T06:31:32.000Z</time>
      </trkpt>
      <trkpt lat="42.26565898396074771881103515625" lon="1.78096323274075984954833984375">
        <ele>1170.5999755859375</ele>
        <time>2020-08-11T06:31:38.000Z</time>
      </trkpt>
      <trkpt lat="42.26572754792869091033935546875" lon="1.78091562353074550628662109375">
        <ele>1171.4000244140625</ele>
        <time>2020-08-11T06:31:43.000Z</time>
      </trkpt>
      <trkpt lat="42.2657521069049835205078125" lon="1.7809011228382587432861328125">
        <ele>1171.5999755859375</ele>
        <time>2020-08-11T06:31:45.000Z</time>
      </trkpt>
      <trkpt lat="42.2657992132008075714111328125" lon="1.7808749713003635406494140625">
        <ele>1172.800048828125</ele>
        <time>2020-08-11T06:31:49.000Z</time>
      </trkpt>
      <trkpt lat="42.265825532376766204833984375" lon="1.78086767904460430145263671875">
        <ele>1173</ele>
        <time>2020-08-11T06:31:51.000Z</time>
      </trkpt>
      <trkpt lat="42.2658647596836090087890625" lon="1.7808266915380954742431640625">
        <ele>1174.199951171875</ele>
        <time>2020-08-11T06:31:55.000Z</time>
      </trkpt>
      <trkpt lat="42.2658897377550601959228515625" lon="1.7807931639254093170166015625">
        <ele>1174.800048828125</ele>
        <time>2020-08-11T06:31:58.000Z</time>
      </trkpt>
      <trkpt lat="42.265908680856227874755859375" lon="1.780728958547115325927734375">
        <ele>1175.199951171875</ele>
        <time>2020-08-11T06:32:02.000Z</time>
      </trkpt>
      <trkpt lat="42.265919409692287445068359375" lon="1.78068193607032299041748046875">
        <ele>1175.800048828125</ele>
        <time>2020-08-11T06:32:05.000Z</time>
      </trkpt>
      <trkpt lat="42.2659303061664104461669921875" lon="1.78060297854244709014892578125">
        <ele>1176.4000244140625</ele>
        <time>2020-08-11T06:32:10.000Z</time>
      </trkpt>
      <trkpt lat="42.26593340747058391571044921875" lon="1.78057163022458553314208984375">
        <ele>1176.4000244140625</ele>
        <time>2020-08-11T06:32:12.000Z</time>
      </trkpt>
      <trkpt lat="42.2659323178231716156005859375" lon="1.78051262162625789642333984375">
        <ele>1177.5999755859375</ele>
        <time>2020-08-11T06:32:16.000Z</time>
      </trkpt>
      <trkpt lat="42.26593055762350559234619140625" lon="1.780437268316745758056640625">
        <ele>1178</ele>
        <time>2020-08-11T06:32:21.000Z</time>
      </trkpt>
      <trkpt lat="42.265927456319332122802734375" lon="1.780390329658985137939453125">
        <ele>1178.5999755859375</ele>
        <time>2020-08-11T06:32:24.000Z</time>
      </trkpt>
      <trkpt lat="42.265930809080600738525390625" lon="1.7802961170673370361328125">
        <ele>1179.5999755859375</ele>
        <time>2020-08-11T06:32:30.000Z</time>
      </trkpt>
      <trkpt lat="42.2659316472709178924560546875" lon="1.78028144873678684234619140625">
        <ele>1179.800048828125</ele>
        <time>2020-08-11T06:32:31.000Z</time>
      </trkpt>
      <trkpt lat="42.2659269534051418304443359375" lon="1.780198551714420318603515625">
        <ele>1180.5999755859375</ele>
        <time>2020-08-11T06:32:37.000Z</time>
      </trkpt>
      <trkpt lat="42.26592443883419036865234375" lon="1.78018891252577304840087890625">
        <ele>1180.800048828125</ele>
        <time>2020-08-11T06:32:38.000Z</time>
      </trkpt>
      <trkpt lat="42.2659192420542240142822265625" lon="1.78016846068203449249267578125">
        <ele>1181.4000244140625</ele>
        <time>2020-08-11T06:32:40.000Z</time>
      </trkpt>
      <trkpt lat="42.26592351682484149932861328125" lon="1.78013694472610950469970703125">
        <ele>1182</ele>
        <time>2020-08-11T06:32:44.000Z</time>
      </trkpt>
      <trkpt lat="42.265918068587779998779296875" lon="1.78012252785265445709228515625">
        <ele>1182.199951171875</ele>
        <time>2020-08-11T06:32:45.000Z</time>
      </trkpt>
      <trkpt lat="42.26590725593268871307373046875" lon="1.78006016649305820465087890625">
        <ele>1182.800048828125</ele>
        <time>2020-08-11T06:32:49.000Z</time>
      </trkpt>
      <trkpt lat="42.26590675301849842071533203125" lon="1.78004759363830089569091796875">
        <ele>1183</ele>
        <time>2020-08-11T06:32:50.000Z</time>
      </trkpt>
      <trkpt lat="42.2659031488001346588134765625" lon="1.780034266412258148193359375">
        <ele>1183</ele>
        <time>2020-08-11T06:32:51.000Z</time>
      </trkpt>
      <trkpt lat="42.265892922878265380859375" lon="1.77997291088104248046875">
        <ele>1183</ele>
        <time>2020-08-11T06:32:55.000Z</time>
      </trkpt>
      <trkpt lat="42.26588915102183818817138671875" lon="1.77991180680692195892333984375">
        <ele>1183.800048828125</ele>
        <time>2020-08-11T06:33:00.000Z</time>
      </trkpt>
      <trkpt lat="42.26588512770831584930419921875" lon="1.77987073548138141632080078125">
        <ele>1184</ele>
        <time>2020-08-11T06:33:03.000Z</time>
      </trkpt>
      <trkpt lat="42.2658696211874485015869140625" lon="1.77979311905801296234130859375">
        <ele>1184.5999755859375</ele>
        <time>2020-08-11T06:33:08.000Z</time>
      </trkpt>
      <trkpt lat="42.265843637287616729736328125" lon="1.77970678545534610748291015625">
        <ele>1185</ele>
        <time>2020-08-11T06:33:14.000Z</time>
      </trkpt>
      <trkpt lat="42.2658360935747623443603515625" lon="1.77969236858189105987548828125">
        <ele>1185</ele>
        <time>2020-08-11T06:33:15.000Z</time>
      </trkpt>
      <trkpt lat="42.26582729257643222808837890625" lon="1.77962631918489933013916015625">
        <ele>1185.5999755859375</ele>
        <time>2020-08-11T06:33:19.000Z</time>
      </trkpt>
      <trkpt lat="42.26580482907593250274658203125" lon="1.77957183681428432464599609375">
        <ele>1186</ele>
        <time>2020-08-11T06:33:22.000Z</time>
      </trkpt>
      <trkpt lat="42.265774570405483245849609375" lon="1.77947645075619220733642578125">
        <ele>1186.4000244140625</ele>
        <time>2020-08-11T06:33:28.000Z</time>
      </trkpt>
      <trkpt lat="42.265741042792797088623046875" lon="1.77939430810511112213134765625">
        <ele>1187.199951171875</ele>
        <time>2020-08-11T06:33:33.000Z</time>
      </trkpt>
      <trkpt lat="42.2657237760722637176513671875" lon="1.77935893647372722625732421875">
        <ele>1187.199951171875</ele>
        <time>2020-08-11T06:33:35.000Z</time>
      </trkpt>
      <trkpt lat="42.2657009772956371307373046875" lon="1.779301352798938751220703125">
        <ele>1187.800048828125</ele>
        <time>2020-08-11T06:33:39.000Z</time>
      </trkpt>
      <trkpt lat="42.2656966187059879302978515625" lon="1.7792894504964351654052734375">
        <ele>1187.800048828125</ele>
        <time>2020-08-11T06:33:40.000Z</time>
      </trkpt>
      <trkpt lat="42.26568496786057949066162109375" lon="1.77925407886505126953125">
        <ele>1188.199951171875</ele>
        <time>2020-08-11T06:33:42.000Z</time>
      </trkpt>
      <trkpt lat="42.2656697966158390045166015625" lon="1.77922382019460201263427734375">
        <ele>1188.800048828125</ele>
        <time>2020-08-11T06:33:44.000Z</time>
      </trkpt>
      <trkpt lat="42.2656520269811153411865234375" lon="1.77920454181730747222900390625">
        <ele>1189.199951171875</ele>
        <time>2020-08-11T06:33:46.000Z</time>
      </trkpt>
      <trkpt lat="42.26559310220181941986083984375" lon="1.7791372351348400115966796875">
        <ele>1190.199951171875</ele>
        <time>2020-08-11T06:33:52.000Z</time>
      </trkpt>
      <trkpt lat="42.26558522321283817291259765625" lon="1.77912726067006587982177734375">
        <ele>1190.4000244140625</ele>
        <time>2020-08-11T06:33:53.000Z</time>
      </trkpt>
      <trkpt lat="42.2655336745083332061767578125" lon="1.7790542542934417724609375">
        <ele>1191.4000244140625</ele>
        <time>2020-08-11T06:33:59.000Z</time>
      </trkpt>
      <trkpt lat="42.26549168117344379425048828125" lon="1.77899482659995555877685546875">
        <ele>1191.5999755859375</ele>
        <time>2020-08-11T06:34:03.000Z</time>
      </trkpt>
      <trkpt lat="42.265474498271942138671875" lon="1.77896733395755290985107421875">
        <ele>1191.800048828125</ele>
        <time>2020-08-11T06:34:05.000Z</time>
      </trkpt>
      <trkpt lat="42.26546443998813629150390625" lon="1.77896247245371341705322265625">
        <ele>1192</ele>
        <time>2020-08-11T06:34:06.000Z</time>
      </trkpt>
      <trkpt lat="42.2654302418231964111328125" lon="1.77892726846039295196533203125">
        <ele>1192.4000244140625</ele>
        <time>2020-08-11T06:34:10.000Z</time>
      </trkpt>
      <trkpt lat="42.26541574113070964813232421875" lon="1.77890614606440067291259765625">
        <ele>1192.800048828125</ele>
        <time>2020-08-11T06:34:12.000Z</time>
      </trkpt>
      <trkpt lat="42.26539042778313159942626953125" lon="1.77885317243635654449462890625">
        <ele>1193.5999755859375</ele>
        <time>2020-08-11T06:34:16.000Z</time>
      </trkpt>
      <trkpt lat="42.2653797827661037445068359375" lon="1.7788391746580600738525390625">
        <ele>1194</ele>
        <time>2020-08-11T06:34:18.000Z</time>
      </trkpt>
      <trkpt lat="42.265362851321697235107421875" lon="1.778807826340198516845703125">
        <ele>1194.4000244140625</ele>
        <time>2020-08-11T06:34:21.000Z</time>
      </trkpt>
      <trkpt lat="42.26535924710333347320556640625" lon="1.77879164926707744598388671875">
        <ele>1194.5999755859375</ele>
        <time>2020-08-11T06:34:22.000Z</time>
      </trkpt>
      <trkpt lat="42.2653361968696117401123046875" lon="1.778712607920169830322265625">
        <ele>1195.4000244140625</ele>
        <time>2020-08-11T06:34:28.000Z</time>
      </trkpt>
      <trkpt lat="42.2653167508542537689208984375" lon="1.77862535230815410614013671875">
        <ele>1196</ele>
        <time>2020-08-11T06:34:35.000Z</time>
      </trkpt>
      <trkpt lat="42.2652728296816349029541015625" lon="1.77849568426609039306640625">
        <ele>1196.199951171875</ele>
        <time>2020-08-11T06:34:41.000Z</time>
      </trkpt>
      <trkpt lat="42.265268974006175994873046875" lon="1.77839736454188823699951171875">
        <ele>1196.5999755859375</ele>
        <time>2020-08-11T06:34:47.000Z</time>
      </trkpt>
      <trkpt lat="42.26527643389999866485595703125" lon="1.77836584858596324920654296875">
        <ele>1196.5999755859375</ele>
        <time>2020-08-11T06:34:49.000Z</time>
      </trkpt>
      <trkpt lat="42.26529638282954692840576171875" lon="1.77828772924840450286865234375">
        <ele>1197</ele>
        <time>2020-08-11T06:34:53.000Z</time>
      </trkpt>
      <trkpt lat="42.26531499065458774566650390625" lon="1.778237186372280120849609375">
        <ele>1197.5999755859375</ele>
        <time>2020-08-11T06:34:56.000Z</time>
      </trkpt>
      <trkpt lat="42.26535270921885967254638671875" lon="1.77813216112554073333740234375">
        <ele>1198.5999755859375</ele>
        <time>2020-08-11T06:35:01.000Z</time>
      </trkpt>
      <trkpt lat="42.26535824127495288848876953125" lon="1.77810802124440670013427734375">
        <ele>1198.800048828125</ele>
        <time>2020-08-11T06:35:02.000Z</time>
      </trkpt>
      <trkpt lat="42.2653657011687755584716796875" lon="1.77810014225542545318603515625">
        <ele>1199</ele>
        <time>2020-08-11T06:35:03.000Z</time>
      </trkpt>
      <trkpt lat="42.2653861530125141143798828125" lon="1.7780405469238758087158203125">
        <ele>1199.800048828125</ele>
        <time>2020-08-11T06:35:06.000Z</time>
      </trkpt>
      <trkpt lat="42.2654092870652675628662109375" lon="1.7779590748250484466552734375">
        <ele>1201</ele>
        <time>2020-08-11T06:35:10.000Z</time>
      </trkpt>
      <trkpt lat="42.265421859920024871826171875" lon="1.77789545617997646331787109375">
        <ele>1201.4000244140625</ele>
        <time>2020-08-11T06:35:13.000Z</time>
      </trkpt>
      <trkpt lat="42.26542797870934009552001953125" lon="1.77785840816795825958251953125">
        <ele>1201.800048828125</ele>
        <time>2020-08-11T06:35:15.000Z</time>
      </trkpt>
      <trkpt lat="42.26543066091835498809814453125" lon="1.7778427340090274810791015625">
        <ele>1202</ele>
        <time>2020-08-11T06:35:16.000Z</time>
      </trkpt>
      <trkpt lat="42.265436612069606781005859375" lon="1.7778055183589458465576171875">
        <ele>1202.4000244140625</ele>
        <time>2020-08-11T06:35:18.000Z</time>
      </trkpt>
      <trkpt lat="42.26544172503054141998291015625" lon="1.77777894772589206695556640625">
        <ele>1202.800048828125</ele>
        <time>2020-08-11T06:35:20.000Z</time>
      </trkpt>
      <trkpt lat="42.26544289849698543548583984375" lon="1.77773234434425830841064453125">
        <ele>1203.199951171875</ele>
        <time>2020-08-11T06:35:23.000Z</time>
      </trkpt>
      <trkpt lat="42.265445999801158905029296875" lon="1.77771390415728092193603515625">
        <ele>1203.199951171875</ele>
        <time>2020-08-11T06:35:24.000Z</time>
      </trkpt>
      <trkpt lat="42.26544809527695178985595703125" lon="1.7777002416551113128662109375">
        <ele>1203.199951171875</ele>
        <time>2020-08-11T06:35:25.000Z</time>
      </trkpt>
      <trkpt lat="42.2654558904469013214111328125" lon="1.7776167578995227813720703125">
        <ele>1204.199951171875</ele>
        <time>2020-08-11T06:35:30.000Z</time>
      </trkpt>
      <trkpt lat="42.26546050049364566802978515625" lon="1.77760980091989040374755859375">
        <ele>1204.5999755859375</ele>
        <time>2020-08-11T06:35:31.000Z</time>
      </trkpt>
      <trkpt lat="42.26547357626259326934814453125" lon="1.77754023112356662750244140625">
        <ele>1205.4000244140625</ele>
        <time>2020-08-11T06:35:37.000Z</time>
      </trkpt>
      <trkpt lat="42.2654716484248638153076171875" lon="1.77751558832824230194091796875">
        <ele>1205.4000244140625</ele>
        <time>2020-08-11T06:35:38.000Z</time>
      </trkpt>
      <trkpt lat="42.265472151339054107666015625" lon="1.7774605192244052886962890625">
        <ele>1205.800048828125</ele>
        <time>2020-08-11T06:35:41.000Z</time>
      </trkpt>
      <trkpt lat="42.26547273807227611541748046875" lon="1.777427829802036285400390625">
        <ele>1206.199951171875</ele>
        <time>2020-08-11T06:35:43.000Z</time>
      </trkpt>
      <trkpt lat="42.26546837948262691497802734375" lon="1.77739522419869899749755859375">
        <ele>1206.4000244140625</ele>
        <time>2020-08-11T06:35:45.000Z</time>
      </trkpt>
      <trkpt lat="42.26546938531100749969482421875" lon="1.77737862803041934967041015625">
        <ele>1206.800048828125</ele>
        <time>2020-08-11T06:35:46.000Z</time>
      </trkpt>
      <trkpt lat="42.26547273807227611541748046875" lon="1.7773230560123920440673828125">
        <ele>1206.800048828125</ele>
        <time>2020-08-11T06:35:49.000Z</time>
      </trkpt>
      <trkpt lat="42.26546972058713436126708984375" lon="1.7772462777793407440185546875">
        <ele>1207.199951171875</ele>
        <time>2020-08-11T06:35:52.000Z</time>
      </trkpt>
      <trkpt lat="42.26547424681484699249267578125" lon="1.77721719257533550262451171875">
        <ele>1207.4000244140625</ele>
        <time>2020-08-11T06:35:53.000Z</time>
      </trkpt>
      <trkpt lat="42.2654763422906398773193359375" lon="1.77719389088451862335205078125">
        <ele>1207.800048828125</ele>
        <time>2020-08-11T06:35:54.000Z</time>
      </trkpt>
      <trkpt lat="42.26546519435942173004150390625" lon="1.7771245725452899932861328125">
        <ele>1208.199951171875</ele>
        <time>2020-08-11T06:35:58.000Z</time>
      </trkpt>
      <trkpt lat="42.2654525376856327056884765625" lon="1.77704486064612865447998046875">
        <ele>1208.5999755859375</ele>
        <time>2020-08-11T06:36:02.000Z</time>
      </trkpt>
      <trkpt lat="42.2654538787901401519775390625" lon="1.77703195251524448394775390625">
        <ele>1208.5999755859375</ele>
        <time>2020-08-11T06:36:03.000Z</time>
      </trkpt>
      <trkpt lat="42.265456728637218475341796875" lon="1.777017116546630859375">
        <ele>1208.800048828125</ele>
        <time>2020-08-11T06:36:04.000Z</time>
      </trkpt>
      <trkpt lat="42.26543988101184368133544921875" lon="1.7769740335643291473388671875">
        <ele>1209.5999755859375</ele>
        <time>2020-08-11T06:36:07.000Z</time>
      </trkpt>
      <trkpt lat="42.265435941517353057861328125" lon="1.7769431881606578826904296875">
        <ele>1209.800048828125</ele>
        <time>2020-08-11T06:36:09.000Z</time>
      </trkpt>
      <trkpt lat="42.26543082855641841888427734375" lon="1.77692315541207790374755859375">
        <ele>1209.800048828125</ele>
        <time>2020-08-11T06:36:10.000Z</time>
      </trkpt>
      <trkpt lat="42.26542261429131031036376953125" lon="1.7768640629947185516357421875">
        <ele>1210</ele>
        <time>2020-08-11T06:36:13.000Z</time>
      </trkpt>
      <trkpt lat="42.26541884243488311767578125" lon="1.7768027074635028839111328125">
        <ele>1210.199951171875</ele>
        <time>2020-08-11T06:36:17.000Z</time>
      </trkpt>
      <trkpt lat="42.265416495501995086669921875" lon="1.7767772264778614044189453125">
        <ele>1210.5999755859375</ele>
        <time>2020-08-11T06:36:19.000Z</time>
      </trkpt>
      <trkpt lat="42.26541372947394847869873046875" lon="1.77676289342343807220458984375">
        <ele>1210.5999755859375</ele>
        <time>2020-08-11T06:36:20.000Z</time>
      </trkpt>
      <trkpt lat="42.26539361290633678436279296875" lon="1.776725091040134429931640625">
        <ele>1211</ele>
        <time>2020-08-11T06:36:24.000Z</time>
      </trkpt>
      <trkpt lat="42.2653750889003276824951171875" lon="1.77667446434497833251953125">
        <ele>1210.800048828125</ele>
        <time>2020-08-11T06:36:29.000Z</time>
      </trkpt>
      <trkpt lat="42.2653630189597606658935546875" lon="1.7766295373439788818359375">
        <ele>1210.800048828125</ele>
        <time>2020-08-11T06:36:32.000Z</time>
      </trkpt>
      <trkpt lat="42.26535312831401824951171875" lon="1.77661738358438014984130859375">
        <ele>1210.800048828125</ele>
        <time>2020-08-11T06:36:33.000Z</time>
      </trkpt>
      <trkpt lat="42.26530887186527252197265625" lon="1.77656675688922405242919921875">
        <ele>1210.800048828125</ele>
        <time>2020-08-11T06:36:37.000Z</time>
      </trkpt>
      <trkpt lat="42.26522446610033512115478515625" lon="1.77651411853730678558349609375">
        <ele>1210.800048828125</ele>
        <time>2020-08-11T06:36:42.000Z</time>
      </trkpt>
      <trkpt lat="42.26507225073873996734619140625" lon="1.7764377593994140625">
        <ele>1210.199951171875</ele>
        <time>2020-08-11T06:36:47.000Z</time>
      </trkpt>
      <trkpt lat="42.26495557464659214019775390625" lon="1.7763852886855602264404296875">
        <ele>1209.4000244140625</ele>
        <time>2020-08-11T06:36:50.000Z</time>
      </trkpt>
      <trkpt lat="42.26488717831671237945556640625" lon="1.7763494141399860382080078125">
        <ele>1208.800048828125</ele>
        <time>2020-08-11T06:36:52.000Z</time>
      </trkpt>
      <trkpt lat="42.26483068428933620452880859375" lon="1.77626970224082469940185546875">
        <ele>1208.4000244140625</ele>
        <time>2020-08-11T06:36:54.000Z</time>
      </trkpt>
      <trkpt lat="42.26480989716947078704833984375" lon="1.7762270383536815643310546875">
        <ele>1208.199951171875</ele>
        <time>2020-08-11T06:36:55.000Z</time>
      </trkpt>
      <trkpt lat="42.2647853381931781768798828125" lon="1.7761821113526821136474609375">
        <ele>1208</ele>
        <time>2020-08-11T06:36:56.000Z</time>
      </trkpt>
      <trkpt lat="42.26473697461187839508056640625" lon="1.776090748608112335205078125">
        <ele>1207.199951171875</ele>
        <time>2020-08-11T06:36:58.000Z</time>
      </trkpt>
      <trkpt lat="42.26470948196947574615478515625" lon="1.77604406140744686126708984375">
        <ele>1207</ele>
        <time>2020-08-11T06:36:59.000Z</time>
      </trkpt>
      <trkpt lat="42.2646793909370899200439453125" lon="1.77599796094000339508056640625">
        <ele>1206.800048828125</ele>
        <time>2020-08-11T06:37:00.000Z</time>
      </trkpt>
      <trkpt lat="42.264608480036258697509765625" lon="1.77591078914701938629150390625">
        <ele>1206.199951171875</ele>
        <time>2020-08-11T06:37:02.000Z</time>
      </trkpt>
      <trkpt lat="42.2645700909197330474853515625" lon="1.7758723162114620208740234375">
        <ele>1205.800048828125</ele>
        <time>2020-08-11T06:37:03.000Z</time>
      </trkpt>
      <trkpt lat="42.2645290195941925048828125" lon="1.77571901120245456695556640625">
        <ele>1205.199951171875</ele>
        <time>2020-08-11T06:37:06.000Z</time>
      </trkpt>
      <trkpt lat="42.26456413976848125457763671875" lon="1.77561541087925434112548828125">
        <ele>1205.199951171875</ele>
        <time>2020-08-11T06:37:10.000Z</time>
      </trkpt>
      <trkpt lat="42.26459464989602565765380859375" lon="1.77557266317307949066162109375">
        <ele>1206</ele>
        <time>2020-08-11T06:37:13.000Z</time>
      </trkpt>
      <trkpt lat="42.264623902738094329833984375" lon="1.7755055241286754608154296875">
        <ele>1206.800048828125</ele>
        <time>2020-08-11T06:37:17.000Z</time>
      </trkpt>
      <trkpt lat="42.26462750695645809173583984375" lon="1.7754833959043025970458984375">
        <ele>1207</ele>
        <time>2020-08-11T06:37:18.000Z</time>
      </trkpt>
      <trkpt lat="42.264650054275989532470703125" lon="1.7753995768725872039794921875">
        <ele>1208.199951171875</ele>
        <time>2020-08-11T06:37:23.000Z</time>
      </trkpt>
      <trkpt lat="42.26467461325228214263916015625" lon="1.7752953059971332550048828125">
        <ele>1209.199951171875</ele>
        <time>2020-08-11T06:37:27.000Z</time>
      </trkpt>
      <trkpt lat="42.26469037123024463653564453125" lon="1.77526186220347881317138671875">
        <ele>1209.5999755859375</ele>
        <time>2020-08-11T06:37:29.000Z</time>
      </trkpt>
      <trkpt lat="42.264709062874317169189453125" lon="1.77517385222017765045166015625">
        <ele>1210.4000244140625</ele>
        <time>2020-08-11T06:37:34.000Z</time>
      </trkpt>
      <trkpt lat="42.2647154331207275390625" lon="1.775138564407825469970703125">
        <ele>1210.800048828125</ele>
        <time>2020-08-11T06:37:36.000Z</time>
      </trkpt>
      <trkpt lat="42.2647186182439327239990234375" lon="1.77508550696074962615966796875">
        <ele>1211.4000244140625</ele>
        <time>2020-08-11T06:37:39.000Z</time>
      </trkpt>
      <trkpt lat="42.2647221386432647705078125" lon="1.7750522308051586151123046875">
        <ele>1211.800048828125</ele>
        <time>2020-08-11T06:37:41.000Z</time>
      </trkpt>
      <trkpt lat="42.26472725160419940948486328125" lon="1.77502490580081939697265625">
        <ele>1212.5999755859375</ele>
        <time>2020-08-11T06:37:43.000Z</time>
      </trkpt>
      <trkpt lat="42.2647357173264026641845703125" lon="1.7749741114675998687744140625">
        <ele>1213</ele>
        <time>2020-08-11T06:37:46.000Z</time>
      </trkpt>
      <trkpt lat="42.264740578830242156982421875" lon="1.774945445358753204345703125">
        <ele>1213.5999755859375</ele>
        <time>2020-08-11T06:37:49.000Z</time>
      </trkpt>
      <trkpt lat="42.26474292576313018798828125" lon="1.77489817142486572265625">
        <ele>1214.199951171875</ele>
        <time>2020-08-11T06:37:53.000Z</time>
      </trkpt>
      <trkpt lat="42.26474267430603504180908203125" lon="1.77487411536276340484619140625">
        <ele>1214.800048828125</ele>
        <time>2020-08-11T06:37:55.000Z</time>
      </trkpt>
      <trkpt lat="42.2647467814385890960693359375" lon="1.7748084850609302520751953125">
        <ele>1215.800048828125</ele>
        <time>2020-08-11T06:38:00.000Z</time>
      </trkpt>
      <trkpt lat="42.26474803872406482696533203125" lon="1.77479666657745838165283203125">
        <ele>1216</ele>
        <time>2020-08-11T06:38:01.000Z</time>
      </trkpt>
      <trkpt lat="42.26475390605628490447998046875" lon="1.77470714785158634185791015625">
        <ele>1216.800048828125</ele>
        <time>2020-08-11T06:38:07.000Z</time>
      </trkpt>
      <trkpt lat="42.26475558243691921234130859375" lon="1.774688623845577239990234375">
        <ele>1217</ele>
        <time>2020-08-11T06:38:08.000Z</time>
      </trkpt>
      <trkpt lat="42.264766730368137359619140625" lon="1.7745932377874851226806640625">
        <ele>1217.800048828125</ele>
        <time>2020-08-11T06:38:14.000Z</time>
      </trkpt>
      <trkpt lat="42.26477251388132572174072265625" lon="1.7745496518909931182861328125">
        <ele>1218.4000244140625</ele>
        <time>2020-08-11T06:38:17.000Z</time>
      </trkpt>
      <trkpt lat="42.2647866792976856231689453125" lon="1.77452475763857364654541015625">
        <ele>1218.800048828125</ele>
        <time>2020-08-11T06:38:19.000Z</time>
      </trkpt>
      <trkpt lat="42.26480956189334392547607421875" lon="1.77446901798248291015625">
        <ele>1219.4000244140625</ele>
        <time>2020-08-11T06:38:23.000Z</time>
      </trkpt>
      <trkpt lat="42.26481609977781772613525390625" lon="1.77445485256612300872802734375">
        <ele>1219.800048828125</ele>
        <time>2020-08-11T06:38:24.000Z</time>
      </trkpt>
      <trkpt lat="42.26483336649835109710693359375" lon="1.77443373017013072967529296875">
        <ele>1220.199951171875</ele>
        <time>2020-08-11T06:38:26.000Z</time>
      </trkpt>
      <trkpt lat="42.264847867190837860107421875" lon="1.7744167149066925048828125">
        <ele>1220.800048828125</ele>
        <time>2020-08-11T06:38:28.000Z</time>
      </trkpt>
      <trkpt lat="42.2648661397397518157958984375" lon="1.7744011245667934417724609375">
        <ele>1221.199951171875</ele>
        <time>2020-08-11T06:38:30.000Z</time>
      </trkpt>
      <trkpt lat="42.26493478752672672271728515625" lon="1.7743367515504360198974609375">
        <ele>1222.199951171875</ele>
        <time>2020-08-11T06:38:37.000Z</time>
      </trkpt>
      <trkpt lat="42.26494702510535717010498046875" lon="1.77431956864893436431884765625">
        <ele>1222.4000244140625</ele>
        <time>2020-08-11T06:38:39.000Z</time>
      </trkpt>
      <trkpt lat="42.2649720869958400726318359375" lon="1.77426525391638278961181640625">
        <ele>1223.5999755859375</ele>
        <time>2020-08-11T06:38:43.000Z</time>
      </trkpt>
      <trkpt lat="42.26499262265861034393310546875" lon="1.774182021617889404296875">
        <ele>1224.800048828125</ele>
        <time>2020-08-11T06:38:48.000Z</time>
      </trkpt>
      <trkpt lat="42.26499564014375209808349609375" lon="1.774163581430912017822265625">
        <ele>1224.800048828125</ele>
        <time>2020-08-11T06:38:49.000Z</time>
      </trkpt>
      <trkpt lat="42.26500519551336765289306640625" lon="1.77403843961656093597412109375">
        <ele>1225.800048828125</ele>
        <time>2020-08-11T06:38:56.000Z</time>
      </trkpt>
      <trkpt lat="42.26500486023724079132080078125" lon="1.7740237712860107421875">
        <ele>1225.800048828125</ele>
        <time>2020-08-11T06:38:57.000Z</time>
      </trkpt>
      <trkpt lat="42.2649943828582763671875" lon="1.7739511840045452117919921875">
        <ele>1226.4000244140625</ele>
        <time>2020-08-11T06:39:02.000Z</time>
      </trkpt>
      <trkpt lat="42.26498357020318508148193359375" lon="1.7739206738770008087158203125">
        <ele>1226.800048828125</ele>
        <time>2020-08-11T06:39:04.000Z</time>
      </trkpt>
      <trkpt lat="42.264979295432567596435546875" lon="1.77390449680387973785400390625">
        <ele>1227</ele>
        <time>2020-08-11T06:39:05.000Z</time>
      </trkpt>
      <trkpt lat="42.26496529765427112579345703125" lon="1.7738086916506290435791015625">
        <ele>1228</ele>
        <time>2020-08-11T06:39:11.000Z</time>
      </trkpt>
      <trkpt lat="42.26496077142655849456787109375" lon="1.77379645407199859619140625">
        <ele>1228.199951171875</ele>
        <time>2020-08-11T06:39:12.000Z</time>
      </trkpt>
      <trkpt lat="42.2649308480322360992431640625" lon="1.7737238667905330657958984375">
        <ele>1229</ele>
        <time>2020-08-11T06:39:19.000Z</time>
      </trkpt>
      <trkpt lat="42.2649291716516017913818359375" lon="1.773710288107395172119140625">
        <ele>1229</ele>
        <time>2020-08-11T06:39:25.000Z</time>
      </trkpt>
      <trkpt lat="42.2649313509464263916015625" lon="1.77370794117450714111328125">
        <ele>1229</ele>
        <time>2020-08-11T06:39:35.000Z</time>
      </trkpt>
      <trkpt lat="42.2649301774799823760986328125" lon="1.7737071029841899871826171875">
        <ele>1229</ele>
        <time>2020-08-11T06:39:43.000Z</time>
      </trkpt>
      <trkpt lat="42.2649291716516017913818359375" lon="1.77370651625096797943115234375">
        <ele>1228.800048828125</ele>
        <time>2020-08-11T06:39:50.000Z</time>
      </trkpt>
      <trkpt lat="42.2649311833083629608154296875" lon="1.7737064324319362640380859375">
        <ele>1228.800048828125</ele>
        <time>2020-08-11T06:40:28.000Z</time>
      </trkpt>
      <trkpt lat="42.26493327878415584564208984375" lon="1.77370467223227024078369140625">
        <ele>1228.800048828125</ele>
        <time>2020-08-11T06:40:31.000Z</time>
      </trkpt>
      <trkpt lat="42.264928333461284637451171875" lon="1.77367935888469219207763671875">
        <ele>1229</ele>
        <time>2020-08-11T06:40:34.000Z</time>
      </trkpt>
      <trkpt lat="42.2649187780916690826416015625" lon="1.77360333502292633056640625">
        <ele>1229.800048828125</ele>
        <time>2020-08-11T06:40:41.000Z</time>
      </trkpt>
      <trkpt lat="42.26492355577647686004638671875" lon="1.7735074460506439208984375">
        <ele>1230.199951171875</ele>
        <time>2020-08-11T06:40:48.000Z</time>
      </trkpt>
      <trkpt lat="42.264920957386493682861328125" lon="1.77338968031108379364013671875">
        <ele>1230.5999755859375</ele>
        <time>2020-08-11T06:40:56.000Z</time>
      </trkpt>
      <trkpt lat="42.26492506451904773712158203125" lon="1.7733755148947238922119140625">
        <ele>1230.800048828125</ele>
        <time>2020-08-11T06:40:57.000Z</time>
      </trkpt>
      <trkpt lat="42.264935709536075592041015625" lon="1.77330368198454380035400390625">
        <ele>1231.4000244140625</ele>
        <time>2020-08-11T06:41:01.000Z</time>
      </trkpt>
      <trkpt lat="42.2649395652115345001220703125" lon="1.77328373305499553680419921875">
        <ele>1231.5999755859375</ele>
        <time>2020-08-11T06:41:02.000Z</time>
      </trkpt>
      <trkpt lat="42.26494283415377140045166015625" lon="1.7732675559818744659423828125">
        <ele>1231.5999755859375</ele>
        <time>2020-08-11T06:41:03.000Z</time>
      </trkpt>
      <trkpt lat="42.264951132237911224365234375" lon="1.77317962981760501861572265625">
        <ele>1232.4000244140625</ele>
        <time>2020-08-11T06:41:08.000Z</time>
      </trkpt>
      <trkpt lat="42.26495750248432159423828125" lon="1.7731150053441524505615234375">
        <ele>1232.800048828125</ele>
        <time>2020-08-11T06:41:11.000Z</time>
      </trkpt>
      <trkpt lat="42.26496663875877857208251953125" lon="1.7730228044092655181884765625">
        <ele>1234</ele>
        <time>2020-08-11T06:41:15.000Z</time>
      </trkpt>
      <trkpt lat="42.2649687342345714569091796875" lon="1.77286497317254543304443359375">
        <ele>1235.199951171875</ele>
        <time>2020-08-11T06:41:22.000Z</time>
      </trkpt>
      <trkpt lat="42.2649694047868251800537109375" lon="1.77273832261562347412109375">
        <ele>1236.199951171875</ele>
        <time>2020-08-11T06:41:29.000Z</time>
      </trkpt>
      <trkpt lat="42.2649603523313999176025390625" lon="1.77266984246671199798583984375">
        <ele>1237</ele>
        <time>2020-08-11T06:41:33.000Z</time>
      </trkpt>
      <trkpt lat="42.26496378891170024871826171875" lon="1.7726613767445087432861328125">
        <ele>1237</ele>
        <time>2020-08-11T06:41:34.000Z</time>
      </trkpt>
      <trkpt lat="42.26496999152004718780517578125" lon="1.77263514138758182525634765625">
        <ele>1237.4000244140625</ele>
        <time>2020-08-11T06:41:36.000Z</time>
      </trkpt>
      <trkpt lat="42.26496999152004718780517578125" lon="1.77260563708841800689697265625">
        <ele>1238</ele>
        <time>2020-08-11T06:41:38.000Z</time>
      </trkpt>
      <trkpt lat="42.264973931014537811279296875" lon="1.77254897542297840118408203125">
        <ele>1238.4000244140625</ele>
        <time>2020-08-11T06:41:42.000Z</time>
      </trkpt>
      <trkpt lat="42.2649653814733028411865234375" lon="1.77248057909309864044189453125">
        <ele>1238.5999755859375</ele>
        <time>2020-08-11T06:41:46.000Z</time>
      </trkpt>
      <trkpt lat="42.2649610228836536407470703125" lon="1.77238536067306995391845703125">
        <ele>1239.199951171875</ele>
        <time>2020-08-11T06:41:52.000Z</time>
      </trkpt>
      <trkpt lat="42.26496010087430477142333984375" lon="1.7723706923425197601318359375">
        <ele>1239.4000244140625</ele>
        <time>2020-08-11T06:41:53.000Z</time>
      </trkpt>
      <trkpt lat="42.26494367234408855438232421875" lon="1.77225887775421142578125">
        <ele>1240.4000244140625</ele>
        <time>2020-08-11T06:41:59.000Z</time>
      </trkpt>
      <trkpt lat="42.26494300179183483123779296875" lon="1.77223272621631622314453125">
        <ele>1240.5999755859375</ele>
        <time>2020-08-11T06:42:01.000Z</time>
      </trkpt>
      <trkpt lat="42.26494065485894680023193359375" lon="1.77215033210813999176025390625">
        <ele>1240.800048828125</ele>
        <time>2020-08-11T06:42:06.000Z</time>
      </trkpt>
      <trkpt lat="42.2649342007935047149658203125" lon="1.77204924635589122772216796875">
        <ele>1241.4000244140625</ele>
        <time>2020-08-11T06:42:12.000Z</time>
      </trkpt>
      <trkpt lat="42.2649298422038555145263671875" lon="1.77202896215021610260009765625">
        <ele>1241.5999755859375</ele>
        <time>2020-08-11T06:42:13.000Z</time>
      </trkpt>
      <trkpt lat="42.26491048000752925872802734375" lon="1.7719195783138275146484375">
        <ele>1241.5999755859375</ele>
        <time>2020-08-11T06:42:18.000Z</time>
      </trkpt>
      <trkpt lat="42.2649023495614528656005859375" lon="1.7718832008540630340576171875">
        <ele>1241.800048828125</ele>
        <time>2020-08-11T06:42:20.000Z</time>
      </trkpt>
      <trkpt lat="42.2648926265537738800048828125" lon="1.7717899940907955169677734375">
        <ele>1242.199951171875</ele>
        <time>2020-08-11T06:42:24.000Z</time>
      </trkpt>
      <trkpt lat="42.2648758627474308013916015625" lon="1.771680526435375213623046875">
        <ele>1242.5999755859375</ele>
        <time>2020-08-11T06:42:29.000Z</time>
      </trkpt>
      <trkpt lat="42.2648688219487667083740234375" lon="1.7716592364013195037841796875">
        <ele>1242.5999755859375</ele>
        <time>2020-08-11T06:42:30.000Z</time>
      </trkpt>
      <trkpt lat="42.26486555300652980804443359375" lon="1.77164004184305667877197265625">
        <ele>1242.800048828125</ele>
        <time>2020-08-11T06:42:31.000Z</time>
      </trkpt>
      <trkpt lat="42.26485113613307476043701171875" lon="1.77154733799397945404052734375">
        <ele>1243.199951171875</ele>
        <time>2020-08-11T06:42:36.000Z</time>
      </trkpt>
      <trkpt lat="42.264830768108367919921875" lon="1.771425046026706695556640625">
        <ele>1243.4000244140625</ele>
        <time>2020-08-11T06:42:43.000Z</time>
      </trkpt>
      <trkpt lat="42.26480662822723388671875" lon="1.7713172547519207000732421875">
        <ele>1244</ele>
        <time>2020-08-11T06:42:49.000Z</time>
      </trkpt>
      <trkpt lat="42.2647883556783199310302734375" lon="1.77121482789516448974609375">
        <ele>1244</ele>
        <time>2020-08-11T06:42:54.000Z</time>
      </trkpt>
      <trkpt lat="42.26480419747531414031982421875" lon="1.77114953286945819854736328125">
        <ele>1244.4000244140625</ele>
        <time>2020-08-11T06:42:57.000Z</time>
      </trkpt>
      <trkpt lat="42.264819033443927764892578125" lon="1.77111114375293254852294921875">
        <ele>1244.800048828125</ele>
        <time>2020-08-11T06:42:59.000Z</time>
      </trkpt>
      <trkpt lat="42.26483806036412715911865234375" lon="1.7710486985743045806884765625">
        <ele>1245.5999755859375</ele>
        <time>2020-08-11T06:43:02.000Z</time>
      </trkpt>
      <trkpt lat="42.26486002095043659210205078125" lon="1.7709990777075290679931640625">
        <ele>1246</ele>
        <time>2020-08-11T06:43:05.000Z</time>
      </trkpt>
      <trkpt lat="42.26489271037280559539794921875" lon="1.77089162170886993408203125">
        <ele>1246.4000244140625</ele>
        <time>2020-08-11T06:43:11.000Z</time>
      </trkpt>
      <trkpt lat="42.2649046964943408966064453125" lon="1.770785339176654815673828125">
        <ele>1247.4000244140625</ele>
        <time>2020-08-11T06:43:16.000Z</time>
      </trkpt>
      <trkpt lat="42.26490193046629428863525390625" lon="1.7707456089556217193603515625">
        <ele>1247.800048828125</ele>
        <time>2020-08-11T06:43:18.000Z</time>
      </trkpt>
      <trkpt lat="42.26488550193607807159423828125" lon="1.77064695395529270172119140625">
        <ele>1248.5999755859375</ele>
        <time>2020-08-11T06:43:23.000Z</time>
      </trkpt>
      <trkpt lat="42.26487712003290653228759765625" lon="1.77063253708183765411376953125">
        <ele>1248.800048828125</ele>
        <time>2020-08-11T06:43:24.000Z</time>
      </trkpt>
      <trkpt lat="42.26482850499451160430908203125" lon="1.77059733308851718902587890625">
        <ele>1249.199951171875</ele>
        <time>2020-08-11T06:43:28.000Z</time>
      </trkpt>
      <trkpt lat="42.2647886909544467926025390625" lon="1.7705980874598026275634765625">
        <ele>1249.5999755859375</ele>
        <time>2020-08-11T06:43:31.000Z</time>
      </trkpt>
      <trkpt lat="42.264723144471645355224609375" lon="1.7706634663045406341552734375">
        <ele>1250.800048828125</ele>
        <time>2020-08-11T06:43:38.000Z</time>
      </trkpt>
      <trkpt lat="42.2647169418632984161376953125" lon="1.7706765420734882354736328125">
        <ele>1251</ele>
        <time>2020-08-11T06:43:39.000Z</time>
      </trkpt>
      <trkpt lat="42.2647087275981903076171875" lon="1.77068752236664295196533203125">
        <ele>1251.199951171875</ele>
        <time>2020-08-11T06:43:40.000Z</time>
      </trkpt>
      <trkpt lat="42.264683246612548828125" lon="1.7707191221415996551513671875">
        <ele>1251.800048828125</ele>
        <time>2020-08-11T06:43:43.000Z</time>
      </trkpt>
      <trkpt lat="42.2646706737577915191650390625" lon="1.77074418403208255767822265625">
        <ele>1252</ele>
        <time>2020-08-11T06:43:45.000Z</time>
      </trkpt>
      <trkpt lat="42.2645979188382625579833984375" lon="1.77081559784710407257080078125">
        <ele>1253</ele>
        <time>2020-08-11T06:43:53.000Z</time>
      </trkpt>
      <trkpt lat="42.26458727382123470306396484375" lon="1.77081911824643611907958984375">
        <ele>1253.199951171875</ele>
        <time>2020-08-11T06:43:54.000Z</time>
      </trkpt>
      <trkpt lat="42.26451720111072063446044921875" lon="1.7708773724734783172607421875">
        <ele>1253.5999755859375</ele>
        <time>2020-08-11T06:44:01.000Z</time>
      </trkpt>
      <trkpt lat="42.26449792273342609405517578125" lon="1.770921461284160614013671875">
        <ele>1254</ele>
        <time>2020-08-11T06:44:04.000Z</time>
      </trkpt>
      <trkpt lat="42.26447143591940402984619140625" lon="1.77098147571086883544921875">
        <ele>1254.199951171875</ele>
        <time>2020-08-11T06:44:08.000Z</time>
      </trkpt>
      <trkpt lat="42.2644681669771671295166015625" lon="1.771108545362949371337890625">
        <ele>1255</ele>
        <time>2020-08-11T06:44:15.000Z</time>
      </trkpt>
      <trkpt lat="42.26447193883359432220458984375" lon="1.77117518149316310882568359375">
        <ele>1256</ele>
        <time>2020-08-11T06:44:20.000Z</time>
      </trkpt>
      <trkpt lat="42.26447110064327716827392578125" lon="1.771190352737903594970703125">
        <ele>1256.199951171875</ele>
        <time>2020-08-11T06:44:21.000Z</time>
      </trkpt>
      <trkpt lat="42.2644688375294208526611328125" lon="1.7712570726871490478515625">
        <ele>1256.4000244140625</ele>
        <time>2020-08-11T06:44:25.000Z</time>
      </trkpt>
      <trkpt lat="42.2644674964249134063720703125" lon="1.771281547844409942626953125">
        <ele>1256.5999755859375</ele>
        <time>2020-08-11T06:44:27.000Z</time>
      </trkpt>
      <trkpt lat="42.26445919834077358245849609375" lon="1.7713407240808010101318359375">
        <ele>1257</ele>
        <time>2020-08-11T06:44:32.000Z</time>
      </trkpt>
      <trkpt lat="42.26444997824728488922119140625" lon="1.77146988920867443084716796875">
        <ele>1257.800048828125</ele>
        <time>2020-08-11T06:44:40.000Z</time>
      </trkpt>
      <trkpt lat="42.2644497267901897430419921875" lon="1.77149972878396511077880859375">
        <ele>1258</ele>
        <time>2020-08-11T06:44:42.000Z</time>
      </trkpt>
      <trkpt lat="42.2644413448870182037353515625" lon="1.7715288139879703521728515625">
        <ele>1258.199951171875</ele>
        <time>2020-08-11T06:44:44.000Z</time>
      </trkpt>
      <trkpt lat="42.26444243453443050384521484375" lon="1.77155622281134128570556640625">
        <ele>1258.5999755859375</ele>
        <time>2020-08-11T06:44:46.000Z</time>
      </trkpt>
      <trkpt lat="42.2644480504095554351806640625" lon="1.7716448195278644561767578125">
        <ele>1259.199951171875</ele>
        <time>2020-08-11T06:44:51.000Z</time>
      </trkpt>
      <trkpt lat="42.2644512355327606201171875" lon="1.771682202816009521484375">
        <ele>1259.199951171875</ele>
        <time>2020-08-11T06:44:53.000Z</time>
      </trkpt>
      <trkpt lat="42.2644524089992046356201171875" lon="1.77173375152051448822021484375">
        <ele>1259.4000244140625</ele>
        <time>2020-08-11T06:44:56.000Z</time>
      </trkpt>
      <trkpt lat="42.2644651494920253753662109375" lon="1.77179913036525249481201171875">
        <ele>1259.800048828125</ele>
        <time>2020-08-11T06:45:00.000Z</time>
      </trkpt>
      <trkpt lat="42.26447780616581439971923828125" lon="1.7718687839806079864501953125">
        <ele>1260</ele>
        <time>2020-08-11T06:45:04.000Z</time>
      </trkpt>
      <trkpt lat="42.264480404555797576904296875" lon="1.7718900740146636962890625">
        <ele>1260.199951171875</ele>
        <time>2020-08-11T06:45:05.000Z</time>
      </trkpt>
      <trkpt lat="42.264484427869319915771484375" lon="1.7719660140573978424072265625">
        <ele>1261</ele>
        <time>2020-08-11T06:45:09.000Z</time>
      </trkpt>
      <trkpt lat="42.26448836736381053924560546875" lon="1.7720095999538898468017578125">
        <ele>1261.199951171875</ele>
        <time>2020-08-11T06:45:11.000Z</time>
      </trkpt>
      <trkpt lat="42.26449054665863513946533203125" lon="1.7720290459692478179931640625">
        <ele>1261.199951171875</ele>
        <time>2020-08-11T06:45:12.000Z</time>
      </trkpt>
      <trkpt lat="42.26449825800955295562744140625" lon="1.77215636707842350006103515625">
        <ele>1261.4000244140625</ele>
        <time>2020-08-11T06:45:19.000Z</time>
      </trkpt>
      <trkpt lat="42.26449188776314258575439453125" lon="1.7722077481448650360107421875">
        <ele>1262.199951171875</ele>
        <time>2020-08-11T06:45:22.000Z</time>
      </trkpt>
      <trkpt lat="42.26449071429669857025146484375" lon="1.7722416110336780548095703125">
        <ele>1262.199951171875</ele>
        <time>2020-08-11T06:45:24.000Z</time>
      </trkpt>
      <trkpt lat="42.26449104957282543182373046875" lon="1.772280000150203704833984375">
        <ele>1262.199951171875</ele>
        <time>2020-08-11T06:45:26.000Z</time>
      </trkpt>
      <trkpt lat="42.2644919715821743011474609375" lon="1.772416122257709503173828125">
        <ele>1262.5999755859375</ele>
        <time>2020-08-11T06:45:33.000Z</time>
      </trkpt>
      <trkpt lat="42.2644832544028759002685546875" lon="1.7724903859198093414306640625">
        <ele>1262.800048828125</ele>
        <time>2020-08-11T06:45:37.000Z</time>
      </trkpt>
      <trkpt lat="42.26446674205362796783447265625" lon="1.77254998125135898590087890625">
        <ele>1263.199951171875</ele>
        <time>2020-08-11T06:45:41.000Z</time>
      </trkpt>
      <trkpt lat="42.264437489211559295654296875" lon="1.7726218141615390777587890625">
        <ele>1263.800048828125</ele>
        <time>2020-08-11T06:45:46.000Z</time>
      </trkpt>
      <trkpt lat="42.26441812701523303985595703125" lon="1.77266146056354045867919921875">
        <ele>1263.800048828125</ele>
        <time>2020-08-11T06:45:49.000Z</time>
      </trkpt>
      <trkpt lat="42.26437722332775592803955078125" lon="1.77271309308707714080810546875">
        <ele>1264</ele>
        <time>2020-08-11T06:45:53.000Z</time>
      </trkpt>
      <trkpt lat="42.26434738375246524810791015625" lon="1.77275315858423709869384765625">
        <ele>1264</ele>
        <time>2020-08-11T06:45:56.000Z</time>
      </trkpt>
      <trkpt lat="42.26425652392208576202392578125" lon="1.772821135818958282470703125">
        <ele>1264.5999755859375</ele>
        <time>2020-08-11T06:46:03.000Z</time>
      </trkpt>
      <trkpt lat="42.26416432298719882965087890625" lon="1.77288089878857135772705078125">
        <ele>1265</ele>
        <time>2020-08-11T06:46:10.000Z</time>
      </trkpt>
      <trkpt lat="42.2641308791935443878173828125" lon="1.77290705032646656036376953125">
        <ele>1265.199951171875</ele>
        <time>2020-08-11T06:46:13.000Z</time>
      </trkpt>
      <trkpt lat="42.26403742097318172454833984375" lon="1.77301601506769657135009765625">
        <ele>1265.5999755859375</ele>
        <time>2020-08-11T06:46:21.000Z</time>
      </trkpt>
      <trkpt lat="42.26400322280824184417724609375" lon="1.77311156876385211944580078125">
        <ele>1266.199951171875</ele>
        <time>2020-08-11T06:46:26.000Z</time>
      </trkpt>
      <trkpt lat="42.26399634964764118194580078125" lon="1.7731498740613460540771484375">
        <ele>1266.4000244140625</ele>
        <time>2020-08-11T06:46:28.000Z</time>
      </trkpt>
      <trkpt lat="42.2639877162873744964599609375" lon="1.7732043564319610595703125">
        <ele>1267.199951171875</ele>
        <time>2020-08-11T06:46:31.000Z</time>
      </trkpt>
      <trkpt lat="42.2639629058539867401123046875" lon="1.7732665501534938812255859375">
        <ele>1267.5999755859375</ele>
        <time>2020-08-11T06:46:35.000Z</time>
      </trkpt>
      <trkpt lat="42.263941951096057891845703125" lon="1.77332480438053607940673828125">
        <ele>1268.4000244140625</ele>
        <time>2020-08-11T06:46:39.000Z</time>
      </trkpt>
      <trkpt lat="42.26393801160156726837158203125" lon="1.77333888597786426544189453125">
        <ele>1268.4000244140625</ele>
        <time>2020-08-11T06:46:40.000Z</time>
      </trkpt>
      <trkpt lat="42.26393532939255237579345703125" lon="1.77335866726934909820556640625">
        <ele>1268.5999755859375</ele>
        <time>2020-08-11T06:46:41.000Z</time>
      </trkpt>
      <trkpt lat="42.26391571573913097381591796875" lon="1.7734687216579914093017578125">
        <ele>1269.199951171875</ele>
        <time>2020-08-11T06:46:47.000Z</time>
      </trkpt>
      <trkpt lat="42.26390783675014972686767578125" lon="1.7735066078603267669677734375">
        <ele>1269.199951171875</ele>
        <time>2020-08-11T06:46:49.000Z</time>
      </trkpt>
      <trkpt lat="42.2638935036957263946533203125" lon="1.77355547435581684112548828125">
        <ele>1269.4000244140625</ele>
        <time>2020-08-11T06:46:52.000Z</time>
      </trkpt>
      <trkpt lat="42.2638814337551593780517578125" lon="1.773586571216583251953125">
        <ele>1269.5999755859375</ele>
        <time>2020-08-11T06:46:54.000Z</time>
      </trkpt>
      <trkpt lat="42.26384396664798259735107421875" lon="1.77371590398252010345458984375">
        <ele>1270.199951171875</ele>
        <time>2020-08-11T06:47:01.000Z</time>
      </trkpt>
      <trkpt lat="42.26383692584931850433349609375" lon="1.77373367361724376678466796875">
        <ele>1270.199951171875</ele>
        <time>2020-08-11T06:47:02.000Z</time>
      </trkpt>
      <trkpt lat="42.2637860476970672607421875" lon="1.7738351784646511077880859375">
        <ele>1271.4000244140625</ele>
        <time>2020-08-11T06:47:08.000Z</time>
      </trkpt>
      <trkpt lat="42.2637768276035785675048828125" lon="1.773852445185184478759765625">
        <ele>1271.4000244140625</ele>
        <time>2020-08-11T06:47:09.000Z</time>
      </trkpt>
      <trkpt lat="42.26370667107403278350830078125" lon="1.773963756859302520751953125">
        <ele>1272</ele>
        <time>2020-08-11T06:47:16.000Z</time>
      </trkpt>
      <trkpt lat="42.263639867305755615234375" lon="1.774106584489345550537109375">
        <ele>1272.5999755859375</ele>
        <time>2020-08-11T06:47:24.000Z</time>
      </trkpt>
      <trkpt lat="42.2635961137712001800537109375" lon="1.77420146763324737548828125">
        <ele>1273.800048828125</ele>
        <time>2020-08-11T06:47:30.000Z</time>
      </trkpt>
      <trkpt lat="42.2635890729725360870361328125" lon="1.774219572544097900390625">
        <ele>1273.800048828125</ele>
        <time>2020-08-11T06:47:31.000Z</time>
      </trkpt>
      <trkpt lat="42.26351983845233917236328125" lon="1.7743290401995182037353515625">
        <ele>1274.199951171875</ele>
        <time>2020-08-11T06:47:38.000Z</time>
      </trkpt>
      <trkpt lat="42.2634884901344776153564453125" lon="1.77437673322856426239013671875">
        <ele>1274.800048828125</ele>
        <time>2020-08-11T06:47:41.000Z</time>
      </trkpt>
      <trkpt lat="42.26345756091177463531494140625" lon="1.77441445179283618927001953125">
        <ele>1275.199951171875</ele>
        <time>2020-08-11T06:47:44.000Z</time>
      </trkpt>
      <trkpt lat="42.2634361870586872100830078125" lon="1.7744296230375766754150390625">
        <ele>1275.4000244140625</ele>
        <time>2020-08-11T06:47:46.000Z</time>
      </trkpt>
      <trkpt lat="42.2633972950279712677001953125" lon="1.7744561098515987396240234375">
        <ele>1276</ele>
        <time>2020-08-11T06:47:49.000Z</time>
      </trkpt>
      <trkpt lat="42.2633738256990909576416015625" lon="1.77447547204792499542236328125">
        <ele>1276.199951171875</ele>
        <time>2020-08-11T06:47:51.000Z</time>
      </trkpt>
      <trkpt lat="42.26331825368106365203857421875" lon="1.77451268769800662994384765625">
        <ele>1276.5999755859375</ele>
        <time>2020-08-11T06:47:55.000Z</time>
      </trkpt>
      <trkpt lat="42.26326410658657550811767578125" lon="1.77457622252404689788818359375">
        <ele>1277.199951171875</ele>
        <time>2020-08-11T06:48:00.000Z</time>
      </trkpt>
      <trkpt lat="42.2632326744496822357177734375" lon="1.77461561746895313262939453125">
        <ele>1277.199951171875</ele>
        <time>2020-08-11T06:48:03.000Z</time>
      </trkpt>
      <trkpt lat="42.26322722621262073516845703125" lon="1.77463154308497905731201171875">
        <ele>1277.4000244140625</ele>
        <time>2020-08-11T06:48:04.000Z</time>
      </trkpt>
      <trkpt lat="42.26320065557956695556640625" lon="1.77469843067228794097900390625">
        <ele>1278.199951171875</ele>
        <time>2020-08-11T06:48:08.000Z</time>
      </trkpt>
      <trkpt lat="42.2631944529712200164794921875" lon="1.77471754141151905059814453125">
        <ele>1278.4000244140625</ele>
        <time>2020-08-11T06:48:09.000Z</time>
      </trkpt>
      <trkpt lat="42.263189256191253662109375" lon="1.7747353948652744293212890625">
        <ele>1278.5999755859375</ele>
        <time>2020-08-11T06:48:10.000Z</time>
      </trkpt>
      <trkpt lat="42.26316981017589569091796875" lon="1.7748021148145198822021484375">
        <ele>1279</ele>
        <time>2020-08-11T06:48:14.000Z</time>
      </trkpt>
      <trkpt lat="42.263140641152858734130859375" lon="1.774836815893650054931640625">
        <ele>1279.199951171875</ele>
        <time>2020-08-11T06:48:17.000Z</time>
      </trkpt>
      <trkpt lat="42.26307325065135955810546875" lon="1.77492708899080753326416015625">
        <ele>1280</ele>
        <time>2020-08-11T06:48:24.000Z</time>
      </trkpt>
      <trkpt lat="42.26297912187874317169189453125" lon="1.7750217206776142120361328125">
        <ele>1280.5999755859375</ele>
        <time>2020-08-11T06:48:33.000Z</time>
      </trkpt>
      <trkpt lat="42.262948863208293914794921875" lon="1.77504879422485828399658203125">
        <ele>1281.199951171875</ele>
        <time>2020-08-11T06:48:36.000Z</time>
      </trkpt>
      <trkpt lat="42.26291776634752750396728515625" lon="1.775099001824855804443359375">
        <ele>1281.5999755859375</ele>
        <time>2020-08-11T06:48:40.000Z</time>
      </trkpt>
      <trkpt lat="42.26288541220128536224365234375" lon="1.7751699127256870269775390625">
        <ele>1282</ele>
        <time>2020-08-11T06:48:45.000Z</time>
      </trkpt>
      <trkpt lat="42.26286982186138629913330078125" lon="1.7752014286816120147705078125">
        <ele>1282</ele>
        <time>2020-08-11T06:48:47.000Z</time>
      </trkpt>
      <trkpt lat="42.2628119029104709625244140625" lon="1.77531617693603038787841796875">
        <ele>1282.5999755859375</ele>
        <time>2020-08-11T06:48:54.000Z</time>
      </trkpt>
      <trkpt lat="42.2627453505992889404296875" lon="1.775386668741703033447265625">
        <ele>1282.800048828125</ele>
        <time>2020-08-11T06:48:59.000Z</time>
      </trkpt>
      <trkpt lat="42.26272967644035816192626953125" lon="1.775398738682270050048828125">
        <ele>1282.800048828125</ele>
        <time>2020-08-11T06:49:00.000Z</time>
      </trkpt>
      <trkpt lat="42.2626729309558868408203125" lon="1.77542715333402156829833984375">
        <ele>1283</ele>
        <time>2020-08-11T06:49:04.000Z</time>
      </trkpt>
      <trkpt lat="42.26264870725572109222412109375" lon="1.77544207312166690826416015625">
        <ele>1283.4000244140625</ele>
        <time>2020-08-11T06:49:06.000Z</time>
      </trkpt>
      <trkpt lat="42.26256606169044971466064453125" lon="1.77550560794770717620849609375">
        <ele>1283.800048828125</ele>
        <time>2020-08-11T06:49:12.000Z</time>
      </trkpt>
      <trkpt lat="42.262527085840702056884765625" lon="1.77555740810930728912353515625">
        <ele>1284</ele>
        <time>2020-08-11T06:49:15.000Z</time>
      </trkpt>
      <trkpt lat="42.26251929067075252532958984375" lon="1.77560317330062389373779296875">
        <ele>1284</ele>
        <time>2020-08-11T06:49:17.000Z</time>
      </trkpt>
      <trkpt lat="42.26252264343202114105224609375" lon="1.775658242404460906982421875">
        <ele>1284.4000244140625</ele>
        <time>2020-08-11T06:49:20.000Z</time>
      </trkpt>
      <trkpt lat="42.26253052242100238800048828125" lon="1.775707863271236419677734375">
        <ele>1284.4000244140625</ele>
        <time>2020-08-11T06:49:23.000Z</time>
      </trkpt>
      <trkpt lat="42.2625602781772613525390625" lon="1.7758221924304962158203125">
        <ele>1285</ele>
        <time>2020-08-11T06:49:29.000Z</time>
      </trkpt>
      <trkpt lat="42.26256472058594226837158203125" lon="1.77584373392164707183837890625">
        <ele>1285.199951171875</ele>
        <time>2020-08-11T06:49:30.000Z</time>
      </trkpt>
      <trkpt lat="42.26260109804570674896240234375" lon="1.77595253102481365203857421875">
        <ele>1285.5999755859375</ele>
        <time>2020-08-11T06:49:36.000Z</time>
      </trkpt>
      <trkpt lat="42.2626187838613986968994140625" lon="1.77600835449993610382080078125">
        <ele>1286</ele>
        <time>2020-08-11T06:49:39.000Z</time>
      </trkpt>
      <trkpt lat="42.2626422531902790069580078125" lon="1.7760775052011013031005859375">
        <ele>1286.5999755859375</ele>
        <time>2020-08-11T06:49:43.000Z</time>
      </trkpt>
      <trkpt lat="42.26264954544603824615478515625" lon="1.77611748687922954559326171875">
        <ele>1287.199951171875</ele>
        <time>2020-08-11T06:49:46.000Z</time>
      </trkpt>
      <trkpt lat="42.2626697458326816558837890625" lon="1.77618102170526981353759765625">
        <ele>1287.5999755859375</ele>
        <time>2020-08-11T06:49:50.000Z</time>
      </trkpt>
      <trkpt lat="42.26268609054386615753173828125" lon="1.77628747187554836273193359375">
        <ele>1288</ele>
        <time>2020-08-11T06:49:57.000Z</time>
      </trkpt>
      <trkpt lat="42.26269430480897426605224609375" lon="1.77636492066085338592529296875">
        <ele>1288</ele>
        <time>2020-08-11T06:50:01.000Z</time>
      </trkpt>
      <trkpt lat="42.26269899867475032806396484375" lon="1.77640079520642757415771484375">
        <ele>1288.199951171875</ele>
        <time>2020-08-11T06:50:03.000Z</time>
      </trkpt>
      <trkpt lat="42.26269883103668689727783203125" lon="1.7764318920671939849853515625">
        <ele>1288.4000244140625</ele>
        <time>2020-08-11T06:50:05.000Z</time>
      </trkpt>
      <trkpt lat="42.26269640028476715087890625" lon="1.7764684371650218963623046875">
        <ele>1288.800048828125</ele>
        <time>2020-08-11T06:50:08.000Z</time>
      </trkpt>
      <trkpt lat="42.262696735560894012451171875" lon="1.7764902301132678985595703125">
        <ele>1288.800048828125</ele>
        <time>2020-08-11T06:50:09.000Z</time>
      </trkpt>
      <trkpt lat="42.26269195787608623504638671875" lon="1.77655066363513469696044921875">
        <ele>1289.199951171875</ele>
        <time>2020-08-11T06:50:13.000Z</time>
      </trkpt>
      <trkpt lat="42.2626891918480396270751953125" lon="1.77660204470157623291015625">
        <ele>1289.5999755859375</ele>
        <time>2020-08-11T06:50:16.000Z</time>
      </trkpt>
      <trkpt lat="42.26268860511481761932373046875" lon="1.77667387761175632476806640625">
        <ele>1290.199951171875</ele>
        <time>2020-08-11T06:50:20.000Z</time>
      </trkpt>
      <trkpt lat="42.26269011385738849639892578125" lon="1.77673992700874805450439453125">
        <ele>1290.4000244140625</ele>
        <time>2020-08-11T06:50:24.000Z</time>
      </trkpt>
      <trkpt lat="42.2626828216016292572021484375" lon="1.776861213147640228271484375">
        <ele>1290.800048828125</ele>
        <time>2020-08-11T06:50:31.000Z</time>
      </trkpt>
      <trkpt lat="42.26268005557358264923095703125" lon="1.7769083194434642791748046875">
        <ele>1291</ele>
        <time>2020-08-11T06:50:34.000Z</time>
      </trkpt>
      <trkpt lat="42.26267687045037746429443359375" lon="1.7769485525786876678466796875">
        <ele>1291.4000244140625</ele>
        <time>2020-08-11T06:50:37.000Z</time>
      </trkpt>
      <trkpt lat="42.262674607336521148681640625" lon="1.7769810743629932403564453125">
        <ele>1291.5999755859375</ele>
        <time>2020-08-11T06:50:39.000Z</time>
      </trkpt>
      <trkpt lat="42.2626700811088085174560546875" lon="1.777018792927265167236328125">
        <ele>1292.4000244140625</ele>
        <time>2020-08-11T06:50:41.000Z</time>
      </trkpt>
      <trkpt lat="42.26267050020396709442138671875" lon="1.77705659531056880950927734375">
        <ele>1292.5999755859375</ele>
        <time>2020-08-11T06:50:43.000Z</time>
      </trkpt>
      <trkpt lat="42.2626586817204952239990234375" lon="1.77715281955897808074951171875">
        <ele>1293.199951171875</ele>
        <time>2020-08-11T06:50:48.000Z</time>
      </trkpt>
      <trkpt lat="42.262655161321163177490234375" lon="1.77717008627951145172119140625">
        <ele>1293.199951171875</ele>
        <time>2020-08-11T06:50:49.000Z</time>
      </trkpt>
      <trkpt lat="42.262654490768909454345703125" lon="1.77718944847583770751953125">
        <ele>1293.4000244140625</ele>
        <time>2020-08-11T06:50:50.000Z</time>
      </trkpt>
      <trkpt lat="42.26262439973652362823486328125" lon="1.77726781927049160003662109375">
        <ele>1293.800048828125</ele>
        <time>2020-08-11T06:50:55.000Z</time>
      </trkpt>
      <trkpt lat="42.26260730065405368804931640625" lon="1.77729682065546512603759765625">
        <ele>1294</ele>
        <time>2020-08-11T06:50:57.000Z</time>
      </trkpt>
      <trkpt lat="42.2625819034874439239501953125" lon="1.7773458547890186309814453125">
        <ele>1294.4000244140625</ele>
        <time>2020-08-11T06:51:00.000Z</time>
      </trkpt>
      <trkpt lat="42.26256363093852996826171875" lon="1.777370162308216094970703125">
        <ele>1294.5999755859375</ele>
        <time>2020-08-11T06:51:02.000Z</time>
      </trkpt>
      <trkpt lat="42.262487523257732391357421875" lon="1.777429170906543731689453125">
        <ele>1294.5999755859375</ele>
        <time>2020-08-11T06:51:09.000Z</time>
      </trkpt>
      <trkpt lat="42.26240043528378009796142578125" lon="1.77748289890587329864501953125">
        <ele>1295.4000244140625</ele>
        <time>2020-08-11T06:51:16.000Z</time>
      </trkpt>
      <trkpt lat="42.2623904608190059661865234375" lon="1.77749119699001312255859375">
        <ele>1295.4000244140625</ele>
        <time>2020-08-11T06:51:17.000Z</time>
      </trkpt>
      <trkpt lat="42.2623451985418796539306640625" lon="1.77750284783542156219482421875">
        <ele>1295.800048828125</ele>
        <time>2020-08-11T06:51:21.000Z</time>
      </trkpt>
      <trkpt lat="42.26231091655790805816650390625" lon="1.77751240320503711700439453125">
        <ele>1296.4000244140625</ele>
        <time>2020-08-11T06:51:24.000Z</time>
      </trkpt>
      <trkpt lat="42.26229063235223293304443359375" lon="1.777520366013050079345703125">
        <ele>1296.800048828125</ele>
        <time>2020-08-11T06:51:26.000Z</time>
      </trkpt>
      <trkpt lat="42.26226783357560634613037109375" lon="1.7775282450020313262939453125">
        <ele>1296.800048828125</ele>
        <time>2020-08-11T06:51:28.000Z</time>
      </trkpt>
      <trkpt lat="42.2622043825685977935791015625" lon="1.7775468528270721435546875">
        <ele>1297.199951171875</ele>
        <time>2020-08-11T06:51:33.000Z</time>
      </trkpt>
      <trkpt lat="42.262191139161586761474609375" lon="1.7775500379502773284912109375">
        <ele>1297.4000244140625</ele>
        <time>2020-08-11T06:51:34.000Z</time>
      </trkpt>
      <trkpt lat="42.2621557675302028656005859375" lon="1.777563281357288360595703125">
        <ele>1297.4000244140625</ele>
        <time>2020-08-11T06:51:37.000Z</time>
      </trkpt>
      <trkpt lat="42.262120060622692108154296875" lon="1.7775802128016948699951171875">
        <ele>1297.5999755859375</ele>
        <time>2020-08-11T06:51:40.000Z</time>
      </trkpt>
      <trkpt lat="42.26200715638697147369384765625" lon="1.77759538404643535614013671875">
        <ele>1298.4000244140625</ele>
        <time>2020-08-11T06:51:48.000Z</time>
      </trkpt>
      <trkpt lat="42.2619797475636005401611328125" lon="1.7775993235409259796142578125">
        <ele>1298.5999755859375</ele>
        <time>2020-08-11T06:51:50.000Z</time>
      </trkpt>
      <trkpt lat="42.26190514862537384033203125" lon="1.77762153558433055877685546875">
        <ele>1299.199951171875</ele>
        <time>2020-08-11T06:51:56.000Z</time>
      </trkpt>
      <trkpt lat="42.26189215667545795440673828125" lon="1.7776258103549480438232421875">
        <ele>1299.4000244140625</ele>
        <time>2020-08-11T06:51:57.000Z</time>
      </trkpt>
      <trkpt lat="42.2618134506046772003173828125" lon="1.7776546441018581390380859375">
        <ele>1299.800048828125</ele>
        <time>2020-08-11T06:52:02.000Z</time>
      </trkpt>
      <trkpt lat="42.2617993690073490142822265625" lon="1.77765958942472934722900390625">
        <ele>1299.800048828125</ele>
        <time>2020-08-11T06:52:03.000Z</time>
      </trkpt>
      <trkpt lat="42.26169191300868988037109375" lon="1.77771574817597866058349609375">
        <ele>1299.800048828125</ele>
        <time>2020-08-11T06:52:10.000Z</time>
      </trkpt>
      <trkpt lat="42.26164421997964382171630859375" lon="1.77774793468415737152099609375">
        <ele>1300.4000244140625</ele>
        <time>2020-08-11T06:52:14.000Z</time>
      </trkpt>
      <trkpt lat="42.26163231767714023590087890625" lon="1.77774910815060138702392578125">
        <ele>1300.5999755859375</ele>
        <time>2020-08-11T06:52:15.000Z</time>
      </trkpt>
      <trkpt lat="42.26157548837363719940185546875" lon="1.7777870781719684600830078125">
        <ele>1301.199951171875</ele>
        <time>2020-08-11T06:52:19.000Z</time>
      </trkpt>
      <trkpt lat="42.26156241260468959808349609375" lon="1.77778833545744419097900390625">
        <ele>1301.5999755859375</ele>
        <time>2020-08-11T06:52:20.000Z</time>
      </trkpt>
      <trkpt lat="42.2615495882928371429443359375" lon="1.77779738791286945343017578125">
        <ele>1301.5999755859375</ele>
        <time>2020-08-11T06:52:21.000Z</time>
      </trkpt>
      <trkpt lat="42.26152083836495876312255859375" lon="1.7778231203556060791015625">
        <ele>1301.800048828125</ele>
        <time>2020-08-11T06:52:23.000Z</time>
      </trkpt>
      <trkpt lat="42.2614315710961818695068359375" lon="1.7778625153005123138427734375">
        <ele>1302.199951171875</ele>
        <time>2020-08-11T06:52:29.000Z</time>
      </trkpt>
      <trkpt lat="42.26135353557765483856201171875" lon="1.7779238708317279815673828125">
        <ele>1302.5999755859375</ele>
        <time>2020-08-11T06:52:35.000Z</time>
      </trkpt>
      <trkpt lat="42.26133048534393310546875" lon="1.77794759161770343780517578125">
        <ele>1302.800048828125</ele>
        <time>2020-08-11T06:52:37.000Z</time>
      </trkpt>
      <trkpt lat="42.261268459260463714599609375" lon="1.77803099155426025390625">
        <ele>1303.199951171875</ele>
        <time>2020-08-11T06:52:43.000Z</time>
      </trkpt>
      <trkpt lat="42.2612481750547885894775390625" lon="1.77807164378464221954345703125">
        <ele>1303.5999755859375</ele>
        <time>2020-08-11T06:52:46.000Z</time>
      </trkpt>
      <trkpt lat="42.26122898049652576446533203125" lon="1.7781418003141880035400390625">
        <ele>1304</ele>
        <time>2020-08-11T06:52:51.000Z</time>
      </trkpt>
      <trkpt lat="42.26121841929852962493896484375" lon="1.7781716398894786834716796875">
        <ele>1304.4000244140625</ele>
        <time>2020-08-11T06:52:53.000Z</time>
      </trkpt>
      <trkpt lat="42.2611945308744907379150390625" lon="1.77825788967311382293701171875">
        <ele>1305.4000244140625</ele>
        <time>2020-08-11T06:52:58.000Z</time>
      </trkpt>
      <trkpt lat="42.2611891664564609527587890625" lon="1.77827163599431514739990234375">
        <ele>1305.4000244140625</ele>
        <time>2020-08-11T06:52:59.000Z</time>
      </trkpt>
      <trkpt lat="42.261185981333255767822265625" lon="1.77832276560366153717041015625">
        <ele>1305.5999755859375</ele>
        <time>2020-08-11T06:53:02.000Z</time>
      </trkpt>
      <trkpt lat="42.26118489168584346771240234375" lon="1.778339780867099761962890625">
        <ele>1305.800048828125</ele>
        <time>2020-08-11T06:53:03.000Z</time>
      </trkpt>
      <trkpt lat="42.2611734084784984588623046875" lon="1.7784338258206844329833984375">
        <ele>1306.5999755859375</ele>
        <time>2020-08-11T06:53:08.000Z</time>
      </trkpt>
      <trkpt lat="42.26116779260337352752685546875" lon="1.77846257574856281280517578125">
        <ele>1306.5999755859375</ele>
        <time>2020-08-11T06:53:10.000Z</time>
      </trkpt>
      <trkpt lat="42.261168546974658966064453125" lon="1.77856131456792354583740234375">
        <ele>1307.4000244140625</ele>
        <time>2020-08-11T06:53:16.000Z</time>
      </trkpt>
      <trkpt lat="42.26116376928985118865966796875" lon="1.7785739712417125701904296875">
        <ele>1307.5999755859375</ele>
        <time>2020-08-11T06:53:17.000Z</time>
      </trkpt>
      <trkpt lat="42.2611610032618045806884765625" lon="1.77863943390548229217529296875">
        <ele>1308</ele>
        <time>2020-08-11T06:53:21.000Z</time>
      </trkpt>
      <trkpt lat="42.26115656085312366485595703125" lon="1.77867497317492961883544921875">
        <ele>1308.4000244140625</ele>
        <time>2020-08-11T06:53:23.000Z</time>
      </trkpt>
      <trkpt lat="42.26115320809185504913330078125" lon="1.7786933295428752899169921875">
        <ele>1308.5999755859375</ele>
        <time>2020-08-11T06:53:24.000Z</time>
      </trkpt>
      <trkpt lat="42.2611499391496181488037109375" lon="1.778776980936527252197265625">
        <ele>1308.800048828125</ele>
        <time>2020-08-11T06:53:29.000Z</time>
      </trkpt>
      <trkpt lat="42.26114868186414241790771484375" lon="1.77881461568176746368408203125">
        <ele>1309.199951171875</ele>
        <time>2020-08-11T06:53:31.000Z</time>
      </trkpt>
      <trkpt lat="42.26114851422607898712158203125" lon="1.77888418547809123992919921875">
        <ele>1309.5999755859375</ele>
        <time>2020-08-11T06:53:35.000Z</time>
      </trkpt>
      <trkpt lat="42.26113803684711456298828125" lon="1.7789307050406932830810546875">
        <ele>1310.199951171875</ele>
        <time>2020-08-11T06:53:38.000Z</time>
      </trkpt>
      <trkpt lat="42.26112387143075466156005859375" lon="1.77898242138326168060302734375">
        <ele>1310.800048828125</ele>
        <time>2020-08-11T06:53:41.000Z</time>
      </trkpt>
      <trkpt lat="42.26109646260738372802734375" lon="1.7791047133505344390869140625">
        <ele>1311.199951171875</ele>
        <time>2020-08-11T06:53:47.000Z</time>
      </trkpt>
      <trkpt lat="42.26109202019870281219482421875" lon="1.7791261710226535797119140625">
        <ele>1311.4000244140625</ele>
        <time>2020-08-11T06:53:48.000Z</time>
      </trkpt>
      <trkpt lat="42.26107123307883739471435546875" lon="1.77918023429811000823974609375">
        <ele>1311.4000244140625</ele>
        <time>2020-08-11T06:53:51.000Z</time>
      </trkpt>
      <trkpt lat="42.26105748675763607025146484375" lon="1.77922365255653858184814453125">
        <ele>1311.5999755859375</ele>
        <time>2020-08-11T06:53:53.000Z</time>
      </trkpt>
      <trkpt lat="42.2609732486307621002197265625" lon="1.77935130894184112548828125">
        <ele>1311.4000244140625</ele>
        <time>2020-08-11T06:54:00.000Z</time>
      </trkpt>
      <trkpt lat="42.26094894111156463623046875" lon="1.7793736048042774200439453125">
        <ele>1311.5999755859375</ele>
        <time>2020-08-11T06:54:02.000Z</time>
      </trkpt>
      <trkpt lat="42.26089722476899623870849609375" lon="1.7794171907007694244384765625">
        <ele>1312.199951171875</ele>
        <time>2020-08-11T06:54:06.000Z</time>
      </trkpt>
      <trkpt lat="42.2608683072030544281005859375" lon="1.77944174967706203460693359375">
        <ele>1312.4000244140625</ele>
        <time>2020-08-11T06:54:08.000Z</time>
      </trkpt>
      <trkpt lat="42.26083804853260517120361328125" lon="1.77945432253181934356689453125">
        <ele>1312.5999755859375</ele>
        <time>2020-08-11T06:54:10.000Z</time>
      </trkpt>
      <trkpt lat="42.26080602966248989105224609375" lon="1.77946438081562519073486328125">
        <ele>1312.5999755859375</ele>
        <time>2020-08-11T06:54:12.000Z</time>
      </trkpt>
      <trkpt lat="42.2607529722154140472412109375" lon="1.7795234732329845428466796875">
        <ele>1312.5999755859375</ele>
        <time>2020-08-11T06:54:17.000Z</time>
      </trkpt>
      <trkpt lat="42.26068935357034206390380859375" lon="1.77960620261728763580322265625">
        <ele>1313.199951171875</ele>
        <time>2020-08-11T06:54:23.000Z</time>
      </trkpt>
      <trkpt lat="42.26067091338336467742919921875" lon="1.77963419817388057708740234375">
        <ele>1313.4000244140625</ele>
        <time>2020-08-11T06:54:25.000Z</time>
      </trkpt>
      <trkpt lat="42.2606366313993930816650390625" lon="1.77973981015384197235107421875">
        <ele>1314</ele>
        <time>2020-08-11T06:54:31.000Z</time>
      </trkpt>
      <trkpt lat="42.2606218792498111724853515625" lon="1.77979211322963237762451171875">
        <ele>1314.5999755859375</ele>
        <time>2020-08-11T06:54:34.000Z</time>
      </trkpt>
      <trkpt lat="42.2606138326227664947509765625" lon="1.779861934483051300048828125">
        <ele>1315.199951171875</ele>
        <time>2020-08-11T06:54:38.000Z</time>
      </trkpt>
      <trkpt lat="42.26058843545615673065185546875" lon="1.77997819148004055023193359375">
        <ele>1315.5999755859375</ele>
        <time>2020-08-11T06:54:44.000Z</time>
      </trkpt>
      <trkpt lat="42.26052741520106792449951171875" lon="1.7801490984857082366943359375">
        <ele>1314.800048828125</ele>
        <time>2020-08-11T06:54:50.000Z</time>
      </trkpt>
      <trkpt lat="42.260450385510921478271484375" lon="1.7803631722927093505859375">
        <ele>1314.199951171875</ele>
        <time>2020-08-11T06:54:55.000Z</time>
      </trkpt>
      <trkpt lat="42.26037318818271160125732421875" lon="1.780553944408893585205078125">
        <ele>1313.4000244140625</ele>
        <time>2020-08-11T06:54:59.000Z</time>
      </trkpt>
      <trkpt lat="42.2603553347289562225341796875" lon="1.78061060607433319091796875">
        <ele>1313</ele>
        <time>2020-08-11T06:55:00.000Z</time>
      </trkpt>
      <trkpt lat="42.26033463142812252044677734375" lon="1.7806671001017093658447265625">
        <ele>1312.800048828125</ele>
        <time>2020-08-11T06:55:01.000Z</time>
      </trkpt>
      <trkpt lat="42.26024846546351909637451171875" lon="1.78088041953742504119873046875">
        <ele>1312.5999755859375</ele>
        <time>2020-08-11T06:55:05.000Z</time>
      </trkpt>
      <trkpt lat="42.26020370610058307647705078125" lon="1.781022660434246063232421875">
        <ele>1313</ele>
        <time>2020-08-11T06:55:09.000Z</time>
      </trkpt>
      <trkpt lat="42.26015274412930011749267578125" lon="1.78115501068532466888427734375">
        <ele>1314</ele>
        <time>2020-08-11T06:55:16.000Z</time>
      </trkpt>
      <trkpt lat="42.26014620624482631683349609375" lon="1.78117143921554088592529296875">
        <ele>1314.199951171875</ele>
        <time>2020-08-11T06:55:17.000Z</time>
      </trkpt>
      <trkpt lat="42.2601032070815563201904296875" lon="1.78127604536712169647216796875">
        <ele>1314</ele>
        <time>2020-08-11T06:55:22.000Z</time>
      </trkpt>
      <trkpt lat="42.2600669972598552703857421875" lon="1.7813376523554325103759765625">
        <ele>1314.199951171875</ele>
        <time>2020-08-11T06:55:25.000Z</time>
      </trkpt>
      <trkpt lat="42.260034643113613128662109375" lon="1.7813976667821407318115234375">
        <ele>1314.199951171875</ele>
        <time>2020-08-11T06:55:28.000Z</time>
      </trkpt>
      <trkpt lat="42.26002450101077556610107421875" lon="1.78141954354941844940185546875">
        <ele>1314.199951171875</ele>
        <time>2020-08-11T06:55:29.000Z</time>
      </trkpt>
      <trkpt lat="42.26001226343214511871337890625" lon="1.78144703619182109832763671875">
        <ele>1314.199951171875</ele>
        <time>2020-08-11T06:55:30.000Z</time>
      </trkpt>
      <trkpt lat="42.259987033903598785400390625" lon="1.78158651106059551239013671875">
        <ele>1314</ele>
        <time>2020-08-11T06:55:34.000Z</time>
      </trkpt>
      <trkpt lat="42.2598939947783946990966796875" lon="1.7818362079560756683349609375">
        <ele>1313.4000244140625</ele>
        <time>2020-08-11T06:55:41.000Z</time>
      </trkpt>
      <trkpt lat="42.2597981058061122894287109375" lon="1.78199554793536663055419921875">
        <ele>1313.4000244140625</ele>
        <time>2020-08-11T06:55:47.000Z</time>
      </trkpt>
      <trkpt lat="42.259782850742340087890625" lon="1.78201063536107540130615234375">
        <ele>1313.5999755859375</ele>
        <time>2020-08-11T06:55:48.000Z</time>
      </trkpt>
      <trkpt lat="42.25970841944217681884765625" lon="1.78200812079012393951416015625">
        <ele>1314.199951171875</ele>
        <time>2020-08-11T06:55:52.000Z</time>
      </trkpt>
      <trkpt lat="42.25967028178274631500244140625" lon="1.781970150768756866455078125">
        <ele>1315.5999755859375</ele>
        <time>2020-08-11T06:55:55.000Z</time>
      </trkpt>
      <trkpt lat="42.25966416299343109130859375" lon="1.78193436004221439361572265625">
        <ele>1316.199951171875</ele>
        <time>2020-08-11T06:55:57.000Z</time>
      </trkpt>
      <trkpt lat="42.2596780769526958465576171875" lon="1.78186898119747638702392578125">
        <ele>1316.4000244140625</ele>
        <time>2020-08-11T06:56:01.000Z</time>
      </trkpt>
      <trkpt lat="42.259685955941677093505859375" lon="1.78185246884822845458984375">
        <ele>1316.4000244140625</ele>
        <time>2020-08-11T06:56:02.000Z</time>
      </trkpt>
      <trkpt lat="42.25970037281513214111328125" lon="1.78181868977844715118408203125">
        <ele>1316.5999755859375</ele>
        <time>2020-08-11T06:56:04.000Z</time>
      </trkpt>
      <trkpt lat="42.2597216628491878509521484375" lon="1.78175481967628002166748046875">
        <ele>1317.4000244140625</ele>
        <time>2020-08-11T06:56:08.000Z</time>
      </trkpt>
      <trkpt lat="42.2597320564091205596923828125" lon="1.7817215435206890106201171875">
        <ele>1317.5999755859375</ele>
        <time>2020-08-11T06:56:10.000Z</time>
      </trkpt>
      <trkpt lat="42.25975091569125652313232421875" lon="1.78167887963354587554931640625">
        <ele>1317.800048828125</ele>
        <time>2020-08-11T06:56:13.000Z</time>
      </trkpt>
      <trkpt lat="42.2597575373947620391845703125" lon="1.78164619021117687225341796875">
        <ele>1318.4000244140625</ele>
        <time>2020-08-11T06:56:15.000Z</time>
      </trkpt>
      <trkpt lat="42.2597672604024410247802734375" lon="1.781610734760761260986328125">
        <ele>1318.5999755859375</ele>
        <time>2020-08-11T06:56:17.000Z</time>
      </trkpt>
      <trkpt lat="42.2597890533506870269775390625" lon="1.78153756074607372283935546875">
        <ele>1319.199951171875</ele>
        <time>2020-08-11T06:56:21.000Z</time>
      </trkpt>
      <trkpt lat="42.25980187766253948211669921875" lon="1.78148509003221988677978515625">
        <ele>1319.800048828125</ele>
        <time>2020-08-11T06:56:24.000Z</time>
      </trkpt>
      <trkpt lat="42.2598098404705524444580078125" lon="1.7814657278358936309814453125">
        <ele>1320</ele>
        <time>2020-08-11T06:56:25.000Z</time>
      </trkpt>
      <trkpt lat="42.25982752628624439239501953125" lon="1.78138442337512969970703125">
        <ele>1320.4000244140625</ele>
        <time>2020-08-11T06:56:30.000Z</time>
      </trkpt>
      <trkpt lat="42.2598591260612010955810546875" lon="1.7813068069517612457275390625">
        <ele>1320.800048828125</ele>
        <time>2020-08-11T06:56:35.000Z</time>
      </trkpt>
      <trkpt lat="42.25986457429826259613037109375" lon="1.781292222440242767333984375">
        <ele>1321</ele>
        <time>2020-08-11T06:56:36.000Z</time>
      </trkpt>
      <trkpt lat="42.25988804362714290618896484375" lon="1.78121502511203289031982421875">
        <ele>1321.4000244140625</ele>
        <time>2020-08-11T06:56:40.000Z</time>
      </trkpt>
      <trkpt lat="42.25990380160510540008544921875" lon="1.781179904937744140625">
        <ele>1321.800048828125</ele>
        <time>2020-08-11T06:56:42.000Z</time>
      </trkpt>
      <trkpt lat="42.25993146188557147979736328125" lon="1.78111075423657894134521484375">
        <ele>1322.5999755859375</ele>
        <time>2020-08-11T06:56:46.000Z</time>
      </trkpt>
      <trkpt lat="42.25993950851261615753173828125" lon="1.781076304614543914794921875">
        <ele>1322.800048828125</ele>
        <time>2020-08-11T06:56:48.000Z</time>
      </trkpt>
      <trkpt lat="42.25994445383548736572265625" lon="1.7810610495507717132568359375">
        <ele>1323</ele>
        <time>2020-08-11T06:56:49.000Z</time>
      </trkpt>
      <trkpt lat="42.25999801419675350189208984375" lon="1.78092635236680507659912109375">
        <ele>1324</ele>
        <time>2020-08-11T06:56:57.000Z</time>
      </trkpt>
      <trkpt lat="42.260007150471210479736328125" lon="1.780910678207874298095703125">
        <ele>1324.199951171875</ele>
        <time>2020-08-11T06:56:58.000Z</time>
      </trkpt>
      <trkpt lat="42.260030619800090789794921875" lon="1.78084990940988063812255859375">
        <ele>1324.4000244140625</ele>
        <time>2020-08-11T06:57:02.000Z</time>
      </trkpt>
      <trkpt lat="42.260034643113613128662109375" lon="1.78083180449903011322021484375">
        <ele>1324.5999755859375</ele>
        <time>2020-08-11T06:57:03.000Z</time>
      </trkpt>
      <trkpt lat="42.26007009856402873992919921875" lon="1.78073474206030368804931640625">
        <ele>1325</ele>
        <time>2020-08-11T06:57:09.000Z</time>
      </trkpt>
      <trkpt lat="42.26010010577738285064697265625" lon="1.78066869266331195831298828125">
        <ele>1325.199951171875</ele>
        <time>2020-08-11T06:57:13.000Z</time>
      </trkpt>
      <trkpt lat="42.260107062757015228271484375" lon="1.78065243177115917205810546875">
        <ele>1325.5999755859375</ele>
        <time>2020-08-11T06:57:14.000Z</time>
      </trkpt>
      <trkpt lat="42.2601092420518398284912109375" lon="1.78063080646097660064697265625">
        <ele>1325.800048828125</ele>
        <time>2020-08-11T06:57:15.000Z</time>
      </trkpt>
      <trkpt lat="42.26014117710292339324951171875" lon="1.780528128147125244140625">
        <ele>1326.5999755859375</ele>
        <time>2020-08-11T06:57:21.000Z</time>
      </trkpt>
      <trkpt lat="42.26015676744282245635986328125" lon="1.78049887530505657196044921875">
        <ele>1326.5999755859375</ele>
        <time>2020-08-11T06:57:23.000Z</time>
      </trkpt>
      <trkpt lat="42.26016263477504253387451171875" lon="1.7804810218513011932373046875">
        <ele>1326.5999755859375</ele>
        <time>2020-08-11T06:57:24.000Z</time>
      </trkpt>
      <trkpt lat="42.260160706937313079833984375" lon="1.78044372238218784332275390625">
        <ele>1326.800048828125</ele>
        <time>2020-08-11T06:57:26.000Z</time>
      </trkpt>
      <trkpt lat="42.2601605392992496490478515625" lon="1.7804149724543094635009765625">
        <ele>1327.5999755859375</ele>
        <time>2020-08-11T06:57:28.000Z</time>
      </trkpt>
      <trkpt lat="42.2601632215082645416259765625" lon="1.780402399599552154541015625">
        <ele>1327.800048828125</ele>
        <time>2020-08-11T06:57:29.000Z</time>
      </trkpt>
      <trkpt lat="42.2601659037172794342041015625" lon="1.7803712189197540283203125">
        <ele>1328.4000244140625</ele>
        <time>2020-08-11T06:57:31.000Z</time>
      </trkpt>
      <trkpt lat="42.2601689212024211883544921875" lon="1.78034347482025623321533203125">
        <ele>1328.4000244140625</ele>
        <time>2020-08-11T06:57:33.000Z</time>
      </trkpt>
      <trkpt lat="42.26017219014465808868408203125" lon="1.7802996374666690826416015625">
        <ele>1328.4000244140625</ele>
        <time>2020-08-11T06:57:35.000Z</time>
      </trkpt>
      <trkpt lat="42.26018040440976619720458984375" lon="1.78025227971374988555908203125">
        <ele>1328.800048828125</ele>
        <time>2020-08-11T06:57:38.000Z</time>
      </trkpt>
      <trkpt lat="42.260184846818447113037109375" lon="1.78023853339254856109619140625">
        <ele>1329</ele>
        <time>2020-08-11T06:57:39.000Z</time>
      </trkpt>
      <trkpt lat="42.260197587311267852783203125" lon="1.7801584862172603607177734375">
        <ele>1329.4000244140625</ele>
        <time>2020-08-11T06:57:44.000Z</time>
      </trkpt>
      <trkpt lat="42.260199598968029022216796875" lon="1.78009520284831523895263671875">
        <ele>1330</ele>
        <time>2020-08-11T06:57:47.000Z</time>
      </trkpt>
      <trkpt lat="42.26019817404448986053466796875" lon="1.78004407323896884918212890625">
        <ele>1330.4000244140625</ele>
        <time>2020-08-11T06:57:50.000Z</time>
      </trkpt>
      <trkpt lat="42.26019934751093387603759765625" lon="1.780002750456333160400390625">
        <ele>1331</ele>
        <time>2020-08-11T06:57:52.000Z</time>
      </trkpt>
      <trkpt lat="42.26020169444382190704345703125" lon="1.77998791448771953582763671875">
        <ele>1331.199951171875</ele>
        <time>2020-08-11T06:57:53.000Z</time>
      </trkpt>
      <trkpt lat="42.26020940579473972320556640625" lon="1.7799579910933971405029296875">
        <ele>1331.4000244140625</ele>
        <time>2020-08-11T06:57:55.000Z</time>
      </trkpt>
      <trkpt lat="42.26023010909557342529296875" lon="1.7799033410847187042236328125">
        <ele>1331.5999755859375</ele>
        <time>2020-08-11T06:57:58.000Z</time>
      </trkpt>
      <trkpt lat="42.260244190692901611328125" lon="1.7798657901585102081298828125">
        <ele>1332</ele>
        <time>2020-08-11T06:58:00.000Z</time>
      </trkpt>
      <trkpt lat="42.260249555110931396484375" lon="1.7798433266580104827880859375">
        <ele>1332.199951171875</ele>
        <time>2020-08-11T06:58:01.000Z</time>
      </trkpt>
      <trkpt lat="42.26026631891727447509765625" lon="1.7797839827835559844970703125">
        <ele>1332.5999755859375</ele>
        <time>2020-08-11T06:58:04.000Z</time>
      </trkpt>
      <trkpt lat="42.2602668218314647674560546875" lon="1.779765374958515167236328125">
        <ele>1333</ele>
        <time>2020-08-11T06:58:05.000Z</time>
      </trkpt>
      <trkpt lat="42.260274030268192291259765625" lon="1.77974500693380832672119140625">
        <ele>1333.199951171875</ele>
        <time>2020-08-11T06:58:06.000Z</time>
      </trkpt>
      <trkpt lat="42.26027998141944408416748046875" lon="1.77972606383264064788818359375">
        <ele>1333.4000244140625</ele>
        <time>2020-08-11T06:58:07.000Z</time>
      </trkpt>
      <trkpt lat="42.26028450764715671539306640625" lon="1.77967543713748455047607421875">
        <ele>1333.5999755859375</ele>
        <time>2020-08-11T06:58:10.000Z</time>
      </trkpt>
      <trkpt lat="42.26028635166585445404052734375" lon="1.77965565584599971771240234375">
        <ele>1333.5999755859375</ele>
        <time>2020-08-11T06:58:11.000Z</time>
      </trkpt>
      <trkpt lat="42.26030361838638782501220703125" lon="1.77954920567572116851806640625">
        <ele>1334.199951171875</ele>
        <time>2020-08-11T06:58:17.000Z</time>
      </trkpt>
      <trkpt lat="42.26030965335667133331298828125" lon="1.779530681669712066650390625">
        <ele>1334.4000244140625</ele>
        <time>2020-08-11T06:58:18.000Z</time>
      </trkpt>
      <trkpt lat="42.26034971885383129119873046875" lon="1.77941970527172088623046875">
        <ele>1335</ele>
        <time>2020-08-11T06:58:24.000Z</time>
      </trkpt>
      <trkpt lat="42.2604118287563323974609375" lon="1.7793305218219757080078125">
        <ele>1335.5999755859375</ele>
        <time>2020-08-11T06:58:30.000Z</time>
      </trkpt>
      <trkpt lat="42.2604874335229396820068359375" lon="1.77928157150745391845703125">
        <ele>1336.4000244140625</ele>
        <time>2020-08-11T06:58:36.000Z</time>
      </trkpt>
      <trkpt lat="42.260512076318264007568359375" lon="1.77926589734852313995361328125">
        <ele>1336.5999755859375</ele>
        <time>2020-08-11T06:58:38.000Z</time>
      </trkpt>
      <trkpt lat="42.26058139465749263763427734375" lon="1.77918375469744205474853515625">
        <ele>1337.199951171875</ele>
        <time>2020-08-11T06:58:44.000Z</time>
      </trkpt>
      <trkpt lat="42.2605903632938861846923828125" lon="1.77917034365236759185791015625">
        <ele>1337.199951171875</ele>
        <time>2020-08-11T06:58:45.000Z</time>
      </trkpt>
      <trkpt lat="42.260638140141963958740234375" lon="1.7790963314473628997802734375">
        <ele>1337.800048828125</ele>
        <time>2020-08-11T06:58:50.000Z</time>
      </trkpt>
      <trkpt lat="42.260645516216754913330078125" lon="1.77907998673617839813232421875">
        <ele>1337.800048828125</ele>
        <time>2020-08-11T06:58:51.000Z</time>
      </trkpt>
      <trkpt lat="42.260667979717254638671875" lon="1.77903472445905208587646484375">
        <ele>1338</ele>
        <time>2020-08-11T06:58:54.000Z</time>
      </trkpt>
      <trkpt lat="42.2606822289526462554931640625" lon="1.778974793851375579833984375">
        <ele>1338.5999755859375</ele>
        <time>2020-08-11T06:58:57.000Z</time>
      </trkpt>
      <trkpt lat="42.26068834774196147918701171875" lon="1.77895073778927326202392578125">
        <ele>1339</ele>
        <time>2020-08-11T06:58:58.000Z</time>
      </trkpt>
      <trkpt lat="42.260707207024097442626953125" lon="1.77888887934386730194091796875">
        <ele>1339</ele>
        <time>2020-08-11T06:59:01.000Z</time>
      </trkpt>
      <trkpt lat="42.26070762611925601959228515625" lon="1.7788686789572238922119140625">
        <ele>1339.199951171875</ele>
        <time>2020-08-11T06:59:02.000Z</time>
      </trkpt>
      <trkpt lat="42.2607013396918773651123046875" lon="1.77880145609378814697265625">
        <ele>1340.199951171875</ele>
        <time>2020-08-11T06:59:06.000Z</time>
      </trkpt>
      <trkpt lat="42.26070309989154338836669921875" lon="1.77877689711749553680419921875">
        <ele>1340.4000244140625</ele>
        <time>2020-08-11T06:59:08.000Z</time>
      </trkpt>
      <trkpt lat="42.260709889233112335205078125" lon="1.77870900370180606842041015625">
        <ele>1341</ele>
        <time>2020-08-11T06:59:13.000Z</time>
      </trkpt>
      <trkpt lat="42.2607090510427951812744140625" lon="1.77869190461933612823486328125">
        <ele>1341.199951171875</ele>
        <time>2020-08-11T06:59:14.000Z</time>
      </trkpt>
      <trkpt lat="42.2607103921473026275634765625" lon="1.778613366186618804931640625">
        <ele>1341.800048828125</ele>
        <time>2020-08-11T06:59:20.000Z</time>
      </trkpt>
      <trkpt lat="42.2607137449085712432861328125" lon="1.7785360850393772125244140625">
        <ele>1342.199951171875</ele>
        <time>2020-08-11T06:59:25.000Z</time>
      </trkpt>
      <trkpt lat="42.26071634329855442047119140625" lon="1.77848227322101593017578125">
        <ele>1342.800048828125</ele>
        <time>2020-08-11T06:59:28.000Z</time>
      </trkpt>
      <trkpt lat="42.2607080452144145965576171875" lon="1.77836735732853412628173828125">
        <ele>1343.4000244140625</ele>
        <time>2020-08-11T06:59:33.000Z</time>
      </trkpt>
      <trkpt lat="42.26070293225347995758056640625" lon="1.77831689827144145965576171875">
        <ele>1343.5999755859375</ele>
        <time>2020-08-11T06:59:35.000Z</time>
      </trkpt>
      <trkpt lat="42.2606854140758514404296875" lon="1.77816602401435375213623046875">
        <ele>1344.4000244140625</ele>
        <time>2020-08-11T06:59:42.000Z</time>
      </trkpt>
      <trkpt lat="42.26069455035030841827392578125" lon="1.778056137263774871826171875">
        <ele>1345</ele>
        <time>2020-08-11T06:59:48.000Z</time>
      </trkpt>
      <trkpt lat="42.26068549789488315582275390625" lon="1.7780325002968311309814453125">
        <ele>1345.199951171875</ele>
        <time>2020-08-11T06:59:49.000Z</time>
      </trkpt>
      <trkpt lat="42.26067493669688701629638671875" lon="1.777954883873462677001953125">
        <ele>1345.4000244140625</ele>
        <time>2020-08-11T06:59:52.000Z</time>
      </trkpt>
      <trkpt lat="42.26067426614463329315185546875" lon="1.77791741676628589630126953125">
        <ele>1345.5999755859375</ele>
        <time>2020-08-11T06:59:54.000Z</time>
      </trkpt>
      <trkpt lat="42.26069253869354724884033203125" lon="1.77778347395360469818115234375">
        <ele>1346.199951171875</ele>
        <time>2020-08-11T07:00:01.000Z</time>
      </trkpt>
      <trkpt lat="42.26070779375731945037841796875" lon="1.77769429050385951995849609375">
        <ele>1346.5999755859375</ele>
        <time>2020-08-11T07:00:06.000Z</time>
      </trkpt>
      <trkpt lat="42.2607127390801906585693359375" lon="1.77767450921237468719482421875">
        <ele>1346.800048828125</ele>
        <time>2020-08-11T07:00:07.000Z</time>
      </trkpt>
      <trkpt lat="42.260737717151641845703125" lon="1.77754660136997699737548828125">
        <ele>1347.199951171875</ele>
        <time>2020-08-11T07:00:13.000Z</time>
      </trkpt>
      <trkpt lat="42.26074551232159137725830078125" lon="1.7774796299636363983154296875">
        <ele>1347.4000244140625</ele>
        <time>2020-08-11T07:00:16.000Z</time>
      </trkpt>
      <trkpt lat="42.2607539780437946319580078125" lon="1.7774367146193981170654296875">
        <ele>1347.800048828125</ele>
        <time>2020-08-11T07:00:18.000Z</time>
      </trkpt>
      <trkpt lat="42.26076026447117328643798828125" lon="1.777415089309215545654296875">
        <ele>1348</ele>
        <time>2020-08-11T07:00:19.000Z</time>
      </trkpt>
      <trkpt lat="42.26080150343477725982666015625" lon="1.7772516421973705291748046875">
        <ele>1348.5999755859375</ele>
        <time>2020-08-11T07:00:27.000Z</time>
      </trkpt>
      <trkpt lat="42.2608543932437896728515625" lon="1.7771577648818492889404296875">
        <ele>1348.800048828125</ele>
        <time>2020-08-11T07:00:31.000Z</time>
      </trkpt>
      <trkpt lat="42.26088750176131725311279296875" lon="1.7771047912538051605224609375">
        <ele>1348.800048828125</ele>
        <time>2020-08-11T07:00:34.000Z</time>
      </trkpt>
      <trkpt lat="42.2609196044504642486572265625" lon="1.77707972936332225799560546875">
        <ele>1349</ele>
        <time>2020-08-11T07:00:36.000Z</time>
      </trkpt>
      <trkpt lat="42.2610185109078884124755859375" lon="1.7770318686962127685546875">
        <ele>1349</ele>
        <time>2020-08-11T07:00:42.000Z</time>
      </trkpt>
      <trkpt lat="42.26103669963777065277099609375" lon="1.7770441062748432159423828125">
        <ele>1349.199951171875</ele>
        <time>2020-08-11T07:00:47.000Z</time>
      </trkpt>
      <trkpt lat="42.26104776374995708465576171875" lon="1.7770384065806865692138671875">
        <ele>1349.4000244140625</ele>
        <time>2020-08-11T07:01:02.000Z</time>
      </trkpt>
      <trkpt lat="42.26111347787082195281982421875" lon="1.7769696749746799468994140625">
        <ele>1349.800048828125</ele>
        <time>2020-08-11T07:01:08.000Z</time>
      </trkpt>
      <trkpt lat="42.26112864911556243896484375" lon="1.7769514024257659912109375">
        <ele>1350</ele>
        <time>2020-08-11T07:01:09.000Z</time>
      </trkpt>
      <trkpt lat="42.26123317144811153411865234375" lon="1.77678870968520641326904296875">
        <ele>1350.199951171875</ele>
        <time>2020-08-11T07:01:17.000Z</time>
      </trkpt>
      <trkpt lat="42.26131103932857513427734375" lon="1.77666641771793365478515625">
        <ele>1350.4000244140625</ele>
        <time>2020-08-11T07:01:23.000Z</time>
      </trkpt>
      <trkpt lat="42.26134859025478363037109375" lon="1.7766161262989044189453125">
        <ele>1351</ele>
        <time>2020-08-11T07:01:26.000Z</time>
      </trkpt>
      <trkpt lat="42.26136158220469951629638671875" lon="1.77659927867352962493896484375">
        <ele>1351.199951171875</ele>
        <time>2020-08-11T07:01:27.000Z</time>
      </trkpt>
      <trkpt lat="42.26138320751488208770751953125" lon="1.77656323648989200592041015625">
        <ele>1351.199951171875</ele>
        <time>2020-08-11T07:01:29.000Z</time>
      </trkpt>
      <trkpt lat="42.26143567822873592376708984375" lon="1.7764691077172756195068359375">
        <ele>1351.800048828125</ele>
        <time>2020-08-11T07:01:34.000Z</time>
      </trkpt>
      <trkpt lat="42.26144238375127315521240234375" lon="1.7764385975897312164306640625">
        <ele>1352.199951171875</ele>
        <time>2020-08-11T07:01:36.000Z</time>
      </trkpt>
      <trkpt lat="42.261466942727565765380859375" lon="1.7763219214975833892822265625">
        <ele>1352.5999755859375</ele>
        <time>2020-08-11T07:01:41.000Z</time>
      </trkpt>
      <trkpt lat="42.26146182976663112640380859375" lon="1.7762206681072711944580078125">
        <ele>1353.199951171875</ele>
        <time>2020-08-11T07:01:46.000Z</time>
      </trkpt>
      <trkpt lat="42.26145344786345958709716796875" lon="1.77618219517171382904052734375">
        <ele>1353.199951171875</ele>
        <time>2020-08-11T07:01:48.000Z</time>
      </trkpt>
      <trkpt lat="42.2614020667970180511474609375" lon="1.77603299729526042938232421875">
        <ele>1353.800048828125</ele>
        <time>2020-08-11T07:01:56.000Z</time>
      </trkpt>
      <trkpt lat="42.2613762505352497100830078125" lon="1.77596359513700008392333984375">
        <ele>1354</ele>
        <time>2020-08-11T07:02:00.000Z</time>
      </trkpt>
      <trkpt lat="42.26136736571788787841796875" lon="1.77592738531529903411865234375">
        <ele>1354.199951171875</ele>
        <time>2020-08-11T07:02:02.000Z</time>
      </trkpt>
      <trkpt lat="42.261345572769641876220703125" lon="1.77584230899810791015625">
        <ele>1354.800048828125</ele>
        <time>2020-08-11T07:02:07.000Z</time>
      </trkpt>
      <trkpt lat="42.26133643649518489837646484375" lon="1.7757801152765750885009765625">
        <ele>1355.4000244140625</ele>
        <time>2020-08-11T07:02:10.000Z</time>
      </trkpt>
      <trkpt lat="42.26132176816463470458984375" lon="1.77572890184819698333740234375">
        <ele>1355.4000244140625</ele>
        <time>2020-08-11T07:02:12.000Z</time>
      </trkpt>
      <trkpt lat="42.26129704155027866363525390625" lon="1.77560694515705108642578125">
        <ele>1355.5999755859375</ele>
        <time>2020-08-11T07:02:18.000Z</time>
      </trkpt>
      <trkpt lat="42.26129352115094661712646484375" lon="1.77555036731064319610595703125">
        <ele>1356.199951171875</ele>
        <time>2020-08-11T07:02:21.000Z</time>
      </trkpt>
      <trkpt lat="42.261291928589344024658203125" lon="1.7755310051143169403076171875">
        <ele>1356.5999755859375</ele>
        <time>2020-08-11T07:02:22.000Z</time>
      </trkpt>
      <trkpt lat="42.26128597743809223175048828125" lon="1.77549102343618869781494140625">
        <ele>1356.800048828125</ele>
        <time>2020-08-11T07:02:24.000Z</time>
      </trkpt>
      <trkpt lat="42.2612572275102138519287109375" lon="1.77534333430230617523193359375">
        <ele>1357.5999755859375</ele>
        <time>2020-08-11T07:02:31.000Z</time>
      </trkpt>
      <trkpt lat="42.2612582333385944366455078125" lon="1.77530393935739994049072265625">
        <ele>1357.800048828125</ele>
        <time>2020-08-11T07:02:33.000Z</time>
      </trkpt>
      <trkpt lat="42.2612485103309154510498046875" lon="1.77522866986691951751708984375">
        <ele>1358.199951171875</ele>
        <time>2020-08-11T07:02:36.000Z</time>
      </trkpt>
      <trkpt lat="42.26125161163508892059326171875" lon="1.77518122829496860504150390625">
        <ele>1358.800048828125</ele>
        <time>2020-08-11T07:02:38.000Z</time>
      </trkpt>
      <trkpt lat="42.26126636378467082977294921875" lon="1.775127835571765899658203125">
        <ele>1359.199951171875</ele>
        <time>2020-08-11T07:02:41.000Z</time>
      </trkpt>
      <trkpt lat="42.26130659691989421844482421875" lon="1.77508131600916385650634765625">
        <ele>1359.800048828125</ele>
        <time>2020-08-11T07:02:45.000Z</time>
      </trkpt>
      <trkpt lat="42.2613283060491085052490234375" lon="1.7750609479844570159912109375">
        <ele>1360.199951171875</ele>
        <time>2020-08-11T07:02:47.000Z</time>
      </trkpt>
      <trkpt lat="42.26133911870419979095458984375" lon="1.77505097351968288421630859375">
        <ele>1360.4000244140625</ele>
        <time>2020-08-11T07:02:48.000Z</time>
      </trkpt>
      <trkpt lat="42.261376418173313140869140625" lon="1.7750187031924724578857421875">
        <ele>1360.800048828125</ele>
        <time>2020-08-11T07:02:51.000Z</time>
      </trkpt>
      <trkpt lat="42.2614024020731449127197265625" lon="1.77499464713037014007568359375">
        <ele>1361.4000244140625</ele>
        <time>2020-08-11T07:02:53.000Z</time>
      </trkpt>
      <trkpt lat="42.26142679341137409210205078125" lon="1.77497218362987041473388671875">
        <ele>1361.4000244140625</ele>
        <time>2020-08-11T07:02:55.000Z</time>
      </trkpt>
      <trkpt lat="42.2614714689552783966064453125" lon="1.77495458163321018218994140625">
        <ele>1361.5999755859375</ele>
        <time>2020-08-11T07:02:58.000Z</time>
      </trkpt>
      <trkpt lat="42.26149049587547779083251953125" lon="1.77492977119982242584228515625">
        <ele>1362</ele>
        <time>2020-08-11T07:02:59.000Z</time>
      </trkpt>
      <trkpt lat="42.26150793023407459259033203125" lon="1.77490982227027416229248046875">
        <ele>1362.199951171875</ele>
        <time>2020-08-11T07:03:00.000Z</time>
      </trkpt>
      <trkpt lat="42.26158688776195049285888671875" lon="1.7748021148145198822021484375">
        <ele>1362.199951171875</ele>
        <time>2020-08-11T07:03:06.000Z</time>
      </trkpt>
      <trkpt lat="42.26165142841637134552001953125" lon="1.7747219838201999664306640625">
        <ele>1362.5999755859375</ele>
        <time>2020-08-11T07:03:13.000Z</time>
      </trkpt>
      <trkpt lat="42.26167724467813968658447265625" lon="1.7746581137180328369140625">
        <ele>1362.800048828125</ele>
        <time>2020-08-11T07:03:17.000Z</time>
      </trkpt>
      <trkpt lat="42.26169593632221221923828125" lon="1.77463439293205738067626953125">
        <ele>1362.800048828125</ele>
        <time>2020-08-11T07:03:19.000Z</time>
      </trkpt>
      <trkpt lat="42.261726446449756622314453125" lon="1.774588711559772491455078125">
        <ele>1362.800048828125</ele>
        <time>2020-08-11T07:03:22.000Z</time>
      </trkpt>
      <trkpt lat="42.26174748502671718597412109375" lon="1.77452861331403255462646484375">
        <ele>1362.800048828125</ele>
        <time>2020-08-11T07:03:25.000Z</time>
      </trkpt>
      <trkpt lat="42.2617940045893192291259765625" lon="1.77445284090936183929443359375">
        <ele>1363.199951171875</ele>
        <time>2020-08-11T07:03:30.000Z</time>
      </trkpt>
      <trkpt lat="42.2618124447762966156005859375" lon="1.77441847510635852813720703125">
        <ele>1363.4000244140625</ele>
        <time>2020-08-11T07:03:32.000Z</time>
      </trkpt>
      <trkpt lat="42.26185007952153682708740234375" lon="1.77437706850469112396240234375">
        <ele>1363.4000244140625</ele>
        <time>2020-08-11T07:03:35.000Z</time>
      </trkpt>
      <trkpt lat="42.26193130016326904296875" lon="1.77426491864025592803955078125">
        <ele>1364</ele>
        <time>2020-08-11T07:03:42.000Z</time>
      </trkpt>
      <trkpt lat="42.26200028322637081146240234375" lon="1.7741697840392589569091796875">
        <ele>1364</ele>
        <time>2020-08-11T07:03:48.000Z</time>
      </trkpt>
      <trkpt lat="42.2620159573853015899658203125" lon="1.774135418236255645751953125">
        <ele>1364.199951171875</ele>
        <time>2020-08-11T07:03:50.000Z</time>
      </trkpt>
      <trkpt lat="42.26202073507010936737060546875" lon="1.77411563694477081298828125">
        <ele>1364.4000244140625</ele>
        <time>2020-08-11T07:03:51.000Z</time>
      </trkpt>
      <trkpt lat="42.2620300389826297760009765625" lon="1.77405252121388912200927734375">
        <ele>1364.800048828125</ele>
        <time>2020-08-11T07:03:54.000Z</time>
      </trkpt>
      <trkpt lat="42.262030206620693206787109375" lon="1.77403056062757968902587890625">
        <ele>1365</ele>
        <time>2020-08-11T07:03:55.000Z</time>
      </trkpt>
      <trkpt lat="42.26203515194356441497802734375" lon="1.7739719711244106292724609375">
        <ele>1365.4000244140625</ele>
        <time>2020-08-11T07:03:58.000Z</time>
      </trkpt>
      <trkpt lat="42.2620561905205249786376953125" lon="1.77391757257282733917236328125">
        <ele>1365.5999755859375</ele>
        <time>2020-08-11T07:04:01.000Z</time>
      </trkpt>
      <trkpt lat="42.26208351552486419677734375" lon="1.77383040077984333038330078125">
        <ele>1366.4000244140625</ele>
        <time>2020-08-11T07:04:06.000Z</time>
      </trkpt>
      <trkpt lat="42.262089550495147705078125" lon="1.77381397224962711334228515625">
        <ele>1366.5999755859375</ele>
        <time>2020-08-11T07:04:07.000Z</time>
      </trkpt>
      <trkpt lat="42.26212115027010440826416015625" lon="1.77374574355781078338623046875">
        <ele>1367.199951171875</ele>
        <time>2020-08-11T07:04:11.000Z</time>
      </trkpt>
      <trkpt lat="42.26213087327778339385986328125" lon="1.77372713573276996612548828125">
        <ele>1367.199951171875</ele>
        <time>2020-08-11T07:04:12.000Z</time>
      </trkpt>
      <trkpt lat="42.262148894369602203369140625" lon="1.77369478158652782440185546875">
        <ele>1367.5999755859375</ele>
        <time>2020-08-11T07:04:14.000Z</time>
      </trkpt>
      <trkpt lat="42.262158952653408050537109375" lon="1.7736802808940410614013671875">
        <ele>1367.5999755859375</ele>
        <time>2020-08-11T07:04:15.000Z</time>
      </trkpt>
      <trkpt lat="42.26217605173587799072265625" lon="1.7735827155411243438720703125">
        <ele>1368</ele>
        <time>2020-08-11T07:04:20.000Z</time>
      </trkpt>
      <trkpt lat="42.262176387012004852294921875" lon="1.7734486050903797149658203125">
        <ele>1368.5999755859375</ele>
        <time>2020-08-11T07:04:26.000Z</time>
      </trkpt>
      <trkpt lat="42.262175716459751129150390625" lon="1.7734291590750217437744140625">
        <ele>1368.800048828125</ele>
        <time>2020-08-11T07:04:27.000Z</time>
      </trkpt>
      <trkpt lat="42.262190468609333038330078125" lon="1.77331256680190563201904296875">
        <ele>1369.4000244140625</ele>
        <time>2020-08-11T07:04:33.000Z</time>
      </trkpt>
      <trkpt lat="42.2621980123221874237060546875" lon="1.7732687294483184814453125">
        <ele>1369.5999755859375</ele>
        <time>2020-08-11T07:04:35.000Z</time>
      </trkpt>
      <trkpt lat="42.26220949552953243255615234375" lon="1.77322019822895526885986328125">
        <ele>1370.199951171875</ele>
        <time>2020-08-11T07:04:38.000Z</time>
      </trkpt>
      <trkpt lat="42.26222475059330463409423828125" lon="1.773116849362850189208984375">
        <ele>1370.199951171875</ele>
        <time>2020-08-11T07:04:44.000Z</time>
      </trkpt>
      <trkpt lat="42.26222424767911434173583984375" lon="1.773098073899745941162109375">
        <ele>1370.4000244140625</ele>
        <time>2020-08-11T07:04:45.000Z</time>
      </trkpt>
      <trkpt lat="42.2622244991362094879150390625" lon="1.7730573378503322601318359375">
        <ele>1370.800048828125</ele>
        <time>2020-08-11T07:04:47.000Z</time>
      </trkpt>
      <trkpt lat="42.26222340948879718780517578125" lon="1.77302666008472442626953125">
        <ele>1371</ele>
        <time>2020-08-11T07:04:49.000Z</time>
      </trkpt>
      <trkpt lat="42.26222424767911434173583984375" lon="1.772992126643657684326171875">
        <ele>1371.199951171875</ele>
        <time>2020-08-11T07:04:51.000Z</time>
      </trkpt>
      <trkpt lat="42.26221955381333827972412109375" lon="1.77293370477855205535888671875">
        <ele>1371.199951171875</ele>
        <time>2020-08-11T07:04:54.000Z</time>
      </trkpt>
      <trkpt lat="42.2622196376323699951171875" lon="1.772916018962860107421875">
        <ele>1371.199951171875</ele>
        <time>2020-08-11T07:04:55.000Z</time>
      </trkpt>
      <trkpt lat="42.2622218169271945953369140625" lon="1.77286011166870594024658203125">
        <ele>1371.4000244140625</ele>
        <time>2020-08-11T07:04:58.000Z</time>
      </trkpt>
      <trkpt lat="42.262226678431034088134765625" lon="1.7728213034570217132568359375">
        <ele>1371.5999755859375</ele>
        <time>2020-08-11T07:05:00.000Z</time>
      </trkpt>
      <trkpt lat="42.26221553049981594085693359375" lon="1.7727591097354888916015625">
        <ele>1371.800048828125</ele>
        <time>2020-08-11T07:05:03.000Z</time>
      </trkpt>
      <trkpt lat="42.26221536286175251007080078125" lon="1.77270437590777873992919921875">
        <ele>1372.199951171875</ele>
        <time>2020-08-11T07:05:06.000Z</time>
      </trkpt>
      <trkpt lat="42.26220396347343921661376953125" lon="1.7725711874663829803466796875">
        <ele>1372.4000244140625</ele>
        <time>2020-08-11T07:05:12.000Z</time>
      </trkpt>
      <trkpt lat="42.2621879540383815765380859375" lon="1.77247437648475170135498046875">
        <ele>1372.800048828125</ele>
        <time>2020-08-11T07:05:17.000Z</time>
      </trkpt>
      <trkpt lat="42.262187786400318145751953125" lon="1.772449314594268798828125">
        <ele>1373</ele>
        <time>2020-08-11T07:05:18.000Z</time>
      </trkpt>
      <trkpt lat="42.2621913067996501922607421875" lon="1.77233724854886531829833984375">
        <ele>1373.4000244140625</ele>
        <time>2020-08-11T07:05:23.000Z</time>
      </trkpt>
      <trkpt lat="42.2621874511241912841796875" lon="1.7723130248486995697021484375">
        <ele>1373.4000244140625</ele>
        <time>2020-08-11T07:05:24.000Z</time>
      </trkpt>
      <trkpt lat="42.26217496208846569061279296875" lon="1.77225678227841854095458984375">
        <ele>1373.5999755859375</ele>
        <time>2020-08-11T07:05:27.000Z</time>
      </trkpt>
      <trkpt lat="42.2621631436049938201904296875" lon="1.77221755497157573699951171875">
        <ele>1374.199951171875</ele>
        <time>2020-08-11T07:05:29.000Z</time>
      </trkpt>
      <trkpt lat="42.26214478723704814910888671875" lon="1.7721591331064701080322265625">
        <ele>1374.5999755859375</ele>
        <time>2020-08-11T07:05:32.000Z</time>
      </trkpt>
      <trkpt lat="42.26210723631083965301513671875" lon="1.77201974205672740936279296875">
        <ele>1375.199951171875</ele>
        <time>2020-08-11T07:05:39.000Z</time>
      </trkpt>
      <trkpt lat="42.26205225102603435516357421875" lon="1.77190122194588184356689453125">
        <ele>1375.800048828125</ele>
        <time>2020-08-11T07:05:46.000Z</time>
      </trkpt>
      <trkpt lat="42.2620189748704433441162109375" lon="1.77183047868311405181884765625">
        <ele>1376.4000244140625</ele>
        <time>2020-08-11T07:05:50.000Z</time>
      </trkpt>
      <trkpt lat="42.26199056021869182586669921875" lon="1.77177004516124725341796875">
        <ele>1376.5999755859375</ele>
        <time>2020-08-11T07:05:54.000Z</time>
      </trkpt>
      <trkpt lat="42.2619217447936534881591796875" lon="1.7716542072594165802001953125">
        <ele>1377.4000244140625</ele>
        <time>2020-08-11T07:06:01.000Z</time>
      </trkpt>
      <trkpt lat="42.26191394962370395660400390625" lon="1.77163819782435894012451171875">
        <ele>1377.5999755859375</ele>
        <time>2020-08-11T07:06:02.000Z</time>
      </trkpt>
      <trkpt lat="42.2618677653372287750244140625" lon="1.771543063223361968994140625">
        <ele>1378.199951171875</ele>
        <time>2020-08-11T07:06:08.000Z</time>
      </trkpt>
      <trkpt lat="42.2618221677839756011962890625" lon="1.7714426480233669281005859375">
        <ele>1378.5999755859375</ele>
        <time>2020-08-11T07:06:13.000Z</time>
      </trkpt>
      <trkpt lat="42.261798866093158721923828125" lon="1.7713987268507480621337890625">
        <ele>1379</ele>
        <time>2020-08-11T07:06:15.000Z</time>
      </trkpt>
      <trkpt lat="42.261799871921539306640625" lon="1.77130292169749736785888671875">
        <ele>1379.5999755859375</ele>
        <time>2020-08-11T07:06:21.000Z</time>
      </trkpt>
      <trkpt lat="42.2618043981492519378662109375" lon="1.77128464914858341217041015625">
        <ele>1379.800048828125</ele>
        <time>2020-08-11T07:06:22.000Z</time>
      </trkpt>
      <trkpt lat="42.26184722967445850372314453125" lon="1.77114249207079410552978515625">
        <ele>1380.800048828125</ele>
        <time>2020-08-11T07:06:29.000Z</time>
      </trkpt>
      <trkpt lat="42.2618687711656093597412109375" lon="1.7710845731198787689208984375">
        <ele>1381</ele>
        <time>2020-08-11T07:06:32.000Z</time>
      </trkpt>
      <trkpt lat="42.26188545115292072296142578125" lon="1.7710255645215511322021484375">
        <ele>1381.4000244140625</ele>
        <time>2020-08-11T07:06:35.000Z</time>
      </trkpt>
      <trkpt lat="42.26190171204507350921630859375" lon="1.77094065584242343902587890625">
        <ele>1381.800048828125</ele>
        <time>2020-08-11T07:06:39.000Z</time>
      </trkpt>
      <trkpt lat="42.26190875284373760223388671875" lon="1.77089690230786800384521484375">
        <ele>1382</ele>
        <time>2020-08-11T07:06:41.000Z</time>
      </trkpt>
      <trkpt lat="42.26191327907145023345947265625" lon="1.770807802677154541015625">
        <ele>1382.4000244140625</ele>
        <time>2020-08-11T07:06:45.000Z</time>
      </trkpt>
      <trkpt lat="42.26191445253789424896240234375" lon="1.770786009728908538818359375">
        <ele>1382.4000244140625</ele>
        <time>2020-08-11T07:06:46.000Z</time>
      </trkpt>
      <trkpt lat="42.2619234211742877960205078125" lon="1.770746447145938873291015625">
        <ele>1382.800048828125</ele>
        <time>2020-08-11T07:06:48.000Z</time>
      </trkpt>
      <trkpt lat="42.261944711208343505859375" lon="1.77065961062908172607421875">
        <ele>1383.5999755859375</ele>
        <time>2020-08-11T07:06:53.000Z</time>
      </trkpt>
      <trkpt lat="42.2619460523128509521484375" lon="1.7706413380801677703857421875">
        <ele>1383.800048828125</ele>
        <time>2020-08-11T07:06:54.000Z</time>
      </trkpt>
      <trkpt lat="42.2619514167308807373046875" lon="1.77062474191188812255859375">
        <ele>1384</ele>
        <time>2020-08-11T07:06:55.000Z</time>
      </trkpt>
      <trkpt lat="42.261961810290813446044921875" lon="1.7705682478845119476318359375">
        <ele>1384.199951171875</ele>
        <time>2020-08-11T07:06:58.000Z</time>
      </trkpt>
      <trkpt lat="42.261964492499828338623046875" lon="1.77054938860237598419189453125">
        <ele>1384.4000244140625</ele>
        <time>2020-08-11T07:06:59.000Z</time>
      </trkpt>
      <trkpt lat="42.261971533298492431640625" lon="1.770470179617404937744140625">
        <ele>1384.800048828125</ele>
        <time>2020-08-11T07:07:03.000Z</time>
      </trkpt>
      <trkpt lat="42.26197547279298305511474609375" lon="1.7704291082918643951416015625">
        <ele>1385</ele>
        <time>2020-08-11T07:07:05.000Z</time>
      </trkpt>
      <trkpt lat="42.26198293268680572509765625" lon="1.77034721709787845611572265625">
        <ele>1385.800048828125</ele>
        <time>2020-08-11T07:07:09.000Z</time>
      </trkpt>
      <trkpt lat="42.26198519580066204071044921875" lon="1.77027747966349124908447265625">
        <ele>1386.199951171875</ele>
        <time>2020-08-11T07:07:12.000Z</time>
      </trkpt>
      <trkpt lat="42.261998020112514495849609375" lon="1.7701628990471363067626953125">
        <ele>1386.800048828125</ele>
        <time>2020-08-11T07:07:17.000Z</time>
      </trkpt>
      <trkpt lat="42.26200011558830738067626953125" lon="1.7701350711286067962646484375">
        <ele>1386.800048828125</ele>
        <time>2020-08-11T07:07:18.000Z</time>
      </trkpt>
      <trkpt lat="42.26201268844306468963623046875" lon="1.770010180771350860595703125">
        <ele>1387</ele>
        <time>2020-08-11T07:07:23.000Z</time>
      </trkpt>
      <trkpt lat="42.26201268844306468963623046875" lon="1.76982033066451549530029296875">
        <ele>1386.800048828125</ele>
        <time>2020-08-11T07:07:30.000Z</time>
      </trkpt>
      <trkpt lat="42.2620022110641002655029296875" lon="1.7696539498865604400634765625">
        <ele>1387.4000244140625</ele>
        <time>2020-08-11T07:07:36.000Z</time>
      </trkpt>
      <trkpt lat="42.2619656659662723541259765625" lon="1.76947382278740406036376953125">
        <ele>1387.5999755859375</ele>
        <time>2020-08-11T07:07:43.000Z</time>
      </trkpt>
      <trkpt lat="42.26192216388881206512451171875" lon="1.7693258821964263916015625">
        <ele>1387.800048828125</ele>
        <time>2020-08-11T07:07:49.000Z</time>
      </trkpt>
      <trkpt lat="42.2618577070534229278564453125" lon="1.76917324773967266082763671875">
        <ele>1388.199951171875</ele>
        <time>2020-08-11T07:07:56.000Z</time>
      </trkpt>
      <trkpt lat="42.261827029287815093994140625" lon="1.76908372901380062103271484375">
        <ele>1388.5999755859375</ele>
        <time>2020-08-11T07:08:00.000Z</time>
      </trkpt>
      <trkpt lat="42.26180364377796649932861328125" lon="1.7690249718725681304931640625">
        <ele>1388.800048828125</ele>
        <time>2020-08-11T07:08:03.000Z</time>
      </trkpt>
      <trkpt lat="42.261790819466114044189453125" lon="1.76898591220378875732421875">
        <ele>1389</ele>
        <time>2020-08-11T07:08:05.000Z</time>
      </trkpt>
      <trkpt lat="42.2617826052010059356689453125" lon="1.76892430521547794342041015625">
        <ele>1389</ele>
        <time>2020-08-11T07:08:08.000Z</time>
      </trkpt>
      <trkpt lat="42.26176709868013858795166015625" lon="1.76885741762816905975341796875">
        <ele>1389</ele>
        <time>2020-08-11T07:08:11.000Z</time>
      </trkpt>
      <trkpt lat="42.26175737567245960235595703125" lon="1.76881148479878902435302734375">
        <ele>1389.199951171875</ele>
        <time>2020-08-11T07:08:13.000Z</time>
      </trkpt>
      <trkpt lat="42.26174849085509777069091796875" lon="1.7687641270458698272705078125">
        <ele>1389.5999755859375</ele>
        <time>2020-08-11T07:08:15.000Z</time>
      </trkpt>
      <trkpt lat="42.26174329407513141632080078125" lon="1.76867653615772724151611328125">
        <ele>1389.800048828125</ele>
        <time>2020-08-11T07:08:19.000Z</time>
      </trkpt>
      <trkpt lat="42.26173457689583301544189453125" lon="1.76855416037142276763916015625">
        <ele>1390.4000244140625</ele>
        <time>2020-08-11T07:08:25.000Z</time>
      </trkpt>
      <trkpt lat="42.26172938011586666107177734375" lon="1.76852985285222530364990234375">
        <ele>1390.5999755859375</ele>
        <time>2020-08-11T07:08:26.000Z</time>
      </trkpt>
      <trkpt lat="42.2617232613265514373779296875" lon="1.76846950314939022064208984375">
        <ele>1391</ele>
        <time>2020-08-11T07:08:29.000Z</time>
      </trkpt>
      <trkpt lat="42.2617235966026782989501953125" lon="1.76844854839146137237548828125">
        <ele>1391</ele>
        <time>2020-08-11T07:08:30.000Z</time>
      </trkpt>
      <trkpt lat="42.26170859299600124359130859375" lon="1.76835316233336925506591796875">
        <ele>1391.800048828125</ele>
        <time>2020-08-11T07:08:34.000Z</time>
      </trkpt>
      <trkpt lat="42.2617081739008426666259765625" lon="1.76830756478011608123779296875">
        <ele>1391.800048828125</ele>
        <time>2020-08-11T07:08:36.000Z</time>
      </trkpt>
      <trkpt lat="42.26170004345476627349853515625" lon="1.768260039389133453369140625">
        <ele>1392</ele>
        <time>2020-08-11T07:08:39.000Z</time>
      </trkpt>
      <trkpt lat="42.2616957686841487884521484375" lon="1.76821838133037090301513671875">
        <ele>1392.199951171875</ele>
        <time>2020-08-11T07:08:41.000Z</time>
      </trkpt>
      <trkpt lat="42.2616776637732982635498046875" lon="1.76812567748129367828369140625">
        <ele>1393</ele>
        <time>2020-08-11T07:08:45.000Z</time>
      </trkpt>
      <trkpt lat="42.2616676054894924163818359375" lon="1.76806214265525341033935546875">
        <ele>1393.4000244140625</ele>
        <time>2020-08-11T07:08:48.000Z</time>
      </trkpt>
      <trkpt lat="42.261666096746921539306640625" lon="1.76802475936710834503173828125">
        <ele>1394</ele>
        <time>2020-08-11T07:08:50.000Z</time>
      </trkpt>
      <trkpt lat="42.26164631545543670654296875" lon="1.76794144324958324432373046875">
        <ele>1394.4000244140625</ele>
        <time>2020-08-11T07:08:54.000Z</time>
      </trkpt>
      <trkpt lat="42.26161806844174861907958984375" lon="1.76783583126962184906005859375">
        <ele>1394.800048828125</ele>
        <time>2020-08-11T07:08:59.000Z</time>
      </trkpt>
      <trkpt lat="42.2615968622267246246337890625" lon="1.7677743919193744659423828125">
        <ele>1395</ele>
        <time>2020-08-11T07:09:02.000Z</time>
      </trkpt>
      <trkpt lat="42.2615718841552734375" lon="1.76766500808298587799072265625">
        <ele>1395.5999755859375</ele>
        <time>2020-08-11T07:09:07.000Z</time>
      </trkpt>
      <trkpt lat="42.2615544497966766357421875" lon="1.76758848130702972412109375">
        <ele>1396.199951171875</ele>
        <time>2020-08-11T07:09:10.000Z</time>
      </trkpt>
      <trkpt lat="42.261544056236743927001953125" lon="1.76754162646830081939697265625">
        <ele>1396.4000244140625</ele>
        <time>2020-08-11T07:09:12.000Z</time>
      </trkpt>
      <trkpt lat="42.26149736903607845306396484375" lon="1.767451353371143341064453125">
        <ele>1397.199951171875</ele>
        <time>2020-08-11T07:09:17.000Z</time>
      </trkpt>
      <trkpt lat="42.26143366657197475433349609375" lon="1.7673123814165592193603515625">
        <ele>1397.800048828125</ele>
        <time>2020-08-11T07:09:25.000Z</time>
      </trkpt>
      <trkpt lat="42.26140768267214298248291015625" lon="1.76725747995078563690185546875">
        <ele>1398.199951171875</ele>
        <time>2020-08-11T07:09:28.000Z</time>
      </trkpt>
      <trkpt lat="42.26138211786746978759765625" lon="1.76720282994210720062255859375">
        <ele>1398.4000244140625</ele>
        <time>2020-08-11T07:09:31.000Z</time>
      </trkpt>
      <trkpt lat="42.2613031603395938873291015625" lon="1.7670916020870208740234375">
        <ele>1398.800048828125</ele>
        <time>2020-08-11T07:09:38.000Z</time>
      </trkpt>
      <trkpt lat="42.26126284338533878326416015625" lon="1.7670257203280925750732421875">
        <ele>1399.199951171875</ele>
        <time>2020-08-11T07:09:42.000Z</time>
      </trkpt>
      <trkpt lat="42.26123015396296977996826171875" lon="1.76696394570171833038330078125">
        <ele>1399.4000244140625</ele>
        <time>2020-08-11T07:09:45.000Z</time>
      </trkpt>
      <trkpt lat="42.26116485893726348876953125" lon="1.766855902969837188720703125">
        <ele>1400</ele>
        <time>2020-08-11T07:09:51.000Z</time>
      </trkpt>
      <trkpt lat="42.261142730712890625" lon="1.76682136952877044677734375">
        <ele>1400.199951171875</ele>
        <time>2020-08-11T07:09:53.000Z</time>
      </trkpt>
      <trkpt lat="42.26105480454862117767333984375" lon="1.76672019995748996734619140625">
        <ele>1401</ele>
        <time>2020-08-11T07:10:00.000Z</time>
      </trkpt>
      <trkpt lat="42.261039800941944122314453125" lon="1.76671198569238185882568359375">
        <ele>1401.199951171875</ele>
        <time>2020-08-11T07:10:01.000Z</time>
      </trkpt>
      <trkpt lat="42.2609643638134002685546875" lon="1.76667326129972934722900390625">
        <ele>1401.5999755859375</ele>
        <time>2020-08-11T07:10:06.000Z</time>
      </trkpt>
      <trkpt lat="42.2608597576618194580078125" lon="1.766612492501735687255859375">
        <ele>1402</ele>
        <time>2020-08-11T07:10:13.000Z</time>
      </trkpt>
      <trkpt lat="42.26082966662943363189697265625" lon="1.76659832708537578582763671875">
        <ele>1402.199951171875</ele>
        <time>2020-08-11T07:10:15.000Z</time>
      </trkpt>
      <trkpt lat="42.26073293946683406829833984375" lon="1.76654241979122161865234375">
        <ele>1402.800048828125</ele>
        <time>2020-08-11T07:10:21.000Z</time>
      </trkpt>
      <trkpt lat="42.26065121591091156005859375" lon="1.76644451916217803955078125">
        <ele>1402.800048828125</ele>
        <time>2020-08-11T07:10:27.000Z</time>
      </trkpt>
      <trkpt lat="42.26061500608921051025390625" lon="1.76639833487570285797119140625">
        <ele>1403.199951171875</ele>
        <time>2020-08-11T07:10:30.000Z</time>
      </trkpt>
      <trkpt lat="42.26059614680707454681396484375" lon="1.76636002957820892333984375">
        <ele>1403.5999755859375</ele>
        <time>2020-08-11T07:10:32.000Z</time>
      </trkpt>
      <trkpt lat="42.26051283068954944610595703125" lon="1.76625215448439121246337890625">
        <ele>1403.800048828125</ele>
        <time>2020-08-11T07:10:39.000Z</time>
      </trkpt>
      <trkpt lat="42.26047310046851634979248046875" lon="1.76621519029140472412109375">
        <ele>1404.199951171875</ele>
        <time>2020-08-11T07:10:42.000Z</time>
      </trkpt>
      <trkpt lat="42.26039799861609935760498046875" lon="1.7661600373685359954833984375">
        <ele>1404.4000244140625</ele>
        <time>2020-08-11T07:10:47.000Z</time>
      </trkpt>
      <trkpt lat="42.26033471524715423583984375" lon="1.76601930521428585052490234375">
        <ele>1405.199951171875</ele>
        <time>2020-08-11T07:10:54.000Z</time>
      </trkpt>
      <trkpt lat="42.26033681072294712066650390625" lon="1.76593414507806301116943359375">
        <ele>1406.4000244140625</ele>
        <time>2020-08-11T07:10:58.000Z</time>
      </trkpt>
      <trkpt lat="42.26034351624548435211181640625" lon="1.76587597467005252838134765625">
        <ele>1406.4000244140625</ele>
        <time>2020-08-11T07:11:02.000Z</time>
      </trkpt>
      <trkpt lat="42.26034318096935749053955078125" lon="1.76587346009910106658935546875">
        <ele>1406.4000244140625</ele>
        <time>2020-08-11T07:11:03.000Z</time>
      </trkpt>
      <trkpt lat="42.260336391627788543701171875" lon="1.76589977927505970001220703125">
        <ele>1404.199951171875</ele>
        <time>2020-08-11T07:33:26.000Z</time>
      </trkpt>
      <trkpt lat="42.26032256148755550384521484375" lon="1.7659176327288150787353515625">
        <ele>1404.199951171875</ele>
        <time>2020-08-11T07:33:31.000Z</time>
      </trkpt>
      <trkpt lat="42.2602681629359722137451171875" lon="1.7659494839608669281005859375">
        <ele>1405</ele>
        <time>2020-08-11T07:33:38.000Z</time>
      </trkpt>
      <trkpt lat="42.2602363117039203643798828125" lon="1.76591034047305583953857421875">
        <ele>1405.4000244140625</ele>
        <time>2020-08-11T07:33:43.000Z</time>
      </trkpt>
      <trkpt lat="42.2602379880845546722412109375" lon="1.7658820934593677520751953125">
        <ele>1405.4000244140625</ele>
        <time>2020-08-11T07:33:45.000Z</time>
      </trkpt>
      <trkpt lat="42.26030143909156322479248046875" lon="1.76583674736320972442626953125">
        <ele>1405.800048828125</ele>
        <time>2020-08-11T07:33:50.000Z</time>
      </trkpt>
      <trkpt lat="42.2603179514408111572265625" lon="1.76582953892648220062255859375">
        <ele>1406</ele>
        <time>2020-08-11T07:33:51.000Z</time>
      </trkpt>
      <trkpt lat="42.2604113258421421051025390625" lon="1.76575946621596813201904296875">
        <ele>1406.4000244140625</ele>
        <time>2020-08-11T07:33:58.000Z</time>
      </trkpt>
      <trkpt lat="42.26045139133930206298828125" lon="1.7657263576984405517578125">
        <ele>1406.4000244140625</ele>
        <time>2020-08-11T07:34:01.000Z</time>
      </trkpt>
      <trkpt lat="42.26048894226551055908203125" lon="1.7656745575368404388427734375">
        <ele>1406.4000244140625</ele>
        <time>2020-08-11T07:34:05.000Z</time>
      </trkpt>
      <trkpt lat="42.26053797639906406402587890625" lon="1.7655997909605503082275390625">
        <ele>1407</ele>
        <time>2020-08-11T07:34:10.000Z</time>
      </trkpt>
      <trkpt lat="42.2605658881366252899169921875" lon="1.76555176265537738800048828125">
        <ele>1407</ele>
        <time>2020-08-11T07:34:13.000Z</time>
      </trkpt>
      <trkpt lat="42.26060268469154834747314453125" lon="1.76545687951147556304931640625">
        <ele>1407.199951171875</ele>
        <time>2020-08-11T07:34:18.000Z</time>
      </trkpt>
      <trkpt lat="42.26061022840440273284912109375" lon="1.76543843932449817657470703125">
        <ele>1407.4000244140625</ele>
        <time>2020-08-11T07:34:19.000Z</time>
      </trkpt>
      <trkpt lat="42.26068348623812198638916015625" lon="1.76531254313886165618896484375">
        <ele>1408.199951171875</ele>
        <time>2020-08-11T07:34:27.000Z</time>
      </trkpt>
      <trkpt lat="42.26069186814129352569580078125" lon="1.765298880636692047119140625">
        <ele>1408.4000244140625</ele>
        <time>2020-08-11T07:34:28.000Z</time>
      </trkpt>
      <trkpt lat="42.26073570549488067626953125" lon="1.7652065120637416839599609375">
        <ele>1409</ele>
        <time>2020-08-11T07:34:35.000Z</time>
      </trkpt>
      <trkpt lat="42.26076789200305938720703125" lon="1.76516183651983737945556640625">
        <ele>1409.4000244140625</ele>
        <time>2020-08-11T07:34:39.000Z</time>
      </trkpt>
      <trkpt lat="42.26078842766582965850830078125" lon="1.76514121703803539276123046875">
        <ele>1409.800048828125</ele>
        <time>2020-08-11T07:34:41.000Z</time>
      </trkpt>
      <trkpt lat="42.260823212563991546630859375" lon="1.76509394310414791107177734375">
        <ele>1410.5999755859375</ele>
        <time>2020-08-11T07:34:45.000Z</time>
      </trkpt>
      <trkpt lat="42.260856740176677703857421875" lon="1.76506460644304752349853515625">
        <ele>1411</ele>
        <time>2020-08-11T07:34:48.000Z</time>
      </trkpt>
      <trkpt lat="42.2608934529125690460205078125" lon="1.7650263011455535888671875">
        <ele>1411.5999755859375</ele>
        <time>2020-08-11T07:34:52.000Z</time>
      </trkpt>
      <trkpt lat="42.260922454297542572021484375" lon="1.76499721594154834747314453125">
        <ele>1412</ele>
        <time>2020-08-11T07:34:55.000Z</time>
      </trkpt>
      <trkpt lat="42.26094936020672321319580078125" lon="1.764965951442718505859375">
        <ele>1412.5999755859375</ele>
        <time>2020-08-11T07:34:58.000Z</time>
      </trkpt>
      <trkpt lat="42.2609876655042171478271484375" lon="1.76491071470081806182861328125">
        <ele>1413.199951171875</ele>
        <time>2020-08-11T07:35:03.000Z</time>
      </trkpt>
      <trkpt lat="42.26100283674895763397216796875" lon="1.76489696837961673736572265625">
        <ele>1413.5999755859375</ele>
        <time>2020-08-11T07:35:05.000Z</time>
      </trkpt>
      <trkpt lat="42.26104818284511566162109375" lon="1.76483745686709880828857421875">
        <ele>1414.199951171875</ele>
        <time>2020-08-11T07:35:11.000Z</time>
      </trkpt>
      <trkpt lat="42.261108197271823883056640625" lon="1.7647488601505756378173828125">
        <ele>1414.800048828125</ele>
        <time>2020-08-11T07:35:19.000Z</time>
      </trkpt>
      <trkpt lat="42.26115186698734760284423828125" lon="1.76467451266944408416748046875">
        <ele>1415.800048828125</ele>
        <time>2020-08-11T07:35:26.000Z</time>
      </trkpt>
      <trkpt lat="42.26116460748016834259033203125" lon="1.76465238444507122039794921875">
        <ele>1415.800048828125</ele>
        <time>2020-08-11T07:35:28.000Z</time>
      </trkpt>
      <trkpt lat="42.26120517589151859283447265625" lon="1.76455599255859851837158203125">
        <ele>1416.5999755859375</ele>
        <time>2020-08-11T07:35:35.000Z</time>
      </trkpt>
      <trkpt lat="42.2612139768898487091064453125" lon="1.76452866755425930023193359375">
        <ele>1416.800048828125</ele>
        <time>2020-08-11T07:35:37.000Z</time>
      </trkpt>
      <trkpt lat="42.26123585365712642669677734375" lon="1.76447317935526371002197265625">
        <ele>1417.5999755859375</ele>
        <time>2020-08-11T07:35:42.000Z</time>
      </trkpt>
      <trkpt lat="42.26124524138867855072021484375" lon="1.7644467763602733612060546875">
        <ele>1417.800048828125</ele>
        <time>2020-08-11T07:35:44.000Z</time>
      </trkpt>
      <trkpt lat="42.26124825887382030487060546875" lon="1.7644343711435794830322265625">
        <ele>1418</ele>
        <time>2020-08-11T07:35:45.000Z</time>
      </trkpt>
      <trkpt lat="42.2612542100250720977783203125" lon="1.76440897397696971893310546875">
        <ele>1418.199951171875</ele>
        <time>2020-08-11T07:35:47.000Z</time>
      </trkpt>
      <trkpt lat="42.26127642206847667694091796875" lon="1.76434141583740711212158203125">
        <ele>1419.199951171875</ele>
        <time>2020-08-11T07:35:52.000Z</time>
      </trkpt>
      <trkpt lat="42.26128547452390193939208984375" lon="1.76431710831820964813232421875">
        <ele>1419.5999755859375</ele>
        <time>2020-08-11T07:35:54.000Z</time>
      </trkpt>
      <trkpt lat="42.26131640374660491943359375" lon="1.7642529867589473724365234375">
        <ele>1420.199951171875</ele>
        <time>2020-08-11T07:35:59.000Z</time>
      </trkpt>
      <trkpt lat="42.2613269649446010589599609375" lon="1.76422524265944957733154296875">
        <ele>1420.4000244140625</ele>
        <time>2020-08-11T07:36:01.000Z</time>
      </trkpt>
      <trkpt lat="42.26135839708149433135986328125" lon="1.764151565730571746826171875">
        <ele>1421.4000244140625</ele>
        <time>2020-08-11T07:36:07.000Z</time>
      </trkpt>
      <trkpt lat="42.26137482561171054840087890625" lon="1.76411233842372894287109375">
        <ele>1422</ele>
        <time>2020-08-11T07:36:10.000Z</time>
      </trkpt>
      <trkpt lat="42.26139309816062450408935546875" lon="1.7640752904117107391357421875">
        <ele>1422.5999755859375</ele>
        <time>2020-08-11T07:36:13.000Z</time>
      </trkpt>
      <trkpt lat="42.2614298947155475616455078125" lon="1.7640149407088756561279296875">
        <ele>1423.199951171875</ele>
        <time>2020-08-11T07:36:18.000Z</time>
      </trkpt>
      <trkpt lat="42.26145981810986995697021484375" lon="1.76396724767982959747314453125">
        <ele>1423.5999755859375</ele>
        <time>2020-08-11T07:36:22.000Z</time>
      </trkpt>
      <trkpt lat="42.26150206290185451507568359375" lon="1.76390178501605987548828125">
        <ele>1424</ele>
        <time>2020-08-11T07:36:26.000Z</time>
      </trkpt>
      <trkpt lat="42.26158152334392070770263671875" lon="1.76376574672758579254150390625">
        <ele>1424.199951171875</ele>
        <time>2020-08-11T07:36:34.000Z</time>
      </trkpt>
      <trkpt lat="42.26163131184875965118408203125" lon="1.76365795545279979705810546875">
        <ele>1424.5999755859375</ele>
        <time>2020-08-11T07:36:40.000Z</time>
      </trkpt>
      <trkpt lat="42.26167875342071056365966796875" lon="1.76356726326048374176025390625">
        <ele>1425</ele>
        <time>2020-08-11T07:36:46.000Z</time>
      </trkpt>
      <trkpt lat="42.26168495602905750274658203125" lon="1.76354714669287204742431640625">
        <ele>1425</ele>
        <time>2020-08-11T07:36:47.000Z</time>
      </trkpt>
      <trkpt lat="42.26169669069349765777587890625" lon="1.763512529432773590087890625">
        <ele>1425.199951171875</ele>
        <time>2020-08-11T07:36:49.000Z</time>
      </trkpt>
      <trkpt lat="42.26172300986945629119873046875" lon="1.7634620703756809234619140625">
        <ele>1425</ele>
        <time>2020-08-11T07:36:52.000Z</time>
      </trkpt>
      <trkpt lat="42.26174815557897090911865234375" lon="1.76339677534997463226318359375">
        <ele>1425.800048828125</ele>
        <time>2020-08-11T07:36:56.000Z</time>
      </trkpt>
      <trkpt lat="42.26175569929182529449462890625" lon="1.76338051445782184600830078125">
        <ele>1426</ele>
        <time>2020-08-11T07:36:57.000Z</time>
      </trkpt>
      <trkpt lat="42.26176341064274311065673828125" lon="1.763347573578357696533203125">
        <ele>1426</ele>
        <time>2020-08-11T07:36:59.000Z</time>
      </trkpt>
      <trkpt lat="42.261810265481472015380859375" lon="1.76322377286851406097412109375">
        <ele>1426.4000244140625</ele>
        <time>2020-08-11T07:37:07.000Z</time>
      </trkpt>
      <trkpt lat="42.26186365820467472076416015625" lon="1.7630791850388050079345703125">
        <ele>1427</ele>
        <time>2020-08-11T07:37:15.000Z</time>
      </trkpt>
      <trkpt lat="42.26190489716827869415283203125" lon="1.76295639015734195709228515625">
        <ele>1427.800048828125</ele>
        <time>2020-08-11T07:37:22.000Z</time>
      </trkpt>
      <trkpt lat="42.26195116527378559112548828125" lon="1.7628273926675319671630859375">
        <ele>1428.199951171875</ele>
        <time>2020-08-11T07:37:29.000Z</time>
      </trkpt>
      <trkpt lat="42.262000702321529388427734375" lon="1.76268246956169605255126953125">
        <ele>1429</ele>
        <time>2020-08-11T07:37:37.000Z</time>
      </trkpt>
      <trkpt lat="42.26200707256793975830078125" lon="1.7626624368131160736083984375">
        <ele>1429.199951171875</ele>
        <time>2020-08-11T07:37:38.000Z</time>
      </trkpt>
      <trkpt lat="42.26206163875758647918701171875" lon="1.76248951815068721771240234375">
        <ele>1430</ele>
        <time>2020-08-11T07:37:47.000Z</time>
      </trkpt>
      <trkpt lat="42.2620706073939800262451171875" lon="1.76247040741145610809326171875">
        <ele>1430</ele>
        <time>2020-08-11T07:37:48.000Z</time>
      </trkpt>
      <trkpt lat="42.2621158696711063385009765625" lon="1.76237133331596851348876953125">
        <ele>1430.4000244140625</ele>
        <time>2020-08-11T07:37:54.000Z</time>
      </trkpt>
      <trkpt lat="42.26217177696526050567626953125" lon="1.76225356757640838623046875">
        <ele>1431</ele>
        <time>2020-08-11T07:38:02.000Z</time>
      </trkpt>
      <trkpt lat="42.26217915304005146026611328125" lon="1.76223856396973133087158203125">
        <ele>1431.199951171875</ele>
        <time>2020-08-11T07:38:03.000Z</time>
      </trkpt>
      <trkpt lat="42.26219172589480876922607421875" lon="1.76222766749560832977294921875">
        <ele>1431.199951171875</ele>
        <time>2020-08-11T07:38:04.000Z</time>
      </trkpt>
      <trkpt lat="42.26226028986275196075439453125" lon="1.76213010214269161224365234375">
        <ele>1431.800048828125</ele>
        <time>2020-08-11T07:38:11.000Z</time>
      </trkpt>
      <trkpt lat="42.2622704319655895233154296875" lon="1.76211887039244174957275390625">
        <ele>1432</ele>
        <time>2020-08-11T07:38:12.000Z</time>
      </trkpt>
      <trkpt lat="42.26230756379663944244384765625" lon="1.76206690259277820587158203125">
        <ele>1433</ele>
        <time>2020-08-11T07:38:16.000Z</time>
      </trkpt>
      <trkpt lat="42.262326590716838836669921875" lon="1.76204024814069271087646484375">
        <ele>1433</ele>
        <time>2020-08-11T07:38:18.000Z</time>
      </trkpt>
      <trkpt lat="42.2623778879642486572265625" lon="1.76198140718042850494384765625">
        <ele>1433.199951171875</ele>
        <time>2020-08-11T07:38:23.000Z</time>
      </trkpt>
      <trkpt lat="42.2623978368937969207763671875" lon="1.76195777021348476409912109375">
        <ele>1433.4000244140625</ele>
        <time>2020-08-11T07:38:25.000Z</time>
      </trkpt>
      <trkpt lat="42.26243983022868633270263671875" lon="1.76191401667892932891845703125">
        <ele>1434</ele>
        <time>2020-08-11T07:38:29.000Z</time>
      </trkpt>
      <trkpt lat="42.2624615393579006195068359375" lon="1.76189188845455646514892578125">
        <ele>1433.800048828125</ele>
        <time>2020-08-11T07:38:31.000Z</time>
      </trkpt>
      <trkpt lat="42.26248777471482753753662109375" lon="1.76185534335672855377197265625">
        <ele>1434.199951171875</ele>
        <time>2020-08-11T07:38:34.000Z</time>
      </trkpt>
      <trkpt lat="42.2625135071575641632080078125" lon="1.76181846298277378082275390625">
        <ele>1434.800048828125</ele>
        <time>2020-08-11T07:38:37.000Z</time>
      </trkpt>
      <trkpt lat="42.26252348162233829498291015625" lon="1.761806644499301910400390625">
        <ele>1435</ele>
        <time>2020-08-11T07:38:38.000Z</time>
      </trkpt>
      <trkpt lat="42.262588106095790863037109375" lon="1.761734224855899810791015625">
        <ele>1435.800048828125</ele>
        <time>2020-08-11T07:38:44.000Z</time>
      </trkpt>
      <trkpt lat="42.26259623654186725616455078125" lon="1.7617186345160007476806640625">
        <ele>1436</ele>
        <time>2020-08-11T07:38:45.000Z</time>
      </trkpt>
      <trkpt lat="42.262603528797626495361328125" lon="1.76170245744287967681884765625">
        <ele>1436</ele>
        <time>2020-08-11T07:38:46.000Z</time>
      </trkpt>
      <trkpt lat="42.26265172474086284637451171875" lon="1.761604808270931243896484375">
        <ele>1437</ele>
        <time>2020-08-11T07:38:53.000Z</time>
      </trkpt>
      <trkpt lat="42.26265792734920978546142578125" lon="1.76159181632101535797119140625">
        <ele>1437.4000244140625</ele>
        <time>2020-08-11T07:38:54.000Z</time>
      </trkpt>
      <trkpt lat="42.26271073333919048309326171875" lon="1.7615094222128391265869140625">
        <ele>1437.800048828125</ele>
        <time>2020-08-11T07:39:00.000Z</time>
      </trkpt>
      <trkpt lat="42.26272397674620151519775390625" lon="1.76147975027561187744140625">
        <ele>1438</ele>
        <time>2020-08-11T07:39:02.000Z</time>
      </trkpt>
      <trkpt lat="42.2627327777445316314697265625" lon="1.7614658363163471221923828125">
        <ele>1438.199951171875</ele>
        <time>2020-08-11T07:39:03.000Z</time>
      </trkpt>
      <trkpt lat="42.2627560794353485107421875" lon="1.761420406401157379150390625">
        <ele>1438.4000244140625</ele>
        <time>2020-08-11T07:39:06.000Z</time>
      </trkpt>
      <trkpt lat="42.26281986571848392486572265625" lon="1.761314459145069122314453125">
        <ele>1439</ele>
        <time>2020-08-11T07:39:14.000Z</time>
      </trkpt>
      <trkpt lat="42.26285490207374095916748046875" lon="1.7612375132739543914794921875">
        <ele>1440</ele>
        <time>2020-08-11T07:39:19.000Z</time>
      </trkpt>
      <trkpt lat="42.2628719173371791839599609375" lon="1.76119166426360607147216796875">
        <ele>1440.4000244140625</ele>
        <time>2020-08-11T07:39:22.000Z</time>
      </trkpt>
      <trkpt lat="42.2629339434206485748291015625" lon="1.7611030675470829010009765625">
        <ele>1441.199951171875</ele>
        <time>2020-08-11T07:39:29.000Z</time>
      </trkpt>
      <trkpt lat="42.26300996728241443634033203125" lon="1.76102184690535068511962890625">
        <ele>1442</ele>
        <time>2020-08-11T07:39:37.000Z</time>
      </trkpt>
      <trkpt lat="42.2630204446613788604736328125" lon="1.76101430319249629974365234375">
        <ele>1442.4000244140625</ele>
        <time>2020-08-11T07:39:38.000Z</time>
      </trkpt>
      <trkpt lat="42.26306361146271228790283203125" lon="1.76098261959850788116455078125">
        <ele>1443</ele>
        <time>2020-08-11T07:39:42.000Z</time>
      </trkpt>
      <trkpt lat="42.2631039284169673919677734375" lon="1.76096434704959392547607421875">
        <ele>1443.199951171875</ele>
        <time>2020-08-11T07:39:45.000Z</time>
      </trkpt>
      <trkpt lat="42.2631153278052806854248046875" lon="1.76095864735543727874755859375">
        <ele>1443.199951171875</ele>
        <time>2020-08-11T07:39:46.000Z</time>
      </trkpt>
      <trkpt lat="42.2631827183067798614501953125" lon="1.76094138063490390777587890625">
        <ele>1444</ele>
        <time>2020-08-11T07:39:52.000Z</time>
      </trkpt>
      <trkpt lat="42.26320325396955013275146484375" lon="1.7609340883791446685791015625">
        <ele>1444.4000244140625</ele>
        <time>2020-08-11T07:39:54.000Z</time>
      </trkpt>
      <trkpt lat="42.26325471885502338409423828125" lon="1.76090299151837825775146484375">
        <ele>1445.199951171875</ele>
        <time>2020-08-11T07:39:59.000Z</time>
      </trkpt>
      <trkpt lat="42.26329361088573932647705078125" lon="1.760873235762119293212890625">
        <ele>1445.5999755859375</ele>
        <time>2020-08-11T07:40:03.000Z</time>
      </trkpt>
      <trkpt lat="42.2633139789104461669921875" lon="1.76085303537547588348388671875">
        <ele>1445.800048828125</ele>
        <time>2020-08-11T07:40:05.000Z</time>
      </trkpt>
      <trkpt lat="42.26332345046103000640869140625" lon="1.7608420550823211669921875">
        <ele>1445.800048828125</ele>
        <time>2020-08-11T07:40:06.000Z</time>
      </trkpt>
      <trkpt lat="42.26335085928440093994140625" lon="1.76080978475511074066162109375">
        <ele>1446.4000244140625</ele>
        <time>2020-08-11T07:40:09.000Z</time>
      </trkpt>
      <trkpt lat="42.26335949264466762542724609375" lon="1.760797798633575439453125">
        <ele>1446.5999755859375</ele>
        <time>2020-08-11T07:40:10.000Z</time>
      </trkpt>
      <trkpt lat="42.26337575353682041168212890625" lon="1.7607724852859973907470703125">
        <ele>1446.800048828125</ele>
        <time>2020-08-11T07:40:12.000Z</time>
      </trkpt>
      <trkpt lat="42.26341464556753635406494140625" lon="1.76068137399852275848388671875">
        <ele>1447.800048828125</ele>
        <time>2020-08-11T07:40:18.000Z</time>
      </trkpt>
      <trkpt lat="42.263421602547168731689453125" lon="1.76066561602056026458740234375">
        <ele>1448</ele>
        <time>2020-08-11T07:40:19.000Z</time>
      </trkpt>
      <trkpt lat="42.26347616873681545257568359375" lon="1.76055715419352054595947265625">
        <ele>1448.800048828125</ele>
        <time>2020-08-11T07:40:27.000Z</time>
      </trkpt>
      <trkpt lat="42.26349578239023685455322265625" lon="1.760518513619899749755859375">
        <ele>1449</ele>
        <time>2020-08-11T07:40:30.000Z</time>
      </trkpt>
      <trkpt lat="42.26351036690175533294677734375" lon="1.760470569133758544921875">
        <ele>1449.199951171875</ele>
        <time>2020-08-11T07:40:33.000Z</time>
      </trkpt>
      <trkpt lat="42.26351908408105373382568359375" lon="1.7604596726596355438232421875">
        <ele>1449.4000244140625</ele>
        <time>2020-08-11T07:40:34.000Z</time>
      </trkpt>
      <trkpt lat="42.2635337524116039276123046875" lon="1.76043226383626461029052734375">
        <ele>1449.5999755859375</ele>
        <time>2020-08-11T07:40:36.000Z</time>
      </trkpt>
      <trkpt lat="42.26355629973113536834716796875" lon="1.760395132005214691162109375">
        <ele>1450</ele>
        <time>2020-08-11T07:40:39.000Z</time>
      </trkpt>
      <trkpt lat="42.26356199942529201507568359375" lon="1.76038348115980625152587890625">
        <ele>1450.199951171875</ele>
        <time>2020-08-11T07:40:40.000Z</time>
      </trkpt>
      <trkpt lat="42.26358396001160144805908203125" lon="1.76034375093877315521240234375">
        <ele>1450.800048828125</ele>
        <time>2020-08-11T07:40:43.000Z</time>
      </trkpt>
      <trkpt lat="42.26361447013914585113525390625" lon="1.7602916993200778961181640625">
        <ele>1451</ele>
        <time>2020-08-11T07:40:47.000Z</time>
      </trkpt>
      <trkpt lat="42.2636413760483264923095703125" lon="1.76024082116782665252685546875">
        <ele>1451.5999755859375</ele>
        <time>2020-08-11T07:40:51.000Z</time>
      </trkpt>
      <trkpt lat="42.26367406547069549560546875" lon="1.760198660194873809814453125">
        <ele>1452.4000244140625</ele>
        <time>2020-08-11T07:40:55.000Z</time>
      </trkpt>
      <trkpt lat="42.2636903263628482818603515625" lon="1.76017619669437408447265625">
        <ele>1452.5999755859375</ele>
        <time>2020-08-11T07:40:57.000Z</time>
      </trkpt>
      <trkpt lat="42.26370717398822307586669921875" lon="1.76015071570873260498046875">
        <ele>1452.5999755859375</ele>
        <time>2020-08-11T07:40:59.000Z</time>
      </trkpt>
      <trkpt lat="42.26373047567903995513916015625" lon="1.7601170204579830169677734375">
        <ele>1453.199951171875</ele>
        <time>2020-08-11T07:41:02.000Z</time>
      </trkpt>
      <trkpt lat="42.2637355886399745941162109375" lon="1.7601044476032257080078125">
        <ele>1453.4000244140625</ele>
        <time>2020-08-11T07:41:03.000Z</time>
      </trkpt>
      <trkpt lat="42.26375143043696880340576171875" lon="1.7600791342556476593017578125">
        <ele>1453.800048828125</ele>
        <time>2020-08-11T07:41:05.000Z</time>
      </trkpt>
      <trkpt lat="42.2637805156409740447998046875" lon="1.76004032604396343231201171875">
        <ele>1453.800048828125</ele>
        <time>2020-08-11T07:41:08.000Z</time>
      </trkpt>
      <trkpt lat="42.26382636465132236480712890625" lon="1.75993622280657291412353515625">
        <ele>1454.5999755859375</ele>
        <time>2020-08-11T07:41:15.000Z</time>
      </trkpt>
      <trkpt lat="42.26383994333446025848388671875" lon="1.75990604795515537261962890625">
        <ele>1454.800048828125</ele>
        <time>2020-08-11T07:41:17.000Z</time>
      </trkpt>
      <trkpt lat="42.2638700343668460845947265625" lon="1.7598424293100833892822265625">
        <ele>1455.4000244140625</ele>
        <time>2020-08-11T07:41:22.000Z</time>
      </trkpt>
      <trkpt lat="42.26389341987669467926025390625" lon="1.7597918026149272918701171875">
        <ele>1455.5999755859375</ele>
        <time>2020-08-11T07:41:26.000Z</time>
      </trkpt>
      <trkpt lat="42.263915799558162689208984375" lon="1.75975400023162364959716796875">
        <ele>1456</ele>
        <time>2020-08-11T07:41:29.000Z</time>
      </trkpt>
      <trkpt lat="42.263962067663669586181640625" lon="1.75966448150575160980224609375">
        <ele>1456.5999755859375</ele>
        <time>2020-08-11T07:41:36.000Z</time>
      </trkpt>
      <trkpt lat="42.26399383507668972015380859375" lon="1.759566999971866607666015625">
        <ele>1457.199951171875</ele>
        <time>2020-08-11T07:41:43.000Z</time>
      </trkpt>
      <trkpt lat="42.26400456391274929046630859375" lon="1.7595336399972438812255859375">
        <ele>1457.800048828125</ele>
        <time>2020-08-11T07:41:45.000Z</time>
      </trkpt>
      <trkpt lat="42.2640302963554859161376953125" lon="1.75948879681527614593505859375">
        <ele>1457.800048828125</ele>
        <time>2020-08-11T07:41:48.000Z</time>
      </trkpt>
      <trkpt lat="42.26405150257050991058349609375" lon="1.759465746581554412841796875">
        <ele>1458.4000244140625</ele>
        <time>2020-08-11T07:41:50.000Z</time>
      </trkpt>
      <trkpt lat="42.26407731883227825164794921875" lon="1.7594102583825588226318359375">
        <ele>1458.5999755859375</ele>
        <time>2020-08-11T07:41:54.000Z</time>
      </trkpt>
      <trkpt lat="42.26409927941858768463134765625" lon="1.75937077961862087249755859375">
        <ele>1458.800048828125</ele>
        <time>2020-08-11T07:41:57.000Z</time>
      </trkpt>
      <trkpt lat="42.26410590112209320068359375" lon="1.75933792255818843841552734375">
        <ele>1459</ele>
        <time>2020-08-11T07:41:59.000Z</time>
      </trkpt>
      <trkpt lat="42.26412593387067317962646484375" lon="1.75927522592246532440185546875">
        <ele>1459.5999755859375</ele>
        <time>2020-08-11T07:42:03.000Z</time>
      </trkpt>
      <trkpt lat="42.2641302086412906646728515625" lon="1.7592597194015979766845703125">
        <ele>1459.800048828125</ele>
        <time>2020-08-11T07:42:04.000Z</time>
      </trkpt>
      <trkpt lat="42.26415552198886871337890625" lon="1.75916776992380619049072265625">
        <ele>1460.800048828125</ele>
        <time>2020-08-11T07:42:10.000Z</time>
      </trkpt>
      <trkpt lat="42.2641670890152454376220703125" lon="1.75912083126604557037353515625">
        <ele>1461.199951171875</ele>
        <time>2020-08-11T07:42:13.000Z</time>
      </trkpt>
      <trkpt lat="42.26417404599487781524658203125" lon="1.7590743117034435272216796875">
        <ele>1461.5999755859375</ele>
        <time>2020-08-11T07:42:16.000Z</time>
      </trkpt>
      <trkpt lat="42.2641741298139095306396484375" lon="1.75905880518257617950439453125">
        <ele>1461.800048828125</ele>
        <time>2020-08-11T07:42:17.000Z</time>
      </trkpt>
      <trkpt lat="42.26417672820389270782470703125" lon="1.75901320762932300567626953125">
        <ele>1462.5999755859375</ele>
        <time>2020-08-11T07:42:20.000Z</time>
      </trkpt>
      <trkpt lat="42.2641805000603199005126953125" lon="1.75899543799459934234619140625">
        <ele>1462.800048828125</ele>
        <time>2020-08-11T07:42:21.000Z</time>
      </trkpt>
      <trkpt lat="42.2641830146312713623046875" lon="1.75897917710244655609130859375">
        <ele>1463</ele>
        <time>2020-08-11T07:42:22.000Z</time>
      </trkpt>
      <trkpt lat="42.26419265381991863250732421875" lon="1.75886451266705989837646484375">
        <ele>1464</ele>
        <time>2020-08-11T07:42:29.000Z</time>
      </trkpt>
      <trkpt lat="42.2642049752175807952880859375" lon="1.758755631744861602783203125">
        <ele>1465.199951171875</ele>
        <time>2020-08-11T07:42:36.000Z</time>
      </trkpt>
      <trkpt lat="42.26420807652175426483154296875" lon="1.7587249539792537689208984375">
        <ele>1465.800048828125</ele>
        <time>2020-08-11T07:42:38.000Z</time>
      </trkpt>
      <trkpt lat="42.2642103396356105804443359375" lon="1.7586793564260005950927734375">
        <ele>1466</ele>
        <time>2020-08-11T07:42:41.000Z</time>
      </trkpt>
      <trkpt lat="42.264224253594875335693359375" lon="1.75861121155321598052978515625">
        <ele>1466.5999755859375</ele>
        <time>2020-08-11T07:42:46.000Z</time>
      </trkpt>
      <trkpt lat="42.2642334736883640289306640625" lon="1.7585774324834346771240234375">
        <ele>1467</ele>
        <time>2020-08-11T07:42:48.000Z</time>
      </trkpt>
      <trkpt lat="42.26424227468669414520263671875" lon="1.75850694067776203155517578125">
        <ele>1468.199951171875</ele>
        <time>2020-08-11T07:42:53.000Z</time>
      </trkpt>
      <trkpt lat="42.2642549313604831695556640625" lon="1.75844843499362468719482421875">
        <ele>1469.199951171875</ele>
        <time>2020-08-11T07:42:57.000Z</time>
      </trkpt>
      <trkpt lat="42.264267504215240478515625" lon="1.75841188989579677581787109375">
        <ele>1469.5999755859375</ele>
        <time>2020-08-11T07:43:00.000Z</time>
      </trkpt>
      <trkpt lat="42.26430262438952922821044921875" lon="1.7583534680306911468505859375">
        <ele>1470.199951171875</ele>
        <time>2020-08-11T07:43:04.000Z</time>
      </trkpt>
      <trkpt lat="42.26431201212108135223388671875" lon="1.758338548243045806884765625">
        <ele>1470.5999755859375</ele>
        <time>2020-08-11T07:43:05.000Z</time>
      </trkpt>
      <trkpt lat="42.26432676427066326141357421875" lon="1.758312396705150604248046875">
        <ele>1471</ele>
        <time>2020-08-11T07:43:07.000Z</time>
      </trkpt>
      <trkpt lat="42.2643384151160717010498046875" lon="1.75828549079596996307373046875">
        <ele>1471.4000244140625</ele>
        <time>2020-08-11T07:43:09.000Z</time>
      </trkpt>
      <trkpt lat="42.264376468956470489501953125" lon="1.75821759738028049468994140625">
        <ele>1472</ele>
        <time>2020-08-11T07:43:14.000Z</time>
      </trkpt>
      <trkpt lat="42.264394573867321014404296875" lon="1.7581947147846221923828125">
        <ele>1472.5999755859375</ele>
        <time>2020-08-11T07:43:16.000Z</time>
      </trkpt>
      <trkpt lat="42.264401614665985107421875" lon="1.75818222574889659881591796875">
        <ele>1472.5999755859375</ele>
        <time>2020-08-11T07:43:17.000Z</time>
      </trkpt>
      <trkpt lat="42.2644242458045482635498046875" lon="1.758142746984958648681640625">
        <ele>1473.199951171875</ele>
        <time>2020-08-11T07:43:20.000Z</time>
      </trkpt>
      <trkpt lat="42.2644356451928615570068359375" lon="1.75811517052352428436279296875">
        <ele>1473.5999755859375</ele>
        <time>2020-08-11T07:43:22.000Z</time>
      </trkpt>
      <trkpt lat="42.2644557617604732513427734375" lon="1.7580761946737766265869140625">
        <ele>1473.800048828125</ele>
        <time>2020-08-11T07:43:25.000Z</time>
      </trkpt>
      <trkpt lat="42.2644668258726596832275390625" lon="1.758048869669437408447265625">
        <ele>1473.800048828125</ele>
        <time>2020-08-11T07:43:27.000Z</time>
      </trkpt>
      <trkpt lat="42.26447529159486293792724609375" lon="1.758038811385631561279296875">
        <ele>1473.800048828125</ele>
        <time>2020-08-11T07:43:28.000Z</time>
      </trkpt>
      <trkpt lat="42.2645177878439426422119140625" lon="1.7579843290150165557861328125">
        <ele>1474.4000244140625</ele>
        <time>2020-08-11T07:43:33.000Z</time>
      </trkpt>
      <trkpt lat="42.26454569958150386810302734375" lon="1.75793512724339962005615234375">
        <ele>1475.5999755859375</ele>
        <time>2020-08-11T07:43:37.000Z</time>
      </trkpt>
      <trkpt lat="42.2645746171474456787109375" lon="1.7578941397368907928466796875">
        <ele>1476.199951171875</ele>
        <time>2020-08-11T07:43:41.000Z</time>
      </trkpt>
      <trkpt lat="42.26462013088166713714599609375" lon="1.75784326158463954925537109375">
        <ele>1476.5999755859375</ele>
        <time>2020-08-11T07:43:46.000Z</time>
      </trkpt>
      <trkpt lat="42.264625243842601776123046875" lon="1.75783035345375537872314453125">
        <ele>1476.5999755859375</ele>
        <time>2020-08-11T07:43:47.000Z</time>
      </trkpt>
      <trkpt lat="42.264630608260631561279296875" lon="1.7578176967799663543701171875">
        <ele>1476.800048828125</ele>
        <time>2020-08-11T07:43:48.000Z</time>
      </trkpt>
      <trkpt lat="42.2646550834178924560546875" lon="1.75775944255292415618896484375">
        <ele>1477.4000244140625</ele>
        <time>2020-08-11T07:43:54.000Z</time>
      </trkpt>
      <trkpt lat="42.2646572627127170562744140625" lon="1.757761202752590179443359375">
        <ele>1477.5999755859375</ele>
        <time>2020-08-11T07:44:21.000Z</time>
      </trkpt>
      <trkpt lat="42.26466807536780834197998046875" lon="1.7577144317328929901123046875">
        <ele>1477.5999755859375</ele>
        <time>2020-08-11T07:44:27.000Z</time>
      </trkpt>
      <trkpt lat="42.2646934725344181060791015625" lon="1.75760203041136264801025390625">
        <ele>1478</ele>
        <time>2020-08-11T07:44:34.000Z</time>
      </trkpt>
      <trkpt lat="42.26469238288700580596923828125" lon="1.75756649114191532135009765625">
        <ele>1478</ele>
        <time>2020-08-11T07:44:36.000Z</time>
      </trkpt>
      <trkpt lat="42.26470160298049449920654296875" lon="1.75748786889016628265380859375">
        <ele>1478.199951171875</ele>
        <time>2020-08-11T07:44:40.000Z</time>
      </trkpt>
      <trkpt lat="42.26470847614109516143798828125" lon="1.7573945783078670501708984375">
        <ele>1478.4000244140625</ele>
        <time>2020-08-11T07:44:45.000Z</time>
      </trkpt>
      <trkpt lat="42.26471618749201297760009765625" lon="1.7573176324367523193359375">
        <ele>1478.5999755859375</ele>
        <time>2020-08-11T07:44:49.000Z</time>
      </trkpt>
      <trkpt lat="42.26472155191004276275634765625" lon="1.75719584338366985321044921875">
        <ele>1479</ele>
        <time>2020-08-11T07:44:55.000Z</time>
      </trkpt>
      <trkpt lat="42.26471501402556896209716796875" lon="1.757042706012725830078125">
        <ele>1479.4000244140625</ele>
        <time>2020-08-11T07:45:03.000Z</time>
      </trkpt>
      <trkpt lat="42.2647087275981903076171875" lon="1.75700540654361248016357421875">
        <ele>1479.800048828125</ele>
        <time>2020-08-11T07:45:05.000Z</time>
      </trkpt>
      <trkpt lat="42.26469464600086212158203125" lon="1.75693332217633724212646484375">
        <ele>1480</ele>
        <time>2020-08-11T07:45:09.000Z</time>
      </trkpt>
      <trkpt lat="42.2646819055080413818359375" lon="1.7568631656467914581298828125">
        <ele>1480.4000244140625</ele>
        <time>2020-08-11T07:45:13.000Z</time>
      </trkpt>
      <trkpt lat="42.264666818082332611083984375" lon="1.75683173350989818572998046875">
        <ele>1480.5999755859375</ele>
        <time>2020-08-11T07:45:15.000Z</time>
      </trkpt>
      <trkpt lat="42.26464561186730861663818359375" lon="1.7567723058164119720458984375">
        <ele>1481.5999755859375</ele>
        <time>2020-08-11T07:45:19.000Z</time>
      </trkpt>
      <trkpt lat="42.26463563740253448486328125" lon="1.75671991892158985137939453125">
        <ele>1482</ele>
        <time>2020-08-11T07:45:22.000Z</time>
      </trkpt>
      <trkpt lat="42.26462088525295257568359375" lon="1.7566522769629955291748046875">
        <ele>1482.4000244140625</ele>
        <time>2020-08-11T07:45:26.000Z</time>
      </trkpt>
      <trkpt lat="42.26460076868534088134765625" lon="1.75659410655498504638671875">
        <ele>1482.800048828125</ele>
        <time>2020-08-11T07:45:30.000Z</time>
      </trkpt>
      <trkpt lat="42.26459364406764507293701171875" lon="1.75656904466450214385986328125">
        <ele>1483.4000244140625</ele>
        <time>2020-08-11T07:45:32.000Z</time>
      </trkpt>
      <trkpt lat="42.2645828314125537872314453125" lon="1.7565094493329524993896484375">
        <ele>1484.4000244140625</ele>
        <time>2020-08-11T07:45:36.000Z</time>
      </trkpt>
      <trkpt lat="42.264567576348781585693359375" lon="1.7564350180327892303466796875">
        <ele>1485</ele>
        <time>2020-08-11T07:45:41.000Z</time>
      </trkpt>
      <trkpt lat="42.2645657323300838470458984375" lon="1.7564217746257781982421875">
        <ele>1485.199951171875</ele>
        <time>2020-08-11T07:45:42.000Z</time>
      </trkpt>
      <trkpt lat="42.26456698961555957794189453125" lon="1.75639520399272441864013671875">
        <ele>1485.5999755859375</ele>
        <time>2020-08-11T07:45:44.000Z</time>
      </trkpt>
      <trkpt lat="42.26457067765295505523681640625" lon="1.75636335276067256927490234375">
        <ele>1486</ele>
        <time>2020-08-11T07:45:46.000Z</time>
      </trkpt>
      <trkpt lat="42.26457059383392333984375" lon="1.75631591118872165679931640625">
        <ele>1486.199951171875</ele>
        <time>2020-08-11T07:45:49.000Z</time>
      </trkpt>
      <trkpt lat="42.2645721025764942169189453125" lon="1.75629906356334686279296875">
        <ele>1486.4000244140625</ele>
        <time>2020-08-11T07:45:50.000Z</time>
      </trkpt>
      <trkpt lat="42.26458065211772918701171875" lon="1.75626461394131183624267578125">
        <ele>1487</ele>
        <time>2020-08-11T07:45:52.000Z</time>
      </trkpt>
      <trkpt lat="42.2645865194499492645263671875" lon="1.756212227046489715576171875">
        <ele>1487.5999755859375</ele>
        <time>2020-08-11T07:45:55.000Z</time>
      </trkpt>
      <trkpt lat="42.2645875252783298492431640625" lon="1.75615849904716014862060546875">
        <ele>1488</ele>
        <time>2020-08-11T07:45:58.000Z</time>
      </trkpt>
      <trkpt lat="42.264597080647945404052734375" lon="1.75608322955667972564697265625">
        <ele>1488.800048828125</ele>
        <time>2020-08-11T07:46:02.000Z</time>
      </trkpt>
      <trkpt lat="42.26459808647632598876953125" lon="1.7560638673603534698486328125">
        <ele>1489</ele>
        <time>2020-08-11T07:46:03.000Z</time>
      </trkpt>
      <trkpt lat="42.264603115618228912353515625" lon="1.75598465837538242340087890625">
        <ele>1490</ele>
        <time>2020-08-11T07:46:07.000Z</time>
      </trkpt>
      <trkpt lat="42.26460889913141727447509765625" lon="1.7559468559920787811279296875">
        <ele>1490.5999755859375</ele>
        <time>2020-08-11T07:46:09.000Z</time>
      </trkpt>
      <trkpt lat="42.26461174897849559783935546875" lon="1.75592757761478424072265625">
        <ele>1491</ele>
        <time>2020-08-11T07:46:10.000Z</time>
      </trkpt>
      <trkpt lat="42.26462683640420436859130859375" lon="1.75583680160343647003173828125">
        <ele>1492.199951171875</ele>
        <time>2020-08-11T07:46:15.000Z</time>
      </trkpt>
      <trkpt lat="42.26463505066931247711181640625" lon="1.75579975359141826629638671875">
        <ele>1492.5999755859375</ele>
        <time>2020-08-11T07:46:17.000Z</time>
      </trkpt>
      <trkpt lat="42.26464024744927883148193359375" lon="1.75575784407556056976318359375">
        <ele>1493.4000244140625</ele>
        <time>2020-08-11T07:46:19.000Z</time>
      </trkpt>
      <trkpt lat="42.26464058272540569305419921875" lon="1.75568215548992156982421875">
        <ele>1494.199951171875</ele>
        <time>2020-08-11T07:46:23.000Z</time>
      </trkpt>
      <trkpt lat="42.2646435163915157318115234375" lon="1.75566128455102443695068359375">
        <ele>1494.4000244140625</ele>
        <time>2020-08-11T07:46:24.000Z</time>
      </trkpt>
      <trkpt lat="42.26464108563959598541259765625" lon="1.7555502243340015411376953125">
        <ele>1495.800048828125</ele>
        <time>2020-08-11T07:46:30.000Z</time>
      </trkpt>
      <trkpt lat="42.26463153026998043060302734375" lon="1.7555166967213153839111328125">
        <ele>1496.199951171875</ele>
        <time>2020-08-11T07:46:32.000Z</time>
      </trkpt>
      <trkpt lat="42.2646183706820011138916015625" lon="1.755465567111968994140625">
        <ele>1496.800048828125</ele>
        <time>2020-08-11T07:46:35.000Z</time>
      </trkpt>
      <trkpt lat="42.2645841725170612335205078125" lon="1.75536992959678173065185546875">
        <ele>1497.800048828125</ele>
        <time>2020-08-11T07:46:41.000Z</time>
      </trkpt>
      <trkpt lat="42.26457738317549228668212890625" lon="1.75535484217107295989990234375">
        <ele>1498</ele>
        <time>2020-08-11T07:46:42.000Z</time>
      </trkpt>
      <trkpt lat="42.264530695974826812744140625" lon="1.75529231317341327667236328125">
        <ele>1499</ele>
        <time>2020-08-11T07:46:47.000Z</time>
      </trkpt>
      <trkpt lat="42.26451200433075428009033203125" lon="1.7552699334919452667236328125">
        <ele>1499.5999755859375</ele>
        <time>2020-08-11T07:46:49.000Z</time>
      </trkpt>
      <trkpt lat="42.26449691690504550933837890625" lon="1.755253337323665618896484375">
        <ele>1499.5999755859375</ele>
        <time>2020-08-11T07:46:53.000Z</time>
      </trkpt>
      <trkpt lat="42.26449616253376007080078125" lon="1.75525761209428310394287109375">
        <ele>1499.800048828125</ele>
        <time>2020-08-11T07:48:53.000Z</time>
      </trkpt>
      <trkpt lat="42.26449213922023773193359375" lon="1.75525325350463390350341796875">
        <ele>1499.800048828125</ele>
        <time>2020-08-11T07:48:57.000Z</time>
      </trkpt>
      <trkpt lat="42.264467664062976837158203125" lon="1.7552246712148189544677734375">
        <ele>1499.800048828125</ele>
        <time>2020-08-11T07:49:00.000Z</time>
      </trkpt>
      <trkpt lat="42.26440873928368091583251953125" lon="1.75510254688560962677001953125">
        <ele>1500.800048828125</ele>
        <time>2020-08-11T07:49:09.000Z</time>
      </trkpt>
      <trkpt lat="42.26440320722758769989013671875" lon="1.75508712418377399444580078125">
        <ele>1500.800048828125</ele>
        <time>2020-08-11T07:49:10.000Z</time>
      </trkpt>
      <trkpt lat="42.2643763013184070587158203125" lon="1.75497329793870449066162109375">
        <ele>1501.5999755859375</ele>
        <time>2020-08-11T07:49:17.000Z</time>
      </trkpt>
      <trkpt lat="42.2643722780048847198486328125" lon="1.7549376748502254486083984375">
        <ele>1502</ele>
        <time>2020-08-11T07:49:19.000Z</time>
      </trkpt>
      <trkpt lat="42.264367081224918365478515625" lon="1.7548545263707637786865234375">
        <ele>1502.800048828125</ele>
        <time>2020-08-11T07:49:24.000Z</time>
      </trkpt>
      <trkpt lat="42.26436900906264781951904296875" lon="1.7548231780529022216796875">
        <ele>1503</ele>
        <time>2020-08-11T07:49:26.000Z</time>
      </trkpt>
      <trkpt lat="42.2643803246319293975830078125" lon="1.754763163626194000244140625">
        <ele>1503.800048828125</ele>
        <time>2020-08-11T07:49:30.000Z</time>
      </trkpt>
      <trkpt lat="42.26439398713409900665283203125" lon="1.7547110281884670257568359375">
        <ele>1504.4000244140625</ele>
        <time>2020-08-11T07:49:34.000Z</time>
      </trkpt>
      <trkpt lat="42.26440169848501682281494140625" lon="1.75465377978980541229248046875">
        <ele>1504.800048828125</ele>
        <time>2020-08-11T07:49:38.000Z</time>
      </trkpt>
      <trkpt lat="42.26441745646297931671142578125" lon="1.75458270125091075897216796875">
        <ele>1505.4000244140625</ele>
        <time>2020-08-11T07:49:43.000Z</time>
      </trkpt>
      <trkpt lat="42.26443153806030750274658203125" lon="1.75450466573238372802734375">
        <ele>1505.800048828125</ele>
        <time>2020-08-11T07:49:48.000Z</time>
      </trkpt>
      <trkpt lat="42.26443254388868808746337890625" lon="1.7544719763100147247314453125">
        <ele>1506.199951171875</ele>
        <time>2020-08-11T07:49:50.000Z</time>
      </trkpt>
      <trkpt lat="42.2644450329244136810302734375" lon="1.75440047867596149444580078125">
        <ele>1506.800048828125</ele>
        <time>2020-08-11T07:49:55.000Z</time>
      </trkpt>
      <trkpt lat="42.26444981060922145843505859375" lon="1.75435236655175685882568359375">
        <ele>1507.199951171875</ele>
        <time>2020-08-11T07:49:58.000Z</time>
      </trkpt>
      <trkpt lat="42.26445257663726806640625" lon="1.7543023265898227691650390625">
        <ele>1507.800048828125</ele>
        <time>2020-08-11T07:50:01.000Z</time>
      </trkpt>
      <trkpt lat="42.2644711844623088836669921875" lon="1.75422378815710544586181640625">
        <ele>1508.4000244140625</ele>
        <time>2020-08-11T07:50:06.000Z</time>
      </trkpt>
      <trkpt lat="42.26448518224060535430908203125" lon="1.75416226498782634735107421875">
        <ele>1508.800048828125</ele>
        <time>2020-08-11T07:50:10.000Z</time>
      </trkpt>
      <trkpt lat="42.26451451890170574188232421875" lon="1.75413183867931365966796875">
        <ele>1509.199951171875</ele>
        <time>2020-08-11T07:50:13.000Z</time>
      </trkpt>
      <trkpt lat="42.2645638883113861083984375" lon="1.75407283008098602294921875">
        <ele>1510.199951171875</ele>
        <time>2020-08-11T07:50:18.000Z</time>
      </trkpt>
      <trkpt lat="42.26457470096647739410400390625" lon="1.7540629394352436065673828125">
        <ele>1510.199951171875</ele>
        <time>2020-08-11T07:50:19.000Z</time>
      </trkpt>
      <trkpt lat="42.2646810673177242279052734375" lon="1.754023544490337371826171875">
        <ele>1510.800048828125</ele>
        <time>2020-08-11T07:50:28.000Z</time>
      </trkpt>
      <trkpt lat="42.2646817378699779510498046875" lon="1.7540203593671321868896484375">
        <ele>1511.199951171875</ele>
        <time>2020-08-11T07:50:32.000Z</time>
      </trkpt>
      <trkpt lat="42.26468634791672229766845703125" lon="1.75402723252773284912109375">
        <ele>1511</ele>
        <time>2020-08-11T07:50:37.000Z</time>
      </trkpt>
      <trkpt lat="42.26469187997281551361083984375" lon="1.75402748398482799530029296875">
        <ele>1511.199951171875</ele>
        <time>2020-08-11T07:50:46.000Z</time>
      </trkpt>
      <trkpt lat="42.2646926343441009521484375" lon="1.75402781926095485687255859375">
        <ele>1510.800048828125</ele>
        <time>2020-08-11T07:51:02.000Z</time>
      </trkpt>
      <trkpt lat="42.264695651829242706298828125" lon="1.754026226699352264404296875">
        <ele>1511</ele>
        <time>2020-08-11T07:51:55.000Z</time>
      </trkpt>
      <trkpt lat="42.264713086187839508056640625" lon="1.75401918590068817138671875">
        <ele>1511</ele>
        <time>2020-08-11T07:52:01.000Z</time>
      </trkpt>
      <trkpt lat="42.26478475145995616912841796875" lon="1.75405003130435943603515625">
        <ele>1511.199951171875</ele>
        <time>2020-08-11T07:52:07.000Z</time>
      </trkpt>
      <trkpt lat="42.264837138354778289794921875" lon="1.75408565439283847808837890625">
        <ele>1511.5999755859375</ele>
        <time>2020-08-11T07:52:12.000Z</time>
      </trkpt>
      <trkpt lat="42.26487100124359130859375" lon="1.7541112191975116729736328125">
        <ele>1511.4000244140625</ele>
        <time>2020-08-11T07:52:15.000Z</time>
      </trkpt>
      <trkpt lat="42.2649569995701313018798828125" lon="1.7541202716529369354248046875">
        <ele>1511.800048828125</ele>
        <time>2020-08-11T07:52:22.000Z</time>
      </trkpt>
      <trkpt lat="42.26499631069600582122802734375" lon="1.75412069074809551239013671875">
        <ele>1512.4000244140625</ele>
        <time>2020-08-11T07:52:25.000Z</time>
      </trkpt>
      <trkpt lat="42.2650827281177043914794921875" lon="1.7541380412876605987548828125">
        <ele>1513.199951171875</ele>
        <time>2020-08-11T07:52:32.000Z</time>
      </trkpt>
      <trkpt lat="42.26510477252304553985595703125" lon="1.75415329635143280029296875">
        <ele>1513.4000244140625</ele>
        <time>2020-08-11T07:52:34.000Z</time>
      </trkpt>
      <trkpt lat="42.265165708959102630615234375" lon="1.7542456649243831634521484375">
        <ele>1514</ele>
        <time>2020-08-11T07:52:41.000Z</time>
      </trkpt>
      <trkpt lat="42.26525514386594295501708984375" lon="1.7543452419340610504150390625">
        <ele>1513.800048828125</ele>
        <time>2020-08-11T07:52:47.000Z</time>
      </trkpt>
      <trkpt lat="42.265350781381130218505859375" lon="1.75431766547262668609619140625">
        <ele>1512.5999755859375</ele>
        <time>2020-08-11T07:52:52.000Z</time>
      </trkpt>
      <trkpt lat="42.26539344526827335357666015625" lon="1.754221022129058837890625">
        <ele>1512.199951171875</ele>
        <time>2020-08-11T07:52:56.000Z</time>
      </trkpt>
      <trkpt lat="42.2653995640575885772705078125" lon="1.75419713370501995086669921875">
        <ele>1512.199951171875</ele>
        <time>2020-08-11T07:52:57.000Z</time>
      </trkpt>
      <trkpt lat="42.265447340905666351318359375" lon="1.754038967192173004150390625">
        <ele>1511.199951171875</ele>
        <time>2020-08-11T07:53:03.000Z</time>
      </trkpt>
      <trkpt lat="42.26545639336109161376953125" lon="1.75400954671204090118408203125">
        <ele>1511.199951171875</ele>
        <time>2020-08-11T07:53:04.000Z</time>
      </trkpt>
      <trkpt lat="42.26549528539180755615234375" lon="1.75388448871672153472900390625">
        <ele>1511.199951171875</ele>
        <time>2020-08-11T07:53:07.000Z</time>
      </trkpt>
      <trkpt lat="42.2655105404555797576904296875" lon="1.75382832996547222137451171875">
        <ele>1511</ele>
        <time>2020-08-11T07:53:08.000Z</time>
      </trkpt>
      <trkpt lat="42.26555622182786464691162109375" lon="1.7536482028663158416748046875">
        <ele>1510</ele>
        <time>2020-08-11T07:53:11.000Z</time>
      </trkpt>
      <trkpt lat="42.26557918824255466461181640625" lon="1.7535207979381084442138671875">
        <ele>1509.4000244140625</ele>
        <time>2020-08-11T07:53:13.000Z</time>
      </trkpt>
      <trkpt lat="42.2655886597931385040283203125" lon="1.75346170552074909210205078125">
        <ele>1509.199951171875</ele>
        <time>2020-08-11T07:53:14.000Z</time>
      </trkpt>
      <trkpt lat="42.26560735143721103668212890625" lon="1.75330496393144130706787109375">
        <ele>1509.199951171875</ele>
        <time>2020-08-11T07:53:17.000Z</time>
      </trkpt>
      <trkpt lat="42.2656126320362091064453125" lon="1.75326255150139331817626953125">
        <ele>1508.800048828125</ele>
        <time>2020-08-11T07:53:18.000Z</time>
      </trkpt>
      <trkpt lat="42.2656154818832874298095703125" lon="1.753220222890377044677734375">
        <ele>1508.5999755859375</ele>
        <time>2020-08-11T07:53:19.000Z</time>
      </trkpt>
      <trkpt lat="42.26564825512468814849853515625" lon="1.75298695452511310577392578125">
        <ele>1508</ele>
        <time>2020-08-11T07:53:24.000Z</time>
      </trkpt>
      <trkpt lat="42.265662588179111480712890625" lon="1.752898693084716796875">
        <ele>1507.5999755859375</ele>
        <time>2020-08-11T07:53:26.000Z</time>
      </trkpt>
      <trkpt lat="42.265690751373767852783203125" lon="1.75273097120225429534912109375">
        <ele>1506.4000244140625</ele>
        <time>2020-08-11T07:53:29.000Z</time>
      </trkpt>
      <trkpt lat="42.26572922430932521820068359375" lon="1.7524579726159572601318359375">
        <ele>1505.5999755859375</ele>
        <time>2020-08-11T07:53:34.000Z</time>
      </trkpt>
      <trkpt lat="42.26573475636541843414306640625" lon="1.7524145543575286865234375">
        <ele>1505.199951171875</ele>
        <time>2020-08-11T07:53:35.000Z</time>
      </trkpt>
      <trkpt lat="42.2657512687146663665771484375" lon="1.752265356481075286865234375">
        <ele>1504.5999755859375</ele>
        <time>2020-08-11T07:53:38.000Z</time>
      </trkpt>
      <trkpt lat="42.2657576389610767364501953125" lon="1.752158068120479583740234375">
        <ele>1504.199951171875</ele>
        <time>2020-08-11T07:53:40.000Z</time>
      </trkpt>
      <trkpt lat="42.26575554348528385162353515625" lon="1.75197928212583065032958984375">
        <ele>1502.800048828125</ele>
        <time>2020-08-11T07:53:43.000Z</time>
      </trkpt>
      <trkpt lat="42.26574682630598545074462890625" lon="1.7518045194447040557861328125">
        <ele>1501.5999755859375</ele>
        <time>2020-08-11T07:53:46.000Z</time>
      </trkpt>
      <trkpt lat="42.26574431173503398895263671875" lon="1.75169848836958408355712890625">
        <ele>1500.800048828125</ele>
        <time>2020-08-11T07:53:48.000Z</time>
      </trkpt>
      <trkpt lat="42.26574112661182880401611328125" lon="1.75164098851382732391357421875">
        <ele>1500.4000244140625</ele>
        <time>2020-08-11T07:53:49.000Z</time>
      </trkpt>
      <trkpt lat="42.26573266088962554931640625" lon="1.7514337040483951568603515625">
        <ele>1499.800048828125</ele>
        <time>2020-08-11T07:53:53.000Z</time>
      </trkpt>
      <trkpt lat="42.2657311521470546722412109375" lon="1.75137989223003387451171875">
        <ele>1499.199951171875</ele>
        <time>2020-08-11T07:53:54.000Z</time>
      </trkpt>
      <trkpt lat="42.26572838611900806427001953125" lon="1.75125961191952228546142578125">
        <ele>1498.4000244140625</ele>
        <time>2020-08-11T07:53:56.000Z</time>
      </trkpt>
      <trkpt lat="42.2657264582812786102294921875" lon="1.7512013576924800872802734375">
        <ele>1498</ele>
        <time>2020-08-11T07:53:57.000Z</time>
      </trkpt>
      <trkpt lat="42.26572520099580287933349609375" lon="1.75113723613321781158447265625">
        <ele>1497.5999755859375</ele>
        <time>2020-08-11T07:53:58.000Z</time>
      </trkpt>
      <trkpt lat="42.26571547798812389373779296875" lon="1.75101150758564472198486328125">
        <ele>1497.199951171875</ele>
        <time>2020-08-11T07:54:00.000Z</time>
      </trkpt>
      <trkpt lat="42.26569670252501964569091796875" lon="1.7509029619395732879638671875">
        <ele>1496.800048828125</ele>
        <time>2020-08-11T07:54:02.000Z</time>
      </trkpt>
      <trkpt lat="42.265681363642215728759765625" lon="1.750846467912197113037109375">
        <ele>1496.5999755859375</ele>
        <time>2020-08-11T07:54:03.000Z</time>
      </trkpt>
      <trkpt lat="42.265647165477275848388671875" lon="1.75073222257196903228759765625">
        <ele>1496</ele>
        <time>2020-08-11T07:54:05.000Z</time>
      </trkpt>
      <trkpt lat="42.2656126320362091064453125" lon="1.7506176419556140899658203125">
        <ele>1495.4000244140625</ele>
        <time>2020-08-11T07:54:07.000Z</time>
      </trkpt>
      <trkpt lat="42.26557868532836437225341796875" lon="1.75050423480570316314697265625">
        <ele>1495.199951171875</ele>
        <time>2020-08-11T07:54:09.000Z</time>
      </trkpt>
      <trkpt lat="42.26554716937243938446044921875" lon="1.7502686195075511932373046875">
        <ele>1494.800048828125</ele>
        <time>2020-08-11T07:54:13.000Z</time>
      </trkpt>
      <trkpt lat="42.26553845219314098358154296875" lon="1.75020583905279636383056640625">
        <ele>1494.5999755859375</ele>
        <time>2020-08-11T07:54:14.000Z</time>
      </trkpt>
      <trkpt lat="42.2655296511948108673095703125" lon="1.75013375468552112579345703125">
        <ele>1494.4000244140625</ele>
        <time>2020-08-11T07:54:15.000Z</time>
      </trkpt>
      <trkpt lat="42.26549536921083927154541015625" lon="1.74989101476967334747314453125">
        <ele>1493.199951171875</ele>
        <time>2020-08-11T07:54:18.000Z</time>
      </trkpt>
      <trkpt lat="42.2654552198946475982666015625" lon="1.74964559264481067657470703125">
        <ele>1492.199951171875</ele>
        <time>2020-08-11T07:54:21.000Z</time>
      </trkpt>
      <trkpt lat="42.26544474251568317413330078125" lon="1.74956244416534900665283203125">
        <ele>1491.5999755859375</ele>
        <time>2020-08-11T07:54:22.000Z</time>
      </trkpt>
      <trkpt lat="42.26542957127094268798828125" lon="1.74940285272896289825439453125">
        <ele>1490.800048828125</ele>
        <time>2020-08-11T07:54:24.000Z</time>
      </trkpt>
      <trkpt lat="42.26542764343321323394775390625" lon="1.749329008162021636962890625">
        <ele>1490.800048828125</ele>
        <time>2020-08-11T07:54:25.000Z</time>
      </trkpt>
      <trkpt lat="42.265438623726367950439453125" lon="1.7491905391216278076171875">
        <ele>1491</ele>
        <time>2020-08-11T07:54:27.000Z</time>
      </trkpt>
      <trkpt lat="42.26544004864990711212158203125" lon="1.74891636706888675689697265625">
        <ele>1491.4000244140625</ele>
        <time>2020-08-11T07:54:32.000Z</time>
      </trkpt>
      <trkpt lat="42.26545111276209354400634765625" lon="1.74873431213200092315673828125">
        <ele>1491.199951171875</ele>
        <time>2020-08-11T07:54:37.000Z</time>
      </trkpt>
      <trkpt lat="42.2654505260288715362548828125" lon="1.748684607446193695068359375">
        <ele>1491.5999755859375</ele>
        <time>2020-08-11T07:54:39.000Z</time>
      </trkpt>
      <trkpt lat="42.26545530371367931365966796875" lon="1.7485375888645648956298828125">
        <ele>1491.5999755859375</ele>
        <time>2020-08-11T07:54:44.000Z</time>
      </trkpt>
      <trkpt lat="42.2654651105403900146484375" lon="1.74832619726657867431640625">
        <ele>1491.4000244140625</ele>
        <time>2020-08-11T07:54:51.000Z</time>
      </trkpt>
      <trkpt lat="42.26549587212502956390380859375" lon="1.748114638030529022216796875">
        <ele>1492</ele>
        <time>2020-08-11T07:54:58.000Z</time>
      </trkpt>
      <trkpt lat="42.265512384474277496337890625" lon="1.7478516139090061187744140625">
        <ele>1492.5999755859375</ele>
        <time>2020-08-11T07:55:07.000Z</time>
      </trkpt>
      <trkpt lat="42.26551406085491180419921875" lon="1.74765824340283870697021484375">
        <ele>1493</ele>
        <time>2020-08-11T07:55:14.000Z</time>
      </trkpt>
      <trkpt lat="42.2655112110078334808349609375" lon="1.7474372126162052154541015625">
        <ele>1492.800048828125</ele>
        <time>2020-08-11T07:55:22.000Z</time>
      </trkpt>
      <trkpt lat="42.26548346690833568572998046875" lon="1.7472471110522747039794921875">
        <ele>1493.4000244140625</ele>
        <time>2020-08-11T07:55:29.000Z</time>
      </trkpt>
      <trkpt lat="42.26547718048095703125" lon="1.747220121324062347412109375">
        <ele>1493.4000244140625</ele>
        <time>2020-08-11T07:55:30.000Z</time>
      </trkpt>
      <trkpt lat="42.26544256322085857391357421875" lon="1.746963970363140106201171875">
        <ele>1493.800048828125</ele>
        <time>2020-08-11T07:55:39.000Z</time>
      </trkpt>
      <trkpt lat="42.26542362011969089508056640625" lon="1.7468441091477870941162109375">
        <ele>1494</ele>
        <time>2020-08-11T07:55:44.000Z</time>
      </trkpt>
      <trkpt lat="42.26540735922753810882568359375" lon="1.7467713542282581329345703125">
        <ele>1494.4000244140625</ele>
        <time>2020-08-11T07:55:47.000Z</time>
      </trkpt>
      <trkpt lat="42.26538891904056072235107421875" lon="1.7466664128005504608154296875">
        <ele>1494.5999755859375</ele>
        <time>2020-08-11T07:55:51.000Z</time>
      </trkpt>
      <trkpt lat="42.26538539864122867584228515625" lon="1.74664218910038471221923828125">
        <ele>1494.800048828125</ele>
        <time>2020-08-11T07:55:52.000Z</time>
      </trkpt>
      <trkpt lat="42.26537534035742282867431640625" lon="1.74648762680590152740478515625">
        <ele>1495.199951171875</ele>
        <time>2020-08-11T07:55:59.000Z</time>
      </trkpt>
      <trkpt lat="42.26537450216710567474365234375" lon="1.746442951261997222900390625">
        <ele>1495.5999755859375</ele>
        <time>2020-08-11T07:56:01.000Z</time>
      </trkpt>
      <trkpt lat="42.26535958237946033477783203125" lon="1.7463313043117523193359375">
        <ele>1495.5999755859375</ele>
        <time>2020-08-11T07:56:06.000Z</time>
      </trkpt>
      <trkpt lat="42.26533544249832630157470703125" lon="1.74616475589573383331298828125">
        <ele>1496.199951171875</ele>
        <time>2020-08-11T07:56:13.000Z</time>
      </trkpt>
      <trkpt lat="42.26531767286360263824462890625" lon="1.746032238006591796875">
        <ele>1496.4000244140625</ele>
        <time>2020-08-11T07:56:18.000Z</time>
      </trkpt>
      <trkpt lat="42.2653133980929851531982421875" lon="1.7459854669868946075439453125">
        <ele>1496.800048828125</ele>
        <time>2020-08-11T07:56:20.000Z</time>
      </trkpt>
      <trkpt lat="42.2652885876595973968505859375" lon="1.74581975676119327545166015625">
        <ele>1497</ele>
        <time>2020-08-11T07:56:27.000Z</time>
      </trkpt>
      <trkpt lat="42.2652751766145229339599609375" lon="1.74573409371078014373779296875">
        <ele>1497.4000244140625</ele>
        <time>2020-08-11T07:56:31.000Z</time>
      </trkpt>
      <trkpt lat="42.26526821963489055633544921875" lon="1.74569453112781047821044921875">
        <ele>1497.4000244140625</ele>
        <time>2020-08-11T07:56:33.000Z</time>
      </trkpt>
      <trkpt lat="42.26525849662721157073974609375" lon="1.74557022750377655029296875">
        <ele>1498.4000244140625</ele>
        <time>2020-08-11T07:56:39.000Z</time>
      </trkpt>
      <trkpt lat="42.26525195874273777008056640625" lon="1.745525300502777099609375">
        <ele>1498.5999755859375</ele>
        <time>2020-08-11T07:56:41.000Z</time>
      </trkpt>
      <trkpt lat="42.2652352787554264068603515625" lon="1.74544676207005977630615234375">
        <ele>1499.199951171875</ele>
        <time>2020-08-11T07:56:45.000Z</time>
      </trkpt>
      <trkpt lat="42.26521373726427555084228515625" lon="1.74536763690412044525146484375">
        <ele>1499.5999755859375</ele>
        <time>2020-08-11T07:56:49.000Z</time>
      </trkpt>
      <trkpt lat="42.265198566019535064697265625" lon="1.74531382508575916290283203125">
        <ele>1500.199951171875</ele>
        <time>2020-08-11T07:56:52.000Z</time>
      </trkpt>
      <trkpt lat="42.26518942974507808685302734375" lon="1.7452780343592166900634765625">
        <ele>1500.5999755859375</ele>
        <time>2020-08-11T07:56:54.000Z</time>
      </trkpt>
      <trkpt lat="42.26518356241285800933837890625" lon="1.74522480927407741546630859375">
        <ele>1501.199951171875</ele>
        <time>2020-08-11T07:56:57.000Z</time>
      </trkpt>
      <trkpt lat="42.26518272422254085540771484375" lon="1.745209805667400360107421875">
        <ele>1501.4000244140625</ele>
        <time>2020-08-11T07:56:58.000Z</time>
      </trkpt>
      <trkpt lat="42.2651809640228748321533203125" lon="1.745193041861057281494140625">
        <ele>1501.5999755859375</ele>
        <time>2020-08-11T07:56:59.000Z</time>
      </trkpt>
      <trkpt lat="42.26516378112137317657470703125" lon="1.74511450342833995819091796875">
        <ele>1502</ele>
        <time>2020-08-11T07:57:03.000Z</time>
      </trkpt>
      <trkpt lat="42.2651591710746288299560546875" lon="1.74509556032717227935791015625">
        <ele>1502</ele>
        <time>2020-08-11T07:57:04.000Z</time>
      </trkpt>
      <trkpt lat="42.265125811100006103515625" lon="1.74501643516123294830322265625">
        <ele>1502.800048828125</ele>
        <time>2020-08-11T07:57:09.000Z</time>
      </trkpt>
      <trkpt lat="42.265114746987819671630859375" lon="1.74498357810080051422119140625">
        <ele>1503.199951171875</ele>
        <time>2020-08-11T07:57:11.000Z</time>
      </trkpt>
      <trkpt lat="42.2650854103267192840576171875" lon="1.74490478821098804473876953125">
        <ele>1504</ele>
        <time>2020-08-11T07:57:16.000Z</time>
      </trkpt>
      <trkpt lat="42.26507761515676975250244140625" lon="1.74488760530948638916015625">
        <ele>1504</ele>
        <time>2020-08-11T07:57:17.000Z</time>
      </trkpt>
      <trkpt lat="42.2650404833257198333740234375" lon="1.74478392116725444793701171875">
        <ele>1505</ele>
        <time>2020-08-11T07:57:23.000Z</time>
      </trkpt>
      <trkpt lat="42.2650310955941677093505859375" lon="1.74476933665573596954345703125">
        <ele>1505.199951171875</ele>
        <time>2020-08-11T07:57:24.000Z</time>
      </trkpt>
      <trkpt lat="42.26498491130769252777099609375" lon="1.7446799017488956451416015625">
        <ele>1506</ele>
        <time>2020-08-11T07:57:30.000Z</time>
      </trkpt>
      <trkpt lat="42.2649724222719669342041015625" lon="1.74464796669781208038330078125">
        <ele>1506.199951171875</ele>
        <time>2020-08-11T07:57:32.000Z</time>
      </trkpt>
      <trkpt lat="42.26493336260318756103515625" lon="1.74454553984105587005615234375">
        <ele>1507</ele>
        <time>2020-08-11T07:57:38.000Z</time>
      </trkpt>
      <trkpt lat="42.26491014473140239715576171875" lon="1.744494996964931488037109375">
        <ele>1507.4000244140625</ele>
        <time>2020-08-11T07:57:41.000Z</time>
      </trkpt>
      <trkpt lat="42.26487242616713047027587890625" lon="1.74441696144640445709228515625">
        <ele>1508.199951171875</ele>
        <time>2020-08-11T07:57:46.000Z</time>
      </trkpt>
      <trkpt lat="42.26485867984592914581298828125" lon="1.7443898878991603851318359375">
        <ele>1508.5999755859375</ele>
        <time>2020-08-11T07:57:48.000Z</time>
      </trkpt>
      <trkpt lat="42.26484174840152263641357421875" lon="1.74436616711318492889404296875">
        <ele>1508.800048828125</ele>
        <time>2020-08-11T07:57:50.000Z</time>
      </trkpt>
      <trkpt lat="42.26482649333775043487548828125" lon="1.74433582462370395660400390625">
        <ele>1509</ele>
        <time>2020-08-11T07:57:52.000Z</time>
      </trkpt>
      <trkpt lat="42.2648094780743122100830078125" lon="1.74430749379098415374755859375">
        <ele>1509.199951171875</ele>
        <time>2020-08-11T07:57:54.000Z</time>
      </trkpt>
      <trkpt lat="42.26476178504526615142822265625" lon="1.74422300420701503753662109375">
        <ele>1510.199951171875</ele>
        <time>2020-08-11T07:58:00.000Z</time>
      </trkpt>
      <trkpt lat="42.26473429240286350250244140625" lon="1.74418930895626544952392578125">
        <ele>1510.4000244140625</ele>
        <time>2020-08-11T07:58:03.000Z</time>
      </trkpt>
      <trkpt lat="42.26467712782323360443115234375" lon="1.7440889775753021240234375">
        <ele>1510.800048828125</ele>
        <time>2020-08-11T07:58:10.000Z</time>
      </trkpt>
      <trkpt lat="42.264670170843601226806640625" lon="1.74407699145376682281494140625">
        <ele>1511</ele>
        <time>2020-08-11T07:58:11.000Z</time>
      </trkpt>
      <trkpt lat="42.26465441286563873291015625" lon="1.74405553378164768218994140625">
        <ele>1511.199951171875</ele>
        <time>2020-08-11T07:58:13.000Z</time>
      </trkpt>
      <trkpt lat="42.26463035680353641510009765625" lon="1.7440177313983440399169921875">
        <ele>1511.5999755859375</ele>
        <time>2020-08-11T07:58:16.000Z</time>
      </trkpt>
      <trkpt lat="42.2645960748195648193359375" lon="1.743966601788997650146484375">
        <ele>1512.4000244140625</ele>
        <time>2020-08-11T07:58:20.000Z</time>
      </trkpt>
      <trkpt lat="42.26455894298851490020751953125" lon="1.74391421489417552947998046875">
        <ele>1512.800048828125</ele>
        <time>2020-08-11T07:58:24.000Z</time>
      </trkpt>
      <trkpt lat="42.26452407427132129669189453125" lon="1.7438690364360809326171875">
        <ele>1513.199951171875</ele>
        <time>2020-08-11T07:58:28.000Z</time>
      </trkpt>
      <trkpt lat="42.2644799016416072845458984375" lon="1.743813045322895050048828125">
        <ele>1513.800048828125</ele>
        <time>2020-08-11T07:58:33.000Z</time>
      </trkpt>
      <trkpt lat="42.26445366628468036651611328125" lon="1.74377976916730403900146484375">
        <ele>1514.199951171875</ele>
        <time>2020-08-11T07:58:36.000Z</time>
      </trkpt>
      <trkpt lat="42.26442198269069194793701171875" lon="1.74372076056897640228271484375">
        <ele>1514.5999755859375</ele>
        <time>2020-08-11T07:58:40.000Z</time>
      </trkpt>
      <trkpt lat="42.26438526995480060577392578125" lon="1.7436677031219005584716796875">
        <ele>1515.4000244140625</ele>
        <time>2020-08-11T07:58:44.000Z</time>
      </trkpt>
      <trkpt lat="42.26434771902859210968017578125" lon="1.74362604506313800811767578125">
        <ele>1515.5999755859375</ele>
        <time>2020-08-11T07:58:48.000Z</time>
      </trkpt>
      <trkpt lat="42.26431368850171566009521484375" lon="1.743563599884510040283203125">
        <ele>1516.199951171875</ele>
        <time>2020-08-11T07:58:53.000Z</time>
      </trkpt>
      <trkpt lat="42.2643062286078929901123046875" lon="1.743548177182674407958984375">
        <ele>1516.4000244140625</ele>
        <time>2020-08-11T07:58:54.000Z</time>
      </trkpt>
      <trkpt lat="42.2642830945551395416259765625" lon="1.74351003952324390411376953125">
        <ele>1516.5999755859375</ele>
        <time>2020-08-11T07:58:57.000Z</time>
      </trkpt>
      <trkpt lat="42.2642680071294307708740234375" lon="1.7434890009462833404541015625">
        <ele>1517</ele>
        <time>2020-08-11T07:58:59.000Z</time>
      </trkpt>
      <trkpt lat="42.26425920613110065460205078125" lon="1.74345505423843860626220703125">
        <ele>1517.4000244140625</ele>
        <time>2020-08-11T07:59:01.000Z</time>
      </trkpt>
      <trkpt lat="42.26425166241824626922607421875" lon="1.743422783911228179931640625">
        <ele>1517.800048828125</ele>
        <time>2020-08-11T07:59:03.000Z</time>
      </trkpt>
      <trkpt lat="42.26422115229070186614990234375" lon="1.74334089271724224090576171875">
        <ele>1518.4000244140625</ele>
        <time>2020-08-11T07:59:09.000Z</time>
      </trkpt>
      <trkpt lat="42.2642227448523044586181640625" lon="1.74330241978168487548828125">
        <ele>1518.800048828125</ele>
        <time>2020-08-11T07:59:11.000Z</time>
      </trkpt>
      <trkpt lat="42.26423976011574268341064453125" lon="1.74318012781441211700439453125">
        <ele>1519.5999755859375</ele>
        <time>2020-08-11T07:59:18.000Z</time>
      </trkpt>
      <trkpt lat="42.26427244953811168670654296875" lon="1.74308524467051029205322265625">
        <ele>1520.5999755859375</ele>
        <time>2020-08-11T07:59:24.000Z</time>
      </trkpt>
      <trkpt lat="42.264275215566158294677734375" lon="1.7430692352354526519775390625">
        <ele>1520.5999755859375</ele>
        <time>2020-08-11T07:59:25.000Z</time>
      </trkpt>
      <trkpt lat="42.26428317837417125701904296875" lon="1.74293990246951580047607421875">
        <ele>1521.199951171875</ele>
        <time>2020-08-11T07:59:33.000Z</time>
      </trkpt>
      <trkpt lat="42.26428317837417125701904296875" lon="1.74290402792394161224365234375">
        <ele>1521.4000244140625</ele>
        <time>2020-08-11T07:59:35.000Z</time>
      </trkpt>
      <trkpt lat="42.26427781395614147186279296875" lon="1.7427919618785381317138671875">
        <ele>1522.4000244140625</ele>
        <time>2020-08-11T07:59:42.000Z</time>
      </trkpt>
      <trkpt lat="42.264276556670665740966796875" lon="1.7427746951580047607421875">
        <ele>1522.4000244140625</ele>
        <time>2020-08-11T07:59:43.000Z</time>
      </trkpt>
      <trkpt lat="42.2642676718533039093017578125" lon="1.74265122972428798675537109375">
        <ele>1523.5999755859375</ele>
        <time>2020-08-11T07:59:50.000Z</time>
      </trkpt>
      <trkpt lat="42.26426188834011554718017578125" lon="1.742499768733978271484375">
        <ele>1524.4000244140625</ele>
        <time>2020-08-11T07:59:59.000Z</time>
      </trkpt>
      <trkpt lat="42.2642629779875278472900390625" lon="1.7424825020134449005126953125">
        <ele>1524.5999755859375</ele>
        <time>2020-08-11T08:00:00.000Z</time>
      </trkpt>
      <trkpt lat="42.26427312009036540985107421875" lon="1.74240061081945896148681640625">
        <ele>1525.4000244140625</ele>
        <time>2020-08-11T08:00:05.000Z</time>
      </trkpt>
      <trkpt lat="42.26427764631807804107666015625" lon="1.7423852719366550445556640625">
        <ele>1525.4000244140625</ele>
        <time>2020-08-11T08:00:06.000Z</time>
      </trkpt>
      <trkpt lat="42.26428032852709293365478515625" lon="1.74236909486353397369384765625">
        <ele>1525.5999755859375</ele>
        <time>2020-08-11T08:00:07.000Z</time>
      </trkpt>
      <trkpt lat="42.26429642178118228912353515625" lon="1.74228410236537456512451171875">
        <ele>1526.199951171875</ele>
        <time>2020-08-11T08:00:12.000Z</time>
      </trkpt>
      <trkpt lat="42.264299690723419189453125" lon="1.742267422378063201904296875">
        <ele>1526.4000244140625</ele>
        <time>2020-08-11T08:00:13.000Z</time>
      </trkpt>
      <trkpt lat="42.26430363021790981292724609375" lon="1.74225124530494213104248046875">
        <ele>1526.4000244140625</ele>
        <time>2020-08-11T08:00:14.000Z</time>
      </trkpt>
      <trkpt lat="42.26434193551540374755859375" lon="1.7421244271099567413330078125">
        <ele>1527.199951171875</ele>
        <time>2020-08-11T08:00:22.000Z</time>
      </trkpt>
      <trkpt lat="42.2643464617431163787841796875" lon="1.74209031276404857635498046875">
        <ele>1527.5999755859375</ele>
        <time>2020-08-11T08:00:24.000Z</time>
      </trkpt>
      <trkpt lat="42.264348305761814117431640625" lon="1.742075979709625244140625">
        <ele>1527.5999755859375</ele>
        <time>2020-08-11T08:00:25.000Z</time>
      </trkpt>
      <trkpt lat="42.26436230354011058807373046875" lon="1.7420325614511966705322265625">
        <ele>1527.800048828125</ele>
        <time>2020-08-11T08:00:28.000Z</time>
      </trkpt>
      <trkpt lat="42.2643796540796756744384765625" lon="1.74195385538041591644287109375">
        <ele>1528.4000244140625</ele>
        <time>2020-08-11T08:00:33.000Z</time>
      </trkpt>
      <trkpt lat="42.26438811980187892913818359375" lon="1.7419410310685634613037109375">
        <ele>1528.5999755859375</ele>
        <time>2020-08-11T08:00:34.000Z</time>
      </trkpt>
      <trkpt lat="42.26440622471272945404052734375" lon="1.74188462086021900177001953125">
        <ele>1529</ele>
        <time>2020-08-11T08:00:38.000Z</time>
      </trkpt>
      <trkpt lat="42.2644141875207424163818359375" lon="1.7418310604989528656005859375">
        <ele>1529.199951171875</ele>
        <time>2020-08-11T08:00:41.000Z</time>
      </trkpt>
      <trkpt lat="42.264419384300708770751953125" lon="1.741814129054546356201171875">
        <ele>1529.4000244140625</ele>
        <time>2020-08-11T08:00:42.000Z</time>
      </trkpt>
      <trkpt lat="42.26443958468735218048095703125" lon="1.74172662198543548583984375">
        <ele>1530.199951171875</ele>
        <time>2020-08-11T08:00:47.000Z</time>
      </trkpt>
      <trkpt lat="42.26444679312407970428466796875" lon="1.7417110316455364227294921875">
        <ele>1530.199951171875</ele>
        <time>2020-08-11T08:00:48.000Z</time>
      </trkpt>
      <trkpt lat="42.26445450447499752044677734375" lon="1.7416821978986263275146484375">
        <ele>1530.5999755859375</ele>
        <time>2020-08-11T08:00:50.000Z</time>
      </trkpt>
      <trkpt lat="42.2644698433578014373779296875" lon="1.741598881781101226806640625">
        <ele>1531.199951171875</ele>
        <time>2020-08-11T08:00:55.000Z</time>
      </trkpt>
      <trkpt lat="42.26448585279285907745361328125" lon="1.74155102111399173736572265625">
        <ele>1531.4000244140625</ele>
        <time>2020-08-11T08:00:58.000Z</time>
      </trkpt>
      <trkpt lat="42.264519967138767242431640625" lon="1.7414726503193378448486328125">
        <ele>1532</ele>
        <time>2020-08-11T08:01:03.000Z</time>
      </trkpt>
      <trkpt lat="42.26453840732574462890625" lon="1.74142680130898952484130859375">
        <ele>1532.4000244140625</ele>
        <time>2020-08-11T08:01:06.000Z</time>
      </trkpt>
      <trkpt lat="42.26457570679485797882080078125" lon="1.74134650267660617828369140625">
        <ele>1533.199951171875</ele>
        <time>2020-08-11T08:01:12.000Z</time>
      </trkpt>
      <trkpt lat="42.26458995603024959564208984375" lon="1.74132269807159900665283203125">
        <ele>1533.4000244140625</ele>
        <time>2020-08-11T08:01:14.000Z</time>
      </trkpt>
      <trkpt lat="42.26465097628533840179443359375" lon="1.7413107119500637054443359375">
        <ele>1534</ele>
        <time>2020-08-11T08:01:20.000Z</time>
      </trkpt>
      <trkpt lat="42.2646663151681423187255859375" lon="1.74131632782518863677978515625">
        <ele>1534</ele>
        <time>2020-08-11T08:01:23.000Z</time>
      </trkpt>
      <trkpt lat="42.26466690190136432647705078125" lon="1.74131691455841064453125">
        <ele>1533.800048828125</ele>
        <time>2020-08-11T08:03:29.000Z</time>
      </trkpt>
      <trkpt lat="42.264666818082332611083984375" lon="1.74131691455841064453125">
        <ele>1533.800048828125</ele>
        <time>2020-08-11T08:03:30.000Z</time>
      </trkpt>
      <trkpt lat="42.2647028602659702301025390625" lon="1.7413100413978099822998046875">
        <ele>1533.800048828125</ele>
        <time>2020-08-11T08:03:35.000Z</time>
      </trkpt>
      <trkpt lat="42.26480059325695037841796875" lon="1.7413103766739368438720703125">
        <ele>1534.800048828125</ele>
        <time>2020-08-11T08:03:42.000Z</time>
      </trkpt>
      <trkpt lat="42.2648497112095355987548828125" lon="1.7413375340402126312255859375">
        <ele>1535.199951171875</ele>
        <time>2020-08-11T08:03:46.000Z</time>
      </trkpt>
      <trkpt lat="42.2648614458739757537841796875" lon="1.7413418926298618316650390625">
        <ele>1535.4000244140625</ele>
        <time>2020-08-11T08:03:47.000Z</time>
      </trkpt>
      <trkpt lat="42.26491995155811309814453125" lon="1.7413718998432159423828125">
        <ele>1535.800048828125</ele>
        <time>2020-08-11T08:03:52.000Z</time>
      </trkpt>
      <trkpt lat="42.2649318538606166839599609375" lon="1.74137927591800689697265625">
        <ele>1536</ele>
        <time>2020-08-11T08:03:53.000Z</time>
      </trkpt>
      <trkpt lat="42.26500234566628932952880859375" lon="1.74142814241349697113037109375">
        <ele>1536.4000244140625</ele>
        <time>2020-08-11T08:03:59.000Z</time>
      </trkpt>
      <trkpt lat="42.2650240547955036163330078125" lon="1.74144566059112548828125">
        <ele>1536.800048828125</ele>
        <time>2020-08-11T08:04:01.000Z</time>
      </trkpt>
      <trkpt lat="42.26508314721286296844482421875" lon="1.74151062034070491790771484375">
        <ele>1538</ele>
        <time>2020-08-11T08:04:07.000Z</time>
      </trkpt>
      <trkpt lat="42.2650934569537639617919921875" lon="1.7415232770144939422607421875">
        <ele>1538.199951171875</ele>
        <time>2020-08-11T08:04:08.000Z</time>
      </trkpt>
      <trkpt lat="42.2651866637170314788818359375" lon="1.74163182266056537628173828125">
        <ele>1538.4000244140625</ele>
        <time>2020-08-11T08:04:17.000Z</time>
      </trkpt>
      <trkpt lat="42.265228070318698883056640625" lon="1.74166350625455379486083984375">
        <ele>1539</ele>
        <time>2020-08-11T08:04:21.000Z</time>
      </trkpt>
      <trkpt lat="42.265250869095325469970703125" lon="1.7416966147720813751220703125">
        <ele>1539.5999755859375</ele>
        <time>2020-08-11T08:04:24.000Z</time>
      </trkpt>
      <trkpt lat="42.26529143750667572021484375" lon="1.74175067804753780364990234375">
        <ele>1539.800048828125</ele>
        <time>2020-08-11T08:04:29.000Z</time>
      </trkpt>
      <trkpt lat="42.26531532593071460723876953125" lon="1.74178873188793659210205078125">
        <ele>1540.4000244140625</ele>
        <time>2020-08-11T08:04:32.000Z</time>
      </trkpt>
      <trkpt lat="42.265342064201831817626953125" lon="1.74181806854903697967529296875">
        <ele>1541</ele>
        <time>2020-08-11T08:04:35.000Z</time>
      </trkpt>
      <trkpt lat="42.2653781063854694366455078125" lon="1.7418619059026241302490234375">
        <ele>1541.4000244140625</ele>
        <time>2020-08-11T08:04:39.000Z</time>
      </trkpt>
      <trkpt lat="42.26542965508997440338134765625" lon="1.74193440936505794525146484375">
        <ele>1542</ele>
        <time>2020-08-11T08:04:45.000Z</time>
      </trkpt>
      <trkpt lat="42.26545413024723529815673828125" lon="1.74196877516806125640869140625">
        <ele>1542.199951171875</ele>
        <time>2020-08-11T08:04:48.000Z</time>
      </trkpt>
      <trkpt lat="42.26551364175975322723388671875" lon="1.7420516721904277801513671875">
        <ele>1543.199951171875</ele>
        <time>2020-08-11T08:04:55.000Z</time>
      </trkpt>
      <trkpt lat="42.26552269421517848968505859375" lon="1.7420640774071216583251953125">
        <ele>1543.199951171875</ele>
        <time>2020-08-11T08:04:56.000Z</time>
      </trkpt>
      <trkpt lat="42.26555353961884975433349609375" lon="1.74210037104785442352294921875">
        <ele>1543.800048828125</ele>
        <time>2020-08-11T08:04:59.000Z</time>
      </trkpt>
      <trkpt lat="42.26559075526893138885498046875" lon="1.74214764498174190521240234375">
        <ele>1544</ele>
        <time>2020-08-11T08:05:03.000Z</time>
      </trkpt>
      <trkpt lat="42.2656768374145030975341796875" lon="1.74223196692764759063720703125">
        <ele>1545.199951171875</ele>
        <time>2020-08-11T08:05:11.000Z</time>
      </trkpt>
      <trkpt lat="42.26569921709597110748291015625" lon="1.74225275404751300811767578125">
        <ele>1545.4000244140625</ele>
        <time>2020-08-11T08:05:13.000Z</time>
      </trkpt>
      <trkpt lat="42.2657623328268527984619140625" lon="1.74231042154133319854736328125">
        <ele>1546</ele>
        <time>2020-08-11T08:05:19.000Z</time>
      </trkpt>
      <trkpt lat="42.2657841257750988006591796875" lon="1.74233053810894489288330078125">
        <ele>1546.199951171875</ele>
        <time>2020-08-11T08:05:21.000Z</time>
      </trkpt>
      <trkpt lat="42.265852354466915130615234375" lon="1.74238376319408416748046875">
        <ele>1547</ele>
        <time>2020-08-11T08:05:27.000Z</time>
      </trkpt>
      <trkpt lat="42.2658647596836090087890625" lon="1.7423892952501773834228515625">
        <ele>1547.199951171875</ele>
        <time>2020-08-11T08:05:28.000Z</time>
      </trkpt>
      <trkpt lat="42.26595318876206874847412109375" lon="1.7423976771533489227294921875">
        <ele>1548</ele>
        <time>2020-08-11T08:05:35.000Z</time>
      </trkpt>
      <trkpt lat="42.26600364781916141510009765625" lon="1.742405556142330169677734375">
        <ele>1548.4000244140625</ele>
        <time>2020-08-11T08:05:39.000Z</time>
      </trkpt>
      <trkpt lat="42.266040109097957611083984375" lon="1.74241955392062664031982421875">
        <ele>1549</ele>
        <time>2020-08-11T08:05:42.000Z</time>
      </trkpt>
      <trkpt lat="42.26609836332499980926513671875" lon="1.74245618283748626708984375">
        <ele>1549.4000244140625</ele>
        <time>2020-08-11T08:05:47.000Z</time>
      </trkpt>
      <trkpt lat="42.26613272912800312042236328125" lon="1.7424788139760494232177734375">
        <ele>1550</ele>
        <time>2020-08-11T08:05:50.000Z</time>
      </trkpt>
      <trkpt lat="42.26616491563618183135986328125" lon="1.74251007847487926483154296875">
        <ele>1550.5999755859375</ele>
        <time>2020-08-11T08:05:53.000Z</time>
      </trkpt>
      <trkpt lat="42.26622643880546092987060546875" lon="1.7425787262618541717529296875">
        <ele>1551.199951171875</ele>
        <time>2020-08-11T08:05:59.000Z</time>
      </trkpt>
      <trkpt lat="42.26624890230596065521240234375" lon="1.74259674735367298126220703125">
        <ele>1551.4000244140625</ele>
        <time>2020-08-11T08:06:01.000Z</time>
      </trkpt>
      <trkpt lat="42.26631009019911289215087890625" lon="1.742667742073535919189453125">
        <ele>1552.199951171875</ele>
        <time>2020-08-11T08:06:07.000Z</time>
      </trkpt>
      <trkpt lat="42.266319729387760162353515625" lon="1.742678470909595489501953125">
        <ele>1552.4000244140625</ele>
        <time>2020-08-11T08:06:08.000Z</time>
      </trkpt>
      <trkpt lat="42.2663792409002780914306640625" lon="1.74278567545115947723388671875">
        <ele>1553.4000244140625</ele>
        <time>2020-08-11T08:06:15.000Z</time>
      </trkpt>
      <trkpt lat="42.266425676643848419189453125" lon="1.74289531074464321136474609375">
        <ele>1554</ele>
        <time>2020-08-11T08:06:22.000Z</time>
      </trkpt>
      <trkpt lat="42.26643347181379795074462890625" lon="1.74291123636066913604736328125">
        <ele>1554.4000244140625</ele>
        <time>2020-08-11T08:06:23.000Z</time>
      </trkpt>
      <trkpt lat="42.2664694301784038543701171875" lon="1.74300779588520526885986328125">
        <ele>1555</ele>
        <time>2020-08-11T08:06:29.000Z</time>
      </trkpt>
      <trkpt lat="42.2664808295667171478271484375" lon="1.743057668209075927734375">
        <ele>1555.4000244140625</ele>
        <time>2020-08-11T08:06:32.000Z</time>
      </trkpt>
      <trkpt lat="42.26652667857706546783447265625" lon="1.74317275173962116241455078125">
        <ele>1556.199951171875</ele>
        <time>2020-08-11T08:06:39.000Z</time>
      </trkpt>
      <trkpt lat="42.26654344238340854644775390625" lon="1.743200831115245819091796875">
        <ele>1556.4000244140625</ele>
        <time>2020-08-11T08:06:41.000Z</time>
      </trkpt>
      <trkpt lat="42.26659440435469150543212890625" lon="1.74327157437801361083984375">
        <ele>1557.4000244140625</ele>
        <time>2020-08-11T08:06:47.000Z</time>
      </trkpt>
      <trkpt lat="42.2666018642485141754150390625" lon="1.7432854883372783660888671875">
        <ele>1557.4000244140625</ele>
        <time>2020-08-11T08:06:48.000Z</time>
      </trkpt>
      <trkpt lat="42.266640923917293548583984375" lon="1.7433280684053897857666015625">
        <ele>1558</ele>
        <time>2020-08-11T08:06:52.000Z</time>
      </trkpt>
      <trkpt lat="42.266663722693920135498046875" lon="1.74333862960338592529296875">
        <ele>1558.199951171875</ele>
        <time>2020-08-11T08:06:54.000Z</time>
      </trkpt>
      <trkpt lat="42.2666860185563564300537109375" lon="1.743353717029094696044921875">
        <ele>1558.5999755859375</ele>
        <time>2020-08-11T08:06:56.000Z</time>
      </trkpt>
      <trkpt lat="42.26673052646219730377197265625" lon="1.7433807067573070526123046875">
        <ele>1559.199951171875</ele>
        <time>2020-08-11T08:07:00.000Z</time>
      </trkpt>
      <trkpt lat="42.26674251258373260498046875" lon="1.74338615499436855316162109375">
        <ele>1559.4000244140625</ele>
        <time>2020-08-11T08:07:01.000Z</time>
      </trkpt>
      <trkpt lat="42.266775034368038177490234375" lon="1.7434065230190753936767578125">
        <ele>1559.800048828125</ele>
        <time>2020-08-11T08:07:04.000Z</time>
      </trkpt>
      <trkpt lat="42.26679523475468158721923828125" lon="1.74341901205480098724365234375">
        <ele>1560</ele>
        <time>2020-08-11T08:07:06.000Z</time>
      </trkpt>
      <trkpt lat="42.26681836880743503570556640625" lon="1.74342311918735504150390625">
        <ele>1560.4000244140625</ele>
        <time>2020-08-11T08:07:08.000Z</time>
      </trkpt>
      <trkpt lat="42.26682809181511402130126953125" lon="1.74342923797667026519775390625">
        <ele>1560.5999755859375</ele>
        <time>2020-08-11T08:07:09.000Z</time>
      </trkpt>
      <trkpt lat="42.2668606974184513092041015625" lon="1.7434353567659854888916015625">
        <ele>1560.800048828125</ele>
        <time>2020-08-11T08:07:12.000Z</time>
      </trkpt>
      <trkpt lat="42.26689271628856658935546875" lon="1.7434403859078884124755859375">
        <ele>1561.199951171875</ele>
        <time>2020-08-11T08:07:15.000Z</time>
      </trkpt>
      <trkpt lat="42.266925238072872161865234375" lon="1.7434467561542987823486328125">
        <ele>1561.5999755859375</ele>
        <time>2020-08-11T08:07:18.000Z</time>
      </trkpt>
      <trkpt lat="42.26698684506118297576904296875" lon="1.74346963874995708465576171875">
        <ele>1562.199951171875</ele>
        <time>2020-08-11T08:07:23.000Z</time>
      </trkpt>
      <trkpt lat="42.2670202888548374176025390625" lon="1.7434869892895221710205078125">
        <ele>1562.5999755859375</ele>
        <time>2020-08-11T08:07:26.000Z</time>
      </trkpt>
      <trkpt lat="42.26709924638271331787109375" lon="1.7435550503432750701904296875">
        <ele>1563.800048828125</ele>
        <time>2020-08-11T08:07:33.000Z</time>
      </trkpt>
      <trkpt lat="42.2671064548194408416748046875" lon="1.74357139505445957183837890625">
        <ele>1563.800048828125</ele>
        <time>2020-08-11T08:07:34.000Z</time>
      </trkpt>
      <trkpt lat="42.2671748511493206024169921875" lon="1.74368170090019702911376953125">
        <ele>1564.800048828125</ele>
        <time>2020-08-11T08:07:42.000Z</time>
      </trkpt>
      <trkpt lat="42.2671939618885517120361328125" lon="1.74370500259101390838623046875">
        <ele>1565</ele>
        <time>2020-08-11T08:07:44.000Z</time>
      </trkpt>
      <trkpt lat="42.26724618114531040191650390625" lon="1.74376937560737133026123046875">
        <ele>1565.5999755859375</ele>
        <time>2020-08-11T08:07:50.000Z</time>
      </trkpt>
      <trkpt lat="42.26726478897035121917724609375" lon="1.7437900789082050323486328125">
        <ele>1566</ele>
        <time>2020-08-11T08:07:52.000Z</time>
      </trkpt>
      <trkpt lat="42.26735782809555530548095703125" lon="1.74386191181838512420654296875">
        <ele>1566.800048828125</ele>
        <time>2020-08-11T08:08:00.000Z</time>
      </trkpt>
      <trkpt lat="42.26738431490957736968994140625" lon="1.74387532286345958709716796875">
        <ele>1566.800048828125</ele>
        <time>2020-08-11T08:08:02.000Z</time>
      </trkpt>
      <trkpt lat="42.26748271845281124114990234375" lon="1.74397121183574199676513671875">
        <ele>1567.5999755859375</ele>
        <time>2020-08-11T08:08:11.000Z</time>
      </trkpt>
      <trkpt lat="42.26749378256499767303466796875" lon="1.74398059956729412078857421875">
        <ele>1567.800048828125</ele>
        <time>2020-08-11T08:08:12.000Z</time>
      </trkpt>
      <trkpt lat="42.26758447475731372833251953125" lon="1.74406995065510272979736328125">
        <ele>1568.199951171875</ele>
        <time>2020-08-11T08:08:20.000Z</time>
      </trkpt>
      <trkpt lat="42.26762152276933193206787109375" lon="1.74410398118197917938232421875">
        <ele>1568.5999755859375</ele>
        <time>2020-08-11T08:08:23.000Z</time>
      </trkpt>
      <trkpt lat="42.267706431448459625244140625" lon="1.74412677995860576629638671875">
        <ele>1569.4000244140625</ele>
        <time>2020-08-11T08:08:29.000Z</time>
      </trkpt>
      <trkpt lat="42.26774021051824092864990234375" lon="1.74409777857363224029541015625">
        <ele>1569.5999755859375</ele>
        <time>2020-08-11T08:08:32.000Z</time>
      </trkpt>
      <trkpt lat="42.2677498497068881988525390625" lon="1.7440609820187091827392578125">
        <ele>1569.5999755859375</ele>
        <time>2020-08-11T08:08:34.000Z</time>
      </trkpt>
      <trkpt lat="42.267749011516571044921875" lon="1.74404229037463665008544921875">
        <ele>1569.800048828125</ele>
        <time>2020-08-11T08:08:35.000Z</time>
      </trkpt>
      <trkpt lat="42.26773099042475223541259765625" lon="1.7439888976514339447021484375">
        <ele>1570.4000244140625</ele>
        <time>2020-08-11T08:08:38.000Z</time>
      </trkpt>
      <trkpt lat="42.267713807523250579833984375" lon="1.74394355155527591705322265625">
        <ele>1570.800048828125</ele>
        <time>2020-08-11T08:08:41.000Z</time>
      </trkpt>
      <trkpt lat="42.2676972113549709320068359375" lon="1.74392092041671276092529296875">
        <ele>1571.4000244140625</ele>
        <time>2020-08-11T08:08:44.000Z</time>
      </trkpt>
      <trkpt lat="42.267697714269161224365234375" lon="1.7439186573028564453125">
        <ele>1572.4000244140625</ele>
        <time>2020-08-11T08:11:58.000Z</time>
      </trkpt>
      <trkpt lat="42.26769779808819293975830078125" lon="1.74391857348382472991943359375">
        <ele>1572.4000244140625</ele>
        <time>2020-08-11T08:11:59.000Z</time>
      </trkpt>
      <trkpt lat="42.26769293658435344696044921875" lon="1.74391455017030239105224609375">
        <ele>1572.199951171875</ele>
        <time>2020-08-11T08:12:01.000Z</time>
      </trkpt>
      <trkpt lat="42.2676673717796802520751953125" lon="1.74389376305043697357177734375">
        <ele>1572.5999755859375</ele>
        <time>2020-08-11T08:12:04.000Z</time>
      </trkpt>
      <trkpt lat="42.26762051694095134735107421875" lon="1.743846572935581207275390625">
        <ele>1572.800048828125</ele>
        <time>2020-08-11T08:12:09.000Z</time>
      </trkpt>
      <trkpt lat="42.26760207675397396087646484375" lon="1.7438256181776523590087890625">
        <ele>1573</ele>
        <time>2020-08-11T08:12:11.000Z</time>
      </trkpt>
      <trkpt lat="42.26758229546248912811279296875" lon="1.74380910582840442657470703125">
        <ele>1573.199951171875</ele>
        <time>2020-08-11T08:12:13.000Z</time>
      </trkpt>
      <trkpt lat="42.2675610892474651336669921875" lon="1.7437947727739810943603515625">
        <ele>1573.4000244140625</ele>
        <time>2020-08-11T08:12:15.000Z</time>
      </trkpt>
      <trkpt lat="42.267542816698551177978515625" lon="1.743770800530910491943359375">
        <ele>1573.5999755859375</ele>
        <time>2020-08-11T08:12:17.000Z</time>
      </trkpt>
      <trkpt lat="42.26751029491424560546875" lon="1.7437166534364223480224609375">
        <ele>1574.4000244140625</ele>
        <time>2020-08-11T08:12:21.000Z</time>
      </trkpt>
      <trkpt lat="42.26748473010957241058349609375" lon="1.74367658793926239013671875">
        <ele>1574.5999755859375</ele>
        <time>2020-08-11T08:12:24.000Z</time>
      </trkpt>
      <trkpt lat="42.2674343548715114593505859375" lon="1.7435513623058795928955078125">
        <ele>1575</ele>
        <time>2020-08-11T08:12:32.000Z</time>
      </trkpt>
      <trkpt lat="42.2674082033336162567138671875" lon="1.7434859834611415863037109375">
        <ele>1575.199951171875</ele>
        <time>2020-08-11T08:12:36.000Z</time>
      </trkpt>
      <trkpt lat="42.267388589680194854736328125" lon="1.74341817386448383331298828125">
        <ele>1575.800048828125</ele>
        <time>2020-08-11T08:12:40.000Z</time>
      </trkpt>
      <trkpt lat="42.26737140677869319915771484375" lon="1.74334374256432056427001953125">
        <ele>1576.199951171875</ele>
        <time>2020-08-11T08:12:44.000Z</time>
      </trkpt>
      <trkpt lat="42.26736545562744140625" lon="1.7432683892548084259033203125">
        <ele>1576.4000244140625</ele>
        <time>2020-08-11T08:12:48.000Z</time>
      </trkpt>
      <trkpt lat="42.26732681505382061004638671875" lon="1.74316319637000560760498046875">
        <ele>1577.199951171875</ele>
        <time>2020-08-11T08:12:54.000Z</time>
      </trkpt>
      <trkpt lat="42.2673076204955577850341796875" lon="1.7431342788040637969970703125">
        <ele>1577.4000244140625</ele>
        <time>2020-08-11T08:12:56.000Z</time>
      </trkpt>
      <trkpt lat="42.267226316034793853759765625" lon="1.74304232932627201080322265625">
        <ele>1578.4000244140625</ele>
        <time>2020-08-11T08:13:03.000Z</time>
      </trkpt>
      <trkpt lat="42.267156578600406646728515625" lon="1.74296588636934757232666015625">
        <ele>1578.800048828125</ele>
        <time>2020-08-11T08:13:10.000Z</time>
      </trkpt>
      <trkpt lat="42.267102934420108795166015625" lon="1.74288575537502765655517578125">
        <ele>1579.4000244140625</ele>
        <time>2020-08-11T08:13:16.000Z</time>
      </trkpt>
      <trkpt lat="42.26709346286952495574951171875" lon="1.7428734339773654937744140625">
        <ele>1579.4000244140625</ele>
        <time>2020-08-11T08:13:17.000Z</time>
      </trkpt>
      <trkpt lat="42.2670422494411468505859375" lon="1.742787100374698638916015625">
        <ele>1580</ele>
        <time>2020-08-11T08:13:23.000Z</time>
      </trkpt>
      <trkpt lat="42.26700075902044773101806640625" lon="1.7427044548094272613525390625">
        <ele>1580.4000244140625</ele>
        <time>2020-08-11T08:13:28.000Z</time>
      </trkpt>
      <trkpt lat="42.2669884376227855682373046875" lon="1.74266966991126537322998046875">
        <ele>1580.5999755859375</ele>
        <time>2020-08-11T08:13:30.000Z</time>
      </trkpt>
      <trkpt lat="42.26694879122078418731689453125" lon="1.742504797875881195068359375">
        <ele>1581.5999755859375</ele>
        <time>2020-08-11T08:13:39.000Z</time>
      </trkpt>
      <trkpt lat="42.2669243998825550079345703125" lon="1.74240396358072757720947265625">
        <ele>1582.199951171875</ele>
        <time>2020-08-11T08:13:45.000Z</time>
      </trkpt>
      <trkpt lat="42.2669113241136074066162109375" lon="1.74235182814300060272216796875">
        <ele>1582.5999755859375</ele>
        <time>2020-08-11T08:13:48.000Z</time>
      </trkpt>
      <trkpt lat="42.26688802242279052734375" lon="1.7422578670084476470947265625">
        <ele>1583.4000244140625</ele>
        <time>2020-08-11T08:13:53.000Z</time>
      </trkpt>
      <trkpt lat="42.2668747790157794952392578125" lon="1.742223165929317474365234375">
        <ele>1583.5999755859375</ele>
        <time>2020-08-11T08:13:55.000Z</time>
      </trkpt>
      <trkpt lat="42.26684334687888622283935546875" lon="1.74210825003683567047119140625">
        <ele>1584</ele>
        <time>2020-08-11T08:14:01.000Z</time>
      </trkpt>
      <trkpt lat="42.266824655234813690185546875" lon="1.74202166497707366943359375">
        <ele>1584.800048828125</ele>
        <time>2020-08-11T08:14:06.000Z</time>
      </trkpt>
      <trkpt lat="42.26680479012429714202880859375" lon="1.7419500835239887237548828125">
        <ele>1585.199951171875</ele>
        <time>2020-08-11T08:14:10.000Z</time>
      </trkpt>
      <trkpt lat="42.266777046024799346923828125" lon="1.7418360896408557891845703125">
        <ele>1585.5999755859375</ele>
        <time>2020-08-11T08:14:16.000Z</time>
      </trkpt>
      <trkpt lat="42.26677176542580127716064453125" lon="1.74181773327291011810302734375">
        <ele>1585.5999755859375</ele>
        <time>2020-08-11T08:14:17.000Z</time>
      </trkpt>
      <trkpt lat="42.26676128804683685302734375" lon="1.74168907105922698974609375">
        <ele>1586.199951171875</ele>
        <time>2020-08-11T08:14:24.000Z</time>
      </trkpt>
      <trkpt lat="42.26674762554466724395751953125" lon="1.74163165502250194549560546875">
        <ele>1586.5999755859375</ele>
        <time>2020-08-11T08:14:27.000Z</time>
      </trkpt>
      <trkpt lat="42.2667259164154529571533203125" lon="1.74155722372233867645263671875">
        <ele>1587</ele>
        <time>2020-08-11T08:14:31.000Z</time>
      </trkpt>
      <trkpt lat="42.2666887007653713226318359375" lon="1.74142755568027496337890625">
        <ele>1587.199951171875</ele>
        <time>2020-08-11T08:14:38.000Z</time>
      </trkpt>
      <trkpt lat="42.2666752897202968597412109375" lon="1.741388998925685882568359375">
        <ele>1587.4000244140625</ele>
        <time>2020-08-11T08:14:40.000Z</time>
      </trkpt>
      <trkpt lat="42.2666323743760585784912109375" lon="1.74130710773169994354248046875">
        <ele>1588.199951171875</ele>
        <time>2020-08-11T08:14:45.000Z</time>
      </trkpt>
      <trkpt lat="42.26661502383649349212646484375" lon="1.741272993385791778564453125">
        <ele>1588.4000244140625</ele>
        <time>2020-08-11T08:14:47.000Z</time>
      </trkpt>
      <trkpt lat="42.2665599547326564788818359375" lon="1.74117140471935272216796875">
        <ele>1589.4000244140625</ele>
        <time>2020-08-11T08:14:53.000Z</time>
      </trkpt>
      <trkpt lat="42.266549728810787200927734375" lon="1.74115673638880252838134765625">
        <ele>1589.5999755859375</ele>
        <time>2020-08-11T08:14:54.000Z</time>
      </trkpt>
      <trkpt lat="42.266485691070556640625" lon="1.74105070531368255615234375">
        <ele>1590.4000244140625</ele>
        <time>2020-08-11T08:15:01.000Z</time>
      </trkpt>
      <trkpt lat="42.26646766997873783111572265625" lon="1.74101826734840869903564453125">
        <ele>1590.4000244140625</ele>
        <time>2020-08-11T08:15:03.000Z</time>
      </trkpt>
      <trkpt lat="42.26641721092164516448974609375" lon="1.7409177683293819427490234375">
        <ele>1591.4000244140625</ele>
        <time>2020-08-11T08:15:09.000Z</time>
      </trkpt>
      <trkpt lat="42.26639784872531890869140625" lon="1.7408855818212032318115234375">
        <ele>1591.5999755859375</ele>
        <time>2020-08-11T08:15:11.000Z</time>
      </trkpt>
      <trkpt lat="42.2663396783173084259033203125" lon="1.740768067538738250732421875">
        <ele>1592.4000244140625</ele>
        <time>2020-08-11T08:15:18.000Z</time>
      </trkpt>
      <trkpt lat="42.26632366888225078582763671875" lon="1.740734539926052093505859375">
        <ele>1592.5999755859375</ele>
        <time>2020-08-11T08:15:20.000Z</time>
      </trkpt>
      <trkpt lat="42.2662582062184810638427734375" lon="1.740585677325725555419921875">
        <ele>1593.4000244140625</ele>
        <time>2020-08-11T08:15:29.000Z</time>
      </trkpt>
      <trkpt lat="42.26625166833400726318359375" lon="1.740568242967128753662109375">
        <ele>1593.5999755859375</ele>
        <time>2020-08-11T08:15:30.000Z</time>
      </trkpt>
      <trkpt lat="42.2662263549864292144775390625" lon="1.7405026964843273162841796875">
        <ele>1594.5999755859375</ele>
        <time>2020-08-11T08:15:34.000Z</time>
      </trkpt>
      <trkpt lat="42.2661938332021236419677734375" lon="1.7404202185571193695068359375">
        <ele>1595.199951171875</ele>
        <time>2020-08-11T08:15:39.000Z</time>
      </trkpt>
      <trkpt lat="42.26617497391998767852783203125" lon="1.74037185497581958770751953125">
        <ele>1595.5999755859375</ele>
        <time>2020-08-11T08:15:42.000Z</time>
      </trkpt>
      <trkpt lat="42.26614932529628276824951171875" lon="1.74030865542590618133544921875">
        <ele>1596</ele>
        <time>2020-08-11T08:15:46.000Z</time>
      </trkpt>
      <trkpt lat="42.2661358304321765899658203125" lon="1.7402649857103824615478515625">
        <ele>1596.199951171875</ele>
        <time>2020-08-11T08:15:49.000Z</time>
      </trkpt>
      <trkpt lat="42.2661227546632289886474609375" lon="1.740232296288013458251953125">
        <ele>1596.5999755859375</ele>
        <time>2020-08-11T08:15:51.000Z</time>
      </trkpt>
      <trkpt lat="42.266109175980091094970703125" lon="1.74018166959285736083984375">
        <ele>1597</ele>
        <time>2020-08-11T08:15:54.000Z</time>
      </trkpt>
      <trkpt lat="42.26607740856707096099853515625" lon="1.74002769403159618377685546875">
        <ele>1597.800048828125</ele>
        <time>2020-08-11T08:16:03.000Z</time>
      </trkpt>
      <trkpt lat="42.2660556994378566741943359375" lon="1.739917807281017303466796875">
        <ele>1598.800048828125</ele>
        <time>2020-08-11T08:16:09.000Z</time>
      </trkpt>
      <trkpt lat="42.26605980657041072845458984375" lon="1.73989727161824703216552734375">
        <ele>1598.800048828125</ele>
        <time>2020-08-11T08:16:10.000Z</time>
      </trkpt>
      <trkpt lat="42.2660751454532146453857421875" lon="1.73976148478686809539794921875">
        <ele>1599.5999755859375</ele>
        <time>2020-08-11T08:16:17.000Z</time>
      </trkpt>
      <trkpt lat="42.2660764865577220916748046875" lon="1.73974136821925640106201171875">
        <ele>1599.5999755859375</ele>
        <time>2020-08-11T08:16:18.000Z</time>
      </trkpt>
      <trkpt lat="42.26608947850763797760009765625" lon="1.7396225966513156890869140625">
        <ele>1600.4000244140625</ele>
        <time>2020-08-11T08:16:24.000Z</time>
      </trkpt>
      <trkpt lat="42.26609752513468265533447265625" lon="1.73956098966300487518310546875">
        <ele>1600.5999755859375</ele>
        <time>2020-08-11T08:16:27.000Z</time>
      </trkpt>
      <trkpt lat="42.26612568832933902740478515625" lon="1.739423610270023345947265625">
        <ele>1601.199951171875</ele>
        <time>2020-08-11T08:16:34.000Z</time>
      </trkpt>
      <trkpt lat="42.26613306440412998199462890625" lon="1.7393832094967365264892578125">
        <ele>1601.5999755859375</ele>
        <time>2020-08-11T08:16:36.000Z</time>
      </trkpt>
      <trkpt lat="42.26615552790462970733642578125" lon="1.7392698861658573150634765625">
        <ele>1602.4000244140625</ele>
        <time>2020-08-11T08:16:42.000Z</time>
      </trkpt>
      <trkpt lat="42.2661619819700717926025390625" lon="1.73921196721494197845458984375">
        <ele>1602.800048828125</ele>
        <time>2020-08-11T08:16:45.000Z</time>
      </trkpt>
      <trkpt lat="42.266182601451873779296875" lon="1.7391032539308071136474609375">
        <ele>1603.199951171875</ele>
        <time>2020-08-11T08:16:51.000Z</time>
      </trkpt>
      <trkpt lat="42.26619961671531200408935546875" lon="1.73902966082096099853515625">
        <ele>1603.5999755859375</ele>
        <time>2020-08-11T08:16:55.000Z</time>
      </trkpt>
      <trkpt lat="42.2662189789116382598876953125" lon="1.7389386333525180816650390625">
        <ele>1604.199951171875</ele>
        <time>2020-08-11T08:17:00.000Z</time>
      </trkpt>
      <trkpt lat="42.266229875385761260986328125" lon="1.738862693309783935546875">
        <ele>1604.800048828125</ele>
        <time>2020-08-11T08:17:04.000Z</time>
      </trkpt>
      <trkpt lat="42.26625191979110240936279296875" lon="1.7387703247368335723876953125">
        <ele>1605.4000244140625</ele>
        <time>2020-08-11T08:17:09.000Z</time>
      </trkpt>
      <trkpt lat="42.26627874188125133514404296875" lon="1.73865943215787410736083984375">
        <ele>1605.5999755859375</ele>
        <time>2020-08-11T08:17:15.000Z</time>
      </trkpt>
      <trkpt lat="42.26628209464251995086669921875" lon="1.73863981850445270538330078125">
        <ele>1605.800048828125</ele>
        <time>2020-08-11T08:17:16.000Z</time>
      </trkpt>
      <trkpt lat="42.2663239203393459320068359375" lon="1.73847167752683162689208984375">
        <ele>1606.5999755859375</ele>
        <time>2020-08-11T08:17:25.000Z</time>
      </trkpt>
      <trkpt lat="42.2663400135934352874755859375" lon="1.73837411217391490936279296875">
        <ele>1607.4000244140625</ele>
        <time>2020-08-11T08:17:30.000Z</time>
      </trkpt>
      <trkpt lat="42.26635158061981201171875" lon="1.73833840526640415191650390625">
        <ele>1607.5999755859375</ele>
        <time>2020-08-11T08:17:32.000Z</time>
      </trkpt>
      <trkpt lat="42.266356609761714935302734375" lon="1.7383195459842681884765625">
        <ele>1607.800048828125</ele>
        <time>2020-08-11T08:17:33.000Z</time>
      </trkpt>
      <trkpt lat="42.26639114320278167724609375" lon="1.7381869442760944366455078125">
        <ele>1608.4000244140625</ele>
        <time>2020-08-11T08:17:40.000Z</time>
      </trkpt>
      <trkpt lat="42.266400195658206939697265625" lon="1.738140843808650970458984375">
        <ele>1608.800048828125</ele>
        <time>2020-08-11T08:17:42.000Z</time>
      </trkpt>
      <trkpt lat="42.26640379987657070159912109375" lon="1.73811896704137325286865234375">
        <ele>1608.800048828125</ele>
        <time>2020-08-11T08:17:43.000Z</time>
      </trkpt>
      <trkpt lat="42.2664127685129642486572265625" lon="1.73803397454321384429931640625">
        <ele>1609</ele>
        <time>2020-08-11T08:17:47.000Z</time>
      </trkpt>
      <trkpt lat="42.26644822396337985992431640625" lon="1.73788410611450672149658203125">
        <ele>1610</ele>
        <time>2020-08-11T08:17:55.000Z</time>
      </trkpt>
      <trkpt lat="42.26648041047155857086181640625" lon="1.7377388477325439453125">
        <ele>1611.199951171875</ele>
        <time>2020-08-11T08:18:03.000Z</time>
      </trkpt>
      <trkpt lat="42.26648233830928802490234375" lon="1.73771998845040798187255859375">
        <ele>1611</ele>
        <time>2020-08-11T08:18:04.000Z</time>
      </trkpt>
      <trkpt lat="42.26652366109192371368408203125" lon="1.7375792562961578369140625">
        <ele>1611.4000244140625</ele>
        <time>2020-08-11T08:18:12.000Z</time>
      </trkpt>
      <trkpt lat="42.2665509022772312164306640625" lon="1.7375113628804683685302734375">
        <ele>1612.199951171875</ele>
        <time>2020-08-11T08:18:16.000Z</time>
      </trkpt>
      <trkpt lat="42.26658828556537628173828125" lon="1.73741002567112445831298828125">
        <ele>1612.800048828125</ele>
        <time>2020-08-11T08:18:22.000Z</time>
      </trkpt>
      <trkpt lat="42.266615442931652069091796875" lon="1.737343557178974151611328125">
        <ele>1613.4000244140625</ele>
        <time>2020-08-11T08:18:27.000Z</time>
      </trkpt>
      <trkpt lat="42.2666203044354915618896484375" lon="1.7373386956751346588134765625">
        <ele>1613</ele>
        <time>2020-08-11T08:22:00.000Z</time>
      </trkpt>
      <trkpt lat="42.2666243277490139007568359375" lon="1.7373271286487579345703125">
        <ele>1613.4000244140625</ele>
        <time>2020-08-11T08:22:05.000Z</time>
      </trkpt>
      <trkpt lat="42.26663379929959774017333984375" lon="1.7373058386147022247314453125">
        <ele>1613.4000244140625</ele>
        <time>2020-08-11T08:22:07.000Z</time>
      </trkpt>
      <trkpt lat="42.2666400857269763946533203125" lon="1.7372974567115306854248046875">
        <ele>1613.4000244140625</ele>
        <time>2020-08-11T08:22:08.000Z</time>
      </trkpt>
      <trkpt lat="42.2666989266872406005859375" lon="1.7372133024036884307861328125">
        <ele>1614</ele>
        <time>2020-08-11T08:22:17.000Z</time>
      </trkpt>
      <trkpt lat="42.26672465912997722625732421875" lon="1.73718673177063465118408203125">
        <ele>1614.199951171875</ele>
        <time>2020-08-11T08:22:20.000Z</time>
      </trkpt>
      <trkpt lat="42.26678542792797088623046875" lon="1.7371455766260623931884765625">
        <ele>1615</ele>
        <time>2020-08-11T08:22:26.000Z</time>
      </trkpt>
      <trkpt lat="42.26686547510325908660888671875" lon="1.7371474206447601318359375">
        <ele>1615.4000244140625</ele>
        <time>2020-08-11T08:22:33.000Z</time>
      </trkpt>
      <trkpt lat="42.26688642986118793487548828125" lon="1.7371502704918384552001953125">
        <ele>1615.5999755859375</ele>
        <time>2020-08-11T08:22:35.000Z</time>
      </trkpt>
      <trkpt lat="42.2669746913015842437744140625" lon="1.73717868514358997344970703125">
        <ele>1616.4000244140625</ele>
        <time>2020-08-11T08:22:43.000Z</time>
      </trkpt>
      <trkpt lat="42.2669854201376438140869140625" lon="1.73718295991420745849609375">
        <ele>1616.5999755859375</ele>
        <time>2020-08-11T08:22:44.000Z</time>
      </trkpt>
      <trkpt lat="42.26707368157804012298583984375" lon="1.7372270487248897552490234375">
        <ele>1617</ele>
        <time>2020-08-11T08:22:52.000Z</time>
      </trkpt>
      <trkpt lat="42.26716370321810245513916015625" lon="1.73727893270552158355712890625">
        <ele>1617.5999755859375</ele>
        <time>2020-08-11T08:23:00.000Z</time>
      </trkpt>
      <trkpt lat="42.26726059801876544952392578125" lon="1.7373329959809780120849609375">
        <ele>1618.5999755859375</ele>
        <time>2020-08-11T08:23:08.000Z</time>
      </trkpt>
      <trkpt lat="42.2672727517783641815185546875" lon="1.73733945004642009735107421875">
        <ele>1618.5999755859375</ele>
        <time>2020-08-11T08:23:09.000Z</time>
      </trkpt>
      <trkpt lat="42.26738766767084598541259765625" lon="1.73740114085376262664794921875">
        <ele>1619.4000244140625</ele>
        <time>2020-08-11T08:23:18.000Z</time>
      </trkpt>
      <trkpt lat="42.267402000725269317626953125" lon="1.7374075949192047119140625">
        <ele>1619.5999755859375</ele>
        <time>2020-08-11T08:23:19.000Z</time>
      </trkpt>
      <trkpt lat="42.2674957104027271270751953125" lon="1.73743349500000476837158203125">
        <ele>1620</ele>
        <time>2020-08-11T08:23:26.000Z</time>
      </trkpt>
      <trkpt lat="42.26756385527551174163818359375" lon="1.73744137398898601531982421875">
        <ele>1620.5999755859375</ele>
        <time>2020-08-11T08:23:31.000Z</time>
      </trkpt>
      <trkpt lat="42.2675778530538082122802734375" lon="1.7374424636363983154296875">
        <ele>1620.5999755859375</ele>
        <time>2020-08-11T08:23:32.000Z</time>
      </trkpt>
      <trkpt lat="42.267686314880847930908203125" lon="1.73742427490651607513427734375">
        <ele>1621.4000244140625</ele>
        <time>2020-08-11T08:23:40.000Z</time>
      </trkpt>
      <trkpt lat="42.26771305315196514129638671875" lon="1.73742293380200862884521484375">
        <ele>1621.800048828125</ele>
        <time>2020-08-11T08:23:42.000Z</time>
      </trkpt>
      <trkpt lat="42.2677766717970371246337890625" lon="1.737424694001674652099609375">
        <ele>1622.199951171875</ele>
        <time>2020-08-11T08:23:47.000Z</time>
      </trkpt>
      <trkpt lat="42.267871387302875518798828125" lon="1.7374238558113574981689453125">
        <ele>1622.800048828125</ele>
        <time>2020-08-11T08:23:54.000Z</time>
      </trkpt>
      <trkpt lat="42.2679406218230724334716796875" lon="1.73743114806711673736572265625">
        <ele>1623.800048828125</ele>
        <time>2020-08-11T08:23:59.000Z</time>
      </trkpt>
      <trkpt lat="42.2679783403873443603515625" lon="1.73744606785476207733154296875">
        <ele>1624</ele>
        <time>2020-08-11T08:24:02.000Z</time>
      </trkpt>
      <trkpt lat="42.2680415399372577667236328125" lon="1.73745210282504558563232421875">
        <ele>1625</ele>
        <time>2020-08-11T08:24:07.000Z</time>
      </trkpt>
      <trkpt lat="42.268093340098857879638671875" lon="1.73746383748948574066162109375">
        <ele>1625.800048828125</ele>
        <time>2020-08-11T08:24:11.000Z</time>
      </trkpt>
      <trkpt lat="42.2681193239986896514892578125" lon="1.73746568150818347930908203125">
        <ele>1625.800048828125</ele>
        <time>2020-08-11T08:24:13.000Z</time>
      </trkpt>
      <trkpt lat="42.2681997902691364288330078125" lon="1.7374754883348941802978515625">
        <ele>1626.4000244140625</ele>
        <time>2020-08-11T08:24:19.000Z</time>
      </trkpt>
      <trkpt lat="42.26823926903307437896728515625" lon="1.7374838702380657196044921875">
        <ele>1626.800048828125</ele>
        <time>2020-08-11T08:24:22.000Z</time>
      </trkpt>
      <trkpt lat="42.26831085048615932464599609375" lon="1.7375137098133563995361328125">
        <ele>1627.800048828125</ele>
        <time>2020-08-11T08:24:28.000Z</time>
      </trkpt>
      <trkpt lat="42.2683355771005153656005859375" lon="1.737526617944240570068359375">
        <ele>1628</ele>
        <time>2020-08-11T08:24:30.000Z</time>
      </trkpt>
      <trkpt lat="42.26843825541436672210693359375" lon="1.7375658452510833740234375">
        <ele>1628.5999755859375</ele>
        <time>2020-08-11T08:24:38.000Z</time>
      </trkpt>
      <trkpt lat="42.26847932673990726470947265625" lon="1.73758068121969699859619140625">
        <ele>1629</ele>
        <time>2020-08-11T08:24:41.000Z</time>
      </trkpt>
      <trkpt lat="42.2685461305081844329833984375" lon="1.737591326236724853515625">
        <ele>1629.5999755859375</ele>
        <time>2020-08-11T08:24:46.000Z</time>
      </trkpt>
      <trkpt lat="42.26855929009616374969482421875" lon="1.73759023658931255340576171875">
        <ele>1629.800048828125</ele>
        <time>2020-08-11T08:24:47.000Z</time>
      </trkpt>
      <trkpt lat="42.268587537109851837158203125" lon="1.73758503980934619903564453125">
        <ele>1629.800048828125</ele>
        <time>2020-08-11T08:24:49.000Z</time>
      </trkpt>
      <trkpt lat="42.2686151973903179168701171875" lon="1.737593002617359161376953125">
        <ele>1630</ele>
        <time>2020-08-11T08:24:51.000Z</time>
      </trkpt>
      <trkpt lat="42.26868770085275173187255859375" lon="1.73760247416794300079345703125">
        <ele>1631</ele>
        <time>2020-08-11T08:24:56.000Z</time>
      </trkpt>
      <trkpt lat="42.26872994564473628997802734375" lon="1.7375968582928180694580078125">
        <ele>1631.4000244140625</ele>
        <time>2020-08-11T08:24:59.000Z</time>
      </trkpt>
      <trkpt lat="42.268788032233715057373046875" lon="1.73757724463939666748046875">
        <ele>1632.199951171875</ele>
        <time>2020-08-11T08:25:03.000Z</time>
      </trkpt>
      <trkpt lat="42.2688408382236957550048828125" lon="1.73752435483038425445556640625">
        <ele>1632.199951171875</ele>
        <time>2020-08-11T08:25:07.000Z</time>
      </trkpt>
      <trkpt lat="42.26888467557728290557861328125" lon="1.7374154739081859588623046875">
        <ele>1633</ele>
        <time>2020-08-11T08:25:13.000Z</time>
      </trkpt>
      <trkpt lat="42.26887377910315990447998046875" lon="1.73737867735326290130615234375">
        <ele>1633.4000244140625</ele>
        <time>2020-08-11T08:25:15.000Z</time>
      </trkpt>
      <trkpt lat="42.26883807219564914703369140625" lon="1.73731866292655467987060546875">
        <ele>1634.199951171875</ele>
        <time>2020-08-11T08:25:19.000Z</time>
      </trkpt>
      <trkpt lat="42.26883203722536563873291015625" lon="1.7373048327863216400146484375">
        <ele>1634.199951171875</ele>
        <time>2020-08-11T08:25:21.000Z</time>
      </trkpt>
      <trkpt lat="42.26883086375892162322998046875" lon="1.73730432987213134765625">
        <ele>1634.4000244140625</ele>
        <time>2020-08-11T08:25:32.000Z</time>
      </trkpt>
      <trkpt lat="42.2688312828540802001953125" lon="1.7373048327863216400146484375">
        <ele>1634.4000244140625</ele>
        <time>2020-08-11T08:25:43.000Z</time>
      </trkpt>
      <trkpt lat="42.26879146881401538848876953125" lon="1.73722327686846256256103515625">
        <ele>1634.800048828125</ele>
        <time>2020-08-11T08:35:01.000Z</time>
      </trkpt>
      <trkpt lat="42.2687868587672710418701171875" lon="1.73719293437898159027099609375">
        <ele>1635</ele>
        <time>2020-08-11T08:35:03.000Z</time>
      </trkpt>
      <trkpt lat="42.26876833476126194000244140625" lon="1.73707273788750171661376953125">
        <ele>1635.5999755859375</ele>
        <time>2020-08-11T08:35:10.000Z</time>
      </trkpt>
      <trkpt lat="42.268767915666103363037109375" lon="1.737053878605365753173828125">
        <ele>1635.800048828125</ele>
        <time>2020-08-11T08:35:11.000Z</time>
      </trkpt>
      <trkpt lat="42.268749140202999114990234375" lon="1.73690744675695896148681640625">
        <ele>1636.199951171875</ele>
        <time>2020-08-11T08:35:19.000Z</time>
      </trkpt>
      <trkpt lat="42.26873715408146381378173828125" lon="1.73685438930988311767578125">
        <ele>1636.800048828125</ele>
        <time>2020-08-11T08:35:22.000Z</time>
      </trkpt>
      <trkpt lat="42.2687164507806301116943359375" lon="1.736768893897533416748046875">
        <ele>1637.800048828125</ele>
        <time>2020-08-11T08:35:27.000Z</time>
      </trkpt>
      <trkpt lat="42.2686730325222015380859375" lon="1.736587174236774444580078125">
        <ele>1639</ele>
        <time>2020-08-11T08:35:37.000Z</time>
      </trkpt>
      <trkpt lat="42.268660962581634521484375" lon="1.7364398203790187835693359375">
        <ele>1639.5999755859375</ele>
        <time>2020-08-11T08:35:45.000Z</time>
      </trkpt>
      <trkpt lat="42.2686581127345561981201171875" lon="1.73638374544680118560791015625">
        <ele>1640</ele>
        <time>2020-08-11T08:35:48.000Z</time>
      </trkpt>
      <trkpt lat="42.26865551434457302093505859375" lon="1.7362627945840358734130859375">
        <ele>1640.800048828125</ele>
        <time>2020-08-11T08:35:54.000Z</time>
      </trkpt>
      <trkpt lat="42.26865065284073352813720703125" lon="1.73624175600707530975341796875">
        <ele>1640.800048828125</ele>
        <time>2020-08-11T08:35:55.000Z</time>
      </trkpt>
      <trkpt lat="42.268598936498165130615234375" lon="1.73614419065415859222412109375">
        <ele>1641.199951171875</ele>
        <time>2020-08-11T08:36:01.000Z</time>
      </trkpt>
      <trkpt lat="42.26856398396193981170654296875" lon="1.73605936579406261444091796875">
        <ele>1642</ele>
        <time>2020-08-11T08:36:06.000Z</time>
      </trkpt>
      <trkpt lat="42.26853950880467891693115234375" lon="1.73597504384815692901611328125">
        <ele>1642.5999755859375</ele>
        <time>2020-08-11T08:36:10.000Z</time>
      </trkpt>
      <trkpt lat="42.26849759928882122039794921875" lon="1.7359162867069244384765625">
        <ele>1643.199951171875</ele>
        <time>2020-08-11T08:36:14.000Z</time>
      </trkpt>
      <trkpt lat="42.26846138946712017059326171875" lon="1.735864989459514617919921875">
        <ele>1643.5999755859375</ele>
        <time>2020-08-11T08:36:18.000Z</time>
      </trkpt>
      <trkpt lat="42.26840757764875888824462890625" lon="1.7358038015663623809814453125">
        <ele>1644.199951171875</ele>
        <time>2020-08-11T08:36:24.000Z</time>
      </trkpt>
      <trkpt lat="42.26839517243206501007080078125" lon="1.73577756620943546295166015625">
        <ele>1644.4000244140625</ele>
        <time>2020-08-11T08:36:26.000Z</time>
      </trkpt>
      <trkpt lat="42.2683597169816493988037109375" lon="1.7356775701045989990234375">
        <ele>1645.4000244140625</ele>
        <time>2020-08-11T08:36:33.000Z</time>
      </trkpt>
      <trkpt lat="42.26835644803941249847412109375" lon="1.73566038720309734344482421875">
        <ele>1645.5999755859375</ele>
        <time>2020-08-11T08:36:34.000Z</time>
      </trkpt>
      <trkpt lat="42.26834923960268497467041015625" lon="1.73552133142948150634765625">
        <ele>1646</ele>
        <time>2020-08-11T08:36:42.000Z</time>
      </trkpt>
      <trkpt lat="42.26834270171821117401123046875" lon="1.73548487015068531036376953125">
        <ele>1646.4000244140625</ele>
        <time>2020-08-11T08:36:44.000Z</time>
      </trkpt>
      <trkpt lat="42.2683402709662914276123046875" lon="1.73536039888858795166015625">
        <ele>1647.5999755859375</ele>
        <time>2020-08-11T08:36:51.000Z</time>
      </trkpt>
      <trkpt lat="42.2683399356901645660400390625" lon="1.735342629253864288330078125">
        <ele>1647.5999755859375</ele>
        <time>2020-08-11T08:36:52.000Z</time>
      </trkpt>
      <trkpt lat="42.26833633147180080413818359375" lon="1.73525621183216571807861328125">
        <ele>1648.4000244140625</ele>
        <time>2020-08-11T08:36:57.000Z</time>
      </trkpt>
      <trkpt lat="42.2683369182050228118896484375" lon="1.73523693345487117767333984375">
        <ele>1648.5999755859375</ele>
        <time>2020-08-11T08:36:58.000Z</time>
      </trkpt>
      <trkpt lat="42.26833616383373737335205078125" lon="1.73519837670028209686279296875">
        <ele>1648.800048828125</ele>
        <time>2020-08-11T08:37:00.000Z</time>
      </trkpt>
      <trkpt lat="42.26834890432655811309814453125" lon="1.735064685344696044921875">
        <ele>1649.5999755859375</ele>
        <time>2020-08-11T08:37:07.000Z</time>
      </trkpt>
      <trkpt lat="42.26836969144642353057861328125" lon="1.7349587380886077880859375">
        <ele>1650.5999755859375</ele>
        <time>2020-08-11T08:37:12.000Z</time>
      </trkpt>
      <trkpt lat="42.268387712538242340087890625" lon="1.73490165732800960540771484375">
        <ele>1651</ele>
        <time>2020-08-11T08:37:15.000Z</time>
      </trkpt>
      <trkpt lat="42.26844898425042629241943359375" lon="1.7347382940351963043212890625">
        <ele>1651.5999755859375</ele>
        <time>2020-08-11T08:37:24.000Z</time>
      </trkpt>
      <trkpt lat="42.268457114696502685546875" lon="1.7347208596765995025634765625">
        <ele>1652</ele>
        <time>2020-08-11T08:37:25.000Z</time>
      </trkpt>
      <trkpt lat="42.26848938502371311187744140625" lon="1.7346279881894588470458984375">
        <ele>1652.800048828125</ele>
        <time>2020-08-11T08:37:30.000Z</time>
      </trkpt>
      <trkpt lat="42.26849575527012348175048828125" lon="1.73461047001183032989501953125">
        <ele>1653</ele>
        <time>2020-08-11T08:37:31.000Z</time>
      </trkpt>
      <trkpt lat="42.26851503364741802215576171875" lon="1.734517179429531097412109375">
        <ele>1653.800048828125</ele>
        <time>2020-08-11T08:37:36.000Z</time>
      </trkpt>
      <trkpt lat="42.268515117466449737548828125" lon="1.73447686247527599334716796875">
        <ele>1654</ele>
        <time>2020-08-11T08:37:38.000Z</time>
      </trkpt>
      <trkpt lat="42.268495000898838043212890625" lon="1.73432246781885623931884765625">
        <ele>1654.5999755859375</ele>
        <time>2020-08-11T08:37:46.000Z</time>
      </trkpt>
      <trkpt lat="42.26847312413156032562255859375" lon="1.73418818973004817962646484375">
        <ele>1655.5999755859375</ele>
        <time>2020-08-11T08:37:53.000Z</time>
      </trkpt>
      <trkpt lat="42.26847027428448200225830078125" lon="1.73416874371469020843505859375">
        <ele>1655.800048828125</ele>
        <time>2020-08-11T08:37:54.000Z</time>
      </trkpt>
      <trkpt lat="42.26846155710518360137939453125" lon="1.73407838679850101470947265625">
        <ele>1656.800048828125</ele>
        <time>2020-08-11T08:37:59.000Z</time>
      </trkpt>
      <trkpt lat="42.2684602998197078704833984375" lon="1.7340238206088542938232421875">
        <ele>1657</ele>
        <time>2020-08-11T08:38:02.000Z</time>
      </trkpt>
      <trkpt lat="42.26846222765743732452392578125" lon="1.73397378064692020416259765625">
        <ele>1657.800048828125</ele>
        <time>2020-08-11T08:38:05.000Z</time>
      </trkpt>
      <trkpt lat="42.26848904974758625030517578125" lon="1.73387537710368633270263671875">
        <ele>1658.4000244140625</ele>
        <time>2020-08-11T08:38:11.000Z</time>
      </trkpt>
      <trkpt lat="42.2684975154697895050048828125" lon="1.7338427715003490447998046875">
        <ele>1658.800048828125</ele>
        <time>2020-08-11T08:38:13.000Z</time>
      </trkpt>
      <trkpt lat="42.26852593012154102325439453125" lon="1.73376155085861682891845703125">
        <ele>1660</ele>
        <time>2020-08-11T08:38:18.000Z</time>
      </trkpt>
      <trkpt lat="42.26853515021502971649169921875" lon="1.73372986726462841033935546875">
        <ele>1660.800048828125</ele>
        <time>2020-08-11T08:38:20.000Z</time>
      </trkpt>
      <trkpt lat="42.2685447894036769866943359375" lon="1.73369684256613254547119140625">
        <ele>1661</ele>
        <time>2020-08-11T08:38:22.000Z</time>
      </trkpt>
      <trkpt lat="42.26856633089482784271240234375" lon="1.73358284868299961090087890625">
        <ele>1661</ele>
        <time>2020-08-11T08:38:28.000Z</time>
      </trkpt>
      <trkpt lat="42.26857722736895084381103515625" lon="1.7334665916860103607177734375">
        <ele>1661.800048828125</ele>
        <time>2020-08-11T08:38:34.000Z</time>
      </trkpt>
      <trkpt lat="42.26858108304440975189208984375" lon="1.73341202549636363983154296875">
        <ele>1662.4000244140625</ele>
        <time>2020-08-11T08:38:37.000Z</time>
      </trkpt>
      <trkpt lat="42.26858041249215602874755859375" lon="1.733371876180171966552734375">
        <ele>1662.800048828125</ele>
        <time>2020-08-11T08:38:39.000Z</time>
      </trkpt>
      <trkpt lat="42.26857588626444339752197265625" lon="1.7332614026963710784912109375">
        <ele>1663.800048828125</ele>
        <time>2020-08-11T08:38:45.000Z</time>
      </trkpt>
      <trkpt lat="42.2685685940086841583251953125" lon="1.7332258634269237518310546875">
        <ele>1663.800048828125</ele>
        <time>2020-08-11T08:38:47.000Z</time>
      </trkpt>
      <trkpt lat="42.2685578651726245880126953125" lon="1.7331279627978801727294921875">
        <ele>1665</ele>
        <time>2020-08-11T08:38:52.000Z</time>
      </trkpt>
      <trkpt lat="42.26854604668915271759033203125" lon="1.73300215043127536773681640625">
        <ele>1665.800048828125</ele>
        <time>2020-08-11T08:38:59.000Z</time>
      </trkpt>
      <trkpt lat="42.2685183025896549224853515625" lon="1.73290475271642208099365234375">
        <ele>1667</ele>
        <time>2020-08-11T08:39:05.000Z</time>
      </trkpt>
      <trkpt lat="42.26851008832454681396484375" lon="1.73287340439856052398681640625">
        <ele>1667.199951171875</ele>
        <time>2020-08-11T08:39:07.000Z</time>
      </trkpt>
      <trkpt lat="42.26848720572888851165771484375" lon="1.732746250927448272705078125">
        <ele>1668</ele>
        <time>2020-08-11T08:39:14.000Z</time>
      </trkpt>
      <trkpt lat="42.26847966201603412628173828125" lon="1.7327128909528255462646484375">
        <ele>1668.4000244140625</ele>
        <time>2020-08-11T08:39:16.000Z</time>
      </trkpt>
      <trkpt lat="42.26844144053757190704345703125" lon="1.73259730450809001922607421875">
        <ele>1669</ele>
        <time>2020-08-11T08:39:23.000Z</time>
      </trkpt>
      <trkpt lat="42.268435321748256683349609375" lon="1.73258020542562007904052734375">
        <ele>1669.4000244140625</ele>
        <time>2020-08-11T08:39:24.000Z</time>
      </trkpt>
      <trkpt lat="42.26837991736829280853271484375" lon="1.73246763646602630615234375">
        <ele>1670.199951171875</ele>
        <time>2020-08-11T08:39:31.000Z</time>
      </trkpt>
      <trkpt lat="42.26836969144642353057861328125" lon="1.73245095647871494293212890625">
        <ele>1670.199951171875</ele>
        <time>2020-08-11T08:39:32.000Z</time>
      </trkpt>
      <trkpt lat="42.26830682717263698577880859375" lon="1.732343919575214385986328125">
        <ele>1671.199951171875</ele>
        <time>2020-08-11T08:39:39.000Z</time>
      </trkpt>
      <trkpt lat="42.2682876326143741607666015625" lon="1.7323139123618602752685546875">
        <ele>1671.4000244140625</ele>
        <time>2020-08-11T08:39:41.000Z</time>
      </trkpt>
      <trkpt lat="42.26823591627180576324462890625" lon="1.7321982420980930328369140625">
        <ele>1671.800048828125</ele>
        <time>2020-08-11T08:39:48.000Z</time>
      </trkpt>
      <trkpt lat="42.2682251036167144775390625" lon="1.73216261900961399078369140625">
        <ele>1672.199951171875</ele>
        <time>2020-08-11T08:39:50.000Z</time>
      </trkpt>
      <trkpt lat="42.26820372976362705230712890625" lon="1.73207410611212253570556640625">
        <ele>1673.4000244140625</ele>
        <time>2020-08-11T08:39:55.000Z</time>
      </trkpt>
      <trkpt lat="42.268199622631072998046875" lon="1.73205700702965259552001953125">
        <ele>1673.5999755859375</ele>
        <time>2020-08-11T08:39:56.000Z</time>
      </trkpt>
      <trkpt lat="42.26815192960202693939208984375" lon="1.73188400454819202423095703125">
        <ele>1674.199951171875</ele>
        <time>2020-08-11T08:40:06.000Z</time>
      </trkpt>
      <trkpt lat="42.26815008558332920074462890625" lon="1.73186573199927806854248046875">
        <ele>1674.5999755859375</ele>
        <time>2020-08-11T08:40:07.000Z</time>
      </trkpt>
      <trkpt lat="42.268119156360626220703125" lon="1.731733381748199462890625">
        <ele>1675.199951171875</ele>
        <time>2020-08-11T08:40:14.000Z</time>
      </trkpt>
      <trkpt lat="42.2681142948567867279052734375" lon="1.73171385191380977630615234375">
        <ele>1675.4000244140625</ele>
        <time>2020-08-11T08:40:15.000Z</time>
      </trkpt>
      <trkpt lat="42.26808856241405010223388671875" lon="1.731559373438358306884765625">
        <ele>1676.4000244140625</ele>
        <time>2020-08-11T08:40:23.000Z</time>
      </trkpt>
      <trkpt lat="42.26804598234593868255615234375" lon="1.73141126520931720733642578125">
        <ele>1677.5999755859375</ele>
        <time>2020-08-11T08:40:32.000Z</time>
      </trkpt>
      <trkpt lat="42.268039025366306304931640625" lon="1.7312581278383731842041015625">
        <ele>1678.5999755859375</ele>
        <time>2020-08-11T08:40:41.000Z</time>
      </trkpt>
      <trkpt lat="42.26804899983108043670654296875" lon="1.73112343065440654754638671875">
        <ele>1679.5999755859375</ele>
        <time>2020-08-11T08:40:49.000Z</time>
      </trkpt>
      <trkpt lat="42.26805235259234905242919921875" lon="1.731106080114841461181640625">
        <ele>1679.800048828125</ele>
        <time>2020-08-11T08:40:50.000Z</time>
      </trkpt>
      <trkpt lat="42.26807716302573680877685546875" lon="1.73097272403538227081298828125">
        <ele>1680.800048828125</ele>
        <time>2020-08-11T08:40:58.000Z</time>
      </trkpt>
      <trkpt lat="42.26811178028583526611328125" lon="1.73083878122270107269287109375">
        <ele>1681.800048828125</ele>
        <time>2020-08-11T08:41:06.000Z</time>
      </trkpt>
      <trkpt lat="42.268124520778656005859375" lon="1.73075211234390735626220703125">
        <ele>1683</ele>
        <time>2020-08-11T08:41:11.000Z</time>
      </trkpt>
      <trkpt lat="42.26813214831054210662841796875" lon="1.73063099384307861328125">
        <ele>1683.800048828125</ele>
        <time>2020-08-11T08:41:18.000Z</time>
      </trkpt>
      <trkpt lat="42.2681330703198909759521484375" lon="1.73061381094157695770263671875">
        <ele>1684</ele>
        <time>2020-08-11T08:41:19.000Z</time>
      </trkpt>
      <trkpt lat="42.26814388297498226165771484375" lon="1.7304856516420841217041015625">
        <ele>1685.199951171875</ele>
        <time>2020-08-11T08:41:26.000Z</time>
      </trkpt>
      <trkpt lat="42.26814455352723598480224609375" lon="1.7304668761789798736572265625">
        <ele>1685.4000244140625</ele>
        <time>2020-08-11T08:41:27.000Z</time>
      </trkpt>
      <trkpt lat="42.26815712638199329376220703125" lon="1.7303170077502727508544921875">
        <ele>1686.199951171875</ele>
        <time>2020-08-11T08:41:35.000Z</time>
      </trkpt>
      <trkpt lat="42.2681602276861667633056640625" lon="1.730299405753612518310546875">
        <ele>1686.4000244140625</ele>
        <time>2020-08-11T08:41:36.000Z</time>
      </trkpt>
      <trkpt lat="42.26822309195995330810546875" lon="1.7301238887012004852294921875">
        <ele>1686.800048828125</ele>
        <time>2020-08-11T08:41:46.000Z</time>
      </trkpt>
      <trkpt lat="42.26825133897364139556884765625" lon="1.73004694283008575439453125">
        <ele>1687.199951171875</ele>
        <time>2020-08-11T08:41:50.000Z</time>
      </trkpt>
      <trkpt lat="42.2682849504053592681884765625" lon="1.7299539037048816680908203125">
        <ele>1688</ele>
        <time>2020-08-11T08:41:55.000Z</time>
      </trkpt>
      <trkpt lat="42.2683002054691314697265625" lon="1.72991626895964145660400390625">
        <ele>1688.199951171875</ele>
        <time>2020-08-11T08:41:57.000Z</time>
      </trkpt>
      <trkpt lat="42.268330715596675872802734375" lon="1.72979774884879589080810546875">
        <ele>1688.800048828125</ele>
        <time>2020-08-11T08:42:03.000Z</time>
      </trkpt>
      <trkpt lat="42.26836332120001316070556640625" lon="1.72970470972359180450439453125">
        <ele>1689.199951171875</ele>
        <time>2020-08-11T08:42:08.000Z</time>
      </trkpt>
      <trkpt lat="42.2683895565569400787353515625" lon="1.72958887182176113128662109375">
        <ele>1690</ele>
        <time>2020-08-11T08:42:14.000Z</time>
      </trkpt>
      <trkpt lat="42.2683939151465892791748046875" lon="1.72956942580640316009521484375">
        <ele>1690.199951171875</ele>
        <time>2020-08-11T08:42:15.000Z</time>
      </trkpt>
      <trkpt lat="42.268443368375301361083984375" lon="1.729402877390384674072265625">
        <ele>1690.800048828125</ele>
        <time>2020-08-11T08:42:23.000Z</time>
      </trkpt>
      <trkpt lat="42.26844764314591884613037109375" lon="1.7293846048414707183837890625">
        <ele>1691.199951171875</ele>
        <time>2020-08-11T08:42:25.000Z</time>
      </trkpt>
      <trkpt lat="42.26848435588181018829345703125" lon="1.7292628996074199676513671875">
        <ele>1692.199951171875</ele>
        <time>2020-08-11T08:42:32.000Z</time>
      </trkpt>
      <trkpt lat="42.26849005557596683502197265625" lon="1.729245968163013458251953125">
        <ele>1692.4000244140625</ele>
        <time>2020-08-11T08:42:33.000Z</time>
      </trkpt>
      <trkpt lat="42.26852274499833583831787109375" lon="1.72914094291627407073974609375">
        <ele>1693</ele>
        <time>2020-08-11T08:42:39.000Z</time>
      </trkpt>
      <trkpt lat="42.2685360722243785858154296875" lon="1.72910758294165134429931640625">
        <ele>1693.4000244140625</ele>
        <time>2020-08-11T08:42:41.000Z</time>
      </trkpt>
      <trkpt lat="42.268566749989986419677734375" lon="1.729064248502254486083984375">
        <ele>1694.199951171875</ele>
        <time>2020-08-11T08:42:44.000Z</time>
      </trkpt>
      <trkpt lat="42.26859935559332370758056640625" lon="1.728997863829135894775390625">
        <ele>1694.4000244140625</ele>
        <time>2020-08-11T08:42:48.000Z</time>
      </trkpt>
      <trkpt lat="42.2686420194804668426513671875" lon="1.728895939886569976806640625">
        <ele>1695.5999755859375</ele>
        <time>2020-08-11T08:42:54.000Z</time>
      </trkpt>
      <trkpt lat="42.2686783969402313232421875" lon="1.7287978716194629669189453125">
        <ele>1696</ele>
        <time>2020-08-11T08:42:59.000Z</time>
      </trkpt>
      <trkpt lat="42.26868166588246822357177734375" lon="1.72877951525151729583740234375">
        <ele>1696.800048828125</ele>
        <time>2020-08-11T08:43:01.000Z</time>
      </trkpt>
      <trkpt lat="42.268724329769611358642578125" lon="1.72863635234534740447998046875">
        <ele>1697.4000244140625</ele>
        <time>2020-08-11T08:43:09.000Z</time>
      </trkpt>
      <trkpt lat="42.26872810162603855133056640625" lon="1.728617660701274871826171875">
        <ele>1697.5999755859375</ele>
        <time>2020-08-11T08:43:10.000Z</time>
      </trkpt>
      <trkpt lat="42.26876682601869106292724609375" lon="1.7284677922725677490234375">
        <ele>1698.800048828125</ele>
        <time>2020-08-11T08:43:18.000Z</time>
      </trkpt>
      <trkpt lat="42.268776632845401763916015625" lon="1.728429906070232391357421875">
        <ele>1699.4000244140625</ele>
        <time>2020-08-11T08:43:20.000Z</time>
      </trkpt>
      <trkpt lat="42.2687915526330471038818359375" lon="1.72835689969360828399658203125">
        <ele>1700</ele>
        <time>2020-08-11T08:43:24.000Z</time>
      </trkpt>
      <trkpt lat="42.26881560869514942169189453125" lon="1.72824089415371417999267578125">
        <ele>1700.800048828125</ele>
        <time>2020-08-11T08:43:29.000Z</time>
      </trkpt>
      <trkpt lat="42.2688203863799571990966796875" lon="1.72822312451899051666259765625">
        <ele>1701.199951171875</ele>
        <time>2020-08-11T08:43:31.000Z</time>
      </trkpt>
      <trkpt lat="42.26885466836392879486083984375" lon="1.72811147756874561309814453125">
        <ele>1701.800048828125</ele>
        <time>2020-08-11T08:43:38.000Z</time>
      </trkpt>
      <trkpt lat="42.26887864060699939727783203125" lon="1.728045679628849029541015625">
        <ele>1702</ele>
        <time>2020-08-11T08:43:41.000Z</time>
      </trkpt>
      <trkpt lat="42.26890697143971920013427734375" lon="1.72794484533369541168212890625">
        <ele>1703.4000244140625</ele>
        <time>2020-08-11T08:43:48.000Z</time>
      </trkpt>
      <trkpt lat="42.268947623670101165771484375" lon="1.7278074659407138824462890625">
        <ele>1704.4000244140625</ele>
        <time>2020-08-11T08:43:56.000Z</time>
      </trkpt>
      <trkpt lat="42.26895407773554325103759765625" lon="1.7277910374104976654052734375">
        <ele>1704.800048828125</ele>
        <time>2020-08-11T08:43:57.000Z</time>
      </trkpt>
      <trkpt lat="42.26899917237460613250732421875" lon="1.72763605602085590362548828125">
        <ele>1705.5999755859375</ele>
        <time>2020-08-11T08:44:05.000Z</time>
      </trkpt>
      <trkpt lat="42.26899917237460613250732421875" lon="1.72763605602085590362548828125">
        <ele>1705.5999755859375</ele>
        <time>2020-08-11T08:44:06.000Z</time>
      </trkpt>
      <trkpt lat="42.269020713865756988525390625" lon="1.7275275103747844696044921875">
        <ele>1706.800048828125</ele>
        <time>2020-08-11T08:44:12.000Z</time>
      </trkpt>
      <trkpt lat="42.2690208815038204193115234375" lon="1.727485768496990203857421875">
        <ele>1707</ele>
        <time>2020-08-11T08:44:14.000Z</time>
      </trkpt>
      <trkpt lat="42.26902230642735958099365234375" lon="1.72746531665325164794921875">
        <ele>1707</ele>
        <time>2020-08-11T08:44:15.000Z</time>
      </trkpt>
      <trkpt lat="42.269020043313503265380859375" lon="1.7273654043674468994140625">
        <ele>1707.5999755859375</ele>
        <time>2020-08-11T08:44:20.000Z</time>
      </trkpt>
      <trkpt lat="42.2690205462276935577392578125" lon="1.72728334553539752960205078125">
        <ele>1708.199951171875</ele>
        <time>2020-08-11T08:44:23.000Z</time>
      </trkpt>
      <trkpt lat="42.269019372761249542236328125" lon="1.72716549597680568695068359375">
        <ele>1708.800048828125</ele>
        <time>2020-08-11T08:44:29.000Z</time>
      </trkpt>
      <trkpt lat="42.2690269164741039276123046875" lon="1.72710430808365345001220703125">
        <ele>1709.199951171875</ele>
        <time>2020-08-11T08:44:33.000Z</time>
      </trkpt>
      <trkpt lat="42.26906974799931049346923828125" lon="1.72697857953608036041259765625">
        <ele>1709.800048828125</ele>
        <time>2020-08-11T08:44:40.000Z</time>
      </trkpt>
      <trkpt lat="42.26909304969012737274169921875" lon="1.72692887485027313232421875">
        <ele>1710.199951171875</ele>
        <time>2020-08-11T08:44:42.000Z</time>
      </trkpt>
      <trkpt lat="42.2691425867378711700439453125" lon="1.726794429123401641845703125">
        <ele>1711</ele>
        <time>2020-08-11T08:44:51.000Z</time>
      </trkpt>
      <trkpt lat="42.2691529802978038787841796875" lon="1.72676031477749347686767578125">
        <ele>1711.199951171875</ele>
        <time>2020-08-11T08:44:52.000Z</time>
      </trkpt>
      <trkpt lat="42.269168235361576080322265625" lon="1.726684458553791046142578125">
        <ele>1712</ele>
        <time>2020-08-11T08:44:57.000Z</time>
      </trkpt>
      <trkpt lat="42.2691811434924602508544921875" lon="1.7266125418245792388916015625">
        <ele>1712.5999755859375</ele>
        <time>2020-08-11T08:45:01.000Z</time>
      </trkpt>
      <trkpt lat="42.2691912017762660980224609375" lon="1.72654087655246257781982421875">
        <ele>1713</ele>
        <time>2020-08-11T08:45:04.000Z</time>
      </trkpt>
      <trkpt lat="42.26921140216290950775146484375" lon="1.72643543221056461334228515625">
        <ele>1713.800048828125</ele>
        <time>2020-08-11T08:45:10.000Z</time>
      </trkpt>
      <trkpt lat="42.269217856228351593017578125" lon="1.72639972530305385589599609375">
        <ele>1714</ele>
        <time>2020-08-11T08:45:13.000Z</time>
      </trkpt>
      <trkpt lat="42.26924241520464420318603515625" lon="1.726257987320423126220703125">
        <ele>1715</ele>
        <time>2020-08-11T08:45:20.000Z</time>
      </trkpt>
      <trkpt lat="42.26932413876056671142578125" lon="1.726105771958827972412109375">
        <ele>1716</ele>
        <time>2020-08-11T08:45:31.000Z</time>
      </trkpt>
      <trkpt lat="42.2693853266537189483642578125" lon="1.72599236480891704559326171875">
        <ele>1716.5999755859375</ele>
        <time>2020-08-11T08:45:38.000Z</time>
      </trkpt>
      <trkpt lat="42.26939789950847625732421875" lon="1.7259238846600055694580078125">
        <ele>1716.800048828125</ele>
        <time>2020-08-11T08:45:43.000Z</time>
      </trkpt>
      <trkpt lat="42.26942530833184719085693359375" lon="1.725824810564517974853515625">
        <ele>1717.800048828125</ele>
        <time>2020-08-11T08:45:49.000Z</time>
      </trkpt>
      <trkpt lat="42.269432432949542999267578125" lon="1.72579161822795867919921875">
        <ele>1717.800048828125</ele>
        <time>2020-08-11T08:45:50.000Z</time>
      </trkpt>
      <trkpt lat="42.269432432949542999267578125" lon="1.72579161822795867919921875">
        <ele>1718</ele>
        <time>2020-08-11T08:45:51.000Z</time>
      </trkpt>
      <trkpt lat="42.2694473527371883392333984375" lon="1.72569237649440765380859375">
        <ele>1718.199951171875</ele>
        <time>2020-08-11T08:45:56.000Z</time>
      </trkpt>
      <trkpt lat="42.26944844238460063934326171875" lon="1.72569463960826396942138671875">
        <ele>1718.800048828125</ele>
        <time>2020-08-11T08:46:11.000Z</time>
      </trkpt>
      <trkpt lat="42.26944844238460063934326171875" lon="1.72569463960826396942138671875">
        <ele>1718.800048828125</ele>
        <time>2020-08-11T08:46:12.000Z</time>
      </trkpt>
      <trkpt lat="42.26944844238460063934326171875" lon="1.725694723427295684814453125">
        <ele>1718.800048828125</ele>
        <time>2020-08-11T08:46:15.000Z</time>
      </trkpt>
      <trkpt lat="42.26944861002266407012939453125" lon="1.725694723427295684814453125">
        <ele>1718.800048828125</ele>
        <time>2020-08-11T08:47:14.000Z</time>
      </trkpt>
      <trkpt lat="42.26945682428777217864990234375" lon="1.72563697211444377899169921875">
        <ele>1718.5999755859375</ele>
        <time>2020-08-11T08:47:23.000Z</time>
      </trkpt>
      <trkpt lat="42.26947140879929065704345703125" lon="1.72547000460326671600341796875">
        <ele>1719.5999755859375</ele>
        <time>2020-08-11T08:47:32.000Z</time>
      </trkpt>
      <trkpt lat="42.269477359950542449951171875" lon="1.72541284002363681793212890625">
        <ele>1720</ele>
        <time>2020-08-11T08:47:35.000Z</time>
      </trkpt>
      <trkpt lat="42.2694875858724117279052734375" lon="1.7253099940717220306396484375">
        <ele>1720.5999755859375</ele>
        <time>2020-08-11T08:47:40.000Z</time>
      </trkpt>
      <trkpt lat="42.269510217010974884033203125" lon="1.72523397020995616912841796875">
        <ele>1721.4000244140625</ele>
        <time>2020-08-11T08:47:44.000Z</time>
      </trkpt>
      <trkpt lat="42.26951600052416324615478515625" lon="1.7251939885318279266357421875">
        <ele>1721.800048828125</ele>
        <time>2020-08-11T08:47:46.000Z</time>
      </trkpt>
      <trkpt lat="42.2695321775972843170166015625" lon="1.72505057416856288909912109375">
        <ele>1722.5999755859375</ele>
        <time>2020-08-11T08:47:53.000Z</time>
      </trkpt>
      <trkpt lat="42.26953410543501377105712890625" lon="1.7250317148864269256591796875">
        <ele>1722.800048828125</ele>
        <time>2020-08-11T08:47:54.000Z</time>
      </trkpt>
      <trkpt lat="42.26956151425838470458984375" lon="1.724872626364231109619140625">
        <ele>1723.800048828125</ele>
        <time>2020-08-11T08:48:04.000Z</time>
      </trkpt>
      <trkpt lat="42.26956813596189022064208984375" lon="1.7248432897031307220458984375">
        <ele>1724.199951171875</ele>
        <time>2020-08-11T08:48:06.000Z</time>
      </trkpt>
      <trkpt lat="42.26959361694753170013427734375" lon="1.72475838102400302886962890625">
        <ele>1724.800048828125</ele>
        <time>2020-08-11T08:48:12.000Z</time>
      </trkpt>
      <trkpt lat="42.26959864608943462371826171875" lon="1.72472870908677577972412109375">
        <ele>1725.199951171875</ele>
        <time>2020-08-11T08:48:14.000Z</time>
      </trkpt>
      <trkpt lat="42.2695988975465297698974609375" lon="1.72469870187342166900634765625">
        <ele>1725.199951171875</ele>
        <time>2020-08-11T08:48:16.000Z</time>
      </trkpt>
      <trkpt lat="42.269596047699451446533203125" lon="1.72457297332584857940673828125">
        <ele>1725.800048828125</ele>
        <time>2020-08-11T08:48:25.000Z</time>
      </trkpt>
      <trkpt lat="42.26960241794586181640625" lon="1.7245415411889553070068359375">
        <ele>1725.800048828125</ele>
        <time>2020-08-11T08:48:26.000Z</time>
      </trkpt>
      <trkpt lat="42.2696471773087978363037109375" lon="1.7243816144764423370361328125">
        <ele>1727</ele>
        <time>2020-08-11T08:48:37.000Z</time>
      </trkpt>
      <trkpt lat="42.2696622647345066070556640625" lon="1.72435529530048370361328125">
        <ele>1727.199951171875</ele>
        <time>2020-08-11T08:48:38.000Z</time>
      </trkpt>
      <trkpt lat="42.269738875329494476318359375" lon="1.72424121759831905364990234375">
        <ele>1727.800048828125</ele>
        <time>2020-08-11T08:48:47.000Z</time>
      </trkpt>
      <trkpt lat="42.26976779289543628692626953125" lon="1.72420802526175975799560546875">
        <ele>1728</ele>
        <time>2020-08-11T08:48:50.000Z</time>
      </trkpt>
      <trkpt lat="42.2698570601642131805419921875" lon="1.72411431558430194854736328125">
        <ele>1727.800048828125</ele>
        <time>2020-08-11T08:48:58.000Z</time>
      </trkpt>
      <trkpt lat="42.26986535824835300445556640625" lon="1.7240999825298786163330078125">
        <ele>1728</ele>
        <time>2020-08-11T08:48:59.000Z</time>
      </trkpt>
      <trkpt lat="42.26992185227572917938232421875" lon="1.72399797476828098297119140625">
        <ele>1729</ele>
        <time>2020-08-11T08:49:06.000Z</time>
      </trkpt>
      <trkpt lat="42.26993702352046966552734375" lon="1.7239702306687831878662109375">
        <ele>1729.199951171875</ele>
        <time>2020-08-11T08:49:08.000Z</time>
      </trkpt>
      <trkpt lat="42.269991338253021240234375" lon="1.723850034177303314208984375">
        <ele>1730</ele>
        <time>2020-08-11T08:49:16.000Z</time>
      </trkpt>
      <trkpt lat="42.26999728940427303314208984375" lon="1.72383486293256282806396484375">
        <ele>1730</ele>
        <time>2020-08-11T08:49:17.000Z</time>
      </trkpt>
      <trkpt lat="42.27002863772213459014892578125" lon="1.7237244732677936553955078125">
        <ele>1731.199951171875</ele>
        <time>2020-08-11T08:49:23.000Z</time>
      </trkpt>
      <trkpt lat="42.2700417973101139068603515625" lon="1.72369387932121753692626953125">
        <ele>1731.4000244140625</ele>
        <time>2020-08-11T08:49:26.000Z</time>
      </trkpt>
      <trkpt lat="42.27004305459558963775634765625" lon="1.7236939631402492523193359375">
        <ele>1731</ele>
        <time>2020-08-11T08:49:49.000Z</time>
      </trkpt>
      <trkpt lat="42.27004590444266796112060546875" lon="1.7236961424350738525390625">
        <ele>1731</ele>
        <time>2020-08-11T08:49:52.000Z</time>
      </trkpt>
      <trkpt lat="42.2700451500713825225830078125" lon="1.72369086183607578277587890625">
        <ele>1730.5999755859375</ele>
        <time>2020-08-11T08:53:31.000Z</time>
      </trkpt>
      <trkpt lat="42.27004456333816051483154296875" lon="1.72368868254125118255615234375">
        <ele>1731</ele>
        <time>2020-08-11T08:53:34.000Z</time>
      </trkpt>
      <trkpt lat="42.2700451500713825225830078125" lon="1.72364207915961742401123046875">
        <ele>1731</ele>
        <time>2020-08-11T08:53:37.000Z</time>
      </trkpt>
      <trkpt lat="42.2700451500713825225830078125" lon="1.7236237227916717529296875">
        <ele>1731.199951171875</ele>
        <time>2020-08-11T08:53:39.000Z</time>
      </trkpt>
      <trkpt lat="42.27002620697021484375" lon="1.72351249493658542633056640625">
        <ele>1731.5999755859375</ele>
        <time>2020-08-11T08:53:44.000Z</time>
      </trkpt>
      <trkpt lat="42.2700015641748905181884765625" lon="1.72345834784209728240966796875">
        <ele>1732.199951171875</ele>
        <time>2020-08-11T08:53:47.000Z</time>
      </trkpt>
      <trkpt lat="42.26993325166404247283935546875" lon="1.72337553463876247406005859375">
        <ele>1732.4000244140625</ele>
        <time>2020-08-11T08:53:55.000Z</time>
      </trkpt>
      <trkpt lat="42.26988078095018863677978515625" lon="1.72330864705145359039306640625">
        <ele>1732.5999755859375</ele>
        <time>2020-08-11T08:53:59.000Z</time>
      </trkpt>
      <trkpt lat="42.26982428692281246185302734375" lon="1.723246537148952484130859375">
        <ele>1733.199951171875</ele>
        <time>2020-08-11T08:54:04.000Z</time>
      </trkpt>
      <trkpt lat="42.26979880593717098236083984375" lon="1.7232198826968669891357421875">
        <ele>1733.800048828125</ele>
        <time>2020-08-11T08:54:07.000Z</time>
      </trkpt>
      <trkpt lat="42.26974465884268283843994140625" lon="1.72312491573393344879150390625">
        <ele>1734.199951171875</ele>
        <time>2020-08-11T08:54:12.000Z</time>
      </trkpt>
      <trkpt lat="42.2697459161281585693359375" lon="1.72309122048318386077880859375">
        <ele>1734.199951171875</ele>
        <time>2020-08-11T08:54:14.000Z</time>
      </trkpt>
      <trkpt lat="42.2697480954229831695556640625" lon="1.72309054993093013763427734375">
        <ele>1734</ele>
        <time>2020-08-11T08:54:21.000Z</time>
      </trkpt>
      <trkpt lat="42.269733510911464691162109375" lon="1.72303556464612483978271484375">
        <ele>1734.4000244140625</ele>
        <time>2020-08-11T08:54:28.000Z</time>
      </trkpt>
      <trkpt lat="42.2697102092206478118896484375" lon="1.7229325510561466217041015625">
        <ele>1734.5999755859375</ele>
        <time>2020-08-11T08:54:36.000Z</time>
      </trkpt>
      <trkpt lat="42.2697102092206478118896484375" lon="1.7229325510561466217041015625">
        <ele>1734.800048828125</ele>
        <time>2020-08-11T08:54:37.000Z</time>
      </trkpt>
      <trkpt lat="42.26969973184168338775634765625" lon="1.72278461046516895294189453125">
        <ele>1735.4000244140625</ele>
        <time>2020-08-11T08:54:46.000Z</time>
      </trkpt>
      <trkpt lat="42.26969989947974681854248046875" lon="1.72275460325181484222412109375">
        <ele>1735.800048828125</ele>
        <time>2020-08-11T08:54:49.000Z</time>
      </trkpt>
      <trkpt lat="42.269701324403285980224609375" lon="1.72266106121242046356201171875">
        <ele>1736</ele>
        <time>2020-08-11T08:54:55.000Z</time>
      </trkpt>
      <trkpt lat="42.269698642194271087646484375" lon="1.72252108342945575714111328125">
        <ele>1736.800048828125</ele>
        <time>2020-08-11T08:55:03.000Z</time>
      </trkpt>
      <trkpt lat="42.269697301089763641357421875" lon="1.72245671041309833526611328125">
        <ele>1736.800048828125</ele>
        <time>2020-08-11T08:55:06.000Z</time>
      </trkpt>
      <trkpt lat="42.26969252340495586395263671875" lon="1.7222707159817218780517578125">
        <ele>1737.199951171875</ele>
        <time>2020-08-11T08:55:17.000Z</time>
      </trkpt>
      <trkpt lat="42.26969520561397075653076171875" lon="1.72215378843247890472412109375">
        <ele>1737.5999755859375</ele>
        <time>2020-08-11T08:55:24.000Z</time>
      </trkpt>
      <trkpt lat="42.269702665507793426513671875" lon="1.72206602990627288818359375">
        <ele>1738</ele>
        <time>2020-08-11T08:55:29.000Z</time>
      </trkpt>
      <trkpt lat="42.26971029303967952728271484375" lon="1.72201573848724365234375">
        <ele>1738</ele>
        <time>2020-08-11T08:55:32.000Z</time>
      </trkpt>
      <trkpt lat="42.2697145678102970123291015625" lon="1.721910126507282257080078125">
        <ele>1738.4000244140625</ele>
        <time>2020-08-11T08:55:38.000Z</time>
      </trkpt>
      <trkpt lat="42.26971833966672420501708984375" lon="1.721857488155364990234375">
        <ele>1738.800048828125</ele>
        <time>2020-08-11T08:55:41.000Z</time>
      </trkpt>
      <trkpt lat="42.26970861665904521942138671875" lon="1.7216978967189788818359375">
        <ele>1739.199951171875</ele>
        <time>2020-08-11T08:55:51.000Z</time>
      </trkpt>
      <trkpt lat="42.26964893750846385955810546875" lon="1.72158750705420970916748046875">
        <ele>1739.800048828125</ele>
        <time>2020-08-11T08:55:58.000Z</time>
      </trkpt>
      <trkpt lat="42.26963619701564311981201171875" lon="1.7215783707797527313232421875">
        <ele>1740</ele>
        <time>2020-08-11T08:55:59.000Z</time>
      </trkpt>
      <trkpt lat="42.2695804573595523834228515625" lon="1.72154157422482967376708984375">
        <ele>1740.5999755859375</ele>
        <time>2020-08-11T08:56:04.000Z</time>
      </trkpt>
      <trkpt lat="42.269561178982257843017578125" lon="1.7215203680098056793212890625">
        <ele>1740.5999755859375</ele>
        <time>2020-08-11T08:56:07.000Z</time>
      </trkpt>
      <trkpt lat="42.2695160843431949615478515625" lon="1.72148642130196094512939453125">
        <ele>1741.199951171875</ele>
        <time>2020-08-11T08:56:10.000Z</time>
      </trkpt>
      <trkpt lat="42.2694386355578899383544921875" lon="1.721374690532684326171875">
        <ele>1741.800048828125</ele>
        <time>2020-08-11T08:56:18.000Z</time>
      </trkpt>
      <trkpt lat="42.2693387232720851898193359375" lon="1.72123077325522899627685546875">
        <ele>1742</ele>
        <time>2020-08-11T08:56:29.000Z</time>
      </trkpt>
      <trkpt lat="42.26933025754988193511962890625" lon="1.72121845185756683349609375">
        <ele>1742</ele>
        <time>2020-08-11T08:56:30.000Z</time>
      </trkpt>
      <trkpt lat="42.2692626155912876129150390625" lon="1.72115500085055828094482421875">
        <ele>1742.5999755859375</ele>
        <time>2020-08-11T08:56:37.000Z</time>
      </trkpt>
      <trkpt lat="42.26921827532351016998291015625" lon="1.72110806219279766082763671875">
        <ele>1743</ele>
        <time>2020-08-11T08:56:40.000Z</time>
      </trkpt>
      <trkpt lat="42.26915708743035793304443359375" lon="1.72100814990699291229248046875">
        <ele>1743.5999755859375</ele>
        <time>2020-08-11T08:56:47.000Z</time>
      </trkpt>
      <trkpt lat="42.26915105246007442474365234375" lon="1.720991469919681549072265625">
        <ele>1743.800048828125</ele>
        <time>2020-08-11T08:56:49.000Z</time>
      </trkpt>
      <trkpt lat="42.26913009770214557647705078125" lon="1.7209027893841266632080078125">
        <ele>1744.4000244140625</ele>
        <time>2020-08-11T08:56:53.000Z</time>
      </trkpt>
      <trkpt lat="42.2691397368907928466796875" lon="1.72080765478312969207763671875">
        <ele>1744.800048828125</ele>
        <time>2020-08-11T08:56:58.000Z</time>
      </trkpt>
      <trkpt lat="42.2691553272306919097900390625" lon="1.72065510414540767669677734375">
        <ele>1745.199951171875</ele>
        <time>2020-08-11T08:57:06.000Z</time>
      </trkpt>
      <trkpt lat="42.2691553272306919097900390625" lon="1.72065510414540767669677734375">
        <ele>1745.199951171875</ele>
        <time>2020-08-11T08:57:07.000Z</time>
      </trkpt>
      <trkpt lat="42.26921089924871921539306640625" lon="1.7204230092465877532958984375">
        <ele>1745.5999755859375</ele>
        <time>2020-08-11T08:57:18.000Z</time>
      </trkpt>
      <trkpt lat="42.26923428475856781005859375" lon="1.72030993737280368804931640625">
        <ele>1746.4000244140625</ele>
        <time>2020-08-11T08:57:25.000Z</time>
      </trkpt>
      <trkpt lat="42.26923688314855098724365234375" lon="1.72027020715177059173583984375">
        <ele>1746.4000244140625</ele>
        <time>2020-08-11T08:57:27.000Z</time>
      </trkpt>
      <trkpt lat="42.269216515123844146728515625" lon="1.720102317631244659423828125">
        <ele>1747.199951171875</ele>
        <time>2020-08-11T08:57:35.000Z</time>
      </trkpt>
      <trkpt lat="42.26920939050614833831787109375" lon="1.7200847156345844268798828125">
        <ele>1747.4000244140625</ele>
        <time>2020-08-11T08:57:37.000Z</time>
      </trkpt>
      <trkpt lat="42.269139401614665985107421875" lon="1.71992856077849864959716796875">
        <ele>1748.5999755859375</ele>
        <time>2020-08-11T08:57:46.000Z</time>
      </trkpt>
      <trkpt lat="42.2691321931779384613037109375" lon="1.7199143953621387481689453125">
        <ele>1748.800048828125</ele>
        <time>2020-08-11T08:57:47.000Z</time>
      </trkpt>
      <trkpt lat="42.2690725140273571014404296875" lon="1.71978975646197795867919921875">
        <ele>1749.4000244140625</ele>
        <time>2020-08-11T08:57:56.000Z</time>
      </trkpt>
      <trkpt lat="42.2690725140273571014404296875" lon="1.71978975646197795867919921875">
        <ele>1749.5999755859375</ele>
        <time>2020-08-11T08:57:57.000Z</time>
      </trkpt>
      <trkpt lat="42.269022054970264434814453125" lon="1.71967576257884502410888671875">
        <ele>1750.4000244140625</ele>
        <time>2020-08-11T08:58:03.000Z</time>
      </trkpt>
      <trkpt lat="42.26900772191584110260009765625" lon="1.719624213874340057373046875">
        <ele>1750.800048828125</ele>
        <time>2020-08-11T08:58:06.000Z</time>
      </trkpt>
      <trkpt lat="42.26899690926074981689453125" lon="1.71957316808402538299560546875">
        <ele>1751.5999755859375</ele>
        <time>2020-08-11T08:58:09.000Z</time>
      </trkpt>
      <trkpt lat="42.26896497420966625213623046875" lon="1.71949781477451324462890625">
        <ele>1752.4000244140625</ele>
        <time>2020-08-11T08:58:15.000Z</time>
      </trkpt>
      <trkpt lat="42.2689461149275302886962890625" lon="1.7194728367030620574951171875">
        <ele>1752.800048828125</ele>
        <time>2020-08-11T08:58:16.000Z</time>
      </trkpt>
      <trkpt lat="42.26889791898429393768310546875" lon="1.7194421589374542236328125">
        <ele>1753.5999755859375</ele>
        <time>2020-08-11T08:58:21.000Z</time>
      </trkpt>
      <trkpt lat="42.26885835640132427215576171875" lon="1.71942732296884059906005859375">
        <ele>1753.5999755859375</ele>
        <time>2020-08-11T08:58:23.000Z</time>
      </trkpt>
      <trkpt lat="42.268751822412014007568359375" lon="1.71940259635448455810546875">
        <ele>1753.800048828125</ele>
        <time>2020-08-11T08:58:31.000Z</time>
      </trkpt>
      <trkpt lat="42.26871586404740810394287109375" lon="1.71941307373344898223876953125">
        <ele>1754.5999755859375</ele>
        <time>2020-08-11T08:58:34.000Z</time>
      </trkpt>
      <trkpt lat="42.2686708532273769378662109375" lon="1.71942782588303089141845703125">
        <ele>1755.199951171875</ele>
        <time>2020-08-11T08:58:39.000Z</time>
      </trkpt>
      <trkpt lat="42.26857136003673076629638671875" lon="1.7195020057260990142822265625">
        <ele>1755.800048828125</ele>
        <time>2020-08-11T08:58:46.000Z</time>
      </trkpt>
      <trkpt lat="42.26855996064841747283935546875" lon="1.719511561095714569091796875">
        <ele>1756</ele>
        <time>2020-08-11T08:58:47.000Z</time>
      </trkpt>
      <trkpt lat="42.2684911452233791351318359375" lon="1.71959311701357364654541015625">
        <ele>1757</ele>
        <time>2020-08-11T08:58:55.000Z</time>
      </trkpt>
      <trkpt lat="42.268470190465450286865234375" lon="1.71961155720055103302001953125">
        <ele>1757</ele>
        <time>2020-08-11T08:58:56.000Z</time>
      </trkpt>
      <trkpt lat="42.26840422488749027252197265625" lon="1.7197206057608127593994140625">
        <ele>1757.800048828125</ele>
        <time>2020-08-11T08:59:04.000Z</time>
      </trkpt>
      <trkpt lat="42.2683865390717983245849609375" lon="1.7197440750896930694580078125">
        <ele>1758.199951171875</ele>
        <time>2020-08-11T08:59:07.000Z</time>
      </trkpt>
      <trkpt lat="42.2683235071599483489990234375" lon="1.71990022994577884674072265625">
        <ele>1758.800048828125</ele>
        <time>2020-08-11T08:59:16.000Z</time>
      </trkpt>
      <trkpt lat="42.26827581413090229034423828125" lon="1.72004087828099727630615234375">
        <ele>1760.199951171875</ele>
        <time>2020-08-11T08:59:24.000Z</time>
      </trkpt>
      <trkpt lat="42.26826072670519351959228515625" lon="1.720079518854618072509765625">
        <ele>1760.4000244140625</ele>
        <time>2020-08-11T08:59:27.000Z</time>
      </trkpt>
      <trkpt lat="42.268239520490169525146484375" lon="1.7201073467731475830078125">
        <ele>1760.5999755859375</ele>
        <time>2020-08-11T08:59:28.000Z</time>
      </trkpt>
      <trkpt lat="42.26818059571087360382080078125" lon="1.7201095260679721832275390625">
        <ele>1760.199951171875</ele>
        <time>2020-08-11T08:59:32.000Z</time>
      </trkpt>
      <trkpt lat="42.26816785521805286407470703125" lon="1.72010156325995922088623046875">
        <ele>1760.4000244140625</ele>
        <time>2020-08-11T08:59:33.000Z</time>
      </trkpt>
      <trkpt lat="42.26815930567681789398193359375" lon="1.720092929899692535400390625">
        <ele>1760.5999755859375</ele>
        <time>2020-08-11T08:59:34.000Z</time>
      </trkpt>
      <trkpt lat="42.26814673282206058502197265625" lon="1.72006501816213130950927734375">
        <ele>1761</ele>
        <time>2020-08-11T08:59:37.000Z</time>
      </trkpt>
      <trkpt lat="42.26814405061304569244384765625" lon="1.72002998180687427520751953125">
        <ele>1761.199951171875</ele>
        <time>2020-08-11T08:59:38.000Z</time>
      </trkpt>
      <trkpt lat="42.26814690046012401580810546875" lon="1.7200122959911823272705078125">
        <ele>1761.199951171875</ele>
        <time>2020-08-11T08:59:39.000Z</time>
      </trkpt>
      <trkpt lat="42.2681605629622936248779296875" lon="1.7199566401541233062744140625">
        <ele>1761.4000244140625</ele>
        <time>2020-08-11T08:59:43.000Z</time>
      </trkpt>
      <trkpt lat="42.26820322684943675994873046875" lon="1.71982982195913791656494140625">
        <ele>1762</ele>
        <time>2020-08-11T08:59:50.000Z</time>
      </trkpt>
      <trkpt lat="42.26821647025644779205322265625" lon="1.71978405676782131195068359375">
        <ele>1763.199951171875</ele>
        <time>2020-08-11T08:59:53.000Z</time>
      </trkpt>
      <trkpt lat="42.268259637057781219482421875" lon="1.71969051472842693328857421875">
        <ele>1764</ele>
        <time>2020-08-11T08:59:59.000Z</time>
      </trkpt>
      <trkpt lat="42.2682641632854938507080078125" lon="1.71967442147433757781982421875">
        <ele>1764</ele>
        <time>2020-08-11T09:00:00.000Z</time>
      </trkpt>
      <trkpt lat="42.268273048102855682373046875" lon="1.7195811308920383453369140625">
        <ele>1765.199951171875</ele>
        <time>2020-08-11T09:00:06.000Z</time>
      </trkpt>
      <trkpt lat="42.2682752273976802825927734375" lon="1.7195549793541431427001953125">
        <ele>1765.4000244140625</ele>
        <time>2020-08-11T09:00:08.000Z</time>
      </trkpt>
      <trkpt lat="42.2682966850697994232177734375" lon="1.71944509260356426239013671875">
        <ele>1766.199951171875</ele>
        <time>2020-08-11T09:00:16.000Z</time>
      </trkpt>
      <trkpt lat="42.2682990320026874542236328125" lon="1.7194314301013946533203125">
        <ele>1766.4000244140625</ele>
        <time>2020-08-11T09:00:17.000Z</time>
      </trkpt>
      <trkpt lat="42.268324680626392364501953125" lon="1.71928566880524158477783203125">
        <ele>1767.199951171875</ele>
        <time>2020-08-11T09:00:28.000Z</time>
      </trkpt>
      <trkpt lat="42.26833784021437168121337890625" lon="1.71920285560190677642822265625">
        <ele>1768.199951171875</ele>
        <time>2020-08-11T09:00:34.000Z</time>
      </trkpt>
      <trkpt lat="42.2683446295559406280517578125" lon="1.71914854086935520172119140625">
        <ele>1768.5999755859375</ele>
        <time>2020-08-11T09:00:38.000Z</time>
      </trkpt>
      <trkpt lat="42.26835460402071475982666015625" lon="1.71908249147236347198486328125">
        <ele>1769.199951171875</ele>
        <time>2020-08-11T09:00:43.000Z</time>
      </trkpt>
      <trkpt lat="42.2683634050190448760986328125" lon="1.71902633272111415863037109375">
        <ele>1769.5999755859375</ele>
        <time>2020-08-11T09:00:47.000Z</time>
      </trkpt>
      <trkpt lat="42.26837136782705783843994140625" lon="1.71897084452211856842041015625">
        <ele>1770.199951171875</ele>
        <time>2020-08-11T09:00:51.000Z</time>
      </trkpt>
      <trkpt lat="42.26838402450084686279296875" lon="1.71889834105968475341796875">
        <ele>1771</ele>
        <time>2020-08-11T09:00:56.000Z</time>
      </trkpt>
      <trkpt lat="42.268385700881481170654296875" lon="1.71888115815818309783935546875">
        <ele>1771.199951171875</ele>
        <time>2020-08-11T09:00:57.000Z</time>
      </trkpt>
      <trkpt lat="42.2684059850871562957763671875" lon="1.7187781445682048797607421875">
        <ele>1771.4000244140625</ele>
        <time>2020-08-11T09:01:04.000Z</time>
      </trkpt>
      <trkpt lat="42.26842031814157962799072265625" lon="1.718670018017292022705078125">
        <ele>1771.800048828125</ele>
        <time>2020-08-11T09:01:11.000Z</time>
      </trkpt>
      <trkpt lat="42.268433310091495513916015625" lon="1.7186079919338226318359375">
        <ele>1772.199951171875</ele>
        <time>2020-08-11T09:01:15.000Z</time>
      </trkpt>
      <trkpt lat="42.268443368375301361083984375" lon="1.71854294836521148681640625">
        <ele>1772.5999755859375</ele>
        <time>2020-08-11T09:01:19.000Z</time>
      </trkpt>
      <trkpt lat="42.26845988072454929351806640625" lon="1.71848352067172527313232421875">
        <ele>1773.199951171875</ele>
        <time>2020-08-11T09:01:23.000Z</time>
      </trkpt>
      <trkpt lat="42.26848125457763671875" lon="1.71840070746839046478271484375">
        <ele>1774</ele>
        <time>2020-08-11T09:01:29.000Z</time>
      </trkpt>
      <trkpt lat="42.26849122904241085052490234375" lon="1.7183513380587100982666015625">
        <ele>1774.199951171875</ele>
        <time>2020-08-11T09:01:33.000Z</time>
      </trkpt>
      <trkpt lat="42.26850313134491443634033203125" lon="1.71831320039927959442138671875">
        <ele>1774.4000244140625</ele>
        <time>2020-08-11T09:01:36.000Z</time>
      </trkpt>
      <trkpt lat="42.2685199789702892303466796875" lon="1.7182624898850917816162109375">
        <ele>1775</ele>
        <time>2020-08-11T09:01:40.000Z</time>
      </trkpt>
      <trkpt lat="42.26854168809950351715087890625" lon="1.71819585375487804412841796875">
        <ele>1775.4000244140625</ele>
        <time>2020-08-11T09:01:45.000Z</time>
      </trkpt>
      <trkpt lat="42.2685685940086841583251953125" lon="1.7181278765201568603515625">
        <ele>1776</ele>
        <time>2020-08-11T09:01:50.000Z</time>
      </trkpt>
      <trkpt lat="42.268580496311187744140625" lon="1.71810180880129337310791015625">
        <ele>1776.4000244140625</ele>
        <time>2020-08-11T09:01:52.000Z</time>
      </trkpt>
      <trkpt lat="42.26858510635793209075927734375" lon="1.71808789484202861785888671875">
        <ele>1776.5999755859375</ele>
        <time>2020-08-11T09:01:53.000Z</time>
      </trkpt>
      <trkpt lat="42.268617041409015655517578125" lon="1.718010865151882171630859375">
        <ele>1777</ele>
        <time>2020-08-11T09:01:59.000Z</time>
      </trkpt>
      <trkpt lat="42.2686222381889820098876953125" lon="1.7179982922971248626708984375">
        <ele>1777.199951171875</ele>
        <time>2020-08-11T09:02:00.000Z</time>
      </trkpt>
      <trkpt lat="42.26863975636661052703857421875" lon="1.71796132810413837432861328125">
        <ele>1777.5999755859375</ele>
        <time>2020-08-11T09:02:03.000Z</time>
      </trkpt>
      <trkpt lat="42.26864688098430633544921875" lon="1.71791933476924896240234375">
        <ele>1778</ele>
        <time>2020-08-11T09:02:06.000Z</time>
      </trkpt>
      <trkpt lat="42.26865165866911411285400390625" lon="1.7179052531719207763671875">
        <ele>1778.199951171875</ele>
        <time>2020-08-11T09:02:07.000Z</time>
      </trkpt>
      <trkpt lat="42.26868334226310253143310546875" lon="1.71780911274254322052001953125">
        <ele>1779.199951171875</ele>
        <time>2020-08-11T09:02:14.000Z</time>
      </trkpt>
      <trkpt lat="42.26869122125208377838134765625" lon="1.71778254210948944091796875">
        <ele>1779.5999755859375</ele>
        <time>2020-08-11T09:02:16.000Z</time>
      </trkpt>
      <trkpt lat="42.26869625039398670196533203125" lon="1.7177193425595760345458984375">
        <ele>1780.199951171875</ele>
        <time>2020-08-11T09:02:21.000Z</time>
      </trkpt>
      <trkpt lat="42.2687010280787944793701171875" lon="1.71769537031650543212890625">
        <ele>1780.4000244140625</ele>
        <time>2020-08-11T09:02:23.000Z</time>
      </trkpt>
      <trkpt lat="42.26870815269649028778076171875" lon="1.7176558077335357666015625">
        <ele>1780.800048828125</ele>
        <time>2020-08-11T09:02:26.000Z</time>
      </trkpt>
      <trkpt lat="42.26872893981635570526123046875" lon="1.71760844998061656951904296875">
        <ele>1781</ele>
        <time>2020-08-11T09:02:30.000Z</time>
      </trkpt>
      <trkpt lat="42.2687358967959880828857421875" lon="1.71759721823036670684814453125">
        <ele>1781.199951171875</ele>
        <time>2020-08-11T09:02:31.000Z</time>
      </trkpt>
      <trkpt lat="42.2687709331512451171875" lon="1.71752362512052059173583984375">
        <ele>1782.199951171875</ele>
        <time>2020-08-11T09:02:37.000Z</time>
      </trkpt>
      <trkpt lat="42.26880110800266265869140625" lon="1.7174990661442279815673828125">
        <ele>1782.4000244140625</ele>
        <time>2020-08-11T09:02:40.000Z</time>
      </trkpt>
      <trkpt lat="42.26885609328746795654296875" lon="1.71748079359531402587890625">
        <ele>1783.199951171875</ele>
        <time>2020-08-11T09:02:45.000Z</time>
      </trkpt>
      <trkpt lat="42.26888936944305896759033203125" lon="1.7174678854644298553466796875">
        <ele>1783.199951171875</ele>
        <time>2020-08-11T09:02:48.000Z</time>
      </trkpt>
      <trkpt lat="42.26896874606609344482421875" lon="1.71748188324272632598876953125">
        <ele>1783.800048828125</ele>
        <time>2020-08-11T09:02:55.000Z</time>
      </trkpt>
      <trkpt lat="42.26898006163537502288818359375" lon="1.71748657710850238800048828125">
        <ele>1784</ele>
        <time>2020-08-11T09:02:56.000Z</time>
      </trkpt>
      <trkpt lat="42.2690513916313648223876953125" lon="1.71753133647143840789794921875">
        <ele>1784</ele>
        <time>2020-08-11T09:03:02.000Z</time>
      </trkpt>
      <trkpt lat="42.269119955599308013916015625" lon="1.71762303449213504791259765625">
        <ele>1784.5999755859375</ele>
        <time>2020-08-11T09:03:10.000Z</time>
      </trkpt>
      <trkpt lat="42.26916253566741943359375" lon="1.71767516992986202239990234375">
        <ele>1785</ele>
        <time>2020-08-11T09:03:15.000Z</time>
      </trkpt>
      <trkpt lat="42.2691871784627437591552734375" lon="1.71771909110248088836669921875">
        <ele>1785.5999755859375</ele>
        <time>2020-08-11T09:03:19.000Z</time>
      </trkpt>
      <trkpt lat="42.26921056397259235382080078125" lon="1.71774105168879032135009765625">
        <ele>1786</ele>
        <time>2020-08-11T09:03:22.000Z</time>
      </trkpt>
      <trkpt lat="42.26921995170414447784423828125" lon="1.717742979526519775390625">
        <ele>1786</ele>
        <time>2020-08-11T09:03:23.000Z</time>
      </trkpt>
      <trkpt lat="42.26926202885806560516357421875" lon="1.7177374474704265594482421875">
        <ele>1786.5999755859375</ele>
        <time>2020-08-11T09:03:27.000Z</time>
      </trkpt>
      <trkpt lat="42.26927979849278926849365234375" lon="1.71771188266575336456298828125">
        <ele>1786.800048828125</ele>
        <time>2020-08-11T09:03:31.000Z</time>
      </trkpt>
      <trkpt lat="42.2692844085395336151123046875" lon="1.71771205030381679534912109375">
        <ele>1787</ele>
        <time>2020-08-11T09:03:32.000Z</time>
      </trkpt>
      <trkpt lat="42.26930511184036731719970703125" lon="1.71766947023570537567138671875">
        <ele>1787.199951171875</ele>
        <time>2020-08-11T09:03:38.000Z</time>
      </trkpt>
      <trkpt lat="42.2692746855318546295166015625" lon="1.71755648218095302581787109375">
        <ele>1787.199951171875</ele>
        <time>2020-08-11T09:03:44.000Z</time>
      </trkpt>
      <trkpt lat="42.26924191229045391082763671875" lon="1.717512309551239013671875">
        <ele>1787.800048828125</ele>
        <time>2020-08-11T09:03:47.000Z</time>
      </trkpt>
      <trkpt lat="42.26918474771082401275634765625" lon="1.71744550578296184539794921875">
        <ele>1788.5999755859375</ele>
        <time>2020-08-11T09:03:52.000Z</time>
      </trkpt>
      <trkpt lat="42.26916178129613399505615234375" lon="1.71742304228246212005615234375">
        <ele>1789</ele>
        <time>2020-08-11T09:03:54.000Z</time>
      </trkpt>
      <trkpt lat="42.26906639523804187774658203125" lon="1.71732497401535511016845703125">
        <ele>1789.800048828125</ele>
        <time>2020-08-11T09:04:02.000Z</time>
      </trkpt>
      <trkpt lat="42.26898928172886371612548828125" lon="1.71722036786377429962158203125">
        <ele>1790.800048828125</ele>
        <time>2020-08-11T09:04:10.000Z</time>
      </trkpt>
      <trkpt lat="42.26897947490215301513671875" lon="1.71721081249415874481201171875">
        <ele>1791</ele>
        <time>2020-08-11T09:04:11.000Z</time>
      </trkpt>
      <trkpt lat="42.2689353860914707183837890625" lon="1.71711601316928863525390625">
        <ele>1791.800048828125</ele>
        <time>2020-08-11T09:04:17.000Z</time>
      </trkpt>
      <trkpt lat="42.2689211368560791015625" lon="1.71708374284207820892333984375">
        <ele>1792</ele>
        <time>2020-08-11T09:04:19.000Z</time>
      </trkpt>
      <trkpt lat="42.2688690014183521270751953125" lon="1.717002354562282562255859375">
        <ele>1793</ele>
        <time>2020-08-11T09:04:25.000Z</time>
      </trkpt>
      <trkpt lat="42.2688227333128452301025390625" lon="1.7169264145195484161376953125">
        <ele>1793.4000244140625</ele>
        <time>2020-08-11T09:04:30.000Z</time>
      </trkpt>
      <trkpt lat="42.26880186237394809722900390625" lon="1.71689950861036777496337890625">
        <ele>1794</ele>
        <time>2020-08-11T09:04:32.000Z</time>
      </trkpt>
      <trkpt lat="42.26874209940433502197265625" lon="1.7168529890477657318115234375">
        <ele>1795</ele>
        <time>2020-08-11T09:04:37.000Z</time>
      </trkpt>
      <trkpt lat="42.26873279549181461334228515625" lon="1.716842092573642730712890625">
        <ele>1795.199951171875</ele>
        <time>2020-08-11T09:04:38.000Z</time>
      </trkpt>
      <trkpt lat="42.26867596618831157684326171875" lon="1.71676732599735260009765625">
        <ele>1795.5999755859375</ele>
        <time>2020-08-11T09:04:44.000Z</time>
      </trkpt>
      <trkpt lat="42.26861662231385707855224609375" lon="1.71668962575495243072509765625">
        <ele>1796</ele>
        <time>2020-08-11T09:04:50.000Z</time>
      </trkpt>
      <trkpt lat="42.26860824041068553924560546875" lon="1.716675125062465667724609375">
        <ele>1796.199951171875</ele>
        <time>2020-08-11T09:04:51.000Z</time>
      </trkpt>
      <trkpt lat="42.2685632295906543731689453125" lon="1.7165817506611347198486328125">
        <ele>1797.199951171875</ele>
        <time>2020-08-11T09:04:57.000Z</time>
      </trkpt>
      <trkpt lat="42.2685427777469158172607421875" lon="1.7165334708988666534423828125">
        <ele>1797.800048828125</ele>
        <time>2020-08-11T09:05:00.000Z</time>
      </trkpt>
      <trkpt lat="42.26852475665509700775146484375" lon="1.716439090669155120849609375">
        <ele>1798.199951171875</ele>
        <time>2020-08-11T09:05:07.000Z</time>
      </trkpt>
      <trkpt lat="42.2685233317315578460693359375" lon="1.7164409346878528594970703125">
        <ele>1798.199951171875</ele>
        <time>2020-08-11T09:05:18.000Z</time>
      </trkpt>
      <trkpt lat="42.2685233317315578460693359375" lon="1.7164409346878528594970703125">
        <ele>1798.199951171875</ele>
        <time>2020-08-11T09:05:19.000Z</time>
      </trkpt>
      <trkpt lat="42.2685236670076847076416015625" lon="1.7164407670497894287109375">
        <ele>1798.199951171875</ele>
        <time>2020-08-11T09:05:34.000Z</time>
      </trkpt>
      <trkpt lat="42.268524169921875" lon="1.7164379172027111053466796875">
        <ele>1798.199951171875</ele>
        <time>2020-08-11T09:06:41.000Z</time>
      </trkpt>
      <trkpt lat="42.26852173916995525360107421875" lon="1.71643045730888843536376953125">
        <ele>1798.4000244140625</ele>
        <time>2020-08-11T09:06:45.000Z</time>
      </trkpt>
      <trkpt lat="42.26850346662104129791259765625" lon="1.716359965503215789794921875">
        <ele>1798.4000244140625</ele>
        <time>2020-08-11T09:06:49.000Z</time>
      </trkpt>
      <trkpt lat="42.26849206723272800445556640625" lon="1.71626986004412174224853515625">
        <ele>1798.800048828125</ele>
        <time>2020-08-11T09:06:53.000Z</time>
      </trkpt>
      <trkpt lat="42.26849441416561603546142578125" lon="1.71611554920673370361328125">
        <ele>1799.5999755859375</ele>
        <time>2020-08-11T09:07:00.000Z</time>
      </trkpt>
      <trkpt lat="42.26850447244942188262939453125" lon="1.7160518467426300048828125">
        <ele>1799.5999755859375</ele>
        <time>2020-08-11T09:07:03.000Z</time>
      </trkpt>
      <trkpt lat="42.26852308027446269989013671875" lon="1.7159150540828704833984375">
        <ele>1800.199951171875</ele>
        <time>2020-08-11T09:07:10.000Z</time>
      </trkpt>
      <trkpt lat="42.26854403503239154815673828125" lon="1.71579368412494659423828125">
        <ele>1800.4000244140625</ele>
        <time>2020-08-11T09:07:16.000Z</time>
      </trkpt>
      <trkpt lat="42.26855007000267505645751953125" lon="1.715753115713596343994140625">
        <ele>1800.800048828125</ele>
        <time>2020-08-11T09:07:18.000Z</time>
      </trkpt>
      <trkpt lat="42.26856783963739871978759765625" lon="1.7156288959085941314697265625">
        <ele>1801</ele>
        <time>2020-08-11T09:07:24.000Z</time>
      </trkpt>
      <trkpt lat="42.26859281770884990692138671875" lon="1.71549034304916858673095703125">
        <ele>1801</ele>
        <time>2020-08-11T09:07:31.000Z</time>
      </trkpt>
      <trkpt lat="42.268611676990985870361328125" lon="1.715411134064197540283203125">
        <ele>1801.4000244140625</ele>
        <time>2020-08-11T09:07:35.000Z</time>
      </trkpt>
      <trkpt lat="42.26862349547445774078369140625" lon="1.7153764329850673675537109375">
        <ele>1801.800048828125</ele>
        <time>2020-08-11T09:07:37.000Z</time>
      </trkpt>
      <trkpt lat="42.26863003335893154144287109375" lon="1.71535774134099483489990234375">
        <ele>1802</ele>
        <time>2020-08-11T09:07:38.000Z</time>
      </trkpt>
      <trkpt lat="42.2686470486223697662353515625" lon="1.7153035104274749755859375">
        <ele>1802.4000244140625</ele>
        <time>2020-08-11T09:07:41.000Z</time>
      </trkpt>
      <trkpt lat="42.26865836419165134429931640625" lon="1.7152694799005985260009765625">
        <ele>1802.800048828125</ele>
        <time>2020-08-11T09:07:43.000Z</time>
      </trkpt>
      <trkpt lat="42.26870547048747539520263671875" lon="1.71512522734701633453369140625">
        <ele>1803.5999755859375</ele>
        <time>2020-08-11T09:07:51.000Z</time>
      </trkpt>
      <trkpt lat="42.268765233457088470458984375" lon="1.71496094204485416412353515625">
        <ele>1804.5999755859375</ele>
        <time>2020-08-11T09:08:00.000Z</time>
      </trkpt>
      <trkpt lat="42.2687721066176891326904296875" lon="1.71494300477206707000732421875">
        <ele>1804.5999755859375</ele>
        <time>2020-08-11T09:08:01.000Z</time>
      </trkpt>
      <trkpt lat="42.26882583461701869964599609375" lon="1.71481274999678134918212890625">
        <ele>1805.4000244140625</ele>
        <time>2020-08-11T09:08:09.000Z</time>
      </trkpt>
      <trkpt lat="42.268840335309505462646484375" lon="1.71478156931698322296142578125">
        <ele>1805.5999755859375</ele>
        <time>2020-08-11T09:08:11.000Z</time>
      </trkpt>
      <trkpt lat="42.2688814066350460052490234375" lon="1.7146410048007965087890625">
        <ele>1806.199951171875</ele>
        <time>2020-08-11T09:08:19.000Z</time>
      </trkpt>
      <trkpt lat="42.2688891179859638214111328125" lon="1.71458593569695949554443359375">
        <ele>1806.5999755859375</ele>
        <time>2020-08-11T09:08:22.000Z</time>
      </trkpt>
      <trkpt lat="42.26889632642269134521484375" lon="1.7144908010959625244140625">
        <ele>1807</ele>
        <time>2020-08-11T09:08:27.000Z</time>
      </trkpt>
      <trkpt lat="42.2688998468220233917236328125" lon="1.7144319601356983184814453125">
        <ele>1807.5999755859375</ele>
        <time>2020-08-11T09:08:31.000Z</time>
      </trkpt>
      <trkpt lat="42.26890764199197292327880859375" lon="1.71435845084488391876220703125">
        <ele>1808</ele>
        <time>2020-08-11T09:08:33.000Z</time>
      </trkpt>
      <trkpt lat="42.2689347155392169952392578125" lon="1.71426641754806041717529296875">
        <ele>1808.800048828125</ele>
        <time>2020-08-11T09:08:38.000Z</time>
      </trkpt>
      <trkpt lat="42.2689384035766124725341796875" lon="1.714238338172435760498046875">
        <ele>1809</ele>
        <time>2020-08-11T09:08:40.000Z</time>
      </trkpt>
      <trkpt lat="42.26896346546709537506103515625" lon="1.714123003184795379638671875">
        <ele>1809</ele>
        <time>2020-08-11T09:08:47.000Z</time>
      </trkpt>
      <trkpt lat="42.268985174596309661865234375" lon="1.713997609913349151611328125">
        <ele>1809.199951171875</ele>
        <time>2020-08-11T09:08:54.000Z</time>
      </trkpt>
      <trkpt lat="42.26901090703904628753662109375" lon="1.71389509923756122589111328125">
        <ele>1809.5999755859375</ele>
        <time>2020-08-11T09:09:00.000Z</time>
      </trkpt>
      <trkpt lat="42.26902247406542301177978515625" lon="1.71384346671402454376220703125">
        <ele>1810.5999755859375</ele>
        <time>2020-08-11T09:09:03.000Z</time>
      </trkpt>
      <trkpt lat="42.2690284252166748046875" lon="1.71382636763155460357666015625">
        <ele>1810.800048828125</ele>
        <time>2020-08-11T09:09:04.000Z</time>
      </trkpt>
      <trkpt lat="42.269056253135204315185546875" lon="1.71372293494641780853271484375">
        <ele>1811</ele>
        <time>2020-08-11T09:09:10.000Z</time>
      </trkpt>
      <trkpt lat="42.2691249847412109375" lon="1.71358622610569000244140625">
        <ele>1811.4000244140625</ele>
        <time>2020-08-11T09:09:18.000Z</time>
      </trkpt>
      <trkpt lat="42.26920352317392826080322265625" lon="1.713413894176483154296875">
        <ele>1810.800048828125</ele>
        <time>2020-08-11T09:09:27.000Z</time>
      </trkpt>
      <trkpt lat="42.26923520676791667938232421875" lon="1.71334742568433284759521484375">
        <ele>1811.4000244140625</ele>
        <time>2020-08-11T09:09:34.000Z</time>
      </trkpt>
      <trkpt lat="42.26923738606274127960205078125" lon="1.71334742568433284759521484375">
        <ele>1811.5999755859375</ele>
        <time>2020-08-11T09:09:45.000Z</time>
      </trkpt>
      <trkpt lat="42.2692374698817729949951171875" lon="1.7133483476936817169189453125">
        <ele>1811.4000244140625</ele>
        <time>2020-08-11T09:09:48.000Z</time>
      </trkpt>
      <trkpt lat="42.26924023590981960296630859375" lon="1.71333971433341503143310546875">
        <ele>1811.5999755859375</ele>
        <time>2020-08-11T09:10:01.000Z</time>
      </trkpt>
      <trkpt lat="42.26927292533218860626220703125" lon="1.71329461969435214996337890625">
        <ele>1811.5999755859375</ele>
        <time>2020-08-11T09:10:11.000Z</time>
      </trkpt>
      <trkpt lat="42.2692834027111530303955078125" lon="1.71327986754477024078369140625">
        <ele>1811.800048828125</ele>
        <time>2020-08-11T09:10:17.000Z</time>
      </trkpt>
      <trkpt lat="42.2692830674350261688232421875" lon="1.7132792808115482330322265625">
        <ele>1811.800048828125</ele>
        <time>2020-08-11T09:10:19.000Z</time>
      </trkpt>
      <trkpt lat="42.26928315125405788421630859375" lon="1.713279783725738525390625">
        <ele>1812.4000244140625</ele>
        <time>2020-08-11T09:10:41.000Z</time>
      </trkpt>
      <trkpt lat="42.2692872583866119384765625" lon="1.71327366493642330169677734375">
        <ele>1812.4000244140625</ele>
        <time>2020-08-11T09:10:44.000Z</time>
      </trkpt>
      <trkpt lat="42.26933889091014862060546875" lon="1.7132370360195636749267578125">
        <ele>1812.5999755859375</ele>
        <time>2020-08-11T09:10:50.000Z</time>
      </trkpt>
      <trkpt lat="42.26948884315788745880126953125" lon="1.71320811845362186431884765625">
        <ele>1813</ele>
        <time>2020-08-11T09:10:57.000Z</time>
      </trkpt>
      <trkpt lat="42.26953108794987201690673828125" lon="1.71318121254444122314453125">
        <ele>1813.199951171875</ele>
        <time>2020-08-11T09:10:59.000Z</time>
      </trkpt>
      <trkpt lat="42.26957450620830059051513671875" lon="1.7131146602332592010498046875">
        <ele>1813.4000244140625</ele>
        <time>2020-08-11T09:11:02.000Z</time>
      </trkpt>
      <trkpt lat="42.2695623524487018585205078125" lon="1.71299588866531848907470703125">
        <ele>1813.5999755859375</ele>
        <time>2020-08-11T09:11:07.000Z</time>
      </trkpt>
      <trkpt lat="42.26947124116122722625732421875" lon="1.71281970106065273284912109375">
        <ele>1814</ele>
        <time>2020-08-11T09:11:16.000Z</time>
      </trkpt>
      <trkpt lat="42.2694490291178226470947265625" lon="1.71278365887701511383056640625">
        <ele>1814.199951171875</ele>
        <time>2020-08-11T09:11:18.000Z</time>
      </trkpt>
      <trkpt lat="42.269408963620662689208984375" lon="1.712633706629276275634765625">
        <ele>1815</ele>
        <time>2020-08-11T09:11:25.000Z</time>
      </trkpt>
      <trkpt lat="42.2694198600947856903076171875" lon="1.712510325014591217041015625">
        <ele>1815.199951171875</ele>
        <time>2020-08-11T09:11:31.000Z</time>
      </trkpt>
      <trkpt lat="42.26942882873117923736572265625" lon="1.71245098114013671875">
        <ele>1815.199951171875</ele>
        <time>2020-08-11T09:11:34.000Z</time>
      </trkpt>
      <trkpt lat="42.2694577462971210479736328125" lon="1.712311841547489166259765625">
        <ele>1816</ele>
        <time>2020-08-11T09:11:41.000Z</time>
      </trkpt>
      <trkpt lat="42.26948079653084278106689453125" lon="1.712211258709430694580078125">
        <ele>1816.199951171875</ele>
        <time>2020-08-11T09:11:46.000Z</time>
      </trkpt>
      <trkpt lat="42.2694952972233295440673828125" lon="1.712177731096744537353515625">
        <ele>1816.199951171875</ele>
        <time>2020-08-11T09:11:48.000Z</time>
      </trkpt>
      <trkpt lat="42.269497476518154144287109375" lon="1.71217312105000019073486328125">
        <ele>1816.4000244140625</ele>
        <time>2020-08-11T09:11:53.000Z</time>
      </trkpt>
      <trkpt lat="42.26950795389711856842041015625" lon="1.712136156857013702392578125">
        <ele>1816.199951171875</ele>
        <time>2020-08-11T09:11:58.000Z</time>
      </trkpt>
      <trkpt lat="42.26951667107641696929931640625" lon="1.7121232487261295318603515625">
        <ele>1816.4000244140625</ele>
        <time>2020-08-11T09:11:59.000Z</time>
      </trkpt>
      <trkpt lat="42.26957065053284168243408203125" lon="1.71205736696720123291015625">
        <ele>1817</ele>
        <time>2020-08-11T09:12:04.000Z</time>
      </trkpt>
      <trkpt lat="42.26960032247006893157958984375" lon="1.71203616075217723846435546875">
        <ele>1817.199951171875</ele>
        <time>2020-08-11T09:12:06.000Z</time>
      </trkpt>
      <trkpt lat="42.2697058506309986114501953125" lon="1.71199995093047618865966796875">
        <ele>1817.800048828125</ele>
        <time>2020-08-11T09:12:12.000Z</time>
      </trkpt>
      <trkpt lat="42.26980349980294704437255859375" lon="1.7118808440864086151123046875">
        <ele>1817.5999755859375</ele>
        <time>2020-08-11T09:12:19.000Z</time>
      </trkpt>
      <trkpt lat="42.26981825195252895355224609375" lon="1.7117467336356639862060546875">
        <ele>1818</ele>
        <time>2020-08-11T09:12:25.000Z</time>
      </trkpt>
      <trkpt lat="42.26981959305703639984130859375" lon="1.7117232643067836761474609375">
        <ele>1818.199951171875</ele>
        <time>2020-08-11T09:12:26.000Z</time>
      </trkpt>
      <trkpt lat="42.26982344873249530792236328125" lon="1.7116293869912624359130859375">
        <ele>1819</ele>
        <time>2020-08-11T09:12:30.000Z</time>
      </trkpt>
      <trkpt lat="42.269830740988254547119140625" lon="1.71149075031280517578125">
        <ele>1819.5999755859375</ele>
        <time>2020-08-11T09:12:36.000Z</time>
      </trkpt>
      <trkpt lat="42.26983241736888885498046875" lon="1.7114473320543766021728515625">
        <ele>1820</ele>
        <time>2020-08-11T09:12:38.000Z</time>
      </trkpt>
      <trkpt lat="42.2698345966637134552001953125" lon="1.71132889576256275177001953125">
        <ele>1820.199951171875</ele>
        <time>2020-08-11T09:12:43.000Z</time>
      </trkpt>
      <trkpt lat="42.2698317468166351318359375" lon="1.7111707292497158050537109375">
        <ele>1821</ele>
        <time>2020-08-11T09:12:50.000Z</time>
      </trkpt>
      <trkpt lat="42.26981942541897296905517578125" lon="1.71111046336591243743896484375">
        <ele>1821.4000244140625</ele>
        <time>2020-08-11T09:12:53.000Z</time>
      </trkpt>
      <trkpt lat="42.2697083652019500732421875" lon="1.71098087914288043975830078125">
        <ele>1821.800048828125</ele>
        <time>2020-08-11T09:13:01.000Z</time>
      </trkpt>
      <trkpt lat="42.26969285868108272552490234375" lon="1.7109690606594085693359375">
        <ele>1822</ele>
        <time>2020-08-11T09:13:02.000Z</time>
      </trkpt>
      <trkpt lat="42.26960535161197185516357421875" lon="1.710896976292133331298828125">
        <ele>1822.5999755859375</ele>
        <time>2020-08-11T09:13:08.000Z</time>
      </trkpt>
      <trkpt lat="42.26954944431781768798828125" lon="1.71084727160632610321044921875">
        <ele>1823.199951171875</ele>
        <time>2020-08-11T09:13:12.000Z</time>
      </trkpt>
      <trkpt lat="42.26951415650546550750732421875" lon="1.71079915948212146759033203125">
        <ele>1823.4000244140625</ele>
        <time>2020-08-11T09:13:15.000Z</time>
      </trkpt>
      <trkpt lat="42.2694456763565540313720703125" lon="1.71061743982136249542236328125">
        <ele>1824</ele>
        <time>2020-08-11T09:13:24.000Z</time>
      </trkpt>
      <trkpt lat="42.26943276822566986083984375" lon="1.710522472858428955078125">
        <ele>1824.199951171875</ele>
        <time>2020-08-11T09:13:28.000Z</time>
      </trkpt>
      <trkpt lat="42.2694245539605617523193359375" lon="1.71045072376728057861328125">
        <ele>1824.800048828125</ele>
        <time>2020-08-11T09:13:31.000Z</time>
      </trkpt>
      <trkpt lat="42.269421704113483428955078125" lon="1.710333041846752166748046875">
        <ele>1825.5999755859375</ele>
        <time>2020-08-11T09:13:36.000Z</time>
      </trkpt>
      <trkpt lat="42.26940653286874294281005859375" lon="1.7102373205125331878662109375">
        <ele>1825.800048828125</ele>
        <time>2020-08-11T09:13:40.000Z</time>
      </trkpt>
      <trkpt lat="42.26937367580831050872802734375" lon="1.710043363273143768310546875">
        <ele>1826.4000244140625</ele>
        <time>2020-08-11T09:13:48.000Z</time>
      </trkpt>
      <trkpt lat="42.26935104466974735260009765625" lon="1.7099144496023654937744140625">
        <ele>1826.5999755859375</ele>
        <time>2020-08-11T09:13:53.000Z</time>
      </trkpt>
      <trkpt lat="42.2693377174437046051025390625" lon="1.70983775518834590911865234375">
        <ele>1826.800048828125</ele>
        <time>2020-08-11T09:13:56.000Z</time>
      </trkpt>
      <trkpt lat="42.26932740770280361175537109375" lon="1.7097196541726589202880859375">
        <ele>1827.4000244140625</ele>
        <time>2020-08-11T09:14:01.000Z</time>
      </trkpt>
      <trkpt lat="42.26932472549378871917724609375" lon="1.70964245684444904327392578125">
        <ele>1827.5999755859375</ele>
        <time>2020-08-11T09:14:04.000Z</time>
      </trkpt>
      <trkpt lat="42.269318439066410064697265625" lon="1.70943290926516056060791015625">
        <ele>1828.199951171875</ele>
        <time>2020-08-11T09:14:12.000Z</time>
      </trkpt>
      <trkpt lat="42.26931340992450714111328125" lon="1.709382198750972747802734375">
        <ele>1828.5999755859375</ele>
        <time>2020-08-11T09:14:14.000Z</time>
      </trkpt>
      <trkpt lat="42.26930460892617702484130859375" lon="1.7092336714267730712890625">
        <ele>1828.800048828125</ele>
        <time>2020-08-11T09:14:20.000Z</time>
      </trkpt>
      <trkpt lat="42.26931449957191944122314453125" lon="1.70903711579740047454833984375">
        <ele>1829.5999755859375</ele>
        <time>2020-08-11T09:14:28.000Z</time>
      </trkpt>
      <trkpt lat="42.2693186067044734954833984375" lon="1.7090125568211078643798828125">
        <ele>1829.5999755859375</ele>
        <time>2020-08-11T09:14:29.000Z</time>
      </trkpt>
      <trkpt lat="42.2693652100861072540283203125" lon="1.70889244414865970611572265625">
        <ele>1830</ele>
        <time>2020-08-11T09:14:35.000Z</time>
      </trkpt>
      <trkpt lat="42.269424386322498321533203125" lon="1.70876889489591121673583984375">
        <ele>1830.4000244140625</ele>
        <time>2020-08-11T09:14:41.000Z</time>
      </trkpt>
      <trkpt lat="42.26944643072783946990966796875" lon="1.7086999118328094482421875">
        <ele>1830.800048828125</ele>
        <time>2020-08-11T09:14:44.000Z</time>
      </trkpt>
      <trkpt lat="42.2694859094917774200439453125" lon="1.708566136658191680908203125">
        <ele>1831.5999755859375</ele>
        <time>2020-08-11T09:14:50.000Z</time>
      </trkpt>
      <trkpt lat="42.2695040144026279449462890625" lon="1.70849002897739410400390625">
        <ele>1831.800048828125</ele>
        <time>2020-08-11T09:14:53.000Z</time>
      </trkpt>
      <trkpt lat="42.2695583291351795196533203125" lon="1.708350889384746551513671875">
        <ele>1832.5999755859375</ele>
        <time>2020-08-11T09:14:59.000Z</time>
      </trkpt>
      <trkpt lat="42.2695834748446941375732421875" lon="1.708307303488254547119140625">
        <ele>1833</ele>
        <time>2020-08-11T09:15:01.000Z</time>
      </trkpt>
      <trkpt lat="42.2696466743946075439453125" lon="1.70816120691597461700439453125">
        <ele>1833.800048828125</ele>
        <time>2020-08-11T09:15:07.000Z</time>
      </trkpt>
      <trkpt lat="42.269652374088764190673828125" lon="1.70813337899744510650634765625">
        <ele>1833.800048828125</ele>
        <time>2020-08-11T09:15:08.000Z</time>
      </trkpt>
      <trkpt lat="42.26969537325203418731689453125" lon="1.707952581346035003662109375">
        <ele>1834.800048828125</ele>
        <time>2020-08-11T09:15:15.000Z</time>
      </trkpt>
      <trkpt lat="42.26970241405069828033447265625" lon="1.7079301178455352783203125">
        <ele>1835</ele>
        <time>2020-08-11T09:15:16.000Z</time>
      </trkpt>
      <trkpt lat="42.26975463330745697021484375" lon="1.70777278952300548553466796875">
        <ele>1835.800048828125</ele>
        <time>2020-08-11T09:15:22.000Z</time>
      </trkpt>
      <trkpt lat="42.26978003047406673431396484375" lon="1.70773029327392578125">
        <ele>1836.4000244140625</ele>
        <time>2020-08-11T09:15:24.000Z</time>
      </trkpt>
      <trkpt lat="42.2698305733501911163330078125" lon="1.70755368657410144805908203125">
        <ele>1836.5999755859375</ele>
        <time>2020-08-11T09:15:31.000Z</time>
      </trkpt>
      <trkpt lat="42.26983317174017429351806640625" lon="1.70752703212201595306396484375">
        <ele>1836.800048828125</ele>
        <time>2020-08-11T09:15:32.000Z</time>
      </trkpt>
      <trkpt lat="42.26983719505369663238525390625" lon="1.70740096829831600189208984375">
        <ele>1837.800048828125</ele>
        <time>2020-08-11T09:15:37.000Z</time>
      </trkpt>
      <trkpt lat="42.2698049247264862060546875" lon="1.70727825723588466644287109375">
        <ele>1838.800048828125</ele>
        <time>2020-08-11T09:15:42.000Z</time>
      </trkpt>
      <trkpt lat="42.2696961276233196258544921875" lon="1.70720935799181461334228515625">
        <ele>1839.4000244140625</ele>
        <time>2020-08-11T09:15:48.000Z</time>
      </trkpt>
      <trkpt lat="42.2696411423385143280029296875" lon="1.70719527639448642730712890625">
        <ele>1840</ele>
        <time>2020-08-11T09:15:51.000Z</time>
      </trkpt>
      <trkpt lat="42.269535027444362640380859375" lon="1.70716845430433750152587890625">
        <ele>1840.800048828125</ele>
        <time>2020-08-11T09:15:57.000Z</time>
      </trkpt>
      <trkpt lat="42.26950158365070819854736328125" lon="1.70714783482253551483154296875">
        <ele>1840.800048828125</ele>
        <time>2020-08-11T09:15:59.000Z</time>
      </trkpt>
      <trkpt lat="42.26942849345505237579345703125" lon="1.70708429999649524688720703125">
        <ele>1841.5999755859375</ele>
        <time>2020-08-11T09:16:04.000Z</time>
      </trkpt>
      <trkpt lat="42.269385159015655517578125" lon="1.70704431831836700439453125">
        <ele>1841.800048828125</ele>
        <time>2020-08-11T09:16:07.000Z</time>
      </trkpt>
      <trkpt lat="42.26929924450814723968505859375" lon="1.7069993913173675537109375">
        <ele>1843</ele>
        <time>2020-08-11T09:16:12.000Z</time>
      </trkpt>
      <trkpt lat="42.26928181014955043792724609375" lon="1.7069948650896549224853515625">
        <ele>1843.199951171875</ele>
        <time>2020-08-11T09:16:13.000Z</time>
      </trkpt>
      <trkpt lat="42.26915591396391391754150390625" lon="1.70694767497479915618896484375">
        <ele>1843.800048828125</ele>
        <time>2020-08-11T09:16:20.000Z</time>
      </trkpt>
      <trkpt lat="42.26910847239196300506591796875" lon="1.70689872466027736663818359375">
        <ele>1844.199951171875</ele>
        <time>2020-08-11T09:16:23.000Z</time>
      </trkpt>
      <trkpt lat="42.26905834861099720001220703125" lon="1.706811971962451934814453125">
        <ele>1844.5999755859375</ele>
        <time>2020-08-11T09:16:27.000Z</time>
      </trkpt>
      <trkpt lat="42.2689471207559108734130859375" lon="1.70665673911571502685546875">
        <ele>1845.4000244140625</ele>
        <time>2020-08-11T09:16:35.000Z</time>
      </trkpt>
      <trkpt lat="42.268787361681461334228515625" lon="1.706610806286334991455078125">
        <ele>1846.199951171875</ele>
        <time>2020-08-11T09:16:44.000Z</time>
      </trkpt>
      <trkpt lat="42.26873262785375118255615234375" lon="1.70661407522857189178466796875">
        <ele>1846.4000244140625</ele>
        <time>2020-08-11T09:16:47.000Z</time>
      </trkpt>
      <trkpt lat="42.26865702308714389801025390625" lon="1.70662061311304569244384765625">
        <ele>1846.4000244140625</ele>
        <time>2020-08-11T09:16:51.000Z</time>
      </trkpt>
      <trkpt lat="42.2686379961669445037841796875" lon="1.7066149972379207611083984375">
        <ele>1846.5999755859375</ele>
        <time>2020-08-11T09:16:52.000Z</time>
      </trkpt>
      <trkpt lat="42.26852995343506336212158203125" lon="1.70650393702089786529541015625">
        <ele>1847.4000244140625</ele>
        <time>2020-08-11T09:16:59.000Z</time>
      </trkpt>
      <trkpt lat="42.26846273057162761688232421875" lon="1.70633445493876934051513671875">
        <ele>1847.4000244140625</ele>
        <time>2020-08-11T09:17:06.000Z</time>
      </trkpt>
      <trkpt lat="42.26840053685009479522705078125" lon="1.70614351518452167510986328125">
        <ele>1848.199951171875</ele>
        <time>2020-08-11T09:17:14.000Z</time>
      </trkpt>
      <trkpt lat="42.2683955915272235870361328125" lon="1.7061181180179119110107421875">
        <ele>1848.4000244140625</ele>
        <time>2020-08-11T09:17:15.000Z</time>
      </trkpt>
      <trkpt lat="42.2683794982731342315673828125" lon="1.70593933202326297760009765625">
        <ele>1849.5999755859375</ele>
        <time>2020-08-11T09:17:22.000Z</time>
      </trkpt>
      <trkpt lat="42.2683442942798137664794921875" lon="1.7057694308459758758544921875">
        <ele>1849.5999755859375</ele>
        <time>2020-08-11T09:17:29.000Z</time>
      </trkpt>
      <trkpt lat="42.2683308832347393035888671875" lon="1.70568645000457763671875">
        <ele>1850.5999755859375</ele>
        <time>2020-08-11T09:17:33.000Z</time>
      </trkpt>
      <trkpt lat="42.2683203220367431640625" lon="1.7056269384920597076416015625">
        <ele>1850.800048828125</ele>
        <time>2020-08-11T09:17:36.000Z</time>
      </trkpt>
      <trkpt lat="42.26829953491687774658203125" lon="1.70546173118054866790771484375">
        <ele>1850.800048828125</ele>
        <time>2020-08-11T09:17:44.000Z</time>
      </trkpt>
      <trkpt lat="42.26827003061771392822265625" lon="1.70531018637120723724365234375">
        <ele>1851.4000244140625</ele>
        <time>2020-08-11T09:17:51.000Z</time>
      </trkpt>
      <trkpt lat="42.26826592348515987396240234375" lon="1.70528856106102466583251953125">
        <ele>1851.5999755859375</ele>
        <time>2020-08-11T09:17:52.000Z</time>
      </trkpt>
      <trkpt lat="42.26824429817497730255126953125" lon="1.70517909340560436248779296875">
        <ele>1852.5999755859375</ele>
        <time>2020-08-11T09:17:57.000Z</time>
      </trkpt>
      <trkpt lat="42.268232814967632293701171875" lon="1.70504833571612834930419921875">
        <ele>1853</ele>
        <time>2020-08-11T09:18:03.000Z</time>
      </trkpt>
      <trkpt lat="42.268226109445095062255859375" lon="1.70498169958591461181640625">
        <ele>1853.5999755859375</ele>
        <time>2020-08-11T09:18:06.000Z</time>
      </trkpt>
      <trkpt lat="42.26821127347648143768310546875" lon="1.7048856429755687713623046875">
        <ele>1853.5999755859375</ele>
        <time>2020-08-11T09:18:10.000Z</time>
      </trkpt>
      <trkpt lat="42.268162406980991363525390625" lon="1.7047243751585483551025390625">
        <ele>1854</ele>
        <time>2020-08-11T09:18:17.000Z</time>
      </trkpt>
      <trkpt lat="42.26808118633925914764404296875" lon="1.70458431355655193328857421875">
        <ele>1854.4000244140625</ele>
        <time>2020-08-11T09:18:24.000Z</time>
      </trkpt>
      <trkpt lat="42.26806945167481899261474609375" lon="1.70456654392182826995849609375">
        <ele>1854.4000244140625</ele>
        <time>2020-08-11T09:18:25.000Z</time>
      </trkpt>
      <trkpt lat="42.26801245473325252532958984375" lon="1.70443813316524028778076171875">
        <ele>1855.4000244140625</ele>
        <time>2020-08-11T09:18:31.000Z</time>
      </trkpt>
      <trkpt lat="42.2680076770484447479248046875" lon="1.70441449619829654693603515625">
        <ele>1855.4000244140625</ele>
        <time>2020-08-11T09:18:32.000Z</time>
      </trkpt>
      <trkpt lat="42.26800004951655864715576171875" lon="1.7043703235685825347900390625">
        <ele>1856</ele>
        <time>2020-08-11T09:18:34.000Z</time>
      </trkpt>
      <trkpt lat="42.26797020994126796722412109375" lon="1.7042355425655841827392578125">
        <ele>1856.4000244140625</ele>
        <time>2020-08-11T09:18:40.000Z</time>
      </trkpt>
      <trkpt lat="42.267961241304874420166015625" lon="1.7041616141796112060546875">
        <ele>1856.5999755859375</ele>
        <time>2020-08-11T09:18:43.000Z</time>
      </trkpt>
      <trkpt lat="42.26797171868383884429931640625" lon="1.70408315956592559814453125">
        <ele>1856.199951171875</ele>
        <time>2020-08-11T09:18:47.000Z</time>
      </trkpt>
      <trkpt lat="42.2679751552641391754150390625" lon="1.70407419092953205108642578125">
        <ele>1856</ele>
        <time>2020-08-11T09:18:53.000Z</time>
      </trkpt>
      <trkpt lat="42.268004156649112701416015625" lon="1.70396053232252597808837890625">
        <ele>1855.800048828125</ele>
        <time>2020-08-11T09:19:00.000Z</time>
      </trkpt>
      <trkpt lat="42.2680438868701457977294921875" lon="1.7038040421903133392333984375">
        <ele>1855.800048828125</ele>
        <time>2020-08-11T09:19:07.000Z</time>
      </trkpt>
      <trkpt lat="42.26805654354393482208251953125" lon="1.70375785790383815765380859375">
        <ele>1855.4000244140625</ele>
        <time>2020-08-11T09:19:10.000Z</time>
      </trkpt>
      <trkpt lat="42.268065176904201507568359375" lon="1.70366398058831691741943359375">
        <ele>1855.199951171875</ele>
        <time>2020-08-11T09:19:15.000Z</time>
      </trkpt>
      <trkpt lat="42.26809593848884105682373046875" lon="1.7035130225121974945068359375">
        <ele>1854.5999755859375</ele>
        <time>2020-08-11T09:19:23.000Z</time>
      </trkpt>
      <trkpt lat="42.2681285440921783447265625" lon="1.70332769863307476043701171875">
        <ele>1854.800048828125</ele>
        <time>2020-08-11T09:19:29.000Z</time>
      </trkpt>
      <trkpt lat="42.26811119355261325836181640625" lon="1.70318403281271457672119140625">
        <ele>1854</ele>
        <time>2020-08-11T09:19:33.000Z</time>
      </trkpt>
      <trkpt lat="42.26810616441071033477783203125" lon="1.7031093500554561614990234375">
        <ele>1853.5999755859375</ele>
        <time>2020-08-11T09:19:35.000Z</time>
      </trkpt>
      <trkpt lat="42.26813583634793758392333984375" lon="1.70286007225513458251953125">
        <ele>1853.800048828125</ele>
        <time>2020-08-11T09:19:42.000Z</time>
      </trkpt>
      <trkpt lat="42.26813935674726963043212890625" lon="1.702665276825428009033203125">
        <ele>1853</ele>
        <time>2020-08-11T09:19:47.000Z</time>
      </trkpt>
      <trkpt lat="42.2681411169469356536865234375" lon="1.702470146119594573974609375">
        <ele>1852.800048828125</ele>
        <time>2020-08-11T09:19:53.000Z</time>
      </trkpt>
      <trkpt lat="42.26814656518399715423583984375" lon="1.7024304158985614776611328125">
        <ele>1852.199951171875</ele>
        <time>2020-08-11T09:19:57.000Z</time>
      </trkpt>
      <trkpt lat="42.26814421825110912322998046875" lon="1.70243150554597377777099609375">
        <ele>1851.800048828125</ele>
        <time>2020-08-11T09:20:05.000Z</time>
      </trkpt>
      <trkpt lat="42.26814874447882175445556640625" lon="1.70241910032927989959716796875">
        <ele>1851.5999755859375</ele>
        <time>2020-08-11T09:20:11.000Z</time>
      </trkpt>
      <trkpt lat="42.26815125904977321624755859375" lon="1.70242027379572391510009765625">
        <ele>1852</ele>
        <time>2020-08-11T09:21:02.000Z</time>
      </trkpt>
      <trkpt lat="42.26815025322139263153076171875" lon="1.7024208605289459228515625">
        <ele>1852</ele>
        <time>2020-08-11T09:21:23.000Z</time>
      </trkpt>
      <trkpt lat="42.26815075613558292388916015625" lon="1.702421866357326507568359375">
        <ele>1852.199951171875</ele>
        <time>2020-08-11T09:21:33.000Z</time>
      </trkpt>
      <trkpt lat="42.26815058849751949310302734375" lon="1.70242547057569026947021484375">
        <ele>1852.199951171875</ele>
        <time>2020-08-11T09:22:09.000Z</time>
      </trkpt>
      <trkpt lat="42.26815075613558292388916015625" lon="1.70242697931826114654541015625">
        <ele>1852.199951171875</ele>
        <time>2020-08-11T09:22:43.000Z</time>
      </trkpt>
      <trkpt lat="42.26815067231655120849609375" lon="1.70242882333695888519287109375">
        <ele>1852</ele>
        <time>2020-08-11T09:23:11.000Z</time>
      </trkpt>
      <trkpt lat="42.2681505046784877777099609375" lon="1.70243351720273494720458984375">
        <ele>1852.5999755859375</ele>
        <time>2020-08-11T09:24:29.000Z</time>
      </trkpt>
      <trkpt lat="42.2681515105068683624267578125" lon="1.70242480002343654632568359375">
        <ele>1852.800048828125</ele>
        <time>2020-08-11T09:24:34.000Z</time>
      </trkpt>
      <trkpt lat="42.2681629098951816558837890625" lon="1.70236964710056781768798828125">
        <ele>1852.800048828125</ele>
        <time>2020-08-11T09:24:37.000Z</time>
      </trkpt>
      <trkpt lat="42.26818042807281017303466796875" lon="1.7023160867393016815185546875">
        <ele>1852.5999755859375</ele>
        <time>2020-08-11T09:24:39.000Z</time>
      </trkpt>
      <trkpt lat="42.26822971366345882415771484375" lon="1.70217736624181270599365234375">
        <ele>1852</ele>
        <time>2020-08-11T09:24:43.000Z</time>
      </trkpt>
      <trkpt lat="42.2683043964207172393798828125" lon="1.70206253416836261749267578125">
        <ele>1851.5999755859375</ele>
        <time>2020-08-11T09:24:46.000Z</time>
      </trkpt>
      <trkpt lat="42.2683955915272235870361328125" lon="1.7019295133650302886962890625">
        <ele>1851.5999755859375</ele>
        <time>2020-08-11T09:24:49.000Z</time>
      </trkpt>
      <trkpt lat="42.26842291653156280517578125" lon="1.70187226496636867523193359375">
        <ele>1851.4000244140625</ele>
        <time>2020-08-11T09:24:50.000Z</time>
      </trkpt>
      <trkpt lat="42.26846893317997455596923828125" lon="1.701671518385410308837890625">
        <ele>1851</ele>
        <time>2020-08-11T09:24:53.000Z</time>
      </trkpt>
      <trkpt lat="42.26849022321403026580810546875" lon="1.701526008546352386474609375">
        <ele>1850.199951171875</ele>
        <time>2020-08-11T09:24:55.000Z</time>
      </trkpt>
      <trkpt lat="42.2685134410858154296875" lon="1.70129123143851757049560546875">
        <ele>1849</ele>
        <time>2020-08-11T09:24:58.000Z</time>
      </trkpt>
      <trkpt lat="42.268515117466449737548828125" lon="1.7011280357837677001953125">
        <ele>1848.4000244140625</ele>
        <time>2020-08-11T09:25:00.000Z</time>
      </trkpt>
      <trkpt lat="42.26846071891486644744873046875" lon="1.70073031447827816009521484375">
        <ele>1848</ele>
        <time>2020-08-11T09:25:05.000Z</time>
      </trkpt>
      <trkpt lat="42.268457449972629547119140625" lon="1.7006487585604190826416015625">
        <ele>1847.5999755859375</ele>
        <time>2020-08-11T09:25:06.000Z</time>
      </trkpt>
      <trkpt lat="42.2684557735919952392578125" lon="1.700485646724700927734375">
        <ele>1846.199951171875</ele>
        <time>2020-08-11T09:25:08.000Z</time>
      </trkpt>
      <trkpt lat="42.26845183409750461578369140625" lon="1.7002313397824764251708984375">
        <ele>1845.5999755859375</ele>
        <time>2020-08-11T09:25:11.000Z</time>
      </trkpt>
      <trkpt lat="42.26841109804809093475341796875" lon="1.69991475529968738555908203125">
        <ele>1844.5999755859375</ele>
        <time>2020-08-11T09:25:15.000Z</time>
      </trkpt>
      <trkpt lat="42.268411181867122650146484375" lon="1.6998420841991901397705078125">
        <ele>1843.5999755859375</ele>
        <time>2020-08-11T09:25:16.000Z</time>
      </trkpt>
      <trkpt lat="42.268418557941913604736328125" lon="1.6997676528990268707275390625">
        <ele>1842.800048828125</ele>
        <time>2020-08-11T09:25:17.000Z</time>
      </trkpt>
      <trkpt lat="42.26844429038465023040771484375" lon="1.6995329596102237701416015625">
        <ele>1842.199951171875</ele>
        <time>2020-08-11T09:25:20.000Z</time>
      </trkpt>
      <trkpt lat="42.26837673224508762359619140625" lon="1.699214614927768707275390625">
        <ele>1841.5999755859375</ele>
        <time>2020-08-11T09:25:24.000Z</time>
      </trkpt>
      <trkpt lat="42.26835108362138271331787109375" lon="1.6991376690566539764404296875">
        <ele>1841</ele>
        <time>2020-08-11T09:25:25.000Z</time>
      </trkpt>
      <trkpt lat="42.2683241777122020721435546875" lon="1.69906432740390300750732421875">
        <ele>1840.5999755859375</ele>
        <time>2020-08-11T09:25:26.000Z</time>
      </trkpt>
      <trkpt lat="42.26821177639067173004150390625" lon="1.69878202490508556365966796875">
        <ele>1840.199951171875</ele>
        <time>2020-08-11T09:25:30.000Z</time>
      </trkpt>
      <trkpt lat="42.26814991794526576995849609375" lon="1.69855101965367794036865234375">
        <ele>1839</ele>
        <time>2020-08-11T09:25:33.000Z</time>
      </trkpt>
      <trkpt lat="42.268118150532245635986328125" lon="1.69839109294116497039794921875">
        <ele>1837.5999755859375</ele>
        <time>2020-08-11T09:25:35.000Z</time>
      </trkpt>
      <trkpt lat="42.26809141226112842559814453125" lon="1.6982232034206390380859375">
        <ele>1836.5999755859375</ele>
        <time>2020-08-11T09:25:37.000Z</time>
      </trkpt>
      <trkpt lat="42.26807481609284877777099609375" lon="1.6981388814747333526611328125">
        <ele>1836.4000244140625</ele>
        <time>2020-08-11T09:25:38.000Z</time>
      </trkpt>
      <trkpt lat="42.26800356991589069366455078125" lon="1.6977135837078094482421875">
        <ele>1836.4000244140625</ele>
        <time>2020-08-11T09:25:43.000Z</time>
      </trkpt>
      <trkpt lat="42.26796987466514110565185546875" lon="1.6975430957973003387451171875">
        <ele>1835.4000244140625</ele>
        <time>2020-08-11T09:25:45.000Z</time>
      </trkpt>
      <trkpt lat="42.26794405840337276458740234375" lon="1.69746589846909046173095703125">
        <ele>1835.199951171875</ele>
        <time>2020-08-11T09:25:46.000Z</time>
      </trkpt>
      <trkpt lat="42.2679151408374309539794921875" lon="1.69739163480699062347412109375">
        <ele>1835</ele>
        <time>2020-08-11T09:25:47.000Z</time>
      </trkpt>
      <trkpt lat="42.2678561322391033172607421875" lon="1.697245202958583831787109375">
        <ele>1834.199951171875</ele>
        <time>2020-08-11T09:25:49.000Z</time>
      </trkpt>
      <trkpt lat="42.26768656633794307708740234375" lon="1.69692191295325756072998046875">
        <ele>1833.199951171875</ele>
        <time>2020-08-11T09:25:54.000Z</time>
      </trkpt>
      <trkpt lat="42.26758464239537715911865234375" lon="1.69673013500869274139404296875">
        <ele>1832.800048828125</ele>
        <time>2020-08-11T09:25:57.000Z</time>
      </trkpt>
      <trkpt lat="42.2675057686865329742431640625" lon="1.696617566049098968505859375">
        <ele>1831</ele>
        <time>2020-08-11T09:25:59.000Z</time>
      </trkpt>
      <trkpt lat="42.2674618475139141082763671875" lon="1.69656886719167232513427734375">
        <ele>1831</ele>
        <time>2020-08-11T09:26:00.000Z</time>
      </trkpt>
      <trkpt lat="42.26729982532560825347900390625" lon="1.6963783465325832366943359375">
        <ele>1831</ele>
        <time>2020-08-11T09:26:04.000Z</time>
      </trkpt>
      <trkpt lat="42.26723830215632915496826171875" lon="1.696263514459133148193359375">
        <ele>1831</ele>
        <time>2020-08-11T09:26:06.000Z</time>
      </trkpt>
      <trkpt lat="42.2671373002231121063232421875" lon="1.69602471403777599334716796875">
        <ele>1829.4000244140625</ele>
        <time>2020-08-11T09:26:10.000Z</time>
      </trkpt>
      <trkpt lat="42.26708793081343173980712890625" lon="1.695906780660152435302734375">
        <ele>1828.4000244140625</ele>
        <time>2020-08-11T09:26:12.000Z</time>
      </trkpt>
      <trkpt lat="42.26703529246151447296142578125" lon="1.6957872547209262847900390625">
        <ele>1828.199951171875</ele>
        <time>2020-08-11T09:26:14.000Z</time>
      </trkpt>
      <trkpt lat="42.26691543124616146087646484375" lon="1.6953773796558380126953125">
        <ele>1828.199951171875</ele>
        <time>2020-08-11T09:26:20.000Z</time>
      </trkpt>
      <trkpt lat="42.26689531467854976654052734375" lon="1.6953078098595142364501953125">
        <ele>1827.199951171875</ele>
        <time>2020-08-11T09:26:21.000Z</time>
      </trkpt>
      <trkpt lat="42.2667793929576873779296875" lon="1.69496222399175167083740234375">
        <ele>1825.800048828125</ele>
        <time>2020-08-11T09:26:26.000Z</time>
      </trkpt>
      <trkpt lat="42.2667591087520122528076171875" lon="1.694889552891254425048828125">
        <ele>1825.4000244140625</ele>
        <time>2020-08-11T09:26:27.000Z</time>
      </trkpt>
      <trkpt lat="42.26671895943582057952880859375" lon="1.6947408579289913177490234375">
        <ele>1824.5999755859375</ele>
        <time>2020-08-11T09:26:29.000Z</time>
      </trkpt>
      <trkpt lat="42.2666581906378269195556640625" lon="1.69435487128794193267822265625">
        <ele>1824.5999755859375</ele>
        <time>2020-08-11T09:26:34.000Z</time>
      </trkpt>
      <trkpt lat="42.26655618287622928619384765625" lon="1.69406938366591930389404296875">
        <ele>1823.4000244140625</ele>
        <time>2020-08-11T09:26:38.000Z</time>
      </trkpt>
      <trkpt lat="42.266526930034160614013671875" lon="1.69399671256542205810546875">
        <ele>1823.199951171875</ele>
        <time>2020-08-11T09:26:39.000Z</time>
      </trkpt>
      <trkpt lat="42.266385443508625030517578125" lon="1.69362061657011508941650390625">
        <ele>1822</ele>
        <time>2020-08-11T09:26:44.000Z</time>
      </trkpt>
      <trkpt lat="42.26632031612098217010498046875" lon="1.69337804429233074188232421875">
        <ele>1821.5999755859375</ele>
        <time>2020-08-11T09:26:47.000Z</time>
      </trkpt>
      <trkpt lat="42.26624638773500919342041015625" lon="1.6930599510669708251953125">
        <ele>1821</ele>
        <time>2020-08-11T09:26:51.000Z</time>
      </trkpt>
      <trkpt lat="42.266196347773075103759765625" lon="1.6929273493587970733642578125">
        <ele>1820.4000244140625</ele>
        <time>2020-08-11T09:26:53.000Z</time>
      </trkpt>
      <trkpt lat="42.2660865448415279388427734375" lon="1.6928056441247463226318359375">
        <ele>1820</ele>
        <time>2020-08-11T09:26:56.000Z</time>
      </trkpt>
      <trkpt lat="42.26600733585655689239501953125" lon="1.69283774681389331817626953125">
        <ele>1820</ele>
        <time>2020-08-11T09:26:58.000Z</time>
      </trkpt>
      <trkpt lat="42.265978753566741943359375" lon="1.69287848286330699920654296875">
        <ele>1820</ele>
        <time>2020-08-11T09:26:59.000Z</time>
      </trkpt>
      <trkpt lat="42.26595637388527393341064453125" lon="1.69292114675045013427734375">
        <ele>1819.800048828125</ele>
        <time>2020-08-11T09:27:00.000Z</time>
      </trkpt>
      <trkpt lat="42.26583986543118953704833984375" lon="1.69315307401120662689208984375">
        <ele>1819.199951171875</ele>
        <time>2020-08-11T09:27:06.000Z</time>
      </trkpt>
      <trkpt lat="42.26569016464054584503173828125" lon="1.693323813378810882568359375">
        <ele>1819.4000244140625</ele>
        <time>2020-08-11T09:27:12.000Z</time>
      </trkpt>
      <trkpt lat="42.26551917381584644317626953125" lon="1.69354450888931751251220703125">
        <ele>1819.5999755859375</ele>
        <time>2020-08-11T09:27:19.000Z</time>
      </trkpt>
      <trkpt lat="42.2653100453317165374755859375" lon="1.6937273181974887847900390625">
        <ele>1819.199951171875</ele>
        <time>2020-08-11T09:27:27.000Z</time>
      </trkpt>
      <trkpt lat="42.26508532650768756866455078125" lon="1.69372036121785640716552734375">
        <ele>1819.199951171875</ele>
        <time>2020-08-11T09:27:34.000Z</time>
      </trkpt>
      <trkpt lat="42.26494006812572479248046875" lon="1.69367509894073009490966796875">
        <ele>1818.800048828125</ele>
        <time>2020-08-11T09:27:39.000Z</time>
      </trkpt>
      <trkpt lat="42.26481928490102291107177734375" lon="1.69352355413138866424560546875">
        <ele>1819.199951171875</ele>
        <time>2020-08-11T09:27:45.000Z</time>
      </trkpt>
      <trkpt lat="42.2647303529083728790283203125" lon="1.69326715171337127685546875">
        <ele>1819.4000244140625</ele>
        <time>2020-08-11T09:27:52.000Z</time>
      </trkpt>
      <trkpt lat="42.26469204761087894439697265625" lon="1.6931097395718097686767578125">
        <ele>1818.800048828125</ele>
        <time>2020-08-11T09:27:56.000Z</time>
      </trkpt>
      <trkpt lat="42.264650724828243255615234375" lon="1.69303975068032741546630859375">
        <ele>1818.199951171875</ele>
        <time>2020-08-11T09:27:58.000Z</time>
      </trkpt>
      <trkpt lat="42.26444511674344539642333984375" lon="1.6927667520940303802490234375">
        <ele>1817.800048828125</ele>
        <time>2020-08-11T09:28:07.000Z</time>
      </trkpt>
      <trkpt lat="42.264366410672664642333984375" lon="1.6926678456366062164306640625">
        <ele>1817.5999755859375</ele>
        <time>2020-08-11T09:28:10.000Z</time>
      </trkpt>
      <trkpt lat="42.26422366686165332794189453125" lon="1.6924955137073993682861328125">
        <ele>1817.4000244140625</ele>
        <time>2020-08-11T09:28:16.000Z</time>
      </trkpt>
      <trkpt lat="42.26405368186533451080322265625" lon="1.69226936995983123779296875">
        <ele>1818</ele>
        <time>2020-08-11T09:28:24.000Z</time>
      </trkpt>
      <trkpt lat="42.2639013826847076416015625" lon="1.69201900251209735870361328125">
        <ele>1818.4000244140625</ele>
        <time>2020-08-11T09:28:32.000Z</time>
      </trkpt>
      <trkpt lat="42.26376886479556560516357421875" lon="1.69173351489007472991943359375">
        <ele>1817.800048828125</ele>
        <time>2020-08-11T09:28:40.000Z</time>
      </trkpt>
      <trkpt lat="42.2636712156236171722412109375" lon="1.6914963908493518829345703125">
        <ele>1817.5999755859375</ele>
        <time>2020-08-11T09:28:46.000Z</time>
      </trkpt>
      <trkpt lat="42.26351439021527767181396484375" lon="1.69119539670646190643310546875">
        <ele>1817.4000244140625</ele>
        <time>2020-08-11T09:28:54.000Z</time>
      </trkpt>
      <trkpt lat="42.26334675215184688568115234375" lon="1.6908881999552249908447265625">
        <ele>1817.199951171875</ele>
        <time>2020-08-11T09:29:03.000Z</time>
      </trkpt>
      <trkpt lat="42.26323041133582592010498046875" lon="1.6906888782978057861328125">
        <ele>1817.199951171875</ele>
        <time>2020-08-11T09:29:10.000Z</time>
      </trkpt>
      <trkpt lat="42.2631919384002685546875" lon="1.6905961744487285614013671875">
        <ele>1817.5999755859375</ele>
        <time>2020-08-11T09:29:16.000Z</time>
      </trkpt>
      <trkpt lat="42.26319101639091968536376953125" lon="1.69059793464839458465576171875">
        <ele>1817.199951171875</ele>
        <time>2020-08-11T09:29:32.000Z</time>
      </trkpt>
      <trkpt lat="42.26319151930510997772216796875" lon="1.69059726409614086151123046875">
        <ele>1817.4000244140625</ele>
        <time>2020-08-11T09:29:39.000Z</time>
      </trkpt>
      <trkpt lat="42.2631911002099514007568359375" lon="1.6905965097248554229736328125">
        <ele>1817.199951171875</ele>
        <time>2020-08-11T09:29:45.000Z</time>
      </trkpt>
      <trkpt lat="42.26319135166704654693603515625" lon="1.6905976831912994384765625">
        <ele>1817.199951171875</ele>
        <time>2020-08-11T09:29:59.000Z</time>
      </trkpt>
      <trkpt lat="42.26319101639091968536376953125" lon="1.6905976831912994384765625">
        <ele>1817</ele>
        <time>2020-08-11T09:30:27.000Z</time>
      </trkpt>
      <trkpt lat="42.26319068111479282379150390625" lon="1.69059709645807743072509765625">
        <ele>1817.199951171875</ele>
        <time>2020-08-11T09:30:36.000Z</time>
      </trkpt>
      <trkpt lat="42.2631798684597015380859375" lon="1.6905522532761096954345703125">
        <ele>1817</ele>
        <time>2020-08-11T09:30:46.000Z</time>
      </trkpt>
      <trkpt lat="42.26312513463199138641357421875" lon="1.6903587989509105682373046875">
        <ele>1816.800048828125</ele>
        <time>2020-08-11T09:30:53.000Z</time>
      </trkpt>
      <trkpt lat="42.263053469359874725341796875" lon="1.6900661028921604156494140625">
        <ele>1816.5999755859375</ele>
        <time>2020-08-11T09:31:00.000Z</time>
      </trkpt>
      <trkpt lat="42.26304567418992519378662109375" lon="1.69001773931086063385009765625">
        <ele>1816.199951171875</ele>
        <time>2020-08-11T09:31:01.000Z</time>
      </trkpt>
      <trkpt lat="42.2630110569298267364501953125" lon="1.6898122988641262054443359375">
        <ele>1815.199951171875</ele>
        <time>2020-08-11T09:31:05.000Z</time>
      </trkpt>
      <trkpt lat="42.2629657946527004241943359375" lon="1.6896366141736507415771484375">
        <ele>1815</ele>
        <time>2020-08-11T09:31:08.000Z</time>
      </trkpt>
      <trkpt lat="42.2629419900476932525634765625" lon="1.6895752586424350738525390625">
        <ele>1814.5999755859375</ele>
        <time>2020-08-11T09:31:09.000Z</time>
      </trkpt>
      <trkpt lat="42.26285724900662899017333984375" lon="1.689390353858470916748046875">
        <ele>1814</ele>
        <time>2020-08-11T09:31:12.000Z</time>
      </trkpt>
      <trkpt lat="42.2628051973879337310791015625" lon="1.6892688162624835968017578125">
        <ele>1813.4000244140625</ele>
        <time>2020-08-11T09:31:14.000Z</time>
      </trkpt>
      <trkpt lat="42.26272414438426494598388671875" lon="1.6890822350978851318359375">
        <ele>1812.4000244140625</ele>
        <time>2020-08-11T09:31:17.000Z</time>
      </trkpt>
      <trkpt lat="42.26266865618526935577392578125" lon="1.688957177102565765380859375">
        <ele>1811.199951171875</ele>
        <time>2020-08-11T09:31:19.000Z</time>
      </trkpt>
      <trkpt lat="42.262558601796627044677734375" lon="1.68870798312127590179443359375">
        <ele>1810</ele>
        <time>2020-08-11T09:31:23.000Z</time>
      </trkpt>
      <trkpt lat="42.262442596256732940673828125" lon="1.688475050032138824462890625">
        <ele>1808.5999755859375</ele>
        <time>2020-08-11T09:31:27.000Z</time>
      </trkpt>
      <trkpt lat="42.26238199509680271148681640625" lon="1.6883625648915767669677734375">
        <ele>1806.800048828125</ele>
        <time>2020-08-11T09:31:29.000Z</time>
      </trkpt>
      <trkpt lat="42.26235332898795604705810546875" lon="1.6883116029202938079833984375">
        <ele>1806.4000244140625</ele>
        <time>2020-08-11T09:31:30.000Z</time>
      </trkpt>
      <trkpt lat="42.26218770258128643035888671875" lon="1.6879771649837493896484375">
        <ele>1805.5999755859375</ele>
        <time>2020-08-11T09:31:36.000Z</time>
      </trkpt>
      <trkpt lat="42.26215618662536144256591796875" lon="1.68791321106255054473876953125">
        <ele>1805</ele>
        <time>2020-08-11T09:31:37.000Z</time>
      </trkpt>
      <trkpt lat="42.2621242515742778778076171875" lon="1.68784766457974910736083984375">
        <ele>1804.199951171875</ele>
        <time>2020-08-11T09:31:38.000Z</time>
      </trkpt>
      <trkpt lat="42.26206080056726932525634765625" lon="1.68771070428192615509033203125">
        <ele>1803</ele>
        <time>2020-08-11T09:31:40.000Z</time>
      </trkpt>
      <trkpt lat="42.2619187273085117340087890625" lon="1.6873865760862827301025390625">
        <ele>1802.199951171875</ele>
        <time>2020-08-11T09:31:45.000Z</time>
      </trkpt>
      <trkpt lat="42.26178922690451145172119140625" lon="1.687141992151737213134765625">
        <ele>1801.800048828125</ele>
        <time>2020-08-11T09:31:49.000Z</time>
      </trkpt>
      <trkpt lat="42.2616796754300594329833984375" lon="1.68697007931768894195556640625">
        <ele>1800.800048828125</ele>
        <time>2020-08-11T09:31:52.000Z</time>
      </trkpt>
      <trkpt lat="42.26156895048916339874267578125" lon="1.68680931441485881805419921875">
        <ele>1799.4000244140625</ele>
        <time>2020-08-11T09:31:55.000Z</time>
      </trkpt>
      <trkpt lat="42.26150013506412506103515625" lon="1.686708144843578338623046875">
        <ele>1798.199951171875</ele>
        <time>2020-08-11T09:31:57.000Z</time>
      </trkpt>
      <trkpt lat="42.26143752224743366241455078125" lon="1.6866117529571056365966796875">
        <ele>1798</ele>
        <time>2020-08-11T09:31:59.000Z</time>
      </trkpt>
      <trkpt lat="42.26130626164376735687255859375" lon="1.68642324395477771759033203125">
        <ele>1796.800048828125</ele>
        <time>2020-08-11T09:32:03.000Z</time>
      </trkpt>
      <trkpt lat="42.26123618893325328826904296875" lon="1.68633188121020793914794921875">
        <ele>1795.5999755859375</ele>
        <time>2020-08-11T09:32:05.000Z</time>
      </trkpt>
      <trkpt lat="42.26116158999502658843994140625" lon="1.68624940328299999237060546875">
        <ele>1795.4000244140625</ele>
        <time>2020-08-11T09:32:07.000Z</time>
      </trkpt>
      <trkpt lat="42.26103099994361400604248046875" lon="1.68610431253910064697265625">
        <ele>1794.5999755859375</ele>
        <time>2020-08-11T09:32:11.000Z</time>
      </trkpt>
      <trkpt lat="42.26096645928919315338134765625" lon="1.686045639216899871826171875">
        <ele>1794</ele>
        <time>2020-08-11T09:32:13.000Z</time>
      </trkpt>
      <trkpt lat="42.2609105519950389862060546875" lon="1.68598721735179424285888671875">
        <ele>1793.4000244140625</ele>
        <time>2020-08-11T09:32:15.000Z</time>
      </trkpt>
      <trkpt lat="42.26079815067350864410400390625" lon="1.6858506761491298675537109375">
        <ele>1792.5999755859375</ele>
        <time>2020-08-11T09:32:20.000Z</time>
      </trkpt>
      <trkpt lat="42.260678708553314208984375" lon="1.6857101954519748687744140625">
        <ele>1792.199951171875</ele>
        <time>2020-08-11T09:32:26.000Z</time>
      </trkpt>
      <trkpt lat="42.2606611065566539764404296875" lon="1.6856837086379528045654296875">
        <ele>1791.800048828125</ele>
        <time>2020-08-11T09:32:28.000Z</time>
      </trkpt>
      <trkpt lat="42.26065079681575298309326171875" lon="1.68567088432610034942626953125">
        <ele>1791.199951171875</ele>
        <time>2020-08-11T09:32:30.000Z</time>
      </trkpt>
      <trkpt lat="42.26065448485314846038818359375" lon="1.6856713034212589263916015625">
        <ele>1790.800048828125</ele>
        <time>2020-08-11T09:32:34.000Z</time>
      </trkpt>
      <trkpt lat="42.26065146736800670623779296875" lon="1.6856719739735126495361328125">
        <ele>1790.5999755859375</ele>
        <time>2020-08-11T09:32:59.000Z</time>
      </trkpt>
      <trkpt lat="42.26065163500607013702392578125" lon="1.6856719739735126495361328125">
        <ele>1790.5999755859375</ele>
        <time>2020-08-11T09:33:02.000Z</time>
      </trkpt>
      <trkpt lat="42.260689102113246917724609375" lon="1.6856340877711772918701171875">
        <ele>1790.4000244140625</ele>
        <time>2020-08-11T09:45:36.000Z</time>
      </trkpt>
      <trkpt lat="42.26072841323912143707275390625" lon="1.68563417159020900726318359375">
        <ele>1790.4000244140625</ele>
        <time>2020-08-11T09:45:43.000Z</time>
      </trkpt>
      <trkpt lat="42.26080016233026981353759765625" lon="1.68562411330640316009521484375">
        <ele>1789.4000244140625</ele>
        <time>2020-08-11T09:45:49.000Z</time>
      </trkpt>
      <trkpt lat="42.2608089633285999298095703125" lon="1.68561992235481739044189453125">
        <ele>1789.199951171875</ele>
        <time>2020-08-11T09:45:50.000Z</time>
      </trkpt>
      <trkpt lat="42.260885573923587799072265625" lon="1.6856221854686737060546875">
        <ele>1788.4000244140625</ele>
        <time>2020-08-11T09:45:57.000Z</time>
      </trkpt>
      <trkpt lat="42.26094282232224941253662109375" lon="1.68563081882894039154052734375">
        <ele>1787.199951171875</ele>
        <time>2020-08-11T09:46:02.000Z</time>
      </trkpt>
      <trkpt lat="42.26098573766648769378662109375" lon="1.68564439751207828521728515625">
        <ele>1786.5999755859375</ele>
        <time>2020-08-11T09:46:06.000Z</time>
      </trkpt>
      <trkpt lat="42.26099495775997638702392578125" lon="1.68564640916883945465087890625">
        <ele>1786.199951171875</ele>
        <time>2020-08-11T09:46:07.000Z</time>
      </trkpt>
      <trkpt lat="42.2610178403556346893310546875" lon="1.685650013387203216552734375">
        <ele>1785.199951171875</ele>
        <time>2020-08-11T09:46:13.000Z</time>
      </trkpt>
      <trkpt lat="42.26106620393693447113037109375" lon="1.685655377805233001708984375">
        <ele>1784.800048828125</ele>
        <time>2020-08-11T09:46:21.000Z</time>
      </trkpt>
      <trkpt lat="42.26110291667282581329345703125" lon="1.68567172251641750335693359375">
        <ele>1784.4000244140625</ele>
        <time>2020-08-11T09:46:27.000Z</time>
      </trkpt>
      <trkpt lat="42.26114147342741489410400390625" lon="1.685694269835948944091796875">
        <ele>1784.199951171875</ele>
        <time>2020-08-11T09:46:29.000Z</time>
      </trkpt>
      <trkpt lat="42.261216826736927032470703125" lon="1.68573953211307525634765625">
        <ele>1783.800048828125</ele>
        <time>2020-08-11T09:46:32.000Z</time>
      </trkpt>
      <trkpt lat="42.2612840496003627777099609375" lon="1.68577096424996852874755859375">
        <ele>1783</ele>
        <time>2020-08-11T09:46:35.000Z</time>
      </trkpt>
      <trkpt lat="42.26135353557765483856201171875" lon="1.6857966966927051544189453125">
        <ele>1782.800048828125</ele>
        <time>2020-08-11T09:46:38.000Z</time>
      </trkpt>
      <trkpt lat="42.26144707761704921722412109375" lon="1.6858282126486301422119140625">
        <ele>1781.5999755859375</ele>
        <time>2020-08-11T09:46:42.000Z</time>
      </trkpt>
      <trkpt lat="42.26152896881103515625" lon="1.6858587227761745452880859375">
        <ele>1780.5999755859375</ele>
        <time>2020-08-11T09:46:46.000Z</time>
      </trkpt>
      <trkpt lat="42.2615599818527698516845703125" lon="1.68586785905063152313232421875">
        <ele>1780</ele>
        <time>2020-08-11T09:46:48.000Z</time>
      </trkpt>
      <trkpt lat="42.26158588193356990814208984375" lon="1.68587439693510532379150390625">
        <ele>1779.4000244140625</ele>
        <time>2020-08-11T09:46:52.000Z</time>
      </trkpt>
      <trkpt lat="42.26159426383674144744873046875" lon="1.68587959371507167816162109375">
        <ele>1779.4000244140625</ele>
        <time>2020-08-11T09:46:53.000Z</time>
      </trkpt>
      <trkpt lat="42.261674143373966217041015625" lon="1.6859127022325992584228515625">
        <ele>1778.4000244140625</ele>
        <time>2020-08-11T09:46:58.000Z</time>
      </trkpt>
      <trkpt lat="42.261705659329891204833984375" lon="1.68593139387667179107666015625">
        <ele>1778.4000244140625</ele>
        <time>2020-08-11T09:47:00.000Z</time>
      </trkpt>
      <trkpt lat="42.26180590689182281494140625" lon="1.6859707050025463104248046875">
        <ele>1778.199951171875</ele>
        <time>2020-08-11T09:47:05.000Z</time>
      </trkpt>
      <trkpt lat="42.261865250766277313232421875" lon="1.68600565753877162933349609375">
        <ele>1777.5999755859375</ele>
        <time>2020-08-11T09:47:08.000Z</time>
      </trkpt>
      <trkpt lat="42.2619582898914813995361328125" lon="1.68608344160020351409912109375">
        <ele>1776.800048828125</ele>
        <time>2020-08-11T09:47:13.000Z</time>
      </trkpt>
      <trkpt lat="42.261979915201663970947265625" lon="1.68609936721622943878173828125">
        <ele>1776.5999755859375</ele>
        <time>2020-08-11T09:47:14.000Z</time>
      </trkpt>
      <trkpt lat="42.2620172984898090362548828125" lon="1.68613507412374019622802734375">
        <ele>1776.199951171875</ele>
        <time>2020-08-11T09:47:16.000Z</time>
      </trkpt>
      <trkpt lat="42.26208753883838653564453125" lon="1.68621294200420379638671875">
        <ele>1776</ele>
        <time>2020-08-11T09:47:20.000Z</time>
      </trkpt>
      <trkpt lat="42.26222424767911434173583984375" lon="1.68639759533107280731201171875">
        <ele>1775.4000244140625</ele>
        <time>2020-08-11T09:47:27.000Z</time>
      </trkpt>
      <trkpt lat="42.262345366179943084716796875" lon="1.6865690052509307861328125">
        <ele>1774.4000244140625</ele>
        <time>2020-08-11T09:47:32.000Z</time>
      </trkpt>
      <trkpt lat="42.26243220269680023193359375" lon="1.686693727970123291015625">
        <ele>1774</ele>
        <time>2020-08-11T09:47:36.000Z</time>
      </trkpt>
      <trkpt lat="42.26252071559429168701171875" lon="1.68683513067662715911865234375">
        <ele>1774.199951171875</ele>
        <time>2020-08-11T09:47:42.000Z</time>
      </trkpt>
      <trkpt lat="42.2626541554927825927734375" lon="1.68708474375307559967041015625">
        <ele>1774</ele>
        <time>2020-08-11T09:47:52.000Z</time>
      </trkpt>
      <trkpt lat="42.26271458901464939117431640625" lon="1.68720661662518978118896484375">
        <ele>1775.199951171875</ele>
        <time>2020-08-11T09:48:00.000Z</time>
      </trkpt>
      <trkpt lat="42.26274074055254459381103515625" lon="1.6872568242251873016357421875">
        <ele>1775.199951171875</ele>
        <time>2020-08-11T09:48:06.000Z</time>
      </trkpt>
      <trkpt lat="42.26277024485170841217041015625" lon="1.68729278258979320526123046875">
        <ele>1775.4000244140625</ele>
        <time>2020-08-11T09:48:12.000Z</time>
      </trkpt>
      <trkpt lat="42.262796647846698760986328125" lon="1.68730066157877445220947265625">
        <ele>1775.5999755859375</ele>
        <time>2020-08-11T09:48:15.000Z</time>
      </trkpt>
      <trkpt lat="42.26280980743467807769775390625" lon="1.68729311786592006683349609375">
        <ele>1776</ele>
        <time>2020-08-11T09:48:18.000Z</time>
      </trkpt>
      <trkpt lat="42.2628231346607208251953125" lon="1.68723997659981250762939453125">
        <ele>1776.5999755859375</ele>
        <time>2020-08-11T09:48:25.000Z</time>
      </trkpt>
      <trkpt lat="42.26282807998359203338623046875" lon="1.68711978010833263397216796875">
        <ele>1775.5999755859375</ele>
        <time>2020-08-11T09:48:33.000Z</time>
      </trkpt>
      <trkpt lat="42.2627998329699039459228515625" lon="1.687018610537052154541015625">
        <ele>1774.5999755859375</ele>
        <time>2020-08-11T09:48:41.000Z</time>
      </trkpt>
      <trkpt lat="42.2627941332757472991943359375" lon="1.6870062053203582763671875">
        <ele>1774.5999755859375</ele>
        <time>2020-08-11T09:48:42.000Z</time>
      </trkpt>
      <trkpt lat="42.26276789791882038116455078125" lon="1.68694979511201381683349609375">
        <ele>1773.4000244140625</ele>
        <time>2020-08-11T09:48:47.000Z</time>
      </trkpt>
      <trkpt lat="42.26276404224336147308349609375" lon="1.686937473714351654052734375">
        <ele>1773</ele>
        <time>2020-08-11T09:48:49.000Z</time>
      </trkpt>
      <trkpt lat="42.26275649853050708770751953125" lon="1.68689397163689136505126953125">
        <ele>1772.199951171875</ele>
        <time>2020-08-11T09:48:54.000Z</time>
      </trkpt>
      <trkpt lat="42.26274945773184299468994140625" lon="1.68686077930033206939697265625">
        <ele>1771.5999755859375</ele>
        <time>2020-08-11T09:48:57.000Z</time>
      </trkpt>
      <trkpt lat="42.26274610497057437896728515625" lon="1.68683789670467376708984375">
        <ele>1771</ele>
        <time>2020-08-11T09:48:59.000Z</time>
      </trkpt>
      <trkpt lat="42.26273470558226108551025390625" lon="1.686761118471622467041015625">
        <ele>1769.800048828125</ele>
        <time>2020-08-11T09:49:04.000Z</time>
      </trkpt>
      <trkpt lat="42.2627324424684047698974609375" lon="1.68674695305526256561279296875">
        <ele>1769.5999755859375</ele>
        <time>2020-08-11T09:49:05.000Z</time>
      </trkpt>
      <trkpt lat="42.262726910412311553955078125" lon="1.68669900856912136077880859375">
        <ele>1768.800048828125</ele>
        <time>2020-08-11T09:49:09.000Z</time>
      </trkpt>
      <trkpt lat="42.2627207078039646148681640625" lon="1.6866523213684558868408203125">
        <ele>1767.800048828125</ele>
        <time>2020-08-11T09:49:12.000Z</time>
      </trkpt>
      <trkpt lat="42.26271911524236202239990234375" lon="1.68663597665727138519287109375">
        <ele>1767.4000244140625</ele>
        <time>2020-08-11T09:49:13.000Z</time>
      </trkpt>
      <trkpt lat="42.26270922459661960601806640625" lon="1.6865782253444194793701171875">
        <ele>1766.5999755859375</ele>
        <time>2020-08-11T09:49:17.000Z</time>
      </trkpt>
      <trkpt lat="42.26270151324570178985595703125" lon="1.68653204105794429779052734375">
        <ele>1766</ele>
        <time>2020-08-11T09:49:22.000Z</time>
      </trkpt>
      <trkpt lat="42.2626989148557186126708984375" lon="1.6865017823874950408935546875">
        <ele>1765.5999755859375</ele>
        <time>2020-08-11T09:49:24.000Z</time>
      </trkpt>
      <trkpt lat="42.2626871801912784576416015625" lon="1.68646196834743022918701171875">
        <ele>1765.4000244140625</ele>
        <time>2020-08-11T09:49:27.000Z</time>
      </trkpt>
      <trkpt lat="42.2626684047281742095947265625" lon="1.68642257340252399444580078125">
        <ele>1764.800048828125</ele>
        <time>2020-08-11T09:49:30.000Z</time>
      </trkpt>
      <trkpt lat="42.26264267228543758392333984375" lon="1.68637144379317760467529296875">
        <ele>1764.5999755859375</ele>
        <time>2020-08-11T09:49:34.000Z</time>
      </trkpt>
      <trkpt lat="42.2626139223575592041015625" lon="1.68629114516079425811767578125">
        <ele>1764</ele>
        <time>2020-08-11T09:49:40.000Z</time>
      </trkpt>
      <trkpt lat="42.26260277442634105682373046875" lon="1.6862506605684757232666015625">
        <ele>1763.800048828125</ele>
        <time>2020-08-11T09:49:43.000Z</time>
      </trkpt>
      <trkpt lat="42.26256673224270343780517578125" lon="1.68617631308734416961669921875">
        <ele>1763.4000244140625</ele>
        <time>2020-08-11T09:49:49.000Z</time>
      </trkpt>
      <trkpt lat="42.26255047135055065155029296875" lon="1.68615552596747875213623046875">
        <ele>1762.800048828125</ele>
        <time>2020-08-11T09:49:53.000Z</time>
      </trkpt>
      <trkpt lat="42.26254762150347232818603515625" lon="1.686150245368480682373046875">
        <ele>1762.4000244140625</ele>
        <time>2020-08-11T09:49:55.000Z</time>
      </trkpt>
      <trkpt lat="42.26254778914153575897216796875" lon="1.6861457191407680511474609375">
        <ele>1762.199951171875</ele>
        <time>2020-08-11T09:50:11.000Z</time>
      </trkpt>
      <trkpt lat="42.26257159374654293060302734375" lon="1.6861331462860107421875">
        <ele>1762</ele>
        <time>2020-08-11T09:50:24.000Z</time>
      </trkpt>
      <trkpt lat="42.26258374750614166259765625" lon="1.6860857047140598297119140625">
        <ele>1762.199951171875</ele>
        <time>2020-08-11T09:50:31.000Z</time>
      </trkpt>
      <trkpt lat="42.26258399896323680877685546875" lon="1.686082519590854644775390625">
        <ele>1762</ele>
        <time>2020-08-11T09:50:34.000Z</time>
      </trkpt>
      <trkpt lat="42.26258416660130023956298828125" lon="1.68608243577182292938232421875">
        <ele>1762</ele>
        <time>2020-08-11T09:50:35.000Z</time>
      </trkpt>
      <trkpt lat="42.26258282549679279327392578125" lon="1.68608243577182292938232421875">
        <ele>1761.4000244140625</ele>
        <time>2020-08-11T09:50:43.000Z</time>
      </trkpt>
      <trkpt lat="42.26258332841098308563232421875" lon="1.68608260340988636016845703125">
        <ele>1761.4000244140625</ele>
        <time>2020-08-11T09:50:58.000Z</time>
      </trkpt>
      <trkpt lat="42.26257528178393840789794921875" lon="1.68602342717349529266357421875">
        <ele>1761.800048828125</ele>
        <time>2020-08-11T09:51:06.000Z</time>
      </trkpt>
      <trkpt lat="42.262564636766910552978515625" lon="1.68594664894044399261474609375">
        <ele>1760.800048828125</ele>
        <time>2020-08-11T09:51:09.000Z</time>
      </trkpt>
      <trkpt lat="42.2625456936657428741455078125" lon="1.68581102974712848663330078125">
        <ele>1760</ele>
        <time>2020-08-11T09:51:13.000Z</time>
      </trkpt>
      <trkpt lat="42.26254376582801342010498046875" lon="1.68577800504863262176513671875">
        <ele>1759.5999755859375</ele>
        <time>2020-08-11T09:51:14.000Z</time>
      </trkpt>
      <trkpt lat="42.26251023821532726287841796875" lon="1.68564858846366405487060546875">
        <ele>1758.5999755859375</ele>
        <time>2020-08-11T09:51:18.000Z</time>
      </trkpt>
      <trkpt lat="42.26250286214053630828857421875" lon="1.68561439029872417449951171875">
        <ele>1758.199951171875</ele>
        <time>2020-08-11T09:51:19.000Z</time>
      </trkpt>
      <trkpt lat="42.2624729387462139129638671875" lon="1.6855180822312831878662109375">
        <ele>1757.199951171875</ele>
        <time>2020-08-11T09:51:22.000Z</time>
      </trkpt>
      <trkpt lat="42.26243077777326107025146484375" lon="1.685402579605579376220703125">
        <ele>1756.4000244140625</ele>
        <time>2020-08-11T09:51:26.000Z</time>
      </trkpt>
      <trkpt lat="42.2624176181852817535400390625" lon="1.6853786073625087738037109375">
        <ele>1756.199951171875</ele>
        <time>2020-08-11T09:51:27.000Z</time>
      </trkpt>
      <trkpt lat="42.2623854316771030426025390625" lon="1.6853083670139312744140625">
        <ele>1755</ele>
        <time>2020-08-11T09:51:30.000Z</time>
      </trkpt>
      <trkpt lat="42.26234897039830684661865234375" lon="1.68521055020391941070556640625">
        <ele>1754</ele>
        <time>2020-08-11T09:51:34.000Z</time>
      </trkpt>
      <trkpt lat="42.26230236701667308807373046875" lon="1.68511130847036838531494140625">
        <ele>1752.800048828125</ele>
        <time>2020-08-11T09:51:38.000Z</time>
      </trkpt>
      <trkpt lat="42.26227085106074810028076171875" lon="1.68503385968506336212158203125">
        <ele>1751.800048828125</ele>
        <time>2020-08-11T09:51:41.000Z</time>
      </trkpt>
      <trkpt lat="42.262264229357242584228515625" lon="1.68500686995685100555419921875">
        <ele>1751.4000244140625</ele>
        <time>2020-08-11T09:51:42.000Z</time>
      </trkpt>
      <trkpt lat="42.2622426040470600128173828125" lon="1.6849196143448352813720703125">
        <ele>1750.5999755859375</ele>
        <time>2020-08-11T09:51:45.000Z</time>
      </trkpt>
      <trkpt lat="42.26222357712686061859130859375" lon="1.6847898624837398529052734375">
        <ele>1749.199951171875</ele>
        <time>2020-08-11T09:51:50.000Z</time>
      </trkpt>
      <trkpt lat="42.26221670396625995635986328125" lon="1.68471534736454486846923828125">
        <ele>1748</ele>
        <time>2020-08-11T09:51:53.000Z</time>
      </trkpt>
      <trkpt lat="42.26221150718629360198974609375" lon="1.6846285946667194366455078125">
        <ele>1747</ele>
        <time>2020-08-11T09:51:56.000Z</time>
      </trkpt>
      <trkpt lat="42.26220681332051753997802734375" lon="1.68453245423734188079833984375">
        <ele>1746</ele>
        <time>2020-08-11T09:51:59.000Z</time>
      </trkpt>
      <trkpt lat="42.2621876187622547149658203125" lon="1.6843781433999538421630859375">
        <ele>1745.199951171875</ele>
        <time>2020-08-11T09:52:04.000Z</time>
      </trkpt>
      <trkpt lat="42.262179069221019744873046875" lon="1.6843213140964508056640625">
        <ele>1744.5999755859375</ele>
        <time>2020-08-11T09:52:06.000Z</time>
      </trkpt>
      <trkpt lat="42.26216138340532779693603515625" lon="1.684210002422332763671875">
        <ele>1743.5999755859375</ele>
        <time>2020-08-11T09:52:10.000Z</time>
      </trkpt>
      <trkpt lat="42.2621534205973148345947265625" lon="1.68415728025138378143310546875">
        <ele>1743.199951171875</ele>
        <time>2020-08-11T09:52:12.000Z</time>
      </trkpt>
      <trkpt lat="42.26213104091584682464599609375" lon="1.68407111428678035736083984375">
        <ele>1742.4000244140625</ele>
        <time>2020-08-11T09:52:15.000Z</time>
      </trkpt>
      <trkpt lat="42.26210765540599822998046875" lon="1.68399584479629993438720703125">
        <ele>1740.800048828125</ele>
        <time>2020-08-11T09:52:18.000Z</time>
      </trkpt>
      <trkpt lat="42.262100279331207275390625" lon="1.683974303305149078369140625">
        <ele>1740.199951171875</ele>
        <time>2020-08-11T09:52:22.000Z</time>
      </trkpt>
      <trkpt lat="42.26208083331584930419921875" lon="1.6839315555989742279052734375">
        <ele>1739.800048828125</ele>
        <time>2020-08-11T09:52:28.000Z</time>
      </trkpt>
      <trkpt lat="42.26206264458596706390380859375" lon="1.68389425612986087799072265625">
        <ele>1739</ele>
        <time>2020-08-11T09:52:36.000Z</time>
      </trkpt>
      <trkpt lat="42.26206205785274505615234375" lon="1.6838936693966388702392578125">
        <ele>1738.800048828125</ele>
        <time>2020-08-11T09:52:37.000Z</time>
      </trkpt>
      <trkpt lat="42.26205937564373016357421875" lon="1.68389040045440196990966796875">
        <ele>1738.5999755859375</ele>
        <time>2020-08-11T09:52:54.000Z</time>
      </trkpt>
      <trkpt lat="42.2620582021772861480712890625" lon="1.68388822115957736968994140625">
        <ele>1738.4000244140625</ele>
        <time>2020-08-11T09:53:12.000Z</time>
      </trkpt>
      <trkpt lat="42.26205090992152690887451171875" lon="1.68387665413320064544677734375">
        <ele>1738.199951171875</ele>
        <time>2020-08-11T09:53:21.000Z</time>
      </trkpt>
      <trkpt lat="42.2620484791696071624755859375" lon="1.68387481011450290679931640625">
        <ele>1738</ele>
        <time>2020-08-11T09:53:46.000Z</time>
      </trkpt>
      <trkpt lat="42.2620372474193572998046875" lon="1.68386223725974559783935546875">
        <ele>1738</ele>
        <time>2020-08-11T09:53:52.000Z</time>
      </trkpt>
      <trkpt lat="42.2620317153632640838623046875" lon="1.68385704047977924346923828125">
        <ele>1737.800048828125</ele>
        <time>2020-08-11T09:53:54.000Z</time>
      </trkpt>
      <trkpt lat="42.2620015405118465423583984375" lon="1.68384513817727565765380859375">
        <ele>1736.800048828125</ele>
        <time>2020-08-11T09:53:59.000Z</time>
      </trkpt>
      <trkpt lat="42.261989973485469818115234375" lon="1.68383382260799407958984375">
        <ele>1736.5999755859375</ele>
        <time>2020-08-11T09:54:02.000Z</time>
      </trkpt>
      <trkpt lat="42.26198318414390087127685546875" lon="1.6838356666266918182373046875">
        <ele>1735.800048828125</ele>
        <time>2020-08-11T09:54:07.000Z</time>
      </trkpt>
      <trkpt lat="42.26197765208780765533447265625" lon="1.683816723525524139404296875">
        <ele>1736</ele>
        <time>2020-08-11T09:54:10.000Z</time>
      </trkpt>
      <trkpt lat="42.26196013391017913818359375" lon="1.683743298053741455078125">
        <ele>1736.800048828125</ele>
        <time>2020-08-11T09:54:19.000Z</time>
      </trkpt>
      <trkpt lat="42.2619586251676082611083984375" lon="1.6837419569492340087890625">
        <ele>1737</ele>
        <time>2020-08-11T09:54:20.000Z</time>
      </trkpt>
      <trkpt lat="42.26195954717695713043212890625" lon="1.6837434656918048858642578125">
        <ele>1737.199951171875</ele>
        <time>2020-08-11T09:54:41.000Z</time>
      </trkpt>
      <trkpt lat="42.26195569150149822235107421875" lon="1.6837246902287006378173828125">
        <ele>1737</ele>
        <time>2020-08-11T09:54:54.000Z</time>
      </trkpt>
      <trkpt lat="42.2619525901973247528076171875" lon="1.68370532803237438201904296875">
        <ele>1737.199951171875</ele>
        <time>2020-08-11T09:55:02.000Z</time>
      </trkpt>
      <trkpt lat="42.26192920468747615814208984375" lon="1.683603823184967041015625">
        <ele>1737.5999755859375</ele>
        <time>2020-08-11T09:55:09.000Z</time>
      </trkpt>
      <trkpt lat="42.26191143505275249481201171875" lon="1.68341028504073619842529296875">
        <ele>1737</ele>
        <time>2020-08-11T09:55:16.000Z</time>
      </trkpt>
      <trkpt lat="42.2619076631963253021240234375" lon="1.6832881607115268707275390625">
        <ele>1736</ele>
        <time>2020-08-11T09:55:20.000Z</time>
      </trkpt>
      <trkpt lat="42.26189441978931427001953125" lon="1.68320492841303348541259765625">
        <ele>1735</ele>
        <time>2020-08-11T09:55:23.000Z</time>
      </trkpt>
      <trkpt lat="42.2618640772998332977294921875" lon="1.683006025850772857666015625">
        <ele>1734</ele>
        <time>2020-08-11T09:55:30.000Z</time>
      </trkpt>
      <trkpt lat="42.261853516101837158203125" lon="1.68294508941471576690673828125">
        <ele>1733.199951171875</ele>
        <time>2020-08-11T09:55:32.000Z</time>
      </trkpt>
      <trkpt lat="42.261844463646411895751953125" lon="1.68291307054460048675537109375">
        <ele>1733</ele>
        <time>2020-08-11T09:55:33.000Z</time>
      </trkpt>
      <trkpt lat="42.26179844699800014495849609375" lon="1.68275984935462474822998046875">
        <ele>1731.800048828125</ele>
        <time>2020-08-11T09:55:38.000Z</time>
      </trkpt>
      <trkpt lat="42.2617745585739612579345703125" lon="1.68265239335596561431884765625">
        <ele>1731.199951171875</ele>
        <time>2020-08-11T09:55:41.000Z</time>
      </trkpt>
      <trkpt lat="42.26175771094858646392822265625" lon="1.682578213512897491455078125">
        <ele>1730.5999755859375</ele>
        <time>2020-08-11T09:55:43.000Z</time>
      </trkpt>
      <trkpt lat="42.26173541508615016937255859375" lon="1.68246321380138397216796875">
        <ele>1729</ele>
        <time>2020-08-11T09:55:46.000Z</time>
      </trkpt>
      <trkpt lat="42.261717058718204498291015625" lon="1.6823969967663288116455078125">
        <ele>1728.5999755859375</ele>
        <time>2020-08-11T09:55:48.000Z</time>
      </trkpt>
      <trkpt lat="42.26166986860334873199462890625" lon="1.6821701824665069580078125">
        <ele>1728</ele>
        <time>2020-08-11T09:55:55.000Z</time>
      </trkpt>
      <trkpt lat="42.2616665996611118316650390625" lon="1.682149730622768402099609375">
        <ele>1727.800048828125</ele>
        <time>2020-08-11T09:55:56.000Z</time>
      </trkpt>
      <trkpt lat="42.26166416890919208526611328125" lon="1.68214260600507259368896484375">
        <ele>1727.4000244140625</ele>
        <time>2020-08-11T09:55:59.000Z</time>
      </trkpt>
      <trkpt lat="42.2616617381572723388671875" lon="1.682139001786708831787109375">
        <ele>1727</ele>
        <time>2020-08-11T09:56:06.000Z</time>
      </trkpt>
      <trkpt lat="42.2616575472056865692138671875" lon="1.6821113415062427520751953125">
        <ele>1727</ele>
        <time>2020-08-11T09:56:10.000Z</time>
      </trkpt>
      <trkpt lat="42.26163550280034542083740234375" lon="1.68201838620007038116455078125">
        <ele>1726.199951171875</ele>
        <time>2020-08-11T09:56:16.000Z</time>
      </trkpt>
      <trkpt lat="42.26160331629216670989990234375" lon="1.6819148696959018707275390625">
        <ele>1725.800048828125</ele>
        <time>2020-08-11T09:56:20.000Z</time>
      </trkpt>
      <trkpt lat="42.2615941800177097320556640625" lon="1.68188863433897495269775390625">
        <ele>1725.800048828125</ele>
        <time>2020-08-11T09:56:21.000Z</time>
      </trkpt>
      <trkpt lat="42.26156794466078281402587890625" lon="1.6818012110888957977294921875">
        <ele>1725</ele>
        <time>2020-08-11T09:56:24.000Z</time>
      </trkpt>
      <trkpt lat="42.261554114520549774169921875" lon="1.6817378439009189605712890625">
        <ele>1724.800048828125</ele>
        <time>2020-08-11T09:56:26.000Z</time>
      </trkpt>
      <trkpt lat="42.261532656848430633544921875" lon="1.68163650669157505035400390625">
        <ele>1723.5999755859375</ele>
        <time>2020-08-11T09:56:29.000Z</time>
      </trkpt>
      <trkpt lat="42.26150323636829853057861328125" lon="1.68153961189091205596923828125">
        <ele>1723</ele>
        <time>2020-08-11T09:56:32.000Z</time>
      </trkpt>
      <trkpt lat="42.26149435155093669891357421875" lon="1.68150440789759159088134765625">
        <ele>1722.4000244140625</ele>
        <time>2020-08-11T09:56:33.000Z</time>
      </trkpt>
      <trkpt lat="42.2614617459475994110107421875" lon="1.68139929883182048797607421875">
        <ele>1721.199951171875</ele>
        <time>2020-08-11T09:56:36.000Z</time>
      </trkpt>
      <trkpt lat="42.26142293773591518402099609375" lon="1.68132117949426174163818359375">
        <ele>1720.199951171875</ele>
        <time>2020-08-11T09:56:39.000Z</time>
      </trkpt>
      <trkpt lat="42.26141162216663360595703125" lon="1.681302152574062347412109375">
        <ele>1719.800048828125</ele>
        <time>2020-08-11T09:56:40.000Z</time>
      </trkpt>
      <trkpt lat="42.26139946840703487396240234375" lon="1.6812798567116260528564453125">
        <ele>1719</ele>
        <time>2020-08-11T09:56:44.000Z</time>
      </trkpt>
      <trkpt lat="42.26138203404843807220458984375" lon="1.68126854114234447479248046875">
        <ele>1718.5999755859375</ele>
        <time>2020-08-11T09:56:47.000Z</time>
      </trkpt>
      <trkpt lat="42.26135303266346454620361328125" lon="1.68125756084918975830078125">
        <ele>1718.4000244140625</ele>
        <time>2020-08-11T09:56:49.000Z</time>
      </trkpt>
      <trkpt lat="42.26128295995295047760009765625" lon="1.68124549090862274169921875">
        <ele>1717.5999755859375</ele>
        <time>2020-08-11T09:56:54.000Z</time>
      </trkpt>
      <trkpt lat="42.26125764660537242889404296875" lon="1.68123585171997547149658203125">
        <ele>1717</ele>
        <time>2020-08-11T09:56:56.000Z</time>
      </trkpt>
      <trkpt lat="42.2612299025058746337890625" lon="1.68121037073433399200439453125">
        <ele>1716.5999755859375</ele>
        <time>2020-08-11T09:56:58.000Z</time>
      </trkpt>
      <trkpt lat="42.26122378371655941009521484375" lon="1.6811900027096271514892578125">
        <ele>1716.4000244140625</ele>
        <time>2020-08-11T09:57:00.000Z</time>
      </trkpt>
      <trkpt lat="42.2612169943749904632568359375" lon="1.6811957024037837982177734375">
        <ele>1715.800048828125</ele>
        <time>2020-08-11T09:57:07.000Z</time>
      </trkpt>
      <trkpt lat="42.2612009011209011077880859375" lon="1.68116309680044651031494140625">
        <ele>1715.5999755859375</ele>
        <time>2020-08-11T09:57:13.000Z</time>
      </trkpt>
      <trkpt lat="42.261195369064807891845703125" lon="1.68114918284118175506591796875">
        <ele>1715.5999755859375</ele>
        <time>2020-08-11T09:57:14.000Z</time>
      </trkpt>
      <trkpt lat="42.26115890778601169586181640625" lon="1.68109118007123470306396484375">
        <ele>1715</ele>
        <time>2020-08-11T09:57:18.000Z</time>
      </trkpt>
      <trkpt lat="42.26115220226347446441650390625" lon="1.6810758411884307861328125">
        <ele>1715</ele>
        <time>2020-08-11T09:57:19.000Z</time>
      </trkpt>
      <trkpt lat="42.26114683784544467926025390625" lon="1.68106377124786376953125">
        <ele>1714.800048828125</ele>
        <time>2020-08-11T09:57:20.000Z</time>
      </trkpt>
      <trkpt lat="42.2611395455896854400634765625" lon="1.68100970797240734100341796875">
        <ele>1714.199951171875</ele>
        <time>2020-08-11T09:57:24.000Z</time>
      </trkpt>
      <trkpt lat="42.26114599965512752532958984375" lon="1.68094868771731853485107421875">
        <ele>1714.199951171875</ele>
        <time>2020-08-11T09:57:30.000Z</time>
      </trkpt>
      <trkpt lat="42.26114968769252300262451171875" lon="1.680892445147037506103515625">
        <ele>1713.5999755859375</ele>
        <time>2020-08-11T09:57:38.000Z</time>
      </trkpt>
      <trkpt lat="42.26115236990153789520263671875" lon="1.6808532178401947021484375">
        <ele>1713.800048828125</ele>
        <time>2020-08-11T09:57:44.000Z</time>
      </trkpt>
      <trkpt lat="42.26115387864410877227783203125" lon="1.68084022589027881622314453125">
        <ele>1713.5999755859375</ele>
        <time>2020-08-11T09:57:58.000Z</time>
      </trkpt>
      <trkpt lat="42.2611405514180660247802734375" lon="1.68067644350230693817138671875">
        <ele>1713.4000244140625</ele>
        <time>2020-08-11T09:58:04.000Z</time>
      </trkpt>
      <trkpt lat="42.26111230440437793731689453125" lon="1.68055390007793903350830078125">
        <ele>1712.5999755859375</ele>
        <time>2020-08-11T09:58:07.000Z</time>
      </trkpt>
      <trkpt lat="42.26108816452324390411376953125" lon="1.6804160177707672119140625">
        <ele>1711.5999755859375</ele>
        <time>2020-08-11T09:58:10.000Z</time>
      </trkpt>
      <trkpt lat="42.2610443271696567535400390625" lon="1.68016850017011165618896484375">
        <ele>1710.4000244140625</ele>
        <time>2020-08-11T09:58:16.000Z</time>
      </trkpt>
      <trkpt lat="42.26103552617132663726806640625" lon="1.68012960813939571380615234375">
        <ele>1709.800048828125</ele>
        <time>2020-08-11T09:58:17.000Z</time>
      </trkpt>
      <trkpt lat="42.26102429442107677459716796875" lon="1.68008971028029918670654296875">
        <ele>1709.199951171875</ele>
        <time>2020-08-11T09:58:18.000Z</time>
      </trkpt>
      <trkpt lat="42.26098355837166309356689453125" lon="1.67996515519917011260986328125">
        <ele>1708</ele>
        <time>2020-08-11T09:58:21.000Z</time>
      </trkpt>
      <trkpt lat="42.26094718091189861297607421875" lon="1.67984940111637115478515625">
        <ele>1706.800048828125</ele>
        <time>2020-08-11T09:58:24.000Z</time>
      </trkpt>
      <trkpt lat="42.2609080374240875244140625" lon="1.67974957264959812164306640625">
        <ele>1705.5999755859375</ele>
        <time>2020-08-11T09:58:27.000Z</time>
      </trkpt>
      <trkpt lat="42.26086403243243694305419921875" lon="1.67965251021087169647216796875">
        <ele>1704.4000244140625</ele>
        <time>2020-08-11T09:58:30.000Z</time>
      </trkpt>
      <trkpt lat="42.260843329131603240966796875" lon="1.67958830483257770538330078125">
        <ele>1703.800048828125</ele>
        <time>2020-08-11T09:58:32.000Z</time>
      </trkpt>
      <trkpt lat="42.26082731969654560089111328125" lon="1.679525189101696014404296875">
        <ele>1702.4000244140625</ele>
        <time>2020-08-11T09:58:34.000Z</time>
      </trkpt>
      <trkpt lat="42.2608213685452938079833984375" lon="1.67950364761054515838623046875">
        <ele>1701.4000244140625</ele>
        <time>2020-08-11T09:58:37.000Z</time>
      </trkpt>
      <trkpt lat="42.260820865631103515625" lon="1.67950347997248172760009765625">
        <ele>1701.4000244140625</ele>
        <time>2020-08-11T09:58:38.000Z</time>
      </trkpt>
      <trkpt lat="42.26081038825213909149169921875" lon="1.6794794239103794097900390625">
        <ele>1701</ele>
        <time>2020-08-11T09:58:50.000Z</time>
      </trkpt>
      <trkpt lat="42.26074551232159137725830078125" lon="1.679317317903041839599609375">
        <ele>1700</ele>
        <time>2020-08-11T09:58:56.000Z</time>
      </trkpt>
      <trkpt lat="42.2607331909239292144775390625" lon="1.6792873106896877288818359375">
        <ele>1699.5999755859375</ele>
        <time>2020-08-11T09:58:57.000Z</time>
      </trkpt>
      <trkpt lat="42.26071961224079132080078125" lon="1.67925529181957244873046875">
        <ele>1698.800048828125</ele>
        <time>2020-08-11T09:58:58.000Z</time>
      </trkpt>
      <trkpt lat="42.2606815584003925323486328125" lon="1.67913182638585567474365234375">
        <ele>1697.5999755859375</ele>
        <time>2020-08-11T09:59:02.000Z</time>
      </trkpt>
      <trkpt lat="42.26067443378269672393798828125" lon="1.67911179363727569580078125">
        <ele>1697.199951171875</ele>
        <time>2020-08-11T09:59:03.000Z</time>
      </trkpt>
      <trkpt lat="42.260673008859157562255859375" lon="1.67910416610538959503173828125">
        <ele>1696.4000244140625</ele>
        <time>2020-08-11T09:59:07.000Z</time>
      </trkpt>
      <trkpt lat="42.26067376323044300079345703125" lon="1.67910508811473846435546875">
        <ele>1696.4000244140625</ele>
        <time>2020-08-11T09:59:08.000Z</time>
      </trkpt>
      <trkpt lat="42.26067342795431613922119140625" lon="1.6791052557528018951416015625">
        <ele>1696.199951171875</ele>
        <time>2020-08-11T09:59:35.000Z</time>
      </trkpt>
      <trkpt lat="42.26067225448787212371826171875" lon="1.6791055910289287567138671875">
        <ele>1696.199951171875</ele>
        <time>2020-08-11T09:59:57.000Z</time>
      </trkpt>
      <trkpt lat="42.260673344135284423828125" lon="1.6791070997714996337890625">
        <ele>1696.199951171875</ele>
        <time>2020-08-11T10:00:11.000Z</time>
      </trkpt>
      <trkpt lat="42.2606728412210941314697265625" lon="1.67910584248602390289306640625">
        <ele>1696.199951171875</ele>
        <time>2020-08-11T10:00:23.000Z</time>
      </trkpt>
      <trkpt lat="42.2606735117733478546142578125" lon="1.6791079379618167877197265625">
        <ele>1696</ele>
        <time>2020-08-11T10:00:45.000Z</time>
      </trkpt>
      <trkpt lat="42.2606718353927135467529296875" lon="1.67911238037049770355224609375">
        <ele>1696</ele>
        <time>2020-08-11T10:01:01.000Z</time>
      </trkpt>
      <trkpt lat="42.260673344135284423828125" lon="1.67911372147500514984130859375">
        <ele>1695.800048828125</ele>
        <time>2020-08-11T10:01:19.000Z</time>
      </trkpt>
      <trkpt lat="42.2606678120791912078857421875" lon="1.67911053635179996490478515625">
        <ele>1696</ele>
        <time>2020-08-11T10:01:34.000Z</time>
      </trkpt>
      <trkpt lat="42.260660268366336822509765625" lon="1.67910031042993068695068359375">
        <ele>1696</ele>
        <time>2020-08-11T10:01:35.000Z</time>
      </trkpt>
      <trkpt lat="42.26064174436032772064208984375" lon="1.6790561378002166748046875">
        <ele>1696</ele>
        <time>2020-08-11T10:01:38.000Z</time>
      </trkpt>
      <trkpt lat="42.26062380708754062652587890625" lon="1.679002828896045684814453125">
        <ele>1695.5999755859375</ele>
        <time>2020-08-11T10:01:42.000Z</time>
      </trkpt>
      <trkpt lat="42.26061995141208171844482421875" lon="1.6789895854890346527099609375">
        <ele>1695.4000244140625</ele>
        <time>2020-08-11T10:01:43.000Z</time>
      </trkpt>
      <trkpt lat="42.260617353022098541259765625" lon="1.678880117833614349365234375">
        <ele>1695.199951171875</ele>
        <time>2020-08-11T10:01:51.000Z</time>
      </trkpt>
      <trkpt lat="42.26061140187084674835205078125" lon="1.6788688860833644866943359375">
        <ele>1695.199951171875</ele>
        <time>2020-08-11T10:01:53.000Z</time>
      </trkpt>
      <trkpt lat="42.26058374159038066864013671875" lon="1.67887249030172824859619140625">
        <ele>1694.5999755859375</ele>
        <time>2020-08-11T10:01:56.000Z</time>
      </trkpt>
      <trkpt lat="42.26056630723178386688232421875" lon="1.6789054311811923980712890625">
        <ele>1693.800048828125</ele>
        <time>2020-08-11T10:02:02.000Z</time>
      </trkpt>
      <trkpt lat="42.26055339910089969635009765625" lon="1.67895697988569736480712890625">
        <ele>1694</ele>
        <time>2020-08-11T10:02:08.000Z</time>
      </trkpt>
      <trkpt lat="42.26054283790290355682373046875" lon="1.67898899875581264495849609375">
        <ele>1693.4000244140625</ele>
        <time>2020-08-11T10:02:10.000Z</time>
      </trkpt>
      <trkpt lat="42.26052842102944850921630859375" lon="1.679091341793537139892578125">
        <ele>1692.800048828125</ele>
        <time>2020-08-11T10:02:16.000Z</time>
      </trkpt>
      <trkpt lat="42.26052121259272098541259765625" lon="1.6791411302983760833740234375">
        <ele>1692.4000244140625</ele>
        <time>2020-08-11T10:02:19.000Z</time>
      </trkpt>
      <trkpt lat="42.2605003416538238525390625" lon="1.6792386956512928009033203125">
        <ele>1691.5999755859375</ele>
        <time>2020-08-11T10:02:25.000Z</time>
      </trkpt>
      <trkpt lat="42.26048818789422512054443359375" lon="1.67927096597850322723388671875">
        <ele>1691.4000244140625</ele>
        <time>2020-08-11T10:02:27.000Z</time>
      </trkpt>
      <trkpt lat="42.26045130752027034759521484375" lon="1.67930969037115573883056640625">
        <ele>1690.5999755859375</ele>
        <time>2020-08-11T10:02:31.000Z</time>
      </trkpt>
      <trkpt lat="42.2604411654174327850341796875" lon="1.679310612380504608154296875">
        <ele>1690.199951171875</ele>
        <time>2020-08-11T10:02:32.000Z</time>
      </trkpt>
      <trkpt lat="42.26041392423212528228759765625" lon="1.6792903281748294830322265625">
        <ele>1689</ele>
        <time>2020-08-11T10:02:36.000Z</time>
      </trkpt>
      <trkpt lat="42.26039246656000614166259765625" lon="1.67927197180688381195068359375">
        <ele>1688.5999755859375</ele>
        <time>2020-08-11T10:02:39.000Z</time>
      </trkpt>
      <trkpt lat="42.26036028005182743072509765625" lon="1.67926811613142490386962890625">
        <ele>1688</ele>
        <time>2020-08-11T10:02:42.000Z</time>
      </trkpt>
      <trkpt lat="42.26031593978404998779296875" lon="1.679264008998870849609375">
        <ele>1687</ele>
        <time>2020-08-11T10:02:46.000Z</time>
      </trkpt>
      <trkpt lat="42.26030529476702213287353515625" lon="1.6792611591517925262451171875">
        <ele>1686.800048828125</ele>
        <time>2020-08-11T10:02:47.000Z</time>
      </trkpt>
      <trkpt lat="42.2602715156972408294677734375" lon="1.67926065623760223388671875">
        <ele>1686.199951171875</ele>
        <time>2020-08-11T10:02:50.000Z</time>
      </trkpt>
      <trkpt lat="42.2602410055696964263916015625" lon="1.67925068177282810211181640625">
        <ele>1686</ele>
        <time>2020-08-11T10:02:53.000Z</time>
      </trkpt>
      <trkpt lat="42.260225079953670501708984375" lon="1.67922603897750377655029296875">
        <ele>1685.5999755859375</ele>
        <time>2020-08-11T10:02:55.000Z</time>
      </trkpt>
      <trkpt lat="42.2601997666060924530029296875" lon="1.67915512807667255401611328125">
        <ele>1684.5999755859375</ele>
        <time>2020-08-11T10:03:00.000Z</time>
      </trkpt>
      <trkpt lat="42.26019616238772869110107421875" lon="1.67912579141557216644287109375">
        <ele>1684.5999755859375</ele>
        <time>2020-08-11T10:03:02.000Z</time>
      </trkpt>
      <trkpt lat="42.260177135467529296875" lon="1.679033339023590087890625">
        <ele>1683.4000244140625</ele>
        <time>2020-08-11T10:03:08.000Z</time>
      </trkpt>
      <trkpt lat="42.26017118431627750396728515625" lon="1.67901867069303989410400390625">
        <ele>1683.199951171875</ele>
        <time>2020-08-11T10:03:09.000Z</time>
      </trkpt>
      <trkpt lat="42.26014134474098682403564453125" lon="1.67893233709037303924560546875">
        <ele>1682.199951171875</ele>
        <time>2020-08-11T10:03:16.000Z</time>
      </trkpt>
      <trkpt lat="42.26011075079441070556640625" lon="1.67889109812676906585693359375">
        <ele>1681</ele>
        <time>2020-08-11T10:03:20.000Z</time>
      </trkpt>
      <trkpt lat="42.26008468307554721832275390625" lon="1.67884751223027706146240234375">
        <ele>1680.199951171875</ele>
        <time>2020-08-11T10:03:24.000Z</time>
      </trkpt>
      <trkpt lat="42.260063476860523223876953125" lon="1.67882286943495273590087890625">
        <ele>1679.800048828125</ele>
        <time>2020-08-11T10:03:26.000Z</time>
      </trkpt>
      <trkpt lat="42.2600294463336467742919921875" lon="1.67876604013144969940185546875">
        <ele>1678.800048828125</ele>
        <time>2020-08-11T10:03:31.000Z</time>
      </trkpt>
      <trkpt lat="42.26002282463014125823974609375" lon="1.6787515394389629364013671875">
        <ele>1678.5999755859375</ele>
        <time>2020-08-11T10:03:32.000Z</time>
      </trkpt>
      <trkpt lat="42.25995845161378383636474609375" lon="1.6786898486316204071044921875">
        <ele>1677.4000244140625</ele>
        <time>2020-08-11T10:03:39.000Z</time>
      </trkpt>
      <trkpt lat="42.25988100282847881317138671875" lon="1.67864835821092128753662109375">
        <ele>1676.4000244140625</ele>
        <time>2020-08-11T10:03:45.000Z</time>
      </trkpt>
      <trkpt lat="42.25985434837639331817626953125" lon="1.67862170375883579254150390625">
        <ele>1676</ele>
        <time>2020-08-11T10:03:48.000Z</time>
      </trkpt>
      <trkpt lat="42.25984521210193634033203125" lon="1.67853034101426601409912109375">
        <ele>1675.4000244140625</ele>
        <time>2020-08-11T10:03:54.000Z</time>
      </trkpt>
      <trkpt lat="42.25986373610794544219970703125" lon="1.6784789599478244781494140625">
        <ele>1674.199951171875</ele>
        <time>2020-08-11T10:03:58.000Z</time>
      </trkpt>
      <trkpt lat="42.25987412966787815093994140625" lon="1.6784363798797130584716796875">
        <ele>1673.4000244140625</ele>
        <time>2020-08-11T10:04:01.000Z</time>
      </trkpt>
      <trkpt lat="42.25987714715301990509033203125" lon="1.67840410955250263214111328125">
        <ele>1673.199951171875</ele>
        <time>2020-08-11T10:04:03.000Z</time>
      </trkpt>
      <trkpt lat="42.25987211801111698150634765625" lon="1.678304113447666168212890625">
        <ele>1672</ele>
        <time>2020-08-11T10:04:09.000Z</time>
      </trkpt>
      <trkpt lat="42.25987060926854610443115234375" lon="1.67828592471778392791748046875">
        <ele>1671.5999755859375</ele>
        <time>2020-08-11T10:04:10.000Z</time>
      </trkpt>
      <trkpt lat="42.2598722018301486968994140625" lon="1.6782563365995883941650390625">
        <ele>1670.4000244140625</ele>
        <time>2020-08-11T10:04:12.000Z</time>
      </trkpt>
      <trkpt lat="42.2598812542855739593505859375" lon="1.67815717868506908416748046875">
        <ele>1669.199951171875</ele>
        <time>2020-08-11T10:04:18.000Z</time>
      </trkpt>
      <trkpt lat="42.259881757199764251708984375" lon="1.6781091503798961639404296875">
        <ele>1668</ele>
        <time>2020-08-11T10:04:21.000Z</time>
      </trkpt>
      <trkpt lat="42.25988368503749370574951171875" lon="1.67806045152246952056884765625">
        <ele>1667.199951171875</ele>
        <time>2020-08-11T10:04:24.000Z</time>
      </trkpt>
      <trkpt lat="42.259883768856525421142578125" lon="1.6780323721468448638916015625">
        <ele>1666.800048828125</ele>
        <time>2020-08-11T10:04:26.000Z</time>
      </trkpt>
      <trkpt lat="42.2598725371062755584716796875" lon="1.67793271131813526153564453125">
        <ele>1665.5999755859375</ele>
        <time>2020-08-11T10:04:32.000Z</time>
      </trkpt>
      <trkpt lat="42.25986666977405548095703125" lon="1.67791812680661678314208984375">
        <ele>1665.5999755859375</ele>
        <time>2020-08-11T10:04:33.000Z</time>
      </trkpt>
      <trkpt lat="42.25984227843582630157470703125" lon="1.67785945348441600799560546875">
        <ele>1664.4000244140625</ele>
        <time>2020-08-11T10:04:37.000Z</time>
      </trkpt>
      <trkpt lat="42.259818054735660552978515625" lon="1.67782659642398357391357421875">
        <ele>1664.4000244140625</ele>
        <time>2020-08-11T10:04:40.000Z</time>
      </trkpt>
      <trkpt lat="42.25978461094200611114501953125" lon="1.677784435451030731201171875">
        <ele>1663.199951171875</ele>
        <time>2020-08-11T10:04:44.000Z</time>
      </trkpt>
      <trkpt lat="42.2597692720592021942138671875" lon="1.67774856090545654296875">
        <ele>1662.199951171875</ele>
        <time>2020-08-11T10:04:47.000Z</time>
      </trkpt>
      <trkpt lat="42.25976365618407726287841796875" lon="1.677735149860382080078125">
        <ele>1662</ele>
        <time>2020-08-11T10:04:48.000Z</time>
      </trkpt>
      <trkpt lat="42.25974370725452899932861328125" lon="1.67768293060362339019775390625">
        <ele>1660.800048828125</ele>
        <time>2020-08-11T10:04:52.000Z</time>
      </trkpt>
      <trkpt lat="42.25974270142614841461181640625" lon="1.67765309102833271026611328125">
        <ele>1660</ele>
        <time>2020-08-11T10:04:54.000Z</time>
      </trkpt>
      <trkpt lat="42.25974203087389469146728515625" lon="1.67763867415487766265869140625">
        <ele>1659.800048828125</ele>
        <time>2020-08-11T10:04:55.000Z</time>
      </trkpt>
      <trkpt lat="42.259736247360706329345703125" lon="1.67755686677992343902587890625">
        <ele>1658.5999755859375</ele>
        <time>2020-08-11T10:05:00.000Z</time>
      </trkpt>
      <trkpt lat="42.259735576808452606201171875" lon="1.6774945892393589019775390625">
        <ele>1657.800048828125</ele>
        <time>2020-08-11T10:05:04.000Z</time>
      </trkpt>
      <trkpt lat="42.2597350738942623138427734375" lon="1.677477993071079254150390625">
        <ele>1657.5999755859375</ele>
        <time>2020-08-11T10:05:05.000Z</time>
      </trkpt>
      <trkpt lat="42.25974353961646556854248046875" lon="1.67742275632917881011962890625">
        <ele>1656.199951171875</ele>
        <time>2020-08-11T10:05:09.000Z</time>
      </trkpt>
      <trkpt lat="42.2597461380064487457275390625" lon="1.67740046046674251556396484375">
        <ele>1655.800048828125</ele>
        <time>2020-08-11T10:05:11.000Z</time>
      </trkpt>
      <trkpt lat="42.259753011167049407958984375" lon="1.6773641668260097503662109375">
        <ele>1655.199951171875</ele>
        <time>2020-08-11T10:05:14.000Z</time>
      </trkpt>
      <trkpt lat="42.2597622312605381011962890625" lon="1.677293591201305389404296875">
        <ele>1654.199951171875</ele>
        <time>2020-08-11T10:05:20.000Z</time>
      </trkpt>
      <trkpt lat="42.259763740003108978271484375" lon="1.6772816888988018035888671875">
        <ele>1654</ele>
        <time>2020-08-11T10:05:21.000Z</time>
      </trkpt>
      <trkpt lat="42.25977991707623004913330078125" lon="1.677200384438037872314453125">
        <ele>1652.5999755859375</ele>
        <time>2020-08-11T10:05:27.000Z</time>
      </trkpt>
      <trkpt lat="42.25978159345686435699462890625" lon="1.6771866381168365478515625">
        <ele>1652.4000244140625</ele>
        <time>2020-08-11T10:05:28.000Z</time>
      </trkpt>
      <trkpt lat="42.25979383103549480438232421875" lon="1.67713492177426815032958984375">
        <ele>1651.5999755859375</ele>
        <time>2020-08-11T10:05:32.000Z</time>
      </trkpt>
      <trkpt lat="42.25981034338474273681640625" lon="1.67708882130682468414306640625">
        <ele>1650.5999755859375</ele>
        <time>2020-08-11T10:05:36.000Z</time>
      </trkpt>
      <trkpt lat="42.25981260649859905242919921875" lon="1.67707775719463825225830078125">
        <ele>1650.5999755859375</ele>
        <time>2020-08-11T10:05:37.000Z</time>
      </trkpt>
      <trkpt lat="42.2598271071910858154296875" lon="1.67700516991317272186279296875">
        <ele>1649.4000244140625</ele>
        <time>2020-08-11T10:05:42.000Z</time>
      </trkpt>
      <trkpt lat="42.2598297894001007080078125" lon="1.6769889928400516510009765625">
        <ele>1649.199951171875</ele>
        <time>2020-08-11T10:05:43.000Z</time>
      </trkpt>
      <trkpt lat="42.2598393447697162628173828125" lon="1.67689955793321132659912109375">
        <ele>1648.199951171875</ele>
        <time>2020-08-11T10:05:48.000Z</time>
      </trkpt>
      <trkpt lat="42.25984278135001659393310546875" lon="1.6768612526357173919677734375">
        <ele>1647.4000244140625</ele>
        <time>2020-08-11T10:05:51.000Z</time>
      </trkpt>
      <trkpt lat="42.25984462536871433258056640625" lon="1.67684742249548435211181640625">
        <ele>1647.199951171875</ele>
        <time>2020-08-11T10:05:52.000Z</time>
      </trkpt>
      <trkpt lat="42.259841859340667724609375" lon="1.6767807863652706146240234375">
        <ele>1646.4000244140625</ele>
        <time>2020-08-11T10:05:57.000Z</time>
      </trkpt>
      <trkpt lat="42.25983741693198680877685546875" lon="1.67675689794123172760009765625">
        <ele>1646</ele>
        <time>2020-08-11T10:05:59.000Z</time>
      </trkpt>
      <trkpt lat="42.25983624346554279327392578125" lon="1.676720269024372100830078125">
        <ele>1645</ele>
        <time>2020-08-11T10:06:02.000Z</time>
      </trkpt>
      <trkpt lat="42.25983993150293827056884765625" lon="1.67669487185776233673095703125">
        <ele>1644.5999755859375</ele>
        <time>2020-08-11T10:06:04.000Z</time>
      </trkpt>
      <trkpt lat="42.25984764285385608673095703125" lon="1.67666134424507617950439453125">
        <ele>1643.800048828125</ele>
        <time>2020-08-11T10:06:07.000Z</time>
      </trkpt>
      <trkpt lat="42.2598597966134548187255859375" lon="1.67660719715058803558349609375">
        <ele>1642.800048828125</ele>
        <time>2020-08-11T10:06:11.000Z</time>
      </trkpt>
      <trkpt lat="42.2598654963076114654541015625" lon="1.67658473365008831024169921875">
        <ele>1642.199951171875</ele>
        <time>2020-08-11T10:06:13.000Z</time>
      </trkpt>
      <trkpt lat="42.25986876524984836578369140625" lon="1.67655774392187595367431640625">
        <ele>1641.5999755859375</ele>
        <time>2020-08-11T10:06:15.000Z</time>
      </trkpt>
      <trkpt lat="42.25987982936203479766845703125" lon="1.6764961369335651397705078125">
        <ele>1640.4000244140625</ele>
        <time>2020-08-11T10:06:20.000Z</time>
      </trkpt>
      <trkpt lat="42.2598812542855739593505859375" lon="1.67647124268114566802978515625">
        <ele>1639.800048828125</ele>
        <time>2020-08-11T10:06:22.000Z</time>
      </trkpt>
      <trkpt lat="42.25988066755235195159912109375" lon="1.6764314286410808563232421875">
        <ele>1639.199951171875</ele>
        <time>2020-08-11T10:06:25.000Z</time>
      </trkpt>
      <trkpt lat="42.2598765604197978973388671875" lon="1.6763700731098651885986328125">
        <ele>1638.199951171875</ele>
        <time>2020-08-11T10:06:30.000Z</time>
      </trkpt>
      <trkpt lat="42.25987915880978107452392578125" lon="1.67636445723474025726318359375">
        <ele>1637.800048828125</ele>
        <time>2020-08-11T10:06:31.000Z</time>
      </trkpt>
      <trkpt lat="42.2598802484571933746337890625" lon="1.67635540477931499481201171875">
        <ele>1637.4000244140625</ele>
        <time>2020-08-11T10:06:41.000Z</time>
      </trkpt>
      <trkpt lat="42.25988117046654224395751953125" lon="1.676325984299182891845703125">
        <ele>1637</ele>
        <time>2020-08-11T10:06:44.000Z</time>
      </trkpt>
      <trkpt lat="42.2598718665540218353271484375" lon="1.67628415860235691070556640625">
        <ele>1636.199951171875</ele>
        <time>2020-08-11T10:06:48.000Z</time>
      </trkpt>
      <trkpt lat="42.2598705254495143890380859375" lon="1.67627275921404361724853515625">
        <ele>1635.800048828125</ele>
        <time>2020-08-11T10:06:49.000Z</time>
      </trkpt>
      <trkpt lat="42.2598654963076114654541015625" lon="1.6762088052928447723388671875">
        <ele>1634.800048828125</ele>
        <time>2020-08-11T10:06:54.000Z</time>
      </trkpt>
      <trkpt lat="42.2598584555089473724365234375" lon="1.67617452330887317657470703125">
        <ele>1634.4000244140625</ele>
        <time>2020-08-11T10:06:57.000Z</time>
      </trkpt>
      <trkpt lat="42.25985703058540821075439453125" lon="1.6761539876461029052734375">
        <ele>1634</ele>
        <time>2020-08-11T10:06:59.000Z</time>
      </trkpt>
      <trkpt lat="42.25985862314701080322265625" lon="1.67614149861037731170654296875">
        <ele>1633.5999755859375</ele>
        <time>2020-08-11T10:07:00.000Z</time>
      </trkpt>
      <trkpt lat="42.25985267199575901031494140625" lon="1.676109731197357177734375">
        <ele>1633.199951171875</ele>
        <time>2020-08-11T10:07:03.000Z</time>
      </trkpt>
      <trkpt lat="42.25985066033899784088134765625" lon="1.6760720126330852508544921875">
        <ele>1632.800048828125</ele>
        <time>2020-08-11T10:07:07.000Z</time>
      </trkpt>
      <trkpt lat="42.25985451601445674896240234375" lon="1.6760374791920185089111328125">
        <ele>1632.5999755859375</ele>
        <time>2020-08-11T10:07:10.000Z</time>
      </trkpt>
      <trkpt lat="42.25986306555569171905517578125" lon="1.6759821586310863494873046875">
        <ele>1631.800048828125</ele>
        <time>2020-08-11T10:07:14.000Z</time>
      </trkpt>
      <trkpt lat="42.25986809469759464263916015625" lon="1.67593781836330890655517578125">
        <ele>1631</ele>
        <time>2020-08-11T10:07:17.000Z</time>
      </trkpt>
      <trkpt lat="42.25987446494400501251220703125" lon="1.67590915225446224212646484375">
        <ele>1630.4000244140625</ele>
        <time>2020-08-11T10:07:19.000Z</time>
      </trkpt>
      <trkpt lat="42.25988016463816165924072265625" lon="1.67584461160004138946533203125">
        <ele>1629.199951171875</ele>
        <time>2020-08-11T10:07:24.000Z</time>
      </trkpt>
      <trkpt lat="42.25988368503749370574951171875" lon="1.6758084855973720550537109375">
        <ele>1628.5999755859375</ele>
        <time>2020-08-11T10:07:27.000Z</time>
      </trkpt>
      <trkpt lat="42.2598946653306484222412109375" lon="1.67576230131089687347412109375">
        <ele>1628.199951171875</ele>
        <time>2020-08-11T10:07:33.000Z</time>
      </trkpt>
      <trkpt lat="42.25990816019475460052490234375" lon="1.67571075260639190673828125">
        <ele>1628</ele>
        <time>2020-08-11T10:07:37.000Z</time>
      </trkpt>
      <trkpt lat="42.25991955958306789398193359375" lon="1.675675548613071441650390625">
        <ele>1626.800048828125</ele>
        <time>2020-08-11T10:07:40.000Z</time>
      </trkpt>
      <trkpt lat="42.25992509163916110992431640625" lon="1.67566373012959957122802734375">
        <ele>1626.5999755859375</ele>
        <time>2020-08-11T10:07:41.000Z</time>
      </trkpt>
      <trkpt lat="42.25993615575134754180908203125" lon="1.6756391711533069610595703125">
        <ele>1626</ele>
        <time>2020-08-11T10:07:43.000Z</time>
      </trkpt>
      <trkpt lat="42.25996012799441814422607421875" lon="1.67557085864245891571044921875">
        <ele>1625</ele>
        <time>2020-08-11T10:07:49.000Z</time>
      </trkpt>
      <trkpt lat="42.25996230728924274444580078125" lon="1.6755639016628265380859375">
        <ele>1624.800048828125</ele>
        <time>2020-08-11T10:07:50.000Z</time>
      </trkpt>
      <trkpt lat="42.25997672416269779205322265625" lon="1.67550615034997463226318359375">
        <ele>1623.800048828125</ele>
        <time>2020-08-11T10:07:55.000Z</time>
      </trkpt>
      <trkpt lat="42.25998275913298130035400390625" lon="1.67548150755465030670166015625">
        <ele>1623.5999755859375</ele>
        <time>2020-08-11T10:07:57.000Z</time>
      </trkpt>
      <trkpt lat="42.2599960863590240478515625" lon="1.67543691582977771759033203125">
        <ele>1622.800048828125</ele>
        <time>2020-08-11T10:08:00.000Z</time>
      </trkpt>
      <trkpt lat="42.26001595146954059600830078125" lon="1.675358712673187255859375">
        <ele>1621.4000244140625</ele>
        <time>2020-08-11T10:08:06.000Z</time>
      </trkpt>
      <trkpt lat="42.260033972561359405517578125" lon="1.67528629302978515625">
        <ele>1620.199951171875</ele>
        <time>2020-08-11T10:08:11.000Z</time>
      </trkpt>
      <trkpt lat="42.2600562684237957000732421875" lon="1.67521697469055652618408203125">
        <ele>1619.5999755859375</ele>
        <time>2020-08-11T10:08:16.000Z</time>
      </trkpt>
      <trkpt lat="42.26007043384015560150146484375" lon="1.67518512345850467681884765625">
        <ele>1619.199951171875</ele>
        <time>2020-08-11T10:08:18.000Z</time>
      </trkpt>
      <trkpt lat="42.2601035423576831817626953125" lon="1.67511890642344951629638671875">
        <ele>1618.199951171875</ele>
        <time>2020-08-11T10:08:23.000Z</time>
      </trkpt>
      <trkpt lat="42.26011016406118869781494140625" lon="1.67510448954999446868896484375">
        <ele>1618</ele>
        <time>2020-08-11T10:08:24.000Z</time>
      </trkpt>
      <trkpt lat="42.26014721207320690155029296875" lon="1.675015389919281005859375">
        <ele>1616.800048828125</ele>
        <time>2020-08-11T10:08:30.000Z</time>
      </trkpt>
      <trkpt lat="42.26016179658472537994384765625" lon="1.67497574351727962493896484375">
        <ele>1616.4000244140625</ele>
        <time>2020-08-11T10:08:33.000Z</time>
      </trkpt>
      <trkpt lat="42.260202951729297637939453125" lon="1.67488287203013896942138671875">
        <ele>1616</ele>
        <time>2020-08-11T10:08:40.000Z</time>
      </trkpt>
      <trkpt lat="42.26023606024682521820068359375" lon="1.67476334609091281890869140625">
        <ele>1614.5999755859375</ele>
        <time>2020-08-11T10:08:49.000Z</time>
      </trkpt>
      <trkpt lat="42.2602383233606815338134765625" lon="1.6747503541409969329833984375">
        <ele>1614.4000244140625</ele>
        <time>2020-08-11T10:08:50.000Z</time>
      </trkpt>
      <trkpt lat="42.260242514312267303466796875" lon="1.67473920620977878570556640625">
        <ele>1613.800048828125</ele>
        <time>2020-08-11T10:08:56.000Z</time>
      </trkpt>
      <trkpt lat="42.26026766002178192138671875" lon="1.67468304745852947235107421875">
        <ele>1613.5999755859375</ele>
        <time>2020-08-11T10:09:03.000Z</time>
      </trkpt>
      <trkpt lat="42.260286100208759307861328125" lon="1.6746263019740581512451171875">
        <ele>1613.4000244140625</ele>
        <time>2020-08-11T10:09:07.000Z</time>
      </trkpt>
      <trkpt lat="42.2602959908545017242431640625" lon="1.67456955648958683013916015625">
        <ele>1613.199951171875</ele>
        <time>2020-08-11T10:09:11.000Z</time>
      </trkpt>
      <trkpt lat="42.2603047080338001251220703125" lon="1.67446763254702091217041015625">
        <ele>1612.4000244140625</ele>
        <time>2020-08-11T10:09:18.000Z</time>
      </trkpt>
      <trkpt lat="42.26030244491994380950927734375" lon="1.67442136444151401519775390625">
        <ele>1611.800048828125</ele>
        <time>2020-08-11T10:09:21.000Z</time>
      </trkpt>
      <trkpt lat="42.2603043727576732635498046875" lon="1.67434844188392162322998046875">
        <ele>1611.800048828125</ele>
        <time>2020-08-11T10:09:26.000Z</time>
      </trkpt>
      <trkpt lat="42.26030177436769008636474609375" lon="1.6743319295346736907958984375">
        <ele>1611.4000244140625</ele>
        <time>2020-08-11T10:09:28.000Z</time>
      </trkpt>
      <trkpt lat="42.26030462421476840972900390625" lon="1.67425431311130523681640625">
        <ele>1611</ele>
        <time>2020-08-11T10:09:34.000Z</time>
      </trkpt>
      <trkpt lat="42.260325662791728973388671875" lon="1.67408843524754047393798828125">
        <ele>1610</ele>
        <time>2020-08-11T10:09:38.000Z</time>
      </trkpt>
      <trkpt lat="42.26034888066351413726806640625" lon="1.67399321682751178741455078125">
        <ele>1609.199951171875</ele>
        <time>2020-08-11T10:09:40.000Z</time>
      </trkpt>
      <trkpt lat="42.26036287844181060791015625" lon="1.673940829932689666748046875">
        <ele>1608.800048828125</ele>
        <time>2020-08-11T10:09:41.000Z</time>
      </trkpt>
      <trkpt lat="42.26038089953362941741943359375" lon="1.67388944886624813079833984375">
        <ele>1608.199951171875</ele>
        <time>2020-08-11T10:09:42.000Z</time>
      </trkpt>
      <trkpt lat="42.26042280904948711395263671875" lon="1.67380261234939098358154296875">
        <ele>1607.800048828125</ele>
        <time>2020-08-11T10:09:44.000Z</time>
      </trkpt>
      <trkpt lat="42.2604451887309551239013671875" lon="1.67376271449029445648193359375">
        <ele>1607.5999755859375</ele>
        <time>2020-08-11T10:09:45.000Z</time>
      </trkpt>
      <trkpt lat="42.2605658881366252899169921875" lon="1.67357378639280796051025390625">
        <ele>1606.199951171875</ele>
        <time>2020-08-11T10:09:50.000Z</time>
      </trkpt>
      <trkpt lat="42.2606004215776920318603515625" lon="1.6735012829303741455078125">
        <ele>1605.5999755859375</ele>
        <time>2020-08-11T10:09:52.000Z</time>
      </trkpt>
      <trkpt lat="42.26064744405448436737060546875" lon="1.67336189188063144683837890625">
        <ele>1604.800048828125</ele>
        <time>2020-08-11T10:09:56.000Z</time>
      </trkpt>
      <trkpt lat="42.26066957227885723114013671875" lon="1.6732437908649444580078125">
        <ele>1603.5999755859375</ele>
        <time>2020-08-11T10:09:59.000Z</time>
      </trkpt>
      <trkpt lat="42.26067543961107730865478515625" lon="1.67320447973906993865966796875">
        <ele>1603.4000244140625</ele>
        <time>2020-08-11T10:10:00.000Z</time>
      </trkpt>
      <trkpt lat="42.26067996583878993988037109375" lon="1.67313206009566783905029296875">
        <ele>1601.5999755859375</ele>
        <time>2020-08-11T10:10:02.000Z</time>
      </trkpt>
      <trkpt lat="42.26067661307752132415771484375" lon="1.673098616302013397216796875">
        <ele>1600.5999755859375</ele>
        <time>2020-08-11T10:10:03.000Z</time>
      </trkpt>
      <trkpt lat="42.26067133247852325439453125" lon="1.673035584390163421630859375">
        <ele>1599.199951171875</ele>
        <time>2020-08-11T10:10:05.000Z</time>
      </trkpt>
      <trkpt lat="42.260665632784366607666015625" lon="1.67300700210034847259521484375">
        <ele>1598.5999755859375</ele>
        <time>2020-08-11T10:10:06.000Z</time>
      </trkpt>
      <trkpt lat="42.260643504559993743896484375" lon="1.67296106927096843719482421875">
        <ele>1597.800048828125</ele>
        <time>2020-08-11T10:10:08.000Z</time>
      </trkpt>
      <trkpt lat="42.2606104798614978790283203125" lon="1.67291044257581233978271484375">
        <ele>1597.199951171875</ele>
        <time>2020-08-11T10:10:10.000Z</time>
      </trkpt>
      <trkpt lat="42.2606044448912143707275390625" lon="1.6728855483233928680419921875">
        <ele>1596.800048828125</ele>
        <time>2020-08-11T10:10:11.000Z</time>
      </trkpt>
      <trkpt lat="42.26059849373996257781982421875" lon="1.672835089266300201416015625">
        <ele>1595.800048828125</ele>
        <time>2020-08-11T10:10:13.000Z</time>
      </trkpt>
      <trkpt lat="42.26058441214263439178466796875" lon="1.67277063243091106414794921875">
        <ele>1595.199951171875</ele>
        <time>2020-08-11T10:10:15.000Z</time>
      </trkpt>
      <trkpt lat="42.26056429557502269744873046875" lon="1.6727068461477756500244140625">
        <ele>1594.4000244140625</ele>
        <time>2020-08-11T10:10:17.000Z</time>
      </trkpt>
      <trkpt lat="42.260532863438129425048828125" lon="1.6726186685264110565185546875">
        <ele>1593.199951171875</ele>
        <time>2020-08-11T10:10:20.000Z</time>
      </trkpt>
      <trkpt lat="42.26050947792828083038330078125" lon="1.67256661690771579742431640625">
        <ele>1591.5999755859375</ele>
        <time>2020-08-11T10:10:22.000Z</time>
      </trkpt>
      <trkpt lat="42.26049900054931640625" lon="1.67254499159753322601318359375">
        <ele>1590.800048828125</ele>
        <time>2020-08-11T10:10:23.000Z</time>
      </trkpt>
      <trkpt lat="42.2604922950267791748046875" lon="1.6725214384496212005615234375">
        <ele>1590</ele>
        <time>2020-08-11T10:10:24.000Z</time>
      </trkpt>
      <trkpt lat="42.26049137301743030548095703125" lon="1.67242378927767276763916015625">
        <ele>1588.5999755859375</ele>
        <time>2020-08-11T10:10:27.000Z</time>
      </trkpt>
      <trkpt lat="42.2604934684932231903076171875" lon="1.67238472960889339447021484375">
        <ele>1588.4000244140625</ele>
        <time>2020-08-11T10:10:28.000Z</time>
      </trkpt>
      <trkpt lat="42.2605030238628387451171875" lon="1.67227559722959995269775390625">
        <ele>1587.800048828125</ele>
        <time>2020-08-11T10:10:30.000Z</time>
      </trkpt>
      <trkpt lat="42.26051442325115203857421875" lon="1.67221021838486194610595703125">
        <ele>1586.800048828125</ele>
        <time>2020-08-11T10:10:31.000Z</time>
      </trkpt>
      <trkpt lat="42.26052758283913135528564453125" lon="1.6721452586352825164794921875">
        <ele>1586</ele>
        <time>2020-08-11T10:10:32.000Z</time>
      </trkpt>
      <trkpt lat="42.260539568960666656494140625" lon="1.672079376876354217529296875">
        <ele>1585.199951171875</ele>
        <time>2020-08-11T10:10:33.000Z</time>
      </trkpt>
      <trkpt lat="42.26056865416467189788818359375" lon="1.671738736331462860107421875">
        <ele>1584</ele>
        <time>2020-08-11T10:10:38.000Z</time>
      </trkpt>
      <trkpt lat="42.26056496612727642059326171875" lon="1.671560369431972503662109375">
        <ele>1583</ele>
        <time>2020-08-11T10:10:41.000Z</time>
      </trkpt>
      <trkpt lat="42.26056898944079875946044921875" lon="1.67145408689975738525390625">
        <ele>1581.4000244140625</ele>
        <time>2020-08-11T10:10:43.000Z</time>
      </trkpt>
      <trkpt lat="42.26057116873562335968017578125" lon="1.6713982634246349334716796875">
        <ele>1581.199951171875</ele>
        <time>2020-08-11T10:10:44.000Z</time>
      </trkpt>
      <trkpt lat="42.26058927364647388458251953125" lon="1.67110397480428218841552734375">
        <ele>1581.5999755859375</ele>
        <time>2020-08-11T10:10:50.000Z</time>
      </trkpt>
      <trkpt lat="42.2605756111443042755126953125" lon="1.67102484963834285736083984375">
        <ele>1580.199951171875</ele>
        <time>2020-08-11T10:10:53.000Z</time>
      </trkpt>
      <trkpt lat="42.260572426021099090576171875" lon="1.67097791098058223724365234375">
        <ele>1580</ele>
        <time>2020-08-11T10:10:55.000Z</time>
      </trkpt>
      <trkpt lat="42.2605605237185955047607421875" lon="1.6708303056657314300537109375">
        <ele>1579.199951171875</ele>
        <time>2020-08-11T10:11:00.000Z</time>
      </trkpt>
      <trkpt lat="42.26055658422410488128662109375" lon="1.67080373503267765045166015625">
        <ele>1578.5999755859375</ele>
        <time>2020-08-11T10:11:01.000Z</time>
      </trkpt>
      <trkpt lat="42.26054032333195209503173828125" lon="1.670750342309474945068359375">
        <ele>1578</ele>
        <time>2020-08-11T10:11:03.000Z</time>
      </trkpt>
      <trkpt lat="42.260496653616428375244140625" lon="1.67067767120897769927978515625">
        <ele>1576.4000244140625</ele>
        <time>2020-08-11T10:11:06.000Z</time>
      </trkpt>
      <trkpt lat="42.26047678850591182708740234375" lon="1.6706556268036365509033203125">
        <ele>1575.800048828125</ele>
        <time>2020-08-11T10:11:07.000Z</time>
      </trkpt>
      <trkpt lat="42.26044409908354282379150390625" lon="1.67059980332851409912109375">
        <ele>1575</ele>
        <time>2020-08-11T10:11:09.000Z</time>
      </trkpt>
      <trkpt lat="42.2603948973119258880615234375" lon="1.6704913415014743804931640625">
        <ele>1573.800048828125</ele>
        <time>2020-08-11T10:11:12.000Z</time>
      </trkpt>
      <trkpt lat="42.26034485734999179840087890625" lon="1.6704336740076541900634765625">
        <ele>1572.4000244140625</ele>
        <time>2020-08-11T10:11:14.000Z</time>
      </trkpt>
      <trkpt lat="42.260287441313266754150390625" lon="1.6703818738460540771484375">
        <ele>1571.4000244140625</ele>
        <time>2020-08-11T10:11:16.000Z</time>
      </trkpt>
      <trkpt lat="42.26026388816535472869873046875" lon="1.67033954523503780364990234375">
        <ele>1571</ele>
        <time>2020-08-11T10:11:17.000Z</time>
      </trkpt>
      <trkpt lat="42.2602430172264575958251953125" lon="1.6701698116958141326904296875">
        <ele>1570.4000244140625</ele>
        <time>2020-08-11T10:11:21.000Z</time>
      </trkpt>
      <trkpt lat="42.2602524049580097198486328125" lon="1.6700906865298748016357421875">
        <ele>1570.199951171875</ele>
        <time>2020-08-11T10:11:23.000Z</time>
      </trkpt>
      <trkpt lat="42.26027176715433597564697265625" lon="1.66994928382337093353271484375">
        <ele>1569.4000244140625</ele>
        <time>2020-08-11T10:11:26.000Z</time>
      </trkpt>
      <trkpt lat="42.26027897559106349945068359375" lon="1.66990377008914947509765625">
        <ele>1569</ele>
        <time>2020-08-11T10:11:27.000Z</time>
      </trkpt>
      <trkpt lat="42.26028216071426868438720703125" lon="1.66964636184275150299072265625">
        <ele>1569</ele>
        <time>2020-08-11T10:11:33.000Z</time>
      </trkpt>
      <trkpt lat="42.2602723538875579833984375" lon="1.66954158805310726165771484375">
        <ele>1568.199951171875</ele>
        <time>2020-08-11T10:11:35.000Z</time>
      </trkpt>
      <trkpt lat="42.2602453641593456268310546875" lon="1.6693567670881748199462890625">
        <ele>1567.4000244140625</ele>
        <time>2020-08-11T10:11:38.000Z</time>
      </trkpt>
      <trkpt lat="42.26021133363246917724609375" lon="1.6691374965012073516845703125">
        <ele>1567</ele>
        <time>2020-08-11T10:11:42.000Z</time>
      </trkpt>
      <trkpt lat="42.26020337082445621490478515625" lon="1.66908192448318004608154296875">
        <ele>1567</ele>
        <time>2020-08-11T10:11:43.000Z</time>
      </trkpt>
      <trkpt lat="42.26018023677170276641845703125" lon="1.6689158789813518524169921875">
        <ele>1565.5999755859375</ele>
        <time>2020-08-11T10:11:46.000Z</time>
      </trkpt>
      <trkpt lat="42.2601618804037570953369140625" lon="1.6687532700598239898681640625">
        <ele>1565</ele>
        <time>2020-08-11T10:11:49.000Z</time>
      </trkpt>
      <trkpt lat="42.26016171276569366455078125" lon="1.66869300417602062225341796875">
        <ele>1564.5999755859375</ele>
        <time>2020-08-11T10:11:50.000Z</time>
      </trkpt>
      <trkpt lat="42.2601635567843914031982421875" lon="1.6686372645199298858642578125">
        <ele>1564</ele>
        <time>2020-08-11T10:11:51.000Z</time>
      </trkpt>
      <trkpt lat="42.2601819969713687896728515625" lon="1.6684216819703578948974609375">
        <ele>1563.199951171875</ele>
        <time>2020-08-11T10:11:55.000Z</time>
      </trkpt>
      <trkpt lat="42.260184846818447113037109375" lon="1.66836342774331569671630859375">
        <ele>1562.800048828125</ele>
        <time>2020-08-11T10:11:56.000Z</time>
      </trkpt>
      <trkpt lat="42.26017705164849758148193359375" lon="1.66809084825217723846435546875">
        <ele>1562</ele>
        <time>2020-08-11T10:12:01.000Z</time>
      </trkpt>
      <trkpt lat="42.2601598687469959259033203125" lon="1.6680357791483402252197265625">
        <ele>1561.800048828125</ele>
        <time>2020-08-11T10:12:02.000Z</time>
      </trkpt>
      <trkpt lat="42.26015324704349040985107421875" lon="1.6678604297339916229248046875">
        <ele>1561.199951171875</ele>
        <time>2020-08-11T10:12:05.000Z</time>
      </trkpt>
      <trkpt lat="42.26020102389156818389892578125" lon="1.66773310862481594085693359375">
        <ele>1561.199951171875</ele>
        <time>2020-08-11T10:12:08.000Z</time>
      </trkpt>
      <trkpt lat="42.2602141834795475006103515625" lon="1.66769103147089481353759765625">
        <ele>1560.800048828125</ele>
        <time>2020-08-11T10:12:09.000Z</time>
      </trkpt>
      <trkpt lat="42.26023723371326923370361328125" lon="1.66760218329727649688720703125">
        <ele>1560.4000244140625</ele>
        <time>2020-08-11T10:12:11.000Z</time>
      </trkpt>
      <trkpt lat="42.26026154123246669769287109375" lon="1.667413003742694854736328125">
        <ele>1559.4000244140625</ele>
        <time>2020-08-11T10:12:15.000Z</time>
      </trkpt>
      <trkpt lat="42.2602664865553379058837890625" lon="1.6673105768859386444091796875">
        <ele>1558.199951171875</ele>
        <time>2020-08-11T10:12:17.000Z</time>
      </trkpt>
      <trkpt lat="42.260265648365020751953125" lon="1.66720856912434101104736328125">
        <ele>1556.800048828125</ele>
        <time>2020-08-11T10:12:19.000Z</time>
      </trkpt>
      <trkpt lat="42.260261289775371551513671875" lon="1.66710547171533107757568359375">
        <ele>1555.800048828125</ele>
        <time>2020-08-11T10:12:21.000Z</time>
      </trkpt>
      <trkpt lat="42.26024645380675792694091796875" lon="1.6669245064258575439453125">
        <ele>1554.800048828125</ele>
        <time>2020-08-11T10:12:25.000Z</time>
      </trkpt>
      <trkpt lat="42.26024293340742588043212890625" lon="1.66687731631100177764892578125">
        <ele>1554.199951171875</ele>
        <time>2020-08-11T10:12:26.000Z</time>
      </trkpt>
      <trkpt lat="42.260233461856842041015625" lon="1.66678176261484622955322265625">
        <ele>1553</ele>
        <time>2020-08-11T10:12:28.000Z</time>
      </trkpt>
      <trkpt lat="42.26022415794432163238525390625" lon="1.66668721474707126617431640625">
        <ele>1551.4000244140625</ele>
        <time>2020-08-11T10:12:30.000Z</time>
      </trkpt>
      <trkpt lat="42.26021812297403812408447265625" lon="1.66664295829832553863525390625">
        <ele>1549.5999755859375</ele>
        <time>2020-08-11T10:12:31.000Z</time>
      </trkpt>
      <trkpt lat="42.26021342910826206207275390625" lon="1.66656173765659332275390625">
        <ele>1548.199951171875</ele>
        <time>2020-08-11T10:12:33.000Z</time>
      </trkpt>
      <trkpt lat="42.2601856850087642669677734375" lon="1.66635696776211261749267578125">
        <ele>1546.5999755859375</ele>
        <time>2020-08-11T10:12:38.000Z</time>
      </trkpt>
      <trkpt lat="42.26017646491527557373046875" lon="1.66627013124525547027587890625">
        <ele>1545.800048828125</ele>
        <time>2020-08-11T10:12:40.000Z</time>
      </trkpt>
      <trkpt lat="42.26016431115567684173583984375" lon="1.6661907546222209930419921875">
        <ele>1544.199951171875</ele>
        <time>2020-08-11T10:12:42.000Z</time>
      </trkpt>
      <trkpt lat="42.260152660310268402099609375" lon="1.66609704494476318359375">
        <ele>1542.800048828125</ele>
        <time>2020-08-11T10:12:44.000Z</time>
      </trkpt>
      <trkpt lat="42.26014905609190464019775390625" lon="1.666043736040592193603515625">
        <ele>1542.4000244140625</ele>
        <time>2020-08-11T10:12:45.000Z</time>
      </trkpt>
      <trkpt lat="42.26014520041644573211669921875" lon="1.66598799638450145721435546875">
        <ele>1541.4000244140625</ele>
        <time>2020-08-11T10:12:46.000Z</time>
      </trkpt>
      <trkpt lat="42.26013564504683017730712890625" lon="1.66588045656681060791015625">
        <ele>1539.800048828125</ele>
        <time>2020-08-11T10:12:48.000Z</time>
      </trkpt>
      <trkpt lat="42.2601239942014217376708984375" lon="1.66577442549169063568115234375">
        <ele>1538.5999755859375</ele>
        <time>2020-08-11T10:12:50.000Z</time>
      </trkpt>
      <trkpt lat="42.260104715824127197265625" lon="1.66567300446331501007080078125">
        <ele>1537.5999755859375</ele>
        <time>2020-08-11T10:12:52.000Z</time>
      </trkpt>
      <trkpt lat="42.26008602418005466461181640625" lon="1.66551961563527584075927734375">
        <ele>1536.199951171875</ele>
        <time>2020-08-11T10:12:55.000Z</time>
      </trkpt>
      <trkpt lat="42.26007127203047275543212890625" lon="1.66541651822626590728759765625">
        <ele>1535.4000244140625</ele>
        <time>2020-08-11T10:12:57.000Z</time>
      </trkpt>
      <trkpt lat="42.26005844771862030029296875" lon="1.66537125594913959503173828125">
        <ele>1534.5999755859375</ele>
        <time>2020-08-11T10:12:58.000Z</time>
      </trkpt>
      <trkpt lat="42.26001528091728687286376953125" lon="1.6652308590710163116455078125">
        <ele>1533.5999755859375</ele>
        <time>2020-08-11T10:13:01.000Z</time>
      </trkpt>
      <trkpt lat="42.26000371389091014862060546875" lon="1.6651819087564945220947265625">
        <ele>1533.4000244140625</ele>
        <time>2020-08-11T10:13:02.000Z</time>
      </trkpt>
      <trkpt lat="42.25999264977872371673583984375" lon="1.6651007719337940216064453125">
        <ele>1532.4000244140625</ele>
        <time>2020-08-11T10:13:04.000Z</time>
      </trkpt>
      <trkpt lat="42.25998326204717159271240234375" lon="1.66504704393446445465087890625">
        <ele>1530.800048828125</ele>
        <time>2020-08-11T10:13:06.000Z</time>
      </trkpt>
      <trkpt lat="42.259954176843166351318359375" lon="1.664898432791233062744140625">
        <ele>1529.5999755859375</ele>
        <time>2020-08-11T10:13:10.000Z</time>
      </trkpt>
      <trkpt lat="42.2599409334361553192138671875" lon="1.66482190601527690887451171875">
        <ele>1529</ele>
        <time>2020-08-11T10:13:12.000Z</time>
      </trkpt>
      <trkpt lat="42.25993464700877666473388671875" lon="1.66478519327938556671142578125">
        <ele>1528.4000244140625</ele>
        <time>2020-08-11T10:13:13.000Z</time>
      </trkpt>
      <trkpt lat="42.25992341525852680206298828125" lon="1.66470522992312908172607421875">
        <ele>1527.199951171875</ele>
        <time>2020-08-11T10:13:15.000Z</time>
      </trkpt>
      <trkpt lat="42.2599097527563571929931640625" lon="1.66459475643932819366455078125">
        <ele>1525.4000244140625</ele>
        <time>2020-08-11T10:13:18.000Z</time>
      </trkpt>
      <trkpt lat="42.2599070705473423004150390625" lon="1.6645619831979274749755859375">
        <ele>1524.5999755859375</ele>
        <time>2020-08-11T10:13:19.000Z</time>
      </trkpt>
      <trkpt lat="42.25990447215735912322998046875" lon="1.6645304672420024871826171875">
        <ele>1524.199951171875</ele>
        <time>2020-08-11T10:13:20.000Z</time>
      </trkpt>
      <trkpt lat="42.259901873767375946044921875" lon="1.6644419543445110321044921875">
        <ele>1523.199951171875</ele>
        <time>2020-08-11T10:13:23.000Z</time>
      </trkpt>
      <trkpt lat="42.25990816019475460052490234375" lon="1.6643541119992733001708984375">
        <ele>1522</ele>
        <time>2020-08-11T10:13:26.000Z</time>
      </trkpt>
      <trkpt lat="42.25991385988891124725341796875" lon="1.66429049335420131683349609375">
        <ele>1521.4000244140625</ele>
        <time>2020-08-11T10:13:28.000Z</time>
      </trkpt>
      <trkpt lat="42.25991788320243358612060546875" lon="1.6642371006309986114501953125">
        <ele>1521</ele>
        <time>2020-08-11T10:13:30.000Z</time>
      </trkpt>
      <trkpt lat="42.25992559455335140228271484375" lon="1.66417582891881465911865234375">
        <ele>1519.800048828125</ele>
        <time>2020-08-11T10:13:32.000Z</time>
      </trkpt>
      <trkpt lat="42.2599362395703792572021484375" lon="1.6641189157962799072265625">
        <ele>1518.199951171875</ele>
        <time>2020-08-11T10:13:34.000Z</time>
      </trkpt>
      <trkpt lat="42.25993816740810871124267578125" lon="1.66409318335354328155517578125">
        <ele>1517.800048828125</ele>
        <time>2020-08-11T10:13:35.000Z</time>
      </trkpt>
      <trkpt lat="42.2599305398762226104736328125" lon="1.66402839124202728271484375">
        <ele>1517</ele>
        <time>2020-08-11T10:13:37.000Z</time>
      </trkpt>
      <trkpt lat="42.25991972722113132476806640625" lon="1.6639437340199947357177734375">
        <ele>1515.5999755859375</ele>
        <time>2020-08-11T10:13:40.000Z</time>
      </trkpt>
      <trkpt lat="42.25991821847856044769287109375" lon="1.66392772458493709564208984375">
        <ele>1515.199951171875</ele>
        <time>2020-08-11T10:13:41.000Z</time>
      </trkpt>
      <trkpt lat="42.25991888903081417083740234375" lon="1.66392118670046329498291015625">
        <ele>1514.4000244140625</ele>
        <time>2020-08-11T10:13:43.000Z</time>
      </trkpt>
      <trkpt lat="42.259917967021465301513671875" lon="1.66392269544303417205810546875">
        <ele>1514</ele>
        <time>2020-08-11T10:13:44.000Z</time>
      </trkpt>
      <trkpt lat="42.25991738028824329376220703125" lon="1.66392671875655651092529296875">
        <ele>1514</ele>
        <time>2020-08-11T10:14:11.000Z</time>
      </trkpt>
      <trkpt lat="42.2599174641072750091552734375" lon="1.66392839513719081878662109375">
        <ele>1513.800048828125</ele>
        <time>2020-08-11T10:14:25.000Z</time>
      </trkpt>
      <trkpt lat="42.25991754792630672454833984375" lon="1.66393007151782512664794921875">
        <ele>1513.5999755859375</ele>
        <time>2020-08-11T10:14:43.000Z</time>
      </trkpt>
      <trkpt lat="42.25991335697472095489501953125" lon="1.66385983116924762725830078125">
        <ele>1513.5999755859375</ele>
        <time>2020-08-11T10:14:48.000Z</time>
      </trkpt>
      <trkpt lat="42.2599129378795623779296875" lon="1.66364240460097789764404296875">
        <ele>1512.4000244140625</ele>
        <time>2020-08-11T10:14:52.000Z</time>
      </trkpt>
      <trkpt lat="42.25991494953632354736328125" lon="1.66358188726007938385009765625">
        <ele>1512.199951171875</ele>
        <time>2020-08-11T10:14:53.000Z</time>
      </trkpt>
      <trkpt lat="42.25991352461278438568115234375" lon="1.66352304629981517791748046875">
        <ele>1512</ele>
        <time>2020-08-11T10:14:54.000Z</time>
      </trkpt>
      <trkpt lat="42.259909920394420623779296875" lon="1.66346521116793155670166015625">
        <ele>1511.5999755859375</ele>
        <time>2020-08-11T10:14:55.000Z</time>
      </trkpt>
      <trkpt lat="42.2599090822041034698486328125" lon="1.6634072922170162200927734375">
        <ele>1510.800048828125</ele>
        <time>2020-08-11T10:14:56.000Z</time>
      </trkpt>
      <trkpt lat="42.25991134531795978546142578125" lon="1.66335004381835460662841796875">
        <ele>1510</ele>
        <time>2020-08-11T10:14:57.000Z</time>
      </trkpt>
      <trkpt lat="42.25990933366119861602783203125" lon="1.663233451545238494873046875">
        <ele>1508.5999755859375</ele>
        <time>2020-08-11T10:14:59.000Z</time>
      </trkpt>
      <trkpt lat="42.259907908737659454345703125" lon="1.66298056952655315399169921875">
        <ele>1507.4000244140625</ele>
        <time>2020-08-11T10:15:03.000Z</time>
      </trkpt>
      <trkpt lat="42.25991235114634037017822265625" lon="1.6628628037869930267333984375">
        <ele>1506.4000244140625</ele>
        <time>2020-08-11T10:15:05.000Z</time>
      </trkpt>
      <trkpt lat="42.2599144466221332550048828125" lon="1.66280773468315601348876953125">
        <ele>1505.5999755859375</ele>
        <time>2020-08-11T10:15:06.000Z</time>
      </trkpt>
      <trkpt lat="42.2599161230027675628662109375" lon="1.66275543160736560821533203125">
        <ele>1505</ele>
        <time>2020-08-11T10:15:07.000Z</time>
      </trkpt>
      <trkpt lat="42.25991771556437015533447265625" lon="1.66265786625444889068603515625">
        <ele>1503.800048828125</ele>
        <time>2020-08-11T10:15:09.000Z</time>
      </trkpt>
      <trkpt lat="42.25991553626954555511474609375" lon="1.66245686821639537811279296875">
        <ele>1503</ele>
        <time>2020-08-11T10:15:13.000Z</time>
      </trkpt>
      <trkpt lat="42.2599102556705474853515625" lon="1.66231605224311351776123046875">
        <ele>1501.800048828125</ele>
        <time>2020-08-11T10:15:16.000Z</time>
      </trkpt>
      <trkpt lat="42.25990958511829376220703125" lon="1.662226952612400054931640625">
        <ele>1500.4000244140625</ele>
        <time>2020-08-11T10:15:18.000Z</time>
      </trkpt>
      <trkpt lat="42.25991897284984588623046875" lon="1.66213810443878173828125">
        <ele>1499.199951171875</ele>
        <time>2020-08-11T10:15:20.000Z</time>
      </trkpt>
      <trkpt lat="42.25992500782012939453125" lon="1.662097536027431488037109375">
        <ele>1498.800048828125</ele>
        <time>2020-08-11T10:15:21.000Z</time>
      </trkpt>
      <trkpt lat="42.259941436350345611572265625" lon="1.66198278777301311492919921875">
        <ele>1498</ele>
        <time>2020-08-11T10:15:24.000Z</time>
      </trkpt>
      <trkpt lat="42.259947471320629119873046875" lon="1.6619287244975566864013671875">
        <ele>1496.800048828125</ele>
        <time>2020-08-11T10:15:26.000Z</time>
      </trkpt>
      <trkpt lat="42.25994889624416828155517578125" lon="1.6619206778705120086669921875">
        <ele>1496.4000244140625</ele>
        <time>2020-08-11T10:15:27.000Z</time>
      </trkpt>
      <trkpt lat="42.25994839332997798919677734375" lon="1.6619195044040679931640625">
        <ele>1495.5999755859375</ele>
        <time>2020-08-11T10:15:29.000Z</time>
      </trkpt>
      <trkpt lat="42.259949147701263427734375" lon="1.66186896152794361114501953125">
        <ele>1495.199951171875</ele>
        <time>2020-08-11T10:15:36.000Z</time>
      </trkpt>
      <trkpt lat="42.2599560208618640899658203125" lon="1.661748848855495452880859375">
        <ele>1494.5999755859375</ele>
        <time>2020-08-11T10:15:39.000Z</time>
      </trkpt>
      <trkpt lat="42.2599895484745502471923828125" lon="1.66160367429256439208984375">
        <ele>1493.800048828125</ele>
        <time>2020-08-11T10:15:42.000Z</time>
      </trkpt>
      <trkpt lat="42.2600619681179523468017578125" lon="1.661496050655841827392578125">
        <ele>1493.800048828125</ele>
        <time>2020-08-11T10:15:45.000Z</time>
      </trkpt>
      <trkpt lat="42.26011737249791622161865234375" lon="1.66143410839140415191650390625">
        <ele>1492.4000244140625</ele>
        <time>2020-08-11T10:15:47.000Z</time>
      </trkpt>
      <trkpt lat="42.2601826675236225128173828125" lon="1.66138331405818462371826171875">
        <ele>1491.4000244140625</ele>
        <time>2020-08-11T10:15:49.000Z</time>
      </trkpt>
      <trkpt lat="42.26022080518305301666259765625" lon="1.66136487387120723724365234375">
        <ele>1491</ele>
        <time>2020-08-11T10:15:50.000Z</time>
      </trkpt>
      <trkpt lat="42.26029775105416774749755859375" lon="1.6613428294658660888671875">
        <ele>1490.5999755859375</ele>
        <time>2020-08-11T10:15:52.000Z</time>
      </trkpt>
      <trkpt lat="42.26042398251593112945556640625" lon="1.6612642072141170501708984375">
        <ele>1490.199951171875</ele>
        <time>2020-08-11T10:15:56.000Z</time>
      </trkpt>
      <trkpt lat="42.26045013405382633209228515625" lon="1.66123093105852603912353515625">
        <ele>1490.199951171875</ele>
        <time>2020-08-11T10:15:57.000Z</time>
      </trkpt>
      <trkpt lat="42.26050713099539279937744140625" lon="1.6611203737556934356689453125">
        <ele>1488.800048828125</ele>
        <time>2020-08-11T10:16:00.000Z</time>
      </trkpt>
      <trkpt lat="42.2605397365987300872802734375" lon="1.6610248200595378875732421875">
        <ele>1487.800048828125</ele>
        <time>2020-08-11T10:16:02.000Z</time>
      </trkpt>
      <trkpt lat="42.2605622000992298126220703125" lon="1.6609128378331661224365234375">
        <ele>1487.5999755859375</ele>
        <time>2020-08-11T10:16:04.000Z</time>
      </trkpt>
      <trkpt lat="42.26056060753762722015380859375" lon="1.66079574264585971832275390625">
        <ele>1487</ele>
        <time>2020-08-11T10:16:06.000Z</time>
      </trkpt>
      <trkpt lat="42.2605457715690135955810546875" lon="1.66069331578910350799560546875">
        <ele>1487.4000244140625</ele>
        <time>2020-08-11T10:16:08.000Z</time>
      </trkpt>
      <trkpt lat="42.26049690507352352142333984375" lon="1.6605108417570590972900390625">
        <ele>1487.5999755859375</ele>
        <time>2020-08-11T10:16:12.000Z</time>
      </trkpt>
      <trkpt lat="42.2604260779917240142822265625" lon="1.6603522561490535736083984375">
        <ele>1487.4000244140625</ele>
        <time>2020-08-11T10:16:16.000Z</time>
      </trkpt>
      <trkpt lat="42.26036530919373035430908203125" lon="1.66026432998478412628173828125">
        <ele>1486.800048828125</ele>
        <time>2020-08-11T10:16:18.000Z</time>
      </trkpt>
      <trkpt lat="42.26027059368789196014404296875" lon="1.66013491339981555938720703125">
        <ele>1485.4000244140625</ele>
        <time>2020-08-11T10:16:21.000Z</time>
      </trkpt>
      <trkpt lat="42.2602021135389804840087890625" lon="1.659976579248905181884765625">
        <ele>1484.5999755859375</ele>
        <time>2020-08-11T10:16:24.000Z</time>
      </trkpt>
      <trkpt lat="42.26018560118973255157470703125" lon="1.65991346351802349090576171875">
        <ele>1484.199951171875</ele>
        <time>2020-08-11T10:16:25.000Z</time>
      </trkpt>
      <trkpt lat="42.260170765221118927001953125" lon="1.65984414517879486083984375">
        <ele>1484.4000244140625</ele>
        <time>2020-08-11T10:16:26.000Z</time>
      </trkpt>
      <trkpt lat="42.260126508772373199462890625" lon="1.6596166603267192840576171875">
        <ele>1484.199951171875</ele>
        <time>2020-08-11T10:16:29.000Z</time>
      </trkpt>
      <trkpt lat="42.2601068951189517974853515625" lon="1.65953761897981166839599609375">
        <ele>1483.199951171875</ele>
        <time>2020-08-11T10:16:30.000Z</time>
      </trkpt>
      <trkpt lat="42.26006389595568180084228515625" lon="1.6593901813030242919921875">
        <ele>1481.800048828125</ele>
        <time>2020-08-11T10:16:32.000Z</time>
      </trkpt>
      <trkpt lat="42.2600133530795574188232421875" lon="1.65926403366029262542724609375">
        <ele>1481.4000244140625</ele>
        <time>2020-08-11T10:16:34.000Z</time>
      </trkpt>
      <trkpt lat="42.25989215075969696044921875" lon="1.65900017134845256805419921875">
        <ele>1480.4000244140625</ele>
        <time>2020-08-11T10:16:38.000Z</time>
      </trkpt>
      <trkpt lat="42.2598678432404994964599609375" lon="1.65893227793276309967041015625">
        <ele>1480</ele>
        <time>2020-08-11T10:16:39.000Z</time>
      </trkpt>
      <trkpt lat="42.2598490677773952484130859375" lon="1.65886656381189823150634765625">
        <ele>1479</ele>
        <time>2020-08-11T10:16:40.000Z</time>
      </trkpt>
      <trkpt lat="42.25983917713165283203125" lon="1.65880185551941394805908203125">
        <ele>1478.199951171875</ele>
        <time>2020-08-11T10:16:41.000Z</time>
      </trkpt>
      <trkpt lat="42.259841524064540863037109375" lon="1.65873547084629535675048828125">
        <ele>1477.5999755859375</ele>
        <time>2020-08-11T10:16:42.000Z</time>
      </trkpt>
      <trkpt lat="42.25985317490994930267333984375" lon="1.65866673924028873443603515625">
        <ele>1476.800048828125</ele>
        <time>2020-08-11T10:16:43.000Z</time>
      </trkpt>
      <trkpt lat="42.25987111218273639678955078125" lon="1.65859633125364780426025390625">
        <ele>1476.4000244140625</ele>
        <time>2020-08-11T10:16:44.000Z</time>
      </trkpt>
      <trkpt lat="42.2599141113460063934326171875" lon="1.65846071206033229827880859375">
        <ele>1476</ele>
        <time>2020-08-11T10:16:46.000Z</time>
      </trkpt>
      <trkpt lat="42.25993447937071323394775390625" lon="1.658396087586879730224609375">
        <ele>1475.4000244140625</ele>
        <time>2020-08-11T10:16:47.000Z</time>
      </trkpt>
      <trkpt lat="42.25997270084917545318603515625" lon="1.65827698074281215667724609375">
        <ele>1474.199951171875</ele>
        <time>2020-08-11T10:16:49.000Z</time>
      </trkpt>
      <trkpt lat="42.26003455929458141326904296875" lon="1.65810741484165191650390625">
        <ele>1472.800048828125</ele>
        <time>2020-08-11T10:16:52.000Z</time>
      </trkpt>
      <trkpt lat="42.2601471282541751861572265625" lon="1.6578725539147853851318359375">
        <ele>1472.4000244140625</ele>
        <time>2020-08-11T10:16:56.000Z</time>
      </trkpt>
      <trkpt lat="42.26033966057002544403076171875" lon="1.65749528445303440093994140625">
        <ele>1471.5999755859375</ele>
        <time>2020-08-11T10:17:03.000Z</time>
      </trkpt>
      <trkpt lat="42.26038609631359577178955078125" lon="1.65738833136856555938720703125">
        <ele>1471.4000244140625</ele>
        <time>2020-08-11T10:17:05.000Z</time>
      </trkpt>
      <trkpt lat="42.2603969089686870574951171875" lon="1.65726243518292903900146484375">
        <ele>1471.4000244140625</ele>
        <time>2020-08-11T10:17:07.000Z</time>
      </trkpt>
      <trkpt lat="42.260389029979705810546875" lon="1.656931601464748382568359375">
        <ele>1470.5999755859375</ele>
        <time>2020-08-11T10:17:12.000Z</time>
      </trkpt>
      <trkpt lat="42.26042767055332660675048828125" lon="1.6567899473011493682861328125">
        <ele>1470</ele>
        <time>2020-08-11T10:17:14.000Z</time>
      </trkpt>
      <trkpt lat="42.260451056063175201416015625" lon="1.6567208804190158843994140625">
        <ele>1469.5999755859375</ele>
        <time>2020-08-11T10:17:15.000Z</time>
      </trkpt>
      <trkpt lat="42.260511405766010284423828125" lon="1.65651342831552028656005859375">
        <ele>1469</ele>
        <time>2020-08-11T10:17:18.000Z</time>
      </trkpt>
      <trkpt lat="42.2605283372104167938232421875" lon="1.65644620545208454132080078125">
        <ele>1468.199951171875</ele>
        <time>2020-08-11T10:17:19.000Z</time>
      </trkpt>
      <trkpt lat="42.26058592088520526885986328125" lon="1.656161807477474212646484375">
        <ele>1468.5999755859375</ele>
        <time>2020-08-11T10:17:24.000Z</time>
      </trkpt>
      <trkpt lat="42.26066018454730510711669921875" lon="1.6558337397873401641845703125">
        <ele>1468.199951171875</ele>
        <time>2020-08-11T10:17:31.000Z</time>
      </trkpt>
      <trkpt lat="42.2606768645346164703369140625" lon="1.65556736290454864501953125">
        <ele>1468.5999755859375</ele>
        <time>2020-08-11T10:17:37.000Z</time>
      </trkpt>
      <trkpt lat="42.260678708553314208984375" lon="1.6552379541099071502685546875">
        <ele>1468.5999755859375</ele>
        <time>2020-08-11T10:17:45.000Z</time>
      </trkpt>
      <trkpt lat="42.26067828945815563201904296875" lon="1.6549345292150974273681640625">
        <ele>1469.199951171875</ele>
        <time>2020-08-11T10:17:53.000Z</time>
      </trkpt>
      <trkpt lat="42.26067191921174526214599609375" lon="1.65478491224348545074462890625">
        <ele>1468.5999755859375</ele>
        <time>2020-08-11T10:17:56.000Z</time>
      </trkpt>
      <trkpt lat="42.260653562843799591064453125" lon="1.6547360457479953765869140625">
        <ele>1468.199951171875</ele>
        <time>2020-08-11T10:17:57.000Z</time>
      </trkpt>
      <trkpt lat="42.260563708841800689697265625" lon="1.6545798070728778839111328125">
        <ele>1467.4000244140625</ele>
        <time>2020-08-11T10:18:01.000Z</time>
      </trkpt>
      <trkpt lat="42.26052406243979930877685546875" lon="1.65448718704283237457275390625">
        <ele>1467.4000244140625</ele>
        <time>2020-08-11T10:18:03.000Z</time>
      </trkpt>
      <trkpt lat="42.26044141687452793121337890625" lon="1.65424344129860401153564453125">
        <ele>1465.800048828125</ele>
        <time>2020-08-11T10:18:07.000Z</time>
      </trkpt>
      <trkpt lat="42.2604091465473175048828125" lon="1.6541060619056224822998046875">
        <ele>1464.4000244140625</ele>
        <time>2020-08-11T10:18:09.000Z</time>
      </trkpt>
      <trkpt lat="42.2603710927069187164306640625" lon="1.653686463832855224609375">
        <ele>1463.4000244140625</ele>
        <time>2020-08-11T10:18:15.000Z</time>
      </trkpt>
      <trkpt lat="42.2603702545166015625" lon="1.6536168940365314483642578125">
        <ele>1462.5999755859375</ele>
        <time>2020-08-11T10:18:16.000Z</time>
      </trkpt>
      <trkpt lat="42.260372601449489593505859375" lon="1.65347146801650524139404296875">
        <ele>1461.199951171875</ele>
        <time>2020-08-11T10:18:18.000Z</time>
      </trkpt>
      <trkpt lat="42.26038374938070774078369140625" lon="1.65325529873371124267578125">
        <ele>1460.5999755859375</ele>
        <time>2020-08-11T10:18:21.000Z</time>
      </trkpt>
      <trkpt lat="42.26038626395165920257568359375" lon="1.6531116329133510589599609375">
        <ele>1460</ele>
        <time>2020-08-11T10:18:23.000Z</time>
      </trkpt>
      <trkpt lat="42.2603764571249485015869140625" lon="1.65287308394908905029296875">
        <ele>1458.4000244140625</ele>
        <time>2020-08-11T10:18:26.000Z</time>
      </trkpt>
      <trkpt lat="42.26036162115633487701416015625" lon="1.6527052782475948333740234375">
        <ele>1457.4000244140625</ele>
        <time>2020-08-11T10:18:28.000Z</time>
      </trkpt>
      <trkpt lat="42.26035156287252902984619140625" lon="1.652623973786830902099609375">
        <ele>1457.199951171875</ele>
        <time>2020-08-11T10:18:29.000Z</time>
      </trkpt>
      <trkpt lat="42.260318957269191741943359375" lon="1.65241233073174953460693359375">
        <ele>1456</ele>
        <time>2020-08-11T10:18:32.000Z</time>
      </trkpt>
      <trkpt lat="42.26030864752829074859619140625" lon="1.65235541760921478271484375">
        <ele>1455.5999755859375</ele>
        <time>2020-08-11T10:18:33.000Z</time>
      </trkpt>
      <trkpt lat="42.260268665850162506103515625" lon="1.65216892026364803314208984375">
        <ele>1454.800048828125</ele>
        <time>2020-08-11T10:18:36.000Z</time>
      </trkpt>
      <trkpt lat="42.2602393291890621185302734375" lon="1.6520229913294315338134765625">
        <ele>1454.199951171875</ele>
        <time>2020-08-11T10:18:38.000Z</time>
      </trkpt>
      <trkpt lat="42.26018979214131832122802734375" lon="1.65179860778152942657470703125">
        <ele>1453.4000244140625</ele>
        <time>2020-08-11T10:18:41.000Z</time>
      </trkpt>
      <trkpt lat="42.260135225951671600341796875" lon="1.6515941731631755828857421875">
        <ele>1452.199951171875</ele>
        <time>2020-08-11T10:18:44.000Z</time>
      </trkpt>
      <trkpt lat="42.2600948251783847808837890625" lon="1.65144640021026134490966796875">
        <ele>1450.800048828125</ele>
        <time>2020-08-11T10:18:46.000Z</time>
      </trkpt>
      <trkpt lat="42.2600495629012584686279296875" lon="1.6512984596192836761474609375">
        <ele>1450.199951171875</ele>
        <time>2020-08-11T10:18:48.000Z</time>
      </trkpt>
      <trkpt lat="42.25998871028423309326171875" lon="1.651164181530475616455078125">
        <ele>1449.4000244140625</ele>
        <time>2020-08-11T10:18:50.000Z</time>
      </trkpt>
      <trkpt lat="42.25995928980410099029541015625" lon="1.651101820170879364013671875">
        <ele>1449.4000244140625</ele>
        <time>2020-08-11T10:18:51.000Z</time>
      </trkpt>
      <trkpt lat="42.259834147989749908447265625" lon="1.65079143829643726348876953125">
        <ele>1450.199951171875</ele>
        <time>2020-08-11T10:18:57.000Z</time>
      </trkpt>
      <trkpt lat="42.2597880475223064422607421875" lon="1.65066688321530818939208984375">
        <ele>1450.800048828125</ele>
        <time>2020-08-11T10:19:00.000Z</time>
      </trkpt>
      <trkpt lat="42.2597156278789043426513671875" lon="1.65045800618827342987060546875">
        <ele>1450.4000244140625</ele>
        <time>2020-08-11T10:19:04.000Z</time>
      </trkpt>
      <trkpt lat="42.2597219981253147125244140625" lon="1.65026907809078693389892578125">
        <ele>1449</ele>
        <time>2020-08-11T10:19:07.000Z</time>
      </trkpt>
      <trkpt lat="42.2597323916852474212646484375" lon="1.6501997597515583038330078125">
        <ele>1448.199951171875</ele>
        <time>2020-08-11T10:19:08.000Z</time>
      </trkpt>
      <trkpt lat="42.259742282330989837646484375" lon="1.65012323297560214996337890625">
        <ele>1447.800048828125</ele>
        <time>2020-08-11T10:19:09.000Z</time>
      </trkpt>
      <trkpt lat="42.259757034480571746826171875" lon="1.64982047863304615020751953125">
        <ele>1446.4000244140625</ele>
        <time>2020-08-11T10:19:13.000Z</time>
      </trkpt>
      <trkpt lat="42.25977287627756595611572265625" lon="1.64961763657629489898681640625">
        <ele>1445.199951171875</ele>
        <time>2020-08-11T10:19:16.000Z</time>
      </trkpt>
      <trkpt lat="42.2597850300371646881103515625" lon="1.64941663853824138641357421875">
        <ele>1444.199951171875</ele>
        <time>2020-08-11T10:19:19.000Z</time>
      </trkpt>
      <trkpt lat="42.25978561677038669586181640625" lon="1.64935193024575710296630859375">
        <ele>1443.800048828125</ele>
        <time>2020-08-11T10:19:20.000Z</time>
      </trkpt>
      <trkpt lat="42.25975326262414455413818359375" lon="1.64897306822240352630615234375">
        <ele>1443</ele>
        <time>2020-08-11T10:19:26.000Z</time>
      </trkpt>
      <trkpt lat="42.259740941226482391357421875" lon="1.64891305379569530487060546875">
        <ele>1442.5999755859375</ele>
        <time>2020-08-11T10:19:27.000Z</time>
      </trkpt>
      <trkpt lat="42.25971437059342861175537109375" lon="1.6488035023212432861328125">
        <ele>1441.5999755859375</ele>
        <time>2020-08-11T10:19:29.000Z</time>
      </trkpt>
      <trkpt lat="42.25966491736471652984619140625" lon="1.64858448319137096405029296875">
        <ele>1440.199951171875</ele>
        <time>2020-08-11T10:19:33.000Z</time>
      </trkpt>
      <trkpt lat="42.25959484465420246124267578125" lon="1.64834341965615749359130859375">
        <ele>1438.5999755859375</ele>
        <time>2020-08-11T10:19:37.000Z</time>
      </trkpt>
      <trkpt lat="42.25955612026154994964599609375" lon="1.64821115322411060333251953125">
        <ele>1437.5999755859375</ele>
        <time>2020-08-11T10:19:39.000Z</time>
      </trkpt>
      <trkpt lat="42.25954052992165088653564453125" lon="1.64813697338104248046875">
        <ele>1436.199951171875</ele>
        <time>2020-08-11T10:19:40.000Z</time>
      </trkpt>
      <trkpt lat="42.25951706059277057647705078125" lon="1.6479192115366458892822265625">
        <ele>1435.199951171875</ele>
        <time>2020-08-11T10:19:43.000Z</time>
      </trkpt>
      <trkpt lat="42.25950716994702816009521484375" lon="1.64784838445484638214111328125">
        <ele>1435.199951171875</ele>
        <time>2020-08-11T10:19:44.000Z</time>
      </trkpt>
      <trkpt lat="42.2594918310642242431640625" lon="1.6477794013917446136474609375">
        <ele>1435</ele>
        <time>2020-08-11T10:19:45.000Z</time>
      </trkpt>
      <trkpt lat="42.2594274580478668212890625" lon="1.64759122766554355621337890625">
        <ele>1435.5999755859375</ele>
        <time>2020-08-11T10:19:48.000Z</time>
      </trkpt>
      <trkpt lat="42.25940222851932048797607421875" lon="1.6474664211273193359375">
        <ele>1435.5999755859375</ele>
        <time>2020-08-11T10:19:50.000Z</time>
      </trkpt>
      <trkpt lat="42.259353362023830413818359375" lon="1.647249162197113037109375">
        <ele>1435.5999755859375</ele>
        <time>2020-08-11T10:19:55.000Z</time>
      </trkpt>
      <trkpt lat="42.2593149729073047637939453125" lon="1.6469975374639034271240234375">
        <ele>1435.800048828125</ele>
        <time>2020-08-11T10:20:02.000Z</time>
      </trkpt>
      <trkpt lat="42.25931086577475070953369140625" lon="1.64696375839412212371826171875">
        <ele>1436</ele>
        <time>2020-08-11T10:20:03.000Z</time>
      </trkpt>
      <trkpt lat="42.25930340588092803955078125" lon="1.6468999721109867095947265625">
        <ele>1436.4000244140625</ele>
        <time>2020-08-11T10:20:05.000Z</time>
      </trkpt>
      <trkpt lat="42.25928002037107944488525390625" lon="1.64666066877543926239013671875">
        <ele>1435.800048828125</ele>
        <time>2020-08-11T10:20:11.000Z</time>
      </trkpt>
      <trkpt lat="42.25923777557909488677978515625" lon="1.64629119448363780975341796875">
        <ele>1435.5999755859375</ele>
        <time>2020-08-11T10:20:17.000Z</time>
      </trkpt>
      <trkpt lat="42.25922587327659130096435546875" lon="1.6462170146405696868896484375">
        <ele>1435.4000244140625</ele>
        <time>2020-08-11T10:20:18.000Z</time>
      </trkpt>
      <trkpt lat="42.25920089520514011383056640625" lon="1.64601241238415241241455078125">
        <ele>1434.4000244140625</ele>
        <time>2020-08-11T10:20:21.000Z</time>
      </trkpt>
      <trkpt lat="42.25919536314904689788818359375" lon="1.64589464664459228515625">
        <ele>1433.5999755859375</ele>
        <time>2020-08-11T10:20:23.000Z</time>
      </trkpt>
      <trkpt lat="42.25919343531131744384765625" lon="1.6458445228636264801025390625">
        <ele>1433</ele>
        <time>2020-08-11T10:20:24.000Z</time>
      </trkpt>
      <trkpt lat="42.2591949440538883209228515625" lon="1.64567160420119762420654296875">
        <ele>1432</ele>
        <time>2020-08-11T10:20:28.000Z</time>
      </trkpt>
      <trkpt lat="42.259195782244205474853515625" lon="1.6454807482659816741943359375">
        <ele>1433</ele>
        <time>2020-08-11T10:20:32.000Z</time>
      </trkpt>
      <trkpt lat="42.259192764759063720703125" lon="1.64527379907667636871337890625">
        <ele>1433.199951171875</ele>
        <time>2020-08-11T10:20:36.000Z</time>
      </trkpt>
      <trkpt lat="42.25919653661549091339111328125" lon="1.64506525732576847076416015625">
        <ele>1432.199951171875</ele>
        <time>2020-08-11T10:20:40.000Z</time>
      </trkpt>
      <trkpt lat="42.25920617580413818359375" lon="1.644893847405910491943359375">
        <ele>1432</ele>
        <time>2020-08-11T10:20:43.000Z</time>
      </trkpt>
      <trkpt lat="42.2592304833233356475830078125" lon="1.64464498870074748992919921875">
        <ele>1431</ele>
        <time>2020-08-11T10:20:47.000Z</time>
      </trkpt>
      <trkpt lat="42.25924766622483730316162109375" lon="1.64451607502996921539306640625">
        <ele>1430.5999755859375</ele>
        <time>2020-08-11T10:20:49.000Z</time>
      </trkpt>
      <trkpt lat="42.25927314721047878265380859375" lon="1.64428322575986385345458984375">
        <ele>1429.4000244140625</ele>
        <time>2020-08-11T10:20:53.000Z</time>
      </trkpt>
      <trkpt lat="42.259294688701629638671875" lon="1.64411173202097415924072265625">
        <ele>1428.199951171875</ele>
        <time>2020-08-11T10:20:56.000Z</time>
      </trkpt>
      <trkpt lat="42.25932209752500057220458984375" lon="1.64384988136589527130126953125">
        <ele>1426.4000244140625</ele>
        <time>2020-08-11T10:21:01.000Z</time>
      </trkpt>
      <trkpt lat="42.25933031179010868072509765625" lon="1.643806211650371551513671875">
        <ele>1426</ele>
        <time>2020-08-11T10:21:02.000Z</time>
      </trkpt>
      <trkpt lat="42.25934137590229511260986328125" lon="1.64376555941998958587646484375">
        <ele>1425.4000244140625</ele>
        <time>2020-08-11T10:21:03.000Z</time>
      </trkpt>
      <trkpt lat="42.259386889636516571044921875" lon="1.64364838041365146636962890625">
        <ele>1424.199951171875</ele>
        <time>2020-08-11T10:21:06.000Z</time>
      </trkpt>
      <trkpt lat="42.259418070316314697265625" lon="1.6435780562460422515869140625">
        <ele>1424</ele>
        <time>2020-08-11T10:21:08.000Z</time>
      </trkpt>
      <trkpt lat="42.25944011472165584564208984375" lon="1.64349717088043689727783203125">
        <ele>1423.4000244140625</ele>
        <time>2020-08-11T10:21:10.000Z</time>
      </trkpt>
      <trkpt lat="42.25945838727056980133056640625" lon="1.6433658264577388763427734375">
        <ele>1422.199951171875</ele>
        <time>2020-08-11T10:21:13.000Z</time>
      </trkpt>
      <trkpt lat="42.2595240175724029541015625" lon="1.6431837715208530426025390625">
        <ele>1420.800048828125</ele>
        <time>2020-08-11T10:21:17.000Z</time>
      </trkpt>
      <trkpt lat="42.25954237394034862518310546875" lon="1.64314663968980312347412109375">
        <ele>1420</ele>
        <time>2020-08-11T10:21:18.000Z</time>
      </trkpt>
      <trkpt lat="42.25956165231764316558837890625" lon="1.64311210624873638153076171875">
        <ele>1419.4000244140625</ele>
        <time>2020-08-11T10:21:19.000Z</time>
      </trkpt>
      <trkpt lat="42.25962401367723941802978515625" lon="1.6430084221065044403076171875">
        <ele>1417.800048828125</ele>
        <time>2020-08-11T10:21:22.000Z</time>
      </trkpt>
      <trkpt lat="42.25966977886855602264404296875" lon="1.64292301051318645477294921875">
        <ele>1417.5999755859375</ele>
        <time>2020-08-11T10:21:25.000Z</time>
      </trkpt>
      <trkpt lat="42.25979232229292392730712890625" lon="1.64274648763239383697509765625">
        <ele>1417.4000244140625</ele>
        <time>2020-08-11T10:21:31.000Z</time>
      </trkpt>
      <trkpt lat="42.259842194616794586181640625" lon="1.64268312044441699981689453125">
        <ele>1416</ele>
        <time>2020-08-11T10:21:33.000Z</time>
      </trkpt>
      <trkpt lat="42.25992173887789249420166015625" lon="1.6425816155970096588134765625">
        <ele>1415.199951171875</ele>
        <time>2020-08-11T10:21:37.000Z</time>
      </trkpt>
      <trkpt lat="42.259938418865203857421875" lon="1.6425571404397487640380859375">
        <ele>1414</ele>
        <time>2020-08-11T10:21:38.000Z</time>
      </trkpt>
      <trkpt lat="42.2599694319069385528564453125" lon="1.642521433532238006591796875">
        <ele>1412.800048828125</ele>
        <time>2020-08-11T10:21:40.000Z</time>
      </trkpt>
      <trkpt lat="42.259985692799091339111328125" lon="1.64250274188816547393798828125">
        <ele>1412</ele>
        <time>2020-08-11T10:21:42.000Z</time>
      </trkpt>
      <trkpt lat="42.25999013520777225494384765625" lon="1.6424949467182159423828125">
        <ele>1411.800048828125</ele>
        <time>2020-08-11T10:21:43.000Z</time>
      </trkpt>
      <trkpt lat="42.259995080530643463134765625" lon="1.64248379878699779510498046875">
        <ele>1411.199951171875</ele>
        <time>2020-08-11T10:21:47.000Z</time>
      </trkpt>
      <trkpt lat="42.25999516434967517852783203125" lon="1.64246619679033756256103515625">
        <ele>1411.199951171875</ele>
        <time>2020-08-11T10:21:56.000Z</time>
      </trkpt>
      <trkpt lat="42.2599922306835651397705078125" lon="1.64244909770786762237548828125">
        <ele>1410.800048828125</ele>
        <time>2020-08-11T10:21:59.000Z</time>
      </trkpt>
      <trkpt lat="42.26000773720443248748779296875" lon="1.64243333972990512847900390625">
        <ele>1410.5999755859375</ele>
        <time>2020-08-11T10:22:02.000Z</time>
      </trkpt>
      <trkpt lat="42.26001544855535030364990234375" lon="1.64243250153958797454833984375">
        <ele>1410.199951171875</ele>
        <time>2020-08-11T10:22:06.000Z</time>
      </trkpt>
      <trkpt lat="42.26002718321979045867919921875" lon="1.64241909049451351165771484375">
        <ele>1410.199951171875</ele>
        <time>2020-08-11T10:22:07.000Z</time>
      </trkpt>
      <trkpt lat="42.26005375385284423828125" lon="1.64234113879501819610595703125">
        <ele>1409.800048828125</ele>
        <time>2020-08-11T10:22:10.000Z</time>
      </trkpt>
      <trkpt lat="42.260059453547000885009765625" lon="1.64227659814059734344482421875">
        <ele>1409.4000244140625</ele>
        <time>2020-08-11T10:22:12.000Z</time>
      </trkpt>
      <trkpt lat="42.26006381213665008544921875" lon="1.64220803417265415191650390625">
        <ele>1408.4000244140625</ele>
        <time>2020-08-11T10:22:14.000Z</time>
      </trkpt>
      <trkpt lat="42.26012407802045345306396484375" lon="1.64209404028952121734619140625">
        <ele>1407.199951171875</ele>
        <time>2020-08-11T10:22:18.000Z</time>
      </trkpt>
      <trkpt lat="42.26024058647453784942626953125" lon="1.642050705850124359130859375">
        <ele>1407</ele>
        <time>2020-08-11T10:22:24.000Z</time>
      </trkpt>
      <trkpt lat="42.26036614738404750823974609375" lon="1.64196051657199859619140625">
        <ele>1407</ele>
        <time>2020-08-11T10:22:29.000Z</time>
      </trkpt>
      <trkpt lat="42.26047419011592864990234375" lon="1.641856916248798370361328125">
        <ele>1406.4000244140625</ele>
        <time>2020-08-11T10:22:33.000Z</time>
      </trkpt>
      <trkpt lat="42.2605511359870433807373046875" lon="1.64178575389087200164794921875">
        <ele>1406.199951171875</ele>
        <time>2020-08-11T10:22:36.000Z</time>
      </trkpt>
      <trkpt lat="42.260785996913909912109375" lon="1.64153915829956531524658203125">
        <ele>1405.800048828125</ele>
        <time>2020-08-11T10:22:46.000Z</time>
      </trkpt>
      <trkpt lat="42.260873503983020782470703125" lon="1.64142499677836894989013671875">
        <ele>1405.4000244140625</ele>
        <time>2020-08-11T10:22:50.000Z</time>
      </trkpt>
      <trkpt lat="42.26093712262809276580810546875" lon="1.64132894016802310943603515625">
        <ele>1405.199951171875</ele>
        <time>2020-08-11T10:22:53.000Z</time>
      </trkpt>
      <trkpt lat="42.26105983369052410125732421875" lon="1.6410534270107746124267578125">
        <ele>1405.4000244140625</ele>
        <time>2020-08-11T10:23:00.000Z</time>
      </trkpt>
      <trkpt lat="42.26107827387750148773193359375" lon="1.64070985279977321624755859375">
        <ele>1404.800048828125</ele>
        <time>2020-08-11T10:23:07.000Z</time>
      </trkpt>
      <trkpt lat="42.26104089058935642242431640625" lon="1.640470884740352630615234375">
        <ele>1404.5999755859375</ele>
        <time>2020-08-11T10:23:12.000Z</time>
      </trkpt>
      <trkpt lat="42.26103737019002437591552734375" lon="1.64041950367391109466552734375">
        <ele>1404.5999755859375</ele>
        <time>2020-08-11T10:23:13.000Z</time>
      </trkpt>
      <trkpt lat="42.261084727942943572998046875" lon="1.64010937325656414031982421875">
        <ele>1403.5999755859375</ele>
        <time>2020-08-11T10:23:19.000Z</time>
      </trkpt>
      <trkpt lat="42.26110409013926982879638671875" lon="1.6400543041527271270751953125">
        <ele>1403.4000244140625</ele>
        <time>2020-08-11T10:23:20.000Z</time>
      </trkpt>
      <trkpt lat="42.26121741347014904022216796875" lon="1.63977476768195629119873046875">
        <ele>1402</ele>
        <time>2020-08-11T10:23:25.000Z</time>
      </trkpt>
      <trkpt lat="42.2612602449953556060791015625" lon="1.6396523080766201019287109375">
        <ele>1401.5999755859375</ele>
        <time>2020-08-11T10:23:27.000Z</time>
      </trkpt>
      <trkpt lat="42.2613511048257350921630859375" lon="1.63931309245526790618896484375">
        <ele>1401.199951171875</ele>
        <time>2020-08-11T10:23:32.000Z</time>
      </trkpt>
      <trkpt lat="42.26136141456663608551025390625" lon="1.63915970362722873687744140625">
        <ele>1401</ele>
        <time>2020-08-11T10:23:34.000Z</time>
      </trkpt>
      <trkpt lat="42.2614122927188873291015625" lon="1.63865603506565093994140625">
        <ele>1400</ele>
        <time>2020-08-11T10:23:40.000Z</time>
      </trkpt>
      <trkpt lat="42.26143442094326019287109375" lon="1.63847691379487514495849609375">
        <ele>1399</ele>
        <time>2020-08-11T10:23:42.000Z</time>
      </trkpt>
      <trkpt lat="42.26143081672489643096923828125" lon="1.638198383152484893798828125">
        <ele>1398</ele>
        <time>2020-08-11T10:23:45.000Z</time>
      </trkpt>
      <trkpt lat="42.261403910815715789794921875" lon="1.63764274679124355316162109375">
        <ele>1396.800048828125</ele>
        <time>2020-08-11T10:23:51.000Z</time>
      </trkpt>
      <trkpt lat="42.2613961994647979736328125" lon="1.63701812736690044403076171875">
        <ele>1395.800048828125</ele>
        <time>2020-08-11T10:23:58.000Z</time>
      </trkpt>
      <trkpt lat="42.2614027373492717742919921875" lon="1.6367592103779315948486328125">
        <ele>1395.4000244140625</ele>
        <time>2020-08-11T10:24:01.000Z</time>
      </trkpt>
      <trkpt lat="42.2614174894988536834716796875" lon="1.63643072359263896942138671875">
        <ele>1394.800048828125</ele>
        <time>2020-08-11T10:24:05.000Z</time>
      </trkpt>
      <trkpt lat="42.26144422776997089385986328125" lon="1.63612863980233669281005859375">
        <ele>1394.5999755859375</ele>
        <time>2020-08-11T10:24:09.000Z</time>
      </trkpt>
      <trkpt lat="42.26150558330118656158447265625" lon="1.6356001608073711395263671875">
        <ele>1394</ele>
        <time>2020-08-11T10:24:17.000Z</time>
      </trkpt>
      <trkpt lat="42.26151245646178722381591796875" lon="1.63553939200937747955322265625">
        <ele>1393.800048828125</ele>
        <time>2020-08-11T10:24:18.000Z</time>
      </trkpt>
      <trkpt lat="42.26152989082038402557373046875" lon="1.63512893021106719970703125">
        <ele>1393.199951171875</ele>
        <time>2020-08-11T10:24:25.000Z</time>
      </trkpt>
      <trkpt lat="42.261490412056446075439453125" lon="1.63465862162411212921142578125">
        <ele>1393.199951171875</ele>
        <time>2020-08-11T10:24:33.000Z</time>
      </trkpt>
      <trkpt lat="42.261473648250102996826171875" lon="1.6344679333269596099853515625">
        <ele>1392.800048828125</ele>
        <time>2020-08-11T10:24:36.000Z</time>
      </trkpt>
      <trkpt lat="42.26146182976663112640380859375" lon="1.6343381814658641815185546875">
        <ele>1392.800048828125</ele>
        <time>2020-08-11T10:24:38.000Z</time>
      </trkpt>
      <trkpt lat="42.26147239096462726593017578125" lon="1.63413785398006439208984375">
        <ele>1392.5999755859375</ele>
        <time>2020-08-11T10:24:41.000Z</time>
      </trkpt>
      <trkpt lat="42.2615110315382480621337890625" lon="1.63378137163817882537841796875">
        <ele>1391.5999755859375</ele>
        <time>2020-08-11T10:24:46.000Z</time>
      </trkpt>
      <trkpt lat="42.26150818169116973876953125" lon="1.63370392285287380218505859375">
        <ele>1391.4000244140625</ele>
        <time>2020-08-11T10:24:47.000Z</time>
      </trkpt>
      <trkpt lat="42.261461913585662841796875" lon="1.6334681399166584014892578125">
        <ele>1390.800048828125</ele>
        <time>2020-08-11T10:24:50.000Z</time>
      </trkpt>
      <trkpt lat="42.261438779532909393310546875" lon="1.63338725455105304718017578125">
        <ele>1390.4000244140625</ele>
        <time>2020-08-11T10:24:51.000Z</time>
      </trkpt>
      <trkpt lat="42.261415310204029083251953125" lon="1.63330427370965480804443359375">
        <ele>1390.199951171875</ele>
        <time>2020-08-11T10:24:52.000Z</time>
      </trkpt>
      <trkpt lat="42.2613574750721454620361328125" lon="1.63303756155073642730712890625">
        <ele>1389.800048828125</ele>
        <time>2020-08-11T10:24:55.000Z</time>
      </trkpt>
      <trkpt lat="42.2613103687763214111328125" lon="1.6328549198806285858154296875">
        <ele>1389.199951171875</ele>
        <time>2020-08-11T10:24:57.000Z</time>
      </trkpt>
      <trkpt lat="42.2611869871616363525390625" lon="1.6324874572455883026123046875">
        <ele>1388.4000244140625</ele>
        <time>2020-08-11T10:25:01.000Z</time>
      </trkpt>
      <trkpt lat="42.26110191084444522857666015625" lon="1.6321910731494426727294921875">
        <ele>1387.4000244140625</ele>
        <time>2020-08-11T10:25:04.000Z</time>
      </trkpt>
      <trkpt lat="42.2610775195062160491943359375" lon="1.63208805955946445465087890625">
        <ele>1387.199951171875</ele>
        <time>2020-08-11T10:25:05.000Z</time>
      </trkpt>
      <trkpt lat="42.26100451312959194183349609375" lon="1.63178044371306896209716796875">
        <ele>1385.5999755859375</ele>
        <time>2020-08-11T10:25:08.000Z</time>
      </trkpt>
      <trkpt lat="42.26096369326114654541015625" lon="1.63158246316015720367431640625">
        <ele>1385</ele>
        <time>2020-08-11T10:25:10.000Z</time>
      </trkpt>
      <trkpt lat="42.26095673628151416778564453125" lon="1.631480120122432708740234375">
        <ele>1384.5999755859375</ele>
        <time>2020-08-11T10:25:11.000Z</time>
      </trkpt>
      <trkpt lat="42.26102001965045928955078125" lon="1.6311879269778728485107421875">
        <ele>1383.5999755859375</ele>
        <time>2020-08-11T10:25:14.000Z</time>
      </trkpt>
      <trkpt lat="42.2610657848417758941650390625" lon="1.6311071254312992095947265625">
        <ele>1383.199951171875</ele>
        <time>2020-08-11T10:25:15.000Z</time>
      </trkpt>
      <trkpt lat="42.26118271239101886749267578125" lon="1.63085642270743846893310546875">
        <ele>1382.5999755859375</ele>
        <time>2020-08-11T10:25:18.000Z</time>
      </trkpt>
      <trkpt lat="42.2612233646214008331298828125" lon="1.63057697005569934844970703125">
        <ele>1382.199951171875</ele>
        <time>2020-08-11T10:25:21.000Z</time>
      </trkpt>
      <trkpt lat="42.261213473975658416748046875" lon="1.630485020577907562255859375">
        <ele>1382</ele>
        <time>2020-08-11T10:25:22.000Z</time>
      </trkpt>
      <trkpt lat="42.261118590831756591796875" lon="1.63024923764169216156005859375">
        <ele>1381.199951171875</ele>
        <time>2020-08-11T10:25:25.000Z</time>
      </trkpt>
      <trkpt lat="42.26107860915362834930419921875" lon="1.63017899729311466217041015625">
        <ele>1381.199951171875</ele>
        <time>2020-08-11T10:25:26.000Z</time>
      </trkpt>
      <trkpt lat="42.2610099613666534423828125" lon="1.6300275363028049468994140625">
        <ele>1380.5999755859375</ele>
        <time>2020-08-11T10:25:28.000Z</time>
      </trkpt>
      <trkpt lat="42.2609772719442844390869140625" lon="1.62984891794621944427490234375">
        <ele>1380</ele>
        <time>2020-08-11T10:25:30.000Z</time>
      </trkpt>
      <trkpt lat="42.26100417785346508026123046875" lon="1.6294478438794612884521484375">
        <ele>1379.199951171875</ele>
        <time>2020-08-11T10:25:34.000Z</time>
      </trkpt>
      <trkpt lat="42.26102194748818874359130859375" lon="1.62934231571853160858154296875">
        <ele>1378.800048828125</ele>
        <time>2020-08-11T10:25:35.000Z</time>
      </trkpt>
      <trkpt lat="42.261067293584346771240234375" lon="1.62912539206445217132568359375">
        <ele>1377.800048828125</ele>
        <time>2020-08-11T10:25:37.000Z</time>
      </trkpt>
      <trkpt lat="42.2611214406788349151611328125" lon="1.6289020143449306488037109375">
        <ele>1376.5999755859375</ele>
        <time>2020-08-11T10:25:39.000Z</time>
      </trkpt>
      <trkpt lat="42.2611542977392673492431640625" lon="1.62878911010921001434326171875">
        <ele>1376</ele>
        <time>2020-08-11T10:25:40.000Z</time>
      </trkpt>
      <trkpt lat="42.2612287290394306182861328125" lon="1.6285788081586360931396484375">
        <ele>1375</ele>
        <time>2020-08-11T10:25:42.000Z</time>
      </trkpt>
      <trkpt lat="42.26129553280770778656005859375" lon="1.6283665783703327178955078125">
        <ele>1374</ele>
        <time>2020-08-11T10:25:44.000Z</time>
      </trkpt>
      <trkpt lat="42.26131967268884181976318359375" lon="1.62825300358235836029052734375">
        <ele>1373.199951171875</ele>
        <time>2020-08-11T10:25:45.000Z</time>
      </trkpt>
      <trkpt lat="42.26133626885712146759033203125" lon="1.6281382553279399871826171875">
        <ele>1372.5999755859375</ele>
        <time>2020-08-11T10:25:46.000Z</time>
      </trkpt>
      <trkpt lat="42.26131933741271495819091796875" lon="1.627795435488224029541015625">
        <ele>1371.5999755859375</ele>
        <time>2020-08-11T10:25:49.000Z</time>
      </trkpt>
      <trkpt lat="42.261290587484836578369140625" lon="1.6276879794895648956298828125">
        <ele>1371.4000244140625</ele>
        <time>2020-08-11T10:25:50.000Z</time>
      </trkpt>
      <trkpt lat="42.2612022422254085540771484375" lon="1.627497039735317230224609375">
        <ele>1370</ele>
        <time>2020-08-11T10:25:52.000Z</time>
      </trkpt>
      <trkpt lat="42.26107039488852024078369140625" lon="1.62736569531261920928955078125">
        <ele>1368.5999755859375</ele>
        <time>2020-08-11T10:25:54.000Z</time>
      </trkpt>
      <trkpt lat="42.2609923593699932098388671875" lon="1.62732127122581005096435546875">
        <ele>1368.199951171875</ele>
        <time>2020-08-11T10:25:55.000Z</time>
      </trkpt>
      <trkpt lat="42.26083855144679546356201171875" lon="1.62721834145486354827880859375">
        <ele>1367.199951171875</ele>
        <time>2020-08-11T10:25:57.000Z</time>
      </trkpt>
      <trkpt lat="42.26077619008719921112060546875" lon="1.62714139558374881744384765625">
        <ele>1366.800048828125</ele>
        <time>2020-08-11T10:25:58.000Z</time>
      </trkpt>
      <trkpt lat="42.2606664709746837615966796875" lon="1.62684970535337924957275390625">
        <ele>1366.199951171875</ele>
        <time>2020-08-11T10:26:01.000Z</time>
      </trkpt>
      <trkpt lat="42.2606503777205944061279296875" lon="1.62674836814403533935546875">
        <ele>1366</ele>
        <time>2020-08-11T10:26:02.000Z</time>
      </trkpt>
      <trkpt lat="42.26063889451324939727783203125" lon="1.62655013613402843475341796875">
        <ele>1365.800048828125</ele>
        <time>2020-08-11T10:26:04.000Z</time>
      </trkpt>
      <trkpt lat="42.26063646376132965087890625" lon="1.626455672085285186767578125">
        <ele>1365.800048828125</ele>
        <time>2020-08-11T10:26:05.000Z</time>
      </trkpt>
      <trkpt lat="42.26066529750823974609375" lon="1.6259059868752956390380859375">
        <ele>1365</ele>
        <time>2020-08-11T10:26:11.000Z</time>
      </trkpt>
      <trkpt lat="42.2607457637786865234375" lon="1.625528298318386077880859375">
        <ele>1364</ele>
        <time>2020-08-11T10:26:15.000Z</time>
      </trkpt>
      <trkpt lat="42.26076185703277587890625" lon="1.62542779929935932159423828125">
        <ele>1363.5999755859375</ele>
        <time>2020-08-11T10:26:16.000Z</time>
      </trkpt>
      <trkpt lat="42.26076789200305938720703125" lon="1.62532411515712738037109375">
        <ele>1363.199951171875</ele>
        <time>2020-08-11T10:26:17.000Z</time>
      </trkpt>
      <trkpt lat="42.260759510099887847900390625" lon="1.62521908991038799285888671875">
        <ele>1362.800048828125</ele>
        <time>2020-08-11T10:26:18.000Z</time>
      </trkpt>
      <trkpt lat="42.260701172053813934326171875" lon="1.62501943297684192657470703125">
        <ele>1362.4000244140625</ele>
        <time>2020-08-11T10:26:20.000Z</time>
      </trkpt>
      <trkpt lat="42.26060369051992893218994140625" lon="1.62484425120055675506591796875">
        <ele>1361.5999755859375</ele>
        <time>2020-08-11T10:26:22.000Z</time>
      </trkpt>
      <trkpt lat="42.260549627244472503662109375" lon="1.62476210854947566986083984375">
        <ele>1361.199951171875</ele>
        <time>2020-08-11T10:26:23.000Z</time>
      </trkpt>
      <trkpt lat="42.260497324168682098388671875" lon="1.62467862479388713836669921875">
        <ele>1360.800048828125</ele>
        <time>2020-08-11T10:26:24.000Z</time>
      </trkpt>
      <trkpt lat="42.26045013405382633209228515625" lon="1.6245903633534908294677734375">
        <ele>1360.4000244140625</ele>
        <time>2020-08-11T10:26:25.000Z</time>
      </trkpt>
      <trkpt lat="42.26029942743480205535888671875" lon="1.6242165304720401763916015625">
        <ele>1359</ele>
        <time>2020-08-11T10:26:29.000Z</time>
      </trkpt>
      <trkpt lat="42.26016866974532604217529296875" lon="1.62365653552114963531494140625">
        <ele>1358.199951171875</ele>
        <time>2020-08-11T10:26:35.000Z</time>
      </trkpt>
      <trkpt lat="42.2601206414401531219482421875" lon="1.623399965465068817138671875">
        <ele>1358.199951171875</ele>
        <time>2020-08-11T10:26:38.000Z</time>
      </trkpt>
      <trkpt lat="42.2600760497152805328369140625" lon="1.6230792738497257232666015625">
        <ele>1357.5999755859375</ele>
        <time>2020-08-11T10:26:42.000Z</time>
      </trkpt>
      <trkpt lat="42.260074876248836517333984375" lon="1.6230014897882938385009765625">
        <ele>1357.4000244140625</ele>
        <time>2020-08-11T10:26:43.000Z</time>
      </trkpt>
      <trkpt lat="42.2601075656712055206298828125" lon="1.62277593277394771575927734375">
        <ele>1357.199951171875</ele>
        <time>2020-08-11T10:26:46.000Z</time>
      </trkpt>
      <trkpt lat="42.26018945686519145965576171875" lon="1.6225803829729557037353515625">
        <ele>1357</ele>
        <time>2020-08-11T10:26:49.000Z</time>
      </trkpt>
      <trkpt lat="42.260226421058177947998046875" lon="1.62252296693623065948486328125">
        <ele>1357</ele>
        <time>2020-08-11T10:26:50.000Z</time>
      </trkpt>
      <trkpt lat="42.2602669894695281982421875" lon="1.6224687360227108001708984375">
        <ele>1357</ele>
        <time>2020-08-11T10:26:51.000Z</time>
      </trkpt>
      <trkpt lat="42.26044443435966968536376953125" lon="1.62224401719868183135986328125">
        <ele>1356.199951171875</ele>
        <time>2020-08-11T10:26:55.000Z</time>
      </trkpt>
      <trkpt lat="42.26062498055398464202880859375" lon="1.62199473939836025238037109375">
        <ele>1355.199951171875</ele>
        <time>2020-08-11T10:26:59.000Z</time>
      </trkpt>
      <trkpt lat="42.260672338306903839111328125" lon="1.62193137221038341522216796875">
        <ele>1355</ele>
        <time>2020-08-11T10:27:00.000Z</time>
      </trkpt>
      <trkpt lat="42.260861098766326904296875" lon="1.62166281603276729583740234375">
        <ele>1353.800048828125</ele>
        <time>2020-08-11T10:27:04.000Z</time>
      </trkpt>
      <trkpt lat="42.2609149105846881866455078125" lon="1.62149098701775074005126953125">
        <ele>1353</ele>
        <time>2020-08-11T10:27:06.000Z</time>
      </trkpt>
      <trkpt lat="42.26089739240705966949462890625" lon="1.6213016398251056671142578125">
        <ele>1352.5999755859375</ele>
        <time>2020-08-11T10:27:08.000Z</time>
      </trkpt>
      <trkpt lat="42.26086319424211978912353515625" lon="1.6212171502411365509033203125">
        <ele>1352.199951171875</ele>
        <time>2020-08-11T10:27:09.000Z</time>
      </trkpt>
      <trkpt lat="42.2607040219008922576904296875" lon="1.62104825489223003387451171875">
        <ele>1351.5999755859375</ele>
        <time>2020-08-11T10:27:12.000Z</time>
      </trkpt>
      <trkpt lat="42.26058675907552242279052734375" lon="1.6209791041910648345947265625">
        <ele>1351.800048828125</ele>
        <time>2020-08-11T10:27:14.000Z</time>
      </trkpt>
      <trkpt lat="42.260421551764011383056640625" lon="1.6209031641483306884765625">
        <ele>1351.800048828125</ele>
        <time>2020-08-11T10:27:17.000Z</time>
      </trkpt>
      <trkpt lat="42.2602282650768756866455078125" lon="1.62090383470058441162109375">
        <ele>1352</ele>
        <time>2020-08-11T10:27:21.000Z</time>
      </trkpt>
      <trkpt lat="42.26018710993230342864990234375" lon="1.6209140606224536895751953125">
        <ele>1352.4000244140625</ele>
        <time>2020-08-11T10:27:22.000Z</time>
      </trkpt>
      <trkpt lat="42.2600076533854007720947265625" lon="1.6209693811833858489990234375">
        <ele>1353.199951171875</ele>
        <time>2020-08-11T10:27:27.000Z</time>
      </trkpt>
      <trkpt lat="42.25982643663883209228515625" lon="1.6210169903934001922607421875">
        <ele>1353.800048828125</ele>
        <time>2020-08-11T10:27:33.000Z</time>
      </trkpt>
      <trkpt lat="42.25974907167255878448486328125" lon="1.62102797068655490875244140625">
        <ele>1354.199951171875</ele>
        <time>2020-08-11T10:27:36.000Z</time>
      </trkpt>
      <trkpt lat="42.2596742212772369384765625" lon="1.62103920243680477142333984375">
        <ele>1355</ele>
        <time>2020-08-11T10:27:39.000Z</time>
      </trkpt>
      <trkpt lat="42.25957841612398624420166015625" lon="1.6210077702999114990234375">
        <ele>1355.5999755859375</ele>
        <time>2020-08-11T10:27:43.000Z</time>
      </trkpt>
      <trkpt lat="42.25951974280178546905517578125" lon="1.6209563054144382476806640625">
        <ele>1356.199951171875</ele>
        <time>2020-08-11T10:27:46.000Z</time>
      </trkpt>
      <trkpt lat="42.2594748996198177337646484375" lon="1.620891094207763671875">
        <ele>1356.4000244140625</ele>
        <time>2020-08-11T10:27:49.000Z</time>
      </trkpt>
      <trkpt lat="42.2594075091183185577392578125" lon="1.62076033651828765869140625">
        <ele>1356.800048828125</ele>
        <time>2020-08-11T10:27:56.000Z</time>
      </trkpt>
      <trkpt lat="42.2594051621854305267333984375" lon="1.6207618452608585357666015625">
        <ele>1357</ele>
        <time>2020-08-11T10:28:02.000Z</time>
      </trkpt>
      <trkpt lat="42.2594031505286693572998046875" lon="1.62076167762279510498046875">
        <ele>1357.199951171875</ele>
        <time>2020-08-11T10:28:05.000Z</time>
      </trkpt>
      <trkpt lat="42.2594034858047962188720703125" lon="1.62076176144182682037353515625">
        <ele>1357.199951171875</ele>
        <time>2020-08-11T10:28:20.000Z</time>
      </trkpt>
      <trkpt lat="42.259406335651874542236328125" lon="1.62074969150125980377197265625">
        <ele>1357.199951171875</ele>
        <time>2020-08-11T10:28:49.000Z</time>
      </trkpt>
      <trkpt lat="42.259415723383426666259765625" lon="1.62070803344249725341796875">
        <ele>1357.4000244140625</ele>
        <time>2020-08-11T10:28:52.000Z</time>
      </trkpt>
      <trkpt lat="42.2594262845814228057861328125" lon="1.620688252151012420654296875">
        <ele>1357.199951171875</ele>
        <time>2020-08-11T10:28:53.000Z</time>
      </trkpt>
      <trkpt lat="42.25949174724519252777099609375" lon="1.6205502860248088836669921875">
        <ele>1357.800048828125</ele>
        <time>2020-08-11T10:29:00.000Z</time>
      </trkpt>
      <trkpt lat="42.25949275307357311248779296875" lon="1.62055238150060176849365234375">
        <ele>1357.800048828125</ele>
        <time>2020-08-11T10:29:06.000Z</time>
      </trkpt>
      <trkpt lat="42.25949811749160289764404296875" lon="1.6205432452261447906494140625">
        <ele>1358</ele>
        <time>2020-08-11T10:29:20.000Z</time>
      </trkpt>
      <trkpt lat="42.25950113497674465179443359375" lon="1.62053444422781467437744140625">
        <ele>1358</ele>
        <time>2020-08-11T10:29:32.000Z</time>
      </trkpt>
      <trkpt lat="42.25953751243650913238525390625" lon="1.62039287388324737548828125">
        <ele>1358</ele>
        <time>2020-08-11T10:29:39.000Z</time>
      </trkpt>
      <trkpt lat="42.25958394818007946014404296875" lon="1.620261110365390777587890625">
        <ele>1358.800048828125</ele>
        <time>2020-08-11T10:29:46.000Z</time>
      </trkpt>
      <trkpt lat="42.259644381701946258544921875" lon="1.62008500657975673675537109375">
        <ele>1359.4000244140625</ele>
        <time>2020-08-11T10:29:53.000Z</time>
      </trkpt>
      <trkpt lat="42.2596613131463527679443359375" lon="1.62003337405622005462646484375">
        <ele>1359.4000244140625</ele>
        <time>2020-08-11T10:29:55.000Z</time>
      </trkpt>
      <trkpt lat="42.25974471308290958404541015625" lon="1.619767583906650543212890625">
        <ele>1360.4000244140625</ele>
        <time>2020-08-11T10:30:05.000Z</time>
      </trkpt>
      <trkpt lat="42.25977673195302486419677734375" lon="1.61965568549931049346923828125">
        <ele>1360.5999755859375</ele>
        <time>2020-08-11T10:30:09.000Z</time>
      </trkpt>
      <trkpt lat="42.25978662259876728057861328125" lon="1.61959382705390453338623046875">
        <ele>1360.800048828125</ele>
        <time>2020-08-11T10:30:11.000Z</time>
      </trkpt>
      <trkpt lat="42.25982434116303920745849609375" lon="1.61938679404556751251220703125">
        <ele>1361.800048828125</ele>
        <time>2020-08-11T10:30:18.000Z</time>
      </trkpt>
      <trkpt lat="42.2598339803516864776611328125" lon="1.619325689971446990966796875">
        <ele>1361.800048828125</ele>
        <time>2020-08-11T10:30:20.000Z</time>
      </trkpt>
      <trkpt lat="42.2598648257553577423095703125" lon="1.6191146336495876312255859375">
        <ele>1362.199951171875</ele>
        <time>2020-08-11T10:30:27.000Z</time>
      </trkpt>
      <trkpt lat="42.259877733886241912841796875" lon="1.61893920041620731353759765625">
        <ele>1362.800048828125</ele>
        <time>2020-08-11T10:30:33.000Z</time>
      </trkpt>
      <trkpt lat="42.25986306555569171905517578125" lon="1.618815399706363677978515625">
        <ele>1363</ele>
        <time>2020-08-11T10:30:37.000Z</time>
      </trkpt>
      <trkpt lat="42.25984697230160236358642578125" lon="1.61869562231004238128662109375">
        <ele>1363.5999755859375</ele>
        <time>2020-08-11T10:30:41.000Z</time>
      </trkpt>
      <trkpt lat="42.2598230838775634765625" lon="1.618473418056964874267578125">
        <ele>1364</ele>
        <time>2020-08-11T10:30:48.000Z</time>
      </trkpt>
      <trkpt lat="42.259801961481571197509765625" lon="1.61824576556682586669921875">
        <ele>1365.199951171875</ele>
        <time>2020-08-11T10:30:55.000Z</time>
      </trkpt>
      <trkpt lat="42.25980020128190517425537109375" lon="1.61817611195147037506103515625">
        <ele>1365.199951171875</ele>
        <time>2020-08-11T10:30:57.000Z</time>
      </trkpt>
      <trkpt lat="42.2598269395530223846435546875" lon="1.6178942285478115081787109375">
        <ele>1365.199951171875</ele>
        <time>2020-08-11T10:31:04.000Z</time>
      </trkpt>
      <trkpt lat="42.2598879598081111907958984375" lon="1.61769683472812175750732421875">
        <ele>1365</ele>
        <time>2020-08-11T10:31:08.000Z</time>
      </trkpt>
      <trkpt lat="42.259939424693584442138671875" lon="1.61759608425199985504150390625">
        <ele>1364.4000244140625</ele>
        <time>2020-08-11T10:31:10.000Z</time>
      </trkpt>
      <trkpt lat="42.26001343689858913421630859375" lon="1.61742358468472957611083984375">
        <ele>1364.4000244140625</ele>
        <time>2020-08-11T10:31:13.000Z</time>
      </trkpt>
      <trkpt lat="42.26002550683915615081787109375" lon="1.61735661327838897705078125">
        <ele>1364.199951171875</ele>
        <time>2020-08-11T10:31:14.000Z</time>
      </trkpt>
      <trkpt lat="42.260025925934314727783203125" lon="1.617286205291748046875">
        <ele>1364</ele>
        <time>2020-08-11T10:31:15.000Z</time>
      </trkpt>
      <trkpt lat="42.2599493153393268585205078125" lon="1.61711412481963634490966796875">
        <ele>1364</ele>
        <time>2020-08-11T10:31:18.000Z</time>
      </trkpt>
      <trkpt lat="42.25978779606521129608154296875" lon="1.61701354198157787322998046875">
        <ele>1363.800048828125</ele>
        <time>2020-08-11T10:31:22.000Z</time>
      </trkpt>
      <trkpt lat="42.2597504965960979461669921875" lon="1.6169983707368373870849609375">
        <ele>1364</ele>
        <time>2020-08-11T10:31:23.000Z</time>
      </trkpt>
      <trkpt lat="42.2595117799937725067138671875" lon="1.61691346205770969390869140625">
        <ele>1364.800048828125</ele>
        <time>2020-08-11T10:31:30.000Z</time>
      </trkpt>
      <trkpt lat="42.25920642726123332977294921875" lon="1.6168515197932720184326171875">
        <ele>1365.199951171875</ele>
        <time>2020-08-11T10:31:39.000Z</time>
      </trkpt>
      <trkpt lat="42.2590787708759307861328125" lon="1.61687725223600864410400390625">
        <ele>1365.5999755859375</ele>
        <time>2020-08-11T10:31:43.000Z</time>
      </trkpt>
      <trkpt lat="42.25898690521717071533203125" lon="1.61691815592348575592041015625">
        <ele>1365.800048828125</ele>
        <time>2020-08-11T10:31:46.000Z</time>
      </trkpt>
      <trkpt lat="42.25880392827093601226806640625" lon="1.61710104905068874359130859375">
        <ele>1366</ele>
        <time>2020-08-11T10:31:53.000Z</time>
      </trkpt>
      <trkpt lat="42.2586246393620967864990234375" lon="1.617310680449008941650390625">
        <ele>1366.4000244140625</ele>
        <time>2020-08-11T10:32:01.000Z</time>
      </trkpt>
      <trkpt lat="42.25851215422153472900390625" lon="1.61741838790476322174072265625">
        <ele>1366.800048828125</ele>
        <time>2020-08-11T10:32:06.000Z</time>
      </trkpt>
      <trkpt lat="42.258431017398834228515625" lon="1.6174536757171154022216796875">
        <ele>1367</ele>
        <time>2020-08-11T10:32:09.000Z</time>
      </trkpt>
      <trkpt lat="42.258299253880977630615234375" lon="1.61740749143064022064208984375">
        <ele>1367.4000244140625</ele>
        <time>2020-08-11T10:32:14.000Z</time>
      </trkpt>
      <trkpt lat="42.2582125850021839141845703125" lon="1.617258377373218536376953125">
        <ele>1367.4000244140625</ele>
        <time>2020-08-11T10:32:19.000Z</time>
      </trkpt>
      <trkpt lat="42.2581740282475948333740234375" lon="1.61710255779325962066650390625">
        <ele>1367</ele>
        <time>2020-08-11T10:32:22.000Z</time>
      </trkpt>
      <trkpt lat="42.25816153921186923980712890625" lon="1.61696375347673892974853515625">
        <ele>1366.5999755859375</ele>
        <time>2020-08-11T10:32:24.000Z</time>
      </trkpt>
      <trkpt lat="42.2581462003290653228759765625" lon="1.6167982108891010284423828125">
        <ele>1365.800048828125</ele>
        <time>2020-08-11T10:32:26.000Z</time>
      </trkpt>
      <trkpt lat="42.25809582509100437164306640625" lon="1.61651398055255413055419921875">
        <ele>1364.5999755859375</ele>
        <time>2020-08-11T10:32:29.000Z</time>
      </trkpt>
      <trkpt lat="42.25806497968733310699462890625" lon="1.6164159961044788360595703125">
        <ele>1364.199951171875</ele>
        <time>2020-08-11T10:32:30.000Z</time>
      </trkpt>
      <trkpt lat="42.2579718567430973052978515625" lon="1.61623704247176647186279296875">
        <ele>1363.199951171875</ele>
        <time>2020-08-11T10:32:32.000Z</time>
      </trkpt>
      <trkpt lat="42.25785358808934688568115234375" lon="1.61608315072953701019287109375">
        <ele>1362</ele>
        <time>2020-08-11T10:32:34.000Z</time>
      </trkpt>
      <trkpt lat="42.25765828974545001983642578125" lon="1.61587930284440517425537109375">
        <ele>1361.199951171875</ele>
        <time>2020-08-11T10:32:37.000Z</time>
      </trkpt>
      <trkpt lat="42.25759123452007770538330078125" lon="1.61581492982804775238037109375">
        <ele>1360.800048828125</ele>
        <time>2020-08-11T10:32:38.000Z</time>
      </trkpt>
      <trkpt lat="42.25731362588703632354736328125" lon="1.61558367311954498291015625">
        <ele>1359.800048828125</ele>
        <time>2020-08-11T10:32:42.000Z</time>
      </trkpt>
      <trkpt lat="42.2571755759418010711669921875" lon="1.61546758376061916351318359375">
        <ele>1359.800048828125</ele>
        <time>2020-08-11T10:32:44.000Z</time>
      </trkpt>
      <trkpt lat="42.25697432644665241241455078125" lon="1.6152716986835002899169921875">
        <ele>1358.5999755859375</ele>
        <time>2020-08-11T10:32:47.000Z</time>
      </trkpt>
      <trkpt lat="42.25677332840859889984130859375" lon="1.61505284719169139862060546875">
        <ele>1357.4000244140625</ele>
        <time>2020-08-11T10:32:50.000Z</time>
      </trkpt>
      <trkpt lat="42.25670912303030490875244140625" lon="1.61497036926448345184326171875">
        <ele>1356.5999755859375</ele>
        <time>2020-08-11T10:32:51.000Z</time>
      </trkpt>
      <trkpt lat="42.2566545568406581878662109375" lon="1.61488093435764312744140625">
        <ele>1356</ele>
        <time>2020-08-11T10:32:52.000Z</time>
      </trkpt>
      <trkpt lat="42.25657534785568714141845703125" lon="1.61467733792960643768310546875">
        <ele>1355</ele>
        <time>2020-08-11T10:32:54.000Z</time>
      </trkpt>
      <trkpt lat="42.256535701453685760498046875" lon="1.6145783476531505584716796875">
        <ele>1354.4000244140625</ele>
        <time>2020-08-11T10:32:55.000Z</time>
      </trkpt>
      <trkpt lat="42.25648750551044940948486328125" lon="1.61449193023145198822021484375">
        <ele>1353.5999755859375</ele>
        <time>2020-08-11T10:32:56.000Z</time>
      </trkpt>
      <trkpt lat="42.25642732344567775726318359375" lon="1.61442629992961883544921875">
        <ele>1353.199951171875</ele>
        <time>2020-08-11T10:32:57.000Z</time>
      </trkpt>
      <trkpt lat="42.25635674782097339630126953125" lon="1.61439000628888607025146484375">
        <ele>1352.4000244140625</ele>
        <time>2020-08-11T10:32:58.000Z</time>
      </trkpt>
      <trkpt lat="42.25627921521663665771484375" lon="1.614386402070522308349609375">
        <ele>1351.800048828125</ele>
        <time>2020-08-11T10:32:59.000Z</time>
      </trkpt>
      <trkpt lat="42.2562019340693950653076171875" lon="1.61441699601709842681884765625">
        <ele>1350.800048828125</ele>
        <time>2020-08-11T10:33:00.000Z</time>
      </trkpt>
      <trkpt lat="42.25605525076389312744140625" lon="1.6145357675850391387939453125">
        <ele>1349.800048828125</ele>
        <time>2020-08-11T10:33:02.000Z</time>
      </trkpt>
      <trkpt lat="42.2559008561074733734130859375" lon="1.61466107703745365142822265625">
        <ele>1348.199951171875</ele>
        <time>2020-08-11T10:33:04.000Z</time>
      </trkpt>
      <trkpt lat="42.25575006566941738128662109375" lon="1.6147868894040584564208984375">
        <ele>1347.4000244140625</ele>
        <time>2020-08-11T10:33:06.000Z</time>
      </trkpt>
      <trkpt lat="42.25560740567743778228759765625" lon="1.61490566097199916839599609375">
        <ele>1346.199951171875</ele>
        <time>2020-08-11T10:33:08.000Z</time>
      </trkpt>
      <trkpt lat="42.2554443776607513427734375" lon="1.61495846696197986602783203125">
        <ele>1345</ele>
        <time>2020-08-11T10:33:10.000Z</time>
      </trkpt>
      <trkpt lat="42.255357541143894195556640625" lon="1.61495813168585300445556640625">
        <ele>1344.4000244140625</ele>
        <time>2020-08-11T10:33:11.000Z</time>
      </trkpt>
      <trkpt lat="42.2552700340747833251953125" lon="1.6149468161165714263916015625">
        <ele>1343.5999755859375</ele>
        <time>2020-08-11T10:33:12.000Z</time>
      </trkpt>
      <trkpt lat="42.255181856453418731689453125" lon="1.614926867187023162841796875">
        <ele>1343</ele>
        <time>2020-08-11T10:33:13.000Z</time>
      </trkpt>
      <trkpt lat="42.25509309209883213043212890625" lon="1.61490515805780887603759765625">
        <ele>1342.4000244140625</ele>
        <time>2020-08-11T10:33:14.000Z</time>
      </trkpt>
      <trkpt lat="42.25491137243807315826416015625" lon="1.6148646734654903411865234375">
        <ele>1341.5999755859375</ele>
        <time>2020-08-11T10:33:16.000Z</time>
      </trkpt>
      <trkpt lat="42.254820428788661956787109375" lon="1.614842712879180908203125">
        <ele>1341</ele>
        <time>2020-08-11T10:33:17.000Z</time>
      </trkpt>
      <trkpt lat="42.25464985705912113189697265625" lon="1.61479418165981769561767578125">
        <ele>1339.800048828125</ele>
        <time>2020-08-11T10:33:19.000Z</time>
      </trkpt>
      <trkpt lat="42.25457475520670413970947265625" lon="1.6147604025900363922119140625">
        <ele>1339.5999755859375</ele>
        <time>2020-08-11T10:33:20.000Z</time>
      </trkpt>
      <trkpt lat="42.25450719706714153289794921875" lon="1.6147077642381191253662109375">
        <ele>1339.199951171875</ele>
        <time>2020-08-11T10:33:21.000Z</time>
      </trkpt>
      <trkpt lat="42.254450619220733642578125" lon="1.6146366856992244720458984375">
        <ele>1338.5999755859375</ele>
        <time>2020-08-11T10:33:22.000Z</time>
      </trkpt>
      <trkpt lat="42.25439102388918399810791015625" lon="1.61445890553295612335205078125">
        <ele>1337.800048828125</ele>
        <time>2020-08-11T10:33:24.000Z</time>
      </trkpt>
      <trkpt lat="42.2543730027973651885986328125" lon="1.61436419002711772918701171875">
        <ele>1337.4000244140625</ele>
        <time>2020-08-11T10:33:25.000Z</time>
      </trkpt>
      <trkpt lat="42.25433184765279293060302734375" lon="1.61407987587153911590576171875">
        <ele>1336</ele>
        <time>2020-08-11T10:33:28.000Z</time>
      </trkpt>
      <trkpt lat="42.25432522594928741455078125" lon="1.61398507654666900634765625">
        <ele>1335.5999755859375</ele>
        <time>2020-08-11T10:33:29.000Z</time>
      </trkpt>
      <trkpt lat="42.2543217055499553680419921875" lon="1.613891534507274627685546875">
        <ele>1335.199951171875</ele>
        <time>2020-08-11T10:33:30.000Z</time>
      </trkpt>
      <trkpt lat="42.2543143294751644134521484375" lon="1.6137979924678802490234375">
        <ele>1335</ele>
        <time>2020-08-11T10:33:31.000Z</time>
      </trkpt>
      <trkpt lat="42.254302762448787689208984375" lon="1.61370369605720043182373046875">
        <ele>1334.5999755859375</ele>
        <time>2020-08-11T10:33:32.000Z</time>
      </trkpt>
      <trkpt lat="42.25425993092358112335205078125" lon="1.61352549679577350616455078125">
        <ele>1334.199951171875</ele>
        <time>2020-08-11T10:33:34.000Z</time>
      </trkpt>
      <trkpt lat="42.2541805543005466461181640625" lon="1.61336816847324371337890625">
        <ele>1333.800048828125</ele>
        <time>2020-08-11T10:33:36.000Z</time>
      </trkpt>
      <trkpt lat="42.25412665866315364837646484375" lon="1.61331125535070896148681640625">
        <ele>1333.5999755859375</ele>
        <time>2020-08-11T10:33:37.000Z</time>
      </trkpt>
      <trkpt lat="42.2539297677576541900634765625" lon="1.61320396699011325836181640625">
        <ele>1333</ele>
        <time>2020-08-11T10:33:40.000Z</time>
      </trkpt>
      <trkpt lat="42.25385986268520355224609375" lon="1.613179408013820648193359375">
        <ele>1333.199951171875</ele>
        <time>2020-08-11T10:33:41.000Z</time>
      </trkpt>
      <trkpt lat="42.253791131079196929931640625" lon="1.61316172219812870025634765625">
        <ele>1333</ele>
        <time>2020-08-11T10:33:42.000Z</time>
      </trkpt>
      <trkpt lat="42.2537212260067462921142578125" lon="1.61315401084721088409423828125">
        <ele>1332.800048828125</ele>
        <time>2020-08-11T10:33:43.000Z</time>
      </trkpt>
      <trkpt lat="42.2535789012908935546875" lon="1.6131891310214996337890625">
        <ele>1332.4000244140625</ele>
        <time>2020-08-11T10:33:45.000Z</time>
      </trkpt>
      <trkpt lat="42.25345577113330364227294921875" lon="1.6132731176912784576416015625">
        <ele>1332.199951171875</ele>
        <time>2020-08-11T10:33:47.000Z</time>
      </trkpt>
      <trkpt lat="42.25332476198673248291015625" lon="1.613348387181758880615234375">
        <ele>1332</ele>
        <time>2020-08-11T10:33:49.000Z</time>
      </trkpt>
      <trkpt lat="42.25325460545718669891357421875" lon="1.61336624063551425933837890625">
        <ele>1331.800048828125</ele>
        <time>2020-08-11T10:33:50.000Z</time>
      </trkpt>
      <trkpt lat="42.25303080864250659942626953125" lon="1.6133187152445316314697265625">
        <ele>1330.800048828125</ele>
        <time>2020-08-11T10:33:53.000Z</time>
      </trkpt>
      <trkpt lat="42.25295218639075756072998046875" lon="1.61327923648059368133544921875">
        <ele>1330.4000244140625</ele>
        <time>2020-08-11T10:33:54.000Z</time>
      </trkpt>
      <trkpt lat="42.25287205539643764495849609375" lon="1.613235734403133392333984375">
        <ele>1329.4000244140625</ele>
        <time>2020-08-11T10:33:55.000Z</time>
      </trkpt>
      <trkpt lat="42.25271858274936676025390625" lon="1.6131406836211681365966796875">
        <ele>1327.5999755859375</ele>
        <time>2020-08-11T10:33:57.000Z</time>
      </trkpt>
      <trkpt lat="42.25265328772366046905517578125" lon="1.61308209411799907684326171875">
        <ele>1327</ele>
        <time>2020-08-11T10:33:58.000Z</time>
      </trkpt>
      <trkpt lat="42.25260056555271148681640625" lon="1.61300950683653354644775390625">
        <ele>1326.4000244140625</ele>
        <time>2020-08-11T10:33:59.000Z</time>
      </trkpt>
      <trkpt lat="42.252536527812480926513671875" lon="1.61281353794038295745849609375">
        <ele>1325</ele>
        <time>2020-08-11T10:34:01.000Z</time>
      </trkpt>
      <trkpt lat="42.2525180876255035400390625" lon="1.612698622047901153564453125">
        <ele>1324.199951171875</ele>
        <time>2020-08-11T10:34:02.000Z</time>
      </trkpt>
      <trkpt lat="42.25249855779111385345458984375" lon="1.6125794313848018646240234375">
        <ele>1323.199951171875</ele>
        <time>2020-08-11T10:34:03.000Z</time>
      </trkpt>
      <trkpt lat="42.25244365632534027099609375" lon="1.61233124323189258575439453125">
        <ele>1321.4000244140625</ele>
        <time>2020-08-11T10:34:05.000Z</time>
      </trkpt>
      <trkpt lat="42.25236796773970127105712890625" lon="1.61207509227097034454345703125">
        <ele>1319.800048828125</ele>
        <time>2020-08-11T10:34:07.000Z</time>
      </trkpt>
      <trkpt lat="42.25227023474872112274169921875" lon="1.6118193604052066802978515625">
        <ele>1318.4000244140625</ele>
        <time>2020-08-11T10:34:09.000Z</time>
      </trkpt>
      <trkpt lat="42.25221566855907440185546875" lon="1.611695475876331329345703125">
        <ele>1317.5999755859375</ele>
        <time>2020-08-11T10:34:10.000Z</time>
      </trkpt>
      <trkpt lat="42.252161018550395965576171875" lon="1.61157486028969287872314453125">
        <ele>1316.800048828125</ele>
        <time>2020-08-11T10:34:11.000Z</time>
      </trkpt>
      <trkpt lat="42.25210812874138355255126953125" lon="1.61145650781691074371337890625">
        <ele>1315.800048828125</ele>
        <time>2020-08-11T10:34:12.000Z</time>
      </trkpt>
      <trkpt lat="42.25206010043621063232421875" lon="1.61133681423962116241455078125">
        <ele>1314.800048828125</ele>
        <time>2020-08-11T10:34:13.000Z</time>
      </trkpt>
      <trkpt lat="42.2520180232822895050048828125" lon="1.6112121753394603729248046875">
        <ele>1313.800048828125</ele>
        <time>2020-08-11T10:34:14.000Z</time>
      </trkpt>
      <trkpt lat="42.25197963416576385498046875" lon="1.611083261668682098388671875">
        <ele>1312.800048828125</ele>
        <time>2020-08-11T10:34:15.000Z</time>
      </trkpt>
      <trkpt lat="42.25194417871534824371337890625" lon="1.61095149815082550048828125">
        <ele>1311.800048828125</ele>
        <time>2020-08-11T10:34:16.000Z</time>
      </trkpt>
      <trkpt lat="42.25188978016376495361328125" lon="1.61067816428840160369873046875">
        <ele>1310</ele>
        <time>2020-08-11T10:34:18.000Z</time>
      </trkpt>
      <trkpt lat="42.2518453560769557952880859375" lon="1.61040307022631168365478515625">
        <ele>1308.800048828125</ele>
        <time>2020-08-11T10:34:20.000Z</time>
      </trkpt>
      <trkpt lat="42.2517938911914825439453125" lon="1.6101285628974437713623046875">
        <ele>1307.4000244140625</ele>
        <time>2020-08-11T10:34:22.000Z</time>
      </trkpt>
      <trkpt lat="42.25173479877412319183349609375" lon="1.6098610125482082366943359375">
        <ele>1305.800048828125</ele>
        <time>2020-08-11T10:34:24.000Z</time>
      </trkpt>
      <trkpt lat="42.25169003941118717193603515625" lon="1.60961600951850414276123046875">
        <ele>1304</ele>
        <time>2020-08-11T10:34:26.000Z</time>
      </trkpt>
      <trkpt lat="42.25169423036277294158935546875" lon="1.60940042696893215179443359375">
        <ele>1302.4000244140625</ele>
        <time>2020-08-11T10:34:28.000Z</time>
      </trkpt>
      <trkpt lat="42.25172356702387332916259765625" lon="1.609303615987300872802734375">
        <ele>1301.4000244140625</ele>
        <time>2020-08-11T10:34:29.000Z</time>
      </trkpt>
      <trkpt lat="42.25176480598747730255126953125" lon="1.60921032540500164031982421875">
        <ele>1300.5999755859375</ele>
        <time>2020-08-11T10:34:30.000Z</time>
      </trkpt>
      <trkpt lat="42.25182616151869297027587890625" lon="1.60901754163205623626708984375">
        <ele>1299.199951171875</ele>
        <time>2020-08-11T10:34:32.000Z</time>
      </trkpt>
      <trkpt lat="42.25182398222386837005615234375" lon="1.60891746170818805694580078125">
        <ele>1298.4000244140625</ele>
        <time>2020-08-11T10:34:33.000Z</time>
      </trkpt>
      <trkpt lat="42.25179456174373626708984375" lon="1.60882450640201568603515625">
        <ele>1297.800048828125</ele>
        <time>2020-08-11T10:34:34.000Z</time>
      </trkpt>
      <trkpt lat="42.25174267776310443878173828125" lon="1.6087452135980129241943359375">
        <ele>1297.199951171875</ele>
        <time>2020-08-11T10:34:35.000Z</time>
      </trkpt>
      <trkpt lat="42.251680232584476470947265625" lon="1.608672626316547393798828125">
        <ele>1296.4000244140625</ele>
        <time>2020-08-11T10:34:36.000Z</time>
      </trkpt>
      <trkpt lat="42.25162114016711711883544921875" lon="1.60859425552189350128173828125">
        <ele>1295.5999755859375</ele>
        <time>2020-08-11T10:34:37.000Z</time>
      </trkpt>
      <trkpt lat="42.2515764646232128143310546875" lon="1.608502306044101715087890625">
        <ele>1294.800048828125</ele>
        <time>2020-08-11T10:34:38.000Z</time>
      </trkpt>
      <trkpt lat="42.2515355609357357025146484375" lon="1.608163006603717803955078125">
        <ele>1293.4000244140625</ele>
        <time>2020-08-11T10:34:41.000Z</time>
      </trkpt>
      <trkpt lat="42.25153396837413311004638671875" lon="1.60791716538369655609130859375">
        <ele>1291.800048828125</ele>
        <time>2020-08-11T10:34:43.000Z</time>
      </trkpt>
      <trkpt lat="42.251527011394500732421875" lon="1.6076589189469814300537109375">
        <ele>1290.5999755859375</ele>
        <time>2020-08-11T10:34:45.000Z</time>
      </trkpt>
      <trkpt lat="42.2514993511140346527099609375" lon="1.6073940508067607879638671875">
        <ele>1289.199951171875</ele>
        <time>2020-08-11T10:34:47.000Z</time>
      </trkpt>
      <trkpt lat="42.25143849849700927734375" lon="1.6071308590471744537353515625">
        <ele>1287.800048828125</ele>
        <time>2020-08-11T10:34:49.000Z</time>
      </trkpt>
      <trkpt lat="42.25135694257915019989013671875" lon="1.60686573944985866546630859375">
        <ele>1286</ele>
        <time>2020-08-11T10:34:51.000Z</time>
      </trkpt>
      <trkpt lat="42.25126348435878753662109375" lon="1.60660388879477977752685546875">
        <ele>1284.5999755859375</ele>
        <time>2020-08-11T10:34:53.000Z</time>
      </trkpt>
      <trkpt lat="42.2511769831180572509765625" lon="1.60633767955005168914794921875">
        <ele>1283.4000244140625</ele>
        <time>2020-08-11T10:34:55.000Z</time>
      </trkpt>
      <trkpt lat="42.25111688487231731414794921875" lon="1.606061160564422607421875">
        <ele>1281.800048828125</ele>
        <time>2020-08-11T10:34:57.000Z</time>
      </trkpt>
      <trkpt lat="42.25105133838951587677001953125" lon="1.605789922177791595458984375">
        <ele>1280</ele>
        <time>2020-08-11T10:34:59.000Z</time>
      </trkpt>
      <trkpt lat="42.25096802227199077606201171875" lon="1.60555313341319561004638671875">
        <ele>1279</ele>
        <time>2020-08-11T10:35:01.000Z</time>
      </trkpt>
      <trkpt lat="42.25091890431940555572509765625" lon="1.6054507903754711151123046875">
        <ele>1278.5999755859375</ele>
        <time>2020-08-11T10:35:02.000Z</time>
      </trkpt>
      <trkpt lat="42.25086475722491741180419921875" lon="1.6053663007915019989013671875">
        <ele>1278</ele>
        <time>2020-08-11T10:35:03.000Z</time>
      </trkpt>
      <trkpt lat="42.25080507807433605194091796875" lon="1.60530117340385913848876953125">
        <ele>1277.4000244140625</ele>
        <time>2020-08-11T10:35:04.000Z</time>
      </trkpt>
      <trkpt lat="42.2507392801344394683837890625" lon="1.60525322891771793365478515625">
        <ele>1276.800048828125</ele>
        <time>2020-08-11T10:35:05.000Z</time>
      </trkpt>
      <trkpt lat="42.250587902963161468505859375" lon="1.6052036918699741363525390625">
        <ele>1276</ele>
        <time>2020-08-11T10:35:07.000Z</time>
      </trkpt>
      <trkpt lat="42.25050986744463443756103515625" lon="1.6051845811307430267333984375">
        <ele>1275.5999755859375</ele>
        <time>2020-08-11T10:35:08.000Z</time>
      </trkpt>
      <trkpt lat="42.25030191242694854736328125" lon="1.6050417535006999969482421875">
        <ele>1274.199951171875</ele>
        <time>2020-08-11T10:35:11.000Z</time>
      </trkpt>
      <trkpt lat="42.25019135512411594390869140625" lon="1.6048774681985378265380859375">
        <ele>1273</ele>
        <time>2020-08-11T10:35:13.000Z</time>
      </trkpt>
      <trkpt lat="42.25014156661927700042724609375" lon="1.6047832556068897247314453125">
        <ele>1272.199951171875</ele>
        <time>2020-08-11T10:35:14.000Z</time>
      </trkpt>
      <trkpt lat="42.25009177811443805694580078125" lon="1.6046870313584804534912109375">
        <ele>1271.5999755859375</ele>
        <time>2020-08-11T10:35:15.000Z</time>
      </trkpt>
      <trkpt lat="42.2499802149832248687744140625" lon="1.60451210103929042816162109375">
        <ele>1270</ele>
        <time>2020-08-11T10:35:17.000Z</time>
      </trkpt>
      <trkpt lat="42.24984250031411647796630859375" lon="1.60437916405498981475830078125">
        <ele>1269</ele>
        <time>2020-08-11T10:35:19.000Z</time>
      </trkpt>
      <trkpt lat="42.2496902011334896087646484375" lon="1.60426600836217403411865234375">
        <ele>1267.199951171875</ele>
        <time>2020-08-11T10:35:21.000Z</time>
      </trkpt>
      <trkpt lat="42.24961400963366031646728515625" lon="1.60420649684965610504150390625">
        <ele>1266.199951171875</ele>
        <time>2020-08-11T10:35:22.000Z</time>
      </trkpt>
      <trkpt lat="42.24947436712682247161865234375" lon="1.60406584851443767547607421875">
        <ele>1265</ele>
        <time>2020-08-11T10:35:24.000Z</time>
      </trkpt>
      <trkpt lat="42.24929474294185638427734375" lon="1.60382352769374847412109375">
        <ele>1263.5999755859375</ele>
        <time>2020-08-11T10:35:27.000Z</time>
      </trkpt>
      <trkpt lat="42.2491949982941150665283203125" lon="1.60364440642297267913818359375">
        <ele>1262.199951171875</ele>
        <time>2020-08-11T10:35:29.000Z</time>
      </trkpt>
      <trkpt lat="42.2490746341645717620849609375" lon="1.6033512912690639495849609375">
        <ele>1261.199951171875</ele>
        <time>2020-08-11T10:35:32.000Z</time>
      </trkpt>
      <trkpt lat="42.24901973269879817962646484375" lon="1.6031618602573871612548828125">
        <ele>1260.199951171875</ele>
        <time>2020-08-11T10:35:34.000Z</time>
      </trkpt>
      <trkpt lat="42.2489579580724239349365234375" lon="1.60289841704070568084716796875">
        <ele>1259</ele>
        <time>2020-08-11T10:35:37.000Z</time>
      </trkpt>
      <trkpt lat="42.24890205077826976776123046875" lon="1.60273530520498752593994140625">
        <ele>1257.800048828125</ele>
        <time>2020-08-11T10:35:39.000Z</time>
      </trkpt>
      <trkpt lat="42.2488702833652496337890625" lon="1.60266238264739513397216796875">
        <ele>1257.199951171875</ele>
        <time>2020-08-11T10:35:40.000Z</time>
      </trkpt>
      <trkpt lat="42.24880917929112911224365234375" lon="1.60251326858997344970703125">
        <ele>1256.800048828125</ele>
        <time>2020-08-11T10:35:42.000Z</time>
      </trkpt>
      <trkpt lat="42.248711697757244110107421875" lon="1.6022643260657787322998046875">
        <ele>1255.5999755859375</ele>
        <time>2020-08-11T10:35:45.000Z</time>
      </trkpt>
      <trkpt lat="42.2486401163041591644287109375" lon="1.60206860862672328948974609375">
        <ele>1255</ele>
        <time>2020-08-11T10:35:47.000Z</time>
      </trkpt>
      <trkpt lat="42.24860139191150665283203125" lon="1.60196299664676189422607421875">
        <ele>1254.4000244140625</ele>
        <time>2020-08-11T10:35:48.000Z</time>
      </trkpt>
      <trkpt lat="42.24855688400566577911376953125" lon="1.60185118205845355987548828125">
        <ele>1253.800048828125</ele>
        <time>2020-08-11T10:35:49.000Z</time>
      </trkpt>
      <trkpt lat="42.24849955178797245025634765625" lon="1.60173970274627208709716796875">
        <ele>1253</ele>
        <time>2020-08-11T10:35:50.000Z</time>
      </trkpt>
      <trkpt lat="42.24843534640967845916748046875" lon="1.6016309894621372222900390625">
        <ele>1252.199951171875</ele>
        <time>2020-08-11T10:35:51.000Z</time>
      </trkpt>
      <trkpt lat="42.24836510606110095977783203125" lon="1.60152311436831951141357421875">
        <ele>1251.4000244140625</ele>
        <time>2020-08-11T10:35:52.000Z</time>
      </trkpt>
      <trkpt lat="42.24821205250918865203857421875" lon="1.6013064421713352203369140625">
        <ele>1249.4000244140625</ele>
        <time>2020-08-11T10:35:54.000Z</time>
      </trkpt>
      <trkpt lat="42.24804441444575786590576171875" lon="1.60108943469822406768798828125">
        <ele>1248</ele>
        <time>2020-08-11T10:35:56.000Z</time>
      </trkpt>
      <trkpt lat="42.24787409417331218719482421875" lon="1.60086999647319316864013671875">
        <ele>1246.199951171875</ele>
        <time>2020-08-11T10:35:58.000Z</time>
      </trkpt>
      <trkpt lat="42.24771492183208465576171875" lon="1.60065424628555774688720703125">
        <ele>1244.800048828125</ele>
        <time>2020-08-11T10:36:00.000Z</time>
      </trkpt>
      <trkpt lat="42.24764258600771427154541015625" lon="1.6005510650575160980224609375">
        <ele>1244</ele>
        <time>2020-08-11T10:36:01.000Z</time>
      </trkpt>
      <trkpt lat="42.24757234565913677215576171875" lon="1.600454337894916534423828125">
        <ele>1243.199951171875</ele>
        <time>2020-08-11T10:36:02.000Z</time>
      </trkpt>
      <trkpt lat="42.247506715357303619384765625" lon="1.60036138258874416351318359375">
        <ele>1242</ele>
        <time>2020-08-11T10:36:03.000Z</time>
      </trkpt>
      <trkpt lat="42.247382663190364837646484375" lon="1.60017438232898712158203125">
        <ele>1240.5999755859375</ele>
        <time>2020-08-11T10:36:05.000Z</time>
      </trkpt>
      <trkpt lat="42.247324995696544647216796875" lon="1.60007958300411701202392578125">
        <ele>1239.5999755859375</ele>
        <time>2020-08-11T10:36:06.000Z</time>
      </trkpt>
      <trkpt lat="42.2472778894007205963134765625" lon="1.59997187554836273193359375">
        <ele>1238.800048828125</ele>
        <time>2020-08-11T10:36:07.000Z</time>
      </trkpt>
      <trkpt lat="42.24720655940473079681396484375" lon="1.59973994828760623931884765625">
        <ele>1237.4000244140625</ele>
        <time>2020-08-11T10:36:09.000Z</time>
      </trkpt>
      <trkpt lat="42.24713816307485103607177734375" lon="1.59937600605189800262451171875">
        <ele>1236.199951171875</ele>
        <time>2020-08-11T10:36:12.000Z</time>
      </trkpt>
      <trkpt lat="42.24712844006717205047607421875" lon="1.5992572344839572906494140625">
        <ele>1235.800048828125</ele>
        <time>2020-08-11T10:36:13.000Z</time>
      </trkpt>
      <trkpt lat="42.24710748530924320220947265625" lon="1.59902815707027912139892578125">
        <ele>1235.199951171875</ele>
        <time>2020-08-11T10:36:15.000Z</time>
      </trkpt>
      <trkpt lat="42.2470499016344547271728515625" lon="1.59882548265159130096435546875">
        <ele>1235</ele>
        <time>2020-08-11T10:36:17.000Z</time>
      </trkpt>
      <trkpt lat="42.24689458496868610382080078125" lon="1.5986138395965099334716796875">
        <ele>1235</ele>
        <time>2020-08-11T10:36:20.000Z</time>
      </trkpt>
      <trkpt lat="42.246844880282878875732421875" lon="1.59854368306696414947509765625">
        <ele>1234.800048828125</ele>
        <time>2020-08-11T10:36:21.000Z</time>
      </trkpt>
      <trkpt lat="42.2467218339443206787109375" lon="1.59831586293876171112060546875">
        <ele>1234.800048828125</ele>
        <time>2020-08-11T10:36:24.000Z</time>
      </trkpt>
      <trkpt lat="42.24669408984482288360595703125" lon="1.59823455847799777984619140625">
        <ele>1234.800048828125</ele>
        <time>2020-08-11T10:36:25.000Z</time>
      </trkpt>
      <trkpt lat="42.24664564244449138641357421875" lon="1.5979944169521331787109375">
        <ele>1234.5999755859375</ele>
        <time>2020-08-11T10:36:28.000Z</time>
      </trkpt>
      <trkpt lat="42.24664581008255481719970703125" lon="1.59791470505297183990478515625">
        <ele>1234.4000244140625</ele>
        <time>2020-08-11T10:36:29.000Z</time>
      </trkpt>
      <trkpt lat="42.24664765410125255584716796875" lon="1.5977608971297740936279296875">
        <ele>1234.199951171875</ele>
        <time>2020-08-11T10:36:31.000Z</time>
      </trkpt>
      <trkpt lat="42.2466264478862285614013671875" lon="1.59746157936751842498779296875">
        <ele>1234</ele>
        <time>2020-08-11T10:36:35.000Z</time>
      </trkpt>
      <trkpt lat="42.2465952672064304351806640625" lon="1.597247086465358734130859375">
        <ele>1233.800048828125</ele>
        <time>2020-08-11T10:36:38.000Z</time>
      </trkpt>
      <trkpt lat="42.24653114564716815948486328125" lon="1.5970487706363201141357421875">
        <ele>1234</ele>
        <time>2020-08-11T10:36:41.000Z</time>
      </trkpt>
      <trkpt lat="42.24635596387088298797607421875" lon="1.59661450423300266265869140625">
        <ele>1233.199951171875</ele>
        <time>2020-08-11T10:36:48.000Z</time>
      </trkpt>
      <trkpt lat="42.246333919465541839599609375" lon="1.5965539030730724334716796875">
        <ele>1233</ele>
        <time>2020-08-11T10:36:49.000Z</time>
      </trkpt>
      <trkpt lat="42.24631573073565959930419921875" lon="1.5964923799037933349609375">
        <ele>1232.800048828125</ele>
        <time>2020-08-11T10:36:50.000Z</time>
      </trkpt>
      <trkpt lat="42.2462988831102848052978515625" lon="1.59629750065505504608154296875">
        <ele>1232.800048828125</ele>
        <time>2020-08-11T10:36:53.000Z</time>
      </trkpt>
      <trkpt lat="42.2463141381740570068359375" lon="1.59616657532751560211181640625">
        <ele>1232.199951171875</ele>
        <time>2020-08-11T10:36:55.000Z</time>
      </trkpt>
      <trkpt lat="42.24636283703148365020751953125" lon="1.59597965888679027557373046875">
        <ele>1231.800048828125</ele>
        <time>2020-08-11T10:36:58.000Z</time>
      </trkpt>
      <trkpt lat="42.24638261832296848297119140625" lon="1.59591830335557460784912109375">
        <ele>1231.5999755859375</ele>
        <time>2020-08-11T10:36:59.000Z</time>
      </trkpt>
      <trkpt lat="42.24645294249057769775390625" lon="1.5957344882190227508544921875">
        <ele>1231.4000244140625</ele>
        <time>2020-08-11T10:37:02.000Z</time>
      </trkpt>
      <trkpt lat="42.2465634159743785858154296875" lon="1.59546710550785064697265625">
        <ele>1230.4000244140625</ele>
        <time>2020-08-11T10:37:06.000Z</time>
      </trkpt>
      <trkpt lat="42.2465935908257961273193359375" lon="1.5953918360173702239990234375">
        <ele>1230.199951171875</ele>
        <time>2020-08-11T10:37:07.000Z</time>
      </trkpt>
      <trkpt lat="42.2466951794922351837158203125" lon="1.5951427258551120758056640625">
        <ele>1229</ele>
        <time>2020-08-11T10:37:10.000Z</time>
      </trkpt>
      <trkpt lat="42.24677187390625476837158203125" lon="1.5949569828808307647705078125">
        <ele>1228.4000244140625</ele>
        <time>2020-08-11T10:37:12.000Z</time>
      </trkpt>
      <trkpt lat="42.24685468710958957672119140625" lon="1.59475824795663356781005859375">
        <ele>1227.4000244140625</ele>
        <time>2020-08-11T10:37:14.000Z</time>
      </trkpt>
      <trkpt lat="42.246935404837131500244140625" lon="1.59455020911991596221923828125">
        <ele>1226.4000244140625</ele>
        <time>2020-08-11T10:37:16.000Z</time>
      </trkpt>
      <trkpt lat="42.24696398712694644927978515625" lon="1.5944393165409564971923828125">
        <ele>1226</ele>
        <time>2020-08-11T10:37:17.000Z</time>
      </trkpt>
      <trkpt lat="42.24697639234364032745361328125" lon="1.59432507120072841644287109375">
        <ele>1225.5999755859375</ele>
        <time>2020-08-11T10:37:18.000Z</time>
      </trkpt>
      <trkpt lat="42.24696801044046878814697265625" lon="1.59421292133629322052001953125">
        <ele>1225.199951171875</ele>
        <time>2020-08-11T10:37:19.000Z</time>
      </trkpt>
      <trkpt lat="42.24693708121776580810546875" lon="1.59411384724080562591552734375">
        <ele>1225</ele>
        <time>2020-08-11T10:37:20.000Z</time>
      </trkpt>
      <trkpt lat="42.2467632405459880828857421875" lon="1.5939226560294628143310546875">
        <ele>1225</ele>
        <time>2020-08-11T10:37:23.000Z</time>
      </trkpt>
      <trkpt lat="42.24669693969190120697021484375" lon="1.5938767232000827789306640625">
        <ele>1225</ele>
        <time>2020-08-11T10:37:24.000Z</time>
      </trkpt>
      <trkpt lat="42.24642477929592132568359375" lon="1.5936752222478389739990234375">
        <ele>1224.199951171875</ele>
        <time>2020-08-11T10:37:28.000Z</time>
      </trkpt>
      <trkpt lat="42.24634674377739429473876953125" lon="1.59363389946520328521728515625">
        <ele>1223.800048828125</ele>
        <time>2020-08-11T10:37:29.000Z</time>
      </trkpt>
      <trkpt lat="42.246269546449184417724609375" lon="1.59359090030193328857421875">
        <ele>1223</ele>
        <time>2020-08-11T10:37:30.000Z</time>
      </trkpt>
      <trkpt lat="42.24614574573934078216552734375" lon="1.593465842306613922119140625">
        <ele>1222</ele>
        <time>2020-08-11T10:37:32.000Z</time>
      </trkpt>
      <trkpt lat="42.246085815131664276123046875" lon="1.59327548928558826446533203125">
        <ele>1220.800048828125</ele>
        <time>2020-08-11T10:37:34.000Z</time>
      </trkpt>
      <trkpt lat="42.24606930278241634368896484375" lon="1.59316887147724628448486328125">
        <ele>1220.199951171875</ele>
        <time>2020-08-11T10:37:35.000Z</time>
      </trkpt>
      <trkpt lat="42.2460521198809146881103515625" lon="1.593057475984096527099609375">
        <ele>1219.5999755859375</ele>
        <time>2020-08-11T10:37:36.000Z</time>
      </trkpt>
      <trkpt lat="42.24601783789694309234619140625" lon="1.5928263030946254730224609375">
        <ele>1218.4000244140625</ele>
        <time>2020-08-11T10:37:38.000Z</time>
      </trkpt>
      <trkpt lat="42.24600660614669322967529296875" lon="1.5925991535186767578125">
        <ele>1217.199951171875</ele>
        <time>2020-08-11T10:37:40.000Z</time>
      </trkpt>
      <trkpt lat="42.24605823867022991180419921875" lon="1.59238885156810283660888671875">
        <ele>1216</ele>
        <time>2020-08-11T10:37:42.000Z</time>
      </trkpt>
      <trkpt lat="42.246104590594768524169921875" lon="1.5922888554632663726806640625">
        <ele>1215.5999755859375</ele>
        <time>2020-08-11T10:37:43.000Z</time>
      </trkpt>
      <trkpt lat="42.246159575879573822021484375" lon="1.59218902699649333953857421875">
        <ele>1215</ele>
        <time>2020-08-11T10:37:44.000Z</time>
      </trkpt>
      <trkpt lat="42.246219255030155181884765625" lon="1.59208978526294231414794921875">
        <ele>1214.5999755859375</ele>
        <time>2020-08-11T10:37:45.000Z</time>
      </trkpt>
      <trkpt lat="42.246280610561370849609375" lon="1.59199339337646961212158203125">
        <ele>1213.800048828125</ele>
        <time>2020-08-11T10:37:46.000Z</time>
      </trkpt>
      <trkpt lat="42.24633500911295413970947265625" lon="1.59189817495644092559814453125">
        <ele>1213.199951171875</ele>
        <time>2020-08-11T10:37:47.000Z</time>
      </trkpt>
      <trkpt lat="42.24637423641979694366455078125" lon="1.5918013639748096466064453125">
        <ele>1212.800048828125</ele>
        <time>2020-08-11T10:37:48.000Z</time>
      </trkpt>
      <trkpt lat="42.24638965912163257598876953125" lon="1.5917041338980197906494140625">
        <ele>1212</ele>
        <time>2020-08-11T10:37:49.000Z</time>
      </trkpt>
      <trkpt lat="42.2463796846568584442138671875" lon="1.59161469899117946624755859375">
        <ele>1211.5999755859375</ele>
        <time>2020-08-11T10:37:50.000Z</time>
      </trkpt>
      <trkpt lat="42.2462951950728893280029296875" lon="1.59149802289903163909912109375">
        <ele>1211</ele>
        <time>2020-08-11T10:37:52.000Z</time>
      </trkpt>
      <trkpt lat="42.24611305631697177886962890625" lon="1.59150757826864719390869140625">
        <ele>1210.5999755859375</ele>
        <time>2020-08-11T10:37:55.000Z</time>
      </trkpt>
      <trkpt lat="42.245841063559055328369140625" lon="1.591572873294353485107421875">
        <ele>1210.4000244140625</ele>
        <time>2020-08-11T10:38:00.000Z</time>
      </trkpt>
      <trkpt lat="42.24579353816807270050048828125" lon="1.59156993962824344635009765625">
        <ele>1210.5999755859375</ele>
        <time>2020-08-11T10:38:01.000Z</time>
      </trkpt>
      <trkpt lat="42.2455874271690845489501953125" lon="1.5914605557918548583984375">
        <ele>1210.4000244140625</ele>
        <time>2020-08-11T10:38:06.000Z</time>
      </trkpt>
      <trkpt lat="42.24546991288661956787109375" lon="1.59138838760554790496826171875">
        <ele>1210.199951171875</ele>
        <time>2020-08-11T10:38:09.000Z</time>
      </trkpt>
      <trkpt lat="42.245395481586456298828125" lon="1.59135259687900543212890625">
        <ele>1210.199951171875</ele>
        <time>2020-08-11T10:38:11.000Z</time>
      </trkpt>
      <trkpt lat="42.24523245356976985931396484375" lon="1.59115034155547618865966796875">
        <ele>1210.4000244140625</ele>
        <time>2020-08-11T10:38:17.000Z</time>
      </trkpt>
      <trkpt lat="42.24522574804723262786865234375" lon="1.591098122298717498779296875">
        <ele>1210.4000244140625</ele>
        <time>2020-08-11T10:38:18.000Z</time>
      </trkpt>
      <trkpt lat="42.24524536170065402984619140625" lon="1.59093442372977733612060546875">
        <ele>1210.4000244140625</ele>
        <time>2020-08-11T10:38:21.000Z</time>
      </trkpt>
      <trkpt lat="42.2452575154602527618408203125" lon="1.5908796899020671844482421875">
        <ele>1210.4000244140625</ele>
        <time>2020-08-11T10:38:22.000Z</time>
      </trkpt>
      <trkpt lat="42.2452759556472301483154296875" lon="1.59076577983796596527099609375">
        <ele>1210.4000244140625</ele>
        <time>2020-08-11T10:38:24.000Z</time>
      </trkpt>
      <trkpt lat="42.2452598623931407928466796875" lon="1.59059294499456882476806640625">
        <ele>1210.4000244140625</ele>
        <time>2020-08-11T10:38:27.000Z</time>
      </trkpt>
      <trkpt lat="42.24513723514974117279052734375" lon="1.59036160446703433990478515625">
        <ele>1210.800048828125</ele>
        <time>2020-08-11T10:38:32.000Z</time>
      </trkpt>
      <trkpt lat="42.24508040584623813629150390625" lon="1.590272001922130584716796875">
        <ele>1210.5999755859375</ele>
        <time>2020-08-11T10:38:34.000Z</time>
      </trkpt>
      <trkpt lat="42.24500848911702632904052734375" lon="1.59011517651379108428955078125">
        <ele>1210.4000244140625</ele>
        <time>2020-08-11T10:38:37.000Z</time>
      </trkpt>
      <trkpt lat="42.24498434923589229583740234375" lon="1.59005708992481231689453125">
        <ele>1210.4000244140625</ele>
        <time>2020-08-11T10:38:38.000Z</time>
      </trkpt>
      <trkpt lat="42.24485510028898715972900390625" lon="1.58965383656322956085205078125">
        <ele>1209.5999755859375</ele>
        <time>2020-08-11T10:38:44.000Z</time>
      </trkpt>
      <trkpt lat="42.24483330734074115753173828125" lon="1.5895815007388591766357421875">
        <ele>1209.199951171875</ele>
        <time>2020-08-11T10:38:45.000Z</time>
      </trkpt>
      <trkpt lat="42.2447450459003448486328125" lon="1.58918671309947967529296875">
        <ele>1208.800048828125</ele>
        <time>2020-08-11T10:38:51.000Z</time>
      </trkpt>
      <trkpt lat="42.2446328960359096527099609375" lon="1.58885051496326923370361328125">
        <ele>1208.4000244140625</ele>
        <time>2020-08-11T10:38:57.000Z</time>
      </trkpt>
      <trkpt lat="42.24460314027965068817138671875" lon="1.58878664486110210418701171875">
        <ele>1208</ele>
        <time>2020-08-11T10:38:58.000Z</time>
      </trkpt>
      <trkpt lat="42.24451412446796894073486328125" lon="1.5885693021118640899658203125">
        <ele>1207</ele>
        <time>2020-08-11T10:39:01.000Z</time>
      </trkpt>
      <trkpt lat="42.24449266679584980010986328125" lon="1.588482297956943511962890625">
        <ele>1206.5999755859375</ele>
        <time>2020-08-11T10:39:02.000Z</time>
      </trkpt>
      <trkpt lat="42.24447623826563358306884765625" lon="1.58819588832557201385498046875">
        <ele>1205.800048828125</ele>
        <time>2020-08-11T10:39:05.000Z</time>
      </trkpt>
      <trkpt lat="42.24447104148566722869873046875" lon="1.58809731714427471160888671875">
        <ele>1205.4000244140625</ele>
        <time>2020-08-11T10:39:06.000Z</time>
      </trkpt>
      <trkpt lat="42.2444116137921810150146484375" lon="1.58791693858802318572998046875">
        <ele>1204.800048828125</ele>
        <time>2020-08-11T10:39:08.000Z</time>
      </trkpt>
      <trkpt lat="42.2443596459925174713134765625" lon="1.587846614420413970947265625">
        <ele>1204.5999755859375</ele>
        <time>2020-08-11T10:39:09.000Z</time>
      </trkpt>
      <trkpt lat="42.24430046975612640380859375" lon="1.58778333105146884918212890625">
        <ele>1204.5999755859375</ele>
        <time>2020-08-11T10:39:10.000Z</time>
      </trkpt>
      <trkpt lat="42.24424405954778194427490234375" lon="1.58771510235965251922607421875">
        <ele>1204</ele>
        <time>2020-08-11T10:39:11.000Z</time>
      </trkpt>
      <trkpt lat="42.2441977076232433319091796875" lon="1.5876338817179203033447265625">
        <ele>1203.800048828125</ele>
        <time>2020-08-11T10:39:12.000Z</time>
      </trkpt>
      <trkpt lat="42.24416543729603290557861328125" lon="1.58754243515431880950927734375">
        <ele>1203.4000244140625</ele>
        <time>2020-08-11T10:39:13.000Z</time>
      </trkpt>
      <trkpt lat="42.2441303171217441558837890625" lon="1.58734512515366077423095703125">
        <ele>1202.5999755859375</ele>
        <time>2020-08-11T10:39:15.000Z</time>
      </trkpt>
      <trkpt lat="42.24411967210471630096435546875" lon="1.58724487759172916412353515625">
        <ele>1202.4000244140625</ele>
        <time>2020-08-11T10:39:16.000Z</time>
      </trkpt>
      <trkpt lat="42.24410911090672016143798828125" lon="1.5871447138488292694091796875">
        <ele>1202.4000244140625</ele>
        <time>2020-08-11T10:39:17.000Z</time>
      </trkpt>
      <trkpt lat="42.24404557608067989349365234375" lon="1.58676803112030029296875">
        <ele>1201.5999755859375</ele>
        <time>2020-08-11T10:39:21.000Z</time>
      </trkpt>
      <trkpt lat="42.2440176643431186676025390625" lon="1.5866840444505214691162109375">
        <ele>1200.800048828125</ele>
        <time>2020-08-11T10:39:22.000Z</time>
      </trkpt>
      <trkpt lat="42.243986316025257110595703125" lon="1.58660181798040866851806640625">
        <ele>1200.4000244140625</ele>
        <time>2020-08-11T10:39:23.000Z</time>
      </trkpt>
      <trkpt lat="42.24393367767333984375" lon="1.5864288993179798126220703125">
        <ele>1200</ele>
        <time>2020-08-11T10:39:25.000Z</time>
      </trkpt>
      <trkpt lat="42.243910543620586395263671875" lon="1.58625782467424869537353515625">
        <ele>1199.5999755859375</ele>
        <time>2020-08-11T10:39:27.000Z</time>
      </trkpt>
      <trkpt lat="42.24395848810672760009765625" lon="1.58601039089262485504150390625">
        <ele>1198.800048828125</ele>
        <time>2020-08-11T10:39:30.000Z</time>
      </trkpt>
      <trkpt lat="42.24398874677717685699462890625" lon="1.585931517183780670166015625">
        <ele>1198.4000244140625</ele>
        <time>2020-08-11T10:39:31.000Z</time>
      </trkpt>
      <trkpt lat="42.24402244202792644500732421875" lon="1.5858532302081584930419921875">
        <ele>1198</ele>
        <time>2020-08-11T10:39:32.000Z</time>
      </trkpt>
      <trkpt lat="42.24415772594511508941650390625" lon="1.5855323709547519683837890625">
        <ele>1197.199951171875</ele>
        <time>2020-08-11T10:39:36.000Z</time>
      </trkpt>
      <trkpt lat="42.244188487529754638671875" lon="1.5854502283036708831787109375">
        <ele>1197</ele>
        <time>2020-08-11T10:39:37.000Z</time>
      </trkpt>
      <trkpt lat="42.24429485388100147247314453125" lon="1.5851196460425853729248046875">
        <ele>1196.4000244140625</ele>
        <time>2020-08-11T10:39:41.000Z</time>
      </trkpt>
      <trkpt lat="42.2443408705294132232666015625" lon="1.5848650038242340087890625">
        <ele>1195.5999755859375</ele>
        <time>2020-08-11T10:39:44.000Z</time>
      </trkpt>
      <trkpt lat="42.24434698931872844696044921875" lon="1.584776826202869415283203125">
        <ele>1195.4000244140625</ele>
        <time>2020-08-11T10:39:45.000Z</time>
      </trkpt>
      <trkpt lat="42.24433290772140026092529296875" lon="1.58432009629905223846435546875">
        <ele>1194</ele>
        <time>2020-08-11T10:39:50.000Z</time>
      </trkpt>
      <trkpt lat="42.24425311200320720672607421875" lon="1.5840514563024044036865234375">
        <ele>1193</ele>
        <time>2020-08-11T10:39:53.000Z</time>
      </trkpt>
      <trkpt lat="42.24421623162925243377685546875" lon="1.58396772108972072601318359375">
        <ele>1192.5999755859375</ele>
        <time>2020-08-11T10:39:54.000Z</time>
      </trkpt>
      <trkpt lat="42.24415470845997333526611328125" lon="1.58379681408405303955078125">
        <ele>1192.199951171875</ele>
        <time>2020-08-11T10:39:56.000Z</time>
      </trkpt>
      <trkpt lat="42.24413283169269561767578125" lon="1.5837051160633563995361328125">
        <ele>1191.800048828125</ele>
        <time>2020-08-11T10:39:57.000Z</time>
      </trkpt>
      <trkpt lat="42.24411363713443279266357421875" lon="1.5836085565388202667236328125">
        <ele>1191.5999755859375</ele>
        <time>2020-08-11T10:39:58.000Z</time>
      </trkpt>
      <trkpt lat="42.24404892884194850921630859375" lon="1.58332164399325847625732421875">
        <ele>1190.800048828125</ele>
        <time>2020-08-11T10:40:01.000Z</time>
      </trkpt>
      <trkpt lat="42.24397717975080013275146484375" lon="1.583039425313472747802734375">
        <ele>1189.5999755859375</ele>
        <time>2020-08-11T10:40:04.000Z</time>
      </trkpt>
      <trkpt lat="42.24392655305564403533935546875" lon="1.5826386027038097381591796875">
        <ele>1188.800048828125</ele>
        <time>2020-08-11T10:40:08.000Z</time>
      </trkpt>
      <trkpt lat="42.24390274845063686370849609375" lon="1.58253978006541728973388671875">
        <ele>1188.5999755859375</ele>
        <time>2020-08-11T10:40:09.000Z</time>
      </trkpt>
      <trkpt lat="42.24375723861157894134521484375" lon="1.58231045119464397430419921875">
        <ele>1187.4000244140625</ele>
        <time>2020-08-11T10:40:12.000Z</time>
      </trkpt>
      <trkpt lat="42.243617512285709381103515625" lon="1.5822151489555835723876953125">
        <ele>1187.4000244140625</ele>
        <time>2020-08-11T10:40:14.000Z</time>
      </trkpt>
      <trkpt lat="42.24355037324130535125732421875" lon="1.58216376788914203643798828125">
        <ele>1187.199951171875</ele>
        <time>2020-08-11T10:40:15.000Z</time>
      </trkpt>
      <trkpt lat="42.2434875927865505218505859375" lon="1.5821045078337192535400390625">
        <ele>1187</ele>
        <time>2020-08-11T10:40:16.000Z</time>
      </trkpt>
      <trkpt lat="42.24343067966401576995849609375" lon="1.5820361115038394927978515625">
        <ele>1186.5999755859375</ele>
        <time>2020-08-11T10:40:17.000Z</time>
      </trkpt>
      <trkpt lat="42.24334434606134891510009765625" lon="1.58186989836394786834716796875">
        <ele>1185.199951171875</ele>
        <time>2020-08-11T10:40:19.000Z</time>
      </trkpt>
      <trkpt lat="42.24335155449807643890380859375" lon="1.58157854340970516204833984375">
        <ele>1183.800048828125</ele>
        <time>2020-08-11T10:40:22.000Z</time>
      </trkpt>
      <trkpt lat="42.2433843277394771575927734375" lon="1.5814788825809955596923828125">
        <ele>1183.4000244140625</ele>
        <time>2020-08-11T10:40:23.000Z</time>
      </trkpt>
      <trkpt lat="42.2434185259044170379638671875" lon="1.58137620426714420318603515625">
        <ele>1182.5999755859375</ele>
        <time>2020-08-11T10:40:24.000Z</time>
      </trkpt>
      <trkpt lat="42.243473343551158905029296875" lon="1.58115240745246410369873046875">
        <ele>1181.4000244140625</ele>
        <time>2020-08-11T10:40:26.000Z</time>
      </trkpt>
      <trkpt lat="42.2434909455478191375732421875" lon="1.58103547990322113037109375">
        <ele>1180.5999755859375</ele>
        <time>2020-08-11T10:40:27.000Z</time>
      </trkpt>
      <trkpt lat="42.24350117146968841552734375" lon="1.58092014491558074951171875">
        <ele>1180</ele>
        <time>2020-08-11T10:40:28.000Z</time>
      </trkpt>
      <trkpt lat="42.243492119014263153076171875" lon="1.5806986950337886810302734375">
        <ele>1178.800048828125</ele>
        <time>2020-08-11T10:40:30.000Z</time>
      </trkpt>
      <trkpt lat="42.243465296924114227294921875" lon="1.58059568144381046295166015625">
        <ele>1178.199951171875</ele>
        <time>2020-08-11T10:40:31.000Z</time>
      </trkpt>
      <trkpt lat="42.24336580373346805572509765625" lon="1.58040524460375308990478515625">
        <ele>1177.4000244140625</ele>
        <time>2020-08-11T10:40:33.000Z</time>
      </trkpt>
      <trkpt lat="42.24330914206802845001220703125" lon="1.58031404949724674224853515625">
        <ele>1176.5999755859375</ele>
        <time>2020-08-11T10:40:34.000Z</time>
      </trkpt>
      <trkpt lat="42.2432528994977474212646484375" lon="1.58021799288690090179443359375">
        <ele>1175.800048828125</ele>
        <time>2020-08-11T10:40:35.000Z</time>
      </trkpt>
      <trkpt lat="42.24309573881328105926513671875" lon="1.5798947028815746307373046875">
        <ele>1174.199951171875</ele>
        <time>2020-08-11T10:40:38.000Z</time>
      </trkpt>
      <trkpt lat="42.24297638051211833953857421875" lon="1.5796774439513683319091796875">
        <ele>1172.800048828125</ele>
        <time>2020-08-11T10:40:40.000Z</time>
      </trkpt>
      <trkpt lat="42.2428545914590358734130859375" lon="1.579460017383098602294921875">
        <ele>1171.4000244140625</ele>
        <time>2020-08-11T10:40:42.000Z</time>
      </trkpt>
      <trkpt lat="42.24273984320461750030517578125" lon="1.57924284227192401885986328125">
        <ele>1170.199951171875</ele>
        <time>2020-08-11T10:40:44.000Z</time>
      </trkpt>
      <trkpt lat="42.242628447711467742919921875" lon="1.57902960665524005889892578125">
        <ele>1168.5999755859375</ele>
        <time>2020-08-11T10:40:46.000Z</time>
      </trkpt>
      <trkpt lat="42.2425179742276668548583984375" lon="1.5788193047046661376953125">
        <ele>1167.5999755859375</ele>
        <time>2020-08-11T10:40:48.000Z</time>
      </trkpt>
      <trkpt lat="42.24246709607541561126708984375" lon="1.57871377654373645782470703125">
        <ele>1167.199951171875</ele>
        <time>2020-08-11T10:40:49.000Z</time>
      </trkpt>
      <trkpt lat="42.242381013929843902587890625" lon="1.57849542796611785888671875">
        <ele>1166</ele>
        <time>2020-08-11T10:40:51.000Z</time>
      </trkpt>
      <trkpt lat="42.24230515770614147186279296875" lon="1.57827842049300670623779296875">
        <ele>1165</ele>
        <time>2020-08-11T10:40:53.000Z</time>
      </trkpt>
      <trkpt lat="42.242214716970920562744140625" lon="1.5780822001397609710693359375">
        <ele>1164.199951171875</ele>
        <time>2020-08-11T10:40:55.000Z</time>
      </trkpt>
      <trkpt lat="42.24215880967676639556884765625" lon="1.57800198532640933990478515625">
        <ele>1163.800048828125</ele>
        <time>2020-08-11T10:40:56.000Z</time>
      </trkpt>
      <trkpt lat="42.24209577776491641998291015625" lon="1.57793694175779819488525390625">
        <ele>1163.800048828125</ele>
        <time>2020-08-11T10:40:57.000Z</time>
      </trkpt>
      <trkpt lat="42.24187365733087062835693359375" lon="1.57787474803626537322998046875">
        <ele>1163.4000244140625</ele>
        <time>2020-08-11T10:41:00.000Z</time>
      </trkpt>
      <trkpt lat="42.24166377447545528411865234375" lon="1.57780878245830535888671875">
        <ele>1162.5999755859375</ele>
        <time>2020-08-11T10:41:03.000Z</time>
      </trkpt>
      <trkpt lat="42.24157643504440784454345703125" lon="1.57764089293777942657470703125">
        <ele>1161.5999755859375</ele>
        <time>2020-08-11T10:41:05.000Z</time>
      </trkpt>
      <trkpt lat="42.24155413918197154998779296875" lon="1.5775358676910400390625">
        <ele>1160.800048828125</ele>
        <time>2020-08-11T10:41:06.000Z</time>
      </trkpt>
      <trkpt lat="42.24154156632721424102783203125" lon="1.57742514275014400482177734375">
        <ele>1160.199951171875</ele>
        <time>2020-08-11T10:41:07.000Z</time>
      </trkpt>
      <trkpt lat="42.24153486080467700958251953125" lon="1.57731215469539165496826171875">
        <ele>1159.5999755859375</ele>
        <time>2020-08-11T10:41:08.000Z</time>
      </trkpt>
      <trkpt lat="42.24153117276728153228759765625" lon="1.5771974064409732818603515625">
        <ele>1159</ele>
        <time>2020-08-11T10:41:09.000Z</time>
      </trkpt>
      <trkpt lat="42.24153117276728153228759765625" lon="1.57696497626602649688720703125">
        <ele>1157.800048828125</ele>
        <time>2020-08-11T10:41:11.000Z</time>
      </trkpt>
      <trkpt lat="42.24152999930083751678466796875" lon="1.57672693021595478057861328125">
        <ele>1156.5999755859375</ele>
        <time>2020-08-11T10:41:13.000Z</time>
      </trkpt>
      <trkpt lat="42.24149999208748340606689453125" lon="1.57637287862598896026611328125">
        <ele>1155.4000244140625</ele>
        <time>2020-08-11T10:41:16.000Z</time>
      </trkpt>
      <trkpt lat="42.2414829768240451812744140625" lon="1.57626056112349033355712890625">
        <ele>1155</ele>
        <time>2020-08-11T10:41:17.000Z</time>
      </trkpt>
      <trkpt lat="42.2414595074951648712158203125" lon="1.5761523507535457611083984375">
        <ele>1154.800048828125</ele>
        <time>2020-08-11T10:41:18.000Z</time>
      </trkpt>
      <trkpt lat="42.2413815557956695556640625" lon="1.5759558789432048797607421875">
        <ele>1154.5999755859375</ele>
        <time>2020-08-11T10:41:20.000Z</time>
      </trkpt>
      <trkpt lat="42.24132179282605648040771484375" lon="1.57587348483502864837646484375">
        <ele>1154.4000244140625</ele>
        <time>2020-08-11T10:41:21.000Z</time>
      </trkpt>
      <trkpt lat="42.24117125384509563446044921875" lon="1.5757535398006439208984375">
        <ele>1153.4000244140625</ele>
        <time>2020-08-11T10:41:23.000Z</time>
      </trkpt>
      <trkpt lat="42.24108341149985790252685546875" lon="1.5757205151021480560302734375">
        <ele>1153</ele>
        <time>2020-08-11T10:41:24.000Z</time>
      </trkpt>
      <trkpt lat="42.2408949024975299835205078125" lon="1.57568254508078098297119140625">
        <ele>1152.199951171875</ele>
        <time>2020-08-11T10:41:26.000Z</time>
      </trkpt>
      <trkpt lat="42.2407027892768383026123046875" lon="1.5756377018988132476806640625">
        <ele>1151</ele>
        <time>2020-08-11T10:41:28.000Z</time>
      </trkpt>
      <trkpt lat="42.240332476794719696044921875" lon="1.57554910518229007720947265625">
        <ele>1149.800048828125</ele>
        <time>2020-08-11T10:41:32.000Z</time>
      </trkpt>
      <trkpt lat="42.24000399000942707061767578125" lon="1.57533151097595691680908203125">
        <ele>1148.4000244140625</ele>
        <time>2020-08-11T10:41:36.000Z</time>
      </trkpt>
      <trkpt lat="42.23978505469858646392822265625" lon="1.5751243941485881805419921875">
        <ele>1147.4000244140625</ele>
        <time>2020-08-11T10:41:39.000Z</time>
      </trkpt>
      <trkpt lat="42.239655219018459320068359375" lon="1.574961282312870025634765625">
        <ele>1146.5999755859375</ele>
        <time>2020-08-11T10:41:41.000Z</time>
      </trkpt>
      <trkpt lat="42.23958606831729412078857421875" lon="1.5748873539268970489501953125">
        <ele>1146.199951171875</ele>
        <time>2020-08-11T10:41:42.000Z</time>
      </trkpt>
      <trkpt lat="42.2394300810992717742919921875" lon="1.57477428205311298370361328125">
        <ele>1145.4000244140625</ele>
        <time>2020-08-11T10:41:44.000Z</time>
      </trkpt>
      <trkpt lat="42.239344753324985504150390625" lon="1.57473354600369930267333984375">
        <ele>1145</ele>
        <time>2020-08-11T10:41:45.000Z</time>
      </trkpt>
      <trkpt lat="42.239258922636508941650390625" lon="1.57469850964844226837158203125">
        <ele>1144.4000244140625</ele>
        <time>2020-08-11T10:41:46.000Z</time>
      </trkpt>
      <trkpt lat="42.2391742654144763946533203125" lon="1.57466179691255092620849609375">
        <ele>1144</ele>
        <time>2020-08-11T10:41:47.000Z</time>
      </trkpt>
      <trkpt lat="42.23900905810296535491943359375" lon="1.5745867788791656494140625">
        <ele>1143.199951171875</ele>
        <time>2020-08-11T10:41:49.000Z</time>
      </trkpt>
      <trkpt lat="42.23892934620380401611328125" lon="1.57454780302941799163818359375">
        <ele>1142.800048828125</ele>
        <time>2020-08-11T10:41:50.000Z</time>
      </trkpt>
      <trkpt lat="42.23856699652969837188720703125" lon="1.57434009946882724761962890625">
        <ele>1141.800048828125</ele>
        <time>2020-08-11T10:41:55.000Z</time>
      </trkpt>
      <trkpt lat="42.23811169154942035675048828125" lon="1.57402209006249904632568359375">
        <ele>1141</ele>
        <time>2020-08-11T10:42:02.000Z</time>
      </trkpt>
      <trkpt lat="42.23804715089499950408935546875" lon="1.57396945171058177947998046875">
        <ele>1140.800048828125</ele>
        <time>2020-08-11T10:42:03.000Z</time>
      </trkpt>
      <trkpt lat="42.2378864698112010955810546875" lon="1.573751270771026611328125">
        <ele>1139.5999755859375</ele>
        <time>2020-08-11T10:42:06.000Z</time>
      </trkpt>
      <trkpt lat="42.237785719335079193115234375" lon="1.5734902583062648773193359375">
        <ele>1138.5999755859375</ele>
        <time>2020-08-11T10:42:09.000Z</time>
      </trkpt>
      <trkpt lat="42.237760238349437713623046875" lon="1.573402918875217437744140625">
        <ele>1138.4000244140625</ele>
        <time>2020-08-11T10:42:10.000Z</time>
      </trkpt>
      <trkpt lat="42.23768672905862331390380859375" lon="1.572999246418476104736328125">
        <ele>1138</ele>
        <time>2020-08-11T10:42:15.000Z</time>
      </trkpt>
      <trkpt lat="42.2376946918666362762451171875" lon="1.5726057998836040496826171875">
        <ele>1137.800048828125</ele>
        <time>2020-08-11T10:42:21.000Z</time>
      </trkpt>
      <trkpt lat="42.237715311348438262939453125" lon="1.572420559823513031005859375">
        <ele>1137.800048828125</ele>
        <time>2020-08-11T10:42:24.000Z</time>
      </trkpt>
      <trkpt lat="42.2377379424870014190673828125" lon="1.5720636583864688873291015625">
        <ele>1138</ele>
        <time>2020-08-11T10:42:30.000Z</time>
      </trkpt>
      <trkpt lat="42.23773634992539882659912109375" lon="1.57184078358113765716552734375">
        <ele>1138.4000244140625</ele>
        <time>2020-08-11T10:42:34.000Z</time>
      </trkpt>
      <trkpt lat="42.23769879899919033050537109375" lon="1.57167633064091205596923828125">
        <ele>1138.4000244140625</ele>
        <time>2020-08-11T10:42:37.000Z</time>
      </trkpt>
      <trkpt lat="42.23755613900721073150634765625" lon="1.5712841413915157318115234375">
        <ele>1138.4000244140625</ele>
        <time>2020-08-11T10:42:45.000Z</time>
      </trkpt>
      <trkpt lat="42.23737827502191066741943359375" lon="1.57082389108836650848388671875">
        <ele>1138.5999755859375</ele>
        <time>2020-08-11T10:42:55.000Z</time>
      </trkpt>
      <trkpt lat="42.237175516784191131591796875" lon="1.57039373181760311126708984375">
        <ele>1138.4000244140625</ele>
        <time>2020-08-11T10:43:04.000Z</time>
      </trkpt>
      <trkpt lat="42.23691794089972972869873046875" lon="1.57007060945034027099609375">
        <ele>1137.800048828125</ele>
        <time>2020-08-11T10:43:11.000Z</time>
      </trkpt>
      <trkpt lat="42.2368380613625049591064453125" lon="1.56996105797588825225830078125">
        <ele>1137.4000244140625</ele>
        <time>2020-08-11T10:43:13.000Z</time>
      </trkpt>
      <trkpt lat="42.2367247380316257476806640625" lon="1.56976592727005481719970703125">
        <ele>1136.4000244140625</ele>
        <time>2020-08-11T10:43:16.000Z</time>
      </trkpt>
      <trkpt lat="42.236539833247661590576171875" lon="1.5693891607224941253662109375">
        <ele>1135.199951171875</ele>
        <time>2020-08-11T10:43:21.000Z</time>
      </trkpt>
      <trkpt lat="42.23647512495517730712890625" lon="1.5692386217415332794189453125">
        <ele>1134.800048828125</ele>
        <time>2020-08-11T10:43:23.000Z</time>
      </trkpt>
      <trkpt lat="42.23642340861260890960693359375" lon="1.56910635530948638916015625">
        <ele>1134.199951171875</ele>
        <time>2020-08-11T10:43:25.000Z</time>
      </trkpt>
      <trkpt lat="42.23635375499725341796875" lon="1.56895522959530353546142578125">
        <ele>1134</ele>
        <time>2020-08-11T10:43:28.000Z</time>
      </trkpt>
      <trkpt lat="42.23627286963164806365966796875" lon="1.56885129399597644805908203125">
        <ele>1133.4000244140625</ele>
        <time>2020-08-11T10:43:32.000Z</time>
      </trkpt>
      <trkpt lat="42.23623917438089847564697265625" lon="1.5689140744507312774658203125">
        <ele>1132.800048828125</ele>
        <time>2020-08-11T10:43:36.000Z</time>
      </trkpt>
      <trkpt lat="42.23624252714216709136962890625" lon="1.56892991624772548675537109375">
        <ele>1132.4000244140625</ele>
        <time>2020-08-11T10:43:41.000Z</time>
      </trkpt>
      <trkpt lat="42.23624445497989654541015625" lon="1.56892924569547176361083984375">
        <ele>1132.4000244140625</ele>
        <time>2020-08-11T10:43:45.000Z</time>
      </trkpt>
      <trkpt lat="42.23624470643699169158935546875" lon="1.56892840750515460968017578125">
        <ele>1132.4000244140625</ele>
        <time>2020-08-11T10:43:58.000Z</time>
      </trkpt>
      <trkpt lat="42.2362451255321502685546875" lon="1.568928323686122894287109375">
        <ele>1132.5999755859375</ele>
        <time>2020-08-11T10:44:30.000Z</time>
      </trkpt>
      <trkpt lat="42.2362452931702136993408203125" lon="1.56892891041934490203857421875">
        <ele>1132.199951171875</ele>
        <time>2020-08-11T10:44:46.000Z</time>
      </trkpt>
      <trkpt lat="42.236245460808277130126953125" lon="1.5689300000667572021484375">
        <ele>1132</ele>
        <time>2020-08-11T10:44:53.000Z</time>
      </trkpt>
      <trkpt lat="42.23624805919826030731201171875" lon="1.56893712468445301055908203125">
        <ele>1132.4000244140625</ele>
        <time>2020-08-11T10:45:05.000Z</time>
      </trkpt>
      <trkpt lat="42.2362872026860713958740234375" lon="1.5690399706363677978515625">
        <ele>1132.199951171875</ele>
        <time>2020-08-11T10:45:09.000Z</time>
      </trkpt>
      <trkpt lat="42.2363384999334812164306640625" lon="1.569236107170581817626953125">
        <ele>1131.199951171875</ele>
        <time>2020-08-11T10:45:13.000Z</time>
      </trkpt>
      <trkpt lat="42.2363309562206268310546875" lon="1.5692862309515476226806640625">
        <ele>1130.800048828125</ele>
        <time>2020-08-11T10:45:14.000Z</time>
      </trkpt>
      <trkpt lat="42.236273624002933502197265625" lon="1.56937432475388050079345703125">
        <ele>1129.5999755859375</ele>
        <time>2020-08-11T10:45:16.000Z</time>
      </trkpt>
      <trkpt lat="42.23622727207839488983154296875" lon="1.569415144622325897216796875">
        <ele>1129.199951171875</ele>
        <time>2020-08-11T10:45:17.000Z</time>
      </trkpt>
      <trkpt lat="42.23617211915552616119384765625" lon="1.56945747323334217071533203125">
        <ele>1129</ele>
        <time>2020-08-11T10:45:18.000Z</time>
      </trkpt>
      <trkpt lat="42.2361111827194690704345703125" lon="1.5695013105869293212890625">
        <ele>1128.5999755859375</ele>
        <time>2020-08-11T10:45:19.000Z</time>
      </trkpt>
      <trkpt lat="42.23598654381930828094482421875" lon="1.569581441581249237060546875">
        <ele>1127.4000244140625</ele>
        <time>2020-08-11T10:45:21.000Z</time>
      </trkpt>
      <trkpt lat="42.23592619411647319793701171875" lon="1.569609604775905609130859375">
        <ele>1126.5999755859375</ele>
        <time>2020-08-11T10:45:22.000Z</time>
      </trkpt>
      <trkpt lat="42.2358070872724056243896484375" lon="1.56962913461029529571533203125">
        <ele>1126</ele>
        <time>2020-08-11T10:45:24.000Z</time>
      </trkpt>
      <trkpt lat="42.23575553856790065765380859375" lon="1.56962662003934383392333984375">
        <ele>1125.5999755859375</ele>
        <time>2020-08-11T10:45:25.000Z</time>
      </trkpt>
      <trkpt lat="42.23571346141397953033447265625" lon="1.56962276436388492584228515625">
        <ele>1125.5999755859375</ele>
        <time>2020-08-11T10:45:26.000Z</time>
      </trkpt>
      <trkpt lat="42.2356277145445346832275390625" lon="1.5696030668914318084716796875">
        <ele>1126.800048828125</ele>
        <time>2020-08-11T10:45:29.000Z</time>
      </trkpt>
      <trkpt lat="42.2355894930660724639892578125" lon="1.5695852972567081451416015625">
        <ele>1127.199951171875</ele>
        <time>2020-08-11T10:45:31.000Z</time>
      </trkpt>
      <trkpt lat="42.23554464988410472869873046875" lon="1.56953995116055011749267578125">
        <ele>1127.800048828125</ele>
        <time>2020-08-11T10:45:34.000Z</time>
      </trkpt>
      <trkpt lat="42.23547742702066898345947265625" lon="1.569486893713474273681640625">
        <ele>1128.5999755859375</ele>
        <time>2020-08-11T10:45:38.000Z</time>
      </trkpt>
      <trkpt lat="42.23543283529579639434814453125" lon="1.5694461576640605926513671875">
        <ele>1128.5999755859375</ele>
        <time>2020-08-11T10:45:41.000Z</time>
      </trkpt>
      <trkpt lat="42.23535035736858844757080078125" lon="1.56940282322466373443603515625">
        <ele>1129.5999755859375</ele>
        <time>2020-08-11T10:45:46.000Z</time>
      </trkpt>
      <trkpt lat="42.23533384501934051513671875" lon="1.56939561478793621063232421875">
        <ele>1129.5999755859375</ele>
        <time>2020-08-11T10:45:47.000Z</time>
      </trkpt>
      <trkpt lat="42.2352243773639202117919921875" lon="1.56935848295688629150390625">
        <ele>1130.800048828125</ele>
        <time>2020-08-11T10:45:54.000Z</time>
      </trkpt>
      <trkpt lat="42.23520987667143344879150390625" lon="1.569350101053714752197265625">
        <ele>1130.800048828125</ele>
        <time>2020-08-11T10:45:55.000Z</time>
      </trkpt>
      <trkpt lat="42.2351036779582500457763671875" lon="1.56932654790580272674560546875">
        <ele>1131.5999755859375</ele>
        <time>2020-08-11T10:46:02.000Z</time>
      </trkpt>
      <trkpt lat="42.23507207818329334259033203125" lon="1.56932168640196323394775390625">
        <ele>1132</ele>
        <time>2020-08-11T10:46:04.000Z</time>
      </trkpt>
      <trkpt lat="42.23499588668346405029296875" lon="1.569322608411312103271484375">
        <ele>1133</ele>
        <time>2020-08-11T10:46:09.000Z</time>
      </trkpt>
      <trkpt lat="42.23497987724840641021728515625" lon="1.56932470388710498809814453125">
        <ele>1133.199951171875</ele>
        <time>2020-08-11T10:46:10.000Z</time>
      </trkpt>
      <trkpt lat="42.234865464270114898681640625" lon="1.56930123455822467803955078125">
        <ele>1133.800048828125</ele>
        <time>2020-08-11T10:46:17.000Z</time>
      </trkpt>
      <trkpt lat="42.23473705351352691650390625" lon="1.569234766066074371337890625">
        <ele>1134.4000244140625</ele>
        <time>2020-08-11T10:46:24.000Z</time>
      </trkpt>
      <trkpt lat="42.2345392405986785888671875" lon="1.56913057900965213775634765625">
        <ele>1134.4000244140625</ele>
        <time>2020-08-11T10:46:33.000Z</time>
      </trkpt>
      <trkpt lat="42.23437964916229248046875" lon="1.5690444968640804290771484375">
        <ele>1134.800048828125</ele>
        <time>2020-08-11T10:46:41.000Z</time>
      </trkpt>
      <trkpt lat="42.234304882586002349853515625" lon="1.56898724846541881561279296875">
        <ele>1135.5999755859375</ele>
        <time>2020-08-11T10:46:45.000Z</time>
      </trkpt>
      <trkpt lat="42.23426976241171360015869140625" lon="1.56894265674054622650146484375">
        <ele>1136</ele>
        <time>2020-08-11T10:46:48.000Z</time>
      </trkpt>
      <trkpt lat="42.234186865389347076416015625" lon="1.5688403137028217315673828125">
        <ele>1136.5999755859375</ele>
        <time>2020-08-11T10:46:55.000Z</time>
      </trkpt>
      <trkpt lat="42.23416314460337162017822265625" lon="1.56880821101367473602294921875">
        <ele>1136.800048828125</ele>
        <time>2020-08-11T10:46:57.000Z</time>
      </trkpt>
      <trkpt lat="42.23411251790821552276611328125" lon="1.56874098815023899078369140625">
        <ele>1137.4000244140625</ele>
        <time>2020-08-11T10:47:01.000Z</time>
      </trkpt>
      <trkpt lat="42.2340371645987033843994140625" lon="1.5686564147472381591796875">
        <ele>1138.199951171875</ele>
        <time>2020-08-11T10:47:06.000Z</time>
      </trkpt>
      <trkpt lat="42.2340113483369350433349609375" lon="1.5686247311532497406005859375">
        <ele>1138.5999755859375</ele>
        <time>2020-08-11T10:47:08.000Z</time>
      </trkpt>
      <trkpt lat="42.23393951542675495147705078125" lon="1.56852020882070064544677734375">
        <ele>1139.4000244140625</ele>
        <time>2020-08-11T10:47:14.000Z</time>
      </trkpt>
      <trkpt lat="42.23391520790755748748779296875" lon="1.5684889443218708038330078125">
        <ele>1139.5999755859375</ele>
        <time>2020-08-11T10:47:16.000Z</time>
      </trkpt>
      <trkpt lat="42.23383155651390552520751953125" lon="1.568387188017368316650390625">
        <ele>1140.800048828125</ele>
        <time>2020-08-11T10:47:23.000Z</time>
      </trkpt>
      <trkpt lat="42.233802638947963714599609375" lon="1.56835759989917278289794921875">
        <ele>1141.199951171875</ele>
        <time>2020-08-11T10:47:25.000Z</time>
      </trkpt>
      <trkpt lat="42.23365671001374721527099609375" lon="1.5682200528681278228759765625">
        <ele>1142</ele>
        <time>2020-08-11T10:47:34.000Z</time>
      </trkpt>
      <trkpt lat="42.2335392795503139495849609375" lon="1.56807144172489643096923828125">
        <ele>1142.800048828125</ele>
        <time>2020-08-11T10:47:42.000Z</time>
      </trkpt>
      <trkpt lat="42.23350952379405498504638671875" lon="1.56804160214960575103759765625">
        <ele>1143.199951171875</ele>
        <time>2020-08-11T10:47:44.000Z</time>
      </trkpt>
      <trkpt lat="42.2334158979356288909912109375" lon="1.56795107759535312652587890625">
        <ele>1143.4000244140625</ele>
        <time>2020-08-11T10:47:50.000Z</time>
      </trkpt>
      <trkpt lat="42.23335429094731807708740234375" lon="1.56789944507181644439697265625">
        <ele>1144.4000244140625</ele>
        <time>2020-08-11T10:47:54.000Z</time>
      </trkpt>
      <trkpt lat="42.233293689787387847900390625" lon="1.56784395687282085418701171875">
        <ele>1145.199951171875</ele>
        <time>2020-08-11T10:47:58.000Z</time>
      </trkpt>
      <trkpt lat="42.23323711194097995758056640625" lon="1.567787714302539825439453125">
        <ele>1145.5999755859375</ele>
        <time>2020-08-11T10:48:02.000Z</time>
      </trkpt>
      <trkpt lat="42.23313602618873119354248046875" lon="1.56770045869052410125732421875">
        <ele>1146.199951171875</ele>
        <time>2020-08-11T10:48:09.000Z</time>
      </trkpt>
      <trkpt lat="42.2331087850034236907958984375" lon="1.5676769055426120758056640625">
        <ele>1146.800048828125</ele>
        <time>2020-08-11T10:48:11.000Z</time>
      </trkpt>
      <trkpt lat="42.2329756803810596466064453125" lon="1.56756014563143253326416015625">
        <ele>1147.5999755859375</ele>
        <time>2020-08-11T10:48:20.000Z</time>
      </trkpt>
      <trkpt lat="42.23294802010059356689453125" lon="1.56753097660839557647705078125">
        <ele>1148</ele>
        <time>2020-08-11T10:48:22.000Z</time>
      </trkpt>
      <trkpt lat="42.2328841499984264373779296875" lon="1.56744648702442646026611328125">
        <ele>1148.5999755859375</ele>
        <time>2020-08-11T10:48:27.000Z</time>
      </trkpt>
      <trkpt lat="42.232822962105274200439453125" lon="1.56735512427985668182373046875">
        <ele>1149.4000244140625</ele>
        <time>2020-08-11T10:48:32.000Z</time>
      </trkpt>
      <trkpt lat="42.23277091048657894134521484375" lon="1.56728404574096202850341796875">
        <ele>1149.800048828125</ele>
        <time>2020-08-11T10:48:36.000Z</time>
      </trkpt>
      <trkpt lat="42.2326965630054473876953125" lon="1.56717508099973201751708984375">
        <ele>1150.4000244140625</ele>
        <time>2020-08-11T10:48:42.000Z</time>
      </trkpt>
      <trkpt lat="42.232662029564380645751953125" lon="1.56711841933429241180419921875">
        <ele>1151.199951171875</ele>
        <time>2020-08-11T10:48:45.000Z</time>
      </trkpt>
      <trkpt lat="42.2326347045600414276123046875" lon="1.567058824002742767333984375">
        <ele>1151.5999755859375</ele>
        <time>2020-08-11T10:48:48.000Z</time>
      </trkpt>
      <trkpt lat="42.23257008008658885955810546875" lon="1.5669470094144344329833984375">
        <ele>1151.800048828125</ele>
        <time>2020-08-11T10:48:54.000Z</time>
      </trkpt>
      <trkpt lat="42.2325150109827518463134765625" lon="1.56684030778706073760986328125">
        <ele>1152.5999755859375</ele>
        <time>2020-08-11T10:48:59.000Z</time>
      </trkpt>
      <trkpt lat="42.23248726688325405120849609375" lon="1.56677023507654666900634765625">
        <ele>1153.199951171875</ele>
        <time>2020-08-11T10:49:02.000Z</time>
      </trkpt>
      <trkpt lat="42.23243965767323970794677734375" lon="1.56658398918807506561279296875">
        <ele>1154</ele>
        <time>2020-08-11T10:49:10.000Z</time>
      </trkpt>
      <trkpt lat="42.2324337065219879150390625" lon="1.566557586193084716796875">
        <ele>1154.199951171875</ele>
        <time>2020-08-11T10:49:11.000Z</time>
      </trkpt>
      <trkpt lat="42.23239305429160594940185546875" lon="1.56634594313800334930419921875">
        <ele>1155</ele>
        <time>2020-08-11T10:49:20.000Z</time>
      </trkpt>
      <trkpt lat="42.23236757330596446990966796875" lon="1.56615600921213626861572265625">
        <ele>1156</ele>
        <time>2020-08-11T10:49:27.000Z</time>
      </trkpt>
      <trkpt lat="42.23235382698476314544677734375" lon="1.5660779736936092376708984375">
        <ele>1156.4000244140625</ele>
        <time>2020-08-11T10:49:30.000Z</time>
      </trkpt>
      <trkpt lat="42.232333458960056304931640625" lon="1.565928943455219268798828125">
        <ele>1156.5999755859375</ele>
        <time>2020-08-11T10:49:36.000Z</time>
      </trkpt>
      <trkpt lat="42.2323178686201572418212890625" lon="1.56580447219312191009521484375">
        <ele>1157.4000244140625</ele>
        <time>2020-08-11T10:49:41.000Z</time>
      </trkpt>
      <trkpt lat="42.2323022782802581787109375" lon="1.5657086670398712158203125">
        <ele>1158</ele>
        <time>2020-08-11T10:49:45.000Z</time>
      </trkpt>
      <trkpt lat="42.23227880895137786865234375" lon="1.56559056602418422698974609375">
        <ele>1158.5999755859375</ele>
        <time>2020-08-11T10:49:50.000Z</time>
      </trkpt>
      <trkpt lat="42.23226464353501796722412109375" lon="1.5655455552041530609130859375">
        <ele>1159</ele>
        <time>2020-08-11T10:49:52.000Z</time>
      </trkpt>
      <trkpt lat="42.23219306208193302154541015625" lon="1.5654136240482330322265625">
        <ele>1159.4000244140625</ele>
        <time>2020-08-11T10:49:59.000Z</time>
      </trkpt>
      <trkpt lat="42.23207370378077030181884765625" lon="1.56536869704723358154296875">
        <ele>1159.800048828125</ele>
        <time>2020-08-11T10:50:06.000Z</time>
      </trkpt>
      <trkpt lat="42.23200396634638309478759765625" lon="1.56533810310065746307373046875">
        <ele>1161.199951171875</ele>
        <time>2020-08-11T10:50:10.000Z</time>
      </trkpt>
      <trkpt lat="42.231942526996135711669921875" lon="1.56529284082353115081787109375">
        <ele>1161.800048828125</ele>
        <time>2020-08-11T10:50:14.000Z</time>
      </trkpt>
      <trkpt lat="42.23189391195774078369140625" lon="1.56526031903922557830810546875">
        <ele>1162.4000244140625</ele>
        <time>2020-08-11T10:50:17.000Z</time>
      </trkpt>
      <trkpt lat="42.23182777874171733856201171875" lon="1.56523450277745723724365234375">
        <ele>1163.5999755859375</ele>
        <time>2020-08-11T10:50:21.000Z</time>
      </trkpt>
      <trkpt lat="42.2317951731383800506591796875" lon="1.56523525714874267578125">
        <ele>1164.199951171875</ele>
        <time>2020-08-11T10:50:23.000Z</time>
      </trkpt>
      <trkpt lat="42.23176181316375732421875" lon="1.56527356244623661041259765625">
        <ele>1164.800048828125</ele>
        <time>2020-08-11T10:50:26.000Z</time>
      </trkpt>
      <trkpt lat="42.231767512857913970947265625" lon="1.565308682620525360107421875">
        <ele>1165.199951171875</ele>
        <time>2020-08-11T10:50:28.000Z</time>
      </trkpt>
      <trkpt lat="42.2318270243704319000244140625" lon="1.56540063209831714630126953125">
        <ele>1166</ele>
        <time>2020-08-11T10:50:34.000Z</time>
      </trkpt>
      <trkpt lat="42.23189801909029483795166015625" lon="1.56550423242151737213134765625">
        <ele>1167</ele>
        <time>2020-08-11T10:50:41.000Z</time>
      </trkpt>
      <trkpt lat="42.2319463826715946197509765625" lon="1.56558235175907611846923828125">
        <ele>1167.199951171875</ele>
        <time>2020-08-11T10:50:46.000Z</time>
      </trkpt>
      <trkpt lat="42.23197437822818756103515625" lon="1.56565426848828792572021484375">
        <ele>1168.199951171875</ele>
        <time>2020-08-11T10:50:50.000Z</time>
      </trkpt>
      <trkpt lat="42.2319832630455493927001953125" lon="1.5656696073710918426513671875">
        <ele>1168.4000244140625</ele>
        <time>2020-08-11T10:50:51.000Z</time>
      </trkpt>
      <trkpt lat="42.23201218061149120330810546875" lon="1.5657742135226726531982421875">
        <ele>1169.4000244140625</ele>
        <time>2020-08-11T10:50:57.000Z</time>
      </trkpt>
      <trkpt lat="42.23201637156307697296142578125" lon="1.5657926537096500396728515625">
        <ele>1169.5999755859375</ele>
        <time>2020-08-11T10:50:58.000Z</time>
      </trkpt>
      <trkpt lat="42.232038080692291259765625" lon="1.5658882074058055877685546875">
        <ele>1170.800048828125</ele>
        <time>2020-08-11T10:51:03.000Z</time>
      </trkpt>
      <trkpt lat="42.23205543123185634613037109375" lon="1.56600840389728546142578125">
        <ele>1171.800048828125</ele>
        <time>2020-08-11T10:51:09.000Z</time>
      </trkpt>
      <trkpt lat="42.23206012509763240814208984375" lon="1.56613119877874851226806640625">
        <ele>1173</ele>
        <time>2020-08-11T10:51:15.000Z</time>
      </trkpt>
      <trkpt lat="42.23205610178411006927490234375" lon="1.56631509773433208465576171875">
        <ele>1174.199951171875</ele>
        <time>2020-08-11T10:51:24.000Z</time>
      </trkpt>
      <trkpt lat="42.23205593414604663848876953125" lon="1.56641869805753231048583984375">
        <ele>1174.5999755859375</ele>
        <time>2020-08-11T10:51:29.000Z</time>
      </trkpt>
      <trkpt lat="42.23205308429896831512451171875" lon="1.5664380602538585662841796875">
        <ele>1174.800048828125</ele>
        <time>2020-08-11T10:51:30.000Z</time>
      </trkpt>
      <trkpt lat="42.2320429421961307525634765625" lon="1.5664937160909175872802734375">
        <ele>1175.199951171875</ele>
        <time>2020-08-11T10:51:33.000Z</time>
      </trkpt>
      <trkpt lat="42.23201100714504718780517578125" lon="1.5665936283767223358154296875">
        <ele>1176.199951171875</ele>
        <time>2020-08-11T10:51:38.000Z</time>
      </trkpt>
      <trkpt lat="42.232006229460239410400390625" lon="1.5666139125823974609375">
        <ele>1176.4000244140625</ele>
        <time>2020-08-11T10:51:39.000Z</time>
      </trkpt>
      <trkpt lat="42.2319457121193408966064453125" lon="1.56672245822846889495849609375">
        <ele>1177.4000244140625</ele>
        <time>2020-08-11T10:51:46.000Z</time>
      </trkpt>
      <trkpt lat="42.23193406127393245697021484375" lon="1.5667354501783847808837890625">
        <ele>1177.5999755859375</ele>
        <time>2020-08-11T10:51:47.000Z</time>
      </trkpt>
      <trkpt lat="42.23188008181750774383544921875" lon="1.5667683072388172149658203125">
        <ele>1179</ele>
        <time>2020-08-11T10:51:51.000Z</time>
      </trkpt>
      <trkpt lat="42.2318223305046558380126953125" lon="1.566763781011104583740234375">
        <ele>1179.199951171875</ele>
        <time>2020-08-11T10:51:55.000Z</time>
      </trkpt>
      <trkpt lat="42.23176944069564342498779296875" lon="1.566756069660186767578125">
        <ele>1179.5999755859375</ele>
        <time>2020-08-11T10:51:59.000Z</time>
      </trkpt>
      <trkpt lat="42.2317415289580821990966796875" lon="1.56674240715801715850830078125">
        <ele>1180</ele>
        <time>2020-08-11T10:52:01.000Z</time>
      </trkpt>
      <trkpt lat="42.2317274473607540130615234375" lon="1.56673528254032135009765625">
        <ele>1180.199951171875</ele>
        <time>2020-08-11T10:52:02.000Z</time>
      </trkpt>
      <trkpt lat="42.23168662749230861663818359375" lon="1.56672187149524688720703125">
        <ele>1180.5999755859375</ele>
        <time>2020-08-11T10:52:05.000Z</time>
      </trkpt>
      <trkpt lat="42.2316533513367176055908203125" lon="1.56669362448155879974365234375">
        <ele>1180.800048828125</ele>
        <time>2020-08-11T10:52:08.000Z</time>
      </trkpt>
      <trkpt lat="42.23156089894473552703857421875" lon="1.5666152536869049072265625">
        <ele>1180.800048828125</ele>
        <time>2020-08-11T10:52:13.000Z</time>
      </trkpt>
      <trkpt lat="42.231475152075290679931640625" lon="1.56659589149057865142822265625">
        <ele>1179.5999755859375</ele>
        <time>2020-08-11T10:52:17.000Z</time>
      </trkpt>
      <trkpt lat="42.23145847208797931671142578125" lon="1.56660712324082851409912109375">
        <ele>1179.5999755859375</ele>
        <time>2020-08-11T10:52:18.000Z</time>
      </trkpt>
      <trkpt lat="42.2314069233834743499755859375" lon="1.5666650421917438507080078125">
        <ele>1179.199951171875</ele>
        <time>2020-08-11T10:52:21.000Z</time>
      </trkpt>
      <trkpt lat="42.231383286416530609130859375" lon="1.5667086280882358551025390625">
        <ele>1178.4000244140625</ele>
        <time>2020-08-11T10:52:23.000Z</time>
      </trkpt>
      <trkpt lat="42.2313690371811389923095703125" lon="1.56672983430325984954833984375">
        <ele>1177.800048828125</ele>
        <time>2020-08-11T10:52:24.000Z</time>
      </trkpt>
      <trkpt lat="42.23135420121252536773681640625" lon="1.56674056313931941986083984375">
        <ele>1177.5999755859375</ele>
        <time>2020-08-11T10:52:25.000Z</time>
      </trkpt>
      <trkpt lat="42.23133995197713375091552734375" lon="1.56674358062446117401123046875">
        <ele>1177.4000244140625</ele>
        <time>2020-08-11T10:52:27.000Z</time>
      </trkpt>
      <trkpt lat="42.231332324445247650146484375" lon="1.5667461790144443511962890625">
        <ele>1177.199951171875</ele>
        <time>2020-08-11T10:52:36.000Z</time>
      </trkpt>
      <trkpt lat="42.23131229169666767120361328125" lon="1.566745005548000335693359375">
        <ele>1177.5999755859375</ele>
        <time>2020-08-11T10:53:07.000Z</time>
      </trkpt>
      <trkpt lat="42.23121824674308300018310546875" lon="1.56672279350459575653076171875">
        <ele>1177.5999755859375</ele>
        <time>2020-08-11T10:53:15.000Z</time>
      </trkpt>
      <trkpt lat="42.231208942830562591552734375" lon="1.56672296114265918731689453125">
        <ele>1177.4000244140625</ele>
        <time>2020-08-11T10:53:26.000Z</time>
      </trkpt>
      <trkpt lat="42.23121858201920986175537109375" lon="1.5667371265590190887451171875">
        <ele>1177.5999755859375</ele>
        <time>2020-08-11T10:53:33.000Z</time>
      </trkpt>
      <trkpt lat="42.23131866194307804107666015625" lon="1.56674995087087154388427734375">
        <ele>1177.5999755859375</ele>
        <time>2020-08-11T10:53:39.000Z</time>
      </trkpt>
      <trkpt lat="42.2313636727631092071533203125" lon="1.566774845123291015625">
        <ele>1177.4000244140625</ele>
        <time>2020-08-11T10:53:41.000Z</time>
      </trkpt>
      <trkpt lat="42.231449671089649200439453125" lon="1.56686746515333652496337890625">
        <ele>1177.199951171875</ele>
        <time>2020-08-11T10:53:45.000Z</time>
      </trkpt>
      <trkpt lat="42.23157296888530254364013671875" lon="1.5670606680214405059814453125">
        <ele>1176.800048828125</ele>
        <time>2020-08-11T10:53:51.000Z</time>
      </trkpt>
      <trkpt lat="42.23163373768329620361328125" lon="1.5673074312508106231689453125">
        <ele>1176.199951171875</ele>
        <time>2020-08-11T10:53:56.000Z</time>
      </trkpt>
      <trkpt lat="42.23164270631968975067138671875" lon="1.56735780648887157440185546875">
        <ele>1176</ele>
        <time>2020-08-11T10:53:57.000Z</time>
      </trkpt>
      <trkpt lat="42.2316650860011577606201171875" lon="1.56757154501974582672119140625">
        <ele>1175.199951171875</ele>
        <time>2020-08-11T10:54:01.000Z</time>
      </trkpt>
      <trkpt lat="42.2316558659076690673828125" lon="1.56769274733960628509521484375">
        <ele>1174.4000244140625</ele>
        <time>2020-08-11T10:54:03.000Z</time>
      </trkpt>
      <trkpt lat="42.23161471076309680938720703125" lon="1.56781160272657871246337890625">
        <ele>1174.199951171875</ele>
        <time>2020-08-11T10:54:05.000Z</time>
      </trkpt>
      <trkpt lat="42.23154899664223194122314453125" lon="1.56791738234460353851318359375">
        <ele>1173.800048828125</ele>
        <time>2020-08-11T10:54:07.000Z</time>
      </trkpt>
      <trkpt lat="42.23151144571602344512939453125" lon="1.5679657459259033203125">
        <ele>1173.800048828125</ele>
        <time>2020-08-11T10:54:08.000Z</time>
      </trkpt>
      <trkpt lat="42.23128815181553363800048828125" lon="1.568184010684490203857421875">
        <ele>1173.800048828125</ele>
        <time>2020-08-11T10:54:13.000Z</time>
      </trkpt>
      <trkpt lat="42.23124104551970958709716796875" lon="1.56823019497096538543701171875">
        <ele>1173.199951171875</ele>
        <time>2020-08-11T10:54:14.000Z</time>
      </trkpt>
      <trkpt lat="42.2309130616486072540283203125" lon="1.56852758489549160003662109375">
        <ele>1172.199951171875</ele>
        <time>2020-08-11T10:54:21.000Z</time>
      </trkpt>
      <trkpt lat="42.230724804103374481201171875" lon="1.56862800009548664093017578125">
        <ele>1171.5999755859375</ele>
        <time>2020-08-11T10:54:26.000Z</time>
      </trkpt>
      <trkpt lat="42.23063872195780277252197265625" lon="1.5685271658003330230712890625">
        <ele>1171.199951171875</ele>
        <time>2020-08-11T10:54:29.000Z</time>
      </trkpt>
      <trkpt lat="42.23058960400521755218505859375" lon="1.56833362765610218048095703125">
        <ele>1170.199951171875</ele>
        <time>2020-08-11T10:54:32.000Z</time>
      </trkpt>
      <trkpt lat="42.23056697286665439605712890625" lon="1.56826104037463665008544921875">
        <ele>1169.5999755859375</ele>
        <time>2020-08-11T10:54:33.000Z</time>
      </trkpt>
      <trkpt lat="42.23053763620555400848388671875" lon="1.56818862073123455047607421875">
        <ele>1169</ele>
        <time>2020-08-11T10:54:34.000Z</time>
      </trkpt>
      <trkpt lat="42.2304114885628223419189453125" lon="1.568015031516551971435546875">
        <ele>1168</ele>
        <time>2020-08-11T10:54:37.000Z</time>
      </trkpt>
      <trkpt lat="42.23020252771675586700439453125" lon="1.5679930709302425384521484375">
        <ele>1166.5999755859375</ele>
        <time>2020-08-11T10:54:40.000Z</time>
      </trkpt>
      <trkpt lat="42.23004721105098724365234375" lon="1.5680517442524433135986328125">
        <ele>1165.800048828125</ele>
        <time>2020-08-11T10:54:42.000Z</time>
      </trkpt>
      <trkpt lat="42.229967750608921051025390625" lon="1.568085439503192901611328125">
        <ele>1165.199951171875</ele>
        <time>2020-08-11T10:54:43.000Z</time>
      </trkpt>
      <trkpt lat="42.22981243394315242767333984375" lon="1.56815207563340663909912109375">
        <ele>1164.199951171875</ele>
        <time>2020-08-11T10:54:45.000Z</time>
      </trkpt>
      <trkpt lat="42.229734398424625396728515625" lon="1.56817722134292125701904296875">
        <ele>1163.5999755859375</ele>
        <time>2020-08-11T10:54:46.000Z</time>
      </trkpt>
      <trkpt lat="42.22965468652546405792236328125" lon="1.5681935660541057586669921875">
        <ele>1163.199951171875</ele>
        <time>2020-08-11T10:54:47.000Z</time>
      </trkpt>
      <trkpt lat="42.22957522608339786529541015625" lon="1.56819415278732776641845703125">
        <ele>1162.199951171875</ele>
        <time>2020-08-11T10:54:48.000Z</time>
      </trkpt>
      <trkpt lat="42.22949626855552196502685546875" lon="1.56817235983908176422119140625">
        <ele>1161.199951171875</ele>
        <time>2020-08-11T10:54:49.000Z</time>
      </trkpt>
      <trkpt lat="42.22942016087472438812255859375" lon="1.56812810339033603668212890625">
        <ele>1160.5999755859375</ele>
        <time>2020-08-11T10:54:50.000Z</time>
      </trkpt>
      <trkpt lat="42.2292863018810749053955078125" lon="1.56799617223441600799560546875">
        <ele>1159.800048828125</ele>
        <time>2020-08-11T10:54:52.000Z</time>
      </trkpt>
      <trkpt lat="42.2292259521782398223876953125" lon="1.56792073510587215423583984375">
        <ele>1159.199951171875</ele>
        <time>2020-08-11T10:54:53.000Z</time>
      </trkpt>
      <trkpt lat="42.2291689552366733551025390625" lon="1.56784043647348880767822265625">
        <ele>1158.5999755859375</ele>
        <time>2020-08-11T10:54:54.000Z</time>
      </trkpt>
      <trkpt lat="42.22911916673183441162109375" lon="1.5677516721189022064208984375">
        <ele>1158.199951171875</ele>
        <time>2020-08-11T10:54:55.000Z</time>
      </trkpt>
      <trkpt lat="42.22908086143434047698974609375" lon="1.5676507540047168731689453125">
        <ele>1157.4000244140625</ele>
        <time>2020-08-11T10:54:56.000Z</time>
      </trkpt>
      <trkpt lat="42.22900039516389369964599609375" lon="1.56732997857034206390380859375">
        <ele>1156</ele>
        <time>2020-08-11T10:54:59.000Z</time>
      </trkpt>
      <trkpt lat="42.228987403213977813720703125" lon="1.56723140738904476165771484375">
        <ele>1155.5999755859375</ele>
        <time>2020-08-11T10:55:00.000Z</time>
      </trkpt>
      <trkpt lat="42.2290066815912723541259765625" lon="1.56703971326351165771484375">
        <ele>1154.5999755859375</ele>
        <time>2020-08-11T10:55:02.000Z</time>
      </trkpt>
      <trkpt lat="42.22904062829911708831787109375" lon="1.56694583594799041748046875">
        <ele>1154.199951171875</ele>
        <time>2020-08-11T10:55:03.000Z</time>
      </trkpt>
      <trkpt lat="42.22913903184235095977783203125" lon="1.5667636133730411529541015625">
        <ele>1153.199951171875</ele>
        <time>2020-08-11T10:55:05.000Z</time>
      </trkpt>
      <trkpt lat="42.22919653169810771942138671875" lon="1.5666737593710422515869140625">
        <ele>1152.4000244140625</ele>
        <time>2020-08-11T10:55:06.000Z</time>
      </trkpt>
      <trkpt lat="42.22925688140094280242919921875" lon="1.5665855817496776580810546875">
        <ele>1151.199951171875</ele>
        <time>2020-08-11T10:55:07.000Z</time>
      </trkpt>
      <trkpt lat="42.22944346256554126739501953125" lon="1.566334627568721771240234375">
        <ele>1150.199951171875</ele>
        <time>2020-08-11T10:55:10.000Z</time>
      </trkpt>
      <trkpt lat="42.2296272777020931243896484375" lon="1.5661218948662281036376953125">
        <ele>1149</ele>
        <time>2020-08-11T10:55:13.000Z</time>
      </trkpt>
      <trkpt lat="42.2296913154423236846923828125" lon="1.56606263481080532073974609375">
        <ele>1148.4000244140625</ele>
        <time>2020-08-11T10:55:14.000Z</time>
      </trkpt>
      <trkpt lat="42.22975577227771282196044921875" lon="1.5660082362592220306396484375">
        <ele>1147.4000244140625</ele>
        <time>2020-08-11T10:55:15.000Z</time>
      </trkpt>
      <trkpt lat="42.22989239729940891265869140625" lon="1.5659063123166561126708984375">
        <ele>1146.199951171875</ele>
        <time>2020-08-11T10:55:17.000Z</time>
      </trkpt>
      <trkpt lat="42.2300242446362972259521484375" lon="1.565779410302639007568359375">
        <ele>1144.800048828125</ele>
        <time>2020-08-11T10:55:19.000Z</time>
      </trkpt>
      <trkpt lat="42.23015139810740947723388671875" lon="1.56562979333102703094482421875">
        <ele>1143.4000244140625</ele>
        <time>2020-08-11T10:55:21.000Z</time>
      </trkpt>
      <trkpt lat="42.23027913831174373626708984375" lon="1.56546819023787975311279296875">
        <ele>1142.4000244140625</ele>
        <time>2020-08-11T10:55:23.000Z</time>
      </trkpt>
      <trkpt lat="42.230404950678348541259765625" lon="1.5652942657470703125">
        <ele>1141.800048828125</ele>
        <time>2020-08-11T10:55:25.000Z</time>
      </trkpt>
      <trkpt lat="42.2304661385715007781982421875" lon="1.56519963406026363372802734375">
        <ele>1141.199951171875</ele>
        <time>2020-08-11T10:55:26.000Z</time>
      </trkpt>
      <trkpt lat="42.23063838668167591094970703125" lon="1.5648941136896610260009765625">
        <ele>1139.5999755859375</ele>
        <time>2020-08-11T10:55:29.000Z</time>
      </trkpt>
      <trkpt lat="42.2307440824806690216064453125" lon="1.56467777676880359649658203125">
        <ele>1138</ele>
        <time>2020-08-11T10:55:31.000Z</time>
      </trkpt>
      <trkpt lat="42.23084659315645694732666015625" lon="1.5644612722098827362060546875">
        <ele>1137</ele>
        <time>2020-08-11T10:55:33.000Z</time>
      </trkpt>
      <trkpt lat="42.23093594424426555633544921875" lon="1.56425029970705509185791015625">
        <ele>1135.4000244140625</ele>
        <time>2020-08-11T10:55:35.000Z</time>
      </trkpt>
      <trkpt lat="42.2310092858970165252685546875" lon="1.5640384890139102935791015625">
        <ele>1134.199951171875</ele>
        <time>2020-08-11T10:55:37.000Z</time>
      </trkpt>
      <trkpt lat="42.23107977770268917083740234375" lon="1.563871018588542938232421875">
        <ele>1132.5999755859375</ele>
        <time>2020-08-11T10:55:39.000Z</time>
      </trkpt>
      <trkpt lat="42.23112554289400577545166015625" lon="1.56382181681692600250244140625">
        <ele>1132</ele>
        <time>2020-08-11T10:55:40.000Z</time>
      </trkpt>
      <trkpt lat="42.231181450188159942626953125" lon="1.563795916736125946044921875">
        <ele>1131.4000244140625</ele>
        <time>2020-08-11T10:55:41.000Z</time>
      </trkpt>
      <trkpt lat="42.231314219534397125244140625" lon="1.56379424035549163818359375">
        <ele>1130</ele>
        <time>2020-08-11T10:55:43.000Z</time>
      </trkpt>
      <trkpt lat="42.2313858009874820709228515625" lon="1.56380656175315380096435546875">
        <ele>1129.4000244140625</ele>
        <time>2020-08-11T10:55:44.000Z</time>
      </trkpt>
      <trkpt lat="42.231458388268947601318359375" lon="1.56382265500724315643310546875">
        <ele>1129</ele>
        <time>2020-08-11T10:55:45.000Z</time>
      </trkpt>
      <trkpt lat="42.23159811459481716156005859375" lon="1.56386665999889373779296875">
        <ele>1128</ele>
        <time>2020-08-11T10:55:47.000Z</time>
      </trkpt>
      <trkpt lat="42.23166265524923801422119140625" lon="1.563902534544467926025390625">
        <ele>1127.4000244140625</ele>
        <time>2020-08-11T10:55:48.000Z</time>
      </trkpt>
      <trkpt lat="42.231721244752407073974609375" lon="1.56395173631608486175537109375">
        <ele>1126.800048828125</ele>
        <time>2020-08-11T10:55:49.000Z</time>
      </trkpt>
      <trkpt lat="42.2318250127136707305908203125" lon="1.5640733577311038970947265625">
        <ele>1126</ele>
        <time>2020-08-11T10:55:51.000Z</time>
      </trkpt>
      <trkpt lat="42.2318763099610805511474609375" lon="1.56413328833878040313720703125">
        <ele>1125.4000244140625</ele>
        <time>2020-08-11T10:55:52.000Z</time>
      </trkpt>
      <trkpt lat="42.23197714425623416900634765625" lon="1.5642433427274227142333984375">
        <ele>1123.800048828125</ele>
        <time>2020-08-11T10:55:54.000Z</time>
      </trkpt>
      <trkpt lat="42.23206481896340847015380859375" lon="1.5643328614532947540283203125">
        <ele>1122.5999755859375</ele>
        <time>2020-08-11T10:55:56.000Z</time>
      </trkpt>
      <trkpt lat="42.23210052587091922760009765625" lon="1.56436848454177379608154296875">
        <ele>1122.4000244140625</ele>
        <time>2020-08-11T10:55:57.000Z</time>
      </trkpt>
      <trkpt lat="42.23214394412934780120849609375" lon="1.56441709958016872406005859375">
        <ele>1121.4000244140625</ele>
        <time>2020-08-11T10:56:00.000Z</time>
      </trkpt>
      <trkpt lat="42.23214176483452320098876953125" lon="1.5644160099327564239501953125">
        <ele>1121</ele>
        <time>2020-08-11T10:56:17.000Z</time>
      </trkpt>
      <trkpt lat="42.232141681015491485595703125" lon="1.56441626138985157012939453125">
        <ele>1120.800048828125</ele>
        <time>2020-08-11T10:56:34.000Z</time>
      </trkpt>
      <trkpt lat="42.23214159719645977020263671875" lon="1.5644150041043758392333984375">
        <ele>1120.800048828125</ele>
        <time>2020-08-11T10:56:48.000Z</time>
      </trkpt>
      <trkpt lat="42.23214511759579181671142578125" lon="1.56440469436347484588623046875">
        <ele>1120.4000244140625</ele>
        <time>2020-08-11T10:57:22.000Z</time>
      </trkpt>
      <trkpt lat="42.232145033776760101318359375" lon="1.56439849175512790679931640625">
        <ele>1120.5999755859375</ele>
        <time>2020-08-11T10:57:23.000Z</time>
      </trkpt>
      <trkpt lat="42.232117541134357452392578125" lon="1.56435272656381130218505859375">
        <ele>1120.5999755859375</ele>
        <time>2020-08-11T10:57:27.000Z</time>
      </trkpt>
      <trkpt lat="42.2321079857647418975830078125" lon="1.56434149481356143951416015625">
        <ele>1120.800048828125</ele>
        <time>2020-08-11T10:57:28.000Z</time>
      </trkpt>
      <trkpt lat="42.23204034380614757537841796875" lon="1.5642255730926990509033203125">
        <ele>1121.5999755859375</ele>
        <time>2020-08-11T10:57:36.000Z</time>
      </trkpt>
      <trkpt lat="42.2320348955690860748291015625" lon="1.56421710737049579620361328125">
        <ele>1121.5999755859375</ele>
        <time>2020-08-11T10:57:40.000Z</time>
      </trkpt>
      <trkpt lat="42.2320348955690860748291015625" lon="1.5642171911895275115966796875">
        <ele>1121.5999755859375</ele>
        <time>2020-08-11T10:57:41.000Z</time>
      </trkpt>
      <trkpt lat="42.232035063207149505615234375" lon="1.56421761028468608856201171875">
        <ele>1121.4000244140625</ele>
        <time>2020-08-11T10:57:55.000Z</time>
      </trkpt>
      <trkpt lat="42.2320097498595714569091796875" lon="1.5641638822853565216064453125">
        <ele>1121.4000244140625</ele>
        <time>2020-08-11T10:58:07.000Z</time>
      </trkpt>
      <trkpt lat="42.23191000521183013916015625" lon="1.563998758792877197265625">
        <ele>1121</ele>
        <time>2020-08-11T10:58:11.000Z</time>
      </trkpt>
      <trkpt lat="42.23185208626091480255126953125" lon="1.5639010258018970489501953125">
        <ele>1120.4000244140625</ele>
        <time>2020-08-11T10:58:13.000Z</time>
      </trkpt>
      <trkpt lat="42.23179341293871402740478515625" lon="1.56380253843963146209716796875">
        <ele>1119.199951171875</ele>
        <time>2020-08-11T10:58:15.000Z</time>
      </trkpt>
      <trkpt lat="42.23173608072102069854736328125" lon="1.5637012012302875518798828125">
        <ele>1118</ele>
        <time>2020-08-11T10:58:17.000Z</time>
      </trkpt>
      <trkpt lat="42.23170288838446140289306640625" lon="1.56365015543997287750244140625">
        <ele>1117.800048828125</ele>
        <time>2020-08-11T10:58:18.000Z</time>
      </trkpt>
      <trkpt lat="42.23166584037244319915771484375" lon="1.56360254622995853424072265625">
        <ele>1117</ele>
        <time>2020-08-11T10:58:19.000Z</time>
      </trkpt>
      <trkpt lat="42.23158587701618671417236328125" lon="1.5635224990546703338623046875">
        <ele>1116.800048828125</ele>
        <time>2020-08-11T10:58:21.000Z</time>
      </trkpt>
      <trkpt lat="42.231496274471282958984375" lon="1.5634785778820514678955078125">
        <ele>1116.5999755859375</ele>
        <time>2020-08-11T10:58:23.000Z</time>
      </trkpt>
      <trkpt lat="42.2313495911657810211181640625" lon="1.56348151154816150665283203125">
        <ele>1116.199951171875</ele>
        <time>2020-08-11T10:58:26.000Z</time>
      </trkpt>
      <trkpt lat="42.23124037496745586395263671875" lon="1.5634940005838871002197265625">
        <ele>1116.199951171875</ele>
        <time>2020-08-11T10:58:28.000Z</time>
      </trkpt>
      <trkpt lat="42.231051027774810791015625" lon="1.56351017765700817108154296875">
        <ele>1116</ele>
        <time>2020-08-11T10:58:32.000Z</time>
      </trkpt>
      <trkpt lat="42.23100936971604824066162109375" lon="1.56350648961961269378662109375">
        <ele>1115.5999755859375</ele>
        <time>2020-08-11T10:58:33.000Z</time>
      </trkpt>
      <trkpt lat="42.2309690527617931365966796875" lon="1.56349659897387027740478515625">
        <ele>1114.800048828125</ele>
        <time>2020-08-11T10:58:34.000Z</time>
      </trkpt>
      <trkpt lat="42.23085044883191585540771484375" lon="1.5634473972022533416748046875">
        <ele>1113.4000244140625</ele>
        <time>2020-08-11T10:58:37.000Z</time>
      </trkpt>
      <trkpt lat="42.2308163344860076904296875" lon="1.56342334114015102386474609375">
        <ele>1113.199951171875</ele>
        <time>2020-08-11T10:58:38.000Z</time>
      </trkpt>
      <trkpt lat="42.23071684129536151885986328125" lon="1.56335896812379360198974609375">
        <ele>1112.199951171875</ele>
        <time>2020-08-11T10:58:43.000Z</time>
      </trkpt>
      <trkpt lat="42.23068557679653167724609375" lon="1.56333264894783496856689453125">
        <ele>1112.4000244140625</ele>
        <time>2020-08-11T10:58:52.000Z</time>
      </trkpt>
      <trkpt lat="42.230554483830928802490234375" lon="1.563230641186237335205078125">
        <ele>1112.5999755859375</ele>
        <time>2020-08-11T10:58:59.000Z</time>
      </trkpt>
      <trkpt lat="42.23042649216949939727783203125" lon="1.56310449354350566864013671875">
        <ele>1112</ele>
        <time>2020-08-11T10:59:04.000Z</time>
      </trkpt>
      <trkpt lat="42.230394892394542694091796875" lon="1.5630591474473476409912109375">
        <ele>1112</ele>
        <time>2020-08-11T10:59:05.000Z</time>
      </trkpt>
      <trkpt lat="42.230307050049304962158203125" lon="1.56283493153750896453857421875">
        <ele>1111.800048828125</ele>
        <time>2020-08-11T10:59:09.000Z</time>
      </trkpt>
      <trkpt lat="42.230330519378185272216796875" lon="1.562607698142528533935546875">
        <ele>1112</ele>
        <time>2020-08-11T10:59:13.000Z</time>
      </trkpt>
      <trkpt lat="42.2303464449942111968994140625" lon="1.56255908310413360595703125">
        <ele>1112</ele>
        <time>2020-08-11T10:59:14.000Z</time>
      </trkpt>
      <trkpt lat="42.2303628735244274139404296875" lon="1.56251289881765842437744140625">
        <ele>1111.5999755859375</ele>
        <time>2020-08-11T10:59:15.000Z</time>
      </trkpt>
      <trkpt lat="42.23042833618819713592529296875" lon="1.56232363544404506683349609375">
        <ele>1111.800048828125</ele>
        <time>2020-08-11T10:59:20.000Z</time>
      </trkpt>
      <trkpt lat="42.2304647974669933319091796875" lon="1.56211207620799541473388671875">
        <ele>1112.5999755859375</ele>
        <time>2020-08-11T10:59:27.000Z</time>
      </trkpt>
      <trkpt lat="42.23046756349503993988037109375" lon="1.56205373816192150115966796875">
        <ele>1113</ele>
        <time>2020-08-11T10:59:29.000Z</time>
      </trkpt>
      <trkpt lat="42.230470664799213409423828125" lon="1.5619192086160182952880859375">
        <ele>1114</ele>
        <time>2020-08-11T10:59:34.000Z</time>
      </trkpt>
      <trkpt lat="42.23046873696148395538330078125" lon="1.56189263798296451568603515625">
        <ele>1114.199951171875</ele>
        <time>2020-08-11T10:59:35.000Z</time>
      </trkpt>
      <trkpt lat="42.230457253754138946533203125" lon="1.5617492236196994781494140625">
        <ele>1115</ele>
        <time>2020-08-11T10:59:41.000Z</time>
      </trkpt>
      <trkpt lat="42.230456583201885223388671875" lon="1.56168065965175628662109375">
        <ele>1116.199951171875</ele>
        <time>2020-08-11T10:59:44.000Z</time>
      </trkpt>
      <trkpt lat="42.23045532591640949249267578125" lon="1.5616585314273834228515625">
        <ele>1116.199951171875</ele>
        <time>2020-08-11T10:59:45.000Z</time>
      </trkpt>
      <trkpt lat="42.2304202057421207427978515625" lon="1.56153925694525241851806640625">
        <ele>1117</ele>
        <time>2020-08-11T10:59:51.000Z</time>
      </trkpt>
      <trkpt lat="42.23040796816349029541015625" lon="1.56153121031820774078369140625">
        <ele>1117.199951171875</ele>
        <time>2020-08-11T10:59:52.000Z</time>
      </trkpt>
      <trkpt lat="42.23039732314646244049072265625" lon="1.561520732939243316650390625">
        <ele>1117.4000244140625</ele>
        <time>2020-08-11T10:59:53.000Z</time>
      </trkpt>
      <trkpt lat="42.230376116931438446044921875" lon="1.56144755892455577850341796875">
        <ele>1118.199951171875</ele>
        <time>2020-08-11T10:59:57.000Z</time>
      </trkpt>
      <trkpt lat="42.230374775826930999755859375" lon="1.5614179708063602447509765625">
        <ele>1118.199951171875</ele>
        <time>2020-08-11T10:59:58.000Z</time>
      </trkpt>
      <trkpt lat="42.2303508035838603973388671875" lon="1.56119056977331638336181640625">
        <ele>1117.4000244140625</ele>
        <time>2020-08-11T11:00:04.000Z</time>
      </trkpt>
      <trkpt lat="42.230347953736782073974609375" lon="1.56101941131055355072021484375">
        <ele>1117.4000244140625</ele>
        <time>2020-08-11T11:00:09.000Z</time>
      </trkpt>
      <trkpt lat="42.23038659431040287017822265625" lon="1.56080357730388641357421875">
        <ele>1116.5999755859375</ele>
        <time>2020-08-11T11:00:15.000Z</time>
      </trkpt>
      <trkpt lat="42.2303984127938747406005859375" lon="1.56076158396899700164794921875">
        <ele>1116.4000244140625</ele>
        <time>2020-08-11T11:00:16.000Z</time>
      </trkpt>
      <trkpt lat="42.23045214079320430755615234375" lon="1.5605921857059001922607421875">
        <ele>1115.199951171875</ele>
        <time>2020-08-11T11:00:20.000Z</time>
      </trkpt>
      <trkpt lat="42.23046789877116680145263671875" lon="1.56051264144480228424072265625">
        <ele>1115.199951171875</ele>
        <time>2020-08-11T11:00:22.000Z</time>
      </trkpt>
      <trkpt lat="42.23047276027500629425048828125" lon="1.56044818460941314697265625">
        <ele>1115.199951171875</ele>
        <time>2020-08-11T11:00:24.000Z</time>
      </trkpt>
      <trkpt lat="42.23047829233109951019287109375" lon="1.56039529480040073394775390625">
        <ele>1115.199951171875</ele>
        <time>2020-08-11T11:00:26.000Z</time>
      </trkpt>
      <trkpt lat="42.230472005903720855712890625" lon="1.56024634838104248046875">
        <ele>1115.4000244140625</ele>
        <time>2020-08-11T11:00:32.000Z</time>
      </trkpt>
      <trkpt lat="42.23046001978218555450439453125" lon="1.56007208861410617828369140625">
        <ele>1115.800048828125</ele>
        <time>2020-08-11T11:00:39.000Z</time>
      </trkpt>
      <trkpt lat="42.2304419986903667449951171875" lon="1.55992448329925537109375">
        <ele>1115.5999755859375</ele>
        <time>2020-08-11T11:00:45.000Z</time>
      </trkpt>
      <trkpt lat="42.23044342361390590667724609375" lon="1.559825241565704345703125">
        <ele>1115.800048828125</ele>
        <time>2020-08-11T11:00:49.000Z</time>
      </trkpt>
      <trkpt lat="42.2304456867277622222900390625" lon="1.55979800038039684295654296875">
        <ele>1116</ele>
        <time>2020-08-11T11:00:50.000Z</time>
      </trkpt>
      <trkpt lat="42.230447866022586822509765625" lon="1.5597258321940898895263671875">
        <ele>1116.5999755859375</ele>
        <time>2020-08-11T11:00:53.000Z</time>
      </trkpt>
      <trkpt lat="42.23044007085263729095458984375" lon="1.55967210419476032257080078125">
        <ele>1117</ele>
        <time>2020-08-11T11:00:55.000Z</time>
      </trkpt>
      <trkpt lat="42.23040838725864887237548828125" lon="1.5594934858381748199462890625">
        <ele>1117</ele>
        <time>2020-08-11T11:01:01.000Z</time>
      </trkpt>
      <trkpt lat="42.23037033341825008392333984375" lon="1.55923808924853801727294921875">
        <ele>1117.4000244140625</ele>
        <time>2020-08-11T11:01:09.000Z</time>
      </trkpt>
      <trkpt lat="42.23033999092876911163330078125" lon="1.559072546660900115966796875">
        <ele>1117.4000244140625</ele>
        <time>2020-08-11T11:01:15.000Z</time>
      </trkpt>
      <trkpt lat="42.23032456822693347930908203125" lon="1.55898177064955234527587890625">
        <ele>1118</ele>
        <time>2020-08-11T11:01:19.000Z</time>
      </trkpt>
      <trkpt lat="42.23032104782760143280029296875" lon="1.55895955860614776611328125">
        <ele>1118.199951171875</ele>
        <time>2020-08-11T11:01:20.000Z</time>
      </trkpt>
      <trkpt lat="42.23028701730072498321533203125" lon="1.55882519669830799102783203125">
        <ele>1118.800048828125</ele>
        <time>2020-08-11T11:01:25.000Z</time>
      </trkpt>
      <trkpt lat="42.23025717772543430328369140625" lon="1.55871924944221973419189453125">
        <ele>1119</ele>
        <time>2020-08-11T11:01:29.000Z</time>
      </trkpt>
      <trkpt lat="42.23024929873645305633544921875" lon="1.558691672980785369873046875">
        <ele>1119.199951171875</ele>
        <time>2020-08-11T11:01:30.000Z</time>
      </trkpt>
      <trkpt lat="42.23024577833712100982666015625" lon="1.55866526998579502105712890625">
        <ele>1119.199951171875</ele>
        <time>2020-08-11T11:01:31.000Z</time>
      </trkpt>
      <trkpt lat="42.2302431799471378326416015625" lon="1.558528058230876922607421875">
        <ele>1120</ele>
        <time>2020-08-11T11:01:36.000Z</time>
      </trkpt>
      <trkpt lat="42.23024410195648670196533203125" lon="1.558498553931713104248046875">
        <ele>1120</ele>
        <time>2020-08-11T11:01:37.000Z</time>
      </trkpt>
      <trkpt lat="42.2302421741187572479248046875" lon="1.55843493528664112091064453125">
        <ele>1120.199951171875</ele>
        <time>2020-08-11T11:01:39.000Z</time>
      </trkpt>
      <trkpt lat="42.2302450239658355712890625" lon="1.55830702744424343109130859375">
        <ele>1119.5999755859375</ele>
        <time>2020-08-11T11:01:43.000Z</time>
      </trkpt>
      <trkpt lat="42.23024301230907440185546875" lon="1.55827693641185760498046875">
        <ele>1119.4000244140625</ele>
        <time>2020-08-11T11:01:44.000Z</time>
      </trkpt>
      <trkpt lat="42.23024007864296436309814453125" lon="1.55814575962722301483154296875">
        <ele>1119</ele>
        <time>2020-08-11T11:01:48.000Z</time>
      </trkpt>
      <trkpt lat="42.23023069091141223907470703125" lon="1.55799320898950099945068359375">
        <ele>1119.4000244140625</ele>
        <time>2020-08-11T11:01:53.000Z</time>
      </trkpt>
      <trkpt lat="42.23021929152309894561767578125" lon="1.5578214637935161590576171875">
        <ele>1119.800048828125</ele>
        <time>2020-08-11T11:01:58.000Z</time>
      </trkpt>
      <trkpt lat="42.2301952354609966278076171875" lon="1.55765868723392486572265625">
        <ele>1119.800048828125</ele>
        <time>2020-08-11T11:02:02.000Z</time>
      </trkpt>
      <trkpt lat="42.230146788060665130615234375" lon="1.5573936514556407928466796875">
        <ele>1119.199951171875</ele>
        <time>2020-08-11T11:02:07.000Z</time>
      </trkpt>
      <trkpt lat="42.23011158406734466552734375" lon="1.55715644359588623046875">
        <ele>1118</ele>
        <time>2020-08-11T11:02:11.000Z</time>
      </trkpt>
      <trkpt lat="42.2301057167351245880126953125" lon="1.55709408223628997802734375">
        <ele>1116.4000244140625</ele>
        <time>2020-08-11T11:02:12.000Z</time>
      </trkpt>
      <trkpt lat="42.23010060377418994903564453125" lon="1.55703079886734485626220703125">
        <ele>1116</ele>
        <time>2020-08-11T11:02:13.000Z</time>
      </trkpt>
      <trkpt lat="42.23009993322193622589111328125" lon="1.556916050612926483154296875">
        <ele>1115.4000244140625</ele>
        <time>2020-08-11T11:02:15.000Z</time>
      </trkpt>
      <trkpt lat="42.2300909645855426788330078125" lon="1.55682795681059360504150390625">
        <ele>1115.5999755859375</ele>
        <time>2020-08-11T11:02:17.000Z</time>
      </trkpt>
      <trkpt lat="42.23007881082594394683837890625" lon="1.5567331574857234954833984375">
        <ele>1116.800048828125</ele>
        <time>2020-08-11T11:02:19.000Z</time>
      </trkpt>
      <trkpt lat="42.23003908060491085052490234375" lon="1.5565661899745464324951171875">
        <ele>1115.5999755859375</ele>
        <time>2020-08-11T11:02:22.000Z</time>
      </trkpt>
      <trkpt lat="42.22999163903295993804931640625" lon="1.55638807453215122222900390625">
        <ele>1114.199951171875</ele>
        <time>2020-08-11T11:02:25.000Z</time>
      </trkpt>
      <trkpt lat="42.22999432124197483062744140625" lon="1.5562163293361663818359375">
        <ele>1113.199951171875</ele>
        <time>2020-08-11T11:02:28.000Z</time>
      </trkpt>
      <trkpt lat="42.2300765477120876312255859375" lon="1.55602396465837955474853515625">
        <ele>1113</ele>
        <time>2020-08-11T11:02:32.000Z</time>
      </trkpt>
      <trkpt lat="42.2300996817648410797119140625" lon="1.5559811331331729888916015625">
        <ele>1112.800048828125</ele>
        <time>2020-08-11T11:02:33.000Z</time>
      </trkpt>
      <trkpt lat="42.23019816912710666656494140625" lon="1.55582313425838947296142578125">
        <ele>1112.4000244140625</ele>
        <time>2020-08-11T11:02:37.000Z</time>
      </trkpt>
      <trkpt lat="42.23022331483662128448486328125" lon="1.5557896904647350311279296875">
        <ele>1112.4000244140625</ele>
        <time>2020-08-11T11:02:38.000Z</time>
      </trkpt>
      <trkpt lat="42.230366058647632598876953125" lon="1.55553161166608333587646484375">
        <ele>1112.199951171875</ele>
        <time>2020-08-11T11:02:45.000Z</time>
      </trkpt>
      <trkpt lat="42.2304175235331058502197265625" lon="1.555302701890468597412109375">
        <ele>1111.5999755859375</ele>
        <time>2020-08-11T11:02:50.000Z</time>
      </trkpt>
      <trkpt lat="42.23041844554245471954345703125" lon="1.55517571605741977691650390625">
        <ele>1111.5999755859375</ele>
        <time>2020-08-11T11:02:53.000Z</time>
      </trkpt>
      <trkpt lat="42.230411656200885772705078125" lon="1.5551208145916461944580078125">
        <ele>1111.4000244140625</ele>
        <time>2020-08-11T11:02:54.000Z</time>
      </trkpt>
      <trkpt lat="42.2304094769060611724853515625" lon="1.5550574474036693572998046875">
        <ele>1111.199951171875</ele>
        <time>2020-08-11T11:02:55.000Z</time>
      </trkpt>
      <trkpt lat="42.2304248996078968048095703125" lon="1.55492643825709819793701171875">
        <ele>1110.4000244140625</ele>
        <time>2020-08-11T11:02:57.000Z</time>
      </trkpt>
      <trkpt lat="42.23044342361390590667724609375" lon="1.55486424453556537628173828125">
        <ele>1110.199951171875</ele>
        <time>2020-08-11T11:02:58.000Z</time>
      </trkpt>
      <trkpt lat="42.23054182715713977813720703125" lon="1.55473264865577220916748046875">
        <ele>1109.5999755859375</ele>
        <time>2020-08-11T11:03:01.000Z</time>
      </trkpt>
      <trkpt lat="42.23056999035179615020751953125" lon="1.554698534309864044189453125">
        <ele>1109</ele>
        <time>2020-08-11T11:03:02.000Z</time>
      </trkpt>
      <trkpt lat="42.23063620738685131072998046875" lon="1.55459786765277385711669921875">
        <ele>1108.800048828125</ele>
        <time>2020-08-11T11:03:05.000Z</time>
      </trkpt>
      <trkpt lat="42.230738215148448944091796875" lon="1.554442383348941802978515625">
        <ele>1108.800048828125</ele>
        <time>2020-08-11T11:03:09.000Z</time>
      </trkpt>
      <trkpt lat="42.2307668812572956085205078125" lon="1.554397456347942352294921875">
        <ele>1108.800048828125</ele>
        <time>2020-08-11T11:03:10.000Z</time>
      </trkpt>
      <trkpt lat="42.230912558734416961669921875" lon="1.55424130149185657501220703125">
        <ele>1108.4000244140625</ele>
        <time>2020-08-11T11:03:14.000Z</time>
      </trkpt>
      <trkpt lat="42.23094952292740345001220703125" lon="1.5542180836200714111328125">
        <ele>1108</ele>
        <time>2020-08-11T11:03:15.000Z</time>
      </trkpt>
      <trkpt lat="42.2310575656592845916748046875" lon="1.55417994596064090728759765625">
        <ele>1106.800048828125</ele>
        <time>2020-08-11T11:03:18.000Z</time>
      </trkpt>
      <trkpt lat="42.2310952842235565185546875" lon="1.5541595779359340667724609375">
        <ele>1106.5999755859375</ele>
        <time>2020-08-11T11:03:19.000Z</time>
      </trkpt>
      <trkpt lat="42.23118857480585575103759765625" lon="1.554002501070499420166015625">
        <ele>1106.4000244140625</ele>
        <time>2020-08-11T11:03:23.000Z</time>
      </trkpt>
      <trkpt lat="42.23120081238448619842529296875" lon="1.5537629462778568267822265625">
        <ele>1106</ele>
        <time>2020-08-11T11:03:28.000Z</time>
      </trkpt>
      <trkpt lat="42.23121137358248233795166015625" lon="1.55344359576702117919921875">
        <ele>1107</ele>
        <time>2020-08-11T11:03:36.000Z</time>
      </trkpt>
      <trkpt lat="42.23122092895209789276123046875" lon="1.5532962419092655181884765625">
        <ele>1107.5999755859375</ele>
        <time>2020-08-11T11:03:41.000Z</time>
      </trkpt>
      <trkpt lat="42.2312312386929988861083984375" lon="1.553092561662197113037109375">
        <ele>1108.199951171875</ele>
        <time>2020-08-11T11:03:48.000Z</time>
      </trkpt>
      <trkpt lat="42.23121405579149723052978515625" lon="1.55302424915134906768798828125">
        <ele>1108.199951171875</ele>
        <time>2020-08-11T11:03:50.000Z</time>
      </trkpt>
      <trkpt lat="42.23118446767330169677734375" lon="1.5528395958244800567626953125">
        <ele>1108.800048828125</ele>
        <time>2020-08-11T11:03:56.000Z</time>
      </trkpt>
      <trkpt lat="42.23117281682789325714111328125" lon="1.55261688865721225738525390625">
        <ele>1109</ele>
        <time>2020-08-11T11:04:03.000Z</time>
      </trkpt>
      <trkpt lat="42.23117181099951267242431640625" lon="1.55258595943450927734375">
        <ele>1109.199951171875</ele>
        <time>2020-08-11T11:04:04.000Z</time>
      </trkpt>
      <trkpt lat="42.23116745240986347198486328125" lon="1.55240356922149658203125">
        <ele>1109.800048828125</ele>
        <time>2020-08-11T11:04:10.000Z</time>
      </trkpt>
      <trkpt lat="42.231167368590831756591796875" lon="1.55222587287425994873046875">
        <ele>1110.5999755859375</ele>
        <time>2020-08-11T11:04:16.000Z</time>
      </trkpt>
      <trkpt lat="42.23118052817881107330322265625" lon="1.5521727316081523895263671875">
        <ele>1111</ele>
        <time>2020-08-11T11:04:18.000Z</time>
      </trkpt>
      <trkpt lat="42.231221683323383331298828125" lon="1.55203686095774173736572265625">
        <ele>1111.5999755859375</ele>
        <time>2020-08-11T11:04:23.000Z</time>
      </trkpt>
      <trkpt lat="42.2312248684465885162353515625" lon="1.552010290324687957763671875">
        <ele>1111.800048828125</ele>
        <time>2020-08-11T11:04:24.000Z</time>
      </trkpt>
      <trkpt lat="42.23122076131403446197509765625" lon="1.551841311156749725341796875">
        <ele>1111.800048828125</ele>
        <time>2020-08-11T11:04:30.000Z</time>
      </trkpt>
      <trkpt lat="42.231186144053936004638671875" lon="1.55171046964824199676513671875">
        <ele>1113</ele>
        <time>2020-08-11T11:04:35.000Z</time>
      </trkpt>
      <trkpt lat="42.23115471191704273223876953125" lon="1.5516389720141887664794921875">
        <ele>1113</ele>
        <time>2020-08-11T11:04:38.000Z</time>
      </trkpt>
      <trkpt lat="42.23106653429567813873291015625" lon="1.55147057957947254180908203125">
        <ele>1113.199951171875</ele>
        <time>2020-08-11T11:04:45.000Z</time>
      </trkpt>
      <trkpt lat="42.23098355345427989959716796875" lon="1.5512772090733051300048828125">
        <ele>1113.5999755859375</ele>
        <time>2020-08-11T11:04:52.000Z</time>
      </trkpt>
      <trkpt lat="42.23097483627498149871826171875" lon="1.5512461960315704345703125">
        <ele>1114.199951171875</ele>
        <time>2020-08-11T11:04:53.000Z</time>
      </trkpt>
      <trkpt lat="42.2309370338916778564453125" lon="1.55112960375845432281494140625">
        <ele>1114.4000244140625</ele>
        <time>2020-08-11T11:04:57.000Z</time>
      </trkpt>
      <trkpt lat="42.2309182584285736083984375" lon="1.55097571201622486114501953125">
        <ele>1114.800048828125</ele>
        <time>2020-08-11T11:05:02.000Z</time>
      </trkpt>
      <trkpt lat="42.23092555068433284759521484375" lon="1.5508514083921909332275390625">
        <ele>1114.800048828125</ele>
        <time>2020-08-11T11:05:06.000Z</time>
      </trkpt>
      <trkpt lat="42.23093636333942413330078125" lon="1.5508195571601390838623046875">
        <ele>1114.800048828125</ele>
        <time>2020-08-11T11:05:07.000Z</time>
      </trkpt>
      <trkpt lat="42.23098338581621646881103515625" lon="1.55061520636081695556640625">
        <ele>1115.199951171875</ele>
        <time>2020-08-11T11:05:13.000Z</time>
      </trkpt>
      <trkpt lat="42.2310072742402553558349609375" lon="1.55049257911741733551025390625">
        <ele>1115.4000244140625</ele>
        <time>2020-08-11T11:05:17.000Z</time>
      </trkpt>
      <trkpt lat="42.23102294839918613433837890625" lon="1.55043072067201137542724609375">
        <ele>1115.5999755859375</ele>
        <time>2020-08-11T11:05:19.000Z</time>
      </trkpt>
      <trkpt lat="42.231062762439250946044921875" lon="1.550331898033618927001953125">
        <ele>1115.5999755859375</ele>
        <time>2020-08-11T11:05:22.000Z</time>
      </trkpt>
      <trkpt lat="42.23107340745627880096435546875" lon="1.5502958558499813079833984375">
        <ele>1115.5999755859375</ele>
        <time>2020-08-11T11:05:23.000Z</time>
      </trkpt>
      <trkpt lat="42.23114532418549060821533203125" lon="1.55005806125700473785400390625">
        <ele>1115.5999755859375</ele>
        <time>2020-08-11T11:05:30.000Z</time>
      </trkpt>
      <trkpt lat="42.2312295623123645782470703125" lon="1.54987491667270660400390625">
        <ele>1115.5999755859375</ele>
        <time>2020-08-11T11:05:36.000Z</time>
      </trkpt>
      <trkpt lat="42.2312508523464202880859375" lon="1.549782045185565948486328125">
        <ele>1115.199951171875</ele>
        <time>2020-08-11T11:05:40.000Z</time>
      </trkpt>
      <trkpt lat="42.23124993033707141876220703125" lon="1.54975279234349727630615234375">
        <ele>1115.199951171875</ele>
        <time>2020-08-11T11:05:41.000Z</time>
      </trkpt>
      <trkpt lat="42.2312503494322299957275390625" lon="1.54966277070343494415283203125">
        <ele>1115</ele>
        <time>2020-08-11T11:05:44.000Z</time>
      </trkpt>
      <trkpt lat="42.23125982098281383514404296875" lon="1.549611724913120269775390625">
        <ele>1114.800048828125</ele>
        <time>2020-08-11T11:05:46.000Z</time>
      </trkpt>
      <trkpt lat="42.23128127865493297576904296875" lon="1.549535952508449554443359375">
        <ele>1114.4000244140625</ele>
        <time>2020-08-11T11:05:48.000Z</time>
      </trkpt>
      <trkpt lat="42.231317572295665740966796875" lon="1.54945515096187591552734375">
        <ele>1114</ele>
        <time>2020-08-11T11:05:50.000Z</time>
      </trkpt>
      <trkpt lat="42.2313408739864826202392578125" lon="1.5494093857705593109130859375">
        <ele>1114</ele>
        <time>2020-08-11T11:05:51.000Z</time>
      </trkpt>
      <trkpt lat="42.23139024339616298675537109375" lon="1.5492578409612178802490234375">
        <ele>1113.5999755859375</ele>
        <time>2020-08-11T11:05:54.000Z</time>
      </trkpt>
      <trkpt lat="42.231400720775127410888671875" lon="1.5491991676390171051025390625">
        <ele>1113</ele>
        <time>2020-08-11T11:05:55.000Z</time>
      </trkpt>
      <trkpt lat="42.2314008884131908416748046875" lon="1.54903295449912548065185546875">
        <ele>1112</ele>
        <time>2020-08-11T11:05:58.000Z</time>
      </trkpt>
      <trkpt lat="42.23139904439449310302734375" lon="1.5489735268056392669677734375">
        <ele>1112</ele>
        <time>2020-08-11T11:05:59.000Z</time>
      </trkpt>
      <trkpt lat="42.23141522146761417388916015625" lon="1.5489242412149906158447265625">
        <ele>1111.4000244140625</ele>
        <time>2020-08-11T11:06:00.000Z</time>
      </trkpt>
      <trkpt lat="42.2314627468585968017578125" lon="1.54882575385272502899169921875">
        <ele>1112.199951171875</ele>
        <time>2020-08-11T11:06:02.000Z</time>
      </trkpt>
      <trkpt lat="42.231530137360095977783203125" lon="1.54867387376725673675537109375">
        <ele>1111</ele>
        <time>2020-08-11T11:06:05.000Z</time>
      </trkpt>
      <trkpt lat="42.231560647487640380859375" lon="1.5486203134059906005859375">
        <ele>1110.5999755859375</ele>
        <time>2020-08-11T11:06:06.000Z</time>
      </trkpt>
      <trkpt lat="42.2316184826195240020751953125" lon="1.54851092956960201263427734375">
        <ele>1109.4000244140625</ele>
        <time>2020-08-11T11:06:08.000Z</time>
      </trkpt>
      <trkpt lat="42.23169316537678241729736328125" lon="1.54841856099665164947509765625">
        <ele>1108.199951171875</ele>
        <time>2020-08-11T11:06:10.000Z</time>
      </trkpt>
      <trkpt lat="42.23173423670232295989990234375" lon="1.54837153851985931396484375">
        <ele>1108</ele>
        <time>2020-08-11T11:06:11.000Z</time>
      </trkpt>
      <trkpt lat="42.23191243596374988555908203125" lon="1.54824706725776195526123046875">
        <ele>1107.800048828125</ele>
        <time>2020-08-11T11:06:15.000Z</time>
      </trkpt>
      <trkpt lat="42.23199977539479732513427734375" lon="1.548218987882137298583984375">
        <ele>1107</ele>
        <time>2020-08-11T11:06:17.000Z</time>
      </trkpt>
      <trkpt lat="42.23213740624487400054931640625" lon="1.5481930039823055267333984375">
        <ele>1105.800048828125</ele>
        <time>2020-08-11T11:06:20.000Z</time>
      </trkpt>
      <trkpt lat="42.23232440650463104248046875" lon="1.5481514297425746917724609375">
        <ele>1104.5999755859375</ele>
        <time>2020-08-11T11:06:24.000Z</time>
      </trkpt>
      <trkpt lat="42.2324073873460292816162109375" lon="1.54812133871018886566162109375">
        <ele>1104.5999755859375</ele>
        <time>2020-08-11T11:06:26.000Z</time>
      </trkpt>
      <trkpt lat="42.2325334511697292327880859375" lon="1.54803902842104434967041015625">
        <ele>1103.4000244140625</ele>
        <time>2020-08-11T11:06:29.000Z</time>
      </trkpt>
      <trkpt lat="42.23257795907557010650634765625" lon="1.548007428646087646484375">
        <ele>1102.4000244140625</ele>
        <time>2020-08-11T11:06:30.000Z</time>
      </trkpt>
      <trkpt lat="42.23262389190495014190673828125" lon="1.54798454605042934417724609375">
        <ele>1102.199951171875</ele>
        <time>2020-08-11T11:06:31.000Z</time>
      </trkpt>
      <trkpt lat="42.23283578641712665557861328125" lon="1.5478979609906673431396484375">
        <ele>1101</ele>
        <time>2020-08-11T11:06:35.000Z</time>
      </trkpt>
      <trkpt lat="42.23289429210126399993896484375" lon="1.54787407256662845611572265625">
        <ele>1100.800048828125</ele>
        <time>2020-08-11T11:06:36.000Z</time>
      </trkpt>
      <trkpt lat="42.2330071963369846343994140625" lon="1.5478389523923397064208984375">
        <ele>1100.199951171875</ele>
        <time>2020-08-11T11:06:38.000Z</time>
      </trkpt>
      <trkpt lat="42.2330638580024242401123046875" lon="1.54782763682305812835693359375">
        <ele>1100</ele>
        <time>2020-08-11T11:06:39.000Z</time>
      </trkpt>
      <trkpt lat="42.2331718169152736663818359375" lon="1.54779712669551372528076171875">
        <ele>1100</ele>
        <time>2020-08-11T11:06:41.000Z</time>
      </trkpt>
      <trkpt lat="42.2334502637386322021484375" lon="1.54765983112156391143798828125">
        <ele>1099.5999755859375</ele>
        <time>2020-08-11T11:06:46.000Z</time>
      </trkpt>
      <trkpt lat="42.233573310077190399169921875" lon="1.54760182835161685943603515625">
        <ele>1099</ele>
        <time>2020-08-11T11:06:48.000Z</time>
      </trkpt>
      <trkpt lat="42.23374840803444385528564453125" lon="1.547527648508548736572265625">
        <ele>1098.4000244140625</ele>
        <time>2020-08-11T11:06:51.000Z</time>
      </trkpt>
      <trkpt lat="42.23398528061807155609130859375" lon="1.54740585945546627044677734375">
        <ele>1098.199951171875</ele>
        <time>2020-08-11T11:06:57.000Z</time>
      </trkpt>
      <trkpt lat="42.23409541882574558258056640625" lon="1.547343246638774871826171875">
        <ele>1098.199951171875</ele>
        <time>2020-08-11T11:07:00.000Z</time>
      </trkpt>
      <trkpt lat="42.23420589230954647064208984375" lon="1.5472844056785106658935546875">
        <ele>1098</ele>
        <time>2020-08-11T11:07:04.000Z</time>
      </trkpt>
      <trkpt lat="42.2343110851943492889404296875" lon="1.5472233854234218597412109375">
        <ele>1097.800048828125</ele>
        <time>2020-08-11T11:07:09.000Z</time>
      </trkpt>
      <trkpt lat="42.2343358956277370452880859375" lon="1.54719430021941661834716796875">
        <ele>1097.4000244140625</ele>
        <time>2020-08-11T11:07:11.000Z</time>
      </trkpt>
      <trkpt lat="42.23435743711888790130615234375" lon="1.547123305499553680419921875">
        <ele>1097.4000244140625</ele>
        <time>2020-08-11T11:07:14.000Z</time>
      </trkpt>
      <trkpt lat="42.23440689034759998321533203125" lon="1.546956002712249755859375">
        <ele>1097</ele>
        <time>2020-08-11T11:07:19.000Z</time>
      </trkpt>
      <trkpt lat="42.23445550538599491119384765625" lon="1.54676615260541439056396484375">
        <ele>1096.5999755859375</ele>
        <time>2020-08-11T11:07:24.000Z</time>
      </trkpt>
      <trkpt lat="42.23447243683040142059326171875" lon="1.54673044569790363311767578125">
        <ele>1096.5999755859375</ele>
        <time>2020-08-11T11:07:25.000Z</time>
      </trkpt>
      <trkpt lat="42.23452138714492321014404296875" lon="1.5465474687516689300537109375">
        <ele>1096.5999755859375</ele>
        <time>2020-08-11T11:07:30.000Z</time>
      </trkpt>
      <trkpt lat="42.234546281397342681884765625" lon="1.54648250900208950042724609375">
        <ele>1096.5999755859375</ele>
        <time>2020-08-11T11:07:32.000Z</time>
      </trkpt>
      <trkpt lat="42.234616689383983612060546875" lon="1.5463587082922458648681640625">
        <ele>1096.800048828125</ele>
        <time>2020-08-11T11:07:37.000Z</time>
      </trkpt>
      <trkpt lat="42.2347154282033443450927734375" lon="1.54620992951095104217529296875">
        <ele>1097.199951171875</ele>
        <time>2020-08-11T11:07:43.000Z</time>
      </trkpt>
      <trkpt lat="42.2348512150347232818603515625" lon="1.54601412825286388397216796875">
        <ele>1097</ele>
        <time>2020-08-11T11:07:51.000Z</time>
      </trkpt>
      <trkpt lat="42.234988175332546234130859375" lon="1.5458380244672298431396484375">
        <ele>1097.199951171875</ele>
        <time>2020-08-11T11:07:59.000Z</time>
      </trkpt>
      <trkpt lat="42.23507962189614772796630859375" lon="1.54576367698609828948974609375">
        <ele>1097.800048828125</ele>
        <time>2020-08-11T11:08:04.000Z</time>
      </trkpt>
      <trkpt lat="42.235106527805328369140625" lon="1.545745991170406341552734375">
        <ele>1098</ele>
        <time>2020-08-11T11:08:06.000Z</time>
      </trkpt>
      <trkpt lat="42.235139720141887664794921875" lon="1.54571036808192729949951171875">
        <ele>1098</ele>
        <time>2020-08-11T11:08:08.000Z</time>
      </trkpt>
      <trkpt lat="42.2352853976190090179443359375" lon="1.5455235354602336883544921875">
        <ele>1097.4000244140625</ele>
        <time>2020-08-11T11:08:15.000Z</time>
      </trkpt>
      <trkpt lat="42.23539159633219242095947265625" lon="1.5453708171844482421875">
        <ele>1098</ele>
        <time>2020-08-11T11:08:20.000Z</time>
      </trkpt>
      <trkpt lat="42.235403247177600860595703125" lon="1.54534022323787212371826171875">
        <ele>1097.800048828125</ele>
        <time>2020-08-11T11:08:21.000Z</time>
      </trkpt>
      <trkpt lat="42.23544507287442684173583984375" lon="1.5452378802001476287841796875">
        <ele>1097.800048828125</ele>
        <time>2020-08-11T11:08:24.000Z</time>
      </trkpt>
      <trkpt lat="42.23549016751348972320556640625" lon="1.54504585079848766326904296875">
        <ele>1097.199951171875</ele>
        <time>2020-08-11T11:08:29.000Z</time>
      </trkpt>
      <trkpt lat="42.23548513837158679962158203125" lon="1.54495934955775737762451171875">
        <ele>1097</ele>
        <time>2020-08-11T11:08:31.000Z</time>
      </trkpt>
      <trkpt lat="42.235502488911151885986328125" lon="1.5448315255343914031982421875">
        <ele>1096.199951171875</ele>
        <time>2020-08-11T11:08:34.000Z</time>
      </trkpt>
      <trkpt lat="42.2355050034821033477783203125" lon="1.54473588801920413970947265625">
        <ele>1096</ele>
        <time>2020-08-11T11:08:36.000Z</time>
      </trkpt>
      <trkpt lat="42.235503159463405609130859375" lon="1.54444612562656402587890625">
        <ele>1095.199951171875</ele>
        <time>2020-08-11T11:08:41.000Z</time>
      </trkpt>
      <trkpt lat="42.23551212809979915618896484375" lon="1.54434327967464923858642578125">
        <ele>1094.800048828125</ele>
        <time>2020-08-11T11:08:43.000Z</time>
      </trkpt>
      <trkpt lat="42.23555152304470539093017578125" lon="1.54419709928333759307861328125">
        <ele>1095</ele>
        <time>2020-08-11T11:08:46.000Z</time>
      </trkpt>
      <trkpt lat="42.235578596591949462890625" lon="1.5439514257013797760009765625">
        <ele>1094.5999755859375</ele>
        <time>2020-08-11T11:08:51.000Z</time>
      </trkpt>
      <trkpt lat="42.2356092743575572967529296875" lon="1.5436959452927112579345703125">
        <ele>1094.199951171875</ele>
        <time>2020-08-11T11:08:56.000Z</time>
      </trkpt>
      <trkpt lat="42.23562327213585376739501953125" lon="1.54359226115047931671142578125">
        <ele>1093.5999755859375</ele>
        <time>2020-08-11T11:08:58.000Z</time>
      </trkpt>
      <trkpt lat="42.2356599010527133941650390625" lon="1.54349050484597682952880859375">
        <ele>1093.5999755859375</ele>
        <time>2020-08-11T11:09:00.000Z</time>
      </trkpt>
      <trkpt lat="42.23575419746339321136474609375" lon="1.54327710159122943878173828125">
        <ele>1093.4000244140625</ele>
        <time>2020-08-11T11:09:05.000Z</time>
      </trkpt>
      <trkpt lat="42.23583064042031764984130859375" lon="1.543034277856349945068359375">
        <ele>1093.199951171875</ele>
        <time>2020-08-11T11:09:11.000Z</time>
      </trkpt>
      <trkpt lat="42.2358959354460239410400390625" lon="1.542864628136157989501953125">
        <ele>1093.4000244140625</ele>
        <time>2020-08-11T11:09:16.000Z</time>
      </trkpt>
      <trkpt lat="42.235974557697772979736328125" lon="1.542684249579906463623046875">
        <ele>1093.800048828125</ele>
        <time>2020-08-11T11:09:22.000Z</time>
      </trkpt>
      <trkpt lat="42.2359903156757354736328125" lon="1.542519629001617431640625">
        <ele>1093.800048828125</ele>
        <time>2020-08-11T11:09:27.000Z</time>
      </trkpt>
      <trkpt lat="42.2360260225832462310791015625" lon="1.54229776002466678619384765625">
        <ele>1093.800048828125</ele>
        <time>2020-08-11T11:09:32.000Z</time>
      </trkpt>
      <trkpt lat="42.2360337339341640472412109375" lon="1.542114950716495513916015625">
        <ele>1093.4000244140625</ele>
        <time>2020-08-11T11:09:36.000Z</time>
      </trkpt>
      <trkpt lat="42.2360270284116268157958984375" lon="1.542004644870758056640625">
        <ele>1093</ele>
        <time>2020-08-11T11:09:38.000Z</time>
      </trkpt>
      <trkpt lat="42.2360488213598728179931640625" lon="1.54192007146775722503662109375">
        <ele>1092.5999755859375</ele>
        <time>2020-08-11T11:09:40.000Z</time>
      </trkpt>
      <trkpt lat="42.23606667481362819671630859375" lon="1.5418287925422191619873046875">
        <ele>1092.199951171875</ele>
        <time>2020-08-11T11:09:43.000Z</time>
      </trkpt>
      <trkpt lat="42.2360779903829097747802734375" lon="1.5418016351759433746337890625">
        <ele>1092.199951171875</ele>
        <time>2020-08-11T11:09:44.000Z</time>
      </trkpt>
      <trkpt lat="42.23610757850110530853271484375" lon="1.54172779060900211334228515625">
        <ele>1092.5999755859375</ele>
        <time>2020-08-11T11:09:47.000Z</time>
      </trkpt>
      <trkpt lat="42.23612316884100437164306640625" lon="1.541703231632709503173828125">
        <ele>1092.800048828125</ele>
        <time>2020-08-11T11:09:48.000Z</time>
      </trkpt>
      <trkpt lat="42.23616239614784717559814453125" lon="1.54161505401134490966796875">
        <ele>1093.199951171875</ele>
        <time>2020-08-11T11:09:51.000Z</time>
      </trkpt>
      <trkpt lat="42.23617815412580966949462890625" lon="1.5415500104427337646484375">
        <ele>1093.5999755859375</ele>
        <time>2020-08-11T11:09:53.000Z</time>
      </trkpt>
      <trkpt lat="42.2362556867301464080810546875" lon="1.54134574346244335174560546875">
        <ele>1093.4000244140625</ele>
        <time>2020-08-11T11:09:59.000Z</time>
      </trkpt>
      <trkpt lat="42.23634093068540096282958984375" lon="1.541191600263118743896484375">
        <ele>1093.4000244140625</ele>
        <time>2020-08-11T11:10:04.000Z</time>
      </trkpt>
      <trkpt lat="42.23635702393949031829833984375" lon="1.5411562286317348480224609375">
        <ele>1093.4000244140625</ele>
        <time>2020-08-11T11:10:05.000Z</time>
      </trkpt>
      <trkpt lat="42.236382924020290374755859375" lon="1.541085653007030487060546875">
        <ele>1093.5999755859375</ele>
        <time>2020-08-11T11:10:07.000Z</time>
      </trkpt>
      <trkpt lat="42.23639239557087421417236328125" lon="1.541046090424060821533203125">
        <ele>1093.5999755859375</ele>
        <time>2020-08-11T11:10:08.000Z</time>
      </trkpt>
      <trkpt lat="42.2364409267902374267578125" lon="1.54090887866914272308349609375">
        <ele>1094</ele>
        <time>2020-08-11T11:10:12.000Z</time>
      </trkpt>
      <trkpt lat="42.2364796511828899383544921875" lon="1.5408122353255748748779296875">
        <ele>1094</ele>
        <time>2020-08-11T11:10:15.000Z</time>
      </trkpt>
      <trkpt lat="42.23650219850242137908935546875" lon="1.5407424978911876678466796875">
        <ele>1093.800048828125</ele>
        <time>2020-08-11T11:10:17.000Z</time>
      </trkpt>
      <trkpt lat="42.23656992428004741668701171875" lon="1.54062665998935699462890625">
        <ele>1093.800048828125</ele>
        <time>2020-08-11T11:10:21.000Z</time>
      </trkpt>
      <trkpt lat="42.23657847382128238677978515625" lon="1.54059237800538539886474609375">
        <ele>1094.199951171875</ele>
        <time>2020-08-11T11:10:22.000Z</time>
      </trkpt>
      <trkpt lat="42.23660043440759181976318359375" lon="1.540498919785022735595703125">
        <ele>1094.4000244140625</ele>
        <time>2020-08-11T11:10:25.000Z</time>
      </trkpt>
      <trkpt lat="42.23662105388939380645751953125" lon="1.5404501371085643768310546875">
        <ele>1094.4000244140625</ele>
        <time>2020-08-11T11:10:27.000Z</time>
      </trkpt>
      <trkpt lat="42.23667771555483341217041015625" lon="1.54032868333160877227783203125">
        <ele>1094.5999755859375</ele>
        <time>2020-08-11T11:10:31.000Z</time>
      </trkpt>
      <trkpt lat="42.2367042861878871917724609375" lon="1.54021435417234897613525390625">
        <ele>1094.4000244140625</ele>
        <time>2020-08-11T11:10:35.000Z</time>
      </trkpt>
      <trkpt lat="42.23670856095850467681884765625" lon="1.540156267583370208740234375">
        <ele>1094.4000244140625</ele>
        <time>2020-08-11T11:10:37.000Z</time>
      </trkpt>
      <trkpt lat="42.2367190383374691009521484375" lon="1.54008627869188785552978515625">
        <ele>1094.4000244140625</ele>
        <time>2020-08-11T11:10:40.000Z</time>
      </trkpt>
      <trkpt lat="42.2367193736135959625244140625" lon="1.54006247408688068389892578125">
        <ele>1094.4000244140625</ele>
        <time>2020-08-11T11:10:41.000Z</time>
      </trkpt>
      <trkpt lat="42.23674527369439601898193359375" lon="1.5399415232241153717041015625">
        <ele>1095.199951171875</ele>
        <time>2020-08-11T11:10:45.000Z</time>
      </trkpt>
      <trkpt lat="42.23675264976918697357177734375" lon="1.5399066545069217681884765625">
        <ele>1095.199951171875</ele>
        <time>2020-08-11T11:10:46.000Z</time>
      </trkpt>
      <trkpt lat="42.2367612831294536590576171875" lon="1.53979190625250339508056640625">
        <ele>1095.5999755859375</ele>
        <time>2020-08-11T11:10:49.000Z</time>
      </trkpt>
      <trkpt lat="42.23676522262394428253173828125" lon="1.53974211774766445159912109375">
        <ele>1095.800048828125</ele>
        <time>2020-08-11T11:10:50.000Z</time>
      </trkpt>
      <trkpt lat="42.2367978282272815704345703125" lon="1.53957263566553592681884765625">
        <ele>1095</ele>
        <time>2020-08-11T11:10:53.000Z</time>
      </trkpt>
      <trkpt lat="42.23681551404297351837158203125" lon="1.53951027430593967437744140625">
        <ele>1094.4000244140625</ele>
        <time>2020-08-11T11:10:54.000Z</time>
      </trkpt>
      <trkpt lat="42.23682791925966739654541015625" lon="1.539448834955692291259765625">
        <ele>1094</ele>
        <time>2020-08-11T11:10:55.000Z</time>
      </trkpt>
      <trkpt lat="42.23685641773045063018798828125" lon="1.53933173976838588714599609375">
        <ele>1093.4000244140625</ele>
        <time>2020-08-11T11:10:57.000Z</time>
      </trkpt>
      <trkpt lat="42.23687334917485713958740234375" lon="1.5392642654478549957275390625">
        <ele>1093.4000244140625</ele>
        <time>2020-08-11T11:10:58.000Z</time>
      </trkpt>
      <trkpt lat="42.23688826896250247955322265625" lon="1.53919159434735774993896484375">
        <ele>1092.5999755859375</ele>
        <time>2020-08-11T11:10:59.000Z</time>
      </trkpt>
      <trkpt lat="42.23690100945532321929931640625" lon="1.53905689716339111328125">
        <ele>1091.800048828125</ele>
        <time>2020-08-11T11:11:01.000Z</time>
      </trkpt>
      <trkpt lat="42.23690805025398731231689453125" lon="1.53899545781314373016357421875">
        <ele>1091.4000244140625</ele>
        <time>2020-08-11T11:11:02.000Z</time>
      </trkpt>
      <trkpt lat="42.23693604581058025360107421875" lon="1.538880206644535064697265625">
        <ele>1090.800048828125</ele>
        <time>2020-08-11T11:11:04.000Z</time>
      </trkpt>
      <trkpt lat="42.23694912157952785491943359375" lon="1.5387610159814357757568359375">
        <ele>1090.199951171875</ele>
        <time>2020-08-11T11:11:06.000Z</time>
      </trkpt>
      <trkpt lat="42.2369533963501453399658203125" lon="1.53865448199212551116943359375">
        <ele>1089.4000244140625</ele>
        <time>2020-08-11T11:11:08.000Z</time>
      </trkpt>
      <trkpt lat="42.236936129629611968994140625" lon="1.5385920368134975433349609375">
        <ele>1088.4000244140625</ele>
        <time>2020-08-11T11:11:09.000Z</time>
      </trkpt>
      <trkpt lat="42.23690872080624103546142578125" lon="1.53851886279881000518798828125">
        <ele>1087.800048828125</ele>
        <time>2020-08-11T11:11:10.000Z</time>
      </trkpt>
      <trkpt lat="42.23685507662594318389892578125" lon="1.5383848361670970916748046875">
        <ele>1086.800048828125</ele>
        <time>2020-08-11T11:11:12.000Z</time>
      </trkpt>
      <trkpt lat="42.23685608245432376861572265625" lon="1.5383167751133441925048828125">
        <ele>1086.4000244140625</ele>
        <time>2020-08-11T11:11:13.000Z</time>
      </trkpt>
      <trkpt lat="42.2369062900543212890625" lon="1.5381555072963237762451171875">
        <ele>1086</ele>
        <time>2020-08-11T11:11:16.000Z</time>
      </trkpt>
      <trkpt lat="42.23699555732309818267822265625" lon="1.53805567882955074310302734375">
        <ele>1085.5999755859375</ele>
        <time>2020-08-11T11:11:19.000Z</time>
      </trkpt>
      <trkpt lat="42.23703210242092609405517578125" lon="1.5380200557410717010498046875">
        <ele>1085.4000244140625</ele>
        <time>2020-08-11T11:11:20.000Z</time>
      </trkpt>
      <trkpt lat="42.2371361218392848968505859375" lon="1.5378789044916629791259765625">
        <ele>1084.5999755859375</ele>
        <time>2020-08-11T11:11:23.000Z</time>
      </trkpt>
      <trkpt lat="42.2372031770646572113037109375" lon="1.53776415623724460601806640625">
        <ele>1084.199951171875</ele>
        <time>2020-08-11T11:11:25.000Z</time>
      </trkpt>
      <trkpt lat="42.237263359129428863525390625" lon="1.5376385115087032318115234375">
        <ele>1084</ele>
        <time>2020-08-11T11:11:27.000Z</time>
      </trkpt>
      <trkpt lat="42.237343154847621917724609375" lon="1.5374111942946910858154296875">
        <ele>1083</ele>
        <time>2020-08-11T11:11:30.000Z</time>
      </trkpt>
      <trkpt lat="42.2373664565384387969970703125" lon="1.53732678852975368499755859375">
        <ele>1082.800048828125</ele>
        <time>2020-08-11T11:11:31.000Z</time>
      </trkpt>
      <trkpt lat="42.2374241240322589874267578125" lon="1.5371553786098957061767578125">
        <ele>1082</ele>
        <time>2020-08-11T11:11:33.000Z</time>
      </trkpt>
      <trkpt lat="42.23746377043426036834716796875" lon="1.53707466088235378265380859375">
        <ele>1081.800048828125</ele>
        <time>2020-08-11T11:11:34.000Z</time>
      </trkpt>
      <trkpt lat="42.237540297210216522216796875" lon="1.53686108998954296112060546875">
        <ele>1080.4000244140625</ele>
        <time>2020-08-11T11:11:37.000Z</time>
      </trkpt>
      <trkpt lat="42.23757055588066577911376953125" lon="1.53678783215582370758056640625">
        <ele>1080.199951171875</ele>
        <time>2020-08-11T11:11:38.000Z</time>
      </trkpt>
      <trkpt lat="42.23769745789468288421630859375" lon="1.53659203089773654937744140625">
        <ele>1079.199951171875</ele>
        <time>2020-08-11T11:11:41.000Z</time>
      </trkpt>
      <trkpt lat="42.23774489946663379669189453125" lon="1.5365388058125972747802734375">
        <ele>1079.199951171875</ele>
        <time>2020-08-11T11:11:42.000Z</time>
      </trkpt>
      <trkpt lat="42.23779099993407726287841796875" lon="1.5364888496696949005126953125">
        <ele>1078.800048828125</ele>
        <time>2020-08-11T11:11:43.000Z</time>
      </trkpt>
      <trkpt lat="42.2378666885197162628173828125" lon="1.536360941827297210693359375">
        <ele>1078.199951171875</ele>
        <time>2020-08-11T11:11:45.000Z</time>
      </trkpt>
      <trkpt lat="42.23790583200752735137939453125" lon="1.53630251996219158172607421875">
        <ele>1078</ele>
        <time>2020-08-11T11:11:46.000Z</time>
      </trkpt>
      <trkpt lat="42.23801764659583568572998046875" lon="1.53613605536520481109619140625">
        <ele>1077.5999755859375</ele>
        <time>2020-08-11T11:11:49.000Z</time>
      </trkpt>
      <trkpt lat="42.23808176815509796142578125" lon="1.536014936864376068115234375">
        <ele>1078</ele>
        <time>2020-08-11T11:11:51.000Z</time>
      </trkpt>
      <trkpt lat="42.23811672069132328033447265625" lon="1.53595517389476299285888671875">
        <ele>1078</ele>
        <time>2020-08-11T11:11:52.000Z</time>
      </trkpt>
      <trkpt lat="42.23819316364824771881103515625" lon="1.53574847616255283355712890625">
        <ele>1077.199951171875</ele>
        <time>2020-08-11T11:11:55.000Z</time>
      </trkpt>
      <trkpt lat="42.23821981810033321380615234375" lon="1.53568410314619541168212890625">
        <ele>1076.5999755859375</ele>
        <time>2020-08-11T11:11:56.000Z</time>
      </trkpt>
      <trkpt lat="42.23824404180049896240234375" lon="1.53562475927174091339111328125">
        <ele>1076.199951171875</ele>
        <time>2020-08-11T11:11:57.000Z</time>
      </trkpt>
      <trkpt lat="42.23831905983388423919677734375" lon="1.53545536100864410400390625">
        <ele>1075</ele>
        <time>2020-08-11T11:12:00.000Z</time>
      </trkpt>
      <trkpt lat="42.23835024051368236541748046875" lon="1.5353536047041416168212890625">
        <ele>1074.800048828125</ele>
        <time>2020-08-11T11:12:02.000Z</time>
      </trkpt>
      <trkpt lat="42.23835091106593608856201171875" lon="1.535200215876102447509765625">
        <ele>1074.5999755859375</ele>
        <time>2020-08-11T11:12:05.000Z</time>
      </trkpt>
      <trkpt lat="42.238348312675952911376953125" lon="1.5350987948477268218994140625">
        <ele>1074</ele>
        <time>2020-08-11T11:12:07.000Z</time>
      </trkpt>
      <trkpt lat="42.23830883391201496124267578125" lon="1.53495973907411098480224609375">
        <ele>1073.4000244140625</ele>
        <time>2020-08-11T11:12:10.000Z</time>
      </trkpt>
      <trkpt lat="42.238298021256923675537109375" lon="1.534909866750240325927734375">
        <ele>1073.4000244140625</ele>
        <time>2020-08-11T11:12:11.000Z</time>
      </trkpt>
      <trkpt lat="42.2382318042218685150146484375" lon="1.5347299911081790924072265625">
        <ele>1073</ele>
        <time>2020-08-11T11:12:15.000Z</time>
      </trkpt>
      <trkpt lat="42.238218896090984344482421875" lon="1.5346830524504184722900390625">
        <ele>1073</ele>
        <time>2020-08-11T11:12:16.000Z</time>
      </trkpt>
      <trkpt lat="42.23819710314273834228515625" lon="1.53463183902204036712646484375">
        <ele>1073</ele>
        <time>2020-08-11T11:12:17.000Z</time>
      </trkpt>
      <trkpt lat="42.23815695382654666900634765625" lon="1.53453242965042591094970703125">
        <ele>1073</ele>
        <time>2020-08-11T11:12:19.000Z</time>
      </trkpt>
      <trkpt lat="42.23810045979917049407958984375" lon="1.534332521259784698486328125">
        <ele>1072.199951171875</ele>
        <time>2020-08-11T11:12:23.000Z</time>
      </trkpt>
      <trkpt lat="42.2380591370165348052978515625" lon="1.53411953710019588470458984375">
        <ele>1071.199951171875</ele>
        <time>2020-08-11T11:12:27.000Z</time>
      </trkpt>
      <trkpt lat="42.2380500845611095428466796875" lon="1.534056924283504486083984375">
        <ele>1071.199951171875</ele>
        <time>2020-08-11T11:12:28.000Z</time>
      </trkpt>
      <trkpt lat="42.238025777041912078857421875" lon="1.5338099934160709381103515625">
        <ele>1071.4000244140625</ele>
        <time>2020-08-11T11:12:33.000Z</time>
      </trkpt>
      <trkpt lat="42.23803080618381500244140625" lon="1.53362936340272426605224609375">
        <ele>1071.5999755859375</ele>
        <time>2020-08-11T11:12:37.000Z</time>
      </trkpt>
      <trkpt lat="42.23800809122622013092041015625" lon="1.5334234200417995452880859375">
        <ele>1071.5999755859375</ele>
        <time>2020-08-11T11:12:42.000Z</time>
      </trkpt>
      <trkpt lat="42.2380028106272220611572265625" lon="1.53325838036835193634033203125">
        <ele>1071.5999755859375</ele>
        <time>2020-08-11T11:12:46.000Z</time>
      </trkpt>
      <trkpt lat="42.23800021223723888397216796875" lon="1.53321714140474796295166015625">
        <ele>1071.800048828125</ele>
        <time>2020-08-11T11:12:47.000Z</time>
      </trkpt>
      <trkpt lat="42.2380105219781398773193359375" lon="1.53298244811594486236572265625">
        <ele>1072.4000244140625</ele>
        <time>2020-08-11T11:12:52.000Z</time>
      </trkpt>
      <trkpt lat="42.23803491331636905670166015625" lon="1.53293869458138942718505859375">
        <ele>1072.4000244140625</ele>
        <time>2020-08-11T11:12:53.000Z</time>
      </trkpt>
      <trkpt lat="42.2381831891834735870361328125" lon="1.5327045880258083343505859375">
        <ele>1071.199951171875</ele>
        <time>2020-08-11T11:13:00.000Z</time>
      </trkpt>
      <trkpt lat="42.238252423703670501708984375" lon="1.53257869184017181396484375">
        <ele>1071</ele>
        <time>2020-08-11T11:13:04.000Z</time>
      </trkpt>
      <trkpt lat="42.23827882669866085052490234375" lon="1.53254642151296138763427734375">
        <ele>1070.800048828125</ele>
        <time>2020-08-11T11:13:05.000Z</time>
      </trkpt>
      <trkpt lat="42.23835468292236328125" lon="1.53241398744285106658935546875">
        <ele>1070.4000244140625</ele>
        <time>2020-08-11T11:13:08.000Z</time>
      </trkpt>
      <trkpt lat="42.238407321274280548095703125" lon="1.53231943957507610321044921875">
        <ele>1070.800048828125</ele>
        <time>2020-08-11T11:13:10.000Z</time>
      </trkpt>
      <trkpt lat="42.238452918827533721923828125" lon="1.5322221256792545318603515625">
        <ele>1070</ele>
        <time>2020-08-11T11:13:12.000Z</time>
      </trkpt>
      <trkpt lat="42.238526009023189544677734375" lon="1.5320910327136516571044921875">
        <ele>1069</ele>
        <time>2020-08-11T11:13:15.000Z</time>
      </trkpt>
      <trkpt lat="42.23857521079480648040771484375" lon="1.53199338354170322418212890625">
        <ele>1068.800048828125</ele>
        <time>2020-08-11T11:13:17.000Z</time>
      </trkpt>
      <trkpt lat="42.23864427767693996429443359375" lon="1.53189875185489654541015625">
        <ele>1067.800048828125</ele>
        <time>2020-08-11T11:13:19.000Z</time>
      </trkpt>
      <trkpt lat="42.23876497708261013031005859375" lon="1.531709991395473480224609375">
        <ele>1066.800048828125</ele>
        <time>2020-08-11T11:13:23.000Z</time>
      </trkpt>
      <trkpt lat="42.238815687596797943115234375" lon="1.53161619789898395538330078125">
        <ele>1066.4000244140625</ele>
        <time>2020-08-11T11:13:25.000Z</time>
      </trkpt>
      <trkpt lat="42.23884058184921741485595703125" lon="1.53156573884189128875732421875">
        <ele>1065.5999755859375</ele>
        <time>2020-08-11T11:13:26.000Z</time>
      </trkpt>
      <trkpt lat="42.238916940987110137939453125" lon="1.53140329755842685699462890625">
        <ele>1064.5999755859375</ele>
        <time>2020-08-11T11:13:29.000Z</time>
      </trkpt>
      <trkpt lat="42.23893580026924610137939453125" lon="1.5313537605106830596923828125">
        <ele>1064.4000244140625</ele>
        <time>2020-08-11T11:13:30.000Z</time>
      </trkpt>
      <trkpt lat="42.23902045749127864837646484375" lon="1.5310795046389102935791015625">
        <ele>1064</ele>
        <time>2020-08-11T11:13:35.000Z</time>
      </trkpt>
      <trkpt lat="42.2390619479119777679443359375" lon="1.530965678393840789794921875">
        <ele>1063.4000244140625</ele>
        <time>2020-08-11T11:13:37.000Z</time>
      </trkpt>
      <trkpt lat="42.23910192959010601043701171875" lon="1.53085914440453052520751953125">
        <ele>1061.800048828125</ele>
        <time>2020-08-11T11:13:39.000Z</time>
      </trkpt>
      <trkpt lat="42.23911751993000507354736328125" lon="1.5308055840432643890380859375">
        <ele>1060.800048828125</ele>
        <time>2020-08-11T11:13:40.000Z</time>
      </trkpt>
      <trkpt lat="42.23914149217307567596435546875" lon="1.530748419463634490966796875">
        <ele>1060.199951171875</ele>
        <time>2020-08-11T11:13:41.000Z</time>
      </trkpt>
      <trkpt lat="42.239191532135009765625" lon="1.530633755028247833251953125">
        <ele>1059.199951171875</ele>
        <time>2020-08-11T11:13:43.000Z</time>
      </trkpt>
      <trkpt lat="42.239254899322986602783203125" lon="1.53045396320521831512451171875">
        <ele>1059</ele>
        <time>2020-08-11T11:13:46.000Z</time>
      </trkpt>
      <trkpt lat="42.239296473562717437744140625" lon="1.53034550137817859649658203125">
        <ele>1058.800048828125</ele>
        <time>2020-08-11T11:13:48.000Z</time>
      </trkpt>
      <trkpt lat="42.239334695041179656982421875" lon="1.53022781945765018463134765625">
        <ele>1058</ele>
        <time>2020-08-11T11:13:50.000Z</time>
      </trkpt>
      <trkpt lat="42.23939026705920696258544921875" lon="1.53010343201458454132080078125">
        <ele>1058</ele>
        <time>2020-08-11T11:13:52.000Z</time>
      </trkpt>
      <trkpt lat="42.2394181787967681884765625" lon="1.53003570623695850372314453125">
        <ele>1058</ele>
        <time>2020-08-11T11:13:53.000Z</time>
      </trkpt>
      <trkpt lat="42.23954650573432445526123046875" lon="1.5297166071832180023193359375">
        <ele>1057</ele>
        <time>2020-08-11T11:13:58.000Z</time>
      </trkpt>
      <trkpt lat="42.2396091185510158538818359375" lon="1.5295892022550106048583984375">
        <ele>1055.4000244140625</ele>
        <time>2020-08-11T11:14:00.000Z</time>
      </trkpt>
      <trkpt lat="42.2396863996982574462890625" lon="1.529456935822963714599609375">
        <ele>1053.4000244140625</ele>
        <time>2020-08-11T11:14:02.000Z</time>
      </trkpt>
      <trkpt lat="42.239716909825801849365234375" lon="1.5293915569782257080078125">
        <ele>1052.4000244140625</ele>
        <time>2020-08-11T11:14:03.000Z</time>
      </trkpt>
      <trkpt lat="42.23974884487688541412353515625" lon="1.52932458557188510894775390625">
        <ele>1052.4000244140625</ele>
        <time>2020-08-11T11:14:04.000Z</time>
      </trkpt>
      <trkpt lat="42.23985604941844940185546875" lon="1.52913046069443225860595703125">
        <ele>1051.5999755859375</ele>
        <time>2020-08-11T11:14:07.000Z</time>
      </trkpt>
      <trkpt lat="42.239897288382053375244140625" lon="1.52907036244869232177734375">
        <ele>1051.4000244140625</ele>
        <time>2020-08-11T11:14:08.000Z</time>
      </trkpt>
      <trkpt lat="42.23992620594799518585205078125" lon="1.52901277877390384674072265625">
        <ele>1051.4000244140625</ele>
        <time>2020-08-11T11:14:09.000Z</time>
      </trkpt>
      <trkpt lat="42.24000868387520313262939453125" lon="1.52885201387107372283935546875">
        <ele>1052</ele>
        <time>2020-08-11T11:14:12.000Z</time>
      </trkpt>
      <trkpt lat="42.2400362603366374969482421875" lon="1.5287969447672367095947265625">
        <ele>1052</ele>
        <time>2020-08-11T11:14:13.000Z</time>
      </trkpt>
      <trkpt lat="42.240093760192394256591796875" lon="1.52868823148310184478759765625">
        <ele>1051.199951171875</ele>
        <time>2020-08-11T11:14:15.000Z</time>
      </trkpt>
      <trkpt lat="42.24012703634798526763916015625" lon="1.528638191521167755126953125">
        <ele>1050.4000244140625</ele>
        <time>2020-08-11T11:14:16.000Z</time>
      </trkpt>
      <trkpt lat="42.240164168179035186767578125" lon="1.5285904146730899810791015625">
        <ele>1050.4000244140625</ele>
        <time>2020-08-11T11:14:17.000Z</time>
      </trkpt>
      <trkpt lat="42.24024706520140171051025390625" lon="1.52850215323269367218017578125">
        <ele>1049.4000244140625</ele>
        <time>2020-08-11T11:14:19.000Z</time>
      </trkpt>
      <trkpt lat="42.24037564359605312347412109375" lon="1.5283942781388759613037109375">
        <ele>1047.800048828125</ele>
        <time>2020-08-11T11:14:22.000Z</time>
      </trkpt>
      <trkpt lat="42.2404691018164157867431640625" lon="1.5283335931599140167236328125">
        <ele>1046.4000244140625</ele>
        <time>2020-08-11T11:14:24.000Z</time>
      </trkpt>
      <trkpt lat="42.240564487874507904052734375" lon="1.5282651968300342559814453125">
        <ele>1045.4000244140625</ele>
        <time>2020-08-11T11:14:26.000Z</time>
      </trkpt>
      <trkpt lat="42.24061670713126659393310546875" lon="1.52822186239063739776611328125">
        <ele>1045</ele>
        <time>2020-08-11T11:14:27.000Z</time>
      </trkpt>
      <trkpt lat="42.24070304073393344879150390625" lon="1.528132259845733642578125">
        <ele>1044.199951171875</ele>
        <time>2020-08-11T11:14:29.000Z</time>
      </trkpt>
      <trkpt lat="42.2408114187419414520263671875" lon="1.52799923904240131378173828125">
        <ele>1043.4000244140625</ele>
        <time>2020-08-11T11:14:32.000Z</time>
      </trkpt>
      <trkpt lat="42.24084402434527873992919921875" lon="1.52795883826911449432373046875">
        <ele>1043</ele>
        <time>2020-08-11T11:14:33.000Z</time>
      </trkpt>
      <trkpt lat="42.24092382006347179412841796875" lon="1.527864038944244384765625">
        <ele>1041.5999755859375</ele>
        <time>2020-08-11T11:14:36.000Z</time>
      </trkpt>
      <trkpt lat="42.2409403324127197265625" lon="1.52784098871052265167236328125">
        <ele>1041.199951171875</ele>
        <time>2020-08-11T11:14:37.000Z</time>
      </trkpt>
      <trkpt lat="42.24097360856831073760986328125" lon="1.52780477888882160186767578125">
        <ele>1040.4000244140625</ele>
        <time>2020-08-11T11:14:40.000Z</time>
      </trkpt>
      <trkpt lat="42.24097989499568939208984375" lon="1.52780125848948955535888671875">
        <ele>1040.4000244140625</ele>
        <time>2020-08-11T11:14:41.000Z</time>
      </trkpt>
      <trkpt lat="42.24099271930754184722900390625" lon="1.52777016162872314453125">
        <ele>1040.5999755859375</ele>
        <time>2020-08-11T11:14:55.000Z</time>
      </trkpt>
      <trkpt lat="42.24106161855161190032958984375" lon="1.52764803729951381683349609375">
        <ele>1040</ele>
        <time>2020-08-11T11:15:00.000Z</time>
      </trkpt>
      <trkpt lat="42.24108793772757053375244140625" lon="1.5276194550096988677978515625">
        <ele>1039.199951171875</ele>
        <time>2020-08-11T11:15:01.000Z</time>
      </trkpt>
      <trkpt lat="42.24114879034459590911865234375" lon="1.5275503881275653839111328125">
        <ele>1038.800048828125</ele>
        <time>2020-08-11T11:15:03.000Z</time>
      </trkpt>
      <trkpt lat="42.24118181504309177398681640625" lon="1.5275138430297374725341796875">
        <ele>1038.800048828125</ele>
        <time>2020-08-11T11:15:04.000Z</time>
      </trkpt>
      <trkpt lat="42.24123545922338962554931640625" lon="1.52743446640670299530029296875">
        <ele>1038</ele>
        <time>2020-08-11T11:15:06.000Z</time>
      </trkpt>
      <trkpt lat="42.24127686582505702972412109375" lon="1.52735198847949504852294921875">
        <ele>1036.800048828125</ele>
        <time>2020-08-11T11:15:08.000Z</time>
      </trkpt>
      <trkpt lat="42.24136412143707275390625" lon="1.52716976590454578399658203125">
        <ele>1035.800048828125</ele>
        <time>2020-08-11T11:15:12.000Z</time>
      </trkpt>
      <trkpt lat="42.24140309728682041168212890625" lon="1.52708041481673717498779296875">
        <ele>1035.199951171875</ele>
        <time>2020-08-11T11:15:14.000Z</time>
      </trkpt>
      <trkpt lat="42.24142958410084247589111328125" lon="1.527038924396038055419921875">
        <ele>1034.800048828125</ele>
        <time>2020-08-11T11:15:15.000Z</time>
      </trkpt>
      <trkpt lat="42.2414511255919933319091796875" lon="1.52699424885213375091552734375">
        <ele>1034.5999755859375</ele>
        <time>2020-08-11T11:15:16.000Z</time>
      </trkpt>
      <trkpt lat="42.241463363170623779296875" lon="1.5269468910992145538330078125">
        <ele>1034.199951171875</ele>
        <time>2020-08-11T11:15:17.000Z</time>
      </trkpt>
      <trkpt lat="42.24146679975092411041259765625" lon="1.526901461184024810791015625">
        <ele>1034</ele>
        <time>2020-08-11T11:15:18.000Z</time>
      </trkpt>
      <trkpt lat="42.24145975895226001739501953125" lon="1.526812948286533355712890625">
        <ele>1033.4000244140625</ele>
        <time>2020-08-11T11:15:20.000Z</time>
      </trkpt>
      <trkpt lat="42.241447605192661285400390625" lon="1.52676659636199474334716796875">
        <ele>1033</ele>
        <time>2020-08-11T11:15:21.000Z</time>
      </trkpt>
      <trkpt lat="42.24143293686211109161376953125" lon="1.52671915479004383087158203125">
        <ele>1032.4000244140625</ele>
        <time>2020-08-11T11:15:22.000Z</time>
      </trkpt>
      <trkpt lat="42.2414164245128631591796875" lon="1.52667422778904438018798828125">
        <ele>1032.199951171875</ele>
        <time>2020-08-11T11:15:23.000Z</time>
      </trkpt>
      <trkpt lat="42.241379208862781524658203125" lon="1.5265703760087490081787109375">
        <ele>1031</ele>
        <time>2020-08-11T11:15:25.000Z</time>
      </trkpt>
      <trkpt lat="42.24135808646678924560546875" lon="1.52646753005683422088623046875">
        <ele>1030.4000244140625</ele>
        <time>2020-08-11T11:15:27.000Z</time>
      </trkpt>
      <trkpt lat="42.24134978838264942169189453125" lon="1.5264097787439823150634765625">
        <ele>1030.199951171875</ele>
        <time>2020-08-11T11:15:28.000Z</time>
      </trkpt>
      <trkpt lat="42.24133989773690700531005859375" lon="1.52634900994598865509033203125">
        <ele>1030</ele>
        <time>2020-08-11T11:15:29.000Z</time>
      </trkpt>
      <trkpt lat="42.24131307564675807952880859375" lon="1.52624239213764667510986328125">
        <ele>1029.5999755859375</ele>
        <time>2020-08-11T11:15:31.000Z</time>
      </trkpt>
      <trkpt lat="42.2412898577749729156494140625" lon="1.52619243599474430084228515625">
        <ele>1029</ele>
        <time>2020-08-11T11:15:32.000Z</time>
      </trkpt>
      <trkpt lat="42.2412321902811527252197265625" lon="1.52609520591795444488525390625">
        <ele>1028.199951171875</ele>
        <time>2020-08-11T11:15:34.000Z</time>
      </trkpt>
      <trkpt lat="42.24119489081203937530517578125" lon="1.526051871478557586669921875">
        <ele>1027.4000244140625</ele>
        <time>2020-08-11T11:15:35.000Z</time>
      </trkpt>
      <trkpt lat="42.2410907037556171417236328125" lon="1.52590074576437473297119140625">
        <ele>1026.4000244140625</ele>
        <time>2020-08-11T11:15:39.000Z</time>
      </trkpt>
      <trkpt lat="42.24107737652957439422607421875" lon="1.525858081877231597900390625">
        <ele>1026</ele>
        <time>2020-08-11T11:15:40.000Z</time>
      </trkpt>
      <trkpt lat="42.241067402064800262451171875" lon="1.52581357397139072418212890625">
        <ele>1025.800048828125</ele>
        <time>2020-08-11T11:15:41.000Z</time>
      </trkpt>
      <trkpt lat="42.24107989110052585601806640625" lon="1.52571282349526882171630859375">
        <ele>1025.199951171875</ele>
        <time>2020-08-11T11:15:44.000Z</time>
      </trkpt>
      <trkpt lat="42.24115616641938686370849609375" lon="1.5256305970251560211181640625">
        <ele>1025</ele>
        <time>2020-08-11T11:15:49.000Z</time>
      </trkpt>
      <trkpt lat="42.24120612256228923797607421875" lon="1.5256337821483612060546875">
        <ele>1025.199951171875</ele>
        <time>2020-08-11T11:15:51.000Z</time>
      </trkpt>
      <trkpt lat="42.24130217917263507843017578125" lon="1.5256632864475250244140625">
        <ele>1024.800048828125</ele>
        <time>2020-08-11T11:15:54.000Z</time>
      </trkpt>
      <trkpt lat="42.2413793765008449554443359375" lon="1.5256798826158046722412109375">
        <ele>1024.199951171875</ele>
        <time>2020-08-11T11:15:56.000Z</time>
      </trkpt>
      <trkpt lat="42.2415087930858135223388671875" lon="1.5257103927433490753173828125">
        <ele>1023.5999755859375</ele>
        <time>2020-08-11T11:15:59.000Z</time>
      </trkpt>
      <trkpt lat="42.2415496967732906341552734375" lon="1.52573411352932453155517578125">
        <ele>1023.20001220703125</ele>
        <time>2020-08-11T11:16:00.000Z</time>
      </trkpt>
      <trkpt lat="42.2417409718036651611328125" lon="1.52586906217038631439208984375">
        <ele>1022.20001220703125</ele>
        <time>2020-08-11T11:16:05.000Z</time>
      </trkpt>
      <trkpt lat="42.24185974337160587310791015625" lon="1.5259437449276447296142578125">
        <ele>1020.5999755859375</ele>
        <time>2020-08-11T11:16:08.000Z</time>
      </trkpt>
      <trkpt lat="42.2419352643191814422607421875" lon="1.52598389424383640289306640625">
        <ele>1019.4000244140625</ele>
        <time>2020-08-11T11:16:10.000Z</time>
      </trkpt>
      <trkpt lat="42.24201388657093048095703125" lon="1.52602479793131351470947265625">
        <ele>1018.20001220703125</ele>
        <time>2020-08-11T11:16:12.000Z</time>
      </trkpt>
      <trkpt lat="42.2420546226203441619873046875" lon="1.5260443277657032012939453125">
        <ele>1018.20001220703125</ele>
        <time>2020-08-11T11:16:13.000Z</time>
      </trkpt>
      <trkpt lat="42.24218864925205707550048828125" lon="1.52609805576503276824951171875">
        <ele>1016.5999755859375</ele>
        <time>2020-08-11T11:16:17.000Z</time>
      </trkpt>
      <trkpt lat="42.242250256240367889404296875" lon="1.52612127363681793212890625">
        <ele>1015.5999755859375</ele>
        <time>2020-08-11T11:16:19.000Z</time>
      </trkpt>
      <trkpt lat="42.24230851046741008758544921875" lon="1.5261428989470005035400390625">
        <ele>1014.4000244140625</ele>
        <time>2020-08-11T11:16:21.000Z</time>
      </trkpt>
      <trkpt lat="42.2423999570310115814208984375" lon="1.526178605854511260986328125">
        <ele>1013.20001220703125</ele>
        <time>2020-08-11T11:16:24.000Z</time>
      </trkpt>
      <trkpt lat="42.24246558733284473419189453125" lon="1.52620383538305759429931640625">
        <ele>1012.20001220703125</ele>
        <time>2020-08-11T11:16:26.000Z</time>
      </trkpt>
      <trkpt lat="42.24249609746038913726806640625" lon="1.52621808461844921112060546875">
        <ele>1012</ele>
        <time>2020-08-11T11:16:27.000Z</time>
      </trkpt>
      <trkpt lat="42.2425719536840915679931640625" lon="1.5262491814792156219482421875">
        <ele>1010.5999755859375</ele>
        <time>2020-08-11T11:16:30.000Z</time>
      </trkpt>
      <trkpt lat="42.24261411465704441070556640625" lon="1.52625077404081821441650390625">
        <ele>1009.5999755859375</ele>
        <time>2020-08-11T11:16:32.000Z</time>
      </trkpt>
      <trkpt lat="42.24263909272849559783935546875" lon="1.526249013841152191162109375">
        <ele>1009.5999755859375</ele>
        <time>2020-08-11T11:16:33.000Z</time>
      </trkpt>
      <trkpt lat="42.24274269305169582366943359375" lon="1.5261871553957462310791015625">
        <ele>1009</ele>
        <time>2020-08-11T11:16:37.000Z</time>
      </trkpt>
      <trkpt lat="42.2427721135318279266357421875" lon="1.5261610038578510284423828125">
        <ele>1008.20001220703125</ele>
        <time>2020-08-11T11:16:38.000Z</time>
      </trkpt>
      <trkpt lat="42.2428270988166332244873046875" lon="1.52609855867922306060791015625">
        <ele>1006.79998779296875</ele>
        <time>2020-08-11T11:16:40.000Z</time>
      </trkpt>
      <trkpt lat="42.24288216792047023773193359375" lon="1.52602261863648891448974609375">
        <ele>1006.4000244140625</ele>
        <time>2020-08-11T11:16:42.000Z</time>
      </trkpt>
      <trkpt lat="42.24293078295886516571044921875" lon="1.5259494446218013763427734375">
        <ele>1005</ele>
        <time>2020-08-11T11:16:44.000Z</time>
      </trkpt>
      <trkpt lat="42.24295324645936489105224609375" lon="1.52592069469392299652099609375">
        <ele>1003.79998779296875</ele>
        <time>2020-08-11T11:16:45.000Z</time>
      </trkpt>
      <trkpt lat="42.242970764636993408203125" lon="1.52589957229793071746826171875">
        <ele>1003.20001220703125</ele>
        <time>2020-08-11T11:16:46.000Z</time>
      </trkpt>
      <trkpt lat="42.2429788112640380859375" lon="1.525890268385410308837890625">
        <ele>1002.79998779296875</ele>
        <time>2020-08-11T11:16:47.000Z</time>
      </trkpt>
      <trkpt lat="42.2429799847304821014404296875" lon="1.52588532306253910064697265625">
        <ele>1002.4000244140625</ele>
        <time>2020-08-11T11:16:50.000Z</time>
      </trkpt>
      <trkpt lat="42.24298006854951381683349609375" lon="1.5258847363293170928955078125">
        <ele>1002</ele>
        <time>2020-08-11T11:17:05.000Z</time>
      </trkpt>
      <trkpt lat="42.24298023618757724761962890625" lon="1.5258840657770633697509765625">
        <ele>1002</ele>
        <time>2020-08-11T11:17:20.000Z</time>
      </trkpt>
      <trkpt lat="42.24298023618757724761962890625" lon="1.52588389813899993896484375">
        <ele>1002</ele>
        <time>2020-08-11T11:17:22.000Z</time>
      </trkpt>
      <trkpt lat="42.2429856844246387481689453125" lon="1.5258750133216381072998046875">
        <ele>1001.79998779296875</ele>
        <time>2020-08-11T11:17:39.000Z</time>
      </trkpt>
      <trkpt lat="42.243001945316791534423828125" lon="1.525839306414127349853515625">
        <ele>1001.79998779296875</ele>
        <time>2020-08-11T11:17:41.000Z</time>
      </trkpt>
      <trkpt lat="42.243052907288074493408203125" lon="1.5256832353770732879638671875">
        <ele>1001.20001220703125</ele>
        <time>2020-08-11T11:17:45.000Z</time>
      </trkpt>
      <trkpt lat="42.24305190145969390869140625" lon="1.52557946741580963134765625">
        <ele>1001.20001220703125</ele>
        <time>2020-08-11T11:17:47.000Z</time>
      </trkpt>
      <trkpt lat="42.24303874187171459197998046875" lon="1.5254689939320087432861328125">
        <ele>1000.79998779296875</ele>
        <time>2020-08-11T11:17:49.000Z</time>
      </trkpt>
      <trkpt lat="42.2430463694036006927490234375" lon="1.525369584560394287109375">
        <ele>999.79998779296875</ele>
        <time>2020-08-11T11:17:51.000Z</time>
      </trkpt>
      <trkpt lat="42.24308702163398265838623046875" lon="1.525295488536357879638671875">
        <ele>999.4000244140625</ele>
        <time>2020-08-11T11:17:53.000Z</time>
      </trkpt>
      <trkpt lat="42.24315525032579898834228515625" lon="1.5252220630645751953125">
        <ele>998.79998779296875</ele>
        <time>2020-08-11T11:17:55.000Z</time>
      </trkpt>
      <trkpt lat="42.24318877793848514556884765625" lon="1.5251806564629077911376953125">
        <ele>998.5999755859375</ele>
        <time>2020-08-11T11:17:56.000Z</time>
      </trkpt>
      <trkpt lat="42.24325231276452541351318359375" lon="1.5251079015433788299560546875">
        <ele>998</ele>
        <time>2020-08-11T11:17:58.000Z</time>
      </trkpt>
      <trkpt lat="42.24328567273914813995361328125" lon="1.52507864870131015777587890625">
        <ele>997.79998779296875</ele>
        <time>2020-08-11T11:17:59.000Z</time>
      </trkpt>
      <trkpt lat="42.2433796338737010955810546875" lon="1.5249972604215145111083984375">
        <ele>998.20001220703125</ele>
        <time>2020-08-11T11:18:03.000Z</time>
      </trkpt>
      <trkpt lat="42.2434953041374683380126953125" lon="1.52493305504322052001953125">
        <ele>998.79998779296875</ele>
        <time>2020-08-11T11:18:09.000Z</time>
      </trkpt>
      <trkpt lat="42.24351516924798488616943359375" lon="1.52492391876876354217529296875">
        <ele>999.20001220703125</ele>
        <time>2020-08-11T11:18:10.000Z</time>
      </trkpt>
      <trkpt lat="42.24366218782961368560791015625" lon="1.52484362013638019561767578125">
        <ele>999.5999755859375</ele>
        <time>2020-08-11T11:18:18.000Z</time>
      </trkpt>
      <trkpt lat="42.24381088279187679290771484375" lon="1.52475980110466480255126953125">
        <ele>999.79998779296875</ele>
        <time>2020-08-11T11:18:26.000Z</time>
      </trkpt>
      <trkpt lat="42.24389034323394298553466796875" lon="1.524725519120693206787109375">
        <ele>1000</ele>
        <time>2020-08-11T11:18:32.000Z</time>
      </trkpt>
      <trkpt lat="42.2439251281321048736572265625" lon="1.52469165623188018798828125">
        <ele>1000</ele>
        <time>2020-08-11T11:18:35.000Z</time>
      </trkpt>
      <trkpt lat="42.24395136348903179168701171875" lon="1.52468117885291576385498046875">
        <ele>1000.20001220703125</ele>
        <time>2020-08-11T11:18:38.000Z</time>
      </trkpt>
      <trkpt lat="42.243954800069332122802734375" lon="1.5246780775487422943115234375">
        <ele>1000.4000244140625</ele>
        <time>2020-08-11T11:18:50.000Z</time>
      </trkpt>
      <trkpt lat="42.24395580589771270751953125" lon="1.524674557149410247802734375">
        <ele>1000.5999755859375</ele>
        <time>2020-08-11T11:19:12.000Z</time>
      </trkpt>
      <trkpt lat="42.2439546324312686920166015625" lon="1.5246737189590930938720703125">
        <ele>1000.5999755859375</ele>
        <time>2020-08-11T11:19:26.000Z</time>
      </trkpt>
      <trkpt lat="42.2439546324312686920166015625" lon="1.5246737189590930938720703125">
        <ele>1000.79998779296875</ele>
        <time>2020-08-11T11:19:37.000Z</time>
      </trkpt>
      <trkpt lat="42.24395488388836383819580078125" lon="1.52467162348330020904541015625">
        <ele>1000.5999755859375</ele>
        <time>2020-08-11T11:20:27.000Z</time>
      </trkpt>
      <trkpt lat="42.2439549677073955535888671875" lon="1.52467296458780765533447265625">
        <ele>1000.20001220703125</ele>
        <time>2020-08-11T11:20:49.000Z</time>
      </trkpt>
      <trkpt lat="42.2439549677073955535888671875" lon="1.52467296458780765533447265625">
        <ele>1000.20001220703125</ele>
        <time>2020-08-11T11:20:51.000Z</time>
      </trkpt>
      <trkpt lat="42.24395446479320526123046875" lon="1.52467019855976104736328125">
        <ele>1000</ele>
        <time>2020-08-11T11:21:14.000Z</time>
      </trkpt>
      <trkpt lat="42.24395471625030040740966796875" lon="1.5246552787721157073974609375">
        <ele>1000.20001220703125</ele>
        <time>2020-08-11T11:21:15.000Z</time>
      </trkpt>
      <trkpt lat="42.24393703043460845947265625" lon="1.524492837488651275634765625">
        <ele>1000.20001220703125</ele>
        <time>2020-08-11T11:21:21.000Z</time>
      </trkpt>
      <trkpt lat="42.243881039321422576904296875" lon="1.52420349419116973876953125">
        <ele>1000.20001220703125</ele>
        <time>2020-08-11T11:21:29.000Z</time>
      </trkpt>
      <trkpt lat="42.24384021945297718048095703125" lon="1.52389462105929851531982421875">
        <ele>1001.20001220703125</ele>
        <time>2020-08-11T11:21:38.000Z</time>
      </trkpt>
      <trkpt lat="42.24383837543427944183349609375" lon="1.523829661309719085693359375">
        <ele>1001.79998779296875</ele>
        <time>2020-08-11T11:21:40.000Z</time>
      </trkpt>
      <trkpt lat="42.24384038709104061126708984375" lon="1.523644588887691497802734375">
        <ele>1003</ele>
        <time>2020-08-11T11:21:46.000Z</time>
      </trkpt>
      <trkpt lat="42.243843488395214080810546875" lon="1.52361617423593997955322265625">
        <ele>1003.20001220703125</ele>
        <time>2020-08-11T11:21:47.000Z</time>
      </trkpt>
      <trkpt lat="42.24386653862893581390380859375" lon="1.52345976792275905609130859375">
        <ele>1004.20001220703125</ele>
        <time>2020-08-11T11:21:53.000Z</time>
      </trkpt>
      <trkpt lat="42.2438721545040607452392578125" lon="1.52336102910339832305908203125">
        <ele>1005</ele>
        <time>2020-08-11T11:21:57.000Z</time>
      </trkpt>
      <trkpt lat="42.243875004351139068603515625" lon="1.52333688922226428985595703125">
        <ele>1005.20001220703125</ele>
        <time>2020-08-11T11:21:58.000Z</time>
      </trkpt>
      <trkpt lat="42.24389403127133846282958984375" lon="1.52318802662193775177001953125">
        <ele>1006.20001220703125</ele>
        <time>2020-08-11T11:22:04.000Z</time>
      </trkpt>
      <trkpt lat="42.24390258081257343292236328125" lon="1.5230519883334636688232421875">
        <ele>1007</ele>
        <time>2020-08-11T11:22:09.000Z</time>
      </trkpt>
      <trkpt lat="42.2439081966876983642578125" lon="1.523000858724117279052734375">
        <ele>1007.79998779296875</ele>
        <time>2020-08-11T11:22:11.000Z</time>
      </trkpt>
      <trkpt lat="42.24390978924930095672607421875" lon="1.5228120982646942138671875">
        <ele>1008.5999755859375</ele>
        <time>2020-08-11T11:22:18.000Z</time>
      </trkpt>
      <trkpt lat="42.24391020834445953369140625" lon="1.52275451458990573883056640625">
        <ele>1008.79998779296875</ele>
        <time>2020-08-11T11:22:20.000Z</time>
      </trkpt>
      <trkpt lat="42.2438921034336090087890625" lon="1.52251638472080230712890625">
        <ele>1009.20001220703125</ele>
        <time>2020-08-11T11:22:27.000Z</time>
      </trkpt>
      <trkpt lat="42.243858240544795989990234375" lon="1.52216291986405849456787109375">
        <ele>1009</ele>
        <time>2020-08-11T11:22:33.000Z</time>
      </trkpt>
      <trkpt lat="42.24382546730339527130126953125" lon="1.52181993238627910614013671875">
        <ele>1007.5999755859375</ele>
        <time>2020-08-11T11:22:37.000Z</time>
      </trkpt>
      <trkpt lat="42.2438178397715091705322265625" lon="1.52171884663403034210205078125">
        <ele>1007</ele>
        <time>2020-08-11T11:22:38.000Z</time>
      </trkpt>
      <trkpt lat="42.24379529245197772979736328125" lon="1.5215016715228557586669921875">
        <ele>1006</ele>
        <time>2020-08-11T11:22:40.000Z</time>
      </trkpt>
      <trkpt lat="42.24377014674246311187744140625" lon="1.521264798939228057861328125">
        <ele>1004.4000244140625</ele>
        <time>2020-08-11T11:22:42.000Z</time>
      </trkpt>
      <trkpt lat="42.24375464022159576416015625" lon="1.5211419202387332916259765625">
        <ele>1003.79998779296875</ele>
        <time>2020-08-11T11:22:43.000Z</time>
      </trkpt>
      <trkpt lat="42.24372488446533679962158203125" lon="1.5209038741886615753173828125">
        <ele>1003.4000244140625</ele>
        <time>2020-08-11T11:22:45.000Z</time>
      </trkpt>
      <trkpt lat="42.2436917759478092193603515625" lon="1.5206071548163890838623046875">
        <ele>1003</ele>
        <time>2020-08-11T11:22:48.000Z</time>
      </trkpt>
      <trkpt lat="42.243689261376857757568359375" lon="1.52034237049520015716552734375">
        <ele>1004.4000244140625</ele>
        <time>2020-08-11T11:22:52.000Z</time>
      </trkpt>
      <trkpt lat="42.24369026720523834228515625" lon="1.5202983655035495758056640625">
        <ele>1004.5999755859375</ele>
        <time>2020-08-11T11:22:53.000Z</time>
      </trkpt>
      <trkpt lat="42.24369169212877750396728515625" lon="1.52016232721507549285888671875">
        <ele>1005.4000244140625</ele>
        <time>2020-08-11T11:22:57.000Z</time>
      </trkpt>
      <trkpt lat="42.24369303323328495025634765625" lon="1.52009510435163974761962890625">
        <ele>1005.5999755859375</ele>
        <time>2020-08-11T11:22:59.000Z</time>
      </trkpt>
      <trkpt lat="42.24369018338620662689208984375" lon="1.51996149681508541107177734375">
        <ele>1007</ele>
        <time>2020-08-11T11:23:03.000Z</time>
      </trkpt>
      <trkpt lat="42.2436817176640033721923828125" lon="1.51986577548086643218994140625">
        <ele>1007.79998779296875</ele>
        <time>2020-08-11T11:23:06.000Z</time>
      </trkpt>
      <trkpt lat="42.24367392249405384063720703125" lon="1.5198034979403018951416015625">
        <ele>1008.20001220703125</ele>
        <time>2020-08-11T11:23:08.000Z</time>
      </trkpt>
      <trkpt lat="42.24363016895949840545654296875" lon="1.519685648381710052490234375">
        <ele>1008.79998779296875</ele>
        <time>2020-08-11T11:23:12.000Z</time>
      </trkpt>
      <trkpt lat="42.24360988475382328033447265625" lon="1.51962630450725555419921875">
        <ele>1009.20001220703125</ele>
        <time>2020-08-11T11:23:14.000Z</time>
      </trkpt>
      <trkpt lat="42.24353763274848461151123046875" lon="1.5194561518728733062744140625">
        <ele>1010</ele>
        <time>2020-08-11T11:23:20.000Z</time>
      </trkpt>
      <trkpt lat="42.243509553372859954833984375" lon="1.51940099895000457763671875">
        <ele>1010.4000244140625</ele>
        <time>2020-08-11T11:23:22.000Z</time>
      </trkpt>
      <trkpt lat="42.24343051202595233917236328125" lon="1.5192328579723834991455078125">
        <ele>1011</ele>
        <time>2020-08-11T11:23:28.000Z</time>
      </trkpt>
      <trkpt lat="42.2433444298803806304931640625" lon="1.51903009973466396331787109375">
        <ele>1011.79998779296875</ele>
        <time>2020-08-11T11:23:35.000Z</time>
      </trkpt>
      <trkpt lat="42.24333898164331912994384765625" lon="1.51899573393166065216064453125">
        <ele>1011.79998779296875</ele>
        <time>2020-08-11T11:23:36.000Z</time>
      </trkpt>
      <trkpt lat="42.2432877682149410247802734375" lon="1.51865576393902301788330078125">
        <ele>1012.20001220703125</ele>
        <time>2020-08-11T11:23:45.000Z</time>
      </trkpt>
      <trkpt lat="42.24321643821895122528076171875" lon="1.51824630796909332275390625">
        <ele>1012.5999755859375</ele>
        <time>2020-08-11T11:23:55.000Z</time>
      </trkpt>
      <trkpt lat="42.24315122701227664947509765625" lon="1.51800130493938922882080078125">
        <ele>1013</ele>
        <time>2020-08-11T11:24:01.000Z</time>
      </trkpt>
      <trkpt lat="42.2431077249348163604736328125" lon="1.51788496412336826324462890625">
        <ele>1013.20001220703125</ele>
        <time>2020-08-11T11:24:04.000Z</time>
      </trkpt>
      <trkpt lat="42.24300202913582324981689453125" lon="1.517619676887989044189453125">
        <ele>1013.4000244140625</ele>
        <time>2020-08-11T11:24:11.000Z</time>
      </trkpt>
      <trkpt lat="42.24288736470043659210205078125" lon="1.51736428029835224151611328125">
        <ele>1013.5999755859375</ele>
        <time>2020-08-11T11:24:18.000Z</time>
      </trkpt>
      <trkpt lat="42.24283196032047271728515625" lon="1.51702816598117351531982421875">
        <ele>1013.79998779296875</ele>
        <time>2020-08-11T11:24:26.000Z</time>
      </trkpt>
      <trkpt lat="42.24279046989977359771728515625" lon="1.51676983572542667388916015625">
        <ele>1014.20001220703125</ele>
        <time>2020-08-11T11:24:32.000Z</time>
      </trkpt>
      <trkpt lat="42.242765240371227264404296875" lon="1.5166928060352802276611328125">
        <ele>1014.4000244140625</ele>
        <time>2020-08-11T11:24:34.000Z</time>
      </trkpt>
      <trkpt lat="42.24261981435120105743408203125" lon="1.51638376526534557342529296875">
        <ele>1015</ele>
        <time>2020-08-11T11:24:43.000Z</time>
      </trkpt>
      <trkpt lat="42.24258678965270519256591796875" lon="1.51627781800925731658935546875">
        <ele>1015.4000244140625</ele>
        <time>2020-08-11T11:24:46.000Z</time>
      </trkpt>
      <trkpt lat="42.242576144635677337646484375" lon="1.5161282010376453399658203125">
        <ele>1016.20001220703125</ele>
        <time>2020-08-11T11:24:50.000Z</time>
      </trkpt>
      <trkpt lat="42.24257907830178737640380859375" lon="1.51609241031110286712646484375">
        <ele>1016.4000244140625</ele>
        <time>2020-08-11T11:24:51.000Z</time>
      </trkpt>
      <trkpt lat="42.24258796311914920806884765625" lon="1.51573819108307361602783203125">
        <ele>1017</ele>
        <time>2020-08-11T11:25:00.000Z</time>
      </trkpt>
      <trkpt lat="42.24257580935955047607421875" lon="1.51523460634052753448486328125">
        <ele>1017.20001220703125</ele>
        <time>2020-08-11T11:25:10.000Z</time>
      </trkpt>
      <trkpt lat="42.24257488735020160675048828125" lon="1.514842920005321502685546875">
        <ele>1016.79998779296875</ele>
        <time>2020-08-11T11:25:17.000Z</time>
      </trkpt>
      <trkpt lat="42.24258058704435825347900390625" lon="1.514783240854740142822265625">
        <ele>1017</ele>
        <time>2020-08-11T11:25:18.000Z</time>
      </trkpt>
      <trkpt lat="42.2426527552306652069091796875" lon="1.51438518427312374114990234375">
        <ele>1016.20001220703125</ele>
        <time>2020-08-11T11:25:24.000Z</time>
      </trkpt>
      <trkpt lat="42.24264529533684253692626953125" lon="1.51422408409416675567626953125">
        <ele>1015.5999755859375</ele>
        <time>2020-08-11T11:25:26.000Z</time>
      </trkpt>
      <trkpt lat="42.2426145337522029876708984375" lon="1.5141517482697963714599609375">
        <ele>1015.4000244140625</ele>
        <time>2020-08-11T11:25:27.000Z</time>
      </trkpt>
      <trkpt lat="42.24257455207407474517822265625" lon="1.51408351957798004150390625">
        <ele>1015.20001220703125</ele>
        <time>2020-08-11T11:25:28.000Z</time>
      </trkpt>
      <trkpt lat="42.24244697950780391693115234375" lon="1.51386517100036144256591796875">
        <ele>1014.4000244140625</ele>
        <time>2020-08-11T11:25:31.000Z</time>
      </trkpt>
      <trkpt lat="42.2424113564193248748779296875" lon="1.513781435787677764892578125">
        <ele>1014.20001220703125</ele>
        <time>2020-08-11T11:25:32.000Z</time>
      </trkpt>
      <trkpt lat="42.24232058040797710418701171875" lon="1.5135063417255878448486328125">
        <ele>1013.20001220703125</ele>
        <time>2020-08-11T11:25:35.000Z</time>
      </trkpt>
      <trkpt lat="42.242261655628681182861328125" lon="1.5133088640868663787841796875">
        <ele>1012.20001220703125</ele>
        <time>2020-08-11T11:25:37.000Z</time>
      </trkpt>
      <trkpt lat="42.24223072640597820281982421875" lon="1.51320652104914188385009765625">
        <ele>1011.79998779296875</ele>
        <time>2020-08-11T11:25:38.000Z</time>
      </trkpt>
      <trkpt lat="42.24213181994855403900146484375" lon="1.5128894336521625518798828125">
        <ele>1011</ele>
        <time>2020-08-11T11:25:41.000Z</time>
      </trkpt>
      <trkpt lat="42.242038361728191375732421875" lon="1.512554325163364410400390625">
        <ele>1009.79998779296875</ele>
        <time>2020-08-11T11:25:44.000Z</time>
      </trkpt>
      <trkpt lat="42.2420133836567401885986328125" lon="1.5124378167092800140380859375">
        <ele>1009.20001220703125</ele>
        <time>2020-08-11T11:25:45.000Z</time>
      </trkpt>
      <trkpt lat="42.24196602590382099151611328125" lon="1.51220186613500118255615234375">
        <ele>1008</ele>
        <time>2020-08-11T11:25:47.000Z</time>
      </trkpt>
      <trkpt lat="42.2418873198330402374267578125" lon="1.51184429414570331573486328125">
        <ele>1007</ele>
        <time>2020-08-11T11:25:50.000Z</time>
      </trkpt>
      <trkpt lat="42.24184700287878513336181640625" lon="1.51159903965890407562255859375">
        <ele>1006.5999755859375</ele>
        <time>2020-08-11T11:25:52.000Z</time>
      </trkpt>
      <trkpt lat="42.2418055124580860137939453125" lon="1.5113565512001514434814453125">
        <ele>1005.79998779296875</ele>
        <time>2020-08-11T11:25:54.000Z</time>
      </trkpt>
      <trkpt lat="42.241760753095149993896484375" lon="1.51110953651368618011474609375">
        <ele>1005</ele>
        <time>2020-08-11T11:25:56.000Z</time>
      </trkpt>
      <trkpt lat="42.2417153231799602508544921875" lon="1.5108573250472545623779296875">
        <ele>1003.79998779296875</ele>
        <time>2020-08-11T11:25:58.000Z</time>
      </trkpt>
      <trkpt lat="42.24166729487478733062744140625" lon="1.510604359209537506103515625">
        <ele>1003.20001220703125</ele>
        <time>2020-08-11T11:26:00.000Z</time>
      </trkpt>
      <trkpt lat="42.2416150756180286407470703125" lon="1.51035717688500881195068359375">
        <ele>1002.5999755859375</ele>
        <time>2020-08-11T11:26:02.000Z</time>
      </trkpt>
      <trkpt lat="42.241550199687480926513671875" lon="1.5099882893264293670654296875">
        <ele>1001.20001220703125</ele>
        <time>2020-08-11T11:26:05.000Z</time>
      </trkpt>
      <trkpt lat="42.241519354283809661865234375" lon="1.5097525902092456817626953125">
        <ele>1001</ele>
        <time>2020-08-11T11:26:07.000Z</time>
      </trkpt>
      <trkpt lat="42.24144685082137584686279296875" lon="1.5095474012196063995361328125">
        <ele>1000.20001220703125</ele>
        <time>2020-08-11T11:26:09.000Z</time>
      </trkpt>
      <trkpt lat="42.24139454774558544158935546875" lon="1.5094622410833835601806640625">
        <ele>1000</ele>
        <time>2020-08-11T11:26:10.000Z</time>
      </trkpt>
      <trkpt lat="42.24134174175560474395751953125" lon="1.509381942451000213623046875">
        <ele>999.79998779296875</ele>
        <time>2020-08-11T11:26:11.000Z</time>
      </trkpt>
      <trkpt lat="42.241210229694843292236328125" lon="1.50914984755218029022216796875">
        <ele>999.5999755859375</ele>
        <time>2020-08-11T11:26:14.000Z</time>
      </trkpt>
      <trkpt lat="42.24119489081203937530517578125" lon="1.509071476757526397705078125">
        <ele>999.5999755859375</ele>
        <time>2020-08-11T11:26:15.000Z</time>
      </trkpt>
      <trkpt lat="42.24126094020903110504150390625" lon="1.5088845603168010711669921875">
        <ele>999.4000244140625</ele>
        <time>2020-08-11T11:26:18.000Z</time>
      </trkpt>
      <trkpt lat="42.24131156690418720245361328125" lon="1.50883980095386505126953125">
        <ele>999.20001220703125</ele>
        <time>2020-08-11T11:26:19.000Z</time>
      </trkpt>
      <trkpt lat="42.2414367087185382843017578125" lon="1.5087638609111309051513671875">
        <ele>998.79998779296875</ele>
        <time>2020-08-11T11:26:21.000Z</time>
      </trkpt>
      <trkpt lat="42.2415044344961643218994140625" lon="1.508718430995941162109375">
        <ele>998.4000244140625</ele>
        <time>2020-08-11T11:26:22.000Z</time>
      </trkpt>
      <trkpt lat="42.24156151525676250457763671875" lon="1.50865313597023487091064453125">
        <ele>998.20001220703125</ele>
        <time>2020-08-11T11:26:23.000Z</time>
      </trkpt>
      <trkpt lat="42.24160191603004932403564453125" lon="1.5085623599588871002197265625">
        <ele>997.5999755859375</ele>
        <time>2020-08-11T11:26:24.000Z</time>
      </trkpt>
      <trkpt lat="42.24162387661635875701904296875" lon="1.508459262549877166748046875">
        <ele>997</ele>
        <time>2020-08-11T11:26:25.000Z</time>
      </trkpt>
      <trkpt lat="42.241617254912853240966796875" lon="1.50823253206908702850341796875">
        <ele>995.79998779296875</ele>
        <time>2020-08-11T11:26:27.000Z</time>
      </trkpt>
      <trkpt lat="42.2415761835873126983642578125" lon="1.50799247436225414276123046875">
        <ele>994.79998779296875</ele>
        <time>2020-08-11T11:26:29.000Z</time>
      </trkpt>
      <trkpt lat="42.2415520437061786651611328125" lon="1.50786875747144222259521484375">
        <ele>994.4000244140625</ele>
        <time>2020-08-11T11:26:30.000Z</time>
      </trkpt>
      <trkpt lat="42.241506613790988922119140625" lon="1.5076131932437419891357421875">
        <ele>993.4000244140625</ele>
        <time>2020-08-11T11:26:32.000Z</time>
      </trkpt>
      <trkpt lat="42.24148691631853580474853515625" lon="1.5074810944497585296630859375">
        <ele>992.4000244140625</ele>
        <time>2020-08-11T11:26:33.000Z</time>
      </trkpt>
      <trkpt lat="42.24144634790718555450439453125" lon="1.5072138793766498565673828125">
        <ele>990.79998779296875</ele>
        <time>2020-08-11T11:26:35.000Z</time>
      </trkpt>
      <trkpt lat="42.2414239682257175445556640625" lon="1.5069580636918544769287109375">
        <ele>989.5999755859375</ele>
        <time>2020-08-11T11:26:37.000Z</time>
      </trkpt>
      <trkpt lat="42.24143025465309619903564453125" lon="1.5068341791629791259765625">
        <ele>989.20001220703125</ele>
        <time>2020-08-11T11:26:38.000Z</time>
      </trkpt>
      <trkpt lat="42.24149311892688274383544921875" lon="1.5065936185419559478759765625">
        <ele>988.20001220703125</ele>
        <time>2020-08-11T11:26:40.000Z</time>
      </trkpt>
      <trkpt lat="42.24154458381235599517822265625" lon="1.506480462849140167236328125">
        <ele>987.5999755859375</ele>
        <time>2020-08-11T11:26:41.000Z</time>
      </trkpt>
      <trkpt lat="42.24160778336226940155029296875" lon="1.5063736774027347564697265625">
        <ele>987</ele>
        <time>2020-08-11T11:26:42.000Z</time>
      </trkpt>
      <trkpt lat="42.24175765179097652435302734375" lon="1.506187431514263153076171875">
        <ele>985.4000244140625</ele>
        <time>2020-08-11T11:26:44.000Z</time>
      </trkpt>
      <trkpt lat="42.241829149425029754638671875" lon="1.50609799660742282867431640625">
        <ele>984.20001220703125</ele>
        <time>2020-08-11T11:26:45.000Z</time>
      </trkpt>
      <trkpt lat="42.2418920136988162994384765625" lon="1.50599758140742778778076171875">
        <ele>983.4000244140625</ele>
        <time>2020-08-11T11:26:46.000Z</time>
      </trkpt>
      <trkpt lat="42.2419392876327037811279296875" lon="1.50588333606719970703125">
        <ele>982.5999755859375</ele>
        <time>2020-08-11T11:26:47.000Z</time>
      </trkpt>
      <trkpt lat="42.24196367897093296051025390625" lon="1.5056478045880794525146484375">
        <ele>981.20001220703125</ele>
        <time>2020-08-11T11:26:49.000Z</time>
      </trkpt>
      <trkpt lat="42.24190718494355678558349609375" lon="1.5054582059383392333984375">
        <ele>979.79998779296875</ele>
        <time>2020-08-11T11:26:51.000Z</time>
      </trkpt>
      <trkpt lat="42.24177894182503223419189453125" lon="1.50535083375871181488037109375">
        <ele>978.5999755859375</ele>
        <time>2020-08-11T11:26:53.000Z</time>
      </trkpt>
      <trkpt lat="42.24170668981969356536865234375" lon="1.50530590675771236419677734375">
        <ele>978.20001220703125</ele>
        <time>2020-08-11T11:26:54.000Z</time>
      </trkpt>
      <trkpt lat="42.24156788550317287445068359375" lon="1.5051898173987865447998046875">
        <ele>977.4000244140625</ele>
        <time>2020-08-11T11:26:56.000Z</time>
      </trkpt>
      <trkpt lat="42.24145372398197650909423828125" lon="1.50502326898276805877685546875">
        <ele>976.20001220703125</ele>
        <time>2020-08-11T11:26:58.000Z</time>
      </trkpt>
      <trkpt lat="42.24141231738030910491943359375" lon="1.50492017157375812530517578125">
        <ele>975.20001220703125</ele>
        <time>2020-08-11T11:26:59.000Z</time>
      </trkpt>
      <trkpt lat="42.24136604927480220794677734375" lon="1.50469134561717510223388671875">
        <ele>974</ele>
        <time>2020-08-11T11:27:01.000Z</time>
      </trkpt>
      <trkpt lat="42.24135003983974456787109375" lon="1.50457483716309070587158203125">
        <ele>973.4000244140625</ele>
        <time>2020-08-11T11:27:02.000Z</time>
      </trkpt>
      <trkpt lat="42.24130737595260143280029296875" lon="1.50434416718780994415283203125">
        <ele>972.79998779296875</ele>
        <time>2020-08-11T11:27:04.000Z</time>
      </trkpt>
      <trkpt lat="42.2412496246397495269775390625" lon="1.50411534123122692108154296875">
        <ele>971.79998779296875</ele>
        <time>2020-08-11T11:27:06.000Z</time>
      </trkpt>
      <trkpt lat="42.24121458828449249267578125" lon="1.50400520302355289459228515625">
        <ele>971.4000244140625</ele>
        <time>2020-08-11T11:27:07.000Z</time>
      </trkpt>
      <trkpt lat="42.24105499684810638427734375" lon="1.50359029881656169891357421875">
        <ele>970.5999755859375</ele>
        <time>2020-08-11T11:27:11.000Z</time>
      </trkpt>
      <trkpt lat="42.241012752056121826171875" lon="1.50348988361656665802001953125">
        <ele>970.20001220703125</ele>
        <time>2020-08-11T11:27:12.000Z</time>
      </trkpt>
      <trkpt lat="42.2408596985042095184326171875" lon="1.50309476070106029510498046875">
        <ele>969.20001220703125</ele>
        <time>2020-08-11T11:27:16.000Z</time>
      </trkpt>
      <trkpt lat="42.2408073954284191131591796875" lon="1.50289040990173816680908203125">
        <ele>968.79998779296875</ele>
        <time>2020-08-11T11:27:18.000Z</time>
      </trkpt>
      <trkpt lat="42.24076238460838794708251953125" lon="1.5025763399899005889892578125">
        <ele>968.20001220703125</ele>
        <time>2020-08-11T11:27:21.000Z</time>
      </trkpt>
      <trkpt lat="42.2407205589115619659423828125" lon="1.50228121317923069000244140625">
        <ele>968</ele>
        <time>2020-08-11T11:27:24.000Z</time>
      </trkpt>
      <trkpt lat="42.24059122614562511444091796875" lon="1.501849628984928131103515625">
        <ele>967.79998779296875</ele>
        <time>2020-08-11T11:27:29.000Z</time>
      </trkpt>
      <trkpt lat="42.24055266939103603363037109375" lon="1.50177377276122570037841796875">
        <ele>967.5999755859375</ele>
        <time>2020-08-11T11:27:30.000Z</time>
      </trkpt>
      <trkpt lat="42.2404677607119083404541015625" lon="1.50162910111248493194580078125">
        <ele>967</ele>
        <time>2020-08-11T11:27:32.000Z</time>
      </trkpt>
      <trkpt lat="42.240292243659496307373046875" lon="1.50136440061032772064208984375">
        <ele>966.20001220703125</ele>
        <time>2020-08-11T11:27:36.000Z</time>
      </trkpt>
      <trkpt lat="42.2401311434805393218994140625" lon="1.50120229460299015045166015625">
        <ele>966</ele>
        <time>2020-08-11T11:27:39.000Z</time>
      </trkpt>
      <trkpt lat="42.24001228809356689453125" lon="1.501112692058086395263671875">
        <ele>966</ele>
        <time>2020-08-11T11:27:41.000Z</time>
      </trkpt>
      <trkpt lat="42.23969788290560245513916015625" lon="1.50095251388847827911376953125">
        <ele>965.20001220703125</ele>
        <time>2020-08-11T11:27:46.000Z</time>
      </trkpt>
      <trkpt lat="42.23963133059442043304443359375" lon="1.50093524716794490814208984375">
        <ele>965</ele>
        <time>2020-08-11T11:27:47.000Z</time>
      </trkpt>
      <trkpt lat="42.23931030370295047760009765625" lon="1.500905491411685943603515625">
        <ele>964.79998779296875</ele>
        <time>2020-08-11T11:27:52.000Z</time>
      </trkpt>
      <trkpt lat="42.2391521371901035308837890625" lon="1.5008858777582645416259765625">
        <ele>964.5999755859375</ele>
        <time>2020-08-11T11:27:55.000Z</time>
      </trkpt>
      <trkpt lat="42.239065803587436676025390625" lon="1.5008577145636081695556640625">
        <ele>964.5999755859375</ele>
        <time>2020-08-11T11:27:57.000Z</time>
      </trkpt>
      <trkpt lat="42.23886421881616115570068359375" lon="1.5007420442998409271240234375">
        <ele>965</ele>
        <time>2020-08-11T11:28:03.000Z</time>
      </trkpt>
      <trkpt lat="42.23872281610965728759765625" lon="1.5005874820053577423095703125">
        <ele>965.5999755859375</ele>
        <time>2020-08-11T11:28:09.000Z</time>
      </trkpt>
      <trkpt lat="42.2385623864829540252685546875" lon="1.50037500075995922088623046875">
        <ele>966.20001220703125</ele>
        <time>2020-08-11T11:28:17.000Z</time>
      </trkpt>
      <trkpt lat="42.23851117305457592010498046875" lon="1.50029025971889495849609375">
        <ele>966.4000244140625</ele>
        <time>2020-08-11T11:28:20.000Z</time>
      </trkpt>
      <trkpt lat="42.23842098377645015716552734375" lon="1.5001224540174007415771484375">
        <ele>967.20001220703125</ele>
        <time>2020-08-11T11:28:26.000Z</time>
      </trkpt>
      <trkpt lat="42.2384074889123439788818359375" lon="1.5000937879085540771484375">
        <ele>967.4000244140625</ele>
        <time>2020-08-11T11:28:27.000Z</time>
      </trkpt>
      <trkpt lat="42.2383292019367218017578125" lon="1.49984325282275676727294921875">
        <ele>968.5999755859375</ele>
        <time>2020-08-11T11:28:35.000Z</time>
      </trkpt>
      <trkpt lat="42.238255776464939117431640625" lon="1.49959020316600799560546875">
        <ele>969.20001220703125</ele>
        <time>2020-08-11T11:28:43.000Z</time>
      </trkpt>
      <trkpt lat="42.2381935827434062957763671875" lon="1.4994073100388050079345703125">
        <ele>969.5999755859375</ele>
        <time>2020-08-11T11:28:49.000Z</time>
      </trkpt>
      <trkpt lat="42.23816625773906707763671875" lon="1.49931125342845916748046875">
        <ele>970.20001220703125</ele>
        <time>2020-08-11T11:28:52.000Z</time>
      </trkpt>
      <trkpt lat="42.23809660412371158599853515625" lon="1.49906842969357967376708984375">
        <ele>971</ele>
        <time>2020-08-11T11:28:59.000Z</time>
      </trkpt>
      <trkpt lat="42.23808537237346172332763671875" lon="1.49903456680476665496826171875">
        <ele>971.20001220703125</ele>
        <time>2020-08-11T11:29:00.000Z</time>
      </trkpt>
      <trkpt lat="42.23799048922955989837646484375" lon="1.49872628040611743927001953125">
        <ele>972</ele>
        <time>2020-08-11T11:29:09.000Z</time>
      </trkpt>
      <trkpt lat="42.2379592247307300567626953125" lon="1.49862385354936122894287109375">
        <ele>972.20001220703125</ele>
        <time>2020-08-11T11:29:12.000Z</time>
      </trkpt>
      <trkpt lat="42.23788487724959850311279296875" lon="1.498441211879253387451171875">
        <ele>972.5999755859375</ele>
        <time>2020-08-11T11:29:18.000Z</time>
      </trkpt>
      <trkpt lat="42.2377788461744785308837890625" lon="1.49816167540848255157470703125">
        <ele>973</ele>
        <time>2020-08-11T11:29:26.000Z</time>
      </trkpt>
      <trkpt lat="42.23765973933041095733642578125" lon="1.49788490496575832366943359375">
        <ele>972.4000244140625</ele>
        <time>2020-08-11T11:29:32.000Z</time>
      </trkpt>
      <trkpt lat="42.23763643763959407806396484375" lon="1.4978224597871303558349609375">
        <ele>972.20001220703125</ele>
        <time>2020-08-11T11:29:33.000Z</time>
      </trkpt>
      <trkpt lat="42.237542308866977691650390625" lon="1.4975176937878131866455078125">
        <ele>971.20001220703125</ele>
        <time>2020-08-11T11:29:37.000Z</time>
      </trkpt>
      <trkpt lat="42.237492017447948455810546875" lon="1.49733605794608592987060546875">
        <ele>970</ele>
        <time>2020-08-11T11:29:39.000Z</time>
      </trkpt>
      <trkpt lat="42.23738363943994045257568359375" lon="1.49704654701054096221923828125">
        <ele>968.5999755859375</ele>
        <time>2020-08-11T11:29:42.000Z</time>
      </trkpt>
      <trkpt lat="42.2372294962406158447265625" lon="1.49675619788467884063720703125">
        <ele>967.20001220703125</ele>
        <time>2020-08-11T11:29:45.000Z</time>
      </trkpt>
      <trkpt lat="42.2371133230626583099365234375" lon="1.496561653912067413330078125">
        <ele>966</ele>
        <time>2020-08-11T11:29:47.000Z</time>
      </trkpt>
      <trkpt lat="42.2369936294853687286376953125" lon="1.4963640086352825164794921875">
        <ele>964.5999755859375</ele>
        <time>2020-08-11T11:29:49.000Z</time>
      </trkpt>
      <trkpt lat="42.2368776239454746246337890625" lon="1.49616762064397335052490234375">
        <ele>963.5999755859375</ele>
        <time>2020-08-11T11:29:51.000Z</time>
      </trkpt>
      <trkpt lat="42.23676622845232486724853515625" lon="1.49597533978521823883056640625">
        <ele>962.4000244140625</ele>
        <time>2020-08-11T11:29:53.000Z</time>
      </trkpt>
      <trkpt lat="42.23666246049106121063232421875" lon="1.495789177715778350830078125">
        <ele>961.79998779296875</ele>
        <time>2020-08-11T11:29:55.000Z</time>
      </trkpt>
      <trkpt lat="42.2365106642246246337890625" lon="1.4955246448516845703125">
        <ele>961.4000244140625</ele>
        <time>2020-08-11T11:29:58.000Z</time>
      </trkpt>
      <trkpt lat="42.2363840974867343902587890625" lon="1.49527628906071186065673828125">
        <ele>961.20001220703125</ele>
        <time>2020-08-11T11:30:01.000Z</time>
      </trkpt>
      <trkpt lat="42.23624906502664089202880859375" lon="1.49489122442901134490966796875">
        <ele>960.5999755859375</ele>
        <time>2020-08-11T11:30:06.000Z</time>
      </trkpt>
      <trkpt lat="42.2362000308930873870849609375" lon="1.4946447126567363739013671875">
        <ele>960.4000244140625</ele>
        <time>2020-08-11T11:30:09.000Z</time>
      </trkpt>
      <trkpt lat="42.23610774613916873931884765625" lon="1.4941411279141902923583984375">
        <ele>959.4000244140625</ele>
        <time>2020-08-11T11:30:15.000Z</time>
      </trkpt>
      <trkpt lat="42.23608209751546382904052734375" lon="1.49406024254858493804931640625">
        <ele>959.20001220703125</ele>
        <time>2020-08-11T11:30:16.000Z</time>
      </trkpt>
      <trkpt lat="42.2359425388276576995849609375" lon="1.49375899694859981536865234375">
        <ele>958.5999755859375</ele>
        <time>2020-08-11T11:30:20.000Z</time>
      </trkpt>
      <trkpt lat="42.235799543559551239013671875" lon="1.49346998892724514007568359375">
        <ele>958.20001220703125</ele>
        <time>2020-08-11T11:30:24.000Z</time>
      </trkpt>
      <trkpt lat="42.23570290021598339080810546875" lon="1.49326689541339874267578125">
        <ele>958</ele>
        <time>2020-08-11T11:30:27.000Z</time>
      </trkpt>
      <trkpt lat="42.2354966215789318084716796875" lon="1.49285526014864444732666015625">
        <ele>957.5999755859375</ele>
        <time>2020-08-11T11:30:34.000Z</time>
      </trkpt>
      <trkpt lat="42.2352931089699268341064453125" lon="1.492453850805759429931640625">
        <ele>957.20001220703125</ele>
        <time>2020-08-11T11:30:42.000Z</time>
      </trkpt>
      <trkpt lat="42.2352713160216808319091796875" lon="1.4924097619950771331787109375">
        <ele>957.20001220703125</ele>
        <time>2020-08-11T11:30:43.000Z</time>
      </trkpt>
      <trkpt lat="42.23516813479363918304443359375" lon="1.492136009037494659423828125">
        <ele>957</ele>
        <time>2020-08-11T11:30:49.000Z</time>
      </trkpt>
      <trkpt lat="42.23515187390148639678955078125" lon="1.49188580922782421112060546875">
        <ele>956.20001220703125</ele>
        <time>2020-08-11T11:30:53.000Z</time>
      </trkpt>
      <trkpt lat="42.2351589985191822052001953125" lon="1.49181238375604152679443359375">
        <ele>956</ele>
        <time>2020-08-11T11:30:54.000Z</time>
      </trkpt>
      <trkpt lat="42.23516888916492462158203125" lon="1.491735018789768218994140625">
        <ele>955.5999755859375</ele>
        <time>2020-08-11T11:30:55.000Z</time>
      </trkpt>
      <trkpt lat="42.235176265239715576171875" lon="1.49165279231965541839599609375">
        <ele>955</ele>
        <time>2020-08-11T11:30:56.000Z</time>
      </trkpt>
      <trkpt lat="42.23518540151417255401611328125" lon="1.4913777820765972137451171875">
        <ele>953.4000244140625</ele>
        <time>2020-08-11T11:30:59.000Z</time>
      </trkpt>
      <trkpt lat="42.2351633571088314056396484375" lon="1.49095927365124225616455078125">
        <ele>952</ele>
        <time>2020-08-11T11:31:03.000Z</time>
      </trkpt>
      <trkpt lat="42.2350802086293697357177734375" lon="1.49057395756244659423828125">
        <ele>950.79998779296875</ele>
        <time>2020-08-11T11:31:07.000Z</time>
      </trkpt>
      <trkpt lat="42.23506252281367778778076171875" lon="1.49048904888331890106201171875">
        <ele>950.5999755859375</ele>
        <time>2020-08-11T11:31:08.000Z</time>
      </trkpt>
      <trkpt lat="42.2350148297846317291259765625" lon="1.4901151321828365325927734375">
        <ele>951</ele>
        <time>2020-08-11T11:31:13.000Z</time>
      </trkpt>
      <trkpt lat="42.2350077889859676361083984375" lon="1.4897687919437885284423828125">
        <ele>951.5999755859375</ele>
        <time>2020-08-11T11:31:19.000Z</time>
      </trkpt>
      <trkpt lat="42.235002256929874420166015625" lon="1.48968388326466083526611328125">
        <ele>951.79998779296875</ele>
        <time>2020-08-11T11:31:21.000Z</time>
      </trkpt>
      <trkpt lat="42.23496361635625362396240234375" lon="1.48953736759722232818603515625">
        <ele>952.4000244140625</ele>
        <time>2020-08-11T11:31:25.000Z</time>
      </trkpt>
      <trkpt lat="42.2349025122821331024169921875" lon="1.4894549734890460968017578125">
        <ele>953</ele>
        <time>2020-08-11T11:31:28.000Z</time>
      </trkpt>
      <trkpt lat="42.234811149537563323974609375" lon="1.4893688075244426727294921875">
        <ele>954</ele>
        <time>2020-08-11T11:31:32.000Z</time>
      </trkpt>
      <trkpt lat="42.23478734493255615234375" lon="1.48935631848871707916259765625">
        <ele>954.20001220703125</ele>
        <time>2020-08-11T11:31:33.000Z</time>
      </trkpt>
      <trkpt lat="42.23466488532721996307373046875" lon="1.4892737567424774169921875">
        <ele>954.4000244140625</ele>
        <time>2020-08-11T11:31:38.000Z</time>
      </trkpt>
      <trkpt lat="42.23449205048382282257080078125" lon="1.48908055387437343597412109375">
        <ele>954.79998779296875</ele>
        <time>2020-08-11T11:31:46.000Z</time>
      </trkpt>
      <trkpt lat="42.23435760475695133209228515625" lon="1.48884837515652179718017578125">
        <ele>955</ele>
        <time>2020-08-11T11:31:54.000Z</time>
      </trkpt>
      <trkpt lat="42.23432977683842182159423828125" lon="1.488793976604938507080078125">
        <ele>955.20001220703125</ele>
        <time>2020-08-11T11:31:56.000Z</time>
      </trkpt>
      <trkpt lat="42.23423279821872711181640625" lon="1.488618291914463043212890625">
        <ele>956.5999755859375</ele>
        <time>2020-08-11T11:32:03.000Z</time>
      </trkpt>
      <trkpt lat="42.23414537496864795684814453125" lon="1.48844897747039794921875">
        <ele>957.79998779296875</ele>
        <time>2020-08-11T11:32:10.000Z</time>
      </trkpt>
      <trkpt lat="42.23409407772123813629150390625" lon="1.4883535914123058319091796875">
        <ele>958.20001220703125</ele>
        <time>2020-08-11T11:32:14.000Z</time>
      </trkpt>
      <trkpt lat="42.234018556773662567138671875" lon="1.48822090588510036468505859375">
        <ele>959</ele>
        <time>2020-08-11T11:32:20.000Z</time>
      </trkpt>
      <trkpt lat="42.2339925728738307952880859375" lon="1.48817782290279865264892578125">
        <ele>959.20001220703125</ele>
        <time>2020-08-11T11:32:22.000Z</time>
      </trkpt>
      <trkpt lat="42.23395477049052715301513671875" lon="1.488108672201633453369140625">
        <ele>960</ele>
        <time>2020-08-11T11:32:25.000Z</time>
      </trkpt>
      <trkpt lat="42.23388168029487133026123046875" lon="1.48796626366674900054931640625">
        <ele>960.79998779296875</ele>
        <time>2020-08-11T11:32:31.000Z</time>
      </trkpt>
      <trkpt lat="42.2338561154901981353759765625" lon="1.48792259395122528076171875">
        <ele>961</ele>
        <time>2020-08-11T11:32:33.000Z</time>
      </trkpt>
      <trkpt lat="42.23376919515430927276611328125" lon="1.4877665229141712188720703125">
        <ele>961.79998779296875</ele>
        <time>2020-08-11T11:32:40.000Z</time>
      </trkpt>
      <trkpt lat="42.23375561647117137908935546875" lon="1.48774464614689350128173828125">
        <ele>962.20001220703125</ele>
        <time>2020-08-11T11:32:41.000Z</time>
      </trkpt>
      <trkpt lat="42.23368152044713497161865234375" lon="1.48757633753120899200439453125">
        <ele>963.4000244140625</ele>
        <time>2020-08-11T11:32:48.000Z</time>
      </trkpt>
      <trkpt lat="42.2336621582508087158203125" lon="1.48753023706376552581787109375">
        <ele>963.79998779296875</ele>
        <time>2020-08-11T11:32:50.000Z</time>
      </trkpt>
      <trkpt lat="42.23362888209521770477294921875" lon="1.48738036863505840301513671875">
        <ele>964.5999755859375</ele>
        <time>2020-08-11T11:32:56.000Z</time>
      </trkpt>
      <trkpt lat="42.23362200893461704254150390625" lon="1.48732940666377544403076171875">
        <ele>965</ele>
        <time>2020-08-11T11:32:58.000Z</time>
      </trkpt>
      <trkpt lat="42.23359451629221439361572265625" lon="1.48711885325610637664794921875">
        <ele>965.79998779296875</ele>
        <time>2020-08-11T11:33:06.000Z</time>
      </trkpt>
      <trkpt lat="42.2335593961179256439208984375" lon="1.4868880994617938995361328125">
        <ele>966.79998779296875</ele>
        <time>2020-08-11T11:33:15.000Z</time>
      </trkpt>
      <trkpt lat="42.2335547022521495819091796875" lon="1.48683805949985980987548828125">
        <ele>967</ele>
        <time>2020-08-11T11:33:17.000Z</time>
      </trkpt>
      <trkpt lat="42.233549840748310089111328125" lon="1.48667913861572742462158203125">
        <ele>967.79998779296875</ele>
        <time>2020-08-11T11:33:23.000Z</time>
      </trkpt>
      <trkpt lat="42.23355327732861042022705078125" lon="1.486597247421741485595703125">
        <ele>967.79998779296875</ele>
        <time>2020-08-11T11:33:26.000Z</time>
      </trkpt>
      <trkpt lat="42.23356434144079685211181640625" lon="1.48651351220905780792236328125">
        <ele>968</ele>
        <time>2020-08-11T11:33:29.000Z</time>
      </trkpt>
      <trkpt lat="42.233569957315921783447265625" lon="1.4864565990865230560302734375">
        <ele>968.20001220703125</ele>
        <time>2020-08-11T11:33:31.000Z</time>
      </trkpt>
      <trkpt lat="42.23360675387084484100341796875" lon="1.48626775480806827545166015625">
        <ele>968.4000244140625</ele>
        <time>2020-08-11T11:33:38.000Z</time>
      </trkpt>
      <trkpt lat="42.23365989513695240020751953125" lon="1.48604596965014934539794921875">
        <ele>969</ele>
        <time>2020-08-11T11:33:46.000Z</time>
      </trkpt>
      <trkpt lat="42.2336660139262676239013671875" lon="1.48601747117936611175537109375">
        <ele>969.20001220703125</ele>
        <time>2020-08-11T11:33:47.000Z</time>
      </trkpt>
      <trkpt lat="42.23367900587618350982666015625" lon="1.48583977483212947845458984375">
        <ele>970</ele>
        <time>2020-08-11T11:33:53.000Z</time>
      </trkpt>
      <trkpt lat="42.23368537612259387969970703125" lon="1.48572058416903018951416015625">
        <ele>970.4000244140625</ele>
        <time>2020-08-11T11:33:57.000Z</time>
      </trkpt>
      <trkpt lat="42.2336871363222599029541015625" lon="1.4855992980301380157470703125">
        <ele>970.79998779296875</ele>
        <time>2020-08-11T11:34:01.000Z</time>
      </trkpt>
      <trkpt lat="42.2337050735950469970703125" lon="1.4853411354124546051025390625">
        <ele>971.4000244140625</ele>
        <time>2020-08-11T11:34:10.000Z</time>
      </trkpt>
      <trkpt lat="42.23371270112693309783935546875" lon="1.48509076796472072601318359375">
        <ele>972.20001220703125</ele>
        <time>2020-08-11T11:34:19.000Z</time>
      </trkpt>
      <trkpt lat="42.23372225649654865264892578125" lon="1.48503544740378856658935546875">
        <ele>972.5999755859375</ele>
        <time>2020-08-11T11:34:21.000Z</time>
      </trkpt>
      <trkpt lat="42.23374388180673122406005859375" lon="1.4848603494465351104736328125">
        <ele>973</ele>
        <time>2020-08-11T11:34:27.000Z</time>
      </trkpt>
      <trkpt lat="42.23376684822142124176025390625" lon="1.48462406359612941741943359375">
        <ele>973</ele>
        <time>2020-08-11T11:34:35.000Z</time>
      </trkpt>
      <trkpt lat="42.23377707414329051971435546875" lon="1.4845052920281887054443359375">
        <ele>974</ele>
        <time>2020-08-11T11:34:39.000Z</time>
      </trkpt>
      <trkpt lat="42.2337917424738407135009765625" lon="1.4843356423079967498779296875">
        <ele>974.5999755859375</ele>
        <time>2020-08-11T11:34:45.000Z</time>
      </trkpt>
      <trkpt lat="42.2337920777499675750732421875" lon="1.48419574834406375885009765625">
        <ele>975</ele>
        <time>2020-08-11T11:34:50.000Z</time>
      </trkpt>
      <trkpt lat="42.23378495313227176666259765625" lon="1.48411042056977748870849609375">
        <ele>975.4000244140625</ele>
        <time>2020-08-11T11:34:53.000Z</time>
      </trkpt>
      <trkpt lat="42.23375947214663028717041015625" lon="1.48390539921820163726806640625">
        <ele>976</ele>
        <time>2020-08-11T11:35:00.000Z</time>
      </trkpt>
      <trkpt lat="42.233753018081188201904296875" lon="1.483876146376132965087890625">
        <ele>976.20001220703125</ele>
        <time>2020-08-11T11:35:01.000Z</time>
      </trkpt>
      <trkpt lat="42.2336998768150806427001953125" lon="1.48365494795143604278564453125">
        <ele>976.5999755859375</ele>
        <time>2020-08-11T11:35:09.000Z</time>
      </trkpt>
      <trkpt lat="42.23368437029421329498291015625" lon="1.483534835278987884521484375">
        <ele>977.20001220703125</ele>
        <time>2020-08-11T11:35:13.000Z</time>
      </trkpt>
      <trkpt lat="42.23366274498403072357177734375" lon="1.4834479987621307373046875">
        <ele>977.20001220703125</ele>
        <time>2020-08-11T11:35:16.000Z</time>
      </trkpt>
      <trkpt lat="42.23362904973328113555908203125" lon="1.48321154527366161346435546875">
        <ele>978</ele>
        <time>2020-08-11T11:35:24.000Z</time>
      </trkpt>
      <trkpt lat="42.23362335003912448883056640625" lon="1.48315153084695339202880859375">
        <ele>978.20001220703125</ele>
        <time>2020-08-11T11:35:26.000Z</time>
      </trkpt>
      <trkpt lat="42.23359552212059497833251953125" lon="1.48299629800021648406982421875">
        <ele>978.5999755859375</ele>
        <time>2020-08-11T11:35:31.000Z</time>
      </trkpt>
      <trkpt lat="42.23355419933795928955078125" lon="1.4826549030840396881103515625">
        <ele>979</ele>
        <time>2020-08-11T11:35:41.000Z</time>
      </trkpt>
      <trkpt lat="42.2335667721927165985107421875" lon="1.4823705889284610748291015625">
        <ele>979.20001220703125</ele>
        <time>2020-08-11T11:35:49.000Z</time>
      </trkpt>
      <trkpt lat="42.23358026705682277679443359375" lon="1.48229372687637805938720703125">
        <ele>979.4000244140625</ele>
        <time>2020-08-11T11:35:51.000Z</time>
      </trkpt>
      <trkpt lat="42.233636677265167236328125" lon="1.4820229075849056243896484375">
        <ele>979.4000244140625</ele>
        <time>2020-08-11T11:35:58.000Z</time>
      </trkpt>
      <trkpt lat="42.23375075496733188629150390625" lon="1.481668688356876373291015625">
        <ele>979</ele>
        <time>2020-08-11T11:36:07.000Z</time>
      </trkpt>
      <trkpt lat="42.2338859550654888153076171875" lon="1.481326036155223846435546875">
        <ele>978.5999755859375</ele>
        <time>2020-08-11T11:36:17.000Z</time>
      </trkpt>
      <trkpt lat="42.233875729143619537353515625" lon="1.4811049215495586395263671875">
        <ele>978.4000244140625</ele>
        <time>2020-08-11T11:36:22.000Z</time>
      </trkpt>
      <trkpt lat="42.2338534332811832427978515625" lon="1.48106175474822521209716796875">
        <ele>978.4000244140625</ele>
        <time>2020-08-11T11:36:23.000Z</time>
      </trkpt>
      <trkpt lat="42.2337873838841915130615234375" lon="1.4809966273605823516845703125">
        <ele>978.20001220703125</ele>
        <time>2020-08-11T11:36:25.000Z</time>
      </trkpt>
      <trkpt lat="42.23374865949153900146484375" lon="1.4809744991362094879150390625">
        <ele>978.20001220703125</ele>
        <time>2020-08-11T11:36:26.000Z</time>
      </trkpt>
      <trkpt lat="42.23352662287652492523193359375" lon="1.480898559093475341796875">
        <ele>977.4000244140625</ele>
        <time>2020-08-11T11:36:31.000Z</time>
      </trkpt>
      <trkpt lat="42.2334346733987331390380859375" lon="1.48087752051651477813720703125">
        <ele>977.20001220703125</ele>
        <time>2020-08-11T11:36:33.000Z</time>
      </trkpt>
      <trkpt lat="42.23329268395900726318359375" lon="1.48081985302269458770751953125">
        <ele>977.20001220703125</ele>
        <time>2020-08-11T11:36:36.000Z</time>
      </trkpt>
      <trkpt lat="42.23320542834699153900146484375" lon="1.48075263015925884246826171875">
        <ele>977</ele>
        <time>2020-08-11T11:36:38.000Z</time>
      </trkpt>
      <trkpt lat="42.2330990619957447052001953125" lon="1.48060695268213748931884765625">
        <ele>976.4000244140625</ele>
        <time>2020-08-11T11:36:41.000Z</time>
      </trkpt>
      <trkpt lat="42.23303996957838535308837890625" lon="1.4805024303495883941650390625">
        <ele>976.4000244140625</ele>
        <time>2020-08-11T11:36:43.000Z</time>
      </trkpt>
      <trkpt lat="42.23291893489658832550048828125" lon="1.48022121749818325042724609375">
        <ele>976.4000244140625</ele>
        <time>2020-08-11T11:36:49.000Z</time>
      </trkpt>
      <trkpt lat="42.232885994017124176025390625" lon="1.47995484061539173126220703125">
        <ele>976.5999755859375</ele>
        <time>2020-08-11T11:36:55.000Z</time>
      </trkpt>
      <trkpt lat="42.2328928671777248382568359375" lon="1.47972752340137958526611328125">
        <ele>976.20001220703125</ele>
        <time>2020-08-11T11:37:01.000Z</time>
      </trkpt>
      <trkpt lat="42.232936285436153411865234375" lon="1.47952593863010406494140625">
        <ele>977.4000244140625</ele>
        <time>2020-08-11T11:37:09.000Z</time>
      </trkpt>
      <trkpt lat="42.23293301649391651153564453125" lon="1.47948763333261013031005859375">
        <ele>977.5999755859375</ele>
        <time>2020-08-11T11:37:12.000Z</time>
      </trkpt>
      <trkpt lat="42.23293318413197994232177734375" lon="1.4794888906180858612060546875">
        <ele>977.5999755859375</ele>
        <time>2020-08-11T11:37:14.000Z</time>
      </trkpt>
      <trkpt lat="42.23293326795101165771484375" lon="1.479461900889873504638671875">
        <ele>977.79998779296875</ele>
        <time>2020-08-11T11:37:34.000Z</time>
      </trkpt>
      <trkpt lat="42.2329605929553508758544921875" lon="1.4793450571596622467041015625">
        <ele>978.20001220703125</ele>
        <time>2020-08-11T11:37:39.000Z</time>
      </trkpt>
      <trkpt lat="42.2329800389707088470458984375" lon="1.47923936136066913604736328125">
        <ele>978.5999755859375</ele>
        <time>2020-08-11T11:37:43.000Z</time>
      </trkpt>
      <trkpt lat="42.2330031730234622955322265625" lon="1.47910977713763713836669921875">
        <ele>979</ele>
        <time>2020-08-11T11:37:48.000Z</time>
      </trkpt>
      <trkpt lat="42.232973165810108184814453125" lon="1.47896242327988147735595703125">
        <ele>979.5999755859375</ele>
        <time>2020-08-11T11:37:54.000Z</time>
      </trkpt>
      <trkpt lat="42.232917845249176025390625" lon="1.478815488517284393310546875">
        <ele>978.79998779296875</ele>
        <time>2020-08-11T11:37:59.000Z</time>
      </trkpt>
      <trkpt lat="42.23279781639575958251953125" lon="1.4785953797399997711181640625">
        <ele>978.20001220703125</ele>
        <time>2020-08-11T11:38:04.000Z</time>
      </trkpt>
      <trkpt lat="42.2326243110001087188720703125" lon="1.47828784771263599395751953125">
        <ele>977.20001220703125</ele>
        <time>2020-08-11T11:38:09.000Z</time>
      </trkpt>
      <trkpt lat="42.232590615749359130859375" lon="1.47821710444986820220947265625">
        <ele>976.79998779296875</ele>
        <time>2020-08-11T11:38:10.000Z</time>
      </trkpt>
      <trkpt lat="42.23253755830228328704833984375" lon="1.47807410918176174163818359375">
        <ele>976.4000244140625</ele>
        <time>2020-08-11T11:38:12.000Z</time>
      </trkpt>
      <trkpt lat="42.23252029158174991607666015625" lon="1.477925665676593780517578125">
        <ele>976.20001220703125</ele>
        <time>2020-08-11T11:38:14.000Z</time>
      </trkpt>
      <trkpt lat="42.23252397961914539337158203125" lon="1.4778502285480499267578125">
        <ele>976.20001220703125</ele>
        <time>2020-08-11T11:38:15.000Z</time>
      </trkpt>
      <trkpt lat="42.23258080892264842987060546875" lon="1.47763087414205074310302734375">
        <ele>975.5999755859375</ele>
        <time>2020-08-11T11:38:18.000Z</time>
      </trkpt>
      <trkpt lat="42.2326102294027805328369140625" lon="1.47755946032702922821044921875">
        <ele>975.4000244140625</ele>
        <time>2020-08-11T11:38:19.000Z</time>
      </trkpt>
      <trkpt lat="42.23267317749559879302978515625" lon="1.4774111844599246978759765625">
        <ele>975</ele>
        <time>2020-08-11T11:38:21.000Z</time>
      </trkpt>
      <trkpt lat="42.232826650142669677734375" lon="1.477108933031558990478515625">
        <ele>974.20001220703125</ele>
        <time>2020-08-11T11:38:25.000Z</time>
      </trkpt>
      <trkpt lat="42.23287333734333515167236328125" lon="1.4770375192165374755859375">
        <ele>973.79998779296875</ele>
        <time>2020-08-11T11:38:26.000Z</time>
      </trkpt>
      <trkpt lat="42.2330450825393199920654296875" lon="1.47685990668833255767822265625">
        <ele>973.20001220703125</ele>
        <time>2020-08-11T11:38:29.000Z</time>
      </trkpt>
      <trkpt lat="42.23310534842312335968017578125" lon="1.47680626250803470611572265625">
        <ele>973</ele>
        <time>2020-08-11T11:38:30.000Z</time>
      </trkpt>
      <trkpt lat="42.2333961166441440582275390625" lon="1.4765525422990322113037109375">
        <ele>972</ele>
        <time>2020-08-11T11:38:35.000Z</time>
      </trkpt>
      <trkpt lat="42.23350784741342067718505859375" lon="1.4764606766402721405029296875">
        <ele>971.79998779296875</ele>
        <time>2020-08-11T11:38:37.000Z</time>
      </trkpt>
      <trkpt lat="42.23386290483176708221435546875" lon="1.47615046240389347076416015625">
        <ele>971</ele>
        <time>2020-08-11T11:38:44.000Z</time>
      </trkpt>
      <trkpt lat="42.2339620627462863922119140625" lon="1.47606463171541690826416015625">
        <ele>970.79998779296875</ele>
        <time>2020-08-11T11:38:46.000Z</time>
      </trkpt>
      <trkpt lat="42.23401017487049102783203125" lon="1.47601752541959285736083984375">
        <ele>970.79998779296875</ele>
        <time>2020-08-11T11:38:47.000Z</time>
      </trkpt>
      <trkpt lat="42.2341025434434413909912109375" lon="1.4758256636559963226318359375">
        <ele>971</ele>
        <time>2020-08-11T11:38:50.000Z</time>
      </trkpt>
      <trkpt lat="42.23406826145946979522705078125" lon="1.47559876553714275360107421875">
        <ele>970.79998779296875</ele>
        <time>2020-08-11T11:38:53.000Z</time>
      </trkpt>
      <trkpt lat="42.23399701528251171112060546875" lon="1.4754791557788848876953125">
        <ele>970.5999755859375</ele>
        <time>2020-08-11T11:38:55.000Z</time>
      </trkpt>
      <trkpt lat="42.23387564532458782196044921875" lon="1.47530757822096347808837890625">
        <ele>970.5999755859375</ele>
        <time>2020-08-11T11:38:58.000Z</time>
      </trkpt>
      <trkpt lat="42.23377539776265621185302734375" lon="1.4750015549361705780029296875">
        <ele>970.20001220703125</ele>
        <time>2020-08-11T11:39:02.000Z</time>
      </trkpt>
      <trkpt lat="42.233761064708232879638671875" lon="1.47490809671580791473388671875">
        <ele>969.5999755859375</ele>
        <time>2020-08-11T11:39:03.000Z</time>
      </trkpt>
      <trkpt lat="42.233708761632442474365234375" lon="1.47448950447142124176025390625">
        <ele>968.20001220703125</ele>
        <time>2020-08-11T11:39:07.000Z</time>
      </trkpt>
      <trkpt lat="42.23368152044713497161865234375" lon="1.4742589183151721954345703125">
        <ele>967.20001220703125</ele>
        <time>2020-08-11T11:39:09.000Z</time>
      </trkpt>
      <trkpt lat="42.23364941775798797607421875" lon="1.4740134961903095245361328125">
        <ele>966</ele>
        <time>2020-08-11T11:39:11.000Z</time>
      </trkpt>
      <trkpt lat="42.233620919287204742431640625" lon="1.4737679064273834228515625">
        <ele>964.5999755859375</ele>
        <time>2020-08-11T11:39:13.000Z</time>
      </trkpt>
      <trkpt lat="42.23361748270690441131591796875" lon="1.473653577268123626708984375">
        <ele>964.20001220703125</ele>
        <time>2020-08-11T11:39:14.000Z</time>
      </trkpt>
      <trkpt lat="42.23363600671291351318359375" lon="1.473429612815380096435546875">
        <ele>963.20001220703125</ele>
        <time>2020-08-11T11:39:16.000Z</time>
      </trkpt>
      <trkpt lat="42.23365612328052520751953125" lon="1.473315618932247161865234375">
        <ele>962.5999755859375</ele>
        <time>2020-08-11T11:39:17.000Z</time>
      </trkpt>
      <trkpt lat="42.2336811013519763946533203125" lon="1.473200954496860504150390625">
        <ele>962.20001220703125</ele>
        <time>2020-08-11T11:39:18.000Z</time>
      </trkpt>
      <trkpt lat="42.2337377630174160003662109375" lon="1.4729654230177402496337890625">
        <ele>960.79998779296875</ele>
        <time>2020-08-11T11:39:20.000Z</time>
      </trkpt>
      <trkpt lat="42.2337937541306018829345703125" lon="1.4727163128554821014404296875">
        <ele>959.20001220703125</ele>
        <time>2020-08-11T11:39:22.000Z</time>
      </trkpt>
      <trkpt lat="42.233824431896209716796875" lon="1.47258932702243328094482421875">
        <ele>958.4000244140625</ele>
        <time>2020-08-11T11:39:23.000Z</time>
      </trkpt>
      <trkpt lat="42.2338601388037204742431640625" lon="1.47246426902711391448974609375">
        <ele>957.79998779296875</ele>
        <time>2020-08-11T11:39:24.000Z</time>
      </trkpt>
      <trkpt lat="42.23392861895263195037841796875" lon="1.47220577113330364227294921875">
        <ele>956.4000244140625</ele>
        <time>2020-08-11T11:39:26.000Z</time>
      </trkpt>
      <trkpt lat="42.23399139940738677978515625" lon="1.47193922661244869232177734375">
        <ele>954.79998779296875</ele>
        <time>2020-08-11T11:39:28.000Z</time>
      </trkpt>
      <trkpt lat="42.23405845463275909423828125" lon="1.47166597656905651092529296875">
        <ele>953.20001220703125</ele>
        <time>2020-08-11T11:39:30.000Z</time>
      </trkpt>
      <trkpt lat="42.23412676714360713958740234375" lon="1.4713849313557147979736328125">
        <ele>951.79998779296875</ele>
        <time>2020-08-11T11:39:32.000Z</time>
      </trkpt>
      <trkpt lat="42.234188877046108245849609375" lon="1.471089385449886322021484375">
        <ele>950.4000244140625</ele>
        <time>2020-08-11T11:39:34.000Z</time>
      </trkpt>
      <trkpt lat="42.2342162020504474639892578125" lon="1.47093675099313259124755859375">
        <ele>949.4000244140625</ele>
        <time>2020-08-11T11:39:35.000Z</time>
      </trkpt>
      <trkpt lat="42.23424143157899379730224609375" lon="1.470784954726696014404296875">
        <ele>948.5999755859375</ele>
        <time>2020-08-11T11:39:36.000Z</time>
      </trkpt>
      <trkpt lat="42.23427479155361652374267578125" lon="1.470485888421535491943359375">
        <ele>947.4000244140625</ele>
        <time>2020-08-11T11:39:38.000Z</time>
      </trkpt>
      <trkpt lat="42.23427713848650455474853515625" lon="1.47034029476344585418701171875">
        <ele>946.4000244140625</ele>
        <time>2020-08-11T11:39:39.000Z</time>
      </trkpt>
      <trkpt lat="42.23426691256463527679443359375" lon="1.47019864059984683990478515625">
        <ele>945.5999755859375</ele>
        <time>2020-08-11T11:39:40.000Z</time>
      </trkpt>
      <trkpt lat="42.23421913571655750274658203125" lon="1.46991415880620479583740234375">
        <ele>944.5999755859375</ele>
        <time>2020-08-11T11:39:42.000Z</time>
      </trkpt>
      <trkpt lat="42.23417244851589202880859375" lon="1.46962464787065982818603515625">
        <ele>943.4000244140625</ele>
        <time>2020-08-11T11:39:44.000Z</time>
      </trkpt>
      <trkpt lat="42.23415233194828033447265625" lon="1.4694876037538051605224609375">
        <ele>942.4000244140625</ele>
        <time>2020-08-11T11:39:45.000Z</time>
      </trkpt>
      <trkpt lat="42.2341377474367618560791015625" lon="1.46935500204563140869140625">
        <ele>941.79998779296875</ele>
        <time>2020-08-11T11:39:46.000Z</time>
      </trkpt>
      <trkpt lat="42.23413229919970035552978515625" lon="1.469224579632282257080078125">
        <ele>941</ele>
        <time>2020-08-11T11:39:47.000Z</time>
      </trkpt>
      <trkpt lat="42.23414017818868160247802734375" lon="1.4690963365137577056884765625">
        <ele>940.4000244140625</ele>
        <time>2020-08-11T11:39:48.000Z</time>
      </trkpt>
      <trkpt lat="42.2341612167656421661376953125" lon="1.4689719490706920623779296875">
        <ele>940</ele>
        <time>2020-08-11T11:39:49.000Z</time>
      </trkpt>
      <trkpt lat="42.234190218150615692138671875" lon="1.4688525907695293426513671875">
        <ele>939.4000244140625</ele>
        <time>2020-08-11T11:39:50.000Z</time>
      </trkpt>
      <trkpt lat="42.2342222370207309722900390625" lon="1.46873784251511096954345703125">
        <ele>939</ele>
        <time>2020-08-11T11:39:51.000Z</time>
      </trkpt>
      <trkpt lat="42.23432642407715320587158203125" lon="1.46840876899659633636474609375">
        <ele>938</ele>
        <time>2020-08-11T11:39:54.000Z</time>
      </trkpt>
      <trkpt lat="42.23436146043241024017333984375" lon="1.4683044143021106719970703125">
        <ele>937.79998779296875</ele>
        <time>2020-08-11T11:39:55.000Z</time>
      </trkpt>
      <trkpt lat="42.23445818759500980377197265625" lon="1.46812227554619312286376953125">
        <ele>937.5999755859375</ele>
        <time>2020-08-11T11:39:57.000Z</time>
      </trkpt>
      <trkpt lat="42.234557680785655975341796875" lon="1.46794416010379791259765625">
        <ele>937.4000244140625</ele>
        <time>2020-08-11T11:39:59.000Z</time>
      </trkpt>
      <trkpt lat="42.23460369743406772613525390625" lon="1.46774710156023502349853515625">
        <ele>937.20001220703125</ele>
        <time>2020-08-11T11:40:01.000Z</time>
      </trkpt>
      <trkpt lat="42.23462716676294803619384765625" lon="1.467197500169277191162109375">
        <ele>937.20001220703125</ele>
        <time>2020-08-11T11:40:07.000Z</time>
      </trkpt>
      <trkpt lat="42.23465616814792156219482421875" lon="1.4667815901339054107666015625">
        <ele>937.5999755859375</ele>
        <time>2020-08-11T11:40:13.000Z</time>
      </trkpt>
      <trkpt lat="42.23473076708614826202392578125" lon="1.4665599726140499114990234375">
        <ele>938</ele>
        <time>2020-08-11T11:40:18.000Z</time>
      </trkpt>
      <trkpt lat="42.23480436019599437713623046875" lon="1.466412283480167388916015625">
        <ele>938.20001220703125</ele>
        <time>2020-08-11T11:40:22.000Z</time>
      </trkpt>
      <trkpt lat="42.234857417643070220947265625" lon="1.46630977280437946319580078125">
        <ele>938.79998779296875</ele>
        <time>2020-08-11T11:40:25.000Z</time>
      </trkpt>
      <trkpt lat="42.23498943261802196502685546875" lon="1.46603643894195556640625">
        <ele>939</ele>
        <time>2020-08-11T11:40:33.000Z</time>
      </trkpt>
      <trkpt lat="42.23500468768179416656494140625" lon="1.4660024084150791168212890625">
        <ele>939.4000244140625</ele>
        <time>2020-08-11T11:40:34.000Z</time>
      </trkpt>
      <trkpt lat="42.2351003251969814300537109375" lon="1.4657982252538204193115234375">
        <ele>940</ele>
        <time>2020-08-11T11:40:40.000Z</time>
      </trkpt>
      <trkpt lat="42.23518841899931430816650390625" lon="1.46557736210525035858154296875">
        <ele>940.4000244140625</ele>
        <time>2020-08-11T11:40:46.000Z</time>
      </trkpt>
      <trkpt lat="42.23520266823470592498779296875" lon="1.46554115228354930877685546875">
        <ele>940.4000244140625</ele>
        <time>2020-08-11T11:40:47.000Z</time>
      </trkpt>
      <trkpt lat="42.2352929413318634033203125" lon="1.46525382064282894134521484375">
        <ele>941.4000244140625</ele>
        <time>2020-08-11T11:40:55.000Z</time>
      </trkpt>
      <trkpt lat="42.235305346548557281494140625" lon="1.4652215503156185150146484375">
        <ele>941.5999755859375</ele>
        <time>2020-08-11T11:40:56.000Z</time>
      </trkpt>
      <trkpt lat="42.2353668697178363800048828125" lon="1.4650512300431728363037109375">
        <ele>942.20001220703125</ele>
        <time>2020-08-11T11:41:01.000Z</time>
      </trkpt>
      <trkpt lat="42.23542897962033748626708984375" lon="1.46485886536538600921630859375">
        <ele>942.5999755859375</ele>
        <time>2020-08-11T11:41:06.000Z</time>
      </trkpt>
      <trkpt lat="42.23546938039362430572509765625" lon="1.4647575281560420989990234375">
        <ele>943.20001220703125</ele>
        <time>2020-08-11T11:41:09.000Z</time>
      </trkpt>
      <trkpt lat="42.2355452366173267364501953125" lon="1.46452425979077816009521484375">
        <ele>943.79998779296875</ele>
        <time>2020-08-11T11:41:16.000Z</time>
      </trkpt>
      <trkpt lat="42.23557650111615657806396484375" lon="1.46445862948894500732421875">
        <ele>944</ele>
        <time>2020-08-11T11:41:18.000Z</time>
      </trkpt>
      <trkpt lat="42.23566484637558460235595703125" lon="1.46428428590297698974609375">
        <ele>944</ele>
        <time>2020-08-11T11:41:23.000Z</time>
      </trkpt>
      <trkpt lat="42.23580717109143733978271484375" lon="1.464016400277614593505859375">
        <ele>944.20001220703125</ele>
        <time>2020-08-11T11:41:30.000Z</time>
      </trkpt>
      <trkpt lat="42.2359690256416797637939453125" lon="1.46372077055275440216064453125">
        <ele>943.5999755859375</ele>
        <time>2020-08-11T11:41:37.000Z</time>
      </trkpt>
      <trkpt lat="42.23609022796154022216796875" lon="1.463512144982814788818359375">
        <ele>943</ele>
        <time>2020-08-11T11:41:41.000Z</time>
      </trkpt>
      <trkpt lat="42.23612518049776554107666015625" lon="1.46344668231904506683349609375">
        <ele>942.5999755859375</ele>
        <time>2020-08-11T11:41:42.000Z</time>
      </trkpt>
      <trkpt lat="42.23620212636888027191162109375" lon="1.46330469287931919097900390625">
        <ele>942</ele>
        <time>2020-08-11T11:41:44.000Z</time>
      </trkpt>
      <trkpt lat="42.23629944026470184326171875" lon="1.46315935067832469940185546875">
        <ele>941.20001220703125</ele>
        <time>2020-08-11T11:41:46.000Z</time>
      </trkpt>
      <trkpt lat="42.2363559342920780181884765625" lon="1.46309481002390384674072265625">
        <ele>940.4000244140625</ele>
        <time>2020-08-11T11:41:47.000Z</time>
      </trkpt>
      <trkpt lat="42.236567325890064239501953125" lon="1.46297645755112171173095703125">
        <ele>938.79998779296875</ele>
        <time>2020-08-11T11:41:50.000Z</time>
      </trkpt>
      <trkpt lat="42.23669783212244510650634765625" lon="1.46290621720254421234130859375">
        <ele>937.79998779296875</ele>
        <time>2020-08-11T11:41:52.000Z</time>
      </trkpt>
      <trkpt lat="42.2367466986179351806640625" lon="1.46284435875713825225830078125">
        <ele>937.20001220703125</ele>
        <time>2020-08-11T11:41:53.000Z</time>
      </trkpt>
      <trkpt lat="42.23680227063596248626708984375" lon="1.46267018280923366546630859375">
        <ele>936.4000244140625</ele>
        <time>2020-08-11T11:41:55.000Z</time>
      </trkpt>
      <trkpt lat="42.23681719042360782623291015625" lon="1.46257035434246063232421875">
        <ele>936</ele>
        <time>2020-08-11T11:41:56.000Z</time>
      </trkpt>
      <trkpt lat="42.23687318153679370880126953125" lon="1.462178416550159454345703125">
        <ele>935.20001220703125</ele>
        <time>2020-08-11T11:42:00.000Z</time>
      </trkpt>
      <trkpt lat="42.23688608966767787933349609375" lon="1.46208764053881168365478515625">
        <ele>935</ele>
        <time>2020-08-11T11:42:01.000Z</time>
      </trkpt>
      <trkpt lat="42.236905284225940704345703125" lon="1.46193508990108966827392578125">
        <ele>934.20001220703125</ele>
        <time>2020-08-11T11:42:03.000Z</time>
      </trkpt>
      <trkpt lat="42.23690503276884555816650390625" lon="1.46179008297622203826904296875">
        <ele>934</ele>
        <time>2020-08-11T11:42:05.000Z</time>
      </trkpt>
      <trkpt lat="42.23686982877552509307861328125" lon="1.46151381544768810272216796875">
        <ele>933.4000244140625</ele>
        <time>2020-08-11T11:42:09.000Z</time>
      </trkpt>
      <trkpt lat="42.236844934523105621337890625" lon="1.4614580757915973663330078125">
        <ele>933.4000244140625</ele>
        <time>2020-08-11T11:42:10.000Z</time>
      </trkpt>
      <trkpt lat="42.23668039776384830474853515625" lon="1.461279876530170440673828125">
        <ele>933.79998779296875</ele>
        <time>2020-08-11T11:42:15.000Z</time>
      </trkpt>
      <trkpt lat="42.23660831339657306671142578125" lon="1.46105356514453887939453125">
        <ele>934</ele>
        <time>2020-08-11T11:42:20.000Z</time>
      </trkpt>
      <trkpt lat="42.23662692122161388397216796875" lon="1.460937224328517913818359375">
        <ele>934</ele>
        <time>2020-08-11T11:42:22.000Z</time>
      </trkpt>
      <trkpt lat="42.23668240942060947418212890625" lon="1.46073664538562297821044921875">
        <ele>933.5999755859375</ele>
        <time>2020-08-11T11:42:25.000Z</time>
      </trkpt>
      <trkpt lat="42.23673739470541477203369140625" lon="1.460593231022357940673828125">
        <ele>932.79998779296875</ele>
        <time>2020-08-11T11:42:27.000Z</time>
      </trkpt>
      <trkpt lat="42.2368554957211017608642578125" lon="1.46037806756794452667236328125">
        <ele>931.5999755859375</ele>
        <time>2020-08-11T11:42:30.000Z</time>
      </trkpt>
      <trkpt lat="42.23694325424730777740478515625" lon="1.46022266708314418792724609375">
        <ele>930.4000244140625</ele>
        <time>2020-08-11T11:42:32.000Z</time>
      </trkpt>
      <trkpt lat="42.23698248155415058135986328125" lon="1.46013583056628704071044921875">
        <ele>930</ele>
        <time>2020-08-11T11:42:33.000Z</time>
      </trkpt>
      <trkpt lat="42.2370486147701740264892578125" lon="1.4599453099071979522705078125">
        <ele>929</ele>
        <time>2020-08-11T11:42:35.000Z</time>
      </trkpt>
      <trkpt lat="42.23708708770573139190673828125" lon="1.4597344212234020233154296875">
        <ele>927.79998779296875</ele>
        <time>2020-08-11T11:42:37.000Z</time>
      </trkpt>
      <trkpt lat="42.23709580488502979278564453125" lon="1.45951154641807079315185546875">
        <ele>926.79998779296875</ele>
        <time>2020-08-11T11:42:39.000Z</time>
      </trkpt>
      <trkpt lat="42.2371022589504718780517578125" lon="1.45928330719470977783203125">
        <ele>925.5999755859375</ele>
        <time>2020-08-11T11:42:41.000Z</time>
      </trkpt>
      <trkpt lat="42.2371143288910388946533203125" lon="1.45904936827719211578369140625">
        <ele>924.4000244140625</ele>
        <time>2020-08-11T11:42:43.000Z</time>
      </trkpt>
      <trkpt lat="42.2371103055775165557861328125" lon="1.4588060416281223297119140625">
        <ele>923.4000244140625</ele>
        <time>2020-08-11T11:42:45.000Z</time>
      </trkpt>
      <trkpt lat="42.23710636608302593231201171875" lon="1.458432376384735107421875">
        <ele>921.79998779296875</ele>
        <time>2020-08-11T11:42:48.000Z</time>
      </trkpt>
      <trkpt lat="42.237131595611572265625" lon="1.45818033255636692047119140625">
        <ele>920.79998779296875</ele>
        <time>2020-08-11T11:42:50.000Z</time>
      </trkpt>
      <trkpt lat="42.237173505127429962158203125" lon="1.45792636089026927947998046875">
        <ele>919.4000244140625</ele>
        <time>2020-08-11T11:42:52.000Z</time>
      </trkpt>
      <trkpt lat="42.23721348680555820465087890625" lon="1.45766727626323699951171875">
        <ele>918.20001220703125</ele>
        <time>2020-08-11T11:42:54.000Z</time>
      </trkpt>
      <trkpt lat="42.23726176656782627105712890625" lon="1.45740978419780731201171875">
        <ele>917.20001220703125</ele>
        <time>2020-08-11T11:42:56.000Z</time>
      </trkpt>
      <trkpt lat="42.237288840115070343017578125" lon="1.4572808705270290374755859375">
        <ele>916.79998779296875</ele>
        <time>2020-08-11T11:42:57.000Z</time>
      </trkpt>
      <trkpt lat="42.23734323866665363311767578125" lon="1.457021869719028472900390625">
        <ele>915.5999755859375</ele>
        <time>2020-08-11T11:42:59.000Z</time>
      </trkpt>
      <trkpt lat="42.23739646375179290771484375" lon="1.45676831714808940887451171875">
        <ele>914.20001220703125</ele>
        <time>2020-08-11T11:43:01.000Z</time>
      </trkpt>
      <trkpt lat="42.23742823116481304168701171875" lon="1.45665742456912994384765625">
        <ele>913.5999755859375</ele>
        <time>2020-08-11T11:43:02.000Z</time>
      </trkpt>
      <trkpt lat="42.2374690510332584381103515625" lon="1.45656220614910125732421875">
        <ele>912.79998779296875</ele>
        <time>2020-08-11T11:43:03.000Z</time>
      </trkpt>
      <trkpt lat="42.237591259181499481201171875" lon="1.45641828887164592742919921875">
        <ele>911.4000244140625</ele>
        <time>2020-08-11T11:43:05.000Z</time>
      </trkpt>
      <trkpt lat="42.2376698814332485198974609375" lon="1.45637252368032932281494140625">
        <ele>910.5999755859375</ele>
        <time>2020-08-11T11:43:06.000Z</time>
      </trkpt>
      <trkpt lat="42.237752862274646759033203125" lon="1.45634788088500499725341796875">
        <ele>909.20001220703125</ele>
        <time>2020-08-11T11:43:07.000Z</time>
      </trkpt>
      <trkpt lat="42.237831316888332366943359375" lon="1.4563293568789958953857421875">
        <ele>908.5999755859375</ele>
        <time>2020-08-11T11:43:08.000Z</time>
      </trkpt>
      <trkpt lat="42.23790113814175128936767578125" lon="1.45630345679819583892822265625">
        <ele>907.5999755859375</ele>
        <time>2020-08-11T11:43:09.000Z</time>
      </trkpt>
      <trkpt lat="42.2380011342465877532958984375" lon="1.4562126807868480682373046875">
        <ele>906.4000244140625</ele>
        <time>2020-08-11T11:43:11.000Z</time>
      </trkpt>
      <trkpt lat="42.2380266152322292327880859375" lon="1.4561469666659832000732421875">
        <ele>906</ele>
        <time>2020-08-11T11:43:12.000Z</time>
      </trkpt>
      <trkpt lat="42.23801043815910816192626953125" lon="1.4558569528162479400634765625">
        <ele>905.20001220703125</ele>
        <time>2020-08-11T11:43:16.000Z</time>
      </trkpt>
      <trkpt lat="42.2379334084689617156982421875" lon="1.45572426728904247283935546875">
        <ele>905.4000244140625</ele>
        <time>2020-08-11T11:43:18.000Z</time>
      </trkpt>
      <trkpt lat="42.2377657704055309295654296875" lon="1.45547213964164257049560546875">
        <ele>905.20001220703125</ele>
        <time>2020-08-11T11:43:22.000Z</time>
      </trkpt>
      <trkpt lat="42.23763945512473583221435546875" lon="1.455294191837310791015625">
        <ele>904.20001220703125</ele>
        <time>2020-08-11T11:43:25.000Z</time>
      </trkpt>
      <trkpt lat="42.23760835826396942138671875" lon="1.4551340974867343902587890625">
        <ele>903.79998779296875</ele>
        <time>2020-08-11T11:43:27.000Z</time>
      </trkpt>
      <trkpt lat="42.2376407124102115631103515625" lon="1.45496419630944728851318359375">
        <ele>903.20001220703125</ele>
        <time>2020-08-11T11:43:29.000Z</time>
      </trkpt>
      <trkpt lat="42.23766258917748928070068359375" lon="1.45487953908741474151611328125">
        <ele>902.5999755859375</ele>
        <time>2020-08-11T11:43:30.000Z</time>
      </trkpt>
      <trkpt lat="42.2376832924783229827880859375" lon="1.45479437895119190216064453125">
        <ele>902</ele>
        <time>2020-08-11T11:43:31.000Z</time>
      </trkpt>
      <trkpt lat="42.23772461526095867156982421875" lon="1.45452632568776607513427734375">
        <ele>900.79998779296875</ele>
        <time>2020-08-11T11:43:34.000Z</time>
      </trkpt>
      <trkpt lat="42.23772947676479816436767578125" lon="1.454431526362895965576171875">
        <ele>900.79998779296875</ele>
        <time>2020-08-11T11:43:35.000Z</time>
      </trkpt>
      <trkpt lat="42.2377342544496059417724609375" lon="1.45404051057994365692138671875">
        <ele>899.79998779296875</ele>
        <time>2020-08-11T11:43:39.000Z</time>
      </trkpt>
      <trkpt lat="42.23771539516746997833251953125" lon="1.45354229025542736053466796875">
        <ele>898.5999755859375</ele>
        <time>2020-08-11T11:43:44.000Z</time>
      </trkpt>
      <trkpt lat="42.23763828165829181671142578125" lon="1.453081034123897552490234375">
        <ele>897.79998779296875</ele>
        <time>2020-08-11T11:43:49.000Z</time>
      </trkpt>
      <trkpt lat="42.23761531524360179901123046875" lon="1.45300023257732391357421875">
        <ele>897.5999755859375</ele>
        <time>2020-08-11T11:43:50.000Z</time>
      </trkpt>
      <trkpt lat="42.23748908378183841705322265625" lon="1.45249664783477783203125">
        <ele>897.20001220703125</ele>
        <time>2020-08-11T11:43:57.000Z</time>
      </trkpt>
      <trkpt lat="42.2373711504042148590087890625" lon="1.45206791348755359649658203125">
        <ele>896.79998779296875</ele>
        <time>2020-08-11T11:44:04.000Z</time>
      </trkpt>
      <trkpt lat="42.23734675906598567962646484375" lon="1.45194503478705883026123046875">
        <ele>896.79998779296875</ele>
        <time>2020-08-11T11:44:06.000Z</time>
      </trkpt>
      <trkpt lat="42.237255312502384185791015625" lon="1.45146793685853481292724609375">
        <ele>896.79998779296875</ele>
        <time>2020-08-11T11:44:14.000Z</time>
      </trkpt>
      <trkpt lat="42.23721139132976531982421875" lon="1.45116870291531085968017578125">
        <ele>896.5999755859375</ele>
        <time>2020-08-11T11:44:20.000Z</time>
      </trkpt>
      <trkpt lat="42.237241230905055999755859375" lon="1.45098748616874217987060546875">
        <ele>896.5999755859375</ele>
        <time>2020-08-11T11:44:24.000Z</time>
      </trkpt>
      <trkpt lat="42.2373064421117305755615234375" lon="1.45070292055606842041015625">
        <ele>896.4000244140625</ele>
        <time>2020-08-11T11:44:31.000Z</time>
      </trkpt>
      <trkpt lat="42.23738045431673526763916015625" lon="1.45038734190165996551513671875">
        <ele>895.79998779296875</ele>
        <time>2020-08-11T11:44:38.000Z</time>
      </trkpt>
      <trkpt lat="42.23740442655980587005615234375" lon="1.4500885270535945892333984375">
        <ele>895.4000244140625</ele>
        <time>2020-08-11T11:44:44.000Z</time>
      </trkpt>
      <trkpt lat="42.23737324588000774383544921875" lon="1.44979205913841724395751953125">
        <ele>896</ele>
        <time>2020-08-11T11:44:50.000Z</time>
      </trkpt>
      <trkpt lat="42.2373314201831817626953125" lon="1.44948964007198810577392578125">
        <ele>896</ele>
        <time>2020-08-11T11:44:56.000Z</time>
      </trkpt>
      <trkpt lat="42.23733477294445037841796875" lon="1.44937581382691860198974609375">
        <ele>896</ele>
        <time>2020-08-11T11:44:58.000Z</time>
      </trkpt>
      <trkpt lat="42.23738171160221099853515625" lon="1.4491665177047252655029296875">
        <ele>896</ele>
        <time>2020-08-11T11:45:02.000Z</time>
      </trkpt>
      <trkpt lat="42.23744348622858524322509765625" lon="1.44895856268703937530517578125">
        <ele>895.4000244140625</ele>
        <time>2020-08-11T11:45:06.000Z</time>
      </trkpt>
      <trkpt lat="42.237473912537097930908203125" lon="1.44879855215549468994140625">
        <ele>895.4000244140625</ele>
        <time>2020-08-11T11:45:09.000Z</time>
      </trkpt>
      <trkpt lat="42.23751984536647796630859375" lon="1.44851692020893096923828125">
        <ele>895.5999755859375</ele>
        <time>2020-08-11T11:45:15.000Z</time>
      </trkpt>
      <trkpt lat="42.23762822337448596954345703125" lon="1.4483742602169513702392578125">
        <ele>896.4000244140625</ele>
        <time>2020-08-11T11:45:20.000Z</time>
      </trkpt>
      <trkpt lat="42.2378549538552761077880859375" lon="1.44821441732347011566162109375">
        <ele>896.79998779296875</ele>
        <time>2020-08-11T11:45:28.000Z</time>
      </trkpt>
      <trkpt lat="42.23795981146395206451416015625" lon="1.44804694689810276031494140625">
        <ele>896.5999755859375</ele>
        <time>2020-08-11T11:45:33.000Z</time>
      </trkpt>
      <trkpt lat="42.238072045147418975830078125" lon="1.44772608764469623565673828125">
        <ele>896.4000244140625</ele>
        <time>2020-08-11T11:45:40.000Z</time>
      </trkpt>
      <trkpt lat="42.23815745674073696136474609375" lon="1.44732861779630184173583984375">
        <ele>895.79998779296875</ele>
        <time>2020-08-11T11:45:47.000Z</time>
      </trkpt>
      <trkpt lat="42.23817028105258941650390625" lon="1.447263993322849273681640625">
        <ele>895.4000244140625</ele>
        <time>2020-08-11T11:45:48.000Z</time>
      </trkpt>
      <trkpt lat="42.23818779923021793365478515625" lon="1.447199285030364990234375">
        <ele>895.20001220703125</ele>
        <time>2020-08-11T11:45:49.000Z</time>
      </trkpt>
      <trkpt lat="42.23824806511402130126953125" lon="1.44700239412486553192138671875">
        <ele>895</ele>
        <time>2020-08-11T11:45:52.000Z</time>
      </trkpt>
      <trkpt lat="42.23827279172837734222412109375" lon="1.4469379372894763946533203125">
        <ele>894.79998779296875</ele>
        <time>2020-08-11T11:45:53.000Z</time>
      </trkpt>
      <trkpt lat="42.2383518330752849578857421875" lon="1.4467585645616054534912109375">
        <ele>894.20001220703125</ele>
        <time>2020-08-11T11:45:56.000Z</time>
      </trkpt>
      <trkpt lat="42.2384644858539104461669921875" lon="1.44645958207547664642333984375">
        <ele>893.79998779296875</ele>
        <time>2020-08-11T11:46:01.000Z</time>
      </trkpt>
      <trkpt lat="42.23848200403153896331787109375" lon="1.446394957602024078369140625">
        <ele>893.79998779296875</ele>
        <time>2020-08-11T11:46:02.000Z</time>
      </trkpt>
      <trkpt lat="42.23853481002151966094970703125" lon="1.44606496207416057586669921875">
        <ele>893.5999755859375</ele>
        <time>2020-08-11T11:46:07.000Z</time>
      </trkpt>
      <trkpt lat="42.238631956279277801513671875" lon="1.445578224956989288330078125">
        <ele>893.4000244140625</ele>
        <time>2020-08-11T11:46:15.000Z</time>
      </trkpt>
      <trkpt lat="42.2386374883353710174560546875" lon="1.44551645033061504364013671875">
        <ele>893.4000244140625</ele>
        <time>2020-08-11T11:46:16.000Z</time>
      </trkpt>
      <trkpt lat="42.23865902982652187347412109375" lon="1.44524336792528629302978515625">
        <ele>893.20001220703125</ele>
        <time>2020-08-11T11:46:21.000Z</time>
      </trkpt>
      <trkpt lat="42.23867260850965976715087890625" lon="1.44519458524882793426513671875">
        <ele>893.20001220703125</ele>
        <time>2020-08-11T11:46:22.000Z</time>
      </trkpt>
      <trkpt lat="42.23873564042150974273681640625" lon="1.444941870868206024169921875">
        <ele>894</ele>
        <time>2020-08-11T11:46:28.000Z</time>
      </trkpt>
      <trkpt lat="42.23875902593135833740234375" lon="1.4448427967727184295654296875">
        <ele>894.5999755859375</ele>
        <time>2020-08-11T11:46:31.000Z</time>
      </trkpt>
      <trkpt lat="42.2387692518532276153564453125" lon="1.4447153918445110321044921875">
        <ele>895.5999755859375</ele>
        <time>2020-08-11T11:46:35.000Z</time>
      </trkpt>
      <trkpt lat="42.2387672401964664459228515625" lon="1.4446798525750637054443359375">
        <ele>895.5999755859375</ele>
        <time>2020-08-11T11:46:36.000Z</time>
      </trkpt>
      <trkpt lat="42.2387471236288547515869140625" lon="1.44450827501714229583740234375">
        <ele>896.4000244140625</ele>
        <time>2020-08-11T11:46:41.000Z</time>
      </trkpt>
      <trkpt lat="42.2387330420315265655517578125" lon="1.44439931027591228485107421875">
        <ele>897</ele>
        <time>2020-08-11T11:46:44.000Z</time>
      </trkpt>
      <trkpt lat="42.238727509975433349609375" lon="1.44432387314736843109130859375">
        <ele>897.4000244140625</ele>
        <time>2020-08-11T11:46:46.000Z</time>
      </trkpt>
      <trkpt lat="42.2387095727026462554931640625" lon="1.4439274929463863372802734375">
        <ele>897.79998779296875</ele>
        <time>2020-08-11T11:46:56.000Z</time>
      </trkpt>
      <trkpt lat="42.23870135843753814697265625" lon="1.44354284740984439849853515625">
        <ele>897.4000244140625</ele>
        <time>2020-08-11T11:47:05.000Z</time>
      </trkpt>
      <trkpt lat="42.2386644780635833740234375" lon="1.44321612082421779632568359375">
        <ele>897.79998779296875</ele>
        <time>2020-08-11T11:47:13.000Z</time>
      </trkpt>
      <trkpt lat="42.23865852691233158111572265625" lon="1.44314772449433803558349609375">
        <ele>898</ele>
        <time>2020-08-11T11:47:15.000Z</time>
      </trkpt>
      <trkpt lat="42.23865576088428497314453125" lon="1.4429649151861667633056640625">
        <ele>898.4000244140625</ele>
        <time>2020-08-11T11:47:21.000Z</time>
      </trkpt>
      <trkpt lat="42.23866288550198078155517578125" lon="1.44265855662524700164794921875">
        <ele>897.4000244140625</ele>
        <time>2020-08-11T11:47:28.000Z</time>
      </trkpt>
      <trkpt lat="42.2386720217764377593994140625" lon="1.4426038227975368499755859375">
        <ele>897.20001220703125</ele>
        <time>2020-08-11T11:47:29.000Z</time>
      </trkpt>
      <trkpt lat="42.2387203015387058258056640625" lon="1.44228857941925525665283203125">
        <ele>896</ele>
        <time>2020-08-11T11:47:34.000Z</time>
      </trkpt>
      <trkpt lat="42.23881267011165618896484375" lon="1.44200661219656467437744140625">
        <ele>894.79998779296875</ele>
        <time>2020-08-11T11:47:38.000Z</time>
      </trkpt>
      <trkpt lat="42.238873355090618133544921875" lon="1.44185389392077922821044921875">
        <ele>894</ele>
        <time>2020-08-11T11:47:40.000Z</time>
      </trkpt>
      <trkpt lat="42.238916270434856414794921875" lon="1.441783905029296875">
        <ele>893.79998779296875</ele>
        <time>2020-08-11T11:47:41.000Z</time>
      </trkpt>
      <trkpt lat="42.23904560320079326629638671875" lon="1.44157175906002521514892578125">
        <ele>892.79998779296875</ele>
        <time>2020-08-11T11:47:44.000Z</time>
      </trkpt>
      <trkpt lat="42.23907125182449817657470703125" lon="1.44149087369441986083984375">
        <ele>892.4000244140625</ele>
        <time>2020-08-11T11:47:45.000Z</time>
      </trkpt>
      <trkpt lat="42.239118777215480804443359375" lon="1.4410478062927722930908203125">
        <ele>891.79998779296875</ele>
        <time>2020-08-11T11:47:50.000Z</time>
      </trkpt>
      <trkpt lat="42.2391246445477008819580078125" lon="1.44095870666205883026123046875">
        <ele>891.5999755859375</ele>
        <time>2020-08-11T11:47:51.000Z</time>
      </trkpt>
      <trkpt lat="42.23913813941180706024169921875" lon="1.4405874721705913543701171875">
        <ele>890.79998779296875</ele>
        <time>2020-08-11T11:47:55.000Z</time>
      </trkpt>
      <trkpt lat="42.2391290031373500823974609375" lon="1.44048965536057949066162109375">
        <ele>890.4000244140625</ele>
        <time>2020-08-11T11:47:56.000Z</time>
      </trkpt>
      <trkpt lat="42.239112071692943572998046875" lon="1.440392844378948211669921875">
        <ele>890</ele>
        <time>2020-08-11T11:47:57.000Z</time>
      </trkpt>
      <trkpt lat="42.2390636242926120758056640625" lon="1.4402035810053348541259765625">
        <ele>889.20001220703125</ele>
        <time>2020-08-11T11:47:59.000Z</time>
      </trkpt>
      <trkpt lat="42.2390448488295078277587890625" lon="1.44011297263205051422119140625">
        <ele>888.5999755859375</ele>
        <time>2020-08-11T11:48:00.000Z</time>
      </trkpt>
      <trkpt lat="42.23903520964086055755615234375" lon="1.44002093933522701263427734375">
        <ele>887.79998779296875</ele>
        <time>2020-08-11T11:48:01.000Z</time>
      </trkpt>
      <trkpt lat="42.2390426695346832275390625" lon="1.43982522189617156982421875">
        <ele>886.79998779296875</ele>
        <time>2020-08-11T11:48:03.000Z</time>
      </trkpt>
      <trkpt lat="42.23905297927558422088623046875" lon="1.43971835263073444366455078125">
        <ele>885.79998779296875</ele>
        <time>2020-08-11T11:48:04.000Z</time>
      </trkpt>
      <trkpt lat="42.23905884660780429840087890625" lon="1.4396059513092041015625">
        <ele>885.20001220703125</ele>
        <time>2020-08-11T11:48:05.000Z</time>
      </trkpt>
      <trkpt lat="42.23905675113201141357421875" lon="1.4393846690654754638671875">
        <ele>883.79998779296875</ele>
        <time>2020-08-11T11:48:07.000Z</time>
      </trkpt>
      <trkpt lat="42.23904510028660297393798828125" lon="1.4392715133726596832275390625">
        <ele>883.4000244140625</ele>
        <time>2020-08-11T11:48:08.000Z</time>
      </trkpt>
      <trkpt lat="42.23902431316673755645751953125" lon="1.4391578547656536102294921875">
        <ele>882.79998779296875</ele>
        <time>2020-08-11T11:48:09.000Z</time>
      </trkpt>
      <trkpt lat="42.2389928810298442840576171875" lon="1.43904729746282100677490234375">
        <ele>882.20001220703125</ele>
        <time>2020-08-11T11:48:10.000Z</time>
      </trkpt>
      <trkpt lat="42.238904535770416259765625" lon="1.4388380013406276702880859375">
        <ele>881.20001220703125</ele>
        <time>2020-08-11T11:48:12.000Z</time>
      </trkpt>
      <trkpt lat="42.2388604469597339630126953125" lon="1.438735239207744598388671875">
        <ele>880.79998779296875</ele>
        <time>2020-08-11T11:48:13.000Z</time>
      </trkpt>
      <trkpt lat="42.2388242371380329132080078125" lon="1.43862920813262462615966796875">
        <ele>880.4000244140625</ele>
        <time>2020-08-11T11:48:14.000Z</time>
      </trkpt>
      <trkpt lat="42.2387980856001377105712890625" lon="1.4385201595723628997802734375">
        <ele>880</ele>
        <time>2020-08-11T11:48:15.000Z</time>
      </trkpt>
      <trkpt lat="42.23877117969095706939697265625" lon="1.4383032359182834625244140625">
        <ele>879.4000244140625</ele>
        <time>2020-08-11T11:48:17.000Z</time>
      </trkpt>
      <trkpt lat="42.238784171640872955322265625" lon="1.43809913657605648040771484375">
        <ele>879</ele>
        <time>2020-08-11T11:48:19.000Z</time>
      </trkpt>
      <trkpt lat="42.238806970417499542236328125" lon="1.43800760619342327117919921875">
        <ele>878.79998779296875</ele>
        <time>2020-08-11T11:48:20.000Z</time>
      </trkpt>
      <trkpt lat="42.2389281727373600006103515625" lon="1.43779939971864223480224609375">
        <ele>878.79998779296875</ele>
        <time>2020-08-11T11:48:23.000Z</time>
      </trkpt>
      <trkpt lat="42.23897083662450313568115234375" lon="1.43774516880512237548828125">
        <ele>878.79998779296875</ele>
        <time>2020-08-11T11:48:24.000Z</time>
      </trkpt>
      <trkpt lat="42.239012829959392547607421875" lon="1.437697894871234893798828125">
        <ele>878.79998779296875</ele>
        <time>2020-08-11T11:48:25.000Z</time>
      </trkpt>
      <trkpt lat="42.2391378879547119140625" lon="1.43760426901280879974365234375">
        <ele>879</ele>
        <time>2020-08-11T11:48:28.000Z</time>
      </trkpt>
      <trkpt lat="42.2393432445824146270751953125" lon="1.43751106224954128265380859375">
        <ele>879.5999755859375</ele>
        <time>2020-08-11T11:48:34.000Z</time>
      </trkpt>
      <trkpt lat="42.239503003656864166259765625" lon="1.43737477250397205352783203125">
        <ele>880</ele>
        <time>2020-08-11T11:48:40.000Z</time>
      </trkpt>
      <trkpt lat="42.23959629423916339874267578125" lon="1.43717519938945770263671875">
        <ele>880.20001220703125</ele>
        <time>2020-08-11T11:48:46.000Z</time>
      </trkpt>
      <trkpt lat="42.2396232001483440399169921875" lon="1.437113843858242034912109375">
        <ele>880.4000244140625</ele>
        <time>2020-08-11T11:48:48.000Z</time>
      </trkpt>
      <trkpt lat="42.239663936197757720947265625" lon="1.43698853440582752227783203125">
        <ele>881.4000244140625</ele>
        <time>2020-08-11T11:48:52.000Z</time>
      </trkpt>
      <trkpt lat="42.23969905637204647064208984375" lon="1.4368964172899723052978515625">
        <ele>881.5999755859375</ele>
        <time>2020-08-11T11:48:55.000Z</time>
      </trkpt>
      <trkpt lat="42.2397593222558498382568359375" lon="1.43667689524590969085693359375">
        <ele>882.4000244140625</ele>
        <time>2020-08-11T11:49:02.000Z</time>
      </trkpt>
      <trkpt lat="42.23976393230259418487548828125" lon="1.43664814531803131103515625">
        <ele>882.5999755859375</ele>
        <time>2020-08-11T11:49:03.000Z</time>
      </trkpt>
      <trkpt lat="42.23977516405284404754638671875" lon="1.4365898072719573974609375">
        <ele>882.79998779296875</ele>
        <time>2020-08-11T11:49:08.000Z</time>
      </trkpt>
      <trkpt lat="42.239776588976383209228515625" lon="1.436588466167449951171875">
        <ele>883</ele>
        <time>2020-08-11T11:49:12.000Z</time>
      </trkpt>
      <trkpt lat="42.2397908382117748260498046875" lon="1.43655686639249324798583984375">
        <ele>882.79998779296875</ele>
        <time>2020-08-11T11:56:16.000Z</time>
      </trkpt>
      <trkpt lat="42.23979410715401172637939453125" lon="1.436520405113697052001953125">
        <ele>882.5999755859375</ele>
        <time>2020-08-11T11:56:21.000Z</time>
      </trkpt>
      <trkpt lat="42.239810787141323089599609375" lon="1.4363532699644565582275390625">
        <ele>883</ele>
        <time>2020-08-11T11:56:28.000Z</time>
      </trkpt>
      <trkpt lat="42.2398451529443264007568359375" lon="1.43622410483658313751220703125">
        <ele>883.79998779296875</ele>
        <time>2020-08-11T11:56:33.000Z</time>
      </trkpt>
      <trkpt lat="42.2398699633777141571044921875" lon="1.4361391961574554443359375">
        <ele>884</ele>
        <time>2020-08-11T11:56:36.000Z</time>
      </trkpt>
      <trkpt lat="42.23989552818238735198974609375" lon="1.43594750203192234039306640625">
        <ele>883.79998779296875</ele>
        <time>2020-08-11T11:56:41.000Z</time>
      </trkpt>
      <trkpt lat="42.2399318218231201171875" lon="1.4356133155524730682373046875">
        <ele>883.4000244140625</ele>
        <time>2020-08-11T11:56:49.000Z</time>
      </trkpt>
      <trkpt lat="42.23991313017904758453369140625" lon="1.4353323541581630706787109375">
        <ele>883.5999755859375</ele>
        <time>2020-08-11T11:56:57.000Z</time>
      </trkpt>
      <trkpt lat="42.2399373538792133331298828125" lon="1.4350500516593456268310546875">
        <ele>883.79998779296875</ele>
        <time>2020-08-11T11:57:05.000Z</time>
      </trkpt>
      <trkpt lat="42.24004288204014301300048828125" lon="1.43487394787371158599853515625">
        <ele>883.79998779296875</ele>
        <time>2020-08-11T11:57:11.000Z</time>
      </trkpt>
      <trkpt lat="42.24016316235065460205078125" lon="1.43472961150109767913818359375">
        <ele>883.4000244140625</ele>
        <time>2020-08-11T11:57:17.000Z</time>
      </trkpt>
      <trkpt lat="42.24020230583846569061279296875" lon="1.43454437144100666046142578125">
        <ele>884.20001220703125</ele>
        <time>2020-08-11T11:57:23.000Z</time>
      </trkpt>
      <trkpt lat="42.24016006104648113250732421875" lon="1.43428646028041839599609375">
        <ele>885.20001220703125</ele>
        <time>2020-08-11T11:57:31.000Z</time>
      </trkpt>
      <trkpt lat="42.2401566244661808013916015625" lon="1.43410532735288143157958984375">
        <ele>886.20001220703125</ele>
        <time>2020-08-11T11:57:37.000Z</time>
      </trkpt>
      <trkpt lat="42.24020381458103656768798828125" lon="1.4339406229555606842041015625">
        <ele>887</ele>
        <time>2020-08-11T11:57:43.000Z</time>
      </trkpt>
      <trkpt lat="42.2402173094451427459716796875" lon="1.43389862962067127227783203125">
        <ele>887.20001220703125</ele>
        <time>2020-08-11T11:57:45.000Z</time>
      </trkpt>
      <trkpt lat="42.24024907685816287994384765625" lon="1.4337761700153350830078125">
        <ele>888.20001220703125</ele>
        <time>2020-08-11T11:57:50.000Z</time>
      </trkpt>
      <trkpt lat="42.2402307204902172088623046875" lon="1.4336680434644222259521484375">
        <ele>888.5999755859375</ele>
        <time>2020-08-11T11:57:54.000Z</time>
      </trkpt>
      <trkpt lat="42.2402095980942249298095703125" lon="1.43362504430115222930908203125">
        <ele>888.79998779296875</ele>
        <time>2020-08-11T11:57:56.000Z</time>
      </trkpt>
      <trkpt lat="42.2401396930217742919921875" lon="1.43353502266108989715576171875">
        <ele>889.5999755859375</ele>
        <time>2020-08-11T11:58:01.000Z</time>
      </trkpt>
      <trkpt lat="42.24010004661977291107177734375" lon="1.433476097881793975830078125">
        <ele>890.20001220703125</ele>
        <time>2020-08-11T11:58:04.000Z</time>
      </trkpt>
      <trkpt lat="42.24006660282611846923828125" lon="1.43337526358664035797119140625">
        <ele>890.79998779296875</ele>
        <time>2020-08-11T11:58:08.000Z</time>
      </trkpt>
      <trkpt lat="42.2400645911693572998046875" lon="1.4333188533782958984375">
        <ele>891</ele>
        <time>2020-08-11T11:58:10.000Z</time>
      </trkpt>
      <trkpt lat="42.24005897529423236846923828125" lon="1.43318683840334415435791015625">
        <ele>891.79998779296875</ele>
        <time>2020-08-11T11:58:15.000Z</time>
      </trkpt>
      <trkpt lat="42.240037433803081512451171875" lon="1.43314559943974018096923828125">
        <ele>892.20001220703125</ele>
        <time>2020-08-11T11:58:17.000Z</time>
      </trkpt>
      <trkpt lat="42.23994791507720947265625" lon="1.4330467768013477325439453125">
        <ele>893</ele>
        <time>2020-08-11T11:58:23.000Z</time>
      </trkpt>
      <trkpt lat="42.23993374966084957122802734375" lon="1.43302992917597293853759765625">
        <ele>893</ele>
        <time>2020-08-11T11:58:24.000Z</time>
      </trkpt>
      <trkpt lat="42.23983584903180599212646484375" lon="1.43290386535227298736572265625">
        <ele>894</ele>
        <time>2020-08-11T11:58:31.000Z</time>
      </trkpt>
      <trkpt lat="42.2398200072348117828369140625" lon="1.43288726918399333953857421875">
        <ele>894.20001220703125</ele>
        <time>2020-08-11T11:58:32.000Z</time>
      </trkpt>
      <trkpt lat="42.23971665836870670318603515625" lon="1.43277612514793872833251953125">
        <ele>895</ele>
        <time>2020-08-11T11:58:39.000Z</time>
      </trkpt>
      <trkpt lat="42.23965211771428585052490234375" lon="1.432686187326908111572265625">
        <ele>896.20001220703125</ele>
        <time>2020-08-11T11:58:44.000Z</time>
      </trkpt>
      <trkpt lat="42.23963200114667415618896484375" lon="1.432645283639430999755859375">
        <ele>896.4000244140625</ele>
        <time>2020-08-11T11:58:46.000Z</time>
      </trkpt>
      <trkpt lat="42.2396024130284786224365234375" lon="1.43253657035529613494873046875">
        <ele>897.20001220703125</ele>
        <time>2020-08-11T11:58:51.000Z</time>
      </trkpt>
      <trkpt lat="42.2396086156368255615234375" lon="1.432513855397701263427734375">
        <ele>897.4000244140625</ele>
        <time>2020-08-11T11:58:52.000Z</time>
      </trkpt>
      <trkpt lat="42.2396335937082767486572265625" lon="1.43248091451823711395263671875">
        <ele>897.79998779296875</ele>
        <time>2020-08-11T11:58:54.000Z</time>
      </trkpt>
      <trkpt lat="42.23966804333031177520751953125" lon="1.432477645576000213623046875">
        <ele>898.20001220703125</ele>
        <time>2020-08-11T11:58:56.000Z</time>
      </trkpt>
      <trkpt lat="42.23968480713665485382080078125" lon="1.432485692203044891357421875">
        <ele>898.20001220703125</ele>
        <time>2020-08-11T11:58:57.000Z</time>
      </trkpt>
      <trkpt lat="42.2397211007773876190185546875" lon="1.43253891728818416595458984375">
        <ele>898.5999755859375</ele>
        <time>2020-08-11T11:59:00.000Z</time>
      </trkpt>
      <trkpt lat="42.23973962478339672088623046875" lon="1.43258334137499332427978515625">
        <ele>899</ele>
        <time>2020-08-11T11:59:02.000Z</time>
      </trkpt>
      <trkpt lat="42.2397601604461669921875" lon="1.4326281845569610595703125">
        <ele>899.4000244140625</ele>
        <time>2020-08-11T11:59:04.000Z</time>
      </trkpt>
      <trkpt lat="42.23981305025517940521240234375" lon="1.43272901885211467742919921875">
        <ele>900.20001220703125</ele>
        <time>2020-08-11T11:59:09.000Z</time>
      </trkpt>
      <trkpt lat="42.23990474827587604522705078125" lon="1.43285726197063922882080078125">
        <ele>900.5999755859375</ele>
        <time>2020-08-11T11:59:16.000Z</time>
      </trkpt>
      <trkpt lat="42.2399554587900638580322265625" lon="1.43290034495294094085693359375">
        <ele>901.20001220703125</ele>
        <time>2020-08-11T11:59:19.000Z</time>
      </trkpt>
      <trkpt lat="42.2400057502090930938720703125" lon="1.43293890170753002166748046875">
        <ele>901.5999755859375</ele>
        <time>2020-08-11T11:59:22.000Z</time>
      </trkpt>
      <trkpt lat="42.24010004661977291107177734375" lon="1.43298734910786151885986328125">
        <ele>902.5999755859375</ele>
        <time>2020-08-11T11:59:27.000Z</time>
      </trkpt>
      <trkpt lat="42.24013642407953739166259765625" lon="1.43300562165677547454833984375">
        <ele>902.79998779296875</ele>
        <time>2020-08-11T11:59:29.000Z</time>
      </trkpt>
      <trkpt lat="42.24018923006951808929443359375" lon="1.43308189697563648223876953125">
        <ele>903.5999755859375</ele>
        <time>2020-08-11T11:59:33.000Z</time>
      </trkpt>
      <trkpt lat="42.24020398221909999847412109375" lon="1.4331302605569362640380859375">
        <ele>904</ele>
        <time>2020-08-11T11:59:35.000Z</time>
      </trkpt>
      <trkpt lat="42.2402689419686794281005859375" lon="1.4332611858844757080078125">
        <ele>904.79998779296875</ele>
        <time>2020-08-11T11:59:41.000Z</time>
      </trkpt>
      <trkpt lat="42.240313701331615447998046875" lon="1.43331407569348812103271484375">
        <ele>905.20001220703125</ele>
        <time>2020-08-11T11:59:44.000Z</time>
      </trkpt>
      <trkpt lat="42.24037849344313144683837890625" lon="1.433367468416690826416015625">
        <ele>905.5999755859375</ele>
        <time>2020-08-11T11:59:48.000Z</time>
      </trkpt>
      <trkpt lat="42.240424342453479766845703125" lon="1.43340803682804107666015625">
        <ele>906.20001220703125</ele>
        <time>2020-08-11T11:59:51.000Z</time>
      </trkpt>
      <trkpt lat="42.24046817980706691741943359375" lon="1.43350250087678432464599609375">
        <ele>906.5999755859375</ele>
        <time>2020-08-11T11:59:55.000Z</time>
      </trkpt>
      <trkpt lat="42.24048611707985401153564453125" lon="1.43361389636993408203125">
        <ele>907.20001220703125</ele>
        <time>2020-08-11T11:59:59.000Z</time>
      </trkpt>
      <trkpt lat="42.2404902242124080657958984375" lon="1.4336408860981464385986328125">
        <ele>907.5999755859375</ele>
        <time>2020-08-11T12:00:00.000Z</time>
      </trkpt>
      <trkpt lat="42.2405039705336093902587890625" lon="1.43382889218628406524658203125">
        <ele>908</ele>
        <time>2020-08-11T12:00:07.000Z</time>
      </trkpt>
      <trkpt lat="42.2405093349516391754150390625" lon="1.43385454080998897552490234375">
        <ele>908.20001220703125</ele>
        <time>2020-08-11T12:00:08.000Z</time>
      </trkpt>
      <trkpt lat="42.24056792445480823516845703125" lon="1.43402217887341976165771484375">
        <ele>909.4000244140625</ele>
        <time>2020-08-11T12:00:15.000Z</time>
      </trkpt>
      <trkpt lat="42.24057756364345550537109375" lon="1.43404531292617321014404296875">
        <ele>909.4000244140625</ele>
        <time>2020-08-11T12:00:16.000Z</time>
      </trkpt>
      <trkpt lat="42.2406763024628162384033203125" lon="1.434206329286098480224609375">
        <ele>910.4000244140625</ele>
        <time>2020-08-11T12:00:24.000Z</time>
      </trkpt>
      <trkpt lat="42.2407416813075542449951171875" lon="1.4343436248600482940673828125">
        <ele>911.4000244140625</ele>
        <time>2020-08-11T12:00:30.000Z</time>
      </trkpt>
      <trkpt lat="42.24077780731022357940673828125" lon="1.43440959043800830841064453125">
        <ele>911.79998779296875</ele>
        <time>2020-08-11T12:00:33.000Z</time>
      </trkpt>
      <trkpt lat="42.24083103239536285400390625" lon="1.43449089489877223968505859375">
        <ele>912.5999755859375</ele>
        <time>2020-08-11T12:00:37.000Z</time>
      </trkpt>
      <trkpt lat="42.24090747535228729248046875" lon="1.43457345664501190185546875">
        <ele>913.20001220703125</ele>
        <time>2020-08-11T12:00:42.000Z</time>
      </trkpt>
      <trkpt lat="42.24093589000403881072998046875" lon="1.43460555933415889739990234375">
        <ele>913.5999755859375</ele>
        <time>2020-08-11T12:00:44.000Z</time>
      </trkpt>
      <trkpt lat="42.24098400212824344635009765625" lon="1.43467429094016551971435546875">
        <ele>914.20001220703125</ele>
        <time>2020-08-11T12:00:48.000Z</time>
      </trkpt>
      <trkpt lat="42.24102859385311603546142578125" lon="1.43475475721061229705810546875">
        <ele>914.5999755859375</ele>
        <time>2020-08-11T12:00:52.000Z</time>
      </trkpt>
      <trkpt lat="42.24105860106647014617919921875" lon="1.43485466949641704559326171875">
        <ele>915</ele>
        <time>2020-08-11T12:00:56.000Z</time>
      </trkpt>
      <trkpt lat="42.24106597714126110076904296875" lon="1.43490630201995372772216796875">
        <ele>915.20001220703125</ele>
        <time>2020-08-11T12:00:58.000Z</time>
      </trkpt>
      <trkpt lat="42.24107452668249607086181640625" lon="1.43498542718589305877685546875">
        <ele>915.5999755859375</ele>
        <time>2020-08-11T12:01:01.000Z</time>
      </trkpt>
      <trkpt lat="42.24107134155929088592529296875" lon="1.435054242610931396484375">
        <ele>916</ele>
        <time>2020-08-11T12:01:04.000Z</time>
      </trkpt>
      <trkpt lat="42.2410159371793270111083984375" lon="1.43519564531743526458740234375">
        <ele>916.5999755859375</ele>
        <time>2020-08-11T12:01:11.000Z</time>
      </trkpt>
      <trkpt lat="42.240962795913219451904296875" lon="1.43523051403462886810302734375">
        <ele>916.79998779296875</ele>
        <time>2020-08-11T12:01:14.000Z</time>
      </trkpt>
      <trkpt lat="42.24091744981706142425537109375" lon="1.435273848474025726318359375">
        <ele>917.4000244140625</ele>
        <time>2020-08-11T12:01:17.000Z</time>
      </trkpt>
      <trkpt lat="42.24088291637599468231201171875" lon="1.43533528782427310943603515625">
        <ele>917.79998779296875</ele>
        <time>2020-08-11T12:01:20.000Z</time>
      </trkpt>
      <trkpt lat="42.2408828325569629669189453125" lon="1.43541592173278331756591796875">
        <ele>918.4000244140625</ele>
        <time>2020-08-11T12:01:23.000Z</time>
      </trkpt>
      <trkpt lat="42.2408933937549591064453125" lon="1.435440480709075927734375">
        <ele>918.4000244140625</ele>
        <time>2020-08-11T12:01:24.000Z</time>
      </trkpt>
      <trkpt lat="42.240948379039764404296875" lon="1.4354691468179225921630859375">
        <ele>918.79998779296875</ele>
        <time>2020-08-11T12:01:27.000Z</time>
      </trkpt>
      <trkpt lat="42.24103395827114582061767578125" lon="1.43539245240390300750732421875">
        <ele>919</ele>
        <time>2020-08-11T12:01:32.000Z</time>
      </trkpt>
      <trkpt lat="42.24104938097298145294189453125" lon="1.43537283875048160552978515625">
        <ele>919.20001220703125</ele>
        <time>2020-08-11T12:01:33.000Z</time>
      </trkpt>
      <trkpt lat="42.24118642508983612060546875" lon="1.43522565253078937530517578125">
        <ele>919.4000244140625</ele>
        <time>2020-08-11T12:01:41.000Z</time>
      </trkpt>
      <trkpt lat="42.241321541368961334228515625" lon="1.43508173525333404541015625">
        <ele>919.79998779296875</ele>
        <time>2020-08-11T12:01:49.000Z</time>
      </trkpt>
      <trkpt lat="42.24133855663239955902099609375" lon="1.4350617863237857818603515625">
        <ele>920</ele>
        <time>2020-08-11T12:01:50.000Z</time>
      </trkpt>
      <trkpt lat="42.24137485027313232421875" lon="1.43492843024432659149169921875">
        <ele>920.4000244140625</ele>
        <time>2020-08-11T12:01:55.000Z</time>
      </trkpt>
      <trkpt lat="42.2413498722016811370849609375" lon="1.4347444474697113037109375">
        <ele>921</ele>
        <time>2020-08-11T12:02:01.000Z</time>
      </trkpt>
      <trkpt lat="42.24133185110986232757568359375" lon="1.43468652851879596710205078125">
        <ele>921</ele>
        <time>2020-08-11T12:02:03.000Z</time>
      </trkpt>
      <trkpt lat="42.24127552472054958343505859375" lon="1.43450950272381305694580078125">
        <ele>921.79998779296875</ele>
        <time>2020-08-11T12:02:09.000Z</time>
      </trkpt>
      <trkpt lat="42.24124082364141941070556640625" lon="1.4344237558543682098388671875">
        <ele>922.20001220703125</ele>
        <time>2020-08-11T12:02:12.000Z</time>
      </trkpt>
      <trkpt lat="42.24117158912122249603271484375" lon="1.434297524392604827880859375">
        <ele>922.79998779296875</ele>
        <time>2020-08-11T12:02:17.000Z</time>
      </trkpt>
      <trkpt lat="42.24113856442272663116455078125" lon="1.4342135377228260040283203125">
        <ele>923.20001220703125</ele>
        <time>2020-08-11T12:02:20.000Z</time>
      </trkpt>
      <trkpt lat="42.2410809807479381561279296875" lon="1.434049420058727264404296875">
        <ele>924</ele>
        <time>2020-08-11T12:02:26.000Z</time>
      </trkpt>
      <trkpt lat="42.2410363890230655670166015625" lon="1.43395118415355682373046875">
        <ele>924.4000244140625</ele>
        <time>2020-08-11T12:02:30.000Z</time>
      </trkpt>
      <trkpt lat="42.24095751531422138214111328125" lon="1.4337796904146671295166015625">
        <ele>925.4000244140625</ele>
        <time>2020-08-11T12:02:37.000Z</time>
      </trkpt>
      <trkpt lat="42.2408975847065448760986328125" lon="1.4335480146110057830810546875">
        <ele>926.79998779296875</ele>
        <time>2020-08-11T12:02:46.000Z</time>
      </trkpt>
      <trkpt lat="42.240893058478832244873046875" lon="1.43335145898163318634033203125">
        <ele>927.79998779296875</ele>
        <time>2020-08-11T12:02:53.000Z</time>
      </trkpt>
      <trkpt lat="42.240889370441436767578125" lon="1.43312213011085987091064453125">
        <ele>928.79998779296875</ele>
        <time>2020-08-11T12:03:01.000Z</time>
      </trkpt>
      <trkpt lat="42.240887023508548736572265625" lon="1.433091871440410614013671875">
        <ele>929</ele>
        <time>2020-08-11T12:03:02.000Z</time>
      </trkpt>
      <trkpt lat="42.24083564244210720062255859375" lon="1.4329307712614536285400390625">
        <ele>929.79998779296875</ele>
        <time>2020-08-11T12:03:08.000Z</time>
      </trkpt>
      <trkpt lat="42.24074260331690311431884765625" lon="1.43273203633725643157958984375">
        <ele>930.5999755859375</ele>
        <time>2020-08-11T12:03:16.000Z</time>
      </trkpt>
      <trkpt lat="42.24072516895830631256103515625" lon="1.43267755396664142608642578125">
        <ele>930.79998779296875</ele>
        <time>2020-08-11T12:03:18.000Z</time>
      </trkpt>
      <trkpt lat="42.24069382064044475555419921875" lon="1.43253372050821781158447265625">
        <ele>931.5999755859375</ele>
        <time>2020-08-11T12:03:23.000Z</time>
      </trkpt>
      <trkpt lat="42.24068460054695606231689453125" lon="1.432476975023746490478515625">
        <ele>931.79998779296875</ele>
        <time>2020-08-11T12:03:25.000Z</time>
      </trkpt>
      <trkpt lat="42.24068460054695606231689453125" lon="1.43242123536765575408935546875">
        <ele>932</ele>
        <time>2020-08-11T12:03:27.000Z</time>
      </trkpt>
      <trkpt lat="42.2406893782317638397216796875" lon="1.4323638193309307098388671875">
        <ele>932</ele>
        <time>2020-08-11T12:03:29.000Z</time>
      </trkpt>
      <trkpt lat="42.24072508513927459716796875" lon="1.43222040496766567230224609375">
        <ele>932.79998779296875</ele>
        <time>2020-08-11T12:03:34.000Z</time>
      </trkpt>
      <trkpt lat="42.24074394442141056060791015625" lon="1.43216642551124095916748046875">
        <ele>933</ele>
        <time>2020-08-11T12:03:36.000Z</time>
      </trkpt>
      <trkpt lat="42.240822315216064453125" lon="1.4319822750985622406005859375">
        <ele>933.20001220703125</ele>
        <time>2020-08-11T12:03:43.000Z</time>
      </trkpt>
      <trkpt lat="42.24089146591722965240478515625" lon="1.43179158680140972137451171875">
        <ele>934</ele>
        <time>2020-08-11T12:03:50.000Z</time>
      </trkpt>
      <trkpt lat="42.24091895855963230133056640625" lon="1.4317083545029163360595703125">
        <ele>934.5999755859375</ele>
        <time>2020-08-11T12:03:53.000Z</time>
      </trkpt>
      <trkpt lat="42.2409907914698123931884765625" lon="1.431518085300922393798828125">
        <ele>935</ele>
        <time>2020-08-11T12:04:00.000Z</time>
      </trkpt>
      <trkpt lat="42.24102540872991085052490234375" lon="1.4314424805343151092529296875">
        <ele>935.5999755859375</ele>
        <time>2020-08-11T12:04:03.000Z</time>
      </trkpt>
      <trkpt lat="42.2410974092781543731689453125" lon="1.4313341863453388214111328125">
        <ele>936</ele>
        <time>2020-08-11T12:04:08.000Z</time>
      </trkpt>
      <trkpt lat="42.24116622470319271087646484375" lon="1.4312577433884143829345703125">
        <ele>936.5999755859375</ele>
        <time>2020-08-11T12:04:12.000Z</time>
      </trkpt>
      <trkpt lat="42.24118483252823352813720703125" lon="1.4312441647052764892578125">
        <ele>936.79998779296875</ele>
        <time>2020-08-11T12:04:13.000Z</time>
      </trkpt>
      <trkpt lat="42.2412865050137042999267578125" lon="1.43121323548257350921630859375">
        <ele>937.5999755859375</ele>
        <time>2020-08-11T12:04:18.000Z</time>
      </trkpt>
      <trkpt lat="42.2413051128387451171875" lon="1.43122295849025249481201171875">
        <ele>937.79998779296875</ele>
        <time>2020-08-11T12:04:19.000Z</time>
      </trkpt>
      <trkpt lat="42.241319529712200164794921875" lon="1.43123972229659557342529296875">
        <ele>938.20001220703125</ele>
        <time>2020-08-11T12:04:20.000Z</time>
      </trkpt>
      <trkpt lat="42.2413267381489276885986328125" lon="1.43128716386854648590087890625">
        <ele>938.79998779296875</ele>
        <time>2020-08-11T12:04:22.000Z</time>
      </trkpt>
      <trkpt lat="42.2413002513349056243896484375" lon="1.43135614693164825439453125">
        <ele>939.20001220703125</ele>
        <time>2020-08-11T12:04:25.000Z</time>
      </trkpt>
      <trkpt lat="42.24126496352255344390869140625" lon="1.4313915185630321502685546875">
        <ele>939.4000244140625</ele>
        <time>2020-08-11T12:04:27.000Z</time>
      </trkpt>
      <trkpt lat="42.24113814532756805419921875" lon="1.43153375945985317230224609375">
        <ele>940.20001220703125</ele>
        <time>2020-08-11T12:04:35.000Z</time>
      </trkpt>
      <trkpt lat="42.24111475981771945953369140625" lon="1.4315789379179477691650390625">
        <ele>940.5999755859375</ele>
        <time>2020-08-11T12:04:37.000Z</time>
      </trkpt>
      <trkpt lat="42.24105474539101123809814453125" lon="1.4317532815039157867431640625">
        <ele>941.4000244140625</ele>
        <time>2020-08-11T12:04:44.000Z</time>
      </trkpt>
      <trkpt lat="42.2410467825829982757568359375" lon="1.43180700950324535369873046875">
        <ele>941.79998779296875</ele>
        <time>2020-08-11T12:04:46.000Z</time>
      </trkpt>
      <trkpt lat="42.2410202957689762115478515625" lon="1.43199359066784381866455078125">
        <ele>942.5999755859375</ele>
        <time>2020-08-11T12:04:53.000Z</time>
      </trkpt>
      <trkpt lat="42.24101744592189788818359375" lon="1.43202058039605617523193359375">
        <ele>942.5999755859375</ele>
        <time>2020-08-11T12:04:54.000Z</time>
      </trkpt>
      <trkpt lat="42.241000346839427947998046875" lon="1.43211118876934051513671875">
        <ele>943.5999755859375</ele>
        <time>2020-08-11T12:04:59.000Z</time>
      </trkpt>
      <trkpt lat="42.240999676287174224853515625" lon="1.43211244605481624603271484375">
        <ele>943.79998779296875</ele>
        <time>2020-08-11T12:05:00.000Z</time>
      </trkpt>
      <trkpt lat="42.24099992774426937103271484375" lon="1.432113535702228546142578125">
        <ele>944</ele>
        <time>2020-08-11T12:05:01.000Z</time>
      </trkpt>
      <trkpt lat="42.2410048730671405792236328125" lon="1.43217531032860279083251953125">
        <ele>945.20001220703125</ele>
        <time>2020-08-11T12:08:14.000Z</time>
      </trkpt>
      <trkpt lat="42.2410095669329166412353515625" lon="1.4322260208427906036376953125">
        <ele>945.5999755859375</ele>
        <time>2020-08-11T12:08:17.000Z</time>
      </trkpt>
      <trkpt lat="42.24099188111722469329833984375" lon="1.43228695727884769439697265625">
        <ele>945.5999755859375</ele>
        <time>2020-08-11T12:08:20.000Z</time>
      </trkpt>
      <trkpt lat="42.24097444675862789154052734375" lon="1.432378403842449188232421875">
        <ele>946.20001220703125</ele>
        <time>2020-08-11T12:08:24.000Z</time>
      </trkpt>
      <trkpt lat="42.24099992774426937103271484375" lon="1.43256171606481075286865234375">
        <ele>947.20001220703125</ele>
        <time>2020-08-11T12:08:31.000Z</time>
      </trkpt>
      <trkpt lat="42.24100898019969463348388671875" lon="1.432586610317230224609375">
        <ele>947.5999755859375</ele>
        <time>2020-08-11T12:08:32.000Z</time>
      </trkpt>
      <trkpt lat="42.2410575114190578460693359375" lon="1.43267906270921230316162109375">
        <ele>948.20001220703125</ele>
        <time>2020-08-11T12:08:36.000Z</time>
      </trkpt>
      <trkpt lat="42.241112329065799713134765625" lon="1.432763971388339996337890625">
        <ele>948.5999755859375</ele>
        <time>2020-08-11T12:08:40.000Z</time>
      </trkpt>
      <trkpt lat="42.24118910729885101318359375" lon="1.4328754507005214691162109375">
        <ele>949.20001220703125</ele>
        <time>2020-08-11T12:08:46.000Z</time>
      </trkpt>
      <trkpt lat="42.24120377562940120697021484375" lon="1.43289246596395969390869140625">
        <ele>949.4000244140625</ele>
        <time>2020-08-11T12:08:47.000Z</time>
      </trkpt>
      <trkpt lat="42.24130134098231792449951171875" lon="1.4329983294010162353515625">
        <ele>950.4000244140625</ele>
        <time>2020-08-11T12:08:53.000Z</time>
      </trkpt>
      <trkpt lat="42.24140225909650325775146484375" lon="1.4331094734370708465576171875">
        <ele>951.20001220703125</ele>
        <time>2020-08-11T12:08:59.000Z</time>
      </trkpt>
      <trkpt lat="42.24146797321736812591552734375" lon="1.43321114592254161834716796875">
        <ele>951.5999755859375</ele>
        <time>2020-08-11T12:09:04.000Z</time>
      </trkpt>
      <trkpt lat="42.24148725159466266632080078125" lon="1.43325917422771453857421875">
        <ele>952</ele>
        <time>2020-08-11T12:09:06.000Z</time>
      </trkpt>
      <trkpt lat="42.24151893518865108489990234375" lon="1.4333592541515827178955078125">
        <ele>952.5999755859375</ele>
        <time>2020-08-11T12:09:10.000Z</time>
      </trkpt>
      <trkpt lat="42.24154718220233917236328125" lon="1.433461010456085205078125">
        <ele>953.20001220703125</ele>
        <time>2020-08-11T12:09:14.000Z</time>
      </trkpt>
      <trkpt lat="42.24156537093222141265869140625" lon="1.43354172818362712860107421875">
        <ele>953.79998779296875</ele>
        <time>2020-08-11T12:09:17.000Z</time>
      </trkpt>
      <trkpt lat="42.24163058213889598846435546875" lon="1.43370936624705791473388671875">
        <ele>954.5999755859375</ele>
        <time>2020-08-11T12:09:24.000Z</time>
      </trkpt>
      <trkpt lat="42.2416449151933193206787109375" lon="1.433723866939544677734375">
        <ele>955</ele>
        <time>2020-08-11T12:09:25.000Z</time>
      </trkpt>
      <trkpt lat="42.2416978888213634490966796875" lon="1.43372763879597187042236328125">
        <ele>955.5999755859375</ele>
        <time>2020-08-11T12:09:28.000Z</time>
      </trkpt>
      <trkpt lat="42.2417310811579227447509765625" lon="1.43366795964539051055908203125">
        <ele>956.20001220703125</ele>
        <time>2020-08-11T12:09:31.000Z</time>
      </trkpt>
      <trkpt lat="42.24173652939498424530029296875" lon="1.43364331685006618499755859375">
        <ele>956.4000244140625</ele>
        <time>2020-08-11T12:09:32.000Z</time>
      </trkpt>
      <trkpt lat="42.24174164235591888427734375" lon="1.43361993134021759033203125">
        <ele>956.4000244140625</ele>
        <time>2020-08-11T12:09:33.000Z</time>
      </trkpt>
      <trkpt lat="42.24172445945441722869873046875" lon="1.4334719069302082061767578125">
        <ele>956.79998779296875</ele>
        <time>2020-08-11T12:09:39.000Z</time>
      </trkpt>
      <trkpt lat="42.24171054549515247344970703125" lon="1.43339068628847599029541015625">
        <ele>957.20001220703125</ele>
        <time>2020-08-11T12:09:42.000Z</time>
      </trkpt>
      <trkpt lat="42.24168506450951099395751953125" lon="1.43322698771953582763671875">
        <ele>958.20001220703125</ele>
        <time>2020-08-11T12:09:48.000Z</time>
      </trkpt>
      <trkpt lat="42.24167651496827602386474609375" lon="1.4332016743719577789306640625">
        <ele>958.4000244140625</ele>
        <time>2020-08-11T12:09:49.000Z</time>
      </trkpt>
      <trkpt lat="42.24158314056694507598876953125" lon="1.43303261138498783111572265625">
        <ele>959.4000244140625</ele>
        <time>2020-08-11T12:09:57.000Z</time>
      </trkpt>
      <trkpt lat="42.24147266708314418792724609375" lon="1.4328985847532749176025390625">
        <ele>960.4000244140625</ele>
        <time>2020-08-11T12:10:05.000Z</time>
      </trkpt>
      <trkpt lat="42.24145858548581600189208984375" lon="1.4328834973275661468505859375">
        <ele>960.4000244140625</ele>
        <time>2020-08-11T12:10:06.000Z</time>
      </trkpt>
      <trkpt lat="42.24140343256294727325439453125" lon="1.43278987146914005279541015625">
        <ele>961.5999755859375</ele>
        <time>2020-08-11T12:10:11.000Z</time>
      </trkpt>
      <trkpt lat="42.24138851277530193328857421875" lon="1.43274477683007717132568359375">
        <ele>961.79998779296875</ele>
        <time>2020-08-11T12:10:13.000Z</time>
      </trkpt>
      <trkpt lat="42.2413877584040164947509765625" lon="1.4326776377856731414794921875">
        <ele>962.20001220703125</ele>
        <time>2020-08-11T12:10:16.000Z</time>
      </trkpt>
      <trkpt lat="42.2414082102477550506591796875" lon="1.4325840957462787628173828125">
        <ele>962.4000244140625</ele>
        <time>2020-08-11T12:10:20.000Z</time>
      </trkpt>
      <trkpt lat="42.241433523595333099365234375" lon="1.43251846544444561004638671875">
        <ele>962.79998779296875</ele>
        <time>2020-08-11T12:10:23.000Z</time>
      </trkpt>
      <trkpt lat="42.24150384776294231414794921875" lon="1.432370357215404510498046875">
        <ele>963.5999755859375</ele>
        <time>2020-08-11T12:10:30.000Z</time>
      </trkpt>
      <trkpt lat="42.24152714945375919342041015625" lon="1.43233649432659149169921875">
        <ele>964</ele>
        <time>2020-08-11T12:10:32.000Z</time>
      </trkpt>
      <trkpt lat="42.24156805314123630523681640625" lon="1.43225544132292270660400390625">
        <ele>964.5999755859375</ele>
        <time>2020-08-11T12:10:36.000Z</time>
      </trkpt>
      <trkpt lat="42.2416241280734539031982421875" lon="1.43216022290289402008056640625">
        <ele>964.79998779296875</ele>
        <time>2020-08-11T12:10:41.000Z</time>
      </trkpt>
      <trkpt lat="42.24169545806944370269775390625" lon="1.43202628009021282196044921875">
        <ele>965.79998779296875</ele>
        <time>2020-08-11T12:10:48.000Z</time>
      </trkpt>
      <trkpt lat="42.24173250608146190643310546875" lon="1.43197573721408843994140625">
        <ele>966</ele>
        <time>2020-08-11T12:10:51.000Z</time>
      </trkpt>
      <trkpt lat="42.24183744750916957855224609375" lon="1.43186551518738269805908203125">
        <ele>966.4000244140625</ele>
        <time>2020-08-11T12:10:58.000Z</time>
      </trkpt>
      <trkpt lat="42.24186728708446025848388671875" lon="1.43183433450758457183837890625">
        <ele>966.79998779296875</ele>
        <time>2020-08-11T12:11:00.000Z</time>
      </trkpt>
      <trkpt lat="42.2419895790517330169677734375" lon="1.4317475818097591400146484375">
        <ele>967.79998779296875</ele>
        <time>2020-08-11T12:11:07.000Z</time>
      </trkpt>
      <trkpt lat="42.2420938499271869659423828125" lon="1.43167071975767612457275390625">
        <ele>968.79998779296875</ele>
        <time>2020-08-11T12:11:13.000Z</time>
      </trkpt>
      <trkpt lat="42.24218278191983699798583984375" lon="1.4316097833216190338134765625">
        <ele>969.4000244140625</ele>
        <time>2020-08-11T12:11:18.000Z</time>
      </trkpt>
      <trkpt lat="42.2422380186617374420166015625" lon="1.4315742440521717071533203125">
        <ele>970</ele>
        <time>2020-08-11T12:11:21.000Z</time>
      </trkpt>
      <trkpt lat="42.242344804108142852783203125" lon="1.43149134702980518341064453125">
        <ele>971</ele>
        <time>2020-08-11T12:11:27.000Z</time>
      </trkpt>
      <trkpt lat="42.2423627413809299468994140625" lon="1.43147910945117473602294921875">
        <ele>971.20001220703125</ele>
        <time>2020-08-11T12:11:28.000Z</time>
      </trkpt>
      <trkpt lat="42.24247078411281108856201171875" lon="1.431409455835819244384765625">
        <ele>972</ele>
        <time>2020-08-11T12:11:34.000Z</time>
      </trkpt>
      <trkpt lat="42.24252342246472835540771484375" lon="1.43137416802346706390380859375">
        <ele>972.5999755859375</ele>
        <time>2020-08-11T12:11:37.000Z</time>
      </trkpt>
      <trkpt lat="42.2425977699458599090576171875" lon="1.43134399317204952239990234375">
        <ele>973.20001220703125</ele>
        <time>2020-08-11T12:11:41.000Z</time>
      </trkpt>
      <trkpt lat="42.24267094396054744720458984375" lon="1.431299485266208648681640625">
        <ele>973.79998779296875</ele>
        <time>2020-08-11T12:11:45.000Z</time>
      </trkpt>
      <trkpt lat="42.2427468001842498779296875" lon="1.43126352690160274505615234375">
        <ele>974.20001220703125</ele>
        <time>2020-08-11T12:11:49.000Z</time>
      </trkpt>
      <trkpt lat="42.2428539209067821502685546875" lon="1.4312064461410045623779296875">
        <ele>974.79998779296875</ele>
        <time>2020-08-11T12:11:55.000Z</time>
      </trkpt>
      <trkpt lat="42.24292407743632793426513671875" lon="1.43116311170160770416259765625">
        <ele>975.20001220703125</ele>
        <time>2020-08-11T12:11:59.000Z</time>
      </trkpt>
      <trkpt lat="42.242991216480731964111328125" lon="1.43111751414835453033447265625">
        <ele>975.79998779296875</ele>
        <time>2020-08-11T12:12:03.000Z</time>
      </trkpt>
      <trkpt lat="42.2430472075939178466796875" lon="1.43108549527823925018310546875">
        <ele>976.4000244140625</ele>
        <time>2020-08-11T12:12:06.000Z</time>
      </trkpt>
      <trkpt lat="42.24310345016419887542724609375" lon="1.431048028171062469482421875">
        <ele>977</ele>
        <time>2020-08-11T12:12:09.000Z</time>
      </trkpt>
      <trkpt lat="42.24314175546169281005859375" lon="1.431024558842182159423828125">
        <ele>977.4000244140625</ele>
        <time>2020-08-11T12:12:11.000Z</time>
      </trkpt>
      <trkpt lat="42.24327410571277141571044921875" lon="1.4309308491647243499755859375">
        <ele>978.20001220703125</ele>
        <time>2020-08-11T12:12:18.000Z</time>
      </trkpt>
      <trkpt lat="42.2432948090136051177978515625" lon="1.43092137761414051055908203125">
        <ele>978.4000244140625</ele>
        <time>2020-08-11T12:12:19.000Z</time>
      </trkpt>
      <trkpt lat="42.24344559945166110992431640625" lon="1.43087527714669704437255859375">
        <ele>979</ele>
        <time>2020-08-11T12:12:26.000Z</time>
      </trkpt>
      <trkpt lat="42.24351332522928714752197265625" lon="1.4308698289096355438232421875">
        <ele>979.4000244140625</ele>
        <time>2020-08-11T12:12:29.000Z</time>
      </trkpt>
      <trkpt lat="42.2436250559985637664794921875" lon="1.430866979062557220458984375">
        <ele>980.4000244140625</ele>
        <time>2020-08-11T12:12:34.000Z</time>
      </trkpt>
      <trkpt lat="42.24364735186100006103515625" lon="1.430864967405796051025390625">
        <ele>980.4000244140625</ele>
        <time>2020-08-11T12:12:35.000Z</time>
      </trkpt>
      <trkpt lat="42.243669815361499786376953125" lon="1.4308634586632251739501953125">
        <ele>980.5999755859375</ele>
        <time>2020-08-11T12:12:36.000Z</time>
      </trkpt>
      <trkpt lat="42.24386838264763355255126953125" lon="1.4308359660208225250244140625">
        <ele>981.5999755859375</ele>
        <time>2020-08-11T12:12:45.000Z</time>
      </trkpt>
      <trkpt lat="42.2439975477755069732666015625" lon="1.4307953976094722747802734375">
        <ele>982.4000244140625</ele>
        <time>2020-08-11T12:12:51.000Z</time>
      </trkpt>
      <trkpt lat="42.24401674233376979827880859375" lon="1.43078156746923923492431640625">
        <ele>982.5999755859375</ele>
        <time>2020-08-11T12:12:52.000Z</time>
      </trkpt>
      <trkpt lat="42.24415705539286136627197265625" lon="1.4306468702852725982666015625">
        <ele>983.20001220703125</ele>
        <time>2020-08-11T12:13:00.000Z</time>
      </trkpt>
      <trkpt lat="42.24421321414411067962646484375" lon="1.43059414811432361602783203125">
        <ele>983.5999755859375</ele>
        <time>2020-08-11T12:13:03.000Z</time>
      </trkpt>
      <trkpt lat="42.244290746748447418212890625" lon="1.43051720224320888519287109375">
        <ele>984.5999755859375</ele>
        <time>2020-08-11T12:13:07.000Z</time>
      </trkpt>
      <trkpt lat="42.24430985748767852783203125" lon="1.4304966665804386138916015625">
        <ele>984.79998779296875</ele>
        <time>2020-08-11T12:13:08.000Z</time>
      </trkpt>
      <trkpt lat="42.244473136961460113525390625" lon="1.43035744316875934600830078125">
        <ele>985.20001220703125</ele>
        <time>2020-08-11T12:13:16.000Z</time>
      </trkpt>
      <trkpt lat="42.2444848716259002685546875" lon="1.4303307048976421356201171875">
        <ele>985.20001220703125</ele>
        <time>2020-08-11T12:13:17.000Z</time>
      </trkpt>
      <trkpt lat="42.2444987855851650238037109375" lon="1.4302383363246917724609375">
        <ele>985.4000244140625</ele>
        <time>2020-08-11T12:13:20.000Z</time>
      </trkpt>
      <trkpt lat="42.2444914095103740692138671875" lon="1.4301122725009918212890625">
        <ele>985.79998779296875</ele>
        <time>2020-08-11T12:13:24.000Z</time>
      </trkpt>
      <trkpt lat="42.2444803453981876373291015625" lon="1.43008151091635227203369140625">
        <ele>985.79998779296875</ele>
        <time>2020-08-11T12:13:25.000Z</time>
      </trkpt>
      <trkpt lat="42.2443992085754871368408203125" lon="1.429994590580463409423828125">
        <ele>985.79998779296875</ele>
        <time>2020-08-11T12:13:29.000Z</time>
      </trkpt>
      <trkpt lat="42.2442818619310855865478515625" lon="1.42997682094573974609375">
        <ele>985.79998779296875</ele>
        <time>2020-08-11T12:13:34.000Z</time>
      </trkpt>
      <trkpt lat="42.2441252879798412322998046875" lon="1.4299608953297138214111328125">
        <ele>986.4000244140625</ele>
        <time>2020-08-11T12:13:41.000Z</time>
      </trkpt>
      <trkpt lat="42.24410332739353179931640625" lon="1.42995863221585750579833984375">
        <ele>986.5999755859375</ele>
        <time>2020-08-11T12:13:42.000Z</time>
      </trkpt>
      <trkpt lat="42.24400668404996395111083984375" lon="1.42988973297178745269775390625">
        <ele>987.20001220703125</ele>
        <time>2020-08-11T12:13:47.000Z</time>
      </trkpt>
      <trkpt lat="42.2439663670957088470458984375" lon="1.429861485958099365234375">
        <ele>987.79998779296875</ele>
        <time>2020-08-11T12:13:49.000Z</time>
      </trkpt>
      <trkpt lat="42.24384047091007232666015625" lon="1.42978495918214321136474609375">
        <ele>988</ele>
        <time>2020-08-11T12:13:55.000Z</time>
      </trkpt>
      <trkpt lat="42.24372169934213161468505859375" lon="1.4297077618539333343505859375">
        <ele>988.79998779296875</ele>
        <time>2020-08-11T12:14:01.000Z</time>
      </trkpt>
      <trkpt lat="42.24366101436316967010498046875" lon="1.4296775870025157928466796875">
        <ele>989.20001220703125</ele>
        <time>2020-08-11T12:14:04.000Z</time>
      </trkpt>
      <trkpt lat="42.24351726472377777099609375" lon="1.42959737218916416168212890625">
        <ele>989.79998779296875</ele>
        <time>2020-08-11T12:14:11.000Z</time>
      </trkpt>
      <trkpt lat="42.243457920849323272705078125" lon="1.42956434749066829681396484375">
        <ele>990.20001220703125</ele>
        <time>2020-08-11T12:14:14.000Z</time>
      </trkpt>
      <trkpt lat="42.2433370538055896759033203125" lon="1.42950902692973613739013671875">
        <ele>990.5999755859375</ele>
        <time>2020-08-11T12:14:20.000Z</time>
      </trkpt>
      <trkpt lat="42.2432545758783817291259765625" lon="1.42947616986930370330810546875">
        <ele>991.20001220703125</ele>
        <time>2020-08-11T12:14:24.000Z</time>
      </trkpt>
      <trkpt lat="42.24319078959524631500244140625" lon="1.4294670335948467254638671875">
        <ele>991.79998779296875</ele>
        <time>2020-08-11T12:14:27.000Z</time>
      </trkpt>
      <trkpt lat="42.24310009740293025970458984375" lon="1.42946795560419559478759765625">
        <ele>992.4000244140625</ele>
        <time>2020-08-11T12:14:31.000Z</time>
      </trkpt>
      <trkpt lat="42.2430537454783916473388671875" lon="1.429446078836917877197265625">
        <ele>992.5999755859375</ele>
        <time>2020-08-11T12:14:35.000Z</time>
      </trkpt>
      <trkpt lat="42.243018038570880889892578125" lon="1.4294576458632946014404296875">
        <ele>992.79998779296875</ele>
        <time>2020-08-11T12:15:22.000Z</time>
      </trkpt>
      <trkpt lat="42.2429766319692134857177734375" lon="1.4294609986245632171630859375">
        <ele>992.79998779296875</ele>
        <time>2020-08-11T12:15:24.000Z</time>
      </trkpt>
      <trkpt lat="42.24279499612748622894287109375" lon="1.429438702762126922607421875">
        <ele>993.4000244140625</ele>
        <time>2020-08-11T12:15:31.000Z</time>
      </trkpt>
      <trkpt lat="42.24268116988241672515869140625" lon="1.42940592952072620391845703125">
        <ele>993.5999755859375</ele>
        <time>2020-08-11T12:15:35.000Z</time>
      </trkpt>
      <trkpt lat="42.2425964288413524627685546875" lon="1.429384388029575347900390625">
        <ele>993.5999755859375</ele>
        <time>2020-08-11T12:15:38.000Z</time>
      </trkpt>
      <trkpt lat="42.2423873841762542724609375" lon="1.4293329231441020965576171875">
        <ele>994.20001220703125</ele>
        <time>2020-08-11T12:15:45.000Z</time>
      </trkpt>
      <trkpt lat="42.242271713912487030029296875" lon="1.42930467613041400909423828125">
        <ele>994.5999755859375</ele>
        <time>2020-08-11T12:15:49.000Z</time>
      </trkpt>
      <trkpt lat="42.24216409027576446533203125" lon="1.4292769320309162139892578125">
        <ele>995.20001220703125</ele>
        <time>2020-08-11T12:15:53.000Z</time>
      </trkpt>
      <trkpt lat="42.24202461540699005126953125" lon="1.42924181185662746429443359375">
        <ele>995.79998779296875</ele>
        <time>2020-08-11T12:15:58.000Z</time>
      </trkpt>
      <trkpt lat="42.24189142696559429168701171875" lon="1.4292082004249095916748046875">
        <ele>996.5999755859375</ele>
        <time>2020-08-11T12:16:03.000Z</time>
      </trkpt>
      <trkpt lat="42.24183820188045501708984375" lon="1.42919118516147136688232421875">
        <ele>997</ele>
        <time>2020-08-11T12:16:05.000Z</time>
      </trkpt>
      <trkpt lat="42.24170853383839130401611328125" lon="1.42914810217916965484619140625">
        <ele>997.4000244140625</ele>
        <time>2020-08-11T12:16:10.000Z</time>
      </trkpt>
      <trkpt lat="42.24163745529949665069580078125" lon="1.42911574803292751312255859375">
        <ele>997.5999755859375</ele>
        <time>2020-08-11T12:16:13.000Z</time>
      </trkpt>
      <trkpt lat="42.24158984608948230743408203125" lon="1.42908741720020771026611328125">
        <ele>998</ele>
        <time>2020-08-11T12:16:15.000Z</time>
      </trkpt>
      <trkpt lat="42.24147685803472995758056640625" lon="1.4290016703307628631591796875">
        <ele>998.5999755859375</ele>
        <time>2020-08-11T12:16:20.000Z</time>
      </trkpt>
      <trkpt lat="42.2414055280387401580810546875" lon="1.42896235920488834381103515625">
        <ele>999.20001220703125</ele>
        <time>2020-08-11T12:16:23.000Z</time>
      </trkpt>
      <trkpt lat="42.24132112227380275726318359375" lon="1.4289245568215847015380859375">
        <ele>999.79998779296875</ele>
        <time>2020-08-11T12:16:27.000Z</time>
      </trkpt>
      <trkpt lat="42.241151891648769378662109375" lon="1.42884920351207256317138671875">
        <ele>1000</ele>
        <time>2020-08-11T12:16:35.000Z</time>
      </trkpt>
      <trkpt lat="42.24096355028450489044189453125" lon="1.42870721407234668731689453125">
        <ele>1001</ele>
        <time>2020-08-11T12:16:44.000Z</time>
      </trkpt>
      <trkpt lat="42.240948379039764404296875" lon="1.4286818169057369232177734375">
        <ele>1001.20001220703125</ele>
        <time>2020-08-11T12:16:45.000Z</time>
      </trkpt>
      <trkpt lat="42.2409203834831714630126953125" lon="1.4285592734813690185546875">
        <ele>1001.79998779296875</ele>
        <time>2020-08-11T12:16:49.000Z</time>
      </trkpt>
      <trkpt lat="42.24092901684343814849853515625" lon="1.42849397845566272735595703125">
        <ele>1002.20001220703125</ele>
        <time>2020-08-11T12:16:51.000Z</time>
      </trkpt>
      <trkpt lat="42.240974195301532745361328125" lon="1.42837998457252979278564453125">
        <ele>1003</ele>
        <time>2020-08-11T12:16:55.000Z</time>
      </trkpt>
      <trkpt lat="42.2410424239933490753173828125" lon="1.42830370925366878509521484375">
        <ele>1003.20001220703125</ele>
        <time>2020-08-11T12:16:59.000Z</time>
      </trkpt>
      <trkpt lat="42.24109648726880550384521484375" lon="1.4282630570232868194580078125">
        <ele>1003.5999755859375</ele>
        <time>2020-08-11T12:17:02.000Z</time>
      </trkpt>
      <trkpt lat="42.24119623191654682159423828125" lon="1.42821519635617733001708984375">
        <ele>1004</ele>
        <time>2020-08-11T12:17:07.000Z</time>
      </trkpt>
      <trkpt lat="42.24125155247747898101806640625" lon="1.4281864464282989501953125">
        <ele>1004.4000244140625</ele>
        <time>2020-08-11T12:17:10.000Z</time>
      </trkpt>
      <trkpt lat="42.241384573280811309814453125" lon="1.42812651582062244415283203125">
        <ele>1005.20001220703125</ele>
        <time>2020-08-11T12:17:17.000Z</time>
      </trkpt>
      <trkpt lat="42.2414031811058521270751953125" lon="1.42811545170843601226806640625">
        <ele>1005.4000244140625</ele>
        <time>2020-08-11T12:17:18.000Z</time>
      </trkpt>
      <trkpt lat="42.2415000759065151214599609375" lon="1.42806264571845531463623046875">
        <ele>1006.4000244140625</ele>
        <time>2020-08-11T12:17:23.000Z</time>
      </trkpt>
      <trkpt lat="42.24164298735558986663818359375" lon="1.4279941655695438385009765625">
        <ele>1007.4000244140625</ele>
        <time>2020-08-11T12:17:30.000Z</time>
      </trkpt>
      <trkpt lat="42.24166243337094783782958984375" lon="1.42798234708607196807861328125">
        <ele>1007.79998779296875</ele>
        <time>2020-08-11T12:17:31.000Z</time>
      </trkpt>
      <trkpt lat="42.24180601537227630615234375" lon="1.42791579477488994598388671875">
        <ele>1008.79998779296875</ele>
        <time>2020-08-11T12:17:38.000Z</time>
      </trkpt>
      <trkpt lat="42.241945154964923858642578125" lon="1.42784111201763153076171875">
        <ele>1010</ele>
        <time>2020-08-11T12:17:45.000Z</time>
      </trkpt>
      <trkpt lat="42.241965942084789276123046875" lon="1.42783197574317455291748046875">
        <ele>1010.20001220703125</ele>
        <time>2020-08-11T12:17:46.000Z</time>
      </trkpt>
      <trkpt lat="42.2420881502330303192138671875" lon="1.4277732186019420623779296875">
        <ele>1011</ele>
        <time>2020-08-11T12:17:52.000Z</time>
      </trkpt>
      <trkpt lat="42.2421481646597385406494140625" lon="1.427744217216968536376953125">
        <ele>1011.4000244140625</ele>
        <time>2020-08-11T12:17:55.000Z</time>
      </trkpt>
      <trkpt lat="42.24218848161399364471435546875" lon="1.42772736959159374237060546875">
        <ele>1012</ele>
        <time>2020-08-11T12:17:57.000Z</time>
      </trkpt>
      <trkpt lat="42.2423557005822658538818359375" lon="1.42764321528375148773193359375">
        <ele>1012.79998779296875</ele>
        <time>2020-08-11T12:18:05.000Z</time>
      </trkpt>
      <trkpt lat="42.2423972748219966888427734375" lon="1.427618153393268585205078125">
        <ele>1013</ele>
        <time>2020-08-11T12:18:07.000Z</time>
      </trkpt>
      <trkpt lat="42.2425243444740772247314453125" lon="1.42751782201230525970458984375">
        <ele>1013.79998779296875</ele>
        <time>2020-08-11T12:18:13.000Z</time>
      </trkpt>
      <trkpt lat="42.24254873581230640411376953125" lon="1.42745713703334331512451171875">
        <ele>1014.20001220703125</ele>
        <time>2020-08-11T12:18:15.000Z</time>
      </trkpt>
      <trkpt lat="42.242547310888767242431640625" lon="1.4273879863321781158447265625">
        <ele>1014.4000244140625</ele>
        <time>2020-08-11T12:18:17.000Z</time>
      </trkpt>
      <trkpt lat="42.24247581325471401214599609375" lon="1.42726569436490535736083984375">
        <ele>1015</ele>
        <time>2020-08-11T12:18:22.000Z</time>
      </trkpt>
      <trkpt lat="42.2423712909221649169921875" lon="1.4271941967308521270751953125">
        <ele>1015.20001220703125</ele>
        <time>2020-08-11T12:18:27.000Z</time>
      </trkpt>
      <trkpt lat="42.24235142581164836883544921875" lon="1.42717869020998477935791015625">
        <ele>1015.4000244140625</ele>
        <time>2020-08-11T12:18:28.000Z</time>
      </trkpt>
      <trkpt lat="42.24226039834320545196533203125" lon="1.4270952902734279632568359375">
        <ele>1016</ele>
        <time>2020-08-11T12:18:33.000Z</time>
      </trkpt>
      <trkpt lat="42.24217322655022144317626953125" lon="1.42701339907944202423095703125">
        <ele>1016.5999755859375</ele>
        <time>2020-08-11T12:18:38.000Z</time>
      </trkpt>
      <trkpt lat="42.24210717715322971343994140625" lon="1.426934190094470977783203125">
        <ele>1017.20001220703125</ele>
        <time>2020-08-11T12:18:42.000Z</time>
      </trkpt>
      <trkpt lat="42.24205973558127880096435546875" lon="1.4268696494400501251220703125">
        <ele>1017.4000244140625</ele>
        <time>2020-08-11T12:18:45.000Z</time>
      </trkpt>
      <trkpt lat="42.241990081965923309326171875" lon="1.426787339150905609130859375">
        <ele>1018.20001220703125</ele>
        <time>2020-08-11T12:18:49.000Z</time>
      </trkpt>
      <trkpt lat="42.241943813860416412353515625" lon="1.426721625030040740966796875">
        <ele>1018.79998779296875</ele>
        <time>2020-08-11T12:18:52.000Z</time>
      </trkpt>
      <trkpt lat="42.24187516607344150543212890625" lon="1.42661123536527156829833984375">
        <ele>1019.20001220703125</ele>
        <time>2020-08-11T12:18:57.000Z</time>
      </trkpt>
      <trkpt lat="42.24182420410215854644775390625" lon="1.426513753831386566162109375">
        <ele>1020.20001220703125</ele>
        <time>2020-08-11T12:19:01.000Z</time>
      </trkpt>
      <trkpt lat="42.24181112833321094512939453125" lon="1.42649003304541110992431640625">
        <ele>1020.4000244140625</ele>
        <time>2020-08-11T12:19:02.000Z</time>
      </trkpt>
      <trkpt lat="42.241699732840061187744140625" lon="1.42633547075092792510986328125">
        <ele>1021.5999755859375</ele>
        <time>2020-08-11T12:19:09.000Z</time>
      </trkpt>
      <trkpt lat="42.24160644225776195526123046875" lon="1.42616095952689647674560546875">
        <ele>1022.4000244140625</ele>
        <time>2020-08-11T12:19:16.000Z</time>
      </trkpt>
      <trkpt lat="42.2415926121175289154052734375" lon="1.4261045493185520172119140625">
        <ele>1022.5999755859375</ele>
        <time>2020-08-11T12:19:18.000Z</time>
      </trkpt>
      <trkpt lat="42.241575010120868682861328125" lon="1.42595493234694004058837890625">
        <ele>1023.20001220703125</ele>
        <time>2020-08-11T12:19:23.000Z</time>
      </trkpt>
      <trkpt lat="42.24158934317529201507568359375" lon="1.42589525319635868072509765625">
        <ele>1023.5999755859375</ele>
        <time>2020-08-11T12:19:25.000Z</time>
      </trkpt>
      <trkpt lat="42.24163837730884552001953125" lon="1.42578192986547946929931640625">
        <ele>1024.199951171875</ele>
        <time>2020-08-11T12:19:29.000Z</time>
      </trkpt>
      <trkpt lat="42.24166511557996273040771484375" lon="1.425727196037769317626953125">
        <ele>1024.5999755859375</ele>
        <time>2020-08-11T12:19:31.000Z</time>
      </trkpt>
      <trkpt lat="42.241772823035717010498046875" lon="1.4255855418741703033447265625">
        <ele>1025.199951171875</ele>
        <time>2020-08-11T12:19:37.000Z</time>
      </trkpt>
      <trkpt lat="42.241813726723194122314453125" lon="1.42554505728185176849365234375">
        <ele>1025.5999755859375</ele>
        <time>2020-08-11T12:19:39.000Z</time>
      </trkpt>
      <trkpt lat="42.24191791377961635589599609375" lon="1.42548101954162120819091796875">
        <ele>1026.800048828125</ele>
        <time>2020-08-11T12:19:44.000Z</time>
      </trkpt>
      <trkpt lat="42.242031991481781005859375" lon="1.42542687244713306427001953125">
        <ele>1027.5999755859375</ele>
        <time>2020-08-11T12:19:50.000Z</time>
      </trkpt>
      <trkpt lat="42.24205143749713897705078125" lon="1.4254182390868663787841796875">
        <ele>1027.800048828125</ele>
        <time>2020-08-11T12:19:51.000Z</time>
      </trkpt>
      <trkpt lat="42.2421634197235107421875" lon="1.425387226045131683349609375">
        <ele>1028.5999755859375</ele>
        <time>2020-08-11T12:19:57.000Z</time>
      </trkpt>
      <trkpt lat="42.24220273084938526153564453125" lon="1.425373815000057220458984375">
        <ele>1028.5999755859375</ele>
        <time>2020-08-11T12:19:59.000Z</time>
      </trkpt>
      <trkpt lat="42.242327369749546051025390625" lon="1.4253521896898746490478515625">
        <ele>1029.800048828125</ele>
        <time>2020-08-11T12:20:05.000Z</time>
      </trkpt>
      <trkpt lat="42.24244580604135990142822265625" lon="1.42535042949020862579345703125">
        <ele>1030.5999755859375</ele>
        <time>2020-08-11T12:20:11.000Z</time>
      </trkpt>
      <trkpt lat="42.24246910773217678070068359375" lon="1.425350345671176910400390625">
        <ele>1030.800048828125</ele>
        <time>2020-08-11T12:20:12.000Z</time>
      </trkpt>
      <trkpt lat="42.242551334202289581298828125" lon="1.42533282749354839324951171875">
        <ele>1031.800048828125</ele>
        <time>2020-08-11T12:20:16.000Z</time>
      </trkpt>
      <trkpt lat="42.24257304333150386810302734375" lon="1.4253303967416286468505859375">
        <ele>1032</ele>
        <time>2020-08-11T12:20:17.000Z</time>
      </trkpt>
      <trkpt lat="42.242686450481414794921875" lon="1.425310783088207244873046875">
        <ele>1032.800048828125</ele>
        <time>2020-08-11T12:20:23.000Z</time>
      </trkpt>
      <trkpt lat="42.24270815961062908172607421875" lon="1.425304077565670013427734375">
        <ele>1033</ele>
        <time>2020-08-11T12:20:24.000Z</time>
      </trkpt>
      <trkpt lat="42.24278259091079235076904296875" lon="1.4252975396811962127685546875">
        <ele>1033.800048828125</ele>
        <time>2020-08-11T12:20:28.000Z</time>
      </trkpt>
      <trkpt lat="42.24279784597456455230712890625" lon="1.42529703676700592041015625">
        <ele>1034.199951171875</ele>
        <time>2020-08-11T12:20:29.000Z</time>
      </trkpt>
      <trkpt lat="42.24287495948374271392822265625" lon="1.42529326491057872772216796875">
        <ele>1034.4000244140625</ele>
        <time>2020-08-11T12:20:33.000Z</time>
      </trkpt>
      <trkpt lat="42.24297638051211833953857421875" lon="1.42528085969388484954833984375">
        <ele>1035.199951171875</ele>
        <time>2020-08-11T12:20:38.000Z</time>
      </trkpt>
      <trkpt lat="42.2430145181715488433837890625" lon="1.42527515999972820281982421875">
        <ele>1035.5999755859375</ele>
        <time>2020-08-11T12:20:40.000Z</time>
      </trkpt>
      <trkpt lat="42.243113927543163299560546875" lon="1.4252703823149204254150390625">
        <ele>1036</ele>
        <time>2020-08-11T12:20:45.000Z</time>
      </trkpt>
      <trkpt lat="42.24324426613748073577880859375" lon="1.4252512715756893157958984375">
        <ele>1037</ele>
        <time>2020-08-11T12:20:52.000Z</time>
      </trkpt>
      <trkpt lat="42.24326471798121929168701171875" lon="1.4252455718815326690673828125">
        <ele>1037.199951171875</ele>
        <time>2020-08-11T12:20:53.000Z</time>
      </trkpt>
      <trkpt lat="42.24333127029240131378173828125" lon="1.42523341812193393707275390625">
        <ele>1037.800048828125</ele>
        <time>2020-08-11T12:20:57.000Z</time>
      </trkpt>
      <trkpt lat="42.24336915649473667144775390625" lon="1.425228975713253021240234375">
        <ele>1038.199951171875</ele>
        <time>2020-08-11T12:20:59.000Z</time>
      </trkpt>
      <trkpt lat="42.24344543181359767913818359375" lon="1.42522889189422130584716796875">
        <ele>1038.4000244140625</ele>
        <time>2020-08-11T12:21:03.000Z</time>
      </trkpt>
      <trkpt lat="42.24353260360658168792724609375" lon="1.425221599638462066650390625">
        <ele>1039</ele>
        <time>2020-08-11T12:21:07.000Z</time>
      </trkpt>
      <trkpt lat="42.24357484839856624603271484375" lon="1.4252227731049060821533203125">
        <ele>1039.4000244140625</ele>
        <time>2020-08-11T12:21:09.000Z</time>
      </trkpt>
      <trkpt lat="42.24368532188236713409423828125" lon="1.4252080209553241729736328125">
        <ele>1040.199951171875</ele>
        <time>2020-08-11T12:21:14.000Z</time>
      </trkpt>
      <trkpt lat="42.243705689907073974609375" lon="1.42520659603178501129150390625">
        <ele>1040.4000244140625</ele>
        <time>2020-08-11T12:21:15.000Z</time>
      </trkpt>
      <trkpt lat="42.2437910176813602447509765625" lon="1.4251929335296154022216796875">
        <ele>1041.199951171875</ele>
        <time>2020-08-11T12:21:19.000Z</time>
      </trkpt>
      <trkpt lat="42.24385580979287624359130859375" lon="1.42518061213195323944091796875">
        <ele>1041.800048828125</ele>
        <time>2020-08-11T12:21:22.000Z</time>
      </trkpt>
      <trkpt lat="42.2439278103411197662353515625" lon="1.42516703344881534576416015625">
        <ele>1042</ele>
        <time>2020-08-11T12:21:25.000Z</time>
      </trkpt>
      <trkpt lat="42.24404700100421905517578125" lon="1.42513836733996868133544921875">
        <ele>1042.800048828125</ele>
        <time>2020-08-11T12:21:30.000Z</time>
      </trkpt>
      <trkpt lat="42.24406837485730648040771484375" lon="1.42513451166450977325439453125">
        <ele>1043</ele>
        <time>2020-08-11T12:21:31.000Z</time>
      </trkpt>
      <trkpt lat="42.2441755793988704681396484375" lon="1.42509193159639835357666015625">
        <ele>1043.800048828125</ele>
        <time>2020-08-11T12:21:36.000Z</time>
      </trkpt>
      <trkpt lat="42.2442144714295864105224609375" lon="1.4250697195529937744140625">
        <ele>1043.800048828125</ele>
        <time>2020-08-11T12:21:38.000Z</time>
      </trkpt>
      <trkpt lat="42.24432804621756076812744140625" lon="1.42502957023680210113525390625">
        <ele>1044.800048828125</ele>
        <time>2020-08-11T12:21:43.000Z</time>
      </trkpt>
      <trkpt lat="42.244374565780162811279296875" lon="1.42502152360975742340087890625">
        <ele>1045</ele>
        <time>2020-08-11T12:21:45.000Z</time>
      </trkpt>
      <trkpt lat="42.24450959824025630950927734375" lon="1.42499537207186222076416015625">
        <ele>1045.800048828125</ele>
        <time>2020-08-11T12:21:50.000Z</time>
      </trkpt>
      <trkpt lat="42.24455662071704864501953125" lon="1.42497441731393337249755859375">
        <ele>1046.199951171875</ele>
        <time>2020-08-11T12:21:52.000Z</time>
      </trkpt>
      <trkpt lat="42.2446919046342372894287109375" lon="1.42487995326519012451171875">
        <ele>1046.800048828125</ele>
        <time>2020-08-11T12:21:58.000Z</time>
      </trkpt>
      <trkpt lat="42.24471076391637325286865234375" lon="1.42485690303146839141845703125">
        <ele>1047</ele>
        <time>2020-08-11T12:21:59.000Z</time>
      </trkpt>
      <trkpt lat="42.24478670395910739898681640625" lon="1.42471692524850368499755859375">
        <ele>1047.5999755859375</ele>
        <time>2020-08-11T12:22:04.000Z</time>
      </trkpt>
      <trkpt lat="42.2447918169200420379638671875" lon="1.42456085421144962310791015625">
        <ele>1047.800048828125</ele>
        <time>2020-08-11T12:22:09.000Z</time>
      </trkpt>
      <trkpt lat="42.24477278999984264373779296875" lon="1.42450737766921520233154296875">
        <ele>1048</ele>
        <time>2020-08-11T12:22:11.000Z</time>
      </trkpt>
      <trkpt lat="42.2447207383811473846435546875" lon="1.42441098578274250030517578125">
        <ele>1048.800048828125</ele>
        <time>2020-08-11T12:22:15.000Z</time>
      </trkpt>
      <trkpt lat="42.2446791641414165496826171875" lon="1.42433688975870609283447265625">
        <ele>1049</ele>
        <time>2020-08-11T12:22:18.000Z</time>
      </trkpt>
      <trkpt lat="42.244585454463958740234375" lon="1.42419925890862941741943359375">
        <ele>1049.800048828125</ele>
        <time>2020-08-11T12:22:24.000Z</time>
      </trkpt>
      <trkpt lat="42.2445701994001865386962890625" lon="1.42417855560779571533203125">
        <ele>1050</ele>
        <time>2020-08-11T12:22:25.000Z</time>
      </trkpt>
      <trkpt lat="42.24447749555110931396484375" lon="1.42406187951564788818359375">
        <ele>1050.800048828125</ele>
        <time>2020-08-11T12:22:31.000Z</time>
      </trkpt>
      <trkpt lat="42.24443114362657070159912109375" lon="1.4240010268986225128173828125">
        <ele>1051</ele>
        <time>2020-08-11T12:22:34.000Z</time>
      </trkpt>
      <trkpt lat="42.2443743981420993804931640625" lon="1.42391175962984561920166015625">
        <ele>1051.4000244140625</ele>
        <time>2020-08-11T12:22:38.000Z</time>
      </trkpt>
      <trkpt lat="42.2443388588726520538330078125" lon="1.423808075487613677978515625">
        <ele>1052</ele>
        <time>2020-08-11T12:22:42.000Z</time>
      </trkpt>
      <trkpt lat="42.244326956570148468017578125" lon="1.42378351651132106781005859375">
        <ele>1052.199951171875</ele>
        <time>2020-08-11T12:22:43.000Z</time>
      </trkpt>
      <trkpt lat="42.24428345449268817901611328125" lon="1.42368410713970661163330078125">
        <ele>1053</ele>
        <time>2020-08-11T12:22:47.000Z</time>
      </trkpt>
      <trkpt lat="42.244258224964141845703125" lon="1.42356944270431995391845703125">
        <ele>1053.800048828125</ele>
        <time>2020-08-11T12:22:51.000Z</time>
      </trkpt>
      <trkpt lat="42.2442570514976978302001953125" lon="1.42354044131934642791748046875">
        <ele>1054.199951171875</ele>
        <time>2020-08-11T12:22:52.000Z</time>
      </trkpt>
      <trkpt lat="42.2442707978188991546630859375" lon="1.42339375801384449005126953125">
        <ele>1055.199951171875</ele>
        <time>2020-08-11T12:22:57.000Z</time>
      </trkpt>
      <trkpt lat="42.244280688464641571044921875" lon="1.42336718738079071044921875">
        <ele>1055.4000244140625</ele>
        <time>2020-08-11T12:22:58.000Z</time>
      </trkpt>
      <trkpt lat="42.2443837858736515045166015625" lon="1.4232107810676097869873046875">
        <ele>1056.4000244140625</ele>
        <time>2020-08-11T12:23:05.000Z</time>
      </trkpt>
      <trkpt lat="42.2444146312773227691650390625" lon="1.42316945828497409820556640625">
        <ele>1056.4000244140625</ele>
        <time>2020-08-11T12:23:07.000Z</time>
      </trkpt>
      <trkpt lat="42.24452711641788482666015625" lon="1.42307616770267486572265625">
        <ele>1057.4000244140625</ele>
        <time>2020-08-11T12:23:13.000Z</time>
      </trkpt>
      <trkpt lat="42.24454547278583049774169921875" lon="1.4230607450008392333984375">
        <ele>1057.5999755859375</ele>
        <time>2020-08-11T12:23:14.000Z</time>
      </trkpt>
      <trkpt lat="42.24463616497814655303955078125" lon="1.4229988865554332733154296875">
        <ele>1058.199951171875</ele>
        <time>2020-08-11T12:23:19.000Z</time>
      </trkpt>
      <trkpt lat="42.2446914017200469970703125" lon="1.42296359874308109283447265625">
        <ele>1058.4000244140625</ele>
        <time>2020-08-11T12:23:22.000Z</time>
      </trkpt>
      <trkpt lat="42.2447918169200420379638671875" lon="1.42291062511503696441650390625">
        <ele>1059.4000244140625</ele>
        <time>2020-08-11T12:23:27.000Z</time>
      </trkpt>
      <trkpt lat="42.24481218494474887847900390625" lon="1.4228993095457553863525390625">
        <ele>1059.5999755859375</ele>
        <time>2020-08-11T12:23:28.000Z</time>
      </trkpt>
      <trkpt lat="42.2448746301233768463134765625" lon="1.422877348959445953369140625">
        <ele>1060</ele>
        <time>2020-08-11T12:23:31.000Z</time>
      </trkpt>
      <trkpt lat="42.24491192959249019622802734375" lon="1.42286402173340320587158203125">
        <ele>1060.4000244140625</ele>
        <time>2020-08-11T12:23:33.000Z</time>
      </trkpt>
      <trkpt lat="42.2449872829020023345947265625" lon="1.42283585853874683380126953125">
        <ele>1061</ele>
        <time>2020-08-11T12:23:37.000Z</time>
      </trkpt>
      <trkpt lat="42.245028018951416015625" lon="1.422818005084991455078125">
        <ele>1061.5999755859375</ele>
        <time>2020-08-11T12:23:39.000Z</time>
      </trkpt>
      <trkpt lat="42.24511628039181232452392578125" lon="1.42276779748499393463134765625">
        <ele>1062.199951171875</ele>
        <time>2020-08-11T12:23:44.000Z</time>
      </trkpt>
      <trkpt lat="42.24516774527728557586669921875" lon="1.42271935008466243743896484375">
        <ele>1062.4000244140625</ele>
        <time>2020-08-11T12:23:47.000Z</time>
      </trkpt>
      <trkpt lat="42.24525374360382556915283203125" lon="1.4226223714649677276611328125">
        <ele>1063</ele>
        <time>2020-08-11T12:23:52.000Z</time>
      </trkpt>
      <trkpt lat="42.24530495703220367431640625" lon="1.42256696708500385284423828125">
        <ele>1063.4000244140625</ele>
        <time>2020-08-11T12:23:55.000Z</time>
      </trkpt>
      <trkpt lat="42.245393134653568267822265625" lon="1.42249102704226970672607421875">
        <ele>1064.4000244140625</ele>
        <time>2020-08-11T12:24:00.000Z</time>
      </trkpt>
      <trkpt lat="42.24546479992568492889404296875" lon="1.42238013446331024169921875">
        <ele>1065.4000244140625</ele>
        <time>2020-08-11T12:24:05.000Z</time>
      </trkpt>
      <trkpt lat="42.24547787569463253021240234375" lon="1.42235507257282733917236328125">
        <ele>1065.5999755859375</ele>
        <time>2020-08-11T12:24:06.000Z</time>
      </trkpt>
      <trkpt lat="42.2455505467951297760009765625" lon="1.422160528600215911865234375">
        <ele>1066.199951171875</ele>
        <time>2020-08-11T12:24:13.000Z</time>
      </trkpt>
      <trkpt lat="42.24555968306958675384521484375" lon="1.42213068902492523193359375">
        <ele>1066.5999755859375</ele>
        <time>2020-08-11T12:24:14.000Z</time>
      </trkpt>
      <trkpt lat="42.24562036804854869842529296875" lon="1.4219886995851993560791015625">
        <ele>1067.4000244140625</ele>
        <time>2020-08-11T12:24:19.000Z</time>
      </trkpt>
      <trkpt lat="42.2457079589366912841796875" lon="1.42185986973345279693603515625">
        <ele>1067.800048828125</ele>
        <time>2020-08-11T12:24:24.000Z</time>
      </trkpt>
      <trkpt lat="42.245760597288608551025390625" lon="1.4217999391257762908935546875">
        <ele>1068.4000244140625</ele>
        <time>2020-08-11T12:24:27.000Z</time>
      </trkpt>
      <trkpt lat="42.24583678878843784332275390625" lon="1.4217328839004039764404296875">
        <ele>1069</ele>
        <time>2020-08-11T12:24:31.000Z</time>
      </trkpt>
      <trkpt lat="42.24588431417942047119140625" lon="1.42168276011943817138671875">
        <ele>1069.4000244140625</ele>
        <time>2020-08-11T12:24:34.000Z</time>
      </trkpt>
      <trkpt lat="42.24592798389494419097900390625" lon="1.42163355834782123565673828125">
        <ele>1070</ele>
        <time>2020-08-11T12:27:42.000Z</time>
      </trkpt>
      <trkpt lat="42.24592932499945163726806640625" lon="1.4216339774429798126220703125">
        <ele>1070.199951171875</ele>
        <time>2020-08-11T12:27:43.000Z</time>
      </trkpt>
      <trkpt lat="42.24593804217875003814697265625" lon="1.421623416244983673095703125">
        <ele>1070.199951171875</ele>
        <time>2020-08-11T12:27:44.000Z</time>
      </trkpt>
      <trkpt lat="42.2459869086742401123046875" lon="1.42157203517854213714599609375">
        <ele>1070.5999755859375</ele>
        <time>2020-08-11T12:27:48.000Z</time>
      </trkpt>
      <trkpt lat="42.24601532332599163055419921875" lon="1.4215452969074249267578125">
        <ele>1070.800048828125</ele>
        <time>2020-08-11T12:27:50.000Z</time>
      </trkpt>
      <trkpt lat="42.24609344266355037689208984375" lon="1.421486623585224151611328125">
        <ele>1071.199951171875</ele>
        <time>2020-08-11T12:27:55.000Z</time>
      </trkpt>
      <trkpt lat="42.24612772464752197265625" lon="1.42146189697086811065673828125">
        <ele>1071.800048828125</ele>
        <time>2020-08-11T12:27:57.000Z</time>
      </trkpt>
      <trkpt lat="42.2461905889213085174560546875" lon="1.421404816210269927978515625">
        <ele>1072.199951171875</ele>
        <time>2020-08-11T12:28:01.000Z</time>
      </trkpt>
      <trkpt lat="42.24627197720110416412353515625" lon="1.42133801244199275970458984375">
        <ele>1072.800048828125</ele>
        <time>2020-08-11T12:28:06.000Z</time>
      </trkpt>
      <trkpt lat="42.2463055886328220367431640625" lon="1.4213087595999240875244140625">
        <ele>1073.4000244140625</ele>
        <time>2020-08-11T12:28:08.000Z</time>
      </trkpt>
      <trkpt lat="42.24638731218874454498291015625" lon="1.42122703604400157928466796875">
        <ele>1074</ele>
        <time>2020-08-11T12:28:13.000Z</time>
      </trkpt>
      <trkpt lat="42.24643592722713947296142578125" lon="1.4211724698543548583984375">
        <ele>1074.4000244140625</ele>
        <time>2020-08-11T12:28:16.000Z</time>
      </trkpt>
      <trkpt lat="42.2465168125927448272705078125" lon="1.42103576101362705230712890625">
        <ele>1075</ele>
        <time>2020-08-11T12:28:22.000Z</time>
      </trkpt>
      <trkpt lat="42.2465178184211254119873046875" lon="1.4209738187491893768310546875">
        <ele>1075.4000244140625</ele>
        <time>2020-08-11T12:28:24.000Z</time>
      </trkpt>
      <trkpt lat="42.24650315009057521820068359375" lon="1.42082420177757740020751953125">
        <ele>1075.5999755859375</ele>
        <time>2020-08-11T12:28:29.000Z</time>
      </trkpt>
      <trkpt lat="42.24641530774533748626708984375" lon="1.4206767641007900238037109375">
        <ele>1076</ele>
        <time>2020-08-11T12:28:35.000Z</time>
      </trkpt>
      <trkpt lat="42.24633182398974895477294921875" lon="1.42057542689144611358642578125">
        <ele>1076.4000244140625</ele>
        <time>2020-08-11T12:28:40.000Z</time>
      </trkpt>
      <trkpt lat="42.24628387950360774993896484375" lon="1.42051734030246734619140625">
        <ele>1077</ele>
        <time>2020-08-11T12:28:43.000Z</time>
      </trkpt>
      <trkpt lat="42.246246747672557830810546875" lon="1.42044617794454097747802734375">
        <ele>1077.4000244140625</ele>
        <time>2020-08-11T12:28:46.000Z</time>
      </trkpt>
      <trkpt lat="42.24622428417205810546875" lon="1.4203377999365329742431640625">
        <ele>1077.800048828125</ele>
        <time>2020-08-11T12:28:50.000Z</time>
      </trkpt>
      <trkpt lat="42.246231995522975921630859375" lon="1.4202234707772731781005859375">
        <ele>1078.4000244140625</ele>
        <time>2020-08-11T12:28:54.000Z</time>
      </trkpt>
      <trkpt lat="42.2462445683777332305908203125" lon="1.42014317214488983154296875">
        <ele>1079</ele>
        <time>2020-08-11T12:28:57.000Z</time>
      </trkpt>
      <trkpt lat="42.24627457559108734130859375" lon="1.4200397394597530364990234375">
        <ele>1079.5999755859375</ele>
        <time>2020-08-11T12:29:01.000Z</time>
      </trkpt>
      <trkpt lat="42.24630810320377349853515625" lon="1.4199130050837993621826171875">
        <ele>1080.4000244140625</ele>
        <time>2020-08-11T12:29:06.000Z</time>
      </trkpt>
      <trkpt lat="42.24632025696337223052978515625" lon="1.419860534369945526123046875">
        <ele>1080.800048828125</ele>
        <time>2020-08-11T12:29:08.000Z</time>
      </trkpt>
      <trkpt lat="42.2463592328131198883056640625" lon="1.419706642627716064453125">
        <ele>1082</ele>
        <time>2020-08-11T12:29:14.000Z</time>
      </trkpt>
      <trkpt lat="42.24638261832296848297119140625" lon="1.4195777289569377899169921875">
        <ele>1083</ele>
        <time>2020-08-11T12:29:19.000Z</time>
      </trkpt>
      <trkpt lat="42.24640742875635623931884765625" lon="1.41947739757597446441650390625">
        <ele>1083.4000244140625</ele>
        <time>2020-08-11T12:29:23.000Z</time>
      </trkpt>
      <trkpt lat="42.2464353404939174652099609375" lon="1.41929785721004009246826171875">
        <ele>1084</ele>
        <time>2020-08-11T12:29:30.000Z</time>
      </trkpt>
      <trkpt lat="42.24644883535802364349365234375" lon="1.41919727437198162078857421875">
        <ele>1084.5999755859375</ele>
        <time>2020-08-11T12:29:34.000Z</time>
      </trkpt>
      <trkpt lat="42.24645168520510196685791015625" lon="1.41914329491555690765380859375">
        <ele>1085</ele>
        <time>2020-08-11T12:29:36.000Z</time>
      </trkpt>
      <trkpt lat="42.24646861664950847625732421875" lon="1.419014967978000640869140625">
        <ele>1086</ele>
        <time>2020-08-11T12:29:41.000Z</time>
      </trkpt>
      <trkpt lat="42.2464852966368198394775390625" lon="1.4189381897449493408203125">
        <ele>1086.800048828125</ele>
        <time>2020-08-11T12:29:44.000Z</time>
      </trkpt>
      <trkpt lat="42.2464916668832302093505859375" lon="1.4189132116734981536865234375">
        <ele>1087</ele>
        <time>2020-08-11T12:29:45.000Z</time>
      </trkpt>
      <trkpt lat="42.246557213366031646728515625" lon="1.41872537322342395782470703125">
        <ele>1087.800048828125</ele>
        <time>2020-08-11T12:29:53.000Z</time>
      </trkpt>
      <trkpt lat="42.2465845383703708648681640625" lon="1.41868748702108860015869140625">
        <ele>1088.199951171875</ele>
        <time>2020-08-11T12:29:55.000Z</time>
      </trkpt>
      <trkpt lat="42.24668151699006557464599609375" lon="1.418584473431110382080078125">
        <ele>1089.199951171875</ele>
        <time>2020-08-11T12:30:01.000Z</time>
      </trkpt>
      <trkpt lat="42.24679970182478427886962890625" lon="1.4184642769396305084228515625">
        <ele>1090</ele>
        <time>2020-08-11T12:30:08.000Z</time>
      </trkpt>
      <trkpt lat="42.246845550835132598876953125" lon="1.418408453464508056640625">
        <ele>1090.4000244140625</ele>
        <time>2020-08-11T12:30:11.000Z</time>
      </trkpt>
      <trkpt lat="42.24690263159573078155517578125" lon="1.41828767023980617523193359375">
        <ele>1090.800048828125</ele>
        <time>2020-08-11T12:30:16.000Z</time>
      </trkpt>
      <trkpt lat="42.24692157469689846038818359375" lon="1.41811810433864593505859375">
        <ele>1091.199951171875</ele>
        <time>2020-08-11T12:30:22.000Z</time>
      </trkpt>
      <trkpt lat="42.246923334896564483642578125" lon="1.4180879294872283935546875">
        <ele>1091.4000244140625</ele>
        <time>2020-08-11T12:30:23.000Z</time>
      </trkpt>
      <trkpt lat="42.24691587500274181365966796875" lon="1.4178661443293094635009765625">
        <ele>1092.199951171875</ele>
        <time>2020-08-11T12:30:30.000Z</time>
      </trkpt>
      <trkpt lat="42.246909253299236297607421875" lon="1.4178373105823993682861328125">
        <ele>1092.4000244140625</ele>
        <time>2020-08-11T12:30:31.000Z</time>
      </trkpt>
      <trkpt lat="42.24682350642979145050048828125" lon="1.4176753722131252288818359375">
        <ele>1092.5999755859375</ele>
        <time>2020-08-11T12:30:37.000Z</time>
      </trkpt>
      <trkpt lat="42.2466921620070934295654296875" lon="1.417549811303615570068359375">
        <ele>1093.199951171875</ele>
        <time>2020-08-11T12:30:44.000Z</time>
      </trkpt>
      <trkpt lat="42.2466787509620189666748046875" lon="1.417525671422481536865234375">
        <ele>1093.5999755859375</ele>
        <time>2020-08-11T12:30:45.000Z</time>
      </trkpt>
      <trkpt lat="42.2465986199676990509033203125" lon="1.4173092506825923919677734375">
        <ele>1094.4000244140625</ele>
        <time>2020-08-11T12:30:53.000Z</time>
      </trkpt>
      <trkpt lat="42.24658730439841747283935546875" lon="1.41724948771297931671142578125">
        <ele>1094.5999755859375</ele>
        <time>2020-08-11T12:30:55.000Z</time>
      </trkpt>
      <trkpt lat="42.24657959304749965667724609375" lon="1.4171008765697479248046875">
        <ele>1095.199951171875</ele>
        <time>2020-08-11T12:31:00.000Z</time>
      </trkpt>
      <trkpt lat="42.24659551866352558135986328125" lon="1.41699484549462795257568359375">
        <ele>1095.4000244140625</ele>
        <time>2020-08-11T12:31:04.000Z</time>
      </trkpt>
      <trkpt lat="42.24661882035434246063232421875" lon="1.416951678693294525146484375">
        <ele>1095.5999755859375</ele>
        <time>2020-08-11T12:31:06.000Z</time>
      </trkpt>
      <trkpt lat="42.2466881386935710906982421875" lon="1.4169297181069850921630859375">
        <ele>1096.4000244140625</ele>
        <time>2020-08-11T12:31:10.000Z</time>
      </trkpt>
      <trkpt lat="42.24669978953897953033447265625" lon="1.4169498346745967864990234375">
        <ele>1096.5999755859375</ele>
        <time>2020-08-11T12:31:11.000Z</time>
      </trkpt>
      <trkpt lat="42.24670909345149993896484375" lon="1.4170594699680805206298828125">
        <ele>1097.4000244140625</ele>
        <time>2020-08-11T12:31:15.000Z</time>
      </trkpt>
      <trkpt lat="42.24670699797570705413818359375" lon="1.417086124420166015625">
        <ele>1097.5999755859375</ele>
        <time>2020-08-11T12:31:16.000Z</time>
      </trkpt>
      <trkpt lat="42.24671772681176662445068359375" lon="1.41730698756873607635498046875">
        <ele>1098.4000244140625</ele>
        <time>2020-08-11T12:31:24.000Z</time>
      </trkpt>
      <trkpt lat="42.24672543816268444061279296875" lon="1.41733355820178985595703125">
        <ele>1098.5999755859375</ele>
        <time>2020-08-11T12:31:25.000Z</time>
      </trkpt>
      <trkpt lat="42.2468205727636814117431640625" lon="1.41751687042415142059326171875">
        <ele>1099.5999755859375</ele>
        <time>2020-08-11T12:31:33.000Z</time>
      </trkpt>
      <trkpt lat="42.2468497417867183685302734375" lon="1.4175556786358356475830078125">
        <ele>1099.800048828125</ele>
        <time>2020-08-11T12:31:35.000Z</time>
      </trkpt>
      <trkpt lat="42.2469315491616725921630859375" lon="1.4176482148468494415283203125">
        <ele>1100.5999755859375</ele>
        <time>2020-08-11T12:31:40.000Z</time>
      </trkpt>
      <trkpt lat="42.2469744645059108734130859375" lon="1.41771845519542694091796875">
        <ele>1100.800048828125</ele>
        <time>2020-08-11T12:31:43.000Z</time>
      </trkpt>
      <trkpt lat="42.24700069986283779144287109375" lon="1.41783840022981166839599609375">
        <ele>1101.4000244140625</ele>
        <time>2020-08-11T12:31:47.000Z</time>
      </trkpt>
      <trkpt lat="42.24701846949756145477294921875" lon="1.4179586805403232574462890625">
        <ele>1102</ele>
        <time>2020-08-11T12:31:51.000Z</time>
      </trkpt>
      <trkpt lat="42.2470317967236042022705078125" lon="1.41804526560008525848388671875">
        <ele>1102.4000244140625</ele>
        <time>2020-08-11T12:31:54.000Z</time>
      </trkpt>
      <trkpt lat="42.2470544278621673583984375" lon="1.41819044016301631927490234375">
        <ele>1103</ele>
        <time>2020-08-11T12:31:59.000Z</time>
      </trkpt>
      <trkpt lat="42.247066833078861236572265625" lon="1.41827308572828769683837890625">
        <ele>1103.5999755859375</ele>
        <time>2020-08-11T12:32:02.000Z</time>
      </trkpt>
      <trkpt lat="42.24706850945949554443359375" lon="1.41832723282277584075927734375">
        <ele>1104</ele>
        <time>2020-08-11T12:32:04.000Z</time>
      </trkpt>
      <trkpt lat="42.24703975953161716461181640625" lon="1.418455727398395538330078125">
        <ele>1104.5999755859375</ele>
        <time>2020-08-11T12:32:09.000Z</time>
      </trkpt>
      <trkpt lat="42.2469650767743587493896484375" lon="1.41855019144713878631591796875">
        <ele>1105.199951171875</ele>
        <time>2020-08-11T12:32:14.000Z</time>
      </trkpt>
      <trkpt lat="42.24685393273830413818359375" lon="1.41869151033461093902587890625">
        <ele>1106.199951171875</ele>
        <time>2020-08-11T12:32:21.000Z</time>
      </trkpt>
      <trkpt lat="42.2467615641653537750244140625" lon="1.41884095966815948486328125">
        <ele>1106.5999755859375</ele>
        <time>2020-08-11T12:32:27.000Z</time>
      </trkpt>
      <trkpt lat="42.2467079199850559234619140625" lon="1.41912435181438922882080078125">
        <ele>1106.800048828125</ele>
        <time>2020-08-11T12:32:35.000Z</time>
      </trkpt>
      <trkpt lat="42.24668034352362155914306640625" lon="1.4193182252347469329833984375">
        <ele>1107</ele>
        <time>2020-08-11T12:32:40.000Z</time>
      </trkpt>
      <trkpt lat="42.24667145870625972747802734375" lon="1.41943096183240413665771484375">
        <ele>1107.4000244140625</ele>
        <time>2020-08-11T12:32:43.000Z</time>
      </trkpt>
      <trkpt lat="42.2466707043349742889404296875" lon="1.4196457900106906890869140625">
        <ele>1108</ele>
        <time>2020-08-11T12:32:49.000Z</time>
      </trkpt>
      <trkpt lat="42.24666944704949855804443359375" lon="1.4196811616420745849609375">
        <ele>1108.199951171875</ele>
        <time>2020-08-11T12:32:50.000Z</time>
      </trkpt>
      <trkpt lat="42.2466549463570117950439453125" lon="1.4199096523225307464599609375">
        <ele>1108.5999755859375</ele>
        <time>2020-08-11T12:32:56.000Z</time>
      </trkpt>
      <trkpt lat="42.24664614535868167877197265625" lon="1.42013805918395519256591796875">
        <ele>1109.199951171875</ele>
        <time>2020-08-11T12:33:02.000Z</time>
      </trkpt>
      <trkpt lat="42.2466522641479969024658203125" lon="1.42021148465573787689208984375">
        <ele>1109.5999755859375</ele>
        <time>2020-08-11T12:33:04.000Z</time>
      </trkpt>
      <trkpt lat="42.2467575408518314361572265625" lon="1.420460008084774017333984375">
        <ele>1109.800048828125</ele>
        <time>2020-08-11T12:33:12.000Z</time>
      </trkpt>
      <trkpt lat="42.24683322943747043609619140625" lon="1.42056964337825775146484375">
        <ele>1110.4000244140625</ele>
        <time>2020-08-11T12:33:16.000Z</time>
      </trkpt>
      <trkpt lat="42.2469310462474822998046875" lon="1.42075496725738048553466796875">
        <ele>1110.5999755859375</ele>
        <time>2020-08-11T12:33:22.000Z</time>
      </trkpt>
      <trkpt lat="42.24704177118837833404541015625" lon="1.4210123755037784576416015625">
        <ele>1111</ele>
        <time>2020-08-11T12:33:30.000Z</time>
      </trkpt>
      <trkpt lat="42.24703523330390453338623046875" lon="1.4212108589708805084228515625">
        <ele>1111.199951171875</ele>
        <time>2020-08-11T12:33:35.000Z</time>
      </trkpt>
      <trkpt lat="42.2469308786094188690185546875" lon="1.4213855378329753875732421875">
        <ele>1111.4000244140625</ele>
        <time>2020-08-11T12:33:41.000Z</time>
      </trkpt>
      <trkpt lat="42.24670683033764362335205078125" lon="1.42151503823697566986083984375">
        <ele>1112</ele>
        <time>2020-08-11T12:33:49.000Z</time>
      </trkpt>
      <trkpt lat="42.24655495025217533111572265625" lon="1.4216906391084194183349609375">
        <ele>1112.199951171875</ele>
        <time>2020-08-11T12:33:56.000Z</time>
      </trkpt>
      <trkpt lat="42.24650281481444835662841796875" lon="1.42180186696350574493408203125">
        <ele>1112.4000244140625</ele>
        <time>2020-08-11T12:34:00.000Z</time>
      </trkpt>
      <trkpt lat="42.24643886089324951171875" lon="1.4219350554049015045166015625">
        <ele>1112.800048828125</ele>
        <time>2020-08-11T12:34:05.000Z</time>
      </trkpt>
      <trkpt lat="42.2463461570441722869873046875" lon="1.4221345447003841400146484375">
        <ele>1113.4000244140625</ele>
        <time>2020-08-11T12:34:12.000Z</time>
      </trkpt>
      <trkpt lat="42.24627055227756500244140625" lon="1.42231064848601818084716796875">
        <ele>1114.4000244140625</ele>
        <time>2020-08-11T12:34:19.000Z</time>
      </trkpt>
      <trkpt lat="42.24621280096471309661865234375" lon="1.4224518835544586181640625">
        <ele>1115</ele>
        <time>2020-08-11T12:34:25.000Z</time>
      </trkpt>
      <trkpt lat="42.2461825422942638397216796875" lon="1.4225650392472743988037109375">
        <ele>1115.5999755859375</ele>
        <time>2020-08-11T12:34:29.000Z</time>
      </trkpt>
      <trkpt lat="42.2461607493460178375244140625" lon="1.422646343708038330078125">
        <ele>1116</ele>
        <time>2020-08-11T12:34:32.000Z</time>
      </trkpt>
      <trkpt lat="42.24614457227289676666259765625" lon="1.422782130539417266845703125">
        <ele>1116.5999755859375</ele>
        <time>2020-08-11T12:34:37.000Z</time>
      </trkpt>
      <trkpt lat="42.24613501690328121185302734375" lon="1.422855556011199951171875">
        <ele>1117</ele>
        <time>2020-08-11T12:34:40.000Z</time>
      </trkpt>
      <trkpt lat="42.24609545432031154632568359375" lon="1.422980614006519317626953125">
        <ele>1117.5999755859375</ele>
        <time>2020-08-11T12:34:45.000Z</time>
      </trkpt>
      <trkpt lat="42.24608371965587139129638671875" lon="1.4230052568018436431884765625">
        <ele>1117.5999755859375</ele>
        <time>2020-08-11T12:34:46.000Z</time>
      </trkpt>
      <trkpt lat="42.24598632194101810455322265625" lon="1.42318856902420520782470703125">
        <ele>1118.5999755859375</ele>
        <time>2020-08-11T12:34:54.000Z</time>
      </trkpt>
      <trkpt lat="42.24597089923918247222900390625" lon="1.42321170307695865631103515625">
        <ele>1118.5999755859375</ele>
        <time>2020-08-11T12:34:55.000Z</time>
      </trkpt>
      <trkpt lat="42.24591272883117198944091796875" lon="1.423322260379791259765625">
        <ele>1119</ele>
        <time>2020-08-11T12:35:00.000Z</time>
      </trkpt>
      <trkpt lat="42.24586344324052333831787109375" lon="1.423476822674274444580078125">
        <ele>1119.800048828125</ele>
        <time>2020-08-11T12:35:06.000Z</time>
      </trkpt>
      <trkpt lat="42.24583058618009090423583984375" lon="1.42357531003654003143310546875">
        <ele>1120.4000244140625</ele>
        <time>2020-08-11T12:35:11.000Z</time>
      </trkpt>
      <trkpt lat="42.24581985734403133392333984375" lon="1.42362979240715503692626953125">
        <ele>1120.800048828125</ele>
        <time>2020-08-11T12:35:14.000Z</time>
      </trkpt>
      <trkpt lat="42.245818935334682464599609375" lon="1.42366801388561725616455078125">
        <ele>1120.5999755859375</ele>
        <time>2020-08-11T12:35:16.000Z</time>
      </trkpt>
      <trkpt lat="42.245814241468906402587890625" lon="1.42370791174471378326416015625">
        <ele>1120.800048828125</ele>
        <time>2020-08-11T12:35:18.000Z</time>
      </trkpt>
      <trkpt lat="42.2458496131002902984619140625" lon="1.42378024756908416748046875">
        <ele>1121</ele>
        <time>2020-08-11T12:35:22.000Z</time>
      </trkpt>
      <trkpt lat="42.245862521231174468994140625" lon="1.4237991906702518463134765625">
        <ele>1121</ele>
        <time>2020-08-11T12:35:23.000Z</time>
      </trkpt>
      <trkpt lat="42.24593804217875003814697265625" lon="1.42395400442183017730712890625">
        <ele>1121.5999755859375</ele>
        <time>2020-08-11T12:35:30.000Z</time>
      </trkpt>
      <trkpt lat="42.245947681367397308349609375" lon="1.4239795692265033721923828125">
        <ele>1121.800048828125</ele>
        <time>2020-08-11T12:35:31.000Z</time>
      </trkpt>
      <trkpt lat="42.24603577516973018646240234375" lon="1.4241803996264934539794921875">
        <ele>1122.4000244140625</ele>
        <time>2020-08-11T12:35:39.000Z</time>
      </trkpt>
      <trkpt lat="42.2460903413593769073486328125" lon="1.4242712594568729400634765625">
        <ele>1122.800048828125</ele>
        <time>2020-08-11T12:35:43.000Z</time>
      </trkpt>
      <trkpt lat="42.24614071659743785858154296875" lon="1.4243627898395061492919921875">
        <ele>1123.4000244140625</ele>
        <time>2020-08-11T12:35:47.000Z</time>
      </trkpt>
      <trkpt lat="42.246197126805782318115234375" lon="1.42448541708290576934814453125">
        <ele>1123.5999755859375</ele>
        <time>2020-08-11T12:35:52.000Z</time>
      </trkpt>
      <trkpt lat="42.2462522797286510467529296875" lon="1.424577869474887847900390625">
        <ele>1124</ele>
        <time>2020-08-11T12:35:56.000Z</time>
      </trkpt>
      <trkpt lat="42.24636250175535678863525390625" lon="1.424738466739654541015625">
        <ele>1124.5999755859375</ele>
        <time>2020-08-11T12:36:04.000Z</time>
      </trkpt>
      <trkpt lat="42.24641748704016208648681640625" lon="1.4248251356184482574462890625">
        <ele>1125.5999755859375</ele>
        <time>2020-08-11T12:36:08.000Z</time>
      </trkpt>
      <trkpt lat="42.24650130607187747955322265625" lon="1.4249263890087604522705078125">
        <ele>1126.199951171875</ele>
        <time>2020-08-11T12:36:13.000Z</time>
      </trkpt>
      <trkpt lat="42.246594764292240142822265625" lon="1.42505236901342868804931640625">
        <ele>1126.5999755859375</ele>
        <time>2020-08-11T12:36:19.000Z</time>
      </trkpt>
      <trkpt lat="42.246619574725627899169921875" lon="1.42509964294731616973876953125">
        <ele>1127</ele>
        <time>2020-08-11T12:36:21.000Z</time>
      </trkpt>
      <trkpt lat="42.2467303834855556488037109375" lon="1.42523995600640773773193359375">
        <ele>1127.5999755859375</ele>
        <time>2020-08-11T12:36:28.000Z</time>
      </trkpt>
      <trkpt lat="42.246747650206089019775390625" lon="1.42525923438370227813720703125">
        <ele>1127.800048828125</ele>
        <time>2020-08-11T12:36:29.000Z</time>
      </trkpt>
      <trkpt lat="42.246814034879207611083984375" lon="1.4253873936831951141357421875">
        <ele>1128.800048828125</ele>
        <time>2020-08-11T12:36:34.000Z</time>
      </trkpt>
      <trkpt lat="42.2468323074281215667724609375" lon="1.4254477433860301971435546875">
        <ele>1129</ele>
        <time>2020-08-11T12:36:36.000Z</time>
      </trkpt>
      <trkpt lat="42.24684110842645168304443359375" lon="1.42566944472491741180419921875">
        <ele>1129.800048828125</ele>
        <time>2020-08-11T12:36:43.000Z</time>
      </trkpt>
      <trkpt lat="42.246747650206089019775390625" lon="1.4258098416030406951904296875">
        <ele>1130.800048828125</ele>
        <time>2020-08-11T12:36:49.000Z</time>
      </trkpt>
      <trkpt lat="42.246701382100582122802734375" lon="1.4258400164544582366943359375">
        <ele>1131</ele>
        <time>2020-08-11T12:36:51.000Z</time>
      </trkpt>
      <trkpt lat="42.24661496467888355255126953125" lon="1.4258824288845062255859375">
        <ele>1131.5999755859375</ele>
        <time>2020-08-11T12:36:55.000Z</time>
      </trkpt>
      <trkpt lat="42.24657154642045497894287109375" lon="1.42589877359569072723388671875">
        <ele>1132</ele>
        <time>2020-08-11T12:36:57.000Z</time>
      </trkpt>
      <trkpt lat="42.2464772500097751617431640625" lon="1.4259513281285762786865234375">
        <ele>1132.800048828125</ele>
        <time>2020-08-11T12:37:01.000Z</time>
      </trkpt>
      <trkpt lat="42.24645696580410003662109375" lon="1.42596398480236530303955078125">
        <ele>1133</ele>
        <time>2020-08-11T12:37:02.000Z</time>
      </trkpt>
      <trkpt lat="42.24636199884116649627685546875" lon="1.42603003419935703277587890625">
        <ele>1133.4000244140625</ele>
        <time>2020-08-11T12:37:07.000Z</time>
      </trkpt>
      <trkpt lat="42.24626661278307437896728515625" lon="1.426117122173309326171875">
        <ele>1134</ele>
        <time>2020-08-11T12:37:12.000Z</time>
      </trkpt>
      <trkpt lat="42.2462328337132930755615234375" lon="1.4261447824537754058837890625">
        <ele>1134.4000244140625</ele>
        <time>2020-08-11T12:37:14.000Z</time>
      </trkpt>
      <trkpt lat="42.2461416386067867279052734375" lon="1.4262259192764759063720703125">
        <ele>1135</ele>
        <time>2020-08-11T12:37:19.000Z</time>
      </trkpt>
      <trkpt lat="42.246122695505619049072265625" lon="1.4262410067021846771240234375">
        <ele>1135.199951171875</ele>
        <time>2020-08-11T12:37:20.000Z</time>
      </trkpt>
      <trkpt lat="42.24600643850862979888916015625" lon="1.426335386931896209716796875">
        <ele>1136.199951171875</ele>
        <time>2020-08-11T12:37:26.000Z</time>
      </trkpt>
      <trkpt lat="42.2459877468645572662353515625" lon="1.4263529889285564422607421875">
        <ele>1136.5999755859375</ele>
        <time>2020-08-11T12:37:27.000Z</time>
      </trkpt>
      <trkpt lat="42.24589345045387744903564453125" lon="1.4264200441539287567138671875">
        <ele>1137.199951171875</ele>
        <time>2020-08-11T12:37:32.000Z</time>
      </trkpt>
      <trkpt lat="42.2457721643149852752685546875" lon="1.4264891110360622406005859375">
        <ele>1138</ele>
        <time>2020-08-11T12:37:39.000Z</time>
      </trkpt>
      <trkpt lat="42.2457560710608959197998046875" lon="1.42649087123572826385498046875">
        <ele>1138.199951171875</ele>
        <time>2020-08-11T12:37:40.000Z</time>
      </trkpt>
      <trkpt lat="42.24566244520246982574462890625" lon="1.42653076909482479095458984375">
        <ele>1138.800048828125</ele>
        <time>2020-08-11T12:37:45.000Z</time>
      </trkpt>
      <trkpt lat="42.24558583460748195648193359375" lon="1.4265454374253749847412109375">
        <ele>1139.199951171875</ele>
        <time>2020-08-11T12:37:49.000Z</time>
      </trkpt>
      <trkpt lat="42.24554342217743396759033203125" lon="1.42655490897595882415771484375">
        <ele>1139.4000244140625</ele>
        <time>2020-08-11T12:37:51.000Z</time>
      </trkpt>
      <trkpt lat="42.2454003430902957916259765625" lon="1.426585502922534942626953125">
        <ele>1140.4000244140625</ele>
        <time>2020-08-11T12:37:57.000Z</time>
      </trkpt>
      <trkpt lat="42.24519507028162479400634765625" lon="1.42668105661869049072265625">
        <ele>1141.199951171875</ele>
        <time>2020-08-11T12:38:05.000Z</time>
      </trkpt>
      <trkpt lat="42.24517344497144222259521484375" lon="1.42670058645308017730712890625">
        <ele>1141.4000244140625</ele>
        <time>2020-08-11T12:38:06.000Z</time>
      </trkpt>
      <trkpt lat="42.2451016120612621307373046875" lon="1.4268438331782817840576171875">
        <ele>1142.4000244140625</ele>
        <time>2020-08-11T12:38:11.000Z</time>
      </trkpt>
      <trkpt lat="42.2451133467257022857666015625" lon="1.4270062744617462158203125">
        <ele>1143</ele>
        <time>2020-08-11T12:38:16.000Z</time>
      </trkpt>
      <trkpt lat="42.24516221322119235992431640625" lon="1.427068971097469329833984375">
        <ele>1143.5999755859375</ele>
        <time>2020-08-11T12:38:19.000Z</time>
      </trkpt>
      <trkpt lat="42.24522340111434459686279296875" lon="1.42710560001432895660400390625">
        <ele>1144</ele>
        <time>2020-08-11T12:38:22.000Z</time>
      </trkpt>
      <trkpt lat="42.24528886377811431884765625" lon="1.42711549066007137298583984375">
        <ele>1144.5999755859375</ele>
        <time>2020-08-11T12:38:25.000Z</time>
      </trkpt>
      <trkpt lat="42.2453681565821170806884765625" lon="1.42710425890982151031494140625">
        <ele>1145.199951171875</ele>
        <time>2020-08-11T12:38:29.000Z</time>
      </trkpt>
      <trkpt lat="42.24544652737677097320556640625" lon="1.42709252424538135528564453125">
        <ele>1145.800048828125</ele>
        <time>2020-08-11T12:38:33.000Z</time>
      </trkpt>
      <trkpt lat="42.24548776634037494659423828125" lon="1.42707559280097484588623046875">
        <ele>1146.199951171875</ele>
        <time>2020-08-11T12:38:35.000Z</time>
      </trkpt>
      <trkpt lat="42.24554878659546375274658203125" lon="1.4270518720149993896484375">
        <ele>1147</ele>
        <time>2020-08-11T12:38:38.000Z</time>
      </trkpt>
      <trkpt lat="42.24560678936541080474853515625" lon="1.42701909877359867095947265625">
        <ele>1147.199951171875</ele>
        <time>2020-08-11T12:38:41.000Z</time>
      </trkpt>
      <trkpt lat="42.24567635916173458099365234375" lon="1.42697098664939403533935546875">
        <ele>1147.800048828125</ele>
        <time>2020-08-11T12:38:45.000Z</time>
      </trkpt>
      <trkpt lat="42.24572162143886089324951171875" lon="1.42691616900265216827392578125">
        <ele>1148.199951171875</ele>
        <time>2020-08-11T12:38:48.000Z</time>
      </trkpt>
      <trkpt lat="42.24579068832099437713623046875" lon="1.42686654813587665557861328125">
        <ele>1149</ele>
        <time>2020-08-11T12:38:52.000Z</time>
      </trkpt>
      <trkpt lat="42.245842404663562774658203125" lon="1.4268300868570804595947265625">
        <ele>1149.800048828125</ele>
        <time>2020-08-11T12:38:55.000Z</time>
      </trkpt>
      <trkpt lat="42.24590149708092212677001953125" lon="1.426808126270771026611328125">
        <ele>1150.199951171875</ele>
        <time>2020-08-11T12:38:58.000Z</time>
      </trkpt>
      <trkpt lat="42.2459669597446918487548828125" lon="1.4267653785645961761474609375">
        <ele>1150.5999755859375</ele>
        <time>2020-08-11T12:39:02.000Z</time>
      </trkpt>
      <trkpt lat="42.24599721841514110565185546875" lon="1.426746435463428497314453125">
        <ele>1151.199951171875</ele>
        <time>2020-08-11T12:39:04.000Z</time>
      </trkpt>
      <trkpt lat="42.2460708953440189361572265625" lon="1.42671818844974040985107421875">
        <ele>1151.5999755859375</ele>
        <time>2020-08-11T12:39:08.000Z</time>
      </trkpt>
      <trkpt lat="42.24618564359843730926513671875" lon="1.42665968276560306549072265625">
        <ele>1152</ele>
        <time>2020-08-11T12:39:15.000Z</time>
      </trkpt>
      <trkpt lat="42.24620039574801921844482421875" lon="1.42665180377662181854248046875">
        <ele>1152.4000244140625</ele>
        <time>2020-08-11T12:39:16.000Z</time>
      </trkpt>
      <trkpt lat="42.24623425863683223724365234375" lon="1.4266393147408962249755859375">
        <ele>1153.199951171875</ele>
        <time>2020-08-11T12:39:18.000Z</time>
      </trkpt>
      <trkpt lat="42.24631036631762981414794921875" lon="1.42660050652921199798583984375">
        <ele>1154</ele>
        <time>2020-08-11T12:39:23.000Z</time>
      </trkpt>
      <trkpt lat="42.24639636464416980743408203125" lon="1.42655541189014911651611328125">
        <ele>1154.4000244140625</ele>
        <time>2020-08-11T12:39:28.000Z</time>
      </trkpt>
      <trkpt lat="42.2464866377413272857666015625" lon="1.42650126479566097259521484375">
        <ele>1155.199951171875</ele>
        <time>2020-08-11T12:39:33.000Z</time>
      </trkpt>
      <trkpt lat="42.24650650285184383392333984375" lon="1.42648869194090366363525390625">
        <ele>1155.4000244140625</ele>
        <time>2020-08-11T12:39:34.000Z</time>
      </trkpt>
      <trkpt lat="42.24664212204515933990478515625" lon="1.426414512097835540771484375">
        <ele>1156.199951171875</ele>
        <time>2020-08-11T12:39:41.000Z</time>
      </trkpt>
      <trkpt lat="42.2467220015823841094970703125" lon="1.42635676078498363494873046875">
        <ele>1157.199951171875</ele>
        <time>2020-08-11T12:39:46.000Z</time>
      </trkpt>
      <trkpt lat="42.24675695411860942840576171875" lon="1.4263389073312282562255859375">
        <ele>1157.4000244140625</ele>
        <time>2020-08-11T12:39:48.000Z</time>
      </trkpt>
      <trkpt lat="42.24678830243647098541259765625" lon="1.42631225287914276123046875">
        <ele>1157.5999755859375</ele>
        <time>2020-08-11T12:39:50.000Z</time>
      </trkpt>
      <trkpt lat="42.24684613756835460662841796875" lon="1.4262664876878261566162109375">
        <ele>1158.199951171875</ele>
        <time>2020-08-11T12:39:54.000Z</time>
      </trkpt>
      <trkpt lat="42.24696096964180469512939453125" lon="1.42619968391954898834228515625">
        <ele>1159.199951171875</ele>
        <time>2020-08-11T12:40:00.000Z</time>
      </trkpt>
      <trkpt lat="42.24710128270089626312255859375" lon="1.42612860538065433502197265625">
        <ele>1160.4000244140625</ele>
        <time>2020-08-11T12:40:07.000Z</time>
      </trkpt>
      <trkpt lat="42.2471213154494762420654296875" lon="1.4261189661920070648193359375">
        <ele>1160.4000244140625</ele>
        <time>2020-08-11T12:40:08.000Z</time>
      </trkpt>
      <trkpt lat="42.24725198931992053985595703125" lon="1.42608183436095714569091796875">
        <ele>1161.4000244140625</ele>
        <time>2020-08-11T12:40:14.000Z</time>
      </trkpt>
      <trkpt lat="42.2474016062915325164794921875" lon="1.4260321296751499176025390625">
        <ele>1162</ele>
        <time>2020-08-11T12:40:21.000Z</time>
      </trkpt>
      <trkpt lat="42.2474398277699947357177734375" lon="1.42600472085177898406982421875">
        <ele>1162.4000244140625</ele>
        <time>2020-08-11T12:40:23.000Z</time>
      </trkpt>
      <trkpt lat="42.24749690853059291839599609375" lon="1.42590531148016452789306640625">
        <ele>1162.800048828125</ele>
        <time>2020-08-11T12:40:27.000Z</time>
      </trkpt>
      <trkpt lat="42.247518785297870635986328125" lon="1.42575829289853572845458984375">
        <ele>1163.199951171875</ele>
        <time>2020-08-11T12:40:32.000Z</time>
      </trkpt>
      <trkpt lat="42.2475189529359340667724609375" lon="1.4257414452731609344482421875">
        <ele>1163.4000244140625</ele>
        <time>2020-08-11T12:40:33.000Z</time>
      </trkpt>
      <trkpt lat="42.2475278377532958984375" lon="1.4257173053920269012451171875">
        <ele>1163.4000244140625</ele>
        <time>2020-08-11T12:40:35.000Z</time>
      </trkpt>
      <trkpt lat="42.24752691574394702911376953125" lon="1.42568285576999187469482421875">
        <ele>1163.4000244140625</ele>
        <time>2020-08-11T12:40:38.000Z</time>
      </trkpt>
      <trkpt lat="42.247530519962310791015625" lon="1.42568738199770450592041015625">
        <ele>1163.5999755859375</ele>
        <time>2020-08-11T12:40:49.000Z</time>
      </trkpt>
      <trkpt lat="42.2475253231823444366455078125" lon="1.425677575170993804931640625">
        <ele>1163.5999755859375</ele>
        <time>2020-08-11T12:41:04.000Z</time>
      </trkpt>
      <trkpt lat="42.24751719273626804351806640625" lon="1.4256613142788410186767578125">
        <ele>1163.800048828125</ele>
        <time>2020-08-11T12:41:05.000Z</time>
      </trkpt>
      <trkpt lat="42.2474941425025463104248046875" lon="1.425586380064487457275390625">
        <ele>1164</ele>
        <time>2020-08-11T12:41:08.000Z</time>
      </trkpt>
      <trkpt lat="42.24747394211590290069580078125" lon="1.42553214915096759796142578125">
        <ele>1164</ele>
        <time>2020-08-11T12:41:10.000Z</time>
      </trkpt>
      <trkpt lat="42.2474353015422821044921875" lon="1.42544715665280818939208984375">
        <ele>1164</ele>
        <time>2020-08-11T12:41:13.000Z</time>
      </trkpt>
      <trkpt lat="42.24737201817333698272705078125" lon="1.42532947473227977752685546875">
        <ele>1164.4000244140625</ele>
        <time>2020-08-11T12:41:17.000Z</time>
      </trkpt>
      <trkpt lat="42.24726137705147266387939453125" lon="1.42509126104414463043212890625">
        <ele>1164.800048828125</ele>
        <time>2020-08-11T12:41:25.000Z</time>
      </trkpt>
      <trkpt lat="42.2472319565713405609130859375" lon="1.42503225244581699371337890625">
        <ele>1165</ele>
        <time>2020-08-11T12:41:27.000Z</time>
      </trkpt>
      <trkpt lat="42.2471488080918788909912109375" lon="1.42484148032963275909423828125">
        <ele>1165.800048828125</ele>
        <time>2020-08-11T12:41:33.000Z</time>
      </trkpt>
      <trkpt lat="42.2470646537840366363525390625" lon="1.4246528036892414093017578125">
        <ele>1166</ele>
        <time>2020-08-11T12:41:39.000Z</time>
      </trkpt>
      <trkpt lat="42.24705241620540618896484375" lon="1.42461986280977725982666015625">
        <ele>1166</ele>
        <time>2020-08-11T12:41:40.000Z</time>
      </trkpt>
      <trkpt lat="42.246934063732624053955078125" lon="1.42437972128391265869140625">
        <ele>1167</ele>
        <time>2020-08-11T12:41:48.000Z</time>
      </trkpt>
      <trkpt lat="42.2468554414808750152587890625" lon="1.42422012984752655029296875">
        <ele>1168</ele>
        <time>2020-08-11T12:41:54.000Z</time>
      </trkpt>
      <trkpt lat="42.24682367406785488128662109375" lon="1.4241663180291652679443359375">
        <ele>1167.800048828125</ele>
        <time>2020-08-11T12:41:56.000Z</time>
      </trkpt>
      <trkpt lat="42.246728204190731048583984375" lon="1.42394612543284893035888671875">
        <ele>1168.199951171875</ele>
        <time>2020-08-11T12:42:03.000Z</time>
      </trkpt>
      <trkpt lat="42.2467112727463245391845703125" lon="1.42371830530464649200439453125">
        <ele>1169</ele>
        <time>2020-08-11T12:42:09.000Z</time>
      </trkpt>
      <trkpt lat="42.24678779952228069305419921875" lon="1.42347154207527637481689453125">
        <ele>1169</ele>
        <time>2020-08-11T12:42:16.000Z</time>
      </trkpt>
      <trkpt lat="42.24686876870691776275634765625" lon="1.4231879822909832000732421875">
        <ele>1169.4000244140625</ele>
        <time>2020-08-11T12:42:24.000Z</time>
      </trkpt>
      <trkpt lat="42.246944122016429901123046875" lon="1.42289872281253337860107421875">
        <ele>1169.5999755859375</ele>
        <time>2020-08-11T12:42:32.000Z</time>
      </trkpt>
      <trkpt lat="42.24695677869021892547607421875" lon="1.42286201007664203643798828125">
        <ele>1169.5999755859375</ele>
        <time>2020-08-11T12:42:33.000Z</time>
      </trkpt>
      <trkpt lat="42.24700086750090122222900390625" lon="1.42275656573474407196044921875">
        <ele>1169.800048828125</ele>
        <time>2020-08-11T12:42:36.000Z</time>
      </trkpt>
      <trkpt lat="42.24710069596767425537109375" lon="1.4226113073527812957763671875">
        <ele>1170.4000244140625</ele>
        <time>2020-08-11T12:42:41.000Z</time>
      </trkpt>
      <trkpt lat="42.24732357077300548553466796875" lon="1.4223642088472843170166015625">
        <ele>1170.5999755859375</ele>
        <time>2020-08-11T12:42:51.000Z</time>
      </trkpt>
      <trkpt lat="42.24746815860271453857421875" lon="1.4222267456352710723876953125">
        <ele>1170.800048828125</ele>
        <time>2020-08-11T12:42:57.000Z</time>
      </trkpt>
      <trkpt lat="42.24748953245580196380615234375" lon="1.42220579087734222412109375">
        <ele>1170.800048828125</ele>
        <time>2020-08-11T12:42:58.000Z</time>
      </trkpt>
      <trkpt lat="42.24765054881572723388671875" lon="1.4221047051250934600830078125">
        <ele>1171</ele>
        <time>2020-08-11T12:43:04.000Z</time>
      </trkpt>
      <trkpt lat="42.24781743250787258148193359375" lon="1.4220185391604900360107421875">
        <ele>1171</ele>
        <time>2020-08-11T12:43:10.000Z</time>
      </trkpt>
      <trkpt lat="42.24789203144609928131103515625" lon="1.421931870281696319580078125">
        <ele>1170.800048828125</ele>
        <time>2020-08-11T12:43:13.000Z</time>
      </trkpt>
      <trkpt lat="42.2479051910340785980224609375" lon="1.42188929021358489990234375">
        <ele>1170.800048828125</ele>
        <time>2020-08-11T12:43:14.000Z</time>
      </trkpt>
      <trkpt lat="42.24799982272088527679443359375" lon="1.42162509262561798095703125">
        <ele>1171.199951171875</ele>
        <time>2020-08-11T12:43:21.000Z</time>
      </trkpt>
      <trkpt lat="42.24806989543139934539794921875" lon="1.421358548104763031005859375">
        <ele>1171.4000244140625</ele>
        <time>2020-08-11T12:43:28.000Z</time>
      </trkpt>
      <trkpt lat="42.24804441444575786590576171875" lon="1.42115780152380466461181640625">
        <ele>1171.4000244140625</ele>
        <time>2020-08-11T12:43:34.000Z</time>
      </trkpt>
      <trkpt lat="42.2480201907455921173095703125" lon="1.42110080458223819732666015625">
        <ele>1171.5999755859375</ele>
        <time>2020-08-11T12:43:36.000Z</time>
      </trkpt>
      <trkpt lat="42.24797182716429233551025390625" lon="1.42098429612815380096435546875">
        <ele>1172.199951171875</ele>
        <time>2020-08-11T12:43:40.000Z</time>
      </trkpt>
      <trkpt lat="42.2479368746280670166015625" lon="1.42089092172682285308837890625">
        <ele>1172.800048828125</ele>
        <time>2020-08-11T12:43:43.000Z</time>
      </trkpt>
      <trkpt lat="42.24788281135261058807373046875" lon="1.42073870636522769927978515625">
        <ele>1173.5999755859375</ele>
        <time>2020-08-11T12:43:48.000Z</time>
      </trkpt>
      <trkpt lat="42.24785716272890567779541015625" lon="1.420683301985263824462890625">
        <ele>1173.800048828125</ele>
        <time>2020-08-11T12:43:50.000Z</time>
      </trkpt>
      <trkpt lat="42.24780033342540264129638671875" lon="1.4205379597842693328857421875">
        <ele>1174.4000244140625</ele>
        <time>2020-08-11T12:43:55.000Z</time>
      </trkpt>
      <trkpt lat="42.24777661263942718505859375" lon="1.42047953791916370391845703125">
        <ele>1174.800048828125</ele>
        <time>2020-08-11T12:43:57.000Z</time>
      </trkpt>
      <trkpt lat="42.2477321885526180267333984375" lon="1.42035850323736667633056640625">
        <ele>1175.800048828125</ele>
        <time>2020-08-11T12:44:01.000Z</time>
      </trkpt>
      <trkpt lat="42.247685082256793975830078125" lon="1.420244760811328887939453125">
        <ele>1176.199951171875</ele>
        <time>2020-08-11T12:44:05.000Z</time>
      </trkpt>
      <trkpt lat="42.2476225532591342926025390625" lon="1.42006932757794857025146484375">
        <ele>1177</ele>
        <time>2020-08-11T12:44:11.000Z</time>
      </trkpt>
      <trkpt lat="42.24760302342474460601806640625" lon="1.4200110733509063720703125">
        <ele>1177.4000244140625</ele>
        <time>2020-08-11T12:44:13.000Z</time>
      </trkpt>
      <trkpt lat="42.24755692295730113983154296875" lon="1.41986212693154811859130859375">
        <ele>1178.199951171875</ele>
        <time>2020-08-11T12:44:18.000Z</time>
      </trkpt>
      <trkpt lat="42.247542925179004669189453125" lon="1.41976187936961650848388671875">
        <ele>1178.4000244140625</ele>
        <time>2020-08-11T12:44:21.000Z</time>
      </trkpt>
      <trkpt lat="42.2475876845419406890869140625" lon="1.41956775449216365814208984375">
        <ele>1179</ele>
        <time>2020-08-11T12:44:27.000Z</time>
      </trkpt>
      <trkpt lat="42.2476192004978656768798828125" lon="1.419517211616039276123046875">
        <ele>1179.199951171875</ele>
        <time>2020-08-11T12:44:29.000Z</time>
      </trkpt>
      <trkpt lat="42.2477169334888458251953125" lon="1.41941838897764682769775390625">
        <ele>1179.4000244140625</ele>
        <time>2020-08-11T12:44:34.000Z</time>
      </trkpt>
      <trkpt lat="42.24784878082573413848876953125" lon="1.4193158783018589019775390625">
        <ele>1180.199951171875</ele>
        <time>2020-08-11T12:44:40.000Z</time>
      </trkpt>
      <trkpt lat="42.24789270199835300445556640625" lon="1.41928461380302906036376953125">
        <ele>1180.5999755859375</ele>
        <time>2020-08-11T12:44:42.000Z</time>
      </trkpt>
      <trkpt lat="42.2480768524110317230224609375" lon="1.4192095957696437835693359375">
        <ele>1181.199951171875</ele>
        <time>2020-08-11T12:44:50.000Z</time>
      </trkpt>
      <trkpt lat="42.2481023333966732025146484375" lon="1.4192045666277408599853515625">
        <ele>1181.4000244140625</ele>
        <time>2020-08-11T12:44:51.000Z</time>
      </trkpt>
      <trkpt lat="42.2482345998287200927734375" lon="1.41913558356463909149169921875">
        <ele>1182</ele>
        <time>2020-08-11T12:44:57.000Z</time>
      </trkpt>
      <trkpt lat="42.24827055819332599639892578125" lon="1.4190466515719890594482421875">
        <ele>1182.199951171875</ele>
        <time>2020-08-11T12:45:00.000Z</time>
      </trkpt>
      <trkpt lat="42.2482733242213726043701171875" lon="1.4189735613763332366943359375">
        <ele>1182.4000244140625</ele>
        <time>2020-08-11T12:45:02.000Z</time>
      </trkpt>
      <trkpt lat="42.24829268641769886016845703125" lon="1.41872604377567768096923828125">
        <ele>1183.4000244140625</ele>
        <time>2020-08-11T12:45:09.000Z</time>
      </trkpt>
      <trkpt lat="42.2483048401772975921630859375" lon="1.4186584018170833587646484375">
        <ele>1183.5999755859375</ele>
        <time>2020-08-11T12:45:11.000Z</time>
      </trkpt>
      <trkpt lat="42.24830978550016880035400390625" lon="1.41837668605148792266845703125">
        <ele>1184.4000244140625</ele>
        <time>2020-08-11T12:45:19.000Z</time>
      </trkpt>
      <trkpt lat="42.2482495196163654327392578125" lon="1.41814836300909519195556640625">
        <ele>1185.199951171875</ele>
        <time>2020-08-11T12:45:26.000Z</time>
      </trkpt>
      <trkpt lat="42.2482391260564327239990234375" lon="1.41811785288155078887939453125">
        <ele>1185.4000244140625</ele>
        <time>2020-08-11T12:45:27.000Z</time>
      </trkpt>
      <trkpt lat="42.24817802198231220245361328125" lon="1.4178145118057727813720703125">
        <ele>1186.4000244140625</ele>
        <time>2020-08-11T12:45:36.000Z</time>
      </trkpt>
      <trkpt lat="42.24816829897463321685791015625" lon="1.4175030402839183807373046875">
        <ele>1187.4000244140625</ele>
        <time>2020-08-11T12:45:45.000Z</time>
      </trkpt>
      <trkpt lat="42.24816477857530117034912109375" lon="1.4174683392047882080078125">
        <ele>1187.4000244140625</ele>
        <time>2020-08-11T12:45:46.000Z</time>
      </trkpt>
      <trkpt lat="42.24816955626010894775390625" lon="1.41722987405955791473388671875">
        <ele>1188.199951171875</ele>
        <time>2020-08-11T12:45:53.000Z</time>
      </trkpt>
      <trkpt lat="42.2481744177639484405517578125" lon="1.4171992801129817962646484375">
        <ele>1188.4000244140625</ele>
        <time>2020-08-11T12:45:54.000Z</time>
      </trkpt>
      <trkpt lat="42.24824842996895313262939453125" lon="1.41696986742317676544189453125">
        <ele>1189.5999755859375</ele>
        <time>2020-08-11T12:46:02.000Z</time>
      </trkpt>
      <trkpt lat="42.24825899116694927215576171875" lon="1.4169427938759326934814453125">
        <ele>1189.800048828125</ele>
        <time>2020-08-11T12:46:03.000Z</time>
      </trkpt>
      <trkpt lat="42.2483544610440731048583984375" lon="1.4167372696101665496826171875">
        <ele>1190.5999755859375</ele>
        <time>2020-08-11T12:46:11.000Z</time>
      </trkpt>
      <trkpt lat="42.2483685426414012908935546875" lon="1.4167141355574131011962890625">
        <ele>1190.5999755859375</ele>
        <time>2020-08-11T12:46:12.000Z</time>
      </trkpt>
      <trkpt lat="42.24842377938330173492431640625" lon="1.4166175760328769683837890625">
        <ele>1191.199951171875</ele>
        <time>2020-08-11T12:46:16.000Z</time>
      </trkpt>
      <trkpt lat="42.24847943522036075592041015625" lon="1.41651690937578678131103515625">
        <ele>1191.5999755859375</ele>
        <time>2020-08-11T12:46:20.000Z</time>
      </trkpt>
      <trkpt lat="42.24850617349147796630859375" lon="1.41646594740450382232666015625">
        <ele>1191.800048828125</ele>
        <time>2020-08-11T12:46:22.000Z</time>
      </trkpt>
      <trkpt lat="42.2485834546387195587158203125" lon="1.416315995156764984130859375">
        <ele>1192.800048828125</ele>
        <time>2020-08-11T12:46:28.000Z</time>
      </trkpt>
      <trkpt lat="42.24859711714088916778564453125" lon="1.416291855275630950927734375">
        <ele>1192.800048828125</ele>
        <time>2020-08-11T12:46:29.000Z</time>
      </trkpt>
      <trkpt lat="42.24864958785474300384521484375" lon="1.4161954633891582489013671875">
        <ele>1193.800048828125</ele>
        <time>2020-08-11T12:46:33.000Z</time>
      </trkpt>
      <trkpt lat="42.2487125359475612640380859375" lon="1.4160720817744731903076171875">
        <ele>1194.800048828125</ele>
        <time>2020-08-11T12:46:38.000Z</time>
      </trkpt>
      <trkpt lat="42.24872351624071598052978515625" lon="1.416045762598514556884765625">
        <ele>1194.800048828125</ele>
        <time>2020-08-11T12:46:39.000Z</time>
      </trkpt>
      <trkpt lat="42.2487983666360378265380859375" lon="1.41586898826062679290771484375">
        <ele>1195.4000244140625</ele>
        <time>2020-08-11T12:46:46.000Z</time>
      </trkpt>
      <trkpt lat="42.248819656670093536376953125" lon="1.41582204960286617279052734375">
        <ele>1195.800048828125</ele>
        <time>2020-08-11T12:46:48.000Z</time>
      </trkpt>
      <trkpt lat="42.2488919086754322052001953125" lon="1.4156935550272464752197265625">
        <ele>1196</ele>
        <time>2020-08-11T12:46:54.000Z</time>
      </trkpt>
      <trkpt lat="42.2489770688116550445556640625" lon="1.4155735261738300323486328125">
        <ele>1196.800048828125</ele>
        <time>2020-08-11T12:47:00.000Z</time>
      </trkpt>
      <trkpt lat="42.2490119375288486480712890625" lon="1.41554226167500019073486328125">
        <ele>1197</ele>
        <time>2020-08-11T12:47:02.000Z</time>
      </trkpt>
      <trkpt lat="42.249126434326171875" lon="1.4154608733952045440673828125">
        <ele>1197.800048828125</ele>
        <time>2020-08-11T12:47:09.000Z</time>
      </trkpt>
      <trkpt lat="42.2492576949298381805419921875" lon="1.41541083343327045440673828125">
        <ele>1199</ele>
        <time>2020-08-11T12:47:17.000Z</time>
      </trkpt>
      <trkpt lat="42.24938996136188507080078125" lon="1.4153545908629894256591796875">
        <ele>1199.800048828125</ele>
        <time>2020-08-11T12:47:24.000Z</time>
      </trkpt>
      <trkpt lat="42.2494082339107990264892578125" lon="1.41534411348402500152587890625">
        <ele>1200</ele>
        <time>2020-08-11T12:47:25.000Z</time>
      </trkpt>
      <trkpt lat="42.24942742846906185150146484375" lon="1.41533263027667999267578125">
        <ele>1200</ele>
        <time>2020-08-11T12:47:26.000Z</time>
      </trkpt>
      <trkpt lat="42.2494890354573726654052734375" lon="1.41530270688235759735107421875">
        <ele>1201</ele>
        <time>2020-08-11T12:47:29.000Z</time>
      </trkpt>
      <trkpt lat="42.24952717311680316925048828125" lon="1.415287367999553680419921875">
        <ele>1201.199951171875</ele>
        <time>2020-08-11T12:47:31.000Z</time>
      </trkpt>
      <trkpt lat="42.24962172098457813262939453125" lon="1.4152633957564830780029296875">
        <ele>1202</ele>
        <time>2020-08-11T12:47:36.000Z</time>
      </trkpt>
      <trkpt lat="42.24966145120561122894287109375" lon="1.41525727696716785430908203125">
        <ele>1202.4000244140625</ele>
        <time>2020-08-11T12:47:38.000Z</time>
      </trkpt>
      <trkpt lat="42.24973596632480621337890625" lon="1.41520832665264606475830078125">
        <ele>1202.800048828125</ele>
        <time>2020-08-11T12:47:42.000Z</time>
      </trkpt>
      <trkpt lat="42.2497753612697124481201171875" lon="1.41517982818186283111572265625">
        <ele>1203.4000244140625</ele>
        <time>2020-08-11T12:47:44.000Z</time>
      </trkpt>
      <trkpt lat="42.24984937347471714019775390625" lon="1.41509667970240116119384765625">
        <ele>1204</ele>
        <time>2020-08-11T12:47:48.000Z</time>
      </trkpt>
      <trkpt lat="42.249891869723796844482421875" lon="1.41502191312611103057861328125">
        <ele>1204.5999755859375</ele>
        <time>2020-08-11T12:47:51.000Z</time>
      </trkpt>
      <trkpt lat="42.25000695325434207916259765625" lon="1.41484069637954235076904296875">
        <ele>1205.4000244140625</ele>
        <time>2020-08-11T12:47:59.000Z</time>
      </trkpt>
      <trkpt lat="42.25002237595617771148681640625" lon="1.4148198254406452178955078125">
        <ele>1205.199951171875</ele>
        <time>2020-08-11T12:48:00.000Z</time>
      </trkpt>
      <trkpt lat="42.25011876784265041351318359375" lon="1.41471312381327152252197265625">
        <ele>1206.199951171875</ele>
        <time>2020-08-11T12:48:06.000Z</time>
      </trkpt>
      <trkpt lat="42.25015782751142978668212890625" lon="1.41468160785734653472900390625">
        <ele>1206.4000244140625</ele>
        <time>2020-08-11T12:48:08.000Z</time>
      </trkpt>
      <trkpt lat="42.250248603522777557373046875" lon="1.4146032370626926422119140625">
        <ele>1207.199951171875</ele>
        <time>2020-08-11T12:48:13.000Z</time>
      </trkpt>
      <trkpt lat="42.2503387928009033203125" lon="1.414531655609607696533203125">
        <ele>1208</ele>
        <time>2020-08-11T12:48:18.000Z</time>
      </trkpt>
      <trkpt lat="42.2504184208810329437255859375" lon="1.41450508497655391693115234375">
        <ele>1208.199951171875</ele>
        <time>2020-08-11T12:48:22.000Z</time>
      </trkpt>
      <trkpt lat="42.25048103369772434234619140625" lon="1.4144949428737163543701171875">
        <ele>1208.800048828125</ele>
        <time>2020-08-11T12:48:25.000Z</time>
      </trkpt>
      <trkpt lat="42.250542975962162017822265625" lon="1.4144912548363208770751953125">
        <ele>1209.199951171875</ele>
        <time>2020-08-11T12:48:28.000Z</time>
      </trkpt>
      <trkpt lat="42.25061497651040554046630859375" lon="1.4144768379628658294677734375">
        <ele>1209.5999755859375</ele>
        <time>2020-08-11T12:48:32.000Z</time>
      </trkpt>
      <trkpt lat="42.2506889887154102325439453125" lon="1.4144560508430004119873046875">
        <ele>1210.4000244140625</ele>
        <time>2020-08-11T12:48:36.000Z</time>
      </trkpt>
      <trkpt lat="42.2507245279848575592041015625" lon="1.414447166025638580322265625">
        <ele>1211</ele>
        <time>2020-08-11T12:48:38.000Z</time>
      </trkpt>
      <trkpt lat="42.25077775306999683380126953125" lon="1.4144402928650379180908203125">
        <ele>1211.199951171875</ele>
        <time>2020-08-11T12:48:41.000Z</time>
      </trkpt>
      <trkpt lat="42.25083039142191410064697265625" lon="1.41442243941128253936767578125">
        <ele>1211.800048828125</ele>
        <time>2020-08-11T12:48:44.000Z</time>
      </trkpt>
      <trkpt lat="42.25087330676615238189697265625" lon="1.4144044183194637298583984375">
        <ele>1212.199951171875</ele>
        <time>2020-08-11T12:48:47.000Z</time>
      </trkpt>
      <trkpt lat="42.2509018890559673309326171875" lon="1.41435102559626102447509765625">
        <ele>1212.5999755859375</ele>
        <time>2020-08-11T12:48:50.000Z</time>
      </trkpt>
      <trkpt lat="42.25092192180454730987548828125" lon="1.41424323432147502899169921875">
        <ele>1213.4000244140625</ele>
        <time>2020-08-11T12:48:54.000Z</time>
      </trkpt>
      <trkpt lat="42.2509194910526275634765625" lon="1.41417668201029300689697265625">
        <ele>1213.800048828125</ele>
        <time>2020-08-11T12:48:57.000Z</time>
      </trkpt>
      <trkpt lat="42.25089141167700290679931640625" lon="1.41412404365837574005126953125">
        <ele>1214.199951171875</ele>
        <time>2020-08-11T12:49:00.000Z</time>
      </trkpt>
      <trkpt lat="42.2508428804576396942138671875" lon="1.41404944472014904022216796875">
        <ele>1215</ele>
        <time>2020-08-11T12:49:05.000Z</time>
      </trkpt>
      <trkpt lat="42.25083164870738983154296875" lon="1.41403846442699432373046875">
        <ele>1215.199951171875</ele>
        <time>2020-08-11T12:49:06.000Z</time>
      </trkpt>
      <trkpt lat="42.25075646303594112396240234375" lon="1.413910053670406341552734375">
        <ele>1216.4000244140625</ele>
        <time>2020-08-11T12:49:13.000Z</time>
      </trkpt>
      <trkpt lat="42.2506980411708354949951171875" lon="1.4137063734233379364013671875">
        <ele>1217.199951171875</ele>
        <time>2020-08-11T12:49:21.000Z</time>
      </trkpt>
      <trkpt lat="42.250686474144458770751953125" lon="1.413655914366245269775390625">
        <ele>1217.4000244140625</ele>
        <time>2020-08-11T12:49:23.000Z</time>
      </trkpt>
      <trkpt lat="42.25064230151474475860595703125" lon="1.41351132653653621673583984375">
        <ele>1218.4000244140625</ele>
        <time>2020-08-11T12:49:29.000Z</time>
      </trkpt>
      <trkpt lat="42.25062989629805088043212890625" lon="1.41346036456525325775146484375">
        <ele>1218.800048828125</ele>
        <time>2020-08-11T12:49:31.000Z</time>
      </trkpt>
      <trkpt lat="42.2506034933030605316162109375" lon="1.4133865199983119964599609375">
        <ele>1219.4000244140625</ele>
        <time>2020-08-11T12:49:34.000Z</time>
      </trkpt>
      <trkpt lat="42.25056133233010768890380859375" lon="1.4133027009665966033935546875">
        <ele>1219.800048828125</ele>
        <time>2020-08-11T12:49:38.000Z</time>
      </trkpt>
      <trkpt lat="42.25052730180323123931884765625" lon="1.413194574415683746337890625">
        <ele>1220.5999755859375</ele>
        <time>2020-08-11T12:49:42.000Z</time>
      </trkpt>
      <trkpt lat="42.2505032457411289215087890625" lon="1.41313179396092891693115234375">
        <ele>1220.800048828125</ele>
        <time>2020-08-11T12:49:45.000Z</time>
      </trkpt>
      <trkpt lat="42.25049771368503570556640625" lon="1.41306255944073200225830078125">
        <ele>1221.4000244140625</ele>
        <time>2020-08-11T12:49:48.000Z</time>
      </trkpt>
      <trkpt lat="42.2505300678312778472900390625" lon="1.4129017107188701629638671875">
        <ele>1221.800048828125</ele>
        <time>2020-08-11T12:49:54.000Z</time>
      </trkpt>
      <trkpt lat="42.25057994015514850616455078125" lon="1.41280137933790683746337890625">
        <ele>1222.4000244140625</ele>
        <time>2020-08-11T12:49:58.000Z</time>
      </trkpt>
      <trkpt lat="42.25062914192676544189453125" lon="1.41270582564175128936767578125">
        <ele>1223.199951171875</ele>
        <time>2020-08-11T12:50:02.000Z</time>
      </trkpt>
      <trkpt lat="42.25065906532108783721923828125" lon="1.41266249120235443115234375">
        <ele>1223.5999755859375</ele>
        <time>2020-08-11T12:50:04.000Z</time>
      </trkpt>
      <trkpt lat="42.2507516853511333465576171875" lon="1.4125218428671360015869140625">
        <ele>1224.4000244140625</ele>
        <time>2020-08-11T12:50:10.000Z</time>
      </trkpt>
      <trkpt lat="42.2507667727768421173095703125" lon="1.41249778680503368377685546875">
        <ele>1224.5999755859375</ele>
        <time>2020-08-11T12:50:11.000Z</time>
      </trkpt>
      <trkpt lat="42.25086919963359832763671875" lon="1.412329562008380889892578125">
        <ele>1225.5999755859375</ele>
        <time>2020-08-11T12:50:19.000Z</time>
      </trkpt>
      <trkpt lat="42.25095846690237522125244140625" lon="1.41217893920838832855224609375">
        <ele>1226.5999755859375</ele>
        <time>2020-08-11T12:50:26.000Z</time>
      </trkpt>
      <trkpt lat="42.25097238086163997650146484375" lon="1.41215848736464977264404296875">
        <ele>1226.800048828125</ele>
        <time>2020-08-11T12:50:27.000Z</time>
      </trkpt>
      <trkpt lat="42.2510618157684803009033203125" lon="1.41201096586883068084716796875">
        <ele>1227.5999755859375</ele>
        <time>2020-08-11T12:50:34.000Z</time>
      </trkpt>
      <trkpt lat="42.25114923901855945587158203125" lon="1.41186377964913845062255859375">
        <ele>1228.5999755859375</ele>
        <time>2020-08-11T12:50:41.000Z</time>
      </trkpt>
      <trkpt lat="42.25121763534843921661376953125" lon="1.41170469112694263458251953125">
        <ele>1229.5999755859375</ele>
        <time>2020-08-11T12:50:48.000Z</time>
      </trkpt>
      <trkpt lat="42.2512388415634632110595703125" lon="1.41166596673429012298583984375">
        <ele>1229.800048828125</ele>
        <time>2020-08-11T12:50:50.000Z</time>
      </trkpt>
      <trkpt lat="42.25129324011504650115966796875" lon="1.4115542359650135040283203125">
        <ele>1230.800048828125</ele>
        <time>2020-08-11T12:50:55.000Z</time>
      </trkpt>
      <trkpt lat="42.25131285376846790313720703125" lon="1.41150511801242828369140625">
        <ele>1231.199951171875</ele>
        <time>2020-08-11T12:50:57.000Z</time>
      </trkpt>
      <trkpt lat="42.25134286098182201385498046875" lon="1.4114365540444850921630859375">
        <ele>1232</ele>
        <time>2020-08-11T12:51:00.000Z</time>
      </trkpt>
      <trkpt lat="42.251387201249599456787109375" lon="1.41134996898472309112548828125">
        <ele>1232.5999755859375</ele>
        <time>2020-08-11T12:51:04.000Z</time>
      </trkpt>
      <trkpt lat="42.25141880102455615997314453125" lon="1.41128073446452617645263671875">
        <ele>1233</ele>
        <time>2020-08-11T12:51:07.000Z</time>
      </trkpt>
      <trkpt lat="42.251484431326389312744140625" lon="1.4111773855984210968017578125">
        <ele>1233.4000244140625</ele>
        <time>2020-08-11T12:51:12.000Z</time>
      </trkpt>
      <trkpt lat="42.251538746058940887451171875" lon="1.41109130345284938812255859375">
        <ele>1234</ele>
        <time>2020-08-11T12:51:16.000Z</time>
      </trkpt>
      <trkpt lat="42.2515902109444141387939453125" lon="1.4110097475349903106689453125">
        <ele>1234.800048828125</ele>
        <time>2020-08-11T12:51:20.000Z</time>
      </trkpt>
      <trkpt lat="42.2516160272061824798583984375" lon="1.41097010113298892974853515625">
        <ele>1235</ele>
        <time>2020-08-11T12:51:22.000Z</time>
      </trkpt>
      <trkpt lat="42.251680232584476470947265625" lon="1.41087345778942108154296875">
        <ele>1235.5999755859375</ele>
        <time>2020-08-11T12:51:27.000Z</time>
      </trkpt>
      <trkpt lat="42.251707054674625396728515625" lon="1.41083858907222747802734375">
        <ele>1236</ele>
        <time>2020-08-11T12:51:29.000Z</time>
      </trkpt>
      <trkpt lat="42.25176614709198474884033203125" lon="1.4107485674321651458740234375">
        <ele>1236.800048828125</ele>
        <time>2020-08-11T12:51:34.000Z</time>
      </trkpt>
      <trkpt lat="42.25177846848964691162109375" lon="1.41072803176939487457275390625">
        <ele>1237</ele>
        <time>2020-08-11T12:51:35.000Z</time>
      </trkpt>
      <trkpt lat="42.251876704394817352294921875" lon="1.41061336733400821685791015625">
        <ele>1237.800048828125</ele>
        <time>2020-08-11T12:51:42.000Z</time>
      </trkpt>
      <trkpt lat="42.2518889419734477996826171875" lon="1.41059450805187225341796875">
        <ele>1238</ele>
        <time>2020-08-11T12:51:43.000Z</time>
      </trkpt>
      <trkpt lat="42.25196999497711658477783203125" lon="1.41046970151364803314208984375">
        <ele>1238.800048828125</ele>
        <time>2020-08-11T12:51:49.000Z</time>
      </trkpt>
      <trkpt lat="42.25198407657444477081298828125" lon="1.4104516804218292236328125">
        <ele>1239</ele>
        <time>2020-08-11T12:51:50.000Z</time>
      </trkpt>
      <trkpt lat="42.25206102244555950164794921875" lon="1.41033877618610858917236328125">
        <ele>1239.800048828125</ele>
        <time>2020-08-11T12:51:56.000Z</time>
      </trkpt>
      <trkpt lat="42.2521041892468929290771484375" lon="1.41028513200581073760986328125">
        <ele>1240.199951171875</ele>
        <time>2020-08-11T12:51:59.000Z</time>
      </trkpt>
      <trkpt lat="42.25216428749263286590576171875" lon="1.41018278896808624267578125">
        <ele>1240.800048828125</ele>
        <time>2020-08-11T12:52:04.000Z</time>
      </trkpt>
      <trkpt lat="42.252175100147724151611328125" lon="1.410161666572093963623046875">
        <ele>1241.199951171875</ele>
        <time>2020-08-11T12:52:05.000Z</time>
      </trkpt>
      <trkpt lat="42.2522661276161670684814453125" lon="1.40999360941350460052490234375">
        <ele>1242</ele>
        <time>2020-08-11T12:52:13.000Z</time>
      </trkpt>
      <trkpt lat="42.252332009375095367431640625" lon="1.4098213613033294677734375">
        <ele>1243.199951171875</ele>
        <time>2020-08-11T12:52:20.000Z</time>
      </trkpt>
      <trkpt lat="42.2523652017116546630859375" lon="1.40969504602253437042236328125">
        <ele>1244.199951171875</ele>
        <time>2020-08-11T12:52:25.000Z</time>
      </trkpt>
      <trkpt lat="42.2523999027907848358154296875" lon="1.40960351563990116119384765625">
        <ele>1244.199951171875</ele>
        <time>2020-08-11T12:52:29.000Z</time>
      </trkpt>
      <trkpt lat="42.252453379333019256591796875" lon="1.4094673097133636474609375">
        <ele>1245</ele>
        <time>2020-08-11T12:52:35.000Z</time>
      </trkpt>
      <trkpt lat="42.2524644434452056884765625" lon="1.40944794751703739166259765625">
        <ele>1245</ele>
        <time>2020-08-11T12:52:36.000Z</time>
      </trkpt>
      <trkpt lat="42.25248254835605621337890625" lon="1.40940536744892597198486328125">
        <ele>1245.199951171875</ele>
        <time>2020-08-11T12:52:38.000Z</time>
      </trkpt>
      <trkpt lat="42.25252554751932621002197265625" lon="1.40929556451737880706787109375">
        <ele>1246</ele>
        <time>2020-08-11T12:52:43.000Z</time>
      </trkpt>
      <trkpt lat="42.2525792755186557769775390625" lon="1.40913714654743671417236328125">
        <ele>1247.199951171875</ele>
        <time>2020-08-11T12:52:50.000Z</time>
      </trkpt>
      <trkpt lat="42.2526074387133121490478515625" lon="1.40897043049335479736328125">
        <ele>1248</ele>
        <time>2020-08-11T12:52:57.000Z</time>
      </trkpt>
      <trkpt lat="42.25259478203952312469482421875" lon="1.40883992426097393035888671875">
        <ele>1248</ele>
        <time>2020-08-11T12:53:02.000Z</time>
      </trkpt>
      <trkpt lat="42.252583466470241546630859375" lon="1.4087882079184055328369140625">
        <ele>1248.199951171875</ele>
        <time>2020-08-11T12:53:04.000Z</time>
      </trkpt>
      <trkpt lat="42.25256997160613536834716796875" lon="1.40876666642725467681884765625">
        <ele>1248.199951171875</ele>
        <time>2020-08-11T12:53:05.000Z</time>
      </trkpt>
      <trkpt lat="42.25249520502984523773193359375" lon="1.40862802974879741668701171875">
        <ele>1248.800048828125</ele>
        <time>2020-08-11T12:53:11.000Z</time>
      </trkpt>
      <trkpt lat="42.2524823807179927825927734375" lon="1.40860565006732940673828125">
        <ele>1249</ele>
        <time>2020-08-11T12:53:12.000Z</time>
      </trkpt>
      <trkpt lat="42.2524107992649078369140625" lon="1.408478915691375732421875">
        <ele>1249.5999755859375</ele>
        <time>2020-08-11T12:53:18.000Z</time>
      </trkpt>
      <trkpt lat="42.252368889749050140380859375" lon="1.408425606787204742431640625">
        <ele>1249.800048828125</ele>
        <time>2020-08-11T12:53:21.000Z</time>
      </trkpt>
      <trkpt lat="42.252306528389453887939453125" lon="1.40833080746233463287353515625">
        <ele>1250.199951171875</ele>
        <time>2020-08-11T12:53:26.000Z</time>
      </trkpt>
      <trkpt lat="42.25221407599747180938720703125" lon="1.40815814025700092315673828125">
        <ele>1249.800048828125</ele>
        <time>2020-08-11T12:53:34.000Z</time>
      </trkpt>
      <trkpt lat="42.25221659056842327117919921875" lon="1.408157050609588623046875">
        <ele>1250.199951171875</ele>
        <time>2020-08-11T12:53:38.000Z</time>
      </trkpt>
      <trkpt lat="42.2522181831300258636474609375" lon="1.40815780498087406158447265625">
        <ele>1250.199951171875</ele>
        <time>2020-08-11T12:53:40.000Z</time>
      </trkpt>
      <trkpt lat="42.25221893750131130218505859375" lon="1.40815612860023975372314453125">
        <ele>1249.5999755859375</ele>
        <time>2020-08-11T12:55:06.000Z</time>
      </trkpt>
      <trkpt lat="42.25223083980381488800048828125" lon="1.4081367664039134979248046875">
        <ele>1250</ele>
        <time>2020-08-11T12:55:13.000Z</time>
      </trkpt>
      <trkpt lat="42.25232589058578014373779296875" lon="1.40808722935616970062255859375">
        <ele>1250</ele>
        <time>2020-08-11T12:55:19.000Z</time>
      </trkpt>
      <trkpt lat="42.25237551145255565643310546875" lon="1.40810634009540081024169921875">
        <ele>1250.4000244140625</ele>
        <time>2020-08-11T12:55:22.000Z</time>
      </trkpt>
      <trkpt lat="42.25241817533969879150390625" lon="1.4081552065908908843994140625">
        <ele>1251.4000244140625</ele>
        <time>2020-08-11T12:55:26.000Z</time>
      </trkpt>
      <trkpt lat="42.25242831744253635406494140625" lon="1.4081729762256145477294921875">
        <ele>1251.4000244140625</ele>
        <time>2020-08-11T12:55:27.000Z</time>
      </trkpt>
      <trkpt lat="42.25253744982182979583740234375" lon="1.408285796642303466796875">
        <ele>1251</ele>
        <time>2020-08-11T12:55:33.000Z</time>
      </trkpt>
      <trkpt lat="42.25264775566756725311279296875" lon="1.4083724655210971832275390625">
        <ele>1251.199951171875</ele>
        <time>2020-08-11T12:55:40.000Z</time>
      </trkpt>
      <trkpt lat="42.25276677869260311126708984375" lon="1.40844899229705333709716796875">
        <ele>1251.4000244140625</ele>
        <time>2020-08-11T12:55:48.000Z</time>
      </trkpt>
      <trkpt lat="42.2527811117470264434814453125" lon="1.40845284797251224517822265625">
        <ele>1252.199951171875</ele>
        <time>2020-08-11T12:55:52.000Z</time>
      </trkpt>
      <trkpt lat="42.2527782618999481201171875" lon="1.4084536023437976837158203125">
        <ele>1253</ele>
        <time>2020-08-11T12:56:08.000Z</time>
      </trkpt>
      <trkpt lat="42.252778597176074981689453125" lon="1.4084536023437976837158203125">
        <ele>1253</ele>
        <time>2020-08-11T12:56:10.000Z</time>
      </trkpt>
      <trkpt lat="42.252777926623821258544921875" lon="1.4084546081721782684326171875">
        <ele>1253</ele>
        <time>2020-08-11T12:56:23.000Z</time>
      </trkpt>
      <trkpt lat="42.2527928464114665985107421875" lon="1.40845477581024169921875">
        <ele>1253</ele>
        <time>2020-08-11T12:56:26.000Z</time>
      </trkpt>
      <trkpt lat="42.25280500017106533050537109375" lon="1.408459804952144622802734375">
        <ele>1253</ele>
        <time>2020-08-11T12:56:29.000Z</time>
      </trkpt>
      <trkpt lat="42.25282318890094757080078125" lon="1.4084650017321109771728515625">
        <ele>1253</ele>
        <time>2020-08-11T12:56:35.000Z</time>
      </trkpt>
      <trkpt lat="42.2528230212628841400146484375" lon="1.408465839922428131103515625">
        <ele>1253.199951171875</ele>
        <time>2020-08-11T12:56:56.000Z</time>
      </trkpt>
      <trkpt lat="42.25282293744385242462158203125" lon="1.40846424736082553863525390625">
        <ele>1253</ele>
        <time>2020-08-11T12:57:29.000Z</time>
      </trkpt>
      <trkpt lat="42.25286417640745639801025390625" lon="1.4084391854703426361083984375">
        <ele>1253.199951171875</ele>
        <time>2020-08-11T12:57:52.000Z</time>
      </trkpt>
      <trkpt lat="42.2530194930732250213623046875" lon="1.40835327096283435821533203125">
        <ele>1251.800048828125</ele>
        <time>2020-08-11T12:58:00.000Z</time>
      </trkpt>
      <trkpt lat="42.25305251777172088623046875" lon="1.408339105546474456787109375">
        <ele>1251.5999755859375</ele>
        <time>2020-08-11T12:58:01.000Z</time>
      </trkpt>
      <trkpt lat="42.25316877476871013641357421875" lon="1.40829308889806270599365234375">
        <ele>1250.4000244140625</ele>
        <time>2020-08-11T12:58:05.000Z</time>
      </trkpt>
      <trkpt lat="42.2531901486217975616455078125" lon="1.40827649272978305816650390625">
        <ele>1250.199951171875</ele>
        <time>2020-08-11T12:58:06.000Z</time>
      </trkpt>
      <trkpt lat="42.2532240115106105804443359375" lon="1.40823055990040302276611328125">
        <ele>1248.5999755859375</ele>
        <time>2020-08-11T12:58:09.000Z</time>
      </trkpt>
      <trkpt lat="42.2532266937196254730224609375" lon="1.40822201035916805267333984375">
        <ele>1248.199951171875</ele>
        <time>2020-08-11T12:58:10.000Z</time>
      </trkpt>
      <trkpt lat="42.2532230056822299957275390625" lon="1.40820675529539585113525390625">
        <ele>1247.5999755859375</ele>
        <time>2020-08-11T12:58:12.000Z</time>
      </trkpt>
      <trkpt lat="42.2531935013830661773681640625" lon="1.4081422984600067138671875">
        <ele>1247</ele>
        <time>2020-08-11T12:58:15.000Z</time>
      </trkpt>
      <trkpt lat="42.25315385498106479644775390625" lon="1.408081948757171630859375">
        <ele>1246.4000244140625</ele>
        <time>2020-08-11T12:58:17.000Z</time>
      </trkpt>
      <trkpt lat="42.25309434346854686737060546875" lon="1.4079329185187816619873046875">
        <ele>1245.5999755859375</ele>
        <time>2020-08-11T12:58:21.000Z</time>
      </trkpt>
      <trkpt lat="42.25308629684150218963623046875" lon="1.40789427794516086578369140625">
        <ele>1244.800048828125</ele>
        <time>2020-08-11T12:58:22.000Z</time>
      </trkpt>
      <trkpt lat="42.25306970067322254180908203125" lon="1.4078108780086040496826171875">
        <ele>1243.5999755859375</ele>
        <time>2020-08-11T12:58:24.000Z</time>
      </trkpt>
      <trkpt lat="42.25306148640811443328857421875" lon="1.40776050277054309844970703125">
        <ele>1242.4000244140625</ele>
        <time>2020-08-11T12:58:25.000Z</time>
      </trkpt>
      <trkpt lat="42.2530550323426723480224609375" lon="1.4077079482376575469970703125">
        <ele>1241.800048828125</ele>
        <time>2020-08-11T12:58:26.000Z</time>
      </trkpt>
      <trkpt lat="42.25305126048624515533447265625" lon="1.40765338204801082611083984375">
        <ele>1241.4000244140625</ele>
        <time>2020-08-11T12:58:27.000Z</time>
      </trkpt>
      <trkpt lat="42.2530518472194671630859375" lon="1.40750736929476261138916015625">
        <ele>1240</ele>
        <time>2020-08-11T12:58:30.000Z</time>
      </trkpt>
      <trkpt lat="42.2530523501336574554443359375" lon="1.4074695669114589691162109375">
        <ele>1239.800048828125</ele>
        <time>2020-08-11T12:58:31.000Z</time>
      </trkpt>
      <trkpt lat="42.25306081585586071014404296875" lon="1.4074028469622135162353515625">
        <ele>1238.800048828125</ele>
        <time>2020-08-11T12:58:33.000Z</time>
      </trkpt>
      <trkpt lat="42.25307053886353969573974609375" lon="1.40737812034785747528076171875">
        <ele>1238.5999755859375</ele>
        <time>2020-08-11T12:58:34.000Z</time>
      </trkpt>
      <trkpt lat="42.25310021080076694488525390625" lon="1.407344676554203033447265625">
        <ele>1238</ele>
        <time>2020-08-11T12:58:36.000Z</time>
      </trkpt>
      <trkpt lat="42.253119908273220062255859375" lon="1.4073341153562068939208984375">
        <ele>1237.800048828125</ele>
        <time>2020-08-11T12:58:37.000Z</time>
      </trkpt>
      <trkpt lat="42.25317916832864284515380859375" lon="1.4073652960360050201416015625">
        <ele>1237.199951171875</ele>
        <time>2020-08-11T12:58:40.000Z</time>
      </trkpt>
      <trkpt lat="42.25322778336703777313232421875" lon="1.40751474536955356597900390625">
        <ele>1236.199951171875</ele>
        <time>2020-08-11T12:58:44.000Z</time>
      </trkpt>
      <trkpt lat="42.2533148713409900665283203125" lon="1.40758213587105274200439453125">
        <ele>1235.199951171875</ele>
        <time>2020-08-11T12:58:47.000Z</time>
      </trkpt>
      <trkpt lat="42.25338620133697986602783203125" lon="1.407605521380901336669921875">
        <ele>1234.4000244140625</ele>
        <time>2020-08-11T12:58:49.000Z</time>
      </trkpt>
      <trkpt lat="42.2534533403813838958740234375" lon="1.4076113887131214141845703125">
        <ele>1234</ele>
        <time>2020-08-11T12:58:51.000Z</time>
      </trkpt>
      <trkpt lat="42.25350849330425262451171875" lon="1.40757375396788120269775390625">
        <ele>1233</ele>
        <time>2020-08-11T12:58:53.000Z</time>
      </trkpt>
      <trkpt lat="42.25353171117603778839111328125" lon="1.40754492022097110748291015625">
        <ele>1233</ele>
        <time>2020-08-11T12:58:54.000Z</time>
      </trkpt>
      <trkpt lat="42.253555096685886383056640625" lon="1.40751558355987071990966796875">
        <ele>1232.5999755859375</ele>
        <time>2020-08-11T12:58:55.000Z</time>
      </trkpt>
      <trkpt lat="42.2536005266010761260986328125" lon="1.4074595086276531219482421875">
        <ele>1231.4000244140625</ele>
        <time>2020-08-11T12:58:57.000Z</time>
      </trkpt>
      <trkpt lat="42.2536568529903888702392578125" lon="1.40740376897156238555908203125">
        <ele>1230.4000244140625</ele>
        <time>2020-08-11T12:58:59.000Z</time>
      </trkpt>
      <trkpt lat="42.25369247607886791229248046875" lon="1.4073723368346691131591796875">
        <ele>1230</ele>
        <time>2020-08-11T12:59:00.000Z</time>
      </trkpt>
      <trkpt lat="42.25372650660574436187744140625" lon="1.407333947718143463134765625">
        <ele>1229.199951171875</ele>
        <time>2020-08-11T12:59:01.000Z</time>
      </trkpt>
      <trkpt lat="42.2537624649703502655029296875" lon="1.40728843398392200469970703125">
        <ele>1228.4000244140625</ele>
        <time>2020-08-11T12:59:02.000Z</time>
      </trkpt>
      <trkpt lat="42.2538258321583271026611328125" lon="1.4071976579725742340087890625">
        <ele>1228.199951171875</ele>
        <time>2020-08-11T12:59:04.000Z</time>
      </trkpt>
      <trkpt lat="42.253855168819427490234375" lon="1.407143510878086090087890625">
        <ele>1227.800048828125</ele>
        <time>2020-08-11T12:59:05.000Z</time>
      </trkpt>
      <trkpt lat="42.25391895510256290435791015625" lon="1.407027505338191986083984375">
        <ele>1226</ele>
        <time>2020-08-11T12:59:07.000Z</time>
      </trkpt>
      <trkpt lat="42.25394912995398044586181640625" lon="1.40697008930146694183349609375">
        <ele>1225</ele>
        <time>2020-08-11T12:59:08.000Z</time>
      </trkpt>
      <trkpt lat="42.25397863425314426422119140625" lon="1.40691460110247135162353515625">
        <ele>1224.199951171875</ele>
        <time>2020-08-11T12:59:09.000Z</time>
      </trkpt>
      <trkpt lat="42.2540001757442951202392578125" lon="1.4068590290844440460205078125">
        <ele>1223.199951171875</ele>
        <time>2020-08-11T12:59:10.000Z</time>
      </trkpt>
      <trkpt lat="42.25404669530689716339111328125" lon="1.40669130720198154449462890625">
        <ele>1221.5999755859375</ele>
        <time>2020-08-11T12:59:13.000Z</time>
      </trkpt>
      <trkpt lat="42.25407821126282215118408203125" lon="1.40657412819564342498779296875">
        <ele>1220.5999755859375</ele>
        <time>2020-08-11T12:59:15.000Z</time>
      </trkpt>
      <trkpt lat="42.2540990822017192840576171875" lon="1.406521238386631011962890625">
        <ele>1220.4000244140625</ele>
        <time>2020-08-11T12:59:16.000Z</time>
      </trkpt>
      <trkpt lat="42.25415289402008056640625" lon="1.4064268581569194793701171875">
        <ele>1219.5999755859375</ele>
        <time>2020-08-11T12:59:18.000Z</time>
      </trkpt>
      <trkpt lat="42.2541775368154048919677734375" lon="1.40639073215425014495849609375">
        <ele>1219.199951171875</ele>
        <time>2020-08-11T12:59:19.000Z</time>
      </trkpt>
      <trkpt lat="42.25426076911389827728271484375" lon="1.40629014931619167327880859375">
        <ele>1217.800048828125</ele>
        <time>2020-08-11T12:59:22.000Z</time>
      </trkpt>
      <trkpt lat="42.25429547019302845001220703125" lon="1.40625360421836376190185546875">
        <ele>1217.4000244140625</ele>
        <time>2020-08-11T12:59:23.000Z</time>
      </trkpt>
      <trkpt lat="42.2543626092374324798583984375" lon="1.40618763864040374755859375">
        <ele>1216.800048828125</ele>
        <time>2020-08-11T12:59:25.000Z</time>
      </trkpt>
      <trkpt lat="42.25439630448818206787109375" lon="1.40615285374224185943603515625">
        <ele>1216.5999755859375</ele>
        <time>2020-08-11T12:59:26.000Z</time>
      </trkpt>
      <trkpt lat="42.2544702328741550445556640625" lon="1.40607221983373165130615234375">
        <ele>1215.5999755859375</ele>
        <time>2020-08-11T12:59:28.000Z</time>
      </trkpt>
      <trkpt lat="42.2545463405549526214599609375" lon="1.40598756261169910430908203125">
        <ele>1214</ele>
        <time>2020-08-11T12:59:30.000Z</time>
      </trkpt>
      <trkpt lat="42.2546160779893398284912109375" lon="1.40591732226312160491943359375">
        <ele>1211.800048828125</ele>
        <time>2020-08-11T12:59:32.000Z</time>
      </trkpt>
      <trkpt lat="42.25468288175761699676513671875" lon="1.40586971305310726165771484375">
        <ele>1210.4000244140625</ele>
        <time>2020-08-11T12:59:34.000Z</time>
      </trkpt>
      <trkpt lat="42.25472127087414264678955078125" lon="1.40584574081003665924072265625">
        <ele>1210.199951171875</ele>
        <time>2020-08-11T12:59:35.000Z</time>
      </trkpt>
      <trkpt lat="42.25483006797730922698974609375" lon="1.40576259233057498931884765625">
        <ele>1209.199951171875</ele>
        <time>2020-08-11T12:59:38.000Z</time>
      </trkpt>
      <trkpt lat="42.2548906691372394561767578125" lon="1.4057029969990253448486328125">
        <ele>1209</ele>
        <time>2020-08-11T12:59:40.000Z</time>
      </trkpt>
      <trkpt lat="42.25500994361937046051025390625" lon="1.40567458234727382659912109375">
        <ele>1208.4000244140625</ele>
        <time>2020-08-11T12:59:44.000Z</time>
      </trkpt>
      <trkpt lat="42.255031652748584747314453125" lon="1.40568698756396770477294921875">
        <ele>1207.800048828125</ele>
        <time>2020-08-11T12:59:45.000Z</time>
      </trkpt>
      <trkpt lat="42.2551139630377292633056640625" lon="1.405732333660125732421875">
        <ele>1206.5999755859375</ele>
        <time>2020-08-11T12:59:48.000Z</time>
      </trkpt>
      <trkpt lat="42.2551439702510833740234375" lon="1.40573325566947460174560546875">
        <ele>1206.199951171875</ele>
        <time>2020-08-11T12:59:49.000Z</time>
      </trkpt>
      <trkpt lat="42.25518244318664073944091796875" lon="1.40569201670587062835693359375">
        <ele>1205.199951171875</ele>
        <time>2020-08-11T12:59:51.000Z</time>
      </trkpt>
      <trkpt lat="42.25519082508981227874755859375" lon="1.405656896531581878662109375">
        <ele>1204.5999755859375</ele>
        <time>2020-08-11T12:59:52.000Z</time>
      </trkpt>
      <trkpt lat="42.2551964409649372100830078125" lon="1.4056191779673099517822265625">
        <ele>1204.4000244140625</ele>
        <time>2020-08-11T12:59:53.000Z</time>
      </trkpt>
      <trkpt lat="42.25520842708647251129150390625" lon="1.40554256737232208251953125">
        <ele>1204</ele>
        <time>2020-08-11T12:59:55.000Z</time>
      </trkpt>
      <trkpt lat="42.255238182842731475830078125" lon="1.40539697371423244476318359375">
        <ele>1203.5999755859375</ele>
        <time>2020-08-11T12:59:58.000Z</time>
      </trkpt>
      <trkpt lat="42.255243547260761260986328125" lon="1.4053385518491268157958984375">
        <ele>1203.4000244140625</ele>
        <time>2020-08-11T12:59:59.000Z</time>
      </trkpt>
      <trkpt lat="42.25525536574423313140869140625" lon="1.4051632024347782135009765625">
        <ele>1203</ele>
        <time>2020-08-11T13:00:02.000Z</time>
      </trkpt>
      <trkpt lat="42.255262993276119232177734375" lon="1.405107043683528900146484375">
        <ele>1202.800048828125</ele>
        <time>2020-08-11T13:00:03.000Z</time>
      </trkpt>
      <trkpt lat="42.25528470240533351898193359375" lon="1.40499665401875972747802734375">
        <ele>1202</ele>
        <time>2020-08-11T13:00:05.000Z</time>
      </trkpt>
      <trkpt lat="42.25529828108847141265869140625" lon="1.4048825763165950775146484375">
        <ele>1200.800048828125</ele>
        <time>2020-08-11T13:00:07.000Z</time>
      </trkpt>
      <trkpt lat="42.25531873293220996856689453125" lon="1.40476598404347896575927734375">
        <ele>1199.4000244140625</ele>
        <time>2020-08-11T13:00:09.000Z</time>
      </trkpt>
      <trkpt lat="42.2553466446697711944580078125" lon="1.4046421833336353302001953125">
        <ele>1198.199951171875</ele>
        <time>2020-08-11T13:00:11.000Z</time>
      </trkpt>
      <trkpt lat="42.2553821839392185211181640625" lon="1.40452592633664608001708984375">
        <ele>1197.199951171875</ele>
        <time>2020-08-11T13:00:13.000Z</time>
      </trkpt>
      <trkpt lat="42.2554261051118373870849609375" lon="1.40442140400409698486328125">
        <ele>1196</ele>
        <time>2020-08-11T13:00:15.000Z</time>
      </trkpt>
      <trkpt lat="42.25544638931751251220703125" lon="1.4043711125850677490234375">
        <ele>1195.199951171875</ele>
        <time>2020-08-11T13:00:16.000Z</time>
      </trkpt>
      <trkpt lat="42.25546759553253650665283203125" lon="1.40432476066052913665771484375">
        <ele>1194.5999755859375</ele>
        <time>2020-08-11T13:00:17.000Z</time>
      </trkpt>
      <trkpt lat="42.2555310465395450592041015625" lon="1.40419417060911655426025390625">
        <ele>1193.5999755859375</ele>
        <time>2020-08-11T13:00:20.000Z</time>
      </trkpt>
      <trkpt lat="42.2555494867265224456787109375" lon="1.40415729023516178131103515625">
        <ele>1193.199951171875</ele>
        <time>2020-08-11T13:00:21.000Z</time>
      </trkpt>
      <trkpt lat="42.25560002960264682769775390625" lon="1.40401907265186309814453125">
        <ele>1192</ele>
        <time>2020-08-11T13:00:25.000Z</time>
      </trkpt>
      <trkpt lat="42.25565099157392978668212890625" lon="1.403872556984424591064453125">
        <ele>1191</ele>
        <time>2020-08-11T13:00:28.000Z</time>
      </trkpt>
      <trkpt lat="42.25569290108978748321533203125" lon="1.40376694500446319580078125">
        <ele>1190</ele>
        <time>2020-08-11T13:00:30.000Z</time>
      </trkpt>
      <trkpt lat="42.25572039373219013214111328125" lon="1.40372076071798801422119140625">
        <ele>1189.800048828125</ele>
        <time>2020-08-11T13:00:31.000Z</time>
      </trkpt>
      <trkpt lat="42.255879901349544525146484375" lon="1.4035181701183319091796875">
        <ele>1188.800048828125</ele>
        <time>2020-08-11T13:00:36.000Z</time>
      </trkpt>
      <trkpt lat="42.2559746168553829193115234375" lon="1.40331021510064601898193359375">
        <ele>1187.199951171875</ele>
        <time>2020-08-11T13:00:41.000Z</time>
      </trkpt>
      <trkpt lat="42.25598811171948909759521484375" lon="1.403271071612834930419921875">
        <ele>1186.5999755859375</ele>
        <time>2020-08-11T13:00:42.000Z</time>
      </trkpt>
      <trkpt lat="42.256010659039020538330078125" lon="1.4032296650111675262451171875">
        <ele>1185.800048828125</ele>
        <time>2020-08-11T13:00:44.000Z</time>
      </trkpt>
      <trkpt lat="42.25602264516055583953857421875" lon="1.40321709215641021728515625">
        <ele>1185.4000244140625</ele>
        <time>2020-08-11T13:00:45.000Z</time>
      </trkpt>
      <trkpt lat="42.2560249082744121551513671875" lon="1.40320502221584320068359375">
        <ele>1184.800048828125</ele>
        <time>2020-08-11T13:00:50.000Z</time>
      </trkpt>
      <trkpt lat="42.256084419786930084228515625" lon="1.40319429337978363037109375">
        <ele>1184.5999755859375</ele>
        <time>2020-08-11T13:00:55.000Z</time>
      </trkpt>
      <trkpt lat="42.2562317736446857452392578125" lon="1.4032115601003170013427734375">
        <ele>1183.800048828125</ele>
        <time>2020-08-11T13:01:00.000Z</time>
      </trkpt>
      <trkpt lat="42.25626287050545215606689453125" lon="1.40320594422519207000732421875">
        <ele>1183.800048828125</ele>
        <time>2020-08-11T13:01:01.000Z</time>
      </trkpt>
      <trkpt lat="42.25631701759994029998779296875" lon="1.40318222343921661376953125">
        <ele>1182.4000244140625</ele>
        <time>2020-08-11T13:01:03.000Z</time>
      </trkpt>
      <trkpt lat="42.2563420794904232025146484375" lon="1.4031445048749446868896484375">
        <ele>1181.199951171875</ele>
        <time>2020-08-11T13:01:05.000Z</time>
      </trkpt>
      <trkpt lat="42.25634451024234294891357421875" lon="1.40312748961150646209716796875">
        <ele>1180</ele>
        <time>2020-08-11T13:01:09.000Z</time>
      </trkpt>
      <trkpt lat="42.256344594061374664306640625" lon="1.40312665142118930816650390625">
        <ele>1180</ele>
        <time>2020-08-11T13:01:10.000Z</time>
      </trkpt>
      <trkpt lat="42.2563455998897552490234375" lon="1.40312531031668186187744140625">
        <ele>1180</ele>
        <time>2020-08-11T13:01:30.000Z</time>
      </trkpt>
      <trkpt lat="42.2563417442142963409423828125" lon="1.40311089344322681427001953125">
        <ele>1180.199951171875</ele>
        <time>2020-08-11T13:01:55.000Z</time>
      </trkpt>
      <trkpt lat="42.2563026845455169677734375" lon="1.4030720852315425872802734375">
        <ele>1180.199951171875</ele>
        <time>2020-08-11T13:01:58.000Z</time>
      </trkpt>
      <trkpt lat="42.25628164596855640411376953125" lon="1.40307200141251087188720703125">
        <ele>1180.199951171875</ele>
        <time>2020-08-11T13:01:59.000Z</time>
      </trkpt>
      <trkpt lat="42.2561905346810817718505859375" lon="1.403057165443897247314453125">
        <ele>1178.800048828125</ele>
        <time>2020-08-11T13:02:03.000Z</time>
      </trkpt>
      <trkpt lat="42.2561657242476940155029296875" lon="1.40303612686693668365478515625">
        <ele>1178.5999755859375</ele>
        <time>2020-08-11T13:02:04.000Z</time>
      </trkpt>
      <trkpt lat="42.25614166818559169769287109375" lon="1.4030139148235321044921875">
        <ele>1178.4000244140625</ele>
        <time>2020-08-11T13:02:05.000Z</time>
      </trkpt>
      <trkpt lat="42.25601409561932086944580078125" lon="1.40293889679014682769775390625">
        <ele>1177</ele>
        <time>2020-08-11T13:02:09.000Z</time>
      </trkpt>
      <trkpt lat="42.25595709867775440216064453125" lon="1.4029017649590969085693359375">
        <ele>1175.4000244140625</ele>
        <time>2020-08-11T13:02:11.000Z</time>
      </trkpt>
      <trkpt lat="42.2559182904660701751708984375" lon="1.40286748297512531280517578125">
        <ele>1174.4000244140625</ele>
        <time>2020-08-11T13:02:13.000Z</time>
      </trkpt>
      <trkpt lat="42.25590596906840801239013671875" lon="1.40285122208297252655029296875">
        <ele>1174.199951171875</ele>
        <time>2020-08-11T13:02:14.000Z</time>
      </trkpt>
      <trkpt lat="42.25589842535555362701416015625" lon="1.4028300158679485321044921875">
        <ele>1174.199951171875</ele>
        <time>2020-08-11T13:02:15.000Z</time>
      </trkpt>
      <trkpt lat="42.25590077228844165802001953125" lon="1.402782239019870758056640625">
        <ele>1173.800048828125</ele>
        <time>2020-08-11T13:02:17.000Z</time>
      </trkpt>
      <trkpt lat="42.25591284222900867462158203125" lon="1.4027438499033451080322265625">
        <ele>1173</ele>
        <time>2020-08-11T13:02:19.000Z</time>
      </trkpt>
      <trkpt lat="42.25593798793852329254150390625" lon="1.4027153514325618743896484375">
        <ele>1172</ele>
        <time>2020-08-11T13:02:21.000Z</time>
      </trkpt>
      <trkpt lat="42.2559528239071369171142578125" lon="1.40270001254975795745849609375">
        <ele>1171.800048828125</ele>
        <time>2020-08-11T13:02:22.000Z</time>
      </trkpt>
      <trkpt lat="42.25596698932349681854248046875" lon="1.4026840031147003173828125">
        <ele>1171.4000244140625</ele>
        <time>2020-08-11T13:02:23.000Z</time>
      </trkpt>
      <trkpt lat="42.25599599070847034454345703125" lon="1.402666233479976654052734375">
        <ele>1170.199951171875</ele>
        <time>2020-08-11T13:02:25.000Z</time>
      </trkpt>
      <trkpt lat="42.25604376755654811859130859375" lon="1.4026409201323986053466796875">
        <ele>1169.800048828125</ele>
        <time>2020-08-11T13:02:28.000Z</time>
      </trkpt>
      <trkpt lat="42.2561311908066272735595703125" lon="1.40255684964358806610107421875">
        <ele>1168.800048828125</ele>
        <time>2020-08-11T13:02:33.000Z</time>
      </trkpt>
      <trkpt lat="42.256150804460048675537109375" lon="1.40253321267664432525634765625">
        <ele>1168.5999755859375</ele>
        <time>2020-08-11T13:02:34.000Z</time>
      </trkpt>
      <trkpt lat="42.2562022693455219268798828125" lon="1.40247906558215618133544921875">
        <ele>1167.800048828125</ele>
        <time>2020-08-11T13:02:36.000Z</time>
      </trkpt>
      <trkpt lat="42.25625214166939258575439453125" lon="1.4024548418819904327392578125">
        <ele>1167</ele>
        <time>2020-08-11T13:02:38.000Z</time>
      </trkpt>
      <trkpt lat="42.25630871951580047607421875" lon="1.4024125970900058746337890625">
        <ele>1166.5999755859375</ele>
        <time>2020-08-11T13:02:40.000Z</time>
      </trkpt>
      <trkpt lat="42.2563752718269824981689453125" lon="1.40236959792673587799072265625">
        <ele>1165.5999755859375</ele>
        <time>2020-08-11T13:02:42.000Z</time>
      </trkpt>
      <trkpt lat="42.25640318356454372406005859375" lon="1.40234881080687046051025390625">
        <ele>1165</ele>
        <time>2020-08-11T13:02:43.000Z</time>
      </trkpt>
      <trkpt lat="42.25642950274050235748291015625" lon="1.4023187197744846343994140625">
        <ele>1164</ele>
        <time>2020-08-11T13:02:44.000Z</time>
      </trkpt>
      <trkpt lat="42.25653209723532199859619140625" lon="1.40219911001622676849365234375">
        <ele>1163</ele>
        <time>2020-08-11T13:02:48.000Z</time>
      </trkpt>
      <trkpt lat="42.256554476916790008544921875" lon="1.4021725393831729888916015625">
        <ele>1162.199951171875</ele>
        <time>2020-08-11T13:02:49.000Z</time>
      </trkpt>
      <trkpt lat="42.25657585076987743377685546875" lon="1.40214311890304088592529296875">
        <ele>1161.800048828125</ele>
        <time>2020-08-11T13:02:50.000Z</time>
      </trkpt>
      <trkpt lat="42.25661977194249629974365234375" lon="1.4020873792469501495361328125">
        <ele>1160.800048828125</ele>
        <time>2020-08-11T13:02:52.000Z</time>
      </trkpt>
      <trkpt lat="42.25665715523064136505126953125" lon="1.40201286412775516510009765625">
        <ele>1159.800048828125</ele>
        <time>2020-08-11T13:02:54.000Z</time>
      </trkpt>
      <trkpt lat="42.25667727179825305938720703125" lon="1.40196994878351688385009765625">
        <ele>1159.4000244140625</ele>
        <time>2020-08-11T13:02:55.000Z</time>
      </trkpt>
      <trkpt lat="42.2567045129835605621337890625" lon="1.40188747085630893707275390625">
        <ele>1157.800048828125</ele>
        <time>2020-08-11T13:02:57.000Z</time>
      </trkpt>
      <trkpt lat="42.25674097426235675811767578125" lon="1.401795856654644012451171875">
        <ele>1157</ele>
        <time>2020-08-11T13:02:59.000Z</time>
      </trkpt>
      <trkpt lat="42.2567586600780487060546875" lon="1.4017546176910400390625">
        <ele>1156.5999755859375</ele>
        <time>2020-08-11T13:03:00.000Z</time>
      </trkpt>
      <trkpt lat="42.25680618546903133392333984375" lon="1.40168286859989166259765625">
        <ele>1155.4000244140625</ele>
        <time>2020-08-11T13:03:02.000Z</time>
      </trkpt>
      <trkpt lat="42.25687139667570590972900390625" lon="1.40161992050707340240478515625">
        <ele>1154.5999755859375</ele>
        <time>2020-08-11T13:03:04.000Z</time>
      </trkpt>
      <trkpt lat="42.2569093666970729827880859375" lon="1.40158228576183319091796875">
        <ele>1154</ele>
        <time>2020-08-11T13:03:05.000Z</time>
      </trkpt>
      <trkpt lat="42.25702227093279361724853515625" lon="1.40142981894314289093017578125">
        <ele>1152.800048828125</ele>
        <time>2020-08-11T13:03:09.000Z</time>
      </trkpt>
      <trkpt lat="42.25708479993045330047607421875" lon="1.40128313563764095306396484375">
        <ele>1151.800048828125</ele>
        <time>2020-08-11T13:03:12.000Z</time>
      </trkpt>
      <trkpt lat="42.25710994563996791839599609375" lon="1.40122999437153339385986328125">
        <ele>1151.4000244140625</ele>
        <time>2020-08-11T13:03:13.000Z</time>
      </trkpt>
      <trkpt lat="42.257155962288379669189453125" lon="1.40115975402295589447021484375">
        <ele>1150.4000244140625</ele>
        <time>2020-08-11T13:03:15.000Z</time>
      </trkpt>
      <trkpt lat="42.25721572525799274444580078125" lon="1.4010999910533428192138671875">
        <ele>1149.800048828125</ele>
        <time>2020-08-11T13:03:17.000Z</time>
      </trkpt>
      <trkpt lat="42.25727775134146213531494140625" lon="1.4010245539247989654541015625">
        <ele>1149.199951171875</ele>
        <time>2020-08-11T13:03:19.000Z</time>
      </trkpt>
      <trkpt lat="42.257352769374847412109375" lon="1.40089027583599090576171875">
        <ele>1148.199951171875</ele>
        <time>2020-08-11T13:03:22.000Z</time>
      </trkpt>
      <trkpt lat="42.25737732835114002227783203125" lon="1.40083872713148593902587890625">
        <ele>1148</ele>
        <time>2020-08-11T13:03:23.000Z</time>
      </trkpt>
      <trkpt lat="42.257444299757480621337890625" lon="1.4007031917572021484375">
        <ele>1146.5999755859375</ele>
        <time>2020-08-11T13:03:26.000Z</time>
      </trkpt>
      <trkpt lat="42.25746248848736286163330078125" lon="1.40066186897456645965576171875">
        <ele>1145.5999755859375</ele>
        <time>2020-08-11T13:03:27.000Z</time>
      </trkpt>
      <trkpt lat="42.2574766539037227630615234375" lon="1.4006212167441844940185546875">
        <ele>1145</ele>
        <time>2020-08-11T13:03:28.000Z</time>
      </trkpt>
      <trkpt lat="42.25749157369136810302734375" lon="1.4005793072283267974853515625">
        <ele>1144.199951171875</ele>
        <time>2020-08-11T13:03:29.000Z</time>
      </trkpt>
      <trkpt lat="42.2575195692479610443115234375" lon="1.40050697140395641326904296875">
        <ele>1143.199951171875</ele>
        <time>2020-08-11T13:03:31.000Z</time>
      </trkpt>
      <trkpt lat="42.25754194892942905426025390625" lon="1.40039540827274322509765625">
        <ele>1141.5999755859375</ele>
        <time>2020-08-11T13:03:34.000Z</time>
      </trkpt>
      <trkpt lat="42.25754211656749248504638671875" lon="1.40032994560897350311279296875">
        <ele>1140.5999755859375</ele>
        <time>2020-08-11T13:03:36.000Z</time>
      </trkpt>
      <trkpt lat="42.257537841796875" lon="1.40020706690847873687744140625">
        <ele>1139.199951171875</ele>
        <time>2020-08-11T13:03:39.000Z</time>
      </trkpt>
      <trkpt lat="42.2575423680245876312255859375" lon="1.4001251757144927978515625">
        <ele>1138</ele>
        <time>2020-08-11T13:03:41.000Z</time>
      </trkpt>
      <trkpt lat="42.25754664279520511627197265625" lon="1.4000438712537288665771484375">
        <ele>1137</ele>
        <time>2020-08-11T13:03:43.000Z</time>
      </trkpt>
      <trkpt lat="42.25754898972809314727783203125" lon="1.3999540172517299652099609375">
        <ele>1135.4000244140625</ele>
        <time>2020-08-11T13:03:45.000Z</time>
      </trkpt>
      <trkpt lat="42.25755871273577213287353515625" lon="1.39987246133387088775634765625">
        <ele>1134.199951171875</ele>
        <time>2020-08-11T13:03:47.000Z</time>
      </trkpt>
      <trkpt lat="42.25756458006799221038818359375" lon="1.39983776025474071502685546875">
        <ele>1133</ele>
        <time>2020-08-11T13:03:48.000Z</time>
      </trkpt>
      <trkpt lat="42.25757497362792491912841796875" lon="1.399751342833042144775390625">
        <ele>1132</ele>
        <time>2020-08-11T13:03:50.000Z</time>
      </trkpt>
      <trkpt lat="42.25758033804595470428466796875" lon="1.39967515133321285247802734375">
        <ele>1131</ele>
        <time>2020-08-11T13:03:52.000Z</time>
      </trkpt>
      <trkpt lat="42.2575879655778408050537109375" lon="1.39964112080633640289306640625">
        <ele>1130.4000244140625</ele>
        <time>2020-08-11T13:03:53.000Z</time>
      </trkpt>
      <trkpt lat="42.25759509019553661346435546875" lon="1.399604491889476776123046875">
        <ele>1129.800048828125</ele>
        <time>2020-08-11T13:03:54.000Z</time>
      </trkpt>
      <trkpt lat="42.25761436857283115386962890625" lon="1.3995262049138545989990234375">
        <ele>1128.4000244140625</ele>
        <time>2020-08-11T13:03:56.000Z</time>
      </trkpt>
      <trkpt lat="42.25764043629169464111328125" lon="1.399415396153926849365234375">
        <ele>1127.199951171875</ele>
        <time>2020-08-11T13:03:59.000Z</time>
      </trkpt>
      <trkpt lat="42.2576412744820117950439453125" lon="1.39937960542738437652587890625">
        <ele>1126.4000244140625</ele>
        <time>2020-08-11T13:04:00.000Z</time>
      </trkpt>
      <trkpt lat="42.257642112672328948974609375" lon="1.39933953993022441864013671875">
        <ele>1125.199951171875</ele>
        <time>2020-08-11T13:04:01.000Z</time>
      </trkpt>
      <trkpt lat="42.2576446272432804107666015625" lon="1.39927315525710582733154296875">
        <ele>1124</ele>
        <time>2020-08-11T13:04:03.000Z</time>
      </trkpt>
      <trkpt lat="42.2576446272432804107666015625" lon="1.39920056797564029693603515625">
        <ele>1122.5999755859375</ele>
        <time>2020-08-11T13:04:05.000Z</time>
      </trkpt>
      <trkpt lat="42.25764018483459949493408203125" lon="1.399091184139251708984375">
        <ele>1121.4000244140625</ele>
        <time>2020-08-11T13:04:08.000Z</time>
      </trkpt>
      <trkpt lat="42.2576365806162357330322265625" lon="1.39898800291121006011962890625">
        <ele>1120.199951171875</ele>
        <time>2020-08-11T13:04:10.000Z</time>
      </trkpt>
      <trkpt lat="42.25763104856014251708984375" lon="1.3987999968230724334716796875">
        <ele>1118.199951171875</ele>
        <time>2020-08-11T13:04:13.000Z</time>
      </trkpt>
      <trkpt lat="42.25761604495346546173095703125" lon="1.398675106465816497802734375">
        <ele>1116.800048828125</ele>
        <time>2020-08-11T13:04:15.000Z</time>
      </trkpt>
      <trkpt lat="42.25759944878518581390380859375" lon="1.39855851419270038604736328125">
        <ele>1115.4000244140625</ele>
        <time>2020-08-11T13:04:17.000Z</time>
      </trkpt>
      <trkpt lat="42.25758302025496959686279296875" lon="1.39844820834696292877197265625">
        <ele>1114.5999755859375</ele>
        <time>2020-08-11T13:04:19.000Z</time>
      </trkpt>
      <trkpt lat="42.25757648237049579620361328125" lon="1.39839984476566314697265625">
        <ele>1114.4000244140625</ele>
        <time>2020-08-11T13:04:20.000Z</time>
      </trkpt>
      <trkpt lat="42.25757229141891002655029296875" lon="1.39828459359705448150634765625">
        <ele>1113.199951171875</ele>
        <time>2020-08-11T13:04:23.000Z</time>
      </trkpt>
      <trkpt lat="42.25757966749370098114013671875" lon="1.39825659804046154022216796875">
        <ele>1112.800048828125</ele>
        <time>2020-08-11T13:04:24.000Z</time>
      </trkpt>
      <trkpt lat="42.25759224034845829010009765625" lon="1.39823731966316699981689453125">
        <ele>1112</ele>
        <time>2020-08-11T13:04:25.000Z</time>
      </trkpt>
      <trkpt lat="42.2576456330716609954833984375" lon="1.3982263393700122833251953125">
        <ele>1111.199951171875</ele>
        <time>2020-08-11T13:04:28.000Z</time>
      </trkpt>
      <trkpt lat="42.25767790339887142181396484375" lon="1.39825575985014438629150390625">
        <ele>1111</ele>
        <time>2020-08-11T13:04:30.000Z</time>
      </trkpt>
      <trkpt lat="42.25769667886197566986083984375" lon="1.398304961621761322021484375">
        <ele>1110.5999755859375</ele>
        <time>2020-08-11T13:04:32.000Z</time>
      </trkpt>
      <trkpt lat="42.25770480930805206298828125" lon="1.39833438210189342498779296875">
        <ele>1110.199951171875</ele>
        <time>2020-08-11T13:04:33.000Z</time>
      </trkpt>
      <trkpt lat="42.257714532315731048583984375" lon="1.398365311324596405029296875">
        <ele>1109.5999755859375</ele>
        <time>2020-08-11T13:04:34.000Z</time>
      </trkpt>
      <trkpt lat="42.25776373408734798431396484375" lon="1.39843798242509365081787109375">
        <ele>1108.800048828125</ele>
        <time>2020-08-11T13:04:37.000Z</time>
      </trkpt>
      <trkpt lat="42.2577827610075473785400390625" lon="1.39845407567918300628662109375">
        <ele>1108.199951171875</ele>
        <time>2020-08-11T13:04:38.000Z</time>
      </trkpt>
      <trkpt lat="42.25783280096948146820068359375" lon="1.39851040206849575042724609375">
        <ele>1107</ele>
        <time>2020-08-11T13:04:41.000Z</time>
      </trkpt>
      <trkpt lat="42.25786532275378704071044921875" lon="1.39856077730655670166015625">
        <ele>1105.800048828125</ele>
        <time>2020-08-11T13:04:43.000Z</time>
      </trkpt>
      <trkpt lat="42.257894575595855712890625" lon="1.39861484058201313018798828125">
        <ele>1104.5999755859375</ele>
        <time>2020-08-11T13:04:45.000Z</time>
      </trkpt>
      <trkpt lat="42.25794545374810695648193359375" lon="1.3987104780972003936767578125">
        <ele>1103.199951171875</ele>
        <time>2020-08-11T13:04:48.000Z</time>
      </trkpt>
      <trkpt lat="42.25795961916446685791015625" lon="1.39874677173793315887451171875">
        <ele>1102.800048828125</ele>
        <time>2020-08-11T13:04:49.000Z</time>
      </trkpt>
      <trkpt lat="42.25797713734209537506103515625" lon="1.39881298877298831939697265625">
        <ele>1102</ele>
        <time>2020-08-11T13:04:51.000Z</time>
      </trkpt>
      <trkpt lat="42.25799021311104297637939453125" lon="1.3989263959228992462158203125">
        <ele>1101</ele>
        <time>2020-08-11T13:04:54.000Z</time>
      </trkpt>
      <trkpt lat="42.25802524946630001068115234375" lon="1.3990454189479351043701171875">
        <ele>1099.800048828125</ele>
        <time>2020-08-11T13:04:58.000Z</time>
      </trkpt>
      <trkpt lat="42.25804050453007221221923828125" lon="1.39906100928783416748046875">
        <ele>1099.5999755859375</ele>
        <time>2020-08-11T13:04:59.000Z</time>
      </trkpt>
      <trkpt lat="42.25805886089801788330078125" lon="1.39906947501003742218017578125">
        <ele>1099.199951171875</ele>
        <time>2020-08-11T13:05:00.000Z</time>
      </trkpt>
      <trkpt lat="42.25810437463223934173583984375" lon="1.39905673451721668243408203125">
        <ele>1098.800048828125</ele>
        <time>2020-08-11T13:05:03.000Z</time>
      </trkpt>
      <trkpt lat="42.25813991390168666839599609375" lon="1.39895229600369930267333984375">
        <ele>1097.800048828125</ele>
        <time>2020-08-11T13:05:08.000Z</time>
      </trkpt>
      <trkpt lat="42.25813672877848148345947265625" lon="1.3989342749118804931640625">
        <ele>1097.5999755859375</ele>
        <time>2020-08-11T13:05:09.000Z</time>
      </trkpt>
      <trkpt lat="42.258130945265293121337890625" lon="1.39888993464410305023193359375">
        <ele>1097</ele>
        <time>2020-08-11T13:05:11.000Z</time>
      </trkpt>
      <trkpt lat="42.2581304423511028289794921875" lon="1.39882254414260387420654296875">
        <ele>1096</ele>
        <time>2020-08-11T13:05:13.000Z</time>
      </trkpt>
      <trkpt lat="42.25813153199851512908935546875" lon="1.39877342619001865386962890625">
        <ele>1095.5999755859375</ele>
        <time>2020-08-11T13:05:14.000Z</time>
      </trkpt>
      <trkpt lat="42.25813237018883228302001953125" lon="1.3987178541719913482666015625">
        <ele>1094.800048828125</ele>
        <time>2020-08-11T13:05:15.000Z</time>
      </trkpt>
      <trkpt lat="42.25810772739350795745849609375" lon="1.39850973151624202728271484375">
        <ele>1094</ele>
        <time>2020-08-11T13:05:19.000Z</time>
      </trkpt>
      <trkpt lat="42.25813656114041805267333984375" lon="1.398303620517253875732421875">
        <ele>1093.5999755859375</ele>
        <time>2020-08-11T13:05:23.000Z</time>
      </trkpt>
      <trkpt lat="42.25814829580485820770263671875" lon="1.39825777150690555572509765625">
        <ele>1092.5999755859375</ele>
        <time>2020-08-11T13:05:24.000Z</time>
      </trkpt>
      <trkpt lat="42.25817193277180194854736328125" lon="1.39817311428487300872802734375">
        <ele>1090.800048828125</ele>
        <time>2020-08-11T13:05:26.000Z</time>
      </trkpt>
      <trkpt lat="42.2582112438976764678955078125" lon="1.398088037967681884765625">
        <ele>1089.5999755859375</ele>
        <time>2020-08-11T13:05:28.000Z</time>
      </trkpt>
      <trkpt lat="42.2582353837788105010986328125" lon="1.39804235659539699554443359375">
        <ele>1089.199951171875</ele>
        <time>2020-08-11T13:05:29.000Z</time>
      </trkpt>
      <trkpt lat="42.25826363079249858856201171875" lon="1.397988460958003997802734375">
        <ele>1088.199951171875</ele>
        <time>2020-08-11T13:05:30.000Z</time>
      </trkpt>
      <trkpt lat="42.25829866714775562286376953125" lon="1.39789014123380184173583984375">
        <ele>1087</ele>
        <time>2020-08-11T13:05:32.000Z</time>
      </trkpt>
      <trkpt lat="42.2583192028105258941650390625" lon="1.3978511653840541839599609375">
        <ele>1086.199951171875</ele>
        <time>2020-08-11T13:05:33.000Z</time>
      </trkpt>
      <trkpt lat="42.25834024138748645782470703125" lon="1.39781822450459003448486328125">
        <ele>1085.5999755859375</ele>
        <time>2020-08-11T13:05:34.000Z</time>
      </trkpt>
      <trkpt lat="42.258417941629886627197265625" lon="1.39772769995033740997314453125">
        <ele>1084.199951171875</ele>
        <time>2020-08-11T13:05:37.000Z</time>
      </trkpt>
      <trkpt lat="42.2584445960819721221923828125" lon="1.39769551344215869903564453125">
        <ele>1083.800048828125</ele>
        <time>2020-08-11T13:05:38.000Z</time>
      </trkpt>
      <trkpt lat="42.25848122499883174896240234375" lon="1.3976278714835643768310546875">
        <ele>1082.800048828125</ele>
        <time>2020-08-11T13:05:40.000Z</time>
      </trkpt>
      <trkpt lat="42.258509136736392974853515625" lon="1.39756525866687297821044921875">
        <ele>1081.4000244140625</ele>
        <time>2020-08-11T13:05:42.000Z</time>
      </trkpt>
      <trkpt lat="42.25852481089532375335693359375" lon="1.3975368440151214599609375">
        <ele>1081</ele>
        <time>2020-08-11T13:05:47.000Z</time>
      </trkpt>
      <trkpt lat="42.258522547781467437744140625" lon="1.3975395262241363525390625">
        <ele>1081</ele>
        <time>2020-08-11T13:06:00.000Z</time>
      </trkpt>
      <trkpt lat="42.25852263160049915313720703125" lon="1.39753751456737518310546875">
        <ele>1080.5999755859375</ele>
        <time>2020-08-11T13:06:35.000Z</time>
      </trkpt>
      <trkpt lat="42.2585227154195308685302734375" lon="1.3975373469293117523193359375">
        <ele>1080.5999755859375</ele>
        <time>2020-08-11T13:06:38.000Z</time>
      </trkpt>
      <trkpt lat="42.25852246396243572235107421875" lon="1.397535838186740875244140625">
        <ele>1080.5999755859375</ele>
        <time>2020-08-11T13:07:21.000Z</time>
      </trkpt>
      <trkpt lat="42.258522547781467437744140625" lon="1.39753592200577259063720703125">
        <ele>1080.5999755859375</ele>
        <time>2020-08-11T13:07:22.000Z</time>
      </trkpt>
      <trkpt lat="42.258522547781467437744140625" lon="1.397535838186740875244140625">
        <ele>1081</ele>
        <time>2020-08-11T13:08:00.000Z</time>
      </trkpt>
      <trkpt lat="42.25852246396243572235107421875" lon="1.3975329883396625518798828125">
        <ele>1080.800048828125</ele>
        <time>2020-08-11T13:08:27.000Z</time>
      </trkpt>
      <trkpt lat="42.2585240565240383148193359375" lon="1.3974562101066112518310546875">
        <ele>1080.800048828125</ele>
        <time>2020-08-11T13:08:33.000Z</time>
      </trkpt>
      <trkpt lat="42.25850100629031658172607421875" lon="1.397268287837505340576171875">
        <ele>1079.4000244140625</ele>
        <time>2020-08-11T13:08:38.000Z</time>
      </trkpt>
      <trkpt lat="42.2584378905594348907470703125" lon="1.39717164449393749237060546875">
        <ele>1078</ele>
        <time>2020-08-11T13:08:42.000Z</time>
      </trkpt>
      <trkpt lat="42.258420288562774658203125" lon="1.397148258984088897705078125">
        <ele>1077.800048828125</ele>
        <time>2020-08-11T13:08:43.000Z</time>
      </trkpt>
      <trkpt lat="42.25839388556778430938720703125" lon="1.3970672897994518280029296875">
        <ele>1076.800048828125</ele>
        <time>2020-08-11T13:08:45.000Z</time>
      </trkpt>
      <trkpt lat="42.258391119539737701416015625" lon="1.397020854055881500244140625">
        <ele>1075.5999755859375</ele>
        <time>2020-08-11T13:08:46.000Z</time>
      </trkpt>
      <trkpt lat="42.2583956457674503326416015625" lon="1.39696846716105937957763671875">
        <ele>1074.800048828125</ele>
        <time>2020-08-11T13:08:47.000Z</time>
      </trkpt>
      <trkpt lat="42.2584028542041778564453125" lon="1.3969127275049686431884765625">
        <ele>1073.800048828125</ele>
        <time>2020-08-11T13:08:48.000Z</time>
      </trkpt>
      <trkpt lat="42.25841131992638111114501953125" lon="1.39685547910630702972412109375">
        <ele>1072.800048828125</ele>
        <time>2020-08-11T13:08:49.000Z</time>
      </trkpt>
      <trkpt lat="42.2584243118762969970703125" lon="1.39673612080514430999755859375">
        <ele>1071.5999755859375</ele>
        <time>2020-08-11T13:08:51.000Z</time>
      </trkpt>
      <trkpt lat="42.258424647152423858642578125" lon="1.39657217077910900115966796875">
        <ele>1070.800048828125</ele>
        <time>2020-08-11T13:08:54.000Z</time>
      </trkpt>
      <trkpt lat="42.258414588868618011474609375" lon="1.39651970006525516510009765625">
        <ele>1070.199951171875</ele>
        <time>2020-08-11T13:08:55.000Z</time>
      </trkpt>
      <trkpt lat="42.2583867609500885009765625" lon="1.39638558961451053619384765625">
        <ele>1069</ele>
        <time>2020-08-11T13:08:58.000Z</time>
      </trkpt>
      <trkpt lat="42.25836857222020626068115234375" lon="1.396309398114681243896484375">
        <ele>1067.5999755859375</ele>
        <time>2020-08-11T13:09:00.000Z</time>
      </trkpt>
      <trkpt lat="42.25836086086928844451904296875" lon="1.39623521827161312103271484375">
        <ele>1066.4000244140625</ele>
        <time>2020-08-11T13:09:02.000Z</time>
      </trkpt>
      <trkpt lat="42.25835767574608325958251953125" lon="1.39615223743021488189697265625">
        <ele>1065.199951171875</ele>
        <time>2020-08-11T13:09:04.000Z</time>
      </trkpt>
      <trkpt lat="42.258357591927051544189453125" lon="1.3960651494562625885009765625">
        <ele>1063.5999755859375</ele>
        <time>2020-08-11T13:09:06.000Z</time>
      </trkpt>
      <trkpt lat="42.25836991332471370697021484375" lon="1.3959675841033458709716796875">
        <ele>1062.199951171875</ele>
        <time>2020-08-11T13:09:08.000Z</time>
      </trkpt>
      <trkpt lat="42.2583671472966670989990234375" lon="1.39592282474040985107421875">
        <ele>1061.5999755859375</ele>
        <time>2020-08-11T13:09:09.000Z</time>
      </trkpt>
      <trkpt lat="42.25836320780217647552490234375" lon="1.3958820886909961700439453125">
        <ele>1060.4000244140625</ele>
        <time>2020-08-11T13:09:10.000Z</time>
      </trkpt>
      <trkpt lat="42.25835482589900493621826171875" lon="1.3958103395998477935791015625">
        <ele>1059.199951171875</ele>
        <time>2020-08-11T13:09:12.000Z</time>
      </trkpt>
      <trkpt lat="42.25831501185894012451171875" lon="1.3957209885120391845703125">
        <ele>1057.4000244140625</ele>
        <time>2020-08-11T13:09:15.000Z</time>
      </trkpt>
      <trkpt lat="42.25827435962855815887451171875" lon="1.3956789113581180572509765625">
        <ele>1056.4000244140625</ele>
        <time>2020-08-11T13:09:17.000Z</time>
      </trkpt>
      <trkpt lat="42.25820906460285186767578125" lon="1.395622752606868743896484375">
        <ele>1055.4000244140625</ele>
        <time>2020-08-11T13:09:20.000Z</time>
      </trkpt>
      <trkpt lat="42.25818232633173465728759765625" lon="1.3956004567444324493408203125">
        <ele>1055</ele>
        <time>2020-08-11T13:09:21.000Z</time>
      </trkpt>
      <trkpt lat="42.2581411711871623992919921875" lon="1.39554622583091259002685546875">
        <ele>1053.800048828125</ele>
        <time>2020-08-11T13:09:23.000Z</time>
      </trkpt>
      <trkpt lat="42.2581130079925060272216796875" lon="1.3955132849514484405517578125">
        <ele>1053.199951171875</ele>
        <time>2020-08-11T13:09:25.000Z</time>
      </trkpt>
      <trkpt lat="42.25808165967464447021484375" lon="1.3954867981374263763427734375">
        <ele>1052.5999755859375</ele>
        <time>2020-08-11T13:09:27.000Z</time>
      </trkpt>
      <trkpt lat="42.2580526582896709442138671875" lon="1.395461149513721466064453125">
        <ele>1051.4000244140625</ele>
        <time>2020-08-11T13:09:29.000Z</time>
      </trkpt>
      <trkpt lat="42.258039414882659912109375" lon="1.39544648118317127227783203125">
        <ele>1051.199951171875</ele>
        <time>2020-08-11T13:09:30.000Z</time>
      </trkpt>
      <trkpt lat="42.2580211423337459564208984375" lon="1.3953684456646442413330078125">
        <ele>1050</ele>
        <time>2020-08-11T13:09:35.000Z</time>
      </trkpt>
      <trkpt lat="42.25802625529468059539794921875" lon="1.39535059221088886260986328125">
        <ele>1049.800048828125</ele>
        <time>2020-08-11T13:09:36.000Z</time>
      </trkpt>
      <trkpt lat="42.25804553367197513580322265625" lon="1.39531203545629978179931640625">
        <ele>1049</ele>
        <time>2020-08-11T13:09:39.000Z</time>
      </trkpt>
      <trkpt lat="42.258053831756114959716796875" lon="1.3953027315437793731689453125">
        <ele>1048.199951171875</ele>
        <time>2020-08-11T13:09:42.000Z</time>
      </trkpt>
      <trkpt lat="42.2580593638122081756591796875" lon="1.3952958583831787109375">
        <ele>1048</ele>
        <time>2020-08-11T13:09:43.000Z</time>
      </trkpt>
      <trkpt lat="42.25809213705360889434814453125" lon="1.395228467881679534912109375">
        <ele>1047.4000244140625</ele>
        <time>2020-08-11T13:09:47.000Z</time>
      </trkpt>
      <trkpt lat="42.2581109963357448577880859375" lon="1.3952142186462879180908203125">
        <ele>1047</ele>
        <time>2020-08-11T13:09:48.000Z</time>
      </trkpt>
      <trkpt lat="42.2582078911364078521728515625" lon="1.395172141492366790771484375">
        <ele>1046.199951171875</ele>
        <time>2020-08-11T13:09:52.000Z</time>
      </trkpt>
      <trkpt lat="42.25823848508298397064208984375" lon="1.3951719738543033599853515625">
        <ele>1045.5999755859375</ele>
        <time>2020-08-11T13:09:53.000Z</time>
      </trkpt>
      <trkpt lat="42.2583466954529285430908203125" lon="1.3952078483998775482177734375">
        <ele>1044</ele>
        <time>2020-08-11T13:09:56.000Z</time>
      </trkpt>
      <trkpt lat="42.25842070765793323516845703125" lon="1.39522519893944263458251953125">
        <ele>1042.5999755859375</ele>
        <time>2020-08-11T13:09:58.000Z</time>
      </trkpt>
      <trkpt lat="42.25849078036844730377197265625" lon="1.395229138433933258056640625">
        <ele>1041.4000244140625</ele>
        <time>2020-08-11T13:10:00.000Z</time>
      </trkpt>
      <trkpt lat="42.258552052080631256103515625" lon="1.39523827470839023590087890625">
        <ele>1039.5999755859375</ele>
        <time>2020-08-11T13:10:02.000Z</time>
      </trkpt>
      <trkpt lat="42.2585978172719478607177734375" lon="1.39524950645864009857177734375">
        <ele>1038.4000244140625</ele>
        <time>2020-08-11T13:10:04.000Z</time>
      </trkpt>
      <trkpt lat="42.25869865156710147857666015625" lon="1.39519200660288333892822265625">
        <ele>1037.5999755859375</ele>
        <time>2020-08-11T13:10:08.000Z</time>
      </trkpt>
      <trkpt lat="42.258724384009838104248046875" lon="1.39516736380755901336669921875">
        <ele>1037.199951171875</ele>
        <time>2020-08-11T13:10:09.000Z</time>
      </trkpt>
      <trkpt lat="42.25881180725991725921630859375" lon="1.39510164968669414520263671875">
        <ele>1035.4000244140625</ele>
        <time>2020-08-11T13:10:12.000Z</time>
      </trkpt>
      <trkpt lat="42.25883795879781246185302734375" lon="1.3950697146356105804443359375">
        <ele>1034.199951171875</ele>
        <time>2020-08-11T13:10:13.000Z</time>
      </trkpt>
      <trkpt lat="42.25886109285056591033935546875" lon="1.39503794722259044647216796875">
        <ele>1033.4000244140625</ele>
        <time>2020-08-11T13:10:14.000Z</time>
      </trkpt>
      <trkpt lat="42.25889059714972972869873046875" lon="1.3949989713728427886962890625">
        <ele>1033</ele>
        <time>2020-08-11T13:10:15.000Z</time>
      </trkpt>
      <trkpt lat="42.258965112268924713134765625" lon="1.3948973827064037322998046875">
        <ele>1030.5999755859375</ele>
        <time>2020-08-11T13:10:17.000Z</time>
      </trkpt>
      <trkpt lat="42.25900232791900634765625" lon="1.39483996666967868804931640625">
        <ele>1029.4000244140625</ele>
        <time>2020-08-11T13:10:18.000Z</time>
      </trkpt>
      <trkpt lat="42.2590366937220096588134765625" lon="1.3947813771665096282958984375">
        <ele>1028.199951171875</ele>
        <time>2020-08-11T13:10:19.000Z</time>
      </trkpt>
      <trkpt lat="42.25906561128795146942138671875" lon="1.39471851289272308349609375">
        <ele>1027.5999755859375</ele>
        <time>2020-08-11T13:10:20.000Z</time>
      </trkpt>
      <trkpt lat="42.2590886615216732025146484375" lon="1.39465640299022197723388671875">
        <ele>1027</ele>
        <time>2020-08-11T13:10:21.000Z</time>
      </trkpt>
      <trkpt lat="42.259143479168415069580078125" lon="1.39455431140959262847900390625">
        <ele>1026.199951171875</ele>
        <time>2020-08-11T13:10:23.000Z</time>
      </trkpt>
      <trkpt lat="42.25917642004787921905517578125" lon="1.39450351707637310028076171875">
        <ele>1025.199951171875</ele>
        <time>2020-08-11T13:10:24.000Z</time>
      </trkpt>
      <trkpt lat="42.25920282304286956787109375" lon="1.3944464363157749176025390625">
        <ele>1024.4000244140625</ele>
        <time>2020-08-11T13:10:25.000Z</time>
      </trkpt>
      <trkpt lat="42.25922972895205020904541015625" lon="1.394370496273040771484375">
        <ele>1023.5999755859375</ele>
        <time>2020-08-11T13:10:26.000Z</time>
      </trkpt>
      <trkpt lat="42.25925537757575511932373046875" lon="1.39429313130676746368408203125">
        <ele>1023</ele>
        <time>2020-08-11T13:10:27.000Z</time>
      </trkpt>
      <trkpt lat="42.25933534093201160430908203125" lon="1.39408509247004985809326171875">
        <ele>1022.20001220703125</ele>
        <time>2020-08-11T13:10:30.000Z</time>
      </trkpt>
      <trkpt lat="42.2593753226101398468017578125" lon="1.3940350525081157684326171875">
        <ele>1021.79998779296875</ele>
        <time>2020-08-11T13:10:31.000Z</time>
      </trkpt>
      <trkpt lat="42.259411029517650604248046875" lon="1.39397981576621532440185546875">
        <ele>1021.20001220703125</ele>
        <time>2020-08-11T13:10:32.000Z</time>
      </trkpt>
      <trkpt lat="42.2595060802996158599853515625" lon="1.39382743276655673980712890625">
        <ele>1020</ele>
        <time>2020-08-11T13:10:35.000Z</time>
      </trkpt>
      <trkpt lat="42.25958461873233318328857421875" lon="1.39370790682733058929443359375">
        <ele>1018.79998779296875</ele>
        <time>2020-08-11T13:10:37.000Z</time>
      </trkpt>
      <trkpt lat="42.25966089405119419097900390625" lon="1.393581591546535491943359375">
        <ele>1017</ele>
        <time>2020-08-11T13:10:39.000Z</time>
      </trkpt>
      <trkpt lat="42.25969769060611724853515625" lon="1.39352316968142986297607421875">
        <ele>1016.4000244140625</ele>
        <time>2020-08-11T13:10:40.000Z</time>
      </trkpt>
      <trkpt lat="42.2597810067236423492431640625" lon="1.39345041476190090179443359375">
        <ele>1016.20001220703125</ele>
        <time>2020-08-11T13:10:42.000Z</time>
      </trkpt>
      <trkpt lat="42.259864322841167449951171875" lon="1.39342761598527431488037109375">
        <ele>1016.5999755859375</ele>
        <time>2020-08-11T13:10:44.000Z</time>
      </trkpt>
      <trkpt lat="42.259968258440494537353515625" lon="1.39339090324938297271728515625">
        <ele>1017</ele>
        <time>2020-08-11T13:10:47.000Z</time>
      </trkpt>
      <trkpt lat="42.26009625010192394256591796875" lon="1.3933311402797698974609375">
        <ele>1017</ele>
        <time>2020-08-11T13:10:52.000Z</time>
      </trkpt>
      <trkpt lat="42.26018023677170276641845703125" lon="1.39322460629045963287353515625">
        <ele>1018.20001220703125</ele>
        <time>2020-08-11T13:10:58.000Z</time>
      </trkpt>
      <trkpt lat="42.26018593646585941314697265625" lon="1.3931955210864543914794921875">
        <ele>1018.20001220703125</ele>
        <time>2020-08-11T13:10:59.000Z</time>
      </trkpt>
      <trkpt lat="42.26022533141076564788818359375" lon="1.393013298511505126953125">
        <ele>1018.4000244140625</ele>
        <time>2020-08-11T13:11:04.000Z</time>
      </trkpt>
      <trkpt lat="42.26028199307620525360107421875" lon="1.39288312755525112152099609375">
        <ele>1018.20001220703125</ele>
        <time>2020-08-11T13:11:07.000Z</time>
      </trkpt>
      <trkpt lat="42.26033882237970829010009765625" lon="1.3927985541522502899169921875">
        <ele>1017.79998779296875</ele>
        <time>2020-08-11T13:11:09.000Z</time>
      </trkpt>
      <trkpt lat="42.26040780544281005859375" lon="1.39273166656494140625">
        <ele>1017.20001220703125</ele>
        <time>2020-08-11T13:11:11.000Z</time>
      </trkpt>
      <trkpt lat="42.2604844160377979278564453125" lon="1.3926900923252105712890625">
        <ele>1017</ele>
        <time>2020-08-11T13:11:13.000Z</time>
      </trkpt>
      <trkpt lat="42.2606171853840351104736328125" lon="1.392625384032726287841796875">
        <ele>1017</ele>
        <time>2020-08-11T13:11:18.000Z</time>
      </trkpt>
      <trkpt lat="42.26076596416532993316650390625" lon="1.3925665430724620819091796875">
        <ele>1018</ele>
        <time>2020-08-11T13:11:25.000Z</time>
      </trkpt>
      <trkpt lat="42.2607858292758464813232421875" lon="1.392558328807353973388671875">
        <ele>1018.4000244140625</ele>
        <time>2020-08-11T13:11:26.000Z</time>
      </trkpt>
      <trkpt lat="42.26092136465013027191162109375" lon="1.39247828163206577301025390625">
        <ele>1019</ele>
        <time>2020-08-11T13:11:33.000Z</time>
      </trkpt>
      <trkpt lat="42.26109252311289310455322265625" lon="1.3924160040915012359619140625">
        <ele>1018.79998779296875</ele>
        <time>2020-08-11T13:11:40.000Z</time>
      </trkpt>
      <trkpt lat="42.26125814951956272125244140625" lon="1.3923724181950092315673828125">
        <ele>1019.20001220703125</ele>
        <time>2020-08-11T13:11:47.000Z</time>
      </trkpt>
      <trkpt lat="42.26136929355561733245849609375" lon="1.3922279141843318939208984375">
        <ele>1018.5999755859375</ele>
        <time>2020-08-11T13:11:54.000Z</time>
      </trkpt>
      <trkpt lat="42.26145847700536251068115234375" lon="1.39210260473191738128662109375">
        <ele>1018.4000244140625</ele>
        <time>2020-08-11T13:12:00.000Z</time>
      </trkpt>
      <trkpt lat="42.26151849143207073211669921875" lon="1.39197193086147308349609375">
        <ele>1018.20001220703125</ele>
        <time>2020-08-11T13:12:06.000Z</time>
      </trkpt>
      <trkpt lat="42.2615029849112033843994140625" lon="1.3917940668761730194091796875">
        <ele>1017.20001220703125</ele>
        <time>2020-08-11T13:12:11.000Z</time>
      </trkpt>
      <trkpt lat="42.26146887056529521942138671875" lon="1.391718797385692596435546875">
        <ele>1016</ele>
        <time>2020-08-11T13:12:13.000Z</time>
      </trkpt>
      <trkpt lat="42.2614402882754802703857421875" lon="1.3916334696114063262939453125">
        <ele>1015</ele>
        <time>2020-08-11T13:12:15.000Z</time>
      </trkpt>
      <trkpt lat="42.26141639985144138336181640625" lon="1.39144915156066417694091796875">
        <ele>1013.79998779296875</ele>
        <time>2020-08-11T13:12:19.000Z</time>
      </trkpt>
      <trkpt lat="42.26141254417598247528076171875" lon="1.3914001174271106719970703125">
        <ele>1013.20001220703125</ele>
        <time>2020-08-11T13:12:20.000Z</time>
      </trkpt>
      <trkpt lat="42.2614198364317417144775390625" lon="1.391290985047817230224609375">
        <ele>1012.4000244140625</ele>
        <time>2020-08-11T13:12:22.000Z</time>
      </trkpt>
      <trkpt lat="42.26143844425678253173828125" lon="1.3911704532802104949951171875">
        <ele>1011.20001220703125</ele>
        <time>2020-08-11T13:12:24.000Z</time>
      </trkpt>
      <trkpt lat="42.2614560462534427642822265625" lon="1.3911127857863903045654296875">
        <ele>1010.20001220703125</ele>
        <time>2020-08-11T13:12:25.000Z</time>
      </trkpt>
      <trkpt lat="42.26150860078632831573486328125" lon="1.39101915992796421051025390625">
        <ele>1008.5999755859375</ele>
        <time>2020-08-11T13:12:27.000Z</time>
      </trkpt>
      <trkpt lat="42.2615415416657924652099609375" lon="1.390977166593074798583984375">
        <ele>1007.79998779296875</ele>
        <time>2020-08-11T13:12:28.000Z</time>
      </trkpt>
      <trkpt lat="42.26157733239233493804931640625" lon="1.390932239592075347900390625">
        <ele>1007.5999755859375</ele>
        <time>2020-08-11T13:12:29.000Z</time>
      </trkpt>
      <trkpt lat="42.26164162158966064453125" lon="1.39083744026720523834228515625">
        <ele>1007.4000244140625</ele>
        <time>2020-08-11T13:12:31.000Z</time>
      </trkpt>
      <trkpt lat="42.26169886998832225799560546875" lon="1.390728056430816650390625">
        <ele>1006</ele>
        <time>2020-08-11T13:12:33.000Z</time>
      </trkpt>
      <trkpt lat="42.26172820664942264556884765625" lon="1.39066779054701328277587890625">
        <ele>1005.4000244140625</ele>
        <time>2020-08-11T13:12:34.000Z</time>
      </trkpt>
      <trkpt lat="42.26175536401569843292236328125" lon="1.3906095363199710845947265625">
        <ele>1004.79998779296875</ele>
        <time>2020-08-11T13:12:35.000Z</time>
      </trkpt>
      <trkpt lat="42.2618064098060131072998046875" lon="1.3904878310859203338623046875">
        <ele>1003.4000244140625</ele>
        <time>2020-08-11T13:12:37.000Z</time>
      </trkpt>
      <trkpt lat="42.2618744708597660064697265625" lon="1.39031700789928436279296875">
        <ele>1002.5999755859375</ele>
        <time>2020-08-11T13:12:40.000Z</time>
      </trkpt>
      <trkpt lat="42.26189282722771167755126953125" lon="1.39026730321347713470458984375">
        <ele>1002</ele>
        <time>2020-08-11T13:12:41.000Z</time>
      </trkpt>
      <trkpt lat="42.26192568428814411163330078125" lon="1.39016269706189632415771484375">
        <ele>1001.4000244140625</ele>
        <time>2020-08-11T13:12:43.000Z</time>
      </trkpt>
      <trkpt lat="42.261933982372283935546875" lon="1.3901089690625667572021484375">
        <ele>1001</ele>
        <time>2020-08-11T13:12:44.000Z</time>
      </trkpt>
      <trkpt lat="42.26193574257194995880126953125" lon="1.38999975286424160003662109375">
        <ele>999.5999755859375</ele>
        <time>2020-08-11T13:12:46.000Z</time>
      </trkpt>
      <trkpt lat="42.2619140334427356719970703125" lon="1.3898823224008083343505859375">
        <ele>998.79998779296875</ele>
        <time>2020-08-11T13:12:48.000Z</time>
      </trkpt>
      <trkpt lat="42.26190187968313694000244140625" lon="1.38982616364955902099609375">
        <ele>998.20001220703125</ele>
        <time>2020-08-11T13:12:49.000Z</time>
      </trkpt>
      <trkpt lat="42.26188092492520809173583984375" lon="1.38972516171634197235107421875">
        <ele>997.20001220703125</ele>
        <time>2020-08-11T13:12:51.000Z</time>
      </trkpt>
      <trkpt lat="42.26188494823873043060302734375" lon="1.38960446231067180633544921875">
        <ele>995.5999755859375</ele>
        <time>2020-08-11T13:12:54.000Z</time>
      </trkpt>
      <trkpt lat="42.26190020330250263214111328125" lon="1.389578394591808319091796875">
        <ele>995.20001220703125</ele>
        <time>2020-08-11T13:12:55.000Z</time>
      </trkpt>
      <trkpt lat="42.2619380056858062744140625" lon="1.38955593109130859375">
        <ele>994.5999755859375</ele>
        <time>2020-08-11T13:12:57.000Z</time>
      </trkpt>
      <trkpt lat="42.26197480224072933197021484375" lon="1.38956741429865360260009765625">
        <ele>994.4000244140625</ele>
        <time>2020-08-11T13:12:59.000Z</time>
      </trkpt>
      <trkpt lat="42.26202224381268024444580078125" lon="1.389614604413509368896484375">
        <ele>993.79998779296875</ele>
        <time>2020-08-11T13:13:01.000Z</time>
      </trkpt>
      <trkpt lat="42.262048311531543731689453125" lon="1.38964469544589519500732421875">
        <ele>993.4000244140625</ele>
        <time>2020-08-11T13:13:02.000Z</time>
      </trkpt>
      <trkpt lat="42.2620729543268680572509765625" lon="1.3896804861724376678466796875">
        <ele>993</ele>
        <time>2020-08-11T13:13:03.000Z</time>
      </trkpt>
      <trkpt lat="42.26215199567377567291259765625" lon="1.38979758135974407196044921875">
        <ele>992.20001220703125</ele>
        <time>2020-08-11T13:13:06.000Z</time>
      </trkpt>
      <trkpt lat="42.262185774743556976318359375" lon="1.3898273371160030364990234375">
        <ele>991.79998779296875</ele>
        <time>2020-08-11T13:13:07.000Z</time>
      </trkpt>
      <trkpt lat="42.26222206838428974151611328125" lon="1.3898534886538982391357421875">
        <ele>991.4000244140625</ele>
        <time>2020-08-11T13:13:08.000Z</time>
      </trkpt>
      <trkpt lat="42.2622603736817836761474609375" lon="1.38987067155539989471435546875">
        <ele>990.4000244140625</ele>
        <time>2020-08-11T13:13:09.000Z</time>
      </trkpt>
      <trkpt lat="42.262338660657405853271484375" lon="1.38987184502184391021728515625">
        <ele>989.20001220703125</ele>
        <time>2020-08-11T13:13:11.000Z</time>
      </trkpt>
      <trkpt lat="42.262380234897136688232421875" lon="1.38985826633870601654052734375">
        <ele>988.4000244140625</ele>
        <time>2020-08-11T13:13:12.000Z</time>
      </trkpt>
      <trkpt lat="42.26241854019463062286376953125" lon="1.38983462937176227569580078125">
        <ele>988</ele>
        <time>2020-08-11T13:13:13.000Z</time>
      </trkpt>
      <trkpt lat="42.26248056627810001373291015625" lon="1.3897705078125">
        <ele>986.5999755859375</ele>
        <time>2020-08-11T13:13:15.000Z</time>
      </trkpt>
      <trkpt lat="42.26250755600631237030029296875" lon="1.3897348009049892425537109375">
        <ele>986.20001220703125</ele>
        <time>2020-08-11T13:13:16.000Z</time>
      </trkpt>
      <trkpt lat="42.2625361382961273193359375" lon="1.38966950587928295135498046875">
        <ele>985</ele>
        <time>2020-08-11T13:13:18.000Z</time>
      </trkpt>
      <trkpt lat="42.26254460401833057403564453125" lon="1.38963975012302398681640625">
        <ele>984.4000244140625</ele>
        <time>2020-08-11T13:13:19.000Z</time>
      </trkpt>
      <trkpt lat="42.26255013607442378997802734375" lon="1.389609239995479583740234375">
        <ele>983.79998779296875</ele>
        <time>2020-08-11T13:13:20.000Z</time>
      </trkpt>
      <trkpt lat="42.26255080662667751312255859375" lon="1.38954947702586650848388671875">
        <ele>982.4000244140625</ele>
        <time>2020-08-11T13:13:22.000Z</time>
      </trkpt>
      <trkpt lat="42.26253353990614414215087890625" lon="1.3894719444215297698974609375">
        <ele>981</ele>
        <time>2020-08-11T13:13:25.000Z</time>
      </trkpt>
      <trkpt lat="42.26251803338527679443359375" lon="1.38944260776042938232421875">
        <ele>980.79998779296875</ele>
        <time>2020-08-11T13:13:26.000Z</time>
      </trkpt>
      <trkpt lat="42.2624461166560649871826171875" lon="1.3893589563667774200439453125">
        <ele>979.20001220703125</ele>
        <time>2020-08-11T13:13:29.000Z</time>
      </trkpt>
      <trkpt lat="42.26239196956157684326171875" lon="1.38929148204624652862548828125">
        <ele>977.79998779296875</ele>
        <time>2020-08-11T13:13:31.000Z</time>
      </trkpt>
      <trkpt lat="42.26235232315957546234130859375" lon="1.3892060704529285430908203125">
        <ele>976.79998779296875</ele>
        <time>2020-08-11T13:13:33.000Z</time>
      </trkpt>
      <trkpt lat="42.26232231594622135162353515625" lon="1.38911076821386814117431640625">
        <ele>975.20001220703125</ele>
        <time>2020-08-11T13:13:35.000Z</time>
      </trkpt>
      <trkpt lat="42.26229608058929443359375" lon="1.38900733552873134613037109375">
        <ele>973</ele>
        <time>2020-08-11T13:13:37.000Z</time>
      </trkpt>
      <trkpt lat="42.26226196624338626861572265625" lon="1.38883383013308048248291015625">
        <ele>971.79998779296875</ele>
        <time>2020-08-11T13:13:40.000Z</time>
      </trkpt>
      <trkpt lat="42.26223296485841274261474609375" lon="1.38865998946130275726318359375">
        <ele>971.20001220703125</ele>
        <time>2020-08-11T13:13:43.000Z</time>
      </trkpt>
      <trkpt lat="42.262228019535541534423828125" lon="1.3886035792529582977294921875">
        <ele>970.5999755859375</ele>
        <time>2020-08-11T13:13:44.000Z</time>
      </trkpt>
      <trkpt lat="42.262225337326526641845703125" lon="1.38855203054845333099365234375">
        <ele>969.5999755859375</ele>
        <time>2020-08-11T13:13:45.000Z</time>
      </trkpt>
      <trkpt lat="42.26222324185073375701904296875" lon="1.388501822948455810546875">
        <ele>969</ele>
        <time>2020-08-11T13:13:46.000Z</time>
      </trkpt>
      <trkpt lat="42.2622285224497318267822265625" lon="1.38839629478752613067626953125">
        <ele>967.5999755859375</ele>
        <time>2020-08-11T13:13:48.000Z</time>
      </trkpt>
      <trkpt lat="42.2622348926961421966552734375" lon="1.38834424316883087158203125">
        <ele>967</ele>
        <time>2020-08-11T13:13:49.000Z</time>
      </trkpt>
      <trkpt lat="42.2622442804276943206787109375" lon="1.38829135335981845855712890625">
        <ele>966.20001220703125</ele>
        <time>2020-08-11T13:13:50.000Z</time>
      </trkpt>
      <trkpt lat="42.262255847454071044921875" lon="1.38823636807501316070556640625">
        <ele>965.79998779296875</ele>
        <time>2020-08-11T13:13:51.000Z</time>
      </trkpt>
      <trkpt lat="42.26227127015590667724609375" lon="1.38817769475281238555908203125">
        <ele>965</ele>
        <time>2020-08-11T13:13:52.000Z</time>
      </trkpt>
      <trkpt lat="42.26231242530047893524169921875" lon="1.38805858790874481201171875">
        <ele>964</ele>
        <time>2020-08-11T13:13:54.000Z</time>
      </trkpt>
      <trkpt lat="42.26234972476959228515625" lon="1.387938894331455230712890625">
        <ele>962.4000244140625</ele>
        <time>2020-08-11T13:13:56.000Z</time>
      </trkpt>
      <trkpt lat="42.2623599506914615631103515625" lon="1.38789891265332698822021484375">
        <ele>961</ele>
        <time>2020-08-11T13:13:57.000Z</time>
      </trkpt>
      <trkpt lat="42.262376211583614349365234375" lon="1.38783068396151065826416015625">
        <ele>959.4000244140625</ele>
        <time>2020-08-11T13:13:59.000Z</time>
      </trkpt>
      <trkpt lat="42.26238534785807132720947265625" lon="1.38778500258922576904296875">
        <ele>959</ele>
        <time>2020-08-11T13:14:00.000Z</time>
      </trkpt>
      <trkpt lat="42.2623961605131626129150390625" lon="1.3877338729798793792724609375">
        <ele>958.20001220703125</ele>
        <time>2020-08-11T13:14:01.000Z</time>
      </trkpt>
      <trkpt lat="42.26245726458728313446044921875" lon="1.3874478824436664581298828125">
        <ele>957.4000244140625</ele>
        <time>2020-08-11T13:14:05.000Z</time>
      </trkpt>
      <trkpt lat="42.2624739445745944976806640625" lon="1.38737420551478862762451171875">
        <ele>957.20001220703125</ele>
        <time>2020-08-11T13:14:06.000Z</time>
      </trkpt>
      <trkpt lat="42.26251459680497646331787109375" lon="1.38718108646571636199951171875">
        <ele>956.20001220703125</ele>
        <time>2020-08-11T13:14:09.000Z</time>
      </trkpt>
      <trkpt lat="42.2625279240310192108154296875" lon="1.38711939565837383270263671875">
        <ele>955.79998779296875</ele>
        <time>2020-08-11T13:14:10.000Z</time>
      </trkpt>
      <trkpt lat="42.26255063898861408233642578125" lon="1.387000791728496551513671875">
        <ele>954.79998779296875</ele>
        <time>2020-08-11T13:14:12.000Z</time>
      </trkpt>
      <trkpt lat="42.26260646246373653411865234375" lon="1.38675243593752384185791015625">
        <ele>953.5999755859375</ele>
        <time>2020-08-11T13:14:17.000Z</time>
      </trkpt>
      <trkpt lat="42.26260394789278507232666015625" lon="1.38660424388945102691650390625">
        <ele>952.79998779296875</ele>
        <time>2020-08-11T13:14:20.000Z</time>
      </trkpt>
      <trkpt lat="42.2625876031816005706787109375" lon="1.38654791750013828277587890625">
        <ele>952.5999755859375</ele>
        <time>2020-08-11T13:14:21.000Z</time>
      </trkpt>
      <trkpt lat="42.2624964080750942230224609375" lon="1.386414729058742523193359375">
        <ele>951.4000244140625</ele>
        <time>2020-08-11T13:14:24.000Z</time>
      </trkpt>
      <trkpt lat="42.2624638862907886505126953125" lon="1.38638631440699100494384765625">
        <ele>951</ele>
        <time>2020-08-11T13:14:25.000Z</time>
      </trkpt>
      <trkpt lat="42.2622989304363727569580078125" lon="1.38626343570649623870849609375">
        <ele>951.20001220703125</ele>
        <time>2020-08-11T13:14:31.000Z</time>
      </trkpt>
      <trkpt lat="42.262234054505825042724609375" lon="1.38610602356493473052978515625">
        <ele>951.5999755859375</ele>
        <time>2020-08-11T13:14:36.000Z</time>
      </trkpt>
      <trkpt lat="42.26224537007510662078857421875" lon="1.385921202600002288818359375">
        <ele>952</ele>
        <time>2020-08-11T13:14:41.000Z</time>
      </trkpt>
      <trkpt lat="42.26230236701667308807373046875" lon="1.38579119928181171417236328125">
        <ele>950.79998779296875</ele>
        <time>2020-08-11T13:14:45.000Z</time>
      </trkpt>
      <trkpt lat="42.26232231594622135162353515625" lon="1.38577326200902462005615234375">
        <ele>950.20001220703125</ele>
        <time>2020-08-11T13:14:46.000Z</time>
      </trkpt>
      <trkpt lat="42.26238702423870563507080078125" lon="1.38570888899266719818115234375">
        <ele>948.79998779296875</ele>
        <time>2020-08-11T13:14:49.000Z</time>
      </trkpt>
      <trkpt lat="42.26244083605706691741943359375" lon="1.38565960340201854705810546875">
        <ele>948</ele>
        <time>2020-08-11T13:14:51.000Z</time>
      </trkpt>
      <trkpt lat="42.26246782578527927398681640625" lon="1.385636217892169952392578125">
        <ele>947.4000244140625</ele>
        <time>2020-08-11T13:14:52.000Z</time>
      </trkpt>
      <trkpt lat="42.26251761429011821746826171875" lon="1.38558416627347469329833984375">
        <ele>946</ele>
        <time>2020-08-11T13:14:54.000Z</time>
      </trkpt>
      <trkpt lat="42.2625611163675785064697265625" lon="1.385524570941925048828125">
        <ele>945</ele>
        <time>2020-08-11T13:14:56.000Z</time>
      </trkpt>
      <trkpt lat="42.2625849209725856781005859375" lon="1.38549079187214374542236328125">
        <ele>944.4000244140625</ele>
        <time>2020-08-11T13:14:57.000Z</time>
      </trkpt>
      <trkpt lat="42.26263747550547122955322265625" lon="1.3854090683162212371826171875">
        <ele>943.5999755859375</ele>
        <time>2020-08-11T13:14:59.000Z</time>
      </trkpt>
      <trkpt lat="42.26267385296523571014404296875" lon="1.38532600365579128265380859375">
        <ele>942.4000244140625</ele>
        <time>2020-08-11T13:15:01.000Z</time>
      </trkpt>
      <trkpt lat="42.26268994621932506561279296875" lon="1.385285854339599609375">
        <ele>941.5999755859375</ele>
        <time>2020-08-11T13:15:02.000Z</time>
      </trkpt>
      <trkpt lat="42.26270444691181182861328125" lon="1.385245956480503082275390625">
        <ele>940.4000244140625</ele>
        <time>2020-08-11T13:15:03.000Z</time>
      </trkpt>
      <trkpt lat="42.26273939944803714752197265625" lon="1.38516180217266082763671875">
        <ele>939</ele>
        <time>2020-08-11T13:15:05.000Z</time>
      </trkpt>
      <trkpt lat="42.26277980022132396697998046875" lon="1.3850618898868560791015625">
        <ele>937.79998779296875</ele>
        <time>2020-08-11T13:15:07.000Z</time>
      </trkpt>
      <trkpt lat="42.26281668059527873992919921875" lon="1.384951584041118621826171875">
        <ele>936.4000244140625</ele>
        <time>2020-08-11T13:15:09.000Z</time>
      </trkpt>
      <trkpt lat="42.26285674609243869781494140625" lon="1.38483214192092418670654296875">
        <ele>934.5999755859375</ele>
        <time>2020-08-11T13:15:11.000Z</time>
      </trkpt>
      <trkpt lat="42.262894213199615478515625" lon="1.38471244834363460540771484375">
        <ele>933.20001220703125</ele>
        <time>2020-08-11T13:15:13.000Z</time>
      </trkpt>
      <trkpt lat="42.26290971972048282623291015625" lon="1.38465796597301959991455078125">
        <ele>933</ele>
        <time>2020-08-11T13:15:14.000Z</time>
      </trkpt>
      <trkpt lat="42.26295397616922855377197265625" lon="1.384491585195064544677734375">
        <ele>932.20001220703125</ele>
        <time>2020-08-11T13:15:17.000Z</time>
      </trkpt>
      <trkpt lat="42.26299001835286617279052734375" lon="1.38437666930258274078369140625">
        <ele>931.5999755859375</ele>
        <time>2020-08-11T13:15:19.000Z</time>
      </trkpt>
      <trkpt lat="42.2630385495722293853759765625" lon="1.38426803983747959136962890625">
        <ele>930.5999755859375</ele>
        <time>2020-08-11T13:15:21.000Z</time>
      </trkpt>
      <trkpt lat="42.2631109692156314849853515625" lon="1.38411565683782100677490234375">
        <ele>929.20001220703125</ele>
        <time>2020-08-11T13:15:24.000Z</time>
      </trkpt>
      <trkpt lat="42.263146340847015380859375" lon="1.384024210274219512939453125">
        <ele>928</ele>
        <time>2020-08-11T13:15:26.000Z</time>
      </trkpt>
      <trkpt lat="42.263173162937164306640625" lon="1.38393494300544261932373046875">
        <ele>926.20001220703125</ele>
        <time>2020-08-11T13:15:28.000Z</time>
      </trkpt>
      <trkpt lat="42.263188920915126800537109375" lon="1.3838978111743927001953125">
        <ele>925.4000244140625</ele>
        <time>2020-08-11T13:15:29.000Z</time>
      </trkpt>
      <trkpt lat="42.2632095403969287872314453125" lon="1.38385732658207416534423828125">
        <ele>924.79998779296875</ele>
        <time>2020-08-11T13:15:30.000Z</time>
      </trkpt>
      <trkpt lat="42.263232171535491943359375" lon="1.3838094659149646759033203125">
        <ele>924.5999755859375</ele>
        <time>2020-08-11T13:15:31.000Z</time>
      </trkpt>
      <trkpt lat="42.26327634416520595550537109375" lon="1.3837119005620479583740234375">
        <ele>923.79998779296875</ele>
        <time>2020-08-11T13:15:33.000Z</time>
      </trkpt>
      <trkpt lat="42.26333870552480220794677734375" lon="1.383590362966060638427734375">
        <ele>922.4000244140625</ele>
        <time>2020-08-11T13:15:36.000Z</time>
      </trkpt>
      <trkpt lat="42.26335513405501842498779296875" lon="1.38354987837374210357666015625">
        <ele>921.79998779296875</ele>
        <time>2020-08-11T13:15:37.000Z</time>
      </trkpt>
      <trkpt lat="42.2633718140423297882080078125" lon="1.3835103996098041534423828125">
        <ele>921</ele>
        <time>2020-08-11T13:15:38.000Z</time>
      </trkpt>
      <trkpt lat="42.26338933221995830535888671875" lon="1.38346538878977298736572265625">
        <ele>919.79998779296875</ele>
        <time>2020-08-11T13:15:39.000Z</time>
      </trkpt>
      <trkpt lat="42.2634351812303066253662109375" lon="1.3833747804164886474609375">
        <ele>918.79998779296875</ele>
        <time>2020-08-11T13:15:41.000Z</time>
      </trkpt>
      <trkpt lat="42.2634569741785526275634765625" lon="1.38332591392099857330322265625">
        <ele>918.4000244140625</ele>
        <time>2020-08-11T13:15:42.000Z</time>
      </trkpt>
      <trkpt lat="42.26348957978188991546630859375" lon="1.38322801329195499420166015625">
        <ele>917.5999755859375</ele>
        <time>2020-08-11T13:15:44.000Z</time>
      </trkpt>
      <trkpt lat="42.26352478377521038055419921875" lon="1.38313430361449718475341796875">
        <ele>916</ele>
        <time>2020-08-11T13:15:46.000Z</time>
      </trkpt>
      <trkpt lat="42.263543307781219482421875" lon="1.383084766566753387451171875">
        <ele>915.20001220703125</ele>
        <time>2020-08-11T13:15:47.000Z</time>
      </trkpt>
      <trkpt lat="42.26355873048305511474609375" lon="1.38304277323186397552490234375">
        <ele>914.4000244140625</ele>
        <time>2020-08-11T13:15:48.000Z</time>
      </trkpt>
      <trkpt lat="42.26360491476953029632568359375" lon="1.38291134499013423919677734375">
        <ele>913</ele>
        <time>2020-08-11T13:15:51.000Z</time>
      </trkpt>
      <trkpt lat="42.263635508716106414794921875" lon="1.382805816829204559326171875">
        <ele>911.79998779296875</ele>
        <time>2020-08-11T13:15:53.000Z</time>
      </trkpt>
      <trkpt lat="42.26367347873747348785400390625" lon="1.38263775967061519622802734375">
        <ele>910.4000244140625</ele>
        <time>2020-08-11T13:15:56.000Z</time>
      </trkpt>
      <trkpt lat="42.26370817981660366058349609375" lon="1.3824576325714588165283203125">
        <ele>908.79998779296875</ele>
        <time>2020-08-11T13:15:59.000Z</time>
      </trkpt>
      <trkpt lat="42.26372745819389820098876953125" lon="1.38233869336545467376708984375">
        <ele>907.4000244140625</ele>
        <time>2020-08-11T13:16:01.000Z</time>
      </trkpt>
      <trkpt lat="42.263750173151493072509765625" lon="1.38216770254075527191162109375">
        <ele>905.79998779296875</ele>
        <time>2020-08-11T13:16:04.000Z</time>
      </trkpt>
      <trkpt lat="42.26375050842761993408203125" lon="1.382109783589839935302734375">
        <ele>905.4000244140625</ele>
        <time>2020-08-11T13:16:05.000Z</time>
      </trkpt>
      <trkpt lat="42.26374740712344646453857421875" lon="1.382050774991512298583984375">
        <ele>904.79998779296875</ele>
        <time>2020-08-11T13:16:06.000Z</time>
      </trkpt>
      <trkpt lat="42.2637409530580043792724609375" lon="1.38198967091739177703857421875">
        <ele>904.4000244140625</ele>
        <time>2020-08-11T13:16:07.000Z</time>
      </trkpt>
      <trkpt lat="42.2637228481471538543701171875" lon="1.38187383301556110382080078125">
        <ele>903.5999755859375</ele>
        <time>2020-08-11T13:16:09.000Z</time>
      </trkpt>
      <trkpt lat="42.2637060843408107757568359375" lon="1.38175011612474918365478515625">
        <ele>903.5999755859375</ele>
        <time>2020-08-11T13:16:11.000Z</time>
      </trkpt>
      <trkpt lat="42.26369929499924182891845703125" lon="1.381628327071666717529296875">
        <ele>902.5999755859375</ele>
        <time>2020-08-11T13:16:13.000Z</time>
      </trkpt>
      <trkpt lat="42.26369543932378292083740234375" lon="1.38152011670172214508056640625">
        <ele>901</ele>
        <time>2020-08-11T13:16:15.000Z</time>
      </trkpt>
      <trkpt lat="42.263688147068023681640625" lon="1.3814078830182552337646484375">
        <ele>899.79998779296875</ele>
        <time>2020-08-11T13:16:17.000Z</time>
      </trkpt>
      <trkpt lat="42.26368051953613758087158203125" lon="1.38130755163729190826416015625">
        <ele>899.20001220703125</ele>
        <time>2020-08-11T13:16:19.000Z</time>
      </trkpt>
      <trkpt lat="42.2636732272803783416748046875" lon="1.3812117464840412139892578125">
        <ele>898.4000244140625</ele>
        <time>2020-08-11T13:16:21.000Z</time>
      </trkpt>
      <trkpt lat="42.26364430971443653106689453125" lon="1.38099767267704010009765625">
        <ele>896.5999755859375</ele>
        <time>2020-08-11T13:16:25.000Z</time>
      </trkpt>
      <trkpt lat="42.26363676600158214569091796875" lon="1.38095014728605747222900390625">
        <ele>895.5999755859375</ele>
        <time>2020-08-11T13:16:26.000Z</time>
      </trkpt>
      <trkpt lat="42.26363508962094783782958984375" lon="1.3809053041040897369384765625">
        <ele>894.4000244140625</ele>
        <time>2020-08-11T13:16:27.000Z</time>
      </trkpt>
      <trkpt lat="42.2636407054960727691650390625" lon="1.3808615505695343017578125">
        <ele>893.20001220703125</ele>
        <time>2020-08-11T13:16:28.000Z</time>
      </trkpt>
      <trkpt lat="42.26367901079356670379638671875" lon="1.380783431231975555419921875">
        <ele>892.20001220703125</ele>
        <time>2020-08-11T13:16:30.000Z</time>
      </trkpt>
      <trkpt lat="42.2637091018259525299072265625" lon="1.38075468130409717559814453125">
        <ele>892</ele>
        <time>2020-08-11T13:16:31.000Z</time>
      </trkpt>
      <trkpt lat="42.2638130374252796173095703125" lon="1.38071511872112751007080078125">
        <ele>891.5999755859375</ele>
        <time>2020-08-11T13:16:34.000Z</time>
      </trkpt>
      <trkpt lat="42.263849414885044097900390625" lon="1.3807061500847339630126953125">
        <ele>890.79998779296875</ele>
        <time>2020-08-11T13:16:35.000Z</time>
      </trkpt>
      <trkpt lat="42.26399098522961139678955078125" lon="1.3806711137294769287109375">
        <ele>889.79998779296875</ele>
        <time>2020-08-11T13:16:39.000Z</time>
      </trkpt>
      <trkpt lat="42.2640507481992244720458984375" lon="1.38064839877188205718994140625">
        <ele>888.4000244140625</ele>
        <time>2020-08-11T13:16:41.000Z</time>
      </trkpt>
      <trkpt lat="42.264135070145130157470703125" lon="1.38058905489742755889892578125">
        <ele>887.20001220703125</ele>
        <time>2020-08-11T13:16:44.000Z</time>
      </trkpt>
      <trkpt lat="42.26421260274946689605712890625" lon="1.3804900646209716796875">
        <ele>886.4000244140625</ele>
        <time>2020-08-11T13:16:47.000Z</time>
      </trkpt>
      <trkpt lat="42.2642348147928714752197265625" lon="1.38044781982898712158203125">
        <ele>886</ele>
        <time>2020-08-11T13:16:48.000Z</time>
      </trkpt>
      <trkpt lat="42.26426926441490650177001953125" lon="1.38035922311246395111083984375">
        <ele>884.5999755859375</ele>
        <time>2020-08-11T13:16:50.000Z</time>
      </trkpt>
      <trkpt lat="42.26429457776248455047607421875" lon="1.380251012742519378662109375">
        <ele>883.79998779296875</ele>
        <time>2020-08-11T13:16:52.000Z</time>
      </trkpt>
      <trkpt lat="42.2643159516155719757080078125" lon="1.38013140298426151275634765625">
        <ele>883</ele>
        <time>2020-08-11T13:16:54.000Z</time>
      </trkpt>
      <trkpt lat="42.26433682255446910858154296875" lon="1.379973404109477996826171875">
        <ele>881.5999755859375</ele>
        <time>2020-08-11T13:16:57.000Z</time>
      </trkpt>
      <trkpt lat="42.26434084586799144744873046875" lon="1.3799239508807659149169921875">
        <ele>881.4000244140625</ele>
        <time>2020-08-11T13:16:58.000Z</time>
      </trkpt>
      <trkpt lat="42.26434621028602123260498046875" lon="1.37982160784304141998291015625">
        <ele>880.20001220703125</ele>
        <time>2020-08-11T13:17:00.000Z</time>
      </trkpt>
      <trkpt lat="42.2643434442579746246337890625" lon="1.379620693624019622802734375">
        <ele>879</ele>
        <time>2020-08-11T13:17:04.000Z</time>
      </trkpt>
      <trkpt lat="42.26434168405830860137939453125" lon="1.3795729167759418487548828125">
        <ele>878.79998779296875</ele>
        <time>2020-08-11T13:17:05.000Z</time>
      </trkpt>
      <trkpt lat="42.26434118114411830902099609375" lon="1.3794823922216892242431640625">
        <ele>877.5999755859375</ele>
        <time>2020-08-11T13:17:07.000Z</time>
      </trkpt>
      <trkpt lat="42.26434000767767429351806640625" lon="1.3793271593749523162841796875">
        <ele>876.20001220703125</ele>
        <time>2020-08-11T13:17:10.000Z</time>
      </trkpt>
      <trkpt lat="42.26433715783059597015380859375" lon="1.37927544303238391876220703125">
        <ele>876.20001220703125</ele>
        <time>2020-08-11T13:17:11.000Z</time>
      </trkpt>
      <trkpt lat="42.2643313743174076080322265625" lon="1.379168070852756500244140625">
        <ele>874.79998779296875</ele>
        <time>2020-08-11T13:17:13.000Z</time>
      </trkpt>
      <trkpt lat="42.264305055141448974609375" lon="1.37898844666779041290283203125">
        <ele>873.79998779296875</ele>
        <time>2020-08-11T13:17:16.000Z</time>
      </trkpt>
      <trkpt lat="42.26429097354412078857421875" lon="1.37892457656562328338623046875">
        <ele>873</ele>
        <time>2020-08-11T13:17:17.000Z</time>
      </trkpt>
      <trkpt lat="42.26427563466131687164306640625" lon="1.37885919772088527679443359375">
        <ele>872.5999755859375</ele>
        <time>2020-08-11T13:17:18.000Z</time>
      </trkpt>
      <trkpt lat="42.26423070766031742095947265625" lon="1.37867756187915802001953125">
        <ele>871.20001220703125</ele>
        <time>2020-08-11T13:17:21.000Z</time>
      </trkpt>
      <trkpt lat="42.2641905583441257476806640625" lon="1.3785107620060443878173828125">
        <ele>869.79998779296875</ele>
        <time>2020-08-11T13:17:24.000Z</time>
      </trkpt>
      <trkpt lat="42.2641481459140777587890625" lon="1.37835301458835601806640625">
        <ele>868.5999755859375</ele>
        <time>2020-08-11T13:17:27.000Z</time>
      </trkpt>
      <trkpt lat="42.264127694070339202880859375" lon="1.37826877646148204803466796875">
        <ele>867.20001220703125</ele>
        <time>2020-08-11T13:17:29.000Z</time>
      </trkpt>
      <trkpt lat="42.26412962190806865692138671875" lon="1.3782331533730030059814453125">
        <ele>866.5999755859375</ele>
        <time>2020-08-11T13:17:30.000Z</time>
      </trkpt>
      <trkpt lat="42.26414102129638195037841796875" lon="1.3782046549022197723388671875">
        <ele>865.79998779296875</ele>
        <time>2020-08-11T13:17:31.000Z</time>
      </trkpt>
      <trkpt lat="42.2641835175454616546630859375" lon="1.3781627453863620758056640625">
        <ele>864.79998779296875</ele>
        <time>2020-08-11T13:17:34.000Z</time>
      </trkpt>
      <trkpt lat="42.264183349907398223876953125" lon="1.3781640864908695220947265625">
        <ele>864.79998779296875</ele>
        <time>2020-08-11T13:17:35.000Z</time>
      </trkpt>
      <trkpt lat="42.26418309845030307769775390625" lon="1.37816567905247211456298828125">
        <ele>864.4000244140625</ele>
        <time>2020-08-11T13:17:40.000Z</time>
      </trkpt>
      <trkpt lat="42.264202125370502471923828125" lon="1.37816199101507663726806640625">
        <ele>864.5999755859375</ele>
        <time>2020-08-11T13:17:59.000Z</time>
      </trkpt>
      <trkpt lat="42.2642918117344379425048828125" lon="1.37817104347050189971923828125">
        <ele>864</ele>
        <time>2020-08-11T13:18:02.000Z</time>
      </trkpt>
      <trkpt lat="42.26433363743126392364501953125" lon="1.37818495742976665496826171875">
        <ele>864</ele>
        <time>2020-08-11T13:18:03.000Z</time>
      </trkpt>
      <trkpt lat="42.264428101480007171630859375" lon="1.3782180659472942352294921875">
        <ele>863.20001220703125</ele>
        <time>2020-08-11T13:18:05.000Z</time>
      </trkpt>
      <trkpt lat="42.2645305283367633819580078125" lon="1.37824438512325286865234375">
        <ele>862</ele>
        <time>2020-08-11T13:18:07.000Z</time>
      </trkpt>
      <trkpt lat="42.264653742313385009765625" lon="1.37828419916331768035888671875">
        <ele>859.79998779296875</ele>
        <time>2020-08-11T13:18:09.000Z</time>
      </trkpt>
      <trkpt lat="42.26478307507932186126708984375" lon="1.37834656052291393280029296875">
        <ele>858.20001220703125</ele>
        <time>2020-08-11T13:18:11.000Z</time>
      </trkpt>
      <trkpt lat="42.26490813307464122772216796875" lon="1.378413029015064239501953125">
        <ele>856.5999755859375</ele>
        <time>2020-08-11T13:18:13.000Z</time>
      </trkpt>
      <trkpt lat="42.26502120494842529296875" lon="1.37847505509853363037109375">
        <ele>855</ele>
        <time>2020-08-11T13:18:15.000Z</time>
      </trkpt>
      <trkpt lat="42.26507417857646942138671875" lon="1.37850849889218807220458984375">
        <ele>854.5999755859375</ele>
        <time>2020-08-11T13:18:16.000Z</time>
      </trkpt>
      <trkpt lat="42.265163362026214599609375" lon="1.37858024798333644866943359375">
        <ele>854</ele>
        <time>2020-08-11T13:18:18.000Z</time>
      </trkpt>
      <trkpt lat="42.26519864983856678009033203125" lon="1.37861494906246662139892578125">
        <ele>853.79998779296875</ele>
        <time>2020-08-11T13:18:19.000Z</time>
      </trkpt>
      <trkpt lat="42.26532488130033016204833984375" lon="1.37868736870586872100830078125">
        <ele>854.20001220703125</ele>
        <time>2020-08-11T13:18:23.000Z</time>
      </trkpt>
      <trkpt lat="42.2655521146953105926513671875" lon="1.3787595368921756744384765625">
        <ele>853</ele>
        <time>2020-08-11T13:18:28.000Z</time>
      </trkpt>
      <trkpt lat="42.26560215465724468231201171875" lon="1.37876808643341064453125">
        <ele>852.20001220703125</ele>
        <time>2020-08-11T13:18:29.000Z</time>
      </trkpt>
      <trkpt lat="42.26564926095306873321533203125" lon="1.37877236120402812957763671875">
        <ele>851.5999755859375</ele>
        <time>2020-08-11T13:18:30.000Z</time>
      </trkpt>
      <trkpt lat="42.26575168780982494354248046875" lon="1.3787722773849964141845703125">
        <ele>850.79998779296875</ele>
        <time>2020-08-11T13:18:32.000Z</time>
      </trkpt>
      <trkpt lat="42.26580885238945484161376953125" lon="1.378762722015380859375">
        <ele>850</ele>
        <time>2020-08-11T13:18:33.000Z</time>
      </trkpt>
      <trkpt lat="42.2658689506351947784423828125" lon="1.3787431083619594573974609375">
        <ele>849.4000244140625</ele>
        <time>2020-08-11T13:18:34.000Z</time>
      </trkpt>
      <trkpt lat="42.26593323983252048492431640625" lon="1.37871486134827136993408203125">
        <ele>848.20001220703125</ele>
        <time>2020-08-11T13:18:35.000Z</time>
      </trkpt>
      <trkpt lat="42.2659940086305141448974609375" lon="1.37868267484009265899658203125">
        <ele>847.20001220703125</ele>
        <time>2020-08-11T13:18:36.000Z</time>
      </trkpt>
      <trkpt lat="42.26611353456974029541015625" lon="1.37860656715929508209228515625">
        <ele>845.79998779296875</ele>
        <time>2020-08-11T13:18:38.000Z</time>
      </trkpt>
      <trkpt lat="42.266227863729000091552734375" lon="1.3785231672227382659912109375">
        <ele>845.4000244140625</ele>
        <time>2020-08-11T13:18:40.000Z</time>
      </trkpt>
      <trkpt lat="42.26644822396337985992431640625" lon="1.37837489135563373565673828125">
        <ele>845.4000244140625</ele>
        <time>2020-08-11T13:18:45.000Z</time>
      </trkpt>
      <trkpt lat="42.26665223948657512664794921875" lon="1.378357373178005218505859375">
        <ele>846</ele>
        <time>2020-08-11T13:18:50.000Z</time>
      </trkpt>
      <trkpt lat="42.26684904657304286956787109375" lon="1.37836768291890621185302734375">
        <ele>845.20001220703125</ele>
        <time>2020-08-11T13:18:55.000Z</time>
      </trkpt>
      <trkpt lat="42.26699656806886196136474609375" lon="1.378366090357303619384765625">
        <ele>844.79998779296875</ele>
        <time>2020-08-11T13:18:58.000Z</time>
      </trkpt>
      <trkpt lat="42.2671342827379703521728515625" lon="1.378387548029422760009765625">
        <ele>844.20001220703125</ele>
        <time>2020-08-11T13:19:01.000Z</time>
      </trkpt>
      <trkpt lat="42.26717644371092319488525390625" lon="1.3783893920481204986572265625">
        <ele>844.4000244140625</ele>
        <time>2020-08-11T13:19:02.000Z</time>
      </trkpt>
      <trkpt lat="42.2672875039279460906982421875" lon="1.3783518411219120025634765625">
        <ele>844.79998779296875</ele>
        <time>2020-08-11T13:19:05.000Z</time>
      </trkpt>
      <trkpt lat="42.26733653806149959564208984375" lon="1.37831303291022777557373046875">
        <ele>844.79998779296875</ele>
        <time>2020-08-11T13:19:07.000Z</time>
      </trkpt>
      <trkpt lat="42.26740644313395023345947265625" lon="1.378270871937274932861328125">
        <ele>844.5999755859375</ele>
        <time>2020-08-11T13:19:10.000Z</time>
      </trkpt>
      <trkpt lat="42.26755656301975250244140625" lon="1.3781721331179141998291015625">
        <ele>846</ele>
        <time>2020-08-11T13:19:17.000Z</time>
      </trkpt>
      <trkpt lat="42.2675795294344425201416015625" lon="1.378159224987030029296875">
        <ele>846</ele>
        <time>2020-08-11T13:19:18.000Z</time>
      </trkpt>
      <trkpt lat="42.26772344671189785003662109375" lon="1.37806291691958904266357421875">
        <ele>846.5999755859375</ele>
        <time>2020-08-11T13:19:25.000Z</time>
      </trkpt>
      <trkpt lat="42.2679248638451099395751953125" lon="1.37801505625247955322265625">
        <ele>847</ele>
        <time>2020-08-11T13:19:33.000Z</time>
      </trkpt>
      <trkpt lat="42.26804648526012897491455078125" lon="1.3780490867793560028076171875">
        <ele>847.4000244140625</ele>
        <time>2020-08-11T13:19:38.000Z</time>
      </trkpt>
      <trkpt lat="42.268066518008708953857421875" lon="1.3780658505856990814208984375">
        <ele>847.5999755859375</ele>
        <time>2020-08-11T13:19:39.000Z</time>
      </trkpt>
      <trkpt lat="42.26821764372289180755615234375" lon="1.37820809148252010345458984375">
        <ele>848.4000244140625</ele>
        <time>2020-08-11T13:19:47.000Z</time>
      </trkpt>
      <trkpt lat="42.26823650300502777099609375" lon="1.3782127015292644500732421875">
        <ele>848.5999755859375</ele>
        <time>2020-08-11T13:19:48.000Z</time>
      </trkpt>
      <trkpt lat="42.26830665953457355499267578125" lon="1.37814053334295749664306640625">
        <ele>849.5999755859375</ele>
        <time>2020-08-11T13:19:52.000Z</time>
      </trkpt>
      <trkpt lat="42.26832660846412181854248046875" lon="1.3781201653182506561279296875">
        <ele>849.5999755859375</ele>
        <time>2020-08-11T13:19:53.000Z</time>
      </trkpt>
      <trkpt lat="42.2684502415359020233154296875" lon="1.37799234129488468170166015625">
        <ele>849.20001220703125</ele>
        <time>2020-08-11T13:19:59.000Z</time>
      </trkpt>
      <trkpt lat="42.26862718351185321807861328125" lon="1.3778982125222682952880859375">
        <ele>849</ele>
        <time>2020-08-11T13:20:06.000Z</time>
      </trkpt>
      <trkpt lat="42.26886087097227573394775390625" lon="1.37784364633262157440185546875">
        <ele>847.5999755859375</ele>
        <time>2020-08-11T13:20:11.000Z</time>
      </trkpt>
      <trkpt lat="42.2689115814864635467529296875" lon="1.37783543206751346588134765625">
        <ele>846.79998779296875</ele>
        <time>2020-08-11T13:20:12.000Z</time>
      </trkpt>
      <trkpt lat="42.268959023058414459228515625" lon="1.3778267987072467803955078125">
        <ele>846.20001220703125</ele>
        <time>2020-08-11T13:20:13.000Z</time>
      </trkpt>
      <trkpt lat="42.26907930336892604827880859375" lon="1.377810873091220855712890625">
        <ele>844.79998779296875</ele>
        <time>2020-08-11T13:20:16.000Z</time>
      </trkpt>
      <trkpt lat="42.269115932285785675048828125" lon="1.37782453559339046478271484375">
        <ele>844.20001220703125</ele>
        <time>2020-08-11T13:20:17.000Z</time>
      </trkpt>
      <trkpt lat="42.2691469453275203704833984375" lon="1.3778499327600002288818359375">
        <ele>843.79998779296875</ele>
        <time>2020-08-11T13:20:18.000Z</time>
      </trkpt>
      <trkpt lat="42.2691918723285198211669921875" lon="1.37792662717401981353759765625">
        <ele>842.79998779296875</ele>
        <time>2020-08-11T13:20:20.000Z</time>
      </trkpt>
      <trkpt lat="42.26920788176357746124267578125" lon="1.3779753260314464569091796875">
        <ele>842.4000244140625</ele>
        <time>2020-08-11T13:20:21.000Z</time>
      </trkpt>
      <trkpt lat="42.26921827532351016998291015625" lon="1.37806895188987255096435546875">
        <ele>841.5999755859375</ele>
        <time>2020-08-11T13:20:23.000Z</time>
      </trkpt>
      <trkpt lat="42.269204445183277130126953125" lon="1.37815360911190509796142578125">
        <ele>841</ele>
        <time>2020-08-11T13:20:25.000Z</time>
      </trkpt>
      <trkpt lat="42.2691935487091541290283203125" lon="1.37824413366615772247314453125">
        <ele>840.5999755859375</ele>
        <time>2020-08-11T13:20:27.000Z</time>
      </trkpt>
      <trkpt lat="42.26920704357326030731201171875" lon="1.3783783279359340667724609375">
        <ele>840</ele>
        <time>2020-08-11T13:20:30.000Z</time>
      </trkpt>
      <trkpt lat="42.269267477095127105712890625" lon="1.378486454486846923828125">
        <ele>839</ele>
        <time>2020-08-11T13:20:33.000Z</time>
      </trkpt>
      <trkpt lat="42.26934215985238552093505859375" lon="1.3785975985229015350341796875">
        <ele>837.4000244140625</ele>
        <time>2020-08-11T13:20:36.000Z</time>
      </trkpt>
      <trkpt lat="42.26943084038794040679931640625" lon="1.37869524769484996795654296875">
        <ele>836</ele>
        <time>2020-08-11T13:20:39.000Z</time>
      </trkpt>
      <trkpt lat="42.269492447376251220703125" lon="1.378744281828403472900390625">
        <ele>835.20001220703125</ele>
        <time>2020-08-11T13:20:41.000Z</time>
      </trkpt>
      <trkpt lat="42.2695224545896053314208984375" lon="1.3787585310637950897216796875">
        <ele>834.79998779296875</ele>
        <time>2020-08-11T13:20:42.000Z</time>
      </trkpt>
      <trkpt lat="42.26958992891013622283935546875" lon="1.37883153744041919708251953125">
        <ele>833.79998779296875</ele>
        <time>2020-08-11T13:20:45.000Z</time>
      </trkpt>
      <trkpt lat="42.2695727460086345672607421875" lon="1.37895156629383563995361328125">
        <ele>833.4000244140625</ele>
        <time>2020-08-11T13:20:48.000Z</time>
      </trkpt>
      <trkpt lat="42.2695610113441944122314453125" lon="1.37898727320134639739990234375">
        <ele>833.4000244140625</ele>
        <time>2020-08-11T13:20:49.000Z</time>
      </trkpt>
      <trkpt lat="42.2694979794323444366455078125" lon="1.37909732758998870849609375">
        <ele>833.20001220703125</ele>
        <time>2020-08-11T13:20:52.000Z</time>
      </trkpt>
      <trkpt lat="42.2694610990583896636962890625" lon="1.3791288435459136962890625">
        <ele>833.20001220703125</ele>
        <time>2020-08-11T13:20:53.000Z</time>
      </trkpt>
      <trkpt lat="42.26936847902834415435791015625" lon="1.37918257154524326324462890625">
        <ele>832.5999755859375</ele>
        <time>2020-08-11T13:20:55.000Z</time>
      </trkpt>
      <trkpt lat="42.2692632861435413360595703125" lon="1.37924627400934696197509765625">
        <ele>831.79998779296875</ele>
        <time>2020-08-11T13:20:57.000Z</time>
      </trkpt>
      <trkpt lat="42.269213832914829254150390625" lon="1.37929388321936130523681640625">
        <ele>831.4000244140625</ele>
        <time>2020-08-11T13:20:58.000Z</time>
      </trkpt>
      <trkpt lat="42.26912775076925754547119140625" lon="1.37942078523337841033935546875">
        <ele>830.20001220703125</ele>
        <time>2020-08-11T13:21:00.000Z</time>
      </trkpt>
      <trkpt lat="42.2690876014530658721923828125" lon="1.37949161231517791748046875">
        <ele>829.5999755859375</ele>
        <time>2020-08-11T13:21:01.000Z</time>
      </trkpt>
      <trkpt lat="42.26900629699230194091796875" lon="1.37963150627911090850830078125">
        <ele>828.79998779296875</ele>
        <time>2020-08-11T13:21:03.000Z</time>
      </trkpt>
      <trkpt lat="42.268934547901153564453125" lon="1.37976796366274356842041015625">
        <ele>827.79998779296875</ele>
        <time>2020-08-11T13:21:05.000Z</time>
      </trkpt>
      <trkpt lat="42.26890462450683116912841796875" lon="1.37983585707843303680419921875">
        <ele>827.20001220703125</ele>
        <time>2020-08-11T13:21:06.000Z</time>
      </trkpt>
      <trkpt lat="42.2688790597021579742431640625" lon="1.379902996122837066650390625">
        <ele>826.5999755859375</ele>
        <time>2020-08-11T13:21:07.000Z</time>
      </trkpt>
      <trkpt lat="42.26885684765875339508056640625" lon="1.37996862642467021942138671875">
        <ele>826.20001220703125</ele>
        <time>2020-08-11T13:21:08.000Z</time>
      </trkpt>
      <trkpt lat="42.2688138484954833984375" lon="1.38009888119995594024658203125">
        <ele>825.4000244140625</ele>
        <time>2020-08-11T13:21:10.000Z</time>
      </trkpt>
      <trkpt lat="42.26873874664306640625" lon="1.380305998027324676513671875">
        <ele>824.4000244140625</ele>
        <time>2020-08-11T13:21:13.000Z</time>
      </trkpt>
      <trkpt lat="42.26868988014757633209228515625" lon="1.380449496209621429443359375">
        <ele>823.5999755859375</ele>
        <time>2020-08-11T13:21:15.000Z</time>
      </trkpt>
      <trkpt lat="42.26866791956126689910888671875" lon="1.3805234245955944061279296875">
        <ele>823.20001220703125</ele>
        <time>2020-08-11T13:21:16.000Z</time>
      </trkpt>
      <trkpt lat="42.2686001099646091461181640625" lon="1.3808328844606876373291015625">
        <ele>822</ele>
        <time>2020-08-11T13:21:20.000Z</time>
      </trkpt>
      <trkpt lat="42.268595583736896514892578125" lon="1.38090907596051692962646484375">
        <ele>821.5999755859375</ele>
        <time>2020-08-11T13:21:21.000Z</time>
      </trkpt>
      <trkpt lat="42.2686447016894817352294921875" lon="1.381207220256328582763671875">
        <ele>820.4000244140625</ele>
        <time>2020-08-11T13:21:25.000Z</time>
      </trkpt>
      <trkpt lat="42.2687052190303802490234375" lon="1.3814357109367847442626953125">
        <ele>819.4000244140625</ele>
        <time>2020-08-11T13:21:28.000Z</time>
      </trkpt>
      <trkpt lat="42.26871703751385211944580078125" lon="1.38154492713510990142822265625">
        <ele>818</ele>
        <time>2020-08-11T13:21:30.000Z</time>
      </trkpt>
      <trkpt lat="42.268714271485805511474609375" lon="1.38160443864762783050537109375">
        <ele>816.79998779296875</ele>
        <time>2020-08-11T13:21:33.000Z</time>
      </trkpt>
      <trkpt lat="42.2687134332954883575439453125" lon="1.38160360045731067657470703125">
        <ele>816.20001220703125</ele>
        <time>2020-08-11T13:21:43.000Z</time>
      </trkpt>
      <trkpt lat="42.26871334947645664215087890625" lon="1.38160276226699352264404296875">
        <ele>816.20001220703125</ele>
        <time>2020-08-11T13:22:12.000Z</time>
      </trkpt>
      <trkpt lat="42.2687134332954883575439453125" lon="1.3816026784479618072509765625">
        <ele>816.20001220703125</ele>
        <time>2020-08-11T13:22:17.000Z</time>
      </trkpt>
      <trkpt lat="42.26870664395391941070556640625" lon="1.38165355660021305084228515625">
        <ele>815.79998779296875</ele>
        <time>2020-08-11T13:22:32.000Z</time>
      </trkpt>
      <trkpt lat="42.2687020339071750640869140625" lon="1.38186134397983551025390625">
        <ele>815.20001220703125</ele>
        <time>2020-08-11T13:22:38.000Z</time>
      </trkpt>
      <trkpt lat="42.26870412938296794891357421875" lon="1.38200643472373485565185546875">
        <ele>814.20001220703125</ele>
        <time>2020-08-11T13:22:44.000Z</time>
      </trkpt>
      <trkpt lat="42.268703542649745941162109375" lon="1.3820268027484416961669921875">
        <ele>814</ele>
        <time>2020-08-11T13:22:45.000Z</time>
      </trkpt>
      <trkpt lat="42.2686929814517498016357421875" lon="1.38217407278716564178466796875">
        <ele>813.20001220703125</ele>
        <time>2020-08-11T13:22:54.000Z</time>
      </trkpt>
      <trkpt lat="42.26868183352053165435791015625" lon="1.38231002725660800933837890625">
        <ele>813</ele>
        <time>2020-08-11T13:23:02.000Z</time>
      </trkpt>
      <trkpt lat="42.2686755470931529998779296875" lon="1.382414214313030242919921875">
        <ele>812.4000244140625</ele>
        <time>2020-08-11T13:23:08.000Z</time>
      </trkpt>
      <trkpt lat="42.268673367798328399658203125" lon="1.38247699476778507232666015625">
        <ele>812.20001220703125</ele>
        <time>2020-08-11T13:23:12.000Z</time>
      </trkpt>
      <trkpt lat="42.26867311634123325347900390625" lon="1.38249836862087249755859375">
        <ele>812</ele>
        <time>2020-08-11T13:23:15.000Z</time>
      </trkpt>
      <trkpt lat="42.26866406388580799102783203125" lon="1.38257003389298915863037109375">
        <ele>811.79998779296875</ele>
        <time>2020-08-11T13:23:20.000Z</time>
      </trkpt>
      <trkpt lat="42.268655598163604736328125" lon="1.38268670998513698577880859375">
        <ele>811.4000244140625</ele>
        <time>2020-08-11T13:23:24.000Z</time>
      </trkpt>
      <trkpt lat="42.2686557658016681671142578125" lon="1.3827489875257015228271484375">
        <ele>811</ele>
        <time>2020-08-11T13:23:26.000Z</time>
      </trkpt>
      <trkpt lat="42.26872743107378482818603515625" lon="1.38281210325658321380615234375">
        <ele>810.4000244140625</ele>
        <time>2020-08-11T13:23:30.000Z</time>
      </trkpt>
      <trkpt lat="42.2687489725649356842041015625" lon="1.38281126506626605987548828125">
        <ele>810.20001220703125</ele>
        <time>2020-08-11T13:23:31.000Z</time>
      </trkpt>
      <trkpt lat="42.268787361681461334228515625" lon="1.382800452411174774169921875">
        <ele>809</ele>
        <time>2020-08-11T13:23:35.000Z</time>
      </trkpt>
      <trkpt lat="42.26880705915391445159912109375" lon="1.38276030309498310089111328125">
        <ele>808.5999755859375</ele>
        <time>2020-08-11T13:23:45.000Z</time>
      </trkpt>
      <trkpt lat="42.26883689872920513153076171875" lon="1.382668353617191314697265625">
        <ele>808.4000244140625</ele>
        <time>2020-08-11T13:23:47.000Z</time>
      </trkpt>
      <trkpt lat="42.2688482142984867095947265625" lon="1.38259802944958209991455078125">
        <ele>808.20001220703125</ele>
        <time>2020-08-11T13:23:48.000Z</time>
      </trkpt>
      <trkpt lat="42.2688777185976505279541015625" lon="1.38232813216745853424072265625">
        <ele>807</ele>
        <time>2020-08-11T13:23:51.000Z</time>
      </trkpt>
      <trkpt lat="42.26894737221300601959228515625" lon="1.3821632601320743560791015625">
        <ele>805.4000244140625</ele>
        <time>2020-08-11T13:23:53.000Z</time>
      </trkpt>
      <trkpt lat="42.26899112574756145477294921875" lon="1.3820898346602916717529296875">
        <ele>804.79998779296875</ele>
        <time>2020-08-11T13:23:54.000Z</time>
      </trkpt>
      <trkpt lat="42.26903420872986316680908203125" lon="1.38201783411204814910888671875">
        <ele>804.4000244140625</ele>
        <time>2020-08-11T13:23:55.000Z</time>
      </trkpt>
      <trkpt lat="42.26911165751516819000244140625" lon="1.3818675465881824493408203125">
        <ele>803.79998779296875</ele>
        <time>2020-08-11T13:23:57.000Z</time>
      </trkpt>
      <trkpt lat="42.26913898251950740814208984375" lon="1.38178934343159198760986328125">
        <ele>803.4000244140625</ele>
        <time>2020-08-11T13:23:58.000Z</time>
      </trkpt>
      <trkpt lat="42.2691590152680873870849609375" lon="1.38171206228435039520263671875">
        <ele>803</ele>
        <time>2020-08-11T13:23:59.000Z</time>
      </trkpt>
      <trkpt lat="42.26918575353920459747314453125" lon="1.38156102038919925689697265625">
        <ele>802.5999755859375</ele>
        <time>2020-08-11T13:24:01.000Z</time>
      </trkpt>
      <trkpt lat="42.26919899694621562957763671875" lon="1.381495557725429534912109375">
        <ele>802.20001220703125</ele>
        <time>2020-08-11T13:24:02.000Z</time>
      </trkpt>
      <trkpt lat="42.2692183591425418853759765625" lon="1.38144149444997310638427734375">
        <ele>801.79998779296875</ele>
        <time>2020-08-11T13:24:03.000Z</time>
      </trkpt>
      <trkpt lat="42.26924643851816654205322265625" lon="1.38140176422894001007080078125">
        <ele>801.20001220703125</ele>
        <time>2020-08-11T13:24:04.000Z</time>
      </trkpt>
      <trkpt lat="42.26932204328477382659912109375" lon="1.38139455579221248626708984375">
        <ele>800.5999755859375</ele>
        <time>2020-08-11T13:24:06.000Z</time>
      </trkpt>
      <trkpt lat="42.26938524283468723297119140625" lon="1.381484158337116241455078125">
        <ele>799.5999755859375</ele>
        <time>2020-08-11T13:24:08.000Z</time>
      </trkpt>
      <trkpt lat="42.269406616687774658203125" lon="1.3815510459244251251220703125">
        <ele>798.79998779296875</ele>
        <time>2020-08-11T13:24:09.000Z</time>
      </trkpt>
      <trkpt lat="42.2694178484380245208740234375" lon="1.38162472285330295562744140625">
        <ele>798.4000244140625</ele>
        <time>2020-08-11T13:24:10.000Z</time>
      </trkpt>
      <trkpt lat="42.269393540918827056884765625" lon="1.381780542433261871337890625">
        <ele>797.5999755859375</ele>
        <time>2020-08-11T13:24:12.000Z</time>
      </trkpt>
      <trkpt lat="42.269362695515155792236328125" lon="1.38186058960855007171630859375">
        <ele>797.20001220703125</ele>
        <time>2020-08-11T13:24:13.000Z</time>
      </trkpt>
      <trkpt lat="42.2692830674350261688232421875" lon="1.38202219270169734954833984375">
        <ele>796</ele>
        <time>2020-08-11T13:24:15.000Z</time>
      </trkpt>
      <trkpt lat="42.26924224756658077239990234375" lon="1.382105760276317596435546875">
        <ele>795.79998779296875</ele>
        <time>2020-08-11T13:24:16.000Z</time>
      </trkpt>
      <trkpt lat="42.26916898973286151885986328125" lon="1.3822777569293975830078125">
        <ele>794.79998779296875</ele>
        <time>2020-08-11T13:24:18.000Z</time>
      </trkpt>
      <trkpt lat="42.26911400444805622100830078125" lon="1.38245436362922191619873046875">
        <ele>793.79998779296875</ele>
        <time>2020-08-11T13:24:20.000Z</time>
      </trkpt>
      <trkpt lat="42.26909388788044452667236328125" lon="1.3825431279838085174560546875">
        <ele>793.20001220703125</ele>
        <time>2020-08-11T13:24:21.000Z</time>
      </trkpt>
      <trkpt lat="42.2690753638744354248046875" lon="1.3826319761574268341064453125">
        <ele>792.5999755859375</ele>
        <time>2020-08-11T13:24:22.000Z</time>
      </trkpt>
      <trkpt lat="42.26903186179697513580322265625" lon="1.38289256952702999114990234375">
        <ele>791</ele>
        <time>2020-08-11T13:24:25.000Z</time>
      </trkpt>
      <trkpt lat="42.2690326161682605743408203125" lon="1.383070014417171478271484375">
        <ele>790</ele>
        <time>2020-08-11T13:24:27.000Z</time>
      </trkpt>
      <trkpt lat="42.26904074661433696746826171875" lon="1.3831529952585697174072265625">
        <ele>789.79998779296875</ele>
        <time>2020-08-11T13:24:28.000Z</time>
      </trkpt>
      <trkpt lat="42.26904250681400299072265625" lon="1.38322801329195499420166015625">
        <ele>789.20001220703125</ele>
        <time>2020-08-11T13:24:29.000Z</time>
      </trkpt>
      <trkpt lat="42.269001267850399017333984375" lon="1.38334888033568859100341796875">
        <ele>788.4000244140625</ele>
        <time>2020-08-11T13:24:31.000Z</time>
      </trkpt>
      <trkpt lat="42.2689206339418888092041015625" lon="1.38345323503017425537109375">
        <ele>787.5999755859375</ele>
        <time>2020-08-11T13:24:33.000Z</time>
      </trkpt>
      <trkpt lat="42.2688782215118408203125" lon="1.3835097290575504302978515625">
        <ele>787.20001220703125</ele>
        <time>2020-08-11T13:24:34.000Z</time>
      </trkpt>
      <trkpt lat="42.26881074719130992889404296875" lon="1.3836498744785785675048828125">
        <ele>786.5999755859375</ele>
        <time>2020-08-11T13:24:36.000Z</time>
      </trkpt>
      <trkpt lat="42.2687830030918121337890625" lon="1.3838305883109569549560546875">
        <ele>785.79998779296875</ele>
        <time>2020-08-11T13:24:38.000Z</time>
      </trkpt>
      <trkpt lat="42.268784679472446441650390625" lon="1.38392941094934940338134765625">
        <ele>785.4000244140625</ele>
        <time>2020-08-11T13:24:39.000Z</time>
      </trkpt>
      <trkpt lat="42.26878996007144451141357421875" lon="1.3840327598154544830322265625">
        <ele>785</ele>
        <time>2020-08-11T13:24:40.000Z</time>
      </trkpt>
      <trkpt lat="42.2687908820807933807373046875" lon="1.38413862325251102447509765625">
        <ele>784.4000244140625</ele>
        <time>2020-08-11T13:24:41.000Z</time>
      </trkpt>
      <trkpt lat="42.268785350024700164794921875" lon="1.38424121774733066558837890625">
        <ele>784</ele>
        <time>2020-08-11T13:24:42.000Z</time>
      </trkpt>
      <trkpt lat="42.26877135224640369415283203125" lon="1.38433543033897876739501953125">
        <ele>783.4000244140625</ele>
        <time>2020-08-11T13:24:43.000Z</time>
      </trkpt>
      <trkpt lat="42.268714606761932373046875" lon="1.38449803926050662994384765625">
        <ele>782.20001220703125</ele>
        <time>2020-08-11T13:24:45.000Z</time>
      </trkpt>
      <trkpt lat="42.26866389624774456024169921875" lon="1.38464815914630889892578125">
        <ele>780.79998779296875</ele>
        <time>2020-08-11T13:24:47.000Z</time>
      </trkpt>
      <trkpt lat="42.26868384517729282379150390625" lon="1.3847908191382884979248046875">
        <ele>779.5999755859375</ele>
        <time>2020-08-11T13:24:49.000Z</time>
      </trkpt>
      <trkpt lat="42.2687855176627635955810546875" lon="1.38487488962709903717041015625">
        <ele>778.5999755859375</ele>
        <time>2020-08-11T13:24:51.000Z</time>
      </trkpt>
      <trkpt lat="42.26884846575558185577392578125" lon="1.38489098288118839263916015625">
        <ele>778</ele>
        <time>2020-08-11T13:24:52.000Z</time>
      </trkpt>
      <trkpt lat="42.268909402191638946533203125" lon="1.38488821685314178466796875">
        <ele>777.4000244140625</ele>
        <time>2020-08-11T13:24:53.000Z</time>
      </trkpt>
      <trkpt lat="42.26900856010615825653076171875" lon="1.38481135480105876922607421875">
        <ele>776.20001220703125</ele>
        <time>2020-08-11T13:24:55.000Z</time>
      </trkpt>
      <trkpt lat="42.26904829032719135284423828125" lon="1.38465478084981441497802734375">
        <ele>775</ele>
        <time>2020-08-11T13:24:57.000Z</time>
      </trkpt>
      <trkpt lat="42.269058264791965484619140625" lon="1.38456232845783233642578125">
        <ele>774.20001220703125</ele>
        <time>2020-08-11T13:24:58.000Z</time>
      </trkpt>
      <trkpt lat="42.26907259784638881683349609375" lon="1.38446484692394733428955078125">
        <ele>773.5999755859375</ele>
        <time>2020-08-11T13:24:59.000Z</time>
      </trkpt>
      <trkpt lat="42.2690953128039836883544921875" lon="1.3843656890094280242919921875">
        <ele>773.20001220703125</ele>
        <time>2020-08-11T13:25:00.000Z</time>
      </trkpt>
      <trkpt lat="42.26912607438862323760986328125" lon="1.3842654414474964141845703125">
        <ele>772.5999755859375</ele>
        <time>2020-08-11T13:25:01.000Z</time>
      </trkpt>
      <trkpt lat="42.26916111074388027191162109375" lon="1.38416469097137451171875">
        <ele>772.20001220703125</ele>
        <time>2020-08-11T13:25:02.000Z</time>
      </trkpt>
      <trkpt lat="42.26923026144504547119140625" lon="1.38396696187555789947509765625">
        <ele>771</ele>
        <time>2020-08-11T13:25:04.000Z</time>
      </trkpt>
      <trkpt lat="42.26926605217158794403076171875" lon="1.3838835619390010833740234375">
        <ele>770.20001220703125</ele>
        <time>2020-08-11T13:25:05.000Z</time>
      </trkpt>
      <trkpt lat="42.26930896751582622528076171875" lon="1.3838195241987705230712890625">
        <ele>769.5999755859375</ele>
        <time>2020-08-11T13:25:06.000Z</time>
      </trkpt>
      <trkpt lat="42.26948498748242855072021484375" lon="1.38372623361647129058837890625">
        <ele>768.20001220703125</ele>
        <time>2020-08-11T13:25:09.000Z</time>
      </trkpt>
      <trkpt lat="42.26964072324335575103759765625" lon="1.38362087309360504150390625">
        <ele>766.79998779296875</ele>
        <time>2020-08-11T13:25:12.000Z</time>
      </trkpt>
      <trkpt lat="42.2696976363658905029296875" lon="1.3834205456078052520751953125">
        <ele>765.79998779296875</ele>
        <time>2020-08-11T13:25:15.000Z</time>
      </trkpt>
      <trkpt lat="42.26970526389777660369873046875" lon="1.38325215317308902740478515625">
        <ele>765</ele>
        <time>2020-08-11T13:25:17.000Z</time>
      </trkpt>
      <trkpt lat="42.2697056829929351806640625" lon="1.38315760530531406402587890625">
        <ele>764.5999755859375</ele>
        <time>2020-08-11T13:25:18.000Z</time>
      </trkpt>
      <trkpt lat="42.26971565745770931243896484375" lon="1.38297177851200103759765625">
        <ele>764</ele>
        <time>2020-08-11T13:25:20.000Z</time>
      </trkpt>
      <trkpt lat="42.26973627693951129913330078125" lon="1.3828893005847930908203125">
        <ele>763.20001220703125</ele>
        <time>2020-08-11T13:25:21.000Z</time>
      </trkpt>
      <trkpt lat="42.2698195092380046844482421875" lon="1.3827509991824626922607421875">
        <ele>761.79998779296875</ele>
        <time>2020-08-11T13:25:23.000Z</time>
      </trkpt>
      <trkpt lat="42.26991028524935245513916015625" lon="1.38261764310300350189208984375">
        <ele>760.79998779296875</ele>
        <time>2020-08-11T13:25:25.000Z</time>
      </trkpt>
      <trkpt lat="42.2699338383972644805908203125" lon="1.38253348879516124725341796875">
        <ele>760.4000244140625</ele>
        <time>2020-08-11T13:25:26.000Z</time>
      </trkpt>
      <trkpt lat="42.26994330994784832000732421875" lon="1.382331736385822296142578125">
        <ele>759.5999755859375</ele>
        <time>2020-08-11T13:25:28.000Z</time>
      </trkpt>
      <trkpt lat="42.2699492610991001129150390625" lon="1.38222620822489261627197265625">
        <ele>758.5999755859375</ele>
        <time>2020-08-11T13:25:29.000Z</time>
      </trkpt>
      <trkpt lat="42.269961833953857421875" lon="1.3821250386536121368408203125">
        <ele>758</ele>
        <time>2020-08-11T13:25:30.000Z</time>
      </trkpt>
      <trkpt lat="42.2699864767491817474365234375" lon="1.38202495872974395751953125">
        <ele>757.5999755859375</ele>
        <time>2020-08-11T13:25:31.000Z</time>
      </trkpt>
      <trkpt lat="42.27005713619291782379150390625" lon="1.3818289898335933685302734375">
        <ele>756.4000244140625</ele>
        <time>2020-08-11T13:25:33.000Z</time>
      </trkpt>
      <trkpt lat="42.27013827301561832427978515625" lon="1.38163394294679164886474609375">
        <ele>755.20001220703125</ele>
        <time>2020-08-11T13:25:35.000Z</time>
      </trkpt>
      <trkpt lat="42.27023080922663211822509765625" lon="1.38143897987902164459228515625">
        <ele>754.20001220703125</ele>
        <time>2020-08-11T13:25:37.000Z</time>
      </trkpt>
      <trkpt lat="42.270355112850666046142578125" lon="1.381258852779865264892578125">
        <ele>753.4000244140625</ele>
        <time>2020-08-11T13:25:39.000Z</time>
      </trkpt>
      <trkpt lat="42.27042040787637233734130859375" lon="1.38117612339556217193603515625">
        <ele>753</ele>
        <time>2020-08-11T13:25:40.000Z</time>
      </trkpt>
      <trkpt lat="42.27048427797853946685791015625" lon="1.3811047933995723724365234375">
        <ele>752.5999755859375</ele>
        <time>2020-08-11T13:25:41.000Z</time>
      </trkpt>
      <trkpt lat="42.2706067375838756561279296875" lon="1.38097814284265041351318359375">
        <ele>751.4000244140625</ele>
        <time>2020-08-11T13:25:43.000Z</time>
      </trkpt>
      <trkpt lat="42.27070815861225128173828125" lon="1.38080664910376071929931640625">
        <ele>750</ele>
        <time>2020-08-11T13:25:45.000Z</time>
      </trkpt>
      <trkpt lat="42.27075132541358470916748046875" lon="1.38070665299892425537109375">
        <ele>749.4000244140625</ele>
        <time>2020-08-11T13:25:46.000Z</time>
      </trkpt>
      <trkpt lat="42.2707944922149181365966796875" lon="1.38060338795185089111328125">
        <ele>748.79998779296875</ele>
        <time>2020-08-11T13:25:47.000Z</time>
      </trkpt>
      <trkpt lat="42.270887196063995361328125" lon="1.3804020546376705169677734375">
        <ele>747.5999755859375</ele>
        <time>2020-08-11T13:25:49.000Z</time>
      </trkpt>
      <trkpt lat="42.27097327820956707000732421875" lon="1.3802210055291652679443359375">
        <ele>746.79998779296875</ele>
        <time>2020-08-11T13:25:51.000Z</time>
      </trkpt>
      <trkpt lat="42.271013595163822174072265625" lon="1.38012721203267574310302734375">
        <ele>746.20001220703125</ele>
        <time>2020-08-11T13:25:52.000Z</time>
      </trkpt>
      <trkpt lat="42.27108961902558803558349609375" lon="1.3799363560974597930908203125">
        <ele>744.79998779296875</ele>
        <time>2020-08-11T13:25:54.000Z</time>
      </trkpt>
      <trkpt lat="42.271244935691356658935546875" lon="1.37957903556525707244873046875">
        <ele>744.4000244140625</ele>
        <time>2020-08-11T13:25:58.000Z</time>
      </trkpt>
      <trkpt lat="42.2713091410696506500244140625" lon="1.3794051110744476318359375">
        <ele>744.20001220703125</ele>
        <time>2020-08-11T13:26:00.000Z</time>
      </trkpt>
      <trkpt lat="42.27132867090404033660888671875" lon="1.3793139159679412841796875">
        <ele>744</ele>
        <time>2020-08-11T13:26:01.000Z</time>
      </trkpt>
      <trkpt lat="42.271338813006877899169921875" lon="1.37922012247145175933837890625">
        <ele>743.79998779296875</ele>
        <time>2020-08-11T13:26:02.000Z</time>
      </trkpt>
      <trkpt lat="42.27135633118450641632080078125" lon="1.37856490910053253173828125">
        <ele>742.79998779296875</ele>
        <time>2020-08-11T13:26:09.000Z</time>
      </trkpt>
      <trkpt lat="42.27135197259485721588134765625" lon="1.3781882263720035552978515625">
        <ele>742.20001220703125</ele>
        <time>2020-08-11T13:26:13.000Z</time>
      </trkpt>
      <trkpt lat="42.2713242284953594207763671875" lon="1.37810365296900272369384765625">
        <ele>742</ele>
        <time>2020-08-11T13:26:14.000Z</time>
      </trkpt>
      <trkpt lat="42.2712836600840091705322265625" lon="1.3780237734317779541015625">
        <ele>741.5999755859375</ele>
        <time>2020-08-11T13:26:15.000Z</time>
      </trkpt>
      <trkpt lat="42.27118567563593387603759765625" lon="1.37786644510924816131591796875">
        <ele>740.5999755859375</ele>
        <time>2020-08-11T13:26:17.000Z</time>
      </trkpt>
      <trkpt lat="42.2710908763110637664794921875" lon="1.37770953588187694549560546875">
        <ele>739.5999755859375</ele>
        <time>2020-08-11T13:26:19.000Z</time>
      </trkpt>
      <trkpt lat="42.27095768786966800689697265625" lon="1.3774372078478336334228515625">
        <ele>739</ele>
        <time>2020-08-11T13:26:23.000Z</time>
      </trkpt>
      <trkpt lat="42.27093203924596309661865234375" lon="1.377389430999755859375">
        <ele>739.20001220703125</ele>
        <time>2020-08-11T13:26:24.000Z</time>
      </trkpt>
      <trkpt lat="42.270886190235614776611328125" lon="1.3773158378899097442626953125">
        <ele>740.5999755859375</ele>
        <time>2020-08-11T13:26:26.000Z</time>
      </trkpt>
      <trkpt lat="42.27086531929671764373779296875" lon="1.377285160124301910400390625">
        <ele>741</ele>
        <time>2020-08-11T13:26:27.000Z</time>
      </trkpt>
      <trkpt lat="42.27073489688336849212646484375" lon="1.37710637412965297698974609375">
        <ele>741.79998779296875</ele>
        <time>2020-08-11T13:26:34.000Z</time>
      </trkpt>
      <trkpt lat="42.27070321328938007354736328125" lon="1.3770506344735622406005859375">
        <ele>742</ele>
        <time>2020-08-11T13:26:36.000Z</time>
      </trkpt>
      <trkpt lat="42.27061956189572811126708984375" lon="1.3768682442605495452880859375">
        <ele>742.4000244140625</ele>
        <time>2020-08-11T13:26:42.000Z</time>
      </trkpt>
      <trkpt lat="42.270571701228618621826171875" lon="1.37661150656640529632568359375">
        <ele>742.4000244140625</ele>
        <time>2020-08-11T13:26:48.000Z</time>
      </trkpt>
      <trkpt lat="42.2706342302262783050537109375" lon="1.37641201727092266082763671875">
        <ele>742.20001220703125</ele>
        <time>2020-08-11T13:26:53.000Z</time>
      </trkpt>
      <trkpt lat="42.27066256105899810791015625" lon="1.376376561820507049560546875">
        <ele>742</ele>
        <time>2020-08-11T13:26:54.000Z</time>
      </trkpt>
      <trkpt lat="42.27081678807735443115234375" lon="1.37621202506124973297119140625">
        <ele>741.4000244140625</ele>
        <time>2020-08-11T13:26:58.000Z</time>
      </trkpt>
      <trkpt lat="42.27085894905030727386474609375" lon="1.3761551119387149810791015625">
        <ele>741.20001220703125</ele>
        <time>2020-08-11T13:26:59.000Z</time>
      </trkpt>
      <trkpt lat="42.27089901454746723175048828125" lon="1.3760910741984844207763671875">
        <ele>741</ele>
        <time>2020-08-11T13:27:00.000Z</time>
      </trkpt>
      <trkpt lat="42.27097503840923309326171875" lon="1.3759485818445682525634765625">
        <ele>740.4000244140625</ele>
        <time>2020-08-11T13:27:02.000Z</time>
      </trkpt>
      <trkpt lat="42.2710107453167438507080078125" lon="1.37587691657245159149169921875">
        <ele>740</ele>
        <time>2020-08-11T13:27:03.000Z</time>
      </trkpt>
      <trkpt lat="42.27108458988368511199951171875" lon="1.37574322521686553955078125">
        <ele>738.79998779296875</ele>
        <time>2020-08-11T13:27:05.000Z</time>
      </trkpt>
      <trkpt lat="42.27115952409803867340087890625" lon="1.37559528462588787078857421875">
        <ele>738.20001220703125</ele>
        <time>2020-08-11T13:27:07.000Z</time>
      </trkpt>
      <trkpt lat="42.2711971588432788848876953125" lon="1.37551649473607540130615234375">
        <ele>737.79998779296875</ele>
        <time>2020-08-11T13:27:08.000Z</time>
      </trkpt>
      <trkpt lat="42.2712699137628078460693359375" lon="1.37535874731838703155517578125">
        <ele>736.79998779296875</ele>
        <time>2020-08-11T13:27:10.000Z</time>
      </trkpt>
      <trkpt lat="42.27131073363125324249267578125" lon="1.3752840645611286163330078125">
        <ele>736.20001220703125</ele>
        <time>2020-08-11T13:27:11.000Z</time>
      </trkpt>
      <trkpt lat="42.27135515771806240081787109375" lon="1.3752160035073757171630859375">
        <ele>735.5999755859375</ele>
        <time>2020-08-11T13:27:12.000Z</time>
      </trkpt>
      <trkpt lat="42.2714576683938503265380859375" lon="1.3750862516462802886962890625">
        <ele>734.20001220703125</ele>
        <time>2020-08-11T13:27:14.000Z</time>
      </trkpt>
      <trkpt lat="42.2716065309941768646240234375" lon="1.3748807273805141448974609375">
        <ele>733.20001220703125</ele>
        <time>2020-08-11T13:27:17.000Z</time>
      </trkpt>
      <trkpt lat="42.27175648324191570281982421875" lon="1.37465961277484893798828125">
        <ele>732.5999755859375</ele>
        <time>2020-08-11T13:27:20.000Z</time>
      </trkpt>
      <trkpt lat="42.2718076966702938079833984375" lon="1.37458316981792449951171875">
        <ele>732.20001220703125</ele>
        <time>2020-08-11T13:27:21.000Z</time>
      </trkpt>
      <trkpt lat="42.2720112092792987823486328125" lon="1.3742333091795444488525390625">
        <ele>730.79998779296875</ele>
        <time>2020-08-11T13:27:25.000Z</time>
      </trkpt>
      <trkpt lat="42.27206577546894550323486328125" lon="1.374149322509765625">
        <ele>730</ele>
        <time>2020-08-11T13:27:26.000Z</time>
      </trkpt>
      <trkpt lat="42.2721235267817974090576171875" lon="1.374079920351505279541015625">
        <ele>729.4000244140625</ele>
        <time>2020-08-11T13:27:27.000Z</time>
      </trkpt>
      <trkpt lat="42.27218697778880596160888671875" lon="1.37402535416185855865478515625">
        <ele>729</ele>
        <time>2020-08-11T13:27:28.000Z</time>
      </trkpt>
      <trkpt lat="42.272254787385463714599609375" lon="1.3739811815321445465087890625">
        <ele>728.4000244140625</ele>
        <time>2020-08-11T13:27:29.000Z</time>
      </trkpt>
      <trkpt lat="42.2724353335797786712646484375" lon="1.373833157122135162353515625">
        <ele>727.5999755859375</ele>
        <time>2020-08-11T13:27:32.000Z</time>
      </trkpt>
      <trkpt lat="42.272571958601474761962890625" lon="1.3736033253371715545654296875">
        <ele>726.4000244140625</ele>
        <time>2020-08-11T13:27:35.000Z</time>
      </trkpt>
      <trkpt lat="42.2726059891283512115478515625" lon="1.37351087294518947601318359375">
        <ele>725.79998779296875</ele>
        <time>2020-08-11T13:27:36.000Z</time>
      </trkpt>
      <trkpt lat="42.27263574488461017608642578125" lon="1.37341833673417568206787109375">
        <ele>725</ele>
        <time>2020-08-11T13:27:37.000Z</time>
      </trkpt>
      <trkpt lat="42.272704057395458221435546875" lon="1.37324784882366657257080078125">
        <ele>723.79998779296875</ele>
        <time>2020-08-11T13:27:39.000Z</time>
      </trkpt>
      <trkpt lat="42.27279935963451862335205078125" lon="1.3731091283261775970458984375">
        <ele>722.4000244140625</ele>
        <time>2020-08-11T13:27:41.000Z</time>
      </trkpt>
      <trkpt lat="42.2729241661727428436279296875" lon="1.3729988224804401397705078125">
        <ele>721</ele>
        <time>2020-08-11T13:27:43.000Z</time>
      </trkpt>
      <trkpt lat="42.27306623943150043487548828125" lon="1.37293805368244647979736328125">
        <ele>719.5999755859375</ele>
        <time>2020-08-11T13:27:45.000Z</time>
      </trkpt>
      <trkpt lat="42.273215018212795257568359375" lon="1.37291123159229755401611328125">
        <ele>718.5999755859375</ele>
        <time>2020-08-11T13:27:47.000Z</time>
      </trkpt>
      <trkpt lat="42.2732892818748950958251953125" lon="1.37289069592952728271484375">
        <ele>717.79998779296875</ele>
        <time>2020-08-11T13:27:48.000Z</time>
      </trkpt>
      <trkpt lat="42.2733633778989315032958984375" lon="1.37285859324038028717041015625">
        <ele>716.79998779296875</ele>
        <time>2020-08-11T13:27:49.000Z</time>
      </trkpt>
      <trkpt lat="42.2734321095049381256103515625" lon="1.37281693518161773681640625">
        <ele>715.79998779296875</ele>
        <time>2020-08-11T13:27:50.000Z</time>
      </trkpt>
      <trkpt lat="42.27356546558439731597900390625" lon="1.37274225242435932159423828125">
        <ele>714.4000244140625</ele>
        <time>2020-08-11T13:27:52.000Z</time>
      </trkpt>
      <trkpt lat="42.273632101714611053466796875" lon="1.37272599153220653533935546875">
        <ele>713</ele>
        <time>2020-08-11T13:27:53.000Z</time>
      </trkpt>
      <trkpt lat="42.2736969776451587677001953125" lon="1.37272708117961883544921875">
        <ele>712.4000244140625</ele>
        <time>2020-08-11T13:27:54.000Z</time>
      </trkpt>
      <trkpt lat="42.27375959046185016632080078125" lon="1.3727399893105030059814453125">
        <ele>711.4000244140625</ele>
        <time>2020-08-11T13:27:55.000Z</time>
      </trkpt>
      <trkpt lat="42.27389202453196048736572265625" lon="1.3727500475943088531494140625">
        <ele>710.20001220703125</ele>
        <time>2020-08-11T13:27:57.000Z</time>
      </trkpt>
      <trkpt lat="42.27396427653729915618896484375" lon="1.3727317750453948974609375">
        <ele>709.79998779296875</ele>
        <time>2020-08-11T13:27:58.000Z</time>
      </trkpt>
      <trkpt lat="42.2740376181900501251220703125" lon="1.372708640992641448974609375">
        <ele>709</ele>
        <time>2020-08-11T13:27:59.000Z</time>
      </trkpt>
      <trkpt lat="42.274111211299896240234375" lon="1.37269531376659870147705078125">
        <ele>708.4000244140625</ele>
        <time>2020-08-11T13:28:00.000Z</time>
      </trkpt>
      <trkpt lat="42.27418388240039348602294921875" lon="1.372697912156581878662109375">
        <ele>707.4000244140625</ele>
        <time>2020-08-11T13:28:01.000Z</time>
      </trkpt>
      <trkpt lat="42.27425328455865383148193359375" lon="1.3727145083248615264892578125">
        <ele>706.4000244140625</ele>
        <time>2020-08-11T13:28:02.000Z</time>
      </trkpt>
      <trkpt lat="42.27438236586749553680419921875" lon="1.37276303954422473907470703125">
        <ele>704.79998779296875</ele>
        <time>2020-08-11T13:28:04.000Z</time>
      </trkpt>
      <trkpt lat="42.274439446628093719482421875" lon="1.37277443893253803253173828125">
        <ele>704</ele>
        <time>2020-08-11T13:28:05.000Z</time>
      </trkpt>
      <trkpt lat="42.274492084980010986328125" lon="1.3727654702961444854736328125">
        <ele>703</ele>
        <time>2020-08-11T13:28:06.000Z</time>
      </trkpt>
      <trkpt lat="42.27459275163710117340087890625" lon="1.3726674020290374755859375">
        <ele>701.5999755859375</ele>
        <time>2020-08-11T13:28:08.000Z</time>
      </trkpt>
      <trkpt lat="42.2746404446661472320556640625" lon="1.3725894503295421600341796875">
        <ele>700.4000244140625</ele>
        <time>2020-08-11T13:28:09.000Z</time>
      </trkpt>
      <trkpt lat="42.27469450794160366058349609375" lon="1.3725086487829685211181640625">
        <ele>699.5999755859375</ele>
        <time>2020-08-11T13:28:10.000Z</time>
      </trkpt>
      <trkpt lat="42.2747581265866756439208984375" lon="1.37243966571986675262451171875">
        <ele>699</ele>
        <time>2020-08-11T13:28:11.000Z</time>
      </trkpt>
      <trkpt lat="42.27483063004910945892333984375" lon="1.37238551862537860870361328125">
        <ele>698.4000244140625</ele>
        <time>2020-08-11T13:28:12.000Z</time>
      </trkpt>
      <trkpt lat="42.27490707300603389739990234375" lon="1.372344195842742919921875">
        <ele>697.5999755859375</ele>
        <time>2020-08-11T13:28:13.000Z</time>
      </trkpt>
      <trkpt lat="42.27505560033023357391357421875" lon="1.37228786945343017578125">
        <ele>696.5999755859375</ele>
        <time>2020-08-11T13:28:15.000Z</time>
      </trkpt>
      <trkpt lat="42.27512307465076446533203125" lon="1.37226733379065990447998046875">
        <ele>696</ele>
        <time>2020-08-11T13:28:16.000Z</time>
      </trkpt>
      <trkpt lat="42.2751879505813121795654296875" lon="1.37224621139466762542724609375">
        <ele>695.20001220703125</ele>
        <time>2020-08-11T13:28:17.000Z</time>
      </trkpt>
      <trkpt lat="42.27524771355092525482177734375" lon="1.37221285142004489898681640625">
        <ele>695</ele>
        <time>2020-08-11T13:28:18.000Z</time>
      </trkpt>
      <trkpt lat="42.27529699914157390594482421875" lon="1.3721576146781444549560546875">
        <ele>694.5999755859375</ele>
        <time>2020-08-11T13:28:19.000Z</time>
      </trkpt>
      <trkpt lat="42.27532901801168918609619140625" lon="1.3720818422734737396240234375">
        <ele>694.20001220703125</ele>
        <time>2020-08-11T13:28:20.000Z</time>
      </trkpt>
      <trkpt lat="42.2753678262233734130859375" lon="1.371898613870143890380859375">
        <ele>693.5999755859375</ele>
        <time>2020-08-11T13:28:22.000Z</time>
      </trkpt>
      <trkpt lat="42.275392301380634307861328125" lon="1.371806748211383819580078125">
        <ele>693.20001220703125</ele>
        <time>2020-08-11T13:28:23.000Z</time>
      </trkpt>
      <trkpt lat="42.27546639740467071533203125" lon="1.37166869826614856719970703125">
        <ele>691.79998779296875</ele>
        <time>2020-08-11T13:28:25.000Z</time>
      </trkpt>
      <trkpt lat="42.275578044354915618896484375" lon="1.37162209488451480865478515625">
        <ele>690.20001220703125</ele>
        <time>2020-08-11T13:28:27.000Z</time>
      </trkpt>
      <trkpt lat="42.27564208209514617919921875" lon="1.3716171495616436004638671875">
        <ele>689.5999755859375</ele>
        <time>2020-08-11T13:28:28.000Z</time>
      </trkpt>
      <trkpt lat="42.27570603601634502410888671875" lon="1.37160080485045909881591796875">
        <ele>688.79998779296875</ele>
        <time>2020-08-11T13:28:29.000Z</time>
      </trkpt>
      <trkpt lat="42.27582103572785854339599609375" lon="1.37149787507951259613037109375">
        <ele>687.79998779296875</ele>
        <time>2020-08-11T13:28:31.000Z</time>
      </trkpt>
      <trkpt lat="42.2759178467094898223876953125" lon="1.37134465388953685760498046875">
        <ele>686.79998779296875</ele>
        <time>2020-08-11T13:28:33.000Z</time>
      </trkpt>
      <trkpt lat="42.27607668377459049224853515625" lon="1.3711078651249408721923828125">
        <ele>685.4000244140625</ele>
        <time>2020-08-11T13:28:36.000Z</time>
      </trkpt>
      <trkpt lat="42.2762931883335113525390625" lon="1.37081072665750980377197265625">
        <ele>684.20001220703125</ele>
        <time>2020-08-11T13:28:40.000Z</time>
      </trkpt>
      <trkpt lat="42.2763817012310028076171875" lon="1.37064225040376186370849609375">
        <ele>682.79998779296875</ele>
        <time>2020-08-11T13:28:42.000Z</time>
      </trkpt>
      <trkpt lat="42.27642872370779514312744140625" lon="1.37044292874634265899658203125">
        <ele>681.20001220703125</ele>
        <time>2020-08-11T13:28:44.000Z</time>
      </trkpt>
      <trkpt lat="42.27644163183867931365966796875" lon="1.37034234590828418731689453125">
        <ele>680.4000244140625</ele>
        <time>2020-08-11T13:28:45.000Z</time>
      </trkpt>
      <trkpt lat="42.27645973674952983856201171875" lon="1.37024737894535064697265625">
        <ele>679.5999755859375</ele>
        <time>2020-08-11T13:28:46.000Z</time>
      </trkpt>
      <trkpt lat="42.27652276866137981414794921875" lon="1.3700862787663936614990234375">
        <ele>678</ele>
        <time>2020-08-11T13:28:48.000Z</time>
      </trkpt>
      <trkpt lat="42.276567779481410980224609375" lon="1.3700235821306705474853515625">
        <ele>676.79998779296875</ele>
        <time>2020-08-11T13:28:49.000Z</time>
      </trkpt>
      <trkpt lat="42.276677079498767852783203125" lon="1.3699434511363506317138671875">
        <ele>675</ele>
        <time>2020-08-11T13:28:51.000Z</time>
      </trkpt>
      <trkpt lat="42.2767402790486812591552734375" lon="1.369911767542362213134765625">
        <ele>674.20001220703125</ele>
        <time>2020-08-11T13:28:52.000Z</time>
      </trkpt>
      <trkpt lat="42.27680523879826068878173828125" lon="1.36987413279712200164794921875">
        <ele>673.5999755859375</ele>
        <time>2020-08-11T13:28:53.000Z</time>
      </trkpt>
      <trkpt lat="42.276860140264034271240234375" lon="1.36982769705355167388916015625">
        <ele>672.79998779296875</ele>
        <time>2020-08-11T13:28:54.000Z</time>
      </trkpt>
      <trkpt lat="42.2769055701792240142822265625" lon="1.3697654195129871368408203125">
        <ele>672.5999755859375</ele>
        <time>2020-08-11T13:28:55.000Z</time>
      </trkpt>
      <trkpt lat="42.27693985216319561004638671875" lon="1.3696903176605701446533203125">
        <ele>672.20001220703125</ele>
        <time>2020-08-11T13:28:56.000Z</time>
      </trkpt>
      <trkpt lat="42.27703959681093692779541015625" lon="1.369441039860248565673828125">
        <ele>670.79998779296875</ele>
        <time>2020-08-11T13:28:59.000Z</time>
      </trkpt>
      <trkpt lat="42.2772103361785411834716796875" lon="1.36921263299882411956787109375">
        <ele>669.5999755859375</ele>
        <time>2020-08-11T13:29:02.000Z</time>
      </trkpt>
      <trkpt lat="42.2772656567394733428955078125" lon="1.36912747286260128021240234375">
        <ele>669.20001220703125</ele>
        <time>2020-08-11T13:29:03.000Z</time>
      </trkpt>
      <trkpt lat="42.27735735476016998291015625" lon="1.3689252175390720367431640625">
        <ele>668.20001220703125</ele>
        <time>2020-08-11T13:29:05.000Z</time>
      </trkpt>
      <trkpt lat="42.27742181159555912017822265625" lon="1.36869161389768123626708984375">
        <ele>666.4000244140625</ele>
        <time>2020-08-11T13:29:07.000Z</time>
      </trkpt>
      <trkpt lat="42.27744561620056629180908203125" lon="1.36857728473842144012451171875">
        <ele>665.79998779296875</ele>
        <time>2020-08-11T13:29:08.000Z</time>
      </trkpt>
      <trkpt lat="42.27746925316751003265380859375" lon="1.36847485788166522979736328125">
        <ele>665</ele>
        <time>2020-08-11T13:29:09.000Z</time>
      </trkpt>
      <trkpt lat="42.27749892510473728179931640625" lon="1.36838131584227085113525390625">
        <ele>664.4000244140625</ele>
        <time>2020-08-11T13:29:10.000Z</time>
      </trkpt>
      <trkpt lat="42.27753262035548686981201171875" lon="1.36828861199319362640380859375">
        <ele>664</ele>
        <time>2020-08-11T13:29:11.000Z</time>
      </trkpt>
      <trkpt lat="42.2775680758059024810791015625" lon="1.36819305829703807830810546875">
        <ele>663.20001220703125</ele>
        <time>2020-08-11T13:29:12.000Z</time>
      </trkpt>
      <trkpt lat="42.27764175273478031158447265625" lon="1.36801670305430889129638671875">
        <ele>661.79998779296875</ele>
        <time>2020-08-11T13:29:14.000Z</time>
      </trkpt>
      <trkpt lat="42.27774904109537601470947265625" lon="1.3678798265755176544189453125">
        <ele>660.5999755859375</ele>
        <time>2020-08-11T13:29:16.000Z</time>
      </trkpt>
      <trkpt lat="42.2778208740055561065673828125" lon="1.367820985615253448486328125">
        <ele>659.5999755859375</ele>
        <time>2020-08-11T13:29:17.000Z</time>
      </trkpt>
      <trkpt lat="42.2778989933431148529052734375" lon="1.367762982845306396484375">
        <ele>659</ele>
        <time>2020-08-11T13:29:18.000Z</time>
      </trkpt>
      <trkpt lat="42.27797719649970531463623046875" lon="1.36770372278988361358642578125">
        <ele>658</ele>
        <time>2020-08-11T13:29:19.000Z</time>
      </trkpt>
      <trkpt lat="42.2780446708202362060546875" lon="1.367644630372524261474609375">
        <ele>656.79998779296875</ele>
        <time>2020-08-11T13:29:20.000Z</time>
      </trkpt>
      <trkpt lat="42.2781021706759929656982421875" lon="1.36757983826100826263427734375">
        <ele>655.79998779296875</ele>
        <time>2020-08-11T13:29:21.000Z</time>
      </trkpt>
      <trkpt lat="42.27817769162356853485107421875" lon="1.36740691959857940673828125">
        <ele>654.20001220703125</ele>
        <time>2020-08-11T13:29:23.000Z</time>
      </trkpt>
      <trkpt lat="42.2781990654766559600830078125" lon="1.36717515997588634490966796875">
        <ele>653</ele>
        <time>2020-08-11T13:29:25.000Z</time>
      </trkpt>
      <trkpt lat="42.27819261141121387481689453125" lon="1.36704859323799610137939453125">
        <ele>652.20001220703125</ele>
        <time>2020-08-11T13:29:26.000Z</time>
      </trkpt>
      <trkpt lat="42.2781839780509471893310546875" lon="1.36692345142364501953125">
        <ele>651.20001220703125</ele>
        <time>2020-08-11T13:29:27.000Z</time>
      </trkpt>
      <trkpt lat="42.278182469308376312255859375" lon="1.3668000698089599609375">
        <ele>650.20001220703125</ele>
        <time>2020-08-11T13:29:28.000Z</time>
      </trkpt>
      <trkpt lat="42.27819244377315044403076171875" lon="1.36667442508041858673095703125">
        <ele>648.4000244140625</ele>
        <time>2020-08-11T13:29:29.000Z</time>
      </trkpt>
      <trkpt lat="42.2782108001410961151123046875" lon="1.3665467686951160430908203125">
        <ele>647.4000244140625</ele>
        <time>2020-08-11T13:29:30.000Z</time>
      </trkpt>
      <trkpt lat="42.27826528251171112060546875" lon="1.36629137210547924041748046875">
        <ele>645.79998779296875</ele>
        <time>2020-08-11T13:29:32.000Z</time>
      </trkpt>
      <trkpt lat="42.278330326080322265625" lon="1.36606371961534023284912109375">
        <ele>644.4000244140625</ele>
        <time>2020-08-11T13:29:34.000Z</time>
      </trkpt>
      <trkpt lat="42.27839545346796512603759765625" lon="1.3658567704260349273681640625">
        <ele>642.5999755859375</ele>
        <time>2020-08-11T13:29:36.000Z</time>
      </trkpt>
      <trkpt lat="42.27842696942389011383056640625" lon="1.3657518289983272552490234375">
        <ele>641</ele>
        <time>2020-08-11T13:29:37.000Z</time>
      </trkpt>
      <trkpt lat="42.27845312096178531646728515625" lon="1.36563858948647975921630859375">
        <ele>640</ele>
        <time>2020-08-11T13:29:38.000Z</time>
      </trkpt>
      <trkpt lat="42.27847340516746044158935546875" lon="1.36552275158464908599853515625">
        <ele>639.20001220703125</ele>
        <time>2020-08-11T13:29:39.000Z</time>
      </trkpt>
      <trkpt lat="42.278488576412200927734375" lon="1.36540926061570644378662109375">
        <ele>638.20001220703125</ele>
        <time>2020-08-11T13:29:40.000Z</time>
      </trkpt>
      <trkpt lat="42.27851280011236667633056640625" lon="1.36518605053424835205078125">
        <ele>637.20001220703125</ele>
        <time>2020-08-11T13:29:42.000Z</time>
      </trkpt>
      <trkpt lat="42.27852872572839260101318359375" lon="1.3650732301175594329833984375">
        <ele>636</ele>
        <time>2020-08-11T13:29:43.000Z</time>
      </trkpt>
      <trkpt lat="42.27857348509132862091064453125" lon="1.364857815206050872802734375">
        <ele>633.5999755859375</ele>
        <time>2020-08-11T13:29:45.000Z</time>
      </trkpt>
      <trkpt lat="42.278653867542743682861328125" lon="1.36466561816632747650146484375">
        <ele>632</ele>
        <time>2020-08-11T13:29:47.000Z</time>
      </trkpt>
      <trkpt lat="42.27871128357946872711181640625" lon="1.36458565481007099151611328125">
        <ele>631</ele>
        <time>2020-08-11T13:29:48.000Z</time>
      </trkpt>
      <trkpt lat="42.278778254985809326171875" lon="1.364517845213413238525390625">
        <ele>630.20001220703125</ele>
        <time>2020-08-11T13:29:49.000Z</time>
      </trkpt>
      <trkpt lat="42.27885494939982891082763671875" lon="1.3644509576261043548583984375">
        <ele>629.20001220703125</ele>
        <time>2020-08-11T13:29:50.000Z</time>
      </trkpt>
      <trkpt lat="42.27893181145191192626953125" lon="1.36438499204814434051513671875">
        <ele>628.20001220703125</ele>
        <time>2020-08-11T13:29:51.000Z</time>
      </trkpt>
      <trkpt lat="42.27900557219982147216796875" lon="1.36431626044213771820068359375">
        <ele>627.20001220703125</ele>
        <time>2020-08-11T13:29:52.000Z</time>
      </trkpt>
      <trkpt lat="42.2790727950632572174072265625" lon="1.36424602009356021881103515625">
        <ele>625.20001220703125</ele>
        <time>2020-08-11T13:29:53.000Z</time>
      </trkpt>
      <trkpt lat="42.27913155220448970794677734375" lon="1.36417477391660213470458984375">
        <ele>624</ele>
        <time>2020-08-11T13:29:54.000Z</time>
      </trkpt>
      <trkpt lat="42.2791763953864574432373046875" lon="1.36410755105316638946533203125">
        <ele>622.79998779296875</ele>
        <time>2020-08-11T13:29:55.000Z</time>
      </trkpt>
      <trkpt lat="42.27920816279947757720947265625" lon="1.36403915472328662872314453125">
        <ele>621.5999755859375</ele>
        <time>2020-08-11T13:29:56.000Z</time>
      </trkpt>
      <trkpt lat="42.27922744117677211761474609375" lon="1.3639661483466625213623046875">
        <ele>620.5999755859375</ele>
        <time>2020-08-11T13:29:57.000Z</time>
      </trkpt>
      <trkpt lat="42.27923355996608734130859375" lon="1.3637975044548511505126953125">
        <ele>619.4000244140625</ele>
        <time>2020-08-11T13:29:59.000Z</time>
      </trkpt>
      <trkpt lat="42.279188632965087890625" lon="1.36361829936504364013671875">
        <ele>618.20001220703125</ele>
        <time>2020-08-11T13:30:01.000Z</time>
      </trkpt>
      <trkpt lat="42.27915300987660884857177734375" lon="1.3635366596281528472900390625">
        <ele>617.5999755859375</ele>
        <time>2020-08-11T13:30:02.000Z</time>
      </trkpt>
      <trkpt lat="42.27907153777778148651123046875" lon="1.3633923232555389404296875">
        <ele>616.79998779296875</ele>
        <time>2020-08-11T13:30:04.000Z</time>
      </trkpt>
      <trkpt lat="42.27903046645224094390869140625" lon="1.3633271120488643646240234375">
        <ele>616.4000244140625</ele>
        <time>2020-08-11T13:30:05.000Z</time>
      </trkpt>
      <trkpt lat="42.2789566218852996826171875" lon="1.36320264078676700592041015625">
        <ele>616.20001220703125</ele>
        <time>2020-08-11T13:30:07.000Z</time>
      </trkpt>
      <trkpt lat="42.2787133790552616119384765625" lon="1.362907849252223968505859375">
        <ele>616.79998779296875</ele>
        <time>2020-08-11T13:30:13.000Z</time>
      </trkpt>
      <trkpt lat="42.2784917615354061126708984375" lon="1.36264331638813018798828125">
        <ele>615.4000244140625</ele>
        <time>2020-08-11T13:30:18.000Z</time>
      </trkpt>
      <trkpt lat="42.27844976820051670074462890625" lon="1.36259042657911777496337890625">
        <ele>615.20001220703125</ele>
        <time>2020-08-11T13:30:19.000Z</time>
      </trkpt>
      <trkpt lat="42.27837868966162204742431640625" lon="1.36248732917010784149169921875">
        <ele>614.4000244140625</ele>
        <time>2020-08-11T13:30:21.000Z</time>
      </trkpt>
      <trkpt lat="42.27833040989935398101806640625" lon="1.3623695634305477142333984375">
        <ele>614</ele>
        <time>2020-08-11T13:30:23.000Z</time>
      </trkpt>
      <trkpt lat="42.27831968106329441070556640625" lon="1.36225615628063678741455078125">
        <ele>613.20001220703125</ele>
        <time>2020-08-11T13:30:25.000Z</time>
      </trkpt>
      <trkpt lat="42.27833258919417858123779296875" lon="1.36221726424992084503173828125">
        <ele>613.20001220703125</ele>
        <time>2020-08-11T13:30:26.000Z</time>
      </trkpt>
      <trkpt lat="42.27834968827664852142333984375" lon="1.3621901907026767730712890625">
        <ele>612.4000244140625</ele>
        <time>2020-08-11T13:30:29.000Z</time>
      </trkpt>
      <trkpt lat="42.2783506102859973907470703125" lon="1.36219228617846965789794921875">
        <ele>611.79998779296875</ele>
        <time>2020-08-11T13:30:41.000Z</time>
      </trkpt>
      <trkpt lat="42.27835019119083881378173828125" lon="1.36219463311135768890380859375">
        <ele>611.79998779296875</ele>
        <time>2020-08-11T13:31:05.000Z</time>
      </trkpt>
      <trkpt lat="42.27835002355277538299560546875" lon="1.36219496838748455047607421875">
        <ele>612</ele>
        <time>2020-08-11T13:31:08.000Z</time>
      </trkpt>
      <trkpt lat="42.27835019119083881378173828125" lon="1.362196393311023712158203125">
        <ele>612</ele>
        <time>2020-08-11T13:31:27.000Z</time>
      </trkpt>
      <trkpt lat="42.2783492691814899444580078125" lon="1.36219530366361141204833984375">
        <ele>611.79998779296875</ele>
        <time>2020-08-11T13:31:47.000Z</time>
      </trkpt>
      <trkpt lat="42.27835002355277538299560546875" lon="1.36219530366361141204833984375">
        <ele>611.5999755859375</ele>
        <time>2020-08-11T13:32:07.000Z</time>
      </trkpt>
      <trkpt lat="42.27835002355277538299560546875" lon="1.3621960580348968505859375">
        <ele>612</ele>
        <time>2020-08-11T13:32:36.000Z</time>
      </trkpt>
      <trkpt lat="42.2783660329878330230712890625" lon="1.36218122206628322601318359375">
        <ele>612.20001220703125</ele>
        <time>2020-08-11T13:32:46.000Z</time>
      </trkpt>
      <trkpt lat="42.278464771807193756103515625" lon="1.36219413019716739654541015625">
        <ele>611.79998779296875</ele>
        <time>2020-08-11T13:32:51.000Z</time>
      </trkpt>
      <trkpt lat="42.27849167771637439727783203125" lon="1.3622113130986690521240234375">
        <ele>611.79998779296875</ele>
        <time>2020-08-11T13:32:52.000Z</time>
      </trkpt>
      <trkpt lat="42.27870382368564605712890625" lon="1.36234290897846221923828125">
        <ele>611.79998779296875</ele>
        <time>2020-08-11T13:32:59.000Z</time>
      </trkpt>
      <trkpt lat="42.2790365852415561676025390625" lon="1.36254047043621540069580078125">
        <ele>611.5999755859375</ele>
        <time>2020-08-11T13:33:08.000Z</time>
      </trkpt>
      <trkpt lat="42.2791489027440547943115234375" lon="1.36260702274739742279052734375">
        <ele>611.4000244140625</ele>
        <time>2020-08-11T13:33:11.000Z</time>
      </trkpt>
      <trkpt lat="42.2793654911220073699951171875" lon="1.36272847652435302734375">
        <ele>611.4000244140625</ele>
        <time>2020-08-11T13:33:17.000Z</time>
      </trkpt>
      <trkpt lat="42.27971090935170650482177734375" lon="1.36293425224721431732177734375">
        <ele>611.4000244140625</ele>
        <time>2020-08-11T13:33:26.000Z</time>
      </trkpt>
      <trkpt lat="42.2800457663834095001220703125" lon="1.363123767077922821044921875">
        <ele>611.20001220703125</ele>
        <time>2020-08-11T13:33:35.000Z</time>
      </trkpt>
      <trkpt lat="42.28037886321544647216796875" lon="1.36333071626722812652587890625">
        <ele>611.4000244140625</ele>
        <time>2020-08-11T13:33:44.000Z</time>
      </trkpt>
      <trkpt lat="42.28053174912929534912109375" lon="1.363430880010128021240234375">
        <ele>611</ele>
        <time>2020-08-11T13:33:48.000Z</time>
      </trkpt>
      <trkpt lat="42.28068438358604907989501953125" lon="1.3635581173002719879150390625">
        <ele>610.5999755859375</ele>
        <time>2020-08-11T13:33:52.000Z</time>
      </trkpt>
      <trkpt lat="42.28097959421575069427490234375" lon="1.36385810561478137969970703125">
        <ele>610.79998779296875</ele>
        <time>2020-08-11T13:34:00.000Z</time>
      </trkpt>
      <trkpt lat="42.28129810653626918792724609375" lon="1.364246942102909088134765625">
        <ele>610</ele>
        <time>2020-08-11T13:34:09.000Z</time>
      </trkpt>
      <trkpt lat="42.2815706022083759307861328125" lon="1.36457584798336029052734375">
        <ele>610</ele>
        <time>2020-08-11T13:34:17.000Z</time>
      </trkpt>
      <trkpt lat="42.28185064159333705902099609375" lon="1.36483023874461650848388671875">
        <ele>610.20001220703125</ele>
        <time>2020-08-11T13:34:25.000Z</time>
      </trkpt>
      <trkpt lat="42.28214954026043415069580078125" lon="1.3650407083332538604736328125">
        <ele>610.4000244140625</ele>
        <time>2020-08-11T13:34:33.000Z</time>
      </trkpt>
      <trkpt lat="42.282538712024688720703125" lon="1.3652686960995197296142578125">
        <ele>610.4000244140625</ele>
        <time>2020-08-11T13:34:43.000Z</time>
      </trkpt>
      <trkpt lat="42.282941378653049468994140625" lon="1.36548285372555255889892578125">
        <ele>610</ele>
        <time>2020-08-11T13:34:53.000Z</time>
      </trkpt>
      <trkpt lat="42.28321203030645847320556640625" lon="1.365642361342906951904296875">
        <ele>610.4000244140625</ele>
        <time>2020-08-11T13:35:00.000Z</time>
      </trkpt>
      <trkpt lat="42.2835597954690456390380859375" lon="1.36583782732486724853515625">
        <ele>610.5999755859375</ele>
        <time>2020-08-11T13:35:09.000Z</time>
      </trkpt>
      <trkpt lat="42.28393270634114742279052734375" lon="1.36602222919464111328125">
        <ele>610.4000244140625</ele>
        <time>2020-08-11T13:35:18.000Z</time>
      </trkpt>
      <trkpt lat="42.28434023447334766387939453125" lon="1.3662193715572357177734375">
        <ele>610.5999755859375</ele>
        <time>2020-08-11T13:35:28.000Z</time>
      </trkpt>
      <trkpt lat="42.284739129245281219482421875" lon="1.36638239957392215728759765625">
        <ele>611</ele>
        <time>2020-08-11T13:35:38.000Z</time>
      </trkpt>
      <trkpt lat="42.2851506806910037994384765625" lon="1.36653344146907329559326171875">
        <ele>612</ele>
        <time>2020-08-11T13:35:48.000Z</time>
      </trkpt>
      <trkpt lat="42.28560808114707469940185546875" lon="1.36668330989778041839599609375">
        <ele>612.20001220703125</ele>
        <time>2020-08-11T13:35:59.000Z</time>
      </trkpt>
      <trkpt lat="42.2860348038375377655029296875" lon="1.36679780669510364532470703125">
        <ele>612.20001220703125</ele>
        <time>2020-08-11T13:36:09.000Z</time>
      </trkpt>
      <trkpt lat="42.28624996729195117950439453125" lon="1.3668592460453510284423828125">
        <ele>612.20001220703125</ele>
        <time>2020-08-11T13:36:15.000Z</time>
      </trkpt>
      <trkpt lat="42.28627645410597324371337890625" lon="1.3668709807097911834716796875">
        <ele>612.4000244140625</ele>
        <time>2020-08-11T13:36:19.000Z</time>
      </trkpt>
      <trkpt lat="42.286272011697292327880859375" lon="1.36686352081596851348876953125">
        <ele>612.4000244140625</ele>
        <time>2020-08-11T13:36:29.000Z</time>
      </trkpt>
      <trkpt lat="42.28629740886390209197998046875" lon="1.36686922051012516021728515625">
        <ele>612.4000244140625</ele>
        <time>2020-08-11T13:36:40.000Z</time>
      </trkpt>
      <trkpt lat="42.28641861118376255035400390625" lon="1.3668672926723957061767578125">
        <ele>612.4000244140625</ele>
        <time>2020-08-11T13:36:46.000Z</time>
      </trkpt>
      <trkpt lat="42.28659882210195064544677734375" lon="1.3668424822390079498291015625">
        <ele>612.4000244140625</ele>
        <time>2020-08-11T13:36:52.000Z</time>
      </trkpt>
      <trkpt lat="42.28688481263816356658935546875" lon="1.3667945377528667449951171875">
        <ele>612.4000244140625</ele>
        <time>2020-08-11T13:37:00.000Z</time>
      </trkpt>
      <trkpt lat="42.28727239184081554412841796875" lon="1.3667258061468601226806640625">
        <ele>611.79998779296875</ele>
        <time>2020-08-11T13:37:10.000Z</time>
      </trkpt>
      <trkpt lat="42.28755737654864788055419921875" lon="1.36668850667774677276611328125">
        <ele>611.79998779296875</ele>
        <time>2020-08-11T13:37:17.000Z</time>
      </trkpt>
      <trkpt lat="42.287600040435791015625" lon="1.3666832260787487030029296875">
        <ele>611.5999755859375</ele>
        <time>2020-08-11T13:37:18.000Z</time>
      </trkpt>
      <trkpt lat="42.28781201876699924468994140625" lon="1.36666126549243927001953125">
        <ele>611.4000244140625</ele>
        <time>2020-08-11T13:37:23.000Z</time>
      </trkpt>
      <trkpt lat="42.287901453673839569091796875" lon="1.36666453443467617034912109375">
        <ele>611.4000244140625</ele>
        <time>2020-08-11T13:37:25.000Z</time>
      </trkpt>
      <trkpt lat="42.288349382579326629638671875" lon="1.36674114502966403961181640625">
        <ele>611.20001220703125</ele>
        <time>2020-08-11T13:37:35.000Z</time>
      </trkpt>
      <trkpt lat="42.28881315328180789947509765625" lon="1.36695739813148975372314453125">
        <ele>611.4000244140625</ele>
        <time>2020-08-11T13:37:46.000Z</time>
      </trkpt>
      <trkpt lat="42.28920458815991878509521484375" lon="1.367243640124797821044921875">
        <ele>611.5999755859375</ele>
        <time>2020-08-11T13:37:56.000Z</time>
      </trkpt>
      <trkpt lat="42.28960624895989894866943359375" lon="1.36754865758121013641357421875">
        <ele>612.5999755859375</ele>
        <time>2020-08-11T13:38:06.000Z</time>
      </trkpt>
      <trkpt lat="42.28983138687908649444580078125" lon="1.3677252642810344696044921875">
        <ele>612.20001220703125</ele>
        <time>2020-08-11T13:38:12.000Z</time>
      </trkpt>
      <trkpt lat="42.28987229056656360626220703125" lon="1.367753930389881134033203125">
        <ele>612</ele>
        <time>2020-08-11T13:38:13.000Z</time>
      </trkpt>
      <trkpt lat="42.290241681039333343505859375" lon="1.3679918088018894195556640625">
        <ele>612.5999755859375</ele>
        <time>2020-08-11T13:38:22.000Z</time>
      </trkpt>
      <trkpt lat="42.29063252918422222137451171875" lon="1.36816020123660564422607421875">
        <ele>612.5999755859375</ele>
        <time>2020-08-11T13:38:31.000Z</time>
      </trkpt>
      <trkpt lat="42.29105405509471893310546875" lon="1.36824871413409709930419921875">
        <ele>612.5999755859375</ele>
        <time>2020-08-11T13:38:40.000Z</time>
      </trkpt>
      <trkpt lat="42.29143534786999225616455078125" lon="1.368282996118068695068359375">
        <ele>612.79998779296875</ele>
        <time>2020-08-11T13:38:48.000Z</time>
      </trkpt>
      <trkpt lat="42.29185159318149089813232421875" lon="1.36826983653008937835693359375">
        <ele>612.5999755859375</ele>
        <time>2020-08-11T13:38:57.000Z</time>
      </trkpt>
      <trkpt lat="42.29215384460985660552978515625" lon="1.3682392425835132598876953125">
        <ele>612.5999755859375</ele>
        <time>2020-08-11T13:39:04.000Z</time>
      </trkpt>
      <trkpt lat="42.2924992628395557403564453125" lon="1.36814326979219913482666015625">
        <ele>612.79998779296875</ele>
        <time>2020-08-11T13:39:12.000Z</time>
      </trkpt>
      <trkpt lat="42.2928979061543941497802734375" lon="1.36791645549237728118896484375">
        <ele>613.4000244140625</ele>
        <time>2020-08-11T13:39:22.000Z</time>
      </trkpt>
      <trkpt lat="42.2932527959346771240234375" lon="1.3676568679511547088623046875">
        <ele>614.5999755859375</ele>
        <time>2020-08-11T13:39:32.000Z</time>
      </trkpt>
      <trkpt lat="42.29360123164951801300048828125" lon="1.367371380329132080078125">
        <ele>615.5999755859375</ele>
        <time>2020-08-11T13:39:43.000Z</time>
      </trkpt>
      <trkpt lat="42.29363291524350643157958984375" lon="1.36734799481928348541259765625">
        <ele>615.5999755859375</ele>
        <time>2020-08-11T13:39:44.000Z</time>
      </trkpt>
      <trkpt lat="42.293812371790409088134765625" lon="1.36720533482730388641357421875">
        <ele>616.79998779296875</ele>
        <time>2020-08-11T13:39:50.000Z</time>
      </trkpt>
      <trkpt lat="42.2939258627593517303466796875" lon="1.3671137206256389617919921875">
        <ele>617</ele>
        <time>2020-08-11T13:39:54.000Z</time>
      </trkpt>
      <trkpt lat="42.294181846082210540771484375" lon="1.36691247113049030303955078125">
        <ele>618</ele>
        <time>2020-08-11T13:40:03.000Z</time>
      </trkpt>
      <trkpt lat="42.294261641800403594970703125" lon="1.36684608645737171173095703125">
        <ele>618</ele>
        <time>2020-08-11T13:40:06.000Z</time>
      </trkpt>
      <trkpt lat="42.29447781108319759368896484375" lon="1.366658918559551239013671875">
        <ele>619.20001220703125</ele>
        <time>2020-08-11T13:40:14.000Z</time>
      </trkpt>
      <trkpt lat="42.29450496844947338104248046875" lon="1.36663653887808322906494140625">
        <ele>619.20001220703125</ele>
        <time>2020-08-11T13:40:15.000Z</time>
      </trkpt>
      <trkpt lat="42.29473077692091464996337890625" lon="1.36642992496490478515625">
        <ele>620.20001220703125</ele>
        <time>2020-08-11T13:40:24.000Z</time>
      </trkpt>
      <trkpt lat="42.29475525207817554473876953125" lon="1.3664072938263416290283203125">
        <ele>620.20001220703125</ele>
        <time>2020-08-11T13:40:25.000Z</time>
      </trkpt>
      <trkpt lat="42.2949839942157268524169921875" lon="1.3661803118884563446044921875">
        <ele>620</ele>
        <time>2020-08-11T13:40:34.000Z</time>
      </trkpt>
      <trkpt lat="42.29516328312456607818603515625" lon="1.36609473265707492828369140625">
        <ele>621</ele>
        <time>2020-08-11T13:40:40.000Z</time>
      </trkpt>
      <trkpt lat="42.295257747173309326171875" lon="1.36600487865507602691650390625">
        <ele>621</ele>
        <time>2020-08-11T13:40:44.000Z</time>
      </trkpt>
      <trkpt lat="42.2953846491873264312744140625" lon="1.36584319174289703369140625">
        <ele>620.79998779296875</ele>
        <time>2020-08-11T13:40:50.000Z</time>
      </trkpt>
      <trkpt lat="42.295471318066120147705078125" lon="1.3658339716494083404541015625">
        <ele>621.20001220703125</ele>
        <time>2020-08-11T13:40:54.000Z</time>
      </trkpt>
      <trkpt lat="42.2954805381596088409423828125" lon="1.36583439074456691741943359375">
        <ele>621.4000244140625</ele>
        <time>2020-08-11T13:40:57.000Z</time>
      </trkpt>
      <trkpt lat="42.29547307826578617095947265625" lon="1.365877725183963775634765625">
        <ele>627</ele>
        <time>2020-08-11T14:55:05.000Z</time>
      </trkpt>
      <trkpt lat="42.29547374881803989410400390625" lon="1.36587713845074176788330078125">
        <ele>627</ele>
        <time>2020-08-11T14:55:06.000Z</time>
      </trkpt>
      <trkpt lat="42.295427732169628143310546875" lon="1.3658597879111766815185546875">
        <ele>626.5999755859375</ele>
        <time>2020-08-11T14:55:13.000Z</time>
      </trkpt>
      <trkpt lat="42.295405603945255279541015625" lon="1.3658681698143482208251953125">
        <ele>626.5999755859375</ele>
        <time>2020-08-11T14:55:14.000Z</time>
      </trkpt>
      <trkpt lat="42.29534500278532505035400390625" lon="1.365931369364261627197265625">
        <ele>626.4000244140625</ele>
        <time>2020-08-11T14:55:17.000Z</time>
      </trkpt>
      <trkpt lat="42.29528901167213916778564453125" lon="1.36599767021834850311279296875">
        <ele>626</ele>
        <time>2020-08-11T14:55:20.000Z</time>
      </trkpt>
      <trkpt lat="42.29525967501103878021240234375" lon="1.36604025028645992279052734375">
        <ele>625.79998779296875</ele>
        <time>2020-08-11T14:55:22.000Z</time>
      </trkpt>
      <trkpt lat="42.29523218236863613128662109375" lon="1.3660663180053234100341796875">
        <ele>625.79998779296875</ele>
        <time>2020-08-11T14:55:24.000Z</time>
      </trkpt>
      <trkpt lat="42.29520770721137523651123046875" lon="1.3660584390163421630859375">
        <ele>625.79998779296875</ele>
        <time>2020-08-11T14:55:26.000Z</time>
      </trkpt>
      <trkpt lat="42.2952129878103733062744140625" lon="1.3660495541989803314208984375">
        <ele>626</ele>
        <time>2020-08-11T14:55:32.000Z</time>
      </trkpt>
      <trkpt lat="42.29526436887681484222412109375" lon="1.36602801270782947540283203125">
        <ele>625.79998779296875</ele>
        <time>2020-08-11T14:55:37.000Z</time>
      </trkpt>
      <trkpt lat="42.2952927835285663604736328125" lon="1.3659221492707729339599609375">
        <ele>625.79998779296875</ele>
        <time>2020-08-11T14:55:41.000Z</time>
      </trkpt>
      <trkpt lat="42.2953021712601184844970703125" lon="1.365893818438053131103515625">
        <ele>625.79998779296875</ele>
        <time>2020-08-11T14:55:42.000Z</time>
      </trkpt>
      <trkpt lat="42.295396216213703155517578125" lon="1.36576347984373569488525390625">
        <ele>625.79998779296875</ele>
        <time>2020-08-11T14:55:47.000Z</time>
      </trkpt>
      <trkpt lat="42.2955549694597721099853515625" lon="1.36559684760868549346923828125">
        <ele>625.79998779296875</ele>
        <time>2020-08-11T14:55:54.000Z</time>
      </trkpt>
      <trkpt lat="42.29577449150383472442626953125" lon="1.3653521798551082611083984375">
        <ele>625.5999755859375</ele>
        <time>2020-08-11T14:56:03.000Z</time>
      </trkpt>
      <trkpt lat="42.2960099391639232635498046875" lon="1.36508840136229991912841796875">
        <ele>626</ele>
        <time>2020-08-11T14:56:12.000Z</time>
      </trkpt>
      <trkpt lat="42.29603751562535762786865234375" lon="1.3650581426918506622314453125">
        <ele>626</ele>
        <time>2020-08-11T14:56:13.000Z</time>
      </trkpt>
      <trkpt lat="42.29632149450480937957763671875" lon="1.36477642692625522613525390625">
        <ele>626.20001220703125</ele>
        <time>2020-08-11T14:56:23.000Z</time>
      </trkpt>
      <trkpt lat="42.2966687567532062530517578125" lon="1.36453083716332912445068359375">
        <ele>625.4000244140625</ele>
        <time>2020-08-11T14:56:34.000Z</time>
      </trkpt>
      <trkpt lat="42.29701534844934940338134765625" lon="1.3643674738705158233642578125">
        <ele>625.5999755859375</ele>
        <time>2020-08-11T14:56:44.000Z</time>
      </trkpt>
      <trkpt lat="42.297432683408260345458984375" lon="1.36424920521676540374755859375">
        <ele>626</ele>
        <time>2020-08-11T14:56:55.000Z</time>
      </trkpt>
      <trkpt lat="42.29766645468771457672119140625" lon="1.36423244141042232513427734375">
        <ele>626.20001220703125</ele>
        <time>2020-08-11T14:57:01.000Z</time>
      </trkpt>
      <trkpt lat="42.297826297581195831298828125" lon="1.36424124240875244140625">
        <ele>626.4000244140625</ele>
        <time>2020-08-11T14:57:05.000Z</time>
      </trkpt>
      <trkpt lat="42.2981801815330982208251953125" lon="1.36431357823312282562255859375">
        <ele>626.20001220703125</ele>
        <time>2020-08-11T14:57:14.000Z</time>
      </trkpt>
      <trkpt lat="42.2985627315938472747802734375" lon="1.36449337005615234375">
        <ele>626.20001220703125</ele>
        <time>2020-08-11T14:57:24.000Z</time>
      </trkpt>
      <trkpt lat="42.29881494306027889251708984375" lon="1.36466846801340579986572265625">
        <ele>626.4000244140625</ele>
        <time>2020-08-11T14:57:31.000Z</time>
      </trkpt>
      <trkpt lat="42.29888266883790493011474609375" lon="1.36473652906715869903564453125">
        <ele>626.4000244140625</ele>
        <time>2020-08-11T14:57:33.000Z</time>
      </trkpt>
      <trkpt lat="42.2991005145013332366943359375" lon="1.36495529673993587493896484375">
        <ele>626.79998779296875</ele>
        <time>2020-08-11T14:57:40.000Z</time>
      </trkpt>
      <trkpt lat="42.29913144372403621673583984375" lon="1.3649890758097171783447265625">
        <ele>626.79998779296875</ele>
        <time>2020-08-11T14:57:41.000Z</time>
      </trkpt>
      <trkpt lat="42.29947711341083049774169921875" lon="1.36541244573891162872314453125">
        <ele>627.4000244140625</ele>
        <time>2020-08-11T14:57:52.000Z</time>
      </trkpt>
      <trkpt lat="42.299674339592456817626953125" lon="1.36565677821636199951171875">
        <ele>627.5999755859375</ele>
        <time>2020-08-11T14:57:58.000Z</time>
      </trkpt>
      <trkpt lat="42.29976293630897998809814453125" lon="1.3657756336033344268798828125">
        <ele>627.5999755859375</ele>
        <time>2020-08-11T14:58:01.000Z</time>
      </trkpt>
      <trkpt lat="42.30004540644586086273193359375" lon="1.36614250950515270233154296875">
        <ele>627.79998779296875</ele>
        <time>2020-08-11T14:58:11.000Z</time>
      </trkpt>
      <trkpt lat="42.30017758905887603759765625" lon="1.366296820342540740966796875">
        <ele>628</ele>
        <time>2020-08-11T14:58:16.000Z</time>
      </trkpt>
      <trkpt lat="42.30024464428424835205078125" lon="1.3663922064006328582763671875">
        <ele>628</ele>
        <time>2020-08-11T14:58:19.000Z</time>
      </trkpt>
      <trkpt lat="42.30041538365185260772705078125" lon="1.36659680865705013275146484375">
        <ele>628.20001220703125</ele>
        <time>2020-08-11T14:58:26.000Z</time>
      </trkpt>
      <trkpt lat="42.30066063813865184783935546875" lon="1.36681876145303249359130859375">
        <ele>628.4000244140625</ele>
        <time>2020-08-11T14:58:34.000Z</time>
      </trkpt>
      <trkpt lat="42.30079441331326961517333984375" lon="1.36691741645336151123046875">
        <ele>628.79998779296875</ele>
        <time>2020-08-11T14:58:38.000Z</time>
      </trkpt>
      <trkpt lat="42.30100446380674839019775390625" lon="1.36704255826771259307861328125">
        <ele>628.5999755859375</ele>
        <time>2020-08-11T14:58:44.000Z</time>
      </trkpt>
      <trkpt lat="42.301346026360988616943359375" lon="1.36718287132680416107177734375">
        <ele>628.5999755859375</ele>
        <time>2020-08-11T14:58:53.000Z</time>
      </trkpt>
      <trkpt lat="42.30150519870221614837646484375" lon="1.36722830124199390411376953125">
        <ele>628.4000244140625</ele>
        <time>2020-08-11T14:58:57.000Z</time>
      </trkpt>
      <trkpt lat="42.30162086896598339080810546875" lon="1.36726467870175838470458984375">
        <ele>628.4000244140625</ele>
        <time>2020-08-11T14:59:00.000Z</time>
      </trkpt>
      <trkpt lat="42.30165741406381130218505859375" lon="1.36727440170943737030029296875">
        <ele>628.5999755859375</ele>
        <time>2020-08-11T14:59:01.000Z</time>
      </trkpt>
      <trkpt lat="42.3019530437886714935302734375" lon="1.36736593209207057952880859375">
        <ele>628.20001220703125</ele>
        <time>2020-08-11T14:59:09.000Z</time>
      </trkpt>
      <trkpt lat="42.30230189859867095947265625" lon="1.3675100170075893402099609375">
        <ele>628.79998779296875</ele>
        <time>2020-08-11T14:59:18.000Z</time>
      </trkpt>
      <trkpt lat="42.30262652970850467681884765625" lon="1.36769835837185382843017578125">
        <ele>629.20001220703125</ele>
        <time>2020-08-11T14:59:27.000Z</time>
      </trkpt>
      <trkpt lat="42.30306188575923442840576171875" lon="1.36799407191574573516845703125">
        <ele>629.79998779296875</ele>
        <time>2020-08-11T14:59:39.000Z</time>
      </trkpt>
      <trkpt lat="42.303132712841033935546875" lon="1.3680437766015529632568359375">
        <ele>629.79998779296875</ele>
        <time>2020-08-11T14:59:41.000Z</time>
      </trkpt>
      <trkpt lat="42.30341409333050251007080078125" lon="1.36823798529803752899169921875">
        <ele>630.20001220703125</ele>
        <time>2020-08-11T14:59:49.000Z</time>
      </trkpt>
      <trkpt lat="42.303448878228664398193359375" lon="1.3682596944272518157958984375">
        <ele>630.4000244140625</ele>
        <time>2020-08-11T14:59:50.000Z</time>
      </trkpt>
      <trkpt lat="42.30374157428741455078125" lon="1.36846982873976230621337890625">
        <ele>630.4000244140625</ele>
        <time>2020-08-11T14:59:59.000Z</time>
      </trkpt>
      <trkpt lat="42.30399479158222675323486328125" lon="1.368652470409870147705078125">
        <ele>631.20001220703125</ele>
        <time>2020-08-11T15:00:07.000Z</time>
      </trkpt>
      <trkpt lat="42.30408984236419200897216796875" lon="1.36872128583490848541259765625">
        <ele>631.4000244140625</ele>
        <time>2020-08-11T15:00:10.000Z</time>
      </trkpt>
      <trkpt lat="42.3043921776115894317626953125" lon="1.3689580745995044708251953125">
        <ele>632.5999755859375</ele>
        <time>2020-08-11T15:00:20.000Z</time>
      </trkpt>
      <trkpt lat="42.304550595581531524658203125" lon="1.369122527539730072021484375">
        <ele>633.79998779296875</ele>
        <time>2020-08-11T15:00:26.000Z</time>
      </trkpt>
      <trkpt lat="42.30462527833878993988037109375" lon="1.36920802295207977294921875">
        <ele>634</ele>
        <time>2020-08-11T15:00:29.000Z</time>
      </trkpt>
      <trkpt lat="42.30476609431207180023193359375" lon="1.369388066232204437255859375">
        <ele>634</ele>
        <time>2020-08-11T15:00:35.000Z</time>
      </trkpt>
      <trkpt lat="42.3048146255314350128173828125" lon="1.36944414116442203521728515625">
        <ele>634.20001220703125</ele>
        <time>2020-08-11T15:00:37.000Z</time>
      </trkpt>
      <trkpt lat="42.3049487359821796417236328125" lon="1.369619071483612060546875">
        <ele>634.79998779296875</ele>
        <time>2020-08-11T15:00:43.000Z</time>
      </trkpt>
      <trkpt lat="42.305013947188854217529296875" lon="1.369703225791454315185546875">
        <ele>635.20001220703125</ele>
        <time>2020-08-11T15:00:46.000Z</time>
      </trkpt>
      <trkpt lat="42.30514110065996646881103515625" lon="1.36986658908426761627197265625">
        <ele>635.79998779296875</ele>
        <time>2020-08-11T15:00:52.000Z</time>
      </trkpt>
      <trkpt lat="42.305245958268642425537109375" lon="1.37000421993434429168701171875">
        <ele>636.4000244140625</ele>
        <time>2020-08-11T15:00:57.000Z</time>
      </trkpt>
      <trkpt lat="42.3053731955587863922119140625" lon="1.37017336674034595489501953125">
        <ele>637</ele>
        <time>2020-08-11T15:01:03.000Z</time>
      </trkpt>
      <trkpt lat="42.30543262325227260589599609375" lon="1.37025400064885616302490234375">
        <ele>637.4000244140625</ele>
        <time>2020-08-11T15:01:06.000Z</time>
      </trkpt>
      <trkpt lat="42.30556338094174861907958984375" lon="1.37041845358908176422119140625">
        <ele>638</ele>
        <time>2020-08-11T15:01:12.000Z</time>
      </trkpt>
      <trkpt lat="42.30562523938715457916259765625" lon="1.37050042860209941864013671875">
        <ele>638.4000244140625</ele>
        <time>2020-08-11T15:01:15.000Z</time>
      </trkpt>
      <trkpt lat="42.30579086579382419586181640625" lon="1.3707176037132740020751953125">
        <ele>639</ele>
        <time>2020-08-11T15:01:23.000Z</time>
      </trkpt>
      <trkpt lat="42.30595850385725498199462890625" lon="1.37093762867152690887451171875">
        <ele>640.20001220703125</ele>
        <time>2020-08-11T15:01:31.000Z</time>
      </trkpt>
      <trkpt lat="42.30618062429130077362060546875" lon="1.37120400555431842803955078125">
        <ele>641.20001220703125</ele>
        <time>2020-08-11T15:01:41.000Z</time>
      </trkpt>
      <trkpt lat="42.30620241723954677581787109375" lon="1.37123116292059421539306640625">
        <ele>641.4000244140625</ele>
        <time>2020-08-11T15:01:42.000Z</time>
      </trkpt>
      <trkpt lat="42.3062677122652530670166015625" lon="1.37131229974329471588134765625">
        <ele>641.79998779296875</ele>
        <time>2020-08-11T15:01:45.000Z</time>
      </trkpt>
      <trkpt lat="42.30635664425790309906005859375" lon="1.37141690589487552642822265625">
        <ele>642.20001220703125</ele>
        <time>2020-08-11T15:01:49.000Z</time>
      </trkpt>
      <trkpt lat="42.306464016437530517578125" lon="1.37154783122241497039794921875">
        <ele>642.79998779296875</ele>
        <time>2020-08-11T15:01:54.000Z</time>
      </trkpt>
      <trkpt lat="42.30650651268661022186279296875" lon="1.37160097248852252960205078125">
        <ele>643.20001220703125</ele>
        <time>2020-08-11T15:01:56.000Z</time>
      </trkpt>
      <trkpt lat="42.3066904954612255096435546875" lon="1.3718582130968570709228515625">
        <ele>644</ele>
        <time>2020-08-11T15:02:05.000Z</time>
      </trkpt>
      <trkpt lat="42.30670901946723461151123046875" lon="1.37188511900603771209716796875">
        <ele>644.20001220703125</ele>
        <time>2020-08-11T15:02:06.000Z</time>
      </trkpt>
      <trkpt lat="42.30684497393667697906494140625" lon="1.37211143039166927337646484375">
        <ele>645.4000244140625</ele>
        <time>2020-08-11T15:02:14.000Z</time>
      </trkpt>
      <trkpt lat="42.3069630749523639678955078125" lon="1.37233422137796878814697265625">
        <ele>646.4000244140625</ele>
        <time>2020-08-11T15:02:22.000Z</time>
      </trkpt>
      <trkpt lat="42.30697564780712127685546875" lon="1.3723638094961643218994140625">
        <ele>646.4000244140625</ele>
        <time>2020-08-11T15:02:23.000Z</time>
      </trkpt>
      <trkpt lat="42.30707396753132343292236328125" lon="1.3726042024791240692138671875">
        <ele>647.20001220703125</ele>
        <time>2020-08-11T15:02:31.000Z</time>
      </trkpt>
      <trkpt lat="42.3071216605603694915771484375" lon="1.372729428112506866455078125">
        <ele>647.4000244140625</ele>
        <time>2020-08-11T15:02:35.000Z</time>
      </trkpt>
      <trkpt lat="42.30721193365752696990966796875" lon="1.3729341141879558563232421875">
        <ele>648.4000244140625</ele>
        <time>2020-08-11T15:02:42.000Z</time>
      </trkpt>
      <trkpt lat="42.30729089118540287017822265625" lon="1.3731433264911174774169921875">
        <ele>649.79998779296875</ele>
        <time>2020-08-11T15:02:49.000Z</time>
      </trkpt>
      <trkpt lat="42.307311259210109710693359375" lon="1.3732030056416988372802734375">
        <ele>649.79998779296875</ele>
        <time>2020-08-11T15:02:51.000Z</time>
      </trkpt>
      <trkpt lat="42.3073922283947467803955078125" lon="1.37340542860329151153564453125">
        <ele>651</ele>
        <time>2020-08-11T15:02:58.000Z</time>
      </trkpt>
      <trkpt lat="42.3074146918952465057373046875" lon="1.37346141971647739410400390625">
        <ele>651.20001220703125</ele>
        <time>2020-08-11T15:03:00.000Z</time>
      </trkpt>
      <trkpt lat="42.3074897937476634979248046875" lon="1.37362604029476642608642578125">
        <ele>652</ele>
        <time>2020-08-11T15:03:06.000Z</time>
      </trkpt>
      <trkpt lat="42.3075498081743717193603515625" lon="1.3737679459154605865478515625">
        <ele>653</ele>
        <time>2020-08-11T15:03:11.000Z</time>
      </trkpt>
      <trkpt lat="42.30756397359073162078857421875" lon="1.37379384599626064300537109375">
        <ele>653</ele>
        <time>2020-08-11T15:03:12.000Z</time>
      </trkpt>
      <trkpt lat="42.30768509209156036376953125" lon="1.3740031421184539794921875">
        <ele>653.79998779296875</ele>
        <time>2020-08-11T15:03:20.000Z</time>
      </trkpt>
      <trkpt lat="42.30773496441543102264404296875" lon="1.37407757341861724853515625">
        <ele>654.20001220703125</ele>
        <time>2020-08-11T15:03:23.000Z</time>
      </trkpt>
      <trkpt lat="42.30782314203679561614990234375" lon="1.3741964288055896759033203125">
        <ele>655.20001220703125</ele>
        <time>2020-08-11T15:03:28.000Z</time>
      </trkpt>
      <trkpt lat="42.30787795968353748321533203125" lon="1.37426625005900859832763671875">
        <ele>655.5999755859375</ele>
        <time>2020-08-11T15:03:31.000Z</time>
      </trkpt>
      <trkpt lat="42.30805465020239353179931640625" lon="1.37447881512343883514404296875">
        <ele>656.20001220703125</ele>
        <time>2020-08-11T15:03:40.000Z</time>
      </trkpt>
      <trkpt lat="42.30809605680406093597412109375" lon="1.37452684342861175537109375">
        <ele>656.5999755859375</ele>
        <time>2020-08-11T15:03:42.000Z</time>
      </trkpt>
      <trkpt lat="42.30830912478268146514892578125" lon="1.37477452866733074188232421875">
        <ele>657</ele>
        <time>2020-08-11T15:03:52.000Z</time>
      </trkpt>
      <trkpt lat="42.3083509504795074462890625" lon="1.37482314370572566986083984375">
        <ele>657</ele>
        <time>2020-08-11T15:03:54.000Z</time>
      </trkpt>
      <trkpt lat="42.308588661253452301025390625" lon="1.37509589083492755889892578125">
        <ele>658.4000244140625</ele>
        <time>2020-08-11T15:04:05.000Z</time>
      </trkpt>
      <trkpt lat="42.308632247149944305419921875" lon="1.37514601461589336395263671875">
        <ele>658.5999755859375</ele>
        <time>2020-08-11T15:04:07.000Z</time>
      </trkpt>
      <trkpt lat="42.30888596735894680023193359375" lon="1.37544415891170501708984375">
        <ele>659</ele>
        <time>2020-08-11T15:04:18.000Z</time>
      </trkpt>
      <trkpt lat="42.30905645526945590972900390625" lon="1.37563526630401611328125">
        <ele>659.5999755859375</ele>
        <time>2020-08-11T15:04:25.000Z</time>
      </trkpt>
      <trkpt lat="42.30915636755526065826416015625" lon="1.3757438957691192626953125">
        <ele>659.5999755859375</ele>
        <time>2020-08-11T15:04:29.000Z</time>
      </trkpt>
      <trkpt lat="42.30936306528747081756591796875" lon="1.3759844563901424407958984375">
        <ele>660.4000244140625</ele>
        <time>2020-08-11T15:04:37.000Z</time>
      </trkpt>
      <trkpt lat="42.3096332140266895294189453125" lon="1.37629668228328227996826171875">
        <ele>660.5999755859375</ele>
        <time>2020-08-11T15:04:47.000Z</time>
      </trkpt>
      <trkpt lat="42.30966053903102874755859375" lon="1.376326270401477813720703125">
        <ele>660.79998779296875</ele>
        <time>2020-08-11T15:04:48.000Z</time>
      </trkpt>
      <trkpt lat="42.30996103025972843170166015625" lon="1.37666833586990833282470703125">
        <ele>661.20001220703125</ele>
        <time>2020-08-11T15:04:59.000Z</time>
      </trkpt>
      <trkpt lat="42.31013218872249126434326171875" lon="1.3768543303012847900390625">
        <ele>661.5999755859375</ele>
        <time>2020-08-11T15:05:05.000Z</time>
      </trkpt>
      <trkpt lat="42.31033486314117908477783203125" lon="1.37706228531897068023681640625">
        <ele>662.20001220703125</ele>
        <time>2020-08-11T15:05:12.000Z</time>
      </trkpt>
      <trkpt lat="42.3105444945394992828369140625" lon="1.3772635348141193389892578125">
        <ele>662.5999755859375</ele>
        <time>2020-08-11T15:05:19.000Z</time>
      </trkpt>
      <trkpt lat="42.31065873987972736358642578125" lon="1.37736671604216098785400390625">
        <ele>662.5999755859375</ele>
        <time>2020-08-11T15:05:23.000Z</time>
      </trkpt>
      <trkpt lat="42.31103206984698772430419921875" lon="1.37769721448421478271484375">
        <ele>663.4000244140625</ele>
        <time>2020-08-11T15:05:36.000Z</time>
      </trkpt>
      <trkpt lat="42.31114556081593036651611328125" lon="1.377796120941638946533203125">
        <ele>663.5999755859375</ele>
        <time>2020-08-11T15:05:40.000Z</time>
      </trkpt>
      <trkpt lat="42.311287634074687957763671875" lon="1.37791623361408710479736328125">
        <ele>664.4000244140625</ele>
        <time>2020-08-11T15:05:45.000Z</time>
      </trkpt>
      <trkpt lat="42.311431132256984710693359375" lon="1.3780396990478038787841796875">
        <ele>664.5999755859375</ele>
        <time>2020-08-11T15:05:50.000Z</time>
      </trkpt>
      <trkpt lat="42.311628945171833038330078125" lon="1.37820691801607608795166015625">
        <ele>665.4000244140625</ele>
        <time>2020-08-11T15:05:57.000Z</time>
      </trkpt>
      <trkpt lat="42.31171284802258014678955078125" lon="1.37828201986849308013916015625">
        <ele>665.79998779296875</ele>
        <time>2020-08-11T15:06:00.000Z</time>
      </trkpt>
      <trkpt lat="42.31193882413208484649658203125" lon="1.37848134152591228485107421875">
        <ele>666.4000244140625</ele>
        <time>2020-08-11T15:06:08.000Z</time>
      </trkpt>
      <trkpt lat="42.3120523989200592041015625" lon="1.378577649593353271484375">
        <ele>666.79998779296875</ele>
        <time>2020-08-11T15:06:12.000Z</time>
      </trkpt>
      <trkpt lat="42.31219396926462650299072265625" lon="1.37869021855294704437255859375">
        <ele>667.5999755859375</ele>
        <time>2020-08-11T15:06:17.000Z</time>
      </trkpt>
      <trkpt lat="42.31236554682254791259765625" lon="1.378840506076812744140625">
        <ele>668</ele>
        <time>2020-08-11T15:06:23.000Z</time>
      </trkpt>
      <trkpt lat="42.3125095479190349578857421875" lon="1.378962211310863494873046875">
        <ele>668.4000244140625</ele>
        <time>2020-08-11T15:06:28.000Z</time>
      </trkpt>
      <trkpt lat="42.3127113841474056243896484375" lon="1.37913630343973636627197265625">
        <ele>669</ele>
        <time>2020-08-11T15:06:35.000Z</time>
      </trkpt>
      <trkpt lat="42.3128247074782848358154296875" lon="1.3792334496974945068359375">
        <ele>669.20001220703125</ele>
        <time>2020-08-11T15:06:39.000Z</time>
      </trkpt>
      <trkpt lat="42.31299092061817646026611328125" lon="1.37937183491885662078857421875">
        <ele>670</ele>
        <time>2020-08-11T15:06:45.000Z</time>
      </trkpt>
      <trkpt lat="42.313151769340038299560546875" lon="1.37950862757861614227294921875">
        <ele>671</ele>
        <time>2020-08-11T15:06:51.000Z</time>
      </trkpt>
      <trkpt lat="42.31317817233502864837646484375" lon="1.37953159399330615997314453125">
        <ele>671.20001220703125</ele>
        <time>2020-08-11T15:06:52.000Z</time>
      </trkpt>
      <trkpt lat="42.3133814334869384765625" lon="1.3797016628086566925048828125">
        <ele>672.20001220703125</ele>
        <time>2020-08-11T15:07:00.000Z</time>
      </trkpt>
      <trkpt lat="42.313453853130340576171875" lon="1.3797700591385364532470703125">
        <ele>672.4000244140625</ele>
        <time>2020-08-11T15:07:03.000Z</time>
      </trkpt>
      <trkpt lat="42.31355602853000164031982421875" lon="1.37985463254153728485107421875">
        <ele>673.20001220703125</ele>
        <time>2020-08-11T15:07:07.000Z</time>
      </trkpt>
      <trkpt lat="42.313708998262882232666015625" lon="1.379985474050045013427734375">
        <ele>674.20001220703125</ele>
        <time>2020-08-11T15:07:13.000Z</time>
      </trkpt>
      <trkpt lat="42.31373372487723827362060546875" lon="1.380006931722164154052734375">
        <ele>674.20001220703125</ele>
        <time>2020-08-11T15:07:14.000Z</time>
      </trkpt>
      <trkpt lat="42.3139810748398303985595703125" lon="1.38021723367273807525634765625">
        <ele>675.4000244140625</ele>
        <time>2020-08-11T15:07:24.000Z</time>
      </trkpt>
      <trkpt lat="42.3141265846788883209228515625" lon="1.38034011237323284149169921875">
        <ele>676.4000244140625</ele>
        <time>2020-08-11T15:07:30.000Z</time>
      </trkpt>
      <trkpt lat="42.31422255747020244598388671875" lon="1.38041722588241100311279296875">
        <ele>676.79998779296875</ele>
        <time>2020-08-11T15:07:34.000Z</time>
      </trkpt>
      <trkpt lat="42.3143364675343036651611328125" lon="1.380522586405277252197265625">
        <ele>677.4000244140625</ele>
        <time>2020-08-11T15:07:39.000Z</time>
      </trkpt>
      <trkpt lat="42.31440729461610317230224609375" lon="1.380578912794589996337890625">
        <ele>677.5999755859375</ele>
        <time>2020-08-11T15:07:42.000Z</time>
      </trkpt>
      <trkpt lat="42.314548529684543609619140625" lon="1.38070405460894107818603515625">
        <ele>678.4000244140625</ele>
        <time>2020-08-11T15:07:48.000Z</time>
      </trkpt>
      <trkpt lat="42.3146697320044040679931640625" lon="1.38080748729407787322998046875">
        <ele>679</ele>
        <time>2020-08-11T15:07:53.000Z</time>
      </trkpt>
      <trkpt lat="42.31481130234897136688232421875" lon="1.3809478841722011566162109375">
        <ele>679.5999755859375</ele>
        <time>2020-08-11T15:07:59.000Z</time>
      </trkpt>
      <trkpt lat="42.31489646248519420623779296875" lon="1.38105223886668682098388671875">
        <ele>680</ele>
        <time>2020-08-11T15:08:03.000Z</time>
      </trkpt>
      <trkpt lat="42.3149932734668254852294921875" lon="1.3811983354389667510986328125">
        <ele>680.5999755859375</ele>
        <time>2020-08-11T15:08:08.000Z</time>
      </trkpt>
      <trkpt lat="42.315051443874835968017578125" lon="1.3813269138336181640625">
        <ele>681.5999755859375</ele>
        <time>2020-08-11T15:08:12.000Z</time>
      </trkpt>
      <trkpt lat="42.315064184367656707763671875" lon="1.381359435617923736572265625">
        <ele>681.5999755859375</ele>
        <time>2020-08-11T15:08:13.000Z</time>
      </trkpt>
      <trkpt lat="42.3151585645973682403564453125" lon="1.3816769421100616455078125">
        <ele>682.5999755859375</ele>
        <time>2020-08-11T15:08:22.000Z</time>
      </trkpt>
      <trkpt lat="42.31517038308084011077880859375" lon="1.38171088881790637969970703125">
        <ele>682.79998779296875</ele>
        <time>2020-08-11T15:08:23.000Z</time>
      </trkpt>
      <trkpt lat="42.31525923125445842742919921875" lon="1.38200006447732448577880859375">
        <ele>683.5999755859375</ele>
        <time>2020-08-11T15:08:32.000Z</time>
      </trkpt>
      <trkpt lat="42.31528420932590961456298828125" lon="1.38206779025495052337646484375">
        <ele>683.4000244140625</ele>
        <time>2020-08-11T15:08:34.000Z</time>
      </trkpt>
      <trkpt lat="42.315322346985340118408203125" lon="1.38224565424025058746337890625">
        <ele>684.20001220703125</ele>
        <time>2020-08-11T15:08:39.000Z</time>
      </trkpt>
      <trkpt lat="42.315358556807041168212890625" lon="1.38238437473773956298828125">
        <ele>684.5999755859375</ele>
        <time>2020-08-11T15:08:43.000Z</time>
      </trkpt>
      <trkpt lat="42.31539635919034481048583984375" lon="1.38251974247395992279052734375">
        <ele>685.4000244140625</ele>
        <time>2020-08-11T15:08:47.000Z</time>
      </trkpt>
      <trkpt lat="42.31542418710887432098388671875" lon="1.3826279528439044952392578125">
        <ele>685.79998779296875</ele>
        <time>2020-08-11T15:08:50.000Z</time>
      </trkpt>
      <trkpt lat="42.31549107469618320465087890625" lon="1.38287982903420925140380859375">
        <ele>686.4000244140625</ele>
        <time>2020-08-11T15:08:57.000Z</time>
      </trkpt>
      <trkpt lat="42.31550767086446285247802734375" lon="1.38295392505824565887451171875">
        <ele>686.79998779296875</ele>
        <time>2020-08-11T15:08:59.000Z</time>
      </trkpt>
      <trkpt lat="42.31559283100068569183349609375" lon="1.38328584842383861541748046875">
        <ele>687.20001220703125</ele>
        <time>2020-08-11T15:09:08.000Z</time>
      </trkpt>
      <trkpt lat="42.3156846128404140472412109375" lon="1.3836424984037876129150390625">
        <ele>687.79998779296875</ele>
        <time>2020-08-11T15:09:17.000Z</time>
      </trkpt>
      <trkpt lat="42.3157203197479248046875" lon="1.38376294635236263275146484375">
        <ele>688.20001220703125</ele>
        <time>2020-08-11T15:09:20.000Z</time>
      </trkpt>
      <trkpt lat="42.31581981293857097625732421875" lon="1.384124122560024261474609375">
        <ele>688.20001220703125</ele>
        <time>2020-08-11T15:09:29.000Z</time>
      </trkpt>
      <trkpt lat="42.31591000221669673919677734375" lon="1.38444540090858936309814453125">
        <ele>688.79998779296875</ele>
        <time>2020-08-11T15:09:37.000Z</time>
      </trkpt>
      <trkpt lat="42.31592190451920032501220703125" lon="1.384482197463512420654296875">
        <ele>689</ele>
        <time>2020-08-11T15:09:38.000Z</time>
      </trkpt>
      <trkpt lat="42.316017709672451019287109375" lon="1.38484689407050609588623046875">
        <ele>689.20001220703125</ele>
        <time>2020-08-11T15:09:47.000Z</time>
      </trkpt>
      <trkpt lat="42.31613212265074253082275390625" lon="1.3852615468204021453857421875">
        <ele>689.79998779296875</ele>
        <time>2020-08-11T15:09:57.000Z</time>
      </trkpt>
      <trkpt lat="42.31627210043370723724365234375" lon="1.38577711768448352813720703125">
        <ele>690.4000244140625</ele>
        <time>2020-08-11T15:10:09.000Z</time>
      </trkpt>
      <trkpt lat="42.31639883480966091156005859375" lon="1.3862502761185169219970703125">
        <ele>691</ele>
        <time>2020-08-11T15:10:20.000Z</time>
      </trkpt>
      <trkpt lat="42.31641056947410106658935546875" lon="1.38629235327243804931640625">
        <ele>691</ele>
        <time>2020-08-11T15:10:21.000Z</time>
      </trkpt>
      <trkpt lat="42.3165278322994709014892578125" lon="1.3867270387709140777587890625">
        <ele>691.5999755859375</ele>
        <time>2020-08-11T15:10:31.000Z</time>
      </trkpt>
      <trkpt lat="42.31664945371448993682861328125" lon="1.387109421193599700927734375">
        <ele>692</ele>
        <time>2020-08-11T15:10:40.000Z</time>
      </trkpt>
      <trkpt lat="42.316663451492786407470703125" lon="1.3871484808623790740966796875">
        <ele>691.79998779296875</ele>
        <time>2020-08-11T15:10:41.000Z</time>
      </trkpt>
      <trkpt lat="42.3167829774320125579833984375" lon="1.3874297775328159332275390625">
        <ele>691.79998779296875</ele>
        <time>2020-08-11T15:10:48.000Z</time>
      </trkpt>
      <trkpt lat="42.3169341869652271270751953125" lon="1.3877030275762081146240234375">
        <ele>692</ele>
        <time>2020-08-11T15:10:57.000Z</time>
      </trkpt>
      <trkpt lat="42.31695421971380710601806640625" lon="1.387739740312099456787109375">
        <ele>692</ele>
        <time>2020-08-11T15:10:58.000Z</time>
      </trkpt>
      <trkpt lat="42.31709537096321582794189453125" lon="1.3879404030740261077880859375">
        <ele>692.20001220703125</ele>
        <time>2020-08-11T15:11:04.000Z</time>
      </trkpt>
      <trkpt lat="42.31727172620594501495361328125" lon="1.388175599277019500732421875">
        <ele>691.79998779296875</ele>
        <time>2020-08-11T15:11:11.000Z</time>
      </trkpt>
      <trkpt lat="42.31749250553548336029052734375" lon="1.38843786902725696563720703125">
        <ele>691.4000244140625</ele>
        <time>2020-08-11T15:11:19.000Z</time>
      </trkpt>
      <trkpt lat="42.31782007031142711639404296875" lon="1.38878278434276580810546875">
        <ele>690.79998779296875</ele>
        <time>2020-08-11T15:11:29.000Z</time>
      </trkpt>
      <trkpt lat="42.317857705056667327880859375" lon="1.38881924562156200408935546875">
        <ele>690.79998779296875</ele>
        <time>2020-08-11T15:11:30.000Z</time>
      </trkpt>
      <trkpt lat="42.318195663392543792724609375" lon="1.389127112925052642822265625">
        <ele>689.79998779296875</ele>
        <time>2020-08-11T15:11:38.000Z</time>
      </trkpt>
      <trkpt lat="42.31834209524095058441162109375" lon="1.38925225473940372467041015625">
        <ele>689.79998779296875</ele>
        <time>2020-08-11T15:11:41.000Z</time>
      </trkpt>
      <trkpt lat="42.3186125792562961578369140625" lon="1.389473117887973785400390625">
        <ele>688.4000244140625</ele>
        <time>2020-08-11T15:11:46.000Z</time>
      </trkpt>
      <trkpt lat="42.31891013681888580322265625" lon="1.3896888680756092071533203125">
        <ele>687</ele>
        <time>2020-08-11T15:11:51.000Z</time>
      </trkpt>
      <trkpt lat="42.3191061057150363922119140625" lon="1.38981820084154605865478515625">
        <ele>686.4000244140625</ele>
        <time>2020-08-11T15:11:54.000Z</time>
      </trkpt>
      <trkpt lat="42.31917299330234527587890625" lon="1.38986027799546718597412109375">
        <ele>686</ele>
        <time>2020-08-11T15:11:55.000Z</time>
      </trkpt>
      <trkpt lat="42.31946107931435108184814453125" lon="1.39003763906657695770263671875">
        <ele>684.5999755859375</ele>
        <time>2020-08-11T15:11:59.000Z</time>
      </trkpt>
      <trkpt lat="42.31961849145591259002685546875" lon="1.3901284150779247283935546875">
        <ele>683.79998779296875</ele>
        <time>2020-08-11T15:12:01.000Z</time>
      </trkpt>
      <trkpt lat="42.31970013119280338287353515625" lon="1.39017426408827304840087890625">
        <ele>683.4000244140625</ele>
        <time>2020-08-11T15:12:02.000Z</time>
      </trkpt>
      <trkpt lat="42.3200153745710849761962890625" lon="1.39035455882549285888671875">
        <ele>682.20001220703125</ele>
        <time>2020-08-11T15:12:06.000Z</time>
      </trkpt>
      <trkpt lat="42.3201692663133144378662109375" lon="1.390444748103618621826171875">
        <ele>681.20001220703125</ele>
        <time>2020-08-11T15:12:08.000Z</time>
      </trkpt>
      <trkpt lat="42.32045282609760761260986328125" lon="1.39061431400477886199951171875">
        <ele>680</ele>
        <time>2020-08-11T15:12:12.000Z</time>
      </trkpt>
      <trkpt lat="42.32058995403349399566650390625" lon="1.39069880358874797821044921875">
        <ele>679</ele>
        <time>2020-08-11T15:12:14.000Z</time>
      </trkpt>
      <trkpt lat="42.3206550814211368560791015625" lon="1.39074306003749370574951171875">
        <ele>678.5999755859375</ele>
        <time>2020-08-11T15:12:15.000Z</time>
      </trkpt>
      <trkpt lat="42.32077888213098049163818359375" lon="1.39083609916269779205322265625">
        <ele>677.79998779296875</ele>
        <time>2020-08-11T15:12:17.000Z</time>
      </trkpt>
      <trkpt lat="42.320954315364360809326171875" lon="1.39099971391260623931884765625">
        <ele>676.79998779296875</ele>
        <time>2020-08-11T15:12:20.000Z</time>
      </trkpt>
      <trkpt lat="42.3210104741156101226806640625" lon="1.3910608179867267608642578125">
        <ele>676.5999755859375</ele>
        <time>2020-08-11T15:12:21.000Z</time>
      </trkpt>
      <trkpt lat="42.3211164213716983795166015625" lon="1.39119467698037624359130859375">
        <ele>675.5999755859375</ele>
        <time>2020-08-11T15:12:23.000Z</time>
      </trkpt>
      <trkpt lat="42.32131364755332469940185546875" lon="1.39150790870189666748046875">
        <ele>674.4000244140625</ele>
        <time>2020-08-11T15:12:27.000Z</time>
      </trkpt>
      <trkpt lat="42.32147105969488620758056640625" lon="1.39186623506247997283935546875">
        <ele>673</ele>
        <time>2020-08-11T15:12:31.000Z</time>
      </trkpt>
      <trkpt lat="42.3215019889175891876220703125" lon="1.3919546641409397125244140625">
        <ele>672.5999755859375</ele>
        <time>2020-08-11T15:12:32.000Z</time>
      </trkpt>
      <trkpt lat="42.3215502686798572540283203125" lon="1.3921313546597957611083984375">
        <ele>671.79998779296875</ele>
        <time>2020-08-11T15:12:34.000Z</time>
      </trkpt>
      <trkpt lat="42.3216216824948787689208984375" lon="1.39248616062104701995849609375">
        <ele>670.5999755859375</ele>
        <time>2020-08-11T15:12:38.000Z</time>
      </trkpt>
      <trkpt lat="42.3216766677796840667724609375" lon="1.3928515277802944183349609375">
        <ele>669.5999755859375</ele>
        <time>2020-08-11T15:12:42.000Z</time>
      </trkpt>
      <trkpt lat="42.3217289708554744720458984375" lon="1.393206082284450531005859375">
        <ele>668.5999755859375</ele>
        <time>2020-08-11T15:12:46.000Z</time>
      </trkpt>
      <trkpt lat="42.3217432200908660888671875" lon="1.39329694211483001708984375">
        <ele>668</ele>
        <time>2020-08-11T15:12:47.000Z</time>
      </trkpt>
      <trkpt lat="42.321779094636440277099609375" lon="1.39347908087074756622314453125">
        <ele>667.4000244140625</ele>
        <time>2020-08-11T15:12:49.000Z</time>
      </trkpt>
      <trkpt lat="42.32184036634862422943115234375" lon="1.393724419176578521728515625">
        <ele>666.20001220703125</ele>
        <time>2020-08-11T15:12:52.000Z</time>
      </trkpt>
      <trkpt lat="42.3218654282391071319580078125" lon="1.39380446635186672210693359375">
        <ele>666</ele>
        <time>2020-08-11T15:12:53.000Z</time>
      </trkpt>
      <trkpt lat="42.3219532705843448638916015625" lon="1.394059695303440093994140625">
        <ele>665.20001220703125</ele>
        <time>2020-08-11T15:12:56.000Z</time>
      </trkpt>
      <trkpt lat="42.32207220979034900665283203125" lon="1.3943260721862316131591796875">
        <ele>664</ele>
        <time>2020-08-11T15:12:59.000Z</time>
      </trkpt>
      <trkpt lat="42.32226734049618244171142578125" lon="1.39466864056885242462158203125">
        <ele>662.79998779296875</ele>
        <time>2020-08-11T15:13:03.000Z</time>
      </trkpt>
      <trkpt lat="42.32242676429450511932373046875" lon="1.39490132220089435577392578125">
        <ele>662</ele>
        <time>2020-08-11T15:13:06.000Z</time>
      </trkpt>
      <trkpt lat="42.3224793188273906707763671875" lon="1.39497441239655017852783203125">
        <ele>661.79998779296875</ele>
        <time>2020-08-11T15:13:07.000Z</time>
      </trkpt>
      <trkpt lat="42.3226954042911529541015625" lon="1.39526794664561748504638671875">
        <ele>660.79998779296875</ele>
        <time>2020-08-11T15:13:11.000Z</time>
      </trkpt>
      <trkpt lat="42.32291090302169322967529296875" lon="1.39557405374944210052490234375">
        <ele>660.20001220703125</ele>
        <time>2020-08-11T15:13:15.000Z</time>
      </trkpt>
      <trkpt lat="42.3230526410043239593505859375" lon="1.39582551084458827972412109375">
        <ele>659.5999755859375</ele>
        <time>2020-08-11T15:13:18.000Z</time>
      </trkpt>
      <trkpt lat="42.32316671870648860931396484375" lon="1.39608509838581085205078125">
        <ele>659.20001220703125</ele>
        <time>2020-08-11T15:13:21.000Z</time>
      </trkpt>
      <trkpt lat="42.32325539924204349517822265625" lon="1.39635357074439525604248046875">
        <ele>658.5999755859375</ele>
        <time>2020-08-11T15:13:24.000Z</time>
      </trkpt>
      <trkpt lat="42.32334089465439319610595703125" lon="1.39661424793303012847900390625">
        <ele>658.5999755859375</ele>
        <time>2020-08-11T15:13:27.000Z</time>
      </trkpt>
      <trkpt lat="42.323367632925510406494140625" lon="1.3966978155076503753662109375">
        <ele>658.5999755859375</ele>
        <time>2020-08-11T15:13:28.000Z</time>
      </trkpt>
      <trkpt lat="42.3235349357128143310546875" lon="1.39710509218275547027587890625">
        <ele>658</ele>
        <time>2020-08-11T15:13:34.000Z</time>
      </trkpt>
      <trkpt lat="42.32356511056423187255859375" lon="1.39715974219143390655517578125">
        <ele>657.5999755859375</ele>
        <time>2020-08-11T15:13:35.000Z</time>
      </trkpt>
      <trkpt lat="42.32363216578960418701171875" lon="1.39727926813066005706787109375">
        <ele>657.4000244140625</ele>
        <time>2020-08-11T15:13:38.000Z</time>
      </trkpt>
      <trkpt lat="42.32363157905638217926025390625" lon="1.39734112657606601715087890625">
        <ele>657.4000244140625</ele>
        <time>2020-08-11T15:13:40.000Z</time>
      </trkpt>
      <trkpt lat="42.3235988058149814605712890625" lon="1.397394351661205291748046875">
        <ele>657.4000244140625</ele>
        <time>2020-08-11T15:13:42.000Z</time>
      </trkpt>
      <trkpt lat="42.32347927987575531005859375" lon="1.397594176232814788818359375">
        <ele>657</ele>
        <time>2020-08-11T15:13:49.000Z</time>
      </trkpt>
      <trkpt lat="42.3234241269528865814208984375" lon="1.3977049849927425384521484375">
        <ele>657.4000244140625</ele>
        <time>2020-08-11T15:13:56.000Z</time>
      </trkpt>
      <trkpt lat="42.32342320494353771209716796875" lon="1.39770448207855224609375">
        <ele>657.4000244140625</ele>
        <time>2020-08-11T15:13:58.000Z</time>
      </trkpt>
      <trkpt lat="42.3231589235365390777587890625" lon="1.39774211682379245758056640625">
        <ele>659.5999755859375</ele>
        <time>2020-08-11T15:25:33.000Z</time>
      </trkpt>
      <trkpt lat="42.32319957576692104339599609375" lon="1.3977686874568462371826171875">
        <ele>659.4000244140625</ele>
        <time>2020-08-11T15:25:39.000Z</time>
      </trkpt>
      <trkpt lat="42.32332161627709865570068359375" lon="1.39780037105083465576171875">
        <ele>659.4000244140625</ele>
        <time>2020-08-11T15:25:45.000Z</time>
      </trkpt>
      <trkpt lat="42.3233919404447078704833984375" lon="1.39772468246519565582275390625">
        <ele>658.20001220703125</ele>
        <time>2020-08-11T15:25:48.000Z</time>
      </trkpt>
      <trkpt lat="42.323413901031017303466796875" lon="1.39768763445317745208740234375">
        <ele>657.79998779296875</ele>
        <time>2020-08-11T15:25:49.000Z</time>
      </trkpt>
      <trkpt lat="42.32348388992249965667724609375" lon="1.397560648620128631591796875">
        <ele>657.20001220703125</ele>
        <time>2020-08-11T15:25:52.000Z</time>
      </trkpt>
      <trkpt lat="42.32359587214887142181396484375" lon="1.3974233530461788177490234375">
        <ele>656.5999755859375</ele>
        <time>2020-08-11T15:25:56.000Z</time>
      </trkpt>
      <trkpt lat="42.323729731142520904541015625" lon="1.39740700833499431610107421875">
        <ele>657</ele>
        <time>2020-08-11T15:26:01.000Z</time>
      </trkpt>
      <trkpt lat="42.323864512145519256591796875" lon="1.3975078426301479339599609375">
        <ele>657</ele>
        <time>2020-08-11T15:26:06.000Z</time>
      </trkpt>
      <trkpt lat="42.32413482852280139923095703125" lon="1.39770037494599819183349609375">
        <ele>656.20001220703125</ele>
        <time>2020-08-11T15:26:14.000Z</time>
      </trkpt>
      <trkpt lat="42.3244386725127696990966796875" lon="1.3978618942201137542724609375">
        <ele>656.20001220703125</ele>
        <time>2020-08-11T15:26:22.000Z</time>
      </trkpt>
      <trkpt lat="42.324477732181549072265625" lon="1.3978816755115985870361328125">
        <ele>656</ele>
        <time>2020-08-11T15:26:23.000Z</time>
      </trkpt>
      <trkpt lat="42.32475575990974903106689453125" lon="1.39800916425883769989013671875">
        <ele>655.5999755859375</ele>
        <time>2020-08-11T15:26:30.000Z</time>
      </trkpt>
      <trkpt lat="42.3250585980713367462158203125" lon="1.39815567992627620697021484375">
        <ele>655.5999755859375</ele>
        <time>2020-08-11T15:26:38.000Z</time>
      </trkpt>
      <trkpt lat="42.325337715446949005126953125" lon="1.3983428478240966796875">
        <ele>656.20001220703125</ele>
        <time>2020-08-11T15:26:46.000Z</time>
      </trkpt>
      <trkpt lat="42.32552840374410152435302734375" lon="1.3986058719456195831298828125">
        <ele>656.5999755859375</ele>
        <time>2020-08-11T15:26:54.000Z</time>
      </trkpt>
      <trkpt lat="42.32558892108500003814697265625" lon="1.39870871789753437042236328125">
        <ele>657</ele>
        <time>2020-08-11T15:26:57.000Z</time>
      </trkpt>
      <trkpt lat="42.32567173428833484649658203125" lon="1.39893067069351673126220703125">
        <ele>657.4000244140625</ele>
        <time>2020-08-11T15:27:03.000Z</time>
      </trkpt>
      <trkpt lat="42.325707860291004180908203125" lon="1.399235017597675323486328125">
        <ele>658</ele>
        <time>2020-08-11T15:27:10.000Z</time>
      </trkpt>
      <trkpt lat="42.32582428492605686187744140625" lon="1.39936585910618305206298828125">
        <ele>658.79998779296875</ele>
        <time>2020-08-11T15:27:15.000Z</time>
      </trkpt>
      <trkpt lat="42.32588195241987705230712890625" lon="1.3993941061198711395263671875">
        <ele>659.20001220703125</ele>
        <time>2020-08-11T15:27:17.000Z</time>
      </trkpt>
      <trkpt lat="42.32601405121386051177978515625" lon="1.39951086603105068206787109375">
        <ele>659.5999755859375</ele>
        <time>2020-08-11T15:27:22.000Z</time>
      </trkpt>
      <trkpt lat="42.32609233818948268890380859375" lon="1.399646736681461334228515625">
        <ele>660.20001220703125</ele>
        <time>2020-08-11T15:27:26.000Z</time>
      </trkpt>
      <trkpt lat="42.326179929077625274658203125" lon="1.3998202420771121978759765625">
        <ele>661</ele>
        <time>2020-08-11T15:27:31.000Z</time>
      </trkpt>
      <trkpt lat="42.3261968605220317840576171875" lon="1.39985360205173492431640625">
        <ele>661.20001220703125</ele>
        <time>2020-08-11T15:27:32.000Z</time>
      </trkpt>
      <trkpt lat="42.3263271152973175048828125" lon="1.400122158229351043701171875">
        <ele>661.5999755859375</ele>
        <time>2020-08-11T15:27:40.000Z</time>
      </trkpt>
      <trkpt lat="42.32641386799514293670654296875" lon="1.400305889546871185302734375">
        <ele>662.20001220703125</ele>
        <time>2020-08-11T15:27:46.000Z</time>
      </trkpt>
      <trkpt lat="42.3264365829527378082275390625" lon="1.40035710297524929046630859375">
        <ele>662.4000244140625</ele>
        <time>2020-08-11T15:27:48.000Z</time>
      </trkpt>
      <trkpt lat="42.32646365649998188018798828125" lon="1.40041192062199115753173828125">
        <ele>662.5999755859375</ele>
        <time>2020-08-11T15:27:53.000Z</time>
      </trkpt>
      <trkpt lat="42.326477654278278350830078125" lon="1.4003982581198215484619140625">
        <ele>662.20001220703125</ele>
        <time>2020-08-11T15:28:12.000Z</time>
      </trkpt>
      <trkpt lat="42.326446808874607086181640625" lon="1.40033983625471591949462890625">
        <ele>662</ele>
        <time>2020-08-11T15:28:16.000Z</time>
      </trkpt>
      <trkpt lat="42.32635871507227420806884765625" lon="1.40037453733384609222412109375">
        <ele>662.20001220703125</ele>
        <time>2020-08-11T15:28:21.000Z</time>
      </trkpt>
      <trkpt lat="42.32632149942219257354736328125" lon="1.40040689148008823394775390625">
        <ele>662.4000244140625</ele>
        <time>2020-08-11T15:28:24.000Z</time>
      </trkpt>
      <trkpt lat="42.3263168893754482269287109375" lon="1.400480568408966064453125">
        <ele>662.20001220703125</ele>
        <time>2020-08-11T15:28:27.000Z</time>
      </trkpt>
      <trkpt lat="42.32632619328796863555908203125" lon="1.400643177330493927001953125">
        <ele>662.5999755859375</ele>
        <time>2020-08-11T15:28:33.000Z</time>
      </trkpt>
      <trkpt lat="42.32632367871701717376708984375" lon="1.400711573660373687744140625">
        <ele>663</ele>
        <time>2020-08-11T15:28:35.000Z</time>
      </trkpt>
      <trkpt lat="42.3263432085514068603515625" lon="1.40087041072547435760498046875">
        <ele>663.20001220703125</ele>
        <time>2020-08-11T15:28:40.000Z</time>
      </trkpt>
      <trkpt lat="42.32635268010199069976806640625" lon="1.400934867560863494873046875">
        <ele>663.5999755859375</ele>
        <time>2020-08-11T15:28:42.000Z</time>
      </trkpt>
      <trkpt lat="42.32634077779948711395263671875" lon="1.40104944817721843719482421875">
        <ele>664</ele>
        <time>2020-08-11T15:28:46.000Z</time>
      </trkpt>
      <trkpt lat="42.326310686767101287841796875" lon="1.40125413425266742706298828125">
        <ele>663.4000244140625</ele>
        <time>2020-08-11T15:28:52.000Z</time>
      </trkpt>
      <trkpt lat="42.3263574577867984771728515625" lon="1.40144172124564647674560546875">
        <ele>663.20001220703125</ele>
        <time>2020-08-11T15:28:56.000Z</time>
      </trkpt>
      <trkpt lat="42.3264188133180141448974609375" lon="1.401539035141468048095703125">
        <ele>663.79998779296875</ele>
        <time>2020-08-11T15:29:01.000Z</time>
      </trkpt>
      <trkpt lat="42.326416634023189544677734375" lon="1.4015499316155910491943359375">
        <ele>664</ele>
        <time>2020-08-11T15:29:03.000Z</time>
      </trkpt>
      <trkpt lat="42.326248325407505035400390625" lon="1.40121289528906345367431640625">
        <ele>672.79998779296875</ele>
        <time>2020-08-12T05:06:27.000Z</time>
      </trkpt>
      <trkpt lat="42.32624941505491733551025390625" lon="1.4012146554887294769287109375">
        <ele>672.79998779296875</ele>
        <time>2020-08-12T05:06:30.000Z</time>
      </trkpt>
      <trkpt lat="42.3262632451951503753662109375" lon="1.40119730494916439056396484375">
        <ele>673</ele>
        <time>2020-08-12T05:06:34.000Z</time>
      </trkpt>
      <trkpt lat="42.32626718468964099884033203125" lon="1.4011871628463268280029296875">
        <ele>673.4000244140625</ele>
        <time>2020-08-12T05:06:35.000Z</time>
      </trkpt>
      <trkpt lat="42.32626517303287982940673828125" lon="1.401150785386562347412109375">
        <ele>673.4000244140625</ele>
        <time>2020-08-12T05:06:38.000Z</time>
      </trkpt>
      <trkpt lat="42.32627154327929019927978515625" lon="1.40112991444766521453857421875">
        <ele>673.5999755859375</ele>
        <time>2020-08-12T05:06:40.000Z</time>
      </trkpt>
      <trkpt lat="42.32629316858947277069091796875" lon="1.40104559250175952911376953125">
        <ele>674</ele>
        <time>2020-08-12T05:06:46.000Z</time>
      </trkpt>
      <trkpt lat="42.326295264065265655517578125" lon="1.401030085980892181396484375">
        <ele>674.20001220703125</ele>
        <time>2020-08-12T05:06:47.000Z</time>
      </trkpt>
      <trkpt lat="42.32632887549698352813720703125" lon="1.400873847305774688720703125">
        <ele>674.20001220703125</ele>
        <time>2020-08-12T05:06:54.000Z</time>
      </trkpt>
      <trkpt lat="42.32631437480449676513671875" lon="1.40070579014718532562255859375">
        <ele>674</ele>
        <time>2020-08-12T05:06:59.000Z</time>
      </trkpt>
      <trkpt lat="42.326322756707668304443359375" lon="1.400569416582584381103515625">
        <ele>673.79998779296875</ele>
        <time>2020-08-12T05:07:03.000Z</time>
      </trkpt>
      <trkpt lat="42.326335497200489044189453125" lon="1.40045081265270709991455078125">
        <ele>673.79998779296875</ele>
        <time>2020-08-12T05:07:07.000Z</time>
      </trkpt>
      <trkpt lat="42.32635620050132274627685546875" lon="1.400400437414646148681640625">
        <ele>673.79998779296875</ele>
        <time>2020-08-12T05:07:09.000Z</time>
      </trkpt>
      <trkpt lat="42.32638855464756488800048828125" lon="1.40038358978927135467529296875">
        <ele>673.5999755859375</ele>
        <time>2020-08-12T05:07:11.000Z</time>
      </trkpt>
      <trkpt lat="42.32641722075641155242919921875" lon="1.400356851518154144287109375">
        <ele>673.4000244140625</ele>
        <time>2020-08-12T05:07:16.000Z</time>
      </trkpt>
      <trkpt lat="42.32642157934606075286865234375" lon="1.4003429375588893890380859375">
        <ele>673.4000244140625</ele>
        <time>2020-08-12T05:07:17.000Z</time>
      </trkpt>
      <trkpt lat="42.32642895542085170745849609375" lon="1.400292813777923583984375">
        <ele>673.5999755859375</ele>
        <time>2020-08-12T05:07:20.000Z</time>
      </trkpt>
      <trkpt lat="42.32642157934606075286865234375" lon="1.4002688415348529815673828125">
        <ele>673.4000244140625</ele>
        <time>2020-08-12T05:07:21.000Z</time>
      </trkpt>
      <trkpt lat="42.3263940028846263885498046875" lon="1.400212347507476806640625">
        <ele>673.4000244140625</ele>
        <time>2020-08-12T05:07:23.000Z</time>
      </trkpt>
      <trkpt lat="42.32635997235774993896484375" lon="1.40014571137726306915283203125">
        <ele>673.20001220703125</ele>
        <time>2020-08-12T05:07:25.000Z</time>
      </trkpt>
      <trkpt lat="42.32621437869966030120849609375" lon="1.3998688571155071258544921875">
        <ele>672.5999755859375</ele>
        <time>2020-08-12T05:07:32.000Z</time>
      </trkpt>
      <trkpt lat="42.32618940062820911407470703125" lon="1.39982284046709537506103515625">
        <ele>672.4000244140625</ele>
        <time>2020-08-12T05:07:33.000Z</time>
      </trkpt>
      <trkpt lat="42.3260711319744586944580078125" lon="1.3995002210140228271484375">
        <ele>671.4000244140625</ele>
        <time>2020-08-12T05:07:39.000Z</time>
      </trkpt>
      <trkpt lat="42.3260453157126903533935546875" lon="1.39938429929316043853759765625">
        <ele>671</ele>
        <time>2020-08-12T05:07:41.000Z</time>
      </trkpt>
      <trkpt lat="42.32604791410267353057861328125" lon="1.399196125566959381103515625">
        <ele>670.79998779296875</ele>
        <time>2020-08-12T05:07:44.000Z</time>
      </trkpt>
      <trkpt lat="42.326056547462940216064453125" lon="1.39901817776262760162353515625">
        <ele>670.79998779296875</ele>
        <time>2020-08-12T05:07:47.000Z</time>
      </trkpt>
      <trkpt lat="42.32603902928531169891357421875" lon="1.39886747114360332489013671875">
        <ele>671</ele>
        <time>2020-08-12T05:07:50.000Z</time>
      </trkpt>
      <trkpt lat="42.3260127939283847808837890625" lon="1.398689188063144683837890625">
        <ele>670.79998779296875</ele>
        <time>2020-08-12T05:07:55.000Z</time>
      </trkpt>
      <trkpt lat="42.3259782604873180389404296875" lon="1.3984221406280994415283203125">
        <ele>671.79998779296875</ele>
        <time>2020-08-12T05:08:03.000Z</time>
      </trkpt>
      <trkpt lat="42.3259685374796390533447265625" lon="1.39840579591691493988037109375">
        <ele>671.79998779296875</ele>
        <time>2020-08-12T05:08:04.000Z</time>
      </trkpt>
      <trkpt lat="42.325933836400508880615234375" lon="1.3984300196170806884765625">
        <ele>672.20001220703125</ele>
        <time>2020-08-12T05:08:07.000Z</time>
      </trkpt>
      <trkpt lat="42.3259356804192066192626953125" lon="1.39850202016532421112060546875">
        <ele>672</ele>
        <time>2020-08-12T05:08:09.000Z</time>
      </trkpt>
      <trkpt lat="42.32593677006661891937255859375" lon="1.39859790913760662078857421875">
        <ele>671.5999755859375</ele>
        <time>2020-08-12T05:08:11.000Z</time>
      </trkpt>
      <trkpt lat="42.32592654414474964141845703125" lon="1.3986507989466190338134765625">
        <ele>671.4000244140625</ele>
        <time>2020-08-12T05:08:12.000Z</time>
      </trkpt>
      <trkpt lat="42.32584339566528797149658203125" lon="1.39876672066748142242431640625">
        <ele>670.79998779296875</ele>
        <time>2020-08-12T05:08:15.000Z</time>
      </trkpt>
      <trkpt lat="42.32568816281855106353759765625" lon="1.39875481836497783660888671875">
        <ele>670</ele>
        <time>2020-08-12T05:08:19.000Z</time>
      </trkpt>
      <trkpt lat="42.32564876787364482879638671875" lon="1.39872347004711627960205078125">
        <ele>669.5999755859375</ele>
        <time>2020-08-12T05:08:20.000Z</time>
      </trkpt>
      <trkpt lat="42.32553963549435138702392578125" lon="1.39858131296932697296142578125">
        <ele>669.20001220703125</ele>
        <time>2020-08-12T05:08:23.000Z</time>
      </trkpt>
      <trkpt lat="42.325470149517059326171875" lon="1.39846547506749629974365234375">
        <ele>668.5999755859375</ele>
        <time>2020-08-12T05:08:25.000Z</time>
      </trkpt>
      <trkpt lat="42.32529756613075733184814453125" lon="1.39826112426817417144775390625">
        <ele>667.79998779296875</ele>
        <time>2020-08-12T05:08:29.000Z</time>
      </trkpt>
      <trkpt lat="42.3252488672733306884765625" lon="1.3982179574668407440185546875">
        <ele>667.5999755859375</ele>
        <time>2020-08-12T05:08:30.000Z</time>
      </trkpt>
      <trkpt lat="42.32498693279922008514404296875" lon="1.3980573602020740509033203125">
        <ele>666.79998779296875</ele>
        <time>2020-08-12T05:08:35.000Z</time>
      </trkpt>
      <trkpt lat="42.324934042990207672119140625" lon="1.39803263358771800994873046875">
        <ele>666.5999755859375</ele>
        <time>2020-08-12T05:08:36.000Z</time>
      </trkpt>
      <trkpt lat="42.3245546780526638031005859375" lon="1.39785326085984706878662109375">
        <ele>666.4000244140625</ele>
        <time>2020-08-12T05:08:44.000Z</time>
      </trkpt>
      <trkpt lat="42.324244715273380279541015625" lon="1.397698111832141876220703125">
        <ele>666.79998779296875</ele>
        <time>2020-08-12T05:08:52.000Z</time>
      </trkpt>
      <trkpt lat="42.3239156417548656463623046875" lon="1.3974961079657077789306640625">
        <ele>667.20001220703125</ele>
        <time>2020-08-12T05:09:02.000Z</time>
      </trkpt>
      <trkpt lat="42.32364683412015438079833984375" lon="1.39721170999109745025634765625">
        <ele>667.5999755859375</ele>
        <time>2020-08-12T05:09:12.000Z</time>
      </trkpt>
      <trkpt lat="42.32350400649011135101318359375" lon="1.396987996995449066162109375">
        <ele>667.79998779296875</ele>
        <time>2020-08-12T05:09:19.000Z</time>
      </trkpt>
      <trkpt lat="42.32336050830781459808349609375" lon="1.39665640890598297119140625">
        <ele>668.4000244140625</ele>
        <time>2020-08-12T05:09:28.000Z</time>
      </trkpt>
      <trkpt lat="42.323334775865077972412109375" lon="1.396576948463916778564453125">
        <ele>668.79998779296875</ele>
        <time>2020-08-12T05:09:30.000Z</time>
      </trkpt>
      <trkpt lat="42.3232336901128292083740234375" lon="1.39624628238379955291748046875">
        <ele>669.20001220703125</ele>
        <time>2020-08-12T05:09:38.000Z</time>
      </trkpt>
      <trkpt lat="42.32309304177761077880859375" lon="1.39584629796445369720458984375">
        <ele>669.79998779296875</ele>
        <time>2020-08-12T05:09:48.000Z</time>
      </trkpt>
      <trkpt lat="42.32303998433053493499755859375" lon="1.39573230408132076263427734375">
        <ele>670</ele>
        <time>2020-08-12T05:09:51.000Z</time>
      </trkpt>
      <trkpt lat="42.32286815531551837921142578125" lon="1.39544715173542499542236328125">
        <ele>670.4000244140625</ele>
        <time>2020-08-12T05:09:59.000Z</time>
      </trkpt>
      <trkpt lat="42.32262994162738323211669921875" lon="1.39511690475046634674072265625">
        <ele>671</ele>
        <time>2020-08-12T05:10:09.000Z</time>
      </trkpt>
      <trkpt lat="42.32255869545042514801025390625" lon="1.395018585026264190673828125">
        <ele>671.20001220703125</ele>
        <time>2020-08-12T05:10:12.000Z</time>
      </trkpt>
      <trkpt lat="42.32244419865310192108154296875" lon="1.3948558084666728973388671875">
        <ele>671.5999755859375</ele>
        <time>2020-08-12T05:10:17.000Z</time>
      </trkpt>
      <trkpt lat="42.32239910401403903961181640625" lon="1.394790597259998321533203125">
        <ele>671.5999755859375</ele>
        <time>2020-08-12T05:10:19.000Z</time>
      </trkpt>
      <trkpt lat="42.32219190336763858795166015625" lon="1.39447015710175037384033203125">
        <ele>672.5999755859375</ele>
        <time>2020-08-12T05:10:29.000Z</time>
      </trkpt>
      <trkpt lat="42.32213607989251613616943359375" lon="1.39437393285334110260009765625">
        <ele>672.79998779296875</ele>
        <time>2020-08-12T05:10:32.000Z</time>
      </trkpt>
      <trkpt lat="42.322036586701869964599609375" lon="1.39418114908039569854736328125">
        <ele>674</ele>
        <time>2020-08-12T05:10:38.000Z</time>
      </trkpt>
      <trkpt lat="42.32200783677399158477783203125" lon="1.3941143453121185302734375">
        <ele>674</ele>
        <time>2020-08-12T05:10:40.000Z</time>
      </trkpt>
      <trkpt lat="42.321929633617401123046875" lon="1.3939183764159679412841796875">
        <ele>674.5999755859375</ele>
        <time>2020-08-12T05:10:46.000Z</time>
      </trkpt>
      <trkpt lat="42.32188613153994083404541015625" lon="1.39378971420228481292724609375">
        <ele>675.4000244140625</ele>
        <time>2020-08-12T05:10:50.000Z</time>
      </trkpt>
      <trkpt lat="42.32184070162475109100341796875" lon="1.3936266861855983734130859375">
        <ele>676</ele>
        <time>2020-08-12T05:10:55.000Z</time>
      </trkpt>
      <trkpt lat="42.321797199547290802001953125" lon="1.39346667565405368804931640625">
        <ele>676.5999755859375</ele>
        <time>2020-08-12T05:11:00.000Z</time>
      </trkpt>
      <trkpt lat="42.3217692039906978607177734375" lon="1.39333658851683139801025390625">
        <ele>677.4000244140625</ele>
        <time>2020-08-12T05:11:04.000Z</time>
      </trkpt>
      <trkpt lat="42.321746237576007843017578125" lon="1.393205411732196807861328125">
        <ele>677.79998779296875</ele>
        <time>2020-08-12T05:11:08.000Z</time>
      </trkpt>
      <trkpt lat="42.32172377407550811767578125" lon="1.39307524077594280242919921875">
        <ele>678.20001220703125</ele>
        <time>2020-08-12T05:11:12.000Z</time>
      </trkpt>
      <trkpt lat="42.321702651679515838623046875" lon="1.39294548891484737396240234375">
        <ele>679</ele>
        <time>2020-08-12T05:11:16.000Z</time>
      </trkpt>
      <trkpt lat="42.3216813616454601287841796875" lon="1.39278195798397064208984375">
        <ele>679.4000244140625</ele>
        <time>2020-08-12T05:11:21.000Z</time>
      </trkpt>
      <trkpt lat="42.3216424696147441864013671875" lon="1.3925278186798095703125">
        <ele>680.20001220703125</ele>
        <time>2020-08-12T05:11:29.000Z</time>
      </trkpt>
      <trkpt lat="42.3216377757489681243896484375" lon="1.392495632171630859375">
        <ele>680.4000244140625</ele>
        <time>2020-08-12T05:11:30.000Z</time>
      </trkpt>
      <trkpt lat="42.32160768471658229827880859375" lon="1.39233226887881755828857421875">
        <ele>681.4000244140625</ele>
        <time>2020-08-12T05:11:35.000Z</time>
      </trkpt>
      <trkpt lat="42.32158823870122432708740234375" lon="1.3922367990016937255859375">
        <ele>681.79998779296875</ele>
        <time>2020-08-12T05:11:38.000Z</time>
      </trkpt>
      <trkpt lat="42.32154230587184429168701171875" lon="1.39204678125679492950439453125">
        <ele>682.5999755859375</ele>
        <time>2020-08-12T05:11:44.000Z</time>
      </trkpt>
      <trkpt lat="42.32151213102042675018310546875" lon="1.391955502331256866455078125">
        <ele>683</ele>
        <time>2020-08-12T05:11:47.000Z</time>
      </trkpt>
      <trkpt lat="42.321418337523937225341796875" lon="1.39168384484946727752685546875">
        <ele>684</ele>
        <time>2020-08-12T05:11:56.000Z</time>
      </trkpt>
      <trkpt lat="42.3213028348982334136962890625" lon="1.391439177095890045166015625">
        <ele>685</ele>
        <time>2020-08-12T05:12:05.000Z</time>
      </trkpt>
      <trkpt lat="42.3212872445583343505859375" lon="1.3914148695766925811767578125">
        <ele>685.20001220703125</ele>
        <time>2020-08-12T05:12:06.000Z</time>
      </trkpt>
      <trkpt lat="42.32113410718739032745361328125" lon="1.39116131700575351715087890625">
        <ele>686.20001220703125</ele>
        <time>2020-08-12T05:12:16.000Z</time>
      </trkpt>
      <trkpt lat="42.32111684046685695648193359375" lon="1.39113751240074634552001953125">
        <ele>686.4000244140625</ele>
        <time>2020-08-12T05:12:17.000Z</time>
      </trkpt>
      <trkpt lat="42.32097141444683074951171875" lon="1.3909515179693698883056640625">
        <ele>687.5999755859375</ele>
        <time>2020-08-12T05:12:25.000Z</time>
      </trkpt>
      <trkpt lat="42.3209521360695362091064453125" lon="1.390930898487567901611328125">
        <ele>687.5999755859375</ele>
        <time>2020-08-12T05:12:26.000Z</time>
      </trkpt>
      <trkpt lat="42.32093252241611480712890625" lon="1.3909116201102733612060546875">
        <ele>687.79998779296875</ele>
        <time>2020-08-12T05:12:27.000Z</time>
      </trkpt>
      <trkpt lat="42.3207298479974269866943359375" lon="1.39072394929826259613037109375">
        <ele>688.79998779296875</ele>
        <time>2020-08-12T05:12:37.000Z</time>
      </trkpt>
      <trkpt lat="42.3205327056348323822021484375" lon="1.39058145694434642791748046875">
        <ele>689.79998779296875</ele>
        <time>2020-08-12T05:12:46.000Z</time>
      </trkpt>
      <trkpt lat="42.32048886828124523162841796875" lon="1.3905505277216434478759765625">
        <ele>690</ele>
        <time>2020-08-12T05:12:48.000Z</time>
      </trkpt>
      <trkpt lat="42.32028367929160594940185546875" lon="1.39042806811630725860595703125">
        <ele>691.20001220703125</ele>
        <time>2020-08-12T05:12:57.000Z</time>
      </trkpt>
      <trkpt lat="42.320261299610137939453125" lon="1.3904147408902645111083984375">
        <ele>691.20001220703125</ele>
        <time>2020-08-12T05:12:58.000Z</time>
      </trkpt>
      <trkpt lat="42.3199895583093166351318359375" lon="1.39025372453033924102783203125">
        <ele>692.5999755859375</ele>
        <time>2020-08-12T05:13:10.000Z</time>
      </trkpt>
      <trkpt lat="42.3197645880281925201416015625" lon="1.3901217095553874969482421875">
        <ele>693.79998779296875</ele>
        <time>2020-08-12T05:13:20.000Z</time>
      </trkpt>
      <trkpt lat="42.31974204070866107940673828125" lon="1.3901071250438690185546875">
        <ele>693.79998779296875</ele>
        <time>2020-08-12T05:13:21.000Z</time>
      </trkpt>
      <trkpt lat="42.319537438452243804931640625" lon="1.3899906165897846221923828125">
        <ele>695</ele>
        <time>2020-08-12T05:13:30.000Z</time>
      </trkpt>
      <trkpt lat="42.3194708861410617828369140625" lon="1.389949880540370941162109375">
        <ele>695.20001220703125</ele>
        <time>2020-08-12T05:13:33.000Z</time>
      </trkpt>
      <trkpt lat="42.31929101049900054931640625" lon="1.38984435237944126129150390625">
        <ele>696.20001220703125</ele>
        <time>2020-08-12T05:13:41.000Z</time>
      </trkpt>
      <trkpt lat="42.31924633495509624481201171875" lon="1.38981501571834087371826171875">
        <ele>696.4000244140625</ele>
        <time>2020-08-12T05:13:43.000Z</time>
      </trkpt>
      <trkpt lat="42.3190648667514324188232421875" lon="1.38970403932034969329833984375">
        <ele>697.20001220703125</ele>
        <time>2020-08-12T05:13:51.000Z</time>
      </trkpt>
      <trkpt lat="42.31904215179383754730224609375" lon="1.38969079591333866119384765625">
        <ele>697.4000244140625</ele>
        <time>2020-08-12T05:13:52.000Z</time>
      </trkpt>
      <trkpt lat="42.31897392310202121734619140625" lon="1.38964905403554439544677734375">
        <ele>697.79998779296875</ele>
        <time>2020-08-12T05:13:55.000Z</time>
      </trkpt>
      <trkpt lat="42.31881701387465000152587890625" lon="1.3895430229604244232177734375">
        <ele>698.5999755859375</ele>
        <time>2020-08-12T05:14:02.000Z</time>
      </trkpt>
      <trkpt lat="42.31877200305461883544921875" lon="1.3895105011761188507080078125">
        <ele>698.5999755859375</ele>
        <time>2020-08-12T05:14:04.000Z</time>
      </trkpt>
      <trkpt lat="42.31855206191539764404296875" lon="1.38934428803622722625732421875">
        <ele>699.5999755859375</ele>
        <time>2020-08-12T05:14:14.000Z</time>
      </trkpt>
      <trkpt lat="42.31846061535179615020751953125" lon="1.38927455060184001922607421875">
        <ele>699.79998779296875</ele>
        <time>2020-08-12T05:14:18.000Z</time>
      </trkpt>
      <trkpt lat="42.31825693510472774505615234375" lon="1.38910993002355098724365234375">
        <ele>700.79998779296875</ele>
        <time>2020-08-12T05:14:27.000Z</time>
      </trkpt>
      <trkpt lat="42.31819055043160915374755859375" lon="1.3890471495687961578369140625">
        <ele>701</ele>
        <time>2020-08-12T05:14:30.000Z</time>
      </trkpt>
      <trkpt lat="42.31803171336650848388671875" lon="1.38890641741454601287841796875">
        <ele>701.20001220703125</ele>
        <time>2020-08-12T05:14:37.000Z</time>
      </trkpt>
      <trkpt lat="42.31771479360759258270263671875" lon="1.388590671122074127197265625">
        <ele>702.4000244140625</ele>
        <time>2020-08-12T05:14:51.000Z</time>
      </trkpt>
      <trkpt lat="42.31762133538722991943359375" lon="1.38849436305463314056396484375">
        <ele>702.4000244140625</ele>
        <time>2020-08-12T05:14:55.000Z</time>
      </trkpt>
      <trkpt lat="42.31751044280827045440673828125" lon="1.38837668113410472869873046875">
        <ele>702.79998779296875</ele>
        <time>2020-08-12T05:15:00.000Z</time>
      </trkpt>
      <trkpt lat="42.31729821301996707916259765625" lon="1.388128660619258880615234375">
        <ele>703.20001220703125</ele>
        <time>2020-08-12T05:15:10.000Z</time>
      </trkpt>
      <trkpt lat="42.3170696385204792022705078125" lon="1.38783403672277927398681640625">
        <ele>703.4000244140625</ele>
        <time>2020-08-12T05:15:21.000Z</time>
      </trkpt>
      <trkpt lat="42.31691113673150539398193359375" lon="1.38759448193013668060302734375">
        <ele>703.4000244140625</ele>
        <time>2020-08-12T05:15:29.000Z</time>
      </trkpt>
      <trkpt lat="42.31674483977258205413818359375" lon="1.38725124299526214599609375">
        <ele>703.4000244140625</ele>
        <time>2020-08-12T05:15:38.000Z</time>
      </trkpt>
      <trkpt lat="42.316627241671085357666015625" lon="1.38694639317691326141357421875">
        <ele>703.4000244140625</ele>
        <time>2020-08-12T05:15:46.000Z</time>
      </trkpt>
      <trkpt lat="42.3165228031575679779052734375" lon="1.38660524971783161163330078125">
        <ele>702.79998779296875</ele>
        <time>2020-08-12T05:15:54.000Z</time>
      </trkpt>
      <trkpt lat="42.3164735175669193267822265625" lon="1.38643291778862476348876953125">
        <ele>703</ele>
        <time>2020-08-12T05:15:58.000Z</time>
      </trkpt>
      <trkpt lat="42.31640688143670558929443359375" lon="1.38618229888379573822021484375">
        <ele>702.79998779296875</ele>
        <time>2020-08-12T05:16:04.000Z</time>
      </trkpt>
      <trkpt lat="42.31634418480098247528076171875" lon="1.38597451150417327880859375">
        <ele>702.5999755859375</ele>
        <time>2020-08-12T05:16:09.000Z</time>
      </trkpt>
      <trkpt lat="42.31627352535724639892578125" lon="1.38571433722972869873046875">
        <ele>702</ele>
        <time>2020-08-12T05:16:15.000Z</time>
      </trkpt>
      <trkpt lat="42.31618090532720088958740234375" lon="1.38536372222006320953369140625">
        <ele>701.79998779296875</ele>
        <time>2020-08-12T05:16:23.000Z</time>
      </trkpt>
      <trkpt lat="42.3161427676677703857421875" lon="1.385236568748950958251953125">
        <ele>701.79998779296875</ele>
        <time>2020-08-12T05:16:26.000Z</time>
      </trkpt>
      <trkpt lat="42.316065989434719085693359375" lon="1.3849266059696674346923828125">
        <ele>701.20001220703125</ele>
        <time>2020-08-12T05:16:33.000Z</time>
      </trkpt>
      <trkpt lat="42.31598577462136745452880859375" lon="1.3846139609813690185546875">
        <ele>701</ele>
        <time>2020-08-12T05:16:40.000Z</time>
      </trkpt>
      <trkpt lat="42.31597504578530788421630859375" lon="1.38456962071359157562255859375">
        <ele>700.79998779296875</ele>
        <time>2020-08-12T05:16:41.000Z</time>
      </trkpt>
      <trkpt lat="42.31587161310017108917236328125" lon="1.3841809518635272979736328125">
        <ele>700.4000244140625</ele>
        <time>2020-08-12T05:16:50.000Z</time>
      </trkpt>
      <trkpt lat="42.315788380801677703857421875" lon="1.38389102183282375335693359375">
        <ele>700.20001220703125</ele>
        <time>2020-08-12T05:16:57.000Z</time>
      </trkpt>
      <trkpt lat="42.31572928838431835174560546875" lon="1.38365515507757663726806640625">
        <ele>700</ele>
        <time>2020-08-12T05:17:02.000Z</time>
      </trkpt>
      <trkpt lat="42.3156883008778095245361328125" lon="1.38350260443985462188720703125">
        <ele>699.79998779296875</ele>
        <time>2020-08-12T05:17:05.000Z</time>
      </trkpt>
      <trkpt lat="42.31558411382138729095458984375" lon="1.38313631527125835418701171875">
        <ele>699.20001220703125</ele>
        <time>2020-08-12T05:17:12.000Z</time>
      </trkpt>
      <trkpt lat="42.315569780766963958740234375" lon="1.38308049179613590240478515625">
        <ele>699.20001220703125</ele>
        <time>2020-08-12T05:17:13.000Z</time>
      </trkpt>
      <trkpt lat="42.31551990844309329986572265625" lon="1.382909752428531646728515625">
        <ele>698.79998779296875</ele>
        <time>2020-08-12T05:17:16.000Z</time>
      </trkpt>
      <trkpt lat="42.3154707066714763641357421875" lon="1.3827261887490749359130859375">
        <ele>698.4000244140625</ele>
        <time>2020-08-12T05:17:19.000Z</time>
      </trkpt>
      <trkpt lat="42.315434329211711883544921875" lon="1.38259568251669406890869140625">
        <ele>698.20001220703125</ele>
        <time>2020-08-12T05:17:21.000Z</time>
      </trkpt>
      <trkpt lat="42.3153268732130527496337890625" lon="1.38223442249000072479248046875">
        <ele>697.79998779296875</ele>
        <time>2020-08-12T05:17:26.000Z</time>
      </trkpt>
      <trkpt lat="42.31530449353158473968505859375" lon="1.38215563260018825531005859375">
        <ele>697.20001220703125</ele>
        <time>2020-08-12T05:17:27.000Z</time>
      </trkpt>
      <trkpt lat="42.31520994566380977630615234375" lon="1.38181583024561405181884765625">
        <ele>696</ele>
        <time>2020-08-12T05:17:31.000Z</time>
      </trkpt>
      <trkpt lat="42.31515705585479736328125" lon="1.3816385529935359954833984375">
        <ele>695.5999755859375</ele>
        <time>2020-08-12T05:17:33.000Z</time>
      </trkpt>
      <trkpt lat="42.31510131619870662689208984375" lon="1.3814528100192546844482421875">
        <ele>695</ele>
        <time>2020-08-12T05:17:35.000Z</time>
      </trkpt>
      <trkpt lat="42.31499872170388698577880859375" lon="1.3811832480132579803466796875">
        <ele>694</ele>
        <time>2020-08-12T05:17:38.000Z</time>
      </trkpt>
      <trkpt lat="42.314954213798046112060546875" lon="1.3811004348099231719970703125">
        <ele>693.4000244140625</ele>
        <time>2020-08-12T05:17:39.000Z</time>
      </trkpt>
      <trkpt lat="42.3147909343242645263671875" lon="1.38088376261293888092041015625">
        <ele>692.79998779296875</ele>
        <time>2020-08-12T05:17:42.000Z</time>
      </trkpt>
      <trkpt lat="42.314667217433452606201171875" lon="1.38074688613414764404296875">
        <ele>692</ele>
        <time>2020-08-12T05:17:44.000Z</time>
      </trkpt>
      <trkpt lat="42.31453143060207366943359375" lon="1.3806209899485111236572265625">
        <ele>691.4000244140625</ele>
        <time>2020-08-12T05:17:46.000Z</time>
      </trkpt>
      <trkpt lat="42.314246110618114471435546875" lon="1.38037363998591899871826171875">
        <ele>690</ele>
        <time>2020-08-12T05:17:50.000Z</time>
      </trkpt>
      <trkpt lat="42.314172349870204925537109375" lon="1.380310691893100738525390625">
        <ele>689.79998779296875</ele>
        <time>2020-08-12T05:17:51.000Z</time>
      </trkpt>
      <trkpt lat="42.3140238225460052490234375" lon="1.38018521480262279510498046875">
        <ele>689</ele>
        <time>2020-08-12T05:17:53.000Z</time>
      </trkpt>
      <trkpt lat="42.31380044482648372650146484375" lon="1.37999318540096282958984375">
        <ele>688.20001220703125</ele>
        <time>2020-08-12T05:17:56.000Z</time>
      </trkpt>
      <trkpt lat="42.3136588744819164276123046875" lon="1.3798719830811023712158203125">
        <ele>686.79998779296875</ele>
        <time>2020-08-12T05:17:58.000Z</time>
      </trkpt>
      <trkpt lat="42.31353825889527797698974609375" lon="1.37977148406207561492919921875">
        <ele>686.20001220703125</ele>
        <time>2020-08-12T05:18:00.000Z</time>
      </trkpt>
      <trkpt lat="42.3134295456111431121826171875" lon="1.3796795345842838287353515625">
        <ele>685.4000244140625</ele>
        <time>2020-08-12T05:18:02.000Z</time>
      </trkpt>
      <trkpt lat="42.3132159747183322906494140625" lon="1.37949991039931774139404296875">
        <ele>684.4000244140625</ele>
        <time>2020-08-12T05:18:06.000Z</time>
      </trkpt>
      <trkpt lat="42.313115559518337249755859375" lon="1.37940905056893825531005859375">
        <ele>683.4000244140625</ele>
        <time>2020-08-12T05:18:08.000Z</time>
      </trkpt>
      <trkpt lat="42.31307096779346466064453125" lon="1.3793648779392242431640625">
        <ele>683.4000244140625</ele>
        <time>2020-08-12T05:18:09.000Z</time>
      </trkpt>
      <trkpt lat="42.31297398917376995086669921875" lon="1.3792751915752887725830078125">
        <ele>682.5999755859375</ele>
        <time>2020-08-12T05:18:12.000Z</time>
      </trkpt>
      <trkpt lat="42.31294129975140094757080078125" lon="1.379246525466442108154296875">
        <ele>682.20001220703125</ele>
        <time>2020-08-12T05:18:15.000Z</time>
      </trkpt>
      <trkpt lat="42.312941886484622955322265625" lon="1.37924627400934696197509765625">
        <ele>682.20001220703125</ele>
        <time>2020-08-12T05:18:16.000Z</time>
      </trkpt>
      <trkpt lat="42.31294498778879642486572265625" lon="1.3792473636567592620849609375">
        <ele>682.20001220703125</ele>
        <time>2020-08-12T05:18:27.000Z</time>
      </trkpt>
      <trkpt lat="42.312945909798145294189453125" lon="1.37924753129482269287109375">
        <ele>682.20001220703125</ele>
        <time>2020-08-12T05:18:46.000Z</time>
      </trkpt>
      <trkpt lat="42.3129410482943058013916015625" lon="1.37924778275191783905029296875">
        <ele>682.20001220703125</ele>
        <time>2020-08-12T05:19:04.000Z</time>
      </trkpt>
      <trkpt lat="42.312901318073272705078125" lon="1.37921391986310482025146484375">
        <ele>682.20001220703125</ele>
        <time>2020-08-12T05:19:09.000Z</time>
      </trkpt>
      <trkpt lat="42.31280484236776828765869140625" lon="1.3791410811245441436767578125">
        <ele>682</ele>
        <time>2020-08-12T05:19:14.000Z</time>
      </trkpt>
      <trkpt lat="42.31278204359114170074462890625" lon="1.3791186176240444183349609375">
        <ele>681.79998779296875</ele>
        <time>2020-08-12T05:19:15.000Z</time>
      </trkpt>
      <trkpt lat="42.31258322484791278839111328125" lon="1.37894620187580585479736328125">
        <ele>681.20001220703125</ele>
        <time>2020-08-12T05:19:22.000Z</time>
      </trkpt>
      <trkpt lat="42.31248431839048862457275390625" lon="1.37885316275060176849365234375">
        <ele>681.20001220703125</ele>
        <time>2020-08-12T05:19:25.000Z</time>
      </trkpt>
      <trkpt lat="42.3123023472726345062255859375" lon="1.37868158519268035888671875">
        <ele>680.4000244140625</ele>
        <time>2020-08-12T05:19:30.000Z</time>
      </trkpt>
      <trkpt lat="42.312223054468631744384765625" lon="1.37860857881605625152587890625">
        <ele>680.20001220703125</ele>
        <time>2020-08-12T05:19:32.000Z</time>
      </trkpt>
      <trkpt lat="42.31191895902156829833984375" lon="1.37834496796131134033203125">
        <ele>679.4000244140625</ele>
        <time>2020-08-12T05:19:39.000Z</time>
      </trkpt>
      <trkpt lat="42.3118265904486179351806640625" lon="1.37826626189053058624267578125">
        <ele>679.20001220703125</ele>
        <time>2020-08-12T05:19:41.000Z</time>
      </trkpt>
      <trkpt lat="42.3115360736846923828125" lon="1.3780259527266025543212890625">
        <ele>678</ele>
        <time>2020-08-12T05:19:47.000Z</time>
      </trkpt>
      <trkpt lat="42.31138159520924091339111328125" lon="1.37790600769221782684326171875">
        <ele>677.5999755859375</ele>
        <time>2020-08-12T05:19:50.000Z</time>
      </trkpt>
      <trkpt lat="42.31121898628771305084228515625" lon="1.377792768180370330810546875">
        <ele>677.20001220703125</ele>
        <time>2020-08-12T05:19:53.000Z</time>
      </trkpt>
      <trkpt lat="42.31094975955784320831298828125" lon="1.377573497593402862548828125">
        <ele>676.20001220703125</ele>
        <time>2020-08-12T05:19:58.000Z</time>
      </trkpt>
      <trkpt lat="42.3108963668346405029296875" lon="1.37752714566886425018310546875">
        <ele>676</ele>
        <time>2020-08-12T05:19:59.000Z</time>
      </trkpt>
      <trkpt lat="42.31062521226704120635986328125" lon="1.37729345820844173431396484375">
        <ele>675.20001220703125</ele>
        <time>2020-08-12T05:20:04.000Z</time>
      </trkpt>
      <trkpt lat="42.310263030230998992919921875" lon="1.3769453577697277069091796875">
        <ele>674.20001220703125</ele>
        <time>2020-08-12T05:20:11.000Z</time>
      </trkpt>
      <trkpt lat="42.31016588397324085235595703125" lon="1.37684385292232036590576171875">
        <ele>674</ele>
        <time>2020-08-12T05:20:13.000Z</time>
      </trkpt>
      <trkpt lat="42.30976137332618236541748046875" lon="1.376391984522342681884765625">
        <ele>673.4000244140625</ele>
        <time>2020-08-12T05:20:22.000Z</time>
      </trkpt>
      <trkpt lat="42.3093904741108417510986328125" lon="1.37594916857779026031494140625">
        <ele>672.20001220703125</ele>
        <time>2020-08-12T05:20:31.000Z</time>
      </trkpt>
      <trkpt lat="42.30934982188045978546142578125" lon="1.3759029842913150787353515625">
        <ele>672.20001220703125</ele>
        <time>2020-08-12T05:20:32.000Z</time>
      </trkpt>
      <trkpt lat="42.3089304752647876739501953125" lon="1.37542630545794963836669921875">
        <ele>671.5999755859375</ele>
        <time>2020-08-12T05:20:43.000Z</time>
      </trkpt>
      <trkpt lat="42.30885730125010013580322265625" lon="1.37533863075077533721923828125">
        <ele>671.20001220703125</ele>
        <time>2020-08-12T05:20:45.000Z</time>
      </trkpt>
      <trkpt lat="42.30854800902307033538818359375" lon="1.37498139403760433197021484375">
        <ele>670.4000244140625</ele>
        <time>2020-08-12T05:20:53.000Z</time>
      </trkpt>
      <trkpt lat="42.3083353601396083831787109375" lon="1.3747446052730083465576171875">
        <ele>669.20001220703125</ele>
        <time>2020-08-12T05:20:58.000Z</time>
      </trkpt>
      <trkpt lat="42.30815707705914974212646484375" lon="1.37453732080757617950439453125">
        <ele>668.79998779296875</ele>
        <time>2020-08-12T05:21:02.000Z</time>
      </trkpt>
      <trkpt lat="42.30801709927618503570556640625" lon="1.3743704371154308319091796875">
        <ele>668</ele>
        <time>2020-08-12T05:21:05.000Z</time>
      </trkpt>
      <trkpt lat="42.3077727667987346649169921875" lon="1.3740567862987518310546875">
        <ele>667.20001220703125</ele>
        <time>2020-08-12T05:21:10.000Z</time>
      </trkpt>
      <trkpt lat="42.30762650258839130401611328125" lon="1.37383240275084972381591796875">
        <ele>665.79998779296875</ele>
        <time>2020-08-12T05:21:13.000Z</time>
      </trkpt>
      <trkpt lat="42.30748350732028484344482421875" lon="1.37358061037957668304443359375">
        <ele>664.5999755859375</ele>
        <time>2020-08-12T05:21:16.000Z</time>
      </trkpt>
      <trkpt lat="42.30735719203948974609375" lon="1.3732950389385223388671875">
        <ele>663.5999755859375</ele>
        <time>2020-08-12T05:21:19.000Z</time>
      </trkpt>
      <trkpt lat="42.3072420246899127960205078125" lon="1.3729830645024776458740234375">
        <ele>662.4000244140625</ele>
        <time>2020-08-12T05:21:22.000Z</time>
      </trkpt>
      <trkpt lat="42.30712342076003551483154296875" lon="1.372660361230373382568359375">
        <ele>661</ele>
        <time>2020-08-12T05:21:25.000Z</time>
      </trkpt>
      <trkpt lat="42.30703926645219326019287109375" lon="1.37244419194757938385009765625">
        <ele>659.79998779296875</ele>
        <time>2020-08-12T05:21:27.000Z</time>
      </trkpt>
      <trkpt lat="42.30690264143049716949462890625" lon="1.37213456444442272186279296875">
        <ele>658.20001220703125</ele>
        <time>2020-08-12T05:21:30.000Z</time>
      </trkpt>
      <trkpt lat="42.30679468251764774322509765625" lon="1.3719420321285724639892578125">
        <ele>657.20001220703125</ele>
        <time>2020-08-12T05:21:32.000Z</time>
      </trkpt>
      <trkpt lat="42.3066180758178234100341796875" lon="1.37167691253125667572021484375">
        <ele>656.20001220703125</ele>
        <time>2020-08-12T05:21:35.000Z</time>
      </trkpt>
      <trkpt lat="42.30655730701982975006103515625" lon="1.3715909980237483978271484375">
        <ele>655.79998779296875</ele>
        <time>2020-08-12T05:21:36.000Z</time>
      </trkpt>
      <trkpt lat="42.30636770837008953094482421875" lon="1.371344067156314849853515625">
        <ele>654.5999755859375</ele>
        <time>2020-08-12T05:21:39.000Z</time>
      </trkpt>
      <trkpt lat="42.3061718232929706573486328125" lon="1.3710988126695156097412109375">
        <ele>653.20001220703125</ele>
        <time>2020-08-12T05:21:42.000Z</time>
      </trkpt>
      <trkpt lat="42.306108288466930389404296875" lon="1.37101574800908565521240234375">
        <ele>652.5999755859375</ele>
        <time>2020-08-12T05:21:43.000Z</time>
      </trkpt>
      <trkpt lat="42.30598147027194499969482421875" lon="1.37084819376468658447265625">
        <ele>651.79998779296875</ele>
        <time>2020-08-12T05:21:45.000Z</time>
      </trkpt>
      <trkpt lat="42.30585255660116672515869140625" lon="1.370686255395412445068359375">
        <ele>650.79998779296875</ele>
        <time>2020-08-12T05:21:47.000Z</time>
      </trkpt>
      <trkpt lat="42.30559254996478557586669921875" lon="1.37036279775202274322509765625">
        <ele>649.5999755859375</ele>
        <time>2020-08-12T05:21:51.000Z</time>
      </trkpt>
      <trkpt lat="42.3054613731801509857177734375" lon="1.3702006079256534576416015625">
        <ele>649.20001220703125</ele>
        <time>2020-08-12T05:21:53.000Z</time>
      </trkpt>
      <trkpt lat="42.30533036403357982635498046875" lon="1.37003682553768157958984375">
        <ele>648.4000244140625</ele>
        <time>2020-08-12T05:21:55.000Z</time>
      </trkpt>
      <trkpt lat="42.30513657443225383758544921875" lon="1.36979081667959690093994140625">
        <ele>647.20001220703125</ele>
        <time>2020-08-12T05:21:58.000Z</time>
      </trkpt>
      <trkpt lat="42.30494379065930843353271484375" lon="1.36954757384955883026123046875">
        <ele>646.20001220703125</ele>
        <time>2020-08-12T05:22:01.000Z</time>
      </trkpt>
      <trkpt lat="42.30475553311407566070556640625" lon="1.36931388638913631439208984375">
        <ele>645</ele>
        <time>2020-08-12T05:22:04.000Z</time>
      </trkpt>
      <trkpt lat="42.3045068420469760894775390625" lon="1.36902160942554473876953125">
        <ele>643.79998779296875</ele>
        <time>2020-08-12T05:22:08.000Z</time>
      </trkpt>
      <trkpt lat="42.3043093644082546234130859375" lon="1.36883310042321681976318359375">
        <ele>643</ele>
        <time>2020-08-12T05:22:11.000Z</time>
      </trkpt>
      <trkpt lat="42.3041752539575099945068359375" lon="1.36872120201587677001953125">
        <ele>642.5999755859375</ele>
        <time>2020-08-12T05:22:13.000Z</time>
      </trkpt>
      <trkpt lat="42.3039060272276401519775390625" lon="1.36851559393107891082763671875">
        <ele>641.5999755859375</ele>
        <time>2020-08-12T05:22:17.000Z</time>
      </trkpt>
      <trkpt lat="42.30370176024734973907470703125" lon="1.36837276630103588104248046875">
        <ele>641</ele>
        <time>2020-08-12T05:22:20.000Z</time>
      </trkpt>
      <trkpt lat="42.30356681160628795623779296875" lon="1.3682793080806732177734375">
        <ele>640.5999755859375</ele>
        <time>2020-08-12T05:22:22.000Z</time>
      </trkpt>
      <trkpt lat="42.30311653576791286468505859375" lon="1.3679681718349456787109375">
        <ele>639.4000244140625</ele>
        <time>2020-08-12T05:22:29.000Z</time>
      </trkpt>
      <trkpt lat="42.302716635167598724365234375" lon="1.367689557373523712158203125">
        <ele>638.4000244140625</ele>
        <time>2020-08-12T05:22:36.000Z</time>
      </trkpt>
      <trkpt lat="42.302664332091808319091796875" lon="1.36765410192310810089111328125">
        <ele>638.4000244140625</ele>
        <time>2020-08-12T05:22:37.000Z</time>
      </trkpt>
      <trkpt lat="42.302281446754932403564453125" lon="1.36741697788238525390625">
        <ele>638.4000244140625</ele>
        <time>2020-08-12T05:22:45.000Z</time>
      </trkpt>
      <trkpt lat="42.30186469852924346923828125" lon="1.36724892072379589080810546875">
        <ele>638.20001220703125</ele>
        <time>2020-08-12T05:22:55.000Z</time>
      </trkpt>
      <trkpt lat="42.3015540651977062225341796875" lon="1.3671542890369892120361328125">
        <ele>638</ele>
        <time>2020-08-12T05:23:03.000Z</time>
      </trkpt>
      <trkpt lat="42.30151508934795856475830078125" lon="1.36714314110577106475830078125">
        <ele>637.79998779296875</ele>
        <time>2020-08-12T05:23:04.000Z</time>
      </trkpt>
      <trkpt lat="42.30147569440305233001708984375" lon="1.36713341809809207916259765625">
        <ele>637.79998779296875</ele>
        <time>2020-08-12T05:23:05.000Z</time>
      </trkpt>
      <trkpt lat="42.30112633667886257171630859375" lon="1.3670067675411701202392578125">
        <ele>637.5999755859375</ele>
        <time>2020-08-12T05:23:14.000Z</time>
      </trkpt>
      <trkpt lat="42.300763987004756927490234375" lon="1.366815157234668731689453125">
        <ele>637.4000244140625</ele>
        <time>2020-08-12T05:23:24.000Z</time>
      </trkpt>
      <trkpt lat="42.30052166618406772613525390625" lon="1.36662782169878482818603515625">
        <ele>637.4000244140625</ele>
        <time>2020-08-12T05:23:31.000Z</time>
      </trkpt>
      <trkpt lat="42.3003051616251468658447265625" lon="1.36640335433185100555419921875">
        <ele>637.5999755859375</ele>
        <time>2020-08-12T05:23:38.000Z</time>
      </trkpt>
      <trkpt lat="42.3000540398061275482177734375" lon="1.36609272100031375885009765625">
        <ele>637.4000244140625</ele>
        <time>2020-08-12T05:23:47.000Z</time>
      </trkpt>
      <trkpt lat="42.299881875514984130859375" lon="1.365881077945232391357421875">
        <ele>637.4000244140625</ele>
        <time>2020-08-12T05:23:53.000Z</time>
      </trkpt>
      <trkpt lat="42.299797721207141876220703125" lon="1.36578015983104705810546875">
        <ele>637.20001220703125</ele>
        <time>2020-08-12T05:23:56.000Z</time>
      </trkpt>
      <trkpt lat="42.2996074520051479339599609375" lon="1.3655335642397403717041015625">
        <ele>637</ele>
        <time>2020-08-12T05:24:03.000Z</time>
      </trkpt>
      <trkpt lat="42.2993291728198528289794921875" lon="1.36518831364810466766357421875">
        <ele>637.20001220703125</ele>
        <time>2020-08-12T05:24:14.000Z</time>
      </trkpt>
      <trkpt lat="42.29912792332470417022705078125" lon="1.36494423262774944305419921875">
        <ele>637</ele>
        <time>2020-08-12T05:24:22.000Z</time>
      </trkpt>
      <trkpt lat="42.29881770908832550048828125" lon="1.364625804126262664794921875">
        <ele>637</ele>
        <time>2020-08-12T05:24:33.000Z</time>
      </trkpt>
      <trkpt lat="42.29862685315310955047607421875" lon="1.3644774444401264190673828125">
        <ele>636.5999755859375</ele>
        <time>2020-08-12T05:24:39.000Z</time>
      </trkpt>
      <trkpt lat="42.29844882152974605560302734375" lon="1.36435129679739475250244140625">
        <ele>637.20001220703125</ele>
        <time>2020-08-12T05:24:44.000Z</time>
      </trkpt>
      <trkpt lat="42.29815210215747356414794921875" lon="1.36420779861509799957275390625">
        <ele>636.79998779296875</ele>
        <time>2020-08-12T05:24:52.000Z</time>
      </trkpt>
      <trkpt lat="42.29779369197785854339599609375" lon="1.36411853134632110595703125">
        <ele>636.79998779296875</ele>
        <time>2020-08-12T05:25:01.000Z</time>
      </trkpt>
      <trkpt lat="42.297421954572200775146484375" lon="1.364116184413433074951171875">
        <ele>636.5999755859375</ele>
        <time>2020-08-12T05:25:10.000Z</time>
      </trkpt>
      <trkpt lat="42.29708692990243434906005859375" lon="1.364186592400074005126953125">
        <ele>636.20001220703125</ele>
        <time>2020-08-12T05:25:19.000Z</time>
      </trkpt>
      <trkpt lat="42.29696723632514476776123046875" lon="1.3642310164868831634521484375">
        <ele>636.20001220703125</ele>
        <time>2020-08-12T05:25:22.000Z</time>
      </trkpt>
      <trkpt lat="42.29668627493083477020263671875" lon="1.36436705477535724639892578125">
        <ele>636.20001220703125</ele>
        <time>2020-08-12T05:25:29.000Z</time>
      </trkpt>
      <trkpt lat="42.296575717628002166748046875" lon="1.36443980969488620758056640625">
        <ele>636</ele>
        <time>2020-08-12T05:25:32.000Z</time>
      </trkpt>
      <trkpt lat="42.296463735401630401611328125" lon="1.36450602672994136810302734375">
        <ele>636.20001220703125</ele>
        <time>2020-08-12T05:25:35.000Z</time>
      </trkpt>
      <trkpt lat="42.29620683006942272186279296875" lon="1.36472647078335285186767578125">
        <ele>635.79998779296875</ele>
        <time>2020-08-12T05:25:43.000Z</time>
      </trkpt>
      <trkpt lat="42.29598588310182094573974609375" lon="1.3649495132267475128173828125">
        <ele>635.4000244140625</ele>
        <time>2020-08-12T05:25:50.000Z</time>
      </trkpt>
      <trkpt lat="42.2959549538791179656982421875" lon="1.3649806939065456390380859375">
        <ele>635.20001220703125</ele>
        <time>2020-08-12T05:25:51.000Z</time>
      </trkpt>
      <trkpt lat="42.2957159020006656646728515625" lon="1.365244053304195404052734375">
        <ele>635.20001220703125</ele>
        <time>2020-08-12T05:25:59.000Z</time>
      </trkpt>
      <trkpt lat="42.295453548431396484375" lon="1.36552392505109310150146484375">
        <ele>635</ele>
        <time>2020-08-12T05:26:07.000Z</time>
      </trkpt>
      <trkpt lat="42.2951955534517765045166015625" lon="1.36579893529415130615234375">
        <ele>635.20001220703125</ele>
        <time>2020-08-12T05:26:15.000Z</time>
      </trkpt>
      <trkpt lat="42.2949766181409358978271484375" lon="1.36602801270782947540283203125">
        <ele>634.5999755859375</ele>
        <time>2020-08-12T05:26:22.000Z</time>
      </trkpt>
      <trkpt lat="42.29491082020103931427001953125" lon="1.3660904578864574432373046875">
        <ele>634.4000244140625</ele>
        <time>2020-08-12T05:26:24.000Z</time>
      </trkpt>
      <trkpt lat="42.2946918010711669921875" lon="1.366303525865077972412109375">
        <ele>634.5999755859375</ele>
        <time>2020-08-12T05:26:31.000Z</time>
      </trkpt>
      <trkpt lat="42.2944475524127483367919921875" lon="1.366530843079090118408203125">
        <ele>633.79998779296875</ele>
        <time>2020-08-12T05:26:38.000Z</time>
      </trkpt>
      <trkpt lat="42.2944069840013980865478515625" lon="1.3665638677775859832763671875">
        <ele>633.5999755859375</ele>
        <time>2020-08-12T05:26:39.000Z</time>
      </trkpt>
      <trkpt lat="42.29409291408956050872802734375" lon="1.3668176718056201934814453125">
        <ele>632.79998779296875</ele>
        <time>2020-08-12T05:26:46.000Z</time>
      </trkpt>
      <trkpt lat="42.29404337704181671142578125" lon="1.36685614474117755889892578125">
        <ele>632.5999755859375</ele>
        <time>2020-08-12T05:26:47.000Z</time>
      </trkpt>
      <trkpt lat="42.29383860714733600616455078125" lon="1.36702428571879863739013671875">
        <ele>631.79998779296875</ele>
        <time>2020-08-12T05:26:51.000Z</time>
      </trkpt>
      <trkpt lat="42.293562926352024078369140625" lon="1.36724556796252727508544921875">
        <ele>630.79998779296875</ele>
        <time>2020-08-12T05:26:56.000Z</time>
      </trkpt>
      <trkpt lat="42.293448261916637420654296875" lon="1.36733860708773136138916015625">
        <ele>630.5999755859375</ele>
        <time>2020-08-12T05:26:58.000Z</time>
      </trkpt>
      <trkpt lat="42.29321365244686603546142578125" lon="1.3675234280526638031005859375">
        <ele>629.5999755859375</ele>
        <time>2020-08-12T05:27:02.000Z</time>
      </trkpt>
      <trkpt lat="42.2929143346846103668212890625" lon="1.36775552295148372650146484375">
        <ele>628.5999755859375</ele>
        <time>2020-08-12T05:27:07.000Z</time>
      </trkpt>
      <trkpt lat="42.29285289533436298370361328125" lon="1.36779927648603916168212890625">
        <ele>628.4000244140625</ele>
        <time>2020-08-12T05:27:08.000Z</time>
      </trkpt>
      <trkpt lat="42.2926648892462253570556640625" lon="1.367918550968170166015625">
        <ele>627.5999755859375</ele>
        <time>2020-08-12T05:27:11.000Z</time>
      </trkpt>
      <trkpt lat="42.29240764863789081573486328125" lon="1.3680407591164112091064453125">
        <ele>626.79998779296875</ele>
        <time>2020-08-12T05:27:15.000Z</time>
      </trkpt>
      <trkpt lat="42.2922236658632755279541015625" lon="1.3680954091250896453857421875">
        <ele>626.5999755859375</ele>
        <time>2020-08-12T05:27:18.000Z</time>
      </trkpt>
      <trkpt lat="42.29204286821186542510986328125" lon="1.36812214739620685577392578125">
        <ele>626.4000244140625</ele>
        <time>2020-08-12T05:27:21.000Z</time>
      </trkpt>
      <trkpt lat="42.29167926125228404998779296875" lon="1.36814276687800884246826171875">
        <ele>626.20001220703125</ele>
        <time>2020-08-12T05:27:28.000Z</time>
      </trkpt>
      <trkpt lat="42.291299141943454742431640625" lon="1.36813907884061336517333984375">
        <ele>626.4000244140625</ele>
        <time>2020-08-12T05:27:36.000Z</time>
      </trkpt>
      <trkpt lat="42.29091265238821506500244140625" lon="1.368076466023921966552734375">
        <ele>626.20001220703125</ele>
        <time>2020-08-12T05:27:45.000Z</time>
      </trkpt>
      <trkpt lat="42.2906197048723697662353515625" lon="1.36800262145698070526123046875">
        <ele>626</ele>
        <time>2020-08-12T05:27:52.000Z</time>
      </trkpt>
      <trkpt lat="42.2905399091541767120361328125" lon="1.3679735362529754638671875">
        <ele>626</ele>
        <time>2020-08-12T05:27:54.000Z</time>
      </trkpt>
      <trkpt lat="42.2902042977511882781982421875" lon="1.3678208179771900177001953125">
        <ele>625.5999755859375</ele>
        <time>2020-08-12T05:28:03.000Z</time>
      </trkpt>
      <trkpt lat="42.2899082489311695098876953125" lon="1.36761353351175785064697265625">
        <ele>626</ele>
        <time>2020-08-12T05:28:12.000Z</time>
      </trkpt>
      <trkpt lat="42.28986692614853382110595703125" lon="1.36755771003663539886474609375">
        <ele>626.20001220703125</ele>
        <time>2020-08-12T05:28:14.000Z</time>
      </trkpt>
      <trkpt lat="42.2898653335869312286376953125" lon="1.36748344637453556060791015625">
        <ele>626.20001220703125</ele>
        <time>2020-08-12T05:28:16.000Z</time>
      </trkpt>
      <trkpt lat="42.28993901051580905914306640625" lon="1.36733676306903362274169921875">
        <ele>626.20001220703125</ele>
        <time>2020-08-12T05:28:20.000Z</time>
      </trkpt>
      <trkpt lat="42.28998259641230106353759765625" lon="1.3672629185020923614501953125">
        <ele>626.20001220703125</ele>
        <time>2020-08-12T05:28:22.000Z</time>
      </trkpt>
      <trkpt lat="42.2901553474366664886474609375" lon="1.3669112138450145721435546875">
        <ele>626.4000244140625</ele>
        <time>2020-08-12T05:28:31.000Z</time>
      </trkpt>
      <trkpt lat="42.2901843488216400146484375" lon="1.36666260659694671630859375">
        <ele>625.79998779296875</ele>
        <time>2020-08-12T05:28:35.000Z</time>
      </trkpt>
      <trkpt lat="42.29019700549542903900146484375" lon="1.366499997675418853759765625">
        <ele>625.20001220703125</ele>
        <time>2020-08-12T05:28:37.000Z</time>
      </trkpt>
      <trkpt lat="42.2902039624750614166259765625" lon="1.36624024249613285064697265625">
        <ele>623.79998779296875</ele>
        <time>2020-08-12T05:28:40.000Z</time>
      </trkpt>
      <trkpt lat="42.29019566439092159271240234375" lon="1.3661565072834491729736328125">
        <ele>623.5999755859375</ele>
        <time>2020-08-12T05:28:41.000Z</time>
      </trkpt>
      <trkpt lat="42.290111593902111053466796875" lon="1.36599331162869930267333984375">
        <ele>623.79998779296875</ele>
        <time>2020-08-12T05:28:44.000Z</time>
      </trkpt>
      <trkpt lat="42.290054261684417724609375" lon="1.3659379072487354278564453125">
        <ele>624.20001220703125</ele>
        <time>2020-08-12T05:28:46.000Z</time>
      </trkpt>
      <trkpt lat="42.28999030776321887969970703125" lon="1.36586959473788738250732421875">
        <ele>625</ele>
        <time>2020-08-12T05:28:49.000Z</time>
      </trkpt>
      <trkpt lat="42.28991872631013393402099609375" lon="1.36579222977161407470703125">
        <ele>626.20001220703125</ele>
        <time>2020-08-12T05:28:53.000Z</time>
      </trkpt>
      <trkpt lat="42.2898733802139759063720703125" lon="1.3657303713262081146240234375">
        <ele>627.20001220703125</ele>
        <time>2020-08-12T05:28:56.000Z</time>
      </trkpt>
      <trkpt lat="42.28985938243567943572998046875" lon="1.36570866219699382781982421875">
        <ele>627.4000244140625</ele>
        <time>2020-08-12T05:28:57.000Z</time>
      </trkpt>
      <trkpt lat="42.2897717915475368499755859375" lon="1.36557790450751781463623046875">
        <ele>628.4000244140625</ele>
        <time>2020-08-12T05:29:03.000Z</time>
      </trkpt>
      <trkpt lat="42.2897416166961193084716796875" lon="1.365529708564281463623046875">
        <ele>628.5999755859375</ele>
        <time>2020-08-12T05:29:05.000Z</time>
      </trkpt>
      <trkpt lat="42.289620749652385711669921875" lon="1.3652854599058628082275390625">
        <ele>629.20001220703125</ele>
        <time>2020-08-12T05:29:14.000Z</time>
      </trkpt>
      <trkpt lat="42.2895647585391998291015625" lon="1.36517222039401531219482421875">
        <ele>629.5999755859375</ele>
        <time>2020-08-12T05:29:18.000Z</time>
      </trkpt>
      <trkpt lat="42.28950533084571361541748046875" lon="1.365056298673152923583984375">
        <ele>630</ele>
        <time>2020-08-12T05:29:22.000Z</time>
      </trkpt>
      <trkpt lat="42.2893956117331981658935546875" lon="1.36482269503176212310791015625">
        <ele>630.5999755859375</ele>
        <time>2020-08-12T05:29:30.000Z</time>
      </trkpt>
      <trkpt lat="42.28936828672885894775390625" lon="1.36476770974695682525634765625">
        <ele>630.79998779296875</ele>
        <time>2020-08-12T05:29:32.000Z</time>
      </trkpt>
      <trkpt lat="42.28928647935390472412109375" lon="1.3646048493683338165283203125">
        <ele>631.79998779296875</ele>
        <time>2020-08-12T05:29:38.000Z</time>
      </trkpt>
      <trkpt lat="42.28926192037761211395263671875" lon="1.36454877443611621856689453125">
        <ele>631.79998779296875</ele>
        <time>2020-08-12T05:29:40.000Z</time>
      </trkpt>
      <trkpt lat="42.28917877189815044403076171875" lon="1.3643808849155902862548828125">
        <ele>632.4000244140625</ele>
        <time>2020-08-12T05:29:46.000Z</time>
      </trkpt>
      <trkpt lat="42.28909671306610107421875" lon="1.36421534232795238494873046875">
        <ele>633</ele>
        <time>2020-08-12T05:29:52.000Z</time>
      </trkpt>
      <trkpt lat="42.28900794871151447296142578125" lon="1.3640365563333034515380859375">
        <ele>634</ele>
        <time>2020-08-12T05:29:59.000Z</time>
      </trkpt>
      <trkpt lat="42.28899437002837657928466796875" lon="1.36401635594666004180908203125">
        <ele>634.20001220703125</ele>
        <time>2020-08-12T05:30:00.000Z</time>
      </trkpt>
      <trkpt lat="42.28890837170183658599853515625" lon="1.36385324411094188690185546875">
        <ele>635.20001220703125</ele>
        <time>2020-08-12T05:30:07.000Z</time>
      </trkpt>
      <trkpt lat="42.2888306714594364166259765625" lon="1.36372625827789306640625">
        <ele>636.4000244140625</ele>
        <time>2020-08-12T05:30:13.000Z</time>
      </trkpt>
      <trkpt lat="42.28882019408047199249267578125" lon="1.36370287276804447174072265625">
        <ele>636.5999755859375</ele>
        <time>2020-08-12T05:30:14.000Z</time>
      </trkpt>
      <trkpt lat="42.2887542285025119781494140625" lon="1.363565661013126373291015625">
        <ele>637.4000244140625</ele>
        <time>2020-08-12T05:30:20.000Z</time>
      </trkpt>
      <trkpt lat="42.28873436339199542999267578125" lon="1.3635183870792388916015625">
        <ele>637.79998779296875</ele>
        <time>2020-08-12T05:30:22.000Z</time>
      </trkpt>
      <trkpt lat="42.28867082856595516204833984375" lon="1.36338184587657451629638671875">
        <ele>638.4000244140625</ele>
        <time>2020-08-12T05:30:28.000Z</time>
      </trkpt>
      <trkpt lat="42.2886608541011810302734375" lon="1.36335946619510650634765625">
        <ele>638.5999755859375</ele>
        <time>2020-08-12T05:30:29.000Z</time>
      </trkpt>
      <trkpt lat="42.28857544250786304473876953125" lon="1.36314891278743743896484375">
        <ele>639.4000244140625</ele>
        <time>2020-08-12T05:30:37.000Z</time>
      </trkpt>
      <trkpt lat="42.28854476474225521087646484375" lon="1.3630796782672405242919921875">
        <ele>639.79998779296875</ele>
        <time>2020-08-12T05:30:40.000Z</time>
      </trkpt>
      <trkpt lat="42.288504280149936676025390625" lon="1.36297984980046749114990234375">
        <ele>640.20001220703125</ele>
        <time>2020-08-12T05:30:44.000Z</time>
      </trkpt>
      <trkpt lat="42.288459353148937225341796875" lon="1.362843811511993408203125">
        <ele>641</ele>
        <time>2020-08-12T05:30:49.000Z</time>
      </trkpt>
      <trkpt lat="42.288388274610042572021484375" lon="1.36267424561083316802978515625">
        <ele>642</ele>
        <time>2020-08-12T05:30:56.000Z</time>
      </trkpt>
      <trkpt lat="42.288321219384670257568359375" lon="1.36252068914473056793212890625">
        <ele>643</ele>
        <time>2020-08-12T05:31:03.000Z</time>
      </trkpt>
      <trkpt lat="42.288312502205371856689453125" lon="1.36249981820583343505859375">
        <ele>643.4000244140625</ele>
        <time>2020-08-12T05:31:04.000Z</time>
      </trkpt>
      <trkpt lat="42.288258858025074005126953125" lon="1.36236436665058135986328125">
        <ele>644.20001220703125</ele>
        <time>2020-08-12T05:31:10.000Z</time>
      </trkpt>
      <trkpt lat="42.28823211975395679473876953125" lon="1.36229504831135272979736328125">
        <ele>644.4000244140625</ele>
        <time>2020-08-12T05:31:13.000Z</time>
      </trkpt>
      <trkpt lat="42.28817931376397609710693359375" lon="1.36215423233807086944580078125">
        <ele>645.20001220703125</ele>
        <time>2020-08-12T05:31:19.000Z</time>
      </trkpt>
      <trkpt lat="42.2881431877613067626953125" lon="1.36208818294107913970947265625">
        <ele>645.79998779296875</ele>
        <time>2020-08-12T05:31:22.000Z</time>
      </trkpt>
      <trkpt lat="42.2881145216524600982666015625" lon="1.36199413798749446868896484375">
        <ele>646.4000244140625</ele>
        <time>2020-08-12T05:31:26.000Z</time>
      </trkpt>
      <trkpt lat="42.28807453997433185577392578125" lon="1.36186907999217510223388671875">
        <ele>646.79998779296875</ele>
        <time>2020-08-12T05:31:31.000Z</time>
      </trkpt>
      <trkpt lat="42.2880588658154010772705078125" lon="1.3617910444736480712890625">
        <ele>647.20001220703125</ele>
        <time>2020-08-12T05:31:34.000Z</time>
      </trkpt>
      <trkpt lat="42.288064397871494293212890625" lon="1.36163413524627685546875">
        <ele>648</ele>
        <time>2020-08-12T05:31:40.000Z</time>
      </trkpt>
      <trkpt lat="42.28807085193693637847900390625" lon="1.3616084866225719451904296875">
        <ele>648.20001220703125</ele>
        <time>2020-08-12T05:31:41.000Z</time>
      </trkpt>
      <trkpt lat="42.2881376557052135467529296875" lon="1.36143422685563564300537109375">
        <ele>649</ele>
        <time>2020-08-12T05:31:48.000Z</time>
      </trkpt>
      <trkpt lat="42.2881721891462802886962890625" lon="1.361352838575839996337890625">
        <ele>649.4000244140625</ele>
        <time>2020-08-12T05:31:51.000Z</time>
      </trkpt>
      <trkpt lat="42.2882167808711528778076171875" lon="1.36123381555080413818359375">
        <ele>649.5999755859375</ele>
        <time>2020-08-12T05:31:55.000Z</time>
      </trkpt>
      <trkpt lat="42.28831107728183269500732421875" lon="1.36100188829004764556884765625">
        <ele>650.20001220703125</ele>
        <time>2020-08-12T05:32:03.000Z</time>
      </trkpt>
      <trkpt lat="42.2884005121886730194091796875" lon="1.36078597046434879302978515625">
        <ele>650</ele>
        <time>2020-08-12T05:32:10.000Z</time>
      </trkpt>
      <trkpt lat="42.2885594330728054046630859375" lon="1.36040593497455120086669921875">
        <ele>650.20001220703125</ele>
        <time>2020-08-12T05:32:22.000Z</time>
      </trkpt>
      <trkpt lat="42.288659512996673583984375" lon="1.3601429946720600128173828125">
        <ele>650.79998779296875</ele>
        <time>2020-08-12T05:32:30.000Z</time>
      </trkpt>
      <trkpt lat="42.2886724211275577545166015625" lon="1.36010938324034214019775390625">
        <ele>650.79998779296875</ele>
        <time>2020-08-12T05:32:31.000Z</time>
      </trkpt>
      <trkpt lat="42.288794629275798797607421875" lon="1.3598161004483699798583984375">
        <ele>651.4000244140625</ele>
        <time>2020-08-12T05:32:40.000Z</time>
      </trkpt>
      <trkpt lat="42.28895782493054866790771484375" lon="1.35943883098661899566650390625">
        <ele>651.79998779296875</ele>
        <time>2020-08-12T05:32:51.000Z</time>
      </trkpt>
      <trkpt lat="42.2890583239495754241943359375" lon="1.35924537666141986846923828125">
        <ele>652</ele>
        <time>2020-08-12T05:32:57.000Z</time>
      </trkpt>
      <trkpt lat="42.2891302406787872314453125" lon="1.35911294259130954742431640625">
        <ele>652.4000244140625</ele>
        <time>2020-08-12T05:33:01.000Z</time>
      </trkpt>
      <trkpt lat="42.2892859764397144317626953125" lon="1.3588126190006732940673828125">
        <ele>652.20001220703125</ele>
        <time>2020-08-12T05:33:10.000Z</time>
      </trkpt>
      <trkpt lat="42.289455123245716094970703125" lon="1.358503662049770355224609375">
        <ele>652.4000244140625</ele>
        <time>2020-08-12T05:33:19.000Z</time>
      </trkpt>
      <trkpt lat="42.28961681015789508819580078125" lon="1.35817970149219036102294921875">
        <ele>652.20001220703125</ele>
        <time>2020-08-12T05:33:28.000Z</time>
      </trkpt>
      <trkpt lat="42.2897513397037982940673828125" lon="1.35793645866215229034423828125">
        <ele>651.79998779296875</ele>
        <time>2020-08-12T05:33:35.000Z</time>
      </trkpt>
      <trkpt lat="42.28991202078759670257568359375" lon="1.357624568045139312744140625">
        <ele>651.79998779296875</ele>
        <time>2020-08-12T05:33:44.000Z</time>
      </trkpt>
      <trkpt lat="42.2900395095348358154296875" lon="1.3573853485286235809326171875">
        <ele>651.4000244140625</ele>
        <time>2020-08-12T05:33:51.000Z</time>
      </trkpt>
      <trkpt lat="42.2900990210473537445068359375" lon="1.35727755725383758544921875">
        <ele>651.4000244140625</ele>
        <time>2020-08-12T05:33:54.000Z</time>
      </trkpt>
      <trkpt lat="42.29024679400026798248291015625" lon="1.35698326863348484039306640625">
        <ele>651.20001220703125</ele>
        <time>2020-08-12T05:34:02.000Z</time>
      </trkpt>
      <trkpt lat="42.2903923876583576202392578125" lon="1.35672342963516712188720703125">
        <ele>651.20001220703125</ele>
        <time>2020-08-12T05:34:10.000Z</time>
      </trkpt>
      <trkpt lat="42.290590703487396240234375" lon="1.35642771609127521514892578125">
        <ele>651.20001220703125</ele>
        <time>2020-08-12T05:34:19.000Z</time>
      </trkpt>
      <trkpt lat="42.29074702598154544830322265625" lon="1.3561019115149974822998046875">
        <ele>651.20001220703125</ele>
        <time>2020-08-12T05:34:28.000Z</time>
      </trkpt>
      <trkpt lat="42.29089471511542797088623046875" lon="1.355688683688640594482421875">
        <ele>652.4000244140625</ele>
        <time>2020-08-12T05:34:39.000Z</time>
      </trkpt>
      <trkpt lat="42.29095573537051677703857421875" lon="1.3555124960839748382568359375">
        <ele>653</ele>
        <time>2020-08-12T05:34:44.000Z</time>
      </trkpt>
      <trkpt lat="42.2910015843808650970458984375" lon="1.355374194681644439697265625">
        <ele>653.20001220703125</ele>
        <time>2020-08-12T05:34:48.000Z</time>
      </trkpt>
      <trkpt lat="42.29107844643294811248779296875" lon="1.35506146587431430816650390625">
        <ele>654</ele>
        <time>2020-08-12T05:34:57.000Z</time>
      </trkpt>
      <trkpt lat="42.29108900763094425201416015625" lon="1.35498820804059505462646484375">
        <ele>654.20001220703125</ele>
        <time>2020-08-12T05:34:59.000Z</time>
      </trkpt>
      <trkpt lat="42.29111440479755401611328125" lon="1.354770697653293609619140625">
        <ele>655.20001220703125</ele>
        <time>2020-08-12T05:35:05.000Z</time>
      </trkpt>
      <trkpt lat="42.2911487706005573272705078125" lon="1.35442276485264301300048828125">
        <ele>655.20001220703125</ele>
        <time>2020-08-12T05:35:14.000Z</time>
      </trkpt>
      <trkpt lat="42.29119596071541309356689453125" lon="1.3540630973875522613525390625">
        <ele>655.5999755859375</ele>
        <time>2020-08-12T05:35:23.000Z</time>
      </trkpt>
      <trkpt lat="42.29128313250839710235595703125" lon="1.3537952117621898651123046875">
        <ele>656.5999755859375</ele>
        <time>2020-08-12T05:35:31.000Z</time>
      </trkpt>
      <trkpt lat="42.2913013212382793426513671875" lon="1.3537663780152797698974609375">
        <ele>656.5999755859375</ele>
        <time>2020-08-12T05:35:32.000Z</time>
      </trkpt>
      <trkpt lat="42.29146401397883892059326171875" lon="1.35358675383031368255615234375">
        <ele>656.5999755859375</ele>
        <time>2020-08-12T05:35:39.000Z</time>
      </trkpt>
      <trkpt lat="42.2916194982826709747314453125" lon="1.35342263616621494293212890625">
        <ele>656.4000244140625</ele>
        <time>2020-08-12T05:35:45.000Z</time>
      </trkpt>
      <trkpt lat="42.29170641861855983734130859375" lon="1.3531826622784137725830078125">
        <ele>656.79998779296875</ele>
        <time>2020-08-12T05:35:52.000Z</time>
      </trkpt>
      <trkpt lat="42.291781269013881683349609375" lon="1.3527654111385345458984375">
        <ele>657.5999755859375</ele>
        <time>2020-08-12T05:36:03.000Z</time>
      </trkpt>
      <trkpt lat="42.2918017208576202392578125" lon="1.3526559434831142425537109375">
        <ele>658</ele>
        <time>2020-08-12T05:36:06.000Z</time>
      </trkpt>
      <trkpt lat="42.29184840805828571319580078125" lon="1.352404654026031494140625">
        <ele>658.79998779296875</ele>
        <time>2020-08-12T05:36:13.000Z</time>
      </trkpt>
      <trkpt lat="42.291910350322723388671875" lon="1.3520739041268825531005859375">
        <ele>659.20001220703125</ele>
        <time>2020-08-12T05:36:22.000Z</time>
      </trkpt>
      <trkpt lat="42.29197598062455654144287109375" lon="1.35175815783441066741943359375">
        <ele>635.20001220703125</ele>
        <time>2020-08-12T05:36:29.000Z</time>
      </trkpt>
      <trkpt lat="42.292028367519378662109375" lon="1.3515126518905162811279296875">
        <ele>658</ele>
        <time>2020-08-12T05:36:33.000Z</time>
      </trkpt>
      <trkpt lat="42.29205787181854248046875" lon="1.35137527249753475189208984375">
        <ele>657.5999755859375</ele>
        <time>2020-08-12T05:36:35.000Z</time>
      </trkpt>
      <trkpt lat="42.292109169065952301025390625" lon="1.35110571049153804779052734375">
        <ele>657</ele>
        <time>2020-08-12T05:36:39.000Z</time>
      </trkpt>
      <trkpt lat="42.29212216101586818695068359375" lon="1.35104217566549777984619140625">
        <ele>657</ele>
        <time>2020-08-12T05:36:40.000Z</time>
      </trkpt>
      <trkpt lat="42.29213691316545009613037109375" lon="1.35098199360072612762451171875">
        <ele>657</ele>
        <time>2020-08-12T05:36:41.000Z</time>
      </trkpt>
      <trkpt lat="42.29220606386661529541015625" lon="1.350678317248821258544921875">
        <ele>657</ele>
        <time>2020-08-12T05:36:46.000Z</time>
      </trkpt>
      <trkpt lat="42.292279489338397979736328125" lon="1.35037221014499664306640625">
        <ele>656</ele>
        <time>2020-08-12T05:36:51.000Z</time>
      </trkpt>
      <trkpt lat="42.2923195548355579376220703125" lon="1.35025980882346630096435546875">
        <ele>656</ele>
        <time>2020-08-12T05:36:53.000Z</time>
      </trkpt>
      <trkpt lat="42.29234009049832820892333984375" lon="1.35020297951996326446533203125">
        <ele>655.79998779296875</ele>
        <time>2020-08-12T05:36:54.000Z</time>
      </trkpt>
      <trkpt lat="42.2924856841564178466796875" lon="1.3498040847480297088623046875">
        <ele>655.5999755859375</ele>
        <time>2020-08-12T05:37:01.000Z</time>
      </trkpt>
      <trkpt lat="42.292500436305999755859375" lon="1.34974901564419269561767578125">
        <ele>655.5999755859375</ele>
        <time>2020-08-12T05:37:02.000Z</time>
      </trkpt>
      <trkpt lat="42.29253371246159076690673828125" lon="1.349444501101970672607421875">
        <ele>655.5999755859375</ele>
        <time>2020-08-12T05:37:08.000Z</time>
      </trkpt>
      <trkpt lat="42.29251761920750141143798828125" lon="1.34916613809764385223388671875">
        <ele>655.5999755859375</ele>
        <time>2020-08-12T05:37:15.000Z</time>
      </trkpt>
      <trkpt lat="42.29259808547794818878173828125" lon="1.348860450088977813720703125">
        <ele>656.4000244140625</ele>
        <time>2020-08-12T05:37:23.000Z</time>
      </trkpt>
      <trkpt lat="42.29268492199480533599853515625" lon="1.3486024551093578338623046875">
        <ele>656.4000244140625</ele>
        <time>2020-08-12T05:37:30.000Z</time>
      </trkpt>
      <trkpt lat="42.2928154282271862030029296875" lon="1.348206996917724609375">
        <ele>657.20001220703125</ele>
        <time>2020-08-12T05:37:41.000Z</time>
      </trkpt>
      <trkpt lat="42.29294258169829845428466796875" lon="1.34785336442291736602783203125">
        <ele>657.4000244140625</ele>
        <time>2020-08-12T05:37:51.000Z</time>
      </trkpt>
      <trkpt lat="42.29295968078076839447021484375" lon="1.34781874716281890869140625">
        <ele>657.5999755859375</ele>
        <time>2020-08-12T05:37:52.000Z</time>
      </trkpt>
      <trkpt lat="42.2930813021957874298095703125" lon="1.34765940718352794647216796875">
        <ele>657.5999755859375</ele>
        <time>2020-08-12T05:37:57.000Z</time>
      </trkpt>
      <trkpt lat="42.29333083145320415496826171875" lon="1.34749663062393665313720703125">
        <ele>656.5999755859375</ele>
        <time>2020-08-12T05:38:03.000Z</time>
      </trkpt>
      <trkpt lat="42.2935111261904239654541015625" lon="1.34733502753078937530517578125">
        <ele>655.5999755859375</ele>
        <time>2020-08-12T05:38:07.000Z</time>
      </trkpt>
      <trkpt lat="42.29355144314467906951904296875" lon="1.3472856581211090087890625">
        <ele>655.4000244140625</ele>
        <time>2020-08-12T05:38:08.000Z</time>
      </trkpt>
      <trkpt lat="42.29358815588057041168212890625" lon="1.34723628871142864227294921875">
        <ele>655.4000244140625</ele>
        <time>2020-08-12T05:38:09.000Z</time>
      </trkpt>
      <trkpt lat="42.293771803379058837890625" lon="1.34695775806903839111328125">
        <ele>655.5999755859375</ele>
        <time>2020-08-12T05:38:15.000Z</time>
      </trkpt>
      <trkpt lat="42.29391253553330898284912109375" lon="1.34661887772381305694580078125">
        <ele>655.20001220703125</ele>
        <time>2020-08-12T05:38:22.000Z</time>
      </trkpt>
      <trkpt lat="42.293974645435810089111328125" lon="1.3464449532330036163330078125">
        <ele>654.4000244140625</ele>
        <time>2020-08-12T05:38:25.000Z</time>
      </trkpt>
      <trkpt lat="42.2939885593950748443603515625" lon="1.3463145308196544647216796875">
        <ele>654.20001220703125</ele>
        <time>2020-08-12T05:38:27.000Z</time>
      </trkpt>
      <trkpt lat="42.2939339093863964080810546875" lon="1.346052177250385284423828125">
        <ele>653.79998779296875</ele>
        <time>2020-08-12T05:38:31.000Z</time>
      </trkpt>
      <trkpt lat="42.29382620193064212799072265625" lon="1.34590239264070987701416015625">
        <ele>653.79998779296875</ele>
        <time>2020-08-12T05:38:34.000Z</time>
      </trkpt>
      <trkpt lat="42.29378496296703815460205078125" lon="1.34585847146809101104736328125">
        <ele>653.5999755859375</ele>
        <time>2020-08-12T05:38:35.000Z</time>
      </trkpt>
      <trkpt lat="42.293701730668544769287109375" lon="1.34578068740665912628173828125">
        <ele>653.5999755859375</ele>
        <time>2020-08-12T05:38:37.000Z</time>
      </trkpt>
      <trkpt lat="42.29355060495436191558837890625" lon="1.3456307351589202880859375">
        <ele>653.4000244140625</ele>
        <time>2020-08-12T05:38:41.000Z</time>
      </trkpt>
      <trkpt lat="42.2933776862919330596923828125" lon="1.3454538770020008087158203125">
        <ele>654</ele>
        <time>2020-08-12T05:38:47.000Z</time>
      </trkpt>
      <trkpt lat="42.2932667098939418792724609375" lon="1.3453231193125247955322265625">
        <ele>654.5999755859375</ele>
        <time>2020-08-12T05:38:52.000Z</time>
      </trkpt>
      <trkpt lat="42.29321348480880260467529296875" lon="1.34525346569716930389404296875">
        <ele>655.20001220703125</ele>
        <time>2020-08-12T05:38:55.000Z</time>
      </trkpt>
      <trkpt lat="42.293186746537685394287109375" lon="1.345212645828723907470703125">
        <ele>655.79998779296875</ele>
        <time>2020-08-12T05:38:57.000Z</time>
      </trkpt>
      <trkpt lat="42.2931587509810924530029296875" lon="1.34512941353023052215576171875">
        <ele>656.4000244140625</ele>
        <time>2020-08-12T05:39:01.000Z</time>
      </trkpt>
      <trkpt lat="42.2931436635553836822509765625" lon="1.34508247487246990203857421875">
        <ele>657</ele>
        <time>2020-08-12T05:39:03.000Z</time>
      </trkpt>
      <trkpt lat="42.2931292466819286346435546875" lon="1.3450123183429241180419921875">
        <ele>657.4000244140625</ele>
        <time>2020-08-12T05:39:06.000Z</time>
      </trkpt>
      <trkpt lat="42.293129079043865203857421875" lon="1.344964206218719482421875">
        <ele>658</ele>
        <time>2020-08-12T05:39:08.000Z</time>
      </trkpt>
      <trkpt lat="42.29314760304987430572509765625" lon="1.344856917858123779296875">
        <ele>659</ele>
        <time>2020-08-12T05:39:13.000Z</time>
      </trkpt>
      <trkpt lat="42.2932452522218227386474609375" lon="1.3447531498968601226806640625">
        <ele>660</ele>
        <time>2020-08-12T05:39:20.000Z</time>
      </trkpt>
      <trkpt lat="42.293262518942356109619140625" lon="1.3447477854788303375244140625">
        <ele>660.20001220703125</ele>
        <time>2020-08-12T05:39:21.000Z</time>
      </trkpt>
      <trkpt lat="42.2933439910411834716796875" lon="1.34474761784076690673828125">
        <ele>661</ele>
        <time>2020-08-12T05:39:26.000Z</time>
      </trkpt>
      <trkpt lat="42.29337994940578937530517578125" lon="1.34475943632423877716064453125">
        <ele>661.4000244140625</ele>
        <time>2020-08-12T05:39:28.000Z</time>
      </trkpt>
      <trkpt lat="42.29348413646221160888671875" lon="1.34477988816797733306884765625">
        <ele>662</ele>
        <time>2020-08-12T05:39:34.000Z</time>
      </trkpt>
      <trkpt lat="42.29350282810628414154052734375" lon="1.3447833247482776641845703125">
        <ele>662.4000244140625</ele>
        <time>2020-08-12T05:39:35.000Z</time>
      </trkpt>
      <trkpt lat="42.29360475204885005950927734375" lon="1.3447581790387630462646484375">
        <ele>663</ele>
        <time>2020-08-12T05:39:41.000Z</time>
      </trkpt>
      <trkpt lat="42.2936482541263103485107421875" lon="1.34472087956964969635009765625">
        <ele>663.4000244140625</ele>
        <time>2020-08-12T05:39:44.000Z</time>
      </trkpt>
      <trkpt lat="42.29370282031595706939697265625" lon="1.3446589373052120208740234375">
        <ele>664</ele>
        <time>2020-08-12T05:39:48.000Z</time>
      </trkpt>
      <trkpt lat="42.29375780560076236724853515625" lon="1.34460152126848697662353515625">
        <ele>664.4000244140625</ele>
        <time>2020-08-12T05:39:52.000Z</time>
      </trkpt>
      <trkpt lat="42.293793596327304840087890625" lon="1.3445519842207431793212890625">
        <ele>665</ele>
        <time>2020-08-12T05:39:55.000Z</time>
      </trkpt>
      <trkpt lat="42.29382988996803760528564453125" lon="1.34450085461139678955078125">
        <ele>665.5999755859375</ele>
        <time>2020-08-12T05:39:58.000Z</time>
      </trkpt>
      <trkpt lat="42.29391597211360931396484375" lon="1.34438954293727874755859375">
        <ele>666.79998779296875</ele>
        <time>2020-08-12T05:40:05.000Z</time>
      </trkpt>
      <trkpt lat="42.2939282096922397613525390625" lon="1.34437370114028453826904296875">
        <ele>667</ele>
        <time>2020-08-12T05:40:06.000Z</time>
      </trkpt>
      <trkpt lat="42.29400691576302051544189453125" lon="1.3442854396998882293701171875">
        <ele>668</ele>
        <time>2020-08-12T05:40:12.000Z</time>
      </trkpt>
      <trkpt lat="42.2940204106271266937255859375" lon="1.3442700169980525970458984375">
        <ele>668.20001220703125</ele>
        <time>2020-08-12T05:40:13.000Z</time>
      </trkpt>
      <trkpt lat="42.294109426438808441162109375" lon="1.34416155517101287841796875">
        <ele>669</ele>
        <time>2020-08-12T05:40:20.000Z</time>
      </trkpt>
      <trkpt lat="42.29417371563613414764404296875" lon="1.3440789096057415008544921875">
        <ele>669.5999755859375</ele>
        <time>2020-08-12T05:40:25.000Z</time>
      </trkpt>
      <trkpt lat="42.2942118532955646514892578125" lon="1.34403306059539318084716796875">
        <ele>670.4000244140625</ele>
        <time>2020-08-12T05:40:28.000Z</time>
      </trkpt>
      <trkpt lat="42.2942882962524890899658203125" lon="1.34393834508955478668212890625">
        <ele>671.20001220703125</ele>
        <time>2020-08-12T05:40:34.000Z</time>
      </trkpt>
      <trkpt lat="42.29430162347853183746337890625" lon="1.3439221680164337158203125">
        <ele>671.4000244140625</ele>
        <time>2020-08-12T05:40:35.000Z</time>
      </trkpt>
      <trkpt lat="42.2944069840013980865478515625" lon="1.34379920549690723419189453125">
        <ele>672.20001220703125</ele>
        <time>2020-08-12T05:40:43.000Z</time>
      </trkpt>
      <trkpt lat="42.29442014358937740325927734375" lon="1.34378445334732532501220703125">
        <ele>672.4000244140625</ele>
        <time>2020-08-12T05:40:44.000Z</time>
      </trkpt>
      <trkpt lat="42.29451477527618408203125" lon="1.34367666207253932952880859375">
        <ele>673.4000244140625</ele>
        <time>2020-08-12T05:40:51.000Z</time>
      </trkpt>
      <trkpt lat="42.29452860541641712188720703125" lon="1.3436621613800525665283203125">
        <ele>673.79998779296875</ele>
        <time>2020-08-12T05:40:52.000Z</time>
      </trkpt>
      <trkpt lat="42.2945987619459629058837890625" lon="1.3435870595276355743408203125">
        <ele>674.4000244140625</ele>
        <time>2020-08-12T05:40:57.000Z</time>
      </trkpt>
      <trkpt lat="42.29464394040405750274658203125" lon="1.34354867041110992431640625">
        <ele>674.79998779296875</ele>
        <time>2020-08-12T05:41:00.000Z</time>
      </trkpt>
      <trkpt lat="42.29475324042141437530517578125" lon="1.343453787267208099365234375">
        <ele>675.79998779296875</ele>
        <time>2020-08-12T05:41:07.000Z</time>
      </trkpt>
      <trkpt lat="42.294796407222747802734375" lon="1.3434056751430034637451171875">
        <ele>676</ele>
        <time>2020-08-12T05:41:10.000Z</time>
      </trkpt>
      <trkpt lat="42.29491509497165679931640625" lon="1.34332344867289066314697265625">
        <ele>676.79998779296875</ele>
        <time>2020-08-12T05:41:17.000Z</time>
      </trkpt>
      <trkpt lat="42.2949440963566303253173828125" lon="1.3432913459837436676025390625">
        <ele>677</ele>
        <time>2020-08-12T05:41:19.000Z</time>
      </trkpt>
      <trkpt lat="42.2950470261275768280029296875" lon="1.34320073761045932769775390625">
        <ele>677.5999755859375</ele>
        <time>2020-08-12T05:41:26.000Z</time>
      </trkpt>
      <trkpt lat="42.29507393203675746917724609375" lon="1.34317073039710521697998046875">
        <ele>678</ele>
        <time>2020-08-12T05:41:28.000Z</time>
      </trkpt>
      <trkpt lat="42.29514534585177898406982421875" lon="1.34310342371463775634765625">
        <ele>678.5999755859375</ele>
        <time>2020-08-12T05:41:33.000Z</time>
      </trkpt>
      <trkpt lat="42.29523251764476299285888671875" lon="1.34299856610596179962158203125">
        <ele>679.20001220703125</ele>
        <time>2020-08-12T05:41:39.000Z</time>
      </trkpt>
      <trkpt lat="42.2952602617442607879638671875" lon="1.34295900352299213409423828125">
        <ele>679.4000244140625</ele>
        <time>2020-08-12T05:41:41.000Z</time>
      </trkpt>
      <trkpt lat="42.2953598387539386749267578125" lon="1.3428313471376895904541015625">
        <ele>679.79998779296875</ele>
        <time>2020-08-12T05:41:48.000Z</time>
      </trkpt>
      <trkpt lat="42.2954580746591091156005859375" lon="1.34269128553569316864013671875">
        <ele>680.20001220703125</ele>
        <time>2020-08-12T05:41:55.000Z</time>
      </trkpt>
      <trkpt lat="42.29548506438732147216796875" lon="1.34265105240046977996826171875">
        <ele>680.4000244140625</ele>
        <time>2020-08-12T05:41:57.000Z</time>
      </trkpt>
      <trkpt lat="42.295557148754596710205078125" lon="1.34256337769329547882080078125">
        <ele>680.4000244140625</ele>
        <time>2020-08-12T05:42:02.000Z</time>
      </trkpt>
      <trkpt lat="42.29567910544574260711669921875" lon="1.34244385175406932830810546875">
        <ele>681</ele>
        <time>2020-08-12T05:42:09.000Z</time>
      </trkpt>
      <trkpt lat="42.2957678698003292083740234375" lon="1.34233170188963413238525390625">
        <ele>681.20001220703125</ele>
        <time>2020-08-12T05:42:15.000Z</time>
      </trkpt>
      <trkpt lat="42.2957933507859706878662109375" lon="1.342297755181789398193359375">
        <ele>681.5999755859375</ele>
        <time>2020-08-12T05:42:17.000Z</time>
      </trkpt>
      <trkpt lat="42.29584691114723682403564453125" lon="1.3422338850796222686767578125">
        <ele>681.79998779296875</ele>
        <time>2020-08-12T05:42:21.000Z</time>
      </trkpt>
      <trkpt lat="42.29594103991985321044921875" lon="1.34213673882186412811279296875">
        <ele>682.20001220703125</ele>
        <time>2020-08-12T05:42:27.000Z</time>
      </trkpt>
      <trkpt lat="42.2960166446864604949951171875" lon="1.34206113405525684356689453125">
        <ele>682.5999755859375</ele>
        <time>2020-08-12T05:42:32.000Z</time>
      </trkpt>
      <trkpt lat="42.29605964384973049163818359375" lon="1.342010758817195892333984375">
        <ele>683.4000244140625</ele>
        <time>2020-08-12T05:42:35.000Z</time>
      </trkpt>
      <trkpt lat="42.29614111594855785369873046875" lon="1.34195267222821712493896484375">
        <ele>683.79998779296875</ele>
        <time>2020-08-12T05:42:40.000Z</time>
      </trkpt>
      <trkpt lat="42.29615419171750545501708984375" lon="1.34193724952638149261474609375">
        <ele>684</ele>
        <time>2020-08-12T05:42:41.000Z</time>
      </trkpt>
      <trkpt lat="42.296233735978603363037109375" lon="1.34183046407997608184814453125">
        <ele>684.4000244140625</ele>
        <time>2020-08-12T05:42:47.000Z</time>
      </trkpt>
      <trkpt lat="42.29624547064304351806640625" lon="1.34181437082588672637939453125">
        <ele>684.4000244140625</ele>
        <time>2020-08-12T05:42:48.000Z</time>
      </trkpt>
      <trkpt lat="42.29628779925405979156494140625" lon="1.34176927618682384490966796875">
        <ele>684.5999755859375</ele>
        <time>2020-08-12T05:42:51.000Z</time>
      </trkpt>
      <trkpt lat="42.296322248876094818115234375" lon="1.34173876605927944183349609375">
        <ele>684.79998779296875</ele>
        <time>2020-08-12T05:42:53.000Z</time>
      </trkpt>
      <trkpt lat="42.2964250110089778900146484375" lon="1.341627538204193115234375">
        <ele>685.4000244140625</ele>
        <time>2020-08-12T05:42:59.000Z</time>
      </trkpt>
      <trkpt lat="42.2964987717568874359130859375" lon="1.34155453182756900787353515625">
        <ele>686.20001220703125</ele>
        <time>2020-08-12T05:43:03.000Z</time>
      </trkpt>
      <trkpt lat="42.29656339623034000396728515625" lon="1.34151161648333072662353515625">
        <ele>686.5999755859375</ele>
        <time>2020-08-12T05:43:06.000Z</time>
      </trkpt>
      <trkpt lat="42.2966543398797512054443359375" lon="1.34143131785094738006591796875">
        <ele>687.4000244140625</ele>
        <time>2020-08-12T05:43:11.000Z</time>
      </trkpt>
      <trkpt lat="42.29669817723333835601806640625" lon="1.3413847982883453369140625">
        <ele>688.20001220703125</ele>
        <time>2020-08-12T05:43:14.000Z</time>
      </trkpt>
      <trkpt lat="42.2967599518597126007080078125" lon="1.34133928455412387847900390625">
        <ele>688.79998779296875</ele>
        <time>2020-08-12T05:43:18.000Z</time>
      </trkpt>
      <trkpt lat="42.29679440148174762725830078125" lon="1.3413219340145587921142578125">
        <ele>689.20001220703125</ele>
        <time>2020-08-12T05:43:20.000Z</time>
      </trkpt>
      <trkpt lat="42.29688920080661773681640625" lon="1.3412721455097198486328125">
        <ele>689.4000244140625</ele>
        <time>2020-08-12T05:43:25.000Z</time>
      </trkpt>
      <trkpt lat="42.2970610298216342926025390625" lon="1.34124155156314373016357421875">
        <ele>689.20001220703125</ele>
        <time>2020-08-12T05:43:32.000Z</time>
      </trkpt>
      <trkpt lat="42.29724400676786899566650390625" lon="1.34116879664361476898193359375">
        <ele>689</ele>
        <time>2020-08-12T05:43:39.000Z</time>
      </trkpt>
      <trkpt lat="42.2973875887691974639892578125" lon="1.34114448912441730499267578125">
        <ele>688.79998779296875</ele>
        <time>2020-08-12T05:43:45.000Z</time>
      </trkpt>
      <trkpt lat="42.29757090099155902862548828125" lon="1.34115035645663738250732421875">
        <ele>688.5999755859375</ele>
        <time>2020-08-12T05:43:51.000Z</time>
      </trkpt>
      <trkpt lat="42.29779218323528766632080078125" lon="1.3411821238696575164794921875">
        <ele>688.20001220703125</ele>
        <time>2020-08-12T05:43:56.000Z</time>
      </trkpt>
      <trkpt lat="42.297843061387538909912109375" lon="1.34118271060287952423095703125">
        <ele>688</ele>
        <time>2020-08-12T05:43:57.000Z</time>
      </trkpt>
      <trkpt lat="42.298010699450969696044921875" lon="1.34115991182625293731689453125">
        <ele>687.4000244140625</ele>
        <time>2020-08-12T05:44:00.000Z</time>
      </trkpt>
      <trkpt lat="42.29806878603994846343994140625" lon="1.34113510139286518096923828125">
        <ele>687</ele>
        <time>2020-08-12T05:44:01.000Z</time>
      </trkpt>
      <trkpt lat="42.29812762700021266937255859375" lon="1.3410976342856884002685546875">
        <ele>686.79998779296875</ele>
        <time>2020-08-12T05:44:02.000Z</time>
      </trkpt>
      <trkpt lat="42.29824078269302845001220703125" lon="1.34097534231841564178466796875">
        <ele>686</ele>
        <time>2020-08-12T05:44:04.000Z</time>
      </trkpt>
      <trkpt lat="42.29829736053943634033203125" lon="1.34090510196983814239501953125">
        <ele>685.4000244140625</ele>
        <time>2020-08-12T05:44:05.000Z</time>
      </trkpt>
      <trkpt lat="42.29842166416347026824951171875" lon="1.3408119790256023406982421875">
        <ele>684</ele>
        <time>2020-08-12T05:44:07.000Z</time>
      </trkpt>
      <trkpt lat="42.29848938994109630584716796875" lon="1.34079563431441783905029296875">
        <ele>683.4000244140625</ele>
        <time>2020-08-12T05:44:08.000Z</time>
      </trkpt>
      <trkpt lat="42.2985553555190563201904296875" lon="1.34078926406800746917724609375">
        <ele>682.79998779296875</ele>
        <time>2020-08-12T05:44:09.000Z</time>
      </trkpt>
      <trkpt lat="42.2987967543303966522216796875" lon="1.34073394350707530975341796875">
        <ele>682.20001220703125</ele>
        <time>2020-08-12T05:44:13.000Z</time>
      </trkpt>
      <trkpt lat="42.29905776679515838623046875" lon="1.34070393629372119903564453125">
        <ele>681.79998779296875</ele>
        <time>2020-08-12T05:44:18.000Z</time>
      </trkpt>
      <trkpt lat="42.29933478869497776031494140625" lon="1.3406902737915515899658203125">
        <ele>682</ele>
        <time>2020-08-12T05:44:24.000Z</time>
      </trkpt>
      <trkpt lat="42.29937963187694549560546875" lon="1.340695805847644805908203125">
        <ele>682</ele>
        <time>2020-08-12T05:44:25.000Z</time>
      </trkpt>
      <trkpt lat="42.29954718612134456634521484375" lon="1.34075791575014591217041015625">
        <ele>682.20001220703125</ele>
        <time>2020-08-12T05:44:30.000Z</time>
      </trkpt>
      <trkpt lat="42.2996761836111545562744140625" lon="1.34075053967535495758056640625">
        <ele>682.5999755859375</ele>
        <time>2020-08-12T05:44:35.000Z</time>
      </trkpt>
      <trkpt lat="42.29980601929128170013427734375" lon="1.3406999967992305755615234375">
        <ele>682.79998779296875</ele>
        <time>2020-08-12T05:44:40.000Z</time>
      </trkpt>
      <trkpt lat="42.2998535446822643280029296875" lon="1.340681053698062896728515625">
        <ele>683.20001220703125</ele>
        <time>2020-08-12T05:44:42.000Z</time>
      </trkpt>
      <trkpt lat="42.30001087300479412078857421875" lon="1.34060285054147243499755859375">
        <ele>684.20001220703125</ele>
        <time>2020-08-12T05:44:49.000Z</time>
      </trkpt>
      <trkpt lat="42.30018722824752330780029296875" lon="1.34053311310708522796630859375">
        <ele>684.5999755859375</ele>
        <time>2020-08-12T05:44:57.000Z</time>
      </trkpt>
      <trkpt lat="42.3003742285072803497314453125" lon="1.3404916226863861083984375">
        <ele>685.20001220703125</ele>
        <time>2020-08-12T05:45:05.000Z</time>
      </trkpt>
      <trkpt lat="42.30039484798908233642578125" lon="1.340485252439975738525390625">
        <ele>685.4000244140625</ele>
        <time>2020-08-12T05:45:06.000Z</time>
      </trkpt>
      <trkpt lat="42.30054345913231372833251953125" lon="1.34043864905834197998046875">
        <ele>685.5999755859375</ele>
        <time>2020-08-12T05:45:13.000Z</time>
      </trkpt>
      <trkpt lat="42.30064027011394500732421875" lon="1.34037134237587451934814453125">
        <ele>686.20001220703125</ele>
        <time>2020-08-12T05:45:18.000Z</time>
      </trkpt>
      <trkpt lat="42.30067782104015350341796875" lon="1.3403348810970783233642578125">
        <ele>686.20001220703125</ele>
        <time>2020-08-12T05:45:20.000Z</time>
      </trkpt>
      <trkpt lat="42.30083347298204898834228515625" lon="1.3402316160500049591064453125">
        <ele>687</ele>
        <time>2020-08-12T05:45:28.000Z</time>
      </trkpt>
      <trkpt lat="42.300875298678874969482421875" lon="1.34021845646202564239501953125">
        <ele>687.20001220703125</ele>
        <time>2020-08-12T05:45:30.000Z</time>
      </trkpt>
      <trkpt lat="42.300981916487216949462890625" lon="1.34018593467772006988525390625">
        <ele>687.4000244140625</ele>
        <time>2020-08-12T05:45:35.000Z</time>
      </trkpt>
      <trkpt lat="42.301160953938961029052734375" lon="1.3401132635772228240966796875">
        <ele>687.5999755859375</ele>
        <time>2020-08-12T05:45:43.000Z</time>
      </trkpt>
      <trkpt lat="42.30128131806850433349609375" lon="1.3400619663298130035400390625">
        <ele>688.20001220703125</ele>
        <time>2020-08-12T05:45:49.000Z</time>
      </trkpt>
      <trkpt lat="42.30148105882108211517333984375" lon="1.34000949561595916748046875">
        <ele>689</ele>
        <time>2020-08-12T05:45:58.000Z</time>
      </trkpt>
      <trkpt lat="42.3015461862087249755859375" lon="1.34000153280794620513916015625">
        <ele>689.20001220703125</ele>
        <time>2020-08-12T05:46:01.000Z</time>
      </trkpt>
      <trkpt lat="42.301670573651790618896484375" lon="1.3399778120219707489013671875">
        <ele>690.20001220703125</ele>
        <time>2020-08-12T05:46:07.000Z</time>
      </trkpt>
      <trkpt lat="42.30173268355429172515869140625" lon="1.33997035212814807891845703125">
        <ele>690.4000244140625</ele>
        <time>2020-08-12T05:46:10.000Z</time>
      </trkpt>
      <trkpt lat="42.30184567160904407501220703125" lon="1.3399565219879150390625">
        <ele>690.20001220703125</ele>
        <time>2020-08-12T05:46:15.000Z</time>
      </trkpt>
      <trkpt lat="42.30200953781604766845703125" lon="1.3399258442223072052001953125">
        <ele>690.4000244140625</ele>
        <time>2020-08-12T05:46:22.000Z</time>
      </trkpt>
      <trkpt lat="42.3021860606968402862548828125" lon="1.339899860322475433349609375">
        <ele>690.5999755859375</ele>
        <time>2020-08-12T05:46:29.000Z</time>
      </trkpt>
      <trkpt lat="42.3023231886327266693115234375" lon="1.339862309396266937255859375">
        <ele>691.5999755859375</ele>
        <time>2020-08-12T05:46:36.000Z</time>
      </trkpt>
      <trkpt lat="42.3023428022861480712890625" lon="1.339859627187252044677734375">
        <ele>691.5999755859375</ele>
        <time>2020-08-12T05:46:37.000Z</time>
      </trkpt>
      <trkpt lat="42.30246744118630886077880859375" lon="1.3398398458957672119140625">
        <ele>692.5999755859375</ele>
        <time>2020-08-12T05:46:43.000Z</time>
      </trkpt>
      <trkpt lat="42.30255578644573688507080078125" lon="1.33983473293483257293701171875">
        <ele>693.20001220703125</ele>
        <time>2020-08-12T05:46:47.000Z</time>
      </trkpt>
      <trkpt lat="42.30267849750816822052001953125" lon="1.33980422280728816986083984375">
        <ele>693.5999755859375</ele>
        <time>2020-08-12T05:46:53.000Z</time>
      </trkpt>
      <trkpt lat="42.302701212465763092041015625" lon="1.33980137296020984649658203125">
        <ele>693.5999755859375</ele>
        <time>2020-08-12T05:46:54.000Z</time>
      </trkpt>
      <trkpt lat="42.3028693534433841705322265625" lon="1.33982702158391475677490234375">
        <ele>694.5999755859375</ele>
        <time>2020-08-12T05:47:02.000Z</time>
      </trkpt>
      <trkpt lat="42.3028887994587421417236328125" lon="1.33983355946838855743408203125">
        <ele>694.79998779296875</ele>
        <time>2020-08-12T05:47:03.000Z</time>
      </trkpt>
      <trkpt lat="42.3029838502407073974609375" lon="1.3398269377648830413818359375">
        <ele>695.4000244140625</ele>
        <time>2020-08-12T05:47:08.000Z</time>
      </trkpt>
      <trkpt lat="42.3030750453472137451171875" lon="1.33977614343166351318359375">
        <ele>695.79998779296875</ele>
        <time>2020-08-12T05:47:13.000Z</time>
      </trkpt>
      <trkpt lat="42.30309046804904937744140625" lon="1.33975979872047901153564453125">
        <ele>696.20001220703125</ele>
        <time>2020-08-12T05:47:14.000Z</time>
      </trkpt>
      <trkpt lat="42.30317839421331882476806640625" lon="1.3396831043064594268798828125">
        <ele>696.20001220703125</ele>
        <time>2020-08-12T05:47:19.000Z</time>
      </trkpt>
      <trkpt lat="42.30325751937925815582275390625" lon="1.33957439102232456207275390625">
        <ele>696.20001220703125</ele>
        <time>2020-08-12T05:47:24.000Z</time>
      </trkpt>
      <trkpt lat="42.30334402061998844146728515625" lon="1.3394011370837688446044921875">
        <ele>696</ele>
        <time>2020-08-12T05:47:30.000Z</time>
      </trkpt>
      <trkpt lat="42.3035120777785778045654296875" lon="1.33924230001866817474365234375">
        <ele>695.4000244140625</ele>
        <time>2020-08-12T05:47:37.000Z</time>
      </trkpt>
      <trkpt lat="42.30361609719693660736083984375" lon="1.33915982209146022796630859375">
        <ele>695.79998779296875</ele>
        <time>2020-08-12T05:47:42.000Z</time>
      </trkpt>
      <trkpt lat="42.30375221930444240570068359375" lon="1.33903090842068195343017578125">
        <ele>696</ele>
        <time>2020-08-12T05:47:49.000Z</time>
      </trkpt>
      <trkpt lat="42.30385716073215007781982421875" lon="1.33891255594789981842041015625">
        <ele>696.20001220703125</ele>
        <time>2020-08-12T05:47:55.000Z</time>
      </trkpt>
      <trkpt lat="42.3039854876697063446044921875" lon="1.33876419626176357269287109375">
        <ele>697</ele>
        <time>2020-08-12T05:48:02.000Z</time>
      </trkpt>
      <trkpt lat="42.3041246272623538970947265625" lon="1.33868339471518993377685546875">
        <ele>697.20001220703125</ele>
        <time>2020-08-12T05:48:08.000Z</time>
      </trkpt>
      <trkpt lat="42.3041487671434879302978515625" lon="1.33867266587913036346435546875">
        <ele>697.4000244140625</ele>
        <time>2020-08-12T05:48:09.000Z</time>
      </trkpt>
      <trkpt lat="42.304273657500743865966796875" lon="1.33858365006744861602783203125">
        <ele>697.79998779296875</ele>
        <time>2020-08-12T05:48:15.000Z</time>
      </trkpt>
      <trkpt lat="42.304362170398235321044921875" lon="1.3385300897061824798583984375">
        <ele>698.4000244140625</ele>
        <time>2020-08-12T05:48:19.000Z</time>
      </trkpt>
      <trkpt lat="42.30442352592945098876953125" lon="1.33849144913256168365478515625">
        <ele>698.5999755859375</ele>
        <time>2020-08-12T05:48:22.000Z</time>
      </trkpt>
      <trkpt lat="42.30458890087902545928955078125" lon="1.3383932970464229583740234375">
        <ele>699</ele>
        <time>2020-08-12T05:48:30.000Z</time>
      </trkpt>
      <trkpt lat="42.3046312294900417327880859375" lon="1.338373683393001556396484375">
        <ele>699.5999755859375</ele>
        <time>2020-08-12T05:48:32.000Z</time>
      </trkpt>
      <trkpt lat="42.3047713749110698699951171875" lon="1.33830788545310497283935546875">
        <ele>700.5999755859375</ele>
        <time>2020-08-12T05:48:39.000Z</time>
      </trkpt>
      <trkpt lat="42.30483164079487323760986328125" lon="1.338278464972972869873046875">
        <ele>700.79998779296875</ele>
        <time>2020-08-12T05:48:42.000Z</time>
      </trkpt>
      <trkpt lat="42.30493339709937572479248046875" lon="1.3382280059158802032470703125">
        <ele>701.5999755859375</ele>
        <time>2020-08-12T05:48:47.000Z</time>
      </trkpt>
      <trkpt lat="42.30501436628401279449462890625" lon="1.3381441868841648101806640625">
        <ele>702</ele>
        <time>2020-08-12T05:48:52.000Z</time>
      </trkpt>
      <trkpt lat="42.30502794496715068817138671875" lon="1.3381257466971874237060546875">
        <ele>702</ele>
        <time>2020-08-12T05:48:53.000Z</time>
      </trkpt>
      <trkpt lat="42.30512483976781368255615234375" lon="1.3379815779626369476318359375">
        <ele>703</ele>
        <time>2020-08-12T05:49:00.000Z</time>
      </trkpt>
      <trkpt lat="42.305158115923404693603515625" lon="1.3379182107746601104736328125">
        <ele>703.5999755859375</ele>
        <time>2020-08-12T05:49:03.000Z</time>
      </trkpt>
      <trkpt lat="42.3052142746746540069580078125" lon="1.337803713977336883544921875">
        <ele>704</ele>
        <time>2020-08-12T05:49:08.000Z</time>
      </trkpt>
      <trkpt lat="42.3052555136382579803466796875" lon="1.337740011513233184814453125">
        <ele>704.20001220703125</ele>
        <time>2020-08-12T05:49:11.000Z</time>
      </trkpt>
      <trkpt lat="42.30535735376179218292236328125" lon="1.33760296739637851715087890625">
        <ele>705.4000244140625</ele>
        <time>2020-08-12T05:49:18.000Z</time>
      </trkpt>
      <trkpt lat="42.30539859272539615631103515625" lon="1.33754764683544635772705078125">
        <ele>705.79998779296875</ele>
        <time>2020-08-12T05:49:21.000Z</time>
      </trkpt>
      <trkpt lat="42.30548107065260410308837890625" lon="1.3374365866184234619140625">
        <ele>706.4000244140625</ele>
        <time>2020-08-12T05:49:27.000Z</time>
      </trkpt>
      <trkpt lat="42.305492721498012542724609375" lon="1.33741714060306549072265625">
        <ele>706.5999755859375</ele>
        <time>2020-08-12T05:49:28.000Z</time>
      </trkpt>
      <trkpt lat="42.30555600486695766448974609375" lon="1.33732653222978115081787109375">
        <ele>707.4000244140625</ele>
        <time>2020-08-12T05:49:33.000Z</time>
      </trkpt>
      <trkpt lat="42.305591292679309844970703125" lon="1.337267272174358367919921875">
        <ele>708</ele>
        <time>2020-08-12T05:49:36.000Z</time>
      </trkpt>
      <trkpt lat="42.30562456883490085601806640625" lon="1.33721052668988704681396484375">
        <ele>708.4000244140625</ele>
        <time>2020-08-12T05:49:39.000Z</time>
      </trkpt>
      <trkpt lat="42.305632531642913818359375" lon="1.337191499769687652587890625">
        <ele>708.4000244140625</ele>
        <time>2020-08-12T05:49:40.000Z</time>
      </trkpt>
      <trkpt lat="42.30565440841019153594970703125" lon="1.33715235628187656402587890625">
        <ele>708.79998779296875</ele>
        <time>2020-08-12T05:49:42.000Z</time>
      </trkpt>
      <trkpt lat="42.30571391992270946502685546875" lon="1.33702545426785945892333984375">
        <ele>709.5999755859375</ele>
        <time>2020-08-12T05:49:48.000Z</time>
      </trkpt>
      <trkpt lat="42.3057215474545955657958984375" lon="1.337003745138645172119140625">
        <ele>709.5999755859375</ele>
        <time>2020-08-12T05:49:49.000Z</time>
      </trkpt>
      <trkpt lat="42.3057547397911548614501953125" lon="1.33691146038472652435302734375">
        <ele>710.5999755859375</ele>
        <time>2020-08-12T05:49:53.000Z</time>
      </trkpt>
      <trkpt lat="42.30578600428998470306396484375" lon="1.33682143874466419219970703125">
        <ele>711.4000244140625</ele>
        <time>2020-08-12T05:49:57.000Z</time>
      </trkpt>
      <trkpt lat="42.3058040253818035125732421875" lon="1.3367809541523456573486328125">
        <ele>711.5999755859375</ele>
        <time>2020-08-12T05:49:59.000Z</time>
      </trkpt>
      <trkpt lat="42.30585741810500621795654296875" lon="1.33668129332363605499267578125">
        <ele>712.79998779296875</ele>
        <time>2020-08-12T05:50:04.000Z</time>
      </trkpt>
      <trkpt lat="42.30594693683087825775146484375" lon="1.3365945406258106231689453125">
        <ele>713.79998779296875</ele>
        <time>2020-08-12T05:50:10.000Z</time>
      </trkpt>
      <trkpt lat="42.305989600718021392822265625" lon="1.33654936216771602630615234375">
        <ele>714.5999755859375</ele>
        <time>2020-08-12T05:50:13.000Z</time>
      </trkpt>
      <trkpt lat="42.30602136813104152679443359375" lon="1.33651994168758392333984375">
        <ele>715</ele>
        <time>2020-08-12T05:50:15.000Z</time>
      </trkpt>
      <trkpt lat="42.30609931983053684234619140625" lon="1.33644844405353069305419921875">
        <ele>715.5999755859375</ele>
        <time>2020-08-12T05:50:20.000Z</time>
      </trkpt>
      <trkpt lat="42.30616738088428974151611328125" lon="1.33640016429126262664794921875">
        <ele>716</ele>
        <time>2020-08-12T05:50:24.000Z</time>
      </trkpt>
      <trkpt lat="42.30627693235874176025390625" lon="1.3363276608288288116455078125">
        <ele>716.79998779296875</ele>
        <time>2020-08-12T05:50:30.000Z</time>
      </trkpt>
      <trkpt lat="42.3063136450946331024169921875" lon="1.33630310185253620147705078125">
        <ele>717.20001220703125</ele>
        <time>2020-08-12T05:50:32.000Z</time>
      </trkpt>
      <trkpt lat="42.3064366914331912994384765625" lon="1.33620268665254116058349609375">
        <ele>717.4000244140625</ele>
        <time>2020-08-12T05:50:39.000Z</time>
      </trkpt>
      <trkpt lat="42.30653786100447177886962890625" lon="1.33608005940914154052734375">
        <ele>718</ele>
        <time>2020-08-12T05:50:46.000Z</time>
      </trkpt>
      <trkpt lat="42.3065651021897792816162109375" lon="1.33603873662650585174560546875">
        <ele>718.4000244140625</ele>
        <time>2020-08-12T05:50:48.000Z</time>
      </trkpt>
      <trkpt lat="42.30662117712199687957763671875" lon="1.3359280116856098175048828125">
        <ele>719</ele>
        <time>2020-08-12T05:50:53.000Z</time>
      </trkpt>
      <trkpt lat="42.3066291399300098419189453125" lon="1.33590462617576122283935546875">
        <ele>719.20001220703125</ele>
        <time>2020-08-12T05:50:54.000Z</time>
      </trkpt>
      <trkpt lat="42.3066321574151515960693359375" lon="1.3358787260949611663818359375">
        <ele>719.4000244140625</ele>
        <time>2020-08-12T05:50:55.000Z</time>
      </trkpt>
      <trkpt lat="42.3066428862512111663818359375" lon="1.33583237417042255401611328125">
        <ele>719.5999755859375</ele>
        <time>2020-08-12T05:50:57.000Z</time>
      </trkpt>
      <trkpt lat="42.306674234569072723388671875" lon="1.335699521005153656005859375">
        <ele>720</ele>
        <time>2020-08-12T05:51:02.000Z</time>
      </trkpt>
      <trkpt lat="42.30676014907658100128173828125" lon="1.3355147838592529296875">
        <ele>720.4000244140625</ele>
        <time>2020-08-12T05:51:09.000Z</time>
      </trkpt>
      <trkpt lat="42.30683893896639347076416015625" lon="1.33543808944523334503173828125">
        <ele>720.5999755859375</ele>
        <time>2020-08-12T05:51:13.000Z</time>
      </trkpt>
      <trkpt lat="42.30691420845687389373779296875" lon="1.33539550937712192535400390625">
        <ele>720.5999755859375</ele>
        <time>2020-08-12T05:51:16.000Z</time>
      </trkpt>
      <trkpt lat="42.30708586983382701873779296875" lon="1.3353131152689456939697265625">
        <ele>720</ele>
        <time>2020-08-12T05:51:22.000Z</time>
      </trkpt>
      <trkpt lat="42.30723917484283447265625" lon="1.33521781302988529205322265625">
        <ele>719.79998779296875</ele>
        <time>2020-08-12T05:51:27.000Z</time>
      </trkpt>
      <trkpt lat="42.30733682401478290557861328125" lon="1.3351070880889892578125">
        <ele>719.5999755859375</ele>
        <time>2020-08-12T05:51:32.000Z</time>
      </trkpt>
      <trkpt lat="42.3074649833142757415771484375" lon="1.3349369354546070098876953125">
        <ele>720.20001220703125</ele>
        <time>2020-08-12T05:51:40.000Z</time>
      </trkpt>
      <trkpt lat="42.307562045753002166748046875" lon="1.3347917608916759490966796875">
        <ele>721.20001220703125</ele>
        <time>2020-08-12T05:51:47.000Z</time>
      </trkpt>
      <trkpt lat="42.307626418769359588623046875" lon="1.33465857245028018951416015625">
        <ele>722</ele>
        <time>2020-08-12T05:51:53.000Z</time>
      </trkpt>
      <trkpt lat="42.30768685229122638702392578125" lon="1.3345188461244106292724609375">
        <ele>723.20001220703125</ele>
        <time>2020-08-12T05:51:59.000Z</time>
      </trkpt>
      <trkpt lat="42.307698167860507965087890625" lon="1.33449546061456203460693359375">
        <ele>723.20001220703125</ele>
        <time>2020-08-12T05:52:00.000Z</time>
      </trkpt>
      <trkpt lat="42.3077617026865482330322265625" lon="1.334366463124752044677734375">
        <ele>724.20001220703125</ele>
        <time>2020-08-12T05:52:06.000Z</time>
      </trkpt>
      <trkpt lat="42.307782657444477081298828125" lon="1.33432765491306781768798828125">
        <ele>724.5999755859375</ele>
        <time>2020-08-12T05:52:08.000Z</time>
      </trkpt>
      <trkpt lat="42.30785365216434001922607421875" lon="1.3342367112636566162109375">
        <ele>725.5999755859375</ele>
        <time>2020-08-12T05:52:13.000Z</time>
      </trkpt>
      <trkpt lat="42.30790511704981327056884765625" lon="1.3341279141604900360107421875">
        <ele>726.5999755859375</ele>
        <time>2020-08-12T05:52:18.000Z</time>
      </trkpt>
      <trkpt lat="42.3079192824661731719970703125" lon="1.33411156944930553436279296875">
        <ele>726.79998779296875</ele>
        <time>2020-08-12T05:52:19.000Z</time>
      </trkpt>
      <trkpt lat="42.30798843316733837127685546875" lon="1.33401048369705677032470703125">
        <ele>727.4000244140625</ele>
        <time>2020-08-12T05:52:25.000Z</time>
      </trkpt>
      <trkpt lat="42.3080627806484699249267578125" lon="1.33390956558287143707275390625">
        <ele>727.5999755859375</ele>
        <time>2020-08-12T05:52:31.000Z</time>
      </trkpt>
      <trkpt lat="42.308128662407398223876953125" lon="1.3338466174900531768798828125">
        <ele>727.79998779296875</ele>
        <time>2020-08-12T05:52:35.000Z</time>
      </trkpt>
      <trkpt lat="42.308164201676845550537109375" lon="1.3338191248476505279541015625">
        <ele>727.79998779296875</ele>
        <time>2020-08-12T05:52:37.000Z</time>
      </trkpt>
      <trkpt lat="42.30829705484211444854736328125" lon="1.33371300995349884033203125">
        <ele>728</ele>
        <time>2020-08-12T05:52:44.000Z</time>
      </trkpt>
      <trkpt lat="42.30841725133359432220458984375" lon="1.3335958309471607208251953125">
        <ele>728.20001220703125</ele>
        <time>2020-08-12T05:52:51.000Z</time>
      </trkpt>
      <trkpt lat="42.30849771760404109954833984375" lon="1.33351863361895084381103515625">
        <ele>728.5999755859375</ele>
        <time>2020-08-12T05:52:56.000Z</time>
      </trkpt>
      <trkpt lat="42.30860752053558826446533203125" lon="1.33339055813848972320556640625">
        <ele>729</ele>
        <time>2020-08-12T05:53:03.000Z</time>
      </trkpt>
      <trkpt lat="42.308700978755950927734375" lon="1.33330087177455425262451171875">
        <ele>729.5999755859375</ele>
        <time>2020-08-12T05:53:09.000Z</time>
      </trkpt>
      <trkpt lat="42.30881698429584503173828125" lon="1.33322208188474178314208984375">
        <ele>730</ele>
        <time>2020-08-12T05:53:15.000Z</time>
      </trkpt>
      <trkpt lat="42.3088376037776470184326171875" lon="1.33321101777255535125732421875">
        <ele>730.20001220703125</ele>
        <time>2020-08-12T05:53:16.000Z</time>
      </trkpt>
      <trkpt lat="42.3089303076267242431640625" lon="1.3331525959074497222900390625">
        <ele>731</ele>
        <time>2020-08-12T05:53:21.000Z</time>
      </trkpt>
      <trkpt lat="42.308985292911529541015625" lon="1.3331150449812412261962890625">
        <ele>731.5999755859375</ele>
        <time>2020-08-12T05:53:24.000Z</time>
      </trkpt>
      <trkpt lat="42.30906047858297824859619140625" lon="1.333032064139842987060546875">
        <ele>732.20001220703125</ele>
        <time>2020-08-12T05:53:29.000Z</time>
      </trkpt>
      <trkpt lat="42.30908864177763462066650390625" lon="1.3329946808516979217529296875">
        <ele>732.5999755859375</ele>
        <time>2020-08-12T05:53:31.000Z</time>
      </trkpt>
      <trkpt lat="42.3091502487659454345703125" lon="1.33292972110211849212646484375">
        <ele>733.4000244140625</ele>
        <time>2020-08-12T05:53:35.000Z</time>
      </trkpt>
      <trkpt lat="42.30918771587312221527099609375" lon="1.33286786265671253204345703125">
        <ele>733.79998779296875</ele>
        <time>2020-08-12T05:53:38.000Z</time>
      </trkpt>
      <trkpt lat="42.3092288710176944732666015625" lon="1.33277867920696735382080078125">
        <ele>734.4000244140625</ele>
        <time>2020-08-12T05:53:42.000Z</time>
      </trkpt>
      <trkpt lat="42.3092644102871417999267578125" lon="1.33269418962299823760986328125">
        <ele>735.20001220703125</ele>
        <time>2020-08-12T05:53:46.000Z</time>
      </trkpt>
      <trkpt lat="42.30927840806543827056884765625" lon="1.33264775387942790985107421875">
        <ele>735.5999755859375</ele>
        <time>2020-08-12T05:53:48.000Z</time>
      </trkpt>
      <trkpt lat="42.30930858291685581207275390625" lon="1.33253694511950016021728515625">
        <ele>736.20001220703125</ele>
        <time>2020-08-12T05:53:53.000Z</time>
      </trkpt>
      <trkpt lat="42.30931629426777362823486328125" lon="1.33250140585005283355712890625">
        <ele>736.5999755859375</ele>
        <time>2020-08-12T05:53:55.000Z</time>
      </trkpt>
      <trkpt lat="42.30931763537228107452392578125" lon="1.33248187601566314697265625">
        <ele>736.5999755859375</ele>
        <time>2020-08-12T05:53:56.000Z</time>
      </trkpt>
      <trkpt lat="42.30932517908513545989990234375" lon="1.33244432508945465087890625">
        <ele>736.79998779296875</ele>
        <time>2020-08-12T05:53:58.000Z</time>
      </trkpt>
      <trkpt lat="42.3093592934310436248779296875" lon="1.3323372043669223785400390625">
        <ele>737.5999755859375</ele>
        <time>2020-08-12T05:54:03.000Z</time>
      </trkpt>
      <trkpt lat="42.30936910025775432586669921875" lon="1.332315243780612945556640625">
        <ele>737.5999755859375</ele>
        <time>2020-08-12T05:54:04.000Z</time>
      </trkpt>
      <trkpt lat="42.309379242360591888427734375" lon="1.33229470811784267425537109375">
        <ele>737.5999755859375</ele>
        <time>2020-08-12T05:54:05.000Z</time>
      </trkpt>
      <trkpt lat="42.30941771529614925384521484375" lon="1.3321672193706035614013671875">
        <ele>738.20001220703125</ele>
        <time>2020-08-12T05:54:10.000Z</time>
      </trkpt>
      <trkpt lat="42.30943079106509685516357421875" lon="1.3320775330066680908203125">
        <ele>738.5999755859375</ele>
        <time>2020-08-12T05:54:13.000Z</time>
      </trkpt>
      <trkpt lat="42.3094253428280353546142578125" lon="1.3319690711796283721923828125">
        <ele>739.5999755859375</ele>
        <time>2020-08-12T05:54:17.000Z</time>
      </trkpt>
      <trkpt lat="42.3094216547906398773193359375" lon="1.331945098936557769775390625">
        <ele>740</ele>
        <time>2020-08-12T05:54:18.000Z</time>
      </trkpt>
      <trkpt lat="42.309410758316516876220703125" lon="1.331864297389984130859375">
        <ele>740.79998779296875</ele>
        <time>2020-08-12T05:54:23.000Z</time>
      </trkpt>
      <trkpt lat="42.3094065673649311065673828125" lon="1.3317980803549289703369140625">
        <ele>741</ele>
        <time>2020-08-12T05:54:27.000Z</time>
      </trkpt>
      <trkpt lat="42.30939768254756927490234375" lon="1.33175072260200977325439453125">
        <ele>741.20001220703125</ele>
        <time>2020-08-12T05:54:31.000Z</time>
      </trkpt>
      <trkpt lat="42.309399358928203582763671875" lon="1.33172951638698577880859375">
        <ele>741.20001220703125</ele>
        <time>2020-08-12T05:54:33.000Z</time>
      </trkpt>
      <trkpt lat="42.30942375026643276214599609375" lon="1.3316451944410800933837890625">
        <ele>741.20001220703125</ele>
        <time>2020-08-12T05:54:37.000Z</time>
      </trkpt>
      <trkpt lat="42.3094769753515720367431640625" lon="1.3316135108470916748046875">
        <ele>741</ele>
        <time>2020-08-12T05:54:40.000Z</time>
      </trkpt>
      <trkpt lat="42.3094947449862957000732421875" lon="1.3316106610000133514404296875">
        <ele>741</ele>
        <time>2020-08-12T05:54:41.000Z</time>
      </trkpt>
      <trkpt lat="42.3096181266009807586669921875" lon="1.33161677978932857513427734375">
        <ele>741.5999755859375</ele>
        <time>2020-08-12T05:54:47.000Z</time>
      </trkpt>
      <trkpt lat="42.30972097255289554595947265625" lon="1.331670843064785003662109375">
        <ele>741.79998779296875</ele>
        <time>2020-08-12T05:54:52.000Z</time>
      </trkpt>
      <trkpt lat="42.30982306413352489471435546875" lon="1.331780813634395599365234375">
        <ele>742</ele>
        <time>2020-08-12T05:54:58.000Z</time>
      </trkpt>
      <trkpt lat="42.309976704418659210205078125" lon="1.33192942477762699127197265625">
        <ele>742</ele>
        <time>2020-08-12T05:55:06.000Z</time>
      </trkpt>
      <trkpt lat="42.31010151095688343048095703125" lon="1.3319700770080089569091796875">
        <ele>742.20001220703125</ele>
        <time>2020-08-12T05:55:12.000Z</time>
      </trkpt>
      <trkpt lat="42.31026344932615756988525390625" lon="1.3319419138133525848388671875">
        <ele>741.79998779296875</ele>
        <time>2020-08-12T05:55:19.000Z</time>
      </trkpt>
      <trkpt lat="42.31046293862164020538330078125" lon="1.33186337538063526153564453125">
        <ele>741.4000244140625</ele>
        <time>2020-08-12T05:55:25.000Z</time>
      </trkpt>
      <trkpt lat="42.31064759194850921630859375" lon="1.33181157521903514862060546875">
        <ele>741.20001220703125</ele>
        <time>2020-08-12T05:55:31.000Z</time>
      </trkpt>
      <trkpt lat="42.3108046688139438629150390625" lon="1.331763379275798797607421875">
        <ele>742</ele>
        <time>2020-08-12T05:55:37.000Z</time>
      </trkpt>
      <trkpt lat="42.310920841991901397705078125" lon="1.3317028619349002838134765625">
        <ele>742.5999755859375</ele>
        <time>2020-08-12T05:55:42.000Z</time>
      </trkpt>
      <trkpt lat="42.31100021861493587493896484375" lon="1.3316376507282257080078125">
        <ele>743</ele>
        <time>2020-08-12T05:55:46.000Z</time>
      </trkpt>
      <trkpt lat="42.31105218641459941864013671875" lon="1.331580989062786102294921875">
        <ele>743.5999755859375</ele>
        <time>2020-08-12T05:55:49.000Z</time>
      </trkpt>
      <trkpt lat="42.31113977730274200439453125" lon="1.3314713537693023681640625">
        <ele>744.5999755859375</ele>
        <time>2020-08-12T05:55:55.000Z</time>
      </trkpt>
      <trkpt lat="42.31115578673779964447021484375" lon="1.3314547576010227203369140625">
        <ele>744.79998779296875</ele>
        <time>2020-08-12T05:55:56.000Z</time>
      </trkpt>
      <trkpt lat="42.3112200759351253509521484375" lon="1.33138577453792095184326171875">
        <ele>745.79998779296875</ele>
        <time>2020-08-12T05:56:00.000Z</time>
      </trkpt>
      <trkpt lat="42.31123725883662700653076171875" lon="1.33137236349284648895263671875">
        <ele>746</ele>
        <time>2020-08-12T05:56:01.000Z</time>
      </trkpt>
      <trkpt lat="42.3113089241087436676025390625" lon="1.3313340581953525543212890625">
        <ele>746.79998779296875</ele>
        <time>2020-08-12T05:56:05.000Z</time>
      </trkpt>
      <trkpt lat="42.31138913892209529876708984375" lon="1.3313132710754871368408203125">
        <ele>747.20001220703125</ele>
        <time>2020-08-12T05:56:09.000Z</time>
      </trkpt>
      <trkpt lat="42.311537750065326690673828125" lon="1.33129340596497058868408203125">
        <ele>747</ele>
        <time>2020-08-12T05:56:14.000Z</time>
      </trkpt>
      <trkpt lat="42.31177688576281070709228515625" lon="1.33125987835228443145751953125">
        <ele>745.5999755859375</ele>
        <time>2020-08-12T05:56:19.000Z</time>
      </trkpt>
      <trkpt lat="42.31195407919585704803466796875" lon="1.33124663494527339935302734375">
        <ele>744.4000244140625</ele>
        <time>2020-08-12T05:56:22.000Z</time>
      </trkpt>
      <trkpt lat="42.31216060929000377655029296875" lon="1.331234313547611236572265625">
        <ele>744.20001220703125</ele>
        <time>2020-08-12T05:56:26.000Z</time>
      </trkpt>
      <trkpt lat="42.31235238723456859588623046875" lon="1.3312512449920177459716796875">
        <ele>744.79998779296875</ele>
        <time>2020-08-12T05:56:31.000Z</time>
      </trkpt>
      <trkpt lat="42.31249772943556308746337890625" lon="1.33122853003442287445068359375">
        <ele>745.4000244140625</ele>
        <time>2020-08-12T05:56:37.000Z</time>
      </trkpt>
      <trkpt lat="42.31258708052337169647216796875" lon="1.33116214536130428314208984375">
        <ele>746.4000244140625</ele>
        <time>2020-08-12T05:56:42.000Z</time>
      </trkpt>
      <trkpt lat="42.31260350905358791351318359375" lon="1.33114823140203952789306640625">
        <ele>746.5999755859375</ele>
        <time>2020-08-12T05:56:43.000Z</time>
      </trkpt>
      <trkpt lat="42.312683723866939544677734375" lon="1.33106508292257785797119140625">
        <ele>747.5999755859375</ele>
        <time>2020-08-12T05:56:48.000Z</time>
      </trkpt>
      <trkpt lat="42.31278137303888797760009765625" lon="1.33096768520772457122802734375">
        <ele>748.4000244140625</ele>
        <time>2020-08-12T05:56:54.000Z</time>
      </trkpt>
      <trkpt lat="42.31279729865491390228271484375" lon="1.330949999392032623291015625">
        <ele>748.79998779296875</ele>
        <time>2020-08-12T05:56:55.000Z</time>
      </trkpt>
      <trkpt lat="42.31288061477243900299072265625" lon="1.3308759033679962158203125">
        <ele>749.20001220703125</ele>
        <time>2020-08-12T05:57:00.000Z</time>
      </trkpt>
      <trkpt lat="42.31293107382953166961669921875" lon="1.3308348320424556732177734375">
        <ele>749.79998779296875</ele>
        <time>2020-08-12T05:57:03.000Z</time>
      </trkpt>
      <trkpt lat="42.31300869025290012359619140625" lon="1.33078345097601413726806640625">
        <ele>750.20001220703125</ele>
        <time>2020-08-12T05:57:07.000Z</time>
      </trkpt>
      <trkpt lat="42.3131375201046466827392578125" lon="1.33068085648119449615478515625">
        <ele>750.5999755859375</ele>
        <time>2020-08-12T05:57:14.000Z</time>
      </trkpt>
      <trkpt lat="42.3132360912859439849853515625" lon="1.3306048326194286346435546875">
        <ele>751</ele>
        <time>2020-08-12T05:57:19.000Z</time>
      </trkpt>
      <trkpt lat="42.31330356560647487640380859375" lon="1.33056116290390491485595703125">
        <ele>751</ele>
        <time>2020-08-12T05:57:22.000Z</time>
      </trkpt>
      <trkpt lat="42.31339056976139545440673828125" lon="1.3304552994668483734130859375">
        <ele>751.5999755859375</ele>
        <time>2020-08-12T05:57:27.000Z</time>
      </trkpt>
      <trkpt lat="42.31341705657541751861572265625" lon="1.33040945045650005340576171875">
        <ele>751.79998779296875</ele>
        <time>2020-08-12T05:57:29.000Z</time>
      </trkpt>
      <trkpt lat="42.31343465857207775115966796875" lon="1.330358572304248809814453125">
        <ele>752</ele>
        <time>2020-08-12T05:57:31.000Z</time>
      </trkpt>
      <trkpt lat="42.31344337575137615203857421875" lon="1.33033334277570247650146484375">
        <ele>752</ele>
        <time>2020-08-12T05:57:32.000Z</time>
      </trkpt>
      <trkpt lat="42.31347623281180858612060546875" lon="1.33026947267353534698486328125">
        <ele>752.4000244140625</ele>
        <time>2020-08-12T05:57:35.000Z</time>
      </trkpt>
      <trkpt lat="42.3135287873446941375732421875" lon="1.3301475159823894500732421875">
        <ele>753</ele>
        <time>2020-08-12T05:57:40.000Z</time>
      </trkpt>
      <trkpt lat="42.31355234049260616302490234375" lon="1.33010300807654857635498046875">
        <ele>753.4000244140625</ele>
        <time>2020-08-12T05:57:42.000Z</time>
      </trkpt>
      <trkpt lat="42.3136303760111331939697265625" lon="1.3299959711730480194091796875">
        <ele>754.20001220703125</ele>
        <time>2020-08-12T05:57:48.000Z</time>
      </trkpt>
      <trkpt lat="42.313641943037509918212890625" lon="1.32997627370059490203857421875">
        <ele>754.20001220703125</ele>
        <time>2020-08-12T05:57:49.000Z</time>
      </trkpt>
      <trkpt lat="42.313734479248523712158203125" lon="1.32981265895068645477294921875">
        <ele>755.20001220703125</ele>
        <time>2020-08-12T05:57:57.000Z</time>
      </trkpt>
      <trkpt lat="42.31374428607523441314697265625" lon="1.32979438640177249908447265625">
        <ele>755.20001220703125</ele>
        <time>2020-08-12T05:57:58.000Z</time>
      </trkpt>
      <trkpt lat="42.3137785680592060089111328125" lon="1.3296777941286563873291015625">
        <ele>756.20001220703125</ele>
        <time>2020-08-12T05:58:03.000Z</time>
      </trkpt>
      <trkpt lat="42.3137909732758998870849609375" lon="1.32963730953633785247802734375">
        <ele>756.4000244140625</ele>
        <time>2020-08-12T05:58:05.000Z</time>
      </trkpt>
      <trkpt lat="42.31380983255803585052490234375" lon="1.32955416105687618255615234375">
        <ele>757</ele>
        <time>2020-08-12T05:58:09.000Z</time>
      </trkpt>
      <trkpt lat="42.3138198070228099822998046875" lon="1.32951074279844760894775390625">
        <ele>757.4000244140625</ele>
        <time>2020-08-12T05:58:11.000Z</time>
      </trkpt>
      <trkpt lat="42.31384168379008769989013671875" lon="1.32941477000713348388671875">
        <ele>758.20001220703125</ele>
        <time>2020-08-12T05:58:15.000Z</time>
      </trkpt>
      <trkpt lat="42.313878647983074188232421875" lon="1.329305805265903472900390625">
        <ele>758.5999755859375</ele>
        <time>2020-08-12T05:58:20.000Z</time>
      </trkpt>
      <trkpt lat="42.31390002183616161346435546875" lon="1.32926900871098041534423828125">
        <ele>759</ele>
        <time>2020-08-12T05:58:22.000Z</time>
      </trkpt>
      <trkpt lat="42.31393287889659404754638671875" lon="1.329190470278263092041015625">
        <ele>759.5999755859375</ele>
        <time>2020-08-12T05:58:26.000Z</time>
      </trkpt>
      <trkpt lat="42.31394536793231964111328125" lon="1.329149566590785980224609375">
        <ele>759.79998779296875</ele>
        <time>2020-08-12T05:58:28.000Z</time>
      </trkpt>
      <trkpt lat="42.31394846923649311065673828125" lon="1.32901470176875591278076171875">
        <ele>760.79998779296875</ele>
        <time>2020-08-12T05:58:34.000Z</time>
      </trkpt>
      <trkpt lat="42.3139304481446743011474609375" lon="1.3288731314241886138916015625">
        <ele>761.5999755859375</ele>
        <time>2020-08-12T05:58:40.000Z</time>
      </trkpt>
      <trkpt lat="42.31391779147088527679443359375" lon="1.32879610173404216766357421875">
        <ele>761.79998779296875</ele>
        <time>2020-08-12T05:58:43.000Z</time>
      </trkpt>
      <trkpt lat="42.313902787864208221435546875" lon="1.328702308237552642822265625">
        <ele>762.20001220703125</ele>
        <time>2020-08-12T05:58:47.000Z</time>
      </trkpt>
      <trkpt lat="42.31392617337405681610107421875" lon="1.32855084724724292755126953125">
        <ele>762.5999755859375</ele>
        <time>2020-08-12T05:58:53.000Z</time>
      </trkpt>
      <trkpt lat="42.31393891386687755584716796875" lon="1.3284994661808013916015625">
        <ele>763</ele>
        <time>2020-08-12T05:58:55.000Z</time>
      </trkpt>
      <trkpt lat="42.3139948211610317230224609375" lon="1.32842696271836757659912109375">
        <ele>763.20001220703125</ele>
        <time>2020-08-12T05:58:59.000Z</time>
      </trkpt>
      <trkpt lat="42.31409716419875621795654296875" lon="1.3284345902502536773681640625">
        <ele>763</ele>
        <time>2020-08-12T05:59:03.000Z</time>
      </trkpt>
      <trkpt lat="42.3141393251717090606689453125" lon="1.32848714478313922882080078125">
        <ele>763</ele>
        <time>2020-08-12T05:59:06.000Z</time>
      </trkpt>
      <trkpt lat="42.31417360715568065643310546875" lon="1.32854917086660861968994140625">
        <ele>763.20001220703125</ele>
        <time>2020-08-12T05:59:09.000Z</time>
      </trkpt>
      <trkpt lat="42.3142090626060962677001953125" lon="1.32860331796109676361083984375">
        <ele>763.5999755859375</ele>
        <time>2020-08-12T05:59:12.000Z</time>
      </trkpt>
      <trkpt lat="42.3142523132264614105224609375" lon="1.3286501727998256683349609375">
        <ele>764.4000244140625</ele>
        <time>2020-08-12T05:59:15.000Z</time>
      </trkpt>
      <trkpt lat="42.31426723301410675048828125" lon="1.3286649249494075775146484375">
        <ele>764.4000244140625</ele>
        <time>2020-08-12T05:59:16.000Z</time>
      </trkpt>
      <trkpt lat="42.31431274674832820892333984375" lon="1.328726448118686676025390625">
        <ele>765.4000244140625</ele>
        <time>2020-08-12T05:59:20.000Z</time>
      </trkpt>
      <trkpt lat="42.31434979476034641265869140625" lon="1.32877497933804988861083984375">
        <ele>765.79998779296875</ele>
        <time>2020-08-12T05:59:23.000Z</time>
      </trkpt>
      <trkpt lat="42.31437846086919307708740234375" lon="1.32883583195507526397705078125">
        <ele>766.4000244140625</ele>
        <time>2020-08-12T05:59:26.000Z</time>
      </trkpt>
      <trkpt lat="42.314410395920276641845703125" lon="1.32891722023487091064453125">
        <ele>767.20001220703125</ele>
        <time>2020-08-12T05:59:30.000Z</time>
      </trkpt>
      <trkpt lat="42.31442271731793880462646484375" lon="1.32896013557910919189453125">
        <ele>767.5999755859375</ele>
        <time>2020-08-12T05:59:32.000Z</time>
      </trkpt>
      <trkpt lat="42.314449287950992584228515625" lon="1.32907119579613208770751953125">
        <ele>768.4000244140625</ele>
        <time>2020-08-12T05:59:37.000Z</time>
      </trkpt>
      <trkpt lat="42.3144528083503246307373046875" lon="1.32912106812000274658203125">
        <ele>768.79998779296875</ele>
        <time>2020-08-12T05:59:39.000Z</time>
      </trkpt>
      <trkpt lat="42.31445875950157642364501953125" lon="1.3292513228952884674072265625">
        <ele>769.4000244140625</ele>
        <time>2020-08-12T05:59:44.000Z</time>
      </trkpt>
      <trkpt lat="42.31445725075900554656982421875" lon="1.32929935120046138763427734375">
        <ele>769.79998779296875</ele>
        <time>2020-08-12T05:59:46.000Z</time>
      </trkpt>
      <trkpt lat="42.31446881778538227081298828125" lon="1.329421140253543853759765625">
        <ele>770.4000244140625</ele>
        <time>2020-08-12T05:59:51.000Z</time>
      </trkpt>
      <trkpt lat="42.31448306702077388763427734375" lon="1.3294945657253265380859375">
        <ele>770.5999755859375</ele>
        <time>2020-08-12T05:59:54.000Z</time>
      </trkpt>
      <trkpt lat="42.31447434984147548675537109375" lon="1.32959104143083095550537109375">
        <ele>771.20001220703125</ele>
        <time>2020-08-12T05:59:58.000Z</time>
      </trkpt>
      <trkpt lat="42.31446194462478160858154296875" lon="1.329681314527988433837890625">
        <ele>771.5999755859375</ele>
        <time>2020-08-12T06:00:02.000Z</time>
      </trkpt>
      <trkpt lat="42.314448617398738861083984375" lon="1.329772174358367919921875">
        <ele>772</ele>
        <time>2020-08-12T06:00:06.000Z</time>
      </trkpt>
      <trkpt lat="42.31444803066551685333251953125" lon="1.32986462675034999847412109375">
        <ele>772.5999755859375</ele>
        <time>2020-08-12T06:00:10.000Z</time>
      </trkpt>
      <trkpt lat="42.31444082222878932952880859375" lon="1.3299104757606983184814453125">
        <ele>773</ele>
        <time>2020-08-12T06:00:12.000Z</time>
      </trkpt>
      <trkpt lat="42.3144340328872203826904296875" lon="1.3299332745373249053955078125">
        <ele>773</ele>
        <time>2020-08-12T06:00:13.000Z</time>
      </trkpt>
      <trkpt lat="42.31441953219473361968994140625" lon="1.32999655790627002716064453125">
        <ele>773.4000244140625</ele>
        <time>2020-08-12T06:00:16.000Z</time>
      </trkpt>
      <trkpt lat="42.31441073119640350341796875" lon="1.33004031144082546234130859375">
        <ele>773.79998779296875</ele>
        <time>2020-08-12T06:00:18.000Z</time>
      </trkpt>
      <trkpt lat="42.31440410949289798736572265625" lon="1.33006252348423004150390625">
        <ele>774</ele>
        <time>2020-08-12T06:00:19.000Z</time>
      </trkpt>
      <trkpt lat="42.314360775053501129150390625" lon="1.33018900640308856964111328125">
        <ele>774.79998779296875</ele>
        <time>2020-08-12T06:00:25.000Z</time>
      </trkpt>
      <trkpt lat="42.31435314752161502838134765625" lon="1.330210380256175994873046875">
        <ele>775</ele>
        <time>2020-08-12T06:00:26.000Z</time>
      </trkpt>
      <trkpt lat="42.31431953608989715576171875" lon="1.33033879101276397705078125">
        <ele>775.79998779296875</ele>
        <time>2020-08-12T06:00:32.000Z</time>
      </trkpt>
      <trkpt lat="42.31431576423346996307373046875" lon="1.3303610868752002716064453125">
        <ele>776</ele>
        <time>2020-08-12T06:00:33.000Z</time>
      </trkpt>
      <trkpt lat="42.31430344283580780029296875" lon="1.33049477823078632354736328125">
        <ele>776.79998779296875</ele>
        <time>2020-08-12T06:00:39.000Z</time>
      </trkpt>
      <trkpt lat="42.31430285610258579254150390625" lon="1.33051807992160320281982421875">
        <ele>777.20001220703125</ele>
        <time>2020-08-12T06:00:40.000Z</time>
      </trkpt>
      <trkpt lat="42.31431148946285247802734375" lon="1.3306299783289432525634765625">
        <ele>778</ele>
        <time>2020-08-12T06:00:45.000Z</time>
      </trkpt>
      <trkpt lat="42.31433026492595672607421875" lon="1.33069493807852268218994140625">
        <ele>778.5999755859375</ele>
        <time>2020-08-12T06:00:48.000Z</time>
      </trkpt>
      <trkpt lat="42.3143696598708629608154296875" lon="1.3307359255850315093994140625">
        <ele>778.79998779296875</ele>
        <time>2020-08-12T06:00:51.000Z</time>
      </trkpt>
      <trkpt lat="42.31438525021076202392578125" lon="1.33073885925114154815673828125">
        <ele>779</ele>
        <time>2020-08-12T06:00:52.000Z</time>
      </trkpt>
      <trkpt lat="42.31441517360508441925048828125" lon="1.33074020035564899444580078125">
        <ele>779</ele>
        <time>2020-08-12T06:00:54.000Z</time>
      </trkpt>
      <trkpt lat="42.31451206840574741363525390625" lon="1.33071371354162693023681640625">
        <ele>780</ele>
        <time>2020-08-12T06:01:00.000Z</time>
      </trkpt>
      <trkpt lat="42.314542829990386962890625" lon="1.3307023979723453521728515625">
        <ele>780.4000244140625</ele>
        <time>2020-08-12T06:01:02.000Z</time>
      </trkpt>
      <trkpt lat="42.31461935676634311676025390625" lon="1.33066241629421710968017578125">
        <ele>781</ele>
        <time>2020-08-12T06:01:07.000Z</time>
      </trkpt>
      <trkpt lat="42.314649783074855804443359375" lon="1.33064498193562030792236328125">
        <ele>781.4000244140625</ele>
        <time>2020-08-12T06:01:09.000Z</time>
      </trkpt>
      <trkpt lat="42.3147230409085750579833984375" lon="1.3305981270968914031982421875">
        <ele>782</ele>
        <time>2020-08-12T06:01:14.000Z</time>
      </trkpt>
      <trkpt lat="42.31473569758236408233642578125" lon="1.33058295585215091705322265625">
        <ele>782.20001220703125</ele>
        <time>2020-08-12T06:01:15.000Z</time>
      </trkpt>
      <trkpt lat="42.3147927783429622650146484375" lon="1.33052344433963298797607421875">
        <ele>783</ele>
        <time>2020-08-12T06:01:20.000Z</time>
      </trkpt>
      <trkpt lat="42.31480577029287815093994140625" lon="1.33051221258938312530517578125">
        <ele>783.20001220703125</ele>
        <time>2020-08-12T06:01:21.000Z</time>
      </trkpt>
      <trkpt lat="42.31486779637634754180908203125" lon="1.33044381625950336456298828125">
        <ele>783.79998779296875</ele>
        <time>2020-08-12T06:01:26.000Z</time>
      </trkpt>
      <trkpt lat="42.31488841585814952850341796875" lon="1.33042118512094020843505859375">
        <ele>784.20001220703125</ele>
        <time>2020-08-12T06:01:28.000Z</time>
      </trkpt>
      <trkpt lat="42.31492764316499233245849609375" lon="1.33038614876568317413330078125">
        <ele>784.79998779296875</ele>
        <time>2020-08-12T06:01:31.000Z</time>
      </trkpt>
      <trkpt lat="42.31495530344545841217041015625" lon="1.3303335942327976226806640625">
        <ele>785.20001220703125</ele>
        <time>2020-08-12T06:01:34.000Z</time>
      </trkpt>
      <trkpt lat="42.314993441104888916015625" lon="1.33029461838304996490478515625">
        <ele>786</ele>
        <time>2020-08-12T06:01:37.000Z</time>
      </trkpt>
      <trkpt lat="42.31503308750689029693603515625" lon="1.33026461116969585418701171875">
        <ele>786.4000244140625</ele>
        <time>2020-08-12T06:01:40.000Z</time>
      </trkpt>
      <trkpt lat="42.31506510637700557708740234375" lon="1.33021675050258636474609375">
        <ele>786.5999755859375</ele>
        <time>2020-08-12T06:01:43.000Z</time>
      </trkpt>
      <trkpt lat="42.315110452473163604736328125" lon="1.33018498308956623077392578125">
        <ele>787.20001220703125</ele>
        <time>2020-08-12T06:01:46.000Z</time>
      </trkpt>
      <trkpt lat="42.31512260623276233673095703125" lon="1.33017190732061862945556640625">
        <ele>787.4000244140625</ele>
        <time>2020-08-12T06:01:47.000Z</time>
      </trkpt>
      <trkpt lat="42.315131239593029022216796875" lon="1.3301552273333072662353515625">
        <ele>787.4000244140625</ele>
        <time>2020-08-12T06:01:48.000Z</time>
      </trkpt>
      <trkpt lat="42.31515797786414623260498046875" lon="1.33010284043848514556884765625">
        <ele>788</ele>
        <time>2020-08-12T06:01:51.000Z</time>
      </trkpt>
      <trkpt lat="42.31516853906214237213134765625" lon="1.33008892647922039031982421875">
        <ele>788.20001220703125</ele>
        <time>2020-08-12T06:01:52.000Z</time>
      </trkpt>
      <trkpt lat="42.31519150547683238983154296875" lon="1.3300658762454986572265625">
        <ele>788.4000244140625</ele>
        <time>2020-08-12T06:01:54.000Z</time>
      </trkpt>
      <trkpt lat="42.3152557946741580963134765625" lon="1.32999756373465061187744140625">
        <ele>789.20001220703125</ele>
        <time>2020-08-12T06:01:59.000Z</time>
      </trkpt>
      <trkpt lat="42.31531421653926372528076171875" lon="1.329904608428478240966796875">
        <ele>790.20001220703125</ele>
        <time>2020-08-12T06:02:05.000Z</time>
      </trkpt>
      <trkpt lat="42.3153205029666423797607421875" lon="1.32988641969859600067138671875">
        <ele>790.20001220703125</ele>
        <time>2020-08-12T06:02:06.000Z</time>
      </trkpt>
      <trkpt lat="42.3153248615562915802001953125" lon="1.329868398606777191162109375">
        <ele>790.4000244140625</ele>
        <time>2020-08-12T06:02:07.000Z</time>
      </trkpt>
      <trkpt lat="42.31536534614861011505126953125" lon="1.32974074222147464752197265625">
        <ele>791.4000244140625</ele>
        <time>2020-08-12T06:02:14.000Z</time>
      </trkpt>
      <trkpt lat="42.31538663618266582489013671875" lon="1.32963764481246471405029296875">
        <ele>792.4000244140625</ele>
        <time>2020-08-12T06:02:20.000Z</time>
      </trkpt>
      <trkpt lat="42.31538697145879268646240234375" lon="1.32961568422615528106689453125">
        <ele>792.5999755859375</ele>
        <time>2020-08-12T06:02:21.000Z</time>
      </trkpt>
      <trkpt lat="42.315417230129241943359375" lon="1.32949649356305599212646484375">
        <ele>793.4000244140625</ele>
        <time>2020-08-12T06:02:27.000Z</time>
      </trkpt>
      <trkpt lat="42.31542636640369892120361328125" lon="1.3294538296759128570556640625">
        <ele>793.79998779296875</ele>
        <time>2020-08-12T06:02:29.000Z</time>
      </trkpt>
      <trkpt lat="42.3154480755329132080078125" lon="1.32935919798910617828369140625">
        <ele>794.5999755859375</ele>
        <time>2020-08-12T06:02:34.000Z</time>
      </trkpt>
      <trkpt lat="42.31545872054994106292724609375" lon="1.32931913249194622039794921875">
        <ele>794.79998779296875</ele>
        <time>2020-08-12T06:02:36.000Z</time>
      </trkpt>
      <trkpt lat="42.31547079049050807952880859375" lon="1.32923196069896221160888671875">
        <ele>795.4000244140625</ele>
        <time>2020-08-12T06:02:40.000Z</time>
      </trkpt>
      <trkpt lat="42.31548587791621685028076171875" lon="1.329171024262905120849609375">
        <ele>795.79998779296875</ele>
        <time>2020-08-12T06:02:43.000Z</time>
      </trkpt>
      <trkpt lat="42.315513789653778076171875" lon="1.32905761711299419403076171875">
        <ele>797</ele>
        <time>2020-08-12T06:02:49.000Z</time>
      </trkpt>
      <trkpt lat="42.31553449295461177825927734375" lon="1.3289328105747699737548828125">
        <ele>798</ele>
        <time>2020-08-12T06:02:55.000Z</time>
      </trkpt>
      <trkpt lat="42.31554119847714900970458984375" lon="1.32889173924922943115234375">
        <ele>798.4000244140625</ele>
        <time>2020-08-12T06:02:57.000Z</time>
      </trkpt>
      <trkpt lat="42.3155592195689678192138671875" lon="1.3288154639303684234619140625">
        <ele>799</ele>
        <time>2020-08-12T06:03:01.000Z</time>
      </trkpt>
      <trkpt lat="42.31556483544409275054931640625" lon="1.32879710756242275238037109375">
        <ele>799.20001220703125</ele>
        <time>2020-08-12T06:03:02.000Z</time>
      </trkpt>
      <trkpt lat="42.3155733011662960052490234375" lon="1.32875855080783367156982421875">
        <ele>799.4000244140625</ele>
        <time>2020-08-12T06:03:04.000Z</time>
      </trkpt>
      <trkpt lat="42.31558981351554393768310546875" lon="1.32872284390032291412353515625">
        <ele>800</ele>
        <time>2020-08-12T06:03:09.000Z</time>
      </trkpt>
      <trkpt lat="42.3155924119055271148681640625" lon="1.32872435264289379119873046875">
        <ele>800.20001220703125</ele>
        <time>2020-08-12T06:03:11.000Z</time>
      </trkpt>
      <trkpt lat="42.31559333391487598419189453125" lon="1.32871781475841999053955078125">
        <ele>800</ele>
        <time>2020-08-12T06:03:21.000Z</time>
      </trkpt>
      <trkpt lat="42.31558746658265590667724609375" lon="1.32871597073972225189208984375">
        <ele>800.20001220703125</ele>
        <time>2020-08-12T06:03:32.000Z</time>
      </trkpt>
      <trkpt lat="42.31558620929718017578125" lon="1.328713707625865936279296875">
        <ele>800.4000244140625</ele>
        <time>2020-08-12T06:03:43.000Z</time>
      </trkpt>
      <trkpt lat="42.31558553874492645263671875" lon="1.32871345616877079010009765625">
        <ele>800.20001220703125</ele>
        <time>2020-08-12T06:03:59.000Z</time>
      </trkpt>
      <trkpt lat="42.31558394618332386016845703125" lon="1.32871530018746852874755859375">
        <ele>800.4000244140625</ele>
        <time>2020-08-12T06:04:14.000Z</time>
      </trkpt>
      <trkpt lat="42.3155847005546092987060546875" lon="1.328718401491641998291015625">
        <ele>800.4000244140625</ele>
        <time>2020-08-12T06:04:36.000Z</time>
      </trkpt>
      <trkpt lat="42.315585203468799591064453125" lon="1.3287185691297054290771484375">
        <ele>800.4000244140625</ele>
        <time>2020-08-12T06:05:04.000Z</time>
      </trkpt>
      <trkpt lat="42.31558176688849925994873046875" lon="1.328717060387134552001953125">
        <ele>800.5999755859375</ele>
        <time>2020-08-12T06:05:19.000Z</time>
      </trkpt>
      <trkpt lat="42.3155793361365795135498046875" lon="1.3287085108458995819091796875">
        <ele>800.5999755859375</ele>
        <time>2020-08-12T06:05:37.000Z</time>
      </trkpt>
      <trkpt lat="42.31558981351554393768310546875" lon="1.328687556087970733642578125">
        <ele>800.5999755859375</ele>
        <time>2020-08-12T06:05:58.000Z</time>
      </trkpt>
      <trkpt lat="42.31564681045711040496826171875" lon="1.32864321582019329071044921875">
        <ele>801</ele>
        <time>2020-08-12T06:06:04.000Z</time>
      </trkpt>
      <trkpt lat="42.315658293664455413818359375" lon="1.32863634265959262847900390625">
        <ele>801</ele>
        <time>2020-08-12T06:06:05.000Z</time>
      </trkpt>
      <trkpt lat="42.3157248459756374359130859375" lon="1.32860516197979450225830078125">
        <ele>801.5999755859375</ele>
        <time>2020-08-12T06:06:10.000Z</time>
      </trkpt>
      <trkpt lat="42.315765917301177978515625" lon="1.3285839557647705078125">
        <ele>802</ele>
        <time>2020-08-12T06:06:13.000Z</time>
      </trkpt>
      <trkpt lat="42.31582132168114185333251953125" lon="1.3285584747791290283203125">
        <ele>802.79998779296875</ele>
        <time>2020-08-12T06:06:17.000Z</time>
      </trkpt>
      <trkpt lat="42.31584982015192508697509765625" lon="1.328549422323703765869140625">
        <ele>802.79998779296875</ele>
        <time>2020-08-12T06:06:19.000Z</time>
      </trkpt>
      <trkpt lat="42.31593179516494274139404296875" lon="1.3285075128078460693359375">
        <ele>803.79998779296875</ele>
        <time>2020-08-12T06:06:25.000Z</time>
      </trkpt>
      <trkpt lat="42.3159457929432392120361328125" lon="1.3285029865801334381103515625">
        <ele>804</ele>
        <time>2020-08-12T06:06:26.000Z</time>
      </trkpt>
      <trkpt lat="42.31596113182604312896728515625" lon="1.32849887944757938385009765625">
        <ele>804</ele>
        <time>2020-08-12T06:06:27.000Z</time>
      </trkpt>
      <trkpt lat="42.31597445905208587646484375" lon="1.3284925930202007293701171875">
        <ele>804</ele>
        <time>2020-08-12T06:06:28.000Z</time>
      </trkpt>
      <trkpt lat="42.316014356911182403564453125" lon="1.3284404575824737548828125">
        <ele>804.4000244140625</ele>
        <time>2020-08-12T06:06:32.000Z</time>
      </trkpt>
      <trkpt lat="42.31606037355959415435791015625" lon="1.32837097160518169403076171875">
        <ele>805</ele>
        <time>2020-08-12T06:06:37.000Z</time>
      </trkpt>
      <trkpt lat="42.31608065776526927947998046875" lon="1.32834590971469879150390625">
        <ele>805.20001220703125</ele>
        <time>2020-08-12T06:06:39.000Z</time>
      </trkpt>
      <trkpt lat="42.316159196197986602783203125" lon="1.3282659463584423065185546875">
        <ele>806.20001220703125</ele>
        <time>2020-08-12T06:06:46.000Z</time>
      </trkpt>
      <trkpt lat="42.3161709308624267578125" lon="1.32825362496078014373779296875">
        <ele>806.5999755859375</ele>
        <time>2020-08-12T06:06:47.000Z</time>
      </trkpt>
      <trkpt lat="42.31619163416326045989990234375" lon="1.32822931744158267974853515625">
        <ele>806.79998779296875</ele>
        <time>2020-08-12T06:06:49.000Z</time>
      </trkpt>
      <trkpt lat="42.31623035855591297149658203125" lon="1.32818170823156833648681640625">
        <ele>807.4000244140625</ele>
        <time>2020-08-12T06:06:53.000Z</time>
      </trkpt>
      <trkpt lat="42.31631048955023288726806640625" lon="1.328108869493007659912109375">
        <ele>808.4000244140625</ele>
        <time>2020-08-12T06:07:00.000Z</time>
      </trkpt>
      <trkpt lat="42.31635399162769317626953125" lon="1.32807609625160694122314453125">
        <ele>809.20001220703125</ele>
        <time>2020-08-12T06:07:04.000Z</time>
      </trkpt>
      <trkpt lat="42.31636463664472103118896484375" lon="1.3280637748539447784423828125">
        <ele>809.4000244140625</ele>
        <time>2020-08-12T06:07:05.000Z</time>
      </trkpt>
      <trkpt lat="42.31638626195490360260009765625" lon="1.32804147899150848388671875">
        <ele>809.79998779296875</ele>
        <time>2020-08-12T06:07:07.000Z</time>
      </trkpt>
      <trkpt lat="42.31642213650047779083251953125" lon="1.3280124776065349578857421875">
        <ele>810</ele>
        <time>2020-08-12T06:07:10.000Z</time>
      </trkpt>
      <trkpt lat="42.3164302669465541839599609375" lon="1.3279952108860015869140625">
        <ele>810.20001220703125</ele>
        <time>2020-08-12T06:07:11.000Z</time>
      </trkpt>
      <trkpt lat="42.316470332443714141845703125" lon="1.3279061950743198394775390625">
        <ele>811</ele>
        <time>2020-08-12T06:07:16.000Z</time>
      </trkpt>
      <trkpt lat="42.3164889402687549591064453125" lon="1.32787291891872882843017578125">
        <ele>811.4000244140625</ele>
        <time>2020-08-12T06:07:18.000Z</time>
      </trkpt>
      <trkpt lat="42.31656312011182308197021484375" lon="1.3277556560933589935302734375">
        <ele>812.20001220703125</ele>
        <time>2020-08-12T06:07:25.000Z</time>
      </trkpt>
      <trkpt lat="42.3166049458086490631103515625" lon="1.3276906125247478485107421875">
        <ele>813.20001220703125</ele>
        <time>2020-08-12T06:07:30.000Z</time>
      </trkpt>
      <trkpt lat="42.31661777012050151824951171875" lon="1.32767829112708568572998046875">
        <ele>813.4000244140625</ele>
        <time>2020-08-12T06:07:31.000Z</time>
      </trkpt>
      <trkpt lat="42.31667258776724338531494140625" lon="1.3275928795337677001953125">
        <ele>814.20001220703125</ele>
        <time>2020-08-12T06:07:37.000Z</time>
      </trkpt>
      <trkpt lat="42.3167065344750881195068359375" lon="1.32756547071039676666259765625">
        <ele>814.5999755859375</ele>
        <time>2020-08-12T06:07:40.000Z</time>
      </trkpt>
      <trkpt lat="42.31671835295855998992919921875" lon="1.327554322779178619384765625">
        <ele>814.79998779296875</ele>
        <time>2020-08-12T06:07:41.000Z</time>
      </trkpt>
      <trkpt lat="42.31673444621264934539794921875" lon="1.32751920260488986968994140625">
        <ele>815</ele>
        <time>2020-08-12T06:07:43.000Z</time>
      </trkpt>
      <trkpt lat="42.31674869544804096221923828125" lon="1.3274814002215862274169921875">
        <ele>815.20001220703125</ele>
        <time>2020-08-12T06:07:45.000Z</time>
      </trkpt>
      <trkpt lat="42.31675623916089534759521484375" lon="1.3274653069674968719482421875">
        <ele>815.4000244140625</ele>
        <time>2020-08-12T06:07:46.000Z</time>
      </trkpt>
      <trkpt lat="42.31677987612783908843994140625" lon="1.32741945795714855194091796875">
        <ele>815.79998779296875</ele>
        <time>2020-08-12T06:07:49.000Z</time>
      </trkpt>
      <trkpt lat="42.3167886771261692047119140625" lon="1.32740051485598087310791015625">
        <ele>815.79998779296875</ele>
        <time>2020-08-12T06:07:50.000Z</time>
      </trkpt>
      <trkpt lat="42.3168403096497058868408203125" lon="1.32727763615548610687255859375">
        <ele>817</ele>
        <time>2020-08-12T06:07:57.000Z</time>
      </trkpt>
      <trkpt lat="42.316846512258052825927734375" lon="1.32726221345365047454833984375">
        <ele>817</ele>
        <time>2020-08-12T06:07:58.000Z</time>
      </trkpt>
      <trkpt lat="42.31690158136188983917236328125" lon="1.3271531648933887481689453125">
        <ele>818</ele>
        <time>2020-08-12T06:08:05.000Z</time>
      </trkpt>
      <trkpt lat="42.31691063381731510162353515625" lon="1.3271369040012359619140625">
        <ele>818.20001220703125</ele>
        <time>2020-08-12T06:08:06.000Z</time>
      </trkpt>
      <trkpt lat="42.31695086695253849029541015625" lon="1.32701947353780269622802734375">
        <ele>819.4000244140625</ele>
        <time>2020-08-12T06:08:13.000Z</time>
      </trkpt>
      <trkpt lat="42.317014820873737335205078125" lon="1.32691922597587108612060546875">
        <ele>820.4000244140625</ele>
        <time>2020-08-12T06:08:20.000Z</time>
      </trkpt>
      <trkpt lat="42.317090928554534912109375" lon="1.3268661685287952423095703125">
        <ele>821.5999755859375</ele>
        <time>2020-08-12T06:08:26.000Z</time>
      </trkpt>
      <trkpt lat="42.3171056807041168212890625" lon="1.326863653957843780517578125">
        <ele>821.79998779296875</ele>
        <time>2020-08-12T06:08:27.000Z</time>
      </trkpt>
      <trkpt lat="42.3171968758106231689453125" lon="1.32683859206736087799072265625">
        <ele>822.79998779296875</ele>
        <time>2020-08-12T06:08:33.000Z</time>
      </trkpt>
      <trkpt lat="42.31728605926036834716796875" lon="1.32686373777687549591064453125">
        <ele>824</ele>
        <time>2020-08-12T06:08:39.000Z</time>
      </trkpt>
      <trkpt lat="42.3173164017498493194580078125" lon="1.32686742581427097320556640625">
        <ele>824.4000244140625</ele>
        <time>2020-08-12T06:08:41.000Z</time>
      </trkpt>
      <trkpt lat="42.31740566901862621307373046875" lon="1.32686675526201725006103515625">
        <ele>825.20001220703125</ele>
        <time>2020-08-12T06:08:47.000Z</time>
      </trkpt>
      <trkpt lat="42.317437268793582916259765625" lon="1.32686424069106578826904296875">
        <ele>825.4000244140625</ele>
        <time>2020-08-12T06:08:49.000Z</time>
      </trkpt>
      <trkpt lat="42.31751463375985622406005859375" lon="1.32685837335884571075439453125">
        <ele>826.4000244140625</ele>
        <time>2020-08-12T06:08:54.000Z</time>
      </trkpt>
      <trkpt lat="42.3175621591508388519287109375" lon="1.32684848271310329437255859375">
        <ele>827</ele>
        <time>2020-08-12T06:08:57.000Z</time>
      </trkpt>
      <trkpt lat="42.317623011767864227294921875" lon="1.32681897841393947601318359375">
        <ele>827.4000244140625</ele>
        <time>2020-08-12T06:09:01.000Z</time>
      </trkpt>
      <trkpt lat="42.31765444390475749969482421875" lon="1.32681160233914852142333984375">
        <ele>827.79998779296875</ele>
        <time>2020-08-12T06:09:03.000Z</time>
      </trkpt>
      <trkpt lat="42.31774798594415187835693359375" lon="1.32683658041059970855712890625">
        <ele>828.4000244140625</ele>
        <time>2020-08-12T06:09:09.000Z</time>
      </trkpt>
      <trkpt lat="42.317763157188892364501953125" lon="1.3268420286476612091064453125">
        <ele>828.79998779296875</ele>
        <time>2020-08-12T06:09:10.000Z</time>
      </trkpt>
      <trkpt lat="42.31785762123763561248779296875" lon="1.3268658332526683807373046875">
        <ele>829.5999755859375</ele>
        <time>2020-08-12T06:09:16.000Z</time>
      </trkpt>
      <trkpt lat="42.3178726248443126678466796875" lon="1.3268740475177764892578125">
        <ele>829.79998779296875</ele>
        <time>2020-08-12T06:09:17.000Z</time>
      </trkpt>
      <trkpt lat="42.31794831342995166778564453125" lon="1.32690447382628917694091796875">
        <ele>830.5999755859375</ele>
        <time>2020-08-12T06:09:22.000Z</time>
      </trkpt>
      <trkpt lat="42.31797949410974979400634765625" lon="1.32690816186368465423583984375">
        <ele>830.79998779296875</ele>
        <time>2020-08-12T06:09:24.000Z</time>
      </trkpt>
      <trkpt lat="42.3180610500276088714599609375" lon="1.32691620849072933197021484375">
        <ele>831.79998779296875</ele>
        <time>2020-08-12T06:09:29.000Z</time>
      </trkpt>
      <trkpt lat="42.3180768080055713653564453125" lon="1.32691067643463611602783203125">
        <ele>832</ele>
        <time>2020-08-12T06:09:30.000Z</time>
      </trkpt>
      <trkpt lat="42.31816808693110942840576171875" lon="1.32685124874114990234375">
        <ele>832.79998779296875</ele>
        <time>2020-08-12T06:09:37.000Z</time>
      </trkpt>
      <trkpt lat="42.31817915104329586029052734375" lon="1.32683959789574146270751953125">
        <ele>833.20001220703125</ele>
        <time>2020-08-12T06:09:38.000Z</time>
      </trkpt>
      <trkpt lat="42.31819398701190948486328125" lon="1.32680590264499187469482421875">
        <ele>833.5999755859375</ele>
        <time>2020-08-12T06:09:40.000Z</time>
      </trkpt>
      <trkpt lat="42.31820194981992244720458984375" lon="1.32674756459891796112060546875">
        <ele>833.79998779296875</ele>
        <time>2020-08-12T06:09:43.000Z</time>
      </trkpt>
      <trkpt lat="42.318219132721424102783203125" lon="1.32671420462429523468017578125">
        <ele>834.20001220703125</ele>
        <time>2020-08-12T06:09:45.000Z</time>
      </trkpt>
      <trkpt lat="42.3182571865618228912353515625" lon="1.32663021795451641082763671875">
        <ele>835.20001220703125</ele>
        <time>2020-08-12T06:09:50.000Z</time>
      </trkpt>
      <trkpt lat="42.31830135919153690338134765625" lon="1.326537430286407470703125">
        <ele>836.4000244140625</ele>
        <time>2020-08-12T06:09:56.000Z</time>
      </trkpt>
      <trkpt lat="42.31831468641757965087890625" lon="1.32653265260159969329833984375">
        <ele>836.4000244140625</ele>
        <time>2020-08-12T06:09:57.000Z</time>
      </trkpt>
      <trkpt lat="42.31836003251373767852783203125" lon="1.326484121382236480712890625">
        <ele>837.4000244140625</ele>
        <time>2020-08-12T06:10:01.000Z</time>
      </trkpt>
      <trkpt lat="42.3183684982359409332275390625" lon="1.32646811194717884063720703125">
        <ele>837.4000244140625</ele>
        <time>2020-08-12T06:10:02.000Z</time>
      </trkpt>
      <trkpt lat="42.3184308595955371856689453125" lon="1.32639049552381038665771484375">
        <ele>838.4000244140625</ele>
        <time>2020-08-12T06:10:08.000Z</time>
      </trkpt>
      <trkpt lat="42.3184402473270893096923828125" lon="1.3263746537268161773681640625">
        <ele>838.5999755859375</ele>
        <time>2020-08-12T06:10:09.000Z</time>
      </trkpt>
      <trkpt lat="42.31846748851239681243896484375" lon="1.32627516053617000579833984375">
        <ele>839.5999755859375</ele>
        <time>2020-08-12T06:10:14.000Z</time>
      </trkpt>
      <trkpt lat="42.318475283682346343994140625" lon="1.3262579776346683502197265625">
        <ele>839.79998779296875</ele>
        <time>2020-08-12T06:10:15.000Z</time>
      </trkpt>
      <trkpt lat="42.31852482073009014129638671875" lon="1.32613702677190303802490234375">
        <ele>840.5999755859375</ele>
        <time>2020-08-12T06:10:22.000Z</time>
      </trkpt>
      <trkpt lat="42.3185299336910247802734375" lon="1.32611791603267192840576171875">
        <ele>841</ele>
        <time>2020-08-12T06:10:23.000Z</time>
      </trkpt>
      <trkpt lat="42.318562455475330352783203125" lon="1.3260345160961151123046875">
        <ele>841.79998779296875</ele>
        <time>2020-08-12T06:10:28.000Z</time>
      </trkpt>
      <trkpt lat="42.31857544742524623870849609375" lon="1.3260021619498729705810546875">
        <ele>842.20001220703125</ele>
        <time>2020-08-12T06:10:30.000Z</time>
      </trkpt>
      <trkpt lat="42.31859154067933559417724609375" lon="1.32588741369545459747314453125">
        <ele>843</ele>
        <time>2020-08-12T06:10:36.000Z</time>
      </trkpt>
      <trkpt lat="42.31859724037349224090576171875" lon="1.32586888968944549560546875">
        <ele>843.20001220703125</ele>
        <time>2020-08-12T06:10:37.000Z</time>
      </trkpt>
      <trkpt lat="42.31862976215779781341552734375" lon="1.3257778622210025787353515625">
        <ele>844.20001220703125</ele>
        <time>2020-08-12T06:10:42.000Z</time>
      </trkpt>
      <trkpt lat="42.3186306841671466827392578125" lon="1.32573620416224002838134765625">
        <ele>844.5999755859375</ele>
        <time>2020-08-12T06:10:44.000Z</time>
      </trkpt>
      <trkpt lat="42.31863361783325672149658203125" lon="1.3256756030023097991943359375">
        <ele>845.20001220703125</ele>
        <time>2020-08-12T06:10:47.000Z</time>
      </trkpt>
      <trkpt lat="42.31866605579853057861328125" lon="1.3255867548286914825439453125">
        <ele>845.5999755859375</ele>
        <time>2020-08-12T06:10:52.000Z</time>
      </trkpt>
      <trkpt lat="42.31867535971105098724365234375" lon="1.3255280815064907073974609375">
        <ele>846.20001220703125</ele>
        <time>2020-08-12T06:10:55.000Z</time>
      </trkpt>
      <trkpt lat="42.3186917044222354888916015625" lon="1.32549631409347057342529296875">
        <ele>846.5999755859375</ele>
        <time>2020-08-12T06:10:57.000Z</time>
      </trkpt>
      <trkpt lat="42.31871140189468860626220703125" lon="1.3254660554230213165283203125">
        <ele>846.79998779296875</ele>
        <time>2020-08-12T06:10:59.000Z</time>
      </trkpt>
      <trkpt lat="42.31873311102390289306640625" lon="1.3254122436046600341796875">
        <ele>847.20001220703125</ele>
        <time>2020-08-12T06:11:02.000Z</time>
      </trkpt>
      <trkpt lat="42.31877066195011138916015625" lon="1.3253061287105083465576171875">
        <ele>848.20001220703125</ele>
        <time>2020-08-12T06:11:08.000Z</time>
      </trkpt>
      <trkpt lat="42.3187775351107120513916015625" lon="1.32528978399932384490966796875">
        <ele>848.4000244140625</ele>
        <time>2020-08-12T06:11:09.000Z</time>
      </trkpt>
      <trkpt lat="42.31880008243024349212646484375" lon="1.325244270265102386474609375">
        <ele>848.79998779296875</ele>
        <time>2020-08-12T06:11:12.000Z</time>
      </trkpt>
      <trkpt lat="42.31880796141922473907470703125" lon="1.32518685422837734222412109375">
        <ele>849.4000244140625</ele>
        <time>2020-08-12T06:11:15.000Z</time>
      </trkpt>
      <trkpt lat="42.3188137449324131011962890625" lon="1.32516841404139995574951171875">
        <ele>849.4000244140625</ele>
        <time>2020-08-12T06:11:16.000Z</time>
      </trkpt>
      <trkpt lat="42.31885624118149280548095703125" lon="1.32506364025175571441650390625">
        <ele>850.20001220703125</ele>
        <time>2020-08-12T06:11:22.000Z</time>
      </trkpt>
      <trkpt lat="42.31887049041688442230224609375" lon="1.32500379346311092376708984375">
        <ele>850.5999755859375</ele>
        <time>2020-08-12T06:11:25.000Z</time>
      </trkpt>
      <trkpt lat="42.31890150345861911773681640625" lon="1.3249172084033489227294921875">
        <ele>851.5999755859375</ele>
        <time>2020-08-12T06:11:30.000Z</time>
      </trkpt>
      <trkpt lat="42.318909130990505218505859375" lon="1.32489985786378383636474609375">
        <ele>851.5999755859375</ele>
        <time>2020-08-12T06:11:31.000Z</time>
      </trkpt>
      <trkpt lat="42.31895799748599529266357421875" lon="1.32478083483874797821044921875">
        <ele>852.4000244140625</ele>
        <time>2020-08-12T06:11:38.000Z</time>
      </trkpt>
      <trkpt lat="42.3189676366746425628662109375" lon="1.32476641796529293060302734375">
        <ele>852.5999755859375</ele>
        <time>2020-08-12T06:11:39.000Z</time>
      </trkpt>
      <trkpt lat="42.31902681291103363037109375" lon="1.32468008436262607574462890625">
        <ele>853.5999755859375</ele>
        <time>2020-08-12T06:11:45.000Z</time>
      </trkpt>
      <trkpt lat="42.31903620064258575439453125" lon="1.3246664218604564666748046875">
        <ele>853.5999755859375</ele>
        <time>2020-08-12T06:11:46.000Z</time>
      </trkpt>
      <trkpt lat="42.31908389367163181304931640625" lon="1.32459475658833980560302734375">
        <ele>854.4000244140625</ele>
        <time>2020-08-12T06:11:51.000Z</time>
      </trkpt>
      <trkpt lat="42.31909210793673992156982421875" lon="1.3245780766010284423828125">
        <ele>854.79998779296875</ele>
        <time>2020-08-12T06:11:52.000Z</time>
      </trkpt>
      <trkpt lat="42.319133765995502471923828125" lon="1.32447145879268646240234375">
        <ele>855.79998779296875</ele>
        <time>2020-08-12T06:11:58.000Z</time>
      </trkpt>
      <trkpt lat="42.3191892541944980621337890625" lon="1.3243566267192363739013671875">
        <ele>856.79998779296875</ele>
        <time>2020-08-12T06:12:05.000Z</time>
      </trkpt>
      <trkpt lat="42.31919654645025730133056640625" lon="1.32433877326548099517822265625">
        <ele>856.79998779296875</ele>
        <time>2020-08-12T06:12:06.000Z</time>
      </trkpt>
      <trkpt lat="42.31922320090234279632568359375" lon="1.324218995869159698486328125">
        <ele>857.79998779296875</ele>
        <time>2020-08-12T06:12:12.000Z</time>
      </trkpt>
      <trkpt lat="42.3192308284342288970947265625" lon="1.32418069057166576385498046875">
        <ele>858.4000244140625</ele>
        <time>2020-08-12T06:12:14.000Z</time>
      </trkpt>
      <trkpt lat="42.31923602521419525146484375" lon="1.32407926954329013824462890625">
        <ele>859</ele>
        <time>2020-08-12T06:12:19.000Z</time>
      </trkpt>
      <trkpt lat="42.31924231164157390594482421875" lon="1.32401950657367706298828125">
        <ele>859.4000244140625</ele>
        <time>2020-08-12T06:12:22.000Z</time>
      </trkpt>
      <trkpt lat="42.31927298940718173980712890625" lon="1.323905847966670989990234375">
        <ele>860</ele>
        <time>2020-08-12T06:12:28.000Z</time>
      </trkpt>
      <trkpt lat="42.31929176487028598785400390625" lon="1.32385329343378543853759765625">
        <ele>860.4000244140625</ele>
        <time>2020-08-12T06:12:31.000Z</time>
      </trkpt>
      <trkpt lat="42.31930039823055267333984375" lon="1.323837451636791229248046875">
        <ele>860.5999755859375</ele>
        <time>2020-08-12T06:12:32.000Z</time>
      </trkpt>
      <trkpt lat="42.31932948343455791473388671875" lon="1.323788501322269439697265625">
        <ele>861</ele>
        <time>2020-08-12T06:12:35.000Z</time>
      </trkpt>
      <trkpt lat="42.3193542100489139556884765625" lon="1.3237641938030719757080078125">
        <ele>861.4000244140625</ele>
        <time>2020-08-12T06:12:37.000Z</time>
      </trkpt>
      <trkpt lat="42.3194001428782939910888671875" lon="1.32375572808086872100830078125">
        <ele>862.20001220703125</ele>
        <time>2020-08-12T06:12:40.000Z</time>
      </trkpt>
      <trkpt lat="42.31945487670600414276123046875" lon="1.323783807456493377685546875">
        <ele>862.79998779296875</ele>
        <time>2020-08-12T06:12:44.000Z</time>
      </trkpt>
      <trkpt lat="42.3194739036262035369873046875" lon="1.32383837364614009857177734375">
        <ele>863.4000244140625</ele>
        <time>2020-08-12T06:12:47.000Z</time>
      </trkpt>
      <trkpt lat="42.31949762441217899322509765625" lon="1.323918588459491729736328125">
        <ele>864</ele>
        <time>2020-08-12T06:12:51.000Z</time>
      </trkpt>
      <trkpt lat="42.31951422058045864105224609375" lon="1.3239772617816925048828125">
        <ele>864.5999755859375</ele>
        <time>2020-08-12T06:12:54.000Z</time>
      </trkpt>
      <trkpt lat="42.31955730356276035308837890625" lon="1.324064433574676513671875">
        <ele>865.4000244140625</ele>
        <time>2020-08-12T06:12:59.000Z</time>
      </trkpt>
      <trkpt lat="42.31956853531301021575927734375" lon="1.32407876662909984588623046875">
        <ele>865.79998779296875</ele>
        <time>2020-08-12T06:13:00.000Z</time>
      </trkpt>
      <trkpt lat="42.31959275901317596435546875" lon="1.324107013642787933349609375">
        <ele>866.20001220703125</ele>
        <time>2020-08-12T06:13:04.000Z</time>
      </trkpt>
      <trkpt lat="42.319596111774444580078125" lon="1.32410667836666107177734375">
        <ele>866.4000244140625</ele>
        <time>2020-08-12T06:13:08.000Z</time>
      </trkpt>
      <trkpt lat="42.31959619559347629547119140625" lon="1.32410860620439052581787109375">
        <ele>866.5999755859375</ele>
        <time>2020-08-12T06:13:36.000Z</time>
      </trkpt>
      <trkpt lat="42.319601811468601226806640625" lon="1.32411028258502483367919921875">
        <ele>866.5999755859375</ele>
        <time>2020-08-12T06:13:39.000Z</time>
      </trkpt>
      <trkpt lat="42.31963542290031909942626953125" lon="1.32412277162075042724609375">
        <ele>866.79998779296875</ele>
        <time>2020-08-12T06:13:42.000Z</time>
      </trkpt>
      <trkpt lat="42.31973617337644100189208984375" lon="1.3241735659539699554443359375">
        <ele>867.5999755859375</ele>
        <time>2020-08-12T06:13:50.000Z</time>
      </trkpt>
      <trkpt lat="42.3197491653263568878173828125" lon="1.324178092181682586669921875">
        <ele>867.79998779296875</ele>
        <time>2020-08-12T06:13:51.000Z</time>
      </trkpt>
      <trkpt lat="42.31986307539045810699462890625" lon="1.324224360287189483642578125">
        <ele>868.5999755859375</ele>
        <time>2020-08-12T06:14:00.000Z</time>
      </trkpt>
      <trkpt lat="42.31992560438811779022216796875" lon="1.3242409564554691314697265625">
        <ele>869.5999755859375</ele>
        <time>2020-08-12T06:14:05.000Z</time>
      </trkpt>
      <trkpt lat="42.31993817724287509918212890625" lon="1.32424556650221347808837890625">
        <ele>869.5999755859375</ele>
        <time>2020-08-12T06:14:06.000Z</time>
      </trkpt>
      <trkpt lat="42.31995083391666412353515625" lon="1.3242456503212451934814453125">
        <ele>869.79998779296875</ele>
        <time>2020-08-12T06:14:07.000Z</time>
      </trkpt>
      <trkpt lat="42.32001780532300472259521484375" lon="1.32425956428050994873046875">
        <ele>870.5999755859375</ele>
        <time>2020-08-12T06:14:12.000Z</time>
      </trkpt>
      <trkpt lat="42.3200448788702487945556640625" lon="1.32426048628985881805419921875">
        <ele>870.79998779296875</ele>
        <time>2020-08-12T06:14:14.000Z</time>
      </trkpt>
      <trkpt lat="42.3201229982078075408935546875" lon="1.3242443092167377471923828125">
        <ele>871.79998779296875</ele>
        <time>2020-08-12T06:14:20.000Z</time>
      </trkpt>
      <trkpt lat="42.32013599015772342681884765625" lon="1.32423877716064453125">
        <ele>872</ele>
        <time>2020-08-12T06:14:21.000Z</time>
      </trkpt>
      <trkpt lat="42.32015878893435001373291015625" lon="1.3242213428020477294921875">
        <ele>872.20001220703125</ele>
        <time>2020-08-12T06:14:23.000Z</time>
      </trkpt>
      <trkpt lat="42.3202027939260005950927734375" lon="1.32418421097099781036376953125">
        <ele>872.79998779296875</ele>
        <time>2020-08-12T06:14:27.000Z</time>
      </trkpt>
      <trkpt lat="42.3202574439346790313720703125" lon="1.32413886487483978271484375">
        <ele>873.79998779296875</ele>
        <time>2020-08-12T06:14:32.000Z</time>
      </trkpt>
      <trkpt lat="42.32026842422783374786376953125" lon="1.3241078518331050872802734375">
        <ele>874</ele>
        <time>2020-08-12T06:14:34.000Z</time>
      </trkpt>
      <trkpt lat="42.32027445919811725616455078125" lon="1.3240925967693328857421875">
        <ele>874.20001220703125</ele>
        <time>2020-08-12T06:14:35.000Z</time>
      </trkpt>
      <trkpt lat="42.32028367929160594940185546875" lon="1.3240800239145755767822265625">
        <ele>874.4000244140625</ele>
        <time>2020-08-12T06:14:36.000Z</time>
      </trkpt>
      <trkpt lat="42.32032340951263904571533203125" lon="1.32401355542242527008056640625">
        <ele>875.20001220703125</ele>
        <time>2020-08-12T06:14:41.000Z</time>
      </trkpt>
      <trkpt lat="42.32037705369293689727783203125" lon="1.32391548715531826019287109375">
        <ele>876.20001220703125</ele>
        <time>2020-08-12T06:14:48.000Z</time>
      </trkpt>
      <trkpt lat="42.3203825019299983978271484375" lon="1.32389989681541919708251953125">
        <ele>876.4000244140625</ele>
        <time>2020-08-12T06:14:49.000Z</time>
      </trkpt>
      <trkpt lat="42.320423237979412078857421875" lon="1.32378883659839630126953125">
        <ele>877.20001220703125</ele>
        <time>2020-08-12T06:14:56.000Z</time>
      </trkpt>
      <trkpt lat="42.320459447801113128662109375" lon="1.32365967147052288055419921875">
        <ele>878</ele>
        <time>2020-08-12T06:15:04.000Z</time>
      </trkpt>
      <trkpt lat="42.32046523131430149078369140625" lon="1.32364324294030666351318359375">
        <ele>878.20001220703125</ele>
        <time>2020-08-12T06:15:05.000Z</time>
      </trkpt>
      <trkpt lat="42.32048652134835720062255859375" lon="1.3235355354845523834228515625">
        <ele>879.20001220703125</ele>
        <time>2020-08-12T06:15:11.000Z</time>
      </trkpt>
      <trkpt lat="42.3204948194324970245361328125" lon="1.32349857129156589508056640625">
        <ele>879.4000244140625</ele>
        <time>2020-08-12T06:15:13.000Z</time>
      </trkpt>
      <trkpt lat="42.32050739228725433349609375" lon="1.32338583469390869140625">
        <ele>880.20001220703125</ele>
        <time>2020-08-12T06:15:19.000Z</time>
      </trkpt>
      <trkpt lat="42.3205119185149669647216796875" lon="1.323368065059185028076171875">
        <ele>880.4000244140625</ele>
        <time>2020-08-12T06:15:20.000Z</time>
      </trkpt>
      <trkpt lat="42.320514433085918426513671875" lon="1.32335029542446136474609375">
        <ele>880.5999755859375</ele>
        <time>2020-08-12T06:15:21.000Z</time>
      </trkpt>
      <trkpt lat="42.3205189593136310577392578125" lon="1.3232388161122798919677734375">
        <ele>881.4000244140625</ele>
        <time>2020-08-12T06:15:27.000Z</time>
      </trkpt>
      <trkpt lat="42.3205270059406757354736328125" lon="1.3232029415667057037353515625">
        <ele>881.5999755859375</ele>
        <time>2020-08-12T06:15:29.000Z</time>
      </trkpt>
      <trkpt lat="42.3205296881496906280517578125" lon="1.32308609783649444580078125">
        <ele>882.4000244140625</ele>
        <time>2020-08-12T06:15:35.000Z</time>
      </trkpt>
      <trkpt lat="42.320528514683246612548828125" lon="1.32306572981178760528564453125">
        <ele>882.4000244140625</ele>
        <time>2020-08-12T06:15:36.000Z</time>
      </trkpt>
      <trkpt lat="42.32051686383783817291259765625" lon="1.32293011061847209930419921875">
        <ele>883.20001220703125</ele>
        <time>2020-08-12T06:15:43.000Z</time>
      </trkpt>
      <trkpt lat="42.3205146007239818572998046875" lon="1.32291200570762157440185546875">
        <ele>883.4000244140625</ele>
        <time>2020-08-12T06:15:44.000Z</time>
      </trkpt>
      <trkpt lat="42.32049590907990932464599609375" lon="1.32279885001480579376220703125">
        <ele>884.20001220703125</ele>
        <time>2020-08-12T06:15:50.000Z</time>
      </trkpt>
      <trkpt lat="42.3204757086932659149169921875" lon="1.3227251730859279632568359375">
        <ele>884.5999755859375</ele>
        <time>2020-08-12T06:15:54.000Z</time>
      </trkpt>
      <trkpt lat="42.32044612057507038116455078125" lon="1.32267580367624759674072265625">
        <ele>884.79998779296875</ele>
        <time>2020-08-12T06:15:57.000Z</time>
      </trkpt>
      <trkpt lat="42.32040286995470523834228515625" lon="1.32254965603351593017578125">
        <ele>885.4000244140625</ele>
        <time>2020-08-12T06:16:04.000Z</time>
      </trkpt>
      <trkpt lat="42.32039968483150005340576171875" lon="1.32252979092299938201904296875">
        <ele>885.5999755859375</ele>
        <time>2020-08-12T06:16:05.000Z</time>
      </trkpt>
      <trkpt lat="42.32040002010762691497802734375" lon="1.322410516440868377685546875">
        <ele>886.20001220703125</ele>
        <time>2020-08-12T06:16:11.000Z</time>
      </trkpt>
      <trkpt lat="42.3204257525503635406494140625" lon="1.32231554947793483734130859375">
        <ele>886.5999755859375</ele>
        <time>2020-08-12T06:16:16.000Z</time>
      </trkpt>
      <trkpt lat="42.32045282609760761260986328125" lon="1.32224363274872303009033203125">
        <ele>887.20001220703125</ele>
        <time>2020-08-12T06:16:20.000Z</time>
      </trkpt>
      <trkpt lat="42.3204649798572063446044921875" lon="1.32223173044621944427490234375">
        <ele>887.20001220703125</ele>
        <time>2020-08-12T06:16:21.000Z</time>
      </trkpt>
      <trkpt lat="42.32050596736371517181396484375" lon="1.32221027277410030364990234375">
        <ele>887.5999755859375</ele>
        <time>2020-08-12T06:16:24.000Z</time>
      </trkpt>
      <trkpt lat="42.3205308616161346435546875" lon="1.32219082675874233245849609375">
        <ele>888</ele>
        <time>2020-08-12T06:16:26.000Z</time>
      </trkpt>
      <trkpt lat="42.32058961875736713409423828125" lon="1.32217993028461933135986328125">
        <ele>888.79998779296875</ele>
        <time>2020-08-12T06:16:30.000Z</time>
      </trkpt>
      <trkpt lat="42.32064980082213878631591796875" lon="1.32217976264655590057373046875">
        <ele>889.4000244140625</ele>
        <time>2020-08-12T06:16:34.000Z</time>
      </trkpt>
      <trkpt lat="42.3207238130271434783935546875" lon="1.32217305712401866912841796875">
        <ele>889.79998779296875</ele>
        <time>2020-08-12T06:16:39.000Z</time>
      </trkpt>
      <trkpt lat="42.32076513580977916717529296875" lon="1.32214925251901149749755859375">
        <ele>890.5999755859375</ele>
        <time>2020-08-12T06:16:42.000Z</time>
      </trkpt>
      <trkpt lat="42.32079916633665561676025390625" lon="1.32205990143120288848876953125">
        <ele>891</ele>
        <time>2020-08-12T06:16:47.000Z</time>
      </trkpt>
      <trkpt lat="42.32080972753465175628662109375" lon="1.322000138461589813232421875">
        <ele>891.20001220703125</ele>
        <time>2020-08-12T06:16:50.000Z</time>
      </trkpt>
      <trkpt lat="42.320808470249176025390625" lon="1.3218792714178562164306640625">
        <ele>892</ele>
        <time>2020-08-12T06:16:56.000Z</time>
      </trkpt>
      <trkpt lat="42.32087024487555027008056640625" lon="1.3218001462519168853759765625">
        <ele>892.79998779296875</ele>
        <time>2020-08-12T06:17:02.000Z</time>
      </trkpt>
      <trkpt lat="42.32093109749257564544677734375" lon="1.32177726365625858306884765625">
        <ele>893.20001220703125</ele>
        <time>2020-08-12T06:17:06.000Z</time>
      </trkpt>
      <trkpt lat="42.32094593346118927001953125" lon="1.32176871411502361297607421875">
        <ele>893.4000244140625</ele>
        <time>2020-08-12T06:17:07.000Z</time>
      </trkpt>
      <trkpt lat="42.32098524458706378936767578125" lon="1.32173359394073486328125">
        <ele>893.79998779296875</ele>
        <time>2020-08-12T06:17:10.000Z</time>
      </trkpt>
      <trkpt lat="42.3210067860782146453857421875" lon="1.32170652039349079132080078125">
        <ele>894.20001220703125</ele>
        <time>2020-08-12T06:17:12.000Z</time>
      </trkpt>
      <trkpt lat="42.32105045579373836517333984375" lon="1.32162555120885372161865234375">
        <ele>895</ele>
        <time>2020-08-12T06:17:17.000Z</time>
      </trkpt>
      <trkpt lat="42.32105397619307041168212890625" lon="1.3216061890125274658203125">
        <ele>895.20001220703125</ele>
        <time>2020-08-12T06:17:18.000Z</time>
      </trkpt>
      <trkpt lat="42.32105045579373836517333984375" lon="1.32146537303924560546875">
        <ele>895.79998779296875</ele>
        <time>2020-08-12T06:17:25.000Z</time>
      </trkpt>
      <trkpt lat="42.3210404813289642333984375" lon="1.32140544243156909942626953125">
        <ele>896</ele>
        <time>2020-08-12T06:17:28.000Z</time>
      </trkpt>
      <trkpt lat="42.32102497480809688568115234375" lon="1.32128306664526462554931640625">
        <ele>896.79998779296875</ele>
        <time>2020-08-12T06:17:34.000Z</time>
      </trkpt>
      <trkpt lat="42.32101843692362308502197265625" lon="1.321241073310375213623046875">
        <ele>897</ele>
        <time>2020-08-12T06:17:36.000Z</time>
      </trkpt>
      <trkpt lat="42.32099681161344051361083984375" lon="1.32111601531505584716796875">
        <ele>897.4000244140625</ele>
        <time>2020-08-12T06:17:42.000Z</time>
      </trkpt>
      <trkpt lat="42.3209749348461627960205078125" lon="1.32101048715412616729736328125">
        <ele>898.20001220703125</ele>
        <time>2020-08-12T06:17:47.000Z</time>
      </trkpt>
      <trkpt lat="42.32097116298973560333251953125" lon="1.3209892809391021728515625">
        <ele>898.20001220703125</ele>
        <time>2020-08-12T06:17:48.000Z</time>
      </trkpt>
      <trkpt lat="42.3209534771740436553955078125" lon="1.32084234617650508880615234375">
        <ele>899</ele>
        <time>2020-08-12T06:17:55.000Z</time>
      </trkpt>
      <trkpt lat="42.32094618491828441619873046875" lon="1.320804543793201446533203125">
        <ele>899.4000244140625</ele>
        <time>2020-08-12T06:17:57.000Z</time>
      </trkpt>
      <trkpt lat="42.32092707417905330657958984375" lon="1.32068359293043613433837890625">
        <ele>900.20001220703125</ele>
        <time>2020-08-12T06:18:03.000Z</time>
      </trkpt>
      <trkpt lat="42.320919446647167205810546875" lon="1.320661716163158416748046875">
        <ele>900.4000244140625</ele>
        <time>2020-08-12T06:18:04.000Z</time>
      </trkpt>
      <trkpt lat="42.3208891041576862335205078125" lon="1.3205472193658351898193359375">
        <ele>901.4000244140625</ele>
        <time>2020-08-12T06:18:10.000Z</time>
      </trkpt>
      <trkpt lat="42.32085130177438259124755859375" lon="1.3204509951174259185791015625">
        <ele>902.4000244140625</ele>
        <time>2020-08-12T06:18:16.000Z</time>
      </trkpt>
      <trkpt lat="42.32080553658306598663330078125" lon="1.32037396542727947235107421875">
        <ele>903.20001220703125</ele>
        <time>2020-08-12T06:18:21.000Z</time>
      </trkpt>
      <trkpt lat="42.3207938857376575469970703125" lon="1.3203611411154270172119140625">
        <ele>903.4000244140625</ele>
        <time>2020-08-12T06:18:22.000Z</time>
      </trkpt>
      <trkpt lat="42.320708893239498138427734375" lon="1.320253349840641021728515625">
        <ele>904.4000244140625</ele>
        <time>2020-08-12T06:18:29.000Z</time>
      </trkpt>
      <trkpt lat="42.32069573365151882171630859375" lon="1.32023700512945652008056640625">
        <ele>904.5999755859375</ele>
        <time>2020-08-12T06:18:30.000Z</time>
      </trkpt>
      <trkpt lat="42.32062029652297496795654296875" lon="1.32014715112745761871337890625">
        <ele>905.4000244140625</ele>
        <time>2020-08-12T06:18:36.000Z</time>
      </trkpt>
      <trkpt lat="42.32060001231729984283447265625" lon="1.32011697627604007720947265625">
        <ele>905.5999755859375</ele>
        <time>2020-08-12T06:18:38.000Z</time>
      </trkpt>
      <trkpt lat="42.3205373995006084442138671875" lon="1.31999694742262363433837890625">
        <ele>906.4000244140625</ele>
        <time>2020-08-12T06:18:45.000Z</time>
      </trkpt>
      <trkpt lat="42.32049456797540187835693359375" lon="1.31987960077822208404541015625">
        <ele>907.4000244140625</ele>
        <time>2020-08-12T06:18:51.000Z</time>
      </trkpt>
      <trkpt lat="42.32048903591930866241455078125" lon="1.319858394563198089599609375">
        <ele>907.5999755859375</ele>
        <time>2020-08-12T06:18:52.000Z</time>
      </trkpt>
      <trkpt lat="42.32047948054969310760498046875" lon="1.3197071850299835205078125">
        <ele>908.4000244140625</ele>
        <time>2020-08-12T06:18:59.000Z</time>
      </trkpt>
      <trkpt lat="42.320476882159709930419921875" lon="1.319682039320468902587890625">
        <ele>908.5999755859375</ele>
        <time>2020-08-12T06:19:00.000Z</time>
      </trkpt>
      <trkpt lat="42.3204691708087921142578125" lon="1.3195833005011081695556640625">
        <ele>909.5999755859375</ele>
        <time>2020-08-12T06:19:05.000Z</time>
      </trkpt>
      <trkpt lat="42.32045508921146392822265625" lon="1.31954600103199481964111328125">
        <ele>910</ele>
        <time>2020-08-12T06:19:07.000Z</time>
      </trkpt>
      <trkpt lat="42.32040270231664180755615234375" lon="1.31947358138859272003173828125">
        <ele>910.5999755859375</ele>
        <time>2020-08-12T06:19:12.000Z</time>
      </trkpt>
      <trkpt lat="42.32037504203617572784423828125" lon="1.31945078261196613311767578125">
        <ele>910.79998779296875</ele>
        <time>2020-08-12T06:19:14.000Z</time>
      </trkpt>
      <trkpt lat="42.3203479684889316558837890625" lon="1.31942949257791042327880859375">
        <ele>911</ele>
        <time>2020-08-12T06:19:16.000Z</time>
      </trkpt>
      <trkpt lat="42.32028837315738201141357421875" lon="1.3194052688777446746826171875">
        <ele>911.5999755859375</ele>
        <time>2020-08-12T06:19:20.000Z</time>
      </trkpt>
      <trkpt lat="42.32020455412566661834716796875" lon="1.3193325139582157135009765625">
        <ele>912.79998779296875</ele>
        <time>2020-08-12T06:19:26.000Z</time>
      </trkpt>
      <trkpt lat="42.3201628960669040679931640625" lon="1.31929940544068813323974609375">
        <ele>913.20001220703125</ele>
        <time>2020-08-12T06:19:29.000Z</time>
      </trkpt>
      <trkpt lat="42.32010112144052982330322265625" lon="1.3192336075007915496826171875">
        <ele>914</ele>
        <time>2020-08-12T06:19:34.000Z</time>
      </trkpt>
      <trkpt lat="42.320089638233184814453125" lon="1.31921776570379734039306640625">
        <ele>914.20001220703125</ele>
        <time>2020-08-12T06:19:35.000Z</time>
      </trkpt>
      <trkpt lat="42.3200700245797634124755859375" lon="1.31913377903401851654052734375">
        <ele>915</ele>
        <time>2020-08-12T06:19:40.000Z</time>
      </trkpt>
      <trkpt lat="42.320072539150714874267578125" lon="1.31911919452250003814697265625">
        <ele>915</ele>
        <time>2020-08-12T06:19:41.000Z</time>
      </trkpt>
      <trkpt lat="42.320073880255222320556640625" lon="1.31910293363034725189208984375">
        <ele>915.20001220703125</ele>
        <time>2020-08-12T06:19:42.000Z</time>
      </trkpt>
      <trkpt lat="42.32010715641081333160400390625" lon="1.318996734917163848876953125">
        <ele>916</ele>
        <time>2020-08-12T06:19:48.000Z</time>
      </trkpt>
      <trkpt lat="42.320114783942699432373046875" lon="1.3189848326146602630615234375">
        <ele>916.20001220703125</ele>
        <time>2020-08-12T06:19:49.000Z</time>
      </trkpt>
      <trkpt lat="42.3201810009777545928955078125" lon="1.3189025223255157470703125">
        <ele>917.4000244140625</ele>
        <time>2020-08-12T06:19:55.000Z</time>
      </trkpt>
      <trkpt lat="42.3201955854892730712890625" lon="1.3188976608216762542724609375">
        <ele>917.5999755859375</ele>
        <time>2020-08-12T06:19:56.000Z</time>
      </trkpt>
      <trkpt lat="42.32025199569761753082275390625" lon="1.31887913681566715240478515625">
        <ele>918.4000244140625</ele>
        <time>2020-08-12T06:20:00.000Z</time>
      </trkpt>
      <trkpt lat="42.32028485275804996490478515625" lon="1.31887846626341342926025390625">
        <ele>919</ele>
        <time>2020-08-12T06:20:02.000Z</time>
      </trkpt>
      <trkpt lat="42.320349477231502532958984375" lon="1.31886438466608524322509765625">
        <ele>919.5999755859375</ele>
        <time>2020-08-12T06:20:06.000Z</time>
      </trkpt>
      <trkpt lat="42.3204270936548709869384765625" lon="1.31885281763970851898193359375">
        <ele>920.5999755859375</ele>
        <time>2020-08-12T06:20:11.000Z</time>
      </trkpt>
      <trkpt lat="42.3205219767987728118896484375" lon="1.318829767405986785888671875">
        <ele>921.79998779296875</ele>
        <time>2020-08-12T06:20:17.000Z</time>
      </trkpt>
      <trkpt lat="42.32055257074534893035888671875" lon="1.31882431916892528533935546875">
        <ele>922</ele>
        <time>2020-08-12T06:20:19.000Z</time>
      </trkpt>
      <trkpt lat="42.32062918134033679962158203125" lon="1.31880202330648899078369140625">
        <ele>922.79998779296875</ele>
        <time>2020-08-12T06:20:24.000Z</time>
      </trkpt>
      <trkpt lat="42.32071735896170139312744140625" lon="1.3187819905579090118408203125">
        <ele>923.4000244140625</ele>
        <time>2020-08-12T06:20:30.000Z</time>
      </trkpt>
      <trkpt lat="42.32074837200343608856201171875" lon="1.318782158195972442626953125">
        <ele>923.79998779296875</ele>
        <time>2020-08-12T06:20:32.000Z</time>
      </trkpt>
      <trkpt lat="42.3208401538431644439697265625" lon="1.31877989508211612701416015625">
        <ele>925</ele>
        <time>2020-08-12T06:20:38.000Z</time>
      </trkpt>
      <trkpt lat="42.320946268737316131591796875" lon="1.318752653896808624267578125">
        <ele>926</ele>
        <time>2020-08-12T06:20:45.000Z</time>
      </trkpt>
      <trkpt lat="42.32097501866519451141357421875" lon="1.3187370635569095611572265625">
        <ele>926.4000244140625</ele>
        <time>2020-08-12T06:20:47.000Z</time>
      </trkpt>
      <trkpt lat="42.32104123570024967193603515625" lon="1.3186928071081638336181640625">
        <ele>927</ele>
        <time>2020-08-12T06:20:52.000Z</time>
      </trkpt>
      <trkpt lat="42.32108004391193389892578125" lon="1.31865777075290679931640625">
        <ele>927.5999755859375</ele>
        <time>2020-08-12T06:20:55.000Z</time>
      </trkpt>
      <trkpt lat="42.32108951546251773834228515625" lon="1.31864427588880062103271484375">
        <ele>927.79998779296875</ele>
        <time>2020-08-12T06:20:57.000Z</time>
      </trkpt>
      <trkpt lat="42.32109479606151580810546875" lon="1.3186384923756122589111328125">
        <ele>928.20001220703125</ele>
        <time>2020-08-12T06:21:30.000Z</time>
      </trkpt>
      <trkpt lat="42.32109923847019672393798828125" lon="1.31862415932118892669677734375">
        <ele>928.20001220703125</ele>
        <time>2020-08-12T06:21:31.000Z</time>
      </trkpt>
      <trkpt lat="42.32113008387386798858642578125" lon="1.31848317570984363555908203125">
        <ele>929.20001220703125</ele>
        <time>2020-08-12T06:21:38.000Z</time>
      </trkpt>
      <trkpt lat="42.321134693920612335205078125" lon="1.31846121512353420257568359375">
        <ele>929.4000244140625</ele>
        <time>2020-08-12T06:21:39.000Z</time>
      </trkpt>
      <trkpt lat="42.3211750946938991546630859375" lon="1.318320818245410919189453125">
        <ele>930.20001220703125</ele>
        <time>2020-08-12T06:21:46.000Z</time>
      </trkpt>
      <trkpt lat="42.32118238694965839385986328125" lon="1.31830237805843353271484375">
        <ele>930.5999755859375</ele>
        <time>2020-08-12T06:21:47.000Z</time>
      </trkpt>
      <trkpt lat="42.3211942054331302642822265625" lon="1.31823934614658355712890625">
        <ele>931</ele>
        <time>2020-08-12T06:21:50.000Z</time>
      </trkpt>
      <trkpt lat="42.32120082713663578033447265625" lon="1.3182173855602741241455078125">
        <ele>931.20001220703125</ele>
        <time>2020-08-12T06:21:51.000Z</time>
      </trkpt>
      <trkpt lat="42.3212287388741970062255859375" lon="1.3181043975055217742919921875">
        <ele>931.4000244140625</ele>
        <time>2020-08-12T06:21:56.000Z</time>
      </trkpt>
      <trkpt lat="42.3212414793670177459716796875" lon="1.3180621527135372161865234375">
        <ele>931.79998779296875</ele>
        <time>2020-08-12T06:21:58.000Z</time>
      </trkpt>
      <trkpt lat="42.3212706483900547027587890625" lon="1.317957378923892974853515625">
        <ele>932.4000244140625</ele>
        <time>2020-08-12T06:22:03.000Z</time>
      </trkpt>
      <trkpt lat="42.321279533207416534423828125" lon="1.3179404474794864654541015625">
        <ele>932.4000244140625</ele>
        <time>2020-08-12T06:22:04.000Z</time>
      </trkpt>
      <trkpt lat="42.32133409939706325531005859375" lon="1.3178358413279056549072265625">
        <ele>933.4000244140625</ele>
        <time>2020-08-12T06:22:10.000Z</time>
      </trkpt>
      <trkpt lat="42.3213548026978969573974609375" lon="1.317778341472148895263671875">
        <ele>934</ele>
        <time>2020-08-12T06:22:13.000Z</time>
      </trkpt>
      <trkpt lat="42.321361005306243896484375" lon="1.317759566009044647216796875">
        <ele>934.20001220703125</ele>
        <time>2020-08-12T06:22:14.000Z</time>
      </trkpt>
      <trkpt lat="42.32138422317802906036376953125" lon="1.3177007250487804412841796875">
        <ele>934.5999755859375</ele>
        <time>2020-08-12T06:22:17.000Z</time>
      </trkpt>
      <trkpt lat="42.3214020766317844390869140625" lon="1.31766476668417453765869140625">
        <ele>935</ele>
        <time>2020-08-12T06:22:19.000Z</time>
      </trkpt>
      <trkpt lat="42.32141976244747638702392578125" lon="1.3176070153713226318359375">
        <ele>935.5999755859375</ele>
        <time>2020-08-12T06:22:22.000Z</time>
      </trkpt>
      <trkpt lat="42.32143786735832691192626953125" lon="1.31752579472959041595458984375">
        <ele>936</ele>
        <time>2020-08-12T06:22:26.000Z</time>
      </trkpt>
      <trkpt lat="42.3214396275579929351806640625" lon="1.3175050914287567138671875">
        <ele>936.4000244140625</ele>
        <time>2020-08-12T06:22:27.000Z</time>
      </trkpt>
      <trkpt lat="42.32144080102443695068359375" lon="1.31748522631824016571044921875">
        <ele>936.5999755859375</ele>
        <time>2020-08-12T06:22:28.000Z</time>
      </trkpt>
      <trkpt lat="42.3214617557823657989501953125" lon="1.3174318335950374603271484375">
        <ele>937</ele>
        <time>2020-08-12T06:22:31.000Z</time>
      </trkpt>
      <trkpt lat="42.32147424481809139251708984375" lon="1.317348182201385498046875">
        <ele>937.5999755859375</ele>
        <time>2020-08-12T06:22:35.000Z</time>
      </trkpt>
      <trkpt lat="42.32147692702710628509521484375" lon="1.317310295999050140380859375">
        <ele>938</ele>
        <time>2020-08-12T06:22:37.000Z</time>
      </trkpt>
      <trkpt lat="42.32148614712059497833251953125" lon="1.31719730794429779052734375">
        <ele>938.79998779296875</ele>
        <time>2020-08-12T06:22:43.000Z</time>
      </trkpt>
      <trkpt lat="42.3214902542531490325927734375" lon="1.31717987358570098876953125">
        <ele>938.79998779296875</ele>
        <time>2020-08-12T06:22:44.000Z</time>
      </trkpt>
      <trkpt lat="42.32150324620306491851806640625" lon="1.31710016168653964996337890625">
        <ele>939.79998779296875</ele>
        <time>2020-08-12T06:22:48.000Z</time>
      </trkpt>
      <trkpt lat="42.3215180821716785430908203125" lon="1.3170459307730197906494140625">
        <ele>940</ele>
        <time>2020-08-12T06:22:51.000Z</time>
      </trkpt>
      <trkpt lat="42.32152520678937435150146484375" lon="1.31702908314764499664306640625">
        <ele>940.20001220703125</ele>
        <time>2020-08-12T06:22:52.000Z</time>
      </trkpt>
      <trkpt lat="42.32154733501374721527099609375" lon="1.31696923635900020599365234375">
        <ele>940.79998779296875</ele>
        <time>2020-08-12T06:22:55.000Z</time>
      </trkpt>
      <trkpt lat="42.32159997336566448211669921875" lon="1.31689094938337802886962890625">
        <ele>941.20001220703125</ele>
        <time>2020-08-12T06:23:00.000Z</time>
      </trkpt>
      <trkpt lat="42.3216394521296024322509765625" lon="1.316826827824115753173828125">
        <ele>941.79998779296875</ele>
        <time>2020-08-12T06:23:04.000Z</time>
      </trkpt>
      <trkpt lat="42.3216716386377811431884765625" lon="1.31677812896668910980224609375">
        <ele>942.20001220703125</ele>
        <time>2020-08-12T06:23:07.000Z</time>
      </trkpt>
      <trkpt lat="42.32170525006949901580810546875" lon="1.3167039491236209869384765625">
        <ele>942.79998779296875</ele>
        <time>2020-08-12T06:23:11.000Z</time>
      </trkpt>
      <trkpt lat="42.32172251679003238677978515625" lon="1.3166419230401515960693359375">
        <ele>943.4000244140625</ele>
        <time>2020-08-12T06:23:14.000Z</time>
      </trkpt>
      <trkpt lat="42.32174045406281948089599609375" lon="1.31656371988356113433837890625">
        <ele>944</ele>
        <time>2020-08-12T06:23:18.000Z</time>
      </trkpt>
      <trkpt lat="42.3217470757663249969482421875" lon="1.3165247440338134765625">
        <ele>944.20001220703125</ele>
        <time>2020-08-12T06:23:20.000Z</time>
      </trkpt>
      <trkpt lat="42.3217578046023845672607421875" lon="1.31642818450927734375">
        <ele>945</ele>
        <time>2020-08-12T06:23:25.000Z</time>
      </trkpt>
      <trkpt lat="42.3217648454010486602783203125" lon="1.31639172323048114776611328125">
        <ele>945</ele>
        <time>2020-08-12T06:23:27.000Z</time>
      </trkpt>
      <trkpt lat="42.32176627032458782196044921875" lon="1.31627454422414302825927734375">
        <ele>945.79998779296875</ele>
        <time>2020-08-12T06:23:33.000Z</time>
      </trkpt>
      <trkpt lat="42.3217675276100635528564453125" lon="1.3162553496658802032470703125">
        <ele>946</ele>
        <time>2020-08-12T06:23:34.000Z</time>
      </trkpt>
      <trkpt lat="42.32177230529487133026123046875" lon="1.31615568883717060089111328125">
        <ele>947</ele>
        <time>2020-08-12T06:23:39.000Z</time>
      </trkpt>
      <trkpt lat="42.32177062891423702239990234375" lon="1.31613959558308124542236328125">
        <ele>947</ele>
        <time>2020-08-12T06:23:40.000Z</time>
      </trkpt>
      <trkpt lat="42.321772389113903045654296875" lon="1.3161011226475238800048828125">
        <ele>947.20001220703125</ele>
        <time>2020-08-12T06:23:42.000Z</time>
      </trkpt>
      <trkpt lat="42.32178269885480403900146484375" lon="1.3160515017807483673095703125">
        <ele>947.4000244140625</ele>
        <time>2020-08-12T06:23:45.000Z</time>
      </trkpt>
      <trkpt lat="42.32179644517600536346435546875" lon="1.3159991987049579620361328125">
        <ele>948</ele>
        <time>2020-08-12T06:23:48.000Z</time>
      </trkpt>
      <trkpt lat="42.32180616818368434906005859375" lon="1.3159619830548763275146484375">
        <ele>948.20001220703125</ele>
        <time>2020-08-12T06:23:50.000Z</time>
      </trkpt>
      <trkpt lat="42.32181052677333354949951171875" lon="1.3159418664872646331787109375">
        <ele>948.4000244140625</ele>
        <time>2020-08-12T06:23:51.000Z</time>
      </trkpt>
      <trkpt lat="42.3218446411192417144775390625" lon="1.3158496655523777008056640625">
        <ele>949.20001220703125</ele>
        <time>2020-08-12T06:23:56.000Z</time>
      </trkpt>
      <trkpt lat="42.32185612432658672332763671875" lon="1.31580792367458343505859375">
        <ele>949.4000244140625</ele>
        <time>2020-08-12T06:23:58.000Z</time>
      </trkpt>
      <trkpt lat="42.32187791727483272552490234375" lon="1.31572351790964603424072265625">
        <ele>950.20001220703125</ele>
        <time>2020-08-12T06:24:02.000Z</time>
      </trkpt>
      <trkpt lat="42.32189803384244441986083984375" lon="1.31566551513969898223876953125">
        <ele>950.79998779296875</ele>
        <time>2020-08-12T06:24:05.000Z</time>
      </trkpt>
      <trkpt lat="42.32193860225379467010498046875" lon="1.31560399197041988372802734375">
        <ele>951.4000244140625</ele>
        <time>2020-08-12T06:24:09.000Z</time>
      </trkpt>
      <trkpt lat="42.3219712078571319580078125" lon="1.31555847823619842529296875">
        <ele>952</ele>
        <time>2020-08-12T06:24:12.000Z</time>
      </trkpt>
      <trkpt lat="42.3219911567866802215576171875" lon="1.31553425453603267669677734375">
        <ele>952.4000244140625</ele>
        <time>2020-08-12T06:24:14.000Z</time>
      </trkpt>
      <trkpt lat="42.32201990671455860137939453125" lon="1.315493099391460418701171875">
        <ele>952.79998779296875</ele>
        <time>2020-08-12T06:24:17.000Z</time>
      </trkpt>
      <trkpt lat="42.3220273666083812713623046875" lon="1.31547524593770503997802734375">
        <ele>953</ele>
        <time>2020-08-12T06:24:18.000Z</time>
      </trkpt>
      <trkpt lat="42.3220437951385974884033203125" lon="1.3154451549053192138671875">
        <ele>953.5999755859375</ele>
        <time>2020-08-12T06:24:20.000Z</time>
      </trkpt>
      <trkpt lat="42.32204689644277095794677734375" lon="1.31542730145156383514404296875">
        <ele>954</ele>
        <time>2020-08-12T06:24:21.000Z</time>
      </trkpt>
      <trkpt lat="42.32204857282340526580810546875" lon="1.315406262874603271484375">
        <ele>954.20001220703125</ele>
        <time>2020-08-12T06:24:22.000Z</time>
      </trkpt>
      <trkpt lat="42.3220518417656421661376953125" lon="1.31533677689731121063232421875">
        <ele>954.79998779296875</ele>
        <time>2020-08-12T06:24:25.000Z</time>
      </trkpt>
      <trkpt lat="42.32205770909786224365234375" lon="1.3152736611664295196533203125">
        <ele>955.20001220703125</ele>
        <time>2020-08-12T06:24:28.000Z</time>
      </trkpt>
      <trkpt lat="42.32206935994327068328857421875" lon="1.31521607749164104461669921875">
        <ele>955.79998779296875</ele>
        <time>2020-08-12T06:24:31.000Z</time>
      </trkpt>
      <trkpt lat="42.32206801883876323699951171875" lon="1.315171904861927032470703125">
        <ele>956.20001220703125</ele>
        <time>2020-08-12T06:24:33.000Z</time>
      </trkpt>
      <trkpt lat="42.3220570385456085205078125" lon="1.3150379620492458343505859375">
        <ele>957</ele>
        <time>2020-08-12T06:24:39.000Z</time>
      </trkpt>
      <trkpt lat="42.3220541886985301971435546875" lon="1.31501558236777782440185546875">
        <ele>957.20001220703125</ele>
        <time>2020-08-12T06:24:40.000Z</time>
      </trkpt>
      <trkpt lat="42.32203482650220394134521484375" lon="1.314933858811855316162109375">
        <ele>958</ele>
        <time>2020-08-12T06:24:44.000Z</time>
      </trkpt>
      <trkpt lat="42.32202476821839809417724609375" lon="1.314898319542407989501953125">
        <ele>958</ele>
        <time>2020-08-12T06:24:46.000Z</time>
      </trkpt>
      <trkpt lat="42.3220025561749935150146484375" lon="1.31477166898548603057861328125">
        <ele>958.79998779296875</ele>
        <time>2020-08-12T06:24:52.000Z</time>
      </trkpt>
      <trkpt lat="42.3220007121562957763671875" lon="1.31474887020885944366455078125">
        <ele>959</ele>
        <time>2020-08-12T06:24:53.000Z</time>
      </trkpt>
      <trkpt lat="42.32197581790387630462646484375" lon="1.3146255724132061004638671875">
        <ele>959.79998779296875</ele>
        <time>2020-08-12T06:24:59.000Z</time>
      </trkpt>
      <trkpt lat="42.32197179459035396575927734375" lon="1.31460721604526042938232421875">
        <ele>960</ele>
        <time>2020-08-12T06:25:00.000Z</time>
      </trkpt>
      <trkpt lat="42.32195486314594745635986328125" lon="1.31446355022490024566650390625">
        <ele>961.20001220703125</ele>
        <time>2020-08-12T06:25:07.000Z</time>
      </trkpt>
      <trkpt lat="42.32195670716464519500732421875" lon="1.3144446909427642822265625">
        <ele>961.4000244140625</ele>
        <time>2020-08-12T06:25:08.000Z</time>
      </trkpt>
      <trkpt lat="42.32198151759803295135498046875" lon="1.31431250832974910736083984375">
        <ele>962.4000244140625</ele>
        <time>2020-08-12T06:25:15.000Z</time>
      </trkpt>
      <trkpt lat="42.3219891451299190521240234375" lon="1.3142309524118900299072265625">
        <ele>963.5999755859375</ele>
        <time>2020-08-12T06:25:19.000Z</time>
      </trkpt>
      <trkpt lat="42.32199735939502716064453125" lon="1.3142145238816738128662109375">
        <ele>963.79998779296875</ele>
        <time>2020-08-12T06:25:20.000Z</time>
      </trkpt>
      <trkpt lat="42.3220488242805004119873046875" lon="1.31414285860955715179443359375">
        <ele>964.5999755859375</ele>
        <time>2020-08-12T06:25:25.000Z</time>
      </trkpt>
      <trkpt lat="42.3220783285796642303466796875" lon="1.3141239993274211883544921875">
        <ele>964.79998779296875</ele>
        <time>2020-08-12T06:25:27.000Z</time>
      </trkpt>
      <trkpt lat="42.3221893049776554107666015625" lon="1.31409876979887485504150390625">
        <ele>965.79998779296875</ele>
        <time>2020-08-12T06:25:34.000Z</time>
      </trkpt>
      <trkpt lat="42.32225275598466396331787109375" lon="1.31408586166799068450927734375">
        <ele>966.5999755859375</ele>
        <time>2020-08-12T06:25:38.000Z</time>
      </trkpt>
      <trkpt lat="42.322300113737583160400390625" lon="1.3140659965574741363525390625">
        <ele>967</ele>
        <time>2020-08-12T06:25:41.000Z</time>
      </trkpt>
      <trkpt lat="42.32238602824509143829345703125" lon="1.314006485044956207275390625">
        <ele>967.79998779296875</ele>
        <time>2020-08-12T06:25:47.000Z</time>
      </trkpt>
      <trkpt lat="42.32243112288415431976318359375" lon="1.31394890137016773223876953125">
        <ele>968.20001220703125</ele>
        <time>2020-08-12T06:25:51.000Z</time>
      </trkpt>
      <trkpt lat="42.32247747480869293212890625" lon="1.3139017112553119659423828125">
        <ele>968.79998779296875</ele>
        <time>2020-08-12T06:25:55.000Z</time>
      </trkpt>
      <trkpt lat="42.322498261928558349609375" lon="1.31387027911841869354248046875">
        <ele>969.20001220703125</ele>
        <time>2020-08-12T06:25:58.000Z</time>
      </trkpt>
      <trkpt lat="42.32250790111720561981201171875" lon="1.31386424414813518524169921875">
        <ele>969.4000244140625</ele>
        <time>2020-08-12T06:26:01.000Z</time>
      </trkpt>
      <trkpt lat="42.3225156962871551513671875" lon="1.31382183171808719635009765625">
        <ele>969.5999755859375</ele>
        <time>2020-08-12T06:26:08.000Z</time>
      </trkpt>
      <trkpt lat="42.32252315618097782135009765625" lon="1.31380909122526645660400390625">
        <ele>969.5999755859375</ele>
        <time>2020-08-12T06:26:09.000Z</time>
      </trkpt>
      <trkpt lat="42.32256154529750347137451171875" lon="1.31373633630573749542236328125">
        <ele>970.4000244140625</ele>
        <time>2020-08-12T06:26:14.000Z</time>
      </trkpt>
      <trkpt lat="42.32259071432054042816162109375" lon="1.31370029412209987640380859375">
        <ele>971</ele>
        <time>2020-08-12T06:26:17.000Z</time>
      </trkpt>
      <trkpt lat="42.32262373901903629302978515625" lon="1.3136626593768596649169921875">
        <ele>971.4000244140625</ele>
        <time>2020-08-12T06:26:20.000Z</time>
      </trkpt>
      <trkpt lat="42.3226449452340602874755859375" lon="1.3136375136673450469970703125">
        <ele>971.5999755859375</ele>
        <time>2020-08-12T06:26:22.000Z</time>
      </trkpt>
      <trkpt lat="42.32265450060367584228515625" lon="1.313623599708080291748046875">
        <ele>971.5999755859375</ele>
        <time>2020-08-12T06:26:23.000Z</time>
      </trkpt>
      <trkpt lat="42.3227032832801342010498046875" lon="1.31357355974614620208740234375">
        <ele>972.4000244140625</ele>
        <time>2020-08-12T06:26:27.000Z</time>
      </trkpt>
      <trkpt lat="42.32275684364140033721923828125" lon="1.31354053504765033721923828125">
        <ele>973</ele>
        <time>2020-08-12T06:26:31.000Z</time>
      </trkpt>
      <trkpt lat="42.32276983559131622314453125" lon="1.31352963857352733612060546875">
        <ele>973.20001220703125</ele>
        <time>2020-08-12T06:26:32.000Z</time>
      </trkpt>
      <trkpt lat="42.3228394053876399993896484375" lon="1.3134470768272876739501953125">
        <ele>974.4000244140625</ele>
        <time>2020-08-12T06:26:38.000Z</time>
      </trkpt>
      <trkpt lat="42.32289531268179416656494140625" lon="1.31337759084999561309814453125">
        <ele>975.4000244140625</ele>
        <time>2020-08-12T06:26:43.000Z</time>
      </trkpt>
      <trkpt lat="42.32293386943638324737548828125" lon="1.31334372796118259429931640625">
        <ele>976</ele>
        <time>2020-08-12T06:26:46.000Z</time>
      </trkpt>
      <trkpt lat="42.32296555303037166595458984375" lon="1.31330139935016632080078125">
        <ele>976.5999755859375</ele>
        <time>2020-08-12T06:26:49.000Z</time>
      </trkpt>
      <trkpt lat="42.32300578616559505462646484375" lon="1.313271224498748779296875">
        <ele>977</ele>
        <time>2020-08-12T06:26:52.000Z</time>
      </trkpt>
      <trkpt lat="42.32304275035858154296875" lon="1.31323308683931827545166015625">
        <ele>977.79998779296875</ele>
        <time>2020-08-12T06:26:55.000Z</time>
      </trkpt>
      <trkpt lat="42.32310452498495578765869140625" lon="1.3131667859852313995361328125">
        <ele>978.4000244140625</ele>
        <time>2020-08-12T06:27:00.000Z</time>
      </trkpt>
      <trkpt lat="42.32312581501901149749755859375" lon="1.31313870660960674285888671875">
        <ele>978.79998779296875</ele>
        <time>2020-08-12T06:27:02.000Z</time>
      </trkpt>
      <trkpt lat="42.32319957576692104339599609375" lon="1.31302773021161556243896484375">
        <ele>979.5999755859375</ele>
        <time>2020-08-12T06:27:09.000Z</time>
      </trkpt>
      <trkpt lat="42.32323788106441497802734375" lon="1.31291608326137065887451171875">
        <ele>980.5999755859375</ele>
        <time>2020-08-12T06:27:15.000Z</time>
      </trkpt>
      <trkpt lat="42.32324835844337940216064453125" lon="1.31285338662564754486083984375">
        <ele>981.20001220703125</ele>
        <time>2020-08-12T06:27:18.000Z</time>
      </trkpt>
      <trkpt lat="42.32328473590314388275146484375" lon="1.31278364919126033782958984375">
        <ele>981.79998779296875</ele>
        <time>2020-08-12T06:27:22.000Z</time>
      </trkpt>
      <trkpt lat="42.32331097126007080078125" lon="1.31276085041463375091552734375">
        <ele>982</ele>
        <time>2020-08-12T06:27:24.000Z</time>
      </trkpt>
      <trkpt lat="42.3233711533248424530029296875" lon="1.3127376325428485870361328125">
        <ele>982.79998779296875</ele>
        <time>2020-08-12T06:27:28.000Z</time>
      </trkpt>
      <trkpt lat="42.3234445787966251373291015625" lon="1.3127066195011138916015625">
        <ele>983.5999755859375</ele>
        <time>2020-08-12T06:27:33.000Z</time>
      </trkpt>
      <trkpt lat="42.32351406477391719818115234375" lon="1.31266177631914615631103515625">
        <ele>983.79998779296875</ele>
        <time>2020-08-12T06:27:38.000Z</time>
      </trkpt>
      <trkpt lat="42.3235404677689075469970703125" lon="1.31263981573283672332763671875">
        <ele>984.20001220703125</ele>
        <time>2020-08-12T06:27:40.000Z</time>
      </trkpt>
      <trkpt lat="42.32359788380563259124755859375" lon="1.31258030422031879425048828125">
        <ele>985</ele>
        <time>2020-08-12T06:27:45.000Z</time>
      </trkpt>
      <trkpt lat="42.32362017966806888580322265625" lon="1.31255432032048702239990234375">
        <ele>985.4000244140625</ele>
        <time>2020-08-12T06:27:47.000Z</time>
      </trkpt>
      <trkpt lat="42.3236789368093013763427734375" lon="1.312498413026332855224609375">
        <ele>986.20001220703125</ele>
        <time>2020-08-12T06:27:52.000Z</time>
      </trkpt>
      <trkpt lat="42.32370064593851566314697265625" lon="1.31247133947908878326416015625">
        <ele>986.20001220703125</ele>
        <time>2020-08-12T06:27:54.000Z</time>
      </trkpt>
      <trkpt lat="42.32373735867440700531005859375" lon="1.31240981630980968475341796875">
        <ele>987</ele>
        <time>2020-08-12T06:27:58.000Z</time>
      </trkpt>
      <trkpt lat="42.3237573914229869842529296875" lon="1.3123812340199947357177734375">
        <ele>987.20001220703125</ele>
        <time>2020-08-12T06:28:00.000Z</time>
      </trkpt>
      <trkpt lat="42.3238326609134674072265625" lon="1.3122900389134883880615234375">
        <ele>988.20001220703125</ele>
        <time>2020-08-12T06:28:07.000Z</time>
      </trkpt>
      <trkpt lat="42.3238495923578739166259765625" lon="1.31225894205272197723388671875">
        <ele>988.5999755859375</ele>
        <time>2020-08-12T06:28:09.000Z</time>
      </trkpt>
      <trkpt lat="42.32388102449476718902587890625" lon="1.3122182898223400115966796875">
        <ele>989.20001220703125</ele>
        <time>2020-08-12T06:28:12.000Z</time>
      </trkpt>
      <trkpt lat="42.32393802143633365631103515625" lon="1.312160454690456390380859375">
        <ele>989.79998779296875</ele>
        <time>2020-08-12T06:28:17.000Z</time>
      </trkpt>
      <trkpt lat="42.32395964674651622772216796875" lon="1.31213488988578319549560546875">
        <ele>990.4000244140625</ele>
        <time>2020-08-12T06:28:19.000Z</time>
      </trkpt>
      <trkpt lat="42.32402435503900051116943359375" lon="1.31209415383636951446533203125">
        <ele>991.4000244140625</ele>
        <time>2020-08-12T06:28:24.000Z</time>
      </trkpt>
      <trkpt lat="42.32403743080794811248779296875" lon="1.3120858557522296905517578125">
        <ele>991.5999755859375</ele>
        <time>2020-08-12T06:28:25.000Z</time>
      </trkpt>
      <trkpt lat="42.324114628136157989501953125" lon="1.31204939447343349456787109375">
        <ele>992.4000244140625</ele>
        <time>2020-08-12T06:28:31.000Z</time>
      </trkpt>
      <trkpt lat="42.32412762008607387542724609375" lon="1.31204118020832538604736328125">
        <ele>992.5999755859375</ele>
        <time>2020-08-12T06:28:32.000Z</time>
      </trkpt>
      <trkpt lat="42.32420037500560283660888671875" lon="1.3119993545114994049072265625">
        <ele>993.5999755859375</ele>
        <time>2020-08-12T06:28:38.000Z</time>
      </trkpt>
      <trkpt lat="42.3242913186550140380859375" lon="1.311946213245391845703125">
        <ele>994.79998779296875</ele>
        <time>2020-08-12T06:28:45.000Z</time>
      </trkpt>
      <trkpt lat="42.32430481351912021636962890625" lon="1.31193841807544231414794921875">
        <ele>995</ele>
        <time>2020-08-12T06:28:46.000Z</time>
      </trkpt>
      <trkpt lat="42.32438578270375728607177734375" lon="1.31189860403537750244140625">
        <ele>995.79998779296875</ele>
        <time>2020-08-12T06:28:52.000Z</time>
      </trkpt>
      <trkpt lat="42.3244141973555088043212890625" lon="1.31188930012285709381103515625">
        <ele>996.20001220703125</ele>
        <time>2020-08-12T06:28:54.000Z</time>
      </trkpt>
      <trkpt lat="42.32446021400392055511474609375" lon="1.31188645027577877044677734375">
        <ele>997</ele>
        <time>2020-08-12T06:28:57.000Z</time>
      </trkpt>
      <trkpt lat="42.32453741133213043212890625" lon="1.3119004480540752410888671875">
        <ele>997.5999755859375</ele>
        <time>2020-08-12T06:29:02.000Z</time>
      </trkpt>
      <trkpt lat="42.3246239125728607177734375" lon="1.31193690933287143707275390625">
        <ele>998</ele>
        <time>2020-08-12T06:29:08.000Z</time>
      </trkpt>
      <trkpt lat="42.32466674409806728363037109375" lon="1.31195853464305400848388671875">
        <ele>998.4000244140625</ele>
        <time>2020-08-12T06:29:11.000Z</time>
      </trkpt>
      <trkpt lat="42.3247186280786991119384765625" lon="1.311995498836040496826171875">
        <ele>999</ele>
        <time>2020-08-12T06:29:15.000Z</time>
      </trkpt>
      <trkpt lat="42.3247618786990642547607421875" lon="1.31200991570949554443359375">
        <ele>999.5999755859375</ele>
        <time>2020-08-12T06:29:18.000Z</time>
      </trkpt>
      <trkpt lat="42.32483136467635631561279296875" lon="1.31202341057360172271728515625">
        <ele>1000.20001220703125</ele>
        <time>2020-08-12T06:29:23.000Z</time>
      </trkpt>
      <trkpt lat="42.32485617510974407196044921875" lon="1.3120221532881259918212890625">
        <ele>1000.5999755859375</ele>
        <time>2020-08-12T06:29:25.000Z</time>
      </trkpt>
      <trkpt lat="42.32492708601057529449462890625" lon="1.31201871670782566070556640625">
        <ele>1001.4000244140625</ele>
        <time>2020-08-12T06:29:30.000Z</time>
      </trkpt>
      <trkpt lat="42.32495851814746856689453125" lon="1.31202274002134799957275390625">
        <ele>1002</ele>
        <time>2020-08-12T06:29:32.000Z</time>
      </trkpt>
      <trkpt lat="42.325003445148468017578125" lon="1.31201636977493762969970703125">
        <ele>1002.20001220703125</ele>
        <time>2020-08-12T06:29:35.000Z</time>
      </trkpt>
      <trkpt lat="42.32507796026766300201416015625" lon="1.31198854185640811920166015625">
        <ele>1003.20001220703125</ele>
        <time>2020-08-12T06:29:40.000Z</time>
      </trkpt>
      <trkpt lat="42.32509304769337177276611328125" lon="1.3119825907051563262939453125">
        <ele>1003.4000244140625</ele>
        <time>2020-08-12T06:29:41.000Z</time>
      </trkpt>
      <trkpt lat="42.32518784701824188232421875" lon="1.311964653432369232177734375">
        <ele>1004.4000244140625</ele>
        <time>2020-08-12T06:29:47.000Z</time>
      </trkpt>
      <trkpt lat="42.3251974023878574371337890625" lon="1.311959959566593170166015625">
        <ele>1004.4000244140625</ele>
        <time>2020-08-12T06:29:48.000Z</time>
      </trkpt>
      <trkpt lat="42.3251994140446186065673828125" lon="1.31195836700499057769775390625">
        <ele>1004.5999755859375</ele>
        <time>2020-08-12T06:29:49.000Z</time>
      </trkpt>
      <trkpt lat="42.3252044431865215301513671875" lon="1.31192886270582675933837890625">
        <ele>1004.79998779296875</ele>
        <time>2020-08-12T06:30:41.000Z</time>
      </trkpt>
      <trkpt lat="42.32522648759186267852783203125" lon="1.31191561929881572723388671875">
        <ele>1005</ele>
        <time>2020-08-12T06:30:43.000Z</time>
      </trkpt>
      <trkpt lat="42.3253211192786693572998046875" lon="1.31187488324940204620361328125">
        <ele>1006</ele>
        <time>2020-08-12T06:30:50.000Z</time>
      </trkpt>
      <trkpt lat="42.32533394359052181243896484375" lon="1.31186909973621368408203125">
        <ele>1006</ele>
        <time>2020-08-12T06:30:51.000Z</time>
      </trkpt>
      <trkpt lat="42.32543620280921459197998046875" lon="1.3118186406791210174560546875">
        <ele>1007</ele>
        <time>2020-08-12T06:30:59.000Z</time>
      </trkpt>
      <trkpt lat="42.32553343288600444793701171875" lon="1.31176793016493320465087890625">
        <ele>1008.20001220703125</ele>
        <time>2020-08-12T06:31:07.000Z</time>
      </trkpt>
      <trkpt lat="42.32560384087264537811279296875" lon="1.3117217458784580230712890625">
        <ele>1008.79998779296875</ele>
        <time>2020-08-12T06:31:13.000Z</time>
      </trkpt>
      <trkpt lat="42.325614653527736663818359375" lon="1.3117106817662715911865234375">
        <ele>1009</ele>
        <time>2020-08-12T06:31:14.000Z</time>
      </trkpt>
      <trkpt lat="42.3256366141140460968017578125" lon="1.31168863736093044281005859375">
        <ele>1009.20001220703125</ele>
        <time>2020-08-12T06:31:16.000Z</time>
      </trkpt>
      <trkpt lat="42.32571196742355823516845703125" lon="1.311624012887477874755859375">
        <ele>1010</ele>
        <time>2020-08-12T06:31:23.000Z</time>
      </trkpt>
      <trkpt lat="42.3257335089147090911865234375" lon="1.31160314194858074188232421875">
        <ele>1010.20001220703125</ele>
        <time>2020-08-12T06:31:25.000Z</time>
      </trkpt>
      <trkpt lat="42.3257965408265590667724609375" lon="1.31153642199933528900146484375">
        <ele>1011</ele>
        <time>2020-08-12T06:31:31.000Z</time>
      </trkpt>
      <trkpt lat="42.32581724412739276885986328125" lon="1.31151496432721614837646484375">
        <ele>1011.4000244140625</ele>
        <time>2020-08-12T06:31:33.000Z</time>
      </trkpt>
      <trkpt lat="42.325863428413867950439453125" lon="1.31142427213490009307861328125">
        <ele>1012</ele>
        <time>2020-08-12T06:31:39.000Z</time>
      </trkpt>
      <trkpt lat="42.325880192220211029052734375" lon="1.3113955222070217132568359375">
        <ele>1012.4000244140625</ele>
        <time>2020-08-12T06:31:41.000Z</time>
      </trkpt>
      <trkpt lat="42.3259564675390720367431640625" lon="1.31132402457296848297119140625">
        <ele>1013.4000244140625</ele>
        <time>2020-08-12T06:31:48.000Z</time>
      </trkpt>
      <trkpt lat="42.32605260796844959259033203125" lon="1.31135721690952777862548828125">
        <ele>1014.20001220703125</ele>
        <time>2020-08-12T06:31:55.000Z</time>
      </trkpt>
      <trkpt lat="42.32608093880116939544677734375" lon="1.31136576645076274871826171875">
        <ele>1014.4000244140625</ele>
        <time>2020-08-12T06:31:57.000Z</time>
      </trkpt>
      <trkpt lat="42.32616425491869449615478515625" lon="1.3113935105502605438232421875">
        <ele>1015.20001220703125</ele>
        <time>2020-08-12T06:32:03.000Z</time>
      </trkpt>
      <trkpt lat="42.32619157992303371429443359375" lon="1.31140801124274730682373046875">
        <ele>1015.5999755859375</ele>
        <time>2020-08-12T06:32:05.000Z</time>
      </trkpt>
      <trkpt lat="42.32626081444323062896728515625" lon="1.3114176504313945770263671875">
        <ele>1016.20001220703125</ele>
        <time>2020-08-12T06:32:10.000Z</time>
      </trkpt>
      <trkpt lat="42.32631730847060680389404296875" lon="1.31141270510852336883544921875">
        <ele>1016.4000244140625</ele>
        <time>2020-08-12T06:32:14.000Z</time>
      </trkpt>
      <trkpt lat="42.326358966529369354248046875" lon="1.31139929406344890594482421875">
        <ele>1016.79998779296875</ele>
        <time>2020-08-12T06:32:17.000Z</time>
      </trkpt>
      <trkpt lat="42.32640297152101993560791015625" lon="1.31139971315860748291015625">
        <ele>1017.4000244140625</ele>
        <time>2020-08-12T06:32:20.000Z</time>
      </trkpt>
      <trkpt lat="42.32649265788495540618896484375" lon="1.31141245365142822265625">
        <ele>1018</ele>
        <time>2020-08-12T06:32:26.000Z</time>
      </trkpt>
      <trkpt lat="42.32656708918511867523193359375" lon="1.31143315695226192474365234375">
        <ele>1018.5999755859375</ele>
        <time>2020-08-12T06:32:31.000Z</time>
      </trkpt>
      <trkpt lat="42.32662416994571685791015625" lon="1.3114609010517597198486328125">
        <ele>1018.79998779296875</ele>
        <time>2020-08-12T06:32:35.000Z</time>
      </trkpt>
      <trkpt lat="42.32672584243118762969970703125" lon="1.31151647306978702545166015625">
        <ele>1019.4000244140625</ele>
        <time>2020-08-12T06:32:42.000Z</time>
      </trkpt>
      <trkpt lat="42.32674109749495983123779296875" lon="1.31151999346911907196044921875">
        <ele>1019.4000244140625</ele>
        <time>2020-08-12T06:32:43.000Z</time>
      </trkpt>
      <trkpt lat="42.32689163647592067718505859375" lon="1.31154580973088741302490234375">
        <ele>1020.4000244140625</ele>
        <time>2020-08-12T06:32:53.000Z</time>
      </trkpt>
      <trkpt lat="42.3269217275083065032958984375" lon="1.31154731847345829010009765625">
        <ele>1020.5999755859375</ele>
        <time>2020-08-12T06:32:55.000Z</time>
      </trkpt>
      <trkpt lat="42.32702356763184070587158203125" lon="1.31152267567813396453857421875">
        <ele>1021.4000244140625</ele>
        <time>2020-08-12T06:33:02.000Z</time>
      </trkpt>
      <trkpt lat="42.3270380683243274688720703125" lon="1.3115158863365650177001953125">
        <ele>1021.5999755859375</ele>
        <time>2020-08-12T06:33:03.000Z</time>
      </trkpt>
      <trkpt lat="42.3271215520799160003662109375" lon="1.3114836998283863067626953125">
        <ele>1022.5999755859375</ele>
        <time>2020-08-12T06:33:09.000Z</time>
      </trkpt>
      <trkpt lat="42.3272228054702281951904296875" lon="1.31145126186311244964599609375">
        <ele>1023.5999755859375</ele>
        <time>2020-08-12T06:33:16.000Z</time>
      </trkpt>
      <trkpt lat="42.3272551596164703369140625" lon="1.3114501722157001495361328125">
        <ele>1024.199951171875</ele>
        <time>2020-08-12T06:33:18.000Z</time>
      </trkpt>
      <trkpt lat="42.3273066245019435882568359375" lon="1.3114572130143642425537109375">
        <ele>1024.800048828125</ele>
        <time>2020-08-12T06:33:21.000Z</time>
      </trkpt>
      <trkpt lat="42.32735498808324337005615234375" lon="1.311471797525882720947265625">
        <ele>1024.5999755859375</ele>
        <time>2020-08-12T06:33:24.000Z</time>
      </trkpt>
      <trkpt lat="42.3273766972124576568603515625" lon="1.31148822605609893798828125">
        <ele>1024.5999755859375</ele>
        <time>2020-08-12T06:33:26.000Z</time>
      </trkpt>
      <trkpt lat="42.32740159146487712860107421875" lon="1.31156357936561107635498046875">
        <ele>1024.5999755859375</ele>
        <time>2020-08-12T06:33:29.000Z</time>
      </trkpt>
      <trkpt lat="42.32736085541546344757080078125" lon="1.31167807616293430328369140625">
        <ele>1024.4000244140625</ele>
        <time>2020-08-12T06:33:33.000Z</time>
      </trkpt>
      <trkpt lat="42.327339313924312591552734375" lon="1.31171864457428455352783203125">
        <ele>1024.4000244140625</ele>
        <time>2020-08-12T06:33:35.000Z</time>
      </trkpt>
      <trkpt lat="42.327303774654865264892578125" lon="1.311784945428371429443359375">
        <ele>1024.4000244140625</ele>
        <time>2020-08-12T06:33:39.000Z</time>
      </trkpt>
      <trkpt lat="42.32724552042782306671142578125" lon="1.31186985410749912261962890625">
        <ele>1024.4000244140625</ele>
        <time>2020-08-12T06:33:44.000Z</time>
      </trkpt>
      <trkpt lat="42.32723294757306575775146484375" lon="1.3118860311806201934814453125">
        <ele>1024.800048828125</ele>
        <time>2020-08-12T06:33:45.000Z</time>
      </trkpt>
      <trkpt lat="42.3271396569907665252685546875" lon="1.3120580278337001800537109375">
        <ele>1025.4000244140625</ele>
        <time>2020-08-12T06:33:53.000Z</time>
      </trkpt>
      <trkpt lat="42.32710897922515869140625" lon="1.312222816050052642822265625">
        <ele>1026.4000244140625</ele>
        <time>2020-08-12T06:34:00.000Z</time>
      </trkpt>
      <trkpt lat="42.3271088115870952606201171875" lon="1.31224771030247211456298828125">
        <ele>1026.5999755859375</ele>
        <time>2020-08-12T06:34:01.000Z</time>
      </trkpt>
      <trkpt lat="42.32710939832031726837158203125" lon="1.31240545772016048431396484375">
        <ele>1027</ele>
        <time>2020-08-12T06:34:08.000Z</time>
      </trkpt>
      <trkpt lat="42.32710269279778003692626953125" lon="1.31253202445805072784423828125">
        <ele>1027.4000244140625</ele>
        <time>2020-08-12T06:34:15.000Z</time>
      </trkpt>
      <trkpt lat="42.32710118405520915985107421875" lon="1.31255314685404300689697265625">
        <ele>1027.5999755859375</ele>
        <time>2020-08-12T06:34:16.000Z</time>
      </trkpt>
      <trkpt lat="42.32709196396172046661376953125" lon="1.3127280771732330322265625">
        <ele>1027.800048828125</ele>
        <time>2020-08-12T06:34:23.000Z</time>
      </trkpt>
      <trkpt lat="42.32706145383417606353759765625" lon="1.31295396946370601654052734375">
        <ele>1027.5999755859375</ele>
        <time>2020-08-12T06:34:31.000Z</time>
      </trkpt>
      <trkpt lat="42.3269817419350147247314453125" lon="1.31313837133347988128662109375">
        <ele>1028</ele>
        <time>2020-08-12T06:34:38.000Z</time>
      </trkpt>
      <trkpt lat="42.32695148326456546783447265625" lon="1.3131798617541790008544921875">
        <ele>1028.4000244140625</ele>
        <time>2020-08-12T06:34:40.000Z</time>
      </trkpt>
      <trkpt lat="42.32688643969595432281494140625" lon="1.3132925145328044891357421875">
        <ele>1028.800048828125</ele>
        <time>2020-08-12T06:34:45.000Z</time>
      </trkpt>
      <trkpt lat="42.3268506489694118499755859375" lon="1.3134665228426456451416015625">
        <ele>1028.800048828125</ele>
        <time>2020-08-12T06:34:51.000Z</time>
      </trkpt>
      <trkpt lat="42.3268995992839336395263671875" lon="1.31364748813211917877197265625">
        <ele>1028.4000244140625</ele>
        <time>2020-08-12T06:34:56.000Z</time>
      </trkpt>
      <trkpt lat="42.3269723542034626007080078125" lon="1.31370599381625652313232421875">
        <ele>1029.199951171875</ele>
        <time>2020-08-12T06:35:01.000Z</time>
      </trkpt>
      <trkpt lat="42.3270031996071338653564453125" lon="1.3137189857661724090576171875">
        <ele>1029.800048828125</ele>
        <time>2020-08-12T06:35:03.000Z</time>
      </trkpt>
      <trkpt lat="42.32703194953501224517822265625" lon="1.3137256912887096405029296875">
        <ele>1030.199951171875</ele>
        <time>2020-08-12T06:35:05.000Z</time>
      </trkpt>
      <trkpt lat="42.32709431089460849761962890625" lon="1.3137179799377918243408203125">
        <ele>1031.199951171875</ele>
        <time>2020-08-12T06:35:09.000Z</time>
      </trkpt>
      <trkpt lat="42.32711157761514186859130859375" lon="1.3137136213481426239013671875">
        <ele>1031.199951171875</ele>
        <time>2020-08-12T06:35:10.000Z</time>
      </trkpt>
      <trkpt lat="42.32718802057206630706787109375" lon="1.3136955164372920989990234375">
        <ele>1032.4000244140625</ele>
        <time>2020-08-12T06:35:15.000Z</time>
      </trkpt>
      <trkpt lat="42.32720059342682361602783203125" lon="1.31368939764797687530517578125">
        <ele>1032.5999755859375</ele>
        <time>2020-08-12T06:35:16.000Z</time>
      </trkpt>
      <trkpt lat="42.3272399045526981353759765625" lon="1.31366659887135028839111328125">
        <ele>1033.5999755859375</ele>
        <time>2020-08-12T06:35:19.000Z</time>
      </trkpt>
      <trkpt lat="42.3273002542555332183837890625" lon="1.31364564411342144012451171875">
        <ele>1034.800048828125</ele>
        <time>2020-08-12T06:35:23.000Z</time>
      </trkpt>
      <trkpt lat="42.3273302614688873291015625" lon="1.3136348314583301544189453125">
        <ele>1035</ele>
        <time>2020-08-12T06:35:25.000Z</time>
      </trkpt>
      <trkpt lat="42.32737124897539615631103515625" lon="1.31361387670040130615234375">
        <ele>1035.800048828125</ele>
        <time>2020-08-12T06:35:28.000Z</time>
      </trkpt>
      <trkpt lat="42.3274310119450092315673828125" lon="1.3135962747037410736083984375">
        <ele>1036.800048828125</ele>
        <time>2020-08-12T06:35:32.000Z</time>
      </trkpt>
      <trkpt lat="42.3274876736104488372802734375" lon="1.31356685422360897064208984375">
        <ele>1038</ele>
        <time>2020-08-12T06:35:36.000Z</time>
      </trkpt>
      <trkpt lat="42.3275235481560230255126953125" lon="1.31354472599923610687255859375">
        <ele>1038.5999755859375</ele>
        <time>2020-08-12T06:35:39.000Z</time>
      </trkpt>
      <trkpt lat="42.32754944823682308197021484375" lon="1.31352511234581470489501953125">
        <ele>1039.199951171875</ele>
        <time>2020-08-12T06:35:41.000Z</time>
      </trkpt>
      <trkpt lat="42.32761130668222904205322265625" lon="1.31348119117319583892822265625">
        <ele>1040.199951171875</ele>
        <time>2020-08-12T06:35:46.000Z</time>
      </trkpt>
      <trkpt lat="42.32765874825417995452880859375" lon="1.313438527286052703857421875">
        <ele>1041.4000244140625</ele>
        <time>2020-08-12T06:35:50.000Z</time>
      </trkpt>
      <trkpt lat="42.32768925838172435760498046875" lon="1.31341145373880863189697265625">
        <ele>1042</ele>
        <time>2020-08-12T06:35:53.000Z</time>
      </trkpt>
      <trkpt lat="42.32774172909557819366455078125" lon="1.31335361860692501068115234375">
        <ele>1042.5999755859375</ele>
        <time>2020-08-12T06:35:58.000Z</time>
      </trkpt>
      <trkpt lat="42.3277662880718708038330078125" lon="1.31334121339023113250732421875">
        <ele>1043</ele>
        <time>2020-08-12T06:36:00.000Z</time>
      </trkpt>
      <trkpt lat="42.3278050124645233154296875" lon="1.31332696415483951568603515625">
        <ele>1043.5999755859375</ele>
        <time>2020-08-12T06:36:03.000Z</time>
      </trkpt>
      <trkpt lat="42.3278638534247875213623046875" lon="1.31330366246402263641357421875">
        <ele>1044.4000244140625</ele>
        <time>2020-08-12T06:36:07.000Z</time>
      </trkpt>
      <trkpt lat="42.3278802819550037384033203125" lon="1.3133045844733715057373046875">
        <ele>1044.800048828125</ele>
        <time>2020-08-12T06:36:08.000Z</time>
      </trkpt>
      <trkpt lat="42.3278962075710296630859375" lon="1.31330835632979869842529296875">
        <ele>1044.800048828125</ele>
        <time>2020-08-12T06:36:09.000Z</time>
      </trkpt>
      <trkpt lat="42.32797600328922271728515625" lon="1.31337407045066356658935546875">
        <ele>1045</ele>
        <time>2020-08-12T06:36:14.000Z</time>
      </trkpt>
      <trkpt lat="42.328104414045810699462890625" lon="1.31344498135149478912353515625">
        <ele>1044.4000244140625</ele>
        <time>2020-08-12T06:36:21.000Z</time>
      </trkpt>
      <trkpt lat="42.32823391444981098175048828125" lon="1.3134413771331310272216796875">
        <ele>1043.800048828125</ele>
        <time>2020-08-12T06:36:27.000Z</time>
      </trkpt>
      <trkpt lat="42.3282578028738498687744140625" lon="1.3134376890957355499267578125">
        <ele>1043.4000244140625</ele>
        <time>2020-08-12T06:36:28.000Z</time>
      </trkpt>
      <trkpt lat="42.3283872194588184356689453125" lon="1.31343559361994266510009765625">
        <ele>1042.5999755859375</ele>
        <time>2020-08-12T06:36:34.000Z</time>
      </trkpt>
      <trkpt lat="42.328414209187030792236328125" lon="1.313433162868022918701171875">
        <ele>1042.4000244140625</ele>
        <time>2020-08-12T06:36:35.000Z</time>
      </trkpt>
      <trkpt lat="42.328498698770999908447265625" lon="1.3134400360286235809326171875">
        <ele>1041</ele>
        <time>2020-08-12T06:36:38.000Z</time>
      </trkpt>
      <trkpt lat="42.32852828688919544219970703125" lon="1.31344481371343135833740234375">
        <ele>1040.4000244140625</ele>
        <time>2020-08-12T06:36:39.000Z</time>
      </trkpt>
      <trkpt lat="42.32855929993093013763427734375" lon="1.31344950757920742034912109375">
        <ele>1039.800048828125</ele>
        <time>2020-08-12T06:36:40.000Z</time>
      </trkpt>
      <trkpt lat="42.32868469320237636566162109375" lon="1.3135117851197719573974609375">
        <ele>1038.5999755859375</ele>
        <time>2020-08-12T06:36:44.000Z</time>
      </trkpt>
      <trkpt lat="42.328730709850788116455078125" lon="1.31361194886267185211181640625">
        <ele>1038.4000244140625</ele>
        <time>2020-08-12T06:36:48.000Z</time>
      </trkpt>
      <trkpt lat="42.32873112894594669342041015625" lon="1.3137173093855381011962890625">
        <ele>1039.199951171875</ele>
        <time>2020-08-12T06:36:53.000Z</time>
      </trkpt>
      <trkpt lat="42.3287322185933589935302734375" lon="1.31373994052410125732421875">
        <ele>1039.199951171875</ele>
        <time>2020-08-12T06:36:54.000Z</time>
      </trkpt>
      <trkpt lat="42.3287285305559635162353515625" lon="1.3138765655457973480224609375">
        <ele>1039.5999755859375</ele>
        <time>2020-08-12T06:37:00.000Z</time>
      </trkpt>
      <trkpt lat="42.32873464934527873992919921875" lon="1.31391973234713077545166015625">
        <ele>1039.4000244140625</ele>
        <time>2020-08-12T06:37:02.000Z</time>
      </trkpt>
      <trkpt lat="42.3287369124591350555419921875" lon="1.313941441476345062255859375">
        <ele>1039.5999755859375</ele>
        <time>2020-08-12T06:37:03.000Z</time>
      </trkpt>
      <trkpt lat="42.32873800210654735565185546875" lon="1.3139848597347736358642578125">
        <ele>1040</ele>
        <time>2020-08-12T06:37:05.000Z</time>
      </trkpt>
      <trkpt lat="42.32876147143542766571044921875" lon="1.31410111673176288604736328125">
        <ele>1040.4000244140625</ele>
        <time>2020-08-12T06:37:11.000Z</time>
      </trkpt>
      <trkpt lat="42.32876599766314029693603515625" lon="1.3141213171184062957763671875">
        <ele>1040.5999755859375</ele>
        <time>2020-08-12T06:37:12.000Z</time>
      </trkpt>
      <trkpt lat="42.328802458941936492919921875" lon="1.31426439620554447174072265625">
        <ele>1041.5999755859375</ele>
        <time>2020-08-12T06:37:20.000Z</time>
      </trkpt>
      <trkpt lat="42.32882182113826274871826171875" lon="1.314340420067310333251953125">
        <ele>1041.800048828125</ele>
        <time>2020-08-12T06:37:24.000Z</time>
      </trkpt>
      <trkpt lat="42.32884327881038188934326171875" lon="1.31440169177949428558349609375">
        <ele>1042</ele>
        <time>2020-08-12T06:37:27.000Z</time>
      </trkpt>
      <trkpt lat="42.32885132543742656707763671875" lon="1.314427591860294342041015625">
        <ele>1042.5999755859375</ele>
        <time>2020-08-12T06:37:31.000Z</time>
      </trkpt>
      <trkpt lat="42.3288519121706485748291015625" lon="1.31442784331738948822021484375">
        <ele>1042.4000244140625</ele>
        <time>2020-08-12T06:37:32.000Z</time>
      </trkpt>
      <trkpt lat="42.32887764461338520050048828125" lon="1.31443035788834095001220703125">
        <ele>1043</ele>
        <time>2020-08-12T06:48:58.000Z</time>
      </trkpt>
      <trkpt lat="42.32887990772724151611328125" lon="1.314436979591846466064453125">
        <ele>1042.800048828125</ele>
        <time>2020-08-12T06:49:01.000Z</time>
      </trkpt>
      <trkpt lat="42.32889063656330108642578125" lon="1.31448215804994106292724609375">
        <ele>1042.5999755859375</ele>
        <time>2020-08-12T06:49:04.000Z</time>
      </trkpt>
      <trkpt lat="42.32889256440103054046630859375" lon="1.31463638506829738616943359375">
        <ele>1042.4000244140625</ele>
        <time>2020-08-12T06:49:10.000Z</time>
      </trkpt>
      <trkpt lat="42.328886277973651885986328125" lon="1.31467041559517383575439453125">
        <ele>1042.199951171875</ele>
        <time>2020-08-12T06:49:11.000Z</time>
      </trkpt>
      <trkpt lat="42.328865826129913330078125" lon="1.314750127494335174560546875">
        <ele>1041.5999755859375</ele>
        <time>2020-08-12T06:49:13.000Z</time>
      </trkpt>
      <trkpt lat="42.32883632183074951171875" lon="1.314856074750423431396484375">
        <ele>1040.800048828125</ele>
        <time>2020-08-12T06:49:15.000Z</time>
      </trkpt>
      <trkpt lat="42.328823916614055633544921875" lon="1.31491667591035366058349609375">
        <ele>1040.199951171875</ele>
        <time>2020-08-12T06:49:16.000Z</time>
      </trkpt>
      <trkpt lat="42.32879231683909893035888671875" lon="1.315055228769779205322265625">
        <ele>1039.199951171875</ele>
        <time>2020-08-12T06:49:18.000Z</time>
      </trkpt>
      <trkpt lat="42.3287623934447765350341796875" lon="1.31526854820549488067626953125">
        <ele>1038.4000244140625</ele>
        <time>2020-08-12T06:49:21.000Z</time>
      </trkpt>
      <trkpt lat="42.32875878922641277313232421875" lon="1.31532772444188594818115234375">
        <ele>1037.800048828125</ele>
        <time>2020-08-12T06:49:22.000Z</time>
      </trkpt>
      <trkpt lat="42.3287731222808361053466796875" lon="1.31546652875840663909912109375">
        <ele>1037.5999755859375</ele>
        <time>2020-08-12T06:49:25.000Z</time>
      </trkpt>
      <trkpt lat="42.3287687636911869049072265625" lon="1.31560835056006908416748046875">
        <ele>1038.5999755859375</ele>
        <time>2020-08-12T06:49:30.000Z</time>
      </trkpt>
      <trkpt lat="42.32876121997833251953125" lon="1.31565570831298828125">
        <ele>1039</ele>
        <time>2020-08-12T06:49:32.000Z</time>
      </trkpt>
      <trkpt lat="42.32873029075562953948974609375" lon="1.31575386039912700653076171875">
        <ele>1040.199951171875</ele>
        <time>2020-08-12T06:49:37.000Z</time>
      </trkpt>
      <trkpt lat="42.32872526161372661590576171875" lon="1.31577380932867527008056640625">
        <ele>1040.199951171875</ele>
        <time>2020-08-12T06:49:38.000Z</time>
      </trkpt>
      <trkpt lat="42.32869617640972137451171875" lon="1.31590959616005420684814453125">
        <ele>1041.199951171875</ele>
        <time>2020-08-12T06:49:45.000Z</time>
      </trkpt>
      <trkpt lat="42.32869081199169158935546875" lon="1.3159465603530406951904296875">
        <ele>1041.5999755859375</ele>
        <time>2020-08-12T06:49:47.000Z</time>
      </trkpt>
      <trkpt lat="42.32868955470621585845947265625" lon="1.3160692714154720306396484375">
        <ele>1042.4000244140625</ele>
        <time>2020-08-12T06:49:54.000Z</time>
      </trkpt>
      <trkpt lat="42.32869173400104045867919921875" lon="1.3161068223416805267333984375">
        <ele>1042.4000244140625</ele>
        <time>2020-08-12T06:49:56.000Z</time>
      </trkpt>
      <trkpt lat="42.328661978244781494140625" lon="1.31623196415603160858154296875">
        <ele>1043.199951171875</ele>
        <time>2020-08-12T06:50:03.000Z</time>
      </trkpt>
      <trkpt lat="42.3286463879048824310302734375" lon="1.31626524031162261962890625">
        <ele>1043.199951171875</ele>
        <time>2020-08-12T06:50:05.000Z</time>
      </trkpt>
      <trkpt lat="42.32861462049186229705810546875" lon="1.3163465447723865509033203125">
        <ele>1044.199951171875</ele>
        <time>2020-08-12T06:50:10.000Z</time>
      </trkpt>
      <trkpt lat="42.32860774733126163482666015625" lon="1.31636339239776134490966796875">
        <ele>1044.4000244140625</ele>
        <time>2020-08-12T06:50:11.000Z</time>
      </trkpt>
      <trkpt lat="42.3285880498588085174560546875" lon="1.31644494831562042236328125">
        <ele>1045.4000244140625</ele>
        <time>2020-08-12T06:50:16.000Z</time>
      </trkpt>
      <trkpt lat="42.328585870563983917236328125" lon="1.31647638045251369476318359375">
        <ele>1045.800048828125</ele>
        <time>2020-08-12T06:50:18.000Z</time>
      </trkpt>
      <trkpt lat="42.32856499962508678436279296875" lon="1.3165555894374847412109375">
        <ele>1046.5999755859375</ele>
        <time>2020-08-12T06:50:23.000Z</time>
      </trkpt>
      <trkpt lat="42.328552342951297760009765625" lon="1.3166067190468311309814453125">
        <ele>1047</ele>
        <time>2020-08-12T06:50:26.000Z</time>
      </trkpt>
      <trkpt lat="42.32852929271757602691650390625" lon="1.31667033769190311431884765625">
        <ele>1047.800048828125</ele>
        <time>2020-08-12T06:50:30.000Z</time>
      </trkpt>
      <trkpt lat="42.32851110398769378662109375" lon="1.31673873402178287506103515625">
        <ele>1048.5999755859375</ele>
        <time>2020-08-12T06:50:34.000Z</time>
      </trkpt>
      <trkpt lat="42.32849903404712677001953125" lon="1.31677092052996158599853515625">
        <ele>1049</ele>
        <time>2020-08-12T06:50:36.000Z</time>
      </trkpt>
      <trkpt lat="42.3284787498414516448974609375" lon="1.31685473956167697906494140625">
        <ele>1050.199951171875</ele>
        <time>2020-08-12T06:50:41.000Z</time>
      </trkpt>
      <trkpt lat="42.3284562863409519195556640625" lon="1.31693537347018718719482421875">
        <ele>1051.199951171875</ele>
        <time>2020-08-12T06:50:46.000Z</time>
      </trkpt>
      <trkpt lat="42.32844513840973377227783203125" lon="1.31698180921375751495361328125">
        <ele>1052</ele>
        <time>2020-08-12T06:50:49.000Z</time>
      </trkpt>
      <trkpt lat="42.32843331992626190185546875" lon="1.31701215170323848724365234375">
        <ele>1052.199951171875</ele>
        <time>2020-08-12T06:50:51.000Z</time>
      </trkpt>
      <trkpt lat="42.32838931493461132049560546875" lon="1.31710066460072994232177734375">
        <ele>1052.5999755859375</ele>
        <time>2020-08-12T06:50:57.000Z</time>
      </trkpt>
      <trkpt lat="42.32833868823945522308349609375" lon="1.317210383713245391845703125">
        <ele>1052.5999755859375</ele>
        <time>2020-08-12T06:51:04.000Z</time>
      </trkpt>
      <trkpt lat="42.3282718844711780548095703125" lon="1.31735346280038356781005859375">
        <ele>1052.800048828125</ele>
        <time>2020-08-12T06:51:13.000Z</time>
      </trkpt>
      <trkpt lat="42.32822410762310028076171875" lon="1.31753333844244480133056640625">
        <ele>1053</ele>
        <time>2020-08-12T06:51:21.000Z</time>
      </trkpt>
      <trkpt lat="42.32820273377001285552978515625" lon="1.31769393570721149444580078125">
        <ele>1052.4000244140625</ele>
        <time>2020-08-12T06:51:27.000Z</time>
      </trkpt>
      <trkpt lat="42.32818898744881153106689453125" lon="1.31792779080569744110107421875">
        <ele>1052.199951171875</ele>
        <time>2020-08-12T06:51:34.000Z</time>
      </trkpt>
      <trkpt lat="42.32817423529922962188720703125" lon="1.31810314022004604339599609375">
        <ele>1052.800048828125</ele>
        <time>2020-08-12T06:51:41.000Z</time>
      </trkpt>
      <trkpt lat="42.32816954143345355987548828125" lon="1.3181469775736331939697265625">
        <ele>1053.199951171875</ele>
        <time>2020-08-12T06:51:43.000Z</time>
      </trkpt>
      <trkpt lat="42.32815160416066646575927734375" lon="1.31823775358498096466064453125">
        <ele>1054</ele>
        <time>2020-08-12T06:51:47.000Z</time>
      </trkpt>
      <trkpt lat="42.32814556919038295745849609375" lon="1.3182592950761318206787109375">
        <ele>1054.4000244140625</ele>
        <time>2020-08-12T06:51:48.000Z</time>
      </trkpt>
      <trkpt lat="42.328111119568347930908203125" lon="1.3183749653398990631103515625">
        <ele>1054.800048828125</ele>
        <time>2020-08-12T06:51:53.000Z</time>
      </trkpt>
      <trkpt lat="42.32805781066417694091796875" lon="1.31851720623672008514404296875">
        <ele>1055</ele>
        <time>2020-08-12T06:52:00.000Z</time>
      </trkpt>
      <trkpt lat="42.328031994402408599853515625" lon="1.3185949064791202545166015625">
        <ele>1055.199951171875</ele>
        <time>2020-08-12T06:52:03.000Z</time>
      </trkpt>
      <trkpt lat="42.32801414094865322113037109375" lon="1.31870068609714508056640625">
        <ele>1055.5999755859375</ele>
        <time>2020-08-12T06:52:07.000Z</time>
      </trkpt>
      <trkpt lat="42.327974997460842132568359375" lon="1.318856589496135711669921875">
        <ele>1056</ele>
        <time>2020-08-12T06:52:14.000Z</time>
      </trkpt>
      <trkpt lat="42.32795010320842266082763671875" lon="1.3191038556396961212158203125">
        <ele>1055.5999755859375</ele>
        <time>2020-08-12T06:52:21.000Z</time>
      </trkpt>
      <trkpt lat="42.327942810952663421630859375" lon="1.31932723335921764373779296875">
        <ele>1055</ele>
        <time>2020-08-12T06:52:25.000Z</time>
      </trkpt>
      <trkpt lat="42.32794649899005889892578125" lon="1.31939001381397247314453125">
        <ele>1054.800048828125</ele>
        <time>2020-08-12T06:52:26.000Z</time>
      </trkpt>
      <trkpt lat="42.32796133495867252349853515625" lon="1.31962277926504611968994140625">
        <ele>1054.800048828125</ele>
        <time>2020-08-12T06:52:31.000Z</time>
      </trkpt>
      <trkpt lat="42.32794473879039287567138671875" lon="1.31979863159358501434326171875">
        <ele>1055.800048828125</ele>
        <time>2020-08-12T06:52:38.000Z</time>
      </trkpt>
      <trkpt lat="42.3279305733740329742431640625" lon="1.31988563574850559234619140625">
        <ele>1056.199951171875</ele>
        <time>2020-08-12T06:52:42.000Z</time>
      </trkpt>
      <trkpt lat="42.3279342614114284515380859375" lon="1.3199313171207904815673828125">
        <ele>1056.4000244140625</ele>
        <time>2020-08-12T06:52:44.000Z</time>
      </trkpt>
      <trkpt lat="42.3280160687863826751708984375" lon="1.32004522718489170074462890625">
        <ele>1055.800048828125</ele>
        <time>2020-08-12T06:52:49.000Z</time>
      </trkpt>
      <trkpt lat="42.3281773366034030914306640625" lon="1.3200801797211170196533203125">
        <ele>1055.199951171875</ele>
        <time>2020-08-12T06:52:54.000Z</time>
      </trkpt>
      <trkpt lat="42.3282516002655029296875" lon="1.32008613087236881256103515625">
        <ele>1055</ele>
        <time>2020-08-12T06:52:56.000Z</time>
      </trkpt>
      <trkpt lat="42.328386045992374420166015625" lon="1.32008730433881282806396484375">
        <ele>1054.199951171875</ele>
        <time>2020-08-12T06:53:00.000Z</time>
      </trkpt>
      <trkpt lat="42.32842124998569488525390625" lon="1.32007976062595844268798828125">
        <ele>1054</ele>
        <time>2020-08-12T06:53:01.000Z</time>
      </trkpt>
      <trkpt lat="42.3285743035376071929931640625" lon="1.32004925049841403961181640625">
        <ele>1052.800048828125</ele>
        <time>2020-08-12T06:53:05.000Z</time>
      </trkpt>
      <trkpt lat="42.328614033758640289306640625" lon="1.32003567181527614593505859375">
        <ele>1052.5999755859375</ele>
        <time>2020-08-12T06:53:06.000Z</time>
      </trkpt>
      <trkpt lat="42.328693829476833343505859375" lon="1.32000348530709743499755859375">
        <ele>1051.199951171875</ele>
        <time>2020-08-12T06:53:08.000Z</time>
      </trkpt>
      <trkpt lat="42.328774966299533843994140625" lon="1.319965682923793792724609375">
        <ele>1050.199951171875</ele>
        <time>2020-08-12T06:53:10.000Z</time>
      </trkpt>
      <trkpt lat="42.328813187777996063232421875" lon="1.31994414143264293670654296875">
        <ele>1049.800048828125</ele>
        <time>2020-08-12T06:53:11.000Z</time>
      </trkpt>
      <trkpt lat="42.3288913071155548095703125" lon="1.3199021480977535247802734375">
        <ele>1049.4000244140625</ele>
        <time>2020-08-12T06:53:13.000Z</time>
      </trkpt>
      <trkpt lat="42.3289353959262371063232421875" lon="1.31988161243498325347900390625">
        <ele>1049.199951171875</ele>
        <time>2020-08-12T06:53:14.000Z</time>
      </trkpt>
      <trkpt lat="42.32897537760436534881591796875" lon="1.31985537707805633544921875">
        <ele>1049</ele>
        <time>2020-08-12T06:53:15.000Z</time>
      </trkpt>
      <trkpt lat="42.3290540836751461029052734375" lon="1.319787986576557159423828125">
        <ele>1048.800048828125</ele>
        <time>2020-08-12T06:53:17.000Z</time>
      </trkpt>
      <trkpt lat="42.32912323437631130218505859375" lon="1.3196937739849090576171875">
        <ele>1047.5999755859375</ele>
        <time>2020-08-12T06:53:19.000Z</time>
      </trkpt>
      <trkpt lat="42.32919649221003055572509765625" lon="1.31960819475352764129638671875">
        <ele>1046.199951171875</ele>
        <time>2020-08-12T06:53:21.000Z</time>
      </trkpt>
      <trkpt lat="42.329373769462108612060546875" lon="1.3195440731942653656005859375">
        <ele>1045.5999755859375</ele>
        <time>2020-08-12T06:53:25.000Z</time>
      </trkpt>
      <trkpt lat="42.32950159348547458648681640625" lon="1.3195946998894214630126953125">
        <ele>1045.4000244140625</ele>
        <time>2020-08-12T06:53:28.000Z</time>
      </trkpt>
      <trkpt lat="42.32954769395291805267333984375" lon="1.3196161575615406036376953125">
        <ele>1045.4000244140625</ele>
        <time>2020-08-12T06:53:29.000Z</time>
      </trkpt>
      <trkpt lat="42.3296988196671009063720703125" lon="1.3196865655481815338134765625">
        <ele>1045.4000244140625</ele>
        <time>2020-08-12T06:53:32.000Z</time>
      </trkpt>
      <trkpt lat="42.32975455932319164276123046875" lon="1.31969452835619449615478515625">
        <ele>1045</ele>
        <time>2020-08-12T06:53:33.000Z</time>
      </trkpt>
      <trkpt lat="42.329814322292804718017578125" lon="1.31969712674617767333984375">
        <ele>1044.5999755859375</ele>
        <time>2020-08-12T06:53:34.000Z</time>
      </trkpt>
      <trkpt lat="42.329870648682117462158203125" lon="1.3196905888617038726806640625">
        <ele>1043.800048828125</ele>
        <time>2020-08-12T06:53:35.000Z</time>
      </trkpt>
      <trkpt lat="42.33002311550080776214599609375" lon="1.3196516968309879302978515625">
        <ele>1042.800048828125</ele>
        <time>2020-08-12T06:53:38.000Z</time>
      </trkpt>
      <trkpt lat="42.33011112548410892486572265625" lon="1.319617331027984619140625">
        <ele>1042.800048828125</ele>
        <time>2020-08-12T06:53:40.000Z</time>
      </trkpt>
      <trkpt lat="42.33022830449044704437255859375" lon="1.319565363228321075439453125">
        <ele>1042.800048828125</ele>
        <time>2020-08-12T06:53:43.000Z</time>
      </trkpt>
      <trkpt lat="42.33034062199294567108154296875" lon="1.31960869766771793365478515625">
        <ele>1042.800048828125</ele>
        <time>2020-08-12T06:53:46.000Z</time>
      </trkpt>
      <trkpt lat="42.33043433167040348052978515625" lon="1.31967742927372455596923828125">
        <ele>1042.800048828125</ele>
        <time>2020-08-12T06:53:49.000Z</time>
      </trkpt>
      <trkpt lat="42.33050666749477386474609375" lon="1.3197090290486812591552734375">
        <ele>1042.5999755859375</ele>
        <time>2020-08-12T06:53:51.000Z</time>
      </trkpt>
      <trkpt lat="42.33061672188341617584228515625" lon="1.31974129937589168548583984375">
        <ele>1041.199951171875</ele>
        <time>2020-08-12T06:53:54.000Z</time>
      </trkpt>
      <trkpt lat="42.33071244321763515472412109375" lon="1.319771893322467803955078125">
        <ele>1041.5999755859375</ele>
        <time>2020-08-12T06:53:57.000Z</time>
      </trkpt>
      <trkpt lat="42.3308219946920871734619140625" lon="1.31978371180593967437744140625">
        <ele>1042.5999755859375</ele>
        <time>2020-08-12T06:54:01.000Z</time>
      </trkpt>
      <trkpt lat="42.330892570316791534423828125" lon="1.319796703755855560302734375">
        <ele>1042.800048828125</ele>
        <time>2020-08-12T06:54:04.000Z</time>
      </trkpt>
      <trkpt lat="42.33103916980326175689697265625" lon="1.31981271319091320037841796875">
        <ele>1043.199951171875</ele>
        <time>2020-08-12T06:54:11.000Z</time>
      </trkpt>
      <trkpt lat="42.3310814984142780303955078125" lon="1.319818161427974700927734375">
        <ele>1043.5999755859375</ele>
        <time>2020-08-12T06:54:13.000Z</time>
      </trkpt>
      <trkpt lat="42.331161797046661376953125" lon="1.31983249448239803314208984375">
        <ele>1043.5999755859375</ele>
        <time>2020-08-12T06:54:17.000Z</time>
      </trkpt>
      <trkpt lat="42.33130001462996006011962890625" lon="1.31985244341194629669189453125">
        <ele>1044.5999755859375</ele>
        <time>2020-08-12T06:54:24.000Z</time>
      </trkpt>
      <trkpt lat="42.3313389904797077178955078125" lon="1.3198555447161197662353515625">
        <ele>1044.800048828125</ele>
        <time>2020-08-12T06:54:26.000Z</time>
      </trkpt>
      <trkpt lat="42.33151442371308803558349609375" lon="1.3197975419461727142333984375">
        <ele>1045.4000244140625</ele>
        <time>2020-08-12T06:54:35.000Z</time>
      </trkpt>
      <trkpt lat="42.33155499212443828582763671875" lon="1.31976946257054805755615234375">
        <ele>1045.5999755859375</ele>
        <time>2020-08-12T06:54:37.000Z</time>
      </trkpt>
      <trkpt lat="42.331695891916751861572265625" lon="1.31965689361095428466796875">
        <ele>1045.4000244140625</ele>
        <time>2020-08-12T06:54:42.000Z</time>
      </trkpt>
      <trkpt lat="42.3318336904048919677734375" lon="1.31955823861062526702880859375">
        <ele>1044</ele>
        <time>2020-08-12T06:54:45.000Z</time>
      </trkpt>
      <trkpt lat="42.33192731626331806182861328125" lon="1.3194921053946018218994140625">
        <ele>1043</ele>
        <time>2020-08-12T06:54:47.000Z</time>
      </trkpt>
      <trkpt lat="42.33196319080889225006103515625" lon="1.3194689713418483734130859375">
        <ele>1042.800048828125</ele>
        <time>2020-08-12T06:54:48.000Z</time>
      </trkpt>
      <trkpt lat="42.33204097487032413482666015625" lon="1.31943502463400363922119140625">
        <ele>1042.4000244140625</ele>
        <time>2020-08-12T06:54:51.000Z</time>
      </trkpt>
      <trkpt lat="42.33207550831139087677001953125" lon="1.31942245177924633026123046875">
        <ele>1041.4000244140625</ele>
        <time>2020-08-12T06:54:55.000Z</time>
      </trkpt>
      <trkpt lat="42.3320742510259151458740234375" lon="1.31942530162632465362548828125">
        <ele>1041.5999755859375</ele>
        <time>2020-08-12T06:55:10.000Z</time>
      </trkpt>
      <trkpt lat="42.33208271674811840057373046875" lon="1.31941608153283596038818359375">
        <ele>1041.4000244140625</ele>
        <time>2020-08-12T06:55:20.000Z</time>
      </trkpt>
      <trkpt lat="42.332177348434925079345703125" lon="1.3193665444850921630859375">
        <ele>1042</ele>
        <time>2020-08-12T06:55:26.000Z</time>
      </trkpt>
      <trkpt lat="42.33229947276413440704345703125" lon="1.31928767077624797821044921875">
        <ele>1042.199951171875</ele>
        <time>2020-08-12T06:55:32.000Z</time>
      </trkpt>
      <trkpt lat="42.33237373642623424530029296875" lon="1.3191890157759189605712890625">
        <ele>1042.5999755859375</ele>
        <time>2020-08-12T06:55:37.000Z</time>
      </trkpt>
      <trkpt lat="42.3323873989284038543701171875" lon="1.31916697137057781219482421875">
        <ele>1042.5999755859375</ele>
        <time>2020-08-12T06:55:38.000Z</time>
      </trkpt>
      <trkpt lat="42.33246593736112117767333984375" lon="1.3190988264977931976318359375">
        <ele>1043.4000244140625</ele>
        <time>2020-08-12T06:55:43.000Z</time>
      </trkpt>
      <trkpt lat="42.33250717632472515106201171875" lon="1.31907762028276920318603515625">
        <ele>1043.5999755859375</ele>
        <time>2020-08-12T06:55:45.000Z</time>
      </trkpt>
      <trkpt lat="42.3325543664395809173583984375" lon="1.31907024420797824859619140625">
        <ele>1043.5999755859375</ele>
        <time>2020-08-12T06:55:47.000Z</time>
      </trkpt>
      <trkpt lat="42.33268998563289642333984375" lon="1.3190435059368610382080078125">
        <ele>1043.4000244140625</ele>
        <time>2020-08-12T06:55:53.000Z</time>
      </trkpt>
      <trkpt lat="42.3328824341297149658203125" lon="1.31903956644237041473388671875">
        <ele>1043.5999755859375</ele>
        <time>2020-08-12T06:56:01.000Z</time>
      </trkpt>
      <trkpt lat="42.33306222595274448394775390625" lon="1.319073177874088287353515625">
        <ele>1043.4000244140625</ele>
        <time>2020-08-12T06:56:09.000Z</time>
      </trkpt>
      <trkpt lat="42.3332296125590801239013671875" lon="1.31903872825205326080322265625">
        <ele>1043.800048828125</ele>
        <time>2020-08-12T06:56:16.000Z</time>
      </trkpt>
      <trkpt lat="42.3333804868161678314208984375" lon="1.319000087678432464599609375">
        <ele>1043.5999755859375</ele>
        <time>2020-08-12T06:56:21.000Z</time>
      </trkpt>
      <trkpt lat="42.3335139267146587371826171875" lon="1.318973936140537261962890625">
        <ele>1042</ele>
        <time>2020-08-12T06:56:25.000Z</time>
      </trkpt>
      <trkpt lat="42.33354820869863033294677734375" lon="1.31896513514220714569091796875">
        <ele>1041.5999755859375</ele>
        <time>2020-08-12T06:56:26.000Z</time>
      </trkpt>
      <trkpt lat="42.33358693309128284454345703125" lon="1.318961195647716522216796875">
        <ele>1041.5999755859375</ele>
        <time>2020-08-12T06:56:27.000Z</time>
      </trkpt>
      <trkpt lat="42.33366656117141246795654296875" lon="1.318975277245044708251953125">
        <ele>1041</ele>
        <time>2020-08-12T06:56:29.000Z</time>
      </trkpt>
      <trkpt lat="42.333704531192779541015625" lon="1.318987347185611724853515625">
        <ele>1040.800048828125</ele>
        <time>2020-08-12T06:56:30.000Z</time>
      </trkpt>
      <trkpt lat="42.33378390781581401824951171875" lon="1.31904191337525844573974609375">
        <ele>1039.800048828125</ele>
        <time>2020-08-12T06:56:32.000Z</time>
      </trkpt>
      <trkpt lat="42.333859764039516448974609375" lon="1.31907342933118343353271484375">
        <ele>1038.800048828125</ele>
        <time>2020-08-12T06:56:34.000Z</time>
      </trkpt>
      <trkpt lat="42.333942241966724395751953125" lon="1.31909505464136600494384765625">
        <ele>1037.5999755859375</ele>
        <time>2020-08-12T06:56:36.000Z</time>
      </trkpt>
      <trkpt lat="42.33402572572231292724609375" lon="1.31912958808243274688720703125">
        <ele>1036.800048828125</ele>
        <time>2020-08-12T06:56:38.000Z</time>
      </trkpt>
      <trkpt lat="42.33407626859843730926513671875" lon="1.3191474415361881256103515625">
        <ele>1036</ele>
        <time>2020-08-12T06:56:39.000Z</time>
      </trkpt>
      <trkpt lat="42.334175594151020050048828125" lon="1.31916713900864124298095703125">
        <ele>1035</ele>
        <time>2020-08-12T06:56:41.000Z</time>
      </trkpt>
      <trkpt lat="42.334229238331317901611328125" lon="1.31915758363902568817138671875">
        <ele>1034.5999755859375</ele>
        <time>2020-08-12T06:56:42.000Z</time>
      </trkpt>
      <trkpt lat="42.33428665436804294586181640625" lon="1.31914459168910980224609375">
        <ele>1034.4000244140625</ele>
        <time>2020-08-12T06:56:43.000Z</time>
      </trkpt>
      <trkpt lat="42.33437986113131046295166015625" lon="1.31913520395755767822265625">
        <ele>1033.800048828125</ele>
        <time>2020-08-12T06:56:45.000Z</time>
      </trkpt>
      <trkpt lat="42.3344141431152820587158203125" lon="1.31913998164236545562744140625">
        <ele>1033.4000244140625</ele>
        <time>2020-08-12T06:56:46.000Z</time>
      </trkpt>
      <trkpt lat="42.334522269666194915771484375" lon="1.31920200772583484649658203125">
        <ele>1032.4000244140625</ele>
        <time>2020-08-12T06:56:49.000Z</time>
      </trkpt>
      <trkpt lat="42.3345552943646907806396484375" lon="1.31923520006239414215087890625">
        <ele>1031.4000244140625</ele>
        <time>2020-08-12T06:56:50.000Z</time>
      </trkpt>
      <trkpt lat="42.33458572067320346832275390625" lon="1.3192765228450298309326171875">
        <ele>1031</ele>
        <time>2020-08-12T06:56:51.000Z</time>
      </trkpt>
      <trkpt lat="42.33472083695232868194580078125" lon="1.31942999549210071563720703125">
        <ele>1030</ele>
        <time>2020-08-12T06:56:55.000Z</time>
      </trkpt>
      <trkpt lat="42.3347608186304569244384765625" lon="1.3194669596850872039794921875">
        <ele>1030</ele>
        <time>2020-08-12T06:56:56.000Z</time>
      </trkpt>
      <trkpt lat="42.33484421856701374053955078125" lon="1.319541223347187042236328125">
        <ele>1029.4000244140625</ele>
        <time>2020-08-12T06:56:58.000Z</time>
      </trkpt>
      <trkpt lat="42.3349234275519847869873046875" lon="1.31960819475352764129638671875">
        <ele>1028.800048828125</ele>
        <time>2020-08-12T06:57:00.000Z</time>
      </trkpt>
      <trkpt lat="42.33496315777301788330078125" lon="1.3196361064910888671875">
        <ele>1028.5999755859375</ele>
        <time>2020-08-12T06:57:01.000Z</time>
      </trkpt>
      <trkpt lat="42.33499995432794094085693359375" lon="1.31967105902731418609619140625">
        <ele>1028</ele>
        <time>2020-08-12T06:57:02.000Z</time>
      </trkpt>
      <trkpt lat="42.33507170341908931732177734375" lon="1.31973157636821269989013671875">
        <ele>1027.5999755859375</ele>
        <time>2020-08-12T06:57:04.000Z</time>
      </trkpt>
      <trkpt lat="42.33510573394596576690673828125" lon="1.3197656907141208648681640625">
        <ele>1027.199951171875</ele>
        <time>2020-08-12T06:57:05.000Z</time>
      </trkpt>
      <trkpt lat="42.335136830806732177734375" lon="1.31979393772780895233154296875">
        <ele>1026.800048828125</ele>
        <time>2020-08-12T06:57:06.000Z</time>
      </trkpt>
      <trkpt lat="42.33520162291824817657470703125" lon="1.31983702071011066436767578125">
        <ele>1025.800048828125</ele>
        <time>2020-08-12T06:57:08.000Z</time>
      </trkpt>
      <trkpt lat="42.33530472032725811004638671875" lon="1.3198977895081043243408203125">
        <ele>1025</ele>
        <time>2020-08-12T06:57:11.000Z</time>
      </trkpt>
      <trkpt lat="42.3353371582925319671630859375" lon="1.31992100737988948822021484375">
        <ele>1024.4000244140625</ele>
        <time>2020-08-12T06:57:12.000Z</time>
      </trkpt>
      <trkpt lat="42.3354283533990383148193359375" lon="1.32000097073614597320556640625">
        <ele>1023.4000244140625</ele>
        <time>2020-08-12T06:57:15.000Z</time>
      </trkpt>
      <trkpt lat="42.3354578576982021331787109375" lon="1.320030055940151214599609375">
        <ele>1023</ele>
        <time>2020-08-12T06:57:16.000Z</time>
      </trkpt>
      <trkpt lat="42.33553069643676280975341796875" lon="1.3200758211314678192138671875">
        <ele>1022</ele>
        <time>2020-08-12T06:57:18.000Z</time>
      </trkpt>
      <trkpt lat="42.335640080273151397705078125" lon="1.320113204419612884521484375">
        <ele>1020.5999755859375</ele>
        <time>2020-08-12T06:57:21.000Z</time>
      </trkpt>
      <trkpt lat="42.3357451893389225006103515625" lon="1.32016274146735668182373046875">
        <ele>1019</ele>
        <time>2020-08-12T06:57:24.000Z</time>
      </trkpt>
      <trkpt lat="42.33581702224910259246826171875" lon="1.32017766125500202178955078125">
        <ele>1017.4000244140625</ele>
        <time>2020-08-12T06:57:26.000Z</time>
      </trkpt>
      <trkpt lat="42.33589866198599338531494140625" lon="1.32018889300525188446044921875">
        <ele>1015.20001220703125</ele>
        <time>2020-08-12T06:57:28.000Z</time>
      </trkpt>
      <trkpt lat="42.33598164282739162445068359375" lon="1.32018973119556903839111328125">
        <ele>1014</ele>
        <time>2020-08-12T06:57:30.000Z</time>
      </trkpt>
      <trkpt lat="42.33602137304842472076416015625" lon="1.32019107230007648468017578125">
        <ele>1013.5999755859375</ele>
        <time>2020-08-12T06:57:31.000Z</time>
      </trkpt>
      <trkpt lat="42.33614274300634860992431640625" lon="1.32017699070274829864501953125">
        <ele>1012.4000244140625</ele>
        <time>2020-08-12T06:57:34.000Z</time>
      </trkpt>
      <trkpt lat="42.33621851541101932525634765625" lon="1.32017212919890880584716796875">
        <ele>1011.79998779296875</ele>
        <time>2020-08-12T06:57:36.000Z</time>
      </trkpt>
      <trkpt lat="42.3362997360527515411376953125" lon="1.3201589696109294891357421875">
        <ele>1011</ele>
        <time>2020-08-12T06:57:38.000Z</time>
      </trkpt>
      <trkpt lat="42.33642035163938999176025390625" lon="1.320150084793567657470703125">
        <ele>1010</ele>
        <time>2020-08-12T06:57:41.000Z</time>
      </trkpt>
      <trkpt lat="42.3364583216607570648193359375" lon="1.32014664821326732635498046875">
        <ele>1009.5999755859375</ele>
        <time>2020-08-12T06:57:42.000Z</time>
      </trkpt>
      <trkpt lat="42.33653183095157146453857421875" lon="1.320142708718776702880859375">
        <ele>1008.20001220703125</ele>
        <time>2020-08-12T06:57:44.000Z</time>
      </trkpt>
      <trkpt lat="42.33660869300365447998046875" lon="1.32014949806034564971923828125">
        <ele>1007</ele>
        <time>2020-08-12T06:57:46.000Z</time>
      </trkpt>
      <trkpt lat="42.33664356172084808349609375" lon="1.32014865987002849578857421875">
        <ele>1006.4000244140625</ele>
        <time>2020-08-12T06:57:47.000Z</time>
      </trkpt>
      <trkpt lat="42.33669578097760677337646484375" lon="1.3201475702226161956787109375">
        <ele>1005.79998779296875</ele>
        <time>2020-08-12T06:57:49.000Z</time>
      </trkpt>
      <trkpt lat="42.3367644287645816802978515625" lon="1.320164836943149566650390625">
        <ele>1004.5999755859375</ele>
        <time>2020-08-12T06:57:51.000Z</time>
      </trkpt>
      <trkpt lat="42.336842715740203857421875" lon="1.3201626576483249664306640625">
        <ele>1003.4000244140625</ele>
        <time>2020-08-12T06:57:53.000Z</time>
      </trkpt>
      <trkpt lat="42.33691354282200336456298828125" lon="1.32014363072812557220458984375">
        <ele>1002.20001220703125</ele>
        <time>2020-08-12T06:57:55.000Z</time>
      </trkpt>
      <trkpt lat="42.3369474895298480987548828125" lon="1.3201385177671909332275390625">
        <ele>1001.4000244140625</ele>
        <time>2020-08-12T06:57:56.000Z</time>
      </trkpt>
      <trkpt lat="42.33698277734220027923583984375" lon="1.3201321475207805633544921875">
        <ele>1000.5999755859375</ele>
        <time>2020-08-12T06:57:57.000Z</time>
      </trkpt>
      <trkpt lat="42.3370747268199920654296875" lon="1.32009937427937984466552734375">
        <ele>999.4000244140625</ele>
        <time>2020-08-12T06:58:00.000Z</time>
      </trkpt>
      <trkpt lat="42.3371251858770847320556640625" lon="1.32007087580859661102294921875">
        <ele>998.5999755859375</ele>
        <time>2020-08-12T06:58:02.000Z</time>
      </trkpt>
      <trkpt lat="42.33722752891480922698974609375" lon="1.32000516168773174285888671875">
        <ele>998</ele>
        <time>2020-08-12T06:58:05.000Z</time>
      </trkpt>
      <trkpt lat="42.33730732463300228118896484375" lon="1.3199584744870662689208984375">
        <ele>997.4000244140625</ele>
        <time>2020-08-12T06:58:07.000Z</time>
      </trkpt>
      <trkpt lat="42.337342612445354461669921875" lon="1.3199365139007568359375">
        <ele>996.79998779296875</ele>
        <time>2020-08-12T06:58:08.000Z</time>
      </trkpt>
      <trkpt lat="42.3374126851558685302734375" lon="1.31989385001361370086669921875">
        <ele>994.79998779296875</ele>
        <time>2020-08-12T06:58:10.000Z</time>
      </trkpt>
      <trkpt lat="42.33747948892414569854736328125" lon="1.31984959356486797332763671875">
        <ele>993.5999755859375</ele>
        <time>2020-08-12T06:58:12.000Z</time>
      </trkpt>
      <trkpt lat="42.33751419000327587127685546875" lon="1.31983048282563686370849609375">
        <ele>993.4000244140625</ele>
        <time>2020-08-12T06:58:13.000Z</time>
      </trkpt>
      <trkpt lat="42.33758610673248767852783203125" lon="1.3197854720056056976318359375">
        <ele>992.4000244140625</ele>
        <time>2020-08-12T06:58:15.000Z</time>
      </trkpt>
      <trkpt lat="42.33770160935819149017333984375" lon="1.31970844231545925140380859375">
        <ele>991</ele>
        <time>2020-08-12T06:58:18.000Z</time>
      </trkpt>
      <trkpt lat="42.3377353884279727935791015625" lon="1.31967566907405853271484375">
        <ele>990.79998779296875</ele>
        <time>2020-08-12T06:58:19.000Z</time>
      </trkpt>
      <trkpt lat="42.33777252025902271270751953125" lon="1.3196439854800701141357421875">
        <ele>989.79998779296875</ele>
        <time>2020-08-12T06:58:20.000Z</time>
      </trkpt>
      <trkpt lat="42.33784896321594715118408203125" lon="1.31956628523766994476318359375">
        <ele>988.20001220703125</ele>
        <time>2020-08-12T06:58:22.000Z</time>
      </trkpt>
      <trkpt lat="42.3378899507224559783935546875" lon="1.31952018477022647857666015625">
        <ele>987.4000244140625</ele>
        <time>2020-08-12T06:58:23.000Z</time>
      </trkpt>
      <trkpt lat="42.3379332013428211212158203125" lon="1.31946788169443607330322265625">
        <ele>986.79998779296875</ele>
        <time>2020-08-12T06:58:24.000Z</time>
      </trkpt>
      <trkpt lat="42.3379737697541713714599609375" lon="1.31940987892448902130126953125">
        <ele>986</ele>
        <time>2020-08-12T06:58:25.000Z</time>
      </trkpt>
      <trkpt lat="42.3380108177661895751953125" lon="1.3193477690219879150390625">
        <ele>985.20001220703125</ele>
        <time>2020-08-12T06:58:26.000Z</time>
      </trkpt>
      <trkpt lat="42.3380964808166027069091796875" lon="1.31915590725839138031005859375">
        <ele>984.5999755859375</ele>
        <time>2020-08-12T06:58:29.000Z</time>
      </trkpt>
      <trkpt lat="42.338114082813262939453125" lon="1.31909572519361972808837890625">
        <ele>984.4000244140625</ele>
        <time>2020-08-12T06:58:30.000Z</time>
      </trkpt>
      <trkpt lat="42.3381558246910572052001953125" lon="1.3189610280096530914306640625">
        <ele>984.79998779296875</ele>
        <time>2020-08-12T06:58:33.000Z</time>
      </trkpt>
      <trkpt lat="42.338226400315761566162109375" lon="1.31871971301734447479248046875">
        <ele>985.20001220703125</ele>
        <time>2020-08-12T06:58:41.000Z</time>
      </trkpt>
      <trkpt lat="42.3382248915731906890869140625" lon="1.31854671053588390350341796875">
        <ele>985.79998779296875</ele>
        <time>2020-08-12T06:58:46.000Z</time>
      </trkpt>
      <trkpt lat="42.3382007516920566558837890625" lon="1.3184599578380584716796875">
        <ele>986.4000244140625</ele>
        <time>2020-08-12T06:58:49.000Z</time>
      </trkpt>
      <trkpt lat="42.33816864900290966033935546875" lon="1.3184064812958240509033203125">
        <ele>987</ele>
        <time>2020-08-12T06:58:52.000Z</time>
      </trkpt>
      <trkpt lat="42.33812204562127590179443359375" lon="1.31828452460467815399169921875">
        <ele>986.79998779296875</ele>
        <time>2020-08-12T06:58:56.000Z</time>
      </trkpt>
      <trkpt lat="42.33812673948705196380615234375" lon="1.31824336946010589599609375">
        <ele>986.4000244140625</ele>
        <time>2020-08-12T06:58:57.000Z</time>
      </trkpt>
      <trkpt lat="42.33817317523062229156494140625" lon="1.3181634061038494110107421875">
        <ele>986.20001220703125</ele>
        <time>2020-08-12T06:59:00.000Z</time>
      </trkpt>
      <trkpt lat="42.33823478221893310546875" lon="1.3181587122380733489990234375">
        <ele>985.79998779296875</ele>
        <time>2020-08-12T06:59:03.000Z</time>
      </trkpt>
      <trkpt lat="42.3382614366710186004638671875" lon="1.3181536830961704254150390625">
        <ele>985.5999755859375</ele>
        <time>2020-08-12T06:59:04.000Z</time>
      </trkpt>
      <trkpt lat="42.33829018659889698028564453125" lon="1.31814739666879177093505859375">
        <ele>985.20001220703125</ele>
        <time>2020-08-12T06:59:05.000Z</time>
      </trkpt>
      <trkpt lat="42.3383439145982265472412109375" lon="1.31813130341470241546630859375">
        <ele>983.4000244140625</ele>
        <time>2020-08-12T06:59:07.000Z</time>
      </trkpt>
      <trkpt lat="42.33842454850673675537109375" lon="1.31809392012655735015869140625">
        <ele>982.20001220703125</ele>
        <time>2020-08-12T06:59:10.000Z</time>
      </trkpt>
      <trkpt lat="42.3385786078870296478271484375" lon="1.3180018030107021331787109375">
        <ele>981</ele>
        <time>2020-08-12T06:59:15.000Z</time>
      </trkpt>
      <trkpt lat="42.33862227760255336761474609375" lon="1.3179605640470981597900390625">
        <ele>980.20001220703125</ele>
        <time>2020-08-12T06:59:17.000Z</time>
      </trkpt>
      <trkpt lat="42.33863401226699352264404296875" lon="1.31793198175728321075439453125">
        <ele>980</ele>
        <time>2020-08-12T06:59:18.000Z</time>
      </trkpt>
      <trkpt lat="42.338643483817577362060546875" lon="1.31790004670619964599609375">
        <ele>979.4000244140625</ele>
        <time>2020-08-12T06:59:19.000Z</time>
      </trkpt>
      <trkpt lat="42.3386560566723346710205078125" lon="1.31777465343475341796875">
        <ele>978.79998779296875</ele>
        <time>2020-08-12T06:59:22.000Z</time>
      </trkpt>
      <trkpt lat="42.33865764923393726348876953125" lon="1.31773165427148342132568359375">
        <ele>978.5999755859375</ele>
        <time>2020-08-12T06:59:23.000Z</time>
      </trkpt>
      <trkpt lat="42.3386644385755062103271484375" lon="1.31759905256330966949462890625">
        <ele>977.79998779296875</ele>
        <time>2020-08-12T06:59:26.000Z</time>
      </trkpt>
      <trkpt lat="42.33866728842258453369140625" lon="1.3175582326948642730712890625">
        <ele>977.5999755859375</ele>
        <time>2020-08-12T06:59:27.000Z</time>
      </trkpt>
      <trkpt lat="42.3386599123477935791015625" lon="1.31734441034495830535888671875">
        <ele>976.20001220703125</ele>
        <time>2020-08-12T06:59:32.000Z</time>
      </trkpt>
      <trkpt lat="42.33863267116248607635498046875" lon="1.31724684499204158782958984375">
        <ele>975.20001220703125</ele>
        <time>2020-08-12T06:59:35.000Z</time>
      </trkpt>
      <trkpt lat="42.33862194232642650604248046875" lon="1.3172028400003910064697265625">
        <ele>974.79998779296875</ele>
        <time>2020-08-12T06:59:37.000Z</time>
      </trkpt>
      <trkpt lat="42.3386061005294322967529296875" lon="1.31716646254062652587890625">
        <ele>974.5999755859375</ele>
        <time>2020-08-12T06:59:39.000Z</time>
      </trkpt>
      <trkpt lat="42.3385910131037235260009765625" lon="1.31711508147418498992919921875">
        <ele>973.79998779296875</ele>
        <time>2020-08-12T06:59:41.000Z</time>
      </trkpt>
      <trkpt lat="42.3385843075811862945556640625" lon="1.31707652471959590911865234375">
        <ele>973.20001220703125</ele>
        <time>2020-08-12T06:59:42.000Z</time>
      </trkpt>
      <trkpt lat="42.3385782726109027862548828125" lon="1.3170439191162586212158203125">
        <ele>972.5999755859375</ele>
        <time>2020-08-12T06:59:43.000Z</time>
      </trkpt>
      <trkpt lat="42.33857248909771442413330078125" lon="1.31699840538203716278076171875">
        <ele>971.20001220703125</ele>
        <time>2020-08-12T06:59:45.000Z</time>
      </trkpt>
      <trkpt lat="42.33857718296349048614501953125" lon="1.3169718347489833831787109375">
        <ele>970.5999755859375</ele>
        <time>2020-08-12T06:59:46.000Z</time>
      </trkpt>
      <trkpt lat="42.33859595842659473419189453125" lon="1.3169310986995697021484375">
        <ele>970</ele>
        <time>2020-08-12T06:59:48.000Z</time>
      </trkpt>
      <trkpt lat="42.33864675275981426239013671875" lon="1.3169111497700214385986328125">
        <ele>969.4000244140625</ele>
        <time>2020-08-12T06:59:51.000Z</time>
      </trkpt>
      <trkpt lat="42.33866351656615734100341796875" lon="1.31691835820674896240234375">
        <ele>969.20001220703125</ele>
        <time>2020-08-12T06:59:52.000Z</time>
      </trkpt>
      <trkpt lat="42.3387211002409458160400390625" lon="1.3169259019196033477783203125">
        <ele>969</ele>
        <time>2020-08-12T06:59:55.000Z</time>
      </trkpt>
      <trkpt lat="42.33875035308301448822021484375" lon="1.31693621166050434112548828125">
        <ele>969.20001220703125</ele>
        <time>2020-08-12T06:59:57.000Z</time>
      </trkpt>
      <trkpt lat="42.33879393897950649261474609375" lon="1.31696437485516071319580078125">
        <ele>969.5999755859375</ele>
        <time>2020-08-12T07:00:00.000Z</time>
      </trkpt>
      <trkpt lat="42.3388488404452800750732421875" lon="1.31703126244246959686279296875">
        <ele>970</ele>
        <time>2020-08-12T07:00:04.000Z</time>
      </trkpt>
      <trkpt lat="42.33891413547098636627197265625" lon="1.3170888461172580718994140625">
        <ele>970.4000244140625</ele>
        <time>2020-08-12T07:00:08.000Z</time>
      </trkpt>
      <trkpt lat="42.33893148601055145263671875" lon="1.31709563545882701873779296875">
        <ele>970.5999755859375</ele>
        <time>2020-08-12T07:00:09.000Z</time>
      </trkpt>
      <trkpt lat="42.338970042765140533447265625" lon="1.3171183504164218902587890625">
        <ele>971</ele>
        <time>2020-08-12T07:00:11.000Z</time>
      </trkpt>
      <trkpt lat="42.33901270665228366851806640625" lon="1.31715497933328151702880859375">
        <ele>971.5999755859375</ele>
        <time>2020-08-12T07:00:14.000Z</time>
      </trkpt>
      <trkpt lat="42.33905193395912647247314453125" lon="1.317199654877185821533203125">
        <ele>972</ele>
        <time>2020-08-12T07:00:17.000Z</time>
      </trkpt>
      <trkpt lat="42.33906568028032779693603515625" lon="1.31720677949488162994384765625">
        <ele>972</ele>
        <time>2020-08-12T07:00:18.000Z</time>
      </trkpt>
      <trkpt lat="42.33907624147832393646240234375" lon="1.31721985526382923126220703125">
        <ele>972.20001220703125</ele>
        <time>2020-08-12T07:00:19.000Z</time>
      </trkpt>
      <trkpt lat="42.33908697031438350677490234375" lon="1.31723226048052310943603515625">
        <ele>972.20001220703125</ele>
        <time>2020-08-12T07:00:20.000Z</time>
      </trkpt>
      <trkpt lat="42.3391596414148807525634765625" lon="1.31727148778736591339111328125">
        <ele>973.4000244140625</ele>
        <time>2020-08-12T07:00:26.000Z</time>
      </trkpt>
      <trkpt lat="42.33918118290603160858154296875" lon="1.31728741340339183807373046875">
        <ele>974</ele>
        <time>2020-08-12T07:00:28.000Z</time>
      </trkpt>
      <trkpt lat="42.3392233438789844512939453125" lon="1.3173161633312702178955078125">
        <ele>974.5999755859375</ele>
        <time>2020-08-12T07:00:32.000Z</time>
      </trkpt>
      <trkpt lat="42.33926005661487579345703125" lon="1.3173416443169116973876953125">
        <ele>975.20001220703125</ele>
        <time>2020-08-12T07:00:35.000Z</time>
      </trkpt>
      <trkpt lat="42.33928377740085124969482421875" lon="1.31736234761774539947509765625">
        <ele>975.5999755859375</ele>
        <time>2020-08-12T07:00:37.000Z</time>
      </trkpt>
      <trkpt lat="42.3393256030976772308349609375" lon="1.3173942826688289642333984375">
        <ele>976.5999755859375</ele>
        <time>2020-08-12T07:00:41.000Z</time>
      </trkpt>
      <trkpt lat="42.3393946699798107147216796875" lon="1.3174271397292613983154296875">
        <ele>977.79998779296875</ele>
        <time>2020-08-12T07:00:47.000Z</time>
      </trkpt>
      <trkpt lat="42.3394043929874897003173828125" lon="1.3174382038414478302001953125">
        <ele>977.79998779296875</ele>
        <time>2020-08-12T07:00:48.000Z</time>
      </trkpt>
      <trkpt lat="42.339488379657268524169921875" lon="1.3175263814628124237060546875">
        <ele>978.5999755859375</ele>
        <time>2020-08-12T07:00:56.000Z</time>
      </trkpt>
      <trkpt lat="42.33954361639916896820068359375" lon="1.31761648692190647125244140625">
        <ele>979.20001220703125</ele>
        <time>2020-08-12T07:01:02.000Z</time>
      </trkpt>
      <trkpt lat="42.3395535908639430999755859375" lon="1.31763056851923465728759765625">
        <ele>979.20001220703125</ele>
        <time>2020-08-12T07:01:03.000Z</time>
      </trkpt>
      <trkpt lat="42.33961553312838077545166015625" lon="1.3177151419222354888916015625">
        <ele>979.5999755859375</ele>
        <time>2020-08-12T07:01:09.000Z</time>
      </trkpt>
      <trkpt lat="42.3396223224699497222900390625" lon="1.31773282773792743682861328125">
        <ele>979.5999755859375</ele>
        <time>2020-08-12T07:01:10.000Z</time>
      </trkpt>
      <trkpt lat="42.3396657407283782958984375" lon="1.31780357100069522857666015625">
        <ele>980.4000244140625</ele>
        <time>2020-08-12T07:01:15.000Z</time>
      </trkpt>
      <trkpt lat="42.339681498706340789794921875" lon="1.317822597920894622802734375">
        <ele>980.5999755859375</ele>
        <time>2020-08-12T07:01:17.000Z</time>
      </trkpt>
      <trkpt lat="42.33970907516777515411376953125" lon="1.317877583205699920654296875">
        <ele>981</ele>
        <time>2020-08-12T07:01:21.000Z</time>
      </trkpt>
      <trkpt lat="42.33978333882987499237060546875" lon="1.3180061616003513336181640625">
        <ele>980.79998779296875</ele>
        <time>2020-08-12T07:01:27.000Z</time>
      </trkpt>
      <trkpt lat="42.3398808203637599945068359375" lon="1.318129710853099822998046875">
        <ele>980.5999755859375</ele>
        <time>2020-08-12T07:01:34.000Z</time>
      </trkpt>
      <trkpt lat="42.33995500020682811737060546875" lon="1.3182767294347286224365234375">
        <ele>980.4000244140625</ele>
        <time>2020-08-12T07:01:40.000Z</time>
      </trkpt>
      <trkpt lat="42.34005273319780826568603515625" lon="1.318535394966602325439453125">
        <ele>979</ele>
        <time>2020-08-12T07:01:46.000Z</time>
      </trkpt>
      <trkpt lat="42.34011794440448284149169921875" lon="1.318688280880451202392578125">
        <ele>977.79998779296875</ele>
        <time>2020-08-12T07:01:50.000Z</time>
      </trkpt>
      <trkpt lat="42.340135462582111358642578125" lon="1.31871401332318782806396484375">
        <ele>977.5999755859375</ele>
        <time>2020-08-12T07:01:51.000Z</time>
      </trkpt>
      <trkpt lat="42.3402080498635768890380859375" lon="1.318793557584285736083984375">
        <ele>978.20001220703125</ele>
        <time>2020-08-12T07:01:56.000Z</time>
      </trkpt>
      <trkpt lat="42.34024576842784881591796875" lon="1.318867988884449005126953125">
        <ele>978.79998779296875</ele>
        <time>2020-08-12T07:02:00.000Z</time>
      </trkpt>
      <trkpt lat="42.34026781283318996429443359375" lon="1.318903528153896331787109375">
        <ele>979.4000244140625</ele>
        <time>2020-08-12T07:02:02.000Z</time>
      </trkpt>
      <trkpt lat="42.34029463492333889007568359375" lon="1.3189254887402057647705078125">
        <ele>979.79998779296875</ele>
        <time>2020-08-12T07:02:04.000Z</time>
      </trkpt>
      <trkpt lat="42.34034760855138301849365234375" lon="1.3189910352230072021484375">
        <ele>980.4000244140625</ele>
        <time>2020-08-12T07:02:08.000Z</time>
      </trkpt>
      <trkpt lat="42.34044735319912433624267578125" lon="1.3191605173051357269287109375">
        <ele>979.5999755859375</ele>
        <time>2020-08-12T07:02:14.000Z</time>
      </trkpt>
      <trkpt lat="42.34061247669160366058349609375" lon="1.31941809318959712982177734375">
        <ele>979</ele>
        <time>2020-08-12T07:02:22.000Z</time>
      </trkpt>
      <trkpt lat="42.3406942002475261688232421875" lon="1.31950945593416690826416015625">
        <ele>978.79998779296875</ele>
        <time>2020-08-12T07:02:25.000Z</time>
      </trkpt>
      <trkpt lat="42.34077877365052700042724609375" lon="1.319579444825649261474609375">
        <ele>978.79998779296875</ele>
        <time>2020-08-12T07:02:28.000Z</time>
      </trkpt>
      <trkpt lat="42.3409946076571941375732421875" lon="1.3196644373238086700439453125">
        <ele>978.4000244140625</ele>
        <time>2020-08-12T07:02:35.000Z</time>
      </trkpt>
      <trkpt lat="42.3411655984818935394287109375" lon="1.31977633573114871978759765625">
        <ele>978</ele>
        <time>2020-08-12T07:02:41.000Z</time>
      </trkpt>
      <trkpt lat="42.34135226346552371978759765625" lon="1.3198709674179553985595703125">
        <ele>977.79998779296875</ele>
        <time>2020-08-12T07:02:47.000Z</time>
      </trkpt>
      <trkpt lat="42.3414616473019123077392578125" lon="1.319924108684062957763671875">
        <ele>977.20001220703125</ele>
        <time>2020-08-12T07:02:50.000Z</time>
      </trkpt>
      <trkpt lat="42.34156734310090541839599609375" lon="1.31992268376052379608154296875">
        <ele>976.79998779296875</ele>
        <time>2020-08-12T07:02:53.000Z</time>
      </trkpt>
      <trkpt lat="42.34171293675899505615234375" lon="1.31985604763031005859375">
        <ele>977</ele>
        <time>2020-08-12T07:02:59.000Z</time>
      </trkpt>
      <trkpt lat="42.34182181768119335174560546875" lon="1.31984288804233074188232421875">
        <ele>977.4000244140625</ele>
        <time>2020-08-12T07:03:04.000Z</time>
      </trkpt>
      <trkpt lat="42.3419612087309360504150390625" lon="1.31985135376453399658203125">
        <ele>977.79998779296875</ele>
        <time>2020-08-12T07:03:11.000Z</time>
      </trkpt>
      <trkpt lat="42.34208174049854278564453125" lon="1.31985747255384922027587890625">
        <ele>978</ele>
        <time>2020-08-12T07:03:17.000Z</time>
      </trkpt>
      <trkpt lat="42.34212021343410015106201171875" lon="1.31986551918089389801025390625">
        <ele>978.4000244140625</ele>
        <time>2020-08-12T07:03:19.000Z</time>
      </trkpt>
      <trkpt lat="42.34219179488718509674072265625" lon="1.31988144479691982269287109375">
        <ele>978.5999755859375</ele>
        <time>2020-08-12T07:03:23.000Z</time>
      </trkpt>
      <trkpt lat="42.34228114597499370574951171875" lon="1.31988848559558391571044921875">
        <ele>979.4000244140625</ele>
        <time>2020-08-12T07:03:28.000Z</time>
      </trkpt>
      <trkpt lat="42.34230008907616138458251953125" lon="1.3198877312242984771728515625">
        <ele>979.5999755859375</ele>
        <time>2020-08-12T07:03:29.000Z</time>
      </trkpt>
      <trkpt lat="42.3423913680016994476318359375" lon="1.319892592728137969970703125">
        <ele>980</ele>
        <time>2020-08-12T07:03:34.000Z</time>
      </trkpt>
      <trkpt lat="42.34248943626880645751953125" lon="1.319857053458690643310546875">
        <ele>980.4000244140625</ele>
        <time>2020-08-12T07:03:39.000Z</time>
      </trkpt>
      <trkpt lat="42.34252288006246089935302734375" lon="1.319829560816287994384765625">
        <ele>980.4000244140625</ele>
        <time>2020-08-12T07:03:41.000Z</time>
      </trkpt>
      <trkpt lat="42.3426525481045246124267578125" lon="1.31971917115151882171630859375">
        <ele>981</ele>
        <time>2020-08-12T07:03:48.000Z</time>
      </trkpt>
      <trkpt lat="42.34279512427747249603271484375" lon="1.319580115377902984619140625">
        <ele>981</ele>
        <time>2020-08-12T07:03:55.000Z</time>
      </trkpt>
      <trkpt lat="42.342852540314197540283203125" lon="1.31952546536922454833984375">
        <ele>981.4000244140625</ele>
        <time>2020-08-12T07:03:58.000Z</time>
      </trkpt>
      <trkpt lat="42.3429506085813045501708984375" lon="1.3194414786994457244873046875">
        <ele>981.4000244140625</ele>
        <time>2020-08-12T07:04:03.000Z</time>
      </trkpt>
      <trkpt lat="42.343063093721866607666015625" lon="1.319350115954875946044921875">
        <ele>981.79998779296875</ele>
        <time>2020-08-12T07:04:09.000Z</time>
      </trkpt>
      <trkpt lat="42.34310500323772430419921875" lon="1.3192565739154815673828125">
        <ele>982.4000244140625</ele>
        <time>2020-08-12T07:04:14.000Z</time>
      </trkpt>
      <trkpt lat="42.34315236099064350128173828125" lon="1.31912707351148128509521484375">
        <ele>982.4000244140625</ele>
        <time>2020-08-12T07:04:19.000Z</time>
      </trkpt>
      <trkpt lat="42.3432235233485698699951171875" lon="1.31904694251716136932373046875">
        <ele>981.79998779296875</ele>
        <time>2020-08-12T07:04:24.000Z</time>
      </trkpt>
      <trkpt lat="42.343238107860088348388671875" lon="1.31905700080096721649169921875">
        <ele>982.20001220703125</ele>
        <time>2020-08-12T07:04:30.000Z</time>
      </trkpt>
      <trkpt lat="42.34323333017528057098388671875" lon="1.31904761306941509246826171875">
        <ele>982</ele>
        <time>2020-08-12T07:04:41.000Z</time>
      </trkpt>
      <trkpt lat="42.34323031269013881683349609375" lon="1.3190445117652416229248046875">
        <ele>982</ele>
        <time>2020-08-12T07:04:52.000Z</time>
      </trkpt>
      <trkpt lat="42.34323115088045597076416015625" lon="1.31904400885105133056640625">
        <ele>982</ele>
        <time>2020-08-12T07:05:06.000Z</time>
      </trkpt>
      <trkpt lat="42.3432292230427265167236328125" lon="1.31904643960297107696533203125">
        <ele>981.79998779296875</ele>
        <time>2020-08-12T07:05:14.000Z</time>
      </trkpt>
      <trkpt lat="42.34323031269013881683349609375" lon="1.31905431859195232391357421875">
        <ele>981.5999755859375</ele>
        <time>2020-08-12T07:05:24.000Z</time>
      </trkpt>
      <trkpt lat="42.34322980977594852447509765625" lon="1.3190549053251743316650390625">
        <ele>981.5999755859375</ele>
        <time>2020-08-12T07:05:30.000Z</time>
      </trkpt>
      <trkpt lat="42.3432277143001556396484375" lon="1.31905515678226947784423828125">
        <ele>981.5999755859375</ele>
        <time>2020-08-12T07:05:41.000Z</time>
      </trkpt>
      <trkpt lat="42.34321941621601581573486328125" lon="1.31903990171849727630615234375">
        <ele>981.5999755859375</ele>
        <time>2020-08-12T07:05:52.000Z</time>
      </trkpt>
      <trkpt lat="42.34322511591017246246337890625" lon="1.3190460205078125">
        <ele>981.20001220703125</ele>
        <time>2020-08-12T07:06:04.000Z</time>
      </trkpt>
      <trkpt lat="42.34322369098663330078125" lon="1.31904241628944873809814453125">
        <ele>981.4000244140625</ele>
        <time>2020-08-12T07:06:13.000Z</time>
      </trkpt>
      <trkpt lat="42.343224026262760162353515625" lon="1.31904811598360538482666015625">
        <ele>981.20001220703125</ele>
        <time>2020-08-12T07:06:21.000Z</time>
      </trkpt>
      <trkpt lat="42.3432228527963161468505859375" lon="1.31904342211782932281494140625">
        <ele>981</ele>
        <time>2020-08-12T07:06:30.000Z</time>
      </trkpt>
      <trkpt lat="42.34321841038763523101806640625" lon="1.31903973408043384552001953125">
        <ele>981</ele>
        <time>2020-08-12T07:06:39.000Z</time>
      </trkpt>
      <trkpt lat="42.34321941621601581573486328125" lon="1.31903990171849727630615234375">
        <ele>980.5999755859375</ele>
        <time>2020-08-12T07:06:50.000Z</time>
      </trkpt>
      <trkpt lat="42.3432188294827938079833984375" lon="1.31903939880430698394775390625">
        <ele>980.79998779296875</ele>
        <time>2020-08-12T07:07:00.000Z</time>
      </trkpt>
      <trkpt lat="42.3432184942066669464111328125" lon="1.31903939880430698394775390625">
        <ele>980.5999755859375</ele>
        <time>2020-08-12T07:07:08.000Z</time>
      </trkpt>
      <trkpt lat="42.3432184942066669464111328125" lon="1.319038979709148406982421875">
        <ele>980.4000244140625</ele>
        <time>2020-08-12T07:07:22.000Z</time>
      </trkpt>
      <trkpt lat="42.3432191647589206695556640625" lon="1.319039650261402130126953125">
        <ele>980.4000244140625</ele>
        <time>2020-08-12T07:07:28.000Z</time>
      </trkpt>
      <trkpt lat="42.34322293661534786224365234375" lon="1.3190334476530551910400390625">
        <ele>980.4000244140625</ele>
        <time>2020-08-12T07:07:43.000Z</time>
      </trkpt>
      <trkpt lat="42.343224696815013885498046875" lon="1.31903772242367267608642578125">
        <ele>980.4000244140625</ele>
        <time>2020-08-12T07:07:52.000Z</time>
      </trkpt>
      <trkpt lat="42.34321572817862033843994140625" lon="1.3190264068543910980224609375">
        <ele>980.20001220703125</ele>
        <time>2020-08-12T07:08:04.000Z</time>
      </trkpt>
      <trkpt lat="42.34321673400700092315673828125" lon="1.31902531720697879791259765625">
        <ele>980</ele>
        <time>2020-08-12T07:08:14.000Z</time>
      </trkpt>
      <trkpt lat="42.34321497380733489990234375" lon="1.3190240599215030670166015625">
        <ele>980</ele>
        <time>2020-08-12T07:08:27.000Z</time>
      </trkpt>
      <trkpt lat="42.34321765601634979248046875" lon="1.319026909768581390380859375">
        <ele>979.79998779296875</ele>
        <time>2020-08-12T07:08:47.000Z</time>
      </trkpt>
      <trkpt lat="42.34321740455925464630126953125" lon="1.3190274126827716827392578125">
        <ele>979.79998779296875</ele>
        <time>2020-08-12T07:08:50.000Z</time>
      </trkpt>
      <trkpt lat="42.34322478063404560089111328125" lon="1.31901810877025127410888671875">
        <ele>979.79998779296875</ele>
        <time>2020-08-12T07:08:51.000Z</time>
      </trkpt>
      <trkpt lat="42.34324020333588123321533203125" lon="1.31897837854921817779541015625">
        <ele>979.79998779296875</ele>
        <time>2020-08-12T07:08:54.000Z</time>
      </trkpt>
      <trkpt lat="42.34327398240566253662109375" lon="1.3188819028437137603759765625">
        <ele>980</ele>
        <time>2020-08-12T07:09:00.000Z</time>
      </trkpt>
      <trkpt lat="42.34329502098262310028076171875" lon="1.31874184124171733856201171875">
        <ele>980</ele>
        <time>2020-08-12T07:09:06.000Z</time>
      </trkpt>
      <trkpt lat="42.34332117252051830291748046875" lon="1.3186723552644252777099609375">
        <ele>980.79998779296875</ele>
        <time>2020-08-12T07:09:10.000Z</time>
      </trkpt>
      <trkpt lat="42.3433391936123371124267578125" lon="1.3186730258166790008544921875">
        <ele>981</ele>
        <time>2020-08-12T07:09:12.000Z</time>
      </trkpt>
      <trkpt lat="42.34338269568979740142822265625" lon="1.31868585012853145599365234375">
        <ele>981.4000244140625</ele>
        <time>2020-08-12T07:09:15.000Z</time>
      </trkpt>
      <trkpt lat="42.34345260076224803924560546875" lon="1.31870412267744541168212890625">
        <ele>982</ele>
        <time>2020-08-12T07:09:18.000Z</time>
      </trkpt>
      <trkpt lat="42.34351781196892261505126953125" lon="1.31868719123303890228271484375">
        <ele>982.20001220703125</ele>
        <time>2020-08-12T07:09:21.000Z</time>
      </trkpt>
      <trkpt lat="42.34355653636157512664794921875" lon="1.31865953095257282257080078125">
        <ele>982.5999755859375</ele>
        <time>2020-08-12T07:09:23.000Z</time>
      </trkpt>
      <trkpt lat="42.3435742221772670745849609375" lon="1.318640671670436859130859375">
        <ele>982.5999755859375</ele>
        <time>2020-08-12T07:09:24.000Z</time>
      </trkpt>
      <trkpt lat="42.3436057381331920623779296875" lon="1.3185922242701053619384765625">
        <ele>983.20001220703125</ele>
        <time>2020-08-12T07:09:27.000Z</time>
      </trkpt>
      <trkpt lat="42.34362644143402576446533203125" lon="1.31854637525975704193115234375">
        <ele>983.5999755859375</ele>
        <time>2020-08-12T07:09:30.000Z</time>
      </trkpt>
      <trkpt lat="42.34366131015121936798095703125" lon="1.31844545714557170867919921875">
        <ele>984.79998779296875</ele>
        <time>2020-08-12T07:09:36.000Z</time>
      </trkpt>
      <trkpt lat="42.34369349665939807891845703125" lon="1.3183893822133541107177734375">
        <ele>986</ele>
        <time>2020-08-12T07:09:41.000Z</time>
      </trkpt>
      <trkpt lat="42.34371520578861236572265625" lon="1.31837991066277027130126953125">
        <ele>986.4000244140625</ele>
        <time>2020-08-12T07:09:43.000Z</time>
      </trkpt>
      <trkpt lat="42.34372836537659168243408203125" lon="1.31837471388280391693115234375">
        <ele>986.4000244140625</ele>
        <time>2020-08-12T07:09:44.000Z</time>
      </trkpt>
      <trkpt lat="42.3437411896884441375732421875" lon="1.31837370805442333221435546875">
        <ele>986.4000244140625</ele>
        <time>2020-08-12T07:09:45.000Z</time>
      </trkpt>
      <trkpt lat="42.34380078501999378204345703125" lon="1.31838678382337093353271484375">
        <ele>987.20001220703125</ele>
        <time>2020-08-12T07:09:50.000Z</time>
      </trkpt>
      <trkpt lat="42.34382509253919124603271484375" lon="1.318389885127544403076171875">
        <ele>987.5999755859375</ele>
        <time>2020-08-12T07:09:52.000Z</time>
      </trkpt>
      <trkpt lat="42.34385828487575054168701171875" lon="1.31841092370450496673583984375">
        <ele>987.79998779296875</ele>
        <time>2020-08-12T07:09:55.000Z</time>
      </trkpt>
      <trkpt lat="42.34386817552149295806884765625" lon="1.31841863505542278289794921875">
        <ele>988.20001220703125</ele>
        <time>2020-08-12T07:09:56.000Z</time>
      </trkpt>
      <trkpt lat="42.34391662292182445526123046875" lon="1.3184490613639354705810546875">
        <ele>988.79998779296875</ele>
        <time>2020-08-12T07:10:01.000Z</time>
      </trkpt>
      <trkpt lat="42.343924753367900848388671875" lon="1.3184591196477413177490234375">
        <ele>989</ele>
        <time>2020-08-12T07:10:02.000Z</time>
      </trkpt>
      <trkpt lat="42.3439349792897701263427734375" lon="1.3184680044651031494140625">
        <ele>989.20001220703125</ele>
        <time>2020-08-12T07:10:03.000Z</time>
      </trkpt>
      <trkpt lat="42.34400060959160327911376953125" lon="1.318501532077789306640625">
        <ele>990.20001220703125</ele>
        <time>2020-08-12T07:10:09.000Z</time>
      </trkpt>
      <trkpt lat="42.344011925160884857177734375" lon="1.31850111298263072967529296875">
        <ele>990.4000244140625</ele>
        <time>2020-08-12T07:10:10.000Z</time>
      </trkpt>
      <trkpt lat="42.34408291988074779510498046875" lon="1.31846842356026172637939453125">
        <ele>991.4000244140625</ele>
        <time>2020-08-12T07:10:16.000Z</time>
      </trkpt>
      <trkpt lat="42.34409364871680736541748046875" lon="1.31845601834356784820556640625">
        <ele>991.5999755859375</ele>
        <time>2020-08-12T07:10:17.000Z</time>
      </trkpt>
      <trkpt lat="42.34416523016989231109619140625" lon="1.31835493259131908416748046875">
        <ele>992.4000244140625</ele>
        <time>2020-08-12T07:10:25.000Z</time>
      </trkpt>
      <trkpt lat="42.34417478553950786590576171875" lon="1.31834135390818119049072265625">
        <ele>992.4000244140625</ele>
        <time>2020-08-12T07:10:26.000Z</time>
      </trkpt>
      <trkpt lat="42.34425173141062259674072265625" lon="1.31824563257396221160888671875">
        <ele>993.20001220703125</ele>
        <time>2020-08-12T07:10:34.000Z</time>
      </trkpt>
      <trkpt lat="42.3443034477531909942626953125" lon="1.3181989453732967376708984375">
        <ele>993.20001220703125</ele>
        <time>2020-08-12T07:10:39.000Z</time>
      </trkpt>
      <trkpt lat="42.344320714473724365234375" lon="1.31818092428147792816162109375">
        <ele>993.4000244140625</ele>
        <time>2020-08-12T07:10:41.000Z</time>
      </trkpt>
      <trkpt lat="42.3443329520523548126220703125" lon="1.31817229092121124267578125">
        <ele>993.79998779296875</ele>
        <time>2020-08-12T07:10:42.000Z</time>
      </trkpt>
      <trkpt lat="42.34439405612647533416748046875" lon="1.3181231729686260223388671875">
        <ele>994</ele>
        <time>2020-08-12T07:10:48.000Z</time>
      </trkpt>
      <trkpt lat="42.34444317407906055450439453125" lon="1.31808855570852756500244140625">
        <ele>994.5999755859375</ele>
        <time>2020-08-12T07:10:52.000Z</time>
      </trkpt>
      <trkpt lat="42.34446815215051174163818359375" lon="1.3180678524076938629150390625">
        <ele>994.79998779296875</ele>
        <time>2020-08-12T07:10:54.000Z</time>
      </trkpt>
      <trkpt lat="42.344529926776885986328125" lon="1.318031810224056243896484375">
        <ele>995.20001220703125</ele>
        <time>2020-08-12T07:10:59.000Z</time>
      </trkpt>
      <trkpt lat="42.344543002545833587646484375" lon="1.318023763597011566162109375">
        <ele>995.4000244140625</ele>
        <time>2020-08-12T07:11:00.000Z</time>
      </trkpt>
      <trkpt lat="42.34458700753748416900634765625" lon="1.31797690875828266143798828125">
        <ele>995.5999755859375</ele>
        <time>2020-08-12T07:11:04.000Z</time>
      </trkpt>
      <trkpt lat="42.344624809920787811279296875" lon="1.317941285669803619384765625">
        <ele>995.79998779296875</ele>
        <time>2020-08-12T07:11:07.000Z</time>
      </trkpt>
      <trkpt lat="42.34464903362095355987548828125" lon="1.3179159723222255706787109375">
        <ele>995.79998779296875</ele>
        <time>2020-08-12T07:11:09.000Z</time>
      </trkpt>
      <trkpt lat="42.34466060064733028411865234375" lon="1.31790180690586566925048828125">
        <ele>996</ele>
        <time>2020-08-12T07:11:10.000Z</time>
      </trkpt>
      <trkpt lat="42.3447453416883945465087890625" lon="1.317800469696521759033203125">
        <ele>996.5999755859375</ele>
        <time>2020-08-12T07:11:18.000Z</time>
      </trkpt>
      <trkpt lat="42.3447731696069240570068359375" lon="1.31776057183742523193359375">
        <ele>997</ele>
        <time>2020-08-12T07:11:21.000Z</time>
      </trkpt>
      <trkpt lat="42.344839386641979217529296875" lon="1.3176893256604671478271484375">
        <ele>998</ele>
        <time>2020-08-12T07:11:27.000Z</time>
      </trkpt>
      <trkpt lat="42.34485589899122714996337890625" lon="1.317660324275493621826171875">
        <ele>998</ele>
        <time>2020-08-12T07:11:29.000Z</time>
      </trkpt>
      <trkpt lat="42.34488154761493206024169921875" lon="1.3175518624484539031982421875">
        <ele>998.79998779296875</ele>
        <time>2020-08-12T07:11:35.000Z</time>
      </trkpt>
      <trkpt lat="42.344885654747486114501953125" lon="1.31751506589353084564208984375">
        <ele>999.4000244140625</ele>
        <time>2020-08-12T07:11:37.000Z</time>
      </trkpt>
      <trkpt lat="42.3449012450873851776123046875" lon="1.3174259662628173828125">
        <ele>999.5999755859375</ele>
        <time>2020-08-12T07:11:42.000Z</time>
      </trkpt>
      <trkpt lat="42.34493116848170757293701171875" lon="1.317323707044124603271484375">
        <ele>999.79998779296875</ele>
        <time>2020-08-12T07:11:48.000Z</time>
      </trkpt>
      <trkpt lat="42.3449337668716907501220703125" lon="1.31730752997100353240966796875">
        <ele>999.79998779296875</ele>
        <time>2020-08-12T07:11:49.000Z</time>
      </trkpt>
      <trkpt lat="42.3449364490807056427001953125" lon="1.31727199070155620574951171875">
        <ele>999.79998779296875</ele>
        <time>2020-08-12T07:11:51.000Z</time>
      </trkpt>
      <trkpt lat="42.3449330963194370269775390625" lon="1.31722438149154186248779296875">
        <ele>1000.4000244140625</ele>
        <time>2020-08-12T07:11:54.000Z</time>
      </trkpt>
      <trkpt lat="42.34493234194815158843994140625" lon="1.317207701504230499267578125">
        <ele>1000.4000244140625</ele>
        <time>2020-08-12T07:11:55.000Z</time>
      </trkpt>
      <trkpt lat="42.34493200667202472686767578125" lon="1.31719085387885570526123046875">
        <ele>1000.4000244140625</ele>
        <time>2020-08-12T07:11:56.000Z</time>
      </trkpt>
      <trkpt lat="42.34494759701192378997802734375" lon="1.31709806621074676513671875">
        <ele>1000.5999755859375</ele>
        <time>2020-08-12T07:12:02.000Z</time>
      </trkpt>
      <trkpt lat="42.34494709409773349761962890625" lon="1.317081637680530548095703125">
        <ele>1000.79998779296875</ele>
        <time>2020-08-12T07:12:03.000Z</time>
      </trkpt>
      <trkpt lat="42.344948351383209228515625" lon="1.31700661964714527130126953125">
        <ele>1001</ele>
        <time>2020-08-12T07:12:07.000Z</time>
      </trkpt>
      <trkpt lat="42.34495983459055423736572265625" lon="1.3169544003903865814208984375">
        <ele>1001.20001220703125</ele>
        <time>2020-08-12T07:12:10.000Z</time>
      </trkpt>
      <trkpt lat="42.34496352262794971466064453125" lon="1.31693780422210693359375">
        <ele>1001.4000244140625</ele>
        <time>2020-08-12T07:12:11.000Z</time>
      </trkpt>
      <trkpt lat="42.34496754594147205352783203125" lon="1.31690419279038906097412109375">
        <ele>1001.4000244140625</ele>
        <time>2020-08-12T07:12:13.000Z</time>
      </trkpt>
      <trkpt lat="42.34495916403830051422119140625" lon="1.31675801239907741546630859375">
        <ele>1002.20001220703125</ele>
        <time>2020-08-12T07:12:20.000Z</time>
      </trkpt>
      <trkpt lat="42.34495648182928562164306640625" lon="1.31673873402178287506103515625">
        <ele>1002.20001220703125</ele>
        <time>2020-08-12T07:12:21.000Z</time>
      </trkpt>
      <trkpt lat="42.34495212323963642120361328125" lon="1.31665818393230438232421875">
        <ele>1002.5999755859375</ele>
        <time>2020-08-12T07:12:25.000Z</time>
      </trkpt>
      <trkpt lat="42.3449592478573322296142578125" lon="1.31661836989223957061767578125">
        <ele>1003</ele>
        <time>2020-08-12T07:12:28.000Z</time>
      </trkpt>
      <trkpt lat="42.3449780233204364776611328125" lon="1.31653857417404651641845703125">
        <ele>1003.20001220703125</ele>
        <time>2020-08-12T07:12:34.000Z</time>
      </trkpt>
      <trkpt lat="42.34498078934848308563232421875" lon="1.3165074773132801055908203125">
        <ele>1003.20001220703125</ele>
        <time>2020-08-12T07:12:36.000Z</time>
      </trkpt>
      <trkpt lat="42.344982884824275970458984375" lon="1.316475458443164825439453125">
        <ele>1003.20001220703125</ele>
        <time>2020-08-12T07:12:38.000Z</time>
      </trkpt>
      <trkpt lat="42.3449830524623394012451171875" lon="1.316449642181396484375">
        <ele>1003.4000244140625</ele>
        <time>2020-08-12T07:12:40.000Z</time>
      </trkpt>
      <trkpt lat="42.34498296864330768585205078125" lon="1.31642491556704044342041015625">
        <ele>1003.5999755859375</ele>
        <time>2020-08-12T07:12:42.000Z</time>
      </trkpt>
      <trkpt lat="42.344977520406246185302734375" lon="1.31641737185418605804443359375">
        <ele>1003.79998779296875</ele>
        <time>2020-08-12T07:12:45.000Z</time>
      </trkpt>
      <trkpt lat="42.34497425146400928497314453125" lon="1.3164035417139530181884765625">
        <ele>1004</ele>
        <time>2020-08-12T07:12:57.000Z</time>
      </trkpt>
      <trkpt lat="42.34497852623462677001953125" lon="1.31637780927121639251708984375">
        <ele>1003.79998779296875</ele>
        <time>2020-08-12T07:13:10.000Z</time>
      </trkpt>
      <trkpt lat="42.34503778629004955291748046875" lon="1.31636372767388820648193359375">
        <ele>1004.20001220703125</ele>
        <time>2020-08-12T07:13:15.000Z</time>
      </trkpt>
      <trkpt lat="42.34505765140056610107421875" lon="1.31638853810727596282958984375">
        <ele>1004.20001220703125</ele>
        <time>2020-08-12T07:13:17.000Z</time>
      </trkpt>
      <trkpt lat="42.345086149871349334716796875" lon="1.31641703657805919647216796875">
        <ele>1004</ele>
        <time>2020-08-12T07:13:19.000Z</time>
      </trkpt>
      <trkpt lat="42.3451362736523151397705078125" lon="1.31646648980677127838134765625">
        <ele>1004</ele>
        <time>2020-08-12T07:13:22.000Z</time>
      </trkpt>
      <trkpt lat="42.34528656117618083953857421875" lon="1.31650454364717006683349609375">
        <ele>1003.5999755859375</ele>
        <time>2020-08-12T07:13:28.000Z</time>
      </trkpt>
      <trkpt lat="42.34531472437083721160888671875" lon="1.3164927251636981964111328125">
        <ele>1003.5999755859375</ele>
        <time>2020-08-12T07:13:29.000Z</time>
      </trkpt>
      <trkpt lat="42.34540759585797786712646484375" lon="1.31649683229625225067138671875">
        <ele>1004</ele>
        <time>2020-08-12T07:13:33.000Z</time>
      </trkpt>
      <trkpt lat="42.34550482593476772308349609375" lon="1.31649130024015903472900390625">
        <ele>1004.20001220703125</ele>
        <time>2020-08-12T07:13:38.000Z</time>
      </trkpt>
      <trkpt lat="42.345525361597537994384765625" lon="1.316492557525634765625">
        <ele>1004.20001220703125</ele>
        <time>2020-08-12T07:13:39.000Z</time>
      </trkpt>
      <trkpt lat="42.345629297196865081787109375" lon="1.31653991527855396270751953125">
        <ele>1004.79998779296875</ele>
        <time>2020-08-12T07:13:45.000Z</time>
      </trkpt>
      <trkpt lat="42.34570984728634357452392578125" lon="1.31660294719040393829345703125">
        <ele>1005.20001220703125</ele>
        <time>2020-08-12T07:13:50.000Z</time>
      </trkpt>
      <trkpt lat="42.34576231800019741058349609375" lon="1.31666111759841442108154296875">
        <ele>1005.79998779296875</ele>
        <time>2020-08-12T07:13:53.000Z</time>
      </trkpt>
      <trkpt lat="42.34578377567231655120849609375" lon="1.31668240763247013092041015625">
        <ele>1005.79998779296875</ele>
        <time>2020-08-12T07:13:54.000Z</time>
      </trkpt>
      <trkpt lat="42.3458074964582920074462890625" lon="1.31671224720776081085205078125">
        <ele>1006</ele>
        <time>2020-08-12T07:13:55.000Z</time>
      </trkpt>
      <trkpt lat="42.34593473374843597412109375" lon="1.31685390137135982513427734375">
        <ele>1006.4000244140625</ele>
        <time>2020-08-12T07:14:02.000Z</time>
      </trkpt>
      <trkpt lat="42.34596968628466129302978515625" lon="1.3169148378074169158935546875">
        <ele>1006.4000244140625</ele>
        <time>2020-08-12T07:14:05.000Z</time>
      </trkpt>
      <trkpt lat="42.34598829410970211029052734375" lon="1.31694291718304157257080078125">
        <ele>1006.4000244140625</ele>
        <time>2020-08-12T07:14:07.000Z</time>
      </trkpt>
      <trkpt lat="42.3460388369858264923095703125" lon="1.317011229693889617919921875">
        <ele>1006.5999755859375</ele>
        <time>2020-08-12T07:14:11.000Z</time>
      </trkpt>
      <trkpt lat="42.3460663296282291412353515625" lon="1.31704852916300296783447265625">
        <ele>1006.5999755859375</ele>
        <time>2020-08-12T07:14:13.000Z</time>
      </trkpt>
      <trkpt lat="42.346106730401515960693359375" lon="1.3171113096177577972412109375">
        <ele>1007.20001220703125</ele>
        <time>2020-08-12T07:14:17.000Z</time>
      </trkpt>
      <trkpt lat="42.34611452557146549224853515625" lon="1.31713033653795719146728515625">
        <ele>1007.20001220703125</ele>
        <time>2020-08-12T07:14:18.000Z</time>
      </trkpt>
      <trkpt lat="42.34617671929299831390380859375" lon="1.31718783639371395111083984375">
        <ele>1007.79998779296875</ele>
        <time>2020-08-12T07:14:23.000Z</time>
      </trkpt>
      <trkpt lat="42.34618744812905788421630859375" lon="1.3171927817165851593017578125">
        <ele>1008</ele>
        <time>2020-08-12T07:14:24.000Z</time>
      </trkpt>
      <trkpt lat="42.34620471484959125518798828125" lon="1.31720602512359619140625">
        <ele>1008.20001220703125</ele>
        <time>2020-08-12T07:14:26.000Z</time>
      </trkpt>
      <trkpt lat="42.346267662942409515380859375" lon="1.3172583281993865966796875">
        <ele>1009</ele>
        <time>2020-08-12T07:14:31.000Z</time>
      </trkpt>
      <trkpt lat="42.34630496241152286529541015625" lon="1.3172876648604869842529296875">
        <ele>1009</ele>
        <time>2020-08-12T07:14:34.000Z</time>
      </trkpt>
      <trkpt lat="42.3463110812008380889892578125" lon="1.31729210726916790008544921875">
        <ele>1009.5999755859375</ele>
        <time>2020-08-12T07:14:36.000Z</time>
      </trkpt>
      <trkpt lat="42.3463372327387332916259765625" lon="1.3173104636371135711669921875">
        <ele>1010.20001220703125</ele>
        <time>2020-08-12T07:14:46.000Z</time>
      </trkpt>
      <trkpt lat="42.3463436029851436614990234375" lon="1.31731540895998477935791015625">
        <ele>1010.20001220703125</ele>
        <time>2020-08-12T07:14:47.000Z</time>
      </trkpt>
      <trkpt lat="42.3464039526879787445068359375" lon="1.317339800298213958740234375">
        <ele>1011.20001220703125</ele>
        <time>2020-08-12T07:14:57.000Z</time>
      </trkpt>
      <trkpt lat="42.34641241841018199920654296875" lon="1.31733938120305538177490234375">
        <ele>1011.20001220703125</ele>
        <time>2020-08-12T07:14:58.000Z</time>
      </trkpt>
      <trkpt lat="42.34647595323622226715087890625" lon="1.317357234656810760498046875">
        <ele>1012.20001220703125</ele>
        <time>2020-08-12T07:15:07.000Z</time>
      </trkpt>
      <trkpt lat="42.34647930599749088287353515625" lon="1.3173577375710010528564453125">
        <ele>1012.20001220703125</ele>
        <time>2020-08-12T07:15:08.000Z</time>
      </trkpt>
      <trkpt lat="42.3464817367494106292724609375" lon="1.317355893552303314208984375">
        <ele>1012.4000244140625</ele>
        <time>2020-08-12T07:15:18.000Z</time>
      </trkpt>
      <trkpt lat="42.34648047946393489837646484375" lon="1.317352540791034698486328125">
        <ele>1012.4000244140625</ele>
        <time>2020-08-12T07:15:33.000Z</time>
      </trkpt>
      <trkpt lat="42.3464817367494106292724609375" lon="1.31734994240105152130126953125">
        <ele>1012.4000244140625</ele>
        <time>2020-08-12T07:15:40.000Z</time>
      </trkpt>
      <trkpt lat="42.346488274633884429931640625" lon="1.31735128350555896759033203125">
        <ele>1012.4000244140625</ele>
        <time>2020-08-12T07:16:00.000Z</time>
      </trkpt>
      <trkpt lat="42.34655155800282955169677734375" lon="1.31736352108418941497802734375">
        <ele>1013.20001220703125</ele>
        <time>2020-08-12T07:16:09.000Z</time>
      </trkpt>
      <trkpt lat="42.34656505286693572998046875" lon="1.31735899485647678375244140625">
        <ele>1013.20001220703125</ele>
        <time>2020-08-12T07:16:11.000Z</time>
      </trkpt>
      <trkpt lat="42.346609644591808319091796875" lon="1.31734625436365604400634765625">
        <ele>1014</ele>
        <time>2020-08-12T07:16:17.000Z</time>
      </trkpt>
      <trkpt lat="42.34663101844489574432373046875" lon="1.31733753718435764312744140625">
        <ele>1014.4000244140625</ele>
        <time>2020-08-12T07:16:20.000Z</time>
      </trkpt>
      <trkpt lat="42.34666404314339160919189453125" lon="1.31730317138135433197021484375">
        <ele>1015</ele>
        <time>2020-08-12T07:16:26.000Z</time>
      </trkpt>
      <trkpt lat="42.34666756354272365570068359375" lon="1.317290849983692169189453125">
        <ele>1015.4000244140625</ele>
        <time>2020-08-12T07:16:32.000Z</time>
      </trkpt>
      <trkpt lat="42.3466674797236919403076171875" lon="1.317290849983692169189453125">
        <ele>1015</ele>
        <time>2020-08-12T07:16:48.000Z</time>
      </trkpt>
      <trkpt lat="42.34666764736175537109375" lon="1.3172890059649944305419921875">
        <ele>1015.4000244140625</ele>
        <time>2020-08-12T07:16:55.000Z</time>
      </trkpt>
      <trkpt lat="42.346666641533374786376953125" lon="1.31728925742208957672119140625">
        <ele>1015.20001220703125</ele>
        <time>2020-08-12T07:17:02.000Z</time>
      </trkpt>
      <trkpt lat="42.346667982637882232666015625" lon="1.3172893412411212921142578125">
        <ele>1015.20001220703125</ele>
        <time>2020-08-12T07:17:11.000Z</time>
      </trkpt>
      <trkpt lat="42.346674017608165740966796875" lon="1.31727685220539569854736328125">
        <ele>1015.4000244140625</ele>
        <time>2020-08-12T07:17:21.000Z</time>
      </trkpt>
      <trkpt lat="42.34669606201350688934326171875" lon="1.31719739176332950592041015625">
        <ele>1015.79998779296875</ele>
        <time>2020-08-12T07:17:28.000Z</time>
      </trkpt>
      <trkpt lat="42.34670662321150302886962890625" lon="1.31715766154229640960693359375">
        <ele>1016</ele>
        <time>2020-08-12T07:17:31.000Z</time>
      </trkpt>
      <trkpt lat="42.3467160947620868682861328125" lon="1.317107118666172027587890625">
        <ele>1016.20001220703125</ele>
        <time>2020-08-12T07:17:35.000Z</time>
      </trkpt>
      <trkpt lat="42.3467489518225193023681640625" lon="1.31698750890791416168212890625">
        <ele>1016</ele>
        <time>2020-08-12T07:17:42.000Z</time>
      </trkpt>
      <trkpt lat="42.34676680527627468109130859375" lon="1.31694308482110500335693359375">
        <ele>1016</ele>
        <time>2020-08-12T07:17:44.000Z</time>
      </trkpt>
      <trkpt lat="42.34679681248962879180908203125" lon="1.3168823160231113433837890625">
        <ele>1016.20001220703125</ele>
        <time>2020-08-12T07:17:47.000Z</time>
      </trkpt>
      <trkpt lat="42.346812821924686431884765625" lon="1.31684635765850543975830078125">
        <ele>1016.4000244140625</ele>
        <time>2020-08-12T07:17:49.000Z</time>
      </trkpt>
      <trkpt lat="42.34683235175907611846923828125" lon="1.31679170764982700347900390625">
        <ele>1016.5999755859375</ele>
        <time>2020-08-12T07:17:52.000Z</time>
      </trkpt>
      <trkpt lat="42.34686537645757198333740234375" lon="1.3166821561753749847412109375">
        <ele>1017.20001220703125</ele>
        <time>2020-08-12T07:17:58.000Z</time>
      </trkpt>
      <trkpt lat="42.3469041846692562103271484375" lon="1.31657578982412815093994140625">
        <ele>1017.20001220703125</ele>
        <time>2020-08-12T07:18:03.000Z</time>
      </trkpt>
      <trkpt lat="42.34696109779179096221923828125" lon="1.31649130024015903472900390625">
        <ele>1017.20001220703125</ele>
        <time>2020-08-12T07:18:08.000Z</time>
      </trkpt>
      <trkpt lat="42.347040139138698577880859375" lon="1.31635400466620922088623046875">
        <ele>1017.20001220703125</ele>
        <time>2020-08-12T07:18:15.000Z</time>
      </trkpt>
      <trkpt lat="42.34705396927893161773681640625" lon="1.31633698940277099609375">
        <ele>1017.20001220703125</ele>
        <time>2020-08-12T07:18:16.000Z</time>
      </trkpt>
      <trkpt lat="42.34711532481014728546142578125" lon="1.3162667490541934967041015625">
        <ele>1017.20001220703125</ele>
        <time>2020-08-12T07:18:20.000Z</time>
      </trkpt>
      <trkpt lat="42.34717265702784061431884765625" lon="1.31618955172598361968994140625">
        <ele>1017.4000244140625</ele>
        <time>2020-08-12T07:18:24.000Z</time>
      </trkpt>
      <trkpt lat="42.34721590764820575714111328125" lon="1.31614713929593563079833984375">
        <ele>1018</ele>
        <time>2020-08-12T07:18:27.000Z</time>
      </trkpt>
      <trkpt lat="42.34726670198142528533935546875" lon="1.3160846941173076629638671875">
        <ele>1018.79998779296875</ele>
        <time>2020-08-12T07:18:31.000Z</time>
      </trkpt>
      <trkpt lat="42.34727852046489715576171875" lon="1.31607505492866039276123046875">
        <ele>1019</ele>
        <time>2020-08-12T07:18:32.000Z</time>
      </trkpt>
      <trkpt lat="42.34728547744452953338623046875" lon="1.316059716045856475830078125">
        <ele>1019.20001220703125</ele>
        <time>2020-08-12T07:18:33.000Z</time>
      </trkpt>
      <trkpt lat="42.3473041690886020660400390625" lon="1.31602845154702663421630859375">
        <ele>1019.79998779296875</ele>
        <time>2020-08-12T07:18:35.000Z</time>
      </trkpt>
      <trkpt lat="42.34733157791197299957275390625" lon="1.31599592976272106170654296875">
        <ele>1020.20001220703125</ele>
        <time>2020-08-12T07:18:37.000Z</time>
      </trkpt>
      <trkpt lat="42.347349934279918670654296875" lon="1.3159757293760776519775390625">
        <ele>1020.20001220703125</ele>
        <time>2020-08-12T07:18:38.000Z</time>
      </trkpt>
      <trkpt lat="42.3473658598959445953369140625" lon="1.31594605743885040283203125">
        <ele>1020.79998779296875</ele>
        <time>2020-08-12T07:18:40.000Z</time>
      </trkpt>
      <trkpt lat="42.3473832942545413970947265625" lon="1.3159024715423583984375">
        <ele>1021.20001220703125</ele>
        <time>2020-08-12T07:18:43.000Z</time>
      </trkpt>
      <trkpt lat="42.34744791872799396514892578125" lon="1.3158147968351840972900390625">
        <ele>1022</ele>
        <time>2020-08-12T07:18:48.000Z</time>
      </trkpt>
      <trkpt lat="42.34744842164218425750732421875" lon="1.315778754651546478271484375">
        <ele>1022.20001220703125</ele>
        <time>2020-08-12T07:18:50.000Z</time>
      </trkpt>
      <trkpt lat="42.34747122041881084442138671875" lon="1.31572477519512176513671875">
        <ele>1023.20001220703125</ele>
        <time>2020-08-12T07:18:53.000Z</time>
      </trkpt>
      <trkpt lat="42.347486056387424468994140625" lon="1.315704323351383209228515625">
        <ele>1023.4000244140625</ele>
        <time>2020-08-12T07:18:54.000Z</time>
      </trkpt>
      <trkpt lat="42.34750055707991123199462890625" lon="1.31563450209796428680419921875">
        <ele>1023.79998779296875</ele>
        <time>2020-08-12T07:18:59.000Z</time>
      </trkpt>
      <trkpt lat="42.34749938361346721649169921875" lon="1.31554833613336086273193359375">
        <ele>1024</ele>
        <time>2020-08-12T07:19:05.000Z</time>
      </trkpt>
      <trkpt lat="42.347492761909961700439453125" lon="1.31549653597176074981689453125">
        <ele>1024.4000244140625</ele>
        <time>2020-08-12T07:19:08.000Z</time>
      </trkpt>
      <trkpt lat="42.347498126327991485595703125" lon="1.31548312492668628692626953125">
        <ele>1024.5999755859375</ele>
        <time>2020-08-12T07:19:09.000Z</time>
      </trkpt>
      <trkpt lat="42.34749519266188144683837890625" lon="1.31545982323586940765380859375">
        <ele>1024.800048828125</ele>
        <time>2020-08-12T07:19:10.000Z</time>
      </trkpt>
      <trkpt lat="42.3475143872201442718505859375" lon="1.3153809495270252227783203125">
        <ele>1025.199951171875</ele>
        <time>2020-08-12T07:19:15.000Z</time>
      </trkpt>
      <trkpt lat="42.3475489206612110137939453125" lon="1.31529788486659526824951171875">
        <ele>1025.5999755859375</ele>
        <time>2020-08-12T07:19:21.000Z</time>
      </trkpt>
      <trkpt lat="42.34756107442080974578857421875" lon="1.31528732366859912872314453125">
        <ele>1025.800048828125</ele>
        <time>2020-08-12T07:19:22.000Z</time>
      </trkpt>
      <trkpt lat="42.34760398976504802703857421875" lon="1.31524926982820034027099609375">
        <ele>1026</ele>
        <time>2020-08-12T07:19:25.000Z</time>
      </trkpt>
      <trkpt lat="42.34762595035135746002197265625" lon="1.3152171671390533447265625">
        <ele>1026</ele>
        <time>2020-08-12T07:19:27.000Z</time>
      </trkpt>
      <trkpt lat="42.34775318764150142669677734375" lon="1.31512588821351528167724609375">
        <ele>1025.800048828125</ele>
        <time>2020-08-12T07:19:32.000Z</time>
      </trkpt>
      <trkpt lat="42.34776944853365421295166015625" lon="1.3150991499423980712890625">
        <ele>1025.800048828125</ele>
        <time>2020-08-12T07:19:33.000Z</time>
      </trkpt>
      <trkpt lat="42.34782032668590545654296875" lon="1.3150191865861415863037109375">
        <ele>1025.199951171875</ele>
        <time>2020-08-12T07:19:36.000Z</time>
      </trkpt>
      <trkpt lat="42.347883693873882293701171875" lon="1.3148884288966655731201171875">
        <ele>1025</ele>
        <time>2020-08-12T07:19:42.000Z</time>
      </trkpt>
      <trkpt lat="42.347906492650508880615234375" lon="1.31473931483924388885498046875">
        <ele>1025.4000244140625</ele>
        <time>2020-08-12T07:19:48.000Z</time>
      </trkpt>
      <trkpt lat="42.34791546128690242767333984375" lon="1.314718611538410186767578125">
        <ele>1025.4000244140625</ele>
        <time>2020-08-12T07:19:49.000Z</time>
      </trkpt>
      <trkpt lat="42.34793624840676784515380859375" lon="1.314658932387828826904296875">
        <ele>1025.199951171875</ele>
        <time>2020-08-12T07:19:52.000Z</time>
      </trkpt>
      <trkpt lat="42.34794228337705135345458984375" lon="1.3146403245627880096435546875">
        <ele>1025.199951171875</ele>
        <time>2020-08-12T07:19:53.000Z</time>
      </trkpt>
      <trkpt lat="42.34796005301177501678466796875" lon="1.3146131671965122222900390625">
        <ele>1025.199951171875</ele>
        <time>2020-08-12T07:19:55.000Z</time>
      </trkpt>
      <trkpt lat="42.347962148487567901611328125" lon="1.31459229625761508941650390625">
        <ele>1025.5999755859375</ele>
        <time>2020-08-12T07:19:56.000Z</time>
      </trkpt>
      <trkpt lat="42.3479886353015899658203125" lon="1.314455755054950714111328125">
        <ele>1026.4000244140625</ele>
        <time>2020-08-12T07:20:03.000Z</time>
      </trkpt>
      <trkpt lat="42.34800162725150585174560546875" lon="1.31439800374209880828857421875">
        <ele>1026.4000244140625</ele>
        <time>2020-08-12T07:20:06.000Z</time>
      </trkpt>
      <trkpt lat="42.34801210463047027587890625" lon="1.3143462873995304107666015625">
        <ele>1026.800048828125</ele>
        <time>2020-08-12T07:20:09.000Z</time>
      </trkpt>
      <trkpt lat="42.3480625636875629425048828125" lon="1.31428174674510955810546875">
        <ele>1027.5999755859375</ele>
        <time>2020-08-12T07:20:13.000Z</time>
      </trkpt>
      <trkpt lat="42.3480722866952419281005859375" lon="1.314265318214893341064453125">
        <ele>1027.800048828125</ele>
        <time>2020-08-12T07:20:14.000Z</time>
      </trkpt>
      <trkpt lat="42.34814914874732494354248046875" lon="1.31422751583158969879150390625">
        <ele>1028.199951171875</ele>
        <time>2020-08-12T07:20:18.000Z</time>
      </trkpt>
      <trkpt lat="42.34831653535366058349609375" lon="1.31417001597583293914794921875">
        <ele>1029</ele>
        <time>2020-08-12T07:20:24.000Z</time>
      </trkpt>
      <trkpt lat="42.348338998854160308837890625" lon="1.31416163407266139984130859375">
        <ele>1029.4000244140625</ele>
        <time>2020-08-12T07:20:25.000Z</time>
      </trkpt>
      <trkpt lat="42.348418794572353363037109375" lon="1.314131878316402435302734375">
        <ele>1030</ele>
        <time>2020-08-12T07:20:30.000Z</time>
      </trkpt>
      <trkpt lat="42.34843513928353786468505859375" lon="1.31412525661289691925048828125">
        <ele>1030.199951171875</ele>
        <time>2020-08-12T07:20:31.000Z</time>
      </trkpt>
      <trkpt lat="42.3484722711145877838134765625" lon="1.31410874426364898681640625">
        <ele>1030.199951171875</ele>
        <time>2020-08-12T07:20:34.000Z</time>
      </trkpt>
      <trkpt lat="42.34848945401608943939208984375" lon="1.31408284418284893035888671875">
        <ele>1030.5999755859375</ele>
        <time>2020-08-12T07:20:36.000Z</time>
      </trkpt>
      <trkpt lat="42.34851493500173091888427734375" lon="1.3140291161835193634033203125">
        <ele>1031.199951171875</ele>
        <time>2020-08-12T07:20:40.000Z</time>
      </trkpt>
      <trkpt lat="42.34853052534162998199462890625" lon="1.31400640122592449188232421875">
        <ele>1031.4000244140625</ele>
        <time>2020-08-12T07:20:42.000Z</time>
      </trkpt>
      <trkpt lat="42.34858282841742038726806640625" lon="1.31394119001924991607666015625">
        <ele>1032.4000244140625</ele>
        <time>2020-08-12T07:20:48.000Z</time>
      </trkpt>
      <trkpt lat="42.3486268334090709686279296875" lon="1.31385602988302707672119140625">
        <ele>1033.5999755859375</ele>
        <time>2020-08-12T07:20:54.000Z</time>
      </trkpt>
      <trkpt lat="42.34866078011691570281982421875" lon="1.31379425525665283203125">
        <ele>1034</ele>
        <time>2020-08-12T07:20:59.000Z</time>
      </trkpt>
      <trkpt lat="42.348670922219753265380859375" lon="1.3137431256473064422607421875">
        <ele>1034.5999755859375</ele>
        <time>2020-08-12T07:21:02.000Z</time>
      </trkpt>
      <trkpt lat="42.34868089668452739715576171875" lon="1.3137097656726837158203125">
        <ele>1034.800048828125</ele>
        <time>2020-08-12T07:21:04.000Z</time>
      </trkpt>
      <trkpt lat="42.34870369546115398406982421875" lon="1.313609518110752105712890625">
        <ele>1035.199951171875</ele>
        <time>2020-08-12T07:21:10.000Z</time>
      </trkpt>
      <trkpt lat="42.34870872460305690765380859375" lon="1.31354120559990406036376953125">
        <ele>1035.800048828125</ele>
        <time>2020-08-12T07:21:14.000Z</time>
      </trkpt>
      <trkpt lat="42.34871593303978443145751953125" lon="1.313483454287052154541015625">
        <ele>1036</ele>
        <time>2020-08-12T07:21:18.000Z</time>
      </trkpt>
      <trkpt lat="42.348709814250469207763671875" lon="1.31336300633847713470458984375">
        <ele>1036.5999755859375</ele>
        <time>2020-08-12T07:21:25.000Z</time>
      </trkpt>
      <trkpt lat="42.348706461489200592041015625" lon="1.313345320522785186767578125">
        <ele>1036.800048828125</ele>
        <time>2020-08-12T07:21:26.000Z</time>
      </trkpt>
      <trkpt lat="42.34868877567350864410400390625" lon="1.3132663629949092864990234375">
        <ele>1037.199951171875</ele>
        <time>2020-08-12T07:21:31.000Z</time>
      </trkpt>
      <trkpt lat="42.348692715167999267578125" lon="1.313172988593578338623046875">
        <ele>1037.800048828125</ele>
        <time>2020-08-12T07:21:37.000Z</time>
      </trkpt>
      <trkpt lat="42.348693720996379852294921875" lon="1.31315630860626697540283203125">
        <ele>1038</ele>
        <time>2020-08-12T07:21:38.000Z</time>
      </trkpt>
      <trkpt lat="42.34870570711791515350341796875" lon="1.3130796141922473907470703125">
        <ele>1038.800048828125</ele>
        <time>2020-08-12T07:21:43.000Z</time>
      </trkpt>
      <trkpt lat="42.34871090389788150787353515625" lon="1.31306444294750690460205078125">
        <ele>1038.800048828125</ele>
        <time>2020-08-12T07:21:44.000Z</time>
      </trkpt>
      <trkpt lat="42.3487181961536407470703125" lon="1.31305337883532047271728515625">
        <ele>1039</ele>
        <time>2020-08-12T07:21:45.000Z</time>
      </trkpt>
      <trkpt lat="42.34875909984111785888671875" lon="1.312981545925140380859375">
        <ele>1039.800048828125</ele>
        <time>2020-08-12T07:21:50.000Z</time>
      </trkpt>
      <trkpt lat="42.34876287169754505157470703125" lon="1.31296721287071704864501953125">
        <ele>1040</ele>
        <time>2020-08-12T07:21:51.000Z</time>
      </trkpt>
      <trkpt lat="42.3487870953977108001708984375" lon="1.31287719123065471649169921875">
        <ele>1040.5999755859375</ele>
        <time>2020-08-12T07:21:56.000Z</time>
      </trkpt>
      <trkpt lat="42.348795644938945770263671875" lon="1.31283243186771869659423828125">
        <ele>1041</ele>
        <time>2020-08-12T07:21:58.000Z</time>
      </trkpt>
      <trkpt lat="42.34881316311657428741455078125" lon="1.31277275271713733673095703125">
        <ele>1041.199951171875</ele>
        <time>2020-08-12T07:22:01.000Z</time>
      </trkpt>
      <trkpt lat="42.348837219178676605224609375" lon="1.3126746006309986114501953125">
        <ele>1042</ele>
        <time>2020-08-12T07:22:07.000Z</time>
      </trkpt>
      <trkpt lat="42.348837889730930328369140625" lon="1.31264165975153446197509765625">
        <ele>1042.199951171875</ele>
        <time>2020-08-12T07:22:09.000Z</time>
      </trkpt>
      <trkpt lat="42.34884752891957759857177734375" lon="1.31257586181163787841796875">
        <ele>1042.5999755859375</ele>
        <time>2020-08-12T07:22:13.000Z</time>
      </trkpt>
      <trkpt lat="42.348837554454803466796875" lon="1.312521211802959442138671875">
        <ele>1043</ele>
        <time>2020-08-12T07:22:16.000Z</time>
      </trkpt>
      <trkpt lat="42.3488390631973743438720703125" lon="1.31246932782232761383056640625">
        <ele>1043.4000244140625</ele>
        <time>2020-08-12T07:22:19.000Z</time>
      </trkpt>
      <trkpt lat="42.3488491214811801910400390625" lon="1.31242054514586925506591796875">
        <ele>1043.800048828125</ele>
        <time>2020-08-12T07:22:22.000Z</time>
      </trkpt>
      <trkpt lat="42.3488454334437847137451171875" lon="1.312387101352214813232421875">
        <ele>1044</ele>
        <time>2020-08-12T07:22:24.000Z</time>
      </trkpt>
      <trkpt lat="42.348844595253467559814453125" lon="1.31237042136490345001220703125">
        <ele>1044</ele>
        <time>2020-08-12T07:22:25.000Z</time>
      </trkpt>
      <trkpt lat="42.34885741956532001495361328125" lon="1.3122762925922870635986328125">
        <ele>1045</ele>
        <time>2020-08-12T07:22:31.000Z</time>
      </trkpt>
      <trkpt lat="42.3488564975559711456298828125" lon="1.31224217824637889862060546875">
        <ele>1045.199951171875</ele>
        <time>2020-08-12T07:22:33.000Z</time>
      </trkpt>
      <trkpt lat="42.34887577593326568603515625" lon="1.31214109249413013458251953125">
        <ele>1045.800048828125</ele>
        <time>2020-08-12T07:22:39.000Z</time>
      </trkpt>
      <trkpt lat="42.34889111481606960296630859375" lon="1.31207839585840702056884765625">
        <ele>1046.199951171875</ele>
        <time>2020-08-12T07:22:42.000Z</time>
      </trkpt>
      <trkpt lat="42.34889999963343143463134765625" lon="1.31204101257026195526123046875">
        <ele>1046.5999755859375</ele>
        <time>2020-08-12T07:22:46.000Z</time>
      </trkpt>
      <trkpt lat="42.34889765270054340362548828125" lon="1.31197244860231876373291015625">
        <ele>1047.4000244140625</ele>
        <time>2020-08-12T07:22:51.000Z</time>
      </trkpt>
      <trkpt lat="42.3488846607506275177001953125" lon="1.31194478832185268402099609375">
        <ele>1047.800048828125</ele>
        <time>2020-08-12T07:22:53.000Z</time>
      </trkpt>
      <trkpt lat="42.34886010177433490753173828125" lon="1.3118778169155120849609375">
        <ele>1048.4000244140625</ele>
        <time>2020-08-12T07:22:58.000Z</time>
      </trkpt>
      <trkpt lat="42.34885507263243198394775390625" lon="1.311866082251071929931640625">
        <ele>1048.5999755859375</ele>
        <time>2020-08-12T07:22:59.000Z</time>
      </trkpt>
      <trkpt lat="42.3488286696374416351318359375" lon="1.31181411445140838623046875">
        <ele>1049</ele>
        <time>2020-08-12T07:23:03.000Z</time>
      </trkpt>
      <trkpt lat="42.34879036433994770050048828125" lon="1.3117785751819610595703125">
        <ele>1049.4000244140625</ele>
        <time>2020-08-12T07:23:06.000Z</time>
      </trkpt>
      <trkpt lat="42.34879036433994770050048828125" lon="1.3117785751819610595703125">
        <ele>1049.5999755859375</ele>
        <time>2020-08-12T07:23:07.000Z</time>
      </trkpt>
      <trkpt lat="42.34871224500238895416259765625" lon="1.3117183931171894073486328125">
        <ele>1050.5999755859375</ele>
        <time>2020-08-12T07:23:14.000Z</time>
      </trkpt>
      <trkpt lat="42.3486999236047267913818359375" lon="1.31170825101435184478759765625">
        <ele>1051</ele>
        <time>2020-08-12T07:23:15.000Z</time>
      </trkpt>
      <trkpt lat="42.3486806452274322509765625" lon="1.3116905651986598968505859375">
        <ele>1051.4000244140625</ele>
        <time>2020-08-12T07:23:17.000Z</time>
      </trkpt>
      <trkpt lat="42.34865239821374416351318359375" lon="1.31166365928947925567626953125">
        <ele>1051.800048828125</ele>
        <time>2020-08-12T07:23:20.000Z</time>
      </trkpt>
      <trkpt lat="42.34858199022710323333740234375" lon="1.31163415499031543731689453125">
        <ele>1052.800048828125</ele>
        <time>2020-08-12T07:23:26.000Z</time>
      </trkpt>
      <trkpt lat="42.348570339381694793701171875" lon="1.31162409670650959014892578125">
        <ele>1052.800048828125</ele>
        <time>2020-08-12T07:23:27.000Z</time>
      </trkpt>
      <trkpt lat="42.3485366441309452056884765625" lon="1.31159140728414058685302734375">
        <ele>1053</ele>
        <time>2020-08-12T07:23:30.000Z</time>
      </trkpt>
      <trkpt lat="42.34850437380373477935791015625" lon="1.31154933013021945953369140625">
        <ele>1053.4000244140625</ele>
        <time>2020-08-12T07:23:33.000Z</time>
      </trkpt>
      <trkpt lat="42.348482497036457061767578125" lon="1.3115329854190349578857421875">
        <ele>1053.5999755859375</ele>
        <time>2020-08-12T07:23:35.000Z</time>
      </trkpt>
      <trkpt lat="42.34846129082143306732177734375" lon="1.31151102483272552490234375">
        <ele>1053.5999755859375</ele>
        <time>2020-08-12T07:23:36.000Z</time>
      </trkpt>
      <trkpt lat="42.34846129082143306732177734375" lon="1.31151102483272552490234375">
        <ele>1053.800048828125</ele>
        <time>2020-08-12T07:23:37.000Z</time>
      </trkpt>
      <trkpt lat="42.34843983314931392669677734375" lon="1.3114967755973339080810546875">
        <ele>1054.199951171875</ele>
        <time>2020-08-12T07:23:39.000Z</time>
      </trkpt>
      <trkpt lat="42.34840647317469120025634765625" lon="1.31145880557596683502197265625">
        <ele>1054.800048828125</ele>
        <time>2020-08-12T07:23:42.000Z</time>
      </trkpt>
      <trkpt lat="42.34840647317469120025634765625" lon="1.31145880557596683502197265625">
        <ele>1055</ele>
        <time>2020-08-12T07:23:43.000Z</time>
      </trkpt>
      <trkpt lat="42.34840010292828083038330078125" lon="1.3114478252828121185302734375">
        <ele>1055.199951171875</ele>
        <time>2020-08-12T07:23:44.000Z</time>
      </trkpt>
      <trkpt lat="42.34835098497569561004638671875" lon="1.3113854639232158660888671875">
        <ele>1056</ele>
        <time>2020-08-12T07:23:50.000Z</time>
      </trkpt>
      <trkpt lat="42.34834427945315837860107421875" lon="1.31137548945844173431396484375">
        <ele>1056.199951171875</ele>
        <time>2020-08-12T07:23:51.000Z</time>
      </trkpt>
      <trkpt lat="42.34830044209957122802734375" lon="1.31128982640802860260009765625">
        <ele>1057.199951171875</ele>
        <time>2020-08-12T07:23:59.000Z</time>
      </trkpt>
      <trkpt lat="42.34829683788120746612548828125" lon="1.3112748228013515472412109375">
        <ele>1057.4000244140625</ele>
        <time>2020-08-12T07:24:00.000Z</time>
      </trkpt>
      <trkpt lat="42.34830220229923725128173828125" lon="1.31123132072389125823974609375">
        <ele>1057.5999755859375</ele>
        <time>2020-08-12T07:24:04.000Z</time>
      </trkpt>
      <trkpt lat="42.34833187423646450042724609375" lon="1.3111977092921733856201171875">
        <ele>1057.4000244140625</ele>
        <time>2020-08-12T07:24:07.000Z</time>
      </trkpt>
      <trkpt lat="42.34839239157736301422119140625" lon="1.3111625052988529205322265625">
        <ele>1057.5999755859375</ele>
        <time>2020-08-12T07:24:15.000Z</time>
      </trkpt>
      <trkpt lat="42.34849356114864349365234375" lon="1.3111775927245616912841796875">
        <ele>1057.4000244140625</ele>
        <time>2020-08-12T07:24:24.000Z</time>
      </trkpt>
      <trkpt lat="42.348574697971343994140625" lon="1.31113685667514801025390625">
        <ele>1057.800048828125</ele>
        <time>2020-08-12T07:24:29.000Z</time>
      </trkpt>
      <trkpt lat="42.348625659942626953125" lon="1.3110786862671375274658203125">
        <ele>1058.199951171875</ele>
        <time>2020-08-12T07:24:34.000Z</time>
      </trkpt>
      <trkpt lat="42.34864552505314350128173828125" lon="1.311064772307872772216796875">
        <ele>1058.800048828125</ele>
        <time>2020-08-12T07:24:36.000Z</time>
      </trkpt>
      <trkpt lat="42.34865826554596424102783203125" lon="1.31106150336563587188720703125">
        <ele>1059</ele>
        <time>2020-08-12T07:24:37.000Z</time>
      </trkpt>
      <trkpt lat="42.34868877567350864410400390625" lon="1.31104373373091220855712890625">
        <ele>1059.199951171875</ele>
        <time>2020-08-12T07:24:39.000Z</time>
      </trkpt>
      <trkpt lat="42.3487183637917041778564453125" lon="1.3110247068107128143310546875">
        <ele>1059.5999755859375</ele>
        <time>2020-08-12T07:24:41.000Z</time>
      </trkpt>
      <trkpt lat="42.34879941679537296295166015625" lon="1.31098656915128231048583984375">
        <ele>1060.199951171875</ele>
        <time>2020-08-12T07:24:47.000Z</time>
      </trkpt>
      <trkpt lat="42.3488269932568073272705078125" lon="1.31097433157265186309814453125">
        <ele>1060.4000244140625</ele>
        <time>2020-08-12T07:24:48.000Z</time>
      </trkpt>
      <trkpt lat="42.34886798076331615447998046875" lon="1.31095689721405506134033203125">
        <ele>1061.4000244140625</ele>
        <time>2020-08-12T07:24:52.000Z</time>
      </trkpt>
      <trkpt lat="42.3489238880574703216552734375" lon="1.31092588417232036590576171875">
        <ele>1062.4000244140625</ele>
        <time>2020-08-12T07:24:57.000Z</time>
      </trkpt>
      <trkpt lat="42.3489433340728282928466796875" lon="1.31091247312724590301513671875">
        <ele>1062.800048828125</ele>
        <time>2020-08-12T07:24:59.000Z</time>
      </trkpt>
      <trkpt lat="42.348967976868152618408203125" lon="1.310870647430419921875">
        <ele>1063.4000244140625</ele>
        <time>2020-08-12T07:25:02.000Z</time>
      </trkpt>
      <trkpt lat="42.3489765264093875885009765625" lon="1.31084986031055450439453125">
        <ele>1063.5999755859375</ele>
        <time>2020-08-12T07:25:03.000Z</time>
      </trkpt>
      <trkpt lat="42.34901315532624721527099609375" lon="1.31079428829252719879150390625">
        <ele>1064</ele>
        <time>2020-08-12T07:25:06.000Z</time>
      </trkpt>
      <trkpt lat="42.3490264825522899627685546875" lon="1.31076042540371417999267578125">
        <ele>1064.5999755859375</ele>
        <time>2020-08-12T07:25:09.000Z</time>
      </trkpt>
      <trkpt lat="42.34906495548784732818603515625" lon="1.3107058592140674591064453125">
        <ele>1065</ele>
        <time>2020-08-12T07:25:13.000Z</time>
      </trkpt>
      <trkpt lat="42.34907249920070171356201171875" lon="1.3106890954077243804931640625">
        <ele>1065</ele>
        <time>2020-08-12T07:25:14.000Z</time>
      </trkpt>
      <trkpt lat="42.349078953266143798828125" lon="1.310671158134937286376953125">
        <ele>1065.199951171875</ele>
        <time>2020-08-12T07:25:15.000Z</time>
      </trkpt>
      <trkpt lat="42.34909445978701114654541015625" lon="1.310638971626758575439453125">
        <ele>1065.5999755859375</ele>
        <time>2020-08-12T07:25:17.000Z</time>
      </trkpt>
      <trkpt lat="42.3491357825696468353271484375" lon="1.31057769991457462310791015625">
        <ele>1066.199951171875</ele>
        <time>2020-08-12T07:25:22.000Z</time>
      </trkpt>
      <trkpt lat="42.349156402051448822021484375" lon="1.31054350174963474273681640625">
        <ele>1066.5999755859375</ele>
        <time>2020-08-12T07:25:24.000Z</time>
      </trkpt>
      <trkpt lat="42.34919370152056217193603515625" lon="1.3105043582618236541748046875">
        <ele>1067.199951171875</ele>
        <time>2020-08-12T07:25:29.000Z</time>
      </trkpt>
      <trkpt lat="42.349212728440761566162109375" lon="1.31048642098903656005859375">
        <ele>1067.4000244140625</ele>
        <time>2020-08-12T07:25:30.000Z</time>
      </trkpt>
      <trkpt lat="42.34922504983842372894287109375" lon="1.310480721294879913330078125">
        <ele>1067.800048828125</ele>
        <time>2020-08-12T07:25:32.000Z</time>
      </trkpt>
      <trkpt lat="42.3492625169456005096435546875" lon="1.310451216995716094970703125">
        <ele>1067.800048828125</ele>
        <time>2020-08-12T07:25:35.000Z</time>
      </trkpt>
      <trkpt lat="42.34930752776563167572021484375" lon="1.31038877181708812713623046875">
        <ele>1068.5999755859375</ele>
        <time>2020-08-12T07:25:40.000Z</time>
      </trkpt>
      <trkpt lat="42.34931456856429576873779296875" lon="1.310371421277523040771484375">
        <ele>1068.800048828125</ele>
        <time>2020-08-12T07:25:41.000Z</time>
      </trkpt>
      <trkpt lat="42.34936418943107128143310546875" lon="1.31028064526617527008056640625">
        <ele>1069.800048828125</ele>
        <time>2020-08-12T07:25:47.000Z</time>
      </trkpt>
      <trkpt lat="42.349381037056446075439453125" lon="1.31025440990924835205078125">
        <ele>1070</ele>
        <time>2020-08-12T07:25:48.000Z</time>
      </trkpt>
      <trkpt lat="42.34943769872188568115234375" lon="1.310180313885211944580078125">
        <ele>1071</ele>
        <time>2020-08-12T07:25:56.000Z</time>
      </trkpt>
      <trkpt lat="42.34944750554859638214111328125" lon="1.31017436273396015167236328125">
        <ele>1071</ele>
        <time>2020-08-12T07:25:57.000Z</time>
      </trkpt>
      <trkpt lat="42.349466867744922637939453125" lon="1.31015743128955364227294921875">
        <ele>1071.4000244140625</ele>
        <time>2020-08-12T07:25:59.000Z</time>
      </trkpt>
      <trkpt lat="42.3495040833950042724609375" lon="1.31013027392327785491943359375">
        <ele>1072</ele>
        <time>2020-08-12T07:26:02.000Z</time>
      </trkpt>
      <trkpt lat="42.3495149798691272735595703125" lon="1.31012239493429660797119140625">
        <ele>1072.199951171875</ele>
        <time>2020-08-12T07:26:03.000Z</time>
      </trkpt>
      <trkpt lat="42.34953157603740692138671875" lon="1.31011803634464740753173828125">
        <ele>1072.4000244140625</ele>
        <time>2020-08-12T07:26:04.000Z</time>
      </trkpt>
      <trkpt lat="42.34958664514124393463134765625" lon="1.31011200137436389923095703125">
        <ele>1072.800048828125</ele>
        <time>2020-08-12T07:26:08.000Z</time>
      </trkpt>
      <trkpt lat="42.3496075160801410675048828125" lon="1.31011166609823703765869140625">
        <ele>1073.199951171875</ele>
        <time>2020-08-12T07:26:10.000Z</time>
      </trkpt>
      <trkpt lat="42.3496450670063495635986328125" lon="1.31009289063513278961181640625">
        <ele>1074</ele>
        <time>2020-08-12T07:26:14.000Z</time>
      </trkpt>
      <trkpt lat="42.34966836869716644287109375" lon="1.31008400581777095794677734375">
        <ele>1074.199951171875</ele>
        <time>2020-08-12T07:26:16.000Z</time>
      </trkpt>
      <trkpt lat="42.3497267067432403564453125" lon="1.3100083172321319580078125">
        <ele>1075.199951171875</ele>
        <time>2020-08-12T07:26:23.000Z</time>
      </trkpt>
      <trkpt lat="42.34973986633121967315673828125" lon="1.30998350679874420166015625">
        <ele>1075.4000244140625</ele>
        <time>2020-08-12T07:26:25.000Z</time>
      </trkpt>
      <trkpt lat="42.3498173989355564117431640625" lon="1.30987630225718021392822265625">
        <ele>1076.5999755859375</ele>
        <time>2020-08-12T07:26:33.000Z</time>
      </trkpt>
      <trkpt lat="42.34988889656960964202880859375" lon="1.30984830670058727264404296875">
        <ele>1077.5999755859375</ele>
        <time>2020-08-12T07:26:40.000Z</time>
      </trkpt>
      <trkpt lat="42.34992049634456634521484375" lon="1.30983171053230762481689453125">
        <ele>1078</ele>
        <time>2020-08-12T07:26:42.000Z</time>
      </trkpt>
      <trkpt lat="42.3499367572367191314697265625" lon="1.30982349626719951629638671875">
        <ele>1078.800048828125</ele>
        <time>2020-08-12T07:26:45.000Z</time>
      </trkpt>
      <trkpt lat="42.35001931898295879364013671875" lon="1.30976666696369647979736328125">
        <ele>1079.5999755859375</ele>
        <time>2020-08-12T07:26:53.000Z</time>
      </trkpt>
      <trkpt lat="42.35004178248345851898193359375" lon="1.309751160442829132080078125">
        <ele>1079.800048828125</ele>
        <time>2020-08-12T07:26:55.000Z</time>
      </trkpt>
      <trkpt lat="42.350115291774272918701171875" lon="1.30968972109258174896240234375">
        <ele>1080.800048828125</ele>
        <time>2020-08-12T07:27:01.000Z</time>
      </trkpt>
      <trkpt lat="42.3501261882483959197998046875" lon="1.30967932753264904022216796875">
        <ele>1081.199951171875</ele>
        <time>2020-08-12T07:27:02.000Z</time>
      </trkpt>
      <trkpt lat="42.3502103425562381744384765625" lon="1.3095924071967601776123046875">
        <ele>1082</ele>
        <time>2020-08-12T07:27:10.000Z</time>
      </trkpt>
      <trkpt lat="42.35022299923002719879150390625" lon="1.30958578549325466156005859375">
        <ele>1082</ele>
        <time>2020-08-12T07:27:11.000Z</time>
      </trkpt>
      <trkpt lat="42.35028619877994060516357421875" lon="1.30954421125352382659912109375">
        <ele>1082.800048828125</ele>
        <time>2020-08-12T07:27:16.000Z</time>
      </trkpt>
      <trkpt lat="42.35029575414955615997314453125" lon="1.3095354102551937103271484375">
        <ele>1082.800048828125</ele>
        <time>2020-08-12T07:27:17.000Z</time>
      </trkpt>
      <trkpt lat="42.3503501527011394500732421875" lon="1.30947648547589778900146484375">
        <ele>1083.4000244140625</ele>
        <time>2020-08-12T07:27:22.000Z</time>
      </trkpt>
      <trkpt lat="42.35038158483803272247314453125" lon="1.30944765172898769378662109375">
        <ele>1084</ele>
        <time>2020-08-12T07:27:25.000Z</time>
      </trkpt>
      <trkpt lat="42.3503913916647434234619140625" lon="1.3094348274171352386474609375">
        <ele>1084</ele>
        <time>2020-08-12T07:27:26.000Z</time>
      </trkpt>
      <trkpt lat="42.35043254680931568145751953125" lon="1.309360228478908538818359375">
        <ele>1084.199951171875</ele>
        <time>2020-08-12T07:27:30.000Z</time>
      </trkpt>
      <trkpt lat="42.350443862378597259521484375" lon="1.30935092456638813018798828125">
        <ele>1084.4000244140625</ele>
        <time>2020-08-12T07:27:32.000Z</time>
      </trkpt>
      <trkpt lat="42.35045383684337139129638671875" lon="1.309339106082916259765625">
        <ele>1084.4000244140625</ele>
        <time>2020-08-12T07:27:33.000Z</time>
      </trkpt>
      <trkpt lat="42.35049155540764331817626953125" lon="1.30928286351263523101806640625">
        <ele>1084.800048828125</ele>
        <time>2020-08-12T07:27:37.000Z</time>
      </trkpt>
      <trkpt lat="42.35053715296089649200439453125" lon="1.30921212024986743927001953125">
        <ele>1085.4000244140625</ele>
        <time>2020-08-12T07:27:41.000Z</time>
      </trkpt>
      <trkpt lat="42.35055148601531982421875" lon="1.30918513052165508270263671875">
        <ele>1085.800048828125</ele>
        <time>2020-08-12T07:27:44.000Z</time>
      </trkpt>
      <trkpt lat="42.3506012745201587677001953125" lon="1.30910181440412998199462890625">
        <ele>1086.199951171875</ele>
        <time>2020-08-12T07:27:50.000Z</time>
      </trkpt>
      <trkpt lat="42.35060320235788822174072265625" lon="1.3090878166258335113525390625">
        <ele>1086.199951171875</ele>
        <time>2020-08-12T07:27:51.000Z</time>
      </trkpt>
      <trkpt lat="42.3506083153188228607177734375" lon="1.30906107835471630096435546875">
        <ele>1086.5999755859375</ele>
        <time>2020-08-12T07:27:53.000Z</time>
      </trkpt>
      <trkpt lat="42.350618205964565277099609375" lon="1.30903928540647029876708984375">
        <ele>1087</ele>
        <time>2020-08-12T07:27:55.000Z</time>
      </trkpt>
      <trkpt lat="42.35063153319060802459716796875" lon="1.30902118049561977386474609375">
        <ele>1087.4000244140625</ele>
        <time>2020-08-12T07:27:57.000Z</time>
      </trkpt>
      <trkpt lat="42.35065248794853687286376953125" lon="1.30896535702049732208251953125">
        <ele>1087.800048828125</ele>
        <time>2020-08-12T07:28:01.000Z</time>
      </trkpt>
      <trkpt lat="42.350691296160221099853515625" lon="1.30887349136173725128173828125">
        <ele>1088.5999755859375</ele>
        <time>2020-08-12T07:28:06.000Z</time>
      </trkpt>
      <trkpt lat="42.3506976664066314697265625" lon="1.30886276252567768096923828125">
        <ele>1089</ele>
        <time>2020-08-12T07:28:08.000Z</time>
      </trkpt>
      <trkpt lat="42.35071132890880107879638671875" lon="1.30881733261048793792724609375">
        <ele>1089.5999755859375</ele>
        <time>2020-08-12T07:28:13.000Z</time>
      </trkpt>
      <trkpt lat="42.3506974987685680389404296875" lon="1.30876167677342891693115234375">
        <ele>1089.5999755859375</ele>
        <time>2020-08-12T07:31:11.000Z</time>
      </trkpt>
      <trkpt lat="42.35069707967340946197509765625" lon="1.308760084211826324462890625">
        <ele>1089.800048828125</ele>
        <time>2020-08-12T07:31:12.000Z</time>
      </trkpt>
      <trkpt lat="42.3507082276046276092529296875" lon="1.3086985610425472259521484375">
        <ele>1090.199951171875</ele>
        <time>2020-08-12T07:31:20.000Z</time>
      </trkpt>
      <trkpt lat="42.3507125861942768096923828125" lon="1.3086472637951374053955078125">
        <ele>1090.4000244140625</ele>
        <time>2020-08-12T07:31:23.000Z</time>
      </trkpt>
      <trkpt lat="42.35074569471180438995361328125" lon="1.30858649499714374542236328125">
        <ele>1090.800048828125</ele>
        <time>2020-08-12T07:31:29.000Z</time>
      </trkpt>
      <trkpt lat="42.35076195560395717620849609375" lon="1.3085652887821197509765625">
        <ele>1090.800048828125</ele>
        <time>2020-08-12T07:31:30.000Z</time>
      </trkpt>
      <trkpt lat="42.3507856763899326324462890625" lon="1.3085369579493999481201171875">
        <ele>1091.199951171875</ele>
        <time>2020-08-12T07:31:34.000Z</time>
      </trkpt>
      <trkpt lat="42.35084694810211658477783203125" lon="1.3084876723587512969970703125">
        <ele>1091.800048828125</ele>
        <time>2020-08-12T07:31:40.000Z</time>
      </trkpt>
      <trkpt lat="42.35087377019226551055908203125" lon="1.30845724605023860931396484375">
        <ele>1091.800048828125</ele>
        <time>2020-08-12T07:31:41.000Z</time>
      </trkpt>
      <trkpt lat="42.350962199270725250244140625" lon="1.30836118943989276885986328125">
        <ele>1092.800048828125</ele>
        <time>2020-08-12T07:31:49.000Z</time>
      </trkpt>
      <trkpt lat="42.35098558478057384490966796875" lon="1.3083361275494098663330078125">
        <ele>1093</ele>
        <time>2020-08-12T07:31:51.000Z</time>
      </trkpt>
      <trkpt lat="42.3510213755071163177490234375" lon="1.30829597823321819305419921875">
        <ele>1093.199951171875</ele>
        <time>2020-08-12T07:31:54.000Z</time>
      </trkpt>
      <trkpt lat="42.35107292421162128448486328125" lon="1.30827225744724273681640625">
        <ele>1093.5999755859375</ele>
        <time>2020-08-12T07:31:57.000Z</time>
      </trkpt>
      <trkpt lat="42.35108650289475917816162109375" lon="1.30825809203088283538818359375">
        <ele>1093.800048828125</ele>
        <time>2020-08-12T07:31:59.000Z</time>
      </trkpt>
      <trkpt lat="42.351119108498096466064453125" lon="1.3082288391888141632080078125">
        <ele>1094</ele>
        <time>2020-08-12T07:32:01.000Z</time>
      </trkpt>
      <trkpt lat="42.35114936716854572296142578125" lon="1.30822121165692806243896484375">
        <ele>1094.4000244140625</ele>
        <time>2020-08-12T07:32:04.000Z</time>
      </trkpt>
      <trkpt lat="42.351180128753185272216796875" lon="1.308197490870952606201171875">
        <ele>1095</ele>
        <time>2020-08-12T07:32:07.000Z</time>
      </trkpt>
      <trkpt lat="42.3512071184813976287841796875" lon="1.30816857330501079559326171875">
        <ele>1095.199951171875</ele>
        <time>2020-08-12T07:32:09.000Z</time>
      </trkpt>
      <trkpt lat="42.3512138240039348602294921875" lon="1.3081507198512554168701171875">
        <ele>1095.5999755859375</ele>
        <time>2020-08-12T07:32:11.000Z</time>
      </trkpt>
      <trkpt lat="42.35123268328607082366943359375" lon="1.30802809260785579681396484375">
        <ele>1096.199951171875</ele>
        <time>2020-08-12T07:32:16.000Z</time>
      </trkpt>
      <trkpt lat="42.35121910460293292999267578125" lon="1.3079867698252201080322265625">
        <ele>1096.199951171875</ele>
        <time>2020-08-12T07:32:18.000Z</time>
      </trkpt>
      <trkpt lat="42.35122011043131351470947265625" lon="1.307975538074970245361328125">
        <ele>1096.4000244140625</ele>
        <time>2020-08-12T07:32:19.000Z</time>
      </trkpt>
      <trkpt lat="42.35118876211345195770263671875" lon="1.30783505737781524658203125">
        <ele>1097.199951171875</ele>
        <time>2020-08-12T07:32:29.000Z</time>
      </trkpt>
      <trkpt lat="42.35118524171411991119384765625" lon="1.30779909901320934295654296875">
        <ele>1097.199951171875</ele>
        <time>2020-08-12T07:32:30.000Z</time>
      </trkpt>
      <trkpt lat="42.3512124828994274139404296875" lon="1.307760961353778839111328125">
        <ele>1097.199951171875</ele>
        <time>2020-08-12T07:32:34.000Z</time>
      </trkpt>
      <trkpt lat="42.35123477876186370849609375" lon="1.30774260498583316802978515625">
        <ele>1097.199951171875</ele>
        <time>2020-08-12T07:32:35.000Z</time>
      </trkpt>
      <trkpt lat="42.35129621811211109161376953125" lon="1.30773472599685192108154296875">
        <ele>1097.4000244140625</ele>
        <time>2020-08-12T07:32:39.000Z</time>
      </trkpt>
      <trkpt lat="42.351326309144496917724609375" lon="1.30774461664259433746337890625">
        <ele>1097.4000244140625</ele>
        <time>2020-08-12T07:32:41.000Z</time>
      </trkpt>
      <trkpt lat="42.35138137824833393096923828125" lon="1.3077651523053646087646484375">
        <ele>1097.5999755859375</ele>
        <time>2020-08-12T07:32:45.000Z</time>
      </trkpt>
      <trkpt lat="42.35141708515584468841552734375" lon="1.307764984667301177978515625">
        <ele>1097.4000244140625</ele>
        <time>2020-08-12T07:32:47.000Z</time>
      </trkpt>
      <trkpt lat="42.351464442908763885498046875" lon="1.30776406265795230865478515625">
        <ele>1097.199951171875</ele>
        <time>2020-08-12T07:32:51.000Z</time>
      </trkpt>
      <trkpt lat="42.35155538655817508697509765625" lon="1.307752914726734161376953125">
        <ele>1097.4000244140625</ele>
        <time>2020-08-12T07:32:57.000Z</time>
      </trkpt>
      <trkpt lat="42.3516557179391384124755859375" lon="1.307664401829242706298828125">
        <ele>1097</ele>
        <time>2020-08-12T07:33:02.000Z</time>
      </trkpt>
      <trkpt lat="42.3517727293074131011962890625" lon="1.3075554370880126953125">
        <ele>1096.800048828125</ele>
        <time>2020-08-12T07:33:06.000Z</time>
      </trkpt>
      <trkpt lat="42.35188127495348453521728515625" lon="1.3074516691267490386962890625">
        <ele>1097.4000244140625</ele>
        <time>2020-08-12T07:33:13.000Z</time>
      </trkpt>
      <trkpt lat="42.35193617641925811767578125" lon="1.30739509128034114837646484375">
        <ele>1097.5999755859375</ele>
        <time>2020-08-12T07:33:17.000Z</time>
      </trkpt>
      <trkpt lat="42.3519584722816944122314453125" lon="1.30734798498451709747314453125">
        <ele>1097.800048828125</ele>
        <time>2020-08-12T07:33:20.000Z</time>
      </trkpt>
      <trkpt lat="42.35201932489871978759765625" lon="1.307252012193202972412109375">
        <ele>1098.4000244140625</ele>
        <time>2020-08-12T07:33:24.000Z</time>
      </trkpt>
      <trkpt lat="42.35205243341624736785888671875" lon="1.30718923173844814300537109375">
        <ele>1099</ele>
        <time>2020-08-12T07:33:27.000Z</time>
      </trkpt>
      <trkpt lat="42.35206760466098785400390625" lon="1.30714983679354190826416015625">
        <ele>1099.5999755859375</ele>
        <time>2020-08-12T07:33:29.000Z</time>
      </trkpt>
      <trkpt lat="42.35209316946566104888916015625" lon="1.3070513494312763214111328125">
        <ele>1100.800048828125</ele>
        <time>2020-08-12T07:33:35.000Z</time>
      </trkpt>
      <trkpt lat="42.3521076701581478118896484375" lon="1.30702444352209568023681640625">
        <ele>1100.800048828125</ele>
        <time>2020-08-12T07:33:36.000Z</time>
      </trkpt>
      <trkpt lat="42.3521348275244235992431640625" lon="1.3069842942059040069580078125">
        <ele>1101</ele>
        <time>2020-08-12T07:33:39.000Z</time>
      </trkpt>
      <trkpt lat="42.35217154026031494140625" lon="1.3069071806967258453369140625">
        <ele>1101.199951171875</ele>
        <time>2020-08-12T07:33:43.000Z</time>
      </trkpt>
      <trkpt lat="42.35223465599119663238525390625" lon="1.3068218529224395751953125">
        <ele>1101.800048828125</ele>
        <time>2020-08-12T07:33:49.000Z</time>
      </trkpt>
      <trkpt lat="42.35223465599119663238525390625" lon="1.3068218529224395751953125">
        <ele>1102</ele>
        <time>2020-08-12T07:33:50.000Z</time>
      </trkpt>
      <trkpt lat="42.35224270261824131011962890625" lon="1.30680500529706478118896484375">
        <ele>1102.199951171875</ele>
        <time>2020-08-12T07:33:51.000Z</time>
      </trkpt>
      <trkpt lat="42.35229031182825565338134765625" lon="1.30672839470207691192626953125">
        <ele>1102.199951171875</ele>
        <time>2020-08-12T07:33:55.000Z</time>
      </trkpt>
      <trkpt lat="42.35230766236782073974609375" lon="1.30669914186000823974609375">
        <ele>1102.4000244140625</ele>
        <time>2020-08-12T07:33:57.000Z</time>
      </trkpt>
      <trkpt lat="42.35232652164995670318603515625" lon="1.3066738285124301910400390625">
        <ele>1102.4000244140625</ele>
        <time>2020-08-12T07:33:59.000Z</time>
      </trkpt>
      <trkpt lat="42.352371700108051300048828125" lon="1.306582801043987274169921875">
        <ele>1102.800048828125</ele>
        <time>2020-08-12T07:34:03.000Z</time>
      </trkpt>
      <trkpt lat="42.35247555188834667205810546875" lon="1.3064624369144439697265625">
        <ele>1102.5999755859375</ele>
        <time>2020-08-12T07:34:09.000Z</time>
      </trkpt>
      <trkpt lat="42.35254847444593906402587890625" lon="1.30643871612846851348876953125">
        <ele>1102.4000244140625</ele>
        <time>2020-08-12T07:34:13.000Z</time>
      </trkpt>
      <trkpt lat="42.35258636064827442169189453125" lon="1.306434608995914459228515625">
        <ele>1103</ele>
        <time>2020-08-12T07:34:15.000Z</time>
      </trkpt>
      <trkpt lat="42.35258636064827442169189453125" lon="1.306434608995914459228515625">
        <ele>1103.199951171875</ele>
        <time>2020-08-12T07:34:16.000Z</time>
      </trkpt>
      <trkpt lat="42.35276305116713047027587890625" lon="1.30641541443765163421630859375">
        <ele>1104</ele>
        <time>2020-08-12T07:34:24.000Z</time>
      </trkpt>
      <trkpt lat="42.35279875807464122772216796875" lon="1.30641289986670017242431640625">
        <ele>1104.199951171875</ele>
        <time>2020-08-12T07:34:27.000Z</time>
      </trkpt>
      <trkpt lat="42.35293303616344928741455078125" lon="1.30641340278089046478271484375">
        <ele>1105</ele>
        <time>2020-08-12T07:34:35.000Z</time>
      </trkpt>
      <trkpt lat="42.3529619537293910980224609375" lon="1.30640267394483089447021484375">
        <ele>1105</ele>
        <time>2020-08-12T07:34:36.000Z</time>
      </trkpt>
      <trkpt lat="42.353007383644580841064453125" lon="1.3063486106693744659423828125">
        <ele>1105.5999755859375</ele>
        <time>2020-08-12T07:34:41.000Z</time>
      </trkpt>
      <trkpt lat="42.3530789650976657867431640625" lon="1.30622883327305316925048828125">
        <ele>1106</ele>
        <time>2020-08-12T07:34:47.000Z</time>
      </trkpt>
      <trkpt lat="42.35311366617679595947265625" lon="1.3061437569558620452880859375">
        <ele>1106.199951171875</ele>
        <time>2020-08-12T07:34:52.000Z</time>
      </trkpt>
      <trkpt lat="42.35319807194173336029052734375" lon="1.3059476204216480255126953125">
        <ele>1105.199951171875</ele>
        <time>2020-08-12T07:34:57.000Z</time>
      </trkpt>
      <trkpt lat="42.35319807194173336029052734375" lon="1.3059476204216480255126953125">
        <ele>1104.5999755859375</ele>
        <time>2020-08-12T07:34:58.000Z</time>
      </trkpt>
      <trkpt lat="42.35328658483922481536865234375" lon="1.305733881890773773193359375">
        <ele>1103.4000244140625</ele>
        <time>2020-08-12T07:35:02.000Z</time>
      </trkpt>
      <trkpt lat="42.353313155472278594970703125" lon="1.30562533624470233917236328125">
        <ele>1103</ele>
        <time>2020-08-12T07:35:04.000Z</time>
      </trkpt>
      <trkpt lat="42.35339253209531307220458984375" lon="1.30531436763703823089599609375">
        <ele>1102</ele>
        <time>2020-08-12T07:35:09.000Z</time>
      </trkpt>
      <trkpt lat="42.35343226231634616851806640625" lon="1.30522870458662509918212890625">
        <ele>1101.5999755859375</ele>
        <time>2020-08-12T07:35:11.000Z</time>
      </trkpt>
      <trkpt lat="42.35346528701484203338623046875" lon="1.30514756776392459869384765625">
        <ele>1100.4000244140625</ele>
        <time>2020-08-12T07:35:14.000Z</time>
      </trkpt>
      <trkpt lat="42.3534900136291980743408203125" lon="1.305106915533542633056640625">
        <ele>1099.5999755859375</ele>
        <time>2020-08-12T07:35:16.000Z</time>
      </trkpt>
      <trkpt lat="42.3535138182342052459716796875" lon="1.30510951392352581024169921875">
        <ele>1099.4000244140625</ele>
        <time>2020-08-12T07:35:18.000Z</time>
      </trkpt>
      <trkpt lat="42.35353083349764347076416015625" lon="1.30511605180799961090087890625">
        <ele>1099.199951171875</ele>
        <time>2020-08-12T07:35:21.000Z</time>
      </trkpt>
      <trkpt lat="42.353606857359409332275390625" lon="1.30515779368579387664794921875">
        <ele>1099.199951171875</ele>
        <time>2020-08-12T07:35:26.000Z</time>
      </trkpt>
      <trkpt lat="42.353641726076602935791015625" lon="1.3052157126367092132568359375">
        <ele>1099.199951171875</ele>
        <time>2020-08-12T07:35:27.000Z</time>
      </trkpt>
      <trkpt lat="42.3536532931029796600341796875" lon="1.30529098212718963623046875">
        <ele>1099.4000244140625</ele>
        <time>2020-08-12T07:35:29.000Z</time>
      </trkpt>
      <trkpt lat="42.35364901833236217498779296875" lon="1.30542802624404430389404296875">
        <ele>1097.800048828125</ele>
        <time>2020-08-12T07:35:33.000Z</time>
      </trkpt>
      <trkpt lat="42.35364683903753757476806640625" lon="1.3054591231048107147216796875">
        <ele>1097.4000244140625</ele>
        <time>2020-08-12T07:35:35.000Z</time>
      </trkpt>
      <trkpt lat="42.3536320030689239501953125" lon="1.305593736469745635986328125">
        <ele>1097</ele>
        <time>2020-08-12T07:35:38.000Z</time>
      </trkpt>
      <trkpt lat="42.35364985652267932891845703125" lon="1.30571301095187664031982421875">
        <ele>1096.800048828125</ele>
        <time>2020-08-12T07:35:39.000Z</time>
      </trkpt>
      <trkpt lat="42.35369092784821987152099609375" lon="1.30599908530712127685546875">
        <ele>1096.4000244140625</ele>
        <time>2020-08-12T07:35:45.000Z</time>
      </trkpt>
      <trkpt lat="42.3536636866629123687744140625" lon="1.30616605281829833984375">
        <ele>1097</ele>
        <time>2020-08-12T07:35:51.000Z</time>
      </trkpt>
      <trkpt lat="42.35359604470431804656982421875" lon="1.3063207827508449554443359375">
        <ele>1097.800048828125</ele>
        <time>2020-08-12T07:35:59.000Z</time>
      </trkpt>
      <trkpt lat="42.3535879142582416534423828125" lon="1.3063415698707103729248046875">
        <ele>1097.800048828125</ele>
        <time>2020-08-12T07:36:00.000Z</time>
      </trkpt>
      <trkpt lat="42.35354022122919559478759765625" lon="1.3064904324710369110107421875">
        <ele>1098.199951171875</ele>
        <time>2020-08-12T07:36:07.000Z</time>
      </trkpt>
      <trkpt lat="42.353478111326694488525390625" lon="1.30663921125233173370361328125">
        <ele>1098.5999755859375</ele>
        <time>2020-08-12T07:36:16.000Z</time>
      </trkpt>
      <trkpt lat="42.35343947075307369232177734375" lon="1.3067482598125934600830078125">
        <ele>1099.5999755859375</ele>
        <time>2020-08-12T07:36:22.000Z</time>
      </trkpt>
      <trkpt lat="42.35341315157711505889892578125" lon="1.30680131725966930389404296875">
        <ele>1100.199951171875</ele>
        <time>2020-08-12T07:36:24.000Z</time>
      </trkpt>
      <trkpt lat="42.35338800586760044097900390625" lon="1.30684674717485904693603515625">
        <ele>1100.5999755859375</ele>
        <time>2020-08-12T07:36:27.000Z</time>
      </trkpt>
      <trkpt lat="42.35338800586760044097900390625" lon="1.30684674717485904693603515625">
        <ele>1100.800048828125</ele>
        <time>2020-08-12T07:36:28.000Z</time>
      </trkpt>
      <trkpt lat="42.353356070816516876220703125" lon="1.3068870641291141510009765625">
        <ele>1101.199951171875</ele>
        <time>2020-08-12T07:36:31.000Z</time>
      </trkpt>
      <trkpt lat="42.353307120501995086669921875" lon="1.30697381682693958282470703125">
        <ele>1101.800048828125</ele>
        <time>2020-08-12T07:36:35.000Z</time>
      </trkpt>
      <trkpt lat="42.35327401198446750640869140625" lon="1.30704171024262905120849609375">
        <ele>1102.5999755859375</ele>
        <time>2020-08-12T07:36:39.000Z</time>
      </trkpt>
      <trkpt lat="42.35325716435909271240234375" lon="1.30707406438887119293212890625">
        <ele>1102.800048828125</ele>
        <time>2020-08-12T07:36:41.000Z</time>
      </trkpt>
      <trkpt lat="42.3532216250896453857421875" lon="1.30718990229070186614990234375">
        <ele>1103.5999755859375</ele>
        <time>2020-08-12T07:36:47.000Z</time>
      </trkpt>
      <trkpt lat="42.35321332700550556182861328125" lon="1.30722829140722751617431640625">
        <ele>1104.199951171875</ele>
        <time>2020-08-12T07:36:49.000Z</time>
      </trkpt>
      <trkpt lat="42.35317979939281940460205078125" lon="1.30733675323426723480224609375">
        <ele>1104.800048828125</ele>
        <time>2020-08-12T07:36:56.000Z</time>
      </trkpt>
      <trkpt lat="42.35316462814807891845703125" lon="1.3073715381324291229248046875">
        <ele>1105.199951171875</ele>
        <time>2020-08-12T07:36:57.000Z</time>
      </trkpt>
      <trkpt lat="42.3531252332031726837158203125" lon="1.30742811597883701324462890625">
        <ele>1106.199951171875</ele>
        <time>2020-08-12T07:37:02.000Z</time>
      </trkpt>
      <trkpt lat="42.35310427844524383544921875" lon="1.3074548542499542236328125">
        <ele>1106.199951171875</ele>
        <time>2020-08-12T07:37:04.000Z</time>
      </trkpt>
      <trkpt lat="42.35300260595977306365966796875" lon="1.30756155587732791900634765625">
        <ele>1106.800048828125</ele>
        <time>2020-08-12T07:37:12.000Z</time>
      </trkpt>
      <trkpt lat="42.35299103893339633941650390625" lon="1.307576559484004974365234375">
        <ele>1107.199951171875</ele>
        <time>2020-08-12T07:37:14.000Z</time>
      </trkpt>
      <trkpt lat="42.35292230732738971710205078125" lon="1.30764587782323360443115234375">
        <ele>1108.199951171875</ele>
        <time>2020-08-12T07:37:20.000Z</time>
      </trkpt>
      <trkpt lat="42.3528710938990116119384765625" lon="1.30769097246229648590087890625">
        <ele>1108.4000244140625</ele>
        <time>2020-08-12T07:37:23.000Z</time>
      </trkpt>
      <trkpt lat="42.35282591544091701507568359375" lon="1.30773405544459819793701171875">
        <ele>1109</ele>
        <time>2020-08-12T07:37:27.000Z</time>
      </trkpt>
      <trkpt lat="42.3527869395911693572998046875" lon="1.30776758305728435516357421875">
        <ele>1109.4000244140625</ele>
        <time>2020-08-12T07:37:30.000Z</time>
      </trkpt>
      <trkpt lat="42.35272801481187343597412109375" lon="1.307841427624225616455078125">
        <ele>1109.800048828125</ele>
        <time>2020-08-12T07:37:35.000Z</time>
      </trkpt>
      <trkpt lat="42.35270404256880283355712890625" lon="1.30791359581053256988525390625">
        <ele>1110.4000244140625</ele>
        <time>2020-08-12T07:37:39.000Z</time>
      </trkpt>
      <trkpt lat="42.352694571018218994140625" lon="1.30799372680485248565673828125">
        <ele>1111</ele>
        <time>2020-08-12T07:37:44.000Z</time>
      </trkpt>
      <trkpt lat="42.35270672477781772613525390625" lon="1.30815499462187290191650390625">
        <ele>1111.4000244140625</ele>
        <time>2020-08-12T07:37:52.000Z</time>
      </trkpt>
      <trkpt lat="42.35271912999451160430908203125" lon="1.30829564295709133148193359375">
        <ele>1112</ele>
        <time>2020-08-12T07:37:58.000Z</time>
      </trkpt>
      <trkpt lat="42.35274913720786571502685546875" lon="1.30846495740115642547607421875">
        <ele>1112.199951171875</ele>
        <time>2020-08-12T07:38:06.000Z</time>
      </trkpt>
      <trkpt lat="42.35277327708899974822998046875" lon="1.3086087070405483245849609375">
        <ele>1113.199951171875</ele>
        <time>2020-08-12T07:38:14.000Z</time>
      </trkpt>
      <trkpt lat="42.352780401706695556640625" lon="1.30864776670932769775390625">
        <ele>1113.199951171875</ele>
        <time>2020-08-12T07:38:15.000Z</time>
      </trkpt>
      <trkpt lat="42.3528184555470943450927734375" lon="1.30877559073269367218017578125">
        <ele>1113.5999755859375</ele>
        <time>2020-08-12T07:38:22.000Z</time>
      </trkpt>
      <trkpt lat="42.3528412543237209320068359375" lon="1.30887147970497608184814453125">
        <ele>1114</ele>
        <time>2020-08-12T07:38:27.000Z</time>
      </trkpt>
      <trkpt lat="42.3528514802455902099609375" lon="1.3089071027934551239013671875">
        <ele>1114.4000244140625</ele>
        <time>2020-08-12T07:38:29.000Z</time>
      </trkpt>
      <trkpt lat="42.35285810194909572601318359375" lon="1.3089242018759250640869140625">
        <ele>1114.5999755859375</ele>
        <time>2020-08-12T07:38:30.000Z</time>
      </trkpt>
      <trkpt lat="42.35287972725927829742431640625" lon="1.30905638448894023895263671875">
        <ele>1114.800048828125</ele>
        <time>2020-08-12T07:38:38.000Z</time>
      </trkpt>
      <trkpt lat="42.3529123328626155853271484375" lon="1.3091961108148097991943359375">
        <ele>1115.5999755859375</ele>
        <time>2020-08-12T07:38:45.000Z</time>
      </trkpt>
      <trkpt lat="42.3529193736612796783447265625" lon="1.30926660262048244476318359375">
        <ele>1116</ele>
        <time>2020-08-12T07:38:49.000Z</time>
      </trkpt>
      <trkpt lat="42.35292683355510234832763671875" lon="1.3093352504074573516845703125">
        <ele>1116.199951171875</ele>
        <time>2020-08-12T07:38:53.000Z</time>
      </trkpt>
      <trkpt lat="42.3529317788779735565185546875" lon="1.309465505182743072509765625">
        <ele>1116.800048828125</ele>
        <time>2020-08-12T07:39:00.000Z</time>
      </trkpt>
      <trkpt lat="42.352932281792163848876953125" lon="1.30948453210294246673583984375">
        <ele>1117</ele>
        <time>2020-08-12T07:39:01.000Z</time>
      </trkpt>
      <trkpt lat="42.3529240675270557403564453125" lon="1.30960422568023204803466796875">
        <ele>1118</ele>
        <time>2020-08-12T07:39:07.000Z</time>
      </trkpt>
      <trkpt lat="42.35291384160518646240234375" lon="1.30968720652163028717041015625">
        <ele>1118.4000244140625</ele>
        <time>2020-08-12T07:39:11.000Z</time>
      </trkpt>
      <trkpt lat="42.35289297066628932952880859375" lon="1.3098445348441600799560546875">
        <ele>1118.800048828125</ele>
        <time>2020-08-12T07:39:19.000Z</time>
      </trkpt>
      <trkpt lat="42.35288777388632297515869140625" lon="1.30990111269056797027587890625">
        <ele>1119.4000244140625</ele>
        <time>2020-08-12T07:39:22.000Z</time>
      </trkpt>
      <trkpt lat="42.35287905670702457427978515625" lon="1.30998996086418628692626953125">
        <ele>1120</ele>
        <time>2020-08-12T07:39:27.000Z</time>
      </trkpt>
      <trkpt lat="42.3528757877647876739501953125" lon="1.3100379891693592071533203125">
        <ele>1120.5999755859375</ele>
        <time>2020-08-12T07:39:30.000Z</time>
      </trkpt>
      <trkpt lat="42.352876625955104827880859375" lon="1.31004117429256439208984375">
        <ele>1120.800048828125</ele>
        <time>2020-08-12T07:39:35.000Z</time>
      </trkpt>
      <trkpt lat="42.3528757877647876739501953125" lon="1.31004109047353267669677734375">
        <ele>1121</ele>
        <time>2020-08-12T07:39:41.000Z</time>
      </trkpt>
      <trkpt lat="42.35287570394575595855712890625" lon="1.31005014292895793914794921875">
        <ele>1120.800048828125</ele>
        <time>2020-08-12T07:39:46.000Z</time>
      </trkpt>
      <trkpt lat="42.35287168063223361968994140625" lon="1.310063302516937255859375">
        <ele>1120.800048828125</ele>
        <time>2020-08-12T07:39:49.000Z</time>
      </trkpt>
      <trkpt lat="42.35286715440452098846435546875" lon="1.31007671356201171875">
        <ele>1120.800048828125</ele>
        <time>2020-08-12T07:42:03.000Z</time>
      </trkpt>
      <trkpt lat="42.35286732204258441925048828125" lon="1.31007679738104343414306640625">
        <ele>1120.800048828125</ele>
        <time>2020-08-12T07:42:04.000Z</time>
      </trkpt>
      <trkpt lat="42.35287503339350223541259765625" lon="1.31008249707520008087158203125">
        <ele>1121</ele>
        <time>2020-08-12T07:42:06.000Z</time>
      </trkpt>
      <trkpt lat="42.35291107557713985443115234375" lon="1.31010026670992374420166015625">
        <ele>1121</ele>
        <time>2020-08-12T07:42:10.000Z</time>
      </trkpt>
      <trkpt lat="42.352917194366455078125" lon="1.31011166609823703765869140625">
        <ele>1121.199951171875</ele>
        <time>2020-08-12T07:42:11.000Z</time>
      </trkpt>
      <trkpt lat="42.35292322933673858642578125" lon="1.31015541963279247283935546875">
        <ele>1121.5999755859375</ele>
        <time>2020-08-12T07:42:14.000Z</time>
      </trkpt>
      <trkpt lat="42.35292029567062854766845703125" lon="1.3101707585155963897705078125">
        <ele>1121.800048828125</ele>
        <time>2020-08-12T07:42:15.000Z</time>
      </trkpt>
      <trkpt lat="42.35291040502488613128662109375" lon="1.31021861918270587921142578125">
        <ele>1122.4000244140625</ele>
        <time>2020-08-12T07:42:18.000Z</time>
      </trkpt>
      <trkpt lat="42.35291308723390102386474609375" lon="1.31024912931025028228759765625">
        <ele>1123</ele>
        <time>2020-08-12T07:42:20.000Z</time>
      </trkpt>
      <trkpt lat="42.3529274202883243560791015625" lon="1.31029925309121608734130859375">
        <ele>1123.199951171875</ele>
        <time>2020-08-12T07:42:23.000Z</time>
      </trkpt>
      <trkpt lat="42.352926246821880340576171875" lon="1.3103155978024005889892578125">
        <ele>1123.4000244140625</ele>
        <time>2020-08-12T07:42:24.000Z</time>
      </trkpt>
      <trkpt lat="42.35292398370802402496337890625" lon="1.31036580540239810943603515625">
        <ele>1124.199951171875</ele>
        <time>2020-08-12T07:42:27.000Z</time>
      </trkpt>
      <trkpt lat="42.35294275917112827301025390625" lon="1.3104262389242649078369140625">
        <ele>1125</ele>
        <time>2020-08-12T07:42:31.000Z</time>
      </trkpt>
      <trkpt lat="42.35294963233172893524169921875" lon="1.31043948233127593994140625">
        <ele>1125.199951171875</ele>
        <time>2020-08-12T07:42:32.000Z</time>
      </trkpt>
      <trkpt lat="42.352957427501678466796875" lon="1.3105003349483013153076171875">
        <ele>1126</ele>
        <time>2020-08-12T07:42:36.000Z</time>
      </trkpt>
      <trkpt lat="42.35296136699616909027099609375" lon="1.3105147518217563629150390625">
        <ele>1126.199951171875</ele>
        <time>2020-08-12T07:42:37.000Z</time>
      </trkpt>
      <trkpt lat="42.352976538240909576416015625" lon="1.31053964607417583465576171875">
        <ele>1126.5999755859375</ele>
        <time>2020-08-12T07:42:39.000Z</time>
      </trkpt>
      <trkpt lat="42.352992631494998931884765625" lon="1.310579963028430938720703125">
        <ele>1127.199951171875</ele>
        <time>2020-08-12T07:42:42.000Z</time>
      </trkpt>
      <trkpt lat="42.35299766063690185546875" lon="1.310612149536609649658203125">
        <ele>1127.5999755859375</ele>
        <time>2020-08-12T07:42:44.000Z</time>
      </trkpt>
      <trkpt lat="42.35300235450267791748046875" lon="1.310626901686191558837890625">
        <ele>1127.800048828125</ele>
        <time>2020-08-12T07:42:45.000Z</time>
      </trkpt>
      <trkpt lat="42.35301082022488117218017578125" lon="1.31065405905246734619140625">
        <ele>1128.199951171875</ele>
        <time>2020-08-12T07:42:47.000Z</time>
      </trkpt>
      <trkpt lat="42.353023476898670196533203125" lon="1.3107142411172389984130859375">
        <ele>1129</ele>
        <time>2020-08-12T07:42:51.000Z</time>
      </trkpt>
      <trkpt lat="42.353030852973461151123046875" lon="1.3107242994010448455810546875">
        <ele>1129.199951171875</ele>
        <time>2020-08-12T07:42:52.000Z</time>
      </trkpt>
      <trkpt lat="42.3530571721494197845458984375" lon="1.31079353392124176025390625">
        <ele>1129.800048828125</ele>
        <time>2020-08-12T07:42:57.000Z</time>
      </trkpt>
      <trkpt lat="42.35307116992771625518798828125" lon="1.31082027219235897064208984375">
        <ele>1130.4000244140625</ele>
        <time>2020-08-12T07:42:59.000Z</time>
      </trkpt>
      <trkpt lat="42.35310402698814868927001953125" lon="1.31088917143642902374267578125">
        <ele>1131</ele>
        <time>2020-08-12T07:43:04.000Z</time>
      </trkpt>
      <trkpt lat="42.35311341471970081329345703125" lon="1.31090006791055202484130859375">
        <ele>1131.199951171875</ele>
        <time>2020-08-12T07:43:05.000Z</time>
      </trkpt>
      <trkpt lat="42.35314141027629375457763671875" lon="1.31097248755395412445068359375">
        <ele>1132</ele>
        <time>2020-08-12T07:43:10.000Z</time>
      </trkpt>
      <trkpt lat="42.35315398313105106353759765625" lon="1.3110200129449367523193359375">
        <ele>1132.199951171875</ele>
        <time>2020-08-12T07:43:14.000Z</time>
      </trkpt>
      <trkpt lat="42.3531671427190303802490234375" lon="1.31109134294092655181884765625">
        <ele>1132.5999755859375</ele>
        <time>2020-08-12T07:43:18.000Z</time>
      </trkpt>
      <trkpt lat="42.3531674779951572418212890625" lon="1.31110995076596736907958984375">
        <ele>1132.5999755859375</ele>
        <time>2020-08-12T07:43:19.000Z</time>
      </trkpt>
      <trkpt lat="42.3531547375023365020751953125" lon="1.31119561381638050079345703125">
        <ele>1132.800048828125</ele>
        <time>2020-08-12T07:43:23.000Z</time>
      </trkpt>
      <trkpt lat="42.35313336364924907684326171875" lon="1.31136040203273296356201171875">
        <ele>1132.5999755859375</ele>
        <time>2020-08-12T07:43:29.000Z</time>
      </trkpt>
      <trkpt lat="42.3531567491590976715087890625" lon="1.31146819330751895904541015625">
        <ele>1132.800048828125</ele>
        <time>2020-08-12T07:43:34.000Z</time>
      </trkpt>
      <trkpt lat="42.3531986586749553680419921875" lon="1.311546228826045989990234375">
        <ele>1133</ele>
        <time>2020-08-12T07:43:39.000Z</time>
      </trkpt>
      <trkpt lat="42.353223301470279693603515625" lon="1.31156869232654571533203125">
        <ele>1133.199951171875</ele>
        <time>2020-08-12T07:43:41.000Z</time>
      </trkpt>
      <trkpt lat="42.35327971167862415313720703125" lon="1.3116516731679439544677734375">
        <ele>1134</ele>
        <time>2020-08-12T07:43:47.000Z</time>
      </trkpt>
      <trkpt lat="42.35329060815274715423583984375" lon="1.31168561987578868865966796875">
        <ele>1134.4000244140625</ele>
        <time>2020-08-12T07:43:49.000Z</time>
      </trkpt>
      <trkpt lat="42.353318519890308380126953125" lon="1.3117763958871364593505859375">
        <ele>1135.199951171875</ele>
        <time>2020-08-12T07:43:54.000Z</time>
      </trkpt>
      <trkpt lat="42.3533253930509090423583984375" lon="1.31179290823638439178466796875">
        <ele>1135.4000244140625</ele>
        <time>2020-08-12T07:43:55.000Z</time>
      </trkpt>
      <trkpt lat="42.35333251766860485076904296875" lon="1.31180950440466403961181640625">
        <ele>1135.5999755859375</ele>
        <time>2020-08-12T07:43:56.000Z</time>
      </trkpt>
      <trkpt lat="42.35337476246058940887451171875" lon="1.31189198233187198638916015625">
        <ele>1136.199951171875</ele>
        <time>2020-08-12T07:44:01.000Z</time>
      </trkpt>
      <trkpt lat="42.35341809689998626708984375" lon="1.31197395734488964080810546875">
        <ele>1137</ele>
        <time>2020-08-12T07:44:06.000Z</time>
      </trkpt>
      <trkpt lat="42.35343628562986850738525390625" lon="1.312005221843719482421875">
        <ele>1137.4000244140625</ele>
        <time>2020-08-12T07:44:08.000Z</time>
      </trkpt>
      <trkpt lat="42.35345941968262195587158203125" lon="1.3120548427104949951171875">
        <ele>1137.5999755859375</ele>
        <time>2020-08-12T07:44:11.000Z</time>
      </trkpt>
      <trkpt lat="42.353474088013172149658203125" lon="1.3120888732373714447021484375">
        <ele>1138</ele>
        <time>2020-08-12T07:44:13.000Z</time>
      </trkpt>
      <trkpt lat="42.353492863476276397705078125" lon="1.31214201450347900390625">
        <ele>1138.4000244140625</ele>
        <time>2020-08-12T07:44:16.000Z</time>
      </trkpt>
      <trkpt lat="42.35351197421550750732421875" lon="1.3122575171291828155517578125">
        <ele>1139.4000244140625</ele>
        <time>2020-08-12T07:44:22.000Z</time>
      </trkpt>
      <trkpt lat="42.3535118065774440765380859375" lon="1.3122772984206676483154296875">
        <ele>1139.5999755859375</ele>
        <time>2020-08-12T07:44:23.000Z</time>
      </trkpt>
      <trkpt lat="42.35348640941083431243896484375" lon="1.31234963424503803253173828125">
        <ele>1140.199951171875</ele>
        <time>2020-08-12T07:44:28.000Z</time>
      </trkpt>
      <trkpt lat="42.35345187596976757049560546875" lon="1.3123901188373565673828125">
        <ele>1140.4000244140625</ele>
        <time>2020-08-12T07:44:30.000Z</time>
      </trkpt>
      <trkpt lat="42.35337794758379459381103515625" lon="1.3124211318790912628173828125">
        <ele>1141.4000244140625</ele>
        <time>2020-08-12T07:44:35.000Z</time>
      </trkpt>
      <trkpt lat="42.3532519675791263580322265625" lon="1.31242708303034305572509765625">
        <ele>1142.5999755859375</ele>
        <time>2020-08-12T07:44:43.000Z</time>
      </trkpt>
      <trkpt lat="42.3532217927277088165283203125" lon="1.31243362091481685638427734375">
        <ele>1142.800048828125</ele>
        <time>2020-08-12T07:44:45.000Z</time>
      </trkpt>
      <trkpt lat="42.35313269309699535369873046875" lon="1.3125042803585529327392578125">
        <ele>1143.4000244140625</ele>
        <time>2020-08-12T07:44:52.000Z</time>
      </trkpt>
      <trkpt lat="42.353085167706012725830078125" lon="1.312529928982257843017578125">
        <ele>1143.5999755859375</ele>
        <time>2020-08-12T07:44:56.000Z</time>
      </trkpt>
      <trkpt lat="42.35306463204324245452880859375" lon="1.31255096755921840667724609375">
        <ele>1143.5999755859375</ele>
        <time>2020-08-12T07:44:58.000Z</time>
      </trkpt>
      <trkpt lat="42.3530591838061809539794921875" lon="1.31257452070713043212890625">
        <ele>1143.800048828125</ele>
        <time>2020-08-12T07:45:00.000Z</time>
      </trkpt>
      <trkpt lat="42.3530350439250469207763671875" lon="1.3126189447939395904541015625">
        <ele>1143.800048828125</ele>
        <time>2020-08-12T07:45:05.000Z</time>
      </trkpt>
      <trkpt lat="42.353027164936065673828125" lon="1.3126491196453571319580078125">
        <ele>1144</ele>
        <time>2020-08-12T07:45:08.000Z</time>
      </trkpt>
      <trkpt lat="42.35299120657145977020263671875" lon="1.31271491758525371551513671875">
        <ele>1144.199951171875</ele>
        <time>2020-08-12T07:45:15.000Z</time>
      </trkpt>
      <trkpt lat="42.35296891070902347564697265625" lon="1.3127486966550350189208984375">
        <ele>1144.199951171875</ele>
        <time>2020-08-12T07:45:19.000Z</time>
      </trkpt>
      <trkpt lat="42.352963797748088836669921875" lon="1.31277224980294704437255859375">
        <ele>1144.199951171875</ele>
        <time>2020-08-12T07:45:21.000Z</time>
      </trkpt>
      <trkpt lat="42.352949045598506927490234375" lon="1.31285539828240871429443359375">
        <ele>1144.4000244140625</ele>
        <time>2020-08-12T07:45:28.000Z</time>
      </trkpt>
      <trkpt lat="42.35294393263757228851318359375" lon="1.3128675520420074462890625">
        <ele>1144.4000244140625</ele>
        <time>2020-08-12T07:45:29.000Z</time>
      </trkpt>
      <trkpt lat="42.352937646210193634033203125" lon="1.31288029253482818603515625">
        <ele>1144.4000244140625</ele>
        <time>2020-08-12T07:45:30.000Z</time>
      </trkpt>
      <trkpt lat="42.35292188823223114013671875" lon="1.3129257224500179290771484375">
        <ele>1144.5999755859375</ele>
        <time>2020-08-12T07:45:33.000Z</time>
      </trkpt>
      <trkpt lat="42.35290168784558773040771484375" lon="1.31297794170677661895751953125">
        <ele>1144.800048828125</ele>
        <time>2020-08-12T07:45:36.000Z</time>
      </trkpt>
      <trkpt lat="42.35286480747163295745849609375" lon="1.31310719065368175506591796875">
        <ele>1145</ele>
        <time>2020-08-12T07:45:43.000Z</time>
      </trkpt>
      <trkpt lat="42.3528204672038555145263671875" lon="1.31323032081127166748046875">
        <ele>1145.199951171875</ele>
        <time>2020-08-12T07:45:50.000Z</time>
      </trkpt>
      <trkpt lat="42.3528171144425868988037109375" lon="1.31324918009340763092041015625">
        <ele>1145.4000244140625</ele>
        <time>2020-08-12T07:45:51.000Z</time>
      </trkpt>
      <trkpt lat="42.35281300731003284454345703125" lon="1.3132687099277973175048828125">
        <ele>1145.5999755859375</ele>
        <time>2020-08-12T07:45:52.000Z</time>
      </trkpt>
      <trkpt lat="42.3527844250202178955078125" lon="1.31336183287203311920166015625">
        <ele>1146</ele>
        <time>2020-08-12T07:45:57.000Z</time>
      </trkpt>
      <trkpt lat="42.35277528874576091766357421875" lon="1.3134175725281238555908203125">
        <ele>1146.4000244140625</ele>
        <time>2020-08-12T07:46:00.000Z</time>
      </trkpt>
      <trkpt lat="42.352750562131404876708984375" lon="1.31349694915115833282470703125">
        <ele>1146.5999755859375</ele>
        <time>2020-08-12T07:46:04.000Z</time>
      </trkpt>
      <trkpt lat="42.35271275974810123443603515625" lon="1.313696019351482391357421875">
        <ele>1147</ele>
        <time>2020-08-12T07:46:13.000Z</time>
      </trkpt>
      <trkpt lat="42.3526964150369167327880859375" lon="1.31386960856616497039794921875">
        <ele>1147.199951171875</ele>
        <time>2020-08-12T07:46:21.000Z</time>
      </trkpt>
      <trkpt lat="42.352685518562793731689453125" lon="1.31395317614078521728515625">
        <ele>1147.199951171875</ele>
        <time>2020-08-12T07:46:25.000Z</time>
      </trkpt>
      <trkpt lat="42.35267085023224353790283203125" lon="1.314043365418910980224609375">
        <ele>1147.5999755859375</ele>
        <time>2020-08-12T07:46:29.000Z</time>
      </trkpt>
      <trkpt lat="42.352661378681659698486328125" lon="1.31420991383492946624755859375">
        <ele>1147.800048828125</ele>
        <time>2020-08-12T07:46:36.000Z</time>
      </trkpt>
      <trkpt lat="42.3526464588940143585205078125" lon="1.31431384943425655364990234375">
        <ele>1148.199951171875</ele>
        <time>2020-08-12T07:46:41.000Z</time>
      </trkpt>
      <trkpt lat="42.35264335758984088897705078125" lon="1.31433547474443912506103515625">
        <ele>1148.4000244140625</ele>
        <time>2020-08-12T07:46:42.000Z</time>
      </trkpt>
      <trkpt lat="42.3526350595057010650634765625" lon="1.3144205510616302490234375">
        <ele>1148.800048828125</ele>
        <time>2020-08-12T07:46:46.000Z</time>
      </trkpt>
      <trkpt lat="42.35263799317181110382080078125" lon="1.31446204148232936859130859375">
        <ele>1149</ele>
        <time>2020-08-12T07:46:48.000Z</time>
      </trkpt>
      <trkpt lat="42.3526360653340816497802734375" lon="1.3145236484706401824951171875">
        <ele>1149.4000244140625</ele>
        <time>2020-08-12T07:46:51.000Z</time>
      </trkpt>
      <trkpt lat="42.35263497568666934967041015625" lon="1.31464979611337184906005859375">
        <ele>1150.4000244140625</ele>
        <time>2020-08-12T07:46:57.000Z</time>
      </trkpt>
      <trkpt lat="42.3526283539831638336181640625" lon="1.31480050273239612579345703125">
        <ele>1151.4000244140625</ele>
        <time>2020-08-12T07:47:04.000Z</time>
      </trkpt>
      <trkpt lat="42.35261787660419940948486328125" lon="1.314862780272960662841796875">
        <ele>1152</ele>
        <time>2020-08-12T07:47:07.000Z</time>
      </trkpt>
      <trkpt lat="42.35259876586496829986572265625" lon="1.3149226270616054534912109375">
        <ele>1152.5999755859375</ele>
        <time>2020-08-12T07:47:10.000Z</time>
      </trkpt>
      <trkpt lat="42.35255710780620574951171875" lon="1.315014995634555816650390625">
        <ele>1153.4000244140625</ele>
        <time>2020-08-12T07:47:15.000Z</time>
      </trkpt>
      <trkpt lat="42.35254679806530475616455078125" lon="1.3150320947170257568359375">
        <ele>1153.4000244140625</ele>
        <time>2020-08-12T07:47:16.000Z</time>
      </trkpt>
      <trkpt lat="42.3524959199130535125732421875" lon="1.315162517130374908447265625">
        <ele>1154.4000244140625</ele>
        <time>2020-08-12T07:47:23.000Z</time>
      </trkpt>
      <trkpt lat="42.35249097459018230438232421875" lon="1.315183304250240325927734375">
        <ele>1154.5999755859375</ele>
        <time>2020-08-12T07:47:24.000Z</time>
      </trkpt>
      <trkpt lat="42.35244101844727993011474609375" lon="1.31533627398312091827392578125">
        <ele>1155.800048828125</ele>
        <time>2020-08-12T07:47:32.000Z</time>
      </trkpt>
      <trkpt lat="42.352435402572154998779296875" lon="1.31535538472235202789306640625">
        <ele>1155.800048828125</ele>
        <time>2020-08-12T07:47:33.000Z</time>
      </trkpt>
      <trkpt lat="42.35239340923726558685302734375" lon="1.3154719769954681396484375">
        <ele>1156.800048828125</ele>
        <time>2020-08-12T07:47:39.000Z</time>
      </trkpt>
      <trkpt lat="42.352389805018901824951171875" lon="1.31549200974404811859130859375">
        <ele>1157</ele>
        <time>2020-08-12T07:47:40.000Z</time>
      </trkpt>
      <trkpt lat="42.35236373730003833770751953125" lon="1.3156595639884471893310546875">
        <ele>1157.5999755859375</ele>
        <time>2020-08-12T07:47:48.000Z</time>
      </trkpt>
      <trkpt lat="42.3523447103798389434814453125" lon="1.3156954385340213775634765625">
        <ele>1157.800048828125</ele>
        <time>2020-08-12T07:47:50.000Z</time>
      </trkpt>
      <trkpt lat="42.3523269407451152801513671875" lon="1.31581571884453296661376953125">
        <ele>1158.4000244140625</ele>
        <time>2020-08-12T07:47:56.000Z</time>
      </trkpt>
      <trkpt lat="42.352314032614231109619140625" lon="1.31585352122783660888671875">
        <ele>1158.800048828125</ele>
        <time>2020-08-12T07:47:58.000Z</time>
      </trkpt>
      <trkpt lat="42.35227338038384914398193359375" lon="1.3159401901066303253173828125">
        <ele>1159.199951171875</ele>
        <time>2020-08-12T07:48:03.000Z</time>
      </trkpt>
      <trkpt lat="42.3522243462502956390380859375" lon="1.316063739359378814697265625">
        <ele>1159.800048828125</ele>
        <time>2020-08-12T07:48:10.000Z</time>
      </trkpt>
      <trkpt lat="42.3522049002349376678466796875" lon="1.316194832324981689453125">
        <ele>1160.800048828125</ele>
        <time>2020-08-12T07:48:17.000Z</time>
      </trkpt>
      <trkpt lat="42.352201044559478759765625" lon="1.31621385924518108367919921875">
        <ele>1160.800048828125</ele>
        <time>2020-08-12T07:48:18.000Z</time>
      </trkpt>
      <trkpt lat="42.35217849723994731903076171875" lon="1.31634729914367198944091796875">
        <ele>1161.800048828125</ele>
        <time>2020-08-12T07:48:25.000Z</time>
      </trkpt>
      <trkpt lat="42.3521817661821842193603515625" lon="1.31636674515902996063232421875">
        <ele>1162</ele>
        <time>2020-08-12T07:48:26.000Z</time>
      </trkpt>
      <trkpt lat="42.35221185721457004547119140625" lon="1.31651870906352996826171875">
        <ele>1162.800048828125</ele>
        <time>2020-08-12T07:48:34.000Z</time>
      </trkpt>
      <trkpt lat="42.352213449776172637939453125" lon="1.31653689779341220855712890625">
        <ele>1163</ele>
        <time>2020-08-12T07:48:35.000Z</time>
      </trkpt>
      <trkpt lat="42.35219274647533893585205078125" lon="1.31663043983280658721923828125">
        <ele>1163.5999755859375</ele>
        <time>2020-08-12T07:48:40.000Z</time>
      </trkpt>
      <trkpt lat="42.352178581058979034423828125" lon="1.316710151731967926025390625">
        <ele>1163.800048828125</ele>
        <time>2020-08-12T07:48:44.000Z</time>
      </trkpt>
      <trkpt lat="42.3521589674055576324462890625" lon="1.3167827390134334564208984375">
        <ele>1164.5999755859375</ele>
        <time>2020-08-12T07:48:48.000Z</time>
      </trkpt>
      <trkpt lat="42.3521448858082294464111328125" lon="1.316816769540309906005859375">
        <ele>1164.800048828125</ele>
        <time>2020-08-12T07:48:50.000Z</time>
      </trkpt>
      <trkpt lat="42.352109514176845550537109375" lon="1.31695062853395938873291015625">
        <ele>1165.800048828125</ele>
        <time>2020-08-12T07:48:57.000Z</time>
      </trkpt>
      <trkpt lat="42.35210037790238857269287109375" lon="1.316968314349651336669921875">
        <ele>1166</ele>
        <time>2020-08-12T07:48:58.000Z</time>
      </trkpt>
      <trkpt lat="42.3520660959184169769287109375" lon="1.31708188913762569427490234375">
        <ele>1166.5999755859375</ele>
        <time>2020-08-12T07:49:04.000Z</time>
      </trkpt>
      <trkpt lat="42.35204053111374378204345703125" lon="1.3171304203569889068603515625">
        <ele>1167</ele>
        <time>2020-08-12T07:49:07.000Z</time>
      </trkpt>
      <trkpt lat="42.3520146310329437255859375" lon="1.31721968762576580047607421875">
        <ele>1167.800048828125</ele>
        <time>2020-08-12T07:49:12.000Z</time>
      </trkpt>
      <trkpt lat="42.35200834460556507110595703125" lon="1.3172534666955471038818359375">
        <ele>1168.199951171875</ele>
        <time>2020-08-12T07:49:14.000Z</time>
      </trkpt>
      <trkpt lat="42.3519863002002239227294921875" lon="1.3173449970781803131103515625">
        <ele>1169</ele>
        <time>2020-08-12T07:49:19.000Z</time>
      </trkpt>
      <trkpt lat="42.35198286361992359161376953125" lon="1.3173631019890308380126953125">
        <ele>1169</ele>
        <time>2020-08-12T07:49:20.000Z</time>
      </trkpt>
      <trkpt lat="42.35195738263428211212158203125" lon="1.3175196759402751922607421875">
        <ele>1170.199951171875</ele>
        <time>2020-08-12T07:49:28.000Z</time>
      </trkpt>
      <trkpt lat="42.35195553861558437347412109375" lon="1.31753937341272830963134765625">
        <ele>1170.4000244140625</ele>
        <time>2020-08-12T07:49:29.000Z</time>
      </trkpt>
      <trkpt lat="42.35193508677184581756591796875" lon="1.317658983170986175537109375">
        <ele>1171.199951171875</ele>
        <time>2020-08-12T07:49:35.000Z</time>
      </trkpt>
      <trkpt lat="42.35192184336483478546142578125" lon="1.31774045526981353759765625">
        <ele>1172</ele>
        <time>2020-08-12T07:49:39.000Z</time>
      </trkpt>
      <trkpt lat="42.3519212566316127777099609375" lon="1.3177610747516155242919921875">
        <ele>1172.199951171875</ele>
        <time>2020-08-12T07:49:40.000Z</time>
      </trkpt>
      <trkpt lat="42.35191212035715579986572265625" lon="1.31787934340536594390869140625">
        <ele>1173</ele>
        <time>2020-08-12T07:49:46.000Z</time>
      </trkpt>
      <trkpt lat="42.3519004695117473602294921875" lon="1.3179572112858295440673828125">
        <ele>1173.4000244140625</ele>
        <time>2020-08-12T07:49:50.000Z</time>
      </trkpt>
      <trkpt lat="42.35189233906567096710205078125" lon="1.31803792901337146759033203125">
        <ele>1174</ele>
        <time>2020-08-12T07:49:54.000Z</time>
      </trkpt>
      <trkpt lat="42.35189300961792469024658203125" lon="1.31807950325310230255126953125">
        <ele>1174.5999755859375</ele>
        <time>2020-08-12T07:49:56.000Z</time>
      </trkpt>
      <trkpt lat="42.3518666066229343414306640625" lon="1.318225599825382232666015625">
        <ele>1175.199951171875</ele>
        <time>2020-08-12T07:50:03.000Z</time>
      </trkpt>
      <trkpt lat="42.3517854698002338409423828125" lon="1.3183870352804660797119140625">
        <ele>1175.199951171875</ele>
        <time>2020-08-12T07:50:12.000Z</time>
      </trkpt>
      <trkpt lat="42.35174699686467647552490234375" lon="1.3184735365211963653564453125">
        <ele>1175.4000244140625</ele>
        <time>2020-08-12T07:50:18.000Z</time>
      </trkpt>
      <trkpt lat="42.35174515284597873687744140625" lon="1.31848686374723911285400390625">
        <ele>1175.4000244140625</ele>
        <time>2020-08-12T07:50:19.000Z</time>
      </trkpt>
      <trkpt lat="42.35171615146100521087646484375" lon="1.318592391908168792724609375">
        <ele>1175.4000244140625</ele>
        <time>2020-08-12T07:50:24.000Z</time>
      </trkpt>
      <trkpt lat="42.35167508013546466827392578125" lon="1.3188091479241847991943359375">
        <ele>1176</ele>
        <time>2020-08-12T07:50:33.000Z</time>
      </trkpt>
      <trkpt lat="42.35162294469773769378662109375" lon="1.3189754448831081390380859375">
        <ele>1176.199951171875</ele>
        <time>2020-08-12T07:50:40.000Z</time>
      </trkpt>
      <trkpt lat="42.3515806160867214202880859375" lon="1.31914936937391757965087890625">
        <ele>1176</ele>
        <time>2020-08-12T07:50:47.000Z</time>
      </trkpt>
      <trkpt lat="42.3515775986015796661376953125" lon="1.31922245956957340240478515625">
        <ele>1176.199951171875</ele>
        <time>2020-08-12T07:50:50.000Z</time>
      </trkpt>
      <trkpt lat="42.35158354975283145904541015625" lon="1.31934315897524356842041015625">
        <ele>1176.800048828125</ele>
        <time>2020-08-12T07:50:55.000Z</time>
      </trkpt>
      <trkpt lat="42.35158656723797321319580078125" lon="1.31943418644368648529052734375">
        <ele>1177.199951171875</ele>
        <time>2020-08-12T07:50:59.000Z</time>
      </trkpt>
      <trkpt lat="42.35159561969339847564697265625" lon="1.31952119059860706329345703125">
        <ele>1178</ele>
        <time>2020-08-12T07:51:03.000Z</time>
      </trkpt>
      <trkpt lat="42.3516107909381389617919921875" lon="1.3196107931435108184814453125">
        <ele>1178.199951171875</ele>
        <time>2020-08-12T07:51:07.000Z</time>
      </trkpt>
      <trkpt lat="42.35161774791777133941650390625" lon="1.31970441900193691253662109375">
        <ele>1178.800048828125</ele>
        <time>2020-08-12T07:51:11.000Z</time>
      </trkpt>
      <trkpt lat="42.35160483978688716888427734375" lon="1.31977365352213382720947265625">
        <ele>1179.199951171875</ele>
        <time>2020-08-12T07:51:14.000Z</time>
      </trkpt>
      <trkpt lat="42.351568378508090972900390625" lon="1.31982595659792423248291015625">
        <ele>1179.5999755859375</ele>
        <time>2020-08-12T07:51:17.000Z</time>
      </trkpt>
      <trkpt lat="42.3514889180660247802734375" lon="1.31988429464399814605712890625">
        <ele>1180.199951171875</ele>
        <time>2020-08-12T07:51:22.000Z</time>
      </trkpt>
      <trkpt lat="42.35144088976085186004638671875" lon="1.31992352195084095001220703125">
        <ele>1180.5999755859375</ele>
        <time>2020-08-12T07:51:25.000Z</time>
      </trkpt>
      <trkpt lat="42.351358495652675628662109375" lon="1.3199769146740436553955078125">
        <ele>1181.4000244140625</ele>
        <time>2020-08-12T07:51:30.000Z</time>
      </trkpt>
      <trkpt lat="42.3512812145054340362548828125" lon="1.32003835402429103851318359375">
        <ele>1181.4000244140625</ele>
        <time>2020-08-12T07:51:35.000Z</time>
      </trkpt>
      <trkpt lat="42.35119446180760860443115234375" lon="1.320129968225955963134765625">
        <ele>1182</ele>
        <time>2020-08-12T07:51:41.000Z</time>
      </trkpt>
      <trkpt lat="42.3511643707752227783203125" lon="1.3201562874019145965576171875">
        <ele>1182.199951171875</ele>
        <time>2020-08-12T07:51:43.000Z</time>
      </trkpt>
      <trkpt lat="42.35108868218958377838134765625" lon="1.320228539407253265380859375">
        <ele>1182.5999755859375</ele>
        <time>2020-08-12T07:51:48.000Z</time>
      </trkpt>
      <trkpt lat="42.3509667254984378814697265625" lon="1.3203088380396366119384765625">
        <ele>1183.4000244140625</ele>
        <time>2020-08-12T07:51:55.000Z</time>
      </trkpt>
      <trkpt lat="42.3508988320827484130859375" lon="1.32035368122160434722900390625">
        <ele>1183.5999755859375</ele>
        <time>2020-08-12T07:51:59.000Z</time>
      </trkpt>
      <trkpt lat="42.35080151818692684173583984375" lon="1.320420317351818084716796875">
        <ele>1184.4000244140625</ele>
        <time>2020-08-12T07:52:05.000Z</time>
      </trkpt>
      <trkpt lat="42.350751645863056182861328125" lon="1.320449821650981903076171875">
        <ele>1184.800048828125</ele>
        <time>2020-08-12T07:52:08.000Z</time>
      </trkpt>
      <trkpt lat="42.35064108856022357940673828125" lon="1.32052324712276458740234375">
        <ele>1185.4000244140625</ele>
        <time>2020-08-12T07:52:15.000Z</time>
      </trkpt>
      <trkpt lat="42.35060974024236202239990234375" lon="1.320547051727771759033203125">
        <ele>1185.5999755859375</ele>
        <time>2020-08-12T07:52:17.000Z</time>
      </trkpt>
      <trkpt lat="42.35048669390380382537841796875" lon="1.3206883706152439117431640625">
        <ele>1186.4000244140625</ele>
        <time>2020-08-12T07:52:26.000Z</time>
      </trkpt>
      <trkpt lat="42.35040455125272274017333984375" lon="1.3208315335214138031005859375">
        <ele>1187.4000244140625</ele>
        <time>2020-08-12T07:52:34.000Z</time>
      </trkpt>
      <trkpt lat="42.35039432533085346221923828125" lon="1.320846788585186004638671875">
        <ele>1187.5999755859375</ele>
        <time>2020-08-12T07:52:35.000Z</time>
      </trkpt>
      <trkpt lat="42.35036029480397701263427734375" lon="1.32088107056915760040283203125">
        <ele>1188</ele>
        <time>2020-08-12T07:52:40.000Z</time>
      </trkpt>
      <trkpt lat="42.3503397591412067413330078125" lon="1.32095508277416229248046875">
        <ele>1188.4000244140625</ele>
        <time>2020-08-12T07:59:06.000Z</time>
      </trkpt>
      <trkpt lat="42.35032953321933746337890625" lon="1.3209981657564640045166015625">
        <ele>1188.5999755859375</ele>
        <time>2020-08-12T07:59:09.000Z</time>
      </trkpt>
      <trkpt lat="42.35031469725072383880615234375" lon="1.3210632093250751495361328125">
        <ele>1189.199951171875</ele>
        <time>2020-08-12T07:59:13.000Z</time>
      </trkpt>
      <trkpt lat="42.35031151212751865386962890625" lon="1.32109866477549076080322265625">
        <ele>1189.4000244140625</ele>
        <time>2020-08-12T07:59:15.000Z</time>
      </trkpt>
      <trkpt lat="42.3503122664988040924072265625" lon="1.3211168535053730010986328125">
        <ele>1189.4000244140625</ele>
        <time>2020-08-12T07:59:16.000Z</time>
      </trkpt>
      <trkpt lat="42.35031117685139179229736328125" lon="1.321135796606540679931640625">
        <ele>1189.5999755859375</ele>
        <time>2020-08-12T07:59:17.000Z</time>
      </trkpt>
      <trkpt lat="42.35029592178761959075927734375" lon="1.3212107308208942413330078125">
        <ele>1190</ele>
        <time>2020-08-12T07:59:21.000Z</time>
      </trkpt>
      <trkpt lat="42.35029240138828754425048828125" lon="1.321265883743762969970703125">
        <ele>1190.5999755859375</ele>
        <time>2020-08-12T07:59:24.000Z</time>
      </trkpt>
      <trkpt lat="42.35028930008411407470703125" lon="1.32137711159884929656982421875">
        <ele>1191.199951171875</ele>
        <time>2020-08-12T07:59:30.000Z</time>
      </trkpt>
      <trkpt lat="42.35029240138828754425048828125" lon="1.32141374051570892333984375">
        <ele>1191.5999755859375</ele>
        <time>2020-08-12T07:59:32.000Z</time>
      </trkpt>
      <trkpt lat="42.350293658673763275146484375" lon="1.32150636054575443267822265625">
        <ele>1192.4000244140625</ele>
        <time>2020-08-12T07:59:37.000Z</time>
      </trkpt>
      <trkpt lat="42.35029391013085842132568359375" lon="1.3215243816375732421875">
        <ele>1192.5999755859375</ele>
        <time>2020-08-12T07:59:38.000Z</time>
      </trkpt>
      <trkpt lat="42.35030413605272769927978515625" lon="1.32161079905927181243896484375">
        <ele>1193.800048828125</ele>
        <time>2020-08-12T07:59:43.000Z</time>
      </trkpt>
      <trkpt lat="42.35031285323202610015869140625" lon="1.32166360504925251007080078125">
        <ele>1194</ele>
        <time>2020-08-12T07:59:46.000Z</time>
      </trkpt>
      <trkpt lat="42.35031603835523128509521484375" lon="1.32173317484557628631591796875">
        <ele>1194.800048828125</ele>
        <time>2020-08-12T07:59:50.000Z</time>
      </trkpt>
      <trkpt lat="42.35033347271382808685302734375" lon="1.32181867025792598724365234375">
        <ele>1195.800048828125</ele>
        <time>2020-08-12T07:59:55.000Z</time>
      </trkpt>
      <trkpt lat="42.35033850185573101043701171875" lon="1.3218343444168567657470703125">
        <ele>1196</ele>
        <time>2020-08-12T07:59:56.000Z</time>
      </trkpt>
      <trkpt lat="42.35036364756524562835693359375" lon="1.32191439159214496612548828125">
        <ele>1197</ele>
        <time>2020-08-12T08:00:01.000Z</time>
      </trkpt>
      <trkpt lat="42.3503796570003032684326171875" lon="1.32194071076810359954833984375">
        <ele>1197.4000244140625</ele>
        <time>2020-08-12T08:00:03.000Z</time>
      </trkpt>
      <trkpt lat="42.350390218198299407958984375" lon="1.321970634162425994873046875">
        <ele>1197.5999755859375</ele>
        <time>2020-08-12T08:00:05.000Z</time>
      </trkpt>
      <trkpt lat="42.35040304251015186309814453125" lon="1.3220204226672649383544921875">
        <ele>1198</ele>
        <time>2020-08-12T08:00:08.000Z</time>
      </trkpt>
      <trkpt lat="42.35041025094687938690185546875" lon="1.32203542627394199371337890625">
        <ele>1198</ele>
        <time>2020-08-12T08:00:09.000Z</time>
      </trkpt>
      <trkpt lat="42.35045601613819599151611328125" lon="1.32211740128695964813232421875">
        <ele>1199</ele>
        <time>2020-08-12T08:00:15.000Z</time>
      </trkpt>
      <trkpt lat="42.3504725284874439239501953125" lon="1.322144307196140289306640625">
        <ele>1199.199951171875</ele>
        <time>2020-08-12T08:00:17.000Z</time>
      </trkpt>
      <trkpt lat="42.35050094313919544219970703125" lon="1.32221329025924205780029296875">
        <ele>1200.199951171875</ele>
        <time>2020-08-12T08:00:22.000Z</time>
      </trkpt>
      <trkpt lat="42.3505100794136524200439453125" lon="1.32224078290164470672607421875">
        <ele>1200.4000244140625</ele>
        <time>2020-08-12T08:00:24.000Z</time>
      </trkpt>
      <trkpt lat="42.35055458731949329376220703125" lon="1.3223385997116565704345703125">
        <ele>1201.4000244140625</ele>
        <time>2020-08-12T08:00:31.000Z</time>
      </trkpt>
      <trkpt lat="42.35056095756590366363525390625" lon="1.32235410623252391815185546875">
        <ele>1201.4000244140625</ele>
        <time>2020-08-12T08:00:32.000Z</time>
      </trkpt>
      <trkpt lat="42.35060538165271282196044921875" lon="1.3224562816321849822998046875">
        <ele>1202.5999755859375</ele>
        <time>2020-08-12T08:00:39.000Z</time>
      </trkpt>
      <trkpt lat="42.3506106622517108917236328125" lon="1.322472207248210906982421875">
        <ele>1202.5999755859375</ele>
        <time>2020-08-12T08:00:40.000Z</time>
      </trkpt>
      <trkpt lat="42.3506612889468669891357421875" lon="1.32261914201080799102783203125">
        <ele>1203.5999755859375</ele>
        <time>2020-08-12T08:00:49.000Z</time>
      </trkpt>
      <trkpt lat="42.3506971634924411773681640625" lon="1.3227291963994503021240234375">
        <ele>1204.5999755859375</ele>
        <time>2020-08-12T08:00:56.000Z</time>
      </trkpt>
      <trkpt lat="42.35069909133017063140869140625" lon="1.32274637930095195770263671875">
        <ele>1204.800048828125</ele>
        <time>2020-08-12T08:00:57.000Z</time>
      </trkpt>
      <trkpt lat="42.350735552608966827392578125" lon="1.322836987674236297607421875">
        <ele>1205.5999755859375</ele>
        <time>2020-08-12T08:01:03.000Z</time>
      </trkpt>
      <trkpt lat="42.350745610892772674560546875" lon="1.322867162525653839111328125">
        <ele>1206</ele>
        <time>2020-08-12T08:01:05.000Z</time>
      </trkpt>
      <trkpt lat="42.3507682420313358306884765625" lon="1.32292424328625202178955078125">
        <ele>1206.5999755859375</ele>
        <time>2020-08-12T08:01:09.000Z</time>
      </trkpt>
      <trkpt lat="42.350782491266727447509765625" lon="1.3229682482779026031494140625">
        <ele>1207.199951171875</ele>
        <time>2020-08-12T08:01:12.000Z</time>
      </trkpt>
      <trkpt lat="42.350814342498779296875" lon="1.32303907535970211029052734375">
        <ele>1207.800048828125</ele>
        <time>2020-08-12T08:01:17.000Z</time>
      </trkpt>
      <trkpt lat="42.35082666389644145965576171875" lon="1.3230862654745578765869140625">
        <ele>1208.199951171875</ele>
        <time>2020-08-12T08:01:20.000Z</time>
      </trkpt>
      <trkpt lat="42.35083621926605701446533203125" lon="1.32313814945518970489501953125">
        <ele>1208.800048828125</ele>
        <time>2020-08-12T08:01:23.000Z</time>
      </trkpt>
      <trkpt lat="42.35087125562131404876708984375" lon="1.3232042826712131500244140625">
        <ele>1209.800048828125</ele>
        <time>2020-08-12T08:01:28.000Z</time>
      </trkpt>
      <trkpt lat="42.35093437135219573974609375" lon="1.32324795238673686981201171875">
        <ele>1211</ele>
        <time>2020-08-12T08:01:34.000Z</time>
      </trkpt>
      <trkpt lat="42.3509456031024456024169921875" lon="1.3232428394258022308349609375">
        <ele>1211.199951171875</ele>
        <time>2020-08-12T08:01:35.000Z</time>
      </trkpt>
      <trkpt lat="42.35097653232514858245849609375" lon="1.3231623731553554534912109375">
        <ele>1212</ele>
        <time>2020-08-12T08:01:40.000Z</time>
      </trkpt>
      <trkpt lat="42.35097904689610004425048828125" lon="1.32314435206353664398193359375">
        <ele>1212.199951171875</ele>
        <time>2020-08-12T08:01:41.000Z</time>
      </trkpt>
      <trkpt lat="42.3509891889989376068115234375" lon="1.32305114530026912689208984375">
        <ele>1212.800048828125</ele>
        <time>2020-08-12T08:01:46.000Z</time>
      </trkpt>
      <trkpt lat="42.3509891889989376068115234375" lon="1.32303019054234027862548828125">
        <ele>1213</ele>
        <time>2020-08-12T08:01:47.000Z</time>
      </trkpt>
      <trkpt lat="42.35098994337022304534912109375" lon="1.3230104930698871612548828125">
        <ele>1213.199951171875</ele>
        <time>2020-08-12T08:01:48.000Z</time>
      </trkpt>
      <trkpt lat="42.35098022036254405975341796875" lon="1.32292273454368114471435546875">
        <ele>1213.4000244140625</ele>
        <time>2020-08-12T08:01:53.000Z</time>
      </trkpt>
      <trkpt lat="42.3509865067899227142333984375" lon="1.32277051918208599090576171875">
        <ele>1213.800048828125</ele>
        <time>2020-08-12T08:02:01.000Z</time>
      </trkpt>
      <trkpt lat="42.3509846627712249755859375" lon="1.32271486334502696990966796875">
        <ele>1214</ele>
        <time>2020-08-12T08:02:04.000Z</time>
      </trkpt>
      <trkpt lat="42.350983321666717529296875" lon="1.3226281106472015380859375">
        <ele>1214.199951171875</ele>
        <time>2020-08-12T08:02:09.000Z</time>
      </trkpt>
      <trkpt lat="42.3509811423718929290771484375" lon="1.3225369155406951904296875">
        <ele>1214.800048828125</ele>
        <time>2020-08-12T08:02:17.000Z</time>
      </trkpt>
      <trkpt lat="42.350977621972560882568359375" lon="1.32250196300446987152099609375">
        <ele>1215</ele>
        <time>2020-08-12T08:02:20.000Z</time>
      </trkpt>
      <trkpt lat="42.35097167082130908966064453125" lon="1.3224572874605655670166015625">
        <ele>1214.800048828125</ele>
        <time>2020-08-12T08:02:24.000Z</time>
      </trkpt>
      <trkpt lat="42.3509685695171356201171875" lon="1.32244714535772800445556640625">
        <ele>1214.800048828125</ele>
        <time>2020-08-12T08:02:25.000Z</time>
      </trkpt>
      <trkpt lat="42.35096496529877185821533203125" lon="1.32240138016641139984130859375">
        <ele>1215</ele>
        <time>2020-08-12T08:02:29.000Z</time>
      </trkpt>
      <trkpt lat="42.350966893136501312255859375" lon="1.322391740977764129638671875">
        <ele>1215</ele>
        <time>2020-08-12T08:02:30.000Z</time>
      </trkpt>
      <trkpt lat="42.3509720899164676666259765625" lon="1.322371624410152435302734375">
        <ele>1215.199951171875</ele>
        <time>2020-08-12T08:02:32.000Z</time>
      </trkpt>
      <trkpt lat="42.35096680931746959686279296875" lon="1.322319991886615753173828125">
        <ele>1215.199951171875</ele>
        <time>2020-08-12T08:02:36.000Z</time>
      </trkpt>
      <trkpt lat="42.35096915625035762786865234375" lon="1.322248913347721099853515625">
        <ele>1215.4000244140625</ele>
        <time>2020-08-12T08:02:43.000Z</time>
      </trkpt>
      <trkpt lat="42.35095105133950710296630859375" lon="1.32217548787593841552734375">
        <ele>1215.5999755859375</ele>
        <time>2020-08-12T08:02:51.000Z</time>
      </trkpt>
      <trkpt lat="42.35094535164535045623779296875" lon="1.32215595804154872894287109375">
        <ele>1215.5999755859375</ele>
        <time>2020-08-12T08:02:53.000Z</time>
      </trkpt>
      <trkpt lat="42.3509573377668857574462890625" lon="1.3221039064228534698486328125">
        <ele>1215.800048828125</ele>
        <time>2020-08-12T08:02:58.000Z</time>
      </trkpt>
      <trkpt lat="42.3509553261101245880126953125" lon="1.322067864239215850830078125">
        <ele>1215.800048828125</ele>
        <time>2020-08-12T08:03:01.000Z</time>
      </trkpt>
      <trkpt lat="42.35095339827239513397216796875" lon="1.3220039941370487213134765625">
        <ele>1216.199951171875</ele>
        <time>2020-08-12T08:03:07.000Z</time>
      </trkpt>
      <trkpt lat="42.35093437135219573974609375" lon="1.32194615900516510009765625">
        <ele>1216.199951171875</ele>
        <time>2020-08-12T08:03:13.000Z</time>
      </trkpt>
      <trkpt lat="42.35093646682798862457275390625" lon="1.32193434052169322967529296875">
        <ele>1216.199951171875</ele>
        <time>2020-08-12T08:03:14.000Z</time>
      </trkpt>
      <trkpt lat="42.3509538173675537109375" lon="1.32182814180850982666015625">
        <ele>1216.5999755859375</ele>
        <time>2020-08-12T08:03:21.000Z</time>
      </trkpt>
      <trkpt lat="42.35096278600394725799560546875" lon="1.32175572216510772705078125">
        <ele>1217</ele>
        <time>2020-08-12T08:03:25.000Z</time>
      </trkpt>
      <trkpt lat="42.35096697695553302764892578125" lon="1.32172076962888240814208984375">
        <ele>1217.199951171875</ele>
        <time>2020-08-12T08:03:27.000Z</time>
      </trkpt>
      <trkpt lat="42.35097586177289485931396484375" lon="1.32168690674006938934326171875">
        <ele>1217.4000244140625</ele>
        <time>2020-08-12T08:03:29.000Z</time>
      </trkpt>
      <trkpt lat="42.35100301913917064666748046875" lon="1.32162035442888736724853515625">
        <ele>1217.5999755859375</ele>
        <time>2020-08-12T08:03:33.000Z</time>
      </trkpt>
      <trkpt lat="42.35102581791579723358154296875" lon="1.32153418846428394317626953125">
        <ele>1218</ele>
        <time>2020-08-12T08:03:38.000Z</time>
      </trkpt>
      <trkpt lat="42.35103000886738300323486328125" lon="1.321515329182147979736328125">
        <ele>1218</ele>
        <time>2020-08-12T08:03:39.000Z</time>
      </trkpt>
      <trkpt lat="42.35104694031178951263427734375" lon="1.32148071192204952239990234375">
        <ele>1218.4000244140625</ele>
        <time>2020-08-12T08:03:41.000Z</time>
      </trkpt>
      <trkpt lat="42.3510847426950931549072265625" lon="1.32139764726161956787109375">
        <ele>1218.800048828125</ele>
        <time>2020-08-12T08:03:46.000Z</time>
      </trkpt>
      <trkpt lat="42.35112355090677738189697265625" lon="1.32134626619517803192138671875">
        <ele>1219.4000244140625</ele>
        <time>2020-08-12T08:03:50.000Z</time>
      </trkpt>
      <trkpt lat="42.35116562806069850921630859375" lon="1.32130100391805171966552734375">
        <ele>1220</ele>
        <time>2020-08-12T08:03:54.000Z</time>
      </trkpt>
      <trkpt lat="42.35123620368540287017822265625" lon="1.32128457538783550262451171875">
        <ele>1221</ele>
        <time>2020-08-12T08:03:59.000Z</time>
      </trkpt>
      <trkpt lat="42.35124827362596988677978515625" lon="1.321294717490673065185546875">
        <ele>1221.199951171875</ele>
        <time>2020-08-12T08:04:00.000Z</time>
      </trkpt>
      <trkpt lat="42.35125984065234661102294921875" lon="1.32134660147130489349365234375">
        <ele>1221.5999755859375</ele>
        <time>2020-08-12T08:04:03.000Z</time>
      </trkpt>
      <trkpt lat="42.35125615261495113372802734375" lon="1.32136520929634571075439453125">
        <ele>1221.800048828125</ele>
        <time>2020-08-12T08:04:04.000Z</time>
      </trkpt>
      <trkpt lat="42.35125263221561908721923828125" lon="1.32138448767364025115966796875">
        <ele>1222</ele>
        <time>2020-08-12T08:04:05.000Z</time>
      </trkpt>
      <trkpt lat="42.351234443485736846923828125" lon="1.32151641882956027984619140625">
        <ele>1223.199951171875</ele>
        <time>2020-08-12T08:04:12.000Z</time>
      </trkpt>
      <trkpt lat="42.351233102381229400634765625" lon="1.321535445749759674072265625">
        <ele>1223.199951171875</ele>
        <time>2020-08-12T08:04:13.000Z</time>
      </trkpt>
      <trkpt lat="42.35122798942029476165771484375" lon="1.32166544906795024871826171875">
        <ele>1224.199951171875</ele>
        <time>2020-08-12T08:04:20.000Z</time>
      </trkpt>
      <trkpt lat="42.351225726306438446044921875" lon="1.32168464362621307373046875">
        <ele>1224.4000244140625</ele>
        <time>2020-08-12T08:04:21.000Z</time>
      </trkpt>
      <trkpt lat="42.3512528836727142333984375" lon="1.32179503329098224639892578125">
        <ele>1225</ele>
        <time>2020-08-12T08:04:27.000Z</time>
      </trkpt>
      <trkpt lat="42.3512584157288074493408203125" lon="1.32181347347795963287353515625">
        <ele>1225.4000244140625</ele>
        <time>2020-08-12T08:04:28.000Z</time>
      </trkpt>
      <trkpt lat="42.3512872494757175445556640625" lon="1.32198161445558071136474609375">
        <ele>1225.5999755859375</ele>
        <time>2020-08-12T08:04:36.000Z</time>
      </trkpt>
      <trkpt lat="42.35130929388105869293212890625" lon="1.3221666030585765838623046875">
        <ele>1226</ele>
        <time>2020-08-12T08:04:44.000Z</time>
      </trkpt>
      <trkpt lat="42.35131868161261081695556640625" lon="1.3223154656589031219482421875">
        <ele>1225.800048828125</ele>
        <time>2020-08-12T08:04:51.000Z</time>
      </trkpt>
      <trkpt lat="42.3513137362897396087646484375" lon="1.3224653340876102447509765625">
        <ele>1226</ele>
        <time>2020-08-12T08:04:57.000Z</time>
      </trkpt>
      <trkpt lat="42.35131884925067424774169921875" lon="1.3225637376308441162109375">
        <ele>1226.199951171875</ele>
        <time>2020-08-12T08:05:01.000Z</time>
      </trkpt>
      <trkpt lat="42.35132371075451374053955078125" lon="1.3226899690926074981689453125">
        <ele>1226.4000244140625</ele>
        <time>2020-08-12T08:05:06.000Z</time>
      </trkpt>
      <trkpt lat="42.3513197712600231170654296875" lon="1.32289909757673740386962890625">
        <ele>1226.800048828125</ele>
        <time>2020-08-12T08:05:14.000Z</time>
      </trkpt>
      <trkpt lat="42.35131633467972278594970703125" lon="1.32313194684684276580810546875">
        <ele>1227</ele>
        <time>2020-08-12T08:05:23.000Z</time>
      </trkpt>
      <trkpt lat="42.3513185977935791015625" lon="1.3231563381850719451904296875">
        <ele>1227.199951171875</ele>
        <time>2020-08-12T08:05:24.000Z</time>
      </trkpt>
      <trkpt lat="42.351365871727466583251953125" lon="1.32331651635468006134033203125">
        <ele>1228</ele>
        <time>2020-08-12T08:05:31.000Z</time>
      </trkpt>
      <trkpt lat="42.35138372518122196197509765625" lon="1.32336010225117206573486328125">
        <ele>1228.199951171875</ele>
        <time>2020-08-12T08:05:33.000Z</time>
      </trkpt>
      <trkpt lat="42.35142563469707965850830078125" lon="1.323438473045825958251953125">
        <ele>1228.800048828125</ele>
        <time>2020-08-12T08:05:37.000Z</time>
      </trkpt>
      <trkpt lat="42.35147592611610889434814453125" lon="1.32350896485149860382080078125">
        <ele>1229.4000244140625</ele>
        <time>2020-08-12T08:05:41.000Z</time>
      </trkpt>
      <trkpt lat="42.35154046677052974700927734375" lon="1.32359144277870655059814453125">
        <ele>1230.199951171875</ele>
        <time>2020-08-12T08:05:46.000Z</time>
      </trkpt>
      <trkpt lat="42.3515640199184417724609375" lon="1.32362522184848785400390625">
        <ele>1230.4000244140625</ele>
        <time>2020-08-12T08:05:48.000Z</time>
      </trkpt>
      <trkpt lat="42.35160098411142826080322265625" lon="1.32374516688287258148193359375">
        <ele>1231.5999755859375</ele>
        <time>2020-08-12T08:05:54.000Z</time>
      </trkpt>
      <trkpt lat="42.3515588231384754180908203125" lon="1.32390509359538555145263671875">
        <ele>1232.4000244140625</ele>
        <time>2020-08-12T08:06:01.000Z</time>
      </trkpt>
      <trkpt lat="42.3515350185334682464599609375" lon="1.3239633478224277496337890625">
        <ele>1232.800048828125</ele>
        <time>2020-08-12T08:06:04.000Z</time>
      </trkpt>
      <trkpt lat="42.35149922780692577362060546875" lon="1.32405965588986873626708984375">
        <ele>1233.800048828125</ele>
        <time>2020-08-12T08:06:09.000Z</time>
      </trkpt>
      <trkpt lat="42.351485900580883026123046875" lon="1.324098296463489532470703125">
        <ele>1234</ele>
        <time>2020-08-12T08:06:11.000Z</time>
      </trkpt>
      <trkpt lat="42.35143653117120265960693359375" lon="1.32420633919537067413330078125">
        <ele>1234.800048828125</ele>
        <time>2020-08-12T08:06:17.000Z</time>
      </trkpt>
      <trkpt lat="42.35141674987971782684326171875" lon="1.3242389447987079620361328125">
        <ele>1235.199951171875</ele>
        <time>2020-08-12T08:06:19.000Z</time>
      </trkpt>
      <trkpt lat="42.35138456337153911590576171875" lon="1.32433374412357807159423828125">
        <ele>1235.800048828125</ele>
        <time>2020-08-12T08:06:24.000Z</time>
      </trkpt>
      <trkpt lat="42.35137919895350933074951171875" lon="1.32439509965479373931884765625">
        <ele>1236.199951171875</ele>
        <time>2020-08-12T08:06:27.000Z</time>
      </trkpt>
      <trkpt lat="42.3513697274029254913330078125" lon="1.32447816431522369384765625">
        <ele>1236.5999755859375</ele>
        <time>2020-08-12T08:06:31.000Z</time>
      </trkpt>
      <trkpt lat="42.35138758085668087005615234375" lon="1.32451160810887813568115234375">
        <ele>1236.800048828125</ele>
        <time>2020-08-12T08:06:33.000Z</time>
      </trkpt>
      <trkpt lat="42.351459078490734100341796875" lon="1.3245217502117156982421875">
        <ele>1237.800048828125</ele>
        <time>2020-08-12T08:06:38.000Z</time>
      </trkpt>
      <trkpt lat="42.3514709807932376861572265625" lon="1.32451236248016357421875">
        <ele>1238</ele>
        <time>2020-08-12T08:06:39.000Z</time>
      </trkpt>
      <trkpt lat="42.35151917673647403717041015625" lon="1.32446500472724437713623046875">
        <ele>1238.800048828125</ele>
        <time>2020-08-12T08:06:43.000Z</time>
      </trkpt>
      <trkpt lat="42.35153979621827602386474609375" lon="1.3244401104748249053955078125">
        <ele>1239</ele>
        <time>2020-08-12T08:06:45.000Z</time>
      </trkpt>
      <trkpt lat="42.35158170573413372039794921875" lon="1.3243888132274150848388671875">
        <ele>1240</ele>
        <time>2020-08-12T08:06:49.000Z</time>
      </trkpt>
      <trkpt lat="42.35161942429840564727783203125" lon="1.32434162311255931854248046875">
        <ele>1240.800048828125</ele>
        <time>2020-08-12T08:06:53.000Z</time>
      </trkpt>
      <trkpt lat="42.35163283534348011016845703125" lon="1.3243371807038784027099609375">
        <ele>1241.199951171875</ele>
        <time>2020-08-12T08:06:54.000Z</time>
      </trkpt>
      <trkpt lat="42.3517008125782012939453125" lon="1.32433676160871982574462890625">
        <ele>1242</ele>
        <time>2020-08-12T08:06:59.000Z</time>
      </trkpt>
      <trkpt lat="42.35171363689005374908447265625" lon="1.32433726452291011810302734375">
        <ele>1242.4000244140625</ele>
        <time>2020-08-12T08:07:00.000Z</time>
      </trkpt>
      <trkpt lat="42.35174599103629589080810546875" lon="1.32433860562741756439208984375">
        <ele>1242.800048828125</ele>
        <time>2020-08-12T08:07:06.000Z</time>
      </trkpt>
      <trkpt lat="42.351747415959835052490234375" lon="1.32433810271322727203369140625">
        <ele>1243</ele>
        <time>2020-08-12T08:07:09.000Z</time>
      </trkpt>
      <trkpt lat="42.35175034962594509124755859375" lon="1.32433642633259296417236328125">
        <ele>1243</ele>
        <time>2020-08-12T08:07:14.000Z</time>
      </trkpt>
      <trkpt lat="42.35178572125732898712158203125" lon="1.3243018090724945068359375">
        <ele>1243</ele>
        <time>2020-08-12T08:07:17.000Z</time>
      </trkpt>
      <trkpt lat="42.35180483199656009674072265625" lon="1.32425948046147823333740234375">
        <ele>1242.800048828125</ele>
        <time>2020-08-12T08:07:19.000Z</time>
      </trkpt>
      <trkpt lat="42.3518189974129199981689453125" lon="1.3241671957075595855712890625">
        <ele>1242.800048828125</ele>
        <time>2020-08-12T08:07:22.000Z</time>
      </trkpt>
      <trkpt lat="42.35182528384029865264892578125" lon="1.32393769919872283935546875">
        <ele>1243</ele>
        <time>2020-08-12T08:07:29.000Z</time>
      </trkpt>
      <trkpt lat="42.35184875316917896270751953125" lon="1.32373343221843242645263671875">
        <ele>1242.5999755859375</ele>
        <time>2020-08-12T08:07:36.000Z</time>
      </trkpt>
      <trkpt lat="42.35182260163128376007080078125" lon="1.32349303923547267913818359375">
        <ele>1242.800048828125</ele>
        <time>2020-08-12T08:07:43.000Z</time>
      </trkpt>
      <trkpt lat="42.35175118781626224517822265625" lon="1.32319782860577106475830078125">
        <ele>1242.199951171875</ele>
        <time>2020-08-12T08:07:51.000Z</time>
      </trkpt>
      <trkpt lat="42.3517224378883838653564453125" lon="1.32307042367756366729736328125">
        <ele>1242</ele>
        <time>2020-08-12T08:07:54.000Z</time>
      </trkpt>
      <trkpt lat="42.35167642123997211456298828125" lon="1.32284780032932758331298828125">
        <ele>1241.4000244140625</ele>
        <time>2020-08-12T08:07:59.000Z</time>
      </trkpt>
      <trkpt lat="42.351624704897403717041015625" lon="1.32242895662784576416015625">
        <ele>1241</ele>
        <time>2020-08-12T08:08:08.000Z</time>
      </trkpt>
      <trkpt lat="42.35162478871643543243408203125" lon="1.3223426230251789093017578125">
        <ele>1240.800048828125</ele>
        <time>2020-08-12T08:08:10.000Z</time>
      </trkpt>
      <trkpt lat="42.3516476713120937347412109375" lon="1.3220730610191822052001953125">
        <ele>1241</ele>
        <time>2020-08-12T08:08:16.000Z</time>
      </trkpt>
      <trkpt lat="42.3517569713294506072998046875" lon="1.3217112980782985687255859375">
        <ele>1240.4000244140625</ele>
        <time>2020-08-12T08:08:24.000Z</time>
      </trkpt>
      <trkpt lat="42.351935170590877532958984375" lon="1.321428827941417694091796875">
        <ele>1240</ele>
        <time>2020-08-12T08:08:31.000Z</time>
      </trkpt>
      <trkpt lat="42.35198504291474819183349609375" lon="1.32136118598282337188720703125">
        <ele>1239.5999755859375</ele>
        <time>2020-08-12T08:08:33.000Z</time>
      </trkpt>
      <trkpt lat="42.35207472927868366241455078125" lon="1.32126890122890472412109375">
        <ele>1239.5999755859375</ele>
        <time>2020-08-12T08:08:37.000Z</time>
      </trkpt>
      <trkpt lat="42.35222158022224903106689453125" lon="1.32114149630069732666015625">
        <ele>1240</ele>
        <time>2020-08-12T08:08:45.000Z</time>
      </trkpt>
      <trkpt lat="42.3523182235658168792724609375" lon="1.32106999866664409637451171875">
        <ele>1240</ele>
        <time>2020-08-12T08:08:52.000Z</time>
      </trkpt>
      <trkpt lat="42.3524342291057109832763671875" lon="1.32097142748534679412841796875">
        <ele>1240</ele>
        <time>2020-08-12T08:08:59.000Z</time>
      </trkpt>
      <trkpt lat="42.352562136948108673095703125" lon="1.3208154402673244476318359375">
        <ele>1240.5999755859375</ele>
        <time>2020-08-12T08:09:06.000Z</time>
      </trkpt>
      <trkpt lat="42.3525770567357540130615234375" lon="1.3207934796810150146484375">
        <ele>1240.5999755859375</ele>
        <time>2020-08-12T08:09:07.000Z</time>
      </trkpt>
      <trkpt lat="42.35270706005394458770751953125" lon="1.32060212083160877227783203125">
        <ele>1240.800048828125</ele>
        <time>2020-08-12T08:09:15.000Z</time>
      </trkpt>
      <trkpt lat="42.3527762107551097869873046875" lon="1.32041453383862972259521484375">
        <ele>1240.5999755859375</ele>
        <time>2020-08-12T08:09:21.000Z</time>
      </trkpt>
      <trkpt lat="42.35282038338482379913330078125" lon="1.3201743923127651214599609375">
        <ele>1240.4000244140625</ele>
        <time>2020-08-12T08:09:28.000Z</time>
      </trkpt>
      <trkpt lat="42.35284200869500637054443359375" lon="1.31986032240092754364013671875">
        <ele>1240.800048828125</ele>
        <time>2020-08-12T08:09:37.000Z</time>
      </trkpt>
      <trkpt lat="42.35288123600184917449951171875" lon="1.3195387087762355804443359375">
        <ele>1241.199951171875</ele>
        <time>2020-08-12T08:09:47.000Z</time>
      </trkpt>
      <trkpt lat="42.352886013686656951904296875" lon="1.3195098750293254852294921875">
        <ele>1241.4000244140625</ele>
        <time>2020-08-12T08:09:48.000Z</time>
      </trkpt>
      <trkpt lat="42.3529404960572719573974609375" lon="1.31925665773451328277587890625">
        <ele>1242.5999755859375</ele>
        <time>2020-08-12T08:09:57.000Z</time>
      </trkpt>
      <trkpt lat="42.35300771892070770263671875" lon="1.31904409267008304595947265625">
        <ele>1243.5999755859375</ele>
        <time>2020-08-12T08:10:05.000Z</time>
      </trkpt>
      <trkpt lat="42.35303328372538089752197265625" lon="1.31896446458995342254638671875">
        <ele>1244</ele>
        <time>2020-08-12T08:10:08.000Z</time>
      </trkpt>
      <trkpt lat="42.3530658893287181854248046875" lon="1.31889112293720245361328125">
        <ele>1244.800048828125</ele>
        <time>2020-08-12T08:10:11.000Z</time>
      </trkpt>
      <trkpt lat="42.353116683661937713623046875" lon="1.318772770464420318603515625">
        <ele>1245.5999755859375</ele>
        <time>2020-08-12T08:10:16.000Z</time>
      </trkpt>
      <trkpt lat="42.3531369678676128387451171875" lon="1.3187239877879619598388671875">
        <ele>1245.800048828125</ele>
        <time>2020-08-12T08:10:18.000Z</time>
      </trkpt>
      <trkpt lat="42.3531979881227016448974609375" lon="1.31857705302536487579345703125">
        <ele>1246.4000244140625</ele>
        <time>2020-08-12T08:10:24.000Z</time>
      </trkpt>
      <trkpt lat="42.353232018649578094482421875" lon="1.3185040466487407684326171875">
        <ele>1246.5999755859375</ele>
        <time>2020-08-12T08:10:27.000Z</time>
      </trkpt>
      <trkpt lat="42.35330753959715366363525390625" lon="1.3183333911001682281494140625">
        <ele>1247.5999755859375</ele>
        <time>2020-08-12T08:10:34.000Z</time>
      </trkpt>
      <trkpt lat="42.35332556068897247314453125" lon="1.31828485988080501556396484375">
        <ele>1247.800048828125</ele>
        <time>2020-08-12T08:10:36.000Z</time>
      </trkpt>
      <trkpt lat="42.35340829007327556610107421875" lon="1.3180775754153728485107421875">
        <ele>1249</ele>
        <time>2020-08-12T08:10:45.000Z</time>
      </trkpt>
      <trkpt lat="42.35342882573604583740234375" lon="1.3180306367576122283935546875">
        <ele>1249.199951171875</ele>
        <time>2020-08-12T08:10:47.000Z</time>
      </trkpt>
      <trkpt lat="42.35352748073637485504150390625" lon="1.31780507974326610565185546875">
        <ele>1250</ele>
        <time>2020-08-12T08:10:56.000Z</time>
      </trkpt>
      <trkpt lat="42.35354156233370304107666015625" lon="1.31777624599635601043701171875">
        <ele>1250</ele>
        <time>2020-08-12T08:10:57.000Z</time>
      </trkpt>
      <trkpt lat="42.35370517708361148834228515625" lon="1.31744273006916046142578125">
        <ele>1249.5999755859375</ele>
        <time>2020-08-12T08:11:07.000Z</time>
      </trkpt>
      <trkpt lat="42.353881113231182098388671875" lon="1.317180879414081573486328125">
        <ele>1249</ele>
        <time>2020-08-12T08:11:14.000Z</time>
      </trkpt>
      <trkpt lat="42.35401128418743610382080078125" lon="1.3170164264738559722900390625">
        <ele>1248.800048828125</ele>
        <time>2020-08-12T08:11:18.000Z</time>
      </trkpt>
      <trkpt lat="42.3541961051523685455322265625" lon="1.31680444814264774322509765625">
        <ele>1248.4000244140625</ele>
        <time>2020-08-12T08:11:23.000Z</time>
      </trkpt>
      <trkpt lat="42.35441244207322597503662109375" lon="1.31648275069892406463623046875">
        <ele>1247.800048828125</ele>
        <time>2020-08-12T08:11:29.000Z</time>
      </trkpt>
      <trkpt lat="42.35444244928658008575439453125" lon="1.31642038933932781219482421875">
        <ele>1247.800048828125</ele>
        <time>2020-08-12T08:11:30.000Z</time>
      </trkpt>
      <trkpt lat="42.35447128303349018096923828125" lon="1.31635618396103382110595703125">
        <ele>1247.5999755859375</ele>
        <time>2020-08-12T08:11:31.000Z</time>
      </trkpt>
      <trkpt lat="42.35460086725652217864990234375" lon="1.31601177155971527099609375">
        <ele>1246.800048828125</ele>
        <time>2020-08-12T08:11:37.000Z</time>
      </trkpt>
      <trkpt lat="42.354647554457187652587890625" lon="1.31581370718777179718017578125">
        <ele>1247</ele>
        <time>2020-08-12T08:11:42.000Z</time>
      </trkpt>
      <trkpt lat="42.35472911037504673004150390625" lon="1.3155908323824405670166015625">
        <ele>1247.800048828125</ele>
        <time>2020-08-12T08:11:49.000Z</time>
      </trkpt>
      <trkpt lat="42.3548094928264617919921875" lon="1.3154129683971405029296875">
        <ele>1248.5999755859375</ele>
        <time>2020-08-12T08:11:55.000Z</time>
      </trkpt>
      <trkpt lat="42.35490663908421993255615234375" lon="1.31525010801851749420166015625">
        <ele>1249</ele>
        <time>2020-08-12T08:12:01.000Z</time>
      </trkpt>
      <trkpt lat="42.35506363213062286376953125" lon="1.31503301672637462615966796875">
        <ele>1249.4000244140625</ele>
        <time>2020-08-12T08:12:10.000Z</time>
      </trkpt>
      <trkpt lat="42.35516899265348911285400390625" lon="1.314936541020870208740234375">
        <ele>1249.5999755859375</ele>
        <time>2020-08-12T08:12:15.000Z</time>
      </trkpt>
      <trkpt lat="42.35527393408119678497314453125" lon="1.31485582329332828521728515625">
        <ele>1249.800048828125</ele>
        <time>2020-08-12T08:12:20.000Z</time>
      </trkpt>
      <trkpt lat="42.35539647750556468963623046875" lon="1.31475917994976043701171875">
        <ele>1250.4000244140625</ele>
        <time>2020-08-12T08:12:26.000Z</time>
      </trkpt>
      <trkpt lat="42.3554212041199207305908203125" lon="1.314746104180812835693359375">
        <ele>1250.4000244140625</ele>
        <time>2020-08-12T08:12:27.000Z</time>
      </trkpt>
      <trkpt lat="42.35560233704745769500732421875" lon="1.314586512744426727294921875">
        <ele>1251.4000244140625</ele>
        <time>2020-08-12T08:12:36.000Z</time>
      </trkpt>
      <trkpt lat="42.35567986965179443359375" lon="1.3144985027611255645751953125">
        <ele>1251.4000244140625</ele>
        <time>2020-08-12T08:12:40.000Z</time>
      </trkpt>
      <trkpt lat="42.35575756989419460296630859375" lon="1.31438274867832660675048828125">
        <ele>1251.800048828125</ele>
        <time>2020-08-12T08:12:44.000Z</time>
      </trkpt>
      <trkpt lat="42.35592822544276714324951171875" lon="1.3141214847564697265625">
        <ele>1251.5999755859375</ele>
        <time>2020-08-12T08:12:52.000Z</time>
      </trkpt>
      <trkpt lat="42.35604691319167613983154296875" lon="1.31380422972142696380615234375">
        <ele>1250.800048828125</ele>
        <time>2020-08-12T08:12:58.000Z</time>
      </trkpt>
      <trkpt lat="42.356087230145931243896484375" lon="1.3135944306850433349609375">
        <ele>1250</ele>
        <time>2020-08-12T08:13:01.000Z</time>
      </trkpt>
      <trkpt lat="42.35611095093190670013427734375" lon="1.3134303130209445953369140625">
        <ele>1249.800048828125</ele>
        <time>2020-08-12T08:13:03.000Z</time>
      </trkpt>
      <trkpt lat="42.35613073222339153289794921875" lon="1.313180364668369293212890625">
        <ele>1248.800048828125</ele>
        <time>2020-08-12T08:13:06.000Z</time>
      </trkpt>
      <trkpt lat="42.35613517463207244873046875" lon="1.312957741320133209228515625">
        <ele>1248.4000244140625</ele>
        <time>2020-08-12T08:13:09.000Z</time>
      </trkpt>
      <trkpt lat="42.3561420477926731109619140625" lon="1.31262523122131824493408203125">
        <ele>1249</ele>
        <time>2020-08-12T08:13:15.000Z</time>
      </trkpt>
      <trkpt lat="42.35614129342138767242431640625" lon="1.31241434253752231597900390625">
        <ele>1249.4000244140625</ele>
        <time>2020-08-12T08:13:21.000Z</time>
      </trkpt>
      <trkpt lat="42.3561464063823223114013671875" lon="1.31234996952116489410400390625">
        <ele>1249.800048828125</ele>
        <time>2020-08-12T08:13:23.000Z</time>
      </trkpt>
      <trkpt lat="42.3561604879796504974365234375" lon="1.3121217302978038787841796875">
        <ele>1250.5999755859375</ele>
        <time>2020-08-12T08:13:30.000Z</time>
      </trkpt>
      <trkpt lat="42.35616677440702915191650390625" lon="1.3120536692440509796142578125">
        <ele>1250.800048828125</ele>
        <time>2020-08-12T08:13:32.000Z</time>
      </trkpt>
      <trkpt lat="42.356187142431735992431640625" lon="1.31185191683471202850341796875">
        <ele>1251.5999755859375</ele>
        <time>2020-08-12T08:13:38.000Z</time>
      </trkpt>
      <trkpt lat="42.3562144674360752105712890625" lon="1.3116208277642726898193359375">
        <ele>1251.800048828125</ele>
        <time>2020-08-12T08:13:45.000Z</time>
      </trkpt>
      <trkpt lat="42.35621807165443897247314453125" lon="1.3115883059799671173095703125">
        <ele>1251.800048828125</ele>
        <time>2020-08-12T08:13:46.000Z</time>
      </trkpt>
      <trkpt lat="42.35624774359166622161865234375" lon="1.31138923577964305877685546875">
        <ele>1252.5999755859375</ele>
        <time>2020-08-12T08:13:52.000Z</time>
      </trkpt>
      <trkpt lat="42.3562552034854888916015625" lon="1.31135621108114719390869140625">
        <ele>1252.800048828125</ele>
        <time>2020-08-12T08:13:53.000Z</time>
      </trkpt>
      <trkpt lat="42.356301136314868927001953125" lon="1.31106636486947536468505859375">
        <ele>1253.5999755859375</ele>
        <time>2020-08-12T08:14:02.000Z</time>
      </trkpt>
      <trkpt lat="42.35631597228348255157470703125" lon="1.3109542988240718841552734375">
        <ele>1253.800048828125</ele>
        <time>2020-08-12T08:14:06.000Z</time>
      </trkpt>
      <trkpt lat="42.3563388548791408538818359375" lon="1.3108134828507900238037109375">
        <ele>1254.5999755859375</ele>
        <time>2020-08-12T08:14:11.000Z</time>
      </trkpt>
      <trkpt lat="42.3563532717525959014892578125" lon="1.31072756834328174591064453125">
        <ele>1254.800048828125</ele>
        <time>2020-08-12T08:14:14.000Z</time>
      </trkpt>
      <trkpt lat="42.35638503916561603546142578125" lon="1.310534365475177764892578125">
        <ele>1255.5999755859375</ele>
        <time>2020-08-12T08:14:21.000Z</time>
      </trkpt>
      <trkpt lat="42.35639912076294422149658203125" lon="1.310480050742626190185546875">
        <ele>1255.800048828125</ele>
        <time>2020-08-12T08:14:23.000Z</time>
      </trkpt>
      <trkpt lat="42.356435917317867279052734375" lon="1.31034418009221553802490234375">
        <ele>1256.4000244140625</ele>
        <time>2020-08-12T08:14:28.000Z</time>
      </trkpt>
      <trkpt lat="42.3564568720757961273193359375" lon="1.31026136688888072967529296875">
        <ele>1256.800048828125</ele>
        <time>2020-08-12T08:14:31.000Z</time>
      </trkpt>
      <trkpt lat="42.35650255344808101654052734375" lon="1.31013412959873676300048828125">
        <ele>1257.5999755859375</ele>
        <time>2020-08-12T08:14:36.000Z</time>
      </trkpt>
      <trkpt lat="42.35653524287045001983642578125" lon="1.3100349716842174530029296875">
        <ele>1258</ele>
        <time>2020-08-12T08:14:40.000Z</time>
      </trkpt>
      <trkpt lat="42.35657094977796077728271484375" lon="1.30993681959807872772216796875">
        <ele>1258.5999755859375</ele>
        <time>2020-08-12T08:14:44.000Z</time>
      </trkpt>
      <trkpt lat="42.35659056343138217926025390625" lon="1.3098887912929058074951171875">
        <ele>1259.199951171875</ele>
        <time>2020-08-12T08:14:46.000Z</time>
      </trkpt>
      <trkpt lat="42.35663565807044506072998046875" lon="1.30976616404950618743896484375">
        <ele>1260.199951171875</ele>
        <time>2020-08-12T08:14:51.000Z</time>
      </trkpt>
      <trkpt lat="42.356645800173282623291015625" lon="1.3097426109015941619873046875">
        <ele>1260.4000244140625</ele>
        <time>2020-08-12T08:14:52.000Z</time>
      </trkpt>
      <trkpt lat="42.3567348159849643707275390625" lon="1.309521496295928955078125">
        <ele>1261.5999755859375</ele>
        <time>2020-08-12T08:15:01.000Z</time>
      </trkpt>
      <trkpt lat="42.35674495808780193328857421875" lon="1.30949727259576320648193359375">
        <ele>1261.5999755859375</ele>
        <time>2020-08-12T08:15:02.000Z</time>
      </trkpt>
      <trkpt lat="42.356793321669101715087890625" lon="1.30938445217907428741455078125">
        <ele>1262.4000244140625</ele>
        <time>2020-08-12T08:15:07.000Z</time>
      </trkpt>
      <trkpt lat="42.35682852566242218017578125" lon="1.30932544358074665069580078125">
        <ele>1262.800048828125</ele>
        <time>2020-08-12T08:15:10.000Z</time>
      </trkpt>
      <trkpt lat="42.3568642325699329376220703125" lon="1.30926945246756076812744140625">
        <ele>1263.5999755859375</ele>
        <time>2020-08-12T08:15:13.000Z</time>
      </trkpt>
      <trkpt lat="42.35690840519964694976806640625" lon="1.30919133313000202178955078125">
        <ele>1264.199951171875</ele>
        <time>2020-08-12T08:15:17.000Z</time>
      </trkpt>
      <trkpt lat="42.3569376580417156219482421875" lon="1.30915948189795017242431640625">
        <ele>1264.4000244140625</ele>
        <time>2020-08-12T08:15:19.000Z</time>
      </trkpt>
      <trkpt lat="42.3569939844310283660888671875" lon="1.30909209139645099639892578125">
        <ele>1264.800048828125</ele>
        <time>2020-08-12T08:15:23.000Z</time>
      </trkpt>
      <trkpt lat="42.3570566810667514801025390625" lon="1.30903006531298160552978515625">
        <ele>1265.800048828125</ele>
        <time>2020-08-12T08:15:27.000Z</time>
      </trkpt>
      <trkpt lat="42.3571911267936229705810546875" lon="1.30888639949262142181396484375">
        <ele>1266.4000244140625</ele>
        <time>2020-08-12T08:15:36.000Z</time>
      </trkpt>
      <trkpt lat="42.3572223074734210968017578125" lon="1.30885790102183818817138671875">
        <ele>1266.5999755859375</ele>
        <time>2020-08-12T08:15:38.000Z</time>
      </trkpt>
      <trkpt lat="42.35729732550680637359619140625" lon="1.308779530227184295654296875">
        <ele>1267.800048828125</ele>
        <time>2020-08-12T08:15:43.000Z</time>
      </trkpt>
      <trkpt lat="42.3573228903114795684814453125" lon="1.30874156020581722259521484375">
        <ele>1268</ele>
        <time>2020-08-12T08:15:45.000Z</time>
      </trkpt>
      <trkpt lat="42.3573822341859340667724609375" lon="1.30864315666258335113525390625">
        <ele>1268.800048828125</ele>
        <time>2020-08-12T08:15:50.000Z</time>
      </trkpt>
      <trkpt lat="42.35741349868476390838623046875" lon="1.30857962183654308319091796875">
        <ele>1268.800048828125</ele>
        <time>2020-08-12T08:15:53.000Z</time>
      </trkpt>
      <trkpt lat="42.3574595153331756591796875" lon="1.30850686691701412200927734375">
        <ele>1269.5999755859375</ele>
        <time>2020-08-12T08:15:58.000Z</time>
      </trkpt>
      <trkpt lat="42.35745892859995365142822265625" lon="1.3085061125457286834716796875">
        <ele>1269.800048828125</ele>
        <time>2020-08-12T08:15:59.000Z</time>
      </trkpt>
      <trkpt lat="42.35745892859995365142822265625" lon="1.3085061125457286834716796875">
        <ele>1270</ele>
        <time>2020-08-12T08:16:00.000Z</time>
      </trkpt>
      <trkpt lat="42.35745809040963649749755859375" lon="1.30851566791534423828125">
        <ele>1270</ele>
        <time>2020-08-12T08:18:18.000Z</time>
      </trkpt>
      <trkpt lat="42.357457838952541351318359375" lon="1.30851189605891704559326171875">
        <ele>1270</ele>
        <time>2020-08-12T08:18:21.000Z</time>
      </trkpt>
      <trkpt lat="42.3574595153331756591796875" lon="1.30847870372235774993896484375">
        <ele>1269.5999755859375</ele>
        <time>2020-08-12T08:18:23.000Z</time>
      </trkpt>
      <trkpt lat="42.3574694059789180755615234375" lon="1.30838030017912387847900390625">
        <ele>1269.800048828125</ele>
        <time>2020-08-12T08:18:27.000Z</time>
      </trkpt>
      <trkpt lat="42.357476614415645599365234375" lon="1.308328248560428619384765625">
        <ele>1270.199951171875</ele>
        <time>2020-08-12T08:18:29.000Z</time>
      </trkpt>
      <trkpt lat="42.35750167630612850189208984375" lon="1.30809330381453037261962890625">
        <ele>1271.199951171875</ele>
        <time>2020-08-12T08:18:38.000Z</time>
      </trkpt>
      <trkpt lat="42.357505448162555694580078125" lon="1.3080430962145328521728515625">
        <ele>1271.800048828125</ele>
        <time>2020-08-12T08:18:40.000Z</time>
      </trkpt>
      <trkpt lat="42.357507459819316864013671875" lon="1.3079928047955036163330078125">
        <ele>1272.199951171875</ele>
        <time>2020-08-12T08:18:42.000Z</time>
      </trkpt>
      <trkpt lat="42.35753252170979976654052734375" lon="1.307786442339420318603515625">
        <ele>1273.199951171875</ele>
        <time>2020-08-12T08:18:50.000Z</time>
      </trkpt>
      <trkpt lat="42.35757057555019855499267578125" lon="1.30760648287832736968994140625">
        <ele>1274.199951171875</ele>
        <time>2020-08-12T08:18:57.000Z</time>
      </trkpt>
      <trkpt lat="42.35757996328175067901611328125" lon="1.30758083425462245941162109375">
        <ele>1274.199951171875</ele>
        <time>2020-08-12T08:18:58.000Z</time>
      </trkpt>
      <trkpt lat="42.35764081589877605438232421875" lon="1.307386122643947601318359375">
        <ele>1275.199951171875</ele>
        <time>2020-08-12T08:19:05.000Z</time>
      </trkpt>
      <trkpt lat="42.3576821386814117431640625" lon="1.30727606825530529022216796875">
        <ele>1275.5999755859375</ele>
        <time>2020-08-12T08:19:09.000Z</time>
      </trkpt>
      <trkpt lat="42.357724048197269439697265625" lon="1.3071643374860286712646484375">
        <ele>1276.4000244140625</ele>
        <time>2020-08-12T08:19:13.000Z</time>
      </trkpt>
      <trkpt lat="42.3578180931508541107177734375" lon="1.3069135509431362152099609375">
        <ele>1277</ele>
        <time>2020-08-12T08:19:22.000Z</time>
      </trkpt>
      <trkpt lat="42.357849776744842529296875" lon="1.30682914517819881439208984375">
        <ele>1277.4000244140625</ele>
        <time>2020-08-12T08:19:25.000Z</time>
      </trkpt>
      <trkpt lat="42.35791482031345367431640625" lon="1.30665631033480167388916015625">
        <ele>1278.199951171875</ele>
        <time>2020-08-12T08:19:31.000Z</time>
      </trkpt>
      <trkpt lat="42.35796402208507061004638671875" lon="1.30651415325701236724853515625">
        <ele>1278.4000244140625</ele>
        <time>2020-08-12T08:19:36.000Z</time>
      </trkpt>
      <trkpt lat="42.3580001480877399444580078125" lon="1.30642547272145748138427734375">
        <ele>1278.800048828125</ele>
        <time>2020-08-12T08:19:39.000Z</time>
      </trkpt>
      <trkpt lat="42.35808120109140872955322265625" lon="1.3062383048236370086669921875">
        <ele>1279.4000244140625</ele>
        <time>2020-08-12T08:19:45.000Z</time>
      </trkpt>
      <trkpt lat="42.35813853330910205841064453125" lon="1.30612070672214031219482421875">
        <ele>1279.800048828125</ele>
        <time>2020-08-12T08:19:49.000Z</time>
      </trkpt>
      <trkpt lat="42.35819603316485881805419921875" lon="1.30600579082965850830078125">
        <ele>1280.4000244140625</ele>
        <time>2020-08-12T08:19:53.000Z</time>
      </trkpt>
      <trkpt lat="42.3583086021244525909423828125" lon="1.30582180805504322052001953125">
        <ele>1281.5999755859375</ele>
        <time>2020-08-12T08:20:00.000Z</time>
      </trkpt>
      <trkpt lat="42.3584581352770328521728515625" lon="1.30560421384871006011962890625">
        <ele>1282.5999755859375</ele>
        <time>2020-08-12T08:20:09.000Z</time>
      </trkpt>
      <trkpt lat="42.3584894835948944091796875" lon="1.30555341951549053192138671875">
        <ele>1282.800048828125</ele>
        <time>2020-08-12T08:20:11.000Z</time>
      </trkpt>
      <trkpt lat="42.35859300009906291961669921875" lon="1.305367089807987213134765625">
        <ele>1283.4000244140625</ele>
        <time>2020-08-12T08:20:18.000Z</time>
      </trkpt>
      <trkpt lat="42.35862283967435359954833984375" lon="1.3053122721612453460693359375">
        <ele>1283.5999755859375</ele>
        <time>2020-08-12T08:20:20.000Z</time>
      </trkpt>
      <trkpt lat="42.3587042279541492462158203125" lon="1.30510398186743259429931640625">
        <ele>1284.5999755859375</ele>
        <time>2020-08-12T08:20:27.000Z</time>
      </trkpt>
      <trkpt lat="42.35872459597885608673095703125" lon="1.30504094995558261871337890625">
        <ele>1284.800048828125</ele>
        <time>2020-08-12T08:20:29.000Z</time>
      </trkpt>
      <trkpt lat="42.35878729261457920074462890625" lon="1.3048583082854747772216796875">
        <ele>1285.5999755859375</ele>
        <time>2020-08-12T08:20:35.000Z</time>
      </trkpt>
      <trkpt lat="42.35883389599621295928955078125" lon="1.304740794003009796142578125">
        <ele>1286.199951171875</ele>
        <time>2020-08-12T08:20:39.000Z</time>
      </trkpt>
      <trkpt lat="42.35890346579253673553466796875" lon="1.30460944958031177520751953125">
        <ele>1286.5999755859375</ele>
        <time>2020-08-12T08:20:44.000Z</time>
      </trkpt>
      <trkpt lat="42.35893070697784423828125" lon="1.3045555539429187774658203125">
        <ele>1287</ele>
        <time>2020-08-12T08:20:46.000Z</time>
      </trkpt>
      <trkpt lat="42.3589908890426158905029296875" lon="1.30445153452455997467041015625">
        <ele>1287.800048828125</ele>
        <time>2020-08-12T08:20:50.000Z</time>
      </trkpt>
      <trkpt lat="42.35909239389002323150634765625" lon="1.30431465804576873779296875">
        <ele>1288.199951171875</ele>
        <time>2020-08-12T08:20:56.000Z</time>
      </trkpt>
      <trkpt lat="42.359183169901371002197265625" lon="1.30421466194093227386474609375">
        <ele>1288.5999755859375</ele>
        <time>2020-08-12T08:21:01.000Z</time>
      </trkpt>
      <trkpt lat="42.3592336289584636688232421875" lon="1.30415640771389007568359375">
        <ele>1289</ele>
        <time>2020-08-12T08:21:04.000Z</time>
      </trkpt>
      <trkpt lat="42.35925802029669284820556640625" lon="1.3041377998888492584228515625">
        <ele>1289.199951171875</ele>
        <time>2020-08-12T08:21:07.000Z</time>
      </trkpt>
      <trkpt lat="42.359255254268646240234375" lon="1.30413956008851528167724609375">
        <ele>1289.199951171875</ele>
        <time>2020-08-12T08:21:34.000Z</time>
      </trkpt>
      <trkpt lat="42.35929288901388645172119140625" lon="1.30410033278167247772216796875">
        <ele>1289.4000244140625</ele>
        <time>2020-08-12T08:21:39.000Z</time>
      </trkpt>
      <trkpt lat="42.359305210411548614501953125" lon="1.3040854968130588531494140625">
        <ele>1289.4000244140625</ele>
        <time>2020-08-12T08:21:40.000Z</time>
      </trkpt>
      <trkpt lat="42.3594324477016925811767578125" lon="1.3039617799222469329833984375">
        <ele>1290</ele>
        <time>2020-08-12T08:21:48.000Z</time>
      </trkpt>
      <trkpt lat="42.3595618642866611480712890625" lon="1.30383194424211978912353515625">
        <ele>1290.5999755859375</ele>
        <time>2020-08-12T08:21:55.000Z</time>
      </trkpt>
      <trkpt lat="42.359636127948760986328125" lon="1.3037565909326076507568359375">
        <ele>1290.800048828125</ele>
        <time>2020-08-12T08:21:59.000Z</time>
      </trkpt>
      <trkpt lat="42.35979898832738399505615234375" lon="1.30363337695598602294921875">
        <ele>1291.5999755859375</ele>
        <time>2020-08-12T08:22:07.000Z</time>
      </trkpt>
      <trkpt lat="42.35986302606761455535888671875" lon="1.30359037779271602630615234375">
        <ele>1292</ele>
        <time>2020-08-12T08:22:10.000Z</time>
      </trkpt>
      <trkpt lat="42.3600225336849689483642578125" lon="1.30350857041776180267333984375">
        <ele>1292.4000244140625</ele>
        <time>2020-08-12T08:22:17.000Z</time>
      </trkpt>
      <trkpt lat="42.3601184226572513580322265625" lon="1.3034578599035739898681640625">
        <ele>1292.800048828125</ele>
        <time>2020-08-12T08:22:21.000Z</time>
      </trkpt>
      <trkpt lat="42.360231578350067138671875" lon="1.3033993542194366455078125">
        <ele>1293.4000244140625</ele>
        <time>2020-08-12T08:22:26.000Z</time>
      </trkpt>
      <trkpt lat="42.36027709208428859710693359375" lon="1.30337043665349483489990234375">
        <ele>1293.5999755859375</ele>
        <time>2020-08-12T08:22:28.000Z</time>
      </trkpt>
      <trkpt lat="42.36044908873736858367919921875" lon="1.30325459875166416168212890625">
        <ele>1294.4000244140625</ele>
        <time>2020-08-12T08:22:36.000Z</time>
      </trkpt>
      <trkpt lat="42.3606015555560588836669921875" lon="1.30313892848789691925048828125">
        <ele>1294.800048828125</ele>
        <time>2020-08-12T08:22:43.000Z</time>
      </trkpt>
      <trkpt lat="42.36077673733234405517578125" lon="1.30295704118907451629638671875">
        <ele>1295.4000244140625</ele>
        <time>2020-08-12T08:22:52.000Z</time>
      </trkpt>
      <trkpt lat="42.3607980273663997650146484375" lon="1.30293860100209712982177734375">
        <ele>1295.4000244140625</ele>
        <time>2020-08-12T08:22:53.000Z</time>
      </trkpt>
      <trkpt lat="42.36098770983517169952392578125" lon="1.3027893193066120147705078125">
        <ele>1296.4000244140625</ele>
        <time>2020-08-12T08:23:02.000Z</time>
      </trkpt>
      <trkpt lat="42.36113808117806911468505859375" lon="1.30268915556371212005615234375">
        <ele>1297.5999755859375</ele>
        <time>2020-08-12T08:23:09.000Z</time>
      </trkpt>
      <trkpt lat="42.3612255044281482696533203125" lon="1.302633583545684814453125">
        <ele>1298.199951171875</ele>
        <time>2020-08-12T08:23:13.000Z</time>
      </trkpt>
      <trkpt lat="42.36131192184984683990478515625" lon="1.3025787658989429473876953125">
        <ele>1298.5999755859375</ele>
        <time>2020-08-12T08:23:17.000Z</time>
      </trkpt>
      <trkpt lat="42.3613782227039337158203125" lon="1.30254196934401988983154296875">
        <ele>1299.199951171875</ele>
        <time>2020-08-12T08:23:20.000Z</time>
      </trkpt>
      <trkpt lat="42.3614669032394886016845703125" lon="1.30249318666756153106689453125">
        <ele>1299.800048828125</ele>
        <time>2020-08-12T08:23:24.000Z</time>
      </trkpt>
      <trkpt lat="42.3615778796374797821044921875" lon="1.30243618972599506378173828125">
        <ele>1300.4000244140625</ele>
        <time>2020-08-12T08:23:29.000Z</time>
      </trkpt>
      <trkpt lat="42.361623980104923248291015625" lon="1.30241925828158855438232421875">
        <ele>1300.800048828125</ele>
        <time>2020-08-12T08:23:31.000Z</time>
      </trkpt>
      <trkpt lat="42.36178147606551647186279296875" lon="1.3023598305881023406982421875">
        <ele>1301.5999755859375</ele>
        <time>2020-08-12T08:23:38.000Z</time>
      </trkpt>
      <trkpt lat="42.36194056458771228790283203125" lon="1.302304677665233612060546875">
        <ele>1302.800048828125</ele>
        <time>2020-08-12T08:23:45.000Z</time>
      </trkpt>
      <trkpt lat="42.3619849048554897308349609375" lon="1.302287243306636810302734375">
        <ele>1303</ele>
        <time>2020-08-12T08:23:47.000Z</time>
      </trkpt>
      <trkpt lat="42.3621092922985553741455078125" lon="1.3022086210548877716064453125">
        <ele>1303.800048828125</ele>
        <time>2020-08-12T08:23:53.000Z</time>
      </trkpt>
      <trkpt lat="42.36212731339037418365478515625" lon="1.30218858830630779266357421875">
        <ele>1304</ele>
        <time>2020-08-12T08:23:54.000Z</time>
      </trkpt>
      <trkpt lat="42.36222906969487667083740234375" lon="1.302055902779102325439453125">
        <ele>1304.5999755859375</ele>
        <time>2020-08-12T08:24:00.000Z</time>
      </trkpt>
      <trkpt lat="42.36224449239671230316162109375" lon="1.302031762897968292236328125">
        <ele>1304.800048828125</ele>
        <time>2020-08-12T08:24:01.000Z</time>
      </trkpt>
      <trkpt lat="42.3623185046017169952392578125" lon="1.30183353088796138763427734375">
        <ele>1305.5999755859375</ele>
        <time>2020-08-12T08:24:08.000Z</time>
      </trkpt>
      <trkpt lat="42.36232479102909564971923828125" lon="1.3018022663891315460205078125">
        <ele>1305.800048828125</ele>
        <time>2020-08-12T08:24:09.000Z</time>
      </trkpt>
      <trkpt lat="42.36234021373093128204345703125" lon="1.301591880619525909423828125">
        <ele>1306.800048828125</ele>
        <time>2020-08-12T08:24:16.000Z</time>
      </trkpt>
      <trkpt lat="42.3623071052134037017822265625" lon="1.30135157145559787750244140625">
        <ele>1307.800048828125</ele>
        <time>2020-08-12T08:24:24.000Z</time>
      </trkpt>
      <trkpt lat="42.3622625134885311126708984375" lon="1.301085948944091796875">
        <ele>1308.800048828125</ele>
        <time>2020-08-12T08:24:33.000Z</time>
      </trkpt>
      <trkpt lat="42.36225128173828125" lon="1.30102694034576416015625">
        <ele>1309.199951171875</ele>
        <time>2020-08-12T08:24:35.000Z</time>
      </trkpt>
      <trkpt lat="42.36223711632192134857177734375" lon="1.3009357452392578125">
        <ele>1309.800048828125</ele>
        <time>2020-08-12T08:24:38.000Z</time>
      </trkpt>
      <trkpt lat="42.36223493702709674835205078125" lon="1.30077891983091831207275390625">
        <ele>1310.199951171875</ele>
        <time>2020-08-12T08:24:43.000Z</time>
      </trkpt>
      <trkpt lat="42.36223259009420871734619140625" lon="1.30065805278718471527099609375">
        <ele>1310.800048828125</ele>
        <time>2020-08-12T08:24:47.000Z</time>
      </trkpt>
      <trkpt lat="42.3622491024434566497802734375" lon="1.3004769198596477508544921875">
        <ele>1311.5999755859375</ele>
        <time>2020-08-12T08:24:53.000Z</time>
      </trkpt>
      <trkpt lat="42.3622521199285984039306640625" lon="1.3004474155604839324951171875">
        <ele>1311.800048828125</ele>
        <time>2020-08-12T08:24:54.000Z</time>
      </trkpt>
      <trkpt lat="42.3622794449329376220703125" lon="1.3003059290349483489990234375">
        <ele>1312.800048828125</ele>
        <time>2020-08-12T08:24:59.000Z</time>
      </trkpt>
      <trkpt lat="42.3623071052134037017822265625" lon="1.3001983053982257843017578125">
        <ele>1313.4000244140625</ele>
        <time>2020-08-12T08:25:03.000Z</time>
      </trkpt>
      <trkpt lat="42.3623470030725002288818359375" lon="1.3000749237835407257080078125">
        <ele>1314</ele>
        <time>2020-08-12T08:25:08.000Z</time>
      </trkpt>
      <trkpt lat="42.3623687960207462310791015625" lon="1.30002320744097232818603515625">
        <ele>1314.5999755859375</ele>
        <time>2020-08-12T08:25:12.000Z</time>
      </trkpt>
      <trkpt lat="42.36236602999269962310791015625" lon="1.30002848803997039794921875">
        <ele>1314.800048828125</ele>
        <time>2020-08-12T08:25:19.000Z</time>
      </trkpt>
      <trkpt lat="42.362365610897541046142578125" lon="1.3000286556780338287353515625">
        <ele>1315</ele>
        <time>2020-08-12T08:25:31.000Z</time>
      </trkpt>
      <trkpt lat="42.36236653290688991546630859375" lon="1.30002622492611408233642578125">
        <ele>1314.800048828125</ele>
        <time>2020-08-12T08:25:46.000Z</time>
      </trkpt>
      <trkpt lat="42.36238346435129642486572265625" lon="1.29997828043997287750244140625">
        <ele>1315</ele>
        <time>2020-08-12T08:25:53.000Z</time>
      </trkpt>
      <trkpt lat="42.36247097142040729522705078125" lon="1.299796812236309051513671875">
        <ele>1315</ele>
        <time>2020-08-12T08:26:00.000Z</time>
      </trkpt>
      <trkpt lat="42.3625833727419376373291015625" lon="1.2996243126690387725830078125">
        <ele>1315.5999755859375</ele>
        <time>2020-08-12T08:26:07.000Z</time>
      </trkpt>
      <trkpt lat="42.36261681653559207916259765625" lon="1.29958298988640308380126953125">
        <ele>1315.5999755859375</ele>
        <time>2020-08-12T08:26:09.000Z</time>
      </trkpt>
      <trkpt lat="42.36277473159134387969970703125" lon="1.29942909814417362213134765625">
        <ele>1316</ele>
        <time>2020-08-12T08:26:17.000Z</time>
      </trkpt>
      <trkpt lat="42.36298377625644207000732421875" lon="1.29923991858959197998046875">
        <ele>1316.199951171875</ele>
        <time>2020-08-12T08:26:27.000Z</time>
      </trkpt>
      <trkpt lat="42.3631134442985057830810546875" lon="1.29912994801998138427734375">
        <ele>1316.4000244140625</ele>
        <time>2020-08-12T08:26:33.000Z</time>
      </trkpt>
      <trkpt lat="42.3631372489035129547119140625" lon="1.29911226220428943634033203125">
        <ele>1316.4000244140625</ele>
        <time>2020-08-12T08:26:34.000Z</time>
      </trkpt>
      <trkpt lat="42.3633233271539211273193359375" lon="1.29895501770079135894775390625">
        <ele>1316.800048828125</ele>
        <time>2020-08-12T08:26:42.000Z</time>
      </trkpt>
      <trkpt lat="42.3635211400687694549560546875" lon="1.298764161765575408935546875">
        <ele>1317.5999755859375</ele>
        <time>2020-08-12T08:26:51.000Z</time>
      </trkpt>
      <trkpt lat="42.3636710084974765777587890625" lon="1.2985805980861186981201171875">
        <ele>1318.4000244140625</ele>
        <time>2020-08-12T08:26:59.000Z</time>
      </trkpt>
      <trkpt lat="42.36375709064304828643798828125" lon="1.2984411232173442840576171875">
        <ele>1319.4000244140625</ele>
        <time>2020-08-12T08:27:05.000Z</time>
      </trkpt>
      <trkpt lat="42.36378751695156097412109375" lon="1.2983970344066619873046875">
        <ele>1319.5999755859375</ele>
        <time>2020-08-12T08:27:07.000Z</time>
      </trkpt>
      <trkpt lat="42.3638406582176685333251953125" lon="1.2982708029448986053466796875">
        <ele>1320.5999755859375</ele>
        <time>2020-08-12T08:27:12.000Z</time>
      </trkpt>
      <trkpt lat="42.36386261880397796630859375" lon="1.2982213497161865234375">
        <ele>1321</ele>
        <time>2020-08-12T08:27:14.000Z</time>
      </trkpt>
      <trkpt lat="42.36390477977693080902099609375" lon="1.29811833612620830535888671875">
        <ele>1321.5999755859375</ele>
        <time>2020-08-12T08:27:18.000Z</time>
      </trkpt>
      <trkpt lat="42.3639409057796001434326171875" lon="1.29801691509783267974853515625">
        <ele>1322.199951171875</ele>
        <time>2020-08-12T08:27:22.000Z</time>
      </trkpt>
      <trkpt lat="42.3639630340039730072021484375" lon="1.2979445792734622955322265625">
        <ele>1322.800048828125</ele>
        <time>2020-08-12T08:27:25.000Z</time>
      </trkpt>
      <trkpt lat="42.36399966292083263397216796875" lon="1.29785765893757343292236328125">
        <ele>1323.800048828125</ele>
        <time>2020-08-12T08:27:29.000Z</time>
      </trkpt>
      <trkpt lat="42.3640213720500469207763671875" lon="1.29781390540301799774169921875">
        <ele>1323.800048828125</ele>
        <time>2020-08-12T08:27:31.000Z</time>
      </trkpt>
      <trkpt lat="42.3640917800366878509521484375" lon="1.297619529068470001220703125">
        <ele>1324.4000244140625</ele>
        <time>2020-08-12T08:27:39.000Z</time>
      </trkpt>
      <trkpt lat="42.36411332152783870697021484375" lon="1.29756219685077667236328125">
        <ele>1324.5999755859375</ele>
        <time>2020-08-12T08:27:41.000Z</time>
      </trkpt>
      <trkpt lat="42.36420200206339359283447265625" lon="1.2973370589315891265869140625">
        <ele>1325.800048828125</ele>
        <time>2020-08-12T08:27:49.000Z</time>
      </trkpt>
      <trkpt lat="42.3642141558229923248291015625" lon="1.29730696789920330047607421875">
        <ele>1325.800048828125</ele>
        <time>2020-08-12T08:27:50.000Z</time>
      </trkpt>
      <trkpt lat="42.36432856880128383636474609375" lon="1.29702952690422534942626953125">
        <ele>1326.5999755859375</ele>
        <time>2020-08-12T08:27:59.000Z</time>
      </trkpt>
      <trkpt lat="42.36435136757791042327880859375" lon="1.2969682551920413970947265625">
        <ele>1326.5999755859375</ele>
        <time>2020-08-12T08:28:01.000Z</time>
      </trkpt>
      <trkpt lat="42.36442512832581996917724609375" lon="1.29678167402744293212890625">
        <ele>1326.800048828125</ele>
        <time>2020-08-12T08:28:08.000Z</time>
      </trkpt>
      <trkpt lat="42.36449025571346282958984375" lon="1.29664194770157337188720703125">
        <ele>1327.800048828125</ele>
        <time>2020-08-12T08:28:14.000Z</time>
      </trkpt>
      <trkpt lat="42.364501990377902984619140625" lon="1.29662132821977138519287109375">
        <ele>1328.4000244140625</ele>
        <time>2020-08-12T08:28:15.000Z</time>
      </trkpt>
      <trkpt lat="42.36452487297356128692626953125" lon="1.29658478312194347381591796875">
        <ele>1329</ele>
        <time>2020-08-12T08:28:17.000Z</time>
      </trkpt>
      <trkpt lat="42.36457918770611286163330078125" lon="1.2965183146297931671142578125">
        <ele>1329.199951171875</ele>
        <time>2020-08-12T08:28:21.000Z</time>
      </trkpt>
      <trkpt lat="42.3646932654082775115966796875" lon="1.2964036501944065093994140625">
        <ele>1330</ele>
        <time>2020-08-12T08:28:29.000Z</time>
      </trkpt>
      <trkpt lat="42.36472352407872676849365234375" lon="1.29638160578906536102294921875">
        <ele>1330.199951171875</ele>
        <time>2020-08-12T08:28:31.000Z</time>
      </trkpt>
      <trkpt lat="42.36487724818289279937744140625" lon="1.2962792627513408660888671875">
        <ele>1330.4000244140625</ele>
        <time>2020-08-12T08:28:40.000Z</time>
      </trkpt>
      <trkpt lat="42.3649601452052593231201171875" lon="1.29623793996870517730712890625">
        <ele>1330.800048828125</ele>
        <time>2020-08-12T08:28:45.000Z</time>
      </trkpt>
      <trkpt lat="42.36497716046869754791259765625" lon="1.2962289713323116302490234375">
        <ele>1331</ele>
        <time>2020-08-12T08:28:46.000Z</time>
      </trkpt>
      <trkpt lat="42.36509014852344989776611328125" lon="1.2961873970925807952880859375">
        <ele>1331</ele>
        <time>2020-08-12T08:28:54.000Z</time>
      </trkpt>
      <trkpt lat="42.36515569500625133514404296875" lon="1.29615730606019496917724609375">
        <ele>1331.199951171875</ele>
        <time>2020-08-12T08:29:02.000Z</time>
      </trkpt>
      <trkpt lat="42.36520933918654918670654296875" lon="1.296131573617458343505859375">
        <ele>1331.199951171875</ele>
        <time>2020-08-12T08:29:09.000Z</time>
      </trkpt>
      <trkpt lat="42.365258373320102691650390625" lon="1.29611321724951267242431640625">
        <ele>1331.4000244140625</ele>
        <time>2020-08-12T08:29:16.000Z</time>
      </trkpt>
      <trkpt lat="42.3653611354529857635498046875" lon="1.29610299132764339447021484375">
        <ele>1331.800048828125</ele>
        <time>2020-08-12T08:29:23.000Z</time>
      </trkpt>
      <trkpt lat="42.36539323814213275909423828125" lon="1.2961049191653728485107421875">
        <ele>1332</ele>
        <time>2020-08-12T08:29:25.000Z</time>
      </trkpt>
      <trkpt lat="42.36544101499021053314208984375" lon="1.29610081203281879425048828125">
        <ele>1332.800048828125</ele>
        <time>2020-08-12T08:29:28.000Z</time>
      </trkpt>
      <trkpt lat="42.365509159862995147705078125" lon="1.296104080975055694580078125">
        <ele>1332.5999755859375</ele>
        <time>2020-08-12T08:29:32.000Z</time>
      </trkpt>
      <trkpt lat="42.36565726809203624725341796875" lon="1.29605135880410671234130859375">
        <ele>1332.4000244140625</ele>
        <time>2020-08-12T08:29:41.000Z</time>
      </trkpt>
      <trkpt lat="42.3656850121915340423583984375" lon="1.29602453671395778656005859375">
        <ele>1332.4000244140625</ele>
        <time>2020-08-12T08:29:43.000Z</time>
      </trkpt>
      <trkpt lat="42.36571007408201694488525390625" lon="1.2959682941436767578125">
        <ele>1332.4000244140625</ele>
        <time>2020-08-12T08:29:46.000Z</time>
      </trkpt>
      <trkpt lat="42.36571191810071468353271484375" lon="1.29592470824718475341796875">
        <ele>1332.4000244140625</ele>
        <time>2020-08-12T08:29:48.000Z</time>
      </trkpt>
      <trkpt lat="42.36569900996983051300048828125" lon="1.2958638556301593780517578125">
        <ele>1332.5999755859375</ele>
        <time>2020-08-12T08:29:51.000Z</time>
      </trkpt>
      <trkpt lat="42.3656249977648258209228515625" lon="1.29567534662783145904541015625">
        <ele>1333.4000244140625</ele>
        <time>2020-08-12T08:30:00.000Z</time>
      </trkpt>
      <trkpt lat="42.3656142689287662506103515625" lon="1.2956536374986171722412109375">
        <ele>1333.5999755859375</ele>
        <time>2020-08-12T08:30:01.000Z</time>
      </trkpt>
      <trkpt lat="42.36555165611207485198974609375" lon="1.29550519399344921112060546875">
        <ele>1334</ele>
        <time>2020-08-12T08:30:08.000Z</time>
      </trkpt>
      <trkpt lat="42.36550547182559967041015625" lon="1.29537728615105152130126953125">
        <ele>1334.5999755859375</ele>
        <time>2020-08-12T08:30:14.000Z</time>
      </trkpt>
      <trkpt lat="42.36549834720790386199951171875" lon="1.29535566084086894989013671875">
        <ele>1335</ele>
        <time>2020-08-12T08:30:15.000Z</time>
      </trkpt>
      <trkpt lat="42.365464232861995697021484375" lon="1.2952503003180027008056640625">
        <ele>1335.199951171875</ele>
        <time>2020-08-12T08:30:20.000Z</time>
      </trkpt>
      <trkpt lat="42.36545023508369922637939453125" lon="1.295186765491962432861328125">
        <ele>1335.4000244140625</ele>
        <time>2020-08-12T08:30:23.000Z</time>
      </trkpt>
      <trkpt lat="42.365446798503398895263671875" lon="1.29516430199146270751953125">
        <ele>1335.4000244140625</ele>
        <time>2020-08-12T08:30:24.000Z</time>
      </trkpt>
      <trkpt lat="42.3654342256486415863037109375" lon="1.29502725787460803985595703125">
        <ele>1336.4000244140625</ele>
        <time>2020-08-12T08:30:30.000Z</time>
      </trkpt>
      <trkpt lat="42.36543632112443447113037109375" lon="1.29497897811233997344970703125">
        <ele>1336.5999755859375</ele>
        <time>2020-08-12T08:30:32.000Z</time>
      </trkpt>
      <trkpt lat="42.36545291729271411895751953125" lon="1.29481737501919269561767578125">
        <ele>1337.5999755859375</ele>
        <time>2020-08-12T08:30:39.000Z</time>
      </trkpt>
      <trkpt lat="42.3654566891491413116455078125" lon="1.294795833528041839599609375">
        <ele>1337.5999755859375</ele>
        <time>2020-08-12T08:30:40.000Z</time>
      </trkpt>
      <trkpt lat="42.36550547182559967041015625" lon="1.2946280278265476226806640625">
        <ele>1338.4000244140625</ele>
        <time>2020-08-12T08:30:48.000Z</time>
      </trkpt>
      <trkpt lat="42.3655099980533123016357421875" lon="1.29460430704057216644287109375">
        <ele>1338.5999755859375</ele>
        <time>2020-08-12T08:30:49.000Z</time>
      </trkpt>
      <trkpt lat="42.36556841991841793060302734375" lon="1.29447631537914276123046875">
        <ele>1339.5999755859375</ele>
        <time>2020-08-12T08:30:56.000Z</time>
      </trkpt>
      <trkpt lat="42.365574873983860015869140625" lon="1.2944595515727996826171875">
        <ele>1339.800048828125</ele>
        <time>2020-08-12T08:30:57.000Z</time>
      </trkpt>
      <trkpt lat="42.3656501434743404388427734375" lon="1.2943437136709690093994140625">
        <ele>1340.5999755859375</ele>
        <time>2020-08-12T08:31:05.000Z</time>
      </trkpt>
      <trkpt lat="42.36567939631640911102294921875" lon="1.29430406726896762847900390625">
        <ele>1341</ele>
        <time>2020-08-12T08:31:08.000Z</time>
      </trkpt>
      <trkpt lat="42.36573421396315097808837890625" lon="1.29425369203090667724609375">
        <ele>1341.5999755859375</ele>
        <time>2020-08-12T08:31:13.000Z</time>
      </trkpt>
      <trkpt lat="42.36576891504228115081787109375" lon="1.2942196615040302276611328125">
        <ele>1342</ele>
        <time>2020-08-12T08:31:16.000Z</time>
      </trkpt>
      <trkpt lat="42.3658150993287563323974609375" lon="1.29418219439685344696044921875">
        <ele>1342.5999755859375</ele>
        <time>2020-08-12T08:31:20.000Z</time>
      </trkpt>
      <trkpt lat="42.365839071571826934814453125" lon="1.29416308365762233734130859375">
        <ele>1343</ele>
        <time>2020-08-12T08:31:22.000Z</time>
      </trkpt>
      <trkpt lat="42.36590939573943614959716796875" lon="1.2941076792776584625244140625">
        <ele>1343.5999755859375</ele>
        <time>2020-08-12T08:31:28.000Z</time>
      </trkpt>
      <trkpt lat="42.36594174988567829132080078125" lon="1.2940768338739871978759765625">
        <ele>1344</ele>
        <time>2020-08-12T08:31:31.000Z</time>
      </trkpt>
      <trkpt lat="42.3659889400005340576171875" lon="1.2940438091754913330078125">
        <ele>1344.800048828125</ele>
        <time>2020-08-12T08:31:35.000Z</time>
      </trkpt>
      <trkpt lat="42.366013415157794952392578125" lon="1.29402394406497478485107421875">
        <ele>1345</ele>
        <time>2020-08-12T08:31:37.000Z</time>
      </trkpt>
      <trkpt lat="42.36608943901956081390380859375" lon="1.2939500994980335235595703125">
        <ele>1346</ele>
        <time>2020-08-12T08:31:44.000Z</time>
      </trkpt>
      <trkpt lat="42.3661007545888423919677734375" lon="1.293940208852291107177734375">
        <ele>1346.199951171875</ele>
        <time>2020-08-12T08:31:45.000Z</time>
      </trkpt>
      <trkpt lat="42.3661793768405914306640625" lon="1.29387608729302883148193359375">
        <ele>1347.4000244140625</ele>
        <time>2020-08-12T08:31:52.000Z</time>
      </trkpt>
      <trkpt lat="42.36626319587230682373046875" lon="1.2937889993190765380859375">
        <ele>1348.199951171875</ele>
        <time>2020-08-12T08:32:00.000Z</time>
      </trkpt>
      <trkpt lat="42.36628306098282337188720703125" lon="1.29376812838017940521240234375">
        <ele>1348.4000244140625</ele>
        <time>2020-08-12T08:32:02.000Z</time>
      </trkpt>
      <trkpt lat="42.36633553169667720794677734375" lon="1.293711550533771514892578125">
        <ele>1348.800048828125</ele>
        <time>2020-08-12T08:32:07.000Z</time>
      </trkpt>
      <trkpt lat="42.36635900102555751800537109375" lon="1.29369118250906467437744140625">
        <ele>1349.199951171875</ele>
        <time>2020-08-12T08:32:09.000Z</time>
      </trkpt>
      <trkpt lat="42.3664256371557712554931640625" lon="1.29362513311207294464111328125">
        <ele>1350.4000244140625</ele>
        <time>2020-08-12T08:32:15.000Z</time>
      </trkpt>
      <trkpt lat="42.3665097914636135101318359375" lon="1.29355807788670063018798828125">
        <ele>1351.4000244140625</ele>
        <time>2020-08-12T08:32:22.000Z</time>
      </trkpt>
      <trkpt lat="42.36653183586895465850830078125" lon="1.29353645257651805877685546875">
        <ele>1351.800048828125</ele>
        <time>2020-08-12T08:32:24.000Z</time>
      </trkpt>
      <trkpt lat="42.366568632423877716064453125" lon="1.2934807129204273223876953125">
        <ele>1352.199951171875</ele>
        <time>2020-08-12T08:32:28.000Z</time>
      </trkpt>
      <trkpt lat="42.366579361259937286376953125" lon="1.2934683077037334442138671875">
        <ele>1352.199951171875</ele>
        <time>2020-08-12T08:32:29.000Z</time>
      </trkpt>
      <trkpt lat="42.36660392023622989654541015625" lon="1.293431259691715240478515625">
        <ele>1353</ele>
        <time>2020-08-12T08:32:34.000Z</time>
      </trkpt>
      <trkpt lat="42.3666031658649444580078125" lon="1.2934307567775249481201171875">
        <ele>1353.4000244140625</ele>
        <time>2020-08-12T08:32:42.000Z</time>
      </trkpt>
      <trkpt lat="42.366603501141071319580078125" lon="1.29343067295849323272705078125">
        <ele>1353.4000244140625</ele>
        <time>2020-08-12T08:32:45.000Z</time>
      </trkpt>
      <trkpt lat="42.36662152223289012908935546875" lon="1.29337132908403873443603515625">
        <ele>1353.199951171875</ele>
        <time>2020-08-12T08:32:51.000Z</time>
      </trkpt>
      <trkpt lat="42.3666514456272125244140625" lon="1.2931699119508266448974609375">
        <ele>1353.5999755859375</ele>
        <time>2020-08-12T08:33:01.000Z</time>
      </trkpt>
      <trkpt lat="42.36666209064424037933349609375" lon="1.29305063746869564056396484375">
        <ele>1354.199951171875</ele>
        <time>2020-08-12T08:33:07.000Z</time>
      </trkpt>
      <trkpt lat="42.36666510812938213348388671875" lon="1.2930109910666942596435546875">
        <ele>1354.4000244140625</ele>
        <time>2020-08-12T08:33:09.000Z</time>
      </trkpt>
      <trkpt lat="42.366665862500667572021484375" lon="1.2928279303014278411865234375">
        <ele>1355</ele>
        <time>2020-08-12T08:33:18.000Z</time>
      </trkpt>
      <trkpt lat="42.3666784353554248809814453125" lon="1.2926824204623699188232421875">
        <ele>1356</ele>
        <time>2020-08-12T08:33:25.000Z</time>
      </trkpt>
      <trkpt lat="42.366685979068279266357421875" lon="1.2926197238266468048095703125">
        <ele>1356.5999755859375</ele>
        <time>2020-08-12T08:33:28.000Z</time>
      </trkpt>
      <trkpt lat="42.36669377423822879791259765625" lon="1.29251235164701938629150390625">
        <ele>1357.199951171875</ele>
        <time>2020-08-12T08:33:33.000Z</time>
      </trkpt>
      <trkpt lat="42.3667139746248722076416015625" lon="1.29240573383867740631103515625">
        <ele>1358</ele>
        <time>2020-08-12T08:33:38.000Z</time>
      </trkpt>
      <trkpt lat="42.3667211830615997314453125" lon="1.29236516542732715606689453125">
        <ele>1358.199951171875</ele>
        <time>2020-08-12T08:33:40.000Z</time>
      </trkpt>
      <trkpt lat="42.36676166765391826629638671875" lon="1.29225318320095539093017578125">
        <ele>1358.4000244140625</ele>
        <time>2020-08-12T08:33:46.000Z</time>
      </trkpt>
      <trkpt lat="42.3668014816939830780029296875" lon="1.29216584376990795135498046875">
        <ele>1359</ele>
        <time>2020-08-12T08:33:51.000Z</time>
      </trkpt>
      <trkpt lat="42.36683626659214496612548828125" lon="1.29209610633552074432373046875">
        <ele>1359.5999755859375</ele>
        <time>2020-08-12T08:33:55.000Z</time>
      </trkpt>
      <trkpt lat="42.3668682016432285308837890625" lon="1.29205084405839443206787109375">
        <ele>1360.199951171875</ele>
        <time>2020-08-12T08:33:58.000Z</time>
      </trkpt>
      <trkpt lat="42.36693282611668109893798828125" lon="1.291940622031688690185546875">
        <ele>1360.5999755859375</ele>
        <time>2020-08-12T08:34:05.000Z</time>
      </trkpt>
      <trkpt lat="42.36705034039914608001708984375" lon="1.29178580828011035919189453125">
        <ele>1360.800048828125</ele>
        <time>2020-08-12T08:34:16.000Z</time>
      </trkpt>
      <trkpt lat="42.3670619912445545196533203125" lon="1.29177407361567020416259765625">
        <ele>1361</ele>
        <time>2020-08-12T08:34:17.000Z</time>
      </trkpt>
      <trkpt lat="42.3671501688659191131591796875" lon="1.291669048368930816650390625">
        <ele>1362.4000244140625</ele>
        <time>2020-08-12T08:34:25.000Z</time>
      </trkpt>
      <trkpt lat="42.3671619035303592681884765625" lon="1.2916568107903003692626953125">
        <ele>1362.4000244140625</ele>
        <time>2020-08-12T08:34:26.000Z</time>
      </trkpt>
      <trkpt lat="42.36730716191232204437255859375" lon="1.29155010916292667388916015625">
        <ele>1363</ele>
        <time>2020-08-12T08:34:36.000Z</time>
      </trkpt>
      <trkpt lat="42.36737119965255260467529296875" lon="1.29151205532252788543701171875">
        <ele>1363.199951171875</ele>
        <time>2020-08-12T08:34:40.000Z</time>
      </trkpt>
      <trkpt lat="42.36746557988226413726806640625" lon="1.2914519570767879486083984375">
        <ele>1363.5999755859375</ele>
        <time>2020-08-12T08:34:46.000Z</time>
      </trkpt>
      <trkpt lat="42.36754470504820346832275390625" lon="1.29141013137996196746826171875">
        <ele>1364.199951171875</ele>
        <time>2020-08-12T08:34:51.000Z</time>
      </trkpt>
      <trkpt lat="42.3676098324358463287353515625" lon="1.2913761846721172332763671875">
        <ele>1365</ele>
        <time>2020-08-12T08:34:55.000Z</time>
      </trkpt>
      <trkpt lat="42.36767177470028400421142578125" lon="1.2913446687161922454833984375">
        <ele>1365.4000244140625</ele>
        <time>2020-08-12T08:34:59.000Z</time>
      </trkpt>
      <trkpt lat="42.36772793345153331756591796875" lon="1.29131893627345561981201171875">
        <ele>1365.5999755859375</ele>
        <time>2020-08-12T08:35:03.000Z</time>
      </trkpt>
      <trkpt lat="42.36784829758107662200927734375" lon="1.2912561558187007904052734375">
        <ele>1366</ele>
        <time>2020-08-12T08:35:11.000Z</time>
      </trkpt>
      <trkpt lat="42.36786422319710254669189453125" lon="1.29124433733522891998291015625">
        <ele>1366.199951171875</ele>
        <time>2020-08-12T08:35:12.000Z</time>
      </trkpt>
      <trkpt lat="42.3679679073393344879150390625" lon="1.29119186662137508392333984375">
        <ele>1366.800048828125</ele>
        <time>2020-08-12T08:35:18.000Z</time>
      </trkpt>
      <trkpt lat="42.36803613603115081787109375" lon="1.29116370342671871185302734375">
        <ele>1367.199951171875</ele>
        <time>2020-08-12T08:35:22.000Z</time>
      </trkpt>
      <trkpt lat="42.36810319125652313232421875" lon="1.29113453440368175506591796875">
        <ele>1367.800048828125</ele>
        <time>2020-08-12T08:35:26.000Z</time>
      </trkpt>
      <trkpt lat="42.368206791579723358154296875" lon="1.29109614528715610504150390625">
        <ele>1368.199951171875</ele>
        <time>2020-08-12T08:35:32.000Z</time>
      </trkpt>
      <trkpt lat="42.36822187900543212890625" lon="1.291087679564952850341796875">
        <ele>1368.4000244140625</ele>
        <time>2020-08-12T08:35:33.000Z</time>
      </trkpt>
      <trkpt lat="42.36823864281177520751953125" lon="1.29108424298465251922607421875">
        <ele>1368.5999755859375</ele>
        <time>2020-08-12T08:35:34.000Z</time>
      </trkpt>
      <trkpt lat="42.3683152534067630767822265625" lon="1.2910496257245540618896484375">
        <ele>1368.5999755859375</ele>
        <time>2020-08-12T08:35:38.000Z</time>
      </trkpt>
      <trkpt lat="42.3683331906795501708984375" lon="1.291039399802684783935546875">
        <ele>1368.800048828125</ele>
        <time>2020-08-12T08:35:39.000Z</time>
      </trkpt>
      <trkpt lat="42.3683856613934040069580078125" lon="1.2910093925893306732177734375">
        <ele>1369.199951171875</ele>
        <time>2020-08-12T08:35:42.000Z</time>
      </trkpt>
      <trkpt lat="42.36845028586685657501220703125" lon="1.29097309894859790802001953125">
        <ele>1369.5999755859375</ele>
        <time>2020-08-12T08:35:46.000Z</time>
      </trkpt>
      <trkpt lat="42.36849873326718807220458984375" lon="1.2909493781626224517822265625">
        <ele>1370.199951171875</ele>
        <time>2020-08-12T08:35:49.000Z</time>
      </trkpt>
      <trkpt lat="42.36856981180608272552490234375" lon="1.29093118943274021148681640625">
        <ele>1370.5999755859375</ele>
        <time>2020-08-12T08:35:53.000Z</time>
      </trkpt>
      <trkpt lat="42.36862747929990291595458984375" lon="1.29091928713023662567138671875">
        <ele>1371.199951171875</ele>
        <time>2020-08-12T08:35:57.000Z</time>
      </trkpt>
      <trkpt lat="42.36864273436367511749267578125" lon="1.290914006531238555908203125">
        <ele>1371.4000244140625</ele>
        <time>2020-08-12T08:35:58.000Z</time>
      </trkpt>
      <trkpt lat="42.36866100691258907318115234375" lon="1.29087905399501323699951171875">
        <ele>1371.5999755859375</ele>
        <time>2020-08-12T08:36:00.000Z</time>
      </trkpt>
      <trkpt lat="42.36868112348020076751708984375" lon="1.2908125855028629302978515625">
        <ele>1371.5999755859375</ele>
        <time>2020-08-12T08:36:03.000Z</time>
      </trkpt>
      <trkpt lat="42.36868229694664478302001953125" lon="1.290729604661464691162109375">
        <ele>1372</ele>
        <time>2020-08-12T08:36:06.000Z</time>
      </trkpt>
      <trkpt lat="42.368678860366344451904296875" lon="1.29070370458066463470458984375">
        <ele>1372.199951171875</ele>
        <time>2020-08-12T08:36:07.000Z</time>
      </trkpt>
      <trkpt lat="42.3686706461012363433837890625" lon="1.2906803190708160400390625">
        <ele>1372.4000244140625</ele>
        <time>2020-08-12T08:36:08.000Z</time>
      </trkpt>
      <trkpt lat="42.36863066442310810089111328125" lon="1.29059809260070323944091796875">
        <ele>1372.800048828125</ele>
        <time>2020-08-12T08:36:12.000Z</time>
      </trkpt>
      <trkpt lat="42.36859328113496303558349609375" lon="1.2905480526387691497802734375">
        <ele>1373.199951171875</ele>
        <time>2020-08-12T08:36:15.000Z</time>
      </trkpt>
      <trkpt lat="42.368508540093898773193359375" lon="1.2904711067676544189453125">
        <ele>1374</ele>
        <time>2020-08-12T08:36:21.000Z</time>
      </trkpt>
      <trkpt lat="42.3684530518949031829833984375" lon="1.290417127311229705810546875">
        <ele>1374.4000244140625</ele>
        <time>2020-08-12T08:36:25.000Z</time>
      </trkpt>
      <trkpt lat="42.36841256730258464813232421875" lon="1.29037613980472087860107421875">
        <ele>1374.800048828125</ele>
        <time>2020-08-12T08:36:28.000Z</time>
      </trkpt>
      <trkpt lat="42.36835992895066738128662109375" lon="1.29029785282909870147705078125">
        <ele>1375.5999755859375</ele>
        <time>2020-08-12T08:36:33.000Z</time>
      </trkpt>
      <trkpt lat="42.36833930946886539459228515625" lon="1.2902674265205860137939453125">
        <ele>1376</ele>
        <time>2020-08-12T08:36:35.000Z</time>
      </trkpt>
      <trkpt lat="42.368293963372707366943359375" lon="1.29015888087451457977294921875">
        <ele>1376.4000244140625</ele>
        <time>2020-08-12T08:36:41.000Z</time>
      </trkpt>
      <trkpt lat="42.36828365363180637359619140625" lon="1.2901386804878711700439453125">
        <ele>1376.5999755859375</ele>
        <time>2020-08-12T08:36:42.000Z</time>
      </trkpt>
      <trkpt lat="42.3682317696511745452880859375" lon="1.29002510569989681243896484375">
        <ele>1377.4000244140625</ele>
        <time>2020-08-12T08:36:49.000Z</time>
      </trkpt>
      <trkpt lat="42.36822615377604961395263671875" lon="1.29000616259872913360595703125">
        <ele>1377.5999755859375</ele>
        <time>2020-08-12T08:36:50.000Z</time>
      </trkpt>
      <trkpt lat="42.36821291036903858184814453125" lon="1.28988973796367645263671875">
        <ele>1378.800048828125</ele>
        <time>2020-08-12T08:36:56.000Z</time>
      </trkpt>
      <trkpt lat="42.3682150058448314666748046875" lon="1.289869286119937896728515625">
        <ele>1379</ele>
        <time>2020-08-12T08:36:57.000Z</time>
      </trkpt>
      <trkpt lat="42.36822011880576610565185546875" lon="1.28982762806117534637451171875">
        <ele>1379.5999755859375</ele>
        <time>2020-08-12T08:36:59.000Z</time>
      </trkpt>
      <trkpt lat="42.3682327754795551300048828125" lon="1.2897272966802120208740234375">
        <ele>1380.199951171875</ele>
        <time>2020-08-12T08:37:04.000Z</time>
      </trkpt>
      <trkpt lat="42.36824392341077327728271484375" lon="1.28958153538405895233154296875">
        <ele>1380.5999755859375</ele>
        <time>2020-08-12T08:37:11.000Z</time>
      </trkpt>
      <trkpt lat="42.3682458512485027313232421875" lon="1.28956192173063755035400390625">
        <ele>1381</ele>
        <time>2020-08-12T08:37:12.000Z</time>
      </trkpt>
      <trkpt lat="42.36825750209391117095947265625" lon="1.28942445851862430572509765625">
        <ele>1381.800048828125</ele>
        <time>2020-08-12T08:37:19.000Z</time>
      </trkpt>
      <trkpt lat="42.3682575859129428863525390625" lon="1.28938891924917697906494140625">
        <ele>1382</ele>
        <time>2020-08-12T08:37:21.000Z</time>
      </trkpt>
      <trkpt lat="42.3682663030922412872314453125" lon="1.28931432031095027923583984375">
        <ele>1382.800048828125</ele>
        <time>2020-08-12T08:37:25.000Z</time>
      </trkpt>
      <trkpt lat="42.36828155815601348876953125" lon="1.2892434932291507720947265625">
        <ele>1383.4000244140625</ele>
        <time>2020-08-12T08:37:29.000Z</time>
      </trkpt>
      <trkpt lat="42.36828885041177272796630859375" lon="1.28918674774467945098876953125">
        <ele>1383.800048828125</ele>
        <time>2020-08-12T08:37:32.000Z</time>
      </trkpt>
      <trkpt lat="42.36829304136335849761962890625" lon="1.2891110591590404510498046875">
        <ele>1384</ele>
        <time>2020-08-12T08:37:36.000Z</time>
      </trkpt>
      <trkpt lat="42.36829790286719799041748046875" lon="1.28905548714101314544677734375">
        <ele>1384.800048828125</ele>
        <time>2020-08-12T08:37:39.000Z</time>
      </trkpt>
      <trkpt lat="42.36830745823681354522705078125" lon="1.28896747715771198272705078125">
        <ele>1385</ele>
        <time>2020-08-12T08:37:44.000Z</time>
      </trkpt>
      <trkpt lat="42.3683172650635242462158203125" lon="1.2888911180198192596435546875">
        <ele>1386</ele>
        <time>2020-08-12T08:37:48.000Z</time>
      </trkpt>
      <trkpt lat="42.36832003109157085418701171875" lon="1.288774944841861724853515625">
        <ele>1386.5999755859375</ele>
        <time>2020-08-12T08:37:54.000Z</time>
      </trkpt>
      <trkpt lat="42.3683249764144420623779296875" lon="1.28873781301081180572509765625">
        <ele>1386.800048828125</ele>
        <time>2020-08-12T08:37:56.000Z</time>
      </trkpt>
      <trkpt lat="42.36833578906953334808349609375" lon="1.288646198809146881103515625">
        <ele>1387.5999755859375</ele>
        <time>2020-08-12T08:38:01.000Z</time>
      </trkpt>
      <trkpt lat="42.36834199167788028717041015625" lon="1.28859213553369045257568359375">
        <ele>1387.800048828125</ele>
        <time>2020-08-12T08:38:04.000Z</time>
      </trkpt>
      <trkpt lat="42.36835062503814697265625" lon="1.28852005116641521453857421875">
        <ele>1388.4000244140625</ele>
        <time>2020-08-12T08:38:08.000Z</time>
      </trkpt>
      <trkpt lat="42.36834266223013401031494140625" lon="1.28846255131065845489501953125">
        <ele>1388.800048828125</ele>
        <time>2020-08-12T08:38:11.000Z</time>
      </trkpt>
      <trkpt lat="42.3683414049446582794189453125" lon="1.288389377295970916748046875">
        <ele>1389.199951171875</ele>
        <time>2020-08-12T08:38:15.000Z</time>
      </trkpt>
      <trkpt lat="42.36834056675434112548828125" lon="1.28830882720649242401123046875">
        <ele>1389.800048828125</ele>
        <time>2020-08-12T08:38:19.000Z</time>
      </trkpt>
      <trkpt lat="42.3683474399149417877197265625" lon="1.28822852857410907745361328125">
        <ele>1390.4000244140625</ele>
        <time>2020-08-12T08:38:23.000Z</time>
      </trkpt>
      <trkpt lat="42.36833947710692882537841796875" lon="1.288107745349407196044921875">
        <ele>1390.800048828125</ele>
        <time>2020-08-12T08:38:29.000Z</time>
      </trkpt>
      <trkpt lat="42.36833713017404079437255859375" lon="1.288097016513347625732421875">
        <ele>1391</ele>
        <time>2020-08-12T08:38:30.000Z</time>
      </trkpt>
      <trkpt lat="42.3683357052505016326904296875" lon="1.28809592686593532562255859375">
        <ele>1391.199951171875</ele>
        <time>2020-08-12T08:38:33.000Z</time>
      </trkpt>
      <trkpt lat="42.368326820433139801025390625" lon="1.28803742118179798126220703125">
        <ele>1390.199951171875</ele>
        <time>2020-08-12T08:54:25.000Z</time>
      </trkpt>
      <trkpt lat="42.368326485157012939453125" lon="1.2880267761647701263427734375">
        <ele>1390</ele>
        <time>2020-08-12T08:54:28.000Z</time>
      </trkpt>
      <trkpt lat="42.3683286644518375396728515625" lon="1.2879791669547557830810546875">
        <ele>1390.199951171875</ele>
        <time>2020-08-12T08:54:31.000Z</time>
      </trkpt>
      <trkpt lat="42.368326820433139801025390625" lon="1.2879630737006664276123046875">
        <ele>1390.199951171875</ele>
        <time>2020-08-12T08:54:32.000Z</time>
      </trkpt>
      <trkpt lat="42.36832539550960063934326171875" lon="1.28781697712838649749755859375">
        <ele>1390.5999755859375</ele>
        <time>2020-08-12T08:54:40.000Z</time>
      </trkpt>
      <trkpt lat="42.3683229647576808929443359375" lon="1.28765855915844440460205078125">
        <ele>1391</ele>
        <time>2020-08-12T08:54:48.000Z</time>
      </trkpt>
      <trkpt lat="42.36832338385283946990966796875" lon="1.287618912756443023681640625">
        <ele>1391.199951171875</ele>
        <time>2020-08-12T08:54:50.000Z</time>
      </trkpt>
      <trkpt lat="42.36832606606185436248779296875" lon="1.28748379647731781005859375">
        <ele>1391.800048828125</ele>
        <time>2020-08-12T08:54:57.000Z</time>
      </trkpt>
      <trkpt lat="42.368338219821453094482421875" lon="1.2874241173267364501953125">
        <ele>1392</ele>
        <time>2020-08-12T08:55:00.000Z</time>
      </trkpt>
      <trkpt lat="42.3683420754969120025634765625" lon="1.2873649410903453826904296875">
        <ele>1392.4000244140625</ele>
        <time>2020-08-12T08:55:03.000Z</time>
      </trkpt>
      <trkpt lat="42.36835640855133533477783203125" lon="1.28723275847733020782470703125">
        <ele>1392.800048828125</ele>
        <time>2020-08-12T08:55:10.000Z</time>
      </trkpt>
      <trkpt lat="42.36836311407387256622314453125" lon="1.287177689373493194580078125">
        <ele>1393</ele>
        <time>2020-08-12T08:55:13.000Z</time>
      </trkpt>
      <trkpt lat="42.3683692328631877899169921875" lon="1.28704735077917575836181640625">
        <ele>1393.800048828125</ele>
        <time>2020-08-12T08:55:20.000Z</time>
      </trkpt>
      <trkpt lat="42.36837543547153472900390625" lon="1.28699303604662418365478515625">
        <ele>1394.199951171875</ele>
        <time>2020-08-12T08:55:23.000Z</time>
      </trkpt>
      <trkpt lat="42.36838004551827907562255859375" lon="1.2869220413267612457275390625">
        <ele>1394.5999755859375</ele>
        <time>2020-08-12T08:55:27.000Z</time>
      </trkpt>
      <trkpt lat="42.3683876730501651763916015625" lon="1.28682942129671573638916015625">
        <ele>1395.199951171875</ele>
        <time>2020-08-12T08:55:32.000Z</time>
      </trkpt>
      <trkpt lat="42.36839731223881244659423828125" lon="1.2867775373160839080810546875">
        <ele>1395.800048828125</ele>
        <time>2020-08-12T08:55:35.000Z</time>
      </trkpt>
      <trkpt lat="42.36841441132128238677978515625" lon="1.28663957118988037109375">
        <ele>1396.199951171875</ele>
        <time>2020-08-12T08:55:43.000Z</time>
      </trkpt>
      <trkpt lat="42.36841692589223384857177734375" lon="1.28661819733679294586181640625">
        <ele>1396.199951171875</ele>
        <time>2020-08-12T08:55:44.000Z</time>
      </trkpt>
      <trkpt lat="42.36844877712428569793701171875" lon="1.28644980490207672119140625">
        <ele>1397</ele>
        <time>2020-08-12T08:55:51.000Z</time>
      </trkpt>
      <trkpt lat="42.3684507049620151519775390625" lon="1.28643731586635112762451171875">
        <ele>1397.199951171875</ele>
        <time>2020-08-12T08:55:52.000Z</time>
      </trkpt>
      <trkpt lat="42.3684512078762054443359375" lon="1.28643496893346309661865234375">
        <ele>1397.4000244140625</ele>
        <time>2020-08-12T08:55:55.000Z</time>
      </trkpt>
      <trkpt lat="42.3684510402381420135498046875" lon="1.28643429838120937347412109375">
        <ele>1397.800048828125</ele>
        <time>2020-08-12T08:56:12.000Z</time>
      </trkpt>
      <trkpt lat="42.36845263279974460601806640625" lon="1.28642164170742034912109375">
        <ele>1397.4000244140625</ele>
        <time>2020-08-12T08:56:25.000Z</time>
      </trkpt>
      <trkpt lat="42.36848666332662105560302734375" lon="1.2862466275691986083984375">
        <ele>1397.800048828125</ele>
        <time>2020-08-12T08:56:33.000Z</time>
      </trkpt>
      <trkpt lat="42.36849990673363208770751953125" lon="1.28617630340158939361572265625">
        <ele>1398</ele>
        <time>2020-08-12T08:56:36.000Z</time>
      </trkpt>
      <trkpt lat="42.36852538771927356719970703125" lon="1.2860315479338169097900390625">
        <ele>1399.4000244140625</ele>
        <time>2020-08-12T08:56:42.000Z</time>
      </trkpt>
      <trkpt lat="42.36858506686985492706298828125" lon="1.285818479955196380615234375">
        <ele>1400.4000244140625</ele>
        <time>2020-08-12T08:56:51.000Z</time>
      </trkpt>
      <trkpt lat="42.3685968853533267974853515625" lon="1.28579190932214260101318359375">
        <ele>1400.4000244140625</ele>
        <time>2020-08-12T08:56:52.000Z</time>
      </trkpt>
      <trkpt lat="42.36863351427018642425537109375" lon="1.28562259487807750701904296875">
        <ele>1401.199951171875</ele>
        <time>2020-08-12T08:56:58.000Z</time>
      </trkpt>
      <trkpt lat="42.36864089034497737884521484375" lon="1.28557733260095119476318359375">
        <ele>1401.5999755859375</ele>
        <time>2020-08-12T08:57:00.000Z</time>
      </trkpt>
      <trkpt lat="42.3686709813773632049560546875" lon="1.2854354269802570343017578125">
        <ele>1402.800048828125</ele>
        <time>2020-08-12T08:57:07.000Z</time>
      </trkpt>
      <trkpt lat="42.36867559142410755157470703125" lon="1.28541589714586734771728515625">
        <ele>1403</ele>
        <time>2020-08-12T08:57:08.000Z</time>
      </trkpt>
      <trkpt lat="42.3687008209526538848876953125" lon="1.28528044559061527252197265625">
        <ele>1403.800048828125</ele>
        <time>2020-08-12T08:57:15.000Z</time>
      </trkpt>
      <trkpt lat="42.36870534718036651611328125" lon="1.285261251032352447509765625">
        <ele>1404</ele>
        <time>2020-08-12T08:57:16.000Z</time>
      </trkpt>
      <trkpt lat="42.36873744986951351165771484375" lon="1.28518246114253997802734375">
        <ele>1404.800048828125</ele>
        <time>2020-08-12T08:57:21.000Z</time>
      </trkpt>
      <trkpt lat="42.36875253729522228240966796875" lon="1.28515538759529590606689453125">
        <ele>1405</ele>
        <time>2020-08-12T08:57:23.000Z</time>
      </trkpt>
      <trkpt lat="42.368794195353984832763671875" lon="1.28507089801132678985595703125">
        <ele>1405.5999755859375</ele>
        <time>2020-08-12T08:57:29.000Z</time>
      </trkpt>
      <trkpt lat="42.368809618055820465087890625" lon="1.28504575230181217193603515625">
        <ele>1405.800048828125</ele>
        <time>2020-08-12T08:57:31.000Z</time>
      </trkpt>
      <trkpt lat="42.36887088976800441741943359375" lon="1.2849616818130016326904296875">
        <ele>1406.5999755859375</ele>
        <time>2020-08-12T08:57:38.000Z</time>
      </trkpt>
      <trkpt lat="42.3689197562634944915771484375" lon="1.28490141592919826507568359375">
        <ele>1407.5999755859375</ele>
        <time>2020-08-12T08:57:43.000Z</time>
      </trkpt>
      <trkpt lat="42.368931658565998077392578125" lon="1.284891106188297271728515625">
        <ele>1407.800048828125</ele>
        <time>2020-08-12T08:57:44.000Z</time>
      </trkpt>
      <trkpt lat="42.36899242736399173736572265625" lon="1.2848493643105030059814453125">
        <ele>1408.4000244140625</ele>
        <time>2020-08-12T08:57:49.000Z</time>
      </trkpt>
      <trkpt lat="42.3690595664083957672119140625" lon="1.2848242186009883880615234375">
        <ele>1408.5999755859375</ele>
        <time>2020-08-12T08:57:54.000Z</time>
      </trkpt>
      <trkpt lat="42.3691003024578094482421875" lon="1.28481240011751651763916015625">
        <ele>1409.4000244140625</ele>
        <time>2020-08-12T08:57:57.000Z</time>
      </trkpt>
      <trkpt lat="42.3691485822200775146484375" lon="1.28478272818028926849365234375">
        <ele>1409.800048828125</ele>
        <time>2020-08-12T08:58:01.000Z</time>
      </trkpt>
      <trkpt lat="42.36922075040638446807861328125" lon="1.2847454287111759185791015625">
        <ele>1410.800048828125</ele>
        <time>2020-08-12T08:58:07.000Z</time>
      </trkpt>
      <trkpt lat="42.36923114396631717681884765625" lon="1.2847363762557506561279296875">
        <ele>1410.800048828125</ele>
        <time>2020-08-12T08:58:08.000Z</time>
      </trkpt>
      <trkpt lat="42.369301803410053253173828125" lon="1.2846817262470722198486328125">
        <ele>1411.800048828125</ele>
        <time>2020-08-12T08:58:14.000Z</time>
      </trkpt>
      <trkpt lat="42.36931278370320796966552734375" lon="1.28467141650617122650146484375">
        <ele>1412</ele>
        <time>2020-08-12T08:58:15.000Z</time>
      </trkpt>
      <trkpt lat="42.3693975247442722320556640625" lon="1.284593380987644195556640625">
        <ele>1413</ele>
        <time>2020-08-12T08:58:23.000Z</time>
      </trkpt>
      <trkpt lat="42.36941814422607421875" lon="1.284570582211017608642578125">
        <ele>1413.199951171875</ele>
        <time>2020-08-12T08:58:25.000Z</time>
      </trkpt>
      <trkpt lat="42.36945812590420246124267578125" lon="1.284524984657764434814453125">
        <ele>1414.199951171875</ele>
        <time>2020-08-12T08:58:29.000Z</time>
      </trkpt>
      <trkpt lat="42.36949785612523555755615234375" lon="1.28448014147579669952392578125">
        <ele>1414.5999755859375</ele>
        <time>2020-08-12T08:58:33.000Z</time>
      </trkpt>
      <trkpt lat="42.36953624524176120758056640625" lon="1.2844332866370677947998046875">
        <ele>1415.199951171875</ele>
        <time>2020-08-12T08:58:37.000Z</time>
      </trkpt>
      <trkpt lat="42.36958854831755161285400390625" lon="1.28436111845076084136962890625">
        <ele>1415.800048828125</ele>
        <time>2020-08-12T08:58:43.000Z</time>
      </trkpt>
      <trkpt lat="42.36961587332189083099365234375" lon="1.28432289697229862213134765625">
        <ele>1416</ele>
        <time>2020-08-12T08:58:46.000Z</time>
      </trkpt>
      <trkpt lat="42.36966021358966827392578125" lon="1.28423941321671009063720703125">
        <ele>1417.199951171875</ele>
        <time>2020-08-12T08:58:52.000Z</time>
      </trkpt>
      <trkpt lat="42.3697274364531040191650390625" lon="1.28413581289350986480712890625">
        <ele>1417.800048828125</ele>
        <time>2020-08-12T08:59:00.000Z</time>
      </trkpt>
      <trkpt lat="42.36975132487714290618896484375" lon="1.2840963341295719146728515625">
        <ele>1418.199951171875</ele>
        <time>2020-08-12T08:59:03.000Z</time>
      </trkpt>
      <trkpt lat="42.36978367902338504791259765625" lon="1.28404788672924041748046875">
        <ele>1418.5999755859375</ele>
        <time>2020-08-12T08:59:07.000Z</time>
      </trkpt>
      <trkpt lat="42.36980161629617214202880859375" lon="1.28399935550987720489501953125">
        <ele>1419.199951171875</ele>
        <time>2020-08-12T08:59:10.000Z</time>
      </trkpt>
      <trkpt lat="42.36985090188682079315185546875" lon="1.2839189730584621429443359375">
        <ele>1420</ele>
        <time>2020-08-12T08:59:16.000Z</time>
      </trkpt>
      <trkpt lat="42.36988476477563381195068359375" lon="1.2838701903820037841796875">
        <ele>1420.199951171875</ele>
        <time>2020-08-12T08:59:20.000Z</time>
      </trkpt>
      <trkpt lat="42.3699299432337284088134765625" lon="1.28378771245479583740234375">
        <ele>1421</ele>
        <time>2020-08-12T08:59:26.000Z</time>
      </trkpt>
      <trkpt lat="42.36994528211653232574462890625" lon="1.28375954926013946533203125">
        <ele>1421.4000244140625</ele>
        <time>2020-08-12T08:59:28.000Z</time>
      </trkpt>
      <trkpt lat="42.36998610198497772216796875" lon="1.283678077161312103271484375">
        <ele>1422.199951171875</ele>
        <time>2020-08-12T08:59:34.000Z</time>
      </trkpt>
      <trkpt lat="42.37004108726978302001953125" lon="1.2835665978491306304931640625">
        <ele>1423</ele>
        <time>2020-08-12T08:59:42.000Z</time>
      </trkpt>
      <trkpt lat="42.3700486309826374053955078125" lon="1.28355293534696102142333984375">
        <ele>1423.199951171875</ele>
        <time>2020-08-12T08:59:43.000Z</time>
      </trkpt>
      <trkpt lat="42.37010286189615726470947265625" lon="1.28349132835865020751953125">
        <ele>1424.199951171875</ele>
        <time>2020-08-12T08:59:49.000Z</time>
      </trkpt>
      <trkpt lat="42.37011442892253398895263671875" lon="1.28348638303577899932861328125">
        <ele>1424.4000244140625</ele>
        <time>2020-08-12T08:59:50.000Z</time>
      </trkpt>
      <trkpt lat="42.37018500454723834991455078125" lon="1.2834958545863628387451171875">
        <ele>1425</ele>
        <time>2020-08-12T08:59:56.000Z</time>
      </trkpt>
      <trkpt lat="42.37020461820065975189208984375" lon="1.28354237414896488189697265625">
        <ele>1425.4000244140625</ele>
        <time>2020-08-12T08:59:59.000Z</time>
      </trkpt>
      <trkpt lat="42.3702199570834636688232421875" lon="1.2836145423352718353271484375">
        <ele>1425.5999755859375</ele>
        <time>2020-08-12T09:00:03.000Z</time>
      </trkpt>
      <trkpt lat="42.370190285146236419677734375" lon="1.28371931612491607666015625">
        <ele>1426.4000244140625</ele>
        <time>2020-08-12T09:00:09.000Z</time>
      </trkpt>
      <trkpt lat="42.370107136666774749755859375" lon="1.2838596291840076446533203125">
        <ele>1427.199951171875</ele>
        <time>2020-08-12T09:00:18.000Z</time>
      </trkpt>
      <trkpt lat="42.37004670314490795135498046875" lon="1.28393925726413726806640625">
        <ele>1427.4000244140625</ele>
        <time>2020-08-12T09:00:23.000Z</time>
      </trkpt>
      <trkpt lat="42.3700047098100185394287109375" lon="1.28400874324142932891845703125">
        <ele>1427.800048828125</ele>
        <time>2020-08-12T09:00:27.000Z</time>
      </trkpt>
      <trkpt lat="42.36996120773255825042724609375" lon="1.28412810154259204864501953125">
        <ele>1428.4000244140625</ele>
        <time>2020-08-12T09:00:33.000Z</time>
      </trkpt>
      <trkpt lat="42.369895242154598236083984375" lon="1.28422566689550876617431640625">
        <ele>1428.199951171875</ele>
        <time>2020-08-12T09:00:38.000Z</time>
      </trkpt>
      <trkpt lat="42.3698722757399082183837890625" lon="1.284254752099514007568359375">
        <ele>1428.4000244140625</ele>
        <time>2020-08-12T09:00:40.000Z</time>
      </trkpt>
      <trkpt lat="42.3698196373879909515380859375" lon="1.28432926721870899200439453125">
        <ele>1429</ele>
        <time>2020-08-12T09:00:45.000Z</time>
      </trkpt>
      <trkpt lat="42.36973791383206844329833984375" lon="1.28447259776294231414794921875">
        <ele>1429.4000244140625</ele>
        <time>2020-08-12T09:00:54.000Z</time>
      </trkpt>
      <trkpt lat="42.36964453943073749542236328125" lon="1.28464258275926113128662109375">
        <ele>1429.800048828125</ele>
        <time>2020-08-12T09:01:04.000Z</time>
      </trkpt>
      <trkpt lat="42.36955233849585056304931640625" lon="1.28482572734355926513671875">
        <ele>1430</ele>
        <time>2020-08-12T09:01:14.000Z</time>
      </trkpt>
      <trkpt lat="42.3695453815162181854248046875" lon="1.28484458662569522857666015625">
        <ele>1430.199951171875</ele>
        <time>2020-08-12T09:01:15.000Z</time>
      </trkpt>
      <trkpt lat="42.36948662437498569488525390625" lon="1.2849398888647556304931640625">
        <ele>1430.800048828125</ele>
        <time>2020-08-12T09:01:20.000Z</time>
      </trkpt>
      <trkpt lat="42.369419820606708526611328125" lon="1.28512085415422916412353515625">
        <ele>1431</ele>
        <time>2020-08-12T09:01:28.000Z</time>
      </trkpt>
      <trkpt lat="42.36937229521572589874267578125" lon="1.28521188162267208099365234375">
        <ele>1431.199951171875</ele>
        <time>2020-08-12T09:01:32.000Z</time>
      </trkpt>
      <trkpt lat="42.3693287931382656097412109375" lon="1.2853398732841014862060546875">
        <ele>1431.199951171875</ele>
        <time>2020-08-12T09:01:37.000Z</time>
      </trkpt>
      <trkpt lat="42.3692637495696544647216796875" lon="1.285603232681751251220703125">
        <ele>1431.5999755859375</ele>
        <time>2020-08-12T09:01:47.000Z</time>
      </trkpt>
      <trkpt lat="42.3692677728831768035888671875" lon="1.2858095951378345489501953125">
        <ele>1431.800048828125</ele>
        <time>2020-08-12T09:01:55.000Z</time>
      </trkpt>
      <trkpt lat="42.3692785017192363739013671875" lon="1.285885535180568695068359375">
        <ele>1432.199951171875</ele>
        <time>2020-08-12T09:01:58.000Z</time>
      </trkpt>
      <trkpt lat="42.36930490471422672271728515625" lon="1.286004222929477691650390625">
        <ele>1432.800048828125</ele>
        <time>2020-08-12T09:02:03.000Z</time>
      </trkpt>
      <trkpt lat="42.3693381808698177337646484375" lon="1.28613422624766826629638671875">
        <ele>1433</ele>
        <time>2020-08-12T09:02:09.000Z</time>
      </trkpt>
      <trkpt lat="42.3693650029599666595458984375" lon="1.28624193370342254638671875">
        <ele>1433.5999755859375</ele>
        <time>2020-08-12T09:02:14.000Z</time>
      </trkpt>
      <trkpt lat="42.36937765963375568389892578125" lon="1.2863047979772090911865234375">
        <ele>1434</ele>
        <time>2020-08-12T09:02:17.000Z</time>
      </trkpt>
      <trkpt lat="42.3694062419235706329345703125" lon="1.28640630282461643218994140625">
        <ele>1434.5999755859375</ele>
        <time>2020-08-12T09:02:22.000Z</time>
      </trkpt>
      <trkpt lat="42.36942342482507228851318359375" lon="1.2864945642650127410888671875">
        <ele>1435</ele>
        <time>2020-08-12T09:02:26.000Z</time>
      </trkpt>
      <trkpt lat="42.36942292191088199615478515625" lon="1.28656488843262195587158203125">
        <ele>1435.199951171875</ele>
        <time>2020-08-12T09:02:29.000Z</time>
      </trkpt>
      <trkpt lat="42.36941353417932987213134765625" lon="1.286713667213916778564453125">
        <ele>1436</ele>
        <time>2020-08-12T09:02:35.000Z</time>
      </trkpt>
      <trkpt lat="42.3694213293492794036865234375" lon="1.28676169551908969879150390625">
        <ele>1436.4000244140625</ele>
        <time>2020-08-12T09:02:37.000Z</time>
      </trkpt>
      <trkpt lat="42.36942761577665805816650390625" lon="1.2868072092533111572265625">
        <ele>1437</ele>
        <time>2020-08-12T09:02:39.000Z</time>
      </trkpt>
      <trkpt lat="42.36943197436630725860595703125" lon="1.28691759891808032989501953125">
        <ele>1437.5999755859375</ele>
        <time>2020-08-12T09:02:44.000Z</time>
      </trkpt>
      <trkpt lat="42.36941303126513957977294921875" lon="1.28711222670972347259521484375">
        <ele>1438</ele>
        <time>2020-08-12T09:02:53.000Z</time>
      </trkpt>
      <trkpt lat="42.36940850503742694854736328125" lon="1.28713418729603290557861328125">
        <ele>1438</ele>
        <time>2020-08-12T09:02:54.000Z</time>
      </trkpt>
      <trkpt lat="42.3693556152284145355224609375" lon="1.287345327436923980712890625">
        <ele>1438.800048828125</ele>
        <time>2020-08-12T09:03:04.000Z</time>
      </trkpt>
      <trkpt lat="42.36934932880103588104248046875" lon="1.2873659469187259674072265625">
        <ele>1438.800048828125</ele>
        <time>2020-08-12T09:03:05.000Z</time>
      </trkpt>
      <trkpt lat="42.36929836682975292205810546875" lon="1.28754791803658008575439453125">
        <ele>1439.800048828125</ele>
        <time>2020-08-12T09:03:14.000Z</time>
      </trkpt>
      <trkpt lat="42.3692956008017063140869140625" lon="1.28756987862288951873779296875">
        <ele>1439.800048828125</ele>
        <time>2020-08-12T09:03:15.000Z</time>
      </trkpt>
      <trkpt lat="42.3693110235035419464111328125" lon="1.28769627772271633148193359375">
        <ele>1440.5999755859375</ele>
        <time>2020-08-12T09:03:21.000Z</time>
      </trkpt>
      <trkpt lat="42.3693458922207355499267578125" lon="1.28773231990635395050048828125">
        <ele>1441</ele>
        <time>2020-08-12T09:03:24.000Z</time>
      </trkpt>
      <trkpt lat="42.36938931047916412353515625" lon="1.28774103708565235137939453125">
        <ele>1441</ele>
        <time>2020-08-12T09:03:27.000Z</time>
      </trkpt>
      <trkpt lat="42.36944437958300113677978515625" lon="1.28769476898014545440673828125">
        <ele>1442</ele>
        <time>2020-08-12T09:03:32.000Z</time>
      </trkpt>
      <trkpt lat="42.36948679201304912567138671875" lon="1.287553869187831878662109375">
        <ele>1442.5999755859375</ele>
        <time>2020-08-12T09:03:40.000Z</time>
      </trkpt>
      <trkpt lat="42.36949391663074493408203125" lon="1.2874591536819934844970703125">
        <ele>1443</ele>
        <time>2020-08-12T09:03:45.000Z</time>
      </trkpt>
      <trkpt lat="42.36949014477431774139404296875" lon="1.28742034547030925750732421875">
        <ele>1443.800048828125</ele>
        <time>2020-08-12T09:03:47.000Z</time>
      </trkpt>
      <trkpt lat="42.3694903962314128875732421875" lon="1.2873998098075389862060546875">
        <ele>1444</ele>
        <time>2020-08-12T09:03:48.000Z</time>
      </trkpt>
      <trkpt lat="42.36950372345745563507080078125" lon="1.28726410679519176483154296875">
        <ele>1444.4000244140625</ele>
        <time>2020-08-12T09:03:55.000Z</time>
      </trkpt>
      <trkpt lat="42.36953590996563434600830078125" lon="1.287160255014896392822265625">
        <ele>1445.199951171875</ele>
        <time>2020-08-12T09:04:01.000Z</time>
      </trkpt>
      <trkpt lat="42.36954479478299617767333984375" lon="1.2871265597641468048095703125">
        <ele>1445.4000244140625</ele>
        <time>2020-08-12T09:04:03.000Z</time>
      </trkpt>
      <trkpt lat="42.3695742152631282806396484375" lon="1.28704433329403400421142578125">
        <ele>1446.199951171875</ele>
        <time>2020-08-12T09:04:08.000Z</time>
      </trkpt>
      <trkpt lat="42.36958921886980533599853515625" lon="1.2869937904179096221923828125">
        <ele>1446.800048828125</ele>
        <time>2020-08-12T09:04:11.000Z</time>
      </trkpt>
      <trkpt lat="42.3696161247789859771728515625" lon="1.286926567554473876953125">
        <ele>1447.4000244140625</ele>
        <time>2020-08-12T09:04:15.000Z</time>
      </trkpt>
      <trkpt lat="42.36963766627013683319091796875" lon="1.2868528068065643310546875">
        <ele>1448</ele>
        <time>2020-08-12T09:04:19.000Z</time>
      </trkpt>
      <trkpt lat="42.369674630463123321533203125" lon="1.2867111526429653167724609375">
        <ele>1448.199951171875</ele>
        <time>2020-08-12T09:04:26.000Z</time>
      </trkpt>
      <trkpt lat="42.36967563629150390625" lon="1.28669044934213161468505859375">
        <ele>1448.4000244140625</ele>
        <time>2020-08-12T09:04:27.000Z</time>
      </trkpt>
      <trkpt lat="42.3696660809218883514404296875" lon="1.2865512259304523468017578125">
        <ele>1449.199951171875</ele>
        <time>2020-08-12T09:04:34.000Z</time>
      </trkpt>
      <trkpt lat="42.36966348253190517425537109375" lon="1.28653270192444324493408203125">
        <ele>1449.5999755859375</ele>
        <time>2020-08-12T09:04:35.000Z</time>
      </trkpt>
      <trkpt lat="42.3696456290781497955322265625" lon="1.286459863185882568359375">
        <ele>1450.4000244140625</ele>
        <time>2020-08-12T09:04:39.000Z</time>
      </trkpt>
      <trkpt lat="42.36964319832623004913330078125" lon="1.28639842383563518524169921875">
        <ele>1450.800048828125</ele>
        <time>2020-08-12T09:04:42.000Z</time>
      </trkpt>
      <trkpt lat="42.3696367442607879638671875" lon="1.286298595368862152099609375">
        <ele>1451.5999755859375</ele>
        <time>2020-08-12T09:04:47.000Z</time>
      </trkpt>
      <trkpt lat="42.36963448114693164825439453125" lon="1.28622441552579402923583984375">
        <ele>1452.199951171875</ele>
        <time>2020-08-12T09:04:51.000Z</time>
      </trkpt>
      <trkpt lat="42.3696332238614559173583984375" lon="1.28616641275584697723388671875">
        <ele>1452.5999755859375</ele>
        <time>2020-08-12T09:04:54.000Z</time>
      </trkpt>
      <trkpt lat="42.369638420641422271728515625" lon="1.286057867109775543212890625">
        <ele>1453.5999755859375</ele>
        <time>2020-08-12T09:05:00.000Z</time>
      </trkpt>
      <trkpt lat="42.369662225246429443359375" lon="1.2859172187745571136474609375">
        <ele>1454.5999755859375</ele>
        <time>2020-08-12T09:05:08.000Z</time>
      </trkpt>
      <trkpt lat="42.36970053054392337799072265625" lon="1.285822503268718719482421875">
        <ele>1455.5999755859375</ele>
        <time>2020-08-12T09:05:14.000Z</time>
      </trkpt>
      <trkpt lat="42.36970857717096805572509765625" lon="1.28580800257623195648193359375">
        <ele>1455.800048828125</ele>
        <time>2020-08-12T09:05:15.000Z</time>
      </trkpt>
      <trkpt lat="42.36975610256195068359375" lon="1.28572368063032627105712890625">
        <ele>1456.800048828125</ele>
        <time>2020-08-12T09:05:21.000Z</time>
      </trkpt>
      <trkpt lat="42.36979021690785884857177734375" lon="1.2856711260974407196044921875">
        <ele>1457</ele>
        <time>2020-08-12T09:05:24.000Z</time>
      </trkpt>
      <trkpt lat="42.36987319774925708770751953125" lon="1.28554196096956729888916015625">
        <ele>1458</ele>
        <time>2020-08-12T09:05:32.000Z</time>
      </trkpt>
      <trkpt lat="42.3699423484504222869873046875" lon="1.28540868870913982391357421875">
        <ele>1458.800048828125</ele>
        <time>2020-08-12T09:05:40.000Z</time>
      </trkpt>
      <trkpt lat="42.36995123326778411865234375" lon="1.28539276309311389923095703125">
        <ele>1459</ele>
        <time>2020-08-12T09:05:41.000Z</time>
      </trkpt>
      <trkpt lat="42.36998266540467739105224609375" lon="1.2853264622390270233154296875">
        <ele>1460</ele>
        <time>2020-08-12T09:05:45.000Z</time>
      </trkpt>
      <trkpt lat="42.37001149915158748626708984375" lon="1.28527910448610782623291015625">
        <ele>1460.4000244140625</ele>
        <time>2020-08-12T09:05:48.000Z</time>
      </trkpt>
      <trkpt lat="42.3700942285358905792236328125" lon="1.2851541303098201751708984375">
        <ele>1461</ele>
        <time>2020-08-12T09:05:56.000Z</time>
      </trkpt>
      <trkpt lat="42.3701314441859722137451171875" lon="1.2851115502417087554931640625">
        <ele>1461.199951171875</ele>
        <time>2020-08-12T09:05:59.000Z</time>
      </trkpt>
      <trkpt lat="42.3701857589185237884521484375" lon="1.28503183834254741668701171875">
        <ele>1461.5999755859375</ele>
        <time>2020-08-12T09:06:04.000Z</time>
      </trkpt>
      <trkpt lat="42.37024937756359577178955078125" lon="1.2849435769021511077880859375">
        <ele>1461.5999755859375</ele>
        <time>2020-08-12T09:06:10.000Z</time>
      </trkpt>
      <trkpt lat="42.37031391821801662445068359375" lon="1.284863948822021484375">
        <ele>1462</ele>
        <time>2020-08-12T09:06:16.000Z</time>
      </trkpt>
      <trkpt lat="42.37035264261066913604736328125" lon="1.28482681699097156524658203125">
        <ele>1462.4000244140625</ele>
        <time>2020-08-12T09:06:19.000Z</time>
      </trkpt>
      <trkpt lat="42.37043830566108226776123046875" lon="1.2847380526363849639892578125">
        <ele>1463</ele>
        <time>2020-08-12T09:06:26.000Z</time>
      </trkpt>
      <trkpt lat="42.3704519681632518768310546875" lon="1.28472371958196163177490234375">
        <ele>1463.199951171875</ele>
        <time>2020-08-12T09:06:27.000Z</time>
      </trkpt>
      <trkpt lat="42.370519526302814483642578125" lon="1.28463671542704105377197265625">
        <ele>1463.800048828125</ele>
        <time>2020-08-12T09:06:33.000Z</time>
      </trkpt>
      <trkpt lat="42.3705431632697582244873046875" lon="1.28460846841335296630859375">
        <ele>1464.199951171875</ele>
        <time>2020-08-12T09:06:35.000Z</time>
      </trkpt>
      <trkpt lat="42.370606362819671630859375" lon="1.28449003212153911590576171875">
        <ele>1464.199951171875</ele>
        <time>2020-08-12T09:06:42.000Z</time>
      </trkpt>
      <trkpt lat="42.370657660067081451416015625" lon="1.28439498133957386016845703125">
        <ele>1465</ele>
        <time>2020-08-12T09:06:48.000Z</time>
      </trkpt>
      <trkpt lat="42.37066780216991901397705078125" lon="1.28438073210418224334716796875">
        <ele>1465.199951171875</ele>
        <time>2020-08-12T09:06:49.000Z</time>
      </trkpt>
      <trkpt lat="42.370702922344207763671875" lon="1.28427679650485515594482421875">
        <ele>1466</ele>
        <time>2020-08-12T09:06:55.000Z</time>
      </trkpt>
      <trkpt lat="42.3707101307809352874755859375" lon="1.2842626310884952545166015625">
        <ele>1466.199951171875</ele>
        <time>2020-08-12T09:06:56.000Z</time>
      </trkpt>
      <trkpt lat="42.37072949297726154327392578125" lon="1.2842324562370777130126953125">
        <ele>1466.4000244140625</ele>
        <time>2020-08-12T09:06:58.000Z</time>
      </trkpt>
      <trkpt lat="42.37075145356357097625732421875" lon="1.28418711014091968536376953125">
        <ele>1467</ele>
        <time>2020-08-12T09:07:01.000Z</time>
      </trkpt>
      <trkpt lat="42.37075782380998134613037109375" lon="1.28417286090552806854248046875">
        <ele>1467</ele>
        <time>2020-08-12T09:07:02.000Z</time>
      </trkpt>
      <trkpt lat="42.37081834115087985992431640625" lon="1.2840460427105426788330078125">
        <ele>1467.5999755859375</ele>
        <time>2020-08-12T09:07:10.000Z</time>
      </trkpt>
      <trkpt lat="42.37087081186473369598388671875" lon="1.2839333899319171905517578125">
        <ele>1468.199951171875</ele>
        <time>2020-08-12T09:07:16.000Z</time>
      </trkpt>
      <trkpt lat="42.370885647833347320556640625" lon="1.283892653882503509521484375">
        <ele>1468.199951171875</ele>
        <time>2020-08-12T09:07:18.000Z</time>
      </trkpt>
      <trkpt lat="42.3709094524383544921875" lon="1.28381721675395965576171875">
        <ele>1469.199951171875</ele>
        <time>2020-08-12T09:07:22.000Z</time>
      </trkpt>
      <trkpt lat="42.37092143855988979339599609375" lon="1.28375929780304431915283203125">
        <ele>1469.800048828125</ele>
        <time>2020-08-12T09:07:25.000Z</time>
      </trkpt>
      <trkpt lat="42.37092881463468074798583984375" lon="1.28372065722942352294921875">
        <ele>1470.4000244140625</ele>
        <time>2020-08-12T09:07:27.000Z</time>
      </trkpt>
      <trkpt lat="42.37095999531447887420654296875" lon="1.28361378796398639678955078125">
        <ele>1471</ele>
        <time>2020-08-12T09:07:33.000Z</time>
      </trkpt>
      <trkpt lat="42.37099218182265758514404296875" lon="1.2835551984608173370361328125">
        <ele>1471.4000244140625</ele>
        <time>2020-08-12T09:07:37.000Z</time>
      </trkpt>
      <trkpt lat="42.37106342799961566925048828125" lon="1.28346442244946956634521484375">
        <ele>1471.800048828125</ele>
        <time>2020-08-12T09:07:44.000Z</time>
      </trkpt>
      <trkpt lat="42.3710883222520351409912109375" lon="1.28344480879604816436767578125">
        <ele>1472.199951171875</ele>
        <time>2020-08-12T09:07:46.000Z</time>
      </trkpt>
      <trkpt lat="42.37115143798291683197021484375" lon="1.283407174050807952880859375">
        <ele>1473.4000244140625</ele>
        <time>2020-08-12T09:07:51.000Z</time>
      </trkpt>
      <trkpt lat="42.37116417847573757171630859375" lon="1.28340281546115875244140625">
        <ele>1473.5999755859375</ele>
        <time>2020-08-12T09:07:52.000Z</time>
      </trkpt>
      <trkpt lat="42.37123106606304645538330078125" lon="1.2833828665316104888916015625">
        <ele>1474.5999755859375</ele>
        <time>2020-08-12T09:07:57.000Z</time>
      </trkpt>
      <trkpt lat="42.3712589778006076812744140625" lon="1.28337255679070949554443359375">
        <ele>1475</ele>
        <time>2020-08-12T09:07:59.000Z</time>
      </trkpt>
      <trkpt lat="42.37129812128841876983642578125" lon="1.28332729451358318328857421875">
        <ele>1475.5999755859375</ele>
        <time>2020-08-12T09:08:03.000Z</time>
      </trkpt>
      <trkpt lat="42.371307425200939178466796875" lon="1.283314637839794158935546875">
        <ele>1475.800048828125</ele>
        <time>2020-08-12T09:08:04.000Z</time>
      </trkpt>
      <trkpt lat="42.37133818678557872772216796875" lon="1.2832511030137538909912109375">
        <ele>1476.4000244140625</ele>
        <time>2020-08-12T09:08:08.000Z</time>
      </trkpt>
      <trkpt lat="42.3713689483702182769775390625" lon="1.28318689763545989990234375">
        <ele>1477</ele>
        <time>2020-08-12T09:08:12.000Z</time>
      </trkpt>
      <trkpt lat="42.37138361670076847076416015625" lon="1.28316015936434268951416015625">
        <ele>1477.199951171875</ele>
        <time>2020-08-12T09:08:14.000Z</time>
      </trkpt>
      <trkpt lat="42.3713873885571956634521484375" lon="1.28313886933028697967529296875">
        <ele>1477.5999755859375</ele>
        <time>2020-08-12T09:08:17.000Z</time>
      </trkpt>
      <trkpt lat="42.3713748157024383544921875" lon="1.2831592373549938201904296875">
        <ele>1478.5999755859375</ele>
        <time>2020-08-12T09:12:35.000Z</time>
      </trkpt>
      <trkpt lat="42.37137573771178722381591796875" lon="1.2831580638885498046875">
        <ele>1478.4000244140625</ele>
        <time>2020-08-12T09:12:37.000Z</time>
      </trkpt>
      <trkpt lat="42.37134992145001888275146484375" lon="1.28306695260107517242431640625">
        <ele>1478.5999755859375</ele>
        <time>2020-08-12T09:12:43.000Z</time>
      </trkpt>
      <trkpt lat="42.3713364265859127044677734375" lon="1.28293183632194995880126953125">
        <ele>1479.199951171875</ele>
        <time>2020-08-12T09:12:50.000Z</time>
      </trkpt>
      <trkpt lat="42.371335923671722412109375" lon="1.28289009444415569305419921875">
        <ele>1479.5999755859375</ele>
        <time>2020-08-12T09:12:52.000Z</time>
      </trkpt>
      <trkpt lat="42.37133516930043697357177734375" lon="1.28275749273598194122314453125">
        <ele>1479.800048828125</ele>
        <time>2020-08-12T09:12:58.000Z</time>
      </trkpt>
      <trkpt lat="42.371355704963207244873046875" lon="1.282635033130645751953125">
        <ele>1480.5999755859375</ele>
        <time>2020-08-12T09:13:04.000Z</time>
      </trkpt>
      <trkpt lat="42.37139585427939891815185546875" lon="1.28254056908190250396728515625">
        <ele>1481.5999755859375</ele>
        <time>2020-08-12T09:13:10.000Z</time>
      </trkpt>
      <trkpt lat="42.37141982652246952056884765625" lon="1.28249614499509334564208984375">
        <ele>1482.199951171875</ele>
        <time>2020-08-12T09:13:13.000Z</time>
      </trkpt>
      <trkpt lat="42.3714785836637020111083984375" lon="1.28238902427256107330322265625">
        <ele>1482.5999755859375</ele>
        <time>2020-08-12T09:13:20.000Z</time>
      </trkpt>
      <trkpt lat="42.371555529534816741943359375" lon="1.28225524909794330596923828125">
        <ele>1483.5999755859375</ele>
        <time>2020-08-12T09:13:29.000Z</time>
      </trkpt>
      <trkpt lat="42.3715647496283054351806640625" lon="1.28224099986255168914794921875">
        <ele>1483.5999755859375</ele>
        <time>2020-08-12T09:13:30.000Z</time>
      </trkpt>
      <trkpt lat="42.37162216566503047943115234375" lon="1.28214041702449321746826171875">
        <ele>1484.5999755859375</ele>
        <time>2020-08-12T09:13:37.000Z</time>
      </trkpt>
      <trkpt lat="42.37163390032947063446044921875" lon="1.282117031514644622802734375">
        <ele>1484.800048828125</ele>
        <time>2020-08-12T09:13:39.000Z</time>
      </trkpt>
      <trkpt lat="42.3716445453464984893798828125" lon="1.28210462629795074462890625">
        <ele>1484.800048828125</ele>
        <time>2020-08-12T09:13:40.000Z</time>
      </trkpt>
      <trkpt lat="42.371672205626964569091796875" lon="1.28207654692232608795166015625">
        <ele>1484.800048828125</ele>
        <time>2020-08-12T09:13:42.000Z</time>
      </trkpt>
      <trkpt lat="42.3717045597732067108154296875" lon="1.28203262574970722198486328125">
        <ele>1485.199951171875</ele>
        <time>2020-08-12T09:13:45.000Z</time>
      </trkpt>
      <trkpt lat="42.371732890605926513671875" lon="1.28199390135705471038818359375">
        <ele>1485.4000244140625</ele>
        <time>2020-08-12T09:13:48.000Z</time>
      </trkpt>
      <trkpt lat="42.3717605508863925933837890625" lon="1.2819502316415309906005859375">
        <ele>1486</ele>
        <time>2020-08-12T09:13:51.000Z</time>
      </trkpt>
      <trkpt lat="42.37180103547871112823486328125" lon="1.2818987667560577392578125">
        <ele>1486.4000244140625</ele>
        <time>2020-08-12T09:13:55.000Z</time>
      </trkpt>
      <trkpt lat="42.3718524165451526641845703125" lon="1.2818405963480472564697265625">
        <ele>1487</ele>
        <time>2020-08-12T09:14:00.000Z</time>
      </trkpt>
      <trkpt lat="42.3718651570379734039306640625" lon="1.2818359024822711944580078125">
        <ele>1487</ele>
        <time>2020-08-12T09:14:01.000Z</time>
      </trkpt>
      <trkpt lat="42.37187747843563556671142578125" lon="1.28183363936841487884521484375">
        <ele>1487.199951171875</ele>
        <time>2020-08-12T09:14:02.000Z</time>
      </trkpt>
      <trkpt lat="42.37194604240357875823974609375" lon="1.28181067295372486114501953125">
        <ele>1487.4000244140625</ele>
        <time>2020-08-12T09:14:07.000Z</time>
      </trkpt>
      <trkpt lat="42.371975965797901153564453125" lon="1.2818077392876148223876953125">
        <ele>1487.199951171875</ele>
        <time>2020-08-12T09:14:09.000Z</time>
      </trkpt>
      <trkpt lat="42.3720267601311206817626953125" lon="1.2817996926605701446533203125">
        <ele>1487.5999755859375</ele>
        <time>2020-08-12T09:14:13.000Z</time>
      </trkpt>
      <trkpt lat="42.37205316312611103057861328125" lon="1.2818062305450439453125">
        <ele>1487.800048828125</ele>
        <time>2020-08-12T09:14:15.000Z</time>
      </trkpt>
      <trkpt lat="42.37207998521625995635986328125" lon="1.2818127684295177459716796875">
        <ele>1488</ele>
        <time>2020-08-12T09:14:17.000Z</time>
      </trkpt>
      <trkpt lat="42.37215592525899410247802734375" lon="1.28182374872267246246337890625">
        <ele>1488.4000244140625</ele>
        <time>2020-08-12T09:14:23.000Z</time>
      </trkpt>
      <trkpt lat="42.37222532741725444793701171875" lon="1.2818491458892822265625">
        <ele>1489.199951171875</ele>
        <time>2020-08-12T09:14:28.000Z</time>
      </trkpt>
      <trkpt lat="42.37225256860256195068359375" lon="1.28185677342116832733154296875">
        <ele>1489.5999755859375</ele>
        <time>2020-08-12T09:14:30.000Z</time>
      </trkpt>
      <trkpt lat="42.37233244813978672027587890625" lon="1.28186599351465702056884765625">
        <ele>1490.199951171875</ele>
        <time>2020-08-12T09:14:36.000Z</time>
      </trkpt>
      <trkpt lat="42.372347451746463775634765625" lon="1.2818704359233379364013671875">
        <ele>1490.4000244140625</ele>
        <time>2020-08-12T09:14:37.000Z</time>
      </trkpt>
      <trkpt lat="42.3724277503788471221923828125" lon="1.28188292495906352996826171875">
        <ele>1490.800048828125</ele>
        <time>2020-08-12T09:14:43.000Z</time>
      </trkpt>
      <trkpt lat="42.3724522255361080169677734375" lon="1.281878314912319183349609375">
        <ele>1491.199951171875</ele>
        <time>2020-08-12T09:14:45.000Z</time>
      </trkpt>
      <trkpt lat="42.37252120859920978546142578125" lon="1.28188057802617549896240234375">
        <ele>1491.5999755859375</ele>
        <time>2020-08-12T09:14:50.000Z</time>
      </trkpt>
      <trkpt lat="42.37253311090171337127685546875" lon="1.2818768061697483062744140625">
        <ele>1491.800048828125</ele>
        <time>2020-08-12T09:14:51.000Z</time>
      </trkpt>
      <trkpt lat="42.37258541397750377655029296875" lon="1.28186046145856380462646484375">
        <ele>1492.199951171875</ele>
        <time>2020-08-12T09:14:55.000Z</time>
      </trkpt>
      <trkpt lat="42.37262397073209285736083984375" lon="1.28183841705322265625">
        <ele>1493.199951171875</ele>
        <time>2020-08-12T09:14:58.000Z</time>
      </trkpt>
      <trkpt lat="42.37263604067265987396240234375" lon="1.2818302027881145477294921875">
        <ele>1493.4000244140625</ele>
        <time>2020-08-12T09:14:59.000Z</time>
      </trkpt>
      <trkpt lat="42.3726500384509563446044921875" lon="1.28182576037943363189697265625">
        <ele>1493.5999755859375</ele>
        <time>2020-08-12T09:15:00.000Z</time>
      </trkpt>
      <trkpt lat="42.37274517305195331573486328125" lon="1.28179013729095458984375">
        <ele>1493.199951171875</ele>
        <time>2020-08-12T09:15:07.000Z</time>
      </trkpt>
      <trkpt lat="42.3728465102612972259521484375" lon="1.28175728023052215576171875">
        <ele>1493.800048828125</ele>
        <time>2020-08-12T09:15:14.000Z</time>
      </trkpt>
      <trkpt lat="42.3729125596582889556884765625" lon="1.28172115422785282135009765625">
        <ele>1494.5999755859375</ele>
        <time>2020-08-12T09:15:19.000Z</time>
      </trkpt>
      <trkpt lat="42.37295329570770263671875" lon="1.2816883809864521026611328125">
        <ele>1495</ele>
        <time>2020-08-12T09:15:22.000Z</time>
      </trkpt>
      <trkpt lat="42.3730376176536083221435546875" lon="1.2816189788281917572021484375">
        <ele>1495.5999755859375</ele>
        <time>2020-08-12T09:15:28.000Z</time>
      </trkpt>
      <trkpt lat="42.3730516992509365081787109375" lon="1.28161109983921051025390625">
        <ele>1495.5999755859375</ele>
        <time>2020-08-12T09:15:29.000Z</time>
      </trkpt>
      <trkpt lat="42.37316695041954517364501953125" lon="1.28155301325023174285888671875">
        <ele>1496.199951171875</ele>
        <time>2020-08-12T09:15:37.000Z</time>
      </trkpt>
      <trkpt lat="42.3732689581811428070068359375" lon="1.28152116201817989349365234375">
        <ele>1496.4000244140625</ele>
        <time>2020-08-12T09:15:44.000Z</time>
      </trkpt>
      <trkpt lat="42.37335721962153911590576171875" lon="1.28148914314806461334228515625">
        <ele>1497</ele>
        <time>2020-08-12T09:15:50.000Z</time>
      </trkpt>
      <trkpt lat="42.3733997158706188201904296875" lon="1.28147623501718044281005859375">
        <ele>1497.5999755859375</ele>
        <time>2020-08-12T09:15:53.000Z</time>
      </trkpt>
      <trkpt lat="42.37346149049699306488037109375" lon="1.28146349452435970306396484375">
        <ele>1498</ele>
        <time>2020-08-12T09:15:57.000Z</time>
      </trkpt>
      <trkpt lat="42.37350381910800933837890625" lon="1.28146299161016941070556640625">
        <ele>1498.800048828125</ele>
        <time>2020-08-12T09:16:00.000Z</time>
      </trkpt>
      <trkpt lat="42.3735715448856353759765625" lon="1.28145326860249042510986328125">
        <ele>1499</ele>
        <time>2020-08-12T09:16:05.000Z</time>
      </trkpt>
      <trkpt lat="42.373621165752410888671875" lon="1.28145142458379268646240234375">
        <ele>1500</ele>
        <time>2020-08-12T09:16:09.000Z</time>
      </trkpt>
      <trkpt lat="42.37366936169564723968505859375" lon="1.28145695663988590240478515625">
        <ele>1500.5999755859375</ele>
        <time>2020-08-12T09:16:13.000Z</time>
      </trkpt>
      <trkpt lat="42.37369350157678127288818359375" lon="1.28145041875541210174560546875">
        <ele>1501</ele>
        <time>2020-08-12T09:16:15.000Z</time>
      </trkpt>
      <trkpt lat="42.37372166477143764495849609375" lon="1.28145092166960239410400390625">
        <ele>1501.4000244140625</ele>
        <time>2020-08-12T09:16:17.000Z</time>
      </trkpt>
      <trkpt lat="42.37374681048095226287841796875" lon="1.28144756890833377838134765625">
        <ele>1501.800048828125</ele>
        <time>2020-08-12T09:16:19.000Z</time>
      </trkpt>
      <trkpt lat="42.3737780749797821044921875" lon="1.2814513407647609710693359375">
        <ele>1501.800048828125</ele>
        <time>2020-08-12T09:16:21.000Z</time>
      </trkpt>
      <trkpt lat="42.3738637380301952362060546875" lon="1.281449832022190093994140625">
        <ele>1502.800048828125</ele>
        <time>2020-08-12T09:16:27.000Z</time>
      </trkpt>
      <trkpt lat="42.37387756817042827606201171875" lon="1.281447149813175201416015625">
        <ele>1503</ele>
        <time>2020-08-12T09:16:28.000Z</time>
      </trkpt>
      <trkpt lat="42.37395769916474819183349609375" lon="1.281440444290637969970703125">
        <ele>1503.5999755859375</ele>
        <time>2020-08-12T09:16:34.000Z</time>
      </trkpt>
      <trkpt lat="42.3740196414291858673095703125" lon="1.281425692141056060791015625">
        <ele>1504</ele>
        <time>2020-08-12T09:16:39.000Z</time>
      </trkpt>
      <trkpt lat="42.37403196282684803009033203125" lon="1.28142829053103923797607421875">
        <ele>1504.199951171875</ele>
        <time>2020-08-12T09:16:40.000Z</time>
      </trkpt>
      <trkpt lat="42.37410019151866436004638671875" lon="1.28143784590065479278564453125">
        <ele>1505.199951171875</ele>
        <time>2020-08-12T09:16:46.000Z</time>
      </trkpt>
      <trkpt lat="42.37416188232600688934326171875" lon="1.28142896108329296112060546875">
        <ele>1505.800048828125</ele>
        <time>2020-08-12T09:16:51.000Z</time>
      </trkpt>
      <trkpt lat="42.37419021315872669219970703125" lon="1.2814266979694366455078125">
        <ele>1506</ele>
        <time>2020-08-12T09:16:53.000Z</time>
      </trkpt>
      <trkpt lat="42.37420395947992801666259765625" lon="1.28142409957945346832275390625">
        <ele>1506.199951171875</ele>
        <time>2020-08-12T09:16:54.000Z</time>
      </trkpt>
      <trkpt lat="42.374275960028171539306640625" lon="1.2814174778759479522705078125">
        <ele>1506.800048828125</ele>
        <time>2020-08-12T09:16:59.000Z</time>
      </trkpt>
      <trkpt lat="42.3743109963834285736083984375" lon="1.281408257782459259033203125">
        <ele>1507.4000244140625</ele>
        <time>2020-08-12T09:17:02.000Z</time>
      </trkpt>
      <trkpt lat="42.37436078488826751708984375" lon="1.2813913263380527496337890625">
        <ele>1508.199951171875</ele>
        <time>2020-08-12T09:17:07.000Z</time>
      </trkpt>
      <trkpt lat="42.3743720166385173797607421875" lon="1.28138839267194271087646484375">
        <ele>1508.4000244140625</ele>
        <time>2020-08-12T09:17:08.000Z</time>
      </trkpt>
      <trkpt lat="42.37444804050028324127197265625" lon="1.28136408515274524688720703125">
        <ele>1509.4000244140625</ele>
        <time>2020-08-12T09:17:14.000Z</time>
      </trkpt>
      <trkpt lat="42.374524064362049102783203125" lon="1.28135494887828826904296875">
        <ele>1509.800048828125</ele>
        <time>2020-08-12T09:17:20.000Z</time>
      </trkpt>
      <trkpt lat="42.37457611598074436187744140625" lon="1.28135084174573421478271484375">
        <ele>1510.4000244140625</ele>
        <time>2020-08-12T09:17:24.000Z</time>
      </trkpt>
      <trkpt lat="42.37460578791797161102294921875" lon="1.2813484109938144683837890625">
        <ele>1510.5999755859375</ele>
        <time>2020-08-12T09:17:26.000Z</time>
      </trkpt>
      <trkpt lat="42.37470268271863460540771484375" lon="1.2813215889036655426025390625">
        <ele>1511.199951171875</ele>
        <time>2020-08-12T09:17:33.000Z</time>
      </trkpt>
      <trkpt lat="42.37474978901445865631103515625" lon="1.2813179008662700653076171875">
        <ele>1511.4000244140625</ele>
        <time>2020-08-12T09:17:36.000Z</time>
      </trkpt>
      <trkpt lat="42.37480871379375457763671875" lon="1.28131547011435031890869140625">
        <ele>1512</ele>
        <time>2020-08-12T09:17:40.000Z</time>
      </trkpt>
      <trkpt lat="42.3749188520014286041259765625" lon="1.28128043375909328460693359375">
        <ele>1512.4000244140625</ele>
        <time>2020-08-12T09:17:47.000Z</time>
      </trkpt>
      <trkpt lat="42.3749674670398235321044921875" lon="1.28124841488897800445556640625">
        <ele>1512.5999755859375</ele>
        <time>2020-08-12T09:17:50.000Z</time>
      </trkpt>
      <trkpt lat="42.3750065267086029052734375" lon="1.28120197914540767669677734375">
        <ele>1512.5999755859375</ele>
        <time>2020-08-12T09:17:53.000Z</time>
      </trkpt>
      <trkpt lat="42.3750603385269641876220703125" lon="1.28113844431936740875244140625">
        <ele>1513.5999755859375</ele>
        <time>2020-08-12T09:17:57.000Z</time>
      </trkpt>
      <trkpt lat="42.375123202800750732421875" lon="1.28107323311269283294677734375">
        <ele>1513.800048828125</ele>
        <time>2020-08-12T09:18:01.000Z</time>
      </trkpt>
      <trkpt lat="42.37520827911794185638427734375" lon="1.28096108324825763702392578125">
        <ele>1514.4000244140625</ele>
        <time>2020-08-12T09:18:07.000Z</time>
      </trkpt>
      <trkpt lat="42.375235520303249359130859375" lon="1.28092470578849315643310546875">
        <ele>1514.5999755859375</ele>
        <time>2020-08-12T09:18:09.000Z</time>
      </trkpt>
      <trkpt lat="42.37531674094498157501220703125" lon="1.28084859810769557952880859375">
        <ele>1514.5999755859375</ele>
        <time>2020-08-12T09:18:15.000Z</time>
      </trkpt>
      <trkpt lat="42.3753285594284534454345703125" lon="1.280835606157779693603515625">
        <ele>1514.800048828125</ele>
        <time>2020-08-12T09:18:16.000Z</time>
      </trkpt>
      <trkpt lat="42.3754061758518218994140625" lon="1.28078824840486049652099609375">
        <ele>1515.4000244140625</ele>
        <time>2020-08-12T09:18:21.000Z</time>
      </trkpt>
      <trkpt lat="42.3754683695733547210693359375" lon="1.28075279295444488525390625">
        <ele>1515.5999755859375</ele>
        <time>2020-08-12T09:18:25.000Z</time>
      </trkpt>
      <trkpt lat="42.37548773176968097686767578125" lon="1.28074952401220798492431640625">
        <ele>1515.800048828125</ele>
        <time>2020-08-12T09:18:26.000Z</time>
      </trkpt>
      <trkpt lat="42.37561362795531749725341796875" lon="1.28071113489568233489990234375">
        <ele>1516.4000244140625</ele>
        <time>2020-08-12T09:18:33.000Z</time>
      </trkpt>
      <trkpt lat="42.37569493241608142852783203125" lon="1.2806272320449352264404296875">
        <ele>1516.5999755859375</ele>
        <time>2020-08-12T09:18:39.000Z</time>
      </trkpt>
      <trkpt lat="42.3757111094892024993896484375" lon="1.2806158326566219329833984375">
        <ele>1516.800048828125</ele>
        <time>2020-08-12T09:18:40.000Z</time>
      </trkpt>
      <trkpt lat="42.37577875144779682159423828125" lon="1.280571408569812774658203125">
        <ele>1517.5999755859375</ele>
        <time>2020-08-12T09:18:44.000Z</time>
      </trkpt>
      <trkpt lat="42.37583792768418788909912109375" lon="1.28052472136914730072021484375">
        <ele>1517.800048828125</ele>
        <time>2020-08-12T09:18:48.000Z</time>
      </trkpt>
      <trkpt lat="42.3758981935679912567138671875" lon="1.2804803811013698577880859375">
        <ele>1518.199951171875</ele>
        <time>2020-08-12T09:18:52.000Z</time>
      </trkpt>
      <trkpt lat="42.37591939978301525115966796875" lon="1.28046705387532711029052734375">
        <ele>1518.4000244140625</ele>
        <time>2020-08-12T09:18:53.000Z</time>
      </trkpt>
      <trkpt lat="42.37594270147383213043212890625" lon="1.2804543972015380859375">
        <ele>1518.5999755859375</ele>
        <time>2020-08-12T09:18:54.000Z</time>
      </trkpt>
      <trkpt lat="42.3760152049362659454345703125" lon="1.28041089512407779693603515625">
        <ele>1518.800048828125</ele>
        <time>2020-08-12T09:18:58.000Z</time>
      </trkpt>
      <trkpt lat="42.3761013709008693695068359375" lon="1.28037996590137481689453125">
        <ele>1519.5999755859375</ele>
        <time>2020-08-12T09:19:03.000Z</time>
      </trkpt>
      <trkpt lat="42.3761167936027050018310546875" lon="1.28037351183593273162841796875">
        <ele>1519.5999755859375</ele>
        <time>2020-08-12T09:19:04.000Z</time>
      </trkpt>
      <trkpt lat="42.376199103891849517822265625" lon="1.28035582602024078369140625">
        <ele>1520.5999755859375</ele>
        <time>2020-08-12T09:19:09.000Z</time>
      </trkpt>
      <trkpt lat="42.37623288296163082122802734375" lon="1.28035322763025760650634765625">
        <ele>1521</ele>
        <time>2020-08-12T09:19:11.000Z</time>
      </trkpt>
      <trkpt lat="42.376281581819057464599609375" lon="1.28035222180187702178955078125">
        <ele>1521.4000244140625</ele>
        <time>2020-08-12T09:19:14.000Z</time>
      </trkpt>
      <trkpt lat="42.3763449490070343017578125" lon="1.2803580053150653839111328125">
        <ele>1521.5999755859375</ele>
        <time>2020-08-12T09:19:18.000Z</time>
      </trkpt>
      <trkpt lat="42.37636146135628223419189453125" lon="1.28036445938050746917724609375">
        <ele>1521.800048828125</ele>
        <time>2020-08-12T09:19:19.000Z</time>
      </trkpt>
      <trkpt lat="42.37645315937697887420654296875" lon="1.28039061091840267181396484375">
        <ele>1522.800048828125</ele>
        <time>2020-08-12T09:19:25.000Z</time>
      </trkpt>
      <trkpt lat="42.37648450769484043121337890625" lon="1.280405782163143157958984375">
        <ele>1523</ele>
        <time>2020-08-12T09:19:27.000Z</time>
      </trkpt>
      <trkpt lat="42.37654544413089752197265625" lon="1.2804139964282512664794921875">
        <ele>1523.199951171875</ele>
        <time>2020-08-12T09:19:31.000Z</time>
      </trkpt>
      <trkpt lat="42.37663588486611843109130859375" lon="1.28039471805095672607421875">
        <ele>1524</ele>
        <time>2020-08-12T09:19:37.000Z</time>
      </trkpt>
      <trkpt lat="42.37665432505309581756591796875" lon="1.28039446659386157989501953125">
        <ele>1524</ele>
        <time>2020-08-12T09:19:38.000Z</time>
      </trkpt>
      <trkpt lat="42.3767491243779659271240234375" lon="1.280366890132427215576171875">
        <ele>1524.5999755859375</ele>
        <time>2020-08-12T09:19:44.000Z</time>
      </trkpt>
      <trkpt lat="42.37682548351585865020751953125" lon="1.28034015186131000518798828125">
        <ele>1525</ele>
        <time>2020-08-12T09:19:48.000Z</time>
      </trkpt>
      <trkpt lat="42.37685884349048137664794921875" lon="1.28031182102859020233154296875">
        <ele>1525.199951171875</ele>
        <time>2020-08-12T09:19:50.000Z</time>
      </trkpt>
      <trkpt lat="42.37692489288747310638427734375" lon="1.280240155756473541259765625">
        <ele>1525.800048828125</ele>
        <time>2020-08-12T09:19:54.000Z</time>
      </trkpt>
      <trkpt lat="42.37695305608212947845458984375" lon="1.28020671196281909942626953125">
        <ele>1526</ele>
        <time>2020-08-12T09:19:56.000Z</time>
      </trkpt>
      <trkpt lat="42.376967556774616241455078125" lon="1.28019296564161777496337890625">
        <ele>1526</ele>
        <time>2020-08-12T09:19:57.000Z</time>
      </trkpt>
      <trkpt lat="42.37704358063638210296630859375" lon="1.280115433037281036376953125">
        <ele>1526.4000244140625</ele>
        <time>2020-08-12T09:20:03.000Z</time>
      </trkpt>
      <trkpt lat="42.37710845656692981719970703125" lon="1.2800659798085689544677734375">
        <ele>1527</ele>
        <time>2020-08-12T09:20:08.000Z</time>
      </trkpt>
      <trkpt lat="42.377129830420017242431640625" lon="1.28004376776516437530517578125">
        <ele>1527.5999755859375</ele>
        <time>2020-08-12T09:20:10.000Z</time>
      </trkpt>
      <trkpt lat="42.37715438939630985260009765625" lon="1.28002197481691837310791015625">
        <ele>1528</ele>
        <time>2020-08-12T09:20:12.000Z</time>
      </trkpt>
      <trkpt lat="42.37718456424772739410400390625" lon="1.27997470088303089141845703125">
        <ele>1528.4000244140625</ele>
        <time>2020-08-12T09:20:15.000Z</time>
      </trkpt>
      <trkpt lat="42.37719319760799407958984375" lon="1.2799402512609958648681640625">
        <ele>1528.5999755859375</ele>
        <time>2020-08-12T09:20:17.000Z</time>
      </trkpt>
      <trkpt lat="42.37720048986375331878662109375" lon="1.27981670200824737548828125">
        <ele>1529.199951171875</ele>
        <time>2020-08-12T09:20:23.000Z</time>
      </trkpt>
      <trkpt lat="42.3771900124847888946533203125" lon="1.2796988524496555328369140625">
        <ele>1529.800048828125</ele>
        <time>2020-08-12T09:20:28.000Z</time>
      </trkpt>
      <trkpt lat="42.3771863244473934173583984375" lon="1.27967680804431438446044921875">
        <ele>1530.199951171875</ele>
        <time>2020-08-12T09:20:29.000Z</time>
      </trkpt>
      <trkpt lat="42.37717366777360439300537109375" lon="1.27955560572445392608642578125">
        <ele>1530.800048828125</ele>
        <time>2020-08-12T09:20:35.000Z</time>
      </trkpt>
      <trkpt lat="42.37717031501233577728271484375" lon="1.279514618217945098876953125">
        <ele>1531.199951171875</ele>
        <time>2020-08-12T09:20:37.000Z</time>
      </trkpt>
      <trkpt lat="42.37716025672852993011474609375" lon="1.279440857470035552978515625">
        <ele>1531.5999755859375</ele>
        <time>2020-08-12T09:20:41.000Z</time>
      </trkpt>
      <trkpt lat="42.37715053372085094451904296875" lon="1.2793947570025920867919921875">
        <ele>1531.800048828125</ele>
        <time>2020-08-12T09:20:43.000Z</time>
      </trkpt>
      <trkpt lat="42.37714466638863086700439453125" lon="1.279297359287738800048828125">
        <ele>1532.4000244140625</ele>
        <time>2020-08-12T09:20:47.000Z</time>
      </trkpt>
      <trkpt lat="42.37712438218295574188232421875" lon="1.27915293909609317779541015625">
        <ele>1533.4000244140625</ele>
        <time>2020-08-12T09:20:54.000Z</time>
      </trkpt>
      <trkpt lat="42.37710443325340747833251953125" lon="1.27901882864534854888916015625">
        <ele>1534</ele>
        <time>2020-08-12T09:21:01.000Z</time>
      </trkpt>
      <trkpt lat="42.37710141576826572418212890625" lon="1.27900323830544948577880859375">
        <ele>1534.4000244140625</ele>
        <time>2020-08-12T09:21:02.000Z</time>
      </trkpt>
      <trkpt lat="42.3770951293408870697021484375" lon="1.27891707234084606170654296875">
        <ele>1535</ele>
        <time>2020-08-12T09:21:07.000Z</time>
      </trkpt>
      <trkpt lat="42.37709722481667995452880859375" lon="1.27889938652515411376953125">
        <ele>1535.199951171875</ele>
        <time>2020-08-12T09:21:08.000Z</time>
      </trkpt>
      <trkpt lat="42.37713812850415706634521484375" lon="1.27877541817724704742431640625">
        <ele>1536.199951171875</ele>
        <time>2020-08-12T09:21:15.000Z</time>
      </trkpt>
      <trkpt lat="42.37714600749313831329345703125" lon="1.27876150421798229217529296875">
        <ele>1536.199951171875</ele>
        <time>2020-08-12T09:21:16.000Z</time>
      </trkpt>
      <trkpt lat="42.3771618492901325225830078125" lon="1.27871020697057247161865234375">
        <ele>1536.5999755859375</ele>
        <time>2020-08-12T09:21:19.000Z</time>
      </trkpt>
      <trkpt lat="42.37718674354255199432373046875" lon="1.2786734104156494140625">
        <ele>1536.5999755859375</ele>
        <time>2020-08-12T09:21:22.000Z</time>
      </trkpt>
      <trkpt lat="42.37719663418829441070556640625" lon="1.27866041846573352813720703125">
        <ele>1536.5999755859375</ele>
        <time>2020-08-12T09:21:23.000Z</time>
      </trkpt>
      <trkpt lat="42.3772332631051540374755859375" lon="1.27861700020730495452880859375">
        <ele>1537.199951171875</ele>
        <time>2020-08-12T09:21:27.000Z</time>
      </trkpt>
      <trkpt lat="42.37724223174154758453369140625" lon="1.27860409207642078399658203125">
        <ele>1537.4000244140625</ele>
        <time>2020-08-12T09:21:28.000Z</time>
      </trkpt>
      <trkpt lat="42.37725145183503627777099609375" lon="1.2785900942981243133544921875">
        <ele>1537.4000244140625</ele>
        <time>2020-08-12T09:21:29.000Z</time>
      </trkpt>
      <trkpt lat="42.37733543850481510162353515625" lon="1.2784762680530548095703125">
        <ele>1538.199951171875</ele>
        <time>2020-08-12T09:21:37.000Z</time>
      </trkpt>
      <trkpt lat="42.37735773436725139617919921875" lon="1.27844718284904956817626953125">
        <ele>1538.4000244140625</ele>
        <time>2020-08-12T09:21:39.000Z</time>
      </trkpt>
      <trkpt lat="42.37741774879395961761474609375" lon="1.27837191335856914520263671875">
        <ele>1539.5999755859375</ele>
        <time>2020-08-12T09:21:44.000Z</time>
      </trkpt>
      <trkpt lat="42.37744205631315708160400390625" lon="1.27833872102200984954833984375">
        <ele>1539.5999755859375</ele>
        <time>2020-08-12T09:21:46.000Z</time>
      </trkpt>
      <trkpt lat="42.37752587534487247467041015625" lon="1.27821944653987884521484375">
        <ele>1540.4000244140625</ele>
        <time>2020-08-12T09:21:55.000Z</time>
      </trkpt>
      <trkpt lat="42.377535514533519744873046875" lon="1.27820846624672412872314453125">
        <ele>1540.5999755859375</ele>
        <time>2020-08-12T09:21:56.000Z</time>
      </trkpt>
      <trkpt lat="42.3775775916874408721923828125" lon="1.278155408799648284912109375">
        <ele>1541.800048828125</ele>
        <time>2020-08-12T09:22:01.000Z</time>
      </trkpt>
      <trkpt lat="42.3775943554937839508056640625" lon="1.2781321071088314056396484375">
        <ele>1542</ele>
        <time>2020-08-12T09:22:03.000Z</time>
      </trkpt>
      <trkpt lat="42.37765210680663585662841796875" lon="1.27806144766509532928466796875">
        <ele>1543</ele>
        <time>2020-08-12T09:22:09.000Z</time>
      </trkpt>
      <trkpt lat="42.37768060527741909027099609375" lon="1.2780281715095043182373046875">
        <ele>1543.199951171875</ele>
        <time>2020-08-12T09:22:12.000Z</time>
      </trkpt>
      <trkpt lat="42.37773056142032146453857421875" lon="1.2779765389859676361083984375">
        <ele>1544.199951171875</ele>
        <time>2020-08-12T09:22:17.000Z</time>
      </trkpt>
      <trkpt lat="42.37775067798793315887451171875" lon="1.2779574282467365264892578125">
        <ele>1544.4000244140625</ele>
        <time>2020-08-12T09:22:19.000Z</time>
      </trkpt>
      <trkpt lat="42.37778437323868274688720703125" lon="1.27790822647511959075927734375">
        <ele>1545.199951171875</ele>
        <time>2020-08-12T09:22:23.000Z</time>
      </trkpt>
      <trkpt lat="42.377813793718814849853515625" lon="1.2778561748564243316650390625">
        <ele>1545.5999755859375</ele>
        <time>2020-08-12T09:22:27.000Z</time>
      </trkpt>
      <trkpt lat="42.3778501711785793304443359375" lon="1.27781049348413944244384765625">
        <ele>1546</ele>
        <time>2020-08-12T09:22:31.000Z</time>
      </trkpt>
      <trkpt lat="42.37786316312849521636962890625" lon="1.277785934507846832275390625">
        <ele>1546.199951171875</ele>
        <time>2020-08-12T09:22:33.000Z</time>
      </trkpt>
      <trkpt lat="42.37791932187974452972412109375" lon="1.2777327932417392730712890625">
        <ele>1547.199951171875</ele>
        <time>2020-08-12T09:22:39.000Z</time>
      </trkpt>
      <trkpt lat="42.3779417015612125396728515625" lon="1.2777163647115230560302734375">
        <ele>1547.5999755859375</ele>
        <time>2020-08-12T09:22:41.000Z</time>
      </trkpt>
      <trkpt lat="42.3780030570924282073974609375" lon="1.27765526063740253448486328125">
        <ele>1548.4000244140625</ele>
        <time>2020-08-12T09:22:47.000Z</time>
      </trkpt>
      <trkpt lat="42.3780245147645473480224609375" lon="1.277634389698505401611328125">
        <ele>1548.5999755859375</ele>
        <time>2020-08-12T09:22:49.000Z</time>
      </trkpt>
      <trkpt lat="42.3781046457588672637939453125" lon="1.27753942273557186126708984375">
        <ele>1549.4000244140625</ele>
        <time>2020-08-12T09:22:57.000Z</time>
      </trkpt>
      <trkpt lat="42.37811294384300708770751953125" lon="1.27752785570919513702392578125">
        <ele>1549.5999755859375</ele>
        <time>2020-08-12T09:22:58.000Z</time>
      </trkpt>
      <trkpt lat="42.378157116472721099853515625" lon="1.2774699367582798004150390625">
        <ele>1550.5999755859375</ele>
        <time>2020-08-12T09:23:03.000Z</time>
      </trkpt>
      <trkpt lat="42.37818561494350433349609375" lon="1.2774374149739742279052734375">
        <ele>1550.800048828125</ele>
        <time>2020-08-12T09:23:06.000Z</time>
      </trkpt>
      <trkpt lat="42.37821369431912899017333984375" lon="1.2774075753986835479736328125">
        <ele>1551.5999755859375</ele>
        <time>2020-08-12T09:23:09.000Z</time>
      </trkpt>
      <trkpt lat="42.378249652683734893798828125" lon="1.27739257179200649261474609375">
        <ele>1551.800048828125</ele>
        <time>2020-08-12T09:23:12.000Z</time>
      </trkpt>
      <trkpt lat="42.37827186472713947296142578125" lon="1.27737983129918575286865234375">
        <ele>1552</ele>
        <time>2020-08-12T09:23:14.000Z</time>
      </trkpt>
      <trkpt lat="42.37829625606536865234375" lon="1.27736608497798442840576171875">
        <ele>1552.4000244140625</ele>
        <time>2020-08-12T09:23:16.000Z</time>
      </trkpt>
      <trkpt lat="42.3783178813755512237548828125" lon="1.277346722781658172607421875">
        <ele>1552.5999755859375</ele>
        <time>2020-08-12T09:23:18.000Z</time>
      </trkpt>
      <trkpt lat="42.37841033376753330230712890625" lon="1.27730271779000759124755859375">
        <ele>1553.5999755859375</ele>
        <time>2020-08-12T09:23:24.000Z</time>
      </trkpt>
      <trkpt lat="42.378445453941822052001953125" lon="1.2772845290601253509521484375">
        <ele>1554</ele>
        <time>2020-08-12T09:23:26.000Z</time>
      </trkpt>
      <trkpt lat="42.378490380942821502685546875" lon="1.27723373472690582275390625">
        <ele>1554</ele>
        <time>2020-08-12T09:23:29.000Z</time>
      </trkpt>
      <trkpt lat="42.37850722856819629669189453125" lon="1.27718419767916202545166015625">
        <ele>1554</ele>
        <time>2020-08-12T09:23:31.000Z</time>
      </trkpt>
      <trkpt lat="42.378540001809597015380859375" lon="1.27704799175262451171875">
        <ele>1554.5999755859375</ele>
        <time>2020-08-12T09:23:37.000Z</time>
      </trkpt>
      <trkpt lat="42.37854360602796077728271484375" lon="1.2770253606140613555908203125">
        <ele>1555</ele>
        <time>2020-08-12T09:23:38.000Z</time>
      </trkpt>
      <trkpt lat="42.3785569332540035247802734375" lon="1.27692435868084430694580078125">
        <ele>1555.800048828125</ele>
        <time>2020-08-12T09:23:43.000Z</time>
      </trkpt>
      <trkpt lat="42.37856288440525531768798828125" lon="1.27690793015062808990478515625">
        <ele>1556</ele>
        <time>2020-08-12T09:23:44.000Z</time>
      </trkpt>
      <trkpt lat="42.37858283333480358123779296875" lon="1.27688295207917690277099609375">
        <ele>1556.5999755859375</ele>
        <time>2020-08-12T09:23:46.000Z</time>
      </trkpt>
      <trkpt lat="42.37859339453279972076416015625" lon="1.27686937339603900909423828125">
        <ele>1556.800048828125</ele>
        <time>2020-08-12T09:23:47.000Z</time>
      </trkpt>
      <trkpt lat="42.37863295711576938629150390625" lon="1.27679527737200260162353515625">
        <ele>1557.4000244140625</ele>
        <time>2020-08-12T09:23:52.000Z</time>
      </trkpt>
      <trkpt lat="42.37863848917186260223388671875" lon="1.2767784297466278076171875">
        <ele>1557.4000244140625</ele>
        <time>2020-08-12T09:23:53.000Z</time>
      </trkpt>
      <trkpt lat="42.3786638863384723663330078125" lon="1.27673744224011898040771484375">
        <ele>1558.199951171875</ele>
        <time>2020-08-12T09:23:56.000Z</time>
      </trkpt>
      <trkpt lat="42.37868442200124263763427734375" lon="1.27669754438102245330810546875">
        <ele>1558.5999755859375</ele>
        <time>2020-08-12T09:23:59.000Z</time>
      </trkpt>
      <trkpt lat="42.378689534962177276611328125" lon="1.27668145112693309783935546875">
        <ele>1558.800048828125</ele>
        <time>2020-08-12T09:24:00.000Z</time>
      </trkpt>
      <trkpt lat="42.37870252691209316253662109375" lon="1.2766255438327789306640625">
        <ele>1559.199951171875</ele>
        <time>2020-08-12T09:24:03.000Z</time>
      </trkpt>
      <trkpt lat="42.37870554439723491668701171875" lon="1.27661012113094329833984375">
        <ele>1559.4000244140625</ele>
        <time>2020-08-12T09:24:04.000Z</time>
      </trkpt>
      <trkpt lat="42.3787168599665164947509765625" lon="1.27658464014530181884765625">
        <ele>1559.5999755859375</ele>
        <time>2020-08-12T09:24:06.000Z</time>
      </trkpt>
      <trkpt lat="42.37877167761325836181640625" lon="1.27647466957569122314453125">
        <ele>1560.199951171875</ele>
        <time>2020-08-12T09:24:13.000Z</time>
      </trkpt>
      <trkpt lat="42.37879707477986812591552734375" lon="1.27645547501742839813232421875">
        <ele>1560.5999755859375</ele>
        <time>2020-08-12T09:24:15.000Z</time>
      </trkpt>
      <trkpt lat="42.3788449354469776153564453125" lon="1.27640224993228912353515625">
        <ele>1561.5999755859375</ele>
        <time>2020-08-12T09:24:20.000Z</time>
      </trkpt>
      <trkpt lat="42.378910481929779052734375" lon="1.27631030045449733734130859375">
        <ele>1562.4000244140625</ele>
        <time>2020-08-12T09:24:27.000Z</time>
      </trkpt>
      <trkpt lat="42.37893470562994480133056640625" lon="1.2762701511383056640625">
        <ele>1562.5999755859375</ele>
        <time>2020-08-12T09:24:30.000Z</time>
      </trkpt>
      <trkpt lat="42.378978542983531951904296875" lon="1.2762240506708621978759765625">
        <ele>1563.4000244140625</ele>
        <time>2020-08-12T09:24:34.000Z</time>
      </trkpt>
      <trkpt lat="42.3789901100099086761474609375" lon="1.2762113101780414581298828125">
        <ele>1563.800048828125</ele>
        <time>2020-08-12T09:24:35.000Z</time>
      </trkpt>
      <trkpt lat="42.3790320195257663726806640625" lon="1.27615137957036495208740234375">
        <ele>1564.4000244140625</ele>
        <time>2020-08-12T09:24:40.000Z</time>
      </trkpt>
      <trkpt lat="42.37905599176883697509765625" lon="1.27610829658806324005126953125">
        <ele>1564.5999755859375</ele>
        <time>2020-08-12T09:24:43.000Z</time>
      </trkpt>
      <trkpt lat="42.37907568924129009246826171875" lon="1.27608264796435832977294921875">
        <ele>1564.800048828125</ele>
        <time>2020-08-12T09:24:45.000Z</time>
      </trkpt>
      <trkpt lat="42.37908440642058849334716796875" lon="1.2760668061673641204833984375">
        <ele>1565</ele>
        <time>2020-08-12T09:24:46.000Z</time>
      </trkpt>
      <trkpt lat="42.37910200841724872589111328125" lon="1.27603948116302490234375">
        <ele>1565.4000244140625</ele>
        <time>2020-08-12T09:24:48.000Z</time>
      </trkpt>
      <trkpt lat="42.37910829484462738037109375" lon="1.27602514810860157012939453125">
        <ele>1565.5999755859375</ele>
        <time>2020-08-12T09:24:49.000Z</time>
      </trkpt>
      <trkpt lat="42.379125393927097320556640625" lon="1.2759987451136112213134765625">
        <ele>1566</ele>
        <time>2020-08-12T09:24:51.000Z</time>
      </trkpt>
      <trkpt lat="42.379141151905059814453125" lon="1.27596764825284481048583984375">
        <ele>1566.4000244140625</ele>
        <time>2020-08-12T09:24:53.000Z</time>
      </trkpt>
      <trkpt lat="42.37918180413544178009033203125" lon="1.27585566602647304534912109375">
        <ele>1566.800048828125</ele>
        <time>2020-08-12T09:24:59.000Z</time>
      </trkpt>
      <trkpt lat="42.37920125015079975128173828125" lon="1.275803111493587493896484375">
        <ele>1567</ele>
        <time>2020-08-12T09:25:02.000Z</time>
      </trkpt>
      <trkpt lat="42.3792274855077266693115234375" lon="1.275747120380401611328125">
        <ele>1567.5999755859375</ele>
        <time>2020-08-12T09:25:06.000Z</time>
      </trkpt>
      <trkpt lat="42.3792435787618160247802734375" lon="1.2756936438381671905517578125">
        <ele>1567.800048828125</ele>
        <time>2020-08-12T09:25:09.000Z</time>
      </trkpt>
      <trkpt lat="42.3792647011578083038330078125" lon="1.27565450035035610198974609375">
        <ele>1568.199951171875</ele>
        <time>2020-08-12T09:25:12.000Z</time>
      </trkpt>
      <trkpt lat="42.3792734183371067047119140625" lon="1.27564452588558197021484375">
        <ele>1568.4000244140625</ele>
        <time>2020-08-12T09:25:13.000Z</time>
      </trkpt>
      <trkpt lat="42.379307448863983154296875" lon="1.27557344734668731689453125">
        <ele>1568.800048828125</ele>
        <time>2020-08-12T09:25:18.000Z</time>
      </trkpt>
      <trkpt lat="42.379321195185184478759765625" lon="1.2755431048572063446044921875">
        <ele>1569.199951171875</ele>
        <time>2020-08-12T09:25:20.000Z</time>
      </trkpt>
      <trkpt lat="42.37934743054211139678955078125" lon="1.2754829227924346923828125">
        <ele>1569.5999755859375</ele>
        <time>2020-08-12T09:25:24.000Z</time>
      </trkpt>
      <trkpt lat="42.379357405006885528564453125" lon="1.2754730321466922760009765625">
        <ele>1569.800048828125</ele>
        <time>2020-08-12T09:25:25.000Z</time>
      </trkpt>
      <trkpt lat="42.3793758451938629150390625" lon="1.27544545568525791168212890625">
        <ele>1570.199951171875</ele>
        <time>2020-08-12T09:25:27.000Z</time>
      </trkpt>
      <trkpt lat="42.37939587794244289398193359375" lon="1.2754156999289989471435546875">
        <ele>1570.4000244140625</ele>
        <time>2020-08-12T09:25:29.000Z</time>
      </trkpt>
      <trkpt lat="42.3794256336987018585205078125" lon="1.27536934800446033477783203125">
        <ele>1570.5999755859375</ele>
        <time>2020-08-12T09:25:32.000Z</time>
      </trkpt>
      <trkpt lat="42.3794544674456119537353515625" lon="1.27527630887925624847412109375">
        <ele>1571.4000244140625</ele>
        <time>2020-08-12T09:25:37.000Z</time>
      </trkpt>
      <trkpt lat="42.37946276552975177764892578125" lon="1.27526004798710346221923828125">
        <ele>1571.4000244140625</ele>
        <time>2020-08-12T09:25:38.000Z</time>
      </trkpt>
      <trkpt lat="42.379506267607212066650390625" lon="1.2751853652298450469970703125">
        <ele>1572</ele>
        <time>2020-08-12T09:25:43.000Z</time>
      </trkpt>
      <trkpt lat="42.37951925955712795257568359375" lon="1.27516885288059711456298828125">
        <ele>1572</ele>
        <time>2020-08-12T09:25:44.000Z</time>
      </trkpt>
      <trkpt lat="42.37956921570003032684326171875" lon="1.27503960393369197845458984375">
        <ele>1572.4000244140625</ele>
        <time>2020-08-12T09:25:50.000Z</time>
      </trkpt>
      <trkpt lat="42.37961229868233203887939453125" lon="1.27496366389095783233642578125">
        <ele>1573.199951171875</ele>
        <time>2020-08-12T09:25:55.000Z</time>
      </trkpt>
      <trkpt lat="42.3796241171658039093017578125" lon="1.2749483250081539154052734375">
        <ele>1573.5999755859375</ele>
        <time>2020-08-12T09:25:56.000Z</time>
      </trkpt>
      <trkpt lat="42.37965856678783893585205078125" lon="1.274889148771762847900390625">
        <ele>1574.199951171875</ele>
        <time>2020-08-12T09:25:59.000Z</time>
      </trkpt>
      <trkpt lat="42.379679270088672637939453125" lon="1.27485000528395175933837890625">
        <ele>1574.4000244140625</ele>
        <time>2020-08-12T09:26:01.000Z</time>
      </trkpt>
      <trkpt lat="42.37969192676246166229248046875" lon="1.27480943687260150909423828125">
        <ele>1574.5999755859375</ele>
        <time>2020-08-12T09:26:03.000Z</time>
      </trkpt>
      <trkpt lat="42.379720173776149749755859375" lon="1.274763755500316619873046875">
        <ele>1575</ele>
        <time>2020-08-12T09:26:06.000Z</time>
      </trkpt>
      <trkpt lat="42.37973048351705074310302734375" lon="1.27474523149430751800537109375">
        <ele>1575.199951171875</ele>
        <time>2020-08-12T09:26:07.000Z</time>
      </trkpt>
      <trkpt lat="42.3797666095197200775146484375" lon="1.27469812519848346710205078125">
        <ele>1575.5999755859375</ele>
        <time>2020-08-12T09:26:10.000Z</time>
      </trkpt>
      <trkpt lat="42.3797833733260631561279296875" lon="1.2746847979724407196044921875">
        <ele>1575.5999755859375</ele>
        <time>2020-08-12T09:26:11.000Z</time>
      </trkpt>
      <trkpt lat="42.379811368882656097412109375" lon="1.2746583111584186553955078125">
        <ele>1575.800048828125</ele>
        <time>2020-08-12T09:26:13.000Z</time>
      </trkpt>
      <trkpt lat="42.3798702098429203033447265625" lon="1.27457876689732074737548828125">
        <ele>1576.199951171875</ele>
        <time>2020-08-12T09:26:18.000Z</time>
      </trkpt>
      <trkpt lat="42.37987766973674297332763671875" lon="1.27457004971802234649658203125">
        <ele>1576.199951171875</ele>
        <time>2020-08-12T09:26:19.000Z</time>
      </trkpt>
      <trkpt lat="42.379885800182819366455078125" lon="1.27455412410199642181396484375">
        <ele>1576.4000244140625</ele>
        <time>2020-08-12T09:26:20.000Z</time>
      </trkpt>
      <trkpt lat="42.379913963377475738525390625" lon="1.2744997255504131317138671875">
        <ele>1576.800048828125</ele>
        <time>2020-08-12T09:26:23.000Z</time>
      </trkpt>
      <trkpt lat="42.379981018602848052978515625" lon="1.27440542913973331451416015625">
        <ele>1577.5999755859375</ele>
        <time>2020-08-12T09:26:28.000Z</time>
      </trkpt>
      <trkpt lat="42.3799900710582733154296875" lon="1.27438598312437534332275390625">
        <ele>1577.5999755859375</ele>
        <time>2020-08-12T09:26:29.000Z</time>
      </trkpt>
      <trkpt lat="42.3800646699965000152587890625" lon="1.2742948718369007110595703125">
        <ele>1577.800048828125</ele>
        <time>2020-08-12T09:26:34.000Z</time>
      </trkpt>
      <trkpt lat="42.38010062836110591888427734375" lon="1.27425857819616794586181640625">
        <ele>1578</ele>
        <time>2020-08-12T09:26:36.000Z</time>
      </trkpt>
      <trkpt lat="42.3801391012966632843017578125" lon="1.27418984659016132354736328125">
        <ele>1578.199951171875</ele>
        <time>2020-08-12T09:26:39.000Z</time>
      </trkpt>
      <trkpt lat="42.38016164861619472503662109375" lon="1.27414709888398647308349609375">
        <ele>1578.4000244140625</ele>
        <time>2020-08-12T09:26:41.000Z</time>
      </trkpt>
      <trkpt lat="42.38022199831902980804443359375" lon="1.27404299564659595489501953125">
        <ele>1579</ele>
        <time>2020-08-12T09:26:47.000Z</time>
      </trkpt>
      <trkpt lat="42.38023758865892887115478515625" lon="1.27402991987764835357666015625">
        <ele>1579.199951171875</ele>
        <time>2020-08-12T09:26:48.000Z</time>
      </trkpt>
      <trkpt lat="42.38029173575341701507568359375" lon="1.273947022855281829833984375">
        <ele>1580</ele>
        <time>2020-08-12T09:26:52.000Z</time>
      </trkpt>
      <trkpt lat="42.3803218267858028411865234375" lon="1.2739116512238979339599609375">
        <ele>1580.199951171875</ele>
        <time>2020-08-12T09:26:54.000Z</time>
      </trkpt>
      <trkpt lat="42.380391061305999755859375" lon="1.27378466539084911346435546875">
        <ele>1580.199951171875</ele>
        <time>2020-08-12T09:27:00.000Z</time>
      </trkpt>
      <trkpt lat="42.38044093362987041473388671875" lon="1.27368114888668060302734375">
        <ele>1580.5999755859375</ele>
        <time>2020-08-12T09:27:04.000Z</time>
      </trkpt>
      <trkpt lat="42.38046524114906787872314453125" lon="1.273645274341106414794921875">
        <ele>1581.5999755859375</ele>
        <time>2020-08-12T09:27:06.000Z</time>
      </trkpt>
      <trkpt lat="42.3805303685367107391357421875" lon="1.27353237010538578033447265625">
        <ele>1582</ele>
        <time>2020-08-12T09:27:11.000Z</time>
      </trkpt>
      <trkpt lat="42.38058107905089855194091796875" lon="1.27347461879253387451171875">
        <ele>1582.4000244140625</ele>
        <time>2020-08-12T09:27:14.000Z</time>
      </trkpt>
      <trkpt lat="42.38061008043587207794189453125" lon="1.2734402529895305633544921875">
        <ele>1582.800048828125</ele>
        <time>2020-08-12T09:27:16.000Z</time>
      </trkpt>
      <trkpt lat="42.3806265927851200103759765625" lon="1.27342633903026580810546875">
        <ele>1582.800048828125</ele>
        <time>2020-08-12T09:27:17.000Z</time>
      </trkpt>
      <trkpt lat="42.380755841732025146484375" lon="1.27331209369003772735595703125">
        <ele>1583.800048828125</ele>
        <time>2020-08-12T09:27:24.000Z</time>
      </trkpt>
      <trkpt lat="42.3809048719704151153564453125" lon="1.27317077480256557464599609375">
        <ele>1584.5999755859375</ele>
        <time>2020-08-12T09:27:33.000Z</time>
      </trkpt>
      <trkpt lat="42.38100939430296421051025390625" lon="1.27308058552443981170654296875">
        <ele>1584.800048828125</ele>
        <time>2020-08-12T09:27:38.000Z</time>
      </trkpt>
      <trkpt lat="42.3810295946896076202392578125" lon="1.27306264825165271759033203125">
        <ele>1584.800048828125</ele>
        <time>2020-08-12T09:27:39.000Z</time>
      </trkpt>
      <trkpt lat="42.38109505735337734222412109375" lon="1.27301537431776523590087890625">
        <ele>1585</ele>
        <time>2020-08-12T09:27:42.000Z</time>
      </trkpt>
      <trkpt lat="42.3811157606542110443115234375" lon="1.27299852669239044189453125">
        <ele>1585.199951171875</ele>
        <time>2020-08-12T09:27:43.000Z</time>
      </trkpt>
      <trkpt lat="42.38126805983483791351318359375" lon="1.27289752475917339324951171875">
        <ele>1585.5999755859375</ele>
        <time>2020-08-12T09:27:49.000Z</time>
      </trkpt>
      <trkpt lat="42.381381131708621978759765625" lon="1.27284161746501922607421875">
        <ele>1585.800048828125</ele>
        <time>2020-08-12T09:27:53.000Z</time>
      </trkpt>
      <trkpt lat="42.38151951692998409271240234375" lon="1.2727458961308002471923828125">
        <ele>1585.800048828125</ele>
        <time>2020-08-12T09:27:58.000Z</time>
      </trkpt>
      <trkpt lat="42.381693609058856964111328125" lon="1.27266149036586284637451171875">
        <ele>1585.800048828125</ele>
        <time>2020-08-12T09:28:04.000Z</time>
      </trkpt>
      <trkpt lat="42.3817893303930759429931640625" lon="1.272609941661357879638671875">
        <ele>1586.4000244140625</ele>
        <time>2020-08-12T09:28:08.000Z</time>
      </trkpt>
      <trkpt lat="42.3818272165954113006591796875" lon="1.27258303575217723846435546875">
        <ele>1586.5999755859375</ele>
        <time>2020-08-12T09:28:12.000Z</time>
      </trkpt>
      <trkpt lat="42.38184238784015178680419921875" lon="1.272576749324798583984375">
        <ele>1586.5999755859375</ele>
        <time>2020-08-12T09:28:13.000Z</time>
      </trkpt>
      <trkpt lat="42.38189536146819591522216796875" lon="1.27254866994917392730712890625">
        <ele>1586.5999755859375</ele>
        <time>2020-08-12T09:28:16.000Z</time>
      </trkpt>
      <trkpt lat="42.38200373947620391845703125" lon="1.2725034914910793304443359375">
        <ele>1586.800048828125</ele>
        <time>2020-08-12T09:28:21.000Z</time>
      </trkpt>
      <trkpt lat="42.38211932592093944549560546875" lon="1.27244791947305202484130859375">
        <ele>1587.199951171875</ele>
        <time>2020-08-12T09:28:27.000Z</time>
      </trkpt>
      <trkpt lat="42.3821681924164295196533203125" lon="1.2724077701568603515625">
        <ele>1588.5999755859375</ele>
        <time>2020-08-12T09:36:29.000Z</time>
      </trkpt>
      <trkpt lat="42.38217330537736415863037109375" lon="1.2724042497575283050537109375">
        <ele>1588.199951171875</ele>
        <time>2020-08-12T09:36:32.000Z</time>
      </trkpt>
      <trkpt lat="42.38224455155432224273681640625" lon="1.27238069660961627960205078125">
        <ele>1588.4000244140625</ele>
        <time>2020-08-12T09:36:38.000Z</time>
      </trkpt>
      <trkpt lat="42.38232736475765705108642578125" lon="1.27236695028841495513916015625">
        <ele>1589.199951171875</ele>
        <time>2020-08-12T09:36:44.000Z</time>
      </trkpt>
      <trkpt lat="42.3823539353907108306884765625" lon="1.272358484566211700439453125">
        <ele>1589.4000244140625</ele>
        <time>2020-08-12T09:36:46.000Z</time>
      </trkpt>
      <trkpt lat="42.3823884688317775726318359375" lon="1.27235102467238903045654296875">
        <ele>1589.4000244140625</ele>
        <time>2020-08-12T09:36:49.000Z</time>
      </trkpt>
      <trkpt lat="42.38247086293995380401611328125" lon="1.27234297804534435272216796875">
        <ele>1589.5999755859375</ele>
        <time>2020-08-12T09:36:55.000Z</time>
      </trkpt>
      <trkpt lat="42.38248779438436031341552734375" lon="1.27233644016087055206298828125">
        <ele>1589.5999755859375</ele>
        <time>2020-08-12T09:36:56.000Z</time>
      </trkpt>
      <trkpt lat="42.38258066587150096893310546875" lon="1.2723133899271488189697265625">
        <ele>1590.5999755859375</ele>
        <time>2020-08-12T09:37:01.000Z</time>
      </trkpt>
      <trkpt lat="42.3827111721038818359375" lon="1.2722376175224781036376953125">
        <ele>1591</ele>
        <time>2020-08-12T09:37:07.000Z</time>
      </trkpt>
      <trkpt lat="42.38279473967850208282470703125" lon="1.2722221948206424713134765625">
        <ele>1591.5999755859375</ele>
        <time>2020-08-12T09:37:12.000Z</time>
      </trkpt>
      <trkpt lat="42.38280982710421085357666015625" lon="1.2722225300967693328857421875">
        <ele>1591.800048828125</ele>
        <time>2020-08-12T09:37:13.000Z</time>
      </trkpt>
      <trkpt lat="42.38282374106347560882568359375" lon="1.27220920287072658538818359375">
        <ele>1592</ele>
        <time>2020-08-12T09:37:14.000Z</time>
      </trkpt>
      <trkpt lat="42.38286338746547698974609375" lon="1.27217500470578670501708984375">
        <ele>1592.199951171875</ele>
        <time>2020-08-12T09:37:17.000Z</time>
      </trkpt>
      <trkpt lat="42.3829405009746551513671875" lon="1.2721494399011135101318359375">
        <ele>1592.5999755859375</ele>
        <time>2020-08-12T09:37:22.000Z</time>
      </trkpt>
      <trkpt lat="42.38295751623809337615966796875" lon="1.27214021980762481689453125">
        <ele>1592.800048828125</ele>
        <time>2020-08-12T09:37:23.000Z</time>
      </trkpt>
      <trkpt lat="42.38305055536329746246337890625" lon="1.27209370024502277374267578125">
        <ele>1594</ele>
        <time>2020-08-12T09:37:29.000Z</time>
      </trkpt>
      <trkpt lat="42.38306279294192790985107421875" lon="1.2720854021608829498291015625">
        <ele>1594</ele>
        <time>2020-08-12T09:37:30.000Z</time>
      </trkpt>
      <trkpt lat="42.38314208574593067169189453125" lon="1.27205246128141880035400390625">
        <ele>1594.4000244140625</ele>
        <time>2020-08-12T09:37:36.000Z</time>
      </trkpt>
      <trkpt lat="42.38323562778532505035400390625" lon="1.27200954593718051910400390625">
        <ele>1594.800048828125</ele>
        <time>2020-08-12T09:37:42.000Z</time>
      </trkpt>
      <trkpt lat="42.3832516372203826904296875" lon="1.27200418151915073394775390625">
        <ele>1594.800048828125</ele>
        <time>2020-08-12T09:37:43.000Z</time>
      </trkpt>
      <trkpt lat="42.3833376355469226837158203125" lon="1.27196411602199077606201171875">
        <ele>1595.800048828125</ele>
        <time>2020-08-12T09:37:49.000Z</time>
      </trkpt>
      <trkpt lat="42.383417598903179168701171875" lon="1.27191181294620037078857421875">
        <ele>1596.4000244140625</ele>
        <time>2020-08-12T09:37:55.000Z</time>
      </trkpt>
      <trkpt lat="42.3834848217666149139404296875" lon="1.27188348211348056793212890625">
        <ele>1596.800048828125</ele>
        <time>2020-08-12T09:38:00.000Z</time>
      </trkpt>
      <trkpt lat="42.3834952153265476226806640625" lon="1.2718788720667362213134765625">
        <ele>1597</ele>
        <time>2020-08-12T09:38:01.000Z</time>
      </trkpt>
      <trkpt lat="42.38360074348747730255126953125" lon="1.27184442244470119476318359375">
        <ele>1597.199951171875</ele>
        <time>2020-08-12T09:38:07.000Z</time>
      </trkpt>
      <trkpt lat="42.38367064855992794036865234375" lon="1.27182715572416782379150390625">
        <ele>1597.800048828125</ele>
        <time>2020-08-12T09:38:11.000Z</time>
      </trkpt>
      <trkpt lat="42.383717000484466552734375" lon="1.2718131579458713531494140625">
        <ele>1598.5999755859375</ele>
        <time>2020-08-12T09:38:14.000Z</time>
      </trkpt>
      <trkpt lat="42.3837664537131786346435546875" lon="1.271797902882099151611328125">
        <ele>1599</ele>
        <time>2020-08-12T09:38:17.000Z</time>
      </trkpt>
      <trkpt lat="42.383819259703159332275390625" lon="1.2717839889228343963623046875">
        <ele>1599.4000244140625</ele>
        <time>2020-08-12T09:38:21.000Z</time>
      </trkpt>
      <trkpt lat="42.38389176316559314727783203125" lon="1.27178960479795932769775390625">
        <ele>1600</ele>
        <time>2020-08-12T09:38:25.000Z</time>
      </trkpt>
      <trkpt lat="42.38394021056592464447021484375" lon="1.27178482711315155029296875">
        <ele>1600.199951171875</ele>
        <time>2020-08-12T09:38:28.000Z</time>
      </trkpt>
      <trkpt lat="42.38405386917293071746826171875" lon="1.27176529727876186370849609375">
        <ele>1601.199951171875</ele>
        <time>2020-08-12T09:38:35.000Z</time>
      </trkpt>
      <trkpt lat="42.3841268755495548248291015625" lon="1.2717923708260059356689453125">
        <ele>1601.5999755859375</ele>
        <time>2020-08-12T09:38:41.000Z</time>
      </trkpt>
      <trkpt lat="42.384162247180938720703125" lon="1.27181257121264934539794921875">
        <ele>1602</ele>
        <time>2020-08-12T09:38:44.000Z</time>
      </trkpt>
      <trkpt lat="42.384189069271087646484375" lon="1.27181475050747394561767578125">
        <ele>1602.4000244140625</ele>
        <time>2020-08-12T09:38:46.000Z</time>
      </trkpt>
      <trkpt lat="42.38425821997225284576416015625" lon="1.27181324176490306854248046875">
        <ele>1603.199951171875</ele>
        <time>2020-08-12T09:38:51.000Z</time>
      </trkpt>
      <trkpt lat="42.38427691161632537841796875" lon="1.27181793563067913055419921875">
        <ele>1603.199951171875</ele>
        <time>2020-08-12T09:38:52.000Z</time>
      </trkpt>
      <trkpt lat="42.38436399959027767181396484375" lon="1.27185448072850704193115234375">
        <ele>1603.5999755859375</ele>
        <time>2020-08-12T09:38:56.000Z</time>
      </trkpt>
      <trkpt lat="42.38445661962032318115234375" lon="1.27188951708376407623291015625">
        <ele>1603.5999755859375</ele>
        <time>2020-08-12T09:39:01.000Z</time>
      </trkpt>
      <trkpt lat="42.3845654167234897613525390625" lon="1.2719402275979518890380859375">
        <ele>1603.800048828125</ele>
        <time>2020-08-12T09:39:07.000Z</time>
      </trkpt>
      <trkpt lat="42.38462333567440509796142578125" lon="1.27196243964135646820068359375">
        <ele>1604.199951171875</ele>
        <time>2020-08-12T09:39:10.000Z</time>
      </trkpt>
      <trkpt lat="42.384700365364551544189453125" lon="1.271980963647365570068359375">
        <ele>1604.800048828125</ele>
        <time>2020-08-12T09:39:14.000Z</time>
      </trkpt>
      <trkpt lat="42.38483657129108905792236328125" lon="1.27202245406806468963623046875">
        <ele>1604.5999755859375</ele>
        <time>2020-08-12T09:39:21.000Z</time>
      </trkpt>
      <trkpt lat="42.3849224857985973358154296875" lon="1.272072158753871917724609375">
        <ele>1605</ele>
        <time>2020-08-12T09:39:27.000Z</time>
      </trkpt>
      <trkpt lat="42.38495291210711002349853515625" lon="1.2720850668847560882568359375">
        <ele>1605.4000244140625</ele>
        <time>2020-08-12T09:39:29.000Z</time>
      </trkpt>
      <trkpt lat="42.38501644693315029144287109375" lon="1.27211473882198333740234375">
        <ele>1605.4000244140625</ele>
        <time>2020-08-12T09:39:32.000Z</time>
      </trkpt>
      <trkpt lat="42.38513580523431301116943359375" lon="1.2721584923565387725830078125">
        <ele>1605.800048828125</ele>
        <time>2020-08-12T09:39:38.000Z</time>
      </trkpt>
      <trkpt lat="42.38522549159824848175048828125" lon="1.2722034193575382232666015625">
        <ele>1606.199951171875</ele>
        <time>2020-08-12T09:39:43.000Z</time>
      </trkpt>
      <trkpt lat="42.38524057902395725250244140625" lon="1.2722118012607097625732421875">
        <ele>1606.199951171875</ele>
        <time>2020-08-12T09:39:44.000Z</time>
      </trkpt>
      <trkpt lat="42.3853429220616817474365234375" lon="1.2722302414476871490478515625">
        <ele>1606.199951171875</ele>
        <time>2020-08-12T09:39:48.000Z</time>
      </trkpt>
      <trkpt lat="42.38542095758020877838134765625" lon="1.27224591560661792755126953125">
        <ele>1606.4000244140625</ele>
        <time>2020-08-12T09:39:51.000Z</time>
      </trkpt>
      <trkpt lat="42.38549320958554744720458984375" lon="1.27226016484200954437255859375">
        <ele>1606.800048828125</ele>
        <time>2020-08-12T09:39:54.000Z</time>
      </trkpt>
      <trkpt lat="42.38567861728370189666748046875" lon="1.2723221071064472198486328125">
        <ele>1607</ele>
        <time>2020-08-12T09:40:02.000Z</time>
      </trkpt>
      <trkpt lat="42.3858042620122432708740234375" lon="1.272360496222972869873046875">
        <ele>1607.4000244140625</ele>
        <time>2020-08-12T09:40:07.000Z</time>
      </trkpt>
      <trkpt lat="42.3858263902366161346435546875" lon="1.272367872297763824462890625">
        <ele>1607.4000244140625</ele>
        <time>2020-08-12T09:40:08.000Z</time>
      </trkpt>
      <trkpt lat="42.38595974631607532501220703125" lon="1.2724190019071102142333984375">
        <ele>1608</ele>
        <time>2020-08-12T09:40:15.000Z</time>
      </trkpt>
      <trkpt lat="42.38601959310472011566162109375" lon="1.27244188450276851654052734375">
        <ele>1608.5999755859375</ele>
        <time>2020-08-12T09:40:18.000Z</time>
      </trkpt>
      <trkpt lat="42.38607977516949176788330078125" lon="1.27247507683932781219482421875">
        <ele>1608.5999755859375</ele>
        <time>2020-08-12T09:40:21.000Z</time>
      </trkpt>
      <trkpt lat="42.38619469106197357177734375" lon="1.27251732163131237030029296875">
        <ele>1609</ele>
        <time>2020-08-12T09:40:27.000Z</time>
      </trkpt>
      <trkpt lat="42.38632268272340297698974609375" lon="1.27255327999591827392578125">
        <ele>1609.199951171875</ele>
        <time>2020-08-12T09:40:33.000Z</time>
      </trkpt>
      <trkpt lat="42.38648529164493083953857421875" lon="1.2725712172687053680419921875">
        <ele>1609.4000244140625</ele>
        <time>2020-08-12T09:40:39.000Z</time>
      </trkpt>
      <trkpt lat="42.3865381814539432525634765625" lon="1.27258471213281154632568359375">
        <ele>1609.800048828125</ele>
        <time>2020-08-12T09:40:41.000Z</time>
      </trkpt>
      <trkpt lat="42.386613450944423675537109375" lon="1.27260030247271060943603515625">
        <ele>1610.4000244140625</ele>
        <time>2020-08-12T09:40:44.000Z</time>
      </trkpt>
      <trkpt lat="42.38677329383790493011474609375" lon="1.272633075714111328125">
        <ele>1610.5999755859375</ele>
        <time>2020-08-12T09:40:50.000Z</time>
      </trkpt>
      <trkpt lat="42.38682677038013935089111328125" lon="1.272642128169536590576171875">
        <ele>1610.800048828125</ele>
        <time>2020-08-12T09:40:52.000Z</time>
      </trkpt>
      <trkpt lat="42.38690220750868320465087890625" lon="1.27265118062496185302734375">
        <ele>1611.199951171875</ele>
        <time>2020-08-12T09:40:55.000Z</time>
      </trkpt>
      <trkpt lat="42.38704335875809192657470703125" lon="1.27267708070576190948486328125">
        <ele>1611.4000244140625</ele>
        <time>2020-08-12T09:41:00.000Z</time>
      </trkpt>
      <trkpt lat="42.3870910517871379852294921875" lon="1.27266417257487773895263671875">
        <ele>1611.800048828125</ele>
        <time>2020-08-12T09:41:04.000Z</time>
      </trkpt>
      <trkpt lat="42.38709549419581890106201171875" lon="1.272660903632640838623046875">
        <ele>1611.800048828125</ele>
        <time>2020-08-12T09:41:05.000Z</time>
      </trkpt>
      <trkpt lat="42.38789998926222324371337890625" lon="1.2728944234549999237060546875">
        <ele>1612.5999755859375</ele>
        <time>2020-08-12T09:42:43.000Z</time>
      </trkpt>
      <trkpt lat="42.3879577405750751495361328125" lon="1.272924430668354034423828125">
        <ele>1612.800048828125</ele>
        <time>2020-08-12T09:42:45.000Z</time>
      </trkpt>
      <trkpt lat="42.38807760179042816162109375" lon="1.2729929946362972259521484375">
        <ele>1612.800048828125</ele>
        <time>2020-08-12T09:42:51.000Z</time>
      </trkpt>
      <trkpt lat="42.388170473277568817138671875" lon="1.27305208705365657806396484375">
        <ele>1612.800048828125</ele>
        <time>2020-08-12T09:42:55.000Z</time>
      </trkpt>
      <trkpt lat="42.38832226954400539398193359375" lon="1.27319432795047760009765625">
        <ele>1612.800048828125</ele>
        <time>2020-08-12T09:43:03.000Z</time>
      </trkpt>
      <trkpt lat="42.388421595096588134765625" lon="1.27328007481992244720458984375">
        <ele>1612.800048828125</ele>
        <time>2020-08-12T09:43:08.000Z</time>
      </trkpt>
      <trkpt lat="42.388539277017116546630859375" lon="1.2733882851898670196533203125">
        <ele>1612.800048828125</ele>
        <time>2020-08-12T09:43:15.000Z</time>
      </trkpt>
      <trkpt lat="42.388666681945323944091796875" lon="1.2734831683337688446044921875">
        <ele>1612.5999755859375</ele>
        <time>2020-08-12T09:43:22.000Z</time>
      </trkpt>
      <trkpt lat="42.38880707882344722747802734375" lon="1.273552067577838897705078125">
        <ele>1612.4000244140625</ele>
        <time>2020-08-12T09:43:28.000Z</time>
      </trkpt>
      <trkpt lat="42.3889126069843769073486328125" lon="1.27360546030104160308837890625">
        <ele>1612</ele>
        <time>2020-08-12T09:43:33.000Z</time>
      </trkpt>
      <trkpt lat="42.3889620602130889892578125" lon="1.27362356521189212799072265625">
        <ele>1612.199951171875</ele>
        <time>2020-08-12T09:43:35.000Z</time>
      </trkpt>
      <trkpt lat="42.3890450410544872283935546875" lon="1.27366061322391033172607421875">
        <ele>1612.199951171875</ele>
        <time>2020-08-12T09:43:38.000Z</time>
      </trkpt>
      <trkpt lat="42.38929934799671173095703125" lon="1.273719705641269683837890625">
        <ele>1611.800048828125</ele>
        <time>2020-08-12T09:43:46.000Z</time>
      </trkpt>
      <trkpt lat="42.3894715122878551483154296875" lon="1.27374124713242053985595703125">
        <ele>1611.199951171875</ele>
        <time>2020-08-12T09:43:51.000Z</time>
      </trkpt>
      <trkpt lat="42.38950428552925586700439453125" lon="1.2737426720559597015380859375">
        <ele>1611.199951171875</ele>
        <time>2020-08-12T09:43:52.000Z</time>
      </trkpt>
      <trkpt lat="42.38972506485879421234130859375" lon="1.27377896569669246673583984375">
        <ele>1610.5999755859375</ele>
        <time>2020-08-12T09:43:59.000Z</time>
      </trkpt>
      <trkpt lat="42.38988867960870265960693359375" lon="1.27380897291004657745361328125">
        <ele>1610.199951171875</ele>
        <time>2020-08-12T09:44:04.000Z</time>
      </trkpt>
      <trkpt lat="42.38995707593858242034912109375" lon="1.273816935718059539794921875">
        <ele>1609.800048828125</ele>
        <time>2020-08-12T09:44:06.000Z</time>
      </trkpt>
      <trkpt lat="42.39015958271920680999755859375" lon="1.2738496251404285430908203125">
        <ele>1610.199951171875</ele>
        <time>2020-08-12T09:44:12.000Z</time>
      </trkpt>
      <trkpt lat="42.39034281112253665924072265625" lon="1.27384208142757415771484375">
        <ele>1609.800048828125</ele>
        <time>2020-08-12T09:44:17.000Z</time>
      </trkpt>
      <trkpt lat="42.3905148915946483612060546875" lon="1.27383931539952754974365234375">
        <ele>1609.199951171875</ele>
        <time>2020-08-12T09:44:22.000Z</time>
      </trkpt>
      <trkpt lat="42.3905477486550807952880859375" lon="1.273844428360462188720703125">
        <ele>1609.199951171875</ele>
        <time>2020-08-12T09:44:23.000Z</time>
      </trkpt>
      <trkpt lat="42.3906872235238552093505859375" lon="1.2738295085728168487548828125">
        <ele>1608.800048828125</ele>
        <time>2020-08-12T09:44:27.000Z</time>
      </trkpt>
      <trkpt lat="42.390897274017333984375" lon="1.273764632642269134521484375">
        <ele>1608.199951171875</ele>
        <time>2020-08-12T09:44:33.000Z</time>
      </trkpt>
      <trkpt lat="42.39108276553452014923095703125" lon="1.27370654605329036712646484375">
        <ele>1608.5999755859375</ele>
        <time>2020-08-12T09:44:40.000Z</time>
      </trkpt>
      <trkpt lat="42.3911991901695728302001953125" lon="1.2737161852419376373291015625">
        <ele>1609</ele>
        <time>2020-08-12T09:44:47.000Z</time>
      </trkpt>
      <trkpt lat="42.39121519960463047027587890625" lon="1.27373973838984966278076171875">
        <ele>1609</ele>
        <time>2020-08-12T09:44:49.000Z</time>
      </trkpt>
      <trkpt lat="42.3912196420133113861083984375" lon="1.2737409956753253936767578125">
        <ele>1609.199951171875</ele>
        <time>2020-08-12T09:44:52.000Z</time>
      </trkpt>
      <trkpt lat="42.39121067337691783905029296875" lon="1.273774690926074981689453125">
        <ele>1609</ele>
        <time>2020-08-12T09:45:04.000Z</time>
      </trkpt>
      <trkpt lat="42.3912072367966175079345703125" lon="1.27378952689468860626220703125">
        <ele>1609</ele>
        <time>2020-08-12T09:45:05.000Z</time>
      </trkpt>
      <trkpt lat="42.39119357429444789886474609375" lon="1.27387083135545253753662109375">
        <ele>1608.800048828125</ele>
        <time>2020-08-12T09:45:10.000Z</time>
      </trkpt>
      <trkpt lat="42.3911924846470355987548828125" lon="1.273888014256954193115234375">
        <ele>1609</ele>
        <time>2020-08-12T09:45:11.000Z</time>
      </trkpt>
      <trkpt lat="42.3911928199231624603271484375" lon="1.27391760237514972686767578125">
        <ele>1608.800048828125</ele>
        <time>2020-08-12T09:45:13.000Z</time>
      </trkpt>
      <trkpt lat="42.39120044745504856109619140625" lon="1.2739827297627925872802734375">
        <ele>1609.199951171875</ele>
        <time>2020-08-12T09:45:17.000Z</time>
      </trkpt>
      <trkpt lat="42.39118183963000774383544921875" lon="1.27406327985227108001708984375">
        <ele>1609.800048828125</ele>
        <time>2020-08-12T09:45:23.000Z</time>
      </trkpt>
      <trkpt lat="42.39117094315588474273681640625" lon="1.27407082356512546539306640625">
        <ele>1609.800048828125</ele>
        <time>2020-08-12T09:45:24.000Z</time>
      </trkpt>
      <trkpt lat="42.39113339222967624664306640625" lon="1.2741042673587799072265625">
        <ele>1610</ele>
        <time>2020-08-12T09:45:27.000Z</time>
      </trkpt>
      <trkpt lat="42.39110958762466907501220703125" lon="1.2741141580045223236083984375">
        <ele>1610.199951171875</ele>
        <time>2020-08-12T09:45:29.000Z</time>
      </trkpt>
      <trkpt lat="42.3910275287926197052001953125" lon="1.27414424903690814971923828125">
        <ele>1610.800048828125</ele>
        <time>2020-08-12T09:45:35.000Z</time>
      </trkpt>
      <trkpt lat="42.39092535339295864105224609375" lon="1.27413989044725894927978515625">
        <ele>1611</ele>
        <time>2020-08-12T09:45:42.000Z</time>
      </trkpt>
      <trkpt lat="42.3908545263111591339111328125" lon="1.27411030232906341552734375">
        <ele>1612.199951171875</ele>
        <time>2020-08-12T09:45:48.000Z</time>
      </trkpt>
      <trkpt lat="42.39075536839663982391357421875" lon="1.27408825792372226715087890625">
        <ele>1613</ele>
        <time>2020-08-12T09:45:54.000Z</time>
      </trkpt>
      <trkpt lat="42.390739358961582183837890625" lon="1.274089179933071136474609375">
        <ele>1613.199951171875</ele>
        <time>2020-08-12T09:45:55.000Z</time>
      </trkpt>
      <trkpt lat="42.3906577192246913909912109375" lon="1.27408926375210285186767578125">
        <ele>1614.4000244140625</ele>
        <time>2020-08-12T09:46:01.000Z</time>
      </trkpt>
      <trkpt lat="42.39060516469180583953857421875" lon="1.27409680746495723724365234375">
        <ele>1615.800048828125</ele>
        <time>2020-08-12T09:46:05.000Z</time>
      </trkpt>
      <trkpt lat="42.39056794904172420501708984375" lon="1.274117343127727508544921875">
        <ele>1616.5999755859375</ele>
        <time>2020-08-12T09:46:08.000Z</time>
      </trkpt>
      <trkpt lat="42.390553615987300872802734375" lon="1.27412714995443820953369140625">
        <ele>1616.800048828125</ele>
        <time>2020-08-12T09:46:09.000Z</time>
      </trkpt>
      <trkpt lat="42.3905432224273681640625" lon="1.274138130247592926025390625">
        <ele>1617.199951171875</ele>
        <time>2020-08-12T09:46:10.000Z</time>
      </trkpt>
      <trkpt lat="42.39052486605942249298095703125" lon="1.27419671975076198577880859375">
        <ele>1617.800048828125</ele>
        <time>2020-08-12T09:46:13.000Z</time>
      </trkpt>
      <trkpt lat="42.3905262909829616546630859375" lon="1.274218596518039703369140625">
        <ele>1618</ele>
        <time>2020-08-12T09:46:14.000Z</time>
      </trkpt>
      <trkpt lat="42.39053928293287754058837890625" lon="1.27426922321319580078125">
        <ele>1619</ele>
        <time>2020-08-12T09:46:17.000Z</time>
      </trkpt>
      <trkpt lat="42.39054649136960506439208984375" lon="1.27427919767796993255615234375">
        <ele>1619</ele>
        <time>2020-08-12T09:46:18.000Z</time>
      </trkpt>
      <trkpt lat="42.3906062543392181396484375" lon="1.2743089534342288970947265625">
        <ele>1619.800048828125</ele>
        <time>2020-08-12T09:46:24.000Z</time>
      </trkpt>
      <trkpt lat="42.39068060182034969329833984375" lon="1.27433535642921924591064453125">
        <ele>1620</ele>
        <time>2020-08-12T09:46:31.000Z</time>
      </trkpt>
      <trkpt lat="42.3907495848834514617919921875" lon="1.274370811879634857177734375">
        <ele>1621.199951171875</ele>
        <time>2020-08-12T09:46:37.000Z</time>
      </trkpt>
      <trkpt lat="42.390779592096805572509765625" lon="1.2743927724659442901611328125">
        <ele>1621.4000244140625</ele>
        <time>2020-08-12T09:46:40.000Z</time>
      </trkpt>
      <trkpt lat="42.390822507441043853759765625" lon="1.2744480930268764495849609375">
        <ele>1622.5999755859375</ele>
        <time>2020-08-12T09:46:46.000Z</time>
      </trkpt>
      <trkpt lat="42.39083223044872283935546875" lon="1.27445488236844539642333984375">
        <ele>1622.5999755859375</ele>
        <time>2020-08-12T09:46:47.000Z</time>
      </trkpt>
      <trkpt lat="42.3908585496246814727783203125" lon="1.274497546255588531494140625">
        <ele>1623.4000244140625</ele>
        <time>2020-08-12T09:46:51.000Z</time>
      </trkpt>
      <trkpt lat="42.39087472669780254364013671875" lon="1.27452042885124683380126953125">
        <ele>1623.5999755859375</ele>
        <time>2020-08-12T09:46:53.000Z</time>
      </trkpt>
      <trkpt lat="42.39088394679129123687744140625" lon="1.27453166060149669647216796875">
        <ele>1623.800048828125</ele>
        <time>2020-08-12T09:46:54.000Z</time>
      </trkpt>
      <trkpt lat="42.39090599119663238525390625" lon="1.27455395646393299102783203125">
        <ele>1624</ele>
        <time>2020-08-12T09:46:56.000Z</time>
      </trkpt>
      <trkpt lat="42.39094085991382598876953125" lon="1.27461187541484832763671875">
        <ele>1624.5999755859375</ele>
        <time>2020-08-12T09:47:00.000Z</time>
      </trkpt>
      <trkpt lat="42.39095150493085384368896484375" lon="1.274623610079288482666015625">
        <ele>1624.800048828125</ele>
        <time>2020-08-12T09:47:01.000Z</time>
      </trkpt>
      <trkpt lat="42.390992827713489532470703125" lon="1.27468764781951904296875">
        <ele>1625</ele>
        <time>2020-08-12T09:47:06.000Z</time>
      </trkpt>
      <trkpt lat="42.391006238758563995361328125" lon="1.2747158110141754150390625">
        <ele>1625.4000244140625</ele>
        <time>2020-08-12T09:47:08.000Z</time>
      </trkpt>
      <trkpt lat="42.39102400839328765869140625" lon="1.27475277520716190338134765625">
        <ele>1625.800048828125</ele>
        <time>2020-08-12T09:47:11.000Z</time>
      </trkpt>
      <trkpt lat="42.3910335637629032135009765625" lon="1.27476551569998264312744140625">
        <ele>1626</ele>
        <time>2020-08-12T09:47:12.000Z</time>
      </trkpt>
      <trkpt lat="42.3911043070256710052490234375" lon="1.27486794255673885345458984375">
        <ele>1626.800048828125</ele>
        <time>2020-08-12T09:47:21.000Z</time>
      </trkpt>
      <trkpt lat="42.39115677773952484130859375" lon="1.2749416194856166839599609375">
        <ele>1628</ele>
        <time>2020-08-12T09:47:27.000Z</time>
      </trkpt>
      <trkpt lat="42.39116616547107696533203125" lon="1.27495519816875457763671875">
        <ele>1628.199951171875</ele>
        <time>2020-08-12T09:47:28.000Z</time>
      </trkpt>
      <trkpt lat="42.39121989347040653228759765625" lon="1.27504111267626285552978515625">
        <ele>1629</ele>
        <time>2020-08-12T09:47:34.000Z</time>
      </trkpt>
      <trkpt lat="42.39123724400997161865234375" lon="1.27506910823285579681396484375">
        <ele>1629.199951171875</ele>
        <time>2020-08-12T09:47:36.000Z</time>
      </trkpt>
      <trkpt lat="42.39125006832182407379150390625" lon="1.27509861253201961517333984375">
        <ele>1629.199951171875</ele>
        <time>2020-08-12T09:47:38.000Z</time>
      </trkpt>
      <trkpt lat="42.39126783795654773712158203125" lon="1.27512576989829540252685546875">
        <ele>1629.800048828125</ele>
        <time>2020-08-12T09:47:40.000Z</time>
      </trkpt>
      <trkpt lat="42.39128493703901767730712890625" lon="1.27515544183552265167236328125">
        <ele>1630.199951171875</ele>
        <time>2020-08-12T09:47:42.000Z</time>
      </trkpt>
      <trkpt lat="42.39133380353450775146484375" lon="1.27522534690797328948974609375">
        <ele>1631.199951171875</ele>
        <time>2020-08-12T09:47:48.000Z</time>
      </trkpt>
      <trkpt lat="42.391342855989933013916015625" lon="1.2752401828765869140625">
        <ele>1631.4000244140625</ele>
        <time>2020-08-12T09:47:49.000Z</time>
      </trkpt>
      <trkpt lat="42.39140111021697521209716796875" lon="1.2753338925540447235107421875">
        <ele>1632</ele>
        <time>2020-08-12T09:47:55.000Z</time>
      </trkpt>
      <trkpt lat="42.39142365753650665283203125" lon="1.2753603793680667877197265625">
        <ele>1632.4000244140625</ele>
        <time>2020-08-12T09:47:57.000Z</time>
      </trkpt>
      <trkpt lat="42.39146120846271514892578125" lon="1.27541477791965007781982421875">
        <ele>1633.199951171875</ele>
        <time>2020-08-12T09:48:01.000Z</time>
      </trkpt>
      <trkpt lat="42.39150152541697025299072265625" lon="1.27549909986555576324462890625">
        <ele>1633.4000244140625</ele>
        <time>2020-08-12T09:48:06.000Z</time>
      </trkpt>
      <trkpt lat="42.391527593135833740234375" lon="1.27553991973400115966796875">
        <ele>1633.800048828125</ele>
        <time>2020-08-12T09:48:09.000Z</time>
      </trkpt>
      <trkpt lat="42.39153421483933925628662109375" lon="1.27555056475102901458740234375">
        <ele>1634.199951171875</ele>
        <time>2020-08-12T09:48:10.000Z</time>
      </trkpt>
      <trkpt lat="42.3915431834757328033447265625" lon="1.27556229941546916961669921875">
        <ele>1634.4000244140625</ele>
        <time>2020-08-12T09:48:11.000Z</time>
      </trkpt>
      <trkpt lat="42.39157880656421184539794921875" lon="1.27559356391429901123046875">
        <ele>1635.199951171875</ele>
        <time>2020-08-12T09:48:14.000Z</time>
      </trkpt>
      <trkpt lat="42.3915884457528591156005859375" lon="1.27560471184551715850830078125">
        <ele>1635.199951171875</ele>
        <time>2020-08-12T09:48:15.000Z</time>
      </trkpt>
      <trkpt lat="42.391617782413959503173828125" lon="1.2756480462849140167236328125">
        <ele>1635.5999755859375</ele>
        <time>2020-08-12T09:48:18.000Z</time>
      </trkpt>
      <trkpt lat="42.39163848571479320526123046875" lon="1.2756688334047794342041015625">
        <ele>1635.800048828125</ele>
        <time>2020-08-12T09:48:20.000Z</time>
      </trkpt>
      <trkpt lat="42.39166212268173694610595703125" lon="1.2756933085620403289794921875">
        <ele>1636.4000244140625</ele>
        <time>2020-08-12T09:48:22.000Z</time>
      </trkpt>
      <trkpt lat="42.3917155154049396514892578125" lon="1.2757372297346591949462890625">
        <ele>1637</ele>
        <time>2020-08-12T09:48:26.000Z</time>
      </trkpt>
      <trkpt lat="42.39172867499291896820068359375" lon="1.2757516466081142425537109375">
        <ele>1637</ele>
        <time>2020-08-12T09:48:27.000Z</time>
      </trkpt>
      <trkpt lat="42.39173940382897853851318359375" lon="1.27576966769993305206298828125">
        <ele>1637</ele>
        <time>2020-08-12T09:48:28.000Z</time>
      </trkpt>
      <trkpt lat="42.391765303909778594970703125" lon="1.27583236433565616607666015625">
        <ele>1637.5999755859375</ele>
        <time>2020-08-12T09:48:32.000Z</time>
      </trkpt>
      <trkpt lat="42.39179153926670551300048828125" lon="1.2758800573647022247314453125">
        <ele>1638</ele>
        <time>2020-08-12T09:48:35.000Z</time>
      </trkpt>
      <trkpt lat="42.39182909019291400909423828125" lon="1.27593914978206157684326171875">
        <ele>1638.5999755859375</ele>
        <time>2020-08-12T09:48:39.000Z</time>
      </trkpt>
      <trkpt lat="42.39187368191778659820556640625" lon="1.27601006068289279937744140625">
        <ele>1639.199951171875</ele>
        <time>2020-08-12T09:48:43.000Z</time>
      </trkpt>
      <trkpt lat="42.391903437674045562744140625" lon="1.276060603559017181396484375">
        <ele>1639.5999755859375</ele>
        <time>2020-08-12T09:48:46.000Z</time>
      </trkpt>
      <trkpt lat="42.391912825405597686767578125" lon="1.27607644535601139068603515625">
        <ele>1639.5999755859375</ele>
        <time>2020-08-12T09:48:47.000Z</time>
      </trkpt>
      <trkpt lat="42.39195146597921848297119140625" lon="1.27613671123981475830078125">
        <ele>1640.4000244140625</ele>
        <time>2020-08-12T09:48:51.000Z</time>
      </trkpt>
      <trkpt lat="42.3919783718883991241455078125" lon="1.276159174740314483642578125">
        <ele>1640.4000244140625</ele>
        <time>2020-08-12T09:48:53.000Z</time>
      </trkpt>
      <trkpt lat="42.39206328056752681732177734375" lon="1.2762451730668544769287109375">
        <ele>1641</ele>
        <time>2020-08-12T09:49:00.000Z</time>
      </trkpt>
      <trkpt lat="42.39208624698221683502197265625" lon="1.27627082169055938720703125">
        <ele>1641.4000244140625</ele>
        <time>2020-08-12T09:49:02.000Z</time>
      </trkpt>
      <trkpt lat="42.39214777015149593353271484375" lon="1.27634592354297637939453125">
        <ele>1642</ele>
        <time>2020-08-12T09:49:08.000Z</time>
      </trkpt>
      <trkpt lat="42.39217794500291347503662109375" lon="1.2763869948685169219970703125">
        <ele>1642.800048828125</ele>
        <time>2020-08-12T09:49:11.000Z</time>
      </trkpt>
      <trkpt lat="42.39218884147703647613525390625" lon="1.2763994000852108001708984375">
        <ele>1642.800048828125</ele>
        <time>2020-08-12T09:49:12.000Z</time>
      </trkpt>
      <trkpt lat="42.392203845083713531494140625" lon="1.27640769816935062408447265625">
        <ele>1643</ele>
        <time>2020-08-12T09:49:13.000Z</time>
      </trkpt>
      <trkpt lat="42.39228506572544574737548828125" lon="1.276495121419429779052734375">
        <ele>1643.5999755859375</ele>
        <time>2020-08-12T09:49:19.000Z</time>
      </trkpt>
      <trkpt lat="42.39229864440858364105224609375" lon="1.27650978974997997283935546875">
        <ele>1643.800048828125</ele>
        <time>2020-08-12T09:49:20.000Z</time>
      </trkpt>
      <trkpt lat="42.3923525400459766387939453125" lon="1.27657382749021053314208984375">
        <ele>1644.199951171875</ele>
        <time>2020-08-12T09:49:25.000Z</time>
      </trkpt>
      <trkpt lat="42.3924021609127521514892578125" lon="1.27664230763912200927734375">
        <ele>1644.800048828125</ele>
        <time>2020-08-12T09:49:30.000Z</time>
      </trkpt>
      <trkpt lat="42.39241498522460460662841796875" lon="1.27665345557034015655517578125">
        <ele>1645</ele>
        <time>2020-08-12T09:49:31.000Z</time>
      </trkpt>
      <trkpt lat="42.392464019358158111572265625" lon="1.27673760987818241119384765625">
        <ele>1646</ele>
        <time>2020-08-12T09:49:37.000Z</time>
      </trkpt>
      <trkpt lat="42.39246980287134647369384765625" lon="1.276749931275844573974609375">
        <ele>1646</ele>
        <time>2020-08-12T09:49:38.000Z</time>
      </trkpt>
      <trkpt lat="42.39247868768870830535888671875" lon="1.27676158212125301361083984375">
        <ele>1646.199951171875</ele>
        <time>2020-08-12T09:49:39.000Z</time>
      </trkpt>
      <trkpt lat="42.39251674152910709381103515625" lon="1.2768295593559741973876953125">
        <ele>1646.800048828125</ele>
        <time>2020-08-12T09:49:44.000Z</time>
      </trkpt>
      <trkpt lat="42.39256225526332855224609375" lon="1.27689150162041187286376953125">
        <ele>1647.199951171875</ele>
        <time>2020-08-12T09:49:48.000Z</time>
      </trkpt>
      <trkpt lat="42.39260357804596424102783203125" lon="1.27696408890187740325927734375">
        <ele>1647.4000244140625</ele>
        <time>2020-08-12T09:49:52.000Z</time>
      </trkpt>
      <trkpt lat="42.39268957637250423431396484375" lon="1.27710406668484210968017578125">
        <ele>1648.4000244140625</ele>
        <time>2020-08-12T09:50:00.000Z</time>
      </trkpt>
      <trkpt lat="42.39269996993243694305419921875" lon="1.2771219201385974884033203125">
        <ele>1648.4000244140625</ele>
        <time>2020-08-12T09:50:01.000Z</time>
      </trkpt>
      <trkpt lat="42.39273701794445514678955078125" lon="1.2771926634013652801513671875">
        <ele>1648.800048828125</ele>
        <time>2020-08-12T09:50:05.000Z</time>
      </trkpt>
      <trkpt lat="42.39274598658084869384765625" lon="1.2772104330360889434814453125">
        <ele>1649</ele>
        <time>2020-08-12T09:50:06.000Z</time>
      </trkpt>
      <trkpt lat="42.39276920445263385772705078125" lon="1.27723775804042816162109375">
        <ele>1649.4000244140625</ele>
        <time>2020-08-12T09:50:08.000Z</time>
      </trkpt>
      <trkpt lat="42.3927733115851879119873046875" lon="1.27725183963775634765625">
        <ele>1649.800048828125</ele>
        <time>2020-08-12T09:50:09.000Z</time>
      </trkpt>
      <trkpt lat="42.39278747700154781341552734375" lon="1.277278326451778411865234375">
        <ele>1650.199951171875</ele>
        <time>2020-08-12T09:50:11.000Z</time>
      </trkpt>
      <trkpt lat="42.392793260514736175537109375" lon="1.27729333005845546722412109375">
        <ele>1650.4000244140625</ele>
        <time>2020-08-12T09:50:12.000Z</time>
      </trkpt>
      <trkpt lat="42.39281547255814075469970703125" lon="1.2773435376584529876708984375">
        <ele>1651</ele>
        <time>2020-08-12T09:50:15.000Z</time>
      </trkpt>
      <trkpt lat="42.39284229464828968048095703125" lon="1.2774327211081981658935546875">
        <ele>1651.800048828125</ele>
        <time>2020-08-12T09:50:20.000Z</time>
      </trkpt>
      <trkpt lat="42.39284397102892398834228515625" lon="1.27744722180068492889404296875">
        <ele>1652</ele>
        <time>2020-08-12T09:50:21.000Z</time>
      </trkpt>
      <trkpt lat="42.39286324940621852874755859375" lon="1.27751394174993038177490234375">
        <ele>1652.4000244140625</ele>
        <time>2020-08-12T09:50:25.000Z</time>
      </trkpt>
      <trkpt lat="42.39286626689136028289794921875" lon="1.27753238193690776824951171875">
        <ele>1652.5999755859375</ele>
        <time>2020-08-12T09:50:26.000Z</time>
      </trkpt>
      <trkpt lat="42.392879426479339599609375" lon="1.2775664962828159332275390625">
        <ele>1653</ele>
        <time>2020-08-12T09:50:28.000Z</time>
      </trkpt>
      <trkpt lat="42.3928834497928619384765625" lon="1.27758284099400043487548828125">
        <ele>1653.199951171875</ele>
        <time>2020-08-12T09:50:29.000Z</time>
      </trkpt>
      <trkpt lat="42.39290281198918819427490234375" lon="1.2776204757392406463623046875">
        <ele>1653.800048828125</ele>
        <time>2020-08-12T09:50:32.000Z</time>
      </trkpt>
      <trkpt lat="42.3929392732679843902587890625" lon="1.27769649960100650787353515625">
        <ele>1654.4000244140625</ele>
        <time>2020-08-12T09:50:37.000Z</time>
      </trkpt>
      <trkpt lat="42.39294002763926982879638671875" lon="1.2777046300470829010009765625">
        <ele>1654.4000244140625</ele>
        <time>2020-08-12T09:50:39.000Z</time>
      </trkpt>
      <trkpt lat="42.3929707892239093780517578125" lon="1.27774075604975223541259765625">
        <ele>1654.4000244140625</ele>
        <time>2020-08-12T09:54:28.000Z</time>
      </trkpt>
      <trkpt lat="42.3929835297167301177978515625" lon="1.2777606211602687835693359375">
        <ele>1654.4000244140625</ele>
        <time>2020-08-12T09:54:30.000Z</time>
      </trkpt>
      <trkpt lat="42.3929907381534576416015625" lon="1.2777918018400669097900390625">
        <ele>1654.5999755859375</ele>
        <time>2020-08-12T09:54:32.000Z</time>
      </trkpt>
      <trkpt lat="42.3929955996572971343994140625" lon="1.2778075598180294036865234375">
        <ele>1654.800048828125</ele>
        <time>2020-08-12T09:54:33.000Z</time>
      </trkpt>
      <trkpt lat="42.3930167220532894134521484375" lon="1.2778793089091777801513671875">
        <ele>1654.800048828125</ele>
        <time>2020-08-12T09:54:38.000Z</time>
      </trkpt>
      <trkpt lat="42.3930395208299160003662109375" lon="1.27796689979732036590576171875">
        <ele>1655.199951171875</ele>
        <time>2020-08-12T09:54:44.000Z</time>
      </trkpt>
      <trkpt lat="42.39305016584694385528564453125" lon="1.27799288369715213775634765625">
        <ele>1655.5999755859375</ele>
        <time>2020-08-12T09:54:46.000Z</time>
      </trkpt>
      <trkpt lat="42.39307749085128307342529296875" lon="1.2780684046447277069091796875">
        <ele>1656.199951171875</ele>
        <time>2020-08-12T09:54:51.000Z</time>
      </trkpt>
      <trkpt lat="42.3931122757494449615478515625" lon="1.27817577682435512542724609375">
        <ele>1656.4000244140625</ele>
        <time>2020-08-12T09:54:57.000Z</time>
      </trkpt>
      <trkpt lat="42.3931196518242359161376953125" lon="1.27818935550749301910400390625">
        <ele>1656.4000244140625</ele>
        <time>2020-08-12T09:54:58.000Z</time>
      </trkpt>
      <trkpt lat="42.39313490688800811767578125" lon="1.27822439186275005340576171875">
        <ele>1656.5999755859375</ele>
        <time>2020-08-12T09:55:00.000Z</time>
      </trkpt>
      <trkpt lat="42.39313733763992786407470703125" lon="1.27824601717293262481689453125">
        <ele>1656.5999755859375</ele>
        <time>2020-08-12T09:55:01.000Z</time>
      </trkpt>
      <trkpt lat="42.39315108396112918853759765625" lon="1.2783540599048137664794921875">
        <ele>1657.199951171875</ele>
        <time>2020-08-12T09:55:06.000Z</time>
      </trkpt>
      <trkpt lat="42.39316575229167938232421875" lon="1.2783889286220073699951171875">
        <ele>1657.199951171875</ele>
        <time>2020-08-12T09:55:08.000Z</time>
      </trkpt>
      <trkpt lat="42.39317187108099460601806640625" lon="1.27840560860931873321533203125">
        <ele>1657.199951171875</ele>
        <time>2020-08-12T09:55:09.000Z</time>
      </trkpt>
      <trkpt lat="42.3932001180946826934814453125" lon="1.27847853116691112518310546875">
        <ele>1657.199951171875</ele>
        <time>2020-08-12T09:55:13.000Z</time>
      </trkpt>
      <trkpt lat="42.393215708434581756591796875" lon="1.278512142598628997802734375">
        <ele>1657.800048828125</ele>
        <time>2020-08-12T09:55:15.000Z</time>
      </trkpt>
      <trkpt lat="42.393247224390506744384765625" lon="1.27858062274754047393798828125">
        <ele>1658.5999755859375</ele>
        <time>2020-08-12T09:55:20.000Z</time>
      </trkpt>
      <trkpt lat="42.39325560629367828369140625" lon="1.27862152643501758575439453125">
        <ele>1659</ele>
        <time>2020-08-12T09:55:23.000Z</time>
      </trkpt>
      <trkpt lat="42.393260635435581207275390625" lon="1.2786444090306758880615234375">
        <ele>1659.199951171875</ele>
        <time>2020-08-12T09:55:25.000Z</time>
      </trkpt>
      <trkpt lat="42.393269352614879608154296875" lon="1.278671734035015106201171875">
        <ele>1659.4000244140625</ele>
        <time>2020-08-12T09:55:27.000Z</time>
      </trkpt>
      <trkpt lat="42.39327614195644855499267578125" lon="1.27868405543267726898193359375">
        <ele>1659.4000244140625</ele>
        <time>2020-08-12T09:55:28.000Z</time>
      </trkpt>
      <trkpt lat="42.39328921772539615631103515625" lon="1.278710626065731048583984375">
        <ele>1659.5999755859375</ele>
        <time>2020-08-12T09:55:30.000Z</time>
      </trkpt>
      <trkpt lat="42.39330229349434375762939453125" lon="1.27875848673284053802490234375">
        <ele>1659.5999755859375</ele>
        <time>2020-08-12T09:55:33.000Z</time>
      </trkpt>
      <trkpt lat="42.3933228291571140289306640625" lon="1.2787875719368457794189453125">
        <ele>1659.800048828125</ele>
        <time>2020-08-12T09:55:35.000Z</time>
      </trkpt>
      <trkpt lat="42.39336197264492511749267578125" lon="1.27886242233216762542724609375">
        <ele>1660</ele>
        <time>2020-08-12T09:55:40.000Z</time>
      </trkpt>
      <trkpt lat="42.39336867816746234893798828125" lon="1.27887784503400325775146484375">
        <ele>1660</ele>
        <time>2020-08-12T09:55:41.000Z</time>
      </trkpt>
      <trkpt lat="42.39341042004525661468505859375" lon="1.27900022082030773162841796875">
        <ele>1660.800048828125</ele>
        <time>2020-08-12T09:55:48.000Z</time>
      </trkpt>
      <trkpt lat="42.39345283247530460357666015625" lon="1.27913718111813068389892578125">
        <ele>1661</ele>
        <time>2020-08-12T09:55:55.000Z</time>
      </trkpt>
      <trkpt lat="42.39346255548298358917236328125" lon="1.27915478311479091644287109375">
        <ele>1661.199951171875</ele>
        <time>2020-08-12T09:55:56.000Z</time>
      </trkpt>
      <trkpt lat="42.39349775947630405426025390625" lon="1.27923876978456974029541015625">
        <ele>1661.5999755859375</ele>
        <time>2020-08-12T09:56:01.000Z</time>
      </trkpt>
      <trkpt lat="42.39355592988431453704833984375" lon="1.27936399541795253753662109375">
        <ele>1662.199951171875</ele>
        <time>2020-08-12T09:56:07.000Z</time>
      </trkpt>
      <trkpt lat="42.393571436405181884765625" lon="1.2794081680476665496826171875">
        <ele>1662.199951171875</ele>
        <time>2020-08-12T09:56:09.000Z</time>
      </trkpt>
      <trkpt lat="42.39365257322788238525390625" lon="1.27957873977720737457275390625">
        <ele>1662.4000244140625</ele>
        <time>2020-08-12T09:56:17.000Z</time>
      </trkpt>
      <trkpt lat="42.3937147669494152069091796875" lon="1.27975811250507831573486328125">
        <ele>1662.800048828125</ele>
        <time>2020-08-12T09:56:25.000Z</time>
      </trkpt>
      <trkpt lat="42.393721975386142730712890625" lon="1.2797959148883819580078125">
        <ele>1663</ele>
        <time>2020-08-12T09:56:27.000Z</time>
      </trkpt>
      <trkpt lat="42.39373094402253627777099609375" lon="1.27984964288771152496337890625">
        <ele>1663</ele>
        <time>2020-08-12T09:56:30.000Z</time>
      </trkpt>
      <trkpt lat="42.39374083466827869415283203125" lon="1.27989708445966243743896484375">
        <ele>1663.199951171875</ele>
        <time>2020-08-12T09:56:33.000Z</time>
      </trkpt>
      <trkpt lat="42.39374066703021526336669921875" lon="1.27991326153278350830078125">
        <ele>1663.4000244140625</ele>
        <time>2020-08-12T09:56:34.000Z</time>
      </trkpt>
      <trkpt lat="42.393740750849246978759765625" lon="1.279927678406238555908203125">
        <ele>1663.4000244140625</ele>
        <time>2020-08-12T09:56:35.000Z</time>
      </trkpt>
      <trkpt lat="42.39377796649932861328125" lon="1.28007427789270877838134765625">
        <ele>1663.800048828125</ele>
        <time>2020-08-12T09:56:42.000Z</time>
      </trkpt>
      <trkpt lat="42.39378869533538818359375" lon="1.28022314049303531646728515625">
        <ele>1664.199951171875</ele>
        <time>2020-08-12T09:56:49.000Z</time>
      </trkpt>
      <trkpt lat="42.39378375001251697540283203125" lon="1.28037569113075733184814453125">
        <ele>1664.800048828125</ele>
        <time>2020-08-12T09:56:56.000Z</time>
      </trkpt>
      <trkpt lat="42.39377369172871112823486328125" lon="1.28043721430003643035888671875">
        <ele>1665.4000244140625</ele>
        <time>2020-08-12T09:56:59.000Z</time>
      </trkpt>
      <trkpt lat="42.3937685787677764892578125" lon="1.28052723594009876251220703125">
        <ele>1665.800048828125</ele>
        <time>2020-08-12T09:57:04.000Z</time>
      </trkpt>
      <trkpt lat="42.3937687464058399200439453125" lon="1.28058473579585552215576171875">
        <ele>1666.199951171875</ele>
        <time>2020-08-12T09:57:08.000Z</time>
      </trkpt>
      <trkpt lat="42.39376815967261791229248046875" lon="1.2806175090372562408447265625">
        <ele>1666.4000244140625</ele>
        <time>2020-08-12T09:57:10.000Z</time>
      </trkpt>
      <trkpt lat="42.3937449418008327484130859375" lon="1.28072052262723445892333984375">
        <ele>1666.5999755859375</ele>
        <time>2020-08-12T09:57:16.000Z</time>
      </trkpt>
      <trkpt lat="42.393747456371784210205078125" lon="1.2807640247046947479248046875">
        <ele>1667</ele>
        <time>2020-08-12T09:57:18.000Z</time>
      </trkpt>
      <trkpt lat="42.3937402479350566864013671875" lon="1.28083971329033374786376953125">
        <ele>1667.4000244140625</ele>
        <time>2020-08-12T09:57:22.000Z</time>
      </trkpt>
      <trkpt lat="42.3937149345874786376953125" lon="1.280939877033233642578125">
        <ele>1667.800048828125</ele>
        <time>2020-08-12T09:57:28.000Z</time>
      </trkpt>
      <trkpt lat="42.39370177499949932098388671875" lon="1.2810216844081878662109375">
        <ele>1668.4000244140625</ele>
        <time>2020-08-12T09:57:32.000Z</time>
      </trkpt>
      <trkpt lat="42.3936959914863109588623046875" lon="1.28106099553406238555908203125">
        <ele>1668.4000244140625</ele>
        <time>2020-08-12T09:57:34.000Z</time>
      </trkpt>
      <trkpt lat="42.39368098787963390350341796875" lon="1.28115034662187099456787109375">
        <ele>1668.800048828125</ele>
        <time>2020-08-12T09:57:38.000Z</time>
      </trkpt>
      <trkpt lat="42.39367537200450897216796875" lon="1.2811908312141895294189453125">
        <ele>1669.199951171875</ele>
        <time>2020-08-12T09:57:40.000Z</time>
      </trkpt>
      <trkpt lat="42.393672354519367218017578125" lon="1.28123332746326923370361328125">
        <ele>1669.5999755859375</ele>
        <time>2020-08-12T09:57:42.000Z</time>
      </trkpt>
      <trkpt lat="42.3936513997614383697509765625" lon="1.28131094388663768768310546875">
        <ele>1670</ele>
        <time>2020-08-12T09:57:46.000Z</time>
      </trkpt>
      <trkpt lat="42.393635474145412445068359375" lon="1.28140381537377834320068359375">
        <ele>1670.4000244140625</ele>
        <time>2020-08-12T09:57:51.000Z</time>
      </trkpt>
      <trkpt lat="42.3936343006789684295654296875" lon="1.2814225070178508758544921875">
        <ele>1670.4000244140625</ele>
        <time>2020-08-12T09:57:52.000Z</time>
      </trkpt>
      <trkpt lat="42.39362214691936969757080078125" lon="1.28147162497043609619140625">
        <ele>1670.800048828125</ele>
        <time>2020-08-12T09:57:55.000Z</time>
      </trkpt>
      <trkpt lat="42.393622063100337982177734375" lon="1.2815059907734394073486328125">
        <ele>1671</ele>
        <time>2020-08-12T09:57:57.000Z</time>
      </trkpt>
      <trkpt lat="42.393618039786815643310546875" lon="1.281544379889965057373046875">
        <ele>1671</ele>
        <time>2020-08-12T09:57:59.000Z</time>
      </trkpt>
      <trkpt lat="42.393613345921039581298828125" lon="1.28165627829730510711669921875">
        <ele>1671.4000244140625</ele>
        <time>2020-08-12T09:58:05.000Z</time>
      </trkpt>
      <trkpt lat="42.39360739476978778839111328125" lon="1.2816893868148326873779296875">
        <ele>1671.800048828125</ele>
        <time>2020-08-12T09:58:07.000Z</time>
      </trkpt>
      <trkpt lat="42.3935860209167003631591796875" lon="1.281807906925678253173828125">
        <ele>1672.199951171875</ele>
        <time>2020-08-12T09:58:12.000Z</time>
      </trkpt>
      <trkpt lat="42.3935853503644466400146484375" lon="1.28191829659044742584228515625">
        <ele>1673</ele>
        <time>2020-08-12T09:58:17.000Z</time>
      </trkpt>
      <trkpt lat="42.39358283579349517822265625" lon="1.281942687928676605224609375">
        <ele>1673</ele>
        <time>2020-08-12T09:58:18.000Z</time>
      </trkpt>
      <trkpt lat="42.3935893736779689788818359375" lon="1.28209666348993778228759765625">
        <ele>1673.800048828125</ele>
        <time>2020-08-12T09:58:25.000Z</time>
      </trkpt>
      <trkpt lat="42.39361544139683246612548828125" lon="1.28218651749193668365478515625">
        <ele>1674</ele>
        <time>2020-08-12T09:58:29.000Z</time>
      </trkpt>
      <trkpt lat="42.3936249129474163055419921875" lon="1.28222800791263580322265625">
        <ele>1674.4000244140625</ele>
        <time>2020-08-12T09:58:31.000Z</time>
      </trkpt>
      <trkpt lat="42.3936322890222072601318359375" lon="1.28225239925086498260498046875">
        <ele>1674.5999755859375</ele>
        <time>2020-08-12T09:58:32.000Z</time>
      </trkpt>
      <trkpt lat="42.39366724155843257904052734375" lon="1.2823817320168018341064453125">
        <ele>1675</ele>
        <time>2020-08-12T09:58:39.000Z</time>
      </trkpt>
      <trkpt lat="42.39370529539883136749267578125" lon="1.28250695765018463134765625">
        <ele>1676</ele>
        <time>2020-08-12T09:58:46.000Z</time>
      </trkpt>
      <trkpt lat="42.39371166564524173736572265625" lon="1.28252313472330570220947265625">
        <ele>1676.199951171875</ele>
        <time>2020-08-12T09:58:47.000Z</time>
      </trkpt>
      <trkpt lat="42.393774949014186859130859375" lon="1.28263302147388458251953125">
        <ele>1677.199951171875</ele>
        <time>2020-08-12T09:58:54.000Z</time>
      </trkpt>
      <trkpt lat="42.39378534257411956787109375" lon="1.282645426690578460693359375">
        <ele>1677.199951171875</ele>
        <time>2020-08-12T09:58:55.000Z</time>
      </trkpt>
      <trkpt lat="42.393874190747737884521484375" lon="1.28270133398473262786865234375">
        <ele>1677.5999755859375</ele>
        <time>2020-08-12T09:59:03.000Z</time>
      </trkpt>
      <trkpt lat="42.393925487995147705078125" lon="1.282712481915950775146484375">
        <ele>1678</ele>
        <time>2020-08-12T09:59:07.000Z</time>
      </trkpt>
      <trkpt lat="42.3939444310963153839111328125" lon="1.28269563429057598114013671875">
        <ele>1678</ele>
        <time>2020-08-12T09:59:09.000Z</time>
      </trkpt>
      <trkpt lat="42.39398072473704814910888671875" lon="1.28264970146119594573974609375">
        <ele>1678</ele>
        <time>2020-08-12T09:59:13.000Z</time>
      </trkpt>
      <trkpt lat="42.39399916492402553558349609375" lon="1.28262405283749103546142578125">
        <ele>1678</ele>
        <time>2020-08-12T09:59:15.000Z</time>
      </trkpt>
      <trkpt lat="42.394096143543720245361328125" lon="1.28258901648223400115966796875">
        <ele>1677.800048828125</ele>
        <time>2020-08-12T09:59:21.000Z</time>
      </trkpt>
      <trkpt lat="42.39412757568061351776123046875" lon="1.282575018703937530517578125">
        <ele>1678</ele>
        <time>2020-08-12T09:59:23.000Z</time>
      </trkpt>
      <trkpt lat="42.3941777832806110382080078125" lon="1.2825317680835723876953125">
        <ele>1678.199951171875</ele>
        <time>2020-08-12T09:59:27.000Z</time>
      </trkpt>
      <trkpt lat="42.394257746636867523193359375" lon="1.28246764652431011199951171875">
        <ele>1678</ele>
        <time>2020-08-12T09:59:33.000Z</time>
      </trkpt>
      <trkpt lat="42.394387833774089813232421875" lon="1.28238885663449764251708984375">
        <ele>1677.5999755859375</ele>
        <time>2020-08-12T09:59:39.000Z</time>
      </trkpt>
      <trkpt lat="42.39454683847725391387939453125" lon="1.282267235219478607177734375">
        <ele>1677.199951171875</ele>
        <time>2020-08-12T09:59:45.000Z</time>
      </trkpt>
      <trkpt lat="42.39473157562315464019775390625" lon="1.2821460328996181488037109375">
        <ele>1677.199951171875</ele>
        <time>2020-08-12T09:59:51.000Z</time>
      </trkpt>
      <trkpt lat="42.39488094113767147064208984375" lon="1.28202944062650203704833984375">
        <ele>1677</ele>
        <time>2020-08-12T09:59:56.000Z</time>
      </trkpt>
      <trkpt lat="42.39504958502948284149169921875" lon="1.28189214505255222320556640625">
        <ele>1677</ele>
        <time>2020-08-12T10:00:02.000Z</time>
      </trkpt>
      <trkpt lat="42.39522359333932399749755859375" lon="1.28174076788127422332763671875">
        <ele>1676.800048828125</ele>
        <time>2020-08-12T10:00:09.000Z</time>
      </trkpt>
      <trkpt lat="42.39533909596502780914306640625" lon="1.28160975873470306396484375">
        <ele>1676.800048828125</ele>
        <time>2020-08-12T10:00:15.000Z</time>
      </trkpt>
      <trkpt lat="42.39547924138605594635009765625" lon="1.28144480288028717041015625">
        <ele>1676.5999755859375</ele>
        <time>2020-08-12T10:00:22.000Z</time>
      </trkpt>
      <trkpt lat="42.39558150060474872589111328125" lon="1.2813202477991580963134765625">
        <ele>1677.199951171875</ele>
        <time>2020-08-12T10:00:28.000Z</time>
      </trkpt>
      <trkpt lat="42.39569817669689655303955078125" lon="1.28119544126093387603759765625">
        <ele>1677.4000244140625</ele>
        <time>2020-08-12T10:00:35.000Z</time>
      </trkpt>
      <trkpt lat="42.3957948200404644012451171875" lon="1.2810902483761310577392578125">
        <ele>1677.4000244140625</ele>
        <time>2020-08-12T10:00:41.000Z</time>
      </trkpt>
      <trkpt lat="42.39589666016399860382080078125" lon="1.28094482235610485076904296875">
        <ele>1677.4000244140625</ele>
        <time>2020-08-12T10:00:47.000Z</time>
      </trkpt>
      <trkpt lat="42.39604032598435878753662109375" lon="1.2808042578399181365966796875">
        <ele>1677.800048828125</ele>
        <time>2020-08-12T10:00:55.000Z</time>
      </trkpt>
      <trkpt lat="42.39617653191089630126953125" lon="1.28076762892305850982666015625">
        <ele>1677</ele>
        <time>2020-08-12T10:01:00.000Z</time>
      </trkpt>
      <trkpt lat="42.39640661515295505523681640625" lon="1.2807749211788177490234375">
        <ele>1676.800048828125</ele>
        <time>2020-08-12T10:01:07.000Z</time>
      </trkpt>
      <trkpt lat="42.39658615551888942718505859375" lon="1.2807506136596202850341796875">
        <ele>1676.5999755859375</ele>
        <time>2020-08-12T10:01:13.000Z</time>
      </trkpt>
      <trkpt lat="42.3967369459569454193115234375" lon="1.28068976104259490966796875">
        <ele>1677</ele>
        <time>2020-08-12T10:01:20.000Z</time>
      </trkpt>
      <trkpt lat="42.3968764208257198333740234375" lon="1.2806520424783229827880859375">
        <ele>1677.4000244140625</ele>
        <time>2020-08-12T10:01:27.000Z</time>
      </trkpt>
      <trkpt lat="42.39694523625075817108154296875" lon="1.28063536249101161956787109375">
        <ele>1678</ele>
        <time>2020-08-12T10:01:30.000Z</time>
      </trkpt>
      <trkpt lat="42.3970355093479156494140625" lon="1.28063402138650417327880859375">
        <ele>1678.800048828125</ele>
        <time>2020-08-12T10:01:34.000Z</time>
      </trkpt>
      <trkpt lat="42.3970698751509189605712890625" lon="1.2806460075080394744873046875">
        <ele>1679.199951171875</ele>
        <time>2020-08-12T10:01:36.000Z</time>
      </trkpt>
      <trkpt lat="42.3971642553806304931640625" lon="1.28068498335778713226318359375">
        <ele>1679.4000244140625</ele>
        <time>2020-08-12T10:01:41.000Z</time>
      </trkpt>
      <trkpt lat="42.39724631421267986297607421875" lon="1.28073845990002155303955078125">
        <ele>1680.4000244140625</ele>
        <time>2020-08-12T10:01:46.000Z</time>
      </trkpt>
      <trkpt lat="42.39726223982870578765869140625" lon="1.280747763812541961669921875">
        <ele>1680.5999755859375</ele>
        <time>2020-08-12T10:01:47.000Z</time>
      </trkpt>
      <trkpt lat="42.3973867110908031463623046875" lon="1.28083602525293827056884765625">
        <ele>1680.800048828125</ele>
        <time>2020-08-12T10:01:55.000Z</time>
      </trkpt>
      <trkpt lat="42.39739987067878246307373046875" lon="1.2808473408222198486328125">
        <ele>1681.199951171875</ele>
        <time>2020-08-12T10:01:56.000Z</time>
      </trkpt>
      <trkpt lat="42.3974775709211826324462890625" lon="1.2809004820883274078369140625">
        <ele>1682.199951171875</ele>
        <time>2020-08-12T10:02:01.000Z</time>
      </trkpt>
      <trkpt lat="42.3974939994513988494873046875" lon="1.28091129474341869354248046875">
        <ele>1682.199951171875</ele>
        <time>2020-08-12T10:02:02.000Z</time>
      </trkpt>
      <trkpt lat="42.39754269830882549285888671875" lon="1.2809490971267223358154296875">
        <ele>1682.800048828125</ele>
        <time>2020-08-12T10:02:06.000Z</time>
      </trkpt>
      <trkpt lat="42.397568263113498687744140625" lon="1.2809573113918304443359375">
        <ele>1683</ele>
        <time>2020-08-12T10:02:08.000Z</time>
      </trkpt>
      <trkpt lat="42.39760740660130977630615234375" lon="1.280971057713031768798828125">
        <ele>1683</ele>
        <time>2020-08-12T10:02:10.000Z</time>
      </trkpt>
      <trkpt lat="42.397621907293796539306640625" lon="1.2809836305677890777587890625">
        <ele>1683.199951171875</ele>
        <time>2020-08-12T10:02:11.000Z</time>
      </trkpt>
      <trkpt lat="42.3976529203355312347412109375" lon="1.28100483678281307220458984375">
        <ele>1683.4000244140625</ele>
        <time>2020-08-12T10:02:13.000Z</time>
      </trkpt>
      <trkpt lat="42.39767161197960376739501953125" lon="1.28101657144725322723388671875">
        <ele>1683.4000244140625</ele>
        <time>2020-08-12T10:02:14.000Z</time>
      </trkpt>
      <trkpt lat="42.39774855785071849822998046875" lon="1.281041465699672698974609375">
        <ele>1683.5999755859375</ele>
        <time>2020-08-12T10:02:17.000Z</time>
      </trkpt>
      <trkpt lat="42.39788484759628772735595703125" lon="1.28109133802354335784912109375">
        <ele>1684.5999755859375</ele>
        <time>2020-08-12T10:02:23.000Z</time>
      </trkpt>
      <trkpt lat="42.39790697582066059112548828125" lon="1.28110357560217380523681640625">
        <ele>1684.5999755859375</ele>
        <time>2020-08-12T10:02:24.000Z</time>
      </trkpt>
      <trkpt lat="42.39806908182799816131591796875" lon="1.2811562977731227874755859375">
        <ele>1685</ele>
        <time>2020-08-12T10:02:31.000Z</time>
      </trkpt>
      <trkpt lat="42.39821693859994411468505859375" lon="1.28119678236544132232666015625">
        <ele>1685.4000244140625</ele>
        <time>2020-08-12T10:02:39.000Z</time>
      </trkpt>
      <trkpt lat="42.3982319422066211700439453125" lon="1.281203068792819976806640625">
        <ele>1685.5999755859375</ele>
        <time>2020-08-12T10:02:40.000Z</time>
      </trkpt>
      <trkpt lat="42.398317269980907440185546875" lon="1.2812069244682788848876953125">
        <ele>1685.800048828125</ele>
        <time>2020-08-12T10:02:45.000Z</time>
      </trkpt>
      <trkpt lat="42.398386336863040924072265625" lon="1.2812054157257080078125">
        <ele>1686.4000244140625</ele>
        <time>2020-08-12T10:02:49.000Z</time>
      </trkpt>
      <trkpt lat="42.3984250612556934356689453125" lon="1.28120734356343746185302734375">
        <ele>1686.5999755859375</ele>
        <time>2020-08-12T10:02:51.000Z</time>
      </trkpt>
      <trkpt lat="42.39850200712680816650390625" lon="1.28121756948530673980712890625">
        <ele>1687</ele>
        <time>2020-08-12T10:02:55.000Z</time>
      </trkpt>
      <trkpt lat="42.3985849879682064056396484375" lon="1.281224526464939117431640625">
        <ele>1687.199951171875</ele>
        <time>2020-08-12T10:03:00.000Z</time>
      </trkpt>
      <trkpt lat="42.39871365018188953399658203125" lon="1.28124774433672428131103515625">
        <ele>1687.4000244140625</ele>
        <time>2020-08-12T10:03:06.000Z</time>
      </trkpt>
      <trkpt lat="42.39873611368238925933837890625" lon="1.2812478281557559967041015625">
        <ele>1687.5999755859375</ele>
        <time>2020-08-12T10:03:07.000Z</time>
      </trkpt>
      <trkpt lat="42.398851700127124786376953125" lon="1.28125059418380260467529296875">
        <ele>1688.5999755859375</ele>
        <time>2020-08-12T10:03:12.000Z</time>
      </trkpt>
      <trkpt lat="42.39887843839824199676513671875" lon="1.281252689659595489501953125">
        <ele>1688.5999755859375</ele>
        <time>2020-08-12T10:03:13.000Z</time>
      </trkpt>
      <trkpt lat="42.399042136967182159423828125" lon="1.28125428222119808197021484375">
        <ele>1689.199951171875</ele>
        <time>2020-08-12T10:03:20.000Z</time>
      </trkpt>
      <trkpt lat="42.39911497570574283599853515625" lon="1.28125059418380260467529296875">
        <ele>1689.5999755859375</ele>
        <time>2020-08-12T10:03:23.000Z</time>
      </trkpt>
      <trkpt lat="42.3991901613771915435791015625" lon="1.28124405629932880401611328125">
        <ele>1689.800048828125</ele>
        <time>2020-08-12T10:03:27.000Z</time>
      </trkpt>
      <trkpt lat="42.399316392838954925537109375" lon="1.2812484987080097198486328125">
        <ele>1690</ele>
        <time>2020-08-12T10:03:33.000Z</time>
      </trkpt>
      <trkpt lat="42.3993816040456295013427734375" lon="1.28123483620584011077880859375">
        <ele>1690.4000244140625</ele>
        <time>2020-08-12T10:03:36.000Z</time>
      </trkpt>
      <trkpt lat="42.39946089684963226318359375" lon="1.2812256999313831329345703125">
        <ele>1690.800048828125</ele>
        <time>2020-08-12T10:03:39.000Z</time>
      </trkpt>
      <trkpt lat="42.3995975218713283538818359375" lon="1.28121010959148406982421875">
        <ele>1691.5999755859375</ele>
        <time>2020-08-12T10:03:44.000Z</time>
      </trkpt>
      <trkpt lat="42.3996786586940288543701171875" lon="1.281194351613521575927734375">
        <ele>1691.5999755859375</ele>
        <time>2020-08-12T10:03:47.000Z</time>
      </trkpt>
      <trkpt lat="42.39985409192740917205810546875" lon="1.28115772269666194915771484375">
        <ele>1692.800048828125</ele>
        <time>2020-08-12T10:03:54.000Z</time>
      </trkpt>
      <trkpt lat="42.39987923763692378997802734375" lon="1.28115319646894931793212890625">
        <ele>1693</ele>
        <time>2020-08-12T10:03:55.000Z</time>
      </trkpt>
      <trkpt lat="42.40009599365293979644775390625" lon="1.2811043299734592437744140625">
        <ele>1693</ele>
        <time>2020-08-12T10:04:04.000Z</time>
      </trkpt>
      <trkpt lat="42.40017964504659175872802734375" lon="1.28108496777713298797607421875">
        <ele>1693.800048828125</ele>
        <time>2020-08-12T10:04:08.000Z</time>
      </trkpt>
      <trkpt lat="42.40022289566695690155029296875" lon="1.2810768373310565948486328125">
        <ele>1694.199951171875</ele>
        <time>2020-08-12T10:04:10.000Z</time>
      </trkpt>
      <trkpt lat="42.40035985596477985382080078125" lon="1.281072981655597686767578125">
        <ele>1694.4000244140625</ele>
        <time>2020-08-12T10:04:17.000Z</time>
      </trkpt>
      <trkpt lat="42.40045038051903247833251953125" lon="1.2810607440769672393798828125">
        <ele>1695</ele>
        <time>2020-08-12T10:04:22.000Z</time>
      </trkpt>
      <trkpt lat="42.40046848542988300323486328125" lon="1.2810530327260494232177734375">
        <ele>1695.199951171875</ele>
        <time>2020-08-12T10:04:23.000Z</time>
      </trkpt>
      <trkpt lat="42.4006238020956516265869140625" lon="1.2809987179934978485107421875">
        <ele>1696</ele>
        <time>2020-08-12T10:04:30.000Z</time>
      </trkpt>
      <trkpt lat="42.40064953453838825225830078125" lon="1.280985809862613677978515625">
        <ele>1696</ele>
        <time>2020-08-12T10:04:31.000Z</time>
      </trkpt>
      <trkpt lat="42.400759421288967132568359375" lon="1.28093426115810871124267578125">
        <ele>1696.4000244140625</ele>
        <time>2020-08-12T10:04:36.000Z</time>
      </trkpt>
      <trkpt lat="42.40089495666325092315673828125" lon="1.2808662839233875274658203125">
        <ele>1696.4000244140625</ele>
        <time>2020-08-12T10:04:43.000Z</time>
      </trkpt>
      <trkpt lat="42.40098170936107635498046875" lon="1.28082999028265476226806640625">
        <ele>1697</ele>
        <time>2020-08-12T10:04:47.000Z</time>
      </trkpt>
      <trkpt lat="42.40103174932301044464111328125" lon="1.28080635331571102142333984375">
        <ele>1697</ele>
        <time>2020-08-12T10:04:50.000Z</time>
      </trkpt>
      <trkpt lat="42.4011518619954586029052734375" lon="1.28080048598349094390869140625">
        <ele>1697.4000244140625</ele>
        <time>2020-08-12T10:04:56.000Z</time>
      </trkpt>
      <trkpt lat="42.40129150450229644775390625" lon="1.280826888978481292724609375">
        <ele>1697.800048828125</ele>
        <time>2020-08-12T10:05:02.000Z</time>
      </trkpt>
      <trkpt lat="42.40137859247624874114990234375" lon="1.28088824450969696044921875">
        <ele>1698</ele>
        <time>2020-08-12T10:05:06.000Z</time>
      </trkpt>
      <trkpt lat="42.40143500268459320068359375" lon="1.28093442879617214202880859375">
        <ele>1698.5999755859375</ele>
        <time>2020-08-12T10:05:09.000Z</time>
      </trkpt>
      <trkpt lat="42.4014730565249919891357421875" lon="1.28095529973506927490234375">
        <ele>1699.199951171875</ele>
        <time>2020-08-12T10:05:11.000Z</time>
      </trkpt>
      <trkpt lat="42.40155528299510478973388671875" lon="1.2810107879340648651123046875">
        <ele>1699.5999755859375</ele>
        <time>2020-08-12T10:05:16.000Z</time>
      </trkpt>
      <trkpt lat="42.40165368653833866119384765625" lon="1.28103115595877170562744140625">
        <ele>1700.199951171875</ele>
        <time>2020-08-12T10:05:21.000Z</time>
      </trkpt>
      <trkpt lat="42.40176583640277385711669921875" lon="1.2810362689197063446044921875">
        <ele>1700.5999755859375</ele>
        <time>2020-08-12T10:05:26.000Z</time>
      </trkpt>
      <trkpt lat="42.401929199695587158203125" lon="1.281038783490657806396484375">
        <ele>1701</ele>
        <time>2020-08-12T10:05:32.000Z</time>
      </trkpt>
      <trkpt lat="42.40200228989124298095703125" lon="1.28103417344391345977783203125">
        <ele>1701</ele>
        <time>2020-08-12T10:05:35.000Z</time>
      </trkpt>
      <trkpt lat="42.40204880945384502410888671875" lon="1.281020343303680419921875">
        <ele>1701.199951171875</ele>
        <time>2020-08-12T10:05:37.000Z</time>
      </trkpt>
      <trkpt lat="42.402142770588397979736328125" lon="1.281023360788822174072265625">
        <ele>1701.4000244140625</ele>
        <time>2020-08-12T10:05:42.000Z</time>
      </trkpt>
      <trkpt lat="42.402254082262516021728515625" lon="1.28099762834608554840087890625">
        <ele>1701.800048828125</ele>
        <time>2020-08-12T10:05:48.000Z</time>
      </trkpt>
      <trkpt lat="42.402414344251155853271484375" lon="1.2809695489704608917236328125">
        <ele>1701.800048828125</ele>
        <time>2020-08-12T10:05:54.000Z</time>
      </trkpt>
      <trkpt lat="42.40258944220840930938720703125" lon="1.28092705272138118743896484375">
        <ele>1702</ele>
        <time>2020-08-12T10:06:01.000Z</time>
      </trkpt>
      <trkpt lat="42.4027712456881999969482421875" lon="1.280879862606525421142578125">
        <ele>1702</ele>
        <time>2020-08-12T10:06:08.000Z</time>
      </trkpt>
      <trkpt lat="42.40282145328819751739501953125" lon="1.28086435608565807342529296875">
        <ele>1702.199951171875</ele>
        <time>2020-08-12T10:06:10.000Z</time>
      </trkpt>
      <trkpt lat="42.4029429070651531219482421875" lon="1.28082948736846446990966796875">
        <ele>1702.5999755859375</ele>
        <time>2020-08-12T10:06:15.000Z</time>
      </trkpt>
      <trkpt lat="42.403078861534595489501953125" lon="1.2807965464890003204345703125">
        <ele>1703.199951171875</ele>
        <time>2020-08-12T10:06:21.000Z</time>
      </trkpt>
      <trkpt lat="42.403097636997699737548828125" lon="1.2807941995561122894287109375">
        <ele>1703.4000244140625</ele>
        <time>2020-08-12T10:06:22.000Z</time>
      </trkpt>
      <trkpt lat="42.40323501639068126678466796875" lon="1.28075203858315944671630859375">
        <ele>1704</ele>
        <time>2020-08-12T10:06:29.000Z</time>
      </trkpt>
      <trkpt lat="42.403346411883831024169921875" lon="1.28071725368499755859375">
        <ele>1705.199951171875</ele>
        <time>2020-08-12T10:06:35.000Z</time>
      </trkpt>
      <trkpt lat="42.4034458212554454803466796875" lon="1.28067760728299617767333984375">
        <ele>1706.4000244140625</ele>
        <time>2020-08-12T10:06:41.000Z</time>
      </trkpt>
      <trkpt lat="42.40352838300168514251708984375" lon="1.28064508549869060516357421875">
        <ele>1706.800048828125</ele>
        <time>2020-08-12T10:06:46.000Z</time>
      </trkpt>
      <trkpt lat="42.4035752378404140472412109375" lon="1.28062094561755657196044921875">
        <ele>1707.4000244140625</ele>
        <time>2020-08-12T10:06:49.000Z</time>
      </trkpt>
      <trkpt lat="42.4036107771098613739013671875" lon="1.280590854585170745849609375">
        <ele>1707.800048828125</ele>
        <time>2020-08-12T10:06:52.000Z</time>
      </trkpt>
      <trkpt lat="42.40363449789583683013916015625" lon="1.2805749289691448211669921875">
        <ele>1708</ele>
        <time>2020-08-12T10:06:54.000Z</time>
      </trkpt>
      <trkpt lat="42.4036815203726291656494140625" lon="1.280556656420230865478515625">
        <ele>1708.4000244140625</ele>
        <time>2020-08-12T10:06:57.000Z</time>
      </trkpt>
      <trkpt lat="42.40374840795993804931640625" lon="1.28053394146263599395751953125">
        <ele>1709.199951171875</ele>
        <time>2020-08-12T10:07:02.000Z</time>
      </trkpt>
      <trkpt lat="42.4038045667111873626708984375" lon="1.28051449544727802276611328125">
        <ele>1709.5999755859375</ele>
        <time>2020-08-12T10:07:06.000Z</time>
      </trkpt>
      <trkpt lat="42.40384002216160297393798828125" lon="1.2804973125457763671875">
        <ele>1709.5999755859375</ele>
        <time>2020-08-12T10:07:08.000Z</time>
      </trkpt>
      <trkpt lat="42.40393976680934429168701171875" lon="1.2804626114666461944580078125">
        <ele>1710.4000244140625</ele>
        <time>2020-08-12T10:07:14.000Z</time>
      </trkpt>
      <trkpt lat="42.40395317785441875457763671875" lon="1.28045716322958469390869140625">
        <ele>1710.5999755859375</ele>
        <time>2020-08-12T10:07:15.000Z</time>
      </trkpt>
      <trkpt lat="42.4040201492607593536376953125" lon="1.280428580939769744873046875">
        <ele>1710.800048828125</ele>
        <time>2020-08-12T10:07:20.000Z</time>
      </trkpt>
      <trkpt lat="42.40406499244272708892822265625" lon="1.28038977272808551788330078125">
        <ele>1711</ele>
        <time>2020-08-12T10:07:23.000Z</time>
      </trkpt>
      <trkpt lat="42.40409374237060546875" lon="1.28037166781723499298095703125">
        <ele>1711.4000244140625</ele>
        <time>2020-08-12T10:07:25.000Z</time>
      </trkpt>
      <trkpt lat="42.40410824306309223175048828125" lon="1.28036328591406345367431640625">
        <ele>1711.4000244140625</ele>
        <time>2020-08-12T10:07:26.000Z</time>
      </trkpt>
      <trkpt lat="42.404147051274776458740234375" lon="1.28033445216715335845947265625">
        <ele>1712.199951171875</ele>
        <time>2020-08-12T10:07:29.000Z</time>
      </trkpt>
      <trkpt lat="42.40416289307177066802978515625" lon="1.28031953237950801849365234375">
        <ele>1712.199951171875</ele>
        <time>2020-08-12T10:07:30.000Z</time>
      </trkpt>
      <trkpt lat="42.40418133325874805450439453125" lon="1.28030729480087757110595703125">
        <ele>1712.4000244140625</ele>
        <time>2020-08-12T10:07:31.000Z</time>
      </trkpt>
      <trkpt lat="42.404269762337207794189453125" lon="1.28024795092642307281494140625">
        <ele>1713.199951171875</ele>
        <time>2020-08-12T10:07:36.000Z</time>
      </trkpt>
      <trkpt lat="42.4043185450136661529541015625" lon="1.28021241165697574615478515625">
        <ele>1713.5999755859375</ele>
        <time>2020-08-12T10:07:39.000Z</time>
      </trkpt>
      <trkpt lat="42.40435902960598468780517578125" lon="1.28018709830939769744873046875">
        <ele>1714.199951171875</ele>
        <time>2020-08-12T10:07:42.000Z</time>
      </trkpt>
      <trkpt lat="42.40438635461032390594482421875" lon="1.28017008304595947265625">
        <ele>1714.800048828125</ele>
        <time>2020-08-12T10:07:44.000Z</time>
      </trkpt>
      <trkpt lat="42.40441091358661651611328125" lon="1.28015122376382350921630859375">
        <ele>1715</ele>
        <time>2020-08-12T10:07:46.000Z</time>
      </trkpt>
      <trkpt lat="42.40444418974220752716064453125" lon="1.2801363877952098846435546875">
        <ele>1715.4000244140625</ele>
        <time>2020-08-12T10:07:48.000Z</time>
      </trkpt>
      <trkpt lat="42.40452800877392292022705078125" lon="1.2800998426973819732666015625">
        <ele>1715.800048828125</ele>
        <time>2020-08-12T10:07:53.000Z</time>
      </trkpt>
      <trkpt lat="42.40454510785639286041259765625" lon="1.28009573556482791900634765625">
        <ele>1715.800048828125</ele>
        <time>2020-08-12T10:07:54.000Z</time>
      </trkpt>
      <trkpt lat="42.40465306676924228668212890625" lon="1.2800606153905391693115234375">
        <ele>1716.4000244140625</ele>
        <time>2020-08-12T10:08:01.000Z</time>
      </trkpt>
      <trkpt lat="42.4047044478356838226318359375" lon="1.28005868755280971527099609375">
        <ele>1716.800048828125</ele>
        <time>2020-08-12T10:08:04.000Z</time>
      </trkpt>
      <trkpt lat="42.404756247997283935546875" lon="1.28007511608302593231201171875">
        <ele>1717.199951171875</ele>
        <time>2020-08-12T10:08:07.000Z</time>
      </trkpt>
      <trkpt lat="42.40480343811213970184326171875" lon="1.28008894622325897216796875">
        <ele>1717.199951171875</ele>
        <time>2020-08-12T10:08:10.000Z</time>
      </trkpt>
      <trkpt lat="42.40483428351581096649169921875" lon="1.280106715857982635498046875">
        <ele>1717.199951171875</ele>
        <time>2020-08-12T10:08:12.000Z</time>
      </trkpt>
      <trkpt lat="42.40484853275120258331298828125" lon="1.2801125831902027130126953125">
        <ele>1717.199951171875</ele>
        <time>2020-08-12T10:08:13.000Z</time>
      </trkpt>
      <trkpt lat="42.404920198023319244384765625" lon="1.2801508046686649322509765625">
        <ele>1717.4000244140625</ele>
        <time>2020-08-12T10:08:18.000Z</time>
      </trkpt>
      <trkpt lat="42.40503477863967418670654296875" lon="1.28021174110472202301025390625">
        <ele>1716.4000244140625</ele>
        <time>2020-08-12T10:08:23.000Z</time>
      </trkpt>
      <trkpt lat="42.40516603924334049224853515625" lon="1.28032037056982517242431640625">
        <ele>1716.199951171875</ele>
        <time>2020-08-12T10:08:28.000Z</time>
      </trkpt>
      <trkpt lat="42.4053424783051013946533203125" lon="1.280498988926410675048828125">
        <ele>1715.4000244140625</ele>
        <time>2020-08-12T10:08:34.000Z</time>
      </trkpt>
      <trkpt lat="42.4053837172687053680419921875" lon="1.28053377382457256317138671875">
        <ele>1715.199951171875</ele>
        <time>2020-08-12T10:08:35.000Z</time>
      </trkpt>
      <trkpt lat="42.40545957349240779876708984375" lon="1.2805950455367565155029296875">
        <ele>1714.4000244140625</ele>
        <time>2020-08-12T10:08:37.000Z</time>
      </trkpt>
      <trkpt lat="42.40552143193781375885009765625" lon="1.28063636831939220428466796875">
        <ele>1713.800048828125</ele>
        <time>2020-08-12T10:08:39.000Z</time>
      </trkpt>
      <trkpt lat="42.4055595695972442626953125" lon="1.28066402859985828399658203125">
        <ele>1713.199951171875</ele>
        <time>2020-08-12T10:08:41.000Z</time>
      </trkpt>
      <trkpt lat="42.405646741390228271484375" lon="1.28072731196880340576171875">
        <ele>1712.4000244140625</ele>
        <time>2020-08-12T10:08:45.000Z</time>
      </trkpt>
      <trkpt lat="42.4057484976947307586669921875" lon="1.2807955406606197357177734375">
        <ele>1712</ele>
        <time>2020-08-12T10:08:49.000Z</time>
      </trkpt>
      <trkpt lat="42.40576542913913726806640625" lon="1.28081155009567737579345703125">
        <ele>1711.800048828125</ele>
        <time>2020-08-12T10:08:50.000Z</time>
      </trkpt>
      <trkpt lat="42.405834831297397613525390625" lon="1.2808568961918354034423828125">
        <ele>1710.800048828125</ele>
        <time>2020-08-12T10:08:55.000Z</time>
      </trkpt>
      <trkpt lat="42.40583776496350765228271484375" lon="1.28086301498115062713623046875">
        <ele>1710.5999755859375</ele>
        <time>2020-08-12T10:09:09.000Z</time>
      </trkpt>
      <trkpt lat="42.4058380164206027984619140625" lon="1.28086335025727748870849609375">
        <ele>1710.800048828125</ele>
        <time>2020-08-12T10:09:25.000Z</time>
      </trkpt>
      <trkpt lat="42.4058393575251102447509765625" lon="1.28086770884692668914794921875">
        <ele>1710.800048828125</ele>
        <time>2020-08-12T10:09:53.000Z</time>
      </trkpt>
      <trkpt lat="42.405835501849651336669921875" lon="1.28087156452238559722900390625">
        <ele>1711</ele>
        <time>2020-08-12T10:10:04.000Z</time>
      </trkpt>
      <trkpt lat="42.405835501849651336669921875" lon="1.2808709777891635894775390625">
        <ele>1711.199951171875</ele>
        <time>2020-08-12T10:10:24.000Z</time>
      </trkpt>
      <trkpt lat="42.405835501849651336669921875" lon="1.2808719836175441741943359375">
        <ele>1710.800048828125</ele>
        <time>2020-08-12T10:10:39.000Z</time>
      </trkpt>
      <trkpt lat="42.405876405537128448486328125" lon="1.28089050762355327606201171875">
        <ele>1710.199951171875</ele>
        <time>2020-08-12T10:10:46.000Z</time>
      </trkpt>
      <trkpt lat="42.40603742189705371856689453125" lon="1.28100626170635223388671875">
        <ele>1710.5999755859375</ele>
        <time>2020-08-12T10:10:52.000Z</time>
      </trkpt>
      <trkpt lat="42.4061421118676662445068359375" lon="1.2810748256742954254150390625">
        <ele>1710</ele>
        <time>2020-08-12T10:10:55.000Z</time>
      </trkpt>
      <trkpt lat="42.40625225007534027099609375" lon="1.28114095889031887054443359375">
        <ele>1709.800048828125</ele>
        <time>2020-08-12T10:10:58.000Z</time>
      </trkpt>
      <trkpt lat="42.40643656812608242034912109375" lon="1.28116794861853122711181640625">
        <ele>1709.800048828125</ele>
        <time>2020-08-12T10:11:03.000Z</time>
      </trkpt>
      <trkpt lat="42.40662566386163234710693359375" lon="1.28117146901786327362060546875">
        <ele>1709.5999755859375</ele>
        <time>2020-08-12T10:11:07.000Z</time>
      </trkpt>
      <trkpt lat="42.40667562000453472137451171875" lon="1.28118219785392284393310546875">
        <ele>1709.5999755859375</ele>
        <time>2020-08-12T10:11:08.000Z</time>
      </trkpt>
      <trkpt lat="42.40673244930803775787353515625" lon="1.28119401633739471435546875">
        <ele>1708.5999755859375</ele>
        <time>2020-08-12T10:11:09.000Z</time>
      </trkpt>
      <trkpt lat="42.4068515561521053314208984375" lon="1.2812335789203643798828125">
        <ele>1707.4000244140625</ele>
        <time>2020-08-12T10:11:11.000Z</time>
      </trkpt>
      <trkpt lat="42.4069125764071941375732421875" lon="1.28125310875475406646728515625">
        <ele>1707</ele>
        <time>2020-08-12T10:11:12.000Z</time>
      </trkpt>
      <trkpt lat="42.40702816285192966461181640625" lon="1.28128328360617160797119140625">
        <ele>1706.199951171875</ele>
        <time>2020-08-12T10:11:14.000Z</time>
      </trkpt>
      <trkpt lat="42.4071509577333927154541015625" lon="1.28130055032670497894287109375">
        <ele>1706</ele>
        <time>2020-08-12T10:11:16.000Z</time>
      </trkpt>
      <trkpt lat="42.4072146601974964141845703125" lon="1.2813068367540836334228515625">
        <ele>1706</ele>
        <time>2020-08-12T10:11:17.000Z</time>
      </trkpt>
      <trkpt lat="42.407334186136722564697265625" lon="1.28132871352136135101318359375">
        <ele>1704.5999755859375</ele>
        <time>2020-08-12T10:11:19.000Z</time>
      </trkpt>
      <trkpt lat="42.4074875749647617340087890625" lon="1.28136760555207729339599609375">
        <ele>1704.199951171875</ele>
        <time>2020-08-12T10:11:22.000Z</time>
      </trkpt>
      <trkpt lat="42.40777834318578243255615234375" lon="1.28144119866192340850830078125">
        <ele>1703.800048828125</ele>
        <time>2020-08-12T10:11:28.000Z</time>
      </trkpt>
      <trkpt lat="42.4078174866735935211181640625" lon="1.28145243041217327117919921875">
        <ele>1703.4000244140625</ele>
        <time>2020-08-12T10:11:29.000Z</time>
      </trkpt>
      <trkpt lat="42.40785948000848293304443359375" lon="1.28145276568830013275146484375">
        <ele>1703</ele>
        <time>2020-08-12T10:11:30.000Z</time>
      </trkpt>
      <trkpt lat="42.40796157158911228179931640625" lon="1.28142829053103923797607421875">
        <ele>1702.4000244140625</ele>
        <time>2020-08-12T10:11:32.000Z</time>
      </trkpt>
      <trkpt lat="42.4081339873373508453369140625" lon="1.2813963554799556732177734375">
        <ele>1700.800048828125</ele>
        <time>2020-08-12T10:11:35.000Z</time>
      </trkpt>
      <trkpt lat="42.40818905644118785858154296875" lon="1.28140456974506378173828125">
        <ele>1700.4000244140625</ele>
        <time>2020-08-12T10:11:36.000Z</time>
      </trkpt>
      <trkpt lat="42.40829114802181720733642578125" lon="1.28145528025925159454345703125">
        <ele>1699.4000244140625</ele>
        <time>2020-08-12T10:11:38.000Z</time>
      </trkpt>
      <trkpt lat="42.40833900868892669677734375" lon="1.2814966030418872833251953125">
        <ele>1699.199951171875</ele>
        <time>2020-08-12T10:11:39.000Z</time>
      </trkpt>
      <trkpt lat="42.40838594734668731689453125" lon="1.28153759054839611053466796875">
        <ele>1698.800048828125</ele>
        <time>2020-08-12T10:11:40.000Z</time>
      </trkpt>
      <trkpt lat="42.4084927327930927276611328125" lon="1.2816018797457218170166015625">
        <ele>1698.4000244140625</ele>
        <time>2020-08-12T10:11:42.000Z</time>
      </trkpt>
      <trkpt lat="42.408611588180065155029296875" lon="1.2816414423286914825439453125">
        <ele>1697.800048828125</ele>
        <time>2020-08-12T10:11:44.000Z</time>
      </trkpt>
      <trkpt lat="42.40866816602647304534912109375" lon="1.281650327146053314208984375">
        <ele>1697.800048828125</ele>
        <time>2020-08-12T10:11:45.000Z</time>
      </trkpt>
      <trkpt lat="42.40882851183414459228515625" lon="1.281646303832530975341796875">
        <ele>1697.199951171875</ele>
        <time>2020-08-12T10:11:48.000Z</time>
      </trkpt>
      <trkpt lat="42.4088736064732074737548828125" lon="1.28162593580782413482666015625">
        <ele>1697</ele>
        <time>2020-08-12T10:11:49.000Z</time>
      </trkpt>
      <trkpt lat="42.40903479047119617462158203125" lon="1.2815080024302005767822265625">
        <ele>1696.4000244140625</ele>
        <time>2020-08-12T10:11:53.000Z</time>
      </trkpt>
      <trkpt lat="42.40907954983413219451904296875" lon="1.28148101270198822021484375">
        <ele>1696.5999755859375</ele>
        <time>2020-08-12T10:11:54.000Z</time>
      </trkpt>
      <trkpt lat="42.409172840416431427001953125" lon="1.28144748508930206298828125">
        <ele>1696.5999755859375</ele>
        <time>2020-08-12T10:11:56.000Z</time>
      </trkpt>
      <trkpt lat="42.40930116735398769378662109375" lon="1.281444467604160308837890625">
        <ele>1696.199951171875</ele>
        <time>2020-08-12T10:11:59.000Z</time>
      </trkpt>
      <trkpt lat="42.40934257395565509796142578125" lon="1.281452514231204986572265625">
        <ele>1695.800048828125</ele>
        <time>2020-08-12T10:12:00.000Z</time>
      </trkpt>
      <trkpt lat="42.4094921909272670745849609375" lon="1.28153222613036632537841796875">
        <ele>1695.5999755859375</ele>
        <time>2020-08-12T10:12:04.000Z</time>
      </trkpt>
      <trkpt lat="42.4096190929412841796875" lon="1.2817011214792728424072265625">
        <ele>1695.5999755859375</ele>
        <time>2020-08-12T10:12:09.000Z</time>
      </trkpt>
      <trkpt lat="42.409677766263484954833984375" lon="1.28194444812834262847900390625">
        <ele>1696.5999755859375</ele>
        <time>2020-08-12T10:12:14.000Z</time>
      </trkpt>
      <trkpt lat="42.409684471786022186279296875" lon="1.281984262168407440185546875">
        <ele>1697.199951171875</ele>
        <time>2020-08-12T10:12:15.000Z</time>
      </trkpt>
      <trkpt lat="42.4097191728651523590087890625" lon="1.28213622607290744781494140625">
        <ele>1697.199951171875</ele>
        <time>2020-08-12T10:12:19.000Z</time>
      </trkpt>
      <trkpt lat="42.4097979627549648284912109375" lon="1.28244970925152301788330078125">
        <ele>1697.5999755859375</ele>
        <time>2020-08-12T10:12:26.000Z</time>
      </trkpt>
      <trkpt lat="42.409919165074825286865234375" lon="1.282702423632144927978515625">
        <ele>1696.5999755859375</ele>
        <time>2020-08-12T10:12:31.000Z</time>
      </trkpt>
      <trkpt lat="42.40999133326113224029541015625" lon="1.2827968038618564605712890625">
        <ele>1696</ele>
        <time>2020-08-12T10:12:33.000Z</time>
      </trkpt>
      <trkpt lat="42.410029470920562744140625" lon="1.28283846192061901092529296875">
        <ele>1695.5999755859375</ele>
        <time>2020-08-12T10:12:34.000Z</time>
      </trkpt>
      <trkpt lat="42.410155870020389556884765625" lon="1.28294876776635646820068359375">
        <ele>1694.800048828125</ele>
        <time>2020-08-12T10:12:37.000Z</time>
      </trkpt>
      <trkpt lat="42.4102794192731380462646484375" lon="1.2830395437777042388916015625">
        <ele>1695.4000244140625</ele>
        <time>2020-08-12T10:12:40.000Z</time>
      </trkpt>
      <trkpt lat="42.41035996936261653900146484375" lon="1.28308229148387908935546875">
        <ele>1695.4000244140625</ele>
        <time>2020-08-12T10:12:42.000Z</time>
      </trkpt>
      <trkpt lat="42.41044295020401477813720703125" lon="1.2831133045256137847900390625">
        <ele>1695</ele>
        <time>2020-08-12T10:12:44.000Z</time>
      </trkpt>
      <trkpt lat="42.410593070089817047119140625" lon="1.2831434793770313262939453125">
        <ele>1694.4000244140625</ele>
        <time>2020-08-12T10:12:48.000Z</time>
      </trkpt>
      <trkpt lat="42.41073732264339923858642578125" lon="1.28314037807285785675048828125">
        <ele>1695.199951171875</ele>
        <time>2020-08-12T10:12:52.000Z</time>
      </trkpt>
      <trkpt lat="42.41093597374856472015380859375" lon="1.28305437974631786346435546875">
        <ele>1694.800048828125</ele>
        <time>2020-08-12T10:12:58.000Z</time>
      </trkpt>
      <trkpt lat="42.41097553633153438568115234375" lon="1.2830298207700252532958984375">
        <ele>1694.800048828125</ele>
        <time>2020-08-12T10:12:59.000Z</time>
      </trkpt>
      <trkpt lat="42.41109003312885761260986328125" lon="1.282947175204753875732421875">
        <ele>1695</ele>
        <time>2020-08-12T10:13:02.000Z</time>
      </trkpt>
      <trkpt lat="42.41126890294253826141357421875" lon="1.2828370369970798492431640625">
        <ele>1694.800048828125</ele>
        <time>2020-08-12T10:13:07.000Z</time>
      </trkpt>
      <trkpt lat="42.4113868363201618194580078125" lon="1.28274408169090747833251953125">
        <ele>1695.199951171875</ele>
        <time>2020-08-12T10:13:11.000Z</time>
      </trkpt>
      <trkpt lat="42.41155229508876800537109375" lon="1.28260393626987934112548828125">
        <ele>1695.4000244140625</ele>
        <time>2020-08-12T10:13:17.000Z</time>
      </trkpt>
      <trkpt lat="42.41170358844101428985595703125" lon="1.28248306922614574432373046875">
        <ele>1695.5999755859375</ele>
        <time>2020-08-12T10:13:22.000Z</time>
      </trkpt>
      <trkpt lat="42.4118146486580371856689453125" lon="1.28247368149459362030029296875">
        <ele>1695.4000244140625</ele>
        <time>2020-08-12T10:13:25.000Z</time>
      </trkpt>
      <trkpt lat="42.411848343908786773681640625" lon="1.2824928760528564453125">
        <ele>1695.4000244140625</ele>
        <time>2020-08-12T10:13:26.000Z</time>
      </trkpt>
      <trkpt lat="42.41198605857789516448974609375" lon="1.2826455943286418914794921875">
        <ele>1696.199951171875</ele>
        <time>2020-08-12T10:13:31.000Z</time>
      </trkpt>
      <trkpt lat="42.4120208434760570526123046875" lon="1.28272823989391326904296875">
        <ele>1696.199951171875</ele>
        <time>2020-08-12T10:13:33.000Z</time>
      </trkpt>
      <trkpt lat="42.41202025674283504486083984375" lon="1.282814405858516693115234375">
        <ele>1696.800048828125</ele>
        <time>2020-08-12T10:13:35.000Z</time>
      </trkpt>
      <trkpt lat="42.412022687494754791259765625" lon="1.28286235034465789794921875">
        <ele>1697.199951171875</ele>
        <time>2020-08-12T10:13:36.000Z</time>
      </trkpt>
      <trkpt lat="42.4120325781404972076416015625" lon="1.2829024158418178558349609375">
        <ele>1697.4000244140625</ele>
        <time>2020-08-12T10:13:37.000Z</time>
      </trkpt>
      <trkpt lat="42.4120325781404972076416015625" lon="1.28303962759673595428466796875">
        <ele>1698.199951171875</ele>
        <time>2020-08-12T10:13:41.000Z</time>
      </trkpt>
      <trkpt lat="42.41202645935118198394775390625" lon="1.2830693833529949188232421875">
        <ele>1698.199951171875</ele>
        <time>2020-08-12T10:13:42.000Z</time>
      </trkpt>
      <trkpt lat="42.411999218165874481201171875" lon="1.283228807151317596435546875">
        <ele>1698.800048828125</ele>
        <time>2020-08-12T10:13:47.000Z</time>
      </trkpt>
      <trkpt lat="42.4119688756763935089111328125" lon="1.28344112075865268707275390625">
        <ele>1698.5999755859375</ele>
        <time>2020-08-12T10:13:51.000Z</time>
      </trkpt>
      <trkpt lat="42.41193928755819797515869140625" lon="1.28379316069185733795166015625">
        <ele>1697.800048828125</ele>
        <time>2020-08-12T10:13:56.000Z</time>
      </trkpt>
      <trkpt lat="42.41194582544267177581787109375" lon="1.284232623875141143798828125">
        <ele>1696.800048828125</ele>
        <time>2020-08-12T10:14:02.000Z</time>
      </trkpt>
      <trkpt lat="42.41195839829742908477783203125" lon="1.28435977734625339508056640625">
        <ele>1696</ele>
        <time>2020-08-12T10:14:04.000Z</time>
      </trkpt>
      <trkpt lat="42.41197147406637668609619140625" lon="1.2844242341816425323486328125">
        <ele>1695.5999755859375</ele>
        <time>2020-08-12T10:14:05.000Z</time>
      </trkpt>
      <trkpt lat="42.41198857314884662628173828125" lon="1.2844889424741268157958984375">
        <ele>1695.4000244140625</ele>
        <time>2020-08-12T10:14:06.000Z</time>
      </trkpt>
      <trkpt lat="42.41210281848907470703125" lon="1.2848212011158466339111328125">
        <ele>1696.199951171875</ele>
        <time>2020-08-12T10:14:12.000Z</time>
      </trkpt>
      <trkpt lat="42.412123940885066986083984375" lon="1.2848706543445587158203125">
        <ele>1696.4000244140625</ele>
        <time>2020-08-12T10:14:13.000Z</time>
      </trkpt>
      <trkpt lat="42.4121940135955810546875" lon="1.2850062735378742218017578125">
        <ele>1695.800048828125</ele>
        <time>2020-08-12T10:14:16.000Z</time>
      </trkpt>
      <trkpt lat="42.41221756674349308013916015625" lon="1.2850528769195079803466796875">
        <ele>1695.4000244140625</ele>
        <time>2020-08-12T10:14:17.000Z</time>
      </trkpt>
      <trkpt lat="42.4122907407581806182861328125" lon="1.28516343422234058380126953125">
        <ele>1695.199951171875</ele>
        <time>2020-08-12T10:14:20.000Z</time>
      </trkpt>
      <trkpt lat="42.41235553286969661712646484375" lon="1.285251192748546600341796875">
        <ele>1695.4000244140625</ele>
        <time>2020-08-12T10:14:23.000Z</time>
      </trkpt>
      <trkpt lat="42.412500791251659393310546875" lon="1.28541187383234500885009765625">
        <ele>1696</ele>
        <time>2020-08-12T10:14:29.000Z</time>
      </trkpt>
      <trkpt lat="42.412617467343807220458984375" lon="1.28558772616088390350341796875">
        <ele>1696.199951171875</ele>
        <time>2020-08-12T10:14:35.000Z</time>
      </trkpt>
      <trkpt lat="42.4126742966473102569580078125" lon="1.285663582384586334228515625">
        <ele>1696.5999755859375</ele>
        <time>2020-08-12T10:14:38.000Z</time>
      </trkpt>
      <trkpt lat="42.412734143435955047607421875" lon="1.285729296505451202392578125">
        <ele>1697.199951171875</ele>
        <time>2020-08-12T10:14:41.000Z</time>
      </trkpt>
      <trkpt lat="42.41286381147801876068115234375" lon="1.285857371985912322998046875">
        <ele>1697.199951171875</ele>
        <time>2020-08-12T10:14:47.000Z</time>
      </trkpt>
      <trkpt lat="42.41290924139320850372314453125" lon="1.28589517436921596527099609375">
        <ele>1697.5999755859375</ele>
        <time>2020-08-12T10:14:49.000Z</time>
      </trkpt>
      <trkpt lat="42.41296456195414066314697265625" lon="1.28595669753849506378173828125">
        <ele>1697.800048828125</ele>
        <time>2020-08-12T10:14:52.000Z</time>
      </trkpt>
      <trkpt lat="42.41308744065463542938232421875" lon="1.28605124540627002716064453125">
        <ele>1698</ele>
        <time>2020-08-12T10:14:57.000Z</time>
      </trkpt>
      <trkpt lat="42.4132050387561321258544921875" lon="1.28613866865634918212890625">
        <ele>1698.199951171875</ele>
        <time>2020-08-12T10:15:02.000Z</time>
      </trkpt>
      <trkpt lat="42.4133528955280780792236328125" lon="1.2862203083932399749755859375">
        <ele>1698.199951171875</ele>
        <time>2020-08-12T10:15:08.000Z</time>
      </trkpt>
      <trkpt lat="42.41339924745261669158935546875" lon="1.2862451188266277313232421875">
        <ele>1698.4000244140625</ele>
        <time>2020-08-12T10:15:10.000Z</time>
      </trkpt>
      <trkpt lat="42.41349463351070880889892578125" lon="1.2862930633127689361572265625">
        <ele>1699.4000244140625</ele>
        <time>2020-08-12T10:15:14.000Z</time>
      </trkpt>
      <trkpt lat="42.4135203659534454345703125" lon="1.28630672581493854522705078125">
        <ele>1699.5999755859375</ele>
        <time>2020-08-12T10:15:15.000Z</time>
      </trkpt>
      <trkpt lat="42.41359219886362552642822265625" lon="1.28638207912445068359375">
        <ele>1699.4000244140625</ele>
        <time>2020-08-12T10:15:19.000Z</time>
      </trkpt>
      <trkpt lat="42.413750030100345611572265625" lon="1.286544688045978546142578125">
        <ele>1700</ele>
        <time>2020-08-12T10:15:26.000Z</time>
      </trkpt>
      <trkpt lat="42.41393485106527805328369140625" lon="1.2866985797882080078125">
        <ele>1700.4000244140625</ele>
        <time>2020-08-12T10:15:33.000Z</time>
      </trkpt>
      <trkpt lat="42.41405881941318511962890625" lon="1.28680075518786907196044921875">
        <ele>1700.4000244140625</ele>
        <time>2020-08-12T10:15:38.000Z</time>
      </trkpt>
      <trkpt lat="42.41421011276543140411376953125" lon="1.28694358281791210174560546875">
        <ele>1700.4000244140625</ele>
        <time>2020-08-12T10:15:44.000Z</time>
      </trkpt>
      <trkpt lat="42.41444681771099567413330078125" lon="1.2871741689741611480712890625">
        <ele>1699.800048828125</ele>
        <time>2020-08-12T10:15:53.000Z</time>
      </trkpt>
      <trkpt lat="42.414669692516326904296875" lon="1.2873052619397640228271484375">
        <ele>1700</ele>
        <time>2020-08-12T10:16:01.000Z</time>
      </trkpt>
      <trkpt lat="42.4148401804268360137939453125" lon="1.28738380037248134613037109375">
        <ele>1700.199951171875</ele>
        <time>2020-08-12T10:16:08.000Z</time>
      </trkpt>
      <trkpt lat="42.414937913417816162109375" lon="1.2874219380319118499755859375">
        <ele>1700.5999755859375</ele>
        <time>2020-08-12T10:16:15.000Z</time>
      </trkpt>
      <trkpt lat="42.41494319401681423187255859375" lon="1.28742570988833904266357421875">
        <ele>1701</ele>
        <time>2020-08-12T10:16:22.000Z</time>
      </trkpt>
      <trkpt lat="42.41495040245354175567626953125" lon="1.28742487169802188873291015625">
        <ele>1700.800048828125</ele>
        <time>2020-08-12T10:16:34.000Z</time>
      </trkpt>
      <trkpt lat="42.4149605445563793182373046875" lon="1.28745420835912227630615234375">
        <ele>1700.800048828125</ele>
        <time>2020-08-12T10:16:42.000Z</time>
      </trkpt>
      <trkpt lat="42.41496683098375797271728515625" lon="1.2874608300626277923583984375">
        <ele>1700.800048828125</ele>
        <time>2020-08-12T10:16:43.000Z</time>
      </trkpt>
      <trkpt lat="42.41497923620045185089111328125" lon="1.287463009357452392578125">
        <ele>1700.4000244140625</ele>
        <time>2020-08-12T10:16:47.000Z</time>
      </trkpt>
      <trkpt lat="42.41498812101781368255615234375" lon="1.28746711649000644683837890625">
        <ele>1700.5999755859375</ele>
        <time>2020-08-12T10:17:06.000Z</time>
      </trkpt>
      <trkpt lat="42.41500136442482471466064453125" lon="1.28746544010937213897705078125">
        <ele>1700.800048828125</ele>
        <time>2020-08-12T10:17:14.000Z</time>
      </trkpt>
      <trkpt lat="42.41501779295504093170166015625" lon="1.2874588184058666229248046875">
        <ele>1701</ele>
        <time>2020-08-12T10:17:25.000Z</time>
      </trkpt>
      <trkpt lat="42.4150519073009490966796875" lon="1.28745638765394687652587890625">
        <ele>1701.4000244140625</ele>
        <time>2020-08-12T10:17:32.000Z</time>
      </trkpt>
      <trkpt lat="42.41505199111998081207275390625" lon="1.2874504365026950836181640625">
        <ele>1701.199951171875</ele>
        <time>2020-08-12T10:17:43.000Z</time>
      </trkpt>
      <trkpt lat="42.41505215875804424285888671875" lon="1.287449933588504791259765625">
        <ele>1701.5999755859375</ele>
        <time>2020-08-12T10:17:50.000Z</time>
      </trkpt>
      <trkpt lat="42.4150520749390125274658203125" lon="1.2874497659504413604736328125">
        <ele>1701.4000244140625</ele>
        <time>2020-08-12T10:18:08.000Z</time>
      </trkpt>
      <trkpt lat="42.415050566196441650390625" lon="1.28745068795979022979736328125">
        <ele>1701.800048828125</ele>
        <time>2020-08-12T10:18:20.000Z</time>
      </trkpt>
      <trkpt lat="42.41504712961614131927490234375" lon="1.28747440874576568603515625">
        <ele>1701.4000244140625</ele>
        <time>2020-08-12T10:19:53.000Z</time>
      </trkpt>
      <trkpt lat="42.415058612823486328125" lon="1.28747935406863689422607421875">
        <ele>1701.5999755859375</ele>
        <time>2020-08-12T10:20:00.000Z</time>
      </trkpt>
      <trkpt lat="42.415093816816806793212890625" lon="1.28745404072105884552001953125">
        <ele>1701.5999755859375</ele>
        <time>2020-08-12T10:20:05.000Z</time>
      </trkpt>
      <trkpt lat="42.415121309459209442138671875" lon="1.28744984976947307586669921875">
        <ele>1701.5999755859375</ele>
        <time>2020-08-12T10:20:07.000Z</time>
      </trkpt>
      <trkpt lat="42.41520286537706851959228515625" lon="1.28749427385628223419189453125">
        <ele>1701.800048828125</ele>
        <time>2020-08-12T10:20:13.000Z</time>
      </trkpt>
      <trkpt lat="42.41524561308324337005615234375" lon="1.2875034101307392120361328125">
        <ele>1701.800048828125</ele>
        <time>2020-08-12T10:20:16.000Z</time>
      </trkpt>
      <trkpt lat="42.4153239838778972625732421875" lon="1.287512294948101043701171875">
        <ele>1701.800048828125</ele>
        <time>2020-08-12T10:20:20.000Z</time>
      </trkpt>
      <trkpt lat="42.41543571464717388153076171875" lon="1.2875379435718059539794921875">
        <ele>1702</ele>
        <time>2020-08-12T10:20:26.000Z</time>
      </trkpt>
      <trkpt lat="42.41553395055234432220458984375" lon="1.28755311481654644012451171875">
        <ele>1701.5999755859375</ele>
        <time>2020-08-12T10:20:32.000Z</time>
      </trkpt>
      <trkpt lat="42.41561223752796649932861328125" lon="1.28755948506295680999755859375">
        <ele>1702</ele>
        <time>2020-08-12T10:20:38.000Z</time>
      </trkpt>
      <trkpt lat="42.41562866605818271636962890625" lon="1.28756292164325714111328125">
        <ele>1702</ele>
        <time>2020-08-12T10:20:39.000Z</time>
      </trkpt>
      <trkpt lat="42.4157393909990787506103515625" lon="1.28758161328732967376708984375">
        <ele>1702</ele>
        <time>2020-08-12T10:20:45.000Z</time>
      </trkpt>
      <trkpt lat="42.41584408096969127655029296875" lon="1.28759510815143585205078125">
        <ele>1701.800048828125</ele>
        <time>2020-08-12T10:20:50.000Z</time>
      </trkpt>
      <trkpt lat="42.4158644489943981170654296875" lon="1.2875904142856597900390625">
        <ele>1701.5999755859375</ele>
        <time>2020-08-12T10:20:51.000Z</time>
      </trkpt>
      <trkpt lat="42.415974922478199005126953125" lon="1.2875677831470966339111328125">
        <ele>1702</ele>
        <time>2020-08-12T10:20:57.000Z</time>
      </trkpt>
      <trkpt lat="42.41611984558403491973876953125" lon="1.28750701434910297393798828125">
        <ele>1702</ele>
        <time>2020-08-12T10:21:03.000Z</time>
      </trkpt>
      <trkpt lat="42.416289746761322021484375" lon="1.28744096495211124420166015625">
        <ele>1702.5999755859375</ele>
        <time>2020-08-12T10:21:10.000Z</time>
      </trkpt>
      <trkpt lat="42.416311539709568023681640625" lon="1.28743006847798824310302734375">
        <ele>1702.800048828125</ele>
        <time>2020-08-12T10:21:11.000Z</time>
      </trkpt>
      <trkpt lat="42.4164344184100627899169921875" lon="1.2873744964599609375">
        <ele>1703.199951171875</ele>
        <time>2020-08-12T10:21:17.000Z</time>
      </trkpt>
      <trkpt lat="42.4164729751646518707275390625" lon="1.28735664300620555877685546875">
        <ele>1703.4000244140625</ele>
        <time>2020-08-12T10:21:22.000Z</time>
      </trkpt>
      <trkpt lat="42.41649250499904155731201171875" lon="1.287348680198192596435546875">
        <ele>1703.800048828125</ele>
        <time>2020-08-12T10:21:26.000Z</time>
      </trkpt>
      <trkpt lat="42.41649904288351535797119140625" lon="1.28734742291271686553955078125">
        <ele>1703.800048828125</ele>
        <time>2020-08-12T10:21:28.000Z</time>
      </trkpt>
      <trkpt lat="42.41649988107383251190185546875" lon="1.2873441539704799652099609375">
        <ele>1703.4000244140625</ele>
        <time>2020-08-12T10:21:40.000Z</time>
      </trkpt>
      <trkpt lat="42.41656291298568248748779296875" lon="1.28731959499418735504150390625">
        <ele>1703</ele>
        <time>2020-08-12T10:24:21.000Z</time>
      </trkpt>
      <trkpt lat="42.4165628291666507720947265625" lon="1.28731976263225078582763671875">
        <ele>1703</ele>
        <time>2020-08-12T10:24:22.000Z</time>
      </trkpt>
      <trkpt lat="42.4165705405175685882568359375" lon="1.2872712314128875732421875">
        <ele>1702.800048828125</ele>
        <time>2020-08-12T10:24:28.000Z</time>
      </trkpt>
      <trkpt lat="42.41655017249286174774169921875" lon="1.28714181482791900634765625">
        <ele>1704</ele>
        <time>2020-08-12T10:24:34.000Z</time>
      </trkpt>
      <trkpt lat="42.41655151359736919403076171875" lon="1.28712111152708530426025390625">
        <ele>1704</ele>
        <time>2020-08-12T10:24:35.000Z</time>
      </trkpt>
      <trkpt lat="42.4165807664394378662109375" lon="1.28698968328535556793212890625">
        <ele>1704.5999755859375</ele>
        <time>2020-08-12T10:24:41.000Z</time>
      </trkpt>
      <trkpt lat="42.416645474731922149658203125" lon="1.2867911159992218017578125">
        <ele>1705</ele>
        <time>2020-08-12T10:24:49.000Z</time>
      </trkpt>
      <trkpt lat="42.4166795052587985992431640625" lon="1.28655818291008472442626953125">
        <ele>1705</ele>
        <time>2020-08-12T10:24:57.000Z</time>
      </trkpt>
      <trkpt lat="42.4167287908494472503662109375" lon="1.28619273193180561065673828125">
        <ele>1705.5999755859375</ele>
        <time>2020-08-12T10:25:09.000Z</time>
      </trkpt>
      <trkpt lat="42.41674748249351978302001953125" lon="1.28611612133681774139404296875">
        <ele>1706.199951171875</ele>
        <time>2020-08-12T10:25:12.000Z</time>
      </trkpt>
      <trkpt lat="42.41677011363208293914794921875" lon="1.28601235337555408477783203125">
        <ele>1706.5999755859375</ele>
        <time>2020-08-12T10:25:16.000Z</time>
      </trkpt>
      <trkpt lat="42.4168045632541179656982421875" lon="1.28585795871913433074951171875">
        <ele>1707</ele>
        <time>2020-08-12T10:25:22.000Z</time>
      </trkpt>
      <trkpt lat="42.4168119393289089202880859375" lon="1.28583063371479511260986328125">
        <ele>1707.199951171875</ele>
        <time>2020-08-12T10:25:23.000Z</time>
      </trkpt>
      <trkpt lat="42.41684823296964168548583984375" lon="1.2856860458850860595703125">
        <ele>1708</ele>
        <time>2020-08-12T10:25:28.000Z</time>
      </trkpt>
      <trkpt lat="42.4168635718524456024169921875" lon="1.28560063429176807403564453125">
        <ele>1708.199951171875</ele>
        <time>2020-08-12T10:25:31.000Z</time>
      </trkpt>
      <trkpt lat="42.416885197162628173828125" lon="1.28552385605871677398681640625">
        <ele>1708.4000244140625</ele>
        <time>2020-08-12T10:25:34.000Z</time>
      </trkpt>
      <trkpt lat="42.41691729985177516937255859375" lon="1.28535973839461803436279296875">
        <ele>1708</ele>
        <time>2020-08-12T10:25:40.000Z</time>
      </trkpt>
      <trkpt lat="42.41695216856896877288818359375" lon="1.2852161563932895660400390625">
        <ele>1708.4000244140625</ele>
        <time>2020-08-12T10:25:45.000Z</time>
      </trkpt>
      <trkpt lat="42.4169490672647953033447265625" lon="1.285159327089786529541015625">
        <ele>1708.5999755859375</ele>
        <time>2020-08-12T10:25:47.000Z</time>
      </trkpt>
      <trkpt lat="42.41696675308048725128173828125" lon="1.2850726582109928131103515625">
        <ele>1709</ele>
        <time>2020-08-12T10:25:50.000Z</time>
      </trkpt>
      <trkpt lat="42.4169765599071979522705078125" lon="1.28491013310849666595458984375">
        <ele>1709.5999755859375</ele>
        <time>2020-08-12T10:25:55.000Z</time>
      </trkpt>
      <trkpt lat="42.41697630845010280609130859375" lon="1.28484307788312435150146484375">
        <ele>1709.5999755859375</ele>
        <time>2020-08-12T10:25:57.000Z</time>
      </trkpt>
      <trkpt lat="42.41698200814425945281982421875" lon="1.2847786210477352142333984375">
        <ele>1709.4000244140625</ele>
        <time>2020-08-12T10:25:59.000Z</time>
      </trkpt>
      <trkpt lat="42.41699307225644588470458984375" lon="1.28468482755124568939208984375">
        <ele>1709.5999755859375</ele>
        <time>2020-08-12T10:26:02.000Z</time>
      </trkpt>
      <trkpt lat="42.41699340753257274627685546875" lon="1.28456731326878070831298828125">
        <ele>1709.800048828125</ele>
        <time>2020-08-12T10:26:06.000Z</time>
      </trkpt>
      <trkpt lat="42.41699558682739734649658203125" lon="1.28452154807746410369873046875">
        <ele>1709.800048828125</ele>
        <time>2020-08-12T10:26:08.000Z</time>
      </trkpt>
      <trkpt lat="42.41696658544242382049560546875" lon="1.284389197826385498046875">
        <ele>1710.4000244140625</ele>
        <time>2020-08-12T10:26:13.000Z</time>
      </trkpt>
      <trkpt lat="42.41690439172089099884033203125" lon="1.2842331267893314361572265625">
        <ele>1710.800048828125</ele>
        <time>2020-08-12T10:26:18.000Z</time>
      </trkpt>
      <trkpt lat="42.41689483635127544403076171875" lon="1.2842063046991825103759765625">
        <ele>1710.5999755859375</ele>
        <time>2020-08-12T10:26:19.000Z</time>
      </trkpt>
      <trkpt lat="42.4168226681649684906005859375" lon="1.28405584953725337982177734375">
        <ele>1710.199951171875</ele>
        <time>2020-08-12T10:26:24.000Z</time>
      </trkpt>
      <trkpt lat="42.4167546071112155914306640625" lon="1.283865161240100860595703125">
        <ele>1710.199951171875</ele>
        <time>2020-08-12T10:26:30.000Z</time>
      </trkpt>
      <trkpt lat="42.41667573340237140655517578125" lon="1.28365184180438518524169921875">
        <ele>1710</ele>
        <time>2020-08-12T10:26:36.000Z</time>
      </trkpt>
      <trkpt lat="42.4165821075439453125" lon="1.2834576331079006195068359375">
        <ele>1710.4000244140625</ele>
        <time>2020-08-12T10:26:42.000Z</time>
      </trkpt>
      <trkpt lat="42.41644640453159809112548828125" lon="1.28330114297568798065185546875">
        <ele>1710</ele>
        <time>2020-08-12T10:26:47.000Z</time>
      </trkpt>
      <trkpt lat="42.4163113720715045928955078125" lon="1.2831381149590015411376953125">
        <ele>1709.5999755859375</ele>
        <time>2020-08-12T10:26:53.000Z</time>
      </trkpt>
      <trkpt lat="42.41624322719871997833251953125" lon="1.28298464231193065643310546875">
        <ele>1709.5999755859375</ele>
        <time>2020-08-12T10:26:57.000Z</time>
      </trkpt>
      <trkpt lat="42.41623048670589923858642578125" lon="1.2828973866999149322509765625">
        <ele>1709.5999755859375</ele>
        <time>2020-08-12T10:26:59.000Z</time>
      </trkpt>
      <trkpt lat="42.416243143379688262939453125" lon="1.28281398676335811614990234375">
        <ele>1709.5999755859375</ele>
        <time>2020-08-12T10:27:01.000Z</time>
      </trkpt>
      <trkpt lat="42.41627407260239124298095703125" lon="1.28261550329625606536865234375">
        <ele>1710.199951171875</ele>
        <time>2020-08-12T10:27:06.000Z</time>
      </trkpt>
      <trkpt lat="42.41628061048686504364013671875" lon="1.2823683209717273712158203125">
        <ele>1709.800048828125</ele>
        <time>2020-08-12T10:27:12.000Z</time>
      </trkpt>
      <trkpt lat="42.416290752589702606201171875" lon="1.28215081058442592620849609375">
        <ele>1710</ele>
        <time>2020-08-12T10:27:18.000Z</time>
      </trkpt>
      <trkpt lat="42.4162456579506397247314453125" lon="1.28189985640347003936767578125">
        <ele>1710.4000244140625</ele>
        <time>2020-08-12T10:27:25.000Z</time>
      </trkpt>
      <trkpt lat="42.416180782020092010498046875" lon="1.28168511204421520233154296875">
        <ele>1710.800048828125</ele>
        <time>2020-08-12T10:27:31.000Z</time>
      </trkpt>
      <trkpt lat="42.416161000728607177734375" lon="1.2816169671714305877685546875">
        <ele>1710.800048828125</ele>
        <time>2020-08-12T10:27:33.000Z</time>
      </trkpt>
      <trkpt lat="42.416112385690212249755859375" lon="1.28149232827126979827880859375">
        <ele>1710.4000244140625</ele>
        <time>2020-08-12T10:27:37.000Z</time>
      </trkpt>
      <trkpt lat="42.41607525385916233062744140625" lon="1.28136743791401386260986328125">
        <ele>1709.800048828125</ele>
        <time>2020-08-12T10:27:41.000Z</time>
      </trkpt>
      <trkpt lat="42.416059076786041259765625" lon="1.28133692778646945953369140625">
        <ele>1709.800048828125</ele>
        <time>2020-08-12T10:27:42.000Z</time>
      </trkpt>
      <trkpt lat="42.41599830798804759979248046875" lon="1.28124103881418704986572265625">
        <ele>1711</ele>
        <time>2020-08-12T10:27:45.000Z</time>
      </trkpt>
      <trkpt lat="42.41594583727419376373291015625" lon="1.28115051425993442535400390625">
        <ele>1711.199951171875</ele>
        <time>2020-08-12T10:27:48.000Z</time>
      </trkpt>
      <trkpt lat="42.4158657900989055633544921875" lon="1.2810154817998409271240234375">
        <ele>1711</ele>
        <time>2020-08-12T10:27:53.000Z</time>
      </trkpt>
      <trkpt lat="42.415750287473201751708984375" lon="1.280786991119384765625">
        <ele>1711.4000244140625</ele>
        <time>2020-08-12T10:28:00.000Z</time>
      </trkpt>
      <trkpt lat="42.41566839627921581268310546875" lon="1.28058322705328464508056640625">
        <ele>1712</ele>
        <time>2020-08-12T10:28:06.000Z</time>
      </trkpt>
      <trkpt lat="42.4155861698091030120849609375" lon="1.28037602640688419342041015625">
        <ele>1712</ele>
        <time>2020-08-12T10:28:12.000Z</time>
      </trkpt>
      <trkpt lat="42.41552104242146015167236328125" lon="1.2801759503781795501708984375">
        <ele>1711.5999755859375</ele>
        <time>2020-08-12T10:28:17.000Z</time>
      </trkpt>
      <trkpt lat="42.41552925668656826019287109375" lon="1.2799855135381221771240234375">
        <ele>1711.800048828125</ele>
        <time>2020-08-12T10:28:22.000Z</time>
      </trkpt>
      <trkpt lat="42.41555306129157543182373046875" lon="1.279692314565181732177734375">
        <ele>1712</ele>
        <time>2020-08-12T10:28:29.000Z</time>
      </trkpt>
      <trkpt lat="42.41557954810559749603271484375" lon="1.27948720939457416534423828125">
        <ele>1712</ele>
        <time>2020-08-12T10:28:34.000Z</time>
      </trkpt>
      <trkpt lat="42.41558776237070560455322265625" lon="1.2793739698827266693115234375">
        <ele>1712.5999755859375</ele>
        <time>2020-08-12T10:28:37.000Z</time>
      </trkpt>
      <trkpt lat="42.41559145040810108184814453125" lon="1.2793062441051006317138671875">
        <ele>1712.800048828125</ele>
        <time>2020-08-12T10:28:39.000Z</time>
      </trkpt>
      <trkpt lat="42.41561114788055419921875" lon="1.27925436012446880340576171875">
        <ele>1713</ele>
        <time>2020-08-12T10:28:41.000Z</time>
      </trkpt>
      <trkpt lat="42.41564610041677951812744140625" lon="1.2791607342660427093505859375">
        <ele>1713</ele>
        <time>2020-08-12T10:28:44.000Z</time>
      </trkpt>
      <trkpt lat="42.4157008342444896697998046875" lon="1.2790427170693874359130859375">
        <ele>1713</ele>
        <time>2020-08-12T10:28:48.000Z</time>
      </trkpt>
      <trkpt lat="42.4157739244401454925537109375" lon="1.278886981308460235595703125">
        <ele>1713.4000244140625</ele>
        <time>2020-08-12T10:28:53.000Z</time>
      </trkpt>
      <trkpt lat="42.41587626747786998748779296875" lon="1.2787356041371822357177734375">
        <ele>1713.4000244140625</ele>
        <time>2020-08-12T10:28:57.000Z</time>
      </trkpt>
      <trkpt lat="42.41598506458103656768798828125" lon="1.2785424850881099700927734375">
        <ele>1713.4000244140625</ele>
        <time>2020-08-12T10:29:02.000Z</time>
      </trkpt>
      <trkpt lat="42.41608715616166591644287109375" lon="1.27842924557626247406005859375">
        <ele>1713</ele>
        <time>2020-08-12T10:29:06.000Z</time>
      </trkpt>
      <trkpt lat="42.41620534099638462066650390625" lon="1.2782786227762699127197265625">
        <ele>1713.199951171875</ele>
        <time>2020-08-12T10:29:11.000Z</time>
      </trkpt>
      <trkpt lat="42.416224367916584014892578125" lon="1.27825272269546985626220703125">
        <ele>1713.199951171875</ele>
        <time>2020-08-12T10:29:12.000Z</time>
      </trkpt>
      <trkpt lat="42.416301481425762176513671875" lon="1.27816655673086643218994140625">
        <ele>1713.199951171875</ele>
        <time>2020-08-12T10:29:15.000Z</time>
      </trkpt>
      <trkpt lat="42.41647054441273212432861328125" lon="1.278037391602993011474609375">
        <ele>1713</ele>
        <time>2020-08-12T10:29:21.000Z</time>
      </trkpt>
      <trkpt lat="42.4165997095406055450439453125" lon="1.2778950668871402740478515625">
        <ele>1713</ele>
        <time>2020-08-12T10:29:26.000Z</time>
      </trkpt>
      <trkpt lat="42.4167582951486110687255859375" lon="1.2777207233011722564697265625">
        <ele>1713.4000244140625</ele>
        <time>2020-08-12T10:29:32.000Z</time>
      </trkpt>
      <trkpt lat="42.41677832789719104766845703125" lon="1.27769951708614826202392578125">
        <ele>1713.5999755859375</ele>
        <time>2020-08-12T10:29:33.000Z</time>
      </trkpt>
      <trkpt lat="42.41687857545912265777587890625" lon="1.277587451040744781494140625">
        <ele>1714</ele>
        <time>2020-08-12T10:29:37.000Z</time>
      </trkpt>
      <trkpt lat="42.417014278471469879150390625" lon="1.27742777578532695770263671875">
        <ele>1713.800048828125</ele>
        <time>2020-08-12T10:29:42.000Z</time>
      </trkpt>
      <trkpt lat="42.41715718992054462432861328125" lon="1.27726986072957515716552734375">
        <ele>1714</ele>
        <time>2020-08-12T10:29:47.000Z</time>
      </trkpt>
      <trkpt lat="42.41730697453022003173828125" lon="1.2771235965192317962646484375">
        <ele>1714</ele>
        <time>2020-08-12T10:29:52.000Z</time>
      </trkpt>
      <trkpt lat="42.4174238182604312896728515625" lon="1.27695612609386444091796875">
        <ele>1714</ele>
        <time>2020-08-12T10:29:57.000Z</time>
      </trkpt>
      <trkpt lat="42.41758198477327823638916015625" lon="1.27676744945347309112548828125">
        <ele>1713.800048828125</ele>
        <time>2020-08-12T10:30:03.000Z</time>
      </trkpt>
      <trkpt lat="42.4177557416260242462158203125" lon="1.276551447808742523193359375">
        <ele>1714.5999755859375</ele>
        <time>2020-08-12T10:30:09.000Z</time>
      </trkpt>
      <trkpt lat="42.417921535670757293701171875" lon="1.2763546407222747802734375">
        <ele>1714</ele>
        <time>2020-08-12T10:30:15.000Z</time>
      </trkpt>
      <trkpt lat="42.41798817180097103118896484375" lon="1.2761958874762058258056640625">
        <ele>1714</ele>
        <time>2020-08-12T10:30:20.000Z</time>
      </trkpt>
      <trkpt lat="42.4180786125361919403076171875" lon="1.276031434535980224609375">
        <ele>1714.4000244140625</ele>
        <time>2020-08-12T10:30:25.000Z</time>
      </trkpt>
      <trkpt lat="42.4181822128593921661376953125" lon="1.275983154773712158203125">
        <ele>1714.800048828125</ele>
        <time>2020-08-12T10:30:30.000Z</time>
      </trkpt>
      <trkpt lat="42.4182021617889404296875" lon="1.27597720362246036529541015625">
        <ele>1714.800048828125</ele>
        <time>2020-08-12T10:30:31.000Z</time>
      </trkpt>
      <trkpt lat="42.41831875406205654144287109375" lon="1.27593998797237873077392578125">
        <ele>1715.5999755859375</ele>
        <time>2020-08-12T10:30:36.000Z</time>
      </trkpt>
      <trkpt lat="42.4184383638203144073486328125" lon="1.27587477676570415496826171875">
        <ele>1715.4000244140625</ele>
        <time>2020-08-12T10:30:41.000Z</time>
      </trkpt>
      <trkpt lat="42.418541125953197479248046875" lon="1.2757704220712184906005859375">
        <ele>1715.5999755859375</ele>
        <time>2020-08-12T10:30:46.000Z</time>
      </trkpt>
      <trkpt lat="42.418715469539165496826171875" lon="1.275626085698604583740234375">
        <ele>1715.5999755859375</ele>
        <time>2020-08-12T10:30:51.000Z</time>
      </trkpt>
      <trkpt lat="42.41889559663832187652587890625" lon="1.2753959186375141143798828125">
        <ele>1715.4000244140625</ele>
        <time>2020-08-12T10:30:57.000Z</time>
      </trkpt>
      <trkpt lat="42.41910749115049839019775390625" lon="1.2750961817800998687744140625">
        <ele>1714.4000244140625</ele>
        <time>2020-08-12T10:31:04.000Z</time>
      </trkpt>
      <trkpt lat="42.4191508255898952484130859375" lon="1.27501931972801685333251953125">
        <ele>1713.800048828125</ele>
        <time>2020-08-12T10:31:06.000Z</time>
      </trkpt>
      <trkpt lat="42.41917538456618785858154296875" lon="1.2749520130455493927001953125">
        <ele>1713.199951171875</ele>
        <time>2020-08-12T10:31:08.000Z</time>
      </trkpt>
      <trkpt lat="42.41922877728939056396484375" lon="1.274870373308658599853515625">
        <ele>1713</ele>
        <time>2020-08-12T10:31:13.000Z</time>
      </trkpt>
      <trkpt lat="42.41926875896751880645751953125" lon="1.27483793534338474273681640625">
        <ele>1712.5999755859375</ele>
        <time>2020-08-12T10:31:15.000Z</time>
      </trkpt>
      <trkpt lat="42.4193476326763629913330078125" lon="1.274758391082286834716796875">
        <ele>1712.199951171875</ele>
        <time>2020-08-12T10:31:19.000Z</time>
      </trkpt>
      <trkpt lat="42.4194089882075786590576171875" lon="1.27463039942085742950439453125">
        <ele>1711.5999755859375</ele>
        <time>2020-08-12T10:31:22.000Z</time>
      </trkpt>
      <trkpt lat="42.41942365653812885284423828125" lon="1.27457759343087673187255859375">
        <ele>1711</ele>
        <time>2020-08-12T10:31:23.000Z</time>
      </trkpt>
      <trkpt lat="42.4194408394396305084228515625" lon="1.27452076412737369537353515625">
        <ele>1710</ele>
        <time>2020-08-12T10:31:24.000Z</time>
      </trkpt>
      <trkpt lat="42.41948702372610569000244140625" lon="1.27441498450934886932373046875">
        <ele>1709</ele>
        <time>2020-08-12T10:31:26.000Z</time>
      </trkpt>
      <trkpt lat="42.41951904259622097015380859375" lon="1.27437357790768146514892578125">
        <ele>1708.5999755859375</ele>
        <time>2020-08-12T10:31:27.000Z</time>
      </trkpt>
      <trkpt lat="42.4196322821080684661865234375" lon="1.2743652798235416412353515625">
        <ele>1707.800048828125</ele>
        <time>2020-08-12T10:31:30.000Z</time>
      </trkpt>
      <trkpt lat="42.4197157658636569976806640625" lon="1.2743780203163623809814453125">
        <ele>1708</ele>
        <time>2020-08-12T10:31:33.000Z</time>
      </trkpt>
      <trkpt lat="42.419740073382854461669921875" lon="1.274379529058933258056640625">
        <ele>1707.800048828125</ele>
        <time>2020-08-12T10:31:34.000Z</time>
      </trkpt>
      <trkpt lat="42.41984610445797443389892578125" lon="1.27434658817946910858154296875">
        <ele>1708.5999755859375</ele>
        <time>2020-08-12T10:31:39.000Z</time>
      </trkpt>
      <trkpt lat="42.419867813587188720703125" lon="1.27433569170534610748291015625">
        <ele>1708.800048828125</ele>
        <time>2020-08-12T10:31:40.000Z</time>
      </trkpt>
      <trkpt lat="42.41997200064361095428466796875" lon="1.27428875304758548736572265625">
        <ele>1710</ele>
        <time>2020-08-12T10:31:45.000Z</time>
      </trkpt>
      <trkpt lat="42.41999949328601360321044921875" lon="1.27428087405860424041748046875">
        <ele>1710</ele>
        <time>2020-08-12T10:31:46.000Z</time>
      </trkpt>
      <trkpt lat="42.42015539668500423431396484375" lon="1.2743082828819751739501953125">
        <ele>1710.5999755859375</ele>
        <time>2020-08-12T10:31:51.000Z</time>
      </trkpt>
      <trkpt lat="42.4202206917107105255126953125" lon="1.2743693031370639801025390625">
        <ele>1711.199951171875</ele>
        <time>2020-08-12T10:31:54.000Z</time>
      </trkpt>
      <trkpt lat="42.4202696420252323150634765625" lon="1.27442755736410617828369140625">
        <ele>1711.5999755859375</ele>
        <time>2020-08-12T10:31:57.000Z</time>
      </trkpt>
      <trkpt lat="42.420319430530071258544921875" lon="1.27448539249598979949951171875">
        <ele>1712.5999755859375</ele>
        <time>2020-08-12T10:32:00.000Z</time>
      </trkpt>
      <trkpt lat="42.42042814381420612335205078125" lon="1.27456963062286376953125">
        <ele>1713.199951171875</ele>
        <time>2020-08-12T10:32:05.000Z</time>
      </trkpt>
      <trkpt lat="42.4205687083303928375244140625" lon="1.2746272981166839599609375">
        <ele>1712.800048828125</ele>
        <time>2020-08-12T10:32:10.000Z</time>
      </trkpt>
      <trkpt lat="42.42068580351769924163818359375" lon="1.2746331654489040374755859375">
        <ele>1711.800048828125</ele>
        <time>2020-08-12T10:32:14.000Z</time>
      </trkpt>
      <trkpt lat="42.42076358757913112640380859375" lon="1.2746345065534114837646484375">
        <ele>1711.5999755859375</ele>
        <time>2020-08-12T10:32:16.000Z</time>
      </trkpt>
      <trkpt lat="42.42085629142820835113525390625" lon="1.27464313991367816925048828125">
        <ele>1711.199951171875</ele>
        <time>2020-08-12T10:32:18.000Z</time>
      </trkpt>
      <trkpt lat="42.4209968559443950653076171875" lon="1.27464783377945423126220703125">
        <ele>1710.199951171875</ele>
        <time>2020-08-12T10:32:21.000Z</time>
      </trkpt>
      <trkpt lat="42.4210991151630878448486328125" lon="1.27464598976075649261474609375">
        <ele>1709.800048828125</ele>
        <time>2020-08-12T10:32:23.000Z</time>
      </trkpt>
      <trkpt lat="42.42125845514237880706787109375" lon="1.27462956123054027557373046875">
        <ele>1709.4000244140625</ele>
        <time>2020-08-12T10:32:26.000Z</time>
      </trkpt>
      <trkpt lat="42.421310506761074066162109375" lon="1.2746147252619266510009765625">
        <ele>1709</ele>
        <time>2020-08-12T10:32:27.000Z</time>
      </trkpt>
      <trkpt lat="42.4213589541614055633544921875" lon="1.274596787989139556884765625">
        <ele>1708.5999755859375</ele>
        <time>2020-08-12T10:32:28.000Z</time>
      </trkpt>
      <trkpt lat="42.421533800661563873291015625" lon="1.274545490741729736328125">
        <ele>1708</ele>
        <time>2020-08-12T10:32:32.000Z</time>
      </trkpt>
      <trkpt lat="42.42168366909027099609375" lon="1.27443845383822917938232421875">
        <ele>1708.800048828125</ele>
        <time>2020-08-12T10:32:37.000Z</time>
      </trkpt>
      <trkpt lat="42.421816773712635040283203125" lon="1.27428875304758548736572265625">
        <ele>1709.4000244140625</ele>
        <time>2020-08-12T10:32:42.000Z</time>
      </trkpt>
      <trkpt lat="42.421839572489261627197265625" lon="1.274258159101009368896484375">
        <ele>1710</ele>
        <time>2020-08-12T10:32:43.000Z</time>
      </trkpt>
      <trkpt lat="42.42192733101546764373779296875" lon="1.2741590850055217742919921875">
        <ele>1711.199951171875</ele>
        <time>2020-08-12T10:32:47.000Z</time>
      </trkpt>
      <trkpt lat="42.42194694466888904571533203125" lon="1.27413871698081493377685546875">
        <ele>1711.4000244140625</ele>
        <time>2020-08-12T10:32:48.000Z</time>
      </trkpt>
      <trkpt lat="42.42203763686120510101318359375" lon="1.27406395040452480316162109375">
        <ele>1710.800048828125</ele>
        <time>2020-08-12T10:32:52.000Z</time>
      </trkpt>
      <trkpt lat="42.422190941870212554931640625" lon="1.27394828014075756072998046875">
        <ele>1710.800048828125</ele>
        <time>2020-08-12T10:32:57.000Z</time>
      </trkpt>
      <trkpt lat="42.42231507785618305206298828125" lon="1.27384015358984470367431640625">
        <ele>1711</ele>
        <time>2020-08-12T10:33:02.000Z</time>
      </trkpt>
      <trkpt lat="42.42248338647186756134033203125" lon="1.2736893631517887115478515625">
        <ele>1711.4000244140625</ele>
        <time>2020-08-12T10:33:08.000Z</time>
      </trkpt>
      <trkpt lat="42.42266393266618251800537109375" lon="1.2734992615878582000732421875">
        <ele>1711.800048828125</ele>
        <time>2020-08-12T10:33:14.000Z</time>
      </trkpt>
      <trkpt lat="42.42291723378002643585205078125" lon="1.2732558511197566986083984375">
        <ele>1711.4000244140625</ele>
        <time>2020-08-12T10:33:22.000Z</time>
      </trkpt>
      <trkpt lat="42.42314807139337062835693359375" lon="1.27300548367202281951904296875">
        <ele>1710.800048828125</ele>
        <time>2020-08-12T10:33:29.000Z</time>
      </trkpt>
      <trkpt lat="42.42325753904879093170166015625" lon="1.27287304960191249847412109375">
        <ele>1710.199951171875</ele>
        <time>2020-08-12T10:33:32.000Z</time>
      </trkpt>
      <trkpt lat="42.42336063645780086517333984375" lon="1.27274899743497371673583984375">
        <ele>1709.4000244140625</ele>
        <time>2020-08-12T10:33:35.000Z</time>
      </trkpt>
      <trkpt lat="42.423389889299869537353515625" lon="1.2727041542530059814453125">
        <ele>1709.4000244140625</ele>
        <time>2020-08-12T10:33:36.000Z</time>
      </trkpt>
      <trkpt lat="42.42343925870954990386962890625" lon="1.2725950218737125396728515625">
        <ele>1709.4000244140625</ele>
        <time>2020-08-12T10:33:38.000Z</time>
      </trkpt>
      <trkpt lat="42.42346272803843021392822265625" lon="1.272539198398590087890625">
        <ele>1709.199951171875</ele>
        <time>2020-08-12T10:33:39.000Z</time>
      </trkpt>
      <trkpt lat="42.4235560186207294464111328125" lon="1.27231330610811710357666015625">
        <ele>1709</ele>
        <time>2020-08-12T10:33:43.000Z</time>
      </trkpt>
      <trkpt lat="42.4236311204731464385986328125" lon="1.27216192893683910369873046875">
        <ele>1708.800048828125</ele>
        <time>2020-08-12T10:33:46.000Z</time>
      </trkpt>
      <trkpt lat="42.42370538413524627685546875" lon="1.27201943658292293548583984375">
        <ele>1708.5999755859375</ele>
        <time>2020-08-12T10:33:49.000Z</time>
      </trkpt>
      <trkpt lat="42.423779480159282684326171875" lon="1.2718574143946170806884765625">
        <ele>1708.4000244140625</ele>
        <time>2020-08-12T10:33:52.000Z</time>
      </trkpt>
      <trkpt lat="42.4238061346113681793212890625" lon="1.271803267300128936767578125">
        <ele>1708.4000244140625</ele>
        <time>2020-08-12T10:33:53.000Z</time>
      </trkpt>
      <trkpt lat="42.4238735251128673553466796875" lon="1.27171534113585948944091796875">
        <ele>1708</ele>
        <time>2020-08-12T10:33:55.000Z</time>
      </trkpt>
      <trkpt lat="42.4239057116210460662841796875" lon="1.2716850824654102325439453125">
        <ele>1708</ele>
        <time>2020-08-12T10:33:56.000Z</time>
      </trkpt>
      <trkpt lat="42.4240153469145298004150390625" lon="1.27160252071917057037353515625">
        <ele>1707.5999755859375</ele>
        <time>2020-08-12T10:34:00.000Z</time>
      </trkpt>
      <trkpt lat="42.4241699092090129852294921875" lon="1.27157251350581645965576171875">
        <ele>1706.800048828125</ele>
        <time>2020-08-12T10:34:05.000Z</time>
      </trkpt>
      <trkpt lat="42.42430058307945728302001953125" lon="1.2715942226350307464599609375">
        <ele>1706.5999755859375</ele>
        <time>2020-08-12T10:34:08.000Z</time>
      </trkpt>
      <trkpt lat="42.42434400133788585662841796875" lon="1.2716066278517246246337890625">
        <ele>1706.5999755859375</ele>
        <time>2020-08-12T10:34:09.000Z</time>
      </trkpt>
      <trkpt lat="42.42449051700532436370849609375" lon="1.27162347547709941864013671875">
        <ele>1706.800048828125</ele>
        <time>2020-08-12T10:34:13.000Z</time>
      </trkpt>
      <trkpt lat="42.42466033436357975006103515625" lon="1.27156220376491546630859375">
        <ele>1706.4000244140625</ele>
        <time>2020-08-12T10:34:18.000Z</time>
      </trkpt>
      <trkpt lat="42.42477281950414180755615234375" lon="1.2715030275285243988037109375">
        <ele>1706.4000244140625</ele>
        <time>2020-08-12T10:34:23.000Z</time>
      </trkpt>
      <trkpt lat="42.42489720694720745086669921875" lon="1.27141560427844524383544921875">
        <ele>1707</ele>
        <time>2020-08-12T10:34:28.000Z</time>
      </trkpt>
      <trkpt lat="42.42505243979394435882568359375" lon="1.2713226489722728729248046875">
        <ele>1707.5999755859375</ele>
        <time>2020-08-12T10:34:33.000Z</time>
      </trkpt>
      <trkpt lat="42.42517531849443912506103515625" lon="1.27123002894222736358642578125">
        <ele>1707.199951171875</ele>
        <time>2020-08-12T10:34:37.000Z</time>
      </trkpt>
      <trkpt lat="42.42538469843566417694091796875" lon="1.27107043750584125518798828125">
        <ele>1706.5999755859375</ele>
        <time>2020-08-12T10:34:43.000Z</time>
      </trkpt>
      <trkpt lat="42.4256022088229656219482421875" lon="1.2709018774330615997314453125">
        <ele>1706.199951171875</ele>
        <time>2020-08-12T10:34:49.000Z</time>
      </trkpt>
      <trkpt lat="42.42571209557354450225830078125" lon="1.27081110142171382904052734375">
        <ele>1705.4000244140625</ele>
        <time>2020-08-12T10:34:52.000Z</time>
      </trkpt>
      <trkpt lat="42.42575434036552906036376953125" lon="1.2707756459712982177734375">
        <ele>1704.800048828125</ele>
        <time>2020-08-12T10:34:53.000Z</time>
      </trkpt>
      <trkpt lat="42.42579775862395763397216796875" lon="1.27074144780635833740234375">
        <ele>1705</ele>
        <time>2020-08-12T10:34:54.000Z</time>
      </trkpt>
      <trkpt lat="42.42584520019590854644775390625" lon="1.27071286551654338836669921875">
        <ele>1704.5999755859375</ele>
        <time>2020-08-12T10:34:55.000Z</time>
      </trkpt>
      <trkpt lat="42.42589146830141544342041015625" lon="1.27068771980702877044677734375">
        <ele>1704.199951171875</ele>
        <time>2020-08-12T10:34:56.000Z</time>
      </trkpt>
      <trkpt lat="42.425940670073032379150390625" lon="1.27065754495561122894287109375">
        <ele>1704.199951171875</ele>
        <time>2020-08-12T10:34:57.000Z</time>
      </trkpt>
      <trkpt lat="42.42603220045566558837890625" lon="1.27058311365544795989990234375">
        <ele>1704.800048828125</ele>
        <time>2020-08-12T10:34:59.000Z</time>
      </trkpt>
      <trkpt lat="42.42615750990808010101318359375" lon="1.27048102207481861114501953125">
        <ele>1704.5999755859375</ele>
        <time>2020-08-12T10:35:02.000Z</time>
      </trkpt>
      <trkpt lat="42.42627225816249847412109375" lon="1.27037172205746173858642578125">
        <ele>1703.199951171875</ele>
        <time>2020-08-12T10:35:05.000Z</time>
      </trkpt>
      <trkpt lat="42.42630989290773868560791015625" lon="1.2703278847038745880126953125">
        <ele>1702.5999755859375</ele>
        <time>2020-08-12T10:35:06.000Z</time>
      </trkpt>
      <trkpt lat="42.42646001279354095458984375" lon="1.2701506912708282470703125">
        <ele>1702.199951171875</ele>
        <time>2020-08-12T10:35:10.000Z</time>
      </trkpt>
      <trkpt lat="42.4265047721564769744873046875" lon="1.27010031603276729583740234375">
        <ele>1702</ele>
        <time>2020-08-12T10:35:11.000Z</time>
      </trkpt>
      <trkpt lat="42.42662253789603710174560546875" lon="1.26990200020372867584228515625">
        <ele>1700.4000244140625</ele>
        <time>2020-08-12T10:35:14.000Z</time>
      </trkpt>
      <trkpt lat="42.42665715515613555908203125" lon="1.26983058638870716094970703125">
        <ele>1699.4000244140625</ele>
        <time>2020-08-12T10:35:15.000Z</time>
      </trkpt>
      <trkpt lat="42.4266901798546314239501953125" lon="1.26975699327886104583740234375">
        <ele>1698.5999755859375</ele>
        <time>2020-08-12T10:35:16.000Z</time>
      </trkpt>
      <trkpt lat="42.42671658284962177276611328125" lon="1.26968071796000003814697265625">
        <ele>1698.199951171875</ele>
        <time>2020-08-12T10:35:17.000Z</time>
      </trkpt>
      <trkpt lat="42.4267522059381008148193359375" lon="1.2695309333503246307373046875">
        <ele>1697.800048828125</ele>
        <time>2020-08-12T10:35:19.000Z</time>
      </trkpt>
      <trkpt lat="42.42676285095512866973876953125" lon="1.26946144737303256988525390625">
        <ele>1697.800048828125</ele>
        <time>2020-08-12T10:35:20.000Z</time>
      </trkpt>
      <trkpt lat="42.42679051123559474945068359375" lon="1.26925139687955379486083984375">
        <ele>1697.800048828125</ele>
        <time>2020-08-12T10:35:23.000Z</time>
      </trkpt>
      <trkpt lat="42.4268031679093837738037109375" lon="1.2691795639693737030029296875">
        <ele>1697.4000244140625</ele>
        <time>2020-08-12T10:35:24.000Z</time>
      </trkpt>
      <trkpt lat="42.4268343485891819000244140625" lon="1.2690397538244724273681640625">
        <ele>1696.199951171875</ele>
        <time>2020-08-12T10:35:26.000Z</time>
      </trkpt>
      <trkpt lat="42.4268759228289127349853515625" lon="1.26884437166154384613037109375">
        <ele>1695</ele>
        <time>2020-08-12T10:35:29.000Z</time>
      </trkpt>
      <trkpt lat="42.42689645849168300628662109375" lon="1.26877614296972751617431640625">
        <ele>1695</ele>
        <time>2020-08-12T10:35:30.000Z</time>
      </trkpt>
      <trkpt lat="42.4269153177738189697265625" lon="1.268710009753704071044921875">
        <ele>1695</ele>
        <time>2020-08-12T10:35:31.000Z</time>
      </trkpt>
      <trkpt lat="42.42695798166096210479736328125" lon="1.2685200758278369903564453125">
        <ele>1694.5999755859375</ele>
        <time>2020-08-12T10:35:35.000Z</time>
      </trkpt>
      <trkpt lat="42.427002824842929840087890625" lon="1.2683018110692501068115234375">
        <ele>1694.800048828125</ele>
        <time>2020-08-12T10:35:40.000Z</time>
      </trkpt>
      <trkpt lat="42.426994778215885162353515625" lon="1.2680604122579097747802734375">
        <ele>1694.800048828125</ele>
        <time>2020-08-12T10:35:46.000Z</time>
      </trkpt>
      <trkpt lat="42.42694440297782421112060546875" lon="1.26784021966159343719482421875">
        <ele>1694.5999755859375</ele>
        <time>2020-08-12T10:35:51.000Z</time>
      </trkpt>
      <trkpt lat="42.4268608354032039642333984375" lon="1.267663948237895965576171875">
        <ele>1694</ele>
        <time>2020-08-12T10:35:55.000Z</time>
      </trkpt>
      <trkpt lat="42.42681381292641162872314453125" lon="1.26755900681018829345703125">
        <ele>1693.4000244140625</ele>
        <time>2020-08-12T10:35:57.000Z</time>
      </trkpt>
      <trkpt lat="42.4266714043915271759033203125" lon="1.26731836237013339996337890625">
        <ele>1693.199951171875</ele>
        <time>2020-08-12T10:36:02.000Z</time>
      </trkpt>
      <trkpt lat="42.4266103841364383697509765625" lon="1.2672265805304050445556640625">
        <ele>1693.199951171875</ele>
        <time>2020-08-12T10:36:04.000Z</time>
      </trkpt>
      <trkpt lat="42.4265493638813495635986328125" lon="1.26712222583591938018798828125">
        <ele>1693.199951171875</ele>
        <time>2020-08-12T10:36:06.000Z</time>
      </trkpt>
      <trkpt lat="42.426518686115741729736328125" lon="1.26707553863525390625">
        <ele>1692.5999755859375</ele>
        <time>2020-08-12T10:36:07.000Z</time>
      </trkpt>
      <trkpt lat="42.42645640857517719268798828125" lon="1.2669623829424381256103515625">
        <ele>1692.199951171875</ele>
        <time>2020-08-12T10:36:09.000Z</time>
      </trkpt>
      <trkpt lat="42.42643377743661403656005859375" lon="1.26690194942057132720947265625">
        <ele>1692.4000244140625</ele>
        <time>2020-08-12T10:36:10.000Z</time>
      </trkpt>
      <trkpt lat="42.42638499476015567779541015625" lon="1.266764067113399505615234375">
        <ele>1692.199951171875</ele>
        <time>2020-08-12T10:36:12.000Z</time>
      </trkpt>
      <trkpt lat="42.42635616101324558258056640625" lon="1.2666083313524723052978515625">
        <ele>1691.4000244140625</ele>
        <time>2020-08-12T10:36:14.000Z</time>
      </trkpt>
      <trkpt lat="42.4263518862426280975341796875" lon="1.2664497457444667816162109375">
        <ele>1690.4000244140625</ele>
        <time>2020-08-12T10:36:16.000Z</time>
      </trkpt>
      <trkpt lat="42.42634962312877178192138671875" lon="1.26637506298720836639404296875">
        <ele>1690.199951171875</ele>
        <time>2020-08-12T10:36:17.000Z</time>
      </trkpt>
      <trkpt lat="42.42630838416516780853271484375" lon="1.26623106189072132110595703125">
        <ele>1690</ele>
        <time>2020-08-12T10:36:19.000Z</time>
      </trkpt>
      <trkpt lat="42.42624199949204921722412109375" lon="1.26609661616384983062744140625">
        <ele>1689.800048828125</ele>
        <time>2020-08-12T10:36:21.000Z</time>
      </trkpt>
      <trkpt lat="42.4262023530900478363037109375" lon="1.26603282988071441650390625">
        <ele>1689</ele>
        <time>2020-08-12T10:36:22.000Z</time>
      </trkpt>
      <trkpt lat="42.42615985684096813201904296875" lon="1.26596518792212009429931640625">
        <ele>1688.5999755859375</ele>
        <time>2020-08-12T10:36:23.000Z</time>
      </trkpt>
      <trkpt lat="42.426113672554492950439453125" lon="1.26589603722095489501953125">
        <ele>1688</ele>
        <time>2020-08-12T10:36:24.000Z</time>
      </trkpt>
      <trkpt lat="42.4260078929364681243896484375" lon="1.2657114677131175994873046875">
        <ele>1686.5999755859375</ele>
        <time>2020-08-12T10:36:27.000Z</time>
      </trkpt>
      <trkpt lat="42.42598257958889007568359375" lon="1.26565866172313690185546875">
        <ele>1686.5999755859375</ele>
        <time>2020-08-12T10:36:28.000Z</time>
      </trkpt>
      <trkpt lat="42.42593270726501941680908203125" lon="1.26556050963699817657470703125">
        <ele>1686.5999755859375</ele>
        <time>2020-08-12T10:36:30.000Z</time>
      </trkpt>
      <trkpt lat="42.4258962459862232208251953125" lon="1.26547736115753650665283203125">
        <ele>1686.5999755859375</ele>
        <time>2020-08-12T10:36:32.000Z</time>
      </trkpt>
      <trkpt lat="42.42588467895984649658203125" lon="1.2653765268623828887939453125">
        <ele>1686.800048828125</ele>
        <time>2020-08-12T10:36:34.000Z</time>
      </trkpt>
      <trkpt lat="42.42589130066335201263427734375" lon="1.26532581634819507598876953125">
        <ele>1686.5999755859375</ele>
        <time>2020-08-12T10:36:35.000Z</time>
      </trkpt>
      <trkpt lat="42.42594561539590358734130859375" lon="1.26523696817457675933837890625">
        <ele>1686</ele>
        <time>2020-08-12T10:36:38.000Z</time>
      </trkpt>
      <trkpt lat="42.42601208388805389404296875" lon="1.2652139179408550262451171875">
        <ele>1685.800048828125</ele>
        <time>2020-08-12T10:36:40.000Z</time>
      </trkpt>
      <trkpt lat="42.42605608887970447540283203125" lon="1.26521433703601360321044921875">
        <ele>1685.800048828125</ele>
        <time>2020-08-12T10:36:41.000Z</time>
      </trkpt>
      <trkpt lat="42.42609464563429355621337890625" lon="1.26521517522633075714111328125">
        <ele>1686</ele>
        <time>2020-08-12T10:36:42.000Z</time>
      </trkpt>
      <trkpt lat="42.42613873444497585296630859375" lon="1.2652095593512058258056640625">
        <ele>1685.5999755859375</ele>
        <time>2020-08-12T10:36:44.000Z</time>
      </trkpt>
      <trkpt lat="42.42620796896517276763916015625" lon="1.26518432982265949249267578125">
        <ele>1684.800048828125</ele>
        <time>2020-08-12T10:36:47.000Z</time>
      </trkpt>
      <trkpt lat="42.42631643079221248626708984375" lon="1.265118531882762908935546875">
        <ele>1685.199951171875</ele>
        <time>2020-08-12T10:36:52.000Z</time>
      </trkpt>
      <trkpt lat="42.42641533724963665008544921875" lon="1.26504669897258281707763671875">
        <ele>1686.199951171875</ele>
        <time>2020-08-12T10:36:57.000Z</time>
      </trkpt>
      <trkpt lat="42.42647954262793064117431640625" lon="1.265001855790615081787109375">
        <ele>1686.199951171875</ele>
        <time>2020-08-12T10:37:00.000Z</time>
      </trkpt>
      <trkpt lat="42.42653536610305309295654296875" lon="1.26496799290180206298828125">
        <ele>1685.800048828125</ele>
        <time>2020-08-12T10:37:02.000Z</time>
      </trkpt>
      <trkpt lat="42.4266429059207439422607421875" lon="1.26484863460063934326171875">
        <ele>1684.800048828125</ele>
        <time>2020-08-12T10:37:06.000Z</time>
      </trkpt>
      <trkpt lat="42.426744662225246429443359375" lon="1.26466766931116580963134765625">
        <ele>1684.4000244140625</ele>
        <time>2020-08-12T10:37:10.000Z</time>
      </trkpt>
      <trkpt lat="42.42676318623125553131103515625" lon="1.2646214850246906280517578125">
        <ele>1684.4000244140625</ele>
        <time>2020-08-12T10:37:11.000Z</time>
      </trkpt>
      <trkpt lat="42.42679386399686336517333984375" lon="1.26453674398362636566162109375">
        <ele>1684.4000244140625</ele>
        <time>2020-08-12T10:37:13.000Z</time>
      </trkpt>
      <trkpt lat="42.426825799047946929931640625" lon="1.2644563615322113037109375">
        <ele>1684.199951171875</ele>
        <time>2020-08-12T10:37:15.000Z</time>
      </trkpt>
      <trkpt lat="42.4268356896936893463134765625" lon="1.264376901090145111083984375">
        <ele>1684</ele>
        <time>2020-08-12T10:37:17.000Z</time>
      </trkpt>
      <trkpt lat="42.4268447421491146087646484375" lon="1.26427321694791316986083984375">
        <ele>1683.800048828125</ele>
        <time>2020-08-12T10:37:20.000Z</time>
      </trkpt>
      <trkpt lat="42.4268581531941890716552734375" lon="1.2641095183789730072021484375">
        <ele>1683.800048828125</ele>
        <time>2020-08-12T10:37:25.000Z</time>
      </trkpt>
      <trkpt lat="42.42690517567098140716552734375" lon="1.26404942013323307037353515625">
        <ele>1684.199951171875</ele>
        <time>2020-08-12T10:37:28.000Z</time>
      </trkpt>
      <trkpt lat="42.42692210711538791656494140625" lon="1.26403416506946086883544921875">
        <ele>1684.4000244140625</ele>
        <time>2020-08-12T10:37:29.000Z</time>
      </trkpt>
      <trkpt lat="42.4270314909517765045166015625" lon="1.26392754726111888885498046875">
        <ele>1684.800048828125</ele>
        <time>2020-08-12T10:37:34.000Z</time>
      </trkpt>
      <trkpt lat="42.427071891725063323974609375" lon="1.263884715735912322998046875">
        <ele>1685.800048828125</ele>
        <time>2020-08-12T10:37:36.000Z</time>
      </trkpt>
      <trkpt lat="42.42714372463524341583251953125" lon="1.26385697163641452789306640625">
        <ele>1686.800048828125</ele>
        <time>2020-08-12T10:37:40.000Z</time>
      </trkpt>
      <trkpt lat="42.4271578900516033172607421875" lon="1.26386434771120548248291015625">
        <ele>1686.800048828125</ele>
        <time>2020-08-12T10:37:41.000Z</time>
      </trkpt>
      <trkpt lat="42.42720340378582477569580078125" lon="1.2638758309185504913330078125">
        <ele>1687.199951171875</ele>
        <time>2020-08-12T10:37:42.000Z</time>
      </trkpt>
      <trkpt lat="42.42729275487363338470458984375" lon="1.263927631080150604248046875">
        <ele>1687.199951171875</ele>
        <time>2020-08-12T10:37:45.000Z</time>
      </trkpt>
      <trkpt lat="42.42731027305126190185546875" lon="1.2639562971889972686767578125">
        <ele>1687.199951171875</ele>
        <time>2020-08-12T10:37:46.000Z</time>
      </trkpt>
      <trkpt lat="42.4273909069597721099853515625" lon="1.26405294053256511688232421875">
        <ele>1687.199951171875</ele>
        <time>2020-08-12T10:37:49.000Z</time>
      </trkpt>
      <trkpt lat="42.42753616534173488616943359375" lon="1.264248825609683990478515625">
        <ele>1686.5999755859375</ele>
        <time>2020-08-12T10:37:54.000Z</time>
      </trkpt>
      <trkpt lat="42.42765032686293125152587890625" lon="1.2643812596797943115234375">
        <ele>1686.199951171875</ele>
        <time>2020-08-12T10:37:59.000Z</time>
      </trkpt>
      <trkpt lat="42.42775845341384410858154296875" lon="1.2644628994166851043701171875">
        <ele>1686.5999755859375</ele>
        <time>2020-08-12T10:38:04.000Z</time>
      </trkpt>
      <trkpt lat="42.427851073443889617919921875" lon="1.26449525356292724609375">
        <ele>1687.199951171875</ele>
        <time>2020-08-12T10:38:08.000Z</time>
      </trkpt>
      <trkpt lat="42.42794193327426910400390625" lon="1.264508999884128570556640625">
        <ele>1687</ele>
        <time>2020-08-12T10:38:12.000Z</time>
      </trkpt>
      <trkpt lat="42.428084425628185272216796875" lon="1.26451612450182437896728515625">
        <ele>1686.4000244140625</ele>
        <time>2020-08-12T10:38:17.000Z</time>
      </trkpt>
      <trkpt lat="42.42821224965155124664306640625" lon="1.26449064351618289947509765625">
        <ele>1686.4000244140625</ele>
        <time>2020-08-12T10:38:22.000Z</time>
      </trkpt>
      <trkpt lat="42.42830411531031131744384765625" lon="1.26444068737328052520751953125">
        <ele>1686</ele>
        <time>2020-08-12T10:38:25.000Z</time>
      </trkpt>
      <trkpt lat="42.42836094461381435394287109375" lon="1.26440816558897495269775390625">
        <ele>1685.800048828125</ele>
        <time>2020-08-12T10:38:27.000Z</time>
      </trkpt>
      <trkpt lat="42.4285415746271610260009765625" lon="1.26432920806109905242919921875">
        <ele>1685.5999755859375</ele>
        <time>2020-08-12T10:38:32.000Z</time>
      </trkpt>
      <trkpt lat="42.42866939865052700042724609375" lon="1.26429785974323749542236328125">
        <ele>1686</ele>
        <time>2020-08-12T10:38:37.000Z</time>
      </trkpt>
      <trkpt lat="42.42884223349392414093017578125" lon="1.26424371264874935150146484375">
        <ele>1686.4000244140625</ele>
        <time>2020-08-12T10:38:43.000Z</time>
      </trkpt>
      <trkpt lat="42.428965866565704345703125" lon="1.26422233879566192626953125">
        <ele>1687</ele>
        <time>2020-08-12T10:38:47.000Z</time>
      </trkpt>
      <trkpt lat="42.4290317483246326446533203125" lon="1.26424388028681278228759765625">
        <ele>1686.800048828125</ele>
        <time>2020-08-12T10:38:49.000Z</time>
      </trkpt>
      <trkpt lat="42.42914431728422641754150390625" lon="1.2643559463322162628173828125">
        <ele>1687.5999755859375</ele>
        <time>2020-08-12T10:38:54.000Z</time>
      </trkpt>
      <trkpt lat="42.42916543968021869659423828125" lon="1.26437790691852569580078125">
        <ele>1688</ele>
        <time>2020-08-12T10:38:55.000Z</time>
      </trkpt>
      <trkpt lat="42.42923517711460590362548828125" lon="1.26448796130716800689697265625">
        <ele>1687.800048828125</ele>
        <time>2020-08-12T10:38:59.000Z</time>
      </trkpt>
      <trkpt lat="42.42932016961276531219482421875" lon="1.2646422721445560455322265625">
        <ele>1688.199951171875</ele>
        <time>2020-08-12T10:39:04.000Z</time>
      </trkpt>
      <trkpt lat="42.42938362061977386474609375" lon="1.2648048810660839080810546875">
        <ele>1688.4000244140625</ele>
        <time>2020-08-12T10:39:10.000Z</time>
      </trkpt>
      <trkpt lat="42.429438270628452301025390625" lon="1.26495189964771270751953125">
        <ele>1688.800048828125</ele>
        <time>2020-08-12T10:39:16.000Z</time>
      </trkpt>
      <trkpt lat="42.42944589816033840179443359375" lon="1.264977715909481048583984375">
        <ele>1689</ele>
        <time>2020-08-12T10:39:17.000Z</time>
      </trkpt>
      <trkpt lat="42.42946970276534557342529296875" lon="1.26503127627074718475341796875">
        <ele>1690</ele>
        <time>2020-08-12T10:39:19.000Z</time>
      </trkpt>
      <trkpt lat="42.4294783361256122589111328125" lon="1.2650647200644016265869140625">
        <ele>1690.5999755859375</ele>
        <time>2020-08-12T10:39:20.000Z</time>
      </trkpt>
      <trkpt lat="42.4294860474765300750732421875" lon="1.26509631983935832977294921875">
        <ele>1690.800048828125</ele>
        <time>2020-08-12T10:39:21.000Z</time>
      </trkpt>
      <trkpt lat="42.429518066346645355224609375" lon="1.2652253173291683197021484375">
        <ele>1691</ele>
        <time>2020-08-12T10:39:26.000Z</time>
      </trkpt>
      <trkpt lat="42.42953508161008358001708984375" lon="1.26523596234619617462158203125">
        <ele>1691.199951171875</ele>
        <time>2020-08-12T10:39:32.000Z</time>
      </trkpt>
      <trkpt lat="42.429558299481868743896484375" lon="1.265272758901119232177734375">
        <ele>1691.199951171875</ele>
        <time>2020-08-12T10:39:42.000Z</time>
      </trkpt>
      <trkpt lat="42.42962141521275043487548828125" lon="1.2653896026313304901123046875">
        <ele>1691.4000244140625</ele>
        <time>2020-08-12T10:39:48.000Z</time>
      </trkpt>
      <trkpt lat="42.42965242825448513031005859375" lon="1.265426315367221832275390625">
        <ele>1691.5999755859375</ele>
        <time>2020-08-12T10:39:50.000Z</time>
      </trkpt>
      <trkpt lat="42.4297475628554821014404296875" lon="1.26552010886371135711669921875">
        <ele>1691.5999755859375</ele>
        <time>2020-08-12T10:39:55.000Z</time>
      </trkpt>
      <trkpt lat="42.42986532859504222869873046875" lon="1.26562136225402355194091796875">
        <ele>1692</ele>
        <time>2020-08-12T10:40:01.000Z</time>
      </trkpt>
      <trkpt lat="42.429955936968326568603515625" lon="1.26568757928907871246337890625">
        <ele>1692.4000244140625</ele>
        <time>2020-08-12T10:40:06.000Z</time>
      </trkpt>
      <trkpt lat="42.430038750171661376953125" lon="1.26577642746269702911376953125">
        <ele>1693.199951171875</ele>
        <time>2020-08-12T10:40:12.000Z</time>
      </trkpt>
      <trkpt lat="42.43006716482341289520263671875" lon="1.2658046744763851165771484375">
        <ele>1693.4000244140625</ele>
        <time>2020-08-12T10:40:14.000Z</time>
      </trkpt>
      <trkpt lat="42.43008367717266082763671875" lon="1.26581850461661815643310546875">
        <ele>1693.5999755859375</ele>
        <time>2020-08-12T10:40:15.000Z</time>
      </trkpt>
      <trkpt lat="42.430121898651123046875" lon="1.26587734557688236236572265625">
        <ele>1694</ele>
        <time>2020-08-12T10:40:18.000Z</time>
      </trkpt>
      <trkpt lat="42.43018099106848239898681640625" lon="1.26594607718288898468017578125">
        <ele>1694.5999755859375</ele>
        <time>2020-08-12T10:40:22.000Z</time>
      </trkpt>
      <trkpt lat="42.43020462803542613983154296875" lon="1.26597675494849681854248046875">
        <ele>1694.800048828125</ele>
        <time>2020-08-12T10:40:24.000Z</time>
      </trkpt>
      <trkpt lat="42.43025944568216800689697265625" lon="1.26604020595550537109375">
        <ele>1695.5999755859375</ele>
        <time>2020-08-12T10:40:28.000Z</time>
      </trkpt>
      <trkpt lat="42.4302793107926845550537109375" lon="1.2660568021237850189208984375">
        <ele>1695.5999755859375</ele>
        <time>2020-08-12T10:40:29.000Z</time>
      </trkpt>
      <trkpt lat="42.43038752116262912750244140625" lon="1.2661758251488208770751953125">
        <ele>1696.199951171875</ele>
        <time>2020-08-12T10:40:36.000Z</time>
      </trkpt>
      <trkpt lat="42.430402524769306182861328125" lon="1.266189403831958770751953125">
        <ele>1696.5999755859375</ele>
        <time>2020-08-12T10:40:37.000Z</time>
      </trkpt>
      <trkpt lat="42.43048542179167270660400390625" lon="1.26627766527235507965087890625">
        <ele>1697</ele>
        <time>2020-08-12T10:40:42.000Z</time>
      </trkpt>
      <trkpt lat="42.43055029772222042083740234375" lon="1.26634287647902965545654296875">
        <ele>1697.5999755859375</ele>
        <time>2020-08-12T10:40:46.000Z</time>
      </trkpt>
      <trkpt lat="42.43058633990585803985595703125" lon="1.26637271605432033538818359375">
        <ele>1698.199951171875</ele>
        <time>2020-08-12T10:40:48.000Z</time>
      </trkpt>
      <trkpt lat="42.4306752718985080718994140625" lon="1.26644932664930820465087890625">
        <ele>1698.800048828125</ele>
        <time>2020-08-12T10:40:53.000Z</time>
      </trkpt>
      <trkpt lat="42.43069144897162914276123046875" lon="1.266462318599224090576171875">
        <ele>1698.800048828125</ele>
        <time>2020-08-12T10:40:54.000Z</time>
      </trkpt>
      <trkpt lat="42.43079018779098987579345703125" lon="1.26652711071074008941650390625">
        <ele>1699.5999755859375</ele>
        <time>2020-08-12T10:40:59.000Z</time>
      </trkpt>
      <trkpt lat="42.43080594576895236968994140625" lon="1.266539096832275390625">
        <ele>1699.800048828125</ele>
        <time>2020-08-12T10:41:00.000Z</time>
      </trkpt>
      <trkpt lat="42.430877946317195892333984375" lon="1.266591735184192657470703125">
        <ele>1700.5999755859375</ele>
        <time>2020-08-12T10:41:05.000Z</time>
      </trkpt>
      <trkpt lat="42.43091256357729434967041015625" lon="1.266608498990535736083984375">
        <ele>1701</ele>
        <time>2020-08-12T10:41:07.000Z</time>
      </trkpt>
      <trkpt lat="42.4309455044567584991455078125" lon="1.26663087867200374603271484375">
        <ele>1701.199951171875</ele>
        <time>2020-08-12T10:41:09.000Z</time>
      </trkpt>
      <trkpt lat="42.43096436373889446258544921875" lon="1.26663859002292156219482421875">
        <ele>1701.4000244140625</ele>
        <time>2020-08-12T10:41:10.000Z</time>
      </trkpt>
      <trkpt lat="42.43106259964406490325927734375" lon="1.26667094416916370391845703125">
        <ele>1702.199951171875</ele>
        <time>2020-08-12T10:41:15.000Z</time>
      </trkpt>
      <trkpt lat="42.43110719136893749237060546875" lon="1.26668754033744335174560546875">
        <ele>1702.4000244140625</ele>
        <time>2020-08-12T10:41:17.000Z</time>
      </trkpt>
      <trkpt lat="42.43123945780098438262939453125" lon="1.26673062331974506378173828125">
        <ele>1702.800048828125</ele>
        <time>2020-08-12T10:41:23.000Z</time>
      </trkpt>
      <trkpt lat="42.43125923909246921539306640625" lon="1.26673833467066287994384765625">
        <ele>1703</ele>
        <time>2020-08-12T10:41:24.000Z</time>
      </trkpt>
      <trkpt lat="42.431337274610996246337890625" lon="1.2667900510132312774658203125">
        <ele>1703.5999755859375</ele>
        <time>2020-08-12T10:41:28.000Z</time>
      </trkpt>
      <trkpt lat="42.43140893988311290740966796875" lon="1.26684612594544887542724609375">
        <ele>1704.4000244140625</ele>
        <time>2020-08-12T10:41:32.000Z</time>
      </trkpt>
      <trkpt lat="42.43148957379162311553955078125" lon="1.26688585616648197174072265625">
        <ele>1705.4000244140625</ele>
        <time>2020-08-12T10:41:36.000Z</time>
      </trkpt>
      <trkpt lat="42.43158814497292041778564453125" lon="1.26693866215646266937255859375">
        <ele>1706.4000244140625</ele>
        <time>2020-08-12T10:41:41.000Z</time>
      </trkpt>
      <trkpt lat="42.4316261149942874908447265625" lon="1.2669566832482814788818359375">
        <ele>1706.800048828125</ele>
        <time>2020-08-12T10:41:43.000Z</time>
      </trkpt>
      <trkpt lat="42.43171588517725467681884765625" lon="1.2669871933758258819580078125">
        <ele>1707.5999755859375</ele>
        <time>2020-08-12T10:41:47.000Z</time>
      </trkpt>
      <trkpt lat="42.43177858181297779083251953125" lon="1.26700789667665958404541015625">
        <ele>1708</ele>
        <time>2020-08-12T10:41:50.000Z</time>
      </trkpt>
      <trkpt lat="42.43183172307908535003662109375" lon="1.2670217268168926239013671875">
        <ele>1708.800048828125</ele>
        <time>2020-08-12T10:41:53.000Z</time>
      </trkpt>
      <trkpt lat="42.43190783075988292694091796875" lon="1.26702298410236835479736328125">
        <ele>1709.4000244140625</ele>
        <time>2020-08-12T10:41:57.000Z</time>
      </trkpt>
      <trkpt lat="42.431942783296108245849609375" lon="1.267008818686008453369140625">
        <ele>1709.800048828125</ele>
        <time>2020-08-12T10:41:59.000Z</time>
      </trkpt>
      <trkpt lat="42.432021237909793853759765625" lon="1.26697856001555919647216796875">
        <ele>1710.199951171875</ele>
        <time>2020-08-12T10:42:03.000Z</time>
      </trkpt>
      <trkpt lat="42.4320364929735660552978515625" lon="1.2669637240469455718994140625">
        <ele>1710.4000244140625</ele>
        <time>2020-08-12T10:42:04.000Z</time>
      </trkpt>
      <trkpt lat="42.43208854459226131439208984375" lon="1.26691016368567943572998046875">
        <ele>1710.4000244140625</ele>
        <time>2020-08-12T10:42:08.000Z</time>
      </trkpt>
      <trkpt lat="42.43213581852614879608154296875" lon="1.26686875708401203155517578125">
        <ele>1710.4000244140625</ele>
        <time>2020-08-12T10:42:11.000Z</time>
      </trkpt>
      <trkpt lat="42.4321491457521915435791015625" lon="1.2668462097644805908203125">
        <ele>1710.4000244140625</ele>
        <time>2020-08-12T10:42:12.000Z</time>
      </trkpt>
      <trkpt lat="42.43216046132147312164306640625" lon="1.2668242491781711578369140625">
        <ele>1710</ele>
        <time>2020-08-12T10:42:15.000Z</time>
      </trkpt>
      <trkpt lat="42.43216666392982006072998046875" lon="1.2668205611407756805419921875">
        <ele>1709.800048828125</ele>
        <time>2020-08-12T10:42:27.000Z</time>
      </trkpt>
      <trkpt lat="42.43216699920594692230224609375" lon="1.266821064054965972900390625">
        <ele>1710.199951171875</ele>
        <time>2020-08-12T10:42:40.000Z</time>
      </trkpt>
      <trkpt lat="42.4321716092526912689208984375" lon="1.266812346875667572021484375">
        <ele>1710.5999755859375</ele>
        <time>2020-08-12T10:42:48.000Z</time>
      </trkpt>
      <trkpt lat="42.43217521347105503082275390625" lon="1.266796924173831939697265625">
        <ele>1710.4000244140625</ele>
        <time>2020-08-12T10:42:49.000Z</time>
      </trkpt>
      <trkpt lat="42.4322245828807353973388671875" lon="1.266654767096042633056640625">
        <ele>1710.199951171875</ele>
        <time>2020-08-12T10:42:55.000Z</time>
      </trkpt>
      <trkpt lat="42.4322758801281452178955078125" lon="1.266471706330776214599609375">
        <ele>1710</ele>
        <time>2020-08-12T10:43:00.000Z</time>
      </trkpt>
      <trkpt lat="42.43233312852680683135986328125" lon="1.2662194110453128814697265625">
        <ele>1709</ele>
        <time>2020-08-12T10:43:05.000Z</time>
      </trkpt>
      <trkpt lat="42.432375289499759674072265625" lon="1.2661034055054187774658203125">
        <ele>1708.5999755859375</ele>
        <time>2020-08-12T10:43:07.000Z</time>
      </trkpt>
      <trkpt lat="42.43240873329341411590576171875" lon="1.2659729830920696258544921875">
        <ele>1708.199951171875</ele>
        <time>2020-08-12T10:43:09.000Z</time>
      </trkpt>
      <trkpt lat="42.43246371857821941375732421875" lon="1.26576284877955913543701171875">
        <ele>1708.4000244140625</ele>
        <time>2020-08-12T10:43:12.000Z</time>
      </trkpt>
      <trkpt lat="42.43248735554516315460205078125" lon="1.2656231224536895751953125">
        <ele>1708.199951171875</ele>
        <time>2020-08-12T10:43:14.000Z</time>
      </trkpt>
      <trkpt lat="42.4325018562376499176025390625" lon="1.2654782831668853759765625">
        <ele>1707.5999755859375</ele>
        <time>2020-08-12T10:43:16.000Z</time>
      </trkpt>
      <trkpt lat="42.43252088315784931182861328125" lon="1.2653307616710662841796875">
        <ele>1706.5999755859375</ele>
        <time>2020-08-12T10:43:18.000Z</time>
      </trkpt>
      <trkpt lat="42.4325380660593509674072265625" lon="1.2652595154941082000732421875">
        <ele>1706</ele>
        <time>2020-08-12T10:43:19.000Z</time>
      </trkpt>
      <trkpt lat="42.43255801498889923095703125" lon="1.26518801786005496978759765625">
        <ele>1705.800048828125</ele>
        <time>2020-08-12T10:43:20.000Z</time>
      </trkpt>
      <trkpt lat="42.432648204267024993896484375" lon="1.26491258852183818817138671875">
        <ele>1705.5999755859375</ele>
        <time>2020-08-12T10:43:24.000Z</time>
      </trkpt>
      <trkpt lat="42.43266253732144832611083984375" lon="1.2648477964103221893310546875">
        <ele>1705.800048828125</ele>
        <time>2020-08-12T10:43:25.000Z</time>
      </trkpt>
      <trkpt lat="42.43270126171410083770751953125" lon="1.26473388634622097015380859375">
        <ele>1705.800048828125</ele>
        <time>2020-08-12T10:43:27.000Z</time>
      </trkpt>
      <trkpt lat="42.4327580071985721588134765625" lon="1.2646400928497314453125">
        <ele>1705.800048828125</ele>
        <time>2020-08-12T10:43:29.000Z</time>
      </trkpt>
      <trkpt lat="42.43281357921659946441650390625" lon="1.2645685113966464996337890625">
        <ele>1705.5999755859375</ele>
        <time>2020-08-12T10:43:31.000Z</time>
      </trkpt>
      <trkpt lat="42.43288096971809864044189453125" lon="1.26447421498596668243408203125">
        <ele>1705.4000244140625</ele>
        <time>2020-08-12T10:43:34.000Z</time>
      </trkpt>
      <trkpt lat="42.4329343624413013458251953125" lon="1.26442526467144489288330078125">
        <ele>1705.5999755859375</ele>
        <time>2020-08-12T10:43:36.000Z</time>
      </trkpt>
      <trkpt lat="42.43297250010073184967041015625" lon="1.26436608843505382537841796875">
        <ele>1705.800048828125</ele>
        <time>2020-08-12T10:43:38.000Z</time>
      </trkpt>
      <trkpt lat="42.4330399744212627410888671875" lon="1.26424941234290599822998046875">
        <ele>1706.199951171875</ele>
        <time>2020-08-12T10:43:43.000Z</time>
      </trkpt>
      <trkpt lat="42.43319110013544559478759765625" lon="1.26410122029483318328857421875">
        <ele>1707</ele>
        <time>2020-08-12T10:43:49.000Z</time>
      </trkpt>
      <trkpt lat="42.43328564800322055816650390625" lon="1.2640179879963397979736328125">
        <ele>1707.199951171875</ele>
        <time>2020-08-12T10:43:54.000Z</time>
      </trkpt>
      <trkpt lat="42.433310709893703460693359375" lon="1.2639958597719669342041015625">
        <ele>1707.5999755859375</ele>
        <time>2020-08-12T10:43:55.000Z</time>
      </trkpt>
      <trkpt lat="42.4334174953401088714599609375" lon="1.2639103643596172332763671875">
        <ele>1708.5999755859375</ele>
        <time>2020-08-12T10:43:59.000Z</time>
      </trkpt>
      <trkpt lat="42.43344792164862155914306640625" lon="1.263885386288166046142578125">
        <ele>1708.5999755859375</ele>
        <time>2020-08-12T10:44:00.000Z</time>
      </trkpt>
      <trkpt lat="42.43362109176814556121826171875" lon="1.26371045596897602081298828125">
        <ele>1708</ele>
        <time>2020-08-12T10:44:05.000Z</time>
      </trkpt>
      <trkpt lat="42.4337544478476047515869140625" lon="1.2635631859302520751953125">
        <ele>1708.199951171875</ele>
        <time>2020-08-12T10:44:10.000Z</time>
      </trkpt>
      <trkpt lat="42.43387900292873382568359375" lon="1.26340887509286403656005859375">
        <ele>1708</ele>
        <time>2020-08-12T10:44:15.000Z</time>
      </trkpt>
      <trkpt lat="42.43399375118315219879150390625" lon="1.26327124424278736114501953125">
        <ele>1707.5999755859375</ele>
        <time>2020-08-12T10:44:20.000Z</time>
      </trkpt>
      <trkpt lat="42.4341343156993389129638671875" lon="1.263111568987369537353515625">
        <ele>1707.5999755859375</ele>
        <time>2020-08-12T10:44:25.000Z</time>
      </trkpt>
      <trkpt lat="42.4342865310609340667724609375" lon="1.2629414163529872894287109375">
        <ele>1706.800048828125</ele>
        <time>2020-08-12T10:44:30.000Z</time>
      </trkpt>
      <trkpt lat="42.434409074485301971435546875" lon="1.2628183700144290924072265625">
        <ele>1706.800048828125</ele>
        <time>2020-08-12T10:44:34.000Z</time>
      </trkpt>
      <trkpt lat="42.43463136255741119384765625" lon="1.262565739452838897705078125">
        <ele>1706.4000244140625</ele>
        <time>2020-08-12T10:44:41.000Z</time>
      </trkpt>
      <trkpt lat="42.4348306842148303985595703125" lon="1.26233381219208240509033203125">
        <ele>1705.4000244140625</ele>
        <time>2020-08-12T10:44:46.000Z</time>
      </trkpt>
      <trkpt lat="42.43487276136875152587890625" lon="1.26228536479175090789794921875">
        <ele>1705.199951171875</ele>
        <time>2020-08-12T10:44:47.000Z</time>
      </trkpt>
      <trkpt lat="42.43505389429628849029541015625" lon="1.26209123991429805755615234375">
        <ele>1704.199951171875</ele>
        <time>2020-08-12T10:44:51.000Z</time>
      </trkpt>
      <trkpt lat="42.43509496562182903289794921875" lon="1.2620343267917633056640625">
        <ele>1704</ele>
        <time>2020-08-12T10:44:52.000Z</time>
      </trkpt>
      <trkpt lat="42.43517995811998844146728515625" lon="1.26191429793834686279296875">
        <ele>1704</ele>
        <time>2020-08-12T10:44:54.000Z</time>
      </trkpt>
      <trkpt lat="42.43530250154435634613037109375" lon="1.2617454864084720611572265625">
        <ele>1703.4000244140625</ele>
        <time>2020-08-12T10:44:57.000Z</time>
      </trkpt>
      <trkpt lat="42.4353723227977752685546875" lon="1.26167231239378452301025390625">
        <ele>1703.199951171875</ele>
        <time>2020-08-12T10:44:59.000Z</time>
      </trkpt>
      <trkpt lat="42.43543610908091068267822265625" lon="1.26160693354904651641845703125">
        <ele>1702.800048828125</ele>
        <time>2020-08-12T10:45:01.000Z</time>
      </trkpt>
      <trkpt lat="42.43556208908557891845703125" lon="1.2614749185740947723388671875">
        <ele>1702.5999755859375</ele>
        <time>2020-08-12T10:45:05.000Z</time>
      </trkpt>
      <trkpt lat="42.4356373585760593414306640625" lon="1.2613964639604091644287109375">
        <ele>1702.800048828125</ele>
        <time>2020-08-12T10:45:07.000Z</time>
      </trkpt>
      <trkpt lat="42.43570986203849315643310546875" lon="1.2613203562796115875244140625">
        <ele>1703.199951171875</ele>
        <time>2020-08-12T10:45:09.000Z</time>
      </trkpt>
      <trkpt lat="42.43578471243381500244140625" lon="1.261232681572437286376953125">
        <ele>1703.4000244140625</ele>
        <time>2020-08-12T10:45:11.000Z</time>
      </trkpt>
      <trkpt lat="42.43589594028890132904052734375" lon="1.26110083423554897308349609375">
        <ele>1702.4000244140625</ele>
        <time>2020-08-12T10:45:14.000Z</time>
      </trkpt>
      <trkpt lat="42.435937263071537017822265625" lon="1.26106060110032558441162109375">
        <ele>1702.4000244140625</ele>
        <time>2020-08-12T10:45:15.000Z</time>
      </trkpt>
      <trkpt lat="42.4360219202935695648193359375" lon="1.26099455170333385467529296875">
        <ele>1702</ele>
        <time>2020-08-12T10:45:17.000Z</time>
      </trkpt>
      <trkpt lat="42.43610934354364871978759765625" lon="1.260918863117694854736328125">
        <ele>1701</ele>
        <time>2020-08-12T10:45:19.000Z</time>
      </trkpt>
      <trkpt lat="42.43615695275366306304931640625" lon="1.26088256947696208953857421875">
        <ele>1700.5999755859375</ele>
        <time>2020-08-12T10:45:20.000Z</time>
      </trkpt>
      <trkpt lat="42.4362995289266109466552734375" lon="1.2608005106449127197265625">
        <ele>1700.199951171875</ele>
        <time>2020-08-12T10:45:23.000Z</time>
      </trkpt>
      <trkpt lat="42.4364346452057361602783203125" lon="1.26072750426828861236572265625">
        <ele>1700.4000244140625</ele>
        <time>2020-08-12T10:45:26.000Z</time>
      </trkpt>
      <trkpt lat="42.436572611331939697265625" lon="1.26062147319316864013671875">
        <ele>1699.199951171875</ele>
        <time>2020-08-12T10:45:29.000Z</time>
      </trkpt>
      <trkpt lat="42.4366619624197483062744140625" lon="1.260561458766460418701171875">
        <ele>1698.800048828125</ele>
        <time>2020-08-12T10:45:31.000Z</time>
      </trkpt>
      <trkpt lat="42.436729855835437774658203125" lon="1.2605036236345767974853515625">
        <ele>1697.800048828125</ele>
        <time>2020-08-12T10:45:33.000Z</time>
      </trkpt>
      <trkpt lat="42.43680663406848907470703125" lon="1.26043028198182582855224609375">
        <ele>1697</ele>
        <time>2020-08-12T10:45:35.000Z</time>
      </trkpt>
      <trkpt lat="42.43685030378401279449462890625" lon="1.26038149930536746978759765625">
        <ele>1696.5999755859375</ele>
        <time>2020-08-12T10:45:36.000Z</time>
      </trkpt>
      <trkpt lat="42.43689673952758312225341796875" lon="1.26033741049468517303466796875">
        <ele>1696.800048828125</ele>
        <time>2020-08-12T10:45:37.000Z</time>
      </trkpt>
      <trkpt lat="42.43705096654593944549560546875" lon="1.26019542105495929718017578125">
        <ele>1696.800048828125</ele>
        <time>2020-08-12T10:45:40.000Z</time>
      </trkpt>
      <trkpt lat="42.43723419494926929473876953125" lon="1.25997413881123065948486328125">
        <ele>1696.199951171875</ele>
        <time>2020-08-12T10:45:44.000Z</time>
      </trkpt>
      <trkpt lat="42.437319271266460418701171875" lon="1.25985494814813137054443359375">
        <ele>1696.199951171875</ele>
        <time>2020-08-12T10:45:46.000Z</time>
      </trkpt>
      <trkpt lat="42.43747006170451641082763671875" lon="1.2596176564693450927734375">
        <ele>1697</ele>
        <time>2020-08-12T10:45:50.000Z</time>
      </trkpt>
      <trkpt lat="42.43753619492053985595703125" lon="1.25952067784965038299560546875">
        <ele>1696.5999755859375</ele>
        <time>2020-08-12T10:45:52.000Z</time>
      </trkpt>
      <trkpt lat="42.437598891556262969970703125" lon="1.25942562706768512725830078125">
        <ele>1696</ele>
        <time>2020-08-12T10:45:54.000Z</time>
      </trkpt>
      <trkpt lat="42.43768312968313694000244140625" lon="1.2592999823391437530517578125">
        <ele>1695.199951171875</ele>
        <time>2020-08-12T10:45:57.000Z</time>
      </trkpt>
      <trkpt lat="42.43771615438163280487060546875" lon="1.2592647783458232879638671875">
        <ele>1694.800048828125</ele>
        <time>2020-08-12T10:45:58.000Z</time>
      </trkpt>
      <trkpt lat="42.43786149658262729644775390625" lon="1.259069144725799560546875">
        <ele>1693.5999755859375</ele>
        <time>2020-08-12T10:46:03.000Z</time>
      </trkpt>
      <trkpt lat="42.43792754597961902618408203125" lon="1.25898976810276508331298828125">
        <ele>1692.4000244140625</ele>
        <time>2020-08-12T10:46:05.000Z</time>
      </trkpt>
      <trkpt lat="42.43803885765373706817626953125" lon="1.25885364599525928497314453125">
        <ele>1691.4000244140625</ele>
        <time>2020-08-12T10:46:08.000Z</time>
      </trkpt>
      <trkpt lat="42.43808210827410221099853515625" lon="1.258803941309452056884765625">
        <ele>1691.199951171875</ele>
        <time>2020-08-12T10:46:09.000Z</time>
      </trkpt>
      <trkpt lat="42.438199035823345184326171875" lon="1.25866404734551906585693359375">
        <ele>1690.800048828125</ele>
        <time>2020-08-12T10:46:12.000Z</time>
      </trkpt>
      <trkpt lat="42.43827405385673046112060546875" lon="1.2585640512406826019287109375">
        <ele>1690</ele>
        <time>2020-08-12T10:46:14.000Z</time>
      </trkpt>
      <trkpt lat="42.43843716569244861602783203125" lon="1.25836296938359737396240234375">
        <ele>1688.5999755859375</ele>
        <time>2020-08-12T10:46:18.000Z</time>
      </trkpt>
      <trkpt lat="42.43847169913351535797119140625" lon="1.25831468962132930755615234375">
        <ele>1688.199951171875</ele>
        <time>2020-08-12T10:46:19.000Z</time>
      </trkpt>
      <trkpt lat="42.43851411156356334686279296875" lon="1.2582116760313510894775390625">
        <ele>1687.5999755859375</ele>
        <time>2020-08-12T10:46:22.000Z</time>
      </trkpt>
      <trkpt lat="42.43852383457124233245849609375" lon="1.25820103101432323455810546875">
        <ele>1687.800048828125</ele>
        <time>2020-08-12T10:46:28.000Z</time>
      </trkpt>
      <trkpt lat="42.4385183863341808319091796875" lon="1.2581853568553924560546875">
        <ele>1688</ele>
        <time>2020-08-12T10:46:35.000Z</time>
      </trkpt>
      <trkpt lat="42.438518218696117401123046875" lon="1.2581826746463775634765625">
        <ele>1688</ele>
        <time>2020-08-12T10:46:47.000Z</time>
      </trkpt>
      <trkpt lat="42.43851645849645137786865234375" lon="1.2581811659038066864013671875">
        <ele>1687.800048828125</ele>
        <time>2020-08-12T10:47:04.000Z</time>
      </trkpt>
      <trkpt lat="42.43851746432483196258544921875" lon="1.25818007625639438629150390625">
        <ele>1687.5999755859375</ele>
        <time>2020-08-12T10:47:18.000Z</time>
      </trkpt>
      <trkpt lat="42.43852400220930576324462890625" lon="1.25816850923001766204833984375">
        <ele>1686.800048828125</ele>
        <time>2020-08-12T10:47:36.000Z</time>
      </trkpt>
      <trkpt lat="42.4385264329612255096435546875" lon="1.2581503205001354217529296875">
        <ele>1686.800048828125</ele>
        <time>2020-08-12T10:47:37.000Z</time>
      </trkpt>
      <trkpt lat="42.4385696835815906524658203125" lon="1.25802107155323028564453125">
        <ele>1687</ele>
        <time>2020-08-12T10:47:42.000Z</time>
      </trkpt>
      <trkpt lat="42.438622154295444488525390625" lon="1.25779517926275730133056640625">
        <ele>1688.199951171875</ele>
        <time>2020-08-12T10:47:51.000Z</time>
      </trkpt>
      <trkpt lat="42.43864436633884906768798828125" lon="1.257738769054412841796875">
        <ele>1688.800048828125</ele>
        <time>2020-08-12T10:47:54.000Z</time>
      </trkpt>
      <trkpt lat="42.43871276266872882843017578125" lon="1.25764262862503528594970703125">
        <ele>1689</ele>
        <time>2020-08-12T10:47:59.000Z</time>
      </trkpt>
      <trkpt lat="42.43884335272014141082763671875" lon="1.25745244324207305908203125">
        <ele>1688.4000244140625</ele>
        <time>2020-08-12T10:48:06.000Z</time>
      </trkpt>
      <trkpt lat="42.4389438517391681671142578125" lon="1.257288157939910888671875">
        <ele>1688.4000244140625</ele>
        <time>2020-08-12T10:48:11.000Z</time>
      </trkpt>
      <trkpt lat="42.4390779621899127960205078125" lon="1.2571870721876621246337890625">
        <ele>1688</ele>
        <time>2020-08-12T10:48:16.000Z</time>
      </trkpt>
      <trkpt lat="42.43910855613648891448974609375" lon="1.25717885792255401611328125">
        <ele>1687.800048828125</ele>
        <time>2020-08-12T10:48:17.000Z</time>
      </trkpt>
      <trkpt lat="42.43923411704599857330322265625" lon="1.25713418237864971160888671875">
        <ele>1686.800048828125</ele>
        <time>2020-08-12T10:48:21.000Z</time>
      </trkpt>
      <trkpt lat="42.4393098056316375732421875" lon="1.25707450322806835174560546875">
        <ele>1686</ele>
        <time>2020-08-12T10:48:23.000Z</time>
      </trkpt>
      <trkpt lat="42.4393659643828868865966796875" lon="1.2569976411759853363037109375">
        <ele>1685.800048828125</ele>
        <time>2020-08-12T10:48:25.000Z</time>
      </trkpt>
      <trkpt lat="42.43949127383530139923095703125" lon="1.25680980272591114044189453125">
        <ele>1685</ele>
        <time>2020-08-12T10:48:31.000Z</time>
      </trkpt>
      <trkpt lat="42.43962161242961883544921875" lon="1.256639398634433746337890625">
        <ele>1685.4000244140625</ele>
        <time>2020-08-12T10:48:38.000Z</time>
      </trkpt>
      <trkpt lat="42.4397280625998973846435546875" lon="1.25646731816232204437255859375">
        <ele>1685.800048828125</ele>
        <time>2020-08-12T10:48:43.000Z</time>
      </trkpt>
      <trkpt lat="42.43982277810573577880859375" lon="1.25630906783044338226318359375">
        <ele>1685.5999755859375</ele>
        <time>2020-08-12T10:48:48.000Z</time>
      </trkpt>
      <trkpt lat="42.43993903510272502899169921875" lon="1.25614930875599384307861328125">
        <ele>1685.4000244140625</ele>
        <time>2020-08-12T10:48:54.000Z</time>
      </trkpt>
      <trkpt lat="42.44008303619921207427978515625" lon="1.255969516932964324951171875">
        <ele>1685.800048828125</ele>
        <time>2020-08-12T10:49:01.000Z</time>
      </trkpt>
      <trkpt lat="42.44017758406698703765869140625" lon="1.2558530084788799285888671875">
        <ele>1686.5999755859375</ele>
        <time>2020-08-12T10:49:06.000Z</time>
      </trkpt>
      <trkpt lat="42.44027330540120601654052734375" lon="1.2557235918939113616943359375">
        <ele>1686.5999755859375</ele>
        <time>2020-08-12T10:49:11.000Z</time>
      </trkpt>
      <trkpt lat="42.4403117783367633819580078125" lon="1.2556796707212924957275390625">
        <ele>1687.199951171875</ele>
        <time>2020-08-12T10:49:13.000Z</time>
      </trkpt>
      <trkpt lat="42.44033038616180419921875" lon="1.25565829686820507049560546875">
        <ele>1687.4000244140625</ele>
        <time>2020-08-12T10:49:14.000Z</time>
      </trkpt>
      <trkpt lat="42.44043432176113128662109375" lon="1.2555546127259731292724609375">
        <ele>1687.5999755859375</ele>
        <time>2020-08-12T10:49:19.000Z</time>
      </trkpt>
      <trkpt lat="42.4405437894165515899658203125" lon="1.2554241903126239776611328125">
        <ele>1687</ele>
        <time>2020-08-12T10:49:24.000Z</time>
      </trkpt>
      <trkpt lat="42.44061126373708248138427734375" lon="1.25535520724952220916748046875">
        <ele>1686</ele>
        <time>2020-08-12T10:49:27.000Z</time>
      </trkpt>
      <trkpt lat="42.4406527541577816009521484375" lon="1.25530608929693698883056640625">
        <ele>1685.800048828125</ele>
        <time>2020-08-12T10:49:29.000Z</time>
      </trkpt>
      <trkpt lat="42.44079985655844211578369140625" lon="1.2551625072956085205078125">
        <ele>1685</ele>
        <time>2020-08-12T10:49:33.000Z</time>
      </trkpt>
      <trkpt lat="42.4408391676843166351318359375" lon="1.25512269325554370880126953125">
        <ele>1684.5999755859375</ele>
        <time>2020-08-12T10:49:34.000Z</time>
      </trkpt>
      <trkpt lat="42.44087529368698596954345703125" lon="1.25507759861648082733154296875">
        <ele>1684.4000244140625</ele>
        <time>2020-08-12T10:49:35.000Z</time>
      </trkpt>
      <trkpt lat="42.44096405804157257080078125" lon="1.254969723522663116455078125">
        <ele>1683.4000244140625</ele>
        <time>2020-08-12T10:49:37.000Z</time>
      </trkpt>
      <trkpt lat="42.4410805664956569671630859375" lon="1.25479579903185367584228515625">
        <ele>1682.199951171875</ele>
        <time>2020-08-12T10:49:40.000Z</time>
      </trkpt>
      <trkpt lat="42.44112105108797550201416015625" lon="1.25473896972835063934326171875">
        <ele>1681.800048828125</ele>
        <time>2020-08-12T10:49:41.000Z</time>
      </trkpt>
      <trkpt lat="42.44115709327161312103271484375" lon="1.25468532554805278778076171875">
        <ele>1681.199951171875</ele>
        <time>2020-08-12T10:49:42.000Z</time>
      </trkpt>
      <trkpt lat="42.44118844158947467803955078125" lon="1.25463570468127727508544921875">
        <ele>1681</ele>
        <time>2020-08-12T10:49:43.000Z</time>
      </trkpt>
      <trkpt lat="42.441220544278621673583984375" lon="1.25459111295640468597412109375">
        <ele>1680.800048828125</ele>
        <time>2020-08-12T10:49:44.000Z</time>
      </trkpt>
      <trkpt lat="42.44131743907928466796875" lon="1.25441274605691432952880859375">
        <ele>1681</ele>
        <time>2020-08-12T10:49:48.000Z</time>
      </trkpt>
      <trkpt lat="42.4413471110165119171142578125" lon="1.25436480157077312469482421875">
        <ele>1681</ele>
        <time>2020-08-12T10:49:49.000Z</time>
      </trkpt>
      <trkpt lat="42.441421709954738616943359375" lon="1.2542178668081760406494140625">
        <ele>1680.199951171875</ele>
        <time>2020-08-12T10:49:52.000Z</time>
      </trkpt>
      <trkpt lat="42.44143721647560596466064453125" lon="1.254175119102001190185546875">
        <ele>1679.800048828125</ele>
        <time>2020-08-12T10:49:53.000Z</time>
      </trkpt>
      <trkpt lat="42.44147309102118015289306640625" lon="1.2540829181671142578125">
        <ele>1678.199951171875</ele>
        <time>2020-08-12T10:49:55.000Z</time>
      </trkpt>
      <trkpt lat="42.44152355007827281951904296875" lon="1.253992058336734771728515625">
        <ele>1677.199951171875</ele>
        <time>2020-08-12T10:49:57.000Z</time>
      </trkpt>
      <trkpt lat="42.44167610071599483489990234375" lon="1.2537602148950099945068359375">
        <ele>1677.199951171875</ele>
        <time>2020-08-12T10:50:02.000Z</time>
      </trkpt>
      <trkpt lat="42.4417608417570590972900390625" lon="1.25360481441020965576171875">
        <ele>1676</ele>
        <time>2020-08-12T10:50:05.000Z</time>
      </trkpt>
      <trkpt lat="42.44178690947592258453369140625" lon="1.2535533495247364044189453125">
        <ele>1675.199951171875</ele>
        <time>2020-08-12T10:50:06.000Z</time>
      </trkpt>
      <trkpt lat="42.4418178386986255645751953125" lon="1.253500878810882568359375">
        <ele>1674.5999755859375</ele>
        <time>2020-08-12T10:50:07.000Z</time>
      </trkpt>
      <trkpt lat="42.441944740712642669677734375" lon="1.2533491663634777069091796875">
        <ele>1673.4000244140625</ele>
        <time>2020-08-12T10:50:11.000Z</time>
      </trkpt>
      <trkpt lat="42.44197851978242397308349609375" lon="1.25332410447299480438232421875">
        <ele>1672.5999755859375</ele>
        <time>2020-08-12T10:50:12.000Z</time>
      </trkpt>
      <trkpt lat="42.4420116282999515533447265625" lon="1.2533039040863513946533203125">
        <ele>1671.5999755859375</ele>
        <time>2020-08-12T10:50:13.000Z</time>
      </trkpt>
      <trkpt lat="42.44207323528826236724853515625" lon="1.2532834522426128387451171875">
        <ele>1670.4000244140625</ele>
        <time>2020-08-12T10:50:15.000Z</time>
      </trkpt>
      <trkpt lat="42.4421537853777408599853515625" lon="1.25329828821122646331787109375">
        <ele>1670.199951171875</ele>
        <time>2020-08-12T10:50:17.000Z</time>
      </trkpt>
      <trkpt lat="42.44230977259576320648193359375" lon="1.2532821111381053924560546875">
        <ele>1670</ele>
        <time>2020-08-12T10:50:21.000Z</time>
      </trkpt>
      <trkpt lat="42.44238562881946563720703125" lon="1.25322519801557064056396484375">
        <ele>1669</ele>
        <time>2020-08-12T10:50:23.000Z</time>
      </trkpt>
      <trkpt lat="42.44247305206954479217529296875" lon="1.253185383975505828857421875">
        <ele>1668.4000244140625</ele>
        <time>2020-08-12T10:50:25.000Z</time>
      </trkpt>
      <trkpt lat="42.44250842370092868804931640625" lon="1.25318245030939579010009765625">
        <ele>1668</ele>
        <time>2020-08-12T10:50:26.000Z</time>
      </trkpt>
      <trkpt lat="42.4426037259399890899658203125" lon="1.25320323742926120758056640625">
        <ele>1667</ele>
        <time>2020-08-12T10:50:29.000Z</time>
      </trkpt>
      <trkpt lat="42.4426406063139438629150390625" lon="1.25322385691106319427490234375">
        <ele>1666</ele>
        <time>2020-08-12T10:50:34.000Z</time>
      </trkpt>
      <trkpt lat="42.4426466412842273712158203125" lon="1.25322218053042888641357421875">
        <ele>1666</ele>
        <time>2020-08-12T10:50:42.000Z</time>
      </trkpt>
      <trkpt lat="42.44264571927487850189208984375" lon="1.25322184525430202484130859375">
        <ele>1666</ele>
        <time>2020-08-12T10:50:43.000Z</time>
      </trkpt>
      <trkpt lat="42.4426509998738765716552734375" lon="1.25321614556014537811279296875">
        <ele>1666.4000244140625</ele>
        <time>2020-08-12T10:50:51.000Z</time>
      </trkpt>
      <trkpt lat="42.44267002679407596588134765625" lon="1.253219582140445709228515625">
        <ele>1666.4000244140625</ele>
        <time>2020-08-12T10:50:53.000Z</time>
      </trkpt>
      <trkpt lat="42.44274194352328777313232421875" lon="1.253222934901714324951171875">
        <ele>1665.800048828125</ele>
        <time>2020-08-12T10:50:58.000Z</time>
      </trkpt>
      <trkpt lat="42.442777566611766815185546875" lon="1.25322318635880947113037109375">
        <ele>1665.800048828125</ele>
        <time>2020-08-12T10:51:00.000Z</time>
      </trkpt>
      <trkpt lat="42.44288049638271331787109375" lon="1.25319401733577251434326171875">
        <ele>1665.199951171875</ele>
        <time>2020-08-12T10:51:03.000Z</time>
      </trkpt>
      <trkpt lat="42.4429343082010746002197265625" lon="1.2531540356576442718505859375">
        <ele>1664.800048828125</ele>
        <time>2020-08-12T10:51:05.000Z</time>
      </trkpt>
      <trkpt lat="42.44301586411893367767333984375" lon="1.2530702166259288787841796875">
        <ele>1663.5999755859375</ele>
        <time>2020-08-12T10:51:08.000Z</time>
      </trkpt>
      <trkpt lat="42.44314930401742458343505859375" lon="1.25293149612843990325927734375">
        <ele>1662.199951171875</ele>
        <time>2020-08-12T10:51:13.000Z</time>
      </trkpt>
      <trkpt lat="42.44323228485882282257080078125" lon="1.252835355699062347412109375">
        <ele>1661</ele>
        <time>2020-08-12T10:51:16.000Z</time>
      </trkpt>
      <trkpt lat="42.44328978471457958221435546875" lon="1.252748183906078338623046875">
        <ele>1660.4000244140625</ele>
        <time>2020-08-12T10:51:18.000Z</time>
      </trkpt>
      <trkpt lat="42.44334560818970203399658203125" lon="1.25265489332377910614013671875">
        <ele>1659.800048828125</ele>
        <time>2020-08-12T10:51:20.000Z</time>
      </trkpt>
      <trkpt lat="42.443372346460819244384765625" lon="1.252605356276035308837890625">
        <ele>1659.5999755859375</ele>
        <time>2020-08-12T10:51:21.000Z</time>
      </trkpt>
      <trkpt lat="42.4434162676334381103515625" lon="1.25250100158154964447021484375">
        <ele>1659.5999755859375</ele>
        <time>2020-08-12T10:51:23.000Z</time>
      </trkpt>
      <trkpt lat="42.4434794671833515167236328125" lon="1.2523396499454975128173828125">
        <ele>1659</ele>
        <time>2020-08-12T10:51:26.000Z</time>
      </trkpt>
      <trkpt lat="42.44350872002542018890380859375" lon="1.25221274793148040771484375">
        <ele>1658.4000244140625</ele>
        <time>2020-08-12T10:51:28.000Z</time>
      </trkpt>
      <trkpt lat="42.4435294233262538909912109375" lon="1.25209280289709568023681640625">
        <ele>1657.5999755859375</ele>
        <time>2020-08-12T10:51:30.000Z</time>
      </trkpt>
      <trkpt lat="42.44353763759136199951171875" lon="1.25203865580260753631591796875">
        <ele>1657.4000244140625</ele>
        <time>2020-08-12T10:51:31.000Z</time>
      </trkpt>
      <trkpt lat="42.44353939779102802276611328125" lon="1.251982748508453369140625">
        <ele>1656.5999755859375</ele>
        <time>2020-08-12T10:51:32.000Z</time>
      </trkpt>
      <trkpt lat="42.4435334466397762298583984375" lon="1.25192164443433284759521484375">
        <ele>1656</ele>
        <time>2020-08-12T10:51:33.000Z</time>
      </trkpt>
      <trkpt lat="42.44346144609153270721435546875" lon="1.25167538411915302276611328125">
        <ele>1655.4000244140625</ele>
        <time>2020-08-12T10:51:37.000Z</time>
      </trkpt>
      <trkpt lat="42.4434368871152400970458984375" lon="1.25161218456923961639404296875">
        <ele>1655.199951171875</ele>
        <time>2020-08-12T10:51:38.000Z</time>
      </trkpt>
      <trkpt lat="42.44340964592993259429931640625" lon="1.2515527568757534027099609375">
        <ele>1655</ele>
        <time>2020-08-12T10:51:39.000Z</time>
      </trkpt>
      <trkpt lat="42.44338114745914936065673828125" lon="1.251492239534854888916015625">
        <ele>1654.5999755859375</ele>
        <time>2020-08-12T10:51:40.000Z</time>
      </trkpt>
      <trkpt lat="42.44330403394997119903564453125" lon="1.25134773552417755126953125">
        <ele>1653.800048828125</ele>
        <time>2020-08-12T10:51:43.000Z</time>
      </trkpt>
      <trkpt lat="42.44327620603144168853759765625" lon="1.25130356289446353912353515625">
        <ele>1653.4000244140625</ele>
        <time>2020-08-12T10:51:44.000Z</time>
      </trkpt>
      <trkpt lat="42.4432042054831981658935546875" lon="1.251208595931529998779296875">
        <ele>1652.4000244140625</ele>
        <time>2020-08-12T10:51:46.000Z</time>
      </trkpt>
      <trkpt lat="42.44316556490957736968994140625" lon="1.2511671893298625946044921875">
        <ele>1651.800048828125</ele>
        <time>2020-08-12T10:51:47.000Z</time>
      </trkpt>
      <trkpt lat="42.44312499649822711944580078125" lon="1.25113290734589099884033203125">
        <ele>1651.800048828125</ele>
        <time>2020-08-12T10:51:48.000Z</time>
      </trkpt>
      <trkpt lat="42.4430332146584987640380859375" lon="1.2510632537305355072021484375">
        <ele>1651.4000244140625</ele>
        <time>2020-08-12T10:51:50.000Z</time>
      </trkpt>
      <trkpt lat="42.4429017864167690277099609375" lon="1.25097063370048999786376953125">
        <ele>1649.800048828125</ele>
        <time>2020-08-12T10:51:53.000Z</time>
      </trkpt>
      <trkpt lat="42.44283297099173069000244140625" lon="1.25089704059064388275146484375">
        <ele>1648.5999755859375</ele>
        <time>2020-08-12T10:51:55.000Z</time>
      </trkpt>
      <trkpt lat="42.44269064627587795257568359375" lon="1.25070660375058650970458984375">
        <ele>1647.5999755859375</ele>
        <time>2020-08-12T10:51:59.000Z</time>
      </trkpt>
      <trkpt lat="42.44258369319140911102294921875" lon="1.25056142918765544891357421875">
        <ele>1647.4000244140625</ele>
        <time>2020-08-12T10:52:02.000Z</time>
      </trkpt>
      <trkpt lat="42.4425437115132808685302734375" lon="1.250505857169628143310546875">
        <ele>1647.199951171875</ele>
        <time>2020-08-12T10:52:03.000Z</time>
      </trkpt>
      <trkpt lat="42.44243633933365345001220703125" lon="1.25033997930586338043212890625">
        <ele>1646.4000244140625</ele>
        <time>2020-08-12T10:52:06.000Z</time>
      </trkpt>
      <trkpt lat="42.442381270229816436767578125" lon="1.25025347806513309478759765625">
        <ele>1646.4000244140625</ele>
        <time>2020-08-12T10:52:08.000Z</time>
      </trkpt>
      <trkpt lat="42.4423569627106189727783203125" lon="1.25020469538867473602294921875">
        <ele>1646.4000244140625</ele>
        <time>2020-08-12T10:52:09.000Z</time>
      </trkpt>
      <trkpt lat="42.442215643823146820068359375" lon="1.24992490746080875396728515625">
        <ele>1645.199951171875</ele>
        <time>2020-08-12T10:52:14.000Z</time>
      </trkpt>
      <trkpt lat="42.44218018837273120880126953125" lon="1.2498622946441173553466796875">
        <ele>1644.4000244140625</ele>
        <time>2020-08-12T10:52:15.000Z</time>
      </trkpt>
      <trkpt lat="42.44214531965553760528564453125" lon="1.24979917891323566436767578125">
        <ele>1643.800048828125</ele>
        <time>2020-08-12T10:52:16.000Z</time>
      </trkpt>
      <trkpt lat="42.4421127140522003173828125" lon="1.249741427600383758544921875">
        <ele>1643.5999755859375</ele>
        <time>2020-08-12T10:52:17.000Z</time>
      </trkpt>
      <trkpt lat="42.442021854221820831298828125" lon="1.24963405542075634002685546875">
        <ele>1643.5999755859375</ele>
        <time>2020-08-12T10:52:19.000Z</time>
      </trkpt>
      <trkpt lat="42.44197634048759937286376953125" lon="1.2495947442948818206787109375">
        <ele>1643.4000244140625</ele>
        <time>2020-08-12T10:52:20.000Z</time>
      </trkpt>
      <trkpt lat="42.4418929405510425567626953125" lon="1.24952659942209720611572265625">
        <ele>1643</ele>
        <time>2020-08-12T10:52:22.000Z</time>
      </trkpt>
      <trkpt lat="42.44182596914470195770263671875" lon="1.24948368407785892486572265625">
        <ele>1642.5999755859375</ele>
        <time>2020-08-12T10:52:24.000Z</time>
      </trkpt>
      <trkpt lat="42.44169906713068485260009765625" lon="1.24938662163913249969482421875">
        <ele>1642.800048828125</ele>
        <time>2020-08-12T10:52:29.000Z</time>
      </trkpt>
      <trkpt lat="42.44155406020581722259521484375" lon="1.24926902353763580322265625">
        <ele>1642.4000244140625</ele>
        <time>2020-08-12T10:52:35.000Z</time>
      </trkpt>
      <trkpt lat="42.4414600990712642669677734375" lon="1.24920196831226348876953125">
        <ele>1642.199951171875</ele>
        <time>2020-08-12T10:52:38.000Z</time>
      </trkpt>
      <trkpt lat="42.44131014682352542877197265625" lon="1.24909157864749431610107421875">
        <ele>1641.800048828125</ele>
        <time>2020-08-12T10:52:42.000Z</time>
      </trkpt>
      <trkpt lat="42.44118626229465007781982421875" lon="1.2490220926702022552490234375">
        <ele>1641</ele>
        <time>2020-08-12T10:52:45.000Z</time>
      </trkpt>
      <trkpt lat="42.4410648085176944732666015625" lon="1.2489392794668674468994140625">
        <ele>1640</ele>
        <time>2020-08-12T10:52:48.000Z</time>
      </trkpt>
      <trkpt lat="42.44102801196277141571044921875" lon="1.24890600331127643585205078125">
        <ele>1639.800048828125</ele>
        <time>2020-08-12T10:52:49.000Z</time>
      </trkpt>
      <trkpt lat="42.44087755680084228515625" lon="1.24876870773732662200927734375">
        <ele>1639.199951171875</ele>
        <time>2020-08-12T10:52:53.000Z</time>
      </trkpt>
      <trkpt lat="42.44084109552204608917236328125" lon="1.2487407959997653961181640625">
        <ele>1639.4000244140625</ele>
        <time>2020-08-12T10:52:54.000Z</time>
      </trkpt>
      <trkpt lat="42.4408037960529327392578125" lon="1.24871690757572650909423828125">
        <ele>1639.199951171875</ele>
        <time>2020-08-12T10:52:55.000Z</time>
      </trkpt>
      <trkpt lat="42.4406857788562774658203125" lon="1.248605512082576751708984375">
        <ele>1639.5999755859375</ele>
        <time>2020-08-12T10:52:59.000Z</time>
      </trkpt>
      <trkpt lat="42.44056172668933868408203125" lon="1.248496212065219879150390625">
        <ele>1639.5999755859375</ele>
        <time>2020-08-12T10:53:04.000Z</time>
      </trkpt>
      <trkpt lat="42.44038335978984832763671875" lon="1.248370818793773651123046875">
        <ele>1639.199951171875</ele>
        <time>2020-08-12T10:53:10.000Z</time>
      </trkpt>
      <trkpt lat="42.44019568897783756256103515625" lon="1.24828104861080646514892578125">
        <ele>1639.4000244140625</ele>
        <time>2020-08-12T10:53:16.000Z</time>
      </trkpt>
      <trkpt lat="42.440028972923755645751953125" lon="1.24822136946022510528564453125">
        <ele>1638.5999755859375</ele>
        <time>2020-08-12T10:53:21.000Z</time>
      </trkpt>
      <trkpt lat="42.44000525213778018951416015625" lon="1.24820552766323089599609375">
        <ele>1638.5999755859375</ele>
        <time>2020-08-12T10:53:22.000Z</time>
      </trkpt>
      <trkpt lat="42.43986577726900577545166015625" lon="1.24811575748026371002197265625">
        <ele>1638</ele>
        <time>2020-08-12T10:53:26.000Z</time>
      </trkpt>
      <trkpt lat="42.43967215530574321746826171875" lon="1.248036213219165802001953125">
        <ele>1638.4000244140625</ele>
        <time>2020-08-12T10:53:32.000Z</time>
      </trkpt>
      <trkpt lat="42.43948641233146190643310546875" lon="1.248023472726345062255859375">
        <ele>1638.4000244140625</ele>
        <time>2020-08-12T10:53:38.000Z</time>
      </trkpt>
      <trkpt lat="42.43932581506669521331787109375" lon="1.248023808002471923828125">
        <ele>1638.4000244140625</ele>
        <time>2020-08-12T10:53:44.000Z</time>
      </trkpt>
      <trkpt lat="42.43914057500660419464111328125" lon="1.24806144274771213531494140625">
        <ele>1639.199951171875</ele>
        <time>2020-08-12T10:53:51.000Z</time>
      </trkpt>
      <trkpt lat="42.438946701586246490478515625" lon="1.248152554035186767578125">
        <ele>1639.4000244140625</ele>
        <time>2020-08-12T10:53:57.000Z</time>
      </trkpt>
      <trkpt lat="42.43880496360361576080322265625" lon="1.2482181005179882049560546875">
        <ele>1639.4000244140625</ele>
        <time>2020-08-12T10:54:02.000Z</time>
      </trkpt>
      <trkpt lat="42.43866272270679473876953125" lon="1.24831424094736576080322265625">
        <ele>1639.5999755859375</ele>
        <time>2020-08-12T10:54:07.000Z</time>
      </trkpt>
      <trkpt lat="42.4385011196136474609375" lon="1.24840694479644298553466796875">
        <ele>1639.4000244140625</ele>
        <time>2020-08-12T10:54:12.000Z</time>
      </trkpt>
      <trkpt lat="42.4383534304797649383544921875" lon="1.24850467778742313385009765625">
        <ele>1639</ele>
        <time>2020-08-12T10:54:18.000Z</time>
      </trkpt>
      <trkpt lat="42.4382317252457141876220703125" lon="1.24860257841646671295166015625">
        <ele>1639.800048828125</ele>
        <time>2020-08-12T10:54:23.000Z</time>
      </trkpt>
      <trkpt lat="42.43812150321900844573974609375" lon="1.248635351657867431640625">
        <ele>1640.5999755859375</ele>
        <time>2020-08-12T10:54:28.000Z</time>
      </trkpt>
      <trkpt lat="42.43809635750949382781982421875" lon="1.2486340105533599853515625">
        <ele>1640.800048828125</ele>
        <time>2020-08-12T10:54:29.000Z</time>
      </trkpt>
      <trkpt lat="42.43798772804439067840576171875" lon="1.248604841530323028564453125">
        <ele>1640.800048828125</ele>
        <time>2020-08-12T10:54:33.000Z</time>
      </trkpt>
      <trkpt lat="42.43785881437361240386962890625" lon="1.2484682165086269378662109375">
        <ele>1640.5999755859375</ele>
        <time>2020-08-12T10:54:39.000Z</time>
      </trkpt>
      <trkpt lat="42.43771456182003021240234375" lon="1.2483166716992855072021484375">
        <ele>1640.800048828125</ele>
        <time>2020-08-12T10:54:45.000Z</time>
      </trkpt>
      <trkpt lat="42.437584139406681060791015625" lon="1.24823494814336299896240234375">
        <ele>1640.199951171875</ele>
        <time>2020-08-12T10:54:49.000Z</time>
      </trkpt>
      <trkpt lat="42.43735187686979770660400390625" lon="1.24814576469361782073974609375">
        <ele>1639.4000244140625</ele>
        <time>2020-08-12T10:54:55.000Z</time>
      </trkpt>
      <trkpt lat="42.43717166595160961151123046875" lon="1.24809882603585720062255859375">
        <ele>1638.199951171875</ele>
        <time>2020-08-12T10:55:00.000Z</time>
      </trkpt>
      <trkpt lat="42.43713059462606906890869140625" lon="1.2480759434401988983154296875">
        <ele>1638.199951171875</ele>
        <time>2020-08-12T10:55:01.000Z</time>
      </trkpt>
      <trkpt lat="42.43693144060671329498291015625" lon="1.24799497425556182861328125">
        <ele>1638</ele>
        <time>2020-08-12T10:55:06.000Z</time>
      </trkpt>
      <trkpt lat="42.4367907084524631500244140625" lon="1.24793730676174163818359375">
        <ele>1637.199951171875</ele>
        <time>2020-08-12T10:55:09.000Z</time>
      </trkpt>
      <trkpt lat="42.43674385361373424530029296875" lon="1.24792297370731830596923828125">
        <ele>1637.4000244140625</ele>
        <time>2020-08-12T10:55:10.000Z</time>
      </trkpt>
      <trkpt lat="42.43669674731791019439697265625" lon="1.247905455529689788818359375">
        <ele>1637.199951171875</ele>
        <time>2020-08-12T10:55:11.000Z</time>
      </trkpt>
      <trkpt lat="42.4365074001252651214599609375" lon="1.2478194572031497955322265625">
        <ele>1636.4000244140625</ele>
        <time>2020-08-12T10:55:15.000Z</time>
      </trkpt>
      <trkpt lat="42.43646088056266307830810546875" lon="1.2478140927851200103759765625">
        <ele>1636.199951171875</ele>
        <time>2020-08-12T10:55:16.000Z</time>
      </trkpt>
      <trkpt lat="42.436184696853160858154296875" lon="1.24777411110699176788330078125">
        <ele>1635.4000244140625</ele>
        <time>2020-08-12T10:55:21.000Z</time>
      </trkpt>
      <trkpt lat="42.43598327971994876861572265625" lon="1.247715018689632415771484375">
        <ele>1634</ele>
        <time>2020-08-12T10:55:25.000Z</time>
      </trkpt>
      <trkpt lat="42.435901053249835968017578125" lon="1.247697584331035614013671875">
        <ele>1633.199951171875</ele>
        <time>2020-08-12T10:55:27.000Z</time>
      </trkpt>
      <trkpt lat="42.43581161834299564361572265625" lon="1.24766380526125431060791015625">
        <ele>1633</ele>
        <time>2020-08-12T10:55:29.000Z</time>
      </trkpt>
      <trkpt lat="42.43562872521579265594482421875" lon="1.24763396568596363067626953125">
        <ele>1632.800048828125</ele>
        <time>2020-08-12T10:55:32.000Z</time>
      </trkpt>
      <trkpt lat="42.4354824610054492950439453125" lon="1.24760965816676616668701171875">
        <ele>1631.5999755859375</ele>
        <time>2020-08-12T10:55:34.000Z</time>
      </trkpt>
      <trkpt lat="42.43523762561380863189697265625" lon="1.24757143668830394744873046875">
        <ele>1630.800048828125</ele>
        <time>2020-08-12T10:55:38.000Z</time>
      </trkpt>
      <trkpt lat="42.43508021347224712371826171875" lon="1.2475445307791233062744140625">
        <ele>1631.4000244140625</ele>
        <time>2020-08-12T10:55:42.000Z</time>
      </trkpt>
      <trkpt lat="42.434850633144378662109375" lon="1.247495748102664947509765625">
        <ele>1632.199951171875</ele>
        <time>2020-08-12T10:55:49.000Z</time>
      </trkpt>
      <trkpt lat="42.4346379004418849945068359375" lon="1.24746381305158138275146484375">
        <ele>1632.800048828125</ele>
        <time>2020-08-12T10:55:56.000Z</time>
      </trkpt>
      <trkpt lat="42.43458115495741367340087890625" lon="1.24744822271168231964111328125">
        <ele>1633.5999755859375</ele>
        <time>2020-08-12T10:55:58.000Z</time>
      </trkpt>
      <trkpt lat="42.4344427697360515594482421875" lon="1.2474305368959903717041015625">
        <ele>1634</ele>
        <time>2020-08-12T10:56:03.000Z</time>
      </trkpt>
      <trkpt lat="42.43429902009665966033935546875" lon="1.24740463681519031524658203125">
        <ele>1635</ele>
        <time>2020-08-12T10:56:09.000Z</time>
      </trkpt>
      <trkpt lat="42.43425987660884857177734375" lon="1.24740027822554111480712890625">
        <ele>1635.199951171875</ele>
        <time>2020-08-12T10:56:11.000Z</time>
      </trkpt>
      <trkpt lat="42.43413113057613372802734375" lon="1.24739122577011585235595703125">
        <ele>1636.4000244140625</ele>
        <time>2020-08-12T10:56:18.000Z</time>
      </trkpt>
      <trkpt lat="42.434113360941410064697265625" lon="1.2473879568278789520263671875">
        <ele>1636.4000244140625</ele>
        <time>2020-08-12T10:56:19.000Z</time>
      </trkpt>
      <trkpt lat="42.43397765792906284332275390625" lon="1.2474060617387294769287109375">
        <ele>1637</ele>
        <time>2020-08-12T10:56:26.000Z</time>
      </trkpt>
      <trkpt lat="42.433893419802188873291015625" lon="1.247417293488979339599609375">
        <ele>1637.5999755859375</ele>
        <time>2020-08-12T10:56:30.000Z</time>
      </trkpt>
      <trkpt lat="42.43382745422422885894775390625" lon="1.24741553328931331634521484375">
        <ele>1637.800048828125</ele>
        <time>2020-08-12T10:56:33.000Z</time>
      </trkpt>
      <trkpt lat="42.43373391218483448028564453125" lon="1.247397176921367645263671875">
        <ele>1638.800048828125</ele>
        <time>2020-08-12T10:56:38.000Z</time>
      </trkpt>
      <trkpt lat="42.43371480144560337066650390625" lon="1.2473894655704498291015625">
        <ele>1638.800048828125</ele>
        <time>2020-08-12T10:56:39.000Z</time>
      </trkpt>
      <trkpt lat="42.433612458407878875732421875" lon="1.247397176921367645263671875">
        <ele>1639.800048828125</ele>
        <time>2020-08-12T10:56:45.000Z</time>
      </trkpt>
      <trkpt lat="42.433594353497028350830078125" lon="1.247396171092987060546875">
        <ele>1640</ele>
        <time>2020-08-12T10:56:46.000Z</time>
      </trkpt>
      <trkpt lat="42.43349217809736728668212890625" lon="1.24743011780083179473876953125">
        <ele>1640.5999755859375</ele>
        <time>2020-08-12T10:56:52.000Z</time>
      </trkpt>
      <trkpt lat="42.43338556028902530670166015625" lon="1.2474352307617664337158203125">
        <ele>1641</ele>
        <time>2020-08-12T10:56:57.000Z</time>
      </trkpt>
      <trkpt lat="42.43334214203059673309326171875" lon="1.24745291657745838165283203125">
        <ele>1641</ele>
        <time>2020-08-12T10:56:59.000Z</time>
      </trkpt>
      <trkpt lat="42.43330040015280246734619140625" lon="1.24746414832770824432373046875">
        <ele>1641.199951171875</ele>
        <time>2020-08-12T10:57:01.000Z</time>
      </trkpt>
      <trkpt lat="42.4332565627992153167724609375" lon="1.24747320078313350677490234375">
        <ele>1641.4000244140625</ele>
        <time>2020-08-12T10:57:03.000Z</time>
      </trkpt>
      <trkpt lat="42.43311281315982341766357421875" lon="1.2474556826055049896240234375">
        <ele>1642.199951171875</ele>
        <time>2020-08-12T10:57:10.000Z</time>
      </trkpt>
      <trkpt lat="42.43304525502026081085205078125" lon="1.2474355660378932952880859375">
        <ele>1642</ele>
        <time>2020-08-12T10:57:14.000Z</time>
      </trkpt>
      <trkpt lat="42.4330280721187591552734375" lon="1.24742341227829456329345703125">
        <ele>1642.199951171875</ele>
        <time>2020-08-12T10:57:15.000Z</time>
      </trkpt>
      <trkpt lat="42.433011643588542938232421875" lon="1.247426681220531463623046875">
        <ele>1642.4000244140625</ele>
        <time>2020-08-12T10:57:16.000Z</time>
      </trkpt>
      <trkpt lat="42.43295690976083278656005859375" lon="1.2473953329026699066162109375">
        <ele>1642.800048828125</ele>
        <time>2020-08-12T10:57:19.000Z</time>
      </trkpt>
      <trkpt lat="42.43293176405131816864013671875" lon="1.24737144447863101959228515625">
        <ele>1643</ele>
        <time>2020-08-12T10:57:21.000Z</time>
      </trkpt>
      <trkpt lat="42.43286219425499439239501953125" lon="1.2472525052726268768310546875">
        <ele>1643</ele>
        <time>2020-08-12T10:57:25.000Z</time>
      </trkpt>
      <trkpt lat="42.432847358286380767822265625" lon="1.24707237817347049713134765625">
        <ele>1643</ele>
        <time>2020-08-12T10:57:30.000Z</time>
      </trkpt>
      <trkpt lat="42.43284367024898529052734375" lon="1.2470275349915027618408203125">
        <ele>1642.5999755859375</ele>
        <time>2020-08-12T10:57:31.000Z</time>
      </trkpt>
      <trkpt lat="42.43286672048270702362060546875" lon="1.246935836970806121826171875">
        <ele>1643.199951171875</ele>
        <time>2020-08-12T10:57:35.000Z</time>
      </trkpt>
      <trkpt lat="42.43287384510040283203125" lon="1.2469175644218921661376953125">
        <ele>1643.4000244140625</ele>
        <time>2020-08-12T10:57:36.000Z</time>
      </trkpt>
      <trkpt lat="42.43291516788303852081298828125" lon="1.24685109592974185943603515625">
        <ele>1643.199951171875</ele>
        <time>2020-08-12T10:57:40.000Z</time>
      </trkpt>
      <trkpt lat="42.432929836213588714599609375" lon="1.246839947998523712158203125">
        <ele>1643</ele>
        <time>2020-08-12T10:57:41.000Z</time>
      </trkpt>
      <trkpt lat="42.43308934383094310760498046875" lon="1.24674749560654163360595703125">
        <ele>1642</ele>
        <time>2020-08-12T10:57:47.000Z</time>
      </trkpt>
      <trkpt lat="42.4331180937588214874267578125" lon="1.24672436155378818511962890625">
        <ele>1641.800048828125</ele>
        <time>2020-08-12T10:57:48.000Z</time>
      </trkpt>
      <trkpt lat="42.43323686532676219940185546875" lon="1.24663484282791614532470703125">
        <ele>1641.4000244140625</ele>
        <time>2020-08-12T10:57:52.000Z</time>
      </trkpt>
      <trkpt lat="42.43331196717917919158935546875" lon="1.2465631775557994842529296875">
        <ele>1641.199951171875</ele>
        <time>2020-08-12T10:57:54.000Z</time>
      </trkpt>
      <trkpt lat="42.43339645676314830780029296875" lon="1.2465071864426136016845703125">
        <ele>1640.800048828125</ele>
        <time>2020-08-12T10:57:56.000Z</time>
      </trkpt>
      <trkpt lat="42.43348262272775173187255859375" lon="1.24644733965396881103515625">
        <ele>1640.800048828125</ele>
        <time>2020-08-12T10:57:58.000Z</time>
      </trkpt>
      <trkpt lat="42.43356459774076938629150390625" lon="1.2463871575891971588134765625">
        <ele>1640.5999755859375</ele>
        <time>2020-08-12T10:58:00.000Z</time>
      </trkpt>
      <trkpt lat="42.4336020648479461669921875" lon="1.24635941348969936370849609375">
        <ele>1640.4000244140625</ele>
        <time>2020-08-12T10:58:01.000Z</time>
      </trkpt>
      <trkpt lat="42.4337450601160526275634765625" lon="1.24625531025230884552001953125">
        <ele>1640.4000244140625</ele>
        <time>2020-08-12T10:58:06.000Z</time>
      </trkpt>
      <trkpt lat="42.43387254886329174041748046875" lon="1.2461420707404613494873046875">
        <ele>1640.800048828125</ele>
        <time>2020-08-12T10:58:11.000Z</time>
      </trkpt>
      <trkpt lat="42.43400414474308490753173828125" lon="1.24592942185699939727783203125">
        <ele>1640.800048828125</ele>
        <time>2020-08-12T10:58:17.000Z</time>
      </trkpt>
      <trkpt lat="42.43412015028297901153564453125" lon="1.24571853317320346832275390625">
        <ele>1641</ele>
        <time>2020-08-12T10:58:23.000Z</time>
      </trkpt>
      <trkpt lat="42.43424403481185436248779296875" lon="1.2456860952079296112060546875">
        <ele>1640.5999755859375</ele>
        <time>2020-08-12T10:58:26.000Z</time>
      </trkpt>
      <trkpt lat="42.43429734371602535247802734375" lon="1.24569439329206943511962890625">
        <ele>1640.199951171875</ele>
        <time>2020-08-12T10:58:27.000Z</time>
      </trkpt>
      <trkpt lat="42.434405051171779632568359375" lon="1.2457300163805484771728515625">
        <ele>1639.800048828125</ele>
        <time>2020-08-12T10:58:29.000Z</time>
      </trkpt>
      <trkpt lat="42.4345158599317073822021484375" lon="1.24576983042061328887939453125">
        <ele>1639.4000244140625</ele>
        <time>2020-08-12T10:58:31.000Z</time>
      </trkpt>
      <trkpt lat="42.43466765619814395904541015625" lon="1.245766393840312957763671875">
        <ele>1639.5999755859375</ele>
        <time>2020-08-12T10:58:34.000Z</time>
      </trkpt>
      <trkpt lat="42.43470470421016216278076171875" lon="1.245761029422283172607421875">
        <ele>1639.800048828125</ele>
        <time>2020-08-12T10:58:35.000Z</time>
      </trkpt>
      <trkpt lat="42.4348105676472187042236328125" lon="1.2457373924553394317626953125">
        <ele>1640</ele>
        <time>2020-08-12T10:58:39.000Z</time>
      </trkpt>
      <trkpt lat="42.4349490366876125335693359375" lon="1.2457015179097652435302734375">
        <ele>1639.800048828125</ele>
        <time>2020-08-12T10:58:44.000Z</time>
      </trkpt>
      <trkpt lat="42.43510301224887371063232421875" lon="1.24563940800726413726806640625">
        <ele>1640.199951171875</ele>
        <time>2020-08-12T10:58:49.000Z</time>
      </trkpt>
      <trkpt lat="42.43520292453467845916748046875" lon="1.245588362216949462890625">
        <ele>1640.4000244140625</ele>
        <time>2020-08-12T10:58:53.000Z</time>
      </trkpt>
      <trkpt lat="42.43529780767858028411865234375" lon="1.245508901774883270263671875">
        <ele>1640.800048828125</ele>
        <time>2020-08-12T10:58:57.000Z</time>
      </trkpt>
      <trkpt lat="42.43544667027890682220458984375" lon="1.24536163173615932464599609375">
        <ele>1640.5999755859375</ele>
        <time>2020-08-12T10:59:03.000Z</time>
      </trkpt>
      <trkpt lat="42.4355399608612060546875" lon="1.24527110718190670013427734375">
        <ele>1641</ele>
        <time>2020-08-12T10:59:08.000Z</time>
      </trkpt>
      <trkpt lat="42.4355635978281497955322265625" lon="1.24524059705436229705810546875">
        <ele>1641.800048828125</ele>
        <time>2020-08-12T10:59:10.000Z</time>
      </trkpt>
      <trkpt lat="42.43562336079776287078857421875" lon="1.24518661759793758392333984375">
        <ele>1642.199951171875</ele>
        <time>2020-08-12T10:59:13.000Z</time>
      </trkpt>
      <trkpt lat="42.435720674693584442138671875" lon="1.24510833062231540679931640625">
        <ele>1642.4000244140625</ele>
        <time>2020-08-12T10:59:18.000Z</time>
      </trkpt>
      <trkpt lat="42.43586828000843524932861328125" lon="1.24500473029911518096923828125">
        <ele>1642.800048828125</ele>
        <time>2020-08-12T10:59:23.000Z</time>
      </trkpt>
      <trkpt lat="42.4358985386788845062255859375" lon="1.24497639946639537811279296875">
        <ele>1643</ele>
        <time>2020-08-12T10:59:24.000Z</time>
      </trkpt>
      <trkpt lat="42.43599350564181804656982421875" lon="1.244827620685100555419921875">
        <ele>1642.800048828125</ele>
        <time>2020-08-12T10:59:29.000Z</time>
      </trkpt>
      <trkpt lat="42.43604463525116443634033203125" lon="1.24469451606273651123046875">
        <ele>1642.800048828125</ele>
        <time>2020-08-12T10:59:33.000Z</time>
      </trkpt>
      <trkpt lat="42.4360742233693599700927734375" lon="1.24450533650815486907958984375">
        <ele>1643.199951171875</ele>
        <time>2020-08-12T10:59:38.000Z</time>
      </trkpt>
      <trkpt lat="42.43612074293196201324462890625" lon="1.24429981224238872528076171875">
        <ele>1642.5999755859375</ele>
        <time>2020-08-12T10:59:43.000Z</time>
      </trkpt>
      <trkpt lat="42.4361965991556644439697265625" lon="1.24418213032186031341552734375">
        <ele>1642.800048828125</ele>
        <time>2020-08-12T10:59:47.000Z</time>
      </trkpt>
      <trkpt lat="42.4362200684845447540283203125" lon="1.244166456162929534912109375">
        <ele>1642.800048828125</ele>
        <time>2020-08-12T10:59:48.000Z</time>
      </trkpt>
      <trkpt lat="42.43630581535398960113525390625" lon="1.24412597157061100006103515625">
        <ele>1642.199951171875</ele>
        <time>2020-08-12T10:59:52.000Z</time>
      </trkpt>
      <trkpt lat="42.43637370876967906951904296875" lon="1.24408909119665622711181640625">
        <ele>1641.800048828125</ele>
        <time>2020-08-12T10:59:54.000Z</time>
      </trkpt>
      <trkpt lat="42.43641511537134647369384765625" lon="1.24406143091619014739990234375">
        <ele>1641.800048828125</ele>
        <time>2020-08-12T10:59:55.000Z</time>
      </trkpt>
      <trkpt lat="42.4364614672958850860595703125" lon="1.2440298311412334442138671875">
        <ele>1641.5999755859375</ele>
        <time>2020-08-12T10:59:56.000Z</time>
      </trkpt>
      <trkpt lat="42.43656364269554615020751953125" lon="1.24397702515125274658203125">
        <ele>1641.4000244140625</ele>
        <time>2020-08-12T10:59:58.000Z</time>
      </trkpt>
      <trkpt lat="42.4367000162601470947265625" lon="1.24392966739833354949951171875">
        <ele>1640.5999755859375</ele>
        <time>2020-08-12T11:00:01.000Z</time>
      </trkpt>
      <trkpt lat="42.4367441050708293914794921875" lon="1.2439114786684513092041015625">
        <ele>1640.4000244140625</ele>
        <time>2020-08-12T11:00:02.000Z</time>
      </trkpt>
      <trkpt lat="42.43689715862274169921875" lon="1.24381014145910739898681640625">
        <ele>1640.4000244140625</ele>
        <time>2020-08-12T11:00:06.000Z</time>
      </trkpt>
      <trkpt lat="42.437078543007373809814453125" lon="1.24364032410085201263427734375">
        <ele>1640.5999755859375</ele>
        <time>2020-08-12T11:00:12.000Z</time>
      </trkpt>
      <trkpt lat="42.437173090875148773193359375" lon="1.24352381564676761627197265625">
        <ele>1640.4000244140625</ele>
        <time>2020-08-12T11:00:16.000Z</time>
      </trkpt>
      <trkpt lat="42.43726688437163829803466796875" lon="1.24332918785512447357177734375">
        <ele>1640</ele>
        <time>2020-08-12T11:00:21.000Z</time>
      </trkpt>
      <trkpt lat="42.4372721649706363677978515625" lon="1.2432774715125560760498046875">
        <ele>1639.5999755859375</ele>
        <time>2020-08-12T11:00:22.000Z</time>
      </trkpt>
      <trkpt lat="42.43726889602839946746826171875" lon="1.24305392615497112274169921875">
        <ele>1638.800048828125</ele>
        <time>2020-08-12T11:00:26.000Z</time>
      </trkpt>
      <trkpt lat="42.4372134916484355926513671875" lon="1.242814958095550537109375">
        <ele>1638.199951171875</ele>
        <time>2020-08-12T11:00:30.000Z</time>
      </trkpt>
      <trkpt lat="42.43726755492389202117919921875" lon="1.2426746450364589691162109375">
        <ele>1637.800048828125</ele>
        <time>2020-08-12T11:00:33.000Z</time>
      </trkpt>
      <trkpt lat="42.43732237257063388824462890625" lon="1.242626868188381195068359375">
        <ele>1636.800048828125</ele>
        <time>2020-08-12T11:00:35.000Z</time>
      </trkpt>
      <trkpt lat="42.43736880831420421600341796875" lon="1.24260549433529376983642578125">
        <ele>1636</ele>
        <time>2020-08-12T11:00:36.000Z</time>
      </trkpt>
      <trkpt lat="42.43742748163640499114990234375" lon="1.2425851263105869293212890625">
        <ele>1635.4000244140625</ele>
        <time>2020-08-12T11:00:37.000Z</time>
      </trkpt>
      <trkpt lat="42.437602914869785308837890625" lon="1.24253659509122371673583984375">
        <ele>1634.5999755859375</ele>
        <time>2020-08-12T11:00:40.000Z</time>
      </trkpt>
      <trkpt lat="42.43779595009982585906982421875" lon="1.24249912798404693603515625">
        <ele>1634.5999755859375</ele>
        <time>2020-08-12T11:00:43.000Z</time>
      </trkpt>
      <trkpt lat="42.4379096925258636474609375" lon="1.24249803833663463592529296875">
        <ele>1634.5999755859375</ele>
        <time>2020-08-12T11:00:45.000Z</time>
      </trkpt>
      <trkpt lat="42.4381153844296932220458984375" lon="1.2424818612635135650634765625">
        <ele>1634.800048828125</ele>
        <time>2020-08-12T11:00:50.000Z</time>
      </trkpt>
      <trkpt lat="42.43827908299863338470458984375" lon="1.24249267391860485076904296875">
        <ele>1635</ele>
        <time>2020-08-12T11:00:55.000Z</time>
      </trkpt>
      <trkpt lat="42.4383530952036380767822265625" lon="1.2424811907112598419189453125">
        <ele>1634.4000244140625</ele>
        <time>2020-08-12T11:00:57.000Z</time>
      </trkpt>
      <trkpt lat="42.43849097751080989837646484375" lon="1.2424208410084247589111328125">
        <ele>1634</ele>
        <time>2020-08-12T11:01:01.000Z</time>
      </trkpt>
      <trkpt lat="42.43861000053584575653076171875" lon="1.2422780133783817291259765625">
        <ele>1633.5999755859375</ele>
        <time>2020-08-12T11:01:05.000Z</time>
      </trkpt>
      <trkpt lat="42.43865358643233776092529296875" lon="1.24222294427454471588134765625">
        <ele>1633.199951171875</ele>
        <time>2020-08-12T11:01:06.000Z</time>
      </trkpt>
      <trkpt lat="42.4388001859188079833984375" lon="1.242052875459194183349609375">
        <ele>1633</ele>
        <time>2020-08-12T11:01:09.000Z</time>
      </trkpt>
      <trkpt lat="42.43883765302598476409912109375" lon="1.24199797399342060089111328125">
        <ele>1632.800048828125</ele>
        <time>2020-08-12T11:01:10.000Z</time>
      </trkpt>
      <trkpt lat="42.438981570303440093994140625" lon="1.24184927903115749359130859375">
        <ele>1632.199951171875</ele>
        <time>2020-08-12T11:01:13.000Z</time>
      </trkpt>
      <trkpt lat="42.4390303529798984527587890625" lon="1.24181038700044155120849609375">
        <ele>1631.5999755859375</ele>
        <time>2020-08-12T11:01:14.000Z</time>
      </trkpt>
      <trkpt lat="42.43916488252580165863037109375" lon="1.2416845746338367462158203125">
        <ele>1631</ele>
        <time>2020-08-12T11:01:17.000Z</time>
      </trkpt>
      <trkpt lat="42.439201511442661285400390625" lon="1.24163269065320491790771484375">
        <ele>1630.800048828125</ele>
        <time>2020-08-12T11:01:18.000Z</time>
      </trkpt>
      <trkpt lat="42.43923797272145748138427734375" lon="1.24158776365220546722412109375">
        <ele>1630.5999755859375</ele>
        <time>2020-08-12T11:01:19.000Z</time>
      </trkpt>
      <trkpt lat="42.4393535591661930084228515625" lon="1.24142314307391643524169921875">
        <ele>1629.800048828125</ele>
        <time>2020-08-12T11:01:23.000Z</time>
      </trkpt>
      <trkpt lat="42.439469061791896820068359375" lon="1.2412530742585659027099609375">
        <ele>1627.800048828125</ele>
        <time>2020-08-12T11:01:28.000Z</time>
      </trkpt>
      <trkpt lat="42.439497224986553192138671875" lon="1.241204626858234405517578125">
        <ele>1626.5999755859375</ele>
        <time>2020-08-12T11:01:31.000Z</time>
      </trkpt>
      <trkpt lat="42.43951499462127685546875" lon="1.2412081472575664520263671875">
        <ele>1626.199951171875</ele>
        <time>2020-08-12T11:01:32.000Z</time>
      </trkpt>
      <trkpt lat="42.43957945145666599273681640625" lon="1.2412658147513866424560546875">
        <ele>1625.5999755859375</ele>
        <time>2020-08-12T11:01:35.000Z</time>
      </trkpt>
      <trkpt lat="42.43959520943462848663330078125" lon="1.2412976659834384918212890625">
        <ele>1625.5999755859375</ele>
        <time>2020-08-12T11:01:36.000Z</time>
      </trkpt>
      <trkpt lat="42.4396066926419734954833984375" lon="1.2414135038852691650390625">
        <ele>1624.800048828125</ele>
        <time>2020-08-12T11:01:40.000Z</time>
      </trkpt>
      <trkpt lat="42.4396075308322906494140625" lon="1.2414431758224964141845703125">
        <ele>1624.800048828125</ele>
        <time>2020-08-12T11:01:41.000Z</time>
      </trkpt>
      <trkpt lat="42.43960828520357608795166015625" lon="1.24147125519812107086181640625">
        <ele>1624.5999755859375</ele>
        <time>2020-08-12T11:01:42.000Z</time>
      </trkpt>
      <trkpt lat="42.43960208259522914886474609375" lon="1.241494975984096527099609375">
        <ele>1624.5999755859375</ele>
        <time>2020-08-12T11:01:43.000Z</time>
      </trkpt>
      <trkpt lat="42.4395718239247798919677734375" lon="1.24155155383050441741943359375">
        <ele>1623.4000244140625</ele>
        <time>2020-08-12T11:01:45.000Z</time>
      </trkpt>
      <trkpt lat="42.43953720666468143463134765625" lon="1.24165766872465610504150390625">
        <ele>1622.199951171875</ele>
        <time>2020-08-12T11:01:48.000Z</time>
      </trkpt>
      <trkpt lat="42.43949848227202892303466796875" lon="1.24180083163082599639892578125">
        <ele>1621.5999755859375</ele>
        <time>2020-08-12T11:01:51.000Z</time>
      </trkpt>
      <trkpt lat="42.4394251406192779541015625" lon="1.24193745665252208709716796875">
        <ele>1621.4000244140625</ele>
        <time>2020-08-12T11:01:54.000Z</time>
      </trkpt>
      <trkpt lat="42.4393884278833866119384765625" lon="1.2420617602765560150146484375">
        <ele>1621.4000244140625</ele>
        <time>2020-08-12T11:01:56.000Z</time>
      </trkpt>
      <trkpt lat="42.43940913118422031402587890625" lon="1.24224289320409297943115234375">
        <ele>1621</ele>
        <time>2020-08-12T11:01:59.000Z</time>
      </trkpt>
      <trkpt lat="42.4394626915454864501953125" lon="1.24233760870993137359619140625">
        <ele>1620.4000244140625</ele>
        <time>2020-08-12T11:02:01.000Z</time>
      </trkpt>
      <trkpt lat="42.4394943751394748687744140625" lon="1.242370717227458953857421875">
        <ele>1620.199951171875</ele>
        <time>2020-08-12T11:02:02.000Z</time>
      </trkpt>
      <trkpt lat="42.43962773121893405914306640625" lon="1.2424181587994098663330078125">
        <ele>1619.4000244140625</ele>
        <time>2020-08-12T11:02:05.000Z</time>
      </trkpt>
      <trkpt lat="42.43968238122761249542236328125" lon="1.24242528341710567474365234375">
        <ele>1618.800048828125</ele>
        <time>2020-08-12T11:02:06.000Z</time>
      </trkpt>
      <trkpt lat="42.43973636068403720855712890625" lon="1.24242830090224742889404296875">
        <ele>1618.4000244140625</ele>
        <time>2020-08-12T11:02:07.000Z</time>
      </trkpt>
      <trkpt lat="42.4397864006459712982177734375" lon="1.24242578633129596710205078125">
        <ele>1617.800048828125</ele>
        <time>2020-08-12T11:02:08.000Z</time>
      </trkpt>
      <trkpt lat="42.43983761407434940338134765625" lon="1.2424188293516635894775390625">
        <ele>1617</ele>
        <time>2020-08-12T11:02:09.000Z</time>
      </trkpt>
      <trkpt lat="42.43988723494112491607666015625" lon="1.24240634031593799591064453125">
        <ele>1616.4000244140625</ele>
        <time>2020-08-12T11:02:10.000Z</time>
      </trkpt>
      <trkpt lat="42.439935095608234405517578125" lon="1.2423930130898952484130859375">
        <ele>1616</ele>
        <time>2020-08-12T11:02:11.000Z</time>
      </trkpt>
      <trkpt lat="42.439975328743457794189453125" lon="1.24238387681543827056884765625">
        <ele>1615</ele>
        <time>2020-08-12T11:02:12.000Z</time>
      </trkpt>
      <trkpt lat="42.440068535506725311279296875" lon="1.2423215992748737335205078125">
        <ele>1614</ele>
        <time>2020-08-12T11:02:15.000Z</time>
      </trkpt>
      <trkpt lat="42.44014087133109569549560546875" lon="1.24217852018773555755615234375">
        <ele>1612.800048828125</ele>
        <time>2020-08-12T11:02:18.000Z</time>
      </trkpt>
      <trkpt lat="42.44019602425396442413330078125" lon="1.24208095483481884002685546875">
        <ele>1612</ele>
        <time>2020-08-12T11:02:20.000Z</time>
      </trkpt>
      <trkpt lat="42.4402236007153987884521484375" lon="1.24202798120677471160888671875">
        <ele>1611.5999755859375</ele>
        <time>2020-08-12T11:02:21.000Z</time>
      </trkpt>
      <trkpt lat="42.44030733592808246612548828125" lon="1.24185539782047271728515625">
        <ele>1610.800048828125</ele>
        <time>2020-08-12T11:02:24.000Z</time>
      </trkpt>
      <trkpt lat="42.44033776223659515380859375" lon="1.24179781414568424224853515625">
        <ele>1610.800048828125</ele>
        <time>2020-08-12T11:02:25.000Z</time>
      </trkpt>
      <trkpt lat="42.4403630755841732025146484375" lon="1.24174199067056179046630859375">
        <ele>1610.5999755859375</ele>
        <time>2020-08-12T11:02:26.000Z</time>
      </trkpt>
      <trkpt lat="42.4403912387788295745849609375" lon="1.24162363819777965545654296875">
        <ele>1609.5999755859375</ele>
        <time>2020-08-12T11:02:28.000Z</time>
      </trkpt>
      <trkpt lat="42.4403969384729862213134765625" lon="1.24156027100980281829833984375">
        <ele>1609.199951171875</ele>
        <time>2020-08-12T11:02:29.000Z</time>
      </trkpt>
      <trkpt lat="42.44041395373642444610595703125" lon="1.24143789522349834442138671875">
        <ele>1608</ele>
        <time>2020-08-12T11:02:31.000Z</time>
      </trkpt>
      <trkpt lat="42.440429963171482086181640625" lon="1.2413777969777584075927734375">
        <ele>1607.800048828125</ele>
        <time>2020-08-12T11:02:32.000Z</time>
      </trkpt>
      <trkpt lat="42.4404757283627986907958984375" lon="1.2412793934345245361328125">
        <ele>1606.4000244140625</ele>
        <time>2020-08-12T11:02:34.000Z</time>
      </trkpt>
      <trkpt lat="42.44052543304860591888427734375" lon="1.24120789580047130584716796875">
        <ele>1605.199951171875</ele>
        <time>2020-08-12T11:02:36.000Z</time>
      </trkpt>
      <trkpt lat="42.44062216021120548248291015625" lon="1.241168417036533355712890625">
        <ele>1604</ele>
        <time>2020-08-12T11:02:39.000Z</time>
      </trkpt>
      <trkpt lat="42.44065317325294017791748046875" lon="1.2411843426525592803955078125">
        <ele>1603.5999755859375</ele>
        <time>2020-08-12T11:02:40.000Z</time>
      </trkpt>
      <trkpt lat="42.440714277327060699462890625" lon="1.24123823828995227813720703125">
        <ele>1602.800048828125</ele>
        <time>2020-08-12T11:02:42.000Z</time>
      </trkpt>
      <trkpt lat="42.440783679485321044921875" lon="1.241304539144039154052734375">
        <ele>1602</ele>
        <time>2020-08-12T11:02:44.000Z</time>
      </trkpt>
      <trkpt lat="42.44081293232738971710205078125" lon="1.241333372890949249267578125">
        <ele>1601</ele>
        <time>2020-08-12T11:02:45.000Z</time>
      </trkpt>
      <trkpt lat="42.4408830888569355010986328125" lon="1.24141694046556949615478515625">
        <ele>1599.800048828125</ele>
        <time>2020-08-12T11:02:47.000Z</time>
      </trkpt>
      <trkpt lat="42.4409266747534275054931640625" lon="1.24146270565688610076904296875">
        <ele>1599.199951171875</ele>
        <time>2020-08-12T11:02:48.000Z</time>
      </trkpt>
      <trkpt lat="42.44097671471536159515380859375" lon="1.2415035255253314971923828125">
        <ele>1598.800048828125</ele>
        <time>2020-08-12T11:02:49.000Z</time>
      </trkpt>
      <trkpt lat="42.4411677382886409759521484375" lon="1.24171148054301738739013671875">
        <ele>1598</ele>
        <time>2020-08-12T11:02:53.000Z</time>
      </trkpt>
      <trkpt lat="42.44121710769832134246826171875" lon="1.24176881276071071624755859375">
        <ele>1597.4000244140625</ele>
        <time>2020-08-12T11:02:54.000Z</time>
      </trkpt>
      <trkpt lat="42.44130243547260761260986328125" lon="1.2418817169964313507080078125">
        <ele>1596</ele>
        <time>2020-08-12T11:02:56.000Z</time>
      </trkpt>
      <trkpt lat="42.44135742075741291046142578125" lon="1.2419963814318180084228515625">
        <ele>1595.4000244140625</ele>
        <time>2020-08-12T11:02:58.000Z</time>
      </trkpt>
      <trkpt lat="42.441384159028530120849609375" lon="1.24209168367087841033935546875">
        <ele>1594.800048828125</ele>
        <time>2020-08-12T11:03:00.000Z</time>
      </trkpt>
      <trkpt lat="42.4414138309657573699951171875" lon="1.24215446412563323974609375">
        <ele>1594.199951171875</ele>
        <time>2020-08-12T11:03:02.000Z</time>
      </trkpt>
      <trkpt lat="42.4414383061230182647705078125" lon="1.24217927455902099609375">
        <ele>1593.800048828125</ele>
        <time>2020-08-12T11:03:05.000Z</time>
      </trkpt>
      <trkpt lat="42.44144392199814319610595703125" lon="1.24218137003481388092041015625">
        <ele>1593.5999755859375</ele>
        <time>2020-08-12T11:03:06.000Z</time>
      </trkpt>
      <trkpt lat="42.44145163334906101226806640625" lon="1.242183633148670196533203125">
        <ele>1594</ele>
        <time>2020-08-12T11:03:16.000Z</time>
      </trkpt>
      <trkpt lat="42.44145565666258335113525390625" lon="1.2422065995633602142333984375">
        <ele>1593.5999755859375</ele>
        <time>2020-08-12T11:03:30.000Z</time>
      </trkpt>
      <trkpt lat="42.44143746793270111083984375" lon="1.242313049733638763427734375">
        <ele>1593.199951171875</ele>
        <time>2020-08-12T11:03:35.000Z</time>
      </trkpt>
      <trkpt lat="42.4413752742111682891845703125" lon="1.24245177023112773895263671875">
        <ele>1593</ele>
        <time>2020-08-12T11:03:40.000Z</time>
      </trkpt>
      <trkpt lat="42.44134250096976757049560546875" lon="1.24252066947519779205322265625">
        <ele>1592.199951171875</ele>
        <time>2020-08-12T11:03:42.000Z</time>
      </trkpt>
      <trkpt lat="42.44132389314472675323486328125" lon="1.2426149658858776092529296875">
        <ele>1591.5999755859375</ele>
        <time>2020-08-12T11:03:44.000Z</time>
      </trkpt>
      <trkpt lat="42.4412552453577518463134765625" lon="1.24299089424312114715576171875">
        <ele>1591.199951171875</ele>
        <time>2020-08-12T11:03:50.000Z</time>
      </trkpt>
      <trkpt lat="42.44124434888362884521484375" lon="1.2430501542985439300537109375">
        <ele>1591</ele>
        <time>2020-08-12T11:03:51.000Z</time>
      </trkpt>
      <trkpt lat="42.44123454205691814422607421875" lon="1.24317915178835391998291015625">
        <ele>1590</ele>
        <time>2020-08-12T11:03:53.000Z</time>
      </trkpt>
      <trkpt lat="42.4412448517978191375732421875" lon="1.24325391836464405059814453125">
        <ele>1589.800048828125</ele>
        <time>2020-08-12T11:03:54.000Z</time>
      </trkpt>
      <trkpt lat="42.44130210019648075103759765625" lon="1.24336807988584041595458984375">
        <ele>1589.199951171875</ele>
        <time>2020-08-12T11:03:56.000Z</time>
      </trkpt>
      <trkpt lat="42.44133713655173778533935546875" lon="1.24339230358600616455078125">
        <ele>1588.4000244140625</ele>
        <time>2020-08-12T11:03:57.000Z</time>
      </trkpt>
      <trkpt lat="42.441443167626857757568359375" lon="1.2433676607906818389892578125">
        <ele>1587.199951171875</ele>
        <time>2020-08-12T11:04:00.000Z</time>
      </trkpt>
      <trkpt lat="42.44148331694304943084716796875" lon="1.24333203770220279693603515625">
        <ele>1586.5999755859375</ele>
        <time>2020-08-12T11:04:01.000Z</time>
      </trkpt>
      <trkpt lat="42.44152405299246311187744140625" lon="1.243298761546611785888671875">
        <ele>1586.199951171875</ele>
        <time>2020-08-12T11:04:02.000Z</time>
      </trkpt>
      <trkpt lat="42.44157367385923862457275390625" lon="1.24325416982173919677734375">
        <ele>1586</ele>
        <time>2020-08-12T11:04:03.000Z</time>
      </trkpt>
      <trkpt lat="42.44162161834537982940673828125" lon="1.24320630915462970733642578125">
        <ele>1585.800048828125</ele>
        <time>2020-08-12T11:04:04.000Z</time>
      </trkpt>
      <trkpt lat="42.441674508154392242431640625" lon="1.24317076988518238067626953125">
        <ele>1585.199951171875</ele>
        <time>2020-08-12T11:04:05.000Z</time>
      </trkpt>
      <trkpt lat="42.4417155794799327850341796875" lon="1.24314554035663604736328125">
        <ele>1584.800048828125</ele>
        <time>2020-08-12T11:04:06.000Z</time>
      </trkpt>
      <trkpt lat="42.44180400855839252471923828125" lon="1.24308678321540355682373046875">
        <ele>1584.4000244140625</ele>
        <time>2020-08-12T11:04:08.000Z</time>
      </trkpt>
      <trkpt lat="42.44187508709728717803955078125" lon="1.2430434487760066986083984375">
        <ele>1583.5999755859375</ele>
        <time>2020-08-12T11:04:10.000Z</time>
      </trkpt>
      <trkpt lat="42.4419464170932769775390625" lon="1.24301084317266941070556640625">
        <ele>1582.5999755859375</ele>
        <time>2020-08-12T11:04:12.000Z</time>
      </trkpt>
      <trkpt lat="42.44198463857173919677734375" lon="1.24299273826181888580322265625">
        <ele>1582.199951171875</ele>
        <time>2020-08-12T11:04:13.000Z</time>
      </trkpt>
      <trkpt lat="42.442074157297611236572265625" lon="1.242947392165660858154296875">
        <ele>1581.4000244140625</ele>
        <time>2020-08-12T11:04:15.000Z</time>
      </trkpt>
      <trkpt lat="42.442165352404117584228515625" lon="1.24290690757334232330322265625">
        <ele>1581</ele>
        <time>2020-08-12T11:04:17.000Z</time>
      </trkpt>
      <trkpt lat="42.44220835156738758087158203125" lon="1.24288444407284259796142578125">
        <ele>1580.800048828125</ele>
        <time>2020-08-12T11:04:18.000Z</time>
      </trkpt>
      <trkpt lat="42.44231320917606353759765625" lon="1.24279819428920745849609375">
        <ele>1580.4000244140625</ele>
        <time>2020-08-12T11:04:20.000Z</time>
      </trkpt>
      <trkpt lat="42.4423686973750591278076171875" lon="1.2427534349262714385986328125">
        <ele>1580</ele>
        <time>2020-08-12T11:04:21.000Z</time>
      </trkpt>
      <trkpt lat="42.442410774528980255126953125" lon="1.24271772801876068115234375">
        <ele>1579.4000244140625</ele>
        <time>2020-08-12T11:04:22.000Z</time>
      </trkpt>
      <trkpt lat="42.4424592219293117523193359375" lon="1.2426795065402984619140625">
        <ele>1579</ele>
        <time>2020-08-12T11:04:23.000Z</time>
      </trkpt>
      <trkpt lat="42.442536838352680206298828125" lon="1.2426196597516536712646484375">
        <ele>1578</ele>
        <time>2020-08-12T11:04:25.000Z</time>
      </trkpt>
      <trkpt lat="42.442570365965366363525390625" lon="1.242595016956329345703125">
        <ele>1577.5999755859375</ele>
        <time>2020-08-12T11:04:26.000Z</time>
      </trkpt>
      <trkpt lat="42.4426530115306377410888671875" lon="1.24254430644214153289794921875">
        <ele>1576.5999755859375</ele>
        <time>2020-08-12T11:04:29.000Z</time>
      </trkpt>
      <trkpt lat="42.442719899117946624755859375" lon="1.242508850991725921630859375">
        <ele>1576.199951171875</ele>
        <time>2020-08-12T11:04:31.000Z</time>
      </trkpt>
      <trkpt lat="42.44281453080475330352783203125" lon="1.24243835918605327606201171875">
        <ele>1575.5999755859375</ele>
        <time>2020-08-12T11:04:34.000Z</time>
      </trkpt>
      <trkpt lat="42.4428813345730304718017578125" lon="1.24234112910926342010498046875">
        <ele>1575.4000244140625</ele>
        <time>2020-08-12T11:04:37.000Z</time>
      </trkpt>
      <trkpt lat="42.44292014278471469879150390625" lon="1.2421727366745471954345703125">
        <ele>1574.199951171875</ele>
        <time>2020-08-12T11:04:41.000Z</time>
      </trkpt>
      <trkpt lat="42.44292181916534900665283203125" lon="1.2420701421797275543212890625">
        <ele>1573</ele>
        <time>2020-08-12T11:04:43.000Z</time>
      </trkpt>
      <trkpt lat="42.44290865957736968994140625" lon="1.24191096983850002288818359375">
        <ele>1572</ele>
        <time>2020-08-12T11:04:46.000Z</time>
      </trkpt>
      <trkpt lat="42.44289633817970752716064453125" lon="1.2418585829436779022216796875">
        <ele>1571.800048828125</ele>
        <time>2020-08-12T11:04:47.000Z</time>
      </trkpt>
      <trkpt lat="42.4428555183112621307373046875" lon="1.2417566590011119842529296875">
        <ele>1571</ele>
        <time>2020-08-12T11:04:49.000Z</time>
      </trkpt>
      <trkpt lat="42.4428047239780426025390625" lon="1.2416684813797473907470703125">
        <ele>1570.199951171875</ele>
        <time>2020-08-12T11:04:51.000Z</time>
      </trkpt>
      <trkpt lat="42.44276222772896289825439453125" lon="1.241577453911304473876953125">
        <ele>1569.800048828125</ele>
        <time>2020-08-12T11:04:53.000Z</time>
      </trkpt>
      <trkpt lat="42.4427401833236217498779296875" lon="1.2415301799774169921875">
        <ele>1569.800048828125</ele>
        <time>2020-08-12T11:04:54.000Z</time>
      </trkpt>
      <trkpt lat="42.44268612004816532135009765625" lon="1.24143286608159542083740234375">
        <ele>1569.800048828125</ele>
        <time>2020-08-12T11:04:56.000Z</time>
      </trkpt>
      <trkpt lat="42.44257162325084209442138671875" lon="1.241234801709651947021484375">
        <ele>1568.800048828125</ele>
        <time>2020-08-12T11:05:00.000Z</time>
      </trkpt>
      <trkpt lat="42.44251579977571964263916015625" lon="1.2411337159574031829833984375">
        <ele>1567.5999755859375</ele>
        <time>2020-08-12T11:05:02.000Z</time>
      </trkpt>
      <trkpt lat="42.442454360425472259521484375" lon="1.2409338913857936859130859375">
        <ele>1566.199951171875</ele>
        <time>2020-08-12T11:05:06.000Z</time>
      </trkpt>
      <trkpt lat="42.442436926066875457763671875" lon="1.240879409015178680419921875">
        <ele>1565.800048828125</ele>
        <time>2020-08-12T11:05:07.000Z</time>
      </trkpt>
      <trkpt lat="42.44241538457572460174560546875" lon="1.24082752503454685211181640625">
        <ele>1565.4000244140625</ele>
        <time>2020-08-12T11:05:08.000Z</time>
      </trkpt>
      <trkpt lat="42.44237414561212062835693359375" lon="1.24073348008096218109130859375">
        <ele>1565.199951171875</ele>
        <time>2020-08-12T11:05:10.000Z</time>
      </trkpt>
      <trkpt lat="42.4423572979867458343505859375" lon="1.24067799188196659088134765625">
        <ele>1564.5999755859375</ele>
        <time>2020-08-12T11:05:11.000Z</time>
      </trkpt>
      <trkpt lat="42.44234145618975162506103515625" lon="1.24061881564557552337646484375">
        <ele>1564.4000244140625</ele>
        <time>2020-08-12T11:05:12.000Z</time>
      </trkpt>
      <trkpt lat="42.4423090182244777679443359375" lon="1.24050297774374485015869140625">
        <ele>1564</ele>
        <time>2020-08-12T11:05:14.000Z</time>
      </trkpt>
      <trkpt lat="42.4422429688274860382080078125" lon="1.24033483676612377166748046875">
        <ele>1563.199951171875</ele>
        <time>2020-08-12T11:05:17.000Z</time>
      </trkpt>
      <trkpt lat="42.44221371598541736602783203125" lon="1.24028001911938190460205078125">
        <ele>1562.5999755859375</ele>
        <time>2020-08-12T11:05:18.000Z</time>
      </trkpt>
      <trkpt lat="42.44212034158408641815185546875" lon="1.24012143351137638092041015625">
        <ele>1561</ele>
        <time>2020-08-12T11:05:21.000Z</time>
      </trkpt>
      <trkpt lat="42.44205529801547527313232421875" lon="1.24003811739385128021240234375">
        <ele>1559.5999755859375</ele>
        <time>2020-08-12T11:05:23.000Z</time>
      </trkpt>
      <trkpt lat="42.44199310429394245147705078125" lon="1.23996251262724399566650390625">
        <ele>1558.4000244140625</ele>
        <time>2020-08-12T11:05:25.000Z</time>
      </trkpt>
      <trkpt lat="42.4419281445443630218505859375" lon="1.23988405801355838775634765625">
        <ele>1558.199951171875</ele>
        <time>2020-08-12T11:05:28.000Z</time>
      </trkpt>
      <trkpt lat="42.441852204501628875732421875" lon="1.23978079296648502349853515625">
        <ele>1558.199951171875</ele>
        <time>2020-08-12T11:05:31.000Z</time>
      </trkpt>
      <trkpt lat="42.441819347441196441650390625" lon="1.239740140736103057861328125">
        <ele>1558.199951171875</ele>
        <time>2020-08-12T11:05:32.000Z</time>
      </trkpt>
      <trkpt lat="42.44175656698644161224365234375" lon="1.2396568246185779571533203125">
        <ele>1557.4000244140625</ele>
        <time>2020-08-12T11:05:34.000Z</time>
      </trkpt>
      <trkpt lat="42.44170367717742919921875" lon="1.239583231508731842041015625">
        <ele>1555.800048828125</ele>
        <time>2020-08-12T11:05:36.000Z</time>
      </trkpt>
      <trkpt lat="42.4416612647473812103271484375" lon="1.23952246271073818206787109375">
        <ele>1555.199951171875</ele>
        <time>2020-08-12T11:05:38.000Z</time>
      </trkpt>
      <trkpt lat="42.4416287429630756378173828125" lon="1.23946730978786945343017578125">
        <ele>1554.800048828125</ele>
        <time>2020-08-12T11:05:40.000Z</time>
      </trkpt>
      <trkpt lat="42.44158255867660045623779296875" lon="1.2393590994179248809814453125">
        <ele>1554</ele>
        <time>2020-08-12T11:05:43.000Z</time>
      </trkpt>
      <trkpt lat="42.4415496177971363067626953125" lon="1.2392865121364593505859375">
        <ele>1553.5999755859375</ele>
        <time>2020-08-12T11:05:45.000Z</time>
      </trkpt>
      <trkpt lat="42.44149287231266498565673828125" lon="1.239179559051990509033203125">
        <ele>1552.5999755859375</ele>
        <time>2020-08-12T11:05:48.000Z</time>
      </trkpt>
      <trkpt lat="42.4414778687059879302978515625" lon="1.2391425110399723052978515625">
        <ele>1552</ele>
        <time>2020-08-12T11:05:49.000Z</time>
      </trkpt>
      <trkpt lat="42.44144056923687458038330078125" lon="1.2390694208443164825439453125">
        <ele>1551.199951171875</ele>
        <time>2020-08-12T11:05:51.000Z</time>
      </trkpt>
      <trkpt lat="42.4413970671594142913818359375" lon="1.2390027008950710296630859375">
        <ele>1550.5999755859375</ele>
        <time>2020-08-12T11:05:53.000Z</time>
      </trkpt>
      <trkpt lat="42.441350631415843963623046875" lon="1.238947212696075439453125">
        <ele>1550.199951171875</ele>
        <time>2020-08-12T11:05:55.000Z</time>
      </trkpt>
      <trkpt lat="42.44127930141985416412353515625" lon="1.23882114887237548828125">
        <ele>1549.5999755859375</ele>
        <time>2020-08-12T11:05:58.000Z</time>
      </trkpt>
      <trkpt lat="42.4412441812455654144287109375" lon="1.23872064985334873199462890625">
        <ele>1549.199951171875</ele>
        <time>2020-08-12T11:06:00.000Z</time>
      </trkpt>
      <trkpt lat="42.4412414990365505218505859375" lon="1.23861336149275302886962890625">
        <ele>1548.199951171875</ele>
        <time>2020-08-12T11:06:02.000Z</time>
      </trkpt>
      <trkpt lat="42.4412730149924755096435546875" lon="1.238511018455028533935546875">
        <ele>1547.5999755859375</ele>
        <time>2020-08-12T11:06:04.000Z</time>
      </trkpt>
      <trkpt lat="42.44132255204021930694580078125" lon="1.23842510394752025604248046875">
        <ele>1546.800048828125</ele>
        <time>2020-08-12T11:06:06.000Z</time>
      </trkpt>
      <trkpt lat="42.441349960863590240478515625" lon="1.2383874692022800445556640625">
        <ele>1546.4000244140625</ele>
        <time>2020-08-12T11:06:07.000Z</time>
      </trkpt>
      <trkpt lat="42.44137418456375598907470703125" lon="1.2383428774774074554443359375">
        <ele>1546.4000244140625</ele>
        <time>2020-08-12T11:06:08.000Z</time>
      </trkpt>
      <trkpt lat="42.44144283235073089599609375" lon="1.23820885084569454193115234375">
        <ele>1546.199951171875</ele>
        <time>2020-08-12T11:06:11.000Z</time>
      </trkpt>
      <trkpt lat="42.4414668045938014984130859375" lon="1.23815788887441158294677734375">
        <ele>1545.4000244140625</ele>
        <time>2020-08-12T11:06:12.000Z</time>
      </trkpt>
      <trkpt lat="42.4414932914078235626220703125" lon="1.23810173012316226959228515625">
        <ele>1544.5999755859375</ele>
        <time>2020-08-12T11:06:13.000Z</time>
      </trkpt>
      <trkpt lat="42.4415130726993083953857421875" lon="1.23805160634219646453857421875">
        <ele>1543.5999755859375</ele>
        <time>2020-08-12T11:06:14.000Z</time>
      </trkpt>
      <trkpt lat="42.4415279924869537353515625" lon="1.238000728189945220947265625">
        <ele>1542.5999755859375</ele>
        <time>2020-08-12T11:06:15.000Z</time>
      </trkpt>
      <trkpt lat="42.441545091569423675537109375" lon="1.237953789532184600830078125">
        <ele>1541.800048828125</ele>
        <time>2020-08-12T11:06:16.000Z</time>
      </trkpt>
      <trkpt lat="42.44156294502317905426025390625" lon="1.23790718615055084228515625">
        <ele>1541.4000244140625</ele>
        <time>2020-08-12T11:06:17.000Z</time>
      </trkpt>
      <trkpt lat="42.44159529916942119598388671875" lon="1.23780232854187488555908203125">
        <ele>1540.4000244140625</ele>
        <time>2020-08-12T11:06:19.000Z</time>
      </trkpt>
      <trkpt lat="42.44160468690097332000732421875" lon="1.2377454154193401336669921875">
        <ele>1540.4000244140625</ele>
        <time>2020-08-12T11:06:20.000Z</time>
      </trkpt>
      <trkpt lat="42.44161206297576427459716796875" lon="1.2376854009926319122314453125">
        <ele>1540.199951171875</ele>
        <time>2020-08-12T11:06:21.000Z</time>
      </trkpt>
      <trkpt lat="42.44160988368093967437744140625" lon="1.2374527193605899810791015625">
        <ele>1539.199951171875</ele>
        <time>2020-08-12T11:06:25.000Z</time>
      </trkpt>
      <trkpt lat="42.44160510599613189697265625" lon="1.23740854673087596893310546875">
        <ele>1538.5999755859375</ele>
        <time>2020-08-12T11:06:26.000Z</time>
      </trkpt>
      <trkpt lat="42.4416089616715908050537109375" lon="1.23732673935592174530029296875">
        <ele>1537.5999755859375</ele>
        <time>2020-08-12T11:06:28.000Z</time>
      </trkpt>
      <trkpt lat="42.44162212125957012176513671875" lon="1.23724040575325489044189453125">
        <ele>1536.5999755859375</ele>
        <time>2020-08-12T11:06:30.000Z</time>
      </trkpt>
      <trkpt lat="42.44164408184587955474853515625" lon="1.2370835803449153900146484375">
        <ele>1535.4000244140625</ele>
        <time>2020-08-12T11:06:34.000Z</time>
      </trkpt>
      <trkpt lat="42.44165011681616306304931640625" lon="1.23704561032354831695556640625">
        <ele>1535.199951171875</ele>
        <time>2020-08-12T11:06:35.000Z</time>
      </trkpt>
      <trkpt lat="42.44166436605155467987060546875" lon="1.236980818212032318115234375">
        <ele>1534.199951171875</ele>
        <time>2020-08-12T11:06:37.000Z</time>
      </trkpt>
      <trkpt lat="42.4416760168969631195068359375" lon="1.23685919679701328277587890625">
        <ele>1533.4000244140625</ele>
        <time>2020-08-12T11:06:40.000Z</time>
      </trkpt>
      <trkpt lat="42.44167291559278964996337890625" lon="1.236807145178318023681640625">
        <ele>1533.199951171875</ele>
        <time>2020-08-12T11:06:41.000Z</time>
      </trkpt>
      <trkpt lat="42.441668808460235595703125" lon="1.23663179576396942138671875">
        <ele>1532</ele>
        <time>2020-08-12T11:06:45.000Z</time>
      </trkpt>
      <trkpt lat="42.44165346957743167877197265625" lon="1.23643892817199230194091796875">
        <ele>1530.800048828125</ele>
        <time>2020-08-12T11:06:50.000Z</time>
      </trkpt>
      <trkpt lat="42.44165095500648021697998046875" lon="1.23640389181673526763916015625">
        <ele>1530.5999755859375</ele>
        <time>2020-08-12T11:06:51.000Z</time>
      </trkpt>
      <trkpt lat="42.4416411481797695159912109375" lon="1.23633465729653835296630859375">
        <ele>1529.5999755859375</ele>
        <time>2020-08-12T11:06:53.000Z</time>
      </trkpt>
      <trkpt lat="42.44164492003619670867919921875" lon="1.2362343259155750274658203125">
        <ele>1528.4000244140625</ele>
        <time>2020-08-12T11:06:56.000Z</time>
      </trkpt>
      <trkpt lat="42.44165011681616306304931640625" lon="1.2362058274447917938232421875">
        <ele>1528.4000244140625</ele>
        <time>2020-08-12T11:06:57.000Z</time>
      </trkpt>
      <trkpt lat="42.441706024110317230224609375" lon="1.23605503700673580169677734375">
        <ele>1527.5999755859375</ele>
        <time>2020-08-12T11:07:01.000Z</time>
      </trkpt>
      <trkpt lat="42.441746257245540618896484375" lon="1.23593701981008052825927734375">
        <ele>1526.4000244140625</ele>
        <time>2020-08-12T11:07:04.000Z</time>
      </trkpt>
      <trkpt lat="42.4417613446712493896484375" lon="1.23589376918971538543701171875">
        <ele>1526</ele>
        <time>2020-08-12T11:07:05.000Z</time>
      </trkpt>
      <trkpt lat="42.44180417619645595550537109375" lon="1.23575337231159210205078125">
        <ele>1525.199951171875</ele>
        <time>2020-08-12T11:07:08.000Z</time>
      </trkpt>
      <trkpt lat="42.44188615120947360992431640625" lon="1.23560325242578983306884765625">
        <ele>1524.199951171875</ele>
        <time>2020-08-12T11:07:11.000Z</time>
      </trkpt>
      <trkpt lat="42.441905178129673004150390625" lon="1.23554273508489131927490234375">
        <ele>1524</ele>
        <time>2020-08-12T11:07:12.000Z</time>
      </trkpt>
      <trkpt lat="42.44195538572967052459716796875" lon="1.23539353720843791961669921875">
        <ele>1522.800048828125</ele>
        <time>2020-08-12T11:07:15.000Z</time>
      </trkpt>
      <trkpt lat="42.44198170490562915802001953125" lon="1.235296726226806640625">
        <ele>1522.199951171875</ele>
        <time>2020-08-12T11:07:17.000Z</time>
      </trkpt>
      <trkpt lat="42.44207826443016529083251953125" lon="1.2351000867784023284912109375">
        <ele>1521.5999755859375</ele>
        <time>2020-08-12T11:07:21.000Z</time>
      </trkpt>
      <trkpt lat="42.4420977942645549774169921875" lon="1.23504392802715301513671875">
        <ele>1521</ele>
        <time>2020-08-12T11:07:22.000Z</time>
      </trkpt>
      <trkpt lat="42.44211765937507152557373046875" lon="1.23499573208391666412353515625">
        <ele>1520</ele>
        <time>2020-08-12T11:07:23.000Z</time>
      </trkpt>
      <trkpt lat="42.44215940125286579132080078125" lon="1.234904788434505462646484375">
        <ele>1518.800048828125</ele>
        <time>2020-08-12T11:07:25.000Z</time>
      </trkpt>
      <trkpt lat="42.4422017298638820648193359375" lon="1.23482038266956806182861328125">
        <ele>1518.4000244140625</ele>
        <time>2020-08-12T11:07:27.000Z</time>
      </trkpt>
      <trkpt lat="42.442227043211460113525390625" lon="1.2346481345593929290771484375">
        <ele>1517.800048828125</ele>
        <time>2020-08-12T11:07:31.000Z</time>
      </trkpt>
      <trkpt lat="42.44221840985119342803955078125" lon="1.23461251147091388702392578125">
        <ele>1517.199951171875</ele>
        <time>2020-08-12T11:07:32.000Z</time>
      </trkpt>
      <trkpt lat="42.44220952503383159637451171875" lon="1.2345926463603973388671875">
        <ele>1516.800048828125</ele>
        <time>2020-08-12T11:07:33.000Z</time>
      </trkpt>
      <trkpt lat="42.4422039091587066650390625" lon="1.23457864858210086822509765625">
        <ele>1516</ele>
        <time>2020-08-12T11:07:37.000Z</time>
      </trkpt>
      <trkpt lat="42.44220851920545101165771484375" lon="1.2345763854682445526123046875">
        <ele>1516</ele>
        <time>2020-08-12T11:07:56.000Z</time>
      </trkpt>
      <trkpt lat="42.44220851920545101165771484375" lon="1.23457462526857852935791015625">
        <ele>1515.800048828125</ele>
        <time>2020-08-12T11:08:03.000Z</time>
      </trkpt>
      <trkpt lat="42.442207597196102142333984375" lon="1.2345706857740879058837890625">
        <ele>1515.800048828125</ele>
        <time>2020-08-12T11:08:33.000Z</time>
      </trkpt>
      <trkpt lat="42.44220650754868984222412109375" lon="1.2345636449754238128662109375">
        <ele>1515.800048828125</ele>
        <time>2020-08-12T11:09:07.000Z</time>
      </trkpt>
      <trkpt lat="42.44218404404819011688232421875" lon="1.23440732248127460479736328125">
        <ele>1515.800048828125</ele>
        <time>2020-08-12T11:09:13.000Z</time>
      </trkpt>
      <trkpt lat="42.44217901490628719329833984375" lon="1.2343728728592395782470703125">
        <ele>1515.5999755859375</ele>
        <time>2020-08-12T11:09:14.000Z</time>
      </trkpt>
      <trkpt lat="42.4421541206538677215576171875" lon="1.2342320568859577178955078125">
        <ele>1514.4000244140625</ele>
        <time>2020-08-12T11:09:18.000Z</time>
      </trkpt>
      <trkpt lat="42.442144565284252166748046875" lon="1.23420347459614276885986328125">
        <ele>1514</ele>
        <time>2020-08-12T11:09:19.000Z</time>
      </trkpt>
      <trkpt lat="42.4421199224889278411865234375" lon="1.234116889536380767822265625">
        <ele>1513.4000244140625</ele>
        <time>2020-08-12T11:09:22.000Z</time>
      </trkpt>
      <trkpt lat="42.4421044997870922088623046875" lon="1.23402468860149383544921875">
        <ele>1513</ele>
        <time>2020-08-12T11:09:25.000Z</time>
      </trkpt>
      <trkpt lat="42.44209603406488895416259765625" lon="1.23393793590366840362548828125">
        <ele>1512.4000244140625</ele>
        <time>2020-08-12T11:09:28.000Z</time>
      </trkpt>
      <trkpt lat="42.44208647869527339935302734375" lon="1.2338538654148578643798828125">
        <ele>1512</ele>
        <time>2020-08-12T11:09:30.000Z</time>
      </trkpt>
      <trkpt lat="42.4420558847486972808837890625" lon="1.23371422290802001953125">
        <ele>1511.4000244140625</ele>
        <time>2020-08-12T11:09:33.000Z</time>
      </trkpt>
      <trkpt lat="42.4420349299907684326171875" lon="1.23361707665026187896728515625">
        <ele>1510.4000244140625</ele>
        <time>2020-08-12T11:09:35.000Z</time>
      </trkpt>
      <trkpt lat="42.4419794417917728424072265625" lon="1.23339948244392871856689453125">
        <ele>1509.199951171875</ele>
        <time>2020-08-12T11:09:40.000Z</time>
      </trkpt>
      <trkpt lat="42.4419713951647281646728515625" lon="1.2333603389561176300048828125">
        <ele>1509</ele>
        <time>2020-08-12T11:09:41.000Z</time>
      </trkpt>
      <trkpt lat="42.44194197468459606170654296875" lon="1.2332932837307453155517578125">
        <ele>1508.199951171875</ele>
        <time>2020-08-12T11:09:43.000Z</time>
      </trkpt>
      <trkpt lat="42.441903166472911834716796875" lon="1.2332372926175594329833984375">
        <ele>1507.199951171875</ele>
        <time>2020-08-12T11:09:45.000Z</time>
      </trkpt>
      <trkpt lat="42.44189000688493251800537109375" lon="1.2332091294229030609130859375">
        <ele>1507</ele>
        <time>2020-08-12T11:09:46.000Z</time>
      </trkpt>
      <trkpt lat="42.4418701417744159698486328125" lon="1.233097650110721588134765625">
        <ele>1506</ele>
        <time>2020-08-12T11:09:49.000Z</time>
      </trkpt>
      <trkpt lat="42.44187642820179462432861328125" lon="1.23307024128735065460205078125">
        <ele>1505.4000244140625</ele>
        <time>2020-08-12T11:09:50.000Z</time>
      </trkpt>
      <trkpt lat="42.44191096164286136627197265625" lon="1.23299614526331424713134765625">
        <ele>1504.800048828125</ele>
        <time>2020-08-12T11:09:53.000Z</time>
      </trkpt>
      <trkpt lat="42.44196896441280841827392578125" lon="1.2329103983938694000244140625">
        <ele>1504.199951171875</ele>
        <time>2020-08-12T11:09:56.000Z</time>
      </trkpt>
      <trkpt lat="42.44198556058108806610107421875" lon="1.2328808940947055816650390625">
        <ele>1503.800048828125</ele>
        <time>2020-08-12T11:09:57.000Z</time>
      </trkpt>
      <trkpt lat="42.442012131214141845703125" lon="1.23282666318118572235107421875">
        <ele>1502.5999755859375</ele>
        <time>2020-08-12T11:09:59.000Z</time>
      </trkpt>
      <trkpt lat="42.44204364717006683349609375" lon="1.23281358741223812103271484375">
        <ele>1502.199951171875</ele>
        <time>2020-08-12T11:10:00.000Z</time>
      </trkpt>
      <trkpt lat="42.4421489238739013671875" lon="1.232802607119083404541015625">
        <ele>1501.800048828125</ele>
        <time>2020-08-12T11:10:03.000Z</time>
      </trkpt>
      <trkpt lat="42.4421906657516956329345703125" lon="1.232806630432605743408203125">
        <ele>1501.4000244140625</ele>
        <time>2020-08-12T11:10:04.000Z</time>
      </trkpt>
      <trkpt lat="42.44223534129559993743896484375" lon="1.2327987514436244964599609375">
        <ele>1501.199951171875</ele>
        <time>2020-08-12T11:10:05.000Z</time>
      </trkpt>
      <trkpt lat="42.442286051809787750244140625" lon="1.23279347084462642669677734375">
        <ele>1500.800048828125</ele>
        <time>2020-08-12T11:10:06.000Z</time>
      </trkpt>
      <trkpt lat="42.442414127290248870849609375" lon="1.232788525521755218505859375">
        <ele>1500.4000244140625</ele>
        <time>2020-08-12T11:10:09.000Z</time>
      </trkpt>
      <trkpt lat="42.44249853305518627166748046875" lon="1.232770420610904693603515625">
        <ele>1499.5999755859375</ele>
        <time>2020-08-12T11:10:12.000Z</time>
      </trkpt>
      <trkpt lat="42.44252351112663745880126953125" lon="1.2327682413160800933837890625">
        <ele>1499.199951171875</ele>
        <time>2020-08-12T11:10:13.000Z</time>
      </trkpt>
      <trkpt lat="42.4426724575459957122802734375" lon="1.23277234844863414764404296875">
        <ele>1498.4000244140625</ele>
        <time>2020-08-12T11:10:18.000Z</time>
      </trkpt>
      <trkpt lat="42.4427711963653564453125" lon="1.2327417545020580291748046875">
        <ele>1497.199951171875</ele>
        <time>2020-08-12T11:10:21.000Z</time>
      </trkpt>
      <trkpt lat="42.44283079169690608978271484375" lon="1.23271711170673370361328125">
        <ele>1496</ele>
        <time>2020-08-12T11:10:23.000Z</time>
      </trkpt>
      <trkpt lat="42.44286381639540195465087890625" lon="1.23269774951040744781494140625">
        <ele>1495.5999755859375</ele>
        <time>2020-08-12T11:10:24.000Z</time>
      </trkpt>
      <trkpt lat="42.44300647638738155364990234375" lon="1.232613511383533477783203125">
        <ele>1495</ele>
        <time>2020-08-12T11:10:28.000Z</time>
      </trkpt>
      <trkpt lat="42.44309348054230213165283203125" lon="1.2325590290129184722900390625">
        <ele>1494</ele>
        <time>2020-08-12T11:10:31.000Z</time>
      </trkpt>
      <trkpt lat="42.4431552551686763763427734375" lon="1.2325134314596652984619140625">
        <ele>1493</ele>
        <time>2020-08-12T11:10:33.000Z</time>
      </trkpt>
      <trkpt lat="42.44326396845281124114990234375" lon="1.232421733438968658447265625">
        <ele>1492</ele>
        <time>2020-08-12T11:10:36.000Z</time>
      </trkpt>
      <trkpt lat="42.44330168701708316802978515625" lon="1.23237873427569866180419921875">
        <ele>1491.800048828125</ele>
        <time>2020-08-12T11:10:37.000Z</time>
      </trkpt>
      <trkpt lat="42.44333487935364246368408203125" lon="1.23233565129339694976806640625">
        <ele>1491.4000244140625</ele>
        <time>2020-08-12T11:10:38.000Z</time>
      </trkpt>
      <trkpt lat="42.4433654733002185821533203125" lon="1.232294999063014984130859375">
        <ele>1490.800048828125</ele>
        <time>2020-08-12T11:10:39.000Z</time>
      </trkpt>
      <trkpt lat="42.4434271641075611114501953125" lon="1.232220567762851715087890625">
        <ele>1489.5999755859375</ele>
        <time>2020-08-12T11:10:41.000Z</time>
      </trkpt>
      <trkpt lat="42.44350201450288295745849609375" lon="1.23214446008205413818359375">
        <ele>1488.5999755859375</ele>
        <time>2020-08-12T11:10:43.000Z</time>
      </trkpt>
      <trkpt lat="42.44361483491957187652587890625" lon="1.23200808651745319366455078125">
        <ele>1487.800048828125</ele>
        <time>2020-08-12T11:10:46.000Z</time>
      </trkpt>
      <trkpt lat="42.4436467699706554412841796875" lon="1.23196098022162914276123046875">
        <ele>1487.4000244140625</ele>
        <time>2020-08-12T11:10:47.000Z</time>
      </trkpt>
      <trkpt lat="42.44374257512390613555908203125" lon="1.23182117007672786712646484375">
        <ele>1486.800048828125</ele>
        <time>2020-08-12T11:10:50.000Z</time>
      </trkpt>
      <trkpt lat="42.44380795396864414215087890625" lon="1.23174455948173999786376953125">
        <ele>1486.199951171875</ele>
        <time>2020-08-12T11:10:52.000Z</time>
      </trkpt>
      <trkpt lat="42.443835027515888214111328125" lon="1.23170114122331142425537109375">
        <ele>1485.800048828125</ele>
        <time>2020-08-12T11:10:53.000Z</time>
      </trkpt>
      <trkpt lat="42.4438650347292423248291015625" lon="1.23165856115520000457763671875">
        <ele>1486</ele>
        <time>2020-08-12T11:10:54.000Z</time>
      </trkpt>
      <trkpt lat="42.44402202777564525604248046875" lon="1.231469549238681793212890625">
        <ele>1484.800048828125</ele>
        <time>2020-08-12T11:10:59.000Z</time>
      </trkpt>
      <trkpt lat="42.44410090148448944091796875" lon="1.23140492476522922515869140625">
        <ele>1483.800048828125</ele>
        <time>2020-08-12T11:11:01.000Z</time>
      </trkpt>
      <trkpt lat="42.444138787686824798583984375" lon="1.23137676157057285308837890625">
        <ele>1483.199951171875</ele>
        <time>2020-08-12T11:11:02.000Z</time>
      </trkpt>
      <trkpt lat="42.4442130513489246368408203125" lon="1.23132278211414813995361328125">
        <ele>1481.5999755859375</ele>
        <time>2020-08-12T11:11:04.000Z</time>
      </trkpt>
      <trkpt lat="42.44433567859232425689697265625" lon="1.23123259283602237701416015625">
        <ele>1480.199951171875</ele>
        <time>2020-08-12T11:11:07.000Z</time>
      </trkpt>
      <trkpt lat="42.44441983290016651153564453125" lon="1.231163442134857177734375">
        <ele>1479.4000244140625</ele>
        <time>2020-08-12T11:11:09.000Z</time>
      </trkpt>
      <trkpt lat="42.44446207769215106964111328125" lon="1.231122873723506927490234375">
        <ele>1478</ele>
        <time>2020-08-12T11:11:10.000Z</time>
      </trkpt>
      <trkpt lat="42.44454975239932537078857421875" lon="1.2310425750911235809326171875">
        <ele>1477</ele>
        <time>2020-08-12T11:11:12.000Z</time>
      </trkpt>
      <trkpt lat="42.44465611875057220458984375" lon="1.230991780757904052734375">
        <ele>1475.800048828125</ele>
        <time>2020-08-12T11:11:14.000Z</time>
      </trkpt>
      <trkpt lat="42.44470682926476001739501953125" lon="1.23097342438995838165283203125">
        <ele>1475</ele>
        <time>2020-08-12T11:11:15.000Z</time>
      </trkpt>
      <trkpt lat="42.4447561986744403839111328125" lon="1.23095649294555187225341796875">
        <ele>1474.4000244140625</ele>
        <time>2020-08-12T11:11:16.000Z</time>
      </trkpt>
      <trkpt lat="42.4449075758457183837890625" lon="1.23092665337026119232177734375">
        <ele>1473</ele>
        <time>2020-08-12T11:11:19.000Z</time>
      </trkpt>
      <trkpt lat="42.4449553526937961578369140625" lon="1.23092531226575374603271484375">
        <ele>1472.5999755859375</ele>
        <time>2020-08-12T11:11:20.000Z</time>
      </trkpt>
      <trkpt lat="42.4450401775538921356201171875" lon="1.23091894201934337615966796875">
        <ele>1471.800048828125</ele>
        <time>2020-08-12T11:11:22.000Z</time>
      </trkpt>
      <trkpt lat="42.44516062550246715545654296875" lon="1.2309017591178417205810546875">
        <ele>1470.5999755859375</ele>
        <time>2020-08-12T11:11:25.000Z</time>
      </trkpt>
      <trkpt lat="42.44524863548576831817626953125" lon="1.23085691593587398529052734375">
        <ele>1469.4000244140625</ele>
        <time>2020-08-12T11:11:28.000Z</time>
      </trkpt>
      <trkpt lat="42.44530529715120792388916015625" lon="1.230823136866092681884765625">
        <ele>1469</ele>
        <time>2020-08-12T11:11:30.000Z</time>
      </trkpt>
      <trkpt lat="42.4453318677842617034912109375" lon="1.23080930672585964202880859375">
        <ele>1468.199951171875</ele>
        <time>2020-08-12T11:11:31.000Z</time>
      </trkpt>
      <trkpt lat="42.445379979908466339111328125" lon="1.23078181408345699310302734375">
        <ele>1467</ele>
        <time>2020-08-12T11:11:33.000Z</time>
      </trkpt>
      <trkpt lat="42.4454733543097972869873046875" lon="1.230723224580287933349609375">
        <ele>1467</ele>
        <time>2020-08-12T11:11:36.000Z</time>
      </trkpt>
      <trkpt lat="42.4456074647605419158935546875" lon="1.23054259456694126129150390625">
        <ele>1466</ele>
        <time>2020-08-12T11:11:41.000Z</time>
      </trkpt>
      <trkpt lat="42.44566387496888637542724609375" lon="1.23036355711519718170166015625">
        <ele>1464.5999755859375</ele>
        <time>2020-08-12T11:11:45.000Z</time>
      </trkpt>
      <trkpt lat="42.44567929767072200775146484375" lon="1.2303140200674533843994140625">
        <ele>1464.4000244140625</ele>
        <time>2020-08-12T11:11:46.000Z</time>
      </trkpt>
      <trkpt lat="42.44573436677455902099609375" lon="1.2301882915198802947998046875">
        <ele>1463.5999755859375</ele>
        <time>2020-08-12T11:11:49.000Z</time>
      </trkpt>
      <trkpt lat="42.445756159722805023193359375" lon="1.230152584612369537353515625">
        <ele>1462.5999755859375</ele>
        <time>2020-08-12T11:11:50.000Z</time>
      </trkpt>
      <trkpt lat="42.445772588253021240234375" lon="1.2301158718764781951904296875">
        <ele>1462</ele>
        <time>2020-08-12T11:11:51.000Z</time>
      </trkpt>
      <trkpt lat="42.44581944309175014495849609375" lon="1.23004353605210781097412109375">
        <ele>1461.4000244140625</ele>
        <time>2020-08-12T11:11:53.000Z</time>
      </trkpt>
      <trkpt lat="42.44589395821094512939453125" lon="1.2299475632607936859130859375">
        <ele>1460.800048828125</ele>
        <time>2020-08-12T11:11:56.000Z</time>
      </trkpt>
      <trkpt lat="42.445943914353847503662109375" lon="1.22986667789518833160400390625">
        <ele>1460.199951171875</ele>
        <time>2020-08-12T11:11:58.000Z</time>
      </trkpt>
      <trkpt lat="42.4460151605308055877685546875" lon="1.2297896482050418853759765625">
        <ele>1459.4000244140625</ele>
        <time>2020-08-12T11:12:00.000Z</time>
      </trkpt>
      <trkpt lat="42.4460470117628574371337890625" lon="1.22975804843008518218994140625">
        <ele>1458.800048828125</ele>
        <time>2020-08-12T11:12:01.000Z</time>
      </trkpt>
      <trkpt lat="42.446118257939815521240234375" lon="1.22962846420705318450927734375">
        <ele>1458</ele>
        <time>2020-08-12T11:12:04.000Z</time>
      </trkpt>
      <trkpt lat="42.44614868424832820892333984375" lon="1.229582615196704864501953125">
        <ele>1457.5999755859375</ele>
        <time>2020-08-12T11:12:05.000Z</time>
      </trkpt>
      <trkpt lat="42.44624071754515171051025390625" lon="1.229420006275177001953125">
        <ele>1456.199951171875</ele>
        <time>2020-08-12T11:12:08.000Z</time>
      </trkpt>
      <trkpt lat="42.446295954287052154541015625" lon="1.22931548394262790679931640625">
        <ele>1455.800048828125</ele>
        <time>2020-08-12T11:12:10.000Z</time>
      </trkpt>
      <trkpt lat="42.44633610360324382781982421875" lon="1.2292210198938846588134765625">
        <ele>1454.5999755859375</ele>
        <time>2020-08-12T11:12:12.000Z</time>
      </trkpt>
      <trkpt lat="42.44635437615215778350830078125" lon="1.22917123138904571533203125">
        <ele>1454.199951171875</ele>
        <time>2020-08-12T11:12:13.000Z</time>
      </trkpt>
      <trkpt lat="42.4464117921888828277587890625" lon="1.22900971211493015289306640625">
        <ele>1453.4000244140625</ele>
        <time>2020-08-12T11:12:16.000Z</time>
      </trkpt>
      <trkpt lat="42.446449510753154754638671875" lon="1.228896640241146087646484375">
        <ele>1452</ele>
        <time>2020-08-12T11:12:18.000Z</time>
      </trkpt>
      <trkpt lat="42.44652737863361835479736328125" lon="1.22875557281076908111572265625">
        <ele>1451.199951171875</ele>
        <time>2020-08-12T11:12:21.000Z</time>
      </trkpt>
      <trkpt lat="42.44655051268637180328369140625" lon="1.22871366329491138458251953125">
        <ele>1450.800048828125</ele>
        <time>2020-08-12T11:12:22.000Z</time>
      </trkpt>
      <trkpt lat="42.44659979827702045440673828125" lon="1.2285697460174560546875">
        <ele>1449.800048828125</ele>
        <time>2020-08-12T11:12:25.000Z</time>
      </trkpt>
      <trkpt lat="42.44662477634847164154052734375" lon="1.228480227291584014892578125">
        <ele>1449.4000244140625</ele>
        <time>2020-08-12T11:12:27.000Z</time>
      </trkpt>
      <trkpt lat="42.44665210135281085968017578125" lon="1.2283204682171344757080078125">
        <ele>1448.800048828125</ele>
        <time>2020-08-12T11:12:31.000Z</time>
      </trkpt>
      <trkpt lat="42.44665595702826976776123046875" lon="1.22827260755002498626708984375">
        <ele>1448.5999755859375</ele>
        <time>2020-08-12T11:12:32.000Z</time>
      </trkpt>
      <trkpt lat="42.4466655962169170379638671875" lon="1.2281226553022861480712890625">
        <ele>1448.199951171875</ele>
        <time>2020-08-12T11:12:35.000Z</time>
      </trkpt>
      <trkpt lat="42.4466733075678348541259765625" lon="1.22800581157207489013671875">
        <ele>1447</ele>
        <time>2020-08-12T11:12:37.000Z</time>
      </trkpt>
      <trkpt lat="42.44669191539287567138671875" lon="1.227888129651546478271484375">
        <ele>1445.199951171875</ele>
        <time>2020-08-12T11:12:39.000Z</time>
      </trkpt>
      <trkpt lat="42.446719743311405181884765625" lon="1.22775913216173648834228515625">
        <ele>1443.5999755859375</ele>
        <time>2020-08-12T11:12:41.000Z</time>
      </trkpt>
      <trkpt lat="42.44677632115781307220458984375" lon="1.22744732536375522613525390625">
        <ele>1442.4000244140625</ele>
        <time>2020-08-12T11:12:45.000Z</time>
      </trkpt>
      <trkpt lat="42.44682342745363712310791015625" lon="1.22714909724891185760498046875">
        <ele>1442.199951171875</ele>
        <time>2020-08-12T11:12:49.000Z</time>
      </trkpt>
      <trkpt lat="42.4468476511538028717041015625" lon="1.22702990658581256866455078125">
        <ele>1441.5999755859375</ele>
        <time>2020-08-12T11:12:51.000Z</time>
      </trkpt>
      <trkpt lat="42.446858882904052734375" lon="1.22698280028998851776123046875">
        <ele>1441.199951171875</ele>
        <time>2020-08-12T11:12:52.000Z</time>
      </trkpt>
      <trkpt lat="42.44689039885997772216796875" lon="1.22684768401086330413818359375">
        <ele>1440.4000244140625</ele>
        <time>2020-08-12T11:12:55.000Z</time>
      </trkpt>
      <trkpt lat="42.44690649211406707763671875" lon="1.226757578551769256591796875">
        <ele>1439.800048828125</ele>
        <time>2020-08-12T11:12:57.000Z</time>
      </trkpt>
      <trkpt lat="42.4469502456486225128173828125" lon="1.226687841117382049560546875">
        <ele>1439.199951171875</ele>
        <time>2020-08-12T11:12:59.000Z</time>
      </trkpt>
      <trkpt lat="42.44698301889002323150634765625" lon="1.2266814708709716796875">
        <ele>1438.800048828125</ele>
        <time>2020-08-12T11:13:00.000Z</time>
      </trkpt>
      <trkpt lat="42.4470297060906887054443359375" lon="1.2267198599874973297119140625">
        <ele>1438.199951171875</ele>
        <time>2020-08-12T11:13:02.000Z</time>
      </trkpt>
      <trkpt lat="42.4470481462776660919189453125" lon="1.22683896683156490325927734375">
        <ele>1437.800048828125</ele>
        <time>2020-08-12T11:13:06.000Z</time>
      </trkpt>
      <trkpt lat="42.44704102165997028350830078125" lon="1.22686184942722320556640625">
        <ele>1437.4000244140625</ele>
        <time>2020-08-12T11:13:07.000Z</time>
      </trkpt>
      <trkpt lat="42.4469908140599727630615234375" lon="1.22697123326361179351806640625">
        <ele>1436.199951171875</ele>
        <time>2020-08-12T11:13:11.000Z</time>
      </trkpt>
      <trkpt lat="42.4469455517828464508056640625" lon="1.227114982903003692626953125">
        <ele>1435.4000244140625</ele>
        <time>2020-08-12T11:13:15.000Z</time>
      </trkpt>
      <trkpt lat="42.4469395168125629425048828125" lon="1.22721849940717220306396484375">
        <ele>1434.199951171875</ele>
        <time>2020-08-12T11:13:17.000Z</time>
      </trkpt>
      <trkpt lat="42.44692166335880756378173828125" lon="1.22738295234739780426025390625">
        <ele>1433</ele>
        <time>2020-08-12T11:13:20.000Z</time>
      </trkpt>
      <trkpt lat="42.4469157122075557708740234375" lon="1.227565594017505645751953125">
        <ele>1431.800048828125</ele>
        <time>2020-08-12T11:13:23.000Z</time>
      </trkpt>
      <trkpt lat="42.4469137005507946014404296875" lon="1.2276297993957996368408203125">
        <ele>1431</ele>
        <time>2020-08-12T11:13:24.000Z</time>
      </trkpt>
      <trkpt lat="42.44691881351172924041748046875" lon="1.227691657841205596923828125">
        <ele>1430.4000244140625</ele>
        <time>2020-08-12T11:13:25.000Z</time>
      </trkpt>
      <trkpt lat="42.44693926535546779632568359375" lon="1.22780053876340389251708984375">
        <ele>1429.199951171875</ele>
        <time>2020-08-12T11:13:27.000Z</time>
      </trkpt>
      <trkpt lat="42.44697153568267822265625" lon="1.22808401472866535186767578125">
        <ele>1428.5999755859375</ele>
        <time>2020-08-12T11:13:32.000Z</time>
      </trkpt>
      <trkpt lat="42.446975223720073699951171875" lon="1.22814754955470561981201171875">
        <ele>1428.199951171875</ele>
        <time>2020-08-12T11:13:33.000Z</time>
      </trkpt>
      <trkpt lat="42.44698855094611644744873046875" lon="1.2282581068575382232666015625">
        <ele>1426.800048828125</ele>
        <time>2020-08-12T11:13:35.000Z</time>
      </trkpt>
      <trkpt lat="42.4469938315451145172119140625" lon="1.2283727712929248809814453125">
        <ele>1426.5999755859375</ele>
        <time>2020-08-12T11:13:37.000Z</time>
      </trkpt>
      <trkpt lat="42.44700347073376178741455078125" lon="1.2286104820668697357177734375">
        <ele>1425.4000244140625</ele>
        <time>2020-08-12T11:13:41.000Z</time>
      </trkpt>
      <trkpt lat="42.4469951726496219635009765625" lon="1.22871282510459423065185546875">
        <ele>1424.199951171875</ele>
        <time>2020-08-12T11:13:43.000Z</time>
      </trkpt>
      <trkpt lat="42.44698570109903812408447265625" lon="1.228800751268863677978515625">
        <ele>1423</ele>
        <time>2020-08-12T11:13:45.000Z</time>
      </trkpt>
      <trkpt lat="42.44697832502424716949462890625" lon="1.22892446815967559814453125">
        <ele>1421.800048828125</ele>
        <time>2020-08-12T11:13:48.000Z</time>
      </trkpt>
      <trkpt lat="42.44699056260287761688232421875" lon="1.22923820279538631439208984375">
        <ele>1420.5999755859375</ele>
        <time>2020-08-12T11:13:55.000Z</time>
      </trkpt>
      <trkpt lat="42.4469621479511260986328125" lon="1.22945713810622692108154296875">
        <ele>1419.5999755859375</ele>
        <time>2020-08-12T11:14:00.000Z</time>
      </trkpt>
      <trkpt lat="42.4469460546970367431640625" lon="1.22953869402408599853515625">
        <ele>1419</ele>
        <time>2020-08-12T11:14:02.000Z</time>
      </trkpt>
      <trkpt lat="42.446942031383514404296875" lon="1.229577921330928802490234375">
        <ele>1418</ele>
        <time>2020-08-12T11:14:03.000Z</time>
      </trkpt>
      <trkpt lat="42.44693473912775516510009765625" lon="1.229666434228420257568359375">
        <ele>1416.800048828125</ele>
        <time>2020-08-12T11:14:05.000Z</time>
      </trkpt>
      <trkpt lat="42.4469227530062198638916015625" lon="1.22975536622107028961181640625">
        <ele>1416</ele>
        <time>2020-08-12T11:14:07.000Z</time>
      </trkpt>
      <trkpt lat="42.446915544569492340087890625" lon="1.2297993712127208709716796875">
        <ele>1415.4000244140625</ele>
        <time>2020-08-12T11:14:08.000Z</time>
      </trkpt>
      <trkpt lat="42.4468771554529666900634765625" lon="1.23001503758132457733154296875">
        <ele>1414.199951171875</ele>
        <time>2020-08-12T11:14:13.000Z</time>
      </trkpt>
      <trkpt lat="42.4468647502362728118896484375" lon="1.230052672326564788818359375">
        <ele>1414</ele>
        <time>2020-08-12T11:14:14.000Z</time>
      </trkpt>
      <trkpt lat="42.44681236334145069122314453125" lon="1.23022072948515415191650390625">
        <ele>1413</ele>
        <time>2020-08-12T11:14:19.000Z</time>
      </trkpt>
      <trkpt lat="42.44679543189704418182373046875" lon="1.2302526645362377166748046875">
        <ele>1412.5999755859375</ele>
        <time>2020-08-12T11:14:20.000Z</time>
      </trkpt>
      <trkpt lat="42.44676567614078521728515625" lon="1.23031410388648509979248046875">
        <ele>1411.800048828125</ele>
        <time>2020-08-12T11:14:22.000Z</time>
      </trkpt>
      <trkpt lat="42.4467091821134090423583984375" lon="1.230376549065113067626953125">
        <ele>1410.800048828125</ele>
        <time>2020-08-12T11:14:25.000Z</time>
      </trkpt>
      <trkpt lat="42.44669317267835140228271484375" lon="1.23039356432855129241943359375">
        <ele>1410.5999755859375</ele>
        <time>2020-08-12T11:14:26.000Z</time>
      </trkpt>
      <trkpt lat="42.4466550350189208984375" lon="1.2304816581308841705322265625">
        <ele>1409.5999755859375</ele>
        <time>2020-08-12T11:14:29.000Z</time>
      </trkpt>
      <trkpt lat="42.44665034115314483642578125" lon="1.2305141799151897430419921875">
        <ele>1409.5999755859375</ele>
        <time>2020-08-12T11:14:30.000Z</time>
      </trkpt>
      <trkpt lat="42.446652688086032867431640625" lon="1.23055332340300083160400390625">
        <ele>1409.199951171875</ele>
        <time>2020-08-12T11:14:31.000Z</time>
      </trkpt>
      <trkpt lat="42.44668546132743358612060546875" lon="1.230658181011676788330078125">
        <ele>1408.4000244140625</ele>
        <time>2020-08-12T11:14:33.000Z</time>
      </trkpt>
      <trkpt lat="42.4467313103377819061279296875" lon="1.2308347038924694061279296875">
        <ele>1407.4000244140625</ele>
        <time>2020-08-12T11:14:36.000Z</time>
      </trkpt>
      <trkpt lat="42.446738518774509429931640625" lon="1.23087803833186626434326171875">
        <ele>1406.800048828125</ele>
        <time>2020-08-12T11:14:37.000Z</time>
      </trkpt>
      <trkpt lat="42.44675092399120330810546875" lon="1.23093076050281524658203125">
        <ele>1406.4000244140625</ele>
        <time>2020-08-12T11:14:39.000Z</time>
      </trkpt>
      <trkpt lat="42.44675301946699619293212890625" lon="1.2309393100440502166748046875">
        <ele>1406.4000244140625</ele>
        <time>2020-08-12T11:14:41.000Z</time>
      </trkpt>
      <trkpt lat="42.4467500858008861541748046875" lon="1.23094526119530200958251953125">
        <ele>1406.5999755859375</ele>
        <time>2020-08-12T11:14:51.000Z</time>
      </trkpt>
      <trkpt lat="42.44674949906766414642333984375" lon="1.2309476919472217559814453125">
        <ele>1406.4000244140625</ele>
        <time>2020-08-12T11:15:13.000Z</time>
      </trkpt>
      <trkpt lat="42.446749918162822723388671875" lon="1.230948865413665771484375">
        <ele>1406.800048828125</ele>
        <time>2020-08-12T11:15:39.000Z</time>
      </trkpt>
      <trkpt lat="42.44675000198185443878173828125" lon="1.2309493683278560638427734375">
        <ele>1407</ele>
        <time>2020-08-12T11:16:12.000Z</time>
      </trkpt>
      <trkpt lat="42.4467507563531398773193359375" lon="1.23095892369747161865234375">
        <ele>1407</ele>
        <time>2020-08-12T11:16:19.000Z</time>
      </trkpt>
      <trkpt lat="42.4467457272112369537353515625" lon="1.2309942953288555145263671875">
        <ele>1407</ele>
        <time>2020-08-12T11:16:21.000Z</time>
      </trkpt>
      <trkpt lat="42.44670893065631389617919921875" lon="1.23116335831582546234130859375">
        <ele>1406.5999755859375</ele>
        <time>2020-08-12T11:16:26.000Z</time>
      </trkpt>
      <trkpt lat="42.44665981270372867584228515625" lon="1.231413893401622772216796875">
        <ele>1404.5999755859375</ele>
        <time>2020-08-12T11:16:32.000Z</time>
      </trkpt>
      <trkpt lat="42.446645982563495635986328125" lon="1.23144465498626232147216796875">
        <ele>1404.4000244140625</ele>
        <time>2020-08-12T11:16:33.000Z</time>
      </trkpt>
      <trkpt lat="42.4465730600059032440185546875" lon="1.231646239757537841796875">
        <ele>1404.5999755859375</ele>
        <time>2020-08-12T11:16:38.000Z</time>
      </trkpt>
      <trkpt lat="42.44655151851475238800048828125" lon="1.23169510625302791595458984375">
        <ele>1404.5999755859375</ele>
        <time>2020-08-12T11:16:39.000Z</time>
      </trkpt>
      <trkpt lat="42.4464927613735198974609375" lon="1.231777667999267578125">
        <ele>1403.4000244140625</ele>
        <time>2020-08-12T11:16:41.000Z</time>
      </trkpt>
      <trkpt lat="42.4464607425034046173095703125" lon="1.231822259724140167236328125">
        <ele>1403</ele>
        <time>2020-08-12T11:16:42.000Z</time>
      </trkpt>
      <trkpt lat="42.44638773612678050994873046875" lon="1.23190842568874359130859375">
        <ele>1402.800048828125</ele>
        <time>2020-08-12T11:16:44.000Z</time>
      </trkpt>
      <trkpt lat="42.4463122151792049407958984375" lon="1.2319659255445003509521484375">
        <ele>1402.4000244140625</ele>
        <time>2020-08-12T11:16:46.000Z</time>
      </trkpt>
      <trkpt lat="42.44627558626234531402587890625" lon="1.23198545537889003753662109375">
        <ele>1402.199951171875</ele>
        <time>2020-08-12T11:16:47.000Z</time>
      </trkpt>
      <trkpt lat="42.44624155573546886444091796875" lon="1.232000291347503662109375">
        <ele>1402.199951171875</ele>
        <time>2020-08-12T11:16:48.000Z</time>
      </trkpt>
      <trkpt lat="42.446124292910099029541015625" lon="1.23204161413013935089111328125">
        <ele>1401</ele>
        <time>2020-08-12T11:16:52.000Z</time>
      </trkpt>
      <trkpt lat="42.44609973393380641937255859375" lon="1.2320638261735439300537109375">
        <ele>1400.4000244140625</ele>
        <time>2020-08-12T11:16:53.000Z</time>
      </trkpt>
      <trkpt lat="42.44606369175016880035400390625" lon="1.23212677426636219024658203125">
        <ele>1400</ele>
        <time>2020-08-12T11:16:55.000Z</time>
      </trkpt>
      <trkpt lat="42.446066625416278839111328125" lon="1.23220656998455524444580078125">
        <ele>1399.800048828125</ele>
        <time>2020-08-12T11:16:57.000Z</time>
      </trkpt>
      <trkpt lat="42.44613544084131717681884765625" lon="1.2322924844920635223388671875">
        <ele>1399.5999755859375</ele>
        <time>2020-08-12T11:17:00.000Z</time>
      </trkpt>
      <trkpt lat="42.44619780220091342926025390625" lon="1.23229801654815673828125">
        <ele>1399</ele>
        <time>2020-08-12T11:17:02.000Z</time>
      </trkpt>
      <trkpt lat="42.44626544415950775146484375" lon="1.2322646565735340118408203125">
        <ele>1398.4000244140625</ele>
        <time>2020-08-12T11:17:04.000Z</time>
      </trkpt>
      <trkpt lat="42.44630056433379650115966796875" lon="1.23224495910108089447021484375">
        <ele>1397.800048828125</ele>
        <time>2020-08-12T11:17:05.000Z</time>
      </trkpt>
      <trkpt lat="42.4463819526135921478271484375" lon="1.2321999482810497283935546875">
        <ele>1396.5999755859375</ele>
        <time>2020-08-12T11:17:08.000Z</time>
      </trkpt>
      <trkpt lat="42.44640433229506015777587890625" lon="1.2321935780346393585205078125">
        <ele>1396.199951171875</ele>
        <time>2020-08-12T11:17:09.000Z</time>
      </trkpt>
      <trkpt lat="42.44642436504364013671875" lon="1.232186369597911834716796875">
        <ele>1395.4000244140625</ele>
        <time>2020-08-12T11:17:10.000Z</time>
      </trkpt>
      <trkpt lat="42.44650818407535552978515625" lon="1.2321362458169460296630859375">
        <ele>1394.199951171875</ele>
        <time>2020-08-12T11:17:13.000Z</time>
      </trkpt>
      <trkpt lat="42.44654196314513683319091796875" lon="1.2321154586970806121826171875">
        <ele>1393.800048828125</ele>
        <time>2020-08-12T11:17:14.000Z</time>
      </trkpt>
      <trkpt lat="42.44657230563461780548095703125" lon="1.23209257610142230987548828125">
        <ele>1393.199951171875</ele>
        <time>2020-08-12T11:17:15.000Z</time>
      </trkpt>
      <trkpt lat="42.44664154015481472015380859375" lon="1.23200925998389720916748046875">
        <ele>1391.800048828125</ele>
        <time>2020-08-12T11:17:18.000Z</time>
      </trkpt>
      <trkpt lat="42.44665947742760181427001953125" lon="1.2319882214069366455078125">
        <ele>1391.4000244140625</ele>
        <time>2020-08-12T11:17:19.000Z</time>
      </trkpt>
      <trkpt lat="42.44670708663761615753173828125" lon="1.2319092638790607452392578125">
        <ele>1390.5999755859375</ele>
        <time>2020-08-12T11:17:22.000Z</time>
      </trkpt>
      <trkpt lat="42.44674698449671268463134765625" lon="1.23183977790176868438720703125">
        <ele>1390.4000244140625</ele>
        <time>2020-08-12T11:17:24.000Z</time>
      </trkpt>
      <trkpt lat="42.4468054063618183135986328125" lon="1.23171396553516387939453125">
        <ele>1389.5999755859375</ele>
        <time>2020-08-12T11:17:27.000Z</time>
      </trkpt>
      <trkpt lat="42.44683801196515560150146484375" lon="1.23163056559860706329345703125">
        <ele>1388.800048828125</ele>
        <time>2020-08-12T11:17:29.000Z</time>
      </trkpt>
      <trkpt lat="42.44686114601790904998779296875" lon="1.23158429749310016632080078125">
        <ele>1388.4000244140625</ele>
        <time>2020-08-12T11:17:30.000Z</time>
      </trkpt>
      <trkpt lat="42.44690557010471820831298828125" lon="1.231482960283756256103515625">
        <ele>1387.800048828125</ele>
        <time>2020-08-12T11:17:32.000Z</time>
      </trkpt>
      <trkpt lat="42.44692903943359851837158203125" lon="1.231431998312473297119140625">
        <ele>1387.5999755859375</ele>
        <time>2020-08-12T11:17:33.000Z</time>
      </trkpt>
      <trkpt lat="42.446946389973163604736328125" lon="1.2313822098076343536376953125">
        <ele>1386.800048828125</ele>
        <time>2020-08-12T11:17:34.000Z</time>
      </trkpt>
      <trkpt lat="42.4469753913581371307373046875" lon="1.23128104023635387420654296875">
        <ele>1385.199951171875</ele>
        <time>2020-08-12T11:17:36.000Z</time>
      </trkpt>
      <trkpt lat="42.4470099247992038726806640625" lon="1.231166459619998931884765625">
        <ele>1384.5999755859375</ele>
        <time>2020-08-12T11:17:38.000Z</time>
      </trkpt>
      <trkpt lat="42.447024174034595489501953125" lon="1.23110468499362468719482421875">
        <ele>1384</ele>
        <time>2020-08-12T11:17:39.000Z</time>
      </trkpt>
      <trkpt lat="42.44704470969736576080322265625" lon="1.23094324953854084014892578125">
        <ele>1382.800048828125</ele>
        <time>2020-08-12T11:17:42.000Z</time>
      </trkpt>
      <trkpt lat="42.4470426142215728759765625" lon="1.2308410741388797760009765625">
        <ele>1382.5999755859375</ele>
        <time>2020-08-12T11:17:44.000Z</time>
      </trkpt>
      <trkpt lat="42.44710003025829792022705078125" lon="1.23071727342903614044189453125">
        <ele>1382.5999755859375</ele>
        <time>2020-08-12T11:17:47.000Z</time>
      </trkpt>
      <trkpt lat="42.4471711926162242889404296875" lon="1.23063999228179454803466796875">
        <ele>1382.199951171875</ele>
        <time>2020-08-12T11:17:49.000Z</time>
      </trkpt>
      <trkpt lat="42.44720681570470333099365234375" lon="1.23061023652553558349609375">
        <ele>1381.800048828125</ele>
        <time>2020-08-12T11:17:50.000Z</time>
      </trkpt>
      <trkpt lat="42.44725023396313190460205078125" lon="1.2305859290063381195068359375">
        <ele>1381.4000244140625</ele>
        <time>2020-08-12T11:17:51.000Z</time>
      </trkpt>
      <trkpt lat="42.4473327957093715667724609375" lon="1.23053689487278461456298828125">
        <ele>1380.5999755859375</ele>
        <time>2020-08-12T11:17:53.000Z</time>
      </trkpt>
      <trkpt lat="42.44738065637648105621337890625" lon="1.230510659515857696533203125">
        <ele>1380.4000244140625</ele>
        <time>2020-08-12T11:17:54.000Z</time>
      </trkpt>
      <trkpt lat="42.4474273435771465301513671875" lon="1.2304823286831378936767578125">
        <ele>1379.4000244140625</ele>
        <time>2020-08-12T11:17:55.000Z</time>
      </trkpt>
      <trkpt lat="42.44747118093073368072509765625" lon="1.2304514832794666290283203125">
        <ele>1378.5999755859375</ele>
        <time>2020-08-12T11:17:56.000Z</time>
      </trkpt>
      <trkpt lat="42.44751040823757648468017578125" lon="1.2304139323532581329345703125">
        <ele>1377.800048828125</ele>
        <time>2020-08-12T11:17:57.000Z</time>
      </trkpt>
      <trkpt lat="42.44755550287663936614990234375" lon="1.2303747050464153289794921875">
        <ele>1377</ele>
        <time>2020-08-12T11:17:58.000Z</time>
      </trkpt>
      <trkpt lat="42.44760294444859027862548828125" lon="1.2303344719111919403076171875">
        <ele>1376.5999755859375</ele>
        <time>2020-08-12T11:17:59.000Z</time>
      </trkpt>
      <trkpt lat="42.44764544069766998291015625" lon="1.23029029928147792816162109375">
        <ele>1376.4000244140625</ele>
        <time>2020-08-12T11:18:00.000Z</time>
      </trkpt>
      <trkpt lat="42.44767754338681697845458984375" lon="1.2302369065582752227783203125">
        <ele>1375.800048828125</ele>
        <time>2020-08-12T11:18:01.000Z</time>
      </trkpt>
      <trkpt lat="42.44771308265626430511474609375" lon="1.2301857769489288330078125">
        <ele>1375.4000244140625</ele>
        <time>2020-08-12T11:18:02.000Z</time>
      </trkpt>
      <trkpt lat="42.44777829386293888092041015625" lon="1.23008226044476032257080078125">
        <ele>1375</ele>
        <time>2020-08-12T11:18:04.000Z</time>
      </trkpt>
      <trkpt lat="42.4478088878095149993896484375" lon="1.23002576641738414764404296875">
        <ele>1374.4000244140625</ele>
        <time>2020-08-12T11:18:05.000Z</time>
      </trkpt>
      <trkpt lat="42.447852976620197296142578125" lon="1.22992166317999362945556640625">
        <ele>1373.4000244140625</ele>
        <time>2020-08-12T11:18:07.000Z</time>
      </trkpt>
      <trkpt lat="42.44793201796710491180419921875" lon="1.22963399626314640045166015625">
        <ele>1372.4000244140625</ele>
        <time>2020-08-12T11:18:12.000Z</time>
      </trkpt>
      <trkpt lat="42.44794794358313083648681640625" lon="1.22957850806415081024169921875">
        <ele>1372.199951171875</ele>
        <time>2020-08-12T11:18:13.000Z</time>
      </trkpt>
      <trkpt lat="42.447981052100658416748046875" lon="1.2294510193169116973876953125">
        <ele>1370.800048828125</ele>
        <time>2020-08-12T11:18:15.000Z</time>
      </trkpt>
      <trkpt lat="42.44803695939481258392333984375" lon="1.2292550504207611083984375">
        <ele>1369</ele>
        <time>2020-08-12T11:18:18.000Z</time>
      </trkpt>
      <trkpt lat="42.44806042872369289398193359375" lon="1.22912471182644367218017578125">
        <ele>1367.5999755859375</ele>
        <time>2020-08-12T11:18:20.000Z</time>
      </trkpt>
      <trkpt lat="42.44807065464556217193603515625" lon="1.22899278067052364349365234375">
        <ele>1366.4000244140625</ele>
        <time>2020-08-12T11:18:22.000Z</time>
      </trkpt>
      <trkpt lat="42.4480657093226909637451171875" lon="1.2288629449903964996337890625">
        <ele>1366.800048828125</ele>
        <time>2020-08-12T11:18:24.000Z</time>
      </trkpt>
      <trkpt lat="42.44806931354105472564697265625" lon="1.22863453812897205352783203125">
        <ele>1366.199951171875</ele>
        <time>2020-08-12T11:18:28.000Z</time>
      </trkpt>
      <trkpt lat="42.44806797243654727935791015625" lon="1.22847025282680988311767578125">
        <ele>1364.800048828125</ele>
        <time>2020-08-12T11:18:31.000Z</time>
      </trkpt>
      <trkpt lat="42.448052801191806793212890625" lon="1.22838157229125499725341796875">
        <ele>1363.800048828125</ele>
        <time>2020-08-12T11:18:33.000Z</time>
      </trkpt>
      <trkpt lat="42.44804911315441131591796875" lon="1.2282473780214786529541015625">
        <ele>1362.5999755859375</ele>
        <time>2020-08-12T11:18:36.000Z</time>
      </trkpt>
      <trkpt lat="42.4480754323303699493408203125" lon="1.22816414572298526763916015625">
        <ele>1361.4000244140625</ele>
        <time>2020-08-12T11:18:38.000Z</time>
      </trkpt>
      <trkpt lat="42.44812957942485809326171875" lon="1.22805006802082061767578125">
        <ele>1360.4000244140625</ele>
        <time>2020-08-12T11:18:42.000Z</time>
      </trkpt>
      <trkpt lat="42.44814567267894744873046875" lon="1.22802433557808399200439453125">
        <ele>1360.4000244140625</ele>
        <time>2020-08-12T11:18:43.000Z</time>
      </trkpt>
      <trkpt lat="42.4481612630188465118408203125" lon="1.22799533419311046600341796875">
        <ele>1360.199951171875</ele>
        <time>2020-08-12T11:18:44.000Z</time>
      </trkpt>
      <trkpt lat="42.4482008256018161773681640625" lon="1.2278906442224979400634765625">
        <ele>1359</ele>
        <time>2020-08-12T11:18:47.000Z</time>
      </trkpt>
      <trkpt lat="42.44823686778545379638671875" lon="1.22777556069195270538330078125">
        <ele>1358.199951171875</ele>
        <time>2020-08-12T11:18:50.000Z</time>
      </trkpt>
      <trkpt lat="42.44826628826558589935302734375" lon="1.22764631174504756927490234375">
        <ele>1358</ele>
        <time>2020-08-12T11:18:53.000Z</time>
      </trkpt>
      <trkpt lat="42.44828648865222930908203125" lon="1.22754606418311595916748046875">
        <ele>1357.4000244140625</ele>
        <time>2020-08-12T11:18:55.000Z</time>
      </trkpt>
      <trkpt lat="42.4482967145740985870361328125" lon="1.2274906598031520843505859375">
        <ele>1357</ele>
        <time>2020-08-12T11:18:56.000Z</time>
      </trkpt>
      <trkpt lat="42.4483084492385387420654296875" lon="1.22737423516809940338134765625">
        <ele>1355.5999755859375</ele>
        <time>2020-08-12T11:18:58.000Z</time>
      </trkpt>
      <trkpt lat="42.44832127355039119720458984375" lon="1.22725211083889007568359375">
        <ele>1355</ele>
        <time>2020-08-12T11:19:00.000Z</time>
      </trkpt>
      <trkpt lat="42.4483396299183368682861328125" lon="1.2271315790712833404541015625">
        <ele>1354.5999755859375</ele>
        <time>2020-08-12T11:19:02.000Z</time>
      </trkpt>
      <trkpt lat="42.4483785219490528106689453125" lon="1.22683963738381862640380859375">
        <ele>1353.4000244140625</ele>
        <time>2020-08-12T11:19:07.000Z</time>
      </trkpt>
      <trkpt lat="42.44839939288794994354248046875" lon="1.22671323828399181365966796875">
        <ele>1352</ele>
        <time>2020-08-12T11:19:10.000Z</time>
      </trkpt>
      <trkpt lat="42.448406517505645751953125" lon="1.22668616473674774169921875">
        <ele>1351.4000244140625</ele>
        <time>2020-08-12T11:19:11.000Z</time>
      </trkpt>
      <trkpt lat="42.448427639901638031005859375" lon="1.226640231907367706298828125">
        <ele>1351</ele>
        <time>2020-08-12T11:19:13.000Z</time>
      </trkpt>
      <trkpt lat="42.44844431988894939422607421875" lon="1.22662254609167575836181640625">
        <ele>1350.800048828125</ele>
        <time>2020-08-12T11:19:14.000Z</time>
      </trkpt>
      <trkpt lat="42.4484817869961261749267578125" lon="1.2265703268349170684814453125">
        <ele>1350.5999755859375</ele>
        <time>2020-08-12T11:19:17.000Z</time>
      </trkpt>
      <trkpt lat="42.44850735180079936981201171875" lon="1.22646966017782688140869140625">
        <ele>1349.5999755859375</ele>
        <time>2020-08-12T11:19:22.000Z</time>
      </trkpt>
      <trkpt lat="42.4485418014228343963623046875" lon="1.22636605985462665557861328125">
        <ele>1349</ele>
        <time>2020-08-12T11:19:27.000Z</time>
      </trkpt>
      <trkpt lat="42.4485682882368564605712890625" lon="1.22622943483293056488037109375">
        <ele>1348.4000244140625</ele>
        <time>2020-08-12T11:19:30.000Z</time>
      </trkpt>
      <trkpt lat="42.44857910089194774627685546875" lon="1.22610722668468952178955078125">
        <ele>1348</ele>
        <time>2020-08-12T11:19:33.000Z</time>
      </trkpt>
      <trkpt lat="42.44853216223418712615966796875" lon="1.22592600993812084197998046875">
        <ele>1347.4000244140625</ele>
        <time>2020-08-12T11:19:38.000Z</time>
      </trkpt>
      <trkpt lat="42.44849226437509059906005859375" lon="1.22579307295382022857666015625">
        <ele>1346.4000244140625</ele>
        <time>2020-08-12T11:19:41.000Z</time>
      </trkpt>
      <trkpt lat="42.4485022388398647308349609375" lon="1.22569684870541095733642578125">
        <ele>1345</ele>
        <time>2020-08-12T11:19:43.000Z</time>
      </trkpt>
      <trkpt lat="42.44858144782483577728271484375" lon="1.22557749040424823760986328125">
        <ele>1344.199951171875</ele>
        <time>2020-08-12T11:19:47.000Z</time>
      </trkpt>
      <trkpt lat="42.4486841261386871337890625" lon="1.22545913793146610260009765625">
        <ele>1343.800048828125</ele>
        <time>2020-08-12T11:19:51.000Z</time>
      </trkpt>
      <trkpt lat="42.448761574923992156982421875" lon="1.2253673560917377471923828125">
        <ele>1343</ele>
        <time>2020-08-12T11:19:54.000Z</time>
      </trkpt>
      <trkpt lat="42.4487858824431896209716796875" lon="1.22533692978322505950927734375">
        <ele>1342.5999755859375</ele>
        <time>2020-08-12T11:19:55.000Z</time>
      </trkpt>
      <trkpt lat="42.44888084940612316131591796875" lon="1.2252449803054332733154296875">
        <ele>1341.800048828125</ele>
        <time>2020-08-12T11:19:59.000Z</time>
      </trkpt>
      <trkpt lat="42.44894706644117832183837890625" lon="1.2252104468643665313720703125">
        <ele>1341.800048828125</ele>
        <time>2020-08-12T11:20:01.000Z</time>
      </trkpt>
      <trkpt lat="42.4490789137780666351318359375" lon="1.2251631729304790496826171875">
        <ele>1340.800048828125</ele>
        <time>2020-08-12T11:20:05.000Z</time>
      </trkpt>
      <trkpt lat="42.4491040594875812530517578125" lon="1.225155293941497802734375">
        <ele>1340.5999755859375</ele>
        <time>2020-08-12T11:20:06.000Z</time>
      </trkpt>
      <trkpt lat="42.449211515486240386962890625" lon="1.2251534499228000640869140625">
        <ele>1339.4000244140625</ele>
        <time>2020-08-12T11:20:10.000Z</time>
      </trkpt>
      <trkpt lat="42.449335567653179168701171875" lon="1.22514029033482074737548828125">
        <ele>1338</ele>
        <time>2020-08-12T11:20:14.000Z</time>
      </trkpt>
      <trkpt lat="42.44937504641711711883544921875" lon="1.2251370213925838470458984375">
        <ele>1337</ele>
        <time>2020-08-12T11:20:16.000Z</time>
      </trkpt>
      <trkpt lat="42.44939080439507961273193359375" lon="1.22513341717422008514404296875">
        <ele>1336.199951171875</ele>
        <time>2020-08-12T11:20:21.000Z</time>
      </trkpt>
      <trkpt lat="42.44939030148088932037353515625" lon="1.22513241134583950042724609375">
        <ele>1336.199951171875</ele>
        <time>2020-08-12T11:20:29.000Z</time>
      </trkpt>
      <trkpt lat="42.44937404058873653411865234375" lon="1.22514188289642333984375">
        <ele>1338</ele>
        <time>2020-08-12T11:49:01.000Z</time>
      </trkpt>
      <trkpt lat="42.44938376359641551971435546875" lon="1.22513291426002979278564453125">
        <ele>1338</ele>
        <time>2020-08-12T11:49:05.000Z</time>
      </trkpt>
      <trkpt lat="42.44940186850726604461669921875" lon="1.2251249514520168304443359375">
        <ele>1338.199951171875</ele>
        <time>2020-08-12T11:49:06.000Z</time>
      </trkpt>
      <trkpt lat="42.44955626316368579864501953125" lon="1.22514129616320133209228515625">
        <ele>1336.800048828125</ele>
        <time>2020-08-12T11:49:10.000Z</time>
      </trkpt>
      <trkpt lat="42.4497052095830440521240234375" lon="1.22517968527972698211669921875">
        <ele>1335.5999755859375</ele>
        <time>2020-08-12T11:49:13.000Z</time>
      </trkpt>
      <trkpt lat="42.44985080324113368988037109375" lon="1.22521153651177883148193359375">
        <ele>1334.800048828125</ele>
        <time>2020-08-12T11:49:16.000Z</time>
      </trkpt>
      <trkpt lat="42.4500569142401218414306640625" lon="1.22517331503331661224365234375">
        <ele>1333.5999755859375</ele>
        <time>2020-08-12T11:49:20.000Z</time>
      </trkpt>
      <trkpt lat="42.4501095525920391082763671875" lon="1.22515755705535411834716796875">
        <ele>1333.4000244140625</ele>
        <time>2020-08-12T11:49:21.000Z</time>
      </trkpt>
      <trkpt lat="42.450262606143951416015625" lon="1.225101985037326812744140625">
        <ele>1333.4000244140625</ele>
        <time>2020-08-12T11:49:24.000Z</time>
      </trkpt>
      <trkpt lat="42.4504203535616397857666015625" lon="1.22501623816788196563720703125">
        <ele>1332.5999755859375</ele>
        <time>2020-08-12T11:49:27.000Z</time>
      </trkpt>
      <trkpt lat="42.45070508681237697601318359375" lon="1.22484139166772365570068359375">
        <ele>1331.4000244140625</ele>
        <time>2020-08-12T11:49:32.000Z</time>
      </trkpt>
      <trkpt lat="42.450886555016040802001953125" lon="1.2247367016971111297607421875">
        <ele>1330.4000244140625</ele>
        <time>2020-08-12T11:49:35.000Z</time>
      </trkpt>
      <trkpt lat="42.45094799436628818511962890625" lon="1.22470258735120296478271484375">
        <ele>1329.800048828125</ele>
        <time>2020-08-12T11:49:36.000Z</time>
      </trkpt>
      <trkpt lat="42.45110691525042057037353515625" lon="1.2245942093431949615478515625">
        <ele>1328.5999755859375</ele>
        <time>2020-08-12T11:49:39.000Z</time>
      </trkpt>
      <trkpt lat="42.4511445499956607818603515625" lon="1.224568895995616912841796875">
        <ele>1328</ele>
        <time>2020-08-12T11:49:40.000Z</time>
      </trkpt>
      <trkpt lat="42.451179586350917816162109375" lon="1.22454978525638580322265625">
        <ele>1327.199951171875</ele>
        <time>2020-08-12T11:49:41.000Z</time>
      </trkpt>
      <trkpt lat="42.451238594949245452880859375" lon="1.22452162206172943115234375">
        <ele>1325.800048828125</ele>
        <time>2020-08-12T11:49:43.000Z</time>
      </trkpt>
      <trkpt lat="42.4512917362153530120849609375" lon="1.22450762428343296051025390625">
        <ele>1324.800048828125</ele>
        <time>2020-08-12T11:49:45.000Z</time>
      </trkpt>
      <trkpt lat="42.4513282813131809234619140625" lon="1.22450544498860836029052734375">
        <ele>1323.5999755859375</ele>
        <time>2020-08-12T11:49:48.000Z</time>
      </trkpt>
      <trkpt lat="42.4513430334627628326416015625" lon="1.22450192458927631378173828125">
        <ele>1323.4000244140625</ele>
        <time>2020-08-12T11:49:49.000Z</time>
      </trkpt>
      <trkpt lat="42.45147203095257282257080078125" lon="1.2244309298694133758544921875">
        <ele>1322.5999755859375</ele>
        <time>2020-08-12T11:49:53.000Z</time>
      </trkpt>
      <trkpt lat="42.45151243172585964202880859375" lon="1.2244082987308502197265625">
        <ele>1322.199951171875</ele>
        <time>2020-08-12T11:49:54.000Z</time>
      </trkpt>
      <trkpt lat="42.45162743143737316131591796875" lon="1.22434652410447597503662109375">
        <ele>1320.800048828125</ele>
        <time>2020-08-12T11:49:57.000Z</time>
      </trkpt>
      <trkpt lat="42.4517203867435455322265625" lon="1.22431132011115550994873046875">
        <ele>1320</ele>
        <time>2020-08-12T11:49:59.000Z</time>
      </trkpt>
      <trkpt lat="42.451767660677433013916015625" lon="1.22429153881967067718505859375">
        <ele>1319.5999755859375</ele>
        <time>2020-08-12T11:50:00.000Z</time>
      </trkpt>
      <trkpt lat="42.45191417634487152099609375" lon="1.2242339551448822021484375">
        <ele>1318.4000244140625</ele>
        <time>2020-08-12T11:50:03.000Z</time>
      </trkpt>
      <trkpt lat="42.45206111110746860504150390625" lon="1.22419145889580249786376953125">
        <ele>1317.4000244140625</ele>
        <time>2020-08-12T11:50:06.000Z</time>
      </trkpt>
      <trkpt lat="42.45220645330846309661865234375" lon="1.22413337230682373046875">
        <ele>1316.199951171875</ele>
        <time>2020-08-12T11:50:09.000Z</time>
      </trkpt>
      <trkpt lat="42.45235263369977474212646484375" lon="1.22404695488512516021728515625">
        <ele>1315.199951171875</ele>
        <time>2020-08-12T11:50:12.000Z</time>
      </trkpt>
      <trkpt lat="42.45240108110010623931884765625" lon="1.2240061350166797637939453125">
        <ele>1314.800048828125</ele>
        <time>2020-08-12T11:50:13.000Z</time>
      </trkpt>
      <trkpt lat="42.452491186559200286865234375" lon="1.22390630654990673065185546875">
        <ele>1313.800048828125</ele>
        <time>2020-08-12T11:50:15.000Z</time>
      </trkpt>
      <trkpt lat="42.4526244588196277618408203125" lon="1.22375451028347015380859375">
        <ele>1312.4000244140625</ele>
        <time>2020-08-12T11:50:18.000Z</time>
      </trkpt>
      <trkpt lat="42.4527776800096035003662109375" lon="1.22361637651920318603515625">
        <ele>1311</ele>
        <time>2020-08-12T11:50:21.000Z</time>
      </trkpt>
      <trkpt lat="42.45293886400759220123291015625" lon="1.2234844453632831573486328125">
        <ele>1309.5999755859375</ele>
        <time>2020-08-12T11:50:24.000Z</time>
      </trkpt>
      <trkpt lat="42.453048415482044219970703125" lon="1.223406158387660980224609375">
        <ele>1308.800048828125</ele>
        <time>2020-08-12T11:50:26.000Z</time>
      </trkpt>
      <trkpt lat="42.453102730214595794677734375" lon="1.223362572491168975830078125">
        <ele>1308.4000244140625</ele>
        <time>2020-08-12T11:50:27.000Z</time>
      </trkpt>
      <trkpt lat="42.4531531892716884613037109375" lon="1.223313622176647186279296875">
        <ele>1308</ele>
        <time>2020-08-12T11:50:28.000Z</time>
      </trkpt>
      <trkpt lat="42.45323038659989833831787109375" lon="1.2231890670955181121826171875">
        <ele>1307.199951171875</ele>
        <time>2020-08-12T11:50:30.000Z</time>
      </trkpt>
      <trkpt lat="42.453277073800563812255859375" lon="1.22303760610520839691162109375">
        <ele>1306.5999755859375</ele>
        <time>2020-08-12T11:50:32.000Z</time>
      </trkpt>
      <trkpt lat="42.45332895778119564056396484375" lon="1.22280106879770755767822265625">
        <ele>1306</ele>
        <time>2020-08-12T11:50:35.000Z</time>
      </trkpt>
      <trkpt lat="42.45338444598019123077392578125" lon="1.22256754897534847259521484375">
        <ele>1304.800048828125</ele>
        <time>2020-08-12T11:50:38.000Z</time>
      </trkpt>
      <trkpt lat="42.45343222282826900482177734375" lon="1.22234978713095188140869140625">
        <ele>1304.199951171875</ele>
        <time>2020-08-12T11:50:41.000Z</time>
      </trkpt>
      <trkpt lat="42.45345510542392730712890625" lon="1.2222777865827083587646484375">
        <ele>1304</ele>
        <time>2020-08-12T11:50:42.000Z</time>
      </trkpt>
      <trkpt lat="42.45348385535180568695068359375" lon="1.22221031226217746734619140625">
        <ele>1303.800048828125</ele>
        <time>2020-08-12T11:50:43.000Z</time>
      </trkpt>
      <trkpt lat="42.4535576999187469482421875" lon="1.22209195978939533233642578125">
        <ele>1303.199951171875</ele>
        <time>2020-08-12T11:50:45.000Z</time>
      </trkpt>
      <trkpt lat="42.45365752838551998138427734375" lon="1.22201216407120227813720703125">
        <ele>1302.5999755859375</ele>
        <time>2020-08-12T11:50:47.000Z</time>
      </trkpt>
      <trkpt lat="42.453775294125080108642578125" lon="1.2219760380685329437255859375">
        <ele>1302</ele>
        <time>2020-08-12T11:50:49.000Z</time>
      </trkpt>
      <trkpt lat="42.45383891277015209197998046875" lon="1.22196589596569538116455078125">
        <ele>1301.5999755859375</ele>
        <time>2020-08-12T11:50:50.000Z</time>
      </trkpt>
      <trkpt lat="42.4540332891047000885009765625" lon="1.2219616211950778961181640625">
        <ele>1300.199951171875</ele>
        <time>2020-08-12T11:50:53.000Z</time>
      </trkpt>
      <trkpt lat="42.4540993385016918182373046875" lon="1.22196807526051998138427734375">
        <ele>1299.800048828125</ele>
        <time>2020-08-12T11:50:54.000Z</time>
      </trkpt>
      <trkpt lat="42.45416496880352497100830078125" lon="1.22197561897337436676025390625">
        <ele>1299.199951171875</ele>
        <time>2020-08-12T11:50:55.000Z</time>
      </trkpt>
      <trkpt lat="42.4543595127761363983154296875" lon="1.22199623845517635345458984375">
        <ele>1297.800048828125</ele>
        <time>2020-08-12T11:50:58.000Z</time>
      </trkpt>
      <trkpt lat="42.45448800735175609588623046875" lon="1.2220082245767116546630859375">
        <ele>1296.5999755859375</ele>
        <time>2020-08-12T11:51:00.000Z</time>
      </trkpt>
      <trkpt lat="42.45461557991802692413330078125" lon="1.22202691622078418731689453125">
        <ele>1295.5999755859375</ele>
        <time>2020-08-12T11:51:02.000Z</time>
      </trkpt>
      <trkpt lat="42.45467877946794033050537109375" lon="1.22204334475100040435791015625">
        <ele>1294.800048828125</ele>
        <time>2020-08-12T11:51:03.000Z</time>
      </trkpt>
      <trkpt lat="42.45474214665591716766357421875" lon="1.2220625393092632293701171875">
        <ele>1294</ele>
        <time>2020-08-12T11:51:04.000Z</time>
      </trkpt>
      <trkpt lat="42.454870305955410003662109375" lon="1.22210067696869373321533203125">
        <ele>1292.5999755859375</ele>
        <time>2020-08-12T11:51:06.000Z</time>
      </trkpt>
      <trkpt lat="42.45500064454972743988037109375" lon="1.22211576439440250396728515625">
        <ele>1291.5999755859375</ele>
        <time>2020-08-12T11:51:08.000Z</time>
      </trkpt>
      <trkpt lat="42.4550642631947994232177734375" lon="1.22212112881243228912353515625">
        <ele>1291</ele>
        <time>2020-08-12T11:51:09.000Z</time>
      </trkpt>
      <trkpt lat="42.4551858007907867431640625" lon="1.222134120762348175048828125">
        <ele>1290.4000244140625</ele>
        <time>2020-08-12T11:51:11.000Z</time>
      </trkpt>
      <trkpt lat="42.455361820757389068603515625" lon="1.222148872911930084228515625">
        <ele>1289.199951171875</ele>
        <time>2020-08-12T11:51:14.000Z</time>
      </trkpt>
      <trkpt lat="42.4554196558892726898193359375" lon="1.2221480347216129302978515625">
        <ele>1289</ele>
        <time>2020-08-12T11:51:15.000Z</time>
      </trkpt>
      <trkpt lat="42.4555923230946063995361328125" lon="1.22214091010391712188720703125">
        <ele>1288</ele>
        <time>2020-08-12T11:51:18.000Z</time>
      </trkpt>
      <trkpt lat="42.45564940385520458221435546875" lon="1.22213319875299930572509765625">
        <ele>1287.800048828125</ele>
        <time>2020-08-12T11:51:19.000Z</time>
      </trkpt>
      <trkpt lat="42.45575920678675174713134765625" lon="1.22208307497203350067138671875">
        <ele>1287.199951171875</ele>
        <time>2020-08-12T11:51:21.000Z</time>
      </trkpt>
      <trkpt lat="42.45586431585252285003662109375" lon="1.2219974957406520843505859375">
        <ele>1287</ele>
        <time>2020-08-12T11:51:23.000Z</time>
      </trkpt>
      <trkpt lat="42.4559148587286472320556640625" lon="1.2219502218067646026611328125">
        <ele>1286.800048828125</ele>
        <time>2020-08-12T11:51:24.000Z</time>
      </trkpt>
      <trkpt lat="42.456016950309276580810546875" lon="1.2218570150434970855712890625">
        <ele>1286</ele>
        <time>2020-08-12T11:51:26.000Z</time>
      </trkpt>
      <trkpt lat="42.4560682475566864013671875" lon="1.221810244023799896240234375">
        <ele>1285.4000244140625</ele>
        <time>2020-08-12T11:51:27.000Z</time>
      </trkpt>
      <trkpt lat="42.4561165273189544677734375" lon="1.22175668366253376007080078125">
        <ele>1285</ele>
        <time>2020-08-12T11:51:28.000Z</time>
      </trkpt>
      <trkpt lat="42.456299252808094024658203125" lon="1.22150355018675327301025390625">
        <ele>1283.800048828125</ele>
        <time>2020-08-12T11:51:32.000Z</time>
      </trkpt>
      <trkpt lat="42.45644954033195972442626953125" lon="1.22132577002048492431640625">
        <ele>1282.4000244140625</ele>
        <time>2020-08-12T11:51:35.000Z</time>
      </trkpt>
      <trkpt lat="42.45650184340775012969970703125" lon="1.2212716229259967803955078125">
        <ele>1282</ele>
        <time>2020-08-12T11:51:36.000Z</time>
      </trkpt>
      <trkpt lat="42.456614412367343902587890625" lon="1.22118361294269561767578125">
        <ele>1281.4000244140625</ele>
        <time>2020-08-12T11:51:38.000Z</time>
      </trkpt>
      <trkpt lat="42.45681189000606536865234375" lon="1.2211076728999614715576171875">
        <ele>1280.5999755859375</ele>
        <time>2020-08-12T11:51:41.000Z</time>
      </trkpt>
      <trkpt lat="42.4568809568881988525390625" lon="1.2210912443697452545166015625">
        <ele>1279.800048828125</ele>
        <time>2020-08-12T11:51:42.000Z</time>
      </trkpt>
      <trkpt lat="42.457014061510562896728515625" lon="1.2210587225854396820068359375">
        <ele>1278.4000244140625</ele>
        <time>2020-08-12T11:51:44.000Z</time>
      </trkpt>
      <trkpt lat="42.45721866376698017120361328125" lon="1.220987141132354736328125">
        <ele>1277</ele>
        <time>2020-08-12T11:51:47.000Z</time>
      </trkpt>
      <trkpt lat="42.45735512115061283111572265625" lon="1.2209366820752620697021484375">
        <ele>1276.199951171875</ele>
        <time>2020-08-12T11:51:49.000Z</time>
      </trkpt>
      <trkpt lat="42.4574222601950168609619140625" lon="1.22091597877442836761474609375">
        <ele>1275.800048828125</ele>
        <time>2020-08-12T11:51:50.000Z</time>
      </trkpt>
      <trkpt lat="42.457563914358615875244140625" lon="1.22089250944554805755615234375">
        <ele>1274.5999755859375</ele>
        <time>2020-08-12T11:51:52.000Z</time>
      </trkpt>
      <trkpt lat="42.45770481415092945098876953125" lon="1.22090592049062252044677734375">
        <ele>1273.800048828125</ele>
        <time>2020-08-12T11:51:54.000Z</time>
      </trkpt>
      <trkpt lat="42.457772791385650634765625" lon="1.22091782279312610626220703125">
        <ele>1273.199951171875</ele>
        <time>2020-08-12T11:51:55.000Z</time>
      </trkpt>
      <trkpt lat="42.4579055607318878173828125" lon="1.22092134319245815277099609375">
        <ele>1272</ele>
        <time>2020-08-12T11:51:57.000Z</time>
      </trkpt>
      <trkpt lat="42.4579699337482452392578125" lon="1.22091145254671573638916015625">
        <ele>1271.5999755859375</ele>
        <time>2020-08-12T11:51:58.000Z</time>
      </trkpt>
      <trkpt lat="42.45803137309849262237548828125" lon="1.2208924256265163421630859375">
        <ele>1271.199951171875</ele>
        <time>2020-08-12T11:51:59.000Z</time>
      </trkpt>
      <trkpt lat="42.45808602310717105865478515625" lon="1.22085772454738616943359375">
        <ele>1270.5999755859375</ele>
        <time>2020-08-12T11:52:00.000Z</time>
      </trkpt>
      <trkpt lat="42.458170093595981597900390625" lon="1.22073459438979625701904296875">
        <ele>1269.800048828125</ele>
        <time>2020-08-12T11:52:02.000Z</time>
      </trkpt>
      <trkpt lat="42.45820236392319202423095703125" lon="1.220654211938381195068359375">
        <ele>1269.4000244140625</ele>
        <time>2020-08-12T11:52:03.000Z</time>
      </trkpt>
      <trkpt lat="42.45823555625975131988525390625" lon="1.2205695547163486480712890625">
        <ele>1269</ele>
        <time>2020-08-12T11:52:04.000Z</time>
      </trkpt>
      <trkpt lat="42.45827327482402324676513671875" lon="1.22048548422753810882568359375">
        <ele>1268.199951171875</ele>
        <time>2020-08-12T11:52:05.000Z</time>
      </trkpt>
      <trkpt lat="42.4583617039024829864501953125" lon="1.2203288264572620391845703125">
        <ele>1267.199951171875</ele>
        <time>2020-08-12T11:52:07.000Z</time>
      </trkpt>
      <trkpt lat="42.458566389977931976318359375" lon="1.220046021044254302978515625">
        <ele>1266</ele>
        <time>2020-08-12T11:52:11.000Z</time>
      </trkpt>
      <trkpt lat="42.45867644436657428741455078125" lon="1.21991182677447795867919921875">
        <ele>1265.5999755859375</ele>
        <time>2020-08-12T11:52:13.000Z</time>
      </trkpt>
      <trkpt lat="42.4588532187044620513916015625" lon="1.21975424699485301971435546875">
        <ele>1265</ele>
        <time>2020-08-12T11:52:16.000Z</time>
      </trkpt>
      <trkpt lat="42.45896226726472377777099609375" lon="1.2196592800319194793701171875">
        <ele>1264.4000244140625</ele>
        <time>2020-08-12T11:52:18.000Z</time>
      </trkpt>
      <trkpt lat="42.4590449966490268707275390625" lon="1.2195677496492862701416015625">
        <ele>1264</ele>
        <time>2020-08-12T11:52:20.000Z</time>
      </trkpt>
      <trkpt lat="42.45911934413015842437744140625" lon="1.2194832600653171539306640625">
        <ele>1263.199951171875</ele>
        <time>2020-08-12T11:52:22.000Z</time>
      </trkpt>
      <trkpt lat="42.45915220119059085845947265625" lon="1.21945484541356563568115234375">
        <ele>1262.800048828125</ele>
        <time>2020-08-12T11:52:23.000Z</time>
      </trkpt>
      <trkpt lat="42.45922696776688098907470703125" lon="1.2194272689521312713623046875">
        <ele>1262</ele>
        <time>2020-08-12T11:52:26.000Z</time>
      </trkpt>
      <trkpt lat="42.4592468328773975372314453125" lon="1.2194198928773403167724609375">
        <ele>1261.800048828125</ele>
        <time>2020-08-12T11:52:28.000Z</time>
      </trkpt>
      <trkpt lat="42.45924624614417552947998046875" lon="1.21941796503961086273193359375">
        <ele>1261.5999755859375</ele>
        <time>2020-08-12T11:52:31.000Z</time>
      </trkpt>
      <trkpt lat="42.4592562206089496612548828125" lon="1.21939583681523799896240234375">
        <ele>1261.4000244140625</ele>
        <time>2020-08-12T11:52:46.000Z</time>
      </trkpt>
      <trkpt lat="42.45925865136086940765380859375" lon="1.219394244253635406494140625">
        <ele>1261.4000244140625</ele>
        <time>2020-08-12T11:52:54.000Z</time>
      </trkpt>
      <trkpt lat="42.459257729351520538330078125" lon="1.21939198113977909088134765625">
        <ele>1261</ele>
        <time>2020-08-12T11:53:04.000Z</time>
      </trkpt>
      <trkpt lat="42.45925814844667911529541015625" lon="1.2193920649588108062744140625">
        <ele>1261</ele>
        <time>2020-08-12T11:53:20.000Z</time>
      </trkpt>
      <trkpt lat="42.459257058799266815185546875" lon="1.21938594616949558258056640625">
        <ele>1261</ele>
        <time>2020-08-12T11:53:28.000Z</time>
      </trkpt>
      <trkpt lat="42.45927306823432445526123046875" lon="1.21929466724395751953125">
        <ele>1261</ele>
        <time>2020-08-12T11:53:33.000Z</time>
      </trkpt>
      <trkpt lat="42.45936124585568904876708984375" lon="1.21909492649137973785400390625">
        <ele>1260.199951171875</ele>
        <time>2020-08-12T11:53:38.000Z</time>
      </trkpt>
      <trkpt lat="42.4593883194029331207275390625" lon="1.21904714964330196380615234375">
        <ele>1260</ele>
        <time>2020-08-12T11:53:39.000Z</time>
      </trkpt>
      <trkpt lat="42.45941363275051116943359375" lon="1.21899300254881381988525390625">
        <ele>1259.5999755859375</ele>
        <time>2020-08-12T11:53:40.000Z</time>
      </trkpt>
      <trkpt lat="42.45944707654416561126708984375" lon="1.2188609875738620758056640625">
        <ele>1259.199951171875</ele>
        <time>2020-08-12T11:53:42.000Z</time>
      </trkpt>
      <trkpt lat="42.4594563804566860198974609375" lon="1.218787394464015960693359375">
        <ele>1258.5999755859375</ele>
        <time>2020-08-12T11:53:43.000Z</time>
      </trkpt>
      <trkpt lat="42.45946266688406467437744140625" lon="1.21871505863964557647705078125">
        <ele>1258.4000244140625</ele>
        <time>2020-08-12T11:53:44.000Z</time>
      </trkpt>
      <trkpt lat="42.45946995913982391357421875" lon="1.2185756675899028778076171875">
        <ele>1257.4000244140625</ele>
        <time>2020-08-12T11:53:46.000Z</time>
      </trkpt>
      <trkpt lat="42.459472306072711944580078125" lon="1.21842688880860805511474609375">
        <ele>1256.5999755859375</ele>
        <time>2020-08-12T11:53:48.000Z</time>
      </trkpt>
      <trkpt lat="42.4594666063785552978515625" lon="1.21827132068574428558349609375">
        <ele>1256</ele>
        <time>2020-08-12T11:53:50.000Z</time>
      </trkpt>
      <trkpt lat="42.4594570510089397430419921875" lon="1.2181099690496921539306640625">
        <ele>1254.800048828125</ele>
        <time>2020-08-12T11:53:52.000Z</time>
      </trkpt>
      <trkpt lat="42.45944447815418243408203125" lon="1.21802841313183307647705078125">
        <ele>1254.4000244140625</ele>
        <time>2020-08-12T11:53:53.000Z</time>
      </trkpt>
      <trkpt lat="42.459425367414951324462890625" lon="1.21794811449944972991943359375">
        <ele>1254.199951171875</ele>
        <time>2020-08-12T11:53:54.000Z</time>
      </trkpt>
      <trkpt lat="42.45940064080059528350830078125" lon="1.2178729288280010223388671875">
        <ele>1253.800048828125</ele>
        <time>2020-08-12T11:53:55.000Z</time>
      </trkpt>
      <trkpt lat="42.45933123864233493804931640625" lon="1.21775700710713863372802734375">
        <ele>1252.800048828125</ele>
        <time>2020-08-12T11:53:57.000Z</time>
      </trkpt>
      <trkpt lat="42.4592887423932552337646484375" lon="1.21771811507642269134521484375">
        <ele>1252.4000244140625</ele>
        <time>2020-08-12T11:53:58.000Z</time>
      </trkpt>
      <trkpt lat="42.45918874628841876983642578125" lon="1.21765114367008209228515625">
        <ele>1250.800048828125</ele>
        <time>2020-08-12T11:54:00.000Z</time>
      </trkpt>
      <trkpt lat="42.45913543738424777984619140625" lon="1.2176140956580638885498046875">
        <ele>1250.4000244140625</ele>
        <time>2020-08-12T11:54:01.000Z</time>
      </trkpt>
      <trkpt lat="42.45901934802532196044921875" lon="1.2175405025482177734375">
        <ele>1249.800048828125</ele>
        <time>2020-08-12T11:54:03.000Z</time>
      </trkpt>
      <trkpt lat="42.4588186852633953094482421875" lon="1.2174291908740997314453125">
        <ele>1248.199951171875</ele>
        <time>2020-08-12T11:54:06.000Z</time>
      </trkpt>
      <trkpt lat="42.45868298225104808807373046875" lon="1.21733355335891246795654296875">
        <ele>1246.800048828125</ele>
        <time>2020-08-12T11:54:08.000Z</time>
      </trkpt>
      <trkpt lat="42.45854250155389308929443359375" lon="1.2172335572540760040283203125">
        <ele>1245.5999755859375</ele>
        <time>2020-08-12T11:54:10.000Z</time>
      </trkpt>
      <trkpt lat="42.4584005959331989288330078125" lon="1.21710958890616893768310546875">
        <ele>1244.199951171875</ele>
        <time>2020-08-12T11:54:12.000Z</time>
      </trkpt>
      <trkpt lat="42.458263300359249114990234375" lon="1.21699425391852855682373046875">
        <ele>1243</ele>
        <time>2020-08-12T11:54:14.000Z</time>
      </trkpt>
      <trkpt lat="42.45819297619163990020751953125" lon="1.21694748289883136749267578125">
        <ele>1242.5999755859375</ele>
        <time>2020-08-12T11:54:15.000Z</time>
      </trkpt>
      <trkpt lat="42.4581226520240306854248046875" lon="1.216891743242740631103515625">
        <ele>1241.800048828125</ele>
        <time>2020-08-12T11:54:16.000Z</time>
      </trkpt>
      <trkpt lat="42.4579888768494129180908203125" lon="1.2167946808040142059326171875">
        <ele>1240.4000244140625</ele>
        <time>2020-08-12T11:54:18.000Z</time>
      </trkpt>
      <trkpt lat="42.45786071754992008209228515625" lon="1.216703988611698150634765625">
        <ele>1239.199951171875</ele>
        <time>2020-08-12T11:54:20.000Z</time>
      </trkpt>
      <trkpt lat="42.45779399760067462921142578125" lon="1.21665730141103267669677734375">
        <ele>1238.4000244140625</ele>
        <time>2020-08-12T11:54:21.000Z</time>
      </trkpt>
      <trkpt lat="42.457728870213031768798828125" lon="1.21660700999200344085693359375">
        <ele>1237.800048828125</ele>
        <time>2020-08-12T11:54:22.000Z</time>
      </trkpt>
      <trkpt lat="42.4576683528721332550048828125" lon="1.21655051596462726593017578125">
        <ele>1236.5999755859375</ele>
        <time>2020-08-12T11:54:23.000Z</time>
      </trkpt>
      <trkpt lat="42.45755754411220550537109375" lon="1.2164168246090412139892578125">
        <ele>1235.5999755859375</ele>
        <time>2020-08-12T11:54:25.000Z</time>
      </trkpt>
      <trkpt lat="42.45750733651220798492431640625" lon="1.2163393758237361907958984375">
        <ele>1235.199951171875</ele>
        <time>2020-08-12T11:54:26.000Z</time>
      </trkpt>
      <trkpt lat="42.45742586441338062286376953125" lon="1.2161657027900218963623046875">
        <ele>1234</ele>
        <time>2020-08-12T11:54:28.000Z</time>
      </trkpt>
      <trkpt lat="42.45736065320670604705810546875" lon="1.2159742601215839385986328125">
        <ele>1232.4000244140625</ele>
        <time>2020-08-12T11:54:30.000Z</time>
      </trkpt>
      <trkpt lat="42.45731212198734283447265625" lon="1.21577032841742038726806640625">
        <ele>1231</ele>
        <time>2020-08-12T11:54:32.000Z</time>
      </trkpt>
      <trkpt lat="42.4572884850203990936279296875" lon="1.21556103229522705078125">
        <ele>1230</ele>
        <time>2020-08-12T11:54:34.000Z</time>
      </trkpt>
      <trkpt lat="42.4572700448334217071533203125" lon="1.215347461402416229248046875">
        <ele>1228.4000244140625</ele>
        <time>2020-08-12T11:54:36.000Z</time>
      </trkpt>
      <trkpt lat="42.45722855441272258758544921875" lon="1.21514621190726757049560546875">
        <ele>1227</ele>
        <time>2020-08-12T11:54:38.000Z</time>
      </trkpt>
      <trkpt lat="42.4571962840855121612548828125" lon="1.21505434624850749969482421875">
        <ele>1226.199951171875</ele>
        <time>2020-08-12T11:54:39.000Z</time>
      </trkpt>
      <trkpt lat="42.45715915225446224212646484375" lon="1.2149640731513500213623046875">
        <ele>1225.4000244140625</ele>
        <time>2020-08-12T11:54:40.000Z</time>
      </trkpt>
      <trkpt lat="42.45711908675730228424072265625" lon="1.2148785777390003204345703125">
        <ele>1224.5999755859375</ele>
        <time>2020-08-12T11:54:41.000Z</time>
      </trkpt>
      <trkpt lat="42.4570782668888568878173828125" lon="1.21479584835469722747802734375">
        <ele>1224</ele>
        <time>2020-08-12T11:54:42.000Z</time>
      </trkpt>
      <trkpt lat="42.45703987777233123779296875" lon="1.21470867656171321868896484375">
        <ele>1223.199951171875</ele>
        <time>2020-08-12T11:54:43.000Z</time>
      </trkpt>
      <trkpt lat="42.4570061825215816497802734375" lon="1.21461848728358745574951171875">
        <ele>1222.199951171875</ele>
        <time>2020-08-12T11:54:44.000Z</time>
      </trkpt>
      <trkpt lat="42.4569488503038883209228515625" lon="1.21444766409695148468017578125">
        <ele>1221</ele>
        <time>2020-08-12T11:54:46.000Z</time>
      </trkpt>
      <trkpt lat="42.45693015865981578826904296875" lon="1.21437272988259792327880859375">
        <ele>1219.800048828125</ele>
        <time>2020-08-12T11:54:47.000Z</time>
      </trkpt>
      <trkpt lat="42.45691649615764617919921875" lon="1.214303076267242431640625">
        <ele>1219</ele>
        <time>2020-08-12T11:54:48.000Z</time>
      </trkpt>
      <trkpt lat="42.45690652169287204742431640625" lon="1.21423928998410701751708984375">
        <ele>1218.199951171875</ele>
        <time>2020-08-12T11:54:49.000Z</time>
      </trkpt>
      <trkpt lat="42.4569332599639892578125" lon="1.2141356058418750762939453125">
        <ele>1216.800048828125</ele>
        <time>2020-08-12T11:54:51.000Z</time>
      </trkpt>
      <trkpt lat="42.45700760744512081146240234375" lon="1.21410601772367954254150390625">
        <ele>1215.5999755859375</ele>
        <time>2020-08-12T11:54:53.000Z</time>
      </trkpt>
      <trkpt lat="42.457063682377338409423828125" lon="1.214201487600803375244140625">
        <ele>1214.5999755859375</ele>
        <time>2020-08-12T11:54:55.000Z</time>
      </trkpt>
      <trkpt lat="42.45708840899169445037841796875" lon="1.2142700515687465667724609375">
        <ele>1214</ele>
        <time>2020-08-12T11:54:56.000Z</time>
      </trkpt>
      <trkpt lat="42.4571171589195728302001953125" lon="1.21434339322149753570556640625">
        <ele>1213.4000244140625</ele>
        <time>2020-08-12T11:54:57.000Z</time>
      </trkpt>
      <trkpt lat="42.4571907520294189453125" lon="1.2144993804395198822021484375">
        <ele>1211.800048828125</ele>
        <time>2020-08-12T11:54:59.000Z</time>
      </trkpt>
      <trkpt lat="42.45723760686814785003662109375" lon="1.2145677767693996429443359375">
        <ele>1211</ele>
        <time>2020-08-12T11:55:00.000Z</time>
      </trkpt>
      <trkpt lat="42.45729024522006511688232421875" lon="1.21463307179510593414306640625">
        <ele>1210.4000244140625</ele>
        <time>2020-08-12T11:55:01.000Z</time>
      </trkpt>
      <trkpt lat="42.4574021436274051666259765625" lon="1.214769445359706878662109375">
        <ele>1208.800048828125</ele>
        <time>2020-08-12T11:55:03.000Z</time>
      </trkpt>
      <trkpt lat="42.45745084248483180999755859375" lon="1.21484295465052127838134765625">
        <ele>1208.199951171875</ele>
        <time>2020-08-12T11:55:04.000Z</time>
      </trkpt>
      <trkpt lat="42.457494176924228668212890625" lon="1.21491855941712856292724609375">
        <ele>1207.4000244140625</ele>
        <time>2020-08-12T11:55:05.000Z</time>
      </trkpt>
      <trkpt lat="42.4575681053102016448974609375" lon="1.2150822579860687255859375">
        <ele>1206.4000244140625</ele>
        <time>2020-08-12T11:55:07.000Z</time>
      </trkpt>
      <trkpt lat="42.457643710076808929443359375" lon="1.21525458991527557373046875">
        <ele>1205.4000244140625</ele>
        <time>2020-08-12T11:55:09.000Z</time>
      </trkpt>
      <trkpt lat="42.45772845111787319183349609375" lon="1.2154175341129302978515625">
        <ele>1203.5999755859375</ele>
        <time>2020-08-12T11:55:11.000Z</time>
      </trkpt>
      <trkpt lat="42.457815706729888916015625" lon="1.21557645499706268310546875">
        <ele>1202.199951171875</ele>
        <time>2020-08-12T11:55:13.000Z</time>
      </trkpt>
      <trkpt lat="42.4579147808253765106201171875" lon="1.21573965065181255340576171875">
        <ele>1201.199951171875</ele>
        <time>2020-08-12T11:55:15.000Z</time>
      </trkpt>
      <trkpt lat="42.45802223682403564453125" lon="1.2158894352614879608154296875">
        <ele>1199.800048828125</ele>
        <time>2020-08-12T11:55:17.000Z</time>
      </trkpt>
      <trkpt lat="42.45813966728746891021728515625" lon="1.2160238809883594512939453125">
        <ele>1197.800048828125</ele>
        <time>2020-08-12T11:55:19.000Z</time>
      </trkpt>
      <trkpt lat="42.45820487849414348602294921875" lon="1.2160798721015453338623046875">
        <ele>1197</ele>
        <time>2020-08-12T11:55:20.000Z</time>
      </trkpt>
      <trkpt lat="42.4582718499004840850830078125" lon="1.2161301635205745697021484375">
        <ele>1196.4000244140625</ele>
        <time>2020-08-12T11:55:21.000Z</time>
      </trkpt>
      <trkpt lat="42.45848315767943859100341796875" lon="1.21626310050487518310546875">
        <ele>1195.199951171875</ele>
        <time>2020-08-12T11:55:24.000Z</time>
      </trkpt>
      <trkpt lat="42.45862464420497417449951171875" lon="1.21632755734026432037353515625">
        <ele>1194.800048828125</ele>
        <time>2020-08-12T11:55:26.000Z</time>
      </trkpt>
      <trkpt lat="42.45882849209010601043701171875" lon="1.21640735305845737457275390625">
        <ele>1194</ele>
        <time>2020-08-12T11:55:29.000Z</time>
      </trkpt>
      <trkpt lat="42.4589621834456920623779296875" lon="1.216443814337253570556640625">
        <ele>1193.5999755859375</ele>
        <time>2020-08-12T11:55:31.000Z</time>
      </trkpt>
      <trkpt lat="42.4590275622904300689697265625" lon="1.21644875966012477874755859375">
        <ele>1193.199951171875</ele>
        <time>2020-08-12T11:55:32.000Z</time>
      </trkpt>
      <trkpt lat="42.45909042656421661376953125" lon="1.21644440107047557830810546875">
        <ele>1193</ele>
        <time>2020-08-12T11:55:33.000Z</time>
      </trkpt>
      <trkpt lat="42.459273152053356170654296875" lon="1.216437779366970062255859375">
        <ele>1192</ele>
        <time>2020-08-12T11:55:36.000Z</time>
      </trkpt>
      <trkpt lat="42.459329478442668914794921875" lon="1.2164500169456005096435546875">
        <ele>1191.4000244140625</ele>
        <time>2020-08-12T11:55:37.000Z</time>
      </trkpt>
      <trkpt lat="42.45944070629775524139404296875" lon="1.21649511158466339111328125">
        <ele>1190.800048828125</ele>
        <time>2020-08-12T11:55:39.000Z</time>
      </trkpt>
      <trkpt lat="42.45958990417420864105224609375" lon="1.21657867915928363800048828125">
        <ele>1190.199951171875</ele>
        <time>2020-08-12T11:55:42.000Z</time>
      </trkpt>
      <trkpt lat="42.4596370942890644073486328125" lon="1.21660776436328887939453125">
        <ele>1189.800048828125</ele>
        <time>2020-08-12T11:55:43.000Z</time>
      </trkpt>
      <trkpt lat="42.459821663796901702880859375" lon="1.21672301553189754486083984375">
        <ele>1188.4000244140625</ele>
        <time>2020-08-12T11:55:47.000Z</time>
      </trkpt>
      <trkpt lat="42.4598929099738597869873046875" lon="1.21677196584641933441162109375">
        <ele>1187.5999755859375</ele>
        <time>2020-08-12T11:55:49.000Z</time>
      </trkpt>
      <trkpt lat="42.459926269948482513427734375" lon="1.216805242002010345458984375">
        <ele>1187.199951171875</ele>
        <time>2020-08-12T11:55:50.000Z</time>
      </trkpt>
      <trkpt lat="42.4599609710276126861572265625" lon="1.216844134032726287841796875">
        <ele>1186.5999755859375</ele>
        <time>2020-08-12T11:55:51.000Z</time>
      </trkpt>
      <trkpt lat="42.459993325173854827880859375" lon="1.21689350344240665435791015625">
        <ele>1186</ele>
        <time>2020-08-12T11:55:52.000Z</time>
      </trkpt>
      <trkpt lat="42.46002391912043094635009765625" lon="1.2169490754604339599609375">
        <ele>1185.4000244140625</ele>
        <time>2020-08-12T11:55:53.000Z</time>
      </trkpt>
      <trkpt lat="42.4600514955818653106689453125" lon="1.217000372707843780517578125">
        <ele>1184.800048828125</ele>
        <time>2020-08-12T11:55:54.000Z</time>
      </trkpt>
      <trkpt lat="42.4601202271878719329833984375" lon="1.21708360500633716583251953125">
        <ele>1183.4000244140625</ele>
        <time>2020-08-12T11:55:57.000Z</time>
      </trkpt>
      <trkpt lat="42.46013154275715351104736328125" lon="1.21709617786109447479248046875">
        <ele>1182.5999755859375</ele>
        <time>2020-08-12T11:56:00.000Z</time>
      </trkpt>
      <trkpt lat="42.4601326324045658111572265625" lon="1.21709617786109447479248046875">
        <ele>1182.4000244140625</ele>
        <time>2020-08-12T11:56:01.000Z</time>
      </trkpt>
      <trkpt lat="42.4601319618523120880126953125" lon="1.21709701605141162872314453125">
        <ele>1182.4000244140625</ele>
        <time>2020-08-12T11:56:03.000Z</time>
      </trkpt>
      <trkpt lat="42.46013523079454898834228515625" lon="1.21709533967077732086181640625">
        <ele>1182.4000244140625</ele>
        <time>2020-08-12T11:56:13.000Z</time>
      </trkpt>
      <trkpt lat="42.460136152803897857666015625" lon="1.21709726750850677490234375">
        <ele>1182.4000244140625</ele>
        <time>2020-08-12T11:56:26.000Z</time>
      </trkpt>
      <trkpt lat="42.4601359851658344268798828125" lon="1.21709860861301422119140625">
        <ele>1182.4000244140625</ele>
        <time>2020-08-12T11:56:34.000Z</time>
      </trkpt>
      <trkpt lat="42.46013590134680271148681640625" lon="1.217097938060760498046875">
        <ele>1182.4000244140625</ele>
        <time>2020-08-12T11:56:49.000Z</time>
      </trkpt>
      <trkpt lat="42.4601436965167522430419921875" lon="1.217108666896820068359375">
        <ele>1182.199951171875</ele>
        <time>2020-08-12T11:57:11.000Z</time>
      </trkpt>
      <trkpt lat="42.46023866347968578338623046875" lon="1.21711126528680324554443359375">
        <ele>1181.800048828125</ele>
        <time>2020-08-12T11:57:15.000Z</time>
      </trkpt>
      <trkpt lat="42.460306473076343536376953125" lon="1.2170082516968250274658203125">
        <ele>1181</ele>
        <time>2020-08-12T11:57:18.000Z</time>
      </trkpt>
      <trkpt lat="42.46025978587567806243896484375" lon="1.21686047874391078948974609375">
        <ele>1179.5999755859375</ele>
        <time>2020-08-12T11:57:21.000Z</time>
      </trkpt>
      <trkpt lat="42.46015115641057491302490234375" lon="1.2167537771165370941162109375">
        <ele>1178.4000244140625</ele>
        <time>2020-08-12T11:57:24.000Z</time>
      </trkpt>
      <trkpt lat="42.460076473653316497802734375" lon="1.21668647043406963348388671875">
        <ele>1177.5999755859375</ele>
        <time>2020-08-12T11:57:26.000Z</time>
      </trkpt>
      <trkpt lat="42.460036911070346832275390625" lon="1.21664925478398799896240234375">
        <ele>1177</ele>
        <time>2020-08-12T11:57:27.000Z</time>
      </trkpt>
      <trkpt lat="42.45999709703028202056884765625" lon="1.21660700999200344085693359375">
        <ele>1176.5999755859375</ele>
        <time>2020-08-12T11:57:28.000Z</time>
      </trkpt>
      <trkpt lat="42.45991696603596210479736328125" lon="1.21650156565010547637939453125">
        <ele>1175.199951171875</ele>
        <time>2020-08-12T11:57:30.000Z</time>
      </trkpt>
      <trkpt lat="42.4598737992346286773681640625" lon="1.21643953956663608551025390625">
        <ele>1175</ele>
        <time>2020-08-12T11:57:31.000Z</time>
      </trkpt>
      <trkpt lat="42.4598318897187709808349609375" lon="1.21637784875929355621337890625">
        <ele>1174.4000244140625</ele>
        <time>2020-08-12T11:57:32.000Z</time>
      </trkpt>
      <trkpt lat="42.4597547762095928192138671875" lon="1.2162508629262447357177734375">
        <ele>1173</ele>
        <time>2020-08-12T11:57:34.000Z</time>
      </trkpt>
      <trkpt lat="42.45971647091209888458251953125" lon="1.21618322096765041351318359375">
        <ele>1171.5999755859375</ele>
        <time>2020-08-12T11:57:35.000Z</time>
      </trkpt>
      <trkpt lat="42.4596221745014190673828125" lon="1.21604676358401775360107421875">
        <ele>1170</ele>
        <time>2020-08-12T11:57:37.000Z</time>
      </trkpt>
      <trkpt lat="42.45956626720726490020751953125" lon="1.2159883417189121246337890625">
        <ele>1169</ele>
        <time>2020-08-12T11:57:38.000Z</time>
      </trkpt>
      <trkpt lat="42.459509856998920440673828125" lon="1.2159352004528045654296875">
        <ele>1168.4000244140625</ele>
        <time>2020-08-12T11:57:39.000Z</time>
      </trkpt>
      <trkpt lat="42.4593987129628658294677734375" lon="1.21583755128085613250732421875">
        <ele>1166.800048828125</ele>
        <time>2020-08-12T11:57:41.000Z</time>
      </trkpt>
      <trkpt lat="42.45927013456821441650390625" lon="1.215742416679859161376953125">
        <ele>1164.800048828125</ele>
        <time>2020-08-12T11:57:43.000Z</time>
      </trkpt>
      <trkpt lat="42.45913468301296234130859375" lon="1.215639822185039520263671875">
        <ele>1163</ele>
        <time>2020-08-12T11:57:45.000Z</time>
      </trkpt>
      <trkpt lat="42.45899428613483905792236328125" lon="1.2155125848948955535888671875">
        <ele>1161.4000244140625</ele>
        <time>2020-08-12T11:57:47.000Z</time>
      </trkpt>
      <trkpt lat="42.45892639271914958953857421875" lon="1.21544511057436466217041015625">
        <ele>1160.4000244140625</ele>
        <time>2020-08-12T11:57:48.000Z</time>
      </trkpt>
      <trkpt lat="42.4588589183986186981201171875" lon="1.21537855826318264007568359375">
        <ele>1159.5999755859375</ele>
        <time>2020-08-12T11:57:49.000Z</time>
      </trkpt>
      <trkpt lat="42.45872925035655498504638671875" lon="1.21524612419307231903076171875">
        <ele>1157.5999755859375</ele>
        <time>2020-08-12T11:57:51.000Z</time>
      </trkpt>
      <trkpt lat="42.45860855095088481903076171875" lon="1.2150881253182888031005859375">
        <ele>1155.5999755859375</ele>
        <time>2020-08-12T11:57:53.000Z</time>
      </trkpt>
      <trkpt lat="42.458555996417999267578125" lon="1.2149965949356555938720703125">
        <ele>1154.800048828125</ele>
        <time>2020-08-12T11:57:54.000Z</time>
      </trkpt>
      <trkpt lat="42.4585085548460483551025390625" lon="1.2148993648588657379150390625">
        <ele>1154</ele>
        <time>2020-08-12T11:57:55.000Z</time>
      </trkpt>
      <trkpt lat="42.45842616073787212371826171875" lon="1.21469140984117984771728515625">
        <ele>1152.5999755859375</ele>
        <time>2020-08-12T11:57:57.000Z</time>
      </trkpt>
      <trkpt lat="42.45834837667644023895263671875" lon="1.21447314508259296417236328125">
        <ele>1151</ele>
        <time>2020-08-12T11:57:59.000Z</time>
      </trkpt>
      <trkpt lat="42.45828232727944850921630859375" lon="1.2142465822398662567138671875">
        <ele>1149.5999755859375</ele>
        <time>2020-08-12T11:58:01.000Z</time>
      </trkpt>
      <trkpt lat="42.45820261538028717041015625" lon="1.21403158642351627349853515625">
        <ele>1147.4000244140625</ele>
        <time>2020-08-12T11:58:03.000Z</time>
      </trkpt>
      <trkpt lat="42.45815810747444629669189453125" lon="1.21393091976642608642578125">
        <ele>1146.4000244140625</ele>
        <time>2020-08-12T11:58:04.000Z</time>
      </trkpt>
      <trkpt lat="42.4581169523298740386962890625" lon="1.21383167803287506103515625">
        <ele>1145.800048828125</ele>
        <time>2020-08-12T11:58:05.000Z</time>
      </trkpt>
      <trkpt lat="42.458086274564266204833984375" lon="1.213728748261928558349609375">
        <ele>1145</ele>
        <time>2020-08-12T11:58:06.000Z</time>
      </trkpt>
      <trkpt lat="42.45806724764406681060791015625" lon="1.21361567638814449310302734375">
        <ele>1144.4000244140625</ele>
        <time>2020-08-12T11:58:07.000Z</time>
      </trkpt>
      <trkpt lat="42.45805551297962665557861328125" lon="1.21349816210567951202392578125">
        <ele>1143.5999755859375</ele>
        <time>2020-08-12T11:58:08.000Z</time>
      </trkpt>
      <trkpt lat="42.4580418504774570465087890625" lon="1.2133751995861530303955078125">
        <ele>1142.5999755859375</ele>
        <time>2020-08-12T11:58:09.000Z</time>
      </trkpt>
      <trkpt lat="42.45799851603806018829345703125" lon="1.213149726390838623046875">
        <ele>1140.5999755859375</ele>
        <time>2020-08-12T11:58:11.000Z</time>
      </trkpt>
      <trkpt lat="42.4579297006130218505859375" lon="1.21295685879886150360107421875">
        <ele>1139.199951171875</ele>
        <time>2020-08-12T11:58:13.000Z</time>
      </trkpt>
      <trkpt lat="42.45783138088881969451904296875" lon="1.212792657315731048583984375">
        <ele>1137.800048828125</ele>
        <time>2020-08-12T11:58:15.000Z</time>
      </trkpt>
      <trkpt lat="42.45772392489016056060791015625" lon="1.21263029985129833221435546875">
        <ele>1136</ele>
        <time>2020-08-12T11:58:17.000Z</time>
      </trkpt>
      <trkpt lat="42.4576237611472606658935546875" lon="1.2124837003648281097412109375">
        <ele>1134.4000244140625</ele>
        <time>2020-08-12T11:58:19.000Z</time>
      </trkpt>
      <trkpt lat="42.45756961405277252197265625" lon="1.212429888546466827392578125">
        <ele>1134</ele>
        <time>2020-08-12T11:58:20.000Z</time>
      </trkpt>
      <trkpt lat="42.457507587969303131103515625" lon="1.212393343448638916015625">
        <ele>1133</ele>
        <time>2020-08-12T11:58:21.000Z</time>
      </trkpt>
      <trkpt lat="42.457376830279827117919921875" lon="1.21234782971441745758056640625">
        <ele>1131.800048828125</ele>
        <time>2020-08-12T11:58:23.000Z</time>
      </trkpt>
      <trkpt lat="42.457313798367977142333984375" lon="1.2123294733464717864990234375">
        <ele>1131.4000244140625</ele>
        <time>2020-08-12T11:58:24.000Z</time>
      </trkpt>
      <trkpt lat="42.45724934153258800506591796875" lon="1.21231195516884326934814453125">
        <ele>1130.800048828125</ele>
        <time>2020-08-12T11:58:25.000Z</time>
      </trkpt>
      <trkpt lat="42.45711958967149257659912109375" lon="1.21227541007101535797119140625">
        <ele>1129.800048828125</ele>
        <time>2020-08-12T11:58:27.000Z</time>
      </trkpt>
      <trkpt lat="42.45699654333293437957763671875" lon="1.21223308145999908447265625">
        <ele>1128.5999755859375</ele>
        <time>2020-08-12T11:58:29.000Z</time>
      </trkpt>
      <trkpt lat="42.45693736709654331207275390625" lon="1.212201230227947235107421875">
        <ele>1128</ele>
        <time>2020-08-12T11:58:30.000Z</time>
      </trkpt>
      <trkpt lat="42.45688037015497684478759765625" lon="1.21216560713946819305419921875">
        <ele>1127.4000244140625</ele>
        <time>2020-08-12T11:58:31.000Z</time>
      </trkpt>
      <trkpt lat="42.4567656219005584716796875" lon="1.21210123412311077117919921875">
        <ele>1126.4000244140625</ele>
        <time>2020-08-12T11:58:33.000Z</time>
      </trkpt>
      <trkpt lat="42.456708289682865142822265625" lon="1.2120770104229450225830078125">
        <ele>1126</ele>
        <time>2020-08-12T11:58:34.000Z</time>
      </trkpt>
      <trkpt lat="42.45665204711258411407470703125" lon="1.212053708732128143310546875">
        <ele>1125.5999755859375</ele>
        <time>2020-08-12T11:58:35.000Z</time>
      </trkpt>
      <trkpt lat="42.4565418250858783721923828125" lon="1.21200014837086200714111328125">
        <ele>1124.5999755859375</ele>
        <time>2020-08-12T11:58:37.000Z</time>
      </trkpt>
      <trkpt lat="42.4564372189342975616455078125" lon="1.2119553051888942718505859375">
        <ele>1123.199951171875</ele>
        <time>2020-08-12T11:58:39.000Z</time>
      </trkpt>
      <trkpt lat="42.45638935826718807220458984375" lon="1.21192596852779388427734375">
        <ele>1122.5999755859375</ele>
        <time>2020-08-12T11:58:40.000Z</time>
      </trkpt>
      <trkpt lat="42.4563450179994106292724609375" lon="1.21189051307737827301025390625">
        <ele>1122.4000244140625</ele>
        <time>2020-08-12T11:58:41.000Z</time>
      </trkpt>
      <trkpt lat="42.456302605569362640380859375" lon="1.2118496932089328765869140625">
        <ele>1122</ele>
        <time>2020-08-12T11:58:42.000Z</time>
      </trkpt>
      <trkpt lat="42.45616539381444454193115234375" lon="1.21171751059591770172119140625">
        <ele>1121</ele>
        <time>2020-08-12T11:58:45.000Z</time>
      </trkpt>
      <trkpt lat="42.4561178684234619140625" lon="1.2116676382720470428466796875">
        <ele>1120.4000244140625</ele>
        <time>2020-08-12T11:58:46.000Z</time>
      </trkpt>
      <trkpt lat="42.45606933720409870147705078125" lon="1.2116109766066074371337890625">
        <ele>1119.5999755859375</ele>
        <time>2020-08-12T11:58:47.000Z</time>
      </trkpt>
      <trkpt lat="42.4559742026031017303466796875" lon="1.21149203740060329437255859375">
        <ele>1118.5999755859375</ele>
        <time>2020-08-12T11:58:49.000Z</time>
      </trkpt>
      <trkpt lat="42.4558320455253124237060546875" lon="1.21128165163099765777587890625">
        <ele>1117.199951171875</ele>
        <time>2020-08-12T11:58:52.000Z</time>
      </trkpt>
      <trkpt lat="42.45573590509593486785888671875" lon="1.211136393249034881591796875">
        <ele>1116</ele>
        <time>2020-08-12T11:58:54.000Z</time>
      </trkpt>
      <trkpt lat="42.45563498698174953460693359375" lon="1.21100270189344882965087890625">
        <ele>1115</ele>
        <time>2020-08-12T11:58:56.000Z</time>
      </trkpt>
      <trkpt lat="42.4555329792201519012451171875" lon="1.210872195661067962646484375">
        <ele>1113.5999755859375</ele>
        <time>2020-08-12T11:58:58.000Z</time>
      </trkpt>
      <trkpt lat="42.455433569848537445068359375" lon="1.21075241826474666595458984375">
        <ele>1112.199951171875</ele>
        <time>2020-08-12T11:59:00.000Z</time>
      </trkpt>
      <trkpt lat="42.4553279578685760498046875" lon="1.210644543170928955078125">
        <ele>1111.199951171875</ele>
        <time>2020-08-12T11:59:02.000Z</time>
      </trkpt>
      <trkpt lat="42.455225028097629547119140625" lon="1.2105572037398815155029296875">
        <ele>1110.199951171875</ele>
        <time>2020-08-12T11:59:04.000Z</time>
      </trkpt>
      <trkpt lat="42.45517834089696407318115234375" lon="1.2105129472911357879638671875">
        <ele>1109.800048828125</ele>
        <time>2020-08-12T11:59:05.000Z</time>
      </trkpt>
      <trkpt lat="42.45513626374304294586181640625" lon="1.21046525426208972930908203125">
        <ele>1109.199951171875</ele>
        <time>2020-08-12T11:59:06.000Z</time>
      </trkpt>
      <trkpt lat="42.45509971864521503448486328125" lon="1.21041320264339447021484375">
        <ele>1108.5999755859375</ele>
        <time>2020-08-12T11:59:07.000Z</time>
      </trkpt>
      <trkpt lat="42.4550682865083217620849609375" lon="1.2103516794741153717041015625">
        <ele>1108.199951171875</ele>
        <time>2020-08-12T11:59:08.000Z</time>
      </trkpt>
      <trkpt lat="42.4550233595073223114013671875" lon="1.21019954793155193328857421875">
        <ele>1107.5999755859375</ele>
        <time>2020-08-12T11:59:10.000Z</time>
      </trkpt>
      <trkpt lat="42.45500349439680576324462890625" lon="1.21012293733656406402587890625">
        <ele>1107.4000244140625</ele>
        <time>2020-08-12T11:59:11.000Z</time>
      </trkpt>
      <trkpt lat="42.4549811147153377532958984375" lon="1.2100526131689548492431640625">
        <ele>1107</ele>
        <time>2020-08-12T11:59:12.000Z</time>
      </trkpt>
      <trkpt lat="42.454956471920013427734375" lon="1.20998530648648738861083984375">
        <ele>1106.199951171875</ele>
        <time>2020-08-12T11:59:13.000Z</time>
      </trkpt>
      <trkpt lat="42.45486854575574398040771484375" lon="1.2098018266260623931884765625">
        <ele>1105</ele>
        <time>2020-08-12T11:59:16.000Z</time>
      </trkpt>
      <trkpt lat="42.45478590019047260284423828125" lon="1.209716834127902984619140625">
        <ele>1104.4000244140625</ele>
        <time>2020-08-12T11:59:18.000Z</time>
      </trkpt>
      <trkpt lat="42.45473493821918964385986328125" lon="1.20969210751354694366455078125">
        <ele>1103.800048828125</ele>
        <time>2020-08-12T11:59:19.000Z</time>
      </trkpt>
      <trkpt lat="42.4546190164983272552490234375" lon="1.2096925266087055206298828125">
        <ele>1102.800048828125</ele>
        <time>2020-08-12T11:59:21.000Z</time>
      </trkpt>
      <trkpt lat="42.454557158052921295166015625" lon="1.2097097933292388916015625">
        <ele>1102.4000244140625</ele>
        <time>2020-08-12T11:59:22.000Z</time>
      </trkpt>
      <trkpt lat="42.4544295854866504669189453125" lon="1.20974608696997165679931640625">
        <ele>1101.4000244140625</ele>
        <time>2020-08-12T11:59:24.000Z</time>
      </trkpt>
      <trkpt lat="42.45436571538448333740234375" lon="1.2097580730915069580078125">
        <ele>1100.800048828125</ele>
        <time>2020-08-12T11:59:25.000Z</time>
      </trkpt>
      <trkpt lat="42.45430042035877704620361328125" lon="1.2097625993192195892333984375">
        <ele>1100</ele>
        <time>2020-08-12T11:59:26.000Z</time>
      </trkpt>
      <trkpt lat="42.4542364664375782012939453125" lon="1.20977341197431087493896484375">
        <ele>1099.4000244140625</ele>
        <time>2020-08-12T11:59:27.000Z</time>
      </trkpt>
      <trkpt lat="42.45411870069801807403564453125" lon="1.20983183383941650390625">
        <ele>1098.800048828125</ele>
        <time>2020-08-12T11:59:29.000Z</time>
      </trkpt>
      <trkpt lat="42.45401040650904178619384765625" lon="1.20991623960435390472412109375">
        <ele>1098.199951171875</ele>
        <time>2020-08-12T11:59:31.000Z</time>
      </trkpt>
      <trkpt lat="42.453952990472316741943359375" lon="1.209950186312198638916015625">
        <ele>1097.800048828125</ele>
        <time>2020-08-12T11:59:32.000Z</time>
      </trkpt>
      <trkpt lat="42.4538929760456085205078125" lon="1.20997860096395015716552734375">
        <ele>1097.5999755859375</ele>
        <time>2020-08-12T11:59:33.000Z</time>
      </trkpt>
      <trkpt lat="42.453698180615901947021484375" lon="1.21006987988948822021484375">
        <ele>1096.199951171875</ele>
        <time>2020-08-12T11:59:36.000Z</time>
      </trkpt>
      <trkpt lat="42.4535065703094005584716796875" lon="1.210184879601001739501953125">
        <ele>1094.800048828125</ele>
        <time>2020-08-12T11:59:39.000Z</time>
      </trkpt>
      <trkpt lat="42.45344881899654865264892578125" lon="1.21021337807178497314453125">
        <ele>1094.199951171875</ele>
        <time>2020-08-12T11:59:40.000Z</time>
      </trkpt>
      <trkpt lat="42.45339567773044109344482421875" lon="1.21021999977529048919677734375">
        <ele>1093.5999755859375</ele>
        <time>2020-08-12T11:59:41.000Z</time>
      </trkpt>
      <trkpt lat="42.4532675184309482574462890625" lon="1.2100881524384021759033203125">
        <ele>1092.199951171875</ele>
        <time>2020-08-12T11:59:44.000Z</time>
      </trkpt>
      <trkpt lat="42.453240193426609039306640625" lon="1.209920682013034820556640625">
        <ele>1091</ele>
        <time>2020-08-12T11:59:46.000Z</time>
      </trkpt>
      <trkpt lat="42.453234158456325531005859375" lon="1.209834180772304534912109375">
        <ele>1090.5999755859375</ele>
        <time>2020-08-12T11:59:47.000Z</time>
      </trkpt>
      <trkpt lat="42.453234493732452392578125" lon="1.2096653692424297332763671875">
        <ele>1089.5999755859375</ele>
        <time>2020-08-12T11:59:49.000Z</time>
      </trkpt>
      <trkpt lat="42.45323860086500644683837890625" lon="1.2094005011022090911865234375">
        <ele>1088.5999755859375</ele>
        <time>2020-08-12T11:59:52.000Z</time>
      </trkpt>
      <trkpt lat="42.453228794038295745849609375" lon="1.20931240729987621307373046875">
        <ele>1088.4000244140625</ele>
        <time>2020-08-12T11:59:53.000Z</time>
      </trkpt>
      <trkpt lat="42.453131563961505889892578125" lon="1.20906329713761806488037109375">
        <ele>1087.199951171875</ele>
        <time>2020-08-12T11:59:56.000Z</time>
      </trkpt>
      <trkpt lat="42.45308370329439640045166015625" lon="1.2089884467422962188720703125">
        <ele>1086.800048828125</ele>
        <time>2020-08-12T11:59:57.000Z</time>
      </trkpt>
      <trkpt lat="42.4529858864843845367431640625" lon="1.20884478092193603515625">
        <ele>1085.4000244140625</ele>
        <time>2020-08-12T11:59:59.000Z</time>
      </trkpt>
      <trkpt lat="42.4528829567134380340576171875" lon="1.2087027914822101593017578125">
        <ele>1084.199951171875</ele>
        <time>2020-08-12T12:00:01.000Z</time>
      </trkpt>
      <trkpt lat="42.452772147953510284423828125" lon="1.2085623107850551605224609375">
        <ele>1083.4000244140625</ele>
        <time>2020-08-12T12:00:03.000Z</time>
      </trkpt>
      <trkpt lat="42.452716827392578125" lon="1.20849416591227054595947265625">
        <ele>1083</ele>
        <time>2020-08-12T12:00:04.000Z</time>
      </trkpt>
      <trkpt lat="42.45257995091378688812255859375" lon="1.20827036909759044647216796875">
        <ele>1081.800048828125</ele>
        <time>2020-08-12T12:00:07.000Z</time>
      </trkpt>
      <trkpt lat="42.4525453336536884307861328125" lon="1.20818034745752811431884765625">
        <ele>1081.5999755859375</ele>
        <time>2020-08-12T12:00:08.000Z</time>
      </trkpt>
      <trkpt lat="42.45247065089643001556396484375" lon="1.20800717733800411224365234375">
        <ele>1080.800048828125</ele>
        <time>2020-08-12T12:00:10.000Z</time>
      </trkpt>
      <trkpt lat="42.4523592554032802581787109375" lon="1.20785529725253582000732421875">
        <ele>1080</ele>
        <time>2020-08-12T12:00:12.000Z</time>
      </trkpt>
      <trkpt lat="42.45229681022465229034423828125" lon="1.20778656564652919769287109375">
        <ele>1079.4000244140625</ele>
        <time>2020-08-12T12:00:13.000Z</time>
      </trkpt>
      <trkpt lat="42.4521768651902675628662109375" lon="1.20764055289328098297119140625">
        <ele>1078.4000244140625</ele>
        <time>2020-08-12T12:00:15.000Z</time>
      </trkpt>
      <trkpt lat="42.45202523656189441680908203125" lon="1.207389347255229949951171875">
        <ele>1077.199951171875</ele>
        <time>2020-08-12T12:00:18.000Z</time>
      </trkpt>
      <trkpt lat="42.45189833454787731170654296875" lon="1.20715926401317119598388671875">
        <ele>1076.199951171875</ele>
        <time>2020-08-12T12:00:21.000Z</time>
      </trkpt>
      <trkpt lat="42.45185240171849727630615234375" lon="1.20708952657878398895263671875">
        <ele>1075.800048828125</ele>
        <time>2020-08-12T12:00:22.000Z</time>
      </trkpt>
      <trkpt lat="42.45179926045238971710205078125" lon="1.20702867396175861358642578125">
        <ele>1075.4000244140625</ele>
        <time>2020-08-12T12:00:23.000Z</time>
      </trkpt>
      <trkpt lat="42.45173849165439605712890625" lon="1.20698156766593456268310546875">
        <ele>1075</ele>
        <time>2020-08-12T12:00:24.000Z</time>
      </trkpt>
      <trkpt lat="42.45160161517560482025146484375" lon="1.2069271691143512725830078125">
        <ele>1074.199951171875</ele>
        <time>2020-08-12T12:00:26.000Z</time>
      </trkpt>
      <trkpt lat="42.45152818970382213592529296875" lon="1.20691233314573764801025390625">
        <ele>1073.800048828125</ele>
        <time>2020-08-12T12:00:27.000Z</time>
      </trkpt>
      <trkpt lat="42.45122577063739299774169921875" lon="1.20683521963655948638916015625">
        <ele>1073</ele>
        <time>2020-08-12T12:00:31.000Z</time>
      </trkpt>
      <trkpt lat="42.45114899240434169769287109375" lon="1.2068044580519199371337890625">
        <ele>1072.5999755859375</ele>
        <time>2020-08-12T12:00:32.000Z</time>
      </trkpt>
      <trkpt lat="42.4509115330874919891357421875" lon="1.20671971701085567474365234375">
        <ele>1071.800048828125</ele>
        <time>2020-08-12T12:00:35.000Z</time>
      </trkpt>
      <trkpt lat="42.450684718787670135498046875" lon="1.2066663242876529693603515625">
        <ele>1071.4000244140625</ele>
        <time>2020-08-12T12:00:38.000Z</time>
      </trkpt>
      <trkpt lat="42.45035170577466487884521484375" lon="1.20656616054475307464599609375">
        <ele>1071.199951171875</ele>
        <time>2020-08-12T12:00:43.000Z</time>
      </trkpt>
      <trkpt lat="42.45028599165380001068115234375" lon="1.20652525685727596282958984375">
        <ele>1071</ele>
        <time>2020-08-12T12:00:44.000Z</time>
      </trkpt>
      <trkpt lat="42.4502237141132354736328125" lon="1.20647446252405643463134765625">
        <ele>1070.5999755859375</ele>
        <time>2020-08-12T12:00:45.000Z</time>
      </trkpt>
      <trkpt lat="42.450115419924259185791015625" lon="1.2063436210155487060546875">
        <ele>1069.4000244140625</ele>
        <time>2020-08-12T12:00:47.000Z</time>
      </trkpt>
      <trkpt lat="42.45006822980940341949462890625" lon="1.20626726187765598297119140625">
        <ele>1069</ele>
        <time>2020-08-12T12:00:48.000Z</time>
      </trkpt>
      <trkpt lat="42.44999581016600131988525390625" lon="1.20611839927732944488525390625">
        <ele>1068</ele>
        <time>2020-08-12T12:00:50.000Z</time>
      </trkpt>
      <trkpt lat="42.44997468777000904083251953125" lon="1.20605058968067169189453125">
        <ele>1067.800048828125</ele>
        <time>2020-08-12T12:00:51.000Z</time>
      </trkpt>
      <trkpt lat="42.449973262846469879150390625" lon="1.2059079296886920928955078125">
        <ele>1067</ele>
        <time>2020-08-12T12:00:53.000Z</time>
      </trkpt>
      <trkpt lat="42.44999497197568416595458984375" lon="1.2058412097394466400146484375">
        <ele>1066.5999755859375</ele>
        <time>2020-08-12T12:00:54.000Z</time>
      </trkpt>
      <trkpt lat="42.45009790174663066864013671875" lon="1.205729059875011444091796875">
        <ele>1065.800048828125</ele>
        <time>2020-08-12T12:00:57.000Z</time>
      </trkpt>
      <trkpt lat="42.45019756257534027099609375" lon="1.20571455918252468109130859375">
        <ele>1065.4000244140625</ele>
        <time>2020-08-12T12:00:59.000Z</time>
      </trkpt>
      <trkpt lat="42.45031784288585186004638671875" lon="1.2057024054229259490966796875">
        <ele>1065</ele>
        <time>2020-08-12T12:01:01.000Z</time>
      </trkpt>
      <trkpt lat="42.450385652482509613037109375" lon="1.20569041930139064788818359375">
        <ele>1064.5999755859375</ele>
        <time>2020-08-12T12:01:02.000Z</time>
      </trkpt>
      <trkpt lat="42.45052973739802837371826171875" lon="1.20565362274646759033203125">
        <ele>1063.5999755859375</ele>
        <time>2020-08-12T12:01:04.000Z</time>
      </trkpt>
      <trkpt lat="42.45068228803575038909912109375" lon="1.20560509152710437774658203125">
        <ele>1062.800048828125</ele>
        <time>2020-08-12T12:01:06.000Z</time>
      </trkpt>
      <trkpt lat="42.450763173401355743408203125" lon="1.20557927526533603668212890625">
        <ele>1062.4000244140625</ele>
        <time>2020-08-12T12:01:07.000Z</time>
      </trkpt>
      <trkpt lat="42.45112158358097076416015625" lon="1.20539939962327480316162109375">
        <ele>1061.5999755859375</ele>
        <time>2020-08-12T12:01:12.000Z</time>
      </trkpt>
      <trkpt lat="42.45118754915893077850341796875" lon="1.20536168105900287628173828125">
        <ele>1061.4000244140625</ele>
        <time>2020-08-12T12:01:13.000Z</time>
      </trkpt>
      <trkpt lat="42.45144034735858440399169921875" lon="1.20519571937620639801025390625">
        <ele>1060.199951171875</ele>
        <time>2020-08-12T12:01:17.000Z</time>
      </trkpt>
      <trkpt lat="42.45149684138596057891845703125" lon="1.20513997972011566162109375">
        <ele>1060.199951171875</ele>
        <time>2020-08-12T12:01:18.000Z</time>
      </trkpt>
      <trkpt lat="42.45159474201500415802001953125" lon="1.20501969940960407257080078125">
        <ele>1060</ele>
        <time>2020-08-12T12:01:20.000Z</time>
      </trkpt>
      <trkpt lat="42.451640255749225616455078125" lon="1.20487536303699016571044921875">
        <ele>1059.800048828125</ele>
        <time>2020-08-12T12:01:22.000Z</time>
      </trkpt>
      <trkpt lat="42.45163246057927608489990234375" lon="1.204723231494426727294921875">
        <ele>1059.5999755859375</ele>
        <time>2020-08-12T12:01:24.000Z</time>
      </trkpt>
      <trkpt lat="42.4516045488417148590087890625" lon="1.20451007969677448272705078125">
        <ele>1059.4000244140625</ele>
        <time>2020-08-12T12:01:27.000Z</time>
      </trkpt>
      <trkpt lat="42.45153556577861309051513671875" lon="1.2041467241942882537841796875">
        <ele>1059.4000244140625</ele>
        <time>2020-08-12T12:01:33.000Z</time>
      </trkpt>
      <trkpt lat="42.45151586830615997314453125" lon="1.20409551076591014862060546875">
        <ele>1059.5999755859375</ele>
        <time>2020-08-12T12:01:34.000Z</time>
      </trkpt>
      <trkpt lat="42.45137396268546581268310546875" lon="1.20381689630448818206787109375">
        <ele>1059.4000244140625</ele>
        <time>2020-08-12T12:01:40.000Z</time>
      </trkpt>
      <trkpt lat="42.45131445117294788360595703125" lon="1.203753948211669921875">
        <ele>1059.199951171875</ele>
        <time>2020-08-12T12:01:42.000Z</time>
      </trkpt>
      <trkpt lat="42.45105578564107418060302734375" lon="1.20352587662637233734130859375">
        <ele>1059.199951171875</ele>
        <time>2020-08-12T12:01:50.000Z</time>
      </trkpt>
      <trkpt lat="42.45083165355026721954345703125" lon="1.203378103673458099365234375">
        <ele>1059.199951171875</ele>
        <time>2020-08-12T12:01:56.000Z</time>
      </trkpt>
      <trkpt lat="42.45066133327782154083251953125" lon="1.20330174453556537628173828125">
        <ele>1059.4000244140625</ele>
        <time>2020-08-12T12:02:01.000Z</time>
      </trkpt>
      <trkpt lat="42.4505065195262432098388671875" lon="1.20322220027446746826171875">
        <ele>1060.199951171875</ele>
        <time>2020-08-12T12:02:06.000Z</time>
      </trkpt>
      <trkpt lat="42.450346089899539947509765625" lon="1.2031194381415843963623046875">
        <ele>1060.199951171875</ele>
        <time>2020-08-12T12:02:11.000Z</time>
      </trkpt>
      <trkpt lat="42.45029085315763950347900390625" lon="1.20301458053290843963623046875">
        <ele>1060.5999755859375</ele>
        <time>2020-08-12T12:02:14.000Z</time>
      </trkpt>
      <trkpt lat="42.45029722340404987335205078125" lon="1.20296395383775234222412109375">
        <ele>1060.800048828125</ele>
        <time>2020-08-12T12:02:15.000Z</time>
      </trkpt>
      <trkpt lat="42.45036930777132511138916015625" lon="1.20286018587648868560791015625">
        <ele>1060.5999755859375</ele>
        <time>2020-08-12T12:02:18.000Z</time>
      </trkpt>
      <trkpt lat="42.45040811598300933837890625" lon="1.202832274138927459716796875">
        <ele>1060.5999755859375</ele>
        <time>2020-08-12T12:02:19.000Z</time>
      </trkpt>
      <trkpt lat="42.45057164691388607025146484375" lon="1.20271299965679645538330078125">
        <ele>1060.5999755859375</ele>
        <time>2020-08-12T12:02:23.000Z</time>
      </trkpt>
      <trkpt lat="42.45067742653191089630126953125" lon="1.2026587687432765960693359375">
        <ele>1060</ele>
        <time>2020-08-12T12:02:25.000Z</time>
      </trkpt>
      <trkpt lat="42.4507908336818218231201171875" lon="1.20261224918067455291748046875">
        <ele>1059.5999755859375</ele>
        <time>2020-08-12T12:02:27.000Z</time>
      </trkpt>
      <trkpt lat="42.45084942318499088287353515625" lon="1.20259447954595088958740234375">
        <ele>1059.4000244140625</ele>
        <time>2020-08-12T12:02:28.000Z</time>
      </trkpt>
      <trkpt lat="42.45097003877162933349609375" lon="1.20256346650421619415283203125">
        <ele>1058.4000244140625</ele>
        <time>2020-08-12T12:02:30.000Z</time>
      </trkpt>
      <trkpt lat="42.4512209929525852203369140625" lon="1.202531866729259490966796875">
        <ele>1057.4000244140625</ele>
        <time>2020-08-12T12:02:34.000Z</time>
      </trkpt>
      <trkpt lat="42.4514707736670970916748046875" lon="1.20254360139369964599609375">
        <ele>1056.199951171875</ele>
        <time>2020-08-12T12:02:38.000Z</time>
      </trkpt>
      <trkpt lat="42.4516055546700954437255859375" lon="1.20253781788051128387451171875">
        <ele>1055.4000244140625</ele>
        <time>2020-08-12T12:02:40.000Z</time>
      </trkpt>
      <trkpt lat="42.4516695924103260040283203125" lon="1.202522478997707366943359375">
        <ele>1055.199951171875</ele>
        <time>2020-08-12T12:02:41.000Z</time>
      </trkpt>
      <trkpt lat="42.4518613703548908233642578125" lon="1.20245634578168392181396484375">
        <ele>1054.4000244140625</ele>
        <time>2020-08-12T12:02:44.000Z</time>
      </trkpt>
      <trkpt lat="42.45193052105605602264404296875" lon="1.20245718397200107574462890625">
        <ele>1054.199951171875</ele>
        <time>2020-08-12T12:02:45.000Z</time>
      </trkpt>
      <trkpt lat="42.45206572115421295166015625" lon="1.2025135941803455352783203125">
        <ele>1053.5999755859375</ele>
        <time>2020-08-12T12:02:47.000Z</time>
      </trkpt>
      <trkpt lat="42.45213386602699756622314453125" lon="1.20254217647016048431396484375">
        <ele>1053</ele>
        <time>2020-08-12T12:02:48.000Z</time>
      </trkpt>
      <trkpt lat="42.452357746660709381103515625" lon="1.202594228088855743408203125">
        <ele>1052.4000244140625</ele>
        <time>2020-08-12T12:02:51.000Z</time>
      </trkpt>
      <trkpt lat="42.452513314783573150634765625" lon="1.20262867771089076995849609375">
        <ele>1051.800048828125</ele>
        <time>2020-08-12T12:02:53.000Z</time>
      </trkpt>
      <trkpt lat="42.45282034389674663543701171875" lon="1.202678717672824859619140625">
        <ele>1051</ele>
        <time>2020-08-12T12:02:57.000Z</time>
      </trkpt>
      <trkpt lat="42.45289024896919727325439453125" lon="1.202691458165645599365234375">
        <ele>1051</ele>
        <time>2020-08-12T12:02:58.000Z</time>
      </trkpt>
      <trkpt lat="42.45311438106000423431396484375" lon="1.2027100659906864166259765625">
        <ele>1051.5999755859375</ele>
        <time>2020-08-12T12:03:02.000Z</time>
      </trkpt>
      <trkpt lat="42.45319887064397335052490234375" lon="1.20270729996263980865478515625">
        <ele>1052.199951171875</ele>
        <time>2020-08-12T12:03:04.000Z</time>
      </trkpt>
      <trkpt lat="42.453310601413249969482421875" lon="1.202671341598033905029296875">
        <ele>1052.4000244140625</ele>
        <time>2020-08-12T12:03:07.000Z</time>
      </trkpt>
      <trkpt lat="42.4534626491367816925048828125" lon="1.20249892584979534149169921875">
        <ele>1051.800048828125</ele>
        <time>2020-08-12T12:03:12.000Z</time>
      </trkpt>
      <trkpt lat="42.45366289280354976654052734375" lon="1.202213354408740997314453125">
        <ele>1051.5999755859375</ele>
        <time>2020-08-12T12:03:20.000Z</time>
      </trkpt>
      <trkpt lat="42.45379130356013774871826171875" lon="1.20210103690624237060546875">
        <ele>1053.4000244140625</ele>
        <time>2020-08-12T12:03:26.000Z</time>
      </trkpt>
      <trkpt lat="42.45395399630069732666015625" lon="1.2021035514771938323974609375">
        <ele>1054.4000244140625</ele>
        <time>2020-08-12T12:03:32.000Z</time>
      </trkpt>
      <trkpt lat="42.4541585147380828857421875" lon="1.202142275869846343994140625">
        <ele>1055.199951171875</ele>
        <time>2020-08-12T12:03:39.000Z</time>
      </trkpt>
      <trkpt lat="42.45421710424125194549560546875" lon="1.20214118622243404388427734375">
        <ele>1055.5999755859375</ele>
        <time>2020-08-12T12:03:41.000Z</time>
      </trkpt>
      <trkpt lat="42.45435758493840694427490234375" lon="1.2021317146718502044677734375">
        <ele>1056.199951171875</ele>
        <time>2020-08-12T12:03:46.000Z</time>
      </trkpt>
      <trkpt lat="42.45449043810367584228515625" lon="1.202123165130615234375">
        <ele>1056.800048828125</ele>
        <time>2020-08-12T12:03:51.000Z</time>
      </trkpt>
      <trkpt lat="42.45457182638347148895263671875" lon="1.2021206505596637725830078125">
        <ele>1057.199951171875</ele>
        <time>2020-08-12T12:03:54.000Z</time>
      </trkpt>
      <trkpt lat="42.454651035368442535400390625" lon="1.2021266855299472808837890625">
        <ele>1057.800048828125</ele>
        <time>2020-08-12T12:03:57.000Z</time>
      </trkpt>
      <trkpt lat="42.4547816254198551177978515625" lon="1.20217856951057910919189453125">
        <ele>1058.4000244140625</ele>
        <time>2020-08-12T12:04:02.000Z</time>
      </trkpt>
      <trkpt lat="42.4549757502973079681396484375" lon="1.2022559344768524169921875">
        <ele>1058.5999755859375</ele>
        <time>2020-08-12T12:04:09.000Z</time>
      </trkpt>
      <trkpt lat="42.4552429653704166412353515625" lon="1.20227311737835407257080078125">
        <ele>1058.4000244140625</ele>
        <time>2020-08-12T12:04:18.000Z</time>
      </trkpt>
      <trkpt lat="42.45541554875671863555908203125" lon="1.202164404094219207763671875">
        <ele>1057.800048828125</ele>
        <time>2020-08-12T12:04:24.000Z</time>
      </trkpt>
      <trkpt lat="42.45559944771230220794677734375" lon="1.2019292078912258148193359375">
        <ele>1057.800048828125</ele>
        <time>2020-08-12T12:04:31.000Z</time>
      </trkpt>
      <trkpt lat="42.45577446185052394866943359375" lon="1.201750002801418304443359375">
        <ele>1058.4000244140625</ele>
        <time>2020-08-12T12:04:37.000Z</time>
      </trkpt>
      <trkpt lat="42.45604016818106174468994140625" lon="1.20154372416436672210693359375">
        <ele>1058.5999755859375</ele>
        <time>2020-08-12T12:04:45.000Z</time>
      </trkpt>
      <trkpt lat="42.45621115900576114654541015625" lon="1.20130333118140697479248046875">
        <ele>1058</ele>
        <time>2020-08-12T12:04:51.000Z</time>
      </trkpt>
      <trkpt lat="42.4563042819499969482421875" lon="1.2011061049997806549072265625">
        <ele>1059.199951171875</ele>
        <time>2020-08-12T12:04:57.000Z</time>
      </trkpt>
      <trkpt lat="42.4563272483646869659423828125" lon="1.20107534341514110565185546875">
        <ele>1059.4000244140625</ele>
        <time>2020-08-12T12:04:58.000Z</time>
      </trkpt>
      <trkpt lat="42.45645155198872089385986328125" lon="1.200994960963726043701171875">
        <ele>1059.4000244140625</ele>
        <time>2020-08-12T12:05:02.000Z</time>
      </trkpt>
      <trkpt lat="42.45671440847218036651611328125" lon="1.2009186856448650360107421875">
        <ele>1059.4000244140625</ele>
        <time>2020-08-12T12:05:10.000Z</time>
      </trkpt>
      <trkpt lat="42.45697475038468837738037109375" lon="1.200841404497623443603515625">
        <ele>1058.5999755859375</ele>
        <time>2020-08-12T12:05:16.000Z</time>
      </trkpt>
      <trkpt lat="42.45702336542308330535888671875" lon="1.20082941837608814239501953125">
        <ele>1058.4000244140625</ele>
        <time>2020-08-12T12:05:17.000Z</time>
      </trkpt>
      <trkpt lat="42.4573927558958530426025390625" lon="1.20072447694838047027587890625">
        <ele>1057.4000244140625</ele>
        <time>2020-08-12T12:05:24.000Z</time>
      </trkpt>
      <trkpt lat="42.45744866319000720977783203125" lon="1.2007124908268451690673828125">
        <ele>1057.4000244140625</ele>
        <time>2020-08-12T12:05:25.000Z</time>
      </trkpt>
      <trkpt lat="42.45772711001336574554443359375" lon="1.20066203176975250244140625">
        <ele>1056.5999755859375</ele>
        <time>2020-08-12T12:05:30.000Z</time>
      </trkpt>
      <trkpt lat="42.45784210972487926483154296875" lon="1.20060847140848636627197265625">
        <ele>1056.4000244140625</ele>
        <time>2020-08-12T12:05:32.000Z</time>
      </trkpt>
      <trkpt lat="42.458079569041728973388671875" lon="1.20045877061784267425537109375">
        <ele>1055.199951171875</ele>
        <time>2020-08-12T12:05:36.000Z</time>
      </trkpt>
      <trkpt lat="42.4581970833241939544677734375" lon="1.20037176646292209625244140625">
        <ele>1054.800048828125</ele>
        <time>2020-08-12T12:05:38.000Z</time>
      </trkpt>
      <trkpt lat="42.4583865143358707427978515625" lon="1.2002645619213581085205078125">
        <ele>1054.4000244140625</ele>
        <time>2020-08-12T12:05:41.000Z</time>
      </trkpt>
      <trkpt lat="42.45853227563202381134033203125" lon="1.20021879673004150390625">
        <ele>1053.5999755859375</ele>
        <time>2020-08-12T12:05:43.000Z</time>
      </trkpt>
      <trkpt lat="42.45860754512250423431396484375" lon="1.2001924775540828704833984375">
        <ele>1053.199951171875</ele>
        <time>2020-08-12T12:05:44.000Z</time>
      </trkpt>
      <trkpt lat="42.45882731862366199493408203125" lon="1.20007605291903018951416015625">
        <ele>1052.199951171875</ele>
        <time>2020-08-12T12:05:47.000Z</time>
      </trkpt>
      <trkpt lat="42.45889420621097087860107421875" lon="1.20002911426126956939697265625">
        <ele>1052</ele>
        <time>2020-08-12T12:05:48.000Z</time>
      </trkpt>
      <trkpt lat="42.45917499996721744537353515625" lon="1.19981906376779079437255859375">
        <ele>1052</ele>
        <time>2020-08-12T12:05:53.000Z</time>
      </trkpt>
      <trkpt lat="42.45941841043531894683837890625" lon="1.1997427046298980712890625">
        <ele>1052.4000244140625</ele>
        <time>2020-08-12T12:05:58.000Z</time>
      </trkpt>
      <trkpt lat="42.4596840329468250274658203125" lon="1.1997019685804843902587890625">
        <ele>1053.199951171875</ele>
        <time>2020-08-12T12:06:05.000Z</time>
      </trkpt>
      <trkpt lat="42.45971764437854290008544921875" lon="1.19970540516078472137451171875">
        <ele>1053.4000244140625</ele>
        <time>2020-08-12T12:06:06.000Z</time>
      </trkpt>
      <trkpt lat="42.4599150381982326507568359375" lon="1.19975100271403789520263671875">
        <ele>1053.5999755859375</ele>
        <time>2020-08-12T12:06:12.000Z</time>
      </trkpt>
      <trkpt lat="42.460173703730106353759765625" lon="1.19978285394608974456787109375">
        <ele>1054.199951171875</ele>
        <time>2020-08-12T12:06:20.000Z</time>
      </trkpt>
      <trkpt lat="42.4604162760078907012939453125" lon="1.199785955250263214111328125">
        <ele>1054.199951171875</ele>
        <time>2020-08-12T12:06:28.000Z</time>
      </trkpt>
      <trkpt lat="42.460614927113056182861328125" lon="1.1997132003307342529296875">
        <ele>1053.800048828125</ele>
        <time>2020-08-12T12:06:33.000Z</time>
      </trkpt>
      <trkpt lat="42.46084786020219326019287109375" lon="1.199554614722728729248046875">
        <ele>1052.199951171875</ele>
        <time>2020-08-12T12:06:38.000Z</time>
      </trkpt>
      <trkpt lat="42.46089781634509563446044921875" lon="1.19951136410236358642578125">
        <ele>1051.4000244140625</ele>
        <time>2020-08-12T12:06:39.000Z</time>
      </trkpt>
      <trkpt lat="42.46094877831637859344482421875" lon="1.1994696222245693206787109375">
        <ele>1050.800048828125</ele>
        <time>2020-08-12T12:06:40.000Z</time>
      </trkpt>
      <trkpt lat="42.46117475442588329315185546875" lon="1.1992800235748291015625">
        <ele>1051</ele>
        <time>2020-08-12T12:06:45.000Z</time>
      </trkpt>
      <trkpt lat="42.46130785904824733734130859375" lon="1.19914658367633819580078125">
        <ele>1051.5999755859375</ele>
        <time>2020-08-12T12:06:50.000Z</time>
      </trkpt>
      <trkpt lat="42.461390085518360137939453125" lon="1.19904792867600917816162109375">
        <ele>1051.800048828125</ele>
        <time>2020-08-12T12:06:54.000Z</time>
      </trkpt>
      <trkpt lat="42.4614750780165195465087890625" lon="1.19891935028135776519775390625">
        <ele>1052.199951171875</ele>
        <time>2020-08-12T12:06:59.000Z</time>
      </trkpt>
      <trkpt lat="42.46157373301684856414794921875" lon="1.19873897172510623931884765625">
        <ele>1053</ele>
        <time>2020-08-12T12:07:05.000Z</time>
      </trkpt>
      <trkpt lat="42.461609356105327606201171875" lon="1.198677532374858856201171875">
        <ele>1053.199951171875</ele>
        <time>2020-08-12T12:07:07.000Z</time>
      </trkpt>
      <trkpt lat="42.46176458895206451416015625" lon="1.1984289251267910003662109375">
        <ele>1053.5999755859375</ele>
        <time>2020-08-12T12:07:16.000Z</time>
      </trkpt>
      <trkpt lat="42.4618767388164997100830078125" lon="1.19819615967571735382080078125">
        <ele>1054</ele>
        <time>2020-08-12T12:07:23.000Z</time>
      </trkpt>
      <trkpt lat="42.46199768967926502227783203125" lon="1.1978951655328273773193359375">
        <ele>1053.800048828125</ele>
        <time>2020-08-12T12:07:31.000Z</time>
      </trkpt>
      <trkpt lat="42.462063990533351898193359375" lon="1.19767078198492527008056640625">
        <ele>1053.5999755859375</ele>
        <time>2020-08-12T12:07:37.000Z</time>
      </trkpt>
      <trkpt lat="42.46218209154903888702392578125" lon="1.1973379366099834442138671875">
        <ele>1054.4000244140625</ele>
        <time>2020-08-12T12:07:46.000Z</time>
      </trkpt>
      <trkpt lat="42.46220019645988941192626953125" lon="1.1973040737211704254150390625">
        <ele>1054.5999755859375</ele>
        <time>2020-08-12T12:07:47.000Z</time>
      </trkpt>
      <trkpt lat="42.46228502131998538970947265625" lon="1.19715772569179534912109375">
        <ele>1054.800048828125</ele>
        <time>2020-08-12T12:07:52.000Z</time>
      </trkpt>
      <trkpt lat="42.46242843568325042724609375" lon="1.19691691361367702484130859375">
        <ele>1055.5999755859375</ele>
        <time>2020-08-12T12:08:00.000Z</time>
      </trkpt>
      <trkpt lat="42.46254167519509792327880859375" lon="1.196699403226375579833984375">
        <ele>1056</ele>
        <time>2020-08-12T12:08:07.000Z</time>
      </trkpt>
      <trkpt lat="42.46268802322447299957275390625" lon="1.1964189447462558746337890625">
        <ele>1056.4000244140625</ele>
        <time>2020-08-12T12:08:16.000Z</time>
      </trkpt>
      <trkpt lat="42.462845183908939361572265625" lon="1.196186430752277374267578125">
        <ele>1057</ele>
        <time>2020-08-12T12:08:25.000Z</time>
      </trkpt>
      <trkpt lat="42.4629479460418224334716796875" lon="1.19599892757833003997802734375">
        <ele>1056.800048828125</ele>
        <time>2020-08-12T12:08:33.000Z</time>
      </trkpt>
      <trkpt lat="42.46297560632228851318359375" lon="1.19591997005045413970947265625">
        <ele>1057.199951171875</ele>
        <time>2020-08-12T12:08:36.000Z</time>
      </trkpt>
      <trkpt lat="42.46301340870559215545654296875" lon="1.1957758851349353790283203125">
        <ele>1058.199951171875</ele>
        <time>2020-08-12T12:08:42.000Z</time>
      </trkpt>
      <trkpt lat="42.46301994659006595611572265625" lon="1.19575317017734050750732421875">
        <ele>1058.4000244140625</ele>
        <time>2020-08-12T12:08:43.000Z</time>
      </trkpt>
      <trkpt lat="42.463071830570697784423828125" lon="1.195628531277179718017578125">
        <ele>1059.4000244140625</ele>
        <time>2020-08-12T12:08:49.000Z</time>
      </trkpt>
      <trkpt lat="42.46310074813663959503173828125" lon="1.195471286773681640625">
        <ele>1060.5999755859375</ele>
        <time>2020-08-12T12:08:56.000Z</time>
      </trkpt>
      <trkpt lat="42.46310275979340076446533203125" lon="1.1954489909112453460693359375">
        <ele>1060.800048828125</ele>
        <time>2020-08-12T12:08:57.000Z</time>
      </trkpt>
      <trkpt lat="42.463102675974369049072265625" lon="1.1952910758554935455322265625">
        <ele>1061.5999755859375</ele>
        <time>2020-08-12T12:09:04.000Z</time>
      </trkpt>
      <trkpt lat="42.46309974230825901031494140625" lon="1.19526802562177181243896484375">
        <ele>1061.800048828125</ele>
        <time>2020-08-12T12:09:05.000Z</time>
      </trkpt>
      <trkpt lat="42.46309253387153148651123046875" lon="1.195166520774364471435546875">
        <ele>1063</ele>
        <time>2020-08-12T12:09:10.000Z</time>
      </trkpt>
      <trkpt lat="42.463083900511264801025390625" lon="1.19510206393897533416748046875">
        <ele>1063.199951171875</ele>
        <time>2020-08-12T12:09:13.000Z</time>
      </trkpt>
      <trkpt lat="42.4630726687610149383544921875" lon="1.1949581466615200042724609375">
        <ele>1064</ele>
        <time>2020-08-12T12:09:20.000Z</time>
      </trkpt>
      <trkpt lat="42.463064454495906829833984375" lon="1.19480551220476627349853515625">
        <ele>1065.199951171875</ele>
        <time>2020-08-12T12:09:27.000Z</time>
      </trkpt>
      <trkpt lat="42.46306135319173336029052734375" lon="1.19469855912029743194580078125">
        <ele>1065.4000244140625</ele>
        <time>2020-08-12T12:09:32.000Z</time>
      </trkpt>
      <trkpt lat="42.463055737316608428955078125" lon="1.1945890076458454132080078125">
        <ele>1066.199951171875</ele>
        <time>2020-08-12T12:09:37.000Z</time>
      </trkpt>
      <trkpt lat="42.463057078421115875244140625" lon="1.1945460923016071319580078125">
        <ele>1066.5999755859375</ele>
        <time>2020-08-12T12:09:39.000Z</time>
      </trkpt>
      <trkpt lat="42.4630468524992465972900390625" lon="1.19442732073366641998291015625">
        <ele>1067.4000244140625</ele>
        <time>2020-08-12T12:09:44.000Z</time>
      </trkpt>
      <trkpt lat="42.4630505405366420745849609375" lon="1.1944059468805789947509765625">
        <ele>1067.5999755859375</ele>
        <time>2020-08-12T12:09:45.000Z</time>
      </trkpt>
      <trkpt lat="42.46305062435567378997802734375" lon="1.19427569210529327392578125">
        <ele>1068.4000244140625</ele>
        <time>2020-08-12T12:09:51.000Z</time>
      </trkpt>
      <trkpt lat="42.46305414475500583648681640625" lon="1.194253899157047271728515625">
        <ele>1068.5999755859375</ele>
        <time>2020-08-12T12:09:52.000Z</time>
      </trkpt>
      <trkpt lat="42.46307526715099811553955078125" lon="1.194123812019824981689453125">
        <ele>1069.800048828125</ele>
        <time>2020-08-12T12:09:58.000Z</time>
      </trkpt>
      <trkpt lat="42.4631117284297943115234375" lon="1.194005124270915985107421875">
        <ele>1070.5999755859375</ele>
        <time>2020-08-12T12:10:04.000Z</time>
      </trkpt>
      <trkpt lat="42.4631170928478240966796875" lon="1.19398509152233600616455078125">
        <ele>1071</ele>
        <time>2020-08-12T12:10:05.000Z</time>
      </trkpt>
      <trkpt lat="42.4631501175463199615478515625" lon="1.19386925362050533294677734375">
        <ele>1072.199951171875</ele>
        <time>2020-08-12T12:10:11.000Z</time>
      </trkpt>
      <trkpt lat="42.463154979050159454345703125" lon="1.1938490532338619232177734375">
        <ele>1072.199951171875</ele>
        <time>2020-08-12T12:10:12.000Z</time>
      </trkpt>
      <trkpt lat="42.4631816335022449493408203125" lon="1.19370413012802600860595703125">
        <ele>1073.199951171875</ele>
        <time>2020-08-12T12:10:19.000Z</time>
      </trkpt>
      <trkpt lat="42.46318481862545013427734375" lon="1.19368317537009716033935546875">
        <ele>1073.4000244140625</ele>
        <time>2020-08-12T12:10:20.000Z</time>
      </trkpt>
      <trkpt lat="42.463188506662845611572265625" lon="1.1935597099363803863525390625">
        <ele>1074.199951171875</ele>
        <time>2020-08-12T12:10:26.000Z</time>
      </trkpt>
      <trkpt lat="42.46317987330257892608642578125" lon="1.1934990249574184417724609375">
        <ele>1074.5999755859375</ele>
        <time>2020-08-12T12:10:29.000Z</time>
      </trkpt>
      <trkpt lat="42.46317484416067600250244140625" lon="1.1934202350676059722900390625">
        <ele>1075.4000244140625</ele>
        <time>2020-08-12T12:10:33.000Z</time>
      </trkpt>
      <trkpt lat="42.46317300014197826385498046875" lon="1.1933783255517482757568359375">
        <ele>1075.5999755859375</ele>
        <time>2020-08-12T12:10:35.000Z</time>
      </trkpt>
      <trkpt lat="42.46316730044782161712646484375" lon="1.19325653649866580963134765625">
        <ele>1076.800048828125</ele>
        <time>2020-08-12T12:10:41.000Z</time>
      </trkpt>
      <trkpt lat="42.46316344477236270904541015625" lon="1.193237006664276123046875">
        <ele>1077</ele>
        <time>2020-08-12T12:10:42.000Z</time>
      </trkpt>
      <trkpt lat="42.463156320154666900634765625" lon="1.19310566224157810211181640625">
        <ele>1077.800048828125</ele>
        <time>2020-08-12T12:10:48.000Z</time>
      </trkpt>
      <trkpt lat="42.46315254829823970794677734375" lon="1.193083114922046661376953125">
        <ele>1078</ele>
        <time>2020-08-12T12:10:49.000Z</time>
      </trkpt>
      <trkpt lat="42.46312287636101245880126953125" lon="1.1929153092205524444580078125">
        <ele>1079.4000244140625</ele>
        <time>2020-08-12T12:10:57.000Z</time>
      </trkpt>
      <trkpt lat="42.46307618916034698486328125" lon="1.19272537529468536376953125">
        <ele>1080.199951171875</ele>
        <time>2020-08-12T12:11:06.000Z</time>
      </trkpt>
      <trkpt lat="42.463070489466190338134765625" lon="1.1927050910890102386474609375">
        <ele>1080.4000244140625</ele>
        <time>2020-08-12T12:11:07.000Z</time>
      </trkpt>
      <trkpt lat="42.46302899904549121856689453125" lon="1.19256167672574520111083984375">
        <ele>1081.5999755859375</ele>
        <time>2020-08-12T12:11:14.000Z</time>
      </trkpt>
      <trkpt lat="42.46301525272428989410400390625" lon="1.1925200186669826507568359375">
        <ele>1081.800048828125</ele>
        <time>2020-08-12T12:11:16.000Z</time>
      </trkpt>
      <trkpt lat="42.4629888497292995452880859375" lon="1.192388422787189483642578125">
        <ele>1082.5999755859375</ele>
        <time>2020-08-12T12:11:22.000Z</time>
      </trkpt>
      <trkpt lat="42.4629777856171131134033203125" lon="1.19232262484729290008544921875">
        <ele>1083</ele>
        <time>2020-08-12T12:11:25.000Z</time>
      </trkpt>
      <trkpt lat="42.46295054443180561065673828125" lon="1.19219002313911914825439453125">
        <ele>1083.800048828125</ele>
        <time>2020-08-12T12:11:31.000Z</time>
      </trkpt>
      <trkpt lat="42.46294333599507808685302734375" lon="1.1921448446810245513916015625">
        <ele>1084.199951171875</ele>
        <time>2020-08-12T12:11:33.000Z</time>
      </trkpt>
      <trkpt lat="42.46289924718439579010009765625" lon="1.191937811672687530517578125">
        <ele>1085</ele>
        <time>2020-08-12T12:11:42.000Z</time>
      </trkpt>
      <trkpt lat="42.4628922902047634124755859375" lon="1.19191534817218780517578125">
        <ele>1085</ele>
        <time>2020-08-12T12:11:43.000Z</time>
      </trkpt>
      <trkpt lat="42.4628416635096073150634765625" lon="1.1917213909327983856201171875">
        <ele>1085.800048828125</ele>
        <time>2020-08-12T12:11:51.000Z</time>
      </trkpt>
      <trkpt lat="42.4627979099750518798828125" lon="1.19155501015484333038330078125">
        <ele>1086</ele>
        <time>2020-08-12T12:11:57.000Z</time>
      </trkpt>
      <trkpt lat="42.4627749435603618621826171875" lon="1.19150438345968723297119140625">
        <ele>1086.199951171875</ele>
        <time>2020-08-12T12:11:59.000Z</time>
      </trkpt>
      <trkpt lat="42.4626847542822360992431640625" lon="1.1913415230810642242431640625">
        <ele>1087</ele>
        <time>2020-08-12T12:12:06.000Z</time>
      </trkpt>
      <trkpt lat="42.4626592732965946197509765625" lon="1.1912949196994304656982421875">
        <ele>1087.4000244140625</ele>
        <time>2020-08-12T12:12:08.000Z</time>
      </trkpt>
      <trkpt lat="42.462584339082241058349609375" lon="1.19115469045937061309814453125">
        <ele>1087.800048828125</ele>
        <time>2020-08-12T12:12:14.000Z</time>
      </trkpt>
      <trkpt lat="42.4625456146895885467529296875" lon="1.19108495302498340606689453125">
        <ele>1088</ele>
        <time>2020-08-12T12:12:17.000Z</time>
      </trkpt>
      <trkpt lat="42.46248300187289714813232421875" lon="1.1909423768520355224609375">
        <ele>1088.4000244140625</ele>
        <time>2020-08-12T12:12:23.000Z</time>
      </trkpt>
      <trkpt lat="42.4624718539416790008544921875" lon="1.1909187398850917816162109375">
        <ele>1088.4000244140625</ele>
        <time>2020-08-12T12:12:24.000Z</time>
      </trkpt>
      <trkpt lat="42.46237403713166713714599609375" lon="1.1907055042684078216552734375">
        <ele>1089</ele>
        <time>2020-08-12T12:12:32.000Z</time>
      </trkpt>
      <trkpt lat="42.46231175959110260009765625" lon="1.190569214522838592529296875">
        <ele>1089.5999755859375</ele>
        <time>2020-08-12T12:12:37.000Z</time>
      </trkpt>
      <trkpt lat="42.46226591058075428009033203125" lon="1.19045429863035678863525390625">
        <ele>1089.4000244140625</ele>
        <time>2020-08-12T12:12:41.000Z</time>
      </trkpt>
      <trkpt lat="42.462166249752044677734375" lon="1.19019244797527790069580078125">
        <ele>1090.5999755859375</ele>
        <time>2020-08-12T12:12:50.000Z</time>
      </trkpt>
      <trkpt lat="42.46215594001114368438720703125" lon="1.19016193784773349761962890625">
        <ele>1091</ele>
        <time>2020-08-12T12:12:51.000Z</time>
      </trkpt>
      <trkpt lat="42.4620656669139862060546875" lon="1.18990369141101837158203125">
        <ele>1091.4000244140625</ele>
        <time>2020-08-12T12:13:00.000Z</time>
      </trkpt>
      <trkpt lat="42.46202317066490650177001953125" lon="1.18980151601135730743408203125">
        <ele>1091.800048828125</ele>
        <time>2020-08-12T12:13:04.000Z</time>
      </trkpt>
      <trkpt lat="42.4619434587657451629638671875" lon="1.18962205946445465087890625">
        <ele>1091.800048828125</ele>
        <time>2020-08-12T12:13:10.000Z</time>
      </trkpt>
      <trkpt lat="42.4618452228605747222900390625" lon="1.18941460736095905303955078125">
        <ele>1091.800048828125</ele>
        <time>2020-08-12T12:13:17.000Z</time>
      </trkpt>
      <trkpt lat="42.4616836197674274444580078125" lon="1.18915711529552936553955078125">
        <ele>1092.199951171875</ele>
        <time>2020-08-12T12:13:26.000Z</time>
      </trkpt>
      <trkpt lat="42.46157960034906864166259765625" lon="1.188976652920246124267578125">
        <ele>1092.4000244140625</ele>
        <time>2020-08-12T12:13:32.000Z</time>
      </trkpt>
      <trkpt lat="42.4614992178976535797119140625" lon="1.18874221108853816986083984375">
        <ele>1093.199951171875</ele>
        <time>2020-08-12T12:13:39.000Z</time>
      </trkpt>
      <trkpt lat="42.4614460766315460205078125" lon="1.1885275505483150482177734375">
        <ele>1094.199951171875</ele>
        <time>2020-08-12T12:13:45.000Z</time>
      </trkpt>
      <trkpt lat="42.461433000862598419189453125" lon="1.18844188749790191650390625">
        <ele>1094.4000244140625</ele>
        <time>2020-08-12T12:13:47.000Z</time>
      </trkpt>
      <trkpt lat="42.4614036642014980316162109375" lon="1.18815866298973560333251953125">
        <ele>1094.199951171875</ele>
        <time>2020-08-12T12:13:54.000Z</time>
      </trkpt>
      <trkpt lat="42.46139134280383586883544921875" lon="1.187902428209781646728515625">
        <ele>1095.199951171875</ele>
        <time>2020-08-12T12:14:01.000Z</time>
      </trkpt>
      <trkpt lat="42.46141179464757442474365234375" lon="1.18765943683683872222900390625">
        <ele>1096.5999755859375</ele>
        <time>2020-08-12T12:14:08.000Z</time>
      </trkpt>
      <trkpt lat="42.46142000891268253326416015625" lon="1.18758802302181720733642578125">
        <ele>1096.800048828125</ele>
        <time>2020-08-12T12:14:10.000Z</time>
      </trkpt>
      <trkpt lat="42.46146393008530139923095703125" lon="1.1872796528041362762451171875">
        <ele>1096.5999755859375</ele>
        <time>2020-08-12T12:14:19.000Z</time>
      </trkpt>
      <trkpt lat="42.46145018376410007476806640625" lon="1.1870409362018108367919921875">
        <ele>1096.5999755859375</ele>
        <time>2020-08-12T12:14:26.000Z</time>
      </trkpt>
      <trkpt lat="42.46135555207729339599609375" lon="1.18667053990066051483154296875">
        <ele>1097.5999755859375</ele>
        <time>2020-08-12T12:14:37.000Z</time>
      </trkpt>
      <trkpt lat="42.4612762592732906341552734375" lon="1.1864277161657810211181640625">
        <ele>1097.5999755859375</ele>
        <time>2020-08-12T12:14:45.000Z</time>
      </trkpt>
      <trkpt lat="42.461233176290988922119140625" lon="1.1863123811781406402587890625">
        <ele>1097.800048828125</ele>
        <time>2020-08-12T12:14:49.000Z</time>
      </trkpt>
      <trkpt lat="42.46115480549633502960205078125" lon="1.1861144006252288818359375">
        <ele>1098.5999755859375</ele>
        <time>2020-08-12T12:14:56.000Z</time>
      </trkpt>
      <trkpt lat="42.4611247144639492034912109375" lon="1.18602882139384746551513671875">
        <ele>1099</ele>
        <time>2020-08-12T12:14:59.000Z</time>
      </trkpt>
      <trkpt lat="42.46107920072972774505615234375" lon="1.1858567409217357635498046875">
        <ele>1099.800048828125</ele>
        <time>2020-08-12T12:15:05.000Z</time>
      </trkpt>
      <trkpt lat="42.46107115410268306732177734375" lon="1.18582765571773052215576171875">
        <ele>1100</ele>
        <time>2020-08-12T12:15:06.000Z</time>
      </trkpt>
      <trkpt lat="42.46102605946362018585205078125" lon="1.18567678146064281463623046875">
        <ele>1101.4000244140625</ele>
        <time>2020-08-12T12:15:12.000Z</time>
      </trkpt>
      <trkpt lat="42.46101600117981433868408203125" lon="1.18565213866531848907470703125">
        <ele>1101.800048828125</ele>
        <time>2020-08-12T12:15:13.000Z</time>
      </trkpt>
      <trkpt lat="42.46098582632839679718017578125" lon="1.18555423803627490997314453125">
        <ele>1102.4000244140625</ele>
        <time>2020-08-12T12:15:17.000Z</time>
      </trkpt>
      <trkpt lat="42.46095732785761356353759765625" lon="1.18548835627734661102294921875">
        <ele>1103.4000244140625</ele>
        <time>2020-08-12T12:15:20.000Z</time>
      </trkpt>
      <trkpt lat="42.46092933230102062225341796875" lon="1.18544527329504489898681640625">
        <ele>1104</ele>
        <time>2020-08-12T12:15:22.000Z</time>
      </trkpt>
      <trkpt lat="42.4608665518462657928466796875" lon="1.18533798493444919586181640625">
        <ele>1105</ele>
        <time>2020-08-12T12:15:27.000Z</time>
      </trkpt>
      <trkpt lat="42.46081106364727020263671875" lon="1.185222566127777099609375">
        <ele>1106</ele>
        <time>2020-08-12T12:15:32.000Z</time>
      </trkpt>
      <trkpt lat="42.4607652984559535980224609375" lon="1.1851261742413043975830078125">
        <ele>1106.800048828125</ele>
        <time>2020-08-12T12:15:36.000Z</time>
      </trkpt>
      <trkpt lat="42.460753731429576873779296875" lon="1.18510144762694835662841796875">
        <ele>1107</ele>
        <time>2020-08-12T12:15:37.000Z</time>
      </trkpt>
      <trkpt lat="42.4606392346322536468505859375" lon="1.18490749038755893707275390625">
        <ele>1108</ele>
        <time>2020-08-12T12:15:46.000Z</time>
      </trkpt>
      <trkpt lat="42.4606258235871791839599609375" lon="1.1848924867808818817138671875">
        <ele>1108.5999755859375</ele>
        <time>2020-08-12T12:15:47.000Z</time>
      </trkpt>
      <trkpt lat="42.4605279229581356048583984375" lon="1.184788048267364501953125">
        <ele>1109.4000244140625</ele>
        <time>2020-08-12T12:15:53.000Z</time>
      </trkpt>
      <trkpt lat="42.4604444392025470733642578125" lon="1.18469174019992351531982421875">
        <ele>1109.5999755859375</ele>
        <time>2020-08-12T12:15:58.000Z</time>
      </trkpt>
      <trkpt lat="42.460395991802215576171875" lon="1.18462434969842433929443359375">
        <ele>1109.800048828125</ele>
        <time>2020-08-12T12:16:01.000Z</time>
      </trkpt>
      <trkpt lat="42.46028007008135318756103515625" lon="1.18449099361896514892578125">
        <ele>1110</ele>
        <time>2020-08-12T12:16:07.000Z</time>
      </trkpt>
      <trkpt lat="42.46010757051408290863037109375" lon="1.1842779256403446197509765625">
        <ele>1109.800048828125</ele>
        <time>2020-08-12T12:16:16.000Z</time>
      </trkpt>
      <trkpt lat="42.45992719195783138275146484375" lon="1.18409679271280765533447265625">
        <ele>1110.199951171875</ele>
        <time>2020-08-12T12:16:25.000Z</time>
      </trkpt>
      <trkpt lat="42.45985125191509723663330078125" lon="1.18401314131915569305419921875">
        <ele>1110.800048828125</ele>
        <time>2020-08-12T12:16:29.000Z</time>
      </trkpt>
      <trkpt lat="42.4597745575010776519775390625" lon="1.1839289031922817230224609375">
        <ele>1111</ele>
        <time>2020-08-12T12:16:33.000Z</time>
      </trkpt>
      <trkpt lat="42.45960499159991741180419921875" lon="1.18374290876090526580810546875">
        <ele>1112</ele>
        <time>2020-08-12T12:16:42.000Z</time>
      </trkpt>
      <trkpt lat="42.4595685303211212158203125" lon="1.18370535783469676971435546875">
        <ele>1112.199951171875</ele>
        <time>2020-08-12T12:16:44.000Z</time>
      </trkpt>
      <trkpt lat="42.45939888060092926025390625" lon="1.183533780276775360107421875">
        <ele>1112.800048828125</ele>
        <time>2020-08-12T12:16:53.000Z</time>
      </trkpt>
      <trkpt lat="42.4593403749167919158935546875" lon="1.1834772862493991851806640625">
        <ele>1113</ele>
        <time>2020-08-12T12:16:56.000Z</time>
      </trkpt>
      <trkpt lat="42.45920844376087188720703125" lon="1.18333890102803707122802734375">
        <ele>1114</ele>
        <time>2020-08-12T12:17:03.000Z</time>
      </trkpt>
      <trkpt lat="42.4590671248733997344970703125" lon="1.183215938508510589599609375">
        <ele>1115.199951171875</ele>
        <time>2020-08-12T12:17:10.000Z</time>
      </trkpt>
      <trkpt lat="42.4589112214744091033935546875" lon="1.183079816401004791259765625">
        <ele>1116.4000244140625</ele>
        <time>2020-08-12T12:17:18.000Z</time>
      </trkpt>
      <trkpt lat="42.45873427949845790863037109375" lon="1.18292617611587047576904296875">
        <ele>1117.5999755859375</ele>
        <time>2020-08-12T12:17:27.000Z</time>
      </trkpt>
      <trkpt lat="42.45852506719529628753662109375" lon="1.182725094258785247802734375">
        <ele>1118.800048828125</ele>
        <time>2020-08-12T12:17:38.000Z</time>
      </trkpt>
      <trkpt lat="42.458388023078441619873046875" lon="1.1825644969940185546875">
        <ele>1119.800048828125</ele>
        <time>2020-08-12T12:17:46.000Z</time>
      </trkpt>
      <trkpt lat="42.45829381048679351806640625" lon="1.18242611177265644073486328125">
        <ele>1120.800048828125</ele>
        <time>2020-08-12T12:17:52.000Z</time>
      </trkpt>
      <trkpt lat="42.4582349695265293121337890625" lon="1.1823282949626445770263671875">
        <ele>1121.199951171875</ele>
        <time>2020-08-12T12:17:56.000Z</time>
      </trkpt>
      <trkpt lat="42.45819381438195705413818359375" lon="1.18225780315697193145751953125">
        <ele>1121.5999755859375</ele>
        <time>2020-08-12T12:17:59.000Z</time>
      </trkpt>
      <trkpt lat="42.45816766284406185150146484375" lon="1.18220985867083072662353515625">
        <ele>1121.800048828125</ele>
        <time>2020-08-12T12:18:01.000Z</time>
      </trkpt>
      <trkpt lat="42.458111755549907684326171875" lon="1.18208094500005245208740234375">
        <ele>1122.4000244140625</ele>
        <time>2020-08-12T12:18:06.000Z</time>
      </trkpt>
      <trkpt lat="42.45806045830249786376953125" lon="1.1819542944431304931640625">
        <ele>1123</ele>
        <time>2020-08-12T12:18:11.000Z</time>
      </trkpt>
      <trkpt lat="42.45803095400333404541015625" lon="1.18187642656266689300537109375">
        <ele>1123.4000244140625</ele>
        <time>2020-08-12T12:18:14.000Z</time>
      </trkpt>
      <trkpt lat="42.45798108167946338653564453125" lon="1.18174231611192226409912109375">
        <ele>1124</ele>
        <time>2020-08-12T12:18:19.000Z</time>
      </trkpt>
      <trkpt lat="42.45794369839131832122802734375" lon="1.181642152369022369384765625">
        <ele>1124.800048828125</ele>
        <time>2020-08-12T12:18:23.000Z</time>
      </trkpt>
      <trkpt lat="42.45790815912187099456787109375" lon="1.18157685734331607818603515625">
        <ele>1125.199951171875</ele>
        <time>2020-08-12T12:18:26.000Z</time>
      </trkpt>
      <trkpt lat="42.45786004699766635894775390625" lon="1.18150762282311916351318359375">
        <ele>1126</ele>
        <time>2020-08-12T12:18:30.000Z</time>
      </trkpt>
      <trkpt lat="42.4578406848013401031494140625" lon="1.1814723350107669830322265625">
        <ele>1126.4000244140625</ele>
        <time>2020-08-12T12:18:32.000Z</time>
      </trkpt>
      <trkpt lat="42.45783381164073944091796875" lon="1.1814217083156108856201171875">
        <ele>1126.5999755859375</ele>
        <time>2020-08-12T12:18:36.000Z</time>
      </trkpt>
      <trkpt lat="42.45785451494157314300537109375" lon="1.1813090555369853973388671875">
        <ele>1126</ele>
        <time>2020-08-12T12:18:40.000Z</time>
      </trkpt>
      <trkpt lat="42.4578814208507537841796875" lon="1.1811974085867404937744140625">
        <ele>1125.199951171875</ele>
        <time>2020-08-12T12:18:43.000Z</time>
      </trkpt>
      <trkpt lat="42.45793028734624385833740234375" lon="1.18111048825085163116455078125">
        <ele>1123.800048828125</ele>
        <time>2020-08-12T12:18:46.000Z</time>
      </trkpt>
      <trkpt lat="42.45796046219766139984130859375" lon="1.18103094398975372314453125">
        <ele>1122.4000244140625</ele>
        <time>2020-08-12T12:18:49.000Z</time>
      </trkpt>
      <trkpt lat="42.45795677416026592254638671875" lon="1.18100269697606563568115234375">
        <ele>1122</ele>
        <time>2020-08-12T12:18:50.000Z</time>
      </trkpt>
      <trkpt lat="42.4579432792961597442626953125" lon="1.1809747852385044097900390625">
        <ele>1121.5999755859375</ele>
        <time>2020-08-12T12:18:51.000Z</time>
      </trkpt>
      <trkpt lat="42.45792743749916553497314453125" lon="1.1809442751109600067138671875">
        <ele>1121.199951171875</ele>
        <time>2020-08-12T12:18:52.000Z</time>
      </trkpt>
      <trkpt lat="42.4578933231532573699951171875" lon="1.1808805726468563079833984375">
        <ele>1120.800048828125</ele>
        <time>2020-08-12T12:18:54.000Z</time>
      </trkpt>
      <trkpt lat="42.45785719715058803558349609375" lon="1.180809326469898223876953125">
        <ele>1120.5999755859375</ele>
        <time>2020-08-12T12:18:57.000Z</time>
      </trkpt>
      <trkpt lat="42.45782308280467987060546875" lon="1.1807699315249919891357421875">
        <ele>1120</ele>
        <time>2020-08-12T12:19:00.000Z</time>
      </trkpt>
      <trkpt lat="42.45781193487346172332763671875" lon="1.1807481385767459869384765625">
        <ele>1119.800048828125</ele>
        <time>2020-08-12T12:19:02.000Z</time>
      </trkpt>
      <trkpt lat="42.457811348140239715576171875" lon="1.1807451210916042327880859375">
        <ele>1119.4000244140625</ele>
        <time>2020-08-12T12:19:09.000Z</time>
      </trkpt>
      <trkpt lat="42.45781059376895427703857421875" lon="1.1807464621961116790771484375">
        <ele>1119.4000244140625</ele>
        <time>2020-08-12T12:19:21.000Z</time>
      </trkpt>
      <trkpt lat="42.457810677587985992431640625" lon="1.1807457916438579559326171875">
        <ele>1119.4000244140625</ele>
        <time>2020-08-12T12:19:36.000Z</time>
      </trkpt>
      <trkpt lat="42.45781227014958858489990234375" lon="1.1807390861213207244873046875">
        <ele>1119.199951171875</ele>
        <time>2020-08-12T12:19:46.000Z</time>
      </trkpt>
      <trkpt lat="42.45781243778765201568603515625" lon="1.18073062039911746978759765625">
        <ele>1119.199951171875</ele>
        <time>2020-08-12T12:19:49.000Z</time>
      </trkpt>
      <trkpt lat="42.457814030349254608154296875" lon="1.18073011748492717742919921875">
        <ele>1119.4000244140625</ele>
        <time>2020-08-12T12:20:10.000Z</time>
      </trkpt>
      <trkpt lat="42.457814030349254608154296875" lon="1.18073011748492717742919921875">
        <ele>1119.4000244140625</ele>
        <time>2020-08-12T12:20:11.000Z</time>
      </trkpt>
      <trkpt lat="42.4578095041215419769287109375" lon="1.180719472467899322509765625">
        <ele>1119.4000244140625</ele>
        <time>2020-08-12T12:20:30.000Z</time>
      </trkpt>
      <trkpt lat="42.45773079805076122283935546875" lon="1.18059600703418254852294921875">
        <ele>1119</ele>
        <time>2020-08-12T12:20:35.000Z</time>
      </trkpt>
      <trkpt lat="42.45769810862839221954345703125" lon="1.18054420687258243560791015625">
        <ele>1118.4000244140625</ele>
        <time>2020-08-12T12:20:37.000Z</time>
      </trkpt>
      <trkpt lat="42.45765921659767627716064453125" lon="1.18048117496073246002197265625">
        <ele>1116.800048828125</ele>
        <time>2020-08-12T12:20:40.000Z</time>
      </trkpt>
      <trkpt lat="42.45764496736228466033935546875" lon="1.1804655008018016815185546875">
        <ele>1116.5999755859375</ele>
        <time>2020-08-12T12:20:41.000Z</time>
      </trkpt>
      <trkpt lat="42.45762736536562442779541015625" lon="1.18044027127325534820556640625">
        <ele>1115.800048828125</ele>
        <time>2020-08-12T12:20:44.000Z</time>
      </trkpt>
      <trkpt lat="42.45762568898499011993408203125" lon="1.18043859489262104034423828125">
        <ele>1115.800048828125</ele>
        <time>2020-08-12T12:20:45.000Z</time>
      </trkpt>
      <trkpt lat="42.45760389603674411773681640625" lon="1.18040389381349086761474609375">
        <ele>1115.4000244140625</ele>
        <time>2020-08-12T12:20:51.000Z</time>
      </trkpt>
      <trkpt lat="42.45752309449017047882080078125" lon="1.18030163459479808807373046875">
        <ele>1115.199951171875</ele>
        <time>2020-08-12T12:20:56.000Z</time>
      </trkpt>
      <trkpt lat="42.45744665153324604034423828125" lon="1.18023240007460117340087890625">
        <ele>1114.5999755859375</ele>
        <time>2020-08-12T12:20:59.000Z</time>
      </trkpt>
      <trkpt lat="42.457427121698856353759765625" lon="1.1802147142589092254638671875">
        <ele>1114.4000244140625</ele>
        <time>2020-08-12T12:21:00.000Z</time>
      </trkpt>
      <trkpt lat="42.4574182368814945220947265625" lon="1.1802103556692600250244140625">
        <ele>1114</ele>
        <time>2020-08-12T12:21:03.000Z</time>
      </trkpt>
      <trkpt lat="42.45758512057363986968994140625" lon="1.18028721772134304046630859375">
        <ele>1116.199951171875</ele>
        <time>2020-08-13T05:08:37.000Z</time>
      </trkpt>
      <trkpt lat="42.45763088576495647430419921875" lon="1.18035226128995418548583984375">
        <ele>1117</ele>
        <time>2020-08-13T05:08:47.000Z</time>
      </trkpt>
      <trkpt lat="42.45767396874725818634033203125" lon="1.18044530041515827178955078125">
        <ele>1118</ele>
        <time>2020-08-13T05:08:55.000Z</time>
      </trkpt>
      <trkpt lat="42.45767958462238311767578125" lon="1.18045401759445667266845703125">
        <ele>1118.199951171875</ele>
        <time>2020-08-13T05:08:56.000Z</time>
      </trkpt>
      <trkpt lat="42.45770665816962718963623046875" lon="1.18052626959979534149169921875">
        <ele>1119.4000244140625</ele>
        <time>2020-08-13T05:09:03.000Z</time>
      </trkpt>
      <trkpt lat="42.4577285349369049072265625" lon="1.18055745027959346771240234375">
        <ele>1119.800048828125</ele>
        <time>2020-08-13T05:09:07.000Z</time>
      </trkpt>
      <trkpt lat="42.45775426737964153289794921875" lon="1.1806043051183223724365234375">
        <ele>1120.4000244140625</ele>
        <time>2020-08-13T05:09:12.000Z</time>
      </trkpt>
      <trkpt lat="42.4577808380126953125" lon="1.1806670017540454864501953125">
        <ele>1121</ele>
        <time>2020-08-13T05:09:17.000Z</time>
      </trkpt>
      <trkpt lat="42.4577875435352325439453125" lon="1.18067882023751735687255859375">
        <ele>1121.199951171875</ele>
        <time>2020-08-13T05:09:18.000Z</time>
      </trkpt>
      <trkpt lat="42.45780698955059051513671875" lon="1.18070865981280803680419921875">
        <ele>1121.5999755859375</ele>
        <time>2020-08-13T05:09:21.000Z</time>
      </trkpt>
      <trkpt lat="42.4578319676220417022705078125" lon="1.18076012469828128814697265625">
        <ele>1122.199951171875</ele>
        <time>2020-08-13T05:09:26.000Z</time>
      </trkpt>
      <trkpt lat="42.457867674529552459716796875" lon="1.1808534152805805206298828125">
        <ele>1122.800048828125</ele>
        <time>2020-08-13T05:09:33.000Z</time>
      </trkpt>
      <trkpt lat="42.45787513442337512969970703125" lon="1.18087914772331714630126953125">
        <ele>1123.199951171875</ele>
        <time>2020-08-13T05:09:35.000Z</time>
      </trkpt>
      <trkpt lat="42.45791964232921600341796875" lon="1.18097822181880474090576171875">
        <ele>1123.5999755859375</ele>
        <time>2020-08-13T05:09:43.000Z</time>
      </trkpt>
      <trkpt lat="42.4579375796020030975341796875" lon="1.1810274235904216766357421875">
        <ele>1124</ele>
        <time>2020-08-13T05:09:47.000Z</time>
      </trkpt>
      <trkpt lat="42.45793615467846393585205078125" lon="1.18108349852263927459716796875">
        <ele>1124.4000244140625</ele>
        <time>2020-08-13T05:09:51.000Z</time>
      </trkpt>
      <trkpt lat="42.45793514885008335113525390625" lon="1.18109120987355709075927734375">
        <ele>1124.5999755859375</ele>
        <time>2020-08-13T05:09:52.000Z</time>
      </trkpt>
      <trkpt lat="42.457928694784641265869140625" lon="1.18112121708691120147705078125">
        <ele>1124.800048828125</ele>
        <time>2020-08-13T05:09:55.000Z</time>
      </trkpt>
      <trkpt lat="42.45792391709983348846435546875" lon="1.18114217184484004974365234375">
        <ele>1125.199951171875</ele>
        <time>2020-08-13T05:09:57.000Z</time>
      </trkpt>
      <trkpt lat="42.45789390988647937774658203125" lon="1.18123336695134639739990234375">
        <ele>1126</ele>
        <time>2020-08-13T05:10:07.000Z</time>
      </trkpt>
      <trkpt lat="42.45789240114390850067138671875" lon="1.18124074302613735198974609375">
        <ele>1126.199951171875</ele>
        <time>2020-08-13T05:10:08.000Z</time>
      </trkpt>
      <trkpt lat="42.4578829295933246612548828125" lon="1.18130561895668506622314453125">
        <ele>1127.5999755859375</ele>
        <time>2020-08-13T05:10:15.000Z</time>
      </trkpt>
      <trkpt lat="42.4578644894063472747802734375" lon="1.18137150071561336517333984375">
        <ele>1128.199951171875</ele>
        <time>2020-08-13T05:10:23.000Z</time>
      </trkpt>
      <trkpt lat="42.4578545987606048583984375" lon="1.181408129632472991943359375">
        <ele>1128.800048828125</ele>
        <time>2020-08-13T05:10:27.000Z</time>
      </trkpt>
      <trkpt lat="42.4578480608761310577392578125" lon="1.1814760230481624603271484375">
        <ele>1129.4000244140625</ele>
        <time>2020-08-13T05:10:34.000Z</time>
      </trkpt>
      <trkpt lat="42.45784462429583072662353515625" lon="1.1814773641526699066162109375">
        <ele>1129.800048828125</ele>
        <time>2020-08-13T05:10:41.000Z</time>
      </trkpt>
      <trkpt lat="42.4578443728387355804443359375" lon="1.1814850755035877227783203125">
        <ele>1129.5999755859375</ele>
        <time>2020-08-13T05:10:52.000Z</time>
      </trkpt>
      <trkpt lat="42.4578500725328922271728515625" lon="1.18149991147220134735107421875">
        <ele>1129.5999755859375</ele>
        <time>2020-08-13T05:10:59.000Z</time>
      </trkpt>
      <trkpt lat="42.45786130428314208984375" lon="1.181512065231800079345703125">
        <ele>1129.5999755859375</ele>
        <time>2020-08-13T05:11:00.000Z</time>
      </trkpt>
      <trkpt lat="42.457949817180633544921875" lon="1.1816393025219440460205078125">
        <ele>1129.199951171875</ele>
        <time>2020-08-13T05:11:05.000Z</time>
      </trkpt>
      <trkpt lat="42.45804092846810817718505859375" lon="1.1818696372210979461669921875">
        <ele>1128</ele>
        <time>2020-08-13T05:11:10.000Z</time>
      </trkpt>
      <trkpt lat="42.4580609612166881561279296875" lon="1.18192068301141262054443359375">
        <ele>1127.4000244140625</ele>
        <time>2020-08-13T05:11:11.000Z</time>
      </trkpt>
      <trkpt lat="42.4580998532474040985107421875" lon="1.18202109821140766143798828125">
        <ele>1127</ele>
        <time>2020-08-13T05:11:13.000Z</time>
      </trkpt>
      <trkpt lat="42.4581213109195232391357421875" lon="1.182073317468166351318359375">
        <ele>1126.800048828125</ele>
        <time>2020-08-13T05:11:14.000Z</time>
      </trkpt>
      <trkpt lat="42.4581992626190185546875" lon="1.18223550729453563690185546875">
        <ele>1126</ele>
        <time>2020-08-13T05:11:17.000Z</time>
      </trkpt>
      <trkpt lat="42.45822968892753124237060546875" lon="1.18229216895997524261474609375">
        <ele>1125.800048828125</ele>
        <time>2020-08-13T05:11:18.000Z</time>
      </trkpt>
      <trkpt lat="42.4583285115659236907958984375" lon="1.182457543909549713134765625">
        <ele>1124.800048828125</ele>
        <time>2020-08-13T05:11:21.000Z</time>
      </trkpt>
      <trkpt lat="42.45845231227576732635498046875" lon="1.18260540068149566650390625">
        <ele>1124.4000244140625</ele>
        <time>2020-08-13T05:11:24.000Z</time>
      </trkpt>
      <trkpt lat="42.4585407413542270660400390625" lon="1.1826960928738117218017578125">
        <ele>1123.5999755859375</ele>
        <time>2020-08-13T05:11:26.000Z</time>
      </trkpt>
      <trkpt lat="42.4587241373956203460693359375" lon="1.18287940509617328643798828125">
        <ele>1122.199951171875</ele>
        <time>2020-08-13T05:11:30.000Z</time>
      </trkpt>
      <trkpt lat="42.45887375436723232269287109375" lon="1.1830156110227108001708984375">
        <ele>1121</ele>
        <time>2020-08-13T05:11:33.000Z</time>
      </trkpt>
      <trkpt lat="42.45902915485203266143798828125" lon="1.18314050137996673583984375">
        <ele>1119.800048828125</ele>
        <time>2020-08-13T05:11:36.000Z</time>
      </trkpt>
      <trkpt lat="42.45915035717189311981201171875" lon="1.18324988521635532379150390625">
        <ele>1118.800048828125</ele>
        <time>2020-08-13T05:11:39.000Z</time>
      </trkpt>
      <trkpt lat="42.45917449705302715301513671875" lon="1.1832727678120136260986328125">
        <ele>1118.5999755859375</ele>
        <time>2020-08-13T05:11:40.000Z</time>
      </trkpt>
      <trkpt lat="42.45918857865035533905029296875" lon="1.18328726850450038909912109375">
        <ele>1118.4000244140625</ele>
        <time>2020-08-13T05:11:42.000Z</time>
      </trkpt>
      <trkpt lat="42.4591841362416744232177734375" lon="1.18328408338129520416259765625">
        <ele>1118</ele>
        <time>2020-08-13T05:11:53.000Z</time>
      </trkpt>
      <trkpt lat="42.45918455533683300018310546875" lon="1.183282993733882904052734375">
        <ele>1118</ele>
        <time>2020-08-13T05:11:54.000Z</time>
      </trkpt>
      <trkpt lat="42.45918338187038898468017578125" lon="1.1832828260958194732666015625">
        <ele>1117.800048828125</ele>
        <time>2020-08-13T05:12:07.000Z</time>
      </trkpt>
      <trkpt lat="42.45918656699359416961669921875" lon="1.18327729403972625732421875">
        <ele>1117.800048828125</ele>
        <time>2020-08-13T05:12:14.000Z</time>
      </trkpt>
      <trkpt lat="42.45918966829776763916015625" lon="1.183275617659091949462890625">
        <ele>1118</ele>
        <time>2020-08-13T05:12:38.000Z</time>
      </trkpt>
      <trkpt lat="42.45918991975486278533935546875" lon="1.18327620439231395721435546875">
        <ele>1117.800048828125</ele>
        <time>2020-08-13T05:12:48.000Z</time>
      </trkpt>
      <trkpt lat="42.45918975211679935455322265625" lon="1.18327788077294826507568359375">
        <ele>1118</ele>
        <time>2020-08-13T05:13:11.000Z</time>
      </trkpt>
      <trkpt lat="42.45918941684067249298095703125" lon="1.1832808144390583038330078125">
        <ele>1117.800048828125</ele>
        <time>2020-08-13T05:13:38.000Z</time>
      </trkpt>
      <trkpt lat="42.4591898359358310699462890625" lon="1.1832811497151851654052734375">
        <ele>1117.800048828125</ele>
        <time>2020-08-13T05:13:45.000Z</time>
      </trkpt>
      <trkpt lat="42.45919511653482913970947265625" lon="1.183284334838390350341796875">
        <ele>1117.800048828125</ele>
        <time>2020-08-13T05:13:59.000Z</time>
      </trkpt>
      <trkpt lat="42.4592055939137935638427734375" lon="1.18329145945608615875244140625">
        <ele>1117.800048828125</ele>
        <time>2020-08-13T05:14:00.000Z</time>
      </trkpt>
      <trkpt lat="42.45927390642464160919189453125" lon="1.18336102925240993499755859375">
        <ele>1117.5999755859375</ele>
        <time>2020-08-13T05:14:04.000Z</time>
      </trkpt>
      <trkpt lat="42.45929938741028308868408203125" lon="1.18338533677160739898681640625">
        <ele>1117.5999755859375</ele>
        <time>2020-08-13T05:14:05.000Z</time>
      </trkpt>
      <trkpt lat="42.45946568436920642852783203125" lon="1.18354492820799350738525390625">
        <ele>1116.4000244140625</ele>
        <time>2020-08-13T05:14:10.000Z</time>
      </trkpt>
      <trkpt lat="42.45950407348573207855224609375" lon="1.18358348496258258819580078125">
        <ele>1116.199951171875</ele>
        <time>2020-08-13T05:14:11.000Z</time>
      </trkpt>
      <trkpt lat="42.45954279787838459014892578125" lon="1.183626651763916015625">
        <ele>1116.199951171875</ele>
        <time>2020-08-13T05:14:12.000Z</time>
      </trkpt>
      <trkpt lat="42.45962678454816341400146484375" lon="1.18371675722301006317138671875">
        <ele>1115.5999755859375</ele>
        <time>2020-08-13T05:14:14.000Z</time>
      </trkpt>
      <trkpt lat="42.45976156555116176605224609375" lon="1.18386142887175083160400390625">
        <ele>1115</ele>
        <time>2020-08-13T05:14:17.000Z</time>
      </trkpt>
      <trkpt lat="42.45990187861025333404541015625" lon="1.18400341831147670745849609375">
        <ele>1114.4000244140625</ele>
        <time>2020-08-13T05:14:20.000Z</time>
      </trkpt>
      <trkpt lat="42.46014989912509918212890625" lon="1.1842544563114643096923828125">
        <ele>1113.199951171875</ele>
        <time>2020-08-13T05:14:25.000Z</time>
      </trkpt>
      <trkpt lat="42.460415102541446685791015625" lon="1.1845786683261394500732421875">
        <ele>1112.5999755859375</ele>
        <time>2020-08-13T05:14:31.000Z</time>
      </trkpt>
      <trkpt lat="42.460582070052623748779296875" lon="1.18477438576519489288330078125">
        <ele>1112.4000244140625</ele>
        <time>2020-08-13T05:14:35.000Z</time>
      </trkpt>
      <trkpt lat="42.4607384763658046722412109375" lon="1.1849986016750335693359375">
        <ele>1111.5999755859375</ele>
        <time>2020-08-13T05:14:39.000Z</time>
      </trkpt>
      <trkpt lat="42.460775189101696014404296875" lon="1.185065992176532745361328125">
        <ele>1111.4000244140625</ele>
        <time>2020-08-13T05:14:40.000Z</time>
      </trkpt>
      <trkpt lat="42.4608903564512729644775390625" lon="1.18527528829872608184814453125">
        <ele>1109.800048828125</ele>
        <time>2020-08-13T05:14:43.000Z</time>
      </trkpt>
      <trkpt lat="42.46100694872438907623291015625" lon="1.1855067126452922821044921875">
        <ele>1108.199951171875</ele>
        <time>2020-08-13T05:14:46.000Z</time>
      </trkpt>
      <trkpt lat="42.4610747583210468292236328125" lon="1.18569203652441501617431640625">
        <ele>1106.800048828125</ele>
        <time>2020-08-13T05:14:48.000Z</time>
      </trkpt>
      <trkpt lat="42.4611337669193744659423828125" lon="1.18589504621922969818115234375">
        <ele>1105</ele>
        <time>2020-08-13T05:14:50.000Z</time>
      </trkpt>
      <trkpt lat="42.461167462170124053955078125" lon="1.1860042624175548553466796875">
        <ele>1103.5999755859375</ele>
        <time>2020-08-13T05:14:51.000Z</time>
      </trkpt>
      <trkpt lat="42.4612420611083507537841796875" lon="1.186227388679981231689453125">
        <ele>1102.199951171875</ele>
        <time>2020-08-13T05:14:53.000Z</time>
      </trkpt>
      <trkpt lat="42.46131934225559234619140625" lon="1.1864495091140270233154296875">
        <ele>1101.4000244140625</ele>
        <time>2020-08-13T05:14:55.000Z</time>
      </trkpt>
      <trkpt lat="42.46142872609198093414306640625" lon="1.1867666803300380706787109375">
        <ele>1100</ele>
        <time>2020-08-13T05:14:58.000Z</time>
      </trkpt>
      <trkpt lat="42.46151246130466461181640625" lon="1.1871556006371974945068359375">
        <ele>1099</ele>
        <time>2020-08-13T05:15:02.000Z</time>
      </trkpt>
      <trkpt lat="42.46151824481785297393798828125" lon="1.18724805302917957305908203125">
        <ele>1098.800048828125</ele>
        <time>2020-08-13T05:15:03.000Z</time>
      </trkpt>
      <trkpt lat="42.46149846352636814117431640625" lon="1.18750889785587787628173828125">
        <ele>1098</ele>
        <time>2020-08-13T05:15:06.000Z</time>
      </trkpt>
      <trkpt lat="42.461489327251911163330078125" lon="1.1875881068408489227294921875">
        <ele>1097.800048828125</ele>
        <time>2020-08-13T05:15:07.000Z</time>
      </trkpt>
      <trkpt lat="42.4614809453487396240234375" lon="1.187663041055202484130859375">
        <ele>1097.800048828125</ele>
        <time>2020-08-13T05:15:08.000Z</time>
      </trkpt>
      <trkpt lat="42.46146359480917453765869140625" lon="1.1881201900541782379150390625">
        <ele>1097.4000244140625</ele>
        <time>2020-08-13T05:15:14.000Z</time>
      </trkpt>
      <trkpt lat="42.46146828867495059967041015625" lon="1.188206858932971954345703125">
        <ele>1097</ele>
        <time>2020-08-13T05:15:15.000Z</time>
      </trkpt>
      <trkpt lat="42.4614968709647655487060546875" lon="1.188470385968685150146484375">
        <ele>1095.800048828125</ele>
        <time>2020-08-13T05:15:18.000Z</time>
      </trkpt>
      <trkpt lat="42.4615277163684368133544921875" lon="1.18863358162343502044677734375">
        <ele>1095.4000244140625</ele>
        <time>2020-08-13T05:15:20.000Z</time>
      </trkpt>
      <trkpt lat="42.46162938885390758514404296875" lon="1.188947148621082305908203125">
        <ele>1095</ele>
        <time>2020-08-13T05:15:24.000Z</time>
      </trkpt>
      <trkpt lat="42.4616695381700992584228515625" lon="1.189024262130260467529296875">
        <ele>1094.800048828125</ele>
        <time>2020-08-13T05:15:25.000Z</time>
      </trkpt>
      <trkpt lat="42.4617546983063220977783203125" lon="1.18916985578835010528564453125">
        <ele>1094.199951171875</ele>
        <time>2020-08-13T05:15:27.000Z</time>
      </trkpt>
      <trkpt lat="42.46191152371466159820556640625" lon="1.1894361488521099090576171875">
        <ele>1093.800048828125</ele>
        <time>2020-08-13T05:15:31.000Z</time>
      </trkpt>
      <trkpt lat="42.461946643888950347900390625" lon="1.18949943222105503082275390625">
        <ele>1093.800048828125</ele>
        <time>2020-08-13T05:15:32.000Z</time>
      </trkpt>
      <trkpt lat="42.4621198140084743499755859375" lon="1.18985247798264026641845703125">
        <ele>1093.199951171875</ele>
        <time>2020-08-13T05:15:38.000Z</time>
      </trkpt>
      <trkpt lat="42.46225635521113872528076171875" lon="1.19022044353187084197998046875">
        <ele>1092.800048828125</ele>
        <time>2020-08-13T05:15:44.000Z</time>
      </trkpt>
      <trkpt lat="42.46227798052132129669189453125" lon="1.19029269553720951080322265625">
        <ele>1092.5999755859375</ele>
        <time>2020-08-13T05:15:45.000Z</time>
      </trkpt>
      <trkpt lat="42.46241896413266658782958984375" lon="1.19062964804470539093017578125">
        <ele>1091.5999755859375</ele>
        <time>2020-08-13T05:15:50.000Z</time>
      </trkpt>
      <trkpt lat="42.46253698132932186126708984375" lon="1.1908895708620548248291015625">
        <ele>1090.4000244140625</ele>
        <time>2020-08-13T05:15:54.000Z</time>
      </trkpt>
      <trkpt lat="42.46262096799910068511962890625" lon="1.191068775951862335205078125">
        <ele>1089.800048828125</ele>
        <time>2020-08-13T05:15:57.000Z</time>
      </trkpt>
      <trkpt lat="42.4627169407904148101806640625" lon="1.19125661440193653106689453125">
        <ele>1089.4000244140625</ele>
        <time>2020-08-13T05:16:00.000Z</time>
      </trkpt>
      <trkpt lat="42.46285247616469860076904296875" lon="1.19150656275451183319091796875">
        <ele>1088.199951171875</ele>
        <time>2020-08-13T05:16:04.000Z</time>
      </trkpt>
      <trkpt lat="42.4629114009439945220947265625" lon="1.19164218194782733917236328125">
        <ele>1088</ele>
        <time>2020-08-13T05:16:06.000Z</time>
      </trkpt>
      <trkpt lat="42.46298340149223804473876953125" lon="1.1919455230236053466796875">
        <ele>1087.199951171875</ele>
        <time>2020-08-13T05:16:10.000Z</time>
      </trkpt>
      <trkpt lat="42.46301692910492420196533203125" lon="1.19210469536483287811279296875">
        <ele>1086.800048828125</ele>
        <time>2020-08-13T05:16:12.000Z</time>
      </trkpt>
      <trkpt lat="42.46304777450859546661376953125" lon="1.192271411418914794921875">
        <ele>1086</ele>
        <time>2020-08-13T05:16:14.000Z</time>
      </trkpt>
      <trkpt lat="42.46312589384615421295166015625" lon="1.19261716492474079132080078125">
        <ele>1084.800048828125</ele>
        <time>2020-08-13T05:16:18.000Z</time>
      </trkpt>
      <trkpt lat="42.46315070427954196929931640625" lon="1.1927037499845027923583984375">
        <ele>1084</ele>
        <time>2020-08-13T05:16:19.000Z</time>
      </trkpt>
      <trkpt lat="42.4631759338080883026123046875" lon="1.19278916157782077789306640625">
        <ele>1083.199951171875</ele>
        <time>2020-08-13T05:16:20.000Z</time>
      </trkpt>
      <trkpt lat="42.463220693171024322509765625" lon="1.192963086068630218505859375">
        <ele>1082</ele>
        <time>2020-08-13T05:16:22.000Z</time>
      </trkpt>
      <trkpt lat="42.4632486887276172637939453125" lon="1.1931463144719600677490234375">
        <ele>1080.800048828125</ele>
        <time>2020-08-13T05:16:24.000Z</time>
      </trkpt>
      <trkpt lat="42.4632564000785350799560546875" lon="1.19324195198714733123779296875">
        <ele>1080.199951171875</ele>
        <time>2020-08-13T05:16:25.000Z</time>
      </trkpt>
      <trkpt lat="42.46326369233429431915283203125" lon="1.193339265882968902587890625">
        <ele>1079.5999755859375</ele>
        <time>2020-08-13T05:16:26.000Z</time>
      </trkpt>
      <trkpt lat="42.4632765166461467742919921875" lon="1.19352978654205799102783203125">
        <ele>1078.4000244140625</ele>
        <time>2020-08-13T05:16:28.000Z</time>
      </trkpt>
      <trkpt lat="42.463278360664844512939453125" lon="1.1937122605741024017333984375">
        <ele>1077</ele>
        <time>2020-08-13T05:16:30.000Z</time>
      </trkpt>
      <trkpt lat="42.46326939202845096588134765625" lon="1.19379767216742038726806640625">
        <ele>1076.199951171875</ele>
        <time>2020-08-13T05:16:31.000Z</time>
      </trkpt>
      <trkpt lat="42.4632507003843784332275390625" lon="1.19387998245656490325927734375">
        <ele>1075.4000244140625</ele>
        <time>2020-08-13T05:16:32.000Z</time>
      </trkpt>
      <trkpt lat="42.4632265605032444000244140625" lon="1.1939600296318531036376953125">
        <ele>1074.5999755859375</ele>
        <time>2020-08-13T05:16:33.000Z</time>
      </trkpt>
      <trkpt lat="42.4631980620324611663818359375" lon="1.19403722696006298065185546875">
        <ele>1074</ele>
        <time>2020-08-13T05:16:34.000Z</time>
      </trkpt>
      <trkpt lat="42.463168390095233917236328125" lon="1.1941139213740825653076171875">
        <ele>1073.4000244140625</ele>
        <time>2020-08-13T05:16:35.000Z</time>
      </trkpt>
      <trkpt lat="42.46314466930925846099853515625" lon="1.19419564493000507354736328125">
        <ele>1072.4000244140625</ele>
        <time>2020-08-13T05:16:36.000Z</time>
      </trkpt>
      <trkpt lat="42.4631259776651859283447265625" lon="1.19437132962048053741455078125">
        <ele>1071.199951171875</ele>
        <time>2020-08-13T05:16:38.000Z</time>
      </trkpt>
      <trkpt lat="42.4631259776651859283447265625" lon="1.1944605968892574310302734375">
        <ele>1070.4000244140625</ele>
        <time>2020-08-13T05:16:39.000Z</time>
      </trkpt>
      <trkpt lat="42.46312723495066165924072265625" lon="1.19454986415803432464599609375">
        <ele>1069.5999755859375</ele>
        <time>2020-08-13T05:16:40.000Z</time>
      </trkpt>
      <trkpt lat="42.46313410811126232147216796875" lon="1.1947304941713809967041015625">
        <ele>1068.5999755859375</ele>
        <time>2020-08-13T05:16:42.000Z</time>
      </trkpt>
      <trkpt lat="42.46313980780541896820068359375" lon="1.19482160545885562896728515625">
        <ele>1067.5999755859375</ele>
        <time>2020-08-13T05:16:43.000Z</time>
      </trkpt>
      <trkpt lat="42.463153637945652008056640625" lon="1.19499946944415569305419921875">
        <ele>1066</ele>
        <time>2020-08-13T05:16:45.000Z</time>
      </trkpt>
      <trkpt lat="42.46316562406718730926513671875" lon="1.1951780878007411956787109375">
        <ele>1065</ele>
        <time>2020-08-13T05:16:47.000Z</time>
      </trkpt>
      <trkpt lat="42.46317408978939056396484375" lon="1.1952687799930572509765625">
        <ele>1064.4000244140625</ele>
        <time>2020-08-13T05:16:48.000Z</time>
      </trkpt>
      <trkpt lat="42.46318439953029155731201171875" lon="1.19544823653995990753173828125">
        <ele>1063.4000244140625</ele>
        <time>2020-08-13T05:16:50.000Z</time>
      </trkpt>
      <trkpt lat="42.463179789483547210693359375" lon="1.19554144330322742462158203125">
        <ele>1062.5999755859375</ele>
        <time>2020-08-13T05:16:51.000Z</time>
      </trkpt>
      <trkpt lat="42.46316604316234588623046875" lon="1.1956343986093997955322265625">
        <ele>1062.199951171875</ele>
        <time>2020-08-13T05:16:52.000Z</time>
      </trkpt>
      <trkpt lat="42.46311508119106292724609375" lon="1.1958171240985393524169921875">
        <ele>1061</ele>
        <time>2020-08-13T05:16:54.000Z</time>
      </trkpt>
      <trkpt lat="42.46305347420275211334228515625" lon="1.19599440135061740875244140625">
        <ele>1059.5999755859375</ele>
        <time>2020-08-13T05:16:56.000Z</time>
      </trkpt>
      <trkpt lat="42.46302187442779541015625" lon="1.1960752867162227630615234375">
        <ele>1058.5999755859375</ele>
        <time>2020-08-13T05:16:57.000Z</time>
      </trkpt>
      <trkpt lat="42.46299128048121929168701171875" lon="1.19613890536129474639892578125">
        <ele>1057.800048828125</ele>
        <time>2020-08-13T05:16:58.000Z</time>
      </trkpt>
      <trkpt lat="42.46296194382011890411376953125" lon="1.196191124618053436279296875">
        <ele>1056.800048828125</ele>
        <time>2020-08-13T05:17:00.000Z</time>
      </trkpt>
      <trkpt lat="42.46295674704015254974365234375" lon="1.196187771856784820556640625">
        <ele>1056.4000244140625</ele>
        <time>2020-08-13T05:17:10.000Z</time>
      </trkpt>
      <trkpt lat="42.462956495583057403564453125" lon="1.19618567638099193572998046875">
        <ele>1056.4000244140625</ele>
        <time>2020-08-13T05:17:43.000Z</time>
      </trkpt>
      <trkpt lat="42.4629566632211208343505859375" lon="1.1961834132671356201171875">
        <ele>1056.4000244140625</ele>
        <time>2020-08-13T05:17:54.000Z</time>
      </trkpt>
      <trkpt lat="42.46295683085918426513671875" lon="1.196181066334247589111328125">
        <ele>1056.199951171875</ele>
        <time>2020-08-13T05:18:10.000Z</time>
      </trkpt>
      <trkpt lat="42.46295683085918426513671875" lon="1.19617930613458156585693359375">
        <ele>1056.4000244140625</ele>
        <time>2020-08-13T05:18:24.000Z</time>
      </trkpt>
      <trkpt lat="42.4629687331616878509521484375" lon="1.19618115015327930450439453125">
        <ele>1056.199951171875</ele>
        <time>2020-08-13T05:18:45.000Z</time>
      </trkpt>
      <trkpt lat="42.4630069546401500701904296875" lon="1.1961557529866695404052734375">
        <ele>1056.199951171875</ele>
        <time>2020-08-13T05:18:55.000Z</time>
      </trkpt>
      <trkpt lat="42.46300955303013324737548828125" lon="1.19615189731121063232421875">
        <ele>1056.4000244140625</ele>
        <time>2020-08-13T05:19:08.000Z</time>
      </trkpt>
      <trkpt lat="42.4630139954388141632080078125" lon="1.19614426977932453155517578125">
        <ele>1056</ele>
        <time>2020-08-13T05:19:15.000Z</time>
      </trkpt>
      <trkpt lat="42.46301441453397274017333984375" lon="1.196142844855785369873046875">
        <ele>1056.199951171875</ele>
        <time>2020-08-13T05:19:39.000Z</time>
      </trkpt>
      <trkpt lat="42.46303687803447246551513671875" lon="1.196098588407039642333984375">
        <ele>1056.199951171875</ele>
        <time>2020-08-13T05:19:47.000Z</time>
      </trkpt>
      <trkpt lat="42.46304760687053203582763671875" lon="1.19608794339001178741455078125">
        <ele>1056.199951171875</ele>
        <time>2020-08-13T05:19:48.000Z</time>
      </trkpt>
      <trkpt lat="42.46312103234231472015380859375" lon="1.19603899307548999786376953125">
        <ele>1055.800048828125</ele>
        <time>2020-08-13T05:19:52.000Z</time>
      </trkpt>
      <trkpt lat="42.46314869262278079986572265625" lon="1.196017451584339141845703125">
        <ele>1055.5999755859375</ele>
        <time>2020-08-13T05:19:53.000Z</time>
      </trkpt>
      <trkpt lat="42.46324843727052211761474609375" lon="1.19586431421339511871337890625">
        <ele>1054.800048828125</ele>
        <time>2020-08-13T05:19:57.000Z</time>
      </trkpt>
      <trkpt lat="42.46328297071158885955810546875" lon="1.19559609331190586090087890625">
        <ele>1054.199951171875</ele>
        <time>2020-08-13T05:20:02.000Z</time>
      </trkpt>
      <trkpt lat="42.463303841650485992431640625" lon="1.195493079721927642822265625">
        <ele>1054</ele>
        <time>2020-08-13T05:20:04.000Z</time>
      </trkpt>
      <trkpt lat="42.463368214666843414306640625" lon="1.19522192515432834625244140625">
        <ele>1053</ele>
        <time>2020-08-13T05:20:10.000Z</time>
      </trkpt>
      <trkpt lat="42.4634112976491451263427734375" lon="1.195051856338977813720703125">
        <ele>1052.800048828125</ele>
        <time>2020-08-13T05:20:14.000Z</time>
      </trkpt>
      <trkpt lat="42.46344742365181446075439453125" lon="1.19488061405718326568603515625">
        <ele>1052</ele>
        <time>2020-08-13T05:20:18.000Z</time>
      </trkpt>
      <trkpt lat="42.46346066705882549285888671875" lon="1.19484071619808673858642578125">
        <ele>1051.5999755859375</ele>
        <time>2020-08-13T05:20:19.000Z</time>
      </trkpt>
      <trkpt lat="42.4634857289493083953857421875" lon="1.1946786940097808837890625">
        <ele>1050.5999755859375</ele>
        <time>2020-08-13T05:20:23.000Z</time>
      </trkpt>
      <trkpt lat="42.463494949042797088623046875" lon="1.19455237872898578643798828125">
        <ele>1049.800048828125</ele>
        <time>2020-08-13T05:20:26.000Z</time>
      </trkpt>
      <trkpt lat="42.46348380111157894134521484375" lon="1.19438943453133106231689453125">
        <ele>1048.800048828125</ele>
        <time>2020-08-13T05:20:30.000Z</time>
      </trkpt>
      <trkpt lat="42.4634914286434650421142578125" lon="1.19435171596705913543701171875">
        <ele>1048.800048828125</ele>
        <time>2020-08-13T05:20:31.000Z</time>
      </trkpt>
      <trkpt lat="42.46353979222476482391357421875" lon="1.19408282451331615447998046875">
        <ele>1048.199951171875</ele>
        <time>2020-08-13T05:20:37.000Z</time>
      </trkpt>
      <trkpt lat="42.46358086355030536651611328125" lon="1.193952150642871856689453125">
        <ele>1047.800048828125</ele>
        <time>2020-08-13T05:20:40.000Z</time>
      </trkpt>
      <trkpt lat="42.463608942925930023193359375" lon="1.19387201964855194091796875">
        <ele>1046.5999755859375</ele>
        <time>2020-08-13T05:20:42.000Z</time>
      </trkpt>
      <trkpt lat="42.4636520259082317352294921875" lon="1.1937638930976390838623046875">
        <ele>1045.4000244140625</ele>
        <time>2020-08-13T05:20:45.000Z</time>
      </trkpt>
      <trkpt lat="42.46370458044111728668212890625" lon="1.19355208240449428558349609375">
        <ele>1044.4000244140625</ele>
        <time>2020-08-13T05:20:50.000Z</time>
      </trkpt>
      <trkpt lat="42.46372369118034839630126953125" lon="1.19347094558179378509521484375">
        <ele>1044.199951171875</ele>
        <time>2020-08-13T05:20:52.000Z</time>
      </trkpt>
      <trkpt lat="42.46376216411590576171875" lon="1.193271540105342864990234375">
        <ele>1043.4000244140625</ele>
        <time>2020-08-13T05:20:57.000Z</time>
      </trkpt>
      <trkpt lat="42.4637687020003795623779296875" lon="1.1932301335036754608154296875">
        <ele>1043.199951171875</ele>
        <time>2020-08-13T05:20:58.000Z</time>
      </trkpt>
      <trkpt lat="42.46377549134194850921630859375" lon="1.19310624897480010986328125">
        <ele>1042.199951171875</ele>
        <time>2020-08-13T05:21:01.000Z</time>
      </trkpt>
      <trkpt lat="42.46377624571323394775390625" lon="1.193032823503017425537109375">
        <ele>1040.800048828125</ele>
        <time>2020-08-13T05:21:03.000Z</time>
      </trkpt>
      <trkpt lat="42.4637794308364391326904296875" lon="1.19299619458615779876708984375">
        <ele>1040.800048828125</ele>
        <time>2020-08-13T05:21:04.000Z</time>
      </trkpt>
      <trkpt lat="42.4637988768517971038818359375" lon="1.1928445659577846527099609375">
        <ele>1040</ele>
        <time>2020-08-13T05:21:08.000Z</time>
      </trkpt>
      <trkpt lat="42.46380600146949291229248046875" lon="1.192764602601528167724609375">
        <ele>1040</ele>
        <time>2020-08-13T05:21:10.000Z</time>
      </trkpt>
      <trkpt lat="42.4638091027736663818359375" lon="1.1925250478088855743408203125">
        <ele>1038.800048828125</ele>
        <time>2020-08-13T05:21:16.000Z</time>
      </trkpt>
      <trkpt lat="42.46382796205580234527587890625" lon="1.1923443339765071868896484375">
        <ele>1037.800048828125</ele>
        <time>2020-08-13T05:21:21.000Z</time>
      </trkpt>
      <trkpt lat="42.4638332426548004150390625" lon="1.19230301119387149810791015625">
        <ele>1037.5999755859375</ele>
        <time>2020-08-13T05:21:22.000Z</time>
      </trkpt>
      <trkpt lat="42.463835589587688446044921875" lon="1.19214358739554882049560546875">
        <ele>1036.4000244140625</ele>
        <time>2020-08-13T05:21:26.000Z</time>
      </trkpt>
      <trkpt lat="42.46378202922642230987548828125" lon="1.19183228351175785064697265625">
        <ele>1035.800048828125</ele>
        <time>2020-08-13T05:21:33.000Z</time>
      </trkpt>
      <trkpt lat="42.463767863810062408447265625" lon="1.19178794324398040771484375">
        <ele>1035.199951171875</ele>
        <time>2020-08-13T05:21:34.000Z</time>
      </trkpt>
      <trkpt lat="42.46372000314295291900634765625" lon="1.19167805649340152740478515625">
        <ele>1034</ele>
        <time>2020-08-13T05:21:37.000Z</time>
      </trkpt>
      <trkpt lat="42.4636875651776790618896484375" lon="1.191617287695407867431640625">
        <ele>1033.4000244140625</ele>
        <time>2020-08-13T05:21:39.000Z</time>
      </trkpt>
      <trkpt lat="42.46367054991424083709716796875" lon="1.19158065877854824066162109375">
        <ele>1033</ele>
        <time>2020-08-13T05:21:40.000Z</time>
      </trkpt>
      <trkpt lat="42.463624365627765655517578125" lon="1.19143548421561717987060546875">
        <ele>1032.199951171875</ele>
        <time>2020-08-13T05:21:44.000Z</time>
      </trkpt>
      <trkpt lat="42.463591508567333221435546875" lon="1.1913676746189594268798828125">
        <ele>1032</ele>
        <time>2020-08-13T05:21:46.000Z</time>
      </trkpt>
      <trkpt lat="42.46354691684246063232421875" lon="1.19123247452080249786376953125">
        <ele>1030.800048828125</ele>
        <time>2020-08-13T05:21:50.000Z</time>
      </trkpt>
      <trkpt lat="42.46351481415331363677978515625" lon="1.19100934825837612152099609375">
        <ele>1029.199951171875</ele>
        <time>2020-08-13T05:21:55.000Z</time>
      </trkpt>
      <trkpt lat="42.46349905617535114288330078125" lon="1.19096475653350353240966796875">
        <ele>1029</ele>
        <time>2020-08-13T05:21:56.000Z</time>
      </trkpt>
      <trkpt lat="42.46348145417869091033935546875" lon="1.190787144005298614501953125">
        <ele>1028.4000244140625</ele>
        <time>2020-08-13T05:22:00.000Z</time>
      </trkpt>
      <trkpt lat="42.4634900875389575958251953125" lon="1.1907065100967884063720703125">
        <ele>1028.4000244140625</ele>
        <time>2020-08-13T05:22:02.000Z</time>
      </trkpt>
      <trkpt lat="42.463464103639125823974609375" lon="1.19057550095021724700927734375">
        <ele>1028</ele>
        <time>2020-08-13T05:22:05.000Z</time>
      </trkpt>
      <trkpt lat="42.463391013443470001220703125" lon="1.19039126671850681304931640625">
        <ele>1027.199951171875</ele>
        <time>2020-08-13T05:22:10.000Z</time>
      </trkpt>
      <trkpt lat="42.4633777700364589691162109375" lon="1.1903115548193454742431640625">
        <ele>1026.800048828125</ele>
        <time>2020-08-13T05:22:12.000Z</time>
      </trkpt>
      <trkpt lat="42.463347427546977996826171875" lon="1.1902119778096675872802734375">
        <ele>1026.199951171875</ele>
        <time>2020-08-13T05:22:15.000Z</time>
      </trkpt>
      <trkpt lat="42.4633321724832057952880859375" lon="1.1901135742664337158203125">
        <ele>1025.199951171875</ele>
        <time>2020-08-13T05:22:18.000Z</time>
      </trkpt>
      <trkpt lat="42.46332437731325626373291015625" lon="1.190081723034381866455078125">
        <ele>1025</ele>
        <time>2020-08-13T05:22:19.000Z</time>
      </trkpt>
      <trkpt lat="42.4632976390421390533447265625" lon="1.18990771472454071044921875">
        <ele>1025</ele>
        <time>2020-08-13T05:22:24.000Z</time>
      </trkpt>
      <trkpt lat="42.46331029571592807769775390625" lon="1.1896790564060211181640625">
        <ele>1024.4000244140625</ele>
        <time>2020-08-13T05:22:29.000Z</time>
      </trkpt>
      <trkpt lat="42.46330954134464263916015625" lon="1.1896426789462566375732421875">
        <ele>1024.199951171875</ele>
        <time>2020-08-13T05:22:30.000Z</time>
      </trkpt>
      <trkpt lat="42.46331800706684589385986328125" lon="1.189492642879486083984375">
        <ele>1024</ele>
        <time>2020-08-13T05:22:34.000Z</time>
      </trkpt>
      <trkpt lat="42.46330359019339084625244140625" lon="1.1892378330230712890625">
        <ele>1023.79998779296875</ele>
        <time>2020-08-13T05:22:41.000Z</time>
      </trkpt>
      <trkpt lat="42.46329252608120441436767578125" lon="1.1890717037022113800048828125">
        <ele>1023.20001220703125</ele>
        <time>2020-08-13T05:22:45.000Z</time>
      </trkpt>
      <trkpt lat="42.4632848985493183135986328125" lon="1.18898696266114711761474609375">
        <ele>1022.79998779296875</ele>
        <time>2020-08-13T05:22:47.000Z</time>
      </trkpt>
      <trkpt lat="42.463268302381038665771484375" lon="1.1889084242284297943115234375">
        <ele>1022.20001220703125</ele>
        <time>2020-08-13T05:22:49.000Z</time>
      </trkpt>
      <trkpt lat="42.46324106119573116302490234375" lon="1.188783533871173858642578125">
        <ele>1021.5999755859375</ele>
        <time>2020-08-13T05:22:52.000Z</time>
      </trkpt>
      <trkpt lat="42.4632279016077518463134765625" lon="1.1887122876942157745361328125">
        <ele>1021</ele>
        <time>2020-08-13T05:22:54.000Z</time>
      </trkpt>
      <trkpt lat="42.46320803649723529815673828125" lon="1.18859536014497280120849609375">
        <ele>1020.4000244140625</ele>
        <time>2020-08-13T05:22:57.000Z</time>
      </trkpt>
      <trkpt lat="42.4631933681666851043701171875" lon="1.18851003237068653106689453125">
        <ele>1019.5999755859375</ele>
        <time>2020-08-13T05:22:59.000Z</time>
      </trkpt>
      <trkpt lat="42.463158667087554931640625" lon="1.1883454956114292144775390625">
        <ele>1019.4000244140625</ele>
        <time>2020-08-13T05:23:03.000Z</time>
      </trkpt>
      <trkpt lat="42.4630902707576751708984375" lon="1.18801918812096118927001953125">
        <ele>1019</ele>
        <time>2020-08-13T05:23:11.000Z</time>
      </trkpt>
      <trkpt lat="42.4630880914628505706787109375" lon="1.18797727860510349273681640625">
        <ele>1018.79998779296875</ele>
        <time>2020-08-13T05:23:12.000Z</time>
      </trkpt>
      <trkpt lat="42.4630505405366420745849609375" lon="1.1877661384642124176025390625">
        <ele>1018</ele>
        <time>2020-08-13T05:23:17.000Z</time>
      </trkpt>
      <trkpt lat="42.46303603984415531158447265625" lon="1.187646947801113128662109375">
        <ele>1017.5999755859375</ele>
        <time>2020-08-13T05:23:20.000Z</time>
      </trkpt>
      <trkpt lat="42.463020868599414825439453125" lon="1.18753002025187015533447265625">
        <ele>1017.4000244140625</ele>
        <time>2020-08-13T05:23:23.000Z</time>
      </trkpt>
      <trkpt lat="42.46300519444048404693603515625" lon="1.18736741133034229278564453125">
        <ele>1017</ele>
        <time>2020-08-13T05:23:28.000Z</time>
      </trkpt>
      <trkpt lat="42.4630017578601837158203125" lon="1.187335811555385589599609375">
        <ele>1016.4000244140625</ele>
        <time>2020-08-13T05:23:29.000Z</time>
      </trkpt>
      <trkpt lat="42.46300242841243743896484375" lon="1.18723765946924686431884765625">
        <ele>1015.4000244140625</ele>
        <time>2020-08-13T05:23:32.000Z</time>
      </trkpt>
      <trkpt lat="42.4629990756511688232421875" lon="1.1872062273323535919189453125">
        <ele>1015.20001220703125</ele>
        <time>2020-08-13T05:23:33.000Z</time>
      </trkpt>
      <trkpt lat="42.46296999044716358184814453125" lon="1.1870030499994754791259765625">
        <ele>1014.5999755859375</ele>
        <time>2020-08-13T05:23:39.000Z</time>
      </trkpt>
      <trkpt lat="42.46296864934265613555908203125" lon="1.18696642108261585235595703125">
        <ele>1014.5999755859375</ele>
        <time>2020-08-13T05:23:40.000Z</time>
      </trkpt>
      <trkpt lat="42.462964542210102081298828125" lon="1.1868370883166790008544921875">
        <ele>1014.4000244140625</ele>
        <time>2020-08-13T05:23:44.000Z</time>
      </trkpt>
      <trkpt lat="42.46296345256268978118896484375" lon="1.18671831674873828887939453125">
        <ele>1013.20001220703125</ele>
        <time>2020-08-13T05:23:47.000Z</time>
      </trkpt>
      <trkpt lat="42.462973929941654205322265625" lon="1.186466105282306671142578125">
        <ele>1012.4000244140625</ele>
        <time>2020-08-13T05:23:53.000Z</time>
      </trkpt>
      <trkpt lat="42.46297971345484256744384765625" lon="1.18642277084290981292724609375">
        <ele>1012</ele>
        <time>2020-08-13T05:23:54.000Z</time>
      </trkpt>
      <trkpt lat="42.4630160070955753326416015625" lon="1.18626619689166545867919921875">
        <ele>1011</ele>
        <time>2020-08-13T05:23:58.000Z</time>
      </trkpt>
      <trkpt lat="42.4631202779710292816162109375" lon="1.1860341019928455352783203125">
        <ele>1010.20001220703125</ele>
        <time>2020-08-13T05:24:05.000Z</time>
      </trkpt>
      <trkpt lat="42.4631403945386409759521484375" lon="1.18597819469869136810302734375">
        <ele>1010</ele>
        <time>2020-08-13T05:24:07.000Z</time>
      </trkpt>
      <trkpt lat="42.46315799653530120849609375" lon="1.1858849041163921356201171875">
        <ele>1009.20001220703125</ele>
        <time>2020-08-13T05:24:10.000Z</time>
      </trkpt>
      <trkpt lat="42.4631653726100921630859375" lon="1.18585263378918170928955078125">
        <ele>1009</ele>
        <time>2020-08-13T05:24:11.000Z</time>
      </trkpt>
      <trkpt lat="42.4631983973085880279541015625" lon="1.18569572456181049346923828125">
        <ele>1008</ele>
        <time>2020-08-13T05:24:16.000Z</time>
      </trkpt>
      <trkpt lat="42.46320518665015697479248046875" lon="1.1856327764689922332763671875">
        <ele>1007.5999755859375</ele>
        <time>2020-08-13T05:24:18.000Z</time>
      </trkpt>
      <trkpt lat="42.4632024206221103668212890625" lon="1.18556479923427104949951171875">
        <ele>1006.79998779296875</ele>
        <time>2020-08-13T05:24:20.000Z</time>
      </trkpt>
      <trkpt lat="42.46319680474698543548583984375" lon="1.18543337099254131317138671875">
        <ele>1005.5999755859375</ele>
        <time>2020-08-13T05:24:24.000Z</time>
      </trkpt>
      <trkpt lat="42.463181130588054656982421875" lon="1.18529339320957660675048828125">
        <ele>1004.4000244140625</ele>
        <time>2020-08-13T05:24:29.000Z</time>
      </trkpt>
      <trkpt lat="42.46317400597035884857177734375" lon="1.185260117053985595703125">
        <ele>1004.4000244140625</ele>
        <time>2020-08-13T05:24:30.000Z</time>
      </trkpt>
      <trkpt lat="42.463095299899578094482421875" lon="1.185032464563846588134765625">
        <ele>1003.4000244140625</ele>
        <time>2020-08-13T05:24:37.000Z</time>
      </trkpt>
      <trkpt lat="42.4630649574100971221923828125" lon="1.18497253395617008209228515625">
        <ele>1002.20001220703125</ele>
        <time>2020-08-13T05:24:39.000Z</time>
      </trkpt>
      <trkpt lat="42.46301558800041675567626953125" lon="1.18486516177654266357421875">
        <ele>1001.20001220703125</ele>
        <time>2020-08-13T05:24:43.000Z</time>
      </trkpt>
      <trkpt lat="42.463002763688564300537109375" lon="1.1848408542573451995849609375">
        <ele>1001</ele>
        <time>2020-08-13T05:24:44.000Z</time>
      </trkpt>
      <trkpt lat="42.4629320204257965087890625" lon="1.18469291366636753082275390625">
        <ele>1000</ele>
        <time>2020-08-13T05:24:49.000Z</time>
      </trkpt>
      <trkpt lat="42.46292271651327610015869140625" lon="1.1846641637384891510009765625">
        <ele>999.79998779296875</ele>
        <time>2020-08-13T05:24:50.000Z</time>
      </trkpt>
      <trkpt lat="42.46288516558706760406494140625" lon="1.1845380999147891998291015625">
        <ele>999</ele>
        <time>2020-08-13T05:24:54.000Z</time>
      </trkpt>
      <trkpt lat="42.46289371512830257415771484375" lon="1.1844742298126220703125">
        <ele>998.79998779296875</ele>
        <time>2020-08-13T05:24:56.000Z</time>
      </trkpt>
      <trkpt lat="42.4629160948097705841064453125" lon="1.1844291351735591888427734375">
        <ele>998.20001220703125</ele>
        <time>2020-08-13T05:24:58.000Z</time>
      </trkpt>
      <trkpt lat="42.46293595992028713226318359375" lon="1.18441597558557987213134765625">
        <ele>998</ele>
        <time>2020-08-13T05:24:59.000Z</time>
      </trkpt>
      <trkpt lat="42.46295875869691371917724609375" lon="1.18441262282431125640869140625">
        <ele>998</ele>
        <time>2020-08-13T05:25:00.000Z</time>
      </trkpt>
      <trkpt lat="42.463029921054840087890625" lon="1.18448537774384021759033203125">
        <ele>997</ele>
        <time>2020-08-13T05:25:04.000Z</time>
      </trkpt>
      <trkpt lat="42.46303989551961421966552734375" lon="1.1845139600336551666259765625">
        <ele>996.5999755859375</ele>
        <time>2020-08-13T05:25:05.000Z</time>
      </trkpt>
      <trkpt lat="42.46306219138205051422119140625" lon="1.1845790036022663116455078125">
        <ele>996.4000244140625</ele>
        <time>2020-08-13T05:25:07.000Z</time>
      </trkpt>
      <trkpt lat="42.46311013586819171905517578125" lon="1.184721328318119049072265625">
        <ele>996.4000244140625</ele>
        <time>2020-08-13T05:25:11.000Z</time>
      </trkpt>
      <trkpt lat="42.4631581641733646392822265625" lon="1.184830963611602783203125">
        <ele>995.5999755859375</ele>
        <time>2020-08-13T05:25:14.000Z</time>
      </trkpt>
      <trkpt lat="42.46320837177336215972900390625" lon="1.1849149502813816070556640625">
        <ele>995.20001220703125</ele>
        <time>2020-08-13T05:25:17.000Z</time>
      </trkpt>
      <trkpt lat="42.463271319866180419921875" lon="1.18505869992077350616455078125">
        <ele>995.4000244140625</ele>
        <time>2020-08-13T05:25:23.000Z</time>
      </trkpt>
      <trkpt lat="42.46331549249589443206787109375" lon="1.18521342985332012176513671875">
        <ele>996.5999755859375</ele>
        <time>2020-08-13T05:25:30.000Z</time>
      </trkpt>
      <trkpt lat="42.46332337148487567901611328125" lon="1.18527998216450214385986328125">
        <ele>997</ele>
        <time>2020-08-13T05:25:33.000Z</time>
      </trkpt>
      <trkpt lat="42.46332169510424137115478515625" lon="1.1854218877851963043212890625">
        <ele>996.79998779296875</ele>
        <time>2020-08-13T05:25:40.000Z</time>
      </trkpt>
      <trkpt lat="42.46332488022744655609130859375" lon="1.18544275872409343719482421875">
        <ele>996.79998779296875</ele>
        <time>2020-08-13T05:25:41.000Z</time>
      </trkpt>
      <trkpt lat="42.463337369263172149658203125" lon="1.1855325289070606231689453125">
        <ele>996.5999755859375</ele>
        <time>2020-08-13T05:25:45.000Z</time>
      </trkpt>
      <trkpt lat="42.46335916221141815185546875" lon="1.1857202835381031036376953125">
        <ele>995.79998779296875</ele>
        <time>2020-08-13T05:25:51.000Z</time>
      </trkpt>
      <trkpt lat="42.46335689909756183624267578125" lon="1.18575221858918666839599609375">
        <ele>995.79998779296875</ele>
        <time>2020-08-13T05:25:52.000Z</time>
      </trkpt>
      <trkpt lat="42.46335513889789581298828125" lon="1.18578515946865081787109375">
        <ele>995.79998779296875</ele>
        <time>2020-08-13T05:25:53.000Z</time>
      </trkpt>
      <trkpt lat="42.4633522890508174896240234375" lon="1.185921616852283477783203125">
        <ele>994.5999755859375</ele>
        <time>2020-08-13T05:25:57.000Z</time>
      </trkpt>
      <trkpt lat="42.4633546359837055206298828125" lon="1.185992695391178131103515625">
        <ele>994.20001220703125</ele>
        <time>2020-08-13T05:25:59.000Z</time>
      </trkpt>
      <trkpt lat="42.4633640237152576446533203125" lon="1.18609906174242496490478515625">
        <ele>993.4000244140625</ele>
        <time>2020-08-13T05:26:02.000Z</time>
      </trkpt>
      <trkpt lat="42.46337433345615863800048828125" lon="1.1862335912883281707763671875">
        <ele>993.20001220703125</ele>
        <time>2020-08-13T05:26:06.000Z</time>
      </trkpt>
      <trkpt lat="42.46339478529989719390869140625" lon="1.18638337589800357818603515625">
        <ele>992.4000244140625</ele>
        <time>2020-08-13T05:26:10.000Z</time>
      </trkpt>
      <trkpt lat="42.463418506085872650146484375" lon="1.18653072975575923919677734375">
        <ele>991.20001220703125</ele>
        <time>2020-08-13T05:26:14.000Z</time>
      </trkpt>
      <trkpt lat="42.46345748193562030792236328125" lon="1.18674279190599918365478515625">
        <ele>990.5999755859375</ele>
        <time>2020-08-13T05:26:21.000Z</time>
      </trkpt>
      <trkpt lat="42.463469468057155609130859375" lon="1.18682711385190486907958984375">
        <ele>990</ele>
        <time>2020-08-13T05:26:24.000Z</time>
      </trkpt>
      <trkpt lat="42.463472150266170501708984375" lon="1.18695083074271678924560546875">
        <ele>989.5999755859375</ele>
        <time>2020-08-13T05:26:28.000Z</time>
      </trkpt>
      <trkpt lat="42.46347156353294849395751953125" lon="1.18704454042017459869384765625">
        <ele>989</ele>
        <time>2020-08-13T05:26:31.000Z</time>
      </trkpt>
      <trkpt lat="42.463474832475185394287109375" lon="1.18710824288427829742431640625">
        <ele>988.4000244140625</ele>
        <time>2020-08-13T05:26:33.000Z</time>
      </trkpt>
      <trkpt lat="42.46348044835031032562255859375" lon="1.18714042939245700836181640625">
        <ele>988.4000244140625</ele>
        <time>2020-08-13T05:26:34.000Z</time>
      </trkpt>
      <trkpt lat="42.4634941108524799346923828125" lon="1.18720538914203643798828125">
        <ele>987.5999755859375</ele>
        <time>2020-08-13T05:26:36.000Z</time>
      </trkpt>
      <trkpt lat="42.463507354259490966796875" lon="1.18731267750263214111328125">
        <ele>986.79998779296875</ele>
        <time>2020-08-13T05:26:39.000Z</time>
      </trkpt>
      <trkpt lat="42.4635202623903751373291015625" lon="1.1873859353363513946533203125">
        <ele>986.4000244140625</ele>
        <time>2020-08-13T05:26:41.000Z</time>
      </trkpt>
      <trkpt lat="42.46356309391558170318603515625" lon="1.18752649985253810882568359375">
        <ele>986</ele>
        <time>2020-08-13T05:26:45.000Z</time>
      </trkpt>
      <trkpt lat="42.46357399038970470428466796875" lon="1.18756212294101715087890625">
        <ele>986</ele>
        <time>2020-08-13T05:26:46.000Z</time>
      </trkpt>
      <trkpt lat="42.46359326876699924468994140625" lon="1.187636554241180419921875">
        <ele>985.4000244140625</ele>
        <time>2020-08-13T05:26:48.000Z</time>
      </trkpt>
      <trkpt lat="42.463645823299884796142578125" lon="1.1878154240548610687255859375">
        <ele>984.20001220703125</ele>
        <time>2020-08-13T05:26:53.000Z</time>
      </trkpt>
      <trkpt lat="42.46368697844445705413818359375" lon="1.1879850737750530242919921875">
        <ele>983</ele>
        <time>2020-08-13T05:26:58.000Z</time>
      </trkpt>
      <trkpt lat="42.46369183994829654693603515625" lon="1.18801935575902462005615234375">
        <ele>983</ele>
        <time>2020-08-13T05:26:59.000Z</time>
      </trkpt>
      <trkpt lat="42.46371614746749401092529296875" lon="1.18817768990993499755859375">
        <ele>982.4000244140625</ele>
        <time>2020-08-13T05:27:04.000Z</time>
      </trkpt>
      <trkpt lat="42.4637254513800144195556640625" lon="1.18821079842746257781982421875">
        <ele>982</ele>
        <time>2020-08-13T05:27:05.000Z</time>
      </trkpt>
      <trkpt lat="42.4637472443282604217529296875" lon="1.1883173324167728424072265625">
        <ele>980.79998779296875</ele>
        <time>2020-08-13T05:27:08.000Z</time>
      </trkpt>
      <trkpt lat="42.4637633375823497772216796875" lon="1.188383884727954864501953125">
        <ele>980.79998779296875</ele>
        <time>2020-08-13T05:27:10.000Z</time>
      </trkpt>
      <trkpt lat="42.4638253636658191680908203125" lon="1.18864431045949459075927734375">
        <ele>980.20001220703125</ele>
        <time>2020-08-13T05:27:18.000Z</time>
      </trkpt>
      <trkpt lat="42.463852353394031524658203125" lon="1.18870952166616916656494140625">
        <ele>979.5999755859375</ele>
        <time>2020-08-13T05:27:20.000Z</time>
      </trkpt>
      <trkpt lat="42.46392318047583103179931640625" lon="1.188820414245128631591796875">
        <ele>978.5999755859375</ele>
        <time>2020-08-13T05:27:24.000Z</time>
      </trkpt>
      <trkpt lat="42.4640781618654727935791015625" lon="1.188987381756305694580078125">
        <ele>977.79998779296875</ele>
        <time>2020-08-13T05:27:30.000Z</time>
      </trkpt>
      <trkpt lat="42.464103810489177703857421875" lon="1.18901722133159637451171875">
        <ele>977.4000244140625</ele>
        <time>2020-08-13T05:27:31.000Z</time>
      </trkpt>
      <trkpt lat="42.4642461352050304412841796875" lon="1.1891763098537921905517578125">
        <ele>976.5999755859375</ele>
        <time>2020-08-13T05:27:36.000Z</time>
      </trkpt>
      <trkpt lat="42.46427136473357677459716796875" lon="1.1892098374664783477783203125">
        <ele>976.20001220703125</ele>
        <time>2020-08-13T05:27:37.000Z</time>
      </trkpt>
      <trkpt lat="42.46434965170919895172119140625" lon="1.189418546855449676513671875">
        <ele>975.5999755859375</ele>
        <time>2020-08-13T05:27:42.000Z</time>
      </trkpt>
      <trkpt lat="42.46436297893524169921875" lon="1.1895011924207210540771484375">
        <ele>975.20001220703125</ele>
        <time>2020-08-13T05:27:44.000Z</time>
      </trkpt>
      <trkpt lat="42.46436725370585918426513671875" lon="1.189614348113536834716796875">
        <ele>974.20001220703125</ele>
        <time>2020-08-13T05:27:47.000Z</time>
      </trkpt>
      <trkpt lat="42.4643670022487640380859375" lon="1.189651228487491607666015625">
        <ele>974.20001220703125</ele>
        <time>2020-08-13T05:27:48.000Z</time>
      </trkpt>
      <trkpt lat="42.46434529311954975128173828125" lon="1.189824901521205902099609375">
        <ele>973.20001220703125</ele>
        <time>2020-08-13T05:27:53.000Z</time>
      </trkpt>
      <trkpt lat="42.46434244327247142791748046875" lon="1.18986052460968494415283203125">
        <ele>973</ele>
        <time>2020-08-13T05:27:54.000Z</time>
      </trkpt>
      <trkpt lat="42.46434864588081836700439453125" lon="1.18999329395592212677001953125">
        <ele>971.79998779296875</ele>
        <time>2020-08-13T05:27:58.000Z</time>
      </trkpt>
      <trkpt lat="42.46435920707881450653076171875" lon="1.1900258995592594146728515625">
        <ele>971.79998779296875</ele>
        <time>2020-08-13T05:27:59.000Z</time>
      </trkpt>
      <trkpt lat="42.46441419236361980438232421875" lon="1.19015757925808429718017578125">
        <ele>970.4000244140625</ele>
        <time>2020-08-13T05:28:03.000Z</time>
      </trkpt>
      <trkpt lat="42.46450236998498439788818359375" lon="1.1903591640293598175048828125">
        <ele>969.4000244140625</ele>
        <time>2020-08-13T05:28:09.000Z</time>
      </trkpt>
      <trkpt lat="42.4645502306520938873291015625" lon="1.19051632471382617950439453125">
        <ele>968.20001220703125</ele>
        <time>2020-08-13T05:28:13.000Z</time>
      </trkpt>
      <trkpt lat="42.46456607244908809661865234375" lon="1.19063467718660831451416015625">
        <ele>967.4000244140625</ele>
        <time>2020-08-13T05:28:16.000Z</time>
      </trkpt>
      <trkpt lat="42.46458652429282665252685546875" lon="1.190923936665058135986328125">
        <ele>967</ele>
        <time>2020-08-13T05:28:24.000Z</time>
      </trkpt>
      <trkpt lat="42.46462994255125522613525390625" lon="1.19115033186972141265869140625">
        <ele>967</ele>
        <time>2020-08-13T05:28:32.000Z</time>
      </trkpt>
      <trkpt lat="42.4646674096584320068359375" lon="1.19133389554917812347412109375">
        <ele>966.5999755859375</ele>
        <time>2020-08-13T05:28:39.000Z</time>
      </trkpt>
      <trkpt lat="42.464687526226043701171875" lon="1.191451661288738250732421875">
        <ele>966.4000244140625</ele>
        <time>2020-08-13T05:28:43.000Z</time>
      </trkpt>
      <trkpt lat="42.46470571495592594146728515625" lon="1.1914987675845623016357421875">
        <ele>966.4000244140625</ele>
        <time>2020-08-13T05:28:45.000Z</time>
      </trkpt>
      <trkpt lat="42.46471962891519069671630859375" lon="1.19154981337487697601318359375">
        <ele>966.20001220703125</ele>
        <time>2020-08-13T05:28:47.000Z</time>
      </trkpt>
      <trkpt lat="42.46475994586944580078125" lon="1.19166196323931217193603515625">
        <ele>966.20001220703125</ele>
        <time>2020-08-13T05:28:51.000Z</time>
      </trkpt>
      <trkpt lat="42.464805208146572113037109375" lon="1.1918018572032451629638671875">
        <ele>966</ele>
        <time>2020-08-13T05:28:56.000Z</time>
      </trkpt>
      <trkpt lat="42.4648150987923145294189453125" lon="1.19183245114982128143310546875">
        <ele>965.79998779296875</ele>
        <time>2020-08-13T05:28:57.000Z</time>
      </trkpt>
      <trkpt lat="42.4648781307041645050048828125" lon="1.19207167066633701324462890625">
        <ele>965</ele>
        <time>2020-08-13T05:29:04.000Z</time>
      </trkpt>
      <trkpt lat="42.4648985825479030609130859375" lon="1.19223721325397491455078125">
        <ele>965</ele>
        <time>2020-08-13T05:29:09.000Z</time>
      </trkpt>
      <trkpt lat="42.46490386314690113067626953125" lon="1.192265711724758148193359375">
        <ele>964.79998779296875</ele>
        <time>2020-08-13T05:29:10.000Z</time>
      </trkpt>
      <trkpt lat="42.46499598026275634765625" lon="1.192449443042278289794921875">
        <ele>964</ele>
        <time>2020-08-13T05:29:17.000Z</time>
      </trkpt>
      <trkpt lat="42.46501450426876544952392578125" lon="1.192475259304046630859375">
        <ele>963.79998779296875</ele>
        <time>2020-08-13T05:29:18.000Z</time>
      </trkpt>
      <trkpt lat="42.46508650481700897216796875" lon="1.1925736628472805023193359375">
        <ele>963.20001220703125</ele>
        <time>2020-08-13T05:29:22.000Z</time>
      </trkpt>
      <trkpt lat="42.4651329405605792999267578125" lon="1.19274172000586986541748046875">
        <ele>962.79998779296875</ele>
        <time>2020-08-13T05:29:27.000Z</time>
      </trkpt>
      <trkpt lat="42.46513905934989452362060546875" lon="1.19278480298817157745361328125">
        <ele>962.79998779296875</ele>
        <time>2020-08-13T05:29:28.000Z</time>
      </trkpt>
      <trkpt lat="42.4651436693966388702392578125" lon="1.19294573552906513214111328125">
        <ele>961.20001220703125</ele>
        <time>2020-08-13T05:29:32.000Z</time>
      </trkpt>
      <trkpt lat="42.46514526195824146270751953125" lon="1.19302335195243358612060546875">
        <ele>960.20001220703125</ele>
        <time>2020-08-13T05:29:34.000Z</time>
      </trkpt>
      <trkpt lat="42.46514417231082916259765625" lon="1.19306023232638835906982421875">
        <ele>960</ele>
        <time>2020-08-13T05:29:35.000Z</time>
      </trkpt>
      <trkpt lat="42.46513344347476959228515625" lon="1.1932284571230411529541015625">
        <ele>958.79998779296875</ele>
        <time>2020-08-13T05:29:39.000Z</time>
      </trkpt>
      <trkpt lat="42.46511793695390224456787109375" lon="1.19330733083188533782958984375">
        <ele>958</ele>
        <time>2020-08-13T05:29:41.000Z</time>
      </trkpt>
      <trkpt lat="42.4651098065078258514404296875" lon="1.1933421157300472259521484375">
        <ele>957.5999755859375</ele>
        <time>2020-08-13T05:29:42.000Z</time>
      </trkpt>
      <trkpt lat="42.4650749377906322479248046875" lon="1.19343875907361507415771484375">
        <ele>956.20001220703125</ele>
        <time>2020-08-13T05:29:45.000Z</time>
      </trkpt>
      <trkpt lat="42.4650645442306995391845703125" lon="1.1935043893754482269287109375">
        <ele>955.4000244140625</ele>
        <time>2020-08-13T05:29:47.000Z</time>
      </trkpt>
      <trkpt lat="42.4650456011295318603515625" lon="1.1936512403190135955810546875">
        <ele>955</ele>
        <time>2020-08-13T05:29:51.000Z</time>
      </trkpt>
      <trkpt lat="42.465036548674106597900390625" lon="1.19372860528528690338134765625">
        <ele>954.4000244140625</ele>
        <time>2020-08-13T05:29:53.000Z</time>
      </trkpt>
      <trkpt lat="42.465025484561920166015625" lon="1.19380454532802104949951171875">
        <ele>953.79998779296875</ele>
        <time>2020-08-13T05:29:55.000Z</time>
      </trkpt>
      <trkpt lat="42.4650209583342075347900390625" lon="1.19390663690865039825439453125">
        <ele>952.79998779296875</ele>
        <time>2020-08-13T05:29:58.000Z</time>
      </trkpt>
      <trkpt lat="42.465003021061420440673828125" lon="1.1940394900739192962646484375">
        <ele>952.20001220703125</ele>
        <time>2020-08-13T05:30:02.000Z</time>
      </trkpt>
      <trkpt lat="42.46499824337661266326904296875" lon="1.194122470915317535400390625">
        <ele>951.79998779296875</ele>
        <time>2020-08-13T05:30:04.000Z</time>
      </trkpt>
      <trkpt lat="42.4649803899228572845458984375" lon="1.1942513845860958099365234375">
        <ele>951.20001220703125</ele>
        <time>2020-08-13T05:30:07.000Z</time>
      </trkpt>
      <trkpt lat="42.46498583815991878509521484375" lon="1.194389350712299346923828125">
        <ele>949.79998779296875</ele>
        <time>2020-08-13T05:30:11.000Z</time>
      </trkpt>
      <trkpt lat="42.46499137021601200103759765625" lon="1.19442321360111236572265625">
        <ele>949.5999755859375</ele>
        <time>2020-08-13T05:30:12.000Z</time>
      </trkpt>
      <trkpt lat="42.46502188034355640411376953125" lon="1.19459512643516063690185546875">
        <ele>948.79998779296875</ele>
        <time>2020-08-13T05:30:17.000Z</time>
      </trkpt>
      <trkpt lat="42.4650212936103343963623046875" lon="1.19467374868690967559814453125">
        <ele>948.20001220703125</ele>
        <time>2020-08-13T05:30:19.000Z</time>
      </trkpt>
      <trkpt lat="42.46503931470215320587158203125" lon="1.19480819441378116607666015625">
        <ele>947.5999755859375</ele>
        <time>2020-08-13T05:30:22.000Z</time>
      </trkpt>
      <trkpt lat="42.465041242539882659912109375" lon="1.19489486329257488250732421875">
        <ele>946.79998779296875</ele>
        <time>2020-08-13T05:30:24.000Z</time>
      </trkpt>
      <trkpt lat="42.4650400690734386444091796875" lon="1.19493895210325717926025390625">
        <ele>946.20001220703125</ele>
        <time>2020-08-13T05:30:25.000Z</time>
      </trkpt>
      <trkpt lat="42.46504266746342182159423828125" lon="1.195100806653499603271484375">
        <ele>945.20001220703125</ele>
        <time>2020-08-13T05:30:29.000Z</time>
      </trkpt>
      <trkpt lat="42.46504719369113445281982421875" lon="1.19513927958905696868896484375">
        <ele>944.79998779296875</ele>
        <time>2020-08-13T05:30:30.000Z</time>
      </trkpt>
      <trkpt lat="42.46506010182201862335205078125" lon="1.19524707086384296417236328125">
        <ele>944.20001220703125</ele>
        <time>2020-08-13T05:30:33.000Z</time>
      </trkpt>
      <trkpt lat="42.465060018002986907958984375" lon="1.195318065583705902099609375">
        <ele>943.5999755859375</ele>
        <time>2020-08-13T05:30:35.000Z</time>
      </trkpt>
      <trkpt lat="42.4650581739842891693115234375" lon="1.1953966878354549407958984375">
        <ele>943</ele>
        <time>2020-08-13T05:30:37.000Z</time>
      </trkpt>
      <trkpt lat="42.465044595301151275634765625" lon="1.19550003670156002044677734375">
        <ele>942</ele>
        <time>2020-08-13T05:30:40.000Z</time>
      </trkpt>
      <trkpt lat="42.46503042988479137420654296875" lon="1.19563381187617778778076171875">
        <ele>941.20001220703125</ele>
        <time>2020-08-13T05:30:44.000Z</time>
      </trkpt>
      <trkpt lat="42.465029172599315643310546875" lon="1.19570254348218441009521484375">
        <ele>941</ele>
        <time>2020-08-13T05:30:46.000Z</time>
      </trkpt>
      <trkpt lat="42.465019784867763519287109375" lon="1.19585174135863780975341796875">
        <ele>940.4000244140625</ele>
        <time>2020-08-13T05:30:50.000Z</time>
      </trkpt>
      <trkpt lat="42.465022467076778411865234375" lon="1.19593773968517780303955078125">
        <ele>939.79998779296875</ele>
        <time>2020-08-13T05:30:52.000Z</time>
      </trkpt>
      <trkpt lat="42.46503822505474090576171875" lon="1.19607545435428619384765625">
        <ele>938.5999755859375</ele>
        <time>2020-08-13T05:30:55.000Z</time>
      </trkpt>
      <trkpt lat="42.46504954062402248382568359375" lon="1.1962285079061985015869140625">
        <ele>937.5999755859375</ele>
        <time>2020-08-13T05:30:59.000Z</time>
      </trkpt>
      <trkpt lat="42.465054653584957122802734375" lon="1.19626496918499469757080078125">
        <ele>937.4000244140625</ele>
        <time>2020-08-13T05:31:00.000Z</time>
      </trkpt>
      <trkpt lat="42.46505792252719402313232421875" lon="1.19640863500535488128662109375">
        <ele>935.79998779296875</ele>
        <time>2020-08-13T05:31:04.000Z</time>
      </trkpt>
      <trkpt lat="42.46505968272686004638671875" lon="1.196440570056438446044921875">
        <ele>935.5999755859375</ele>
        <time>2020-08-13T05:31:05.000Z</time>
      </trkpt>
      <trkpt lat="42.46506395749747753143310546875" lon="1.1965403147041797637939453125">
        <ele>934.79998779296875</ele>
        <time>2020-08-13T05:31:08.000Z</time>
      </trkpt>
      <trkpt lat="42.46505272574722766876220703125" lon="1.19664676487445831298828125">
        <ele>934.20001220703125</ele>
        <time>2020-08-13T05:31:11.000Z</time>
      </trkpt>
      <trkpt lat="42.4649785459041595458984375" lon="1.19685136713087558746337890625">
        <ele>933.4000244140625</ele>
        <time>2020-08-13T05:31:17.000Z</time>
      </trkpt>
      <trkpt lat="42.4649704992771148681640625" lon="1.19688103906810283660888671875">
        <ele>932.79998779296875</ele>
        <time>2020-08-13T05:31:18.000Z</time>
      </trkpt>
      <trkpt lat="42.46495063416659832000732421875" lon="1.1969255469739437103271484375">
        <ele>932.20001220703125</ele>
        <time>2020-08-13T05:31:20.000Z</time>
      </trkpt>
      <trkpt lat="42.46490553952753543853759765625" lon="1.19701288640499114990234375">
        <ele>931.5999755859375</ele>
        <time>2020-08-13T05:31:24.000Z</time>
      </trkpt>
      <trkpt lat="42.46488894335925579071044921875" lon="1.19708589278161525726318359375">
        <ele>931</ele>
        <time>2020-08-13T05:31:27.000Z</time>
      </trkpt>
      <trkpt lat="42.46488223783671855926513671875" lon="1.1971414647996425628662109375">
        <ele>930.5999755859375</ele>
        <time>2020-08-13T05:31:29.000Z</time>
      </trkpt>
      <trkpt lat="42.46488374657928943634033203125" lon="1.1971713043749332427978515625">
        <ele>929.79998779296875</ele>
        <time>2020-08-13T05:31:30.000Z</time>
      </trkpt>
      <trkpt lat="42.46489129029214382171630859375" lon="1.19720189832150936126708984375">
        <ele>929.4000244140625</ele>
        <time>2020-08-13T05:31:31.000Z</time>
      </trkpt>
      <trkpt lat="42.46493789367377758026123046875" lon="1.1972702108323574066162109375">
        <ele>928.79998779296875</ele>
        <time>2020-08-13T05:31:34.000Z</time>
      </trkpt>
      <trkpt lat="42.464993633329868316650390625" lon="1.19728286750614643096923828125">
        <ele>928.20001220703125</ele>
        <time>2020-08-13T05:31:38.000Z</time>
      </trkpt>
      <trkpt lat="42.465001679956912994384765625" lon="1.1972858011722564697265625">
        <ele>928</ele>
        <time>2020-08-13T05:31:47.000Z</time>
      </trkpt>
      <trkpt lat="42.46505088172852993011474609375" lon="1.1972484178841114044189453125">
        <ele>928</ele>
        <time>2020-08-13T05:31:50.000Z</time>
      </trkpt>
      <trkpt lat="42.4650809727609157562255859375" lon="1.1971954442560672760009765625">
        <ele>927.5999755859375</ele>
        <time>2020-08-13T05:31:52.000Z</time>
      </trkpt>
      <trkpt lat="42.465111315250396728515625" lon="1.19705202989280223846435546875">
        <ele>926.79998779296875</ele>
        <time>2020-08-13T05:31:56.000Z</time>
      </trkpt>
      <trkpt lat="42.4651151709258556365966796875" lon="1.19698732160031795501708984375">
        <ele>926.4000244140625</ele>
        <time>2020-08-13T05:31:58.000Z</time>
      </trkpt>
      <trkpt lat="42.46512263081967830657958984375" lon="1.19692093692719936370849609375">
        <ele>925.79998779296875</ele>
        <time>2020-08-13T05:32:00.000Z</time>
      </trkpt>
      <trkpt lat="42.46515364386141300201416015625" lon="1.1968269757926464080810546875">
        <ele>925.5999755859375</ele>
        <time>2020-08-13T05:32:03.000Z</time>
      </trkpt>
      <trkpt lat="42.46520309709012508392333984375" lon="1.19666947983205318450927734375">
        <ele>924.79998779296875</ele>
        <time>2020-08-13T05:32:08.000Z</time>
      </trkpt>
      <trkpt lat="42.46525305323302745819091796875" lon="1.196549870073795318603515625">
        <ele>923.79998779296875</ele>
        <time>2020-08-13T05:32:12.000Z</time>
      </trkpt>
      <trkpt lat="42.46526579372584819793701171875" lon="1.19647485204041004180908203125">
        <ele>923.20001220703125</ele>
        <time>2020-08-13T05:32:14.000Z</time>
      </trkpt>
      <trkpt lat="42.465269230306148529052734375" lon="1.19639840908348560333251953125">
        <ele>922.4000244140625</ele>
        <time>2020-08-13T05:32:16.000Z</time>
      </trkpt>
      <trkpt lat="42.46526076458394527435302734375" lon="1.196256838738918304443359375">
        <ele>921.4000244140625</ele>
        <time>2020-08-13T05:32:19.000Z</time>
      </trkpt>
      <trkpt lat="42.4652479402720928192138671875" lon="1.196061037480831146240234375">
        <ele>921.20001220703125</ele>
        <time>2020-08-13T05:32:24.000Z</time>
      </trkpt>
      <trkpt lat="42.465256489813327789306640625" lon="1.19598694145679473876953125">
        <ele>920.4000244140625</ele>
        <time>2020-08-13T05:32:26.000Z</time>
      </trkpt>
      <trkpt lat="42.465285994112491607666015625" lon="1.19588795118033885955810546875">
        <ele>919.20001220703125</ele>
        <time>2020-08-13T05:32:29.000Z</time>
      </trkpt>
      <trkpt lat="42.4653004109859466552734375" lon="1.1958550103008747100830078125">
        <ele>919</ele>
        <time>2020-08-13T05:32:30.000Z</time>
      </trkpt>
      <trkpt lat="42.4653776921331882476806640625" lon="1.19560983963310718536376953125">
        <ele>918.20001220703125</ele>
        <time>2020-08-13T05:32:37.000Z</time>
      </trkpt>
      <trkpt lat="42.4653847329318523406982421875" lon="1.19557388126850128173828125">
        <ele>917.79998779296875</ele>
        <time>2020-08-13T05:32:38.000Z</time>
      </trkpt>
      <trkpt lat="42.4653887562453746795654296875" lon="1.1955083347856998443603515625">
        <ele>917</ele>
        <time>2020-08-13T05:32:40.000Z</time>
      </trkpt>
      <trkpt lat="42.46539470739662647247314453125" lon="1.19544303975999355316162109375">
        <ele>916.79998779296875</ele>
        <time>2020-08-13T05:32:42.000Z</time>
      </trkpt>
      <trkpt lat="42.4654157459735870361328125" lon="1.19527255184948444366455078125">
        <ele>915.79998779296875</ele>
        <time>2020-08-13T05:32:47.000Z</time>
      </trkpt>
      <trkpt lat="42.4654377065598964691162109375" lon="1.19508194737136363983154296875">
        <ele>915</ele>
        <time>2020-08-13T05:32:52.000Z</time>
      </trkpt>
      <trkpt lat="42.46545673348009586334228515625" lon="1.19494079612195491790771484375">
        <ele>914</ele>
        <time>2020-08-13T05:32:56.000Z</time>
      </trkpt>
      <trkpt lat="42.465470731258392333984375" lon="1.1949152313172817230224609375">
        <ele>913.79998779296875</ele>
        <time>2020-08-13T05:32:57.000Z</time>
      </trkpt>
      <trkpt lat="42.4654896743595600128173828125" lon="1.19485110975801944732666015625">
        <ele>913</ele>
        <time>2020-08-13T05:32:59.000Z</time>
      </trkpt>
      <trkpt lat="42.46550023555755615234375" lon="1.1947806179523468017578125">
        <ele>912.5999755859375</ele>
        <time>2020-08-13T05:33:01.000Z</time>
      </trkpt>
      <trkpt lat="42.46550953947007656097412109375" lon="1.19471414946019649505615234375">
        <ele>912.20001220703125</ele>
        <time>2020-08-13T05:33:03.000Z</time>
      </trkpt>
      <trkpt lat="42.46552328579127788543701171875" lon="1.19464793242514133453369140625">
        <ele>911.79998779296875</ele>
        <time>2020-08-13T05:33:05.000Z</time>
      </trkpt>
      <trkpt lat="42.46552906930446624755859375" lon="1.194609962403774261474609375">
        <ele>911.5999755859375</ele>
        <time>2020-08-13T05:33:06.000Z</time>
      </trkpt>
      <trkpt lat="42.46555513702332973480224609375" lon="1.19449429214000701904296875">
        <ele>910.79998779296875</ele>
        <time>2020-08-13T05:33:09.000Z</time>
      </trkpt>
      <trkpt lat="42.4655667878687381744384765625" lon="1.19445984251797199249267578125">
        <ele>910.4000244140625</ele>
        <time>2020-08-13T05:33:10.000Z</time>
      </trkpt>
      <trkpt lat="42.46558413840830326080322265625" lon="1.19438021443784236907958984375">
        <ele>909.5999755859375</ele>
        <time>2020-08-13T05:33:12.000Z</time>
      </trkpt>
      <trkpt lat="42.46561280451714992523193359375" lon="1.19427527301013469696044921875">
        <ele>908.4000244140625</ele>
        <time>2020-08-13T05:33:15.000Z</time>
      </trkpt>
      <trkpt lat="42.46562168933451175689697265625" lon="1.19424643926322460174560546875">
        <ele>908.4000244140625</ele>
        <time>2020-08-13T05:33:16.000Z</time>
      </trkpt>
      <trkpt lat="42.46567985974252223968505859375" lon="1.194146610796451568603515625">
        <ele>907.79998779296875</ele>
        <time>2020-08-13T05:33:19.000Z</time>
      </trkpt>
      <trkpt lat="42.46569997631013393402099609375" lon="1.19410880841314792633056640625">
        <ele>907.4000244140625</ele>
        <time>2020-08-13T05:33:20.000Z</time>
      </trkpt>
      <trkpt lat="42.4658222682774066925048828125" lon="1.19393647648394107818603515625">
        <ele>907</ele>
        <time>2020-08-13T05:33:25.000Z</time>
      </trkpt>
      <trkpt lat="42.46586727909743785858154296875" lon="1.1938483826816082000732421875">
        <ele>906.20001220703125</ele>
        <time>2020-08-13T05:33:27.000Z</time>
      </trkpt>
      <trkpt lat="42.46591639705002307891845703125" lon="1.1937310360372066497802734375">
        <ele>905.20001220703125</ele>
        <time>2020-08-13T05:33:30.000Z</time>
      </trkpt>
      <trkpt lat="42.46598102152347564697265625" lon="1.19356666691601276397705078125">
        <ele>904</ele>
        <time>2020-08-13T05:33:35.000Z</time>
      </trkpt>
      <trkpt lat="42.46600541286170482635498046875" lon="1.19350665248930454254150390625">
        <ele>904</ele>
        <time>2020-08-13T05:33:37.000Z</time>
      </trkpt>
      <trkpt lat="42.46602435596287250518798828125" lon="1.1934520862996578216552734375">
        <ele>903.20001220703125</ele>
        <time>2020-08-13T05:33:39.000Z</time>
      </trkpt>
      <trkpt lat="42.4660515971481800079345703125" lon="1.1933598853647708892822265625">
        <ele>902.20001220703125</ele>
        <time>2020-08-13T05:33:43.000Z</time>
      </trkpt>
      <trkpt lat="42.46605637483298778533935546875" lon="1.19332996197044849395751953125">
        <ele>902</ele>
        <time>2020-08-13T05:33:44.000Z</time>
      </trkpt>
      <trkpt lat="42.46609560213983058929443359375" lon="1.1931821890175342559814453125">
        <ele>901</ele>
        <time>2020-08-13T05:33:49.000Z</time>
      </trkpt>
      <trkpt lat="42.46609845198690891265869140625" lon="1.19315444491803646087646484375">
        <ele>901</ele>
        <time>2020-08-13T05:33:50.000Z</time>
      </trkpt>
      <trkpt lat="42.46611186303198337554931640625" lon="1.1930105276405811309814453125">
        <ele>899.79998779296875</ele>
        <time>2020-08-13T05:33:55.000Z</time>
      </trkpt>
      <trkpt lat="42.46613265015184879302978515625" lon="1.1927912570536136627197265625">
        <ele>898.79998779296875</ele>
        <time>2020-08-13T05:34:02.000Z</time>
      </trkpt>
      <trkpt lat="42.4661287106573581695556640625" lon="1.1926078610122203826904296875">
        <ele>897.5999755859375</ele>
        <time>2020-08-13T05:34:07.000Z</time>
      </trkpt>
      <trkpt lat="42.46612317860126495361328125" lon="1.19256754405796527862548828125">
        <ele>897.4000244140625</ele>
        <time>2020-08-13T05:34:08.000Z</time>
      </trkpt>
      <trkpt lat="42.466054446995258331298828125" lon="1.1924110539257526397705078125">
        <ele>896.4000244140625</ele>
        <time>2020-08-13T05:34:12.000Z</time>
      </trkpt>
      <trkpt lat="42.4659731425344944000244140625" lon="1.1922487802803516387939453125">
        <ele>896.20001220703125</ele>
        <time>2020-08-13T05:34:18.000Z</time>
      </trkpt>
      <trkpt lat="42.46593751944601535797119140625" lon="1.1921290867030620574951171875">
        <ele>895.20001220703125</ele>
        <time>2020-08-13T05:34:22.000Z</time>
      </trkpt>
      <trkpt lat="42.46592746116220951080322265625" lon="1.19210436008870601654052734375">
        <ele>894.79998779296875</ele>
        <time>2020-08-13T05:34:23.000Z</time>
      </trkpt>
      <trkpt lat="42.46590332128107547760009765625" lon="1.1920554935932159423828125">
        <ele>894.4000244140625</ele>
        <time>2020-08-13T05:34:25.000Z</time>
      </trkpt>
      <trkpt lat="42.46587331406772136688232421875" lon="1.1919611133635044097900390625">
        <ele>894.4000244140625</ele>
        <time>2020-08-13T05:34:29.000Z</time>
      </trkpt>
      <trkpt lat="42.4658219330012798309326171875" lon="1.19178433902561664581298828125">
        <ele>893</ele>
        <time>2020-08-13T05:34:35.000Z</time>
      </trkpt>
      <trkpt lat="42.465772144496440887451171875" lon="1.19163061492145061492919921875">
        <ele>892.4000244140625</ele>
        <time>2020-08-13T05:34:40.000Z</time>
      </trkpt>
      <trkpt lat="42.46575496159493923187255859375" lon="1.1915594525635242462158203125">
        <ele>891.79998779296875</ele>
        <time>2020-08-13T05:34:42.000Z</time>
      </trkpt>
      <trkpt lat="42.46573828160762786865234375" lon="1.1914548464119434356689453125">
        <ele>891.5999755859375</ele>
        <time>2020-08-13T05:34:45.000Z</time>
      </trkpt>
      <trkpt lat="42.4657089449465274810791015625" lon="1.191345043480396270751953125">
        <ele>890.79998779296875</ele>
        <time>2020-08-13T05:34:48.000Z</time>
      </trkpt>
      <trkpt lat="42.465702407062053680419921875" lon="1.19126223027706146240234375">
        <ele>890.20001220703125</ele>
        <time>2020-08-13T05:34:50.000Z</time>
      </trkpt>
      <trkpt lat="42.4656774289906024932861328125" lon="1.19114865548908710479736328125">
        <ele>889.5999755859375</ele>
        <time>2020-08-13T05:34:53.000Z</time>
      </trkpt>
      <trkpt lat="42.46565513312816619873046875" lon="1.19108160026371479034423828125">
        <ele>889</ele>
        <time>2020-08-13T05:34:55.000Z</time>
      </trkpt>
      <trkpt lat="42.46559620834887027740478515625" lon="1.1909289658069610595703125">
        <ele>888.4000244140625</ele>
        <time>2020-08-13T05:35:00.000Z</time>
      </trkpt>
      <trkpt lat="42.46557810343801975250244140625" lon="1.19084925390779972076416015625">
        <ele>887.5999755859375</ele>
        <time>2020-08-13T05:35:02.000Z</time>
      </trkpt>
      <trkpt lat="42.465540133416652679443359375" lon="1.1907383613288402557373046875">
        <ele>887.20001220703125</ele>
        <time>2020-08-13T05:35:05.000Z</time>
      </trkpt>
      <trkpt lat="42.4654645286500453948974609375" lon="1.1905056796967983245849609375">
        <ele>886.4000244140625</ele>
        <time>2020-08-13T05:35:11.000Z</time>
      </trkpt>
      <trkpt lat="42.465414069592952728271484375" lon="1.1903581582009792327880859375">
        <ele>885.20001220703125</ele>
        <time>2020-08-13T05:35:15.000Z</time>
      </trkpt>
      <trkpt lat="42.4653833918273448944091796875" lon="1.19029462337493896484375">
        <ele>884.79998779296875</ele>
        <time>2020-08-13T05:35:17.000Z</time>
      </trkpt>
      <trkpt lat="42.46535564772784709930419921875" lon="1.190167553722858428955078125">
        <ele>884.4000244140625</ele>
        <time>2020-08-13T05:35:21.000Z</time>
      </trkpt>
      <trkpt lat="42.46534802019596099853515625" lon="1.19013846851885318756103515625">
        <ele>884.4000244140625</ele>
        <time>2020-08-13T05:35:22.000Z</time>
      </trkpt>
      <trkpt lat="42.46534131467342376708984375" lon="1.19011466391384601593017578125">
        <ele>884.20001220703125</ele>
        <time>2020-08-13T05:35:23.000Z</time>
      </trkpt>
      <trkpt lat="42.46532530523836612701416015625" lon="1.19005565531551837921142578125">
        <ele>883.79998779296875</ele>
        <time>2020-08-13T05:35:25.000Z</time>
      </trkpt>
      <trkpt lat="42.4653042666614055633544921875" lon="1.1899809725582599639892578125">
        <ele>883.20001220703125</ele>
        <time>2020-08-13T05:35:27.000Z</time>
      </trkpt>
      <trkpt lat="42.4652938731014728546142578125" lon="1.18986119516193866729736328125">
        <ele>882.5999755859375</ele>
        <time>2020-08-13T05:35:30.000Z</time>
      </trkpt>
      <trkpt lat="42.465296722948551177978515625" lon="1.18972457014024257659912109375">
        <ele>882.20001220703125</ele>
        <time>2020-08-13T05:35:33.000Z</time>
      </trkpt>
      <trkpt lat="42.46527669019997119903564453125" lon="1.1895967461168766021728515625">
        <ele>881.5999755859375</ele>
        <time>2020-08-13T05:35:36.000Z</time>
      </trkpt>
      <trkpt lat="42.465272247791290283203125" lon="1.18954771198332309722900390625">
        <ele>881</ele>
        <time>2020-08-13T05:35:37.000Z</time>
      </trkpt>
      <trkpt lat="42.46525389142334461212158203125" lon="1.18941293098032474517822265625">
        <ele>879.79998779296875</ele>
        <time>2020-08-13T05:35:40.000Z</time>
      </trkpt>
      <trkpt lat="42.46524651534855365753173828125" lon="1.189339421689510345458984375">
        <ele>879.5999755859375</ele>
        <time>2020-08-13T05:35:42.000Z</time>
      </trkpt>
      <trkpt lat="42.4652378819882869720458984375" lon="1.18917253799736499786376953125">
        <ele>879.5999755859375</ele>
        <time>2020-08-13T05:35:46.000Z</time>
      </trkpt>
      <trkpt lat="42.46522338129580020904541015625" lon="1.1890579573810100555419921875">
        <ele>879</ele>
        <time>2020-08-13T05:35:49.000Z</time>
      </trkpt>
      <trkpt lat="42.46520276181399822235107421875" lon="1.18891504593193531036376953125">
        <ele>878.5999755859375</ele>
        <time>2020-08-13T05:35:53.000Z</time>
      </trkpt>
      <trkpt lat="42.46518113650381565093994140625" lon="1.188687644898891448974609375">
        <ele>877.79998779296875</ele>
        <time>2020-08-13T05:36:00.000Z</time>
      </trkpt>
      <trkpt lat="42.4651651270687580108642578125" lon="1.18849360384047031402587890625">
        <ele>877.5999755859375</ele>
        <time>2020-08-13T05:36:06.000Z</time>
      </trkpt>
      <trkpt lat="42.46515749953687191009521484375" lon="1.1883277259767055511474609375">
        <ele>877.4000244140625</ele>
        <time>2020-08-13T05:36:11.000Z</time>
      </trkpt>
      <trkpt lat="42.46514894999563694000244140625" lon="1.18814944289624691009521484375">
        <ele>877</ele>
        <time>2020-08-13T05:36:17.000Z</time>
      </trkpt>
      <trkpt lat="42.46513939462602138519287109375" lon="1.187977530062198638916015625">
        <ele>876.79998779296875</ele>
        <time>2020-08-13T05:36:23.000Z</time>
      </trkpt>
      <trkpt lat="42.4651124887168407440185546875" lon="1.187795810401439666748046875">
        <ele>877</ele>
        <time>2020-08-13T05:36:29.000Z</time>
      </trkpt>
      <trkpt lat="42.4650917015969753265380859375" lon="1.1876397393643856048583984375">
        <ele>877.20001220703125</ele>
        <time>2020-08-13T05:36:35.000Z</time>
      </trkpt>
      <trkpt lat="42.46506362222135066986083984375" lon="1.1875026114284992218017578125">
        <ele>877.20001220703125</ele>
        <time>2020-08-13T05:36:40.000Z</time>
      </trkpt>
      <trkpt lat="42.465051971375942230224609375" lon="1.18736498057842254638671875">
        <ele>877</ele>
        <time>2020-08-13T05:36:46.000Z</time>
      </trkpt>
      <trkpt lat="42.46508507989346981048583984375" lon="1.18721343576908111572265625">
        <ele>877.20001220703125</ele>
        <time>2020-08-13T05:36:52.000Z</time>
      </trkpt>
      <trkpt lat="42.4651128239929676055908203125" lon="1.1871242523193359375">
        <ele>877.20001220703125</ele>
        <time>2020-08-13T05:36:55.000Z</time>
      </trkpt>
      <trkpt lat="42.46511676348745822906494140625" lon="1.18705493398010730743408203125">
        <ele>877.20001220703125</ele>
        <time>2020-08-13T05:36:57.000Z</time>
      </trkpt>
      <trkpt lat="42.4651061184704303741455078125" lon="1.1867797560989856719970703125">
        <ele>876.4000244140625</ele>
        <time>2020-08-13T05:37:05.000Z</time>
      </trkpt>
      <trkpt lat="42.4650873430073261260986328125" lon="1.1866406165063381195068359375">
        <ele>876.20001220703125</ele>
        <time>2020-08-13T05:37:09.000Z</time>
      </trkpt>
      <trkpt lat="42.4650843255221843719482421875" lon="1.1865272931754589080810546875">
        <ele>876</ele>
        <time>2020-08-13T05:37:12.000Z</time>
      </trkpt>
      <trkpt lat="42.46508038602769374847412109375" lon="1.1863908357918262481689453125">
        <ele>875.20001220703125</ele>
        <time>2020-08-13T05:37:16.000Z</time>
      </trkpt>
      <trkpt lat="42.4650893546640872955322265625" lon="1.18620752356946468353271484375">
        <ele>874.79998779296875</ele>
        <time>2020-08-13T05:37:21.000Z</time>
      </trkpt>
      <trkpt lat="42.46509698219597339630126953125" lon="1.1861715652048587799072265625">
        <ele>874.5999755859375</ele>
        <time>2020-08-13T05:37:22.000Z</time>
      </trkpt>
      <trkpt lat="42.46511827223002910614013671875" lon="1.185901165008544921875">
        <ele>874</ele>
        <time>2020-08-13T05:37:29.000Z</time>
      </trkpt>
      <trkpt lat="42.46511827223002910614013671875" lon="1.18568482808768749237060546875">
        <ele>873.5999755859375</ele>
        <time>2020-08-13T05:37:34.000Z</time>
      </trkpt>
      <trkpt lat="42.4651181884109973907470703125" lon="1.18563939817249774932861328125">
        <ele>873.4000244140625</ele>
        <time>2020-08-13T05:37:35.000Z</time>
      </trkpt>
      <trkpt lat="42.46510754339396953582763671875" lon="1.18538861162960529327392578125">
        <ele>873</ele>
        <time>2020-08-13T05:37:41.000Z</time>
      </trkpt>
      <trkpt lat="42.46509815566241741180419921875" lon="1.18526673875749111175537109375">
        <ele>872.5999755859375</ele>
        <time>2020-08-13T05:37:44.000Z</time>
      </trkpt>
      <trkpt lat="42.46506596915423870086669921875" lon="1.18509826250374317169189453125">
        <ele>872.20001220703125</ele>
        <time>2020-08-13T05:37:48.000Z</time>
      </trkpt>
      <trkpt lat="42.4650457687675952911376953125" lon="1.18498275987803936004638671875">
        <ele>871.5999755859375</ele>
        <time>2020-08-13T05:37:51.000Z</time>
      </trkpt>
      <trkpt lat="42.46502992697060108184814453125" lon="1.1849032156169414520263671875">
        <ele>871.20001220703125</ele>
        <time>2020-08-13T05:37:53.000Z</time>
      </trkpt>
      <trkpt lat="42.4650135822594165802001953125" lon="1.18482098914682865142822265625">
        <ele>870.4000244140625</ele>
        <time>2020-08-13T05:37:55.000Z</time>
      </trkpt>
      <trkpt lat="42.4650135822594165802001953125" lon="1.184701211750507354736328125">
        <ele>870.20001220703125</ele>
        <time>2020-08-13T05:37:58.000Z</time>
      </trkpt>
      <trkpt lat="42.46506429277360439300537109375" lon="1.18448370136320590972900390625">
        <ele>869.79998779296875</ele>
        <time>2020-08-13T05:38:04.000Z</time>
      </trkpt>
      <trkpt lat="42.46514459140598773956298828125" lon="1.184214055538177490234375">
        <ele>869.20001220703125</ele>
        <time>2020-08-13T05:38:11.000Z</time>
      </trkpt>
      <trkpt lat="42.46515615843236446380615234375" lon="1.18417206220328807830810546875">
        <ele>869</ele>
        <time>2020-08-13T05:38:12.000Z</time>
      </trkpt>
      <trkpt lat="42.46519153006374835968017578125" lon="1.183890514075756072998046875">
        <ele>868</ele>
        <time>2020-08-13T05:38:19.000Z</time>
      </trkpt>
      <trkpt lat="42.4651879258453845977783203125" lon="1.1836596764624118804931640625">
        <ele>866.5999755859375</ele>
        <time>2020-08-13T05:38:24.000Z</time>
      </trkpt>
      <trkpt lat="42.46518398635089397430419921875" lon="1.18361768312752246856689453125">
        <ele>866.20001220703125</ele>
        <time>2020-08-13T05:38:25.000Z</time>
      </trkpt>
      <trkpt lat="42.4651694856584072113037109375" lon="1.18353269062936305999755859375">
        <ele>865.4000244140625</ele>
        <time>2020-08-13T05:38:27.000Z</time>
      </trkpt>
      <trkpt lat="42.4651520512998104095458984375" lon="1.18342339061200618743896484375">
        <ele>865.20001220703125</ele>
        <time>2020-08-13T05:38:30.000Z</time>
      </trkpt>
      <trkpt lat="42.46513520367443561553955078125" lon="1.1832710914313793182373046875">
        <ele>864.4000244140625</ele>
        <time>2020-08-13T05:38:34.000Z</time>
      </trkpt>
      <trkpt lat="42.4651074595749378204345703125" lon="1.18310772813856601715087890625">
        <ele>851</ele>
        <time>2020-08-13T05:38:38.000Z</time>
      </trkpt>
      <trkpt lat="42.4650984071195125579833984375" lon="1.18306648917496204376220703125">
        <ele>862.5999755859375</ele>
        <time>2020-08-13T05:38:39.000Z</time>
      </trkpt>
      <trkpt lat="42.465088181197643280029296875" lon="1.18298887275159358978271484375">
        <ele>861.79998779296875</ele>
        <time>2020-08-13T05:38:41.000Z</time>
      </trkpt>
      <trkpt lat="42.46507585979998111724853515625" lon="1.18286683224141597747802734375">
        <ele>861</ele>
        <time>2020-08-13T05:38:44.000Z</time>
      </trkpt>
      <trkpt lat="42.46507183648645877838134765625" lon="1.1828298680484294891357421875">
        <ele>860.5999755859375</ele>
        <time>2020-08-13T05:38:45.000Z</time>
      </trkpt>
      <trkpt lat="42.46502372436225414276123046875" lon="1.18262778036296367645263671875">
        <ele>859.5999755859375</ele>
        <time>2020-08-13T05:38:50.000Z</time>
      </trkpt>
      <trkpt lat="42.4649461917579174041748046875" lon="1.18249802850186824798583984375">
        <ele>858.20001220703125</ele>
        <time>2020-08-13T05:38:54.000Z</time>
      </trkpt>
      <trkpt lat="42.46489942073822021484375" lon="1.18244941346347332000732421875">
        <ele>857.79998779296875</ele>
        <time>2020-08-13T05:38:56.000Z</time>
      </trkpt>
      <trkpt lat="42.464856840670108795166015625" lon="1.1824070848524570465087890625">
        <ele>857.20001220703125</ele>
        <time>2020-08-13T05:38:58.000Z</time>
      </trkpt>
      <trkpt lat="42.46476975269615650177001953125" lon="1.1823222599923610687255859375">
        <ele>856.20001220703125</ele>
        <time>2020-08-13T05:39:02.000Z</time>
      </trkpt>
      <trkpt lat="42.4647478759288787841796875" lon="1.18230625055730342864990234375">
        <ele>856</ele>
        <time>2020-08-13T05:39:03.000Z</time>
      </trkpt>
      <trkpt lat="42.46465575881302356719970703125" lon="1.18219904601573944091796875">
        <ele>854.5999755859375</ele>
        <time>2020-08-13T05:39:08.000Z</time>
      </trkpt>
      <trkpt lat="42.46463815681636333465576171875" lon="1.18217281065881252288818359375">
        <ele>854.4000244140625</ele>
        <time>2020-08-13T05:39:09.000Z</time>
      </trkpt>
      <trkpt lat="42.46458199806511402130126953125" lon="1.18209871463477611541748046875">
        <ele>853.4000244140625</ele>
        <time>2020-08-13T05:39:12.000Z</time>
      </trkpt>
      <trkpt lat="42.4645415134727954864501953125" lon="1.18205688893795013427734375">
        <ele>853</ele>
        <time>2020-08-13T05:39:14.000Z</time>
      </trkpt>
      <trkpt lat="42.46448392979800701141357421875" lon="1.1820057593286037445068359375">
        <ele>852</ele>
        <time>2020-08-13T05:39:17.000Z</time>
      </trkpt>
      <trkpt lat="42.46444436721503734588623046875" lon="1.1819685436785221099853515625">
        <ele>851.4000244140625</ele>
        <time>2020-08-13T05:39:19.000Z</time>
      </trkpt>
      <trkpt lat="42.4644208140671253204345703125" lon="1.18194716982543468475341796875">
        <ele>851</ele>
        <time>2020-08-13T05:39:20.000Z</time>
      </trkpt>
      <trkpt lat="42.464345209300518035888671875" lon="1.18188195861876010894775390625">
        <ele>849.79998779296875</ele>
        <time>2020-08-13T05:39:24.000Z</time>
      </trkpt>
      <trkpt lat="42.46424370445311069488525390625" lon="1.18174818344414234161376953125">
        <ele>848.4000244140625</ele>
        <time>2020-08-13T05:39:29.000Z</time>
      </trkpt>
      <trkpt lat="42.4642065726220607757568359375" lon="1.18170074187219142913818359375">
        <ele>847.79998779296875</ele>
        <time>2020-08-13T05:39:31.000Z</time>
      </trkpt>
      <trkpt lat="42.4641685187816619873046875" lon="1.18166235275566577911376953125">
        <ele>847</ele>
        <time>2020-08-13T05:39:33.000Z</time>
      </trkpt>
      <trkpt lat="42.4640907347202301025390625" lon="1.18158507160842418670654296875">
        <ele>846.20001220703125</ele>
        <time>2020-08-13T05:39:37.000Z</time>
      </trkpt>
      <trkpt lat="42.46407019905745983123779296875" lon="1.181561015546321868896484375">
        <ele>846</ele>
        <time>2020-08-13T05:39:38.000Z</time>
      </trkpt>
      <trkpt lat="42.46401504613459110260009765625" lon="1.1815090477466583251953125">
        <ele>845.20001220703125</ele>
        <time>2020-08-13T05:39:41.000Z</time>
      </trkpt>
      <trkpt lat="42.4639745615422725677490234375" lon="1.18147728033363819122314453125">
        <ele>845.20001220703125</ele>
        <time>2020-08-13T05:39:43.000Z</time>
      </trkpt>
      <trkpt lat="42.46389904059469699859619140625" lon="1.18139765225350856781005859375">
        <ele>844</ele>
        <time>2020-08-13T05:39:47.000Z</time>
      </trkpt>
      <trkpt lat="42.46384036727249622344970703125" lon="1.18134677410125732421875">
        <ele>842.5999755859375</ele>
        <time>2020-08-13T05:39:50.000Z</time>
      </trkpt>
      <trkpt lat="42.4637797661125659942626953125" lon="1.18129187263548374176025390625">
        <ele>841.4000244140625</ele>
        <time>2020-08-13T05:39:53.000Z</time>
      </trkpt>
      <trkpt lat="42.4637499265372753143310546875" lon="1.18123755790293216705322265625">
        <ele>841</ele>
        <time>2020-08-13T05:39:55.000Z</time>
      </trkpt>
      <trkpt lat="42.46372302062809467315673828125" lon="1.1811712570488452911376953125">
        <ele>840.4000244140625</ele>
        <time>2020-08-13T05:39:57.000Z</time>
      </trkpt>
      <trkpt lat="42.463687397539615631103515625" lon="1.1810710094869136810302734375">
        <ele>839.79998779296875</ele>
        <time>2020-08-13T05:40:00.000Z</time>
      </trkpt>
      <trkpt lat="42.4636597372591495513916015625" lon="1.18100303225219249725341796875">
        <ele>839.4000244140625</ele>
        <time>2020-08-13T05:40:02.000Z</time>
      </trkpt>
      <trkpt lat="42.4636057578027248382568359375" lon="1.18089817464351654052734375">
        <ele>838.5999755859375</ele>
        <time>2020-08-13T05:40:05.000Z</time>
      </trkpt>
      <trkpt lat="42.4635863117873668670654296875" lon="1.1808653175830841064453125">
        <ele>838.20001220703125</ele>
        <time>2020-08-13T05:40:06.000Z</time>
      </trkpt>
      <trkpt lat="42.46352755464613437652587890625" lon="1.1807561852037906646728515625">
        <ele>837.20001220703125</ele>
        <time>2020-08-13T05:40:09.000Z</time>
      </trkpt>
      <trkpt lat="42.46348924934864044189453125" lon="1.1806931532919406890869140625">
        <ele>836.79998779296875</ele>
        <time>2020-08-13T05:40:11.000Z</time>
      </trkpt>
      <trkpt lat="42.46345262043178081512451171875" lon="1.18062819354236125946044921875">
        <ele>836</ele>
        <time>2020-08-13T05:40:13.000Z</time>
      </trkpt>
      <trkpt lat="42.4634040892124176025390625" lon="1.18052945472300052642822265625">
        <ele>834.5999755859375</ele>
        <time>2020-08-13T05:40:16.000Z</time>
      </trkpt>
      <trkpt lat="42.4633563123643398284912109375" lon="1.1804447136819362640380859375">
        <ele>833.4000244140625</ele>
        <time>2020-08-13T05:40:19.000Z</time>
      </trkpt>
      <trkpt lat="42.46327777393162250518798828125" lon="1.18034698069095611572265625">
        <ele>833</ele>
        <time>2020-08-13T05:40:23.000Z</time>
      </trkpt>
      <trkpt lat="42.46321164071559906005859375" lon="1.18029023520648479461669921875">
        <ele>832.20001220703125</ele>
        <time>2020-08-13T05:40:26.000Z</time>
      </trkpt>
      <trkpt lat="42.46316646225750446319580078125" lon="1.18024505674839019775390625">
        <ele>831.4000244140625</ele>
        <time>2020-08-13T05:40:28.000Z</time>
      </trkpt>
      <trkpt lat="42.46314684860408306121826171875" lon="1.18021798320114612579345703125">
        <ele>831.20001220703125</ele>
        <time>2020-08-13T05:40:29.000Z</time>
      </trkpt>
      <trkpt lat="42.4631192721426486968994140625" lon="1.18010063655674457550048828125">
        <ele>830.5999755859375</ele>
        <time>2020-08-13T05:40:33.000Z</time>
      </trkpt>
      <trkpt lat="42.46312522329390048980712890625" lon="1.18001899681985378265380859375">
        <ele>830.20001220703125</ele>
        <time>2020-08-13T05:40:35.000Z</time>
      </trkpt>
      <trkpt lat="42.46312178671360015869140625" lon="1.1798888258635997772216796875">
        <ele>829</ele>
        <time>2020-08-13T05:40:38.000Z</time>
      </trkpt>
      <trkpt lat="42.46305716224014759063720703125" lon="1.17974943481385707855224609375">
        <ele>828</ele>
        <time>2020-08-13T05:40:42.000Z</time>
      </trkpt>
      <trkpt lat="42.46304073370993137359619140625" lon="1.17972261272370815277099609375">
        <ele>827.79998779296875</ele>
        <time>2020-08-13T05:40:43.000Z</time>
      </trkpt>
      <trkpt lat="42.46299010701477527618408203125" lon="1.1796299926936626434326171875">
        <ele>827</ele>
        <time>2020-08-13T05:40:46.000Z</time>
      </trkpt>
      <trkpt lat="42.4629402346909046173095703125" lon="1.17952865548431873321533203125">
        <ele>826</ele>
        <time>2020-08-13T05:40:49.000Z</time>
      </trkpt>
      <trkpt lat="42.46292330324649810791015625" lon="1.1794965527951717376708984375">
        <ele>825.79998779296875</ele>
        <time>2020-08-13T05:40:50.000Z</time>
      </trkpt>
      <trkpt lat="42.46289539150893688201904296875" lon="1.17943628691136837005615234375">
        <ele>824.79998779296875</ele>
        <time>2020-08-13T05:40:52.000Z</time>
      </trkpt>
      <trkpt lat="42.46285482309758663177490234375" lon="1.17935598827898502349853515625">
        <ele>823.4000244140625</ele>
        <time>2020-08-13T05:40:55.000Z</time>
      </trkpt>
      <trkpt lat="42.46283755637705326080322265625" lon="1.17933620698750019073486328125">
        <ele>823.20001220703125</ele>
        <time>2020-08-13T05:40:56.000Z</time>
      </trkpt>
      <trkpt lat="42.4627833254635334014892578125" lon="1.179278455674648284912109375">
        <ele>822.4000244140625</ele>
        <time>2020-08-13T05:40:59.000Z</time>
      </trkpt>
      <trkpt lat="42.4627434276044368743896484375" lon="1.17923595942556858062744140625">
        <ele>821.4000244140625</ele>
        <time>2020-08-13T05:41:01.000Z</time>
      </trkpt>
      <trkpt lat="42.46271316893398761749267578125" lon="1.17919337935745716094970703125">
        <ele>820.4000244140625</ele>
        <time>2020-08-13T05:41:03.000Z</time>
      </trkpt>
      <trkpt lat="42.4626334570348262786865234375" lon="1.17910352535545825958251953125">
        <ele>819.20001220703125</ele>
        <time>2020-08-13T05:41:08.000Z</time>
      </trkpt>
      <trkpt lat="42.46261753141880035400390625" lon="1.17908122949302196502685546875">
        <ele>819</ele>
        <time>2020-08-13T05:41:09.000Z</time>
      </trkpt>
      <trkpt lat="42.46256195940077304840087890625" lon="1.17898215539753437042236328125">
        <ele>818</ele>
        <time>2020-08-13T05:41:13.000Z</time>
      </trkpt>
      <trkpt lat="42.46254234574735164642333984375" lon="1.17890772409737110137939453125">
        <ele>817.20001220703125</ele>
        <time>2020-08-13T05:41:16.000Z</time>
      </trkpt>
      <trkpt lat="42.46253312565386295318603515625" lon="1.17885910905897617340087890625">
        <ele>816.5999755859375</ele>
        <time>2020-08-13T05:41:18.000Z</time>
      </trkpt>
      <trkpt lat="42.46252172626554965972900390625" lon="1.17874436080455780029296875">
        <ele>815.4000244140625</ele>
        <time>2020-08-13T05:41:22.000Z</time>
      </trkpt>
      <trkpt lat="42.46251602657139301300048828125" lon="1.17863933555781841278076171875">
        <ele>814.4000244140625</ele>
        <time>2020-08-13T05:41:25.000Z</time>
      </trkpt>
      <trkpt lat="42.462505213916301727294921875" lon="1.17853741161525249481201171875">
        <ele>813.79998779296875</ele>
        <time>2020-08-13T05:41:28.000Z</time>
      </trkpt>
      <trkpt lat="42.46250152587890625" lon="1.1784692667424678802490234375">
        <ele>813.20001220703125</ele>
        <time>2020-08-13T05:41:30.000Z</time>
      </trkpt>
      <trkpt lat="42.462500520050525665283203125" lon="1.17836390621960163116455078125">
        <ele>812.4000244140625</ele>
        <time>2020-08-13T05:41:33.000Z</time>
      </trkpt>
      <trkpt lat="42.46249976567924022674560546875" lon="1.17832769639790058135986328125">
        <ele>811.5999755859375</ele>
        <time>2020-08-13T05:41:34.000Z</time>
      </trkpt>
      <trkpt lat="42.462488114833831787109375" lon="1.17821956984698772430419921875">
        <ele>810.4000244140625</ele>
        <time>2020-08-13T05:41:37.000Z</time>
      </trkpt>
      <trkpt lat="42.46248199604451656341552734375" lon="1.17815955542027950286865234375">
        <ele>809.79998779296875</ele>
        <time>2020-08-13T05:41:39.000Z</time>
      </trkpt>
      <trkpt lat="42.4624711833894252777099609375" lon="1.17810825817286968231201171875">
        <ele>809</ele>
        <time>2020-08-13T05:41:41.000Z</time>
      </trkpt>
      <trkpt lat="42.46246053837239742279052734375" lon="1.17804774083197116851806640625">
        <ele>808.5999755859375</ele>
        <time>2020-08-13T05:41:43.000Z</time>
      </trkpt>
      <trkpt lat="42.46245081536471843719482421875" lon="1.17799275554716587066650390625">
        <ele>808</ele>
        <time>2020-08-13T05:41:45.000Z</time>
      </trkpt>
      <trkpt lat="42.46244989335536956787109375" lon="1.17792905308306217193603515625">
        <ele>807</ele>
        <time>2020-08-13T05:41:47.000Z</time>
      </trkpt>
      <trkpt lat="42.4624470435082912445068359375" lon="1.17786618880927562713623046875">
        <ele>806.5999755859375</ele>
        <time>2020-08-13T05:41:49.000Z</time>
      </trkpt>
      <trkpt lat="42.4624433554708957672119140625" lon="1.17774465121328830718994140625">
        <ele>805.5999755859375</ele>
        <time>2020-08-13T05:41:53.000Z</time>
      </trkpt>
      <trkpt lat="42.462437488138675689697265625" lon="1.1776793561875820159912109375">
        <ele>804.4000244140625</ele>
        <time>2020-08-13T05:41:55.000Z</time>
      </trkpt>
      <trkpt lat="42.46243773959577083587646484375" lon="1.177547089755535125732421875">
        <ele>803.4000244140625</ele>
        <time>2020-08-13T05:41:59.000Z</time>
      </trkpt>
      <trkpt lat="42.46243958361446857452392578125" lon="1.1774750053882598876953125">
        <ele>803</ele>
        <time>2020-08-13T05:42:01.000Z</time>
      </trkpt>
      <trkpt lat="42.46243287809193134307861328125" lon="1.17740585468709468841552734375">
        <ele>802</ele>
        <time>2020-08-13T05:42:03.000Z</time>
      </trkpt>
      <trkpt lat="42.46242751367390155792236328125" lon="1.17730543948709964752197265625">
        <ele>801.20001220703125</ele>
        <time>2020-08-13T05:42:06.000Z</time>
      </trkpt>
      <trkpt lat="42.46242768131196498870849609375" lon="1.177237294614315032958984375">
        <ele>800.20001220703125</ele>
        <time>2020-08-13T05:42:08.000Z</time>
      </trkpt>
      <trkpt lat="42.46243321336805820465087890625" lon="1.177146434783935546875">
        <ele>798.79998779296875</ele>
        <time>2020-08-13T05:42:11.000Z</time>
      </trkpt>
      <trkpt lat="42.462437488138675689697265625" lon="1.177115254104137420654296875">
        <ele>798.5999755859375</ele>
        <time>2020-08-13T05:42:12.000Z</time>
      </trkpt>
      <trkpt lat="42.4624470435082912445068359375" lon="1.1769722588360309600830078125">
        <ele>797.5999755859375</ele>
        <time>2020-08-13T05:42:16.000Z</time>
      </trkpt>
      <trkpt lat="42.462439499795436859130859375" lon="1.1769001744687557220458984375">
        <ele>796.79998779296875</ele>
        <time>2020-08-13T05:42:18.000Z</time>
      </trkpt>
      <trkpt lat="42.462434135377407073974609375" lon="1.176864467561244964599609375">
        <ele>796.4000244140625</ele>
        <time>2020-08-13T05:42:19.000Z</time>
      </trkpt>
      <trkpt lat="42.46241359971463680267333984375" lon="1.17675122804939746856689453125">
        <ele>795.4000244140625</ele>
        <time>2020-08-13T05:42:22.000Z</time>
      </trkpt>
      <trkpt lat="42.46236515231430530548095703125" lon="1.17659666575491428375244140625">
        <ele>794.4000244140625</ele>
        <time>2020-08-13T05:42:26.000Z</time>
      </trkpt>
      <trkpt lat="42.46232709847390651702880859375" lon="1.17648149840533733367919921875">
        <ele>793.20001220703125</ele>
        <time>2020-08-13T05:42:29.000Z</time>
      </trkpt>
      <trkpt lat="42.46228158473968505859375" lon="1.17636733688414096832275390625">
        <ele>792.20001220703125</ele>
        <time>2020-08-13T05:42:32.000Z</time>
      </trkpt>
      <trkpt lat="42.4622509069740772247314453125" lon="1.17629609070718288421630859375">
        <ele>792</ele>
        <time>2020-08-13T05:42:34.000Z</time>
      </trkpt>
      <trkpt lat="42.46219382621347904205322265625" lon="1.1761701107025146484375">
        <ele>791</ele>
        <time>2020-08-13T05:42:38.000Z</time>
      </trkpt>
      <trkpt lat="42.46217756532132625579833984375" lon="1.17614136077463626861572265625">
        <ele>790.5999755859375</ele>
        <time>2020-08-13T05:42:39.000Z</time>
      </trkpt>
      <trkpt lat="42.46214814484119415283203125" lon="1.17607866413891315460205078125">
        <ele>789.79998779296875</ele>
        <time>2020-08-13T05:42:41.000Z</time>
      </trkpt>
      <trkpt lat="42.4621476419270038604736328125" lon="1.1760016344487667083740234375">
        <ele>788.79998779296875</ele>
        <time>2020-08-13T05:42:44.000Z</time>
      </trkpt>
      <trkpt lat="42.4621664173901081085205078125" lon="1.17598897777497768402099609375">
        <ele>788.4000244140625</ele>
        <time>2020-08-13T05:42:48.000Z</time>
      </trkpt>
      <trkpt lat="42.46216784231364727020263671875" lon="1.17598813958466053009033203125">
        <ele>788.4000244140625</ele>
        <time>2020-08-13T05:43:01.000Z</time>
      </trkpt>
      <trkpt lat="42.46216784231364727020263671875" lon="1.17598897777497768402099609375">
        <ele>788.79998779296875</ele>
        <time>2020-08-13T05:43:19.000Z</time>
      </trkpt>
      <trkpt lat="42.46218158863484859466552734375" lon="1.17598663084208965301513671875">
        <ele>788.5999755859375</ele>
        <time>2020-08-13T05:43:23.000Z</time>
      </trkpt>
      <trkpt lat="42.46220053173601627349853515625" lon="1.176007501780986785888671875">
        <ele>788.4000244140625</ele>
        <time>2020-08-13T05:43:25.000Z</time>
      </trkpt>
      <trkpt lat="42.4622452072799205780029296875" lon="1.176131553947925567626953125">
        <ele>788.5999755859375</ele>
        <time>2020-08-13T05:43:30.000Z</time>
      </trkpt>
      <trkpt lat="42.46232089586555957794189453125" lon="1.17634772323071956634521484375">
        <ele>789.20001220703125</ele>
        <time>2020-08-13T05:43:37.000Z</time>
      </trkpt>
      <trkpt lat="42.4623950757086277008056640625" lon="1.17657319642603397369384765625">
        <ele>789.20001220703125</ele>
        <time>2020-08-13T05:43:44.000Z</time>
      </trkpt>
      <trkpt lat="42.462466657161712646484375" lon="1.17685046978294849395751953125">
        <ele>789.20001220703125</ele>
        <time>2020-08-13T05:43:52.000Z</time>
      </trkpt>
      <trkpt lat="42.46252407319843769073486328125" lon="1.1771462671458721160888671875">
        <ele>789.4000244140625</ele>
        <time>2020-08-13T05:44:00.000Z</time>
      </trkpt>
      <trkpt lat="42.46258542872965335845947265625" lon="1.17744558490812778472900390625">
        <ele>789.5999755859375</ele>
        <time>2020-08-13T05:44:08.000Z</time>
      </trkpt>
      <trkpt lat="42.4626609496772289276123046875" lon="1.17773073725402355194091796875">
        <ele>789.20001220703125</ele>
        <time>2020-08-13T05:44:15.000Z</time>
      </trkpt>
      <trkpt lat="42.46278441511094570159912109375" lon="1.17801387794315814971923828125">
        <ele>789.20001220703125</ele>
        <time>2020-08-13T05:44:23.000Z</time>
      </trkpt>
      <trkpt lat="42.46290980838239192962646484375" lon="1.17825645022094249725341796875">
        <ele>789</ele>
        <time>2020-08-13T05:44:30.000Z</time>
      </trkpt>
      <trkpt lat="42.46303939260542392730712890625" lon="1.1785158701241016387939453125">
        <ele>789.20001220703125</ele>
        <time>2020-08-13T05:44:38.000Z</time>
      </trkpt>
      <trkpt lat="42.46315942145884037017822265625" lon="1.178743354976177215576171875">
        <ele>789.20001220703125</ele>
        <time>2020-08-13T05:44:45.000Z</time>
      </trkpt>
      <trkpt lat="42.46331146918237209320068359375" lon="1.17901668883860111236572265625">
        <ele>789.20001220703125</ele>
        <time>2020-08-13T05:44:53.000Z</time>
      </trkpt>
      <trkpt lat="42.46343535371124744415283203125" lon="1.17921366356313228607177734375">
        <ele>789.4000244140625</ele>
        <time>2020-08-13T05:44:59.000Z</time>
      </trkpt>
      <trkpt lat="42.4635417200624942779541015625" lon="1.17937761358916759490966796875">
        <ele>789.5999755859375</ele>
        <time>2020-08-13T05:45:04.000Z</time>
      </trkpt>
      <trkpt lat="42.46365747414529323577880859375" lon="1.17956989444792270660400390625">
        <ele>790</ele>
        <time>2020-08-13T05:45:10.000Z</time>
      </trkpt>
      <trkpt lat="42.463675998151302337646484375" lon="1.17960258387029170989990234375">
        <ele>790</ele>
        <time>2020-08-13T05:45:11.000Z</time>
      </trkpt>
      <trkpt lat="42.46379929594695568084716796875" lon="1.1798160709440708160400390625">
        <ele>790.5999755859375</ele>
        <time>2020-08-13T05:45:18.000Z</time>
      </trkpt>
      <trkpt lat="42.4638763256371021270751953125" lon="1.17992327548563480377197265625">
        <ele>791</ele>
        <time>2020-08-13T05:45:22.000Z</time>
      </trkpt>
      <trkpt lat="42.46391396038234233856201171875" lon="1.179977841675281524658203125">
        <ele>791.4000244140625</ele>
        <time>2020-08-13T05:45:24.000Z</time>
      </trkpt>
      <trkpt lat="42.4639899842441082000732421875" lon="1.18011773563921451568603515625">
        <ele>791.79998779296875</ele>
        <time>2020-08-13T05:45:29.000Z</time>
      </trkpt>
      <trkpt lat="42.4640546925365924835205078125" lon="1.18023273535072803497314453125">
        <ele>792</ele>
        <time>2020-08-13T05:45:33.000Z</time>
      </trkpt>
      <trkpt lat="42.46410540305078029632568359375" lon="1.18031638674437999725341796875">
        <ele>792.4000244140625</ele>
        <time>2020-08-13T05:45:36.000Z</time>
      </trkpt>
      <trkpt lat="42.4641712009906768798828125" lon="1.18042551912367343902587890625">
        <ele>793.20001220703125</ele>
        <time>2020-08-13T05:45:40.000Z</time>
      </trkpt>
      <trkpt lat="42.464232556521892547607421875" lon="1.1805211566388607025146484375">
        <ele>793.79998779296875</ele>
        <time>2020-08-13T05:45:44.000Z</time>
      </trkpt>
      <trkpt lat="42.46426415629684925079345703125" lon="1.18056960403919219970703125">
        <ele>794.20001220703125</ele>
        <time>2020-08-13T05:45:46.000Z</time>
      </trkpt>
      <trkpt lat="42.4643544293940067291259765625" lon="1.18070815689861774444580078125">
        <ele>794.5999755859375</ele>
        <time>2020-08-13T05:45:52.000Z</time>
      </trkpt>
      <trkpt lat="42.46440413407981395721435546875" lon="1.180775463581085205078125">
        <ele>795</ele>
        <time>2020-08-13T05:45:55.000Z</time>
      </trkpt>
      <trkpt lat="42.46449314989149570465087890625" lon="1.180873699486255645751953125">
        <ele>795.79998779296875</ele>
        <time>2020-08-13T05:46:00.000Z</time>
      </trkpt>
      <trkpt lat="42.46461368165910243988037109375" lon="1.18098861537873744964599609375">
        <ele>796</ele>
        <time>2020-08-13T05:46:06.000Z</time>
      </trkpt>
      <trkpt lat="42.464632205665111541748046875" lon="1.18100655265152454376220703125">
        <ele>796.20001220703125</ele>
        <time>2020-08-13T05:46:07.000Z</time>
      </trkpt>
      <trkpt lat="42.4647356383502483367919921875" lon="1.18112188763916492462158203125">
        <ele>796.79998779296875</ele>
        <time>2020-08-13T05:46:13.000Z</time>
      </trkpt>
      <trkpt lat="42.4647899530827999114990234375" lon="1.18117921985685825347900390625">
        <ele>797.20001220703125</ele>
        <time>2020-08-13T05:46:16.000Z</time>
      </trkpt>
      <trkpt lat="42.46488458476960659027099609375" lon="1.18127879686653614044189453125">
        <ele>798</ele>
        <time>2020-08-13T05:46:21.000Z</time>
      </trkpt>
      <trkpt lat="42.464972846210002899169921875" lon="1.18137753568589687347412109375">
        <ele>798.20001220703125</ele>
        <time>2020-08-13T05:46:26.000Z</time>
      </trkpt>
      <trkpt lat="42.46502305381000041961669921875" lon="1.18144224397838115692138671875">
        <ele>798.79998779296875</ele>
        <time>2020-08-13T05:46:29.000Z</time>
      </trkpt>
      <trkpt lat="42.465112321078777313232421875" lon="1.18154785595834255218505859375">
        <ele>799.4000244140625</ele>
        <time>2020-08-13T05:46:34.000Z</time>
      </trkpt>
      <trkpt lat="42.46514995582401752471923828125" lon="1.1815943755209445953369140625">
        <ele>799.5999755859375</ele>
        <time>2020-08-13T05:46:36.000Z</time>
      </trkpt>
      <trkpt lat="42.46529010124504566192626953125" lon="1.181782968342304229736328125">
        <ele>800.4000244140625</ele>
        <time>2020-08-13T05:46:44.000Z</time>
      </trkpt>
      <trkpt lat="42.46530937962234020233154296875" lon="1.1818089522421360015869140625">
        <ele>800.4000244140625</ele>
        <time>2020-08-13T05:46:45.000Z</time>
      </trkpt>
      <trkpt lat="42.4654537998139858245849609375" lon="1.18201824836432933807373046875">
        <ele>801.20001220703125</ele>
        <time>2020-08-13T05:46:54.000Z</time>
      </trkpt>
      <trkpt lat="42.46551834046840667724609375" lon="1.1821197532117366790771484375">
        <ele>801.5999755859375</ele>
        <time>2020-08-13T05:46:58.000Z</time>
      </trkpt>
      <trkpt lat="42.46554977260529994964599609375" lon="1.18217666633427143096923828125">
        <ele>801.5999755859375</ele>
        <time>2020-08-13T05:47:00.000Z</time>
      </trkpt>
      <trkpt lat="42.46565806679427623748779296875" lon="1.1823463998734951019287109375">
        <ele>802.20001220703125</ele>
        <time>2020-08-13T05:47:07.000Z</time>
      </trkpt>
      <trkpt lat="42.4657022394239902496337890625" lon="1.18243038654327392578125">
        <ele>802.5999755859375</ele>
        <time>2020-08-13T05:47:10.000Z</time>
      </trkpt>
      <trkpt lat="42.46578061021864414215087890625" lon="1.18256784975528717041015625">
        <ele>803.20001220703125</ele>
        <time>2020-08-13T05:47:15.000Z</time>
      </trkpt>
      <trkpt lat="42.4658489227294921875" lon="1.18271545507013797760009765625">
        <ele>803.79998779296875</ele>
        <time>2020-08-13T05:47:20.000Z</time>
      </trkpt>
      <trkpt lat="42.4658933468163013458251953125" lon="1.18283565156161785125732421875">
        <ele>804.5999755859375</ele>
        <time>2020-08-13T05:47:24.000Z</time>
      </trkpt>
      <trkpt lat="42.46591421775519847869873046875" lon="1.182896755635738372802734375">
        <ele>804.79998779296875</ele>
        <time>2020-08-13T05:47:26.000Z</time>
      </trkpt>
      <trkpt lat="42.46596895158290863037109375" lon="1.18307772092521190643310546875">
        <ele>805.5999755859375</ele>
        <time>2020-08-13T05:47:32.000Z</time>
      </trkpt>
      <trkpt lat="42.465982697904109954833984375" lon="1.1831386573612689971923828125">
        <ele>805.79998779296875</ele>
        <time>2020-08-13T05:47:34.000Z</time>
      </trkpt>
      <trkpt lat="42.46603173203766345977783203125" lon="1.18338324129581451416015625">
        <ele>806.79998779296875</ele>
        <time>2020-08-13T05:47:42.000Z</time>
      </trkpt>
      <trkpt lat="42.46606442146003246307373046875" lon="1.1836271546781063079833984375">
        <ele>808</ele>
        <time>2020-08-13T05:47:50.000Z</time>
      </trkpt>
      <trkpt lat="42.4660733900964260101318359375" lon="1.183694042265415191650390625">
        <ele>808</ele>
        <time>2020-08-13T05:47:52.000Z</time>
      </trkpt>
      <trkpt lat="42.46609174646437168121337890625" lon="1.18394650518894195556640625">
        <ele>808.5999755859375</ele>
        <time>2020-08-13T05:48:00.000Z</time>
      </trkpt>
      <trkpt lat="42.46609509922564029693603515625" lon="1.18397869169712066650390625">
        <ele>808.79998779296875</ele>
        <time>2020-08-13T05:48:01.000Z</time>
      </trkpt>
      <trkpt lat="42.466104067862033843994140625" lon="1.18413954041898250579833984375">
        <ele>809.20001220703125</ele>
        <time>2020-08-13T05:48:06.000Z</time>
      </trkpt>
      <trkpt lat="42.46611689217388629913330078125" lon="1.1844165623188018798828125">
        <ele>809.79998779296875</ele>
        <time>2020-08-13T05:48:14.000Z</time>
      </trkpt>
      <trkpt lat="42.4661131203174591064453125" lon="1.1847396008670330047607421875">
        <ele>810.20001220703125</ele>
        <time>2020-08-13T05:48:23.000Z</time>
      </trkpt>
      <trkpt lat="42.46609593741595745086669921875" lon="1.185049898922443389892578125">
        <ele>810.79998779296875</ele>
        <time>2020-08-13T05:48:31.000Z</time>
      </trkpt>
      <trkpt lat="42.466060481965541839599609375" lon="1.1853806488215923309326171875">
        <ele>810.79998779296875</ele>
        <time>2020-08-13T05:48:39.000Z</time>
      </trkpt>
      <trkpt lat="42.46601530350744724273681640625" lon="1.18562548421323299407958984375">
        <ele>810.5999755859375</ele>
        <time>2020-08-13T05:48:45.000Z</time>
      </trkpt>
      <trkpt lat="42.465969957411289215087890625" lon="1.18592019192874431610107421875">
        <ele>810.20001220703125</ele>
        <time>2020-08-13T05:48:52.000Z</time>
      </trkpt>
      <trkpt lat="42.46589309535920619964599609375" lon="1.1863365210592746734619140625">
        <ele>809.79998779296875</ele>
        <time>2020-08-13T05:49:01.000Z</time>
      </trkpt>
      <trkpt lat="42.46588446199893951416015625" lon="1.18638186715543270111083984375">
        <ele>809.79998779296875</ele>
        <time>2020-08-13T05:49:02.000Z</time>
      </trkpt>
      <trkpt lat="42.4658430553972721099853515625" lon="1.18665344081819057464599609375">
        <ele>809.79998779296875</ele>
        <time>2020-08-13T05:49:08.000Z</time>
      </trkpt>
      <trkpt lat="42.4658048339188098907470703125" lon="1.186998523771762847900390625">
        <ele>809.20001220703125</ele>
        <time>2020-08-13T05:49:15.000Z</time>
      </trkpt>
      <trkpt lat="42.4658008106052875518798828125" lon="1.18736607022583484649658203125">
        <ele>808.79998779296875</ele>
        <time>2020-08-13T05:49:22.000Z</time>
      </trkpt>
      <trkpt lat="42.46580290608108043670654296875" lon="1.18742105551064014434814453125">
        <ele>808.5999755859375</ele>
        <time>2020-08-13T05:49:23.000Z</time>
      </trkpt>
      <trkpt lat="42.46582604013383388519287109375" lon="1.188015080988407135009765625">
        <ele>808.20001220703125</ele>
        <time>2020-08-13T05:49:34.000Z</time>
      </trkpt>
      <trkpt lat="42.46587314642965793609619140625" lon="1.1884554661810398101806640625">
        <ele>808</ele>
        <time>2020-08-13T05:49:43.000Z</time>
      </trkpt>
      <trkpt lat="42.46590189635753631591796875" lon="1.18859418667852878570556640625">
        <ele>807.5999755859375</ele>
        <time>2020-08-13T05:49:46.000Z</time>
      </trkpt>
      <trkpt lat="42.46595151722431182861328125" lon="1.18877942673861980438232421875">
        <ele>807.20001220703125</ele>
        <time>2020-08-13T05:49:50.000Z</time>
      </trkpt>
      <trkpt lat="42.4660567939281463623046875" lon="1.18910145945847034454345703125">
        <ele>807.4000244140625</ele>
        <time>2020-08-13T05:49:57.000Z</time>
      </trkpt>
      <trkpt lat="42.4661870487034320831298828125" lon="1.18947562761604785919189453125">
        <ele>807.20001220703125</ele>
        <time>2020-08-13T05:50:06.000Z</time>
      </trkpt>
      <trkpt lat="42.4662993662059307098388671875" lon="1.189802773296833038330078125">
        <ele>807</ele>
        <time>2020-08-13T05:50:14.000Z</time>
      </trkpt>
      <trkpt lat="42.4664230830967426300048828125" lon="1.19014400057494640350341796875">
        <ele>807.20001220703125</ele>
        <time>2020-08-13T05:50:22.000Z</time>
      </trkpt>
      <trkpt lat="42.4665313772857189178466796875" lon="1.19054331444203853607177734375">
        <ele>807.4000244140625</ele>
        <time>2020-08-13T05:50:31.000Z</time>
      </trkpt>
      <trkpt lat="42.46662735007703304290771484375" lon="1.19094179011881351470947265625">
        <ele>808</ele>
        <time>2020-08-13T05:50:40.000Z</time>
      </trkpt>
      <trkpt lat="42.46675475500524044036865234375" lon="1.19125359691679477691650390625">
        <ele>808.5999755859375</ele>
        <time>2020-08-13T05:50:48.000Z</time>
      </trkpt>
      <trkpt lat="42.466775290668010711669921875" lon="1.1912905611097812652587890625">
        <ele>808.5999755859375</ele>
        <time>2020-08-13T05:50:49.000Z</time>
      </trkpt>
      <trkpt lat="42.4669249914586544036865234375" lon="1.19153187610208988189697265625">
        <ele>809.20001220703125</ele>
        <time>2020-08-13T05:50:56.000Z</time>
      </trkpt>
      <trkpt lat="42.46698408387601375579833984375" lon="1.19163178838789463043212890625">
        <ele>809.4000244140625</ele>
        <time>2020-08-13T05:50:59.000Z</time>
      </trkpt>
      <trkpt lat="42.46703781187534332275390625" lon="1.19173522107303142547607421875">
        <ele>809.79998779296875</ele>
        <time>2020-08-13T05:51:02.000Z</time>
      </trkpt>
      <trkpt lat="42.46712137944996356964111328125" lon="1.19195826351642608642578125">
        <ele>810.4000244140625</ele>
        <time>2020-08-13T05:51:08.000Z</time>
      </trkpt>
      <trkpt lat="42.46713596396148204803466796875" lon="1.1919966526329517364501953125">
        <ele>810.4000244140625</ele>
        <time>2020-08-13T05:51:09.000Z</time>
      </trkpt>
      <trkpt lat="42.4672113172709941864013671875" lon="1.19226629845798015594482421875">
        <ele>810.79998779296875</ele>
        <time>2020-08-13T05:51:16.000Z</time>
      </trkpt>
      <trkpt lat="42.46724174357950687408447265625" lon="1.1925183422863483428955078125">
        <ele>811.20001220703125</ele>
        <time>2020-08-13T05:51:22.000Z</time>
      </trkpt>
      <trkpt lat="42.467243671417236328125" lon="1.19260308332741260528564453125">
        <ele>811.4000244140625</ele>
        <time>2020-08-13T05:51:24.000Z</time>
      </trkpt>
      <trkpt lat="42.467219531536102294921875" lon="1.19291740469634532928466796875">
        <ele>811.5999755859375</ele>
        <time>2020-08-13T05:51:31.000Z</time>
      </trkpt>
      <trkpt lat="42.46716261841356754302978515625" lon="1.19334002025425434112548828125">
        <ele>811.4000244140625</ele>
        <time>2020-08-13T05:51:40.000Z</time>
      </trkpt>
      <trkpt lat="42.4670929647982120513916015625" lon="1.1937219835817813873291015625">
        <ele>811</ele>
        <time>2020-08-13T05:51:48.000Z</time>
      </trkpt>
      <trkpt lat="42.46703915297985076904296875" lon="1.19408617727458477020263671875">
        <ele>810.79998779296875</ele>
        <time>2020-08-13T05:51:56.000Z</time>
      </trkpt>
      <trkpt lat="42.46700922958552837371826171875" lon="1.19441843591630458831787109375">
        <ele>810.4000244140625</ele>
        <time>2020-08-13T05:52:03.000Z</time>
      </trkpt>
      <trkpt lat="42.46700185351073741912841796875" lon="1.19456914253532886505126953125">
        <ele>810</ele>
        <time>2020-08-13T05:52:06.000Z</time>
      </trkpt>
      <trkpt lat="42.4669866822659969329833984375" lon="1.19481205008924007415771484375">
        <ele>809.4000244140625</ele>
        <time>2020-08-13T05:52:11.000Z</time>
      </trkpt>
      <trkpt lat="42.4669544957578182220458984375" lon="1.19517691433429718017578125">
        <ele>809.20001220703125</ele>
        <time>2020-08-13T05:52:18.000Z</time>
      </trkpt>
      <trkpt lat="42.46688115410506725311279296875" lon="1.19558251462876796722412109375">
        <ele>809</ele>
        <time>2020-08-13T05:52:26.000Z</time>
      </trkpt>
      <trkpt lat="42.46679197065532207489013671875" lon="1.19602742604911327362060546875">
        <ele>809</ele>
        <time>2020-08-13T05:52:35.000Z</time>
      </trkpt>
      <trkpt lat="42.46675240807235240936279296875" lon="1.19636739604175090789794921875">
        <ele>809.20001220703125</ele>
        <time>2020-08-13T05:52:42.000Z</time>
      </trkpt>
      <trkpt lat="42.46676146052777767181396484375" lon="1.19680769741535186767578125">
        <ele>809.4000244140625</ele>
        <time>2020-08-13T05:52:51.000Z</time>
      </trkpt>
      <trkpt lat="42.46678392402827739715576171875" lon="1.1973386071622371673583984375">
        <ele>810.4000244140625</ele>
        <time>2020-08-13T05:53:02.000Z</time>
      </trkpt>
      <trkpt lat="42.46678090654313564300537109375" lon="1.19771084748208522796630859375">
        <ele>810.5999755859375</ele>
        <time>2020-08-13T05:53:10.000Z</time>
      </trkpt>
      <trkpt lat="42.46675710193812847137451171875" lon="1.198089122772216796875">
        <ele>811.20001220703125</ele>
        <time>2020-08-13T05:53:18.000Z</time>
      </trkpt>
      <trkpt lat="42.46672139503061771392822265625" lon="1.19837067089974880218505859375">
        <ele>811.5999755859375</ele>
        <time>2020-08-13T05:53:24.000Z</time>
      </trkpt>
      <trkpt lat="42.4666869454085826873779296875" lon="1.19856194593012332916259765625">
        <ele>811.79998779296875</ele>
        <time>2020-08-13T05:53:28.000Z</time>
      </trkpt>
      <trkpt lat="42.4666148610413074493408203125" lon="1.19900551624596118927001953125">
        <ele>812</ele>
        <time>2020-08-13T05:53:37.000Z</time>
      </trkpt>
      <trkpt lat="42.46661134064197540283203125" lon="1.1993690393865108489990234375">
        <ele>812</ele>
        <time>2020-08-13T05:53:44.000Z</time>
      </trkpt>
      <trkpt lat="42.4666983447968959808349609375" lon="1.19978092610836029052734375">
        <ele>811.79998779296875</ele>
        <time>2020-08-13T05:53:52.000Z</time>
      </trkpt>
      <trkpt lat="42.46685701422393321990966796875" lon="1.2000940740108489990234375">
        <ele>812</ele>
        <time>2020-08-13T05:53:59.000Z</time>
      </trkpt>
      <trkpt lat="42.46716077439486980438232421875" lon="1.200465224683284759521484375">
        <ele>811.20001220703125</ele>
        <time>2020-08-13T05:54:09.000Z</time>
      </trkpt>
      <trkpt lat="42.46733377687633037567138671875" lon="1.20064334012567996978759765625">
        <ele>810.4000244140625</ele>
        <time>2020-08-13T05:54:14.000Z</time>
      </trkpt>
      <trkpt lat="42.467442490160465240478515625" lon="1.20074057020246982574462890625">
        <ele>810</ele>
        <time>2020-08-13T05:54:17.000Z</time>
      </trkpt>
      <trkpt lat="42.46764759533107280731201171875" lon="1.20093150995671749114990234375">
        <ele>809.5999755859375</ele>
        <time>2020-08-13T05:54:23.000Z</time>
      </trkpt>
      <trkpt lat="42.4678818695247173309326171875" lon="1.20113854296505451202392578125">
        <ele>809.79998779296875</ele>
        <time>2020-08-13T05:54:30.000Z</time>
      </trkpt>
      <trkpt lat="42.46825553476810455322265625" lon="1.2014205940067768096923828125">
        <ele>810</ele>
        <time>2020-08-13T05:54:40.000Z</time>
      </trkpt>
      <trkpt lat="42.46864177286624908447265625" lon="1.20163743384182453155517578125">
        <ele>810.20001220703125</ele>
        <time>2020-08-13T05:54:50.000Z</time>
      </trkpt>
      <trkpt lat="42.468941509723663330078125" lon="1.2018185667693614959716796875">
        <ele>810.20001220703125</ele>
        <time>2020-08-13T05:54:58.000Z</time>
      </trkpt>
      <trkpt lat="42.4692249856889247894287109375" lon="1.2020210735499858856201171875">
        <ele>810.20001220703125</ele>
        <time>2020-08-13T05:55:06.000Z</time>
      </trkpt>
      <trkpt lat="42.4694685637950897216796875" lon="1.2021685950458049774169921875">
        <ele>810.5999755859375</ele>
        <time>2020-08-13T05:55:13.000Z</time>
      </trkpt>
      <trkpt lat="42.46981129981577396392822265625" lon="1.2023506499826908111572265625">
        <ele>811.20001220703125</ele>
        <time>2020-08-13T05:55:23.000Z</time>
      </trkpt>
      <trkpt lat="42.46991087682545185089111328125" lon="1.20239675045013427734375">
        <ele>811.4000244140625</ele>
        <time>2020-08-13T05:55:26.000Z</time>
      </trkpt>
      <trkpt lat="42.47007004916667938232421875" lon="1.2024817429482936859130859375">
        <ele>811.79998779296875</ele>
        <time>2020-08-13T05:55:31.000Z</time>
      </trkpt>
      <trkpt lat="42.470279596745967864990234375" lon="1.2025960721075534820556640625">
        <ele>812.4000244140625</ele>
        <time>2020-08-13T05:55:38.000Z</time>
      </trkpt>
      <trkpt lat="42.47031203471124172210693359375" lon="1.20261291973292827606201171875">
        <ele>812.5999755859375</ele>
        <time>2020-08-13T05:55:39.000Z</time>
      </trkpt>
      <trkpt lat="42.4705868773162364959716796875" lon="1.20270051062107086181640625">
        <ele>813</ele>
        <time>2020-08-13T05:55:47.000Z</time>
      </trkpt>
      <trkpt lat="42.47092944569885730743408203125" lon="1.2027167715132236480712890625">
        <ele>813.20001220703125</ele>
        <time>2020-08-13T05:55:56.000Z</time>
      </trkpt>
      <trkpt lat="42.47119246982038021087646484375" lon="1.20268399827182292938232421875">
        <ele>813</ele>
        <time>2020-08-13T05:56:03.000Z</time>
      </trkpt>
      <trkpt lat="42.4713958986103534698486328125" lon="1.20264192111790180206298828125">
        <ele>812.4000244140625</ele>
        <time>2020-08-13T05:56:08.000Z</time>
      </trkpt>
      <trkpt lat="42.4714381434023380279541015625" lon="1.2026275880634784698486328125">
        <ele>812.4000244140625</ele>
        <time>2020-08-13T05:56:09.000Z</time>
      </trkpt>
      <trkpt lat="42.47175514698028564453125" lon="1.202509067952632904052734375">
        <ele>812</ele>
        <time>2020-08-13T05:56:16.000Z</time>
      </trkpt>
      <trkpt lat="42.471938543021678924560546875" lon="1.20239532552659511566162109375">
        <ele>811.4000244140625</ele>
        <time>2020-08-13T05:56:20.000Z</time>
      </trkpt>
      <trkpt lat="42.47207365930080413818359375" lon="1.20230714790523052215576171875">
        <ele>811</ele>
        <time>2020-08-13T05:56:23.000Z</time>
      </trkpt>
      <trkpt lat="42.47236392460763454437255859375" lon="1.202114783227443695068359375">
        <ele>810.4000244140625</ele>
        <time>2020-08-13T05:56:30.000Z</time>
      </trkpt>
      <trkpt lat="42.472616136074066162109375" lon="1.20195359922945499420166015625">
        <ele>810.20001220703125</ele>
        <time>2020-08-13T05:56:37.000Z</time>
      </trkpt>
      <trkpt lat="42.47287488542497158050537109375" lon="1.201870031654834747314453125">
        <ele>810.5999755859375</ele>
        <time>2020-08-13T05:56:44.000Z</time>
      </trkpt>
      <trkpt lat="42.47310094535350799560546875" lon="1.20184899307787418365478515625">
        <ele>810.5999755859375</ele>
        <time>2020-08-13T05:56:50.000Z</time>
      </trkpt>
      <trkpt lat="42.47336187399923801422119140625" lon="1.2018748931586742401123046875">
        <ele>811.5999755859375</ele>
        <time>2020-08-13T05:56:57.000Z</time>
      </trkpt>
      <trkpt lat="42.4734853394329547882080078125" lon="1.2018973566591739654541015625">
        <ele>812.4000244140625</ele>
        <time>2020-08-13T05:57:01.000Z</time>
      </trkpt>
      <trkpt lat="42.4735802225768566131591796875" lon="1.20191395282745361328125">
        <ele>812.79998779296875</ele>
        <time>2020-08-13T05:57:04.000Z</time>
      </trkpt>
      <trkpt lat="42.47370167635381221771240234375" lon="1.201947145164012908935546875">
        <ele>813.4000244140625</ele>
        <time>2020-08-13T05:57:08.000Z</time>
      </trkpt>
      <trkpt lat="42.4738474376499652862548828125" lon="1.2019984424114227294921875">
        <ele>814.20001220703125</ele>
        <time>2020-08-13T05:57:13.000Z</time>
      </trkpt>
      <trkpt lat="42.4739022552967071533203125" lon="1.20202216319739818572998046875">
        <ele>814.4000244140625</ele>
        <time>2020-08-13T05:57:15.000Z</time>
      </trkpt>
      <trkpt lat="42.47392748482525348663330078125" lon="1.202034316956996917724609375">
        <ele>814.5999755859375</ele>
        <time>2020-08-13T05:57:16.000Z</time>
      </trkpt>
      <trkpt lat="42.47402957640588283538818359375" lon="1.202075891196727752685546875">
        <ele>815</ele>
        <time>2020-08-13T05:57:20.000Z</time>
      </trkpt>
      <trkpt lat="42.4740797840058803558349609375" lon="1.2020948342978954315185546875">
        <ele>815.4000244140625</ele>
        <time>2020-08-13T05:57:22.000Z</time>
      </trkpt>
      <trkpt lat="42.47424247674643993377685546875" lon="1.20216733776032924652099609375">
        <ele>816.4000244140625</ele>
        <time>2020-08-13T05:57:29.000Z</time>
      </trkpt>
      <trkpt lat="42.47426502406597137451171875" lon="1.20217840187251567840576171875">
        <ele>816.4000244140625</ele>
        <time>2020-08-13T05:57:30.000Z</time>
      </trkpt>
      <trkpt lat="42.47436954639852046966552734375" lon="1.2022349797189235687255859375">
        <ele>817.4000244140625</ele>
        <time>2020-08-13T05:57:35.000Z</time>
      </trkpt>
      <trkpt lat="42.4744140543043613433837890625" lon="1.20225937105715274810791015625">
        <ele>817.5999755859375</ele>
        <time>2020-08-13T05:57:37.000Z</time>
      </trkpt>
      <trkpt lat="42.47454422526061534881591796875" lon="1.202331371605396270751953125">
        <ele>818.4000244140625</ele>
        <time>2020-08-13T05:57:43.000Z</time>
      </trkpt>
      <trkpt lat="42.47456467710435390472412109375" lon="1.20234243571758270263671875">
        <ele>818.5999755859375</ele>
        <time>2020-08-13T05:57:44.000Z</time>
      </trkpt>
      <trkpt lat="42.47470582835376262664794921875" lon="1.2024341337382793426513671875">
        <ele>819.5999755859375</ele>
        <time>2020-08-13T05:57:51.000Z</time>
      </trkpt>
      <trkpt lat="42.47482694685459136962890625" lon="1.2025062181055545806884765625">
        <ele>820.79998779296875</ele>
        <time>2020-08-13T05:57:57.000Z</time>
      </trkpt>
      <trkpt lat="42.474974133074283599853515625" lon="1.20259833522140979766845703125">
        <ele>821.5999755859375</ele>
        <time>2020-08-13T05:58:04.000Z</time>
      </trkpt>
      <trkpt lat="42.47499525547027587890625" lon="1.20261023752391338348388671875">
        <ele>821.79998779296875</ele>
        <time>2020-08-13T05:58:05.000Z</time>
      </trkpt>
      <trkpt lat="42.4751359038054943084716796875" lon="1.202696822583675384521484375">
        <ele>822.79998779296875</ele>
        <time>2020-08-13T05:58:12.000Z</time>
      </trkpt>
      <trkpt lat="42.47515979222953319549560546875" lon="1.2027077190577983856201171875">
        <ele>822.79998779296875</ele>
        <time>2020-08-13T05:58:13.000Z</time>
      </trkpt>
      <trkpt lat="42.4752889573574066162109375" lon="1.20279631577432155609130859375">
        <ele>823.4000244140625</ele>
        <time>2020-08-13T05:58:19.000Z</time>
      </trkpt>
      <trkpt lat="42.475405633449554443359375" lon="1.20286756195127964019775390625">
        <ele>823.5999755859375</ele>
        <time>2020-08-13T05:58:24.000Z</time>
      </trkpt>
      <trkpt lat="42.47543044388294219970703125" lon="1.20288298465311527252197265625">
        <ele>823.79998779296875</ele>
        <time>2020-08-13T05:58:25.000Z</time>
      </trkpt>
      <trkpt lat="42.47561090625822544097900390625" lon="1.20296512730419635772705078125">
        <ele>824.5999755859375</ele>
        <time>2020-08-13T05:58:32.000Z</time>
      </trkpt>
      <trkpt lat="42.4756617844104766845703125" lon="1.20298759080469608306884765625">
        <ele>824.5999755859375</ele>
        <time>2020-08-13T05:58:34.000Z</time>
      </trkpt>
      <trkpt lat="42.47576647438108921051025390625" lon="1.20303888805210590362548828125">
        <ele>825</ele>
        <time>2020-08-13T05:58:38.000Z</time>
      </trkpt>
      <trkpt lat="42.47589421458542346954345703125" lon="1.203093118965625762939453125">
        <ele>825.20001220703125</ele>
        <time>2020-08-13T05:58:44.000Z</time>
      </trkpt>
      <trkpt lat="42.47609160840511322021484375" lon="1.20318691246211528778076171875">
        <ele>825.20001220703125</ele>
        <time>2020-08-13T05:58:52.000Z</time>
      </trkpt>
      <trkpt lat="42.47624876908957958221435546875" lon="1.203257404267787933349609375">
        <ele>825.4000244140625</ele>
        <time>2020-08-13T05:58:58.000Z</time>
      </trkpt>
      <trkpt lat="42.4764099530875682830810546875" lon="1.20332906953990459442138671875">
        <ele>825.4000244140625</ele>
        <time>2020-08-13T05:59:04.000Z</time>
      </trkpt>
      <trkpt lat="42.4766426347196102142333984375" lon="1.203421019017696380615234375">
        <ele>825</ele>
        <time>2020-08-13T05:59:12.000Z</time>
      </trkpt>
      <trkpt lat="42.47690155170857906341552734375" lon="1.20344926603138446807861328125">
        <ele>824.5999755859375</ele>
        <time>2020-08-13T05:59:19.000Z</time>
      </trkpt>
      <trkpt lat="42.477192990481853485107421875" lon="1.20341506786644458770751953125">
        <ele>823.5999755859375</ele>
        <time>2020-08-13T05:59:25.000Z</time>
      </trkpt>
      <trkpt lat="42.477247305214405059814453125" lon="1.20340048335492610931396484375">
        <ele>823.4000244140625</ele>
        <time>2020-08-13T05:59:26.000Z</time>
      </trkpt>
      <trkpt lat="42.477549053728580474853515625" lon="1.20331767015159130096435546875">
        <ele>822.4000244140625</ele>
        <time>2020-08-13T05:59:31.000Z</time>
      </trkpt>
      <trkpt lat="42.47761636041104793548583984375" lon="1.20329973287880420684814453125">
        <ele>822.20001220703125</ele>
        <time>2020-08-13T05:59:32.000Z</time>
      </trkpt>
      <trkpt lat="42.4778831563889980316162109375" lon="1.203258074820041656494140625">
        <ele>821.20001220703125</ele>
        <time>2020-08-13T05:59:36.000Z</time>
      </trkpt>
      <trkpt lat="42.47795046307146549224853515625" lon="1.20326109230518341064453125">
        <ele>820.79998779296875</ele>
        <time>2020-08-13T05:59:37.000Z</time>
      </trkpt>
      <trkpt lat="42.478149868547916412353515625" lon="1.20330560021102428436279296875">
        <ele>820</ele>
        <time>2020-08-13T05:59:40.000Z</time>
      </trkpt>
      <trkpt lat="42.4782724119722843170166015625" lon="1.20336393825709819793701171875">
        <ele>819.5999755859375</ele>
        <time>2020-08-13T05:59:42.000Z</time>
      </trkpt>
      <trkpt lat="42.47837995178997516632080078125" lon="1.2034334242343902587890625">
        <ele>819.4000244140625</ele>
        <time>2020-08-13T05:59:44.000Z</time>
      </trkpt>
      <trkpt lat="42.4785201810300350189208984375" lon="1.20355169288814067840576171875">
        <ele>819.4000244140625</ele>
        <time>2020-08-13T05:59:47.000Z</time>
      </trkpt>
      <trkpt lat="42.47872830368578433990478515625" lon="1.20381287299096584320068359375">
        <ele>819.4000244140625</ele>
        <time>2020-08-13T05:59:53.000Z</time>
      </trkpt>
      <trkpt lat="42.4788977019488811492919921875" lon="1.20413951575756072998046875">
        <ele>819.20001220703125</ele>
        <time>2020-08-13T06:00:01.000Z</time>
      </trkpt>
      <trkpt lat="42.4789922498166561126708984375" lon="1.2043909728527069091796875">
        <ele>819.5999755859375</ele>
        <time>2020-08-13T06:00:08.000Z</time>
      </trkpt>
      <trkpt lat="42.47906995005905628204345703125" lon="1.20458199642598628997802734375">
        <ele>820</ele>
        <time>2020-08-13T06:00:13.000Z</time>
      </trkpt>
      <trkpt lat="42.4791915714740753173828125" lon="1.2049279175698757171630859375">
        <ele>820</ele>
        <time>2020-08-13T06:00:22.000Z</time>
      </trkpt>
      <trkpt lat="42.4792524240911006927490234375" lon="1.205113492906093597412109375">
        <ele>820.5999755859375</ele>
        <time>2020-08-13T06:00:27.000Z</time>
      </trkpt>
      <trkpt lat="42.47930799610912799835205078125" lon="1.2052538059651851654052734375">
        <ele>821</ele>
        <time>2020-08-13T06:00:31.000Z</time>
      </trkpt>
      <trkpt lat="42.47939818538725376129150390625" lon="1.2054190970957279205322265625">
        <ele>821.5999755859375</ele>
        <time>2020-08-13T06:00:36.000Z</time>
      </trkpt>
      <trkpt lat="42.47943674214184284210205078125" lon="1.20548137463629245758056640625">
        <ele>821.79998779296875</ele>
        <time>2020-08-13T06:00:38.000Z</time>
      </trkpt>
      <trkpt lat="42.4795846827328205108642578125" lon="1.2056722305715084075927734375">
        <ele>822.4000244140625</ele>
        <time>2020-08-13T06:00:45.000Z</time>
      </trkpt>
      <trkpt lat="42.4796748720109462738037109375" lon="1.20576635934412479400634765625">
        <ele>822.5999755859375</ele>
        <time>2020-08-13T06:00:49.000Z</time>
      </trkpt>
      <trkpt lat="42.479830943048000335693359375" lon="1.2058945186436176300048828125">
        <ele>823</ele>
        <time>2020-08-13T06:00:55.000Z</time>
      </trkpt>
      <trkpt lat="42.480142079293727874755859375" lon="1.206127703189849853515625">
        <ele>823.5999755859375</ele>
        <time>2020-08-13T06:01:06.000Z</time>
      </trkpt>
      <trkpt lat="42.48040585778653621673583984375" lon="1.20631587691605091094970703125">
        <ele>823.79998779296875</ele>
        <time>2020-08-13T06:01:15.000Z</time>
      </trkpt>
      <trkpt lat="42.48064893297851085662841796875" lon="1.20647010393440723419189453125">
        <ele>823.4000244140625</ele>
        <time>2020-08-13T06:01:23.000Z</time>
      </trkpt>
      <trkpt lat="42.4808706343173980712890625" lon="1.20661343447864055633544921875">
        <ele>823.4000244140625</ele>
        <time>2020-08-13T06:01:31.000Z</time>
      </trkpt>
      <trkpt lat="42.48119845055043697357177734375" lon="1.2067994289100170135498046875">
        <ele>824</ele>
        <time>2020-08-13T06:01:42.000Z</time>
      </trkpt>
      <trkpt lat="42.48128662817180156707763671875" lon="1.20683991350233554840087890625">
        <ele>824.4000244140625</ele>
        <time>2020-08-13T06:01:45.000Z</time>
      </trkpt>
      <trkpt lat="42.481422163546085357666015625" lon="1.20690931566059589385986328125">
        <ele>824.5999755859375</ele>
        <time>2020-08-13T06:01:50.000Z</time>
      </trkpt>
      <trkpt lat="42.4815597943961620330810546875" lon="1.206971593201160430908203125">
        <ele>825.4000244140625</ele>
        <time>2020-08-13T06:01:55.000Z</time>
      </trkpt>
      <trkpt lat="42.4816660769283771514892578125" lon="1.20701861567795276641845703125">
        <ele>826</ele>
        <time>2020-08-13T06:01:59.000Z</time>
      </trkpt>
      <trkpt lat="42.48179742135107517242431640625" lon="1.20707393623888492584228515625">
        <ele>826.5999755859375</ele>
        <time>2020-08-13T06:02:04.000Z</time>
      </trkpt>
      <trkpt lat="42.48182483017444610595703125" lon="1.20708466507494449615478515625">
        <ele>826.79998779296875</ele>
        <time>2020-08-13T06:02:05.000Z</time>
      </trkpt>
      <trkpt lat="42.4819896183907985687255859375" lon="1.207137219607830047607421875">
        <ele>827.5999755859375</ele>
        <time>2020-08-13T06:02:11.000Z</time>
      </trkpt>
      <trkpt lat="42.48207201249897480010986328125" lon="1.20715624652802944183349609375">
        <ele>828</ele>
        <time>2020-08-13T06:02:14.000Z</time>
      </trkpt>
      <trkpt lat="42.4822112359106540679931640625" lon="1.20719279162585735321044921875">
        <ele>828.79998779296875</ele>
        <time>2020-08-13T06:02:19.000Z</time>
      </trkpt>
      <trkpt lat="42.4823510460555553436279296875" lon="1.20722942054271697998046875">
        <ele>829.4000244140625</ele>
        <time>2020-08-13T06:02:24.000Z</time>
      </trkpt>
      <trkpt lat="42.4824378825724124908447265625" lon="1.20724006555974483489990234375">
        <ele>830</ele>
        <time>2020-08-13T06:02:27.000Z</time>
      </trkpt>
      <trkpt lat="42.4824911914765834808349609375" lon="1.20725397951900959014892578125">
        <ele>830.20001220703125</ele>
        <time>2020-08-13T06:02:29.000Z</time>
      </trkpt>
      <trkpt lat="42.48261884786188602447509765625" lon="1.20729337446391582489013671875">
        <ele>831.20001220703125</ele>
        <time>2020-08-13T06:02:34.000Z</time>
      </trkpt>
      <trkpt lat="42.4827020801603794097900390625" lon="1.20730854570865631103515625">
        <ele>831.5999755859375</ele>
        <time>2020-08-13T06:02:37.000Z</time>
      </trkpt>
      <trkpt lat="42.48280945234000682830810546875" lon="1.2073412351310253143310546875">
        <ele>832.20001220703125</ele>
        <time>2020-08-13T06:02:41.000Z</time>
      </trkpt>
      <trkpt lat="42.482906095683574676513671875" lon="1.20739295147359371185302734375">
        <ele>832.79998779296875</ele>
        <time>2020-08-13T06:02:45.000Z</time>
      </trkpt>
      <trkpt lat="42.483007013797760009765625" lon="1.20745548047125339508056640625">
        <ele>833.20001220703125</ele>
        <time>2020-08-13T06:02:49.000Z</time>
      </trkpt>
      <trkpt lat="42.483103238046169281005859375" lon="1.2075266428291797637939453125">
        <ele>833.5999755859375</ele>
        <time>2020-08-13T06:02:53.000Z</time>
      </trkpt>
      <trkpt lat="42.4832740612328052520751953125" lon="1.20766905136406421661376953125">
        <ele>834.20001220703125</ele>
        <time>2020-08-13T06:03:00.000Z</time>
      </trkpt>
      <trkpt lat="42.48332158662378787994384765625" lon="1.207717247307300567626953125">
        <ele>834.5999755859375</ele>
        <time>2020-08-13T06:03:02.000Z</time>
      </trkpt>
      <trkpt lat="42.4834758974611759185791015625" lon="1.2079490907490253448486328125">
        <ele>835.20001220703125</ele>
        <time>2020-08-13T06:03:10.000Z</time>
      </trkpt>
      <trkpt lat="42.48365350998938083648681640625" lon="1.208312697708606719970703125">
        <ele>836</ele>
        <time>2020-08-13T06:03:21.000Z</time>
      </trkpt>
      <trkpt lat="42.4837716110050678253173828125" lon="1.2086181342601776123046875">
        <ele>836.79998779296875</ele>
        <time>2020-08-13T06:03:29.000Z</time>
      </trkpt>
      <trkpt lat="42.48381041921675205230712890625" lon="1.20873925276100635528564453125">
        <ele>836.79998779296875</ele>
        <time>2020-08-13T06:03:32.000Z</time>
      </trkpt>
      <trkpt lat="42.483875043690204620361328125" lon="1.2089234031736850738525390625">
        <ele>837</ele>
        <time>2020-08-13T06:03:37.000Z</time>
      </trkpt>
      <trkpt lat="42.484006471931934356689453125" lon="1.20923839509487152099609375">
        <ele>837</ele>
        <time>2020-08-13T06:03:45.000Z</time>
      </trkpt>
      <trkpt lat="42.48418022878468036651611328125" lon="1.20955548249185085296630859375">
        <ele>837</ele>
        <time>2020-08-13T06:03:53.000Z</time>
      </trkpt>
      <trkpt lat="42.48438592068850994110107421875" lon="1.20982403866946697235107421875">
        <ele>836.4000244140625</ele>
        <time>2020-08-13T06:04:00.000Z</time>
      </trkpt>
      <trkpt lat="42.484595887362957000732421875" lon="1.21008639223873615264892578125">
        <ele>835.5999755859375</ele>
        <time>2020-08-13T06:04:06.000Z</time>
      </trkpt>
      <trkpt lat="42.48481675051152706146240234375" lon="1.21043466031551361083984375">
        <ele>834.4000244140625</ele>
        <time>2020-08-13T06:04:12.000Z</time>
      </trkpt>
      <trkpt lat="42.48485564254224300384521484375" lon="1.2104958482086658477783203125">
        <ele>834.20001220703125</ele>
        <time>2020-08-13T06:04:13.000Z</time>
      </trkpt>
      <trkpt lat="42.48507692478597164154052734375" lon="1.21078762225806713104248046875">
        <ele>833.4000244140625</ele>
        <time>2020-08-13T06:04:18.000Z</time>
      </trkpt>
      <trkpt lat="42.48518161475658416748046875" lon="1.210894994437694549560546875">
        <ele>832.5999755859375</ele>
        <time>2020-08-13T06:04:20.000Z</time>
      </trkpt>
      <trkpt lat="42.485352940857410430908203125" lon="1.2110524065792560577392578125">
        <ele>832</ele>
        <time>2020-08-13T06:04:23.000Z</time>
      </trkpt>
      <trkpt lat="42.48552233912050724029541015625" lon="1.211229600012302398681640625">
        <ele>831</ele>
        <time>2020-08-13T06:04:26.000Z</time>
      </trkpt>
      <trkpt lat="42.485573552548885345458984375" lon="1.2112968228757381439208984375">
        <ele>830.5999755859375</ele>
        <time>2020-08-13T06:04:27.000Z</time>
      </trkpt>
      <trkpt lat="42.48562007211148738861083984375" lon="1.21136915870010852813720703125">
        <ele>830.20001220703125</ele>
        <time>2020-08-13T06:04:28.000Z</time>
      </trkpt>
      <trkpt lat="42.4857068248093128204345703125" lon="1.21151768602430820465087890625">
        <ele>829.79998779296875</ele>
        <time>2020-08-13T06:04:30.000Z</time>
      </trkpt>
      <trkpt lat="42.48582928441464900970458984375" lon="1.2117330171167850494384765625">
        <ele>829.20001220703125</ele>
        <time>2020-08-13T06:04:33.000Z</time>
      </trkpt>
      <trkpt lat="42.48603547923266887664794921875" lon="1.21203267015516757965087890625">
        <ele>828.5999755859375</ele>
        <time>2020-08-13T06:04:38.000Z</time>
      </trkpt>
      <trkpt lat="42.4860794842243194580078125" lon="1.2120808660984039306640625">
        <ele>828.5999755859375</ele>
        <time>2020-08-13T06:04:39.000Z</time>
      </trkpt>
      <trkpt lat="42.4863428436219692230224609375" lon="1.212297119200229644775390625">
        <ele>828.5999755859375</ele>
        <time>2020-08-13T06:04:45.000Z</time>
      </trkpt>
      <trkpt lat="42.4864603579044342041015625" lon="1.2123780883848667144775390625">
        <ele>828.79998779296875</ele>
        <time>2020-08-13T06:04:48.000Z</time>
      </trkpt>
      <trkpt lat="42.48660243116319179534912109375" lon="1.21246400289237499237060546875">
        <ele>829</ele>
        <time>2020-08-13T06:04:52.000Z</time>
      </trkpt>
      <trkpt lat="42.486838884651660919189453125" lon="1.21258445084095001220703125">
        <ele>829.20001220703125</ele>
        <time>2020-08-13T06:04:59.000Z</time>
      </trkpt>
      <trkpt lat="42.4870881624519824981689453125" lon="1.212616972625255584716796875">
        <ele>829.5999755859375</ele>
        <time>2020-08-13T06:05:06.000Z</time>
      </trkpt>
      <trkpt lat="42.48716452158987522125244140625" lon="1.2126060761511325836181640625">
        <ele>829.79998779296875</ele>
        <time>2020-08-13T06:05:08.000Z</time>
      </trkpt>
      <trkpt lat="42.487351857125759124755859375" lon="1.21254849247634410858154296875">
        <ele>830</ele>
        <time>2020-08-13T06:05:13.000Z</time>
      </trkpt>
      <trkpt lat="42.4875505082309246063232421875" lon="1.21244170702993869781494140625">
        <ele>830.4000244140625</ele>
        <time>2020-08-13T06:05:19.000Z</time>
      </trkpt>
      <trkpt lat="42.487721331417560577392578125" lon="1.21227264404296875">
        <ele>830.4000244140625</ele>
        <time>2020-08-13T06:05:25.000Z</time>
      </trkpt>
      <trkpt lat="42.48791319318115711212158203125" lon="1.21199595741927623748779296875">
        <ele>830.5999755859375</ele>
        <time>2020-08-13T06:05:32.000Z</time>
      </trkpt>
      <trkpt lat="42.487967424094676971435546875" lon="1.21192135848104953765869140625">
        <ele>830.79998779296875</ele>
        <time>2020-08-13T06:05:34.000Z</time>
      </trkpt>
      <trkpt lat="42.48811192810535430908203125" lon="1.2117058597505092620849609375">
        <ele>831</ele>
        <time>2020-08-13T06:05:40.000Z</time>
      </trkpt>
      <trkpt lat="42.48826758004724979400634765625" lon="1.21142632327973842620849609375">
        <ele>830.5999755859375</ele>
        <time>2020-08-13T06:05:47.000Z</time>
      </trkpt>
      <trkpt lat="42.4885404109954833984375" lon="1.2110990099608898162841796875">
        <ele>830.20001220703125</ele>
        <time>2020-08-13T06:05:56.000Z</time>
      </trkpt>
      <trkpt lat="42.48872120864689350128173828125" lon="1.21095257811248302459716796875">
        <ele>829.5999755859375</ele>
        <time>2020-08-13T06:06:01.000Z</time>
      </trkpt>
      <trkpt lat="42.4888885952532291412353515625" lon="1.2108673341572284698486328125">
        <ele>829.20001220703125</ele>
        <time>2020-08-13T06:06:05.000Z</time>
      </trkpt>
      <trkpt lat="42.489134185016155242919921875" lon="1.21080069802701473236083984375">
        <ele>828.4000244140625</ele>
        <time>2020-08-13T06:06:10.000Z</time>
      </trkpt>
      <trkpt lat="42.489185146987438201904296875" lon="1.2107942439615726470947265625">
        <ele>828.20001220703125</ele>
        <time>2020-08-13T06:06:11.000Z</time>
      </trkpt>
      <trkpt lat="42.489235438406467437744140625" lon="1.2107935734093189239501953125">
        <ele>828</ele>
        <time>2020-08-13T06:06:12.000Z</time>
      </trkpt>
      <trkpt lat="42.4894937686622142791748046875" lon="1.21079902164638042449951171875">
        <ele>827.20001220703125</ele>
        <time>2020-08-13T06:06:17.000Z</time>
      </trkpt>
      <trkpt lat="42.4898860417306423187255859375" lon="1.2107828445732593536376953125">
        <ele>826.20001220703125</ele>
        <time>2020-08-13T06:06:24.000Z</time>
      </trkpt>
      <trkpt lat="42.4902431108057498931884765625" lon="1.2107880413532257080078125">
        <ele>824.79998779296875</ele>
        <time>2020-08-13T06:06:30.000Z</time>
      </trkpt>
      <trkpt lat="42.49056078493595123291015625" lon="1.21081863529980182647705078125">
        <ele>824.5999755859375</ele>
        <time>2020-08-13T06:06:36.000Z</time>
      </trkpt>
      <trkpt lat="42.490607388317584991455078125" lon="1.21082735247910022735595703125">
        <ele>824.79998779296875</ele>
        <time>2020-08-13T06:06:37.000Z</time>
      </trkpt>
      <trkpt lat="42.49080981127917766571044921875" lon="1.2108867801725864410400390625">
        <ele>824.79998779296875</ele>
        <time>2020-08-13T06:06:42.000Z</time>
      </trkpt>
      <trkpt lat="42.49103930778801441192626953125" lon="1.21099817566573619842529296875">
        <ele>825.4000244140625</ele>
        <time>2020-08-13T06:06:49.000Z</time>
      </trkpt>
      <trkpt lat="42.491131760179996490478515625" lon="1.2110607884824275970458984375">
        <ele>825.79998779296875</ele>
        <time>2020-08-13T06:06:52.000Z</time>
      </trkpt>
      <trkpt lat="42.49121432192623615264892578125" lon="1.211126334965229034423828125">
        <ele>826.20001220703125</ele>
        <time>2020-08-13T06:06:55.000Z</time>
      </trkpt>
      <trkpt lat="42.491285987198352813720703125" lon="1.21120085008442401885986328125">
        <ele>826.5999755859375</ele>
        <time>2020-08-13T06:06:58.000Z</time>
      </trkpt>
      <trkpt lat="42.49137776903808116912841796875" lon="1.21130931191146373748779296875">
        <ele>827</ele>
        <time>2020-08-13T06:07:02.000Z</time>
      </trkpt>
      <trkpt lat="42.49144633300602436065673828125" lon="1.21139748953282833099365234375">
        <ele>827.4000244140625</ele>
        <time>2020-08-13T06:07:05.000Z</time>
      </trkpt>
      <trkpt lat="42.49154624529182910919189453125" lon="1.21151399798691272735595703125">
        <ele>828</ele>
        <time>2020-08-13T06:07:09.000Z</time>
      </trkpt>
      <trkpt lat="42.49158404767513275146484375" lon="1.21157635934650897979736328125">
        <ele>828.4000244140625</ele>
        <time>2020-08-13T06:07:11.000Z</time>
      </trkpt>
      <trkpt lat="42.491667531430721282958984375" lon="1.211736202239990234375">
        <ele>829.20001220703125</ele>
        <time>2020-08-13T06:07:16.000Z</time>
      </trkpt>
      <trkpt lat="42.491745986044406890869140625" lon="1.21188095770776271820068359375">
        <ele>830</ele>
        <time>2020-08-13T06:07:21.000Z</time>
      </trkpt>
      <trkpt lat="42.49183961190283298492431640625" lon="1.2120059318840503692626953125">
        <ele>831</ele>
        <time>2020-08-13T06:07:26.000Z</time>
      </trkpt>
      <trkpt lat="42.49196651391685009002685546875" lon="1.212116740643978118896484375">
        <ele>831.5999755859375</ele>
        <time>2020-08-13T06:07:33.000Z</time>
      </trkpt>
      <trkpt lat="42.49199518002569675445556640625" lon="1.21214054524898529052734375">
        <ele>831.79998779296875</ele>
        <time>2020-08-13T06:07:35.000Z</time>
      </trkpt>
      <trkpt lat="42.49198663048446178436279296875" lon="1.21220181696116924285888671875">
        <ele>832.20001220703125</ele>
        <time>2020-08-13T06:07:38.000Z</time>
      </trkpt>
      <trkpt lat="42.4919600598514080047607421875" lon="1.212248839437961578369140625">
        <ele>832.20001220703125</ele>
        <time>2020-08-13T06:07:39.000Z</time>
      </trkpt>
      <trkpt lat="42.49188470654189586639404296875" lon="1.2124085985124111175537109375">
        <ele>832.5999755859375</ele>
        <time>2020-08-13T06:07:43.000Z</time>
      </trkpt>
      <trkpt lat="42.491861321032047271728515625" lon="1.2124947644770145416259765625">
        <ele>832.79998779296875</ele>
        <time>2020-08-13T06:07:46.000Z</time>
      </trkpt>
      <trkpt lat="42.491862662136554718017578125" lon="1.21259878389537334442138671875">
        <ele>832.79998779296875</ele>
        <time>2020-08-13T06:07:48.000Z</time>
      </trkpt>
      <trkpt lat="42.49200046062469482421875" lon="1.2129209004342555999755859375">
        <ele>833</ele>
        <time>2020-08-13T06:07:54.000Z</time>
      </trkpt>
      <trkpt lat="42.4921146221458911895751953125" lon="1.21290422044694423675537109375">
        <ele>833</ele>
        <time>2020-08-13T06:07:55.000Z</time>
      </trkpt>
      <trkpt lat="42.4924200586974620819091796875" lon="1.21286516077816486358642578125">
        <ele>833.20001220703125</ele>
        <time>2020-08-13T06:07:58.000Z</time>
      </trkpt>
      <trkpt lat="42.49284602701663970947265625" lon="1.21249685995280742645263671875">
        <ele>833.4000244140625</ele>
        <time>2020-08-13T06:08:01.000Z</time>
      </trkpt>
      <trkpt lat="42.4928505532443523406982421875" lon="1.21252653189003467559814453125">
        <ele>833.4000244140625</ele>
        <time>2020-08-13T06:08:02.000Z</time>
      </trkpt>
      <trkpt lat="42.4929263256490230560302734375" lon="1.212562657892704010009765625">
        <ele>833.5999755859375</ele>
        <time>2020-08-13T06:08:05.000Z</time>
      </trkpt>
      <trkpt lat="42.49299866147339344024658203125" lon="1.212573386728763580322265625">
        <ele>833.79998779296875</ele>
        <time>2020-08-13T06:08:08.000Z</time>
      </trkpt>
      <trkpt lat="42.4931631982326507568359375" lon="1.21251094155013561248779296875">
        <ele>833.5999755859375</ele>
        <time>2020-08-13T06:08:13.000Z</time>
      </trkpt>
      <trkpt lat="42.49336369335651397705078125" lon="1.21236526407301425933837890625">
        <ele>833.4000244140625</ele>
        <time>2020-08-13T06:08:20.000Z</time>
      </trkpt>
      <trkpt lat="42.49356611631810665130615234375" lon="1.21210341341793537139892578125">
        <ele>833</ele>
        <time>2020-08-13T06:08:27.000Z</time>
      </trkpt>
      <trkpt lat="42.49372654594480991363525390625" lon="1.21188984252512454986572265625">
        <ele>832.5999755859375</ele>
        <time>2020-08-13T06:08:32.000Z</time>
      </trkpt>
      <trkpt lat="42.49389477074146270751953125" lon="1.2117482721805572509765625">
        <ele>832</ele>
        <time>2020-08-13T06:08:36.000Z</time>
      </trkpt>
      <trkpt lat="42.49398353509604930877685546875" lon="1.2117051891982555389404296875">
        <ele>831.79998779296875</ele>
        <time>2020-08-13T06:08:38.000Z</time>
      </trkpt>
      <trkpt lat="42.49407724477350711822509765625" lon="1.21167610399425029754638671875">
        <ele>831.4000244140625</ele>
        <time>2020-08-13T06:08:40.000Z</time>
      </trkpt>
      <trkpt lat="42.4942038953304290771484375" lon="1.21159060858190059661865234375">
        <ele>831.4000244140625</ele>
        <time>2020-08-13T06:08:43.000Z</time>
      </trkpt>
      <trkpt lat="42.4944776482880115509033203125" lon="1.21167995966970920562744140625">
        <ele>831</ele>
        <time>2020-08-13T06:08:50.000Z</time>
      </trkpt>
      <trkpt lat="42.4946935661137104034423828125" lon="1.2117903493344783782958984375">
        <ele>831</ele>
        <time>2020-08-13T06:08:57.000Z</time>
      </trkpt>
      <trkpt lat="42.49482658691704273223876953125" lon="1.21185312978923320770263671875">
        <ele>831</ele>
        <time>2020-08-13T06:09:03.000Z</time>
      </trkpt>
      <trkpt lat="42.49483111314475536346435546875" lon="1.2118416465818881988525390625">
        <ele>831</ele>
        <time>2020-08-13T06:09:08.000Z</time>
      </trkpt>
      <trkpt lat="42.4948350526392459869384765625" lon="1.21184013783931732177734375">
        <ele>830.79998779296875</ele>
        <time>2020-08-13T06:09:25.000Z</time>
      </trkpt>
      <trkpt lat="42.4948394112288951873779296875" lon="1.21183879673480987548828125">
        <ele>830.79998779296875</ele>
        <time>2020-08-13T06:09:33.000Z</time>
      </trkpt>
      <trkpt lat="42.49485391192138195037841796875" lon="1.21184273622930049896240234375">
        <ele>830.79998779296875</ele>
        <time>2020-08-13T06:09:45.000Z</time>
      </trkpt>
      <trkpt lat="42.4950070492923259735107421875" lon="1.21191616170108318328857421875">
        <ele>830.5999755859375</ele>
        <time>2020-08-13T06:09:51.000Z</time>
      </trkpt>
      <trkpt lat="42.49519639648497104644775390625" lon="1.2119586579501628875732421875">
        <ele>830.4000244140625</ele>
        <time>2020-08-13T06:09:59.000Z</time>
      </trkpt>
      <trkpt lat="42.49524450860917568206787109375" lon="1.2119006551802158355712890625">
        <ele>830.5999755859375</ele>
        <time>2020-08-13T06:10:05.000Z</time>
      </trkpt>
      <trkpt lat="42.49524685554206371307373046875" lon="1.21189436875283718109130859375">
        <ele>830.4000244140625</ele>
        <time>2020-08-13T06:10:10.000Z</time>
      </trkpt>
      <trkpt lat="42.49527099542319774627685546875" lon="1.211913563311100006103515625">
        <ele>830</ele>
        <time>2020-08-13T06:10:13.000Z</time>
      </trkpt>
      <trkpt lat="42.495299242436885833740234375" lon="1.21198841370642185211181640625">
        <ele>830.20001220703125</ele>
        <time>2020-08-13T06:10:18.000Z</time>
      </trkpt>
      <trkpt lat="42.49538247473537921905517578125" lon="1.2120835483074188232421875">
        <ele>830.20001220703125</ele>
        <time>2020-08-13T06:10:22.000Z</time>
      </trkpt>
      <trkpt lat="42.495531253516674041748046875" lon="1.2121397070586681365966796875">
        <ele>829</ele>
        <time>2020-08-13T06:10:26.000Z</time>
      </trkpt>
      <trkpt lat="42.49560912139713764190673828125" lon="1.2120897509157657623291015625">
        <ele>828.79998779296875</ele>
        <time>2020-08-13T06:10:28.000Z</time>
      </trkpt>
      <trkpt lat="42.49564625322818756103515625" lon="1.21205211617052555084228515625">
        <ele>828.79998779296875</ele>
        <time>2020-08-13T06:10:29.000Z</time>
      </trkpt>
      <trkpt lat="42.49568304978311061859130859375" lon="1.21201288886368274688720703125">
        <ele>828.5999755859375</ele>
        <time>2020-08-13T06:10:30.000Z</time>
      </trkpt>
      <trkpt lat="42.49578396789729595184326171875" lon="1.21188833378255367279052734375">
        <ele>828.4000244140625</ele>
        <time>2020-08-13T06:10:33.000Z</time>
      </trkpt>
      <trkpt lat="42.49587013386189937591552734375" lon="1.21175556443631649017333984375">
        <ele>828.4000244140625</ele>
        <time>2020-08-13T06:10:36.000Z</time>
      </trkpt>
      <trkpt lat="42.49598479829728603363037109375" lon="1.2115677259862422943115234375">
        <ele>828.5999755859375</ele>
        <time>2020-08-13T06:10:42.000Z</time>
      </trkpt>
      <trkpt lat="42.4959827028214931488037109375" lon="1.21154618449509143829345703125">
        <ele>828.5999755859375</ele>
        <time>2020-08-13T06:10:52.000Z</time>
      </trkpt>
      <trkpt lat="42.49603651463985443115234375" lon="1.21142313815653324127197265625">
        <ele>828.79998779296875</ele>
        <time>2020-08-13T06:10:58.000Z</time>
      </trkpt>
      <trkpt lat="42.4961297214031219482421875" lon="1.21120453812181949615478515625">
        <ele>829</ele>
        <time>2020-08-13T06:11:06.000Z</time>
      </trkpt>
      <trkpt lat="42.49616333283483982086181640625" lon="1.2111107446253299713134765625">
        <ele>829.5999755859375</ele>
        <time>2020-08-13T06:11:09.000Z</time>
      </trkpt>
      <trkpt lat="42.49620390124619007110595703125" lon="1.210998259484767913818359375">
        <ele>830</ele>
        <time>2020-08-13T06:11:13.000Z</time>
      </trkpt>
      <trkpt lat="42.4962207488715648651123046875" lon="1.21085870079696178436279296875">
        <ele>830.4000244140625</ele>
        <time>2020-08-13T06:11:18.000Z</time>
      </trkpt>
      <trkpt lat="42.49621060676872730255126953125" lon="1.2108160369098186492919921875">
        <ele>830.5999755859375</ele>
        <time>2020-08-13T06:11:23.000Z</time>
      </trkpt>
      <trkpt lat="42.4962009675800800323486328125" lon="1.2108096666634082794189453125">
        <ele>830.5999755859375</ele>
        <time>2020-08-13T06:11:35.000Z</time>
      </trkpt>
      <trkpt lat="42.49675626866519451141357421875" lon="1.2097714841365814208984375">
        <ele>833</ele>
        <time>2020-08-13T06:28:40.000Z</time>
      </trkpt>
      <trkpt lat="42.4968389980494976043701171875" lon="1.20967023074626922607421875">
        <ele>833</ele>
        <time>2020-08-13T06:28:45.000Z</time>
      </trkpt>
      <trkpt lat="42.496855258941650390625" lon="1.2096506170928478240966796875">
        <ele>833</ele>
        <time>2020-08-13T06:28:46.000Z</time>
      </trkpt>
      <trkpt lat="42.49697235412895679473876953125" lon="1.20951793156564235687255859375">
        <ele>833.79998779296875</ele>
        <time>2020-08-13T06:28:53.000Z</time>
      </trkpt>
      <trkpt lat="42.49713999219238758087158203125" lon="1.20937007479369640350341796875">
        <ele>834.5999755859375</ele>
        <time>2020-08-13T06:29:01.000Z</time>
      </trkpt>
      <trkpt lat="42.49720905907452106475830078125" lon="1.2093181908130645751953125">
        <ele>835.20001220703125</ele>
        <time>2020-08-13T06:29:04.000Z</time>
      </trkpt>
      <trkpt lat="42.497363872826099395751953125" lon="1.2092243134975433349609375">
        <ele>835.4000244140625</ele>
        <time>2020-08-13T06:29:11.000Z</time>
      </trkpt>
      <trkpt lat="42.497546263039112091064453125" lon="1.20912850834429264068603515625">
        <ele>836.20001220703125</ele>
        <time>2020-08-13T06:29:19.000Z</time>
      </trkpt>
      <trkpt lat="42.4975695647299289703369140625" lon="1.20912171900272369384765625">
        <ele>836.20001220703125</ele>
        <time>2020-08-13T06:29:20.000Z</time>
      </trkpt>
      <trkpt lat="42.49773611314594745635986328125" lon="1.20908014476299285888671875">
        <ele>836.5999755859375</ele>
        <time>2020-08-13T06:29:27.000Z</time>
      </trkpt>
      <trkpt lat="42.49794222414493560791015625" lon="1.209063716232776641845703125">
        <ele>836.79998779296875</ele>
        <time>2020-08-13T06:29:35.000Z</time>
      </trkpt>
      <trkpt lat="42.49812385998666286468505859375" lon="1.20904971845448017120361328125">
        <ele>837</ele>
        <time>2020-08-13T06:29:42.000Z</time>
      </trkpt>
      <trkpt lat="42.49839258380234241485595703125" lon="1.20901501737534999847412109375">
        <ele>837.4000244140625</ele>
        <time>2020-08-13T06:29:52.000Z</time>
      </trkpt>
      <trkpt lat="42.49858788214623928070068359375" lon="1.20899825356900691986083984375">
        <ele>837.5999755859375</ele>
        <time>2020-08-13T06:29:59.000Z</time>
      </trkpt>
      <trkpt lat="42.49861520715057849884033203125" lon="1.2089921347796916961669921875">
        <ele>837.5999755859375</ele>
        <time>2020-08-13T06:30:00.000Z</time>
      </trkpt>
      <trkpt lat="42.498841769993305206298828125" lon="1.2089421786367893218994140625">
        <ele>837.5999755859375</ele>
        <time>2020-08-13T06:30:08.000Z</time>
      </trkpt>
      <trkpt lat="42.499066404998302459716796875" lon="1.20887470431625843048095703125">
        <ele>838</ele>
        <time>2020-08-13T06:30:16.000Z</time>
      </trkpt>
      <trkpt lat="42.49927871860563755035400390625" lon="1.208765991032123565673828125">
        <ele>838.20001220703125</ele>
        <time>2020-08-13T06:30:24.000Z</time>
      </trkpt>
      <trkpt lat="42.4994556605815887451171875" lon="1.2086357362568378448486328125">
        <ele>838.79998779296875</ele>
        <time>2020-08-13T06:30:31.000Z</time>
      </trkpt>
      <trkpt lat="42.49950218014419078826904296875" lon="1.20859558694064617156982421875">
        <ele>839.20001220703125</ele>
        <time>2020-08-13T06:30:33.000Z</time>
      </trkpt>
      <trkpt lat="42.49965171329677104949951171875" lon="1.208433397114276885986328125">
        <ele>839.5999755859375</ele>
        <time>2020-08-13T06:30:40.000Z</time>
      </trkpt>
      <trkpt lat="42.4997104704380035400390625" lon="1.20835955254733562469482421875">
        <ele>840.20001220703125</ele>
        <time>2020-08-13T06:30:43.000Z</time>
      </trkpt>
      <trkpt lat="42.49983661808073520660400390625" lon="1.20818562805652618408203125">
        <ele>841</ele>
        <time>2020-08-13T06:30:50.000Z</time>
      </trkpt>
      <trkpt lat="42.49988523311913013458251953125" lon="1.20811052620410919189453125">
        <ele>841.4000244140625</ele>
        <time>2020-08-13T06:30:53.000Z</time>
      </trkpt>
      <trkpt lat="42.499977685511112213134765625" lon="1.20796878822147846221923828125">
        <ele>842.4000244140625</ele>
        <time>2020-08-13T06:30:59.000Z</time>
      </trkpt>
      <trkpt lat="42.5000055134296417236328125" lon="1.20792184956371784210205078125">
        <ele>842.5999755859375</ele>
        <time>2020-08-13T06:31:01.000Z</time>
      </trkpt>
      <trkpt lat="42.50009737908840179443359375" lon="1.20775521732866764068603515625">
        <ele>843.5999755859375</ele>
        <time>2020-08-13T06:31:08.000Z</time>
      </trkpt>
      <trkpt lat="42.50010902993381023406982421875" lon="1.2077304907143115997314453125">
        <ele>844</ele>
        <time>2020-08-13T06:31:09.000Z</time>
      </trkpt>
      <trkpt lat="42.50018413178622722625732421875" lon="1.20755790732800960540771484375">
        <ele>845</ele>
        <time>2020-08-13T06:31:16.000Z</time>
      </trkpt>
      <trkpt lat="42.5002319924533367156982421875" lon="1.20742966420948505401611328125">
        <ele>845.79998779296875</ele>
        <time>2020-08-13T06:31:21.000Z</time>
      </trkpt>
      <trkpt lat="42.500242888927459716796875" lon="1.20740535669028759002685546875">
        <ele>846</ele>
        <time>2020-08-13T06:31:22.000Z</time>
      </trkpt>
      <trkpt lat="42.50031472183763980865478515625" lon="1.20719145052134990692138671875">
        <ele>847.4000244140625</ele>
        <time>2020-08-13T06:31:30.000Z</time>
      </trkpt>
      <trkpt lat="42.50033014453947544097900390625" lon="1.20713495649397373199462890625">
        <ele>847.5999755859375</ele>
        <time>2020-08-13T06:31:32.000Z</time>
      </trkpt>
      <trkpt lat="42.50037037767469882965087890625" lon="1.20696790516376495361328125">
        <ele>848.4000244140625</ele>
        <time>2020-08-13T06:31:38.000Z</time>
      </trkpt>
      <trkpt lat="42.50038831494748592376708984375" lon="1.2068557552993297576904296875">
        <ele>849</ele>
        <time>2020-08-13T06:31:42.000Z</time>
      </trkpt>
      <trkpt lat="42.50040038488805294036865234375" lon="1.206773109734058380126953125">
        <ele>849.4000244140625</ele>
        <time>2020-08-13T06:31:45.000Z</time>
      </trkpt>
      <trkpt lat="42.50041396357119083404541015625" lon="1.20663321577012538909912109375">
        <ele>850.20001220703125</ele>
        <time>2020-08-13T06:31:50.000Z</time>
      </trkpt>
      <trkpt lat="42.50042050145566463470458984375" lon="1.2065456248819828033447265625">
        <ele>850.79998779296875</ele>
        <time>2020-08-13T06:31:53.000Z</time>
      </trkpt>
      <trkpt lat="42.50042016617953777313232421875" lon="1.20636918582022190093994140625">
        <ele>851.5999755859375</ele>
        <time>2020-08-13T06:31:59.000Z</time>
      </trkpt>
      <trkpt lat="42.50041647814214229583740234375" lon="1.20631210505962371826171875">
        <ele>851.79998779296875</ele>
        <time>2020-08-13T06:32:01.000Z</time>
      </trkpt>
      <trkpt lat="42.50039451755583286285400390625" lon="1.20613549835979938507080078125">
        <ele>853</ele>
        <time>2020-08-13T06:32:07.000Z</time>
      </trkpt>
      <trkpt lat="42.5003850460052490234375" lon="1.20607648976147174835205078125">
        <ele>853.20001220703125</ele>
        <time>2020-08-13T06:32:09.000Z</time>
      </trkpt>
      <trkpt lat="42.50036451034247875213623046875" lon="1.2059256993234157562255859375">
        <ele>853.5999755859375</ele>
        <time>2020-08-13T06:32:14.000Z</time>
      </trkpt>
      <trkpt lat="42.5003426335752010345458984375" lon="1.2057776749134063720703125">
        <ele>854.20001220703125</ele>
        <time>2020-08-13T06:32:19.000Z</time>
      </trkpt>
      <trkpt lat="42.500326372683048248291015625" lon="1.205656640231609344482421875">
        <ele>854.79998779296875</ele>
        <time>2020-08-13T06:32:23.000Z</time>
      </trkpt>
      <trkpt lat="42.50030600465834140777587890625" lon="1.20540576986968517303466796875">
        <ele>855.4000244140625</ele>
        <time>2020-08-13T06:32:31.000Z</time>
      </trkpt>
      <trkpt lat="42.50030516646802425384521484375" lon="1.205373667180538177490234375">
        <ele>855.4000244140625</ele>
        <time>2020-08-13T06:32:32.000Z</time>
      </trkpt>
      <trkpt lat="42.500310279428958892822265625" lon="1.20515741407871246337890625">
        <ele>856.20001220703125</ele>
        <time>2020-08-13T06:32:39.000Z</time>
      </trkpt>
      <trkpt lat="42.5003567151725292205810546875" lon="1.20485742576420307159423828125">
        <ele>856.4000244140625</ele>
        <time>2020-08-13T06:32:48.000Z</time>
      </trkpt>
      <trkpt lat="42.5003798492252826690673828125" lon="1.20475399307906627655029296875">
        <ele>856.5999755859375</ele>
        <time>2020-08-13T06:32:51.000Z</time>
      </trkpt>
      <trkpt lat="42.50045679509639739990234375" lon="1.20452533476054668426513671875">
        <ele>857</ele>
        <time>2020-08-13T06:32:58.000Z</time>
      </trkpt>
      <trkpt lat="42.50060171820223331451416015625" lon="1.20421436615288257598876953125">
        <ele>856.79998779296875</ele>
        <time>2020-08-13T06:33:07.000Z</time>
      </trkpt>
      <trkpt lat="42.5007965974509716033935546875" lon="1.2039398588240146636962890625">
        <ele>857</ele>
        <time>2020-08-13T06:33:16.000Z</time>
      </trkpt>
      <trkpt lat="42.501030452549457550048828125" lon="1.203730814158916473388671875">
        <ele>856.4000244140625</ele>
        <time>2020-08-13T06:33:25.000Z</time>
      </trkpt>
      <trkpt lat="42.50126673839986324310302734375" lon="1.20361246168613433837890625">
        <ele>856.4000244140625</ele>
        <time>2020-08-13T06:33:33.000Z</time>
      </trkpt>
      <trkpt lat="42.50142867676913738250732421875" lon="1.2035646848380565643310546875">
        <ele>856.20001220703125</ele>
        <time>2020-08-13T06:33:38.000Z</time>
      </trkpt>
      <trkpt lat="42.5015573389828205108642578125" lon="1.20353794656693935394287109375">
        <ele>856</ele>
        <time>2020-08-13T06:33:42.000Z</time>
      </trkpt>
      <trkpt lat="42.501853890717029571533203125" lon="1.2035194225609302520751953125">
        <ele>855.79998779296875</ele>
        <time>2020-08-13T06:33:51.000Z</time>
      </trkpt>
      <trkpt lat="42.502155639231204986572265625" lon="1.2035004794597625732421875">
        <ele>855.5999755859375</ele>
        <time>2020-08-13T06:34:00.000Z</time>
      </trkpt>
      <trkpt lat="42.50240407884120941162109375" lon="1.20349871926009654998779296875">
        <ele>855.5999755859375</ele>
        <time>2020-08-13T06:34:07.000Z</time>
      </trkpt>
      <trkpt lat="42.50244028866291046142578125" lon="1.20349855162203311920166015625">
        <ele>855.4000244140625</ele>
        <time>2020-08-13T06:34:08.000Z</time>
      </trkpt>
      <trkpt lat="42.5027190707623958587646484375" lon="1.203469298779964447021484375">
        <ele>855.20001220703125</ele>
        <time>2020-08-13T06:34:16.000Z</time>
      </trkpt>
      <trkpt lat="42.5029272772371768951416015625" lon="1.20341842062771320343017578125">
        <ele>855.20001220703125</ele>
        <time>2020-08-13T06:34:22.000Z</time>
      </trkpt>
      <trkpt lat="42.50315786339342594146728515625" lon="1.203335188329219818115234375">
        <ele>854.5999755859375</ele>
        <time>2020-08-13T06:34:28.000Z</time>
      </trkpt>
      <trkpt lat="42.50337311066687107086181640625" lon="1.203244663774967193603515625">
        <ele>853.79998779296875</ele>
        <time>2020-08-13T06:34:33.000Z</time>
      </trkpt>
      <trkpt lat="42.50351853668689727783203125" lon="1.20316746644675731658935546875">
        <ele>853.5999755859375</ele>
        <time>2020-08-13T06:34:36.000Z</time>
      </trkpt>
      <trkpt lat="42.5036256574094295501708984375" lon="1.2031087093055248260498046875">
        <ele>853.20001220703125</ele>
        <time>2020-08-13T06:34:38.000Z</time>
      </trkpt>
      <trkpt lat="42.503848783671855926513671875" lon="1.20297853834927082061767578125">
        <ele>852.4000244140625</ele>
        <time>2020-08-13T06:34:42.000Z</time>
      </trkpt>
      <trkpt lat="42.504023797810077667236328125" lon="1.20287829078733921051025390625">
        <ele>851.79998779296875</ele>
        <time>2020-08-13T06:34:45.000Z</time>
      </trkpt>
      <trkpt lat="42.5042056851089000701904296875" lon="1.20277988724410533905029296875">
        <ele>851.4000244140625</ele>
        <time>2020-08-13T06:34:48.000Z</time>
      </trkpt>
      <trkpt lat="42.50446057878434658050537109375" lon="1.20268265716731548309326171875">
        <ele>851</ele>
        <time>2020-08-13T06:34:52.000Z</time>
      </trkpt>
      <trkpt lat="42.50471991486847400665283203125" lon="1.20266036130487918853759765625">
        <ele>850.4000244140625</ele>
        <time>2020-08-13T06:34:56.000Z</time>
      </trkpt>
      <trkpt lat="42.50484111718833446502685546875" lon="1.202671341598033905029296875">
        <ele>850.4000244140625</ele>
        <time>2020-08-13T06:34:58.000Z</time>
      </trkpt>
      <trkpt lat="42.50515392981469631195068359375" lon="1.2027660571038722991943359375">
        <ele>850.4000244140625</ele>
        <time>2020-08-13T06:35:04.000Z</time>
      </trkpt>
      <trkpt lat="42.50545098446309566497802734375" lon="1.202882230281829833984375">
        <ele>850.5999755859375</ele>
        <time>2020-08-13T06:35:11.000Z</time>
      </trkpt>
      <trkpt lat="42.50574334524571895599365234375" lon="1.202964372932910919189453125">
        <ele>850.5999755859375</ele>
        <time>2020-08-13T06:35:19.000Z</time>
      </trkpt>
      <trkpt lat="42.50611223280429840087890625" lon="1.2030258961021900177001953125">
        <ele>851</ele>
        <time>2020-08-13T06:35:29.000Z</time>
      </trkpt>
      <trkpt lat="42.50653493218123912811279296875" lon="1.20301893912255764007568359375">
        <ele>851.4000244140625</ele>
        <time>2020-08-13T06:35:41.000Z</time>
      </trkpt>
      <trkpt lat="42.50675805844366550445556640625" lon="1.20298205874860286712646484375">
        <ele>852</ele>
        <time>2020-08-13T06:35:48.000Z</time>
      </trkpt>
      <trkpt lat="42.5068191625177860260009765625" lon="1.20297099463641643524169921875">
        <ele>852.4000244140625</ele>
        <time>2020-08-13T06:35:50.000Z</time>
      </trkpt>
      <trkpt lat="42.507090233266353607177734375" lon="1.20288952253758907318115234375">
        <ele>853.20001220703125</ele>
        <time>2020-08-13T06:35:59.000Z</time>
      </trkpt>
      <trkpt lat="42.507120072841644287109375" lon="1.20287711732089519500732421875">
        <ele>853.4000244140625</ele>
        <time>2020-08-13T06:36:00.000Z</time>
      </trkpt>
      <trkpt lat="42.5073552690446376800537109375" lon="1.20274208486080169677734375">
        <ele>853.5999755859375</ele>
        <time>2020-08-13T06:36:08.000Z</time>
      </trkpt>
      <trkpt lat="42.5076355598866939544677734375" lon="1.20246849954128265380859375">
        <ele>853.79998779296875</ele>
        <time>2020-08-13T06:36:18.000Z</time>
      </trkpt>
      <trkpt lat="42.50784066505730152130126953125" lon="1.20216985233128070831298828125">
        <ele>853.79998779296875</ele>
        <time>2020-08-13T06:36:26.000Z</time>
      </trkpt>
      <trkpt lat="42.50808089040219783782958984375" lon="1.20181747712194919586181640625">
        <ele>853.20001220703125</ele>
        <time>2020-08-13T06:36:35.000Z</time>
      </trkpt>
      <trkpt lat="42.50827736221253871917724609375" lon="1.201617233455181121826171875">
        <ele>853.20001220703125</ele>
        <time>2020-08-13T06:36:42.000Z</time>
      </trkpt>
      <trkpt lat="42.50853217206895351409912109375" lon="1.20142109692096710205078125">
        <ele>853.20001220703125</ele>
        <time>2020-08-13T06:36:50.000Z</time>
      </trkpt>
      <trkpt lat="42.50883626751601696014404296875" lon="1.2012076936662197113037109375">
        <ele>853</ele>
        <time>2020-08-13T06:36:59.000Z</time>
      </trkpt>
      <trkpt lat="42.50901077874004840850830078125" lon="1.2010856531560420989990234375">
        <ele>853</ele>
        <time>2020-08-13T06:37:04.000Z</time>
      </trkpt>
      <trkpt lat="42.5091815181076526641845703125" lon="1.20097107253968715667724609375">
        <ele>853.4000244140625</ele>
        <time>2020-08-13T06:37:09.000Z</time>
      </trkpt>
      <trkpt lat="42.50947664491832256317138671875" lon="1.20073973201215267181396484375">
        <ele>853.20001220703125</ele>
        <time>2020-08-13T06:37:18.000Z</time>
      </trkpt>
      <trkpt lat="42.50969356857240200042724609375" lon="1.20051182806491851806640625">
        <ele>853.4000244140625</ele>
        <time>2020-08-13T06:37:26.000Z</time>
      </trkpt>
      <trkpt lat="42.5098832510411739349365234375" lon="1.20021988637745380401611328125">
        <ele>853.20001220703125</ele>
        <time>2020-08-13T06:37:34.000Z</time>
      </trkpt>
      <trkpt lat="42.510027587413787841796875" lon="1.1999036371707916259765625">
        <ele>853</ele>
        <time>2020-08-13T06:37:42.000Z</time>
      </trkpt>
      <trkpt lat="42.51015323214232921600341796875" lon="1.1995269544422626495361328125">
        <ele>852.79998779296875</ele>
        <time>2020-08-13T06:37:50.000Z</time>
      </trkpt>
      <trkpt lat="42.51023168675601482391357421875" lon="1.19928781874477863311767578125">
        <ele>852.79998779296875</ele>
        <time>2020-08-13T06:37:55.000Z</time>
      </trkpt>
      <trkpt lat="42.510295808315277099609375" lon="1.19911112822592258453369140625">
        <ele>852.79998779296875</ele>
        <time>2020-08-13T06:37:59.000Z</time>
      </trkpt>
      <trkpt lat="42.51031232066452503204345703125" lon="1.1990666203200817108154296875">
        <ele>852.5999755859375</ele>
        <time>2020-08-13T06:38:00.000Z</time>
      </trkpt>
      <trkpt lat="42.51046420074999332427978515625" lon="1.19866336695849895477294921875">
        <ele>852.79998779296875</ele>
        <time>2020-08-13T06:38:09.000Z</time>
      </trkpt>
      <trkpt lat="42.5106248818337917327880859375" lon="1.198222897946834564208984375">
        <ele>852.5999755859375</ele>
        <time>2020-08-13T06:38:19.000Z</time>
      </trkpt>
      <trkpt lat="42.5107730738818645477294921875" lon="1.197832636535167694091796875">
        <ele>852.79998779296875</ele>
        <time>2020-08-13T06:38:28.000Z</time>
      </trkpt>
      <trkpt lat="42.51093073748052120208740234375" lon="1.19741127826273441314697265625">
        <ele>853</ele>
        <time>2020-08-13T06:38:37.000Z</time>
      </trkpt>
      <trkpt lat="42.511158473789691925048828125" lon="1.1968460865318775177001953125">
        <ele>853</ele>
        <time>2020-08-13T06:38:49.000Z</time>
      </trkpt>
      <trkpt lat="42.511350251734256744384765625" lon="1.1964390613138675689697265625">
        <ele>853.4000244140625</ele>
        <time>2020-08-13T06:38:58.000Z</time>
      </trkpt>
      <trkpt lat="42.5116199813783168792724609375" lon="1.1959472112357616424560546875">
        <ele>854.20001220703125</ele>
        <time>2020-08-13T06:39:10.000Z</time>
      </trkpt>
      <trkpt lat="42.511685192584991455078125" lon="1.19583514519035816192626953125">
        <ele>854.4000244140625</ele>
        <time>2020-08-13T06:39:13.000Z</time>
      </trkpt>
      <trkpt lat="42.51180597580969333648681640625" lon="1.19566532783210277557373046875">
        <ele>854.79998779296875</ele>
        <time>2020-08-13T06:39:18.000Z</time>
      </trkpt>
      <trkpt lat="42.51196749508380889892578125" lon="1.19543574750423431396484375">
        <ele>855.20001220703125</ele>
        <time>2020-08-13T06:39:25.000Z</time>
      </trkpt>
      <trkpt lat="42.512067742645740509033203125" lon="1.1953235976397991180419921875">
        <ele>855.5999755859375</ele>
        <time>2020-08-13T06:39:29.000Z</time>
      </trkpt>
      <trkpt lat="42.51223496161401271820068359375" lon="1.1951351724565029144287109375">
        <ele>856.5999755859375</ele>
        <time>2020-08-13T06:39:36.000Z</time>
      </trkpt>
      <trkpt lat="42.51230738125741481781005859375" lon="1.19505747221410274505615234375">
        <ele>857</ele>
        <time>2020-08-13T06:39:39.000Z</time>
      </trkpt>
      <trkpt lat="42.51243880949914455413818359375" lon="1.19494565762579441070556640625">
        <ele>857.20001220703125</ele>
        <time>2020-08-13T06:39:44.000Z</time>
      </trkpt>
      <trkpt lat="42.51262421719729900360107421875" lon="1.19480333290994167327880859375">
        <ele>858</ele>
        <time>2020-08-13T06:39:51.000Z</time>
      </trkpt>
      <trkpt lat="42.51265053637325763702392578125" lon="1.1947827972471714019775390625">
        <ele>858</ele>
        <time>2020-08-13T06:39:52.000Z</time>
      </trkpt>
      <trkpt lat="42.51292730681598186492919921875" lon="1.1946319229900836944580078125">
        <ele>859</ele>
        <time>2020-08-13T06:40:02.000Z</time>
      </trkpt>
      <trkpt lat="42.5130174122750759124755859375" lon="1.1946007423102855682373046875">
        <ele>859.20001220703125</ele>
        <time>2020-08-13T06:40:05.000Z</time>
      </trkpt>
      <trkpt lat="42.51325252465903759002685546875" lon="1.19456159882247447967529296875">
        <ele>860.4000244140625</ele>
        <time>2020-08-13T06:40:13.000Z</time>
      </trkpt>
      <trkpt lat="42.5132826156914234161376953125" lon="1.19455791078507900238037109375">
        <ele>860.4000244140625</ele>
        <time>2020-08-13T06:40:14.000Z</time>
      </trkpt>
      <trkpt lat="42.5135327316820621490478515625" lon="1.19454416446387767791748046875">
        <ele>861</ele>
        <time>2020-08-13T06:40:22.000Z</time>
      </trkpt>
      <trkpt lat="42.51376231200993061065673828125" lon="1.19454919360578060150146484375">
        <ele>861.4000244140625</ele>
        <time>2020-08-13T06:40:29.000Z</time>
      </trkpt>
      <trkpt lat="42.51379617489874362945556640625" lon="1.19454952888190746307373046875">
        <ele>861.4000244140625</ele>
        <time>2020-08-13T06:40:30.000Z</time>
      </trkpt>
      <trkpt lat="42.51402500085532665252685546875" lon="1.19456059299409389495849609375">
        <ele>861.5999755859375</ele>
        <time>2020-08-13T06:40:37.000Z</time>
      </trkpt>
      <trkpt lat="42.51427025534212589263916015625" lon="1.19460669346153736114501953125">
        <ele>861.5999755859375</ele>
        <time>2020-08-13T06:40:44.000Z</time>
      </trkpt>
      <trkpt lat="42.51446974463760852813720703125" lon="1.1946786940097808837890625">
        <ele>861.4000244140625</ele>
        <time>2020-08-13T06:40:50.000Z</time>
      </trkpt>
      <trkpt lat="42.51477652229368686676025390625" lon="1.19487273506820201873779296875">
        <ele>861.5999755859375</ele>
        <time>2020-08-13T06:40:59.000Z</time>
      </trkpt>
      <trkpt lat="42.51512085087597370147705078125" lon="1.19507457129657268524169921875">
        <ele>861.20001220703125</ele>
        <time>2020-08-13T06:41:09.000Z</time>
      </trkpt>
      <trkpt lat="42.5153197534382343292236328125" lon="1.19512134231626987457275390625">
        <ele>860.79998779296875</ele>
        <time>2020-08-13T06:41:14.000Z</time>
      </trkpt>
      <trkpt lat="42.51536275260150432586669921875" lon="1.19512637145817279815673828125">
        <ele>860.5999755859375</ele>
        <time>2020-08-13T06:41:15.000Z</time>
      </trkpt>
      <trkpt lat="42.5155477412045001983642578125" lon="1.1951378546655178070068359375">
        <ele>860.20001220703125</ele>
        <time>2020-08-13T06:41:19.000Z</time>
      </trkpt>
      <trkpt lat="42.51564287580549716949462890625" lon="1.19513391517102718353271484375">
        <ele>860</ele>
        <time>2020-08-13T06:41:21.000Z</time>
      </trkpt>
      <trkpt lat="42.515789307653903961181640625" lon="1.19510927237570285797119140625">
        <ele>859.79998779296875</ele>
        <time>2020-08-13T06:41:24.000Z</time>
      </trkpt>
      <trkpt lat="42.515987455844879150390625" lon="1.195051185786724090576171875">
        <ele>859.5999755859375</ele>
        <time>2020-08-13T06:41:28.000Z</time>
      </trkpt>
      <trkpt lat="42.51635785214602947235107421875" lon="1.19491397403180599212646484375">
        <ele>859</ele>
        <time>2020-08-13T06:41:36.000Z</time>
      </trkpt>
      <trkpt lat="42.516606710851192474365234375" lon="1.194792687892913818359375">
        <ele>859.4000244140625</ele>
        <time>2020-08-13T06:41:43.000Z</time>
      </trkpt>
      <trkpt lat="42.516897059977054595947265625" lon="1.19462161324918270111083984375">
        <ele>859.79998779296875</ele>
        <time>2020-08-13T06:41:52.000Z</time>
      </trkpt>
      <trkpt lat="42.517226301133632659912109375" lon="1.19435339234769344329833984375">
        <ele>860</ele>
        <time>2020-08-13T06:42:03.000Z</time>
      </trkpt>
      <trkpt lat="42.51744498498737812042236328125" lon="1.194133870303630828857421875">
        <ele>860.4000244140625</ele>
        <time>2020-08-13T06:42:11.000Z</time>
      </trkpt>
      <trkpt lat="42.5177116133272647857666015625" lon="1.1938520707190036773681640625">
        <ele>860.5999755859375</ele>
        <time>2020-08-13T06:42:21.000Z</time>
      </trkpt>
      <trkpt lat="42.517977990210056304931640625" lon="1.19358041323721408843994140625">
        <ele>861</ele>
        <time>2020-08-13T06:42:31.000Z</time>
      </trkpt>
      <trkpt lat="42.518214695155620574951171875" lon="1.19338452816009521484375">
        <ele>861</ele>
        <time>2020-08-13T06:42:39.000Z</time>
      </trkpt>
      <trkpt lat="42.51852708868682384490966796875" lon="1.1931798420846462249755859375">
        <ele>861.20001220703125</ele>
        <time>2020-08-13T06:42:49.000Z</time>
      </trkpt>
      <trkpt lat="42.51881089992821216583251953125" lon="1.19300910271704196929931640625">
        <ele>861.4000244140625</ele>
        <time>2020-08-13T06:42:58.000Z</time>
      </trkpt>
      <trkpt lat="42.51907861791551113128662109375" lon="1.1928747408092021942138671875">
        <ele>861.4000244140625</ele>
        <time>2020-08-13T06:43:06.000Z</time>
      </trkpt>
      <trkpt lat="42.51938103698194026947021484375" lon="1.19273752905428409576416015625">
        <ele>861.79998779296875</ele>
        <time>2020-08-13T06:43:15.000Z</time>
      </trkpt>
      <trkpt lat="42.51961304806172847747802734375" lon="1.19267181493341922760009765625">
        <ele>861.79998779296875</ele>
        <time>2020-08-13T06:43:22.000Z</time>
      </trkpt>
      <trkpt lat="42.5197896547615528106689453125" lon="1.19266460649669170379638671875">
        <ele>862</ele>
        <time>2020-08-13T06:43:27.000Z</time>
      </trkpt>
      <trkpt lat="42.51990272663533687591552734375" lon="1.1926786042749881744384765625">
        <ele>862</ele>
        <time>2020-08-13T06:43:30.000Z</time>
      </trkpt>
      <trkpt lat="42.52010439522564411163330078125" lon="1.19272663258016109466552734375">
        <ele>862</ele>
        <time>2020-08-13T06:43:36.000Z</time>
      </trkpt>
      <trkpt lat="42.52032919786870479583740234375" lon="1.19282889179885387420654296875">
        <ele>862</ele>
        <time>2020-08-13T06:43:43.000Z</time>
      </trkpt>
      <trkpt lat="42.52052684314548969268798828125" lon="1.1929830349981784820556640625">
        <ele>862.5999755859375</ele>
        <time>2020-08-13T06:43:49.000Z</time>
      </trkpt>
      <trkpt lat="42.52078835852444171905517578125" lon="1.193205155432224273681640625">
        <ele>862.79998779296875</ele>
        <time>2020-08-13T06:43:57.000Z</time>
      </trkpt>
      <trkpt lat="42.5211079604923725128173828125" lon="1.19340690784156322479248046875">
        <ele>863</ele>
        <time>2020-08-13T06:44:06.000Z</time>
      </trkpt>
      <trkpt lat="42.521349526941776275634765625" lon="1.19352542795240879058837890625">
        <ele>863.4000244140625</ele>
        <time>2020-08-13T06:44:13.000Z</time>
      </trkpt>
      <trkpt lat="42.521500401198863983154296875" lon="1.19357429444789886474609375">
        <ele>863.4000244140625</ele>
        <time>2020-08-13T06:44:17.000Z</time>
      </trkpt>
      <trkpt lat="42.5216531194746494293212890625" lon="1.19360036216676235198974609375">
        <ele>863.79998779296875</ele>
        <time>2020-08-13T06:44:21.000Z</time>
      </trkpt>
      <trkpt lat="42.52195201814174652099609375" lon="1.19358661584556102752685546875">
        <ele>863.5999755859375</ele>
        <time>2020-08-13T06:44:29.000Z</time>
      </trkpt>
      <trkpt lat="42.5221587158739566802978515625" lon="1.19352911598980426788330078125">
        <ele>863.79998779296875</ele>
        <time>2020-08-13T06:44:35.000Z</time>
      </trkpt>
      <trkpt lat="42.52244244329631328582763671875" lon="1.19336751289665699005126953125">
        <ele>864</ele>
        <time>2020-08-13T06:44:43.000Z</time>
      </trkpt>
      <trkpt lat="42.52282029949128627777099609375" lon="1.1931533552706241607666015625">
        <ele>863.5999755859375</ele>
        <time>2020-08-13T06:44:53.000Z</time>
      </trkpt>
      <trkpt lat="42.52315364778041839599609375" lon="1.192985884845256805419921875">
        <ele>863.5999755859375</ele>
        <time>2020-08-13T06:45:02.000Z</time>
      </trkpt>
      <trkpt lat="42.52341893501579761505126953125" lon="1.19280458427965641021728515625">
        <ele>864</ele>
        <time>2020-08-13T06:45:10.000Z</time>
      </trkpt>
      <trkpt lat="42.5236403010785579681396484375" lon="1.19257726706564426422119140625">
        <ele>864.20001220703125</ele>
        <time>2020-08-13T06:45:18.000Z</time>
      </trkpt>
      <trkpt lat="42.5237935222685337066650390625" lon="1.19232899509370326995849609375">
        <ele>864.79998779296875</ele>
        <time>2020-08-13T06:45:25.000Z</time>
      </trkpt>
      <trkpt lat="42.52381171099841594696044921875" lon="1.192289851605892181396484375">
        <ele>865.20001220703125</ele>
        <time>2020-08-13T06:45:26.000Z</time>
      </trkpt>
      <trkpt lat="42.52393844537436962127685546875" lon="1.1919098161160945892333984375">
        <ele>866</ele>
        <time>2020-08-13T06:45:35.000Z</time>
      </trkpt>
      <trkpt lat="42.523964010179042816162109375" lon="1.19179154746234416961669921875">
        <ele>866.20001220703125</ele>
        <time>2020-08-13T06:45:38.000Z</time>
      </trkpt>
      <trkpt lat="42.5240070931613445281982421875" lon="1.19157378561794757843017578125">
        <ele>866.20001220703125</ele>
        <time>2020-08-13T06:45:43.000Z</time>
      </trkpt>
      <trkpt lat="42.5240265391767024993896484375" lon="1.19149130769073963165283203125">
        <ele>866.79998779296875</ele>
        <time>2020-08-13T06:45:47.000Z</time>
      </trkpt>
      <trkpt lat="42.52402394078671932220458984375" lon="1.191487200558185577392578125">
        <ele>866.5999755859375</ele>
        <time>2020-08-13T06:46:00.000Z</time>
      </trkpt>
      <trkpt lat="42.52402293495833873748779296875" lon="1.19143389165401458740234375">
        <ele>866.79998779296875</ele>
        <time>2020-08-13T06:46:03.000Z</time>
      </trkpt>
      <trkpt lat="42.524028383195400238037109375" lon="1.191405393183231353759765625">
        <ele>866.79998779296875</ele>
        <time>2020-08-13T06:46:04.000Z</time>
      </trkpt>
      <trkpt lat="42.52408504486083984375" lon="1.191174052655696868896484375">
        <ele>866.79998779296875</ele>
        <time>2020-08-13T06:46:10.000Z</time>
      </trkpt>
      <trkpt lat="42.524210102856159210205078125" lon="1.19084891863167285919189453125">
        <ele>867.20001220703125</ele>
        <time>2020-08-13T06:46:18.000Z</time>
      </trkpt>
      <trkpt lat="42.52430163323879241943359375" lon="1.1906783469021320343017578125">
        <ele>867.5999755859375</ele>
        <time>2020-08-13T06:46:23.000Z</time>
      </trkpt>
      <trkpt lat="42.524354942142963409423828125" lon="1.19058857671916484832763671875">
        <ele>867.79998779296875</ele>
        <time>2020-08-13T06:46:26.000Z</time>
      </trkpt>
      <trkpt lat="42.52450791187584400177001953125" lon="1.190390177071094512939453125">
        <ele>868</ele>
        <time>2020-08-13T06:46:33.000Z</time>
      </trkpt>
      <trkpt lat="42.5247488915920257568359375" lon="1.19009454734623432159423828125">
        <ele>868.20001220703125</ele>
        <time>2020-08-13T06:46:42.000Z</time>
      </trkpt>
      <trkpt lat="42.525045610964298248291015625" lon="1.1897380650043487548828125">
        <ele>868</ele>
        <time>2020-08-13T06:46:52.000Z</time>
      </trkpt>
      <trkpt lat="42.52524216659367084503173828125" lon="1.18943757377564907073974609375">
        <ele>868.20001220703125</ele>
        <time>2020-08-13T06:47:00.000Z</time>
      </trkpt>
      <trkpt lat="42.5254033505916595458984375" lon="1.1890418641269207000732421875">
        <ele>868.79998779296875</ele>
        <time>2020-08-13T06:47:09.000Z</time>
      </trkpt>
      <trkpt lat="42.52541382797062397003173828125" lon="1.18899970315396785736083984375">
        <ele>869</ele>
        <time>2020-08-13T06:47:10.000Z</time>
      </trkpt>
      <trkpt lat="42.52545892260968685150146484375" lon="1.18870600126683712005615234375">
        <ele>869.4000244140625</ele>
        <time>2020-08-13T06:47:18.000Z</time>
      </trkpt>
      <trkpt lat="42.52548390068113803863525390625" lon="1.1885154806077480316162109375">
        <ele>870.20001220703125</ele>
        <time>2020-08-13T06:47:23.000Z</time>
      </trkpt>
      <trkpt lat="42.5255557335913181304931640625" lon="1.18830685503780841827392578125">
        <ele>870.79998779296875</ele>
        <time>2020-08-13T06:47:28.000Z</time>
      </trkpt>
      <trkpt lat="42.525673918426036834716796875" lon="1.18818900547921657562255859375">
        <ele>871.4000244140625</ele>
        <time>2020-08-13T06:47:31.000Z</time>
      </trkpt>
      <trkpt lat="42.52554751932621002197265625" lon="1.18791307322680950164794921875">
        <ele>871.79998779296875</ele>
        <time>2020-08-13T06:47:34.000Z</time>
      </trkpt>
      <trkpt lat="42.52559537999331951141357421875" lon="1.1877473630011081695556640625">
        <ele>872.4000244140625</ele>
        <time>2020-08-13T06:47:39.000Z</time>
      </trkpt>
      <trkpt lat="42.52560409717261791229248046875" lon="1.1877061240375041961669921875">
        <ele>872.5999755859375</ele>
        <time>2020-08-13T06:47:40.000Z</time>
      </trkpt>
      <trkpt lat="42.52562723122537136077880859375" lon="1.18752113543450832366943359375">
        <ele>873.4000244140625</ele>
        <time>2020-08-13T06:47:45.000Z</time>
      </trkpt>
      <trkpt lat="42.52562924288213253021240234375" lon="1.187484674155712127685546875">
        <ele>873.4000244140625</ele>
        <time>2020-08-13T06:47:46.000Z</time>
      </trkpt>
      <trkpt lat="42.52561918459832668304443359375" lon="1.18729281239211559295654296875">
        <ele>874</ele>
        <time>2020-08-13T06:47:51.000Z</time>
      </trkpt>
      <trkpt lat="42.525594122707843780517578125" lon="1.1870771460235118865966796875">
        <ele>874.79998779296875</ele>
        <time>2020-08-13T06:47:56.000Z</time>
      </trkpt>
      <trkpt lat="42.5255543924868106842041015625" lon="1.18682526983320713043212890625">
        <ele>875.20001220703125</ele>
        <time>2020-08-13T06:48:02.000Z</time>
      </trkpt>
      <trkpt lat="42.52552614547312259674072265625" lon="1.18661588989198207855224609375">
        <ele>876</ele>
        <time>2020-08-13T06:48:07.000Z</time>
      </trkpt>
      <trkpt lat="42.5255108065903186798095703125" lon="1.1864022351801395416259765625">
        <ele>876.4000244140625</ele>
        <time>2020-08-13T06:48:12.000Z</time>
      </trkpt>
      <trkpt lat="42.52553536556661128997802734375" lon="1.18609872646629810333251953125">
        <ele>876.5999755859375</ele>
        <time>2020-08-13T06:48:19.000Z</time>
      </trkpt>
      <trkpt lat="42.52550602890551090240478515625" lon="1.18592907674610614776611328125">
        <ele>877</ele>
        <time>2020-08-13T06:48:24.000Z</time>
      </trkpt>
      <trkpt lat="42.5254035182297229766845703125" lon="1.18585196323692798614501953125">
        <ele>877.5999755859375</ele>
        <time>2020-08-13T06:48:30.000Z</time>
      </trkpt>
      <trkpt lat="42.52525792457163333892822265625" lon="1.18576931767165660858154296875">
        <ele>878.20001220703125</ele>
        <time>2020-08-13T06:48:37.000Z</time>
      </trkpt>
      <trkpt lat="42.5252365507185459136962890625" lon="1.18575632572174072265625">
        <ele>878.20001220703125</ele>
        <time>2020-08-13T06:48:38.000Z</time>
      </trkpt>
      <trkpt lat="42.52507754601538181304931640625" lon="1.1856481991708278656005859375">
        <ele>879</ele>
        <time>2020-08-13T06:48:46.000Z</time>
      </trkpt>
      <trkpt lat="42.52492784522473812103271484375" lon="1.1855244822800159454345703125">
        <ele>879.4000244140625</ele>
        <time>2020-08-13T06:48:54.000Z</time>
      </trkpt>
      <trkpt lat="42.5249089859426021575927734375" lon="1.185510568320751190185546875">
        <ele>879.79998779296875</ele>
        <time>2020-08-13T06:48:55.000Z</time>
      </trkpt>
      <trkpt lat="42.52477780915796756744384765625" lon="1.18542046286165714263916015625">
        <ele>880.4000244140625</ele>
        <time>2020-08-13T06:49:02.000Z</time>
      </trkpt>
      <trkpt lat="42.52473036758601665496826171875" lon="1.18537637405097484588623046875">
        <ele>880.79998779296875</ele>
        <time>2020-08-13T06:49:05.000Z</time>
      </trkpt>
      <trkpt lat="42.5246404297649860382080078125" lon="1.18527763523161411285400390625">
        <ele>881</ele>
        <time>2020-08-13T06:49:10.000Z</time>
      </trkpt>
      <trkpt lat="42.5245220772922039031982421875" lon="1.18513832800090312957763671875">
        <ele>881.79998779296875</ele>
        <time>2020-08-13T06:49:17.000Z</time>
      </trkpt>
      <trkpt lat="42.52448804676532745361328125" lon="1.185109578073024749755859375">
        <ele>882</ele>
        <time>2020-08-13T06:49:19.000Z</time>
      </trkpt>
      <trkpt lat="42.524411268532276153564453125" lon="1.185039170086383819580078125">
        <ele>883</ele>
        <time>2020-08-13T06:49:24.000Z</time>
      </trkpt>
      <trkpt lat="42.52439592964947223663330078125" lon="1.1850245855748653411865234375">
        <ele>883</ele>
        <time>2020-08-13T06:49:25.000Z</time>
      </trkpt>
      <trkpt lat="42.5243309698998928070068359375" lon="1.18496398441493511199951171875">
        <ele>883.4000244140625</ele>
        <time>2020-08-13T06:49:29.000Z</time>
      </trkpt>
      <trkpt lat="42.52423885278403759002685546875" lon="1.18486105464398860931396484375">
        <ele>884.4000244140625</ele>
        <time>2020-08-13T06:49:35.000Z</time>
      </trkpt>
      <trkpt lat="42.5241559557616710662841796875" lon="1.1847209930419921875">
        <ele>885.4000244140625</ele>
        <time>2020-08-13T06:49:42.000Z</time>
      </trkpt>
      <trkpt lat="42.5241442210972309112548828125" lon="1.184702217578887939453125">
        <ele>885.5999755859375</ele>
        <time>2020-08-13T06:49:43.000Z</time>
      </trkpt>
      <trkpt lat="42.52402804791927337646484375" lon="1.18458277545869350433349609375">
        <ele>886.4000244140625</ele>
        <time>2020-08-13T06:49:51.000Z</time>
      </trkpt>
      <trkpt lat="42.52401220612227916717529296875" lon="1.1845696158707141876220703125">
        <ele>886.5999755859375</ele>
        <time>2020-08-13T06:49:52.000Z</time>
      </trkpt>
      <trkpt lat="42.5239293090999126434326171875" lon="1.18448428809642791748046875">
        <ele>887.20001220703125</ele>
        <time>2020-08-13T06:49:58.000Z</time>
      </trkpt>
      <trkpt lat="42.5239172391593456268310546875" lon="1.18446123786270618438720703125">
        <ele>887.4000244140625</ele>
        <time>2020-08-13T06:49:59.000Z</time>
      </trkpt>
      <trkpt lat="42.52389888279139995574951171875" lon="1.18441647849977016448974609375">
        <ele>887.5999755859375</ele>
        <time>2020-08-13T06:50:01.000Z</time>
      </trkpt>
      <trkpt lat="42.5238538719713687896728515625" lon="1.18432662449777126312255859375">
        <ele>888.20001220703125</ele>
        <time>2020-08-13T06:50:05.000Z</time>
      </trkpt>
      <trkpt lat="42.52381590195000171661376953125" lon="1.18423811160027980804443359375">
        <ele>888.5999755859375</ele>
        <time>2020-08-13T06:50:09.000Z</time>
      </trkpt>
      <trkpt lat="42.52380114980041980743408203125" lon="1.18418714962899684906005859375">
        <ele>889</ele>
        <time>2020-08-13T06:50:11.000Z</time>
      </trkpt>
      <trkpt lat="42.52375789918005466461181640625" lon="1.18407097645103931427001953125">
        <ele>889.20001220703125</ele>
        <time>2020-08-13T06:50:16.000Z</time>
      </trkpt>
      <trkpt lat="42.52372386865317821502685546875" lon="1.1839429847896099090576171875">
        <ele>889.79998779296875</ele>
        <time>2020-08-13T06:50:21.000Z</time>
      </trkpt>
      <trkpt lat="42.5237164087593555450439453125" lon="1.18388372473418712615966796875">
        <ele>890</ele>
        <time>2020-08-13T06:50:23.000Z</time>
      </trkpt>
      <trkpt lat="42.52364072017371654510498046875" lon="1.18360192514955997467041015625">
        <ele>890.5999755859375</ele>
        <time>2020-08-13T06:50:33.000Z</time>
      </trkpt>
      <trkpt lat="42.5236268900334835052490234375" lon="1.18358164094388484954833984375">
        <ele>890.79998779296875</ele>
        <time>2020-08-13T06:50:34.000Z</time>
      </trkpt>
      <trkpt lat="42.523594200611114501953125" lon="1.18354895152151584625244140625">
        <ele>890.79998779296875</ele>
        <time>2020-08-13T06:50:36.000Z</time>
      </trkpt>
      <trkpt lat="42.52356444485485553741455078125" lon="1.18351341225206851959228515625">
        <ele>891</ele>
        <time>2020-08-13T06:50:38.000Z</time>
      </trkpt>
      <trkpt lat="42.523485906422138214111328125" lon="1.183397658169269561767578125">
        <ele>892</ele>
        <time>2020-08-13T06:50:44.000Z</time>
      </trkpt>
      <trkpt lat="42.523458413779735565185546875" lon="1.1833649687469005584716796875">
        <ele>892.20001220703125</ele>
        <time>2020-08-13T06:50:46.000Z</time>
      </trkpt>
      <trkpt lat="42.52333939075469970703125" lon="1.1832358874380588531494140625">
        <ele>893.4000244140625</ele>
        <time>2020-08-13T06:50:54.000Z</time>
      </trkpt>
      <trkpt lat="42.5232577510178089141845703125" lon="1.18316824547946453094482421875">
        <ele>894.4000244140625</ele>
        <time>2020-08-13T06:51:00.000Z</time>
      </trkpt>
      <trkpt lat="42.52324174158275127410888671875" lon="1.18316061794757843017578125">
        <ele>894.5999755859375</ele>
        <time>2020-08-13T06:51:01.000Z</time>
      </trkpt>
      <trkpt lat="42.52317770384252071380615234375" lon="1.1831289343535900115966796875">
        <ele>895.4000244140625</ele>
        <time>2020-08-13T06:51:05.000Z</time>
      </trkpt>
      <trkpt lat="42.5230988301336765289306640625" lon="1.18308953940868377685546875">
        <ele>896.20001220703125</ele>
        <time>2020-08-13T06:51:10.000Z</time>
      </trkpt>
      <trkpt lat="42.523067481815814971923828125" lon="1.18306942284107208251953125">
        <ele>896.4000244140625</ele>
        <time>2020-08-13T06:51:12.000Z</time>
      </trkpt>
      <trkpt lat="42.52300302498042583465576171875" lon="1.18300773203372955322265625">
        <ele>897.20001220703125</ele>
        <time>2020-08-13T06:51:17.000Z</time>
      </trkpt>
      <trkpt lat="42.52298466861248016357421875" lon="1.18297177366912364959716796875">
        <ele>897.5999755859375</ele>
        <time>2020-08-13T06:51:19.000Z</time>
      </trkpt>
      <trkpt lat="42.5229358859360218048095703125" lon="1.18291578255593776702880859375">
        <ele>898.4000244140625</ele>
        <time>2020-08-13T06:51:23.000Z</time>
      </trkpt>
      <trkpt lat="42.52291233278810977935791015625" lon="1.18288711644709110260009765625">
        <ele>898.79998779296875</ele>
        <time>2020-08-13T06:51:25.000Z</time>
      </trkpt>
      <trkpt lat="42.5228740274906158447265625" lon="1.1828126013278961181640625">
        <ele>899.4000244140625</ele>
        <time>2020-08-13T06:51:29.000Z</time>
      </trkpt>
      <trkpt lat="42.5228363089263439178466796875" lon="1.18273640982806682586669921875">
        <ele>899.79998779296875</ele>
        <time>2020-08-13T06:51:33.000Z</time>
      </trkpt>
      <trkpt lat="42.52281476743519306182861328125" lon="1.1826729588210582733154296875">
        <ele>900.20001220703125</ele>
        <time>2020-08-13T06:51:36.000Z</time>
      </trkpt>
      <trkpt lat="42.52278291620314121246337890625" lon="1.18259592913091182708740234375">
        <ele>900.79998779296875</ele>
        <time>2020-08-13T06:51:40.000Z</time>
      </trkpt>
      <trkpt lat="42.5227265059947967529296875" lon="1.18248947896063327789306640625">
        <ele>901.4000244140625</ele>
        <time>2020-08-13T06:51:46.000Z</time>
      </trkpt>
      <trkpt lat="42.52267814241349697113037109375" lon="1.18243382312357425689697265625">
        <ele>902</ele>
        <time>2020-08-13T06:51:50.000Z</time>
      </trkpt>
      <trkpt lat="42.5226498953998088836669921875" lon="1.1824080906808376312255859375">
        <ele>902.4000244140625</ele>
        <time>2020-08-13T06:51:52.000Z</time>
      </trkpt>
      <trkpt lat="42.52251670695841312408447265625" lon="1.18230138905346393585205078125">
        <ele>903</ele>
        <time>2020-08-13T06:52:01.000Z</time>
      </trkpt>
      <trkpt lat="42.5225012004375457763671875" lon="1.182291246950626373291015625">
        <ele>903.20001220703125</ele>
        <time>2020-08-13T06:52:02.000Z</time>
      </trkpt>
      <trkpt lat="42.52239349298179149627685546875" lon="1.182239949703216552734375">
        <ele>903.79998779296875</ele>
        <time>2020-08-13T06:52:09.000Z</time>
      </trkpt>
      <trkpt lat="42.52236365340650081634521484375" lon="1.1822305619716644287109375">
        <ele>904.20001220703125</ele>
        <time>2020-08-13T06:52:11.000Z</time>
      </trkpt>
      <trkpt lat="42.5223099254071712493896484375" lon="1.18220617063343524932861328125">
        <ele>904.4000244140625</ele>
        <time>2020-08-13T06:52:15.000Z</time>
      </trkpt>
      <trkpt lat="42.5222143717110157012939453125" lon="1.1821891553699970245361328125">
        <ele>905.20001220703125</ele>
        <time>2020-08-13T06:52:22.000Z</time>
      </trkpt>
      <trkpt lat="42.52218511886894702911376953125" lon="1.18219770491123199462890625">
        <ele>905.20001220703125</ele>
        <time>2020-08-13T06:52:24.000Z</time>
      </trkpt>
      <trkpt lat="42.52215108834207057952880859375" lon="1.18220432661473751068115234375">
        <ele>905.4000244140625</ele>
        <time>2020-08-13T06:52:26.000Z</time>
      </trkpt>
      <trkpt lat="42.52213683910667896270751953125" lon="1.1822025664150714874267578125">
        <ele>905.4000244140625</ele>
        <time>2020-08-13T06:52:27.000Z</time>
      </trkpt>
      <trkpt lat="42.52207967452704906463623046875" lon="1.18223391473293304443359375">
        <ele>905.79998779296875</ele>
        <time>2020-08-13T06:52:32.000Z</time>
      </trkpt>
      <trkpt lat="42.52207271754741668701171875" lon="1.182238273322582244873046875">
        <ele>905.79998779296875</ele>
        <time>2020-08-13T06:52:33.000Z</time>
      </trkpt>
      <trkpt lat="42.52201613970100879669189453125" lon="1.18222679011523723602294921875">
        <ele>906.20001220703125</ele>
        <time>2020-08-13T06:52:37.000Z</time>
      </trkpt>
      <trkpt lat="42.5219994597136974334716796875" lon="1.182220838963985443115234375">
        <ele>906.20001220703125</ele>
        <time>2020-08-13T06:52:38.000Z</time>
      </trkpt>
      <trkpt lat="42.52196836285293102264404296875" lon="1.18220197968184947967529296875">
        <ele>906.4000244140625</ele>
        <time>2020-08-13T06:52:40.000Z</time>
      </trkpt>
      <trkpt lat="42.5219344161450862884521484375" lon="1.1821636743843555450439453125">
        <ele>907</ele>
        <time>2020-08-13T06:52:43.000Z</time>
      </trkpt>
      <trkpt lat="42.5219029001891613006591796875" lon="1.1821174062788486480712890625">
        <ele>907.20001220703125</ele>
        <time>2020-08-13T06:52:46.000Z</time>
      </trkpt>
      <trkpt lat="42.52187398262321949005126953125" lon="1.18206703104078769683837890625">
        <ele>907.4000244140625</ele>
        <time>2020-08-13T06:52:49.000Z</time>
      </trkpt>
      <trkpt lat="42.52180759795010089874267578125" lon="1.181965358555316925048828125">
        <ele>908.4000244140625</ele>
        <time>2020-08-13T06:52:55.000Z</time>
      </trkpt>
      <trkpt lat="42.52179586328566074371337890625" lon="1.18194867856800556182861328125">
        <ele>908.79998779296875</ele>
        <time>2020-08-13T06:52:56.000Z</time>
      </trkpt>
      <trkpt lat="42.5217340886592864990234375" lon="1.18181792087852954864501953125">
        <ele>909.20001220703125</ele>
        <time>2020-08-13T06:53:03.000Z</time>
      </trkpt>
      <trkpt lat="42.5216832943260669708251953125" lon="1.1817204393446445465087890625">
        <ele>909.5999755859375</ele>
        <time>2020-08-13T06:53:08.000Z</time>
      </trkpt>
      <trkpt lat="42.521663010120391845703125" lon="1.18167744018137454986572265625">
        <ele>910.4000244140625</ele>
        <time>2020-08-13T06:53:10.000Z</time>
      </trkpt>
      <trkpt lat="42.52161405980587005615234375" lon="1.1816131509840488433837890625">
        <ele>910.79998779296875</ele>
        <time>2020-08-13T06:53:14.000Z</time>
      </trkpt>
      <trkpt lat="42.521570138633251190185546875" lon="1.1815680563449859619140625">
        <ele>911.20001220703125</ele>
        <time>2020-08-13T06:53:17.000Z</time>
      </trkpt>
      <trkpt lat="42.52150635235011577606201171875" lon="1.18152321316301822662353515625">
        <ele>911.4000244140625</ele>
        <time>2020-08-13T06:53:21.000Z</time>
      </trkpt>
      <trkpt lat="42.52147500403225421905517578125" lon="1.18151508271694183349609375">
        <ele>911.5999755859375</ele>
        <time>2020-08-13T06:53:23.000Z</time>
      </trkpt>
      <trkpt lat="42.52144315280020236968994140625" lon="1.1815112270414829254150390625">
        <ele>911.79998779296875</ele>
        <time>2020-08-13T06:53:25.000Z</time>
      </trkpt>
      <trkpt lat="42.5213688053190708160400390625" lon="1.18151432834565639495849609375">
        <ele>912.4000244140625</ele>
        <time>2020-08-13T06:53:30.000Z</time>
      </trkpt>
      <trkpt lat="42.52130636014044284820556640625" lon="1.18152170442044734954833984375">
        <ele>913</ele>
        <time>2020-08-13T06:53:34.000Z</time>
      </trkpt>
      <trkpt lat="42.52124684862792491912841796875" lon="1.181527487933635711669921875">
        <ele>914</ele>
        <time>2020-08-13T06:53:38.000Z</time>
      </trkpt>
      <trkpt lat="42.5212102197110652923583984375" lon="1.18150812573730945587158203125">
        <ele>914.4000244140625</ele>
        <time>2020-08-13T06:53:40.000Z</time>
      </trkpt>
      <trkpt lat="42.52113754861056804656982421875" lon="1.1814381368458271026611328125">
        <ele>915.5999755859375</ele>
        <time>2020-08-13T06:53:45.000Z</time>
      </trkpt>
      <trkpt lat="42.521126903593540191650390625" lon="1.181422211229801177978515625">
        <ele>915.79998779296875</ele>
        <time>2020-08-13T06:53:46.000Z</time>
      </trkpt>
      <trkpt lat="42.52108407206833362579345703125" lon="1.18135591037571430206298828125">
        <ele>916.79998779296875</ele>
        <time>2020-08-13T06:53:50.000Z</time>
      </trkpt>
      <trkpt lat="42.5210449285805225372314453125" lon="1.18129556067287921905517578125">
        <ele>917</ele>
        <time>2020-08-13T06:53:54.000Z</time>
      </trkpt>
      <trkpt lat="42.5209959782660007476806640625" lon="1.1811615340411663055419921875">
        <ele>917.79998779296875</ele>
        <time>2020-08-13T06:54:01.000Z</time>
      </trkpt>
      <trkpt lat="42.52098700962960720062255859375" lon="1.18111275136470794677734375">
        <ele>918</ele>
        <time>2020-08-13T06:54:03.000Z</time>
      </trkpt>
      <trkpt lat="42.52093520946800708770751953125" lon="1.1809603683650493621826171875">
        <ele>919</ele>
        <time>2020-08-13T06:54:10.000Z</time>
      </trkpt>
      <trkpt lat="42.52091224305331707000732421875" lon="1.18089549243450164794921875">
        <ele>919.4000244140625</ele>
        <time>2020-08-13T06:54:13.000Z</time>
      </trkpt>
      <trkpt lat="42.5208860076963901519775390625" lon="1.1807843483984470367431640625">
        <ele>920</ele>
        <time>2020-08-13T06:54:18.000Z</time>
      </trkpt>
      <trkpt lat="42.5208682380616664886474609375" lon="1.18074554018676280975341796875">
        <ele>920.4000244140625</ele>
        <time>2020-08-13T06:54:20.000Z</time>
      </trkpt>
      <trkpt lat="42.52080277539789676666259765625" lon="1.18061729706823825836181640625">
        <ele>921</ele>
        <time>2020-08-13T06:54:27.000Z</time>
      </trkpt>
      <trkpt lat="42.52078316174447536468505859375" lon="1.18057773448526859283447265625">
        <ele>921.20001220703125</ele>
        <time>2020-08-13T06:54:29.000Z</time>
      </trkpt>
      <trkpt lat="42.5207143463194370269775390625" lon="1.1804517544806003570556640625">
        <ele>922</ele>
        <time>2020-08-13T06:54:36.000Z</time>
      </trkpt>
      <trkpt lat="42.5206912122666835784912109375" lon="1.18041998706758022308349609375">
        <ele>922.20001220703125</ele>
        <time>2020-08-13T06:54:38.000Z</time>
      </trkpt>
      <trkpt lat="42.5206174515187740325927734375" lon="1.1803233437240123748779296875">
        <ele>923</ele>
        <time>2020-08-13T06:54:44.000Z</time>
      </trkpt>
      <trkpt lat="42.52058987505733966827392578125" lon="1.18029761128127574920654296875">
        <ele>923.4000244140625</ele>
        <time>2020-08-13T06:54:46.000Z</time>
      </trkpt>
      <trkpt lat="42.5205088220536708831787109375" lon="1.1802217550575733184814453125">
        <ele>924.20001220703125</ele>
        <time>2020-08-13T06:54:52.000Z</time>
      </trkpt>
      <trkpt lat="42.52046431414783000946044921875" lon="1.18019434623420238494873046875">
        <ele>924.4000244140625</ele>
        <time>2020-08-13T06:54:55.000Z</time>
      </trkpt>
      <trkpt lat="42.52036825753748416900634765625" lon="1.1801443062722682952880859375">
        <ele>925.4000244140625</ele>
        <time>2020-08-13T06:55:01.000Z</time>
      </trkpt>
      <trkpt lat="42.520204223692417144775390625" lon="1.1800859682261943817138671875">
        <ele>926.4000244140625</ele>
        <time>2020-08-13T06:55:11.000Z</time>
      </trkpt>
      <trkpt lat="42.5201530940830707550048828125" lon="1.180079765617847442626953125">
        <ele>926.5999755859375</ele>
        <time>2020-08-13T06:55:14.000Z</time>
      </trkpt>
      <trkpt lat="42.52012685872614383697509765625" lon="1.18005721829831600189208984375">
        <ele>926.79998779296875</ele>
        <time>2020-08-13T06:55:16.000Z</time>
      </trkpt>
      <trkpt lat="42.52011747099459171295166015625" lon="1.1800390295684337615966796875">
        <ele>927</ele>
        <time>2020-08-13T06:55:17.000Z</time>
      </trkpt>
      <trkpt lat="42.52007589675486087799072265625" lon="1.1799947731196880340576171875">
        <ele>927.5999755859375</ele>
        <time>2020-08-13T06:55:20.000Z</time>
      </trkpt>
      <trkpt lat="42.52002141438424587249755859375" lon="1.17993869818747043609619140625">
        <ele>928.20001220703125</ele>
        <time>2020-08-13T06:55:24.000Z</time>
      </trkpt>
      <trkpt lat="42.5199425406754016876220703125" lon="1.17985085584223270416259765625">
        <ele>929</ele>
        <time>2020-08-13T06:55:30.000Z</time>
      </trkpt>
      <trkpt lat="42.5199160538613796234130859375" lon="1.17982394993305206298828125">
        <ele>929.20001220703125</ele>
        <time>2020-08-13T06:55:32.000Z</time>
      </trkpt>
      <trkpt lat="42.51984380185604095458984375" lon="1.17972646839916706085205078125">
        <ele>930.20001220703125</ele>
        <time>2020-08-13T06:55:38.000Z</time>
      </trkpt>
      <trkpt lat="42.51983173191547393798828125" lon="1.1797087825834751129150390625">
        <ele>930.20001220703125</ele>
        <time>2020-08-13T06:55:39.000Z</time>
      </trkpt>
      <trkpt lat="42.51972737722098827362060546875" lon="1.1795803718268871307373046875">
        <ele>931</ele>
        <time>2020-08-13T06:55:47.000Z</time>
      </trkpt>
      <trkpt lat="42.51969753764569759368896484375" lon="1.179554052650928497314453125">
        <ele>931.20001220703125</ele>
        <time>2020-08-13T06:55:49.000Z</time>
      </trkpt>
      <trkpt lat="42.51963031478226184844970703125" lon="1.17948272265493869781494140625">
        <ele>931.79998779296875</ele>
        <time>2020-08-13T06:55:54.000Z</time>
      </trkpt>
      <trkpt lat="42.51960047520697116851806640625" lon="1.1794549785554409027099609375">
        <ele>932.20001220703125</ele>
        <time>2020-08-13T06:55:56.000Z</time>
      </trkpt>
      <trkpt lat="42.51952839083969593048095703125" lon="1.17939035408198833465576171875">
        <ele>932.5999755859375</ele>
        <time>2020-08-13T06:56:01.000Z</time>
      </trkpt>
      <trkpt lat="42.5194835476577281951904296875" lon="1.179348863661289215087890625">
        <ele>933.20001220703125</ele>
        <time>2020-08-13T06:56:04.000Z</time>
      </trkpt>
      <trkpt lat="42.5194181688129901885986328125" lon="1.1792786233127117156982421875">
        <ele>933.5999755859375</ele>
        <time>2020-08-13T06:56:09.000Z</time>
      </trkpt>
      <trkpt lat="42.51939528621733188629150390625" lon="1.17925909347832202911376953125">
        <ele>933.79998779296875</ele>
        <time>2020-08-13T06:56:11.000Z</time>
      </trkpt>
      <trkpt lat="42.519377768039703369140625" lon="1.17925238795578479766845703125">
        <ele>934</ele>
        <time>2020-08-13T06:56:15.000Z</time>
      </trkpt>
      <trkpt lat="42.5193591602146625518798828125" lon="1.17924165911972522735595703125">
        <ele>934.4000244140625</ele>
        <time>2020-08-13T06:56:24.000Z</time>
      </trkpt>
      <trkpt lat="42.5193361937999725341796875" lon="1.1792243085801601409912109375">
        <ele>934.4000244140625</ele>
        <time>2020-08-13T06:56:26.000Z</time>
      </trkpt>
      <trkpt lat="42.51927156932651996612548828125" lon="1.179174520075321197509765625">
        <ele>934.5999755859375</ele>
        <time>2020-08-13T06:56:31.000Z</time>
      </trkpt>
      <trkpt lat="42.51915673725306987762451171875" lon="1.17911961860954761505126953125">
        <ele>935</ele>
        <time>2020-08-13T06:56:39.000Z</time>
      </trkpt>
      <trkpt lat="42.51904844306409358978271484375" lon="1.1791129969060420989990234375">
        <ele>935.20001220703125</ele>
        <time>2020-08-13T06:56:46.000Z</time>
      </trkpt>
      <trkpt lat="42.51898356713354587554931640625" lon="1.179124228656291961669921875">
        <ele>935.5999755859375</ele>
        <time>2020-08-13T06:56:50.000Z</time>
      </trkpt>
      <trkpt lat="42.51890578307211399078369140625" lon="1.1791565828025341033935546875">
        <ele>935.79998779296875</ele>
        <time>2020-08-13T06:56:55.000Z</time>
      </trkpt>
      <trkpt lat="42.5187673978507518768310546875" lon="1.17917913012206554412841796875">
        <ele>936.5999755859375</ele>
        <time>2020-08-13T06:57:04.000Z</time>
      </trkpt>
      <trkpt lat="42.51864829100668430328369140625" lon="1.17911241017282009124755859375">
        <ele>937.20001220703125</ele>
        <time>2020-08-13T06:57:11.000Z</time>
      </trkpt>
      <trkpt lat="42.51857888884842395782470703125" lon="1.17904007434844970703125">
        <ele>937.5999755859375</ele>
        <time>2020-08-13T06:57:16.000Z</time>
      </trkpt>
      <trkpt lat="42.51856765709817409515380859375" lon="1.17899875156581401824951171875">
        <ele>938.20001220703125</ele>
        <time>2020-08-13T06:57:18.000Z</time>
      </trkpt>
      <trkpt lat="42.51851283945143222808837890625" lon="1.17888693697750568389892578125">
        <ele>939</ele>
        <time>2020-08-13T06:57:24.000Z</time>
      </trkpt>
      <trkpt lat="42.518433965742588043212890625" lon="1.17877654731273651123046875">
        <ele>939.79998779296875</ele>
        <time>2020-08-13T06:57:31.000Z</time>
      </trkpt>
      <trkpt lat="42.51840773038566112518310546875" lon="1.17874796502292156219482421875">
        <ele>940</ele>
        <time>2020-08-13T06:57:33.000Z</time>
      </trkpt>
      <trkpt lat="42.51834444701671600341796875" lon="1.178678981959819793701171875">
        <ele>940.5999755859375</ele>
        <time>2020-08-13T06:57:38.000Z</time>
      </trkpt>
      <trkpt lat="42.51830178312957286834716796875" lon="1.1786439456045627593994140625">
        <ele>941</ele>
        <time>2020-08-13T06:57:41.000Z</time>
      </trkpt>
      <trkpt lat="42.51825165934860706329345703125" lon="1.1786181293427944183349609375">
        <ele>941.4000244140625</ele>
        <time>2020-08-13T06:57:44.000Z</time>
      </trkpt>
      <trkpt lat="42.51823707483708858489990234375" lon="1.1786154471337795257568359375">
        <ele>941.5999755859375</ele>
        <time>2020-08-13T06:57:45.000Z</time>
      </trkpt>
      <trkpt lat="42.51818024553358554840087890625" lon="1.17858451791107654571533203125">
        <ele>942</ele>
        <time>2020-08-13T06:57:49.000Z</time>
      </trkpt>
      <trkpt lat="42.51810849644243717193603515625" lon="1.17857613600790500640869140625">
        <ele>942.5999755859375</ele>
        <time>2020-08-13T06:57:54.000Z</time>
      </trkpt>
      <trkpt lat="42.51804764382541179656982421875" lon="1.17859709076583385467529296875">
        <ele>943</ele>
        <time>2020-08-13T06:57:58.000Z</time>
      </trkpt>
      <trkpt lat="42.5180230848491191864013671875" lon="1.17861519567668437957763671875">
        <ele>943.20001220703125</ele>
        <time>2020-08-13T06:58:00.000Z</time>
      </trkpt>
      <trkpt lat="42.51800975762307643890380859375" lon="1.1786204762756824493408203125">
        <ele>943.4000244140625</ele>
        <time>2020-08-13T06:58:01.000Z</time>
      </trkpt>
      <trkpt lat="42.51790992915630340576171875" lon="1.17860329337418079376220703125">
        <ele>944.20001220703125</ele>
        <time>2020-08-13T06:58:07.000Z</time>
      </trkpt>
      <trkpt lat="42.517876736819744110107421875" lon="1.1785990186035633087158203125">
        <ele>944.20001220703125</ele>
        <time>2020-08-13T06:58:09.000Z</time>
      </trkpt>
      <trkpt lat="42.5177904032170772552490234375" lon="1.1785762198269367218017578125">
        <ele>945</ele>
        <time>2020-08-13T06:58:14.000Z</time>
      </trkpt>
      <trkpt lat="42.51775695942342281341552734375" lon="1.1785778962075710296630859375">
        <ele>945.4000244140625</ele>
        <time>2020-08-13T06:58:16.000Z</time>
      </trkpt>
      <trkpt lat="42.51767716370522975921630859375" lon="1.1785532534122467041015625">
        <ele>946</ele>
        <time>2020-08-13T06:58:21.000Z</time>
      </trkpt>
      <trkpt lat="42.5176036544144153594970703125" lon="1.1785058118402957916259765625">
        <ele>946.5999755859375</ele>
        <time>2020-08-13T06:58:26.000Z</time>
      </trkpt>
      <trkpt lat="42.51748790033161640167236328125" lon="1.1784491501748561859130859375">
        <ele>947.4000244140625</ele>
        <time>2020-08-13T06:58:33.000Z</time>
      </trkpt>
      <trkpt lat="42.5174591504037380218505859375" lon="1.1784231662750244140625">
        <ele>947.5999755859375</ele>
        <time>2020-08-13T06:58:35.000Z</time>
      </trkpt>
      <trkpt lat="42.517399303615093231201171875" lon="1.178388297557830810546875">
        <ele>948</ele>
        <time>2020-08-13T06:58:39.000Z</time>
      </trkpt>
      <trkpt lat="42.517359070479869842529296875" lon="1.1783574521541595458984375">
        <ele>948.5999755859375</ele>
        <time>2020-08-13T06:58:42.000Z</time>
      </trkpt>
      <trkpt lat="42.51734373159706592559814453125" lon="1.17834479548037052154541015625">
        <ele>948.79998779296875</ele>
        <time>2020-08-13T06:58:43.000Z</time>
      </trkpt>
      <trkpt lat="42.51730785705149173736572265625" lon="1.1782965995371341705322265625">
        <ele>949</ele>
        <time>2020-08-13T06:58:46.000Z</time>
      </trkpt>
      <trkpt lat="42.51724884845316410064697265625" lon="1.178234405815601348876953125">
        <ele>949.5999755859375</ele>
        <time>2020-08-13T06:58:51.000Z</time>
      </trkpt>
      <trkpt lat="42.5172117166221141815185546875" lon="1.17818520404398441314697265625">
        <ele>950.4000244140625</ele>
        <time>2020-08-13T06:58:54.000Z</time>
      </trkpt>
      <trkpt lat="42.517189085483551025390625" lon="1.178145892918109893798828125">
        <ele>950.5999755859375</ele>
        <time>2020-08-13T06:58:56.000Z</time>
      </trkpt>
      <trkpt lat="42.517163939774036407470703125" lon="1.178111024200916290283203125">
        <ele>951</ele>
        <time>2020-08-13T06:58:58.000Z</time>
      </trkpt>
      <trkpt lat="42.517141811549663543701171875" lon="1.17807003669440746307373046875">
        <ele>951.4000244140625</ele>
        <time>2020-08-13T06:59:00.000Z</time>
      </trkpt>
      <trkpt lat="42.517111636698246002197265625" lon="1.1780116148293018341064453125">
        <ele>952</ele>
        <time>2020-08-13T06:59:03.000Z</time>
      </trkpt>
      <trkpt lat="42.51705053262412548065185546875" lon="1.17793860845267772674560546875">
        <ele>952.5999755859375</ele>
        <time>2020-08-13T06:59:08.000Z</time>
      </trkpt>
      <trkpt lat="42.51700066030025482177734375" lon="1.17787993513047695159912109375">
        <ele>953.20001220703125</ele>
        <time>2020-08-13T06:59:12.000Z</time>
      </trkpt>
      <trkpt lat="42.5169404782354831695556640625" lon="1.17778589017689228057861328125">
        <ele>954.20001220703125</ele>
        <time>2020-08-13T06:59:18.000Z</time>
      </trkpt>
      <trkpt lat="42.5169082917273044586181640625" lon="1.17774096317589282989501953125">
        <ele>954.5999755859375</ele>
        <time>2020-08-13T06:59:21.000Z</time>
      </trkpt>
      <trkpt lat="42.51687451265752315521240234375" lon="1.17769469507038593292236328125">
        <ele>955</ele>
        <time>2020-08-13T06:59:24.000Z</time>
      </trkpt>
      <trkpt lat="42.51683914102613925933837890625" lon="1.177647002041339874267578125">
        <ele>955.5999755859375</ele>
        <time>2020-08-13T06:59:27.000Z</time>
      </trkpt>
      <trkpt lat="42.51681550405919551849365234375" lon="1.1776216886937618255615234375">
        <ele>955.79998779296875</ele>
        <time>2020-08-13T06:59:29.000Z</time>
      </trkpt>
      <trkpt lat="42.516761608421802520751953125" lon="1.177539043128490447998046875">
        <ele>956.5999755859375</ele>
        <time>2020-08-13T06:59:34.000Z</time>
      </trkpt>
      <trkpt lat="42.51673587597906589508056640625" lon="1.17749202065169811248779296875">
        <ele>957</ele>
        <time>2020-08-13T06:59:37.000Z</time>
      </trkpt>
      <trkpt lat="42.51669078134000301361083984375" lon="1.17740191519260406494140625">
        <ele>957.79998779296875</ele>
        <time>2020-08-13T06:59:42.000Z</time>
      </trkpt>
      <trkpt lat="42.5166685692965984344482421875" lon="1.1773719079792499542236328125">
        <ele>958.4000244140625</ele>
        <time>2020-08-13T06:59:44.000Z</time>
      </trkpt>
      <trkpt lat="42.51660109497606754302978515625" lon="1.177296303212642669677734375">
        <ele>958.5999755859375</ele>
        <time>2020-08-13T06:59:49.000Z</time>
      </trkpt>
      <trkpt lat="42.51659405417740345001220703125" lon="1.17727987468242645263671875">
        <ele>958.79998779296875</ele>
        <time>2020-08-13T06:59:50.000Z</time>
      </trkpt>
      <trkpt lat="42.5165869295597076416015625" lon="1.1772604286670684814453125">
        <ele>959</ele>
        <time>2020-08-13T06:59:51.000Z</time>
      </trkpt>
      <trkpt lat="42.51656924374401569366455078125" lon="1.1772217042744159698486328125">
        <ele>959.4000244140625</ele>
        <time>2020-08-13T06:59:53.000Z</time>
      </trkpt>
      <trkpt lat="42.5165254063904285430908203125" lon="1.17715439759194850921630859375">
        <ele>960</ele>
        <time>2020-08-13T06:59:57.000Z</time>
      </trkpt>
      <trkpt lat="42.51649045385420322418212890625" lon="1.17711047641932964324951171875">
        <ele>960.79998779296875</ele>
        <time>2020-08-13T07:00:00.000Z</time>
      </trkpt>
      <trkpt lat="42.51645944081246852874755859375" lon="1.1770634539425373077392578125">
        <ele>961.20001220703125</ele>
        <time>2020-08-13T07:00:03.000Z</time>
      </trkpt>
      <trkpt lat="42.5164482928812503814697265625" lon="1.17704912088811397552490234375">
        <ele>961.5999755859375</ele>
        <time>2020-08-13T07:00:04.000Z</time>
      </trkpt>
      <trkpt lat="42.51638014800846576690673828125" lon="1.17698340676724910736083984375">
        <ele>962</ele>
        <time>2020-08-13T07:00:09.000Z</time>
      </trkpt>
      <trkpt lat="42.5163151882588863372802734375" lon="1.17692255415022373199462890625">
        <ele>962.79998779296875</ele>
        <time>2020-08-13T07:00:14.000Z</time>
      </trkpt>
      <trkpt lat="42.51628107391297817230224609375" lon="1.17688022553920745849609375">
        <ele>963.20001220703125</ele>
        <time>2020-08-13T07:00:17.000Z</time>
      </trkpt>
      <trkpt lat="42.51621385104954242706298828125" lon="1.176820881664752960205078125">
        <ele>964</ele>
        <time>2020-08-13T07:00:22.000Z</time>
      </trkpt>
      <trkpt lat="42.516201026737689971923828125" lon="1.1768069677054882049560546875">
        <ele>964.20001220703125</ele>
        <time>2020-08-13T07:00:23.000Z</time>
      </trkpt>
      <trkpt lat="42.51614034175872802734375" lon="1.17673899047076702117919921875">
        <ele>965</ele>
        <time>2020-08-13T07:00:28.000Z</time>
      </trkpt>
      <trkpt lat="42.51611578278243541717529296875" lon="1.176715604960918426513671875">
        <ele>965.4000244140625</ele>
        <time>2020-08-13T07:00:30.000Z</time>
      </trkpt>
      <trkpt lat="42.51605861820280551910400390625" lon="1.17664343677461147308349609375">
        <ele>966.4000244140625</ele>
        <time>2020-08-13T07:00:35.000Z</time>
      </trkpt>
      <trkpt lat="42.5160161219537258148193359375" lon="1.17660840041935443878173828125">
        <ele>967</ele>
        <time>2020-08-13T07:00:38.000Z</time>
      </trkpt>
      <trkpt lat="42.51597144640982151031494140625" lon="1.17658074013888835906982421875">
        <ele>967.4000244140625</ele>
        <time>2020-08-13T07:00:41.000Z</time>
      </trkpt>
      <trkpt lat="42.51591168344020843505859375" lon="1.1765172891318798065185546875">
        <ele>968.20001220703125</ele>
        <time>2020-08-13T07:00:46.000Z</time>
      </trkpt>
      <trkpt lat="42.5158883817493915557861328125" lon="1.17649264633655548095703125">
        <ele>968.4000244140625</ele>
        <time>2020-08-13T07:00:48.000Z</time>
      </trkpt>
      <trkpt lat="42.51586231403052806854248046875" lon="1.17647118866443634033203125">
        <ele>968.79998779296875</ele>
        <time>2020-08-13T07:00:50.000Z</time>
      </trkpt>
      <trkpt lat="42.5158176384866237640380859375" lon="1.176450736820697784423828125">
        <ele>969.20001220703125</ele>
        <time>2020-08-13T07:00:53.000Z</time>
      </trkpt>
      <trkpt lat="42.515808083117008209228515625" lon="1.17643740959465503692626953125">
        <ele>969.5999755859375</ele>
        <time>2020-08-13T07:00:54.000Z</time>
      </trkpt>
      <trkpt lat="42.51576106064021587371826171875" lon="1.176372282207012176513671875">
        <ele>970.20001220703125</ele>
        <time>2020-08-13T07:00:59.000Z</time>
      </trkpt>
      <trkpt lat="42.51572870649397373199462890625" lon="1.17632106877863407135009765625">
        <ele>970.5999755859375</ele>
        <time>2020-08-13T07:01:03.000Z</time>
      </trkpt>
      <trkpt lat="42.51569618470966815948486328125" lon="1.17625149898231029510498046875">
        <ele>970.79998779296875</ele>
        <time>2020-08-13T07:01:07.000Z</time>
      </trkpt>
      <trkpt lat="42.51563482917845249176025390625" lon="1.17616944015026092529296875">
        <ele>971.20001220703125</ele>
        <time>2020-08-13T07:01:14.000Z</time>
      </trkpt>
      <trkpt lat="42.51557347364723682403564453125" lon="1.1760814301669597625732421875">
        <ele>971.4000244140625</ele>
        <time>2020-08-13T07:01:21.000Z</time>
      </trkpt>
      <trkpt lat="42.5154659338295459747314453125" lon="1.17598193697631359100341796875">
        <ele>971.5999755859375</ele>
        <time>2020-08-13T07:01:30.000Z</time>
      </trkpt>
      <trkpt lat="42.51545394770801067352294921875" lon="1.175970621407032012939453125">
        <ele>971.5999755859375</ele>
        <time>2020-08-13T07:01:31.000Z</time>
      </trkpt>
      <trkpt lat="42.5153410434722900390625" lon="1.17590767331421375274658203125">
        <ele>972</ele>
        <time>2020-08-13T07:01:39.000Z</time>
      </trkpt>
      <trkpt lat="42.5152832083404064178466796875" lon="1.1758695356547832489013671875">
        <ele>972.20001220703125</ele>
        <time>2020-08-13T07:01:45.000Z</time>
      </trkpt>
      <trkpt lat="42.515238113701343536376953125" lon="1.17583952844142913818359375">
        <ele>972.5999755859375</ele>
        <time>2020-08-13T07:01:51.000Z</time>
      </trkpt>
      <trkpt lat="42.51522260718047618865966796875" lon="1.1758286319673061370849609375">
        <ele>972.79998779296875</ele>
        <time>2020-08-13T07:01:53.000Z</time>
      </trkpt>
      <trkpt lat="42.51514054834842681884765625" lon="1.17577021010220050811767578125">
        <ele>973.20001220703125</ele>
        <time>2020-08-13T07:02:00.000Z</time>
      </trkpt>
      <trkpt lat="42.515099309384822845458984375" lon="1.1757434718310832977294921875">
        <ele>973.4000244140625</ele>
        <time>2020-08-13T07:02:03.000Z</time>
      </trkpt>
      <trkpt lat="42.5150652788579463958740234375" lon="1.17570667527616024017333984375">
        <ele>973.79998779296875</ele>
        <time>2020-08-13T07:02:06.000Z</time>
      </trkpt>
      <trkpt lat="42.5150528736412525177001953125" lon="1.17569359950721263885498046875">
        <ele>974</ele>
        <time>2020-08-13T07:02:07.000Z</time>
      </trkpt>
      <trkpt lat="42.51494608819484710693359375" lon="1.17555999197065830230712890625">
        <ele>974.79998779296875</ele>
        <time>2020-08-13T07:02:16.000Z</time>
      </trkpt>
      <trkpt lat="42.51493443734943866729736328125" lon="1.17554490454494953155517578125">
        <ele>975</ele>
        <time>2020-08-13T07:02:17.000Z</time>
      </trkpt>
      <trkpt lat="42.51485413871705532073974609375" lon="1.17543929256498813629150390625">
        <ele>976</ele>
        <time>2020-08-13T07:02:24.000Z</time>
      </trkpt>
      <trkpt lat="42.514741905033588409423828125" lon="1.17536150850355625152587890625">
        <ele>976.79998779296875</ele>
        <time>2020-08-13T07:02:32.000Z</time>
      </trkpt>
      <trkpt lat="42.51471533440053462982177734375" lon="1.17534843273460865020751953125">
        <ele>977</ele>
        <time>2020-08-13T07:02:34.000Z</time>
      </trkpt>
      <trkpt lat="42.51468029804527759552001953125" lon="1.17532026953995227813720703125">
        <ele>977.4000244140625</ele>
        <time>2020-08-13T07:02:37.000Z</time>
      </trkpt>
      <trkpt lat="42.5146428309381008148193359375" lon="1.17529294453561305999755859375">
        <ele>978</ele>
        <time>2020-08-13T07:02:40.000Z</time>
      </trkpt>
      <trkpt lat="42.51462833024561405181884765625" lon="1.175287663936614990234375">
        <ele>978.20001220703125</ele>
        <time>2020-08-13T07:02:41.000Z</time>
      </trkpt>
      <trkpt lat="42.51458340324461460113525390625" lon="1.17526243440806865692138671875">
        <ele>978.79998779296875</ele>
        <time>2020-08-13T07:02:44.000Z</time>
      </trkpt>
      <trkpt lat="42.5145124085247516632080078125" lon="1.17516721598803997039794921875">
        <ele>979.4000244140625</ele>
        <time>2020-08-13T07:02:50.000Z</time>
      </trkpt>
      <trkpt lat="42.51449882984161376953125" lon="1.1751540564000606536865234375">
        <ele>979.5999755859375</ele>
        <time>2020-08-13T07:02:51.000Z</time>
      </trkpt>
      <trkpt lat="42.51441509462893009185791015625" lon="1.1750977300107479095458984375">
        <ele>980.4000244140625</ele>
        <time>2020-08-13T07:02:57.000Z</time>
      </trkpt>
      <trkpt lat="42.514375112950801849365234375" lon="1.1750655435025691986083984375">
        <ele>981</ele>
        <time>2020-08-13T07:03:00.000Z</time>
      </trkpt>
      <trkpt lat="42.51433479599654674530029296875" lon="1.1750273220241069793701171875">
        <ele>981.4000244140625</ele>
        <time>2020-08-13T07:03:03.000Z</time>
      </trkpt>
      <trkpt lat="42.5142482109367847442626953125" lon="1.1749280802905559539794921875">
        <ele>982.5999755859375</ele>
        <time>2020-08-13T07:03:10.000Z</time>
      </trkpt>
      <trkpt lat="42.51414922066032886505126953125" lon="1.17486982606351375579833984375">
        <ele>983.5999755859375</ele>
        <time>2020-08-13T07:03:17.000Z</time>
      </trkpt>
      <trkpt lat="42.51413798891007900238037109375" lon="1.17485976777970790863037109375">
        <ele>983.79998779296875</ele>
        <time>2020-08-13T07:03:18.000Z</time>
      </trkpt>
      <trkpt lat="42.5140685029327869415283203125" lon="1.17478768341243267059326171875">
        <ele>984.5999755859375</ele>
        <time>2020-08-13T07:03:24.000Z</time>
      </trkpt>
      <trkpt lat="42.5140403397381305694580078125" lon="1.174778379499912261962890625">
        <ele>985</ele>
        <time>2020-08-13T07:03:26.000Z</time>
      </trkpt>
      <trkpt lat="42.5139907188713550567626953125" lon="1.17473705671727657318115234375">
        <ele>985.4000244140625</ele>
        <time>2020-08-13T07:03:30.000Z</time>
      </trkpt>
      <trkpt lat="42.51398359425365924835205078125" lon="1.17471928708255290985107421875">
        <ele>985.5999755859375</ele>
        <time>2020-08-13T07:03:31.000Z</time>
      </trkpt>
      <trkpt lat="42.51394989900290966033935546875" lon="1.174679137766361236572265625">
        <ele>986</ele>
        <time>2020-08-13T07:03:34.000Z</time>
      </trkpt>
      <trkpt lat="42.5139072351157665252685546875" lon="1.17464921437203884124755859375">
        <ele>986.20001220703125</ele>
        <time>2020-08-13T07:03:37.000Z</time>
      </trkpt>
      <trkpt lat="42.5138639844954013824462890625" lon="1.174632199108600616455078125">
        <ele>986.5999755859375</ele>
        <time>2020-08-13T07:03:40.000Z</time>
      </trkpt>
      <trkpt lat="42.513821236789226531982421875" lon="1.17461015470325946807861328125">
        <ele>987.20001220703125</ele>
        <time>2020-08-13T07:03:43.000Z</time>
      </trkpt>
      <trkpt lat="42.513808496296405792236328125" lon="1.17459590546786785125732421875">
        <ele>987.20001220703125</ele>
        <time>2020-08-13T07:03:44.000Z</time>
      </trkpt>
      <trkpt lat="42.51372224651277065277099609375" lon="1.1745495535433292388916015625">
        <ele>988.20001220703125</ele>
        <time>2020-08-13T07:03:50.000Z</time>
      </trkpt>
      <trkpt lat="42.5136909820139408111572265625" lon="1.1745418421924114227294921875">
        <ele>988.4000244140625</ele>
        <time>2020-08-13T07:03:52.000Z</time>
      </trkpt>
      <trkpt lat="42.51362669281661510467529296875" lon="1.1745435185730457305908203125">
        <ele>988.79998779296875</ele>
        <time>2020-08-13T07:03:56.000Z</time>
      </trkpt>
      <trkpt lat="42.51356475055217742919921875" lon="1.1745455302298069000244140625">
        <ele>989.5999755859375</ele>
        <time>2020-08-13T07:04:00.000Z</time>
      </trkpt>
      <trkpt lat="42.51348772086203098297119140625" lon="1.17454544641077518463134765625">
        <ele>990</ele>
        <time>2020-08-13T07:04:05.000Z</time>
      </trkpt>
      <trkpt lat="42.51344162039458751678466796875" lon="1.17455114610493183135986328125">
        <ele>990.79998779296875</ele>
        <time>2020-08-13T07:04:08.000Z</time>
      </trkpt>
      <trkpt lat="42.51341278664767742156982421875" lon="1.17454729042947292327880859375">
        <ele>991.20001220703125</ele>
        <time>2020-08-13T07:04:10.000Z</time>
      </trkpt>
      <trkpt lat="42.51338344998657703399658203125" lon="1.1745378188788890838623046875">
        <ele>991.4000244140625</ele>
        <time>2020-08-13T07:04:12.000Z</time>
      </trkpt>
      <trkpt lat="42.5133218429982662200927734375" lon="1.17452164180576801300048828125">
        <ele>991.79998779296875</ele>
        <time>2020-08-13T07:04:16.000Z</time>
      </trkpt>
      <trkpt lat="42.51324615441262722015380859375" lon="1.17447285912930965423583984375">
        <ele>992.4000244140625</ele>
        <time>2020-08-13T07:04:21.000Z</time>
      </trkpt>
      <trkpt lat="42.513219751417636871337890625" lon="1.17444586940109729766845703125">
        <ele>992.79998779296875</ele>
        <time>2020-08-13T07:04:23.000Z</time>
      </trkpt>
      <trkpt lat="42.51318253576755523681640625" lon="1.1743574403226375579833984375">
        <ele>993.4000244140625</ele>
        <time>2020-08-13T07:04:28.000Z</time>
      </trkpt>
      <trkpt lat="42.5131384469568729400634765625" lon="1.17428761906921863555908203125">
        <ele>994</ele>
        <time>2020-08-13T07:04:32.000Z</time>
      </trkpt>
      <trkpt lat="42.51307918690145015716552734375" lon="1.17420463822782039642333984375">
        <ele>994.4000244140625</ele>
        <time>2020-08-13T07:04:37.000Z</time>
      </trkpt>
      <trkpt lat="42.51302738673985004425048828125" lon="1.1741168797016143798828125">
        <ele>995</ele>
        <time>2020-08-13T07:04:42.000Z</time>
      </trkpt>
      <trkpt lat="42.5130034983158111572265625" lon="1.1740845255553722381591796875">
        <ele>995.4000244140625</ele>
        <time>2020-08-13T07:04:44.000Z</time>
      </trkpt>
      <trkpt lat="42.512952871620655059814453125" lon="1.17402476258575916290283203125">
        <ele>996</ele>
        <time>2020-08-13T07:04:48.000Z</time>
      </trkpt>
      <trkpt lat="42.5129282288253307342529296875" lon="1.1739889718592166900634765625">
        <ele>996.20001220703125</ele>
        <time>2020-08-13T07:04:50.000Z</time>
      </trkpt>
      <trkpt lat="42.51286226324737071990966796875" lon="1.1738451384007930755615234375">
        <ele>997.20001220703125</ele>
        <time>2020-08-13T07:04:57.000Z</time>
      </trkpt>
      <trkpt lat="42.51275740563869476318359375" lon="1.173698790371417999267578125">
        <ele>998</ele>
        <time>2020-08-13T07:05:05.000Z</time>
      </trkpt>
      <trkpt lat="42.51273150555789470672607421875" lon="1.173662580549716949462890625">
        <ele>998.4000244140625</ele>
        <time>2020-08-13T07:05:07.000Z</time>
      </trkpt>
      <trkpt lat="42.51267165876924991607666015625" lon="1.1734961159527301788330078125">
        <ele>998.5999755859375</ele>
        <time>2020-08-13T07:05:14.000Z</time>
      </trkpt>
      <trkpt lat="42.51263293437659740447998046875" lon="1.17328665219247341156005859375">
        <ele>998.79998779296875</ele>
        <time>2020-08-13T07:05:21.000Z</time>
      </trkpt>
      <trkpt lat="42.51251374371349811553955078125" lon="1.1731192655861377716064453125">
        <ele>998.5999755859375</ele>
        <time>2020-08-13T07:05:27.000Z</time>
      </trkpt>
      <trkpt lat="42.51247166655957698822021484375" lon="1.17299429140985012054443359375">
        <ele>998.79998779296875</ele>
        <time>2020-08-13T07:05:32.000Z</time>
      </trkpt>
      <trkpt lat="42.51251022331416606903076171875" lon="1.1729010008275508880615234375">
        <ele>999.4000244140625</ele>
        <time>2020-08-13T07:05:36.000Z</time>
      </trkpt>
      <trkpt lat="42.51253318972885608673095703125" lon="1.17286168970167636871337890625">
        <ele>999.79998779296875</ele>
        <time>2020-08-13T07:05:38.000Z</time>
      </trkpt>
      <trkpt lat="42.5125634483993053436279296875" lon="1.17277787066996097564697265625">
        <ele>1000.5999755859375</ele>
        <time>2020-08-13T07:05:42.000Z</time>
      </trkpt>
      <trkpt lat="42.5125761888921260833740234375" lon="1.1727370508015155792236328125">
        <ele>1001</ele>
        <time>2020-08-13T07:05:44.000Z</time>
      </trkpt>
      <trkpt lat="42.51258264295756816864013671875" lon="1.17265482433140277862548828125">
        <ele>1001.5999755859375</ele>
        <time>2020-08-13T07:05:48.000Z</time>
      </trkpt>
      <trkpt lat="42.5125755183398723602294921875" lon="1.17263772524893283843994140625">
        <ele>1001.79998779296875</ele>
        <time>2020-08-13T07:05:49.000Z</time>
      </trkpt>
      <trkpt lat="42.51256302930414676666259765625" lon="1.1726247332990169525146484375">
        <ele>1002</ele>
        <time>2020-08-13T07:05:50.000Z</time>
      </trkpt>
      <trkpt lat="42.51251039095222949981689453125" lon="1.172610484063625335693359375">
        <ele>1002.5999755859375</ele>
        <time>2020-08-13T07:05:53.000Z</time>
      </trkpt>
      <trkpt lat="42.51249161548912525177001953125" lon="1.17261040024459362030029296875">
        <ele>1002.79998779296875</ele>
        <time>2020-08-13T07:05:54.000Z</time>
      </trkpt>
      <trkpt lat="42.51245833933353424072265625" lon="1.1726103164255619049072265625">
        <ele>1003.20001220703125</ele>
        <time>2020-08-13T07:05:56.000Z</time>
      </trkpt>
      <trkpt lat="42.51243260689079761505126953125" lon="1.17262833751738071441650390625">
        <ele>1003.5999755859375</ele>
        <time>2020-08-13T07:05:58.000Z</time>
      </trkpt>
      <trkpt lat="42.51241810619831085205078125" lon="1.17266722954809665679931640625">
        <ele>1004.20001220703125</ele>
        <time>2020-08-13T07:06:00.000Z</time>
      </trkpt>
      <trkpt lat="42.5124108977615833282470703125" lon="1.172684915363788604736328125">
        <ele>1004.4000244140625</ele>
        <time>2020-08-13T07:06:01.000Z</time>
      </trkpt>
      <trkpt lat="42.51237812452018260955810546875" lon="1.1728004179894924163818359375">
        <ele>1005.20001220703125</ele>
        <time>2020-08-13T07:06:07.000Z</time>
      </trkpt>
      <trkpt lat="42.5123686529695987701416015625" lon="1.1728389747440814971923828125">
        <ele>1005.4000244140625</ele>
        <time>2020-08-13T07:06:09.000Z</time>
      </trkpt>
      <trkpt lat="42.5123354606330394744873046875" lon="1.172916926443576812744140625">
        <ele>1005.79998779296875</ele>
        <time>2020-08-13T07:06:13.000Z</time>
      </trkpt>
      <trkpt lat="42.5123304314911365509033203125" lon="1.172939054667949676513671875">
        <ele>1006</ele>
        <time>2020-08-13T07:06:14.000Z</time>
      </trkpt>
      <trkpt lat="42.51231609843671321868896484375" lon="1.1729767732322216033935546875">
        <ele>1006.4000244140625</ele>
        <time>2020-08-13T07:06:16.000Z</time>
      </trkpt>
      <trkpt lat="42.5122912041842937469482421875" lon="1.1730589158833026885986328125">
        <ele>1006.79998779296875</ele>
        <time>2020-08-13T07:06:20.000Z</time>
      </trkpt>
      <trkpt lat="42.51223211176693439483642578125" lon="1.1731796152889728546142578125">
        <ele>1007.4000244140625</ele>
        <time>2020-08-13T07:06:26.000Z</time>
      </trkpt>
      <trkpt lat="42.5122231431305408477783203125" lon="1.17320165969431400299072265625">
        <ele>1007.5999755859375</ele>
        <time>2020-08-13T07:06:27.000Z</time>
      </trkpt>
      <trkpt lat="42.51216522417962551116943359375" lon="1.17334448732435703277587890625">
        <ele>1008.20001220703125</ele>
        <time>2020-08-13T07:06:34.000Z</time>
      </trkpt>
      <trkpt lat="42.5121483765542507171630859375" lon="1.17338773794472217559814453125">
        <ele>1008.5999755859375</ele>
        <time>2020-08-13T07:06:36.000Z</time>
      </trkpt>
      <trkpt lat="42.5120960734784603118896484375" lon="1.17351472377777099609375">
        <ele>1009.5999755859375</ele>
        <time>2020-08-13T07:06:42.000Z</time>
      </trkpt>
      <trkpt lat="42.51209012232720851898193359375" lon="1.1735594831407070159912109375">
        <ele>1009.79998779296875</ele>
        <time>2020-08-13T07:06:44.000Z</time>
      </trkpt>
      <trkpt lat="42.51209163106977939605712890625" lon="1.17367557249963283538818359375">
        <ele>1010.20001220703125</ele>
        <time>2020-08-13T07:06:49.000Z</time>
      </trkpt>
      <trkpt lat="42.51213270239531993865966796875" lon="1.173770539462566375732421875">
        <ele>1011</ele>
        <time>2020-08-13T07:06:54.000Z</time>
      </trkpt>
      <trkpt lat="42.51218617893755435943603515625" lon="1.1738823540508747100830078125">
        <ele>1012</ele>
        <time>2020-08-13T07:07:00.000Z</time>
      </trkpt>
      <trkpt lat="42.51219271682202816009521484375" lon="1.1739048175513744354248046875">
        <ele>1012</ele>
        <time>2020-08-13T07:07:01.000Z</time>
      </trkpt>
      <trkpt lat="42.51220696605741977691650390625" lon="1.1739490740001201629638671875">
        <ele>1012.4000244140625</ele>
        <time>2020-08-13T07:07:03.000Z</time>
      </trkpt>
      <trkpt lat="42.5122140906751155853271484375" lon="1.17401554249227046966552734375">
        <ele>1012.79998779296875</ele>
        <time>2020-08-13T07:07:06.000Z</time>
      </trkpt>
      <trkpt lat="42.51221199519932270050048828125" lon="1.17407522164285182952880859375">
        <ele>1013.4000244140625</ele>
        <time>2020-08-13T07:07:09.000Z</time>
      </trkpt>
      <trkpt lat="42.5122080557048320770263671875" lon="1.1741195619106292724609375">
        <ele>1013.5999755859375</ele>
        <time>2020-08-13T07:07:11.000Z</time>
      </trkpt>
      <trkpt lat="42.51219942234456539154052734375" lon="1.1741639859974384307861328125">
        <ele>1014</ele>
        <time>2020-08-13T07:07:13.000Z</time>
      </trkpt>
      <trkpt lat="42.51218634657561779022216796875" lon="1.17420949973165988922119140625">
        <ele>1014.4000244140625</ele>
        <time>2020-08-13T07:07:15.000Z</time>
      </trkpt>
      <trkpt lat="42.512176036834716796875" lon="1.17422961629927158355712890625">
        <ele>1014.5999755859375</ele>
        <time>2020-08-13T07:07:16.000Z</time>
      </trkpt>
      <trkpt lat="42.51211292110383510589599609375" lon="1.17434847168624401092529296875">
        <ele>1015.5999755859375</ele>
        <time>2020-08-13T07:07:22.000Z</time>
      </trkpt>
      <trkpt lat="42.51204821281135082244873046875" lon="1.174448467791080474853515625">
        <ele>1016.5999755859375</ele>
        <time>2020-08-13T07:07:27.000Z</time>
      </trkpt>
      <trkpt lat="42.512022815644741058349609375" lon="1.17448769509792327880859375">
        <ele>1016.79998779296875</ele>
        <time>2020-08-13T07:07:29.000Z</time>
      </trkpt>
      <trkpt lat="42.51200370490550994873046875" lon="1.1745287664234638214111328125">
        <ele>1017</ele>
        <time>2020-08-13T07:07:31.000Z</time>
      </trkpt>
      <trkpt lat="42.51199590973556041717529296875" lon="1.17456405423581600189208984375">
        <ele>1017.20001220703125</ele>
        <time>2020-08-13T07:07:33.000Z</time>
      </trkpt>
      <trkpt lat="42.51200077123939990997314453125" lon="1.1746249906718730926513671875">
        <ele>1017.5999755859375</ele>
        <time>2020-08-13T07:07:36.000Z</time>
      </trkpt>
      <trkpt lat="42.512007057666778564453125" lon="1.17465089075267314910888671875">
        <ele>1017.79998779296875</ele>
        <time>2020-08-13T07:07:37.000Z</time>
      </trkpt>
      <trkpt lat="42.51204284839332103729248046875" lon="1.1747168563306331634521484375">
        <ele>1018.20001220703125</ele>
        <time>2020-08-13T07:07:41.000Z</time>
      </trkpt>
      <trkpt lat="42.5121493823826313018798828125" lon="1.17480092681944370269775390625">
        <ele>1018.79998779296875</ele>
        <time>2020-08-13T07:07:46.000Z</time>
      </trkpt>
      <trkpt lat="42.5122020207345485687255859375" lon="1.17480897344648838043212890625">
        <ele>1019.20001220703125</ele>
        <time>2020-08-13T07:07:48.000Z</time>
      </trkpt>
      <trkpt lat="42.51228265464305877685546875" lon="1.1748184449970722198486328125">
        <ele>1019.79998779296875</ele>
        <time>2020-08-13T07:07:51.000Z</time>
      </trkpt>
      <trkpt lat="42.51244132407009601593017578125" lon="1.17485675029456615447998046875">
        <ele>1020.4000244140625</ele>
        <time>2020-08-13T07:07:55.000Z</time>
      </trkpt>
      <trkpt lat="42.5124616920948028564453125" lon="1.17485825903713703155517578125">
        <ele>1020.5999755859375</ele>
        <time>2020-08-13T07:07:56.000Z</time>
      </trkpt>
      <trkpt lat="42.51249228604137897491455078125" lon="1.17486161179840564727783203125">
        <ele>1021.20001220703125</ele>
        <time>2020-08-13T07:07:58.000Z</time>
      </trkpt>
      <trkpt lat="42.5125289149582386016845703125" lon="1.1748855002224445343017578125">
        <ele>1021.5999755859375</ele>
        <time>2020-08-13T07:08:00.000Z</time>
      </trkpt>
      <trkpt lat="42.51255129463970661163330078125" lon="1.17488742806017398834228515625">
        <ele>1021.79998779296875</ele>
        <time>2020-08-13T07:08:02.000Z</time>
      </trkpt>
      <trkpt lat="42.5125944614410400390625" lon="1.17494174279272556304931640625">
        <ele>1022.5999755859375</ele>
        <time>2020-08-13T07:08:07.000Z</time>
      </trkpt>
      <trkpt lat="42.51260058023035526275634765625" lon="1.17495666258037090301513671875">
        <ele>1022.79998779296875</ele>
        <time>2020-08-13T07:08:08.000Z</time>
      </trkpt>
      <trkpt lat="42.5126375444233417510986328125" lon="1.17504986934363842010498046875">
        <ele>1023.5999755859375</ele>
        <time>2020-08-13T07:08:13.000Z</time>
      </trkpt>
      <trkpt lat="42.51264416612684726715087890625" lon="1.17506814189255237579345703125">
        <ele>1023.79998779296875</ele>
        <time>2020-08-13T07:08:14.000Z</time>
      </trkpt>
      <trkpt lat="42.512692697346210479736328125" lon="1.175189428031444549560546875">
        <ele>1025</ele>
        <time>2020-08-13T07:08:21.000Z</time>
      </trkpt>
      <trkpt lat="42.5127002410590648651123046875" lon="1.17520594038069248199462890625">
        <ele>1025.199951171875</ele>
        <time>2020-08-13T07:08:22.000Z</time>
      </trkpt>
      <trkpt lat="42.512743659317493438720703125" lon="1.1752985604107379913330078125">
        <ele>1025.800048828125</ele>
        <time>2020-08-13T07:08:27.000Z</time>
      </trkpt>
      <trkpt lat="42.51275380142033100128173828125" lon="1.175306774675846099853515625">
        <ele>1026</ele>
        <time>2020-08-13T07:08:28.000Z</time>
      </trkpt>
      <trkpt lat="42.51276637427508831024169921875" lon="1.17533116601407527923583984375">
        <ele>1026.199951171875</ele>
        <time>2020-08-13T07:08:30.000Z</time>
      </trkpt>
      <trkpt lat="42.51278783194720745086669921875" lon="1.1753545515239238739013671875">
        <ele>1026.4000244140625</ele>
        <time>2020-08-13T07:08:32.000Z</time>
      </trkpt>
      <trkpt lat="42.512869052588939666748046875" lon="1.1754222773015499114990234375">
        <ele>1027.4000244140625</ele>
        <time>2020-08-13T07:08:38.000Z</time>
      </trkpt>
      <trkpt lat="42.5128839723765850067138671875" lon="1.175432838499546051025390625">
        <ele>1027.5999755859375</ele>
        <time>2020-08-13T07:08:39.000Z</time>
      </trkpt>
      <trkpt lat="42.5129607506096363067626953125" lon="1.17549763061106204986572265625">
        <ele>1028.199951171875</ele>
        <time>2020-08-13T07:08:46.000Z</time>
      </trkpt>
      <trkpt lat="42.5130016542971134185791015625" lon="1.17552478797733783721923828125">
        <ele>1028</ele>
        <time>2020-08-13T07:08:56.000Z</time>
      </trkpt>
      <trkpt lat="42.513030655682086944580078125" lon="1.175598464906215667724609375">
        <ele>1028.5999755859375</ele>
        <time>2020-08-13T07:09:30.000Z</time>
      </trkpt>
      <trkpt lat="42.51305554993450641632080078125" lon="1.17566426284611225128173828125">
        <ele>1028.800048828125</ele>
        <time>2020-08-13T07:09:33.000Z</time>
      </trkpt>
      <trkpt lat="42.5131179951131343841552734375" lon="1.17580725811421871185302734375">
        <ele>1029.5999755859375</ele>
        <time>2020-08-13T07:09:41.000Z</time>
      </trkpt>
      <trkpt lat="42.51316065900027751922607421875" lon="1.17587506771087646484375">
        <ele>1030</ele>
        <time>2020-08-13T07:09:45.000Z</time>
      </trkpt>
      <trkpt lat="42.5131766684353351593017578125" lon="1.1759070865809917449951171875">
        <ele>1030.199951171875</ele>
        <time>2020-08-13T07:09:47.000Z</time>
      </trkpt>
      <trkpt lat="42.513192594051361083984375" lon="1.17594136856496334075927734375">
        <ele>1030.5999755859375</ele>
        <time>2020-08-13T07:09:49.000Z</time>
      </trkpt>
      <trkpt lat="42.513238526880741119384765625" lon="1.17602267302572727203369140625">
        <ele>1031</ele>
        <time>2020-08-13T07:09:53.000Z</time>
      </trkpt>
      <trkpt lat="42.51325235702097415924072265625" lon="1.1760400235652923583984375">
        <ele>1031</ele>
        <time>2020-08-13T07:09:54.000Z</time>
      </trkpt>
      <trkpt lat="42.513331063091754913330078125" lon="1.17612409405410289764404296875">
        <ele>1032</ele>
        <time>2020-08-13T07:10:00.000Z</time>
      </trkpt>
      <trkpt lat="42.51340675167739391326904296875" lon="1.1761652491986751556396484375">
        <ele>1032.4000244140625</ele>
        <time>2020-08-13T07:10:04.000Z</time>
      </trkpt>
      <trkpt lat="42.51347213052213191986083984375" lon="1.17620841600000858306884765625">
        <ele>1033</ele>
        <time>2020-08-13T07:10:08.000Z</time>
      </trkpt>
      <trkpt lat="42.51352988183498382568359375" lon="1.1762735433876514434814453125">
        <ele>1033.4000244140625</ele>
        <time>2020-08-13T07:10:12.000Z</time>
      </trkpt>
      <trkpt lat="42.51355226151645183563232421875" lon="1.176321990787982940673828125">
        <ele>1033.800048828125</ele>
        <time>2020-08-13T07:10:15.000Z</time>
      </trkpt>
      <trkpt lat="42.51357355155050754547119140625" lon="1.176411174237728118896484375">
        <ele>1034.800048828125</ele>
        <time>2020-08-13T07:10:20.000Z</time>
      </trkpt>
      <trkpt lat="42.51357841305434703826904296875" lon="1.17643070407211780548095703125">
        <ele>1035</ele>
        <time>2020-08-13T07:10:21.000Z</time>
      </trkpt>
      <trkpt lat="42.513624094426631927490234375" lon="1.1765789799392223358154296875">
        <ele>1035.800048828125</ele>
        <time>2020-08-13T07:10:28.000Z</time>
      </trkpt>
      <trkpt lat="42.513632811605930328369140625" lon="1.1765977554023265838623046875">
        <ele>1035.800048828125</ele>
        <time>2020-08-13T07:10:29.000Z</time>
      </trkpt>
      <trkpt lat="42.5137385912239551544189453125" lon="1.1767650581896305084228515625">
        <ele>1036.800048828125</ele>
        <time>2020-08-13T07:10:38.000Z</time>
      </trkpt>
      <trkpt lat="42.5139330513775348663330078125" lon="1.17689472623169422149658203125">
        <ele>1037.800048828125</ele>
        <time>2020-08-13T07:10:49.000Z</time>
      </trkpt>
      <trkpt lat="42.51406741328537464141845703125" lon="1.1769895255565643310546875">
        <ele>1039</ele>
        <time>2020-08-13T07:10:57.000Z</time>
      </trkpt>
      <trkpt lat="42.51408317126333713531494140625" lon="1.17700251750648021697998046875">
        <ele>1039.199951171875</ele>
        <time>2020-08-13T07:10:58.000Z</time>
      </trkpt>
      <trkpt lat="42.51414922066032886505126953125" lon="1.1771103926002979278564453125">
        <ele>1040</ele>
        <time>2020-08-13T07:11:04.000Z</time>
      </trkpt>
      <trkpt lat="42.5141493044793605804443359375" lon="1.17713034152984619140625">
        <ele>1040.4000244140625</ele>
        <time>2020-08-13T07:11:05.000Z</time>
      </trkpt>
      <trkpt lat="42.514110915362834930419921875" lon="1.17723159492015838623046875">
        <ele>1041.4000244140625</ele>
        <time>2020-08-13T07:11:10.000Z</time>
      </trkpt>
      <trkpt lat="42.5140946544706821441650390625" lon="1.1772384680807590484619140625">
        <ele>1041.5999755859375</ele>
        <time>2020-08-13T07:11:11.000Z</time>
      </trkpt>
      <trkpt lat="42.5140172056853771209716796875" lon="1.1771942116320133209228515625">
        <ele>1042.4000244140625</ele>
        <time>2020-08-13T07:11:16.000Z</time>
      </trkpt>
      <trkpt lat="42.5138874538242816925048828125" lon="1.17706839926540851593017578125">
        <ele>1043.5999755859375</ele>
        <time>2020-08-13T07:11:25.000Z</time>
      </trkpt>
      <trkpt lat="42.51377756707370281219482421875" lon="1.17697888053953647613525390625">
        <ele>1044.4000244140625</ele>
        <time>2020-08-13T07:11:32.000Z</time>
      </trkpt>
      <trkpt lat="42.513726018369197845458984375" lon="1.176950633525848388671875">
        <ele>1044.5999755859375</ele>
        <time>2020-08-13T07:11:35.000Z</time>
      </trkpt>
      <trkpt lat="42.51364027149975299835205078125" lon="1.17690914310514926910400390625">
        <ele>1045</ele>
        <time>2020-08-13T07:11:40.000Z</time>
      </trkpt>
      <trkpt lat="42.513592578470706939697265625" lon="1.17688466794788837432861328125">
        <ele>1045.4000244140625</ele>
        <time>2020-08-13T07:11:43.000Z</time>
      </trkpt>
      <trkpt lat="42.5135605596005916595458984375" lon="1.176836304366588592529296875">
        <ele>1046</ele>
        <time>2020-08-13T07:11:46.000Z</time>
      </trkpt>
      <trkpt lat="42.51353030093014240264892578125" lon="1.1767412535846233367919921875">
        <ele>1046.4000244140625</ele>
        <time>2020-08-13T07:11:51.000Z</time>
      </trkpt>
      <trkpt lat="42.51347112469375133514404296875" lon="1.1765833385288715362548828125">
        <ele>1047</ele>
        <time>2020-08-13T07:11:58.000Z</time>
      </trkpt>
      <trkpt lat="42.51336601562798023223876953125" lon="1.17645182646811008453369140625">
        <ele>1048</ele>
        <time>2020-08-13T07:12:05.000Z</time>
      </trkpt>
      <trkpt lat="42.51325638033449649810791015625" lon="1.1763382516801357269287109375">
        <ele>1049.199951171875</ele>
        <time>2020-08-13T07:12:12.000Z</time>
      </trkpt>
      <trkpt lat="42.5132081843912601470947265625" lon="1.1762948334217071533203125">
        <ele>1049.800048828125</ele>
        <time>2020-08-13T07:12:15.000Z</time>
      </trkpt>
      <trkpt lat="42.51315973699092864990234375" lon="1.176254265010356903076171875">
        <ele>1050.199951171875</ele>
        <time>2020-08-13T07:12:18.000Z</time>
      </trkpt>
      <trkpt lat="42.5130683742463588714599609375" lon="1.176159046590328216552734375">
        <ele>1050.800048828125</ele>
        <time>2020-08-13T07:12:24.000Z</time>
      </trkpt>
      <trkpt lat="42.51299520023167133331298828125" lon="1.1760737188160419464111328125">
        <ele>1051.199951171875</ele>
        <time>2020-08-13T07:12:29.000Z</time>
      </trkpt>
      <trkpt lat="42.51293904148042201995849609375" lon="1.17600808851420879364013671875">
        <ele>1052</ele>
        <time>2020-08-13T07:12:33.000Z</time>
      </trkpt>
      <trkpt lat="42.51289629377424716949462890625" lon="1.17595511488616466522216796875">
        <ele>1052.4000244140625</ele>
        <time>2020-08-13T07:12:36.000Z</time>
      </trkpt>
      <trkpt lat="42.512801326811313629150390625" lon="1.17586744017899036407470703125">
        <ele>1053.199951171875</ele>
        <time>2020-08-13T07:12:42.000Z</time>
      </trkpt>
      <trkpt lat="42.512772493064403533935546875" lon="1.17583357729017734527587890625">
        <ele>1053.4000244140625</ele>
        <time>2020-08-13T07:12:44.000Z</time>
      </trkpt>
      <trkpt lat="42.51267157495021820068359375" lon="1.17578454315662384033203125">
        <ele>1054.199951171875</ele>
        <time>2020-08-13T07:12:50.000Z</time>
      </trkpt>
      <trkpt lat="42.51265388913452625274658203125" lon="1.17577917873859405517578125">
        <ele>1054.4000244140625</ele>
        <time>2020-08-13T07:12:51.000Z</time>
      </trkpt>
      <trkpt lat="42.51252933405339717864990234375" lon="1.17573433555662631988525390625">
        <ele>1055.5999755859375</ele>
        <time>2020-08-13T07:12:58.000Z</time>
      </trkpt>
      <trkpt lat="42.51240209676325321197509765625" lon="1.17570918984711170196533203125">
        <ele>1056.5999755859375</ele>
        <time>2020-08-13T07:13:05.000Z</time>
      </trkpt>
      <trkpt lat="42.5123461894690990447998046875" lon="1.1757052503526210784912109375">
        <ele>1057.4000244140625</ele>
        <time>2020-08-13T07:13:08.000Z</time>
      </trkpt>
      <trkpt lat="42.5122915394604206085205078125" lon="1.1757035739719867706298828125">
        <ele>1058</ele>
        <time>2020-08-13T07:13:11.000Z</time>
      </trkpt>
      <trkpt lat="42.51218534074723720550537109375" lon="1.17570918984711170196533203125">
        <ele>1059</ele>
        <time>2020-08-13T07:13:17.000Z</time>
      </trkpt>
      <trkpt lat="42.5121678225696086883544921875" lon="1.17571405135095119476318359375">
        <ele>1059.199951171875</ele>
        <time>2020-08-13T07:13:18.000Z</time>
      </trkpt>
      <trkpt lat="42.51207101158797740936279296875" lon="1.17576518096029758453369140625">
        <ele>1060.199951171875</ele>
        <time>2020-08-13T07:13:24.000Z</time>
      </trkpt>
      <trkpt lat="42.51204117201268672943115234375" lon="1.17578990757465362548828125">
        <ele>1060.4000244140625</ele>
        <time>2020-08-13T07:13:26.000Z</time>
      </trkpt>
      <trkpt lat="42.511953413486480712890625" lon="1.17587112821638584136962890625">
        <ele>1061.4000244140625</ele>
        <time>2020-08-13T07:13:32.000Z</time>
      </trkpt>
      <trkpt lat="42.51191225834190845489501953125" lon="1.1759178154170513153076171875">
        <ele>1061.800048828125</ele>
        <time>2020-08-13T07:13:35.000Z</time>
      </trkpt>
      <trkpt lat="42.51186515204608440399169921875" lon="1.1759888939559459686279296875">
        <ele>1062.4000244140625</ele>
        <time>2020-08-13T07:13:39.000Z</time>
      </trkpt>
      <trkpt lat="42.51181737519800662994384765625" lon="1.17608553729951381683349609375">
        <ele>1063.199951171875</ele>
        <time>2020-08-13T07:13:44.000Z</time>
      </trkpt>
      <trkpt lat="42.51179717481136322021484375" lon="1.1761196516454219818115234375">
        <ele>1063.5999755859375</ele>
        <time>2020-08-13T07:13:46.000Z</time>
      </trkpt>
      <trkpt lat="42.51169885508716106414794921875" lon="1.1762034706771373748779296875">
        <ele>1064.4000244140625</ele>
        <time>2020-08-13T07:13:53.000Z</time>
      </trkpt>
      <trkpt lat="42.51164739020168781280517578125" lon="1.17626055143773555755615234375">
        <ele>1064.800048828125</ele>
        <time>2020-08-13T07:13:57.000Z</time>
      </trkpt>
      <trkpt lat="42.51162559725344181060791015625" lon="1.17629282176494598388671875">
        <ele>1065</ele>
        <time>2020-08-13T07:13:59.000Z</time>
      </trkpt>
      <trkpt lat="42.51156038604676723480224609375" lon="1.17634889669716358184814453125">
        <ele>1066</ele>
        <time>2020-08-13T07:14:04.000Z</time>
      </trkpt>
      <trkpt lat="42.51154680736362934112548828125" lon="1.17636113427579402923583984375">
        <ele>1066</ele>
        <time>2020-08-13T07:14:05.000Z</time>
      </trkpt>
      <trkpt lat="42.51143901608884334564208984375" lon="1.1764504015445709228515625">
        <ele>1067</ele>
        <time>2020-08-13T07:14:13.000Z</time>
      </trkpt>
      <trkpt lat="42.5114057399332523345947265625" lon="1.1764891259372234344482421875">
        <ele>1067.5999755859375</ele>
        <time>2020-08-13T07:14:16.000Z</time>
      </trkpt>
      <trkpt lat="42.5113842822611331939697265625" lon="1.1765115894377231597900390625">
        <ele>1068</ele>
        <time>2020-08-13T07:14:18.000Z</time>
      </trkpt>
      <trkpt lat="42.51135502941906452178955078125" lon="1.17653246037662029266357421875">
        <ele>1068.199951171875</ele>
        <time>2020-08-13T07:14:20.000Z</time>
      </trkpt>
      <trkpt lat="42.511277832090854644775390625" lon="1.176577471196651458740234375">
        <ele>1068.5999755859375</ele>
        <time>2020-08-13T07:14:25.000Z</time>
      </trkpt>
      <trkpt lat="42.5112438015639781951904296875" lon="1.1765930615365505218505859375">
        <ele>1069.199951171875</ele>
        <time>2020-08-13T07:14:27.000Z</time>
      </trkpt>
      <trkpt lat="42.5111643411219120025634765625" lon="1.17661192081868648529052734375">
        <ele>1070</ele>
        <time>2020-08-13T07:14:32.000Z</time>
      </trkpt>
      <trkpt lat="42.51112033613026142120361328125" lon="1.1766252480447292327880859375">
        <ele>1070.4000244140625</ele>
        <time>2020-08-13T07:14:35.000Z</time>
      </trkpt>
      <trkpt lat="42.5110768340528011322021484375" lon="1.176597587764263153076171875">
        <ele>1070.800048828125</ele>
        <time>2020-08-13T07:14:38.000Z</time>
      </trkpt>
      <trkpt lat="42.51105017960071563720703125" lon="1.1765679158270359039306640625">
        <ele>1071.199951171875</ele>
        <time>2020-08-13T07:14:40.000Z</time>
      </trkpt>
      <trkpt lat="42.51104079186916351318359375" lon="1.17652357555925846099853515625">
        <ele>1071.4000244140625</ele>
        <time>2020-08-13T07:14:42.000Z</time>
      </trkpt>
      <trkpt lat="42.51104188151657581329345703125" lon="1.17649725638329982757568359375">
        <ele>1071.5999755859375</ele>
        <time>2020-08-13T07:14:43.000Z</time>
      </trkpt>
      <trkpt lat="42.5110615789890289306640625" lon="1.17642433382570743560791015625">
        <ele>1072</ele>
        <time>2020-08-13T07:14:46.000Z</time>
      </trkpt>
      <trkpt lat="42.51108110882341861724853515625" lon="1.1763550154864788055419921875">
        <ele>1072.800048828125</ele>
        <time>2020-08-13T07:14:49.000Z</time>
      </trkpt>
      <trkpt lat="42.51109016127884387969970703125" lon="1.17633431218564510345458984375">
        <ele>1073</ele>
        <time>2020-08-13T07:14:50.000Z</time>
      </trkpt>
      <trkpt lat="42.5111339986324310302734375" lon="1.1761816777288913726806640625">
        <ele>1073.800048828125</ele>
        <time>2020-08-13T07:14:57.000Z</time>
      </trkpt>
      <trkpt lat="42.5111723877489566802978515625" lon="1.1759805120527744293212890625">
        <ele>1075</ele>
        <time>2020-08-13T07:15:06.000Z</time>
      </trkpt>
      <trkpt lat="42.51118202693760395050048828125" lon="1.17582016624510288238525390625">
        <ele>1076.199951171875</ele>
        <time>2020-08-13T07:15:13.000Z</time>
      </trkpt>
      <trkpt lat="42.51121354289352893829345703125" lon="1.17562335915863513946533203125">
        <ele>1077.5999755859375</ele>
        <time>2020-08-13T07:15:22.000Z</time>
      </trkpt>
      <trkpt lat="42.51121320761740207672119140625" lon="1.17540232837200164794921875">
        <ele>1078.800048828125</ele>
        <time>2020-08-13T07:15:30.000Z</time>
      </trkpt>
      <trkpt lat="42.51121555455029010772705078125" lon="1.1753802001476287841796875">
        <ele>1079</ele>
        <time>2020-08-13T07:15:31.000Z</time>
      </trkpt>
      <trkpt lat="42.511223517358303070068359375" lon="1.17518381215631961822509765625">
        <ele>1079.800048828125</ele>
        <time>2020-08-13T07:15:39.000Z</time>
      </trkpt>
      <trkpt lat="42.51122611574828624725341796875" lon="1.17515933699905872344970703125">
        <ele>1079.800048828125</ele>
        <time>2020-08-13T07:15:40.000Z</time>
      </trkpt>
      <trkpt lat="42.511243633925914764404296875" lon="1.1749859154224395751953125">
        <ele>1081</ele>
        <time>2020-08-13T07:15:47.000Z</time>
      </trkpt>
      <trkpt lat="42.5112441368401050567626953125" lon="1.17495716549456119537353515625">
        <ele>1081.199951171875</ele>
        <time>2020-08-13T07:15:48.000Z</time>
      </trkpt>
      <trkpt lat="42.5112525187432765960693359375" lon="1.17480612359941005706787109375">
        <ele>1082</ele>
        <time>2020-08-13T07:15:55.000Z</time>
      </trkpt>
      <trkpt lat="42.5112528540194034576416015625" lon="1.17477997206151485443115234375">
        <ele>1082.199951171875</ele>
        <time>2020-08-13T07:15:56.000Z</time>
      </trkpt>
      <trkpt lat="42.511278502643108367919921875" lon="1.17464703507721424102783203125">
        <ele>1082.800048828125</ele>
        <time>2020-08-13T07:16:02.000Z</time>
      </trkpt>
      <trkpt lat="42.5112842023372650146484375" lon="1.17460261099040508270263671875">
        <ele>1083.199951171875</ele>
        <time>2020-08-13T07:16:04.000Z</time>
      </trkpt>
      <trkpt lat="42.5113070011138916015625" lon="1.17445441894233226776123046875">
        <ele>1084.199951171875</ele>
        <time>2020-08-13T07:16:11.000Z</time>
      </trkpt>
      <trkpt lat="42.51130540855228900909423828125" lon="1.1744127608835697174072265625">
        <ele>1084.199951171875</ele>
        <time>2020-08-13T07:16:13.000Z</time>
      </trkpt>
      <trkpt lat="42.5113219209015369415283203125" lon="1.174325756728649139404296875">
        <ele>1084.800048828125</ele>
        <time>2020-08-13T07:16:17.000Z</time>
      </trkpt>
      <trkpt lat="42.5113259442150592803955078125" lon="1.1742256768047809600830078125">
        <ele>1085.4000244140625</ele>
        <time>2020-08-13T07:16:21.000Z</time>
      </trkpt>
      <trkpt lat="42.5113075040280818939208984375" lon="1.174133308231830596923828125">
        <ele>1086</ele>
        <time>2020-08-13T07:16:25.000Z</time>
      </trkpt>
      <trkpt lat="42.51128981821238994598388671875" lon="1.17405879311263561248779296875">
        <ele>1086.5999755859375</ele>
        <time>2020-08-13T07:16:28.000Z</time>
      </trkpt>
      <trkpt lat="42.51126249320805072784423828125" lon="1.1739651672542095184326171875">
        <ele>1087</ele>
        <time>2020-08-13T07:16:32.000Z</time>
      </trkpt>
      <trkpt lat="42.51121513545513153076171875" lon="1.1738313920795917510986328125">
        <ele>1087.5999755859375</ele>
        <time>2020-08-13T07:16:38.000Z</time>
      </trkpt>
      <trkpt lat="42.5112052448093891143798828125" lon="1.17381018586456775665283203125">
        <ele>1087.800048828125</ele>
        <time>2020-08-13T07:16:39.000Z</time>
      </trkpt>
      <trkpt lat="42.51111991703510284423828125" lon="1.17367674596607685089111328125">
        <ele>1088.5999755859375</ele>
        <time>2020-08-13T07:16:46.000Z</time>
      </trkpt>
      <trkpt lat="42.51110793091356754302978515625" lon="1.17366048507392406463623046875">
        <ele>1088.800048828125</ele>
        <time>2020-08-13T07:16:47.000Z</time>
      </trkpt>
      <trkpt lat="42.51102075912058353424072265625" lon="1.1735308170318603515625">
        <ele>1089.5999755859375</ele>
        <time>2020-08-13T07:16:54.000Z</time>
      </trkpt>
      <trkpt lat="42.51101036556065082550048828125" lon="1.17350977845489978790283203125">
        <ele>1089.800048828125</ele>
        <time>2020-08-13T07:16:55.000Z</time>
      </trkpt>
      <trkpt lat="42.5109128840267658233642578125" lon="1.17338991723954677581787109375">
        <ele>1090.5999755859375</ele>
        <time>2020-08-13T07:17:02.000Z</time>
      </trkpt>
      <trkpt lat="42.510901652276515960693359375" lon="1.173374243080615997314453125">
        <ele>1090.800048828125</ele>
        <time>2020-08-13T07:17:03.000Z</time>
      </trkpt>
      <trkpt lat="42.51085144467651844024658203125" lon="1.17328296415507793426513671875">
        <ele>1091.4000244140625</ele>
        <time>2020-08-13T07:17:08.000Z</time>
      </trkpt>
      <trkpt lat="42.51079277135431766510009765625" lon="1.17322169244289398193359375">
        <ele>1091.800048828125</ele>
        <time>2020-08-13T07:17:12.000Z</time>
      </trkpt>
      <trkpt lat="42.51073040999472141265869140625" lon="1.17315086536109447479248046875">
        <ele>1092.4000244140625</ele>
        <time>2020-08-13T07:17:16.000Z</time>
      </trkpt>
      <trkpt lat="42.51068808138370513916015625" lon="1.17309453897178173065185546875">
        <ele>1093</ele>
        <time>2020-08-13T07:17:19.000Z</time>
      </trkpt>
      <trkpt lat="42.51060887239873409271240234375" lon="1.173025555908679962158203125">
        <ele>1093.800048828125</ele>
        <time>2020-08-13T07:17:24.000Z</time>
      </trkpt>
      <trkpt lat="42.51057953573763370513916015625" lon="1.1729930341243743896484375">
        <ele>1094</ele>
        <time>2020-08-13T07:17:26.000Z</time>
      </trkpt>
      <trkpt lat="42.5104921124875545501708984375" lon="1.172893457114696502685546875">
        <ele>1094.800048828125</ele>
        <time>2020-08-13T07:17:32.000Z</time>
      </trkpt>
      <trkpt lat="42.51046118326485157012939453125" lon="1.17286168970167636871337890625">
        <ele>1095.199951171875</ele>
        <time>2020-08-13T07:17:34.000Z</time>
      </trkpt>
      <trkpt lat="42.5103761069476604461669921875" lon="1.17276839911937713623046875">
        <ele>1096.4000244140625</ele>
        <time>2020-08-13T07:17:40.000Z</time>
      </trkpt>
      <trkpt lat="42.51029270701110363006591796875" lon="1.17267544381320476531982421875">
        <ele>1097.4000244140625</ele>
        <time>2020-08-13T07:17:46.000Z</time>
      </trkpt>
      <trkpt lat="42.5102671422064304351806640625" lon="1.1726438440382480621337890625">
        <ele>1097.5999755859375</ele>
        <time>2020-08-13T07:17:48.000Z</time>
      </trkpt>
      <trkpt lat="42.5101668946444988250732421875" lon="1.17252389900386333465576171875">
        <ele>1098.5999755859375</ele>
        <time>2020-08-13T07:17:55.000Z</time>
      </trkpt>
      <trkpt lat="42.510141916573047637939453125" lon="1.17237201891839504241943359375">
        <ele>1099.4000244140625</ele>
        <time>2020-08-13T07:18:01.000Z</time>
      </trkpt>
      <trkpt lat="42.51014552079141139984130859375" lon="1.17234469391405582427978515625">
        <ele>1099.5999755859375</ele>
        <time>2020-08-13T07:18:02.000Z</time>
      </trkpt>
      <trkpt lat="42.51017385162413120269775390625" lon="1.172233633697032928466796875">
        <ele>1100.5999755859375</ele>
        <time>2020-08-13T07:18:07.000Z</time>
      </trkpt>
      <trkpt lat="42.51018977724015712738037109375" lon="1.17219549603760242462158203125">
        <ele>1101</ele>
        <time>2020-08-13T07:18:09.000Z</time>
      </trkpt>
      <trkpt lat="42.5102165155112743377685546875" lon="1.1721479706466197967529296875">
        <ele>1101.800048828125</ele>
        <time>2020-08-13T07:18:12.000Z</time>
      </trkpt>
      <trkpt lat="42.51024409197270870208740234375" lon="1.17204747162759304046630859375">
        <ele>1102.5999755859375</ele>
        <time>2020-08-13T07:18:17.000Z</time>
      </trkpt>
      <trkpt lat="42.5102671422064304351806640625" lon="1.171967089176177978515625">
        <ele>1103</ele>
        <time>2020-08-13T07:18:21.000Z</time>
      </trkpt>
      <trkpt lat="42.5102721713483333587646484375" lon="1.17189575918018817901611328125">
        <ele>1103.4000244140625</ele>
        <time>2020-08-13T07:18:24.000Z</time>
      </trkpt>
      <trkpt lat="42.51026169396936893463134765625" lon="1.1718056537210941314697265625">
        <ele>1104</ele>
        <time>2020-08-13T07:18:28.000Z</time>
      </trkpt>
      <trkpt lat="42.51025046221911907196044921875" lon="1.1717107705771923065185546875">
        <ele>1104.800048828125</ele>
        <time>2020-08-13T07:18:32.000Z</time>
      </trkpt>
      <trkpt lat="42.5102362968027591705322265625" lon="1.171672381460666656494140625">
        <ele>1105.199951171875</ele>
        <time>2020-08-13T07:18:34.000Z</time>
      </trkpt>
      <trkpt lat="42.51023386605083942413330078125" lon="1.17166022770106792449951171875">
        <ele>1105.4000244140625</ele>
        <time>2020-08-13T07:18:36.000Z</time>
      </trkpt>
      <trkpt lat="42.51021601259708404541015625" lon="1.1716453917324542999267578125">
        <ele>1105.5999755859375</ele>
        <time>2020-08-13T07:19:31.000Z</time>
      </trkpt>
      <trkpt lat="42.51016681082546710968017578125" lon="1.17158353328704833984375">
        <ele>1106</ele>
        <time>2020-08-13T07:19:36.000Z</time>
      </trkpt>
      <trkpt lat="42.51015893183648586273193359375" lon="1.17156886495649814605712890625">
        <ele>1106</ele>
        <time>2020-08-13T07:19:37.000Z</time>
      </trkpt>
      <trkpt lat="42.51015088520944118499755859375" lon="1.1715508438646793365478515625">
        <ele>1106.199951171875</ele>
        <time>2020-08-13T07:19:38.000Z</time>
      </trkpt>
      <trkpt lat="42.51009170897305011749267578125" lon="1.17145503871142864227294921875">
        <ele>1107.199951171875</ele>
        <time>2020-08-13T07:19:44.000Z</time>
      </trkpt>
      <trkpt lat="42.51007913611829280853271484375" lon="1.1714368499815464019775390625">
        <ele>1107.4000244140625</ele>
        <time>2020-08-13T07:19:45.000Z</time>
      </trkpt>
      <trkpt lat="42.51003638841211795806884765625" lon="1.17134909145534038543701171875">
        <ele>1108.199951171875</ele>
        <time>2020-08-13T07:19:50.000Z</time>
      </trkpt>
      <trkpt lat="42.510024569928646087646484375" lon="1.1713060922920703887939453125">
        <ele>1108.4000244140625</ele>
        <time>2020-08-13T07:19:52.000Z</time>
      </trkpt>
      <trkpt lat="42.50998710282146930694580078125" lon="1.17120559327304363250732421875">
        <ele>1109.199951171875</ele>
        <time>2020-08-13T07:19:57.000Z</time>
      </trkpt>
      <trkpt lat="42.50996497459709644317626953125" lon="1.17117525078356266021728515625">
        <ele>1109.5999755859375</ele>
        <time>2020-08-13T07:19:59.000Z</time>
      </trkpt>
      <trkpt lat="42.50991602428257465362548828125" lon="1.171105094254016876220703125">
        <ele>1110.199951171875</ele>
        <time>2020-08-13T07:20:04.000Z</time>
      </trkpt>
      <trkpt lat="42.50989154912531375885009765625" lon="1.171045415103435516357421875">
        <ele>1110.800048828125</ele>
        <time>2020-08-13T07:20:08.000Z</time>
      </trkpt>
      <trkpt lat="42.50988048501312732696533203125" lon="1.17101348005235195159912109375">
        <ele>1111</ele>
        <time>2020-08-13T07:20:10.000Z</time>
      </trkpt>
      <trkpt lat="42.50985031016170978546142578125" lon="1.17095279507339000701904296875">
        <ele>1111.5999755859375</ele>
        <time>2020-08-13T07:20:14.000Z</time>
      </trkpt>
      <trkpt lat="42.50984075479209423065185546875" lon="1.1709201894700527191162109375">
        <ele>1111.800048828125</ele>
        <time>2020-08-13T07:20:16.000Z</time>
      </trkpt>
      <trkpt lat="42.50982834957540035247802734375" lon="1.17088808678090572357177734375">
        <ele>1112.199951171875</ele>
        <time>2020-08-13T07:20:18.000Z</time>
      </trkpt>
      <trkpt lat="42.50980471260845661163330078125" lon="1.17080393247306346893310546875">
        <ele>1112.800048828125</ele>
        <time>2020-08-13T07:20:23.000Z</time>
      </trkpt>
      <trkpt lat="42.50979633070528507232666015625" lon="1.17076436989009380340576171875">
        <ele>1113</ele>
        <time>2020-08-13T07:20:25.000Z</time>
      </trkpt>
      <trkpt lat="42.50976397655904293060302734375" lon="1.170615591108798980712890625">
        <ele>1114</ele>
        <time>2020-08-13T07:20:33.000Z</time>
      </trkpt>
      <trkpt lat="42.5097451172769069671630859375" lon="1.17044317536056041717529296875">
        <ele>1115.199951171875</ele>
        <time>2020-08-13T07:20:42.000Z</time>
      </trkpt>
      <trkpt lat="42.50971980392932891845703125" lon="1.17029146291315555572509765625">
        <ele>1116.199951171875</ele>
        <time>2020-08-13T07:20:50.000Z</time>
      </trkpt>
      <trkpt lat="42.5097122602164745330810546875" lon="1.170253492891788482666015625">
        <ele>1116.4000244140625</ele>
        <time>2020-08-13T07:20:52.000Z</time>
      </trkpt>
      <trkpt lat="42.50968149863183498382568359375" lon="1.1701405048370361328125">
        <ele>1117.199951171875</ele>
        <time>2020-08-13T07:20:58.000Z</time>
      </trkpt>
      <trkpt lat="42.50966590829193592071533203125" lon="1.17010538466274738311767578125">
        <ele>1117.5999755859375</ele>
        <time>2020-08-13T07:21:00.000Z</time>
      </trkpt>
      <trkpt lat="42.5096364878118038177490234375" lon="1.1700370721518993377685546875">
        <ele>1118.4000244140625</ele>
        <time>2020-08-13T07:21:04.000Z</time>
      </trkpt>
      <trkpt lat="42.50958678312599658966064453125" lon="1.1700025387108325958251953125">
        <ele>1119</ele>
        <time>2020-08-13T07:21:08.000Z</time>
      </trkpt>
      <trkpt lat="42.509512938559055328369140625" lon="1.17000446654856204986572265625">
        <ele>1119.4000244140625</ele>
        <time>2020-08-13T07:21:13.000Z</time>
      </trkpt>
      <trkpt lat="42.5094817578792572021484375" lon="1.1700139380991458892822265625">
        <ele>1119.5999755859375</ele>
        <time>2020-08-13T07:21:15.000Z</time>
      </trkpt>
      <trkpt lat="42.5093917362391948699951171875" lon="1.17003363557159900665283203125">
        <ele>1120.4000244140625</ele>
        <time>2020-08-13T07:21:21.000Z</time>
      </trkpt>
      <trkpt lat="42.50936214812099933624267578125" lon="1.1700426042079925537109375">
        <ele>1120.800048828125</ele>
        <time>2020-08-13T07:21:23.000Z</time>
      </trkpt>
      <trkpt lat="42.50926039181649684906005859375" lon="1.17008124478161334991455078125">
        <ele>1121.5999755859375</ele>
        <time>2020-08-13T07:21:30.000Z</time>
      </trkpt>
      <trkpt lat="42.50921479426324367523193359375" lon="1.170099936425685882568359375">
        <ele>1122</ele>
        <time>2020-08-13T07:21:33.000Z</time>
      </trkpt>
      <trkpt lat="42.5091396085917949676513671875" lon="1.170127093791961669921875">
        <ele>1122.5999755859375</ele>
        <time>2020-08-13T07:21:38.000Z</time>
      </trkpt>
      <trkpt lat="42.50907766632735729217529296875" lon="1.17013824172317981719970703125">
        <ele>1123.199951171875</ele>
        <time>2020-08-13T07:21:42.000Z</time>
      </trkpt>
      <trkpt lat="42.5090336613357067108154296875" lon="1.17014813236892223358154296875">
        <ele>1123.800048828125</ele>
        <time>2020-08-13T07:21:45.000Z</time>
      </trkpt>
      <trkpt lat="42.5089709646999835968017578125" lon="1.17015131749212741851806640625">
        <ele>1124.199951171875</ele>
        <time>2020-08-13T07:21:49.000Z</time>
      </trkpt>
      <trkpt lat="42.50890843570232391357421875" lon="1.17013773880898952484130859375">
        <ele>1124.800048828125</ele>
        <time>2020-08-13T07:21:53.000Z</time>
      </trkpt>
      <trkpt lat="42.50884531997144222259521484375" lon="1.1701292730867862701416015625">
        <ele>1125.4000244140625</ele>
        <time>2020-08-13T07:21:57.000Z</time>
      </trkpt>
      <trkpt lat="42.50881330110132694244384765625" lon="1.17012214846909046173095703125">
        <ele>1125.800048828125</ele>
        <time>2020-08-13T07:21:59.000Z</time>
      </trkpt>
      <trkpt lat="42.50874088145792484283447265625" lon="1.1700880341231822967529296875">
        <ele>1126.5999755859375</ele>
        <time>2020-08-13T07:22:04.000Z</time>
      </trkpt>
      <trkpt lat="42.50870953314006328582763671875" lon="1.170079149305820465087890625">
        <ele>1127</ele>
        <time>2020-08-13T07:22:06.000Z</time>
      </trkpt>
      <trkpt lat="42.50858766026794910430908203125" lon="1.17003430612385272979736328125">
        <ele>1128</ele>
        <time>2020-08-13T07:22:14.000Z</time>
      </trkpt>
      <trkpt lat="42.50848456285893917083740234375" lon="1.169989965856075286865234375">
        <ele>1129</ele>
        <time>2020-08-13T07:22:21.000Z</time>
      </trkpt>
      <trkpt lat="42.508378364145755767822265625" lon="1.1699478887021541595458984375">
        <ele>1130</ele>
        <time>2020-08-13T07:22:28.000Z</time>
      </trkpt>
      <trkpt lat="42.508350871503353118896484375" lon="1.1699244193732738494873046875">
        <ele>1130.199951171875</ele>
        <time>2020-08-13T07:22:30.000Z</time>
      </trkpt>
      <trkpt lat="42.50829412601888179779052734375" lon="1.169887371361255645751953125">
        <ele>1130.800048828125</ele>
        <time>2020-08-13T07:22:34.000Z</time>
      </trkpt>
      <trkpt lat="42.5082367099821567535400390625" lon="1.16984638385474681854248046875">
        <ele>1131.4000244140625</ele>
        <time>2020-08-13T07:22:38.000Z</time>
      </trkpt>
      <trkpt lat="42.508187927305698394775390625" lon="1.169790811836719512939453125">
        <ele>1131.800048828125</ele>
        <time>2020-08-13T07:22:42.000Z</time>
      </trkpt>
      <trkpt lat="42.508149705827236175537109375" lon="1.16975627839565277099609375">
        <ele>1132.5999755859375</ele>
        <time>2020-08-13T07:22:45.000Z</time>
      </trkpt>
      <trkpt lat="42.50810888595879077911376953125" lon="1.1697309650480747222900390625">
        <ele>1133</ele>
        <time>2020-08-13T07:22:48.000Z</time>
      </trkpt>
      <trkpt lat="42.5080710835754871368408203125" lon="1.16969592869281768798828125">
        <ele>1133.5999755859375</ele>
        <time>2020-08-13T07:22:51.000Z</time>
      </trkpt>
      <trkpt lat="42.508014254271984100341796875" lon="1.1696645803749561309814453125">
        <ele>1134.199951171875</ele>
        <time>2020-08-13T07:22:55.000Z</time>
      </trkpt>
      <trkpt lat="42.50795298255980014801025390625" lon="1.1696437932550907135009765625">
        <ele>1134.5999755859375</ele>
        <time>2020-08-13T07:22:59.000Z</time>
      </trkpt>
      <trkpt lat="42.50787436030805110931396484375" lon="1.16961889900267124176025390625">
        <ele>1135.199951171875</ele>
        <time>2020-08-13T07:23:04.000Z</time>
      </trkpt>
      <trkpt lat="42.5078129209578037261962890625" lon="1.1695919930934906005859375">
        <ele>1135.800048828125</ele>
        <time>2020-08-13T07:23:08.000Z</time>
      </trkpt>
      <trkpt lat="42.50772180967032909393310546875" lon="1.16954899393022060394287109375">
        <ele>1136.5999755859375</ele>
        <time>2020-08-13T07:23:14.000Z</time>
      </trkpt>
      <trkpt lat="42.5077083148062229156494140625" lon="1.16953994147479534149169921875">
        <ele>1136.800048828125</ele>
        <time>2020-08-13T07:23:15.000Z</time>
      </trkpt>
      <trkpt lat="42.507617957890033721923828125" lon="1.16942904889583587646484375">
        <ele>1138</ele>
        <time>2020-08-13T07:23:23.000Z</time>
      </trkpt>
      <trkpt lat="42.5076104141771793365478515625" lon="1.16931010968983173370361328125">
        <ele>1139</ele>
        <time>2020-08-13T07:23:29.000Z</time>
      </trkpt>
      <trkpt lat="42.50763111747801303863525390625" lon="1.1692069284617900848388671875">
        <ele>1140</ele>
        <time>2020-08-13T07:23:34.000Z</time>
      </trkpt>
      <trkpt lat="42.50764377415180206298828125" lon="1.16916325874626636505126953125">
        <ele>1140.4000244140625</ele>
        <time>2020-08-13T07:23:36.000Z</time>
      </trkpt>
      <trkpt lat="42.5076664052903652191162109375" lon="1.16907139308750629425048828125">
        <ele>1141</ele>
        <time>2020-08-13T07:23:40.000Z</time>
      </trkpt>
      <trkpt lat="42.50768526457250118255615234375" lon="1.16894516162574291229248046875">
        <ele>1141.4000244140625</ele>
        <time>2020-08-13T07:23:45.000Z</time>
      </trkpt>
      <trkpt lat="42.50767529010772705078125" lon="1.168833263218402862548828125">
        <ele>1142.199951171875</ele>
        <time>2020-08-13T07:23:50.000Z</time>
      </trkpt>
      <trkpt lat="42.5076623819768428802490234375" lon="1.16876411251723766326904296875">
        <ele>1142.5999755859375</ele>
        <time>2020-08-13T07:23:53.000Z</time>
      </trkpt>
      <trkpt lat="42.5076084025204181671142578125" lon="1.1686208657920360565185546875">
        <ele>1143.199951171875</ele>
        <time>2020-08-13T07:24:00.000Z</time>
      </trkpt>
      <trkpt lat="42.507558278739452362060546875" lon="1.1685152538120746612548828125">
        <ele>1143.800048828125</ele>
        <time>2020-08-13T07:24:07.000Z</time>
      </trkpt>
      <trkpt lat="42.507554925978183746337890625" lon="1.1685092188417911529541015625">
        <ele>1144</ele>
        <time>2020-08-13T07:24:08.000Z</time>
      </trkpt>
      <trkpt lat="42.5075406767427921295166015625" lon="1.16849002428352832794189453125">
        <ele>1145</ele>
        <time>2020-08-13T07:27:21.000Z</time>
      </trkpt>
      <trkpt lat="42.507539503276348114013671875" lon="1.1684891022741794586181640625">
        <ele>1145.199951171875</ele>
        <time>2020-08-13T07:27:26.000Z</time>
      </trkpt>
      <trkpt lat="42.50753271393477916717529296875" lon="1.1684837378561496734619140625">
        <ele>1145.199951171875</ele>
        <time>2020-08-13T07:27:27.000Z</time>
      </trkpt>
      <trkpt lat="42.50750295817852020263671875" lon="1.16845666430890560150146484375">
        <ele>1145.4000244140625</ele>
        <time>2020-08-13T07:27:30.000Z</time>
      </trkpt>
      <trkpt lat="42.50741234980523586273193359375" lon="1.1683553270995616912841796875">
        <ele>1146</ele>
        <time>2020-08-13T07:27:37.000Z</time>
      </trkpt>
      <trkpt lat="42.50740195624530315399169921875" lon="1.16833738982677459716796875">
        <ele>1146.199951171875</ele>
        <time>2020-08-13T07:27:38.000Z</time>
      </trkpt>
      <trkpt lat="42.5073250941932201385498046875" lon="1.16823957301676273345947265625">
        <ele>1147.199951171875</ele>
        <time>2020-08-13T07:27:44.000Z</time>
      </trkpt>
      <trkpt lat="42.5072322227060794830322265625" lon="1.16815960966050624847412109375">
        <ele>1148.4000244140625</ele>
        <time>2020-08-13T07:27:50.000Z</time>
      </trkpt>
      <trkpt lat="42.507176734507083892822265625" lon="1.168096326291561126708984375">
        <ele>1149</ele>
        <time>2020-08-13T07:27:54.000Z</time>
      </trkpt>
      <trkpt lat="42.50711579807102680206298828125" lon="1.16805684752762317657470703125">
        <ele>1149.5999755859375</ele>
        <time>2020-08-13T07:27:58.000Z</time>
      </trkpt>
      <trkpt lat="42.5070380978286266326904296875" lon="1.16801979951560497283935546875">
        <ele>1150.5999755859375</ele>
        <time>2020-08-13T07:28:03.000Z</time>
      </trkpt>
      <trkpt lat="42.50700968317687511444091796875" lon="1.16799850948154926300048828125">
        <ele>1151</ele>
        <time>2020-08-13T07:28:05.000Z</time>
      </trkpt>
      <trkpt lat="42.50695385970175266265869140625" lon="1.16795307956635951995849609375">
        <ele>1151.5999755859375</ele>
        <time>2020-08-13T07:28:09.000Z</time>
      </trkpt>
      <trkpt lat="42.5069184042513370513916015625" lon="1.16791049949824810028076171875">
        <ele>1152</ele>
        <time>2020-08-13T07:28:12.000Z</time>
      </trkpt>
      <trkpt lat="42.506905160844326019287109375" lon="1.16789750754833221435546875">
        <ele>1152.199951171875</ele>
        <time>2020-08-13T07:28:13.000Z</time>
      </trkpt>
      <trkpt lat="42.50684942118823528289794921875" lon="1.1678504012525081634521484375">
        <ele>1152.800048828125</ele>
        <time>2020-08-13T07:28:17.000Z</time>
      </trkpt>
      <trkpt lat="42.5067963637411594390869140625" lon="1.16780069656670093536376953125">
        <ele>1153.4000244140625</ele>
        <time>2020-08-13T07:28:21.000Z</time>
      </trkpt>
      <trkpt lat="42.50677281059324741363525390625" lon="1.1677736230194568634033203125">
        <ele>1153.800048828125</ele>
        <time>2020-08-13T07:28:23.000Z</time>
      </trkpt>
      <trkpt lat="42.50668622553348541259765625" lon="1.1676991917192935943603515625">
        <ele>1154.800048828125</ele>
        <time>2020-08-13T07:28:30.000Z</time>
      </trkpt>
      <trkpt lat="42.5066721439361572265625" lon="1.16769500076770782470703125">
        <ele>1155</ele>
        <time>2020-08-13T07:28:31.000Z</time>
      </trkpt>
      <trkpt lat="42.5065868161618709564208984375" lon="1.1676626466214656829833984375">
        <ele>1156</ele>
        <time>2020-08-13T07:28:37.000Z</time>
      </trkpt>
      <trkpt lat="42.50654264353215694427490234375" lon="1.167658455669879913330078125">
        <ele>1156.4000244140625</ele>
        <time>2020-08-13T07:28:40.000Z</time>
      </trkpt>
      <trkpt lat="42.5064724870026111602783203125" lon="1.16764060221612453460693359375">
        <ele>1157.199951171875</ele>
        <time>2020-08-13T07:28:45.000Z</time>
      </trkpt>
      <trkpt lat="42.5064305774867534637451171875" lon="1.16762232966721057891845703125">
        <ele>1157.5999755859375</ele>
        <time>2020-08-13T07:28:48.000Z</time>
      </trkpt>
      <trkpt lat="42.506352961063385009765625" lon="1.16757832467555999755859375">
        <ele>1158.199951171875</ele>
        <time>2020-08-13T07:28:54.000Z</time>
      </trkpt>
      <trkpt lat="42.506310380995273590087890625" lon="1.1675634048879146575927734375">
        <ele>1158.5999755859375</ele>
        <time>2020-08-13T07:28:57.000Z</time>
      </trkpt>
      <trkpt lat="42.50620434992015361785888671875" lon="1.16747665219008922576904296875">
        <ele>1159.4000244140625</ele>
        <time>2020-08-13T07:29:05.000Z</time>
      </trkpt>
      <trkpt lat="42.5061787851154804229736328125" lon="1.167451255023479461669921875">
        <ele>1159.5999755859375</ele>
        <time>2020-08-13T07:29:07.000Z</time>
      </trkpt>
      <trkpt lat="42.506122291088104248046875" lon="1.16735226474702358245849609375">
        <ele>1160.4000244140625</ele>
        <time>2020-08-13T07:29:13.000Z</time>
      </trkpt>
      <trkpt lat="42.506100498139858245849609375" lon="1.167305409908294677734375">
        <ele>1161</ele>
        <time>2020-08-13T07:29:16.000Z</time>
      </trkpt>
      <trkpt lat="42.50608943402767181396484375" lon="1.1672888137400150299072265625">
        <ele>1161.199951171875</ele>
        <time>2020-08-13T07:29:17.000Z</time>
      </trkpt>
      <trkpt lat="42.50605917535722255706787109375" lon="1.16723139770328998565673828125">
        <ele>1161.5999755859375</ele>
        <time>2020-08-13T07:29:20.000Z</time>
      </trkpt>
      <trkpt lat="42.50604844652116298675537109375" lon="1.16718496195971965789794921875">
        <ele>1161.800048828125</ele>
        <time>2020-08-13T07:29:22.000Z</time>
      </trkpt>
      <trkpt lat="42.5060498714447021484375" lon="1.16716266609728336334228515625">
        <ele>1161.800048828125</ele>
        <time>2020-08-13T07:29:23.000Z</time>
      </trkpt>
      <trkpt lat="42.50607761554419994354248046875" lon="1.167080439627170562744140625">
        <ele>1162</ele>
        <time>2020-08-13T07:29:27.000Z</time>
      </trkpt>
      <trkpt lat="42.50615707598626613616943359375" lon="1.166972815990447998046875">
        <ele>1162.199951171875</ele>
        <time>2020-08-13T07:29:34.000Z</time>
      </trkpt>
      <trkpt lat="42.50624944455921649932861328125" lon="1.16695471107959747314453125">
        <ele>1162.5999755859375</ele>
        <time>2020-08-13T07:29:39.000Z</time>
      </trkpt>
      <trkpt lat="42.50628666020929813385009765625" lon="1.16695278324186801910400390625">
        <ele>1162.800048828125</ele>
        <time>2020-08-13T07:29:41.000Z</time>
      </trkpt>
      <trkpt lat="42.50637802295386791229248046875" lon="1.1669258773326873779296875">
        <ele>1163.5999755859375</ele>
        <time>2020-08-13T07:29:46.000Z</time>
      </trkpt>
      <trkpt lat="42.50645421445369720458984375" lon="1.16690685041248798370361328125">
        <ele>1164.199951171875</ele>
        <time>2020-08-13T07:29:50.000Z</time>
      </trkpt>
      <trkpt lat="42.50654549337923526763916015625" lon="1.16686393506824970245361328125">
        <ele>1164.800048828125</ele>
        <time>2020-08-13T07:29:55.000Z</time>
      </trkpt>
      <trkpt lat="42.5065998919308185577392578125" lon="1.1668479256331920623779296875">
        <ele>1165.4000244140625</ele>
        <time>2020-08-13T07:29:58.000Z</time>
      </trkpt>
      <trkpt lat="42.50666745007038116455078125" lon="1.166818924248218536376953125">
        <ele>1166</ele>
        <time>2020-08-13T07:30:02.000Z</time>
      </trkpt>
      <trkpt lat="42.50673928298056125640869140625" lon="1.16679402999579906463623046875">
        <ele>1166.800048828125</ele>
        <time>2020-08-13T07:30:06.000Z</time>
      </trkpt>
      <trkpt lat="42.5067752413451671600341796875" lon="1.16678774356842041015625">
        <ele>1167.199951171875</ele>
        <time>2020-08-13T07:30:08.000Z</time>
      </trkpt>
      <trkpt lat="42.5068600662052631378173828125" lon="1.166772656142711639404296875">
        <ele>1168</ele>
        <time>2020-08-13T07:30:13.000Z</time>
      </trkpt>
      <trkpt lat="42.50688135623931884765625" lon="1.16677709855139255523681640625">
        <ele>1168.199951171875</ele>
        <time>2020-08-13T07:30:15.000Z</time>
      </trkpt>
      <trkpt lat="42.50688177533447742462158203125" lon="1.16677793674170970916748046875">
        <ele>1168.4000244140625</ele>
        <time>2020-08-13T07:30:17.000Z</time>
      </trkpt>
      <trkpt lat="42.50688646920025348663330078125" lon="1.166782379150390625">
        <ele>1168.4000244140625</ele>
        <time>2020-08-13T07:30:23.000Z</time>
      </trkpt>
      <trkpt lat="42.506885714828968048095703125" lon="1.1667818762362003326416015625">
        <ele>1168.4000244140625</ele>
        <time>2020-08-13T07:30:44.000Z</time>
      </trkpt>
      <trkpt lat="42.50689099542796611785888671875" lon="1.166764609515666961669921875">
        <ele>1168.5999755859375</ele>
        <time>2020-08-13T07:31:07.000Z</time>
      </trkpt>
      <trkpt lat="42.50689870677888393402099609375" lon="1.16676167584955692291259765625">
        <ele>1168.800048828125</ele>
        <time>2020-08-13T07:31:15.000Z</time>
      </trkpt>
      <trkpt lat="42.5068992935121059417724609375" lon="1.1667617596685886383056640625">
        <ele>1168.800048828125</ele>
        <time>2020-08-13T07:31:38.000Z</time>
      </trkpt>
      <trkpt lat="42.50690055079758167266845703125" lon="1.1667610891163349151611328125">
        <ele>1168.800048828125</ele>
        <time>2020-08-13T07:31:47.000Z</time>
      </trkpt>
      <trkpt lat="42.5069090165197849273681640625" lon="1.1667537130415439605712890625">
        <ele>1168.800048828125</ele>
        <time>2020-08-13T07:31:48.000Z</time>
      </trkpt>
      <trkpt lat="42.5069261156022548675537109375" lon="1.1667399667203426361083984375">
        <ele>1169</ele>
        <time>2020-08-13T07:31:54.000Z</time>
      </trkpt>
      <trkpt lat="42.50696794129908084869384765625" lon="1.1667211912572383880615234375">
        <ele>1169.199951171875</ele>
        <time>2020-08-13T07:31:59.000Z</time>
      </trkpt>
      <trkpt lat="42.5069940090179443359375" lon="1.16671624593436717987060546875">
        <ele>1169.4000244140625</ele>
        <time>2020-08-13T07:32:01.000Z</time>
      </trkpt>
      <trkpt lat="42.507070116698741912841796875" lon="1.1666725762188434600830078125">
        <ele>1170</ele>
        <time>2020-08-13T07:32:07.000Z</time>
      </trkpt>
      <trkpt lat="42.50711428932845592498779296875" lon="1.1666641943156719207763671875">
        <ele>1170.5999755859375</ele>
        <time>2020-08-13T07:32:10.000Z</time>
      </trkpt>
      <trkpt lat="42.507129125297069549560546875" lon="1.16665774025022983551025390625">
        <ele>1170.800048828125</ele>
        <time>2020-08-13T07:32:11.000Z</time>
      </trkpt>
      <trkpt lat="42.50715955160558223724365234375" lon="1.16664634086191654205322265625">
        <ele>1171</ele>
        <time>2020-08-13T07:32:13.000Z</time>
      </trkpt>
      <trkpt lat="42.50723917968571186065673828125" lon="1.1666400544345378875732421875">
        <ele>1171.5999755859375</ele>
        <time>2020-08-13T07:32:18.000Z</time>
      </trkpt>
      <trkpt lat="42.50727086327970027923583984375" lon="1.16663821041584014892578125">
        <ele>1172</ele>
        <time>2020-08-13T07:32:20.000Z</time>
      </trkpt>
      <trkpt lat="42.50737689435482025146484375" lon="1.16666411049664020538330078125">
        <ele>1172.800048828125</ele>
        <time>2020-08-13T07:32:27.000Z</time>
      </trkpt>
      <trkpt lat="42.507404722273349761962890625" lon="1.16666905581951141357421875">
        <ele>1172.800048828125</ele>
        <time>2020-08-13T07:32:29.000Z</time>
      </trkpt>
      <trkpt lat="42.50750991515815258026123046875" lon="1.16668741218745708465576171875">
        <ele>1173.800048828125</ele>
        <time>2020-08-13T07:32:36.000Z</time>
      </trkpt>
      <trkpt lat="42.5075527466833591461181640625" lon="1.1667067743837833404541015625">
        <ele>1174.199951171875</ele>
        <time>2020-08-13T07:32:39.000Z</time>
      </trkpt>
      <trkpt lat="42.507618628442287445068359375" lon="1.16675513796508312225341796875">
        <ele>1175</ele>
        <time>2020-08-13T07:32:44.000Z</time>
      </trkpt>
      <trkpt lat="42.50764452852308750152587890625" lon="1.16678011603653430938720703125">
        <ele>1175.199951171875</ele>
        <time>2020-08-13T07:32:46.000Z</time>
      </trkpt>
      <trkpt lat="42.5077156908810138702392578125" lon="1.166881620883941650390625">
        <ele>1175.5999755859375</ele>
        <time>2020-08-13T07:32:52.000Z</time>
      </trkpt>
      <trkpt lat="42.5078259967267513275146484375" lon="1.1669766716659069061279296875">
        <ele>1175.800048828125</ele>
        <time>2020-08-13T07:33:00.000Z</time>
      </trkpt>
      <trkpt lat="42.50791543163359165191650390625" lon="1.16700206883251667022705078125">
        <ele>1176.199951171875</ele>
        <time>2020-08-13T07:33:06.000Z</time>
      </trkpt>
      <trkpt lat="42.508022300899028778076171875" lon="1.167026795446872711181640625">
        <ele>1176.5999755859375</ele>
        <time>2020-08-13T07:33:12.000Z</time>
      </trkpt>
      <trkpt lat="42.5081421621143817901611328125" lon="1.16704314015805721282958984375">
        <ele>1177.199951171875</ele>
        <time>2020-08-13T07:33:19.000Z</time>
      </trkpt>
      <trkpt lat="42.50815750099718570709228515625" lon="1.16703425534069538116455078125">
        <ele>1177.199951171875</ele>
        <time>2020-08-13T07:33:20.000Z</time>
      </trkpt>
      <trkpt lat="42.50822581350803375244140625" lon="1.16692847572267055511474609375">
        <ele>1178.4000244140625</ele>
        <time>2020-08-13T07:33:27.000Z</time>
      </trkpt>
      <trkpt lat="42.50822690315544605255126953125" lon="1.166845075786113739013671875">
        <ele>1179</ele>
        <time>2020-08-13T07:33:31.000Z</time>
      </trkpt>
      <trkpt lat="42.50822137109935283660888671875" lon="1.166826970875263214111328125">
        <ele>1179</ele>
        <time>2020-08-13T07:33:32.000Z</time>
      </trkpt>
      <trkpt lat="42.50821751542389392852783203125" lon="1.166808195412158966064453125">
        <ele>1179.4000244140625</ele>
        <time>2020-08-13T07:33:33.000Z</time>
      </trkpt>
      <trkpt lat="42.50820762477815151214599609375" lon="1.166692860424518585205078125">
        <ele>1180.4000244140625</ele>
        <time>2020-08-13T07:33:39.000Z</time>
      </trkpt>
      <trkpt lat="42.50818147324025630950927734375" lon="1.1665652878582477569580078125">
        <ele>1181.5999755859375</ele>
        <time>2020-08-13T07:33:46.000Z</time>
      </trkpt>
      <trkpt lat="42.50814735889434814453125" lon="1.16643662564456462860107421875">
        <ele>1182.800048828125</ele>
        <time>2020-08-13T07:33:53.000Z</time>
      </trkpt>
      <trkpt lat="42.508137635886669158935546875" lon="1.16639949381351470947265625">
        <ele>1183</ele>
        <time>2020-08-13T07:33:55.000Z</time>
      </trkpt>
      <trkpt lat="42.508100755512714385986328125" lon="1.16626781411468982696533203125">
        <ele>1183.800048828125</ele>
        <time>2020-08-13T07:34:03.000Z</time>
      </trkpt>
      <trkpt lat="42.50809815712273120880126953125" lon="1.1662518046796321868896484375">
        <ele>1183.800048828125</ele>
        <time>2020-08-13T07:34:04.000Z</time>
      </trkpt>
      <trkpt lat="42.50809798948466777801513671875" lon="1.16624468006193637847900390625">
        <ele>1184.199951171875</ele>
        <time>2020-08-13T07:34:08.000Z</time>
      </trkpt>
      <trkpt lat="42.508058845996856689453125" lon="1.16621115244925022125244140625">
        <ele>1184.199951171875</ele>
        <time>2020-08-13T07:48:50.000Z</time>
      </trkpt>
      <trkpt lat="42.50806345604360103607177734375" lon="1.1661870963871479034423828125">
        <ele>1184.199951171875</ele>
        <time>2020-08-13T07:48:55.000Z</time>
      </trkpt>
      <trkpt lat="42.508060522377490997314453125" lon="1.16615398786962032318115234375">
        <ele>1184.4000244140625</ele>
        <time>2020-08-13T07:48:57.000Z</time>
      </trkpt>
      <trkpt lat="42.508042752742767333984375" lon="1.166004873812198638916015625">
        <ele>1185.199951171875</ele>
        <time>2020-08-13T07:49:05.000Z</time>
      </trkpt>
      <trkpt lat="42.50804116018116474151611328125" lon="1.16598349995911121368408203125">
        <ele>1185.4000244140625</ele>
        <time>2020-08-13T07:49:06.000Z</time>
      </trkpt>
      <trkpt lat="42.50802204944193363189697265625" lon="1.1658518202602863311767578125">
        <ele>1185.800048828125</ele>
        <time>2020-08-13T07:49:12.000Z</time>
      </trkpt>
      <trkpt lat="42.50800981186330318450927734375" lon="1.16570957936346530914306640625">
        <ele>1186.4000244140625</ele>
        <time>2020-08-13T07:49:18.000Z</time>
      </trkpt>
      <trkpt lat="42.5080000050365924835205078125" lon="1.16561603732407093048095703125">
        <ele>1186.800048828125</ele>
        <time>2020-08-13T07:49:22.000Z</time>
      </trkpt>
      <trkpt lat="42.50798718072474002838134765625" lon="1.16544471122324466705322265625">
        <ele>1187</ele>
        <time>2020-08-13T07:49:30.000Z</time>
      </trkpt>
      <trkpt lat="42.50797796063125133514404296875" lon="1.16531479172408580780029296875">
        <ele>1187.4000244140625</ele>
        <time>2020-08-13T07:49:35.000Z</time>
      </trkpt>
      <trkpt lat="42.5079718418419361114501953125" lon="1.165240444242954254150390625">
        <ele>1187.5999755859375</ele>
        <time>2020-08-13T07:49:38.000Z</time>
      </trkpt>
      <trkpt lat="42.507947199046611785888671875" lon="1.165086217224597930908203125">
        <ele>1187.5999755859375</ele>
        <time>2020-08-13T07:49:44.000Z</time>
      </trkpt>
      <trkpt lat="42.50792381353676319122314453125" lon="1.16483383812010288238525390625">
        <ele>1187.4000244140625</ele>
        <time>2020-08-13T07:49:52.000Z</time>
      </trkpt>
      <trkpt lat="42.507898919284343719482421875" lon="1.1645620130002498626708984375">
        <ele>1187.199951171875</ele>
        <time>2020-08-13T07:49:59.000Z</time>
      </trkpt>
      <trkpt lat="42.50784670002758502960205078125" lon="1.164209805428981781005859375">
        <ele>1187</ele>
        <time>2020-08-13T07:50:07.000Z</time>
      </trkpt>
      <trkpt lat="42.5077857635915279388427734375" lon="1.16381862200796604156494140625">
        <ele>1186.4000244140625</ele>
        <time>2020-08-13T07:50:15.000Z</time>
      </trkpt>
      <trkpt lat="42.5077381543815135955810546875" lon="1.1633456312119960784912109375">
        <ele>1186.4000244140625</ele>
        <time>2020-08-13T07:50:24.000Z</time>
      </trkpt>
      <trkpt lat="42.50769448466598987579345703125" lon="1.16294707171618938446044921875">
        <ele>1185.5999755859375</ele>
        <time>2020-08-13T07:50:30.000Z</time>
      </trkpt>
      <trkpt lat="42.50767420046031475067138671875" lon="1.1627971194684505462646484375">
        <ele>1185.199951171875</ele>
        <time>2020-08-13T07:50:32.000Z</time>
      </trkpt>
      <trkpt lat="42.507623992860317230224609375" lon="1.16243275813758373260498046875">
        <ele>1184.4000244140625</ele>
        <time>2020-08-13T07:50:37.000Z</time>
      </trkpt>
      <trkpt lat="42.50757562927901744842529296875" lon="1.1622378788888454437255859375">
        <ele>1184.4000244140625</ele>
        <time>2020-08-13T07:50:40.000Z</time>
      </trkpt>
      <trkpt lat="42.50750538893043994903564453125" lon="1.16209547035396099090576171875">
        <ele>1184.4000244140625</ele>
        <time>2020-08-13T07:50:43.000Z</time>
      </trkpt>
      <trkpt lat="42.50741419382393360137939453125" lon="1.16200075484812259674072265625">
        <ele>1185.199951171875</ele>
        <time>2020-08-13T07:50:47.000Z</time>
      </trkpt>
      <trkpt lat="42.50739566981792449951171875" lon="1.1619860865175724029541015625">
        <ele>1185.4000244140625</ele>
        <time>2020-08-13T07:50:48.000Z</time>
      </trkpt>
      <trkpt lat="42.50726952217519283294677734375" lon="1.16195063106715679168701171875">
        <ele>1186</ele>
        <time>2020-08-13T07:50:54.000Z</time>
      </trkpt>
      <trkpt lat="42.50722509808838367462158203125" lon="1.16194459609687328338623046875">
        <ele>1186.199951171875</ele>
        <time>2020-08-13T07:50:56.000Z</time>
      </trkpt>
      <trkpt lat="42.507112361490726470947265625" lon="1.161924563348293304443359375">
        <ele>1187.199951171875</ele>
        <time>2020-08-13T07:51:01.000Z</time>
      </trkpt>
      <trkpt lat="42.50708989799022674560546875" lon="1.161919869482517242431640625">
        <ele>1187.199951171875</ele>
        <time>2020-08-13T07:51:02.000Z</time>
      </trkpt>
      <trkpt lat="42.5069412030279636383056640625" lon="1.16188961081206798553466796875">
        <ele>1188.4000244140625</ele>
        <time>2020-08-13T07:51:09.000Z</time>
      </trkpt>
      <trkpt lat="42.50690055079758167266845703125" lon="1.1618798039853572845458984375">
        <ele>1188.5999755859375</ele>
        <time>2020-08-13T07:51:11.000Z</time>
      </trkpt>
      <trkpt lat="42.50681857578456401824951171875" lon="1.16186262108385562896728515625">
        <ele>1189.199951171875</ele>
        <time>2020-08-13T07:51:15.000Z</time>
      </trkpt>
      <trkpt lat="42.506799213588237762451171875" lon="1.16185977123677730560302734375">
        <ele>1189.5999755859375</ele>
        <time>2020-08-13T07:51:16.000Z</time>
      </trkpt>
      <trkpt lat="42.5067430548369884490966796875" lon="1.16185155697166919708251953125">
        <ele>1190.5999755859375</ele>
        <time>2020-08-13T07:51:19.000Z</time>
      </trkpt>
      <trkpt lat="42.50672511756420135498046875" lon="1.1618513055145740509033203125">
        <ele>1190.800048828125</ele>
        <time>2020-08-13T07:51:20.000Z</time>
      </trkpt>
      <trkpt lat="42.5066179968416690826416015625" lon="1.16185256280004978179931640625">
        <ele>1191.800048828125</ele>
        <time>2020-08-13T07:51:26.000Z</time>
      </trkpt>
      <trkpt lat="42.50658220611512660980224609375" lon="1.16185541264712810516357421875">
        <ele>1192.199951171875</ele>
        <time>2020-08-13T07:51:28.000Z</time>
      </trkpt>
      <trkpt lat="42.50645178370177745819091796875" lon="1.1618134193122386932373046875">
        <ele>1193</ele>
        <time>2020-08-13T07:51:35.000Z</time>
      </trkpt>
      <trkpt lat="42.506416998803615570068359375" lon="1.16178869269788265228271484375">
        <ele>1193.199951171875</ele>
        <time>2020-08-13T07:51:37.000Z</time>
      </trkpt>
      <trkpt lat="42.506308369338512420654296875" lon="1.1616203002631664276123046875">
        <ele>1193.199951171875</ele>
        <time>2020-08-13T07:51:45.000Z</time>
      </trkpt>
      <trkpt lat="42.506219185888767242431640625" lon="1.1614992655813694000244140625">
        <ele>1193.5999755859375</ele>
        <time>2020-08-13T07:51:52.000Z</time>
      </trkpt>
      <trkpt lat="42.50611432828009128570556640625" lon="1.16143028251826763153076171875">
        <ele>1193.5999755859375</ele>
        <time>2020-08-13T07:51:58.000Z</time>
      </trkpt>
      <trkpt lat="42.50601927749812602996826171875" lon="1.161381416022777557373046875">
        <ele>1193.4000244140625</ele>
        <time>2020-08-13T07:52:03.000Z</time>
      </trkpt>
      <trkpt lat="42.50586672686040401458740234375" lon="1.161256693303585052490234375">
        <ele>1193.5999755859375</ele>
        <time>2020-08-13T07:52:11.000Z</time>
      </trkpt>
      <trkpt lat="42.5057543255388736724853515625" lon="1.1611492373049259185791015625">
        <ele>1193.4000244140625</ele>
        <time>2020-08-13T07:52:18.000Z</time>
      </trkpt>
      <trkpt lat="42.50566455535590648651123046875" lon="1.16108712740242481231689453125">
        <ele>1194</ele>
        <time>2020-08-13T07:52:23.000Z</time>
      </trkpt>
      <trkpt lat="42.50560889951884746551513671875" lon="1.1610513366758823394775390625">
        <ele>1194</ele>
        <time>2020-08-13T07:52:26.000Z</time>
      </trkpt>
      <trkpt lat="42.5054772198200225830078125" lon="1.1609762348234653472900390625">
        <ele>1194.199951171875</ele>
        <time>2020-08-13T07:52:33.000Z</time>
      </trkpt>
      <trkpt lat="42.50540203414857387542724609375" lon="1.16089870221912860870361328125">
        <ele>1194.4000244140625</ele>
        <time>2020-08-13T07:52:38.000Z</time>
      </trkpt>
      <trkpt lat="42.505342103540897369384765625" lon="1.1608310602605342864990234375">
        <ele>1194.199951171875</ele>
        <time>2020-08-13T07:52:42.000Z</time>
      </trkpt>
      <trkpt lat="42.50523137860000133514404296875" lon="1.1606969498097896575927734375">
        <ele>1194.199951171875</ele>
        <time>2020-08-13T07:52:47.000Z</time>
      </trkpt>
      <trkpt lat="42.50511403195559978485107421875" lon="1.1604967899620532989501953125">
        <ele>1193.800048828125</ele>
        <time>2020-08-13T07:52:52.000Z</time>
      </trkpt>
      <trkpt lat="42.505171783268451690673828125" lon="1.1603506095707416534423828125">
        <ele>1193.5999755859375</ele>
        <time>2020-08-13T07:52:55.000Z</time>
      </trkpt>
      <trkpt lat="42.5052742101252079010009765625" lon="1.160281710326671600341796875">
        <ele>1193.4000244140625</ele>
        <time>2020-08-13T07:52:58.000Z</time>
      </trkpt>
      <trkpt lat="42.50533950515091419219970703125" lon="1.160246171057224273681640625">
        <ele>1192.800048828125</ele>
        <time>2020-08-13T07:53:00.000Z</time>
      </trkpt>
      <trkpt lat="42.5055243261158466339111328125" lon="1.16013913415372371673583984375">
        <ele>1192.800048828125</ele>
        <time>2020-08-13T07:53:07.000Z</time>
      </trkpt>
      <trkpt lat="42.50572138465940952301025390625" lon="1.1600374616682529449462890625">
        <ele>1193.4000244140625</ele>
        <time>2020-08-13T07:53:16.000Z</time>
      </trkpt>
      <trkpt lat="42.50578760169446468353271484375" lon="1.16001424379646778106689453125">
        <ele>1193.800048828125</ele>
        <time>2020-08-13T07:53:19.000Z</time>
      </trkpt>
      <trkpt lat="42.505809478461742401123046875" lon="1.16000904701650142669677734375">
        <ele>1194</ele>
        <time>2020-08-13T07:53:20.000Z</time>
      </trkpt>
      <trkpt lat="42.50591668300330638885498046875" lon="1.15998004563152790069580078125">
        <ele>1194</ele>
        <time>2020-08-13T07:53:25.000Z</time>
      </trkpt>
      <trkpt lat="42.50606806017458438873291015625" lon="1.15993662737309932708740234375">
        <ele>1194.800048828125</ele>
        <time>2020-08-13T07:53:32.000Z</time>
      </trkpt>
      <trkpt lat="42.506111562252044677734375" lon="1.15992807783186435699462890625">
        <ele>1194.800048828125</ele>
        <time>2020-08-13T07:53:34.000Z</time>
      </trkpt>
      <trkpt lat="42.50625665299594402313232421875" lon="1.15988248027861118316650390625">
        <ele>1195.4000244140625</ele>
        <time>2020-08-13T07:53:41.000Z</time>
      </trkpt>
      <trkpt lat="42.50633225776255130767822265625" lon="1.1598537303507328033447265625">
        <ele>1195.800048828125</ele>
        <time>2020-08-13T07:53:45.000Z</time>
      </trkpt>
      <trkpt lat="42.5063869915902614593505859375" lon="1.159822046756744384765625">
        <ele>1196.199951171875</ele>
        <time>2020-08-13T07:53:48.000Z</time>
      </trkpt>
      <trkpt lat="42.506486065685749053955078125" lon="1.159749962389469146728515625">
        <ele>1197</ele>
        <time>2020-08-13T07:53:53.000Z</time>
      </trkpt>
      <trkpt lat="42.506562173366546630859375" lon="1.15969573147594928741455078125">
        <ele>1197.4000244140625</ele>
        <time>2020-08-13T07:53:57.000Z</time>
      </trkpt>
      <trkpt lat="42.5066920928657054901123046875" lon="1.1595741100609302520751953125">
        <ele>1198</ele>
        <time>2020-08-13T07:54:05.000Z</time>
      </trkpt>
      <trkpt lat="42.50670659355819225311279296875" lon="1.15955860354006290435791015625">
        <ele>1198.199951171875</ele>
        <time>2020-08-13T07:54:06.000Z</time>
      </trkpt>
      <trkpt lat="42.506792508065700531005859375" lon="1.15945525467395782470703125">
        <ele>1198.800048828125</ele>
        <time>2020-08-13T07:54:12.000Z</time>
      </trkpt>
      <trkpt lat="42.50681522302329540252685546875" lon="1.15941979922354221343994140625">
        <ele>1199</ele>
        <time>2020-08-13T07:54:14.000Z</time>
      </trkpt>
      <trkpt lat="42.50685864128172397613525390625" lon="1.15932407788932323455810546875">
        <ele>1199.800048828125</ele>
        <time>2020-08-13T07:54:19.000Z</time>
      </trkpt>
      <trkpt lat="42.506871633231639862060546875" lon="1.15927881561219692230224609375">
        <ele>1200.199951171875</ele>
        <time>2020-08-13T07:54:21.000Z</time>
      </trkpt>
      <trkpt lat="42.50690608285367488861083984375" lon="1.15912668406963348388671875">
        <ele>1201</ele>
        <time>2020-08-13T07:54:27.000Z</time>
      </trkpt>
      <trkpt lat="42.5069090165197849273681640625" lon="1.15910480730235576629638671875">
        <ele>1201.4000244140625</ele>
        <time>2020-08-13T07:54:28.000Z</time>
      </trkpt>
      <trkpt lat="42.50691530294716358184814453125" lon="1.15899123251438140869140625">
        <ele>1202</ele>
        <time>2020-08-13T07:54:33.000Z</time>
      </trkpt>
      <trkpt lat="42.506917230784893035888671875" lon="1.15887866355478763580322265625">
        <ele>1202.5999755859375</ele>
        <time>2020-08-13T07:54:38.000Z</time>
      </trkpt>
      <trkpt lat="42.50691463239490985870361328125" lon="1.15885955281555652618408203125">
        <ele>1202.800048828125</ele>
        <time>2020-08-13T07:54:39.000Z</time>
      </trkpt>
      <trkpt lat="42.50691345892846584320068359375" lon="1.15880104713141918182373046875">
        <ele>1203.199951171875</ele>
        <time>2020-08-13T07:54:42.000Z</time>
      </trkpt>
      <trkpt lat="42.50692167319357395172119140625" lon="1.1586789228022098541259765625">
        <ele>1203.800048828125</ele>
        <time>2020-08-13T07:54:48.000Z</time>
      </trkpt>
      <trkpt lat="42.506926953792572021484375" lon="1.15863424725830554962158203125">
        <ele>1204</ele>
        <time>2020-08-13T07:54:50.000Z</time>
      </trkpt>
      <trkpt lat="42.5069341622292995452880859375" lon="1.158481277525424957275390625">
        <ele>1204.800048828125</ele>
        <time>2020-08-13T07:54:57.000Z</time>
      </trkpt>
      <trkpt lat="42.506937682628631591796875" lon="1.15843827836215496063232421875">
        <ele>1205</ele>
        <time>2020-08-13T07:54:59.000Z</time>
      </trkpt>
      <trkpt lat="42.50695670954883098602294921875" lon="1.15828589536249637603759765625">
        <ele>1205.800048828125</ele>
        <time>2020-08-13T07:55:06.000Z</time>
      </trkpt>
      <trkpt lat="42.50696592964231967926025390625" lon="1.15824230946600437164306640625">
        <ele>1205.800048828125</ele>
        <time>2020-08-13T07:55:08.000Z</time>
      </trkpt>
      <trkpt lat="42.50698688440024852752685546875" lon="1.15811054594814777374267578125">
        <ele>1207</ele>
        <time>2020-08-13T07:55:14.000Z</time>
      </trkpt>
      <trkpt lat="42.50699141062796115875244140625" lon="1.15808925591409206390380859375">
        <ele>1207</ele>
        <time>2020-08-13T07:55:15.000Z</time>
      </trkpt>
      <trkpt lat="42.50703155994415283203125" lon="1.1579439975321292877197265625">
        <ele>1207.800048828125</ele>
        <time>2020-08-13T07:55:22.000Z</time>
      </trkpt>
      <trkpt lat="42.5070407800376415252685546875" lon="1.15790401585400104522705078125">
        <ele>1208</ele>
        <time>2020-08-13T07:55:24.000Z</time>
      </trkpt>
      <trkpt lat="42.5070645846426486968994140625" lon="1.15782254375517368316650390625">
        <ele>1208.199951171875</ele>
        <time>2020-08-13T07:55:28.000Z</time>
      </trkpt>
      <trkpt lat="42.50709316693246364593505859375" lon="1.15769547410309314727783203125">
        <ele>1209</ele>
        <time>2020-08-13T07:55:34.000Z</time>
      </trkpt>
      <trkpt lat="42.5070984475314617156982421875" lon="1.15767552517354488372802734375">
        <ele>1209</ele>
        <time>2020-08-13T07:55:35.000Z</time>
      </trkpt>
      <trkpt lat="42.50713004730641841888427734375" lon="1.15754694677889347076416015625">
        <ele>1209.800048828125</ele>
        <time>2020-08-13T07:55:41.000Z</time>
      </trkpt>
      <trkpt lat="42.50714496709406375885009765625" lon="1.15748743526637554168701171875">
        <ele>1210.199951171875</ele>
        <time>2020-08-13T07:55:44.000Z</time>
      </trkpt>
      <trkpt lat="42.507163994014263153076171875" lon="1.15740613080561161041259765625">
        <ele>1210.5999755859375</ele>
        <time>2020-08-13T07:55:48.000Z</time>
      </trkpt>
      <trkpt lat="42.507196180522441864013671875" lon="1.15730185993015766143798828125">
        <ele>1211.199951171875</ele>
        <time>2020-08-13T07:55:53.000Z</time>
      </trkpt>
      <trkpt lat="42.5072137825191020965576171875" lon="1.15724050439894199371337890625">
        <ele>1211.5999755859375</ele>
        <time>2020-08-13T07:55:56.000Z</time>
      </trkpt>
      <trkpt lat="42.5072295404970645904541015625" lon="1.15719976834952831268310546875">
        <ele>1211.800048828125</ele>
        <time>2020-08-13T07:55:58.000Z</time>
      </trkpt>
      <trkpt lat="42.50724705867469310760498046875" lon="1.15714050829410552978515625">
        <ele>1212</ele>
        <time>2020-08-13T07:56:01.000Z</time>
      </trkpt>
      <trkpt lat="42.50726885162293910980224609375" lon="1.1570592038333415985107421875">
        <ele>1212.4000244140625</ele>
        <time>2020-08-13T07:56:05.000Z</time>
      </trkpt>
      <trkpt lat="42.5072895549237728118896484375" lon="1.1569981835782527923583984375">
        <ele>1212.5999755859375</ele>
        <time>2020-08-13T07:56:08.000Z</time>
      </trkpt>
      <trkpt lat="42.50731193460524082183837890625" lon="1.1568982712924480438232421875">
        <ele>1213.4000244140625</ele>
        <time>2020-08-13T07:56:13.000Z</time>
      </trkpt>
      <trkpt lat="42.50731713138520717620849609375" lon="1.15685426630079746246337890625">
        <ele>1213.5999755859375</ele>
        <time>2020-08-13T07:56:15.000Z</time>
      </trkpt>
      <trkpt lat="42.5073180533945560455322265625" lon="1.15676055662333965301513671875">
        <ele>1213.800048828125</ele>
        <time>2020-08-13T07:56:19.000Z</time>
      </trkpt>
      <trkpt lat="42.50731260515749454498291015625" lon="1.15671261213719844818115234375">
        <ele>1213.800048828125</ele>
        <time>2020-08-13T07:56:21.000Z</time>
      </trkpt>
      <trkpt lat="42.5072647444903850555419921875" lon="1.15657565183937549591064453125">
        <ele>1214.199951171875</ele>
        <time>2020-08-13T07:56:27.000Z</time>
      </trkpt>
      <trkpt lat="42.50721235759556293487548828125" lon="1.15650574676692485809326171875">
        <ele>1214.4000244140625</ele>
        <time>2020-08-13T07:56:31.000Z</time>
      </trkpt>
      <trkpt lat="42.50717547722160816192626953125" lon="1.15644891746342182159423828125">
        <ele>1214.5999755859375</ele>
        <time>2020-08-13T07:56:34.000Z</time>
      </trkpt>
      <trkpt lat="42.5071088410913944244384765625" lon="1.1563769169151782989501953125">
        <ele>1214.800048828125</ele>
        <time>2020-08-13T07:56:40.000Z</time>
      </trkpt>
      <trkpt lat="42.50708696432411670684814453125" lon="1.15635336376726627349853515625">
        <ele>1214.800048828125</ele>
        <time>2020-08-13T07:56:45.000Z</time>
      </trkpt>
      <trkpt lat="42.50708176754415035247802734375" lon="1.1563514359295368194580078125">
        <ele>1215</ele>
        <time>2020-08-13T07:56:55.000Z</time>
      </trkpt>
      <trkpt lat="42.5070820190012454986572265625" lon="1.15635168738663196563720703125">
        <ele>1215</ele>
        <time>2020-08-13T07:57:06.000Z</time>
      </trkpt>
      <trkpt lat="42.507082186639308929443359375" lon="1.15635151974856853485107421875">
        <ele>1215</ele>
        <time>2020-08-13T07:57:08.000Z</time>
      </trkpt>
      <trkpt lat="42.507078163325786590576171875" lon="1.15634548477828502655029296875">
        <ele>1215</ele>
        <time>2020-08-13T07:57:29.000Z</time>
      </trkpt>
      <trkpt lat="42.507076151669025421142578125" lon="1.156343556940555572509765625">
        <ele>1215</ele>
        <time>2020-08-13T07:57:43.000Z</time>
      </trkpt>
      <trkpt lat="42.5070769898593425750732421875" lon="1.156342886388301849365234375">
        <ele>1215</ele>
        <time>2020-08-13T07:58:07.000Z</time>
      </trkpt>
      <trkpt lat="42.507066428661346435546875" lon="1.15633106790482997894287109375">
        <ele>1215.199951171875</ele>
        <time>2020-08-13T07:58:10.000Z</time>
      </trkpt>
      <trkpt lat="42.50704228878021240234375" lon="1.15630240179598331451416015625">
        <ele>1215.199951171875</ele>
        <time>2020-08-13T07:58:12.000Z</time>
      </trkpt>
      <trkpt lat="42.50691094435751438140869140625" lon="1.15621422417461872100830078125">
        <ele>1215.199951171875</ele>
        <time>2020-08-13T07:58:19.000Z</time>
      </trkpt>
      <trkpt lat="42.506857216358184814453125" lon="1.15617985837161540985107421875">
        <ele>1215.4000244140625</ele>
        <time>2020-08-13T07:58:22.000Z</time>
      </trkpt>
      <trkpt lat="42.506763003766536712646484375" lon="1.156124956905841827392578125">
        <ele>1215.800048828125</ele>
        <time>2020-08-13T07:58:27.000Z</time>
      </trkpt>
      <trkpt lat="42.50663970597088336944580078125" lon="1.156041137874126434326171875">
        <ele>1216.4000244140625</ele>
        <time>2020-08-13T07:58:34.000Z</time>
      </trkpt>
      <trkpt lat="42.5066065974533557891845703125" lon="1.1560107953846454620361328125">
        <ele>1216.5999755859375</ele>
        <time>2020-08-13T07:58:36.000Z</time>
      </trkpt>
      <trkpt lat="42.50651632435619831085205078125" lon="1.1558931134641170501708984375">
        <ele>1216.800048828125</ele>
        <time>2020-08-13T07:58:42.000Z</time>
      </trkpt>
      <trkpt lat="42.5064399652183055877685546875" lon="1.15574232302606105804443359375">
        <ele>1217.4000244140625</ele>
        <time>2020-08-13T07:58:49.000Z</time>
      </trkpt>
      <trkpt lat="42.506412304937839508056640625" lon="1.155668981373310089111328125">
        <ele>1217.800048828125</ele>
        <time>2020-08-13T07:58:52.000Z</time>
      </trkpt>
      <trkpt lat="42.50638179481029510498046875" lon="1.1555739305913448333740234375">
        <ele>1218.199951171875</ele>
        <time>2020-08-13T07:58:56.000Z</time>
      </trkpt>
      <trkpt lat="42.50629655085504055023193359375" lon="1.1553950607776641845703125">
        <ele>1218.800048828125</ele>
        <time>2020-08-13T07:59:04.000Z</time>
      </trkpt>
      <trkpt lat="42.5062859058380126953125" lon="1.15537016652524471282958984375">
        <ele>1219</ele>
        <time>2020-08-13T07:59:05.000Z</time>
      </trkpt>
      <trkpt lat="42.5061771087348461151123046875" lon="1.1551538296043872833251953125">
        <ele>1219.5999755859375</ele>
        <time>2020-08-13T07:59:14.000Z</time>
      </trkpt>
      <trkpt lat="42.5061509571969509124755859375" lon="1.1551068909466266632080078125">
        <ele>1219.5999755859375</ele>
        <time>2020-08-13T07:59:16.000Z</time>
      </trkpt>
      <trkpt lat="42.50611298717558383941650390625" lon="1.155031286180019378662109375">
        <ele>1219.800048828125</ele>
        <time>2020-08-13T07:59:19.000Z</time>
      </trkpt>
      <trkpt lat="42.5061033479869365692138671875" lon="1.1550036258995532989501953125">
        <ele>1220</ele>
        <time>2020-08-13T07:59:20.000Z</time>
      </trkpt>
      <trkpt lat="42.5060121528804302215576171875" lon="1.1548031307756900787353515625">
        <ele>1220.4000244140625</ele>
        <time>2020-08-13T07:59:28.000Z</time>
      </trkpt>
      <trkpt lat="42.5059789605438709259033203125" lon="1.15472777746617794036865234375">
        <ele>1221</ele>
        <time>2020-08-13T07:59:31.000Z</time>
      </trkpt>
      <trkpt lat="42.50592506490647792816162109375" lon="1.15456986241042613983154296875">
        <ele>1221.5999755859375</ele>
        <time>2020-08-13T07:59:37.000Z</time>
      </trkpt>
      <trkpt lat="42.50588022172451019287109375" lon="1.1544276215136051177978515625">
        <ele>1222</ele>
        <time>2020-08-13T07:59:43.000Z</time>
      </trkpt>
      <trkpt lat="42.50587544403970241546630859375" lon="1.15440356545150279998779296875">
        <ele>1222.199951171875</ele>
        <time>2020-08-13T07:59:44.000Z</time>
      </trkpt>
      <trkpt lat="42.50581593252718448638916015625" lon="1.1542014777660369873046875">
        <ele>1222.800048828125</ele>
        <time>2020-08-13T07:59:52.000Z</time>
      </trkpt>
      <trkpt lat="42.50578810460865497589111328125" lon="1.15410718135535717010498046875">
        <ele>1223</ele>
        <time>2020-08-13T07:59:56.000Z</time>
      </trkpt>
      <trkpt lat="42.50573714263737201690673828125" lon="1.15397818386554718017578125">
        <ele>1223.800048828125</ele>
        <time>2020-08-13T08:00:02.000Z</time>
      </trkpt>
      <trkpt lat="42.505714930593967437744140625" lon="1.15392914973199367523193359375">
        <ele>1224.199951171875</ele>
        <time>2020-08-13T08:00:04.000Z</time>
      </trkpt>
      <trkpt lat="42.50565332360565662384033203125" lon="1.15382353775203227996826171875">
        <ele>1225</ele>
        <time>2020-08-13T08:00:09.000Z</time>
      </trkpt>
      <trkpt lat="42.50561258755624294281005859375" lon="1.15375799126923084259033203125">
        <ele>1225.199951171875</ele>
        <time>2020-08-13T08:00:12.000Z</time>
      </trkpt>
      <trkpt lat="42.50552080571651458740234375" lon="1.15365321747958660125732421875">
        <ele>1226</ele>
        <time>2020-08-13T08:00:18.000Z</time>
      </trkpt>
      <trkpt lat="42.50550513155758380889892578125" lon="1.15363779477775096893310546875">
        <ele>1226.199951171875</ele>
        <time>2020-08-13T08:00:19.000Z</time>
      </trkpt>
      <trkpt lat="42.50536632724106311798095703125" lon="1.15349270403385162353515625">
        <ele>1227.199951171875</ele>
        <time>2020-08-13T08:00:27.000Z</time>
      </trkpt>
      <trkpt lat="42.505346797406673431396484375" lon="1.15346881560981273651123046875">
        <ele>1227.199951171875</ele>
        <time>2020-08-13T08:00:28.000Z</time>
      </trkpt>
      <trkpt lat="42.505214698612689971923828125" lon="1.15333923138678073883056640625">
        <ele>1227.800048828125</ele>
        <time>2020-08-13T08:00:35.000Z</time>
      </trkpt>
      <trkpt lat="42.5051444582641124725341796875" lon="1.15327536128461360931396484375">
        <ele>1228.4000244140625</ele>
        <time>2020-08-13T08:00:39.000Z</time>
      </trkpt>
      <trkpt lat="42.50508888624608516693115234375" lon="1.1532326973974704742431640625">
        <ele>1228.800048828125</ele>
        <time>2020-08-13T08:00:42.000Z</time>
      </trkpt>
      <trkpt lat="42.50506860204041004180908203125" lon="1.15322456695139408111572265625">
        <ele>1228.800048828125</ele>
        <time>2020-08-13T08:00:43.000Z</time>
      </trkpt>
      <trkpt lat="42.50490146689116954803466796875" lon="1.15324996411800384521484375">
        <ele>1229.4000244140625</ele>
        <time>2020-08-13T08:00:51.000Z</time>
      </trkpt>
      <trkpt lat="42.50479769892990589141845703125" lon="1.153219453990459442138671875">
        <ele>1229.800048828125</ele>
        <time>2020-08-13T08:00:56.000Z</time>
      </trkpt>
      <trkpt lat="42.5047615729272365570068359375" lon="1.15318969823420047760009765625">
        <ele>1230</ele>
        <time>2020-08-13T08:00:58.000Z</time>
      </trkpt>
      <trkpt lat="42.50461614690721035003662109375" lon="1.15307956002652645111083984375">
        <ele>1230.5999755859375</ele>
        <time>2020-08-13T08:01:06.000Z</time>
      </trkpt>
      <trkpt lat="42.504581026732921600341796875" lon="1.15304502658545970916748046875">
        <ele>1230.800048828125</ele>
        <time>2020-08-13T08:01:08.000Z</time>
      </trkpt>
      <trkpt lat="42.50447549857199192047119140625" lon="1.1529641412198543548583984375">
        <ele>1231.199951171875</ele>
        <time>2020-08-13T08:01:14.000Z</time>
      </trkpt>
      <trkpt lat="42.5043307431042194366455078125" lon="1.15300848148763179779052734375">
        <ele>1231</ele>
        <time>2020-08-13T08:01:20.000Z</time>
      </trkpt>
      <trkpt lat="42.50415078364312648773193359375" lon="1.15308274514973163604736328125">
        <ele>1230.4000244140625</ele>
        <time>2020-08-13T08:01:25.000Z</time>
      </trkpt>
      <trkpt lat="42.50410401262342929840087890625" lon="1.15308090113103389739990234375">
        <ele>1230</ele>
        <time>2020-08-13T08:01:26.000Z</time>
      </trkpt>
      <trkpt lat="42.50400778837502002716064453125" lon="1.15306489169597625732421875">
        <ele>1229</ele>
        <time>2020-08-13T08:01:28.000Z</time>
      </trkpt>
      <trkpt lat="42.5038804672658443450927734375" lon="1.1529812403023242950439453125">
        <ele>1228.199951171875</ele>
        <time>2020-08-13T08:01:31.000Z</time>
      </trkpt>
      <trkpt lat="42.50384786166250705718994140625" lon="1.15293606184422969818115234375">
        <ele>1228</ele>
        <time>2020-08-13T08:01:32.000Z</time>
      </trkpt>
      <trkpt lat="42.50381617806851863861083984375" lon="1.15288862027227878570556640625">
        <ele>1227.800048828125</ele>
        <time>2020-08-13T08:01:33.000Z</time>
      </trkpt>
      <trkpt lat="42.50370587222278118133544921875" lon="1.15274998359382152557373046875">
        <ele>1226.800048828125</ele>
        <time>2020-08-13T08:01:36.000Z</time>
      </trkpt>
      <trkpt lat="42.5036608614027500152587890625" lon="1.15270488895475864410400390625">
        <ele>1226.4000244140625</ele>
        <time>2020-08-13T08:01:37.000Z</time>
      </trkpt>
      <trkpt lat="42.50360839068889617919921875" lon="1.15266331471502780914306640625">
        <ele>1226</ele>
        <time>2020-08-13T08:01:38.000Z</time>
      </trkpt>
      <trkpt lat="42.50348559580743312835693359375" lon="1.152591146528720855712890625">
        <ele>1225.199951171875</ele>
        <time>2020-08-13T08:01:40.000Z</time>
      </trkpt>
      <trkpt lat="42.5034177862107753753662109375" lon="1.15254865027964115142822265625">
        <ele>1224.800048828125</ele>
        <time>2020-08-13T08:01:41.000Z</time>
      </trkpt>
      <trkpt lat="42.50335089862346649169921875" lon="1.1524971015751361846923828125">
        <ele>1224.4000244140625</ele>
        <time>2020-08-13T08:01:42.000Z</time>
      </trkpt>
      <trkpt lat="42.50328694470226764678955078125" lon="1.15243432112038135528564453125">
        <ele>1224</ele>
        <time>2020-08-13T08:01:43.000Z</time>
      </trkpt>
      <trkpt lat="42.50317060388624668121337890625" lon="1.1523183993995189666748046875">
        <ele>1223.5999755859375</ele>
        <time>2020-08-13T08:01:45.000Z</time>
      </trkpt>
      <trkpt lat="42.5029812566936016082763671875" lon="1.15211446769535541534423828125">
        <ele>1223.5999755859375</ele>
        <time>2020-08-13T08:01:49.000Z</time>
      </trkpt>
      <trkpt lat="42.50295535661280155181884765625" lon="1.152054704725742340087890625">
        <ele>1223.5999755859375</ele>
        <time>2020-08-13T08:01:50.000Z</time>
      </trkpt>
      <trkpt lat="42.5029772333800792694091796875" lon="1.15189150907099246978759765625">
        <ele>1224</ele>
        <time>2020-08-13T08:01:53.000Z</time>
      </trkpt>
      <trkpt lat="42.50305853784084320068359375" lon="1.15183107554912567138671875">
        <ele>1224.4000244140625</ele>
        <time>2020-08-13T08:01:56.000Z</time>
      </trkpt>
      <trkpt lat="42.5031488947570323944091796875" lon="1.15184306167066097259521484375">
        <ele>1225.199951171875</ele>
        <time>2020-08-13T08:02:00.000Z</time>
      </trkpt>
      <trkpt lat="42.5031934864819049835205078125" lon="1.15185228176414966583251953125">
        <ele>1225.4000244140625</ele>
        <time>2020-08-13T08:02:02.000Z</time>
      </trkpt>
      <trkpt lat="42.5033168680965900421142578125" lon="1.15186586044728755950927734375">
        <ele>1226.199951171875</ele>
        <time>2020-08-13T08:02:08.000Z</time>
      </trkpt>
      <trkpt lat="42.5033386610448360443115234375" lon="1.1518664471805095672607421875">
        <ele>1226.199951171875</ele>
        <time>2020-08-13T08:02:09.000Z</time>
      </trkpt>
      <trkpt lat="42.50344435684382915496826171875" lon="1.15186016075313091278076171875">
        <ele>1227</ele>
        <time>2020-08-13T08:02:14.000Z</time>
      </trkpt>
      <trkpt lat="42.5035106576979160308837890625" lon="1.15185177884995937347412109375">
        <ele>1227.5999755859375</ele>
        <time>2020-08-13T08:02:17.000Z</time>
      </trkpt>
      <trkpt lat="42.50364569015800952911376953125" lon="1.15184825845062732696533203125">
        <ele>1228.199951171875</ele>
        <time>2020-08-13T08:02:23.000Z</time>
      </trkpt>
      <trkpt lat="42.50366865657269954681396484375" lon="1.15184440277516841888427734375">
        <ele>1228.199951171875</ele>
        <time>2020-08-13T08:02:24.000Z</time>
      </trkpt>
      <trkpt lat="42.5038130767643451690673828125" lon="1.1517997272312641143798828125">
        <ele>1229.199951171875</ele>
        <time>2020-08-13T08:02:31.000Z</time>
      </trkpt>
      <trkpt lat="42.50395162962377071380615234375" lon="1.15172646939754486083984375">
        <ele>1230.199951171875</ele>
        <time>2020-08-13T08:02:38.000Z</time>
      </trkpt>
      <trkpt lat="42.503991611301898956298828125" lon="1.15170459263026714324951171875">
        <ele>1230.199951171875</ele>
        <time>2020-08-13T08:02:40.000Z</time>
      </trkpt>
      <trkpt lat="42.50409479252994060516357421875" lon="1.15167056210339069366455078125">
        <ele>1231.199951171875</ele>
        <time>2020-08-13T08:02:45.000Z</time>
      </trkpt>
      <trkpt lat="42.504137456417083740234375" lon="1.15165547467768192291259765625">
        <ele>1231.4000244140625</ele>
        <time>2020-08-13T08:02:47.000Z</time>
      </trkpt>
      <trkpt lat="42.5042291544377803802490234375" lon="1.15164223127067089080810546875">
        <ele>1231.4000244140625</ele>
        <time>2020-08-13T08:02:51.000Z</time>
      </trkpt>
      <trkpt lat="42.50438547693192958831787109375" lon="1.15163971669971942901611328125">
        <ele>1232</ele>
        <time>2020-08-13T08:02:58.000Z</time>
      </trkpt>
      <trkpt lat="42.504434175789356231689453125" lon="1.1516334302723407745361328125">
        <ele>1232.5999755859375</ele>
        <time>2020-08-13T08:03:00.000Z</time>
      </trkpt>
      <trkpt lat="42.504623942077159881591796875" lon="1.1515925265848636627197265625">
        <ele>1232.800048828125</ele>
        <time>2020-08-13T08:03:08.000Z</time>
      </trkpt>
      <trkpt lat="42.5047199986875057220458984375" lon="1.15158540196716785430908203125">
        <ele>1233.4000244140625</ele>
        <time>2020-08-13T08:03:12.000Z</time>
      </trkpt>
      <trkpt lat="42.504839189350605010986328125" lon="1.15160132758319377899169921875">
        <ele>1234</ele>
        <time>2020-08-13T08:03:17.000Z</time>
      </trkpt>
      <trkpt lat="42.50494991429150104522705078125" lon="1.15162429399788379669189453125">
        <ele>1234.4000244140625</ele>
        <time>2020-08-13T08:03:22.000Z</time>
      </trkpt>
      <trkpt lat="42.50501495786011219024658203125" lon="1.1516210250556468963623046875">
        <ele>1234.800048828125</ele>
        <time>2020-08-13T08:03:25.000Z</time>
      </trkpt>
      <trkpt lat="42.50511889345943927764892578125" lon="1.15160216577351093292236328125">
        <ele>1235.4000244140625</ele>
        <time>2020-08-13T08:03:30.000Z</time>
      </trkpt>
      <trkpt lat="42.50513859093189239501953125" lon="1.15159495733678340911865234375">
        <ele>1235.5999755859375</ele>
        <time>2020-08-13T08:03:31.000Z</time>
      </trkpt>
      <trkpt lat="42.5053023733198642730712890625" lon="1.15154399536550045013427734375">
        <ele>1236.4000244140625</ele>
        <time>2020-08-13T08:03:39.000Z</time>
      </trkpt>
      <trkpt lat="42.5053429417312145233154296875" lon="1.1515301652252674102783203125">
        <ele>1236.5999755859375</ele>
        <time>2020-08-13T08:03:41.000Z</time>
      </trkpt>
      <trkpt lat="42.5054919719696044921875" lon="1.1514844000339508056640625">
        <ele>1237.5999755859375</ele>
        <time>2020-08-13T08:03:49.000Z</time>
      </trkpt>
      <trkpt lat="42.5056456960737705230712890625" lon="1.15143620409071445465087890625">
        <ele>1238.4000244140625</ele>
        <time>2020-08-13T08:03:57.000Z</time>
      </trkpt>
      <trkpt lat="42.5056882761418819427490234375" lon="1.15143352188169956207275390625">
        <ele>1238.5999755859375</ele>
        <time>2020-08-13T08:03:59.000Z</time>
      </trkpt>
      <trkpt lat="42.5058287568390369415283203125" lon="1.15144550800323486328125">
        <ele>1239.4000244140625</ele>
        <time>2020-08-13T08:04:06.000Z</time>
      </trkpt>
      <trkpt lat="42.50584744848310947418212890625" lon="1.15145162679255008697509765625">
        <ele>1239.5999755859375</ele>
        <time>2020-08-13T08:04:07.000Z</time>
      </trkpt>
      <trkpt lat="42.5059680640697479248046875" lon="1.15146906115114688873291015625">
        <ele>1240.199951171875</ele>
        <time>2020-08-13T08:04:13.000Z</time>
      </trkpt>
      <trkpt lat="42.50604760833084583282470703125" lon="1.15150325931608676910400390625">
        <ele>1240.5999755859375</ele>
        <time>2020-08-13T08:04:17.000Z</time>
      </trkpt>
      <trkpt lat="42.506095804274082183837890625" lon="1.15155137144029140472412109375">
        <ele>1241.199951171875</ele>
        <time>2020-08-13T08:04:20.000Z</time>
      </trkpt>
      <trkpt lat="42.506235949695110321044921875" lon="1.1516096256673336029052734375">
        <ele>1241.5999755859375</ele>
        <time>2020-08-13T08:04:28.000Z</time>
      </trkpt>
      <trkpt lat="42.50631742179393768310546875" lon="1.151553802192211151123046875">
        <ele>1241.5999755859375</ele>
        <time>2020-08-13T08:04:33.000Z</time>
      </trkpt>
      <trkpt lat="42.50636226497590541839599609375" lon="1.1515066958963871002197265625">
        <ele>1241.5999755859375</ele>
        <time>2020-08-13T08:04:36.000Z</time>
      </trkpt>
      <trkpt lat="42.50647223554551601409912109375" lon="1.151370070874691009521484375">
        <ele>1242.5999755859375</ele>
        <time>2020-08-13T08:04:44.000Z</time>
      </trkpt>
      <trkpt lat="42.50649981200695037841796875" lon="1.151339896023273468017578125">
        <ele>1242.800048828125</ele>
        <time>2020-08-13T08:04:46.000Z</time>
      </trkpt>
      <trkpt lat="42.50655974261462688446044921875" lon="1.151258759200572967529296875">
        <ele>1243.5999755859375</ele>
        <time>2020-08-13T08:04:51.000Z</time>
      </trkpt>
      <trkpt lat="42.50657357275485992431640625" lon="1.151242665946483612060546875">
        <ele>1243.800048828125</ele>
        <time>2020-08-13T08:04:52.000Z</time>
      </trkpt>
      <trkpt lat="42.506677173078060150146484375" lon="1.15111626684665679931640625">
        <ele>1245</ele>
        <time>2020-08-13T08:05:00.000Z</time>
      </trkpt>
      <trkpt lat="42.5067128799855709075927734375" lon="1.1510175280272960662841796875">
        <ele>1246</ele>
        <time>2020-08-13T08:05:05.000Z</time>
      </trkpt>
      <trkpt lat="42.50671061687171459197998046875" lon="1.1509528197348117828369140625">
        <ele>1246.4000244140625</ele>
        <time>2020-08-13T08:05:08.000Z</time>
      </trkpt>
      <trkpt lat="42.50670634210109710693359375" lon="1.1508860997855663299560546875">
        <ele>1247</ele>
        <time>2020-08-13T08:05:11.000Z</time>
      </trkpt>
      <trkpt lat="42.5066907517611980438232421875" lon="1.1508022807538509368896484375">
        <ele>1247.4000244140625</ele>
        <time>2020-08-13T08:05:15.000Z</time>
      </trkpt>
      <trkpt lat="42.5066842138767242431640625" lon="1.15078191272914409637451171875">
        <ele>1247.5999755859375</ele>
        <time>2020-08-13T08:05:16.000Z</time>
      </trkpt>
      <trkpt lat="42.50666988082230091094970703125" lon="1.15069658495485782623291015625">
        <ele>1248</ele>
        <time>2020-08-13T08:05:20.000Z</time>
      </trkpt>
      <trkpt lat="42.50666200183331966400146484375" lon="1.150585524737834930419921875">
        <ele>1249</ele>
        <time>2020-08-13T08:05:25.000Z</time>
      </trkpt>
      <trkpt lat="42.50666904263198375701904296875" lon="1.15038880147039890289306640625">
        <ele>1250.199951171875</ele>
        <time>2020-08-13T08:05:34.000Z</time>
      </trkpt>
      <trkpt lat="42.5066702999174594879150390625" lon="1.1503667570650577545166015625">
        <ele>1250.199951171875</ele>
        <time>2020-08-13T08:05:35.000Z</time>
      </trkpt>
      <trkpt lat="42.50667273066937923431396484375" lon="1.15021814592182636260986328125">
        <ele>1251.4000244140625</ele>
        <time>2020-08-13T08:05:42.000Z</time>
      </trkpt>
      <trkpt lat="42.50667088665068149566650390625" lon="1.1501961015164852142333984375">
        <ele>1251.4000244140625</ele>
        <time>2020-08-13T08:05:43.000Z</time>
      </trkpt>
      <trkpt lat="42.50666066072881221771240234375" lon="1.150069870054721832275390625">
        <ele>1252.4000244140625</ele>
        <time>2020-08-13T08:05:49.000Z</time>
      </trkpt>
      <trkpt lat="42.5066609121859073638916015625" lon="1.1500090174376964569091796875">
        <ele>1253</ele>
        <time>2020-08-13T08:05:52.000Z</time>
      </trkpt>
      <trkpt lat="42.5066605769097805023193359375" lon="1.14994816482067108154296875">
        <ele>1253.4000244140625</ele>
        <time>2020-08-13T08:05:55.000Z</time>
      </trkpt>
      <trkpt lat="42.50664574094116687774658203125" lon="1.14982972852885723114013671875">
        <ele>1254.199951171875</ele>
        <time>2020-08-13T08:06:01.000Z</time>
      </trkpt>
      <trkpt lat="42.5066386163234710693359375" lon="1.1497919261455535888671875">
        <ele>1254.5999755859375</ele>
        <time>2020-08-13T08:06:03.000Z</time>
      </trkpt>
      <trkpt lat="42.506616823375225067138671875" lon="1.14965915679931640625">
        <ele>1255.800048828125</ele>
        <time>2020-08-13T08:06:10.000Z</time>
      </trkpt>
      <trkpt lat="42.506593354046344757080078125" lon="1.14950166083872318267822265625">
        <ele>1256.5999755859375</ele>
        <time>2020-08-13T08:06:18.000Z</time>
      </trkpt>
      <trkpt lat="42.50658522360026836395263671875" lon="1.149441562592983245849609375">
        <ele>1257.4000244140625</ele>
        <time>2020-08-13T08:06:21.000Z</time>
      </trkpt>
      <trkpt lat="42.50658555887639522552490234375" lon="1.14940091036260128021240234375">
        <ele>1257.5999755859375</ele>
        <time>2020-08-13T08:06:23.000Z</time>
      </trkpt>
      <trkpt lat="42.506578266620635986328125" lon="1.149282641708850860595703125">
        <ele>1258.5999755859375</ele>
        <time>2020-08-13T08:06:29.000Z</time>
      </trkpt>
      <trkpt lat="42.506578266620635986328125" lon="1.1491269059479236602783203125">
        <ele>1259.800048828125</ele>
        <time>2020-08-13T08:06:37.000Z</time>
      </trkpt>
      <trkpt lat="42.50657751224935054779052734375" lon="1.1491077952086925506591796875">
        <ele>1260</ele>
        <time>2020-08-13T08:06:38.000Z</time>
      </trkpt>
      <trkpt lat="42.50659125857055187225341796875" lon="1.14901299588382244110107421875">
        <ele>1260.5999755859375</ele>
        <time>2020-08-13T08:06:43.000Z</time>
      </trkpt>
      <trkpt lat="42.50659327022731304168701171875" lon="1.14897494204342365264892578125">
        <ele>1261</ele>
        <time>2020-08-13T08:06:45.000Z</time>
      </trkpt>
      <trkpt lat="42.50659779645502567291259765625" lon="1.148896403610706329345703125">
        <ele>1261.5999755859375</ele>
        <time>2020-08-13T08:06:49.000Z</time>
      </trkpt>
      <trkpt lat="42.50660500489175319671630859375" lon="1.14883664064109325408935546875">
        <ele>1262</ele>
        <time>2020-08-13T08:06:52.000Z</time>
      </trkpt>
      <trkpt lat="42.5066102854907512664794921875" lon="1.148797832429409027099609375">
        <ele>1262.199951171875</ele>
        <time>2020-08-13T08:06:54.000Z</time>
      </trkpt>
      <trkpt lat="42.506615817546844482421875" lon="1.1487195454537868499755859375">
        <ele>1263</ele>
        <time>2020-08-13T08:06:58.000Z</time>
      </trkpt>
      <trkpt lat="42.50661858357489109039306640625" lon="1.14860546775162220001220703125">
        <ele>1264</ele>
        <time>2020-08-13T08:07:04.000Z</time>
      </trkpt>
      <trkpt lat="42.506618164479732513427734375" lon="1.14858602173626422882080078125">
        <ele>1264.199951171875</ele>
        <time>2020-08-13T08:07:05.000Z</time>
      </trkpt>
      <trkpt lat="42.5066136382520198822021484375" lon="1.14852852188050746917724609375">
        <ele>1264.4000244140625</ele>
        <time>2020-08-13T08:07:08.000Z</time>
      </trkpt>
      <trkpt lat="42.506614811718463897705078125" lon="1.1484724469482898712158203125">
        <ele>1264.5999755859375</ele>
        <time>2020-08-13T08:07:11.000Z</time>
      </trkpt>
      <trkpt lat="42.50661690719425678253173828125" lon="1.14834018051624298095703125">
        <ele>1264.5999755859375</ele>
        <time>2020-08-13T08:07:18.000Z</time>
      </trkpt>
      <trkpt lat="42.50659578479826450347900390625" lon="1.148149073123931884765625">
        <ele>1264.4000244140625</ele>
        <time>2020-08-13T08:07:25.000Z</time>
      </trkpt>
      <trkpt lat="42.50651615671813488006591796875" lon="1.14801052026450634002685546875">
        <ele>1264.5999755859375</ele>
        <time>2020-08-13T08:07:30.000Z</time>
      </trkpt>
      <trkpt lat="42.5065100379288196563720703125" lon="1.14800758659839630126953125">
        <ele>1265</ele>
        <time>2020-08-13T08:07:34.000Z</time>
      </trkpt>
      <trkpt lat="42.5064946152269840240478515625" lon="1.147997193038463592529296875">
        <ele>1265.199951171875</ele>
        <time>2020-08-13T08:07:37.000Z</time>
      </trkpt>
      <trkpt lat="42.50648229382932186126708984375" lon="1.1479849554598331451416015625">
        <ele>1265.5999755859375</ele>
        <time>2020-08-13T08:07:41.000Z</time>
      </trkpt>
      <trkpt lat="42.50645379535853862762451171875" lon="1.14797028712928295135498046875">
        <ele>1266</ele>
        <time>2020-08-13T08:07:49.000Z</time>
      </trkpt>
      <trkpt lat="42.5064520351588726043701171875" lon="1.14796911366283893585205078125">
        <ele>1266.199951171875</ele>
        <time>2020-08-13T08:07:51.000Z</time>
      </trkpt>
      <trkpt lat="42.50645563937723636627197265625" lon="1.14796626381576061248779296875">
        <ele>1266</ele>
        <time>2020-08-13T08:08:04.000Z</time>
      </trkpt>
      <trkpt lat="42.5064483471214771270751953125" lon="1.14795570261776447296142578125">
        <ele>1265.800048828125</ele>
        <time>2020-08-13T08:08:10.000Z</time>
      </trkpt>
      <trkpt lat="42.5064312480390071868896484375" lon="1.1479467339813709259033203125">
        <ele>1266</ele>
        <time>2020-08-13T08:08:13.000Z</time>
      </trkpt>
      <trkpt lat="42.50639327801764011383056640625" lon="1.14791446365416049957275390625">
        <ele>1266.800048828125</ele>
        <time>2020-08-13T08:08:19.000Z</time>
      </trkpt>
      <trkpt lat="42.50638757832348346710205078125" lon="1.14790792576968669891357421875">
        <ele>1266.800048828125</ele>
        <time>2020-08-13T08:08:20.000Z</time>
      </trkpt>
      <trkpt lat="42.50637114979326725006103515625" lon="1.14788688719272613525390625">
        <ele>1267.199951171875</ele>
        <time>2020-08-13T08:08:23.000Z</time>
      </trkpt>
      <trkpt lat="42.5063516199588775634765625" lon="1.1478622443974018096923828125">
        <ele>1267.800048828125</ele>
        <time>2020-08-13T08:08:27.000Z</time>
      </trkpt>
      <trkpt lat="42.50633351504802703857421875" lon="1.1478384397923946380615234375">
        <ele>1268.199951171875</ele>
        <time>2020-08-13T08:08:33.000Z</time>
      </trkpt>
      <trkpt lat="42.5063316710293292999267578125" lon="1.14783768542110919952392578125">
        <ele>1268.4000244140625</ele>
        <time>2020-08-13T08:08:35.000Z</time>
      </trkpt>
      <trkpt lat="42.50630157999694347381591796875" lon="1.14778202958405017852783203125">
        <ele>1269</ele>
        <time>2020-08-13T08:08:43.000Z</time>
      </trkpt>
      <trkpt lat="42.50628498382866382598876953125" lon="1.14774866960942745208740234375">
        <ele>1269.199951171875</ele>
        <time>2020-08-13T08:08:47.000Z</time>
      </trkpt>
      <trkpt lat="42.506266124546527862548828125" lon="1.1477103643119335174560546875">
        <ele>1270</ele>
        <time>2020-08-13T08:08:53.000Z</time>
      </trkpt>
      <trkpt lat="42.5062528811395168304443359375" lon="1.1476832069456577301025390625">
        <ele>1270.4000244140625</ele>
        <time>2020-08-13T08:08:57.000Z</time>
      </trkpt>
      <trkpt lat="42.50623201020061969757080078125" lon="1.147639788687229156494140625">
        <ele>1270.5999755859375</ele>
        <time>2020-08-13T08:09:04.000Z</time>
      </trkpt>
      <trkpt lat="42.50622144900262355804443359375" lon="1.14760735072195529937744140625">
        <ele>1271.199951171875</ele>
        <time>2020-08-13T08:09:09.000Z</time>
      </trkpt>
      <trkpt lat="42.5062215328216552734375" lon="1.14760668016970157623291015625">
        <ele>1271.4000244140625</ele>
        <time>2020-08-13T08:09:12.000Z</time>
      </trkpt>
      <trkpt lat="42.50622044317424297332763671875" lon="1.14760584197938442230224609375">
        <ele>1271.4000244140625</ele>
        <time>2020-08-13T08:09:28.000Z</time>
      </trkpt>
      <trkpt lat="42.506217174232006072998046875" lon="1.14756326191127300262451171875">
        <ele>1271.800048828125</ele>
        <time>2020-08-13T08:09:35.000Z</time>
      </trkpt>
      <trkpt lat="42.50620334409177303314208984375" lon="1.14752084948122501373291015625">
        <ele>1272</ele>
        <time>2020-08-13T08:09:40.000Z</time>
      </trkpt>
      <trkpt lat="42.50619647093117237091064453125" lon="1.1474860645830631256103515625">
        <ele>1272.199951171875</ele>
        <time>2020-08-13T08:09:42.000Z</time>
      </trkpt>
      <trkpt lat="42.50617920421063899993896484375" lon="1.14738455973565578460693359375">
        <ele>1273.199951171875</ele>
        <time>2020-08-13T08:09:48.000Z</time>
      </trkpt>
      <trkpt lat="42.50617350451648235321044921875" lon="1.14736787974834442138671875">
        <ele>1273.4000244140625</ele>
        <time>2020-08-13T08:09:49.000Z</time>
      </trkpt>
      <trkpt lat="42.50614685006439685821533203125" lon="1.14726922474801540374755859375">
        <ele>1274.5999755859375</ele>
        <time>2020-08-13T08:09:55.000Z</time>
      </trkpt>
      <trkpt lat="42.506121955811977386474609375" lon="1.14715598523616790771484375">
        <ele>1275.800048828125</ele>
        <time>2020-08-13T08:10:02.000Z</time>
      </trkpt>
      <trkpt lat="42.50611885450780391693115234375" lon="1.14714064635336399078369140625">
        <ele>1276</ele>
        <time>2020-08-13T08:10:03.000Z</time>
      </trkpt>
      <trkpt lat="42.50610829330980777740478515625" lon="1.1470629461109638214111328125">
        <ele>1277</ele>
        <time>2020-08-13T08:10:08.000Z</time>
      </trkpt>
      <trkpt lat="42.50609974376857280731201171875" lon="1.14701659418642520904541015625">
        <ele>1277.4000244140625</ele>
        <time>2020-08-13T08:10:11.000Z</time>
      </trkpt>
      <trkpt lat="42.5060889311134815216064453125" lon="1.14695607684552669525146484375">
        <ele>1278</ele>
        <time>2020-08-13T08:10:15.000Z</time>
      </trkpt>
      <trkpt lat="42.50608515925705432891845703125" lon="1.14688935689628124237060546875">
        <ele>1278.800048828125</ele>
        <time>2020-08-13T08:10:19.000Z</time>
      </trkpt>
      <trkpt lat="42.5060802139341831207275390625" lon="1.14684342406690120697021484375">
        <ele>1279.199951171875</ele>
        <time>2020-08-13T08:10:22.000Z</time>
      </trkpt>
      <trkpt lat="42.50607795082032680511474609375" lon="1.14675658755004405975341796875">
        <ele>1279.800048828125</ele>
        <time>2020-08-13T08:10:27.000Z</time>
      </trkpt>
      <trkpt lat="42.50607459805905818939208984375" lon="1.1467087268829345703125">
        <ele>1280.4000244140625</ele>
        <time>2020-08-13T08:10:30.000Z</time>
      </trkpt>
      <trkpt lat="42.50607493333518505096435546875" lon="1.1466636322438716888427734375">
        <ele>1280.800048828125</ele>
        <time>2020-08-13T08:10:33.000Z</time>
      </trkpt>
      <trkpt lat="42.50608029775321483612060546875" lon="1.14659942686557769775390625">
        <ele>1281.199951171875</ele>
        <time>2020-08-13T08:10:37.000Z</time>
      </trkpt>
      <trkpt lat="42.5060780346393585205078125" lon="1.14655676297843456268310546875">
        <ele>1281.4000244140625</ele>
        <time>2020-08-13T08:10:40.000Z</time>
      </trkpt>
      <trkpt lat="42.50606722198426723480224609375" lon="1.1464235745370388031005859375">
        <ele>1282.4000244140625</ele>
        <time>2020-08-13T08:10:48.000Z</time>
      </trkpt>
      <trkpt lat="42.506063617765903472900390625" lon="1.146405972540378570556640625">
        <ele>1282.4000244140625</ele>
        <time>2020-08-13T08:10:49.000Z</time>
      </trkpt>
      <trkpt lat="42.50603302381932735443115234375" lon="1.146311424672603607177734375">
        <ele>1283.5999755859375</ele>
        <time>2020-08-13T08:10:55.000Z</time>
      </trkpt>
      <trkpt lat="42.5060265697538852691650390625" lon="1.14629767835140228271484375">
        <ele>1283.5999755859375</ele>
        <time>2020-08-13T08:10:56.000Z</time>
      </trkpt>
      <trkpt lat="42.5059868395328521728515625" lon="1.14622299559414386749267578125">
        <ele>1284.5999755859375</ele>
        <time>2020-08-13T08:11:02.000Z</time>
      </trkpt>
      <trkpt lat="42.505975775420665740966796875" lon="1.14619307219982147216796875">
        <ele>1284.5999755859375</ele>
        <time>2020-08-13T08:11:04.000Z</time>
      </trkpt>
      <trkpt lat="42.5059393979609012603759765625" lon="1.14613029174506664276123046875">
        <ele>1285.5999755859375</ele>
        <time>2020-08-13T08:11:09.000Z</time>
      </trkpt>
      <trkpt lat="42.50589623115956783294677734375" lon="1.14607279188930988311767578125">
        <ele>1286.4000244140625</ele>
        <time>2020-08-13T08:11:14.000Z</time>
      </trkpt>
      <trkpt lat="42.50587477348744869232177734375" lon="1.14606164395809173583984375">
        <ele>1286.5999755859375</ele>
        <time>2020-08-13T08:11:16.000Z</time>
      </trkpt>
      <trkpt lat="42.505829595029354095458984375" lon="1.1460601352155208587646484375">
        <ele>1287.4000244140625</ele>
        <time>2020-08-13T08:11:20.000Z</time>
      </trkpt>
      <trkpt lat="42.5058197043836116790771484375" lon="1.14606826566159725189208984375">
        <ele>1287.4000244140625</ele>
        <time>2020-08-13T08:11:21.000Z</time>
      </trkpt>
      <trkpt lat="42.50580252148211002349853515625" lon="1.1460926569998264312744140625">
        <ele>1287.5999755859375</ele>
        <time>2020-08-13T08:11:23.000Z</time>
      </trkpt>
      <trkpt lat="42.50578307546675205230712890625" lon="1.14615418016910552978515625">
        <ele>1288.199951171875</ele>
        <time>2020-08-13T08:11:27.000Z</time>
      </trkpt>
      <trkpt lat="42.505790032446384429931640625" lon="1.1462073214352130889892578125">
        <ele>1288.800048828125</ele>
        <time>2020-08-13T08:11:30.000Z</time>
      </trkpt>
      <trkpt lat="42.50579983927309513092041015625" lon="1.14626356400549411773681640625">
        <ele>1289</ele>
        <time>2020-08-13T08:11:33.000Z</time>
      </trkpt>
      <trkpt lat="42.50584191642701625823974609375" lon="1.14638929255306720733642578125">
        <ele>1289.800048828125</ele>
        <time>2020-08-13T08:11:40.000Z</time>
      </trkpt>
      <trkpt lat="42.5058527290821075439453125" lon="1.1464222334325313568115234375">
        <ele>1290</ele>
        <time>2020-08-13T08:11:42.000Z</time>
      </trkpt>
      <trkpt lat="42.50589405186474323272705078125" lon="1.14658274687826633453369140625">
        <ele>1290.800048828125</ele>
        <time>2020-08-13T08:11:52.000Z</time>
      </trkpt>
      <trkpt lat="42.50589371658861637115478515625" lon="1.14659900777041912078857421875">
        <ele>1290.800048828125</ele>
        <time>2020-08-13T08:11:53.000Z</time>
      </trkpt>
      <trkpt lat="42.50588382594287395477294921875" lon="1.1466974951326847076416015625">
        <ele>1292</ele>
        <time>2020-08-13T08:11:59.000Z</time>
      </trkpt>
      <trkpt lat="42.50586823560297489166259765625" lon="1.1467454396188259124755859375">
        <ele>1292.4000244140625</ele>
        <time>2020-08-13T08:12:02.000Z</time>
      </trkpt>
      <trkpt lat="42.50582247041165828704833984375" lon="1.14688399247825145721435546875">
        <ele>1292.800048828125</ele>
        <time>2020-08-13T08:12:11.000Z</time>
      </trkpt>
      <trkpt lat="42.5058186985552310943603515625" lon="1.14689941518008708953857421875">
        <ele>1293</ele>
        <time>2020-08-13T08:12:12.000Z</time>
      </trkpt>
      <trkpt lat="42.505777291953563690185546875" lon="1.1470431648194789886474609375">
        <ele>1293.800048828125</ele>
        <time>2020-08-13T08:12:21.000Z</time>
      </trkpt>
      <trkpt lat="42.5057731010019779205322265625" lon="1.1470609344542026519775390625">
        <ele>1294</ele>
        <time>2020-08-13T08:12:22.000Z</time>
      </trkpt>
      <trkpt lat="42.50573043711483478546142578125" lon="1.1472057737410068511962890625">
        <ele>1294.800048828125</ele>
        <time>2020-08-13T08:12:30.000Z</time>
      </trkpt>
      <trkpt lat="42.505719959735870361328125" lon="1.14724139682948589324951171875">
        <ele>1295.199951171875</ele>
        <time>2020-08-13T08:12:32.000Z</time>
      </trkpt>
      <trkpt lat="42.50568517483770847320556640625" lon="1.14735371433198451995849609375">
        <ele>1296.199951171875</ele>
        <time>2020-08-13T08:12:38.000Z</time>
      </trkpt>
      <trkpt lat="42.50568039715290069580078125" lon="1.14737324416637420654296875">
        <ele>1296.199951171875</ele>
        <time>2020-08-13T08:12:39.000Z</time>
      </trkpt>
      <trkpt lat="42.50565282069146633148193359375" lon="1.1475048400461673736572265625">
        <ele>1297</ele>
        <time>2020-08-13T08:12:46.000Z</time>
      </trkpt>
      <trkpt lat="42.50564410351216793060302734375" lon="1.14756326191127300262451171875">
        <ele>1297.4000244140625</ele>
        <time>2020-08-13T08:12:49.000Z</time>
      </trkpt>
      <trkpt lat="42.5056326203048229217529296875" lon="1.14768295548856258392333984375">
        <ele>1297.800048828125</ele>
        <time>2020-08-13T08:12:55.000Z</time>
      </trkpt>
      <trkpt lat="42.50563345849514007568359375" lon="1.14787288941442966461181640625">
        <ele>1298.199951171875</ele>
        <time>2020-08-13T08:13:04.000Z</time>
      </trkpt>
      <trkpt lat="42.50563622452318668365478515625" lon="1.1478927545249462127685546875">
        <ele>1298.4000244140625</ele>
        <time>2020-08-13T08:13:05.000Z</time>
      </trkpt>
      <trkpt lat="42.50566019676625728607177734375" lon="1.14801152609288692474365234375">
        <ele>1299.4000244140625</ele>
        <time>2020-08-13T08:13:11.000Z</time>
      </trkpt>
      <trkpt lat="42.50566807575523853302001953125" lon="1.148053519427776336669921875">
        <ele>1299.5999755859375</ele>
        <time>2020-08-13T08:13:13.000Z</time>
      </trkpt>
      <trkpt lat="42.50571467913687229156494140625" lon="1.14820715971291065216064453125">
        <ele>1300</ele>
        <time>2020-08-13T08:13:21.000Z</time>
      </trkpt>
      <trkpt lat="42.50573647208511829376220703125" lon="1.14826248027384281158447265625">
        <ele>1300.5999755859375</ele>
        <time>2020-08-13T08:13:24.000Z</time>
      </trkpt>
      <trkpt lat="42.50577352009713649749755859375" lon="1.14836758933961391448974609375">
        <ele>1301.199951171875</ele>
        <time>2020-08-13T08:13:30.000Z</time>
      </trkpt>
      <trkpt lat="42.50579036772251129150390625" lon="1.1484208144247531890869140625">
        <ele>1301.5999755859375</ele>
        <time>2020-08-13T08:13:33.000Z</time>
      </trkpt>
      <trkpt lat="42.50581073574721813201904296875" lon="1.14853254519402980804443359375">
        <ele>1302.5999755859375</ele>
        <time>2020-08-13T08:13:39.000Z</time>
      </trkpt>
      <trkpt lat="42.50581241212785243988037109375" lon="1.14865995012223720550537109375">
        <ele>1303.4000244140625</ele>
        <time>2020-08-13T08:13:46.000Z</time>
      </trkpt>
      <trkpt lat="42.50581308268010616302490234375" lon="1.14869557321071624755859375">
        <ele>1303.800048828125</ele>
        <time>2020-08-13T08:13:48.000Z</time>
      </trkpt>
      <trkpt lat="42.5057918764650821685791015625" lon="1.14880621433258056640625">
        <ele>1304.199951171875</ele>
        <time>2020-08-13T08:13:54.000Z</time>
      </trkpt>
      <trkpt lat="42.50575792975723743438720703125" lon="1.14893420599400997161865234375">
        <ele>1304.5999755859375</ele>
        <time>2020-08-13T08:14:01.000Z</time>
      </trkpt>
      <trkpt lat="42.5057553313672542572021484375" lon="1.148954071104526519775390625">
        <ele>1304.800048828125</ele>
        <time>2020-08-13T08:14:02.000Z</time>
      </trkpt>
      <trkpt lat="42.50572440214455127716064453125" lon="1.1491061188280582427978515625">
        <ele>1305.800048828125</ele>
        <time>2020-08-13T08:14:10.000Z</time>
      </trkpt>
      <trkpt lat="42.50572197139263153076171875" lon="1.14912665449082851409912109375">
        <ele>1305.800048828125</ele>
        <time>2020-08-13T08:14:11.000Z</time>
      </trkpt>
      <trkpt lat="42.505715601146221160888671875" lon="1.14926009438931941986083984375">
        <ele>1306.800048828125</ele>
        <time>2020-08-13T08:14:18.000Z</time>
      </trkpt>
      <trkpt lat="42.50571350567042827606201171875" lon="1.1492777802050113677978515625">
        <ele>1307</ele>
        <time>2020-08-13T08:14:19.000Z</time>
      </trkpt>
      <trkpt lat="42.50569774769246578216552734375" lon="1.14938624203205108642578125">
        <ele>1308</ele>
        <time>2020-08-13T08:14:25.000Z</time>
      </trkpt>
      <trkpt lat="42.50568802468478679656982421875" lon="1.14944064058363437652587890625">
        <ele>1308.4000244140625</ele>
        <time>2020-08-13T08:14:28.000Z</time>
      </trkpt>
      <trkpt lat="42.50566187314689159393310546875" lon="1.14954809658229351043701171875">
        <ele>1309.199951171875</ele>
        <time>2020-08-13T08:14:34.000Z</time>
      </trkpt>
      <trkpt lat="42.50564879737794399261474609375" lon="1.14958095364272594451904296875">
        <ele>1309.4000244140625</ele>
        <time>2020-08-13T08:14:36.000Z</time>
      </trkpt>
      <trkpt lat="42.50559766776859760284423828125" lon="1.14964851178228855133056640625">
        <ele>1310.199951171875</ele>
        <time>2020-08-13T08:14:41.000Z</time>
      </trkpt>
      <trkpt lat="42.50557101331651210784912109375" lon="1.14966527558863162994384765625">
        <ele>1310.4000244140625</ele>
        <time>2020-08-13T08:14:43.000Z</time>
      </trkpt>
      <trkpt lat="42.5054881162941455841064453125" lon="1.1497035808861255645751953125">
        <ele>1311.4000244140625</ele>
        <time>2020-08-13T08:14:49.000Z</time>
      </trkpt>
      <trkpt lat="42.5054297782480716705322265625" lon="1.14970785565674304962158203125">
        <ele>1311.800048828125</ele>
        <time>2020-08-13T08:14:53.000Z</time>
      </trkpt>
      <trkpt lat="42.5053261779248714447021484375" lon="1.14969695918262004852294921875">
        <ele>1312.4000244140625</ele>
        <time>2020-08-13T08:15:00.000Z</time>
      </trkpt>
      <trkpt lat="42.5053117610514163970947265625" lon="1.1496953666210174560546875">
        <ele>1312.5999755859375</ele>
        <time>2020-08-13T08:15:01.000Z</time>
      </trkpt>
      <trkpt lat="42.5051955878734588623046875" lon="1.1496740765869617462158203125">
        <ele>1313.4000244140625</ele>
        <time>2020-08-13T08:15:09.000Z</time>
      </trkpt>
      <trkpt lat="42.505181841552257537841796875" lon="1.14967214874923229217529296875">
        <ele>1313.4000244140625</ele>
        <time>2020-08-13T08:15:10.000Z</time>
      </trkpt>
      <trkpt lat="42.50508360564708709716796875" lon="1.14963493309915065765380859375">
        <ele>1314</ele>
        <time>2020-08-13T08:15:17.000Z</time>
      </trkpt>
      <trkpt lat="42.505041696131229400634765625" lon="1.149625964462757110595703125">
        <ele>1314.5999755859375</ele>
        <time>2020-08-13T08:15:20.000Z</time>
      </trkpt>
      <trkpt lat="42.50497304834425449371337890625" lon="1.14961422979831695556640625">
        <ele>1315.5999755859375</ele>
        <time>2020-08-13T08:15:25.000Z</time>
      </trkpt>
      <trkpt lat="42.50494538806378841400146484375" lon="1.149607859551906585693359375">
        <ele>1315.800048828125</ele>
        <time>2020-08-13T08:15:27.000Z</time>
      </trkpt>
      <trkpt lat="42.50485050491988658905029296875" lon="1.14959553815424442291259765625">
        <ele>1316.5999755859375</ele>
        <time>2020-08-13T08:15:34.000Z</time>
      </trkpt>
      <trkpt lat="42.5048235990107059478759765625" lon="1.14959704689681529998779296875">
        <ele>1317</ele>
        <time>2020-08-13T08:15:36.000Z</time>
      </trkpt>
      <trkpt lat="42.5047409534454345703125" lon="1.149602830410003662109375">
        <ele>1318</ele>
        <time>2020-08-13T08:15:42.000Z</time>
      </trkpt>
      <trkpt lat="42.50468797981739044189453125" lon="1.14961314015090465545654296875">
        <ele>1318.800048828125</ele>
        <time>2020-08-13T08:15:46.000Z</time>
      </trkpt>
      <trkpt lat="42.50463567674160003662109375" lon="1.1496283113956451416015625">
        <ele>1319</ele>
        <time>2020-08-13T08:15:50.000Z</time>
      </trkpt>
      <trkpt lat="42.504575662314891815185546875" lon="1.1496428959071636199951171875">
        <ele>1319.800048828125</ele>
        <time>2020-08-13T08:15:55.000Z</time>
      </trkpt>
      <trkpt lat="42.5045419670641422271728515625" lon="1.1496599949896335601806640625">
        <ele>1320.199951171875</ele>
        <time>2020-08-13T08:15:58.000Z</time>
      </trkpt>
      <trkpt lat="42.504470050334930419921875" lon="1.149684302508831024169921875">
        <ele>1321.4000244140625</ele>
        <time>2020-08-13T08:16:04.000Z</time>
      </trkpt>
      <trkpt lat="42.50435714609920978546142578125" lon="1.14970182068645954132080078125">
        <ele>1322.4000244140625</ele>
        <time>2020-08-13T08:16:13.000Z</time>
      </trkpt>
      <trkpt lat="42.504330910742282867431640625" lon="1.1497072689235210418701171875">
        <ele>1322.800048828125</ele>
        <time>2020-08-13T08:16:15.000Z</time>
      </trkpt>
      <trkpt lat="42.50423778779804706573486328125" lon="1.1497384496033191680908203125">
        <ele>1323.800048828125</ele>
        <time>2020-08-13T08:16:22.000Z</time>
      </trkpt>
      <trkpt lat="42.50421381555497646331787109375" lon="1.149752028286457061767578125">
        <ele>1324</ele>
        <time>2020-08-13T08:16:24.000Z</time>
      </trkpt>
      <trkpt lat="42.50415178947150707244873046875" lon="1.1497760005295276641845703125">
        <ele>1324.5999755859375</ele>
        <time>2020-08-13T08:16:29.000Z</time>
      </trkpt>
      <trkpt lat="42.504101581871509552001953125" lon="1.14979050122201442718505859375">
        <ele>1325.199951171875</ele>
        <time>2020-08-13T08:16:33.000Z</time>
      </trkpt>
      <trkpt lat="42.50406193546950817108154296875" lon="1.14980374462902545928955078125">
        <ele>1325.5999755859375</ele>
        <time>2020-08-13T08:16:36.000Z</time>
      </trkpt>
      <trkpt lat="42.504001669585704803466796875" lon="1.1498272977769374847412109375">
        <ele>1325.800048828125</ele>
        <time>2020-08-13T08:16:41.000Z</time>
      </trkpt>
      <trkpt lat="42.50396353192627429962158203125" lon="1.1498346738517284393310546875">
        <ele>1326.4000244140625</ele>
        <time>2020-08-13T08:16:44.000Z</time>
      </trkpt>
      <trkpt lat="42.50395045615732669830322265625" lon="1.14983576349914073944091796875">
        <ele>1326.5999755859375</ele>
        <time>2020-08-13T08:16:45.000Z</time>
      </trkpt>
      <trkpt lat="42.50389899127185344696044921875" lon="1.14985101856291294097900390625">
        <ele>1327.4000244140625</ele>
        <time>2020-08-13T08:16:49.000Z</time>
      </trkpt>
      <trkpt lat="42.5038727559149265289306640625" lon="1.149855963885784149169921875">
        <ele>1327.800048828125</ele>
        <time>2020-08-13T08:16:51.000Z</time>
      </trkpt>
      <trkpt lat="42.50379589386284351348876953125" lon="1.14987415261566638946533203125">
        <ele>1328.199951171875</ele>
        <time>2020-08-13T08:16:57.000Z</time>
      </trkpt>
      <trkpt lat="42.50375666655600070953369140625" lon="1.14987884648144245147705078125">
        <ele>1328.5999755859375</ele>
        <time>2020-08-13T08:17:00.000Z</time>
      </trkpt>
      <trkpt lat="42.503692209720611572265625" lon="1.14987582899630069732666015625">
        <ele>1329.4000244140625</ele>
        <time>2020-08-13T08:17:05.000Z</time>
      </trkpt>
      <trkpt lat="42.50366605818271636962890625" lon="1.14988035522401332855224609375">
        <ele>1329.5999755859375</ele>
        <time>2020-08-13T08:17:07.000Z</time>
      </trkpt>
      <trkpt lat="42.50359824858605861663818359375" lon="1.1498785950243473052978515625">
        <ele>1330.5999755859375</ele>
        <time>2020-08-13T08:17:12.000Z</time>
      </trkpt>
      <trkpt lat="42.50357226468622684478759765625" lon="1.149878092110157012939453125">
        <ele>1330.5999755859375</ele>
        <time>2020-08-13T08:17:14.000Z</time>
      </trkpt>
      <trkpt lat="42.50348123721778392791748046875" lon="1.1498910002410411834716796875">
        <ele>1331.800048828125</ele>
        <time>2020-08-13T08:17:21.000Z</time>
      </trkpt>
      <trkpt lat="42.50346799381077289581298828125" lon="1.149895191192626953125">
        <ele>1331.800048828125</ele>
        <time>2020-08-13T08:17:22.000Z</time>
      </trkpt>
      <trkpt lat="42.50336296856403350830078125" lon="1.14992930553853511810302734375">
        <ele>1332.800048828125</ele>
        <time>2020-08-13T08:17:30.000Z</time>
      </trkpt>
      <trkpt lat="42.5033239088952541351318359375" lon="1.14993718452751636505126953125">
        <ele>1333.4000244140625</ele>
        <time>2020-08-13T08:17:33.000Z</time>
      </trkpt>
      <trkpt lat="42.503283508121967315673828125" lon="1.14994347095489501953125">
        <ele>1334</ele>
        <time>2020-08-13T08:17:36.000Z</time>
      </trkpt>
      <trkpt lat="42.5032161176204681396484375" lon="1.1499345861375331878662109375">
        <ele>1334.4000244140625</ele>
        <time>2020-08-13T08:17:41.000Z</time>
      </trkpt>
      <trkpt lat="42.5031897984445095062255859375" lon="1.149931065738201141357421875">
        <ele>1334.800048828125</ele>
        <time>2020-08-13T08:17:43.000Z</time>
      </trkpt>
      <trkpt lat="42.503110505640506744384765625" lon="1.1499003879725933074951171875">
        <ele>1335.800048828125</ele>
        <time>2020-08-13T08:17:49.000Z</time>
      </trkpt>
      <trkpt lat="42.50309667550027370452880859375" lon="1.14989561028778553009033203125">
        <ele>1336</ele>
        <time>2020-08-13T08:17:50.000Z</time>
      </trkpt>
      <trkpt lat="42.503000535070896148681640625" lon="1.1498336680233478546142578125">
        <ele>1336.800048828125</ele>
        <time>2020-08-13T08:17:58.000Z</time>
      </trkpt>
      <trkpt lat="42.502989135682582855224609375" lon="1.14982704631984233856201171875">
        <ele>1337</ele>
        <time>2020-08-13T08:17:59.000Z</time>
      </trkpt>
      <trkpt lat="42.5029175542294979095458984375" lon="1.1497830413281917572021484375">
        <ele>1337.800048828125</ele>
        <time>2020-08-13T08:18:05.000Z</time>
      </trkpt>
      <trkpt lat="42.50287874601781368255615234375" lon="1.14976233802735805511474609375">
        <ele>1338.4000244140625</ele>
        <time>2020-08-13T08:18:08.000Z</time>
      </trkpt>
      <trkpt lat="42.50281068496406078338623046875" lon="1.1497310735285282135009765625">
        <ele>1338.5999755859375</ele>
        <time>2020-08-13T08:18:13.000Z</time>
      </trkpt>
      <trkpt lat="42.50276458449661731719970703125" lon="1.1497302353382110595703125">
        <ele>1339.4000244140625</ele>
        <time>2020-08-13T08:18:16.000Z</time>
      </trkpt>
      <trkpt lat="42.50272284261882305145263671875" lon="1.14973065443336963653564453125">
        <ele>1339.5999755859375</ele>
        <time>2020-08-13T08:18:19.000Z</time>
      </trkpt>
      <trkpt lat="42.5026513449847698211669921875" lon="1.14972964860498905181884765625">
        <ele>1340</ele>
        <time>2020-08-13T08:18:24.000Z</time>
      </trkpt>
      <trkpt lat="42.50259853899478912353515625" lon="1.1497310735285282135009765625">
        <ele>1340.800048828125</ele>
        <time>2020-08-13T08:18:28.000Z</time>
      </trkpt>
      <trkpt lat="42.50256023369729518890380859375" lon="1.1497206799685955047607421875">
        <ele>1341.800048828125</ele>
        <time>2020-08-13T08:18:31.000Z</time>
      </trkpt>
      <trkpt lat="42.50253374688327312469482421875" lon="1.14971053786575794219970703125">
        <ele>1342</ele>
        <time>2020-08-13T08:18:33.000Z</time>
      </trkpt>
      <trkpt lat="42.50245730392634868621826171875" lon="1.1496604979038238525390625">
        <ele>1342.800048828125</ele>
        <time>2020-08-13T08:18:39.000Z</time>
      </trkpt>
      <trkpt lat="42.50245076604187488555908203125" lon="1.1496516130864620208740234375">
        <ele>1343</ele>
        <time>2020-08-13T08:18:40.000Z</time>
      </trkpt>
      <trkpt lat="42.502448000013828277587890625" lon="1.1496492661535739898681640625">
        <ele>1343.4000244140625</ele>
        <time>2020-08-13T08:18:43.000Z</time>
      </trkpt>
      <trkpt lat="42.5024488382041454315185546875" lon="1.14964884705841541290283203125">
        <ele>1343.4000244140625</ele>
        <time>2020-08-13T08:19:01.000Z</time>
      </trkpt>
      <trkpt lat="42.50244892202317714691162109375" lon="1.149648763239383697509765625">
        <ele>1343.199951171875</ele>
        <time>2020-08-13T08:19:09.000Z</time>
      </trkpt>
      <trkpt lat="42.5024458207190036773681640625" lon="1.14964499138295650482177734375">
        <ele>1343.4000244140625</ele>
        <time>2020-08-13T08:22:14.000Z</time>
      </trkpt>
      <trkpt lat="42.5024404563009738922119140625" lon="1.1496402136981487274169921875">
        <ele>1343.4000244140625</ele>
        <time>2020-08-13T08:22:17.000Z</time>
      </trkpt>
      <trkpt lat="42.50241539441049098968505859375" lon="1.14960928447544574737548828125">
        <ele>1343.4000244140625</ele>
        <time>2020-08-13T08:22:20.000Z</time>
      </trkpt>
      <trkpt lat="42.502347417175769805908203125" lon="1.149524711072444915771484375">
        <ele>1344.4000244140625</ele>
        <time>2020-08-13T08:22:28.000Z</time>
      </trkpt>
      <trkpt lat="42.50233023427426815032958984375" lon="1.14950367249548435211181640625">
        <ele>1344.5999755859375</ele>
        <time>2020-08-13T08:22:30.000Z</time>
      </trkpt>
      <trkpt lat="42.50225781463086605072021484375" lon="1.1494128964841365814208984375">
        <ele>1345.4000244140625</ele>
        <time>2020-08-13T08:22:38.000Z</time>
      </trkpt>
      <trkpt lat="42.50219562090933322906494140625" lon="1.1493518762290477752685546875">
        <ele>1346.4000244140625</ele>
        <time>2020-08-13T08:22:44.000Z</time>
      </trkpt>
      <trkpt lat="42.50217667780816555023193359375" lon="1.1493279039859771728515625">
        <ele>1346.4000244140625</ele>
        <time>2020-08-13T08:22:46.000Z</time>
      </trkpt>
      <trkpt lat="42.5021128915250301361083984375" lon="1.14926956593990325927734375">
        <ele>1347.4000244140625</ele>
        <time>2020-08-13T08:22:52.000Z</time>
      </trkpt>
      <trkpt lat="42.5020837225019931793212890625" lon="1.14923863671720027923583984375">
        <ele>1348</ele>
        <time>2020-08-13T08:22:55.000Z</time>
      </trkpt>
      <trkpt lat="42.50203929841518402099609375" lon="1.14920510910451412200927734375">
        <ele>1348.5999755859375</ele>
        <time>2020-08-13T08:22:59.000Z</time>
      </trkpt>
      <trkpt lat="42.50202965922653675079345703125" lon="1.1491937935352325439453125">
        <ele>1348.5999755859375</ele>
        <time>2020-08-13T08:23:00.000Z</time>
      </trkpt>
      <trkpt lat="42.501995377242565155029296875" lon="1.14914459176361560821533203125">
        <ele>1348.5999755859375</ele>
        <time>2020-08-13T08:23:04.000Z</time>
      </trkpt>
      <trkpt lat="42.5019610114395618438720703125" lon="1.14907669834792613983154296875">
        <ele>1349.4000244140625</ele>
        <time>2020-08-13T08:23:09.000Z</time>
      </trkpt>
      <trkpt lat="42.50194801948964595794677734375" lon="1.14903009496629238128662109375">
        <ele>1349.800048828125</ele>
        <time>2020-08-13T08:23:12.000Z</time>
      </trkpt>
      <trkpt lat="42.5019144080579280853271484375" lon="1.148919872939586639404296875">
        <ele>1350.5999755859375</ele>
        <time>2020-08-13T08:23:19.000Z</time>
      </trkpt>
      <trkpt lat="42.50190787017345428466796875" lon="1.14890604279935359954833984375">
        <ele>1350.800048828125</ele>
        <time>2020-08-13T08:23:20.000Z</time>
      </trkpt>
      <trkpt lat="42.501899488270282745361328125" lon="1.14889246411621570587158203125">
        <ele>1351</ele>
        <time>2020-08-13T08:23:21.000Z</time>
      </trkpt>
      <trkpt lat="42.5018738396465778350830078125" lon="1.1488318629562854766845703125">
        <ele>1351.4000244140625</ele>
        <time>2020-08-13T08:23:25.000Z</time>
      </trkpt>
      <trkpt lat="42.50185866840183734893798828125" lon="1.1488020233809947967529296875">
        <ele>1351.5999755859375</ele>
        <time>2020-08-13T08:23:27.000Z</time>
      </trkpt>
      <trkpt lat="42.5018503703176975250244140625" lon="1.1487879417836666107177734375">
        <ele>1351.800048828125</ele>
        <time>2020-08-13T08:23:28.000Z</time>
      </trkpt>
      <trkpt lat="42.50180653296411037445068359375" lon="1.14872566424310207366943359375">
        <ele>1352.4000244140625</ele>
        <time>2020-08-13T08:23:33.000Z</time>
      </trkpt>
      <trkpt lat="42.50179563648998737335205078125" lon="1.14871845580637454986572265625">
        <ele>1352.4000244140625</ele>
        <time>2020-08-13T08:23:34.000Z</time>
      </trkpt>
      <trkpt lat="42.501751296222209930419921875" lon="1.14867788739502429962158203125">
        <ele>1353</ele>
        <time>2020-08-13T08:23:38.000Z</time>
      </trkpt>
      <trkpt lat="42.50170427374541759490966796875" lon="1.1486467905342578887939453125">
        <ele>1353.4000244140625</ele>
        <time>2020-08-13T08:23:42.000Z</time>
      </trkpt>
      <trkpt lat="42.50164476223289966583251953125" lon="1.14862374030053615570068359375">
        <ele>1354.199951171875</ele>
        <time>2020-08-13T08:23:47.000Z</time>
      </trkpt>
      <trkpt lat="42.50162087380886077880859375" lon="1.148618124425411224365234375">
        <ele>1354.4000244140625</ele>
        <time>2020-08-13T08:23:49.000Z</time>
      </trkpt>
      <trkpt lat="42.5015719234943389892578125" lon="1.14857596345245838165283203125">
        <ele>1355.4000244140625</ele>
        <time>2020-08-13T08:23:54.000Z</time>
      </trkpt>
      <trkpt lat="42.50155725516378879547119140625" lon="1.14855132065713405609130859375">
        <ele>1355.5999755859375</ele>
        <time>2020-08-13T08:23:56.000Z</time>
      </trkpt>
      <trkpt lat="42.50155247747898101806640625" lon="1.1485361494123935699462890625">
        <ele>1355.5999755859375</ele>
        <time>2020-08-13T08:23:57.000Z</time>
      </trkpt>
      <trkpt lat="42.50152557156980037689208984375" lon="1.1484888754785060882568359375">
        <ele>1356.199951171875</ele>
        <time>2020-08-13T08:24:01.000Z</time>
      </trkpt>
      <trkpt lat="42.5015080533921718597412109375" lon="1.1484637297689914703369140625">
        <ele>1356.4000244140625</ele>
        <time>2020-08-13T08:24:03.000Z</time>
      </trkpt>
      <trkpt lat="42.501433789730072021484375" lon="1.148395501077175140380859375">
        <ele>1356.5999755859375</ele>
        <time>2020-08-13T08:24:10.000Z</time>
      </trkpt>
      <trkpt lat="42.50139816664159297943115234375" lon="1.1483569443225860595703125">
        <ele>1357.199951171875</ele>
        <time>2020-08-13T08:24:14.000Z</time>
      </trkpt>
      <trkpt lat="42.50135491602122783660888671875" lon="1.148330457508563995361328125">
        <ele>1358</ele>
        <time>2020-08-13T08:24:18.000Z</time>
      </trkpt>
      <trkpt lat="42.501322142779827117919921875" lon="1.1483044736087322235107421875">
        <ele>1358.4000244140625</ele>
        <time>2020-08-13T08:24:21.000Z</time>
      </trkpt>
      <trkpt lat="42.50128115527331829071044921875" lon="1.1482810042798519134521484375">
        <ele>1359</ele>
        <time>2020-08-13T08:24:25.000Z</time>
      </trkpt>
      <trkpt lat="42.50123254023492336273193359375" lon="1.14824906922876834869384765625">
        <ele>1359.199951171875</ele>
        <time>2020-08-13T08:24:29.000Z</time>
      </trkpt>
      <trkpt lat="42.50118543393909931182861328125" lon="1.14821922965347766876220703125">
        <ele>1359.5999755859375</ele>
        <time>2020-08-13T08:24:33.000Z</time>
      </trkpt>
      <trkpt lat="42.501127682626247406005859375" lon="1.14818989299237728118896484375">
        <ele>1360.199951171875</ele>
        <time>2020-08-13T08:24:38.000Z</time>
      </trkpt>
      <trkpt lat="42.50107730738818645477294921875" lon="1.14816877059638500213623046875">
        <ele>1360.800048828125</ele>
        <time>2020-08-13T08:24:42.000Z</time>
      </trkpt>
      <trkpt lat="42.50101679004728794097900390625" lon="1.1481294594705104827880859375">
        <ele>1361.4000244140625</ele>
        <time>2020-08-13T08:24:47.000Z</time>
      </trkpt>
      <trkpt lat="42.50098225660622119903564453125" lon="1.14809450693428516387939453125">
        <ele>1361.5999755859375</ele>
        <time>2020-08-13T08:24:50.000Z</time>
      </trkpt>
      <trkpt lat="42.50092140398919582366943359375" lon="1.14799811504781246185302734375">
        <ele>1362.4000244140625</ele>
        <time>2020-08-13T08:24:57.000Z</time>
      </trkpt>
      <trkpt lat="42.50091402791440486907958984375" lon="1.1479651741683483123779296875">
        <ele>1362.5999755859375</ele>
        <time>2020-08-13T08:24:59.000Z</time>
      </trkpt>
      <trkpt lat="42.50085937790572643280029296875" lon="1.14784355275332927703857421875">
        <ele>1363.199951171875</ele>
        <time>2020-08-13T08:25:06.000Z</time>
      </trkpt>
      <trkpt lat="42.5008465535938739776611328125" lon="1.14782787859439849853515625">
        <ele>1363.4000244140625</ele>
        <time>2020-08-13T08:25:07.000Z</time>
      </trkpt>
      <trkpt lat="42.50080506317317485809326171875" lon="1.14779225550591945648193359375">
        <ele>1364</ele>
        <time>2020-08-13T08:25:11.000Z</time>
      </trkpt>
      <trkpt lat="42.5007811747491359710693359375" lon="1.14779611118137836456298828125">
        <ele>1364.199951171875</ele>
        <time>2020-08-13T08:25:13.000Z</time>
      </trkpt>
      <trkpt lat="42.50076818279922008514404296875" lon="1.14779996685683727264404296875">
        <ele>1364.4000244140625</ele>
        <time>2020-08-13T08:25:14.000Z</time>
      </trkpt>
      <trkpt lat="42.50074370764195919036865234375" lon="1.14781371317803859710693359375">
        <ele>1364.5999755859375</ele>
        <time>2020-08-13T08:25:16.000Z</time>
      </trkpt>
      <trkpt lat="42.5006841123104095458984375" lon="1.1478444747626781463623046875">
        <ele>1365.199951171875</ele>
        <time>2020-08-13T08:25:21.000Z</time>
      </trkpt>
      <trkpt lat="42.50066122971475124359130859375" lon="1.147854365408420562744140625">
        <ele>1365.4000244140625</ele>
        <time>2020-08-13T08:25:23.000Z</time>
      </trkpt>
      <trkpt lat="42.50060859136283397674560546875" lon="1.1478890664875507354736328125">
        <ele>1366.199951171875</ele>
        <time>2020-08-13T08:25:28.000Z</time>
      </trkpt>
      <trkpt lat="42.5005987845361232757568359375" lon="1.14790122024714946746826171875">
        <ele>1366.199951171875</ele>
        <time>2020-08-13T08:25:29.000Z</time>
      </trkpt>
      <trkpt lat="42.5005649216473102569580078125" lon="1.14792753942310810089111328125">
        <ele>1366.4000244140625</ele>
        <time>2020-08-13T08:25:32.000Z</time>
      </trkpt>
      <trkpt lat="42.50049761496484279632568359375" lon="1.147975064814090728759765625">
        <ele>1367.199951171875</ele>
        <time>2020-08-13T08:25:38.000Z</time>
      </trkpt>
      <trkpt lat="42.50041765160858631134033203125" lon="1.14798436872661113739013671875">
        <ele>1367.800048828125</ele>
        <time>2020-08-13T08:25:45.000Z</time>
      </trkpt>
      <trkpt lat="42.50036400742828845977783203125" lon="1.1479708738625049591064453125">
        <ele>1368.4000244140625</ele>
        <time>2020-08-13T08:25:49.000Z</time>
      </trkpt>
      <trkpt lat="42.50031061470508575439453125" lon="1.147940866649150848388671875">
        <ele>1369</ele>
        <time>2020-08-13T08:25:53.000Z</time>
      </trkpt>
      <trkpt lat="42.5002739019691944122314453125" lon="1.14790960215032100677490234375">
        <ele>1369.4000244140625</ele>
        <time>2020-08-13T08:25:56.000Z</time>
      </trkpt>
      <trkpt lat="42.500212378799915313720703125" lon="1.14786718972027301788330078125">
        <ele>1370</ele>
        <time>2020-08-13T08:26:01.000Z</time>
      </trkpt>
      <trkpt lat="42.50016787089407444000244140625" lon="1.1478216759860515594482421875">
        <ele>1370.800048828125</ele>
        <time>2020-08-13T08:26:05.000Z</time>
      </trkpt>
      <trkpt lat="42.50009746290743350982666015625" lon="1.14776761271059513092041015625">
        <ele>1371.199951171875</ele>
        <time>2020-08-13T08:26:11.000Z</time>
      </trkpt>
      <trkpt lat="42.50004733912646770477294921875" lon="1.14774649031460285186767578125">
        <ele>1371.5999755859375</ele>
        <time>2020-08-13T08:26:15.000Z</time>
      </trkpt>
      <trkpt lat="42.49999201856553554534912109375" lon="1.14776157774031162261962890625">
        <ele>1372.199951171875</ele>
        <time>2020-08-13T08:26:19.000Z</time>
      </trkpt>
      <trkpt lat="42.4999557249248027801513671875" lon="1.14778764545917510986328125">
        <ele>1372.800048828125</ele>
        <time>2020-08-13T08:26:22.000Z</time>
      </trkpt>
      <trkpt lat="42.4999114684760570526123046875" lon="1.1478313989937305450439453125">
        <ele>1373.4000244140625</ele>
        <time>2020-08-13T08:26:26.000Z</time>
      </trkpt>
      <trkpt lat="42.499867379665374755859375" lon="1.14787758328020572662353515625">
        <ele>1374</ele>
        <time>2020-08-13T08:26:30.000Z</time>
      </trkpt>
      <trkpt lat="42.49980761669576168060302734375" lon="1.1479490809142589569091796875">
        <ele>1374.5999755859375</ele>
        <time>2020-08-13T08:26:36.000Z</time>
      </trkpt>
      <trkpt lat="42.4997726641595363616943359375" lon="1.14797632209956645965576171875">
        <ele>1374.800048828125</ele>
        <time>2020-08-13T08:26:39.000Z</time>
      </trkpt>
      <trkpt lat="42.49970636330544948577880859375" lon="1.14801269955933094024658203125">
        <ele>1375.5999755859375</ele>
        <time>2020-08-13T08:26:45.000Z</time>
      </trkpt>
      <trkpt lat="42.49969412572681903839111328125" lon="1.148015297949314117431640625">
        <ele>1375.800048828125</ele>
        <time>2020-08-13T08:26:46.000Z</time>
      </trkpt>
      <trkpt lat="42.4996499530971050262451171875" lon="1.14801823161542415618896484375">
        <ele>1376.199951171875</ele>
        <time>2020-08-13T08:26:50.000Z</time>
      </trkpt>
      <trkpt lat="42.49962866306304931640625" lon="1.148017980158329010009765625">
        <ele>1376.4000244140625</ele>
        <time>2020-08-13T08:26:52.000Z</time>
      </trkpt>
      <trkpt lat="42.49959371052682399749755859375" lon="1.148014627397060394287109375">
        <ele>1376.800048828125</ele>
        <time>2020-08-13T08:26:55.000Z</time>
      </trkpt>
      <trkpt lat="42.49958247877657413482666015625" lon="1.1480111069977283477783203125">
        <ele>1376.800048828125</ele>
        <time>2020-08-13T08:26:56.000Z</time>
      </trkpt>
      <trkpt lat="42.499556578695774078369140625" lon="1.1480067484080791473388671875">
        <ele>1377</ele>
        <time>2020-08-13T08:26:58.000Z</time>
      </trkpt>
      <trkpt lat="42.49949011020362377166748046875" lon="1.14799275062978267669677734375">
        <ele>1378</ele>
        <time>2020-08-13T08:27:03.000Z</time>
      </trkpt>
      <trkpt lat="42.499447949230670928955078125" lon="1.147991158068180084228515625">
        <ele>1378.199951171875</ele>
        <time>2020-08-13T08:27:06.000Z</time>
      </trkpt>
      <trkpt lat="42.49935750849545001983642578125" lon="1.148009598255157470703125">
        <ele>1379</ele>
        <time>2020-08-13T08:27:13.000Z</time>
      </trkpt>
      <trkpt lat="42.499344348907470703125" lon="1.14801538176834583282470703125">
        <ele>1379</ele>
        <time>2020-08-13T08:27:14.000Z</time>
      </trkpt>
      <trkpt lat="42.4992422573268413543701171875" lon="1.14806391298770904541015625">
        <ele>1380.199951171875</ele>
        <time>2020-08-13T08:27:22.000Z</time>
      </trkpt>
      <trkpt lat="42.4991591088473796844482421875" lon="1.14814681001007556915283203125">
        <ele>1380.800048828125</ele>
        <time>2020-08-13T08:27:30.000Z</time>
      </trkpt>
      <trkpt lat="42.4991426803171634674072265625" lon="1.148170195519924163818359375">
        <ele>1381.199951171875</ele>
        <time>2020-08-13T08:27:32.000Z</time>
      </trkpt>
      <trkpt lat="42.4990783073008060455322265625" lon="1.14826063625514507293701171875">
        <ele>1382.199951171875</ele>
        <time>2020-08-13T08:27:39.000Z</time>
      </trkpt>
      <trkpt lat="42.49900345690548419952392578125" lon="1.1483504064381122589111328125">
        <ele>1383.199951171875</ele>
        <time>2020-08-13T08:27:47.000Z</time>
      </trkpt>
      <trkpt lat="42.49899155460298061370849609375" lon="1.14835535176098346710205078125">
        <ele>1383.4000244140625</ele>
        <time>2020-08-13T08:27:48.000Z</time>
      </trkpt>
      <trkpt lat="42.4989398382604122161865234375" lon="1.14836088381707668304443359375">
        <ele>1384.199951171875</ele>
        <time>2020-08-13T08:27:52.000Z</time>
      </trkpt>
      <trkpt lat="42.49890103004872798919677734375" lon="1.1483470536768436431884765625">
        <ele>1384.5999755859375</ele>
        <time>2020-08-13T08:27:55.000Z</time>
      </trkpt>
      <trkpt lat="42.49882944859564304351806640625" lon="1.1483115144073963165283203125">
        <ele>1385.199951171875</ele>
        <time>2020-08-13T08:28:01.000Z</time>
      </trkpt>
      <trkpt lat="42.4988181330263614654541015625" lon="1.1483044736087322235107421875">
        <ele>1385.199951171875</ele>
        <time>2020-08-13T08:28:02.000Z</time>
      </trkpt>
      <trkpt lat="42.49873909167945384979248046875" lon="1.1482649110257625579833984375">
        <ele>1386.199951171875</ele>
        <time>2020-08-13T08:28:09.000Z</time>
      </trkpt>
      <trkpt lat="42.4987262673676013946533203125" lon="1.14826365374028682708740234375">
        <ele>1386.4000244140625</ele>
        <time>2020-08-13T08:28:10.000Z</time>
      </trkpt>
      <trkpt lat="42.4986525066196918487548828125" lon="1.148262061178684234619140625">
        <ele>1387.199951171875</ele>
        <time>2020-08-13T08:28:16.000Z</time>
      </trkpt>
      <trkpt lat="42.49863951466977596282958984375" lon="1.1482675932347774505615234375">
        <ele>1387.199951171875</ele>
        <time>2020-08-13T08:28:17.000Z</time>
      </trkpt>
      <trkpt lat="42.498568184673786163330078125" lon="1.1482749693095684051513671875">
        <ele>1387.4000244140625</ele>
        <time>2020-08-13T08:28:22.000Z</time>
      </trkpt>
      <trkpt lat="42.49853960238397121429443359375" lon="1.14827455021440982818603515625">
        <ele>1388</ele>
        <time>2020-08-13T08:28:24.000Z</time>
      </trkpt>
      <trkpt lat="42.49851127155125141143798828125" lon="1.14827421493828296661376953125">
        <ele>1388.199951171875</ele>
        <time>2020-08-13T08:28:26.000Z</time>
      </trkpt>
      <trkpt lat="42.49844253994524478912353515625" lon="1.14827957935631275177001953125">
        <ele>1389.199951171875</ele>
        <time>2020-08-13T08:28:31.000Z</time>
      </trkpt>
      <trkpt lat="42.49841789714992046356201171875" lon="1.14827170036733150482177734375">
        <ele>1389.199951171875</ele>
        <time>2020-08-13T08:28:33.000Z</time>
      </trkpt>
      <trkpt lat="42.4983577989041805267333984375" lon="1.148239262402057647705078125">
        <ele>1390</ele>
        <time>2020-08-13T08:28:38.000Z</time>
      </trkpt>
      <trkpt lat="42.498338855803012847900390625" lon="1.14822057075798511505126953125">
        <ele>1390.4000244140625</ele>
        <time>2020-08-13T08:28:40.000Z</time>
      </trkpt>
      <trkpt lat="42.49825545586645603179931640625" lon="1.14813876338303089141845703125">
        <ele>1391.199951171875</ele>
        <time>2020-08-13T08:28:48.000Z</time>
      </trkpt>
      <trkpt lat="42.498199380934238433837890625" lon="1.1480520106852054595947265625">
        <ele>1392.199951171875</ele>
        <time>2020-08-13T08:28:55.000Z</time>
      </trkpt>
      <trkpt lat="42.49818219803273677825927734375" lon="1.14802812226116657257080078125">
        <ele>1392.800048828125</ele>
        <time>2020-08-13T08:28:57.000Z</time>
      </trkpt>
      <trkpt lat="42.4981670267879962921142578125" lon="1.1480082571506500244140625">
        <ele>1393.4000244140625</ele>
        <time>2020-08-13T08:28:59.000Z</time>
      </trkpt>
      <trkpt lat="42.4981499277055263519287109375" lon="1.14798168651759624481201171875">
        <ele>1393.199951171875</ele>
        <time>2020-08-13T08:29:01.000Z</time>
      </trkpt>
      <trkpt lat="42.49809485860168933868408203125" lon="1.1479044891893863677978515625">
        <ele>1394.199951171875</ele>
        <time>2020-08-13T08:29:07.000Z</time>
      </trkpt>
      <trkpt lat="42.49807608313858509063720703125" lon="1.1478816904127597808837890625">
        <ele>1394.5999755859375</ele>
        <time>2020-08-13T08:29:09.000Z</time>
      </trkpt>
      <trkpt lat="42.497993521392345428466796875" lon="1.14775654859840869903564453125">
        <ele>1395</ele>
        <time>2020-08-13T08:29:17.000Z</time>
      </trkpt>
      <trkpt lat="42.497984133660793304443359375" lon="1.147741712629795074462890625">
        <ele>1395.199951171875</ele>
        <time>2020-08-13T08:29:19.000Z</time>
      </trkpt>
      <trkpt lat="42.49792688526213169097900390625" lon="1.14765730686485767364501953125">
        <ele>1396</ele>
        <time>2020-08-13T08:29:25.000Z</time>
      </trkpt>
      <trkpt lat="42.4978780187666416168212890625" lon="1.14759645424783229827880859375">
        <ele>1397</ele>
        <time>2020-08-13T08:29:29.000Z</time>
      </trkpt>
      <trkpt lat="42.49785614199936389923095703125" lon="1.147577762603759765625">
        <ele>1397.199951171875</ele>
        <time>2020-08-13T08:29:32.000Z</time>
      </trkpt>
      <trkpt lat="42.49776477925479412078857421875" lon="1.1474812030792236328125">
        <ele>1397.800048828125</ele>
        <time>2020-08-13T08:29:40.000Z</time>
      </trkpt>
      <trkpt lat="42.49774265103042125701904296875" lon="1.14745496772229671478271484375">
        <ele>1398.199951171875</ele>
        <time>2020-08-13T08:29:43.000Z</time>
      </trkpt>
      <trkpt lat="42.4976983107626438140869140625" lon="1.14737349562346935272216796875">
        <ele>1399</ele>
        <time>2020-08-13T08:29:49.000Z</time>
      </trkpt>
      <trkpt lat="42.497691772878170013427734375" lon="1.1473600007593631744384765625">
        <ele>1399.199951171875</ele>
        <time>2020-08-13T08:29:50.000Z</time>
      </trkpt>
      <trkpt lat="42.4976386316120624542236328125" lon="1.1472714878618717193603515625">
        <ele>1400.199951171875</ele>
        <time>2020-08-13T08:29:57.000Z</time>
      </trkpt>
      <trkpt lat="42.4976332671940326690673828125" lon="1.1472590826451778411865234375">
        <ele>1400.4000244140625</ele>
        <time>2020-08-13T08:29:58.000Z</time>
      </trkpt>
      <trkpt lat="42.49761164188385009765625" lon="1.1471849866211414337158203125">
        <ele>1401.4000244140625</ele>
        <time>2020-08-13T08:30:03.000Z</time>
      </trkpt>
      <trkpt lat="42.4975896812975406646728515625" lon="1.147113405168056488037109375">
        <ele>1401.800048828125</ele>
        <time>2020-08-13T08:30:08.000Z</time>
      </trkpt>
      <trkpt lat="42.49757551588118076324462890625" lon="1.1470522172749042510986328125">
        <ele>1402.199951171875</ele>
        <time>2020-08-13T08:30:11.000Z</time>
      </trkpt>
      <trkpt lat="42.49755489639937877655029296875" lon="1.147011481225490570068359375">
        <ele>1402.800048828125</ele>
        <time>2020-08-13T08:30:15.000Z</time>
      </trkpt>
      <trkpt lat="42.49755070544779300689697265625" lon="1.14699832163751125335693359375">
        <ele>1402.800048828125</ele>
        <time>2020-08-13T08:30:16.000Z</time>
      </trkpt>
      <trkpt lat="42.49753586947917938232421875" lon="1.14695356227457523345947265625">
        <ele>1403.199951171875</ele>
        <time>2020-08-13T08:30:19.000Z</time>
      </trkpt>
      <trkpt lat="42.49751332215964794158935546875" lon="1.1469053663313388824462890625">
        <ele>1403.4000244140625</ele>
        <time>2020-08-13T08:30:22.000Z</time>
      </trkpt>
      <trkpt lat="42.49750125221908092498779296875" lon="1.1468731798231601715087890625">
        <ele>1403.5999755859375</ele>
        <time>2020-08-13T08:30:23.000Z</time>
      </trkpt>
      <trkpt lat="42.4974686466157436370849609375" lon="1.14680319093167781829833984375">
        <ele>1403.800048828125</ele>
        <time>2020-08-13T08:30:28.000Z</time>
      </trkpt>
      <trkpt lat="42.49743537046015262603759765625" lon="1.14676044322550296783447265625">
        <ele>1404.199951171875</ele>
        <time>2020-08-13T08:30:31.000Z</time>
      </trkpt>
      <trkpt lat="42.49737518839538097381591796875" lon="1.14675105549395084381103515625">
        <ele>1404.5999755859375</ele>
        <time>2020-08-13T08:30:34.000Z</time>
      </trkpt>
      <trkpt lat="42.49731701798737049102783203125" lon="1.146773435175418853759765625">
        <ele>1405.4000244140625</ele>
        <time>2020-08-13T08:30:39.000Z</time>
      </trkpt>
      <trkpt lat="42.49725180678069591522216796875" lon="1.14682347513735294342041015625">
        <ele>1405.5999755859375</ele>
        <time>2020-08-13T08:30:44.000Z</time>
      </trkpt>
      <trkpt lat="42.49720889143645763397216796875" lon="1.14687594585120677947998046875">
        <ele>1406.4000244140625</ele>
        <time>2020-08-13T08:30:48.000Z</time>
      </trkpt>
      <trkpt lat="42.49715709127485752105712890625" lon="1.146926321089267730712890625">
        <ele>1407.199951171875</ele>
        <time>2020-08-13T08:30:52.000Z</time>
      </trkpt>
      <trkpt lat="42.49713228084146976470947265625" lon="1.14694853313267230987548828125">
        <ele>1407.4000244140625</ele>
        <time>2020-08-13T08:30:54.000Z</time>
      </trkpt>
      <trkpt lat="42.497061453759670257568359375" lon="1.14701525308191776275634765625">
        <ele>1408</ele>
        <time>2020-08-13T08:31:00.000Z</time>
      </trkpt>
      <trkpt lat="42.497048713266849517822265625" lon="1.14702698774635791778564453125">
        <ele>1408.4000244140625</ele>
        <time>2020-08-13T08:31:01.000Z</time>
      </trkpt>
      <trkpt lat="42.49696095474064350128173828125" lon="1.147067807614803314208984375">
        <ele>1409.199951171875</ele>
        <time>2020-08-13T08:31:07.000Z</time>
      </trkpt>
      <trkpt lat="42.49694519676268100738525390625" lon="1.14706571213901042938232421875">
        <ele>1409.4000244140625</ele>
        <time>2020-08-13T08:31:08.000Z</time>
      </trkpt>
      <trkpt lat="42.496885769069194793701171875" lon="1.1470641195774078369140625">
        <ele>1410.4000244140625</ele>
        <time>2020-08-13T08:31:12.000Z</time>
      </trkpt>
      <trkpt lat="42.496857605874538421630859375" lon="1.1470679752528667449951171875">
        <ele>1410.5999755859375</ele>
        <time>2020-08-13T08:31:14.000Z</time>
      </trkpt>
      <trkpt lat="42.49675308354198932647705078125" lon="1.14709286950528621673583984375">
        <ele>1411.4000244140625</ele>
        <time>2020-08-13T08:31:22.000Z</time>
      </trkpt>
      <trkpt lat="42.49672626145184040069580078125" lon="1.14709789864718914031982421875">
        <ele>1411.4000244140625</ele>
        <time>2020-08-13T08:31:23.000Z</time>
      </trkpt>
      <trkpt lat="42.496669180691242218017578125" lon="1.14711952395737171173095703125">
        <ele>1412.199951171875</ele>
        <time>2020-08-13T08:31:28.000Z</time>
      </trkpt>
      <trkpt lat="42.496641688048839569091796875" lon="1.1471363715827465057373046875">
        <ele>1412.4000244140625</ele>
        <time>2020-08-13T08:31:29.000Z</time>
      </trkpt>
      <trkpt lat="42.4966286122798919677734375" lon="1.14714332856237888336181640625">
        <ele>1412.5999755859375</ele>
        <time>2020-08-13T08:31:31.000Z</time>
      </trkpt>
      <trkpt lat="42.49655057676136493682861328125" lon="1.14715254865586757659912109375">
        <ele>1413.4000244140625</ele>
        <time>2020-08-13T08:31:35.000Z</time>
      </trkpt>
      <trkpt lat="42.496508248150348663330078125" lon="1.1471293307840824127197265625">
        <ele>1414.4000244140625</ele>
        <time>2020-08-13T08:31:38.000Z</time>
      </trkpt>
      <trkpt lat="42.496508248150348663330078125" lon="1.1471293307840824127197265625">
        <ele>1414.5999755859375</ele>
        <time>2020-08-13T08:31:39.000Z</time>
      </trkpt>
      <trkpt lat="42.4964500777423381805419921875" lon="1.14703101105988025665283203125">
        <ele>1415.199951171875</ele>
        <time>2020-08-13T08:31:45.000Z</time>
      </trkpt>
      <trkpt lat="42.4963900633156299591064453125" lon="1.14692933857440948486328125">
        <ele>1415.5999755859375</ele>
        <time>2020-08-13T08:31:50.000Z</time>
      </trkpt>
      <trkpt lat="42.49636617489159107208251953125" lon="1.1468808911740779876708984375">
        <ele>1416.4000244140625</ele>
        <time>2020-08-13T08:31:53.000Z</time>
      </trkpt>
      <trkpt lat="42.49636617489159107208251953125" lon="1.1468808911740779876708984375">
        <ele>1416.5999755859375</ele>
        <time>2020-08-13T08:31:54.000Z</time>
      </trkpt>
      <trkpt lat="42.49631672166287899017333984375" lon="1.1467829905450344085693359375">
        <ele>1417.800048828125</ele>
        <time>2020-08-13T08:32:00.000Z</time>
      </trkpt>
      <trkpt lat="42.49629828147590160369873046875" lon="1.146751977503299713134765625">
        <ele>1418</ele>
        <time>2020-08-13T08:32:02.000Z</time>
      </trkpt>
      <trkpt lat="42.49625109136104583740234375" lon="1.14667276851832866668701171875">
        <ele>1418.800048828125</ele>
        <time>2020-08-13T08:32:07.000Z</time>
      </trkpt>
      <trkpt lat="42.49620147049427032470703125" lon="1.14660101942718029022216796875">
        <ele>1419.5999755859375</ele>
        <time>2020-08-13T08:32:12.000Z</time>
      </trkpt>
      <trkpt lat="42.49618671834468841552734375" lon="1.1465794779360294342041015625">
        <ele>1420</ele>
        <time>2020-08-13T08:32:14.000Z</time>
      </trkpt>
      <trkpt lat="42.49616215936839580535888671875" lon="1.1465328745543956756591796875">
        <ele>1420.4000244140625</ele>
        <time>2020-08-13T08:32:17.000Z</time>
      </trkpt>
      <trkpt lat="42.49613299034535884857177734375" lon="1.1464953236281871795654296875">
        <ele>1421</ele>
        <time>2020-08-13T08:32:21.000Z</time>
      </trkpt>
      <trkpt lat="42.49608823098242282867431640625" lon="1.14644519984722137451171875">
        <ele>1421</ele>
        <time>2020-08-13T08:32:25.000Z</time>
      </trkpt>
      <trkpt lat="42.4960138835012912750244140625" lon="1.146362721920013427734375">
        <ele>1421.5999755859375</ele>
        <time>2020-08-13T08:32:31.000Z</time>
      </trkpt>
      <trkpt lat="42.4959736503660678863525390625" lon="1.14632290787994861602783203125">
        <ele>1421.800048828125</ele>
        <time>2020-08-13T08:32:34.000Z</time>
      </trkpt>
      <trkpt lat="42.4959059245884418487548828125" lon="1.14626674912869930267333984375">
        <ele>1422.800048828125</ele>
        <time>2020-08-13T08:32:39.000Z</time>
      </trkpt>
      <trkpt lat="42.49585923738777637481689453125" lon="1.14624260924756526947021484375">
        <ele>1422.800048828125</ele>
        <time>2020-08-13T08:32:41.000Z</time>
      </trkpt>
      <trkpt lat="42.49576695263385772705078125" lon="1.146201454102993011474609375">
        <ele>1423.5999755859375</ele>
        <time>2020-08-13T08:32:48.000Z</time>
      </trkpt>
      <trkpt lat="42.49566276557743549346923828125" lon="1.14613951183855533599853515625">
        <ele>1424.800048828125</ele>
        <time>2020-08-13T08:32:55.000Z</time>
      </trkpt>
      <trkpt lat="42.495634853839874267578125" lon="1.1461228318512439727783203125">
        <ele>1425</ele>
        <time>2020-08-13T08:32:57.000Z</time>
      </trkpt>
      <trkpt lat="42.49556821770966053009033203125" lon="1.1460648290812969207763671875">
        <ele>1425.800048828125</ele>
        <time>2020-08-13T08:33:02.000Z</time>
      </trkpt>
      <trkpt lat="42.4955503642559051513671875" lon="1.14603574387729167938232421875">
        <ele>1426.5999755859375</ele>
        <time>2020-08-13T08:33:04.000Z</time>
      </trkpt>
      <trkpt lat="42.49552689492702484130859375" lon="1.14600942470133304595947265625">
        <ele>1427.199951171875</ele>
        <time>2020-08-13T08:33:05.000Z</time>
      </trkpt>
      <trkpt lat="42.49547283165156841278076171875" lon="1.14593817852437496185302734375">
        <ele>1427.800048828125</ele>
        <time>2020-08-13T08:33:12.000Z</time>
      </trkpt>
      <trkpt lat="42.495428659021854400634765625" lon="1.14589727483689785003662109375">
        <ele>1428.199951171875</ele>
        <time>2020-08-13T08:33:16.000Z</time>
      </trkpt>
      <trkpt lat="42.49540007673203945159912109375" lon="1.1458579637110233306884765625">
        <ele>1429</ele>
        <time>2020-08-13T08:33:19.000Z</time>
      </trkpt>
      <trkpt lat="42.49538146890699863433837890625" lon="1.1458338238298892974853515625">
        <ele>1429.4000244140625</ele>
        <time>2020-08-13T08:33:21.000Z</time>
      </trkpt>
      <trkpt lat="42.495340816676616668701171875" lon="1.1457912437617778778076171875">
        <ele>1430</ele>
        <time>2020-08-13T08:33:25.000Z</time>
      </trkpt>
      <trkpt lat="42.49532899819314479827880859375" lon="1.14578914828598499298095703125">
        <ele>1430.199951171875</ele>
        <time>2020-08-13T08:33:26.000Z</time>
      </trkpt>
      <trkpt lat="42.495302259922027587890625" lon="1.14579300396144390106201171875">
        <ele>1430.4000244140625</ele>
        <time>2020-08-13T08:33:28.000Z</time>
      </trkpt>
      <trkpt lat="42.49527786858379840850830078125" lon="1.14581010304391384124755859375">
        <ele>1430.4000244140625</ele>
        <time>2020-08-13T08:33:29.000Z</time>
      </trkpt>
      <trkpt lat="42.49525272287428379058837890625" lon="1.14585804753005504608154296875">
        <ele>1430.4000244140625</ele>
        <time>2020-08-13T08:33:33.000Z</time>
      </trkpt>
      <trkpt lat="42.495217435061931610107421875" lon="1.14592577330768108367919921875">
        <ele>1431</ele>
        <time>2020-08-13T08:33:39.000Z</time>
      </trkpt>
      <trkpt lat="42.4952124059200286865234375" lon="1.14593046717345714569091796875">
        <ele>1431.199951171875</ele>
        <time>2020-08-13T08:33:42.000Z</time>
      </trkpt>
      <trkpt lat="42.495208047330379486083984375" lon="1.14593616686761379241943359375">
        <ele>1431.199951171875</ele>
        <time>2020-08-13T08:33:45.000Z</time>
      </trkpt>
      <trkpt lat="42.49520234763622283935546875" lon="1.1459045670926570892333984375">
        <ele>1431.199951171875</ele>
        <time>2020-08-13T08:33:47.000Z</time>
      </trkpt>
      <trkpt lat="42.49520276673138141632080078125" lon="1.145888306200504302978515625">
        <ele>1431.199951171875</ele>
        <time>2020-08-13T08:33:49.000Z</time>
      </trkpt>
      <trkpt lat="42.49521114863455295562744140625" lon="1.14579417742788791656494140625">
        <ele>1431</ele>
        <time>2020-08-13T08:33:58.000Z</time>
      </trkpt>
      <trkpt lat="42.49521081335842609405517578125" lon="1.145799793303012847900390625">
        <ele>1431</ele>
        <time>2020-08-13T08:34:18.000Z</time>
      </trkpt>
      <trkpt lat="42.49521885998547077178955078125" lon="1.145843379199504852294921875">
        <ele>1431</ele>
        <time>2020-08-13T08:36:44.000Z</time>
      </trkpt>
      <trkpt lat="42.4952072091400623321533203125" lon="1.14589534699916839599609375">
        <ele>1430.800048828125</ele>
        <time>2020-08-13T08:36:51.000Z</time>
      </trkpt>
      <trkpt lat="42.49520611949265003204345703125" lon="1.1460990272462368011474609375">
        <ele>1431.4000244140625</ele>
        <time>2020-08-13T08:36:59.000Z</time>
      </trkpt>
      <trkpt lat="42.49520259909331798553466796875" lon="1.14626775495707988739013671875">
        <ele>1431.800048828125</ele>
        <time>2020-08-13T08:37:07.000Z</time>
      </trkpt>
      <trkpt lat="42.49520293436944484710693359375" lon="1.146318800747394561767578125">
        <ele>1432</ele>
        <time>2020-08-13T08:37:08.000Z</time>
      </trkpt>
      <trkpt lat="42.49521399848163127899169921875" lon="1.14641108550131320953369140625">
        <ele>1432.199951171875</ele>
        <time>2020-08-13T08:37:12.000Z</time>
      </trkpt>
      <trkpt lat="42.4952407367527484893798828125" lon="1.1465757898986339569091796875">
        <ele>1432.800048828125</ele>
        <time>2020-08-13T08:37:21.000Z</time>
      </trkpt>
      <trkpt lat="42.495296895503997802734375" lon="1.1466907896101474761962890625">
        <ele>1434</ele>
        <time>2020-08-13T08:37:27.000Z</time>
      </trkpt>
      <trkpt lat="42.4953252263367176055908203125" lon="1.1467390693724155426025390625">
        <ele>1434.4000244140625</ele>
        <time>2020-08-13T08:37:29.000Z</time>
      </trkpt>
      <trkpt lat="42.495358251035213470458984375" lon="1.146852560341358184814453125">
        <ele>1435</ele>
        <time>2020-08-13T08:37:36.000Z</time>
      </trkpt>
      <trkpt lat="42.4953721649944782257080078125" lon="1.1468959785997867584228515625">
        <ele>1435.199951171875</ele>
        <time>2020-08-13T08:37:38.000Z</time>
      </trkpt>
      <trkpt lat="42.49538742005825042724609375" lon="1.14702078513801097869873046875">
        <ele>1436</ele>
        <time>2020-08-13T08:37:45.000Z</time>
      </trkpt>
      <trkpt lat="42.49539068900048732757568359375" lon="1.1470833979547023773193359375">
        <ele>1436.4000244140625</ele>
        <time>2020-08-13T08:37:47.000Z</time>
      </trkpt>
      <trkpt lat="42.49537493102252483367919921875" lon="1.14714500494301319122314453125">
        <ele>1437</ele>
        <time>2020-08-13T08:37:50.000Z</time>
      </trkpt>
      <trkpt lat="42.49533788301050662994384765625" lon="1.14721943624317646026611328125">
        <ele>1437.199951171875</ele>
        <time>2020-08-13T08:37:54.000Z</time>
      </trkpt>
      <trkpt lat="42.49531256966292858123779296875" lon="1.14725053310394287109375">
        <ele>1437.4000244140625</ele>
        <time>2020-08-13T08:37:56.000Z</time>
      </trkpt>
      <trkpt lat="42.49528440646827220916748046875" lon="1.1472734995186328887939453125">
        <ele>1437.800048828125</ele>
        <time>2020-08-13T08:37:58.000Z</time>
      </trkpt>
      <trkpt lat="42.49523411504924297332763671875" lon="1.14732370711863040924072265625">
        <ele>1438.199951171875</ele>
        <time>2020-08-13T08:38:02.000Z</time>
      </trkpt>
      <trkpt lat="42.49516538344323635101318359375" lon="1.14740165881812572479248046875">
        <ele>1438.800048828125</ele>
        <time>2020-08-13T08:38:08.000Z</time>
      </trkpt>
      <trkpt lat="42.495122887194156646728515625" lon="1.1474548839032649993896484375">
        <ele>1439.5999755859375</ele>
        <time>2020-08-13T08:38:12.000Z</time>
      </trkpt>
      <trkpt lat="42.49510335735976696014404296875" lon="1.1474803648889064788818359375">
        <ele>1439.800048828125</ele>
        <time>2020-08-13T08:38:14.000Z</time>
      </trkpt>
      <trkpt lat="42.49503982253372669219970703125" lon="1.14755856804549694061279296875">
        <ele>1440.800048828125</ele>
        <time>2020-08-13T08:38:20.000Z</time>
      </trkpt>
      <trkpt lat="42.49500713311135768890380859375" lon="1.1475896649062633514404296875">
        <ele>1441.199951171875</ele>
        <time>2020-08-13T08:38:23.000Z</time>
      </trkpt>
      <trkpt lat="42.49493622221052646636962890625" lon="1.1476533673703670501708984375">
        <ele>1442</ele>
        <time>2020-08-13T08:38:30.000Z</time>
      </trkpt>
      <trkpt lat="42.49491325579583644866943359375" lon="1.1476677842438220977783203125">
        <ele>1442.4000244140625</ele>
        <time>2020-08-13T08:38:32.000Z</time>
      </trkpt>
      <trkpt lat="42.4948662333190441131591796875" lon="1.147700138390064239501953125">
        <ele>1442.800048828125</ele>
        <time>2020-08-13T08:38:36.000Z</time>
      </trkpt>
      <trkpt lat="42.49481753446161746978759765625" lon="1.14773693494498729705810546875">
        <ele>1443.4000244140625</ele>
        <time>2020-08-13T08:38:40.000Z</time>
      </trkpt>
      <trkpt lat="42.4947961606085300445556640625" lon="1.14776660688221454620361328125">
        <ele>1443.800048828125</ele>
        <time>2020-08-13T08:38:42.000Z</time>
      </trkpt>
      <trkpt lat="42.49474209733307361602783203125" lon="1.14783081226050853729248046875">
        <ele>1444.4000244140625</ele>
        <time>2020-08-13T08:38:47.000Z</time>
      </trkpt>
      <trkpt lat="42.49471418559551239013671875" lon="1.14787490107119083404541015625">
        <ele>1444.800048828125</ele>
        <time>2020-08-13T08:38:50.000Z</time>
      </trkpt>
      <trkpt lat="42.49467286281287670135498046875" lon="1.1479259468615055084228515625">
        <ele>1446</ele>
        <time>2020-08-13T08:38:55.000Z</time>
      </trkpt>
      <trkpt lat="42.4946545064449310302734375" lon="1.14794916473329067230224609375">
        <ele>1446</ele>
        <time>2020-08-13T08:38:56.000Z</time>
      </trkpt>
      <trkpt lat="42.49463447369635105133056640625" lon="1.14796743728220462799072265625">
        <ele>1446.4000244140625</ele>
        <time>2020-08-13T08:38:58.000Z</time>
      </trkpt>
      <trkpt lat="42.49459273181855678558349609375" lon="1.148006916046142578125">
        <ele>1447</ele>
        <time>2020-08-13T08:39:02.000Z</time>
      </trkpt>
      <trkpt lat="42.494530789554119110107421875" lon="1.14805854856967926025390625">
        <ele>1448</ele>
        <time>2020-08-13T08:39:08.000Z</time>
      </trkpt>
      <trkpt lat="42.49447773210704326629638671875" lon="1.148129962384700775146484375">
        <ele>1449</ele>
        <time>2020-08-13T08:39:15.000Z</time>
      </trkpt>
      <trkpt lat="42.49445040710270404815673828125" lon="1.14818737842142581939697265625">
        <ele>1449.800048828125</ele>
        <time>2020-08-13T08:39:19.000Z</time>
      </trkpt>
      <trkpt lat="42.494434900581836700439453125" lon="1.14821671508252620697021484375">
        <ele>1450.199951171875</ele>
        <time>2020-08-13T08:39:21.000Z</time>
      </trkpt>
      <trkpt lat="42.49440531246364116668701171875" lon="1.14831914193928241729736328125">
        <ele>1451</ele>
        <time>2020-08-13T08:39:27.000Z</time>
      </trkpt>
      <trkpt lat="42.49439776875078678131103515625" lon="1.1483758874237537384033203125">
        <ele>1451.199951171875</ele>
        <time>2020-08-13T08:39:29.000Z</time>
      </trkpt>
      <trkpt lat="42.49440564773976802825927734375" lon="1.1484932340681552886962890625">
        <ele>1452.199951171875</ele>
        <time>2020-08-13T08:39:35.000Z</time>
      </trkpt>
      <trkpt lat="42.4944032169878482818603515625" lon="1.14851209335029125213623046875">
        <ele>1452.4000244140625</ele>
        <time>2020-08-13T08:39:36.000Z</time>
      </trkpt>
      <trkpt lat="42.4943790771067142486572265625" lon="1.14860915578901767730712890625">
        <ele>1453.4000244140625</ele>
        <time>2020-08-13T08:39:43.000Z</time>
      </trkpt>
      <trkpt lat="42.49436675570905208587646484375" lon="1.1486427672207355499267578125">
        <ele>1453.5999755859375</ele>
        <time>2020-08-13T08:39:45.000Z</time>
      </trkpt>
      <trkpt lat="42.49431562609970569610595703125" lon="1.1487296037375926971435546875">
        <ele>1454.199951171875</ele>
        <time>2020-08-13T08:39:51.000Z</time>
      </trkpt>
      <trkpt lat="42.49427606351673603057861328125" lon="1.148775704205036163330078125">
        <ele>1455</ele>
        <time>2020-08-13T08:39:54.000Z</time>
      </trkpt>
      <trkpt lat="42.49425175599753856658935546875" lon="1.14879422821104526519775390625">
        <ele>1455.4000244140625</ele>
        <time>2020-08-13T08:39:56.000Z</time>
      </trkpt>
      <trkpt lat="42.494146563112735748291015625" lon="1.14889313466846942901611328125">
        <ele>1456.4000244140625</ele>
        <time>2020-08-13T08:40:05.000Z</time>
      </trkpt>
      <trkpt lat="42.4941356666386127471923828125" lon="1.14890235476195812225341796875">
        <ele>1456.4000244140625</ele>
        <time>2020-08-13T08:40:06.000Z</time>
      </trkpt>
      <trkpt lat="42.4940354190766811370849609375" lon="1.14895247854292392730712890625">
        <ele>1457.5999755859375</ele>
        <time>2020-08-13T08:40:14.000Z</time>
      </trkpt>
      <trkpt lat="42.493939362466335296630859375" lon="1.14900561980903148651123046875">
        <ele>1458.199951171875</ele>
        <time>2020-08-13T08:40:21.000Z</time>
      </trkpt>
      <trkpt lat="42.493906505405902862548828125" lon="1.14904115907847881317138671875">
        <ele>1458.5999755859375</ele>
        <time>2020-08-13T08:40:24.000Z</time>
      </trkpt>
      <trkpt lat="42.493862248957157135009765625" lon="1.14914140664041042327880859375">
        <ele>1459.199951171875</ele>
        <time>2020-08-13T08:40:30.000Z</time>
      </trkpt>
      <trkpt lat="42.493868954479694366455078125" lon="1.14922262728214263916015625">
        <ele>1459.5999755859375</ele>
        <time>2020-08-13T08:40:34.000Z</time>
      </trkpt>
      <trkpt lat="42.493886053562164306640625" lon="1.1492581665515899658203125">
        <ele>1460</ele>
        <time>2020-08-13T08:40:37.000Z</time>
      </trkpt>
      <trkpt lat="42.4939080141484737396240234375" lon="1.1492764391005039215087890625">
        <ele>1460.199951171875</ele>
        <time>2020-08-13T08:40:38.000Z</time>
      </trkpt>
      <trkpt lat="42.49395621009171009063720703125" lon="1.14928565919399261474609375">
        <ele>1460.5999755859375</ele>
        <time>2020-08-13T08:40:43.000Z</time>
      </trkpt>
      <trkpt lat="42.49398437328636646270751953125" lon="1.1492921970784664154052734375">
        <ele>1461</ele>
        <time>2020-08-13T08:40:44.000Z</time>
      </trkpt>
      <trkpt lat="42.4940652586519718170166015625" lon="1.149302758276462554931640625">
        <ele>1462</ele>
        <time>2020-08-13T08:40:51.000Z</time>
      </trkpt>
      <trkpt lat="42.49412552453577518463134765625" lon="1.1493156664073467254638671875">
        <ele>1462.199951171875</ele>
        <time>2020-08-13T08:40:54.000Z</time>
      </trkpt>
      <trkpt lat="42.49423968605697154998779296875" lon="1.1493247188627719879150390625">
        <ele>1463</ele>
        <time>2020-08-13T08:41:02.000Z</time>
      </trkpt>
      <trkpt lat="42.494282685220241546630859375" lon="1.1493247188627719879150390625">
        <ele>1463.4000244140625</ele>
        <time>2020-08-13T08:41:05.000Z</time>
      </trkpt>
      <trkpt lat="42.49432467855513095855712890625" lon="1.1493290774524211883544921875">
        <ele>1464.199951171875</ele>
        <time>2020-08-13T08:41:09.000Z</time>
      </trkpt>
      <trkpt lat="42.49437756836414337158203125" lon="1.1493480205535888671875">
        <ele>1464.800048828125</ele>
        <time>2020-08-13T08:41:13.000Z</time>
      </trkpt>
      <trkpt lat="42.49440531246364116668701171875" lon="1.1493522115051746368408203125">
        <ele>1465</ele>
        <time>2020-08-13T08:41:14.000Z</time>
      </trkpt>
      <trkpt lat="42.4944330565631389617919921875" lon="1.14936201833188533782958984375">
        <ele>1465.199951171875</ele>
        <time>2020-08-13T08:41:16.000Z</time>
      </trkpt>
      <trkpt lat="42.494475804269313812255859375" lon="1.149389259517192840576171875">
        <ele>1465.5999755859375</ele>
        <time>2020-08-13T08:41:20.000Z</time>
      </trkpt>
      <trkpt lat="42.49455115757882595062255859375" lon="1.14942572079598903656005859375">
        <ele>1466</ele>
        <time>2020-08-13T08:41:26.000Z</time>
      </trkpt>
      <trkpt lat="42.49455115757882595062255859375" lon="1.14942572079598903656005859375">
        <ele>1466.199951171875</ele>
        <time>2020-08-13T08:41:27.000Z</time>
      </trkpt>
      <trkpt lat="42.49463598243892192840576171875" lon="1.14943712018430233001708984375">
        <ele>1467.199951171875</ele>
        <time>2020-08-13T08:41:33.000Z</time>
      </trkpt>
      <trkpt lat="42.49472633935511112213134765625" lon="1.1494427360594272613525390625">
        <ele>1468.199951171875</ele>
        <time>2020-08-13T08:41:40.000Z</time>
      </trkpt>
      <trkpt lat="42.494806386530399322509765625" lon="1.14945505745708942413330078125">
        <ele>1468.5999755859375</ele>
        <time>2020-08-13T08:41:46.000Z</time>
      </trkpt>
      <trkpt lat="42.49486782588064670562744140625" lon="1.1494739167392253875732421875">
        <ele>1469.199951171875</ele>
        <time>2020-08-13T08:41:50.000Z</time>
      </trkpt>
      <trkpt lat="42.49491007067263126373291015625" lon="1.1494866572320461273193359375">
        <ele>1469.5999755859375</ele>
        <time>2020-08-13T08:41:53.000Z</time>
      </trkpt>
      <trkpt lat="42.49497008509933948516845703125" lon="1.14949830807745456695556640625">
        <ele>1470.199951171875</ele>
        <time>2020-08-13T08:41:58.000Z</time>
      </trkpt>
      <trkpt lat="42.494982741773128509521484375" lon="1.14950182847678661346435546875">
        <ele>1470.4000244140625</ele>
        <time>2020-08-13T08:41:59.000Z</time>
      </trkpt>
      <trkpt lat="42.49504812061786651611328125" lon="1.14951842464506626129150390625">
        <ele>1471.4000244140625</ele>
        <time>2020-08-13T08:42:04.000Z</time>
      </trkpt>
      <trkpt lat="42.49512950889766216278076171875" lon="1.1495359428226947784423828125">
        <ele>1472.4000244140625</ele>
        <time>2020-08-13T08:42:10.000Z</time>
      </trkpt>
      <trkpt lat="42.49514174647629261016845703125" lon="1.1495349369943141937255859375">
        <ele>1472.4000244140625</ele>
        <time>2020-08-13T08:42:11.000Z</time>
      </trkpt>
      <trkpt lat="42.4952367134392261505126953125" lon="1.1495505273342132568359375">
        <ele>1473.5999755859375</ele>
        <time>2020-08-13T08:42:18.000Z</time>
      </trkpt>
      <trkpt lat="42.49525071121752262115478515625" lon="1.149552203714847564697265625">
        <ele>1473.800048828125</ele>
        <time>2020-08-13T08:42:19.000Z</time>
      </trkpt>
      <trkpt lat="42.4952759407460689544677734375" lon="1.14955312572419643402099609375">
        <ele>1474.199951171875</ele>
        <time>2020-08-13T08:42:21.000Z</time>
      </trkpt>
      <trkpt lat="42.49531893990933895111083984375" lon="1.14956351928412914276123046875">
        <ele>1474.5999755859375</ele>
        <time>2020-08-13T08:42:24.000Z</time>
      </trkpt>
      <trkpt lat="42.495332770049571990966796875" lon="1.14956636913120746612548828125">
        <ele>1474.800048828125</ele>
        <time>2020-08-13T08:42:25.000Z</time>
      </trkpt>
      <trkpt lat="42.49540225602686405181884765625" lon="1.1496023274958133697509765625">
        <ele>1476</ele>
        <time>2020-08-13T08:42:30.000Z</time>
      </trkpt>
      <trkpt lat="42.49541533179581165313720703125" lon="1.14961733110249042510986328125">
        <ele>1476</ele>
        <time>2020-08-13T08:42:31.000Z</time>
      </trkpt>
      <trkpt lat="42.49552245251834392547607421875" lon="1.14972151815891265869140625">
        <ele>1476.800048828125</ele>
        <time>2020-08-13T08:42:40.000Z</time>
      </trkpt>
      <trkpt lat="42.4956195987761020660400390625" lon="1.149800978600978851318359375">
        <ele>1477.4000244140625</ele>
        <time>2020-08-13T08:42:47.000Z</time>
      </trkpt>
      <trkpt lat="42.4956534616649150848388671875" lon="1.14981464110314846038818359375">
        <ele>1478</ele>
        <time>2020-08-13T08:42:49.000Z</time>
      </trkpt>
      <trkpt lat="42.49568925239145755767822265625" lon="1.1498226039111614227294921875">
        <ele>1478.199951171875</ele>
        <time>2020-08-13T08:42:51.000Z</time>
      </trkpt>
      <trkpt lat="42.49573987908661365509033203125" lon="1.14982905797660350799560546875">
        <ele>1479</ele>
        <time>2020-08-13T08:42:54.000Z</time>
      </trkpt>
      <trkpt lat="42.49582998454570770263671875" lon="1.149831153452396392822265625">
        <ele>1480.199951171875</ele>
        <time>2020-08-13T08:43:00.000Z</time>
      </trkpt>
      <trkpt lat="42.4958935193717479705810546875" lon="1.14985018037259578704833984375">
        <ele>1480.800048828125</ele>
        <time>2020-08-13T08:43:04.000Z</time>
      </trkpt>
      <trkpt lat="42.49596853740513324737548828125" lon="1.14990885369479656219482421875">
        <ele>1481.199951171875</ele>
        <time>2020-08-13T08:43:09.000Z</time>
      </trkpt>
      <trkpt lat="42.49600357376039028167724609375" lon="1.149959564208984375">
        <ele>1482</ele>
        <time>2020-08-13T08:43:12.000Z</time>
      </trkpt>
      <trkpt lat="42.49602536670863628387451171875" lon="1.1499949358403682708740234375">
        <ele>1482.199951171875</ele>
        <time>2020-08-13T08:43:14.000Z</time>
      </trkpt>
      <trkpt lat="42.4960329942405223846435546875" lon="1.150072552263736724853515625">
        <ele>1482.5999755859375</ele>
        <time>2020-08-13T08:43:19.000Z</time>
      </trkpt>
      <trkpt lat="42.496010698378086090087890625" lon="1.15018260665237903594970703125">
        <ele>1483.199951171875</ele>
        <time>2020-08-13T08:43:25.000Z</time>
      </trkpt>
      <trkpt lat="42.49600575305521488189697265625" lon="1.150218062102794647216796875">
        <ele>1483.4000244140625</ele>
        <time>2020-08-13T08:43:26.000Z</time>
      </trkpt>
      <trkpt lat="42.495988570153713226318359375" lon="1.15031889639794826507568359375">
        <ele>1484</ele>
        <time>2020-08-13T08:43:32.000Z</time>
      </trkpt>
      <trkpt lat="42.49598731286823749542236328125" lon="1.1503352411091327667236328125">
        <ele>1484.199951171875</ele>
        <time>2020-08-13T08:43:33.000Z</time>
      </trkpt>
      <trkpt lat="42.49598798342049121856689453125" lon="1.15035410039126873016357421875">
        <ele>1484.5999755859375</ele>
        <time>2020-08-13T08:43:34.000Z</time>
      </trkpt>
      <trkpt lat="42.4959880672395229339599609375" lon="1.1504318006336688995361328125">
        <ele>1485</ele>
        <time>2020-08-13T08:43:38.000Z</time>
      </trkpt>
      <trkpt lat="42.4959994666278362274169921875" lon="1.1504931561648845672607421875">
        <ele>1485.5999755859375</ele>
        <time>2020-08-13T08:43:41.000Z</time>
      </trkpt>
      <trkpt lat="42.49601866118609905242919921875" lon="1.15060354582965373992919921875">
        <ele>1486.5999755859375</ele>
        <time>2020-08-13T08:43:47.000Z</time>
      </trkpt>
      <trkpt lat="42.49602318741381168365478515625" lon="1.1506235785782337188720703125">
        <ele>1486.5999755859375</ele>
        <time>2020-08-13T08:43:48.000Z</time>
      </trkpt>
      <trkpt lat="42.49606006778776645660400390625" lon="1.150772273540496826171875">
        <ele>1487.199951171875</ele>
        <time>2020-08-13T08:43:56.000Z</time>
      </trkpt>
      <trkpt lat="42.496090494096279144287109375" lon="1.1508653126657009124755859375">
        <ele>1487.800048828125</ele>
        <time>2020-08-13T08:44:01.000Z</time>
      </trkpt>
      <trkpt lat="42.49610432423651218414306640625" lon="1.150901019573211669921875">
        <ele>1488.199951171875</ele>
        <time>2020-08-13T08:44:03.000Z</time>
      </trkpt>
      <trkpt lat="42.49612108804285526275634765625" lon="1.1509548313915729522705078125">
        <ele>1488.800048828125</ele>
        <time>2020-08-13T08:44:06.000Z</time>
      </trkpt>
      <trkpt lat="42.49613977968692779541015625" lon="1.1510497145354747772216796875">
        <ele>1489.5999755859375</ele>
        <time>2020-08-13T08:44:11.000Z</time>
      </trkpt>
      <trkpt lat="42.4961429648101329803466796875" lon="1.15110578946769237518310546875">
        <ele>1489.800048828125</ele>
        <time>2020-08-13T08:44:14.000Z</time>
      </trkpt>
      <trkpt lat="42.4961433000862598419189453125" lon="1.1511720903217792510986328125">
        <ele>1490.800048828125</ele>
        <time>2020-08-13T08:44:19.000Z</time>
      </trkpt>
      <trkpt lat="42.496139109134674072265625" lon="1.15119765512645244598388671875">
        <ele>1491</ele>
        <time>2020-08-13T08:44:20.000Z</time>
      </trkpt>
      <trkpt lat="42.49609552323818206787109375" lon="1.1512760259211063385009765625">
        <ele>1492</ele>
        <time>2020-08-13T08:44:26.000Z</time>
      </trkpt>
      <trkpt lat="42.49608521349728107452392578125" lon="1.15129329264163970947265625">
        <ele>1492.199951171875</ele>
        <time>2020-08-13T08:44:27.000Z</time>
      </trkpt>
      <trkpt lat="42.496063001453876495361328125" lon="1.1513502895832061767578125">
        <ele>1492.4000244140625</ele>
        <time>2020-08-13T08:44:30.000Z</time>
      </trkpt>
      <trkpt lat="42.49605386517941951751708984375" lon="1.15139127708971500396728515625">
        <ele>1492.800048828125</ele>
        <time>2020-08-13T08:44:32.000Z</time>
      </trkpt>
      <trkpt lat="42.4960433878004550933837890625" lon="1.1514681391417980194091796875">
        <ele>1493.4000244140625</ele>
        <time>2020-08-13T08:44:36.000Z</time>
      </trkpt>
      <trkpt lat="42.49603458680212497711181640625" lon="1.15152203477919101715087890625">
        <ele>1493.4000244140625</ele>
        <time>2020-08-13T08:44:39.000Z</time>
      </trkpt>
      <trkpt lat="42.49601279385387897491455078125" lon="1.1516042612493038177490234375">
        <ele>1494.199951171875</ele>
        <time>2020-08-13T08:44:44.000Z</time>
      </trkpt>
      <trkpt lat="42.496008686721324920654296875" lon="1.15161976777017116546630859375">
        <ele>1494.4000244140625</ele>
        <time>2020-08-13T08:44:45.000Z</time>
      </trkpt>
      <trkpt lat="42.49598597176373004913330078125" lon="1.1516880802810192108154296875">
        <ele>1494.800048828125</ele>
        <time>2020-08-13T08:44:49.000Z</time>
      </trkpt>
      <trkpt lat="42.4959687888622283935546875" lon="1.1517397128045558929443359375">
        <ele>1495</ele>
        <time>2020-08-13T08:44:52.000Z</time>
      </trkpt>
      <trkpt lat="42.49596401117742061614990234375" lon="1.151759661734104156494140625">
        <ele>1495.199951171875</ele>
        <time>2020-08-13T08:44:53.000Z</time>
      </trkpt>
      <trkpt lat="42.495916821062564849853515625" lon="1.151869632303714752197265625">
        <ele>1496.199951171875</ele>
        <time>2020-08-13T08:44:59.000Z</time>
      </trkpt>
      <trkpt lat="42.49591053463518619537353515625" lon="1.15188916213810443878173828125">
        <ele>1496.4000244140625</ele>
        <time>2020-08-13T08:45:00.000Z</time>
      </trkpt>
      <trkpt lat="42.49585052020847797393798828125" lon="1.1519801057875156402587890625">
        <ele>1497</ele>
        <time>2020-08-13T08:45:06.000Z</time>
      </trkpt>
      <trkpt lat="42.49582436867058277130126953125" lon="1.15202528424561023712158203125">
        <ele>1497.5999755859375</ele>
        <time>2020-08-13T08:45:09.000Z</time>
      </trkpt>
      <trkpt lat="42.49578245915472507476806640625" lon="1.15207373164594173431396484375">
        <ele>1497.800048828125</ele>
        <time>2020-08-13T08:45:13.000Z</time>
      </trkpt>
      <trkpt lat="42.4957168288528919219970703125" lon="1.15216542966663837432861328125">
        <ele>1498.199951171875</ele>
        <time>2020-08-13T08:45:19.000Z</time>
      </trkpt>
      <trkpt lat="42.4956898391246795654296875" lon="1.1522171460092067718505859375">
        <ele>1498.4000244140625</ele>
        <time>2020-08-13T08:45:22.000Z</time>
      </trkpt>
      <trkpt lat="42.495650947093963623046875" lon="1.1522783339023590087890625">
        <ele>1498.800048828125</ele>
        <time>2020-08-13T08:45:26.000Z</time>
      </trkpt>
      <trkpt lat="42.49559353105723857879638671875" lon="1.15235268138349056243896484375">
        <ele>1499.5999755859375</ele>
        <time>2020-08-13T08:45:32.000Z</time>
      </trkpt>
      <trkpt lat="42.4955703131854534149169921875" lon="1.152381263673305511474609375">
        <ele>1500</ele>
        <time>2020-08-13T08:45:34.000Z</time>
      </trkpt>
      <trkpt lat="42.49548590742051601409912109375" lon="1.1524679325520992279052734375">
        <ele>1500.5999755859375</ele>
        <time>2020-08-13T08:45:41.000Z</time>
      </trkpt>
      <trkpt lat="42.4954744242131710052490234375" lon="1.1524808406829833984375">
        <ele>1500.800048828125</ele>
        <time>2020-08-13T08:45:42.000Z</time>
      </trkpt>
      <trkpt lat="42.49538934789597988128662109375" lon="1.15256340242922306060791015625">
        <ele>1501.4000244140625</ele>
        <time>2020-08-13T08:45:49.000Z</time>
      </trkpt>
      <trkpt lat="42.49533939175307750701904296875" lon="1.15259491838514804840087890625">
        <ele>1501.800048828125</ele>
        <time>2020-08-13T08:45:53.000Z</time>
      </trkpt>
      <trkpt lat="42.49531575478613376617431640625" lon="1.15260531194508075714111328125">
        <ele>1502.199951171875</ele>
        <time>2020-08-13T08:45:55.000Z</time>
      </trkpt>
      <trkpt lat="42.495304606854915618896484375" lon="1.15261822007596492767333984375">
        <ele>1502.199951171875</ele>
        <time>2020-08-13T08:45:56.000Z</time>
      </trkpt>
      <trkpt lat="42.495252974331378936767578125" lon="1.15265979431569576263427734375">
        <ele>1503</ele>
        <time>2020-08-13T08:46:00.000Z</time>
      </trkpt>
      <trkpt lat="42.49522757716476917266845703125" lon="1.15267756395041942596435546875">
        <ele>1503</ele>
        <time>2020-08-13T08:46:02.000Z</time>
      </trkpt>
      <trkpt lat="42.49521584250032901763916015625" lon="1.1526892147958278656005859375">
        <ele>1503</ele>
        <time>2020-08-13T08:46:03.000Z</time>
      </trkpt>
      <trkpt lat="42.4951696582138538360595703125" lon="1.1527271009981632232666015625">
        <ele>1503.199951171875</ele>
        <time>2020-08-13T08:46:07.000Z</time>
      </trkpt>
      <trkpt lat="42.4951492063701152801513671875" lon="1.15274931304156780242919921875">
        <ele>1503.4000244140625</ele>
        <time>2020-08-13T08:46:09.000Z</time>
      </trkpt>
      <trkpt lat="42.49513856135308742523193359375" lon="1.1527576111257076263427734375">
        <ele>1503.4000244140625</ele>
        <time>2020-08-13T08:46:10.000Z</time>
      </trkpt>
      <trkpt lat="42.49508474953472614288330078125" lon="1.15283950231969356536865234375">
        <ele>1504.199951171875</ele>
        <time>2020-08-13T08:46:16.000Z</time>
      </trkpt>
      <trkpt lat="42.49504937790334224700927734375" lon="1.15290706045925617218017578125">
        <ele>1504.4000244140625</ele>
        <time>2020-08-13T08:46:20.000Z</time>
      </trkpt>
      <trkpt lat="42.49501551501452922821044921875" lon="1.15294930525124073028564453125">
        <ele>1504.5999755859375</ele>
        <time>2020-08-13T08:46:23.000Z</time>
      </trkpt>
      <trkpt lat="42.494941167533397674560546875" lon="1.15301082842051982879638671875">
        <ele>1505.199951171875</ele>
        <time>2020-08-13T08:46:29.000Z</time>
      </trkpt>
      <trkpt lat="42.494933120906352996826171875" lon="1.15302407182753086090087890625">
        <ele>1505.199951171875</ele>
        <time>2020-08-13T08:46:30.000Z</time>
      </trkpt>
      <trkpt lat="42.49487687833607196807861328125" lon="1.15308894775807857513427734375">
        <ele>1506.199951171875</ele>
        <time>2020-08-13T08:46:35.000Z</time>
      </trkpt>
      <trkpt lat="42.49484418891370296478271484375" lon="1.15313102491199970245361328125">
        <ele>1506.5999755859375</ele>
        <time>2020-08-13T08:46:38.000Z</time>
      </trkpt>
      <trkpt lat="42.4948367290198802947998046875" lon="1.15314711816608905792236328125">
        <ele>1506.800048828125</ele>
        <time>2020-08-13T08:46:39.000Z</time>
      </trkpt>
      <trkpt lat="42.49479423277080059051513671875" lon="1.1532025225460529327392578125">
        <ele>1507.4000244140625</ele>
        <time>2020-08-13T08:46:43.000Z</time>
      </trkpt>
      <trkpt lat="42.49475986696779727935791015625" lon="1.1532655544579029083251953125">
        <ele>1507.800048828125</ele>
        <time>2020-08-13T08:46:47.000Z</time>
      </trkpt>
      <trkpt lat="42.49473656527698040008544921875" lon="1.153309307992458343505859375">
        <ele>1508.199951171875</ele>
        <time>2020-08-13T08:46:50.000Z</time>
      </trkpt>
      <trkpt lat="42.49471158720552921295166015625" lon="1.153381727635860443115234375">
        <ele>1508.800048828125</ele>
        <time>2020-08-13T08:46:54.000Z</time>
      </trkpt>
      <trkpt lat="42.49467470683157444000244140625" lon="1.153511144220829010009765625">
        <ele>1509.5999755859375</ele>
        <time>2020-08-13T08:47:01.000Z</time>
      </trkpt>
      <trkpt lat="42.49467185698449611663818359375" lon="1.15353159606456756591796875">
        <ele>1509.800048828125</ele>
        <time>2020-08-13T08:47:02.000Z</time>
      </trkpt>
      <trkpt lat="42.4946677498519420623779296875" lon="1.1536638624966144561767578125">
        <ele>1510.800048828125</ele>
        <time>2020-08-13T08:47:08.000Z</time>
      </trkpt>
      <trkpt lat="42.49466464854776859283447265625" lon="1.1536853201687335968017578125">
        <ele>1510.800048828125</ele>
        <time>2020-08-13T08:47:09.000Z</time>
      </trkpt>
      <trkpt lat="42.49465794302523136138916015625" lon="1.1537929438054561614990234375">
        <ele>1511.5999755859375</ele>
        <time>2020-08-13T08:47:14.000Z</time>
      </trkpt>
      <trkpt lat="42.49465358443558216094970703125" lon="1.15383275784552097320556640625">
        <ele>1512</ele>
        <time>2020-08-13T08:47:16.000Z</time>
      </trkpt>
      <trkpt lat="42.49465995468199253082275390625" lon="1.15392546169459819793701171875">
        <ele>1512.4000244140625</ele>
        <time>2020-08-13T08:47:21.000Z</time>
      </trkpt>
      <trkpt lat="42.4946586973965167999267578125" lon="1.1539431475102901458740234375">
        <ele>1512.4000244140625</ele>
        <time>2020-08-13T08:47:22.000Z</time>
      </trkpt>
      <trkpt lat="42.4946617148816585540771484375" lon="1.15401565097272396087646484375">
        <ele>1512.5999755859375</ele>
        <time>2020-08-13T08:47:26.000Z</time>
      </trkpt>
      <trkpt lat="42.4946637265384197235107421875" lon="1.15406309254467487335205078125">
        <ele>1512.800048828125</ele>
        <time>2020-08-13T08:47:29.000Z</time>
      </trkpt>
      <trkpt lat="42.4946570210158824920654296875" lon="1.1541330814361572265625">
        <ele>1514</ele>
        <time>2020-08-13T08:47:33.000Z</time>
      </trkpt>
      <trkpt lat="42.49465106986463069915771484375" lon="1.15422335453331470489501953125">
        <ele>1514.4000244140625</ele>
        <time>2020-08-13T08:47:38.000Z</time>
      </trkpt>
      <trkpt lat="42.49465241096913814544677734375" lon="1.15425671450793743133544921875">
        <ele>1514.5999755859375</ele>
        <time>2020-08-13T08:47:40.000Z</time>
      </trkpt>
      <trkpt lat="42.494654841721057891845703125" lon="1.154294349253177642822265625">
        <ele>1515.199951171875</ele>
        <time>2020-08-13T08:47:42.000Z</time>
      </trkpt>
      <trkpt lat="42.49464922584593296051025390625" lon="1.15433366037905216217041015625">
        <ele>1515.5999755859375</ele>
        <time>2020-08-13T08:47:44.000Z</time>
      </trkpt>
      <trkpt lat="42.49464721418917179107666015625" lon="1.15437305532395839691162109375">
        <ele>1515.5999755859375</ele>
        <time>2020-08-13T08:47:46.000Z</time>
      </trkpt>
      <trkpt lat="42.49462894164025783538818359375" lon="1.1544849537312984466552734375">
        <ele>1516.199951171875</ele>
        <time>2020-08-13T08:47:52.000Z</time>
      </trkpt>
      <trkpt lat="42.4945847690105438232421875" lon="1.1546502448618412017822265625">
        <ele>1517</ele>
        <time>2020-08-13T08:48:01.000Z</time>
      </trkpt>
      <trkpt lat="42.4945825897157192230224609375" lon="1.1546686850488185882568359375">
        <ele>1517.199951171875</ele>
        <time>2020-08-13T08:48:02.000Z</time>
      </trkpt>
      <trkpt lat="42.494583092629909515380859375" lon="1.1546884663403034210205078125">
        <ele>1517.199951171875</ele>
        <time>2020-08-13T08:48:03.000Z</time>
      </trkpt>
      <trkpt lat="42.494589798152446746826171875" lon="1.15474889986217021942138671875">
        <ele>1517.5999755859375</ele>
        <time>2020-08-13T08:48:06.000Z</time>
      </trkpt>
      <trkpt lat="42.49460957944393157958984375" lon="1.15481771528720855712890625">
        <ele>1518.199951171875</ele>
        <time>2020-08-13T08:48:10.000Z</time>
      </trkpt>
      <trkpt lat="42.49462827108800411224365234375" lon="1.15484093315899372100830078125">
        <ele>1518.199951171875</ele>
        <time>2020-08-13T08:48:12.000Z</time>
      </trkpt>
      <trkpt lat="42.49467101879417896270751953125" lon="1.1548846028745174407958984375">
        <ele>1519</ele>
        <time>2020-08-13T08:48:16.000Z</time>
      </trkpt>
      <trkpt lat="42.49469448812305927276611328125" lon="1.15489826537668704986572265625">
        <ele>1519.199951171875</ele>
        <time>2020-08-13T08:48:18.000Z</time>
      </trkpt>
      <trkpt lat="42.49472097493708133697509765625" lon="1.15491025149822235107421875">
        <ele>1519.199951171875</ele>
        <time>2020-08-13T08:48:20.000Z</time>
      </trkpt>
      <trkpt lat="42.49477294273674488067626953125" lon="1.15493548102676868438720703125">
        <ele>1519.800048828125</ele>
        <time>2020-08-13T08:48:24.000Z</time>
      </trkpt>
      <trkpt lat="42.494811750948429107666015625" lon="1.1549605429172515869140625">
        <ele>1520.4000244140625</ele>
        <time>2020-08-13T08:48:27.000Z</time>
      </trkpt>
      <trkpt lat="42.49483848921954631805419921875" lon="1.15497554652392864227294921875">
        <ele>1520.5999755859375</ele>
        <time>2020-08-13T08:48:29.000Z</time>
      </trkpt>
      <trkpt lat="42.49491937458515167236328125" lon="1.15497596561908721923828125">
        <ele>1521</ele>
        <time>2020-08-13T08:48:35.000Z</time>
      </trkpt>
      <trkpt lat="42.4949326179921627044677734375" lon="1.15497822873294353485107421875">
        <ele>1521.4000244140625</ele>
        <time>2020-08-13T08:48:36.000Z</time>
      </trkpt>
      <trkpt lat="42.49502657912671566009521484375" lon="1.15498225204646587371826171875">
        <ele>1522.199951171875</ele>
        <time>2020-08-13T08:48:43.000Z</time>
      </trkpt>
      <trkpt lat="42.49504133127629756927490234375" lon="1.15498124621808528900146484375">
        <ele>1522.4000244140625</ele>
        <time>2020-08-13T08:48:44.000Z</time>
      </trkpt>
      <trkpt lat="42.495092041790485382080078125" lon="1.15499046631157398223876953125">
        <ele>1523.199951171875</ele>
        <time>2020-08-13T08:48:49.000Z</time>
      </trkpt>
      <trkpt lat="42.4951264075934886932373046875" lon="1.154988706111907958984375">
        <ele>1523.4000244140625</ele>
        <time>2020-08-13T08:48:52.000Z</time>
      </trkpt>
      <trkpt lat="42.4951783753931522369384765625" lon="1.15500287152826786041259765625">
        <ele>1524</ele>
        <time>2020-08-13T08:48:56.000Z</time>
      </trkpt>
      <trkpt lat="42.495221793651580810546875" lon="1.1550167016685009002685546875">
        <ele>1524.5999755859375</ele>
        <time>2020-08-13T08:48:59.000Z</time>
      </trkpt>
      <trkpt lat="42.4952982366085052490234375" lon="1.15503606386482715606689453125">
        <ele>1525</ele>
        <time>2020-08-13T08:49:04.000Z</time>
      </trkpt>
      <trkpt lat="42.4954033456742763519287109375" lon="1.1550602875649929046630859375">
        <ele>1525.5999755859375</ele>
        <time>2020-08-13T08:49:10.000Z</time>
      </trkpt>
      <trkpt lat="42.49541952274739742279052734375" lon="1.1550666578114032745361328125">
        <ele>1525.800048828125</ele>
        <time>2020-08-13T08:49:11.000Z</time>
      </trkpt>
      <trkpt lat="42.495496384799480438232421875" lon="1.15510202944278717041015625">
        <ele>1526.800048828125</ele>
        <time>2020-08-13T08:49:16.000Z</time>
      </trkpt>
      <trkpt lat="42.4955438263714313507080078125" lon="1.15514519624412059783935546875">
        <ele>1527.4000244140625</ele>
        <time>2020-08-13T08:49:19.000Z</time>
      </trkpt>
      <trkpt lat="42.49562588520348072052001953125" lon="1.1552691645920276641845703125">
        <ele>1528</ele>
        <time>2020-08-13T08:49:26.000Z</time>
      </trkpt>
      <trkpt lat="42.4956434033811092376708984375" lon="1.15530512295663356781005859375">
        <ele>1528.199951171875</ele>
        <time>2020-08-13T08:49:28.000Z</time>
      </trkpt>
      <trkpt lat="42.49569260515272617340087890625" lon="1.1554669775068759918212890625">
        <ele>1529</ele>
        <time>2020-08-13T08:49:36.000Z</time>
      </trkpt>
      <trkpt lat="42.495726048946380615234375" lon="1.15558977238833904266357421875">
        <ele>1530.199951171875</ele>
        <time>2020-08-13T08:49:42.000Z</time>
      </trkpt>
      <trkpt lat="42.4957339279353618621826171875" lon="1.15562950260937213897705078125">
        <ele>1530.4000244140625</ele>
        <time>2020-08-13T08:49:44.000Z</time>
      </trkpt>
      <trkpt lat="42.4957389570772647857666015625" lon="1.15574617870151996612548828125">
        <ele>1531</ele>
        <time>2020-08-13T08:49:50.000Z</time>
      </trkpt>
      <trkpt lat="42.49573610723018646240234375" lon="1.15576495416462421417236328125">
        <ele>1531</ele>
        <time>2020-08-13T08:49:51.000Z</time>
      </trkpt>
      <trkpt lat="42.49571741558611392974853515625" lon="1.1559048481285572052001953125">
        <ele>1531.800048828125</ele>
        <time>2020-08-13T08:49:58.000Z</time>
      </trkpt>
      <trkpt lat="42.4956957064568996429443359375" lon="1.1559812910854816436767578125">
        <ele>1532</ele>
        <time>2020-08-13T08:50:02.000Z</time>
      </trkpt>
      <trkpt lat="42.4956791102886199951171875" lon="1.156017668545246124267578125">
        <ele>1532.5999755859375</ele>
        <time>2020-08-13T08:50:04.000Z</time>
      </trkpt>
      <trkpt lat="42.4956625141203403472900390625" lon="1.156050860881805419921875">
        <ele>1533</ele>
        <time>2020-08-13T08:50:06.000Z</time>
      </trkpt>
      <trkpt lat="42.4956115521490573883056640625" lon="1.15614934824407100677490234375">
        <ele>1534.199951171875</ele>
        <time>2020-08-13T08:50:12.000Z</time>
      </trkpt>
      <trkpt lat="42.4955545552074909210205078125" lon="1.1562404595315456390380859375">
        <ele>1534.800048828125</ele>
        <time>2020-08-13T08:50:18.000Z</time>
      </trkpt>
      <trkpt lat="42.49552245251834392547607421875" lon="1.15630256943404674530029296875">
        <ele>1535.199951171875</ele>
        <time>2020-08-13T08:50:22.000Z</time>
      </trkpt>
      <trkpt lat="42.495502419769763946533203125" lon="1.15634213201701641082763671875">
        <ele>1535.5999755859375</ele>
        <time>2020-08-13T08:50:25.000Z</time>
      </trkpt>
      <trkpt lat="42.495481967926025390625" lon="1.15638370625674724578857421875">
        <ele>1536</ele>
        <time>2020-08-13T08:50:28.000Z</time>
      </trkpt>
      <trkpt lat="42.49545455910265445709228515625" lon="1.15644891746342182159423828125">
        <ele>1536.199951171875</ele>
        <time>2020-08-13T08:50:32.000Z</time>
      </trkpt>
      <trkpt lat="42.4954291619360446929931640625" lon="1.156519912183284759521484375">
        <ele>1537.199951171875</ele>
        <time>2020-08-13T08:50:36.000Z</time>
      </trkpt>
      <trkpt lat="42.49540661461651325225830078125" lon="1.156575568020343780517578125">
        <ele>1537.5999755859375</ele>
        <time>2020-08-13T08:50:39.000Z</time>
      </trkpt>
      <trkpt lat="42.49536193907260894775390625" lon="1.1566763184964656829833984375">
        <ele>1538.199951171875</ele>
        <time>2020-08-13T08:50:45.000Z</time>
      </trkpt>
      <trkpt lat="42.4953433312475681304931640625" lon="1.1567269451916217803955078125">
        <ele>1538.5999755859375</ele>
        <time>2020-08-13T08:50:48.000Z</time>
      </trkpt>
      <trkpt lat="42.4953185208141803741455078125" lon="1.1567980237305164337158203125">
        <ele>1539.199951171875</ele>
        <time>2020-08-13T08:50:52.000Z</time>
      </trkpt>
      <trkpt lat="42.495314665138721466064453125" lon="1.1568154580891132354736328125">
        <ele>1539.4000244140625</ele>
        <time>2020-08-13T08:50:53.000Z</time>
      </trkpt>
      <trkpt lat="42.49530586414039134979248046875" lon="1.156833060085773468017578125">
        <ele>1539.5999755859375</ele>
        <time>2020-08-13T08:50:54.000Z</time>
      </trkpt>
      <trkpt lat="42.495276443660259246826171875" lon="1.156910844147205352783203125">
        <ele>1540.199951171875</ele>
        <time>2020-08-13T08:50:58.000Z</time>
      </trkpt>
      <trkpt lat="42.49526948668062686920166015625" lon="1.156990639865398406982421875">
        <ele>1540.4000244140625</ele>
        <time>2020-08-13T08:51:02.000Z</time>
      </trkpt>
      <trkpt lat="42.4952712468802928924560546875" lon="1.157011091709136962890625">
        <ele>1540.4000244140625</ele>
        <time>2020-08-13T08:51:03.000Z</time>
      </trkpt>
      <trkpt lat="42.49526697210967540740966796875" lon="1.15712399594485759735107421875">
        <ele>1541.199951171875</ele>
        <time>2020-08-13T08:51:09.000Z</time>
      </trkpt>
      <trkpt lat="42.4952618591487407684326171875" lon="1.157151572406291961669921875">
        <ele>1541.5999755859375</ele>
        <time>2020-08-13T08:51:11.000Z</time>
      </trkpt>
      <trkpt lat="42.495259679853916168212890625" lon="1.1571674980223178863525390625">
        <ele>1541.5999755859375</ele>
        <time>2020-08-13T08:51:12.000Z</time>
      </trkpt>
      <trkpt lat="42.49524869956076145172119140625" lon="1.15723581053316593170166015625">
        <ele>1542.199951171875</ele>
        <time>2020-08-13T08:51:16.000Z</time>
      </trkpt>
      <trkpt lat="42.495237551629543304443359375" lon="1.1572873592376708984375">
        <ele>1542.4000244140625</ele>
        <time>2020-08-13T08:51:19.000Z</time>
      </trkpt>
      <trkpt lat="42.49522204510867595672607421875" lon="1.15737008862197399139404296875">
        <ele>1543.199951171875</ele>
        <time>2020-08-13T08:51:24.000Z</time>
      </trkpt>
      <trkpt lat="42.4952142499387264251708984375" lon="1.1574035324156284332275390625">
        <ele>1543.4000244140625</ele>
        <time>2020-08-13T08:51:26.000Z</time>
      </trkpt>
      <trkpt lat="42.4951773695647716522216796875" lon="1.15750486962497234344482421875">
        <ele>1543.800048828125</ele>
        <time>2020-08-13T08:51:32.000Z</time>
      </trkpt>
      <trkpt lat="42.49516303651034832000732421875" lon="1.15753605030477046966552734375">
        <ele>1544.199951171875</ele>
        <time>2020-08-13T08:51:34.000Z</time>
      </trkpt>
      <trkpt lat="42.49512732960283756256103515625" lon="1.15761802531778812408447265625">
        <ele>1545</ele>
        <time>2020-08-13T08:51:39.000Z</time>
      </trkpt>
      <trkpt lat="42.495112158358097076416015625" lon="1.15765389986336231231689453125">
        <ele>1545.4000244140625</ele>
        <time>2020-08-13T08:51:41.000Z</time>
      </trkpt>
      <trkpt lat="42.495061866939067840576171875" lon="1.15776906721293926239013671875">
        <ele>1546.5999755859375</ele>
        <time>2020-08-13T08:51:47.000Z</time>
      </trkpt>
      <trkpt lat="42.4950492940843105316162109375" lon="1.1577807180583477020263671875">
        <ele>1546.800048828125</ele>
        <time>2020-08-13T08:51:48.000Z</time>
      </trkpt>
      <trkpt lat="42.4949869327247142791748046875" lon="1.1578239686787128448486328125">
        <ele>1547.4000244140625</ele>
        <time>2020-08-13T08:51:53.000Z</time>
      </trkpt>
      <trkpt lat="42.49495751224458217620849609375" lon="1.157838217914104461669921875">
        <ele>1547.5999755859375</ele>
        <time>2020-08-13T08:51:55.000Z</time>
      </trkpt>
      <trkpt lat="42.49488651752471923828125" lon="1.15784768946468830108642578125">
        <ele>1548.4000244140625</ele>
        <time>2020-08-13T08:52:00.000Z</time>
      </trkpt>
      <trkpt lat="42.49483144842088222503662109375" lon="1.1578531377017498016357421875">
        <ele>1548.800048828125</ele>
        <time>2020-08-13T08:52:04.000Z</time>
      </trkpt>
      <trkpt lat="42.49478048644959926605224609375" lon="1.157877780497074127197265625">
        <ele>1549.199951171875</ele>
        <time>2020-08-13T08:52:08.000Z</time>
      </trkpt>
      <trkpt lat="42.49474494718015193939208984375" lon="1.15790720097720623016357421875">
        <ele>1549.5999755859375</ele>
        <time>2020-08-13T08:52:11.000Z</time>
      </trkpt>
      <trkpt lat="42.4947296082973480224609375" lon="1.15792446769773960113525390625">
        <ele>1550.5999755859375</ele>
        <time>2020-08-13T08:52:14.000Z</time>
      </trkpt>
      <trkpt lat="42.49473053030669689178466796875" lon="1.15792505443096160888671875">
        <ele>1550.800048828125</ele>
        <time>2020-08-13T08:52:15.000Z</time>
      </trkpt>
      <trkpt lat="42.49473053030669689178466796875" lon="1.15792505443096160888671875">
        <ele>1550.800048828125</ele>
        <time>2020-08-13T08:52:16.000Z</time>
      </trkpt>
      <trkpt lat="42.49470689333975315093994140625" lon="1.15798196755349636077880859375">
        <ele>1550.5999755859375</ele>
        <time>2020-08-13T08:57:56.000Z</time>
      </trkpt>
      <trkpt lat="42.49469272792339324951171875" lon="1.15802153013646602630615234375">
        <ele>1550.800048828125</ele>
        <time>2020-08-13T08:58:01.000Z</time>
      </trkpt>
      <trkpt lat="42.494672276079654693603515625" lon="1.158083975315093994140625">
        <ele>1551</ele>
        <time>2020-08-13T08:58:06.000Z</time>
      </trkpt>
      <trkpt lat="42.4946724437177181243896484375" lon="1.15809738636016845703125">
        <ele>1551</ele>
        <time>2020-08-13T08:58:07.000Z</time>
      </trkpt>
      <trkpt lat="42.4947012774646282196044921875" lon="1.1581470072269439697265625">
        <ele>1551.4000244140625</ele>
        <time>2020-08-13T08:58:11.000Z</time>
      </trkpt>
      <trkpt lat="42.49471661634743213653564453125" lon="1.15817005746066570281982421875">
        <ele>1551.4000244140625</ele>
        <time>2020-08-13T08:58:13.000Z</time>
      </trkpt>
      <trkpt lat="42.494744695723056793212890625" lon="1.15819721482694149017333984375">
        <ele>1551.800048828125</ele>
        <time>2020-08-13T08:58:16.000Z</time>
      </trkpt>
      <trkpt lat="42.4947609566152095794677734375" lon="1.15820660255849361419677734375">
        <ele>1552.199951171875</ele>
        <time>2020-08-13T08:58:18.000Z</time>
      </trkpt>
      <trkpt lat="42.49481669627130031585693359375" lon="1.15826167166233062744140625">
        <ele>1552.5999755859375</ele>
        <time>2020-08-13T08:58:24.000Z</time>
      </trkpt>
      <trkpt lat="42.49484200961887836456298828125" lon="1.1583017371594905853271484375">
        <ele>1552.800048828125</ele>
        <time>2020-08-13T08:58:27.000Z</time>
      </trkpt>
      <trkpt lat="42.49485122971236705780029296875" lon="1.1583141423761844635009765625">
        <ele>1552.800048828125</ele>
        <time>2020-08-13T08:58:28.000Z</time>
      </trkpt>
      <trkpt lat="42.49488827772438526153564453125" lon="1.158365942537784576416015625">
        <ele>1553.800048828125</ele>
        <time>2020-08-13T08:58:32.000Z</time>
      </trkpt>
      <trkpt lat="42.49496153555810451507568359375" lon="1.158469207584857940673828125">
        <ele>1554.800048828125</ele>
        <time>2020-08-13T08:58:40.000Z</time>
      </trkpt>
      <trkpt lat="42.4949688278138637542724609375" lon="1.1584827862679958343505859375">
        <ele>1554.800048828125</ele>
        <time>2020-08-13T08:58:41.000Z</time>
      </trkpt>
      <trkpt lat="42.49501953832805156707763671875" lon="1.158545650541782379150390625">
        <ele>1555.199951171875</ele>
        <time>2020-08-13T08:58:46.000Z</time>
      </trkpt>
      <trkpt lat="42.49506329186260700225830078125" lon="1.15859300829470157623291015625">
        <ele>1556</ele>
        <time>2020-08-13T08:58:50.000Z</time>
      </trkpt>
      <trkpt lat="42.495082654058933258056640625" lon="1.15861161611974239349365234375">
        <ele>1556.199951171875</ele>
        <time>2020-08-13T08:58:52.000Z</time>
      </trkpt>
      <trkpt lat="42.495096065104007720947265625" lon="1.15861966274678707122802734375">
        <ele>1556.199951171875</ele>
        <time>2020-08-13T08:58:53.000Z</time>
      </trkpt>
      <trkpt lat="42.49515364877879619598388671875" lon="1.15866844542324542999267578125">
        <ele>1556.800048828125</ele>
        <time>2020-08-13T08:58:58.000Z</time>
      </trkpt>
      <trkpt lat="42.4951629526913166046142578125" lon="1.15867850370705127716064453125">
        <ele>1557</ele>
        <time>2020-08-13T08:58:59.000Z</time>
      </trkpt>
      <trkpt lat="42.495184578001499176025390625" lon="1.1587080918252468109130859375">
        <ele>1557.5999755859375</ele>
        <time>2020-08-13T08:59:03.000Z</time>
      </trkpt>
      <trkpt lat="42.495217435061931610107421875" lon="1.1587375961244106292724609375">
        <ele>1558</ele>
        <time>2020-08-13T08:59:06.000Z</time>
      </trkpt>
      <trkpt lat="42.49525037594139575958251953125" lon="1.1587665975093841552734375">
        <ele>1558.800048828125</ele>
        <time>2020-08-13T08:59:10.000Z</time>
      </trkpt>
      <trkpt lat="42.495267726480960845947265625" lon="1.15878428332507610321044921875">
        <ele>1559.199951171875</ele>
        <time>2020-08-13T08:59:12.000Z</time>
      </trkpt>
      <trkpt lat="42.49528675340116024017333984375" lon="1.1588187329471111297607421875">
        <ele>1559.4000244140625</ele>
        <time>2020-08-13T08:59:15.000Z</time>
      </trkpt>
      <trkpt lat="42.495294548571109771728515625" lon="1.15883138962090015411376953125">
        <ele>1559.800048828125</ele>
        <time>2020-08-13T08:59:16.000Z</time>
      </trkpt>
      <trkpt lat="42.49532380141317844390869140625" lon="1.158868186175823211669921875">
        <ele>1560.4000244140625</ele>
        <time>2020-08-13T08:59:19.000Z</time>
      </trkpt>
      <trkpt lat="42.4953520484268665313720703125" lon="1.15890967659652233123779296875">
        <ele>1560.5999755859375</ele>
        <time>2020-08-13T08:59:22.000Z</time>
      </trkpt>
      <trkpt lat="42.4953798763453960418701171875" lon="1.15898192860186100006103515625">
        <ele>1561.4000244140625</ele>
        <time>2020-08-13T08:59:27.000Z</time>
      </trkpt>
      <trkpt lat="42.49539840035140514373779296875" lon="1.1590306274592876434326171875">
        <ele>1561.4000244140625</ele>
        <time>2020-08-13T08:59:30.000Z</time>
      </trkpt>
      <trkpt lat="42.4954154156148433685302734375" lon="1.1591260135173797607421875">
        <ele>1562.4000244140625</ele>
        <time>2020-08-13T08:59:36.000Z</time>
      </trkpt>
      <trkpt lat="42.49541482888162136077880859375" lon="1.15914302878081798553466796875">
        <ele>1562.5999755859375</ele>
        <time>2020-08-13T08:59:37.000Z</time>
      </trkpt>
      <trkpt lat="42.49540594406425952911376953125" lon="1.15922718308866024017333984375">
        <ele>1563.4000244140625</ele>
        <time>2020-08-13T08:59:42.000Z</time>
      </trkpt>
      <trkpt lat="42.49540443532168865203857421875" lon="1.15927780978381633758544921875">
        <ele>1563.800048828125</ele>
        <time>2020-08-13T08:59:45.000Z</time>
      </trkpt>
      <trkpt lat="42.495396137237548828125" lon="1.159428767859935760498046875">
        <ele>1564.4000244140625</ele>
        <time>2020-08-13T08:59:54.000Z</time>
      </trkpt>
      <trkpt lat="42.4954056926071643829345703125" lon="1.15955877117812633514404296875">
        <ele>1565.4000244140625</ele>
        <time>2020-08-13T09:00:02.000Z</time>
      </trkpt>
      <trkpt lat="42.4954073689877986907958984375" lon="1.15957721136510372161865234375">
        <ele>1565.4000244140625</ele>
        <time>2020-08-13T09:00:03.000Z</time>
      </trkpt>
      <trkpt lat="42.49543662182986736297607421875" lon="1.15972389467060565948486328125">
        <ele>1566.199951171875</ele>
        <time>2020-08-13T09:00:11.000Z</time>
      </trkpt>
      <trkpt lat="42.49545288272202014923095703125" lon="1.15977234207093715667724609375">
        <ele>1566.4000244140625</ele>
        <time>2020-08-13T09:00:14.000Z</time>
      </trkpt>
      <trkpt lat="42.495466209948062896728515625" lon="1.15982246585190296173095703125">
        <ele>1567</ele>
        <time>2020-08-13T09:00:17.000Z</time>
      </trkpt>
      <trkpt lat="42.495478950440883636474609375" lon="1.15991701371967792510986328125">
        <ele>1567.5999755859375</ele>
        <time>2020-08-13T09:00:23.000Z</time>
      </trkpt>
      <trkpt lat="42.49548272229731082916259765625" lon="1.15993671119213104248046875">
        <ele>1567.5999755859375</ele>
        <time>2020-08-13T09:00:24.000Z</time>
      </trkpt>
      <trkpt lat="42.49549604952335357666015625" lon="1.16004492156207561492919921875">
        <ele>1568.4000244140625</ele>
        <time>2020-08-13T09:00:30.000Z</time>
      </trkpt>
      <trkpt lat="42.49549462459981441497802734375" lon="1.16005782969295978546142578125">
        <ele>1568.4000244140625</ele>
        <time>2020-08-13T09:00:31.000Z</time>
      </trkpt>
      <trkpt lat="42.49548733234405517578125" lon="1.1600937880575656890869140625">
        <ele>1568.4000244140625</ele>
        <time>2020-08-13T09:00:34.000Z</time>
      </trkpt>
      <trkpt lat="42.49548800289630889892578125" lon="1.160146258771419525146484375">
        <ele>1568.4000244140625</ele>
        <time>2020-08-13T09:00:37.000Z</time>
      </trkpt>
      <trkpt lat="42.49549428932368755340576171875" lon="1.1601640284061431884765625">
        <ele>1568.5999755859375</ele>
        <time>2020-08-13T09:00:38.000Z</time>
      </trkpt>
      <trkpt lat="42.49550350941717624664306640625" lon="1.1602506972849369049072265625">
        <ele>1569.4000244140625</ele>
        <time>2020-08-13T09:00:43.000Z</time>
      </trkpt>
      <trkpt lat="42.49550149776041507720947265625" lon="1.16026796400547027587890625">
        <ele>1569.5999755859375</ele>
        <time>2020-08-13T09:00:44.000Z</time>
      </trkpt>
      <trkpt lat="42.49549680389463901519775390625" lon="1.16030090488493442535400390625">
        <ele>1569.800048828125</ele>
        <time>2020-08-13T09:00:46.000Z</time>
      </trkpt>
      <trkpt lat="42.4954940378665924072265625" lon="1.1603891663253307342529296875">
        <ele>1570.4000244140625</ele>
        <time>2020-08-13T09:00:51.000Z</time>
      </trkpt>
      <trkpt lat="42.4954915232956409454345703125" lon="1.16040752269327640533447265625">
        <ele>1570.4000244140625</ele>
        <time>2020-08-13T09:00:52.000Z</time>
      </trkpt>
      <trkpt lat="42.4954777769744396209716796875" lon="1.16043803282082080841064453125">
        <ele>1570.800048828125</ele>
        <time>2020-08-13T09:00:54.000Z</time>
      </trkpt>
      <trkpt lat="42.49547325074672698974609375" lon="1.1604555509984493255615234375">
        <ele>1571</ele>
        <time>2020-08-13T09:00:55.000Z</time>
      </trkpt>
      <trkpt lat="42.49547014944255352020263671875" lon="1.16047382354736328125">
        <ele>1571</ele>
        <time>2020-08-13T09:00:56.000Z</time>
      </trkpt>
      <trkpt lat="42.49546696431934833526611328125" lon="1.16058018989861011505126953125">
        <ele>1571.800048828125</ele>
        <time>2020-08-13T09:01:01.000Z</time>
      </trkpt>
      <trkpt lat="42.49545791186392307281494140625" lon="1.16061673499643802642822265625">
        <ele>1572</ele>
        <time>2020-08-13T09:01:03.000Z</time>
      </trkpt>
      <trkpt lat="42.4954476021230220794677734375" lon="1.16065445356070995330810546875">
        <ele>1572.4000244140625</ele>
        <time>2020-08-13T09:01:05.000Z</time>
      </trkpt>
      <trkpt lat="42.49543368816375732421875" lon="1.1607100255787372589111328125">
        <ele>1572.800048828125</ele>
        <time>2020-08-13T09:01:08.000Z</time>
      </trkpt>
      <trkpt lat="42.49541114084422588348388671875" lon="1.16080147214233875274658203125">
        <ele>1573.800048828125</ele>
        <time>2020-08-13T09:01:13.000Z</time>
      </trkpt>
      <trkpt lat="42.4954120628535747528076171875" lon="1.16082251071929931640625">
        <ele>1574</ele>
        <time>2020-08-13T09:01:14.000Z</time>
      </trkpt>
      <trkpt lat="42.49544701538980007171630859375" lon="1.16095368750393390655517578125">
        <ele>1575</ele>
        <time>2020-08-13T09:01:21.000Z</time>
      </trkpt>
      <trkpt lat="42.49545170925557613372802734375" lon="1.160971038043498992919921875">
        <ele>1575</ele>
        <time>2020-08-13T09:01:22.000Z</time>
      </trkpt>
      <trkpt lat="42.4955129809677600860595703125" lon="1.16113976575434207916259765625">
        <ele>1575.5999755859375</ele>
        <time>2020-08-13T09:01:32.000Z</time>
      </trkpt>
      <trkpt lat="42.49554106034338474273681640625" lon="1.16119734942913055419921875">
        <ele>1576.199951171875</ele>
        <time>2020-08-13T09:01:36.000Z</time>
      </trkpt>
      <trkpt lat="42.49555950053036212921142578125" lon="1.16124655120074748992919921875">
        <ele>1576.800048828125</ele>
        <time>2020-08-13T09:01:39.000Z</time>
      </trkpt>
      <trkpt lat="42.495596967637538909912109375" lon="1.16132986731827259063720703125">
        <ele>1577.4000244140625</ele>
        <time>2020-08-13T09:01:45.000Z</time>
      </trkpt>
      <trkpt lat="42.4956021644175052642822265625" lon="1.1613457091152667999267578125">
        <ele>1577.5999755859375</ele>
        <time>2020-08-13T09:01:46.000Z</time>
      </trkpt>
      <trkpt lat="42.4956410564482212066650390625" lon="1.161437742412090301513671875">
        <ele>1578.4000244140625</ele>
        <time>2020-08-13T09:01:52.000Z</time>
      </trkpt>
      <trkpt lat="42.4956940300762653350830078125" lon="1.16152851842343807220458984375">
        <ele>1579.4000244140625</ele>
        <time>2020-08-13T09:01:58.000Z</time>
      </trkpt>
      <trkpt lat="42.495705597102642059326171875" lon="1.16154360584914684295654296875">
        <ele>1579.4000244140625</ele>
        <time>2020-08-13T09:01:59.000Z</time>
      </trkpt>
      <trkpt lat="42.4957634322345256805419921875" lon="1.16165600717067718505859375">
        <ele>1580.4000244140625</ele>
        <time>2020-08-13T09:02:06.000Z</time>
      </trkpt>
      <trkpt lat="42.495768629014492034912109375" lon="1.161675117909908294677734375">
        <ele>1580.4000244140625</ele>
        <time>2020-08-13T09:02:07.000Z</time>
      </trkpt>
      <trkpt lat="42.4958132207393646240234375" lon="1.16177226416766643524169921875">
        <ele>1581.5999755859375</ele>
        <time>2020-08-13T09:02:13.000Z</time>
      </trkpt>
      <trkpt lat="42.495822273194789886474609375" lon="1.1617869324982166290283203125">
        <ele>1581.5999755859375</ele>
        <time>2020-08-13T09:02:14.000Z</time>
      </trkpt>
      <trkpt lat="42.495829649269580841064453125" lon="1.1618053726851940155029296875">
        <ele>1581.800048828125</ele>
        <time>2020-08-13T09:02:15.000Z</time>
      </trkpt>
      <trkpt lat="42.495863176882266998291015625" lon="1.161872930824756622314453125">
        <ele>1582.4000244140625</ele>
        <time>2020-08-13T09:02:19.000Z</time>
      </trkpt>
      <trkpt lat="42.495875246822834014892578125" lon="1.1619103141129016876220703125">
        <ele>1582.5999755859375</ele>
        <time>2020-08-13T09:02:21.000Z</time>
      </trkpt>
      <trkpt lat="42.49590634368360042572021484375" lon="1.16198063828051090240478515625">
        <ele>1583.5999755859375</ele>
        <time>2020-08-13T09:02:25.000Z</time>
      </trkpt>
      <trkpt lat="42.49592176638543605804443359375" lon="1.16201399825513362884521484375">
        <ele>1583.800048828125</ele>
        <time>2020-08-13T09:02:27.000Z</time>
      </trkpt>
      <trkpt lat="42.4959816969931125640869140625" lon="1.162108965218067169189453125">
        <ele>1584.5999755859375</ele>
        <time>2020-08-13T09:02:34.000Z</time>
      </trkpt>
      <trkpt lat="42.4959981255233287811279296875" lon="1.16222807206213474273681640625">
        <ele>1585.5999755859375</ele>
        <time>2020-08-13T09:02:41.000Z</time>
      </trkpt>
      <trkpt lat="42.49599804170429706573486328125" lon="1.16224802099168300628662109375">
        <ele>1585.800048828125</ele>
        <time>2020-08-13T09:02:42.000Z</time>
      </trkpt>
      <trkpt lat="42.4959984607994556427001953125" lon="1.16237861104309558868408203125">
        <ele>1586.4000244140625</ele>
        <time>2020-08-13T09:02:49.000Z</time>
      </trkpt>
      <trkpt lat="42.4959947727620601654052734375" lon="1.1624299921095371246337890625">
        <ele>1586.800048828125</ele>
        <time>2020-08-13T09:02:52.000Z</time>
      </trkpt>
      <trkpt lat="42.4959904141724109649658203125" lon="1.16248472593724727630615234375">
        <ele>1587.4000244140625</ele>
        <time>2020-08-13T09:02:55.000Z</time>
      </trkpt>
      <trkpt lat="42.49599033035337924957275390625" lon="1.162501238286495208740234375">
        <ele>1587.800048828125</ele>
        <time>2020-08-13T09:02:56.000Z</time>
      </trkpt>
      <trkpt lat="42.4959806911647319793701171875" lon="1.16258933208882808685302734375">
        <ele>1588.4000244140625</ele>
        <time>2020-08-13T09:03:01.000Z</time>
      </trkpt>
      <trkpt lat="42.4959672801196575164794921875" lon="1.162684299051761627197265625">
        <ele>1588.800048828125</ele>
        <time>2020-08-13T09:03:06.000Z</time>
      </trkpt>
      <trkpt lat="42.495963089168071746826171875" lon="1.16272076033055782318115234375">
        <ele>1589</ele>
        <time>2020-08-13T09:03:08.000Z</time>
      </trkpt>
      <trkpt lat="42.495988905429840087890625" lon="1.16286710835993289947509765625">
        <ele>1589.800048828125</ele>
        <time>2020-08-13T09:03:15.000Z</time>
      </trkpt>
      <trkpt lat="42.4959934316575527191162109375" lon="1.1628883145749568939208984375">
        <ele>1590</ele>
        <time>2020-08-13T09:03:16.000Z</time>
      </trkpt>
      <trkpt lat="42.495999298989772796630859375" lon="1.16297322325408458709716796875">
        <ele>1591</ele>
        <time>2020-08-13T09:03:20.000Z</time>
      </trkpt>
      <trkpt lat="42.49600357376039028167724609375" lon="1.16303675808012485504150390625">
        <ele>1591.199951171875</ele>
        <time>2020-08-13T09:03:23.000Z</time>
      </trkpt>
      <trkpt lat="42.4959863908588886260986328125" lon="1.16317405365407466888427734375">
        <ele>1592</ele>
        <time>2020-08-13T09:03:30.000Z</time>
      </trkpt>
      <trkpt lat="42.49597758986055850982666015625" lon="1.1632688529789447784423828125">
        <ele>1592.800048828125</ele>
        <time>2020-08-13T09:03:35.000Z</time>
      </trkpt>
      <trkpt lat="42.4959749914705753326416015625" lon="1.16328787989914417266845703125">
        <ele>1592.800048828125</ele>
        <time>2020-08-13T09:03:36.000Z</time>
      </trkpt>
      <trkpt lat="42.49595646746456623077392578125" lon="1.16335946135222911834716796875">
        <ele>1593.199951171875</ele>
        <time>2020-08-13T09:03:40.000Z</time>
      </trkpt>
      <trkpt lat="42.495940290391445159912109375" lon="1.1634291149675846099853515625">
        <ele>1593.800048828125</ele>
        <time>2020-08-13T09:03:44.000Z</time>
      </trkpt>
      <trkpt lat="42.4959059245884418487548828125" lon="1.163529194891452789306640625">
        <ele>1594.199951171875</ele>
        <time>2020-08-13T09:03:50.000Z</time>
      </trkpt>
      <trkpt lat="42.495904080569744110107421875" lon="1.163548640906810760498046875">
        <ele>1594.199951171875</ele>
        <time>2020-08-13T09:03:51.000Z</time>
      </trkpt>
      <trkpt lat="42.49590332619845867156982421875" lon="1.16356909275054931640625">
        <ele>1594.4000244140625</ele>
        <time>2020-08-13T09:03:52.000Z</time>
      </trkpt>
      <trkpt lat="42.49588220380246639251708984375" lon="1.1636755429208278656005859375">
        <ele>1595.199951171875</ele>
        <time>2020-08-13T09:03:58.000Z</time>
      </trkpt>
      <trkpt lat="42.49587700702250003814697265625" lon="1.163694821298122406005859375">
        <ele>1595.4000244140625</ele>
        <time>2020-08-13T09:03:59.000Z</time>
      </trkpt>
      <trkpt lat="42.4958670325577259063720703125" lon="1.1638042889535427093505859375">
        <ele>1595.5999755859375</ele>
        <time>2020-08-13T09:04:05.000Z</time>
      </trkpt>
      <trkpt lat="42.49585320241749286651611328125" lon="1.16386254318058490753173828125">
        <ele>1596.4000244140625</ele>
        <time>2020-08-13T09:04:08.000Z</time>
      </trkpt>
      <trkpt lat="42.49582587741315364837646484375" lon="1.16397821344435214996337890625">
        <ele>1597.199951171875</ele>
        <time>2020-08-13T09:04:14.000Z</time>
      </trkpt>
      <trkpt lat="42.49581255018711090087890625" lon="1.164016015827655792236328125">
        <ele>1597.4000244140625</ele>
        <time>2020-08-13T09:04:16.000Z</time>
      </trkpt>
      <trkpt lat="42.49580810777842998504638671875" lon="1.164033450186252593994140625">
        <ele>1597.5999755859375</ele>
        <time>2020-08-13T09:04:17.000Z</time>
      </trkpt>
      <trkpt lat="42.495801150798797607421875" lon="1.16407125256955623626708984375">
        <ele>1597.800048828125</ele>
        <time>2020-08-13T09:04:19.000Z</time>
      </trkpt>
      <trkpt lat="42.49579620547592639923095703125" lon="1.1640882678329944610595703125">
        <ele>1598</ele>
        <time>2020-08-13T09:04:20.000Z</time>
      </trkpt>
      <trkpt lat="42.4957852251827716827392578125" lon="1.16414065472781658172607421875">
        <ele>1598.4000244140625</ele>
        <time>2020-08-13T09:04:23.000Z</time>
      </trkpt>
      <trkpt lat="42.4957808665931224822998046875" lon="1.16415590979158878326416015625">
        <ele>1598.5999755859375</ele>
        <time>2020-08-13T09:04:24.000Z</time>
      </trkpt>
      <trkpt lat="42.49577407725155353546142578125" lon="1.16417434997856616973876953125">
        <ele>1598.5999755859375</ele>
        <time>2020-08-13T09:04:25.000Z</time>
      </trkpt>
      <trkpt lat="42.495745159685611724853515625" lon="1.16429287008941173553466796875">
        <ele>1599</ele>
        <time>2020-08-13T09:04:31.000Z</time>
      </trkpt>
      <trkpt lat="42.49573769979178905487060546875" lon="1.16433695890009403228759765625">
        <ele>1599.4000244140625</ele>
        <time>2020-08-13T09:04:33.000Z</time>
      </trkpt>
      <trkpt lat="42.4957218579947948455810546875" lon="1.16443477571010589599609375">
        <ele>1600.4000244140625</ele>
        <time>2020-08-13T09:04:38.000Z</time>
      </trkpt>
      <trkpt lat="42.49571741558611392974853515625" lon="1.1644530482590198516845703125">
        <ele>1600.800048828125</ele>
        <time>2020-08-13T09:04:39.000Z</time>
      </trkpt>
      <trkpt lat="42.495696209371089935302734375" lon="1.16452085785567760467529296875">
        <ele>1601.199951171875</ele>
        <time>2020-08-13T09:04:43.000Z</time>
      </trkpt>
      <trkpt lat="42.49568958766758441925048828125" lon="1.16455790586769580841064453125">
        <ele>1601.4000244140625</ele>
        <time>2020-08-13T09:04:45.000Z</time>
      </trkpt>
      <trkpt lat="42.4956708960235118865966796875" lon="1.16461624391376972198486328125">
        <ele>1602</ele>
        <time>2020-08-13T09:04:48.000Z</time>
      </trkpt>
      <trkpt lat="42.4956678785383701324462890625" lon="1.164657063782215118408203125">
        <ele>1602.199951171875</ele>
        <time>2020-08-13T09:04:50.000Z</time>
      </trkpt>
      <trkpt lat="42.49565505422651767730712890625" lon="1.16471908986568450927734375">
        <ele>1602.5999755859375</ele>
        <time>2020-08-13T09:04:53.000Z</time>
      </trkpt>
      <trkpt lat="42.4956283159554004669189453125" lon="1.1648345924913883209228515625">
        <ele>1603.4000244140625</ele>
        <time>2020-08-13T09:04:59.000Z</time>
      </trkpt>
      <trkpt lat="42.4956227838993072509765625" lon="1.16485311649739742279052734375">
        <ele>1603.5999755859375</ele>
        <time>2020-08-13T09:05:00.000Z</time>
      </trkpt>
      <trkpt lat="42.49558045528829097747802734375" lon="1.164975576102733612060546875">
        <ele>1604.199951171875</ele>
        <time>2020-08-13T09:05:07.000Z</time>
      </trkpt>
      <trkpt lat="42.4955740012228488922119140625" lon="1.1649935133755207061767578125">
        <ele>1604.5999755859375</ele>
        <time>2020-08-13T09:05:08.000Z</time>
      </trkpt>
      <trkpt lat="42.49555849470198154449462890625" lon="1.165066100656986236572265625">
        <ele>1605.5999755859375</ele>
        <time>2020-08-13T09:05:12.000Z</time>
      </trkpt>
      <trkpt lat="42.49555614776909351348876953125" lon="1.165117733180522918701171875">
        <ele>1605.800048828125</ele>
        <time>2020-08-13T09:05:15.000Z</time>
      </trkpt>
      <trkpt lat="42.4955662898719310760498046875" lon="1.1651846207678318023681640625">
        <ele>1605.800048828125</ele>
        <time>2020-08-13T09:05:19.000Z</time>
      </trkpt>
      <trkpt lat="42.49556452967226505279541015625" lon="1.16519845090806484222412109375">
        <ele>1606</ele>
        <time>2020-08-13T09:05:20.000Z</time>
      </trkpt>
      <trkpt lat="42.49556134454905986785888671875" lon="1.165254525840282440185546875">
        <ele>1606.4000244140625</ele>
        <time>2020-08-13T09:05:24.000Z</time>
      </trkpt>
      <trkpt lat="42.495558746159076690673828125" lon="1.1652892269194126129150390625">
        <ele>1606.800048828125</ele>
        <time>2020-08-13T09:05:26.000Z</time>
      </trkpt>
      <trkpt lat="42.495556063950061798095703125" lon="1.16530758328735828399658203125">
        <ele>1607</ele>
        <time>2020-08-13T09:05:27.000Z</time>
      </trkpt>
      <trkpt lat="42.4955347739160060882568359375" lon="1.16544253192842006683349609375">
        <ele>1607.4000244140625</ele>
        <time>2020-08-13T09:05:34.000Z</time>
      </trkpt>
      <trkpt lat="42.49553083442151546478271484375" lon="1.1654582060873508453369140625">
        <ele>1607.4000244140625</ele>
        <time>2020-08-13T09:05:35.000Z</time>
      </trkpt>
      <trkpt lat="42.495511136949062347412109375" lon="1.16555283777415752410888671875">
        <ele>1608</ele>
        <time>2020-08-13T09:05:40.000Z</time>
      </trkpt>
      <trkpt lat="42.49550954438745975494384765625" lon="1.16557396017014980316162109375">
        <ele>1608.199951171875</ele>
        <time>2020-08-13T09:05:41.000Z</time>
      </trkpt>
      <trkpt lat="42.49550501815974712371826171875" lon="1.16569767706096172332763671875">
        <ele>1609</ele>
        <time>2020-08-13T09:05:47.000Z</time>
      </trkpt>
      <trkpt lat="42.49550853855907917022705078125" lon="1.1657180450856685638427734375">
        <ele>1609</ele>
        <time>2020-08-13T09:05:48.000Z</time>
      </trkpt>
      <trkpt lat="42.4955190159380435943603515625" lon="1.1658213101327419281005859375">
        <ele>1610.199951171875</ele>
        <time>2020-08-13T09:05:53.000Z</time>
      </trkpt>
      <trkpt lat="42.4954988993704319000244140625" lon="1.165969334542751312255859375">
        <ele>1611.199951171875</ele>
        <time>2020-08-13T09:06:01.000Z</time>
      </trkpt>
      <trkpt lat="42.49549345113337039947509765625" lon="1.165984086692333221435546875">
        <ele>1611.199951171875</ele>
        <time>2020-08-13T09:06:02.000Z</time>
      </trkpt>
      <trkpt lat="42.495478950440883636474609375" lon="1.16601191461086273193359375">
        <ele>1611.5999755859375</ele>
        <time>2020-08-13T09:06:04.000Z</time>
      </trkpt>
      <trkpt lat="42.4954636953771114349365234375" lon="1.166060864925384521484375">
        <ele>1612.199951171875</ele>
        <time>2020-08-13T09:06:07.000Z</time>
      </trkpt>
      <trkpt lat="42.49545506201684474945068359375" lon="1.1660972423851490020751953125">
        <ele>1612.199951171875</ele>
        <time>2020-08-13T09:06:09.000Z</time>
      </trkpt>
      <trkpt lat="42.4954365380108356475830078125" lon="1.16616052575409412384033203125">
        <ele>1613</ele>
        <time>2020-08-13T09:06:13.000Z</time>
      </trkpt>
      <trkpt lat="42.49541415832936763763427734375" lon="1.1662303470075130462646484375">
        <ele>1613.4000244140625</ele>
        <time>2020-08-13T09:06:17.000Z</time>
      </trkpt>
      <trkpt lat="42.49540007673203945159912109375" lon="1.16625876165926456451416015625">
        <ele>1613.800048828125</ele>
        <time>2020-08-13T09:06:19.000Z</time>
      </trkpt>
      <trkpt lat="42.495374344289302825927734375" lon="1.1663409881293773651123046875">
        <ele>1614.4000244140625</ele>
        <time>2020-08-13T09:06:24.000Z</time>
      </trkpt>
      <trkpt lat="42.49535095877945423126220703125" lon="1.16640619933605194091796875">
        <ele>1615.199951171875</ele>
        <time>2020-08-13T09:06:28.000Z</time>
      </trkpt>
      <trkpt lat="42.49534660018980503082275390625" lon="1.16642170585691928863525390625">
        <ele>1615.4000244140625</ele>
        <time>2020-08-13T09:06:29.000Z</time>
      </trkpt>
      <trkpt lat="42.49531500041484832763671875" lon="1.16651591844856739044189453125">
        <ele>1616.199951171875</ele>
        <time>2020-08-13T09:06:35.000Z</time>
      </trkpt>
      <trkpt lat="42.49529354274272918701171875" lon="1.16656051017343997955322265625">
        <ele>1616.5999755859375</ele>
        <time>2020-08-13T09:06:38.000Z</time>
      </trkpt>
      <trkpt lat="42.49526144005358219146728515625" lon="1.16665086708962917327880859375">
        <ele>1617.199951171875</ele>
        <time>2020-08-13T09:06:43.000Z</time>
      </trkpt>
      <trkpt lat="42.4952541477978229522705078125" lon="1.16666444577276706695556640625">
        <ele>1617.4000244140625</ele>
        <time>2020-08-13T09:06:44.000Z</time>
      </trkpt>
      <trkpt lat="42.4952424131333827972412109375" lon="1.16667618043720722198486328125">
        <ele>1617.800048828125</ele>
        <time>2020-08-13T09:06:45.000Z</time>
      </trkpt>
      <trkpt lat="42.49522916972637176513671875" lon="1.16670451126992702484130859375">
        <ele>1617.5999755859375</ele>
        <time>2020-08-13T09:06:47.000Z</time>
      </trkpt>
      <trkpt lat="42.4951679818332195281982421875" lon="1.1668143980205059051513671875">
        <ele>1618.800048828125</ele>
        <time>2020-08-13T09:06:54.000Z</time>
      </trkpt>
      <trkpt lat="42.495154403150081634521484375" lon="1.16682856343686580657958984375">
        <ele>1618.5999755859375</ele>
        <time>2020-08-13T09:06:55.000Z</time>
      </trkpt>
      <trkpt lat="42.4951193667948246002197265625" lon="1.166871227324008941650390625">
        <ele>1619</ele>
        <time>2020-08-13T09:06:58.000Z</time>
      </trkpt>
      <trkpt lat="42.4950979091227054595947265625" lon="1.1669069342315196990966796875">
        <ele>1619.4000244140625</ele>
        <time>2020-08-13T09:07:00.000Z</time>
      </trkpt>
      <trkpt lat="42.49503579922020435333251953125" lon="1.16701615042984485626220703125">
        <ele>1620</ele>
        <time>2020-08-13T09:07:06.000Z</time>
      </trkpt>
      <trkpt lat="42.49502255581319332122802734375" lon="1.16703249514102935791015625">
        <ele>1620.199951171875</ele>
        <time>2020-08-13T09:07:07.000Z</time>
      </trkpt>
      <trkpt lat="42.494957931339740753173828125" lon="1.16710969246923923492431640625">
        <ele>1621</ele>
        <time>2020-08-13T09:07:12.000Z</time>
      </trkpt>
      <trkpt lat="42.49494359828531742095947265625" lon="1.16712109185755252838134765625">
        <ele>1621.199951171875</ele>
        <time>2020-08-13T09:07:13.000Z</time>
      </trkpt>
      <trkpt lat="42.49486011452972888946533203125" lon="1.1672016419470310211181640625">
        <ele>1622.199951171875</ele>
        <time>2020-08-13T09:07:19.000Z</time>
      </trkpt>
      <trkpt lat="42.49483379535377025604248046875" lon="1.1672236025333404541015625">
        <ele>1622.4000244140625</ele>
        <time>2020-08-13T09:07:21.000Z</time>
      </trkpt>
      <trkpt lat="42.494803369045257568359375" lon="1.1672666855156421661376953125">
        <ele>1622.5999755859375</ele>
        <time>2020-08-13T09:07:24.000Z</time>
      </trkpt>
      <trkpt lat="42.49478870071470737457275390625" lon="1.16730549372732639312744140625">
        <ele>1622.800048828125</ele>
        <time>2020-08-13T09:07:26.000Z</time>
      </trkpt>
      <trkpt lat="42.49477143399417400360107421875" lon="1.16736517287790775299072265625">
        <ele>1623.199951171875</ele>
        <time>2020-08-13T09:07:29.000Z</time>
      </trkpt>
      <trkpt lat="42.494754754006862640380859375" lon="1.16743943654000759124755859375">
        <ele>1623.800048828125</ele>
        <time>2020-08-13T09:07:33.000Z</time>
      </trkpt>
      <trkpt lat="42.4947508983314037322998046875" lon="1.1674705334007740020751953125">
        <ele>1624.5999755859375</ele>
        <time>2020-08-13T09:07:35.000Z</time>
      </trkpt>
      <trkpt lat="42.49474444426596164703369140625" lon="1.167547814548015594482421875">
        <ele>1625.199951171875</ele>
        <time>2020-08-13T09:07:39.000Z</time>
      </trkpt>
      <trkpt lat="42.49473564326763153076171875" lon="1.167611517012119293212890625">
        <ele>1625.5999755859375</ele>
        <time>2020-08-13T09:07:42.000Z</time>
      </trkpt>
      <trkpt lat="42.494743354618549346923828125" lon="1.1676921509206295013427734375">
        <ele>1626</ele>
        <time>2020-08-13T09:07:46.000Z</time>
      </trkpt>
      <trkpt lat="42.4947431869804859161376953125" lon="1.16775778122246265411376953125">
        <ele>1627</ele>
        <time>2020-08-13T09:07:49.000Z</time>
      </trkpt>
      <trkpt lat="42.49474360607564449310302734375" lon="1.167797930538654327392578125">
        <ele>1627.5999755859375</ele>
        <time>2020-08-13T09:07:51.000Z</time>
      </trkpt>
      <trkpt lat="42.4947398342192173004150390625" lon="1.16788786835968494415283203125">
        <ele>1628.199951171875</ele>
        <time>2020-08-13T09:07:56.000Z</time>
      </trkpt>
      <trkpt lat="42.49473991803824901580810546875" lon="1.1679010279476642608642578125">
        <ele>1628.4000244140625</ele>
        <time>2020-08-13T09:07:57.000Z</time>
      </trkpt>
      <trkpt lat="42.49474260024726390838623046875" lon="1.16791117005050182342529296875">
        <ele>1628.4000244140625</ele>
        <time>2020-08-13T09:07:58.000Z</time>
      </trkpt>
      <trkpt lat="42.49473991803824901580810546875" lon="1.16792575456202030181884765625">
        <ele>1628.5999755859375</ele>
        <time>2020-08-13T09:07:59.000Z</time>
      </trkpt>
      <trkpt lat="42.4947190470993518829345703125" lon="1.168023906648159027099609375">
        <ele>1629.4000244140625</ele>
        <time>2020-08-13T09:08:04.000Z</time>
      </trkpt>
      <trkpt lat="42.49471393413841724395751953125" lon="1.16804544813930988311767578125">
        <ele>1629.4000244140625</ele>
        <time>2020-08-13T09:08:05.000Z</time>
      </trkpt>
      <trkpt lat="42.49469297938048839569091796875" lon="1.16816530935466289520263671875">
        <ele>1630.5999755859375</ele>
        <time>2020-08-13T09:08:10.000Z</time>
      </trkpt>
      <trkpt lat="42.49469012953341007232666015625" lon="1.1681873537600040435791015625">
        <ele>1630.800048828125</ele>
        <time>2020-08-13T09:08:11.000Z</time>
      </trkpt>
      <trkpt lat="42.49469532631337642669677734375" lon="1.1683206260204315185546875">
        <ele>1631.5999755859375</ele>
        <time>2020-08-13T09:08:17.000Z</time>
      </trkpt>
      <trkpt lat="42.49469532631337642669677734375" lon="1.168343089520931243896484375">
        <ele>1631.5999755859375</ele>
        <time>2020-08-13T09:08:18.000Z</time>
      </trkpt>
      <trkpt lat="42.49472348950803279876708984375" lon="1.16846974007785320281982421875">
        <ele>1632.4000244140625</ele>
        <time>2020-08-13T09:08:24.000Z</time>
      </trkpt>
      <trkpt lat="42.494743354618549346923828125" lon="1.16851248778402805328369140625">
        <ele>1632.800048828125</ele>
        <time>2020-08-13T09:08:26.000Z</time>
      </trkpt>
      <trkpt lat="42.49478635378181934356689453125" lon="1.168616674840450286865234375">
        <ele>1633.199951171875</ele>
        <time>2020-08-13T09:08:31.000Z</time>
      </trkpt>
      <trkpt lat="42.4948047101497650146484375" lon="1.16864986717700958251953125">
        <ele>1633.199951171875</ele>
        <time>2020-08-13T09:08:33.000Z</time>
      </trkpt>
      <trkpt lat="42.4948176182806491851806640625" lon="1.16869018413126468658447265625">
        <ele>1633.4000244140625</ele>
        <time>2020-08-13T09:08:35.000Z</time>
      </trkpt>
      <trkpt lat="42.49484050087630748748779296875" lon="1.1687685549259185791015625">
        <ele>1633.800048828125</ele>
        <time>2020-08-13T09:08:39.000Z</time>
      </trkpt>
      <trkpt lat="42.49485475011169910430908203125" lon="1.16881038062274456024169921875">
        <ele>1634.199951171875</ele>
        <time>2020-08-13T09:08:41.000Z</time>
      </trkpt>
      <trkpt lat="42.4948742799460887908935546875" lon="1.1688892543315887451171875">
        <ele>1634.4000244140625</ele>
        <time>2020-08-13T09:08:45.000Z</time>
      </trkpt>
      <trkpt lat="42.49488852918148040771484375" lon="1.1689246259629726409912109375">
        <ele>1634.800048828125</ele>
        <time>2020-08-13T09:08:47.000Z</time>
      </trkpt>
      <trkpt lat="42.49490940012037754058837890625" lon="1.16900249384343624114990234375">
        <ele>1635.4000244140625</ele>
        <time>2020-08-13T09:08:51.000Z</time>
      </trkpt>
      <trkpt lat="42.49491912312805652618408203125" lon="1.169059909880161285400390625">
        <ele>1635.5999755859375</ele>
        <time>2020-08-13T09:08:54.000Z</time>
      </trkpt>
      <trkpt lat="42.4949242360889911651611328125" lon="1.16908212192356586456298828125">
        <ele>1635.800048828125</ele>
        <time>2020-08-13T09:08:55.000Z</time>
      </trkpt>
      <trkpt lat="42.494943849742412567138671875" lon="1.16920785047113895416259765625">
        <ele>1636.800048828125</ele>
        <time>2020-08-13T09:09:01.000Z</time>
      </trkpt>
      <trkpt lat="42.49494762159883975982666015625" lon="1.16922696121037006378173828125">
        <ele>1637</ele>
        <time>2020-08-13T09:09:02.000Z</time>
      </trkpt>
      <trkpt lat="42.49496740289032459259033203125" lon="1.1693363450467586517333984375">
        <ele>1637.800048828125</ele>
        <time>2020-08-13T09:09:08.000Z</time>
      </trkpt>
      <trkpt lat="42.4949728511273860931396484375" lon="1.16935453377664089202880859375">
        <ele>1638</ele>
        <time>2020-08-13T09:09:09.000Z</time>
      </trkpt>
      <trkpt lat="42.49497964046895503997802734375" lon="1.16936995647847652435302734375">
        <ele>1638.199951171875</ele>
        <time>2020-08-13T09:09:10.000Z</time>
      </trkpt>
      <trkpt lat="42.49501727521419525146484375" lon="1.1694359220564365386962890625">
        <ele>1639</ele>
        <time>2020-08-13T09:09:14.000Z</time>
      </trkpt>
      <trkpt lat="42.4950224719941616058349609375" lon="1.16945444606244564056396484375">
        <ele>1639.199951171875</ele>
        <time>2020-08-13T09:09:15.000Z</time>
      </trkpt>
      <trkpt lat="42.495027668774127960205078125" lon="1.16947322152554988861083984375">
        <ele>1639.4000244140625</ele>
        <time>2020-08-13T09:09:16.000Z</time>
      </trkpt>
      <trkpt lat="42.4950509704649448394775390625" lon="1.1696089245378971099853515625">
        <ele>1640.199951171875</ele>
        <time>2020-08-13T09:09:23.000Z</time>
      </trkpt>
      <trkpt lat="42.49506463296711444854736328125" lon="1.16968159563839435577392578125">
        <ele>1641.199951171875</ele>
        <time>2020-08-13T09:09:27.000Z</time>
      </trkpt>
      <trkpt lat="42.49507184140384197235107421875" lon="1.1697135306894779205322265625">
        <ele>1641.4000244140625</ele>
        <time>2020-08-13T09:09:29.000Z</time>
      </trkpt>
      <trkpt lat="42.4950868450105190277099609375" lon="1.16978586651384830474853515625">
        <ele>1642.199951171875</ele>
        <time>2020-08-13T09:09:33.000Z</time>
      </trkpt>
      <trkpt lat="42.4951049499213695526123046875" lon="1.1698560230433940887451171875">
        <ele>1642.5999755859375</ele>
        <time>2020-08-13T09:09:37.000Z</time>
      </trkpt>
      <trkpt lat="42.49512464739382266998291015625" lon="1.16996004246175289154052734375">
        <ele>1643.199951171875</ele>
        <time>2020-08-13T09:09:43.000Z</time>
      </trkpt>
      <trkpt lat="42.495126910507678985595703125" lon="1.16997580043971538543701171875">
        <ele>1643.4000244140625</ele>
        <time>2020-08-13T09:09:44.000Z</time>
      </trkpt>
      <trkpt lat="42.49513529241085052490234375" lon="1.17006112821400165557861328125">
        <ele>1643.800048828125</ele>
        <time>2020-08-13T09:09:49.000Z</time>
      </trkpt>
      <trkpt lat="42.49514074064791202545166015625" lon="1.1700997687876224517822265625">
        <ele>1644</ele>
        <time>2020-08-13T09:09:51.000Z</time>
      </trkpt>
      <trkpt lat="42.49514744617044925689697265625" lon="1.17013371549546718597412109375">
        <ele>1644.4000244140625</ele>
        <time>2020-08-13T09:09:53.000Z</time>
      </trkpt>
      <trkpt lat="42.49516152776777744293212890625" lon="1.1702234856784343719482421875">
        <ele>1645</ele>
        <time>2020-08-13T09:09:58.000Z</time>
      </trkpt>
      <trkpt lat="42.4951689876616001129150390625" lon="1.17029607295989990234375">
        <ele>1645.800048828125</ele>
        <time>2020-08-13T09:10:02.000Z</time>
      </trkpt>
      <trkpt lat="42.49517544172704219818115234375" lon="1.17035650648176670074462890625">
        <ele>1646.800048828125</ele>
        <time>2020-08-13T09:10:05.000Z</time>
      </trkpt>
      <trkpt lat="42.49517745338380336761474609375" lon="1.17037612013518810272216796875">
        <ele>1647</ele>
        <time>2020-08-13T09:10:06.000Z</time>
      </trkpt>
      <trkpt lat="42.49517158605158329010009765625" lon="1.17053143680095672607421875">
        <ele>1647.4000244140625</ele>
        <time>2020-08-13T09:10:13.000Z</time>
      </trkpt>
      <trkpt lat="42.4951914511620998382568359375" lon="1.170620955526828765869140625">
        <ele>1647.5999755859375</ele>
        <time>2020-08-13T09:10:18.000Z</time>
      </trkpt>
      <trkpt lat="42.49519153498113155364990234375" lon="1.17063662968575954437255859375">
        <ele>1647.800048828125</ele>
        <time>2020-08-13T09:10:19.000Z</time>
      </trkpt>
      <trkpt lat="42.4951971508562564849853515625" lon="1.1707721650600433349609375">
        <ele>1648.4000244140625</ele>
        <time>2020-08-13T09:10:26.000Z</time>
      </trkpt>
      <trkpt lat="42.49519706703722476959228515625" lon="1.1708061955869197845458984375">
        <ele>1648.800048828125</ele>
        <time>2020-08-13T09:10:28.000Z</time>
      </trkpt>
      <trkpt lat="42.4952028505504131317138671875" lon="1.17090250365436077117919921875">
        <ele>1649.4000244140625</ele>
        <time>2020-08-13T09:10:33.000Z</time>
      </trkpt>
      <trkpt lat="42.4952016770839691162109375" lon="1.1709366180002689361572265625">
        <ele>1649.5999755859375</ele>
        <time>2020-08-13T09:10:35.000Z</time>
      </trkpt>
      <trkpt lat="42.49519941397011280059814453125" lon="1.170956902205944061279296875">
        <ele>1649.800048828125</ele>
        <time>2020-08-13T09:10:36.000Z</time>
      </trkpt>
      <trkpt lat="42.4952008388936519622802734375" lon="1.17099403403699398040771484375">
        <ele>1650.4000244140625</ele>
        <time>2020-08-13T09:10:38.000Z</time>
      </trkpt>
      <trkpt lat="42.495204024016857147216796875" lon="1.17101146839559078216552734375">
        <ele>1650.800048828125</ele>
        <time>2020-08-13T09:10:39.000Z</time>
      </trkpt>
      <trkpt lat="42.49520679004490375518798828125" lon="1.17103158496320247650146484375">
        <ele>1651</ele>
        <time>2020-08-13T09:10:40.000Z</time>
      </trkpt>
      <trkpt lat="42.4952098913490772247314453125" lon="1.171119846403598785400390625">
        <ele>1651.199951171875</ele>
        <time>2020-08-13T09:10:44.000Z</time>
      </trkpt>
      <trkpt lat="42.49521265737712383270263671875" lon="1.171140633523464202880859375">
        <ele>1651.199951171875</ele>
        <time>2020-08-13T09:10:45.000Z</time>
      </trkpt>
      <trkpt lat="42.49521969817578792572021484375" lon="1.1712568067014217376708984375">
        <ele>1652.199951171875</ele>
        <time>2020-08-13T09:10:51.000Z</time>
      </trkpt>
      <trkpt lat="42.49521869234740734100341796875" lon="1.17127667181193828582763671875">
        <ele>1652.4000244140625</ele>
        <time>2020-08-13T09:10:52.000Z</time>
      </trkpt>
      <trkpt lat="42.4952192790806293487548828125" lon="1.1713433079421520233154296875">
        <ele>1653.4000244140625</ele>
        <time>2020-08-13T09:10:55.000Z</time>
      </trkpt>
      <trkpt lat="42.49521785415709018707275390625" lon="1.171379350125789642333984375">
        <ele>1653.800048828125</ele>
        <time>2020-08-13T09:10:57.000Z</time>
      </trkpt>
      <trkpt lat="42.4952246434986591339111328125" lon="1.1714163981378078460693359375">
        <ele>1654.199951171875</ele>
        <time>2020-08-13T09:10:59.000Z</time>
      </trkpt>
      <trkpt lat="42.49522439204156398773193359375" lon="1.17143223993480205535888671875">
        <ele>1654.199951171875</ele>
        <time>2020-08-13T09:11:00.000Z</time>
      </trkpt>
      <trkpt lat="42.495218105614185333251953125" lon="1.17148303426802158355712890625">
        <ele>1654.199951171875</ele>
        <time>2020-08-13T09:11:03.000Z</time>
      </trkpt>
      <trkpt lat="42.49522003345191478729248046875" lon="1.1715030670166015625">
        <ele>1654.4000244140625</ele>
        <time>2020-08-13T09:11:04.000Z</time>
      </trkpt>
      <trkpt lat="42.49522648751735687255859375" lon="1.17162443697452545166015625">
        <ele>1655</ele>
        <time>2020-08-13T09:11:10.000Z</time>
      </trkpt>
      <trkpt lat="42.49523076228797435760498046875" lon="1.1716639995574951171875">
        <ele>1655.4000244140625</ele>
        <time>2020-08-13T09:11:12.000Z</time>
      </trkpt>
      <trkpt lat="42.4952424131333827972412109375" lon="1.17174069397151470184326171875">
        <ele>1656</ele>
        <time>2020-08-13T09:11:17.000Z</time>
      </trkpt>
      <trkpt lat="42.49525724910199642181396484375" lon="1.17179551161825656890869140625">
        <ele>1656.4000244140625</ele>
        <time>2020-08-13T09:11:20.000Z</time>
      </trkpt>
      <trkpt lat="42.49526160769164562225341796875" lon="1.17183105088770389556884765625">
        <ele>1657</ele>
        <time>2020-08-13T09:11:22.000Z</time>
      </trkpt>
      <trkpt lat="42.4952906928956508636474609375" lon="1.1719840206205844879150390625">
        <ele>1657.4000244140625</ele>
        <time>2020-08-13T09:11:29.000Z</time>
      </trkpt>
      <trkpt lat="42.49530921690165996551513671875" lon="1.17205468006432056427001953125">
        <ele>1657.800048828125</ele>
        <time>2020-08-13T09:11:32.000Z</time>
      </trkpt>
      <trkpt lat="42.495322041213512420654296875" lon="1.1721643991768360137939453125">
        <ele>1658.5999755859375</ele>
        <time>2020-08-13T09:11:37.000Z</time>
      </trkpt>
      <trkpt lat="42.49532095156610012054443359375" lon="1.1721856892108917236328125">
        <ele>1658.800048828125</ele>
        <time>2020-08-13T09:11:38.000Z</time>
      </trkpt>
      <trkpt lat="42.49532246030867099761962890625" lon="1.1722954921424388885498046875">
        <ele>1659.5999755859375</ele>
        <time>2020-08-13T09:11:43.000Z</time>
      </trkpt>
      <trkpt lat="42.495313994586467742919921875" lon="1.172337234020233154296875">
        <ele>1659.800048828125</ele>
        <time>2020-08-13T09:11:45.000Z</time>
      </trkpt>
      <trkpt lat="42.495302595198154449462890625" lon="1.17235240526497364044189453125">
        <ele>1659.800048828125</ele>
        <time>2020-08-13T09:11:46.000Z</time>
      </trkpt>
      <trkpt lat="42.49520310200750827789306640625" lon="1.17238350212574005126953125">
        <ele>1660.5999755859375</ele>
        <time>2020-08-13T09:11:54.000Z</time>
      </trkpt>
      <trkpt lat="42.49519421719014644622802734375" lon="1.17237051017582416534423828125">
        <ele>1660.800048828125</ele>
        <time>2020-08-13T09:11:55.000Z</time>
      </trkpt>
      <trkpt lat="42.49517980031669139862060546875" lon="1.1722897924482822418212890625">
        <ele>1661.5999755859375</ele>
        <time>2020-08-13T09:12:00.000Z</time>
      </trkpt>
      <trkpt lat="42.4951642937958240509033203125" lon="1.17217068560421466827392578125">
        <ele>1662.199951171875</ele>
        <time>2020-08-13T09:12:07.000Z</time>
      </trkpt>
      <trkpt lat="42.4951327778398990631103515625" lon="1.17206406779587268829345703125">
        <ele>1662.5999755859375</ele>
        <time>2020-08-13T09:12:13.000Z</time>
      </trkpt>
      <trkpt lat="42.49512716196477413177490234375" lon="1.1720470525324344635009765625">
        <ele>1662.800048828125</ele>
        <time>2020-08-13T09:12:14.000Z</time>
      </trkpt>
      <trkpt lat="42.49509648419916629791259765625" lon="1.1719535104930400848388671875">
        <ele>1663.4000244140625</ele>
        <time>2020-08-13T09:12:19.000Z</time>
      </trkpt>
      <trkpt lat="42.49508961103856563568115234375" lon="1.17193716578185558319091796875">
        <ele>1663.4000244140625</ele>
        <time>2020-08-13T09:12:20.000Z</time>
      </trkpt>
      <trkpt lat="42.495072595775127410888671875" lon="1.17188083939254283905029296875">
        <ele>1663.800048828125</ele>
        <time>2020-08-13T09:12:23.000Z</time>
      </trkpt>
      <trkpt lat="42.4950622022151947021484375" lon="1.17186089046299457550048828125">
        <ele>1664</ele>
        <time>2020-08-13T09:12:24.000Z</time>
      </trkpt>
      <trkpt lat="42.49503429047763347625732421875" lon="1.171806156635284423828125">
        <ele>1664.4000244140625</ele>
        <time>2020-08-13T09:12:27.000Z</time>
      </trkpt>
      <trkpt lat="42.49502389691770076751708984375" lon="1.17176265455782413482666015625">
        <ele>1664.4000244140625</ele>
        <time>2020-08-13T09:12:30.000Z</time>
      </trkpt>
      <trkpt lat="42.4950010143220424652099609375" lon="1.17165268398821353912353515625">
        <ele>1665</ele>
        <time>2020-08-13T09:12:36.000Z</time>
      </trkpt>
      <trkpt lat="42.4949654750525951385498046875" lon="1.17153885774314403533935546875">
        <ele>1665.4000244140625</ele>
        <time>2020-08-13T09:12:42.000Z</time>
      </trkpt>
      <trkpt lat="42.49494192190468311309814453125" lon="1.171421594917774200439453125">
        <ele>1665.5999755859375</ele>
        <time>2020-08-13T09:12:47.000Z</time>
      </trkpt>
      <trkpt lat="42.49492934904992580413818359375" lon="1.17137365043163299560546875">
        <ele>1666</ele>
        <time>2020-08-13T09:12:49.000Z</time>
      </trkpt>
      <trkpt lat="42.49490252695977687835693359375" lon="1.17129108868539333343505859375">
        <ele>1666.4000244140625</ele>
        <time>2020-08-13T09:12:53.000Z</time>
      </trkpt>
      <trkpt lat="42.49487000517547130584716796875" lon="1.171189583837985992431640625">
        <ele>1666.5999755859375</ele>
        <time>2020-08-13T09:12:58.000Z</time>
      </trkpt>
      <trkpt lat="42.49485324136912822723388671875" lon="1.17115295492112636566162109375">
        <ele>1666.800048828125</ele>
        <time>2020-08-13T09:13:00.000Z</time>
      </trkpt>
      <trkpt lat="42.49479825608432292938232421875" lon="1.1710194312036037445068359375">
        <ele>1667.199951171875</ele>
        <time>2020-08-13T09:13:07.000Z</time>
      </trkpt>
      <trkpt lat="42.49477394856512546539306640625" lon="1.17091524414718151092529296875">
        <ele>1668</ele>
        <time>2020-08-13T09:13:12.000Z</time>
      </trkpt>
      <trkpt lat="42.494744025170803070068359375" lon="1.170836873352527618408203125">
        <ele>1668.199951171875</ele>
        <time>2020-08-13T09:13:16.000Z</time>
      </trkpt>
      <trkpt lat="42.4946888722479343414306640625" lon="1.17068926803767681121826171875">
        <ele>1668.800048828125</ele>
        <time>2020-08-13T09:13:24.000Z</time>
      </trkpt>
      <trkpt lat="42.49466598965227603912353515625" lon="1.17063428275287151336669921875">
        <ele>1669</ele>
        <time>2020-08-13T09:13:27.000Z</time>
      </trkpt>
      <trkpt lat="42.49463480897247791290283203125" lon="1.17056219838559627532958984375">
        <ele>1669.4000244140625</ele>
        <time>2020-08-13T09:13:31.000Z</time>
      </trkpt>
      <trkpt lat="42.49458049423992633819580078125" lon="1.1704261600971221923828125">
        <ele>1670.199951171875</ele>
        <time>2020-08-13T09:13:38.000Z</time>
      </trkpt>
      <trkpt lat="42.49454026110470294952392578125" lon="1.17028609849512577056884765625">
        <ele>1671</ele>
        <time>2020-08-13T09:13:45.000Z</time>
      </trkpt>
      <trkpt lat="42.494521401822566986083984375" lon="1.17020714096724987030029296875">
        <ele>1671.5999755859375</ele>
        <time>2020-08-13T09:13:49.000Z</time>
      </trkpt>
      <trkpt lat="42.49450488947331905364990234375" lon="1.17013472132384777069091796875">
        <ele>1672.199951171875</ele>
        <time>2020-08-13T09:13:53.000Z</time>
      </trkpt>
      <trkpt lat="42.4944991059601306915283203125" lon="1.17011879570782184600830078125">
        <ele>1672.199951171875</ele>
        <time>2020-08-13T09:13:54.000Z</time>
      </trkpt>
      <trkpt lat="42.49449248425662517547607421875" lon="1.170101948082447052001953125">
        <ele>1672.4000244140625</ele>
        <time>2020-08-13T09:13:55.000Z</time>
      </trkpt>
      <trkpt lat="42.49447144567966461181640625" lon="1.17003849707543849945068359375">
        <ele>1673.5999755859375</ele>
        <time>2020-08-13T09:13:59.000Z</time>
      </trkpt>
      <trkpt lat="42.49446205794811248779296875" lon="1.16997613571584224700927734375">
        <ele>1673.800048828125</ele>
        <time>2020-08-13T09:14:02.000Z</time>
      </trkpt>
      <trkpt lat="42.49444001354277133941650390625" lon="1.16992148570716381072998046875">
        <ele>1674</ele>
        <time>2020-08-13T09:14:05.000Z</time>
      </trkpt>
      <trkpt lat="42.4944300390779972076416015625" lon="1.16990111768245697021484375">
        <ele>1674.199951171875</ele>
        <time>2020-08-13T09:14:06.000Z</time>
      </trkpt>
      <trkpt lat="42.4944082461297512054443359375" lon="1.16986599750816822052001953125">
        <ele>1674.199951171875</ele>
        <time>2020-08-13T09:14:08.000Z</time>
      </trkpt>
      <trkpt lat="42.4943472258746623992919921875" lon="1.1697648279368877410888671875">
        <ele>1674.5999755859375</ele>
        <time>2020-08-13T09:14:13.000Z</time>
      </trkpt>
      <trkpt lat="42.4943364970386028289794921875" lon="1.16974865086376667022705078125">
        <ele>1675</ele>
        <time>2020-08-13T09:14:14.000Z</time>
      </trkpt>
      <trkpt lat="42.4943264387547969818115234375" lon="1.16973213851451873779296875">
        <ele>1675.199951171875</ele>
        <time>2020-08-13T09:14:15.000Z</time>
      </trkpt>
      <trkpt lat="42.494292072951793670654296875" lon="1.16968243382871150970458984375">
        <ele>1675.5999755859375</ele>
        <time>2020-08-13T09:14:18.000Z</time>
      </trkpt>
      <trkpt lat="42.49425016343593597412109375" lon="1.1696189828217029571533203125">
        <ele>1676</ele>
        <time>2020-08-13T09:14:22.000Z</time>
      </trkpt>
      <trkpt lat="42.4941960163414478302001953125" lon="1.16950557567179203033447265625">
        <ele>1676.5999755859375</ele>
        <time>2020-08-13T09:14:28.000Z</time>
      </trkpt>
      <trkpt lat="42.4941440485417842864990234375" lon="1.169378757476806640625">
        <ele>1677.4000244140625</ele>
        <time>2020-08-13T09:14:35.000Z</time>
      </trkpt>
      <trkpt lat="42.494126446545124053955078125" lon="1.16932687349617481231689453125">
        <ele>1677.800048828125</ele>
        <time>2020-08-13T09:14:38.000Z</time>
      </trkpt>
      <trkpt lat="42.494087554514408111572265625" lon="1.1692122928798198699951171875">
        <ele>1678.5999755859375</ele>
        <time>2020-08-13T09:14:44.000Z</time>
      </trkpt>
      <trkpt lat="42.494076825678348541259765625" lon="1.16915973834693431854248046875">
        <ele>1678.5999755859375</ele>
        <time>2020-08-13T09:14:46.000Z</time>
      </trkpt>
      <trkpt lat="42.494065426290035247802734375" lon="1.1691422201693058013916015625">
        <ele>1678.800048828125</ele>
        <time>2020-08-13T09:14:47.000Z</time>
      </trkpt>
      <trkpt lat="42.49402510933578014373779296875" lon="1.16908430121839046478271484375">
        <ele>1679.199951171875</ele>
        <time>2020-08-13T09:14:50.000Z</time>
      </trkpt>
      <trkpt lat="42.4939383566379547119140625" lon="1.1690057627856731414794921875">
        <ele>1680</ele>
        <time>2020-08-13T09:14:56.000Z</time>
      </trkpt>
      <trkpt lat="42.49383819289505481719970703125" lon="1.168878860771656036376953125">
        <ele>1680.5999755859375</ele>
        <time>2020-08-13T09:15:03.000Z</time>
      </trkpt>
      <trkpt lat="42.49380483292043209075927734375" lon="1.1688287369906902313232421875">
        <ele>1681.199951171875</ele>
        <time>2020-08-13T09:15:06.000Z</time>
      </trkpt>
      <trkpt lat="42.493783123791217803955078125" lon="1.16879403591156005859375">
        <ele>1681.5999755859375</ele>
        <time>2020-08-13T09:15:08.000Z</time>
      </trkpt>
      <trkpt lat="42.49370911158621311187744140625" lon="1.168684400618076324462890625">
        <ele>1682</ele>
        <time>2020-08-13T09:15:14.000Z</time>
      </trkpt>
      <trkpt lat="42.49361020512878894805908203125" lon="1.1686252243816852569580078125">
        <ele>1682.199951171875</ele>
        <time>2020-08-13T09:15:19.000Z</time>
      </trkpt>
      <trkpt lat="42.493594028055667877197265625" lon="1.16861072368919849395751953125">
        <ele>1682.5999755859375</ele>
        <time>2020-08-13T09:15:20.000Z</time>
      </trkpt>
      <trkpt lat="42.49351146630942821502685546875" lon="1.16847284138202667236328125">
        <ele>1683.4000244140625</ele>
        <time>2020-08-13T09:15:27.000Z</time>
      </trkpt>
      <trkpt lat="42.49350241385400295257568359375" lon="1.16833127103745937347412109375">
        <ele>1684.4000244140625</ele>
        <time>2020-08-13T09:15:32.000Z</time>
      </trkpt>
      <trkpt lat="42.49350677244365215301513671875" lon="1.168308556079864501953125">
        <ele>1684.4000244140625</ele>
        <time>2020-08-13T09:15:33.000Z</time>
      </trkpt>
      <trkpt lat="42.49353535473346710205078125" lon="1.1682052910327911376953125">
        <ele>1685</ele>
        <time>2020-08-13T09:15:37.000Z</time>
      </trkpt>
      <trkpt lat="42.49353694729506969451904296875" lon="1.16817872039973735809326171875">
        <ele>1685.199951171875</ele>
        <time>2020-08-13T09:15:38.000Z</time>
      </trkpt>
      <trkpt lat="42.49354080297052860260009765625" lon="1.16813865490257740020751953125">
        <ele>1685.4000244140625</ele>
        <time>2020-08-13T09:15:40.000Z</time>
      </trkpt>
      <trkpt lat="42.4935467541217803955078125" lon="1.1681166104972362518310546875">
        <ele>1685.5999755859375</ele>
        <time>2020-08-13T09:15:41.000Z</time>
      </trkpt>
      <trkpt lat="42.49358640052378177642822265625" lon="1.16794670931994915008544921875">
        <ele>1686.5999755859375</ele>
        <time>2020-08-13T09:15:48.000Z</time>
      </trkpt>
      <trkpt lat="42.4935911782085895538330078125" lon="1.16788904182612895965576171875">
        <ele>1687</ele>
        <time>2020-08-13T09:15:50.000Z</time>
      </trkpt>
      <trkpt lat="42.49359562061727046966552734375" lon="1.167773120105266571044921875">
        <ele>1687.4000244140625</ele>
        <time>2020-08-13T09:15:55.000Z</time>
      </trkpt>
      <trkpt lat="42.4935988895595073699951171875" lon="1.1676918156445026397705078125">
        <ele>1687.5999755859375</ele>
        <time>2020-08-13T09:15:59.000Z</time>
      </trkpt>
      <trkpt lat="42.49359981156885623931884765625" lon="1.16767429746687412261962890625">
        <ele>1687.800048828125</ele>
        <time>2020-08-13T09:16:00.000Z</time>
      </trkpt>
      <trkpt lat="42.4935923516750335693359375" lon="1.16764261387288570404052734375">
        <ele>1688.199951171875</ele>
        <time>2020-08-13T09:16:02.000Z</time>
      </trkpt>
      <trkpt lat="42.4935807846486568450927734375" lon="1.16759215481579303741455078125">
        <ele>1688.5999755859375</ele>
        <time>2020-08-13T09:16:05.000Z</time>
      </trkpt>
      <trkpt lat="42.4935841374099254608154296875" lon="1.16757237352430820465087890625">
        <ele>1689</ele>
        <time>2020-08-13T09:16:06.000Z</time>
      </trkpt>
      <trkpt lat="42.4935754202306270599365234375" lon="1.167533397674560546875">
        <ele>1689.199951171875</ele>
        <time>2020-08-13T09:16:08.000Z</time>
      </trkpt>
      <trkpt lat="42.49356485903263092041015625" lon="1.1674681864678859710693359375">
        <ele>1689.5999755859375</ele>
        <time>2020-08-13T09:16:11.000Z</time>
      </trkpt>
      <trkpt lat="42.49355471692979335784912109375" lon="1.16742988117039203643798828125">
        <ele>1689.5999755859375</ele>
        <time>2020-08-13T09:16:13.000Z</time>
      </trkpt>
      <trkpt lat="42.49353141523897647857666015625" lon="1.1673578806221485137939453125">
        <ele>1690</ele>
        <time>2020-08-13T09:16:17.000Z</time>
      </trkpt>
      <trkpt lat="42.493471987545490264892578125" lon="1.16721010766923427581787109375">
        <ele>1691</ele>
        <time>2020-08-13T09:16:24.000Z</time>
      </trkpt>
      <trkpt lat="42.4934641085565090179443359375" lon="1.167188398540019989013671875">
        <ele>1691</ele>
        <time>2020-08-13T09:16:25.000Z</time>
      </trkpt>
      <trkpt lat="42.49343418516218662261962890625" lon="1.1670511029660701751708984375">
        <ele>1691.199951171875</ele>
        <time>2020-08-13T09:16:30.000Z</time>
      </trkpt>
      <trkpt lat="42.49340166337788105010986328125" lon="1.1669572256505489349365234375">
        <ele>1692.199951171875</ele>
        <time>2020-08-13T09:16:34.000Z</time>
      </trkpt>
      <trkpt lat="42.4933916889131069183349609375" lon="1.16693794727325439453125">
        <ele>1692.4000244140625</ele>
        <time>2020-08-13T09:16:35.000Z</time>
      </trkpt>
      <trkpt lat="42.4933561496436595916748046875" lon="1.166834346950054168701171875">
        <ele>1692.800048828125</ele>
        <time>2020-08-13T09:16:40.000Z</time>
      </trkpt>
      <trkpt lat="42.4933276511728763580322265625" lon="1.16672278381884098052978515625">
        <ele>1693.199951171875</ele>
        <time>2020-08-13T09:16:45.000Z</time>
      </trkpt>
      <trkpt lat="42.493330501019954681396484375" lon="1.16669294424355030059814453125">
        <ele>1693.4000244140625</ele>
        <time>2020-08-13T09:16:46.000Z</time>
      </trkpt>
      <trkpt lat="42.49331415630877017974853515625" lon="1.16663309745490550994873046875">
        <ele>1693.800048828125</ele>
        <time>2020-08-13T09:16:49.000Z</time>
      </trkpt>
      <trkpt lat="42.49330912716686725616455078125" lon="1.16661163978278636932373046875">
        <ele>1694</ele>
        <time>2020-08-13T09:16:50.000Z</time>
      </trkpt>
      <trkpt lat="42.49329001642763614654541015625" lon="1.16653972305357456207275390625">
        <ele>1694.4000244140625</ele>
        <time>2020-08-13T09:16:53.000Z</time>
      </trkpt>
      <trkpt lat="42.49326118268072605133056640625" lon="1.1664747633039951324462890625">
        <ele>1695.4000244140625</ele>
        <time>2020-08-13T09:16:56.000Z</time>
      </trkpt>
      <trkpt lat="42.4932302534580230712890625" lon="1.16639320738613605499267578125">
        <ele>1695.800048828125</ele>
        <time>2020-08-13T09:17:00.000Z</time>
      </trkpt>
      <trkpt lat="42.49321290291845798492431640625" lon="1.16635498590767383575439453125">
        <ele>1695.5999755859375</ele>
        <time>2020-08-13T09:17:02.000Z</time>
      </trkpt>
      <trkpt lat="42.493177615106105804443359375" lon="1.16622917354106903076171875">
        <ele>1695.800048828125</ele>
        <time>2020-08-13T09:17:07.000Z</time>
      </trkpt>
      <trkpt lat="42.49316043220460414886474609375" lon="1.1661237291991710662841796875">
        <ele>1696.800048828125</ele>
        <time>2020-08-13T09:17:11.000Z</time>
      </trkpt>
      <trkpt lat="42.4931596778333187103271484375" lon="1.16609615273773670196533203125">
        <ele>1696.800048828125</ele>
        <time>2020-08-13T09:17:12.000Z</time>
      </trkpt>
      <trkpt lat="42.4931409023702144622802734375" lon="1.1659721843898296356201171875">
        <ele>1697.4000244140625</ele>
        <time>2020-08-13T09:17:17.000Z</time>
      </trkpt>
      <trkpt lat="42.49312774278223514556884765625" lon="1.165889203548431396484375">
        <ele>1697.800048828125</ele>
        <time>2020-08-13T09:17:20.000Z</time>
      </trkpt>
      <trkpt lat="42.4931194446980953216552734375" lon="1.16581804119050502777099609375">
        <ele>1698.199951171875</ele>
        <time>2020-08-13T09:17:23.000Z</time>
      </trkpt>
      <trkpt lat="42.49309790320694446563720703125" lon="1.16575249470770359039306640625">
        <ele>1698.800048828125</ele>
        <time>2020-08-13T09:17:26.000Z</time>
      </trkpt>
      <trkpt lat="42.4930859170854091644287109375" lon="1.1657140217721462249755859375">
        <ele>1699</ele>
        <time>2020-08-13T09:17:28.000Z</time>
      </trkpt>
      <trkpt lat="42.493049539625644683837890625" lon="1.16556088440120220184326171875">
        <ele>1699.800048828125</ele>
        <time>2020-08-13T09:17:35.000Z</time>
      </trkpt>
      <trkpt lat="42.49305792152881622314453125" lon="1.1654350720345973968505859375">
        <ele>1701.199951171875</ele>
        <time>2020-08-13T09:17:41.000Z</time>
      </trkpt>
      <trkpt lat="42.49305783770978450775146484375" lon="1.16537765599787235260009765625">
        <ele>1701.4000244140625</ele>
        <time>2020-08-13T09:17:43.000Z</time>
      </trkpt>
      <trkpt lat="42.49305498786270618438720703125" lon="1.16535007953643798828125">
        <ele>1701.5999755859375</ele>
        <time>2020-08-13T09:17:44.000Z</time>
      </trkpt>
      <trkpt lat="42.49302062205970287322998046875" lon="1.1652865447103977203369140625">
        <ele>1702.199951171875</ele>
        <time>2020-08-13T09:17:47.000Z</time>
      </trkpt>
      <trkpt lat="42.4929410777986049652099609375" lon="1.1651956848800182342529296875">
        <ele>1702.5999755859375</ele>
        <time>2020-08-13T09:17:52.000Z</time>
      </trkpt>
      <trkpt lat="42.49292515218257904052734375" lon="1.1651846207678318023681640625">
        <ele>1702.800048828125</ele>
        <time>2020-08-13T09:17:53.000Z</time>
      </trkpt>
      <trkpt lat="42.492892630398273468017578125" lon="1.16516157053411006927490234375">
        <ele>1702.800048828125</ele>
        <time>2020-08-13T09:17:55.000Z</time>
      </trkpt>
      <trkpt lat="42.4928627908229827880859375" lon="1.16510457359254360198974609375">
        <ele>1703.199951171875</ele>
        <time>2020-08-13T09:17:58.000Z</time>
      </trkpt>
      <trkpt lat="42.49286186881363391876220703125" lon="1.1650776676833629608154296875">
        <ele>1703.199951171875</ele>
        <time>2020-08-13T09:17:59.000Z</time>
      </trkpt>
      <trkpt lat="42.492879889905452728271484375" lon="1.16498471237719058990478515625">
        <ele>1703.4000244140625</ele>
        <time>2020-08-13T09:18:02.000Z</time>
      </trkpt>
      <trkpt lat="42.49288701452314853668212890625" lon="1.1649569682776927947998046875">
        <ele>1703.4000244140625</ele>
        <time>2020-08-13T09:18:03.000Z</time>
      </trkpt>
      <trkpt lat="42.49290235340595245361328125" lon="1.1648885719478130340576171875">
        <ele>1704</ele>
        <time>2020-08-13T09:18:06.000Z</time>
      </trkpt>
      <trkpt lat="42.49293328262865543365478515625" lon="1.1648332513868808746337890625">
        <ele>1704.800048828125</ele>
        <time>2020-08-13T09:18:09.000Z</time>
      </trkpt>
      <trkpt lat="42.4929459393024444580078125" lon="1.16479846648871898651123046875">
        <ele>1705.199951171875</ele>
        <time>2020-08-13T09:18:11.000Z</time>
      </trkpt>
      <trkpt lat="42.492973767220973968505859375" lon="1.16470861248672008514404296875">
        <ele>1706</ele>
        <time>2020-08-13T09:18:16.000Z</time>
      </trkpt>
      <trkpt lat="42.49298005364835262298583984375" lon="1.16465195082128047943115234375">
        <ele>1706.199951171875</ele>
        <time>2020-08-13T09:18:19.000Z</time>
      </trkpt>
      <trkpt lat="42.49298457987606525421142578125" lon="1.16456461139023303985595703125">
        <ele>1707.199951171875</ele>
        <time>2020-08-13T09:18:23.000Z</time>
      </trkpt>
      <trkpt lat="42.49298692680895328521728515625" lon="1.16454181261360645294189453125">
        <ele>1707.4000244140625</ele>
        <time>2020-08-13T09:18:24.000Z</time>
      </trkpt>
      <trkpt lat="42.49297334812581539154052734375" lon="1.16440384648740291595458984375">
        <ele>1708</ele>
        <time>2020-08-13T09:18:30.000Z</time>
      </trkpt>
      <trkpt lat="42.49297921545803546905517578125" lon="1.1643541418015956878662109375">
        <ele>1708.4000244140625</ele>
        <time>2020-08-13T09:18:33.000Z</time>
      </trkpt>
      <trkpt lat="42.49298273585736751556396484375" lon="1.16430343128740787506103515625">
        <ele>1708.800048828125</ele>
        <time>2020-08-13T09:18:36.000Z</time>
      </trkpt>
      <trkpt lat="42.4930037744343280792236328125" lon="1.1642042733728885650634765625">
        <ele>1709.199951171875</ele>
        <time>2020-08-13T09:18:41.000Z</time>
      </trkpt>
      <trkpt lat="42.49300804920494556427001953125" lon="1.16415339522063732147216796875">
        <ele>1709.5999755859375</ele>
        <time>2020-08-13T09:18:43.000Z</time>
      </trkpt>
      <trkpt lat="42.4930054508149623870849609375" lon="1.1640738509595394134521484375">
        <ele>1710</ele>
        <time>2020-08-13T09:18:46.000Z</time>
      </trkpt>
      <trkpt lat="42.493005283176898956298828125" lon="1.16397569887340068817138671875">
        <ele>1710.4000244140625</ele>
        <time>2020-08-13T09:18:50.000Z</time>
      </trkpt>
      <trkpt lat="42.49300754629075527191162109375" lon="1.16395759396255016326904296875">
        <ele>1710.5999755859375</ele>
        <time>2020-08-13T09:18:51.000Z</time>
      </trkpt>
      <trkpt lat="42.493006289005279541015625" lon="1.1639405786991119384765625">
        <ele>1711</ele>
        <time>2020-08-13T09:18:52.000Z</time>
      </trkpt>
      <trkpt lat="42.4929880164563655853271484375" lon="1.163792051374912261962890625">
        <ele>1711.4000244140625</ele>
        <time>2020-08-13T09:18:59.000Z</time>
      </trkpt>
      <trkpt lat="42.49297351576387882232666015625" lon="1.16371250711381435394287109375">
        <ele>1711.5999755859375</ele>
        <time>2020-08-13T09:19:03.000Z</time>
      </trkpt>
      <trkpt lat="42.49296463094651699066162109375" lon="1.16367629729211330413818359375">
        <ele>1711.800048828125</ele>
        <time>2020-08-13T09:19:05.000Z</time>
      </trkpt>
      <trkpt lat="42.492925487458705902099609375" lon="1.16356314159929752349853515625">
        <ele>1712</ele>
        <time>2020-08-13T09:19:11.000Z</time>
      </trkpt>
      <trkpt lat="42.49291853047907352447509765625" lon="1.16352458484470844268798828125">
        <ele>1712.199951171875</ele>
        <time>2020-08-13T09:19:13.000Z</time>
      </trkpt>
      <trkpt lat="42.49290662817656993865966796875" lon="1.16348535753786563873291015625">
        <ele>1712.800048828125</ele>
        <time>2020-08-13T09:19:15.000Z</time>
      </trkpt>
      <trkpt lat="42.49289556406438350677490234375" lon="1.163447387516498565673828125">
        <ele>1713.5999755859375</ele>
        <time>2020-08-13T09:19:17.000Z</time>
      </trkpt>
      <trkpt lat="42.4928522296249866485595703125" lon="1.16326273418962955474853515625">
        <ele>1713.4000244140625</ele>
        <time>2020-08-13T09:19:25.000Z</time>
      </trkpt>
      <trkpt lat="42.4928123317658901214599609375" lon="1.1631297133862972259521484375">
        <ele>1713.800048828125</ele>
        <time>2020-08-13T09:19:31.000Z</time>
      </trkpt>
      <trkpt lat="42.4928056262433528900146484375" lon="1.16311152465641498565673828125">
        <ele>1713.800048828125</ele>
        <time>2020-08-13T09:19:32.000Z</time>
      </trkpt>
      <trkpt lat="42.49279347248375415802001953125" lon="1.1630391888320446014404296875">
        <ele>1714.199951171875</ele>
        <time>2020-08-13T09:19:35.000Z</time>
      </trkpt>
      <trkpt lat="42.4927804805338382720947265625" lon="1.1629748158156871795654296875">
        <ele>1714.800048828125</ele>
        <time>2020-08-13T09:19:38.000Z</time>
      </trkpt>
      <trkpt lat="42.492769919335842132568359375" lon="1.1629396118223667144775390625">
        <ele>1715</ele>
        <time>2020-08-13T09:19:40.000Z</time>
      </trkpt>
      <trkpt lat="42.4927581846714019775390625" lon="1.162878088653087615966796875">
        <ele>1715.199951171875</ele>
        <time>2020-08-13T09:19:43.000Z</time>
      </trkpt>
      <trkpt lat="42.49271686188876628875732421875" lon="1.16277121938765048980712890625">
        <ele>1715.800048828125</ele>
        <time>2020-08-13T09:19:48.000Z</time>
      </trkpt>
      <trkpt lat="42.4927100725471973419189453125" lon="1.1627250351011753082275390625">
        <ele>1715.800048828125</ele>
        <time>2020-08-13T09:19:50.000Z</time>
      </trkpt>
      <trkpt lat="42.49269691295921802520751953125" lon="1.16265102289617061614990234375">
        <ele>1716</ele>
        <time>2020-08-13T09:19:53.000Z</time>
      </trkpt>
      <trkpt lat="42.49266707338392734527587890625" lon="1.16249428130686283111572265625">
        <ele>1717</ele>
        <time>2020-08-13T09:19:59.000Z</time>
      </trkpt>
      <trkpt lat="42.49263756908476352691650390625" lon="1.162360422313213348388671875">
        <ele>1717.4000244140625</ele>
        <time>2020-08-13T09:20:04.000Z</time>
      </trkpt>
      <trkpt lat="42.4926292710006237030029296875" lon="1.16233753971755504608154296875">
        <ele>1717.4000244140625</ele>
        <time>2020-08-13T09:20:05.000Z</time>
      </trkpt>
      <trkpt lat="42.49263002537190914154052734375" lon="1.16227903403341770172119140625">
        <ele>1718</ele>
        <time>2020-08-13T09:20:08.000Z</time>
      </trkpt>
      <trkpt lat="42.4926302768290042877197265625" lon="1.1622502841055393218994140625">
        <ele>1718.199951171875</ele>
        <time>2020-08-13T09:20:10.000Z</time>
      </trkpt>
      <trkpt lat="42.49260806478559970855712890625" lon="1.162136457860469818115234375">
        <ele>1718.4000244140625</ele>
        <time>2020-08-13T09:20:15.000Z</time>
      </trkpt>
      <trkpt lat="42.49258585274219512939453125" lon="1.1620538122951984405517578125">
        <ele>1718.4000244140625</ele>
        <time>2020-08-13T09:20:19.000Z</time>
      </trkpt>
      <trkpt lat="42.49257956631481647491455078125" lon="1.16203486919403076171875">
        <ele>1718.4000244140625</ele>
        <time>2020-08-13T09:20:20.000Z</time>
      </trkpt>
      <trkpt lat="42.49254235066473484039306640625" lon="1.1619264073669910430908203125">
        <ele>1718.5999755859375</ele>
        <time>2020-08-13T09:20:26.000Z</time>
      </trkpt>
      <trkpt lat="42.49249876476824283599853515625" lon="1.16182154975831508636474609375">
        <ele>1718.5999755859375</ele>
        <time>2020-08-13T09:20:31.000Z</time>
      </trkpt>
      <trkpt lat="42.49243707396090030670166015625" lon="1.1616840027272701263427734375">
        <ele>1719</ele>
        <time>2020-08-13T09:20:36.000Z</time>
      </trkpt>
      <trkpt lat="42.4924224056303501129150390625" lon="1.16162155754864215850830078125">
        <ele>1719.199951171875</ele>
        <time>2020-08-13T09:20:38.000Z</time>
      </trkpt>
      <trkpt lat="42.49240874312818050384521484375" lon="1.16157344542443752288818359375">
        <ele>1719.5999755859375</ele>
        <time>2020-08-13T09:20:40.000Z</time>
      </trkpt>
      <trkpt lat="42.4923880398273468017578125" lon="1.16149163804948329925537109375">
        <ele>1719.5999755859375</ele>
        <time>2020-08-13T09:20:43.000Z</time>
      </trkpt>
      <trkpt lat="42.49237488023936748504638671875" lon="1.16142994724214076995849609375">
        <ele>1719.5999755859375</ele>
        <time>2020-08-13T09:20:45.000Z</time>
      </trkpt>
      <trkpt lat="42.4923603795468807220458984375" lon="1.161304302513599395751953125">
        <ele>1719.4000244140625</ele>
        <time>2020-08-13T09:20:49.000Z</time>
      </trkpt>
      <trkpt lat="42.4923017062246799468994140625" lon="1.16117656230926513671875">
        <ele>1720.199951171875</ele>
        <time>2020-08-13T09:20:54.000Z</time>
      </trkpt>
      <trkpt lat="42.4922834336757659912109375" lon="1.16114881820976734161376953125">
        <ele>1720.4000244140625</ele>
        <time>2020-08-13T09:20:55.000Z</time>
      </trkpt>
      <trkpt lat="42.49216181226074695587158203125" lon="1.1610157974064350128173828125">
        <ele>1719.800048828125</ele>
        <time>2020-08-13T09:21:02.000Z</time>
      </trkpt>
      <trkpt lat="42.4920546077191829681396484375" lon="1.16091546602547168731689453125">
        <ele>1721</ele>
        <time>2020-08-13T09:21:08.000Z</time>
      </trkpt>
      <trkpt lat="42.49199518002569675445556640625" lon="1.1608793400228023529052734375">
        <ele>1721.4000244140625</ele>
        <time>2020-08-13T09:21:11.000Z</time>
      </trkpt>
      <trkpt lat="42.49193407595157623291015625" lon="1.16083416156470775604248046875">
        <ele>1721.5999755859375</ele>
        <time>2020-08-13T09:21:14.000Z</time>
      </trkpt>
      <trkpt lat="42.49183483421802520751953125" lon="1.160755120217800140380859375">
        <ele>1722</ele>
        <time>2020-08-13T09:21:19.000Z</time>
      </trkpt>
      <trkpt lat="42.49178512953221797943115234375" lon="1.16069041192531585693359375">
        <ele>1722.800048828125</ele>
        <time>2020-08-13T09:21:22.000Z</time>
      </trkpt>
      <trkpt lat="42.4917381070554256439208984375" lon="1.1606436409056186676025390625">
        <ele>1723.4000244140625</ele>
        <time>2020-08-13T09:21:25.000Z</time>
      </trkpt>
      <trkpt lat="42.491619251668453216552734375" lon="1.1604880727827548980712890625">
        <ele>1723.800048828125</ele>
        <time>2020-08-13T09:21:33.000Z</time>
      </trkpt>
      <trkpt lat="42.4915292300283908843994140625" lon="1.1603839695453643798828125">
        <ele>1723.800048828125</ele>
        <time>2020-08-13T09:21:39.000Z</time>
      </trkpt>
      <trkpt lat="42.491433508694171905517578125" lon="1.1602389626204967498779296875">
        <ele>1724.5999755859375</ele>
        <time>2020-08-13T09:21:45.000Z</time>
      </trkpt>
      <trkpt lat="42.49132261611521244049072265625" lon="1.16009152494370937347412109375">
        <ele>1724.5999755859375</ele>
        <time>2020-08-13T09:21:51.000Z</time>
      </trkpt>
      <trkpt lat="42.49127584509551525115966796875" lon="1.159935705363750457763671875">
        <ele>1724.4000244140625</ele>
        <time>2020-08-13T09:32:28.000Z</time>
      </trkpt>
      <trkpt lat="42.4912593327462673187255859375" lon="1.15987895987927913665771484375">
        <ele>1724.4000244140625</ele>
        <time>2020-08-13T09:32:32.000Z</time>
      </trkpt>
      <trkpt lat="42.4912440776824951171875" lon="1.1598128266632556915283203125">
        <ele>1724.5999755859375</ele>
        <time>2020-08-13T09:32:36.000Z</time>
      </trkpt>
      <trkpt lat="42.49124533496797084808349609375" lon="1.1597263254225254058837890625">
        <ele>1725.4000244140625</ele>
        <time>2020-08-13T09:32:41.000Z</time>
      </trkpt>
      <trkpt lat="42.49124198220670223236083984375" lon="1.15967452526092529296875">
        <ele>1725.5999755859375</ele>
        <time>2020-08-13T09:32:44.000Z</time>
      </trkpt>
      <trkpt lat="42.49124164693057537078857421875" lon="1.1596482060849666595458984375">
        <ele>1726</ele>
        <time>2020-08-13T09:32:46.000Z</time>
      </trkpt>
      <trkpt lat="42.49123577959835529327392578125" lon="1.159589029848575592041015625">
        <ele>1726.4000244140625</ele>
        <time>2020-08-13T09:32:50.000Z</time>
      </trkpt>
      <trkpt lat="42.49121096916496753692626953125" lon="1.15949506871402263641357421875">
        <ele>1727.199951171875</ele>
        <time>2020-08-13T09:32:56.000Z</time>
      </trkpt>
      <trkpt lat="42.49121331609785556793212890625" lon="1.1594765447080135345458984375">
        <ele>1727.5999755859375</ele>
        <time>2020-08-13T09:32:57.000Z</time>
      </trkpt>
      <trkpt lat="42.4912298284471035003662109375" lon="1.15938778035342693328857421875">
        <ele>1728</ele>
        <time>2020-08-13T09:33:02.000Z</time>
      </trkpt>
      <trkpt lat="42.49123007990419864654541015625" lon="1.15934503264725208282470703125">
        <ele>1728.199951171875</ele>
        <time>2020-08-13T09:33:04.000Z</time>
      </trkpt>
      <trkpt lat="42.4912281520664691925048828125" lon="1.15922466851770877838134765625">
        <ele>1728.5999755859375</ele>
        <time>2020-08-13T09:33:09.000Z</time>
      </trkpt>
      <trkpt lat="42.4912274815142154693603515625" lon="1.1592063121497631072998046875">
        <ele>1728.5999755859375</ele>
        <time>2020-08-13T09:33:10.000Z</time>
      </trkpt>
      <trkpt lat="42.49122220091521739959716796875" lon="1.15905434824526309967041015625">
        <ele>1729.4000244140625</ele>
        <time>2020-08-13T09:33:16.000Z</time>
      </trkpt>
      <trkpt lat="42.49122974462807178497314453125" lon="1.1589209921658039093017578125">
        <ele>1729.800048828125</ele>
        <time>2020-08-13T09:33:22.000Z</time>
      </trkpt>
      <trkpt lat="42.49122823588550090789794921875" lon="1.15889995358884334564208984375">
        <ele>1729.800048828125</ele>
        <time>2020-08-13T09:33:23.000Z</time>
      </trkpt>
      <trkpt lat="42.49122471548616886138916015625" lon="1.158821582794189453125">
        <ele>1730</ele>
        <time>2020-08-13T09:33:26.000Z</time>
      </trkpt>
      <trkpt lat="42.49124198220670223236083984375" lon="1.15865034051239490509033203125">
        <ele>1730.5999755859375</ele>
        <time>2020-08-13T09:33:33.000Z</time>
      </trkpt>
      <trkpt lat="42.49126947484910488128662109375" lon="1.15853064693510532379150390625">
        <ele>1731</ele>
        <time>2020-08-13T09:33:39.000Z</time>
      </trkpt>
      <trkpt lat="42.4912777729332447052001953125" lon="1.15849678404629230499267578125">
        <ele>1731.199951171875</ele>
        <time>2020-08-13T09:33:41.000Z</time>
      </trkpt>
      <trkpt lat="42.4912848137319087982177734375" lon="1.15841916762292385101318359375">
        <ele>1731.5999755859375</ele>
        <time>2020-08-13T09:33:45.000Z</time>
      </trkpt>
      <trkpt lat="42.491315491497516632080078125" lon="1.1582998931407928466796875">
        <ele>1732.199951171875</ele>
        <time>2020-08-13T09:33:51.000Z</time>
      </trkpt>
      <trkpt lat="42.491343654692173004150390625" lon="1.15822453983128070831298828125">
        <ele>1733.199951171875</ele>
        <time>2020-08-13T09:33:55.000Z</time>
      </trkpt>
      <trkpt lat="42.491357065737247467041015625" lon="1.15818112157285213470458984375">
        <ele>1733.5999755859375</ele>
        <time>2020-08-13T09:33:57.000Z</time>
      </trkpt>
      <trkpt lat="42.491363100707530975341796875" lon="1.15813753567636013031005859375">
        <ele>1734</ele>
        <time>2020-08-13T09:33:59.000Z</time>
      </trkpt>
      <trkpt lat="42.49136955477297306060791015625" lon="1.15799806080758571624755859375">
        <ele>1734.4000244140625</ele>
        <time>2020-08-13T09:34:06.000Z</time>
      </trkpt>
      <trkpt lat="42.49134273268282413482666015625" lon="1.15787275135517120361328125">
        <ele>1734.800048828125</ele>
        <time>2020-08-13T09:34:12.000Z</time>
      </trkpt>
      <trkpt lat="42.49128690920770168304443359375" lon="1.1578326858580112457275390625">
        <ele>1735.4000244140625</ele>
        <time>2020-08-13T09:34:17.000Z</time>
      </trkpt>
      <trkpt lat="42.49124483205378055572509765625" lon="1.15781734697520732879638671875">
        <ele>1736.4000244140625</ele>
        <time>2020-08-13T09:34:20.000Z</time>
      </trkpt>
      <trkpt lat="42.49120493419468402862548828125" lon="1.15781030617654323577880859375">
        <ele>1736.800048828125</ele>
        <time>2020-08-13T09:34:23.000Z</time>
      </trkpt>
      <trkpt lat="42.49114810489118099212646484375" lon="1.15778289735317230224609375">
        <ele>1736.800048828125</ele>
        <time>2020-08-13T09:34:27.000Z</time>
      </trkpt>
      <trkpt lat="42.49107182957231998443603515625" lon="1.15777158178389072418212890625">
        <ele>1737.4000244140625</ele>
        <time>2020-08-13T09:34:34.000Z</time>
      </trkpt>
      <trkpt lat="42.49102019704878330230712890625" lon="1.15772665478289127349853515625">
        <ele>1738.800048828125</ele>
        <time>2020-08-13T09:34:40.000Z</time>
      </trkpt>
      <trkpt lat="42.49101164750754833221435546875" lon="1.1577066220343112945556640625">
        <ele>1738.800048828125</ele>
        <time>2020-08-13T09:34:41.000Z</time>
      </trkpt>
      <trkpt lat="42.49089044518768787384033203125" lon="1.15760629065334796905517578125">
        <ele>1739.199951171875</ele>
        <time>2020-08-13T09:34:49.000Z</time>
      </trkpt>
      <trkpt lat="42.49080545268952846527099609375" lon="1.157535128295421600341796875">
        <ele>1740</ele>
        <time>2020-08-13T09:34:54.000Z</time>
      </trkpt>
      <trkpt lat="42.4907862581312656402587890625" lon="1.1575067974627017974853515625">
        <ele>1740</ele>
        <time>2020-08-13T09:34:55.000Z</time>
      </trkpt>
      <trkpt lat="42.490733452141284942626953125" lon="1.15734712220728397369384765625">
        <ele>1740.4000244140625</ele>
        <time>2020-08-13T09:35:01.000Z</time>
      </trkpt>
      <trkpt lat="42.49072683043777942657470703125" lon="1.1572265066206455230712890625">
        <ele>1740.800048828125</ele>
        <time>2020-08-13T09:35:06.000Z</time>
      </trkpt>
      <trkpt lat="42.49074426479637622833251953125" lon="1.15718669258058071136474609375">
        <ele>1741</ele>
        <time>2020-08-13T09:35:08.000Z</time>
      </trkpt>
      <trkpt lat="42.4907617829740047454833984375" lon="1.15713790990412235260009765625">
        <ele>1741.199951171875</ele>
        <time>2020-08-13T09:35:10.000Z</time>
      </trkpt>
      <trkpt lat="42.4908028542995452880859375" lon="1.15704528987407684326171875">
        <ele>1741.5999755859375</ele>
        <time>2020-08-13T09:35:14.000Z</time>
      </trkpt>
      <trkpt lat="42.49083696864545345306396484375" lon="1.1568925715982913970947265625">
        <ele>1741.5999755859375</ele>
        <time>2020-08-13T09:35:20.000Z</time>
      </trkpt>
      <trkpt lat="42.4908315204083919525146484375" lon="1.15684186108410358428955078125">
        <ele>1741.5999755859375</ele>
        <time>2020-08-13T09:35:22.000Z</time>
      </trkpt>
      <trkpt lat="42.4908238090574741363525390625" lon="1.15675284527242183685302734375">
        <ele>1742.4000244140625</ele>
        <time>2020-08-13T09:35:26.000Z</time>
      </trkpt>
      <trkpt lat="42.4908248148858547210693359375" lon="1.15673541091382503509521484375">
        <ele>1742.5999755859375</ele>
        <time>2020-08-13T09:35:27.000Z</time>
      </trkpt>
      <trkpt lat="42.49082707799971103668212890625" lon="1.15655553527176380157470703125">
        <ele>1743</ele>
        <time>2020-08-13T09:35:33.000Z</time>
      </trkpt>
      <trkpt lat="42.49083730392158031463623046875" lon="1.156417988240718841552734375">
        <ele>1743.199951171875</ele>
        <time>2020-08-13T09:35:39.000Z</time>
      </trkpt>
      <trkpt lat="42.49082422815263271331787109375" lon="1.15629670210182666778564453125">
        <ele>1743.5999755859375</ele>
        <time>2020-08-13T09:35:45.000Z</time>
      </trkpt>
      <trkpt lat="42.4908177740871906280517578125" lon="1.15627608262002468109130859375">
        <ele>1743.800048828125</ele>
        <time>2020-08-13T09:35:46.000Z</time>
      </trkpt>
      <trkpt lat="42.49082003720104694366455078125" lon="1.15616242401301860809326171875">
        <ele>1744.5999755859375</ele>
        <time>2020-08-13T09:35:51.000Z</time>
      </trkpt>
      <trkpt lat="42.4908174388110637664794921875" lon="1.156104840338230133056640625">
        <ele>1745.4000244140625</ele>
        <time>2020-08-13T09:35:53.000Z</time>
      </trkpt>
      <trkpt lat="42.4908087216317653656005859375" lon="1.15600819699466228485107421875">
        <ele>1746.199951171875</ele>
        <time>2020-08-13T09:35:57.000Z</time>
      </trkpt>
      <trkpt lat="42.4908013455569744110107421875" lon="1.1558736674487590789794921875">
        <ele>1746</ele>
        <time>2020-08-13T09:36:02.000Z</time>
      </trkpt>
      <trkpt lat="42.49078181572258472442626953125" lon="1.15579345263540744781494140625">
        <ele>1746.199951171875</ele>
        <time>2020-08-13T09:36:05.000Z</time>
      </trkpt>
      <trkpt lat="42.49077645130455493927001953125" lon="1.1557345278561115264892578125">
        <ele>1746.4000244140625</ele>
        <time>2020-08-13T09:36:07.000Z</time>
      </trkpt>
      <trkpt lat="42.49076505191624164581298828125" lon="1.15569404326379299163818359375">
        <ele>1746.800048828125</ele>
        <time>2020-08-13T09:36:09.000Z</time>
      </trkpt>
      <trkpt lat="42.49073236249387264251708984375" lon="1.1556165106594562530517578125">
        <ele>1747.800048828125</ele>
        <time>2020-08-13T09:36:12.000Z</time>
      </trkpt>
      <trkpt lat="42.49071895144879817962646484375" lon="1.15560251288115978240966796875">
        <ele>1747.800048828125</ele>
        <time>2020-08-13T09:36:13.000Z</time>
      </trkpt>
      <trkpt lat="42.49068089760839939117431640625" lon="1.15554266609251499176025390625">
        <ele>1748</ele>
        <time>2020-08-13T09:36:16.000Z</time>
      </trkpt>
      <trkpt lat="42.49063680879771709442138671875" lon="1.1554864235222339630126953125">
        <ele>1748.199951171875</ele>
        <time>2020-08-13T09:36:19.000Z</time>
      </trkpt>
      <trkpt lat="42.49052457511425018310546875" lon="1.15536429919302463531494140625">
        <ele>1748.800048828125</ele>
        <time>2020-08-13T09:36:25.000Z</time>
      </trkpt>
      <trkpt lat="42.490470595657825469970703125" lon="1.155298836529254913330078125">
        <ele>1748.800048828125</ele>
        <time>2020-08-13T09:36:28.000Z</time>
      </trkpt>
      <trkpt lat="42.4903567694127559661865234375" lon="1.15518878214061260223388671875">
        <ele>1749.199951171875</ele>
        <time>2020-08-13T09:36:34.000Z</time>
      </trkpt>
      <trkpt lat="42.49025635421276092529296875" lon="1.1550988443195819854736328125">
        <ele>1750</ele>
        <time>2020-08-13T09:36:40.000Z</time>
      </trkpt>
      <trkpt lat="42.49012115411460399627685546875" lon="1.155068837106227874755859375">
        <ele>1750.5999755859375</ele>
        <time>2020-08-13T09:36:47.000Z</time>
      </trkpt>
      <trkpt lat="42.49000556766986846923828125" lon="1.1550938151776790618896484375">
        <ele>1750.5999755859375</ele>
        <time>2020-08-13T09:36:53.000Z</time>
      </trkpt>
      <trkpt lat="42.4898726306855678558349609375" lon="1.15511275827884674072265625">
        <ele>1750.800048828125</ele>
        <time>2020-08-13T09:37:00.000Z</time>
      </trkpt>
      <trkpt lat="42.4898481555283069610595703125" lon="1.1551105789840221405029296875">
        <ele>1750.800048828125</ele>
        <time>2020-08-13T09:37:01.000Z</time>
      </trkpt>
      <trkpt lat="42.4897220917046070098876953125" lon="1.15510881878435611724853515625">
        <ele>1751.5999755859375</ele>
        <time>2020-08-13T09:37:07.000Z</time>
      </trkpt>
      <trkpt lat="42.4896562099456787109375" lon="1.15509289316833019256591796875">
        <ele>1752</ele>
        <time>2020-08-13T09:37:11.000Z</time>
      </trkpt>
      <trkpt lat="42.489623017609119415283203125" lon="1.15506959147751331329345703125">
        <ele>1751.800048828125</ele>
        <time>2020-08-13T09:37:13.000Z</time>
      </trkpt>
      <trkpt lat="42.48950474895536899566650390625" lon="1.15499029867351055145263671875">
        <ele>1752.199951171875</ele>
        <time>2020-08-13T09:37:20.000Z</time>
      </trkpt>
      <trkpt lat="42.48936778865754604339599609375" lon="1.1548343114554882049560546875">
        <ele>1752.5999755859375</ele>
        <time>2020-08-13T09:37:29.000Z</time>
      </trkpt>
      <trkpt lat="42.4893086962401866912841796875" lon="1.1547528393566608428955078125">
        <ele>1753</ele>
        <time>2020-08-13T09:37:33.000Z</time>
      </trkpt>
      <trkpt lat="42.48926125466823577880859375" lon="1.15467287600040435791015625">
        <ele>1753.4000244140625</ele>
        <time>2020-08-13T09:37:37.000Z</time>
      </trkpt>
      <trkpt lat="42.4892369471490383148193359375" lon="1.1546279489994049072265625">
        <ele>1754</ele>
        <time>2020-08-13T09:37:39.000Z</time>
      </trkpt>
      <trkpt lat="42.48914617113769054412841796875" lon="1.15448352880775928497314453125">
        <ele>1754.4000244140625</ele>
        <time>2020-08-13T09:37:46.000Z</time>
      </trkpt>
      <trkpt lat="42.4891001544892787933349609375" lon="1.154427118599414825439453125">
        <ele>1755</ele>
        <time>2020-08-13T09:37:49.000Z</time>
      </trkpt>
      <trkpt lat="42.4890572391450405120849609375" lon="1.1543652601540088653564453125">
        <ele>1755.199951171875</ele>
        <time>2020-08-13T09:37:52.000Z</time>
      </trkpt>
      <trkpt lat="42.48897434212267398834228515625" lon="1.15420843474566936492919921875">
        <ele>1755.4000244140625</ele>
        <time>2020-08-13T09:37:59.000Z</time>
      </trkpt>
      <trkpt lat="42.48889647424221038818359375" lon="1.15409729070961475372314453125">
        <ele>1756.199951171875</ele>
        <time>2020-08-13T09:38:05.000Z</time>
      </trkpt>
      <trkpt lat="42.48882916755974292755126953125" lon="1.1539723165333271026611328125">
        <ele>1756.4000244140625</ele>
        <time>2020-08-13T09:38:11.000Z</time>
      </trkpt>
      <trkpt lat="42.4887544848024845123291015625" lon="1.15378984250128269195556640625">
        <ele>1757.199951171875</ele>
        <time>2020-08-13T09:38:17.000Z</time>
      </trkpt>
      <trkpt lat="42.4887134134769439697265625" lon="1.1537325941026210784912109375">
        <ele>1757.5999755859375</ele>
        <time>2020-08-13T09:38:20.000Z</time>
      </trkpt>
      <trkpt lat="42.48863990418612957000732421875" lon="1.1536343581974506378173828125">
        <ele>1758.4000244140625</ele>
        <time>2020-08-13T09:38:26.000Z</time>
      </trkpt>
      <trkpt lat="42.48850084841251373291015625" lon="1.1535631120204925537109375">
        <ele>1759.5999755859375</ele>
        <time>2020-08-13T09:38:34.000Z</time>
      </trkpt>
      <trkpt lat="42.48844896443188190460205078125" lon="1.153560094535350799560546875">
        <ele>1760</ele>
        <time>2020-08-13T09:38:37.000Z</time>
      </trkpt>
      <trkpt lat="42.488404624164104461669921875" lon="1.15354391746222972869873046875">
        <ele>1760.4000244140625</ele>
        <time>2020-08-13T09:38:40.000Z</time>
      </trkpt>
      <trkpt lat="42.4883689172565937042236328125" lon="1.15352648310363292694091796875">
        <ele>1760.5999755859375</ele>
        <time>2020-08-13T09:38:42.000Z</time>
      </trkpt>
      <trkpt lat="42.48829658143222332000732421875" lon="1.15345708094537258148193359375">
        <ele>1761</ele>
        <time>2020-08-13T09:38:46.000Z</time>
      </trkpt>
      <trkpt lat="42.48826791532337665557861328125" lon="1.15337334573268890380859375">
        <ele>1761.199951171875</ele>
        <time>2020-08-13T09:38:50.000Z</time>
      </trkpt>
      <trkpt lat="42.488257773220539093017578125" lon="1.15332908928394317626953125">
        <ele>1761.5999755859375</ele>
        <time>2020-08-13T09:38:52.000Z</time>
      </trkpt>
      <trkpt lat="42.488237656652927398681640625" lon="1.1532202921807765960693359375">
        <ele>1762</ele>
        <time>2020-08-13T09:38:57.000Z</time>
      </trkpt>
      <trkpt lat="42.48821879737079143524169921875" lon="1.15307084284722805023193359375">
        <ele>1762.4000244140625</ele>
        <time>2020-08-13T09:39:03.000Z</time>
      </trkpt>
      <trkpt lat="42.48820991255342960357666015625" lon="1.15301434881985187530517578125">
        <ele>1762.800048828125</ele>
        <time>2020-08-13T09:39:05.000Z</time>
      </trkpt>
      <trkpt lat="42.4881801567971706390380859375" lon="1.15294553339481353759765625">
        <ele>1763</ele>
        <time>2020-08-13T09:39:08.000Z</time>
      </trkpt>
      <trkpt lat="42.48812173493206501007080078125" lon="1.15288116037845611572265625">
        <ele>1763.5999755859375</ele>
        <time>2020-08-13T09:39:13.000Z</time>
      </trkpt>
      <trkpt lat="42.48810798861086368560791015625" lon="1.15286598913371562957763671875">
        <ele>1763.800048828125</ele>
        <time>2020-08-13T09:39:14.000Z</time>
      </trkpt>
      <trkpt lat="42.488034479320049285888671875" lon="1.15279139019548892974853515625">
        <ele>1764.199951171875</ele>
        <time>2020-08-13T09:39:19.000Z</time>
      </trkpt>
      <trkpt lat="42.48797153122723102569580078125" lon="1.15270941518247127532958984375">
        <ele>1765</ele>
        <time>2020-08-13T09:39:24.000Z</time>
      </trkpt>
      <trkpt lat="42.48793498612940311431884765625" lon="1.1526560224592685699462890625">
        <ele>1765.4000244140625</ele>
        <time>2020-08-13T09:39:27.000Z</time>
      </trkpt>
      <trkpt lat="42.48788720928132534027099609375" lon="1.15258385427296161651611328125">
        <ele>1765.800048828125</ele>
        <time>2020-08-13T09:39:31.000Z</time>
      </trkpt>
      <trkpt lat="42.48788402415812015533447265625" lon="1.15256491117179393768310546875">
        <ele>1766.199951171875</ele>
        <time>2020-08-13T09:39:32.000Z</time>
      </trkpt>
      <trkpt lat="42.487845718860626220703125" lon="1.15243147127330303192138671875">
        <ele>1767</ele>
        <time>2020-08-13T09:39:38.000Z</time>
      </trkpt>
      <trkpt lat="42.487838678061962127685546875" lon="1.152405403554439544677734375">
        <ele>1767.199951171875</ele>
        <time>2020-08-13T09:39:39.000Z</time>
      </trkpt>
      <trkpt lat="42.48777237720787525177001953125" lon="1.1522567085921764373779296875">
        <ele>1768.199951171875</ele>
        <time>2020-08-13T09:39:46.000Z</time>
      </trkpt>
      <trkpt lat="42.48771973885595798492431640625" lon="1.15218923427164554595947265625">
        <ele>1768.4000244140625</ele>
        <time>2020-08-13T09:39:50.000Z</time>
      </trkpt>
      <trkpt lat="42.48771051876246929168701171875" lon="1.1521785892546176910400390625">
        <ele>1768.199951171875</ele>
        <time>2020-08-13T09:39:51.000Z</time>
      </trkpt>
      <trkpt lat="42.487638182938098907470703125" lon="1.1520905792713165283203125">
        <ele>1769</ele>
        <time>2020-08-13T09:39:57.000Z</time>
      </trkpt>
      <trkpt lat="42.487583868205547332763671875" lon="1.1520062573254108428955078125">
        <ele>1769.4000244140625</ele>
        <time>2020-08-13T09:40:02.000Z</time>
      </trkpt>
      <trkpt lat="42.48756936751306056976318359375" lon="1.15198890678584575653076171875">
        <ele>1769.4000244140625</ele>
        <time>2020-08-13T09:40:03.000Z</time>
      </trkpt>
      <trkpt lat="42.48747800476849079132080078125" lon="1.1518815346062183380126953125">
        <ele>1770.199951171875</ele>
        <time>2020-08-13T09:40:10.000Z</time>
      </trkpt>
      <trkpt lat="42.48744933865964412689208984375" lon="1.15185647271573543548583984375">
        <ele>1770.4000244140625</ele>
        <time>2020-08-13T09:40:12.000Z</time>
      </trkpt>
      <trkpt lat="42.48735412023961544036865234375" lon="1.151775754988193511962890625">
        <ele>1771</ele>
        <time>2020-08-13T09:40:18.000Z</time>
      </trkpt>
      <trkpt lat="42.48727239668369293212890625" lon="1.15173812024295330047607421875">
        <ele>1771.4000244140625</ele>
        <time>2020-08-13T09:40:23.000Z</time>
      </trkpt>
      <trkpt lat="42.48716921545565128326416015625" lon="1.15169403143227100372314453125">
        <ele>1772.4000244140625</ele>
        <time>2020-08-13T09:40:30.000Z</time>
      </trkpt>
      <trkpt lat="42.48705538921058177947998046875" lon="1.1516957916319370269775390625">
        <ele>1773.199951171875</ele>
        <time>2020-08-13T09:40:37.000Z</time>
      </trkpt>
      <trkpt lat="42.48702437616884708404541015625" lon="1.15168757736682891845703125">
        <ele>1773.5999755859375</ele>
        <time>2020-08-13T09:40:39.000Z</time>
      </trkpt>
      <trkpt lat="42.4869386292994022369384765625" lon="1.1516750045120716094970703125">
        <ele>1773.800048828125</ele>
        <time>2020-08-13T09:40:44.000Z</time>
      </trkpt>
      <trkpt lat="42.48682916164398193359375" lon="1.1516853980720043182373046875">
        <ele>1774.199951171875</ele>
        <time>2020-08-13T09:40:51.000Z</time>
      </trkpt>
      <trkpt lat="42.486741654574871063232421875" lon="1.151706017553806304931640625">
        <ele>1774.5999755859375</ele>
        <time>2020-08-13T09:40:56.000Z</time>
      </trkpt>
      <trkpt lat="42.4867232143878936767578125" lon="1.1517085321247577667236328125">
        <ele>1775</ele>
        <time>2020-08-13T09:40:57.000Z</time>
      </trkpt>
      <trkpt lat="42.48664752580225467681884765625" lon="1.1516641080379486083984375">
        <ele>1775.800048828125</ele>
        <time>2020-08-13T09:41:02.000Z</time>
      </trkpt>
      <trkpt lat="42.4866385571658611297607421875" lon="1.1516533792018890380859375">
        <ele>1775.800048828125</ele>
        <time>2020-08-13T09:41:03.000Z</time>
      </trkpt>
      <trkpt lat="42.48660385608673095703125" lon="1.15157760679721832275390625">
        <ele>1776</ele>
        <time>2020-08-13T09:41:07.000Z</time>
      </trkpt>
      <trkpt lat="42.4865832366049289703369140625" lon="1.151529662311077117919921875">
        <ele>1776.199951171875</ele>
        <time>2020-08-13T09:41:09.000Z</time>
      </trkpt>
      <trkpt lat="42.48655314557254314422607421875" lon="1.15145422518253326416015625">
        <ele>1776.800048828125</ele>
        <time>2020-08-13T09:41:12.000Z</time>
      </trkpt>
      <trkpt lat="42.48653403483331203460693359375" lon="1.1513655446469783782958984375">
        <ele>1777.4000244140625</ele>
        <time>2020-08-13T09:41:16.000Z</time>
      </trkpt>
      <trkpt lat="42.486529089510440826416015625" lon="1.15134433843195438385009765625">
        <ele>1777.5999755859375</ele>
        <time>2020-08-13T09:41:17.000Z</time>
      </trkpt>
      <trkpt lat="42.48654208146035671234130859375" lon="1.1512595973908901214599609375">
        <ele>1778</ele>
        <time>2020-08-13T09:41:21.000Z</time>
      </trkpt>
      <trkpt lat="42.4865188635885715484619140625" lon="1.1511228047311305999755859375">
        <ele>1778.5999755859375</ele>
        <time>2020-08-13T09:41:27.000Z</time>
      </trkpt>
      <trkpt lat="42.486512996256351470947265625" lon="1.151054911315441131591796875">
        <ele>1779</ele>
        <time>2020-08-13T09:41:30.000Z</time>
      </trkpt>
      <trkpt lat="42.486503608524799346923828125" lon="1.1509672366082668304443359375">
        <ele>1779.4000244140625</ele>
        <time>2020-08-13T09:41:34.000Z</time>
      </trkpt>
      <trkpt lat="42.48649246059358119964599609375" lon="1.15085399709641933441162109375">
        <ele>1780</ele>
        <time>2020-08-13T09:41:39.000Z</time>
      </trkpt>
      <trkpt lat="42.48647452332079410552978515625" lon="1.150791384279727935791015625">
        <ele>1780.199951171875</ele>
        <time>2020-08-13T09:41:42.000Z</time>
      </trkpt>
      <trkpt lat="42.48645993880927562713623046875" lon="1.1507040448486804962158203125">
        <ele>1781.199951171875</ele>
        <time>2020-08-13T09:41:46.000Z</time>
      </trkpt>
      <trkpt lat="42.48643730767071247100830078125" lon="1.15063388831913471221923828125">
        <ele>1781.5999755859375</ele>
        <time>2020-08-13T09:41:49.000Z</time>
      </trkpt>
      <trkpt lat="42.48638651333749294281005859375" lon="1.15053665824234485626220703125">
        <ele>1782.4000244140625</ele>
        <time>2020-08-13T09:41:54.000Z</time>
      </trkpt>
      <trkpt lat="42.48630269430577754974365234375" lon="1.15051704458892345428466796875">
        <ele>1783.199951171875</ele>
        <time>2020-08-13T09:41:59.000Z</time>
      </trkpt>
      <trkpt lat="42.48625860549509525299072265625" lon="1.1505102552473545074462890625">
        <ele>1783.5999755859375</ele>
        <time>2020-08-13T09:42:02.000Z</time>
      </trkpt>
      <trkpt lat="42.4862117506563663482666015625" lon="1.15049659274518489837646484375">
        <ele>1783.800048828125</ele>
        <time>2020-08-13T09:42:05.000Z</time>
      </trkpt>
      <trkpt lat="42.48617528937757015228271484375" lon="1.1504576168954372406005859375">
        <ele>1784</ele>
        <time>2020-08-13T09:42:08.000Z</time>
      </trkpt>
      <trkpt lat="42.4861691705882549285888671875" lon="1.1504276096820831298828125">
        <ele>1784</ele>
        <time>2020-08-13T09:42:10.000Z</time>
      </trkpt>
      <trkpt lat="42.4861316196620464324951171875" lon="1.15030816756188869476318359375">
        <ele>1784.5999755859375</ele>
        <time>2020-08-13T09:42:15.000Z</time>
      </trkpt>
      <trkpt lat="42.48611778952181339263916015625" lon="1.15023071877658367156982421875">
        <ele>1785.199951171875</ele>
        <time>2020-08-13T09:42:18.000Z</time>
      </trkpt>
      <trkpt lat="42.48610295355319976806640625" lon="1.1501642502844333648681640625">
        <ele>1785.800048828125</ele>
        <time>2020-08-13T09:42:21.000Z</time>
      </trkpt>
      <trkpt lat="42.48609901405870914459228515625" lon="1.1500854603946208953857421875">
        <ele>1786</ele>
        <time>2020-08-13T09:42:24.000Z</time>
      </trkpt>
      <trkpt lat="42.486093901097774505615234375" lon="1.1500576324760913848876953125">
        <ele>1785.800048828125</ele>
        <time>2020-08-13T09:42:25.000Z</time>
      </trkpt>
      <trkpt lat="42.48605777509510517120361328125" lon="1.1499748192727565765380859375">
        <ele>1785.800048828125</ele>
        <time>2020-08-13T09:42:29.000Z</time>
      </trkpt>
      <trkpt lat="42.486029528081417083740234375" lon="1.14984917454421520233154296875">
        <ele>1786.5999755859375</ele>
        <time>2020-08-13T09:42:35.000Z</time>
      </trkpt>
      <trkpt lat="42.4860223196446895599365234375" lon="1.149807684123516082763671875">
        <ele>1786.800048828125</ele>
        <time>2020-08-13T09:42:37.000Z</time>
      </trkpt>
      <trkpt lat="42.486020140349864959716796875" lon="1.149787567555904388427734375">
        <ele>1786.800048828125</ele>
        <time>2020-08-13T09:42:38.000Z</time>
      </trkpt>
      <trkpt lat="42.48602273873984813690185546875" lon="1.149769462645053863525390625">
        <ele>1787</ele>
        <time>2020-08-13T09:42:39.000Z</time>
      </trkpt>
      <trkpt lat="42.4860357306897640228271484375" lon="1.14973367191851139068603515625">
        <ele>1787</ele>
        <time>2020-08-13T09:42:41.000Z</time>
      </trkpt>
      <trkpt lat="42.48606431297957897186279296875" lon="1.14958749152719974517822265625">
        <ele>1787.5999755859375</ele>
        <time>2020-08-13T09:42:48.000Z</time>
      </trkpt>
      <trkpt lat="42.48607386834919452667236328125" lon="1.14956066943705081939697265625">
        <ele>1788</ele>
        <time>2020-08-13T09:42:50.000Z</time>
      </trkpt>
      <trkpt lat="42.486086189746856689453125" lon="1.14947416819632053375244140625">
        <ele>1789</ele>
        <time>2020-08-13T09:42:55.000Z</time>
      </trkpt>
      <trkpt lat="42.48609381727874279022216796875" lon="1.1493545584380626678466796875">
        <ele>1789.5999755859375</ele>
        <time>2020-08-13T09:43:01.000Z</time>
      </trkpt>
      <trkpt lat="42.48610831797122955322265625" lon="1.14924919791519641876220703125">
        <ele>1790.199951171875</ele>
        <time>2020-08-13T09:43:06.000Z</time>
      </trkpt>
      <trkpt lat="42.48610873706638813018798828125" lon="1.149232685565948486328125">
        <ele>1790.199951171875</ele>
        <time>2020-08-13T09:43:07.000Z</time>
      </trkpt>
      <trkpt lat="42.4860846810042858123779296875" lon="1.14911056123673915863037109375">
        <ele>1791.199951171875</ele>
        <time>2020-08-13T09:43:13.000Z</time>
      </trkpt>
      <trkpt lat="42.4860353954136371612548828125" lon="1.1489720083773136138916015625">
        <ele>1792</ele>
        <time>2020-08-13T09:43:20.000Z</time>
      </trkpt>
      <trkpt lat="42.48601385392248630523681640625" lon="1.1489200405776500701904296875">
        <ele>1792.4000244140625</ele>
        <time>2020-08-13T09:43:23.000Z</time>
      </trkpt>
      <trkpt lat="42.48599541373550891876220703125" lon="1.14888475276529788970947265625">
        <ele>1792.5999755859375</ele>
        <time>2020-08-13T09:43:25.000Z</time>
      </trkpt>
      <trkpt lat="42.48597647063434123992919921875" lon="1.14884711802005767822265625">
        <ele>1792.5999755859375</ele>
        <time>2020-08-13T09:43:27.000Z</time>
      </trkpt>
      <trkpt lat="42.4859126843512058258056640625" lon="1.14875282160937786102294921875">
        <ele>1793.4000244140625</ele>
        <time>2020-08-13T09:43:33.000Z</time>
      </trkpt>
      <trkpt lat="42.48583565466105937957763671875" lon="1.148642934858798980712890625">
        <ele>1794.199951171875</ele>
        <time>2020-08-13T09:43:40.000Z</time>
      </trkpt>
      <trkpt lat="42.48578779399394989013671875" lon="1.14853757433593273162841796875">
        <ele>1794.199951171875</ele>
        <time>2020-08-13T09:43:45.000Z</time>
      </trkpt>
      <trkpt lat="42.4857698567211627960205078125" lon="1.1484975926578044891357421875">
        <ele>1794.4000244140625</ele>
        <time>2020-08-13T09:43:47.000Z</time>
      </trkpt>
      <trkpt lat="42.48573775403201580047607421875" lon="1.14838317967951297760009765625">
        <ele>1794.5999755859375</ele>
        <time>2020-08-13T09:43:52.000Z</time>
      </trkpt>
      <trkpt lat="42.4857249297201633453369140625" lon="1.14824269898235797882080078125">
        <ele>1795.4000244140625</ele>
        <time>2020-08-13T09:43:58.000Z</time>
      </trkpt>
      <trkpt lat="42.48572484590113162994384765625" lon="1.148221492767333984375">
        <ele>1795.5999755859375</ele>
        <time>2020-08-13T09:43:59.000Z</time>
      </trkpt>
      <trkpt lat="42.4857041426002979278564453125" lon="1.1481197364628314971923828125">
        <ele>1796.5999755859375</ele>
        <time>2020-08-13T09:44:04.000Z</time>
      </trkpt>
      <trkpt lat="42.48569768853485584259033203125" lon="1.14807807840406894683837890625">
        <ele>1796.5999755859375</ele>
        <time>2020-08-13T09:44:06.000Z</time>
      </trkpt>
      <trkpt lat="42.48568528331816196441650390625" lon="1.14799258299171924591064453125">
        <ele>1797.4000244140625</ele>
        <time>2020-08-13T09:44:10.000Z</time>
      </trkpt>
      <trkpt lat="42.48568327166140079498291015625" lon="1.1479252763092517852783203125">
        <ele>1797.5999755859375</ele>
        <time>2020-08-13T09:44:13.000Z</time>
      </trkpt>
      <trkpt lat="42.48568846844136714935302734375" lon="1.14790440537035465240478515625">
        <ele>1797.800048828125</ele>
        <time>2020-08-13T09:44:14.000Z</time>
      </trkpt>
      <trkpt lat="42.48569517396390438079833984375" lon="1.14788060076534748077392578125">
        <ele>1798</ele>
        <time>2020-08-13T09:44:15.000Z</time>
      </trkpt>
      <trkpt lat="42.4857200682163238525390625" lon="1.14773944951593875885009765625">
        <ele>1798.4000244140625</ele>
        <time>2020-08-13T09:44:21.000Z</time>
      </trkpt>
      <trkpt lat="42.48572610318660736083984375" lon="1.14768706262111663818359375">
        <ele>1798.4000244140625</ele>
        <time>2020-08-13T09:44:23.000Z</time>
      </trkpt>
      <trkpt lat="42.485726773738861083984375" lon="1.14763366989791393280029296875">
        <ele>1798.800048828125</ele>
        <time>2020-08-13T09:44:25.000Z</time>
      </trkpt>
      <trkpt lat="42.4857281148433685302734375" lon="1.14761204458773136138916015625">
        <ele>1799</ele>
        <time>2020-08-13T09:44:26.000Z</time>
      </trkpt>
      <trkpt lat="42.4857363291084766387939453125" lon="1.14759108982980251312255859375">
        <ele>1799</ele>
        <time>2020-08-13T09:44:27.000Z</time>
      </trkpt>
      <trkpt lat="42.48578301630914211273193359375" lon="1.14740920253098011016845703125">
        <ele>1799.800048828125</ele>
        <time>2020-08-13T09:44:34.000Z</time>
      </trkpt>
      <trkpt lat="42.4857748858630657196044921875" lon="1.14727534353733062744140625">
        <ele>1800</ele>
        <time>2020-08-13T09:44:40.000Z</time>
      </trkpt>
      <trkpt lat="42.485774718225002288818359375" lon="1.14725665189325809478759765625">
        <ele>1800.4000244140625</ele>
        <time>2020-08-13T09:44:41.000Z</time>
      </trkpt>
      <trkpt lat="42.48576926998794078826904296875" lon="1.14718540571630001068115234375">
        <ele>1800.800048828125</ele>
        <time>2020-08-13T09:44:46.000Z</time>
      </trkpt>
      <trkpt lat="42.4857678450644016265869140625" lon="1.14718674682080745697021484375">
        <ele>1801.199951171875</ele>
        <time>2020-08-13T09:44:51.000Z</time>
      </trkpt>
      <trkpt lat="42.4857628159224987030029296875" lon="1.14717417396605014801025390625">
        <ele>1801.4000244140625</ele>
        <time>2020-08-13T09:44:54.000Z</time>
      </trkpt>
      <trkpt lat="42.48572065494954586029052734375" lon="1.147057749330997467041015625">
        <ele>1801.5999755859375</ele>
        <time>2020-08-13T09:45:00.000Z</time>
      </trkpt>
      <trkpt lat="42.48567991890013217926025390625" lon="1.146931350231170654296875">
        <ele>1801.800048828125</ele>
        <time>2020-08-13T09:45:06.000Z</time>
      </trkpt>
      <trkpt lat="42.48564563691616058349609375" lon="1.14681626670062541961669921875">
        <ele>1802.199951171875</ele>
        <time>2020-08-13T09:45:11.000Z</time>
      </trkpt>
      <trkpt lat="42.4856374226510524749755859375" lon="1.14679430611431598663330078125">
        <ele>1802.4000244140625</ele>
        <time>2020-08-13T09:45:12.000Z</time>
      </trkpt>
      <trkpt lat="42.48558738268911838531494140625" lon="1.14664795808494091033935546875">
        <ele>1803.199951171875</ele>
        <time>2020-08-13T09:45:19.000Z</time>
      </trkpt>
      <trkpt lat="42.48558738268911838531494140625" lon="1.14659548737108707427978515625">
        <ele>1803.800048828125</ele>
        <time>2020-08-13T09:45:21.000Z</time>
      </trkpt>
      <trkpt lat="42.485603056848049163818359375" lon="1.14648669026792049407958984375">
        <ele>1804</ele>
        <time>2020-08-13T09:45:25.000Z</time>
      </trkpt>
      <trkpt lat="42.48563549481332302093505859375" lon="1.146384514868259429931640625">
        <ele>1805</ele>
        <time>2020-08-13T09:45:29.000Z</time>
      </trkpt>
      <trkpt lat="42.4856422841548919677734375" lon="1.146334223449230194091796875">
        <ele>1805</ele>
        <time>2020-08-13T09:45:31.000Z</time>
      </trkpt>
      <trkpt lat="42.48567773960530757904052734375" lon="1.14615661092102527618408203125">
        <ele>1806.199951171875</ele>
        <time>2020-08-13T09:45:38.000Z</time>
      </trkpt>
      <trkpt lat="42.485740184783935546875" lon="1.1460017971694469451904296875">
        <ele>1806.5999755859375</ele>
        <time>2020-08-13T09:45:45.000Z</time>
      </trkpt>
      <trkpt lat="42.48578167520463466644287109375" lon="1.145870201289653778076171875">
        <ele>1807.4000244140625</ele>
        <time>2020-08-13T09:45:50.000Z</time>
      </trkpt>
      <trkpt lat="42.4858010374009609222412109375" lon="1.1458257772028446197509765625">
        <ele>1808</ele>
        <time>2020-08-13T09:45:52.000Z</time>
      </trkpt>
      <trkpt lat="42.48582609929144382476806640625" lon="1.1457230150699615478515625">
        <ele>1808.5999755859375</ele>
        <time>2020-08-13T09:45:56.000Z</time>
      </trkpt>
      <trkpt lat="42.48586616478860378265380859375" lon="1.1456336639821529388427734375">
        <ele>1809.199951171875</ele>
        <time>2020-08-13T09:46:00.000Z</time>
      </trkpt>
      <trkpt lat="42.4858992733061313629150390625" lon="1.1455582268536090850830078125">
        <ele>1809.800048828125</ele>
        <time>2020-08-13T09:46:04.000Z</time>
      </trkpt>
      <trkpt lat="42.48593933880329132080078125" lon="1.14550148136913776397705078125">
        <ele>1810.5999755859375</ele>
        <time>2020-08-13T09:46:08.000Z</time>
      </trkpt>
      <trkpt lat="42.48595409095287322998046875" lon="1.1454663611948490142822265625">
        <ele>1810.800048828125</ele>
        <time>2020-08-13T09:46:10.000Z</time>
      </trkpt>
      <trkpt lat="42.4859559349715709686279296875" lon="1.14544213749468326568603515625">
        <ele>1811</ele>
        <time>2020-08-13T09:46:11.000Z</time>
      </trkpt>
      <trkpt lat="42.48596657998859882354736328125" lon="1.14540374837815761566162109375">
        <ele>1811.4000244140625</ele>
        <time>2020-08-13T09:46:13.000Z</time>
      </trkpt>
      <trkpt lat="42.48598384670913219451904296875" lon="1.145361922681331634521484375">
        <ele>1811.800048828125</ele>
        <time>2020-08-13T09:46:15.000Z</time>
      </trkpt>
      <trkpt lat="42.48599172569811344146728515625" lon="1.14534306339919567108154296875">
        <ele>1812</ele>
        <time>2020-08-13T09:46:16.000Z</time>
      </trkpt>
      <trkpt lat="42.4860082380473613739013671875" lon="1.14527617581188678741455078125">
        <ele>1812.4000244140625</ele>
        <time>2020-08-13T09:46:19.000Z</time>
      </trkpt>
      <trkpt lat="42.48609499074518680572509765625" lon="1.1451183445751667022705078125">
        <ele>1813.199951171875</ele>
        <time>2020-08-13T09:46:27.000Z</time>
      </trkpt>
      <trkpt lat="42.48611644841730594635009765625" lon="1.14506998099386692047119140625">
        <ele>1814.4000244140625</ele>
        <time>2020-08-13T09:46:30.000Z</time>
      </trkpt>
      <trkpt lat="42.48613790608942508697509765625" lon="1.14501030184328556060791015625">
        <ele>1815</ele>
        <time>2020-08-13T09:46:33.000Z</time>
      </trkpt>
      <trkpt lat="42.48615525662899017333984375" lon="1.1449098028242588043212890625">
        <ele>1815.5999755859375</ele>
        <time>2020-08-13T09:46:37.000Z</time>
      </trkpt>
      <trkpt lat="42.486159615218639373779296875" lon="1.1448390595614910125732421875">
        <ele>1815.800048828125</ele>
        <time>2020-08-13T09:46:40.000Z</time>
      </trkpt>
      <trkpt lat="42.48614913783967494964599609375" lon="1.1447708308696746826171875">
        <ele>1816.5999755859375</ele>
        <time>2020-08-13T09:46:43.000Z</time>
      </trkpt>
      <trkpt lat="42.48613824136555194854736328125" lon="1.1446720920503139495849609375">
        <ele>1817.199951171875</ele>
        <time>2020-08-13T09:46:47.000Z</time>
      </trkpt>
      <trkpt lat="42.4860977567732334136962890625" lon="1.1445145122706890106201171875">
        <ele>1817.199951171875</ele>
        <time>2020-08-13T09:46:54.000Z</time>
      </trkpt>
      <trkpt lat="42.48609113506972789764404296875" lon="1.14443010650575160980224609375">
        <ele>1817.5999755859375</ele>
        <time>2020-08-13T09:46:58.000Z</time>
      </trkpt>
      <trkpt lat="42.486094571650028228759765625" lon="1.144390292465686798095703125">
        <ele>1817.800048828125</ele>
        <time>2020-08-13T09:47:00.000Z</time>
      </trkpt>
      <trkpt lat="42.48608895577490329742431640625" lon="1.14434368908405303955078125">
        <ele>1818</ele>
        <time>2020-08-13T09:47:02.000Z</time>
      </trkpt>
      <trkpt lat="42.48608686029911041259765625" lon="1.1443237401545047760009765625">
        <ele>1818.199951171875</ele>
        <time>2020-08-13T09:47:03.000Z</time>
      </trkpt>
      <trkpt lat="42.48609356582164764404296875" lon="1.14425593055784702301025390625">
        <ele>1818.4000244140625</ele>
        <time>2020-08-13T09:47:07.000Z</time>
      </trkpt>
      <trkpt lat="42.48609364964067935943603515625" lon="1.14424000494182109832763671875">
        <ele>1818.800048828125</ele>
        <time>2020-08-13T09:47:12.000Z</time>
      </trkpt>
      <trkpt lat="42.48609432019293308258056640625" lon="1.14423849619925022125244140625">
        <ele>1818.800048828125</ele>
        <time>2020-08-13T09:47:13.000Z</time>
      </trkpt>
      <trkpt lat="42.486081831157207489013671875" lon="1.144181750714778900146484375">
        <ele>1817.4000244140625</ele>
        <time>2020-08-13T09:54:52.000Z</time>
      </trkpt>
      <trkpt lat="42.486083172261714935302734375" lon="1.144122742116451263427734375">
        <ele>1817.5999755859375</ele>
        <time>2020-08-13T09:54:57.000Z</time>
      </trkpt>
      <trkpt lat="42.48613203875720500946044921875" lon="1.14397865720093250274658203125">
        <ele>1818.199951171875</ele>
        <time>2020-08-13T09:55:04.000Z</time>
      </trkpt>
      <trkpt lat="42.48615349642932415008544921875" lon="1.14392082206904888153076171875">
        <ele>1818.5999755859375</ele>
        <time>2020-08-13T09:55:07.000Z</time>
      </trkpt>
      <trkpt lat="42.4862028658390045166015625" lon="1.14383163861930370330810546875">
        <ele>1819</ele>
        <time>2020-08-13T09:55:12.000Z</time>
      </trkpt>
      <trkpt lat="42.48627151362597942352294921875" lon="1.1437453888356685638427734375">
        <ele>1819.5999755859375</ele>
        <time>2020-08-13T09:55:19.000Z</time>
      </trkpt>
      <trkpt lat="42.48634091578423976898193359375" lon="1.1436702869832515716552734375">
        <ele>1820.5999755859375</ele>
        <time>2020-08-13T09:55:25.000Z</time>
      </trkpt>
      <trkpt lat="42.48635231517255306243896484375" lon="1.14365243352949619293212890625">
        <ele>1820.5999755859375</ele>
        <time>2020-08-13T09:55:26.000Z</time>
      </trkpt>
      <trkpt lat="42.486428506672382354736328125" lon="1.1435435526072978973388671875">
        <ele>1821</ele>
        <time>2020-08-13T09:55:33.000Z</time>
      </trkpt>
      <trkpt lat="42.4864819832146167755126953125" lon="1.14345453679561614990234375">
        <ele>1821.800048828125</ele>
        <time>2020-08-13T09:55:38.000Z</time>
      </trkpt>
      <trkpt lat="42.48650260269641876220703125" lon="1.1434158124029636383056640625">
        <ele>1822.199951171875</ele>
        <time>2020-08-13T09:55:40.000Z</time>
      </trkpt>
      <trkpt lat="42.486553229391574859619140625" lon="1.143288910388946533203125">
        <ele>1822.800048828125</ele>
        <time>2020-08-13T09:55:47.000Z</time>
      </trkpt>
      <trkpt lat="42.48656429350376129150390625" lon="1.1432183347642421722412109375">
        <ele>1823</ele>
        <time>2020-08-13T09:55:50.000Z</time>
      </trkpt>
      <trkpt lat="42.4865751899778842926025390625" lon="1.14309671334922313690185546875">
        <ele>1823.4000244140625</ele>
        <time>2020-08-13T09:55:55.000Z</time>
      </trkpt>
      <trkpt lat="42.486572675406932830810546875" lon="1.143051870167255401611328125">
        <ele>1823.800048828125</ele>
        <time>2020-08-13T09:55:57.000Z</time>
      </trkpt>
      <trkpt lat="42.48656320385634899139404296875" lon="1.142956651747226715087890625">
        <ele>1824.800048828125</ele>
        <time>2020-08-13T09:56:01.000Z</time>
      </trkpt>
      <trkpt lat="42.4864860065281391143798828125" lon="1.142793036997318267822265625">
        <ele>1825.199951171875</ele>
        <time>2020-08-13T09:56:09.000Z</time>
      </trkpt>
      <trkpt lat="42.48641300015151500701904296875" lon="1.14270930178463459014892578125">
        <ele>1825.800048828125</ele>
        <time>2020-08-13T09:56:14.000Z</time>
      </trkpt>
      <trkpt lat="42.48637394048273563385009765625" lon="1.14264585077762603759765625">
        <ele>1826</ele>
        <time>2020-08-13T09:56:17.000Z</time>
      </trkpt>
      <trkpt lat="42.4863503873348236083984375" lon="1.1424321122467517852783203125">
        <ele>1826</ele>
        <time>2020-08-13T09:56:24.000Z</time>
      </trkpt>
      <trkpt lat="42.48633890412747859954833984375" lon="1.14220923744142055511474609375">
        <ele>1825.800048828125</ele>
        <time>2020-08-13T09:56:31.000Z</time>
      </trkpt>
      <trkpt lat="42.486356757581233978271484375" lon="1.14208937622606754302978515625">
        <ele>1825.800048828125</ele>
        <time>2020-08-13T09:56:38.000Z</time>
      </trkpt>
      <trkpt lat="42.486356757581233978271484375" lon="1.14207948558032512664794921875">
        <ele>1825.800048828125</ele>
        <time>2020-08-13T09:56:39.000Z</time>
      </trkpt>
      <trkpt lat="42.48636706732213497161865234375" lon="1.142022572457790374755859375">
        <ele>1825.800048828125</ele>
        <time>2020-08-13T09:56:45.000Z</time>
      </trkpt>
      <trkpt lat="42.4863807298243045806884765625" lon="1.1419181339442729949951171875">
        <ele>1825.800048828125</ele>
        <time>2020-08-13T09:56:51.000Z</time>
      </trkpt>
      <trkpt lat="42.48638399876654148101806640625" lon="1.1418929882347583770751953125">
        <ele>1825.5999755859375</ele>
        <time>2020-08-13T09:56:52.000Z</time>
      </trkpt>
      <trkpt lat="42.486425153911113739013671875" lon="1.14170414395630359649658203125">
        <ele>1826</ele>
        <time>2020-08-13T09:56:59.000Z</time>
      </trkpt>
      <trkpt lat="42.48644267208874225616455078125" lon="1.1415597237646579742431640625">
        <ele>1826</ele>
        <time>2020-08-13T09:57:05.000Z</time>
      </trkpt>
      <trkpt lat="42.48650872148573398590087890625" lon="1.14139200188219547271728515625">
        <ele>1826</ele>
        <time>2020-08-13T09:57:11.000Z</time>
      </trkpt>
      <trkpt lat="42.48661181889474391937255859375" lon="1.14126761443912982940673828125">
        <ele>1825.800048828125</ele>
        <time>2020-08-13T09:57:18.000Z</time>
      </trkpt>
      <trkpt lat="42.486723549664020538330078125" lon="1.141183376312255859375">
        <ele>1826</ele>
        <time>2020-08-13T09:57:24.000Z</time>
      </trkpt>
      <trkpt lat="42.48684181831777095794677734375" lon="1.14103828556835651397705078125">
        <ele>1825.5999755859375</ele>
        <time>2020-08-13T09:57:31.000Z</time>
      </trkpt>
      <trkpt lat="42.48696553520858287811279296875" lon="1.1409164965152740478515625">
        <ele>1826</ele>
        <time>2020-08-13T09:57:37.000Z</time>
      </trkpt>
      <trkpt lat="42.48708891682326793670654296875" lon="1.14083879627287387847900390625">
        <ele>1825.199951171875</ele>
        <time>2020-08-13T09:57:43.000Z</time>
      </trkpt>
      <trkpt lat="42.4871096201241016387939453125" lon="1.14068389870226383209228515625">
        <ele>1825.199951171875</ele>
        <time>2020-08-13T09:57:48.000Z</time>
      </trkpt>
      <trkpt lat="42.48714096844196319580078125" lon="1.14040243439376354217529296875">
        <ele>1824.5999755859375</ele>
        <time>2020-08-13T09:57:56.000Z</time>
      </trkpt>
      <trkpt lat="42.48716217465698719024658203125" lon="1.1402075551450252532958984375">
        <ele>1824.4000244140625</ele>
        <time>2020-08-13T09:58:01.000Z</time>
      </trkpt>
      <trkpt lat="42.48718078248202800750732421875" lon="1.14008744247257709503173828125">
        <ele>1824</ele>
        <time>2020-08-13T09:58:04.000Z</time>
      </trkpt>
      <trkpt lat="42.4871964566409587860107421875" lon="1.1399725265800952911376953125">
        <ele>1823.4000244140625</ele>
        <time>2020-08-13T09:58:07.000Z</time>
      </trkpt>
      <trkpt lat="42.48723140917718410491943359375" lon="1.13960162736475467681884765625">
        <ele>1823.4000244140625</ele>
        <time>2020-08-13T09:58:16.000Z</time>
      </trkpt>
      <trkpt lat="42.4872511066496372222900390625" lon="1.13944865763187408447265625">
        <ele>1823</ele>
        <time>2020-08-13T09:58:19.000Z</time>
      </trkpt>
      <trkpt lat="42.4872668646275997161865234375" lon="1.13924455828964710235595703125">
        <ele>1822.5999755859375</ele>
        <time>2020-08-13T09:58:23.000Z</time>
      </trkpt>
      <trkpt lat="42.48729511164128780364990234375" lon="1.1390483379364013671875">
        <ele>1822.4000244140625</ele>
        <time>2020-08-13T09:58:27.000Z</time>
      </trkpt>
      <trkpt lat="42.48737926594913005828857421875" lon="1.13867240957915782928466796875">
        <ele>1822.199951171875</ele>
        <time>2020-08-13T09:58:36.000Z</time>
      </trkpt>
      <trkpt lat="42.48743844218552112579345703125" lon="1.1384225450456142425537109375">
        <ele>1822.5999755859375</ele>
        <time>2020-08-13T09:58:43.000Z</time>
      </trkpt>
      <trkpt lat="42.48755947686731815338134765625" lon="1.138198077678680419921875">
        <ele>1822.199951171875</ele>
        <time>2020-08-13T09:58:50.000Z</time>
      </trkpt>
      <trkpt lat="42.48769911937415599822998046875" lon="1.13805734552443027496337890625">
        <ele>1821.800048828125</ele>
        <time>2020-08-13T09:58:56.000Z</time>
      </trkpt>
      <trkpt lat="42.48783339746296405792236328125" lon="1.138001270592212677001953125">
        <ele>1821.4000244140625</ele>
        <time>2020-08-13T09:59:02.000Z</time>
      </trkpt>
      <trkpt lat="42.48795527033507823944091796875" lon="1.137955002486705780029296875">
        <ele>1820.800048828125</ele>
        <time>2020-08-13T09:59:06.000Z</time>
      </trkpt>
      <trkpt lat="42.4879887141287326812744140625" lon="1.13794620148837566375732421875">
        <ele>1820.5999755859375</ele>
        <time>2020-08-13T09:59:07.000Z</time>
      </trkpt>
      <trkpt lat="42.48817806132137775421142578125" lon="1.1379038728773593902587890625">
        <ele>1820.5999755859375</ele>
        <time>2020-08-13T09:59:12.000Z</time>
      </trkpt>
      <trkpt lat="42.488251738250255584716796875" lon="1.137878559529781341552734375">
        <ele>1819.5999755859375</ele>
        <time>2020-08-13T09:59:14.000Z</time>
      </trkpt>
      <trkpt lat="42.48838107101619243621826171875" lon="1.1378227360546588897705078125">
        <ele>1818.800048828125</ele>
        <time>2020-08-13T09:59:17.000Z</time>
      </trkpt>
      <trkpt lat="42.488569915294647216796875" lon="1.13772592507302761077880859375">
        <ele>1818.5999755859375</ele>
        <time>2020-08-13T09:59:22.000Z</time>
      </trkpt>
      <trkpt lat="42.488673515617847442626953125" lon="1.137683428823947906494140625">
        <ele>1819</ele>
        <time>2020-08-13T09:59:26.000Z</time>
      </trkpt>
      <trkpt lat="42.488753981888294219970703125" lon="1.1376497335731983184814453125">
        <ele>1819.5999755859375</ele>
        <time>2020-08-13T09:59:30.000Z</time>
      </trkpt>
      <trkpt lat="42.488772757351398468017578125" lon="1.13764311186969280242919921875">
        <ele>1819.5999755859375</ele>
        <time>2020-08-13T09:59:31.000Z</time>
      </trkpt>
      <trkpt lat="42.4888718314468860626220703125" lon="1.13757555373013019561767578125">
        <ele>1819.800048828125</ele>
        <time>2020-08-13T09:59:37.000Z</time>
      </trkpt>
      <trkpt lat="42.48891499824821949005126953125" lon="1.13752509467303752899169921875">
        <ele>1819.800048828125</ele>
        <time>2020-08-13T09:59:40.000Z</time>
      </trkpt>
      <trkpt lat="42.48895154334604740142822265625" lon="1.1374966800212860107421875">
        <ele>1819.800048828125</ele>
        <time>2020-08-13T09:59:42.000Z</time>
      </trkpt>
      <trkpt lat="42.48900317586958408355712890625" lon="1.13745468668639659881591796875">
        <ele>1819.800048828125</ele>
        <time>2020-08-13T09:59:45.000Z</time>
      </trkpt>
      <trkpt lat="42.4890451692044734954833984375" lon="1.13742970861494541168212890625">
        <ele>1819.800048828125</ele>
        <time>2020-08-13T09:59:47.000Z</time>
      </trkpt>
      <trkpt lat="42.4891061894595623016357421875" lon="1.13739416934549808502197265625">
        <ele>1820.199951171875</ele>
        <time>2020-08-13T09:59:50.000Z</time>
      </trkpt>
      <trkpt lat="42.4891412258148193359375" lon="1.13736500032246112823486328125">
        <ele>1820.5999755859375</ele>
        <time>2020-08-13T09:59:52.000Z</time>
      </trkpt>
      <trkpt lat="42.48917684890329837799072265625" lon="1.13733868114650249481201171875">
        <ele>1820.5999755859375</ele>
        <time>2020-08-13T09:59:54.000Z</time>
      </trkpt>
      <trkpt lat="42.4892869032919406890869140625" lon="1.13727514632046222686767578125">
        <ele>1820.4000244140625</ele>
        <time>2020-08-13T10:00:00.000Z</time>
      </trkpt>
      <trkpt lat="42.48944842256605625152587890625" lon="1.13718755543231964111328125">
        <ele>1821</ele>
        <time>2020-08-13T10:00:08.000Z</time>
      </trkpt>
      <trkpt lat="42.4895215965807437896728515625" lon="1.13713701255619525909423828125">
        <ele>1821.4000244140625</ele>
        <time>2020-08-13T10:00:12.000Z</time>
      </trkpt>
      <trkpt lat="42.48956912197172641754150390625" lon="1.13709661178290843963623046875">
        <ele>1821.800048828125</ele>
        <time>2020-08-13T10:00:15.000Z</time>
      </trkpt>
      <trkpt lat="42.4896768294274806976318359375" lon="1.136986054480075836181640625">
        <ele>1822</ele>
        <time>2020-08-13T10:00:22.000Z</time>
      </trkpt>
      <trkpt lat="42.48971521854400634765625" lon="1.136941127479076385498046875">
        <ele>1822.4000244140625</ele>
        <time>2020-08-13T10:00:25.000Z</time>
      </trkpt>
      <trkpt lat="42.489766180515289306640625" lon="1.1369013972580432891845703125">
        <ele>1822.5999755859375</ele>
        <time>2020-08-13T10:00:28.000Z</time>
      </trkpt>
      <trkpt lat="42.48983097262680530548095703125" lon="1.1368474178016185760498046875">
        <ele>1822.5999755859375</ele>
        <time>2020-08-13T10:00:33.000Z</time>
      </trkpt>
      <trkpt lat="42.48993122018873691558837890625" lon="1.1367751657962799072265625">
        <ele>1822.800048828125</ele>
        <time>2020-08-13T10:00:39.000Z</time>
      </trkpt>
      <trkpt lat="42.4900265224277973175048828125" lon="1.13674700260162353515625">
        <ele>1823</ele>
        <time>2020-08-13T10:00:44.000Z</time>
      </trkpt>
      <trkpt lat="42.49013364315032958984375" lon="1.136721856892108917236328125">
        <ele>1823.199951171875</ele>
        <time>2020-08-13T10:00:49.000Z</time>
      </trkpt>
      <trkpt lat="42.49022810719907283782958984375" lon="1.13671054132282733917236328125">
        <ele>1823.4000244140625</ele>
        <time>2020-08-13T10:00:53.000Z</time>
      </trkpt>
      <trkpt lat="42.49027739278972148895263671875" lon="1.13670718856155872344970703125">
        <ele>1823.5999755859375</ele>
        <time>2020-08-13T10:00:55.000Z</time>
      </trkpt>
      <trkpt lat="42.49039825983345508575439453125" lon="1.13670635037124156951904296875">
        <ele>1823.4000244140625</ele>
        <time>2020-08-13T10:01:00.000Z</time>
      </trkpt>
      <trkpt lat="42.49056086875498294830322265625" lon="1.13671473227441310882568359375">
        <ele>1823.4000244140625</ele>
        <time>2020-08-13T10:01:07.000Z</time>
      </trkpt>
      <trkpt lat="42.49066966585814952850341796875" lon="1.1367367766797542572021484375">
        <ele>1823.5999755859375</ele>
        <time>2020-08-13T10:01:12.000Z</time>
      </trkpt>
      <trkpt lat="42.49069154262542724609375" lon="1.13674105145037174224853515625">
        <ele>1823.5999755859375</ele>
        <time>2020-08-13T10:01:13.000Z</time>
      </trkpt>
      <trkpt lat="42.4908043630421161651611328125" lon="1.136776842176914215087890625">
        <ele>1824.4000244140625</ele>
        <time>2020-08-13T10:01:18.000Z</time>
      </trkpt>
      <trkpt lat="42.490855157375335693359375" lon="1.13678078167140483856201171875">
        <ele>1824.5999755859375</ele>
        <time>2020-08-13T10:01:20.000Z</time>
      </trkpt>
      <trkpt lat="42.49099236913025379180908203125" lon="1.136768795549869537353515625">
        <ele>1825</ele>
        <time>2020-08-13T10:01:26.000Z</time>
      </trkpt>
      <trkpt lat="42.49113611876964569091796875" lon="1.13673468120396137237548828125">
        <ele>1825.199951171875</ele>
        <time>2020-08-13T10:01:32.000Z</time>
      </trkpt>
      <trkpt lat="42.49118515290319919586181640625" lon="1.1367186717689037322998046875">
        <ele>1825.199951171875</ele>
        <time>2020-08-13T10:01:34.000Z</time>
      </trkpt>
      <trkpt lat="42.49126243405044078826904296875" lon="1.13666695542633533477783203125">
        <ele>1825.800048828125</ele>
        <time>2020-08-13T10:01:38.000Z</time>
      </trkpt>
      <trkpt lat="42.491299398243427276611328125" lon="1.136646755039691925048828125">
        <ele>1826.4000244140625</ele>
        <time>2020-08-13T10:01:40.000Z</time>
      </trkpt>
      <trkpt lat="42.491416744887828826904296875" lon="1.13654759712517261505126953125">
        <ele>1826.5999755859375</ele>
        <time>2020-08-13T10:01:46.000Z</time>
      </trkpt>
      <trkpt lat="42.4915198422968387603759765625" lon="1.13644131459295749664306640625">
        <ele>1826.4000244140625</ele>
        <time>2020-08-13T10:01:52.000Z</time>
      </trkpt>
      <trkpt lat="42.4915999732911586761474609375" lon="1.13632597960531711578369140625">
        <ele>1827.199951171875</ele>
        <time>2020-08-13T10:01:57.000Z</time>
      </trkpt>
      <trkpt lat="42.491620592772960662841796875" lon="1.136300750076770782470703125">
        <ele>1827</ele>
        <time>2020-08-13T10:01:58.000Z</time>
      </trkpt>
      <trkpt lat="42.491705082356929779052734375" lon="1.1362030170857906341552734375">
        <ele>1825.800048828125</ele>
        <time>2020-08-13T10:02:02.000Z</time>
      </trkpt>
      <trkpt lat="42.49174657277762889862060546875" lon="1.13614995963871479034423828125">
        <ele>1825.800048828125</ele>
        <time>2020-08-13T10:02:04.000Z</time>
      </trkpt>
      <trkpt lat="42.491891495883464813232421875" lon="1.13599489443004131317138671875">
        <ele>1825.199951171875</ele>
        <time>2020-08-13T10:02:10.000Z</time>
      </trkpt>
      <trkpt lat="42.49201395548880100250244140625" lon="1.1358345486223697662353515625">
        <ele>1825.199951171875</ele>
        <time>2020-08-13T10:02:15.000Z</time>
      </trkpt>
      <trkpt lat="42.492146305739879608154296875" lon="1.13564721308648586273193359375">
        <ele>1824.5999755859375</ele>
        <time>2020-08-13T10:02:20.000Z</time>
      </trkpt>
      <trkpt lat="42.4922021292150020599365234375" lon="1.13555769436061382293701171875">
        <ele>1823.4000244140625</ele>
        <time>2020-08-13T10:02:22.000Z</time>
      </trkpt>
      <trkpt lat="42.49223046004772186279296875" lon="1.135510839521884918212890625">
        <ele>1823.199951171875</ele>
        <time>2020-08-13T10:02:23.000Z</time>
      </trkpt>
      <trkpt lat="42.49227982945740222930908203125" lon="1.1354191415011882781982421875">
        <ele>1822.5999755859375</ele>
        <time>2020-08-13T10:02:25.000Z</time>
      </trkpt>
      <trkpt lat="42.4923020415008068084716796875" lon="1.135365329682826995849609375">
        <ele>1822.5999755859375</ele>
        <time>2020-08-13T10:02:26.000Z</time>
      </trkpt>
      <trkpt lat="42.4924334697425365447998046875" lon="1.1350925825536251068115234375">
        <ele>1822.199951171875</ele>
        <time>2020-08-13T10:02:31.000Z</time>
      </trkpt>
      <trkpt lat="42.49257604591548442840576171875" lon="1.1348225176334381103515625">
        <ele>1822</ele>
        <time>2020-08-13T10:02:37.000Z</time>
      </trkpt>
      <trkpt lat="42.49262482859194278717041015625" lon="1.13456963561475276947021484375">
        <ele>1822</ele>
        <time>2020-08-13T10:02:42.000Z</time>
      </trkpt>
      <trkpt lat="42.492688782513141632080078125" lon="1.13436587154865264892578125">
        <ele>1821.199951171875</ele>
        <time>2020-08-13T10:02:46.000Z</time>
      </trkpt>
      <trkpt lat="42.4927040375769138336181640625" lon="1.13432086072862148284912109375">
        <ele>1820.5999755859375</ele>
        <time>2020-08-13T10:02:47.000Z</time>
      </trkpt>
      <trkpt lat="42.4927174486219882965087890625" lon="1.13427325151860713958740234375">
        <ele>1820</ele>
        <time>2020-08-13T10:02:48.000Z</time>
      </trkpt>
      <trkpt lat="42.49273496679961681365966796875" lon="1.13409840501844882965087890625">
        <ele>1819.5999755859375</ele>
        <time>2020-08-13T10:02:51.000Z</time>
      </trkpt>
      <trkpt lat="42.49274401925504207611083984375" lon="1.1340337805449962615966796875">
        <ele>1819.5999755859375</ele>
        <time>2020-08-13T10:02:52.000Z</time>
      </trkpt>
      <trkpt lat="42.49278928153216838836669921875" lon="1.1337925493717193603515625">
        <ele>1819</ele>
        <time>2020-08-13T10:02:56.000Z</time>
      </trkpt>
      <trkpt lat="42.49279816634953022003173828125" lon="1.13373429514467716217041015625">
        <ele>1818.4000244140625</ele>
        <time>2020-08-13T10:02:57.000Z</time>
      </trkpt>
      <trkpt lat="42.49280654825270175933837890625" lon="1.133599095046520233154296875">
        <ele>1817.800048828125</ele>
        <time>2020-08-13T10:02:59.000Z</time>
      </trkpt>
      <trkpt lat="42.49281920492649078369140625" lon="1.133479736745357513427734375">
        <ele>1817.199951171875</ele>
        <time>2020-08-13T10:03:01.000Z</time>
      </trkpt>
      <trkpt lat="42.49281928874552249908447265625" lon="1.13341905176639556884765625">
        <ele>1816.5999755859375</ele>
        <time>2020-08-13T10:03:02.000Z</time>
      </trkpt>
      <trkpt lat="42.49281224794685840606689453125" lon="1.13329323939979076385498046875">
        <ele>1816.199951171875</ele>
        <time>2020-08-13T10:03:04.000Z</time>
      </trkpt>
      <trkpt lat="42.4928089790046215057373046875" lon="1.133230291306972503662109375">
        <ele>1816</ele>
        <time>2020-08-13T10:03:05.000Z</time>
      </trkpt>
      <trkpt lat="42.49280520714819431304931640625" lon="1.1331754736602306365966796875">
        <ele>1815.4000244140625</ele>
        <time>2020-08-13T10:03:06.000Z</time>
      </trkpt>
      <trkpt lat="42.49280512332916259765625" lon="1.13311889581382274627685546875">
        <ele>1815.199951171875</ele>
        <time>2020-08-13T10:03:07.000Z</time>
      </trkpt>
      <trkpt lat="42.492815516889095306396484375" lon="1.13293147645890712738037109375">
        <ele>1814.4000244140625</ele>
        <time>2020-08-13T10:03:10.000Z</time>
      </trkpt>
      <trkpt lat="42.4928270839154720306396484375" lon="1.13286760635673999786376953125">
        <ele>1814</ele>
        <time>2020-08-13T10:03:11.000Z</time>
      </trkpt>
      <trkpt lat="42.49292221851646900177001953125" lon="1.13238665275275707244873046875">
        <ele>1813.5999755859375</ele>
        <time>2020-08-13T10:03:18.000Z</time>
      </trkpt>
      <trkpt lat="42.49293453991413116455078125" lon="1.1323158256709575653076171875">
        <ele>1813</ele>
        <time>2020-08-13T10:03:19.000Z</time>
      </trkpt>
      <trkpt lat="42.49295331537723541259765625" lon="1.13217693753540515899658203125">
        <ele>1811.4000244140625</ele>
        <time>2020-08-13T10:03:21.000Z</time>
      </trkpt>
      <trkpt lat="42.49296613968908786773681640625" lon="1.1321079544723033905029296875">
        <ele>1810.800048828125</ele>
        <time>2020-08-13T10:03:22.000Z</time>
      </trkpt>
      <trkpt lat="42.4929834902286529541015625" lon="1.13203947432339191436767578125">
        <ele>1810.199951171875</ele>
        <time>2020-08-13T10:03:23.000Z</time>
      </trkpt>
      <trkpt lat="42.49300670810043811798095703125" lon="1.13197174854576587677001953125">
        <ele>1810.199951171875</ele>
        <time>2020-08-13T10:03:24.000Z</time>
      </trkpt>
      <trkpt lat="42.49310377053916454315185546875" lon="1.13167561590671539306640625">
        <ele>1810</ele>
        <time>2020-08-13T10:03:29.000Z</time>
      </trkpt>
      <trkpt lat="42.493194378912448883056640625" lon="1.131529100239276885986328125">
        <ele>1809.800048828125</ele>
        <time>2020-08-13T10:03:33.000Z</time>
      </trkpt>
      <trkpt lat="42.4932785332202911376953125" lon="1.13127923570573329925537109375">
        <ele>1810.199951171875</ele>
        <time>2020-08-13T10:03:40.000Z</time>
      </trkpt>
      <trkpt lat="42.49332320876419544219970703125" lon="1.1310256831347942352294921875">
        <ele>1809.4000244140625</ele>
        <time>2020-08-13T10:03:45.000Z</time>
      </trkpt>
      <trkpt lat="42.4933350272476673126220703125" lon="1.13097715191543102264404296875">
        <ele>1809.4000244140625</ele>
        <time>2020-08-13T10:03:46.000Z</time>
      </trkpt>
      <trkpt lat="42.4933645315468311309814453125" lon="1.13088813610374927520751953125">
        <ele>1808.4000244140625</ele>
        <time>2020-08-13T10:03:49.000Z</time>
      </trkpt>
      <trkpt lat="42.4933670461177825927734375" lon="1.13087723962962627410888671875">
        <ele>1808.4000244140625</ele>
        <time>2020-08-13T10:03:50.000Z</time>
      </trkpt>
      <trkpt lat="42.49337836168706417083740234375" lon="1.1308379285037517547607421875">
        <ele>1808.800048828125</ele>
        <time>2020-08-13T10:03:57.000Z</time>
      </trkpt>
      <trkpt lat="42.49342144466936588287353515625" lon="1.13070859573781490325927734375">
        <ele>1808.4000244140625</ele>
        <time>2020-08-13T10:04:04.000Z</time>
      </trkpt>
      <trkpt lat="42.49351448379456996917724609375" lon="1.130553446710109710693359375">
        <ele>1808.4000244140625</ele>
        <time>2020-08-13T10:04:12.000Z</time>
      </trkpt>
      <trkpt lat="42.49356561340391635894775390625" lon="1.13034565933048725128173828125">
        <ele>1808.199951171875</ele>
        <time>2020-08-13T10:04:18.000Z</time>
      </trkpt>
      <trkpt lat="42.49359863810241222381591796875" lon="1.1300879158079624176025390625">
        <ele>1807.5999755859375</ele>
        <time>2020-08-13T10:04:24.000Z</time>
      </trkpt>
      <trkpt lat="42.49360911548137664794921875" lon="1.130044497549533843994140625">
        <ele>1807.5999755859375</ele>
        <time>2020-08-13T10:04:25.000Z</time>
      </trkpt>
      <trkpt lat="42.49364423565566539764404296875" lon="1.12979899160563945770263671875">
        <ele>1807.199951171875</ele>
        <time>2020-08-13T10:04:31.000Z</time>
      </trkpt>
      <trkpt lat="42.4936915934085845947265625" lon="1.12967468798160552978515625">
        <ele>1806.4000244140625</ele>
        <time>2020-08-13T10:04:35.000Z</time>
      </trkpt>
      <trkpt lat="42.49371900223195552825927734375" lon="1.1296131648123264312744140625">
        <ele>1806.199951171875</ele>
        <time>2020-08-13T10:04:37.000Z</time>
      </trkpt>
      <trkpt lat="42.493785135447978973388671875" lon="1.12940152175724506378173828125">
        <ele>1806</ele>
        <time>2020-08-13T10:04:43.000Z</time>
      </trkpt>
      <trkpt lat="42.49383349902927875518798828125" lon="1.1291752941906452178955078125">
        <ele>1806</ele>
        <time>2020-08-13T10:04:48.000Z</time>
      </trkpt>
      <trkpt lat="42.4938942678272724151611328125" lon="1.1289861984550952911376953125">
        <ele>1805.199951171875</ele>
        <time>2020-08-13T10:04:52.000Z</time>
      </trkpt>
      <trkpt lat="42.49393098056316375732421875" lon="1.12889827229082584381103515625">
        <ele>1805</ele>
        <time>2020-08-13T10:04:54.000Z</time>
      </trkpt>
      <trkpt lat="42.49400583095848560333251953125" lon="1.1287277005612850189208984375">
        <ele>1804.199951171875</ele>
        <time>2020-08-13T10:04:58.000Z</time>
      </trkpt>
      <trkpt lat="42.4940391071140766143798828125" lon="1.128659807145595550537109375">
        <ele>1804.199951171875</ele>
        <time>2020-08-13T10:05:00.000Z</time>
      </trkpt>
      <trkpt lat="42.49412032775580883026123046875" lon="1.1284856311976909637451171875">
        <ele>1803.5999755859375</ele>
        <time>2020-08-13T10:05:05.000Z</time>
      </trkpt>
      <trkpt lat="42.4942114390432834625244140625" lon="1.1282586492598056793212890625">
        <ele>1803.800048828125</ele>
        <time>2020-08-13T10:05:13.000Z</time>
      </trkpt>
      <trkpt lat="42.49424706213176250457763671875" lon="1.12803108058869838714599609375">
        <ele>1803.199951171875</ele>
        <time>2020-08-13T10:05:20.000Z</time>
      </trkpt>
      <trkpt lat="42.49432216398417949676513671875" lon="1.12785439006984233856201171875">
        <ele>1803.199951171875</ele>
        <time>2020-08-13T10:05:26.000Z</time>
      </trkpt>
      <trkpt lat="42.494415454566478729248046875" lon="1.12773008644580841064453125">
        <ele>1803.800048828125</ele>
        <time>2020-08-13T10:05:32.000Z</time>
      </trkpt>
      <trkpt lat="42.494465075433254241943359375" lon="1.127643249928951263427734375">
        <ele>1804.199951171875</ele>
        <time>2020-08-13T10:05:35.000Z</time>
      </trkpt>
      <trkpt lat="42.49449835158884525299072265625" lon="1.12757393158972263336181640625">
        <ele>1804.5999755859375</ele>
        <time>2020-08-13T10:05:37.000Z</time>
      </trkpt>
      <trkpt lat="42.49458401463925838470458984375" lon="1.1273409985005855560302734375">
        <ele>1805</ele>
        <time>2020-08-13T10:05:43.000Z</time>
      </trkpt>
      <trkpt lat="42.49467152170836925506591796875" lon="1.12711644731462001800537109375">
        <ele>1804.5999755859375</ele>
        <time>2020-08-13T10:05:49.000Z</time>
      </trkpt>
      <trkpt lat="42.4947968311607837677001953125" lon="1.12693992443382740020751953125">
        <ele>1804</ele>
        <time>2020-08-13T10:05:55.000Z</time>
      </trkpt>
      <trkpt lat="42.49497829936444759368896484375" lon="1.12682173959910869598388671875">
        <ele>1803.800048828125</ele>
        <time>2020-08-13T10:06:02.000Z</time>
      </trkpt>
      <trkpt lat="42.49512766487896442413330078125" lon="1.1267649941146373748779296875">
        <ele>1803.5999755859375</ele>
        <time>2020-08-13T10:06:08.000Z</time>
      </trkpt>
      <trkpt lat="42.49523746781051158905029296875" lon="1.12672367133200168609619140625">
        <ele>1803.4000244140625</ele>
        <time>2020-08-13T10:06:13.000Z</time>
      </trkpt>
      <trkpt lat="42.49533721245825290679931640625" lon="1.12668947316706180572509765625">
        <ele>1804.199951171875</ele>
        <time>2020-08-13T10:06:18.000Z</time>
      </trkpt>
      <trkpt lat="42.49548154883086681365966796875" lon="1.12659358419477939605712890625">
        <ele>1804.4000244140625</ele>
        <time>2020-08-13T10:06:25.000Z</time>
      </trkpt>
      <trkpt lat="42.4955672957003116607666015625" lon="1.12650834023952484130859375">
        <ele>1805</ele>
        <time>2020-08-13T10:06:30.000Z</time>
      </trkpt>
      <trkpt lat="42.4956484325230121612548828125" lon="1.126423515379428863525390625">
        <ele>1805.5999755859375</ele>
        <time>2020-08-13T10:06:35.000Z</time>
      </trkpt>
      <trkpt lat="42.49572009779512882232666015625" lon="1.126345060765743255615234375">
        <ele>1806</ele>
        <time>2020-08-13T10:06:40.000Z</time>
      </trkpt>
      <trkpt lat="42.495736442506313323974609375" lon="1.12633223645389080047607421875">
        <ele>1806.199951171875</ele>
        <time>2020-08-13T10:06:41.000Z</time>
      </trkpt>
      <trkpt lat="42.49578706920146942138671875" lon="1.12629284150898456573486328125">
        <ele>1806.800048828125</ele>
        <time>2020-08-13T10:06:44.000Z</time>
      </trkpt>
      <trkpt lat="42.4958475865423679351806640625" lon="1.1262319050729274749755859375">
        <ele>1807.199951171875</ele>
        <time>2020-08-13T10:06:48.000Z</time>
      </trkpt>
      <trkpt lat="42.4958757497370243072509765625" lon="1.126202233135700225830078125">
        <ele>1808</ele>
        <time>2020-08-13T10:06:50.000Z</time>
      </trkpt>
      <trkpt lat="42.4958910048007965087890625" lon="1.12618655897676944732666015625">
        <ele>1808.199951171875</ele>
        <time>2020-08-13T10:06:51.000Z</time>
      </trkpt>
      <trkpt lat="42.49592729844152927398681640625" lon="1.126129813492298126220703125">
        <ele>1808.800048828125</ele>
        <time>2020-08-13T10:06:54.000Z</time>
      </trkpt>
      <trkpt lat="42.4959454871714115142822265625" lon="1.126091592013835906982421875">
        <ele>1809</ele>
        <time>2020-08-13T10:06:56.000Z</time>
      </trkpt>
      <trkpt lat="42.4959930963814258575439453125" lon="1.1260304041206836700439453125">
        <ele>1808.800048828125</ele>
        <time>2020-08-13T10:07:00.000Z</time>
      </trkpt>
      <trkpt lat="42.49608990736305713653564453125" lon="1.12591817043721675872802734375">
        <ele>1809</ele>
        <time>2020-08-13T10:07:06.000Z</time>
      </trkpt>
      <trkpt lat="42.4961788393557071685791015625" lon="1.125819683074951171875">
        <ele>1809.199951171875</ele>
        <time>2020-08-13T10:07:12.000Z</time>
      </trkpt>
      <trkpt lat="42.4962743930518627166748046875" lon="1.12571147270500659942626953125">
        <ele>1809.800048828125</ele>
        <time>2020-08-13T10:07:18.000Z</time>
      </trkpt>
      <trkpt lat="42.49628989957273006439208984375" lon="1.12569336779415607452392578125">
        <ele>1809.800048828125</ele>
        <time>2020-08-13T10:07:19.000Z</time>
      </trkpt>
      <trkpt lat="42.496406324207782745361328125" lon="1.1255469359457492828369140625">
        <ele>1810.199951171875</ele>
        <time>2020-08-13T10:07:26.000Z</time>
      </trkpt>
      <trkpt lat="42.49650950543582439422607421875" lon="1.12542129121720790863037109375">
        <ele>1810.800048828125</ele>
        <time>2020-08-13T10:07:32.000Z</time>
      </trkpt>
      <trkpt lat="42.49654211103916168212890625" lon="1.1253759451210498809814453125">
        <ele>1810.800048828125</ele>
        <time>2020-08-13T10:07:34.000Z</time>
      </trkpt>
      <trkpt lat="42.49661411158740520477294921875" lon="1.1252938024699687957763671875">
        <ele>1810.800048828125</ele>
        <time>2020-08-13T10:07:38.000Z</time>
      </trkpt>
      <trkpt lat="42.4967246688902378082275390625" lon="1.12517368979752063751220703125">
        <ele>1810.199951171875</ele>
        <time>2020-08-13T10:07:44.000Z</time>
      </trkpt>
      <trkpt lat="42.49683874659240245819091796875" lon="1.12508417107164859771728515625">
        <ele>1809.800048828125</ele>
        <time>2020-08-13T10:07:49.000Z</time>
      </trkpt>
      <trkpt lat="42.4969704262912273406982421875" lon="1.12494804896414279937744140625">
        <ele>1810</ele>
        <time>2020-08-13T10:07:55.000Z</time>
      </trkpt>
      <trkpt lat="42.49714451842010021209716796875" lon="1.1247201450169086456298828125">
        <ele>1810.199951171875</ele>
        <time>2020-08-13T10:08:03.000Z</time>
      </trkpt>
      <trkpt lat="42.49722900800406932830810546875" lon="1.12461595796048641204833984375">
        <ele>1809.5999755859375</ele>
        <time>2020-08-13T10:08:07.000Z</time>
      </trkpt>
      <trkpt lat="42.49725147150456905364990234375" lon="1.1245863698422908782958984375">
        <ele>1809.4000244140625</ele>
        <time>2020-08-13T10:08:08.000Z</time>
      </trkpt>
      <trkpt lat="42.497377283871173858642578125" lon="1.12443692050874233245849609375">
        <ele>1809</ele>
        <time>2020-08-13T10:08:13.000Z</time>
      </trkpt>
      <trkpt lat="42.4974740110337734222412109375" lon="1.124329380691051483154296875">
        <ele>1808.800048828125</ele>
        <time>2020-08-13T10:08:16.000Z</time>
      </trkpt>
      <trkpt lat="42.4975504539906978607177734375" lon="1.1242487467825412750244140625">
        <ele>1808.4000244140625</ele>
        <time>2020-08-13T10:08:18.000Z</time>
      </trkpt>
      <trkpt lat="42.49762035906314849853515625" lon="1.1241639219224452972412109375">
        <ele>1807.4000244140625</ele>
        <time>2020-08-13T10:08:20.000Z</time>
      </trkpt>
      <trkpt lat="42.49768213368952274322509765625" lon="1.1240794323384761810302734375">
        <ele>1807</ele>
        <time>2020-08-13T10:08:22.000Z</time>
      </trkpt>
      <trkpt lat="42.49774650670588016510009765625" lon="1.124019920825958251953125">
        <ele>1807</ele>
        <time>2020-08-13T10:08:24.000Z</time>
      </trkpt>
      <trkpt lat="42.4977918528020381927490234375" lon="1.1239637620747089385986328125">
        <ele>1806.800048828125</ele>
        <time>2020-08-13T10:08:26.000Z</time>
      </trkpt>
      <trkpt lat="42.49783971346914768218994140625" lon="1.12391640432178974151611328125">
        <ele>1806.5999755859375</ele>
        <time>2020-08-13T10:08:28.000Z</time>
      </trkpt>
      <trkpt lat="42.49791665934026241302490234375" lon="1.12379352562129497528076171875">
        <ele>1806.5999755859375</ele>
        <time>2020-08-13T10:08:33.000Z</time>
      </trkpt>
      <trkpt lat="42.49802411533892154693603515625" lon="1.123677603900432586669921875">
        <ele>1806.5999755859375</ele>
        <time>2020-08-13T10:08:40.000Z</time>
      </trkpt>
      <trkpt lat="42.498037777841091156005859375" lon="1.12366327084600925445556640625">
        <ele>1806.800048828125</ele>
        <time>2020-08-13T10:08:41.000Z</time>
      </trkpt>
      <trkpt lat="42.49811246059834957122802734375" lon="1.12359940074384212493896484375">
        <ele>1806.4000244140625</ele>
        <time>2020-08-13T10:08:46.000Z</time>
      </trkpt>
      <trkpt lat="42.49821723438799381256103515625" lon="1.1235188506543636322021484375">
        <ele>1806.800048828125</ele>
        <time>2020-08-13T10:08:52.000Z</time>
      </trkpt>
      <trkpt lat="42.49823751859366893768310546875" lon="1.12350418232381343841552734375">
        <ele>1807</ele>
        <time>2020-08-13T10:08:53.000Z</time>
      </trkpt>
      <trkpt lat="42.49835193157196044921875" lon="1.12340108491480350494384765625">
        <ele>1807.5999755859375</ele>
        <time>2020-08-13T10:08:59.000Z</time>
      </trkpt>
      <trkpt lat="42.49846986494958400726318359375" lon="1.12324903719127178192138671875">
        <ele>1807.800048828125</ele>
        <time>2020-08-13T10:09:06.000Z</time>
      </trkpt>
      <trkpt lat="42.498526610434055328369140625" lon="1.12320042215287685394287109375">
        <ele>1808.5999755859375</ele>
        <time>2020-08-13T10:09:09.000Z</time>
      </trkpt>
      <trkpt lat="42.4985831044614315032958984375" lon="1.1231450177729129791259765625">
        <ele>1809.199951171875</ele>
        <time>2020-08-13T10:09:12.000Z</time>
      </trkpt>
      <trkpt lat="42.4986515007913112640380859375" lon="1.12305373884737491607666015625">
        <ele>1809.5999755859375</ele>
        <time>2020-08-13T10:09:17.000Z</time>
      </trkpt>
      <trkpt lat="42.49872752465307712554931640625" lon="1.1229864321649074554443359375">
        <ele>1809.5999755859375</ele>
        <time>2020-08-13T10:09:21.000Z</time>
      </trkpt>
      <trkpt lat="42.4987690150737762451171875" lon="1.1229555867612361907958984375">
        <ele>1810</ele>
        <time>2020-08-13T10:09:23.000Z</time>
      </trkpt>
      <trkpt lat="42.49881930649280548095703125" lon="1.122909486293792724609375">
        <ele>1810.800048828125</ele>
        <time>2020-08-13T10:09:26.000Z</time>
      </trkpt>
      <trkpt lat="42.4988878704607486724853515625" lon="1.12285022623836994171142578125">
        <ele>1811.4000244140625</ele>
        <time>2020-08-13T10:09:30.000Z</time>
      </trkpt>
      <trkpt lat="42.49895802699029445648193359375" lon="1.122799851000308990478515625">
        <ele>1811.800048828125</ele>
        <time>2020-08-13T10:09:34.000Z</time>
      </trkpt>
      <trkpt lat="42.49897579662501811981201171875" lon="1.122785098850727081298828125">
        <ele>1812</ele>
        <time>2020-08-13T10:09:35.000Z</time>
      </trkpt>
      <trkpt lat="42.49903899617493152618408203125" lon="1.1227286048233509063720703125">
        <ele>1812.800048828125</ele>
        <time>2020-08-13T10:09:39.000Z</time>
      </trkpt>
      <trkpt lat="42.49908274970948696136474609375" lon="1.122678816318511962890625">
        <ele>1813.199951171875</ele>
        <time>2020-08-13T10:09:42.000Z</time>
      </trkpt>
      <trkpt lat="42.49916221015155315399169921875" lon="1.1225944943726062774658203125">
        <ele>1813.800048828125</ele>
        <time>2020-08-13T10:09:48.000Z</time>
      </trkpt>
      <trkpt lat="42.49921652488410472869873046875" lon="1.12252752296626567840576171875">
        <ele>1815</ele>
        <time>2020-08-13T10:09:52.000Z</time>
      </trkpt>
      <trkpt lat="42.49922624789178371429443359375" lon="1.122505478560924530029296875">
        <ele>1815</ele>
        <time>2020-08-13T10:09:53.000Z</time>
      </trkpt>
      <trkpt lat="42.4993187002837657928466796875" lon="1.1223923228681087493896484375">
        <ele>1815.5999755859375</ele>
        <time>2020-08-13T10:10:00.000Z</time>
      </trkpt>
      <trkpt lat="42.4993525631725788116455078125" lon="1.12235401757061481475830078125">
        <ele>1816</ele>
        <time>2020-08-13T10:10:03.000Z</time>
      </trkpt>
      <trkpt lat="42.49938751570880413055419921875" lon="1.12232250161468982696533203125">
        <ele>1816.199951171875</ele>
        <time>2020-08-13T10:10:06.000Z</time>
      </trkpt>
      <trkpt lat="42.4994658865034580230712890625" lon="1.12225293181836605072021484375">
        <ele>1817</ele>
        <time>2020-08-13T10:10:12.000Z</time>
      </trkpt>
      <trkpt lat="42.49948239885270595550537109375" lon="1.12223935313522815704345703125">
        <ele>1817.199951171875</ele>
        <time>2020-08-13T10:10:13.000Z</time>
      </trkpt>
      <trkpt lat="42.49956252984702587127685546875" lon="1.1221432127058506011962890625">
        <ele>1817.4000244140625</ele>
        <time>2020-08-13T10:10:19.000Z</time>
      </trkpt>
      <trkpt lat="42.49965489841997623443603515625" lon="1.12204422242939472198486328125">
        <ele>1818</ele>
        <time>2020-08-13T10:10:25.000Z</time>
      </trkpt>
      <trkpt lat="42.49967199750244617462158203125" lon="1.122028715908527374267578125">
        <ele>1818.199951171875</ele>
        <time>2020-08-13T10:10:26.000Z</time>
      </trkpt>
      <trkpt lat="42.4997605942189693450927734375" lon="1.12194397486746311187744140625">
        <ele>1818.800048828125</ele>
        <time>2020-08-13T10:10:32.000Z</time>
      </trkpt>
      <trkpt lat="42.49979822896420955657958984375" lon="1.1218927614390850067138671875">
        <ele>1819.199951171875</ele>
        <time>2020-08-13T10:10:35.000Z</time>
      </trkpt>
      <trkpt lat="42.499822787940502166748046875" lon="1.12186267040669918060302734375">
        <ele>1819.5999755859375</ele>
        <time>2020-08-13T10:10:37.000Z</time>
      </trkpt>
      <trkpt lat="42.49985422007739543914794921875" lon="1.1218230240046977996826171875">
        <ele>1820.4000244140625</ele>
        <time>2020-08-13T10:10:40.000Z</time>
      </trkpt>
      <trkpt lat="42.499886490404605865478515625" lon="1.12178069539368152618408203125">
        <ele>1821</ele>
        <time>2020-08-13T10:10:43.000Z</time>
      </trkpt>
      <trkpt lat="42.499937452375888824462890625" lon="1.12173694185912609100341796875">
        <ele>1821.4000244140625</ele>
        <time>2020-08-13T10:10:47.000Z</time>
      </trkpt>
      <trkpt lat="42.49995119869709014892578125" lon="1.12172596156597137451171875">
        <ele>1821.5999755859375</ele>
        <time>2020-08-13T10:10:48.000Z</time>
      </trkpt>
      <trkpt lat="42.50007701106369495391845703125" lon="1.12165488302707672119140625">
        <ele>1822.199951171875</ele>
        <time>2020-08-13T10:10:55.000Z</time>
      </trkpt>
      <trkpt lat="42.50014473684132099151611328125" lon="1.1215936951339244842529296875">
        <ele>1822.800048828125</ele>
        <time>2020-08-13T10:10:59.000Z</time>
      </trkpt>
      <trkpt lat="42.50017491169273853302001953125" lon="1.12156745977699756622314453125">
        <ele>1822.800048828125</ele>
        <time>2020-08-13T10:11:01.000Z</time>
      </trkpt>
      <trkpt lat="42.5002916716039180755615234375" lon="1.12148464657366275787353515625">
        <ele>1822.800048828125</ele>
        <time>2020-08-13T10:11:08.000Z</time>
      </trkpt>
      <trkpt lat="42.50038194470107555389404296875" lon="1.1214126460254192352294921875">
        <ele>1823</ele>
        <time>2020-08-13T10:11:14.000Z</time>
      </trkpt>
      <trkpt lat="42.5004807673394680023193359375" lon="1.121356487274169921875">
        <ele>1823.800048828125</ele>
        <time>2020-08-13T10:11:20.000Z</time>
      </trkpt>
      <trkpt lat="42.50057523138821125030517578125" lon="1.12131482921540737152099609375">
        <ele>1824.800048828125</ele>
        <time>2020-08-13T10:11:25.000Z</time>
      </trkpt>
      <trkpt lat="42.50059769488871097564697265625" lon="1.121309213340282440185546875">
        <ele>1824.800048828125</ele>
        <time>2020-08-13T10:11:26.000Z</time>
      </trkpt>
      <trkpt lat="42.5006950087845325469970703125" lon="1.12126034684479236602783203125">
        <ele>1825.4000244140625</ele>
        <time>2020-08-13T10:11:31.000Z</time>
      </trkpt>
      <trkpt lat="42.50078310258686542510986328125" lon="1.1211994104087352752685546875">
        <ele>1826</ele>
        <time>2020-08-13T10:11:36.000Z</time>
      </trkpt>
      <trkpt lat="42.5008182227611541748046875" lon="1.12117384560406208038330078125">
        <ele>1826.4000244140625</ele>
        <time>2020-08-13T10:11:38.000Z</time>
      </trkpt>
      <trkpt lat="42.50090648420155048370361328125" lon="1.1210788786411285400390625">
        <ele>1827</ele>
        <time>2020-08-13T10:11:44.000Z</time>
      </trkpt>
      <trkpt lat="42.50092073343694210052490234375" lon="1.12106404267251491546630859375">
        <ele>1827.199951171875</ele>
        <time>2020-08-13T10:11:45.000Z</time>
      </trkpt>
      <trkpt lat="42.5009952485561370849609375" lon="1.12100780010223388671875">
        <ele>1828</ele>
        <time>2020-08-13T10:11:50.000Z</time>
      </trkpt>
      <trkpt lat="42.50105719082057476043701171875" lon="1.120949126780033111572265625">
        <ele>1828</ele>
        <time>2020-08-13T10:11:54.000Z</time>
      </trkpt>
      <trkpt lat="42.50107060186564922332763671875" lon="1.120935715734958648681640625">
        <ele>1828</ele>
        <time>2020-08-13T10:11:55.000Z</time>
      </trkpt>
      <trkpt lat="42.50111049972474575042724609375" lon="1.1208892799913883209228515625">
        <ele>1828.199951171875</ele>
        <time>2020-08-13T10:11:58.000Z</time>
      </trkpt>
      <trkpt lat="42.50113673508167266845703125" lon="1.12085499800741672515869140625">
        <ele>1828.4000244140625</ele>
        <time>2020-08-13T10:12:00.000Z</time>
      </trkpt>
      <trkpt lat="42.5011778064072132110595703125" lon="1.120810322463512420654296875">
        <ele>1829.4000244140625</ele>
        <time>2020-08-13T10:12:03.000Z</time>
      </trkpt>
      <trkpt lat="42.50119515694677829742431640625" lon="1.120794899761676788330078125">
        <ele>1829.4000244140625</ele>
        <time>2020-08-13T10:12:04.000Z</time>
      </trkpt>
      <trkpt lat="42.50121720135211944580078125" lon="1.1207588575780391693115234375">
        <ele>1829.5999755859375</ele>
        <time>2020-08-13T10:12:06.000Z</time>
      </trkpt>
      <trkpt lat="42.50127646140754222869873046875" lon="1.1206787265837192535400390625">
        <ele>1830</ele>
        <time>2020-08-13T10:12:11.000Z</time>
      </trkpt>
      <trkpt lat="42.5012914650142192840576171875" lon="1.120661459863185882568359375">
        <ele>1830.4000244140625</ele>
        <time>2020-08-13T10:12:12.000Z</time>
      </trkpt>
      <trkpt lat="42.50134971924126148223876953125" lon="1.12060722894966602325439453125">
        <ele>1831.199951171875</ele>
        <time>2020-08-13T10:12:16.000Z</time>
      </trkpt>
      <trkpt lat="42.50146958045661449432373046875" lon="1.12049139104783535003662109375">
        <ele>1831.800048828125</ele>
        <time>2020-08-13T10:12:24.000Z</time>
      </trkpt>
      <trkpt lat="42.5015047006309032440185546875" lon="1.1204400099813938140869140625">
        <ele>1832.199951171875</ele>
        <time>2020-08-13T10:12:27.000Z</time>
      </trkpt>
      <trkpt lat="42.50155390240252017974853515625" lon="1.12038225866854190826416015625">
        <ele>1832.800048828125</ele>
        <time>2020-08-13T10:12:31.000Z</time>
      </trkpt>
      <trkpt lat="42.5015912018716335296630859375" lon="1.12034303136169910430908203125">
        <ele>1833.4000244140625</ele>
        <time>2020-08-13T10:12:34.000Z</time>
      </trkpt>
      <trkpt lat="42.5016067922115325927734375" lon="1.12030975520610809326171875">
        <ele>1833.800048828125</ele>
        <time>2020-08-13T10:12:36.000Z</time>
      </trkpt>
      <trkpt lat="42.5016713328659534454345703125" lon="1.1202393472194671630859375">
        <ele>1834.4000244140625</ele>
        <time>2020-08-13T10:12:41.000Z</time>
      </trkpt>
      <trkpt lat="42.50169999897480010986328125" lon="1.12022534944117069244384765625">
        <ele>1834.5999755859375</ele>
        <time>2020-08-13T10:12:43.000Z</time>
      </trkpt>
      <trkpt lat="42.50171416439116001129150390625" lon="1.12022032029926776885986328125">
        <ele>1834.800048828125</ele>
        <time>2020-08-13T10:12:44.000Z</time>
      </trkpt>
      <trkpt lat="42.5017588399350643157958984375" lon="1.12016893923282623291015625">
        <ele>1835</ele>
        <time>2020-08-13T10:12:48.000Z</time>
      </trkpt>
      <trkpt lat="42.50179161317646503448486328125" lon="1.12013465724885463714599609375">
        <ele>1835.4000244140625</ele>
        <time>2020-08-13T10:12:51.000Z</time>
      </trkpt>
      <trkpt lat="42.50181491486728191375732421875" lon="1.12010456621646881103515625">
        <ele>1835.800048828125</ele>
        <time>2020-08-13T10:12:53.000Z</time>
      </trkpt>
      <trkpt lat="42.50185598619282245635986328125" lon="1.1200708709657192230224609375">
        <ele>1836.5999755859375</ele>
        <time>2020-08-13T10:12:56.000Z</time>
      </trkpt>
      <trkpt lat="42.5019045174121856689453125" lon="1.12000205554068088531494140625">
        <ele>1837.4000244140625</ele>
        <time>2020-08-13T10:13:01.000Z</time>
      </trkpt>
      <trkpt lat="42.50191197730600833892822265625" lon="1.11998361535370349884033203125">
        <ele>1837.5999755859375</ele>
        <time>2020-08-13T10:13:02.000Z</time>
      </trkpt>
      <trkpt lat="42.50191801227629184722900390625" lon="1.11996819265186786651611328125">
        <ele>1837.5999755859375</ele>
        <time>2020-08-13T10:13:03.000Z</time>
      </trkpt>
      <trkpt lat="42.50193879939615726470947265625" lon="1.11994388513267040252685546875">
        <ele>1837.800048828125</ele>
        <time>2020-08-13T10:13:05.000Z</time>
      </trkpt>
      <trkpt lat="42.5019861571490764617919921875" lon="1.11989862285554409027099609375">
        <ele>1838.199951171875</ele>
        <time>2020-08-13T10:13:09.000Z</time>
      </trkpt>
      <trkpt lat="42.50206402502954006195068359375" lon="1.1198388598859310150146484375">
        <ele>1838.4000244140625</ele>
        <time>2020-08-13T10:13:14.000Z</time>
      </trkpt>
      <trkpt lat="42.5021682120859622955322265625" lon="1.11977188847959041595458984375">
        <ele>1839.4000244140625</ele>
        <time>2020-08-13T10:13:20.000Z</time>
      </trkpt>
      <trkpt lat="42.5021822936832904815673828125" lon="1.11975881271064281463623046875">
        <ele>1839.5999755859375</ele>
        <time>2020-08-13T10:13:21.000Z</time>
      </trkpt>
      <trkpt lat="42.502271644771099090576171875" lon="1.11969494260847568511962890625">
        <ele>1840.5999755859375</ele>
        <time>2020-08-13T10:13:27.000Z</time>
      </trkpt>
      <trkpt lat="42.50228480435907840728759765625" lon="1.119682788848876953125">
        <ele>1840.5999755859375</ele>
        <time>2020-08-13T10:13:28.000Z</time>
      </trkpt>
      <trkpt lat="42.50231514684855937957763671875" lon="1.1196443997323513031005859375">
        <ele>1841.800048828125</ele>
        <time>2020-08-13T10:13:31.000Z</time>
      </trkpt>
      <trkpt lat="42.50233576633036136627197265625" lon="1.11962202005088329315185546875">
        <ele>1842.199951171875</ele>
        <time>2020-08-13T10:13:33.000Z</time>
      </trkpt>
      <trkpt lat="42.50241137109696865081787109375" lon="1.1195848882198333740234375">
        <ele>1842.800048828125</ele>
        <time>2020-08-13T10:13:39.000Z</time>
      </trkpt>
      <trkpt lat="42.5024387799203395843505859375" lon="1.11956971697509288787841796875">
        <ele>1843.199951171875</ele>
        <time>2020-08-13T10:13:41.000Z</time>
      </trkpt>
      <trkpt lat="42.5024961121380329132080078125" lon="1.11954155378043651580810546875">
        <ele>1843.4000244140625</ele>
        <time>2020-08-13T10:13:45.000Z</time>
      </trkpt>
      <trkpt lat="42.50256844796240329742431640625" lon="1.119517497718334197998046875">
        <ele>1843.199951171875</ele>
        <time>2020-08-13T10:13:51.000Z</time>
      </trkpt>
      <trkpt lat="42.50267372466623783111572265625" lon="1.11949075944721698760986328125">
        <ele>1843.5999755859375</ele>
        <time>2020-08-13T10:13:56.000Z</time>
      </trkpt>
      <trkpt lat="42.502695433795452117919921875" lon="1.1194804497063159942626953125">
        <ele>1843.5999755859375</ele>
        <time>2020-08-13T10:13:57.000Z</time>
      </trkpt>
      <trkpt lat="42.50285158865153789520263671875" lon="1.11937634646892547607421875">
        <ele>1844.4000244140625</ele>
        <time>2020-08-13T10:14:05.000Z</time>
      </trkpt>
      <trkpt lat="42.50288553535938262939453125" lon="1.11933670006692409515380859375">
        <ele>1844.5999755859375</ele>
        <time>2020-08-13T10:14:07.000Z</time>
      </trkpt>
      <trkpt lat="42.50294110737740993499755859375" lon="1.11926076002418994903564453125">
        <ele>1845.199951171875</ele>
        <time>2020-08-13T10:14:11.000Z</time>
      </trkpt>
      <trkpt lat="42.50296725891530513763427734375" lon="1.1192293278872966766357421875">
        <ele>1845.5999755859375</ele>
        <time>2020-08-13T10:14:13.000Z</time>
      </trkpt>
      <trkpt lat="42.50302928499877452850341796875" lon="1.1191642843186855316162109375">
        <ele>1846.199951171875</ele>
        <time>2020-08-13T10:14:17.000Z</time>
      </trkpt>
      <trkpt lat="42.50313422642648220062255859375" lon="1.119066886603832244873046875">
        <ele>1846.5999755859375</ele>
        <time>2020-08-13T10:14:24.000Z</time>
      </trkpt>
      <trkpt lat="42.50315367244184017181396484375" lon="1.119056828320026397705078125">
        <ele>1846.800048828125</ele>
        <time>2020-08-13T10:14:25.000Z</time>
      </trkpt>
      <trkpt lat="42.50325107015669345855712890625" lon="1.11900997348129749298095703125">
        <ele>1847.199951171875</ele>
        <time>2020-08-13T10:14:30.000Z</time>
      </trkpt>
      <trkpt lat="42.50335492193698883056640625" lon="1.11894962377846240997314453125">
        <ele>1847.800048828125</ele>
        <time>2020-08-13T10:14:36.000Z</time>
      </trkpt>
      <trkpt lat="42.5033691711723804473876953125" lon="1.11893671564757823944091796875">
        <ele>1847.800048828125</ele>
        <time>2020-08-13T10:14:37.000Z</time>
      </trkpt>
      <trkpt lat="42.5034727714955806732177734375" lon="1.11887284554541110992431640625">
        <ele>1848.199951171875</ele>
        <time>2020-08-13T10:14:42.000Z</time>
      </trkpt>
      <trkpt lat="42.50356857664883136749267578125" lon="1.11880243755877017974853515625">
        <ele>1848.5999755859375</ele>
        <time>2020-08-13T10:14:47.000Z</time>
      </trkpt>
      <trkpt lat="42.5036209635436534881591796875" lon="1.1187609471380710601806640625">
        <ele>1849</ele>
        <time>2020-08-13T10:14:50.000Z</time>
      </trkpt>
      <trkpt lat="42.50369799323379993438720703125" lon="1.118698082864284515380859375">
        <ele>1849.800048828125</ele>
        <time>2020-08-13T10:14:55.000Z</time>
      </trkpt>
      <trkpt lat="42.5037316046655178070068359375" lon="1.11867754720151424407958984375">
        <ele>1850.199951171875</ele>
        <time>2020-08-13T10:14:57.000Z</time>
      </trkpt>
      <trkpt lat="42.503865547478199005126953125" lon="1.1186114139854907989501953125">
        <ele>1851</ele>
        <time>2020-08-13T10:15:05.000Z</time>
      </trkpt>
      <trkpt lat="42.50391961075365543365478515625" lon="1.1185862682759761810302734375">
        <ele>1852</ele>
        <time>2020-08-13T10:15:09.000Z</time>
      </trkpt>
      <trkpt lat="42.5039491988718509674072265625" lon="1.11856271512806415557861328125">
        <ele>1852.4000244140625</ele>
        <time>2020-08-13T10:15:11.000Z</time>
      </trkpt>
      <trkpt lat="42.5040675513446331024169921875" lon="1.1184648983180522918701171875">
        <ele>1853.199951171875</ele>
        <time>2020-08-13T10:15:19.000Z</time>
      </trkpt>
      <trkpt lat="42.5041325949132442474365234375" lon="1.11839222721755504608154296875">
        <ele>1854.199951171875</ele>
        <time>2020-08-13T10:15:24.000Z</time>
      </trkpt>
      <trkpt lat="42.5041830539703369140625" lon="1.11835434101521968841552734375">
        <ele>1854.4000244140625</ele>
        <time>2020-08-13T10:15:27.000Z</time>
      </trkpt>
      <trkpt lat="42.50428497791290283203125" lon="1.11825107596814632415771484375">
        <ele>1855.4000244140625</ele>
        <time>2020-08-13T10:15:34.000Z</time>
      </trkpt>
      <trkpt lat="42.50431121326982975006103515625" lon="1.1182281933724880218505859375">
        <ele>1855.800048828125</ele>
        <time>2020-08-13T10:15:36.000Z</time>
      </trkpt>
      <trkpt lat="42.5043860636651515960693359375" lon="1.118140853941440582275390625">
        <ele>1856.5999755859375</ele>
        <time>2020-08-13T10:15:42.000Z</time>
      </trkpt>
      <trkpt lat="42.5043989717960357666015625" lon="1.1181249283254146575927734375">
        <ele>1856.5999755859375</ele>
        <time>2020-08-13T10:15:43.000Z</time>
      </trkpt>
      <trkpt lat="42.5044933520257472991943359375" lon="1.11801638267934322357177734375">
        <ele>1857.199951171875</ele>
        <time>2020-08-13T10:15:50.000Z</time>
      </trkpt>
      <trkpt lat="42.5045221857726573944091796875" lon="1.1179894767701625823974609375">
        <ele>1857.4000244140625</ele>
        <time>2020-08-13T10:15:52.000Z</time>
      </trkpt>
      <trkpt lat="42.50460709445178508758544921875" lon="1.1179080046713352203369140625">
        <ele>1857.800048828125</ele>
        <time>2020-08-13T10:15:58.000Z</time>
      </trkpt>
      <trkpt lat="42.504725866019725799560546875" lon="1.117775402963161468505859375">
        <ele>1858.199951171875</ele>
        <time>2020-08-13T10:16:07.000Z</time>
      </trkpt>
      <trkpt lat="42.5047528557479381561279296875" lon="1.11774556338787078857421875">
        <ele>1858.5999755859375</ele>
        <time>2020-08-13T10:16:09.000Z</time>
      </trkpt>
      <trkpt lat="42.50483977608382701873779296875" lon="1.11766585148870944976806640625">
        <ele>1858.800048828125</ele>
        <time>2020-08-13T10:16:15.000Z</time>
      </trkpt>
      <trkpt lat="42.5048842839896678924560546875" lon="1.1175941862165927886962890625">
        <ele>1859.5999755859375</ele>
        <time>2020-08-13T10:16:19.000Z</time>
      </trkpt>
      <trkpt lat="42.5049084238708019256591796875" lon="1.11756057478487491607666015625">
        <ele>1860</ele>
        <time>2020-08-13T10:16:21.000Z</time>
      </trkpt>
      <trkpt lat="42.50493180938065052032470703125" lon="1.11752151511609554290771484375">
        <ele>1860.5999755859375</ele>
        <time>2020-08-13T10:16:26.000Z</time>
      </trkpt>
      <trkpt lat="42.5049308873713016510009765625" lon="1.11752084456384181976318359375">
        <ele>1860.4000244140625</ele>
        <time>2020-08-13T10:16:44.000Z</time>
      </trkpt>
      <trkpt lat="42.50492812134325504302978515625" lon="1.1175210960209369659423828125">
        <ele>1860</ele>
        <time>2020-08-13T10:18:49.000Z</time>
      </trkpt>
      <trkpt lat="42.50492803752422332763671875" lon="1.117521263659000396728515625">
        <ele>1859.800048828125</ele>
        <time>2020-08-13T10:18:51.000Z</time>
      </trkpt>
      <trkpt lat="42.504943124949932098388671875" lon="1.117474325001239776611328125">
        <ele>1859.5999755859375</ele>
        <time>2020-08-13T10:18:54.000Z</time>
      </trkpt>
      <trkpt lat="42.505010180175304412841796875" lon="1.1173316650092601776123046875">
        <ele>1860.4000244140625</ele>
        <time>2020-08-13T10:19:02.000Z</time>
      </trkpt>
      <trkpt lat="42.505044378340244293212890625" lon="1.117265112698078155517578125">
        <ele>1860.800048828125</ele>
        <time>2020-08-13T10:19:06.000Z</time>
      </trkpt>
      <trkpt lat="42.50507949851453304290771484375" lon="1.11720300279557704925537109375">
        <ele>1862</ele>
        <time>2020-08-13T10:19:10.000Z</time>
      </trkpt>
      <trkpt lat="42.505087964236736297607421875" lon="1.117187999188899993896484375">
        <ele>1862.199951171875</ele>
        <time>2020-08-13T10:19:11.000Z</time>
      </trkpt>
      <trkpt lat="42.50515359453856945037841796875" lon="1.117083393037319183349609375">
        <ele>1863</ele>
        <time>2020-08-13T10:19:18.000Z</time>
      </trkpt>
      <trkpt lat="42.5051635690033435821533203125" lon="1.1170698143541812896728515625">
        <ele>1863</ele>
        <time>2020-08-13T10:19:19.000Z</time>
      </trkpt>
      <trkpt lat="42.50526599586009979248046875" lon="1.1169843189418315887451171875">
        <ele>1863.800048828125</ele>
        <time>2020-08-13T10:19:27.000Z</time>
      </trkpt>
      <trkpt lat="42.50528066419064998626708984375" lon="1.11697669140994548797607421875">
        <ele>1864</ele>
        <time>2020-08-13T10:19:28.000Z</time>
      </trkpt>
      <trkpt lat="42.50539331696927547454833984375" lon="1.1168857477605342864990234375">
        <ele>1865</ele>
        <time>2020-08-13T10:19:37.000Z</time>
      </trkpt>
      <trkpt lat="42.5054733641445636749267578125" lon="1.11681156791746616363525390625">
        <ele>1866</ele>
        <time>2020-08-13T10:19:44.000Z</time>
      </trkpt>
      <trkpt lat="42.50559230335056781768798828125" lon="1.11677954904735088348388671875">
        <ele>1867.199951171875</ele>
        <time>2020-08-13T10:19:52.000Z</time>
      </trkpt>
      <trkpt lat="42.50566958449780941009521484375" lon="1.11675758846104145050048828125">
        <ele>1868.4000244140625</ele>
        <time>2020-08-13T10:19:57.000Z</time>
      </trkpt>
      <trkpt lat="42.50569975934922695159912109375" lon="1.1167482845485210418701171875">
        <ele>1868.800048828125</ele>
        <time>2020-08-13T10:19:59.000Z</time>
      </trkpt>
      <trkpt lat="42.50575826503336429595947265625" lon="1.11671785824000835418701171875">
        <ele>1869.199951171875</ele>
        <time>2020-08-13T10:20:03.000Z</time>
      </trkpt>
      <trkpt lat="42.5058321096003055572509765625" lon="1.11667762510478496551513671875">
        <ele>1869.5999755859375</ele>
        <time>2020-08-13T10:20:08.000Z</time>
      </trkpt>
      <trkpt lat="42.5058756954967975616455078125" lon="1.11665164120495319366455078125">
        <ele>1870.199951171875</ele>
        <time>2020-08-13T10:20:11.000Z</time>
      </trkpt>
      <trkpt lat="42.5059836544096469879150390625" lon="1.11659263260662555694580078125">
        <ele>1871.199951171875</ele>
        <time>2020-08-13T10:20:18.000Z</time>
      </trkpt>
      <trkpt lat="42.50599823892116546630859375" lon="1.11658441834151744842529296875">
        <ele>1871.199951171875</ele>
        <time>2020-08-13T10:20:19.000Z</time>
      </trkpt>
      <trkpt lat="42.5061144120991230010986328125" lon="1.11651199869811534881591796875">
        <ele>1872</ele>
        <time>2020-08-13T10:20:27.000Z</time>
      </trkpt>
      <trkpt lat="42.50625262968242168426513671875" lon="1.11641393043100833892822265625">
        <ele>1872.800048828125</ele>
        <time>2020-08-13T10:20:36.000Z</time>
      </trkpt>
      <trkpt lat="42.50628523528575897216796875" lon="1.11639800481498241424560546875">
        <ele>1873.199951171875</ele>
        <time>2020-08-13T10:20:38.000Z</time>
      </trkpt>
      <trkpt lat="42.50636796467006206512451171875" lon="1.11637168563902378082275390625">
        <ele>1874.4000244140625</ele>
        <time>2020-08-13T10:20:43.000Z</time>
      </trkpt>
      <trkpt lat="42.5063853152096271514892578125" lon="1.11636648885905742645263671875">
        <ele>1874.5999755859375</ele>
        <time>2020-08-13T10:20:44.000Z</time>
      </trkpt>
      <trkpt lat="42.5065006501972675323486328125" lon="1.11635374836623668670654296875">
        <ele>1875.199951171875</ele>
        <time>2020-08-13T10:20:51.000Z</time>
      </trkpt>
      <trkpt lat="42.5065308250486850738525390625" lon="1.11634301953017711639404296875">
        <ele>1875.5999755859375</ele>
        <time>2020-08-13T10:20:53.000Z</time>
      </trkpt>
      <trkpt lat="42.5066129676997661590576171875" lon="1.11632441170513629913330078125">
        <ele>1876.5999755859375</ele>
        <time>2020-08-13T10:20:58.000Z</time>
      </trkpt>
      <trkpt lat="42.50666334293782711029052734375" lon="1.1163144372403621673583984375">
        <ele>1876.5999755859375</ele>
        <time>2020-08-13T10:21:01.000Z</time>
      </trkpt>
      <trkpt lat="42.50677473843097686767578125" lon="1.116279400885105133056640625">
        <ele>1877.4000244140625</ele>
        <time>2020-08-13T10:21:08.000Z</time>
      </trkpt>
      <trkpt lat="42.50679125078022480010986328125" lon="1.116273701190948486328125">
        <ele>1877.5999755859375</ele>
        <time>2020-08-13T10:21:09.000Z</time>
      </trkpt>
      <trkpt lat="42.50690214335918426513671875" lon="1.1162393353879451751708984375">
        <ele>1878.199951171875</ele>
        <time>2020-08-13T10:21:16.000Z</time>
      </trkpt>
      <trkpt lat="42.5069190748035907745361328125" lon="1.1162386648356914520263671875">
        <ele>1878.5999755859375</ele>
        <time>2020-08-13T10:21:17.000Z</time>
      </trkpt>
      <trkpt lat="42.5070059113204479217529296875" lon="1.1162212304770946502685546875">
        <ele>1879.5999755859375</ele>
        <time>2020-08-13T10:21:22.000Z</time>
      </trkpt>
      <trkpt lat="42.507023178040981292724609375" lon="1.11621963791549205780029296875">
        <ele>1879.800048828125</ele>
        <time>2020-08-13T10:21:23.000Z</time>
      </trkpt>
      <trkpt lat="42.50713708810508251190185546875" lon="1.11620320938527584075927734375">
        <ele>1880.5999755859375</ele>
        <time>2020-08-13T10:21:30.000Z</time>
      </trkpt>
      <trkpt lat="42.50718109309673309326171875" lon="1.11619432456791400909423828125">
        <ele>1881.4000244140625</ele>
        <time>2020-08-13T10:21:33.000Z</time>
      </trkpt>
      <trkpt lat="42.507195509970188140869140625" lon="1.1161930672824382781982421875">
        <ele>1881.5999755859375</ele>
        <time>2020-08-13T10:21:34.000Z</time>
      </trkpt>
      <trkpt lat="42.507286034524440765380859375" lon="1.11618460156023502349853515625">
        <ele>1882.199951171875</ele>
        <time>2020-08-13T10:21:40.000Z</time>
      </trkpt>
      <trkpt lat="42.50733171589672565460205078125" lon="1.11618451774120330810546875">
        <ele>1883</ele>
        <time>2020-08-13T10:21:43.000Z</time>
      </trkpt>
      <trkpt lat="42.50742115080356597900390625" lon="1.116153337061405181884765625">
        <ele>1883.4000244140625</ele>
        <time>2020-08-13T10:21:49.000Z</time>
      </trkpt>
      <trkpt lat="42.50743648968636989593505859375" lon="1.1161474697291851043701171875">
        <ele>1883.800048828125</ele>
        <time>2020-08-13T10:21:50.000Z</time>
      </trkpt>
      <trkpt lat="42.50752852298319339752197265625" lon="1.1161340586841106414794921875">
        <ele>1884.5999755859375</ele>
        <time>2020-08-13T10:21:56.000Z</time>
      </trkpt>
      <trkpt lat="42.507543861865997314453125" lon="1.11612961627542972564697265625">
        <ele>1884.800048828125</ele>
        <time>2020-08-13T10:21:57.000Z</time>
      </trkpt>
      <trkpt lat="42.507669925689697265625" lon="1.11610078252851963043212890625">
        <ele>1885.5999755859375</ele>
        <time>2020-08-13T10:22:05.000Z</time>
      </trkpt>
      <trkpt lat="42.507716529071331024169921875" lon="1.11608267761766910552978515625">
        <ele>1886</ele>
        <time>2020-08-13T10:22:08.000Z</time>
      </trkpt>
      <trkpt lat="42.5077911280095577239990234375" lon="1.1160542629659175872802734375">
        <ele>1886.800048828125</ele>
        <time>2020-08-13T10:22:13.000Z</time>
      </trkpt>
      <trkpt lat="42.50783312134444713592529296875" lon="1.11603892408311367034912109375">
        <ele>1887.199951171875</ele>
        <time>2020-08-13T10:22:16.000Z</time>
      </trkpt>
      <trkpt lat="42.50792096368968486785888671875" lon="1.11601763404905796051025390625">
        <ele>1887.800048828125</ele>
        <time>2020-08-13T10:22:22.000Z</time>
      </trkpt>
      <trkpt lat="42.50794929452240467071533203125" lon="1.1160068213939666748046875">
        <ele>1888.4000244140625</ele>
        <time>2020-08-13T10:22:24.000Z</time>
      </trkpt>
      <trkpt lat="42.5080338679254055023193359375" lon="1.11597270704805850982666015625">
        <ele>1889.199951171875</ele>
        <time>2020-08-13T10:22:30.000Z</time>
      </trkpt>
      <trkpt lat="42.5080494582653045654296875" lon="1.11596734263002872467041015625">
        <ele>1889.4000244140625</ele>
        <time>2020-08-13T10:22:31.000Z</time>
      </trkpt>
      <trkpt lat="42.50814392231404781341552734375" lon="1.11595451831817626953125">
        <ele>1890</ele>
        <time>2020-08-13T10:22:37.000Z</time>
      </trkpt>
      <trkpt lat="42.50819521956145763397216796875" lon="1.11594923771917819976806640625">
        <ele>1890.199951171875</ele>
        <time>2020-08-13T10:22:40.000Z</time>
      </trkpt>
      <trkpt lat="42.50825992785394191741943359375" lon="1.11594337038695812225341796875">
        <ele>1891</ele>
        <time>2020-08-13T10:22:44.000Z</time>
      </trkpt>
      <trkpt lat="42.50832639634609222412109375" lon="1.11595242284238338470458984375">
        <ele>1891.199951171875</ele>
        <time>2020-08-13T10:22:48.000Z</time>
      </trkpt>
      <trkpt lat="42.50838900916278362274169921875" lon="1.1159721203148365020751953125">
        <ele>1891.4000244140625</ele>
        <time>2020-08-13T10:22:52.000Z</time>
      </trkpt>
      <trkpt lat="42.50841197557747364044189453125" lon="1.116003133356571197509765625">
        <ele>1892</ele>
        <time>2020-08-13T10:22:54.000Z</time>
      </trkpt>
      <trkpt lat="42.5084841437637805938720703125" lon="1.11610279418528079986572265625">
        <ele>1892.800048828125</ele>
        <time>2020-08-13T10:23:00.000Z</time>
      </trkpt>
      <trkpt lat="42.50849847681820392608642578125" lon="1.11611343920230865478515625">
        <ele>1893</ele>
        <time>2020-08-13T10:23:01.000Z</time>
      </trkpt>
      <trkpt lat="42.5085123069584369659423828125" lon="1.1161240004003047943115234375">
        <ele>1893.199951171875</ele>
        <time>2020-08-13T10:23:02.000Z</time>
      </trkpt>
      <trkpt lat="42.5085833854973316192626953125" lon="1.1161784827709197998046875">
        <ele>1893.5999755859375</ele>
        <time>2020-08-13T10:23:07.000Z</time>
      </trkpt>
      <trkpt lat="42.50865220092236995697021484375" lon="1.11622969619929790496826171875">
        <ele>1894.4000244140625</ele>
        <time>2020-08-13T10:23:12.000Z</time>
      </trkpt>
      <trkpt lat="42.50869385898113250732421875" lon="1.11625551246106624603271484375">
        <ele>1894.800048828125</ele>
        <time>2020-08-13T10:23:15.000Z</time>
      </trkpt>
      <trkpt lat="42.5087387859821319580078125" lon="1.1162852682173252105712890625">
        <ele>1895.4000244140625</ele>
        <time>2020-08-13T10:23:18.000Z</time>
      </trkpt>
      <trkpt lat="42.50877809710800647735595703125" lon="1.116304881870746612548828125">
        <ele>1895.5999755859375</ele>
        <time>2020-08-13T10:23:21.000Z</time>
      </trkpt>
      <trkpt lat="42.5087892450392246246337890625" lon="1.11631418578326702117919921875">
        <ele>1895.5999755859375</ele>
        <time>2020-08-13T10:23:22.000Z</time>
      </trkpt>
      <trkpt lat="42.5088459067046642303466796875" lon="1.11634184606373310089111328125">
        <ele>1896</ele>
        <time>2020-08-13T10:23:28.000Z</time>
      </trkpt>
      <trkpt lat="42.50886091031134128570556640625" lon="1.116355173289775848388671875">
        <ele>1896.199951171875</ele>
        <time>2020-08-13T10:23:30.000Z</time>
      </trkpt>
      <trkpt lat="42.5089399516582489013671875" lon="1.11638425849378108978271484375">
        <ele>1897.199951171875</ele>
        <time>2020-08-13T10:23:35.000Z</time>
      </trkpt>
      <trkpt lat="42.50906609930098056793212890625" lon="1.11640848219394683837890625">
        <ele>1898</ele>
        <time>2020-08-13T10:23:42.000Z</time>
      </trkpt>
      <trkpt lat="42.509082444012165069580078125" lon="1.1164086498320102691650390625">
        <ele>1898.199951171875</ele>
        <time>2020-08-13T10:23:43.000Z</time>
      </trkpt>
      <trkpt lat="42.50916458666324615478515625" lon="1.11639917828142642974853515625">
        <ele>1899.199951171875</ele>
        <time>2020-08-13T10:23:48.000Z</time>
      </trkpt>
      <trkpt lat="42.50918126665055751800537109375" lon="1.11640177667140960693359375">
        <ele>1899.199951171875</ele>
        <time>2020-08-13T10:23:49.000Z</time>
      </trkpt>
      <trkpt lat="42.50929526053369045257568359375" lon="1.11642968840897083282470703125">
        <ele>1900</ele>
        <time>2020-08-13T10:23:55.000Z</time>
      </trkpt>
      <trkpt lat="42.509313784539699554443359375" lon="1.116431616246700286865234375">
        <ele>1900.199951171875</ele>
        <time>2020-08-13T10:23:56.000Z</time>
      </trkpt>
      <trkpt lat="42.5094336457550525665283203125" lon="1.116425581276416778564453125">
        <ele>1901.4000244140625</ele>
        <time>2020-08-13T10:24:03.000Z</time>
      </trkpt>
      <trkpt lat="42.50952492468059062957763671875" lon="1.116423569619655609130859375">
        <ele>1902</ele>
        <time>2020-08-13T10:24:09.000Z</time>
      </trkpt>
      <trkpt lat="42.509579323232173919677734375" lon="1.11642080359160900115966796875">
        <ele>1902.4000244140625</ele>
        <time>2020-08-13T10:24:12.000Z</time>
      </trkpt>
      <trkpt lat="42.509653083980083465576171875" lon="1.116411499679088592529296875">
        <ele>1903.4000244140625</ele>
        <time>2020-08-13T10:24:16.000Z</time>
      </trkpt>
      <trkpt lat="42.50967043451964855194091796875" lon="1.1164083145558834075927734375">
        <ele>1903.4000244140625</ele>
        <time>2020-08-13T10:24:17.000Z</time>
      </trkpt>
      <trkpt lat="42.5097702629864215850830078125" lon="1.11640177667140960693359375">
        <ele>1904.4000244140625</ele>
        <time>2020-08-13T10:24:23.000Z</time>
      </trkpt>
      <trkpt lat="42.5098540820181369781494140625" lon="1.11641426570713520050048828125">
        <ele>1905.199951171875</ele>
        <time>2020-08-13T10:24:28.000Z</time>
      </trkpt>
      <trkpt lat="42.50988802872598171234130859375" lon="1.11642600037157535552978515625">
        <ele>1905.4000244140625</ele>
        <time>2020-08-13T10:24:30.000Z</time>
      </trkpt>
      <trkpt lat="42.5099630467593669891357421875" lon="1.11645248718559741973876953125">
        <ele>1906.4000244140625</ele>
        <time>2020-08-13T10:24:35.000Z</time>
      </trkpt>
      <trkpt lat="42.509979307651519775390625" lon="1.11645600758492946624755859375">
        <ele>1906.5999755859375</ele>
        <time>2020-08-13T10:24:36.000Z</time>
      </trkpt>
      <trkpt lat="42.5100798904895782470703125" lon="1.116472519934177398681640625">
        <ele>1907.4000244140625</ele>
        <time>2020-08-13T10:24:43.000Z</time>
      </trkpt>
      <trkpt lat="42.51018340699374675750732421875" lon="1.11651367507874965667724609375">
        <ele>1908.199951171875</ele>
        <time>2020-08-13T10:24:50.000Z</time>
      </trkpt>
      <trkpt lat="42.5102145038545131683349609375" lon="1.11652390100061893463134765625">
        <ele>1908.5999755859375</ele>
        <time>2020-08-13T10:24:52.000Z</time>
      </trkpt>
      <trkpt lat="42.5102835707366466522216796875" lon="1.11656178720295429229736328125">
        <ele>1909.5999755859375</ele>
        <time>2020-08-13T10:24:57.000Z</time>
      </trkpt>
      <trkpt lat="42.51029572449624538421630859375" lon="1.116572432219982147216796875">
        <ele>1909.5999755859375</ele>
        <time>2020-08-13T10:24:58.000Z</time>
      </trkpt>
      <trkpt lat="42.51041449606418609619140625" lon="1.11662037670612335205078125">
        <ele>1910.199951171875</ele>
        <time>2020-08-13T10:25:06.000Z</time>
      </trkpt>
      <trkpt lat="42.51044332981109619140625" lon="1.1166309379041194915771484375">
        <ele>1910.4000244140625</ele>
        <time>2020-08-13T10:25:08.000Z</time>
      </trkpt>
      <trkpt lat="42.51052622683346271514892578125" lon="1.11666572280228137969970703125">
        <ele>1911.4000244140625</ele>
        <time>2020-08-13T10:25:14.000Z</time>
      </trkpt>
      <trkpt lat="42.510553300380706787109375" lon="1.11667393706738948822021484375">
        <ele>1911.5999755859375</ele>
        <time>2020-08-13T10:25:16.000Z</time>
      </trkpt>
      <trkpt lat="42.510628402233123779296875" lon="1.1166922934353351593017578125">
        <ele>1912.199951171875</ele>
        <time>2020-08-13T10:25:22.000Z</time>
      </trkpt>
      <trkpt lat="42.51064290292561054229736328125" lon="1.11669707112014293670654296875">
        <ele>1912.4000244140625</ele>
        <time>2020-08-13T10:25:23.000Z</time>
      </trkpt>
      <trkpt lat="42.51073845662176609039306640625" lon="1.11673093400895595550537109375">
        <ele>1913.4000244140625</ele>
        <time>2020-08-13T10:25:30.000Z</time>
      </trkpt>
      <trkpt lat="42.51076360233128070831298828125" lon="1.11674317158758640289306640625">
        <ele>1913.5999755859375</ele>
        <time>2020-08-13T10:25:32.000Z</time>
      </trkpt>
      <trkpt lat="42.51084675081074237823486328125" lon="1.11676982603967189788818359375">
        <ele>1914.199951171875</ele>
        <time>2020-08-13T10:25:38.000Z</time>
      </trkpt>
      <trkpt lat="42.51088715158402919769287109375" lon="1.11678843386471271514892578125">
        <ele>1914.5999755859375</ele>
        <time>2020-08-13T10:25:41.000Z</time>
      </trkpt>
      <trkpt lat="42.5109152309596538543701171875" lon="1.116795055568218231201171875">
        <ele>1914.800048828125</ele>
        <time>2020-08-13T10:25:43.000Z</time>
      </trkpt>
      <trkpt lat="42.51094247214496135711669921875" lon="1.11680209636688232421875">
        <ele>1914.800048828125</ele>
        <time>2020-08-13T10:25:45.000Z</time>
      </trkpt>
      <trkpt lat="42.51099511049687862396240234375" lon="1.11682464368641376495361328125">
        <ele>1915.4000244140625</ele>
        <time>2020-08-13T10:25:49.000Z</time>
      </trkpt>
      <trkpt lat="42.51103517599403858184814453125" lon="1.11684174276888370513916015625">
        <ele>1915.5999755859375</ele>
        <time>2020-08-13T10:25:52.000Z</time>
      </trkpt>
      <trkpt lat="42.5110848806798458099365234375" lon="1.11687627620995044708251953125">
        <ele>1916.5999755859375</ele>
        <time>2020-08-13T10:25:56.000Z</time>
      </trkpt>
      <trkpt lat="42.5111402012407779693603515625" lon="1.1168988235294818878173828125">
        <ele>1917</ele>
        <time>2020-08-13T10:26:00.000Z</time>
      </trkpt>
      <trkpt lat="42.51121404580771923065185546875" lon="1.11694936640560626983642578125">
        <ele>1917.5999755859375</ele>
        <time>2020-08-13T10:26:06.000Z</time>
      </trkpt>
      <trkpt lat="42.5112256966531276702880859375" lon="1.1169588379561901092529296875">
        <ele>1917.800048828125</ele>
        <time>2020-08-13T10:26:07.000Z</time>
      </trkpt>
      <trkpt lat="42.511284537613391876220703125" lon="1.117006279528141021728515625">
        <ele>1918.5999755859375</ele>
        <time>2020-08-13T10:26:12.000Z</time>
      </trkpt>
      <trkpt lat="42.51130809076130390167236328125" lon="1.1170262284576892852783203125">
        <ele>1919</ele>
        <time>2020-08-13T10:26:14.000Z</time>
      </trkpt>
      <trkpt lat="42.51132921315729618072509765625" lon="1.11704894341528415679931640625">
        <ele>1919</ele>
        <time>2020-08-13T10:26:16.000Z</time>
      </trkpt>
      <trkpt lat="42.51138218678534030914306640625" lon="1.1170758493244647979736328125">
        <ele>1919.199951171875</ele>
        <time>2020-08-13T10:26:20.000Z</time>
      </trkpt>
      <trkpt lat="42.51140800304710865020751953125" lon="1.117089428007602691650390625">
        <ele>1919.5999755859375</ele>
        <time>2020-08-13T10:26:22.000Z</time>
      </trkpt>
      <trkpt lat="42.51147204078733921051025390625" lon="1.1171214468777179718017578125">
        <ele>1920.199951171875</ele>
        <time>2020-08-13T10:26:27.000Z</time>
      </trkpt>
      <trkpt lat="42.51152752898633480072021484375" lon="1.117153130471706390380859375">
        <ele>1920.800048828125</ele>
        <time>2020-08-13T10:26:31.000Z</time>
      </trkpt>
      <trkpt lat="42.511589638888835906982421875" lon="1.11717483960092067718505859375">
        <ele>1921</ele>
        <time>2020-08-13T10:26:35.000Z</time>
      </trkpt>
      <trkpt lat="42.5116608850657939910888671875" lon="1.11721171997487545013427734375">
        <ele>1921.5999755859375</ele>
        <time>2020-08-13T10:26:40.000Z</time>
      </trkpt>
      <trkpt lat="42.511686868965625762939453125" lon="1.1172258853912353515625">
        <ele>1922.199951171875</ele>
        <time>2020-08-13T10:26:42.000Z</time>
      </trkpt>
      <trkpt lat="42.51173657365143299102783203125" lon="1.11725362949073314666748046875">
        <ele>1922.800048828125</ele>
        <time>2020-08-13T10:26:46.000Z</time>
      </trkpt>
      <trkpt lat="42.51177814789116382598876953125" lon="1.11726888455450534820556640625">
        <ele>1923</ele>
        <time>2020-08-13T10:26:49.000Z</time>
      </trkpt>
      <trkpt lat="42.511852495372295379638671875" lon="1.1172862350940704345703125">
        <ele>1924</ele>
        <time>2020-08-13T10:26:54.000Z</time>
      </trkpt>
      <trkpt lat="42.5118982605636119842529296875" lon="1.1173014901578426361083984375">
        <ele>1924.4000244140625</ele>
        <time>2020-08-13T10:26:57.000Z</time>
      </trkpt>
      <trkpt lat="42.51195332966744899749755859375" lon="1.11733174882829189300537109375">
        <ele>1924.800048828125</ele>
        <time>2020-08-13T10:27:01.000Z</time>
      </trkpt>
      <trkpt lat="42.51204083673655986785888671875" lon="1.11738455481827259063720703125">
        <ele>1925.4000244140625</ele>
        <time>2020-08-13T10:27:07.000Z</time>
      </trkpt>
      <trkpt lat="42.5120816566050052642822265625" lon="1.1174198426306247711181640625">
        <ele>1926</ele>
        <time>2020-08-13T10:27:10.000Z</time>
      </trkpt>
      <trkpt lat="42.512138150632381439208984375" lon="1.1174520291388034820556640625">
        <ele>1926.5999755859375</ele>
        <time>2020-08-13T10:27:14.000Z</time>
      </trkpt>
      <trkpt lat="42.51219539903104305267333984375" lon="1.11749083735048770904541015625">
        <ele>1927</ele>
        <time>2020-08-13T10:27:18.000Z</time>
      </trkpt>
      <trkpt lat="42.512247450649738311767578125" lon="1.1175103671848773956298828125">
        <ele>1927</ele>
        <time>2020-08-13T10:27:21.000Z</time>
      </trkpt>
      <trkpt lat="42.512326575815677642822265625" lon="1.1175502650439739227294921875">
        <ele>1928.199951171875</ele>
        <time>2020-08-13T10:27:26.000Z</time>
      </trkpt>
      <trkpt lat="42.5123391486704349517822265625" lon="1.117558144032955169677734375">
        <ele>1928.4000244140625</ele>
        <time>2020-08-13T10:27:27.000Z</time>
      </trkpt>
      <trkpt lat="42.51245029270648956298828125" lon="1.11759477294981479644775390625">
        <ele>1929.4000244140625</ele>
        <time>2020-08-13T10:27:34.000Z</time>
      </trkpt>
      <trkpt lat="42.51255146227777004241943359375" lon="1.117609106004238128662109375">
        <ele>1930.199951171875</ele>
        <time>2020-08-13T10:27:41.000Z</time>
      </trkpt>
      <trkpt lat="42.51258079893887042999267578125" lon="1.1176112852990627288818359375">
        <ele>1930.4000244140625</ele>
        <time>2020-08-13T10:27:43.000Z</time>
      </trkpt>
      <trkpt lat="42.51265472732484340667724609375" lon="1.117598377168178558349609375">
        <ele>1931.4000244140625</ele>
        <time>2020-08-13T10:27:48.000Z</time>
      </trkpt>
      <trkpt lat="42.51266612671315670013427734375" lon="1.11759494058787822723388671875">
        <ele>1931.4000244140625</ele>
        <time>2020-08-13T10:27:49.000Z</time>
      </trkpt>
      <trkpt lat="42.51267568208277225494384765625" lon="1.1175893247127532958984375">
        <ele>1931.5999755859375</ele>
        <time>2020-08-13T10:27:50.000Z</time>
      </trkpt>
      <trkpt lat="42.51271340064704418182373046875" lon="1.11758328974246978759765625">
        <ele>1932.199951171875</ele>
        <time>2020-08-13T10:27:53.000Z</time>
      </trkpt>
      <trkpt lat="42.51272697933018207550048828125" lon="1.117584295570850372314453125">
        <ele>1932.4000244140625</ele>
        <time>2020-08-13T10:27:54.000Z</time>
      </trkpt>
      <trkpt lat="42.51279587857425212860107421875" lon="1.1175812780857086181640625">
        <ele>1933.199951171875</ele>
        <time>2020-08-13T10:28:00.000Z</time>
      </trkpt>
      <trkpt lat="42.51281079836189746856689453125" lon="1.1175780929625034332275390625">
        <ele>1933.4000244140625</ele>
        <time>2020-08-13T10:28:01.000Z</time>
      </trkpt>
      <trkpt lat="42.51290869899094104766845703125" lon="1.1175606586039066314697265625">
        <ele>1934.199951171875</ele>
        <time>2020-08-13T10:28:07.000Z</time>
      </trkpt>
      <trkpt lat="42.51293535344302654266357421875" lon="1.11754196695983409881591796875">
        <ele>1934.199951171875</ele>
        <time>2020-08-13T10:28:09.000Z</time>
      </trkpt>
      <trkpt lat="42.51297910697758197784423828125" lon="1.11752335913479328155517578125">
        <ele>1934.4000244140625</ele>
        <time>2020-08-13T10:28:12.000Z</time>
      </trkpt>
      <trkpt lat="42.5130678713321685791015625" lon="1.1174912564456462860107421875">
        <ele>1935.4000244140625</ele>
        <time>2020-08-13T10:28:18.000Z</time>
      </trkpt>
      <trkpt lat="42.51317038200795650482177734375" lon="1.11743736080825328826904296875">
        <ele>1936.199951171875</ele>
        <time>2020-08-13T10:28:25.000Z</time>
      </trkpt>
      <trkpt lat="42.51320089213550090789794921875" lon="1.1174174956977367401123046875">
        <ele>1936.5999755859375</ele>
        <time>2020-08-13T10:28:27.000Z</time>
      </trkpt>
      <trkpt lat="42.5132635049521923065185546875" lon="1.1173819564282894134521484375">
        <ele>1937.4000244140625</ele>
        <time>2020-08-13T10:28:31.000Z</time>
      </trkpt>
      <trkpt lat="42.5132950209081172943115234375" lon="1.117362342774868011474609375">
        <ele>1937.5999755859375</ele>
        <time>2020-08-13T10:28:33.000Z</time>
      </trkpt>
      <trkpt lat="42.51339334063231945037841796875" lon="1.11728162504732608795166015625">
        <ele>1938.4000244140625</ele>
        <time>2020-08-13T10:28:40.000Z</time>
      </trkpt>
      <trkpt lat="42.51340691931545734405517578125" lon="1.1172729916870594024658203125">
        <ele>1938.5999755859375</ele>
        <time>2020-08-13T10:28:41.000Z</time>
      </trkpt>
      <trkpt lat="42.51347355544567108154296875" lon="1.117217838764190673828125">
        <ele>1939.4000244140625</ele>
        <time>2020-08-13T10:28:47.000Z</time>
      </trkpt>
      <trkpt lat="42.5135136209428310394287109375" lon="1.1171831376850605010986328125">
        <ele>1939.4000244140625</ele>
        <time>2020-08-13T10:28:51.000Z</time>
      </trkpt>
      <trkpt lat="42.5135360844433307647705078125" lon="1.11716293729841709136962890625">
        <ele>1939.5999755859375</ele>
        <time>2020-08-13T10:28:53.000Z</time>
      </trkpt>
      <trkpt lat="42.51359450630843639373779296875" lon="1.11713225953280925750732421875">
        <ele>1940</ele>
        <time>2020-08-13T10:28:57.000Z</time>
      </trkpt>
      <trkpt lat="42.51363205723464488983154296875" lon="1.1171020008623600006103515625">
        <ele>1940.4000244140625</ele>
        <time>2020-08-13T10:29:00.000Z</time>
      </trkpt>
      <trkpt lat="42.51364513300359249114990234375" lon="1.11709487624466419219970703125">
        <ele>1940.5999755859375</ele>
        <time>2020-08-13T10:29:01.000Z</time>
      </trkpt>
      <trkpt lat="42.51373465172946453094482421875" lon="1.11706587485969066619873046875">
        <ele>1941</ele>
        <time>2020-08-13T10:29:06.000Z</time>
      </trkpt>
      <trkpt lat="42.5137855298817157745361328125" lon="1.1170476861298084259033203125">
        <ele>1941.4000244140625</ele>
        <time>2020-08-13T10:29:09.000Z</time>
      </trkpt>
      <trkpt lat="42.513868175446987152099609375" lon="1.11703201197087764739990234375">
        <ele>1942.199951171875</ele>
        <time>2020-08-13T10:29:14.000Z</time>
      </trkpt>
      <trkpt lat="42.51390581019222736358642578125" lon="1.117025054991245269775390625">
        <ele>1942.4000244140625</ele>
        <time>2020-08-13T10:29:16.000Z</time>
      </trkpt>
      <trkpt lat="42.5140173733234405517578125" lon="1.11695338971912860870361328125">
        <ele>1943.4000244140625</ele>
        <time>2020-08-13T10:29:23.000Z</time>
      </trkpt>
      <trkpt lat="42.5140286050736904144287109375" lon="1.1169340275228023529052734375">
        <ele>1943.199951171875</ele>
        <time>2020-08-13T10:29:24.000Z</time>
      </trkpt>
      <trkpt lat="42.51403908245265483856201171875" lon="1.11689102835953235626220703125">
        <ele>1943.4000244140625</ele>
        <time>2020-08-13T10:29:26.000Z</time>
      </trkpt>
      <trkpt lat="42.51402743160724639892578125" lon="1.11685465089976787567138671875">
        <ele>1943.800048828125</ele>
        <time>2020-08-13T10:29:28.000Z</time>
      </trkpt>
      <trkpt lat="42.51400320790708065032958984375" lon="1.11683629453182220458984375">
        <ele>1944.199951171875</ele>
        <time>2020-08-13T10:29:30.000Z</time>
      </trkpt>
      <trkpt lat="42.5139900483191013336181640625" lon="1.116830594837665557861328125">
        <ele>1944.4000244140625</ele>
        <time>2020-08-13T10:29:31.000Z</time>
      </trkpt>
      <trkpt lat="42.5139343924820423126220703125" lon="1.11682732589542865753173828125">
        <ele>1945.199951171875</ele>
        <time>2020-08-13T10:29:35.000Z</time>
      </trkpt>
      <trkpt lat="42.51386658288538455963134765625" lon="1.116852052509784698486328125">
        <ele>1945.199951171875</ele>
        <time>2020-08-13T10:29:40.000Z</time>
      </trkpt>
      <trkpt lat="42.5138227455317974090576171875" lon="1.11686521209776401519775390625">
        <ele>1945.800048828125</ele>
        <time>2020-08-13T10:29:43.000Z</time>
      </trkpt>
      <trkpt lat="42.51376398839056491851806640625" lon="1.11688784323632717132568359375">
        <ele>1946.199951171875</ele>
        <time>2020-08-13T10:29:47.000Z</time>
      </trkpt>
      <trkpt lat="42.51371989957988262176513671875" lon="1.11690661869943141937255859375">
        <ele>1946.199951171875</ele>
        <time>2020-08-13T10:29:50.000Z</time>
      </trkpt>
      <trkpt lat="42.51370430923998355865478515625" lon="1.11691114492714405059814453125">
        <ele>1946.5999755859375</ele>
        <time>2020-08-13T10:29:51.000Z</time>
      </trkpt>
      <trkpt lat="42.513689137995243072509765625" lon="1.11691433005034923553466796875">
        <ele>1946.800048828125</ele>
        <time>2020-08-13T10:29:52.000Z</time>
      </trkpt>
      <trkpt lat="42.513605654239654541015625" lon="1.1169008351862430572509765625">
        <ele>1947.4000244140625</ele>
        <time>2020-08-13T10:29:58.000Z</time>
      </trkpt>
      <trkpt lat="42.5135783292353153228759765625" lon="1.11689756624400615692138671875">
        <ele>1947.4000244140625</ele>
        <time>2020-08-13T10:30:00.000Z</time>
      </trkpt>
      <trkpt lat="42.5135209970176219940185546875" lon="1.116905696690082550048828125">
        <ele>1948.4000244140625</ele>
        <time>2020-08-13T10:30:04.000Z</time>
      </trkpt>
      <trkpt lat="42.51350683160126209259033203125" lon="1.11690795980393886566162109375">
        <ele>1948.4000244140625</ele>
        <time>2020-08-13T10:30:05.000Z</time>
      </trkpt>
      <trkpt lat="42.51341982744634151458740234375" lon="1.11690469086170196533203125">
        <ele>1949.5999755859375</ele>
        <time>2020-08-13T10:30:11.000Z</time>
      </trkpt>
      <trkpt lat="42.51333885826170444488525390625" lon="1.11688725650310516357421875">
        <ele>1950.5999755859375</ele>
        <time>2020-08-13T10:30:17.000Z</time>
      </trkpt>
      <trkpt lat="42.5133272074162960052490234375" lon="1.11688247881829738616943359375">
        <ele>1950.800048828125</ele>
        <time>2020-08-13T10:30:18.000Z</time>
      </trkpt>
      <trkpt lat="42.51331329345703125" lon="1.11687920987606048583984375">
        <ele>1951</ele>
        <time>2020-08-13T10:30:19.000Z</time>
      </trkpt>
      <trkpt lat="42.513229809701442718505859375" lon="1.116856746375560760498046875">
        <ele>1951.800048828125</ele>
        <time>2020-08-13T10:30:25.000Z</time>
      </trkpt>
      <trkpt lat="42.51311757601797580718994140625" lon="1.1168141663074493408203125">
        <ele>1952.4000244140625</ele>
        <time>2020-08-13T10:30:33.000Z</time>
      </trkpt>
      <trkpt lat="42.51308522187173366546630859375" lon="1.1168126575648784637451171875">
        <ele>1952.800048828125</ele>
        <time>2020-08-13T10:30:35.000Z</time>
      </trkpt>
      <trkpt lat="42.51299788244068622589111328125" lon="1.11679262481629848480224609375">
        <ele>1953.4000244140625</ele>
        <time>2020-08-13T10:30:41.000Z</time>
      </trkpt>
      <trkpt lat="42.51298271119594573974609375" lon="1.116788685321807861328125">
        <ele>1953.5999755859375</ele>
        <time>2020-08-13T10:30:42.000Z</time>
      </trkpt>
      <trkpt lat="42.51291020773351192474365234375" lon="1.1167720891535282135009765625">
        <ele>1954.800048828125</ele>
        <time>2020-08-13T10:30:47.000Z</time>
      </trkpt>
      <trkpt lat="42.51289512030780315399169921875" lon="1.11676647327840328216552734375">
        <ele>1954.800048828125</ele>
        <time>2020-08-13T10:30:48.000Z</time>
      </trkpt>
      <trkpt lat="42.51279219053685665130615234375" lon="1.1167231388390064239501953125">
        <ele>1955.800048828125</ele>
        <time>2020-08-13T10:30:55.000Z</time>
      </trkpt>
      <trkpt lat="42.5127780251204967498779296875" lon="1.11671425402164459228515625">
        <ele>1956</ele>
        <time>2020-08-13T10:30:56.000Z</time>
      </trkpt>
      <trkpt lat="42.51270468346774578094482421875" lon="1.11667661927640438079833984375">
        <ele>1956.800048828125</ele>
        <time>2020-08-13T10:31:01.000Z</time>
      </trkpt>
      <trkpt lat="42.5126449204981327056884765625" lon="1.11664359457790851593017578125">
        <ele>1957.199951171875</ele>
        <time>2020-08-13T10:31:05.000Z</time>
      </trkpt>
      <trkpt lat="42.51256034709513187408447265625" lon="1.1165907047688961029052734375">
        <ele>1957.5999755859375</ele>
        <time>2020-08-13T10:31:11.000Z</time>
      </trkpt>
      <trkpt lat="42.51251692883670330047607421875" lon="1.1165622062981128692626953125">
        <ele>1958.199951171875</ele>
        <time>2020-08-13T10:31:14.000Z</time>
      </trkpt>
      <trkpt lat="42.5124777853488922119140625" lon="1.1165253259241580963134765625">
        <ele>1958.800048828125</ele>
        <time>2020-08-13T10:31:17.000Z</time>
      </trkpt>
      <trkpt lat="42.5124457664787769317626953125" lon="1.11648718826472759246826171875">
        <ele>1959</ele>
        <time>2020-08-13T10:31:20.000Z</time>
      </trkpt>
      <trkpt lat="42.51238516531884670257568359375" lon="1.11641929484903812408447265625">
        <ele>1959.5999755859375</ele>
        <time>2020-08-13T10:31:25.000Z</time>
      </trkpt>
      <trkpt lat="42.51234845258295536041259765625" lon="1.1163828335702419281005859375">
        <ele>1960.4000244140625</ele>
        <time>2020-08-13T10:31:28.000Z</time>
      </trkpt>
      <trkpt lat="42.5123243965208530426025390625" lon="1.11635525710880756378173828125">
        <ele>1960.800048828125</ele>
        <time>2020-08-13T10:31:30.000Z</time>
      </trkpt>
      <trkpt lat="42.51224149949848651885986328125" lon="1.11629138700664043426513671875">
        <ele>1961.4000244140625</ele>
        <time>2020-08-13T10:31:36.000Z</time>
      </trkpt>
      <trkpt lat="42.51218835823237895965576171875" lon="1.116241514682769775390625">
        <ele>1961.4000244140625</ele>
        <time>2020-08-13T10:31:40.000Z</time>
      </trkpt>
      <trkpt lat="42.51215013675391674041748046875" lon="1.11620002426207065582275390625">
        <ele>1961.4000244140625</ele>
        <time>2020-08-13T10:31:43.000Z</time>
      </trkpt>
      <trkpt lat="42.51212063245475292205810546875" lon="1.116176135838031768798828125">
        <ele>1961.5999755859375</ele>
        <time>2020-08-13T10:31:45.000Z</time>
      </trkpt>
      <trkpt lat="42.512048967182636260986328125" lon="1.11609734594821929931640625">
        <ele>1962.5999755859375</ele>
        <time>2020-08-13T10:31:50.000Z</time>
      </trkpt>
      <trkpt lat="42.5120352208614349365234375" lon="1.11608016304671764373779296875">
        <ele>1962.5999755859375</ele>
        <time>2020-08-13T10:31:51.000Z</time>
      </trkpt>
      <trkpt lat="42.5119116716086864471435546875" lon="1.11592434346675872802734375">
        <ele>1963.199951171875</ele>
        <time>2020-08-13T10:32:00.000Z</time>
      </trkpt>
      <trkpt lat="42.5118301995098590850830078125" lon="1.11583038233220577239990234375">
        <ele>1963.4000244140625</ele>
        <time>2020-08-13T10:32:06.000Z</time>
      </trkpt>
      <trkpt lat="42.5118033774197101593017578125" lon="1.11580138094723224639892578125">
        <ele>1963.800048828125</ele>
        <time>2020-08-13T10:32:08.000Z</time>
      </trkpt>
      <trkpt lat="42.51171377487480640411376953125" lon="1.1157032288610935211181640625">
        <ele>1964.5999755859375</ele>
        <time>2020-08-13T10:32:15.000Z</time>
      </trkpt>
      <trkpt lat="42.51170338131487369537353515625" lon="1.1156878061592578887939453125">
        <ele>1964.5999755859375</ele>
        <time>2020-08-13T10:32:16.000Z</time>
      </trkpt>
      <trkpt lat="42.51162945292890071868896484375" lon="1.11558294855058193206787109375">
        <ele>1965.4000244140625</ele>
        <time>2020-08-13T10:32:23.000Z</time>
      </trkpt>
      <trkpt lat="42.511616460978984832763671875" lon="1.1155687831342220306396484375">
        <ele>1965.800048828125</ele>
        <time>2020-08-13T10:32:24.000Z</time>
      </trkpt>
      <trkpt lat="42.51153507269918918609619140625" lon="1.115502901375293731689453125">
        <ele>1966.199951171875</ele>
        <time>2020-08-13T10:32:30.000Z</time>
      </trkpt>
      <trkpt lat="42.51148059032857418060302734375" lon="1.11546610482037067413330078125">
        <ele>1966.5999755859375</ele>
        <time>2020-08-13T10:32:34.000Z</time>
      </trkpt>
      <trkpt lat="42.51143951900303363800048828125" lon="1.1154487542808055877685546875">
        <ele>1966.800048828125</ele>
        <time>2020-08-13T10:32:37.000Z</time>
      </trkpt>
      <trkpt lat="42.51135419122874736785888671875" lon="1.1154125444591045379638671875">
        <ele>1967.5999755859375</ele>
        <time>2020-08-13T10:32:43.000Z</time>
      </trkpt>
      <trkpt lat="42.5113135389983654022216796875" lon="1.11539469100534915924072265625">
        <ele>1968.199951171875</ele>
        <time>2020-08-13T10:32:46.000Z</time>
      </trkpt>
      <trkpt lat="42.5112132914364337921142578125" lon="1.11534959636628627777099609375">
        <ele>1968.4000244140625</ele>
        <time>2020-08-13T10:32:53.000Z</time>
      </trkpt>
      <trkpt lat="42.51119912602007389068603515625" lon="1.11534205265343189239501953125">
        <ele>1968.800048828125</ele>
        <time>2020-08-13T10:32:54.000Z</time>
      </trkpt>
      <trkpt lat="42.5111083500087261199951171875" lon="1.1153092794120311737060546875">
        <ele>1969.800048828125</ele>
        <time>2020-08-13T10:33:00.000Z</time>
      </trkpt>
      <trkpt lat="42.5110785104334354400634765625" lon="1.115293689072132110595703125">
        <ele>1970</ele>
        <time>2020-08-13T10:33:02.000Z</time>
      </trkpt>
      <trkpt lat="42.51093207858502864837646484375" lon="1.11520282924175262451171875">
        <ele>1970.800048828125</ele>
        <time>2020-08-13T10:33:12.000Z</time>
      </trkpt>
      <trkpt lat="42.51086452044546604156494140625" lon="1.11516050063073635101318359375">
        <ele>1971.5999755859375</ele>
        <time>2020-08-13T10:33:17.000Z</time>
      </trkpt>
      <trkpt lat="42.51082294620573520660400390625" lon="1.11513636074960231781005859375">
        <ele>1971.800048828125</ele>
        <time>2020-08-13T10:33:20.000Z</time>
      </trkpt>
      <trkpt lat="42.51073795370757579803466796875" lon="1.11508707515895366668701171875">
        <ele>1972</ele>
        <time>2020-08-13T10:33:26.000Z</time>
      </trkpt>
      <trkpt lat="42.5106847286224365234375" lon="1.11504189670085906982421875">
        <ele>1972.800048828125</ele>
        <time>2020-08-13T10:33:30.000Z</time>
      </trkpt>
      <trkpt lat="42.5106322579085826873779296875" lon="1.11499738879501819610595703125">
        <ele>1973.4000244140625</ele>
        <time>2020-08-13T10:33:34.000Z</time>
      </trkpt>
      <trkpt lat="42.5105920247733592987060546875" lon="1.11496302299201488494873046875">
        <ele>1973.800048828125</ele>
        <time>2020-08-13T10:33:37.000Z</time>
      </trkpt>
      <trkpt lat="42.510520108044147491455078125" lon="1.11488222144544124603271484375">
        <ele>1974.800048828125</ele>
        <time>2020-08-13T10:33:43.000Z</time>
      </trkpt>
      <trkpt lat="42.51049722544848918914794921875" lon="1.11485322006046772003173828125">
        <ele>1975</ele>
        <time>2020-08-13T10:33:45.000Z</time>
      </trkpt>
      <trkpt lat="42.51038767397403717041015625" lon="1.114719696342945098876953125">
        <ele>1975.199951171875</ele>
        <time>2020-08-13T10:33:54.000Z</time>
      </trkpt>
      <trkpt lat="42.51033713109791278839111328125" lon="1.11466546542942523956298828125">
        <ele>1975.800048828125</ele>
        <time>2020-08-13T10:33:58.000Z</time>
      </trkpt>
      <trkpt lat="42.51027778722345829010009765625" lon="1.1145891062915325164794921875">
        <ele>1976.4000244140625</ele>
        <time>2020-08-13T10:34:03.000Z</time>
      </trkpt>
      <trkpt lat="42.510231100022792816162109375" lon="1.11452314071357250213623046875">
        <ele>1976.800048828125</ele>
        <time>2020-08-13T10:34:07.000Z</time>
      </trkpt>
      <trkpt lat="42.51019028015434741973876953125" lon="1.1144523136317729949951171875">
        <ele>1977.199951171875</ele>
        <time>2020-08-13T10:34:11.000Z</time>
      </trkpt>
      <trkpt lat="42.5101335346698760986328125" lon="1.114361621439456939697265625">
        <ele>1977.800048828125</ele>
        <time>2020-08-13T10:34:16.000Z</time>
      </trkpt>
      <trkpt lat="42.51012079417705535888671875" lon="1.11432373523712158203125">
        <ele>1978.4000244140625</ele>
        <time>2020-08-13T10:34:18.000Z</time>
      </trkpt>
      <trkpt lat="42.5100978277623653411865234375" lon="1.11419255845248699188232421875">
        <ele>1978.800048828125</ele>
        <time>2020-08-13T10:34:25.000Z</time>
      </trkpt>
      <trkpt lat="42.51009958796203136444091796875" lon="1.1141763813793659210205078125">
        <ele>1979.199951171875</ele>
        <time>2020-08-13T10:34:26.000Z</time>
      </trkpt>
      <trkpt lat="42.51010478474199771881103515625" lon="1.11412734724581241607666015625">
        <ele>1979.4000244140625</ele>
        <time>2020-08-13T10:34:32.000Z</time>
      </trkpt>
      <trkpt lat="42.51010361127555370330810546875" lon="1.1141281016170978546142578125">
        <ele>1979.5999755859375</ele>
        <time>2020-08-13T10:34:36.000Z</time>
      </trkpt>
      <trkpt lat="42.5103117339313030242919921875" lon="1.11369651742279529571533203125">
        <ele>1980.199951171875</ele>
        <time>2020-08-13T10:45:39.000Z</time>
      </trkpt>
      <trkpt lat="42.51031651161611080169677734375" lon="1.11369450576603412628173828125">
        <ele>1980.199951171875</ele>
        <time>2020-08-13T10:45:41.000Z</time>
      </trkpt>
      <trkpt lat="42.51035054214298725128173828125" lon="1.1136704497039318084716796875">
        <ele>1980.4000244140625</ele>
        <time>2020-08-13T10:45:44.000Z</time>
      </trkpt>
      <trkpt lat="42.51046135090291500091552734375" lon="1.113602556288242340087890625">
        <ele>1980.5999755859375</ele>
        <time>2020-08-13T10:45:52.000Z</time>
      </trkpt>
      <trkpt lat="42.51054860651493072509765625" lon="1.11356391571462154388427734375">
        <ele>1981</ele>
        <time>2020-08-13T10:45:58.000Z</time>
      </trkpt>
      <trkpt lat="42.51056679524481296539306640625" lon="1.1135624907910823822021484375">
        <ele>1981</ele>
        <time>2020-08-13T10:45:59.000Z</time>
      </trkpt>
      <trkpt lat="42.5107117183506488800048828125" lon="1.11358855850994586944580078125">
        <ele>1981.5999755859375</ele>
        <time>2020-08-13T10:46:07.000Z</time>
      </trkpt>
      <trkpt lat="42.51086636446416378021240234375" lon="1.11367665231227874755859375">
        <ele>1982</ele>
        <time>2020-08-13T10:46:16.000Z</time>
      </trkpt>
      <trkpt lat="42.51099259592592716217041015625" lon="1.1137509159743785858154296875">
        <ele>1982.800048828125</ele>
        <time>2020-08-13T10:46:24.000Z</time>
      </trkpt>
      <trkpt lat="42.51102981157600879669189453125" lon="1.1137706972658634185791015625">
        <ele>1983</ele>
        <time>2020-08-13T10:46:26.000Z</time>
      </trkpt>
      <trkpt lat="42.5110905803740024566650390625" lon="1.11380481161177158355712890625">
        <ele>1983.4000244140625</ele>
        <time>2020-08-13T10:46:30.000Z</time>
      </trkpt>
      <trkpt lat="42.51121136359870433807373046875" lon="1.113913692533969879150390625">
        <ele>1983.4000244140625</ele>
        <time>2020-08-13T10:46:38.000Z</time>
      </trkpt>
      <trkpt lat="42.5112940929830074310302734375" lon="1.11401536501944065093994140625">
        <ele>1983.800048828125</ele>
        <time>2020-08-13T10:46:45.000Z</time>
      </trkpt>
      <trkpt lat="42.511307336390018463134765625" lon="1.1140248365700244903564453125">
        <ele>1984.199951171875</ele>
        <time>2020-08-13T10:46:46.000Z</time>
      </trkpt>
      <trkpt lat="42.51143767498433589935302734375" lon="1.11412986181676387786865234375">
        <ele>1984.5999755859375</ele>
        <time>2020-08-13T10:46:55.000Z</time>
      </trkpt>
      <trkpt lat="42.5115378387272357940673828125" lon="1.11420102417469024658203125">
        <ele>1985</ele>
        <time>2020-08-13T10:47:01.000Z</time>
      </trkpt>
      <trkpt lat="42.511603720486164093017578125" lon="1.1142410896718502044677734375">
        <ele>1985</ele>
        <time>2020-08-13T10:47:05.000Z</time>
      </trkpt>
      <trkpt lat="42.5117607973515987396240234375" lon="1.11430068500339984893798828125">
        <ele>1986.199951171875</ele>
        <time>2020-08-13T10:47:14.000Z</time>
      </trkpt>
      <trkpt lat="42.51177798025310039520263671875" lon="1.11430336721241474151611328125">
        <ele>1986.4000244140625</ele>
        <time>2020-08-13T10:47:15.000Z</time>
      </trkpt>
      <trkpt lat="42.51192265190184116363525390625" lon="1.11433136276900768280029296875">
        <ele>1987.4000244140625</ele>
        <time>2020-08-13T10:47:24.000Z</time>
      </trkpt>
      <trkpt lat="42.512095905840396881103515625" lon="1.1143621243536472320556640625">
        <ele>1987.800048828125</ele>
        <time>2020-08-13T10:47:34.000Z</time>
      </trkpt>
      <trkpt lat="42.512169666588306427001953125" lon="1.11436740495264530181884765625">
        <ele>1988.4000244140625</ele>
        <time>2020-08-13T10:47:38.000Z</time>
      </trkpt>
      <trkpt lat="42.512268908321857452392578125" lon="1.11436421982944011688232421875">
        <ele>1988.800048828125</ele>
        <time>2020-08-13T10:47:44.000Z</time>
      </trkpt>
      <trkpt lat="42.51232028938829898834228515625" lon="1.11436757259070873260498046875">
        <ele>1989.5999755859375</ele>
        <time>2020-08-13T10:47:47.000Z</time>
      </trkpt>
      <trkpt lat="42.51235566101968288421630859375" lon="1.11436589621007442474365234375">
        <ele>1989.800048828125</ele>
        <time>2020-08-13T10:47:49.000Z</time>
      </trkpt>
      <trkpt lat="42.5124078802764415740966796875" lon="1.11436866223812103271484375">
        <ele>1990.199951171875</ele>
        <time>2020-08-13T10:47:52.000Z</time>
      </trkpt>
      <trkpt lat="42.5125061161816120147705078125" lon="1.11438098363578319549560546875">
        <ele>1990.800048828125</ele>
        <time>2020-08-13T10:47:58.000Z</time>
      </trkpt>
      <trkpt lat="42.5125743448734283447265625" lon="1.11438475549221038818359375">
        <ele>1991</ele>
        <time>2020-08-13T10:48:02.000Z</time>
      </trkpt>
      <trkpt lat="42.51267165876924991607666015625" lon="1.11438098363578319549560546875">
        <ele>1991.800048828125</ele>
        <time>2020-08-13T10:48:08.000Z</time>
      </trkpt>
      <trkpt lat="42.51275606453418731689453125" lon="1.114371679723262786865234375">
        <ele>1992.4000244140625</ele>
        <time>2020-08-13T10:48:13.000Z</time>
      </trkpt>
      <trkpt lat="42.512857653200626373291015625" lon="1.11433991231024265289306640625">
        <ele>1992.800048828125</ele>
        <time>2020-08-13T10:48:19.000Z</time>
      </trkpt>
      <trkpt lat="42.5128745846450328826904296875" lon="1.1143353022634983062744140625">
        <ele>1993</ele>
        <time>2020-08-13T10:48:20.000Z</time>
      </trkpt>
      <trkpt lat="42.51301347278058528900146484375" lon="1.1142821609973907470703125">
        <ele>1993.4000244140625</ele>
        <time>2020-08-13T10:48:28.000Z</time>
      </trkpt>
      <trkpt lat="42.51317926682531833648681640625" lon="1.1142082326114177703857421875">
        <ele>1993.800048828125</ele>
        <time>2020-08-13T10:48:37.000Z</time>
      </trkpt>
      <trkpt lat="42.5131984613835811614990234375" lon="1.11419968307018280029296875">
        <ele>1994</ele>
        <time>2020-08-13T10:48:38.000Z</time>
      </trkpt>
      <trkpt lat="42.513327039778232574462890625" lon="1.11413505859673023223876953125">
        <ele>1995</ele>
        <time>2020-08-13T10:48:45.000Z</time>
      </trkpt>
      <trkpt lat="42.51336232759058475494384765625" lon="1.11411997117102146148681640625">
        <ele>1995</ele>
        <time>2020-08-13T10:48:47.000Z</time>
      </trkpt>
      <trkpt lat="42.5134911574423313140869140625" lon="1.1141156964004039764404296875">
        <ele>1995.800048828125</ele>
        <time>2020-08-13T10:48:54.000Z</time>
      </trkpt>
      <trkpt lat="42.5135706178843975067138671875" lon="1.11423052847385406494140625">
        <ele>1995.199951171875</ele>
        <time>2020-08-13T10:49:00.000Z</time>
      </trkpt>
      <trkpt lat="42.51367203891277313232421875" lon="1.11429448239505290985107421875">
        <ele>1995</ele>
        <time>2020-08-13T10:49:06.000Z</time>
      </trkpt>
      <trkpt lat="42.513781674206256866455078125" lon="1.114300601184368133544921875">
        <ele>1995.199951171875</ele>
        <time>2020-08-13T10:49:13.000Z</time>
      </trkpt>
      <trkpt lat="42.5138857774436473846435546875" lon="1.1143076419830322265625">
        <ele>1995.4000244140625</ele>
        <time>2020-08-13T10:49:19.000Z</time>
      </trkpt>
      <trkpt lat="42.5139719434082508087158203125" lon="1.11431292258203029632568359375">
        <ele>1995.800048828125</ele>
        <time>2020-08-13T10:49:27.000Z</time>
      </trkpt>
      <trkpt lat="42.513981498777866363525390625" lon="1.1143131740391254425048828125">
        <ele>1996</ele>
        <time>2020-08-13T10:49:28.000Z</time>
      </trkpt>
      <trkpt lat="42.51406439580023288726806640625" lon="1.11433907411992549896240234375">
        <ele>1996.199951171875</ele>
        <time>2020-08-13T10:49:34.000Z</time>
      </trkpt>
      <trkpt lat="42.51423974521458148956298828125" lon="1.11436991952359676361083984375">
        <ele>1996.5999755859375</ele>
        <time>2020-08-13T10:49:44.000Z</time>
      </trkpt>
      <trkpt lat="42.5144014321267604827880859375" lon="1.11433119513094425201416015625">
        <ele>1996.199951171875</ele>
        <time>2020-08-13T10:49:52.000Z</time>
      </trkpt>
      <trkpt lat="42.51452908851206302642822265625" lon="1.11426933668553829193115234375">
        <ele>1996.800048828125</ele>
        <time>2020-08-13T10:49:58.000Z</time>
      </trkpt>
      <trkpt lat="42.51458692364394664764404296875" lon="1.11422575078904628753662109375">
        <ele>1997.4000244140625</ele>
        <time>2020-08-13T10:50:01.000Z</time>
      </trkpt>
      <trkpt lat="42.51473343931138515472412109375" lon="1.11409348435699939727783203125">
        <ele>1997.800048828125</ele>
        <time>2020-08-13T10:50:09.000Z</time>
      </trkpt>
      <trkpt lat="42.514750622212886810302734375" lon="1.11407496035099029541015625">
        <ele>1997.800048828125</ele>
        <time>2020-08-13T10:50:10.000Z</time>
      </trkpt>
      <trkpt lat="42.51490828581154346466064453125" lon="1.1139135248959064483642578125">
        <ele>1998.4000244140625</ele>
        <time>2020-08-13T10:50:19.000Z</time>
      </trkpt>
      <trkpt lat="42.51502454280853271484375" lon="1.11378519795835018157958984375">
        <ele>1998.4000244140625</ele>
        <time>2020-08-13T10:50:26.000Z</time>
      </trkpt>
      <trkpt lat="42.5151383690536022186279296875" lon="1.11365385353565216064453125">
        <ele>1998.5999755859375</ele>
        <time>2020-08-13T10:50:33.000Z</time>
      </trkpt>
      <trkpt lat="42.51518304459750652313232421875" lon="1.11360180191695690155029296875">
        <ele>1999</ele>
        <time>2020-08-13T10:50:36.000Z</time>
      </trkpt>
      <trkpt lat="42.51526569016277790069580078125" lon="1.11347615718841552734375">
        <ele>1999.800048828125</ele>
        <time>2020-08-13T10:50:42.000Z</time>
      </trkpt>
      <trkpt lat="42.51531765796244144439697265625" lon="1.1133884824812412261962890625">
        <ele>2000</ele>
        <time>2020-08-13T10:50:46.000Z</time>
      </trkpt>
      <trkpt lat="42.5153831206262111663818359375" lon="1.1132583953440189361572265625">
        <ele>2000.199951171875</ele>
        <time>2020-08-13T10:50:51.000Z</time>
      </trkpt>
      <trkpt lat="42.5154216773808002471923828125" lon="1.1131752468645572662353515625">
        <ele>2000.5999755859375</ele>
        <time>2020-08-13T10:50:54.000Z</time>
      </trkpt>
      <trkpt lat="42.515523433685302734375" lon="1.1129982210695743560791015625">
        <ele>2000.199951171875</ele>
        <time>2020-08-13T10:51:01.000Z</time>
      </trkpt>
      <trkpt lat="42.5155588053166866302490234375" lon="1.11292471177875995635986328125">
        <ele>2000.5999755859375</ele>
        <time>2020-08-13T10:51:04.000Z</time>
      </trkpt>
      <trkpt lat="42.51561152748763561248779296875" lon="1.11285279504954814910888671875">
        <ele>2001</ele>
        <time>2020-08-13T10:51:07.000Z</time>
      </trkpt>
      <trkpt lat="42.51574077643454074859619140625" lon="1.11266545951366424560546875">
        <ele>2001.199951171875</ele>
        <time>2020-08-13T10:51:15.000Z</time>
      </trkpt>
      <trkpt lat="42.5158461369574069976806640625" lon="1.11252640374004840850830078125">
        <ele>2001.199951171875</ele>
        <time>2020-08-13T10:51:22.000Z</time>
      </trkpt>
      <trkpt lat="42.515895254909992218017578125" lon="1.11247125081717967987060546875">
        <ele>2001.5999755859375</ele>
        <time>2020-08-13T10:51:25.000Z</time>
      </trkpt>
      <trkpt lat="42.5159504078328609466552734375" lon="1.11238894052803516387939453125">
        <ele>2001.800048828125</ele>
        <time>2020-08-13T10:51:29.000Z</time>
      </trkpt>
      <trkpt lat="42.51605275087058544158935546875" lon="1.11216698773205280303955078125">
        <ele>2002.199951171875</ele>
        <time>2020-08-13T10:51:38.000Z</time>
      </trkpt>
      <trkpt lat="42.5161041319370269775390625" lon="1.111978478729724884033203125">
        <ele>2002.199951171875</ele>
        <time>2020-08-13T10:51:45.000Z</time>
      </trkpt>
      <trkpt lat="42.516133300960063934326171875" lon="1.11174973659217357635498046875">
        <ele>2002.4000244140625</ele>
        <time>2020-08-13T10:51:52.000Z</time>
      </trkpt>
      <trkpt lat="42.51613573171198368072509765625" lon="1.11172257922589778900146484375">
        <ele>2002.800048828125</ele>
        <time>2020-08-13T10:51:53.000Z</time>
      </trkpt>
      <trkpt lat="42.5161519087851047515869140625" lon="1.11158042214810848236083984375">
        <ele>2003</ele>
        <time>2020-08-13T10:51:58.000Z</time>
      </trkpt>
      <trkpt lat="42.51615517772734165191650390625" lon="1.111320666968822479248046875">
        <ele>2002.800048828125</ele>
        <time>2020-08-13T10:52:05.000Z</time>
      </trkpt>
      <trkpt lat="42.51616490073502063751220703125" lon="1.11108404584228992462158203125">
        <ele>2001.800048828125</ele>
        <time>2020-08-13T10:52:11.000Z</time>
      </trkpt>
      <trkpt lat="42.51622424460947513580322265625" lon="1.110984385013580322265625">
        <ele>2001.4000244140625</ele>
        <time>2020-08-13T10:52:14.000Z</time>
      </trkpt>
      <trkpt lat="42.51629297621548175811767578125" lon="1.11089595593512058258056640625">
        <ele>2001</ele>
        <time>2020-08-13T10:52:17.000Z</time>
      </trkpt>
      <trkpt lat="42.5163480453193187713623046875" lon="1.11079051159322261810302734375">
        <ele>2000.4000244140625</ele>
        <time>2020-08-13T10:52:20.000Z</time>
      </trkpt>
      <trkpt lat="42.51639858819544315338134765625" lon="1.110637374222278594970703125">
        <ele>2000.4000244140625</ele>
        <time>2020-08-13T10:52:24.000Z</time>
      </trkpt>
      <trkpt lat="42.5165140070021152496337890625" lon="1.1102615296840667724609375">
        <ele>1999.4000244140625</ele>
        <time>2020-08-13T10:52:32.000Z</time>
      </trkpt>
      <trkpt lat="42.5165425054728984832763671875" lon="1.11017234623432159423828125">
        <ele>1998.5999755859375</ele>
        <time>2020-08-13T10:52:34.000Z</time>
      </trkpt>
      <trkpt lat="42.51655407249927520751953125" lon="1.11012968234717845916748046875">
        <ele>1998.199951171875</ele>
        <time>2020-08-13T10:52:35.000Z</time>
      </trkpt>
      <trkpt lat="42.51659489236772060394287109375" lon="1.10985584557056427001953125">
        <ele>1997</ele>
        <time>2020-08-13T10:52:41.000Z</time>
      </trkpt>
      <trkpt lat="42.5166702456772327423095703125" lon="1.10956759192049503326416015625">
        <ele>1996.5999755859375</ele>
        <time>2020-08-13T10:52:48.000Z</time>
      </trkpt>
      <trkpt lat="42.51671860925853252410888671875" lon="1.1094060726463794708251953125">
        <ele>1995.800048828125</ele>
        <time>2020-08-13T10:52:52.000Z</time>
      </trkpt>
      <trkpt lat="42.516738474369049072265625" lon="1.10935620032250881195068359375">
        <ele>1995.199951171875</ele>
        <time>2020-08-13T10:52:54.000Z</time>
      </trkpt>
      <trkpt lat="42.5167398154735565185546875" lon="1.109353937208652496337890625">
        <ele>1995</ele>
        <time>2020-08-13T10:52:55.000Z</time>
      </trkpt>
      <trkpt lat="42.51674040220677852630615234375" lon="1.10935586504638195037841796875">
        <ele>1994.800048828125</ele>
        <time>2020-08-13T10:52:57.000Z</time>
      </trkpt>
      <trkpt lat="42.51674124039709568023681640625" lon="1.10935653559863567352294921875">
        <ele>1994.4000244140625</ele>
        <time>2020-08-13T10:53:01.000Z</time>
      </trkpt>
      <trkpt lat="42.51675716601312160491943359375" lon="1.10930272378027439117431640625">
        <ele>1994.199951171875</ele>
        <time>2020-08-13T10:53:11.000Z</time>
      </trkpt>
      <trkpt lat="42.5168060325086116790771484375" lon="1.10913055948913097381591796875">
        <ele>1993.5999755859375</ele>
        <time>2020-08-13T10:53:16.000Z</time>
      </trkpt>
      <trkpt lat="42.51690032891929149627685546875" lon="1.10882344655692577362060546875">
        <ele>1993.199951171875</ele>
        <time>2020-08-13T10:53:23.000Z</time>
      </trkpt>
      <trkpt lat="42.5169143266975879669189453125" lon="1.10874080099165439605712890625">
        <ele>1992.4000244140625</ele>
        <time>2020-08-13T10:53:25.000Z</time>
      </trkpt>
      <trkpt lat="42.51692363061010837554931640625" lon="1.10857668332755565643310546875">
        <ele>1991.5999755859375</ele>
        <time>2020-08-13T10:53:29.000Z</time>
      </trkpt>
      <trkpt lat="42.51692765392363071441650390625" lon="1.10853410325944423675537109375">
        <ele>1991.199951171875</ele>
        <time>2020-08-13T10:53:30.000Z</time>
      </trkpt>
      <trkpt lat="42.51695548184216022491455078125" lon="1.108409464359283447265625">
        <ele>1990.5999755859375</ele>
        <time>2020-08-13T10:53:33.000Z</time>
      </trkpt>
      <trkpt lat="42.51696000806987285614013671875" lon="1.108307205140590667724609375">
        <ele>1990</ele>
        <time>2020-08-13T10:53:36.000Z</time>
      </trkpt>
      <trkpt lat="42.5169575773179531097412109375" lon="1.1082316003739833831787109375">
        <ele>1989.199951171875</ele>
        <time>2020-08-13T10:53:38.000Z</time>
      </trkpt>
      <trkpt lat="42.5169569067656993865966796875" lon="1.10819547437131404876708984375">
        <ele>1988.800048828125</ele>
        <time>2020-08-13T10:53:39.000Z</time>
      </trkpt>
      <trkpt lat="42.516943998634815216064453125" lon="1.10809304751455783843994140625">
        <ele>1988.5999755859375</ele>
        <time>2020-08-13T10:53:43.000Z</time>
      </trkpt>
      <trkpt lat="42.51693385653197765350341796875" lon="1.1078926362097263336181640625">
        <ele>1987.800048828125</ele>
        <time>2020-08-13T10:53:49.000Z</time>
      </trkpt>
      <trkpt lat="42.516935281455516815185546875" lon="1.10785634256899356842041015625">
        <ele>1987.5999755859375</ele>
        <time>2020-08-13T10:53:50.000Z</time>
      </trkpt>
      <trkpt lat="42.516946680843830108642578125" lon="1.10768099315464496612548828125">
        <ele>1986.4000244140625</ele>
        <time>2020-08-13T10:53:55.000Z</time>
      </trkpt>
      <trkpt lat="42.51696973107755184173583984375" lon="1.1075429432094097137451171875">
        <ele>1985.5999755859375</ele>
        <time>2020-08-13T10:53:59.000Z</time>
      </trkpt>
      <trkpt lat="42.51697249710559844970703125" lon="1.10750732012093067169189453125">
        <ele>1985.4000244140625</ele>
        <time>2020-08-13T10:54:00.000Z</time>
      </trkpt>
      <trkpt lat="42.516974844038486480712890625" lon="1.10727882944047451019287109375">
        <ele>1984.5999755859375</ele>
        <time>2020-08-13T10:54:06.000Z</time>
      </trkpt>
      <trkpt lat="42.5169750116765499114990234375" lon="1.1072375066578388214111328125">
        <ele>1984.199951171875</ele>
        <time>2020-08-13T10:54:07.000Z</time>
      </trkpt>
      <trkpt lat="42.516978196799755096435546875" lon="1.10706391744315624237060546875">
        <ele>1983.4000244140625</ele>
        <time>2020-08-13T10:54:11.000Z</time>
      </trkpt>
      <trkpt lat="42.5169827230274677276611328125" lon="1.107021085917949676513671875">
        <ele>1983</ele>
        <time>2020-08-13T10:54:12.000Z</time>
      </trkpt>
      <trkpt lat="42.516979873180389404296875" lon="1.10683274455368518829345703125">
        <ele>1981.800048828125</ele>
        <time>2020-08-13T10:54:16.000Z</time>
      </trkpt>
      <trkpt lat="42.51697978936135768890380859375" lon="1.10678245313465595245361328125">
        <ele>1981.5999755859375</ele>
        <time>2020-08-13T10:54:17.000Z</time>
      </trkpt>
      <trkpt lat="42.51698833890259265899658203125" lon="1.10662085004150867462158203125">
        <ele>1980.5999755859375</ele>
        <time>2020-08-13T10:54:21.000Z</time>
      </trkpt>
      <trkpt lat="42.516988925635814666748046875" lon="1.10658296383917331695556640625">
        <ele>1980.5999755859375</ele>
        <time>2020-08-13T10:54:22.000Z</time>
      </trkpt>
      <trkpt lat="42.51698867417871952056884765625" lon="1.1063674651086330413818359375">
        <ele>1980.199951171875</ele>
        <time>2020-08-13T10:54:27.000Z</time>
      </trkpt>
      <trkpt lat="42.51698833890259265899658203125" lon="1.10623679123818874359130859375">
        <ele>1979.5999755859375</ele>
        <time>2020-08-13T10:54:30.000Z</time>
      </trkpt>
      <trkpt lat="42.5169957987964153289794921875" lon="1.10615163110196590423583984375">
        <ele>1979.199951171875</ele>
        <time>2020-08-13T10:54:32.000Z</time>
      </trkpt>
      <trkpt lat="42.51704215072095394134521484375" lon="1.10589715652167797088623046875">
        <ele>1978.800048828125</ele>
        <time>2020-08-13T10:54:38.000Z</time>
      </trkpt>
      <trkpt lat="42.5170470960438251495361328125" lon="1.105852983891963958740234375">
        <ele>1978.199951171875</ele>
        <time>2020-08-13T10:54:39.000Z</time>
      </trkpt>
      <trkpt lat="42.51706897281110286712646484375" lon="1.1057233996689319610595703125">
        <ele>1977</ele>
        <time>2020-08-13T10:54:42.000Z</time>
      </trkpt>
      <trkpt lat="42.5170766003429889678955078125" lon="1.10563077963888645172119140625">
        <ele>1976.4000244140625</ele>
        <time>2020-08-13T10:54:44.000Z</time>
      </trkpt>
      <trkpt lat="42.51707919873297214508056640625" lon="1.10558836720883846282958984375">
        <ele>1976</ele>
        <time>2020-08-13T10:54:45.000Z</time>
      </trkpt>
      <trkpt lat="42.51713879406452178955078125" lon="1.1054320447146892547607421875">
        <ele>1975.199951171875</ele>
        <time>2020-08-13T10:54:49.000Z</time>
      </trkpt>
      <trkpt lat="42.5171584077179431915283203125" lon="1.10539424233138561248779296875">
        <ele>1975</ele>
        <time>2020-08-13T10:54:50.000Z</time>
      </trkpt>
      <trkpt lat="42.51720744185149669647216796875" lon="1.10526884905993938446044921875">
        <ele>1974.199951171875</ele>
        <time>2020-08-13T10:54:53.000Z</time>
      </trkpt>
      <trkpt lat="42.5172252953052520751953125" lon="1.10521973110735416412353515625">
        <ele>1973.800048828125</ele>
        <time>2020-08-13T10:54:54.000Z</time>
      </trkpt>
      <trkpt lat="42.5172774307429790496826171875" lon="1.10503700561821460723876953125">
        <ele>1972.5999755859375</ele>
        <time>2020-08-13T10:54:58.000Z</time>
      </trkpt>
      <trkpt lat="42.5172884948551654815673828125" lon="1.10499157570302486419677734375">
        <ele>1972.4000244140625</ele>
        <time>2020-08-13T10:54:59.000Z</time>
      </trkpt>
      <trkpt lat="42.51738153398036956787109375" lon="1.10476434230804443359375">
        <ele>1971.4000244140625</ele>
        <time>2020-08-13T10:55:04.000Z</time>
      </trkpt>
      <trkpt lat="42.51740165054798126220703125" lon="1.1047256179153919219970703125">
        <ele>1971.199951171875</ele>
        <time>2020-08-13T10:55:05.000Z</time>
      </trkpt>
      <trkpt lat="42.517493851482868194580078125" lon="1.104562841355800628662109375">
        <ele>1970.199951171875</ele>
        <time>2020-08-13T10:55:10.000Z</time>
      </trkpt>
      <trkpt lat="42.51750634051859378814697265625" lon="1.10453912056982517242431640625">
        <ele>1970.199951171875</ele>
        <time>2020-08-13T10:55:11.000Z</time>
      </trkpt>
      <trkpt lat="42.51757197082042694091796875" lon="1.104446835815906524658203125">
        <ele>1969.4000244140625</ele>
        <time>2020-08-13T10:55:14.000Z</time>
      </trkpt>
      <trkpt lat="42.5176070071756839752197265625" lon="1.1043846420943737030029296875">
        <ele>1968.800048828125</ele>
        <time>2020-08-13T10:55:16.000Z</time>
      </trkpt>
      <trkpt lat="42.51763743348419666290283203125" lon="1.10433493740856647491455078125">
        <ele>1968.4000244140625</ele>
        <time>2020-08-13T10:55:18.000Z</time>
      </trkpt>
      <trkpt lat="42.5177230127155780792236328125" lon="1.10420283861458301544189453125">
        <ele>1968</ele>
        <time>2020-08-13T10:55:22.000Z</time>
      </trkpt>
      <trkpt lat="42.51779652200639247894287109375" lon="1.1041060276329517364501953125">
        <ele>1967</ele>
        <time>2020-08-13T10:55:25.000Z</time>
      </trkpt>
      <trkpt lat="42.517826445400714874267578125" lon="1.10404618084430694580078125">
        <ele>1966.5999755859375</ele>
        <time>2020-08-13T10:55:27.000Z</time>
      </trkpt>
      <trkpt lat="42.51787799410521984100341796875" lon="1.1039564944803714752197265625">
        <ele>1965.800048828125</ele>
        <time>2020-08-13T10:55:30.000Z</time>
      </trkpt>
      <trkpt lat="42.51792090944945812225341796875" lon="1.1038797162473201751708984375">
        <ele>1964.800048828125</ele>
        <time>2020-08-13T10:55:33.000Z</time>
      </trkpt>
      <trkpt lat="42.5179342366755008697509765625" lon="1.10384895466268062591552734375">
        <ele>1964.5999755859375</ele>
        <time>2020-08-13T10:55:34.000Z</time>
      </trkpt>
      <trkpt lat="42.5180090032517910003662109375" lon="1.103741414844989776611328125">
        <ele>1964</ele>
        <time>2020-08-13T10:55:38.000Z</time>
      </trkpt>
      <trkpt lat="42.5180680118501186370849609375" lon="1.10367469489574432373046875">
        <ele>1963.5999755859375</ele>
        <time>2020-08-13T10:55:41.000Z</time>
      </trkpt>
      <trkpt lat="42.51813665963709354400634765625" lon="1.1036171950399875640869140625">
        <ele>1963</ele>
        <time>2020-08-13T10:55:44.000Z</time>
      </trkpt>
      <trkpt lat="42.51817756332457065582275390625" lon="1.103583164513111114501953125">
        <ele>1962.5999755859375</ele>
        <time>2020-08-13T10:55:46.000Z</time>
      </trkpt>
      <trkpt lat="42.51825769431889057159423828125" lon="1.10350663773715496063232421875">
        <ele>1962.199951171875</ele>
        <time>2020-08-13T10:55:51.000Z</time>
      </trkpt>
      <trkpt lat="42.518296502530574798583984375" lon="1.103477887809276580810546875">
        <ele>1961.5999755859375</ele>
        <time>2020-08-13T10:55:54.000Z</time>
      </trkpt>
      <trkpt lat="42.5183130986988544464111328125" lon="1.103460453450679779052734375">
        <ele>1961.5999755859375</ele>
        <time>2020-08-13T10:55:56.000Z</time>
      </trkpt>
      <trkpt lat="42.5183198042213916778564453125" lon="1.10345651395618915557861328125">
        <ele>1961.199951171875</ele>
        <time>2020-08-13T10:56:08.000Z</time>
      </trkpt>
      <trkpt lat="42.518320642411708831787109375" lon="1.1034552566707134246826171875">
        <ele>1960.800048828125</ele>
        <time>2020-08-13T10:56:22.000Z</time>
      </trkpt>
      <trkpt lat="42.51832156442105770111083984375" lon="1.10345601104199886322021484375">
        <ele>1960.800048828125</ele>
        <time>2020-08-13T10:56:24.000Z</time>
      </trkpt>
      <trkpt lat="42.5183204747736454010009765625" lon="1.10345584340393543243408203125">
        <ele>1960.5999755859375</ele>
        <time>2020-08-13T10:56:38.000Z</time>
      </trkpt>
      <trkpt lat="42.5183204747736454010009765625" lon="1.10345567576587200164794921875">
        <ele>1960.800048828125</ele>
        <time>2020-08-13T10:56:40.000Z</time>
      </trkpt>
      <trkpt lat="42.51835048198699951171875" lon="1.1034245789051055908203125">
        <ele>1961</ele>
        <time>2020-08-13T11:07:58.000Z</time>
      </trkpt>
      <trkpt lat="42.5183543376624584197998046875" lon="1.10339599661529064178466796875">
        <ele>1961.199951171875</ele>
        <time>2020-08-13T11:08:02.000Z</time>
      </trkpt>
      <trkpt lat="42.5183533318340778350830078125" lon="1.10337973572313785552978515625">
        <ele>1961</ele>
        <time>2020-08-13T11:08:03.000Z</time>
      </trkpt>
      <trkpt lat="42.51834134571254253387451171875" lon="1.1032976768910884857177734375">
        <ele>1960.5999755859375</ele>
        <time>2020-08-13T11:08:07.000Z</time>
      </trkpt>
      <trkpt lat="42.51835274510085582733154296875" lon="1.1032530851662158966064453125">
        <ele>1960.5999755859375</ele>
        <time>2020-08-13T11:08:09.000Z</time>
      </trkpt>
      <trkpt lat="42.51838761381804943084716796875" lon="1.10316348262131214141845703125">
        <ele>1961.4000244140625</ele>
        <time>2020-08-13T11:08:14.000Z</time>
      </trkpt>
      <trkpt lat="42.51841477118432521820068359375" lon="1.10313649289309978485107421875">
        <ele>1961.5999755859375</ele>
        <time>2020-08-13T11:08:16.000Z</time>
      </trkpt>
      <trkpt lat="42.51846187748014926910400390625" lon="1.1030774004757404327392578125">
        <ele>1962</ele>
        <time>2020-08-13T11:08:20.000Z</time>
      </trkpt>
      <trkpt lat="42.51848232932388782501220703125" lon="1.10304999165236949920654296875">
        <ele>1962.199951171875</ele>
        <time>2020-08-13T11:08:22.000Z</time>
      </trkpt>
      <trkpt lat="42.51850537955760955810546875" lon="1.10302635468542575836181640625">
        <ele>1962.5999755859375</ele>
        <time>2020-08-13T11:08:24.000Z</time>
      </trkpt>
      <trkpt lat="42.51857922412455081939697265625" lon="1.1029282025992870330810546875">
        <ele>1963.4000244140625</ele>
        <time>2020-08-13T11:08:31.000Z</time>
      </trkpt>
      <trkpt lat="42.5185893662273883819580078125" lon="1.10291521064937114715576171875">
        <ele>1963.199951171875</ele>
        <time>2020-08-13T11:08:32.000Z</time>
      </trkpt>
      <trkpt lat="42.5186728499829769134521484375" lon="1.102811358869075775146484375">
        <ele>1964.199951171875</ele>
        <time>2020-08-13T11:08:40.000Z</time>
      </trkpt>
      <trkpt lat="42.518684752285480499267578125" lon="1.1027981154620647430419921875">
        <ele>1964.4000244140625</ele>
        <time>2020-08-13T11:08:41.000Z</time>
      </trkpt>
      <trkpt lat="42.5187702476978302001953125" lon="1.10270851291716098785400390625">
        <ele>1964.800048828125</ele>
        <time>2020-08-13T11:08:48.000Z</time>
      </trkpt>
      <trkpt lat="42.518835961818695068359375" lon="1.1026291362941265106201171875">
        <ele>1965</ele>
        <time>2020-08-13T11:08:54.000Z</time>
      </trkpt>
      <trkpt lat="42.5189008377492427825927734375" lon="1.10255026258528232574462890625">
        <ele>1965.199951171875</ele>
        <time>2020-08-13T11:09:00.000Z</time>
      </trkpt>
      <trkpt lat="42.51892522908747196197509765625" lon="1.102525703608989715576171875">
        <ele>1965.5999755859375</ele>
        <time>2020-08-13T11:09:02.000Z</time>
      </trkpt>
      <trkpt lat="42.518974430859088897705078125" lon="1.1024705506861209869384765625">
        <ele>1966.4000244140625</ele>
        <time>2020-08-13T11:09:07.000Z</time>
      </trkpt>
      <trkpt lat="42.518993876874446868896484375" lon="1.1024430580437183380126953125">
        <ele>1966.5999755859375</ele>
        <time>2020-08-13T11:09:09.000Z</time>
      </trkpt>
      <trkpt lat="42.51902799122035503387451171875" lon="1.10239134170114994049072265625">
        <ele>1967</ele>
        <time>2020-08-13T11:09:12.000Z</time>
      </trkpt>
      <trkpt lat="42.5191066972911357879638671875" lon="1.10232529230415821075439453125">
        <ele>1967.199951171875</ele>
        <time>2020-08-13T11:09:19.000Z</time>
      </trkpt>
      <trkpt lat="42.51913796178996562957763671875" lon="1.10229310579597949981689453125">
        <ele>1967.800048828125</ele>
        <time>2020-08-13T11:09:22.000Z</time>
      </trkpt>
      <trkpt lat="42.5191737525165081024169921875" lon="1.1022631824016571044921875">
        <ele>1968.800048828125</ele>
        <time>2020-08-13T11:09:25.000Z</time>
      </trkpt>
      <trkpt lat="42.519182302057743072509765625" lon="1.10225069336593151092529296875">
        <ele>1969</ele>
        <time>2020-08-13T11:09:26.000Z</time>
      </trkpt>
      <trkpt lat="42.5192488543689250946044921875" lon="1.102170981466770172119140625">
        <ele>1968.5999755859375</ele>
        <time>2020-08-13T11:09:32.000Z</time>
      </trkpt>
      <trkpt lat="42.5193055160343647003173828125" lon="1.10209646634757518768310546875">
        <ele>1969.4000244140625</ele>
        <time>2020-08-13T11:09:37.000Z</time>
      </trkpt>
      <trkpt lat="42.51933963038027286529541015625" lon="1.102048940956592559814453125">
        <ele>1969.4000244140625</ele>
        <time>2020-08-13T11:09:40.000Z</time>
      </trkpt>
      <trkpt lat="42.519383132457733154296875" lon="1.1020095460116863250732421875">
        <ele>1970</ele>
        <time>2020-08-13T11:09:43.000Z</time>
      </trkpt>
      <trkpt lat="42.519473321735858917236328125" lon="1.10192379914224147796630859375">
        <ele>1969.5999755859375</ele>
        <time>2020-08-13T11:09:49.000Z</time>
      </trkpt>
      <trkpt lat="42.519533671438694000244140625" lon="1.10185389406979084014892578125">
        <ele>1970.199951171875</ele>
        <time>2020-08-13T11:09:55.000Z</time>
      </trkpt>
      <trkpt lat="42.5196106173098087310791015625" lon="1.1017577536404132843017578125">
        <ele>1970.800048828125</ele>
        <time>2020-08-13T11:10:02.000Z</time>
      </trkpt>
      <trkpt lat="42.51965126954019069671630859375" lon="1.1017067916691303253173828125">
        <ele>1971.199951171875</ele>
        <time>2020-08-13T11:10:05.000Z</time>
      </trkpt>
      <trkpt lat="42.5196867249906063079833984375" lon="1.1016476154327392578125">
        <ele>1972.199951171875</ele>
        <time>2020-08-13T11:10:09.000Z</time>
      </trkpt>
      <trkpt lat="42.51973777078092098236083984375" lon="1.1015649698674678802490234375">
        <ele>1972.5999755859375</ele>
        <time>2020-08-13T11:10:14.000Z</time>
      </trkpt>
      <trkpt lat="42.51975453458726406097412109375" lon="1.10153052024543285369873046875">
        <ele>1972.800048828125</ele>
        <time>2020-08-13T11:10:16.000Z</time>
      </trkpt>
      <trkpt lat="42.5198154710233211517333984375" lon="1.10145558603107929229736328125">
        <ele>1973.199951171875</ele>
        <time>2020-08-13T11:10:22.000Z</time>
      </trkpt>
      <trkpt lat="42.5198875553905963897705078125" lon="1.1013279296457767486572265625">
        <ele>1974.4000244140625</ele>
        <time>2020-08-13T11:10:30.000Z</time>
      </trkpt>
      <trkpt lat="42.5199375115334987640380859375" lon="1.1012313701212406158447265625">
        <ele>1975.5999755859375</ele>
        <time>2020-08-13T11:10:36.000Z</time>
      </trkpt>
      <trkpt lat="42.51994430087506771087646484375" lon="1.101214103400707244873046875">
        <ele>1975.5999755859375</ele>
        <time>2020-08-13T11:10:37.000Z</time>
      </trkpt>
      <trkpt lat="42.5199861265718936920166015625" lon="1.10109147615730762481689453125">
        <ele>1975.800048828125</ele>
        <time>2020-08-13T11:10:44.000Z</time>
      </trkpt>
      <trkpt lat="42.52003884874284267425537109375" lon="1.100992821156978607177734375">
        <ele>1975.4000244140625</ele>
        <time>2020-08-13T11:10:50.000Z</time>
      </trkpt>
      <trkpt lat="42.520068772137165069580078125" lon="1.10092953778803348541259765625">
        <ele>1974.4000244140625</ele>
        <time>2020-08-13T11:10:54.000Z</time>
      </trkpt>
      <trkpt lat="42.5200813449919223785400390625" lon="1.1008944176137447357177734375">
        <ele>1974</ele>
        <time>2020-08-13T11:10:56.000Z</time>
      </trkpt>
      <trkpt lat="42.52011445350944995880126953125" lon="1.10080297105014324188232421875">
        <ele>1975.800048828125</ele>
        <time>2020-08-13T11:11:01.000Z</time>
      </trkpt>
      <trkpt lat="42.5201225839555263519287109375" lon="1.10076575540006160736083984375">
        <ele>1976.5999755859375</ele>
        <time>2020-08-13T11:11:03.000Z</time>
      </trkpt>
      <trkpt lat="42.52013037912547588348388671875" lon="1.10074949450790882110595703125">
        <ele>1976.800048828125</ele>
        <time>2020-08-13T11:11:04.000Z</time>
      </trkpt>
      <trkpt lat="42.5201745517551898956298828125" lon="1.1006607301533222198486328125">
        <ele>1977.4000244140625</ele>
        <time>2020-08-13T11:11:09.000Z</time>
      </trkpt>
      <trkpt lat="42.5201876275241374969482421875" lon="1.10064405016601085662841796875">
        <ele>1977.4000244140625</ele>
        <time>2020-08-13T11:11:10.000Z</time>
      </trkpt>
      <trkpt lat="42.5202105939388275146484375" lon="1.10061697661876678466796875">
        <ele>1977.800048828125</ele>
        <time>2020-08-13T11:11:12.000Z</time>
      </trkpt>
      <trkpt lat="42.5202590413391590118408203125" lon="1.10053759999573230743408203125">
        <ele>1978.4000244140625</ele>
        <time>2020-08-13T11:11:17.000Z</time>
      </trkpt>
      <trkpt lat="42.52031025476753711700439453125" lon="1.1004337482154369354248046875">
        <ele>1979</ele>
        <time>2020-08-13T11:11:23.000Z</time>
      </trkpt>
      <trkpt lat="42.520360462367534637451171875" lon="1.10032729804515838623046875">
        <ele>1979.5999755859375</ele>
        <time>2020-08-13T11:11:29.000Z</time>
      </trkpt>
      <trkpt lat="42.52040765248239040374755859375" lon="1.1002220213413238525390625">
        <ele>1980</ele>
        <time>2020-08-13T11:11:35.000Z</time>
      </trkpt>
      <trkpt lat="42.52043799497187137603759765625" lon="1.10015454702079296112060546875">
        <ele>1980.4000244140625</ele>
        <time>2020-08-13T11:11:39.000Z</time>
      </trkpt>
      <trkpt lat="42.52046498470008373260498046875" lon="1.100083552300930023193359375">
        <ele>1981</ele>
        <time>2020-08-13T11:11:43.000Z</time>
      </trkpt>
      <trkpt lat="42.52050505019724369049072265625" lon="1.1000072769820690155029296875">
        <ele>1981.199951171875</ele>
        <time>2020-08-13T11:11:47.000Z</time>
      </trkpt>
      <trkpt lat="42.52061569131910800933837890625" lon="1.09983980655670166015625">
        <ele>1981.800048828125</ele>
        <time>2020-08-13T11:11:57.000Z</time>
      </trkpt>
      <trkpt lat="42.5206338800489902496337890625" lon="1.09980418346822261810302734375">
        <ele>1981.800048828125</ele>
        <time>2020-08-13T11:11:59.000Z</time>
      </trkpt>
      <trkpt lat="42.52063681371510028839111328125" lon="1.099785156548023223876953125">
        <ele>1982</ele>
        <time>2020-08-13T11:12:00.000Z</time>
      </trkpt>
      <trkpt lat="42.520657517015933990478515625" lon="1.09972740523517131805419921875">
        <ele>1982.5999755859375</ele>
        <time>2020-08-13T11:12:03.000Z</time>
      </trkpt>
      <trkpt lat="42.5207264162600040435791015625" lon="1.09956429339945316314697265625">
        <ele>1982.4000244140625</ele>
        <time>2020-08-13T11:12:11.000Z</time>
      </trkpt>
      <trkpt lat="42.5207787193357944488525390625" lon="1.09944091178476810455322265625">
        <ele>1983.199951171875</ele>
        <time>2020-08-13T11:12:17.000Z</time>
      </trkpt>
      <trkpt lat="42.5208015181124210357666015625" lon="1.0994047857820987701416015625">
        <ele>1983.199951171875</ele>
        <time>2020-08-13T11:12:19.000Z</time>
      </trkpt>
      <trkpt lat="42.5208139233291149139404296875" lon="1.099386177957057952880859375">
        <ele>1983.199951171875</ele>
        <time>2020-08-13T11:12:20.000Z</time>
      </trkpt>
      <trkpt lat="42.52084937877953052520751953125" lon="1.0992824099957942962646484375">
        <ele>1983.800048828125</ele>
        <time>2020-08-13T11:12:25.000Z</time>
      </trkpt>
      <trkpt lat="42.52092984504997730255126953125" lon="1.099142767488956451416015625">
        <ele>1983.800048828125</ele>
        <time>2020-08-13T11:12:32.000Z</time>
      </trkpt>
      <trkpt lat="42.5209503807127475738525390625" lon="1.09910664148628711700439453125">
        <ele>1984.199951171875</ele>
        <time>2020-08-13T11:12:34.000Z</time>
      </trkpt>
      <trkpt lat="42.52098835073411464691162109375" lon="1.0990269295871257781982421875">
        <ele>1984.800048828125</ele>
        <time>2020-08-13T11:12:38.000Z</time>
      </trkpt>
      <trkpt lat="42.5209929607808589935302734375" lon="1.0990084894001483917236328125">
        <ele>1984.800048828125</ele>
        <time>2020-08-13T11:12:39.000Z</time>
      </trkpt>
      <trkpt lat="42.52100377343595027923583984375" lon="1.0989887081086635589599609375">
        <ele>1984.800048828125</ele>
        <time>2020-08-13T11:12:40.000Z</time>
      </trkpt>
      <trkpt lat="42.52103470265865325927734375" lon="1.098926849663257598876953125">
        <ele>1984.800048828125</ele>
        <time>2020-08-13T11:12:43.000Z</time>
      </trkpt>
      <trkpt lat="42.521071918308734893798828125" lon="1.09886281192302703857421875">
        <ele>1985.199951171875</ele>
        <time>2020-08-13T11:12:46.000Z</time>
      </trkpt>
      <trkpt lat="42.5210982374846935272216796875" lon="1.09880019910633563995361328125">
        <ele>1985.199951171875</ele>
        <time>2020-08-13T11:12:49.000Z</time>
      </trkpt>
      <trkpt lat="42.52110502682626247406005859375" lon="1.09877723269164562225341796875">
        <ele>1985.199951171875</ele>
        <time>2020-08-13T11:12:50.000Z</time>
      </trkpt>
      <trkpt lat="42.52115380950272083282470703125" lon="1.0986262746155261993408203125">
        <ele>1985.4000244140625</ele>
        <time>2020-08-13T11:12:57.000Z</time>
      </trkpt>
      <trkpt lat="42.52121617086231708526611328125" lon="1.0984811000525951385498046875">
        <ele>1986.199951171875</ele>
        <time>2020-08-13T11:13:04.000Z</time>
      </trkpt>
      <trkpt lat="42.52123720943927764892578125" lon="1.09843902289867401123046875">
        <ele>1986.4000244140625</ele>
        <time>2020-08-13T11:13:06.000Z</time>
      </trkpt>
      <trkpt lat="42.5212673842906951904296875" lon="1.0983714647591114044189453125">
        <ele>1986.5999755859375</ele>
        <time>2020-08-13T11:13:09.000Z</time>
      </trkpt>
      <trkpt lat="42.52133100293576717376708984375" lon="1.09819301404058933258056640625">
        <ele>1987.199951171875</ele>
        <time>2020-08-13T11:13:17.000Z</time>
      </trkpt>
      <trkpt lat="42.5213520415127277374267578125" lon="1.0981397889554500579833984375">
        <ele>1987.4000244140625</ele>
        <time>2020-08-13T11:13:19.000Z</time>
      </trkpt>
      <trkpt lat="42.52143845893442630767822265625" lon="1.0980425588786602020263671875">
        <ele>1987.5999755859375</ele>
        <time>2020-08-13T11:13:24.000Z</time>
      </trkpt>
      <trkpt lat="42.5215208530426025390625" lon="1.0979302413761615753173828125">
        <ele>1988.4000244140625</ele>
        <time>2020-08-13T11:13:30.000Z</time>
      </trkpt>
      <trkpt lat="42.52153971232473850250244140625" lon="1.09788715839385986328125">
        <ele>1988.5999755859375</ele>
        <time>2020-08-13T11:13:32.000Z</time>
      </trkpt>
      <trkpt lat="42.52158455550670623779296875" lon="1.09777777455747127532958984375">
        <ele>1988.4000244140625</ele>
        <time>2020-08-13T11:13:37.000Z</time>
      </trkpt>
      <trkpt lat="42.5216008163988590240478515625" lon="1.09772932715713977813720703125">
        <ele>1988.4000244140625</ele>
        <time>2020-08-13T11:13:39.000Z</time>
      </trkpt>
      <trkpt lat="42.5216608308255672454833984375" lon="1.09761198051273822784423828125">
        <ele>1988.800048828125</ele>
        <time>2020-08-13T11:13:44.000Z</time>
      </trkpt>
      <trkpt lat="42.52175009809434413909912109375" lon="1.09740494750440120697021484375">
        <ele>1989.4000244140625</ele>
        <time>2020-08-13T11:13:53.000Z</time>
      </trkpt>
      <trkpt lat="42.52176132984459400177001953125" lon="1.09738365747034549713134765625">
        <ele>1989.5999755859375</ele>
        <time>2020-08-13T11:13:54.000Z</time>
      </trkpt>
      <trkpt lat="42.52190566621720790863037109375" lon="1.097163297235965728759765625">
        <ele>1989.4000244140625</ele>
        <time>2020-08-13T11:14:05.000Z</time>
      </trkpt>
      <trkpt lat="42.5219924189150333404541015625" lon="1.0970320366322994232177734375">
        <ele>1990.199951171875</ele>
        <time>2020-08-13T11:14:12.000Z</time>
      </trkpt>
      <trkpt lat="42.52201865427196025848388671875" lon="1.09699373133480548858642578125">
        <ele>1990.4000244140625</ele>
        <time>2020-08-13T11:14:14.000Z</time>
      </trkpt>
      <trkpt lat="42.5220323167741298675537109375" lon="1.09697378240525722503662109375">
        <ele>1990.4000244140625</ele>
        <time>2020-08-13T11:14:15.000Z</time>
      </trkpt>
      <trkpt lat="42.52212627790868282318115234375" lon="1.09680497087538242340087890625">
        <ele>1991.4000244140625</ele>
        <time>2020-08-13T11:14:23.000Z</time>
      </trkpt>
      <trkpt lat="42.522219233214855194091796875" lon="1.0966166295111179351806640625">
        <ele>1991.4000244140625</ele>
        <time>2020-08-13T11:14:30.000Z</time>
      </trkpt>
      <trkpt lat="42.5223454646766185760498046875" lon="1.09639559872448444366455078125">
        <ele>1991.199951171875</ele>
        <time>2020-08-13T11:14:39.000Z</time>
      </trkpt>
      <trkpt lat="42.5223672576248645782470703125" lon="1.0961504280567169189453125">
        <ele>1991.5999755859375</ele>
        <time>2020-08-13T11:14:47.000Z</time>
      </trkpt>
      <trkpt lat="42.52235929481685161590576171875" lon="1.0959853045642375946044921875">
        <ele>1991.5999755859375</ele>
        <time>2020-08-13T11:14:53.000Z</time>
      </trkpt>
      <trkpt lat="42.52238075248897075653076171875" lon="1.0957814566791057586669921875">
        <ele>1991.5999755859375</ele>
        <time>2020-08-13T11:15:00.000Z</time>
      </trkpt>
      <trkpt lat="42.52243506722152233123779296875" lon="1.09561038203537464141845703125">
        <ele>1992.4000244140625</ele>
        <time>2020-08-13T11:15:06.000Z</time>
      </trkpt>
      <trkpt lat="42.5224591232836246490478515625" lon="1.09556059353053569793701171875">
        <ele>1992.4000244140625</ele>
        <time>2020-08-13T11:15:08.000Z</time>
      </trkpt>
      <trkpt lat="42.52255828119814395904541015625" lon="1.095402427017688751220703125">
        <ele>1993.5999755859375</ele>
        <time>2020-08-13T11:15:16.000Z</time>
      </trkpt>
      <trkpt lat="42.52264729700982570648193359375" lon="1.0952748544514179229736328125">
        <ele>1994.199951171875</ele>
        <time>2020-08-13T11:15:24.000Z</time>
      </trkpt>
      <trkpt lat="42.52272558398544788360595703125" lon="1.095115430653095245361328125">
        <ele>1993.199951171875</ele>
        <time>2020-08-13T11:15:32.000Z</time>
      </trkpt>
      <trkpt lat="42.52281694673001766204833984375" lon="1.09503890387713909149169921875">
        <ele>1993.800048828125</ele>
        <time>2020-08-13T11:15:38.000Z</time>
      </trkpt>
      <trkpt lat="42.52294284291565418243408203125" lon="1.0949922166764736175537109375">
        <ele>1993.800048828125</ele>
        <time>2020-08-13T11:15:46.000Z</time>
      </trkpt>
      <trkpt lat="42.52300688065588474273681640625" lon="1.09497486613690853118896484375">
        <ele>1994.5999755859375</ele>
        <time>2020-08-13T11:15:50.000Z</time>
      </trkpt>
      <trkpt lat="42.52309304662048816680908203125" lon="1.0949479602277278900146484375">
        <ele>1995.199951171875</ele>
        <time>2020-08-13T11:15:55.000Z</time>
      </trkpt>
      <trkpt lat="42.52315674908459186553955078125" lon="1.09493312425911426544189453125">
        <ele>1995.800048828125</ele>
        <time>2020-08-13T11:15:59.000Z</time>
      </trkpt>
      <trkpt lat="42.52317803911864757537841796875" lon="1.094923652708530426025390625">
        <ele>1996.199951171875</ele>
        <time>2020-08-13T11:16:02.000Z</time>
      </trkpt>
      <trkpt lat="42.52318725921213626861572265625" lon="1.09492021612823009490966796875">
        <ele>1996.4000244140625</ele>
        <time>2020-08-13T11:16:03.000Z</time>
      </trkpt>
      <trkpt lat="42.5232339464128017425537109375" lon="1.09490521252155303955078125">
        <ele>1996.4000244140625</ele>
        <time>2020-08-13T11:16:06.000Z</time>
      </trkpt>
      <trkpt lat="42.52325146459043025970458984375" lon="1.09489859081804752349853515625">
        <ele>1996.4000244140625</ele>
        <time>2020-08-13T11:16:07.000Z</time>
      </trkpt>
      <trkpt lat="42.5233989022672176361083984375" lon="1.09485869295895099639892578125">
        <ele>1996.5999755859375</ele>
        <time>2020-08-13T11:16:16.000Z</time>
      </trkpt>
      <trkpt lat="42.52341357059776782989501953125" lon="1.09485383145511150360107421875">
        <ele>1997</ele>
        <time>2020-08-13T11:16:17.000Z</time>
      </trkpt>
      <trkpt lat="42.5234585814177989959716796875" lon="1.09483304433524608612060546875">
        <ele>1998.199951171875</ele>
        <time>2020-08-13T11:16:20.000Z</time>
      </trkpt>
      <trkpt lat="42.52351968549191951751708984375" lon="1.09481091611087322235107421875">
        <ele>1998.800048828125</ele>
        <time>2020-08-13T11:16:24.000Z</time>
      </trkpt>
      <trkpt lat="42.5235950388014316558837890625" lon="1.094775460660457611083984375">
        <ele>1999</ele>
        <time>2020-08-13T11:16:29.000Z</time>
      </trkpt>
      <trkpt lat="42.52365052700042724609375" lon="1.09474436379969120025634765625">
        <ele>1999.199951171875</ele>
        <time>2020-08-13T11:16:33.000Z</time>
      </trkpt>
      <trkpt lat="42.52372118644416332244873046875" lon="1.094694323837757110595703125">
        <ele>2000.199951171875</ele>
        <time>2020-08-13T11:16:38.000Z</time>
      </trkpt>
      <trkpt lat="42.52376041375100612640380859375" lon="1.0946612991392612457275390625">
        <ele>2000.4000244140625</ele>
        <time>2020-08-13T11:16:41.000Z</time>
      </trkpt>
      <trkpt lat="42.523868791759014129638671875" lon="1.09459768049418926239013671875">
        <ele>2001</ele>
        <time>2020-08-13T11:16:49.000Z</time>
      </trkpt>
      <trkpt lat="42.5238823704421520233154296875" lon="1.09459164552390575408935546875">
        <ele>2001.199951171875</ele>
        <time>2020-08-13T11:16:50.000Z</time>
      </trkpt>
      <trkpt lat="42.5239638425409793853759765625" lon="1.09456029720604419708251953125">
        <ele>2002.199951171875</ele>
        <time>2020-08-13T11:16:56.000Z</time>
      </trkpt>
      <trkpt lat="42.524003572762012481689453125" lon="1.0945422761142253875732421875">
        <ele>2002.5999755859375</ele>
        <time>2020-08-13T11:16:59.000Z</time>
      </trkpt>
      <trkpt lat="42.52404020167887210845947265625" lon="1.09451503492891788482666015625">
        <ele>2003.199951171875</ele>
        <time>2020-08-13T11:17:02.000Z</time>
      </trkpt>
      <trkpt lat="42.52409149892628192901611328125" lon="1.09448586590588092803955078125">
        <ele>2003.5999755859375</ele>
        <time>2020-08-13T11:17:06.000Z</time>
      </trkpt>
      <trkpt lat="42.5241046585142612457275390625" lon="1.09447740018367767333984375">
        <ele>2003.5999755859375</ele>
        <time>2020-08-13T11:17:07.000Z</time>
      </trkpt>
      <trkpt lat="42.52419794909656047821044921875" lon="1.0944142006337642669677734375">
        <ele>2004.5999755859375</ele>
        <time>2020-08-13T11:17:14.000Z</time>
      </trkpt>
      <trkpt lat="42.5242116115987300872802734375" lon="1.09440623782575130462646484375">
        <ele>2005</ele>
        <time>2020-08-13T11:17:15.000Z</time>
      </trkpt>
      <trkpt lat="42.52426684834063053131103515625" lon="1.0943655855953693389892578125">
        <ele>2005.5999755859375</ele>
        <time>2020-08-13T11:17:19.000Z</time>
      </trkpt>
      <trkpt lat="42.5243366695940494537353515625" lon="1.094328872859477996826171875">
        <ele>2006.199951171875</ele>
        <time>2020-08-13T11:17:24.000Z</time>
      </trkpt>
      <trkpt lat="42.524401210248470306396484375" lon="1.09428436495363712310791015625">
        <ele>2006.800048828125</ele>
        <time>2020-08-13T11:17:29.000Z</time>
      </trkpt>
      <trkpt lat="42.52446650527417659759521484375" lon="1.0942361690104007720947265625">
        <ele>2007.4000244140625</ele>
        <time>2020-08-13T11:17:34.000Z</time>
      </trkpt>
      <trkpt lat="42.52449265681207180023193359375" lon="1.09421378932893276214599609375">
        <ele>2007.800048828125</ele>
        <time>2020-08-13T11:17:36.000Z</time>
      </trkpt>
      <trkpt lat="42.52456759102642536163330078125" lon="1.094143800437450408935546875">
        <ele>2008.5999755859375</ele>
        <time>2020-08-13T11:17:42.000Z</time>
      </trkpt>
      <trkpt lat="42.5245814211666584014892578125" lon="1.094134412705898284912109375">
        <ele>2008.5999755859375</ele>
        <time>2020-08-13T11:17:43.000Z</time>
      </trkpt>
      <trkpt lat="42.5246679224073886871337890625" lon="1.0940517671406269073486328125">
        <ele>2009.199951171875</ele>
        <time>2020-08-13T11:17:50.000Z</time>
      </trkpt>
      <trkpt lat="42.5246950797736644744873046875" lon="1.0940316505730152130126953125">
        <ele>2009.4000244140625</ele>
        <time>2020-08-13T11:17:52.000Z</time>
      </trkpt>
      <trkpt lat="42.52473154105246067047119140625" lon="1.093996278941631317138671875">
        <ele>2009.800048828125</ele>
        <time>2020-08-13T11:17:55.000Z</time>
      </trkpt>
      <trkpt lat="42.5247815810143947601318359375" lon="1.0939525254070758819580078125">
        <ele>2009.800048828125</ele>
        <time>2020-08-13T11:17:59.000Z</time>
      </trkpt>
      <trkpt lat="42.52489230595529079437255859375" lon="1.09384783543646335601806640625">
        <ele>2010.800048828125</ele>
        <time>2020-08-13T11:18:08.000Z</time>
      </trkpt>
      <trkpt lat="42.5249032862484455108642578125" lon="1.09383442439138889312744140625">
        <ele>2010.800048828125</ele>
        <time>2020-08-13T11:18:09.000Z</time>
      </trkpt>
      <trkpt lat="42.52496321685612201690673828125" lon="1.0937443189322948455810546875">
        <ele>2011.800048828125</ele>
        <time>2020-08-13T11:18:15.000Z</time>
      </trkpt>
      <trkpt lat="42.52500881440937519073486328125" lon="1.0936621762812137603759765625">
        <ele>2012.4000244140625</ele>
        <time>2020-08-13T11:18:20.000Z</time>
      </trkpt>
      <trkpt lat="42.5250310264527797698974609375" lon="1.0936075262725353240966796875">
        <ele>2012.800048828125</ele>
        <time>2020-08-13T11:18:23.000Z</time>
      </trkpt>
      <trkpt lat="42.52505474723875522613525390625" lon="1.0935545526444911956787109375">
        <ele>2014</ele>
        <time>2020-08-13T11:18:26.000Z</time>
      </trkpt>
      <trkpt lat="42.5250850059092044830322265625" lon="1.0934843122959136962890625">
        <ele>2014.800048828125</ele>
        <time>2020-08-13T11:18:30.000Z</time>
      </trkpt>
      <trkpt lat="42.52509548328816890716552734375" lon="1.0934700630605220794677734375">
        <ele>2015</ele>
        <time>2020-08-13T11:18:31.000Z</time>
      </trkpt>
      <trkpt lat="42.52517611719667911529541015625" lon="1.09337358735501766204833984375">
        <ele>2016.199951171875</ele>
        <time>2020-08-13T11:18:38.000Z</time>
      </trkpt>
      <trkpt lat="42.52520830370485782623291015625" lon="1.093328408896923065185546875">
        <ele>2017.4000244140625</ele>
        <time>2020-08-13T11:18:41.000Z</time>
      </trkpt>
      <trkpt lat="42.5252181105315685272216796875" lon="1.09331357292830944061279296875">
        <ele>2017.4000244140625</ele>
        <time>2020-08-13T11:18:42.000Z</time>
      </trkpt>
      <trkpt lat="42.5253032706677913665771484375" lon="1.09320125542581081390380859375">
        <ele>2017</ele>
        <time>2020-08-13T11:18:50.000Z</time>
      </trkpt>
      <trkpt lat="42.52537158317863941192626953125" lon="1.093100421130657196044921875">
        <ele>2018</ele>
        <time>2020-08-13T11:18:57.000Z</time>
      </trkpt>
      <trkpt lat="42.52538256347179412841796875" lon="1.0930881835520267486572265625">
        <ele>2018.199951171875</ele>
        <time>2020-08-13T11:18:58.000Z</time>
      </trkpt>
      <trkpt lat="42.52548716962337493896484375" lon="1.09295717440545558929443359375">
        <ele>2018.800048828125</ele>
        <time>2020-08-13T11:19:08.000Z</time>
      </trkpt>
      <trkpt lat="42.52555531449615955352783203125" lon="1.09283178113400936126708984375">
        <ele>2019.199951171875</ele>
        <time>2020-08-13T11:19:16.000Z</time>
      </trkpt>
      <trkpt lat="42.525564618408679962158203125" lon="1.0928166098892688751220703125">
        <ele>2019.4000244140625</ele>
        <time>2020-08-13T11:19:17.000Z</time>
      </trkpt>
      <trkpt lat="42.525612898170948028564453125" lon="1.0927106626331806182861328125">
        <ele>2020.5999755859375</ele>
        <time>2020-08-13T11:19:24.000Z</time>
      </trkpt>
      <trkpt lat="42.5256187655031681060791015625" lon="1.09269465319812297821044921875">
        <ele>2020.800048828125</ele>
        <time>2020-08-13T11:19:25.000Z</time>
      </trkpt>
      <trkpt lat="42.52567031420767307281494140625" lon="1.09256624244153499603271484375">
        <ele>2021.5999755859375</ele>
        <time>2020-08-13T11:19:33.000Z</time>
      </trkpt>
      <trkpt lat="42.52567651681602001190185546875" lon="1.09255065210163593292236328125">
        <ele>2021.5999755859375</ele>
        <time>2020-08-13T11:19:34.000Z</time>
      </trkpt>
      <trkpt lat="42.52568808384239673614501953125" lon="1.0925182141363620758056640625">
        <ele>2023</ele>
        <time>2020-08-13T11:19:36.000Z</time>
      </trkpt>
      <trkpt lat="42.5257200188934803009033203125" lon="1.09243582002818584442138671875">
        <ele>2023.800048828125</ele>
        <time>2020-08-13T11:19:41.000Z</time>
      </trkpt>
      <trkpt lat="42.52576410770416259765625" lon="1.092318557202816009521484375">
        <ele>2023.4000244140625</ele>
        <time>2020-08-13T11:19:48.000Z</time>
      </trkpt>
      <trkpt lat="42.525787241756916046142578125" lon="1.09224890358746051788330078125">
        <ele>2023.800048828125</ele>
        <time>2020-08-13T11:19:52.000Z</time>
      </trkpt>
      <trkpt lat="42.5258216075599193572998046875" lon="1.0921624861657619476318359375">
        <ele>2024.5999755859375</ele>
        <time>2020-08-13T11:19:57.000Z</time>
      </trkpt>
      <trkpt lat="42.5258393771946430206298828125" lon="1.09213055111467838287353515625">
        <ele>2024.800048828125</ele>
        <time>2020-08-13T11:19:59.000Z</time>
      </trkpt>
      <trkpt lat="42.525877095758914947509765625" lon="1.09202158637344837188720703125">
        <ele>2025.4000244140625</ele>
        <time>2020-08-13T11:20:05.000Z</time>
      </trkpt>
      <trkpt lat="42.525891177356243133544921875" lon="1.09198621474206447601318359375">
        <ele>2026</ele>
        <time>2020-08-13T11:20:07.000Z</time>
      </trkpt>
      <trkpt lat="42.5259597413241863250732421875" lon="1.091869957745075225830078125">
        <ele>2026.5999755859375</ele>
        <time>2020-08-13T11:20:14.000Z</time>
      </trkpt>
      <trkpt lat="42.52599544823169708251953125" lon="1.0917972028255462646484375">
        <ele>2027</ele>
        <time>2020-08-13T11:20:18.000Z</time>
      </trkpt>
      <trkpt lat="42.5260308198630809783935546875" lon="1.0917252860963344573974609375">
        <ele>2027.5999755859375</ele>
        <time>2020-08-13T11:20:22.000Z</time>
      </trkpt>
      <trkpt lat="42.52609628252685070037841796875" lon="1.09158958308398723602294921875">
        <ele>2027.800048828125</ele>
        <time>2020-08-13T11:20:30.000Z</time>
      </trkpt>
      <trkpt lat="42.5261267088353633880615234375" lon="1.09146737493574619293212890625">
        <ele>2027.800048828125</ele>
        <time>2020-08-13T11:20:37.000Z</time>
      </trkpt>
      <trkpt lat="42.5261320732533931732177734375" lon="1.09143015928566455841064453125">
        <ele>2027.800048828125</ele>
        <time>2020-08-13T11:20:39.000Z</time>
      </trkpt>
      <trkpt lat="42.5261585600674152374267578125" lon="1.0913135670125484466552734375">
        <ele>2028.199951171875</ele>
        <time>2020-08-13T11:20:45.000Z</time>
      </trkpt>
      <trkpt lat="42.5261894054710865020751953125" lon="1.09124458394944667816162109375">
        <ele>2029</ele>
        <time>2020-08-13T11:20:49.000Z</time>
      </trkpt>
      <trkpt lat="42.5262256152927875518798828125" lon="1.091174595057964324951171875">
        <ele>2030</ele>
        <time>2020-08-13T11:20:53.000Z</time>
      </trkpt>
      <trkpt lat="42.52623617649078369140625" lon="1.0911590047180652618408203125">
        <ele>2030</ele>
        <time>2020-08-13T11:20:54.000Z</time>
      </trkpt>
      <trkpt lat="42.52633474767208099365234375" lon="1.09101072885096073150634765625">
        <ele>2030.800048828125</ele>
        <time>2020-08-13T11:21:03.000Z</time>
      </trkpt>
      <trkpt lat="42.52634346485137939453125" lon="1.0909917019307613372802734375">
        <ele>2031</ele>
        <time>2020-08-13T11:21:04.000Z</time>
      </trkpt>
      <trkpt lat="42.52641228027641773223876953125" lon="1.09083588235080242156982421875">
        <ele>2032</ele>
        <time>2020-08-13T11:21:12.000Z</time>
      </trkpt>
      <trkpt lat="42.5265084207057952880859375" lon="1.090586520731449127197265625">
        <ele>2033</ele>
        <time>2020-08-13T11:21:24.000Z</time>
      </trkpt>
      <trkpt lat="42.526517808437347412109375" lon="1.09056699089705944061279296875">
        <ele>2033.199951171875</ele>
        <time>2020-08-13T11:21:25.000Z</time>
      </trkpt>
      <trkpt lat="42.526604644954204559326171875" lon="1.090371608734130859375">
        <ele>2034.199951171875</ele>
        <time>2020-08-13T11:21:35.000Z</time>
      </trkpt>
      <trkpt lat="42.52661746926605701446533203125" lon="1.09032802283763885498046875">
        <ele>2035</ele>
        <time>2020-08-13T11:21:37.000Z</time>
      </trkpt>
      <trkpt lat="42.52662417478859424591064453125" lon="1.090305559337139129638671875">
        <ele>2035.199951171875</ele>
        <time>2020-08-13T11:21:38.000Z</time>
      </trkpt>
      <trkpt lat="42.5266537629067897796630859375" lon="1.090196929872035980224609375">
        <ele>2035.4000244140625</ele>
        <time>2020-08-13T11:21:43.000Z</time>
      </trkpt>
      <trkpt lat="42.52667094580829143524169921875" lon="1.09013088047504425048828125">
        <ele>2036.199951171875</ele>
        <time>2020-08-13T11:21:46.000Z</time>
      </trkpt>
      <trkpt lat="42.52671293914318084716796875" lon="1.0900301299989223480224609375">
        <ele>2037.5999755859375</ele>
        <time>2020-08-13T11:21:51.000Z</time>
      </trkpt>
      <trkpt lat="42.52676256000995635986328125" lon="1.0899727977812290191650390625">
        <ele>2038.5999755859375</ele>
        <time>2020-08-13T11:21:55.000Z</time>
      </trkpt>
      <trkpt lat="42.526819892227649688720703125" lon="1.089926697313785552978515625">
        <ele>2039.800048828125</ele>
        <time>2020-08-13T11:21:59.000Z</time>
      </trkpt>
      <trkpt lat="42.52688485197722911834716796875" lon="1.089903898537158966064453125">
        <ele>2041.199951171875</ele>
        <time>2020-08-13T11:22:03.000Z</time>
      </trkpt>
      <trkpt lat="42.52697017975151538848876953125" lon="1.08981681056320667266845703125">
        <ele>2041.199951171875</ele>
        <time>2020-08-13T11:22:10.000Z</time>
      </trkpt>
      <trkpt lat="42.52704955637454986572265625" lon="1.0896717198193073272705078125">
        <ele>2041.800048828125</ele>
        <time>2020-08-13T11:22:18.000Z</time>
      </trkpt>
      <trkpt lat="42.52707612700760364532470703125" lon="1.08963676728308200836181640625">
        <ele>2042.199951171875</ele>
        <time>2020-08-13T11:22:20.000Z</time>
      </trkpt>
      <trkpt lat="42.5271157734096050262451171875" lon="1.08959469012916088104248046875">
        <ele>2043.199951171875</ele>
        <time>2020-08-13T11:22:23.000Z</time>
      </trkpt>
      <trkpt lat="42.52715826965868473052978515625" lon="1.08956032432615756988525390625">
        <ele>2043.5999755859375</ele>
        <time>2020-08-13T11:22:26.000Z</time>
      </trkpt>
      <trkpt lat="42.5273223035037517547607421875" lon="1.089495532214641571044921875">
        <ele>2044.199951171875</ele>
        <time>2020-08-13T11:22:36.000Z</time>
      </trkpt>
      <trkpt lat="42.52741039730608463287353515625" lon="1.0894511081278324127197265625">
        <ele>2044.5999755859375</ele>
        <time>2020-08-13T11:22:42.000Z</time>
      </trkpt>
      <trkpt lat="42.52742464654147624969482421875" lon="1.0894390381872653961181640625">
        <ele>2045</ele>
        <time>2020-08-13T11:22:43.000Z</time>
      </trkpt>
      <trkpt lat="42.52745096571743488311767578125" lon="1.08941204845905303955078125">
        <ele>2045.800048828125</ele>
        <time>2020-08-13T11:22:45.000Z</time>
      </trkpt>
      <trkpt lat="42.52752958796918392181396484375" lon="1.08934541232883930206298828125">
        <ele>2046</ele>
        <time>2020-08-13T11:22:51.000Z</time>
      </trkpt>
      <trkpt lat="42.5276000797748565673828125" lon="1.08930149115622043609619140625">
        <ele>2046.800048828125</ele>
        <time>2020-08-13T11:22:56.000Z</time>
      </trkpt>
      <trkpt lat="42.52766638062894344329833984375" lon="1.08927525579929351806640625">
        <ele>2047.800048828125</ele>
        <time>2020-08-13T11:23:00.000Z</time>
      </trkpt>
      <trkpt lat="42.52768255770206451416015625" lon="1.08926611952483654022216796875">
        <ele>2048</ele>
        <time>2020-08-13T11:23:01.000Z</time>
      </trkpt>
      <trkpt lat="42.52777417190372943878173828125" lon="1.0892445780336856842041015625">
        <ele>2049</ele>
        <time>2020-08-13T11:23:07.000Z</time>
      </trkpt>
      <trkpt lat="42.527882046997547149658203125" lon="1.0891775228083133697509765625">
        <ele>2050</ele>
        <time>2020-08-13T11:23:15.000Z</time>
      </trkpt>
      <trkpt lat="42.5278946198523044586181640625" lon="1.08916520141065120697021484375">
        <ele>2050.199951171875</ele>
        <time>2020-08-13T11:23:16.000Z</time>
      </trkpt>
      <trkpt lat="42.5279992260038852691650390625" lon="1.08907953836023807525634765625">
        <ele>2050.800048828125</ele>
        <time>2020-08-13T11:23:24.000Z</time>
      </trkpt>
      <trkpt lat="42.5281095318496227264404296875" lon="1.08901080675423145294189453125">
        <ele>2051</ele>
        <time>2020-08-13T11:23:32.000Z</time>
      </trkpt>
      <trkpt lat="42.52813660539686679840087890625" lon="1.088991276919841766357421875">
        <ele>2050.60009765625</ele>
        <time>2020-08-13T11:23:34.000Z</time>
      </trkpt>
      <trkpt lat="42.52821640111505985260009765625" lon="1.08894173987209796905517578125">
        <ele>2052.199951171875</ele>
        <time>2020-08-13T11:23:40.000Z</time>
      </trkpt>
      <trkpt lat="42.5282533653080463409423828125" lon="1.088918186724185943603515625">
        <ele>2052.199951171875</ele>
        <time>2020-08-13T11:23:43.000Z</time>
      </trkpt>
      <trkpt lat="42.528369538486003875732421875" lon="1.08885557390749454498291015625">
        <ele>2053.199951171875</ele>
        <time>2020-08-13T11:23:51.000Z</time>
      </trkpt>
      <trkpt lat="42.52838504500687122344970703125" lon="1.08884937129914760589599609375">
        <ele>2053.199951171875</ele>
        <time>2020-08-13T11:23:52.000Z</time>
      </trkpt>
      <trkpt lat="42.52851127646863460540771484375" lon="1.0888342000544071197509765625">
        <ele>2053.199951171875</ele>
        <time>2020-08-13T11:24:00.000Z</time>
      </trkpt>
      <trkpt lat="42.52859476022422313690185546875" lon="1.08882330358028411865234375">
        <ele>2054.199951171875</ele>
        <time>2020-08-13T11:24:06.000Z</time>
      </trkpt>
      <trkpt lat="42.5286380946636199951171875" lon="1.08881953172385692596435546875">
        <ele>2054.39990234375</ele>
        <time>2020-08-13T11:24:09.000Z</time>
      </trkpt>
      <trkpt lat="42.52874043770134449005126953125" lon="1.088800169527530670166015625">
        <ele>2055.199951171875</ele>
        <time>2020-08-13T11:24:16.000Z</time>
      </trkpt>
      <trkpt lat="42.5287542678415775299072265625" lon="1.08879983425140380859375">
        <ele>2055.199951171875</ele>
        <time>2020-08-13T11:24:17.000Z</time>
      </trkpt>
      <trkpt lat="42.52886851318180561065673828125" lon="1.08879421837627887725830078125">
        <ele>2056.39990234375</ele>
        <time>2020-08-13T11:24:25.000Z</time>
      </trkpt>
      <trkpt lat="42.52889818511903285980224609375" lon="1.0887909494340419769287109375">
        <ele>2056.60009765625</ele>
        <time>2020-08-13T11:24:27.000Z</time>
      </trkpt>
      <trkpt lat="42.52902911044657230377197265625" lon="1.08876974321901798248291015625">
        <ele>2057.39990234375</ele>
        <time>2020-08-13T11:24:36.000Z</time>
      </trkpt>
      <trkpt lat="42.52904285676777362823486328125" lon="1.0887701623141765594482421875">
        <ele>2057.60009765625</ele>
        <time>2020-08-13T11:24:37.000Z</time>
      </trkpt>
      <trkpt lat="42.52917227335274219512939453125" lon="1.088730432093143463134765625">
        <ele>2058.199951171875</ele>
        <time>2020-08-13T11:24:46.000Z</time>
      </trkpt>
      <trkpt lat="42.5291857682168483734130859375" lon="1.08872414566576480865478515625">
        <ele>2058.39990234375</ele>
        <time>2020-08-13T11:24:47.000Z</time>
      </trkpt>
      <trkpt lat="42.52924234606325626373291015625" lon="1.088704280555248260498046875">
        <ele>2059.39990234375</ele>
        <time>2020-08-13T11:24:51.000Z</time>
      </trkpt>
      <trkpt lat="42.52928576432168483734130859375" lon="1.08868910931050777435302734375">
        <ele>2059.60009765625</ele>
        <time>2020-08-13T11:24:54.000Z</time>
      </trkpt>
      <trkpt lat="42.52932935021817684173583984375" lon="1.08867578208446502685546875">
        <ele>2060.60009765625</ele>
        <time>2020-08-13T11:24:57.000Z</time>
      </trkpt>
      <trkpt lat="42.529387436807155609130859375" lon="1.08866413123905658721923828125">
        <ele>2061.39990234375</ele>
        <time>2020-08-13T11:25:01.000Z</time>
      </trkpt>
      <trkpt lat="42.52941668964922428131103515625" lon="1.08865843154489994049072265625">
        <ele>2061.800048828125</ele>
        <time>2020-08-13T11:25:03.000Z</time>
      </trkpt>
      <trkpt lat="42.52954929135739803314208984375" lon="1.08866178430616855621337890625">
        <ele>2062.199951171875</ele>
        <time>2020-08-13T11:25:12.000Z</time>
      </trkpt>
      <trkpt lat="42.5296383909881114959716796875" lon="1.0886326991021633148193359375">
        <ele>2062.39990234375</ele>
        <time>2020-08-13T11:25:18.000Z</time>
      </trkpt>
      <trkpt lat="42.5296786241233348846435546875" lon="1.08861836604773998260498046875">
        <ele>2063.60009765625</ele>
        <time>2020-08-13T11:25:21.000Z</time>
      </trkpt>
      <trkpt lat="42.5297631137073040008544921875" lon="1.08859623782336711883544921875">
        <ele>2064.60009765625</ele>
        <time>2020-08-13T11:25:27.000Z</time>
      </trkpt>
      <trkpt lat="42.5297919474542140960693359375" lon="1.08858634717762470245361328125">
        <ele>2064.60009765625</ele>
        <time>2020-08-13T11:25:29.000Z</time>
      </trkpt>
      <trkpt lat="42.52992832101881504058837890625" lon="1.0885436832904815673828125">
        <ele>2065.39990234375</ele>
        <time>2020-08-13T11:25:38.000Z</time>
      </trkpt>
      <trkpt lat="42.52995908260345458984375" lon="1.088539324700832366943359375">
        <ele>2065.60009765625</ele>
        <time>2020-08-13T11:25:40.000Z</time>
      </trkpt>
      <trkpt lat="42.5300380401313304901123046875" lon="1.08853002078831195831298828125">
        <ele>2066.800048828125</ele>
        <time>2020-08-13T11:25:45.000Z</time>
      </trkpt>
      <trkpt lat="42.5300534628331661224365234375" lon="1.0885290987789630889892578125">
        <ele>2066.800048828125</ele>
        <time>2020-08-13T11:25:46.000Z</time>
      </trkpt>
      <trkpt lat="42.53014616668224334716796875" lon="1.08852432109415531158447265625">
        <ele>2067.60009765625</ele>
        <time>2020-08-13T11:25:52.000Z</time>
      </trkpt>
      <trkpt lat="42.5301741622388362884521484375" lon="1.088520549237728118896484375">
        <ele>2067.800048828125</ele>
        <time>2020-08-13T11:25:54.000Z</time>
      </trkpt>
      <trkpt lat="42.5302286446094512939453125" lon="1.08850546181201934814453125">
        <ele>2068.60009765625</ele>
        <time>2020-08-13T11:25:58.000Z</time>
      </trkpt>
      <trkpt lat="42.5302988849580287933349609375" lon="1.0884892009198665618896484375">
        <ele>2069</ele>
        <time>2020-08-13T11:26:03.000Z</time>
      </trkpt>
      <trkpt lat="42.53038697876036167144775390625" lon="1.08846615068614482879638671875">
        <ele>2069.60009765625</ele>
        <time>2020-08-13T11:26:09.000Z</time>
      </trkpt>
      <trkpt lat="42.53045923076570034027099609375" lon="1.088453829288482666015625">
        <ele>2070.39990234375</ele>
        <time>2020-08-13T11:26:14.000Z</time>
      </trkpt>
      <trkpt lat="42.53048948943614959716796875" lon="1.0884496383368968963623046875">
        <ele>2070.800048828125</ele>
        <time>2020-08-13T11:26:16.000Z</time>
      </trkpt>
      <trkpt lat="42.53058043308556079864501953125" lon="1.08843195252120494842529296875">
        <ele>2072</ele>
        <time>2020-08-13T11:26:22.000Z</time>
      </trkpt>
      <trkpt lat="42.53061094321310520172119140625" lon="1.088428013026714324951171875">
        <ele>2072.39990234375</ele>
        <time>2020-08-13T11:26:24.000Z</time>
      </trkpt>
      <trkpt lat="42.53063927404582500457763671875" lon="1.08842642046511173248291015625">
        <ele>2073.199951171875</ele>
        <time>2020-08-13T11:26:26.000Z</time>
      </trkpt>
      <trkpt lat="42.53070901148021221160888671875" lon="1.08840244822204113006591796875">
        <ele>2074.39990234375</ele>
        <time>2020-08-13T11:26:31.000Z</time>
      </trkpt>
      <trkpt lat="42.53072208724915981292724609375" lon="1.0883956588804721832275390625">
        <ele>2074.39990234375</ele>
        <time>2020-08-13T11:26:32.000Z</time>
      </trkpt>
      <trkpt lat="42.53085234202444553375244140625" lon="1.0883389972150325775146484375">
        <ele>2073.800048828125</ele>
        <time>2020-08-13T11:26:41.000Z</time>
      </trkpt>
      <trkpt lat="42.53096281550824642181396484375" lon="1.08821636997163295745849609375">
        <ele>2074.39990234375</ele>
        <time>2020-08-13T11:26:50.000Z</time>
      </trkpt>
      <trkpt lat="42.5310653261840343475341796875" lon="1.08808242715895175933837890625">
        <ele>2075.199951171875</ele>
        <time>2020-08-13T11:26:59.000Z</time>
      </trkpt>
      <trkpt lat="42.53114151768386363983154296875" lon="1.0879856161773204803466796875">
        <ele>2076.199951171875</ele>
        <time>2020-08-13T11:27:06.000Z</time>
      </trkpt>
      <trkpt lat="42.5311796553432941436767578125" lon="1.087924428284168243408203125">
        <ele>2076.60009765625</ele>
        <time>2020-08-13T11:27:10.000Z</time>
      </trkpt>
      <trkpt lat="42.53124243579804897308349609375" lon="1.08781420625746250152587890625">
        <ele>2077.39990234375</ele>
        <time>2020-08-13T11:27:17.000Z</time>
      </trkpt>
      <trkpt lat="42.53128032200038433074951171875" lon="1.08775469474494457244873046875">
        <ele>2078.199951171875</ele>
        <time>2020-08-13T11:27:21.000Z</time>
      </trkpt>
      <trkpt lat="42.5313278473913669586181640625" lon="1.0876785032451152801513671875">
        <ele>2078.800048828125</ele>
        <time>2020-08-13T11:27:26.000Z</time>
      </trkpt>
      <trkpt lat="42.5313684158027172088623046875" lon="1.0876208357512950897216796875">
        <ele>2079</ele>
        <time>2020-08-13T11:27:32.000Z</time>
      </trkpt>
      <trkpt lat="42.53136816434562206268310546875" lon="1.0876228474080562591552734375">
        <ele>2079.39990234375</ele>
        <time>2020-08-13T11:27:42.000Z</time>
      </trkpt>
      <trkpt lat="42.53136799670755863189697265625" lon="1.08762293122708797454833984375">
        <ele>2079.60009765625</ele>
        <time>2020-08-13T11:27:44.000Z</time>
      </trkpt>
      <trkpt lat="42.53136791288852691650390625" lon="1.087623350322246551513671875">
        <ele>2080.199951171875</ele>
        <time>2020-08-13T11:28:01.000Z</time>
      </trkpt>
      <trkpt lat="42.53136799670755863189697265625" lon="1.08762326650321483612060546875">
        <ele>2080.39990234375</ele>
        <time>2020-08-13T11:28:03.000Z</time>
      </trkpt>
      <trkpt lat="42.53139699809253215789794921875" lon="1.0876080952584743499755859375">
        <ele>2082.60009765625</ele>
        <time>2020-08-13T11:32:26.000Z</time>
      </trkpt>
      <trkpt lat="42.53140269778668880462646484375" lon="1.0875993780791759490966796875">
        <ele>2082.199951171875</ele>
        <time>2020-08-13T11:32:31.000Z</time>
      </trkpt>
      <trkpt lat="42.53143605776131153106689453125" lon="1.08756056986749172210693359375">
        <ele>2081.60009765625</ele>
        <time>2020-08-13T11:32:35.000Z</time>
      </trkpt>
      <trkpt lat="42.53147528506815433502197265625" lon="1.08752067200839519500732421875">
        <ele>2081.39990234375</ele>
        <time>2020-08-13T11:32:39.000Z</time>
      </trkpt>
      <trkpt lat="42.5315655581653118133544921875" lon="1.08744942583143711090087890625">
        <ele>2081.800048828125</ele>
        <time>2020-08-13T11:32:47.000Z</time>
      </trkpt>
      <trkpt lat="42.53160805441439151763916015625" lon="1.08740039169788360595703125">
        <ele>2082.60009765625</ele>
        <time>2020-08-13T11:32:51.000Z</time>
      </trkpt>
      <trkpt lat="42.53165951929986476898193359375" lon="1.08735973946750164031982421875">
        <ele>2082.39990234375</ele>
        <time>2020-08-13T11:32:55.000Z</time>
      </trkpt>
      <trkpt lat="42.531771250069141387939453125" lon="1.08726636506617069244384765625">
        <ele>2082.39990234375</ele>
        <time>2020-08-13T11:33:04.000Z</time>
      </trkpt>
      <trkpt lat="42.5318862497806549072265625" lon="1.087202914059162139892578125">
        <ele>2083</ele>
        <time>2020-08-13T11:33:13.000Z</time>
      </trkpt>
      <trkpt lat="42.53191248513758182525634765625" lon="1.087193526327610015869140625">
        <ele>2083.60009765625</ele>
        <time>2020-08-13T11:33:15.000Z</time>
      </trkpt>
      <trkpt lat="42.5319950468838214874267578125" lon="1.08717148192226886749267578125">
        <ele>2084</ele>
        <time>2020-08-13T11:33:21.000Z</time>
      </trkpt>
      <trkpt lat="42.53208800218999385833740234375" lon="1.08714901842176914215087890625">
        <ele>2084.39990234375</ele>
        <time>2020-08-13T11:33:28.000Z</time>
      </trkpt>
      <trkpt lat="42.53210124559700489044189453125" lon="1.0871440730988979339599609375">
        <ele>2084.800048828125</ele>
        <time>2020-08-13T11:33:29.000Z</time>
      </trkpt>
      <trkpt lat="42.532177604734897613525390625" lon="1.08712504617869853973388671875">
        <ele>2084.800048828125</ele>
        <time>2020-08-13T11:33:35.000Z</time>
      </trkpt>
      <trkpt lat="42.532189004123210906982421875" lon="1.08711741864681243896484375">
        <ele>2084.60009765625</ele>
        <time>2020-08-13T11:33:36.000Z</time>
      </trkpt>
      <trkpt lat="42.5322434864938259124755859375" lon="1.08707408420741558074951171875">
        <ele>2085</ele>
        <time>2020-08-13T11:33:41.000Z</time>
      </trkpt>
      <trkpt lat="42.5322644412517547607421875" lon="1.08705245889723300933837890625">
        <ele>2085.60009765625</ele>
        <time>2020-08-13T11:33:43.000Z</time>
      </trkpt>
      <trkpt lat="42.53229805268347263336181640625" lon="1.08702312223613262176513671875">
        <ele>2086.800048828125</ele>
        <time>2020-08-13T11:33:46.000Z</time>
      </trkpt>
      <trkpt lat="42.53234063275158405303955078125" lon="1.0869799554347991943359375">
        <ele>2087.199951171875</ele>
        <time>2020-08-13T11:33:50.000Z</time>
      </trkpt>
      <trkpt lat="42.53238053061068058013916015625" lon="1.08693636953830718994140625">
        <ele>2087.800048828125</ele>
        <time>2020-08-13T11:33:54.000Z</time>
      </trkpt>
      <trkpt lat="42.53242914564907550811767578125" lon="1.08688364736735820770263671875">
        <ele>2088.60009765625</ele>
        <time>2020-08-13T11:33:59.000Z</time>
      </trkpt>
      <trkpt lat="42.5325165688991546630859375" lon="1.08683771453797817230224609375">
        <ele>2089</ele>
        <time>2020-08-13T11:34:06.000Z</time>
      </trkpt>
      <trkpt lat="42.53254146315157413482666015625" lon="1.08682564459741115570068359375">
        <ele>2089.199951171875</ele>
        <time>2020-08-13T11:34:08.000Z</time>
      </trkpt>
      <trkpt lat="42.532676495611667633056640625" lon="1.08680200763046741485595703125">
        <ele>2090</ele>
        <time>2020-08-13T11:34:17.000Z</time>
      </trkpt>
      <trkpt lat="42.53279644064605236053466796875" lon="1.08679228462278842926025390625">
        <ele>2091</ele>
        <time>2020-08-13T11:34:25.000Z</time>
      </trkpt>
      <trkpt lat="42.5328111089766025543212890625" lon="1.08679027296602725982666015625">
        <ele>2091.199951171875</ele>
        <time>2020-08-13T11:34:26.000Z</time>
      </trkpt>
      <trkpt lat="42.53288310952484607696533203125" lon="1.0867745988070964813232421875">
        <ele>2092</ele>
        <time>2020-08-13T11:34:31.000Z</time>
      </trkpt>
      <trkpt lat="42.532938681542873382568359375" lon="1.08675666153430938720703125">
        <ele>2093</ele>
        <time>2020-08-13T11:34:35.000Z</time>
      </trkpt>
      <trkpt lat="42.53295175731182098388671875" lon="1.08675003983080387115478515625">
        <ele>2093</ele>
        <time>2020-08-13T11:34:36.000Z</time>
      </trkpt>
      <trkpt lat="42.53304823301732540130615234375" lon="1.08669203706085681915283203125">
        <ele>2093.800048828125</ele>
        <time>2020-08-13T11:34:44.000Z</time>
      </trkpt>
      <trkpt lat="42.5330598838627338409423828125" lon="1.08668365515768527984619140625">
        <ele>2094</ele>
        <time>2020-08-13T11:34:45.000Z</time>
      </trkpt>
      <trkpt lat="42.533153928816318511962890625" lon="1.0866300947964191436767578125">
        <ele>2094.800048828125</ele>
        <time>2020-08-13T11:34:53.000Z</time>
      </trkpt>
      <trkpt lat="42.533192150294780731201171875" lon="1.0866089724004268646240234375">
        <ele>2095</ele>
        <time>2020-08-13T11:34:56.000Z</time>
      </trkpt>
      <trkpt lat="42.53326331265270709991455078125" lon="1.08656027354300022125244140625">
        <ele>2096</ele>
        <time>2020-08-13T11:35:02.000Z</time>
      </trkpt>
      <trkpt lat="42.53327555023133754730224609375" lon="1.086554825305938720703125">
        <ele>2096</ele>
        <time>2020-08-13T11:35:03.000Z</time>
      </trkpt>
      <trkpt lat="42.5333619676530361175537109375" lon="1.08650160022079944610595703125">
        <ele>2096.39990234375</ele>
        <time>2020-08-13T11:35:10.000Z</time>
      </trkpt>
      <trkpt lat="42.5334427691996097564697265625" lon="1.08647243119776248931884765625">
        <ele>2097</ele>
        <time>2020-08-13T11:35:16.000Z</time>
      </trkpt>
      <trkpt lat="42.53350202925503253936767578125" lon="1.08646874316036701202392578125">
        <ele>2097.39990234375</ele>
        <time>2020-08-13T11:35:20.000Z</time>
      </trkpt>
      <trkpt lat="42.53357411362230777740478515625" lon="1.0864604450762271881103515625">
        <ele>2097.800048828125</ele>
        <time>2020-08-13T11:35:25.000Z</time>
      </trkpt>
      <trkpt lat="42.53361669369041919708251953125" lon="1.08645214699208736419677734375">
        <ele>2098</ele>
        <time>2020-08-13T11:35:28.000Z</time>
      </trkpt>
      <trkpt lat="42.5336576811969280242919921875" lon="1.0864461958408355712890625">
        <ele>2099</ele>
        <time>2020-08-13T11:35:31.000Z</time>
      </trkpt>
      <trkpt lat="42.53371216356754302978515625" lon="1.086429767310619354248046875">
        <ele>2099.39990234375</ele>
        <time>2020-08-13T11:35:35.000Z</time>
      </trkpt>
      <trkpt lat="42.533764801919460296630859375" lon="1.08640260994434356689453125">
        <ele>2100</ele>
        <time>2020-08-13T11:35:39.000Z</time>
      </trkpt>
      <trkpt lat="42.53384853713214397430419921875" lon="1.08637050725519657135009765625">
        <ele>2100.39990234375</ele>
        <time>2020-08-13T11:35:45.000Z</time>
      </trkpt>
      <trkpt lat="42.53396454267203807830810546875" lon="1.08634628355503082275390625">
        <ele>2101</ele>
        <time>2020-08-13T11:35:53.000Z</time>
      </trkpt>
      <trkpt lat="42.533979378640651702880859375" lon="1.08634485863149166107177734375">
        <ele>2101.39990234375</ele>
        <time>2020-08-13T11:35:54.000Z</time>
      </trkpt>
      <trkpt lat="42.5340650416910648345947265625" lon="1.0863360576331615447998046875">
        <ele>2102.199951171875</ele>
        <time>2020-08-13T11:36:00.000Z</time>
      </trkpt>
      <trkpt lat="42.53409630618989467620849609375" lon="1.0863335430622100830078125">
        <ele>2102</ele>
        <time>2020-08-13T11:36:02.000Z</time>
      </trkpt>
      <trkpt lat="42.53418750129640102386474609375" lon="1.08632356859743595123291015625">
        <ele>2103.199951171875</ele>
        <time>2020-08-13T11:36:08.000Z</time>
      </trkpt>
      <trkpt lat="42.53424449823796749114990234375" lon="1.086323149502277374267578125">
        <ele>2104</ele>
        <time>2020-08-13T11:36:12.000Z</time>
      </trkpt>
      <trkpt lat="42.53433577716350555419921875" lon="1.086329519748687744140625">
        <ele>2104.39990234375</ele>
        <time>2020-08-13T11:36:18.000Z</time>
      </trkpt>
      <trkpt lat="42.534482963383197784423828125" lon="1.0863042064011096954345703125">
        <ele>2105.199951171875</ele>
        <time>2020-08-13T11:36:28.000Z</time>
      </trkpt>
      <trkpt lat="42.53460056148469448089599609375" lon="1.086272187530994415283203125">
        <ele>2106.39990234375</ele>
        <time>2020-08-13T11:36:36.000Z</time>
      </trkpt>
      <trkpt lat="42.53472377546131610870361328125" lon="1.08625642955303192138671875">
        <ele>2107.60009765625</ele>
        <time>2020-08-13T11:36:45.000Z</time>
      </trkpt>
      <trkpt lat="42.53485067747533321380615234375" lon="1.08624896965920925140380859375">
        <ele>2108.800048828125</ele>
        <time>2020-08-13T11:36:54.000Z</time>
      </trkpt>
      <trkpt lat="42.5348640047013759613037109375" lon="1.08624997548758983612060546875">
        <ele>2108.800048828125</ele>
        <time>2020-08-13T11:36:55.000Z</time>
      </trkpt>
      <trkpt lat="42.53496232442557811737060546875" lon="1.08623740263283252716064453125">
        <ele>2109.800048828125</ele>
        <time>2020-08-13T11:37:02.000Z</time>
      </trkpt>
      <trkpt lat="42.534988559782505035400390625" lon="1.08623689971864223480224609375">
        <ele>2109.800048828125</ele>
        <time>2020-08-13T11:37:04.000Z</time>
      </trkpt>
      <trkpt lat="42.5350701995193958282470703125" lon="1.0862195491790771484375">
        <ele>2110.800048828125</ele>
        <time>2020-08-13T11:37:10.000Z</time>
      </trkpt>
      <trkpt lat="42.5350995361804962158203125" lon="1.08621879480779170989990234375">
        <ele>2111.199951171875</ele>
        <time>2020-08-13T11:37:12.000Z</time>
      </trkpt>
      <trkpt lat="42.5351982749998569488525390625" lon="1.08619750477373600006103515625">
        <ele>2111.39990234375</ele>
        <time>2020-08-13T11:37:19.000Z</time>
      </trkpt>
      <trkpt lat="42.5352717004716396331787109375" lon="1.08618074096739292144775390625">
        <ele>2111.800048828125</ele>
        <time>2020-08-13T11:37:24.000Z</time>
      </trkpt>
      <trkpt lat="42.53535912372171878814697265625" lon="1.0861597023904323577880859375">
        <ele>2112.60009765625</ele>
        <time>2020-08-13T11:37:30.000Z</time>
      </trkpt>
      <trkpt lat="42.53543020226061344146728515625" lon="1.086147464811801910400390625">
        <ele>2112.800048828125</ele>
        <time>2020-08-13T11:37:35.000Z</time>
      </trkpt>
      <trkpt lat="42.53545769490301609039306640625" lon="1.086136735975742340087890625">
        <ele>2112.800048828125</ele>
        <time>2020-08-13T11:37:37.000Z</time>
      </trkpt>
      <trkpt lat="42.53557537682354450225830078125" lon="1.0860953293740749359130859375">
        <ele>2113.60009765625</ele>
        <time>2020-08-13T11:37:45.000Z</time>
      </trkpt>
      <trkpt lat="42.5356046296656131744384765625" lon="1.086085774004459381103515625">
        <ele>2113.800048828125</ele>
        <time>2020-08-13T11:37:47.000Z</time>
      </trkpt>
      <trkpt lat="42.5356793962419033050537109375" lon="1.086061634123325347900390625">
        <ele>2114.800048828125</ele>
        <time>2020-08-13T11:37:52.000Z</time>
      </trkpt>
      <trkpt lat="42.5356938131153583526611328125" lon="1.0860561020672321319580078125">
        <ele>2115</ele>
        <time>2020-08-13T11:37:53.000Z</time>
      </trkpt>
      <trkpt lat="42.53575290553271770477294921875" lon="1.0860356502234935760498046875">
        <ele>2115.800048828125</ele>
        <time>2020-08-13T11:37:57.000Z</time>
      </trkpt>
      <trkpt lat="42.5357980839908123016357421875" lon="1.086029447615146636962890625">
        <ele>2116.199951171875</ele>
        <time>2020-08-13T11:38:00.000Z</time>
      </trkpt>
      <trkpt lat="42.5358446873724460601806640625" lon="1.08602039515972137451171875">
        <ele>2116.60009765625</ele>
        <time>2020-08-13T11:38:03.000Z</time>
      </trkpt>
      <trkpt lat="42.53595205955207347869873046875" lon="1.08600790612399578094482421875">
        <ele>2117.60009765625</ele>
        <time>2020-08-13T11:38:10.000Z</time>
      </trkpt>
      <trkpt lat="42.5359670631587505340576171875" lon="1.08600455336272716522216796875">
        <ele>2118</ele>
        <time>2020-08-13T11:38:11.000Z</time>
      </trkpt>
      <trkpt lat="42.53605934791266918182373046875" lon="1.08599114231765270233154296875">
        <ele>2119</ele>
        <time>2020-08-13T11:38:17.000Z</time>
      </trkpt>
      <trkpt lat="42.5361041910946369171142578125" lon="1.08598762191832065582275390625">
        <ele>2119.39990234375</ele>
        <time>2020-08-13T11:38:20.000Z</time>
      </trkpt>
      <trkpt lat="42.53620125353336334228515625" lon="1.0859955847263336181640625">
        <ele>2120</ele>
        <time>2020-08-13T11:38:26.000Z</time>
      </trkpt>
      <trkpt lat="42.53623235039412975311279296875" lon="1.08600564301013946533203125">
        <ele>2120.39990234375</ele>
        <time>2020-08-13T11:38:28.000Z</time>
      </trkpt>
      <trkpt lat="42.5363355316221714019775390625" lon="1.08604185283184051513671875">
        <ele>2121.199951171875</ele>
        <time>2020-08-13T11:38:35.000Z</time>
      </trkpt>
      <trkpt lat="42.53637425601482391357421875" lon="1.0860413499176502227783203125">
        <ele>2121.800048828125</ele>
        <time>2020-08-13T11:38:38.000Z</time>
      </trkpt>
      <trkpt lat="42.5364005751907825469970703125" lon="1.0860349796712398529052734375">
        <ele>2122.199951171875</ele>
        <time>2020-08-13T11:38:40.000Z</time>
      </trkpt>
      <trkpt lat="42.5364646129310131072998046875" lon="1.0860004462301731109619140625">
        <ele>2123.199951171875</ele>
        <time>2020-08-13T11:38:46.000Z</time>
      </trkpt>
      <trkpt lat="42.5364740006625652313232421875" lon="1.0859716124832630157470703125">
        <ele>2124</ele>
        <time>2020-08-13T11:38:52.000Z</time>
      </trkpt>
      <trkpt lat="42.53645648248493671417236328125" lon="1.0859256796538829803466796875">
        <ele>2123.800048828125</ele>
        <time>2020-08-13T11:38:59.000Z</time>
      </trkpt>
      <trkpt lat="42.53638490103185176849365234375" lon="1.085830628871917724609375">
        <ele>2124.199951171875</ele>
        <time>2020-08-13T11:39:05.000Z</time>
      </trkpt>
      <trkpt lat="42.536367215216159820556640625" lon="1.08582283370196819305419921875">
        <ele>2124.199951171875</ele>
        <time>2020-08-13T11:39:06.000Z</time>
      </trkpt>
      <trkpt lat="42.53617635928094387054443359375" lon="1.08579768799245357513427734375">
        <ele>2123.800048828125</ele>
        <time>2020-08-13T11:39:16.000Z</time>
      </trkpt>
      <trkpt lat="42.5360267423093318939208984375" lon="1.08576751314103603363037109375">
        <ele>2125.60009765625</ele>
        <time>2020-08-13T11:39:24.000Z</time>
      </trkpt>
      <trkpt lat="42.53588751889765262603759765625" lon="1.0857225023210048675537109375">
        <ele>2126.199951171875</ele>
        <time>2020-08-13T11:39:32.000Z</time>
      </trkpt>
      <trkpt lat="42.53583840094506740570068359375" lon="1.0857020504772663116455078125">
        <ele>2126.39990234375</ele>
        <time>2020-08-13T11:39:35.000Z</time>
      </trkpt>
      <trkpt lat="42.53575391136109828948974609375" lon="1.08567841351032257080078125">
        <ele>2126.800048828125</ele>
        <time>2020-08-13T11:39:40.000Z</time>
      </trkpt>
      <trkpt lat="42.53566841594874858856201171875" lon="1.08565469272434711456298828125">
        <ele>2127.39990234375</ele>
        <time>2020-08-13T11:39:45.000Z</time>
      </trkpt>
      <trkpt lat="42.5356022827327251434326171875" lon="1.08563591726124286651611328125">
        <ele>2127.800048828125</ele>
        <time>2020-08-13T11:39:49.000Z</time>
      </trkpt>
      <trkpt lat="42.535504885017871856689453125" lon="1.08561244793236255645751953125">
        <ele>2128.60009765625</ele>
        <time>2020-08-13T11:39:55.000Z</time>
      </trkpt>
      <trkpt lat="42.53545735962688922882080078125" lon="1.08559702523052692413330078125">
        <ele>2129</ele>
        <time>2020-08-13T11:39:58.000Z</time>
      </trkpt>
      <trkpt lat="42.53540891222655773162841796875" lon="1.0855816863477230072021484375">
        <ele>2129.60009765625</ele>
        <time>2020-08-13T11:40:01.000Z</time>
      </trkpt>
      <trkpt lat="42.53527865745127201080322265625" lon="1.08553650788962841033935546875">
        <ele>2130.800048828125</ele>
        <time>2020-08-13T11:40:09.000Z</time>
      </trkpt>
      <trkpt lat="42.5351258553564548492431640625" lon="1.08548621647059917449951171875">
        <ele>2131.60009765625</ele>
        <time>2020-08-13T11:40:18.000Z</time>
      </trkpt>
      <trkpt lat="42.53497841767966747283935546875" lon="1.08542896807193756103515625">
        <ele>2131.60009765625</ele>
        <time>2020-08-13T11:40:27.000Z</time>
      </trkpt>
      <trkpt lat="42.53482804633677005767822265625" lon="1.08536400832235813140869140625">
        <ele>2131.800048828125</ele>
        <time>2020-08-13T11:40:36.000Z</time>
      </trkpt>
      <trkpt lat="42.5347000546753406524658203125" lon="1.0853034071624279022216796875">
        <ele>2132.800048828125</ele>
        <time>2020-08-13T11:40:44.000Z</time>
      </trkpt>
      <trkpt lat="42.5346856378018856048583984375" lon="1.0852923430502414703369140625">
        <ele>2133.199951171875</ele>
        <time>2020-08-13T11:40:45.000Z</time>
      </trkpt>
      <trkpt lat="42.53461162559688091278076171875" lon="1.0852450691163539886474609375">
        <ele>2134</ele>
        <time>2020-08-13T11:40:50.000Z</time>
      </trkpt>
      <trkpt lat="42.53456250764429569244384765625" lon="1.0852239467203617095947265625">
        <ele>2134.60009765625</ele>
        <time>2020-08-13T11:40:53.000Z</time>
      </trkpt>
      <trkpt lat="42.53443309105932712554931640625" lon="1.08516879379749298095703125">
        <ele>2135</ele>
        <time>2020-08-13T11:41:01.000Z</time>
      </trkpt>
      <trkpt lat="42.53426042385399341583251953125" lon="1.0851257108151912689208984375">
        <ele>2135.39990234375</ele>
        <time>2020-08-13T11:41:11.000Z</time>
      </trkpt>
      <trkpt lat="42.53419454209506511688232421875" lon="1.08512227423489093780517578125">
        <ele>2136</ele>
        <time>2020-08-13T11:41:15.000Z</time>
      </trkpt>
      <trkpt lat="42.5341143272817134857177734375" lon="1.0851250402629375457763671875">
        <ele>2137</ele>
        <time>2020-08-13T11:41:20.000Z</time>
      </trkpt>
      <trkpt lat="42.5340496189892292022705078125" lon="1.0851438157260417938232421875">
        <ele>2137.199951171875</ele>
        <time>2020-08-13T11:41:24.000Z</time>
      </trkpt>
      <trkpt lat="42.5339825637638568878173828125" lon="1.0851418040692806243896484375">
        <ele>2137.199951171875</ele>
        <time>2020-08-13T11:41:28.000Z</time>
      </trkpt>
      <trkpt lat="42.5337995029985904693603515625" lon="1.08512814156711101531982421875">
        <ele>2138</ele>
        <time>2020-08-13T11:41:39.000Z</time>
      </trkpt>
      <trkpt lat="42.5337830744683742523193359375" lon="1.08512612991034984588623046875">
        <ele>2138</ele>
        <time>2020-08-13T11:41:40.000Z</time>
      </trkpt>
      <trkpt lat="42.5337213836610317230224609375" lon="1.08511506579816341400146484375">
        <ele>2139.199951171875</ele>
        <time>2020-08-13T11:41:44.000Z</time>
      </trkpt>
      <trkpt lat="42.53362842835485935211181640625" lon="1.08509679324924945831298828125">
        <ele>2138.800048828125</ele>
        <time>2020-08-13T11:41:50.000Z</time>
      </trkpt>
      <trkpt lat="42.53353019244968891143798828125" lon="1.0850750841200351715087890625">
        <ele>2140</ele>
        <time>2020-08-13T11:41:57.000Z</time>
      </trkpt>
      <trkpt lat="42.53350320272147655487060546875" lon="1.0850667022168636322021484375">
        <ele>2140.199951171875</ele>
        <time>2020-08-13T11:41:59.000Z</time>
      </trkpt>
      <trkpt lat="42.53344922326505184173583984375" lon="1.085004508495330810546875">
        <ele>2141</ele>
        <time>2020-08-13T11:42:05.000Z</time>
      </trkpt>
      <trkpt lat="42.53344804979860782623291015625" lon="1.085000820457935333251953125">
        <ele>2141.199951171875</ele>
        <time>2020-08-13T11:42:06.000Z</time>
      </trkpt>
      <trkpt lat="42.53344939090311527252197265625" lon="1.08499151654541492462158203125">
        <ele>2141.39990234375</ele>
        <time>2020-08-13T11:42:10.000Z</time>
      </trkpt>
      <trkpt lat="42.53345039673149585723876953125" lon="1.08499042689800262451171875">
        <ele>2141</ele>
        <time>2020-08-13T11:42:24.000Z</time>
      </trkpt>
      <trkpt lat="42.53345022909343242645263671875" lon="1.0849885828793048858642578125">
        <ele>2141</ele>
        <time>2020-08-13T11:42:25.000Z</time>
      </trkpt>
      <trkpt lat="42.53343522548675537109375" lon="1.08482873998582363128662109375">
        <ele>2147.39990234375</ele>
        <time>2020-08-13T11:46:52.000Z</time>
      </trkpt>
      <trkpt lat="42.533454336225986480712890625" lon="1.084819100797176361083984375">
        <ele>2147</ele>
        <time>2020-08-13T11:46:56.000Z</time>
      </trkpt>
      <trkpt lat="42.53346699289977550506591796875" lon="1.0848207771778106689453125">
        <ele>2146.800048828125</ele>
        <time>2020-08-13T11:46:57.000Z</time>
      </trkpt>
      <trkpt lat="42.5335148535668849945068359375" lon="1.08484047465026378631591796875">
        <ele>2146</ele>
        <time>2020-08-13T11:47:00.000Z</time>
      </trkpt>
      <trkpt lat="42.53357537090778350830078125" lon="1.084897555410861968994140625">
        <ele>2145</ele>
        <time>2020-08-13T11:47:03.000Z</time>
      </trkpt>
      <trkpt lat="42.53373387269675731658935546875" lon="1.0849664546549320220947265625">
        <ele>2145</ele>
        <time>2020-08-13T11:47:10.000Z</time>
      </trkpt>
      <trkpt lat="42.533788271248340606689453125" lon="1.0849704779684543609619140625">
        <ele>2144.60009765625</ele>
        <time>2020-08-13T11:47:12.000Z</time>
      </trkpt>
      <trkpt lat="42.53390737809240818023681640625" lon="1.0849570669233798980712890625">
        <ele>2144.39990234375</ele>
        <time>2020-08-13T11:47:17.000Z</time>
      </trkpt>
      <trkpt lat="42.5340278260409832000732421875" lon="1.0849503614008426666259765625">
        <ele>2144.60009765625</ele>
        <time>2020-08-13T11:47:24.000Z</time>
      </trkpt>
      <trkpt lat="42.53403134644031524658203125" lon="1.08494960702955722808837890625">
        <ele>2145</ele>
        <time>2020-08-13T11:47:30.000Z</time>
      </trkpt>
      <trkpt lat="42.53403428010642528533935546875" lon="1.08495019376277923583984375">
        <ele>2145</ele>
        <time>2020-08-13T11:48:03.000Z</time>
      </trkpt>
      <trkpt lat="42.534027993679046630859375" lon="1.0849602520465850830078125">
        <ele>2144.60009765625</ele>
        <time>2020-08-13T11:48:13.000Z</time>
      </trkpt>
      <trkpt lat="42.53401651047170162200927734375" lon="1.084962598979473114013671875">
        <ele>2144.39990234375</ele>
        <time>2020-08-13T11:48:15.000Z</time>
      </trkpt>
      <trkpt lat="42.5339989922940731048583984375" lon="1.0849543847143650054931640625">
        <ele>2144</ele>
        <time>2020-08-13T11:48:18.000Z</time>
      </trkpt>
      <trkpt lat="42.533872090280055999755859375" lon="1.0849654488265514373779296875">
        <ele>2144.39990234375</ele>
        <time>2020-08-13T11:48:26.000Z</time>
      </trkpt>
      <trkpt lat="42.53368542529642581939697265625" lon="1.08495748601853847503662109375">
        <ele>2144.39990234375</ele>
        <time>2020-08-13T11:48:35.000Z</time>
      </trkpt>
      <trkpt lat="42.53357327543199062347412109375" lon="1.08489696867763996124267578125">
        <ele>2145</ele>
        <time>2020-08-13T11:48:41.000Z</time>
      </trkpt>
      <trkpt lat="42.53345693461596965789794921875" lon="1.0847605951130390167236328125">
        <ele>2145</ele>
        <time>2020-08-13T11:48:49.000Z</time>
      </trkpt>
      <trkpt lat="42.53344888798892498016357421875" lon="1.08473620377480983734130859375">
        <ele>2145.199951171875</ele>
        <time>2020-08-13T11:48:50.000Z</time>
      </trkpt>
      <trkpt lat="42.5333908013999462127685546875" lon="1.08455716632306575775146484375">
        <ele>2144.800048828125</ele>
        <time>2020-08-13T11:48:57.000Z</time>
      </trkpt>
      <trkpt lat="42.53335685469210147857666015625" lon="1.0844102315604686737060546875">
        <ele>2145.199951171875</ele>
        <time>2020-08-13T11:49:03.000Z</time>
      </trkpt>
      <trkpt lat="42.5333485566079616546630859375" lon="1.0842063836753368377685546875">
        <ele>2145.39990234375</ele>
        <time>2020-08-13T11:49:11.000Z</time>
      </trkpt>
      <trkpt lat="42.53335232846438884735107421875" lon="1.0841701738536357879638671875">
        <ele>2145.199951171875</ele>
        <time>2020-08-13T11:49:15.000Z</time>
      </trkpt>
      <trkpt lat="42.53335366956889629364013671875" lon="1.08414343558251857757568359375">
        <ele>2145.39990234375</ele>
        <time>2020-08-13T11:49:23.000Z</time>
      </trkpt>
      <trkpt lat="42.5333532504737377166748046875" lon="1.08414025045931339263916015625">
        <ele>2144.39990234375</ele>
        <time>2020-08-13T11:49:35.000Z</time>
      </trkpt>
      <trkpt lat="42.53335635177791118621826171875" lon="1.08410119079053401947021484375">
        <ele>2144.60009765625</ele>
        <time>2020-08-13T11:49:40.000Z</time>
      </trkpt>
      <trkpt lat="42.53335400484502315521240234375" lon="1.08408040367066860198974609375">
        <ele>2144.60009765625</ele>
        <time>2020-08-13T11:49:41.000Z</time>
      </trkpt>
      <trkpt lat="42.53333020024001598358154296875" lon="1.0839264281094074249267578125">
        <ele>2144</ele>
        <time>2020-08-13T11:49:46.000Z</time>
      </trkpt>
      <trkpt lat="42.53332584165036678314208984375" lon="1.08388879336416721343994140625">
        <ele>2143.60009765625</ele>
        <time>2020-08-13T11:49:47.000Z</time>
      </trkpt>
      <trkpt lat="42.53330907784402370452880859375" lon="1.08376725576817989349365234375">
        <ele>2142.60009765625</ele>
        <time>2020-08-13T11:49:50.000Z</time>
      </trkpt>
      <trkpt lat="42.53328409977257251739501953125" lon="1.0836384259164333343505859375">
        <ele>2142.800048828125</ele>
        <time>2020-08-13T11:49:53.000Z</time>
      </trkpt>
      <trkpt lat="42.53327555023133754730224609375" lon="1.0835975222289562225341796875">
        <ele>2142.60009765625</ele>
        <time>2020-08-13T11:49:54.000Z</time>
      </trkpt>
      <trkpt lat="42.5332218222320079803466796875" lon="1.08340314589440822601318359375">
        <ele>2142.199951171875</ele>
        <time>2020-08-13T11:49:59.000Z</time>
      </trkpt>
      <trkpt lat="42.5331534259021282196044921875" lon="1.08318530023097991943359375">
        <ele>2141.39990234375</ele>
        <time>2020-08-13T11:50:05.000Z</time>
      </trkpt>
      <trkpt lat="42.5331178866326808929443359375" lon="1.083089746534824371337890625">
        <ele>2141.39990234375</ele>
        <time>2020-08-13T11:50:08.000Z</time>
      </trkpt>
      <trkpt lat="42.53300406038761138916015625" lon="1.08289537020027637481689453125">
        <ele>2140.800048828125</ele>
        <time>2020-08-13T11:50:14.000Z</time>
      </trkpt>
      <trkpt lat="42.5328355841338634490966796875" lon="1.08258121646940708160400390625">
        <ele>2140.800048828125</ele>
        <time>2020-08-13T11:50:23.000Z</time>
      </trkpt>
      <trkpt lat="42.53278286196291446685791015625" lon="1.0824926197528839111328125">
        <ele>2140.39990234375</ele>
        <time>2020-08-13T11:50:26.000Z</time>
      </trkpt>
      <trkpt lat="42.53270893357694149017333984375" lon="1.08236580155789852142333984375">
        <ele>2140.199951171875</ele>
        <time>2020-08-13T11:50:30.000Z</time>
      </trkpt>
      <trkpt lat="42.53256979398429393768310546875" lon="1.08213999308645725250244140625">
        <ele>2140.60009765625</ele>
        <time>2020-08-13T11:50:37.000Z</time>
      </trkpt>
      <trkpt lat="42.53243065439164638519287109375" lon="1.0819087363779544830322265625">
        <ele>2140.800048828125</ele>
        <time>2020-08-13T11:50:45.000Z</time>
      </trkpt>
      <trkpt lat="42.5322947837412357330322265625" lon="1.0816864483058452606201171875">
        <ele>2139.800048828125</ele>
        <time>2020-08-13T11:50:53.000Z</time>
      </trkpt>
      <trkpt lat="42.53218623809516429901123046875" lon="1.0815194807946681976318359375">
        <ele>2139.39990234375</ele>
        <time>2020-08-13T11:50:59.000Z</time>
      </trkpt>
      <trkpt lat="42.53213812597095966339111328125" lon="1.0814477317035198211669921875">
        <ele>2139.199951171875</ele>
        <time>2020-08-13T11:51:02.000Z</time>
      </trkpt>
      <trkpt lat="42.532050870358943939208984375" lon="1.081320829689502716064453125">
        <ele>2138.800048828125</ele>
        <time>2020-08-13T11:51:07.000Z</time>
      </trkpt>
      <trkpt lat="42.531899996101856231689453125" lon="1.0810812748968601226806640625">
        <ele>2138.800048828125</ele>
        <time>2020-08-13T11:51:16.000Z</time>
      </trkpt>
      <trkpt lat="42.53177317790687084197998046875" lon="1.080869548022747039794921875">
        <ele>2138.60009765625</ele>
        <time>2020-08-13T11:51:24.000Z</time>
      </trkpt>
      <trkpt lat="42.531646527349948883056640625" lon="1.0806279815733432769775390625">
        <ele>2139.39990234375</ele>
        <time>2020-08-13T11:51:33.000Z</time>
      </trkpt>
      <trkpt lat="42.53159782849252223968505859375" lon="1.0804737545549869537353515625">
        <ele>2140</ele>
        <time>2020-08-13T11:51:38.000Z</time>
      </trkpt>
      <trkpt lat="42.5315886922180652618408203125" lon="1.08037426136434078216552734375">
        <ele>2140</ele>
        <time>2020-08-13T11:51:41.000Z</time>
      </trkpt>
      <trkpt lat="42.5316302664577960968017578125" lon="1.0801173560321331024169921875">
        <ele>2140.199951171875</ele>
        <time>2020-08-13T11:51:49.000Z</time>
      </trkpt>
      <trkpt lat="42.53169371746480464935302734375" lon="1.07989598996937274932861328125">
        <ele>2139.800048828125</ele>
        <time>2020-08-13T11:51:56.000Z</time>
      </trkpt>
      <trkpt lat="42.53175037913024425506591796875" lon="1.07966280542314052581787109375">
        <ele>2140</ele>
        <time>2020-08-13T11:52:03.000Z</time>
      </trkpt>
      <trkpt lat="42.531814165413379669189453125" lon="1.079278327524662017822265625">
        <ele>2139.800048828125</ele>
        <time>2020-08-13T11:52:12.000Z</time>
      </trkpt>
      <trkpt lat="42.53186755813658237457275390625" lon="1.0788748227059841156005859375">
        <ele>2139.60009765625</ele>
        <time>2020-08-13T11:52:21.000Z</time>
      </trkpt>
      <trkpt lat="42.53188985399901866912841796875" lon="1.07870358042418956756591796875">
        <ele>2138.800048828125</ele>
        <time>2020-08-13T11:52:25.000Z</time>
      </trkpt>
      <trkpt lat="42.53190058283507823944091796875" lon="1.07852487824857234954833984375">
        <ele>2139</ele>
        <time>2020-08-13T11:52:29.000Z</time>
      </trkpt>
      <trkpt lat="42.53191097639501094818115234375" lon="1.07816110365092754364013671875">
        <ele>2138.60009765625</ele>
        <time>2020-08-13T11:52:37.000Z</time>
      </trkpt>
      <trkpt lat="42.53194383345544338226318359375" lon="1.07772298157215118408203125">
        <ele>2138.60009765625</ele>
        <time>2020-08-13T11:52:47.000Z</time>
      </trkpt>
      <trkpt lat="42.5319219566881656646728515625" lon="1.07750731520354747772216796875">
        <ele>2138.39990234375</ele>
        <time>2020-08-13T11:52:52.000Z</time>
      </trkpt>
      <trkpt lat="42.53185582347214221954345703125" lon="1.0772408545017242431640625">
        <ele>2138.800048828125</ele>
        <time>2020-08-13T11:52:59.000Z</time>
      </trkpt>
      <trkpt lat="42.53178298473358154296875" lon="1.07687481679022312164306640625">
        <ele>2139.39990234375</ele>
        <time>2020-08-13T11:53:08.000Z</time>
      </trkpt>
      <trkpt lat="42.53173881210386753082275390625" lon="1.07666627503931522369384765625">
        <ele>2139.60009765625</ele>
        <time>2020-08-13T11:53:13.000Z</time>
      </trkpt>
      <trkpt lat="42.53171869553625583648681640625" lon="1.07658832333981990814208984375">
        <ele>2139.39990234375</ele>
        <time>2020-08-13T11:53:15.000Z</time>
      </trkpt>
      <trkpt lat="42.5316366367042064666748046875" lon="1.07626394368708133697509765625">
        <ele>2139.39990234375</ele>
        <time>2020-08-13T11:53:23.000Z</time>
      </trkpt>
      <trkpt lat="42.53152289427816867828369140625" lon="1.075895391404628753662109375">
        <ele>2140.199951171875</ele>
        <time>2020-08-13T11:53:33.000Z</time>
      </trkpt>
      <trkpt lat="42.531419880688190460205078125" lon="1.07561619020998477935791015625">
        <ele>2140.199951171875</ele>
        <time>2020-08-13T11:53:41.000Z</time>
      </trkpt>
      <trkpt lat="42.5313764624297618865966796875" lon="1.0755213908851146697998046875">
        <ele>2140.60009765625</ele>
        <time>2020-08-13T11:53:44.000Z</time>
      </trkpt>
      <trkpt lat="42.5312923081219196319580078125" lon="1.0753276012837886810302734375">
        <ele>2140.60009765625</ele>
        <time>2020-08-13T11:53:50.000Z</time>
      </trkpt>
      <trkpt lat="42.5311608798801898956298828125" lon="1.07503582723438739776611328125">
        <ele>2140.39990234375</ele>
        <time>2020-08-13T11:53:59.000Z</time>
      </trkpt>
      <trkpt lat="42.53105753101408481597900390625" lon="1.07482896186411380767822265625">
        <ele>2141.39990234375</ele>
        <time>2020-08-13T11:54:06.000Z</time>
      </trkpt>
      <trkpt lat="42.5310264341533184051513671875" lon="1.07476861216127872467041015625">
        <ele>2141.800048828125</ele>
        <time>2020-08-13T11:54:08.000Z</time>
      </trkpt>
      <trkpt lat="42.53089022822678089141845703125" lon="1.07443249784409999847412109375">
        <ele>2141.60009765625</ele>
        <time>2020-08-13T11:54:18.000Z</time>
      </trkpt>
      <trkpt lat="42.530820071697235107421875" lon="1.07410761527717113494873046875">
        <ele>2142.39990234375</ele>
        <time>2020-08-13T11:54:26.000Z</time>
      </trkpt>
      <trkpt lat="42.53079718910157680511474609375" lon="1.073811985552310943603515625">
        <ele>2142</ele>
        <time>2020-08-13T11:54:33.000Z</time>
      </trkpt>
      <trkpt lat="42.53071085549890995025634765625" lon="1.073544435203075408935546875">
        <ele>2141.60009765625</ele>
        <time>2020-08-13T11:54:40.000Z</time>
      </trkpt>
      <trkpt lat="42.5306452251970767974853515625" lon="1.07323908247053623199462890625">
        <ele>2140.800048828125</ele>
        <time>2020-08-13T11:54:48.000Z</time>
      </trkpt>
      <trkpt lat="42.530599124729633331298828125" lon="1.07300019823014736175537109375">
        <ele>2140.60009765625</ele>
        <time>2020-08-13T11:54:55.000Z</time>
      </trkpt>
      <trkpt lat="42.53050818108022212982177734375" lon="1.07257272116839885711669921875">
        <ele>2141.199951171875</ele>
        <time>2020-08-13T11:55:07.000Z</time>
      </trkpt>
      <trkpt lat="42.5304671935737133026123046875" lon="1.072243563830852508544921875">
        <ele>2142.199951171875</ele>
        <time>2020-08-13T11:55:16.000Z</time>
      </trkpt>
      <trkpt lat="42.53046534955501556396484375" lon="1.072206012904644012451171875">
        <ele>2142.199951171875</ele>
        <time>2020-08-13T11:55:17.000Z</time>
      </trkpt>
      <trkpt lat="42.53044749610126018524169921875" lon="1.07191641815006732940673828125">
        <ele>2142.60009765625</ele>
        <time>2020-08-13T11:55:25.000Z</time>
      </trkpt>
      <trkpt lat="42.53037557937204837799072265625" lon="1.07167803682386875152587890625">
        <ele>2142</ele>
        <time>2020-08-13T11:55:32.000Z</time>
      </trkpt>
      <trkpt lat="42.53024364821612834930419921875" lon="1.07161156833171844482421875">
        <ele>2142</ele>
        <time>2020-08-13T11:55:36.000Z</time>
      </trkpt>
      <trkpt lat="42.5301402993500232696533203125" lon="1.0716958902776241302490234375">
        <ele>2141.60009765625</ele>
        <time>2020-08-13T11:55:40.000Z</time>
      </trkpt>
      <trkpt lat="42.5299830548465251922607421875" lon="1.0718254745006561279296875">
        <ele>2142.39990234375</ele>
        <time>2020-08-13T11:55:47.000Z</time>
      </trkpt>
      <trkpt lat="42.52989630214869976043701171875" lon="1.071896888315677642822265625">
        <ele>2143.199951171875</ele>
        <time>2020-08-13T11:55:51.000Z</time>
      </trkpt>
      <trkpt lat="42.52985774539411067962646484375" lon="1.071936450898647308349609375">
        <ele>2143.60009765625</ele>
        <time>2020-08-13T11:55:54.000Z</time>
      </trkpt>
      <trkpt lat="42.5298593379557132720947265625" lon="1.07193619944155216217041015625">
        <ele>2143.60009765625</ele>
        <time>2020-08-13T11:56:07.000Z</time>
      </trkpt>
      <trkpt lat="42.52985908649861812591552734375" lon="1.0719352774322032928466796875">
        <ele>2143.800048828125</ele>
        <time>2020-08-13T11:56:30.000Z</time>
      </trkpt>
      <trkpt lat="42.52985925413668155670166015625" lon="1.07193477451801300048828125">
        <ele>2144</ele>
        <time>2020-08-13T11:56:44.000Z</time>
      </trkpt>
      <trkpt lat="42.5298590026795864105224609375" lon="1.07193418778479099273681640625">
        <ele>2143.60009765625</ele>
        <time>2020-08-13T11:57:10.000Z</time>
      </trkpt>
      <trkpt lat="42.52985858358442783355712890625" lon="1.07193368487060070037841796875">
        <ele>2143</ele>
        <time>2020-08-13T11:57:16.000Z</time>
      </trkpt>
      <trkpt lat="42.529341839253902435302734375" lon="1.07224230654537677764892578125">
        <ele>2145.39990234375</ele>
        <time>2020-08-13T11:57:46.000Z</time>
      </trkpt>
      <trkpt lat="42.52931728027760982513427734375" lon="1.07225672341883182525634765625">
        <ele>2145.39990234375</ele>
        <time>2020-08-13T11:57:47.000Z</time>
      </trkpt>
      <trkpt lat="42.52908828668296337127685546875" lon="1.07237759046256542205810546875">
        <ele>2145.60009765625</ele>
        <time>2020-08-13T11:57:56.000Z</time>
      </trkpt>
      <trkpt lat="42.5288612209260463714599609375" lon="1.07250298373401165008544921875">
        <ele>2145.39990234375</ele>
        <time>2020-08-13T11:58:05.000Z</time>
      </trkpt>
      <trkpt lat="42.52865913324058055877685546875" lon="1.07262955047190189361572265625">
        <ele>2146</ele>
        <time>2020-08-13T11:58:14.000Z</time>
      </trkpt>
      <trkpt lat="42.52857866697013378143310546875" lon="1.0726755671203136444091796875">
        <ele>2146.39990234375</ele>
        <time>2020-08-13T11:58:18.000Z</time>
      </trkpt>
      <trkpt lat="42.5284783355891704559326171875" lon="1.072736419737339019775390625">
        <ele>2147.199951171875</ele>
        <time>2020-08-13T11:58:23.000Z</time>
      </trkpt>
      <trkpt lat="42.5284210033714771270751953125" lon="1.07277690432965755462646484375">
        <ele>2147.39990234375</ele>
        <time>2020-08-13T11:58:26.000Z</time>
      </trkpt>
      <trkpt lat="42.52831019461154937744140625" lon="1.07285301201045513153076171875">
        <ele>2147.800048828125</ele>
        <time>2020-08-13T11:58:32.000Z</time>
      </trkpt>
      <trkpt lat="42.5282195024192333221435546875" lon="1.07293616048991680145263671875">
        <ele>2148.39990234375</ele>
        <time>2020-08-13T11:58:37.000Z</time>
      </trkpt>
      <trkpt lat="42.528183460235595703125" lon="1.07296482659876346588134765625">
        <ele>2148.800048828125</ele>
        <time>2020-08-13T11:58:39.000Z</time>
      </trkpt>
      <trkpt lat="42.5280454941093921661376953125" lon="1.07309457845985889434814453125">
        <ele>2149.199951171875</ele>
        <time>2020-08-13T11:58:47.000Z</time>
      </trkpt>
      <trkpt lat="42.52801288850605487823486328125" lon="1.0731275193393230438232421875">
        <ele>2149.800048828125</ele>
        <time>2020-08-13T11:58:49.000Z</time>
      </trkpt>
      <trkpt lat="42.5279526226222515106201171875" lon="1.07319398783147335052490234375">
        <ele>2150.60009765625</ele>
        <time>2020-08-13T11:58:53.000Z</time>
      </trkpt>
      <trkpt lat="42.52789403311908245086669921875" lon="1.07326003722846508026123046875">
        <ele>2150.800048828125</ele>
        <time>2020-08-13T11:58:57.000Z</time>
      </trkpt>
      <trkpt lat="42.52774986438453197479248046875" lon="1.073437817394733428955078125">
        <ele>2151.60009765625</ele>
        <time>2020-08-13T11:59:07.000Z</time>
      </trkpt>
      <trkpt lat="42.52772237174212932586669921875" lon="1.07347377575933933258056640625">
        <ele>2151.800048828125</ele>
        <time>2020-08-13T11:59:09.000Z</time>
      </trkpt>
      <trkpt lat="42.52763830125331878662109375" lon="1.07358642853796482086181640625">
        <ele>2152</ele>
        <time>2020-08-13T11:59:15.000Z</time>
      </trkpt>
      <trkpt lat="42.52751651220023632049560546875" lon="1.0737487860023975372314453125">
        <ele>2152.39990234375</ele>
        <time>2020-08-13T11:59:24.000Z</time>
      </trkpt>
      <trkpt lat="42.52747778780758380889892578125" lon="1.07380033470690250396728515625">
        <ele>2152.800048828125</ele>
        <time>2020-08-13T11:59:27.000Z</time>
      </trkpt>
      <trkpt lat="42.52735742367804050445556640625" lon="1.07393167912960052490234375">
        <ele>2154</ele>
        <time>2020-08-13T11:59:35.000Z</time>
      </trkpt>
      <trkpt lat="42.527197413146495819091796875" lon="1.07405648566782474517822265625">
        <ele>2154.199951171875</ele>
        <time>2020-08-13T11:59:45.000Z</time>
      </trkpt>
      <trkpt lat="42.527143768966197967529296875" lon="1.0740793682634830474853515625">
        <ele>2154.800048828125</ele>
        <time>2020-08-13T11:59:48.000Z</time>
      </trkpt>
      <trkpt lat="42.52703488804399967193603515625" lon="1.07412437908351421356201171875">
        <ele>2155.800048828125</ele>
        <time>2020-08-13T11:59:54.000Z</time>
      </trkpt>
      <trkpt lat="42.52699951641261577606201171875" lon="1.07414030469954013824462890625">
        <ele>2156</ele>
        <time>2020-08-13T11:59:56.000Z</time>
      </trkpt>
      <trkpt lat="42.5268626399338245391845703125" lon="1.074179448187351226806640625">
        <ele>2156.60009765625</ele>
        <time>2020-08-13T12:00:04.000Z</time>
      </trkpt>
      <trkpt lat="42.5268475525081157684326171875" lon="1.07418573461472988128662109375">
        <ele>2157</ele>
        <time>2020-08-13T12:00:05.000Z</time>
      </trkpt>
      <trkpt lat="42.52673012204468250274658203125" lon="1.0742124728858470916748046875">
        <ele>2157.800048828125</ele>
        <time>2020-08-13T12:00:12.000Z</time>
      </trkpt>
      <trkpt lat="42.526679746806621551513671875" lon="1.0742248781025409698486328125">
        <ele>2158</ele>
        <time>2020-08-13T12:00:15.000Z</time>
      </trkpt>
      <trkpt lat="42.52655393444001674652099609375" lon="1.07424843125045299530029296875">
        <ele>2158.39990234375</ele>
        <time>2020-08-13T12:00:23.000Z</time>
      </trkpt>
      <trkpt lat="42.5264878012239933013916015625" lon="1.074253879487514495849609375">
        <ele>2159</ele>
        <time>2020-08-13T12:00:27.000Z</time>
      </trkpt>
      <trkpt lat="42.52643709070980548858642578125" lon="1.07425781898200511932373046875">
        <ele>2159.199951171875</ele>
        <time>2020-08-13T12:00:30.000Z</time>
      </trkpt>
      <trkpt lat="42.526283450424671173095703125" lon="1.074269972741603851318359375">
        <ele>2159.800048828125</ele>
        <time>2020-08-13T12:00:39.000Z</time>
      </trkpt>
      <trkpt lat="42.526231817901134490966796875" lon="1.074284724891185760498046875">
        <ele>2160</ele>
        <time>2020-08-13T12:00:42.000Z</time>
      </trkpt>
      <trkpt lat="42.5261417962610721588134765625" lon="1.07428095303475856781005859375">
        <ele>2159.800048828125</ele>
        <time>2020-08-13T12:00:47.000Z</time>
      </trkpt>
      <trkpt lat="42.52599368803203105926513671875" lon="1.07428682036697864532470703125">
        <ele>2160.60009765625</ele>
        <time>2020-08-13T12:00:55.000Z</time>
      </trkpt>
      <trkpt lat="42.52595722675323486328125" lon="1.0742879100143909454345703125">
        <ele>2160.800048828125</ele>
        <time>2020-08-13T12:00:57.000Z</time>
      </trkpt>
      <trkpt lat="42.525815404951572418212890625" lon="1.07427634298801422119140625">
        <ele>2161</ele>
        <time>2020-08-13T12:01:05.000Z</time>
      </trkpt>
      <trkpt lat="42.5256908498704433441162109375" lon="1.07428212650120258331298828125">
        <ele>2162</ele>
        <time>2020-08-13T12:01:12.000Z</time>
      </trkpt>
      <trkpt lat="42.5256368704140186309814453125" lon="1.07428967021405696868896484375">
        <ele>2162.60009765625</ele>
        <time>2020-08-13T12:01:15.000Z</time>
      </trkpt>
      <trkpt lat="42.5256020016968250274658203125" lon="1.074287407100200653076171875">
        <ele>2163</ele>
        <time>2020-08-13T12:01:17.000Z</time>
      </trkpt>
      <trkpt lat="42.52551189623773097991943359375" lon="1.07429168187081813812255859375">
        <ele>2163.60009765625</ele>
        <time>2020-08-13T12:01:22.000Z</time>
      </trkpt>
      <trkpt lat="42.525421120226383209228515625" lon="1.07429243624210357666015625">
        <ele>2164.199951171875</ele>
        <time>2020-08-13T12:01:27.000Z</time>
      </trkpt>
      <trkpt lat="42.525330595672130584716796875" lon="1.074296794831752777099609375">
        <ele>2164.800048828125</ele>
        <time>2020-08-13T12:01:32.000Z</time>
      </trkpt>
      <trkpt lat="42.52524317242205142974853515625" lon="1.07429620809853076934814453125">
        <ele>2165.39990234375</ele>
        <time>2020-08-13T12:01:37.000Z</time>
      </trkpt>
      <trkpt lat="42.52518944442272186279296875" lon="1.07430693693459033966064453125">
        <ele>2165.39990234375</ele>
        <time>2020-08-13T12:01:40.000Z</time>
      </trkpt>
      <trkpt lat="42.5251161865890026092529296875" lon="1.07431515119969844818115234375">
        <ele>2166.199951171875</ele>
        <time>2020-08-13T12:01:44.000Z</time>
      </trkpt>
      <trkpt lat="42.5250605307519435882568359375" lon="1.07432638294994831085205078125">
        <ele>2166.800048828125</ele>
        <time>2020-08-13T12:01:47.000Z</time>
      </trkpt>
      <trkpt lat="42.524968497455120086669921875" lon="1.0743371956050395965576171875">
        <ele>2167.199951171875</ele>
        <time>2020-08-13T12:01:52.000Z</time>
      </trkpt>
      <trkpt lat="42.52493304200470447540283203125" lon="1.07433308847248554229736328125">
        <ele>2167.800048828125</ele>
        <time>2020-08-13T12:01:54.000Z</time>
      </trkpt>
      <trkpt lat="42.52486162818968296051025390625" lon="1.0743375308811664581298828125">
        <ele>2168.199951171875</ele>
        <time>2020-08-13T12:01:58.000Z</time>
      </trkpt>
      <trkpt lat="42.52477546222507953643798828125" lon="1.0743371956050395965576171875">
        <ele>2169</ele>
        <time>2020-08-13T12:02:03.000Z</time>
      </trkpt>
      <trkpt lat="42.5247219018638134002685546875" lon="1.07434683479368686676025390625">
        <ele>2169.39990234375</ele>
        <time>2020-08-13T12:02:06.000Z</time>
      </trkpt>
      <trkpt lat="42.52461545169353485107421875" lon="1.0743516124784946441650390625">
        <ele>2169.199951171875</ele>
        <time>2020-08-13T12:02:12.000Z</time>
      </trkpt>
      <trkpt lat="42.52449600957334041595458984375" lon="1.0743579827249050140380859375">
        <ele>2169.60009765625</ele>
        <time>2020-08-13T12:02:19.000Z</time>
      </trkpt>
      <trkpt lat="42.524393163621425628662109375" lon="1.07436561025679111480712890625">
        <ele>2170.39990234375</ele>
        <time>2020-08-13T12:02:25.000Z</time>
      </trkpt>
      <trkpt lat="42.52430859021842479705810546875" lon="1.07436242513358592987060546875">
        <ele>2170.60009765625</ele>
        <time>2020-08-13T12:02:30.000Z</time>
      </trkpt>
      <trkpt lat="42.52422560937702655792236328125" lon="1.0743643529713153839111328125">
        <ele>2171.39990234375</ele>
        <time>2020-08-13T12:02:35.000Z</time>
      </trkpt>
      <trkpt lat="42.52417699433863162994384765625" lon="1.0743549652397632598876953125">
        <ele>2171.800048828125</ele>
        <time>2020-08-13T12:02:38.000Z</time>
      </trkpt>
      <trkpt lat="42.52412804402410984039306640625" lon="1.07435404323041439056396484375">
        <ele>2172.39990234375</ele>
        <time>2020-08-13T12:02:41.000Z</time>
      </trkpt>
      <trkpt lat="42.5240409560501575469970703125" lon="1.0743459127843379974365234375">
        <ele>2173.39990234375</ele>
        <time>2020-08-13T12:02:46.000Z</time>
      </trkpt>
      <trkpt lat="42.52402394078671932220458984375" lon="1.07434432022273540496826171875">
        <ele>2173.60009765625</ele>
        <time>2020-08-13T12:02:47.000Z</time>
      </trkpt>
      <trkpt lat="42.52397431991994380950927734375" lon="1.07432437129318714141845703125">
        <ele>2174.60009765625</ele>
        <time>2020-08-13T12:02:50.000Z</time>
      </trkpt>
      <trkpt lat="42.52388815395534038543701171875" lon="1.07429352588951587677001953125">
        <ele>2175</ele>
        <time>2020-08-13T12:02:55.000Z</time>
      </trkpt>
      <trkpt lat="42.5238542072474956512451171875" lon="1.074295453727245330810546875">
        <ele>2175.60009765625</ele>
        <time>2020-08-13T12:02:57.000Z</time>
      </trkpt>
      <trkpt lat="42.52378740347921848297119140625" lon="1.07430760748684406280517578125">
        <ele>2176.39990234375</ele>
        <time>2020-08-13T12:03:01.000Z</time>
      </trkpt>
      <trkpt lat="42.52374364994466304779052734375" lon="1.07428296469151973724365234375">
        <ele>2176.39990234375</ele>
        <time>2020-08-13T12:03:04.000Z</time>
      </trkpt>
      <trkpt lat="42.5236999802291393280029296875" lon="1.07426427304744720458984375">
        <ele>2177.199951171875</ele>
        <time>2020-08-13T12:03:07.000Z</time>
      </trkpt>
      <trkpt lat="42.5236285664141178131103515625" lon="1.0742513649165630340576171875">
        <ele>2177.60009765625</ele>
        <time>2020-08-13T12:03:12.000Z</time>
      </trkpt>
      <trkpt lat="42.52359780482947826385498046875" lon="1.07424289919435977935791015625">
        <ele>2178.800048828125</ele>
        <time>2020-08-13T12:03:14.000Z</time>
      </trkpt>
      <trkpt lat="42.52356511540710926055908203125" lon="1.07424574904143810272216796875">
        <ele>2179.199951171875</ele>
        <time>2020-08-13T12:03:16.000Z</time>
      </trkpt>
      <trkpt lat="42.52348263747990131378173828125" lon="1.0741957090795040130615234375">
        <ele>2179.60009765625</ele>
        <time>2020-08-13T12:03:22.000Z</time>
      </trkpt>
      <trkpt lat="42.52338607795536518096923828125" lon="1.074118427932262420654296875">
        <ele>2179.39990234375</ele>
        <time>2020-08-13T12:03:29.000Z</time>
      </trkpt>
      <trkpt lat="42.52336026169359683990478515625" lon="1.07409604825079441070556640625">
        <ele>2180.199951171875</ele>
        <time>2020-08-13T12:03:31.000Z</time>
      </trkpt>
      <trkpt lat="42.52331734634935855865478515625" lon="1.0740364529192447662353515625">
        <ele>2181.39990234375</ele>
        <time>2020-08-13T12:03:35.000Z</time>
      </trkpt>
      <trkpt lat="42.523282058537006378173828125" lon="1.07399513013660907745361328125">
        <ele>2182.39990234375</ele>
        <time>2020-08-13T12:03:38.000Z</time>
      </trkpt>
      <trkpt lat="42.523246519267559051513671875" lon="1.07392891310155391693115234375">
        <ele>2183.60009765625</ele>
        <time>2020-08-13T12:03:42.000Z</time>
      </trkpt>
      <trkpt lat="42.52322874963283538818359375" lon="1.07387426309287548065185546875">
        <ele>2184.60009765625</ele>
        <time>2020-08-13T12:03:45.000Z</time>
      </trkpt>
      <trkpt lat="42.52321257255971431732177734375" lon="1.07379161752760410308837890625">
        <ele>2185.800048828125</ele>
        <time>2020-08-13T12:03:49.000Z</time>
      </trkpt>
      <trkpt lat="42.52319614402949810028076171875" lon="1.07370176352560520172119140625">
        <ele>2186.60009765625</ele>
        <time>2020-08-13T12:03:53.000Z</time>
      </trkpt>
      <trkpt lat="42.5231813080608844757080078125" lon="1.0735912062227725982666015625">
        <ele>2187.199951171875</ele>
        <time>2020-08-13T12:03:58.000Z</time>
      </trkpt>
      <trkpt lat="42.52317401580512523651123046875" lon="1.07353362254798412322998046875">
        <ele>2187.800048828125</ele>
        <time>2020-08-13T12:04:01.000Z</time>
      </trkpt>
      <trkpt lat="42.5231645442545413970947265625" lon="1.07347142882645130157470703125">
        <ele>2188</ele>
        <time>2020-08-13T12:04:04.000Z</time>
      </trkpt>
      <trkpt lat="42.5231625325977802276611328125" lon="1.07338610105216503143310546875">
        <ele>2188</ele>
        <time>2020-08-13T12:04:08.000Z</time>
      </trkpt>
      <trkpt lat="42.5231601856648921966552734375" lon="1.07336414046585559844970703125">
        <ele>2188</ele>
        <time>2020-08-13T12:04:09.000Z</time>
      </trkpt>
      <trkpt lat="42.52313344739377498626708984375" lon="1.07324612326920032501220703125">
        <ele>2187</ele>
        <time>2020-08-13T12:04:14.000Z</time>
      </trkpt>
      <trkpt lat="42.523111402988433837890625" lon="1.07315576635301113128662109375">
        <ele>2186.800048828125</ele>
        <time>2020-08-13T12:04:18.000Z</time>
      </trkpt>
      <trkpt lat="42.5230907835066318511962890625" lon="1.07300908304750919342041015625">
        <ele>2186.60009765625</ele>
        <time>2020-08-13T12:04:24.000Z</time>
      </trkpt>
      <trkpt lat="42.523089610040187835693359375" lon="1.07279215939342975616455078125">
        <ele>2187.199951171875</ele>
        <time>2020-08-13T12:04:33.000Z</time>
      </trkpt>
      <trkpt lat="42.52310427837073802947998046875" lon="1.072567440569400787353515625">
        <ele>2186.800048828125</ele>
        <time>2020-08-13T12:04:41.000Z</time>
      </trkpt>
      <trkpt lat="42.52311953343451023101806640625" lon="1.07246643863618373870849609375">
        <ele>2185.60009765625</ele>
        <time>2020-08-13T12:04:44.000Z</time>
      </trkpt>
      <trkpt lat="42.52313596196472644805908203125" lon="1.07232746668159961700439453125">
        <ele>2184.800048828125</ele>
        <time>2020-08-13T12:04:48.000Z</time>
      </trkpt>
      <trkpt lat="42.5231377221643924713134765625" lon="1.07229511253535747528076171875">
        <ele>2184.39990234375</ele>
        <time>2020-08-13T12:04:49.000Z</time>
      </trkpt>
      <trkpt lat="42.52313495613634586334228515625" lon="1.07210886664688587188720703125">
        <ele>2184.199951171875</ele>
        <time>2020-08-13T12:04:55.000Z</time>
      </trkpt>
      <trkpt lat="42.523100338876247406005859375" lon="1.07184835709631443023681640625">
        <ele>2183.800048828125</ele>
        <time>2020-08-13T12:05:02.000Z</time>
      </trkpt>
      <trkpt lat="42.52302850596606731414794921875" lon="1.07158415950834751129150390625">
        <ele>2183.800048828125</ele>
        <time>2020-08-13T12:05:10.000Z</time>
      </trkpt>
      <trkpt lat="42.52300956286489963531494140625" lon="1.0715185292065143585205078125">
        <ele>2183.39990234375</ele>
        <time>2020-08-13T12:05:12.000Z</time>
      </trkpt>
      <trkpt lat="42.52294887788593769073486328125" lon="1.07131325639784336090087890625">
        <ele>2182.800048828125</ele>
        <time>2020-08-13T12:05:18.000Z</time>
      </trkpt>
      <trkpt lat="42.522870004177093505859375" lon="1.0710199736058712005615234375">
        <ele>2182.800048828125</ele>
        <time>2020-08-13T12:05:27.000Z</time>
      </trkpt>
      <trkpt lat="42.5227819941937923431396484375" lon="1.0706645809113979339599609375">
        <ele>2183</ele>
        <time>2020-08-13T12:05:37.000Z</time>
      </trkpt>
      <trkpt lat="42.522751651704311370849609375" lon="1.0704057477414608001708984375">
        <ele>2183.199951171875</ele>
        <time>2020-08-13T12:05:44.000Z</time>
      </trkpt>
      <trkpt lat="42.52274586819112300872802734375" lon="1.0701492615044116973876953125">
        <ele>2183.60009765625</ele>
        <time>2020-08-13T12:05:51.000Z</time>
      </trkpt>
      <trkpt lat="42.52274938859045505523681640625" lon="1.07005722820758819580078125">
        <ele>2183.199951171875</ele>
        <time>2020-08-13T12:05:54.000Z</time>
      </trkpt>
      <trkpt lat="42.52275475300848484039306640625" lon="1.069917418062686920166015625">
        <ele>2182.800048828125</ele>
        <time>2020-08-13T12:05:58.000Z</time>
      </trkpt>
      <trkpt lat="42.52277721650898456573486328125" lon="1.0695554874837398529052734375">
        <ele>2182.39990234375</ele>
        <time>2020-08-13T12:06:08.000Z</time>
      </trkpt>
      <trkpt lat="42.52279900945723056793212890625" lon="1.06926706619560718536376953125">
        <ele>2183.199951171875</ele>
        <time>2020-08-13T12:06:16.000Z</time>
      </trkpt>
      <trkpt lat="42.52282901667058467864990234375" lon="1.069088615477085113525390625">
        <ele>2183.800048828125</ele>
        <time>2020-08-13T12:06:21.000Z</time>
      </trkpt>
      <trkpt lat="42.5228520669043064117431640625" lon="1.06894771568477153778076171875">
        <ele>2184.199951171875</ele>
        <time>2020-08-13T12:06:25.000Z</time>
      </trkpt>
      <trkpt lat="42.52291090786457061767578125" lon="1.0686321370303630828857421875">
        <ele>2184.60009765625</ele>
        <time>2020-08-13T12:06:34.000Z</time>
      </trkpt>
      <trkpt lat="42.5229362212121486663818359375" lon="1.06850028969347476959228515625">
        <ele>2185.60009765625</ele>
        <time>2020-08-13T12:06:38.000Z</time>
      </trkpt>
      <trkpt lat="42.5229878537356853485107421875" lon="1.06826056726276874542236328125">
        <ele>2186</ele>
        <time>2020-08-13T12:06:45.000Z</time>
      </trkpt>
      <trkpt lat="42.5230492092669010162353515625" lon="1.067956052720546722412109375">
        <ele>2186.199951171875</ele>
        <time>2020-08-13T12:06:54.000Z</time>
      </trkpt>
      <trkpt lat="42.52309287898242473602294921875" lon="1.06763611547648906707763671875">
        <ele>2185</ele>
        <time>2020-08-13T12:07:02.000Z</time>
      </trkpt>
      <trkpt lat="42.523084245622158050537109375" lon="1.067237220704555511474609375">
        <ele>2185.60009765625</ele>
        <time>2020-08-13T12:07:11.000Z</time>
      </trkpt>
      <trkpt lat="42.52298760227859020233154296875" lon="1.066898591816425323486328125">
        <ele>2185.60009765625</ele>
        <time>2020-08-13T12:07:19.000Z</time>
      </trkpt>
      <trkpt lat="42.52290076576173305511474609375" lon="1.06655233539640903472900390625">
        <ele>2184.800048828125</ele>
        <time>2020-08-13T12:07:26.000Z</time>
      </trkpt>
      <trkpt lat="42.522860281169414520263671875" lon="1.066333316266536712646484375">
        <ele>2184.39990234375</ele>
        <time>2020-08-13T12:07:30.000Z</time>
      </trkpt>
      <trkpt lat="42.52280504442751407623291015625" lon="1.06605176813900470733642578125">
        <ele>2184.199951171875</ele>
        <time>2020-08-13T12:07:35.000Z</time>
      </trkpt>
      <trkpt lat="42.52278157509863376617431640625" lon="1.065932996571063995361328125">
        <ele>2182.60009765625</ele>
        <time>2020-08-13T12:07:37.000Z</time>
      </trkpt>
      <trkpt lat="42.52275508828461170196533203125" lon="1.065815985202789306640625">
        <ele>2181.39990234375</ele>
        <time>2020-08-13T12:07:39.000Z</time>
      </trkpt>
      <trkpt lat="42.52272072248160839080810546875" lon="1.06570425443351268768310546875">
        <ele>2180.39990234375</ele>
        <time>2020-08-13T12:07:41.000Z</time>
      </trkpt>
      <trkpt lat="42.52267965115606784820556640625" lon="1.06559763662517070770263671875">
        <ele>2179.800048828125</ele>
        <time>2020-08-13T12:07:43.000Z</time>
      </trkpt>
      <trkpt lat="42.522561214864253997802734375" lon="1.065206788480281829833984375">
        <ele>2180.39990234375</ele>
        <time>2020-08-13T12:07:50.000Z</time>
      </trkpt>
      <trkpt lat="42.52253271639347076416015625" lon="1.0650272481143474578857421875">
        <ele>2179.39990234375</ele>
        <time>2020-08-13T12:07:53.000Z</time>
      </trkpt>
      <trkpt lat="42.52251754514873027801513671875" lon="1.0649736039340496063232421875">
        <ele>2179.199951171875</ele>
        <time>2020-08-13T12:07:54.000Z</time>
      </trkpt>
      <trkpt lat="42.52247513271868228912353515625" lon="1.064866147935390472412109375">
        <ele>2179</ele>
        <time>2020-08-13T12:07:56.000Z</time>
      </trkpt>
      <trkpt lat="42.5224480591714382171630859375" lon="1.06481015682220458984375">
        <ele>2179</ele>
        <time>2020-08-13T12:07:57.000Z</time>
      </trkpt>
      <trkpt lat="42.5223659165203571319580078125" lon="1.0646178759634494781494140625">
        <ele>2179</ele>
        <time>2020-08-13T12:08:00.000Z</time>
      </trkpt>
      <trkpt lat="42.52234630286693572998046875" lon="1.06454537250101566314697265625">
        <ele>2179</ele>
        <time>2020-08-13T12:08:01.000Z</time>
      </trkpt>
      <trkpt lat="42.52230917103588581085205078125" lon="1.06434504501521587371826171875">
        <ele>2180.60009765625</ele>
        <time>2020-08-13T12:08:04.000Z</time>
      </trkpt>
      <trkpt lat="42.522290982306003570556640625" lon="1.0642527602612972259521484375">
        <ele>2181</ele>
        <time>2020-08-13T12:08:06.000Z</time>
      </trkpt>
      <trkpt lat="42.522239349782466888427734375" lon="1.0640593059360980987548828125">
        <ele>2182</ele>
        <time>2020-08-13T12:08:12.000Z</time>
      </trkpt>
      <trkpt lat="42.5222304649651050567626953125" lon="1.06397657655179500579833984375">
        <ele>2183</ele>
        <time>2020-08-13T12:08:15.000Z</time>
      </trkpt>
      <trkpt lat="42.5222167186439037322998046875" lon="1.06388286687433719635009765625">
        <ele>2184.199951171875</ele>
        <time>2020-08-13T12:08:19.000Z</time>
      </trkpt>
      <trkpt lat="42.522164918482303619384765625" lon="1.0637350939214229583740234375">
        <ele>2184.60009765625</ele>
        <time>2020-08-13T12:08:26.000Z</time>
      </trkpt>
      <trkpt lat="42.52205201424658298492431640625" lon="1.06366946361958980560302734375">
        <ele>2184.60009765625</ele>
        <time>2020-08-13T12:08:32.000Z</time>
      </trkpt>
      <trkpt lat="42.52197003923356533050537109375" lon="1.06365052051842212677001953125">
        <ele>2185.199951171875</ele>
        <time>2020-08-13T12:08:36.000Z</time>
      </trkpt>
      <trkpt lat="42.521871216595172882080078125" lon="1.06365756131708621978759765625">
        <ele>2186</ele>
        <time>2020-08-13T12:08:41.000Z</time>
      </trkpt>
      <trkpt lat="42.5217801891267299652099609375" lon="1.06370734982192516326904296875">
        <ele>2186.199951171875</ele>
        <time>2020-08-13T12:08:46.000Z</time>
      </trkpt>
      <trkpt lat="42.52174724824726581573486328125" lon="1.06373299844563007354736328125">
        <ele>2186.800048828125</ele>
        <time>2020-08-13T12:08:48.000Z</time>
      </trkpt>
      <trkpt lat="42.521604001522064208984375" lon="1.063799969851970672607421875">
        <ele>2187.199951171875</ele>
        <time>2020-08-13T12:08:56.000Z</time>
      </trkpt>
      <trkpt lat="42.52158564515411853790283203125" lon="1.06380407698452472686767578125">
        <ele>2187.39990234375</ele>
        <time>2020-08-13T12:08:57.000Z</time>
      </trkpt>
      <trkpt lat="42.5214953720569610595703125" lon="1.0637981258332729339599609375">
        <ele>2188.60009765625</ele>
        <time>2020-08-13T12:09:02.000Z</time>
      </trkpt>
      <trkpt lat="42.5214019976556301116943359375" lon="1.06370014138519763946533203125">
        <ele>2189</ele>
        <time>2020-08-13T12:09:07.000Z</time>
      </trkpt>
      <trkpt lat="42.521260343492031097412109375" lon="1.063562594354152679443359375">
        <ele>2187.199951171875</ele>
        <time>2020-08-13T12:09:12.000Z</time>
      </trkpt>
      <trkpt lat="42.52118465490639209747314453125" lon="1.06354557909071445465087890625">
        <ele>2185.800048828125</ele>
        <time>2020-08-13T12:09:14.000Z</time>
      </trkpt>
      <trkpt lat="42.52100612036883831024169921875" lon="1.06351473368704319000244140625">
        <ele>2184.800048828125</ele>
        <time>2020-08-13T12:09:18.000Z</time>
      </trkpt>
      <trkpt lat="42.520904280245304107666015625" lon="1.0634983889758586883544921875">
        <ele>2183.39990234375</ele>
        <time>2020-08-13T12:09:20.000Z</time>
      </trkpt>
      <trkpt lat="42.52085206098854541778564453125" lon="1.063494868576526641845703125">
        <ele>2182.39990234375</ele>
        <time>2020-08-13T12:09:21.000Z</time>
      </trkpt>
      <trkpt lat="42.5207979977130889892578125" lon="1.0634957067668437957763671875">
        <ele>2181.39990234375</ele>
        <time>2020-08-13T12:09:22.000Z</time>
      </trkpt>
      <trkpt lat="42.5207421742379665374755859375" lon="1.06350333429872989654541015625">
        <ele>2181</ele>
        <time>2020-08-13T12:09:23.000Z</time>
      </trkpt>
      <trkpt lat="42.52068744041025638580322265625" lon="1.0635215230286121368408203125">
        <ele>2180.60009765625</ele>
        <time>2020-08-13T12:09:24.000Z</time>
      </trkpt>
      <trkpt lat="42.5205845944583415985107421875" lon="1.0635803639888763427734375">
        <ele>2180.199951171875</ele>
        <time>2020-08-13T12:09:26.000Z</time>
      </trkpt>
      <trkpt lat="42.52053354866802692413330078125" lon="1.06361900456249713897705078125">
        <ele>2180</ele>
        <time>2020-08-13T12:09:27.000Z</time>
      </trkpt>
      <trkpt lat="42.52048225142061710357666015625" lon="1.06366024352610111236572265625">
        <ele>2179</ele>
        <time>2020-08-13T12:09:28.000Z</time>
      </trkpt>
      <trkpt lat="42.52043120563030242919921875" lon="1.06370416469871997833251953125">
        <ele>2178</ele>
        <time>2020-08-13T12:09:29.000Z</time>
      </trkpt>
      <trkpt lat="42.520331628620624542236328125" lon="1.06380273588001728057861328125">
        <ele>2176.800048828125</ele>
        <time>2020-08-13T12:09:31.000Z</time>
      </trkpt>
      <trkpt lat="42.5202392600476741790771484375" lon="1.06391496956348419189453125">
        <ele>2176.60009765625</ele>
        <time>2020-08-13T12:09:33.000Z</time>
      </trkpt>
      <trkpt lat="42.52016566693782806396484375" lon="1.06405050493776798248291015625">
        <ele>2176.199951171875</ele>
        <time>2020-08-13T12:09:35.000Z</time>
      </trkpt>
      <trkpt lat="42.52010942436754703521728515625" lon="1.0641726292669773101806640625">
        <ele>2176.39990234375</ele>
        <time>2020-08-13T12:09:37.000Z</time>
      </trkpt>
      <trkpt lat="42.5200491584837436676025390625" lon="1.06424462981522083282470703125">
        <ele>2176.39990234375</ele>
        <time>2020-08-13T12:09:39.000Z</time>
      </trkpt>
      <trkpt lat="42.51998252235352993011474609375" lon="1.064271032810211181640625">
        <ele>2178.60009765625</ele>
        <time>2020-08-13T12:09:41.000Z</time>
      </trkpt>
      <trkpt lat="42.519949413836002349853515625" lon="1.064271032810211181640625">
        <ele>2178.39990234375</ele>
        <time>2020-08-13T12:09:42.000Z</time>
      </trkpt>
      <trkpt lat="42.5199167244136333465576171875" lon="1.0642718710005283355712890625">
        <ele>2177.800048828125</ele>
        <time>2020-08-13T12:09:43.000Z</time>
      </trkpt>
      <trkpt lat="42.51985042355954647064208984375" lon="1.06427094899117946624755859375">
        <ele>2177.39990234375</ele>
        <time>2020-08-13T12:09:45.000Z</time>
      </trkpt>
      <trkpt lat="42.519785463809967041015625" lon="1.06427170336246490478515625">
        <ele>2176</ele>
        <time>2020-08-13T12:09:47.000Z</time>
      </trkpt>
      <trkpt lat="42.5197011418640613555908203125" lon="1.064278073608875274658203125">
        <ele>2175.39990234375</ele>
        <time>2020-08-13T12:09:50.000Z</time>
      </trkpt>
      <trkpt lat="42.51954180188477039337158203125" lon="1.0643416084349155426025390625">
        <ele>2176.199951171875</ele>
        <time>2020-08-13T12:09:57.000Z</time>
      </trkpt>
      <trkpt lat="42.51936997286975383758544921875" lon="1.06451167725026607513427734375">
        <ele>2176.199951171875</ele>
        <time>2020-08-13T12:10:05.000Z</time>
      </trkpt>
      <trkpt lat="42.51930090598762035369873046875" lon="1.06468786485493183135986328125">
        <ele>2176.199951171875</ele>
        <time>2020-08-13T12:10:10.000Z</time>
      </trkpt>
      <trkpt lat="42.51911818049848079681396484375" lon="1.06502498500049114227294921875">
        <ele>2175.199951171875</ele>
        <time>2020-08-13T12:10:20.000Z</time>
      </trkpt>
      <trkpt lat="42.5190181843936443328857421875" lon="1.06527677737176418304443359375">
        <ele>2175.199951171875</ele>
        <time>2020-08-13T12:10:27.000Z</time>
      </trkpt>
      <trkpt lat="42.5189222954213619232177734375" lon="1.06557701714336872100830078125">
        <ele>2175.60009765625</ele>
        <time>2020-08-13T12:10:36.000Z</time>
      </trkpt>
      <trkpt lat="42.5189051963388919830322265625" lon="1.06585596688091754913330078125">
        <ele>2175.39990234375</ele>
        <time>2020-08-13T12:10:44.000Z</time>
      </trkpt>
      <trkpt lat="42.5187970697879791259765625" lon="1.065987646579742431640625">
        <ele>2175.60009765625</ele>
        <time>2020-08-13T12:10:50.000Z</time>
      </trkpt>
      <trkpt lat="42.5186128355562686920166015625" lon="1.06612318195402622222900390625">
        <ele>2177.199951171875</ele>
        <time>2020-08-13T12:11:00.000Z</time>
      </trkpt>
      <trkpt lat="42.51854904927313327789306640625" lon="1.06614950112998485565185546875">
        <ele>2178.39990234375</ele>
        <time>2020-08-13T12:11:03.000Z</time>
      </trkpt>
      <trkpt lat="42.51838870346546173095703125" lon="1.066197864711284637451171875">
        <ele>2178.800048828125</ele>
        <time>2020-08-13T12:11:10.000Z</time>
      </trkpt>
      <trkpt lat="42.51831938512623310089111328125" lon="1.066207252442836761474609375">
        <ele>2179.39990234375</ele>
        <time>2020-08-13T12:11:13.000Z</time>
      </trkpt>
      <trkpt lat="42.51815794967114925384521484375" lon="1.06620985083281993865966796875">
        <ele>2180.199951171875</ele>
        <time>2020-08-13T12:11:20.000Z</time>
      </trkpt>
      <trkpt lat="42.51801193691790103912353515625" lon="1.06618487276136875152587890625">
        <ele>2179.60009765625</ele>
        <time>2020-08-13T12:11:26.000Z</time>
      </trkpt>
      <trkpt lat="42.51782200299203395843505859375" lon="1.0661041550338268280029296875">
        <ele>2178.199951171875</ele>
        <time>2020-08-13T12:11:33.000Z</time>
      </trkpt>
      <trkpt lat="42.5177939236164093017578125" lon="1.066091917455196380615234375">
        <ele>2178</ele>
        <time>2020-08-13T12:11:34.000Z</time>
      </trkpt>
      <trkpt lat="42.51767464913427829742431640625" lon="1.06604523025453090667724609375">
        <ele>2177.199951171875</ele>
        <time>2020-08-13T12:11:38.000Z</time>
      </trkpt>
      <trkpt lat="42.51748773269355297088623046875" lon="1.0660005547106266021728515625">
        <ele>2177.199951171875</ele>
        <time>2020-08-13T12:11:44.000Z</time>
      </trkpt>
      <trkpt lat="42.51716435886919498443603515625" lon="1.065998710691928863525390625">
        <ele>2176.60009765625</ele>
        <time>2020-08-13T12:11:54.000Z</time>
      </trkpt>
      <trkpt lat="42.51708506606519222259521484375" lon="1.06605193577706813812255859375">
        <ele>2176.199951171875</ele>
        <time>2020-08-13T12:11:57.000Z</time>
      </trkpt>
      <trkpt lat="42.51704500056803226470947265625" lon="1.06611169874668121337890625">
        <ele>2175.800048828125</ele>
        <time>2020-08-13T12:11:59.000Z</time>
      </trkpt>
      <trkpt lat="42.51694257371127605438232421875" lon="1.06637497432529926300048828125">
        <ele>2176.199951171875</ele>
        <time>2020-08-13T12:12:06.000Z</time>
      </trkpt>
      <trkpt lat="42.516893707215785980224609375" lon="1.066511683166027069091796875">
        <ele>2177.199951171875</ele>
        <time>2020-08-13T12:12:10.000Z</time>
      </trkpt>
      <trkpt lat="42.516874261200428009033203125" lon="1.0665809176862239837646484375">
        <ele>2178</ele>
        <time>2020-08-13T12:12:12.000Z</time>
      </trkpt>
      <trkpt lat="42.51684182323515415191650390625" lon="1.0666848532855510711669921875">
        <ele>2178.800048828125</ele>
        <time>2020-08-13T12:12:15.000Z</time>
      </trkpt>
      <trkpt lat="42.51677191816270351409912109375" lon="1.06688953936100006103515625">
        <ele>2176.800048828125</ele>
        <time>2020-08-13T12:12:21.000Z</time>
      </trkpt>
      <trkpt lat="42.51670586876571178436279296875" lon="1.06705323792994022369384765625">
        <ele>2177.800048828125</ele>
        <time>2020-08-13T12:12:26.000Z</time>
      </trkpt>
      <trkpt lat="42.5166917033493518829345703125" lon="1.06708341278135776519775390625">
        <ele>2178</ele>
        <time>2020-08-13T12:12:27.000Z</time>
      </trkpt>
      <trkpt lat="42.516575194895267486572265625" lon="1.06730821542441844940185546875">
        <ele>2178.39990234375</ele>
        <time>2020-08-13T12:12:35.000Z</time>
      </trkpt>
      <trkpt lat="42.51652850769460201263427734375" lon="1.0673778690397739410400390625">
        <ele>2179</ele>
        <time>2020-08-13T12:12:38.000Z</time>
      </trkpt>
      <trkpt lat="42.516481988131999969482421875" lon="1.06744115240871906280517578125">
        <ele>2180.199951171875</ele>
        <time>2020-08-13T12:12:41.000Z</time>
      </trkpt>
      <trkpt lat="42.51644854433834552764892578125" lon="1.06748121790587902069091796875">
        <ele>2180.60009765625</ele>
        <time>2020-08-13T12:12:43.000Z</time>
      </trkpt>
      <trkpt lat="42.5162779726088047027587890625" lon="1.06761801056563854217529296875">
        <ele>2180.800048828125</ele>
        <time>2020-08-13T12:12:52.000Z</time>
      </trkpt>
      <trkpt lat="42.51610279083251953125" lon="1.06769763864576816558837890625">
        <ele>2180.800048828125</ele>
        <time>2020-08-13T12:13:00.000Z</time>
      </trkpt>
      <trkpt lat="42.51594261266291141510009765625" lon="1.067713312804698944091796875">
        <ele>2180.60009765625</ele>
        <time>2020-08-13T12:13:07.000Z</time>
      </trkpt>
      <trkpt lat="42.51574966125190258026123046875" lon="1.06765665113925933837890625">
        <ele>2179.800048828125</ele>
        <time>2020-08-13T12:13:15.000Z</time>
      </trkpt>
      <trkpt lat="42.5155899859964847564697265625" lon="1.0675066150724887847900390625">
        <ele>2181</ele>
        <time>2020-08-13T12:13:23.000Z</time>
      </trkpt>
      <trkpt lat="42.515515387058258056640625" lon="1.06742589734494686126708984375">
        <ele>2182</ele>
        <time>2020-08-13T12:13:27.000Z</time>
      </trkpt>
      <trkpt lat="42.51542779617011547088623046875" lon="1.06737476773560047149658203125">
        <ele>2183.39990234375</ele>
        <time>2020-08-13T12:13:31.000Z</time>
      </trkpt>
      <trkpt lat="42.5154039077460765838623046875" lon="1.067369319498538970947265625">
        <ele>2183.60009765625</ele>
        <time>2020-08-13T12:13:32.000Z</time>
      </trkpt>
      <trkpt lat="42.515241801738739013671875" lon="1.06733604334294795989990234375">
        <ele>2184.39990234375</ele>
        <time>2020-08-13T12:13:39.000Z</time>
      </trkpt>
      <trkpt lat="42.51520148478448390960693359375" lon="1.0673139989376068115234375">
        <ele>2184.60009765625</ele>
        <time>2020-08-13T12:13:41.000Z</time>
      </trkpt>
      <trkpt lat="42.51507022418081760406494140625" lon="1.06728851795196533203125">
        <ele>2185</ele>
        <time>2020-08-13T12:13:47.000Z</time>
      </trkpt>
      <trkpt lat="42.51493846066296100616455078125" lon="1.0672735981643199920654296875">
        <ele>2185.800048828125</ele>
        <time>2020-08-13T12:13:54.000Z</time>
      </trkpt>
      <trkpt lat="42.51492169685661792755126953125" lon="1.0672749392688274383544921875">
        <ele>2186</ele>
        <time>2020-08-13T12:13:55.000Z</time>
      </trkpt>
      <trkpt lat="42.5147710740566253662109375" lon="1.06725540943443775177001953125">
        <ele>2186.60009765625</ele>
        <time>2020-08-13T12:14:04.000Z</time>
      </trkpt>
      <trkpt lat="42.51470024697482585906982421875" lon="1.0672179423272609710693359375">
        <ele>2186.800048828125</ele>
        <time>2020-08-13T12:14:08.000Z</time>
      </trkpt>
      <trkpt lat="42.51463553868234157562255859375" lon="1.0671584308147430419921875">
        <ele>2187.39990234375</ele>
        <time>2020-08-13T12:14:12.000Z</time>
      </trkpt>
      <trkpt lat="42.51451483927667140960693359375" lon="1.06707167811691761016845703125">
        <ele>2187.60009765625</ele>
        <time>2020-08-13T12:14:19.000Z</time>
      </trkpt>
      <trkpt lat="42.5144517235457897186279296875" lon="1.067062206566333770751953125">
        <ele>2188</ele>
        <time>2020-08-13T12:14:22.000Z</time>
      </trkpt>
      <trkpt lat="42.51435332000255584716796875" lon="1.067070923745632171630859375">
        <ele>2188.199951171875</ele>
        <time>2020-08-13T12:14:26.000Z</time>
      </trkpt>
      <trkpt lat="42.51424443908035755157470703125" lon="1.06714124791324138641357421875">
        <ele>2188.800048828125</ele>
        <time>2020-08-13T12:14:31.000Z</time>
      </trkpt>
      <trkpt lat="42.5141781382262706756591796875" lon="1.0671867616474628448486328125">
        <ele>2189.60009765625</ele>
        <time>2020-08-13T12:14:34.000Z</time>
      </trkpt>
      <trkpt lat="42.5141556747257709503173828125" lon="1.06720210053026676177978515625">
        <ele>2189.800048828125</ele>
        <time>2020-08-13T12:14:35.000Z</time>
      </trkpt>
      <trkpt lat="42.51413337886333465576171875" lon="1.06721735559403896331787109375">
        <ele>2189.800048828125</ele>
        <time>2020-08-13T12:14:36.000Z</time>
      </trkpt>
      <trkpt lat="42.51399516128003597259521484375" lon="1.06730150990188121795654296875">
        <ele>2190.800048828125</ele>
        <time>2020-08-13T12:14:43.000Z</time>
      </trkpt>
      <trkpt lat="42.513831295073032379150390625" lon="1.06740846298635005950927734375">
        <ele>2190.800048828125</ele>
        <time>2020-08-13T12:14:51.000Z</time>
      </trkpt>
      <trkpt lat="42.51364965923130512237548828125" lon="1.06753192842006683349609375">
        <ele>2190.60009765625</ele>
        <time>2020-08-13T12:15:00.000Z</time>
      </trkpt>
      <trkpt lat="42.51361168920993804931640625" lon="1.06756134890019893646240234375">
        <ele>2191</ele>
        <time>2020-08-13T12:15:02.000Z</time>
      </trkpt>
      <trkpt lat="42.51351554878056049346923828125" lon="1.06766360811889171600341796875">
        <ele>2191.39990234375</ele>
        <time>2020-08-13T12:15:07.000Z</time>
      </trkpt>
      <trkpt lat="42.5133721344172954559326171875" lon="1.06790986843407154083251953125">
        <ele>2191.60009765625</ele>
        <time>2020-08-13T12:15:17.000Z</time>
      </trkpt>
      <trkpt lat="42.5133382715284824371337890625" lon="1.0679790191352367401123046875">
        <ele>2192.199951171875</ele>
        <time>2020-08-13T12:15:20.000Z</time>
      </trkpt>
      <trkpt lat="42.5132849626243114471435546875" lon="1.06808857060968875885009765625">
        <ele>2193.39990234375</ele>
        <time>2020-08-13T12:15:25.000Z</time>
      </trkpt>
      <trkpt lat="42.51327431760728359222412109375" lon="1.06810935772955417633056640625">
        <ele>2193.39990234375</ele>
        <time>2020-08-13T12:15:26.000Z</time>
      </trkpt>
      <trkpt lat="42.51324062235653400421142578125" lon="1.06817222200334072113037109375">
        <ele>2194.39990234375</ele>
        <time>2020-08-13T12:15:29.000Z</time>
      </trkpt>
      <trkpt lat="42.51317440532147884368896484375" lon="1.06828655116260051727294921875">
        <ele>2194.800048828125</ele>
        <time>2020-08-13T12:15:35.000Z</time>
      </trkpt>
      <trkpt lat="42.51307566650211811065673828125" lon="1.06841747649013996124267578125">
        <ele>2195</ele>
        <time>2020-08-13T12:15:43.000Z</time>
      </trkpt>
      <trkpt lat="42.513036690652370452880859375" lon="1.06846709735691547393798828125">
        <ele>2195.60009765625</ele>
        <time>2020-08-13T12:15:46.000Z</time>
      </trkpt>
      <trkpt lat="42.51298396848142147064208984375" lon="1.0685288719832897186279296875">
        <ele>2196.800048828125</ele>
        <time>2020-08-13T12:15:50.000Z</time>
      </trkpt>
      <trkpt lat="42.5129594095051288604736328125" lon="1.0685664229094982147216796875">
        <ele>2197</ele>
        <time>2020-08-13T12:15:52.000Z</time>
      </trkpt>
      <trkpt lat="42.512897551059722900390625" lon="1.06871075928211212158203125">
        <ele>2197.60009765625</ele>
        <time>2020-08-13T12:15:59.000Z</time>
      </trkpt>
      <trkpt lat="42.51281616277992725372314453125" lon="1.0688832588493824005126953125">
        <ele>2198.39990234375</ele>
        <time>2020-08-13T12:16:07.000Z</time>
      </trkpt>
      <trkpt lat="42.51274927519261837005615234375" lon="1.0689784772694110870361328125">
        <ele>2198.60009765625</ele>
        <time>2020-08-13T12:16:12.000Z</time>
      </trkpt>
      <trkpt lat="42.51270107924938201904296875" lon="1.06904930435121059417724609375">
        <ele>2198.800048828125</ele>
        <time>2020-08-13T12:16:16.000Z</time>
      </trkpt>
      <trkpt lat="42.51258381642401218414306640625" lon="1.06919917277991771697998046875">
        <ele>2199</ele>
        <time>2020-08-13T12:16:24.000Z</time>
      </trkpt>
      <trkpt lat="42.51245825551450252532958984375" lon="1.0693603567779064178466796875">
        <ele>2199.60009765625</ele>
        <time>2020-08-13T12:16:31.000Z</time>
      </trkpt>
      <trkpt lat="42.512425482273101806640625" lon="1.06940218247473239898681640625">
        <ele>2200.39990234375</ele>
        <time>2020-08-13T12:16:33.000Z</time>
      </trkpt>
      <trkpt lat="42.5124107301235198974609375" lon="1.0694248974323272705078125">
        <ele>2201</ele>
        <time>2020-08-13T12:16:34.000Z</time>
      </trkpt>
      <trkpt lat="42.51230168156325817108154296875" lon="1.06955607421696186065673828125">
        <ele>2201.39990234375</ele>
        <time>2020-08-13T12:16:41.000Z</time>
      </trkpt>
      <trkpt lat="42.5122026912868022918701171875" lon="1.06969320215284824371337890625">
        <ele>2201.60009765625</ele>
        <time>2020-08-13T12:16:48.000Z</time>
      </trkpt>
      <trkpt lat="42.51214510761201381683349609375" lon="1.06976645998656749725341796875">
        <ele>2202.199951171875</ele>
        <time>2020-08-13T12:16:52.000Z</time>
      </trkpt>
      <trkpt lat="42.5120447762310504913330078125" lon="1.06989487074315547943115234375">
        <ele>2203.199951171875</ele>
        <time>2020-08-13T12:16:59.000Z</time>
      </trkpt>
      <trkpt lat="42.51194067299365997314453125" lon="1.0700268857181072235107421875">
        <ele>2204</ele>
        <time>2020-08-13T12:17:07.000Z</time>
      </trkpt>
      <trkpt lat="42.5118942372500896453857421875" lon="1.07006519101560115814208984375">
        <ele>2203.199951171875</ele>
        <time>2020-08-13T12:17:12.000Z</time>
      </trkpt>
      <trkpt lat="42.51174897886812686920166015625" lon="1.07020583935081958770751953125">
        <ele>2203.800048828125</ele>
        <time>2020-08-13T12:17:20.000Z</time>
      </trkpt>
      <trkpt lat="42.51157312653958797454833984375" lon="1.07036844827234745025634765625">
        <ele>2203.800048828125</ele>
        <time>2020-08-13T12:17:29.000Z</time>
      </trkpt>
      <trkpt lat="42.51138386316597461700439453125" lon="1.0705408640205860137939453125">
        <ele>2204.39990234375</ele>
        <time>2020-08-13T12:17:39.000Z</time>
      </trkpt>
      <trkpt lat="42.51119812019169330596923828125" lon="1.0706796683371067047119140625">
        <ele>2204</ele>
        <time>2020-08-13T12:17:48.000Z</time>
      </trkpt>
      <trkpt lat="42.51100148074328899383544921875" lon="1.07087873853743076324462890625">
        <ele>2204.60009765625</ele>
        <time>2020-08-13T12:17:58.000Z</time>
      </trkpt>
      <trkpt lat="42.5108443200588226318359375" lon="1.07108795084059238433837890625">
        <ele>2205.199951171875</ele>
        <time>2020-08-13T12:18:07.000Z</time>
      </trkpt>
      <trkpt lat="42.51082948409020900726318359375" lon="1.07111309655010700225830078125">
        <ele>2205.39990234375</ele>
        <time>2020-08-13T12:18:08.000Z</time>
      </trkpt>
      <trkpt lat="42.51073359511792659759521484375" lon="1.0712295211851596832275390625">
        <ele>2205.39990234375</ele>
        <time>2020-08-13T12:18:13.000Z</time>
      </trkpt>
      <trkpt lat="42.5106094591319561004638671875" lon="1.07150637544691562652587890625">
        <ele>2205</ele>
        <time>2020-08-13T12:18:22.000Z</time>
      </trkpt>
      <trkpt lat="42.51058020628988742828369140625" lon="1.0716093890368938446044921875">
        <ele>2204.39990234375</ele>
        <time>2020-08-13T12:18:25.000Z</time>
      </trkpt>
      <trkpt lat="42.5105450861155986785888671875" lon="1.0717481933534145355224609375">
        <ele>2204.60009765625</ele>
        <time>2020-08-13T12:18:29.000Z</time>
      </trkpt>
      <trkpt lat="42.51052178442478179931640625" lon="1.071855984628200531005859375">
        <ele>2205.800048828125</ele>
        <time>2020-08-13T12:18:35.000Z</time>
      </trkpt>
      <trkpt lat="42.510524131357669830322265625" lon="1.07185506261885166168212890625">
        <ele>2207</ele>
        <time>2020-08-13T12:18:39.000Z</time>
      </trkpt>
      <trkpt lat="42.510524131357669830322265625" lon="1.071854643523693084716796875">
        <ele>2206.800048828125</ele>
        <time>2020-08-13T12:18:42.000Z</time>
      </trkpt>
      <trkpt lat="42.51052421517670154571533203125" lon="1.0718538053333759307861328125">
        <ele>2205.39990234375</ele>
        <time>2020-08-13T12:18:44.000Z</time>
      </trkpt>
      <trkpt lat="42.5105236284434795379638671875" lon="1.07185372151434421539306640625">
        <ele>2204.800048828125</ele>
        <time>2020-08-13T12:18:50.000Z</time>
      </trkpt>
      <trkpt lat="42.51051130704581737518310546875" lon="1.0718791186809539794921875">
        <ele>2205.39990234375</ele>
        <time>2020-08-13T12:18:58.000Z</time>
      </trkpt>
      <trkpt lat="42.51047844998538494110107421875" lon="1.071969307959079742431640625">
        <ele>2204.60009765625</ele>
        <time>2020-08-13T12:19:09.000Z</time>
      </trkpt>
      <trkpt lat="42.51047777943313121795654296875" lon="1.07196905650198459625244140625">
        <ele>2204</ele>
        <time>2020-08-13T12:19:11.000Z</time>
      </trkpt>
      <trkpt lat="42.5104673020541667938232421875" lon="1.07200426049530506134033203125">
        <ele>2204</ele>
        <time>2020-08-13T12:19:19.000Z</time>
      </trkpt>
      <trkpt lat="42.51046470366418361663818359375" lon="1.0720051825046539306640625">
        <ele>2203.60009765625</ele>
        <time>2020-08-13T12:19:34.000Z</time>
      </trkpt>
      <trkpt lat="42.5104619376361370086669921875" lon="1.0720144025981426239013671875">
        <ele>2205</ele>
        <time>2020-08-13T12:19:54.000Z</time>
      </trkpt>
      <trkpt lat="42.51045405864715576171875" lon="1.0720378719270229339599609375">
        <ele>2205</ele>
        <time>2020-08-13T12:19:58.000Z</time>
      </trkpt>
      <trkpt lat="42.5104545615613460540771484375" lon="1.07203803956508636474609375">
        <ele>2204</ele>
        <time>2020-08-13T12:20:02.000Z</time>
      </trkpt>
      <trkpt lat="42.51045472919940948486328125" lon="1.0720373690128326416015625">
        <ele>2205.800048828125</ele>
        <time>2020-08-13T12:20:15.000Z</time>
      </trkpt>
      <trkpt lat="42.5104545615613460540771484375" lon="1.07203678227961063385009765625">
        <ele>2204.39990234375</ele>
        <time>2020-08-13T12:20:23.000Z</time>
      </trkpt>
      <trkpt lat="42.51045330427587032318115234375" lon="1.07204348780214786529541015625">
        <ele>2203.800048828125</ele>
        <time>2020-08-13T12:20:25.000Z</time>
      </trkpt>
      <trkpt lat="42.51045204699039459228515625" lon="1.07204784639179706573486328125">
        <ele>2203.199951171875</ele>
        <time>2020-08-13T12:20:26.000Z</time>
      </trkpt>
      <trkpt lat="42.5104481913149356842041015625" lon="1.07206360436975955963134765625">
        <ele>2203.39990234375</ele>
        <time>2020-08-13T12:20:31.000Z</time>
      </trkpt>
      <trkpt lat="42.510416172444820404052734375" lon="1.0722304880619049072265625">
        <ele>2204.199951171875</ele>
        <time>2020-08-13T12:20:38.000Z</time>
      </trkpt>
      <trkpt lat="42.5104062817990779876708984375" lon="1.0722594894468784332275390625">
        <ele>2204.39990234375</ele>
        <time>2020-08-13T12:20:39.000Z</time>
      </trkpt>
      <trkpt lat="42.5103227980434894561767578125" lon="1.07243609614670276641845703125">
        <ele>2204.800048828125</ele>
        <time>2020-08-13T12:20:46.000Z</time>
      </trkpt>
      <trkpt lat="42.51016312278807163238525390625" lon="1.07261337339878082275390625">
        <ele>2204.60009765625</ele>
        <time>2020-08-13T12:20:55.000Z</time>
      </trkpt>
      <trkpt lat="42.50995910726487636566162109375" lon="1.07277053408324718475341796875">
        <ele>2203.60009765625</ele>
        <time>2020-08-13T12:21:05.000Z</time>
      </trkpt>
      <trkpt lat="42.50991434790194034576416015625" lon="1.07279903255403041839599609375">
        <ele>2203</ele>
        <time>2020-08-13T12:21:07.000Z</time>
      </trkpt>
      <trkpt lat="42.5098202191293239593505859375" lon="1.07286072336137294769287109375">
        <ele>2201.800048828125</ele>
        <time>2020-08-13T12:21:11.000Z</time>
      </trkpt>
      <trkpt lat="42.50974704511463642120361328125" lon="1.0729032196104526519775390625">
        <ele>2201.39990234375</ele>
        <time>2020-08-13T12:21:14.000Z</time>
      </trkpt>
      <trkpt lat="42.50956599600613117218017578125" lon="1.07300740666687488555908203125">
        <ele>2202</ele>
        <time>2020-08-13T12:21:22.000Z</time>
      </trkpt>
      <trkpt lat="42.5093927420675754547119140625" lon="1.073052920401096343994140625">
        <ele>2201.60009765625</ele>
        <time>2020-08-13T12:21:29.000Z</time>
      </trkpt>
      <trkpt lat="42.50923709012567996978759765625" lon="1.07298083603382110595703125">
        <ele>2201.199951171875</ele>
        <time>2020-08-13T12:21:35.000Z</time>
      </trkpt>
      <trkpt lat="42.5091738067567348480224609375" lon="1.0729330591857433319091796875">
        <ele>2200.800048828125</ele>
        <time>2020-08-13T12:21:37.000Z</time>
      </trkpt>
      <trkpt lat="42.50909929163753986358642578125" lon="1.07288352213799953460693359375">
        <ele>2199.39990234375</ele>
        <time>2020-08-13T12:21:39.000Z</time>
      </trkpt>
      <trkpt lat="42.50901731662452220916748046875" lon="1.0728232562541961669921875">
        <ele>2199</ele>
        <time>2020-08-13T12:21:41.000Z</time>
      </trkpt>
      <trkpt lat="42.5088881514966487884521484375" lon="1.07270884327590465545654296875">
        <ele>2198.199951171875</ele>
        <time>2020-08-13T12:21:44.000Z</time>
      </trkpt>
      <trkpt lat="42.508788742125034332275390625" lon="1.07263457961380481719970703125">
        <ele>2196.60009765625</ele>
        <time>2020-08-13T12:21:46.000Z</time>
      </trkpt>
      <trkpt lat="42.5087342597544193267822265625" lon="1.07260054908692836761474609375">
        <ele>2196.39990234375</ele>
        <time>2020-08-13T12:21:47.000Z</time>
      </trkpt>
      <trkpt lat="42.508300580084323883056640625" lon="1.072312295436859130859375">
        <ele>2195</ele>
        <time>2020-08-13T12:21:55.000Z</time>
      </trkpt>
      <trkpt lat="42.50811450183391571044921875" lon="1.07214222662150859832763671875">
        <ele>2193.800048828125</ele>
        <time>2020-08-13T12:21:59.000Z</time>
      </trkpt>
      <trkpt lat="42.50801987014710903167724609375" lon="1.0720955394208431243896484375">
        <ele>2194.199951171875</ele>
        <time>2020-08-13T12:22:01.000Z</time>
      </trkpt>
      <trkpt lat="42.50797242857515811920166015625" lon="1.0720838047564029693603515625">
        <ele>2194.800048828125</ele>
        <time>2020-08-13T12:22:02.000Z</time>
      </trkpt>
      <trkpt lat="42.50792264007031917572021484375" lon="1.0720781050622463226318359375">
        <ele>2195.199951171875</ele>
        <time>2020-08-13T12:22:03.000Z</time>
      </trkpt>
      <trkpt lat="42.5078715942800045013427734375" lon="1.07207399792969226837158203125">
        <ele>2195.800048828125</ele>
        <time>2020-08-13T12:22:04.000Z</time>
      </trkpt>
      <trkpt lat="42.50772080384194850921630859375" lon="1.0720589943230152130126953125">
        <ele>2196</ele>
        <time>2020-08-13T12:22:07.000Z</time>
      </trkpt>
      <trkpt lat="42.507515363395214080810546875" lon="1.0720579884946346282958984375">
        <ele>2194.60009765625</ele>
        <time>2020-08-13T12:22:11.000Z</time>
      </trkpt>
      <trkpt lat="42.507406733930110931396484375" lon="1.07206578366458415985107421875">
        <ele>2194.199951171875</ele>
        <time>2020-08-13T12:22:13.000Z</time>
      </trkpt>
      <trkpt lat="42.5071611441671848297119140625" lon="1.07205891050398349761962890625">
        <ele>2193.199951171875</ele>
        <time>2020-08-13T12:22:18.000Z</time>
      </trkpt>
      <trkpt lat="42.5071232579648494720458984375" lon="1.072056479752063751220703125">
        <ele>2193</ele>
        <time>2020-08-13T12:22:19.000Z</time>
      </trkpt>
      <trkpt lat="42.50699006952345371246337890625" lon="1.0720727406442165374755859375">
        <ele>2193</ele>
        <time>2020-08-13T12:22:24.000Z</time>
      </trkpt>
      <trkpt lat="42.5068801827728748321533203125" lon="1.07211205177009105682373046875">
        <ele>2194.60009765625</ele>
        <time>2020-08-13T12:22:30.000Z</time>
      </trkpt>
      <trkpt lat="42.50684673897922039031982421875" lon="1.0721203498542308807373046875">
        <ele>2195.199951171875</ele>
        <time>2020-08-13T12:22:32.000Z</time>
      </trkpt>
      <trkpt lat="42.50681337900459766387939453125" lon="1.07212680391967296600341796875">
        <ele>2195.60009765625</ele>
        <time>2020-08-13T12:22:34.000Z</time>
      </trkpt>
      <trkpt lat="42.50674615614116191864013671875" lon="1.07214105315506458282470703125">
        <ele>2196.800048828125</ele>
        <time>2020-08-13T12:22:38.000Z</time>
      </trkpt>
      <trkpt lat="42.50659896992146968841552734375" lon="1.072161756455898284912109375">
        <ele>2197.60009765625</ele>
        <time>2020-08-13T12:22:47.000Z</time>
      </trkpt>
      <trkpt lat="42.50658296048641204833984375" lon="1.0721602477133274078369140625">
        <ele>2197.800048828125</ele>
        <time>2020-08-13T12:22:48.000Z</time>
      </trkpt>
      <trkpt lat="42.50644658692181110382080078125" lon="1.07217810116708278656005859375">
        <ele>2197.60009765625</ele>
        <time>2020-08-13T12:22:56.000Z</time>
      </trkpt>
      <trkpt lat="42.50635572709143161773681640625" lon="1.07219872064888477325439453125">
        <ele>2198.800048828125</ele>
        <time>2020-08-13T12:23:02.000Z</time>
      </trkpt>
      <trkpt lat="42.50632672570645809173583984375" lon="1.07221062295138835906982421875">
        <ele>2199.199951171875</ele>
        <time>2020-08-13T12:23:04.000Z</time>
      </trkpt>
      <trkpt lat="42.50628146342933177947998046875" lon="1.0722135566174983978271484375">
        <ele>2200</ele>
        <time>2020-08-13T12:23:07.000Z</time>
      </trkpt>
      <trkpt lat="42.5062391348183155059814453125" lon="1.07222713530063629150390625">
        <ele>2201.199951171875</ele>
        <time>2020-08-13T12:23:10.000Z</time>
      </trkpt>
      <trkpt lat="42.5062237121164798736572265625" lon="1.07223107479512691497802734375">
        <ele>2201.60009765625</ele>
        <time>2020-08-13T12:23:11.000Z</time>
      </trkpt>
      <trkpt lat="42.506122626364231109619140625" lon="1.07227097265422344207763671875">
        <ele>2201.60009765625</ele>
        <time>2020-08-13T12:23:18.000Z</time>
      </trkpt>
      <trkpt lat="42.50609437935054302215576171875" lon="1.072279103100299835205078125">
        <ele>2202.60009765625</ele>
        <time>2020-08-13T12:23:20.000Z</time>
      </trkpt>
      <trkpt lat="42.50602849759161472320556640625" lon="1.07230768539011478424072265625">
        <ele>2203.199951171875</ele>
        <time>2020-08-13T12:23:25.000Z</time>
      </trkpt>
      <trkpt lat="42.5059769488871097564697265625" lon="1.07233048416674137115478515625">
        <ele>2203.60009765625</ele>
        <time>2020-08-13T12:23:29.000Z</time>
      </trkpt>
      <trkpt lat="42.50596110709011554718017578125" lon="1.0723412968218326568603515625">
        <ele>2204.60009765625</ele>
        <time>2020-08-13T12:23:32.000Z</time>
      </trkpt>
      <trkpt lat="42.5059615261852741241455078125" lon="1.0723404586315155029296875">
        <ele>2204.800048828125</ele>
        <time>2020-08-13T12:23:33.000Z</time>
      </trkpt>
      <trkpt lat="42.50596177764236927032470703125" lon="1.07234020717442035675048828125">
        <ele>2205.39990234375</ele>
        <time>2020-08-13T12:23:45.000Z</time>
      </trkpt>
      <trkpt lat="42.5059568323194980621337890625" lon="1.07234339229762554168701171875">
        <ele>2205.800048828125</ele>
        <time>2020-08-13T12:23:46.000Z</time>
      </trkpt>
      <trkpt lat="42.505926154553890228271484375" lon="1.0723500140011310577392578125">
        <ele>2206.199951171875</ele>
        <time>2020-08-13T12:23:53.000Z</time>
      </trkpt>
      <trkpt lat="42.5059256516396999359130859375" lon="1.072350181639194488525390625">
        <ele>2204.60009765625</ele>
        <time>2020-08-13T12:23:55.000Z</time>
      </trkpt>
      <trkpt lat="42.50592271797358989715576171875" lon="1.07235764153301715850830078125">
        <ele>2205.60009765625</ele>
        <time>2020-08-13T12:24:04.000Z</time>
      </trkpt>
      <trkpt lat="42.50591886229813098907470703125" lon="1.07236132957041263580322265625">
        <ele>2205.800048828125</ele>
        <time>2020-08-13T12:24:07.000Z</time>
      </trkpt>
      <trkpt lat="42.50590226612985134124755859375" lon="1.07236929237842559814453125">
        <ele>2205.60009765625</ele>
        <time>2020-08-13T12:24:14.000Z</time>
      </trkpt>
      <trkpt lat="42.50590436160564422607421875" lon="1.07236937619745731353759765625">
        <ele>2206.199951171875</ele>
        <time>2020-08-13T12:24:17.000Z</time>
      </trkpt>
      <trkpt lat="42.5059021823108196258544921875" lon="1.07236568816006183624267578125">
        <ele>2205.199951171875</ele>
        <time>2020-08-13T12:24:30.000Z</time>
      </trkpt>
      <trkpt lat="42.50590167939662933349609375" lon="1.07236769981682300567626953125">
        <ele>2205.800048828125</ele>
        <time>2020-08-13T12:24:45.000Z</time>
      </trkpt>
      <trkpt lat="42.505891285836696624755859375" lon="1.07236870564520359039306640625">
        <ele>2205.199951171875</ele>
        <time>2020-08-13T12:24:58.000Z</time>
      </trkpt>
      <trkpt lat="42.50585448928177356719970703125" lon="1.072365939617156982421875">
        <ele>2206.60009765625</ele>
        <time>2020-08-13T12:25:05.000Z</time>
      </trkpt>
      <trkpt lat="42.5058518908917903900146484375" lon="1.07236702926456928253173828125">
        <ele>2207.39990234375</ele>
        <time>2020-08-13T12:25:07.000Z</time>
      </trkpt>
      <trkpt lat="42.50582062639296054840087890625" lon="1.07237792573869228363037109375">
        <ele>2205.800048828125</ele>
        <time>2020-08-13T12:25:15.000Z</time>
      </trkpt>
      <trkpt lat="42.5057948939502239227294921875" lon="1.07238496653735637664794921875">
        <ele>2205.39990234375</ele>
        <time>2020-08-13T12:25:17.000Z</time>
      </trkpt>
      <trkpt lat="42.50570059753954410552978515625" lon="1.0723956115543842315673828125">
        <ele>2206.199951171875</ele>
        <time>2020-08-13T12:25:23.000Z</time>
      </trkpt>
      <trkpt lat="42.50568551011383533477783203125" lon="1.0723986290395259857177734375">
        <ele>2206.39990234375</ele>
        <time>2020-08-13T12:25:24.000Z</time>
      </trkpt>
      <trkpt lat="42.50559565611183643341064453125" lon="1.07240617275238037109375">
        <ele>2207</ele>
        <time>2020-08-13T12:25:30.000Z</time>
      </trkpt>
      <trkpt lat="42.50553824007511138916015625" lon="1.07242201454937458038330078125">
        <ele>2207.60009765625</ele>
        <time>2020-08-13T12:25:34.000Z</time>
      </trkpt>
      <trkpt lat="42.50550814904272556304931640625" lon="1.072417236864566802978515625">
        <ele>2208.199951171875</ele>
        <time>2020-08-13T12:25:36.000Z</time>
      </trkpt>
      <trkpt lat="42.5054048001766204833984375" lon="1.07243609614670276641845703125">
        <ele>2208.199951171875</ele>
        <time>2020-08-13T12:25:43.000Z</time>
      </trkpt>
      <trkpt lat="42.505360543727874755859375" lon="1.07244481332600116729736328125">
        <ele>2208.800048828125</ele>
        <time>2020-08-13T12:25:46.000Z</time>
      </trkpt>
      <trkpt lat="42.50530312769114971160888671875" lon="1.0724799335002899169921875">
        <ele>2209.199951171875</ele>
        <time>2020-08-13T12:25:50.000Z</time>
      </trkpt>
      <trkpt lat="42.50517371110618114471435546875" lon="1.07257456518709659576416015625">
        <ele>2209.39990234375</ele>
        <time>2020-08-13T12:25:59.000Z</time>
      </trkpt>
      <trkpt lat="42.50510464422404766082763671875" lon="1.07262603007256984710693359375">
        <ele>2209.800048828125</ele>
        <time>2020-08-13T12:26:04.000Z</time>
      </trkpt>
      <trkpt lat="42.50504747964441776275634765625" lon="1.07267498038709163665771484375">
        <ele>2210.60009765625</ele>
        <time>2020-08-13T12:26:08.000Z</time>
      </trkpt>
      <trkpt lat="42.5050039775669574737548828125" lon="1.07270984910428524017333984375">
        <ele>2211</ele>
        <time>2020-08-13T12:26:11.000Z</time>
      </trkpt>
      <trkpt lat="42.50494320876896381378173828125" lon="1.07277975417673587799072265625">
        <ele>2211.60009765625</ele>
        <time>2020-08-13T12:26:16.000Z</time>
      </trkpt>
      <trkpt lat="42.5048671849071979522705078125" lon="1.072867847979068756103515625">
        <ele>2212.199951171875</ele>
        <time>2020-08-13T12:26:22.000Z</time>
      </trkpt>
      <trkpt lat="42.50484623014926910400390625" lon="1.0729048959910869598388671875">
        <ele>2212.39990234375</ele>
        <time>2020-08-13T12:26:24.000Z</time>
      </trkpt>
      <trkpt lat="42.504776827991008758544921875" lon="1.07305996119976043701171875">
        <ele>2212.60009765625</ele>
        <time>2020-08-13T12:26:32.000Z</time>
      </trkpt>
      <trkpt lat="42.504752688109874725341796875" lon="1.0731265135109424591064453125">
        <ele>2213.199951171875</ele>
        <time>2020-08-13T12:26:35.000Z</time>
      </trkpt>
      <trkpt lat="42.5047075934708118438720703125" lon="1.0732247494161128997802734375">
        <ele>2213.60009765625</ele>
        <time>2020-08-13T12:26:40.000Z</time>
      </trkpt>
      <trkpt lat="42.504673562943935394287109375" lon="1.073331199586391448974609375">
        <ele>2214.60009765625</ele>
        <time>2020-08-13T12:26:45.000Z</time>
      </trkpt>
      <trkpt lat="42.50466459430754184722900390625" lon="1.07337738387286663055419921875">
        <ele>2215.39990234375</ele>
        <time>2020-08-13T12:26:47.000Z</time>
      </trkpt>
      <trkpt lat="42.50466006807982921600341796875" lon="1.07340001501142978668212890625">
        <ele>2215.800048828125</ele>
        <time>2020-08-13T12:26:48.000Z</time>
      </trkpt>
      <trkpt lat="42.50464732758700847625732421875" lon="1.07348768971860408782958984375">
        <ele>2216.800048828125</ele>
        <time>2020-08-13T12:26:52.000Z</time>
      </trkpt>
      <trkpt lat="42.50462419353425502777099609375" lon="1.0736005939543247222900390625">
        <ele>2216.800048828125</ele>
        <time>2020-08-13T12:26:57.000Z</time>
      </trkpt>
      <trkpt lat="42.5046073459088802337646484375" lon="1.07380636967718601226806640625">
        <ele>2216.800048828125</ele>
        <time>2020-08-13T12:27:05.000Z</time>
      </trkpt>
      <trkpt lat="42.5046023167669773101806640625" lon="1.0739254765212535858154296875">
        <ele>2218</ele>
        <time>2020-08-13T12:27:10.000Z</time>
      </trkpt>
      <trkpt lat="42.50458630733191967010498046875" lon="1.07396763749420642852783203125">
        <ele>2218.60009765625</ele>
        <time>2020-08-13T12:27:12.000Z</time>
      </trkpt>
      <trkpt lat="42.50451497733592987060546875" lon="1.07417785562574863433837890625">
        <ele>2218.199951171875</ele>
        <time>2020-08-13T12:27:21.000Z</time>
      </trkpt>
      <trkpt lat="42.50445387326180934906005859375" lon="1.0743529535830020904541015625">
        <ele>2218.800048828125</ele>
        <time>2020-08-13T12:27:29.000Z</time>
      </trkpt>
      <trkpt lat="42.504426799714565277099609375" lon="1.0744486749172210693359375">
        <ele>2219</ele>
        <time>2020-08-13T12:27:33.000Z</time>
      </trkpt>
      <trkpt lat="42.504383884370326995849609375" lon="1.07459343038499355316162109375">
        <ele>2219.39990234375</ele>
        <time>2020-08-13T12:27:39.000Z</time>
      </trkpt>
      <trkpt lat="42.50434775836765766143798828125" lon="1.0747088491916656494140625">
        <ele>2220.199951171875</ele>
        <time>2020-08-13T12:27:44.000Z</time>
      </trkpt>
      <trkpt lat="42.50429796986281871795654296875" lon="1.07480716891586780548095703125">
        <ele>2220.60009765625</ele>
        <time>2020-08-13T12:27:49.000Z</time>
      </trkpt>
      <trkpt lat="42.50420157797634601593017578125" lon="1.07495754025876522064208984375">
        <ele>2221</ele>
        <time>2020-08-13T12:27:57.000Z</time>
      </trkpt>
      <trkpt lat="42.50410937704145908355712890625" lon="1.0750784911215305328369140625">
        <ele>2221.199951171875</ele>
        <time>2020-08-13T12:28:04.000Z</time>
      </trkpt>
      <trkpt lat="42.50408037565648555755615234375" lon="1.0751113481819629669189453125">
        <ele>2221.60009765625</ele>
        <time>2020-08-13T12:28:06.000Z</time>
      </trkpt>
      <trkpt lat="42.5040142424404621124267578125" lon="1.07520262710750102996826171875">
        <ele>2222.39990234375</ele>
        <time>2020-08-13T12:28:11.000Z</time>
      </trkpt>
      <trkpt lat="42.50396872870624065399169921875" lon="1.07525124214589595794677734375">
        <ele>2222.800048828125</ele>
        <time>2020-08-13T12:28:14.000Z</time>
      </trkpt>
      <trkpt lat="42.5039381347596645355224609375" lon="1.0752836801111698150634765625">
        <ele>2223.39990234375</ele>
        <time>2020-08-13T12:28:16.000Z</time>
      </trkpt>
      <trkpt lat="42.50384216196835041046142578125" lon="1.07537244446575641632080078125">
        <ele>2224.60009765625</ele>
        <time>2020-08-13T12:28:22.000Z</time>
      </trkpt>
      <trkpt lat="42.50381014309823513031005859375" lon="1.075400523841381072998046875">
        <ele>2224.39990234375</ele>
        <time>2020-08-13T12:28:24.000Z</time>
      </trkpt>
      <trkpt lat="42.50366681255400180816650390625" lon="1.07553186826407909393310546875">
        <ele>2225.39990234375</ele>
        <time>2020-08-13T12:28:33.000Z</time>
      </trkpt>
      <trkpt lat="42.5035881064832210540771484375" lon="1.0755966603755950927734375">
        <ele>2225.800048828125</ele>
        <time>2020-08-13T12:28:38.000Z</time>
      </trkpt>
      <trkpt lat="42.50354125164449214935302734375" lon="1.07563932426273822784423828125">
        <ele>2226.199951171875</ele>
        <time>2020-08-13T12:28:41.000Z</time>
      </trkpt>
      <trkpt lat="42.50340580008924007415771484375" lon="1.07574485242366790771484375">
        <ele>2226.39990234375</ele>
        <time>2020-08-13T12:28:49.000Z</time>
      </trkpt>
      <trkpt lat="42.50335031189024448394775390625" lon="1.07578114606440067291259765625">
        <ele>2227</ele>
        <time>2020-08-13T12:28:52.000Z</time>
      </trkpt>
      <trkpt lat="42.5032786466181278228759765625" lon="1.07582825236022472381591796875">
        <ele>2227.60009765625</ele>
        <time>2020-08-13T12:28:56.000Z</time>
      </trkpt>
      <trkpt lat="42.50316917896270751953125" lon="1.07588105835020542144775390625">
        <ele>2228</ele>
        <time>2020-08-13T12:29:02.000Z</time>
      </trkpt>
      <trkpt lat="42.503132633864879608154296875" lon="1.07589480467140674591064453125">
        <ele>2228.60009765625</ele>
        <time>2020-08-13T12:29:04.000Z</time>
      </trkpt>
      <trkpt lat="42.50309533439576625823974609375" lon="1.07590519823133945465087890625">
        <ele>2229.199951171875</ele>
        <time>2020-08-13T12:29:06.000Z</time>
      </trkpt>
      <trkpt lat="42.50295418314635753631591796875" lon="1.07591592706739902496337890625">
        <ele>2229.39990234375</ele>
        <time>2020-08-13T12:29:13.000Z</time>
      </trkpt>
      <trkpt lat="42.50281722284853458404541015625" lon="1.07594341970980167388916015625">
        <ele>2229.800048828125</ele>
        <time>2020-08-13T12:29:20.000Z</time>
      </trkpt>
      <trkpt lat="42.50277690589427947998046875" lon="1.0759579204022884368896484375">
        <ele>2230</ele>
        <time>2020-08-13T12:29:22.000Z</time>
      </trkpt>
      <trkpt lat="42.50267724506556987762451171875" lon="1.07599941082298755645751953125">
        <ele>2231.199951171875</ele>
        <time>2020-08-13T12:29:27.000Z</time>
      </trkpt>
      <trkpt lat="42.50252905301749706268310546875" lon="1.07609328813850879669189453125">
        <ele>2230.39990234375</ele>
        <time>2020-08-13T12:29:35.000Z</time>
      </trkpt>
      <trkpt lat="42.50249234028160572052001953125" lon="1.07611642219126224517822265625">
        <ele>2230.199951171875</ele>
        <time>2020-08-13T12:29:37.000Z</time>
      </trkpt>
      <trkpt lat="42.502403073012828826904296875" lon="1.07617408968508243560791015625">
        <ele>2229.800048828125</ele>
        <time>2020-08-13T12:29:42.000Z</time>
      </trkpt>
      <trkpt lat="42.50221766531467437744140625" lon="1.07629361562430858612060546875">
        <ele>2231.60009765625</ele>
        <time>2020-08-13T12:29:52.000Z</time>
      </trkpt>
      <trkpt lat="42.5021967105567455291748046875" lon="1.07630400918424129486083984375">
        <ele>2232.199951171875</ele>
        <time>2020-08-13T12:29:53.000Z</time>
      </trkpt>
      <trkpt lat="42.5021762587130069732666015625" lon="1.076315157115459442138671875">
        <ele>2232.800048828125</ele>
        <time>2020-08-13T12:29:54.000Z</time>
      </trkpt>
      <trkpt lat="42.50200971029698848724365234375" lon="1.07639822177588939666748046875">
        <ele>2233.60009765625</ele>
        <time>2020-08-13T12:30:02.000Z</time>
      </trkpt>
      <trkpt lat="42.50198925845324993133544921875" lon="1.07640710659325122833251953125">
        <ele>2233.800048828125</ele>
        <time>2020-08-13T12:30:03.000Z</time>
      </trkpt>
      <trkpt lat="42.50182547606527805328369140625" lon="1.07648313045501708984375">
        <ele>2232.800048828125</ele>
        <time>2020-08-13T12:30:11.000Z</time>
      </trkpt>
      <trkpt lat="42.5018041022121906280517578125" lon="1.076493524014949798583984375">
        <ele>2232.60009765625</ele>
        <time>2020-08-13T12:30:12.000Z</time>
      </trkpt>
      <trkpt lat="42.50162481330335140228271484375" lon="1.07658714987337589263916015625">
        <ele>2232.39990234375</ele>
        <time>2020-08-13T12:30:21.000Z</time>
      </trkpt>
      <trkpt lat="42.50144544057548046112060546875" lon="1.0766883194446563720703125">
        <ele>2233.39990234375</ele>
        <time>2020-08-13T12:30:30.000Z</time>
      </trkpt>
      <trkpt lat="42.50140571035444736480712890625" lon="1.0767138004302978515625">
        <ele>2233.800048828125</ele>
        <time>2020-08-13T12:30:32.000Z</time>
      </trkpt>
      <trkpt lat="42.50129272229969501495361328125" lon="1.07678429223597049713134765625">
        <ele>2234.39990234375</ele>
        <time>2020-08-13T12:30:38.000Z</time>
      </trkpt>
      <trkpt lat="42.50111619941890239715576171875" lon="1.07689375989139080047607421875">
        <ele>2234.60009765625</ele>
        <time>2020-08-13T12:30:47.000Z</time>
      </trkpt>
      <trkpt lat="42.5010188855230808258056640625" lon="1.07695142738521099090576171875">
        <ele>2235</ele>
        <time>2020-08-13T12:30:52.000Z</time>
      </trkpt>
      <trkpt lat="42.50093950890004634857177734375" lon="1.07700037769973278045654296875">
        <ele>2235</ele>
        <time>2020-08-13T12:30:56.000Z</time>
      </trkpt>
      <trkpt lat="42.50090145505964756011962890625" lon="1.0770235955715179443359375">
        <ele>2235</ele>
        <time>2020-08-13T12:30:58.000Z</time>
      </trkpt>
      <trkpt lat="42.50076633878052234649658203125" lon="1.0771065764129161834716796875">
        <ele>2236</ele>
        <time>2020-08-13T12:31:05.000Z</time>
      </trkpt>
      <trkpt lat="42.50070565380156040191650390625" lon="1.077140606939792633056640625">
        <ele>2236</ele>
        <time>2020-08-13T12:31:08.000Z</time>
      </trkpt>
      <trkpt lat="42.50050901435315608978271484375" lon="1.07725082896649837493896484375">
        <ele>2236.39990234375</ele>
        <time>2020-08-13T12:31:18.000Z</time>
      </trkpt>
      <trkpt lat="42.500332407653331756591796875" lon="1.07734755612909793853759765625">
        <ele>2235.800048828125</ele>
        <time>2020-08-13T12:31:27.000Z</time>
      </trkpt>
      <trkpt lat="42.5002179108560085296630859375" lon="1.0774140246212482452392578125">
        <ele>2237</ele>
        <time>2020-08-13T12:31:33.000Z</time>
      </trkpt>
      <trkpt lat="42.50011825002729892730712890625" lon="1.07746875844895839691162109375">
        <ele>2237.39990234375</ele>
        <time>2020-08-13T12:31:38.000Z</time>
      </trkpt>
      <trkpt lat="42.49994440935552120208740234375" lon="1.0775414295494556427001953125">
        <ele>2238</ele>
        <time>2020-08-13T12:31:46.000Z</time>
      </trkpt>
      <trkpt lat="42.49978381209075450897216796875" lon="1.077595911920070648193359375">
        <ele>2238.800048828125</ele>
        <time>2020-08-13T12:31:53.000Z</time>
      </trkpt>
      <trkpt lat="42.4996442534029483795166015625" lon="1.0776383243501186370849609375">
        <ele>2239</ele>
        <time>2020-08-13T12:31:59.000Z</time>
      </trkpt>
      <trkpt lat="42.49958231113851070404052734375" lon="1.07765114866197109222412109375">
        <ele>2239.60009765625</ele>
        <time>2020-08-13T12:32:02.000Z</time>
      </trkpt>
      <trkpt lat="42.4995416589081287384033203125" lon="1.0776560939848423004150390625">
        <ele>2240</ele>
        <time>2020-08-13T12:32:04.000Z</time>
      </trkpt>
      <trkpt lat="42.4994395673274993896484375" lon="1.07765416614711284637451171875">
        <ele>2241.199951171875</ele>
        <time>2020-08-13T12:32:09.000Z</time>
      </trkpt>
      <trkpt lat="42.4993964843451976776123046875" lon="1.077644191682338714599609375">
        <ele>2241</ele>
        <time>2020-08-13T12:32:11.000Z</time>
      </trkpt>
      <trkpt lat="42.49922758899629116058349609375" lon="1.0775846801698207855224609375">
        <ele>2242.199951171875</ele>
        <time>2020-08-13T12:32:19.000Z</time>
      </trkpt>
      <trkpt lat="42.49920864589512348175048828125" lon="1.07757403515279293060302734375">
        <ele>2242.199951171875</ele>
        <time>2020-08-13T12:32:20.000Z</time>
      </trkpt>
      <trkpt lat="42.49915466643869876861572265625" lon="1.0775353945791721343994140625">
        <ele>2243.39990234375</ele>
        <time>2020-08-13T12:32:23.000Z</time>
      </trkpt>
      <trkpt lat="42.4990907125174999237060546875" lon="1.077466495335102081298828125">
        <ele>2243.800048828125</ele>
        <time>2020-08-13T12:32:27.000Z</time>
      </trkpt>
      <trkpt lat="42.4989948235452175140380859375" lon="1.07733749784529209136962890625">
        <ele>2242.199951171875</ele>
        <time>2020-08-13T12:32:33.000Z</time>
      </trkpt>
      <trkpt lat="42.4989512376487255096435546875" lon="1.0772752203047275543212890625">
        <ele>2241.39990234375</ele>
        <time>2020-08-13T12:32:36.000Z</time>
      </trkpt>
      <trkpt lat="42.49891796149313449859619140625" lon="1.07723574154078960418701171875">
        <ele>2241</ele>
        <time>2020-08-13T12:32:38.000Z</time>
      </trkpt>
      <trkpt lat="42.49881000258028507232666015625" lon="1.0770852863788604736328125">
        <ele>2240</ele>
        <time>2020-08-13T12:32:44.000Z</time>
      </trkpt>
      <trkpt lat="42.49879189766943454742431640625" lon="1.07705888338387012481689453125">
        <ele>2240</ele>
        <time>2020-08-13T12:32:45.000Z</time>
      </trkpt>
      <trkpt lat="42.4986649118363857269287109375" lon="1.07687649317085742950439453125">
        <ele>2239.39990234375</ele>
        <time>2020-08-13T12:32:52.000Z</time>
      </trkpt>
      <trkpt lat="42.49857195653021335601806640625" lon="1.0767635889351367950439453125">
        <ele>2239.60009765625</ele>
        <time>2020-08-13T12:32:57.000Z</time>
      </trkpt>
      <trkpt lat="42.4984925799071788787841796875" lon="1.07668228447437286376953125">
        <ele>2239.800048828125</ele>
        <time>2020-08-13T12:33:01.000Z</time>
      </trkpt>
      <trkpt lat="42.49827406369149684906005859375" lon="1.076468713581562042236328125">
        <ele>2240.199951171875</ele>
        <time>2020-08-13T12:33:11.000Z</time>
      </trkpt>
      <trkpt lat="42.49802260659635066986083984375" lon="1.07631255872547626495361328125">
        <ele>2240.199951171875</ele>
        <time>2020-08-13T12:33:21.000Z</time>
      </trkpt>
      <trkpt lat="42.497834600508213043212890625" lon="1.07620560564100742340087890625">
        <ele>2241</ele>
        <time>2020-08-13T12:33:29.000Z</time>
      </trkpt>
      <trkpt lat="42.49781205318868160247802734375" lon="1.076190434396266937255859375">
        <ele>2241.199951171875</ele>
        <time>2020-08-13T12:33:30.000Z</time>
      </trkpt>
      <trkpt lat="42.4976175092160701751708984375" lon="1.07605506666004657745361328125">
        <ele>2241.199951171875</ele>
        <time>2020-08-13T12:33:39.000Z</time>
      </trkpt>
      <trkpt lat="42.49738164246082305908203125" lon="1.07589832507073879241943359375">
        <ele>2242</ele>
        <time>2020-08-13T12:33:49.000Z</time>
      </trkpt>
      <trkpt lat="42.49718994833528995513916015625" lon="1.07581190764904022216796875">
        <ele>2241.800048828125</ele>
        <time>2020-08-13T12:33:57.000Z</time>
      </trkpt>
      <trkpt lat="42.49709154479205608367919921875" lon="1.07577703893184661865234375">
        <ele>2242.39990234375</ele>
        <time>2020-08-13T12:34:01.000Z</time>
      </trkpt>
      <trkpt lat="42.4970183707773685455322265625" lon="1.0757480375468730926513671875">
        <ele>2243.39990234375</ele>
        <time>2020-08-13T12:34:04.000Z</time>
      </trkpt>
      <trkpt lat="42.4969741143286228179931640625" lon="1.0757269151508808135986328125">
        <ele>2243.800048828125</ele>
        <time>2020-08-13T12:34:06.000Z</time>
      </trkpt>
      <trkpt lat="42.4968064762651920318603515625" lon="1.075638234615325927734375">
        <ele>2243.39990234375</ele>
        <time>2020-08-13T12:34:14.000Z</time>
      </trkpt>
      <trkpt lat="42.49662299640476703643798828125" lon="1.07551728375256061553955078125">
        <ele>2243.60009765625</ele>
        <time>2020-08-13T12:34:22.000Z</time>
      </trkpt>
      <trkpt lat="42.49643088318407535552978515625" lon="1.075397171080112457275390625">
        <ele>2242</ele>
        <time>2020-08-13T12:34:29.000Z</time>
      </trkpt>
      <trkpt lat="42.49630314297974109649658203125" lon="1.0753125138580799102783203125">
        <ele>2240.60009765625</ele>
        <time>2020-08-13T12:34:34.000Z</time>
      </trkpt>
      <trkpt lat="42.49628017656505107879638671875" lon="1.07528678141534328460693359375">
        <ele>2239.60009765625</ele>
        <time>2020-08-13T12:34:35.000Z</time>
      </trkpt>
      <trkpt lat="42.49616232700645923614501953125" lon="1.07521603815257549285888671875">
        <ele>2238.60009765625</ele>
        <time>2020-08-13T12:34:39.000Z</time>
      </trkpt>
      <trkpt lat="42.496126703917980194091796875" lon="1.07520983554422855377197265625">
        <ele>2238.39990234375</ele>
        <time>2020-08-13T12:34:40.000Z</time>
      </trkpt>
      <trkpt lat="42.49585806392133235931396484375" lon="1.07518334873020648956298828125">
        <ele>2237.39990234375</ele>
        <time>2020-08-13T12:34:47.000Z</time>
      </trkpt>
      <trkpt lat="42.4958190880715847015380859375" lon="1.07518049888312816619873046875">
        <ele>2237.199951171875</ele>
        <time>2020-08-13T12:34:48.000Z</time>
      </trkpt>
      <trkpt lat="42.49574088491499423980712890625" lon="1.07516507618129253387451171875">
        <ele>2236</ele>
        <time>2020-08-13T12:34:50.000Z</time>
      </trkpt>
      <trkpt lat="42.4956216104328632354736328125" lon="1.07513607479631900787353515625">
        <ele>2235</ele>
        <time>2020-08-13T12:34:53.000Z</time>
      </trkpt>
      <trkpt lat="42.4955555610358715057373046875" lon="1.07512182556092739105224609375">
        <ele>2234.60009765625</ele>
        <time>2020-08-13T12:34:55.000Z</time>
      </trkpt>
      <trkpt lat="42.49544651247560977935791015625" lon="1.075048148632049560546875">
        <ele>2234.199951171875</ele>
        <time>2020-08-13T12:35:00.000Z</time>
      </trkpt>
      <trkpt lat="42.49543997459113597869873046875" lon="1.07503331266343593597412109375">
        <ele>2233.60009765625</ele>
        <time>2020-08-13T12:35:01.000Z</time>
      </trkpt>
      <trkpt lat="42.49544081278145313262939453125" lon="1.07502727769315242767333984375">
        <ele>2232.800048828125</ele>
        <time>2020-08-13T12:35:04.000Z</time>
      </trkpt>
      <trkpt lat="42.4954435788094997406005859375" lon="1.07502308674156665802001953125">
        <ele>2233.199951171875</ele>
        <time>2020-08-13T12:35:13.000Z</time>
      </trkpt>
      <trkpt lat="42.4954442493617534637451171875" lon="1.07502333819866180419921875">
        <ele>2233.39990234375</ele>
        <time>2020-08-13T12:35:38.000Z</time>
      </trkpt>
      <trkpt lat="42.49544433318078517913818359375" lon="1.07502342201769351959228515625">
        <ele>2232.800048828125</ele>
        <time>2020-08-13T12:35:58.000Z</time>
      </trkpt>
      <trkpt lat="42.49544315971434116363525390625" lon="1.07502174563705921173095703125">
        <ele>2232.800048828125</ele>
        <time>2020-08-13T12:36:03.000Z</time>
      </trkpt>
      <trkpt lat="42.495431005954742431640625" lon="1.07500565238296985626220703125">
        <ele>2232.39990234375</ele>
        <time>2020-08-13T12:36:05.000Z</time>
      </trkpt>
      <trkpt lat="42.4954201094806194305419921875" lon="1.075000874698162078857421875">
        <ele>2232</ele>
        <time>2020-08-13T12:36:08.000Z</time>
      </trkpt>
      <trkpt lat="42.4954321794211864471435546875" lon="1.07499207369983196258544921875">
        <ele>2233.199951171875</ele>
        <time>2020-08-13T12:43:42.000Z</time>
      </trkpt>
      <trkpt lat="42.4954308383166790008544921875" lon="1.07498469762504100799560546875">
        <ele>2233.39990234375</ele>
        <time>2020-08-13T12:43:48.000Z</time>
      </trkpt>
      <trkpt lat="42.49544852413237094879150390625" lon="1.0749363340437412261962890625">
        <ele>2233.60009765625</ele>
        <time>2020-08-13T12:43:51.000Z</time>
      </trkpt>
      <trkpt lat="42.49555665068328380584716796875" lon="1.07479794882237911224365234375">
        <ele>2233</ele>
        <time>2020-08-13T12:43:56.000Z</time>
      </trkpt>
      <trkpt lat="42.495675422251224517822265625" lon="1.07470591552555561065673828125">
        <ele>2232</ele>
        <time>2020-08-13T12:44:00.000Z</time>
      </trkpt>
      <trkpt lat="42.4957989715039730072021484375" lon="1.0746034048497676849365234375">
        <ele>2230.60009765625</ele>
        <time>2020-08-13T12:44:04.000Z</time>
      </trkpt>
      <trkpt lat="42.49593366868793964385986328125" lon="1.07446904294192790985107421875">
        <ele>2229.199951171875</ele>
        <time>2020-08-13T12:44:08.000Z</time>
      </trkpt>
      <trkpt lat="42.49603995122015476226806640625" lon="1.0743549652397632598876953125">
        <ele>2228.39990234375</ele>
        <time>2020-08-13T12:44:11.000Z</time>
      </trkpt>
      <trkpt lat="42.49611807055771350860595703125" lon="1.07427894137799739837646484375">
        <ele>2228</ele>
        <time>2020-08-13T12:44:13.000Z</time>
      </trkpt>
      <trkpt lat="42.4962987005710601806640625" lon="1.0741268098354339599609375">
        <ele>2226.60009765625</ele>
        <time>2020-08-13T12:44:17.000Z</time>
      </trkpt>
      <trkpt lat="42.49634689651429653167724609375" lon="1.074089594185352325439453125">
        <ele>2226.39990234375</ele>
        <time>2020-08-13T12:44:18.000Z</time>
      </trkpt>
      <trkpt lat="42.49658594839274883270263671875" lon="1.07387158088386058807373046875">
        <ele>2225.39990234375</ele>
        <time>2020-08-13T12:44:23.000Z</time>
      </trkpt>
      <trkpt lat="42.49668049626052379608154296875" lon="1.0737665556371212005615234375">
        <ele>2224.800048828125</ele>
        <time>2020-08-13T12:44:25.000Z</time>
      </trkpt>
      <trkpt lat="42.49672894366085529327392578125" lon="1.07371249236166477203369140625">
        <ele>2224</ele>
        <time>2020-08-13T12:44:26.000Z</time>
      </trkpt>
      <trkpt lat="42.49677789397537708282470703125" lon="1.07365784235298633575439453125">
        <ele>2223</ele>
        <time>2020-08-13T12:44:27.000Z</time>
      </trkpt>
      <trkpt lat="42.49692105688154697418212890625" lon="1.073506213724613189697265625">
        <ele>2221.800048828125</ele>
        <time>2020-08-13T12:44:30.000Z</time>
      </trkpt>
      <trkpt lat="42.4970596097409725189208984375" lon="1.07336363755166530609130859375">
        <ele>2220.60009765625</ele>
        <time>2020-08-13T12:44:33.000Z</time>
      </trkpt>
      <trkpt lat="42.49714988283812999725341796875" lon="1.07326406054198741912841796875">
        <ele>2219.199951171875</ele>
        <time>2020-08-13T12:44:35.000Z</time>
      </trkpt>
      <trkpt lat="42.497243843972682952880859375" lon="1.07316431589424610137939453125">
        <ele>2217.800048828125</ele>
        <time>2020-08-13T12:44:37.000Z</time>
      </trkpt>
      <trkpt lat="42.497335039079189300537109375" lon="1.0730648227035999298095703125">
        <ele>2217.199951171875</ele>
        <time>2020-08-13T12:44:39.000Z</time>
      </trkpt>
      <trkpt lat="42.497417517006397247314453125" lon="1.07296398840844631195068359375">
        <ele>2216.39990234375</ele>
        <time>2020-08-13T12:44:41.000Z</time>
      </trkpt>
      <trkpt lat="42.4975752644240856170654296875" lon="1.07277103699743747711181640625">
        <ele>2215.199951171875</ele>
        <time>2020-08-13T12:44:45.000Z</time>
      </trkpt>
      <trkpt lat="42.49769001267850399017333984375" lon="1.07262737117707729339599609375">
        <ele>2215</ele>
        <time>2020-08-13T12:44:48.000Z</time>
      </trkpt>
      <trkpt lat="42.49777458608150482177734375" lon="1.07238060794770717620849609375">
        <ele>2214.199951171875</ele>
        <time>2020-08-13T12:44:52.000Z</time>
      </trkpt>
      <trkpt lat="42.4978173337876796722412109375" lon="1.072179861366748809814453125">
        <ele>2212.800048828125</ele>
        <time>2020-08-13T12:44:55.000Z</time>
      </trkpt>
      <trkpt lat="42.49784440733492374420166015625" lon="1.0719778575003147125244140625">
        <ele>2211.39990234375</ele>
        <time>2020-08-13T12:44:58.000Z</time>
      </trkpt>
      <trkpt lat="42.4978786893188953399658203125" lon="1.07178783975541591644287109375">
        <ele>2210</ele>
        <time>2020-08-13T12:45:01.000Z</time>
      </trkpt>
      <trkpt lat="42.49795027077198028564453125" lon="1.0715198703110218048095703125">
        <ele>2208.60009765625</ele>
        <time>2020-08-13T12:45:05.000Z</time>
      </trkpt>
      <trkpt lat="42.49797281809151172637939453125" lon="1.07145424000918865203857421875">
        <ele>2208.199951171875</ele>
        <time>2020-08-13T12:45:06.000Z</time>
      </trkpt>
      <trkpt lat="42.4980309046804904937744140625" lon="1.07133370824158191680908203125">
        <ele>2207.199951171875</ele>
        <time>2020-08-13T12:45:08.000Z</time>
      </trkpt>
      <trkpt lat="42.498102821409702301025390625" lon="1.0712181217968463897705078125">
        <ele>2206.60009765625</ele>
        <time>2020-08-13T12:45:10.000Z</time>
      </trkpt>
      <trkpt lat="42.498179264366626739501953125" lon="1.07110940851271152496337890625">
        <ele>2206</ele>
        <time>2020-08-13T12:45:12.000Z</time>
      </trkpt>
      <trkpt lat="42.49821840785443782806396484375" lon="1.07105878181755542755126953125">
        <ele>2204.800048828125</ele>
        <time>2020-08-13T12:45:13.000Z</time>
      </trkpt>
      <trkpt lat="42.4982942640781402587890625" lon="1.07095786370337009429931640625">
        <ele>2203</ele>
        <time>2020-08-13T12:45:15.000Z</time>
      </trkpt>
      <trkpt lat="42.49837364070117473602294921875" lon="1.07086029835045337677001953125">
        <ele>2202.800048828125</ele>
        <time>2020-08-13T12:45:17.000Z</time>
      </trkpt>
      <trkpt lat="42.498662732541561126708984375" lon="1.07058704830706119537353515625">
        <ele>2202</ele>
        <time>2020-08-13T12:45:24.000Z</time>
      </trkpt>
      <trkpt lat="42.4987024627625942230224609375" lon="1.07055502943694591522216796875">
        <ele>2201.199951171875</ele>
        <time>2020-08-13T12:45:25.000Z</time>
      </trkpt>
      <trkpt lat="42.49873816967010498046875" lon="1.07052703388035297393798828125">
        <ele>2200.60009765625</ele>
        <time>2020-08-13T12:45:26.000Z</time>
      </trkpt>
      <trkpt lat="42.4988271854817867279052734375" lon="1.07046349905431270599365234375">
        <ele>2199.199951171875</ele>
        <time>2020-08-13T12:45:29.000Z</time>
      </trkpt>
      <trkpt lat="42.4988536722958087921142578125" lon="1.07044472359120845794677734375">
        <ele>2199.199951171875</ele>
        <time>2020-08-13T12:45:30.000Z</time>
      </trkpt>
      <trkpt lat="42.49909331090748310089111328125" lon="1.07028814963996410369873046875">
        <ele>2198</ele>
        <time>2020-08-13T12:45:38.000Z</time>
      </trkpt>
      <trkpt lat="42.49929481185972690582275390625" lon="1.07016460038721561431884765625">
        <ele>2196.60009765625</ele>
        <time>2020-08-13T12:45:43.000Z</time>
      </trkpt>
      <trkpt lat="42.4993394874036312103271484375" lon="1.07013895176351070404052734375">
        <ele>2196.199951171875</ele>
        <time>2020-08-13T12:45:44.000Z</time>
      </trkpt>
      <trkpt lat="42.499433197081089019775390625" lon="1.0700885765254497528076171875">
        <ele>2195.199951171875</ele>
        <time>2020-08-13T12:45:46.000Z</time>
      </trkpt>
      <trkpt lat="42.4996434152126312255859375" lon="1.0700225271284580230712890625">
        <ele>2194.199951171875</ele>
        <time>2020-08-13T12:45:50.000Z</time>
      </trkpt>
      <trkpt lat="42.49980744905769824981689453125" lon="1.06997583992779254913330078125">
        <ele>2193</ele>
        <time>2020-08-13T12:45:53.000Z</time>
      </trkpt>
      <trkpt lat="42.499941475689411163330078125" lon="1.06994164176285266876220703125">
        <ele>2192</ele>
        <time>2020-08-13T12:45:56.000Z</time>
      </trkpt>
      <trkpt lat="42.49998028390109539031982421875" lon="1.069930493831634521484375">
        <ele>2191.800048828125</ele>
        <time>2020-08-13T12:45:57.000Z</time>
      </trkpt>
      <trkpt lat="42.50015177763998508453369140625" lon="1.0698820464313030242919921875">
        <ele>2190.60009765625</ele>
        <time>2020-08-13T12:46:01.000Z</time>
      </trkpt>
      <trkpt lat="42.50024850480258464813232421875" lon="1.06986201368272304534912109375">
        <ele>2190.199951171875</ele>
        <time>2020-08-13T12:46:03.000Z</time>
      </trkpt>
      <trkpt lat="42.50029846094548702239990234375" lon="1.069852374494075775146484375">
        <ele>2189.60009765625</ele>
        <time>2020-08-13T12:46:04.000Z</time>
      </trkpt>
      <trkpt lat="42.50039937905967235565185546875" lon="1.06982647441327571868896484375">
        <ele>2188.60009765625</ele>
        <time>2020-08-13T12:46:06.000Z</time>
      </trkpt>
      <trkpt lat="42.50050214119255542755126953125" lon="1.06979705393314361572265625">
        <ele>2188.199951171875</ele>
        <time>2020-08-13T12:46:08.000Z</time>
      </trkpt>
      <trkpt lat="42.50066332519054412841796875" lon="1.0697502829134464263916015625">
        <ele>2187.60009765625</ele>
        <time>2020-08-13T12:46:11.000Z</time>
      </trkpt>
      <trkpt lat="42.500714622437953948974609375" lon="1.06973343528807163238525390625">
        <ele>2187.60009765625</ele>
        <time>2020-08-13T12:46:12.000Z</time>
      </trkpt>
      <trkpt lat="42.50096733681857585906982421875" lon="1.069629080593585968017578125">
        <ele>2186.199951171875</ele>
        <time>2020-08-13T12:46:17.000Z</time>
      </trkpt>
      <trkpt lat="42.50106691382825374603271484375" lon="1.06958691962063312530517578125">
        <ele>2185</ele>
        <time>2020-08-13T12:46:19.000Z</time>
      </trkpt>
      <trkpt lat="42.501160204410552978515625" lon="1.06953394599258899688720703125">
        <ele>2184</ele>
        <time>2020-08-13T12:46:21.000Z</time>
      </trkpt>
      <trkpt lat="42.50143454410135746002197265625" lon="1.06932255439460277557373046875">
        <ele>2183</ele>
        <time>2020-08-13T12:46:27.000Z</time>
      </trkpt>
      <trkpt lat="42.5015174411237239837646484375" lon="1.06923068873584270477294921875">
        <ele>2181.60009765625</ele>
        <time>2020-08-13T12:46:29.000Z</time>
      </trkpt>
      <trkpt lat="42.5016612745821475982666015625" lon="1.06903170235455036163330078125">
        <ele>2180.199951171875</ele>
        <time>2020-08-13T12:46:33.000Z</time>
      </trkpt>
      <trkpt lat="42.50176294706761837005615234375" lon="1.06887781061232089996337890625">
        <ele>2179.39990234375</ele>
        <time>2020-08-13T12:46:36.000Z</time>
      </trkpt>
      <trkpt lat="42.50179362483322620391845703125" lon="1.068821735680103302001953125">
        <ele>2179.199951171875</ele>
        <time>2020-08-13T12:46:37.000Z</time>
      </trkpt>
      <trkpt lat="42.5018513761460781097412109375" lon="1.0687058977782726287841796875">
        <ele>2178.60009765625</ele>
        <time>2020-08-13T12:46:39.000Z</time>
      </trkpt>
      <trkpt lat="42.50190921127796173095703125" lon="1.06858125887811183929443359375">
        <ele>2177.800048828125</ele>
        <time>2020-08-13T12:46:41.000Z</time>
      </trkpt>
      <trkpt lat="42.50193745829164981842041015625" lon="1.068518646061420440673828125">
        <ele>2177.60009765625</ele>
        <time>2020-08-13T12:46:42.000Z</time>
      </trkpt>
      <trkpt lat="42.50199428759515285491943359375" lon="1.06839886866509914398193359375">
        <ele>2176.39990234375</ele>
        <time>2020-08-13T12:46:44.000Z</time>
      </trkpt>
      <trkpt lat="42.50201909802854061126708984375" lon="1.06833885423839092254638671875">
        <ele>2175.199951171875</ele>
        <time>2020-08-13T12:46:45.000Z</time>
      </trkpt>
      <trkpt lat="42.5020639412105083465576171875" lon="1.06821195222437381744384765625">
        <ele>2174.800048828125</ele>
        <time>2020-08-13T12:46:47.000Z</time>
      </trkpt>
      <trkpt lat="42.502104341983795166015625" lon="1.068084798753261566162109375">
        <ele>2173.800048828125</ele>
        <time>2020-08-13T12:46:49.000Z</time>
      </trkpt>
      <trkpt lat="42.502136863768100738525390625" lon="1.067953370511531829833984375">
        <ele>2172</ele>
        <time>2020-08-13T12:46:51.000Z</time>
      </trkpt>
      <trkpt lat="42.50217349268496036529541015625" lon="1.067753545939922332763671875">
        <ele>2171</ele>
        <time>2020-08-13T12:46:54.000Z</time>
      </trkpt>
      <trkpt lat="42.5021816231310367584228515625" lon="1.06768556870520114898681640625">
        <ele>2170.800048828125</ele>
        <time>2020-08-13T12:46:55.000Z</time>
      </trkpt>
      <trkpt lat="42.502197884023189544677734375" lon="1.0674144141376018524169921875">
        <ele>2169.39990234375</ele>
        <time>2020-08-13T12:46:59.000Z</time>
      </trkpt>
      <trkpt lat="42.5022074393928050994873046875" lon="1.0673463530838489532470703125">
        <ele>2168.800048828125</ele>
        <time>2020-08-13T12:47:00.000Z</time>
      </trkpt>
      <trkpt lat="42.50224088318645954132080078125" lon="1.067207045853137969970703125">
        <ele>2168.199951171875</ele>
        <time>2020-08-13T12:47:02.000Z</time>
      </trkpt>
      <trkpt lat="42.502312548458576202392578125" lon="1.0670050419867038726806640625">
        <ele>2167</ele>
        <time>2020-08-13T12:47:05.000Z</time>
      </trkpt>
      <trkpt lat="42.50233710743486881256103515625" lon="1.06693807058036327362060546875">
        <ele>2166.39990234375</ele>
        <time>2020-08-13T12:47:06.000Z</time>
      </trkpt>
      <trkpt lat="42.5023633427917957305908203125" lon="1.0668716020882129669189453125">
        <ele>2165.800048828125</ele>
        <time>2020-08-13T12:47:07.000Z</time>
      </trkpt>
      <trkpt lat="42.50241371802985668182373046875" lon="1.06673489324748516082763671875">
        <ele>2164.60009765625</ele>
        <time>2020-08-13T12:47:09.000Z</time>
      </trkpt>
      <trkpt lat="42.5024699606001377105712890625" lon="1.066527105867862701416015625">
        <ele>2163.800048828125</ele>
        <time>2020-08-13T12:47:12.000Z</time>
      </trkpt>
      <trkpt lat="42.5024865567684173583984375" lon="1.06645661406219005584716796875">
        <ele>2163.800048828125</ele>
        <time>2020-08-13T12:47:13.000Z</time>
      </trkpt>
      <trkpt lat="42.50254648737609386444091796875" lon="1.0661822743713855743408203125">
        <ele>2162.800048828125</ele>
        <time>2020-08-13T12:47:17.000Z</time>
      </trkpt>
      <trkpt lat="42.5025567971169948577880859375" lon="1.0661175660789012908935546875">
        <ele>2162.60009765625</ele>
        <time>2020-08-13T12:47:18.000Z</time>
      </trkpt>
      <trkpt lat="42.5025806017220020294189453125" lon="1.065993346273899078369140625">
        <ele>2161.800048828125</ele>
        <time>2020-08-13T12:47:20.000Z</time>
      </trkpt>
      <trkpt lat="42.50259325839579105377197265625" lon="1.06593090109527111053466796875">
        <ele>2161.60009765625</ele>
        <time>2020-08-13T12:47:21.000Z</time>
      </trkpt>
      <trkpt lat="42.50263701193034648895263671875" lon="1.0655958764255046844482421875">
        <ele>2159.60009765625</ele>
        <time>2020-08-13T12:47:26.000Z</time>
      </trkpt>
      <trkpt lat="42.50265008769929409027099609375" lon="1.06552504934370517730712890625">
        <ele>2158.60009765625</ele>
        <time>2020-08-13T12:47:27.000Z</time>
      </trkpt>
      <trkpt lat="42.50266517512500286102294921875" lon="1.06545195914804935455322265625">
        <ele>2158.199951171875</ele>
        <time>2020-08-13T12:47:28.000Z</time>
      </trkpt>
      <trkpt lat="42.5027184002101421356201171875" lon="1.0652337782084941864013671875">
        <ele>2156.800048828125</ele>
        <time>2020-08-13T12:47:31.000Z</time>
      </trkpt>
      <trkpt lat="42.50276173464953899383544921875" lon="1.06509421952068805694580078125">
        <ele>2155.800048828125</ele>
        <time>2020-08-13T12:47:33.000Z</time>
      </trkpt>
      <trkpt lat="42.50280632637441158294677734375" lon="1.06495558284223079681396484375">
        <ele>2155</ele>
        <time>2020-08-13T12:47:35.000Z</time>
      </trkpt>
      <trkpt lat="42.502831555902957916259765625" lon="1.06488768942654132843017578125">
        <ele>2154.39990234375</ele>
        <time>2020-08-13T12:47:36.000Z</time>
      </trkpt>
      <trkpt lat="42.50288612209260463714599609375" lon="1.0647590272128582000732421875">
        <ele>2153.39990234375</ele>
        <time>2020-08-13T12:47:38.000Z</time>
      </trkpt>
      <trkpt lat="42.50300824642181396484375" lon="1.06450648047029972076416015625">
        <ele>2152.39990234375</ele>
        <time>2020-08-13T12:47:42.000Z</time>
      </trkpt>
      <trkpt lat="42.50310924835503101348876953125" lon="1.06435258872807025909423828125">
        <ele>2151.199951171875</ele>
        <time>2020-08-13T12:47:45.000Z</time>
      </trkpt>
      <trkpt lat="42.503209412097930908203125" lon="1.06419752351939678192138671875">
        <ele>2150.199951171875</ele>
        <time>2020-08-13T12:47:48.000Z</time>
      </trkpt>
      <trkpt lat="42.5032429397106170654296875" lon="1.06414773501455783843994140625">
        <ele>2149.800048828125</ele>
        <time>2020-08-13T12:47:49.000Z</time>
      </trkpt>
      <trkpt lat="42.50331242568790912628173828125" lon="1.06405871920287609100341796875">
        <ele>2149</ele>
        <time>2020-08-13T12:47:51.000Z</time>
      </trkpt>
      <trkpt lat="42.50344402156770229339599609375" lon="1.06390097178518772125244140625">
        <ele>2148</ele>
        <time>2020-08-13T12:47:55.000Z</time>
      </trkpt>
      <trkpt lat="42.50347738154232501983642578125" lon="1.0638641752302646636962890625">
        <ele>2147.60009765625</ele>
        <time>2020-08-13T12:47:56.000Z</time>
      </trkpt>
      <trkpt lat="42.50358349643647670745849609375" lon="1.0637481696903705596923828125">
        <ele>2146.39990234375</ele>
        <time>2020-08-13T12:48:00.000Z</time>
      </trkpt>
      <trkpt lat="42.50359036959707736968994140625" lon="1.0637404583394527435302734375">
        <ele>2146.39990234375</ele>
        <time>2020-08-13T12:48:01.000Z</time>
      </trkpt>
      <trkpt lat="42.50363647006452083587646484375" lon="1.06367952190339565277099609375">
        <ele>2145.800048828125</ele>
        <time>2020-08-13T12:48:06.000Z</time>
      </trkpt>
      <trkpt lat="42.50373487360775470733642578125" lon="1.06357072480022907257080078125">
        <ele>2145.39990234375</ele>
        <time>2020-08-13T12:48:10.000Z</time>
      </trkpt>
      <trkpt lat="42.503764294087886810302734375" lon="1.0635382868349552154541015625">
        <ele>2145.199951171875</ele>
        <time>2020-08-13T12:48:11.000Z</time>
      </trkpt>
      <trkpt lat="42.503829337656497955322265625" lon="1.063466370105743408203125">
        <ele>2144.199951171875</ele>
        <time>2020-08-13T12:48:13.000Z</time>
      </trkpt>
      <trkpt lat="42.50394500792026519775390625" lon="1.063352711498737335205078125">
        <ele>2143</ele>
        <time>2020-08-13T12:48:16.000Z</time>
      </trkpt>
      <trkpt lat="42.5040289945900440216064453125" lon="1.06327014975249767303466796875">
        <ele>2142.60009765625</ele>
        <time>2020-08-13T12:48:18.000Z</time>
      </trkpt>
      <trkpt lat="42.50432881526648998260498046875" lon="1.06302204541862010955810546875">
        <ele>2142</ele>
        <time>2020-08-13T12:48:24.000Z</time>
      </trkpt>
      <trkpt lat="42.50438346527516841888427734375" lon="1.06298600323498249053955078125">
        <ele>2141.800048828125</ele>
        <time>2020-08-13T12:48:25.000Z</time>
      </trkpt>
      <trkpt lat="42.50448941253125667572021484375" lon="1.0629129968583583831787109375">
        <ele>2140.39990234375</ele>
        <time>2020-08-13T12:48:27.000Z</time>
      </trkpt>
      <trkpt lat="42.5045974552631378173828125" lon="1.06283596716821193695068359375">
        <ele>2139.39990234375</ele>
        <time>2020-08-13T12:48:29.000Z</time>
      </trkpt>
      <trkpt lat="42.5047062523663043975830078125" lon="1.062752567231655120849609375">
        <ele>2138.39990234375</ele>
        <time>2020-08-13T12:48:31.000Z</time>
      </trkpt>
      <trkpt lat="42.5047622434794902801513671875" lon="1.06271593831479549407958984375">
        <ele>2138</ele>
        <time>2020-08-13T12:48:32.000Z</time>
      </trkpt>
      <trkpt lat="42.5050334818661212921142578125" lon="1.0625311173498630523681640625">
        <ele>2136.800048828125</ele>
        <time>2020-08-13T12:48:37.000Z</time>
      </trkpt>
      <trkpt lat="42.50512626953423023223876953125" lon="1.06244671158492565155029296875">
        <ele>2135</ele>
        <time>2020-08-13T12:48:39.000Z</time>
      </trkpt>
      <trkpt lat="42.50526322983205318450927734375" lon="1.06234009377658367156982421875">
        <ele>2134</ele>
        <time>2020-08-13T12:48:42.000Z</time>
      </trkpt>
      <trkpt lat="42.50544645823538303375244140625" lon="1.06219525448977947235107421875">
        <ele>2133.39990234375</ele>
        <time>2020-08-13T12:48:46.000Z</time>
      </trkpt>
      <trkpt lat="42.50547948293387889862060546875" lon="1.06215250678360462188720703125">
        <ele>2133</ele>
        <time>2020-08-13T12:48:47.000Z</time>
      </trkpt>
      <trkpt lat="42.50550529919564723968505859375" lon="1.06210506521165370941162109375">
        <ele>2132.60009765625</ele>
        <time>2020-08-13T12:48:48.000Z</time>
      </trkpt>
      <trkpt lat="42.50555307604372501373291015625" lon="1.06190306134521961212158203125">
        <ele>2132</ele>
        <time>2020-08-13T12:48:52.000Z</time>
      </trkpt>
      <trkpt lat="42.5055625475943088531494140625" lon="1.06184966862201690673828125">
        <ele>2131.60009765625</ele>
        <time>2020-08-13T12:48:53.000Z</time>
      </trkpt>
      <trkpt lat="42.5055997632443904876708984375" lon="1.06167540885508060455322265625">
        <ele>2130.800048828125</ele>
        <time>2020-08-13T12:48:56.000Z</time>
      </trkpt>
      <trkpt lat="42.50559984706342220306396484375" lon="1.06161137111485004425048828125">
        <ele>2130.60009765625</ele>
        <time>2020-08-13T12:48:57.000Z</time>
      </trkpt>
      <trkpt lat="42.5055927224457263946533203125" lon="1.0615487582981586456298828125">
        <ele>2130.39990234375</ele>
        <time>2020-08-13T12:48:58.000Z</time>
      </trkpt>
      <trkpt lat="42.5055692531168460845947265625" lon="1.06143183074891567230224609375">
        <ele>2130.199951171875</ele>
        <time>2020-08-13T12:49:00.000Z</time>
      </trkpt>
      <trkpt lat="42.5055464543402194976806640625" lon="1.06131783686578273773193359375">
        <ele>2129.60009765625</ele>
        <time>2020-08-13T12:49:02.000Z</time>
      </trkpt>
      <trkpt lat="42.50552960671484470367431640625" lon="1.061266623437404632568359375">
        <ele>2129.199951171875</ele>
        <time>2020-08-13T12:49:03.000Z</time>
      </trkpt>
      <trkpt lat="42.50549733638763427734375" lon="1.06111340224742889404296875">
        <ele>2128.199951171875</ele>
        <time>2020-08-13T12:49:06.000Z</time>
      </trkpt>
      <trkpt lat="42.50549389980733394622802734375" lon="1.0610518790781497955322265625">
        <ele>2128</ele>
        <time>2020-08-13T12:49:07.000Z</time>
      </trkpt>
      <trkpt lat="42.50545106828212738037109375" lon="1.06072909198701381683349609375">
        <ele>2127</ele>
        <time>2020-08-13T12:49:12.000Z</time>
      </trkpt>
      <trkpt lat="42.50543489120900630950927734375" lon="1.0606642998754978179931640625">
        <ele>2126.800048828125</ele>
        <time>2020-08-13T12:49:13.000Z</time>
      </trkpt>
      <trkpt lat="42.50540010631084442138671875" lon="1.0605362243950366973876953125">
        <ele>2126</ele>
        <time>2020-08-13T12:49:15.000Z</time>
      </trkpt>
      <trkpt lat="42.5053405947983264923095703125" lon="1.06034017167985439300537109375">
        <ele>2125</ele>
        <time>2020-08-13T12:49:18.000Z</time>
      </trkpt>
      <trkpt lat="42.50531134195625782012939453125" lon="1.060230620205402374267578125">
        <ele>2124.199951171875</ele>
        <time>2020-08-13T12:49:20.000Z</time>
      </trkpt>
      <trkpt lat="42.50529893673956394195556640625" lon="1.06017571873962879180908203125">
        <ele>2124</ele>
        <time>2020-08-13T12:49:21.000Z</time>
      </trkpt>
      <trkpt lat="42.50528812408447265625" lon="1.0601151175796985626220703125">
        <ele>2123.800048828125</ele>
        <time>2020-08-13T12:49:22.000Z</time>
      </trkpt>
      <trkpt lat="42.50526473857462406158447265625" lon="1.059915460646152496337890625">
        <ele>2123.39990234375</ele>
        <time>2020-08-13T12:49:25.000Z</time>
      </trkpt>
      <trkpt lat="42.50526658259332180023193359375" lon="1.05970448814332485198974609375">
        <ele>2123</ele>
        <time>2020-08-13T12:49:28.000Z</time>
      </trkpt>
      <trkpt lat="42.5052953325212001800537109375" lon="1.0595672763884067535400390625">
        <ele>2123</ele>
        <time>2020-08-13T12:49:30.000Z</time>
      </trkpt>
      <trkpt lat="42.5053484737873077392578125" lon="1.05934892781078815460205078125">
        <ele>2122.60009765625</ele>
        <time>2020-08-13T12:49:33.000Z</time>
      </trkpt>
      <trkpt lat="42.50538007356226444244384765625" lon="1.05912731029093265533447265625">
        <ele>2121.39990234375</ele>
        <time>2020-08-13T12:49:36.000Z</time>
      </trkpt>
      <trkpt lat="42.50539901666343212127685546875" lon="1.05898347683250904083251953125">
        <ele>2120.39990234375</ele>
        <time>2020-08-13T12:49:38.000Z</time>
      </trkpt>
      <trkpt lat="42.5054220668971538543701171875" lon="1.05885121040046215057373046875">
        <ele>2119.39990234375</ele>
        <time>2020-08-13T12:49:40.000Z</time>
      </trkpt>
      <trkpt lat="42.50543841160833835601806640625" lon="1.058788597583770751953125">
        <ele>2118.800048828125</ele>
        <time>2020-08-13T12:49:41.000Z</time>
      </trkpt>
      <trkpt lat="42.5054557621479034423828125" lon="1.058730594813823699951171875">
        <ele>2118.60009765625</ele>
        <time>2020-08-13T12:49:42.000Z</time>
      </trkpt>
      <trkpt lat="42.5054747052490711212158203125" lon="1.05867753736674785614013671875">
        <ele>2118.39990234375</ele>
        <time>2020-08-13T12:49:43.000Z</time>
      </trkpt>
      <trkpt lat="42.50551032833755016326904296875" lon="1.05856932699680328369140625">
        <ele>2117.60009765625</ele>
        <time>2020-08-13T12:49:45.000Z</time>
      </trkpt>
      <trkpt lat="42.50553765334188938140869140625" lon="1.05845089070498943328857421875">
        <ele>2116.60009765625</ele>
        <time>2020-08-13T12:49:47.000Z</time>
      </trkpt>
      <trkpt lat="42.5055523216724395751953125" lon="1.05832600034773349761962890625">
        <ele>2115.199951171875</ele>
        <time>2020-08-13T12:49:49.000Z</time>
      </trkpt>
      <trkpt lat="42.50555760227143764495849609375" lon="1.058135144412517547607421875">
        <ele>2114</ele>
        <time>2020-08-13T12:49:52.000Z</time>
      </trkpt>
      <trkpt lat="42.505558021366596221923828125" lon="1.0580737888813018798828125">
        <ele>2113.60009765625</ele>
        <time>2020-08-13T12:49:53.000Z</time>
      </trkpt>
      <trkpt lat="42.50556397251784801483154296875" lon="1.0579582862555980682373046875">
        <ele>2112.60009765625</ele>
        <time>2020-08-13T12:49:55.000Z</time>
      </trkpt>
      <trkpt lat="42.50562063418328762054443359375" lon="1.05773515999317169189453125">
        <ele>2112.800048828125</ele>
        <time>2020-08-13T12:49:59.000Z</time>
      </trkpt>
      <trkpt lat="42.5056627951562404632568359375" lon="1.05764052830636501312255859375">
        <ele>2112.39990234375</ele>
        <time>2020-08-13T12:50:01.000Z</time>
      </trkpt>
      <trkpt lat="42.5057543255388736724853515625" lon="1.0574325732886791229248046875">
        <ele>2111.39990234375</ele>
        <time>2020-08-13T12:50:05.000Z</time>
      </trkpt>
      <trkpt lat="42.5058917887508869171142578125" lon="1.057170219719409942626953125">
        <ele>2110.199951171875</ele>
        <time>2020-08-13T12:50:10.000Z</time>
      </trkpt>
      <trkpt lat="42.5059222988784313201904296875" lon="1.05711154639720916748046875">
        <ele>2109.60009765625</ele>
        <time>2020-08-13T12:50:11.000Z</time>
      </trkpt>
      <trkpt lat="42.505952976644039154052734375" lon="1.05704893358051776885986328125">
        <ele>2109</ele>
        <time>2020-08-13T12:50:12.000Z</time>
      </trkpt>
      <trkpt lat="42.50598013401031494140625" lon="1.056981794536113739013671875">
        <ele>2108.60009765625</ele>
        <time>2020-08-13T12:50:13.000Z</time>
      </trkpt>
      <trkpt lat="42.5060470215976238250732421875" lon="1.05676009319722652435302734375">
        <ele>2107.800048828125</ele>
        <time>2020-08-13T12:50:16.000Z</time>
      </trkpt>
      <trkpt lat="42.50612589530646800994873046875" lon="1.05642490088939666748046875">
        <ele>2106.60009765625</ele>
        <time>2020-08-13T12:50:20.000Z</time>
      </trkpt>
      <trkpt lat="42.50615573488175868988037109375" lon="1.0562507249414920806884765625">
        <ele>2106.39990234375</ele>
        <time>2020-08-13T12:50:22.000Z</time>
      </trkpt>
      <trkpt lat="42.50627995468676090240478515625" lon="1.05560758151113986968994140625">
        <ele>2106</ele>
        <time>2020-08-13T12:50:30.000Z</time>
      </trkpt>
      <trkpt lat="42.50630778260529041290283203125" lon="1.0553862154483795166015625">
        <ele>2106.60009765625</ele>
        <time>2020-08-13T12:50:33.000Z</time>
      </trkpt>
      <trkpt lat="42.50630862079560756683349609375" lon="1.05519284494221210479736328125">
        <ele>2107.199951171875</ele>
        <time>2020-08-13T12:50:36.000Z</time>
      </trkpt>
      <trkpt lat="42.50628867186605930328369140625" lon="1.054973490536212921142578125">
        <ele>2107.39990234375</ele>
        <time>2020-08-13T12:50:41.000Z</time>
      </trkpt>
      <trkpt lat="42.50628255307674407958984375" lon="1.0548864863812923431396484375">
        <ele>2107.800048828125</ele>
        <time>2020-08-13T12:50:44.000Z</time>
      </trkpt>
      <trkpt lat="42.50626721419394016265869140625" lon="1.0548117198050022125244140625">
        <ele>2108.199951171875</ele>
        <time>2020-08-13T12:50:47.000Z</time>
      </trkpt>
      <trkpt lat="42.50624491833150386810302734375" lon="1.0547356121242046356201171875">
        <ele>2108.800048828125</ele>
        <time>2020-08-13T12:50:50.000Z</time>
      </trkpt>
      <trkpt lat="42.50619714148342609405517578125" lon="1.0546647012233734130859375">
        <ele>2109.39990234375</ele>
        <time>2020-08-13T12:50:53.000Z</time>
      </trkpt>
      <trkpt lat="42.50605297274887561798095703125" lon="1.05456353165209293365478515625">
        <ele>2110</ele>
        <time>2020-08-13T12:51:00.000Z</time>
      </trkpt>
      <trkpt lat="42.50603185035288333892822265625" lon="1.0545559041202068328857421875">
        <ele>2110.199951171875</ele>
        <time>2020-08-13T12:51:01.000Z</time>
      </trkpt>
      <trkpt lat="42.50592204742133617401123046875" lon="1.054493375122547149658203125">
        <ele>2111</ele>
        <time>2020-08-13T12:51:06.000Z</time>
      </trkpt>
      <trkpt lat="42.50589229166507720947265625" lon="1.05444677174091339111328125">
        <ele>2111.199951171875</ele>
        <time>2020-08-13T12:51:08.000Z</time>
      </trkpt>
      <trkpt lat="42.50588600523769855499267578125" lon="1.05443042702972888946533203125">
        <ele>2111.199951171875</ele>
        <time>2020-08-13T12:51:11.000Z</time>
      </trkpt>
      <trkpt lat="42.5058902800083160400390625" lon="1.05440662242472171783447265625">
        <ele>2110.60009765625</ele>
        <time>2020-08-13T12:51:18.000Z</time>
      </trkpt>
      <trkpt lat="42.505889944732189178466796875" lon="1.0544026829302310943603515625">
        <ele>2111.60009765625</ele>
        <time>2020-08-13T12:51:31.000Z</time>
      </trkpt>
      <trkpt lat="42.505891285836696624755859375" lon="1.05440477840602397918701171875">
        <ele>2110</ele>
        <time>2020-08-13T12:51:49.000Z</time>
      </trkpt>
      <trkpt lat="42.5058904476463794708251953125" lon="1.05440578423440456390380859375">
        <ele>2109.60009765625</ele>
        <time>2020-08-13T12:52:12.000Z</time>
      </trkpt>
      <trkpt lat="42.50588265247642993927001953125" lon="1.0543849132955074310302734375">
        <ele>2110.39990234375</ele>
        <time>2020-08-13T12:52:46.000Z</time>
      </trkpt>
      <trkpt lat="42.50585800968110561370849609375" lon="1.0541934706270694732666015625">
        <ele>2110</ele>
        <time>2020-08-13T12:52:51.000Z</time>
      </trkpt>
      <trkpt lat="42.50584493391215801239013671875" lon="1.0540265031158924102783203125">
        <ele>2109.199951171875</ele>
        <time>2020-08-13T12:52:54.000Z</time>
      </trkpt>
      <trkpt lat="42.50584711320698261260986328125" lon="1.05378828942775726318359375">
        <ele>2107.60009765625</ele>
        <time>2020-08-13T12:52:58.000Z</time>
      </trkpt>
      <trkpt lat="42.50589790754020214080810546875" lon="1.05357916094362735748291015625">
        <ele>2106.39990234375</ele>
        <time>2020-08-13T12:53:02.000Z</time>
      </trkpt>
      <trkpt lat="42.50591752119362354278564453125" lon="1.05352903716266155242919921875">
        <ele>2105.800048828125</ele>
        <time>2020-08-13T12:53:03.000Z</time>
      </trkpt>
      <trkpt lat="42.505941577255725860595703125" lon="1.05348142795264720916748046875">
        <ele>2105.39990234375</ele>
        <time>2020-08-13T12:53:04.000Z</time>
      </trkpt>
      <trkpt lat="42.50596965663135051727294921875" lon="1.05343784205615520477294921875">
        <ele>2105.199951171875</ele>
        <time>2020-08-13T12:53:05.000Z</time>
      </trkpt>
      <trkpt lat="42.50603470019996166229248046875" lon="1.05336274020373821258544921875">
        <ele>2105</ele>
        <time>2020-08-13T12:53:07.000Z</time>
      </trkpt>
      <trkpt lat="42.5061050243675708770751953125" lon="1.0532962717115879058837890625">
        <ele>2103.800048828125</ele>
        <time>2020-08-13T12:53:09.000Z</time>
      </trkpt>
      <trkpt lat="42.506303675472736358642578125" lon="1.05312368832528591156005859375">
        <ele>2102.800048828125</ele>
        <time>2020-08-13T12:53:15.000Z</time>
      </trkpt>
      <trkpt lat="42.50634181313216686248779296875" lon="1.052960492670536041259765625">
        <ele>2102.199951171875</ele>
        <time>2020-08-13T12:53:20.000Z</time>
      </trkpt>
      <trkpt lat="42.50633091665804386138916015625" lon="1.05294079519808292388916015625">
        <ele>2102.199951171875</ele>
        <time>2020-08-13T12:53:21.000Z</time>
      </trkpt>
      <trkpt lat="42.50627911649644374847412109375" lon="1.05290475301444530487060546875">
        <ele>2102.39990234375</ele>
        <time>2020-08-13T12:53:24.000Z</time>
      </trkpt>
      <trkpt lat="42.506134025752544403076171875" lon="1.052893437445163726806640625">
        <ele>2102.800048828125</ele>
        <time>2020-08-13T12:53:31.000Z</time>
      </trkpt>
      <trkpt lat="42.50597418285906314849853515625" lon="1.0529422201216220855712890625">
        <ele>2103.39990234375</ele>
        <time>2020-08-13T12:53:39.000Z</time>
      </trkpt>
      <trkpt lat="42.50584241934120655059814453125" lon="1.05297583155333995819091796875">
        <ele>2102.800048828125</ele>
        <time>2020-08-13T12:53:45.000Z</time>
      </trkpt>
      <trkpt lat="42.505688779056072235107421875" lon="1.0530079342424869537353515625">
        <ele>2102.39990234375</ele>
        <time>2020-08-13T12:53:52.000Z</time>
      </trkpt>
      <trkpt lat="42.5055990926921367645263671875" lon="1.0530250333249568939208984375">
        <ele>2101.800048828125</ele>
        <time>2020-08-13T12:53:56.000Z</time>
      </trkpt>
      <trkpt lat="42.50550680793821811676025390625" lon="1.0530518554151058197021484375">
        <ele>2101.39990234375</ele>
        <time>2020-08-13T12:54:00.000Z</time>
      </trkpt>
      <trkpt lat="42.50531972385942935943603515625" lon="1.053075492382049560546875">
        <ele>2101.60009765625</ele>
        <time>2020-08-13T12:54:07.000Z</time>
      </trkpt>
      <trkpt lat="42.5050864554941654205322265625" lon="1.05305696837604045867919921875">
        <ele>2101</ele>
        <time>2020-08-13T12:54:16.000Z</time>
      </trkpt>
      <trkpt lat="42.50488252379000186920166015625" lon="1.05301287956535816192626953125">
        <ele>2102.60009765625</ele>
        <time>2020-08-13T12:54:24.000Z</time>
      </trkpt>
      <trkpt lat="42.50475059263408184051513671875" lon="1.05287742801010608673095703125">
        <ele>2101.800048828125</ele>
        <time>2020-08-13T12:54:30.000Z</time>
      </trkpt>
      <trkpt lat="42.50470700673758983612060546875" lon="1.0528188385069370269775390625">
        <ele>2100.60009765625</ele>
        <time>2020-08-13T12:54:32.000Z</time>
      </trkpt>
      <trkpt lat="42.50461212359368801116943359375" lon="1.0526783578097820281982421875">
        <ele>2099.60009765625</ele>
        <time>2020-08-13T12:54:36.000Z</time>
      </trkpt>
      <trkpt lat="42.50458278693258762359619140625" lon="1.0526411421597003936767578125">
        <ele>2099.39990234375</ele>
        <time>2020-08-13T12:54:37.000Z</time>
      </trkpt>
      <trkpt lat="42.50448103062808513641357421875" lon="1.05252656154334545135498046875">
        <ele>2098.39990234375</ele>
        <time>2020-08-13T12:54:40.000Z</time>
      </trkpt>
      <trkpt lat="42.50443962402641773223876953125" lon="1.05249571613967418670654296875">
        <ele>2098.199951171875</ele>
        <time>2020-08-13T12:54:41.000Z</time>
      </trkpt>
      <trkpt lat="42.504397295415401458740234375" lon="1.05246587656438350677490234375">
        <ele>2097.800048828125</ele>
        <time>2020-08-13T12:54:42.000Z</time>
      </trkpt>
      <trkpt lat="42.50426494516432285308837890625" lon="1.05237878859043121337890625">
        <ele>2096.60009765625</ele>
        <time>2020-08-13T12:54:45.000Z</time>
      </trkpt>
      <trkpt lat="42.50410594046115875244140625" lon="1.05226202867925167083740234375">
        <ele>2095.39990234375</ele>
        <time>2020-08-13T12:54:49.000Z</time>
      </trkpt>
      <trkpt lat="42.50406704843044281005859375" lon="1.05223503895103931427001953125">
        <ele>2095.199951171875</ele>
        <time>2020-08-13T12:54:50.000Z</time>
      </trkpt>
      <trkpt lat="42.5037691555917263031005859375" lon="1.0520976595580577850341796875">
        <ele>2095</ele>
        <time>2020-08-13T12:54:57.000Z</time>
      </trkpt>
      <trkpt lat="42.50363227911293506622314453125" lon="1.0520969890058040618896484375">
        <ele>2094.199951171875</ele>
        <time>2020-08-13T12:55:00.000Z</time>
      </trkpt>
      <trkpt lat="42.5034979172050952911376953125" lon="1.0521274991333484649658203125">
        <ele>2093.39990234375</ele>
        <time>2020-08-13T12:55:03.000Z</time>
      </trkpt>
      <trkpt lat="42.503407560288906097412109375" lon="1.05215658433735370635986328125">
        <ele>2093.199951171875</ele>
        <time>2020-08-13T12:55:05.000Z</time>
      </trkpt>
      <trkpt lat="42.5032236613333225250244140625" lon="1.05221374891698360443115234375">
        <ele>2092.39990234375</ele>
        <time>2020-08-13T12:55:09.000Z</time>
      </trkpt>
      <trkpt lat="42.50317764468491077423095703125" lon="1.05221643112599849700927734375">
        <ele>2092.60009765625</ele>
        <time>2020-08-13T12:55:10.000Z</time>
      </trkpt>
      <trkpt lat="42.50295870937407016754150390625" lon="1.052183322608470916748046875">
        <ele>2091.800048828125</ele>
        <time>2020-08-13T12:55:15.000Z</time>
      </trkpt>
      <trkpt lat="42.5029215775430202484130859375" lon="1.05217921547591686248779296875">
        <ele>2091.39990234375</ele>
        <time>2020-08-13T12:55:16.000Z</time>
      </trkpt>
      <trkpt lat="42.502734996378421783447265625" lon="1.05212666094303131103515625">
        <ele>2091.39990234375</ele>
        <time>2020-08-13T12:55:22.000Z</time>
      </trkpt>
      <trkpt lat="42.5024508498609066009521484375" lon="1.052045524120330810546875">
        <ele>2090.800048828125</ele>
        <time>2020-08-13T12:55:32.000Z</time>
      </trkpt>
      <trkpt lat="42.50222948379814624786376953125" lon="1.05205885134637355804443359375">
        <ele>2091.199951171875</ele>
        <time>2020-08-13T12:55:40.000Z</time>
      </trkpt>
      <trkpt lat="42.5020713172852993011474609375" lon="1.0520523972809314727783203125">
        <ele>2091.800048828125</ele>
        <time>2020-08-13T12:55:46.000Z</time>
      </trkpt>
      <trkpt lat="42.50199009664356708526611328125" lon="1.052064634859561920166015625">
        <ele>2092</ele>
        <time>2020-08-13T12:55:49.000Z</time>
      </trkpt>
      <trkpt lat="42.50178541056811809539794921875" lon="1.0521214641630649566650390625">
        <ele>2092.60009765625</ele>
        <time>2020-08-13T12:55:57.000Z</time>
      </trkpt>
      <trkpt lat="42.5017330236732959747314453125" lon="1.05212741531431674957275390625">
        <ele>2092.800048828125</ele>
        <time>2020-08-13T12:55:59.000Z</time>
      </trkpt>
      <trkpt lat="42.501706369221210479736328125" lon="1.05212800204753875732421875">
        <ele>2093</ele>
        <time>2020-08-13T12:56:00.000Z</time>
      </trkpt>
      <trkpt lat="42.5014373101294040679931640625" lon="1.05213261209428310394287109375">
        <ele>2093.199951171875</ele>
        <time>2020-08-13T12:56:10.000Z</time>
      </trkpt>
      <trkpt lat="42.5013568438589572906494140625" lon="1.05212288908660411834716796875">
        <ele>2094</ele>
        <time>2020-08-13T12:56:13.000Z</time>
      </trkpt>
      <trkpt lat="42.501252405345439910888671875" lon="1.0521030239760875701904296875">
        <ele>2094.199951171875</ele>
        <time>2020-08-13T12:56:17.000Z</time>
      </trkpt>
      <trkpt lat="42.501024417579174041748046875" lon="1.052033118903636932373046875">
        <ele>2094.800048828125</ele>
        <time>2020-08-13T12:56:26.000Z</time>
      </trkpt>
      <trkpt lat="42.50080891884863376617431640625" lon="1.05195592157542705535888671875">
        <ele>2094.800048828125</ele>
        <time>2020-08-13T12:56:35.000Z</time>
      </trkpt>
      <trkpt lat="42.50076382420957088470458984375" lon="1.05193647556006908416748046875">
        <ele>2095.199951171875</ele>
        <time>2020-08-13T12:56:37.000Z</time>
      </trkpt>
      <trkpt lat="42.5005692802369594573974609375" lon="1.051833294332027435302734375">
        <ele>2096</ele>
        <time>2020-08-13T12:56:46.000Z</time>
      </trkpt>
      <trkpt lat="42.50051471404731273651123046875" lon="1.05179415084421634674072265625">
        <ele>2096.199951171875</ele>
        <time>2020-08-13T12:56:49.000Z</time>
      </trkpt>
      <trkpt lat="42.50042486004531383514404296875" lon="1.051738746464252471923828125">
        <ele>2096.39990234375</ele>
        <time>2020-08-13T12:56:54.000Z</time>
      </trkpt>
      <trkpt lat="42.500296868383884429931640625" lon="1.05164964683353900909423828125">
        <ele>2097.39990234375</ele>
        <time>2020-08-13T12:57:01.000Z</time>
      </trkpt>
      <trkpt lat="42.50027851201593875885009765625" lon="1.05163841508328914642333984375">
        <ele>2097.60009765625</ele>
        <time>2020-08-13T12:57:02.000Z</time>
      </trkpt>
      <trkpt lat="42.5001015700399875640869140625" lon="1.05153062380850315093994140625">
        <ele>2098</ele>
        <time>2020-08-13T12:57:12.000Z</time>
      </trkpt>
      <trkpt lat="42.49995480291545391082763671875" lon="1.051410175859928131103515625">
        <ele>2098.60009765625</ele>
        <time>2020-08-13T12:57:20.000Z</time>
      </trkpt>
      <trkpt lat="42.49991741962730884552001953125" lon="1.05138561688363552093505859375">
        <ele>2098.800048828125</ele>
        <time>2020-08-13T12:57:22.000Z</time>
      </trkpt>
      <trkpt lat="42.4997418187558650970458984375" lon="1.0512608103454113006591796875">
        <ele>2099.199951171875</ele>
        <time>2020-08-13T12:57:31.000Z</time>
      </trkpt>
      <trkpt lat="42.4996702373027801513671875" lon="1.0511914081871509552001953125">
        <ele>2099.800048828125</ele>
        <time>2020-08-13T12:57:35.000Z</time>
      </trkpt>
      <trkpt lat="42.499550879001617431640625" lon="1.05109677650034427642822265625">
        <ele>2100.199951171875</ele>
        <time>2020-08-13T12:57:41.000Z</time>
      </trkpt>
      <trkpt lat="42.49946043826639652252197265625" lon="1.051023937761783599853515625">
        <ele>2100.800048828125</ele>
        <time>2020-08-13T12:57:46.000Z</time>
      </trkpt>
      <trkpt lat="42.49941199086606502532958984375" lon="1.05097775347530841827392578125">
        <ele>2101.199951171875</ele>
        <time>2020-08-13T12:57:49.000Z</time>
      </trkpt>
      <trkpt lat="42.4992858432233333587646484375" lon="1.05084766633808612823486328125">
        <ele>2101.60009765625</ele>
        <time>2020-08-13T12:57:57.000Z</time>
      </trkpt>
      <trkpt lat="42.4992402456700801849365234375" lon="1.0507957823574542999267578125">
        <ele>2101.800048828125</ele>
        <time>2020-08-13T12:58:00.000Z</time>
      </trkpt>
      <trkpt lat="42.49909498728811740875244140625" lon="1.050618253648281097412109375">
        <ele>2102.39990234375</ele>
        <time>2020-08-13T12:58:10.000Z</time>
      </trkpt>
      <trkpt lat="42.49903849326074123382568359375" lon="1.0505449958145618438720703125">
        <ele>2103</ele>
        <time>2020-08-13T12:58:14.000Z</time>
      </trkpt>
      <trkpt lat="42.49893941916525363922119140625" lon="1.05040241964161396026611328125">
        <ele>2103</ele>
        <time>2020-08-13T12:58:21.000Z</time>
      </trkpt>
      <trkpt lat="42.49876608140766620635986328125" lon="1.050148867070674896240234375">
        <ele>2103.60009765625</ele>
        <time>2020-08-13T12:58:33.000Z</time>
      </trkpt>
      <trkpt lat="42.49864554964005947113037109375" lon="1.0500350408256053924560546875">
        <ele>2103.800048828125</ele>
        <time>2020-08-13T12:58:40.000Z</time>
      </trkpt>
      <trkpt lat="42.49859358184039592742919921875" lon="1.04998617433011531829833984375">
        <ele>2104</ele>
        <time>2020-08-13T12:58:43.000Z</time>
      </trkpt>
      <trkpt lat="42.49851353466510772705078125" lon="1.049900092184543609619140625">
        <ele>2104.800048828125</ele>
        <time>2020-08-13T12:58:48.000Z</time>
      </trkpt>
      <trkpt lat="42.498466931283473968505859375" lon="1.04984586127102375030517578125">
        <ele>2105.39990234375</ele>
        <time>2020-08-13T12:58:51.000Z</time>
      </trkpt>
      <trkpt lat="42.498392164707183837890625" lon="1.04974376969039440155029296875">
        <ele>2105.60009765625</ele>
        <time>2020-08-13T12:58:56.000Z</time>
      </trkpt>
      <trkpt lat="42.49831228516995906829833984375" lon="1.04957059957087039947509765625">
        <ele>2106.39990234375</ele>
        <time>2020-08-13T12:59:03.000Z</time>
      </trkpt>
      <trkpt lat="42.49830222688615322113037109375" lon="1.04954662732779979705810546875">
        <ele>2106.60009765625</ele>
        <time>2020-08-13T12:59:04.000Z</time>
      </trkpt>
      <trkpt lat="42.498239614069461822509765625" lon="1.04936130344867706298828125">
        <ele>2107</ele>
        <time>2020-08-13T12:59:11.000Z</time>
      </trkpt>
      <trkpt lat="42.49822896905243396759033203125" lon="1.0493356548249721527099609375">
        <ele>2106.800048828125</ele>
        <time>2020-08-13T12:59:12.000Z</time>
      </trkpt>
      <trkpt lat="42.4981465749442577362060546875" lon="1.0492144525051116943359375">
        <ele>2107.39990234375</ele>
        <time>2020-08-13T12:59:18.000Z</time>
      </trkpt>
      <trkpt lat="42.49812939204275608062744140625" lon="1.04919626377522945404052734375">
        <ele>2107.39990234375</ele>
        <time>2020-08-13T12:59:19.000Z</time>
      </trkpt>
      <trkpt lat="42.49800525605678558349609375" lon="1.04911630041897296905517578125">
        <ele>2107.800048828125</ele>
        <time>2020-08-13T12:59:26.000Z</time>
      </trkpt>
      <trkpt lat="42.49791213311254978179931640625" lon="1.04910406284034252166748046875">
        <ele>2108.39990234375</ele>
        <time>2020-08-13T12:59:31.000Z</time>
      </trkpt>
      <trkpt lat="42.49783334322273731231689453125" lon="1.0491147078573703765869140625">
        <ele>2108.800048828125</ele>
        <time>2020-08-13T12:59:35.000Z</time>
      </trkpt>
      <trkpt lat="42.49761767685413360595703125" lon="1.04914999566972255706787109375">
        <ele>2109</ele>
        <time>2020-08-13T12:59:45.000Z</time>
      </trkpt>
      <trkpt lat="42.49753125943243503570556640625" lon="1.04912853799760341644287109375">
        <ele>2109.60009765625</ele>
        <time>2020-08-13T12:59:49.000Z</time>
      </trkpt>
      <trkpt lat="42.49744609929621219635009765625" lon="1.04910909198224544525146484375">
        <ele>2109.39990234375</ele>
        <time>2020-08-13T12:59:53.000Z</time>
      </trkpt>
      <trkpt lat="42.49728374183177947998046875" lon="1.04906382970511913299560546875">
        <ele>2109.800048828125</ele>
        <time>2020-08-13T13:00:01.000Z</time>
      </trkpt>
      <trkpt lat="42.4971236474812030792236328125" lon="1.04901772923767566680908203125">
        <ele>2110.39990234375</ele>
        <time>2020-08-13T13:00:09.000Z</time>
      </trkpt>
      <trkpt lat="42.49706187285482883453369140625" lon="1.0489987023174762725830078125">
        <ele>2110.800048828125</ele>
        <time>2020-08-13T13:00:12.000Z</time>
      </trkpt>
      <trkpt lat="42.49698199331760406494140625" lon="1.0489691980183124542236328125">
        <ele>2111.800048828125</ele>
        <time>2020-08-13T13:00:16.000Z</time>
      </trkpt>
      <trkpt lat="42.496962882578372955322265625" lon="1.04895855300128459930419921875">
        <ele>2111.800048828125</ele>
        <time>2020-08-13T13:00:17.000Z</time>
      </trkpt>
      <trkpt lat="42.49681594781577587127685546875" lon="1.04882326908409595489501953125">
        <ele>2112.800048828125</ele>
        <time>2020-08-13T13:00:26.000Z</time>
      </trkpt>
      <trkpt lat="42.49674570746719837188720703125" lon="1.04865395464003086090087890625">
        <ele>2112.39990234375</ele>
        <time>2020-08-13T13:00:33.000Z</time>
      </trkpt>
      <trkpt lat="42.49668083153665065765380859375" lon="1.04841054417192935943603515625">
        <ele>2112.800048828125</ele>
        <time>2020-08-13T13:00:41.000Z</time>
      </trkpt>
      <trkpt lat="42.4966716952621936798095703125" lon="1.0483771003782749176025390625">
        <ele>2113</ele>
        <time>2020-08-13T13:00:42.000Z</time>
      </trkpt>
      <trkpt lat="42.4965905584394931793212890625" lon="1.0481362044811248779296875">
        <ele>2112.60009765625</ele>
        <time>2020-08-13T13:00:49.000Z</time>
      </trkpt>
      <trkpt lat="42.4964381754398345947265625" lon="1.0478896088898181915283203125">
        <ele>2113.39990234375</ele>
        <time>2020-08-13T13:00:58.000Z</time>
      </trkpt>
      <trkpt lat="42.49634237028658390045166015625" lon="1.04769925586879253387451171875">
        <ele>2113.60009765625</ele>
        <time>2020-08-13T13:01:04.000Z</time>
      </trkpt>
      <trkpt lat="42.49620088376104831695556640625" lon="1.047378480434417724609375">
        <ele>2112.800048828125</ele>
        <time>2020-08-13T13:01:13.000Z</time>
      </trkpt>
      <trkpt lat="42.4960360117256641387939453125" lon="1.04736439883708953857421875">
        <ele>2113</ele>
        <time>2020-08-13T13:01:18.000Z</time>
      </trkpt>
      <trkpt lat="42.49584197066724300384521484375" lon="1.04734336026012897491455078125">
        <ele>2113</ele>
        <time>2020-08-13T13:01:25.000Z</time>
      </trkpt>
      <trkpt lat="42.4956088699400424957275390625" lon="1.047339253127574920654296875">
        <ele>2112</ele>
        <time>2020-08-13T13:01:32.000Z</time>
      </trkpt>
      <trkpt lat="42.49549739062786102294921875" lon="1.047358028590679168701171875">
        <ele>2111.800048828125</ele>
        <time>2020-08-13T13:01:35.000Z</time>
      </trkpt>
      <trkpt lat="42.49531097710132598876953125" lon="1.0474011115729808807373046875">
        <ele>2111</ele>
        <time>2020-08-13T13:01:40.000Z</time>
      </trkpt>
      <trkpt lat="42.49500009231269359588623046875" lon="1.04745584540069103240966796875">
        <ele>2110.800048828125</ele>
        <time>2020-08-13T13:01:49.000Z</time>
      </trkpt>
      <trkpt lat="42.49478233046829700469970703125" lon="1.04752139188349246978759765625">
        <ele>2111.39990234375</ele>
        <time>2020-08-13T13:01:56.000Z</time>
      </trkpt>
      <trkpt lat="42.49458384700119495391845703125" lon="1.04753899388015270233154296875">
        <ele>2113</ele>
        <time>2020-08-13T13:02:03.000Z</time>
      </trkpt>
      <trkpt lat="42.49452768824994564056396484375" lon="1.04753010906279087066650390625">
        <ele>2113.800048828125</ele>
        <time>2020-08-13T13:02:05.000Z</time>
      </trkpt>
      <trkpt lat="42.4944729544222354888916015625" lon="1.0475144349038600921630859375">
        <ele>2114</ele>
        <time>2020-08-13T13:02:07.000Z</time>
      </trkpt>
      <trkpt lat="42.49434093944728374481201171875" lon="1.04746053926646709442138671875">
        <ele>2115.199951171875</ele>
        <time>2020-08-13T13:02:12.000Z</time>
      </trkpt>
      <trkpt lat="42.494314871728420257568359375" lon="1.047447212040424346923828125">
        <ele>2116</ele>
        <time>2020-08-13T13:02:13.000Z</time>
      </trkpt>
      <trkpt lat="42.4942345730960369110107421875" lon="1.0474101640284061431884765625">
        <ele>2116.60009765625</ele>
        <time>2020-08-13T13:02:16.000Z</time>
      </trkpt>
      <trkpt lat="42.49415092170238494873046875" lon="1.0473327152431011199951171875">
        <ele>2117.39990234375</ele>
        <time>2020-08-13T13:02:20.000Z</time>
      </trkpt>
      <trkpt lat="42.49412636272609233856201171875" lon="1.04728803969919681549072265625">
        <ele>2117.800048828125</ele>
        <time>2020-08-13T13:02:22.000Z</time>
      </trkpt>
      <trkpt lat="42.49410607852041721343994140625" lon="1.0472281090915203094482421875">
        <ele>2118.800048828125</ele>
        <time>2020-08-13T13:02:25.000Z</time>
      </trkpt>
      <trkpt lat="42.49410171993076801300048828125" lon="1.0472049750387668609619140625">
        <ele>2119</ele>
        <time>2020-08-13T13:02:26.000Z</time>
      </trkpt>
      <trkpt lat="42.49408579431474208831787109375" lon="1.04706977494060993194580078125">
        <ele>2119</ele>
        <time>2020-08-13T13:02:33.000Z</time>
      </trkpt>
      <trkpt lat="42.4940816871821880340576171875" lon="1.0469337366521358489990234375">
        <ele>2119.60009765625</ele>
        <time>2020-08-13T13:02:40.000Z</time>
      </trkpt>
      <trkpt lat="42.494081519544124603271484375" lon="1.04689233005046844482421875">
        <ele>2120</ele>
        <time>2020-08-13T13:02:42.000Z</time>
      </trkpt>
      <trkpt lat="42.4940790049731731414794921875" lon="1.04675964452326297760009765625">
        <ele>2120.199951171875</ele>
        <time>2020-08-13T13:02:48.000Z</time>
      </trkpt>
      <trkpt lat="42.4940722994506359100341796875" lon="1.04660206474363803863525390625">
        <ele>2120.800048828125</ele>
        <time>2020-08-13T13:02:55.000Z</time>
      </trkpt>
      <trkpt lat="42.494071461260318756103515625" lon="1.0465800203382968902587890625">
        <ele>2121</ele>
        <time>2020-08-13T13:02:56.000Z</time>
      </trkpt>
      <trkpt lat="42.4940712936222553253173828125" lon="1.046402156352996826171875">
        <ele>2122</ele>
        <time>2020-08-13T13:03:04.000Z</time>
      </trkpt>
      <trkpt lat="42.4940215051174163818359375" lon="1.04619302786886692047119140625">
        <ele>2123.199951171875</ele>
        <time>2020-08-13T13:03:13.000Z</time>
      </trkpt>
      <trkpt lat="42.49391363002359867095947265625" lon="1.046021617949008941650390625">
        <ele>2124</ele>
        <time>2020-08-13T13:03:22.000Z</time>
      </trkpt>
      <trkpt lat="42.4938820302486419677734375" lon="1.045962274074554443359375">
        <ele>2124.39990234375</ele>
        <time>2020-08-13T13:03:25.000Z</time>
      </trkpt>
      <trkpt lat="42.49381489120423793792724609375" lon="1.0457984916865825653076171875">
        <ele>2125.199951171875</ele>
        <time>2020-08-13T13:03:33.000Z</time>
      </trkpt>
      <trkpt lat="42.49380759894847869873046875" lon="1.04577829129993915557861328125">
        <ele>2125.39990234375</ele>
        <time>2020-08-13T13:03:34.000Z</time>
      </trkpt>
      <trkpt lat="42.49374917708337306976318359375" lon="1.0455808974802494049072265625">
        <ele>2126</ele>
        <time>2020-08-13T13:03:43.000Z</time>
      </trkpt>
      <trkpt lat="42.49373174272477626800537109375" lon="1.04553940705955028533935546875">
        <ele>2126.39990234375</ele>
        <time>2020-08-13T13:03:45.000Z</time>
      </trkpt>
      <trkpt lat="42.49369972385466098785400390625" lon="1.0454595275223255157470703125">
        <ele>2127.199951171875</ele>
        <time>2020-08-13T13:03:49.000Z</time>
      </trkpt>
      <trkpt lat="42.4936706386506557464599609375" lon="1.04540244676172733306884765625">
        <ele>2127.60009765625</ele>
        <time>2020-08-13T13:03:52.000Z</time>
      </trkpt>
      <trkpt lat="42.49364641495048999786376953125" lon="1.04537143371999263763427734375">
        <ele>2128.60009765625</ele>
        <time>2020-08-13T13:03:54.000Z</time>
      </trkpt>
      <trkpt lat="42.49363317154347896575927734375" lon="1.04535567574203014373779296875">
        <ele>2128.800048828125</ele>
        <time>2020-08-13T13:03:55.000Z</time>
      </trkpt>
      <trkpt lat="42.49354147352278232574462890625" lon="1.04524352587759494781494140625">
        <ele>2128.60009765625</ele>
        <time>2020-08-13T13:04:02.000Z</time>
      </trkpt>
      <trkpt lat="42.49345949850976467132568359375" lon="1.04511897079646587371826171875">
        <ele>2129.60009765625</ele>
        <time>2020-08-13T13:04:09.000Z</time>
      </trkpt>
      <trkpt lat="42.4934523738920688629150390625" lon="1.04509902186691761016845703125">
        <ele>2129.800048828125</ele>
        <time>2020-08-13T13:04:10.000Z</time>
      </trkpt>
      <trkpt lat="42.49345178715884685516357421875" lon="1.0450865328311920166015625">
        <ele>2130</ele>
        <time>2020-08-13T13:04:14.000Z</time>
      </trkpt>
      <trkpt lat="42.4934523738920688629150390625" lon="1.04508711956441402435302734375">
        <ele>2130.800048828125</ele>
        <time>2020-08-13T13:04:19.000Z</time>
      </trkpt>
      <trkpt lat="42.49342714436352252960205078125" lon="1.04505141265690326690673828125">
        <ele>2130.800048828125</ele>
        <time>2020-08-13T13:04:27.000Z</time>
      </trkpt>
      <trkpt lat="42.49337987042963504791259765625" lon="1.0449604690074920654296875">
        <ele>2132</ele>
        <time>2020-08-13T13:04:32.000Z</time>
      </trkpt>
      <trkpt lat="42.49334131367504596710205078125" lon="1.0448798350989818572998046875">
        <ele>2132.39990234375</ele>
        <time>2020-08-13T13:04:36.000Z</time>
      </trkpt>
      <trkpt lat="42.49325581826269626617431640625" lon="1.0446842014789581298828125">
        <ele>2133</ele>
        <time>2020-08-13T13:04:45.000Z</time>
      </trkpt>
      <trkpt lat="42.493191026151180267333984375" lon="1.04447306133806705474853515625">
        <ele>2133.39990234375</ele>
        <time>2020-08-13T13:04:54.000Z</time>
      </trkpt>
      <trkpt lat="42.493175603449344635009765625" lon="1.04437834583222866058349609375">
        <ele>2134.199951171875</ele>
        <time>2020-08-13T13:04:58.000Z</time>
      </trkpt>
      <trkpt lat="42.49314500950276851654052734375" lon="1.044241301715373992919921875">
        <ele>2134.800048828125</ele>
        <time>2020-08-13T13:05:04.000Z</time>
      </trkpt>
      <trkpt lat="42.49312690459191799163818359375" lon="1.04412906803190708160400390625">
        <ele>2135.39990234375</ele>
        <time>2020-08-13T13:05:09.000Z</time>
      </trkpt>
      <trkpt lat="42.4931176006793975830078125" lon="1.0441103763878345489501953125">
        <ele>2135.60009765625</ele>
        <time>2020-08-13T13:05:10.000Z</time>
      </trkpt>
      <trkpt lat="42.49304182827472686767578125" lon="1.0439584963023662567138671875">
        <ele>2136.60009765625</ele>
        <time>2020-08-13T13:05:18.000Z</time>
      </trkpt>
      <trkpt lat="42.4930332787334918975830078125" lon="1.04393963702023029327392578125">
        <ele>2137</ele>
        <time>2020-08-13T13:05:19.000Z</time>
      </trkpt>
      <trkpt lat="42.49300721101462841033935546875" lon="1.0438849031925201416015625">
        <ele>2137.800048828125</ele>
        <time>2020-08-13T13:05:22.000Z</time>
      </trkpt>
      <trkpt lat="42.492951638996601104736328125" lon="1.0437784530222415924072265625">
        <ele>2138.800048828125</ele>
        <time>2020-08-13T13:05:28.000Z</time>
      </trkpt>
      <trkpt lat="42.4929424189031124114990234375" lon="1.04376127012073993682861328125">
        <ele>2138.800048828125</ele>
        <time>2020-08-13T13:05:29.000Z</time>
      </trkpt>
      <trkpt lat="42.4929068796336650848388671875" lon="1.04368767701089382171630859375">
        <ele>2139.800048828125</ele>
        <time>2020-08-13T13:05:33.000Z</time>
      </trkpt>
      <trkpt lat="42.49285683967173099517822265625" lon="1.04358323849737644195556640625">
        <ele>2140.800048828125</ele>
        <time>2020-08-13T13:05:39.000Z</time>
      </trkpt>
      <trkpt lat="42.49282750301063060760498046875" lon="1.04350981302559375762939453125">
        <ele>2141.800048828125</ele>
        <time>2020-08-13T13:05:43.000Z</time>
      </trkpt>
      <trkpt lat="42.49279162846505641937255859375" lon="1.0433912090957164764404296875">
        <ele>2143.199951171875</ele>
        <time>2020-08-13T13:05:49.000Z</time>
      </trkpt>
      <trkpt lat="42.49272323213517665863037109375" lon="1.04321845807135105133056640625">
        <ele>2142.60009765625</ele>
        <time>2020-08-13T13:05:57.000Z</time>
      </trkpt>
      <trkpt lat="42.4926027841866016387939453125" lon="1.043102703988552093505859375">
        <ele>2143.800048828125</ele>
        <time>2020-08-13T13:06:05.000Z</time>
      </trkpt>
      <trkpt lat="42.49258828349411487579345703125" lon="1.04308736510574817657470703125">
        <ele>2144.199951171875</ele>
        <time>2020-08-13T13:06:06.000Z</time>
      </trkpt>
      <trkpt lat="42.492509074509143829345703125" lon="1.04296381585299968719482421875">
        <ele>2144.800048828125</ele>
        <time>2020-08-13T13:06:12.000Z</time>
      </trkpt>
      <trkpt lat="42.49242248944938182830810546875" lon="1.0427369177341461181640625">
        <ele>2144.800048828125</ele>
        <time>2020-08-13T13:06:20.000Z</time>
      </trkpt>
      <trkpt lat="42.4923506565392017364501953125" lon="1.04256902821362018585205078125">
        <ele>2145.199951171875</ele>
        <time>2020-08-13T13:06:26.000Z</time>
      </trkpt>
      <trkpt lat="42.4922581203281879425048828125" lon="1.04255880229175090789794921875">
        <ele>2146.39990234375</ele>
        <time>2020-08-13T13:06:30.000Z</time>
      </trkpt>
      <trkpt lat="42.49211914837360382080078125" lon="1.04267329908907413482666015625">
        <ele>2147.199951171875</ele>
        <time>2020-08-13T13:06:37.000Z</time>
      </trkpt>
      <trkpt lat="42.4920795857906341552734375" lon="1.04270079173147678375244140625">
        <ele>2147.39990234375</ele>
        <time>2020-08-13T13:06:39.000Z</time>
      </trkpt>
      <trkpt lat="42.4919681064784526824951171875" lon="1.04272191412746906280517578125">
        <ele>2148.39990234375</ele>
        <time>2020-08-13T13:06:44.000Z</time>
      </trkpt>
      <trkpt lat="42.491945140063762664794921875" lon="1.04272090829908847808837890625">
        <ele>2148.39990234375</ele>
        <time>2020-08-13T13:06:45.000Z</time>
      </trkpt>
      <trkpt lat="42.4918490834534168243408203125" lon="1.0426643304526805877685546875">
        <ele>2148.60009765625</ele>
        <time>2020-08-13T13:06:50.000Z</time>
      </trkpt>
      <trkpt lat="42.4918071739375591278076171875" lon="1.0425657592713832855224609375">
        <ele>2149.60009765625</ele>
        <time>2020-08-13T13:06:54.000Z</time>
      </trkpt>
      <trkpt lat="42.4917974509298801422119140625" lon="1.04251001961529254913330078125">
        <ele>2150</ele>
        <time>2020-08-13T13:06:56.000Z</time>
      </trkpt>
      <trkpt lat="42.49179015867412090301513671875" lon="1.04239552281796932220458984375">
        <ele>2150.60009765625</ele>
        <time>2020-08-13T13:07:00.000Z</time>
      </trkpt>
      <trkpt lat="42.49178227968513965606689453125" lon="1.04228035546839237213134765625">
        <ele>2150.60009765625</ele>
        <time>2020-08-13T13:07:04.000Z</time>
      </trkpt>
      <trkpt lat="42.49172830022871494293212890625" lon="1.04204800911247730255126953125">
        <ele>2150.800048828125</ele>
        <time>2020-08-13T13:07:13.000Z</time>
      </trkpt>
      <trkpt lat="42.49169577844440937042236328125" lon="1.04184441268444061279296875">
        <ele>2151.60009765625</ele>
        <time>2020-08-13T13:07:21.000Z</time>
      </trkpt>
      <trkpt lat="42.4916891567409038543701171875" lon="1.04182069189846515655517578125">
        <ele>2151.800048828125</ele>
        <time>2020-08-13T13:07:22.000Z</time>
      </trkpt>
      <trkpt lat="42.49163903295993804931640625" lon="1.04162455536425113677978515625">
        <ele>2152</ele>
        <time>2020-08-13T13:07:30.000Z</time>
      </trkpt>
      <trkpt lat="42.49162168242037296295166015625" lon="1.04152950458228588104248046875">
        <ele>2152.800048828125</ele>
        <time>2020-08-13T13:07:34.000Z</time>
      </trkpt>
      <trkpt lat="42.4916128814220428466796875" lon="1.041448451578617095947265625">
        <ele>2153.199951171875</ele>
        <time>2020-08-13T13:07:37.000Z</time>
      </trkpt>
      <trkpt lat="42.4916056729853153228759765625" lon="1.04134292341768741607666015625">
        <ele>2153.800048828125</ele>
        <time>2020-08-13T13:07:41.000Z</time>
      </trkpt>
      <trkpt lat="42.49159477651119232177734375" lon="1.04124066419899463653564453125">
        <ele>2154.199951171875</ele>
        <time>2020-08-13T13:07:45.000Z</time>
      </trkpt>
      <trkpt lat="42.49158564023673534393310546875" lon="1.0410902090370655059814453125">
        <ele>2154.800048828125</ele>
        <time>2020-08-13T13:07:51.000Z</time>
      </trkpt>
      <trkpt lat="42.49158807098865509033203125" lon="1.04106531478464603424072265625">
        <ele>2155</ele>
        <time>2020-08-13T13:07:52.000Z</time>
      </trkpt>
      <trkpt lat="42.491589747369289398193359375" lon="1.041040085256099700927734375">
        <ele>2155.199951171875</ele>
        <time>2020-08-13T13:07:53.000Z</time>
      </trkpt>
      <trkpt lat="42.49159469269216060638427734375" lon="1.04093916714191436767578125">
        <ele>2156</ele>
        <time>2020-08-13T13:07:57.000Z</time>
      </trkpt>
      <trkpt lat="42.49160743318498134613037109375" lon="1.04079089127480983734130859375">
        <ele>2156.60009765625</ele>
        <time>2020-08-13T13:08:03.000Z</time>
      </trkpt>
      <trkpt lat="42.49162805266678333282470703125" lon="1.0405997000634670257568359375">
        <ele>2157</ele>
        <time>2020-08-13T13:08:11.000Z</time>
      </trkpt>
      <trkpt lat="42.49160609208047389984130859375" lon="1.04041638784110546112060546875">
        <ele>2158</ele>
        <time>2020-08-13T13:08:18.000Z</time>
      </trkpt>
      <trkpt lat="42.4916016496717929840087890625" lon="1.040392331779003143310546875">
        <ele>2158.199951171875</ele>
        <time>2020-08-13T13:08:19.000Z</time>
      </trkpt>
      <trkpt lat="42.49158379621803760528564453125" lon="1.040244139730930328369140625">
        <ele>2159</ele>
        <time>2020-08-13T13:08:25.000Z</time>
      </trkpt>
      <trkpt lat="42.49158714897930622100830078125" lon="1.0402339138090610504150390625">
        <ele>2159.199951171875</ele>
        <time>2020-08-13T13:08:26.000Z</time>
      </trkpt>
      <trkpt lat="42.4915868975222110748291015625" lon="1.0402386076748371124267578125">
        <ele>2159.60009765625</ele>
        <time>2020-08-13T13:08:34.000Z</time>
      </trkpt>
      <trkpt lat="42.4915882386267185211181640625" lon="1.0402362607419490814208984375">
        <ele>2159.39990234375</ele>
        <time>2020-08-13T13:08:46.000Z</time>
      </trkpt>
      <trkpt lat="42.49158916063606739044189453125" lon="1.0402352549135684967041015625">
        <ele>2159.60009765625</ele>
        <time>2020-08-13T13:08:56.000Z</time>
      </trkpt>
      <trkpt lat="42.49158865772187709808349609375" lon="1.0402370989322662353515625">
        <ele>2160</ele>
        <time>2020-08-13T13:09:11.000Z</time>
      </trkpt>
      <trkpt lat="42.49158865772187709808349609375" lon="1.04023701511323451995849609375">
        <ele>2160.199951171875</ele>
        <time>2020-08-13T13:09:20.000Z</time>
      </trkpt>
      <trkpt lat="42.4915889091789722442626953125" lon="1.040237434208393096923828125">
        <ele>2160.39990234375</ele>
        <time>2020-08-13T13:09:38.000Z</time>
      </trkpt>
      <trkpt lat="42.4915887415409088134765625" lon="1.04023751802742481231689453125">
        <ele>2160.199951171875</ele>
        <time>2020-08-13T13:10:03.000Z</time>
      </trkpt>
      <trkpt lat="42.49158899299800395965576171875" lon="1.0402379371225833892822265625">
        <ele>2160.39990234375</ele>
        <time>2020-08-13T13:10:10.000Z</time>
      </trkpt>
      <trkpt lat="42.4915889091789722442626953125" lon="1.04023751802742481231689453125">
        <ele>2160.199951171875</ele>
        <time>2020-08-13T13:10:25.000Z</time>
      </trkpt>
      <trkpt lat="42.4915939383208751678466796875" lon="1.0402228496968746185302734375">
        <ele>2159.199951171875</ele>
        <time>2020-08-13T13:10:47.000Z</time>
      </trkpt>
      <trkpt lat="42.4915996380150318145751953125" lon="1.04020767845213413238525390625">
        <ele>2159</ele>
        <time>2020-08-13T13:10:48.000Z</time>
      </trkpt>
      <trkpt lat="42.4916455708444118499755859375" lon="1.04010424576699733734130859375">
        <ele>2159.199951171875</ele>
        <time>2020-08-13T13:10:53.000Z</time>
      </trkpt>
      <trkpt lat="42.4917045794427394866943359375" lon="1.039968542754650115966796875">
        <ele>2159</ele>
        <time>2020-08-13T13:11:00.000Z</time>
      </trkpt>
      <trkpt lat="42.491746656596660614013671875" lon="1.03986871428787708282470703125">
        <ele>2160</ele>
        <time>2020-08-13T13:11:05.000Z</time>
      </trkpt>
      <trkpt lat="42.49174992553889751434326171875" lon="1.0398428142070770263671875">
        <ele>2160</ele>
        <time>2020-08-13T13:11:06.000Z</time>
      </trkpt>
      <trkpt lat="42.49173416756093502044677734375" lon="1.039698980748653411865234375">
        <ele>2160.60009765625</ele>
        <time>2020-08-13T13:11:12.000Z</time>
      </trkpt>
      <trkpt lat="42.4916692078113555908203125" lon="1.03961147367954254150390625">
        <ele>2160.199951171875</ele>
        <time>2020-08-13T13:11:18.000Z</time>
      </trkpt>
      <trkpt lat="42.49157859943807125091552734375" lon="1.03954978287220001220703125">
        <ele>2160</ele>
        <time>2020-08-13T13:11:24.000Z</time>
      </trkpt>
      <trkpt lat="42.49145664274692535400390625" lon="1.0394832305610179901123046875">
        <ele>2160.800048828125</ele>
        <time>2020-08-13T13:11:31.000Z</time>
      </trkpt>
      <trkpt lat="42.49136771075427532196044921875" lon="1.03940335102379322052001953125">
        <ele>2161.199951171875</ele>
        <time>2020-08-13T13:11:37.000Z</time>
      </trkpt>
      <trkpt lat="42.4913394637405872344970703125" lon="1.0393739305436611175537109375">
        <ele>2161.60009765625</ele>
        <time>2020-08-13T13:11:39.000Z</time>
      </trkpt>
      <trkpt lat="42.4912589974701404571533203125" lon="1.03932891972362995147705078125">
        <ele>2162.199951171875</ele>
        <time>2020-08-13T13:11:44.000Z</time>
      </trkpt>
      <trkpt lat="42.491208873689174652099609375" lon="1.039306707680225372314453125">
        <ele>2162.199951171875</ele>
        <time>2020-08-13T13:11:47.000Z</time>
      </trkpt>
      <trkpt lat="42.49116788618266582489013671875" lon="1.039280556142330169677734375">
        <ele>2162</ele>
        <time>2020-08-13T13:11:50.000Z</time>
      </trkpt>
      <trkpt lat="42.4911419861018657684326171875" lon="1.03929086588323116302490234375">
        <ele>2162</ele>
        <time>2020-08-13T13:11:52.000Z</time>
      </trkpt>
      <trkpt lat="42.49105154536664485931396484375" lon="1.0392988286912441253662109375">
        <ele>2161.39990234375</ele>
        <time>2020-08-13T13:11:57.000Z</time>
      </trkpt>
      <trkpt lat="42.49088709242641925811767578125" lon="1.03934735991060733795166015625">
        <ele>2161.800048828125</ele>
        <time>2020-08-13T13:12:05.000Z</time>
      </trkpt>
      <trkpt lat="42.4907477013766765594482421875" lon="1.03938658721745014190673828125">
        <ele>2162.39990234375</ele>
        <time>2020-08-13T13:12:13.000Z</time>
      </trkpt>
      <trkpt lat="42.49061753042042255401611328125" lon="1.03941273875534534454345703125">
        <ele>2162.199951171875</ele>
        <time>2020-08-13T13:12:20.000Z</time>
      </trkpt>
      <trkpt lat="42.49046699143946170806884765625" lon="1.03943570517003536224365234375">
        <ele>2162.199951171875</ele>
        <time>2020-08-13T13:12:28.000Z</time>
      </trkpt>
      <trkpt lat="42.49036272056400775909423828125" lon="1.0394429974257946014404296875">
        <ele>2162.60009765625</ele>
        <time>2020-08-13T13:12:35.000Z</time>
      </trkpt>
      <trkpt lat="42.4902038834989070892333984375" lon="1.03944961912930011749267578125">
        <ele>2162.60009765625</ele>
        <time>2020-08-13T13:12:46.000Z</time>
      </trkpt>
      <trkpt lat="42.49010623432695865631103515625" lon="1.039441488683223724365234375">
        <ele>2162.800048828125</ele>
        <time>2020-08-13T13:12:52.000Z</time>
      </trkpt>
      <trkpt lat="42.48994815163314342498779296875" lon="1.0394808836281299591064453125">
        <ele>2163</ele>
        <time>2020-08-13T13:13:00.000Z</time>
      </trkpt>
      <trkpt lat="42.48988310806453227996826171875" lon="1.0394889302551746368408203125">
        <ele>2163.199951171875</ele>
        <time>2020-08-13T13:13:03.000Z</time>
      </trkpt>
      <trkpt lat="42.48972385190427303314208984375" lon="1.0394862480461597442626953125">
        <ele>2164</ele>
        <time>2020-08-13T13:13:10.000Z</time>
      </trkpt>
      <trkpt lat="42.48960985802114009857177734375" lon="1.03946688584983348846435546875">
        <ele>2164.199951171875</ele>
        <time>2020-08-13T13:13:15.000Z</time>
      </trkpt>
      <trkpt lat="42.48952017165720462799072265625" lon="1.039451546967029571533203125">
        <ele>2164.800048828125</ele>
        <time>2020-08-13T13:13:19.000Z</time>
      </trkpt>
      <trkpt lat="42.48947759158909320831298828125" lon="1.03943989612162113189697265625">
        <ele>2165.39990234375</ele>
        <time>2020-08-13T13:13:21.000Z</time>
      </trkpt>
      <trkpt lat="42.4893817864358425140380859375" lon="1.03937367908656597137451171875">
        <ele>2166</ele>
        <time>2020-08-13T13:13:26.000Z</time>
      </trkpt>
      <trkpt lat="42.48928396962583065032958984375" lon="1.0392270796000957489013671875">
        <ele>2165.60009765625</ele>
        <time>2020-08-13T13:13:33.000Z</time>
      </trkpt>
      <trkpt lat="42.489172406494617462158203125" lon="1.0390584357082843780517578125">
        <ele>2164.39990234375</ele>
        <time>2020-08-13T13:13:41.000Z</time>
      </trkpt>
      <trkpt lat="42.48908481560647487640380859375" lon="1.0389335453510284423828125">
        <ele>2163.39990234375</ele>
        <time>2020-08-13T13:13:47.000Z</time>
      </trkpt>
      <trkpt lat="42.4890056066215038299560546875" lon="1.03883824311196804046630859375">
        <ele>2163.60009765625</ele>
        <time>2020-08-13T13:13:52.000Z</time>
      </trkpt>
      <trkpt lat="42.48883319087326526641845703125" lon="1.03865819983184337615966796875">
        <ele>2164.199951171875</ele>
        <time>2020-08-13T13:14:01.000Z</time>
      </trkpt>
      <trkpt lat="42.488812319934368133544921875" lon="1.0386369936168193817138671875">
        <ele>2164.39990234375</ele>
        <time>2020-08-13T13:14:02.000Z</time>
      </trkpt>
      <trkpt lat="42.48868198134005069732666015625" lon="1.03849642910063266754150390625">
        <ele>2164.800048828125</ele>
        <time>2020-08-13T13:14:08.000Z</time>
      </trkpt>
      <trkpt lat="42.48849556781351566314697265625" lon="1.03832627646625041961669921875">
        <ele>2165.199951171875</ele>
        <time>2020-08-13T13:14:16.000Z</time>
      </trkpt>
      <trkpt lat="42.48829163610935211181640625" lon="1.03812729008495807647705078125">
        <ele>2165</ele>
        <time>2020-08-13T13:14:25.000Z</time>
      </trkpt>
      <trkpt lat="42.48812844045460224151611328125" lon="1.03795495815575122833251953125">
        <ele>2164.800048828125</ele>
        <time>2020-08-13T13:14:33.000Z</time>
      </trkpt>
      <trkpt lat="42.48794496059417724609375" lon="1.03782109916210174560546875">
        <ele>2165</ele>
        <time>2020-08-13T13:14:41.000Z</time>
      </trkpt>
      <trkpt lat="42.48783054761588573455810546875" lon="1.03771791793406009674072265625">
        <ele>2165.39990234375</ele>
        <time>2020-08-13T13:14:46.000Z</time>
      </trkpt>
      <trkpt lat="42.4877409450709819793701171875" lon="1.03762722574174404144287109375">
        <ele>2165.800048828125</ele>
        <time>2020-08-13T13:14:50.000Z</time>
      </trkpt>
      <trkpt lat="42.48756366781890392303466796875" lon="1.03746696375310420989990234375">
        <ele>2165.800048828125</ele>
        <time>2020-08-13T13:14:58.000Z</time>
      </trkpt>
      <trkpt lat="42.48739049769937992095947265625" lon="1.03730217553675174713134765625">
        <ele>2166.39990234375</ele>
        <time>2020-08-13T13:15:06.000Z</time>
      </trkpt>
      <trkpt lat="42.48724163509905338287353515625" lon="1.0371362976729869842529296875">
        <ele>2165.800048828125</ele>
        <time>2020-08-13T13:15:13.000Z</time>
      </trkpt>
      <trkpt lat="42.4870794452726840972900390625" lon="1.03685106150805950164794921875">
        <ele>2166.39990234375</ele>
        <time>2020-08-13T13:15:21.000Z</time>
      </trkpt>
      <trkpt lat="42.4869570694863796234130859375" lon="1.0366625525057315826416015625">
        <ele>2165.199951171875</ele>
        <time>2020-08-13T13:15:26.000Z</time>
      </trkpt>
      <trkpt lat="42.4868967197835445404052734375" lon="1.03660413064062595367431640625">
        <ele>2164.800048828125</ele>
        <time>2020-08-13T13:15:28.000Z</time>
      </trkpt>
      <trkpt lat="42.4867233820259571075439453125" lon="1.03652919642627239227294921875">
        <ele>2164.60009765625</ele>
        <time>2020-08-13T13:15:33.000Z</time>
      </trkpt>
      <trkpt lat="42.48660989105701446533203125" lon="1.0365894623100757598876953125">
        <ele>2164</ele>
        <time>2020-08-13T13:15:36.000Z</time>
      </trkpt>
      <trkpt lat="42.48653076589107513427734375" lon="1.036637909710407257080078125">
        <ele>2163.39990234375</ele>
        <time>2020-08-13T13:15:38.000Z</time>
      </trkpt>
      <trkpt lat="42.4864461086690425872802734375" lon="1.03667587973177433013916015625">
        <ele>2162.39990234375</ele>
        <time>2020-08-13T13:15:40.000Z</time>
      </trkpt>
      <trkpt lat="42.48627704568207263946533203125" lon="1.03672784753143787384033203125">
        <ele>2161.60009765625</ele>
        <time>2020-08-13T13:15:44.000Z</time>
      </trkpt>
      <trkpt lat="42.48623128049075603485107421875" lon="1.036735475063323974609375">
        <ele>2161.199951171875</ele>
        <time>2020-08-13T13:15:45.000Z</time>
      </trkpt>
      <trkpt lat="42.48604788444936275482177734375" lon="1.0367420129477977752685546875">
        <ele>2160</ele>
        <time>2020-08-13T13:15:49.000Z</time>
      </trkpt>
      <trkpt lat="42.48596037738025188446044921875" lon="1.03672801516950130462646484375">
        <ele>2160</ele>
        <time>2020-08-13T13:15:51.000Z</time>
      </trkpt>
      <trkpt lat="42.48591561801731586456298828125" lon="1.0367161966860294342041015625">
        <ele>2160</ele>
        <time>2020-08-13T13:15:52.000Z</time>
      </trkpt>
      <trkpt lat="42.4857871234416961669921875" lon="1.0366602055728435516357421875">
        <ele>2158.800048828125</ele>
        <time>2020-08-13T13:15:55.000Z</time>
      </trkpt>
      <trkpt lat="42.4857068248093128204345703125" lon="1.0366065613925457000732421875">
        <ele>2158.800048828125</ele>
        <time>2020-08-13T13:15:57.000Z</time>
      </trkpt>
      <trkpt lat="42.48555846512317657470703125" lon="1.03639156557619571685791015625">
        <ele>2159.199951171875</ele>
        <time>2020-08-13T13:16:02.000Z</time>
      </trkpt>
      <trkpt lat="42.48553474433720111846923828125" lon="1.0363406874239444732666015625">
        <ele>2159</ele>
        <time>2020-08-13T13:16:03.000Z</time>
      </trkpt>
      <trkpt lat="42.48548042960464954376220703125" lon="1.03624806739389896392822265625">
        <ele>2158.60009765625</ele>
        <time>2020-08-13T13:16:05.000Z</time>
      </trkpt>
      <trkpt lat="42.48541186563670635223388671875" lon="1.0361713729798793792724609375">
        <ele>2158.199951171875</ele>
        <time>2020-08-13T13:16:07.000Z</time>
      </trkpt>
      <trkpt lat="42.4853293038904666900634765625" lon="1.0361217521131038665771484375">
        <ele>2157.39990234375</ele>
        <time>2020-08-13T13:16:09.000Z</time>
      </trkpt>
      <trkpt lat="42.48528328724205493927001953125" lon="1.0361039824783802032470703125">
        <ele>2157.199951171875</ele>
        <time>2020-08-13T13:16:10.000Z</time>
      </trkpt>
      <trkpt lat="42.48523819260299205780029296875" lon="1.03608378209173679351806640625">
        <ele>2157.199951171875</ele>
        <time>2020-08-13T13:16:11.000Z</time>
      </trkpt>
      <trkpt lat="42.4851137213408946990966796875" lon="1.03603701107203960418701171875">
        <ele>2156.39990234375</ele>
        <time>2020-08-13T13:16:14.000Z</time>
      </trkpt>
      <trkpt lat="42.4850389547646045684814453125" lon="1.03598940186202526092529296875">
        <ele>2156</ele>
        <time>2020-08-13T13:16:16.000Z</time>
      </trkpt>
      <trkpt lat="42.4849363602697849273681640625" lon="1.035902984440326690673828125">
        <ele>2155.199951171875</ele>
        <time>2020-08-13T13:16:19.000Z</time>
      </trkpt>
      <trkpt lat="42.48485933057963848114013671875" lon="1.03587507270276546478271484375">
        <ele>2154.800048828125</ele>
        <time>2020-08-13T13:16:21.000Z</time>
      </trkpt>
      <trkpt lat="42.4848159961402416229248046875" lon="1.03586417622864246368408203125">
        <ele>2154.39990234375</ele>
        <time>2020-08-13T13:16:22.000Z</time>
      </trkpt>
      <trkpt lat="42.48472589068114757537841796875" lon="1.0358314029872417449951171875">
        <ele>2154</ele>
        <time>2020-08-13T13:16:24.000Z</time>
      </trkpt>
      <trkpt lat="42.48458373360335826873779296875" lon="1.0357868112623691558837890625">
        <ele>2153.199951171875</ele>
        <time>2020-08-13T13:16:27.000Z</time>
      </trkpt>
      <trkpt lat="42.484492957592010498046875" lon="1.03577599860727787017822265625">
        <ele>2152.800048828125</ele>
        <time>2020-08-13T13:16:29.000Z</time>
      </trkpt>
      <trkpt lat="42.4843600206077098846435546875" lon="1.03574850596487522125244140625">
        <ele>2152.60009765625</ele>
        <time>2020-08-13T13:16:32.000Z</time>
      </trkpt>
      <trkpt lat="42.4842785485088825225830078125" lon="1.03570885956287384033203125">
        <ele>2152.199951171875</ele>
        <time>2020-08-13T13:16:34.000Z</time>
      </trkpt>
      <trkpt lat="42.48420319519937038421630859375" lon="1.0356765054166316986083984375">
        <ele>2151.800048828125</ele>
        <time>2020-08-13T13:16:36.000Z</time>
      </trkpt>
      <trkpt lat="42.48412809334695339202880859375" lon="1.03566016070544719696044921875">
        <ele>2151.199951171875</ele>
        <time>2020-08-13T13:16:38.000Z</time>
      </trkpt>
      <trkpt lat="42.484058439731597900390625" lon="1.0356480069458484649658203125">
        <ele>2150.800048828125</ele>
        <time>2020-08-13T13:16:40.000Z</time>
      </trkpt>
      <trkpt lat="42.48386473394930362701416015625" lon="1.03562034666538238525390625">
        <ele>2150.60009765625</ele>
        <time>2020-08-13T13:16:46.000Z</time>
      </trkpt>
      <trkpt lat="42.48383380472660064697265625" lon="1.03561766445636749267578125">
        <ele>2150.60009765625</ele>
        <time>2020-08-13T13:16:47.000Z</time>
      </trkpt>
      <trkpt lat="42.48355410061776638031005859375" lon="1.03556946851313114166259765625">
        <ele>2150.800048828125</ele>
        <time>2020-08-13T13:16:55.000Z</time>
      </trkpt>
      <trkpt lat="42.4833649210631847381591796875" lon="1.03545899502933025360107421875">
        <ele>2149.199951171875</ele>
        <time>2020-08-13T13:17:01.000Z</time>
      </trkpt>
      <trkpt lat="42.48330230824649333953857421875" lon="1.0354126431047916412353515625">
        <ele>2148.60009765625</ele>
        <time>2020-08-13T13:17:03.000Z</time>
      </trkpt>
      <trkpt lat="42.48320608399808406829833984375" lon="1.03534533642232418060302734375">
        <ele>2148</ele>
        <time>2020-08-13T13:17:06.000Z</time>
      </trkpt>
      <trkpt lat="42.483035512268543243408203125" lon="1.03526269085705280303955078125">
        <ele>2147</ele>
        <time>2020-08-13T13:17:11.000Z</time>
      </trkpt>
      <trkpt lat="42.48299938626587390899658203125" lon="1.0352463461458683013916015625">
        <ele>2146.60009765625</ele>
        <time>2020-08-13T13:17:12.000Z</time>
      </trkpt>
      <trkpt lat="42.482883967459201812744140625" lon="1.0351977311074733734130859375">
        <ele>2146</ele>
        <time>2020-08-13T13:17:15.000Z</time>
      </trkpt>
      <trkpt lat="42.48284264467656612396240234375" lon="1.03518691845238208770751953125">
        <ele>2145.800048828125</ele>
        <time>2020-08-13T13:17:16.000Z</time>
      </trkpt>
      <trkpt lat="42.48276469297707080841064453125" lon="1.03517987765371799468994140625">
        <ele>2145.199951171875</ele>
        <time>2020-08-13T13:17:18.000Z</time>
      </trkpt>
      <trkpt lat="42.482731752097606658935546875" lon="1.035180799663066864013671875">
        <ele>2144.800048828125</ele>
        <time>2020-08-13T13:17:19.000Z</time>
      </trkpt>
      <trkpt lat="42.4826247990131378173828125" lon="1.03519798256456851959228515625">
        <ele>2144.39990234375</ele>
        <time>2020-08-13T13:17:23.000Z</time>
      </trkpt>
      <trkpt lat="42.48253402300179004669189453125" lon="1.0352188535034656524658203125">
        <ele>2143.60009765625</ele>
        <time>2020-08-13T13:17:26.000Z</time>
      </trkpt>
      <trkpt lat="42.4823989905416965484619140625" lon="1.03523251600563526153564453125">
        <ele>2143.199951171875</ele>
        <time>2020-08-13T13:17:30.000Z</time>
      </trkpt>
      <trkpt lat="42.48225373215973377227783203125" lon="1.03522069752216339111328125">
        <ele>2142.60009765625</ele>
        <time>2020-08-13T13:17:34.000Z</time>
      </trkpt>
      <trkpt lat="42.4821408279240131378173828125" lon="1.03519882075488567352294921875">
        <ele>2142.199951171875</ele>
        <time>2020-08-13T13:17:37.000Z</time>
      </trkpt>
      <trkpt lat="42.48198919929563999176025390625" lon="1.035182476043701171875">
        <ele>2141.39990234375</ele>
        <time>2020-08-13T13:17:41.000Z</time>
      </trkpt>
      <trkpt lat="42.48188476078212261199951171875" lon="1.03514215908944606781005859375">
        <ele>2140.800048828125</ele>
        <time>2020-08-13T13:17:44.000Z</time>
      </trkpt>
      <trkpt lat="42.48171511106193065643310546875" lon="1.03501827456057071685791015625">
        <ele>2140.39990234375</ele>
        <time>2020-08-13T13:17:49.000Z</time>
      </trkpt>
      <trkpt lat="42.48163313604891300201416015625" lon="1.03498390875756740570068359375">
        <ele>2140.39990234375</ele>
        <time>2020-08-13T13:17:51.000Z</time>
      </trkpt>
      <trkpt lat="42.48158871196210384368896484375" lon="1.0349737666547298431396484375">
        <ele>2140</ele>
        <time>2020-08-13T13:17:52.000Z</time>
      </trkpt>
      <trkpt lat="42.4814987741410732269287109375" lon="1.0349653847515583038330078125">
        <ele>2138.800048828125</ele>
        <time>2020-08-13T13:17:54.000Z</time>
      </trkpt>
      <trkpt lat="42.48135502450168132781982421875" lon="1.0349496267735958099365234375">
        <ele>2137.800048828125</ele>
        <time>2020-08-13T13:17:57.000Z</time>
      </trkpt>
      <trkpt lat="42.4810823611915111541748046875" lon="1.03486807085573673248291015625">
        <ele>2136.39990234375</ele>
        <time>2020-08-13T13:18:03.000Z</time>
      </trkpt>
      <trkpt lat="42.48099812306463718414306640625" lon="1.0348601080477237701416015625">
        <ele>2135</ele>
        <time>2020-08-13T13:18:05.000Z</time>
      </trkpt>
      <trkpt lat="42.480868957936763763427734375" lon="1.0349033586680889129638671875">
        <ele>2134.199951171875</ele>
        <time>2020-08-13T13:18:08.000Z</time>
      </trkpt>
      <trkpt lat="42.48082797043025493621826171875" lon="1.03491785936057567596435546875">
        <ele>2134</ele>
        <time>2020-08-13T13:18:09.000Z</time>
      </trkpt>
      <trkpt lat="42.4807869829237461090087890625" lon="1.034924983978271484375">
        <ele>2133.800048828125</ele>
        <time>2020-08-13T13:18:10.000Z</time>
      </trkpt>
      <trkpt lat="42.4806689657270908355712890625" lon="1.03488986380398273468017578125">
        <ele>2133.39990234375</ele>
        <time>2020-08-13T13:18:13.000Z</time>
      </trkpt>
      <trkpt lat="42.48063267208635807037353515625" lon="1.03486597537994384765625">
        <ele>2133.199951171875</ele>
        <time>2020-08-13T13:18:14.000Z</time>
      </trkpt>
      <trkpt lat="42.48056461103260517120361328125" lon="1.03481878526508808135986328125">
        <ele>2132.800048828125</ele>
        <time>2020-08-13T13:18:16.000Z</time>
      </trkpt>
      <trkpt lat="42.4804587475955486297607421875" lon="1.03478224016726016998291015625">
        <ele>2131.39990234375</ele>
        <time>2020-08-13T13:18:19.000Z</time>
      </trkpt>
      <trkpt lat="42.48026319779455661773681640625" lon="1.0347990877926349639892578125">
        <ele>2132.39990234375</ele>
        <time>2020-08-13T13:18:25.000Z</time>
      </trkpt>
      <trkpt lat="42.48023067601025104522705078125" lon="1.0347987525165081024169921875">
        <ele>2132.39990234375</ele>
        <time>2020-08-13T13:18:26.000Z</time>
      </trkpt>
      <trkpt lat="42.48000268824398517608642578125" lon="1.03476514108479022979736328125">
        <ele>2132.60009765625</ele>
        <time>2020-08-13T13:18:33.000Z</time>
      </trkpt>
      <trkpt lat="42.4797762930393218994140625" lon="1.03466154076159000396728515625">
        <ele>2132</ele>
        <time>2020-08-13T13:18:41.000Z</time>
      </trkpt>
      <trkpt lat="42.47961326502263545989990234375" lon="1.0345379076898097991943359375">
        <ele>2132</ele>
        <time>2020-08-13T13:18:48.000Z</time>
      </trkpt>
      <trkpt lat="42.47958359308540821075439453125" lon="1.0345221497118473052978515625">
        <ele>2131.39990234375</ele>
        <time>2020-08-13T13:18:49.000Z</time>
      </trkpt>
      <trkpt lat="42.47949742712080478668212890625" lon="1.03449247777462005615234375">
        <ele>2130.39990234375</ele>
        <time>2020-08-13T13:18:52.000Z</time>
      </trkpt>
      <trkpt lat="42.47944411821663379669189453125" lon="1.034489460289478302001953125">
        <ele>2130.60009765625</ele>
        <time>2020-08-13T13:18:54.000Z</time>
      </trkpt>
      <trkpt lat="42.4792544357478618621826171875" lon="1.0344745405018329620361328125">
        <ele>2130.800048828125</ele>
        <time>2020-08-13T13:19:01.000Z</time>
      </trkpt>
      <trkpt lat="42.47915863059461116790771484375" lon="1.03444880805909633636474609375">
        <ele>2131.39990234375</ele>
        <time>2020-08-13T13:19:05.000Z</time>
      </trkpt>
      <trkpt lat="42.4790807627141475677490234375" lon="1.0344274342060089111328125">
        <ele>2131.60009765625</ele>
        <time>2020-08-13T13:19:08.000Z</time>
      </trkpt>
      <trkpt lat="42.478832490742206573486328125" lon="1.03434604592621326446533203125">
        <ele>2130.60009765625</ele>
        <time>2020-08-13T13:19:17.000Z</time>
      </trkpt>
      <trkpt lat="42.47861263342201709747314453125" lon="1.034284941852092742919921875">
        <ele>2130.60009765625</ele>
        <time>2020-08-13T13:19:25.000Z</time>
      </trkpt>
      <trkpt lat="42.478353716433048248291015625" lon="1.03421696461737155914306640625">
        <ele>2131.39990234375</ele>
        <time>2020-08-13T13:19:34.000Z</time>
      </trkpt>
      <trkpt lat="42.47815699316561222076416015625" lon="1.034134067595005035400390625">
        <ele>2130.60009765625</ele>
        <time>2020-08-13T13:19:41.000Z</time>
      </trkpt>
      <trkpt lat="42.47803931124508380889892578125" lon="1.0340732149779796600341796875">
        <ele>2130.39990234375</ele>
        <time>2020-08-13T13:19:45.000Z</time>
      </trkpt>
      <trkpt lat="42.4779175221920013427734375" lon="1.03399216197431087493896484375">
        <ele>2130.39990234375</ele>
        <time>2020-08-13T13:19:49.000Z</time>
      </trkpt>
      <trkpt lat="42.4776900373399257659912109375" lon="1.03389300405979156494140625">
        <ele>2129.60009765625</ele>
        <time>2020-08-13T13:19:55.000Z</time>
      </trkpt>
      <trkpt lat="42.47765122912824153900146484375" lon="1.03388017974793910980224609375">
        <ele>2129.39990234375</ele>
        <time>2020-08-13T13:19:56.000Z</time>
      </trkpt>
      <trkpt lat="42.47745291329920291900634765625" lon="1.033811531960964202880859375">
        <ele>2129.60009765625</ele>
        <time>2020-08-13T13:20:02.000Z</time>
      </trkpt>
      <trkpt lat="42.4773856066167354583740234375" lon="1.03375864215195178985595703125">
        <ele>2130.60009765625</ele>
        <time>2020-08-13T13:20:05.000Z</time>
      </trkpt>
      <trkpt lat="42.477334477007389068603515625" lon="1.03368387557566165924072265625">
        <ele>2131</ele>
        <time>2020-08-13T13:20:08.000Z</time>
      </trkpt>
      <trkpt lat="42.47726499103009700775146484375" lon="1.033515147864818572998046875">
        <ele>2131</ele>
        <time>2020-08-13T13:20:14.000Z</time>
      </trkpt>
      <trkpt lat="42.4772201478481292724609375" lon="1.03332697413861751556396484375">
        <ele>2129.39990234375</ele>
        <time>2020-08-13T13:20:19.000Z</time>
      </trkpt>
      <trkpt lat="42.47720631770789623260498046875" lon="1.0332534648478031158447265625">
        <ele>2128.800048828125</ele>
        <time>2020-08-13T13:20:21.000Z</time>
      </trkpt>
      <trkpt lat="42.4771760590374469757080078125" lon="1.03310502134263515472412109375">
        <ele>2128.199951171875</ele>
        <time>2020-08-13T13:20:25.000Z</time>
      </trkpt>
      <trkpt lat="42.47713959775865077972412109375" lon="1.03300385177135467529296875">
        <ele>2127.199951171875</ele>
        <time>2020-08-13T13:20:28.000Z</time>
      </trkpt>
      <trkpt lat="42.47712425887584686279296875" lon="1.032972671091556549072265625">
        <ele>2127</ele>
        <time>2020-08-13T13:20:29.000Z</time>
      </trkpt>
      <trkpt lat="42.476987801492214202880859375" lon="1.0327746905386447906494140625">
        <ele>2127.800048828125</ele>
        <time>2020-08-13T13:20:36.000Z</time>
      </trkpt>
      <trkpt lat="42.4769199080765247344970703125" lon="1.0325654782354831695556640625">
        <ele>2127.60009765625</ele>
        <time>2020-08-13T13:20:42.000Z</time>
      </trkpt>
      <trkpt lat="42.47691060416400432586669921875" lon="1.03245710022747516632080078125">
        <ele>2126</ele>
        <time>2020-08-13T13:20:45.000Z</time>
      </trkpt>
      <trkpt lat="42.47691613622009754180908203125" lon="1.0323364846408367156982421875">
        <ele>2125.39990234375</ele>
        <time>2020-08-13T13:20:48.000Z</time>
      </trkpt>
      <trkpt lat="42.47692284174263477325439453125" lon="1.032294072210788726806640625">
        <ele>2124.60009765625</ele>
        <time>2020-08-13T13:20:49.000Z</time>
      </trkpt>
      <trkpt lat="42.47695016674697399139404296875" lon="1.0321644879877567291259765625">
        <ele>2123.60009765625</ele>
        <time>2020-08-13T13:20:52.000Z</time>
      </trkpt>
      <trkpt lat="42.4769869633018970489501953125" lon="1.03203716687858104705810546875">
        <ele>2122.199951171875</ele>
        <time>2020-08-13T13:20:55.000Z</time>
      </trkpt>
      <trkpt lat="42.47701956890523433685302734375" lon="1.0319515876471996307373046875">
        <ele>2121.39990234375</ele>
        <time>2020-08-13T13:20:57.000Z</time>
      </trkpt>
      <trkpt lat="42.47703633271157741546630859375" lon="1.03190808556973934173583984375">
        <ele>2121</ele>
        <time>2020-08-13T13:20:58.000Z</time>
      </trkpt>
      <trkpt lat="42.47708779759705066680908203125" lon="1.0317812673747539520263671875">
        <ele>2119.800048828125</ele>
        <time>2020-08-13T13:21:01.000Z</time>
      </trkpt>
      <trkpt lat="42.4771713651716709136962890625" lon="1.0315915010869503021240234375">
        <ele>2119.60009765625</ele>
        <time>2020-08-13T13:21:06.000Z</time>
      </trkpt>
      <trkpt lat="42.47722350060939788818359375" lon="1.0314810276031494140625">
        <ele>2118.60009765625</ele>
        <time>2020-08-13T13:21:09.000Z</time>
      </trkpt>
      <trkpt lat="42.47734059579670429229736328125" lon="1.0312525369226932525634765625">
        <ele>2118.39990234375</ele>
        <time>2020-08-13T13:21:15.000Z</time>
      </trkpt>
      <trkpt lat="42.4774040468037128448486328125" lon="1.03113711811602115631103515625">
        <ele>2117.39990234375</ele>
        <time>2020-08-13T13:21:18.000Z</time>
      </trkpt>
      <trkpt lat="42.477532289922237396240234375" lon="1.03090292774140834808349609375">
        <ele>2117.199951171875</ele>
        <time>2020-08-13T13:21:24.000Z</time>
      </trkpt>
      <trkpt lat="42.47769162990152835845947265625" lon="1.030646525323390960693359375">
        <ele>2116.39990234375</ele>
        <time>2020-08-13T13:21:31.000Z</time>
      </trkpt>
      <trkpt lat="42.4777108244597911834716796875" lon="1.03061492554843425750732421875">
        <ele>2116.39990234375</ele>
        <time>2020-08-13T13:21:32.000Z</time>
      </trkpt>
      <trkpt lat="42.47784133069217205047607421875" lon="1.0303960740566253662109375">
        <ele>2116.800048828125</ele>
        <time>2020-08-13T13:21:38.000Z</time>
      </trkpt>
      <trkpt lat="42.47798633761703968048095703125" lon="1.03014193475246429443359375">
        <ele>2117.199951171875</ele>
        <time>2020-08-13T13:21:45.000Z</time>
      </trkpt>
      <trkpt lat="42.47814073227345943450927734375" lon="1.02985896170139312744140625">
        <ele>2117</ele>
        <time>2020-08-13T13:21:53.000Z</time>
      </trkpt>
      <trkpt lat="42.47827014885842800140380859375" lon="1.029597781598567962646484375">
        <ele>2117</ele>
        <time>2020-08-13T13:22:00.000Z</time>
      </trkpt>
      <trkpt lat="42.478279285132884979248046875" lon="1.0294933430850505828857421875">
        <ele>2117</ele>
        <time>2020-08-13T13:22:02.000Z</time>
      </trkpt>
      <trkpt lat="42.47826545499265193939208984375" lon="1.02931757457554340362548828125">
        <ele>2117</ele>
        <time>2020-08-13T13:22:05.000Z</time>
      </trkpt>
      <trkpt lat="42.478261180222034454345703125" lon="1.02918212302029132843017578125">
        <ele>2116.39990234375</ele>
        <time>2020-08-13T13:22:07.000Z</time>
      </trkpt>
      <trkpt lat="42.4782549776136875152587890625" lon="1.029035188257694244384765625">
        <ele>2115.60009765625</ele>
        <time>2020-08-13T13:22:09.000Z</time>
      </trkpt>
      <trkpt lat="42.47824500314891338348388671875" lon="1.0289609245955944061279296875">
        <ele>2115</ele>
        <time>2020-08-13T13:22:10.000Z</time>
      </trkpt>
      <trkpt lat="42.478226982057094573974609375" lon="1.0288162529468536376953125">
        <ele>2114.39990234375</ele>
        <time>2020-08-13T13:22:12.000Z</time>
      </trkpt>
      <trkpt lat="42.4781939573585987091064453125" lon="1.02861919440329074859619140625">
        <ele>2113.800048828125</ele>
        <time>2020-08-13T13:22:15.000Z</time>
      </trkpt>
      <trkpt lat="42.4781517125666141510009765625" lon="1.02850846946239471435546875">
        <ele>2113.800048828125</ele>
        <time>2020-08-13T13:22:17.000Z</time>
      </trkpt>
      <trkpt lat="42.478086836636066436767578125" lon="1.0282799787819385528564453125">
        <ele>2113.800048828125</ele>
        <time>2020-08-13T13:22:21.000Z</time>
      </trkpt>
      <trkpt lat="42.47803780250251293182373046875" lon="1.02810136042535305023193359375">
        <ele>2113.199951171875</ele>
        <time>2020-08-13T13:22:24.000Z</time>
      </trkpt>
      <trkpt lat="42.47800000011920928955078125" lon="1.02784931659698486328125">
        <ele>2113.199951171875</ele>
        <time>2020-08-13T13:22:28.000Z</time>
      </trkpt>
      <trkpt lat="42.47788391076028347015380859375" lon="1.02745729498565196990966796875">
        <ele>2112</ele>
        <time>2020-08-13T13:22:34.000Z</time>
      </trkpt>
      <trkpt lat="42.4777979962527751922607421875" lon="1.027273647487163543701171875">
        <ele>2111</ele>
        <time>2020-08-13T13:22:37.000Z</time>
      </trkpt>
      <trkpt lat="42.47771291993558406829833984375" lon="1.02711430750787258148193359375">
        <ele>2109.60009765625</ele>
        <time>2020-08-13T13:22:40.000Z</time>
      </trkpt>
      <trkpt lat="42.47768660075962543487548828125" lon="1.027060411870479583740234375">
        <ele>2109.39990234375</ele>
        <time>2020-08-13T13:22:41.000Z</time>
      </trkpt>
      <trkpt lat="42.477539665997028350830078125" lon="1.02666570805013179779052734375">
        <ele>2108.39990234375</ele>
        <time>2020-08-13T13:22:48.000Z</time>
      </trkpt>
      <trkpt lat="42.477520890533924102783203125" lon="1.02660317905247211456298828125">
        <ele>2108</ele>
        <time>2020-08-13T13:22:49.000Z</time>
      </trkpt>
      <trkpt lat="42.47743145562708377838134765625" lon="1.0262775421142578125">
        <ele>2107.39990234375</ele>
        <time>2020-08-13T13:22:54.000Z</time>
      </trkpt>
      <trkpt lat="42.47738485224545001983642578125" lon="1.02607880719006061553955078125">
        <ele>2107</ele>
        <time>2020-08-13T13:22:57.000Z</time>
      </trkpt>
      <trkpt lat="42.47734294272959232330322265625" lon="1.02581410668790340423583984375">
        <ele>2106.199951171875</ele>
        <time>2020-08-13T13:23:01.000Z</time>
      </trkpt>
      <trkpt lat="42.477299608290195465087890625" lon="1.02555745281279087066650390625">
        <ele>2105</ele>
        <time>2020-08-13T13:23:05.000Z</time>
      </trkpt>
      <trkpt lat="42.4772347323596477508544921875" lon="1.02510608732700347900390625">
        <ele>2104</ele>
        <time>2020-08-13T13:23:12.000Z</time>
      </trkpt>
      <trkpt lat="42.47722576372325420379638671875" lon="1.02503894828259944915771484375">
        <ele>2103.60009765625</ele>
        <time>2020-08-13T13:23:13.000Z</time>
      </trkpt>
      <trkpt lat="42.47718569822609424591064453125" lon="1.0248316638171672821044921875">
        <ele>2103</ele>
        <time>2020-08-13T13:23:16.000Z</time>
      </trkpt>
      <trkpt lat="42.47713406570255756378173828125" lon="1.0247045941650867462158203125">
        <ele>2102.800048828125</ele>
        <time>2020-08-13T13:23:18.000Z</time>
      </trkpt>
      <trkpt lat="42.4770650826394557952880859375" lon="1.024438552558422088623046875">
        <ele>2102</ele>
        <time>2020-08-13T13:23:22.000Z</time>
      </trkpt>
      <trkpt lat="42.477031052112579345703125" lon="1.024193130433559417724609375">
        <ele>2101.60009765625</ele>
        <time>2020-08-13T13:23:26.000Z</time>
      </trkpt>
      <trkpt lat="42.47697648592293262481689453125" lon="1.0240928828716278076171875">
        <ele>2101.199951171875</ele>
        <time>2020-08-13T13:23:28.000Z</time>
      </trkpt>
      <trkpt lat="42.47694723308086395263671875" lon="1.02404083125293254852294921875">
        <ele>2101</ele>
        <time>2020-08-13T13:23:29.000Z</time>
      </trkpt>
      <trkpt lat="42.4769195728003978729248046875" lon="1.02398735471069812774658203125">
        <ele>2100.800048828125</ele>
        <time>2020-08-13T13:23:30.000Z</time>
      </trkpt>
      <trkpt lat="42.47686207294464111328125" lon="1.02387319318950176239013671875">
        <ele>2100.39990234375</ele>
        <time>2020-08-13T13:23:32.000Z</time>
      </trkpt>
      <trkpt lat="42.476764507591724395751953125" lon="1.0237175412476062774658203125">
        <ele>2099.800048828125</ele>
        <time>2020-08-13T13:23:35.000Z</time>
      </trkpt>
      <trkpt lat="42.47668446041643619537353515625" lon="1.0236313752830028533935546875">
        <ele>2099.60009765625</ele>
        <time>2020-08-13T13:23:37.000Z</time>
      </trkpt>
      <trkpt lat="42.4766389466822147369384765625" lon="1.02360212244093418121337890625">
        <ele>2099.60009765625</ele>
        <time>2020-08-13T13:23:38.000Z</time>
      </trkpt>
      <trkpt lat="42.47649033553898334503173828125" lon="1.0236020386219024658203125">
        <ele>2099</ele>
        <time>2020-08-13T13:23:41.000Z</time>
      </trkpt>
      <trkpt lat="42.47644172050058841705322265625" lon="1.02361436001956462860107421875">
        <ele>2099.199951171875</ele>
        <time>2020-08-13T13:23:42.000Z</time>
      </trkpt>
      <trkpt lat="42.47630325146019458770751953125" lon="1.02364168502390384674072265625">
        <ele>2098.800048828125</ele>
        <time>2020-08-13T13:23:45.000Z</time>
      </trkpt>
      <trkpt lat="42.4762037582695484161376953125" lon="1.023638583719730377197265625">
        <ele>2098.60009765625</ele>
        <time>2020-08-13T13:23:47.000Z</time>
      </trkpt>
      <trkpt lat="42.47615405358374118804931640625" lon="1.023632548749446868896484375">
        <ele>2098.39990234375</ele>
        <time>2020-08-13T13:23:48.000Z</time>
      </trkpt>
      <trkpt lat="42.4759992398321628570556640625" lon="1.0236152820289134979248046875">
        <ele>2097.199951171875</ele>
        <time>2020-08-13T13:23:51.000Z</time>
      </trkpt>
      <trkpt lat="42.47583654709160327911376953125" lon="1.02355652488768100738525390625">
        <ele>2096.199951171875</ele>
        <time>2020-08-13T13:23:54.000Z</time>
      </trkpt>
      <trkpt lat="42.47562096454203128814697265625" lon="1.02344152517616748809814453125">
        <ele>2095</ele>
        <time>2020-08-13T13:23:58.000Z</time>
      </trkpt>
      <trkpt lat="42.47536875307559967041015625" lon="1.0232716239988803863525390625">
        <ele>2094.60009765625</ele>
        <time>2020-08-13T13:24:03.000Z</time>
      </trkpt>
      <trkpt lat="42.47526138089597225189208984375" lon="1.02321336977183818817138671875">
        <ele>2094</ele>
        <time>2020-08-13T13:24:05.000Z</time>
      </trkpt>
      <trkpt lat="42.47501998208463191986083984375" lon="1.02311463095247745513916015625">
        <ele>2092.39990234375</ele>
        <time>2020-08-13T13:24:09.000Z</time>
      </trkpt>
      <trkpt lat="42.4748371727764606475830078125" lon="1.02303768508136272430419921875">
        <ele>2091.39990234375</ele>
        <time>2020-08-13T13:24:12.000Z</time>
      </trkpt>
      <trkpt lat="42.47477690689265727996826171875" lon="1.0230211727321147918701171875">
        <ele>2091</ele>
        <time>2020-08-13T13:24:13.000Z</time>
      </trkpt>
      <trkpt lat="42.47471563518047332763671875" lon="1.0230199992656707763671875">
        <ele>2090.800048828125</ele>
        <time>2020-08-13T13:24:14.000Z</time>
      </trkpt>
      <trkpt lat="42.474478594958782196044921875" lon="1.02308378554880619049072265625">
        <ele>2090.60009765625</ele>
        <time>2020-08-13T13:24:18.000Z</time>
      </trkpt>
      <trkpt lat="42.47442268766462802886962890625" lon="1.02309317328035831451416015625">
        <ele>2089.800048828125</ele>
        <time>2020-08-13T13:24:19.000Z</time>
      </trkpt>
      <trkpt lat="42.4743148125708103179931640625" lon="1.0231197439134120941162109375">
        <ele>2088.60009765625</ele>
        <time>2020-08-13T13:24:21.000Z</time>
      </trkpt>
      <trkpt lat="42.47412043623626232147216796875" lon="1.02315586991608142852783203125">
        <ele>2088.60009765625</ele>
        <time>2020-08-13T13:24:25.000Z</time>
      </trkpt>
      <trkpt lat="42.47375263832509517669677734375" lon="1.02319233119487762451171875">
        <ele>2088</ele>
        <time>2020-08-13T13:24:34.000Z</time>
      </trkpt>
      <trkpt lat="42.4737133271992206573486328125" lon="1.02319367229938507080078125">
        <ele>2087.800048828125</ele>
        <time>2020-08-13T13:24:35.000Z</time>
      </trkpt>
      <trkpt lat="42.47350704856216907501220703125" lon="1.0232317261397838592529296875">
        <ele>2087.199951171875</ele>
        <time>2020-08-13T13:24:41.000Z</time>
      </trkpt>
      <trkpt lat="42.473447956144809722900390625" lon="1.02325075305998325347900390625">
        <ele>2086.800048828125</ele>
        <time>2020-08-13T13:24:43.000Z</time>
      </trkpt>
      <trkpt lat="42.47336757369339466094970703125" lon="1.02325058542191982269287109375">
        <ele>2086.60009765625</ele>
        <time>2020-08-13T13:24:46.000Z</time>
      </trkpt>
      <trkpt lat="42.47318903915584087371826171875" lon="1.02326282300055027008056640625">
        <ele>2086</ele>
        <time>2020-08-13T13:24:52.000Z</time>
      </trkpt>
      <trkpt lat="42.47298686765134334564208984375" lon="1.02329316549003124237060546875">
        <ele>2085.800048828125</ele>
        <time>2020-08-13T13:24:59.000Z</time>
      </trkpt>
      <trkpt lat="42.47279223985970020294189453125" lon="1.02332300506532192230224609375">
        <ele>2086</ele>
        <time>2020-08-13T13:25:07.000Z</time>
      </trkpt>
      <trkpt lat="42.472739182412624359130859375" lon="1.023352257907390594482421875">
        <ele>2085.39990234375</ele>
        <time>2020-08-13T13:25:09.000Z</time>
      </trkpt>
      <trkpt lat="42.47262753546237945556640625" lon="1.02337731979787349700927734375">
        <ele>2084.60009765625</ele>
        <time>2020-08-13T13:25:13.000Z</time>
      </trkpt>
      <trkpt lat="42.4724885635077953338623046875" lon="1.0233862884342670440673828125">
        <ele>2084.39990234375</ele>
        <time>2020-08-13T13:25:18.000Z</time>
      </trkpt>
      <trkpt lat="42.4724583886563777923583984375" lon="1.02338570170104503631591796875">
        <ele>2084</ele>
        <time>2020-08-13T13:25:19.000Z</time>
      </trkpt>
      <trkpt lat="42.4723735637962818145751953125" lon="1.0233767330646514892578125">
        <ele>2083.199951171875</ele>
        <time>2020-08-13T13:25:22.000Z</time>
      </trkpt>
      <trkpt lat="42.47220315970480442047119140625" lon="1.0233386792242527008056640625">
        <ele>2083.39990234375</ele>
        <time>2020-08-13T13:25:27.000Z</time>
      </trkpt>
      <trkpt lat="42.471906356513500213623046875" lon="1.02322594262659549713134765625">
        <ele>2083</ele>
        <time>2020-08-13T13:25:35.000Z</time>
      </trkpt>
      <trkpt lat="42.47168633155524730682373046875" lon="1.0231043212115764617919921875">
        <ele>2081.800048828125</ele>
        <time>2020-08-13T13:25:41.000Z</time>
      </trkpt>
      <trkpt lat="42.47157468460500240325927734375" lon="1.02306702174246311187744140625">
        <ele>2081.39990234375</ele>
        <time>2020-08-13T13:25:44.000Z</time>
      </trkpt>
      <trkpt lat="42.4714274145662784576416015625" lon="1.02300725877285003662109375">
        <ele>2080.199951171875</ele>
        <time>2020-08-13T13:25:48.000Z</time>
      </trkpt>
      <trkpt lat="42.471246533095836639404296875" lon="1.02293609641492366790771484375">
        <ele>2079.60009765625</ele>
        <time>2020-08-13T13:25:53.000Z</time>
      </trkpt>
      <trkpt lat="42.47114351950585842132568359375" lon="1.0228954441845417022705078125">
        <ele>2079.199951171875</ele>
        <time>2020-08-13T13:25:56.000Z</time>
      </trkpt>
      <trkpt lat="42.47093908488750457763671875" lon="1.0228049196302890777587890625">
        <ele>2078.800048828125</ele>
        <time>2020-08-13T13:26:02.000Z</time>
      </trkpt>
      <trkpt lat="42.4706931598484516143798828125" lon="1.0226436518132686614990234375">
        <ele>2078</ele>
        <time>2020-08-13T13:26:09.000Z</time>
      </trkpt>
      <trkpt lat="42.47059752233326435089111328125" lon="1.022567711770534515380859375">
        <ele>2077.39990234375</ele>
        <time>2020-08-13T13:26:12.000Z</time>
      </trkpt>
      <trkpt lat="42.4704299680888652801513671875" lon="1.02235590107738971710205078125">
        <ele>2077.199951171875</ele>
        <time>2020-08-13T13:26:19.000Z</time>
      </trkpt>
      <trkpt lat="42.470415048301219940185546875" lon="1.02231600321829319000244140625">
        <ele>2076.39990234375</ele>
        <time>2020-08-13T13:26:20.000Z</time>
      </trkpt>
      <trkpt lat="42.4703759886324405670166015625" lon="1.02220418862998485565185546875">
        <ele>2075.39990234375</ele>
        <time>2020-08-13T13:26:23.000Z</time>
      </trkpt>
      <trkpt lat="42.47032008133828639984130859375" lon="1.0220934636890888214111328125">
        <ele>2075</ele>
        <time>2020-08-13T13:26:26.000Z</time>
      </trkpt>
      <trkpt lat="42.4701563827693462371826171875" lon="1.02190487086772918701171875">
        <ele>2075.39990234375</ele>
        <time>2020-08-13T13:26:32.000Z</time>
      </trkpt>
      <trkpt lat="42.46985924430191516876220703125" lon="1.0216599516570568084716796875">
        <ele>2075.199951171875</ele>
        <time>2020-08-13T13:26:42.000Z</time>
      </trkpt>
      <trkpt lat="42.46961616910994052886962890625" lon="1.0215670801699161529541015625">
        <ele>2074.60009765625</ele>
        <time>2020-08-13T13:26:49.000Z</time>
      </trkpt>
      <trkpt lat="42.46955598704516887664794921875" lon="1.0215338878333568572998046875">
        <ele>2074.199951171875</ele>
        <time>2020-08-13T13:26:51.000Z</time>
      </trkpt>
      <trkpt lat="42.46942640282213687896728515625" lon="1.0214242525398731231689453125">
        <ele>2073.800048828125</ele>
        <time>2020-08-13T13:26:56.000Z</time>
      </trkpt>
      <trkpt lat="42.4692571721971035003662109375" lon="1.02130078710615634918212890625">
        <ele>2073</ele>
        <time>2020-08-13T13:27:01.000Z</time>
      </trkpt>
      <trkpt lat="42.46921467594802379608154296875" lon="1.0212886333465576171875">
        <ele>2072.800048828125</ele>
        <time>2020-08-13T13:27:02.000Z</time>
      </trkpt>
      <trkpt lat="42.4689457006752490997314453125" lon="1.0213038884103298187255859375">
        <ele>2072</ele>
        <time>2020-08-13T13:27:08.000Z</time>
      </trkpt>
      <trkpt lat="42.4689014442265033721923828125" lon="1.021312437951564788818359375">
        <ele>2071.60009765625</ele>
        <time>2020-08-13T13:27:09.000Z</time>
      </trkpt>
      <trkpt lat="42.4686429463326930999755859375" lon="1.02129642851650714874267578125">
        <ele>2070.800048828125</ele>
        <time>2020-08-13T13:27:15.000Z</time>
      </trkpt>
      <trkpt lat="42.46859885752201080322265625" lon="1.02128637023270130157470703125">
        <ele>2070.199951171875</ele>
        <time>2020-08-13T13:27:16.000Z</time>
      </trkpt>
      <trkpt lat="42.4685071595013141632080078125" lon="1.0212753899395465850830078125">
        <ele>2069.60009765625</ele>
        <time>2020-08-13T13:27:18.000Z</time>
      </trkpt>
      <trkpt lat="42.46837514452636241912841796875" lon="1.0212941654026508331298828125">
        <ele>2069.39990234375</ele>
        <time>2020-08-13T13:27:21.000Z</time>
      </trkpt>
      <trkpt lat="42.46818319894373416900634765625" lon="1.0213773138821125030517578125">
        <ele>2069</ele>
        <time>2020-08-13T13:27:26.000Z</time>
      </trkpt>
      <trkpt lat="42.46810977347195148468017578125" lon="1.02141059003770351409912109375">
        <ele>2068.60009765625</ele>
        <time>2020-08-13T13:27:28.000Z</time>
      </trkpt>
      <trkpt lat="42.46782998554408550262451171875" lon="1.0214668326079845428466796875">
        <ele>2068.199951171875</ele>
        <time>2020-08-13T13:27:35.000Z</time>
      </trkpt>
      <trkpt lat="42.467787154018878936767578125" lon="1.02146456949412822723388671875">
        <ele>2068</ele>
        <time>2020-08-13T13:27:36.000Z</time>
      </trkpt>
      <trkpt lat="42.4674426577985286712646484375" lon="1.021404303610324859619140625">
        <ele>2067.60009765625</ele>
        <time>2020-08-13T13:27:45.000Z</time>
      </trkpt>
      <trkpt lat="42.46718131005764007568359375" lon="1.02137438021600246429443359375">
        <ele>2067.60009765625</ele>
        <time>2020-08-13T13:27:53.000Z</time>
      </trkpt>
      <trkpt lat="42.46691334061324596405029296875" lon="1.02137940935790538787841796875">
        <ele>2067.800048828125</ele>
        <time>2020-08-13T13:28:01.000Z</time>
      </trkpt>
      <trkpt lat="42.4666393361985683441162109375" lon="1.02138292975723743438720703125">
        <ele>2067.60009765625</ele>
        <time>2020-08-13T13:28:11.000Z</time>
      </trkpt>
      <trkpt lat="42.46661310084164142608642578125" lon="1.02138007991015911102294921875">
        <ele>2067.60009765625</ele>
        <time>2020-08-13T13:28:12.000Z</time>
      </trkpt>
      <trkpt lat="42.46638578362762928009033203125" lon="1.0213421098887920379638671875">
        <ele>2068.800048828125</ele>
        <time>2020-08-13T13:28:21.000Z</time>
      </trkpt>
      <trkpt lat="42.4661853723227977752685546875" lon="1.02130464278161525726318359375">
        <ele>2069.199951171875</ele>
        <time>2020-08-13T13:28:29.000Z</time>
      </trkpt>
      <trkpt lat="42.4660666845738887786865234375" lon="1.021290980279445648193359375">
        <ele>2070.39990234375</ele>
        <time>2020-08-13T13:28:34.000Z</time>
      </trkpt>
      <trkpt lat="42.4659922532737255096435546875" lon="1.02127530612051486968994140625">
        <ele>2070.39990234375</ele>
        <time>2020-08-13T13:28:37.000Z</time>
      </trkpt>
      <trkpt lat="42.46578111313283443450927734375" lon="1.021226942539215087890625">
        <ele>2071.39990234375</ele>
        <time>2020-08-13T13:28:46.000Z</time>
      </trkpt>
      <trkpt lat="42.4656093679368495941162109375" lon="1.021156199276447296142578125">
        <ele>2071.39990234375</ele>
        <time>2020-08-13T13:28:53.000Z</time>
      </trkpt>
      <trkpt lat="42.46549545787274837493896484375" lon="1.02104614488780498504638671875">
        <ele>2070.39990234375</ele>
        <time>2020-08-13T13:28:58.000Z</time>
      </trkpt>
      <trkpt lat="42.46542354114353656768798828125" lon="1.0209585539996623992919921875">
        <ele>2069.800048828125</ele>
        <time>2020-08-13T13:29:01.000Z</time>
      </trkpt>
      <trkpt lat="42.46534659527242183685302734375" lon="1.02084942162036895751953125">
        <ele>2069.39990234375</ele>
        <time>2020-08-13T13:29:04.000Z</time>
      </trkpt>
      <trkpt lat="42.46526143513619899749755859375" lon="1.02075998671352863311767578125">
        <ele>2069.60009765625</ele>
        <time>2020-08-13T13:29:07.000Z</time>
      </trkpt>
      <trkpt lat="42.46509329415857791900634765625" lon="1.02067566476762294769287109375">
        <ele>2069.800048828125</ele>
        <time>2020-08-13T13:29:13.000Z</time>
      </trkpt>
      <trkpt lat="42.46491056866943836212158203125" lon="1.0206531174480915069580078125">
        <ele>2070.199951171875</ele>
        <time>2020-08-13T13:29:19.000Z</time>
      </trkpt>
      <trkpt lat="42.4647886119782924652099609375" lon="1.0207573883235454559326171875">
        <ele>2070.39990234375</ele>
        <time>2020-08-13T13:29:24.000Z</time>
      </trkpt>
      <trkpt lat="42.46471367776393890380859375" lon="1.02082368917763233184814453125">
        <ele>2071.60009765625</ele>
        <time>2020-08-13T13:29:27.000Z</time>
      </trkpt>
      <trkpt lat="42.46463329531252384185791015625" lon="1.02089770138263702392578125">
        <ele>2071.60009765625</ele>
        <time>2020-08-13T13:29:30.000Z</time>
      </trkpt>
      <trkpt lat="42.46442911215126514434814453125" lon="1.02110398001968860626220703125">
        <ele>2071.39990234375</ele>
        <time>2020-08-13T13:29:38.000Z</time>
      </trkpt>
      <trkpt lat="42.464309670031070709228515625" lon="1.02123540826141834259033203125">
        <ele>2070.800048828125</ele>
        <time>2020-08-13T13:29:43.000Z</time>
      </trkpt>
      <trkpt lat="42.4642820097506046295166015625" lon="1.02125577628612518310546875">
        <ele>2070.800048828125</ele>
        <time>2020-08-13T13:29:44.000Z</time>
      </trkpt>
      <trkpt lat="42.4641148746013641357421875" lon="1.02132014930248260498046875">
        <ele>2071.60009765625</ele>
        <time>2020-08-13T13:29:50.000Z</time>
      </trkpt>
      <trkpt lat="42.46406567282974720001220703125" lon="1.02133087813854217529296875">
        <ele>2071.800048828125</ele>
        <time>2020-08-13T13:29:52.000Z</time>
      </trkpt>
      <trkpt lat="42.463873811066150665283203125" lon="1.02134487591683864593505859375">
        <ele>2071.199951171875</ele>
        <time>2020-08-13T13:29:59.000Z</time>
      </trkpt>
      <trkpt lat="42.46359511278569698333740234375" lon="1.02134764194488525390625">
        <ele>2071.199951171875</ele>
        <time>2020-08-13T13:30:08.000Z</time>
      </trkpt>
      <trkpt lat="42.46346971951425075531005859375" lon="1.02136314846575260162353515625">
        <ele>2070.800048828125</ele>
        <time>2020-08-13T13:30:12.000Z</time>
      </trkpt>
      <trkpt lat="42.463408447802066802978515625" lon="1.0213709436357021331787109375">
        <ele>2070.199951171875</ele>
        <time>2020-08-13T13:30:14.000Z</time>
      </trkpt>
      <trkpt lat="42.46324994601309299468994140625" lon="1.02140597999095916748046875">
        <ele>2071.39990234375</ele>
        <time>2020-08-13T13:30:19.000Z</time>
      </trkpt>
      <trkpt lat="42.463180460035800933837890625" lon="1.021436490118503570556640625">
        <ele>2071.60009765625</ele>
        <time>2020-08-13T13:30:21.000Z</time>
      </trkpt>
      <trkpt lat="42.46289245784282684326171875" lon="1.02155207656323909759521484375">
        <ele>2070.39990234375</ele>
        <time>2020-08-13T13:30:30.000Z</time>
      </trkpt>
      <trkpt lat="42.4626530706882476806640625" lon="1.0216847620904445648193359375">
        <ele>2070</ele>
        <time>2020-08-13T13:30:39.000Z</time>
      </trkpt>
      <trkpt lat="42.462598420679569244384765625" lon="1.02171015925705432891845703125">
        <ele>2069.800048828125</ele>
        <time>2020-08-13T13:30:41.000Z</time>
      </trkpt>
      <trkpt lat="42.46245433576405048370361328125" lon="1.02179624140262603759765625">
        <ele>2069.800048828125</ele>
        <time>2020-08-13T13:30:46.000Z</time>
      </trkpt>
      <trkpt lat="42.4622623063623905181884765625" lon="1.0218451917171478271484375">
        <ele>2071</ele>
        <time>2020-08-13T13:30:53.000Z</time>
      </trkpt>
      <trkpt lat="42.46204295195639133453369140625" lon="1.02180898189544677734375">
        <ele>2070</ele>
        <time>2020-08-13T13:31:01.000Z</time>
      </trkpt>
      <trkpt lat="42.46201612986624240875244140625" lon="1.02180252783000469207763671875">
        <ele>2069.60009765625</ele>
        <time>2020-08-13T13:31:02.000Z</time>
      </trkpt>
      <trkpt lat="42.461879253387451171875" lon="1.02174553088843822479248046875">
        <ele>2068.800048828125</ele>
        <time>2020-08-13T13:31:07.000Z</time>
      </trkpt>
      <trkpt lat="42.46182217262685298919677734375" lon="1.0217102430760860443115234375">
        <ele>2069.199951171875</ele>
        <time>2020-08-13T13:31:09.000Z</time>
      </trkpt>
      <trkpt lat="42.46172762475907802581787109375" lon="1.02166481316089630126953125">
        <ele>2070.199951171875</ele>
        <time>2020-08-13T13:31:12.000Z</time>
      </trkpt>
      <trkpt lat="42.46159099973738193511962890625" lon="1.02165131829679012298583984375">
        <ele>2070.199951171875</ele>
        <time>2020-08-13T13:31:16.000Z</time>
      </trkpt>
      <trkpt lat="42.46142931282520294189453125" lon="1.02164427749812602996826171875">
        <ele>2070</ele>
        <time>2020-08-13T13:31:21.000Z</time>
      </trkpt>
      <trkpt lat="42.46120375581085681915283203125" lon="1.02165970019996166229248046875">
        <ele>2070</ele>
        <time>2020-08-13T13:31:28.000Z</time>
      </trkpt>
      <trkpt lat="42.46098699979484081268310546875" lon="1.02170328609645366668701171875">
        <ele>2070</ele>
        <time>2020-08-13T13:31:35.000Z</time>
      </trkpt>
      <trkpt lat="42.46076923795044422149658203125" lon="1.0218138433992862701416015625">
        <ele>2069.800048828125</ele>
        <time>2020-08-13T13:31:42.000Z</time>
      </trkpt>
      <trkpt lat="42.460460700094699859619140625" lon="1.0219958983361721038818359375">
        <ele>2070.60009765625</ele>
        <time>2020-08-13T13:31:53.000Z</time>
      </trkpt>
      <trkpt lat="42.46031661517918109893798828125" lon="1.02211810648441314697265625">
        <ele>2070.199951171875</ele>
        <time>2020-08-13T13:31:59.000Z</time>
      </trkpt>
      <trkpt lat="42.46011427603662014007568359375" lon="1.0223244689404964447021484375">
        <ele>2070.39990234375</ele>
        <time>2020-08-13T13:32:08.000Z</time>
      </trkpt>
      <trkpt lat="42.4599780701100826263427734375" lon="1.022455394268035888671875">
        <ele>2071.199951171875</ele>
        <time>2020-08-13T13:32:14.000Z</time>
      </trkpt>
      <trkpt lat="42.4597608111798763275146484375" lon="1.02264440618455410003662109375">
        <ele>2071.39990234375</ele>
        <time>2020-08-13T13:32:23.000Z</time>
      </trkpt>
      <trkpt lat="42.45956693775951862335205078125" lon="1.022821180522441864013671875">
        <ele>2071.60009765625</ele>
        <time>2020-08-13T13:32:31.000Z</time>
      </trkpt>
      <trkpt lat="42.4594010598957538604736328125" lon="1.02303802035748958587646484375">
        <ele>2071.800048828125</ele>
        <time>2020-08-13T13:32:39.000Z</time>
      </trkpt>
      <trkpt lat="42.4592538736760616302490234375" lon="1.0232649184763431549072265625">
        <ele>2071.39990234375</ele>
        <time>2020-08-13T13:32:46.000Z</time>
      </trkpt>
      <trkpt lat="42.45909042656421661376953125" lon="1.02354244329035282135009765625">
        <ele>2071</ele>
        <time>2020-08-13T13:32:55.000Z</time>
      </trkpt>
      <trkpt lat="42.45891734026372432708740234375" lon="1.02373086847364902496337890625">
        <ele>2071.39990234375</ele>
        <time>2020-08-13T13:33:04.000Z</time>
      </trkpt>
      <trkpt lat="42.458745427429676055908203125" lon="1.023916192352771759033203125">
        <ele>2071.199951171875</ele>
        <time>2020-08-13T13:33:13.000Z</time>
      </trkpt>
      <trkpt lat="42.45860083959996700286865234375" lon="1.0240863449871540069580078125">
        <ele>2071</ele>
        <time>2020-08-13T13:33:21.000Z</time>
      </trkpt>
      <trkpt lat="42.45855021290481090545654296875" lon="1.02417242713272571563720703125">
        <ele>2071.800048828125</ele>
        <time>2020-08-13T13:33:26.000Z</time>
      </trkpt>
      <trkpt lat="42.45855255983769893646240234375" lon="1.02417008019983768463134765625">
        <ele>2071.60009765625</ele>
        <time>2020-08-13T13:33:40.000Z</time>
      </trkpt>
      <trkpt lat="42.45855255983769893646240234375" lon="1.02416932582855224609375">
        <ele>2072.39990234375</ele>
        <time>2020-08-13T13:34:12.000Z</time>
      </trkpt>
      <trkpt lat="42.45855038054287433624267578125" lon="1.0241772048175334930419921875">
        <ele>2071.800048828125</ele>
        <time>2020-08-13T13:34:19.000Z</time>
      </trkpt>
      <trkpt lat="42.4585404060781002044677734375" lon="1.0241862572729587554931640625">
        <ele>2072</ele>
        <time>2020-08-13T13:34:21.000Z</time>
      </trkpt>
      <trkpt lat="42.458526827394962310791015625" lon="1.02419170551002025604248046875">
        <ele>2072</ele>
        <time>2020-08-13T13:34:29.000Z</time>
      </trkpt>
      <trkpt lat="42.45852649211883544921875" lon="1.02419153787195682525634765625">
        <ele>2071</ele>
        <time>2020-08-13T13:34:49.000Z</time>
      </trkpt>
      <trkpt lat="42.458526827394962310791015625" lon="1.02419086731970310211181640625">
        <ele>2071</ele>
        <time>2020-08-13T13:34:52.000Z</time>
      </trkpt>
      <trkpt lat="42.45852724649012088775634765625" lon="1.02419321425259113311767578125">
        <ele>2072</ele>
        <time>2020-08-13T13:35:07.000Z</time>
      </trkpt>
      <trkpt lat="42.458527497947216033935546875" lon="1.024191118776798248291015625">
        <ele>2072.199951171875</ele>
        <time>2020-08-13T13:35:09.000Z</time>
      </trkpt>
      <trkpt lat="42.45852657593786716461181640625" lon="1.02419103495776653289794921875">
        <ele>2071.800048828125</ele>
        <time>2020-08-13T13:35:18.000Z</time>
      </trkpt>
      <trkpt lat="42.4585269950330257415771484375" lon="1.02419011294841766357421875">
        <ele>2072</ele>
        <time>2020-08-13T13:35:35.000Z</time>
      </trkpt>
      <trkpt lat="42.45852674357593059539794921875" lon="1.02419078350067138671875">
        <ele>2071.199951171875</ele>
        <time>2020-08-13T13:35:42.000Z</time>
      </trkpt>
      <trkpt lat="42.45852657593786716461181640625" lon="1.024190448224544525146484375">
        <ele>2071</ele>
        <time>2020-08-13T13:35:55.000Z</time>
      </trkpt>
      <trkpt lat="42.45852640829980373382568359375" lon="1.0241902805864810943603515625">
        <ele>2071</ele>
        <time>2020-08-13T13:36:13.000Z</time>
      </trkpt>
      <trkpt lat="42.45851869694888591766357421875" lon="1.02422707714140415191650390625">
        <ele>2070.800048828125</ele>
        <time>2020-08-13T13:36:35.000Z</time>
      </trkpt>
      <trkpt lat="42.45849137194454669952392578125" lon="1.0242486186325550079345703125">
        <ele>2071</ele>
        <time>2020-08-13T13:36:41.000Z</time>
      </trkpt>
      <trkpt lat="42.4584941379725933074951171875" lon="1.02423210628330707550048828125">
        <ele>2070.39990234375</ele>
        <time>2020-08-13T13:36:47.000Z</time>
      </trkpt>
      <trkpt lat="42.4584941379725933074951171875" lon="1.0242321901023387908935546875">
        <ele>2070.39990234375</ele>
        <time>2020-08-13T13:36:48.000Z</time>
      </trkpt>
      <trkpt lat="42.45849455706775188446044921875" lon="1.02422925643622875213623046875">
        <ele>2071</ele>
        <time>2020-08-13T13:36:58.000Z</time>
      </trkpt>
      <trkpt lat="42.45849472470581531524658203125" lon="1.02422925643622875213623046875">
        <ele>2071.39990234375</ele>
        <time>2020-08-13T13:37:00.000Z</time>
      </trkpt>
      <trkpt lat="42.45849497616291046142578125" lon="1.0242285020649433135986328125">
        <ele>2071</ele>
        <time>2020-08-13T13:37:18.000Z</time>
      </trkpt>
      <trkpt lat="42.4584944732487201690673828125" lon="1.0242184437811374664306640625">
        <ele>2071</ele>
        <time>2020-08-13T13:37:21.000Z</time>
      </trkpt>
      <trkpt lat="42.45849237777292728424072265625" lon="1.02415985427796840667724609375">
        <ele>2071</ele>
        <time>2020-08-13T13:37:24.000Z</time>
      </trkpt>
      <trkpt lat="42.4585155956447124481201171875" lon="1.02402440272271633148193359375">
        <ele>2072</ele>
        <time>2020-08-13T13:37:31.000Z</time>
      </trkpt>
      <trkpt lat="42.45853881351649761199951171875" lon="1.0239783860743045806884765625">
        <ele>2072.60009765625</ele>
        <time>2020-08-13T13:37:34.000Z</time>
      </trkpt>
      <trkpt lat="42.45856915600597858428955078125" lon="1.02392281405627727508544921875">
        <ele>2073.39990234375</ele>
        <time>2020-08-13T13:37:38.000Z</time>
      </trkpt>
      <trkpt lat="42.45859463699162006378173828125" lon="1.02388031780719757080078125">
        <ele>2073.800048828125</ele>
        <time>2020-08-13T13:37:41.000Z</time>
      </trkpt>
      <trkpt lat="42.45863981544971466064453125" lon="1.02381192147731781005859375">
        <ele>2074.60009765625</ele>
        <time>2020-08-13T13:37:46.000Z</time>
      </trkpt>
      <trkpt lat="42.4586487002670764923095703125" lon="1.02379960007965564727783203125">
        <ele>2074.800048828125</ele>
        <time>2020-08-13T13:37:47.000Z</time>
      </trkpt>
      <trkpt lat="42.45868767611682415008544921875" lon="1.0237279348075389862060546875">
        <ele>2075.800048828125</ele>
        <time>2020-08-13T13:37:52.000Z</time>
      </trkpt>
      <trkpt lat="42.458701170980930328369140625" lon="1.023696921765804290771484375">
        <ele>2076</ele>
        <time>2020-08-13T13:37:54.000Z</time>
      </trkpt>
      <trkpt lat="42.4587667174637317657470703125" lon="1.02355317212641239166259765625">
        <ele>2076.60009765625</ele>
        <time>2020-08-13T13:38:03.000Z</time>
      </trkpt>
      <trkpt lat="42.45877451263368129730224609375" lon="1.0235323011875152587890625">
        <ele>2076.800048828125</ele>
        <time>2020-08-13T13:38:04.000Z</time>
      </trkpt>
      <trkpt lat="42.45883368887007236480712890625" lon="1.02339911274611949920654296875">
        <ele>2077.60009765625</ele>
        <time>2020-08-13T13:38:12.000Z</time>
      </trkpt>
      <trkpt lat="42.45886520482599735260009765625" lon="1.02333658374845981597900390625">
        <ele>2078.199951171875</ele>
        <time>2020-08-13T13:38:16.000Z</time>
      </trkpt>
      <trkpt lat="42.45890761725604534149169921875" lon="1.02325536310672760009765625">
        <ele>2079</ele>
        <time>2020-08-13T13:38:21.000Z</time>
      </trkpt>
      <trkpt lat="42.45893980376422405242919921875" lon="1.02321538142859935760498046875">
        <ele>2079.39990234375</ele>
        <time>2020-08-13T13:38:24.000Z</time>
      </trkpt>
      <trkpt lat="42.45896930806338787078857421875" lon="1.0231499187648296356201171875">
        <ele>2079.800048828125</ele>
        <time>2020-08-13T13:38:28.000Z</time>
      </trkpt>
      <trkpt lat="42.45899395085871219635009765625" lon="1.02307959459722042083740234375">
        <ele>2080.39990234375</ele>
        <time>2020-08-13T13:38:32.000Z</time>
      </trkpt>
      <trkpt lat="42.4590329267084598541259765625" lon="1.0229376889765262603759765625">
        <ele>2081.199951171875</ele>
        <time>2020-08-13T13:38:40.000Z</time>
      </trkpt>
      <trkpt lat="42.45904885232448577880859375" lon="1.0228448174893856048583984375">
        <ele>2081.60009765625</ele>
        <time>2020-08-13T13:38:45.000Z</time>
      </trkpt>
      <trkpt lat="42.45905647985637187957763671875" lon="1.022825539112091064453125">
        <ele>2081.800048828125</ele>
        <time>2020-08-13T13:38:46.000Z</time>
      </trkpt>
      <trkpt lat="42.45913174934685230255126953125" lon="1.0226577334105968475341796875">
        <ele>2082.60009765625</ele>
        <time>2020-08-13T13:38:55.000Z</time>
      </trkpt>
      <trkpt lat="42.45921389199793338775634765625" lon="1.02249571122229099273681640625">
        <ele>2083.60009765625</ele>
        <time>2020-08-13T13:39:04.000Z</time>
      </trkpt>
      <trkpt lat="42.4592350982129573822021484375" lon="1.02245966903865337371826171875">
        <ele>2084</ele>
        <time>2020-08-13T13:39:06.000Z</time>
      </trkpt>
      <trkpt lat="42.45930726639926433563232421875" lon="1.02232237346470355987548828125">
        <ele>2085</ele>
        <time>2020-08-13T13:39:14.000Z</time>
      </trkpt>
      <trkpt lat="42.45935998857021331787109375" lon="1.02221726439893245697021484375">
        <ele>2085.39990234375</ele>
        <time>2020-08-13T13:39:20.000Z</time>
      </trkpt>
      <trkpt lat="42.45937876403331756591796875" lon="1.02218273095786571502685546875">
        <ele>2085.60009765625</ele>
        <time>2020-08-13T13:39:22.000Z</time>
      </trkpt>
      <trkpt lat="42.45942628942430019378662109375" lon="1.02209840901196002960205078125">
        <ele>2086</ele>
        <time>2020-08-13T13:39:27.000Z</time>
      </trkpt>
      <trkpt lat="42.45946987532079219818115234375" lon="1.02204375900328159332275390625">
        <ele>2086.800048828125</ele>
        <time>2020-08-13T13:39:31.000Z</time>
      </trkpt>
      <trkpt lat="42.459477670490741729736328125" lon="1.02202582173049449920654296875">
        <ele>2087.199951171875</ele>
        <time>2020-08-13T13:39:32.000Z</time>
      </trkpt>
      <trkpt lat="42.4595106951892375946044921875" lon="1.0219497978687286376953125">
        <ele>2087.60009765625</ele>
        <time>2020-08-13T13:39:36.000Z</time>
      </trkpt>
      <trkpt lat="42.4595237709581851959228515625" lon="1.02193571627140045166015625">
        <ele>2087.60009765625</ele>
        <time>2020-08-13T13:39:37.000Z</time>
      </trkpt>
      <trkpt lat="42.4595988728106021881103515625" lon="1.02187293581664562225341796875">
        <ele>2088.39990234375</ele>
        <time>2020-08-13T13:39:42.000Z</time>
      </trkpt>
      <trkpt lat="42.45961203239858150482177734375" lon="1.0218580998480319976806640625">
        <ele>2088.60009765625</ele>
        <time>2020-08-13T13:39:43.000Z</time>
      </trkpt>
      <trkpt lat="42.4596981145441532135009765625" lon="1.02173832245171070098876953125">
        <ele>2089.39990234375</ele>
        <time>2020-08-13T13:39:51.000Z</time>
      </trkpt>
      <trkpt lat="42.45971647091209888458251953125" lon="1.02170513011515140533447265625">
        <ele>2089.800048828125</ele>
        <time>2020-08-13T13:39:53.000Z</time>
      </trkpt>
      <trkpt lat="42.4597712047398090362548828125" lon="1.02159440517425537109375">
        <ele>2090.60009765625</ele>
        <time>2020-08-13T13:39:59.000Z</time>
      </trkpt>
      <trkpt lat="42.4598496593534946441650390625" lon="1.0214621387422084808349609375">
        <ele>2091.800048828125</ele>
        <time>2020-08-13T13:40:07.000Z</time>
      </trkpt>
      <trkpt lat="42.459859549999237060546875" lon="1.02144596166908740997314453125">
        <ele>2092</ele>
        <time>2020-08-13T13:40:08.000Z</time>
      </trkpt>
      <trkpt lat="42.45993842370808124542236328125" lon="1.0213307105004787445068359375">
        <ele>2092.60009765625</ele>
        <time>2020-08-13T13:40:16.000Z</time>
      </trkpt>
      <trkpt lat="42.4599606357514858245849609375" lon="1.0213035531342029571533203125">
        <ele>2093</ele>
        <time>2020-08-13T13:40:18.000Z</time>
      </trkpt>
      <trkpt lat="42.46002173982560634613037109375" lon="1.021216548979282379150390625">
        <ele>2093.60009765625</ele>
        <time>2020-08-13T13:40:24.000Z</time>
      </trkpt>
      <trkpt lat="42.4600665830075740814208984375" lon="1.0211620666086673736572265625">
        <ele>2094</ele>
        <time>2020-08-13T13:40:28.000Z</time>
      </trkpt>
      <trkpt lat="42.4601182155311107635498046875" lon="1.0210886411368846893310546875">
        <ele>2094.39990234375</ele>
        <time>2020-08-13T13:40:33.000Z</time>
      </trkpt>
      <trkpt lat="42.4601618014276027679443359375" lon="1.02103524841368198394775390625">
        <ele>2095.199951171875</ele>
        <time>2020-08-13T13:40:37.000Z</time>
      </trkpt>
      <trkpt lat="42.4602037109434604644775390625" lon="1.020973138511180877685546875">
        <ele>2095.800048828125</ele>
        <time>2020-08-13T13:40:41.000Z</time>
      </trkpt>
      <trkpt lat="42.46024905703961849212646484375" lon="1.0209106095135211944580078125">
        <ele>2096.60009765625</ele>
        <time>2020-08-13T13:40:45.000Z</time>
      </trkpt>
      <trkpt lat="42.460307143628597259521484375" lon="1.02085017599165439605712890625">
        <ele>2097.39990234375</ele>
        <time>2020-08-13T13:40:50.000Z</time>
      </trkpt>
      <trkpt lat="42.4603307805955410003662109375" lon="1.02082268334925174713134765625">
        <ele>2097.60009765625</ele>
        <time>2020-08-13T13:40:52.000Z</time>
      </trkpt>
      <trkpt lat="42.4604142643511295318603515625" lon="1.02075529284775257110595703125">
        <ele>2098.199951171875</ele>
        <time>2020-08-13T13:40:58.000Z</time>
      </trkpt>
      <trkpt lat="42.46045944280922412872314453125" lon="1.02074322290718555450439453125">
        <ele>2098.800048828125</ele>
        <time>2020-08-13T13:41:01.000Z</time>
      </trkpt>
      <trkpt lat="42.460502944886684417724609375" lon="1.0207252018153667449951171875">
        <ele>2099.199951171875</ele>
        <time>2020-08-13T13:41:04.000Z</time>
      </trkpt>
      <trkpt lat="42.46060243807733058929443359375" lon="1.02067097090184688568115234375">
        <ele>2100</ele>
        <time>2020-08-13T13:41:11.000Z</time>
      </trkpt>
      <trkpt lat="42.460632026195526123046875" lon="1.02064934559166431427001953125">
        <ele>2100.39990234375</ele>
        <time>2020-08-13T13:41:13.000Z</time>
      </trkpt>
      <trkpt lat="42.46076789684593677520751953125" lon="1.020572818815708160400390625">
        <ele>2101</ele>
        <time>2020-08-13T13:41:22.000Z</time>
      </trkpt>
      <trkpt lat="42.460814416408538818359375" lon="1.02056083269417285919189453125">
        <ele>2101</ele>
        <time>2020-08-13T13:41:25.000Z</time>
      </trkpt>
      <trkpt lat="42.4608776159584522247314453125" lon="1.02053300477564334869384765625">
        <ele>2102.199951171875</ele>
        <time>2020-08-13T13:41:29.000Z</time>
      </trkpt>
      <trkpt lat="42.46089287102222442626953125" lon="1.0205304063856601715087890625">
        <ele>2103.199951171875</ele>
        <time>2020-08-13T13:41:30.000Z</time>
      </trkpt>
      <trkpt lat="42.46090938337147235870361328125" lon="1.0205283947288990020751953125">
        <ele>2104.199951171875</ele>
        <time>2020-08-13T13:41:31.000Z</time>
      </trkpt>
      <trkpt lat="42.46094341389834880828857421875" lon="1.0205255448818206787109375">
        <ele>2105.60009765625</ele>
        <time>2020-08-13T13:41:33.000Z</time>
      </trkpt>
      <trkpt lat="42.461043410003185272216796875" lon="1.0205082781612873077392578125">
        <ele>2105.60009765625</ele>
        <time>2020-08-13T13:41:39.000Z</time>
      </trkpt>
      <trkpt lat="42.461168803274631500244140625" lon="1.0204874910414218902587890625">
        <ele>2105.60009765625</ele>
        <time>2020-08-13T13:41:47.000Z</time>
      </trkpt>
      <trkpt lat="42.461291514337062835693359375" lon="1.02045119740068912506103515625">
        <ele>2106.39990234375</ele>
        <time>2020-08-13T13:41:56.000Z</time>
      </trkpt>
      <trkpt lat="42.46130635030567646026611328125" lon="1.02044667117297649383544921875">
        <ele>2106.800048828125</ele>
        <time>2020-08-13T13:41:57.000Z</time>
      </trkpt>
      <trkpt lat="42.46137826703488826751708984375" lon="1.02039746940135955810546875">
        <ele>2107.60009765625</ele>
        <time>2020-08-13T13:42:02.000Z</time>
      </trkpt>
      <trkpt lat="42.4614730663597583770751953125" lon="1.020342819392681121826171875">
        <ele>2107</ele>
        <time>2020-08-13T13:42:09.000Z</time>
      </trkpt>
      <trkpt lat="42.4614998884499073028564453125" lon="1.0203285701572895050048828125">
        <ele>2107</ele>
        <time>2020-08-13T13:42:11.000Z</time>
      </trkpt>
      <trkpt lat="42.461553700268268585205078125" lon="1.02029294706881046295166015625">
        <ele>2108.199951171875</ele>
        <time>2020-08-13T13:42:15.000Z</time>
      </trkpt>
      <trkpt lat="42.46165000833570957183837890625" lon="1.020236872136592864990234375">
        <ele>2109.199951171875</ele>
        <time>2020-08-13T13:42:22.000Z</time>
      </trkpt>
      <trkpt lat="42.4616913311183452606201171875" lon="1.02020678110420703887939453125">
        <ele>2109.39990234375</ele>
        <time>2020-08-13T13:42:25.000Z</time>
      </trkpt>
      <trkpt lat="42.46174153871834278106689453125" lon="1.02016017772257328033447265625">
        <ele>2109.60009765625</ele>
        <time>2020-08-13T13:42:29.000Z</time>
      </trkpt>
      <trkpt lat="42.461833320558071136474609375" lon="1.02007904089987277984619140625">
        <ele>2109.60009765625</ele>
        <time>2020-08-13T13:42:36.000Z</time>
      </trkpt>
      <trkpt lat="42.46190012432634830474853515625" lon="1.02003076113760471343994140625">
        <ele>2110.800048828125</ele>
        <time>2020-08-13T13:42:40.000Z</time>
      </trkpt>
      <trkpt lat="42.461952678859233856201171875" lon="1.020001508295536041259765625">
        <ele>2112</ele>
        <time>2020-08-13T13:42:43.000Z</time>
      </trkpt>
      <trkpt lat="42.46196919120848178863525390625" lon="1.019991450011730194091796875">
        <ele>2112.39990234375</ele>
        <time>2020-08-13T13:42:44.000Z</time>
      </trkpt>
      <trkpt lat="42.4620919860899448394775390625" lon="1.01990972645580768585205078125">
        <ele>2112.800048828125</ele>
        <time>2020-08-13T13:42:52.000Z</time>
      </trkpt>
      <trkpt lat="42.4622304551303386688232421875" lon="1.01986882276833057403564453125">
        <ele>2113</ele>
        <time>2020-08-13T13:43:00.000Z</time>
      </trkpt>
      <trkpt lat="42.46229700744152069091796875" lon="1.0198509693145751953125">
        <ele>2112</ele>
        <time>2020-08-13T13:43:04.000Z</time>
      </trkpt>
      <trkpt lat="42.46235325001180171966552734375" lon="1.0198239795863628387451171875">
        <ele>2112.199951171875</ele>
        <time>2020-08-13T13:43:08.000Z</time>
      </trkpt>
      <trkpt lat="42.462379820644855499267578125" lon="1.01980268955230712890625">
        <ele>2113.199951171875</ele>
        <time>2020-08-13T13:43:10.000Z</time>
      </trkpt>
      <trkpt lat="42.4624269269406795501708984375" lon="1.019698083400726318359375">
        <ele>2114.199951171875</ele>
        <time>2020-08-13T13:43:16.000Z</time>
      </trkpt>
      <trkpt lat="42.46243623085319995880126953125" lon="1.01965609006583690643310546875">
        <ele>2115.39990234375</ele>
        <time>2020-08-13T13:43:18.000Z</time>
      </trkpt>
      <trkpt lat="42.4624393321573734283447265625" lon="1.01951661519706249237060546875">
        <ele>2116</ele>
        <time>2020-08-13T13:43:24.000Z</time>
      </trkpt>
      <trkpt lat="42.46244310401380062103271484375" lon="1.01949155330657958984375">
        <ele>2116</ele>
        <time>2020-08-13T13:43:25.000Z</time>
      </trkpt>
      <trkpt lat="42.46248635463416576385498046875" lon="1.019355766475200653076171875">
        <ele>2116.800048828125</ele>
        <time>2020-08-13T13:43:31.000Z</time>
      </trkpt>
      <trkpt lat="42.46250328607857227325439453125" lon="1.019316203892230987548828125">
        <ele>2117.39990234375</ele>
        <time>2020-08-13T13:43:33.000Z</time>
      </trkpt>
      <trkpt lat="42.46252960525453090667724609375" lon="1.01925610564649105072021484375">
        <ele>2117.800048828125</ele>
        <time>2020-08-13T13:43:36.000Z</time>
      </trkpt>
      <trkpt lat="42.46257989667356014251708984375" lon="1.01913423277437686920166015625">
        <ele>2119</ele>
        <time>2020-08-13T13:43:42.000Z</time>
      </trkpt>
      <trkpt lat="42.462590038776397705078125" lon="1.0191148705780506134033203125">
        <ele>2119.199951171875</ele>
        <time>2020-08-13T13:43:43.000Z</time>
      </trkpt>
      <trkpt lat="42.4626203812658786773681640625" lon="1.0190568678081035614013671875">
        <ele>2120.199951171875</ele>
        <time>2020-08-13T13:43:46.000Z</time>
      </trkpt>
      <trkpt lat="42.462682910263538360595703125" lon="1.01897179149091243743896484375">
        <ele>2121.60009765625</ele>
        <time>2020-08-13T13:43:51.000Z</time>
      </trkpt>
      <trkpt lat="42.4627129174768924713134765625" lon="1.01894597522914409637451171875">
        <ele>2121.800048828125</ele>
        <time>2020-08-13T13:43:53.000Z</time>
      </trkpt>
      <trkpt lat="42.46285079978406429290771484375" lon="1.01888914592564105987548828125">
        <ele>2122.39990234375</ele>
        <time>2020-08-13T13:44:01.000Z</time>
      </trkpt>
      <trkpt lat="42.46296227909624576568603515625" lon="1.0188999585807323455810546875">
        <ele>2123</ele>
        <time>2020-08-13T13:44:07.000Z</time>
      </trkpt>
      <trkpt lat="42.46299748308956623077392578125" lon="1.01891580037772655487060546875">
        <ele>2123.39990234375</ele>
        <time>2020-08-13T13:44:09.000Z</time>
      </trkpt>
      <trkpt lat="42.46306411921977996826171875" lon="1.01895988918840885162353515625">
        <ele>2124.199951171875</ele>
        <time>2020-08-13T13:44:13.000Z</time>
      </trkpt>
      <trkpt lat="42.463110052049160003662109375" lon="1.0189998708665370941162109375">
        <ele>2124.39990234375</ele>
        <time>2020-08-13T13:44:16.000Z</time>
      </trkpt>
      <trkpt lat="42.463232763111591339111328125" lon="1.01902225054800510406494140625">
        <ele>2124</ele>
        <time>2020-08-13T13:44:23.000Z</time>
      </trkpt>
      <trkpt lat="42.463336028158664703369140625" lon="1.01899727247655391693115234375">
        <ele>2125.39990234375</ele>
        <time>2020-08-13T13:44:29.000Z</time>
      </trkpt>
      <trkpt lat="42.4633719027042388916015625" lon="1.01898930966854095458984375">
        <ele>2125.39990234375</ele>
        <time>2020-08-13T13:44:31.000Z</time>
      </trkpt>
      <trkpt lat="42.46346016414463520050048828125" lon="1.01895712316036224365234375">
        <ele>2126.60009765625</ele>
        <time>2020-08-13T13:44:36.000Z</time>
      </trkpt>
      <trkpt lat="42.46347642503678798675537109375" lon="1.01894949562847614288330078125">
        <ele>2126.800048828125</ele>
        <time>2020-08-13T13:44:37.000Z</time>
      </trkpt>
      <trkpt lat="42.463581450283527374267578125" lon="1.0189269483089447021484375">
        <ele>2127.39990234375</ele>
        <time>2020-08-13T13:44:43.000Z</time>
      </trkpt>
      <trkpt lat="42.46359880082309246063232421875" lon="1.0189214162528514862060546875">
        <ele>2127.800048828125</ele>
        <time>2020-08-13T13:44:44.000Z</time>
      </trkpt>
      <trkpt lat="42.4637152254581451416015625" lon="1.01887154392898082733154296875">
        <ele>2127.800048828125</ele>
        <time>2020-08-13T13:44:51.000Z</time>
      </trkpt>
      <trkpt lat="42.4637903273105621337890625" lon="1.0188295505940914154052734375">
        <ele>2129</ele>
        <time>2020-08-13T13:44:56.000Z</time>
      </trkpt>
      <trkpt lat="42.4638521857559680938720703125" lon="1.01879074238240718841552734375">
        <ele>2130</ele>
        <time>2020-08-13T13:45:00.000Z</time>
      </trkpt>
      <trkpt lat="42.4639303050935268402099609375" lon="1.0187351703643798828125">
        <ele>2131</ele>
        <time>2020-08-13T13:45:05.000Z</time>
      </trkpt>
      <trkpt lat="42.46399358846247196197509765625" lon="1.0186914168298244476318359375">
        <ele>2131.800048828125</ele>
        <time>2020-08-13T13:45:09.000Z</time>
      </trkpt>
      <trkpt lat="42.4641324765980243682861328125" lon="1.01858588866889476776123046875">
        <ele>2131.800048828125</ele>
        <time>2020-08-13T13:45:18.000Z</time>
      </trkpt>
      <trkpt lat="42.46430338360369205474853515625" lon="1.01849955506622791290283203125">
        <ele>2131.199951171875</ele>
        <time>2020-08-13T13:45:27.000Z</time>
      </trkpt>
      <trkpt lat="42.46441754512488842010498046875" lon="1.01849854923784732818603515625">
        <ele>2132.199951171875</ele>
        <time>2020-08-13T13:45:33.000Z</time>
      </trkpt>
      <trkpt lat="42.46447387151420116424560546875" lon="1.018502824008464813232421875">
        <ele>2132.199951171875</ele>
        <time>2020-08-13T13:45:36.000Z</time>
      </trkpt>
      <trkpt lat="42.46462357230484485626220703125" lon="1.01852126419544219970703125">
        <ele>2132.800048828125</ele>
        <time>2020-08-13T13:45:44.000Z</time>
      </trkpt>
      <trkpt lat="42.46480126865208148956298828125" lon="1.01855613291263580322265625">
        <ele>2132.60009765625</ele>
        <time>2020-08-13T13:45:53.000Z</time>
      </trkpt>
      <trkpt lat="42.4648831598460674285888671875" lon="1.01858991198241710662841796875">
        <ele>2134</ele>
        <time>2020-08-13T13:45:57.000Z</time>
      </trkpt>
      <trkpt lat="42.464948706328868865966796875" lon="1.0186159797012805938720703125">
        <ele>2134.60009765625</ele>
        <time>2020-08-13T13:46:00.000Z</time>
      </trkpt>
      <trkpt lat="42.46511240489780902862548828125" lon="1.01868613623082637786865234375">
        <ele>2135</ele>
        <time>2020-08-13T13:46:08.000Z</time>
      </trkpt>
      <trkpt lat="42.4652092158794403076171875" lon="1.01872385479509830474853515625">
        <ele>2136</ele>
        <time>2020-08-13T13:46:13.000Z</time>
      </trkpt>
      <trkpt lat="42.46523243375122547149658203125" lon="1.01871044375002384185791015625">
        <ele>2136.39990234375</ele>
        <time>2020-08-13T13:46:14.000Z</time>
      </trkpt>
      <trkpt lat="42.46525858528912067413330078125" lon="1.0186052508652210235595703125">
        <ele>2137</ele>
        <time>2020-08-13T13:46:18.000Z</time>
      </trkpt>
      <trkpt lat="42.465215586125850677490234375" lon="1.01853869855403900146484375">
        <ele>2137.60009765625</ele>
        <time>2020-08-13T13:46:21.000Z</time>
      </trkpt>
      <trkpt lat="42.46516018174588680267333984375" lon="1.0184865631163120269775390625">
        <ele>2137.800048828125</ele>
        <time>2020-08-13T13:46:24.000Z</time>
      </trkpt>
      <trkpt lat="42.4651265703141689300537109375" lon="1.01845362223684787750244140625">
        <ele>2138.199951171875</ele>
        <time>2020-08-13T13:46:26.000Z</time>
      </trkpt>
      <trkpt lat="42.465037219226360321044921875" lon="1.01838438771665096282958984375">
        <ele>2139</ele>
        <time>2020-08-13T13:46:31.000Z</time>
      </trkpt>
      <trkpt lat="42.4649813957512378692626953125" lon="1.018323116004467010498046875">
        <ele>2139.199951171875</ele>
        <time>2020-08-13T13:46:35.000Z</time>
      </trkpt>
      <trkpt lat="42.46490989811718463897705078125" lon="1.01823770441114902496337890625">
        <ele>2139.800048828125</ele>
        <time>2020-08-13T13:46:40.000Z</time>
      </trkpt>
      <trkpt lat="42.46486849151551723480224609375" lon="1.0181717388331890106201171875">
        <ele>2140.60009765625</ele>
        <time>2020-08-13T13:46:43.000Z</time>
      </trkpt>
      <trkpt lat="42.46482071466743946075439453125" lon="1.01809152401983737945556640625">
        <ele>2141.800048828125</ele>
        <time>2020-08-13T13:46:47.000Z</time>
      </trkpt>
      <trkpt lat="42.46481023728847503662109375" lon="1.01807258091866970062255859375">
        <ele>2142</ele>
        <time>2020-08-13T13:46:48.000Z</time>
      </trkpt>
      <trkpt lat="42.4647859297692775726318359375" lon="1.0180091299116611480712890625">
        <ele>2143</ele>
        <time>2020-08-13T13:46:51.000Z</time>
      </trkpt>
      <trkpt lat="42.4647661484777927398681640625" lon="1.01795121096074581146240234375">
        <ele>2144.199951171875</ele>
        <time>2020-08-13T13:46:54.000Z</time>
      </trkpt>
      <trkpt lat="42.4647406674921512603759765625" lon="1.01786286570131778717041015625">
        <ele>2145.199951171875</ele>
        <time>2020-08-13T13:46:58.000Z</time>
      </trkpt>
      <trkpt lat="42.46473320759832859039306640625" lon="1.01780117489397525787353515625">
        <ele>2146.60009765625</ele>
        <time>2020-08-13T13:47:02.000Z</time>
      </trkpt>
      <trkpt lat="42.46473270468413829803466796875" lon="1.017802096903324127197265625">
        <ele>2147.39990234375</ele>
        <time>2020-08-13T13:47:05.000Z</time>
      </trkpt>
      <trkpt lat="42.4647503904998302459716796875" lon="1.0177757777273654937744140625">
        <ele>2150</ele>
        <time>2020-08-13T13:51:24.000Z</time>
      </trkpt>
      <trkpt lat="42.46475667692720890045166015625" lon="1.0177593491971492767333984375">
        <ele>2150</ele>
        <time>2020-08-13T13:51:31.000Z</time>
      </trkpt>
      <trkpt lat="42.46477126143872737884521484375" lon="1.017720960080623626708984375">
        <ele>2149.199951171875</ele>
        <time>2020-08-13T13:51:36.000Z</time>
      </trkpt>
      <trkpt lat="42.46478282846510410308837890625" lon="1.01768466643989086151123046875">
        <ele>2149</ele>
        <time>2020-08-13T13:51:38.000Z</time>
      </trkpt>
      <trkpt lat="42.4648114107549190521240234375" lon="1.01763823069632053375244140625">
        <ele>2147.60009765625</ele>
        <time>2020-08-13T13:51:41.000Z</time>
      </trkpt>
      <trkpt lat="42.46484150178730487823486328125" lon="1.01761065423488616943359375">
        <ele>2146.800048828125</ele>
        <time>2020-08-13T13:51:43.000Z</time>
      </trkpt>
      <trkpt lat="42.4648605287075042724609375" lon="1.017595231533050537109375">
        <ele>2146.60009765625</ele>
        <time>2020-08-13T13:51:44.000Z</time>
      </trkpt>
      <trkpt lat="42.4648927152156829833984375" lon="1.0175783000886440277099609375">
        <ele>2145.60009765625</ele>
        <time>2020-08-13T13:51:48.000Z</time>
      </trkpt>
      <trkpt lat="42.46492850594222545623779296875" lon="1.01752390153706073760986328125">
        <ele>2144.39990234375</ele>
        <time>2020-08-13T13:51:53.000Z</time>
      </trkpt>
      <trkpt lat="42.4649445153772830963134765625" lon="1.0174991749227046966552734375">
        <ele>2144</ele>
        <time>2020-08-13T13:51:54.000Z</time>
      </trkpt>
      <trkpt lat="42.46499128639698028564453125" lon="1.0174073092639446258544921875">
        <ele>2143</ele>
        <time>2020-08-13T13:51:57.000Z</time>
      </trkpt>
      <trkpt lat="42.46502741239964962005615234375" lon="1.017299853265285491943359375">
        <ele>2142</ele>
        <time>2020-08-13T13:52:00.000Z</time>
      </trkpt>
      <trkpt lat="42.46503478847444057464599609375" lon="1.017262637615203857421875">
        <ele>2142</ele>
        <time>2020-08-13T13:52:01.000Z</time>
      </trkpt>
      <trkpt lat="42.46508290059864521026611328125" lon="1.01708938367664813995361328125">
        <ele>2140.800048828125</ele>
        <time>2020-08-13T13:52:06.000Z</time>
      </trkpt>
      <trkpt lat="42.46510385535657405853271484375" lon="1.01703523658215999603271484375">
        <ele>2140</ele>
        <time>2020-08-13T13:52:08.000Z</time>
      </trkpt>
      <trkpt lat="42.46511123143136501312255859375" lon="1.01700422354042530059814453125">
        <ele>2139.60009765625</ele>
        <time>2020-08-13T13:52:09.000Z</time>
      </trkpt>
      <trkpt lat="42.465139143168926239013671875" lon="1.01687564514577388763427734375">
        <ele>2138.60009765625</ele>
        <time>2020-08-13T13:52:12.000Z</time>
      </trkpt>
      <trkpt lat="42.46515221893787384033203125" lon="1.0168262757360935211181640625">
        <ele>2138</ele>
        <time>2020-08-13T13:52:13.000Z</time>
      </trkpt>
      <trkpt lat="42.46516470797359943389892578125" lon="1.01672896184027194976806640625">
        <ele>2137.199951171875</ele>
        <time>2020-08-13T13:52:15.000Z</time>
      </trkpt>
      <trkpt lat="42.4651574157178401947021484375" lon="1.01663340814411640167236328125">
        <ele>2136.60009765625</ele>
        <time>2020-08-13T13:52:17.000Z</time>
      </trkpt>
      <trkpt lat="42.4651463516056537628173828125" lon="1.0165412910282611846923828125">
        <ele>2136</ele>
        <time>2020-08-13T13:52:19.000Z</time>
      </trkpt>
      <trkpt lat="42.46514626778662204742431640625" lon="1.016387902200222015380859375">
        <ele>2135.39990234375</ele>
        <time>2020-08-13T13:52:23.000Z</time>
      </trkpt>
      <trkpt lat="42.4651607684791088104248046875" lon="1.01631690748035907745361328125">
        <ele>2134.800048828125</ele>
        <time>2020-08-13T13:52:25.000Z</time>
      </trkpt>
      <trkpt lat="42.46519756503403186798095703125" lon="1.01621414534747600555419921875">
        <ele>2133.39990234375</ele>
        <time>2020-08-13T13:52:28.000Z</time>
      </trkpt>
      <trkpt lat="42.46520628221333026885986328125" lon="1.01618430577218532562255859375">
        <ele>2132.800048828125</ele>
        <time>2020-08-13T13:52:29.000Z</time>
      </trkpt>
      <trkpt lat="42.46522589586675167083740234375" lon="1.01612471044063568115234375">
        <ele>2132.199951171875</ele>
        <time>2020-08-13T13:52:31.000Z</time>
      </trkpt>
      <trkpt lat="42.4652789533138275146484375" lon="1.01606243290007114410400390625">
        <ele>2132</ele>
        <time>2020-08-13T13:52:34.000Z</time>
      </trkpt>
      <trkpt lat="42.46535497717559337615966796875" lon="1.01600560359656810760498046875">
        <ele>2131.199951171875</ele>
        <time>2020-08-13T13:52:39.000Z</time>
      </trkpt>
      <trkpt lat="42.46537308208644390106201171875" lon="1.0159907676279544830322265625">
        <ele>2131.199951171875</ele>
        <time>2020-08-13T13:52:40.000Z</time>
      </trkpt>
      <trkpt lat="42.465506605803966522216796875" lon="1.01593133993446826934814453125">
        <ele>2130.60009765625</ele>
        <time>2020-08-13T13:52:45.000Z</time>
      </trkpt>
      <trkpt lat="42.465535439550876617431640625" lon="1.015912480652332305908203125">
        <ele>2130</ele>
        <time>2020-08-13T13:52:46.000Z</time>
      </trkpt>
      <trkpt lat="42.46568153612315654754638671875" lon="1.01579882204532623291015625">
        <ele>2129</ele>
        <time>2020-08-13T13:52:51.000Z</time>
      </trkpt>
      <trkpt lat="42.46570936404168605804443359375" lon="1.01577199995517730712890625">
        <ele>2128.60009765625</ele>
        <time>2020-08-13T13:52:52.000Z</time>
      </trkpt>
      <trkpt lat="42.46576351113617420196533203125" lon="1.0157029330730438232421875">
        <ele>2127.60009765625</ele>
        <time>2020-08-13T13:52:54.000Z</time>
      </trkpt>
      <trkpt lat="42.4658524431288242340087890625" lon="1.015614084899425506591796875">
        <ele>2127.39990234375</ele>
        <time>2020-08-13T13:52:57.000Z</time>
      </trkpt>
      <trkpt lat="42.46602586470544338226318359375" lon="1.015524901449680328369140625">
        <ele>2126.60009765625</ele>
        <time>2020-08-13T13:53:02.000Z</time>
      </trkpt>
      <trkpt lat="42.466066181659698486328125" lon="1.01551140658557415008544921875">
        <ele>2126.39990234375</ele>
        <time>2020-08-13T13:53:03.000Z</time>
      </trkpt>
      <trkpt lat="42.46615243144333362579345703125" lon="1.0154781304299831390380859375">
        <ele>2124.800048828125</ele>
        <time>2020-08-13T13:53:05.000Z</time>
      </trkpt>
      <trkpt lat="42.4662391841411590576171875" lon="1.015430353581905364990234375">
        <ele>2123</ele>
        <time>2020-08-13T13:53:07.000Z</time>
      </trkpt>
      <trkpt lat="42.46631956659257411956787109375" lon="1.01536832749843597412109375">
        <ele>2122</ele>
        <time>2020-08-13T13:53:09.000Z</time>
      </trkpt>
      <trkpt lat="42.46635711751878261566162109375" lon="1.015338487923145294189453125">
        <ele>2121.800048828125</ele>
        <time>2020-08-13T13:53:10.000Z</time>
      </trkpt>
      <trkpt lat="42.466530539095401763916015625" lon="1.01521049626171588897705078125">
        <ele>2121.199951171875</ele>
        <time>2020-08-13T13:53:15.000Z</time>
      </trkpt>
      <trkpt lat="42.4665695987641811370849609375" lon="1.0151847638189792633056640625">
        <ele>2120.800048828125</ele>
        <time>2020-08-13T13:53:16.000Z</time>
      </trkpt>
      <trkpt lat="42.4666845984756946563720703125" lon="1.01512290537357330322265625">
        <ele>2119.199951171875</ele>
        <time>2020-08-13T13:53:19.000Z</time>
      </trkpt>
      <trkpt lat="42.4667610414326190948486328125" lon="1.0150999389588832855224609375">
        <ele>2118.199951171875</ele>
        <time>2020-08-13T13:53:21.000Z</time>
      </trkpt>
      <trkpt lat="42.4667989276349544525146484375" lon="1.015080325305461883544921875">
        <ele>2117.800048828125</ele>
        <time>2020-08-13T13:53:22.000Z</time>
      </trkpt>
      <trkpt lat="42.46686992235481739044189453125" lon="1.01502441801130771636962890625">
        <ele>2117</ele>
        <time>2020-08-13T13:53:24.000Z</time>
      </trkpt>
      <trkpt lat="42.46700503863394260406494140625" lon="1.0148927383124828338623046875">
        <ele>2116.199951171875</ele>
        <time>2020-08-13T13:53:28.000Z</time>
      </trkpt>
      <trkpt lat="42.46707913465797901153564453125" lon="1.01482652127742767333984375">
        <ele>2116</ele>
        <time>2020-08-13T13:53:30.000Z</time>
      </trkpt>
      <trkpt lat="42.46726605109870433807373046875" lon="1.01463281549513339996337890625">
        <ele>2114.60009765625</ele>
        <time>2020-08-13T13:53:35.000Z</time>
      </trkpt>
      <trkpt lat="42.46733528561890125274658203125" lon="1.01455469615757465362548828125">
        <ele>2112.800048828125</ele>
        <time>2020-08-13T13:53:37.000Z</time>
      </trkpt>
      <trkpt lat="42.46740636415779590606689453125" lon="1.0144857130944728851318359375">
        <ele>2111.60009765625</ele>
        <time>2020-08-13T13:53:39.000Z</time>
      </trkpt>
      <trkpt lat="42.4674778617918491363525390625" lon="1.01441480219364166259765625">
        <ele>2110.60009765625</ele>
        <time>2020-08-13T13:53:41.000Z</time>
      </trkpt>
      <trkpt lat="42.46757685206830501556396484375" lon="1.0143127106130123138427734375">
        <ele>2110.199951171875</ele>
        <time>2020-08-13T13:53:44.000Z</time>
      </trkpt>
      <trkpt lat="42.46761155314743518829345703125" lon="1.01428597234189510345458984375">
        <ele>2109.39990234375</ele>
        <time>2020-08-13T13:53:45.000Z</time>
      </trkpt>
      <trkpt lat="42.46768414042890071868896484375" lon="1.014235429465770721435546875">
        <ele>2108.199951171875</ele>
        <time>2020-08-13T13:53:47.000Z</time>
      </trkpt>
      <trkpt lat="42.4677752517163753509521484375" lon="1.01413710974156856536865234375">
        <ele>2107</ele>
        <time>2020-08-13T13:53:50.000Z</time>
      </trkpt>
      <trkpt lat="42.4677863158285617828369140625" lon="1.01409603841602802276611328125">
        <ele>2106.60009765625</ele>
        <time>2020-08-13T13:53:51.000Z</time>
      </trkpt>
      <trkpt lat="42.467767037451267242431640625" lon="1.014023534953594207763671875">
        <ele>2106.39990234375</ele>
        <time>2020-08-13T13:53:53.000Z</time>
      </trkpt>
      <trkpt lat="42.4676793627440929412841796875" lon="1.01398766040802001953125">
        <ele>2106</ele>
        <time>2020-08-13T13:53:56.000Z</time>
      </trkpt>
      <trkpt lat="42.46762043796479701995849609375" lon="1.0140106268227100372314453125">
        <ele>2105.60009765625</ele>
        <time>2020-08-13T13:53:58.000Z</time>
      </trkpt>
      <trkpt lat="42.4675026722252368927001953125" lon="1.014086566865444183349609375">
        <ele>2105</ele>
        <time>2020-08-13T13:54:02.000Z</time>
      </trkpt>
      <trkpt lat="42.4674701504409313201904296875" lon="1.01409721188247203826904296875">
        <ele>2104.60009765625</ele>
        <time>2020-08-13T13:54:03.000Z</time>
      </trkpt>
      <trkpt lat="42.467358000576496124267578125" lon="1.0141159035265445709228515625">
        <ele>2103.60009765625</ele>
        <time>2020-08-13T13:54:06.000Z</time>
      </trkpt>
      <trkpt lat="42.46727242134511470794677734375" lon="1.01415320299565792083740234375">
        <ele>2101.800048828125</ele>
        <time>2020-08-13T13:54:08.000Z</time>
      </trkpt>
      <trkpt lat="42.46718742884695529937744140625" lon="1.0141963697969913482666015625">
        <ele>2100.800048828125</ele>
        <time>2020-08-13T13:54:10.000Z</time>
      </trkpt>
      <trkpt lat="42.4671457707881927490234375" lon="1.014204584062099456787109375">
        <ele>2100.39990234375</ele>
        <time>2020-08-13T13:54:11.000Z</time>
      </trkpt>
      <trkpt lat="42.46701090596616268157958984375" lon="1.014215312898159027099609375">
        <ele>2098.800048828125</ele>
        <time>2020-08-13T13:54:14.000Z</time>
      </trkpt>
      <trkpt lat="42.46692675165832042694091796875" lon="1.0142433084547519683837890625">
        <ele>2098</ele>
        <time>2020-08-13T13:54:16.000Z</time>
      </trkpt>
      <trkpt lat="42.46674218215048313140869140625" lon="1.0143043287098407745361328125">
        <ele>2097.60009765625</ele>
        <time>2020-08-13T13:54:20.000Z</time>
      </trkpt>
      <trkpt lat="42.46664780192077159881591796875" lon="1.01433140225708484649658203125">
        <ele>2097.39990234375</ele>
        <time>2020-08-13T13:54:22.000Z</time>
      </trkpt>
      <trkpt lat="42.4665528349578380584716796875" lon="1.014345400035381317138671875">
        <ele>2096.39990234375</ele>
        <time>2020-08-13T13:54:24.000Z</time>
      </trkpt>
      <trkpt lat="42.4664629809558391571044921875" lon="1.01434238255023956298828125">
        <ele>2096</ele>
        <time>2020-08-13T13:54:26.000Z</time>
      </trkpt>
      <trkpt lat="42.46637354604899883270263671875" lon="1.0143254511058330535888671875">
        <ele>2095.800048828125</ele>
        <time>2020-08-13T13:54:28.000Z</time>
      </trkpt>
      <trkpt lat="42.466238848865032196044921875" lon="1.0142949409782886505126953125">
        <ele>2095.199951171875</ele>
        <time>2020-08-13T13:54:31.000Z</time>
      </trkpt>
      <trkpt lat="42.466154359281063079833984375" lon="1.014274656772613525390625">
        <ele>2095</ele>
        <time>2020-08-13T13:54:33.000Z</time>
      </trkpt>
      <trkpt lat="42.46602083556354045867919921875" lon="1.01426300592720508575439453125">
        <ele>2094.800048828125</ele>
        <time>2020-08-13T13:54:36.000Z</time>
      </trkpt>
      <trkpt lat="42.4659342505037784576416015625" lon="1.01426334120333194732666015625">
        <ele>2094</ele>
        <time>2020-08-13T13:54:38.000Z</time>
      </trkpt>
      <trkpt lat="42.46584825217723846435546875" lon="1.01426937617361545562744140625">
        <ele>2093</ele>
        <time>2020-08-13T13:54:40.000Z</time>
      </trkpt>
      <trkpt lat="42.4657646007835865020751953125" lon="1.0142858885228633880615234375">
        <ele>2091.60009765625</ele>
        <time>2020-08-13T13:54:42.000Z</time>
      </trkpt>
      <trkpt lat="42.4657247029244899749755859375" lon="1.01429569534957408905029296875">
        <ele>2091.39990234375</ele>
        <time>2020-08-13T13:54:43.000Z</time>
      </trkpt>
      <trkpt lat="42.465558238327503204345703125" lon="1.0142733156681060791015625">
        <ele>2091.60009765625</ele>
        <time>2020-08-13T13:54:48.000Z</time>
      </trkpt>
      <trkpt lat="42.46554407291114330291748046875" lon="1.01416409946978092193603515625">
        <ele>2091.60009765625</ele>
        <time>2020-08-13T13:54:51.000Z</time>
      </trkpt>
      <trkpt lat="42.46561699546873569488525390625" lon="1.0140895843505859375">
        <ele>2091.39990234375</ele>
        <time>2020-08-13T13:54:54.000Z</time>
      </trkpt>
      <trkpt lat="42.46568706817924976348876953125" lon="1.01406469009816646575927734375">
        <ele>2090.199951171875</ele>
        <time>2020-08-13T13:54:56.000Z</time>
      </trkpt>
      <trkpt lat="42.46576703153550624847412109375" lon="1.01404038257896900177001953125">
        <ele>2088.800048828125</ele>
        <time>2020-08-13T13:54:58.000Z</time>
      </trkpt>
      <trkpt lat="42.465848587453365325927734375" lon="1.01400651969015598297119140625">
        <ele>2087.60009765625</ele>
        <time>2020-08-13T13:55:00.000Z</time>
      </trkpt>
      <trkpt lat="42.46589175425469875335693359375" lon="1.01398170925676822662353515625">
        <ele>2087.199951171875</ele>
        <time>2020-08-13T13:55:01.000Z</time>
      </trkpt>
      <trkpt lat="42.4659349210560321807861328125" lon="1.0139492712914943695068359375">
        <ele>2086.800048828125</ele>
        <time>2020-08-13T13:55:02.000Z</time>
      </trkpt>
      <trkpt lat="42.4660113640129566192626953125" lon="1.01388028822839260101318359375">
        <ele>2085.199951171875</ele>
        <time>2020-08-13T13:55:04.000Z</time>
      </trkpt>
      <trkpt lat="42.46604531072080135345458984375" lon="1.0138433240354061126708984375">
        <ele>2085</ele>
        <time>2020-08-13T13:55:05.000Z</time>
      </trkpt>
      <trkpt lat="42.46610146947205066680908203125" lon="1.01376730017364025115966796875">
        <ele>2083.800048828125</ele>
        <time>2020-08-13T13:55:07.000Z</time>
      </trkpt>
      <trkpt lat="42.46615360490977764129638671875" lon="1.013690941035747528076171875">
        <ele>2083</ele>
        <time>2020-08-13T13:55:10.000Z</time>
      </trkpt>
      <trkpt lat="42.4661924131214618682861328125" lon="1.0136592574417591094970703125">
        <ele>2082.39990234375</ele>
        <time>2020-08-13T13:55:12.000Z</time>
      </trkpt>
      <trkpt lat="42.466260306537151336669921875" lon="1.01360184140503406524658203125">
        <ele>2081.39990234375</ele>
        <time>2020-08-13T13:55:15.000Z</time>
      </trkpt>
      <trkpt lat="42.46634404174983501434326171875" lon="1.01353478617966175079345703125">
        <ele>2081</ele>
        <time>2020-08-13T13:55:18.000Z</time>
      </trkpt>
      <trkpt lat="42.4664173834025859832763671875" lon="1.0134889371693134307861328125">
        <ele>2080</ele>
        <time>2020-08-13T13:55:20.000Z</time>
      </trkpt>
      <trkpt lat="42.466533891856670379638671875" lon="1.0134171880781650543212890625">
        <ele>2079</ele>
        <time>2020-08-13T13:55:23.000Z</time>
      </trkpt>
      <trkpt lat="42.46660170145332813262939453125" lon="1.01337687112390995025634765625">
        <ele>2078.199951171875</ele>
        <time>2020-08-13T13:55:25.000Z</time>
      </trkpt>
      <trkpt lat="42.46666498482227325439453125" lon="1.01334501989185810089111328125">
        <ele>2077.800048828125</ele>
        <time>2020-08-13T13:55:27.000Z</time>
      </trkpt>
      <trkpt lat="42.46678409166634082794189453125" lon="1.01329900324344635009765625">
        <ele>2076.60009765625</ele>
        <time>2020-08-13T13:55:31.000Z</time>
      </trkpt>
      <trkpt lat="42.46693127788603305816650390625" lon="1.01325633935630321502685546875">
        <ele>2075.60009765625</ele>
        <time>2020-08-13T13:55:35.000Z</time>
      </trkpt>
      <trkpt lat="42.466975115239620208740234375" lon="1.013237647712230682373046875">
        <ele>2075.39990234375</ele>
        <time>2020-08-13T13:55:36.000Z</time>
      </trkpt>
      <trkpt lat="42.46714132837951183319091796875" lon="1.0131643898785114288330078125">
        <ele>2074.39990234375</ele>
        <time>2020-08-13T13:55:40.000Z</time>
      </trkpt>
      <trkpt lat="42.46720788069069385528564453125" lon="1.01314687170088291168212890625">
        <ele>2074.199951171875</ele>
        <time>2020-08-13T13:55:42.000Z</time>
      </trkpt>
      <trkpt lat="42.467268146574497222900390625" lon="1.013134382665157318115234375">
        <ele>2073.199951171875</ele>
        <time>2020-08-13T13:55:44.000Z</time>
      </trkpt>
      <trkpt lat="42.4673444218933582305908203125" lon="1.01311518810689449310302734375">
        <ele>2072.199951171875</ele>
        <time>2020-08-13T13:55:47.000Z</time>
      </trkpt>
      <trkpt lat="42.4673625268042087554931640625" lon="1.01309440098702907562255859375">
        <ele>2071.800048828125</ele>
        <time>2020-08-13T13:55:48.000Z</time>
      </trkpt>
      <trkpt lat="42.4673645384609699249267578125" lon="1.0130064748227596282958984375">
        <ele>2072</ele>
        <time>2020-08-13T13:55:51.000Z</time>
      </trkpt>
      <trkpt lat="42.46726638637483119964599609375" lon="1.012972779572010040283203125">
        <ele>2071.60009765625</ele>
        <time>2020-08-13T13:55:55.000Z</time>
      </trkpt>
      <trkpt lat="42.467213831841945648193359375" lon="1.0129913873970508575439453125">
        <ele>2071.199951171875</ele>
        <time>2020-08-13T13:55:57.000Z</time>
      </trkpt>
      <trkpt lat="42.467058598995208740234375" lon="1.01304260082542896270751953125">
        <ele>2070.60009765625</ele>
        <time>2020-08-13T13:56:02.000Z</time>
      </trkpt>
      <trkpt lat="42.4669829942286014556884765625" lon="1.01304846815764904022216796875">
        <ele>2069.800048828125</ele>
        <time>2020-08-13T13:56:04.000Z</time>
      </trkpt>
      <trkpt lat="42.46685734950006008148193359375" lon="1.01304159499704837799072265625">
        <ele>2068.60009765625</ele>
        <time>2020-08-13T13:56:07.000Z</time>
      </trkpt>
      <trkpt lat="42.46668283827602863311767578125" lon="1.01301871240139007568359375">
        <ele>2068</ele>
        <time>2020-08-13T13:56:11.000Z</time>
      </trkpt>
      <trkpt lat="42.46659927070140838623046875" lon="1.0130172036588191986083984375">
        <ele>2067.39990234375</ele>
        <time>2020-08-13T13:56:13.000Z</time>
      </trkpt>
      <trkpt lat="42.46655761264264583587646484375" lon="1.01301745511591434478759765625">
        <ele>2067</ele>
        <time>2020-08-13T13:56:14.000Z</time>
      </trkpt>
      <trkpt lat="42.4665152840316295623779296875" lon="1.01302005350589752197265625">
        <ele>2065.60009765625</ele>
        <time>2020-08-13T13:56:15.000Z</time>
      </trkpt>
      <trkpt lat="42.46642752550542354583740234375" lon="1.0130138508975505828857421875">
        <ele>2064.39990234375</ele>
        <time>2020-08-13T13:56:17.000Z</time>
      </trkpt>
      <trkpt lat="42.466383017599582672119140625" lon="1.0130041278898715972900390625">
        <ele>2063.800048828125</ele>
        <time>2020-08-13T13:56:18.000Z</time>
      </trkpt>
      <trkpt lat="42.46634177863597869873046875" lon="1.012987196445465087890625">
        <ele>2063.199951171875</ele>
        <time>2020-08-13T13:56:19.000Z</time>
      </trkpt>
      <trkpt lat="42.466303892433643341064453125" lon="1.0129649005830287933349609375">
        <ele>2063</ele>
        <time>2020-08-13T13:56:20.000Z</time>
      </trkpt>
      <trkpt lat="42.46622837148606777191162109375" lon="1.01292508654296398162841796875">
        <ele>2062.60009765625</ele>
        <time>2020-08-13T13:56:22.000Z</time>
      </trkpt>
      <trkpt lat="42.46615142561495304107666015625" lon="1.01289507932960987091064453125">
        <ele>2062.199951171875</ele>
        <time>2020-08-13T13:56:24.000Z</time>
      </trkpt>
      <trkpt lat="42.46603173203766345977783203125" lon="1.01286909542977809906005859375">
        <ele>2061.199951171875</ele>
        <time>2020-08-13T13:56:27.000Z</time>
      </trkpt>
      <trkpt lat="42.46599200181663036346435546875" lon="1.012856103479862213134765625">
        <ele>2060.39990234375</ele>
        <time>2020-08-13T13:56:28.000Z</time>
      </trkpt>
      <trkpt lat="42.46595310978591442108154296875" lon="1.0128361545503139495849609375">
        <ele>2059.60009765625</ele>
        <time>2020-08-13T13:56:29.000Z</time>
      </trkpt>
      <trkpt lat="42.46587767265737056732177734375" lon="1.01278125308454036712646484375">
        <ele>2059.199951171875</ele>
        <time>2020-08-13T13:56:31.000Z</time>
      </trkpt>
      <trkpt lat="42.46584163047373294830322265625" lon="1.01275040768086910247802734375">
        <ele>2059.199951171875</ele>
        <time>2020-08-13T13:56:32.000Z</time>
      </trkpt>
      <trkpt lat="42.46566586196422576904296875" lon="1.01266675628721714019775390625">
        <ele>2058.39990234375</ele>
        <time>2020-08-13T13:56:37.000Z</time>
      </trkpt>
      <trkpt lat="42.46556662023067474365234375" lon="1.0126557759940624237060546875">
        <ele>2057.39990234375</ele>
        <time>2020-08-13T13:56:40.000Z</time>
      </trkpt>
      <trkpt lat="42.465497553348541259765625" lon="1.0125860385596752166748046875">
        <ele>2057</ele>
        <time>2020-08-13T13:56:43.000Z</time>
      </trkpt>
      <trkpt lat="42.46550400741398334503173828125" lon="1.012437008321285247802734375">
        <ele>2056.39990234375</ele>
        <time>2020-08-13T13:56:47.000Z</time>
      </trkpt>
      <trkpt lat="42.46552236378192901611328125" lon="1.01241244934499263763427734375">
        <ele>2056.199951171875</ele>
        <time>2020-08-13T13:56:48.000Z</time>
      </trkpt>
      <trkpt lat="42.4656167440116405487060546875" lon="1.0123501718044281005859375">
        <ele>2054.39990234375</ele>
        <time>2020-08-13T13:56:52.000Z</time>
      </trkpt>
      <trkpt lat="42.465679608285427093505859375" lon="1.01233332417905330657958984375">
        <ele>2053.39990234375</ele>
        <time>2020-08-13T13:56:54.000Z</time>
      </trkpt>
      <trkpt lat="42.465787567198276519775390625" lon="1.0123151354491710662841796875">
        <ele>2052.60009765625</ele>
        <time>2020-08-13T13:56:57.000Z</time>
      </trkpt>
      <trkpt lat="42.4658207595348358154296875" lon="1.01231597363948822021484375">
        <ele>2052.39990234375</ele>
        <time>2020-08-13T13:56:58.000Z</time>
      </trkpt>
      <trkpt lat="42.465855963528156280517578125" lon="1.0123198293149471282958984375">
        <ele>2051.39990234375</ele>
        <time>2020-08-13T13:56:59.000Z</time>
      </trkpt>
      <trkpt lat="42.4659334123134613037109375" lon="1.01233466528356075286865234375">
        <ele>2050</ele>
        <time>2020-08-13T13:57:01.000Z</time>
      </trkpt>
      <trkpt lat="42.466008849442005157470703125" lon="1.0123570449650287628173828125">
        <ele>2049.39990234375</ele>
        <time>2020-08-13T13:57:03.000Z</time>
      </trkpt>
      <trkpt lat="42.46604782529175281524658203125" lon="1.01236827671527862548828125">
        <ele>2049.39990234375</ele>
        <time>2020-08-13T13:57:04.000Z</time>
      </trkpt>
      <trkpt lat="42.46608906425535678863525390625" lon="1.0123781673610210418701171875">
        <ele>2048.800048828125</ele>
        <time>2020-08-13T13:57:05.000Z</time>
      </trkpt>
      <trkpt lat="42.46623583137989044189453125" lon="1.01240037940442562103271484375">
        <ele>2047.4000244140625</ele>
        <time>2020-08-13T13:57:09.000Z</time>
      </trkpt>
      <trkpt lat="42.46629592962563037872314453125" lon="1.01240691728889942169189453125">
        <ele>2046</ele>
        <time>2020-08-13T13:57:11.000Z</time>
      </trkpt>
      <trkpt lat="42.46632023714482784271240234375" lon="1.01240859366953372955322265625">
        <ele>2045.800048828125</ele>
        <time>2020-08-13T13:57:13.000Z</time>
      </trkpt>
      <trkpt lat="42.46631897985935211181640625" lon="1.01240792311728000640869140625">
        <ele>2045.4000244140625</ele>
        <time>2020-08-13T13:57:29.000Z</time>
      </trkpt>
      <trkpt lat="42.4663191474974155426025390625" lon="1.01240825839340686798095703125">
        <ele>2045.5999755859375</ele>
        <time>2020-08-13T13:57:47.000Z</time>
      </trkpt>
      <trkpt lat="42.46631897985935211181640625" lon="1.01240859366953372955322265625">
        <ele>2045.800048828125</ele>
        <time>2020-08-13T13:58:06.000Z</time>
      </trkpt>
      <trkpt lat="42.4663191474974155426025390625" lon="1.0124093480408191680908203125">
        <ele>2045.800048828125</ele>
        <time>2020-08-13T13:58:20.000Z</time>
      </trkpt>
      <trkpt lat="42.4663191474974155426025390625" lon="1.01240943185985088348388671875">
        <ele>2045.800048828125</ele>
        <time>2020-08-13T13:58:27.000Z</time>
      </trkpt>
      <trkpt lat="42.466330714523792266845703125" lon="1.012411527335643768310546875">
        <ele>2045.5999755859375</ele>
        <time>2020-08-13T13:58:52.000Z</time>
      </trkpt>
      <trkpt lat="42.46642031706869602203369140625" lon="1.01238906383514404296875">
        <ele>2045.4000244140625</ele>
        <time>2020-08-13T13:58:56.000Z</time>
      </trkpt>
      <trkpt lat="42.4664552696049213409423828125" lon="1.01238244213163852691650390625">
        <ele>2045.199951171875</ele>
        <time>2020-08-13T13:58:57.000Z</time>
      </trkpt>
      <trkpt lat="42.4666014499962329864501953125" lon="1.012340448796749114990234375">
        <ele>2044.199951171875</ele>
        <time>2020-08-13T13:59:01.000Z</time>
      </trkpt>
      <trkpt lat="42.46671552769839763641357421875" lon="1.012303568422794342041015625">
        <ele>2044</ele>
        <time>2020-08-13T13:59:04.000Z</time>
      </trkpt>
      <trkpt lat="42.4669015221297740936279296875" lon="1.01222486235201358795166015625">
        <ele>2043.199951171875</ele>
        <time>2020-08-13T13:59:09.000Z</time>
      </trkpt>
      <trkpt lat="42.46693446300923824310302734375" lon="1.01219284348189830780029296875">
        <ele>2042.4000244140625</ele>
        <time>2020-08-13T13:59:10.000Z</time>
      </trkpt>
      <trkpt lat="42.466960363090038299560546875" lon="1.0121619142591953277587890625">
        <ele>2041.5999755859375</ele>
        <time>2020-08-13T13:59:11.000Z</time>
      </trkpt>
      <trkpt lat="42.46705499477684497833251953125" lon="1.01207591593265533447265625">
        <ele>2040.199951171875</ele>
        <time>2020-08-13T13:59:15.000Z</time>
      </trkpt>
      <trkpt lat="42.46718809939920902252197265625" lon="1.01203224621713161468505859375">
        <ele>2039</ele>
        <time>2020-08-13T13:59:19.000Z</time>
      </trkpt>
      <trkpt lat="42.46725800447165966033935546875" lon="1.01203610189259052276611328125">
        <ele>2038.199951171875</ele>
        <time>2020-08-13T13:59:21.000Z</time>
      </trkpt>
      <trkpt lat="42.46732078492641448974609375" lon="1.012054793536663055419921875">
        <ele>2038</ele>
        <time>2020-08-13T13:59:23.000Z</time>
      </trkpt>
      <trkpt lat="42.46737300418317317962646484375" lon="1.01208798587322235107421875">
        <ele>2037</ele>
        <time>2020-08-13T13:59:25.000Z</time>
      </trkpt>
      <trkpt lat="42.46739697642624378204345703125" lon="1.0121146403253078460693359375">
        <ele>2037.199951171875</ele>
        <time>2020-08-13T13:59:26.000Z</time>
      </trkpt>
      <trkpt lat="42.46750627644360065460205078125" lon="1.01215160451829433441162109375">
        <ele>2035.5999755859375</ele>
        <time>2020-08-13T13:59:30.000Z</time>
      </trkpt>
      <trkpt lat="42.46752890758216381072998046875" lon="1.01213785819709300994873046875">
        <ele>2035.4000244140625</ele>
        <time>2020-08-13T13:59:31.000Z</time>
      </trkpt>
      <trkpt lat="42.4675439111888408660888671875" lon="1.01211388595402240753173828125">
        <ele>2035</ele>
        <time>2020-08-13T13:59:32.000Z</time>
      </trkpt>
      <trkpt lat="42.4675516225397586822509765625" lon="1.01208304055035114288330078125">
        <ele>2034.800048828125</ele>
        <time>2020-08-13T13:59:33.000Z</time>
      </trkpt>
      <trkpt lat="42.46755271218717098236083984375" lon="1.0120497643947601318359375">
        <ele>2034.4000244140625</ele>
        <time>2020-08-13T13:59:34.000Z</time>
      </trkpt>
      <trkpt lat="42.4675348587334156036376953125" lon="1.0119855590164661407470703125">
        <ele>2033.5999755859375</ele>
        <time>2020-08-13T13:59:36.000Z</time>
      </trkpt>
      <trkpt lat="42.467516921460628509521484375" lon="1.0119577310979366302490234375">
        <ele>2033.199951171875</ele>
        <time>2020-08-13T13:59:37.000Z</time>
      </trkpt>
      <trkpt lat="42.46746889315545558929443359375" lon="1.011906601488590240478515625">
        <ele>2031.5999755859375</ele>
        <time>2020-08-13T13:59:39.000Z</time>
      </trkpt>
      <trkpt lat="42.46734702028334140777587890625" lon="1.0118165798485279083251953125">
        <ele>2031.199951171875</ele>
        <time>2020-08-13T13:59:43.000Z</time>
      </trkpt>
      <trkpt lat="42.4671348743140697479248046875" lon="1.01178246550261974334716796875">
        <ele>2031.199951171875</ele>
        <time>2020-08-13T13:59:49.000Z</time>
      </trkpt>
      <trkpt lat="42.46686304919421672821044921875" lon="1.0118648596107959747314453125">
        <ele>2030.5999755859375</ele>
        <time>2020-08-13T13:59:57.000Z</time>
      </trkpt>
      <trkpt lat="42.466781325638294219970703125" lon="1.01186980493366718292236328125">
        <ele>2028.800048828125</ele>
        <time>2020-08-13T13:59:59.000Z</time>
      </trkpt>
      <trkpt lat="42.46670060791075229644775390625" lon="1.01187148131430149078369140625">
        <ele>2027.5999755859375</ele>
        <time>2020-08-13T14:00:01.000Z</time>
      </trkpt>
      <trkpt lat="42.46662500314414501190185546875" lon="1.0118826292455196380615234375">
        <ele>2026.5999755859375</ele>
        <time>2020-08-13T14:00:03.000Z</time>
      </trkpt>
      <trkpt lat="42.46658720076084136962890625" lon="1.0118861496448516845703125">
        <ele>2025.199951171875</ele>
        <time>2020-08-13T14:00:04.000Z</time>
      </trkpt>
      <trkpt lat="42.4665206484496593475341796875" lon="1.0118765942752361297607421875">
        <ele>2023.800048828125</ele>
        <time>2020-08-13T14:00:06.000Z</time>
      </trkpt>
      <trkpt lat="42.46647077612578868865966796875" lon="1.011844240128993988037109375">
        <ele>2023.4000244140625</ele>
        <time>2020-08-13T14:00:08.000Z</time>
      </trkpt>
      <trkpt lat="42.4664545990526676177978515625" lon="1.011819429695606231689453125">
        <ele>2023</ele>
        <time>2020-08-13T14:00:09.000Z</time>
      </trkpt>
      <trkpt lat="42.46645518578588962554931640625" lon="1.0117595829069614410400390625">
        <ele>2022.800048828125</ele>
        <time>2020-08-13T14:00:11.000Z</time>
      </trkpt>
      <trkpt lat="42.4664911441504955291748046875" lon="1.01172178052365779876708984375">
        <ele>2021.5999755859375</ele>
        <time>2020-08-13T14:00:13.000Z</time>
      </trkpt>
      <trkpt lat="42.466541938483715057373046875" lon="1.01171138696372509002685546875">
        <ele>2021.199951171875</ele>
        <time>2020-08-13T14:00:15.000Z</time>
      </trkpt>
      <trkpt lat="42.4665706045925617218017578125" lon="1.01170920766890048980712890625">
        <ele>2021</ele>
        <time>2020-08-13T14:00:16.000Z</time>
      </trkpt>
      <trkpt lat="42.46663673780858516693115234375" lon="1.01170442998409271240234375">
        <ele>2020.4000244140625</ele>
        <time>2020-08-13T14:00:18.000Z</time>
      </trkpt>
      <trkpt lat="42.46674452908337116241455078125" lon="1.01168137975037097930908203125">
        <ele>2019.199951171875</ele>
        <time>2020-08-13T14:00:21.000Z</time>
      </trkpt>
      <trkpt lat="42.466973103582859039306640625" lon="1.01153050549328327178955078125">
        <ele>2018.199951171875</ele>
        <time>2020-08-13T14:00:27.000Z</time>
      </trkpt>
      <trkpt lat="42.46701107360422611236572265625" lon="1.01149731315672397613525390625">
        <ele>2017.5999755859375</ele>
        <time>2020-08-13T14:00:28.000Z</time>
      </trkpt>
      <trkpt lat="42.46704594232141971588134765625" lon="1.01146169006824493408203125">
        <ele>2016.800048828125</ele>
        <time>2020-08-13T14:00:29.000Z</time>
      </trkpt>
      <trkpt lat="42.46707804501056671142578125" lon="1.011423133313655853271484375">
        <ele>2016.5999755859375</ele>
        <time>2020-08-13T14:00:30.000Z</time>
      </trkpt>
      <trkpt lat="42.4671385623514652252197265625" lon="1.01134744472801685333251953125">
        <ele>2014.800048828125</ele>
        <time>2020-08-13T14:00:32.000Z</time>
      </trkpt>
      <trkpt lat="42.46719203889369964599609375" lon="1.01128005422651767730712890625">
        <ele>2013.199951171875</ele>
        <time>2020-08-13T14:00:34.000Z</time>
      </trkpt>
      <trkpt lat="42.4673595093190670013427734375" lon="1.01109263487160205841064453125">
        <ele>2011.800048828125</ele>
        <time>2020-08-13T14:00:40.000Z</time>
      </trkpt>
      <trkpt lat="42.4675144068896770477294921875" lon="1.01102390326559543609619140625">
        <ele>2011.199951171875</ele>
        <time>2020-08-13T14:00:45.000Z</time>
      </trkpt>
      <trkpt lat="42.4675856530666351318359375" lon="1.01102943532168865203857421875">
        <ele>2010.5999755859375</ele>
        <time>2020-08-13T14:00:47.000Z</time>
      </trkpt>
      <trkpt lat="42.467689253389835357666015625" lon="1.011069081723690032958984375">
        <ele>2009.4000244140625</ele>
        <time>2020-08-13T14:00:50.000Z</time>
      </trkpt>
      <trkpt lat="42.46780785731971263885498046875" lon="1.0111912898719310760498046875">
        <ele>2007.800048828125</ele>
        <time>2020-08-13T14:00:54.000Z</time>
      </trkpt>
      <trkpt lat="42.46786451898515224456787109375" lon="1.01126714609563350677490234375">
        <ele>2006.4000244140625</ele>
        <time>2020-08-13T14:00:56.000Z</time>
      </trkpt>
      <trkpt lat="42.4679586477577686309814453125" lon="1.0113765299320220947265625">
        <ele>2005.199951171875</ele>
        <time>2020-08-13T14:00:59.000Z</time>
      </trkpt>
      <trkpt lat="42.4679975397884845733642578125" lon="1.01140729151666164398193359375">
        <ele>2004</ele>
        <time>2020-08-13T14:01:00.000Z</time>
      </trkpt>
      <trkpt lat="42.46807121671736240386962890625" lon="1.011449284851551055908203125">
        <ele>2003.199951171875</ele>
        <time>2020-08-13T14:01:02.000Z</time>
      </trkpt>
      <trkpt lat="42.46810608543455600738525390625" lon="1.01146428845822811126708984375">
        <ele>2002.4000244140625</ele>
        <time>2020-08-13T14:01:03.000Z</time>
      </trkpt>
      <trkpt lat="42.468141205608844757080078125" lon="1.01148222573101520538330078125">
        <ele>2001.800048828125</ele>
        <time>2020-08-13T14:01:04.000Z</time>
      </trkpt>
      <trkpt lat="42.46817632578313350677490234375" lon="1.011507622897624969482421875">
        <ele>2001.4000244140625</ele>
        <time>2020-08-13T14:01:05.000Z</time>
      </trkpt>
      <trkpt lat="42.46821002103388309478759765625" lon="1.011541821062564849853515625">
        <ele>2000.5999755859375</ele>
        <time>2020-08-13T14:01:06.000Z</time>
      </trkpt>
      <trkpt lat="42.4682416208088397979736328125" lon="1.01158230565488338470458984375">
        <ele>1999.800048828125</ele>
        <time>2020-08-13T14:01:07.000Z</time>
      </trkpt>
      <trkpt lat="42.46827338822185993194580078125" lon="1.0116264782845973968505859375">
        <ele>1999.199951171875</ele>
        <time>2020-08-13T14:01:08.000Z</time>
      </trkpt>
      <trkpt lat="42.4683442153036594390869140625" lon="1.01171038113534450531005859375">
        <ele>1997.800048828125</ele>
        <time>2020-08-13T14:01:10.000Z</time>
      </trkpt>
      <trkpt lat="42.46842191554605960845947265625" lon="1.0117815434932708740234375">
        <ele>1996.800048828125</ele>
        <time>2020-08-13T14:01:12.000Z</time>
      </trkpt>
      <trkpt lat="42.46846114285290241241455078125" lon="1.01181037724018096923828125">
        <ele>1996.4000244140625</ele>
        <time>2020-08-13T14:01:13.000Z</time>
      </trkpt>
      <trkpt lat="42.4686348997056484222412109375" lon="1.01192495785653591156005859375">
        <ele>1995.4000244140625</ele>
        <time>2020-08-13T14:01:18.000Z</time>
      </trkpt>
      <trkpt lat="42.4686640687286853790283203125" lon="1.011935770511627197265625">
        <ele>1995.199951171875</ele>
        <time>2020-08-13T14:01:19.000Z</time>
      </trkpt>
      <trkpt lat="42.4686908908188343048095703125" lon="1.0119339264929294586181640625">
        <ele>1994.800048828125</ele>
        <time>2020-08-13T14:01:20.000Z</time>
      </trkpt>
      <trkpt lat="42.4687287770211696624755859375" lon="1.01189545355737209320068359375">
        <ele>1994.199951171875</ele>
        <time>2020-08-13T14:01:22.000Z</time>
      </trkpt>
      <trkpt lat="42.4687140248715877532958984375" lon="1.01178330369293689727783203125">
        <ele>1993</ele>
        <time>2020-08-13T14:01:26.000Z</time>
      </trkpt>
      <trkpt lat="42.46867437846958637237548828125" lon="1.01174340583384037017822265625">
        <ele>1991.5999755859375</ele>
        <time>2020-08-13T14:01:28.000Z</time>
      </trkpt>
      <trkpt lat="42.46860422194004058837890625" lon="1.01169764064252376556396484375">
        <ele>1990.4000244140625</ele>
        <time>2020-08-13T14:01:31.000Z</time>
      </trkpt>
      <trkpt lat="42.46857916004955768585205078125" lon="1.0116801224648952484130859375">
        <ele>1990</ele>
        <time>2020-08-13T14:01:32.000Z</time>
      </trkpt>
      <trkpt lat="42.46853373013436794281005859375" lon="1.0116326808929443359375">
        <ele>1989.4000244140625</ele>
        <time>2020-08-13T14:01:34.000Z</time>
      </trkpt>
      <trkpt lat="42.46849366463720798492431640625" lon="1.011528074741363525390625">
        <ele>1988.5999755859375</ele>
        <time>2020-08-13T14:01:37.000Z</time>
      </trkpt>
      <trkpt lat="42.46847975067794322967529296875" lon="1.01144584827125072479248046875">
        <ele>1988</ele>
        <time>2020-08-13T14:01:39.000Z</time>
      </trkpt>
      <trkpt lat="42.46845066547393798828125" lon="1.01132900454103946685791015625">
        <ele>1986.5999755859375</ele>
        <time>2020-08-13T14:01:42.000Z</time>
      </trkpt>
      <trkpt lat="42.46842996217310428619384765625" lon="1.011270582675933837890625">
        <ele>1986</ele>
        <time>2020-08-13T14:01:44.000Z</time>
      </trkpt>
      <trkpt lat="42.4683554470539093017578125" lon="1.01115482859313488006591796875">
        <ele>1985.4000244140625</ele>
        <time>2020-08-13T14:01:48.000Z</time>
      </trkpt>
      <trkpt lat="42.4683044850826263427734375" lon="1.01109783165156841278076171875">
        <ele>1984.5999755859375</ele>
        <time>2020-08-13T14:01:50.000Z</time>
      </trkpt>
      <trkpt lat="42.4682500027120113372802734375" lon="1.0110363923013210296630859375">
        <ele>1983.4000244140625</ele>
        <time>2020-08-13T14:01:52.000Z</time>
      </trkpt>
      <trkpt lat="42.46819711290299892425537109375" lon="1.01098719052970409393310546875">
        <ele>1982.4000244140625</ele>
        <time>2020-08-13T14:01:54.000Z</time>
      </trkpt>
      <trkpt lat="42.46812033466994762420654296875" lon="1.01093069650232791900634765625">
        <ele>1981.5999755859375</ele>
        <time>2020-08-13T14:01:57.000Z</time>
      </trkpt>
      <trkpt lat="42.4680656008422374725341796875" lon="1.01088861934840679168701171875">
        <ele>1980.800048828125</ele>
        <time>2020-08-13T14:01:59.000Z</time>
      </trkpt>
      <trkpt lat="42.4679891578853130340576171875" lon="1.01080178283154964447021484375">
        <ele>1979.199951171875</ele>
        <time>2020-08-13T14:02:02.000Z</time>
      </trkpt>
      <trkpt lat="42.4679479189217090606689453125" lon="1.01073875091969966888427734375">
        <ele>1978.199951171875</ele>
        <time>2020-08-13T14:02:04.000Z</time>
      </trkpt>
      <trkpt lat="42.46778086759150028228759765625" lon="1.010505817830562591552734375">
        <ele>1977.4000244140625</ele>
        <time>2020-08-13T14:02:12.000Z</time>
      </trkpt>
      <trkpt lat="42.46768916957080364227294921875" lon="1.0104432888329029083251953125">
        <ele>1977</ele>
        <time>2020-08-13T14:02:16.000Z</time>
      </trkpt>
      <trkpt lat="42.46763552539050579071044921875" lon="1.01041370071470737457275390625">
        <ele>1976.5999755859375</ele>
        <time>2020-08-13T14:02:18.000Z</time>
      </trkpt>
      <trkpt lat="42.46753863058984279632568359375" lon="1.0103735513985157012939453125">
        <ele>1976</ele>
        <time>2020-08-13T14:02:21.000Z</time>
      </trkpt>
      <trkpt lat="42.467404939234256744384765625" lon="1.0103440470993518829345703125">
        <ele>1975.199951171875</ele>
        <time>2020-08-13T14:02:25.000Z</time>
      </trkpt>
      <trkpt lat="42.4673737585544586181640625" lon="1.01034379564225673675537109375">
        <ele>1974.5999755859375</ele>
        <time>2020-08-13T14:02:26.000Z</time>
      </trkpt>
      <trkpt lat="42.4673434160649776458740234375" lon="1.01034597493708133697509765625">
        <ele>1973.4000244140625</ele>
        <time>2020-08-13T14:02:27.000Z</time>
      </trkpt>
      <trkpt lat="42.467280887067317962646484375" lon="1.010356955230236053466796875">
        <ele>1971.800048828125</ele>
        <time>2020-08-13T14:02:29.000Z</time>
      </trkpt>
      <trkpt lat="42.46718323789536952972412109375" lon="1.01036676205694675445556640625">
        <ele>1970.5999755859375</ele>
        <time>2020-08-13T14:02:32.000Z</time>
      </trkpt>
      <trkpt lat="42.46706404723227024078369140625" lon="1.01037765853106975555419921875">
        <ele>1969</ele>
        <time>2020-08-13T14:02:35.000Z</time>
      </trkpt>
      <trkpt lat="42.46690629981458187103271484375" lon="1.0104282014071941375732421875">
        <ele>1967.800048828125</ele>
        <time>2020-08-13T14:02:39.000Z</time>
      </trkpt>
      <trkpt lat="42.46680085547268390655517578125" lon="1.0105153732001781463623046875">
        <ele>1967.4000244140625</ele>
        <time>2020-08-13T14:02:42.000Z</time>
      </trkpt>
      <trkpt lat="42.46673698537051677703857421875" lon="1.010542698204517364501953125">
        <ele>1967.4000244140625</ele>
        <time>2020-08-13T14:02:44.000Z</time>
      </trkpt>
      <trkpt lat="42.46666372753679752349853515625" lon="1.01050187833607196807861328125">
        <ele>1967.4000244140625</ele>
        <time>2020-08-13T14:02:48.000Z</time>
      </trkpt>
      <trkpt lat="42.46661343611776828765869140625" lon="1.01044421084225177764892578125">
        <ele>1967.5999755859375</ele>
        <time>2020-08-13T14:02:51.000Z</time>
      </trkpt>
      <trkpt lat="42.4665991030633449554443359375" lon="1.01042426191270351409912109375">
        <ele>1967.800048828125</ele>
        <time>2020-08-13T14:02:52.000Z</time>
      </trkpt>
      <trkpt lat="42.46657513082027435302734375" lon="1.010387800633907318115234375">
        <ele>1968</ele>
        <time>2020-08-13T14:02:54.000Z</time>
      </trkpt>
      <trkpt lat="42.46651520021259784698486328125" lon="1.0102875530719757080078125">
        <ele>1967.5999755859375</ele>
        <time>2020-08-13T14:03:00.000Z</time>
      </trkpt>
      <trkpt lat="42.4664542637765407562255859375" lon="1.0101043246686458587646484375">
        <ele>1967.4000244140625</ele>
        <time>2020-08-13T14:03:07.000Z</time>
      </trkpt>
      <trkpt lat="42.466415874660015106201171875" lon="1.010031737387180328369140625">
        <ele>1967</ele>
        <time>2020-08-13T14:03:10.000Z</time>
      </trkpt>
      <trkpt lat="42.466360889375209808349609375" lon="1.009956300258636474609375">
        <ele>1965.5999755859375</ele>
        <time>2020-08-13T14:03:13.000Z</time>
      </trkpt>
      <trkpt lat="42.46631629765033721923828125" lon="1.00989393889904022216796875">
        <ele>1964.5999755859375</ele>
        <time>2020-08-13T14:03:15.000Z</time>
      </trkpt>
      <trkpt lat="42.46625058352947235107421875" lon="1.0097928531467914581298828125">
        <ele>1963.4000244140625</ele>
        <time>2020-08-13T14:03:18.000Z</time>
      </trkpt>
      <trkpt lat="42.46619417332112789154052734375" lon="1.00971263833343982696533203125">
        <ele>1962.199951171875</ele>
        <time>2020-08-13T14:03:21.000Z</time>
      </trkpt>
      <trkpt lat="42.46616399846971035003662109375" lon="1.00966888479888439178466796875">
        <ele>1961.800048828125</ele>
        <time>2020-08-13T14:03:23.000Z</time>
      </trkpt>
      <trkpt lat="42.46612996794283390045166015625" lon="1.0096211917698383331298828125">
        <ele>1961</ele>
        <time>2020-08-13T14:03:25.000Z</time>
      </trkpt>
      <trkpt lat="42.46609124355018138885498046875" lon="1.00957198999822139739990234375">
        <ele>1959.5999755859375</ele>
        <time>2020-08-13T14:03:27.000Z</time>
      </trkpt>
      <trkpt lat="42.4660324864089488983154296875" lon="1.00949965417385101318359375">
        <ele>1958.4000244140625</ele>
        <time>2020-08-13T14:03:30.000Z</time>
      </trkpt>
      <trkpt lat="42.46601052582263946533203125" lon="1.00947593338787555694580078125">
        <ele>1958.199951171875</ele>
        <time>2020-08-13T14:03:31.000Z</time>
      </trkpt>
      <trkpt lat="42.46591086499392986297607421875" lon="1.00936965085566043853759765625">
        <ele>1957.199951171875</ele>
        <time>2020-08-13T14:03:35.000Z</time>
      </trkpt>
      <trkpt lat="42.46581212617456912994384765625" lon="1.0092771984636783599853515625">
        <ele>1956.5999755859375</ele>
        <time>2020-08-13T14:03:39.000Z</time>
      </trkpt>
      <trkpt lat="42.46578748337924480438232421875" lon="1.009262613952159881591796875">
        <ele>1956.199951171875</ele>
        <time>2020-08-13T14:03:40.000Z</time>
      </trkpt>
      <trkpt lat="42.46571506373584270477294921875" lon="1.0092269070446491241455078125">
        <ele>1954.800048828125</ele>
        <time>2020-08-13T14:03:43.000Z</time>
      </trkpt>
      <trkpt lat="42.4656345136463642120361328125" lon="1.009223721921443939208984375">
        <ele>1953.4000244140625</ele>
        <time>2020-08-13T14:03:46.000Z</time>
      </trkpt>
      <trkpt lat="42.46556687168776988983154296875" lon="1.0092436708509922027587890625">
        <ele>1952.5999755859375</ele>
        <time>2020-08-13T14:03:50.000Z</time>
      </trkpt>
      <trkpt lat="42.4655671231448650360107421875" lon="1.009243838489055633544921875">
        <ele>1952.4000244140625</ele>
        <time>2020-08-13T14:03:51.000Z</time>
      </trkpt>
      <trkpt lat="42.46557106263935565948486328125" lon="1.0092446766793727874755859375">
        <ele>1952.199951171875</ele>
        <time>2020-08-13T14:04:20.000Z</time>
      </trkpt>
      <trkpt lat="42.46553267352283000946044921875" lon="1.0092723369598388671875">
        <ele>1952.199951171875</ele>
        <time>2020-08-13T14:04:30.000Z</time>
      </trkpt>
      <trkpt lat="42.465453632175922393798828125" lon="1.0093405656516551971435546875">
        <ele>1951</ele>
        <time>2020-08-13T14:04:34.000Z</time>
      </trkpt>
      <trkpt lat="42.465401999652385711669921875" lon="1.0093794576823711395263671875">
        <ele>1950.199951171875</ele>
        <time>2020-08-13T14:04:36.000Z</time>
      </trkpt>
      <trkpt lat="42.4653755128383636474609375" lon="1.009396053850650787353515625">
        <ele>1950</ele>
        <time>2020-08-13T14:04:37.000Z</time>
      </trkpt>
      <trkpt lat="42.46526931412518024444580078125" lon="1.00946771912276744842529296875">
        <ele>1948.800048828125</ele>
        <time>2020-08-13T14:04:41.000Z</time>
      </trkpt>
      <trkpt lat="42.465211562812328338623046875" lon="1.00951700471341609954833984375">
        <ele>1947.5999755859375</ele>
        <time>2020-08-13T14:04:43.000Z</time>
      </trkpt>
      <trkpt lat="42.465093545615673065185546875" lon="1.009726636111736297607421875">
        <ele>1947.5999755859375</ele>
        <time>2020-08-13T14:04:48.000Z</time>
      </trkpt>
      <trkpt lat="42.464980222284793853759765625" lon="1.0098498500883579254150390625">
        <ele>1947.199951171875</ele>
        <time>2020-08-13T14:04:52.000Z</time>
      </trkpt>
      <trkpt lat="42.4649240635335445404052734375" lon="1.0098542086780071258544921875">
        <ele>1946.5999755859375</ele>
        <time>2020-08-13T14:04:54.000Z</time>
      </trkpt>
      <trkpt lat="42.46487251482903957366943359375" lon="1.00983920507133007049560546875">
        <ele>1946.5999755859375</ele>
        <time>2020-08-13T14:04:56.000Z</time>
      </trkpt>
      <trkpt lat="42.464728094637393951416015625" lon="1.00977466441690921783447265625">
        <ele>1945.5999755859375</ele>
        <time>2020-08-13T14:05:01.000Z</time>
      </trkpt>
      <trkpt lat="42.46469884179532527923583984375" lon="1.00976611487567424774169921875">
        <ele>1945.199951171875</ele>
        <time>2020-08-13T14:05:02.000Z</time>
      </trkpt>
      <trkpt lat="42.46460429392755031585693359375" lon="1.00974918343126773834228515625">
        <ele>1944.4000244140625</ele>
        <time>2020-08-13T14:05:05.000Z</time>
      </trkpt>
      <trkpt lat="42.464497424662113189697265625" lon="1.0097509436309337615966796875">
        <ele>1943.5999755859375</ele>
        <time>2020-08-13T14:05:08.000Z</time>
      </trkpt>
      <trkpt lat="42.46445995755493640899658203125" lon="1.00975572131574153900146484375">
        <ele>1943.4000244140625</ele>
        <time>2020-08-13T14:05:09.000Z</time>
      </trkpt>
      <trkpt lat="42.4642810039222240447998046875" lon="1.0097620077431201934814453125">
        <ele>1943</ele>
        <time>2020-08-13T14:05:14.000Z</time>
      </trkpt>
      <trkpt lat="42.46421604417264461517333984375" lon="1.009755469858646392822265625">
        <ele>1942.4000244140625</ele>
        <time>2020-08-13T14:05:16.000Z</time>
      </trkpt>
      <trkpt lat="42.46408344246447086334228515625" lon="1.00976209156215190887451171875">
        <ele>1941.199951171875</ele>
        <time>2020-08-13T14:05:20.000Z</time>
      </trkpt>
      <trkpt lat="42.46401739306747913360595703125" lon="1.0097713954746723175048828125">
        <ele>1940.199951171875</ele>
        <time>2020-08-13T14:05:22.000Z</time>
      </trkpt>
      <trkpt lat="42.46385746635496616363525390625" lon="1.0098002292215824127197265625">
        <ele>1939.199951171875</ele>
        <time>2020-08-13T14:05:27.000Z</time>
      </trkpt>
      <trkpt lat="42.4638055823743343353271484375" lon="1.00981389172375202178955078125">
        <ele>1939.199951171875</ele>
        <time>2020-08-13T14:05:29.000Z</time>
      </trkpt>
      <trkpt lat="42.4637529440224170684814453125" lon="1.00984021089971065521240234375">
        <ele>1938.199951171875</ele>
        <time>2020-08-13T14:05:31.000Z</time>
      </trkpt>
      <trkpt lat="42.4636535346508026123046875" lon="1.009911708533763885498046875">
        <ele>1936.800048828125</ele>
        <time>2020-08-13T14:05:35.000Z</time>
      </trkpt>
      <trkpt lat="42.46362998150289058685302734375" lon="1.00993123836815357208251953125">
        <ele>1936.800048828125</ele>
        <time>2020-08-13T14:05:36.000Z</time>
      </trkpt>
      <trkpt lat="42.463471479713916778564453125" lon="1.01006434299051761627197265625">
        <ele>1935.5999755859375</ele>
        <time>2020-08-13T14:05:42.000Z</time>
      </trkpt>
      <trkpt lat="42.4634201824665069580078125" lon="1.010108850896358489990234375">
        <ele>1934.800048828125</ele>
        <time>2020-08-13T14:05:44.000Z</time>
      </trkpt>
      <trkpt lat="42.463394366204738616943359375" lon="1.0101324878633022308349609375">
        <ele>1934.4000244140625</ele>
        <time>2020-08-13T14:05:45.000Z</time>
      </trkpt>
      <trkpt lat="42.463268302381038665771484375" lon="1.01029735989868640899658203125">
        <ele>1933.4000244140625</ele>
        <time>2020-08-13T14:05:50.000Z</time>
      </trkpt>
      <trkpt lat="42.463249862194061279296875" lon="1.0103331506252288818359375">
        <ele>1933.4000244140625</ele>
        <time>2020-08-13T14:05:51.000Z</time>
      </trkpt>
      <trkpt lat="42.4631722457706928253173828125" lon="1.01055921055376529693603515625">
        <ele>1932.199951171875</ele>
        <time>2020-08-13T14:05:57.000Z</time>
      </trkpt>
      <trkpt lat="42.463169395923614501953125" lon="1.0108003579080104827880859375">
        <ele>1931.199951171875</ele>
        <time>2020-08-13T14:06:03.000Z</time>
      </trkpt>
      <trkpt lat="42.46312446892261505126953125" lon="1.01090907119214534759521484375">
        <ele>1929.800048828125</ele>
        <time>2020-08-13T14:06:06.000Z</time>
      </trkpt>
      <trkpt lat="42.4630954675376415252685546875" lon="1.01092047058045864105224609375">
        <ele>1929.5999755859375</ele>
        <time>2020-08-13T14:06:07.000Z</time>
      </trkpt>
      <trkpt lat="42.46303503401577472686767578125" lon="1.01086028851568698883056640625">
        <ele>1929.199951171875</ele>
        <time>2020-08-13T14:06:10.000Z</time>
      </trkpt>
      <trkpt lat="42.4630331061780452728271484375" lon="1.01078669540584087371826171875">
        <ele>1928.4000244140625</ele>
        <time>2020-08-13T14:06:12.000Z</time>
      </trkpt>
      <trkpt lat="42.4630321003496646881103515625" lon="1.01075333543121814727783203125">
        <ele>1927.199951171875</ele>
        <time>2020-08-13T14:06:13.000Z</time>
      </trkpt>
      <trkpt lat="42.4630334414541721343994140625" lon="1.01067655719816684722900390625">
        <ele>1926</ele>
        <time>2020-08-13T14:06:15.000Z</time>
      </trkpt>
      <trkpt lat="42.4630408175289630889892578125" lon="1.010540015995502471923828125">
        <ele>1925</ele>
        <time>2020-08-13T14:06:18.000Z</time>
      </trkpt>
      <trkpt lat="42.4630626104772090911865234375" lon="1.01035318337380886077880859375">
        <ele>1924</ele>
        <time>2020-08-13T14:06:22.000Z</time>
      </trkpt>
      <trkpt lat="42.46307074092328548431396484375" lon="1.0103075020015239715576171875">
        <ele>1923.5999755859375</ele>
        <time>2020-08-13T14:06:23.000Z</time>
      </trkpt>
      <trkpt lat="42.4631212837994098663330078125" lon="1.01012569852173328399658203125">
        <ele>1922.800048828125</ele>
        <time>2020-08-13T14:06:27.000Z</time>
      </trkpt>
      <trkpt lat="42.4631387181580066680908203125" lon="1.0100828669965267181396484375">
        <ele>1922.4000244140625</ele>
        <time>2020-08-13T14:06:28.000Z</time>
      </trkpt>
      <trkpt lat="42.46326436288654804229736328125" lon="1.00978321395814418792724609375">
        <ele>1921.5999755859375</ele>
        <time>2020-08-13T14:06:35.000Z</time>
      </trkpt>
      <trkpt lat="42.46328540146350860595703125" lon="1.0097371973097324371337890625">
        <ele>1921.5999755859375</ele>
        <time>2020-08-13T14:06:36.000Z</time>
      </trkpt>
      <trkpt lat="42.46335203759372234344482421875" lon="1.00959411822259426116943359375">
        <ele>1920.4000244140625</ele>
        <time>2020-08-13T14:06:39.000Z</time>
      </trkpt>
      <trkpt lat="42.46337793767452239990234375" lon="1.0095460899174213409423828125">
        <ele>1920.199951171875</ele>
        <time>2020-08-13T14:06:40.000Z</time>
      </trkpt>
      <trkpt lat="42.463407106697559356689453125" lon="1.009500324726104736328125">
        <ele>1918.5999755859375</ele>
        <time>2020-08-13T14:06:41.000Z</time>
      </trkpt>
      <trkpt lat="42.46346586383879184722900390625" lon="1.00941248238086700439453125">
        <ele>1917.800048828125</ele>
        <time>2020-08-13T14:06:43.000Z</time>
      </trkpt>
      <trkpt lat="42.46349402703344821929931640625" lon="1.009369231760501861572265625">
        <ele>1917.5999755859375</ele>
        <time>2020-08-13T14:06:44.000Z</time>
      </trkpt>
      <trkpt lat="42.46357776224613189697265625" lon="1.0092188604176044464111328125">
        <ele>1917</ele>
        <time>2020-08-13T14:06:47.000Z</time>
      </trkpt>
      <trkpt lat="42.4636010639369487762451171875" lon="1.00916169583797454833984375">
        <ele>1916.4000244140625</ele>
        <time>2020-08-13T14:06:48.000Z</time>
      </trkpt>
      <trkpt lat="42.46362335979938507080078125" lon="1.00910075940191745758056640625">
        <ele>1915.5999755859375</ele>
        <time>2020-08-13T14:06:49.000Z</time>
      </trkpt>
      <trkpt lat="42.4636456556618213653564453125" lon="1.0090371407568454742431640625">
        <ele>1914.800048828125</ele>
        <time>2020-08-13T14:06:50.000Z</time>
      </trkpt>
      <trkpt lat="42.46369083411991596221923828125" lon="1.008905209600925445556640625">
        <ele>1913.4000244140625</ele>
        <time>2020-08-13T14:06:52.000Z</time>
      </trkpt>
      <trkpt lat="42.46374414302408695220947265625" lon="1.008722148835659027099609375">
        <ele>1911.800048828125</ele>
        <time>2020-08-13T14:06:55.000Z</time>
      </trkpt>
      <trkpt lat="42.4637635052204132080078125" lon="1.0086701810359954833984375">
        <ele>1911</ele>
        <time>2020-08-13T14:06:56.000Z</time>
      </trkpt>
      <trkpt lat="42.46378538198769092559814453125" lon="1.0086219012737274169921875">
        <ele>1910.5999755859375</ele>
        <time>2020-08-13T14:06:57.000Z</time>
      </trkpt>
      <trkpt lat="42.4639001302421092987060546875" lon="1.0084849409759044647216796875">
        <ele>1910.199951171875</ele>
        <time>2020-08-13T14:07:01.000Z</time>
      </trkpt>
      <trkpt lat="42.46401269920170307159423828125" lon="1.00845384411513805389404296875">
        <ele>1910.5999755859375</ele>
        <time>2020-08-13T14:07:04.000Z</time>
      </trkpt>
      <trkpt lat="42.46409953571856021881103515625" lon="1.00844445638358592987060546875">
        <ele>1909.4000244140625</ele>
        <time>2020-08-13T14:07:06.000Z</time>
      </trkpt>
      <trkpt lat="42.464195005595684051513671875" lon="1.0084314644336700439453125">
        <ele>1908.199951171875</ele>
        <time>2020-08-13T14:07:08.000Z</time>
      </trkpt>
      <trkpt lat="42.46439239941537380218505859375" lon="1.00841595791280269622802734375">
        <ele>1906.5999755859375</ele>
        <time>2020-08-13T14:07:12.000Z</time>
      </trkpt>
      <trkpt lat="42.46443866752088069915771484375" lon="1.0084225796163082122802734375">
        <ele>1906</ele>
        <time>2020-08-13T14:07:13.000Z</time>
      </trkpt>
      <trkpt lat="42.4644823372364044189453125" lon="1.00843791849911212921142578125">
        <ele>1905.4000244140625</ele>
        <time>2020-08-13T14:07:14.000Z</time>
      </trkpt>
      <trkpt lat="42.46458669193089008331298828125" lon="1.00854612886905670166015625">
        <ele>1904.199951171875</ele>
        <time>2020-08-13T14:07:17.000Z</time>
      </trkpt>
      <trkpt lat="42.464613430202007293701171875" lon="1.00859298370778560638427734375">
        <ele>1904</ele>
        <time>2020-08-13T14:07:18.000Z</time>
      </trkpt>
      <trkpt lat="42.46464134193956851959228515625" lon="1.00863606669008731842041015625">
        <ele>1904</ele>
        <time>2020-08-13T14:07:19.000Z</time>
      </trkpt>
      <trkpt lat="42.4647049605846405029296875" lon="1.00867621600627899169921875">
        <ele>1904</ele>
        <time>2020-08-13T14:07:21.000Z</time>
      </trkpt>
      <trkpt lat="42.46476438827812671661376953125" lon="1.008612848818302154541015625">
        <ele>1903.199951171875</ele>
        <time>2020-08-13T14:07:24.000Z</time>
      </trkpt>
      <trkpt lat="42.46475148014724254608154296875" lon="1.00855124182999134063720703125">
        <ele>1902</ele>
        <time>2020-08-13T14:07:26.000Z</time>
      </trkpt>
      <trkpt lat="42.46471862308681011199951171875" lon="1.00849784910678863525390625">
        <ele>1901</ele>
        <time>2020-08-13T14:07:28.000Z</time>
      </trkpt>
      <trkpt lat="42.46467436663806438446044921875" lon="1.00844730623066425323486328125">
        <ele>1900.5999755859375</ele>
        <time>2020-08-13T14:07:30.000Z</time>
      </trkpt>
      <trkpt lat="42.46463145129382610321044921875" lon="1.00838846527040004730224609375">
        <ele>1899.4000244140625</ele>
        <time>2020-08-13T14:07:32.000Z</time>
      </trkpt>
      <trkpt lat="42.46460144408047199249267578125" lon="1.008318476378917694091796875">
        <ele>1898.4000244140625</ele>
        <time>2020-08-13T14:07:34.000Z</time>
      </trkpt>
      <trkpt lat="42.4645681679248809814453125" lon="1.0081432946026325225830078125">
        <ele>1897.4000244140625</ele>
        <time>2020-08-13T14:07:38.000Z</time>
      </trkpt>
      <trkpt lat="42.46456481516361236572265625" lon="1.00808856077492237091064453125">
        <ele>1897.4000244140625</ele>
        <time>2020-08-13T14:07:39.000Z</time>
      </trkpt>
      <trkpt lat="42.46455199085175991058349609375" lon="1.00790717639029026031494140625">
        <ele>1896.199951171875</ele>
        <time>2020-08-13T14:07:42.000Z</time>
      </trkpt>
      <trkpt lat="42.46452801860868930816650390625" lon="1.0077191703021526336669921875">
        <ele>1894.199951171875</ele>
        <time>2020-08-13T14:07:45.000Z</time>
      </trkpt>
      <trkpt lat="42.46451209299266338348388671875" lon="1.00759821943938732147216796875">
        <ele>1893.199951171875</ele>
        <time>2020-08-13T14:07:47.000Z</time>
      </trkpt>
      <trkpt lat="42.464487366378307342529296875" lon="1.00745312869548797607421875">
        <ele>1892</ele>
        <time>2020-08-13T14:07:50.000Z</time>
      </trkpt>
      <trkpt lat="42.4644804932177066802978515625" lon="1.007407195866107940673828125">
        <ele>1890.800048828125</ele>
        <time>2020-08-13T14:07:51.000Z</time>
      </trkpt>
      <trkpt lat="42.46446666307747364044189453125" lon="1.00727769546210765838623046875">
        <ele>1889.199951171875</ele>
        <time>2020-08-13T14:07:54.000Z</time>
      </trkpt>
      <trkpt lat="42.464456520974636077880859375" lon="1.00718365050852298736572265625">
        <ele>1888</ele>
        <time>2020-08-13T14:07:56.000Z</time>
      </trkpt>
      <trkpt lat="42.464447133243083953857421875" lon="1.007137298583984375">
        <ele>1887.800048828125</ele>
        <time>2020-08-13T14:07:57.000Z</time>
      </trkpt>
      <trkpt lat="42.4643664993345737457275390625" lon="1.0069202072918415069580078125">
        <ele>1887</ele>
        <time>2020-08-13T14:08:02.000Z</time>
      </trkpt>
      <trkpt lat="42.46434512548148632049560546875" lon="1.00688986480236053466796875">
        <ele>1886.800048828125</ele>
        <time>2020-08-13T14:08:03.000Z</time>
      </trkpt>
      <trkpt lat="42.4642816744744777679443359375" lon="1.00683261640369892120361328125">
        <ele>1885.5999755859375</ele>
        <time>2020-08-13T14:08:06.000Z</time>
      </trkpt>
      <trkpt lat="42.46423029340803623199462890625" lon="1.00680495612323284149169921875">
        <ele>1885</ele>
        <time>2020-08-13T14:08:08.000Z</time>
      </trkpt>
      <trkpt lat="42.4641416966915130615234375" lon="1.006773523986339569091796875">
        <ele>1884.4000244140625</ele>
        <time>2020-08-13T14:08:11.000Z</time>
      </trkpt>
      <trkpt lat="42.4640560336410999298095703125" lon="1.0067492164671421051025390625">
        <ele>1883.199951171875</ele>
        <time>2020-08-13T14:08:14.000Z</time>
      </trkpt>
      <trkpt lat="42.4640075862407684326171875" lon="1.0067416727542877197265625">
        <ele>1882.4000244140625</ele>
        <time>2020-08-13T14:08:16.000Z</time>
      </trkpt>
      <trkpt lat="42.46396190486848354339599609375" lon="1.006733961403369903564453125">
        <ele>1881.800048828125</ele>
        <time>2020-08-13T14:08:18.000Z</time>
      </trkpt>
      <trkpt lat="42.4638622440397739410400390625" lon="1.00672147236764430999755859375">
        <ele>1880.5999755859375</ele>
        <time>2020-08-13T14:08:22.000Z</time>
      </trkpt>
      <trkpt lat="42.46377280913293361663818359375" lon="1.0067126713693141937255859375">
        <ele>1879.4000244140625</ele>
        <time>2020-08-13T14:08:25.000Z</time>
      </trkpt>
      <trkpt lat="42.4636454880237579345703125" lon="1.006709150969982147216796875">
        <ele>1878.5999755859375</ele>
        <time>2020-08-13T14:08:29.000Z</time>
      </trkpt>
      <trkpt lat="42.46355119161307811737060546875" lon="1.006708480417728424072265625">
        <ele>1877.4000244140625</ele>
        <time>2020-08-13T14:08:32.000Z</time>
      </trkpt>
      <trkpt lat="42.46351598761975765228271484375" lon="1.00671024061739444732666015625">
        <ele>1877</ele>
        <time>2020-08-13T14:08:33.000Z</time>
      </trkpt>
      <trkpt lat="42.4633705615997314453125" lon="1.00671711377799510955810546875">
        <ele>1876</ele>
        <time>2020-08-13T14:08:37.000Z</time>
      </trkpt>
      <trkpt lat="42.46326184831559658050537109375" lon="1.006720550358295440673828125">
        <ele>1874.5999755859375</ele>
        <time>2020-08-13T14:08:40.000Z</time>
      </trkpt>
      <trkpt lat="42.463158667087554931640625" lon="1.0067207179963588714599609375">
        <ele>1873.5999755859375</ele>
        <time>2020-08-13T14:08:43.000Z</time>
      </trkpt>
      <trkpt lat="42.46304961852729320526123046875" lon="1.00671728141605854034423828125">
        <ele>1872.4000244140625</ele>
        <time>2020-08-13T14:08:46.000Z</time>
      </trkpt>
      <trkpt lat="42.4628513865172863006591796875" lon="1.00671074353158473968505859375">
        <ele>1871.199951171875</ele>
        <time>2020-08-13T14:08:51.000Z</time>
      </trkpt>
      <trkpt lat="42.46266958303749561309814453125" lon="1.00672490894794464111328125">
        <ele>1870.800048828125</ele>
        <time>2020-08-13T14:08:56.000Z</time>
      </trkpt>
      <trkpt lat="42.46259598992764949798583984375" lon="1.00674661807715892791748046875">
        <ele>1870</ele>
        <time>2020-08-13T14:08:58.000Z</time>
      </trkpt>
      <trkpt lat="42.46248543262481689453125" lon="1.006790287792682647705078125">
        <ele>1869</ele>
        <time>2020-08-13T14:09:01.000Z</time>
      </trkpt>
      <trkpt lat="42.4624557606875896453857421875" lon="1.00680830888450145721435546875">
        <ele>1869</ele>
        <time>2020-08-13T14:09:02.000Z</time>
      </trkpt>
      <trkpt lat="42.46227395720779895782470703125" lon="1.00696421228349208831787109375">
        <ele>1869</ele>
        <time>2020-08-13T14:09:10.000Z</time>
      </trkpt>
      <trkpt lat="42.46217823587357997894287109375" lon="1.0071480274200439453125">
        <ele>1868.199951171875</ele>
        <time>2020-08-13T14:09:16.000Z</time>
      </trkpt>
      <trkpt lat="42.4621774815022945404052734375" lon="1.00718901492655277252197265625">
        <ele>1868</ele>
        <time>2020-08-13T14:09:17.000Z</time>
      </trkpt>
      <trkpt lat="42.46217873878777027130126953125" lon="1.0072861611843109130859375">
        <ele>1867</ele>
        <time>2020-08-13T14:09:19.000Z</time>
      </trkpt>
      <trkpt lat="42.46218309737741947174072265625" lon="1.0073959641158580780029296875">
        <ele>1865.5999755859375</ele>
        <time>2020-08-13T14:09:21.000Z</time>
      </trkpt>
      <trkpt lat="42.462228275835514068603515625" lon="1.00765136070549488067626953125">
        <ele>1864.5999755859375</ele>
        <time>2020-08-13T14:09:26.000Z</time>
      </trkpt>
      <trkpt lat="42.4622373282909393310546875" lon="1.00774037651717662811279296875">
        <ele>1864.5999755859375</ele>
        <time>2020-08-13T14:09:28.000Z</time>
      </trkpt>
      <trkpt lat="42.46222701855003833770751953125" lon="1.0077805258333683013916015625">
        <ele>1864.4000244140625</ele>
        <time>2020-08-13T14:09:29.000Z</time>
      </trkpt>
      <trkpt lat="42.46217605657875537872314453125" lon="1.00781648419797420501708984375">
        <ele>1863.800048828125</ele>
        <time>2020-08-13T14:09:31.000Z</time>
      </trkpt>
      <trkpt lat="42.4621211551129817962646484375" lon="1.00777876563370227813720703125">
        <ele>1863.199951171875</ele>
        <time>2020-08-13T14:09:33.000Z</time>
      </trkpt>
      <trkpt lat="42.46210447512567043304443359375" lon="1.0077392868697643280029296875">
        <ele>1863</ele>
        <time>2020-08-13T14:09:34.000Z</time>
      </trkpt>
      <trkpt lat="42.46209173463284969329833984375" lon="1.007692851126194000244140625">
        <ele>1862.800048828125</ele>
        <time>2020-08-13T14:09:35.000Z</time>
      </trkpt>
      <trkpt lat="42.46202970854938030242919921875" lon="1.00742773152887821197509765625">
        <ele>1862.4000244140625</ele>
        <time>2020-08-13T14:09:41.000Z</time>
      </trkpt>
      <trkpt lat="42.4620168842375278472900390625" lon="1.00738867186009883880615234375">
        <ele>1862</ele>
        <time>2020-08-13T14:09:42.000Z</time>
      </trkpt>
      <trkpt lat="42.461996935307979583740234375" lon="1.00735715590417385101318359375">
        <ele>1861.5999755859375</ele>
        <time>2020-08-13T14:09:43.000Z</time>
      </trkpt>
      <trkpt lat="42.46197111904621124267578125" lon="1.007342152297496795654296875">
        <ele>1861.4000244140625</ele>
        <time>2020-08-13T14:09:44.000Z</time>
      </trkpt>
      <trkpt lat="42.4619156308472156524658203125" lon="1.00735698826611042022705078125">
        <ele>1860.800048828125</ele>
        <time>2020-08-13T14:09:46.000Z</time>
      </trkpt>
      <trkpt lat="42.46189459227025508880615234375" lon="1.0073840618133544921875">
        <ele>1860.800048828125</ele>
        <time>2020-08-13T14:09:47.000Z</time>
      </trkpt>
      <trkpt lat="42.4618760682642459869384765625" lon="1.00752345286309719085693359375">
        <ele>1860.4000244140625</ele>
        <time>2020-08-13T14:09:51.000Z</time>
      </trkpt>
      <trkpt lat="42.46187900193035602569580078125" lon="1.007558405399322509765625">
        <ele>1860.199951171875</ele>
        <time>2020-08-13T14:09:52.000Z</time>
      </trkpt>
      <trkpt lat="42.46190314181149005889892578125" lon="1.007674075663089752197265625">
        <ele>1859.800048828125</ele>
        <time>2020-08-13T14:09:55.000Z</time>
      </trkpt>
      <trkpt lat="42.4619293771684169769287109375" lon="1.00774238817393779754638671875">
        <ele>1859.5999755859375</ele>
        <time>2020-08-13T14:09:57.000Z</time>
      </trkpt>
      <trkpt lat="42.461941279470920562744140625" lon="1.0077862255275249481201171875">
        <ele>1859</ele>
        <time>2020-08-13T14:10:01.000Z</time>
      </trkpt>
      <trkpt lat="42.46194086037576198577880859375" lon="1.0077858902513980865478515625">
        <ele>1858.800048828125</ele>
        <time>2020-08-13T14:10:02.000Z</time>
      </trkpt>
      <trkpt lat="42.46195075102150440216064453125" lon="1.007828973233699798583984375">
        <ele>1858.800048828125</ele>
        <time>2020-08-13T14:10:17.000Z</time>
      </trkpt>
      <trkpt lat="42.4619873799383640289306640625" lon="1.007963083684444427490234375">
        <ele>1858.5999755859375</ele>
        <time>2020-08-13T14:10:24.000Z</time>
      </trkpt>
      <trkpt lat="42.46200640685856342315673828125" lon="1.00803357549011707305908203125">
        <ele>1857.800048828125</ele>
        <time>2020-08-13T14:10:29.000Z</time>
      </trkpt>
      <trkpt lat="42.4620125256478786468505859375" lon="1.00804992020130157470703125">
        <ele>1858</ele>
        <time>2020-08-13T14:10:32.000Z</time>
      </trkpt>
      <trkpt lat="42.462013028562068939208984375" lon="1.00805033929646015167236328125">
        <ele>1858</ele>
        <time>2020-08-13T14:10:33.000Z</time>
      </trkpt>
      <trkpt lat="42.46201395057141780853271484375" lon="1.0080611519515514373779296875">
        <ele>1858</ele>
        <time>2020-08-13T14:10:54.000Z</time>
      </trkpt>
      <trkpt lat="42.462025098502635955810546875" lon="1.00809015333652496337890625">
        <ele>1857.800048828125</ele>
        <time>2020-08-13T14:11:02.000Z</time>
      </trkpt>
      <trkpt lat="42.46202937327325344085693359375" lon="1.00809526629745960235595703125">
        <ele>1857.800048828125</ele>
        <time>2020-08-13T14:11:15.000Z</time>
      </trkpt>
      <trkpt lat="42.46203758753836154937744140625" lon="1.00811286829411983489990234375">
        <ele>1857.800048828125</ele>
        <time>2020-08-13T14:11:39.000Z</time>
      </trkpt>
      <trkpt lat="42.4620400182902812957763671875" lon="1.00811806507408618927001953125">
        <ele>1857.5999755859375</ele>
        <time>2020-08-13T14:11:50.000Z</time>
      </trkpt>
      <trkpt lat="42.462053596973419189453125" lon="1.0081712901592254638671875">
        <ele>1857.800048828125</ele>
        <time>2020-08-13T14:12:00.000Z</time>
      </trkpt>
      <trkpt lat="42.46207170188426971435546875" lon="1.00822552107274532318115234375">
        <ele>1857.4000244140625</ele>
        <time>2020-08-13T14:12:02.000Z</time>
      </trkpt>
      <trkpt lat="42.46211101301014423370361328125" lon="1.00833951495587825775146484375">
        <ele>1856.199951171875</ele>
        <time>2020-08-13T14:12:06.000Z</time>
      </trkpt>
      <trkpt lat="42.4621208198368549346923828125" lon="1.0083778202533721923828125">
        <ele>1856</ele>
        <time>2020-08-13T14:12:07.000Z</time>
      </trkpt>
      <trkpt lat="42.46213339269161224365234375" lon="1.0085065662860870361328125">
        <ele>1855.199951171875</ele>
        <time>2020-08-13T14:12:10.000Z</time>
      </trkpt>
      <trkpt lat="42.46211872436106204986572265625" lon="1.008599102497100830078125">
        <ele>1854</ele>
        <time>2020-08-13T14:12:12.000Z</time>
      </trkpt>
      <trkpt lat="42.46203725226223468780517578125" lon="1.00886128842830657958984375">
        <ele>1852.5999755859375</ele>
        <time>2020-08-13T14:12:17.000Z</time>
      </trkpt>
      <trkpt lat="42.46201830916106700897216796875" lon="1.0089115798473358154296875">
        <ele>1852.199951171875</ele>
        <time>2020-08-13T14:12:18.000Z</time>
      </trkpt>
      <trkpt lat="42.46199953369796276092529296875" lon="1.00895960815250873565673828125">
        <ele>1851.800048828125</ele>
        <time>2020-08-13T14:12:19.000Z</time>
      </trkpt>
      <trkpt lat="42.4619387648999691009521484375" lon="1.00914384238421916961669921875">
        <ele>1850.4000244140625</ele>
        <time>2020-08-13T14:12:23.000Z</time>
      </trkpt>
      <trkpt lat="42.46192795224487781524658203125" lon="1.00924551486968994140625">
        <ele>1849.4000244140625</ele>
        <time>2020-08-13T14:12:25.000Z</time>
      </trkpt>
      <trkpt lat="42.461948655545711517333984375" lon="1.00953058339655399322509765625">
        <ele>1848.800048828125</ele>
        <time>2020-08-13T14:12:30.000Z</time>
      </trkpt>
      <trkpt lat="42.4619511701166629791259765625" lon="1.0096560604870319366455078125">
        <ele>1847.800048828125</ele>
        <time>2020-08-13T14:12:32.000Z</time>
      </trkpt>
      <trkpt lat="42.461931891739368438720703125" lon="1.00979025475680828094482421875">
        <ele>1846.5999755859375</ele>
        <time>2020-08-13T14:12:34.000Z</time>
      </trkpt>
      <trkpt lat="42.46191320009529590606689453125" lon="1.00985613651573657989501953125">
        <ele>1846.4000244140625</ele>
        <time>2020-08-13T14:12:35.000Z</time>
      </trkpt>
      <trkpt lat="42.46189157478511333465576171875" lon="1.00992017425596714019775390625">
        <ele>1846.199951171875</ele>
        <time>2020-08-13T14:12:36.000Z</time>
      </trkpt>
      <trkpt lat="42.4618059955537319183349609375" lon="1.0101775825023651123046875">
        <ele>1845.5999755859375</ele>
        <time>2020-08-13T14:12:40.000Z</time>
      </trkpt>
      <trkpt lat="42.46177607215940952301025390625" lon="1.01029920391738414764404296875">
        <ele>1845.199951171875</ele>
        <time>2020-08-13T14:12:42.000Z</time>
      </trkpt>
      <trkpt lat="42.461726702749729156494140625" lon="1.0105177201330661773681640625">
        <ele>1844.5999755859375</ele>
        <time>2020-08-13T14:12:46.000Z</time>
      </trkpt>
      <trkpt lat="42.46171706356108188629150390625" lon="1.01061142981052398681640625">
        <ele>1844</ele>
        <time>2020-08-13T14:12:48.000Z</time>
      </trkpt>
      <trkpt lat="42.46170817874372005462646484375" lon="1.01069365628063678741455078125">
        <ele>1843.5999755859375</ele>
        <time>2020-08-13T14:12:50.000Z</time>
      </trkpt>
      <trkpt lat="42.46169292367994785308837890625" lon="1.010726429522037506103515625">
        <ele>1843.199951171875</ele>
        <time>2020-08-13T14:12:51.000Z</time>
      </trkpt>
      <trkpt lat="42.46167071163654327392578125" lon="1.01074394769966602325439453125">
        <ele>1843</ele>
        <time>2020-08-13T14:12:52.000Z</time>
      </trkpt>
      <trkpt lat="42.4616215936839580535888671875" lon="1.010723076760768890380859375">
        <ele>1842.5999755859375</ele>
        <time>2020-08-13T14:12:54.000Z</time>
      </trkpt>
      <trkpt lat="42.46160625480115413665771484375" lon="1.0106954164803028106689453125">
        <ele>1842.4000244140625</ele>
        <time>2020-08-13T14:12:55.000Z</time>
      </trkpt>
      <trkpt lat="42.461606003344058990478515625" lon="1.0105894692242145538330078125">
        <ele>1841.199951171875</ele>
        <time>2020-08-13T14:12:58.000Z</time>
      </trkpt>
      <trkpt lat="42.461610697209835052490234375" lon="1.01054839789867401123046875">
        <ele>1840.800048828125</ele>
        <time>2020-08-13T14:12:59.000Z</time>
      </trkpt>
      <trkpt lat="42.46161949820816516876220703125" lon="1.01045074872672557830810546875">
        <ele>1839.800048828125</ele>
        <time>2020-08-13T14:13:01.000Z</time>
      </trkpt>
      <trkpt lat="42.4616242758929729461669921875" lon="1.01027824915945529937744140625">
        <ele>1838.199951171875</ele>
        <time>2020-08-13T14:13:04.000Z</time>
      </trkpt>
      <trkpt lat="42.4616110324859619140625" lon="1.0101033188402652740478515625">
        <ele>1837</ele>
        <time>2020-08-13T14:13:07.000Z</time>
      </trkpt>
      <trkpt lat="42.4615998007357120513916015625" lon="1.0099742375314235687255859375">
        <ele>1835.5999755859375</ele>
        <time>2020-08-13T14:13:09.000Z</time>
      </trkpt>
      <trkpt lat="42.4615920893847942352294921875" lon="1.00990894250571727752685546875">
        <ele>1834.4000244140625</ele>
        <time>2020-08-13T14:13:10.000Z</time>
      </trkpt>
      <trkpt lat="42.46158295311033725738525390625" lon="1.00983870215713977813720703125">
        <ele>1833</ele>
        <time>2020-08-13T14:13:11.000Z</time>
      </trkpt>
      <trkpt lat="42.4615743197500705718994140625" lon="1.00976594723761081695556640625">
        <ele>1832.4000244140625</ele>
        <time>2020-08-13T14:13:12.000Z</time>
      </trkpt>
      <trkpt lat="42.4615669436752796173095703125" lon="1.00969553925096988677978515625">
        <ele>1831.800048828125</ele>
        <time>2020-08-13T14:13:13.000Z</time>
      </trkpt>
      <trkpt lat="42.46154808439314365386962890625" lon="1.00948716513812541961669921875">
        <ele>1830.199951171875</ele>
        <time>2020-08-13T14:13:16.000Z</time>
      </trkpt>
      <trkpt lat="42.4615421332418918609619140625" lon="1.0094220377504825592041015625">
        <ele>1829</ele>
        <time>2020-08-13T14:13:17.000Z</time>
      </trkpt>
      <trkpt lat="42.4615314044058322906494140625" lon="1.00929790176451206207275390625">
        <ele>1827</ele>
        <time>2020-08-13T14:13:19.000Z</time>
      </trkpt>
      <trkpt lat="42.46152411215007305145263671875" lon="1.0092366300523281097412109375">
        <ele>1826.4000244140625</ele>
        <time>2020-08-13T14:13:20.000Z</time>
      </trkpt>
      <trkpt lat="42.4615153111517429351806640625" lon="1.00917535834014415740966796875">
        <ele>1825.800048828125</ele>
        <time>2020-08-13T14:13:21.000Z</time>
      </trkpt>
      <trkpt lat="42.46149410493671894073486328125" lon="1.009049378335475921630859375">
        <ele>1824.4000244140625</ele>
        <time>2020-08-13T14:13:23.000Z</time>
      </trkpt>
      <trkpt lat="42.46145546436309814453125" lon="1.0088651441037654876708984375">
        <ele>1822.5999755859375</ele>
        <time>2020-08-13T14:13:26.000Z</time>
      </trkpt>
      <trkpt lat="42.46142185293138027191162109375" lon="1.0087551735341548919677734375">
        <ele>1820.800048828125</ele>
        <time>2020-08-13T14:13:28.000Z</time>
      </trkpt>
      <trkpt lat="42.4613463319838047027587890625" lon="1.00863874889910221099853515625">
        <ele>1819.199951171875</ele>
        <time>2020-08-13T14:13:31.000Z</time>
      </trkpt>
      <trkpt lat="42.46131305582821369171142578125" lon="1.00860974751412868499755859375">
        <ele>1818.5999755859375</ele>
        <time>2020-08-13T14:13:32.000Z</time>
      </trkpt>
      <trkpt lat="42.461281120777130126953125" lon="1.00857554934918880462646484375">
        <ele>1818</ele>
        <time>2020-08-13T14:13:33.000Z</time>
      </trkpt>
      <trkpt lat="42.4612289853394031524658203125" lon="1.00848318077623844146728515625">
        <ele>1816.800048828125</ele>
        <time>2020-08-13T14:13:35.000Z</time>
      </trkpt>
      <trkpt lat="42.46120610274374485015869140625" lon="1.0084316320717334747314453125">
        <ele>1816.199951171875</ele>
        <time>2020-08-13T14:13:36.000Z</time>
      </trkpt>
      <trkpt lat="42.46118598617613315582275390625" lon="1.00838058628141880035400390625">
        <ele>1815.800048828125</ele>
        <time>2020-08-13T14:13:37.000Z</time>
      </trkpt>
      <trkpt lat="42.46115145273506641387939453125" lon="1.008276231586933135986328125">
        <ele>1814.199951171875</ele>
        <time>2020-08-13T14:13:39.000Z</time>
      </trkpt>
      <trkpt lat="42.46111675165593624114990234375" lon="1.00816550664603710174560546875">
        <ele>1813.199951171875</ele>
        <time>2020-08-13T14:13:41.000Z</time>
      </trkpt>
      <trkpt lat="42.46110342442989349365234375" lon="1.00811253301799297332763671875">
        <ele>1812.4000244140625</ele>
        <time>2020-08-13T14:13:42.000Z</time>
      </trkpt>
      <trkpt lat="42.461091689765453338623046875" lon="1.00806190632283687591552734375">
        <ele>1811.4000244140625</ele>
        <time>2020-08-13T14:13:43.000Z</time>
      </trkpt>
      <trkpt lat="42.46106989681720733642578125" lon="1.00796501152217388153076171875">
        <ele>1809.4000244140625</ele>
        <time>2020-08-13T14:13:45.000Z</time>
      </trkpt>
      <trkpt lat="42.46105254627764225006103515625" lon="1.0078586451709270477294921875">
        <ele>1807.4000244140625</ele>
        <time>2020-08-13T14:13:47.000Z</time>
      </trkpt>
      <trkpt lat="42.46103796176612377166748046875" lon="1.007750518620014190673828125">
        <ele>1806</ele>
        <time>2020-08-13T14:13:49.000Z</time>
      </trkpt>
      <trkpt lat="42.4610241316258907318115234375" lon="1.0075947828590869903564453125">
        <ele>1805</ele>
        <time>2020-08-13T14:13:52.000Z</time>
      </trkpt>
      <trkpt lat="42.4610204435884952545166015625" lon="1.00748389028012752532958984375">
        <ele>1803.800048828125</ele>
        <time>2020-08-13T14:13:54.000Z</time>
      </trkpt>
      <trkpt lat="42.46101851575076580047607421875" lon="1.0073612630367279052734375">
        <ele>1803.199951171875</ele>
        <time>2020-08-13T14:13:56.000Z</time>
      </trkpt>
      <trkpt lat="42.46101767756044864654541015625" lon="1.0072970576584339141845703125">
        <ele>1802.800048828125</ele>
        <time>2020-08-13T14:13:57.000Z</time>
      </trkpt>
      <trkpt lat="42.46101767756044864654541015625" lon="1.00717283785343170166015625">
        <ele>1801.199951171875</ele>
        <time>2020-08-13T14:13:59.000Z</time>
      </trkpt>
      <trkpt lat="42.4610221199691295623779296875" lon="1.00705959834158420562744140625">
        <ele>1799.800048828125</ele>
        <time>2020-08-13T14:14:01.000Z</time>
      </trkpt>
      <trkpt lat="42.46103192679584026336669921875" lon="1.00701198913156986236572265625">
        <ele>1799.199951171875</ele>
        <time>2020-08-13T14:14:02.000Z</time>
      </trkpt>
      <trkpt lat="42.46109143830835819244384765625" lon="1.00689799524843692779541015625">
        <ele>1798.5999755859375</ele>
        <time>2020-08-13T14:14:05.000Z</time>
      </trkpt>
      <trkpt lat="42.46114156208932399749755859375" lon="1.006830520927906036376953125">
        <ele>1798.199951171875</ele>
        <time>2020-08-13T14:14:07.000Z</time>
      </trkpt>
      <trkpt lat="42.4612199328839778900146484375" lon="1.006699092686176300048828125">
        <ele>1797</ele>
        <time>2020-08-13T14:14:11.000Z</time>
      </trkpt>
      <trkpt lat="42.46127131395041942596435546875" lon="1.00662767887115478515625">
        <ele>1796</ele>
        <time>2020-08-13T14:14:13.000Z</time>
      </trkpt>
      <trkpt lat="42.46135345660150051116943359375" lon="1.006527431309223175048828125">
        <ele>1794.5999755859375</ele>
        <time>2020-08-13T14:14:16.000Z</time>
      </trkpt>
      <trkpt lat="42.46143065392971038818359375" lon="1.00642726756632328033447265625">
        <ele>1792.800048828125</ele>
        <time>2020-08-13T14:14:19.000Z</time>
      </trkpt>
      <trkpt lat="42.46147164143621921539306640625" lon="1.0063693486154079437255859375">
        <ele>1791.5999755859375</ele>
        <time>2020-08-13T14:14:21.000Z</time>
      </trkpt>
      <trkpt lat="42.46151019819080829620361328125" lon="1.00631813518702983856201171875">
        <ele>1790.4000244140625</ele>
        <time>2020-08-13T14:14:23.000Z</time>
      </trkpt>
      <trkpt lat="42.461553700268268585205078125" lon="1.00626599974930286407470703125">
        <ele>1789.199951171875</ele>
        <time>2020-08-13T14:14:25.000Z</time>
      </trkpt>
      <trkpt lat="42.46159401722252368927001953125" lon="1.00620682351291179656982421875">
        <ele>1788.199951171875</ele>
        <time>2020-08-13T14:14:27.000Z</time>
      </trkpt>
      <trkpt lat="42.4616128765046596527099609375" lon="1.0061775706708431243896484375">
        <ele>1787.4000244140625</ele>
        <time>2020-08-13T14:14:28.000Z</time>
      </trkpt>
      <trkpt lat="42.46163290925323963165283203125" lon="1.0061490722000598907470703125">
        <ele>1787</ele>
        <time>2020-08-13T14:14:29.000Z</time>
      </trkpt>
      <trkpt lat="42.46170281432569026947021484375" lon="1.006054691970348358154296875">
        <ele>1785.5999755859375</ele>
        <time>2020-08-13T14:14:32.000Z</time>
      </trkpt>
      <trkpt lat="42.46178529225289821624755859375" lon="1.00595176219940185546875">
        <ele>1785.4000244140625</ele>
        <time>2020-08-13T14:14:35.000Z</time>
      </trkpt>
      <trkpt lat="42.4618354998528957366943359375" lon="1.00588009692728519439697265625">
        <ele>1784.5999755859375</ele>
        <time>2020-08-13T14:14:37.000Z</time>
      </trkpt>
      <trkpt lat="42.46190364472568035125732421875" lon="1.00577867589890956878662109375">
        <ele>1783.5999755859375</ele>
        <time>2020-08-13T14:14:40.000Z</time>
      </trkpt>
      <trkpt lat="42.46192577295005321502685546875" lon="1.00574447773396968841552734375">
        <ele>1782.800048828125</ele>
        <time>2020-08-13T14:14:41.000Z</time>
      </trkpt>
      <trkpt lat="42.46194656006991863250732421875" lon="1.005711369216442108154296875">
        <ele>1782.4000244140625</ele>
        <time>2020-08-13T14:14:42.000Z</time>
      </trkpt>
      <trkpt lat="42.462011016905307769775390625" lon="1.0056076012551784515380859375">
        <ele>1781.4000244140625</ele>
        <time>2020-08-13T14:14:45.000Z</time>
      </trkpt>
      <trkpt lat="42.462078072130680084228515625" lon="1.00549771450459957122802734375">
        <ele>1781</ele>
        <time>2020-08-13T14:14:48.000Z</time>
      </trkpt>
      <trkpt lat="42.46215895749628543853759765625" lon="1.00536234676837921142578125">
        <ele>1780.4000244140625</ele>
        <time>2020-08-13T14:14:51.000Z</time>
      </trkpt>
      <trkpt lat="42.46224378235638141632080078125" lon="1.0052143223583698272705078125">
        <ele>1779.800048828125</ele>
        <time>2020-08-13T14:14:54.000Z</time>
      </trkpt>
      <trkpt lat="42.462267838418483734130859375" lon="1.00516126491129398345947265625">
        <ele>1779.199951171875</ele>
        <time>2020-08-13T14:14:55.000Z</time>
      </trkpt>
      <trkpt lat="42.46231419034302234649658203125" lon="1.00501240231096744537353515625">
        <ele>1778.800048828125</ele>
        <time>2020-08-13T14:14:58.000Z</time>
      </trkpt>
      <trkpt lat="42.462327182292938232421875" lon="1.00496814586222171783447265625">
        <ele>1778.800048828125</ele>
        <time>2020-08-13T14:14:59.000Z</time>
      </trkpt>
      <trkpt lat="42.46237772516906261444091796875" lon="1.00486387498676776885986328125">
        <ele>1778.4000244140625</ele>
        <time>2020-08-13T14:15:03.000Z</time>
      </trkpt>
      <trkpt lat="42.4623900465667247772216796875" lon="1.00484409369528293609619140625">
        <ele>1778.199951171875</ele>
        <time>2020-08-13T14:15:04.000Z</time>
      </trkpt>
      <trkpt lat="42.462464980781078338623046875" lon="1.00473211146891117095947265625">
        <ele>1777.5999755859375</ele>
        <time>2020-08-13T14:15:09.000Z</time>
      </trkpt>
      <trkpt lat="42.46250026859343051910400390625" lon="1.0046728514134883880615234375">
        <ele>1776.800048828125</ele>
        <time>2020-08-13T14:15:11.000Z</time>
      </trkpt>
      <trkpt lat="42.46256464160978794097900390625" lon="1.00452524609863758087158203125">
        <ele>1776.199951171875</ele>
        <time>2020-08-13T14:15:15.000Z</time>
      </trkpt>
      <trkpt lat="42.462629266083240509033203125" lon="1.0044438578188419342041015625">
        <ele>1775.800048828125</ele>
        <time>2020-08-13T14:15:18.000Z</time>
      </trkpt>
      <trkpt lat="42.462661452591419219970703125" lon="1.004429273307323455810546875">
        <ele>1775.199951171875</ele>
        <time>2020-08-13T14:15:19.000Z</time>
      </trkpt>
      <trkpt lat="42.462697662413120269775390625" lon="1.0044183768332004547119140625">
        <ele>1774.5999755859375</ele>
        <time>2020-08-13T14:15:20.000Z</time>
      </trkpt>
      <trkpt lat="42.46284426189959049224853515625" lon="1.00437973625957965850830078125">
        <ele>1773.5999755859375</ele>
        <time>2020-08-13T14:15:24.000Z</time>
      </trkpt>
      <trkpt lat="42.46297485195100307464599609375" lon="1.0043637268245220184326171875">
        <ele>1771.800048828125</ele>
        <time>2020-08-13T14:15:27.000Z</time>
      </trkpt>
      <trkpt lat="42.4630264006555080413818359375" lon="1.00436188280582427978515625">
        <ele>1771.5999755859375</ele>
        <time>2020-08-13T14:15:28.000Z</time>
      </trkpt>
      <trkpt lat="42.463132180273532867431640625" lon="1.00436347536742687225341796875">
        <ele>1771.199951171875</ele>
        <time>2020-08-13T14:15:30.000Z</time>
      </trkpt>
      <trkpt lat="42.463181801140308380126953125" lon="1.00435861386358737945556640625">
        <ele>1770.800048828125</ele>
        <time>2020-08-13T14:15:31.000Z</time>
      </trkpt>
      <trkpt lat="42.46322647668421268463134765625" lon="1.00435249507427215576171875">
        <ele>1770.5999755859375</ele>
        <time>2020-08-13T14:15:32.000Z</time>
      </trkpt>
      <trkpt lat="42.463314570486545562744140625" lon="1.004347465932369232177734375">
        <ele>1770</ele>
        <time>2020-08-13T14:15:34.000Z</time>
      </trkpt>
      <trkpt lat="42.46336377225816249847412109375" lon="1.0043442808091640472412109375">
        <ele>1769.5999755859375</ele>
        <time>2020-08-13T14:15:35.000Z</time>
      </trkpt>
      <trkpt lat="42.463510371744632720947265625" lon="1.00434042513370513916015625">
        <ele>1768.5999755859375</ele>
        <time>2020-08-13T14:15:38.000Z</time>
      </trkpt>
      <trkpt lat="42.46355521492660045623779296875" lon="1.00434402935206890106201171875">
        <ele>1768.4000244140625</ele>
        <time>2020-08-13T14:15:39.000Z</time>
      </trkpt>
      <trkpt lat="42.4635953642427921295166015625" lon="1.00434889085590839385986328125">
        <ele>1768.199951171875</ele>
        <time>2020-08-13T14:15:40.000Z</time>
      </trkpt>
      <trkpt lat="42.4636724777519702911376953125" lon="1.00436314009130001068115234375">
        <ele>1767.199951171875</ele>
        <time>2020-08-13T14:15:42.000Z</time>
      </trkpt>
      <trkpt lat="42.46375051327049732208251953125" lon="1.00436984561383724212646484375">
        <ele>1766</ele>
        <time>2020-08-13T14:15:44.000Z</time>
      </trkpt>
      <trkpt lat="42.46378990821540355682373046875" lon="1.00436783395707607269287109375">
        <ele>1765.5999755859375</ele>
        <time>2020-08-13T14:15:45.000Z</time>
      </trkpt>
      <trkpt lat="42.46393407694995403289794921875" lon="1.00437127053737640380859375">
        <ele>1764.5999755859375</ele>
        <time>2020-08-13T14:15:49.000Z</time>
      </trkpt>
      <trkpt lat="42.4640862084925174713134765625" lon="1.00437554530799388885498046875">
        <ele>1763.4000244140625</ele>
        <time>2020-08-13T14:15:54.000Z</time>
      </trkpt>
      <trkpt lat="42.4641160480678081512451171875" lon="1.00437839515507221221923828125">
        <ele>1763</ele>
        <time>2020-08-13T14:15:55.000Z</time>
      </trkpt>
      <trkpt lat="42.46422174386680126190185546875" lon="1.00438543595373630523681640625">
        <ele>1762.4000244140625</ele>
        <time>2020-08-13T14:15:58.000Z</time>
      </trkpt>
      <trkpt lat="42.46429952792823314666748046875" lon="1.00438359193503856658935546875">
        <ele>1761.800048828125</ele>
        <time>2020-08-13T14:16:00.000Z</time>
      </trkpt>
      <trkpt lat="42.4643815867602825164794921875" lon="1.00437537766993045806884765625">
        <ele>1761</ele>
        <time>2020-08-13T14:16:02.000Z</time>
      </trkpt>
      <trkpt lat="42.46451117098331451416015625" lon="1.00435911677777767181396484375">
        <ele>1759.800048828125</ele>
        <time>2020-08-13T14:16:05.000Z</time>
      </trkpt>
      <trkpt lat="42.46455316431820392608642578125" lon="1.004352830350399017333984375">
        <ele>1759.4000244140625</ele>
        <time>2020-08-13T14:16:06.000Z</time>
      </trkpt>
      <trkpt lat="42.46463832445442676544189453125" lon="1.00433950312435626983642578125">
        <ele>1758.800048828125</ele>
        <time>2020-08-13T14:16:08.000Z</time>
      </trkpt>
      <trkpt lat="42.464764304459095001220703125" lon="1.00432307459414005279541015625">
        <ele>1758</ele>
        <time>2020-08-13T14:16:11.000Z</time>
      </trkpt>
      <trkpt lat="42.46480696834623813629150390625" lon="1.00431335158646106719970703125">
        <ele>1757.800048828125</ele>
        <time>2020-08-13T14:16:12.000Z</time>
      </trkpt>
      <trkpt lat="42.464926242828369140625" lon="1.00428233854472637176513671875">
        <ele>1756.5999755859375</ele>
        <time>2020-08-13T14:16:15.000Z</time>
      </trkpt>
      <trkpt lat="42.46503428556025028228759765625" lon="1.00427026860415935516357421875">
        <ele>1755.5999755859375</ele>
        <time>2020-08-13T14:16:18.000Z</time>
      </trkpt>
      <trkpt lat="42.46514073573052883148193359375" lon="1.0042681731283664703369140625">
        <ele>1754.199951171875</ele>
        <time>2020-08-13T14:16:21.000Z</time>
      </trkpt>
      <trkpt lat="42.46524282731115818023681640625" lon="1.004299856722354888916015625">
        <ele>1753.199951171875</ele>
        <time>2020-08-13T14:16:24.000Z</time>
      </trkpt>
      <trkpt lat="42.4652734212577342987060546875" lon="1.00431720726191997528076171875">
        <ele>1753</ele>
        <time>2020-08-13T14:16:25.000Z</time>
      </trkpt>
      <trkpt lat="42.46543108485639095306396484375" lon="1.00442315451800823211669921875">
        <ele>1752.5999755859375</ele>
        <time>2020-08-13T14:16:30.000Z</time>
      </trkpt>
      <trkpt lat="42.46550182811915874481201171875" lon="1.00448652170598506927490234375">
        <ele>1751.800048828125</ele>
        <time>2020-08-13T14:16:32.000Z</time>
      </trkpt>
      <trkpt lat="42.46560727246105670928955078125" lon="1.004578135907649993896484375">
        <ele>1750.199951171875</ele>
        <time>2020-08-13T14:16:35.000Z</time>
      </trkpt>
      <trkpt lat="42.4656418897211551666259765625" lon="1.00459816865622997283935546875">
        <ele>1749.800048828125</ele>
        <time>2020-08-13T14:16:36.000Z</time>
      </trkpt>
      <trkpt lat="42.4657062627375125885009765625" lon="1.0045984201133251190185546875">
        <ele>1748.800048828125</ele>
        <time>2020-08-13T14:16:38.000Z</time>
      </trkpt>
      <trkpt lat="42.46572864241898059844970703125" lon="1.0045769624412059783935546875">
        <ele>1748</ele>
        <time>2020-08-13T14:16:39.000Z</time>
      </trkpt>
      <trkpt lat="42.46574540622532367706298828125" lon="1.00454561412334442138671875">
        <ele>1747.5999755859375</ele>
        <time>2020-08-13T14:16:40.000Z</time>
      </trkpt>
      <trkpt lat="42.46583073399960994720458984375" lon="1.0043861903250217437744140625">
        <ele>1746.5999755859375</ele>
        <time>2020-08-13T14:16:44.000Z</time>
      </trkpt>
      <trkpt lat="42.465896867215633392333984375" lon="1.004278399050235748291015625">
        <ele>1746.199951171875</ele>
        <time>2020-08-13T14:16:46.000Z</time>
      </trkpt>
      <trkpt lat="42.465931735932826995849609375" lon="1.00423204712569713592529296875">
        <ele>1745.800048828125</ele>
        <time>2020-08-13T14:16:47.000Z</time>
      </trkpt>
      <trkpt lat="42.46596358716487884521484375" lon="1.0041910596191883087158203125">
        <ele>1745</ele>
        <time>2020-08-13T14:16:48.000Z</time>
      </trkpt>
      <trkpt lat="42.465990744531154632568359375" lon="1.00415459834039211273193359375">
        <ele>1744.4000244140625</ele>
        <time>2020-08-13T14:16:49.000Z</time>
      </trkpt>
      <trkpt lat="42.4660167284309864044189453125" lon="1.0041206516325473785400390625">
        <ele>1744.199951171875</ele>
        <time>2020-08-13T14:16:50.000Z</time>
      </trkpt>
      <trkpt lat="42.4661612324416637420654296875" lon="1.004017889499664306640625">
        <ele>1743.5999755859375</ele>
        <time>2020-08-13T14:16:55.000Z</time>
      </trkpt>
      <trkpt lat="42.466222085058689117431640625" lon="1.00401612929999828338623046875">
        <ele>1742.800048828125</ele>
        <time>2020-08-13T14:16:57.000Z</time>
      </trkpt>
      <trkpt lat="42.46626667678356170654296875" lon="1.00397941656410694122314453125">
        <ele>1742.199951171875</ele>
        <time>2020-08-13T14:16:59.000Z</time>
      </trkpt>
      <trkpt lat="42.466273047029972076416015625" lon="1.00394672714173793792724609375">
        <ele>1741.800048828125</ele>
        <time>2020-08-13T14:17:00.000Z</time>
      </trkpt>
      <trkpt lat="42.46626022271811962127685546875" lon="1.003881432116031646728515625">
        <ele>1741</ele>
        <time>2020-08-13T14:17:02.000Z</time>
      </trkpt>
      <trkpt lat="42.46624379418790340423583984375" lon="1.00386072881519794464111328125">
        <ele>1740.5999755859375</ele>
        <time>2020-08-13T14:17:03.000Z</time>
      </trkpt>
      <trkpt lat="42.466200292110443115234375" lon="1.0038437135517597198486328125">
        <ele>1740.199951171875</ele>
        <time>2020-08-13T14:17:05.000Z</time>
      </trkpt>
      <trkpt lat="42.46617724187672138214111328125" lon="1.0038396902382373809814453125">
        <ele>1739.800048828125</ele>
        <time>2020-08-13T14:17:06.000Z</time>
      </trkpt>
      <trkpt lat="42.466155700385570526123046875" lon="1.00384010933339595794677734375">
        <ele>1739.5999755859375</ele>
        <time>2020-08-13T14:17:07.000Z</time>
      </trkpt>
      <trkpt lat="42.46608101762831211090087890625" lon="1.00388688035309314727783203125">
        <ele>1738.4000244140625</ele>
        <time>2020-08-13T14:17:11.000Z</time>
      </trkpt>
      <trkpt lat="42.4659801833331584930419921875" lon="1.003946475684642791748046875">
        <ele>1736.5999755859375</ele>
        <time>2020-08-13T14:17:15.000Z</time>
      </trkpt>
      <trkpt lat="42.46593114919960498809814453125" lon="1.003975309431552886962890625">
        <ele>1735</ele>
        <time>2020-08-13T14:17:17.000Z</time>
      </trkpt>
      <trkpt lat="42.46583894826471805572509765625" lon="1.00407429970800876617431640625">
        <ele>1734</ele>
        <time>2020-08-13T14:17:21.000Z</time>
      </trkpt>
      <trkpt lat="42.4657870642840862274169921875" lon="1.004131548106670379638671875">
        <ele>1732.4000244140625</ele>
        <time>2020-08-13T14:17:23.000Z</time>
      </trkpt>
      <trkpt lat="42.46575705707073211669921875" lon="1.00416163913905620574951171875">
        <ele>1731.800048828125</ele>
        <time>2020-08-13T14:17:24.000Z</time>
      </trkpt>
      <trkpt lat="42.4657287262380123138427734375" lon="1.00418175570666790008544921875">
        <ele>1731.4000244140625</ele>
        <time>2020-08-13T14:17:25.000Z</time>
      </trkpt>
      <trkpt lat="42.4656653590500354766845703125" lon="1.0041860304772853851318359375">
        <ele>1730.800048828125</ele>
        <time>2020-08-13T14:17:27.000Z</time>
      </trkpt>
      <trkpt lat="42.465637028217315673828125" lon="1.00417471490800380706787109375">
        <ele>1730.5999755859375</ele>
        <time>2020-08-13T14:17:28.000Z</time>
      </trkpt>
      <trkpt lat="42.46558983810245990753173828125" lon="1.004119813442230224609375">
        <ele>1730.199951171875</ele>
        <time>2020-08-13T14:17:30.000Z</time>
      </trkpt>
      <trkpt lat="42.465564943850040435791015625" lon="1.00408569909632205963134765625">
        <ele>1730</ele>
        <time>2020-08-13T14:17:31.000Z</time>
      </trkpt>
      <trkpt lat="42.46553652919828891754150390625" lon="1.00405015982687473297119140625">
        <ele>1729.800048828125</ele>
        <time>2020-08-13T14:17:32.000Z</time>
      </trkpt>
      <trkpt lat="42.4654506146907806396484375" lon="1.003944464027881622314453125">
        <ele>1729.4000244140625</ele>
        <time>2020-08-13T14:17:35.000Z</time>
      </trkpt>
      <trkpt lat="42.465363778173923492431640625" lon="1.00385402329266071319580078125">
        <ele>1728.800048828125</ele>
        <time>2020-08-13T14:17:38.000Z</time>
      </trkpt>
      <trkpt lat="42.4652080424129962921142578125" lon="1.00373583845794200897216796875">
        <ele>1728</ele>
        <time>2020-08-13T14:17:43.000Z</time>
      </trkpt>
      <trkpt lat="42.46507988311350345611572265625" lon="1.003674902021884918212890625">
        <ele>1726.800048828125</ele>
        <time>2020-08-13T14:17:47.000Z</time>
      </trkpt>
      <trkpt lat="42.46499958448112010955810546875" lon="1.00363844074308872222900390625">
        <ele>1726.199951171875</ele>
        <time>2020-08-13T14:17:49.000Z</time>
      </trkpt>
      <trkpt lat="42.4649584293365478515625" lon="1.0036257840692996978759765625">
        <ele>1726</ele>
        <time>2020-08-13T14:17:50.000Z</time>
      </trkpt>
      <trkpt lat="42.4648714251816272735595703125" lon="1.00361128337681293487548828125">
        <ele>1724.800048828125</ele>
        <time>2020-08-13T14:17:52.000Z</time>
      </trkpt>
      <trkpt lat="42.46477947570383548736572265625" lon="1.00360156036913394927978515625">
        <ele>1724.199951171875</ele>
        <time>2020-08-13T14:17:54.000Z</time>
      </trkpt>
      <trkpt lat="42.4646933935582637786865234375" lon="1.00359368138015270233154296875">
        <ele>1723.4000244140625</ele>
        <time>2020-08-13T14:17:56.000Z</time>
      </trkpt>
      <trkpt lat="42.4646164476871490478515625" lon="1.0035818628966808319091796875">
        <ele>1723.4000244140625</ele>
        <time>2020-08-13T14:17:58.000Z</time>
      </trkpt>
      <trkpt lat="42.46440078131854534149169921875" lon="1.003529392182826995849609375">
        <ele>1722.800048828125</ele>
        <time>2020-08-13T14:18:04.000Z</time>
      </trkpt>
      <trkpt lat="42.46432852931320667266845703125" lon="1.00350785069167613983154296875">
        <ele>1722.4000244140625</ele>
        <time>2020-08-13T14:18:06.000Z</time>
      </trkpt>
      <trkpt lat="42.46423062868416309356689453125" lon="1.00347801111638545989990234375">
        <ele>1721.4000244140625</ele>
        <time>2020-08-13T14:18:09.000Z</time>
      </trkpt>
      <trkpt lat="42.46416005305945873260498046875" lon="1.0034440644085407257080078125">
        <ele>1721.199951171875</ele>
        <time>2020-08-13T14:18:11.000Z</time>
      </trkpt>
      <trkpt lat="42.46401923708617687225341796875" lon="1.0033917613327503204345703125">
        <ele>1720.5999755859375</ele>
        <time>2020-08-13T14:18:15.000Z</time>
      </trkpt>
      <trkpt lat="42.4639474041759967803955078125" lon="1.00335865281522274017333984375">
        <ele>1719.800048828125</ele>
        <time>2020-08-13T14:18:17.000Z</time>
      </trkpt>
      <trkpt lat="42.463911361992359161376953125" lon="1.00333484821021556854248046875">
        <ele>1719.199951171875</ele>
        <time>2020-08-13T14:18:18.000Z</time>
      </trkpt>
      <trkpt lat="42.46384271420538425445556640625" lon="1.00327198393642902374267578125">
        <ele>1718.4000244140625</ele>
        <time>2020-08-13T14:18:20.000Z</time>
      </trkpt>
      <trkpt lat="42.46377465315163135528564453125" lon="1.00320090539753437042236328125">
        <ele>1717.5999755859375</ele>
        <time>2020-08-13T14:18:22.000Z</time>
      </trkpt>
      <trkpt lat="42.46373894624412059783935546875" lon="1.0031681321561336517333984375">
        <ele>1717</ele>
        <time>2020-08-13T14:18:23.000Z</time>
      </trkpt>
      <trkpt lat="42.46359176002442836761474609375" lon="1.00306176580488681793212890625">
        <ele>1716.5999755859375</ele>
        <time>2020-08-13T14:18:27.000Z</time>
      </trkpt>
      <trkpt lat="42.46351447887718677520751953125" lon="1.00301248021423816680908203125">
        <ele>1716</ele>
        <time>2020-08-13T14:18:29.000Z</time>
      </trkpt>
      <trkpt lat="42.463469468057155609130859375" lon="1.00298515520989894866943359375">
        <ele>1715.4000244140625</ele>
        <time>2020-08-13T14:18:30.000Z</time>
      </trkpt>
      <trkpt lat="42.46333125047385692596435546875" lon="1.0029025934636592864990234375">
        <ele>1714</ele>
        <time>2020-08-13T14:18:33.000Z</time>
      </trkpt>
      <trkpt lat="42.4631886743009090423583984375" lon="1.00280360318720340728759765625">
        <ele>1713</ele>
        <time>2020-08-13T14:18:36.000Z</time>
      </trkpt>
      <trkpt lat="42.463089264929294586181640625" lon="1.0027282498776912689208984375">
        <ele>1712.199951171875</ele>
        <time>2020-08-13T14:18:38.000Z</time>
      </trkpt>
      <trkpt lat="42.463041655719280242919921875" lon="1.0026816464960575103759765625">
        <ele>1711.5999755859375</ele>
        <time>2020-08-13T14:18:39.000Z</time>
      </trkpt>
      <trkpt lat="42.462900839745998382568359375" lon="1.00252951495349407196044921875">
        <ele>1710.800048828125</ele>
        <time>2020-08-13T14:18:42.000Z</time>
      </trkpt>
      <trkpt lat="42.46285867877304553985595703125" lon="1.00248374976217746734619140625">
        <ele>1710.4000244140625</ele>
        <time>2020-08-13T14:18:43.000Z</time>
      </trkpt>
      <trkpt lat="42.462821714580059051513671875" lon="1.00244016386568546295166015625">
        <ele>1710</ele>
        <time>2020-08-13T14:18:44.000Z</time>
      </trkpt>
      <trkpt lat="42.4627679027616977691650390625" lon="1.00235751830041408538818359375">
        <ele>1709.4000244140625</ele>
        <time>2020-08-13T14:18:46.000Z</time>
      </trkpt>
      <trkpt lat="42.46274183504283428192138671875" lon="1.00232047028839588165283203125">
        <ele>1709.199951171875</ele>
        <time>2020-08-13T14:18:47.000Z</time>
      </trkpt>
      <trkpt lat="42.46266623027622699737548828125" lon="1.00216305814683437347412109375">
        <ele>1708.5999755859375</ele>
        <time>2020-08-13T14:18:51.000Z</time>
      </trkpt>
      <trkpt lat="42.46264628134667873382568359375" lon="1.00212550722062587738037109375">
        <ele>1708.5999755859375</ele>
        <time>2020-08-13T14:18:52.000Z</time>
      </trkpt>
      <trkpt lat="42.4625466205179691314697265625" lon="1.001948900520801544189453125">
        <ele>1707</ele>
        <time>2020-08-13T14:18:57.000Z</time>
      </trkpt>
      <trkpt lat="42.46252491138875484466552734375" lon="1.0019192285835742950439453125">
        <ele>1706</ele>
        <time>2020-08-13T14:18:58.000Z</time>
      </trkpt>
      <trkpt lat="42.46250496245920658111572265625" lon="1.0018937475979328155517578125">
        <ele>1705.5999755859375</ele>
        <time>2020-08-13T14:18:59.000Z</time>
      </trkpt>
      <trkpt lat="42.46241443790495395660400390625" lon="1.0017898119986057281494140625">
        <ele>1704.199951171875</ele>
        <time>2020-08-13T14:19:03.000Z</time>
      </trkpt>
      <trkpt lat="42.4623866938054561614990234375" lon="1.001761145889759063720703125">
        <ele>1703.800048828125</ele>
        <time>2020-08-13T14:19:04.000Z</time>
      </trkpt>
      <trkpt lat="42.4623015336692333221435546875" lon="1.00169534794986248016357421875">
        <ele>1702.800048828125</ele>
        <time>2020-08-13T14:19:07.000Z</time>
      </trkpt>
      <trkpt lat="42.46223707683384418487548828125" lon="1.00166198797523975372314453125">
        <ele>1701.4000244140625</ele>
        <time>2020-08-13T14:19:09.000Z</time>
      </trkpt>
      <trkpt lat="42.46203104965388774871826171875" lon="1.0016302205622196197509765625">
        <ele>1700.5999755859375</ele>
        <time>2020-08-13T14:19:14.000Z</time>
      </trkpt>
      <trkpt lat="42.46198511682450771331787109375" lon="1.0016298852860927581787109375">
        <ele>1700.5999755859375</ele>
        <time>2020-08-13T14:19:15.000Z</time>
      </trkpt>
      <trkpt lat="42.46193834580481052398681640625" lon="1.0016312263906002044677734375">
        <ele>1700.4000244140625</ele>
        <time>2020-08-13T14:19:16.000Z</time>
      </trkpt>
      <trkpt lat="42.461778335273265838623046875" lon="1.00165461190044879913330078125">
        <ele>1699.5999755859375</ele>
        <time>2020-08-13T14:19:20.000Z</time>
      </trkpt>
      <trkpt lat="42.46174690313637256622314453125" lon="1.00166299380362033843994140625">
        <ele>1699.4000244140625</ele>
        <time>2020-08-13T14:19:21.000Z</time>
      </trkpt>
      <trkpt lat="42.4615538679063320159912109375" lon="1.0017395205795764923095703125">
        <ele>1699.199951171875</ele>
        <time>2020-08-13T14:19:27.000Z</time>
      </trkpt>
      <trkpt lat="42.4614861421287059783935546875" lon="1.0017767362296581268310546875">
        <ele>1698.199951171875</ele>
        <time>2020-08-13T14:19:29.000Z</time>
      </trkpt>
      <trkpt lat="42.4613744951784610748291015625" lon="1.0018987767398357391357421875">
        <ele>1697.5999755859375</ele>
        <time>2020-08-13T14:19:33.000Z</time>
      </trkpt>
      <trkpt lat="42.46132864616811275482177734375" lon="1.0020918957889080047607421875">
        <ele>1697</ele>
        <time>2020-08-13T14:19:37.000Z</time>
      </trkpt>
      <trkpt lat="42.4613268859684467315673828125" lon="1.0021408461034297943115234375">
        <ele>1696.199951171875</ele>
        <time>2020-08-13T14:19:38.000Z</time>
      </trkpt>
      <trkpt lat="42.4613255448639392852783203125" lon="1.0021901316940784454345703125">
        <ele>1695.4000244140625</ele>
        <time>2020-08-13T14:19:39.000Z</time>
      </trkpt>
      <trkpt lat="42.4613195098936557769775390625" lon="1.00229314528405666351318359375">
        <ele>1694.4000244140625</ele>
        <time>2020-08-13T14:19:41.000Z</time>
      </trkpt>
      <trkpt lat="42.46128941886126995086669921875" lon="1.00258626043796539306640625">
        <ele>1693.199951171875</ele>
        <time>2020-08-13T14:19:46.000Z</time>
      </trkpt>
      <trkpt lat="42.46126712299883365631103515625" lon="1.002715341746807098388671875">
        <ele>1692</ele>
        <time>2020-08-13T14:19:48.000Z</time>
      </trkpt>
      <trkpt lat="42.4612368643283843994140625" lon="1.00284433923661708831787109375">
        <ele>1690.800048828125</ele>
        <time>2020-08-13T14:19:50.000Z</time>
      </trkpt>
      <trkpt lat="42.46118732728064060211181640625" lon="1.00296788848936557769775390625">
        <ele>1689.5999755859375</ele>
        <time>2020-08-13T14:19:52.000Z</time>
      </trkpt>
      <trkpt lat="42.46112463064491748809814453125" lon="1.003084480762481689453125">
        <ele>1688.4000244140625</ele>
        <time>2020-08-13T14:19:54.000Z</time>
      </trkpt>
      <trkpt lat="42.46108741499483585357666015625" lon="1.00314172916114330291748046875">
        <ele>1687.199951171875</ele>
        <time>2020-08-13T14:19:55.000Z</time>
      </trkpt>
      <trkpt lat="42.46104600839316844940185546875" lon="1.003192774951457977294921875">
        <ele>1686.199951171875</ele>
        <time>2020-08-13T14:19:56.000Z</time>
      </trkpt>
      <trkpt lat="42.4610016681253910064697265625" lon="1.00324071943759918212890625">
        <ele>1685.4000244140625</ele>
        <time>2020-08-13T14:19:57.000Z</time>
      </trkpt>
      <trkpt lat="42.460953891277313232421875" lon="1.0032869875431060791015625">
        <ele>1685</ele>
        <time>2020-08-13T14:19:58.000Z</time>
      </trkpt>
      <trkpt lat="42.46085205115377902984619140625" lon="1.00337055511772632598876953125">
        <ele>1683.800048828125</ele>
        <time>2020-08-13T14:20:00.000Z</time>
      </trkpt>
      <trkpt lat="42.4607994966208934783935546875" lon="1.0034055076539516448974609375">
        <ele>1683.800048828125</ele>
        <time>2020-08-13T14:20:01.000Z</time>
      </trkpt>
      <trkpt lat="42.46075046248733997344970703125" lon="1.003432162106037139892578125">
        <ele>1683.5999755859375</ele>
        <time>2020-08-13T14:20:02.000Z</time>
      </trkpt>
      <trkpt lat="42.46062607504427433013916015625" lon="1.0034725628793239593505859375">
        <ele>1683</ele>
        <time>2020-08-13T14:20:05.000Z</time>
      </trkpt>
      <trkpt lat="42.4605879373848438262939453125" lon="1.00348421372473239898681640625">
        <ele>1682.800048828125</ele>
        <time>2020-08-13T14:20:06.000Z</time>
      </trkpt>
      <trkpt lat="42.4605507217347621917724609375" lon="1.00349846296012401580810546875">
        <ele>1682.5999755859375</ele>
        <time>2020-08-13T14:20:07.000Z</time>
      </trkpt>
      <trkpt lat="42.460361458361148834228515625" lon="1.00363123230636119842529296875">
        <ele>1681.800048828125</ele>
        <time>2020-08-13T14:20:13.000Z</time>
      </trkpt>
      <trkpt lat="42.46033505536615848541259765625" lon="1.003656126558780670166015625">
        <ele>1681.199951171875</ele>
        <time>2020-08-13T14:20:14.000Z</time>
      </trkpt>
      <trkpt lat="42.4602851830422878265380859375" lon="1.00371186621487140655517578125">
        <ele>1680</ele>
        <time>2020-08-13T14:20:16.000Z</time>
      </trkpt>
      <trkpt lat="42.460238747298717498779296875" lon="1.003775484859943389892578125">
        <ele>1679</ele>
        <time>2020-08-13T14:20:18.000Z</time>
      </trkpt>
      <trkpt lat="42.460199855268001556396484375" lon="1.003852598369121551513671875">
        <ele>1678.5999755859375</ele>
        <time>2020-08-13T14:20:20.000Z</time>
      </trkpt>
      <trkpt lat="42.46015450917184352874755859375" lon="1.0040331445634365081787109375">
        <ele>1678</ele>
        <time>2020-08-13T14:20:24.000Z</time>
      </trkpt>
      <trkpt lat="42.4601359851658344268798828125" lon="1.004111766815185546875">
        <ele>1677.4000244140625</ele>
        <time>2020-08-13T14:20:26.000Z</time>
      </trkpt>
      <trkpt lat="42.46012081392109394073486328125" lon="1.0041855275630950927734375">
        <ele>1676.800048828125</ele>
        <time>2020-08-13T14:20:28.000Z</time>
      </trkpt>
      <trkpt lat="42.460082508623600006103515625" lon="1.00435291416943073272705078125">
        <ele>1675.5999755859375</ele>
        <time>2020-08-13T14:20:33.000Z</time>
      </trkpt>
      <trkpt lat="42.460055015981197357177734375" lon="1.0044589452445507049560546875">
        <ele>1674.4000244140625</ele>
        <time>2020-08-13T14:20:36.000Z</time>
      </trkpt>
      <trkpt lat="42.45998368598520755767822265625" lon="1.00463010370731353759765625">
        <ele>1673.800048828125</ele>
        <time>2020-08-13T14:20:41.000Z</time>
      </trkpt>
      <trkpt lat="42.4599472247064113616943359375" lon="1.004698164761066436767578125">
        <ele>1673.199951171875</ele>
        <time>2020-08-13T14:20:43.000Z</time>
      </trkpt>
      <trkpt lat="42.4599277786910533905029296875" lon="1.0047321952879428863525390625">
        <ele>1673</ele>
        <time>2020-08-13T14:20:44.000Z</time>
      </trkpt>
      <trkpt lat="42.4598362483084201812744140625" lon="1.00485733710229396820068359375">
        <ele>1672.800048828125</ele>
        <time>2020-08-13T14:20:48.000Z</time>
      </trkpt>
      <trkpt lat="42.45981135405600070953369140625" lon="1.0048837400972843170166015625">
        <ele>1672.199951171875</ele>
        <time>2020-08-13T14:20:49.000Z</time>
      </trkpt>
      <trkpt lat="42.4597611464560031890869140625" lon="1.004935540258884429931640625">
        <ele>1671.199951171875</ele>
        <time>2020-08-13T14:20:51.000Z</time>
      </trkpt>
      <trkpt lat="42.459686882793903350830078125" lon="1.005021035671234130859375">
        <ele>1671</ele>
        <time>2020-08-13T14:20:54.000Z</time>
      </trkpt>
      <trkpt lat="42.45955453254282474517822265625" lon="1.0051117278635501861572265625">
        <ele>1670</ele>
        <time>2020-08-13T14:20:58.000Z</time>
      </trkpt>
      <trkpt lat="42.4594865553081035614013671875" lon="1.00515791215002536773681640625">
        <ele>1669.5999755859375</ele>
        <time>2020-08-13T14:21:00.000Z</time>
      </trkpt>
      <trkpt lat="42.45932243764400482177734375" lon="1.0052364505827426910400390625">
        <ele>1669</ele>
        <time>2020-08-13T14:21:05.000Z</time>
      </trkpt>
      <trkpt lat="42.4592924304306507110595703125" lon="1.0052451677620410919189453125">
        <ele>1668.800048828125</ele>
        <time>2020-08-13T14:21:06.000Z</time>
      </trkpt>
      <trkpt lat="42.45923115871846675872802734375" lon="1.0052664577960968017578125">
        <ele>1667.800048828125</ele>
        <time>2020-08-13T14:21:08.000Z</time>
      </trkpt>
      <trkpt lat="42.4591338448226451873779296875" lon="1.00530476309359073638916015625">
        <ele>1666.4000244140625</ele>
        <time>2020-08-13T14:21:11.000Z</time>
      </trkpt>
      <trkpt lat="42.45903150178492069244384765625" lon="1.00535589270293712615966796875">
        <ele>1666.199951171875</ele>
        <time>2020-08-13T14:21:14.000Z</time>
      </trkpt>
      <trkpt lat="42.45896243490278720855712890625" lon="1.00539847277104854583740234375">
        <ele>1665.4000244140625</ele>
        <time>2020-08-13T14:21:16.000Z</time>
      </trkpt>
      <trkpt lat="42.45889772661030292510986328125" lon="1.00546150468289852142333984375">
        <ele>1664.4000244140625</ele>
        <time>2020-08-13T14:21:18.000Z</time>
      </trkpt>
      <trkpt lat="42.4588475190103054046630859375" lon="1.00553928874433040618896484375">
        <ele>1663.5999755859375</ele>
        <time>2020-08-13T14:21:20.000Z</time>
      </trkpt>
      <trkpt lat="42.4588270671665668487548828125" lon="1.0055807791650295257568359375">
        <ele>1663.199951171875</ele>
        <time>2020-08-13T14:21:21.000Z</time>
      </trkpt>
      <trkpt lat="42.45876344852149486541748046875" lon="1.0057655163109302520751953125">
        <ele>1662.800048828125</ele>
        <time>2020-08-13T14:21:25.000Z</time>
      </trkpt>
      <trkpt lat="42.45865163393318653106689453125" lon="1.0060256905853748321533203125">
        <ele>1662</ele>
        <time>2020-08-13T14:21:30.000Z</time>
      </trkpt>
      <trkpt lat="42.458609975874423980712890625" lon="1.00612032227218151092529296875">
        <ele>1661</ele>
        <time>2020-08-13T14:21:32.000Z</time>
      </trkpt>
      <trkpt lat="42.4585246481001377105712890625" lon="1.0061933286488056182861328125">
        <ele>1660.199951171875</ele>
        <time>2020-08-13T14:21:35.000Z</time>
      </trkpt>
      <trkpt lat="42.45849539525806903839111328125" lon="1.00618134252727031707763671875">
        <ele>1659.800048828125</ele>
        <time>2020-08-13T14:21:36.000Z</time>
      </trkpt>
      <trkpt lat="42.458467148244380950927734375" lon="1.00611428730189800262451171875">
        <ele>1658.800048828125</ele>
        <time>2020-08-13T14:21:38.000Z</time>
      </trkpt>
      <trkpt lat="42.45847108773887157440185546875" lon="1.00607179105281829833984375">
        <ele>1658.4000244140625</ele>
        <time>2020-08-13T14:21:39.000Z</time>
      </trkpt>
      <trkpt lat="42.45852045714855194091796875" lon="1.00597296841442584991455078125">
        <ele>1657.800048828125</ele>
        <time>2020-08-13T14:21:42.000Z</time>
      </trkpt>
      <trkpt lat="42.458540238440036773681640625" lon="1.005943715572357177734375">
        <ele>1657.5999755859375</ele>
        <time>2020-08-13T14:21:43.000Z</time>
      </trkpt>
      <trkpt lat="42.45858960784971714019775390625" lon="1.00578169338405132293701171875">
        <ele>1656.800048828125</ele>
        <time>2020-08-13T14:21:47.000Z</time>
      </trkpt>
      <trkpt lat="42.45859245769679546356201171875" lon="1.00573793984949588775634765625">
        <ele>1656.5999755859375</ele>
        <time>2020-08-13T14:21:48.000Z</time>
      </trkpt>
      <trkpt lat="42.458595223724842071533203125" lon="1.00569368340075016021728515625">
        <ele>1656.5999755859375</ele>
        <time>2020-08-13T14:21:49.000Z</time>
      </trkpt>
      <trkpt lat="42.45864392258226871490478515625" lon="1.00549737922847270965576171875">
        <ele>1655.199951171875</ele>
        <time>2020-08-13T14:21:53.000Z</time>
      </trkpt>
      <trkpt lat="42.45873461477458477020263671875" lon="1.00519663654267787933349609375">
        <ele>1653.5999755859375</ele>
        <time>2020-08-13T14:21:59.000Z</time>
      </trkpt>
      <trkpt lat="42.458763532340526580810546875" lon="1.00510351359844207763671875">
        <ele>1652.199951171875</ele>
        <time>2020-08-13T14:22:01.000Z</time>
      </trkpt>
      <trkpt lat="42.45881189592182636260986328125" lon="1.00496781058609485626220703125">
        <ele>1651</ele>
        <time>2020-08-13T14:22:04.000Z</time>
      </trkpt>
      <trkpt lat="42.4588605947792530059814453125" lon="1.00484577007591724395751953125">
        <ele>1649.5999755859375</ele>
        <time>2020-08-13T14:22:07.000Z</time>
      </trkpt>
      <trkpt lat="42.45890040881931781768798828125" lon="1.0047771222889423370361328125">
        <ele>1648.5999755859375</ele>
        <time>2020-08-13T14:22:09.000Z</time>
      </trkpt>
      <trkpt lat="42.459077350795269012451171875" lon="1.00457570515573024749755859375">
        <ele>1648.199951171875</ele>
        <time>2020-08-13T14:22:15.000Z</time>
      </trkpt>
      <trkpt lat="42.45918673463165760040283203125" lon="1.00447445176541805267333984375">
        <ele>1647.4000244140625</ele>
        <time>2020-08-13T14:22:18.000Z</time>
      </trkpt>
      <trkpt lat="42.4592547118663787841796875" lon="1.0044012777507305145263671875">
        <ele>1646.199951171875</ele>
        <time>2020-08-13T14:22:20.000Z</time>
      </trkpt>
      <trkpt lat="42.45931036770343780517578125" lon="1.0043184645473957061767578125">
        <ele>1645.800048828125</ele>
        <time>2020-08-13T14:22:22.000Z</time>
      </trkpt>
      <trkpt lat="42.45934783481061458587646484375" lon="1.00425216369330883026123046875">
        <ele>1645</ele>
        <time>2020-08-13T14:22:24.000Z</time>
      </trkpt>
      <trkpt lat="42.459381110966205596923828125" lon="1.004154682159423828125">
        <ele>1643.5999755859375</ele>
        <time>2020-08-13T14:22:27.000Z</time>
      </trkpt>
      <trkpt lat="42.45940022170543670654296875" lon="1.00395611487329006195068359375">
        <ele>1642.4000244140625</ele>
        <time>2020-08-13T14:22:32.000Z</time>
      </trkpt>
      <trkpt lat="42.4594148062169551849365234375" lon="1.00387397222220897674560546875">
        <ele>1641.800048828125</ele>
        <time>2020-08-13T14:22:34.000Z</time>
      </trkpt>
      <trkpt lat="42.45944623835384845733642578125" lon="1.003752015531063079833984375">
        <ele>1641</ele>
        <time>2020-08-13T14:22:37.000Z</time>
      </trkpt>
      <trkpt lat="42.459482364356517791748046875" lon="1.00356870330870151519775390625">
        <ele>1640.199951171875</ele>
        <time>2020-08-13T14:22:42.000Z</time>
      </trkpt>
      <trkpt lat="42.45949032716453075408935546875" lon="1.0035094432532787322998046875">
        <ele>1640</ele>
        <time>2020-08-13T14:22:44.000Z</time>
      </trkpt>
      <trkpt lat="42.45951044373214244842529296875" lon="1.0033575631678104400634765625">
        <ele>1639.4000244140625</ele>
        <time>2020-08-13T14:22:49.000Z</time>
      </trkpt>
      <trkpt lat="42.459513880312442779541015625" lon="1.003323532640933990478515625">
        <ele>1639.199951171875</ele>
        <time>2020-08-13T14:22:50.000Z</time>
      </trkpt>
      <trkpt lat="42.459521256387233734130859375" lon="1.0031865723431110382080078125">
        <ele>1638</ele>
        <time>2020-08-13T14:22:54.000Z</time>
      </trkpt>
      <trkpt lat="42.45952628552913665771484375" lon="1.003155224025249481201171875">
        <ele>1638</ele>
        <time>2020-08-13T14:22:55.000Z</time>
      </trkpt>
      <trkpt lat="42.45956827886402606964111328125" lon="1.00293821655213832855224609375">
        <ele>1637</ele>
        <time>2020-08-13T14:23:01.000Z</time>
      </trkpt>
      <trkpt lat="42.45958185754716396331787109375" lon="1.00285707972943782806396484375">
        <ele>1635.800048828125</ele>
        <time>2020-08-13T14:23:03.000Z</time>
      </trkpt>
      <trkpt lat="42.45961588807404041290283203125" lon="1.00269849412143230438232421875">
        <ele>1634.5999755859375</ele>
        <time>2020-08-13T14:23:07.000Z</time>
      </trkpt>
      <trkpt lat="42.4596355855464935302734375" lon="1.00261978805065155029296875">
        <ele>1634.199951171875</ele>
        <time>2020-08-13T14:23:09.000Z</time>
      </trkpt>
      <trkpt lat="42.45965746231377124786376953125" lon="1.0025495477020740509033203125">
        <ele>1633.5999755859375</ele>
        <time>2020-08-13T14:23:11.000Z</time>
      </trkpt>
      <trkpt lat="42.4596987850964069366455078125" lon="1.0024365596473217010498046875">
        <ele>1632.4000244140625</ele>
        <time>2020-08-13T14:23:15.000Z</time>
      </trkpt>
      <trkpt lat="42.45974329300224781036376953125" lon="1.00225509144365787506103515625">
        <ele>1631.4000244140625</ele>
        <time>2020-08-13T14:23:20.000Z</time>
      </trkpt>
      <trkpt lat="42.459756620228290557861328125" lon="1.00221368484199047088623046875">
        <ele>1631</ele>
        <time>2020-08-13T14:23:21.000Z</time>
      </trkpt>
      <trkpt lat="42.45978570543229579925537109375" lon="1.00212735123932361602783203125">
        <ele>1630.5999755859375</ele>
        <time>2020-08-13T14:23:23.000Z</time>
      </trkpt>
      <trkpt lat="42.45986114256083965301513671875" lon="1.0018481500446796417236328125">
        <ele>1630.5999755859375</ele>
        <time>2020-08-13T14:23:29.000Z</time>
      </trkpt>
      <trkpt lat="42.45985896326601505279541015625" lon="1.00169132463634014129638671875">
        <ele>1629.199951171875</ele>
        <time>2020-08-13T14:23:33.000Z</time>
      </trkpt>
      <trkpt lat="42.459843792021274566650390625" lon="1.00157632492482662200927734375">
        <ele>1629</ele>
        <time>2020-08-13T14:23:36.000Z</time>
      </trkpt>
      <trkpt lat="42.4598503299057483673095703125" lon="1.00142142735421657562255859375">
        <ele>1628.4000244140625</ele>
        <time>2020-08-13T14:23:40.000Z</time>
      </trkpt>
      <trkpt lat="42.4598526768386363983154296875" lon="1.00138756446540355682373046875">
        <ele>1628.199951171875</ele>
        <time>2020-08-13T14:23:41.000Z</time>
      </trkpt>
      <trkpt lat="42.4598479829728603363037109375" lon="1.001355461776256561279296875">
        <ele>1628</ele>
        <time>2020-08-13T14:23:42.000Z</time>
      </trkpt>
      <trkpt lat="42.4598137848079204559326171875" lon="1.00131279788911342620849609375">
        <ele>1627.199951171875</ele>
        <time>2020-08-13T14:23:44.000Z</time>
      </trkpt>
      <trkpt lat="42.45971211232244968414306640625" lon="1.00134314037859439849853515625">
        <ele>1626.199951171875</ele>
        <time>2020-08-13T14:23:48.000Z</time>
      </trkpt>
      <trkpt lat="42.459690570831298828125" lon="1.00137247703969478607177734375">
        <ele>1625.800048828125</ele>
        <time>2020-08-13T14:23:49.000Z</time>
      </trkpt>
      <trkpt lat="42.45963969267904758453369140625" lon="1.00150072015821933746337890625">
        <ele>1624.5999755859375</ele>
        <time>2020-08-13T14:23:52.000Z</time>
      </trkpt>
      <trkpt lat="42.45955981314182281494140625" lon="1.00178050808608531951904296875">
        <ele>1623.199951171875</ele>
        <time>2020-08-13T14:23:57.000Z</time>
      </trkpt>
      <trkpt lat="42.45954564772546291351318359375" lon="1.00183926522731781005859375">
        <ele>1622.199951171875</ele>
        <time>2020-08-13T14:23:58.000Z</time>
      </trkpt>
      <trkpt lat="42.45953391306102275848388671875" lon="1.00189886055886745452880859375">
        <ele>1621.4000244140625</ele>
        <time>2020-08-13T14:23:59.000Z</time>
      </trkpt>
      <trkpt lat="42.4595090188086032867431640625" lon="1.0020171292126178741455078125">
        <ele>1620.4000244140625</ele>
        <time>2020-08-13T14:24:01.000Z</time>
      </trkpt>
      <trkpt lat="42.45949300937354564666748046875" lon="1.0020751319825649261474609375">
        <ele>1620</ele>
        <time>2020-08-13T14:24:02.000Z</time>
      </trkpt>
      <trkpt lat="42.459447495639324188232421875" lon="1.00218837149441242218017578125">
        <ele>1618.5999755859375</ele>
        <time>2020-08-13T14:24:04.000Z</time>
      </trkpt>
      <trkpt lat="42.459416650235652923583984375" lon="1.00223899818956851959228515625">
        <ele>1618.199951171875</ele>
        <time>2020-08-13T14:24:05.000Z</time>
      </trkpt>
      <trkpt lat="42.45934532023966312408447265625" lon="1.00232130847871303558349609375">
        <ele>1617.800048828125</ele>
        <time>2020-08-13T14:24:07.000Z</time>
      </trkpt>
      <trkpt lat="42.45928949676454067230224609375" lon="1.00237713195383548736572265625">
        <ele>1618.199951171875</ele>
        <time>2020-08-13T14:24:09.000Z</time>
      </trkpt>
      <trkpt lat="42.4591895006597042083740234375" lon="1.00250386632978916168212890625">
        <ele>1618.800048828125</ele>
        <time>2020-08-13T14:24:15.000Z</time>
      </trkpt>
      <trkpt lat="42.45912957005202770233154296875" lon="1.00273487158119678497314453125">
        <ele>1617.800048828125</ele>
        <time>2020-08-13T14:24:21.000Z</time>
      </trkpt>
      <trkpt lat="42.45911397971212863922119140625" lon="1.00298683159053325653076171875">
        <ele>1617</ele>
        <time>2020-08-13T14:24:26.000Z</time>
      </trkpt>
      <trkpt lat="42.4590996466577053070068359375" lon="1.00303930230438709259033203125">
        <ele>1617</ele>
        <time>2020-08-13T14:24:27.000Z</time>
      </trkpt>
      <trkpt lat="42.45908363722264766693115234375" lon="1.0030866600573062896728515625">
        <ele>1616.5999755859375</ele>
        <time>2020-08-13T14:24:28.000Z</time>
      </trkpt>
      <trkpt lat="42.45898003689944744110107421875" lon="1.0033106245100498199462890625">
        <ele>1615.800048828125</ele>
        <time>2020-08-13T14:24:34.000Z</time>
      </trkpt>
      <trkpt lat="42.4589618481695652008056640625" lon="1.0033391229808330535888671875">
        <ele>1615.5999755859375</ele>
        <time>2020-08-13T14:24:35.000Z</time>
      </trkpt>
      <trkpt lat="42.458826564252376556396484375" lon="1.00344766862690448760986328125">
        <ele>1614.5999755859375</ele>
        <time>2020-08-13T14:24:40.000Z</time>
      </trkpt>
      <trkpt lat="42.458734028041362762451171875" lon="1.00350894033908843994140625">
        <ele>1613.4000244140625</ele>
        <time>2020-08-13T14:24:43.000Z</time>
      </trkpt>
      <trkpt lat="42.4586218781769275665283203125" lon="1.00363659672439098358154296875">
        <ele>1612.5999755859375</ele>
        <time>2020-08-13T14:24:47.000Z</time>
      </trkpt>
      <trkpt lat="42.45860226452350616455078125" lon="1.00366626866161823272705078125">
        <ele>1612.4000244140625</ele>
        <time>2020-08-13T14:24:48.000Z</time>
      </trkpt>
      <trkpt lat="42.458474524319171905517578125" lon="1.0037907399237155914306640625">
        <ele>1611.199951171875</ele>
        <time>2020-08-13T14:24:53.000Z</time>
      </trkpt>
      <trkpt lat="42.45844803750514984130859375" lon="1.0038142092525959014892578125">
        <ele>1610.800048828125</ele>
        <time>2020-08-13T14:24:54.000Z</time>
      </trkpt>
      <trkpt lat="42.4584207125008106231689453125" lon="1.0038360022008419036865234375">
        <ele>1610.4000244140625</ele>
        <time>2020-08-13T14:24:55.000Z</time>
      </trkpt>
      <trkpt lat="42.4582929722964763641357421875" lon="1.00395879708230495452880859375">
        <ele>1609.199951171875</ele>
        <time>2020-08-13T14:25:00.000Z</time>
      </trkpt>
      <trkpt lat="42.4582671560347080230712890625" lon="1.0039848648011684417724609375">
        <ele>1608.800048828125</ele>
        <time>2020-08-13T14:25:01.000Z</time>
      </trkpt>
      <trkpt lat="42.45821611024439334869384765625" lon="1.00405233912169933319091796875">
        <ele>1608</ele>
        <time>2020-08-13T14:25:03.000Z</time>
      </trkpt>
      <trkpt lat="42.458111084997653961181640625" lon="1.00421042181551456451416015625">
        <ele>1607</ele>
        <time>2020-08-13T14:25:07.000Z</time>
      </trkpt>
      <trkpt lat="42.45798326097428798675537109375" lon="1.0043325461447238922119140625">
        <ele>1605.800048828125</ele>
        <time>2020-08-13T14:25:11.000Z</time>
      </trkpt>
      <trkpt lat="42.457945458590984344482421875" lon="1.004365570843219757080078125">
        <ele>1605.4000244140625</ele>
        <time>2020-08-13T14:25:12.000Z</time>
      </trkpt>
      <trkpt lat="42.4579067341983318328857421875" lon="1.00440169684588909149169921875">
        <ele>1604.5999755859375</ele>
        <time>2020-08-13T14:25:13.000Z</time>
      </trkpt>
      <trkpt lat="42.4578286148607730865478515625" lon="1.00449171848595142364501953125">
        <ele>1603.4000244140625</ele>
        <time>2020-08-13T14:25:15.000Z</time>
      </trkpt>
      <trkpt lat="42.457767091691493988037109375" lon="1.00460537709295749664306640625">
        <ele>1603.199951171875</ele>
        <time>2020-08-13T14:25:17.000Z</time>
      </trkpt>
      <trkpt lat="42.4577199853956699371337890625" lon="1.00473093800246715545654296875">
        <ele>1603</ele>
        <time>2020-08-13T14:25:19.000Z</time>
      </trkpt>
      <trkpt lat="42.45766776613891124725341796875" lon="1.00490427576005458831787109375">
        <ele>1602.800048828125</ele>
        <time>2020-08-13T14:25:22.000Z</time>
      </trkpt>
      <trkpt lat="42.45765921659767627716064453125" lon="1.0049606859683990478515625">
        <ele>1602.4000244140625</ele>
        <time>2020-08-13T14:25:23.000Z</time>
      </trkpt>
      <trkpt lat="42.457651756703853607177734375" lon="1.0050735063850879669189453125">
        <ele>1601.199951171875</ele>
        <time>2020-08-13T14:25:25.000Z</time>
      </trkpt>
      <trkpt lat="42.4576505832374095916748046875" lon="1.00513477809727191925048828125">
        <ele>1600.800048828125</ele>
        <time>2020-08-13T14:25:26.000Z</time>
      </trkpt>
      <trkpt lat="42.45764865539968013763427734375" lon="1.00519873201847076416015625">
        <ele>1600.5999755859375</ele>
        <time>2020-08-13T14:25:27.000Z</time>
      </trkpt>
      <trkpt lat="42.45764412917196750640869140625" lon="1.00526436232030391693115234375">
        <ele>1600.5999755859375</ele>
        <time>2020-08-13T14:25:28.000Z</time>
      </trkpt>
      <trkpt lat="42.4576002918183803558349609375" lon="1.00545915775001049041748046875">
        <ele>1600</ele>
        <time>2020-08-13T14:25:31.000Z</time>
      </trkpt>
      <trkpt lat="42.45754824019968509674072265625" lon="1.00564674474298954010009765625">
        <ele>1599</ele>
        <time>2020-08-13T14:25:34.000Z</time>
      </trkpt>
      <trkpt lat="42.45751337148249149322509765625" lon="1.0057554580271244049072265625">
        <ele>1598.199951171875</ele>
        <time>2020-08-13T14:25:36.000Z</time>
      </trkpt>
      <trkpt lat="42.4574641697108745574951171875" lon="1.0058238543570041656494140625">
        <ele>1598</ele>
        <time>2020-08-13T14:25:38.000Z</time>
      </trkpt>
      <trkpt lat="42.45743039064109325408935546875" lon="1.00583047606050968170166015625">
        <ele>1597.800048828125</ele>
        <time>2020-08-13T14:25:39.000Z</time>
      </trkpt>
      <trkpt lat="42.4573572166264057159423828125" lon="1.0057829506695270538330078125">
        <ele>1597.800048828125</ele>
        <time>2020-08-13T14:25:42.000Z</time>
      </trkpt>
      <trkpt lat="42.45734036900103092193603515625" lon="1.00576241500675678253173828125">
        <ele>1597.800048828125</ele>
        <time>2020-08-13T14:25:43.000Z</time>
      </trkpt>
      <trkpt lat="42.457293011248111724853515625" lon="1.0056994669139385223388671875">
        <ele>1598.4000244140625</ele>
        <time>2020-08-13T14:25:47.000Z</time>
      </trkpt>
      <trkpt lat="42.457284629344940185546875" lon="1.0056840442121028900146484375">
        <ele>1598.5999755859375</ele>
        <time>2020-08-13T14:25:48.000Z</time>
      </trkpt>
      <trkpt lat="42.45720122940838336944580078125" lon="1.00556007586419582366943359375">
        <ele>1598.800048828125</ele>
        <time>2020-08-13T14:25:53.000Z</time>
      </trkpt>
      <trkpt lat="42.4570740759372711181640625" lon="1.0053085349500179290771484375">
        <ele>1597.4000244140625</ele>
        <time>2020-08-13T14:26:00.000Z</time>
      </trkpt>
      <trkpt lat="42.45706669986248016357421875" lon="1.00520133040845394134521484375">
        <ele>1596.5999755859375</ele>
        <time>2020-08-13T14:26:02.000Z</time>
      </trkpt>
      <trkpt lat="42.45704247616231441497802734375" lon="1.0049739293754100799560546875">
        <ele>1595.800048828125</ele>
        <time>2020-08-13T14:26:07.000Z</time>
      </trkpt>
      <trkpt lat="42.45701749809086322784423828125" lon="1.00489706732332706451416015625">
        <ele>1595.5999755859375</ele>
        <time>2020-08-13T14:26:09.000Z</time>
      </trkpt>
      <trkpt lat="42.45693032629787921905517578125" lon="1.004695482552051544189453125">
        <ele>1594.5999755859375</ele>
        <time>2020-08-13T14:26:14.000Z</time>
      </trkpt>
      <trkpt lat="42.4568767659366130828857421875" lon="1.00456430576741695404052734375">
        <ele>1593.199951171875</ele>
        <time>2020-08-13T14:26:17.000Z</time>
      </trkpt>
      <trkpt lat="42.4567999877035617828369140625" lon="1.00435945205390453338623046875">
        <ele>1592.199951171875</ele>
        <time>2020-08-13T14:26:22.000Z</time>
      </trkpt>
      <trkpt lat="42.45678582228720188140869140625" lon="1.00432097911834716796875">
        <ele>1592</ele>
        <time>2020-08-13T14:26:23.000Z</time>
      </trkpt>
      <trkpt lat="42.4567158333957195281982421875" lon="1.0041722841560840606689453125">
        <ele>1591</ele>
        <time>2020-08-13T14:26:27.000Z</time>
      </trkpt>
      <trkpt lat="42.4566786177456378936767578125" lon="1.00409994833171367645263671875">
        <ele>1590</ele>
        <time>2020-08-13T14:26:29.000Z</time>
      </trkpt>
      <trkpt lat="42.4566279910504817962646484375" lon="1.00404404103755950927734375">
        <ele>1588.800048828125</ele>
        <time>2020-08-13T14:26:31.000Z</time>
      </trkpt>
      <trkpt lat="42.45656185783445835113525390625" lon="1.00403465330600738525390625">
        <ele>1587.5999755859375</ele>
        <time>2020-08-13T14:26:33.000Z</time>
      </trkpt>
      <trkpt lat="42.45646982453763484954833984375" lon="1.0040955059230327606201171875">
        <ele>1586.4000244140625</ele>
        <time>2020-08-13T14:26:36.000Z</time>
      </trkpt>
      <trkpt lat="42.45644845068454742431640625" lon="1.00413179956376552581787109375">
        <ele>1586</ele>
        <time>2020-08-13T14:26:37.000Z</time>
      </trkpt>
      <trkpt lat="42.45643059723079204559326171875" lon="1.00417303852736949920654296875">
        <ele>1585.199951171875</ele>
        <time>2020-08-13T14:26:38.000Z</time>
      </trkpt>
      <trkpt lat="42.45638013817369937896728515625" lon="1.00429960526525974273681640625">
        <ele>1584</ele>
        <time>2020-08-13T14:26:41.000Z</time>
      </trkpt>
      <trkpt lat="42.45632909238338470458984375" lon="1.00435827858746051788330078125">
        <ele>1582.4000244140625</ele>
        <time>2020-08-13T14:26:43.000Z</time>
      </trkpt>
      <trkpt lat="42.45623244903981685638427734375" lon="1.004333384335041046142578125">
        <ele>1581.5999755859375</ele>
        <time>2020-08-13T14:26:46.000Z</time>
      </trkpt>
      <trkpt lat="42.456213422119617462158203125" lon="1.00430019199848175048828125">
        <ele>1581</ele>
        <time>2020-08-13T14:26:47.000Z</time>
      </trkpt>
      <trkpt lat="42.456202693283557891845703125" lon="1.00418158806860446929931640625">
        <ele>1580.5999755859375</ele>
        <time>2020-08-13T14:26:50.000Z</time>
      </trkpt>
      <trkpt lat="42.4562796391546726226806640625" lon="1.0039982758462429046630859375">
        <ele>1580</ele>
        <time>2020-08-13T14:26:54.000Z</time>
      </trkpt>
      <trkpt lat="42.456311322748661041259765625" lon="1.00395024754106998443603515625">
        <ele>1579.4000244140625</ele>
        <time>2020-08-13T14:26:55.000Z</time>
      </trkpt>
      <trkpt lat="42.45634250342845916748046875" lon="1.00390590727329254150390625">
        <ele>1579</ele>
        <time>2020-08-13T14:26:56.000Z</time>
      </trkpt>
      <trkpt lat="42.4563740193843841552734375" lon="1.0038715414702892303466796875">
        <ele>1578.5999755859375</ele>
        <time>2020-08-13T14:26:57.000Z</time>
      </trkpt>
      <trkpt lat="42.4564331956207752227783203125" lon="1.00381127558648586273193359375">
        <ele>1578.199951171875</ele>
        <time>2020-08-13T14:26:59.000Z</time>
      </trkpt>
      <trkpt lat="42.456485331058502197265625" lon="1.00370046682655811309814453125">
        <ele>1577.5999755859375</ele>
        <time>2020-08-13T14:27:02.000Z</time>
      </trkpt>
      <trkpt lat="42.45648189447820186614990234375" lon="1.0036666877567768096923828125">
        <ele>1577.5999755859375</ele>
        <time>2020-08-13T14:27:03.000Z</time>
      </trkpt>
      <trkpt lat="42.456441409885883331298828125" lon="1.003625281155109405517578125">
        <ele>1576.5999755859375</ele>
        <time>2020-08-13T14:27:05.000Z</time>
      </trkpt>
      <trkpt lat="42.45641333051025867462158203125" lon="1.00362838245928287506103515625">
        <ele>1576.199951171875</ele>
        <time>2020-08-13T14:27:06.000Z</time>
      </trkpt>
      <trkpt lat="42.45629045180976390838623046875" lon="1.00372326560318470001220703125">
        <ele>1575.4000244140625</ele>
        <time>2020-08-13T14:27:10.000Z</time>
      </trkpt>
      <trkpt lat="42.45620562694966793060302734375" lon="1.00383885204792022705078125">
        <ele>1574.199951171875</ele>
        <time>2020-08-13T14:27:14.000Z</time>
      </trkpt>
      <trkpt lat="42.45611761696636676788330078125" lon="1.00392862223088741302490234375">
        <ele>1573.5999755859375</ele>
        <time>2020-08-13T14:27:19.000Z</time>
      </trkpt>
      <trkpt lat="42.45609029196202754974365234375" lon="1.003940105438232421875">
        <ele>1573</ele>
        <time>2020-08-13T14:27:20.000Z</time>
      </trkpt>
      <trkpt lat="42.45606296695768833160400390625" lon="1.00393868051469326019287109375">
        <ele>1572.4000244140625</ele>
        <time>2020-08-13T14:27:21.000Z</time>
      </trkpt>
      <trkpt lat="42.45601871050894260406494140625" lon="1.00390666164457798004150390625">
        <ele>1571.800048828125</ele>
        <time>2020-08-13T14:27:23.000Z</time>
      </trkpt>
      <trkpt lat="42.456009574234485626220703125" lon="1.00381831638514995574951171875">
        <ele>1571.5999755859375</ele>
        <time>2020-08-13T14:27:26.000Z</time>
      </trkpt>
      <trkpt lat="42.4560467898845672607421875" lon="1.003762744367122650146484375">
        <ele>1570.4000244140625</ele>
        <time>2020-08-13T14:27:28.000Z</time>
      </trkpt>
      <trkpt lat="42.4561254121363162994384765625" lon="1.0036857984960079193115234375">
        <ele>1569</ele>
        <time>2020-08-13T14:27:31.000Z</time>
      </trkpt>
      <trkpt lat="42.45618182234466075897216796875" lon="1.00362737663090229034423828125">
        <ele>1568</ele>
        <time>2020-08-13T14:27:33.000Z</time>
      </trkpt>
      <trkpt lat="42.4562320299446582794189453125" lon="1.00356719456613063812255859375">
        <ele>1566.800048828125</ele>
        <time>2020-08-13T14:27:35.000Z</time>
      </trkpt>
      <trkpt lat="42.45626731775701045989990234375" lon="1.00348614156246185302734375">
        <ele>1565.199951171875</ele>
        <time>2020-08-13T14:27:37.000Z</time>
      </trkpt>
      <trkpt lat="42.45627938769757747650146484375" lon="1.0033954493701457977294921875">
        <ele>1564.199951171875</ele>
        <time>2020-08-13T14:27:39.000Z</time>
      </trkpt>
      <trkpt lat="42.45628827251493930816650390625" lon="1.003204844892024993896484375">
        <ele>1563.4000244140625</ele>
        <time>2020-08-13T14:27:43.000Z</time>
      </trkpt>
      <trkpt lat="42.45630151592195034027099609375" lon="1.00315153598785400390625">
        <ele>1563</ele>
        <time>2020-08-13T14:27:44.000Z</time>
      </trkpt>
      <trkpt lat="42.4563812278211116790771484375" lon="1.00303276441991329193115234375">
        <ele>1562.199951171875</ele>
        <time>2020-08-13T14:27:47.000Z</time>
      </trkpt>
      <trkpt lat="42.45641634799540042877197265625" lon="1.0030216164886951446533203125">
        <ele>1561.800048828125</ele>
        <time>2020-08-13T14:27:48.000Z</time>
      </trkpt>
      <trkpt lat="42.45649714954197406768798828125" lon="1.00304131396114826202392578125">
        <ele>1560.199951171875</ele>
        <time>2020-08-13T14:27:50.000Z</time>
      </trkpt>
      <trkpt lat="42.45658448897302150726318359375" lon="1.00309722125530242919921875">
        <ele>1559.199951171875</ele>
        <time>2020-08-13T14:27:52.000Z</time>
      </trkpt>
      <trkpt lat="42.45664668269455432891845703125" lon="1.00318732671439647674560546875">
        <ele>1558.5999755859375</ele>
        <time>2020-08-13T14:27:54.000Z</time>
      </trkpt>
      <trkpt lat="42.45667099021375179290771484375" lon="1.00323342718183994293212890625">
        <ele>1558.199951171875</ele>
        <time>2020-08-13T14:27:55.000Z</time>
      </trkpt>
      <trkpt lat="42.4566930346190929412841796875" lon="1.0032762587070465087890625">
        <ele>1557.800048828125</ele>
        <time>2020-08-13T14:27:56.000Z</time>
      </trkpt>
      <trkpt lat="42.45673678815364837646484375" lon="1.00341933779418468475341796875">
        <ele>1556.4000244140625</ele>
        <time>2020-08-13T14:27:59.000Z</time>
      </trkpt>
      <trkpt lat="42.45677006430923938751220703125" lon="1.003515981137752532958984375">
        <ele>1555.199951171875</ele>
        <time>2020-08-13T14:28:01.000Z</time>
      </trkpt>
      <trkpt lat="42.4568177573382854461669921875" lon="1.00360147655010223388671875">
        <ele>1554.4000244140625</ele>
        <time>2020-08-13T14:28:03.000Z</time>
      </trkpt>
      <trkpt lat="42.45685019530355930328369140625" lon="1.003636009991168975830078125">
        <ele>1554.199951171875</ele>
        <time>2020-08-13T14:28:04.000Z</time>
      </trkpt>
      <trkpt lat="42.45688498020172119140625" lon="1.003658808767795562744140625">
        <ele>1552.800048828125</ele>
        <time>2020-08-13T14:28:05.000Z</time>
      </trkpt>
      <trkpt lat="42.45694776065647602081298828125" lon="1.00366719067096710205078125">
        <ele>1551.4000244140625</ele>
        <time>2020-08-13T14:28:07.000Z</time>
      </trkpt>
      <trkpt lat="42.45697324164211750030517578125" lon="1.0036462359130382537841796875">
        <ele>1551.199951171875</ele>
        <time>2020-08-13T14:28:08.000Z</time>
      </trkpt>
      <trkpt lat="42.45700978673994541168212890625" lon="1.00355093367397785186767578125">
        <ele>1551</ele>
        <time>2020-08-13T14:28:11.000Z</time>
      </trkpt>
      <trkpt lat="42.457018084824085235595703125" lon="1.00351673550903797149658203125">
        <ele>1551</ele>
        <time>2020-08-13T14:28:12.000Z</time>
      </trkpt>
      <trkpt lat="42.45705203153192996978759765625" lon="1.00340223871171474456787109375">
        <ele>1550.4000244140625</ele>
        <time>2020-08-13T14:28:15.000Z</time>
      </trkpt>
      <trkpt lat="42.4570920132100582122802734375" lon="1.00327215157449245452880859375">
        <ele>1549.199951171875</ele>
        <time>2020-08-13T14:28:18.000Z</time>
      </trkpt>
      <trkpt lat="42.457105927169322967529296875" lon="1.0032279789447784423828125">
        <ele>1548.800048828125</ele>
        <time>2020-08-13T14:28:19.000Z</time>
      </trkpt>
      <trkpt lat="42.45712076313793659210205078125" lon="1.0031252168118953704833984375">
        <ele>1548</ele>
        <time>2020-08-13T14:28:21.000Z</time>
      </trkpt>
      <trkpt lat="42.45712646283209323883056640625" lon="1.0030735842883586883544921875">
        <ele>1547</ele>
        <time>2020-08-13T14:28:22.000Z</time>
      </trkpt>
      <trkpt lat="42.45712545700371265411376953125" lon="1.00302278995513916015625">
        <ele>1545.5999755859375</ele>
        <time>2020-08-13T14:28:23.000Z</time>
      </trkpt>
      <trkpt lat="42.4571060948073863983154296875" lon="1.0028657130897045135498046875">
        <ele>1544</ele>
        <time>2020-08-13T14:28:26.000Z</time>
      </trkpt>
      <trkpt lat="42.4570874869823455810546875" lon="1.0027523897588253021240234375">
        <ele>1543.5999755859375</ele>
        <time>2020-08-13T14:28:28.000Z</time>
      </trkpt>
      <trkpt lat="42.4570782668888568878173828125" lon="1.00269447080790996551513671875">
        <ele>1543.4000244140625</ele>
        <time>2020-08-13T14:28:29.000Z</time>
      </trkpt>
      <trkpt lat="42.457079775631427764892578125" lon="1.00259296596050262451171875">
        <ele>1542</ele>
        <time>2020-08-13T14:28:31.000Z</time>
      </trkpt>
      <trkpt lat="42.45708539150655269622802734375" lon="1.002553738653659820556640625">
        <ele>1541.199951171875</ele>
        <time>2020-08-13T14:28:32.000Z</time>
      </trkpt>
      <trkpt lat="42.45709352195262908935546875" lon="1.00251828320324420928955078125">
        <ele>1540.4000244140625</ele>
        <time>2020-08-13T14:28:33.000Z</time>
      </trkpt>
      <trkpt lat="42.45712730102241039276123046875" lon="1.00246313028037548065185546875">
        <ele>1538.800048828125</ele>
        <time>2020-08-13T14:28:35.000Z</time>
      </trkpt>
      <trkpt lat="42.457188405096530914306640625" lon="1.0024154372513294219970703125">
        <ele>1538.4000244140625</ele>
        <time>2020-08-13T14:28:37.000Z</time>
      </trkpt>
      <trkpt lat="42.4572254531085491180419921875" lon="1.00239339284598827362060546875">
        <ele>1537.800048828125</ele>
        <time>2020-08-13T14:28:38.000Z</time>
      </trkpt>
      <trkpt lat="42.45730030350387096405029296875" lon="1.002343855798244476318359375">
        <ele>1537.5999755859375</ele>
        <time>2020-08-13T14:28:40.000Z</time>
      </trkpt>
      <trkpt lat="42.457377500832080841064453125" lon="1.00227034650743007659912109375">
        <ele>1537.4000244140625</ele>
        <time>2020-08-13T14:28:42.000Z</time>
      </trkpt>
      <trkpt lat="42.45741362683475017547607421875" lon="1.0022307001054286956787109375">
        <ele>1536</ele>
        <time>2020-08-13T14:28:43.000Z</time>
      </trkpt>
      <trkpt lat="42.457515634596347808837890625" lon="1.00211762823164463043212890625">
        <ele>1534</ele>
        <time>2020-08-13T14:28:46.000Z</time>
      </trkpt>
      <trkpt lat="42.45754606090486049652099609375" lon="1.0020838491618633270263671875">
        <ele>1533</ele>
        <time>2020-08-13T14:28:47.000Z</time>
      </trkpt>
      <trkpt lat="42.45760423131287097930908203125" lon="1.00201285444200038909912109375">
        <ele>1532</ele>
        <time>2020-08-13T14:28:49.000Z</time>
      </trkpt>
      <trkpt lat="42.45763398706912994384765625" lon="1.00196910090744495391845703125">
        <ele>1531.5999755859375</ele>
        <time>2020-08-13T14:28:50.000Z</time>
      </trkpt>
      <trkpt lat="42.4576743878424167633056640625" lon="1.0018551908433437347412109375">
        <ele>1530.800048828125</ele>
        <time>2020-08-13T14:28:52.000Z</time>
      </trkpt>
      <trkpt lat="42.45768855325877666473388671875" lon="1.00179039873182773590087890625">
        <ele>1530.4000244140625</ele>
        <time>2020-08-13T14:28:53.000Z</time>
      </trkpt>
      <trkpt lat="42.4577256850898265838623046875" lon="1.0016583837568759918212890625">
        <ele>1529.199951171875</ele>
        <time>2020-08-13T14:28:55.000Z</time>
      </trkpt>
      <trkpt lat="42.45774605311453342437744140625" lon="1.0015930049121379852294921875">
        <ele>1528.5999755859375</ele>
        <time>2020-08-13T14:28:56.000Z</time>
      </trkpt>
      <trkpt lat="42.45778955519199371337890625" lon="1.00148093886673450469970703125">
        <ele>1528.4000244140625</ele>
        <time>2020-08-13T14:28:58.000Z</time>
      </trkpt>
      <trkpt lat="42.457923330366611480712890625" lon="1.0013462416827678680419921875">
        <ele>1530</ele>
        <time>2020-08-13T14:29:02.000Z</time>
      </trkpt>
      <trkpt lat="42.457999102771282196044921875" lon="1.00120768882334232330322265625">
        <ele>1529.199951171875</ele>
        <time>2020-08-13T14:29:05.000Z</time>
      </trkpt>
      <trkpt lat="42.45801695622503757476806640625" lon="1.00109671242535114288330078125">
        <ele>1528.5999755859375</ele>
        <time>2020-08-13T14:29:07.000Z</time>
      </trkpt>
      <trkpt lat="42.45803841389715671539306640625" lon="1.00098389200866222381591796875">
        <ele>1528</ele>
        <time>2020-08-13T14:29:09.000Z</time>
      </trkpt>
      <trkpt lat="42.458056099712848663330078125" lon="1.00093108601868152618408203125">
        <ele>1527.5999755859375</ele>
        <time>2020-08-13T14:29:10.000Z</time>
      </trkpt>
      <trkpt lat="42.4581501446664333343505859375" lon="1.000709719955921173095703125">
        <ele>1527.199951171875</ele>
        <time>2020-08-13T14:29:14.000Z</time>
      </trkpt>
      <trkpt lat="42.45816514827311038970947265625" lon="1.0006478615105152130126953125">
        <ele>1527</ele>
        <time>2020-08-13T14:29:15.000Z</time>
      </trkpt>
      <trkpt lat="42.45817839168012142181396484375" lon="1.000589691102504730224609375">
        <ele>1526.5999755859375</ele>
        <time>2020-08-13T14:29:16.000Z</time>
      </trkpt>
      <trkpt lat="42.458209991455078125" lon="1.0004840791225433349609375">
        <ele>1526.199951171875</ele>
        <time>2020-08-13T14:29:18.000Z</time>
      </trkpt>
      <trkpt lat="42.45823270641267299652099609375" lon="1.00043554790318012237548828125">
        <ele>1526</ele>
        <time>2020-08-13T14:29:19.000Z</time>
      </trkpt>
      <trkpt lat="42.45832188986241817474365234375" lon="1.00028014741837978363037109375">
        <ele>1525.5999755859375</ele>
        <time>2020-08-13T14:29:22.000Z</time>
      </trkpt>
      <trkpt lat="42.4583503045141696929931640625" lon="1.000229604542255401611328125">
        <ele>1525.4000244140625</ele>
        <time>2020-08-13T14:29:23.000Z</time>
      </trkpt>
      <trkpt lat="42.4583731032907962799072265625" lon="1.00018191151320934295654296875">
        <ele>1525.199951171875</ele>
        <time>2020-08-13T14:29:24.000Z</time>
      </trkpt>
      <trkpt lat="42.45839305222034454345703125" lon="1.00014000199735164642333984375">
        <ele>1524.800048828125</ele>
        <time>2020-08-13T14:29:25.000Z</time>
      </trkpt>
      <trkpt lat="42.45844795368611812591552734375" lon="1.00002885796129703521728515625">
        <ele>1524</ele>
        <time>2020-08-13T14:29:28.000Z</time>
      </trkpt>
      <trkpt lat="42.458464801311492919921875" lon="0.99998309276998043060302734375">
        <ele>1523.800048828125</ele>
        <time>2020-08-13T14:29:29.000Z</time>
      </trkpt>
      <trkpt lat="42.45847913436591625213623046875" lon="0.99993095733225345611572265625">
        <ele>1523.199951171875</ele>
        <time>2020-08-13T14:29:30.000Z</time>
      </trkpt>
      <trkpt lat="42.458480559289455413818359375" lon="0.99980439059436321258544921875">
        <ele>1522.800048828125</ele>
        <time>2020-08-13T14:29:32.000Z</time>
      </trkpt>
      <trkpt lat="42.45847360230982303619384765625" lon="0.9997312165796756744384765625">
        <ele>1522.4000244140625</ele>
        <time>2020-08-13T14:29:33.000Z</time>
      </trkpt>
      <trkpt lat="42.45846387930214405059814453125" lon="0.99965955130755901336669921875">
        <ele>1521.800048828125</ele>
        <time>2020-08-13T14:29:34.000Z</time>
      </trkpt>
      <trkpt lat="42.45845113880932331085205078125" lon="0.999537594616413116455078125">
        <ele>1520.5999755859375</ele>
        <time>2020-08-13T14:29:36.000Z</time>
      </trkpt>
      <trkpt lat="42.4584488756954669952392578125" lon="0.9994311444461345672607421875">
        <ele>1519.800048828125</ele>
        <time>2020-08-13T14:29:38.000Z</time>
      </trkpt>
      <trkpt lat="42.45845566503703594207763671875" lon="0.9993855468928813934326171875">
        <ele>1519.5999755859375</ele>
        <time>2020-08-13T14:29:39.000Z</time>
      </trkpt>
      <trkpt lat="42.45849774219095706939697265625" lon="0.99925470538437366485595703125">
        <ele>1518.5999755859375</ele>
        <time>2020-08-13T14:29:42.000Z</time>
      </trkpt>
      <trkpt lat="42.4585212953388690948486328125" lon="0.99921899847686290740966796875">
        <ele>1517.5999755859375</ele>
        <time>2020-08-13T14:29:43.000Z</time>
      </trkpt>
      <trkpt lat="42.45854686014354228973388671875" lon="0.99917926825582981109619140625">
        <ele>1517.199951171875</ele>
        <time>2020-08-13T14:29:44.000Z</time>
      </trkpt>
      <trkpt lat="42.4586027674376964569091796875" lon="0.99910869263112545013427734375">
        <ele>1515.800048828125</ele>
        <time>2020-08-13T14:29:46.000Z</time>
      </trkpt>
      <trkpt lat="42.45862908661365509033203125" lon="0.999075584113597869873046875">
        <ele>1515</ele>
        <time>2020-08-13T14:29:47.000Z</time>
      </trkpt>
      <trkpt lat="42.458657585084438323974609375" lon="0.99904306232929229736328125">
        <ele>1513.800048828125</ele>
        <time>2020-08-13T14:29:48.000Z</time>
      </trkpt>
      <trkpt lat="42.458717264235019683837890625" lon="0.998983047902584075927734375">
        <ele>1512.800048828125</ele>
        <time>2020-08-13T14:29:50.000Z</time>
      </trkpt>
      <trkpt lat="42.45880234055221080780029296875" lon="0.99886075593531131744384765625">
        <ele>1511.5999755859375</ele>
        <time>2020-08-13T14:29:53.000Z</time>
      </trkpt>
      <trkpt lat="42.458824217319488525390625" lon="0.99873754195868968963623046875">
        <ele>1510.5999755859375</ele>
        <time>2020-08-13T14:29:56.000Z</time>
      </trkpt>
      <trkpt lat="42.4588190205395221710205078125" lon="0.9986982308328151702880859375">
        <ele>1510</ele>
        <time>2020-08-13T14:29:57.000Z</time>
      </trkpt>
      <trkpt lat="42.4588203616440296173095703125" lon="0.9986020065844058990478515625">
        <ele>1509</ele>
        <time>2020-08-13T14:29:59.000Z</time>
      </trkpt>
      <trkpt lat="42.45882530696690082550048828125" lon="0.998543165624141693115234375">
        <ele>1508.4000244140625</ele>
        <time>2020-08-13T14:30:00.000Z</time>
      </trkpt>
      <trkpt lat="42.45883000083267688751220703125" lon="0.99848373793065547943115234375">
        <ele>1508.199951171875</ele>
        <time>2020-08-13T14:30:01.000Z</time>
      </trkpt>
      <trkpt lat="42.458836622536182403564453125" lon="0.9984296746551990509033203125">
        <ele>1507.199951171875</ele>
        <time>2020-08-13T14:30:02.000Z</time>
      </trkpt>
      <trkpt lat="42.45886922813951969146728515625" lon="0.99833738990128040313720703125">
        <ele>1507</ele>
        <time>2020-08-13T14:30:04.000Z</time>
      </trkpt>
      <trkpt lat="42.45890879072248935699462890625" lon="0.9982449375092983245849609375">
        <ele>1506.800048828125</ele>
        <time>2020-08-13T14:30:06.000Z</time>
      </trkpt>
      <trkpt lat="42.4589534662663936614990234375" lon="0.99813957698643207550048828125">
        <ele>1506.4000244140625</ele>
        <time>2020-08-13T14:30:08.000Z</time>
      </trkpt>
      <trkpt lat="42.4589725770056247711181640625" lon="0.99808417260646820068359375">
        <ele>1505.800048828125</ele>
        <time>2020-08-13T14:30:09.000Z</time>
      </trkpt>
      <trkpt lat="42.45898691006004810333251953125" lon="0.99802893586456775665283203125">
        <ele>1504.5999755859375</ele>
        <time>2020-08-13T14:30:10.000Z</time>
      </trkpt>
      <trkpt lat="42.4589997343719005584716796875" lon="0.99796892143785953521728515625">
        <ele>1504</ele>
        <time>2020-08-13T14:30:11.000Z</time>
      </trkpt>
      <trkpt lat="42.45901532471179962158203125" lon="0.997910834848880767822265625">
        <ele>1503.4000244140625</ele>
        <time>2020-08-13T14:30:12.000Z</time>
      </trkpt>
      <trkpt lat="42.45903284288942813873291015625" lon="0.99785459227859973907470703125">
        <ele>1502</ele>
        <time>2020-08-13T14:30:13.000Z</time>
      </trkpt>
      <trkpt lat="42.45907089672982692718505859375" lon="0.99775367416441440582275390625">
        <ele>1500.4000244140625</ele>
        <time>2020-08-13T14:30:15.000Z</time>
      </trkpt>
      <trkpt lat="42.45911297388374805450439453125" lon="0.99767521955072879791259765625">
        <ele>1500</ele>
        <time>2020-08-13T14:30:17.000Z</time>
      </trkpt>
      <trkpt lat="42.459204755723476409912109375" lon="0.99755577743053436279296875">
        <ele>1499.5999755859375</ele>
        <time>2020-08-13T14:30:21.000Z</time>
      </trkpt>
      <trkpt lat="42.4592183344066143035888671875" lon="0.99753255955874919891357421875">
        <ele>1499.800048828125</ele>
        <time>2020-08-13T14:30:25.000Z</time>
      </trkpt>
      <trkpt lat="42.45921825058758258819580078125" lon="0.9975281171500682830810546875">
        <ele>1499.5999755859375</ele>
        <time>2020-08-13T14:30:31.000Z</time>
      </trkpt>
      <trkpt lat="42.45922495611011981964111328125" lon="0.99752954207360744476318359375">
        <ele>1499.5999755859375</ele>
        <time>2020-08-13T14:30:46.000Z</time>
      </trkpt>
      <trkpt lat="42.45922378264367580413818359375" lon="0.9975123591721057891845703125">
        <ele>1499.800048828125</ele>
        <time>2020-08-13T14:31:00.000Z</time>
      </trkpt>
      <trkpt lat="42.45917567051947116851806640625" lon="0.99743583239614963531494140625">
        <ele>1499.800048828125</ele>
        <time>2020-08-13T14:31:05.000Z</time>
      </trkpt>
      <trkpt lat="42.45911649428308010101318359375" lon="0.99744890816509723663330078125">
        <ele>1499.199951171875</ele>
        <time>2020-08-13T14:31:08.000Z</time>
      </trkpt>
      <trkpt lat="42.4590785242617130279541015625" lon="0.9974922426044940948486328125">
        <ele>1498.4000244140625</ele>
        <time>2020-08-13T14:31:10.000Z</time>
      </trkpt>
      <trkpt lat="42.4590594135224819183349609375" lon="0.99752266891300678253173828125">
        <ele>1497.800048828125</ele>
        <time>2020-08-13T14:31:11.000Z</time>
      </trkpt>
      <trkpt lat="42.45902244932949542999267578125" lon="0.9975948370993137359619140625">
        <ele>1496.800048828125</ele>
        <time>2020-08-13T14:31:13.000Z</time>
      </trkpt>
      <trkpt lat="42.4590044282376766204833984375" lon="0.99763222038745880126953125">
        <ele>1496.199951171875</ele>
        <time>2020-08-13T14:31:14.000Z</time>
      </trkpt>
      <trkpt lat="42.45896327309310436248779296875" lon="0.9977125190198421478271484375">
        <ele>1495.5999755859375</ele>
        <time>2020-08-13T14:31:16.000Z</time>
      </trkpt>
      <trkpt lat="42.45891113765537738800048828125" lon="0.9978087432682514190673828125">
        <ele>1494.800048828125</ele>
        <time>2020-08-13T14:31:18.000Z</time>
      </trkpt>
      <trkpt lat="42.45882614515721797943115234375" lon="0.99797814153134822845458984375">
        <ele>1493.800048828125</ele>
        <time>2020-08-13T14:31:21.000Z</time>
      </trkpt>
      <trkpt lat="42.45879496447741985321044921875" lon="0.99802977405488491058349609375">
        <ele>1493.5999755859375</ele>
        <time>2020-08-13T14:31:22.000Z</time>
      </trkpt>
      <trkpt lat="42.4586386419832706451416015625" lon="0.99821870215237140655517578125">
        <ele>1492.199951171875</ele>
        <time>2020-08-13T14:31:27.000Z</time>
      </trkpt>
      <trkpt lat="42.45855390094220638275146484375" lon="0.9984447620809078216552734375">
        <ele>1491.5999755859375</ele>
        <time>2020-08-13T14:31:32.000Z</time>
      </trkpt>
      <trkpt lat="42.45845247991383075714111328125" lon="0.99855984561145305633544921875">
        <ele>1490.800048828125</ele>
        <time>2020-08-13T14:31:36.000Z</time>
      </trkpt>
      <trkpt lat="42.45833580382168292999267578125" lon="0.9985959716141223907470703125">
        <ele>1488.5999755859375</ele>
        <time>2020-08-13T14:31:39.000Z</time>
      </trkpt>
      <trkpt lat="42.45829758234322071075439453125" lon="0.99861600436270236968994140625">
        <ele>1487.800048828125</ele>
        <time>2020-08-13T14:31:40.000Z</time>
      </trkpt>
      <trkpt lat="42.458257265388965606689453125" lon="0.998640395700931549072265625">
        <ele>1487.800048828125</ele>
        <time>2020-08-13T14:31:41.000Z</time>
      </trkpt>
      <trkpt lat="42.458188869059085845947265625" lon="0.99869244731962680816650390625">
        <ele>1486.4000244140625</ele>
        <time>2020-08-13T14:31:43.000Z</time>
      </trkpt>
      <trkpt lat="42.45815341360867023468017578125" lon="0.99872119724750518798828125">
        <ele>1486.199951171875</ele>
        <time>2020-08-13T14:31:44.000Z</time>
      </trkpt>
      <trkpt lat="42.45809406973421573638916015625" lon="0.99880032241344451904296875">
        <ele>1485.5999755859375</ele>
        <time>2020-08-13T14:31:46.000Z</time>
      </trkpt>
      <trkpt lat="42.458059452474117279052734375" lon="0.9988397173583507537841796875">
        <ele>1485</ele>
        <time>2020-08-13T14:31:47.000Z</time>
      </trkpt>
      <trkpt lat="42.4580260924994945526123046875" lon="0.9988893382251262664794921875">
        <ele>1484.4000244140625</ele>
        <time>2020-08-13T14:31:48.000Z</time>
      </trkpt>
      <trkpt lat="42.45799449272453784942626953125" lon="0.99894507788121700286865234375">
        <ele>1483.800048828125</ele>
        <time>2020-08-13T14:31:49.000Z</time>
      </trkpt>
      <trkpt lat="42.45793933980166912078857421875" lon="0.99905907176434993743896484375">
        <ele>1481.5999755859375</ele>
        <time>2020-08-13T14:31:51.000Z</time>
      </trkpt>
      <trkpt lat="42.457831464707851409912109375" lon="0.9992475807666778564453125">
        <ele>1480.5999755859375</ele>
        <time>2020-08-13T14:31:55.000Z</time>
      </trkpt>
      <trkpt lat="42.4577756412327289581298828125" lon="0.999327041208744049072265625">
        <ele>1480.5999755859375</ele>
        <time>2020-08-13T14:31:57.000Z</time>
      </trkpt>
      <trkpt lat="42.457740940153598785400390625" lon="0.9993617422878742218017578125">
        <ele>1480.4000244140625</ele>
        <time>2020-08-13T14:31:58.000Z</time>
      </trkpt>
      <trkpt lat="42.45765636675059795379638671875" lon="0.9994244389235973358154296875">
        <ele>1480.199951171875</ele>
        <time>2020-08-13T14:32:00.000Z</time>
      </trkpt>
      <trkpt lat="42.45761512778699398040771484375" lon="0.99946123547852039337158203125">
        <ele>1479.800048828125</ele>
        <time>2020-08-13T14:32:01.000Z</time>
      </trkpt>
      <trkpt lat="42.45746073313057422637939453125" lon="0.99963306449353694915771484375">
        <ele>1478.5999755859375</ele>
        <time>2020-08-13T14:32:05.000Z</time>
      </trkpt>
      <trkpt lat="42.45743215084075927734375" lon="0.99967748858034610748291015625">
        <ele>1478.5999755859375</ele>
        <time>2020-08-13T14:32:06.000Z</time>
      </trkpt>
      <trkpt lat="42.45731706731021404266357421875" lon="0.99979952909052371978759765625">
        <ele>1478.800048828125</ele>
        <time>2020-08-13T14:32:10.000Z</time>
      </trkpt>
      <trkpt lat="42.45725722052156925201416015625" lon="0.99972300231456756591796875">
        <ele>1477.199951171875</ele>
        <time>2020-08-13T14:32:13.000Z</time>
      </trkpt>
      <trkpt lat="42.45729929767549037933349609375" lon="0.99962283857166767120361328125">
        <ele>1476.199951171875</ele>
        <time>2020-08-13T14:32:16.000Z</time>
      </trkpt>
      <trkpt lat="42.4573233537375926971435546875" lon="0.9995867125689983367919921875">
        <ele>1476.199951171875</ele>
        <time>2020-08-13T14:32:17.000Z</time>
      </trkpt>
      <trkpt lat="42.4574722163379192352294921875" lon="0.99934279918670654296875">
        <ele>1474.800048828125</ele>
        <time>2020-08-13T14:32:23.000Z</time>
      </trkpt>
      <trkpt lat="42.457561902701854705810546875" lon="0.9991645999252796173095703125">
        <ele>1473.800048828125</ele>
        <time>2020-08-13T14:32:27.000Z</time>
      </trkpt>
      <trkpt lat="42.457574643194675445556640625" lon="0.999117828905582427978515625">
        <ele>1473</ele>
        <time>2020-08-13T14:32:28.000Z</time>
      </trkpt>
      <trkpt lat="42.45758704841136932373046875" lon="0.9990734048187732696533203125">
        <ele>1472.4000244140625</ele>
        <time>2020-08-13T14:32:29.000Z</time>
      </trkpt>
      <trkpt lat="42.457630299031734466552734375" lon="0.9989310801029205322265625">
        <ele>1471.4000244140625</ele>
        <time>2020-08-13T14:32:32.000Z</time>
      </trkpt>
      <trkpt lat="42.4576398544013500213623046875" lon="0.9988779388368129730224609375">
        <ele>1470.5999755859375</ele>
        <time>2020-08-13T14:32:33.000Z</time>
      </trkpt>
      <trkpt lat="42.45764748193323612213134765625" lon="0.99882437847554683685302734375">
        <ele>1470.199951171875</ele>
        <time>2020-08-13T14:32:34.000Z</time>
      </trkpt>
      <trkpt lat="42.4576693587005138397216796875" lon="0.99873888306319713592529296875">
        <ele>1469.800048828125</ele>
        <time>2020-08-13T14:32:36.000Z</time>
      </trkpt>
      <trkpt lat="42.457692660391330718994140625" lon="0.99870108067989349365234375">
        <ele>1469.5999755859375</ele>
        <time>2020-08-13T14:32:37.000Z</time>
      </trkpt>
      <trkpt lat="42.4578024633228778839111328125" lon="0.998537130653858184814453125">
        <ele>1469.4000244140625</ele>
        <time>2020-08-13T14:32:41.000Z</time>
      </trkpt>
      <trkpt lat="42.4578304588794708251953125" lon="0.998502932488918304443359375">
        <ele>1469</ele>
        <time>2020-08-13T14:32:42.000Z</time>
      </trkpt>
      <trkpt lat="42.45792224071919918060302734375" lon="0.99843294359743595123291015625">
        <ele>1468.199951171875</ele>
        <time>2020-08-13T14:32:45.000Z</time>
      </trkpt>
      <trkpt lat="42.4579912237823009490966796875" lon="0.99840427748858928680419921875">
        <ele>1467</ele>
        <time>2020-08-13T14:32:47.000Z</time>
      </trkpt>
      <trkpt lat="42.4580586142838001251220703125" lon="0.99835775792598724365234375">
        <ele>1465.800048828125</ele>
        <time>2020-08-13T14:32:49.000Z</time>
      </trkpt>
      <trkpt lat="42.4581206403672695159912109375" lon="0.99826580844819545745849609375">
        <ele>1465.4000244140625</ele>
        <time>2020-08-13T14:32:51.000Z</time>
      </trkpt>
      <trkpt lat="42.45816640555858612060546875" lon="0.9981232322752475738525390625">
        <ele>1465</ele>
        <time>2020-08-13T14:32:54.000Z</time>
      </trkpt>
      <trkpt lat="42.4581719376146793365478515625" lon="0.998073779046535491943359375">
        <ele>1464.800048828125</ele>
        <time>2020-08-13T14:32:55.000Z</time>
      </trkpt>
      <trkpt lat="42.45817822404205799102783203125" lon="0.99798333831131458282470703125">
        <ele>1464.199951171875</ele>
        <time>2020-08-13T14:32:57.000Z</time>
      </trkpt>
      <trkpt lat="42.458180822432041168212890625" lon="0.99788929335772991180419921875">
        <ele>1463.4000244140625</ele>
        <time>2020-08-13T14:32:59.000Z</time>
      </trkpt>
      <trkpt lat="42.45819398202002048492431640625" lon="0.99784621037542819976806640625">
        <ele>1463.4000244140625</ele>
        <time>2020-08-13T14:33:00.000Z</time>
      </trkpt>
      <trkpt lat="42.458235807716846466064453125" lon="0.99777144379913806915283203125">
        <ele>1462.4000244140625</ele>
        <time>2020-08-13T14:33:02.000Z</time>
      </trkpt>
      <trkpt lat="42.4582896195352077484130859375" lon="0.99769634194672107696533203125">
        <ele>1461.199951171875</ele>
        <time>2020-08-13T14:33:04.000Z</time>
      </trkpt>
      <trkpt lat="42.45831702835857868194580078125" lon="0.9976602159440517425537109375">
        <ele>1461</ele>
        <time>2020-08-13T14:33:05.000Z</time>
      </trkpt>
      <trkpt lat="42.45837335474789142608642578125" lon="0.99757178686559200286865234375">
        <ele>1460.800048828125</ele>
        <time>2020-08-13T14:33:07.000Z</time>
      </trkpt>
      <trkpt lat="42.45844476856291294097900390625" lon="0.99742577411234378814697265625">
        <ele>1459.800048828125</ele>
        <time>2020-08-13T14:33:10.000Z</time>
      </trkpt>
      <trkpt lat="42.4584777094423770904541015625" lon="0.99733055569231510162353515625">
        <ele>1458.800048828125</ele>
        <time>2020-08-13T14:33:12.000Z</time>
      </trkpt>
      <trkpt lat="42.45853076688945293426513671875" lon="0.99714338779449462890625">
        <ele>1457.800048828125</ele>
        <time>2020-08-13T14:33:16.000Z</time>
      </trkpt>
      <trkpt lat="42.4585806392133235931396484375" lon="0.9969883225858211517333984375">
        <ele>1457.199951171875</ele>
        <time>2020-08-13T14:33:19.000Z</time>
      </trkpt>
      <trkpt lat="42.45860226452350616455078125" lon="0.99694264121353626251220703125">
        <ele>1456.5999755859375</ele>
        <time>2020-08-13T14:33:20.000Z</time>
      </trkpt>
      <trkpt lat="42.45865414850413799285888671875" lon="0.99686318077147006988525390625">
        <ele>1455.800048828125</ele>
        <time>2020-08-13T14:33:22.000Z</time>
      </trkpt>
      <trkpt lat="42.45870108716189861297607421875" lon="0.9967985562980175018310546875">
        <ele>1455.5999755859375</ele>
        <time>2020-08-13T14:33:24.000Z</time>
      </trkpt>
      <trkpt lat="42.45872003026306629180908203125" lon="0.99673477001488208770751953125">
        <ele>1455.4000244140625</ele>
        <time>2020-08-13T14:33:26.000Z</time>
      </trkpt>
      <trkpt lat="42.45870016515254974365234375" lon="0.9966771863400936126708984375">
        <ele>1454.5999755859375</ele>
        <time>2020-08-13T14:33:28.000Z</time>
      </trkpt>
      <trkpt lat="42.45866185985505580902099609375" lon="0.996651537716388702392578125">
        <ele>1454</ele>
        <time>2020-08-13T14:33:30.000Z</time>
      </trkpt>
      <trkpt lat="42.4586104787886142730712890625" lon="0.9966748394072055816650390625">
        <ele>1453.4000244140625</ele>
        <time>2020-08-13T14:33:33.000Z</time>
      </trkpt>
      <trkpt lat="42.458585165441036224365234375" lon="0.99672320298850536346435546875">
        <ele>1453</ele>
        <time>2020-08-13T14:33:35.000Z</time>
      </trkpt>
      <trkpt lat="42.4585031904280185699462890625" lon="0.99686988629400730133056640625">
        <ele>1452.4000244140625</ele>
        <time>2020-08-13T14:33:39.000Z</time>
      </trkpt>
      <trkpt lat="42.45845985598862171173095703125" lon="0.99695437587797641754150390625">
        <ele>1451.199951171875</ele>
        <time>2020-08-13T14:33:41.000Z</time>
      </trkpt>
      <trkpt lat="42.45834083296358585357666015625" lon="0.9972226805984973907470703125">
        <ele>1450.199951171875</ele>
        <time>2020-08-13T14:33:47.000Z</time>
      </trkpt>
      <trkpt lat="42.45829439722001552581787109375" lon="0.99730373360216617584228515625">
        <ele>1449.5999755859375</ele>
        <time>2020-08-13T14:33:49.000Z</time>
      </trkpt>
      <trkpt lat="42.45826204307377338409423828125" lon="0.9973366744816303253173828125">
        <ele>1449.5999755859375</ele>
        <time>2020-08-13T14:33:50.000Z</time>
      </trkpt>
      <trkpt lat="42.45816229842603206634521484375" lon="0.9974218346178531646728515625">
        <ele>1448.800048828125</ele>
        <time>2020-08-13T14:33:53.000Z</time>
      </trkpt>
      <trkpt lat="42.458130531013011932373046875" lon="0.99744387902319431304931640625">
        <ele>1448.4000244140625</ele>
        <time>2020-08-13T14:33:54.000Z</time>
      </trkpt>
      <trkpt lat="42.458101026713848114013671875" lon="0.99746416322886943817138671875">
        <ele>1447.5999755859375</ele>
        <time>2020-08-13T14:33:55.000Z</time>
      </trkpt>
      <trkpt lat="42.4579855240881443023681640625" lon="0.9975703619420528411865234375">
        <ele>1446.5999755859375</ele>
        <time>2020-08-13T14:33:59.000Z</time>
      </trkpt>
      <trkpt lat="42.45796347968280315399169921875" lon="0.997605733573436737060546875">
        <ele>1446.199951171875</ele>
        <time>2020-08-13T14:34:00.000Z</time>
      </trkpt>
      <trkpt lat="42.4578869529068470001220703125" lon="0.99775987677276134490966796875">
        <ele>1445.5999755859375</ele>
        <time>2020-08-13T14:34:04.000Z</time>
      </trkpt>
      <trkpt lat="42.45787044055759906768798828125" lon="0.997800193727016448974609375">
        <ele>1445.199951171875</ele>
        <time>2020-08-13T14:34:05.000Z</time>
      </trkpt>
      <trkpt lat="42.45779382996261119842529296875" lon="0.99790639244019985198974609375">
        <ele>1444.4000244140625</ele>
        <time>2020-08-13T14:34:08.000Z</time>
      </trkpt>
      <trkpt lat="42.45775963179767131805419921875" lon="0.99792634136974811553955078125">
        <ele>1443.5999755859375</ele>
        <time>2020-08-13T14:34:09.000Z</time>
      </trkpt>
      <trkpt lat="42.45772325433790683746337890625" lon="0.9979426860809326171875">
        <ele>1443</ele>
        <time>2020-08-13T14:34:10.000Z</time>
      </trkpt>
      <trkpt lat="42.45762401260435581207275390625" lon="0.99795232526957988739013671875">
        <ele>1441.4000244140625</ele>
        <time>2020-08-13T14:34:13.000Z</time>
      </trkpt>
      <trkpt lat="42.45759970508515834808349609375" lon="0.99795006215572357177734375">
        <ele>1440.4000244140625</ele>
        <time>2020-08-13T14:34:14.000Z</time>
      </trkpt>
      <trkpt lat="42.45757221244275569915771484375" lon="0.9979425184428691864013671875">
        <ele>1440</ele>
        <time>2020-08-13T14:34:15.000Z</time>
      </trkpt>
      <trkpt lat="42.45748152025043964385986328125" lon="0.99795266054570674896240234375">
        <ele>1439</ele>
        <time>2020-08-13T14:34:18.000Z</time>
      </trkpt>
      <trkpt lat="42.45744363404810428619384765625" lon="0.997965820133686065673828125">
        <ele>1438.800048828125</ele>
        <time>2020-08-13T14:34:19.000Z</time>
      </trkpt>
      <trkpt lat="42.45729259215295314788818359375" lon="0.9980558417737483978271484375">
        <ele>1437.4000244140625</ele>
        <time>2020-08-13T14:34:23.000Z</time>
      </trkpt>
      <trkpt lat="42.45711422525346279144287109375" lon="0.9981787204742431640625">
        <ele>1436.4000244140625</ele>
        <time>2020-08-13T14:34:28.000Z</time>
      </trkpt>
      <trkpt lat="42.4570745788514614105224609375" lon="0.99817134439945220947265625">
        <ele>1435.800048828125</ele>
        <time>2020-08-13T14:34:29.000Z</time>
      </trkpt>
      <trkpt lat="42.4570232816040515899658203125" lon="0.9981183707714080810546875">
        <ele>1435.4000244140625</ele>
        <time>2020-08-13T14:34:31.000Z</time>
      </trkpt>
      <trkpt lat="42.45701515115797519683837890625" lon="0.99807788617908954620361328125">
        <ele>1435.199951171875</ele>
        <time>2020-08-13T14:34:32.000Z</time>
      </trkpt>
      <trkpt lat="42.4570591561496257781982421875" lon="0.99798384122550487518310546875">
        <ele>1434.800048828125</ele>
        <time>2020-08-13T14:34:35.000Z</time>
      </trkpt>
      <trkpt lat="42.4571178294718265533447265625" lon="0.9979592822492122650146484375">
        <ele>1433.5999755859375</ele>
        <time>2020-08-13T14:34:37.000Z</time>
      </trkpt>
      <trkpt lat="42.45718681253492832183837890625" lon="0.99792080931365489959716796875">
        <ele>1433</ele>
        <time>2020-08-13T14:34:39.000Z</time>
      </trkpt>
      <trkpt lat="42.4572569690644741058349609375" lon="0.99786062724888324737548828125">
        <ele>1432.5999755859375</ele>
        <time>2020-08-13T14:34:41.000Z</time>
      </trkpt>
      <trkpt lat="42.4573575519025325775146484375" lon="0.99775015376508235931396484375">
        <ele>1431.4000244140625</ele>
        <time>2020-08-13T14:34:44.000Z</time>
      </trkpt>
      <trkpt lat="42.45739392936229705810546875" lon="0.99771813489496707916259765625">
        <ele>1431.4000244140625</ele>
        <time>2020-08-13T14:34:45.000Z</time>
      </trkpt>
      <trkpt lat="42.45743156410753726959228515625" lon="0.997688211500644683837890625">
        <ele>1431.199951171875</ele>
        <time>2020-08-13T14:34:46.000Z</time>
      </trkpt>
      <trkpt lat="42.45759836398065090179443359375" lon="0.99753021262586116790771484375">
        <ele>1431</ele>
        <time>2020-08-13T14:34:51.000Z</time>
      </trkpt>
      <trkpt lat="42.45765284635126590728759765625" lon="0.99746718071401119232177734375">
        <ele>1430.199951171875</ele>
        <time>2020-08-13T14:34:53.000Z</time>
      </trkpt>
      <trkpt lat="42.4577126093208789825439453125" lon="0.9973458945751190185546875">
        <ele>1429</ele>
        <time>2020-08-13T14:34:56.000Z</time>
      </trkpt>
      <trkpt lat="42.4577297084033489227294921875" lon="0.99724003113806247711181640625">
        <ele>1427.800048828125</ele>
        <time>2020-08-13T14:34:58.000Z</time>
      </trkpt>
      <trkpt lat="42.45777505449950695037841796875" lon="0.9971502609550952911376953125">
        <ele>1427.199951171875</ele>
        <time>2020-08-13T14:35:00.000Z</time>
      </trkpt>
      <trkpt lat="42.45779718272387981414794921875" lon="0.99711312912404537200927734375">
        <ele>1426.800048828125</ele>
        <time>2020-08-13T14:35:01.000Z</time>
      </trkpt>
      <trkpt lat="42.457844205200672149658203125" lon="0.9970614127814769744873046875">
        <ele>1425.4000244140625</ele>
        <time>2020-08-13T14:35:03.000Z</time>
      </trkpt>
      <trkpt lat="42.4578648246824741363525390625" lon="0.99703316576778888702392578125">
        <ele>1425</ele>
        <time>2020-08-13T14:35:04.000Z</time>
      </trkpt>
      <trkpt lat="42.45788753964006900787353515625" lon="0.997008942067623138427734375">
        <ele>1424.4000244140625</ele>
        <time>2020-08-13T14:35:05.000Z</time>
      </trkpt>
      <trkpt lat="42.45791033841669559478759765625" lon="0.996977426111698150634765625">
        <ele>1424.199951171875</ele>
        <time>2020-08-13T14:35:06.000Z</time>
      </trkpt>
      <trkpt lat="42.4580016173422336578369140625" lon="0.99681490100920200347900390625">
        <ele>1423.4000244140625</ele>
        <time>2020-08-13T14:35:10.000Z</time>
      </trkpt>
      <trkpt lat="42.4580344744026660919189453125" lon="0.99668296985328197479248046875">
        <ele>1422.199951171875</ele>
        <time>2020-08-13T14:35:13.000Z</time>
      </trkpt>
      <trkpt lat="42.45808082632720470428466796875" lon="0.99650694988667964935302734375">
        <ele>1421.4000244140625</ele>
        <time>2020-08-13T14:35:17.000Z</time>
      </trkpt>
      <trkpt lat="42.4580968357622623443603515625" lon="0.99646822549402713775634765625">
        <ele>1421</ele>
        <time>2020-08-13T14:35:18.000Z</time>
      </trkpt>
      <trkpt lat="42.45817889459431171417236328125" lon="0.996274016797542572021484375">
        <ele>1420.199951171875</ele>
        <time>2020-08-13T14:35:23.000Z</time>
      </trkpt>
      <trkpt lat="42.4583000130951404571533203125" lon="0.99611719138920307159423828125">
        <ele>1419</ele>
        <time>2020-08-13T14:35:29.000Z</time>
      </trkpt>
      <trkpt lat="42.45831619016826152801513671875" lon="0.9960653074085712432861328125">
        <ele>1418.199951171875</ele>
        <time>2020-08-13T14:35:31.000Z</time>
      </trkpt>
      <trkpt lat="42.45830881409347057342529296875" lon="0.996019542217254638671875">
        <ele>1417.4000244140625</ele>
        <time>2020-08-13T14:35:33.000Z</time>
      </trkpt>
      <trkpt lat="42.45824326761066913604736328125" lon="0.99600336514413356781005859375">
        <ele>1416.5999755859375</ele>
        <time>2020-08-13T14:35:38.000Z</time>
      </trkpt>
      <trkpt lat="42.458219043910503387451171875" lon="0.99603496491909027099609375">
        <ele>1416.5999755859375</ele>
        <time>2020-08-13T14:35:40.000Z</time>
      </trkpt>
      <trkpt lat="42.45820839889347553253173828125" lon="0.99605499766767024993896484375">
        <ele>1416.4000244140625</ele>
        <time>2020-08-13T14:35:41.000Z</time>
      </trkpt>
      <trkpt lat="42.45817872695624828338623046875" lon="0.9961269982159137725830078125">
        <ele>1416</ele>
        <time>2020-08-13T14:35:44.000Z</time>
      </trkpt>
      <trkpt lat="42.4581523239612579345703125" lon="0.9961736015975475311279296875">
        <ele>1415.4000244140625</ele>
        <time>2020-08-13T14:35:46.000Z</time>
      </trkpt>
      <trkpt lat="42.45808233506977558135986328125" lon="0.99627041257917881011962890625">
        <ele>1415.5999755859375</ele>
        <time>2020-08-13T14:35:51.000Z</time>
      </trkpt>
      <trkpt lat="42.457997761666774749755859375" lon="0.996439643204212188720703125">
        <ele>1415.4000244140625</ele>
        <time>2020-08-13T14:35:58.000Z</time>
      </trkpt>
      <trkpt lat="42.457872368395328521728515625" lon="0.99663033150136470794677734375">
        <ele>1414.800048828125</ele>
        <time>2020-08-13T14:36:05.000Z</time>
      </trkpt>
      <trkpt lat="42.4578480608761310577392578125" lon="0.99664810113608837127685546875">
        <ele>1414.5999755859375</ele>
        <time>2020-08-13T14:36:06.000Z</time>
      </trkpt>
      <trkpt lat="42.4577625654637813568115234375" lon="0.99668079055845737457275390625">
        <ele>1413.5999755859375</ele>
        <time>2020-08-13T14:36:09.000Z</time>
      </trkpt>
      <trkpt lat="42.45772660709917545318603515625" lon="0.9966848976910114288330078125">
        <ele>1413.5999755859375</ele>
        <time>2020-08-13T14:36:10.000Z</time>
      </trkpt>
      <trkpt lat="42.45760523714125156402587890625" lon="0.99670174531638622283935546875">
        <ele>1413.4000244140625</ele>
        <time>2020-08-13T14:36:13.000Z</time>
      </trkpt>
      <trkpt lat="42.45748537592589855194091796875" lon="0.9967579878866672515869140625">
        <ele>1412.4000244140625</ele>
        <time>2020-08-13T14:36:16.000Z</time>
      </trkpt>
      <trkpt lat="42.45731413364410400390625" lon="0.99681439809501171112060546875">
        <ele>1411.199951171875</ele>
        <time>2020-08-13T14:36:21.000Z</time>
      </trkpt>
      <trkpt lat="42.45721145533025264739990234375" lon="0.996824204921722412109375">
        <ele>1409.800048828125</ele>
        <time>2020-08-13T14:36:24.000Z</time>
      </trkpt>
      <trkpt lat="42.45718278922140598297119140625" lon="0.99680475890636444091796875">
        <ele>1409.5999755859375</ele>
        <time>2020-08-13T14:36:25.000Z</time>
      </trkpt>
      <trkpt lat="42.457150183618068695068359375" lon="0.99674616940319538116455078125">
        <ele>1408.800048828125</ele>
        <time>2020-08-13T14:36:27.000Z</time>
      </trkpt>
      <trkpt lat="42.45715378783643245697021484375" lon="0.996711887419223785400390625">
        <ele>1408.4000244140625</ele>
        <time>2020-08-13T14:36:28.000Z</time>
      </trkpt>
      <trkpt lat="42.45719276368618011474609375" lon="0.99666017107665538787841796875">
        <ele>1407.5999755859375</ele>
        <time>2020-08-13T14:36:30.000Z</time>
      </trkpt>
      <trkpt lat="42.45721765793859958648681640625" lon="0.9966393001377582550048828125">
        <ele>1407.4000244140625</ele>
        <time>2020-08-13T14:36:31.000Z</time>
      </trkpt>
      <trkpt lat="42.4572457373142242431640625" lon="0.99661792628467082977294921875">
        <ele>1407.199951171875</ele>
        <time>2020-08-13T14:36:32.000Z</time>
      </trkpt>
      <trkpt lat="42.45736886747181415557861328125" lon="0.9965008310973644256591796875">
        <ele>1406.4000244140625</ele>
        <time>2020-08-13T14:36:36.000Z</time>
      </trkpt>
      <trkpt lat="42.45739954523742198944091796875" lon="0.996475182473659515380859375">
        <ele>1406.4000244140625</ele>
        <time>2020-08-13T14:36:37.000Z</time>
      </trkpt>
      <trkpt lat="42.45749845169484615325927734375" lon="0.9964059479534626007080078125">
        <ele>1405</ele>
        <time>2020-08-13T14:36:40.000Z</time>
      </trkpt>
      <trkpt lat="42.4575724638998508453369140625" lon="0.9963700734078884124755859375">
        <ele>1404.199951171875</ele>
        <time>2020-08-13T14:36:42.000Z</time>
      </trkpt>
      <trkpt lat="42.4576076678931713104248046875" lon="0.99635473452508449554443359375">
        <ele>1403.5999755859375</ele>
        <time>2020-08-13T14:36:43.000Z</time>
      </trkpt>
      <trkpt lat="42.45767648331820964813232421875" lon="0.9963204525411128997802734375">
        <ele>1403</ele>
        <time>2020-08-13T14:36:45.000Z</time>
      </trkpt>
      <trkpt lat="42.45775275863707065582275390625" lon="0.996219702064990997314453125">
        <ele>1402.5999755859375</ele>
        <time>2020-08-13T14:36:48.000Z</time>
      </trkpt>
      <trkpt lat="42.4578195624053478240966796875" lon="0.99608651362359523773193359375">
        <ele>1402</ele>
        <time>2020-08-13T14:36:51.000Z</time>
      </trkpt>
      <trkpt lat="42.4578651599586009979248046875" lon="0.9960086457431316375732421875">
        <ele>1400.4000244140625</ele>
        <time>2020-08-13T14:36:53.000Z</time>
      </trkpt>
      <trkpt lat="42.45788804255425930023193359375" lon="0.99597369320690631866455078125">
        <ele>1399.800048828125</ele>
        <time>2020-08-13T14:36:54.000Z</time>
      </trkpt>
      <trkpt lat="42.4579107575118541717529296875" lon="0.99593714810907840728759765625">
        <ele>1399.4000244140625</ele>
        <time>2020-08-13T14:36:55.000Z</time>
      </trkpt>
      <trkpt lat="42.45803070254623889923095703125" lon="0.99572039209306240081787109375">
        <ele>1398.4000244140625</ele>
        <time>2020-08-13T14:37:00.000Z</time>
      </trkpt>
      <trkpt lat="42.4580549262464046478271484375" lon="0.99567420780658721923828125">
        <ele>1398.199951171875</ele>
        <time>2020-08-13T14:37:01.000Z</time>
      </trkpt>
      <trkpt lat="42.45814939029514789581298828125" lon="0.99549793638288974761962890625">
        <ele>1396.800048828125</ele>
        <time>2020-08-13T14:37:05.000Z</time>
      </trkpt>
      <trkpt lat="42.458239160478115081787109375" lon="0.9953924082219600677490234375">
        <ele>1395.800048828125</ele>
        <time>2020-08-13T14:37:08.000Z</time>
      </trkpt>
      <trkpt lat="42.4583767913281917572021484375" lon="0.99532074294984340667724609375">
        <ele>1394.5999755859375</ele>
        <time>2020-08-13T14:37:12.000Z</time>
      </trkpt>
      <trkpt lat="42.45841409079730510711669921875" lon="0.99531554616987705230712890625">
        <ele>1394.4000244140625</ele>
        <time>2020-08-13T14:37:13.000Z</time>
      </trkpt>
      <trkpt lat="42.45861592702567577362060546875" lon="0.99527916871011257171630859375">
        <ele>1393.800048828125</ele>
        <time>2020-08-13T14:37:19.000Z</time>
      </trkpt>
      <trkpt lat="42.4587177671492099761962890625" lon="0.9952338226139545440673828125">
        <ele>1393.5999755859375</ele>
        <time>2020-08-13T14:37:22.000Z</time>
      </trkpt>
      <trkpt lat="42.458856739103794097900390625" lon="0.995196439325809478759765625">
        <ele>1392.5999755859375</ele>
        <time>2020-08-13T14:37:26.000Z</time>
      </trkpt>
      <trkpt lat="42.45899847708642482757568359375" lon="0.99510264582931995391845703125">
        <ele>1391</ele>
        <time>2020-08-13T14:37:31.000Z</time>
      </trkpt>
      <trkpt lat="42.4590154923498630523681640625" lon="0.99502184428274631500244140625">
        <ele>1389.800048828125</ele>
        <time>2020-08-13T14:37:33.000Z</time>
      </trkpt>
      <trkpt lat="42.45900727808475494384765625" lon="0.9949877299368381500244140625">
        <ele>1389.5999755859375</ele>
        <time>2020-08-13T14:37:34.000Z</time>
      </trkpt>
      <trkpt lat="42.45891608297824859619140625" lon="0.9949535317718982696533203125">
        <ele>1389</ele>
        <time>2020-08-13T14:37:38.000Z</time>
      </trkpt>
      <trkpt lat="42.45886168442666530609130859375" lon="0.994987227022647857666015625">
        <ele>1389</ele>
        <time>2020-08-13T14:37:40.000Z</time>
      </trkpt>
      <trkpt lat="42.4587626941502094268798828125" lon="0.995041541755199432373046875">
        <ele>1388</ele>
        <time>2020-08-13T14:37:43.000Z</time>
      </trkpt>
      <trkpt lat="42.4586691521108150482177734375" lon="0.99508680403232574462890625">
        <ele>1386</ele>
        <time>2020-08-13T14:37:46.000Z</time>
      </trkpt>
      <trkpt lat="42.45857317931950092315673828125" lon="0.99511094391345977783203125">
        <ele>1385.4000244140625</ele>
        <time>2020-08-13T14:37:49.000Z</time>
      </trkpt>
      <trkpt lat="42.45851039886474609375" lon="0.99511706270277500152587890625">
        <ele>1384.800048828125</ele>
        <time>2020-08-13T14:37:51.000Z</time>
      </trkpt>
      <trkpt lat="42.45837067253887653350830078125" lon="0.99508537910878658294677734375">
        <ele>1383.800048828125</ele>
        <time>2020-08-13T14:37:55.000Z</time>
      </trkpt>
      <trkpt lat="42.4583325348794460296630859375" lon="0.99506744183599948883056640625">
        <ele>1383.5999755859375</ele>
        <time>2020-08-13T14:37:56.000Z</time>
      </trkpt>
      <trkpt lat="42.4581903778016567230224609375" lon="0.99506509490311145782470703125">
        <ele>1383.199951171875</ele>
        <time>2020-08-13T14:38:00.000Z</time>
      </trkpt>
      <trkpt lat="42.4581576883792877197265625" lon="0.99508772604167461395263671875">
        <ele>1382.800048828125</ele>
        <time>2020-08-13T14:38:01.000Z</time>
      </trkpt>
      <trkpt lat="42.45805903337895870208740234375" lon="0.99518495611846446990966796875">
        <ele>1381.4000244140625</ele>
        <time>2020-08-13T14:38:04.000Z</time>
      </trkpt>
      <trkpt lat="42.45802634395658969879150390625" lon="0.99521714262664318084716796875">
        <ele>1381.199951171875</ele>
        <time>2020-08-13T14:38:05.000Z</time>
      </trkpt>
      <trkpt lat="42.4579100869596004486083984375" lon="0.99534697830677032470703125">
        <ele>1380.4000244140625</ele>
        <time>2020-08-13T14:38:09.000Z</time>
      </trkpt>
      <trkpt lat="42.45785753242671489715576171875" lon="0.9953932464122772216796875">
        <ele>1379.4000244140625</ele>
        <time>2020-08-13T14:38:11.000Z</time>
      </trkpt>
      <trkpt lat="42.457829453051090240478515625" lon="0.99541394971311092376708984375">
        <ele>1379</ele>
        <time>2020-08-13T14:38:12.000Z</time>
      </trkpt>
      <trkpt lat="42.4577692709863185882568359375" lon="0.99544630385935306549072265625">
        <ele>1377.800048828125</ele>
        <time>2020-08-13T14:38:14.000Z</time>
      </trkpt>
      <trkpt lat="42.45771084912121295928955078125" lon="0.9954487346112728118896484375">
        <ele>1377.199951171875</ele>
        <time>2020-08-13T14:38:16.000Z</time>
      </trkpt>
      <trkpt lat="42.45763574726879596710205078125" lon="0.99539249204099178314208984375">
        <ele>1376.800048828125</ele>
        <time>2020-08-13T14:38:19.000Z</time>
      </trkpt>
      <trkpt lat="42.45761579833924770355224609375" lon="0.99535812623798847198486328125">
        <ele>1376.199951171875</ele>
        <time>2020-08-13T14:38:20.000Z</time>
      </trkpt>
      <trkpt lat="42.45758126489818096160888671875" lon="0.99526894278824329376220703125">
        <ele>1375.5999755859375</ele>
        <time>2020-08-13T14:38:22.000Z</time>
      </trkpt>
      <trkpt lat="42.4575412832200527191162109375" lon="0.995126701891422271728515625">
        <ele>1374.199951171875</ele>
        <time>2020-08-13T14:38:25.000Z</time>
      </trkpt>
      <trkpt lat="42.457457296550273895263671875" lon="0.99496015347540378570556640625">
        <ele>1373</ele>
        <time>2020-08-13T14:38:29.000Z</time>
      </trkpt>
      <trkpt lat="42.4574041552841663360595703125" lon="0.99489879794418811798095703125">
        <ele>1372.199951171875</ele>
        <time>2020-08-13T14:38:31.000Z</time>
      </trkpt>
      <trkpt lat="42.45734221301972866058349609375" lon="0.99484750069677829742431640625">
        <ele>1372</ele>
        <time>2020-08-13T14:38:33.000Z</time>
      </trkpt>
      <trkpt lat="42.4572388641536235809326171875" lon="0.99480307660996913909912109375">
        <ele>1371.5999755859375</ele>
        <time>2020-08-13T14:38:36.000Z</time>
      </trkpt>
      <trkpt lat="42.45714926160871982574462890625" lon="0.994801819324493408203125">
        <ele>1371</ele>
        <time>2020-08-13T14:38:38.000Z</time>
      </trkpt>
      <trkpt lat="42.45710299350321292877197265625" lon="0.9948123805224895477294921875">
        <ele>1370.5999755859375</ele>
        <time>2020-08-13T14:38:39.000Z</time>
      </trkpt>
      <trkpt lat="42.457063682377338409423828125" lon="0.99483140744268894195556640625">
        <ele>1370.199951171875</ele>
        <time>2020-08-13T14:38:40.000Z</time>
      </trkpt>
      <trkpt lat="42.45699268765747547149658203125" lon="0.9948723949491977691650390625">
        <ele>1369.199951171875</ele>
        <time>2020-08-13T14:38:42.000Z</time>
      </trkpt>
      <trkpt lat="42.4569575674831867218017578125" lon="0.9948874823749065399169921875">
        <ele>1369</ele>
        <time>2020-08-13T14:38:43.000Z</time>
      </trkpt>
      <trkpt lat="42.4569210223853588104248046875" lon="0.99488723091781139373779296875">
        <ele>1368.4000244140625</ele>
        <time>2020-08-13T14:38:44.000Z</time>
      </trkpt>
      <trkpt lat="42.45688523165881633758544921875" lon="0.99488086067140102386474609375">
        <ele>1367.800048828125</ele>
        <time>2020-08-13T14:38:45.000Z</time>
      </trkpt>
      <trkpt lat="42.45685086585581302642822265625" lon="0.99487222731113433837890625">
        <ele>1367.4000244140625</ele>
        <time>2020-08-13T14:38:46.000Z</time>
      </trkpt>
      <trkpt lat="42.4566675536334514617919921875" lon="0.99482403136789798736572265625">
        <ele>1367.199951171875</ele>
        <time>2020-08-13T14:38:51.000Z</time>
      </trkpt>
      <trkpt lat="42.456558085978031158447265625" lon="0.9948609955608844757080078125">
        <ele>1366.199951171875</ele>
        <time>2020-08-13T14:38:54.000Z</time>
      </trkpt>
      <trkpt lat="42.4565247260034084320068359375" lon="0.99488605745136737823486328125">
        <ele>1365.4000244140625</ele>
        <time>2020-08-13T14:38:55.000Z</time>
      </trkpt>
      <trkpt lat="42.45649178512394428253173828125" lon="0.99490977823734283447265625">
        <ele>1365</ele>
        <time>2020-08-13T14:38:56.000Z</time>
      </trkpt>
      <trkpt lat="42.45639078319072723388671875" lon="0.994925200939178466796875">
        <ele>1364.199951171875</ele>
        <time>2020-08-13T14:38:59.000Z</time>
      </trkpt>
      <trkpt lat="42.45636002160608768463134765625" lon="0.9949059225618839263916015625">
        <ele>1363.800048828125</ele>
        <time>2020-08-13T14:39:00.000Z</time>
      </trkpt>
      <trkpt lat="42.45633873157203197479248046875" lon="0.99487583152949810028076171875">
        <ele>1363.800048828125</ele>
        <time>2020-08-13T14:39:01.000Z</time>
      </trkpt>
      <trkpt lat="42.45632766745984554290771484375" lon="0.9948392026126384735107421875">
        <ele>1362.800048828125</ele>
        <time>2020-08-13T14:39:02.000Z</time>
      </trkpt>
      <trkpt lat="42.45634040795266628265380859375" lon="0.9947654418647289276123046875">
        <ele>1361.5999755859375</ele>
        <time>2020-08-13T14:39:04.000Z</time>
      </trkpt>
      <trkpt lat="42.4563604407012462615966796875" lon="0.9947342611849308013916015625">
        <ele>1361.4000244140625</ele>
        <time>2020-08-13T14:39:05.000Z</time>
      </trkpt>
      <trkpt lat="42.4564110673964023590087890625" lon="0.9946993924677371978759765625">
        <ele>1361</ele>
        <time>2020-08-13T14:39:07.000Z</time>
      </trkpt>
      <trkpt lat="42.45645691640675067901611328125" lon="0.99466427229344844818115234375">
        <ele>1360.5999755859375</ele>
        <time>2020-08-13T14:39:09.000Z</time>
      </trkpt>
      <trkpt lat="42.4565361253917217254638671875" lon="0.99458665587007999420166015625">
        <ele>1359.5999755859375</ele>
        <time>2020-08-13T14:39:12.000Z</time>
      </trkpt>
      <trkpt lat="42.45660535991191864013671875" lon="0.99452664144337177276611328125">
        <ele>1358.800048828125</ele>
        <time>2020-08-13T14:39:14.000Z</time>
      </trkpt>
      <trkpt lat="42.4566454254090785980224609375" lon="0.99450149573385715484619140625">
        <ele>1358.4000244140625</ele>
        <time>2020-08-13T14:39:15.000Z</time>
      </trkpt>
      <trkpt lat="42.4567334353923797607421875" lon="0.9944576583802700042724609375">
        <ele>1357.4000244140625</ele>
        <time>2020-08-13T14:39:17.000Z</time>
      </trkpt>
      <trkpt lat="42.45682504959404468536376953125" lon="0.994419939815998077392578125">
        <ele>1356.5999755859375</ele>
        <time>2020-08-13T14:39:19.000Z</time>
      </trkpt>
      <trkpt lat="42.4568680487573146820068359375" lon="0.99441180936992168426513671875">
        <ele>1356.4000244140625</ele>
        <time>2020-08-13T14:39:20.000Z</time>
      </trkpt>
      <trkpt lat="42.45691020973026752471923828125" lon="0.99440543912351131439208984375">
        <ele>1356.4000244140625</ele>
        <time>2020-08-13T14:39:21.000Z</time>
      </trkpt>
      <trkpt lat="42.45705605484545230865478515625" lon="0.9944077022373676300048828125">
        <ele>1354.5999755859375</ele>
        <time>2020-08-13T14:39:25.000Z</time>
      </trkpt>
      <trkpt lat="42.45708656497299671173095703125" lon="0.99440686404705047607421875">
        <ele>1354</ele>
        <time>2020-08-13T14:39:26.000Z</time>
      </trkpt>
      <trkpt lat="42.45711841620504856109619140625" lon="0.99440258927643299102783203125">
        <ele>1353.5999755859375</ele>
        <time>2020-08-13T14:39:27.000Z</time>
      </trkpt>
      <trkpt lat="42.457239367067813873291015625" lon="0.9943838976323604583740234375">
        <ele>1352.800048828125</ele>
        <time>2020-08-13T14:39:31.000Z</time>
      </trkpt>
      <trkpt lat="42.45727750472724437713623046875" lon="0.99438079632818698883056640625">
        <ele>1352.5999755859375</ele>
        <time>2020-08-13T14:39:32.000Z</time>
      </trkpt>
      <trkpt lat="42.45739518664777278900146484375" lon="0.9943862445652484893798828125">
        <ele>1351.4000244140625</ele>
        <time>2020-08-13T14:39:35.000Z</time>
      </trkpt>
      <trkpt lat="42.457470037043094635009765625" lon="0.9944053553044795989990234375">
        <ele>1350.4000244140625</ele>
        <time>2020-08-13T14:39:37.000Z</time>
      </trkpt>
      <trkpt lat="42.45754723437130451202392578125" lon="0.99442991428077220916748046875">
        <ele>1349.199951171875</ele>
        <time>2020-08-13T14:39:39.000Z</time>
      </trkpt>
      <trkpt lat="42.45766483247280120849609375" lon="0.99440820515155792236328125">
        <ele>1348.199951171875</ele>
        <time>2020-08-13T14:39:42.000Z</time>
      </trkpt>
      <trkpt lat="42.45769609697163105010986328125" lon="0.9943852387368679046630859375">
        <ele>1347.199951171875</ele>
        <time>2020-08-13T14:39:43.000Z</time>
      </trkpt>
      <trkpt lat="42.4577823467552661895751953125" lon="0.99428348243236541748046875">
        <ele>1346.199951171875</ele>
        <time>2020-08-13T14:39:46.000Z</time>
      </trkpt>
      <trkpt lat="42.45784060098230838775634765625" lon="0.9942259825766086578369140625">
        <ele>1345.199951171875</ele>
        <time>2020-08-13T14:39:48.000Z</time>
      </trkpt>
      <trkpt lat="42.45789927430450916290283203125" lon="0.99417376331984996795654296875">
        <ele>1344</ele>
        <time>2020-08-13T14:39:50.000Z</time>
      </trkpt>
      <trkpt lat="42.457950823009014129638671875" lon="0.99413872696459293365478515625">
        <ele>1343</ele>
        <time>2020-08-13T14:39:52.000Z</time>
      </trkpt>
      <trkpt lat="42.45796733535826206207275390625" lon="0.9941314347088336944580078125">
        <ele>1342.800048828125</ele>
        <time>2020-08-13T14:39:53.000Z</time>
      </trkpt>
      <trkpt lat="42.45804847218096256256103515625" lon="0.9940935485064983367919921875">
        <ele>1342.5999755859375</ele>
        <time>2020-08-13T14:39:57.000Z</time>
      </trkpt>
      <trkpt lat="42.45809842832386493682861328125" lon="0.994079299271106719970703125">
        <ele>1341.800048828125</ele>
        <time>2020-08-13T14:39:59.000Z</time>
      </trkpt>
      <trkpt lat="42.45819582603871822357177734375" lon="0.99409044720232486724853515625">
        <ele>1340.800048828125</ele>
        <time>2020-08-13T14:40:03.000Z</time>
      </trkpt>
      <trkpt lat="42.4582757055759429931640625" lon="0.9941253997385501861572265625">
        <ele>1341</ele>
        <time>2020-08-13T14:40:06.000Z</time>
      </trkpt>
      <trkpt lat="42.45834049768745899200439453125" lon="0.99414132535457611083984375">
        <ele>1339.5999755859375</ele>
        <time>2020-08-13T14:40:08.000Z</time>
      </trkpt>
      <trkpt lat="42.4584109894931316375732421875" lon="0.994141995906829833984375">
        <ele>1338.800048828125</ele>
        <time>2020-08-13T14:40:10.000Z</time>
      </trkpt>
      <trkpt lat="42.45844828896224498748779296875" lon="0.994143001735210418701171875">
        <ele>1338.4000244140625</ele>
        <time>2020-08-13T14:40:11.000Z</time>
      </trkpt>
      <trkpt lat="42.4585766158998012542724609375" lon="0.9940952248871326446533203125">
        <ele>1337.800048828125</ele>
        <time>2020-08-13T14:40:15.000Z</time>
      </trkpt>
      <trkpt lat="42.45860855095088481903076171875" lon="0.99407401867210865020751953125">
        <ele>1337.199951171875</ele>
        <time>2020-08-13T14:40:16.000Z</time>
      </trkpt>
      <trkpt lat="42.45869337581098079681396484375" lon="0.9940157644450664520263671875">
        <ele>1336.5999755859375</ele>
        <time>2020-08-13T14:40:19.000Z</time>
      </trkpt>
      <trkpt lat="42.4587238021194934844970703125" lon="0.99401014856994152069091796875">
        <ele>1336</ele>
        <time>2020-08-13T14:40:20.000Z</time>
      </trkpt>
      <trkpt lat="42.4588215351104736328125" lon="0.9940033592283725738525390625">
        <ele>1335</ele>
        <time>2020-08-13T14:40:23.000Z</time>
      </trkpt>
      <trkpt lat="42.4588817171752452850341796875" lon="0.99404342472553253173828125">
        <ele>1333.800048828125</ele>
        <time>2020-08-13T14:40:26.000Z</time>
      </trkpt>
      <trkpt lat="42.45890342630445957183837890625" lon="0.9940549917519092559814453125">
        <ele>1333.800048828125</ele>
        <time>2020-08-13T14:40:27.000Z</time>
      </trkpt>
      <trkpt lat="42.458929158747196197509765625" lon="0.99405004642903804779052734375">
        <ele>1333.5999755859375</ele>
        <time>2020-08-13T14:40:28.000Z</time>
      </trkpt>
      <trkpt lat="42.459018342196941375732421875" lon="0.99399522878229618072509765625">
        <ele>1333</ele>
        <time>2020-08-13T14:40:31.000Z</time>
      </trkpt>
      <trkpt lat="42.45913459919393062591552734375" lon="0.99391425959765911102294921875">
        <ele>1331.800048828125</ele>
        <time>2020-08-13T14:40:34.000Z</time>
      </trkpt>
      <trkpt lat="42.45922780595719814300537109375" lon="0.99387754686176776885986328125">
        <ele>1331.5999755859375</ele>
        <time>2020-08-13T14:40:36.000Z</time>
      </trkpt>
      <trkpt lat="42.45940919034183025360107421875" lon="0.99382155574858188629150390625">
        <ele>1330.4000244140625</ele>
        <time>2020-08-13T14:40:40.000Z</time>
      </trkpt>
      <trkpt lat="42.45945411734282970428466796875" lon="0.9937995113432407379150390625">
        <ele>1330</ele>
        <time>2020-08-13T14:40:41.000Z</time>
      </trkpt>
      <trkpt lat="42.45949435047805309295654296875" lon="0.99377478472888469696044921875">
        <ele>1329.5999755859375</ele>
        <time>2020-08-13T14:40:42.000Z</time>
      </trkpt>
      <trkpt lat="42.45953776873648166656494140625" lon="0.99374963901937007904052734375">
        <ele>1329</ele>
        <time>2020-08-13T14:40:43.000Z</time>
      </trkpt>
      <trkpt lat="42.4596954323351383209228515625" lon="0.9936938993632793426513671875">
        <ele>1327.5999755859375</ele>
        <time>2020-08-13T14:40:47.000Z</time>
      </trkpt>
      <trkpt lat="42.4597396887838840484619140625" lon="0.99368308670818805694580078125">
        <ele>1327.199951171875</ele>
        <time>2020-08-13T14:40:48.000Z</time>
      </trkpt>
      <trkpt lat="42.4597899802029132843017578125" lon="0.9936727769672870635986328125">
        <ele>1326.4000244140625</ele>
        <time>2020-08-13T14:40:49.000Z</time>
      </trkpt>
      <trkpt lat="42.45988301932811737060546875" lon="0.9936462901532649993896484375">
        <ele>1325.5999755859375</ele>
        <time>2020-08-13T14:40:51.000Z</time>
      </trkpt>
      <trkpt lat="42.45997262187302112579345703125" lon="0.99361385218799114227294921875">
        <ele>1325.800048828125</ele>
        <time>2020-08-13T14:40:53.000Z</time>
      </trkpt>
      <trkpt lat="42.46016733348369598388671875" lon="0.99353782832622528076171875">
        <ele>1325.800048828125</ele>
        <time>2020-08-13T14:40:57.000Z</time>
      </trkpt>
      <trkpt lat="42.460217289626598358154296875" lon="0.99352441728115081787109375">
        <ele>1325.5999755859375</ele>
        <time>2020-08-13T14:40:58.000Z</time>
      </trkpt>
      <trkpt lat="42.46026766486465930938720703125" lon="0.99351343698799610137939453125">
        <ele>1325</ele>
        <time>2020-08-13T14:40:59.000Z</time>
      </trkpt>
      <trkpt lat="42.46031611226499080657958984375" lon="0.993494577705860137939453125">
        <ele>1324.4000244140625</ele>
        <time>2020-08-13T14:41:00.000Z</time>
      </trkpt>
      <trkpt lat="42.46040395461022853851318359375" lon="0.99345644004642963409423828125">
        <ele>1324</ele>
        <time>2020-08-13T14:41:02.000Z</time>
      </trkpt>
      <trkpt lat="42.4604461155831813812255859375" lon="0.99344135262072086334228515625">
        <ele>1323.800048828125</ele>
        <time>2020-08-13T14:41:03.000Z</time>
      </trkpt>
      <trkpt lat="42.46053169481456279754638671875" lon="0.993411429226398468017578125">
        <ele>1323.4000244140625</ele>
        <time>2020-08-13T14:41:05.000Z</time>
      </trkpt>
      <trkpt lat="42.46062004007399082183837890625" lon="0.9933636523783206939697265625">
        <ele>1322.800048828125</ele>
        <time>2020-08-13T14:41:07.000Z</time>
      </trkpt>
      <trkpt lat="42.4606586806476116180419921875" lon="0.99333523772656917572021484375">
        <ele>1322.800048828125</ele>
        <time>2020-08-13T14:41:08.000Z</time>
      </trkpt>
      <trkpt lat="42.46075800620019435882568359375" lon="0.99322308786213397979736328125">
        <ele>1321.800048828125</ele>
        <time>2020-08-13T14:41:11.000Z</time>
      </trkpt>
      <trkpt lat="42.46078985743224620819091796875" lon="0.993181765079498291015625">
        <ele>1321.4000244140625</ele>
        <time>2020-08-13T14:41:12.000Z</time>
      </trkpt>
      <trkpt lat="42.4608226306736469268798828125" lon="0.99313993938267230987548828125">
        <ele>1320.199951171875</ele>
        <time>2020-08-13T14:41:13.000Z</time>
      </trkpt>
      <trkpt lat="42.4608551524579524993896484375" lon="0.9930972754955291748046875">
        <ele>1319.4000244140625</ele>
        <time>2020-08-13T14:41:14.000Z</time>
      </trkpt>
      <trkpt lat="42.460889853537082672119140625" lon="0.99305528216063976287841796875">
        <ele>1318.800048828125</ele>
        <time>2020-08-13T14:41:15.000Z</time>
      </trkpt>
      <trkpt lat="42.46109881438314914703369140625" lon="0.99286551587283611297607421875">
        <ele>1317.199951171875</ele>
        <time>2020-08-13T14:41:21.000Z</time>
      </trkpt>
      <trkpt lat="42.46113452129065990447998046875" lon="0.99283232353627681732177734375">
        <ele>1316.4000244140625</ele>
        <time>2020-08-13T14:41:24.000Z</time>
      </trkpt>
      <trkpt lat="42.4611341021955013275146484375" lon="0.99283249117434024810791015625">
        <ele>1316.199951171875</ele>
        <time>2020-08-13T14:41:25.000Z</time>
      </trkpt>
      <trkpt lat="42.461133264005184173583984375" lon="0.99283165298402309417724609375">
        <ele>1316</ele>
        <time>2020-08-13T14:41:37.000Z</time>
      </trkpt>
      <trkpt lat="42.46113284491002559661865234375" lon="0.99282947368919849395751953125">
        <ele>1316.199951171875</ele>
        <time>2020-08-13T14:41:52.000Z</time>
      </trkpt>
      <trkpt lat="42.4611327610909938812255859375" lon="0.99283031187951564788818359375">
        <ele>1316</ele>
        <time>2020-08-13T14:42:04.000Z</time>
      </trkpt>
      <trkpt lat="42.4611327610909938812255859375" lon="0.9928315691649913787841796875">
        <ele>1316.4000244140625</ele>
        <time>2020-08-13T14:42:20.000Z</time>
      </trkpt>
      <trkpt lat="42.46113292872905731201171875" lon="0.99283215589821338653564453125">
        <ele>1316</ele>
        <time>2020-08-13T14:42:28.000Z</time>
      </trkpt>
      <trkpt lat="42.4611604213714599609375" lon="0.99282913841307163238525390625">
        <ele>1316</ele>
        <time>2020-08-13T14:42:34.000Z</time>
      </trkpt>
      <trkpt lat="42.46128045022487640380859375" lon="0.9928258694708347320556640625">
        <ele>1316</ele>
        <time>2020-08-13T14:42:38.000Z</time>
      </trkpt>
      <trkpt lat="42.46140039525926113128662109375" lon="0.99283098243176937103271484375">
        <ele>1315.199951171875</ele>
        <time>2020-08-13T14:42:41.000Z</time>
      </trkpt>
      <trkpt lat="42.4614827893674373626708984375" lon="0.9928248636424541473388671875">
        <ele>1313.800048828125</ele>
        <time>2020-08-13T14:42:43.000Z</time>
      </trkpt>
      <trkpt lat="42.4615729786455631256103515625" lon="0.99281765520572662353515625">
        <ele>1312.5999755859375</ele>
        <time>2020-08-13T14:42:45.000Z</time>
      </trkpt>
      <trkpt lat="42.4616658501327037811279296875" lon="0.99282545037567615509033203125">
        <ele>1311.5999755859375</ele>
        <time>2020-08-13T14:42:47.000Z</time>
      </trkpt>
      <trkpt lat="42.46180155314505100250244140625" lon="0.99282729439437389373779296875">
        <ele>1310.4000244140625</ele>
        <time>2020-08-13T14:42:50.000Z</time>
      </trkpt>
      <trkpt lat="42.461844384670257568359375" lon="0.992813967168331146240234375">
        <ele>1310</ele>
        <time>2020-08-13T14:42:51.000Z</time>
      </trkpt>
      <trkpt lat="42.46196030639111995697021484375" lon="0.99274079315364360809326171875">
        <ele>1309.5999755859375</ele>
        <time>2020-08-13T14:42:54.000Z</time>
      </trkpt>
      <trkpt lat="42.46203138493001461029052734375" lon="0.99269687198102474212646484375">
        <ele>1309.199951171875</ele>
        <time>2020-08-13T14:42:56.000Z</time>
      </trkpt>
      <trkpt lat="42.46217303909361362457275390625" lon="0.99268312565982341766357421875">
        <ele>1309.199951171875</ele>
        <time>2020-08-13T14:43:00.000Z</time>
      </trkpt>
      <trkpt lat="42.462302036583423614501953125" lon="0.99268647842109203338623046875">
        <ele>1308</ele>
        <time>2020-08-13T14:43:04.000Z</time>
      </trkpt>
      <trkpt lat="42.46232450008392333984375" lon="0.9926686249673366546630859375">
        <ele>1307.5999755859375</ele>
        <time>2020-08-13T14:43:05.000Z</time>
      </trkpt>
      <trkpt lat="42.46234520338475704193115234375" lon="0.99261171184480190277099609375">
        <ele>1306.800048828125</ele>
        <time>2020-08-13T14:43:07.000Z</time>
      </trkpt>
      <trkpt lat="42.4623367376625537872314453125" lon="0.99254767410457134246826171875">
        <ele>1306.5999755859375</ele>
        <time>2020-08-13T14:43:09.000Z</time>
      </trkpt>
      <trkpt lat="42.4622448720037937164306640625" lon="0.9924486838281154632568359375">
        <ele>1306</ele>
        <time>2020-08-13T14:43:13.000Z</time>
      </trkpt>
      <trkpt lat="42.4622105062007904052734375" lon="0.99243342876434326171875">
        <ele>1305.800048828125</ele>
        <time>2020-08-13T14:43:14.000Z</time>
      </trkpt>
      <trkpt lat="42.46217119507491588592529296875" lon="0.99241691641509532928466796875">
        <ele>1305.5999755859375</ele>
        <time>2020-08-13T14:43:15.000Z</time>
      </trkpt>
      <trkpt lat="42.46209408156573772430419921875" lon="0.99238942377269268035888671875">
        <ele>1304.800048828125</ele>
        <time>2020-08-13T14:43:17.000Z</time>
      </trkpt>
      <trkpt lat="42.4620544351637363433837890625" lon="0.99238389171659946441650390625">
        <ele>1304.5999755859375</ele>
        <time>2020-08-13T14:43:18.000Z</time>
      </trkpt>
      <trkpt lat="42.46186860837042331695556640625" lon="0.99238439463078975677490234375">
        <ele>1303.199951171875</ele>
        <time>2020-08-13T14:43:23.000Z</time>
      </trkpt>
      <trkpt lat="42.4617553688585758209228515625" lon="0.9924178384244441986083984375">
        <ele>1302</ele>
        <time>2020-08-13T14:43:26.000Z</time>
      </trkpt>
      <trkpt lat="42.4615935981273651123046875" lon="0.99246519617736339569091796875">
        <ele>1301</ele>
        <time>2020-08-13T14:43:30.000Z</time>
      </trkpt>
      <trkpt lat="42.46154992841184139251708984375" lon="0.9924775175750255584716796875">
        <ele>1301</ele>
        <time>2020-08-13T14:43:31.000Z</time>
      </trkpt>
      <trkpt lat="42.46138773858547210693359375" lon="0.9925232827663421630859375">
        <ele>1300</ele>
        <time>2020-08-13T14:43:35.000Z</time>
      </trkpt>
      <trkpt lat="42.46130333282053470611572265625" lon="0.9925167448818683624267578125">
        <ele>1299.800048828125</ele>
        <time>2020-08-13T14:43:37.000Z</time>
      </trkpt>
      <trkpt lat="42.46121834032237529754638671875" lon="0.99249620921909809112548828125">
        <ele>1299</ele>
        <time>2020-08-13T14:43:39.000Z</time>
      </trkpt>
      <trkpt lat="42.46117643080651760101318359375" lon="0.9924889169633388519287109375">
        <ele>1298.4000244140625</ele>
        <time>2020-08-13T14:43:40.000Z</time>
      </trkpt>
      <trkpt lat="42.461135275661945343017578125" lon="0.99248397164046764373779296875">
        <ele>1297.5999755859375</ele>
        <time>2020-08-13T14:43:41.000Z</time>
      </trkpt>
      <trkpt lat="42.461056821048259735107421875" lon="0.9924771822988986968994140625">
        <ele>1297.199951171875</ele>
        <time>2020-08-13T14:43:43.000Z</time>
      </trkpt>
      <trkpt lat="42.4609336070716381072998046875" lon="0.9924718178808689117431640625">
        <ele>1296.4000244140625</ele>
        <time>2020-08-13T14:43:46.000Z</time>
      </trkpt>
      <trkpt lat="42.460785247385501861572265625" lon="0.9925090335309505462646484375">
        <ele>1295.5999755859375</ele>
        <time>2020-08-13T14:43:49.000Z</time>
      </trkpt>
      <trkpt lat="42.46073252521455287933349609375" lon="0.9925328381359577178955078125">
        <ele>1295</ele>
        <time>2020-08-13T14:43:50.000Z</time>
      </trkpt>
      <trkpt lat="42.46062506921589374542236328125" lon="0.9925905056297779083251953125">
        <ele>1293.5999755859375</ele>
        <time>2020-08-13T14:43:52.000Z</time>
      </trkpt>
      <trkpt lat="42.46052197180688381195068359375" lon="0.992639623582363128662109375">
        <ele>1293</ele>
        <time>2020-08-13T14:43:54.000Z</time>
      </trkpt>
      <trkpt lat="42.46047100983560085296630859375" lon="0.99265538156032562255859375">
        <ele>1292.4000244140625</ele>
        <time>2020-08-13T14:43:55.000Z</time>
      </trkpt>
      <trkpt lat="42.46028560213744640350341796875" lon="0.99270340986549854278564453125">
        <ele>1291.5999755859375</ele>
        <time>2020-08-13T14:43:59.000Z</time>
      </trkpt>
      <trkpt lat="42.46019977144896984100341796875" lon="0.99272972904145717620849609375">
        <ele>1291.5999755859375</ele>
        <time>2020-08-13T14:44:01.000Z</time>
      </trkpt>
      <trkpt lat="42.4600622244179248809814453125" lon="0.99277012981474399566650390625">
        <ele>1290</ele>
        <time>2020-08-13T14:44:05.000Z</time>
      </trkpt>
      <trkpt lat="42.45999173261225223541259765625" lon="0.99278907291591167449951171875">
        <ele>1290</ele>
        <time>2020-08-13T14:44:07.000Z</time>
      </trkpt>
      <trkpt lat="42.45970926247537136077880859375" lon="0.9928102791309356689453125">
        <ele>1289.5999755859375</ele>
        <time>2020-08-13T14:44:14.000Z</time>
      </trkpt>
      <trkpt lat="42.45966953225433826446533203125" lon="0.99280969239771366119384765625">
        <ele>1289.199951171875</ele>
        <time>2020-08-13T14:44:15.000Z</time>
      </trkpt>
      <trkpt lat="42.4594875611364841461181640625" lon="0.992805920541286468505859375">
        <ele>1288.4000244140625</ele>
        <time>2020-08-13T14:44:20.000Z</time>
      </trkpt>
      <trkpt lat="42.45940684340894222259521484375" lon="0.9928137995302677154541015625">
        <ele>1288</ele>
        <time>2020-08-13T14:44:22.000Z</time>
      </trkpt>
      <trkpt lat="42.4592572264373302459716796875" lon="0.99282578565180301666259765625">
        <ele>1287.800048828125</ele>
        <time>2020-08-13T14:44:26.000Z</time>
      </trkpt>
      <trkpt lat="42.45915454812347888946533203125" lon="0.9927390329539775848388671875">
        <ele>1287</ele>
        <time>2020-08-13T14:44:29.000Z</time>
      </trkpt>
      <trkpt lat="42.4591301567852497100830078125" lon="0.9926984645426273345947265625">
        <ele>1286.5999755859375</ele>
        <time>2020-08-13T14:44:30.000Z</time>
      </trkpt>
      <trkpt lat="42.45908682234585285186767578125" lon="0.99263702519237995147705078125">
        <ele>1285.5999755859375</ele>
        <time>2020-08-13T14:44:32.000Z</time>
      </trkpt>
      <trkpt lat="42.45905145071446895599365234375" lon="0.99260467104613780975341796875">
        <ele>1284.800048828125</ele>
        <time>2020-08-13T14:44:34.000Z</time>
      </trkpt>
      <trkpt lat="42.45903267525136470794677734375" lon="0.9925958700478076934814453125">
        <ele>1284.800048828125</ele>
        <time>2020-08-13T14:44:35.000Z</time>
      </trkpt>
      <trkpt lat="42.4589527957141399383544921875" lon="0.9925972111523151397705078125">
        <ele>1283.5999755859375</ele>
        <time>2020-08-13T14:44:39.000Z</time>
      </trkpt>
      <trkpt lat="42.458920441567897796630859375" lon="0.99261020310223102569580078125">
        <ele>1283.4000244140625</ele>
        <time>2020-08-13T14:44:40.000Z</time>
      </trkpt>
      <trkpt lat="42.45884156785905361175537109375" lon="0.9926451556384563446044921875">
        <ele>1282.5999755859375</ele>
        <time>2020-08-13T14:44:42.000Z</time>
      </trkpt>
      <trkpt lat="42.45879806578159332275390625" lon="0.9926599077880382537841796875">
        <ele>1282.199951171875</ele>
        <time>2020-08-13T14:44:43.000Z</time>
      </trkpt>
      <trkpt lat="42.4587117321789264678955078125" lon="0.99268245510756969451904296875">
        <ele>1281.800048828125</ele>
        <time>2020-08-13T14:44:45.000Z</time>
      </trkpt>
      <trkpt lat="42.458621375262737274169921875" lon="0.9926971234381198883056640625">
        <ele>1281.5999755859375</ele>
        <time>2020-08-13T14:44:47.000Z</time>
      </trkpt>
      <trkpt lat="42.4584207125008106231689453125" lon="0.99268916063010692596435546875">
        <ele>1280.5999755859375</ele>
        <time>2020-08-13T14:44:51.000Z</time>
      </trkpt>
      <trkpt lat="42.458368577063083648681640625" lon="0.9926850534975528717041015625">
        <ele>1280.4000244140625</ele>
        <time>2020-08-13T14:44:52.000Z</time>
      </trkpt>
      <trkpt lat="42.45810739696025848388671875" lon="0.9926330856978893280029296875">
        <ele>1279.800048828125</ele>
        <time>2020-08-13T14:44:57.000Z</time>
      </trkpt>
      <trkpt lat="42.45806020684540271759033203125" lon="0.9926065988838672637939453125">
        <ele>1279.800048828125</ele>
        <time>2020-08-13T14:44:58.000Z</time>
      </trkpt>
      <trkpt lat="42.45801880024373531341552734375" lon="0.992574580013751983642578125">
        <ele>1279.5999755859375</ele>
        <time>2020-08-13T14:44:59.000Z</time>
      </trkpt>
      <trkpt lat="42.4578916467726230621337890625" lon="0.9924396313726902008056640625">
        <ele>1278.5999755859375</ele>
        <time>2020-08-13T14:45:03.000Z</time>
      </trkpt>
      <trkpt lat="42.45786733925342559814453125" lon="0.992400236427783966064453125">
        <ele>1278.199951171875</ele>
        <time>2020-08-13T14:45:04.000Z</time>
      </trkpt>
      <trkpt lat="42.45777077972888946533203125" lon="0.99224458448588848114013671875">
        <ele>1277.4000244140625</ele>
        <time>2020-08-13T14:45:08.000Z</time>
      </trkpt>
      <trkpt lat="42.4577404372394084930419921875" lon="0.9922067821025848388671875">
        <ele>1276.800048828125</ele>
        <time>2020-08-13T14:45:09.000Z</time>
      </trkpt>
      <trkpt lat="42.4577075801789760589599609375" lon="0.9921687282621860504150390625">
        <ele>1276</ele>
        <time>2020-08-13T14:45:10.000Z</time>
      </trkpt>
      <trkpt lat="42.457641027867794036865234375" lon="0.9920939616858959197998046875">
        <ele>1274.4000244140625</ele>
        <time>2020-08-13T14:45:12.000Z</time>
      </trkpt>
      <trkpt lat="42.45758277364075183868408203125" lon="0.992040820419788360595703125">
        <ele>1272.800048828125</ele>
        <time>2020-08-13T14:45:14.000Z</time>
      </trkpt>
      <trkpt lat="42.4575555324554443359375" lon="0.9920218773186206817626953125">
        <ele>1272.4000244140625</ele>
        <time>2020-08-13T14:45:15.000Z</time>
      </trkpt>
      <trkpt lat="42.4574960209429264068603515625" lon="0.991988517343997955322265625">
        <ele>1271.5999755859375</ele>
        <time>2020-08-13T14:45:17.000Z</time>
      </trkpt>
      <trkpt lat="42.45739686302840709686279296875" lon="0.99196337163448333740234375">
        <ele>1270.5999755859375</ele>
        <time>2020-08-13T14:45:20.000Z</time>
      </trkpt>
      <trkpt lat="42.45733114890754222869873046875" lon="0.99195507355034351348876953125">
        <ele>1269.5999755859375</ele>
        <time>2020-08-13T14:45:22.000Z</time>
      </trkpt>
      <trkpt lat="42.4572640098631381988525390625" lon="0.99196194671094417572021484375">
        <ele>1269.199951171875</ele>
        <time>2020-08-13T14:45:24.000Z</time>
      </trkpt>
      <trkpt lat="42.457227967679500579833984375" lon="0.99196068942546844482421875">
        <ele>1268.800048828125</ele>
        <time>2020-08-13T14:45:25.000Z</time>
      </trkpt>
      <trkpt lat="42.45712897740304470062255859375" lon="0.99192582070827484130859375">
        <ele>1268.199951171875</ele>
        <time>2020-08-13T14:45:28.000Z</time>
      </trkpt>
      <trkpt lat="42.4570641852915287017822265625" lon="0.99191014654934406280517578125">
        <ele>1267.800048828125</ele>
        <time>2020-08-13T14:45:30.000Z</time>
      </trkpt>
      <trkpt lat="42.4569480121135711669921875" lon="0.991908051073551177978515625">
        <ele>1267.199951171875</ele>
        <time>2020-08-13T14:45:33.000Z</time>
      </trkpt>
      <trkpt lat="42.45686913840472698211669921875" lon="0.9919038601219654083251953125">
        <ele>1266.5999755859375</ele>
        <time>2020-08-13T14:45:35.000Z</time>
      </trkpt>
      <trkpt lat="42.45673519559204578399658203125" lon="0.99188215099275112152099609375">
        <ele>1266</ele>
        <time>2020-08-13T14:45:38.000Z</time>
      </trkpt>
      <trkpt lat="42.45644685812294483184814453125" lon="0.9917851723730564117431640625">
        <ele>1266.4000244140625</ele>
        <time>2020-08-13T14:45:44.000Z</time>
      </trkpt>
      <trkpt lat="42.45629749260842800140380859375" lon="0.9916976653039455413818359375">
        <ele>1265.4000244140625</ele>
        <time>2020-08-13T14:45:47.000Z</time>
      </trkpt>
      <trkpt lat="42.45625264942646026611328125" lon="0.99166204221546649932861328125">
        <ele>1264.800048828125</ele>
        <time>2020-08-13T14:45:48.000Z</time>
      </trkpt>
      <trkpt lat="42.45615449734032154083251953125" lon="0.99157704971730709075927734375">
        <ele>1264.800048828125</ele>
        <time>2020-08-13T14:45:50.000Z</time>
      </trkpt>
      <trkpt lat="42.456102780997753143310546875" lon="0.99153664894402027130126953125">
        <ele>1264.4000244140625</ele>
        <time>2020-08-13T14:45:51.000Z</time>
      </trkpt>
      <trkpt lat="42.45594260282814502716064453125" lon="0.99142047576606273651123046875">
        <ele>1263</ele>
        <time>2020-08-13T14:45:54.000Z</time>
      </trkpt>
      <trkpt lat="42.45574244298040866851806640625" lon="0.9912946633994579315185546875">
        <ele>1262.4000244140625</ele>
        <time>2020-08-13T14:45:58.000Z</time>
      </trkpt>
      <trkpt lat="42.45559542439877986907958984375" lon="0.991229452192783355712890625">
        <ele>1262.5999755859375</ele>
        <time>2020-08-13T14:46:02.000Z</time>
      </trkpt>
      <trkpt lat="42.45542493648827075958251953125" lon="0.99116818048059940338134765625">
        <ele>1263</ele>
        <time>2020-08-13T14:46:09.000Z</time>
      </trkpt>
      <trkpt lat="42.45527657680213451385498046875" lon="0.99110213108360767364501953125">
        <ele>1262.800048828125</ele>
        <time>2020-08-13T14:46:15.000Z</time>
      </trkpt>
      <trkpt lat="42.45514665730297565460205078125" lon="0.99106558598577976226806640625">
        <ele>1262.4000244140625</ele>
        <time>2020-08-13T14:46:19.000Z</time>
      </trkpt>
      <trkpt lat="42.45511195622384548187255859375" lon="0.99104211665689945220947265625">
        <ele>1262.199951171875</ele>
        <time>2020-08-13T14:46:20.000Z</time>
      </trkpt>
      <trkpt lat="42.4550300650298595428466796875" lon="0.9909272007644176483154296875">
        <ele>1261.5999755859375</ele>
        <time>2020-08-13T14:46:23.000Z</time>
      </trkpt>
      <trkpt lat="42.45501874946057796478271484375" lon="0.9908681921660900115966796875">
        <ele>1261.4000244140625</ele>
        <time>2020-08-13T14:46:24.000Z</time>
      </trkpt>
      <trkpt lat="42.4549734033644199371337890625" lon="0.99059133790433406829833984375">
        <ele>1261.199951171875</ele>
        <time>2020-08-13T14:46:28.000Z</time>
      </trkpt>
      <trkpt lat="42.454917915165424346923828125" lon="0.99052193574607372283935546875">
        <ele>1261.800048828125</ele>
        <time>2020-08-13T14:46:31.000Z</time>
      </trkpt>
      <trkpt lat="42.45490123517811298370361328125" lon="0.99051170982420444488525390625">
        <ele>1262.199951171875</ele>
        <time>2020-08-13T14:46:32.000Z</time>
      </trkpt>
      <trkpt lat="42.45486586354672908782958984375" lon="0.990483462810516357421875">
        <ele>1262.5999755859375</ele>
        <time>2020-08-13T14:46:34.000Z</time>
      </trkpt>
      <trkpt lat="42.4547739140689373016357421875" lon="0.99042420275509357452392578125">
        <ele>1263.5999755859375</ele>
        <time>2020-08-13T14:46:39.000Z</time>
      </trkpt>
      <trkpt lat="42.454755306243896484375" lon="0.99041850306093692779541015625">
        <ele>1263.800048828125</ele>
        <time>2020-08-13T14:46:40.000Z</time>
      </trkpt>
      <trkpt lat="42.4547092057764530181884765625" lon="0.9903864003717899322509765625">
        <ele>1264.800048828125</ele>
        <time>2020-08-13T14:46:43.000Z</time>
      </trkpt>
      <trkpt lat="42.4546656198799610137939453125" lon="0.99034625105559825897216796875">
        <ele>1265.5999755859375</ele>
        <time>2020-08-13T14:46:46.000Z</time>
      </trkpt>
      <trkpt lat="42.4545754306018352508544921875" lon="0.9902184270322322845458984375">
        <ele>1265.800048828125</ele>
        <time>2020-08-13T14:46:54.000Z</time>
      </trkpt>
      <trkpt lat="42.454571239650249481201171875" lon="0.9902140684425830841064453125">
        <ele>1266</ele>
        <time>2020-08-13T14:47:01.000Z</time>
      </trkpt>
      <trkpt lat="42.45457115583121776580810546875" lon="0.9902144037187099456787109375">
        <ele>1266</ele>
        <time>2020-08-13T14:47:15.000Z</time>
      </trkpt>
      <trkpt lat="42.45457132346928119659423828125" lon="0.9902137331664562225341796875">
        <ele>1266.199951171875</ele>
        <time>2020-08-13T14:47:35.000Z</time>
      </trkpt>
      <trkpt lat="42.45456797070801258087158203125" lon="0.9901631064713001251220703125">
        <ele>1266.199951171875</ele>
        <time>2020-08-13T14:47:53.000Z</time>
      </trkpt>
      <trkpt lat="42.4545581638813018798828125" lon="0.99003327079117298126220703125">
        <ele>1266.4000244140625</ele>
        <time>2020-08-13T14:47:59.000Z</time>
      </trkpt>
      <trkpt lat="42.4544641189277172088623046875" lon="0.98984434269368648529052734375">
        <ele>1265.5999755859375</ele>
        <time>2020-08-13T14:48:05.000Z</time>
      </trkpt>
      <trkpt lat="42.454355321824550628662109375" lon="0.98974023945629596710205078125">
        <ele>1264.800048828125</ele>
        <time>2020-08-13T14:48:08.000Z</time>
      </trkpt>
      <trkpt lat="42.45427728630602359771728515625" lon="0.98964418284595012664794921875">
        <ele>1263.800048828125</ele>
        <time>2020-08-13T14:48:10.000Z</time>
      </trkpt>
      <trkpt lat="42.45423504151403903961181640625" lon="0.9895921312272548675537109375">
        <ele>1263.4000244140625</ele>
        <time>2020-08-13T14:48:11.000Z</time>
      </trkpt>
      <trkpt lat="42.45408617891371250152587890625" lon="0.98944016732275485992431640625">
        <ele>1262.4000244140625</ele>
        <time>2020-08-13T14:48:14.000Z</time>
      </trkpt>
      <trkpt lat="42.454028092324733734130859375" lon="0.9893983416259288787841796875">
        <ele>1261.800048828125</ele>
        <time>2020-08-13T14:48:15.000Z</time>
      </trkpt>
      <trkpt lat="42.45390160940587520599365234375" lon="0.9893296100199222564697265625">
        <ele>1261</ele>
        <time>2020-08-13T14:48:17.000Z</time>
      </trkpt>
      <trkpt lat="42.45376196689903736114501953125" lon="0.98928309045732021331787109375">
        <ele>1260.4000244140625</ele>
        <time>2020-08-13T14:48:19.000Z</time>
      </trkpt>
      <trkpt lat="42.45368787087500095367431640625" lon="0.98926498554646968841552734375">
        <ele>1260</ele>
        <time>2020-08-13T14:48:20.000Z</time>
      </trkpt>
      <trkpt lat="42.453611679375171661376953125" lon="0.989248640835285186767578125">
        <ele>1259.5999755859375</ele>
        <time>2020-08-13T14:48:21.000Z</time>
      </trkpt>
      <trkpt lat="42.4533691070973873138427734375" lon="0.9891998581588268280029296875">
        <ele>1258.199951171875</ele>
        <time>2020-08-13T14:48:24.000Z</time>
      </trkpt>
      <trkpt lat="42.453193925321102142333984375" lon="0.989162810146808624267578125">
        <ele>1257.4000244140625</ele>
        <time>2020-08-13T14:48:26.000Z</time>
      </trkpt>
      <trkpt lat="42.4531018920242786407470703125" lon="0.989148728549480438232421875">
        <ele>1256.800048828125</ele>
        <time>2020-08-13T14:48:27.000Z</time>
      </trkpt>
      <trkpt lat="42.45291187427937984466552734375" lon="0.9891505725681781768798828125">
        <ele>1255.800048828125</ele>
        <time>2020-08-13T14:48:29.000Z</time>
      </trkpt>
      <trkpt lat="42.45281565003097057342529296875" lon="0.98917186260223388671875">
        <ele>1255.199951171875</ele>
        <time>2020-08-13T14:48:30.000Z</time>
      </trkpt>
      <trkpt lat="42.45271925814449787139892578125" lon="0.98920279182493686676025390625">
        <ele>1254.5999755859375</ele>
        <time>2020-08-13T14:48:31.000Z</time>
      </trkpt>
      <trkpt lat="42.45252580381929874420166015625" lon="0.989272110164165496826171875">
        <ele>1253</ele>
        <time>2020-08-13T14:48:33.000Z</time>
      </trkpt>
      <trkpt lat="42.4523284099996089935302734375" lon="0.9893346391618251800537109375">
        <ele>1252.199951171875</ele>
        <time>2020-08-13T14:48:35.000Z</time>
      </trkpt>
      <trkpt lat="42.45222866535186767578125" lon="0.98935735411942005157470703125">
        <ele>1251.800048828125</ele>
        <time>2020-08-13T14:48:36.000Z</time>
      </trkpt>
      <trkpt lat="42.4520288407802581787109375" lon="0.98938249982893466949462890625">
        <ele>1250.5999755859375</ele>
        <time>2020-08-13T14:48:38.000Z</time>
      </trkpt>
      <trkpt lat="42.4517363123595714569091796875" lon="0.9894120879471302032470703125">
        <ele>1249.4000244140625</ele>
        <time>2020-08-13T14:48:41.000Z</time>
      </trkpt>
      <trkpt lat="42.4516400881111621856689453125" lon="0.9894278459250926971435546875">
        <ele>1249</ele>
        <time>2020-08-13T14:48:42.000Z</time>
      </trkpt>
      <trkpt lat="42.45154378004372119903564453125" lon="0.989448130130767822265625">
        <ele>1248.4000244140625</ele>
        <time>2020-08-13T14:48:43.000Z</time>
      </trkpt>
      <trkpt lat="42.4512491561472415924072265625" lon="0.989514179527759552001953125">
        <ele>1247.4000244140625</ele>
        <time>2020-08-13T14:48:46.000Z</time>
      </trkpt>
      <trkpt lat="42.45104488916695117950439453125" lon="0.9895227290689945220947265625">
        <ele>1246.4000244140625</ele>
        <time>2020-08-13T14:48:48.000Z</time>
      </trkpt>
      <trkpt lat="42.45083433575928211212158203125" lon="0.98951124586164951324462890625">
        <ele>1244.4000244140625</ele>
        <time>2020-08-13T14:48:50.000Z</time>
      </trkpt>
      <trkpt lat="42.45061908848583698272705078125" lon="0.9894684143364429473876953125">
        <ele>1243.199951171875</ele>
        <time>2020-08-13T14:48:52.000Z</time>
      </trkpt>
      <trkpt lat="42.45051406323909759521484375" lon="0.98942541517317295074462890625">
        <ele>1242.800048828125</ele>
        <time>2020-08-13T14:48:53.000Z</time>
      </trkpt>
      <trkpt lat="42.450307197868824005126953125" lon="0.98931913264095783233642578125">
        <ele>1241.5999755859375</ele>
        <time>2020-08-13T14:48:55.000Z</time>
      </trkpt>
      <trkpt lat="42.450093291699886322021484375" lon="0.98923380486667156219482421875">
        <ele>1240</ele>
        <time>2020-08-13T14:48:57.000Z</time>
      </trkpt>
      <trkpt lat="42.44998340494930744171142578125" lon="0.98921000026166439056396484375">
        <ele>1239</ele>
        <time>2020-08-13T14:48:58.000Z</time>
      </trkpt>
      <trkpt lat="42.44987494312226772308349609375" lon="0.98920698277652263641357421875">
        <ele>1238.5999755859375</ele>
        <time>2020-08-13T14:48:59.000Z</time>
      </trkpt>
      <trkpt lat="42.44966204278171062469482421875" lon="0.989249311387538909912109375">
        <ele>1237</ele>
        <time>2020-08-13T14:49:01.000Z</time>
      </trkpt>
      <trkpt lat="42.44945048354566097259521484375" lon="0.9892974235117435455322265625">
        <ele>1235.5999755859375</ele>
        <time>2020-08-13T14:49:03.000Z</time>
      </trkpt>
      <trkpt lat="42.44914211332798004150390625" lon="0.98936221562325954437255859375">
        <ele>1234.5999755859375</ele>
        <time>2020-08-13T14:49:06.000Z</time>
      </trkpt>
      <trkpt lat="42.4489437974989414215087890625" lon="0.9894050471484661102294921875">
        <ele>1234.199951171875</ele>
        <time>2020-08-13T14:49:08.000Z</time>
      </trkpt>
      <trkpt lat="42.4488452263176441192626953125" lon="0.98942122422158718109130859375">
        <ele>1233.4000244140625</ele>
        <time>2020-08-13T14:49:09.000Z</time>
      </trkpt>
      <trkpt lat="42.44865235872566699981689453125" lon="0.9894422627985477447509765625">
        <ele>1232</ele>
        <time>2020-08-13T14:49:11.000Z</time>
      </trkpt>
      <trkpt lat="42.448382042348384857177734375" lon="0.98944720812141895294189453125">
        <ele>1231</ele>
        <time>2020-08-13T14:49:14.000Z</time>
      </trkpt>
      <trkpt lat="42.4482983909547328948974609375" lon="0.98944452591240406036376953125">
        <ele>1230.800048828125</ele>
        <time>2020-08-13T14:49:15.000Z</time>
      </trkpt>
      <trkpt lat="42.4479228816926479339599609375" lon="0.98942290060222148895263671875">
        <ele>1229.800048828125</ele>
        <time>2020-08-13T14:49:20.000Z</time>
      </trkpt>
      <trkpt lat="42.44785540737211704254150390625" lon="0.989419631659984588623046875">
        <ele>1229.800048828125</ele>
        <time>2020-08-13T14:49:21.000Z</time>
      </trkpt>
      <trkpt lat="42.44748475961387157440185546875" lon="0.98942088894546031951904296875">
        <ele>1229.800048828125</ele>
        <time>2020-08-13T14:49:27.000Z</time>
      </trkpt>
      <trkpt lat="42.44717798195779323577880859375" lon="0.98944553174078464508056640625">
        <ele>1229.800048828125</ele>
        <time>2020-08-13T14:49:33.000Z</time>
      </trkpt>
      <trkpt lat="42.44687187485396862030029296875" lon="0.98950202576816082000732421875">
        <ele>1230</ele>
        <time>2020-08-13T14:49:40.000Z</time>
      </trkpt>
      <trkpt lat="42.44653793983161449432373046875" lon="0.98957846872508525848388671875">
        <ele>1230.4000244140625</ele>
        <time>2020-08-13T14:49:48.000Z</time>
      </trkpt>
      <trkpt lat="42.44628195650875568389892578125" lon="0.98963714204728603363037109375">
        <ele>1230.5999755859375</ele>
        <time>2020-08-13T14:49:54.000Z</time>
      </trkpt>
      <trkpt lat="42.4461462534964084625244140625" lon="0.989630520343780517578125">
        <ele>1230.4000244140625</ele>
        <time>2020-08-13T14:49:57.000Z</time>
      </trkpt>
      <trkpt lat="42.44606503285467624664306640625" lon="0.98960529081523418426513671875">
        <ele>1230.4000244140625</ele>
        <time>2020-08-13T14:49:59.000Z</time>
      </trkpt>
      <trkpt lat="42.446024380624294281005859375" lon="0.9895864315330982208251953125">
        <ele>1230.4000244140625</ele>
        <time>2020-08-13T14:50:00.000Z</time>
      </trkpt>
      <trkpt lat="42.44569824077188968658447265625" lon="0.9893711842596530914306640625">
        <ele>1229.800048828125</ele>
        <time>2020-08-13T14:50:08.000Z</time>
      </trkpt>
      <trkpt lat="42.44560184888541698455810546875" lon="0.989308319985866546630859375">
        <ele>1229.4000244140625</ele>
        <time>2020-08-13T14:50:10.000Z</time>
      </trkpt>
      <trkpt lat="42.44543706066906452178955078125" lon="0.989198349416255950927734375">
        <ele>1228.4000244140625</ele>
        <time>2020-08-13T14:50:13.000Z</time>
      </trkpt>
      <trkpt lat="42.44537553749978542327880859375" lon="0.9891586191952228546142578125">
        <ele>1227.800048828125</ele>
        <time>2020-08-13T14:50:14.000Z</time>
      </trkpt>
      <trkpt lat="42.445310913026332855224609375" lon="0.989118553698062896728515625">
        <ele>1227.199951171875</ele>
        <time>2020-08-13T14:50:15.000Z</time>
      </trkpt>
      <trkpt lat="42.44502165354788303375244140625" lon="0.9889547713100910186767578125">
        <ele>1225.800048828125</ele>
        <time>2020-08-13T14:50:19.000Z</time>
      </trkpt>
      <trkpt lat="42.44494101963937282562255859375" lon="0.98892333917319774627685546875">
        <ele>1225.199951171875</ele>
        <time>2020-08-13T14:50:20.000Z</time>
      </trkpt>
      <trkpt lat="42.4448566138744354248046875" lon="0.9889007918536663055419921875">
        <ele>1224.800048828125</ele>
        <time>2020-08-13T14:50:21.000Z</time>
      </trkpt>
      <trkpt lat="42.44476701132953166961669921875" lon="0.9888917393982410430908203125">
        <ele>1224.4000244140625</ele>
        <time>2020-08-13T14:50:22.000Z</time>
      </trkpt>
      <trkpt lat="42.4445857107639312744140625" lon="0.9888964332640171051025390625">
        <ele>1223.5999755859375</ele>
        <time>2020-08-13T14:50:24.000Z</time>
      </trkpt>
      <trkpt lat="42.4444960243999958038330078125" lon="0.98889802582561969757080078125">
        <ele>1223.199951171875</ele>
        <time>2020-08-13T14:50:25.000Z</time>
      </trkpt>
      <trkpt lat="42.44431522674858570098876953125" lon="0.98888218402862548828125">
        <ele>1222.4000244140625</ele>
        <time>2020-08-13T14:50:27.000Z</time>
      </trkpt>
      <trkpt lat="42.4442303180694580078125" lon="0.98886500112712383270263671875">
        <ele>1222.199951171875</ele>
        <time>2020-08-13T14:50:28.000Z</time>
      </trkpt>
      <trkpt lat="42.4441493488848209381103515625" lon="0.98883901722729206085205078125">
        <ele>1221.800048828125</ele>
        <time>2020-08-13T14:50:29.000Z</time>
      </trkpt>
      <trkpt lat="42.4437171779572963714599609375" lon="0.98866702057421207427978515625">
        <ele>1221.4000244140625</ele>
        <time>2020-08-13T14:50:35.000Z</time>
      </trkpt>
      <trkpt lat="42.44335566647350788116455078125" lon="0.98856761120259761810302734375">
        <ele>1221.5999755859375</ele>
        <time>2020-08-13T14:50:41.000Z</time>
      </trkpt>
      <trkpt lat="42.443299256265163421630859375" lon="0.98857113160192966461181640625">
        <ele>1221.5999755859375</ele>
        <time>2020-08-13T14:50:42.000Z</time>
      </trkpt>
      <trkpt lat="42.4430878646671772003173828125" lon="0.98864606581628322601318359375">
        <ele>1221.4000244140625</ele>
        <time>2020-08-13T14:50:46.000Z</time>
      </trkpt>
      <trkpt lat="42.44299591518938541412353515625" lon="0.98871655762195587158203125">
        <ele>1221.4000244140625</ele>
        <time>2020-08-13T14:50:48.000Z</time>
      </trkpt>
      <trkpt lat="42.4427864514291286468505859375" lon="0.98889869637787342071533203125">
        <ele>1221.5999755859375</ele>
        <time>2020-08-13T14:50:53.000Z</time>
      </trkpt>
      <trkpt lat="42.4427053146064281463623046875" lon="0.988968349993228912353515625">
        <ele>1221.4000244140625</ele>
        <time>2020-08-13T14:50:55.000Z</time>
      </trkpt>
      <trkpt lat="42.44255234487354755401611328125" lon="0.98910237662494182586669921875">
        <ele>1221.199951171875</ele>
        <time>2020-08-13T14:50:59.000Z</time>
      </trkpt>
      <trkpt lat="42.4425128661096096038818359375" lon="0.9891329705715179443359375">
        <ele>1221.199951171875</ele>
        <time>2020-08-13T14:51:00.000Z</time>
      </trkpt>
      <trkpt lat="42.44234740734100341796875" lon="0.98922961391508579254150390625">
        <ele>1220.800048828125</ele>
        <time>2020-08-13T14:51:04.000Z</time>
      </trkpt>
      <trkpt lat="42.442259900271892547607421875" lon="0.98924855701625347137451171875">
        <ele>1221</ele>
        <time>2020-08-13T14:51:06.000Z</time>
      </trkpt>
      <trkpt lat="42.44203015230596065521240234375" lon="0.98927521146833896636962890625">
        <ele>1220.5999755859375</ele>
        <time>2020-08-13T14:51:11.000Z</time>
      </trkpt>
      <trkpt lat="42.44186972267925739288330078125" lon="0.98926104605197906494140625">
        <ele>1219.800048828125</ele>
        <time>2020-08-13T14:51:14.000Z</time>
      </trkpt>
      <trkpt lat="42.44180954061448574066162109375" lon="0.98924486897885799407958984375">
        <ele>1219.5999755859375</ele>
        <time>2020-08-13T14:51:15.000Z</time>
      </trkpt>
      <trkpt lat="42.44174734689295291900634765625" lon="0.98921989090740680694580078125">
        <ele>1219.199951171875</ele>
        <time>2020-08-13T14:51:16.000Z</time>
      </trkpt>
      <trkpt lat="42.44161843322217464447021484375" lon="0.989146716892719268798828125">
        <ele>1218.5999755859375</ele>
        <time>2020-08-13T14:51:18.000Z</time>
      </trkpt>
      <trkpt lat="42.44154903106391429901123046875" lon="0.98910723812878131866455078125">
        <ele>1218</ele>
        <time>2020-08-13T14:51:19.000Z</time>
      </trkpt>
      <trkpt lat="42.4414014257490634918212890625" lon="0.9890292026102542877197265625">
        <ele>1217</ele>
        <time>2020-08-13T14:51:21.000Z</time>
      </trkpt>
      <trkpt lat="42.44124443270266056060791015625" lon="0.98895066417753696441650390625">
        <ele>1216</ele>
        <time>2020-08-13T14:51:23.000Z</time>
      </trkpt>
      <trkpt lat="42.44116044603288173675537109375" lon="0.98892384208738803863525390625">
        <ele>1215.4000244140625</ele>
        <time>2020-08-13T14:51:24.000Z</time>
      </trkpt>
      <trkpt lat="42.44098140858113765716552734375" lon="0.9888997860252857208251953125">
        <ele>1214.5999755859375</ele>
        <time>2020-08-13T14:51:26.000Z</time>
      </trkpt>
      <trkpt lat="42.44079164229333400726318359375" lon="0.9889155440032482147216796875">
        <ele>1213.800048828125</ele>
        <time>2020-08-13T14:51:28.000Z</time>
      </trkpt>
      <trkpt lat="42.44069474749267101287841796875" lon="0.9889370016753673553466796875">
        <ele>1213</ele>
        <time>2020-08-13T14:51:29.000Z</time>
      </trkpt>
      <trkpt lat="42.44048804976046085357666015625" lon="0.98898000083863735198974609375">
        <ele>1211.800048828125</ele>
        <time>2020-08-13T14:51:31.000Z</time>
      </trkpt>
      <trkpt lat="42.4403831921517848968505859375" lon="0.9889893047511577606201171875">
        <ele>1211.199951171875</ele>
        <time>2020-08-13T14:51:32.000Z</time>
      </trkpt>
      <trkpt lat="42.44027732871472835540771484375" lon="0.9889933280646800994873046875">
        <ele>1210.199951171875</ele>
        <time>2020-08-13T14:51:33.000Z</time>
      </trkpt>
      <trkpt lat="42.4400626681745052337646484375" lon="0.98899274133145809173583984375">
        <ele>1208.800048828125</ele>
        <time>2020-08-13T14:51:35.000Z</time>
      </trkpt>
      <trkpt lat="42.439735941588878631591796875" lon="0.9889705292880535125732421875">
        <ele>1207.199951171875</ele>
        <time>2020-08-13T14:51:38.000Z</time>
      </trkpt>
      <trkpt lat="42.4396316707134246826171875" lon="0.988949239253997802734375">
        <ele>1206.4000244140625</ele>
        <time>2020-08-13T14:51:39.000Z</time>
      </trkpt>
      <trkpt lat="42.439533770084381103515625" lon="0.98891696892678737640380859375">
        <ele>1205.5999755859375</ele>
        <time>2020-08-13T14:51:40.000Z</time>
      </trkpt>
      <trkpt lat="42.43944031186401844024658203125" lon="0.9888675995171070098876953125">
        <ele>1204.800048828125</ele>
        <time>2020-08-13T14:51:41.000Z</time>
      </trkpt>
      <trkpt lat="42.43935406208038330078125" lon="0.98880196921527385711669921875">
        <ele>1204.199951171875</ele>
        <time>2020-08-13T14:51:42.000Z</time>
      </trkpt>
      <trkpt lat="42.43927334435284137725830078125" lon="0.98872862756252288818359375">
        <ele>1203</ele>
        <time>2020-08-13T14:51:43.000Z</time>
      </trkpt>
      <trkpt lat="42.439110316336154937744140625" lon="0.98859585821628570556640625">
        <ele>1202.199951171875</ele>
        <time>2020-08-13T14:51:45.000Z</time>
      </trkpt>
      <trkpt lat="42.43902239017188549041748046875" lon="0.9885537810623645782470703125">
        <ele>1201.800048828125</ele>
        <time>2020-08-13T14:51:46.000Z</time>
      </trkpt>
      <trkpt lat="42.43884352035820484161376953125" lon="0.98853223957121372222900390625">
        <ele>1201.199951171875</ele>
        <time>2020-08-13T14:51:48.000Z</time>
      </trkpt>
      <trkpt lat="42.43867303244769573211669921875" lon="0.98856627009809017181396484375">
        <ele>1201</ele>
        <time>2020-08-13T14:51:50.000Z</time>
      </trkpt>
      <trkpt lat="42.43859340436756610870361328125" lon="0.98858806304633617401123046875">
        <ele>1200.800048828125</ele>
        <time>2020-08-13T14:51:51.000Z</time>
      </trkpt>
      <trkpt lat="42.43844051845371723175048828125" lon="0.9886340796947479248046875">
        <ele>1200.5999755859375</ele>
        <time>2020-08-13T14:51:53.000Z</time>
      </trkpt>
      <trkpt lat="42.4381412006914615631103515625" lon="0.9887331537902355194091796875">
        <ele>1199.800048828125</ele>
        <time>2020-08-13T14:51:57.000Z</time>
      </trkpt>
      <trkpt lat="42.43791413493454456329345703125" lon="0.98881437443196773529052734375">
        <ele>1199</ele>
        <time>2020-08-13T14:52:00.000Z</time>
      </trkpt>
      <trkpt lat="42.43783366866409778594970703125" lon="0.98884320817887783050537109375">
        <ele>1198.800048828125</ele>
        <time>2020-08-13T14:52:01.000Z</time>
      </trkpt>
      <trkpt lat="42.4376610852777957916259765625" lon="0.988901294767856597900390625">
        <ele>1197.5999755859375</ele>
        <time>2020-08-13T14:52:03.000Z</time>
      </trkpt>
      <trkpt lat="42.4374750070273876190185546875" lon="0.98896273411810398101806640625">
        <ele>1196.4000244140625</ele>
        <time>2020-08-13T14:52:05.000Z</time>
      </trkpt>
      <trkpt lat="42.43737794458866119384765625" lon="0.98899441771209239959716796875">
        <ele>1195.800048828125</ele>
        <time>2020-08-13T14:52:06.000Z</time>
      </trkpt>
      <trkpt lat="42.43727945722639560699462890625" lon="0.989017300307750701904296875">
        <ele>1195</ele>
        <time>2020-08-13T14:52:07.000Z</time>
      </trkpt>
      <trkpt lat="42.43718323297798633575439453125" lon="0.9890241734683513641357421875">
        <ele>1194</ele>
        <time>2020-08-13T14:52:08.000Z</time>
      </trkpt>
      <trkpt lat="42.4370897747576236724853515625" lon="0.98900967277586460113525390625">
        <ele>1193.199951171875</ele>
        <time>2020-08-13T14:52:09.000Z</time>
      </trkpt>
      <trkpt lat="42.4369127489626407623291015625" lon="0.9889125265181064605712890625">
        <ele>1192</ele>
        <time>2020-08-13T14:52:11.000Z</time>
      </trkpt>
      <trkpt lat="42.43682784028351306915283203125" lon="0.98884119652211666107177734375">
        <ele>1191.199951171875</ele>
        <time>2020-08-13T14:52:12.000Z</time>
      </trkpt>
      <trkpt lat="42.43674351833760738372802734375" lon="0.98876441828906536102294921875">
        <ele>1190.5999755859375</ele>
        <time>2020-08-13T14:52:13.000Z</time>
      </trkpt>
      <trkpt lat="42.4365712702274322509765625" lon="0.98860013298690319061279296875">
        <ele>1189.199951171875</ele>
        <time>2020-08-13T14:52:15.000Z</time>
      </trkpt>
      <trkpt lat="42.4363888800144195556640625" lon="0.98843534477055072784423828125">
        <ele>1188</ele>
        <time>2020-08-13T14:52:17.000Z</time>
      </trkpt>
      <trkpt lat="42.4362938292324542999267578125" lon="0.9883589856326580047607421875">
        <ele>1187.4000244140625</ele>
        <time>2020-08-13T14:52:18.000Z</time>
      </trkpt>
      <trkpt lat="42.4361957609653472900390625" lon="0.98828782327473163604736328125">
        <ele>1186.800048828125</ele>
        <time>2020-08-13T14:52:19.000Z</time>
      </trkpt>
      <trkpt lat="42.4359934218227863311767578125" lon="0.98815689794719219207763671875">
        <ele>1185.4000244140625</ele>
        <time>2020-08-13T14:52:21.000Z</time>
      </trkpt>
      <trkpt lat="42.43578714318573474884033203125" lon="0.98802865482866764068603515625">
        <ele>1183.5999755859375</ele>
        <time>2020-08-13T14:52:23.000Z</time>
      </trkpt>
      <trkpt lat="42.43568412959575653076171875" lon="0.9879653714597225189208984375">
        <ele>1182.5999755859375</ele>
        <time>2020-08-13T14:52:24.000Z</time>
      </trkpt>
      <trkpt lat="42.43548028171062469482421875" lon="0.98784073255956172943115234375">
        <ele>1181.5999755859375</ele>
        <time>2020-08-13T14:52:26.000Z</time>
      </trkpt>
      <trkpt lat="42.43518431670963764190673828125" lon="0.98765012808144092559814453125">
        <ele>1180.199951171875</ele>
        <time>2020-08-13T14:52:29.000Z</time>
      </trkpt>
      <trkpt lat="42.43500821292400360107421875" lon="0.987495146691799163818359375">
        <ele>1179.199951171875</ele>
        <time>2020-08-13T14:52:31.000Z</time>
      </trkpt>
      <trkpt lat="42.43493269197642803192138671875" lon="0.98740537650883197784423828125">
        <ele>1179</ele>
        <time>2020-08-13T14:52:32.000Z</time>
      </trkpt>
      <trkpt lat="42.43474267423152923583984375" lon="0.98711200989782810211181640625">
        <ele>1178.199951171875</ele>
        <time>2020-08-13T14:52:35.000Z</time>
      </trkpt>
      <trkpt lat="42.43462490849196910858154296875" lon="0.98691687919199466705322265625">
        <ele>1177.800048828125</ele>
        <time>2020-08-13T14:52:37.000Z</time>
      </trkpt>
      <trkpt lat="42.43449431844055652618408203125" lon="0.98675007931888103485107421875">
        <ele>1177.5999755859375</ele>
        <time>2020-08-13T14:52:39.000Z</time>
      </trkpt>
      <trkpt lat="42.43441888131201267242431640625" lon="0.9866839461028575897216796875">
        <ele>1177.4000244140625</ele>
        <time>2020-08-13T14:52:40.000Z</time>
      </trkpt>
      <trkpt lat="42.43433925323188304901123046875" lon="0.98663424141705036163330078125">
        <ele>1177</ele>
        <time>2020-08-13T14:52:41.000Z</time>
      </trkpt>
      <trkpt lat="42.4341626465320587158203125" lon="0.98657908849418163299560546875">
        <ele>1176.4000244140625</ele>
        <time>2020-08-13T14:52:43.000Z</time>
      </trkpt>
      <trkpt lat="42.4340699426829814910888671875" lon="0.9865615703165531158447265625">
        <ele>1175.800048828125</ele>
        <time>2020-08-13T14:52:44.000Z</time>
      </trkpt>
      <trkpt lat="42.43379392661154270172119140625" lon="0.9865427948534488677978515625">
        <ele>1174.5999755859375</ele>
        <time>2020-08-13T14:52:47.000Z</time>
      </trkpt>
      <trkpt lat="42.4337038211524486541748046875" lon="0.98654321394860744476318359375">
        <ele>1174.199951171875</ele>
        <time>2020-08-13T14:52:48.000Z</time>
      </trkpt>
      <trkpt lat="42.43352226912975311279296875" lon="0.98654455505311489105224609375">
        <ele>1173.4000244140625</ele>
        <time>2020-08-13T14:52:50.000Z</time>
      </trkpt>
      <trkpt lat="42.43325647898018360137939453125" lon="0.98651085980236530303955078125">
        <ele>1172.4000244140625</ele>
        <time>2020-08-13T14:52:53.000Z</time>
      </trkpt>
      <trkpt lat="42.43317031301558017730712890625" lon="0.9864847920835018157958984375">
        <ele>1171.800048828125</ele>
        <time>2020-08-13T14:52:54.000Z</time>
      </trkpt>
      <trkpt lat="42.43300326168537139892578125" lon="0.9864170663058757781982421875">
        <ele>1171</ele>
        <time>2020-08-13T14:52:56.000Z</time>
      </trkpt>
      <trkpt lat="42.43276278488337993621826171875" lon="0.98632914014160633087158203125">
        <ele>1170.4000244140625</ele>
        <time>2020-08-13T14:52:59.000Z</time>
      </trkpt>
      <trkpt lat="42.4326847493648529052734375" lon="0.98631656728684902191162109375">
        <ele>1170.199951171875</ele>
        <time>2020-08-13T14:53:00.000Z</time>
      </trkpt>
      <trkpt lat="42.4325310252606868743896484375" lon="0.98631438799202442169189453125">
        <ele>1169.4000244140625</ele>
        <time>2020-08-13T14:53:02.000Z</time>
      </trkpt>
      <trkpt lat="42.4324562586843967437744140625" lon="0.9863282181322574615478515625">
        <ele>1169</ele>
        <time>2020-08-13T14:53:03.000Z</time>
      </trkpt>
      <trkpt lat="42.43224084377288818359375" lon="0.98640910349786281585693359375">
        <ele>1167.5999755859375</ele>
        <time>2020-08-13T14:53:06.000Z</time>
      </trkpt>
      <trkpt lat="42.4321008659899234771728515625" lon="0.98648856393992900848388671875">
        <ele>1167</ele>
        <time>2020-08-13T14:53:08.000Z</time>
      </trkpt>
      <trkpt lat="42.43195879273116588592529296875" lon="0.98657422699034214019775390625">
        <ele>1166.5999755859375</ele>
        <time>2020-08-13T14:53:10.000Z</time>
      </trkpt>
      <trkpt lat="42.4317280389368534088134765625" lon="0.98667665384709835052490234375">
        <ele>1165.5999755859375</ele>
        <time>2020-08-13T14:53:13.000Z</time>
      </trkpt>
      <trkpt lat="42.43164581246674060821533203125" lon="0.986686460673809051513671875">
        <ele>1165.199951171875</ele>
        <time>2020-08-13T14:53:14.000Z</time>
      </trkpt>
      <trkpt lat="42.43139871396124362945556640625" lon="0.9866653382778167724609375">
        <ele>1164.4000244140625</ele>
        <time>2020-08-13T14:53:17.000Z</time>
      </trkpt>
      <trkpt lat="42.431146167218685150146484375" lon="0.98663541488349437713623046875">
        <ele>1162.800048828125</ele>
        <time>2020-08-13T14:53:20.000Z</time>
      </trkpt>
      <trkpt lat="42.43097542785108089447021484375" lon="0.9865967743098735809326171875">
        <ele>1161.800048828125</ele>
        <time>2020-08-13T14:53:22.000Z</time>
      </trkpt>
      <trkpt lat="42.43072195909917354583740234375" lon="0.9864878095686435699462890625">
        <ele>1160.4000244140625</ele>
        <time>2020-08-13T14:53:25.000Z</time>
      </trkpt>
      <trkpt lat="42.43055147118866443634033203125" lon="0.9863939322531223297119140625">
        <ele>1159</ele>
        <time>2020-08-13T14:53:27.000Z</time>
      </trkpt>
      <trkpt lat="42.43028610013425350189208984375" lon="0.98624599166214466094970703125">
        <ele>1157.800048828125</ele>
        <time>2020-08-13T14:53:30.000Z</time>
      </trkpt>
      <trkpt lat="42.4301096610724925994873046875" lon="0.98614222370088100433349609375">
        <ele>1156.5999755859375</ele>
        <time>2020-08-13T14:53:32.000Z</time>
      </trkpt>
      <trkpt lat="42.4299279414117336273193359375" lon="0.98604633472859859466552734375">
        <ele>1155.4000244140625</ele>
        <time>2020-08-13T14:53:34.000Z</time>
      </trkpt>
      <trkpt lat="42.4297478981316089630126953125" lon="0.98595296032726764678955078125">
        <ele>1154.199951171875</ele>
        <time>2020-08-13T14:53:36.000Z</time>
      </trkpt>
      <trkpt lat="42.4295819364488124847412109375" lon="0.9858474321663379669189453125">
        <ele>1153.199951171875</ele>
        <time>2020-08-13T14:53:38.000Z</time>
      </trkpt>
      <trkpt lat="42.42949887178838253021240234375" lon="0.98579370416700839996337890625">
        <ele>1152.800048828125</ele>
        <time>2020-08-13T14:53:39.000Z</time>
      </trkpt>
      <trkpt lat="42.42924280464649200439453125" lon="0.985648445785045623779296875">
        <ele>1151.5999755859375</ele>
        <time>2020-08-13T14:53:42.000Z</time>
      </trkpt>
      <trkpt lat="42.4290666170418262481689453125" lon="0.98554409109055995941162109375">
        <ele>1150.5999755859375</ele>
        <time>2020-08-13T14:53:44.000Z</time>
      </trkpt>
      <trkpt lat="42.42897885851562023162841796875" lon="0.9854860045015811920166015625">
        <ele>1149.800048828125</ele>
        <time>2020-08-13T14:53:45.000Z</time>
      </trkpt>
      <trkpt lat="42.4287249706685543060302734375" lon="0.98529498092830181121826171875">
        <ele>1148.5999755859375</ele>
        <time>2020-08-13T14:53:48.000Z</time>
      </trkpt>
      <trkpt lat="42.42855993099510669708251953125" lon="0.98516874946653842926025390625">
        <ele>1147.4000244140625</ele>
        <time>2020-08-13T14:53:50.000Z</time>
      </trkpt>
      <trkpt lat="42.42831450887024402618408203125" lon="0.98497931845486164093017578125">
        <ele>1146.199951171875</ele>
        <time>2020-08-13T14:53:53.000Z</time>
      </trkpt>
      <trkpt lat="42.428148798644542694091796875" lon="0.9848697669804096221923828125">
        <ele>1145.199951171875</ele>
        <time>2020-08-13T14:53:55.000Z</time>
      </trkpt>
      <trkpt lat="42.427980490028858184814453125" lon="0.9847745485603809356689453125">
        <ele>1144.199951171875</ele>
        <time>2020-08-13T14:53:57.000Z</time>
      </trkpt>
      <trkpt lat="42.42789625190198421478271484375" lon="0.9847296215593814849853515625">
        <ele>1143.800048828125</ele>
        <time>2020-08-13T14:53:58.000Z</time>
      </trkpt>
      <trkpt lat="42.42773179896175861358642578125" lon="0.98463214002549648284912109375">
        <ele>1143</ele>
        <time>2020-08-13T14:54:00.000Z</time>
      </trkpt>
      <trkpt lat="42.42765627801418304443359375" lon="0.98457363434135913848876953125">
        <ele>1142.5999755859375</ele>
        <time>2020-08-13T14:54:01.000Z</time>
      </trkpt>
      <trkpt lat="42.42758461274206638336181640625" lon="0.9845101833343505859375">
        <ele>1142.4000244140625</ele>
        <time>2020-08-13T14:54:02.000Z</time>
      </trkpt>
      <trkpt lat="42.4274482391774654388427734375" lon="0.98437607288360595703125">
        <ele>1141.5999755859375</ele>
        <time>2020-08-13T14:54:04.000Z</time>
      </trkpt>
      <trkpt lat="42.42724212817847728729248046875" lon="0.9841975383460521697998046875">
        <ele>1140.5999755859375</ele>
        <time>2020-08-13T14:54:07.000Z</time>
      </trkpt>
      <trkpt lat="42.4271692894399166107177734375" lon="0.984157137572765350341796875">
        <ele>1140</ele>
        <time>2020-08-13T14:54:08.000Z</time>
      </trkpt>
      <trkpt lat="42.42694138549268245697021484375" lon="0.98408128134906291961669921875">
        <ele>1139</ele>
        <time>2020-08-13T14:54:11.000Z</time>
      </trkpt>
      <trkpt lat="42.42678632028400897979736328125" lon="0.98405345343053340911865234375">
        <ele>1137.800048828125</ele>
        <time>2020-08-13T14:54:13.000Z</time>
      </trkpt>
      <trkpt lat="42.42654894478619098663330078125" lon="0.9840003959834575653076171875">
        <ele>1136.5999755859375</ele>
        <time>2020-08-13T14:54:16.000Z</time>
      </trkpt>
      <trkpt lat="42.42639153264462947845458984375" lon="0.9839159063994884490966796875">
        <ele>1136</ele>
        <time>2020-08-13T14:54:18.000Z</time>
      </trkpt>
      <trkpt lat="42.42631525732576847076416015625" lon="0.98385907709598541259765625">
        <ele>1135.4000244140625</ele>
        <time>2020-08-13T14:54:19.000Z</time>
      </trkpt>
      <trkpt lat="42.4261701665818691253662109375" lon="0.983717925846576690673828125">
        <ele>1134.4000244140625</ele>
        <time>2020-08-13T14:54:21.000Z</time>
      </trkpt>
      <trkpt lat="42.426099590957164764404296875" lon="0.98364072851836681365966796875">
        <ele>1134</ele>
        <time>2020-08-13T14:54:22.000Z</time>
      </trkpt>
      <trkpt lat="42.42603010497987270355224609375" lon="0.9835593402385711669921875">
        <ele>1133</ele>
        <time>2020-08-13T14:54:23.000Z</time>
      </trkpt>
      <trkpt lat="42.42589180357754230499267578125" lon="0.9833965636789798736572265625">
        <ele>1131.800048828125</ele>
        <time>2020-08-13T14:54:25.000Z</time>
      </trkpt>
      <trkpt lat="42.42567806504666805267333984375" lon="0.98315726034343242645263671875">
        <ele>1130.4000244140625</ele>
        <time>2020-08-13T14:54:28.000Z</time>
      </trkpt>
      <trkpt lat="42.42553456686437129974365234375" lon="0.983004458248615264892578125">
        <ele>1129.5999755859375</ele>
        <time>2020-08-13T14:54:30.000Z</time>
      </trkpt>
      <trkpt lat="42.4254654161632061004638671875" lon="0.9829295240342617034912109375">
        <ele>1129.199951171875</ele>
        <time>2020-08-13T14:54:31.000Z</time>
      </trkpt>
      <trkpt lat="42.42519509978592395782470703125" lon="0.9826428629457950592041015625">
        <ele>1128</ele>
        <time>2020-08-13T14:54:35.000Z</time>
      </trkpt>
      <trkpt lat="42.42512368597090244293212890625" lon="0.98258108831942081451416015625">
        <ele>1127.5999755859375</ele>
        <time>2020-08-13T14:54:36.000Z</time>
      </trkpt>
      <trkpt lat="42.4250479973852634429931640625" lon="0.9825302101671695709228515625">
        <ele>1127</ele>
        <time>2020-08-13T14:54:37.000Z</time>
      </trkpt>
      <trkpt lat="42.4249668605625629425048828125" lon="0.98249257542192935943603515625">
        <ele>1126.5999755859375</ele>
        <time>2020-08-13T14:54:38.000Z</time>
      </trkpt>
      <trkpt lat="42.42479947395622730255126953125" lon="0.98247581161558628082275390625">
        <ele>1125.5999755859375</ele>
        <time>2020-08-13T14:54:40.000Z</time>
      </trkpt>
      <trkpt lat="42.42463435046374797821044921875" lon="0.98251218907535076141357421875">
        <ele>1125</ele>
        <time>2020-08-13T14:54:42.000Z</time>
      </trkpt>
      <trkpt lat="42.42455187253654003143310546875" lon="0.98253314383327960968017578125">
        <ele>1124.4000244140625</ele>
        <time>2020-08-13T14:54:43.000Z</time>
      </trkpt>
      <trkpt lat="42.4243060313165187835693359375" lon="0.982574634253978729248046875">
        <ele>1123</ele>
        <time>2020-08-13T14:54:46.000Z</time>
      </trkpt>
      <trkpt lat="42.42415373213589191436767578125" lon="0.98253632895648479461669921875">
        <ele>1121.4000244140625</ele>
        <time>2020-08-13T14:54:48.000Z</time>
      </trkpt>
      <trkpt lat="42.42400973103940486907958984375" lon="0.982473380863666534423828125">
        <ele>1120.4000244140625</ele>
        <time>2020-08-13T14:54:50.000Z</time>
      </trkpt>
      <trkpt lat="42.4238165281713008880615234375" lon="0.982392914593219757080078125">
        <ele>1119.199951171875</ele>
        <time>2020-08-13T14:54:53.000Z</time>
      </trkpt>
      <trkpt lat="42.42368283681571483612060546875" lon="0.9823823533952236175537109375">
        <ele>1118</ele>
        <time>2020-08-13T14:54:55.000Z</time>
      </trkpt>
      <trkpt lat="42.42355911992490291595458984375" lon="0.9823739714920520782470703125">
        <ele>1117.800048828125</ele>
        <time>2020-08-13T14:54:57.000Z</time>
      </trkpt>
      <trkpt lat="42.42343691177666187286376953125" lon="0.9823548607528209686279296875">
        <ele>1117.199951171875</ele>
        <time>2020-08-13T14:54:59.000Z</time>
      </trkpt>
      <trkpt lat="42.423374466598033905029296875" lon="0.98233826458454132080078125">
        <ele>1117</ele>
        <time>2020-08-13T14:55:00.000Z</time>
      </trkpt>
      <trkpt lat="42.42312711663544178009033203125" lon="0.9822318144142627716064453125">
        <ele>1116</ele>
        <time>2020-08-13T14:55:04.000Z</time>
      </trkpt>
      <trkpt lat="42.423014380037784576416015625" lon="0.98216534592211246490478515625">
        <ele>1115.4000244140625</ele>
        <time>2020-08-13T14:55:06.000Z</time>
      </trkpt>
      <trkpt lat="42.422917149960994720458984375" lon="0.982104241847991943359375">
        <ele>1115.199951171875</ele>
        <time>2020-08-13T14:55:08.000Z</time>
      </trkpt>
      <trkpt lat="42.42268287576735019683837890625" lon="0.98195646889507770538330078125">
        <ele>1114.199951171875</ele>
        <time>2020-08-13T14:55:13.000Z</time>
      </trkpt>
      <trkpt lat="42.42237710393965244293212890625" lon="0.9817828796803951263427734375">
        <ele>1113</ele>
        <time>2020-08-13T14:55:20.000Z</time>
      </trkpt>
      <trkpt lat="42.4223356135189533233642578125" lon="0.98176418803632259368896484375">
        <ele>1112.5999755859375</ele>
        <time>2020-08-13T14:55:21.000Z</time>
      </trkpt>
      <trkpt lat="42.422249615192413330078125" lon="0.98172043450176715850830078125">
        <ele>1112</ele>
        <time>2020-08-13T14:55:23.000Z</time>
      </trkpt>
      <trkpt lat="42.4220566637814044952392578125" lon="0.98162689246237277984619140625">
        <ele>1111.199951171875</ele>
        <time>2020-08-13T14:55:27.000Z</time>
      </trkpt>
      <trkpt lat="42.422004528343677520751953125" lon="0.9816025011241436004638671875">
        <ele>1110.800048828125</ele>
        <time>2020-08-13T14:55:28.000Z</time>
      </trkpt>
      <trkpt lat="42.4217193759977817535400390625" lon="0.9814905188977718353271484375">
        <ele>1109.800048828125</ele>
        <time>2020-08-13T14:55:33.000Z</time>
      </trkpt>
      <trkpt lat="42.421657182276248931884765625" lon="0.981470234692096710205078125">
        <ele>1109.4000244140625</ele>
        <time>2020-08-13T14:55:34.000Z</time>
      </trkpt>
      <trkpt lat="42.4214598722755908966064453125" lon="0.98141835071146488189697265625">
        <ele>1108.5999755859375</ele>
        <time>2020-08-13T14:55:37.000Z</time>
      </trkpt>
      <trkpt lat="42.42125074379146099090576171875" lon="0.9813678078353404998779296875">
        <ele>1107.5999755859375</ele>
        <time>2020-08-13T14:55:40.000Z</time>
      </trkpt>
      <trkpt lat="42.42110741324722766876220703125" lon="0.9813426621258258819580078125">
        <ele>1107.199951171875</ele>
        <time>2020-08-13T14:55:42.000Z</time>
      </trkpt>
      <trkpt lat="42.4209666810929775238037109375" lon="0.9813319332897663116455078125">
        <ele>1106.199951171875</ele>
        <time>2020-08-13T14:55:44.000Z</time>
      </trkpt>
      <trkpt lat="42.420752607285976409912109375" lon="0.9813165105879306793212890625">
        <ele>1105.199951171875</ele>
        <time>2020-08-13T14:55:47.000Z</time>
      </trkpt>
      <trkpt lat="42.4206796847283840179443359375" lon="0.98131709732115268707275390625">
        <ele>1104.800048828125</ele>
        <time>2020-08-13T14:55:48.000Z</time>
      </trkpt>
      <trkpt lat="42.42046016268432140350341796875" lon="0.981322042644023895263671875">
        <ele>1104</ele>
        <time>2020-08-13T14:55:51.000Z</time>
      </trkpt>
      <trkpt lat="42.42024139501154422760009765625" lon="0.9813305921852588653564453125">
        <ele>1102.800048828125</ele>
        <time>2020-08-13T14:55:54.000Z</time>
      </trkpt>
      <trkpt lat="42.41996646858751773834228515625" lon="0.9813250601291656494140625">
        <ele>1102.4000244140625</ele>
        <time>2020-08-13T14:55:58.000Z</time>
      </trkpt>
      <trkpt lat="42.419910728931427001953125" lon="0.9813148342072963714599609375">
        <ele>1102.199951171875</ele>
        <time>2020-08-13T14:55:59.000Z</time>
      </trkpt>
      <trkpt lat="42.41986203007400035858154296875" lon="0.9812980704009532928466796875">
        <ele>1102</ele>
        <time>2020-08-13T14:56:00.000Z</time>
      </trkpt>
      <trkpt lat="42.41977720521390438079833984375" lon="0.9812564961612224578857421875">
        <ele>1101.199951171875</ele>
        <time>2020-08-13T14:56:02.000Z</time>
      </trkpt>
      <trkpt lat="42.4196899496018886566162109375" lon="0.98122925497591495513916015625">
        <ele>1101</ele>
        <time>2020-08-13T14:56:04.000Z</time>
      </trkpt>
      <trkpt lat="42.41955910809338092803955078125" lon="0.9812249802052974700927734375">
        <ele>1100.4000244140625</ele>
        <time>2020-08-13T14:56:07.000Z</time>
      </trkpt>
      <trkpt lat="42.41947822272777557373046875" lon="0.98122917115688323974609375">
        <ele>1100</ele>
        <time>2020-08-13T14:56:09.000Z</time>
      </trkpt>
      <trkpt lat="42.4193550087511539459228515625" lon="0.98121366463601589202880859375">
        <ele>1100</ele>
        <time>2020-08-13T14:56:13.000Z</time>
      </trkpt>
      <trkpt lat="42.4193496443331241607666015625" lon="0.98121299408376216888427734375">
        <ele>1099.800048828125</ele>
        <time>2020-08-13T14:56:15.000Z</time>
      </trkpt>
      <trkpt lat="42.41901478730142116546630859375" lon="0.981159768998622894287109375">
        <ele>1093.199951171875</ele>
        <time>2020-08-14T05:21:54.000Z</time>
      </trkpt>
      <trkpt lat="42.4190173856914043426513671875" lon="0.9811562485992908477783203125">
        <ele>1092.800048828125</ele>
        <time>2020-08-14T05:21:58.000Z</time>
      </trkpt>
      <trkpt lat="42.4189947545528411865234375" lon="0.9812041930854320526123046875">
        <ele>1092.4000244140625</ele>
        <time>2020-08-14T05:29:00.000Z</time>
      </trkpt>
      <trkpt lat="42.4189885519444942474365234375" lon="0.981205366551876068115234375">
        <ele>1092.5999755859375</ele>
        <time>2020-08-14T05:29:01.000Z</time>
      </trkpt>
      <trkpt lat="42.41895519196987152099609375" lon="0.98119908012449741363525390625">
        <ele>1092.5999755859375</ele>
        <time>2020-08-14T05:29:03.000Z</time>
      </trkpt>
      <trkpt lat="42.41883583366870880126953125" lon="0.98119053058326244354248046875">
        <ele>1092.5999755859375</ele>
        <time>2020-08-14T05:29:09.000Z</time>
      </trkpt>
      <trkpt lat="42.418639697134494781494140625" lon="0.9811585955321788787841796875">
        <ele>1092.5999755859375</ele>
        <time>2020-08-14T05:29:17.000Z</time>
      </trkpt>
      <trkpt lat="42.41843207739293575286865234375" lon="0.9811217151582241058349609375">
        <ele>1091.800048828125</ele>
        <time>2020-08-14T05:29:23.000Z</time>
      </trkpt>
      <trkpt lat="42.41839000023901462554931640625" lon="0.98111249506473541259765625">
        <ele>1091.800048828125</ele>
        <time>2020-08-14T05:29:24.000Z</time>
      </trkpt>
      <trkpt lat="42.41829578764736652374267578125" lon="0.98110185004770755767822265625">
        <ele>1091.4000244140625</ele>
        <time>2020-08-14T05:29:26.000Z</time>
      </trkpt>
      <trkpt lat="42.4182449094951152801513671875" lon="0.9810945577919483184814453125">
        <ele>1091.199951171875</ele>
        <time>2020-08-14T05:29:27.000Z</time>
      </trkpt>
      <trkpt lat="42.418191432952880859375" lon="0.9810890257358551025390625">
        <ele>1090.800048828125</ele>
        <time>2020-08-14T05:29:28.000Z</time>
      </trkpt>
      <trkpt lat="42.418082468211650848388671875" lon="0.98108542151749134063720703125">
        <ele>1090.4000244140625</ele>
        <time>2020-08-14T05:29:30.000Z</time>
      </trkpt>
      <trkpt lat="42.41792899556457996368408203125" lon="0.98108944483101367950439453125">
        <ele>1089.199951171875</ele>
        <time>2020-08-14T05:29:33.000Z</time>
      </trkpt>
      <trkpt lat="42.41783277131617069244384765625" lon="0.9810958988964557647705078125">
        <ele>1088.4000244140625</ele>
        <time>2020-08-14T05:29:35.000Z</time>
      </trkpt>
      <trkpt lat="42.4177850782871246337890625" lon="0.98109816201031208038330078125">
        <ele>1088</ele>
        <time>2020-08-14T05:29:36.000Z</time>
      </trkpt>
      <trkpt lat="42.41758860647678375244140625" lon="0.98109782673418521881103515625">
        <ele>1087.199951171875</ele>
        <time>2020-08-14T05:29:40.000Z</time>
      </trkpt>
      <trkpt lat="42.41744133643805980682373046875" lon="0.981096737086772918701171875">
        <ele>1086.199951171875</ele>
        <time>2020-08-14T05:29:43.000Z</time>
      </trkpt>
      <trkpt lat="42.41739255376160144805908203125" lon="0.98109514452517032623291015625">
        <ele>1085.800048828125</ele>
        <time>2020-08-14T05:29:44.000Z</time>
      </trkpt>
      <trkpt lat="42.41729088127613067626953125" lon="0.98109095357358455657958984375">
        <ele>1085.4000244140625</ele>
        <time>2020-08-14T05:29:46.000Z</time>
      </trkpt>
      <trkpt lat="42.41718761622905731201171875" lon="0.9810943901538848876953125">
        <ele>1084.800048828125</ele>
        <time>2020-08-14T05:29:48.000Z</time>
      </trkpt>
      <trkpt lat="42.41703129373490810394287109375" lon="0.9810992516577243804931640625">
        <ele>1083.4000244140625</ele>
        <time>2020-08-14T05:29:51.000Z</time>
      </trkpt>
      <trkpt lat="42.4169369973242282867431640625" lon="0.9810881875455379486083984375">
        <ele>1082.800048828125</ele>
        <time>2020-08-14T05:29:53.000Z</time>
      </trkpt>
      <trkpt lat="42.4168865382671356201171875" lon="0.98107670433819293975830078125">
        <ele>1082.4000244140625</ele>
        <time>2020-08-14T05:29:54.000Z</time>
      </trkpt>
      <trkpt lat="42.41683800704777240753173828125" lon="0.98106530494987964630126953125">
        <ele>1082.199951171875</ele>
        <time>2020-08-14T05:29:55.000Z</time>
      </trkpt>
      <trkpt lat="42.41667933762073516845703125" lon="0.98100512288510799407958984375">
        <ele>1081</ele>
        <time>2020-08-14T05:29:58.000Z</time>
      </trkpt>
      <trkpt lat="42.4165688641369342803955078125" lon="0.98095935769379138946533203125">
        <ele>1080</ele>
        <time>2020-08-14T05:30:00.000Z</time>
      </trkpt>
      <trkpt lat="42.41651262156665325164794921875" lon="0.98093940876424312591552734375">
        <ele>1079.800048828125</ele>
        <time>2020-08-14T05:30:01.000Z</time>
      </trkpt>
      <trkpt lat="42.41634028963744640350341796875" lon="0.98087185062468051910400390625">
        <ele>1078.800048828125</ele>
        <time>2020-08-14T05:30:04.000Z</time>
      </trkpt>
      <trkpt lat="42.4162808619439601898193359375" lon="0.980856008827686309814453125">
        <ele>1078.4000244140625</ele>
        <time>2020-08-14T05:30:05.000Z</time>
      </trkpt>
      <trkpt lat="42.41622269153594970703125" lon="0.98084100522100925445556640625">
        <ele>1078</ele>
        <time>2020-08-14T05:30:06.000Z</time>
      </trkpt>
      <trkpt lat="42.416110374033451080322265625" lon="0.9808122552931308746337890625">
        <ele>1077.4000244140625</ele>
        <time>2020-08-14T05:30:08.000Z</time>
      </trkpt>
      <trkpt lat="42.4160579033195972442626953125" lon="0.98079959861934185028076171875">
        <ele>1077</ele>
        <time>2020-08-14T05:30:09.000Z</time>
      </trkpt>
      <trkpt lat="42.415958158671855926513671875" lon="0.98077596165239810943603515625">
        <ele>1076.800048828125</ele>
        <time>2020-08-14T05:30:11.000Z</time>
      </trkpt>
      <trkpt lat="42.41585799492895603179931640625" lon="0.98075349815189838409423828125">
        <ele>1076.4000244140625</ele>
        <time>2020-08-14T05:30:13.000Z</time>
      </trkpt>
      <trkpt lat="42.41580803878605365753173828125" lon="0.9807411767542362213134765625">
        <ele>1076.199951171875</ele>
        <time>2020-08-14T05:30:14.000Z</time>
      </trkpt>
      <trkpt lat="42.4156502075493335723876953125" lon="0.9807103313505649566650390625">
        <ele>1075.5999755859375</ele>
        <time>2020-08-14T05:30:17.000Z</time>
      </trkpt>
      <trkpt lat="42.41559513844549655914306640625" lon="0.980701781809329986572265625">
        <ele>1075.199951171875</ele>
        <time>2020-08-14T05:30:18.000Z</time>
      </trkpt>
      <trkpt lat="42.415362037718296051025390625" lon="0.980670265853404998779296875">
        <ele>1074</ele>
        <time>2020-08-14T05:30:22.000Z</time>
      </trkpt>
      <trkpt lat="42.415240667760372161865234375" lon="0.9806570224463939666748046875">
        <ele>1073.199951171875</ele>
        <time>2020-08-14T05:30:24.000Z</time>
      </trkpt>
      <trkpt lat="42.41517704911530017852783203125" lon="0.9806449525058269500732421875">
        <ele>1072.800048828125</ele>
        <time>2020-08-14T05:30:25.000Z</time>
      </trkpt>
      <trkpt lat="42.414989881217479705810546875" lon="0.9806037135422229766845703125">
        <ele>1071.5999755859375</ele>
        <time>2020-08-14T05:30:28.000Z</time>
      </trkpt>
      <trkpt lat="42.41486926563084125518798828125" lon="0.9805443696677684783935546875">
        <ele>1070.5999755859375</ele>
        <time>2020-08-14T05:30:30.000Z</time>
      </trkpt>
      <trkpt lat="42.4148116819560527801513671875" lon="0.98050958476960659027099609375">
        <ele>1070.199951171875</ele>
        <time>2020-08-14T05:30:31.000Z</time>
      </trkpt>
      <trkpt lat="42.414753846824169158935546875" lon="0.98047287203371524810791015625">
        <ele>1069.5999755859375</ele>
        <time>2020-08-14T05:30:32.000Z</time>
      </trkpt>
      <trkpt lat="42.4146966822445392608642578125" lon="0.98043523728847503662109375">
        <ele>1069.199951171875</ele>
        <time>2020-08-14T05:30:33.000Z</time>
      </trkpt>
      <trkpt lat="42.41453482769429683685302734375" lon="0.98032853566110134124755859375">
        <ele>1068.5999755859375</ele>
        <time>2020-08-14T05:30:36.000Z</time>
      </trkpt>
      <trkpt lat="42.4144298024475574493408203125" lon="0.98025309853255748748779296875">
        <ele>1067.5999755859375</ele>
        <time>2020-08-14T05:30:38.000Z</time>
      </trkpt>
      <trkpt lat="42.41437691263854503631591796875" lon="0.98022694699466228485107421875">
        <ele>1067.199951171875</ele>
        <time>2020-08-14T05:30:39.000Z</time>
      </trkpt>
      <trkpt lat="42.41432578302919864654541015625" lon="0.98020817153155803680419921875">
        <ele>1067</ele>
        <time>2020-08-14T05:30:40.000Z</time>
      </trkpt>
      <trkpt lat="42.41416275501251220703125" lon="0.98015092313289642333984375">
        <ele>1066.199951171875</ele>
        <time>2020-08-14T05:30:43.000Z</time>
      </trkpt>
      <trkpt lat="42.41409678943455219268798828125" lon="0.98014212213456630706787109375">
        <ele>1066.199951171875</ele>
        <time>2020-08-14T05:30:44.000Z</time>
      </trkpt>
      <trkpt lat="42.41390283219516277313232421875" lon="0.980117060244083404541015625">
        <ele>1065.4000244140625</ele>
        <time>2020-08-14T05:30:47.000Z</time>
      </trkpt>
      <trkpt lat="42.413843236863613128662109375" lon="0.98011580295860767364501953125">
        <ele>1065</ele>
        <time>2020-08-14T05:30:48.000Z</time>
      </trkpt>
      <trkpt lat="42.41378498263657093048095703125" lon="0.9801111929118633270263671875">
        <ele>1064.800048828125</ele>
        <time>2020-08-14T05:30:49.000Z</time>
      </trkpt>
      <trkpt lat="42.4137240462005138397216796875" lon="0.98010339774191379547119140625">
        <ele>1064.4000244140625</ele>
        <time>2020-08-14T05:30:50.000Z</time>
      </trkpt>
      <trkpt lat="42.41366445086896419525146484375" lon="0.98008747212588787078857421875">
        <ele>1064.199951171875</ele>
        <time>2020-08-14T05:30:51.000Z</time>
      </trkpt>
      <trkpt lat="42.4135517142713069915771484375" lon="0.98005612380802631378173828125">
        <ele>1064</ele>
        <time>2020-08-14T05:30:53.000Z</time>
      </trkpt>
      <trkpt lat="42.41343981586396694183349609375" lon="0.98000952042639255523681640625">
        <ele>1063.4000244140625</ele>
        <time>2020-08-14T05:30:55.000Z</time>
      </trkpt>
      <trkpt lat="42.4133280850946903228759765625" lon="0.9799683652818202972412109375">
        <ele>1063</ele>
        <time>2020-08-14T05:30:57.000Z</time>
      </trkpt>
      <trkpt lat="42.41326932795345783233642578125" lon="0.97994933836162090301513671875">
        <ele>1062.800048828125</ele>
        <time>2020-08-14T05:30:58.000Z</time>
      </trkpt>
      <trkpt lat="42.41315466351807117462158203125" lon="0.9799174033105373382568359375">
        <ele>1062.4000244140625</ele>
        <time>2020-08-14T05:31:00.000Z</time>
      </trkpt>
      <trkpt lat="42.41295400075614452362060546875" lon="0.97988060675561428070068359375">
        <ele>1061.800048828125</ele>
        <time>2020-08-14T05:31:04.000Z</time>
      </trkpt>
      <trkpt lat="42.41291175596415996551513671875" lon="0.97987205721437931060791015625">
        <ele>1061.5999755859375</ele>
        <time>2020-08-14T05:31:05.000Z</time>
      </trkpt>
      <trkpt lat="42.4128412641584873199462890625" lon="0.97983484156429767608642578125">
        <ele>1060.800048828125</ele>
        <time>2020-08-14T05:31:08.000Z</time>
      </trkpt>
      <trkpt lat="42.4129297770559787750244140625" lon="0.97980667836964130401611328125">
        <ele>1060.199951171875</ele>
        <time>2020-08-14T05:31:14.000Z</time>
      </trkpt>
      <trkpt lat="42.4130900390446186065673828125" lon="0.97977985627949237823486328125">
        <ele>1059.5999755859375</ele>
        <time>2020-08-14T05:31:19.000Z</time>
      </trkpt>
      <trkpt lat="42.413183413445949554443359375" lon="0.97974121570587158203125">
        <ele>1059.199951171875</ele>
        <time>2020-08-14T05:31:21.000Z</time>
      </trkpt>
      <trkpt lat="42.41325256414711475372314453125" lon="0.9796478413045406341552734375">
        <ele>1058.5999755859375</ele>
        <time>2020-08-14T05:31:23.000Z</time>
      </trkpt>
      <trkpt lat="42.4132741056382656097412109375" lon="0.97937232814729213714599609375">
        <ele>1057.800048828125</ele>
        <time>2020-08-14T05:31:27.000Z</time>
      </trkpt>
      <trkpt lat="42.41327226161956787109375" lon="0.979304350912570953369140625">
        <ele>1057.5999755859375</ele>
        <time>2020-08-14T05:31:28.000Z</time>
      </trkpt>
      <trkpt lat="42.41326128132641315460205078125" lon="0.97900670953094959259033203125">
        <ele>1057.4000244140625</ele>
        <time>2020-08-14T05:31:33.000Z</time>
      </trkpt>
      <trkpt lat="42.413261197507381439208984375" lon="0.97891232930123805999755859375">
        <ele>1057.4000244140625</ele>
        <time>2020-08-14T05:31:37.000Z</time>
      </trkpt>
      <trkpt lat="42.41325524635612964630126953125" lon="0.9789030253887176513671875">
        <ele>1057.5999755859375</ele>
        <time>2020-08-14T05:31:45.000Z</time>
      </trkpt>
      <trkpt lat="42.413258850574493408203125" lon="0.97891048528254032135009765625">
        <ele>1057.5999755859375</ele>
        <time>2020-08-14T05:31:59.000Z</time>
      </trkpt>
      <trkpt lat="42.4132628738880157470703125" lon="0.9789164364337921142578125">
        <ele>1057.5999755859375</ele>
        <time>2020-08-14T05:32:10.000Z</time>
      </trkpt>
      <trkpt lat="42.41326211951673030853271484375" lon="0.9789159335196018218994140625">
        <ele>1057.5999755859375</ele>
        <time>2020-08-14T05:32:11.000Z</time>
      </trkpt>
      <trkpt lat="42.41325818002223968505859375" lon="0.97892037592828273773193359375">
        <ele>1057.4000244140625</ele>
        <time>2020-08-14T05:32:25.000Z</time>
      </trkpt>
      <trkpt lat="42.41325289942324161529541015625" lon="0.97893211059272289276123046875">
        <ele>1057.4000244140625</ele>
        <time>2020-08-14T05:32:35.000Z</time>
      </trkpt>
      <trkpt lat="42.413250468671321868896484375" lon="0.9789293445646762847900390625">
        <ele>1057.4000244140625</ele>
        <time>2020-08-14T05:32:44.000Z</time>
      </trkpt>
      <trkpt lat="42.413245104253292083740234375" lon="0.978945605456829071044921875">
        <ele>1057.199951171875</ele>
        <time>2020-08-14T05:32:57.000Z</time>
      </trkpt>
      <trkpt lat="42.4132456071674823760986328125" lon="0.978946276009082794189453125">
        <ele>1057.199951171875</ele>
        <time>2020-08-14T05:33:11.000Z</time>
      </trkpt>
      <trkpt lat="42.41324820555746555328369140625" lon="0.9789531491696834564208984375">
        <ele>1057</ele>
        <time>2020-08-14T05:33:23.000Z</time>
      </trkpt>
      <trkpt lat="42.41324451752007007598876953125" lon="0.9789578430354595184326171875">
        <ele>1057.4000244140625</ele>
        <time>2020-08-14T05:33:36.000Z</time>
      </trkpt>
      <trkpt lat="42.41324384696781635284423828125" lon="0.9789645485579967498779296875">
        <ele>1057</ele>
        <time>2020-08-14T05:33:50.000Z</time>
      </trkpt>
      <trkpt lat="42.41324334405362606048583984375" lon="0.97897737286984920501708984375">
        <ele>1057</ele>
        <time>2020-08-14T05:33:59.000Z</time>
      </trkpt>
      <trkpt lat="42.413243763148784637451171875" lon="0.978977791965007781982421875">
        <ele>1057.199951171875</ele>
        <time>2020-08-14T05:34:11.000Z</time>
      </trkpt>
      <trkpt lat="42.4132342077791690826416015625" lon="0.9789105691015720367431640625">
        <ele>1057.199951171875</ele>
        <time>2020-08-14T05:34:17.000Z</time>
      </trkpt>
      <trkpt lat="42.41321652196347713470458984375" lon="0.97876430489122867584228515625">
        <ele>1057.800048828125</ele>
        <time>2020-08-14T05:34:24.000Z</time>
      </trkpt>
      <trkpt lat="42.41319506429135799407958984375" lon="0.978671014308929443359375">
        <ele>1058.4000244140625</ele>
        <time>2020-08-14T05:34:29.000Z</time>
      </trkpt>
      <trkpt lat="42.41317410953342914581298828125" lon="0.97861359827220439910888671875">
        <ele>1058.4000244140625</ele>
        <time>2020-08-14T05:34:32.000Z</time>
      </trkpt>
      <trkpt lat="42.41312767378985881805419921875" lon="0.97850807011127471923828125">
        <ele>1059.4000244140625</ele>
        <time>2020-08-14T05:34:38.000Z</time>
      </trkpt>
      <trkpt lat="42.41304888390004634857177734375" lon="0.97839080728590488433837890625">
        <ele>1060.199951171875</ele>
        <time>2020-08-14T05:34:46.000Z</time>
      </trkpt>
      <trkpt lat="42.41298652254045009613037109375" lon="0.97832391969859600067138671875">
        <ele>1060.4000244140625</ele>
        <time>2020-08-14T05:34:52.000Z</time>
      </trkpt>
      <trkpt lat="42.41293363273143768310546875" lon="0.9782673418521881103515625">
        <ele>1061.5999755859375</ele>
        <time>2020-08-14T05:34:57.000Z</time>
      </trkpt>
      <trkpt lat="42.41292282007634639739990234375" lon="0.9782648272812366485595703125">
        <ele>1061.800048828125</ele>
        <time>2020-08-14T05:34:58.000Z</time>
      </trkpt>
      <trkpt lat="42.41289281286299228668212890625" lon="0.97823641262948513031005859375">
        <ele>1062.199951171875</ele>
        <time>2020-08-14T05:35:01.000Z</time>
      </trkpt>
      <trkpt lat="42.41285107098519802093505859375" lon="0.97819198854267597198486328125">
        <ele>1062.800048828125</ele>
        <time>2020-08-14T05:35:05.000Z</time>
      </trkpt>
      <trkpt lat="42.4128402583301067352294921875" lon="0.9781813435256481170654296875">
        <ele>1063</ele>
        <time>2020-08-14T05:35:06.000Z</time>
      </trkpt>
      <trkpt lat="42.4127720296382904052734375" lon="0.9781263582408428192138671875">
        <ele>1063.5999755859375</ele>
        <time>2020-08-14T05:35:12.000Z</time>
      </trkpt>
      <trkpt lat="42.4127613008022308349609375" lon="0.97811319865286350250244140625">
        <ele>1063.800048828125</ele>
        <time>2020-08-14T05:35:13.000Z</time>
      </trkpt>
      <trkpt lat="42.41273439489305019378662109375" lon="0.978087298572063446044921875">
        <ele>1064.199951171875</ele>
        <time>2020-08-14T05:35:15.000Z</time>
      </trkpt>
      <trkpt lat="42.41272383369505405426025390625" lon="0.9780767373740673065185546875">
        <ele>1064.4000244140625</ele>
        <time>2020-08-14T05:35:16.000Z</time>
      </trkpt>
      <trkpt lat="42.41271444596350193023681640625" lon="0.97806676290929317474365234375">
        <ele>1064.4000244140625</ele>
        <time>2020-08-14T05:35:17.000Z</time>
      </trkpt>
      <trkpt lat="42.41266616620123386383056640625" lon="0.97801295109093189239501953125">
        <ele>1064.800048828125</ele>
        <time>2020-08-14T05:35:21.000Z</time>
      </trkpt>
      <trkpt lat="42.41262543015182018280029296875" lon="0.977984033524990081787109375">
        <ele>1065</ele>
        <time>2020-08-14T05:35:24.000Z</time>
      </trkpt>
      <trkpt lat="42.412530295550823211669921875" lon="0.9778832830488681793212890625">
        <ele>1065.800048828125</ele>
        <time>2020-08-14T05:35:32.000Z</time>
      </trkpt>
      <trkpt lat="42.412515543401241302490234375" lon="0.97787464968860149383544921875">
        <ele>1066</ele>
        <time>2020-08-14T05:35:33.000Z</time>
      </trkpt>
      <trkpt lat="42.41242359392344951629638671875" lon="0.97780491225421428680419921875">
        <ele>1066.800048828125</ele>
        <time>2020-08-14T05:35:40.000Z</time>
      </trkpt>
      <trkpt lat="42.412400878965854644775390625" lon="0.97777993418276309967041015625">
        <ele>1067</ele>
        <time>2020-08-14T05:35:42.000Z</time>
      </trkpt>
      <trkpt lat="42.4123504199087619781494140625" lon="0.9777381084859371185302734375">
        <ele>1067.4000244140625</ele>
        <time>2020-08-14T05:35:46.000Z</time>
      </trkpt>
      <trkpt lat="42.41225914098322391510009765625" lon="0.9776509366929531097412109375">
        <ele>1068</ele>
        <time>2020-08-14T05:35:53.000Z</time>
      </trkpt>
      <trkpt lat="42.41224656812846660614013671875" lon="0.9776371903717517852783203125">
        <ele>1068.199951171875</ele>
        <time>2020-08-14T05:35:54.000Z</time>
      </trkpt>
      <trkpt lat="42.41217850707471370697021484375" lon="0.9775959514081478118896484375">
        <ele>1068.800048828125</ele>
        <time>2020-08-14T05:35:59.000Z</time>
      </trkpt>
      <trkpt lat="42.41212301887571811676025390625" lon="0.977534763514995574951171875">
        <ele>1069.4000244140625</ele>
        <time>2020-08-14T05:36:04.000Z</time>
      </trkpt>
      <trkpt lat="42.4121117033064365386962890625" lon="0.9775221906602382659912109375">
        <ele>1069.5999755859375</ele>
        <time>2020-08-14T05:36:05.000Z</time>
      </trkpt>
      <trkpt lat="42.41207423619925975799560546875" lon="0.9774519503116607666015625">
        <ele>1070.199951171875</ele>
        <time>2020-08-14T05:36:10.000Z</time>
      </trkpt>
      <trkpt lat="42.41206551901996135711669921875" lon="0.97744616679847240447998046875">
        <ele>1070.199951171875</ele>
        <time>2020-08-14T05:36:11.000Z</time>
      </trkpt>
      <trkpt lat="42.41205361671745777130126953125" lon="0.97742437385022640228271484375">
        <ele>1070.5999755859375</ele>
        <time>2020-08-14T05:36:13.000Z</time>
      </trkpt>
      <trkpt lat="42.41203970275819301605224609375" lon="0.977394282817840576171875">
        <ele>1070.5999755859375</ele>
        <time>2020-08-14T05:36:15.000Z</time>
      </trkpt>
      <trkpt lat="42.41199620068073272705078125" lon="0.97733167000114917755126953125">
        <ele>1071.199951171875</ele>
        <time>2020-08-14T05:36:20.000Z</time>
      </trkpt>
      <trkpt lat="42.41197281517088413238525390625" lon="0.97730786539614200592041015625">
        <ele>1071.4000244140625</ele>
        <time>2020-08-14T05:36:22.000Z</time>
      </trkpt>
      <trkpt lat="42.41191732697188854217529296875" lon="0.9772561490535736083984375">
        <ele>1071.800048828125</ele>
        <time>2020-08-14T05:36:26.000Z</time>
      </trkpt>
      <trkpt lat="42.411861084401607513427734375" lon="0.9772211126983165740966796875">
        <ele>1072.5999755859375</ele>
        <time>2020-08-14T05:36:30.000Z</time>
      </trkpt>
      <trkpt lat="42.41183619014918804168701171875" lon="0.9772090427577495574951171875">
        <ele>1072.800048828125</ele>
        <time>2020-08-14T05:36:32.000Z</time>
      </trkpt>
      <trkpt lat="42.4117720685899257659912109375" lon="0.9771963022649288177490234375">
        <ele>1073.5999755859375</ele>
        <time>2020-08-14T05:36:37.000Z</time>
      </trkpt>
      <trkpt lat="42.41174918599426746368408203125" lon="0.977191440761089324951171875">
        <ele>1074</ele>
        <time>2020-08-14T05:36:39.000Z</time>
      </trkpt>
      <trkpt lat="42.411651872098445892333984375" lon="0.97714022733271121978759765625">
        <ele>1074.4000244140625</ele>
        <time>2020-08-14T05:36:46.000Z</time>
      </trkpt>
      <trkpt lat="42.41163988597691059112548828125" lon="0.97713436000049114227294921875">
        <ele>1074.4000244140625</ele>
        <time>2020-08-14T05:36:47.000Z</time>
      </trkpt>
      <trkpt lat="42.41157366894185543060302734375" lon="0.9770858287811279296875">
        <ele>1075</ele>
        <time>2020-08-14T05:36:52.000Z</time>
      </trkpt>
      <trkpt lat="42.41152605973184108734130859375" lon="0.97701801918447017669677734375">
        <ele>1075.5999755859375</ele>
        <time>2020-08-14T05:36:57.000Z</time>
      </trkpt>
      <trkpt lat="42.411517091095447540283203125" lon="0.97700175829231739044189453125">
        <ele>1075.5999755859375</ele>
        <time>2020-08-14T05:36:58.000Z</time>
      </trkpt>
      <trkpt lat="42.41146805696189403533935546875" lon="0.97689514048397541046142578125">
        <ele>1076.4000244140625</ele>
        <time>2020-08-14T05:37:04.000Z</time>
      </trkpt>
      <trkpt lat="42.411461435258388519287109375" lon="0.97687594592571258544921875">
        <ele>1076.5999755859375</ele>
        <time>2020-08-14T05:37:05.000Z</time>
      </trkpt>
      <trkpt lat="42.41142757236957550048828125" lon="0.97678332589566707611083984375">
        <ele>1077.4000244140625</ele>
        <time>2020-08-14T05:37:10.000Z</time>
      </trkpt>
      <trkpt lat="42.41141307167708873748779296875" lon="0.97674787044525146484375">
        <ele>1077.800048828125</ele>
        <time>2020-08-14T05:37:12.000Z</time>
      </trkpt>
      <trkpt lat="42.41135087795555591583251953125" lon="0.9766377322375774383544921875">
        <ele>1078.5999755859375</ele>
        <time>2020-08-14T05:37:19.000Z</time>
      </trkpt>
      <trkpt lat="42.41134031675755977630615234375" lon="0.9766246564686298370361328125">
        <ele>1078.800048828125</ele>
        <time>2020-08-14T05:37:20.000Z</time>
      </trkpt>
      <trkpt lat="42.41127242334187030792236328125" lon="0.976547040045261383056640625">
        <ele>1079.4000244140625</ele>
        <time>2020-08-14T05:37:26.000Z</time>
      </trkpt>
      <trkpt lat="42.41124912165105342864990234375" lon="0.9765234030783176422119140625">
        <ele>1079.5999755859375</ele>
        <time>2020-08-14T05:37:28.000Z</time>
      </trkpt>
      <trkpt lat="42.41123805753886699676513671875" lon="0.976513512432575225830078125">
        <ele>1079.800048828125</ele>
        <time>2020-08-14T05:37:29.000Z</time>
      </trkpt>
      <trkpt lat="42.41117737255990505218505859375" lon="0.97643748857080936431884765625">
        <ele>1080.5999755859375</ele>
        <time>2020-08-14T05:37:35.000Z</time>
      </trkpt>
      <trkpt lat="42.4111434258520603179931640625" lon="0.9764006920158863067626953125">
        <ele>1080.5999755859375</ele>
        <time>2020-08-14T05:37:38.000Z</time>
      </trkpt>
      <trkpt lat="42.41110411472618579864501953125" lon="0.976352579891681671142578125">
        <ele>1081.199951171875</ele>
        <time>2020-08-14T05:37:42.000Z</time>
      </trkpt>
      <trkpt lat="42.411074526607990264892578125" lon="0.9763235785067081451416015625">
        <ele>1081.5999755859375</ele>
        <time>2020-08-14T05:37:45.000Z</time>
      </trkpt>
      <trkpt lat="42.41104091517627239227294921875" lon="0.97629717551171779632568359375">
        <ele>1082.4000244140625</ele>
        <time>2020-08-14T05:37:48.000Z</time>
      </trkpt>
      <trkpt lat="42.41094167344272136688232421875" lon="0.976239256560802459716796875">
        <ele>1082.800048828125</ele>
        <time>2020-08-14T05:37:55.000Z</time>
      </trkpt>
      <trkpt lat="42.41091133095324039459228515625" lon="0.976229198276996612548828125">
        <ele>1083</ele>
        <time>2020-08-14T05:37:57.000Z</time>
      </trkpt>
      <trkpt lat="42.4108748696744441986083984375" lon="0.976199693977832794189453125">
        <ele>1083.5999755859375</ele>
        <time>2020-08-14T05:38:00.000Z</time>
      </trkpt>
      <trkpt lat="42.4108596146106719970703125" lon="0.97619273699820041656494140625">
        <ele>1083.800048828125</ele>
        <time>2020-08-14T05:38:01.000Z</time>
      </trkpt>
      <trkpt lat="42.4107652343809604644775390625" lon="0.97615149803459644317626953125">
        <ele>1084.4000244140625</ele>
        <time>2020-08-14T05:38:08.000Z</time>
      </trkpt>
      <trkpt lat="42.41072273813188076019287109375" lon="0.97615149803459644317626953125">
        <ele>1084.5999755859375</ele>
        <time>2020-08-14T05:38:11.000Z</time>
      </trkpt>
      <trkpt lat="42.41065375506877899169921875" lon="0.9761083312332630157470703125">
        <ele>1085</ele>
        <time>2020-08-14T05:38:16.000Z</time>
      </trkpt>
      <trkpt lat="42.41058276034891605377197265625" lon="0.9760774858295917510986328125">
        <ele>1085.800048828125</ele>
        <time>2020-08-14T05:38:21.000Z</time>
      </trkpt>
      <trkpt lat="42.41052492521703243255615234375" lon="0.97606382332742214202880859375">
        <ele>1086</ele>
        <time>2020-08-14T05:38:25.000Z</time>
      </trkpt>
      <trkpt lat="42.4104815907776355743408203125" lon="0.97604102455079555511474609375">
        <ele>1086.5999755859375</ele>
        <time>2020-08-14T05:38:28.000Z</time>
      </trkpt>
      <trkpt lat="42.41043088026344776153564453125" lon="0.97600850276648998260498046875">
        <ele>1086.800048828125</ele>
        <time>2020-08-14T05:38:32.000Z</time>
      </trkpt>
      <trkpt lat="42.4103364162147045135498046875" lon="0.97596826963126659393310546875">
        <ele>1087.5999755859375</ele>
        <time>2020-08-14T05:38:39.000Z</time>
      </trkpt>
      <trkpt lat="42.41032241843640804290771484375" lon="0.9759644977748394012451171875">
        <ele>1087.5999755859375</ele>
        <time>2020-08-14T05:38:40.000Z</time>
      </trkpt>
      <trkpt lat="42.410242371261119842529296875" lon="0.97592250443994998931884765625">
        <ele>1088.5999755859375</ele>
        <time>2020-08-14T05:38:46.000Z</time>
      </trkpt>
      <trkpt lat="42.41022736765444278717041015625" lon="0.97591529600322246551513671875">
        <ele>1088.800048828125</ele>
        <time>2020-08-14T05:38:47.000Z</time>
      </trkpt>
      <trkpt lat="42.4101365916430950164794921875" lon="0.9758434630930423736572265625">
        <ele>1089.4000244140625</ele>
        <time>2020-08-14T05:38:54.000Z</time>
      </trkpt>
      <trkpt lat="42.41003894247114658355712890625" lon="0.97575386054813861846923828125">
        <ele>1090.4000244140625</ele>
        <time>2020-08-14T05:39:02.000Z</time>
      </trkpt>
      <trkpt lat="42.4100262857973575592041015625" lon="0.97574464045464992523193359375">
        <ele>1090.5999755859375</ele>
        <time>2020-08-14T05:39:03.000Z</time>
      </trkpt>
      <trkpt lat="42.409961409866809844970703125" lon="0.9756828658282756805419921875">
        <ele>1091.4000244140625</ele>
        <time>2020-08-14T05:39:09.000Z</time>
      </trkpt>
      <trkpt lat="42.40993626415729522705078125" lon="0.97566870041191577911376953125">
        <ele>1091.4000244140625</ele>
        <time>2020-08-14T05:39:11.000Z</time>
      </trkpt>
      <trkpt lat="42.40985437296330928802490234375" lon="0.97561388276517391204833984375">
        <ele>1092.4000244140625</ele>
        <time>2020-08-14T05:39:18.000Z</time>
      </trkpt>
      <trkpt lat="42.40984230302274227142333984375" lon="0.97560583613812923431396484375">
        <ele>1092.800048828125</ele>
        <time>2020-08-14T05:39:19.000Z</time>
      </trkpt>
      <trkpt lat="42.409761250019073486328125" lon="0.97556032240390777587890625">
        <ele>1093.5999755859375</ele>
        <time>2020-08-14T05:39:26.000Z</time>
      </trkpt>
      <trkpt lat="42.40974842570722103118896484375" lon="0.97555370070040225982666015625">
        <ele>1093.800048828125</ele>
        <time>2020-08-14T05:39:27.000Z</time>
      </trkpt>
      <trkpt lat="42.4096843041479587554931640625" lon="0.97552184946835041046142578125">
        <ele>1094.5999755859375</ele>
        <time>2020-08-14T05:39:32.000Z</time>
      </trkpt>
      <trkpt lat="42.40964591503143310546875" lon="0.97550357691943645477294921875">
        <ele>1094.800048828125</ele>
        <time>2020-08-14T05:39:35.000Z</time>
      </trkpt>
      <trkpt lat="42.40957014262676239013671875" lon="0.975468121469020843505859375">
        <ele>1095.5999755859375</ele>
        <time>2020-08-14T05:39:41.000Z</time>
      </trkpt>
      <trkpt lat="42.4094970524311065673828125" lon="0.9754203446209430694580078125">
        <ele>1096.199951171875</ele>
        <time>2020-08-14T05:39:47.000Z</time>
      </trkpt>
      <trkpt lat="42.40945472382009029388427734375" lon="0.97539913840591907501220703125">
        <ele>1096.4000244140625</ele>
        <time>2020-08-14T05:39:50.000Z</time>
      </trkpt>
      <trkpt lat="42.409411557018756866455078125" lon="0.97537499852478504180908203125">
        <ele>1096.5999755859375</ele>
        <time>2020-08-14T05:39:53.000Z</time>
      </trkpt>
      <trkpt lat="42.4093822203576564788818359375" lon="0.97536544315516948699951171875">
        <ele>1097</ele>
        <time>2020-08-14T05:39:55.000Z</time>
      </trkpt>
      <trkpt lat="42.40932446904480457305908203125" lon="0.975339710712432861328125">
        <ele>1097.4000244140625</ele>
        <time>2020-08-14T05:39:59.000Z</time>
      </trkpt>
      <trkpt lat="42.40931206382811069488525390625" lon="0.97533107735216617584228515625">
        <ele>1097.4000244140625</ele>
        <time>2020-08-14T05:40:00.000Z</time>
      </trkpt>
      <trkpt lat="42.409224472939968109130859375" lon="0.975257568061351776123046875">
        <ele>1098.199951171875</ele>
        <time>2020-08-14T05:40:07.000Z</time>
      </trkpt>
      <trkpt lat="42.40918499417603015899658203125" lon="0.9752404689788818359375">
        <ele>1098.5999755859375</ele>
        <time>2020-08-14T05:40:10.000Z</time>
      </trkpt>
      <trkpt lat="42.4091186933219432830810546875" lon="0.9752000682055950164794921875">
        <ele>1099</ele>
        <time>2020-08-14T05:40:15.000Z</time>
      </trkpt>
      <trkpt lat="42.4090402387082576751708984375" lon="0.97514164634048938751220703125">
        <ele>1099.4000244140625</ele>
        <time>2020-08-14T05:40:21.000Z</time>
      </trkpt>
      <trkpt lat="42.4090164341032505035400390625" lon="0.975118763744831085205078125">
        <ele>1099.5999755859375</ele>
        <time>2020-08-14T05:40:23.000Z</time>
      </trkpt>
      <trkpt lat="42.4089557491242885589599609375" lon="0.97507945261895656585693359375">
        <ele>1100.4000244140625</ele>
        <time>2020-08-14T05:40:28.000Z</time>
      </trkpt>
      <trkpt lat="42.40893177688121795654296875" lon="0.975063107907772064208984375">
        <ele>1100.800048828125</ele>
        <time>2020-08-14T05:40:30.000Z</time>
      </trkpt>
      <trkpt lat="42.408854998648166656494140625" lon="0.97502228803932666778564453125">
        <ele>1101.4000244140625</ele>
        <time>2020-08-14T05:40:36.000Z</time>
      </trkpt>
      <trkpt lat="42.408817112445831298828125" lon="0.97498901188373565673828125">
        <ele>1101.5999755859375</ele>
        <time>2020-08-14T05:40:39.000Z</time>
      </trkpt>
      <trkpt lat="42.408748380839824676513671875" lon="0.9749419055879116058349609375">
        <ele>1102.5999755859375</ele>
        <time>2020-08-14T05:40:44.000Z</time>
      </trkpt>
      <trkpt lat="42.408707477152347564697265625" lon="0.9749150834977626800537109375">
        <ele>1102.800048828125</ele>
        <time>2020-08-14T05:40:47.000Z</time>
      </trkpt>
      <trkpt lat="42.40861133672297000885009765625" lon="0.974859260022640228271484375">
        <ele>1103.199951171875</ele>
        <time>2020-08-14T05:40:54.000Z</time>
      </trkpt>
      <trkpt lat="42.4085614643990993499755859375" lon="0.9748019278049468994140625">
        <ele>1103.5999755859375</ele>
        <time>2020-08-14T05:40:58.000Z</time>
      </trkpt>
      <trkpt lat="42.40854377858340740203857421875" lon="0.97476638853549957275390625">
        <ele>1103.800048828125</ele>
        <time>2020-08-14T05:41:00.000Z</time>
      </trkpt>
      <trkpt lat="42.40848426707088947296142578125" lon="0.974670834839344024658203125">
        <ele>1104.4000244140625</ele>
        <time>2020-08-14T05:41:06.000Z</time>
      </trkpt>
      <trkpt lat="42.4084649048745632171630859375" lon="0.9746378101408481597900390625">
        <ele>1104.5999755859375</ele>
        <time>2020-08-14T05:41:08.000Z</time>
      </trkpt>
      <trkpt lat="42.40842324681580066680908203125" lon="0.97458123229444026947021484375">
        <ele>1105</ele>
        <time>2020-08-14T05:41:12.000Z</time>
      </trkpt>
      <trkpt lat="42.4083934910595417022705078125" lon="0.9745378978550434112548828125">
        <ele>1105.5999755859375</ele>
        <time>2020-08-14T05:41:15.000Z</time>
      </trkpt>
      <trkpt lat="42.4083810858428478240966796875" lon="0.9745251573622226715087890625">
        <ele>1105.800048828125</ele>
        <time>2020-08-14T05:41:16.000Z</time>
      </trkpt>
      <trkpt lat="42.4083609692752361297607421875" lon="0.97449774853885173797607421875">
        <ele>1106</ele>
        <time>2020-08-14T05:41:18.000Z</time>
      </trkpt>
      <trkpt lat="42.40832827985286712646484375" lon="0.9744465351104736328125">
        <ele>1106.199951171875</ele>
        <time>2020-08-14T05:41:22.000Z</time>
      </trkpt>
      <trkpt lat="42.40832182578742504119873046875" lon="0.9744282625615596771240234375">
        <ele>1106.4000244140625</ele>
        <time>2020-08-14T05:41:23.000Z</time>
      </trkpt>
      <trkpt lat="42.40830011665821075439453125" lon="0.97437906078994274139404296875">
        <ele>1106.800048828125</ele>
        <time>2020-08-14T05:41:26.000Z</time>
      </trkpt>
      <trkpt lat="42.4082778207957744598388671875" lon="0.97432189621031284332275390625">
        <ele>1107</ele>
        <time>2020-08-14T05:41:29.000Z</time>
      </trkpt>
      <trkpt lat="42.4082095921039581298828125" lon="0.9742170386016368865966796875">
        <ele>1107.199951171875</ele>
        <time>2020-08-14T05:41:35.000Z</time>
      </trkpt>
      <trkpt lat="42.4081343226134777069091796875" lon="0.97408167086541652679443359375">
        <ele>1107.199951171875</ele>
        <time>2020-08-14T05:41:41.000Z</time>
      </trkpt>
      <trkpt lat="42.4080109409987926483154296875" lon="0.97387447021901607513427734375">
        <ele>1107</ele>
        <time>2020-08-14T05:41:48.000Z</time>
      </trkpt>
      <trkpt lat="42.40790876559913158416748046875" lon="0.97375913523137569427490234375">
        <ele>1106.800048828125</ele>
        <time>2020-08-14T05:41:53.000Z</time>
      </trkpt>
      <trkpt lat="42.40779259242117404937744140625" lon="0.9736631624400615692138671875">
        <ele>1106.800048828125</ele>
        <time>2020-08-14T05:41:59.000Z</time>
      </trkpt>
      <trkpt lat="42.40759679116308689117431640625" lon="0.97349703311920166015625">
        <ele>1106.5999755859375</ele>
        <time>2020-08-14T05:42:09.000Z</time>
      </trkpt>
      <trkpt lat="42.40743367932736873626708984375" lon="0.97338681109249591827392578125">
        <ele>1107</ele>
        <time>2020-08-14T05:42:16.000Z</time>
      </trkpt>
      <trkpt lat="42.4072716571390628814697265625" lon="0.97326829098165035247802734375">
        <ele>1107</ele>
        <time>2020-08-14T05:42:23.000Z</time>
      </trkpt>
      <trkpt lat="42.4071010015904903411865234375" lon="0.973141975700855255126953125">
        <ele>1107.199951171875</ele>
        <time>2020-08-14T05:42:31.000Z</time>
      </trkpt>
      <trkpt lat="42.40694920532405376434326171875" lon="0.97300551831722259521484375">
        <ele>1107</ele>
        <time>2020-08-14T05:42:38.000Z</time>
      </trkpt>
      <trkpt lat="42.40679246373474597930908203125" lon="0.9728574939072132110595703125">
        <ele>1107.199951171875</ele>
        <time>2020-08-14T05:42:46.000Z</time>
      </trkpt>
      <trkpt lat="42.4066597782075405120849609375" lon="0.97271181643009185791015625">
        <ele>1108</ele>
        <time>2020-08-14T05:42:54.000Z</time>
      </trkpt>
      <trkpt lat="42.40659733302891254425048828125" lon="0.97253973595798015594482421875">
        <ele>1109</ele>
        <time>2020-08-14T05:43:01.000Z</time>
      </trkpt>
      <trkpt lat="42.40658995695412158966064453125" lon="0.9725140035152435302734375">
        <ele>1109</ele>
        <time>2020-08-14T05:43:02.000Z</time>
      </trkpt>
      <trkpt lat="42.40654050372540950775146484375" lon="0.9723361395299434661865234375">
        <ele>1110.199951171875</ele>
        <time>2020-08-14T05:43:09.000Z</time>
      </trkpt>
      <trkpt lat="42.40653681568801403045654296875" lon="0.9722835011780261993408203125">
        <ele>1110.4000244140625</ele>
        <time>2020-08-14T05:43:11.000Z</time>
      </trkpt>
      <trkpt lat="42.4065273441374301910400390625" lon="0.97212365828454494476318359375">
        <ele>1111.4000244140625</ele>
        <time>2020-08-14T05:43:17.000Z</time>
      </trkpt>
      <trkpt lat="42.406526841223239898681640625" lon="0.97207051701843738555908203125">
        <ele>1111.800048828125</ele>
        <time>2020-08-14T05:43:19.000Z</time>
      </trkpt>
      <trkpt lat="42.40652876906096935272216796875" lon="0.9720457904040813446044921875">
        <ele>1112</ele>
        <time>2020-08-14T05:43:20.000Z</time>
      </trkpt>
      <trkpt lat="42.4065380729734897613525390625" lon="0.9719453752040863037109375">
        <ele>1112.5999755859375</ele>
        <time>2020-08-14T05:43:24.000Z</time>
      </trkpt>
      <trkpt lat="42.40656883455812931060791015625" lon="0.97180330194532871246337890625">
        <ele>1113</ele>
        <time>2020-08-14T05:43:30.000Z</time>
      </trkpt>
      <trkpt lat="42.40658811293542385101318359375" lon="0.9717095084488391876220703125">
        <ele>1113.5999755859375</ele>
        <time>2020-08-14T05:43:34.000Z</time>
      </trkpt>
      <trkpt lat="42.40661443211138248443603515625" lon="0.97161353565752506256103515625">
        <ele>1114.5999755859375</ele>
        <time>2020-08-14T05:43:38.000Z</time>
      </trkpt>
      <trkpt lat="42.40663337521255016326904296875" lon="0.9715430438518524169921875">
        <ele>1114.800048828125</ele>
        <time>2020-08-14T05:43:41.000Z</time>
      </trkpt>
      <trkpt lat="42.40668584592640399932861328125" lon="0.9713832847774028778076171875">
        <ele>1116</ele>
        <time>2020-08-14T05:43:48.000Z</time>
      </trkpt>
      <trkpt lat="42.40669406019151210784912109375" lon="0.971360318362712860107421875">
        <ele>1116.199951171875</ele>
        <time>2020-08-14T05:43:49.000Z</time>
      </trkpt>
      <trkpt lat="42.4067281745374202728271484375" lon="0.971215479075908660888671875">
        <ele>1117</ele>
        <time>2020-08-14T05:43:56.000Z</time>
      </trkpt>
      <trkpt lat="42.4067603610455989837646484375" lon="0.9711090289056301116943359375">
        <ele>1117.5999755859375</ele>
        <time>2020-08-14T05:44:01.000Z</time>
      </trkpt>
      <trkpt lat="42.40678458474576473236083984375" lon="0.97101892344653606414794921875">
        <ele>1118.199951171875</ele>
        <time>2020-08-14T05:44:05.000Z</time>
      </trkpt>
      <trkpt lat="42.4068175256252288818359375" lon="0.97089218907058238983154296875">
        <ele>1118.5999755859375</ele>
        <time>2020-08-14T05:44:10.000Z</time>
      </trkpt>
      <trkpt lat="42.40684007294476032257080078125" lon="0.97079336643218994140625">
        <ele>1119.199951171875</ele>
        <time>2020-08-14T05:44:14.000Z</time>
      </trkpt>
      <trkpt lat="42.40689019672572612762451171875" lon="0.9706265665590763092041015625">
        <ele>1120.199951171875</ele>
        <time>2020-08-14T05:44:21.000Z</time>
      </trkpt>
      <trkpt lat="42.4069025181233882904052734375" lon="0.97057619132101535797119140625">
        <ele>1120.4000244140625</ele>
        <time>2020-08-14T05:44:23.000Z</time>
      </trkpt>
      <trkpt lat="42.40692615509033203125" lon="0.97044493071734905242919921875">
        <ele>1121</ele>
        <time>2020-08-14T05:44:28.000Z</time>
      </trkpt>
      <trkpt lat="42.40695658139884471893310546875" lon="0.97035105340182781219482421875">
        <ele>1121.5999755859375</ele>
        <time>2020-08-14T05:44:32.000Z</time>
      </trkpt>
      <trkpt lat="42.4069977365434169769287109375" lon="0.97020260989665985107421875">
        <ele>1122.199951171875</ele>
        <time>2020-08-14T05:44:38.000Z</time>
      </trkpt>
      <trkpt lat="42.40701743401587009429931640625" lon="0.97012256272137165069580078125">
        <ele>1122.5999755859375</ele>
        <time>2020-08-14T05:44:41.000Z</time>
      </trkpt>
      <trkpt lat="42.40706319920718669891357421875" lon="0.9699895419180393218994140625">
        <ele>1122.800048828125</ele>
        <time>2020-08-14T05:44:46.000Z</time>
      </trkpt>
      <trkpt lat="42.4071474373340606689453125" lon="0.96977538429200649261474609375">
        <ele>1123.4000244140625</ele>
        <time>2020-08-14T05:44:54.000Z</time>
      </trkpt>
      <trkpt lat="42.4072300828993320465087890625" lon="0.9695903956890106201171875">
        <ele>1123.800048828125</ele>
        <time>2020-08-14T05:45:01.000Z</time>
      </trkpt>
      <trkpt lat="42.407236285507678985595703125" lon="0.96956231631338596343994140625">
        <ele>1124</ele>
        <time>2020-08-14T05:45:02.000Z</time>
      </trkpt>
      <trkpt lat="42.4072763510048389434814453125" lon="0.96941462717950344085693359375">
        <ele>1124.4000244140625</ele>
        <time>2020-08-14T05:45:08.000Z</time>
      </trkpt>
      <trkpt lat="42.40728087723255157470703125" lon="0.96938612870872020721435546875">
        <ele>1124.4000244140625</ele>
        <time>2020-08-14T05:45:09.000Z</time>
      </trkpt>
      <trkpt lat="42.40729956887662410736083984375" lon="0.9691516868770122528076171875">
        <ele>1124.5999755859375</ele>
        <time>2020-08-14T05:45:17.000Z</time>
      </trkpt>
      <trkpt lat="42.40729856304824352264404296875" lon="0.9690464101731777191162109375">
        <ele>1125</ele>
        <time>2020-08-14T05:45:21.000Z</time>
      </trkpt>
      <trkpt lat="42.4072842299938201904296875" lon="0.9688876569271087646484375">
        <ele>1125.5999755859375</ele>
        <time>2020-08-14T05:45:26.000Z</time>
      </trkpt>
      <trkpt lat="42.40729428827762603759765625" lon="0.968780703842639923095703125">
        <ele>1126.199951171875</ele>
        <time>2020-08-14T05:45:30.000Z</time>
      </trkpt>
      <trkpt lat="42.4072981439530849456787109375" lon="0.9687589108943939208984375">
        <ele>1126.199951171875</ele>
        <time>2020-08-14T05:45:31.000Z</time>
      </trkpt>
      <trkpt lat="42.407321445643901824951171875" lon="0.96862102858722209930419921875">
        <ele>1126.4000244140625</ele>
        <time>2020-08-14T05:45:36.000Z</time>
      </trkpt>
      <trkpt lat="42.4073658697307109832763671875" lon="0.96844039857387542724609375">
        <ele>1127.4000244140625</ele>
        <time>2020-08-14T05:45:42.000Z</time>
      </trkpt>
      <trkpt lat="42.40737500600516796112060546875" lon="0.96841248683631420135498046875">
        <ele>1127.4000244140625</ele>
        <time>2020-08-14T05:45:43.000Z</time>
      </trkpt>
      <trkpt lat="42.40746687166392803192138671875" lon="0.96821249462664127349853515625">
        <ele>1127.800048828125</ele>
        <time>2020-08-14T05:45:51.000Z</time>
      </trkpt>
      <trkpt lat="42.407525293529033660888671875" lon="0.96811157651245594024658203125">
        <ele>1128.4000244140625</ele>
        <time>2020-08-14T05:45:56.000Z</time>
      </trkpt>
      <trkpt lat="42.407538034021854400634765625" lon="0.96808961592614650726318359375">
        <ele>1128.5999755859375</ele>
        <time>2020-08-14T05:45:57.000Z</time>
      </trkpt>
      <trkpt lat="42.4076371081173419952392578125" lon="0.9679108299314975738525390625">
        <ele>1128.800048828125</ele>
        <time>2020-08-14T05:46:04.000Z</time>
      </trkpt>
      <trkpt lat="42.4077259562909603118896484375" lon="0.9677703492343425750732421875">
        <ele>1129.5999755859375</ele>
        <time>2020-08-14T05:46:10.000Z</time>
      </trkpt>
      <trkpt lat="42.40775101818144321441650390625" lon="0.9677240811288356781005859375">
        <ele>1129.5999755859375</ele>
        <time>2020-08-14T05:46:12.000Z</time>
      </trkpt>
      <trkpt lat="42.407836429774761199951171875" lon="0.96758209168910980224609375">
        <ele>1130</ele>
        <time>2020-08-14T05:46:18.000Z</time>
      </trkpt>
      <trkpt lat="42.40790189243853092193603515625" lon="0.96745862625539302825927734375">
        <ele>1130.5999755859375</ele>
        <time>2020-08-14T05:46:23.000Z</time>
      </trkpt>
      <trkpt lat="42.4079284630715847015380859375" lon="0.96740716136991977691650390625">
        <ele>1131</ele>
        <time>2020-08-14T05:46:25.000Z</time>
      </trkpt>
      <trkpt lat="42.40796743892133235931396484375" lon="0.96730758436024188995361328125">
        <ele>1131</ele>
        <time>2020-08-14T05:46:29.000Z</time>
      </trkpt>
      <trkpt lat="42.4080049060285091400146484375" lon="0.9672681055963039398193359375">
        <ele>1131</ele>
        <time>2020-08-14T05:46:31.000Z</time>
      </trkpt>
      <trkpt lat="42.408050000667572021484375" lon="0.96720448695123195648193359375">
        <ele>1131</ele>
        <time>2020-08-14T05:46:34.000Z</time>
      </trkpt>
      <trkpt lat="42.40809484384953975677490234375" lon="0.96711580641567707061767578125">
        <ele>1131.4000244140625</ele>
        <time>2020-08-14T05:46:38.000Z</time>
      </trkpt>
      <trkpt lat="42.4081339873373508453369140625" lon="0.96704774536192417144775390625">
        <ele>1131.4000244140625</ele>
        <time>2020-08-14T05:46:41.000Z</time>
      </trkpt>
      <trkpt lat="42.40819861181080341339111328125" lon="0.96696157939732074737548828125">
        <ele>1131.5999755859375</ele>
        <time>2020-08-14T05:46:45.000Z</time>
      </trkpt>
      <trkpt lat="42.4082945846021175384521484375" lon="0.96682713367044925689697265625">
        <ele>1132.199951171875</ele>
        <time>2020-08-14T05:46:51.000Z</time>
      </trkpt>
      <trkpt lat="42.40837697871029376983642578125" lon="0.9667293168604373931884765625">
        <ele>1132.199951171875</ele>
        <time>2020-08-14T05:46:56.000Z</time>
      </trkpt>
      <trkpt lat="42.40841947495937347412109375" lon="0.96669419668614864349365234375">
        <ele>1132.5999755859375</ele>
        <time>2020-08-14T05:46:58.000Z</time>
      </trkpt>
      <trkpt lat="42.408543527126312255859375" lon="0.9665851481258869171142578125">
        <ele>1132.800048828125</ele>
        <time>2020-08-14T05:47:03.000Z</time>
      </trkpt>
      <trkpt lat="42.4086655676364898681640625" lon="0.9664855711162090301513671875">
        <ele>1132.800048828125</ele>
        <time>2020-08-14T05:47:08.000Z</time>
      </trkpt>
      <trkpt lat="42.4088699184358119964599609375" lon="0.9663690626621246337890625">
        <ele>1132.800048828125</ele>
        <time>2020-08-14T05:47:16.000Z</time>
      </trkpt>
      <trkpt lat="42.408999502658843994140625" lon="0.96626806072890758514404296875">
        <ele>1132.800048828125</ele>
        <time>2020-08-14T05:47:22.000Z</time>
      </trkpt>
      <trkpt lat="42.40904669277369976043701171875" lon="0.96614199690520763397216796875">
        <ele>1132.4000244140625</ele>
        <time>2020-08-14T05:47:27.000Z</time>
      </trkpt>
      <trkpt lat="42.4090405739843845367431640625" lon="0.966081060469150543212890625">
        <ele>1132.5999755859375</ele>
        <time>2020-08-14T05:47:29.000Z</time>
      </trkpt>
      <trkpt lat="42.4090070463716983795166015625" lon="0.96603018231689929962158203125">
        <ele>1132.5999755859375</ele>
        <time>2020-08-14T05:47:31.000Z</time>
      </trkpt>
      <trkpt lat="42.40895968861877918243408203125" lon="0.9659907035529613494873046875">
        <ele>1132.800048828125</ele>
        <time>2020-08-14T05:47:33.000Z</time>
      </trkpt>
      <trkpt lat="42.40884703584015369415283203125" lon="0.96595273353159427642822265625">
        <ele>1133.4000244140625</ele>
        <time>2020-08-14T05:47:38.000Z</time>
      </trkpt>
      <trkpt lat="42.40872717462480068206787109375" lon="0.96593529917299747467041015625">
        <ele>1134.199951171875</ele>
        <time>2020-08-14T05:47:44.000Z</time>
      </trkpt>
      <trkpt lat="42.408690713346004486083984375" lon="0.9659318625926971435546875">
        <ele>1134.800048828125</ele>
        <time>2020-08-14T05:47:46.000Z</time>
      </trkpt>
      <trkpt lat="42.40857127122581005096435546875" lon="0.96592255868017673492431640625">
        <ele>1135.199951171875</ele>
        <time>2020-08-14T05:47:52.000Z</time>
      </trkpt>
      <trkpt lat="42.408491559326648712158203125" lon="0.96591778099536895751953125">
        <ele>1136.199951171875</ele>
        <time>2020-08-14T05:47:56.000Z</time>
      </trkpt>
      <trkpt lat="42.40845040418207645416259765625" lon="0.965928174555301666259765625">
        <ele>1136.199951171875</ele>
        <time>2020-08-14T05:47:58.000Z</time>
      </trkpt>
      <trkpt lat="42.40830925293266773223876953125" lon="0.96593060530722141265869140625">
        <ele>1137.199951171875</ele>
        <time>2020-08-14T05:48:05.000Z</time>
      </trkpt>
      <trkpt lat="42.40816198289394378662109375" lon="0.96593244932591915130615234375">
        <ele>1138.4000244140625</ele>
        <time>2020-08-14T05:48:13.000Z</time>
      </trkpt>
      <trkpt lat="42.40803902037441730499267578125" lon="0.96598005853593349456787109375">
        <ele>1139.5999755859375</ele>
        <time>2020-08-14T05:48:20.000Z</time>
      </trkpt>
      <trkpt lat="42.40794631652534008026123046875" lon="0.9660202078521251678466796875">
        <ele>1140.5999755859375</ele>
        <time>2020-08-14T05:48:26.000Z</time>
      </trkpt>
      <trkpt lat="42.407912872731685638427734375" lon="0.96604191698133945465087890625">
        <ele>1140.800048828125</ele>
        <time>2020-08-14T05:48:28.000Z</time>
      </trkpt>
      <trkpt lat="42.4078151397407054901123046875" lon="0.966096483170986175537109375">
        <ele>1141.5999755859375</ele>
        <time>2020-08-14T05:48:34.000Z</time>
      </trkpt>
      <trkpt lat="42.40779862739145755767822265625" lon="0.96610310487449169158935546875">
        <ele>1141.5999755859375</ele>
        <time>2020-08-14T05:48:35.000Z</time>
      </trkpt>
      <trkpt lat="42.40770340897142887115478515625" lon="0.9661405719816684722900390625">
        <ele>1142.5999755859375</ele>
        <time>2020-08-14T05:48:41.000Z</time>
      </trkpt>
      <trkpt lat="42.40768781863152980804443359375" lon="0.96614300273358821868896484375">
        <ele>1142.800048828125</ele>
        <time>2020-08-14T05:48:42.000Z</time>
      </trkpt>
      <trkpt lat="42.40759335458278656005859375" lon="0.96614887006580829620361328125">
        <ele>1143.800048828125</ele>
        <time>2020-08-14T05:48:48.000Z</time>
      </trkpt>
      <trkpt lat="42.40754230879247188568115234375" lon="0.966152809560298919677734375">
        <ele>1144.4000244140625</ele>
        <time>2020-08-14T05:48:51.000Z</time>
      </trkpt>
      <trkpt lat="42.4074560590088367462158203125" lon="0.96614954061806201934814453125">
        <ele>1145.199951171875</ele>
        <time>2020-08-14T05:48:56.000Z</time>
      </trkpt>
      <trkpt lat="42.407438792288303375244140625" lon="0.9661482833325862884521484375">
        <ele>1145.4000244140625</ele>
        <time>2020-08-14T05:48:57.000Z</time>
      </trkpt>
      <trkpt lat="42.40731247700750827789306640625" lon="0.96615373156964778900146484375">
        <ele>1146.199951171875</ele>
        <time>2020-08-14T05:49:04.000Z</time>
      </trkpt>
      <trkpt lat="42.40729487501084804534912109375" lon="0.9661570005118846893310546875">
        <ele>1146.4000244140625</ele>
        <time>2020-08-14T05:49:05.000Z</time>
      </trkpt>
      <trkpt lat="42.4072270654141902923583984375" lon="0.9661410748958587646484375">
        <ele>1147</ele>
        <time>2020-08-14T05:49:09.000Z</time>
      </trkpt>
      <trkpt lat="42.40715749561786651611328125" lon="0.966088771820068359375">
        <ele>1147.4000244140625</ele>
        <time>2020-08-14T05:49:14.000Z</time>
      </trkpt>
      <trkpt lat="42.40710494108498096466064453125" lon="0.9659960679709911346435546875">
        <ele>1147.800048828125</ele>
        <time>2020-08-14T05:49:19.000Z</time>
      </trkpt>
      <trkpt lat="42.40707141347229480743408203125" lon="0.96590562723577022552490234375">
        <ele>1148.5999755859375</ele>
        <time>2020-08-14T05:49:23.000Z</time>
      </trkpt>
      <trkpt lat="42.4070473574101924896240234375" lon="0.96581057645380496978759765625">
        <ele>1148.800048828125</ele>
        <time>2020-08-14T05:49:27.000Z</time>
      </trkpt>
      <trkpt lat="42.4070242233574390411376953125" lon="0.96574016846716403961181640625">
        <ele>1149</ele>
        <time>2020-08-14T05:49:30.000Z</time>
      </trkpt>
      <trkpt lat="42.40694032050669193267822265625" lon="0.96560806967318058013916015625">
        <ele>1150</ele>
        <time>2020-08-14T05:49:37.000Z</time>
      </trkpt>
      <trkpt lat="42.40686907432973384857177734375" lon="0.96548049710690975189208984375">
        <ele>1150.5999755859375</ele>
        <time>2020-08-14T05:49:44.000Z</time>
      </trkpt>
      <trkpt lat="42.406852729618549346923828125" lon="0.965394079685211181640625">
        <ele>1151.199951171875</ele>
        <time>2020-08-14T05:49:48.000Z</time>
      </trkpt>
      <trkpt lat="42.40683688782155513763427734375" lon="0.96532559953629970550537109375">
        <ele>1151.5999755859375</ele>
        <time>2020-08-14T05:49:51.000Z</time>
      </trkpt>
      <trkpt lat="42.40680872462689876556396484375" lon="0.9651786647737026214599609375">
        <ele>1151.5999755859375</ele>
        <time>2020-08-14T05:49:57.000Z</time>
      </trkpt>
      <trkpt lat="42.40679464302957057952880859375" lon="0.96510775387287139892578125">
        <ele>1152.4000244140625</ele>
        <time>2020-08-14T05:50:00.000Z</time>
      </trkpt>
      <trkpt lat="42.40676849149167537689208984375" lon="0.964975319802761077880859375">
        <ele>1153.199951171875</ele>
        <time>2020-08-14T05:50:06.000Z</time>
      </trkpt>
      <trkpt lat="42.406762540340423583984375" lon="0.96495545469224452972412109375">
        <ele>1153.4000244140625</ele>
        <time>2020-08-14T05:50:07.000Z</time>
      </trkpt>
      <trkpt lat="42.40671669133007526397705078125" lon="0.96483685076236724853515625">
        <ele>1153.800048828125</ele>
        <time>2020-08-14T05:50:13.000Z</time>
      </trkpt>
      <trkpt lat="42.40667863748967647552490234375" lon="0.9647780098021030426025390625">
        <ele>1154.199951171875</ele>
        <time>2020-08-14T05:50:17.000Z</time>
      </trkpt>
      <trkpt lat="42.4066638015210628509521484375" lon="0.964771471917629241943359375">
        <ele>1154.4000244140625</ele>
        <time>2020-08-14T05:50:18.000Z</time>
      </trkpt>
      <trkpt lat="42.40664863027632236480712890625" lon="0.9647672809660434722900390625">
        <ele>1154.800048828125</ele>
        <time>2020-08-14T05:50:19.000Z</time>
      </trkpt>
      <trkpt lat="42.4066165275871753692626953125" lon="0.96476853825151920318603515625">
        <ele>1155.199951171875</ele>
        <time>2020-08-14T05:50:21.000Z</time>
      </trkpt>
      <trkpt lat="42.4065524898469448089599609375" lon="0.96480089239776134490966796875">
        <ele>1155.4000244140625</ele>
        <time>2020-08-14T05:50:25.000Z</time>
      </trkpt>
      <trkpt lat="42.4065390788018703460693359375" lon="0.96481413580477237701416015625">
        <ele>1155.4000244140625</ele>
        <time>2020-08-14T05:50:26.000Z</time>
      </trkpt>
      <trkpt lat="42.40651309490203857421875" lon="0.9648440591990947723388671875">
        <ele>1155.5999755859375</ele>
        <time>2020-08-14T05:50:28.000Z</time>
      </trkpt>
      <trkpt lat="42.4064854346215724945068359375" lon="0.9649044089019298553466796875">
        <ele>1155.800048828125</ele>
        <time>2020-08-14T05:50:31.000Z</time>
      </trkpt>
      <trkpt lat="42.4064767174422740936279296875" lon="0.96492678858339786529541015625">
        <ele>1156</ele>
        <time>2020-08-14T05:50:32.000Z</time>
      </trkpt>
      <trkpt lat="42.40640991367399692535400390625" lon="0.9650814346969127655029296875">
        <ele>1156.4000244140625</ele>
        <time>2020-08-14T05:50:39.000Z</time>
      </trkpt>
      <trkpt lat="42.4064012803137302398681640625" lon="0.965104736387729644775390625">
        <ele>1156.5999755859375</ele>
        <time>2020-08-14T05:50:40.000Z</time>
      </trkpt>
      <trkpt lat="42.40634637884795665740966796875" lon="0.9652185626327991485595703125">
        <ele>1157.199951171875</ele>
        <time>2020-08-14T05:50:45.000Z</time>
      </trkpt>
      <trkpt lat="42.40630145184695720672607421875" lon="0.9653238393366336822509765625">
        <ele>1157.5999755859375</ele>
        <time>2020-08-14T05:50:50.000Z</time>
      </trkpt>
      <trkpt lat="42.4062842689454555511474609375" lon="0.9653654135763645172119140625">
        <ele>1158</ele>
        <time>2020-08-14T05:50:52.000Z</time>
      </trkpt>
      <trkpt lat="42.4062369950115680694580078125" lon="0.96548653207719326019287109375">
        <ele>1158.5999755859375</ele>
        <time>2020-08-14T05:50:58.000Z</time>
      </trkpt>
      <trkpt lat="42.40623020566999912261962890625" lon="0.96550597809255123138427734375">
        <ele>1158.800048828125</ele>
        <time>2020-08-14T05:50:59.000Z</time>
      </trkpt>
      <trkpt lat="42.406175471842288970947265625" lon="0.96563539467751979827880859375">
        <ele>1159.4000244140625</ele>
        <time>2020-08-14T05:51:05.000Z</time>
      </trkpt>
      <trkpt lat="42.40613196976482868194580078125" lon="0.96568803302943706512451171875">
        <ele>1159.800048828125</ele>
        <time>2020-08-14T05:51:08.000Z</time>
      </trkpt>
      <trkpt lat="42.40606457926332950592041015625" lon="0.965736396610736846923828125">
        <ele>1160.4000244140625</ele>
        <time>2020-08-14T05:51:12.000Z</time>
      </trkpt>
      <trkpt lat="42.4059922434389591217041015625" lon="0.96576414071023464202880859375">
        <ele>1160.800048828125</ele>
        <time>2020-08-14T05:51:16.000Z</time>
      </trkpt>
      <trkpt lat="42.4059171415865421295166015625" lon="0.96577252261340618133544921875">
        <ele>1161.4000244140625</ele>
        <time>2020-08-14T05:51:20.000Z</time>
      </trkpt>
      <trkpt lat="42.4058063328266143798828125" lon="0.965800769627094268798828125">
        <ele>1162</ele>
        <time>2020-08-14T05:51:26.000Z</time>
      </trkpt>
      <trkpt lat="42.40578847937285900115966796875" lon="0.965803451836109161376953125">
        <ele>1162</ele>
        <time>2020-08-14T05:51:27.000Z</time>
      </trkpt>
      <trkpt lat="42.40570030175149440765380859375" lon="0.96582851372659206390380859375">
        <ele>1163</ele>
        <time>2020-08-14T05:51:32.000Z</time>
      </trkpt>
      <trkpt lat="42.40568253211677074432373046875" lon="0.9658321179449558258056640625">
        <ele>1163</ele>
        <time>2020-08-14T05:51:33.000Z</time>
      </trkpt>
      <trkpt lat="42.40559837780892848968505859375" lon="0.96585801802575588226318359375">
        <ele>1164</ele>
        <time>2020-08-14T05:51:38.000Z</time>
      </trkpt>
      <trkpt lat="42.40556518547236919403076171875" lon="0.96586891449987888336181640625">
        <ele>1164.4000244140625</ele>
        <time>2020-08-14T05:51:40.000Z</time>
      </trkpt>
      <trkpt lat="42.40551707334816455841064453125" lon="0.9658881090581417083740234375">
        <ele>1164.5999755859375</ele>
        <time>2020-08-14T05:51:43.000Z</time>
      </trkpt>
      <trkpt lat="42.4054495990276336669921875" lon="0.96592658199369907379150390625">
        <ele>1165</ele>
        <time>2020-08-14T05:51:47.000Z</time>
      </trkpt>
      <trkpt lat="42.4054152332246303558349609375" lon="0.96595625393092632293701171875">
        <ele>1165.4000244140625</ele>
        <time>2020-08-14T05:51:49.000Z</time>
      </trkpt>
      <trkpt lat="42.40538187325000762939453125" lon="0.96598215401172637939453125">
        <ele>1165.5999755859375</ele>
        <time>2020-08-14T05:51:51.000Z</time>
      </trkpt>
      <trkpt lat="42.405335940420627593994140625" lon="0.96602196805179119110107421875">
        <ele>1166</ele>
        <time>2020-08-14T05:51:54.000Z</time>
      </trkpt>
      <trkpt lat="42.40532093681395053863525390625" lon="0.9660336188971996307373046875">
        <ele>1166.199951171875</ele>
        <time>2020-08-14T05:51:55.000Z</time>
      </trkpt>
      <trkpt lat="42.40526109002530574798583984375" lon="0.96608784981071949005126953125">
        <ele>1167.199951171875</ele>
        <time>2020-08-14T05:51:59.000Z</time>
      </trkpt>
      <trkpt lat="42.4051704816520214080810546875" lon="0.96615943126380443572998046875">
        <ele>1167.800048828125</ele>
        <time>2020-08-14T05:52:05.000Z</time>
      </trkpt>
      <trkpt lat="42.4051097966730594635009765625" lon="0.96620888449251651763916015625">
        <ele>1168.4000244140625</ele>
        <time>2020-08-14T05:52:09.000Z</time>
      </trkpt>
      <trkpt lat="42.40501382388174533843994140625" lon="0.966277532279491424560546875">
        <ele>1169</ele>
        <time>2020-08-14T05:52:15.000Z</time>
      </trkpt>
      <trkpt lat="42.4049453437328338623046875" lon="0.96631097607314586639404296875">
        <ele>1169.4000244140625</ele>
        <time>2020-08-14T05:52:19.000Z</time>
      </trkpt>
      <trkpt lat="42.40489781834185123443603515625" lon="0.966343916952610015869140625">
        <ele>1170.199951171875</ele>
        <time>2020-08-14T05:52:22.000Z</time>
      </trkpt>
      <trkpt lat="42.4048653803765773773193359375" lon="0.96636998467147350311279296875">
        <ele>1170.5999755859375</ele>
        <time>2020-08-14T05:52:24.000Z</time>
      </trkpt>
      <trkpt lat="42.40474560298025608062744140625" lon="0.9664024226367473602294921875">
        <ele>1171.5999755859375</ele>
        <time>2020-08-14T05:52:31.000Z</time>
      </trkpt>
      <trkpt lat="42.4047272466123104095458984375" lon="0.966404937207698822021484375">
        <ele>1171.5999755859375</ele>
        <time>2020-08-14T05:52:32.000Z</time>
      </trkpt>
      <trkpt lat="42.404643259942531585693359375" lon="0.96635808236896991729736328125">
        <ele>1172.199951171875</ele>
        <time>2020-08-14T05:52:37.000Z</time>
      </trkpt>
      <trkpt lat="42.40460160188376903533935546875" lon="0.9663112275302410125732421875">
        <ele>1172.800048828125</ele>
        <time>2020-08-14T05:52:40.000Z</time>
      </trkpt>
      <trkpt lat="42.40454879589378833770751953125" lon="0.96624224446713924407958984375">
        <ele>1173.4000244140625</ele>
        <time>2020-08-14T05:52:44.000Z</time>
      </trkpt>
      <trkpt lat="42.40451325662434101104736328125" lon="0.96618625335395336151123046875">
        <ele>1174</ele>
        <time>2020-08-14T05:52:47.000Z</time>
      </trkpt>
      <trkpt lat="42.40447704680263996124267578125" lon="0.96610419452190399169921875">
        <ele>1174.4000244140625</ele>
        <time>2020-08-14T05:52:51.000Z</time>
      </trkpt>
      <trkpt lat="42.40444972179830074310302734375" lon="0.966043509542942047119140625">
        <ele>1175</ele>
        <time>2020-08-14T05:52:54.000Z</time>
      </trkpt>
      <trkpt lat="42.40440295077860355377197265625" lon="0.96590948291122913360595703125">
        <ele>1175.5999755859375</ele>
        <time>2020-08-14T05:53:00.000Z</time>
      </trkpt>
      <trkpt lat="42.40437847562134265899658203125" lon="0.9658415056765079498291015625">
        <ele>1176.199951171875</ele>
        <time>2020-08-14T05:53:03.000Z</time>
      </trkpt>
      <trkpt lat="42.40434813313186168670654296875" lon="0.96572658978402614593505859375">
        <ele>1177</ele>
        <time>2020-08-14T05:53:08.000Z</time>
      </trkpt>
      <trkpt lat="42.4043329618871212005615234375" lon="0.9656829200685024261474609375">
        <ele>1177.199951171875</ele>
        <time>2020-08-14T05:53:10.000Z</time>
      </trkpt>
      <trkpt lat="42.404295913875102996826171875" lon="0.96557303331792354583740234375">
        <ele>1177.800048828125</ele>
        <time>2020-08-14T05:53:15.000Z</time>
      </trkpt>
      <trkpt lat="42.40425559692084789276123046875" lon="0.9654649905860424041748046875">
        <ele>1178.4000244140625</ele>
        <time>2020-08-14T05:53:20.000Z</time>
      </trkpt>
      <trkpt lat="42.40423732437193393707275390625" lon="0.96542316488921642303466796875">
        <ele>1178.5999755859375</ele>
        <time>2020-08-14T05:53:22.000Z</time>
      </trkpt>
      <trkpt lat="42.404187619686126708984375" lon="0.965352840721607208251953125">
        <ele>1179.4000244140625</ele>
        <time>2020-08-14T05:53:26.000Z</time>
      </trkpt>
      <trkpt lat="42.4041344784200191497802734375" lon="0.96528754569590091705322265625">
        <ele>1179.800048828125</ele>
        <time>2020-08-14T05:53:30.000Z</time>
      </trkpt>
      <trkpt lat="42.40405543707311153411865234375" lon="0.9652319736778736114501953125">
        <ele>1180.4000244140625</ele>
        <time>2020-08-14T05:53:35.000Z</time>
      </trkpt>
      <trkpt lat="42.4039862863719463348388671875" lon="0.96519601531326770782470703125">
        <ele>1181.199951171875</ele>
        <time>2020-08-14T05:53:39.000Z</time>
      </trkpt>
      <trkpt lat="42.4039507471024990081787109375" lon="0.96518109552562236785888671875">
        <ele>1181.5999755859375</ele>
        <time>2020-08-14T05:53:41.000Z</time>
      </trkpt>
      <trkpt lat="42.403846643865108489990234375" lon="0.96513482742011547088623046875">
        <ele>1182.199951171875</ele>
        <time>2020-08-14T05:53:47.000Z</time>
      </trkpt>
      <trkpt lat="42.40376106463372707366943359375" lon="0.96509677357971668243408203125">
        <ele>1182.5999755859375</ele>
        <time>2020-08-14T05:53:52.000Z</time>
      </trkpt>
      <trkpt lat="42.40372854284942150115966796875" lon="0.96507565118372440338134765625">
        <ele>1183</ele>
        <time>2020-08-14T05:53:54.000Z</time>
      </trkpt>
      <trkpt lat="42.40366266109049320220947265625" lon="0.964985378086566925048828125">
        <ele>1183.5999755859375</ele>
        <time>2020-08-14T05:53:59.000Z</time>
      </trkpt>
      <trkpt lat="42.4036409519612789154052734375" lon="0.9649421274662017822265625">
        <ele>1184</ele>
        <time>2020-08-14T05:54:01.000Z</time>
      </trkpt>
      <trkpt lat="42.403577081859111785888671875" lon="0.96481162123382091522216796875">
        <ele>1185</ele>
        <time>2020-08-14T05:54:07.000Z</time>
      </trkpt>
      <trkpt lat="42.4035410396754741668701171875" lon="0.96471589989960193634033203125">
        <ele>1185.800048828125</ele>
        <time>2020-08-14T05:54:11.000Z</time>
      </trkpt>
      <trkpt lat="42.4035346694290637969970703125" lon="0.96463979221880435943603515625">
        <ele>1186</ele>
        <time>2020-08-14T05:54:14.000Z</time>
      </trkpt>
      <trkpt lat="42.40355302579700946807861328125" lon="0.96454725600779056549072265625">
        <ele>1186.800048828125</ele>
        <time>2020-08-14T05:54:18.000Z</time>
      </trkpt>
      <trkpt lat="42.40358152426779270172119140625" lon="0.96448405645787715911865234375">
        <ele>1187.199951171875</ele>
        <time>2020-08-14T05:54:21.000Z</time>
      </trkpt>
      <trkpt lat="42.4036355875432491302490234375" lon="0.96438917331397533416748046875">
        <ele>1187.800048828125</ele>
        <time>2020-08-14T05:54:26.000Z</time>
      </trkpt>
      <trkpt lat="42.40367456339299678802490234375" lon="0.96431708894670009613037109375">
        <ele>1188.199951171875</ele>
        <time>2020-08-14T05:54:30.000Z</time>
      </trkpt>
      <trkpt lat="42.4036989547312259674072265625" lon="0.96420921385288238525390625">
        <ele>1189.199951171875</ele>
        <time>2020-08-14T05:54:35.000Z</time>
      </trkpt>
      <trkpt lat="42.40370658226311206817626953125" lon="0.964096896350383758544921875">
        <ele>1190.4000244140625</ele>
        <time>2020-08-14T05:54:40.000Z</time>
      </trkpt>
      <trkpt lat="42.40371664054691791534423828125" lon="0.96398566849529743194580078125">
        <ele>1191.199951171875</ele>
        <time>2020-08-14T05:54:45.000Z</time>
      </trkpt>
      <trkpt lat="42.40372695028781890869140625" lon="0.963941998779773712158203125">
        <ele>1191.199951171875</ele>
        <time>2020-08-14T05:54:47.000Z</time>
      </trkpt>
      <trkpt lat="42.40374480374157428741455078125" lon="0.96380864270031452178955078125">
        <ele>1192</ele>
        <time>2020-08-14T05:54:53.000Z</time>
      </trkpt>
      <trkpt lat="42.40376492030918598175048828125" lon="0.96369112841784954071044921875">
        <ele>1192.4000244140625</ele>
        <time>2020-08-14T05:54:58.000Z</time>
      </trkpt>
      <trkpt lat="42.4037790857255458831787109375" lon="0.96364460885524749755859375">
        <ele>1192.800048828125</ele>
        <time>2020-08-14T05:55:00.000Z</time>
      </trkpt>
      <trkpt lat="42.40379995666444301605224609375" lon="0.96357629634439945220947265625">
        <ele>1193.4000244140625</ele>
        <time>2020-08-14T05:55:03.000Z</time>
      </trkpt>
      <trkpt lat="42.4038263596594333648681640625" lon="0.9634642302989959716796875">
        <ele>1194</ele>
        <time>2020-08-14T05:55:08.000Z</time>
      </trkpt>
      <trkpt lat="42.40384102798998355865478515625" lon="0.9634239971637725830078125">
        <ele>1194.5999755859375</ele>
        <time>2020-08-14T05:55:10.000Z</time>
      </trkpt>
      <trkpt lat="42.4039001204073429107666015625" lon="0.96322425641119480133056640625">
        <ele>1195.4000244140625</ele>
        <time>2020-08-14T05:55:19.000Z</time>
      </trkpt>
      <trkpt lat="42.4039111845195293426513671875" lon="0.96317865885794162750244140625">
        <ele>1195.800048828125</ele>
        <time>2020-08-14T05:55:21.000Z</time>
      </trkpt>
      <trkpt lat="42.40393859334290027618408203125" lon="0.96297028474509716033935546875">
        <ele>1196.800048828125</ele>
        <time>2020-08-14T05:55:30.000Z</time>
      </trkpt>
      <trkpt lat="42.40393825806677341461181640625" lon="0.962947569787502288818359375">
        <ele>1197</ele>
        <time>2020-08-14T05:55:31.000Z</time>
      </trkpt>
      <trkpt lat="42.40392685867846012115478515625" lon="0.96280641853809356689453125">
        <ele>1198</ele>
        <time>2020-08-14T05:55:37.000Z</time>
      </trkpt>
      <trkpt lat="42.4039180576801300048828125" lon="0.96275746822357177734375">
        <ele>1198.199951171875</ele>
        <time>2020-08-14T05:55:39.000Z</time>
      </trkpt>
      <trkpt lat="42.4038898944854736328125" lon="0.96260525286197662353515625">
        <ele>1199.199951171875</ele>
        <time>2020-08-14T05:55:45.000Z</time>
      </trkpt>
      <trkpt lat="42.40386751480400562286376953125" lon="0.9625333361327648162841796875">
        <ele>1199.199951171875</ele>
        <time>2020-08-14T05:55:48.000Z</time>
      </trkpt>
      <trkpt lat="42.4038106016814708709716796875" lon="0.96229889430105686187744140625">
        <ele>1200.199951171875</ele>
        <time>2020-08-14T05:55:57.000Z</time>
      </trkpt>
      <trkpt lat="42.40379878319799900054931640625" lon="0.96224525012075901031494140625">
        <ele>1200.5999755859375</ele>
        <time>2020-08-14T05:55:59.000Z</time>
      </trkpt>
      <trkpt lat="42.40373960696160793304443359375" lon="0.9620807133615016937255859375">
        <ele>1201</ele>
        <time>2020-08-14T05:56:06.000Z</time>
      </trkpt>
      <trkpt lat="42.40370825864374637603759765625" lon="0.96202346496284008026123046875">
        <ele>1201.4000244140625</ele>
        <time>2020-08-14T05:56:09.000Z</time>
      </trkpt>
      <trkpt lat="42.40367590449750423431396484375" lon="0.9619777835905551910400390625">
        <ele>1202.199951171875</ele>
        <time>2020-08-14T05:56:12.000Z</time>
      </trkpt>
      <trkpt lat="42.403639443218708038330078125" lon="0.9619234688580036163330078125">
        <ele>1202.4000244140625</ele>
        <time>2020-08-14T05:56:15.000Z</time>
      </trkpt>
      <trkpt lat="42.40361220203340053558349609375" lon="0.961887426674365997314453125">
        <ele>1202.5999755859375</ele>
        <time>2020-08-14T05:56:17.000Z</time>
      </trkpt>
      <trkpt lat="42.40352720953524112701416015625" lon="0.961777456104755401611328125">
        <ele>1203.4000244140625</ele>
        <time>2020-08-14T05:56:23.000Z</time>
      </trkpt>
      <trkpt lat="42.40349921397864818572998046875" lon="0.96173864789307117462158203125">
        <ele>1203.5999755859375</ele>
        <time>2020-08-14T05:56:25.000Z</time>
      </trkpt>
      <trkpt lat="42.40345747210085391998291015625" lon="0.9616927988827228546142578125">
        <ele>1203.800048828125</ele>
        <time>2020-08-14T05:56:28.000Z</time>
      </trkpt>
      <trkpt lat="42.403396032750606536865234375" lon="0.96163085661828517913818359375">
        <ele>1204.5999755859375</ele>
        <time>2020-08-14T05:56:32.000Z</time>
      </trkpt>
      <trkpt lat="42.40335370413959026336669921875" lon="0.96159699372947216033935546875">
        <ele>1204.800048828125</ele>
        <time>2020-08-14T05:56:35.000Z</time>
      </trkpt>
      <trkpt lat="42.4032423086464405059814453125" lon="0.96152566373348236083984375">
        <ele>1205.4000244140625</ele>
        <time>2020-08-14T05:56:42.000Z</time>
      </trkpt>
      <trkpt lat="42.403227388858795166015625" lon="0.96151535399258136749267578125">
        <ele>1205.800048828125</ele>
        <time>2020-08-14T05:56:43.000Z</time>
      </trkpt>
      <trkpt lat="42.4031185917556285858154296875" lon="0.9614326246082782745361328125">
        <ele>1206.199951171875</ele>
        <time>2020-08-14T05:56:49.000Z</time>
      </trkpt>
      <trkpt lat="42.40302848629653453826904296875" lon="0.961365737020969390869140625">
        <ele>1206.800048828125</ele>
        <time>2020-08-14T05:56:54.000Z</time>
      </trkpt>
      <trkpt lat="42.4029408954083919525146484375" lon="0.96131368540227413177490234375">
        <ele>1207.199951171875</ele>
        <time>2020-08-14T05:56:59.000Z</time>
      </trkpt>
      <trkpt lat="42.402838133275508880615234375" lon="0.96124310977756977081298828125">
        <ele>1208</ele>
        <time>2020-08-14T05:57:05.000Z</time>
      </trkpt>
      <trkpt lat="42.4027861654758453369140625" lon="0.96120069734752178192138671875">
        <ele>1208.5999755859375</ele>
        <time>2020-08-14T05:57:08.000Z</time>
      </trkpt>
      <trkpt lat="42.40269790403544902801513671875" lon="0.9611432813107967376708984375">
        <ele>1209</ele>
        <time>2020-08-14T05:57:13.000Z</time>
      </trkpt>
      <trkpt lat="42.40264928899705410003662109375" lon="0.96110966987907886505126953125">
        <ele>1209.199951171875</ele>
        <time>2020-08-14T05:57:16.000Z</time>
      </trkpt>
      <trkpt lat="42.40254878997802734375" lon="0.96107102930545806884765625">
        <ele>1210.199951171875</ele>
        <time>2020-08-14T05:57:22.000Z</time>
      </trkpt>
      <trkpt lat="42.40253026597201824188232421875" lon="0.96106164157390594482421875">
        <ele>1210.4000244140625</ele>
        <time>2020-08-14T05:57:23.000Z</time>
      </trkpt>
      <trkpt lat="42.40244711749255657196044921875" lon="0.961021743714809417724609375">
        <ele>1211.4000244140625</ele>
        <time>2020-08-14T05:57:28.000Z</time>
      </trkpt>
      <trkpt lat="42.40238961763679981231689453125" lon="0.9610061533749103546142578125">
        <ele>1212</ele>
        <time>2020-08-14T05:57:31.000Z</time>
      </trkpt>
      <trkpt lat="42.40232910029590129852294921875" lon="0.96098645590245723724365234375">
        <ele>1212.5999755859375</ele>
        <time>2020-08-14T05:57:34.000Z</time>
      </trkpt>
      <trkpt lat="42.40227344445884227752685546875" lon="0.96096617169678211212158203125">
        <ele>1213</ele>
        <time>2020-08-14T05:57:37.000Z</time>
      </trkpt>
      <trkpt lat="42.40215827710926532745361328125" lon="0.96094136126339435577392578125">
        <ele>1213.5999755859375</ele>
        <time>2020-08-14T05:57:43.000Z</time>
      </trkpt>
      <trkpt lat="42.40211888216435909271240234375" lon="0.96092912368476390838623046875">
        <ele>1213.800048828125</ele>
        <time>2020-08-14T05:57:45.000Z</time>
      </trkpt>
      <trkpt lat="42.402020394802093505859375" lon="0.960917137563228607177734375">
        <ele>1214.4000244140625</ele>
        <time>2020-08-14T05:57:50.000Z</time>
      </trkpt>
      <trkpt lat="42.401883266866207122802734375" lon="0.9608891420066356658935546875">
        <ele>1215.4000244140625</ele>
        <time>2020-08-14T05:57:57.000Z</time>
      </trkpt>
      <trkpt lat="42.40186415612697601318359375" lon="0.96087983809411525726318359375">
        <ele>1215.5999755859375</ele>
        <time>2020-08-14T05:57:58.000Z</time>
      </trkpt>
      <trkpt lat="42.40176851861178874969482421875" lon="0.96078294329345226287841796875">
        <ele>1216.5999755859375</ele>
        <time>2020-08-14T05:58:04.000Z</time>
      </trkpt>
      <trkpt lat="42.40163390524685382843017578125" lon="0.96061371266841888427734375">
        <ele>1217.800048828125</ele>
        <time>2020-08-14T05:58:13.000Z</time>
      </trkpt>
      <trkpt lat="42.40157288499176502227783203125" lon="0.96047817729413509368896484375">
        <ele>1218.800048828125</ele>
        <time>2020-08-14T05:58:19.000Z</time>
      </trkpt>
      <trkpt lat="42.401552684605121612548828125" lon="0.96043408848345279693603515625">
        <ele>1219</ele>
        <time>2020-08-14T05:58:21.000Z</time>
      </trkpt>
      <trkpt lat="42.4015067517757415771484375" lon="0.96031489782035350799560546875">
        <ele>1220</ele>
        <time>2020-08-14T05:58:26.000Z</time>
      </trkpt>
      <trkpt lat="42.4014569632709026336669921875" lon="0.9602024964988231658935546875">
        <ele>1220.5999755859375</ele>
        <time>2020-08-14T05:58:31.000Z</time>
      </trkpt>
      <trkpt lat="42.40140960551798343658447265625" lon="0.96011557616293430328369140625">
        <ele>1221.199951171875</ele>
        <time>2020-08-14T05:58:35.000Z</time>
      </trkpt>
      <trkpt lat="42.4013127945363521575927734375" lon="0.959987081587314605712890625">
        <ele>1222.199951171875</ele>
        <time>2020-08-14T05:58:42.000Z</time>
      </trkpt>
      <trkpt lat="42.40129980258643627166748046875" lon="0.95996797084808349609375">
        <ele>1222.4000244140625</ele>
        <time>2020-08-14T05:58:43.000Z</time>
      </trkpt>
      <trkpt lat="42.40123190917074680328369140625" lon="0.959875099360942840576171875">
        <ele>1223.199951171875</ele>
        <time>2020-08-14T05:58:48.000Z</time>
      </trkpt>
      <trkpt lat="42.401192598044872283935546875" lon="0.959820449352264404296875">
        <ele>1223.5999755859375</ele>
        <time>2020-08-14T05:58:51.000Z</time>
      </trkpt>
      <trkpt lat="42.4011528678238391876220703125" lon="0.95973839052021503448486328125">
        <ele>1224.199951171875</ele>
        <time>2020-08-14T05:58:57.000Z</time>
      </trkpt>
      <trkpt lat="42.401153035461902618408203125" lon="0.95973788760602474212646484375">
        <ele>1224.199951171875</ele>
        <time>2020-08-14T05:58:59.000Z</time>
      </trkpt>
      <trkpt lat="42.40115177817642688751220703125" lon="0.95973855815827846527099609375">
        <ele>1224.4000244140625</ele>
        <time>2020-08-14T05:59:16.000Z</time>
      </trkpt>
      <trkpt lat="42.4011562205851078033447265625" lon="0.959738977253437042236328125">
        <ele>1224.199951171875</ele>
        <time>2020-08-14T05:59:40.000Z</time>
      </trkpt>
      <trkpt lat="42.4011595733463764190673828125" lon="0.95973797142505645751953125">
        <ele>1224.4000244140625</ele>
        <time>2020-08-14T06:00:04.000Z</time>
      </trkpt>
      <trkpt lat="42.40116099826991558074951171875" lon="0.95974056981503963470458984375">
        <ele>1224.4000244140625</ele>
        <time>2020-08-14T06:00:29.000Z</time>
      </trkpt>
      <trkpt lat="42.40116653032600879669189453125" lon="0.9597481973469257354736328125">
        <ele>1224.4000244140625</ele>
        <time>2020-08-14T06:00:41.000Z</time>
      </trkpt>
      <trkpt lat="42.40116409957408905029296875" lon="0.95975867472589015960693359375">
        <ele>1224.199951171875</ele>
        <time>2020-08-14T06:00:51.000Z</time>
      </trkpt>
      <trkpt lat="42.4011602438986301422119140625" lon="0.95975850708782672882080078125">
        <ele>1224.5999755859375</ele>
        <time>2020-08-14T06:01:00.000Z</time>
      </trkpt>
      <trkpt lat="42.40116016007959842681884765625" lon="0.95975934527814388275146484375">
        <ele>1224.4000244140625</ele>
        <time>2020-08-14T06:01:16.000Z</time>
      </trkpt>
      <trkpt lat="42.4011485092341899871826171875" lon="0.95974761061370372772216796875">
        <ele>1224.4000244140625</ele>
        <time>2020-08-14T06:01:18.000Z</time>
      </trkpt>
      <trkpt lat="42.40114440210163593292236328125" lon="0.959751047194004058837890625">
        <ele>1224.4000244140625</ele>
        <time>2020-08-14T06:01:30.000Z</time>
      </trkpt>
      <trkpt lat="42.4011203460395336151123046875" lon="0.95972992479801177978515625">
        <ele>1224.5999755859375</ele>
        <time>2020-08-14T06:01:34.000Z</time>
      </trkpt>
      <trkpt lat="42.40111137740314006805419921875" lon="0.9597227163612842559814453125">
        <ele>1224.5999755859375</ele>
        <time>2020-08-14T06:01:35.000Z</time>
      </trkpt>
      <trkpt lat="42.40107826888561248779296875" lon="0.95966647379100322723388671875">
        <ele>1225</ele>
        <time>2020-08-14T06:01:39.000Z</time>
      </trkpt>
      <trkpt lat="42.40105421282351016998291015625" lon="0.9596395678818225860595703125">
        <ele>1225.199951171875</ele>
        <time>2020-08-14T06:01:41.000Z</time>
      </trkpt>
      <trkpt lat="42.4010174162685871124267578125" lon="0.9595983289182186126708984375">
        <ele>1225.5999755859375</ele>
        <time>2020-08-14T06:01:44.000Z</time>
      </trkpt>
      <trkpt lat="42.40099520422518253326416015625" lon="0.95957125537097454071044921875">
        <ele>1225.800048828125</ele>
        <time>2020-08-14T06:01:46.000Z</time>
      </trkpt>
      <trkpt lat="42.40095044486224651336669921875" lon="0.95948860980570316314697265625">
        <ele>1226.4000244140625</ele>
        <time>2020-08-14T06:01:51.000Z</time>
      </trkpt>
      <trkpt lat="42.4009362794458866119384765625" lon="0.95945206470787525177001953125">
        <ele>1226.800048828125</ele>
        <time>2020-08-14T06:01:53.000Z</time>
      </trkpt>
      <trkpt lat="42.40090300329029560089111328125" lon="0.959346704185009002685546875">
        <ele>1227.4000244140625</ele>
        <time>2020-08-14T06:01:58.000Z</time>
      </trkpt>
      <trkpt lat="42.40086369216442108154296875" lon="0.959230698645114898681640625">
        <ele>1228</ele>
        <time>2020-08-14T06:02:03.000Z</time>
      </trkpt>
      <trkpt lat="42.40081666968762874603271484375" lon="0.95914117991924285888671875">
        <ele>1228.4000244140625</ele>
        <time>2020-08-14T06:02:07.000Z</time>
      </trkpt>
      <trkpt lat="42.400778867304325103759765625" lon="0.95908476971089839935302734375">
        <ele>1229</ele>
        <time>2020-08-14T06:02:10.000Z</time>
      </trkpt>
      <trkpt lat="42.400716841220855712890625" lon="0.959048308432102203369140625">
        <ele>1229.5999755859375</ele>
        <time>2020-08-14T06:02:14.000Z</time>
      </trkpt>
      <trkpt lat="42.40066629834473133087158203125" lon="0.95902106724679470062255859375">
        <ele>1230.199951171875</ele>
        <time>2020-08-14T06:02:17.000Z</time>
      </trkpt>
      <trkpt lat="42.400574348866939544677734375" lon="0.95899977721273899078369140625">
        <ele>1230.5999755859375</ele>
        <time>2020-08-14T06:02:22.000Z</time>
      </trkpt>
      <trkpt lat="42.40055532194674015045166015625" lon="0.9589968435466289520263671875">
        <ele>1230.800048828125</ele>
        <time>2020-08-14T06:02:23.000Z</time>
      </trkpt>
      <trkpt lat="42.4004229716956615447998046875" lon="0.959000028669834136962890625">
        <ele>1231.5999755859375</ele>
        <time>2020-08-14T06:02:30.000Z</time>
      </trkpt>
      <trkpt lat="42.40040411241352558135986328125" lon="0.95900480635464191436767578125">
        <ele>1231.800048828125</ele>
        <time>2020-08-14T06:02:31.000Z</time>
      </trkpt>
      <trkpt lat="42.400300763547420501708984375" lon="0.95906364731490612030029296875">
        <ele>1232.800048828125</ele>
        <time>2020-08-14T06:02:37.000Z</time>
      </trkpt>
      <trkpt lat="42.40026597864925861358642578125" lon="0.9590868651866912841796875">
        <ele>1233</ele>
        <time>2020-08-14T06:02:39.000Z</time>
      </trkpt>
      <trkpt lat="42.4001415073871612548828125" lon="0.9591423533856868743896484375">
        <ele>1233.800048828125</ele>
        <time>2020-08-14T06:02:46.000Z</time>
      </trkpt>
      <trkpt lat="42.40012248046696186065673828125" lon="0.95914662815630435943603515625">
        <ele>1234</ele>
        <time>2020-08-14T06:02:47.000Z</time>
      </trkpt>
      <trkpt lat="42.39998334087431430816650390625" lon="0.95911595039069652557373046875">
        <ele>1234.800048828125</ele>
        <time>2020-08-14T06:02:54.000Z</time>
      </trkpt>
      <trkpt lat="42.39983514882624149322509765625" lon="0.959021151065826416015625">
        <ele>1235.800048828125</ele>
        <time>2020-08-14T06:03:02.000Z</time>
      </trkpt>
      <trkpt lat="42.39978720434010028839111328125" lon="0.95897681079804897308349609375">
        <ele>1236.4000244140625</ele>
        <time>2020-08-14T06:03:05.000Z</time>
      </trkpt>
      <trkpt lat="42.3997386731207370758056640625" lon="0.95893339253962039947509765625">
        <ele>1237</ele>
        <time>2020-08-14T06:03:08.000Z</time>
      </trkpt>
      <trkpt lat="42.3996444605290889739990234375" lon="0.9588389284908771514892578125">
        <ele>1237.800048828125</ele>
        <time>2020-08-14T06:03:14.000Z</time>
      </trkpt>
      <trkpt lat="42.3995934985578060150146484375" lon="0.9587929956614971160888671875">
        <ele>1238</ele>
        <time>2020-08-14T06:03:17.000Z</time>
      </trkpt>
      <trkpt lat="42.3995120264589786529541015625" lon="0.95871873199939727783203125">
        <ele>1239</ele>
        <time>2020-08-14T06:03:22.000Z</time>
      </trkpt>
      <trkpt lat="42.39949635230004787445068359375" lon="0.95870238728821277618408203125">
        <ele>1239</ele>
        <time>2020-08-14T06:03:23.000Z</time>
      </trkpt>
      <trkpt lat="42.39942544139921665191650390625" lon="0.95857632346451282501220703125">
        <ele>1240</ele>
        <time>2020-08-14T06:03:29.000Z</time>
      </trkpt>
      <trkpt lat="42.39941387437283992767333984375" lon="0.9585542790591716766357421875">
        <ele>1240.199951171875</ele>
        <time>2020-08-14T06:03:30.000Z</time>
      </trkpt>
      <trkpt lat="42.39929719828069210052490234375" lon="0.958335511386394500732421875">
        <ele>1241.199951171875</ele>
        <time>2020-08-14T06:03:40.000Z</time>
      </trkpt>
      <trkpt lat="42.3992367647588253021240234375" lon="0.95826946198940277099609375">
        <ele>1241.800048828125</ele>
        <time>2020-08-14T06:03:44.000Z</time>
      </trkpt>
      <trkpt lat="42.39920550025999546051025390625" lon="0.9582454897463321685791015625">
        <ele>1242.199951171875</ele>
        <time>2020-08-14T06:03:46.000Z</time>
      </trkpt>
      <trkpt lat="42.3990976251661777496337890625" lon="0.95820366404950618743896484375">
        <ele>1243</ele>
        <time>2020-08-14T06:03:53.000Z</time>
      </trkpt>
      <trkpt lat="42.398978434503078460693359375" lon="0.95821305178105831146240234375">
        <ele>1244.4000244140625</ele>
        <time>2020-08-14T06:03:59.000Z</time>
      </trkpt>
      <trkpt lat="42.39894096739590167999267578125" lon="0.95820332877337932586669921875">
        <ele>1244.5999755859375</ele>
        <time>2020-08-14T06:04:01.000Z</time>
      </trkpt>
      <trkpt lat="42.39880383946001529693603515625" lon="0.95817114226520061492919921875">
        <ele>1245.5999755859375</ele>
        <time>2020-08-14T06:04:08.000Z</time>
      </trkpt>
      <trkpt lat="42.39876628853380680084228515625" lon="0.9581593237817287445068359375">
        <ele>1245.800048828125</ele>
        <time>2020-08-14T06:04:10.000Z</time>
      </trkpt>
      <trkpt lat="42.3986542224884033203125" lon="0.95809243619441986083984375">
        <ele>1246.4000244140625</ele>
        <time>2020-08-14T06:04:16.000Z</time>
      </trkpt>
      <trkpt lat="42.39860032685101032257080078125" lon="0.95805547200143337249755859375">
        <ele>1247</ele>
        <time>2020-08-14T06:04:19.000Z</time>
      </trkpt>
      <trkpt lat="42.39850963465869426727294921875" lon="0.95799696631729602813720703125">
        <ele>1247.5999755859375</ele>
        <time>2020-08-14T06:04:24.000Z</time>
      </trkpt>
      <trkpt lat="42.39849052391946315765380859375" lon="0.9579866565763950347900390625">
        <ele>1247.800048828125</ele>
        <time>2020-08-14T06:04:25.000Z</time>
      </trkpt>
      <trkpt lat="42.39835121668875217437744140625" lon="0.95792345702648162841796875">
        <ele>1248.800048828125</ele>
        <time>2020-08-14T06:04:32.000Z</time>
      </trkpt>
      <trkpt lat="42.39831249229609966278076171875" lon="0.95790828578174114227294921875">
        <ele>1249</ele>
        <time>2020-08-14T06:04:34.000Z</time>
      </trkpt>
      <trkpt lat="42.39821241237223148345947265625" lon="0.95787920057773590087890625">
        <ele>1249.800048828125</ele>
        <time>2020-08-14T06:04:39.000Z</time>
      </trkpt>
      <trkpt lat="42.39813529886305332183837890625" lon="0.95784969627857208251953125">
        <ele>1250.4000244140625</ele>
        <time>2020-08-14T06:04:43.000Z</time>
      </trkpt>
      <trkpt lat="42.398056089878082275390625" lon="0.9578267298638820648193359375">
        <ele>1251</ele>
        <time>2020-08-14T06:04:47.000Z</time>
      </trkpt>
      <trkpt lat="42.39796062000095844268798828125" lon="0.9577881731092929840087890625">
        <ele>1252</ele>
        <time>2020-08-14T06:04:52.000Z</time>
      </trkpt>
      <trkpt lat="42.39794201217591762542724609375" lon="0.9577804617583751678466796875">
        <ele>1252</ele>
        <time>2020-08-14T06:04:53.000Z</time>
      </trkpt>
      <trkpt lat="42.39780521951615810394287109375" lon="0.95775221474468708038330078125">
        <ele>1253</ele>
        <time>2020-08-14T06:05:00.000Z</time>
      </trkpt>
      <trkpt lat="42.39778577350080013275146484375" lon="0.95775045454502105712890625">
        <ele>1253.199951171875</ele>
        <time>2020-08-14T06:05:01.000Z</time>
      </trkpt>
      <trkpt lat="42.3976653255522251129150390625" lon="0.95772841013967990875244140625">
        <ele>1254.199951171875</ele>
        <time>2020-08-14T06:05:07.000Z</time>
      </trkpt>
      <trkpt lat="42.39764462225139141082763671875" lon="0.95772522501647472381591796875">
        <ele>1254.4000244140625</ele>
        <time>2020-08-14T06:05:08.000Z</time>
      </trkpt>
      <trkpt lat="42.39748419262468814849853515625" lon="0.95767510123550891876220703125">
        <ele>1255.199951171875</ele>
        <time>2020-08-14T06:05:16.000Z</time>
      </trkpt>
      <trkpt lat="42.39746491424739360809326171875" lon="0.9576661325991153717041015625">
        <ele>1255.4000244140625</ele>
        <time>2020-08-14T06:05:17.000Z</time>
      </trkpt>
      <trkpt lat="42.39730783738195896148681640625" lon="0.9575950540602207183837890625">
        <ele>1256.199951171875</ele>
        <time>2020-08-14T06:05:25.000Z</time>
      </trkpt>
      <trkpt lat="42.39728805609047412872314453125" lon="0.95758642069995403289794921875">
        <ele>1256.4000244140625</ele>
        <time>2020-08-14T06:05:26.000Z</time>
      </trkpt>
      <trkpt lat="42.3971573822200298309326171875" lon="0.957527495920658111572265625">
        <ele>1257.199951171875</ele>
        <time>2020-08-14T06:05:33.000Z</time>
      </trkpt>
      <trkpt lat="42.39713986404240131378173828125" lon="0.95751668326556682586669921875">
        <ele>1257.4000244140625</ele>
        <time>2020-08-14T06:05:34.000Z</time>
      </trkpt>
      <trkpt lat="42.39706694148480892181396484375" lon="0.9574877656996250152587890625">
        <ele>1258.4000244140625</ele>
        <time>2020-08-14T06:05:38.000Z</time>
      </trkpt>
      <trkpt lat="42.39702880382537841796875" lon="0.95746907405555248260498046875">
        <ele>1258.5999755859375</ele>
        <time>2020-08-14T06:05:40.000Z</time>
      </trkpt>
      <trkpt lat="42.39689243026077747344970703125" lon="0.9574116580188274383544921875">
        <ele>1259.4000244140625</ele>
        <time>2020-08-14T06:05:47.000Z</time>
      </trkpt>
      <trkpt lat="42.39679612219333648681640625" lon="0.957363881170749664306640625">
        <ele>1260</ele>
        <time>2020-08-14T06:05:52.000Z</time>
      </trkpt>
      <trkpt lat="42.39675630815327167510986328125" lon="0.95734007656574249267578125">
        <ele>1260.5999755859375</ele>
        <time>2020-08-14T06:05:54.000Z</time>
      </trkpt>
      <trkpt lat="42.39661985076963901519775390625" lon="0.9572696685791015625">
        <ele>1261.4000244140625</ele>
        <time>2020-08-14T06:06:01.000Z</time>
      </trkpt>
      <trkpt lat="42.39660040475428104400634765625" lon="0.95725634135305881500244140625">
        <ele>1261.5999755859375</ele>
        <time>2020-08-14T06:06:02.000Z</time>
      </trkpt>
      <trkpt lat="42.39646780304610729217529296875" lon="0.9571717679500579833984375">
        <ele>1262.5999755859375</ele>
        <time>2020-08-14T06:06:09.000Z</time>
      </trkpt>
      <trkpt lat="42.39643109031021595001220703125" lon="0.95714251510798931121826171875">
        <ele>1262.800048828125</ele>
        <time>2020-08-14T06:06:11.000Z</time>
      </trkpt>
      <trkpt lat="42.39635012112557888031005859375" lon="0.9570606239140033721923828125">
        <ele>1263.5999755859375</ele>
        <time>2020-08-14T06:06:16.000Z</time>
      </trkpt>
      <trkpt lat="42.39630854688584804534912109375" lon="0.956997089087963104248046875">
        <ele>1264.199951171875</ele>
        <time>2020-08-14T06:06:19.000Z</time>
      </trkpt>
      <trkpt lat="42.3962442576885223388671875" lon="0.9568976797163486480712890625">
        <ele>1264.5999755859375</ele>
        <time>2020-08-14T06:06:24.000Z</time>
      </trkpt>
      <trkpt lat="42.3962142504751682281494140625" lon="0.95685719512403011322021484375">
        <ele>1265</ele>
        <time>2020-08-14T06:06:26.000Z</time>
      </trkpt>
      <trkpt lat="42.39610503427684307098388671875" lon="0.95674739219248294830322265625">
        <ele>1265.800048828125</ele>
        <time>2020-08-14T06:06:33.000Z</time>
      </trkpt>
      <trkpt lat="42.3960885219275951385498046875" lon="0.95673046074807643890380859375">
        <ele>1266</ele>
        <time>2020-08-14T06:06:34.000Z</time>
      </trkpt>
      <trkpt lat="42.39600311033427715301513671875" lon="0.956670530140399932861328125">
        <ele>1266.800048828125</ele>
        <time>2020-08-14T06:06:39.000Z</time>
      </trkpt>
      <trkpt lat="42.3958687484264373779296875" lon="0.9566183947026729583740234375">
        <ele>1267.5999755859375</ele>
        <time>2020-08-14T06:06:46.000Z</time>
      </trkpt>
      <trkpt lat="42.39584921859204769134521484375" lon="0.956616215407848358154296875">
        <ele>1267.800048828125</ele>
        <time>2020-08-14T06:06:47.000Z</time>
      </trkpt>
      <trkpt lat="42.39575785584747791290283203125" lon="0.95663809217512607574462890625">
        <ele>1268.5999755859375</ele>
        <time>2020-08-14T06:06:52.000Z</time>
      </trkpt>
      <trkpt lat="42.39572064019739627838134765625" lon="0.95665133558213710784912109375">
        <ele>1268.800048828125</ele>
        <time>2020-08-14T06:06:54.000Z</time>
      </trkpt>
      <trkpt lat="42.3955852724611759185791015625" lon="0.95665745437145233154296875">
        <ele>1269.800048828125</ele>
        <time>2020-08-14T06:07:01.000Z</time>
      </trkpt>
      <trkpt lat="42.39556507207453250885009765625" lon="0.95665670000016689300537109375">
        <ele>1270</ele>
        <time>2020-08-14T06:07:02.000Z</time>
      </trkpt>
      <trkpt lat="42.39540698938071727752685546875" lon="0.95659970305860042572021484375">
        <ele>1271</ele>
        <time>2020-08-14T06:07:10.000Z</time>
      </trkpt>
      <trkpt lat="42.39530322141945362091064453125" lon="0.95652091316878795623779296875">
        <ele>1271.800048828125</ele>
        <time>2020-08-14T06:07:16.000Z</time>
      </trkpt>
      <trkpt lat="42.39526885561645030975341796875" lon="0.95648688264191150665283203125">
        <ele>1272.199951171875</ele>
        <time>2020-08-14T06:07:18.000Z</time>
      </trkpt>
      <trkpt lat="42.3951795883476734161376953125" lon="0.95641831867396831512451171875">
        <ele>1273</ele>
        <time>2020-08-14T06:07:23.000Z</time>
      </trkpt>
      <trkpt lat="42.3951450549066066741943359375" lon="0.9563964419066905975341796875">
        <ele>1273</ele>
        <time>2020-08-14T06:07:25.000Z</time>
      </trkpt>
      <trkpt lat="42.3950801789760589599609375" lon="0.9563471563160419464111328125">
        <ele>1273.5999755859375</ele>
        <time>2020-08-14T06:07:29.000Z</time>
      </trkpt>
      <trkpt lat="42.39502586424350738525390625" lon="0.95631237141788005828857421875">
        <ele>1274.199951171875</ele>
        <time>2020-08-14T06:07:32.000Z</time>
      </trkpt>
      <trkpt lat="42.39493072964251041412353515625" lon="0.956254117190837860107421875">
        <ele>1274.800048828125</ele>
        <time>2020-08-14T06:07:37.000Z</time>
      </trkpt>
      <trkpt lat="42.39487373270094394683837890625" lon="0.95622017048299312591552734375">
        <ele>1275.199951171875</ele>
        <time>2020-08-14T06:07:40.000Z</time>
      </trkpt>
      <trkpt lat="42.39481606520712375640869140625" lon="0.95618731342256069183349609375">
        <ele>1275.5999755859375</ele>
        <time>2020-08-14T06:07:43.000Z</time>
      </trkpt>
      <trkpt lat="42.39475672133266925811767578125" lon="0.95617205835878849029541015625">
        <ele>1276.199951171875</ele>
        <time>2020-08-14T06:07:46.000Z</time>
      </trkpt>
      <trkpt lat="42.3946619220077991485595703125" lon="0.95616258680820465087890625">
        <ele>1276.800048828125</ele>
        <time>2020-08-14T06:07:51.000Z</time>
      </trkpt>
      <trkpt lat="42.39464255981147289276123046875" lon="0.9561654366552829742431640625">
        <ele>1277</ele>
        <time>2020-08-14T06:07:52.000Z</time>
      </trkpt>
      <trkpt lat="42.3945834673941135406494140625" lon="0.95615847967565059661865234375">
        <ele>1277.199951171875</ele>
        <time>2020-08-14T06:07:55.000Z</time>
      </trkpt>
      <trkpt lat="42.394524626433849334716796875" lon="0.95615194179117679595947265625">
        <ele>1278</ele>
        <time>2020-08-14T06:07:58.000Z</time>
      </trkpt>
      <trkpt lat="42.39450459368526935577392578125" lon="0.95614875666797161102294921875">
        <ele>1278.199951171875</ele>
        <time>2020-08-14T06:07:59.000Z</time>
      </trkpt>
      <trkpt lat="42.39439680241048336029052734375" lon="0.95607583411037921905517578125">
        <ele>1279</ele>
        <time>2020-08-14T06:08:05.000Z</time>
      </trkpt>
      <trkpt lat="42.39435807801783084869384765625" lon="0.95601883716881275177001953125">
        <ele>1279.4000244140625</ele>
        <time>2020-08-14T06:08:08.000Z</time>
      </trkpt>
      <trkpt lat="42.3943179287016391754150390625" lon="0.9558962099254131317138671875">
        <ele>1280.199951171875</ele>
        <time>2020-08-14T06:08:13.000Z</time>
      </trkpt>
      <trkpt lat="42.3943135701119899749755859375" lon="0.95586980693042278289794921875">
        <ele>1280.4000244140625</ele>
        <time>2020-08-14T06:08:14.000Z</time>
      </trkpt>
      <trkpt lat="42.39429571665823459625244140625" lon="0.9557386301457881927490234375">
        <ele>1281.199951171875</ele>
        <time>2020-08-14T06:08:19.000Z</time>
      </trkpt>
      <trkpt lat="42.39429119043052196502685546875" lon="0.9557134844362735748291015625">
        <ele>1281.4000244140625</ele>
        <time>2020-08-14T06:08:20.000Z</time>
      </trkpt>
      <trkpt lat="42.39427945576608180999755859375" lon="0.955620445311069488525390625">
        <ele>1281.5999755859375</ele>
        <time>2020-08-14T06:08:24.000Z</time>
      </trkpt>
      <trkpt lat="42.39428113214671611785888671875" lon="0.955493040382862091064453125">
        <ele>1282.5999755859375</ele>
        <time>2020-08-14T06:08:29.000Z</time>
      </trkpt>
      <trkpt lat="42.3942808806896209716796875" lon="0.95546646974980831146240234375">
        <ele>1282.800048828125</ele>
        <time>2020-08-14T06:08:30.000Z</time>
      </trkpt>
      <trkpt lat="42.39429286681115627288818359375" lon="0.955330766737461090087890625">
        <ele>1283.800048828125</ele>
        <time>2020-08-14T06:08:35.000Z</time>
      </trkpt>
      <trkpt lat="42.3942978121340274810791015625" lon="0.955245606601238250732421875">
        <ele>1284.4000244140625</ele>
        <time>2020-08-14T06:08:38.000Z</time>
      </trkpt>
      <trkpt lat="42.3943001590669155120849609375" lon="0.9551891125738620758056640625">
        <ele>1284.800048828125</ele>
        <time>2020-08-14T06:08:40.000Z</time>
      </trkpt>
      <trkpt lat="42.394281215965747833251953125" lon="0.95498685725033283233642578125">
        <ele>1285.4000244140625</ele>
        <time>2020-08-14T06:08:47.000Z</time>
      </trkpt>
      <trkpt lat="42.3942649550735950469970703125" lon="0.9549044631421566009521484375">
        <ele>1285.800048828125</ele>
        <time>2020-08-14T06:08:50.000Z</time>
      </trkpt>
      <trkpt lat="42.3942257277667522430419921875" lon="0.95469617284834384918212890625">
        <ele>1286.800048828125</ele>
        <time>2020-08-14T06:08:58.000Z</time>
      </trkpt>
      <trkpt lat="42.39421986043453216552734375" lon="0.95467127859592437744140625">
        <ele>1286.800048828125</ele>
        <time>2020-08-14T06:08:59.000Z</time>
      </trkpt>
      <trkpt lat="42.39419245161116123199462890625" lon="0.95454144291579723358154296875">
        <ele>1288</ele>
        <time>2020-08-14T06:09:04.000Z</time>
      </trkpt>
      <trkpt lat="42.39418105222284793853759765625" lon="0.9544880501925945281982421875">
        <ele>1288.199951171875</ele>
        <time>2020-08-14T06:09:06.000Z</time>
      </trkpt>
      <trkpt lat="42.3941521346569061279296875" lon="0.95432720147073268890380859375">
        <ele>1289.199951171875</ele>
        <time>2020-08-14T06:09:12.000Z</time>
      </trkpt>
      <trkpt lat="42.39414316602051258087158203125" lon="0.95427389256656169891357421875">
        <ele>1289.199951171875</ele>
        <time>2020-08-14T06:09:14.000Z</time>
      </trkpt>
      <trkpt lat="42.394135035574436187744140625" lon="0.9541383571922779083251953125">
        <ele>1290.199951171875</ele>
        <time>2020-08-14T06:09:19.000Z</time>
      </trkpt>
      <trkpt lat="42.39413763396441936492919921875" lon="0.95408345572650432586669921875">
        <ele>1290.4000244140625</ele>
        <time>2020-08-14T06:09:21.000Z</time>
      </trkpt>
      <trkpt lat="42.3941670544445514678955078125" lon="0.953924953937530517578125">
        <ele>1291.199951171875</ele>
        <time>2020-08-14T06:09:27.000Z</time>
      </trkpt>
      <trkpt lat="42.39417401142418384552001953125" lon="0.95389888621866703033447265625">
        <ele>1291.4000244140625</ele>
        <time>2020-08-14T06:09:28.000Z</time>
      </trkpt>
      <trkpt lat="42.3942166753113269805908203125" lon="0.95372177660465240478515625">
        <ele>1292.4000244140625</ele>
        <time>2020-08-14T06:09:35.000Z</time>
      </trkpt>
      <trkpt lat="42.39422765560448169708251953125" lon="0.95366871915757656097412109375">
        <ele>1292.800048828125</ele>
        <time>2020-08-14T06:09:37.000Z</time>
      </trkpt>
      <trkpt lat="42.3942567408084869384765625" lon="0.9535667113959789276123046875">
        <ele>1293.4000244140625</ele>
        <time>2020-08-14T06:09:41.000Z</time>
      </trkpt>
      <trkpt lat="42.39428381435573101043701171875" lon="0.953496806323528289794921875">
        <ele>1293.800048828125</ele>
        <time>2020-08-14T06:09:44.000Z</time>
      </trkpt>
      <trkpt lat="42.39432069472968578338623046875" lon="0.95339949242770671844482421875">
        <ele>1294.4000244140625</ele>
        <time>2020-08-14T06:09:48.000Z</time>
      </trkpt>
      <trkpt lat="42.394379116594791412353515625" lon="0.9532203711569309234619140625">
        <ele>1295.4000244140625</ele>
        <time>2020-08-14T06:09:55.000Z</time>
      </trkpt>
      <trkpt lat="42.39438774995505809783935546875" lon="0.95319447107613086700439453125">
        <ele>1295.5999755859375</ele>
        <time>2020-08-14T06:09:56.000Z</time>
      </trkpt>
      <trkpt lat="42.39445463754236698150634765625" lon="0.952987857162952423095703125">
        <ele>1296.5999755859375</ele>
        <time>2020-08-14T06:10:04.000Z</time>
      </trkpt>
      <trkpt lat="42.3945080302655696868896484375" lon="0.9528049640357494354248046875">
        <ele>1297.800048828125</ele>
        <time>2020-08-14T06:10:11.000Z</time>
      </trkpt>
      <trkpt lat="42.39452504552900791168212890625" lon="0.95275509171187877655029296875">
        <ele>1298.199951171875</ele>
        <time>2020-08-14T06:10:13.000Z</time>
      </trkpt>
      <trkpt lat="42.39455513656139373779296875" lon="0.9526507370173931121826171875">
        <ele>1298.800048828125</ele>
        <time>2020-08-14T06:10:17.000Z</time>
      </trkpt>
      <trkpt lat="42.39459260366857051849365234375" lon="0.95250933431088924407958984375">
        <ele>1299.800048828125</ele>
        <time>2020-08-14T06:10:23.000Z</time>
      </trkpt>
      <trkpt lat="42.3945992253720760345458984375" lon="0.95248938538134098052978515625">
        <ele>1299.800048828125</ele>
        <time>2020-08-14T06:10:24.000Z</time>
      </trkpt>
      <trkpt lat="42.39466108381748199462890625" lon="0.95232836902141571044921875">
        <ele>1300.800048828125</ele>
        <time>2020-08-14T06:10:32.000Z</time>
      </trkpt>
      <trkpt lat="42.3946716450154781341552734375" lon="0.9523064084351062774658203125">
        <ele>1301</ele>
        <time>2020-08-14T06:10:33.000Z</time>
      </trkpt>
      <trkpt lat="42.39471866749227046966552734375" lon="0.9522016346454620361328125">
        <ele>1301.5999755859375</ele>
        <time>2020-08-14T06:10:38.000Z</time>
      </trkpt>
      <trkpt lat="42.39476325921714305877685546875" lon="0.95209124498069286346435546875">
        <ele>1302</ele>
        <time>2020-08-14T06:10:43.000Z</time>
      </trkpt>
      <trkpt lat="42.39479460753500461578369140625" lon="0.95203089527785778045654296875">
        <ele>1302.199951171875</ele>
        <time>2020-08-14T06:10:46.000Z</time>
      </trkpt>
      <trkpt lat="42.39485017955303192138671875" lon="0.95194078981876373291015625">
        <ele>1303</ele>
        <time>2020-08-14T06:10:51.000Z</time>
      </trkpt>
      <trkpt lat="42.39487691782414913177490234375" lon="0.95190525054931640625">
        <ele>1303.4000244140625</ele>
        <time>2020-08-14T06:10:53.000Z</time>
      </trkpt>
      <trkpt lat="42.39491648040711879730224609375" lon="0.95185571350157260894775390625">
        <ele>1304.199951171875</ele>
        <time>2020-08-14T06:10:56.000Z</time>
      </trkpt>
      <trkpt lat="42.39499527029693126678466796875" lon="0.95176099799573421478271484375">
        <ele>1304.5999755859375</ele>
        <time>2020-08-14T06:11:02.000Z</time>
      </trkpt>
      <trkpt lat="42.3950873874127864837646484375" lon="0.95167600549757480621337890625">
        <ele>1305.4000244140625</ele>
        <time>2020-08-14T06:11:08.000Z</time>
      </trkpt>
      <trkpt lat="42.3951349966228008270263671875" lon="0.95164775848388671875">
        <ele>1305.5999755859375</ele>
        <time>2020-08-14T06:11:11.000Z</time>
      </trkpt>
      <trkpt lat="42.39521102048456668853759765625" lon="0.9515959583222866058349609375">
        <ele>1306.5999755859375</ele>
        <time>2020-08-14T06:11:16.000Z</time>
      </trkpt>
      <trkpt lat="42.39522577263414859771728515625" lon="0.95158413983881473541259765625">
        <ele>1306.5999755859375</ele>
        <time>2020-08-14T06:11:17.000Z</time>
      </trkpt>
      <trkpt lat="42.39534546621143817901611328125" lon="0.95145941711962223052978515625">
        <ele>1307.4000244140625</ele>
        <time>2020-08-14T06:11:25.000Z</time>
      </trkpt>
      <trkpt lat="42.395360134541988372802734375" lon="0.9514460898935794830322265625">
        <ele>1307.5999755859375</ele>
        <time>2020-08-14T06:11:26.000Z</time>
      </trkpt>
      <trkpt lat="42.39546281285583972930908203125" lon="0.95134441740810871124267578125">
        <ele>1308.4000244140625</ele>
        <time>2020-08-14T06:11:33.000Z</time>
      </trkpt>
      <trkpt lat="42.39549332298338413238525390625" lon="0.95131742767989635467529296875">
        <ele>1308.5999755859375</ele>
        <time>2020-08-14T06:11:35.000Z</time>
      </trkpt>
      <trkpt lat="42.39556490443646907806396484375" lon="0.95124266110360622406005859375">
        <ele>1309.800048828125</ele>
        <time>2020-08-14T06:11:40.000Z</time>
      </trkpt>
      <trkpt lat="42.3955956660211086273193359375" lon="0.95121282152831554412841796875">
        <ele>1309.800048828125</ele>
        <time>2020-08-14T06:11:42.000Z</time>
      </trkpt>
      <trkpt lat="42.39570287056267261505126953125" lon="0.95107032917439937591552734375">
        <ele>1311</ele>
        <time>2020-08-14T06:11:50.000Z</time>
      </trkpt>
      <trkpt lat="42.39580077119171619415283203125" lon="0.95091643743216991424560546875">
        <ele>1312.199951171875</ele>
        <time>2020-08-14T06:11:58.000Z</time>
      </trkpt>
      <trkpt lat="42.395821474492549896240234375" lon="0.95087402500212192535400390625">
        <ele>1312.199951171875</ele>
        <time>2020-08-14T06:12:00.000Z</time>
      </trkpt>
      <trkpt lat="42.3959051258862018585205078125" lon="0.95074863173067569732666015625">
        <ele>1313.199951171875</ele>
        <time>2020-08-14T06:12:07.000Z</time>
      </trkpt>
      <trkpt lat="42.3959155194461345672607421875" lon="0.95072885043919086456298828125">
        <ele>1313.4000244140625</ele>
        <time>2020-08-14T06:12:08.000Z</time>
      </trkpt>
      <trkpt lat="42.39600763656198978424072265625" lon="0.9505681693553924560546875">
        <ele>1314.4000244140625</ele>
        <time>2020-08-14T06:12:16.000Z</time>
      </trkpt>
      <trkpt lat="42.3960218019783496856689453125" lon="0.95055098645389080047607421875">
        <ele>1314.5999755859375</ele>
        <time>2020-08-14T06:12:17.000Z</time>
      </trkpt>
      <trkpt lat="42.39611685276031494140625" lon="0.9503980167210102081298828125">
        <ele>1315.5999755859375</ele>
        <time>2020-08-14T06:12:25.000Z</time>
      </trkpt>
      <trkpt lat="42.3961334489285945892333984375" lon="0.95035501755774021148681640625">
        <ele>1316.199951171875</ele>
        <time>2020-08-14T06:12:27.000Z</time>
      </trkpt>
      <trkpt lat="42.3961743526160717010498046875" lon="0.95022425986826419830322265625">
        <ele>1316.800048828125</ele>
        <time>2020-08-14T06:12:33.000Z</time>
      </trkpt>
      <trkpt lat="42.396181561052799224853515625" lon="0.9501787461340427398681640625">
        <ele>1317</ele>
        <time>2020-08-14T06:12:35.000Z</time>
      </trkpt>
      <trkpt lat="42.39617929793894290924072265625" lon="0.9500613994896411895751953125">
        <ele>1317.800048828125</ele>
        <time>2020-08-14T06:12:40.000Z</time>
      </trkpt>
      <trkpt lat="42.39617778919637203216552734375" lon="0.95003700815141201019287109375">
        <ele>1318</ele>
        <time>2020-08-14T06:12:41.000Z</time>
      </trkpt>
      <trkpt lat="42.3961673118174076080322265625" lon="0.9499242715537548065185546875">
        <ele>1318.800048828125</ele>
        <time>2020-08-14T06:12:46.000Z</time>
      </trkpt>
      <trkpt lat="42.39616840146481990814208984375" lon="0.94988345168530941009521484375">
        <ele>1319</ele>
        <time>2020-08-14T06:12:48.000Z</time>
      </trkpt>
      <trkpt lat="42.396171502768993377685546875" lon="0.949776582419872283935546875">
        <ele>1319.4000244140625</ele>
        <time>2020-08-14T06:12:53.000Z</time>
      </trkpt>
      <trkpt lat="42.396180219948291778564453125" lon="0.94970860518515110015869140625">
        <ele>1319.800048828125</ele>
        <time>2020-08-14T06:12:56.000Z</time>
      </trkpt>
      <trkpt lat="42.39619656465947628021240234375" lon="0.94955672509968280792236328125">
        <ele>1320.5999755859375</ele>
        <time>2020-08-14T06:13:03.000Z</time>
      </trkpt>
      <trkpt lat="42.39620595239102840423583984375" lon="0.94950827769935131072998046875">
        <ele>1321</ele>
        <time>2020-08-14T06:13:05.000Z</time>
      </trkpt>
      <trkpt lat="42.39623763598501682281494140625" lon="0.9494226984679698944091796875">
        <ele>1322</ele>
        <time>2020-08-14T06:13:09.000Z</time>
      </trkpt>
      <trkpt lat="42.39624668844044208526611328125" lon="0.94940342009067535400390625">
        <ele>1322.199951171875</ele>
        <time>2020-08-14T06:13:10.000Z</time>
      </trkpt>
      <trkpt lat="42.39635330624878406524658203125" lon="0.94922781921923160552978515625">
        <ele>1323</ele>
        <time>2020-08-14T06:13:19.000Z</time>
      </trkpt>
      <trkpt lat="42.39636688493192195892333984375" lon="0.94920887611806392669677734375">
        <ele>1323.199951171875</ele>
        <time>2020-08-14T06:13:20.000Z</time>
      </trkpt>
      <trkpt lat="42.39643058739602565765380859375" lon="0.9491162560880184173583984375">
        <ele>1324.199951171875</ele>
        <time>2020-08-14T06:13:25.000Z</time>
      </trkpt>
      <trkpt lat="42.39643938839435577392578125" lon="0.94909488223493099212646484375">
        <ele>1324.4000244140625</ele>
        <time>2020-08-14T06:13:26.000Z</time>
      </trkpt>
      <trkpt lat="42.396486662328243255615234375" lon="0.94897284172475337982177734375">
        <ele>1325.4000244140625</ele>
        <time>2020-08-14T06:13:32.000Z</time>
      </trkpt>
      <trkpt lat="42.39649646915495395660400390625" lon="0.94890461303293704986572265625">
        <ele>1325.5999755859375</ele>
        <time>2020-08-14T06:13:35.000Z</time>
      </trkpt>
      <trkpt lat="42.39649311639368534088134765625" lon="0.94871543347835540771484375">
        <ele>1326.4000244140625</ele>
        <time>2020-08-14T06:13:42.000Z</time>
      </trkpt>
      <trkpt lat="42.3964885063469409942626953125" lon="0.948662124574184417724609375">
        <ele>1326.800048828125</ele>
        <time>2020-08-14T06:13:44.000Z</time>
      </trkpt>
      <trkpt lat="42.39647484384477138519287109375" lon="0.9485415928065776824951171875">
        <ele>1327.4000244140625</ele>
        <time>2020-08-14T06:13:48.000Z</time>
      </trkpt>
      <trkpt lat="42.39646746776998043060302734375" lon="0.948447883129119873046875">
        <ele>1327.800048828125</ele>
        <time>2020-08-14T06:13:51.000Z</time>
      </trkpt>
      <trkpt lat="42.39644517190754413604736328125" lon="0.94825903885066509246826171875">
        <ele>1328.5999755859375</ele>
        <time>2020-08-14T06:13:57.000Z</time>
      </trkpt>
      <trkpt lat="42.39643276669085025787353515625" lon="0.948174633085727691650390625">
        <ele>1329</ele>
        <time>2020-08-14T06:14:00.000Z</time>
      </trkpt>
      <trkpt lat="42.3964090459048748016357421875" lon="0.9480266086757183074951171875">
        <ele>1329.5999755859375</ele>
        <time>2020-08-14T06:14:06.000Z</time>
      </trkpt>
      <trkpt lat="42.39640560932457447052001953125" lon="0.94800003804266452789306640625">
        <ele>1329.800048828125</ele>
        <time>2020-08-14T06:14:07.000Z</time>
      </trkpt>
      <trkpt lat="42.39638582803308963775634765625" lon="0.9478733874857425689697265625">
        <ele>1330.5999755859375</ele>
        <time>2020-08-14T06:14:12.000Z</time>
      </trkpt>
      <trkpt lat="42.3963731713593006134033203125" lon="0.947797112166881561279296875">
        <ele>1331</ele>
        <time>2020-08-14T06:14:15.000Z</time>
      </trkpt>
      <trkpt lat="42.39636017940938472747802734375" lon="0.94768906943500041961669921875">
        <ele>1332</ele>
        <time>2020-08-14T06:14:19.000Z</time>
      </trkpt>
      <trkpt lat="42.39636001177132129669189453125" lon="0.94766124151647090911865234375">
        <ele>1332.199951171875</ele>
        <time>2020-08-14T06:14:20.000Z</time>
      </trkpt>
      <trkpt lat="42.396388091146945953369140625" lon="0.94751187600195407867431640625">
        <ele>1333</ele>
        <time>2020-08-14T06:14:26.000Z</time>
      </trkpt>
      <trkpt lat="42.3964066989719867706298828125" lon="0.94746409915387630462646484375">
        <ele>1333.199951171875</ele>
        <time>2020-08-14T06:14:28.000Z</time>
      </trkpt>
      <trkpt lat="42.39645925350487232208251953125" lon="0.9473681263625621795654296875">
        <ele>1334</ele>
        <time>2020-08-14T06:14:33.000Z</time>
      </trkpt>
      <trkpt lat="42.39649236202239990234375" lon="0.9473154880106449127197265625">
        <ele>1334.199951171875</ele>
        <time>2020-08-14T06:14:36.000Z</time>
      </trkpt>
      <trkpt lat="42.396532595157623291015625" lon="0.9472658671438694000244140625">
        <ele>1334.800048828125</ele>
        <time>2020-08-14T06:14:39.000Z</time>
      </trkpt>
      <trkpt lat="42.39659185521304607391357421875" lon="0.94718749634921550750732421875">
        <ele>1335.4000244140625</ele>
        <time>2020-08-14T06:14:43.000Z</time>
      </trkpt>
      <trkpt lat="42.39661046303808689117431640625" lon="0.94717140309512615203857421875">
        <ele>1335.5999755859375</ele>
        <time>2020-08-14T06:14:44.000Z</time>
      </trkpt>
      <trkpt lat="42.39673954434692859649658203125" lon="0.94703234732151031494140625">
        <ele>1336.4000244140625</ele>
        <time>2020-08-14T06:14:52.000Z</time>
      </trkpt>
      <trkpt lat="42.39675580523908138275146484375" lon="0.9470123983919620513916015625">
        <ele>1336.4000244140625</ele>
        <time>2020-08-14T06:14:53.000Z</time>
      </trkpt>
      <trkpt lat="42.3968868143856525421142578125" lon="0.946919359266757965087890625">
        <ele>1337</ele>
        <time>2020-08-14T06:15:00.000Z</time>
      </trkpt>
      <trkpt lat="42.39699552766978740692138671875" lon="0.94684635289013385772705078125">
        <ele>1337.4000244140625</ele>
        <time>2020-08-14T06:15:06.000Z</time>
      </trkpt>
      <trkpt lat="42.39701363258063793182373046875" lon="0.94683595933020114898681640625">
        <ele>1337.5999755859375</ele>
        <time>2020-08-14T06:15:07.000Z</time>
      </trkpt>
      <trkpt lat="42.39710231311619281768798828125" lon="0.94676814973354339599609375">
        <ele>1338</ele>
        <time>2020-08-14T06:15:12.000Z</time>
      </trkpt>
      <trkpt lat="42.39715729840099811553955078125" lon="0.9467378072440624237060546875">
        <ele>1338.4000244140625</ele>
        <time>2020-08-14T06:15:15.000Z</time>
      </trkpt>
      <trkpt lat="42.3972546122968196868896484375" lon="0.94668793492019176483154296875">
        <ele>1339.199951171875</ele>
        <time>2020-08-14T06:15:20.000Z</time>
      </trkpt>
      <trkpt lat="42.39731102250516414642333984375" lon="0.946659855544567108154296875">
        <ele>1339.800048828125</ele>
        <time>2020-08-14T06:15:23.000Z</time>
      </trkpt>
      <trkpt lat="42.39743742160499095916748046875" lon="0.946590788662433624267578125">
        <ele>1340.800048828125</ele>
        <time>2020-08-14T06:15:30.000Z</time>
      </trkpt>
      <trkpt lat="42.3974544368684291839599609375" lon="0.946578048169612884521484375">
        <ele>1340.800048828125</ele>
        <time>2020-08-14T06:15:31.000Z</time>
      </trkpt>
      <trkpt lat="42.3975717835128307342529296875" lon="0.94649531878530979156494140625">
        <ele>1341.800048828125</ele>
        <time>2020-08-14T06:15:38.000Z</time>
      </trkpt>
      <trkpt lat="42.39768971689045429229736328125" lon="0.94641200266778469085693359375">
        <ele>1343</ele>
        <time>2020-08-14T06:15:45.000Z</time>
      </trkpt>
      <trkpt lat="42.39777504466474056243896484375" lon="0.946370847523212432861328125">
        <ele>1344</ele>
        <time>2020-08-14T06:15:50.000Z</time>
      </trkpt>
      <trkpt lat="42.39779524505138397216796875" lon="0.946358777582645416259765625">
        <ele>1344.199951171875</ele>
        <time>2020-08-14T06:15:51.000Z</time>
      </trkpt>
      <trkpt lat="42.3978862725198268890380859375" lon="0.94627018086612224578857421875">
        <ele>1344.5999755859375</ele>
        <time>2020-08-14T06:15:57.000Z</time>
      </trkpt>
      <trkpt lat="42.39796330220997333526611328125" lon="0.94618317671120166778564453125">
        <ele>1345.199951171875</ele>
        <time>2020-08-14T06:16:02.000Z</time>
      </trkpt>
      <trkpt lat="42.39799599163234233856201171875" lon="0.94615903683006763458251953125">
        <ele>1346</ele>
        <time>2020-08-14T06:16:04.000Z</time>
      </trkpt>
      <trkpt lat="42.39808467216789722442626953125" lon="0.94607555307447910308837890625">
        <ele>1346.5999755859375</ele>
        <time>2020-08-14T06:16:10.000Z</time>
      </trkpt>
      <trkpt lat="42.39810026250779628753662109375" lon="0.946065075695514678955078125">
        <ele>1346.5999755859375</ele>
        <time>2020-08-14T06:16:11.000Z</time>
      </trkpt>
      <trkpt lat="42.39814904518425464630126953125" lon="0.94602249562740325927734375">
        <ele>1347</ele>
        <time>2020-08-14T06:16:14.000Z</time>
      </trkpt>
      <trkpt lat="42.398183830082416534423828125" lon="0.9459914825856685638427734375">
        <ele>1347.4000244140625</ele>
        <time>2020-08-14T06:16:16.000Z</time>
      </trkpt>
      <trkpt lat="42.398217022418975830078125" lon="0.94595946371555328369140625">
        <ele>1347.5999755859375</ele>
        <time>2020-08-14T06:16:18.000Z</time>
      </trkpt>
      <trkpt lat="42.39823353476822376251220703125" lon="0.9459435380995273590087890625">
        <ele>1348</ele>
        <time>2020-08-14T06:16:19.000Z</time>
      </trkpt>
      <trkpt lat="42.39827938377857208251953125" lon="0.94588964246213436126708984375">
        <ele>1348.4000244140625</ele>
        <time>2020-08-14T06:16:22.000Z</time>
      </trkpt>
      <trkpt lat="42.3983122408390045166015625" lon="0.94585712067782878875732421875">
        <ele>1348.5999755859375</ele>
        <time>2020-08-14T06:16:24.000Z</time>
      </trkpt>
      <trkpt lat="42.3984119854867458343505859375" lon="0.9457661770284175872802734375">
        <ele>1349.5999755859375</ele>
        <time>2020-08-14T06:16:30.000Z</time>
      </trkpt>
      <trkpt lat="42.398425899446010589599609375" lon="0.945751257240772247314453125">
        <ele>1349.5999755859375</ele>
        <time>2020-08-14T06:16:31.000Z</time>
      </trkpt>
      <trkpt lat="42.398520447313785552978515625" lon="0.94566048122942447662353515625">
        <ele>1350.199951171875</ele>
        <time>2020-08-14T06:16:37.000Z</time>
      </trkpt>
      <trkpt lat="42.3985987342894077301025390625" lon="0.9455847926437854766845703125">
        <ele>1351</ele>
        <time>2020-08-14T06:16:42.000Z</time>
      </trkpt>
      <trkpt lat="42.3986510373651981353759765625" lon="0.94554916955530643463134765625">
        <ele>1351.4000244140625</ele>
        <time>2020-08-14T06:16:45.000Z</time>
      </trkpt>
      <trkpt lat="42.39874851889908313751220703125" lon="0.94551832415163516998291015625">
        <ele>1352</ele>
        <time>2020-08-14T06:16:50.000Z</time>
      </trkpt>
      <trkpt lat="42.3987891711294651031494140625" lon="0.945513211190700531005859375">
        <ele>1352.199951171875</ele>
        <time>2020-08-14T06:16:52.000Z</time>
      </trkpt>
      <trkpt lat="42.39882244728505611419677734375" lon="0.94550591893494129180908203125">
        <ele>1352.4000244140625</ele>
        <time>2020-08-14T06:16:54.000Z</time>
      </trkpt>
      <trkpt lat="42.39887676201760768890380859375" lon="0.94549946486949920654296875">
        <ele>1352.800048828125</ele>
        <time>2020-08-14T06:16:57.000Z</time>
      </trkpt>
      <trkpt lat="42.39893593825399875640869140625" lon="0.945481359958648681640625">
        <ele>1353.199951171875</ele>
        <time>2020-08-14T06:17:00.000Z</time>
      </trkpt>
      <trkpt lat="42.3989876545965671539306640625" lon="0.945456884801387786865234375">
        <ele>1353.5999755859375</ele>
        <time>2020-08-14T06:17:03.000Z</time>
      </trkpt>
      <trkpt lat="42.39902378059923648834228515625" lon="0.94540801830589771270751953125">
        <ele>1354</ele>
        <time>2020-08-14T06:17:06.000Z</time>
      </trkpt>
      <trkpt lat="42.39903182722628116607666015625" lon="0.94538220204412937164306640625">
        <ele>1354.199951171875</ele>
        <time>2020-08-14T06:17:07.000Z</time>
      </trkpt>
      <trkpt lat="42.39903853274881839752197265625" lon="0.9453512728214263916015625">
        <ele>1354.4000244140625</ele>
        <time>2020-08-14T06:17:08.000Z</time>
      </trkpt>
      <trkpt lat="42.39902637898921966552734375" lon="0.94522076658904552459716796875">
        <ele>1354.800048828125</ele>
        <time>2020-08-14T06:17:13.000Z</time>
      </trkpt>
      <trkpt lat="42.3990117944777011871337890625" lon="0.945143736898899078369140625">
        <ele>1355.199951171875</ele>
        <time>2020-08-14T06:17:16.000Z</time>
      </trkpt>
      <trkpt lat="42.399006597697734832763671875" lon="0.9451147355139255523681640625">
        <ele>1355.4000244140625</ele>
        <time>2020-08-14T06:17:17.000Z</time>
      </trkpt>
      <trkpt lat="42.39897072315216064453125" lon="0.9449883364140987396240234375">
        <ele>1356.199951171875</ele>
        <time>2020-08-14T06:17:22.000Z</time>
      </trkpt>
      <trkpt lat="42.398930825293064117431640625" lon="0.94487308524549007415771484375">
        <ele>1356.800048828125</ele>
        <time>2020-08-14T06:17:27.000Z</time>
      </trkpt>
      <trkpt lat="42.39891045726835727691650390625" lon="0.944784320890903472900390625">
        <ele>1357.5999755859375</ele>
        <time>2020-08-14T06:17:31.000Z</time>
      </trkpt>
      <trkpt lat="42.3989065177738666534423828125" lon="0.94476479105651378631591796875">
        <ele>1357.800048828125</ele>
        <time>2020-08-14T06:17:32.000Z</time>
      </trkpt>
      <trkpt lat="42.3988625966012477874755859375" lon="0.944561697542667388916015625">
        <ele>1358.5999755859375</ele>
        <time>2020-08-14T06:17:39.000Z</time>
      </trkpt>
      <trkpt lat="42.39878674037754535675048828125" lon="0.94442498870193958282470703125">
        <ele>1359</ele>
        <time>2020-08-14T06:17:45.000Z</time>
      </trkpt>
      <trkpt lat="42.39874717779457569122314453125" lon="0.9443784691393375396728515625">
        <ele>1359.4000244140625</ele>
        <time>2020-08-14T06:17:48.000Z</time>
      </trkpt>
      <trkpt lat="42.398714907467365264892578125" lon="0.94436086714267730712890625">
        <ele>1359.5999755859375</ele>
        <time>2020-08-14T06:17:50.000Z</time>
      </trkpt>
      <trkpt lat="42.39869655109941959381103515625" lon="0.9443516470491886138916015625">
        <ele>1359.800048828125</ele>
        <time>2020-08-14T06:17:51.000Z</time>
      </trkpt>
      <trkpt lat="42.3985484428703784942626953125" lon="0.94427092932164669036865234375">
        <ele>1360.5999755859375</ele>
        <time>2020-08-14T06:17:59.000Z</time>
      </trkpt>
      <trkpt lat="42.3985139094293117523193359375" lon="0.94425098039209842681884765625">
        <ele>1360.800048828125</ele>
        <time>2020-08-14T06:18:01.000Z</time>
      </trkpt>
      <trkpt lat="42.39843671210110187530517578125" lon="0.94418090768158435821533203125">
        <ele>1361.5999755859375</ele>
        <time>2020-08-14T06:18:06.000Z</time>
      </trkpt>
      <trkpt lat="42.398402430117130279541015625" lon="0.944086275994777679443359375">
        <ele>1361.800048828125</ele>
        <time>2020-08-14T06:18:10.000Z</time>
      </trkpt>
      <trkpt lat="42.39835850894451141357421875" lon="0.9440021216869354248046875">
        <ele>1362.5999755859375</ele>
        <time>2020-08-14T06:18:14.000Z</time>
      </trkpt>
      <trkpt lat="42.3983352072536945343017578125" lon="0.9439305402338504791259765625">
        <ele>1363</ele>
        <time>2020-08-14T06:18:17.000Z</time>
      </trkpt>
      <trkpt lat="42.39829371683299541473388671875" lon="0.9438141994178295135498046875">
        <ele>1363.800048828125</ele>
        <time>2020-08-14T06:18:22.000Z</time>
      </trkpt>
      <trkpt lat="42.39828650839626789093017578125" lon="0.9437900595366954803466796875">
        <ele>1364</ele>
        <time>2020-08-14T06:18:23.000Z</time>
      </trkpt>
      <trkpt lat="42.3982527293264865875244140625" lon="0.943663157522678375244140625">
        <ele>1365.199951171875</ele>
        <time>2020-08-14T06:18:29.000Z</time>
      </trkpt>
      <trkpt lat="42.39825080148875713348388671875" lon="0.943531058728694915771484375">
        <ele>1366.199951171875</ele>
        <time>2020-08-14T06:18:36.000Z</time>
      </trkpt>
      <trkpt lat="42.398275025188922882080078125" lon="0.94336719252169132232666015625">
        <ele>1367.4000244140625</ele>
        <time>2020-08-14T06:18:43.000Z</time>
      </trkpt>
      <trkpt lat="42.3983120732009410858154296875" lon="0.94327834434807300567626953125">
        <ele>1368.199951171875</ele>
        <time>2020-08-14T06:18:48.000Z</time>
      </trkpt>
      <trkpt lat="42.39832640625536441802978515625" lon="0.9432482533156871795654296875">
        <ele>1368.5999755859375</ele>
        <time>2020-08-14T06:18:50.000Z</time>
      </trkpt>
      <trkpt lat="42.39836513064801692962646484375" lon="0.9431630931794643402099609375">
        <ele>1369.800048828125</ele>
        <time>2020-08-14T06:18:55.000Z</time>
      </trkpt>
      <trkpt lat="42.39840469323098659515380859375" lon="0.94308338128030300140380859375">
        <ele>1370.800048828125</ele>
        <time>2020-08-14T06:19:00.000Z</time>
      </trkpt>
      <trkpt lat="42.39842782728374004364013671875" lon="0.943036861717700958251953125">
        <ele>1371</ele>
        <time>2020-08-14T06:19:03.000Z</time>
      </trkpt>
      <trkpt lat="42.39848599769175052642822265625" lon="0.94294843263924121856689453125">
        <ele>1371.5999755859375</ele>
        <time>2020-08-14T06:19:09.000Z</time>
      </trkpt>
      <trkpt lat="42.39850393496453762054443359375" lon="0.9429210238158702850341796875">
        <ele>1371.800048828125</ele>
        <time>2020-08-14T06:19:12.000Z</time>
      </trkpt>
      <trkpt lat="42.398504354059696197509765625" lon="0.94291188754141330718994140625">
        <ele>1372</ele>
        <time>2020-08-14T06:19:14.000Z</time>
      </trkpt>
      <trkpt lat="42.39850494079291820526123046875" lon="0.94290912151336669921875">
        <ele>1372.4000244140625</ele>
        <time>2020-08-14T06:19:30.000Z</time>
      </trkpt>
      <trkpt lat="42.39849806763231754302978515625" lon="0.9429082833230495452880859375">
        <ele>1372.5999755859375</ele>
        <time>2020-08-14T06:19:42.000Z</time>
      </trkpt>
      <trkpt lat="42.3985008336603641510009765625" lon="0.94291289336979389190673828125">
        <ele>1372.5999755859375</ele>
        <time>2020-08-14T06:19:54.000Z</time>
      </trkpt>
      <trkpt lat="42.39850871264934539794921875" lon="0.94291490502655506134033203125">
        <ele>1372.4000244140625</ele>
        <time>2020-08-14T06:20:15.000Z</time>
      </trkpt>
      <trkpt lat="42.39850695244967937469482421875" lon="0.9429190121591091156005859375">
        <ele>1372.199951171875</ele>
        <time>2020-08-14T06:20:26.000Z</time>
      </trkpt>
      <trkpt lat="42.39850494079291820526123046875" lon="0.9429237060248851776123046875">
        <ele>1372.4000244140625</ele>
        <time>2020-08-14T06:20:42.000Z</time>
      </trkpt>
      <trkpt lat="42.39851768128573894500732421875" lon="0.94291658140718936920166015625">
        <ele>1372.4000244140625</ele>
        <time>2020-08-14T06:21:06.000Z</time>
      </trkpt>
      <trkpt lat="42.3985192738473415374755859375" lon="0.94289302825927734375">
        <ele>1372.800048828125</ele>
        <time>2020-08-14T06:21:13.000Z</time>
      </trkpt>
      <trkpt lat="42.398523800075054168701171875" lon="0.94287400133907794952392578125">
        <ele>1373.199951171875</ele>
        <time>2020-08-14T06:21:17.000Z</time>
      </trkpt>
      <trkpt lat="42.398529835045337677001953125" lon="0.9428693912923336029052734375">
        <ele>1373.4000244140625</ele>
        <time>2020-08-14T06:21:23.000Z</time>
      </trkpt>
      <trkpt lat="42.39853779785335063934326171875" lon="0.9428677149116992950439453125">
        <ele>1373.4000244140625</ele>
        <time>2020-08-14T06:21:38.000Z</time>
      </trkpt>
      <trkpt lat="42.3985402286052703857421875" lon="0.94287316314876079559326171875">
        <ele>1373.4000244140625</ele>
        <time>2020-08-14T06:21:51.000Z</time>
      </trkpt>
      <trkpt lat="42.39853243343532085418701171875" lon="0.94283309765160083770751953125">
        <ele>1373.4000244140625</ele>
        <time>2020-08-14T06:22:01.000Z</time>
      </trkpt>
      <trkpt lat="42.3985038511455059051513671875" lon="0.9426933713257312774658203125">
        <ele>1373</ele>
        <time>2020-08-14T06:22:06.000Z</time>
      </trkpt>
      <trkpt lat="42.39850527606904506683349609375" lon="0.94256102107465267181396484375">
        <ele>1372.5999755859375</ele>
        <time>2020-08-14T06:22:11.000Z</time>
      </trkpt>
      <trkpt lat="42.398561351001262664794921875" lon="0.94241735525429248809814453125">
        <ele>1373.5999755859375</ele>
        <time>2020-08-14T06:22:19.000Z</time>
      </trkpt>
      <trkpt lat="42.3985896818339824676513671875" lon="0.94229799695312976837158203125">
        <ele>1374.4000244140625</ele>
        <time>2020-08-14T06:22:25.000Z</time>
      </trkpt>
      <trkpt lat="42.39860317669808864593505859375" lon="0.94223345629870891571044921875">
        <ele>1374.800048828125</ele>
        <time>2020-08-14T06:22:28.000Z</time>
      </trkpt>
      <trkpt lat="42.39863821305334568023681640625" lon="0.94206632114946842193603515625">
        <ele>1375.199951171875</ele>
        <time>2020-08-14T06:22:36.000Z</time>
      </trkpt>
      <trkpt lat="42.39864240400493144989013671875" lon="0.94204486347734928131103515625">
        <ele>1375.4000244140625</ele>
        <time>2020-08-14T06:22:37.000Z</time>
      </trkpt>
      <trkpt lat="42.39866989664733409881591796875" lon="0.941928438842296600341796875">
        <ele>1375.800048828125</ele>
        <time>2020-08-14T06:22:43.000Z</time>
      </trkpt>
      <trkpt lat="42.3986919410526752471923828125" lon="0.9418514929711818695068359375">
        <ele>1376.5999755859375</ele>
        <time>2020-08-14T06:22:47.000Z</time>
      </trkpt>
      <trkpt lat="42.39870912395417690277099609375" lon="0.9417663328349590301513671875">
        <ele>1377.199951171875</ele>
        <time>2020-08-14T06:22:51.000Z</time>
      </trkpt>
      <trkpt lat="42.398733012378215789794921875" lon="0.94165594317018985748291015625">
        <ele>1377.800048828125</ele>
        <time>2020-08-14T06:22:56.000Z</time>
      </trkpt>
      <trkpt lat="42.39874080754816532135009765625" lon="0.94161093235015869140625">
        <ele>1378</ele>
        <time>2020-08-14T06:22:58.000Z</time>
      </trkpt>
      <trkpt lat="42.398797385394573211669921875" lon="0.94147489406168460845947265625">
        <ele>1378.800048828125</ele>
        <time>2020-08-14T06:23:05.000Z</time>
      </trkpt>
      <trkpt lat="42.3988049291074275970458984375" lon="0.9414540231227874755859375">
        <ele>1379</ele>
        <time>2020-08-14T06:23:06.000Z</time>
      </trkpt>
      <trkpt lat="42.39884507842361927032470703125" lon="0.9413609839975833892822265625">
        <ele>1380</ele>
        <time>2020-08-14T06:23:11.000Z</time>
      </trkpt>
      <trkpt lat="42.39887173287570476531982421875" lon="0.94128437340259552001953125">
        <ele>1380.5999755859375</ele>
        <time>2020-08-14T06:23:15.000Z</time>
      </trkpt>
      <trkpt lat="42.3988974653184413909912109375" lon="0.941208265721797943115234375">
        <ele>1381</ele>
        <time>2020-08-14T06:23:19.000Z</time>
      </trkpt>
      <trkpt lat="42.398936189711093902587890625" lon="0.94111866317689418792724609375">
        <ele>1381.800048828125</ele>
        <time>2020-08-14T06:23:24.000Z</time>
      </trkpt>
      <trkpt lat="42.3989433981478214263916015625" lon="0.94109930098056793212890625">
        <ele>1382.199951171875</ele>
        <time>2020-08-14T06:23:25.000Z</time>
      </trkpt>
      <trkpt lat="42.39898086525499820709228515625" lon="0.94099528156220912933349609375">
        <ele>1382.800048828125</ele>
        <time>2020-08-14T06:23:31.000Z</time>
      </trkpt>
      <trkpt lat="42.39898555912077426910400390625" lon="0.94096309505403041839599609375">
        <ele>1383</ele>
        <time>2020-08-14T06:23:33.000Z</time>
      </trkpt>
      <trkpt lat="42.398966364562511444091796875" lon="0.9409080259501934051513671875">
        <ele>1383</ele>
        <time>2020-08-14T06:23:36.000Z</time>
      </trkpt>
      <trkpt lat="42.3989008180797100067138671875" lon="0.94076259993016719818115234375">
        <ele>1381.199951171875</ele>
        <time>2020-08-14T06:23:42.000Z</time>
      </trkpt>
      <trkpt lat="42.39888598211109638214111328125" lon="0.94074390828609466552734375">
        <ele>1380.5999755859375</ele>
        <time>2020-08-14T06:23:43.000Z</time>
      </trkpt>
      <trkpt lat="42.3988418094813823699951171875" lon="0.9407041780650615692138671875">
        <ele>1379.4000244140625</ele>
        <time>2020-08-14T06:23:46.000Z</time>
      </trkpt>
      <trkpt lat="42.3988133110105991363525390625" lon="0.94067760743200778961181640625">
        <ele>1379</ele>
        <time>2020-08-14T06:23:48.000Z</time>
      </trkpt>
      <trkpt lat="42.39878087304532527923583984375" lon="0.9406337700784206390380859375">
        <ele>1378</ele>
        <time>2020-08-14T06:23:50.000Z</time>
      </trkpt>
      <trkpt lat="42.39874734543263912200927734375" lon="0.94056830741465091705322265625">
        <ele>1377</ele>
        <time>2020-08-14T06:23:52.000Z</time>
      </trkpt>
      <trkpt lat="42.39872152917087078094482421875" lon="0.94053075648844242095947265625">
        <ele>1376.5999755859375</ele>
        <time>2020-08-14T06:23:53.000Z</time>
      </trkpt>
      <trkpt lat="42.39866788499057292938232421875" lon="0.94046437181532382965087890625">
        <ele>1375.800048828125</ele>
        <time>2020-08-14T06:23:55.000Z</time>
      </trkpt>
      <trkpt lat="42.39859881810843944549560546875" lon="0.9403682313859462738037109375">
        <ele>1376.199951171875</ele>
        <time>2020-08-14T06:23:59.000Z</time>
      </trkpt>
      <trkpt lat="42.39852891303598880767822265625" lon="0.940260775387287139892578125">
        <ele>1375.199951171875</ele>
        <time>2020-08-14T06:24:06.000Z</time>
      </trkpt>
      <trkpt lat="42.3984884284436702728271484375" lon="0.94016497023403644561767578125">
        <ele>1374.5999755859375</ele>
        <time>2020-08-14T06:24:10.000Z</time>
      </trkpt>
      <trkpt lat="42.39847644232213497161865234375" lon="0.94011886976659297943115234375">
        <ele>1374.4000244140625</ele>
        <time>2020-08-14T06:24:11.000Z</time>
      </trkpt>
      <trkpt lat="42.3984522186219692230224609375" lon="0.93999154865741729736328125">
        <ele>1373.800048828125</ele>
        <time>2020-08-14T06:24:15.000Z</time>
      </trkpt>
      <trkpt lat="42.39844894967973232269287109375" lon="0.93993388116359710693359375">
        <ele>1374.4000244140625</ele>
        <time>2020-08-14T06:24:18.000Z</time>
      </trkpt>
      <trkpt lat="42.39847459830343723297119140625" lon="0.9398827515542507171630859375">
        <ele>1374.800048828125</ele>
        <time>2020-08-14T06:24:21.000Z</time>
      </trkpt>
      <trkpt lat="42.39853360690176486968994140625" lon="0.93982835300266742706298828125">
        <ele>1375</ele>
        <time>2020-08-14T06:24:26.000Z</time>
      </trkpt>
      <trkpt lat="42.39854467101395130157470703125" lon="0.939816199243068695068359375">
        <ele>1375</ele>
        <time>2020-08-14T06:24:27.000Z</time>
      </trkpt>
      <trkpt lat="42.39861591719090938568115234375" lon="0.93970446847379207611083984375">
        <ele>1375.4000244140625</ele>
        <time>2020-08-14T06:24:34.000Z</time>
      </trkpt>
      <trkpt lat="42.3986460082232952117919921875" lon="0.93967395834624767303466796875">
        <ele>1375.800048828125</ele>
        <time>2020-08-14T06:24:37.000Z</time>
      </trkpt>
      <trkpt lat="42.39867442287504673004150390625" lon="0.939663313329219818115234375">
        <ele>1375.800048828125</ele>
        <time>2020-08-14T06:24:39.000Z</time>
      </trkpt>
      <trkpt lat="42.39873728714883327484130859375" lon="0.93963682651519775390625">
        <ele>1376.199951171875</ele>
        <time>2020-08-14T06:24:43.000Z</time>
      </trkpt>
      <trkpt lat="42.39878171123564243316650390625" lon="0.93961327336728572845458984375">
        <ele>1376.5999755859375</ele>
        <time>2020-08-14T06:24:46.000Z</time>
      </trkpt>
      <trkpt lat="42.3987861536443233489990234375" lon="0.93961092643439769744873046875">
        <ele>1376.800048828125</ele>
        <time>2020-08-14T06:24:48.000Z</time>
      </trkpt>
      <trkpt lat="42.39879168570041656494140625" lon="0.93959734775125980377197265625">
        <ele>1377.4000244140625</ele>
        <time>2020-08-14T06:24:51.000Z</time>
      </trkpt>
      <trkpt lat="42.3988250456750392913818359375" lon="0.93957245349884033203125">
        <ele>1378.199951171875</ele>
        <time>2020-08-14T06:24:56.000Z</time>
      </trkpt>
      <trkpt lat="42.39884574897587299346923828125" lon="0.93956331722438335418701171875">
        <ele>1378.5999755859375</ele>
        <time>2020-08-14T06:24:59.000Z</time>
      </trkpt>
      <trkpt lat="42.39886184222996234893798828125" lon="0.93954537995159626007080078125">
        <ele>1378.800048828125</ele>
        <time>2020-08-14T06:25:04.000Z</time>
      </trkpt>
      <trkpt lat="42.39887860603630542755126953125" lon="0.93952953815460205078125">
        <ele>1378.800048828125</ele>
        <time>2020-08-14T06:25:10.000Z</time>
      </trkpt>
      <trkpt lat="42.398920096457004547119140625" lon="0.9395109303295612335205078125">
        <ele>1379</ele>
        <time>2020-08-14T06:25:19.000Z</time>
      </trkpt>
      <trkpt lat="42.3989340104162693023681640625" lon="0.9395008720457553863525390625">
        <ele>1379.199951171875</ele>
        <time>2020-08-14T06:25:21.000Z</time>
      </trkpt>
      <trkpt lat="42.398983128368854522705078125" lon="0.9394691884517669677734375">
        <ele>1380.199951171875</ele>
        <time>2020-08-14T06:25:29.000Z</time>
      </trkpt>
      <trkpt lat="42.39899042062461376190185546875" lon="0.939465500414371490478515625">
        <ele>1380.4000244140625</ele>
        <time>2020-08-14T06:25:30.000Z</time>
      </trkpt>
      <trkpt lat="42.3990560509264469146728515625" lon="0.939456112682819366455078125">
        <ele>1381.199951171875</ele>
        <time>2020-08-14T06:25:38.000Z</time>
      </trkpt>
      <trkpt lat="42.39906200207769870758056640625" lon="0.93945368193089962005615234375">
        <ele>1381.5999755859375</ele>
        <time>2020-08-14T06:25:39.000Z</time>
      </trkpt>
      <trkpt lat="42.39911556243896484375" lon="0.93939702026546001434326171875">
        <ele>1382.199951171875</ele>
        <time>2020-08-14T06:25:47.000Z</time>
      </trkpt>
      <trkpt lat="42.39914515055716037750244140625" lon="0.93934572301805019378662109375">
        <ele>1382.199951171875</ele>
        <time>2020-08-14T06:25:54.000Z</time>
      </trkpt>
      <trkpt lat="42.39917180500924587249755859375" lon="0.93930616043508052825927734375">
        <ele>1382.5999755859375</ele>
        <time>2020-08-14T06:25:57.000Z</time>
      </trkpt>
      <trkpt lat="42.39919845946133136749267578125" lon="0.9392680227756500244140625">
        <ele>1383</ele>
        <time>2020-08-14T06:26:00.000Z</time>
      </trkpt>
      <trkpt lat="42.39925059489905834197998046875" lon="0.939179174602031707763671875">
        <ele>1383</ele>
        <time>2020-08-14T06:26:06.000Z</time>
      </trkpt>
      <trkpt lat="42.39931178279221057891845703125" lon="0.93909929506480693817138671875">
        <ele>1383.5999755859375</ele>
        <time>2020-08-14T06:26:12.000Z</time>
      </trkpt>
      <trkpt lat="42.39935553632676601409912109375" lon="0.9390254504978656768798828125">
        <ele>1383.800048828125</ele>
        <time>2020-08-14T06:26:17.000Z</time>
      </trkpt>
      <trkpt lat="42.39943231455981731414794921875" lon="0.9388816170394420623779296875">
        <ele>1384</ele>
        <time>2020-08-14T06:26:25.000Z</time>
      </trkpt>
      <trkpt lat="42.3994523473083972930908203125" lon="0.9388454072177410125732421875">
        <ele>1384.5999755859375</ele>
        <time>2020-08-14T06:26:27.000Z</time>
      </trkpt>
      <trkpt lat="42.399488054215908050537109375" lon="0.93877156265079975128173828125">
        <ele>1385.199951171875</ele>
        <time>2020-08-14T06:26:31.000Z</time>
      </trkpt>
      <trkpt lat="42.399519570171833038330078125" lon="0.9386455826461315155029296875">
        <ele>1385.800048828125</ele>
        <time>2020-08-14T06:26:36.000Z</time>
      </trkpt>
      <trkpt lat="42.39951646886765956878662109375" lon="0.938617922365665435791015625">
        <ele>1385.800048828125</ele>
        <time>2020-08-14T06:26:37.000Z</time>
      </trkpt>
      <trkpt lat="42.39952887408435344696044921875" lon="0.93856184743344783782958984375">
        <ele>1386</ele>
        <time>2020-08-14T06:26:42.000Z</time>
      </trkpt>
      <trkpt lat="42.39953122101724147796630859375" lon="0.9385044313967227935791015625">
        <ele>1387</ele>
        <time>2020-08-14T06:26:49.000Z</time>
      </trkpt>
      <trkpt lat="42.39953725598752498626708984375" lon="0.93849663622677326202392578125">
        <ele>1387</ele>
        <time>2020-08-14T06:26:50.000Z</time>
      </trkpt>
      <trkpt lat="42.3995970189571380615234375" lon="0.9384165890514850616455078125">
        <ele>1387.5999755859375</ele>
        <time>2020-08-14T06:27:00.000Z</time>
      </trkpt>
      <trkpt lat="42.3996025510132312774658203125" lon="0.938392616808414459228515625">
        <ele>1388.199951171875</ele>
        <time>2020-08-14T06:27:04.000Z</time>
      </trkpt>
      <trkpt lat="42.399606406688690185546875" lon="0.93836990185081958770751953125">
        <ele>1388.4000244140625</ele>
        <time>2020-08-14T06:27:08.000Z</time>
      </trkpt>
      <trkpt lat="42.399606406688690185546875" lon="0.9383641183376312255859375">
        <ele>1388.199951171875</ele>
        <time>2020-08-14T06:27:21.000Z</time>
      </trkpt>
      <trkpt lat="42.3996193148195743560791015625" lon="0.93833218328654766082763671875">
        <ele>1388.199951171875</ele>
        <time>2020-08-14T06:27:28.000Z</time>
      </trkpt>
      <trkpt lat="42.39963180385529994964599609375" lon="0.93825976364314556121826171875">
        <ele>1387.800048828125</ele>
        <time>2020-08-14T06:27:37.000Z</time>
      </trkpt>
      <trkpt lat="42.3996179737150669097900390625" lon="0.93819589354097843170166015625">
        <ele>1387.5999755859375</ele>
        <time>2020-08-14T06:27:47.000Z</time>
      </trkpt>
      <trkpt lat="42.39961520768702030181884765625" lon="0.93819069676101207733154296875">
        <ele>1387.5999755859375</ele>
        <time>2020-08-14T06:27:49.000Z</time>
      </trkpt>
      <trkpt lat="42.3996015451848506927490234375" lon="0.9381473623216152191162109375">
        <ele>1387.4000244140625</ele>
        <time>2020-08-14T06:27:59.000Z</time>
      </trkpt>
      <trkpt lat="42.399606071412563323974609375" lon="0.9381232224404811859130859375">
        <ele>1387.199951171875</ele>
        <time>2020-08-14T06:28:03.000Z</time>
      </trkpt>
      <trkpt lat="42.39961554296314716339111328125" lon="0.9380742721259593963623046875">
        <ele>1387</ele>
        <time>2020-08-14T06:28:10.000Z</time>
      </trkpt>
      <trkpt lat="42.39964320324361324310302734375" lon="0.93799204565584659576416015625">
        <ele>1387</ele>
        <time>2020-08-14T06:28:18.000Z</time>
      </trkpt>
      <trkpt lat="42.39965342916548252105712890625" lon="0.937915183603763580322265625">
        <ele>1387</ele>
        <time>2020-08-14T06:28:28.000Z</time>
      </trkpt>
      <trkpt lat="42.39966474473476409912109375" lon="0.93788257800042629241943359375">
        <ele>1387.199951171875</ele>
        <time>2020-08-14T06:28:36.000Z</time>
      </trkpt>
      <trkpt lat="42.3996598832309246063232421875" lon="0.9378962405025959014892578125">
        <ele>1387.199951171875</ele>
        <time>2020-08-14T06:28:49.000Z</time>
      </trkpt>
      <trkpt lat="42.39964194595813751220703125" lon="0.9379059635102748870849609375">
        <ele>1387.199951171875</ele>
        <time>2020-08-14T06:29:00.000Z</time>
      </trkpt>
      <trkpt lat="42.399643957614898681640625" lon="0.93789213337004184722900390625">
        <ele>1387.5999755859375</ele>
        <time>2020-08-14T06:29:10.000Z</time>
      </trkpt>
      <trkpt lat="42.39964823238551616668701171875" lon="0.93786455690860748291015625">
        <ele>1387.800048828125</ele>
        <time>2020-08-14T06:29:18.000Z</time>
      </trkpt>
      <trkpt lat="42.3996484838426113128662109375" lon="0.9378352202475070953369140625">
        <ele>1388</ele>
        <time>2020-08-14T06:29:23.000Z</time>
      </trkpt>
      <trkpt lat="42.39965678192675113677978515625" lon="0.93782164156436920166015625">
        <ele>1388.199951171875</ele>
        <time>2020-08-14T06:29:25.000Z</time>
      </trkpt>
      <trkpt lat="42.399646304547786712646484375" lon="0.93777579255402088165283203125">
        <ele>1389.199951171875</ele>
        <time>2020-08-14T06:29:32.000Z</time>
      </trkpt>
      <trkpt lat="42.399643957614898681640625" lon="0.937772355973720550537109375">
        <ele>1389.4000244140625</ele>
        <time>2020-08-14T06:29:33.000Z</time>
      </trkpt>
      <trkpt lat="42.39961973391473293304443359375" lon="0.9377668239176273345947265625">
        <ele>1390.4000244140625</ele>
        <time>2020-08-14T06:29:42.000Z</time>
      </trkpt>
      <trkpt lat="42.39961244165897369384765625" lon="0.937771685421466827392578125">
        <ele>1390.5999755859375</ele>
        <time>2020-08-14T06:29:44.000Z</time>
      </trkpt>
      <trkpt lat="42.39959525875747203826904296875" lon="0.93774762935936450958251953125">
        <ele>1391</ele>
        <time>2020-08-14T06:29:53.000Z</time>
      </trkpt>
      <trkpt lat="42.3995983600616455078125" lon="0.937746874988079071044921875">
        <ele>1391.199951171875</ele>
        <time>2020-08-14T06:30:07.000Z</time>
      </trkpt>
      <trkpt lat="42.39960766397416591644287109375" lon="0.93771963380277156829833984375">
        <ele>1391.4000244140625</ele>
        <time>2020-08-14T06:30:14.000Z</time>
      </trkpt>
      <trkpt lat="42.3996350727975368499755859375" lon="0.937692224979400634765625">
        <ele>1392.4000244140625</ele>
        <time>2020-08-14T06:30:23.000Z</time>
      </trkpt>
      <trkpt lat="42.39964538253843784332275390625" lon="0.93768493272364139556884765625">
        <ele>1393</ele>
        <time>2020-08-14T06:30:31.000Z</time>
      </trkpt>
      <trkpt lat="42.39965141750872135162353515625" lon="0.93767085112631320953369140625">
        <ele>1393.5999755859375</ele>
        <time>2020-08-14T06:30:36.000Z</time>
      </trkpt>
      <trkpt lat="42.39964638836681842803955078125" lon="0.93766632489860057830810546875">
        <ele>1393.5999755859375</ele>
        <time>2020-08-14T06:30:38.000Z</time>
      </trkpt>
      <trkpt lat="42.39963926374912261962890625" lon="0.9376586973667144775390625">
        <ele>1393.4000244140625</ele>
        <time>2020-08-14T06:30:54.000Z</time>
      </trkpt>
      <trkpt lat="42.3996159620583057403564453125" lon="0.93765794299542903900146484375">
        <ele>1394.199951171875</ele>
        <time>2020-08-14T06:31:10.000Z</time>
      </trkpt>
      <trkpt lat="42.39959157072007656097412109375" lon="0.93765668570995330810546875">
        <ele>1394.5999755859375</ele>
        <time>2020-08-14T06:31:14.000Z</time>
      </trkpt>
      <trkpt lat="42.39956642501056194305419921875" lon="0.93765324912965297698974609375">
        <ele>1395.199951171875</ele>
        <time>2020-08-14T06:31:18.000Z</time>
      </trkpt>
      <trkpt lat="42.399547398090362548828125" lon="0.93764805234968662261962890625">
        <ele>1395.5999755859375</ele>
        <time>2020-08-14T06:31:22.000Z</time>
      </trkpt>
      <trkpt lat="42.39952635951340198516845703125" lon="0.9376524947583675384521484375">
        <ele>1395.800048828125</ele>
        <time>2020-08-14T06:31:26.000Z</time>
      </trkpt>
      <trkpt lat="42.399508841335773468017578125" lon="0.93765534460544586181640625">
        <ele>1396.4000244140625</ele>
        <time>2020-08-14T06:31:32.000Z</time>
      </trkpt>
      <trkpt lat="42.39950188435614109039306640625" lon="0.937655679881572723388671875">
        <ele>1396.5999755859375</ele>
        <time>2020-08-14T06:31:36.000Z</time>
      </trkpt>
      <trkpt lat="42.39950054325163364410400390625" lon="0.937655009329319000244140625">
        <ele>1396.800048828125</ele>
        <time>2020-08-14T06:31:39.000Z</time>
      </trkpt>
      <trkpt lat="42.3994882218539714813232421875" lon="0.93766431324183940887451171875">
        <ele>1397</ele>
        <time>2020-08-14T06:31:47.000Z</time>
      </trkpt>
      <trkpt lat="42.39948411472141742706298828125" lon="0.9376642294228076934814453125">
        <ele>1397.199951171875</ele>
        <time>2020-08-14T06:31:57.000Z</time>
      </trkpt>
      <trkpt lat="42.3994841985404491424560546875" lon="0.93766263686120510101318359375">
        <ele>1397.4000244140625</ele>
        <time>2020-08-14T06:32:15.000Z</time>
      </trkpt>
      <trkpt lat="42.399471290409564971923828125" lon="0.937634892761707305908203125">
        <ele>1397.4000244140625</ele>
        <time>2020-08-14T06:32:28.000Z</time>
      </trkpt>
      <trkpt lat="42.39944656379520893096923828125" lon="0.93761435709893703460693359375">
        <ele>1397.5999755859375</ele>
        <time>2020-08-14T06:32:33.000Z</time>
      </trkpt>
      <trkpt lat="42.39944019354879856109619140625" lon="0.9376062266528606414794921875">
        <ele>1398</ele>
        <time>2020-08-14T06:32:35.000Z</time>
      </trkpt>
      <trkpt lat="42.399407923221588134765625" lon="0.93758049421012401580810546875">
        <ele>1398</ele>
        <time>2020-08-14T06:32:42.000Z</time>
      </trkpt>
      <trkpt lat="42.39940549246966838836669921875" lon="0.937575884163379669189453125">
        <ele>1397.800048828125</ele>
        <time>2020-08-14T06:32:56.000Z</time>
      </trkpt>
      <trkpt lat="42.39932754077017307281494140625" lon="0.93756540678441524505615234375">
        <ele>1397.199951171875</ele>
        <time>2020-08-14T06:33:01.000Z</time>
      </trkpt>
      <trkpt lat="42.3992592282593250274658203125" lon="0.93755484558641910552978515625">
        <ele>1397</ele>
        <time>2020-08-14T06:33:06.000Z</time>
      </trkpt>
      <trkpt lat="42.3992324061691761016845703125" lon="0.9375371597707271575927734375">
        <ele>1397.4000244140625</ele>
        <time>2020-08-14T06:33:11.000Z</time>
      </trkpt>
      <trkpt lat="42.39915244281291961669921875" lon="0.93745283782482147216796875">
        <ele>1397.800048828125</ele>
        <time>2020-08-14T06:33:20.000Z</time>
      </trkpt>
      <trkpt lat="42.3990868963301181793212890625" lon="0.9374027140438556671142578125">
        <ele>1398.199951171875</ele>
        <time>2020-08-14T06:33:28.000Z</time>
      </trkpt>
      <trkpt lat="42.3990570567548274993896484375" lon="0.93734957277774810791015625">
        <ele>1398.800048828125</ele>
        <time>2020-08-14T06:33:34.000Z</time>
      </trkpt>
      <trkpt lat="42.39904557354748249053955078125" lon="0.93733272515237331390380859375">
        <ele>1398.800048828125</ele>
        <time>2020-08-14T06:33:36.000Z</time>
      </trkpt>
      <trkpt lat="42.3990128003060817718505859375" lon="0.937282852828502655029296875">
        <ele>1399.199951171875</ele>
        <time>2020-08-14T06:33:43.000Z</time>
      </trkpt>
      <trkpt lat="42.39896871149539947509765625" lon="0.937249325215816497802734375">
        <ele>1399.800048828125</ele>
        <time>2020-08-14T06:33:50.000Z</time>
      </trkpt>
      <trkpt lat="42.39896225742995738983154296875" lon="0.93724639154970645904541015625">
        <ele>1399.800048828125</ele>
        <time>2020-08-14T06:33:51.000Z</time>
      </trkpt>
      <trkpt lat="42.39892177283763885498046875" lon="0.9371914900839328765869140625">
        <ele>1400.4000244140625</ele>
        <time>2020-08-14T06:33:59.000Z</time>
      </trkpt>
      <trkpt lat="42.39888162352144718170166015625" lon="0.93716206960380077362060546875">
        <ele>1400.800048828125</ele>
        <time>2020-08-14T06:34:04.000Z</time>
      </trkpt>
      <trkpt lat="42.3988585732877254486083984375" lon="0.93714279122650623321533203125">
        <ele>1401</ele>
        <time>2020-08-14T06:34:07.000Z</time>
      </trkpt>
      <trkpt lat="42.39882311783730983734130859375" lon="0.93707389198243618011474609375">
        <ele>1401.5999755859375</ele>
        <time>2020-08-14T06:34:15.000Z</time>
      </trkpt>
      <trkpt lat="42.398777939379215240478515625" lon="0.93703332357108592987060546875">
        <ele>1402</ele>
        <time>2020-08-14T06:34:22.000Z</time>
      </trkpt>
      <trkpt lat="42.3987703956663608551025390625" lon="0.937027372419834136962890625">
        <ele>1402</ele>
        <time>2020-08-14T06:34:23.000Z</time>
      </trkpt>
      <trkpt lat="42.39872890524566173553466796875" lon="0.93694548122584819793701171875">
        <ele>1402.800048828125</ele>
        <time>2020-08-14T06:34:32.000Z</time>
      </trkpt>
      <trkpt lat="42.39871784113347530364990234375" lon="0.9368991293013095855712890625">
        <ele>1403</ele>
        <time>2020-08-14T06:34:36.000Z</time>
      </trkpt>
      <trkpt lat="42.39872060716152191162109375" lon="0.93686903826892375946044921875">
        <ele>1403</ele>
        <time>2020-08-14T06:34:39.000Z</time>
      </trkpt>
      <trkpt lat="42.398709543049335479736328125" lon="0.9368277154862880706787109375">
        <ele>1404</ele>
        <time>2020-08-14T06:34:45.000Z</time>
      </trkpt>
      <trkpt lat="42.39870443008840084075927734375" lon="0.93681187368929386138916015625">
        <ele>1404.199951171875</ele>
        <time>2020-08-14T06:34:47.000Z</time>
      </trkpt>
      <trkpt lat="42.3986513726413249969482421875" lon="0.93674565665423870086669921875">
        <ele>1405</ele>
        <time>2020-08-14T06:34:55.000Z</time>
      </trkpt>
      <trkpt lat="42.3986099660396575927734375" lon="0.936660580337047576904296875">
        <ele>1404.800048828125</ele>
        <time>2020-08-14T06:35:04.000Z</time>
      </trkpt>
      <trkpt lat="42.3985745944082736968994140625" lon="0.9365953691303730010986328125">
        <ele>1405.199951171875</ele>
        <time>2020-08-14T06:35:12.000Z</time>
      </trkpt>
      <trkpt lat="42.39856998436152935028076171875" lon="0.93659050762653350830078125">
        <ele>1405.199951171875</ele>
        <time>2020-08-14T06:35:13.000Z</time>
      </trkpt>
      <trkpt lat="42.3985276557505130767822265625" lon="0.9365179203450679779052734375">
        <ele>1405.5999755859375</ele>
        <time>2020-08-14T06:35:21.000Z</time>
      </trkpt>
      <trkpt lat="42.398498989641666412353515625" lon="0.936429239809513092041015625">
        <ele>1406.199951171875</ele>
        <time>2020-08-14T06:35:30.000Z</time>
      </trkpt>
      <trkpt lat="42.3985008336603641510009765625" lon="0.93642530031502246856689453125">
        <ele>1406.199951171875</ele>
        <time>2020-08-14T06:35:31.000Z</time>
      </trkpt>
      <trkpt lat="42.3984984867274761199951171875" lon="0.93640409409999847412109375">
        <ele>1406.4000244140625</ele>
        <time>2020-08-14T06:35:35.000Z</time>
      </trkpt>
      <trkpt lat="42.3984937928617000579833984375" lon="0.93636830337345600128173828125">
        <ele>1407.4000244140625</ele>
        <time>2020-08-14T06:35:41.000Z</time>
      </trkpt>
      <trkpt lat="42.3984823934733867645263671875" lon="0.93635589815676212310791015625">
        <ele>1407.4000244140625</ele>
        <time>2020-08-14T06:35:43.000Z</time>
      </trkpt>
      <trkpt lat="42.3984512127935886383056640625" lon="0.93631901778280735015869140625">
        <ele>1408</ele>
        <time>2020-08-14T06:35:49.000Z</time>
      </trkpt>
      <trkpt lat="42.39841575734317302703857421875" lon="0.9362865798175334930419921875">
        <ele>1408.5999755859375</ele>
        <time>2020-08-14T06:35:55.000Z</time>
      </trkpt>
      <trkpt lat="42.39839530549943447113037109375" lon="0.93626302666962146759033203125">
        <ele>1408.5999755859375</ele>
        <time>2020-08-14T06:35:58.000Z</time>
      </trkpt>
      <trkpt lat="42.39835507236421108245849609375" lon="0.93620770610868930816650390625">
        <ele>1409.5999755859375</ele>
        <time>2020-08-14T06:36:06.000Z</time>
      </trkpt>
      <trkpt lat="42.3983502946794033050537109375" lon="0.9361995756626129150390625">
        <ele>1409.800048828125</ele>
        <time>2020-08-14T06:36:07.000Z</time>
      </trkpt>
      <trkpt lat="42.39832271821796894073486328125" lon="0.9361021779477596282958984375">
        <ele>1410.5999755859375</ele>
        <time>2020-08-14T06:36:17.000Z</time>
      </trkpt>
      <trkpt lat="42.39832674153149127960205078125" lon="0.936091952025890350341796875">
        <ele>1410.800048828125</ele>
        <time>2020-08-14T06:36:18.000Z</time>
      </trkpt>
      <trkpt lat="42.39834702573716640472412109375" lon="0.936045013368129730224609375">
        <ele>1411.4000244140625</ele>
        <time>2020-08-14T06:36:24.000Z</time>
      </trkpt>
      <trkpt lat="42.39835104905068874359130859375" lon="0.9360367991030216217041015625">
        <ele>1411.800048828125</ele>
        <time>2020-08-14T06:36:28.000Z</time>
      </trkpt>
      <trkpt lat="42.39835339598357677459716796875" lon="0.93603436835110187530517578125">
        <ele>1411.800048828125</ele>
        <time>2020-08-14T06:36:32.000Z</time>
      </trkpt>
      <trkpt lat="42.3983600176870822906494140625" lon="0.93602514825761318206787109375">
        <ele>1412</ele>
        <time>2020-08-14T06:36:39.000Z</time>
      </trkpt>
      <trkpt lat="42.39836026914417743682861328125" lon="0.9360250644385814666748046875">
        <ele>1412.199951171875</ele>
        <time>2020-08-14T06:36:40.000Z</time>
      </trkpt>
      <trkpt lat="42.3983727581799030303955078125" lon="0.93599715270102024078369140625">
        <ele>1412.5999755859375</ele>
        <time>2020-08-14T06:36:48.000Z</time>
      </trkpt>
      <trkpt lat="42.398377619683742523193359375" lon="0.93598742969334125518798828125">
        <ele>1412.800048828125</ele>
        <time>2020-08-14T06:36:50.000Z</time>
      </trkpt>
      <trkpt lat="42.39838642068207263946533203125" lon="0.9359610266983509063720703125">
        <ele>1413.199951171875</ele>
        <time>2020-08-14T06:36:55.000Z</time>
      </trkpt>
      <trkpt lat="42.39838792942464351654052734375" lon="0.9359241463243961334228515625">
        <ele>1413.800048828125</ele>
        <time>2020-08-14T06:37:02.000Z</time>
      </trkpt>
      <trkpt lat="42.398382984101772308349609375" lon="0.93590713106095790863037109375">
        <ele>1413.800048828125</ele>
        <time>2020-08-14T06:37:04.000Z</time>
      </trkpt>
      <trkpt lat="42.3983737640082836151123046875" lon="0.935873687267303466796875">
        <ele>1414.199951171875</ele>
        <time>2020-08-14T06:37:09.000Z</time>
      </trkpt>
      <trkpt lat="42.39837057888507843017578125" lon="0.9358487091958522796630859375">
        <ele>1414.5999755859375</ele>
        <time>2020-08-14T06:37:15.000Z</time>
      </trkpt>
      <trkpt lat="42.398370914161205291748046875" lon="0.93584544025361537933349609375">
        <ele>1414.800048828125</ele>
        <time>2020-08-14T06:37:17.000Z</time>
      </trkpt>
      <trkpt lat="42.39837384782731533050537109375" lon="0.9358346275985240936279296875">
        <ele>1415</ele>
        <time>2020-08-14T06:37:19.000Z</time>
      </trkpt>
      <trkpt lat="42.39840519614517688751220703125" lon="0.93581694178283214569091796875">
        <ele>1415.800048828125</ele>
        <time>2020-08-14T06:37:26.000Z</time>
      </trkpt>
      <trkpt lat="42.398416511714458465576171875" lon="0.93581493012607097625732421875">
        <ele>1416</ele>
        <time>2020-08-14T06:37:28.000Z</time>
      </trkpt>
      <trkpt lat="42.39842715673148632049560546875" lon="0.93582012690603733062744140625">
        <ele>1416.4000244140625</ele>
        <time>2020-08-14T06:37:33.000Z</time>
      </trkpt>
      <trkpt lat="42.3984260670840740203857421875" lon="0.935820378363132476806640625">
        <ele>1417</ele>
        <time>2020-08-14T06:37:37.000Z</time>
      </trkpt>
      <trkpt lat="42.39842883311212062835693359375" lon="0.93581845052540302276611328125">
        <ele>1417</ele>
        <time>2020-08-14T06:37:45.000Z</time>
      </trkpt>
      <trkpt lat="42.3984515480697154998779296875" lon="0.9357813186943531036376953125">
        <ele>1418</ele>
        <time>2020-08-14T06:37:54.000Z</time>
      </trkpt>
      <trkpt lat="42.39847660996019840240478515625" lon="0.9357551671564579010009765625">
        <ele>1418.5999755859375</ele>
        <time>2020-08-14T06:38:01.000Z</time>
      </trkpt>
      <trkpt lat="42.3984857462346553802490234375" lon="0.93572792597115039825439453125">
        <ele>1419.199951171875</ele>
        <time>2020-08-14T06:38:05.000Z</time>
      </trkpt>
      <trkpt lat="42.39848993718624114990234375" lon="0.93569867312908172607421875">
        <ele>1419.4000244140625</ele>
        <time>2020-08-14T06:38:09.000Z</time>
      </trkpt>
      <trkpt lat="42.39847627468407154083251953125" lon="0.9356572665274143218994140625">
        <ele>1420</ele>
        <time>2020-08-14T06:38:16.000Z</time>
      </trkpt>
      <trkpt lat="42.398476861417293548583984375" lon="0.93564997427165508270263671875">
        <ele>1420.4000244140625</ele>
        <time>2020-08-14T06:38:17.000Z</time>
      </trkpt>
      <trkpt lat="42.39849421195685863494873046875" lon="0.93559565953910350799560546875">
        <ele>1421</ele>
        <time>2020-08-14T06:38:24.000Z</time>
      </trkpt>
      <trkpt lat="42.39850142039358615875244140625" lon="0.9355692565441131591796875">
        <ele>1421.4000244140625</ele>
        <time>2020-08-14T06:38:27.000Z</time>
      </trkpt>
      <trkpt lat="42.39851751364767551422119140625" lon="0.9355325438082218170166015625">
        <ele>1421.5999755859375</ele>
        <time>2020-08-14T06:38:32.000Z</time>
      </trkpt>
      <trkpt lat="42.398564033210277557373046875" lon="0.93551225960254669189453125">
        <ele>1422.5999755859375</ele>
        <time>2020-08-14T06:38:39.000Z</time>
      </trkpt>
      <trkpt lat="42.3985682241618633270263671875" lon="0.93551133759319782257080078125">
        <ele>1422.5999755859375</ele>
        <time>2020-08-14T06:38:40.000Z</time>
      </trkpt>
      <trkpt lat="42.39861189387738704681396484375" lon="0.9355080686509609222412109375">
        <ele>1423.5999755859375</ele>
        <time>2020-08-14T06:38:48.000Z</time>
      </trkpt>
      <trkpt lat="42.3986171744763851165771484375" lon="0.9355094097554683685302734375">
        <ele>1423.5999755859375</ele>
        <time>2020-08-14T06:38:49.000Z</time>
      </trkpt>
      <trkpt lat="42.39866386167705059051513671875" lon="0.93551217578351497650146484375">
        <ele>1424.5999755859375</ele>
        <time>2020-08-14T06:38:56.000Z</time>
      </trkpt>
      <trkpt lat="42.3986694775521755218505859375" lon="0.93550689518451690673828125">
        <ele>1425</ele>
        <time>2020-08-14T06:38:57.000Z</time>
      </trkpt>
      <trkpt lat="42.398680038750171661376953125" lon="0.93548770062625408172607421875">
        <ele>1425.5999755859375</ele>
        <time>2020-08-14T06:39:00.000Z</time>
      </trkpt>
      <trkpt lat="42.39869001321494579315185546875" lon="0.935458280146121978759765625">
        <ele>1425.800048828125</ele>
        <time>2020-08-14T06:39:04.000Z</time>
      </trkpt>
      <trkpt lat="42.3986932821571826934814453125" lon="0.93544193543493747711181640625">
        <ele>1426</ele>
        <time>2020-08-14T06:39:06.000Z</time>
      </trkpt>
      <trkpt lat="42.39869856275618076324462890625" lon="0.93541276641190052032470703125">
        <ele>1426.800048828125</ele>
        <time>2020-08-14T06:39:11.000Z</time>
      </trkpt>
      <trkpt lat="42.3987030051648616790771484375" lon="0.93539449386298656463623046875">
        <ele>1427.199951171875</ele>
        <time>2020-08-14T06:39:14.000Z</time>
      </trkpt>
      <trkpt lat="42.39870308898389339447021484375" lon="0.9353749640285968780517578125">
        <ele>1427.5999755859375</ele>
        <time>2020-08-14T06:39:17.000Z</time>
      </trkpt>
      <trkpt lat="42.3987040109932422637939453125" lon="0.93535644002258777618408203125">
        <ele>1428.199951171875</ele>
        <time>2020-08-14T06:39:22.000Z</time>
      </trkpt>
      <trkpt lat="42.39870828576385974884033203125" lon="0.93534705229103565216064453125">
        <ele>1428.199951171875</ele>
        <time>2020-08-14T06:39:24.000Z</time>
      </trkpt>
      <trkpt lat="42.39871499128639698028564453125" lon="0.93532056547701358795166015625">
        <ele>1429.199951171875</ele>
        <time>2020-08-14T06:39:31.000Z</time>
      </trkpt>
      <trkpt lat="42.3987144045531749725341796875" lon="0.935330875217914581298828125">
        <ele>1429.199951171875</ele>
        <time>2020-08-14T06:39:42.000Z</time>
      </trkpt>
      <trkpt lat="42.39871733821928501129150390625" lon="0.93531251884996891021728515625">
        <ele>1429.4000244140625</ele>
        <time>2020-08-14T06:39:53.000Z</time>
      </trkpt>
      <trkpt lat="42.3987199366092681884765625" lon="0.93528821133077144622802734375">
        <ele>1429.4000244140625</ele>
        <time>2020-08-14T06:39:56.000Z</time>
      </trkpt>
      <trkpt lat="42.3987113870680332183837890625" lon="0.9352552704513072967529296875">
        <ele>1430.199951171875</ele>
        <time>2020-08-14T06:40:02.000Z</time>
      </trkpt>
      <trkpt lat="42.39870912395417690277099609375" lon="0.93524646945297718048095703125">
        <ele>1430.4000244140625</ele>
        <time>2020-08-14T06:40:05.000Z</time>
      </trkpt>
      <trkpt lat="42.3987003229558467864990234375" lon="0.935214869678020477294921875">
        <ele>1431.199951171875</ele>
        <time>2020-08-14T06:40:09.000Z</time>
      </trkpt>
      <trkpt lat="42.3986922763288021087646484375" lon="0.935197435319423675537109375">
        <ele>1431.5999755859375</ele>
        <time>2020-08-14T06:40:11.000Z</time>
      </trkpt>
      <trkpt lat="42.39866671152412891387939453125" lon="0.9351429529488086700439453125">
        <ele>1432</ele>
        <time>2020-08-14T06:40:18.000Z</time>
      </trkpt>
      <trkpt lat="42.3986476846039295196533203125" lon="0.9351067431271076202392578125">
        <ele>1432.5999755859375</ele>
        <time>2020-08-14T06:40:24.000Z</time>
      </trkpt>
      <trkpt lat="42.39864575676620006561279296875" lon="0.9350963495671749114990234375">
        <ele>1432.5999755859375</ele>
        <time>2020-08-14T06:40:25.000Z</time>
      </trkpt>
      <trkpt lat="42.39862077869474887847900390625" lon="0.93504094518721103668212890625">
        <ele>1432.800048828125</ele>
        <time>2020-08-14T06:40:31.000Z</time>
      </trkpt>
      <trkpt lat="42.3986121453344821929931640625" lon="0.935031808912754058837890625">
        <ele>1432.800048828125</ele>
        <time>2020-08-14T06:40:32.000Z</time>
      </trkpt>
      <trkpt lat="42.3985616862773895263671875" lon="0.93500037677586078643798828125">
        <ele>1433.199951171875</ele>
        <time>2020-08-14T06:40:38.000Z</time>
      </trkpt>
      <trkpt lat="42.39854634739458560943603515625" lon="0.93499124050140380859375">
        <ele>1433.4000244140625</ele>
        <time>2020-08-14T06:40:40.000Z</time>
      </trkpt>
      <trkpt lat="42.39853461273014545440673828125" lon="0.9349850378930568695068359375">
        <ele>1433.5999755859375</ele>
        <time>2020-08-14T06:40:42.000Z</time>
      </trkpt>
      <trkpt lat="42.39853017032146453857421875" lon="0.93496064655482769012451171875">
        <ele>1434</ele>
        <time>2020-08-14T06:40:46.000Z</time>
      </trkpt>
      <trkpt lat="42.398526482284069061279296875" lon="0.9349216707050800323486328125">
        <ele>1434.5999755859375</ele>
        <time>2020-08-14T06:40:52.000Z</time>
      </trkpt>
      <trkpt lat="42.3985293321311473846435546875" lon="0.93491613864898681640625">
        <ele>1434.800048828125</ele>
        <time>2020-08-14T06:40:53.000Z</time>
      </trkpt>
      <trkpt lat="42.398504354059696197509765625" lon="0.93489074148237705230712890625">
        <ele>1435.5999755859375</ele>
        <time>2020-08-14T06:41:00.000Z</time>
      </trkpt>
      <trkpt lat="42.39845900796353816986083984375" lon="0.9349028952419757843017578125">
        <ele>1437</ele>
        <time>2020-08-14T06:41:07.000Z</time>
      </trkpt>
      <trkpt lat="42.39842061884701251983642578125" lon="0.93495394103229045867919921875">
        <ele>1438</ele>
        <time>2020-08-14T06:41:14.000Z</time>
      </trkpt>
      <trkpt lat="42.3984160088002681732177734375" lon="0.93496064655482769012451171875">
        <ele>1438.4000244140625</ele>
        <time>2020-08-14T06:41:15.000Z</time>
      </trkpt>
      <trkpt lat="42.39837233908474445343017578125" lon="0.93500557355582714080810546875">
        <ele>1438.800048828125</ele>
        <time>2020-08-14T06:41:24.000Z</time>
      </trkpt>
      <trkpt lat="42.398373596370220184326171875" lon="0.93500976450741291046142578125">
        <ele>1438.4000244140625</ele>
        <time>2020-08-14T06:41:39.000Z</time>
      </trkpt>
      <trkpt lat="42.39837418310344219207763671875" lon="0.935010015964508056640625">
        <ele>1438.4000244140625</ele>
        <time>2020-08-14T06:41:43.000Z</time>
      </trkpt>
      <trkpt lat="42.3983740992844104766845703125" lon="0.935010351240634918212890625">
        <ele>1438.4000244140625</ele>
        <time>2020-08-14T06:41:51.000Z</time>
      </trkpt>
      <trkpt lat="42.39836529828608036041259765625" lon="0.93501747585833072662353515625">
        <ele>1438.199951171875</ele>
        <time>2020-08-14T06:42:10.000Z</time>
      </trkpt>
      <trkpt lat="42.398281730711460113525390625" lon="0.93507899902760982513427734375">
        <ele>1437.800048828125</ele>
        <time>2020-08-14T06:42:17.000Z</time>
      </trkpt>
      <trkpt lat="42.3981886915862560272216796875" lon="0.9351369179785251617431640625">
        <ele>1437.800048828125</ele>
        <time>2020-08-14T06:42:22.000Z</time>
      </trkpt>
      <trkpt lat="42.39807561971247196197509765625" lon="0.935137085616588592529296875">
        <ele>1436.800048828125</ele>
        <time>2020-08-14T06:42:26.000Z</time>
      </trkpt>
      <trkpt lat="42.3980488814413547515869140625" lon="0.93513985164463520050048828125">
        <ele>1436.5999755859375</ele>
        <time>2020-08-14T06:42:27.000Z</time>
      </trkpt>
      <trkpt lat="42.397997081279754638671875" lon="0.9351701103150844573974609375">
        <ele>1437</ele>
        <time>2020-08-14T06:42:30.000Z</time>
      </trkpt>
      <trkpt lat="42.39797922782599925994873046875" lon="0.93517036177217960357666015625">
        <ele>1437</ele>
        <time>2020-08-14T06:42:31.000Z</time>
      </trkpt>
      <trkpt lat="42.3979100771248340606689453125" lon="0.9351761452853679656982421875">
        <ele>1437</ele>
        <time>2020-08-14T06:42:37.000Z</time>
      </trkpt>
      <trkpt lat="42.397884763777256011962890625" lon="0.9351677633821964263916015625">
        <ele>1437.199951171875</ele>
        <time>2020-08-14T06:42:39.000Z</time>
      </trkpt>
      <trkpt lat="42.3978343047201633453369140625" lon="0.9351613931357860565185546875">
        <ele>1437.4000244140625</ele>
        <time>2020-08-14T06:42:42.000Z</time>
      </trkpt>
      <trkpt lat="42.39774587564170360565185546875" lon="0.93510565347969532012939453125">
        <ele>1437</ele>
        <time>2020-08-14T06:42:47.000Z</time>
      </trkpt>
      <trkpt lat="42.397632300853729248046875" lon="0.9350259415805339813232421875">
        <ele>1436.5999755859375</ele>
        <time>2020-08-14T06:42:52.000Z</time>
      </trkpt>
      <trkpt lat="42.3975169658660888671875" lon="0.93498880974948406219482421875">
        <ele>1436.5999755859375</ele>
        <time>2020-08-14T06:42:57.000Z</time>
      </trkpt>
      <trkpt lat="42.3975027166306972503662109375" lon="0.93498629517853260040283203125">
        <ele>1436.5999755859375</ele>
        <time>2020-08-14T06:42:58.000Z</time>
      </trkpt>
      <trkpt lat="42.397428117692470550537109375" lon="0.93492141924798488616943359375">
        <ele>1436.5999755859375</ele>
        <time>2020-08-14T06:43:03.000Z</time>
      </trkpt>
      <trkpt lat="42.397336922585964202880859375" lon="0.934829302132129669189453125">
        <ele>1437.4000244140625</ele>
        <time>2020-08-14T06:43:10.000Z</time>
      </trkpt>
      <trkpt lat="42.39730884321033954620361328125" lon="0.93477339483797550201416015625">
        <ele>1438.199951171875</ele>
        <time>2020-08-14T06:43:14.000Z</time>
      </trkpt>
      <trkpt lat="42.397305071353912353515625" lon="0.93476987443864345550537109375">
        <ele>1438.199951171875</ele>
        <time>2020-08-14T06:43:16.000Z</time>
      </trkpt>
      <trkpt lat="42.397293336689472198486328125" lon="0.93476953916251659393310546875">
        <ele>1438.199951171875</ele>
        <time>2020-08-14T06:43:23.000Z</time>
      </trkpt>
      <trkpt lat="42.39728487096726894378662109375" lon="0.93472410924732685089111328125">
        <ele>1438.4000244140625</ele>
        <time>2020-08-14T06:43:29.000Z</time>
      </trkpt>
      <trkpt lat="42.3972562886774539947509765625" lon="0.93464666046202182769775390625">
        <ele>1439</ele>
        <time>2020-08-14T06:43:39.000Z</time>
      </trkpt>
      <trkpt lat="42.39724111743271350860595703125" lon="0.9346138872206211090087890625">
        <ele>1439.4000244140625</ele>
        <time>2020-08-14T06:43:43.000Z</time>
      </trkpt>
      <trkpt lat="42.39721965976059436798095703125" lon="0.934595949947834014892578125">
        <ele>1439.5999755859375</ele>
        <time>2020-08-14T06:43:47.000Z</time>
      </trkpt>
      <trkpt lat="42.397193424403667449951171875" lon="0.9345924295485019683837890625">
        <ele>1440.4000244140625</ele>
        <time>2020-08-14T06:43:52.000Z</time>
      </trkpt>
      <trkpt lat="42.39717037416994571685791015625" lon="0.9346008114516735076904296875">
        <ele>1440.5999755859375</ele>
        <time>2020-08-14T06:43:56.000Z</time>
      </trkpt>
      <trkpt lat="42.39713919349014759063720703125" lon="0.93461145646870136260986328125">
        <ele>1441.4000244140625</ele>
        <time>2020-08-14T06:44:01.000Z</time>
      </trkpt>
      <trkpt lat="42.39711522124707698822021484375" lon="0.9346195869147777557373046875">
        <ele>1441.800048828125</ele>
        <time>2020-08-14T06:44:05.000Z</time>
      </trkpt>
      <trkpt lat="42.3970708809792995452880859375" lon="0.93461480922996997833251953125">
        <ele>1442.4000244140625</ele>
        <time>2020-08-14T06:44:13.000Z</time>
      </trkpt>
      <trkpt lat="42.3970645107328891754150390625" lon="0.9346122108399868011474609375">
        <ele>1442.5999755859375</ele>
        <time>2020-08-14T06:44:14.000Z</time>
      </trkpt>
      <trkpt lat="42.39703425206243991851806640625" lon="0.93460039235651493072509765625">
        <ele>1443.4000244140625</ele>
        <time>2020-08-14T06:44:20.000Z</time>
      </trkpt>
      <trkpt lat="42.39702922292053699493408203125" lon="0.93460961245000362396240234375">
        <ele>1443.800048828125</ele>
        <time>2020-08-14T06:44:22.000Z</time>
      </trkpt>
      <trkpt lat="42.3970262892544269561767578125" lon="0.93462335877120494842529296875">
        <ele>1443.5999755859375</ele>
        <time>2020-08-14T06:44:30.000Z</time>
      </trkpt>
      <trkpt lat="42.39699594676494598388671875" lon="0.93466845341026782989501953125">
        <ele>1444.5999755859375</ele>
        <time>2020-08-14T06:44:38.000Z</time>
      </trkpt>
      <trkpt lat="42.396957390010356903076171875" lon="0.93467700295150279998779296875">
        <ele>1445.4000244140625</ele>
        <time>2020-08-14T06:44:45.000Z</time>
      </trkpt>
      <trkpt lat="42.396951355040073394775390625" lon="0.93467147089540958404541015625">
        <ele>1445.800048828125</ele>
        <time>2020-08-14T06:44:47.000Z</time>
      </trkpt>
      <trkpt lat="42.39693827927112579345703125" lon="0.9346680343151092529296875">
        <ele>1446.199951171875</ele>
        <time>2020-08-14T06:44:50.000Z</time>
      </trkpt>
      <trkpt lat="42.39691975526511669158935546875" lon="0.9346680343151092529296875">
        <ele>1446.800048828125</ele>
        <time>2020-08-14T06:44:55.000Z</time>
      </trkpt>
      <trkpt lat="42.3969121277332305908203125" lon="0.9346611611545085906982421875">
        <ele>1447.199951171875</ele>
        <time>2020-08-14T06:44:57.000Z</time>
      </trkpt>
      <trkpt lat="42.39689243026077747344970703125" lon="0.9346122108399868011474609375">
        <ele>1447.800048828125</ele>
        <time>2020-08-14T06:45:04.000Z</time>
      </trkpt>
      <trkpt lat="42.39688589237630367279052734375" lon="0.93460994772613048553466796875">
        <ele>1448</ele>
        <time>2020-08-14T06:45:05.000Z</time>
      </trkpt>
      <trkpt lat="42.3968660272657871246337890625" lon="0.9346385300159454345703125">
        <ele>1448.4000244140625</ele>
        <time>2020-08-14T06:45:10.000Z</time>
      </trkpt>
      <trkpt lat="42.39682671613991260528564453125" lon="0.9346546232700347900390625">
        <ele>1449</ele>
        <time>2020-08-14T06:45:17.000Z</time>
      </trkpt>
      <trkpt lat="42.39679955877363681793212890625" lon="0.934634841978549957275390625">
        <ele>1450</ele>
        <time>2020-08-14T06:45:23.000Z</time>
      </trkpt>
      <trkpt lat="42.39679603837430477142333984375" lon="0.9346272982656955718994140625">
        <ele>1450</ele>
        <time>2020-08-14T06:45:30.000Z</time>
      </trkpt>
      <trkpt lat="42.39679654128849506378173828125" lon="0.9346145577728748321533203125">
        <ele>1450</ele>
        <time>2020-08-14T06:45:49.000Z</time>
      </trkpt>
      <trkpt lat="42.39677877165377140045166015625" lon="0.9345518611371517181396484375">
        <ele>1450.4000244140625</ele>
        <time>2020-08-14T06:45:56.000Z</time>
      </trkpt>
      <trkpt lat="42.396779023110866546630859375" lon="0.934539623558521270751953125">
        <ele>1450.800048828125</ele>
        <time>2020-08-14T06:46:05.000Z</time>
      </trkpt>
      <trkpt lat="42.396772317588329315185546875" lon="0.93448505736887454986572265625">
        <ele>1450.800048828125</ele>
        <time>2020-08-14T06:46:11.000Z</time>
      </trkpt>
      <trkpt lat="42.396764270961284637451171875" lon="0.9344184212386608123779296875">
        <ele>1451</ele>
        <time>2020-08-14T06:46:15.000Z</time>
      </trkpt>
      <trkpt lat="42.3967604152858257293701171875" lon="0.934388078749179840087890625">
        <ele>1451</ele>
        <time>2020-08-14T06:46:17.000Z</time>
      </trkpt>
      <trkpt lat="42.39676795899868011474609375" lon="0.93427634797990322113037109375">
        <ele>1451.800048828125</ele>
        <time>2020-08-14T06:46:24.000Z</time>
      </trkpt>
      <trkpt lat="42.396768294274806976318359375" lon="0.93425673432648181915283203125">
        <ele>1452</ele>
        <time>2020-08-14T06:46:26.000Z</time>
      </trkpt>
      <trkpt lat="42.39676653407514095306396484375" lon="0.9342457540333271026611328125">
        <ele>1452.199951171875</ele>
        <time>2020-08-14T06:46:30.000Z</time>
      </trkpt>
      <trkpt lat="42.3967610858380794525146484375" lon="0.93420627526938915252685546875">
        <ele>1452</ele>
        <time>2020-08-14T06:46:37.000Z</time>
      </trkpt>
      <trkpt lat="42.396746166050434112548828125" lon="0.934083648025989532470703125">
        <ele>1452</ele>
        <time>2020-08-14T06:46:43.000Z</time>
      </trkpt>
      <trkpt lat="42.3967342637479305267333984375" lon="0.9339054487645626068115234375">
        <ele>1452.199951171875</ele>
        <time>2020-08-14T06:46:52.000Z</time>
      </trkpt>
      <trkpt lat="42.39675882272422313690185546875" lon="0.9337545745074748992919921875">
        <ele>1453.199951171875</ele>
        <time>2020-08-14T06:47:00.000Z</time>
      </trkpt>
      <trkpt lat="42.396759577095508575439453125" lon="0.93373739160597324371337890625">
        <ele>1453.199951171875</ele>
        <time>2020-08-14T06:47:01.000Z</time>
      </trkpt>
      <trkpt lat="42.39675714634358882904052734375" lon="0.93360965140163898468017578125">
        <ele>1453.5999755859375</ele>
        <time>2020-08-14T06:47:09.000Z</time>
      </trkpt>
      <trkpt lat="42.3967324197292327880859375" lon="0.9334789775311946868896484375">
        <ele>1453.5999755859375</ele>
        <time>2020-08-14T06:47:15.000Z</time>
      </trkpt>
      <trkpt lat="42.39669579081237316131591796875" lon="0.933298766613006591796875">
        <ele>1453.5999755859375</ele>
        <time>2020-08-14T06:47:23.000Z</time>
      </trkpt>
      <trkpt lat="42.39668556489050388336181640625" lon="0.933153927326202392578125">
        <ele>1453.199951171875</ele>
        <time>2020-08-14T06:47:28.000Z</time>
      </trkpt>
      <trkpt lat="42.39670693874359130859375" lon="0.9330390952527523040771484375">
        <ele>1454</ele>
        <time>2020-08-14T06:47:34.000Z</time>
      </trkpt>
      <trkpt lat="42.3967055976390838623046875" lon="0.93303532339632511138916015625">
        <ele>1454</ele>
        <time>2020-08-14T06:47:36.000Z</time>
      </trkpt>
      <trkpt lat="42.39670400507748126983642578125" lon="0.93301855958998203277587890625">
        <ele>1454.4000244140625</ele>
        <time>2020-08-14T06:47:42.000Z</time>
      </trkpt>
      <trkpt lat="42.3967017419636249542236328125" lon="0.93298687599599361419677734375">
        <ele>1454.199951171875</ele>
        <time>2020-08-14T06:47:49.000Z</time>
      </trkpt>
      <trkpt lat="42.39669746719300746917724609375" lon="0.93289635144174098968505859375">
        <ele>1454.199951171875</ele>
        <time>2020-08-14T06:47:58.000Z</time>
      </trkpt>
      <trkpt lat="42.3966993950307369232177734375" lon="0.9328369237482547760009765625">
        <ele>1454.5999755859375</ele>
        <time>2020-08-14T06:48:05.000Z</time>
      </trkpt>
      <trkpt lat="42.39670031704008579254150390625" lon="0.93279249966144561767578125">
        <ele>1454.5999755859375</ele>
        <time>2020-08-14T06:48:12.000Z</time>
      </trkpt>
      <trkpt lat="42.3966973833739757537841796875" lon="0.9327403642237186431884765625">
        <ele>1455</ele>
        <time>2020-08-14T06:48:16.000Z</time>
      </trkpt>
      <trkpt lat="42.39670090377330780029296875" lon="0.93266643583774566650390625">
        <ele>1455</ele>
        <time>2020-08-14T06:48:21.000Z</time>
      </trkpt>
      <trkpt lat="42.3967198468744754791259765625" lon="0.932582281529903411865234375">
        <ele>1455.800048828125</ele>
        <time>2020-08-14T06:48:29.000Z</time>
      </trkpt>
      <trkpt lat="42.3967228643596172332763671875" lon="0.93255839310586452484130859375">
        <ele>1456</ele>
        <time>2020-08-14T06:48:32.000Z</time>
      </trkpt>
      <trkpt lat="42.3967352695763111114501953125" lon="0.932496450841426849365234375">
        <ele>1456.199951171875</ele>
        <time>2020-08-14T06:48:37.000Z</time>
      </trkpt>
      <trkpt lat="42.39673518575727939605712890625" lon="0.932409279048442840576171875">
        <ele>1456.4000244140625</ele>
        <time>2020-08-14T06:48:45.000Z</time>
      </trkpt>
      <trkpt lat="42.39673350937664508819580078125" lon="0.93236058019101619720458984375">
        <ele>1456.800048828125</ele>
        <time>2020-08-14T06:48:51.000Z</time>
      </trkpt>
      <trkpt lat="42.39673309028148651123046875" lon="0.93235873617231845855712890625">
        <ele>1457</ele>
        <time>2020-08-14T06:48:55.000Z</time>
      </trkpt>
      <trkpt lat="42.3967335931956768035888671875" lon="0.93232973478734493255615234375">
        <ele>1457</ele>
        <time>2020-08-14T06:49:05.000Z</time>
      </trkpt>
      <trkpt lat="42.39673032425343990325927734375" lon="0.93225681222975254058837890625">
        <ele>1457.800048828125</ele>
        <time>2020-08-14T06:49:14.000Z</time>
      </trkpt>
      <trkpt lat="42.396726720035076141357421875" lon="0.932182632386684417724609375">
        <ele>1457.4000244140625</ele>
        <time>2020-08-14T06:49:21.000Z</time>
      </trkpt>
      <trkpt lat="42.39670434035360813140869140625" lon="0.93211046420037746429443359375">
        <ele>1457.199951171875</ele>
        <time>2020-08-14T06:49:29.000Z</time>
      </trkpt>
      <trkpt lat="42.39670358598232269287109375" lon="0.93208364211022853851318359375">
        <ele>1456.800048828125</ele>
        <time>2020-08-14T06:49:34.000Z</time>
      </trkpt>
      <trkpt lat="42.39670501090586185455322265625" lon="0.932060591876506805419921875">
        <ele>1457</ele>
        <time>2020-08-14T06:49:46.000Z</time>
      </trkpt>
      <trkpt lat="42.396691851317882537841796875" lon="0.93201507814228534698486328125">
        <ele>1456.5999755859375</ele>
        <time>2020-08-14T06:49:52.000Z</time>
      </trkpt>
      <trkpt lat="42.39668522961437702178955078125" lon="0.9319616854190826416015625">
        <ele>1456.5999755859375</ele>
        <time>2020-08-14T06:50:02.000Z</time>
      </trkpt>
      <trkpt lat="42.396666705608367919921875" lon="0.93189303763210773468017578125">
        <ele>1456.800048828125</ele>
        <time>2020-08-14T06:50:08.000Z</time>
      </trkpt>
      <trkpt lat="42.3966641910374164581298828125" lon="0.93186453916132450103759765625">
        <ele>1457</ele>
        <time>2020-08-14T06:50:11.000Z</time>
      </trkpt>
      <trkpt lat="42.39662186242640018463134765625" lon="0.93180201016366481781005859375">
        <ele>1456.800048828125</ele>
        <time>2020-08-14T06:50:18.000Z</time>
      </trkpt>
      <trkpt lat="42.3965848982334136962890625" lon="0.9317103959619998931884765625">
        <ele>1457.199951171875</ele>
        <time>2020-08-14T06:50:27.000Z</time>
      </trkpt>
      <trkpt lat="42.3965686373412609100341796875" lon="0.931677706539630889892578125">
        <ele>1457.4000244140625</ele>
        <time>2020-08-14T06:50:30.000Z</time>
      </trkpt>
      <trkpt lat="42.39656000398099422454833984375" lon="0.93164577148854732513427734375">
        <ele>1457.4000244140625</ele>
        <time>2020-08-14T06:50:33.000Z</time>
      </trkpt>
      <trkpt lat="42.396537624299526214599609375" lon="0.93154401518404483795166015625">
        <ele>1457.4000244140625</ele>
        <time>2020-08-14T06:50:41.000Z</time>
      </trkpt>
      <trkpt lat="42.3965280689299106597900390625" lon="0.931504704058170318603515625">
        <ele>1457.199951171875</ele>
        <time>2020-08-14T06:50:44.000Z</time>
      </trkpt>
      <trkpt lat="42.39651524461805820465087890625" lon="0.93143287114799022674560546875">
        <ele>1456.800048828125</ele>
        <time>2020-08-14T06:50:49.000Z</time>
      </trkpt>
      <trkpt lat="42.3965159989893436431884765625" lon="0.9312896244227886199951171875">
        <ele>1456.199951171875</ele>
        <time>2020-08-14T06:50:59.000Z</time>
      </trkpt>
      <trkpt lat="42.3965210281312465667724609375" lon="0.93119214288890361785888671875">
        <ele>1456.199951171875</ele>
        <time>2020-08-14T06:51:07.000Z</time>
      </trkpt>
      <trkpt lat="42.39650216884911060333251953125" lon="0.93115492723882198333740234375">
        <ele>1456</ele>
        <time>2020-08-14T06:51:12.000Z</time>
      </trkpt>
      <trkpt lat="42.39650267176330089569091796875" lon="0.93115442432463169097900390625">
        <ele>1455.800048828125</ele>
        <time>2020-08-14T06:51:13.000Z</time>
      </trkpt>
      <trkpt lat="42.39650233648717403411865234375" lon="0.93115258030593395233154296875">
        <ele>1455.4000244140625</ele>
        <time>2020-08-14T06:51:36.000Z</time>
      </trkpt>
      <trkpt lat="42.39650283940136432647705078125" lon="0.93115207739174365997314453125">
        <ele>1455.5999755859375</ele>
        <time>2020-08-14T06:52:14.000Z</time>
      </trkpt>
      <trkpt lat="42.3965025879442691802978515625" lon="0.93115241266787052154541015625">
        <ele>1455.4000244140625</ele>
        <time>2020-08-14T06:52:27.000Z</time>
      </trkpt>
      <trkpt lat="42.39651004783809185028076171875" lon="0.931126512587070465087890625">
        <ele>1455.800048828125</ele>
        <time>2020-08-14T06:52:33.000Z</time>
      </trkpt>
      <trkpt lat="42.39652027375996112823486328125" lon="0.931052081286907196044921875">
        <ele>1455.800048828125</ele>
        <time>2020-08-14T06:52:41.000Z</time>
      </trkpt>
      <trkpt lat="42.39653066731989383697509765625" lon="0.9309865348041057586669921875">
        <ele>1456</ele>
        <time>2020-08-14T06:52:48.000Z</time>
      </trkpt>
      <trkpt lat="42.39656855352222919464111328125" lon="0.93088704161345958709716796875">
        <ele>1456.4000244140625</ele>
        <time>2020-08-14T06:52:57.000Z</time>
      </trkpt>
      <trkpt lat="42.396585233509540557861328125" lon="0.93083507381379604339599609375">
        <ele>1456.800048828125</ele>
        <time>2020-08-14T06:53:02.000Z</time>
      </trkpt>
      <trkpt lat="42.39659839309751987457275390625" lon="0.9308168850839138031005859375">
        <ele>1456.800048828125</ele>
        <time>2020-08-14T06:53:04.000Z</time>
      </trkpt>
      <trkpt lat="42.39664600230753421783447265625" lon="0.93076952733099460601806640625">
        <ele>1457</ele>
        <time>2020-08-14T06:53:11.000Z</time>
      </trkpt>
      <trkpt lat="42.39665304310619831085205078125" lon="0.93076315708458423614501953125">
        <ele>1457</ele>
        <time>2020-08-14T06:53:12.000Z</time>
      </trkpt>
      <trkpt lat="42.39671892486512660980224609375" lon="0.93069643713533878326416015625">
        <ele>1457.199951171875</ele>
        <time>2020-08-14T06:53:22.000Z</time>
      </trkpt>
      <trkpt lat="42.396762929856777191162109375" lon="0.93066148459911346435546875">
        <ele>1458</ele>
        <time>2020-08-14T06:53:28.000Z</time>
      </trkpt>
      <trkpt lat="42.3967681266367435455322265625" lon="0.93065536580979824066162109375">
        <ele>1458</ele>
        <time>2020-08-14T06:53:29.000Z</time>
      </trkpt>
      <trkpt lat="42.39679872058331966400146484375" lon="0.930588059127330780029296875">
        <ele>1458.199951171875</ele>
        <time>2020-08-14T06:53:36.000Z</time>
      </trkpt>
      <trkpt lat="42.396804504096508026123046875" lon="0.93057791702449321746826171875">
        <ele>1458.199951171875</ele>
        <time>2020-08-14T06:53:37.000Z</time>
      </trkpt>
      <trkpt lat="42.39682218991219997406005859375" lon="0.93055075965821743011474609375">
        <ele>1458</ele>
        <time>2020-08-14T06:53:40.000Z</time>
      </trkpt>
      <trkpt lat="42.3968422226607799530029296875" lon="0.930505581200122833251953125">
        <ele>1458</ele>
        <time>2020-08-14T06:53:44.000Z</time>
      </trkpt>
      <trkpt lat="42.39687214605510234832763671875" lon="0.930416397750377655029296875">
        <ele>1458.5999755859375</ele>
        <time>2020-08-14T06:53:52.000Z</time>
      </trkpt>
      <trkpt lat="42.39687382243573665618896484375" lon="0.93039326369762420654296875">
        <ele>1458.5999755859375</ele>
        <time>2020-08-14T06:53:54.000Z</time>
      </trkpt>
      <trkpt lat="42.39688304252922534942626953125" lon="0.93027063645422458648681640625">
        <ele>1458.800048828125</ele>
        <time>2020-08-14T06:54:03.000Z</time>
      </trkpt>
      <trkpt lat="42.39689444191753864288330078125" lon="0.93021799810230731964111328125">
        <ele>1459</ele>
        <time>2020-08-14T06:54:08.000Z</time>
      </trkpt>
      <trkpt lat="42.39689343608915805816650390625" lon="0.930195115506649017333984375">
        <ele>1459.199951171875</ele>
        <time>2020-08-14T06:54:11.000Z</time>
      </trkpt>
      <trkpt lat="42.39689494483172893524169921875" lon="0.93014172278344631195068359375">
        <ele>1459.5999755859375</ele>
        <time>2020-08-14T06:54:18.000Z</time>
      </trkpt>
      <trkpt lat="42.39692511968314647674560546875" lon="0.93007885850965976715087890625">
        <ele>1460.199951171875</ele>
        <time>2020-08-14T06:54:25.000Z</time>
      </trkpt>
      <trkpt lat="42.39692880772054195404052734375" lon="0.93007131479680538177490234375">
        <ele>1460.4000244140625</ele>
        <time>2020-08-14T06:54:26.000Z</time>
      </trkpt>
      <trkpt lat="42.3969300650060176849365234375" lon="0.9300179220736026763916015625">
        <ele>1461.199951171875</ele>
        <time>2020-08-14T06:54:32.000Z</time>
      </trkpt>
      <trkpt lat="42.3969293944537639617919921875" lon="0.9300125576555728912353515625">
        <ele>1461.199951171875</ele>
        <time>2020-08-14T06:54:33.000Z</time>
      </trkpt>
      <trkpt lat="42.3969293944537639617919921875" lon="0.9300001524388790130615234375">
        <ele>1461.4000244140625</ele>
        <time>2020-08-14T06:54:38.000Z</time>
      </trkpt>
      <trkpt lat="42.3969287239015102386474609375" lon="0.92994399368762969970703125">
        <ele>1462.199951171875</ele>
        <time>2020-08-14T06:54:44.000Z</time>
      </trkpt>
      <trkpt lat="42.39693484269082546234130859375" lon="0.92991842888295650482177734375">
        <ele>1462.800048828125</ele>
        <time>2020-08-14T06:54:47.000Z</time>
      </trkpt>
      <trkpt lat="42.39692126400768756866455078125" lon="0.92985841445624828338623046875">
        <ele>1463.4000244140625</ele>
        <time>2020-08-14T06:54:54.000Z</time>
      </trkpt>
      <trkpt lat="42.39691707305610179901123046875" lon="0.92985204420983791351318359375">
        <ele>1463.4000244140625</ele>
        <time>2020-08-14T06:54:55.000Z</time>
      </trkpt>
      <trkpt lat="42.39690206944942474365234375" lon="0.929839052259922027587890625">
        <ele>1463.5999755859375</ele>
        <time>2020-08-14T06:55:01.000Z</time>
      </trkpt>
      <trkpt lat="42.39689310081303119659423828125" lon="0.92976923100650310516357421875">
        <ele>1463.4000244140625</ele>
        <time>2020-08-14T06:55:09.000Z</time>
      </trkpt>
      <trkpt lat="42.39689913578331470489501953125" lon="0.92971944250166416168212890625">
        <ele>1463.4000244140625</ele>
        <time>2020-08-14T06:55:16.000Z</time>
      </trkpt>
      <trkpt lat="42.39689544774591922760009765625" lon="0.929643251001834869384765625">
        <ele>1463</ele>
        <time>2020-08-14T06:55:23.000Z</time>
      </trkpt>
      <trkpt lat="42.39694900810718536376953125" lon="0.9295559115707874298095703125">
        <ele>1462.4000244140625</ele>
        <time>2020-08-14T06:55:31.000Z</time>
      </trkpt>
      <trkpt lat="42.39700273610651493072509765625" lon="0.9294992499053478240966796875">
        <ele>1462.5999755859375</ele>
        <time>2020-08-14T06:55:40.000Z</time>
      </trkpt>
      <trkpt lat="42.39703693427145481109619140625" lon="0.9294020198285579681396484375">
        <ele>1462.4000244140625</ele>
        <time>2020-08-14T06:55:48.000Z</time>
      </trkpt>
      <trkpt lat="42.39707113243639469146728515625" lon="0.929286181926727294921875">
        <ele>1463</ele>
        <time>2020-08-14T06:55:58.000Z</time>
      </trkpt>
      <trkpt lat="42.39708940498530864715576171875" lon="0.92917554080486297607421875">
        <ele>1463.199951171875</ele>
        <time>2020-08-14T06:56:07.000Z</time>
      </trkpt>
      <trkpt lat="42.397126369178295135498046875" lon="0.92906917445361614227294921875">
        <ele>1463.4000244140625</ele>
        <time>2020-08-14T06:56:16.000Z</time>
      </trkpt>
      <trkpt lat="42.3971654288470745086669921875" lon="0.92900144867599010467529296875">
        <ele>1463.800048828125</ele>
        <time>2020-08-14T06:56:24.000Z</time>
      </trkpt>
      <trkpt lat="42.39718898199498653411865234375" lon="0.92895031906664371490478515625">
        <ele>1463.800048828125</ele>
        <time>2020-08-14T06:56:29.000Z</time>
      </trkpt>
      <trkpt lat="42.3972093500196933746337890625" lon="0.92893271706998348236083984375">
        <ele>1463.800048828125</ele>
        <time>2020-08-14T06:56:32.000Z</time>
      </trkpt>
      <trkpt lat="42.39724430255591869354248046875" lon="0.9288900531828403472900390625">
        <ele>1463.4000244140625</ele>
        <time>2020-08-14T06:56:40.000Z</time>
      </trkpt>
      <trkpt lat="42.39727900363504886627197265625" lon="0.92887069098651409149169921875">
        <ele>1463.5999755859375</ele>
        <time>2020-08-14T06:56:48.000Z</time>
      </trkpt>
      <trkpt lat="42.39735645242035388946533203125" lon="0.92882953584194183349609375">
        <ele>1463.5999755859375</ele>
        <time>2020-08-14T06:56:56.000Z</time>
      </trkpt>
      <trkpt lat="42.3974353261291980743408203125" lon="0.92883112840354442596435546875">
        <ele>1463.5999755859375</ele>
        <time>2020-08-14T06:57:04.000Z</time>
      </trkpt>
      <trkpt lat="42.39746608771383762359619140625" lon="0.9288001991808414459228515625">
        <ele>1463.4000244140625</ele>
        <time>2020-08-14T06:57:11.000Z</time>
      </trkpt>
      <trkpt lat="42.3975342325866222381591796875" lon="0.92872668989002704620361328125">
        <ele>1462.800048828125</ele>
        <time>2020-08-14T06:57:20.000Z</time>
      </trkpt>
      <trkpt lat="42.39757605828344821929931640625" lon="0.92868343926966190338134765625">
        <ele>1462.5999755859375</ele>
        <time>2020-08-14T06:57:27.000Z</time>
      </trkpt>
      <trkpt lat="42.3976032994687557220458984375" lon="0.9286285378038883209228515625">
        <ele>1463</ele>
        <time>2020-08-14T06:57:33.000Z</time>
      </trkpt>
      <trkpt lat="42.39764235913753509521484375" lon="0.92850339598953723907470703125">
        <ele>1463.5999755859375</ele>
        <time>2020-08-14T06:57:44.000Z</time>
      </trkpt>
      <trkpt lat="42.39767722785472869873046875" lon="0.928431563079357147216796875">
        <ele>1463.5999755859375</ele>
        <time>2020-08-14T06:57:52.000Z</time>
      </trkpt>
      <trkpt lat="42.3977221548557281494140625" lon="0.92835369519889354705810546875">
        <ele>1463.800048828125</ele>
        <time>2020-08-14T06:58:00.000Z</time>
      </trkpt>
      <trkpt lat="42.39774403162300586700439453125" lon="0.92830717563629150390625">
        <ele>1464</ele>
        <time>2020-08-14T06:58:06.000Z</time>
      </trkpt>
      <trkpt lat="42.39775425754487514495849609375" lon="0.9282996319234371185302734375">
        <ele>1464.199951171875</ele>
        <time>2020-08-14T06:58:11.000Z</time>
      </trkpt>
      <trkpt lat="42.3977581970393657684326171875" lon="0.92829803936183452606201171875">
        <ele>1464.199951171875</ele>
        <time>2020-08-14T06:58:12.000Z</time>
      </trkpt>
      <trkpt lat="42.3977838456630706787109375" lon="0.92826786451041698455810546875">
        <ele>1464.5999755859375</ele>
        <time>2020-08-14T06:58:18.000Z</time>
      </trkpt>
      <trkpt lat="42.39781108684837818145751953125" lon="0.92822511680424213409423828125">
        <ele>1464.5999755859375</ele>
        <time>2020-08-14T06:58:24.000Z</time>
      </trkpt>
      <trkpt lat="42.39782131277024745941162109375" lon="0.92820147983729839324951171875">
        <ele>1464.4000244140625</ele>
        <time>2020-08-14T06:58:32.000Z</time>
      </trkpt>
      <trkpt lat="42.39783120341598987579345703125" lon="0.9281819500029087066650390625">
        <ele>1464.5999755859375</ele>
        <time>2020-08-14T06:58:38.000Z</time>
      </trkpt>
      <trkpt lat="42.3978195525705814361572265625" lon="0.92813844792544841766357421875">
        <ele>1464.4000244140625</ele>
        <time>2020-08-14T06:58:44.000Z</time>
      </trkpt>
      <trkpt lat="42.39781142212450504302978515625" lon="0.928107686340808868408203125">
        <ele>1464.4000244140625</ele>
        <time>2020-08-14T06:58:51.000Z</time>
      </trkpt>
      <trkpt lat="42.39779884926974773406982421875" lon="0.92808396555483341217041015625">
        <ele>1464.4000244140625</ele>
        <time>2020-08-14T06:58:54.000Z</time>
      </trkpt>
      <trkpt lat="42.39779365248978137969970703125" lon="0.9280780144035816192626953125">
        <ele>1464.4000244140625</ele>
        <time>2020-08-14T06:58:57.000Z</time>
      </trkpt>
      <trkpt lat="42.39779197610914707183837890625" lon="0.92807692475616931915283203125">
        <ele>1464.5999755859375</ele>
        <time>2020-08-14T06:59:10.000Z</time>
      </trkpt>
      <trkpt lat="42.39778392948210239410400390625" lon="0.92804976738989353179931640625">
        <ele>1464.5999755859375</ele>
        <time>2020-08-14T06:59:30.000Z</time>
      </trkpt>
      <trkpt lat="42.39775710739195346832275390625" lon="0.9279920160770416259765625">
        <ele>1464.199951171875</ele>
        <time>2020-08-14T06:59:37.000Z</time>
      </trkpt>
      <trkpt lat="42.397755347192287445068359375" lon="0.92790895141661167144775390625">
        <ele>1464.5999755859375</ele>
        <time>2020-08-14T06:59:44.000Z</time>
      </trkpt>
      <trkpt lat="42.39774336107075214385986328125" lon="0.92783116735517978668212890625">
        <ele>1464.5999755859375</ele>
        <time>2020-08-14T06:59:52.000Z</time>
      </trkpt>
      <trkpt lat="42.39774403162300586700439453125" lon="0.9277477674186229705810546875">
        <ele>1465.199951171875</ele>
        <time>2020-08-14T07:00:00.000Z</time>
      </trkpt>
      <trkpt lat="42.3977421037852764129638671875" lon="0.92773653566837310791015625">
        <ele>1465.199951171875</ele>
        <time>2020-08-14T07:00:01.000Z</time>
      </trkpt>
      <trkpt lat="42.3977125994861125946044921875" lon="0.92766738496720790863037109375">
        <ele>1465.199951171875</ele>
        <time>2020-08-14T07:00:08.000Z</time>
      </trkpt>
      <trkpt lat="42.39770832471549510955810546875" lon="0.9276424907147884368896484375">
        <ele>1464.800048828125</ele>
        <time>2020-08-14T07:00:16.000Z</time>
      </trkpt>
      <trkpt lat="42.3977038823068141937255859375" lon="0.92759295366704463958740234375">
        <ele>1464.800048828125</ele>
        <time>2020-08-14T07:00:23.000Z</time>
      </trkpt>
      <trkpt lat="42.39769474603235721588134765625" lon="0.9275628626346588134765625">
        <ele>1465</ele>
        <time>2020-08-14T07:00:29.000Z</time>
      </trkpt>
      <trkpt lat="42.397693656384944915771484375" lon="0.9275650419294834136962890625">
        <ele>1465</ele>
        <time>2020-08-14T07:00:39.000Z</time>
      </trkpt>
      <trkpt lat="42.39769659005105495452880859375" lon="0.92756445519626140594482421875">
        <ele>1465</ele>
        <time>2020-08-14T07:00:49.000Z</time>
      </trkpt>
      <trkpt lat="42.3976951651275157928466796875" lon="0.9275647066533565521240234375">
        <ele>1465</ele>
        <time>2020-08-14T07:01:03.000Z</time>
      </trkpt>
      <trkpt lat="42.39768753759562969207763671875" lon="0.9275134094059467315673828125">
        <ele>1465</ele>
        <time>2020-08-14T07:01:12.000Z</time>
      </trkpt>
      <trkpt lat="42.39768954925239086151123046875" lon="0.9274272434413433074951171875">
        <ele>1465.199951171875</ele>
        <time>2020-08-14T07:01:22.000Z</time>
      </trkpt>
      <trkpt lat="42.39768904633820056915283203125" lon="0.92739011161029338836669921875">
        <ele>1465.199951171875</ele>
        <time>2020-08-14T07:01:30.000Z</time>
      </trkpt>
      <trkpt lat="42.397699020802974700927734375" lon="0.927352644503116607666015625">
        <ele>1465.4000244140625</ele>
        <time>2020-08-14T07:01:39.000Z</time>
      </trkpt>
      <trkpt lat="42.39770933054387569427490234375" lon="0.92728299088776111602783203125">
        <ele>1465.4000244140625</ele>
        <time>2020-08-14T07:01:47.000Z</time>
      </trkpt>
      <trkpt lat="42.397712767124176025390625" lon="0.927241332828998565673828125">
        <ele>1466</ele>
        <time>2020-08-14T07:01:52.000Z</time>
      </trkpt>
      <trkpt lat="42.39771033637225627899169921875" lon="0.92721057124435901641845703125">
        <ele>1466.199951171875</ele>
        <time>2020-08-14T07:01:56.000Z</time>
      </trkpt>
      <trkpt lat="42.3977115936577320098876953125" lon="0.9271731041371822357177734375">
        <ele>1466.4000244140625</ele>
        <time>2020-08-14T07:02:02.000Z</time>
      </trkpt>
      <trkpt lat="42.3977089114487171173095703125" lon="0.9271727688610553741455078125">
        <ele>1466.4000244140625</ele>
        <time>2020-08-14T07:02:16.000Z</time>
      </trkpt>
      <trkpt lat="42.39771687425673007965087890625" lon="0.92713060788810253143310546875">
        <ele>1466.5999755859375</ele>
        <time>2020-08-14T07:02:23.000Z</time>
      </trkpt>
      <trkpt lat="42.39772592671215534210205078125" lon="0.927066989243030548095703125">
        <ele>1467</ele>
        <time>2020-08-14T07:02:30.000Z</time>
      </trkpt>
      <trkpt lat="42.39772617816925048828125" lon="0.92705533839762210845947265625">
        <ele>1466.800048828125</ele>
        <time>2020-08-14T07:02:31.000Z</time>
      </trkpt>
      <trkpt lat="42.39772014319896697998046875" lon="0.92697881162166595458984375">
        <ele>1467.5999755859375</ele>
        <time>2020-08-14T07:02:39.000Z</time>
      </trkpt>
      <trkpt lat="42.3977186344563961029052734375" lon="0.92691066674888134002685546875">
        <ele>1468</ele>
        <time>2020-08-14T07:02:45.000Z</time>
      </trkpt>
      <trkpt lat="42.39771620370447635650634765625" lon="0.92689909972250461578369140625">
        <ele>1468</ele>
        <time>2020-08-14T07:02:46.000Z</time>
      </trkpt>
      <trkpt lat="42.39771788008511066436767578125" lon="0.92683137394487857818603515625">
        <ele>1468.800048828125</ele>
        <time>2020-08-14T07:02:53.000Z</time>
      </trkpt>
      <trkpt lat="42.39771670661866664886474609375" lon="0.9268187172710895538330078125">
        <ele>1469</ele>
        <time>2020-08-14T07:02:55.000Z</time>
      </trkpt>
      <trkpt lat="42.3977248370647430419921875" lon="0.926761887967586517333984375">
        <ele>1469.5999755859375</ele>
        <time>2020-08-14T07:03:01.000Z</time>
      </trkpt>
      <trkpt lat="42.39772894419729709625244140625" lon="0.92672802507877349853515625">
        <ele>1470.199951171875</ele>
        <time>2020-08-14T07:03:05.000Z</time>
      </trkpt>
      <trkpt lat="42.3977253399789333343505859375" lon="0.9266950003802776336669921875">
        <ele>1470.5999755859375</ele>
        <time>2020-08-14T07:03:09.000Z</time>
      </trkpt>
      <trkpt lat="42.39771335385739803314208984375" lon="0.9266292862594127655029296875">
        <ele>1471.199951171875</ele>
        <time>2020-08-14T07:03:16.000Z</time>
      </trkpt>
      <trkpt lat="42.397712767124176025390625" lon="0.9266165457665920257568359375">
        <ele>1471.4000244140625</ele>
        <time>2020-08-14T07:03:17.000Z</time>
      </trkpt>
      <trkpt lat="42.3977229930460453033447265625" lon="0.926551334559917449951171875">
        <ele>1471.800048828125</ele>
        <time>2020-08-14T07:03:23.000Z</time>
      </trkpt>
      <trkpt lat="42.3977293632924556732177734375" lon="0.92649978585541248321533203125">
        <ele>1472.4000244140625</ele>
        <time>2020-08-14T07:03:29.000Z</time>
      </trkpt>
      <trkpt lat="42.39773129113018512725830078125" lon="0.9264619834721088409423828125">
        <ele>1473</ele>
        <time>2020-08-14T07:03:33.000Z</time>
      </trkpt>
      <trkpt lat="42.3977347277104854583740234375" lon="0.92642493546009063720703125">
        <ele>1473.199951171875</ele>
        <time>2020-08-14T07:03:37.000Z</time>
      </trkpt>
      <trkpt lat="42.39773430861532688140869140625" lon="0.92640808783471584320068359375">
        <ele>1473.4000244140625</ele>
        <time>2020-08-14T07:03:39.000Z</time>
      </trkpt>
      <trkpt lat="42.39774738438427448272705078125" lon="0.9263459779322147369384765625">
        <ele>1474.199951171875</ele>
        <time>2020-08-14T07:03:47.000Z</time>
      </trkpt>
      <trkpt lat="42.397750653326511383056640625" lon="0.9263329021632671356201171875">
        <ele>1474.5999755859375</ele>
        <time>2020-08-14T07:03:49.000Z</time>
      </trkpt>
      <trkpt lat="42.39775274880230426788330078125" lon="0.92629526741802692413330078125">
        <ele>1475.199951171875</ele>
        <time>2020-08-14T07:03:54.000Z</time>
      </trkpt>
      <trkpt lat="42.39776515401899814605712890625" lon="0.9262386895716190338134765625">
        <ele>1475.4000244140625</ele>
        <time>2020-08-14T07:04:03.000Z</time>
      </trkpt>
      <trkpt lat="42.3977746255695819854736328125" lon="0.926226787269115447998046875">
        <ele>1475.5999755859375</ele>
        <time>2020-08-14T07:04:05.000Z</time>
      </trkpt>
      <trkpt lat="42.39778141491115093231201171875" lon="0.92618747614324092864990234375">
        <ele>1476.199951171875</ele>
        <time>2020-08-14T07:04:10.000Z</time>
      </trkpt>
      <trkpt lat="42.3977913893759250640869140625" lon="0.9261548705399036407470703125">
        <ele>1476.800048828125</ele>
        <time>2020-08-14T07:04:15.000Z</time>
      </trkpt>
      <trkpt lat="42.39779013209044933319091796875" lon="0.92612855136394500732421875">
        <ele>1476.800048828125</ele>
        <time>2020-08-14T07:04:19.000Z</time>
      </trkpt>
      <trkpt lat="42.3977893777191638946533203125" lon="0.9261042438447475433349609375">
        <ele>1477.199951171875</ele>
        <time>2020-08-14T07:04:28.000Z</time>
      </trkpt>
      <trkpt lat="42.39778124727308750152587890625" lon="0.92607934959232807159423828125">
        <ele>1476.800048828125</ele>
        <time>2020-08-14T07:04:42.000Z</time>
      </trkpt>
      <trkpt lat="42.3977749608457088470458984375" lon="0.9260495938360691070556640625">
        <ele>1476.800048828125</ele>
        <time>2020-08-14T07:04:50.000Z</time>
      </trkpt>
      <trkpt lat="42.397772781550884246826171875" lon="0.92604246921837329864501953125">
        <ele>1476.5999755859375</ele>
        <time>2020-08-14T07:05:01.000Z</time>
      </trkpt>
      <trkpt lat="42.3977692611515522003173828125" lon="0.92603643424808979034423828125">
        <ele>1476.4000244140625</ele>
        <time>2020-08-14T07:05:11.000Z</time>
      </trkpt>
      <trkpt lat="42.39776096306741237640380859375" lon="0.92601430602371692657470703125">
        <ele>1475.800048828125</ele>
        <time>2020-08-14T07:05:21.000Z</time>
      </trkpt>
      <trkpt lat="42.3977530002593994140625" lon="0.92599578201770782470703125">
        <ele>1475.199951171875</ele>
        <time>2020-08-14T07:05:28.000Z</time>
      </trkpt>
      <trkpt lat="42.3977535031735897064208984375" lon="0.9259956143796443939208984375">
        <ele>1475</ele>
        <time>2020-08-14T07:05:29.000Z</time>
      </trkpt>
      <trkpt lat="42.3977481387555599212646484375" lon="0.925984717905521392822265625">
        <ele>1474.800048828125</ele>
        <time>2020-08-14T07:05:37.000Z</time>
      </trkpt>
      <trkpt lat="42.39774763584136962890625" lon="0.9259684570133686065673828125">
        <ele>1474.5999755859375</ele>
        <time>2020-08-14T07:05:40.000Z</time>
      </trkpt>
      <trkpt lat="42.39775492809712886810302734375" lon="0.9259376116096973419189453125">
        <ele>1474.4000244140625</ele>
        <time>2020-08-14T07:05:46.000Z</time>
      </trkpt>
      <trkpt lat="42.3977498151361942291259765625" lon="0.925909616053104400634765625">
        <ele>1474</ele>
        <time>2020-08-14T07:05:54.000Z</time>
      </trkpt>
      <trkpt lat="42.3977441154420375823974609375" lon="0.92589712701737880706787109375">
        <ele>1473.5999755859375</ele>
        <time>2020-08-14T07:06:01.000Z</time>
      </trkpt>
      <trkpt lat="42.3977437801659107208251953125" lon="0.92589712701737880706787109375">
        <ele>1473.5999755859375</ele>
        <time>2020-08-14T07:06:05.000Z</time>
      </trkpt>
      <trkpt lat="42.3977434448897838592529296875" lon="0.92589746229350566864013671875">
        <ele>1473.199951171875</ele>
        <time>2020-08-14T07:06:39.000Z</time>
      </trkpt>
      <trkpt lat="42.397744953632354736328125" lon="0.925877094268798828125">
        <ele>1473</ele>
        <time>2020-08-14T07:06:48.000Z</time>
      </trkpt>
      <trkpt lat="42.39773481152951717376708984375" lon="0.925853960216045379638671875">
        <ele>1472.4000244140625</ele>
        <time>2020-08-14T07:06:59.000Z</time>
      </trkpt>
      <trkpt lat="42.397725842893123626708984375" lon="0.92582973651587963104248046875">
        <ele>1471.4000244140625</ele>
        <time>2020-08-14T07:07:09.000Z</time>
      </trkpt>
      <trkpt lat="42.39772542379796504974365234375" lon="0.92582655139267444610595703125">
        <ele>1471.199951171875</ele>
        <time>2020-08-14T07:07:10.000Z</time>
      </trkpt>
      <trkpt lat="42.39773129113018512725830078125" lon="0.92580274678766727447509765625">
        <ele>1470.5999755859375</ele>
        <time>2020-08-14T07:07:17.000Z</time>
      </trkpt>
      <trkpt lat="42.3977491445839405059814453125" lon="0.92577709816396236419677734375">
        <ele>1470.5999755859375</ele>
        <time>2020-08-14T07:07:27.000Z</time>
      </trkpt>
      <trkpt lat="42.39775258116424083709716796875" lon="0.92575966380536556243896484375">
        <ele>1470.800048828125</ele>
        <time>2020-08-14T07:07:34.000Z</time>
      </trkpt>
      <trkpt lat="42.3977558501064777374267578125" lon="0.9257421456277370452880859375">
        <ele>1470.5999755859375</ele>
        <time>2020-08-14T07:07:41.000Z</time>
      </trkpt>
      <trkpt lat="42.39775660447776317596435546875" lon="0.92574122361838817596435546875">
        <ele>1470.199951171875</ele>
        <time>2020-08-14T07:07:49.000Z</time>
      </trkpt>
      <trkpt lat="42.3977568559348583221435546875" lon="0.92574122361838817596435546875">
        <ele>1470.4000244140625</ele>
        <time>2020-08-14T07:07:51.000Z</time>
      </trkpt>
      <trkpt lat="42.39776012487709522247314453125" lon="0.92572211287915706634521484375">
        <ele>1470.5999755859375</ele>
        <time>2020-08-14T07:07:59.000Z</time>
      </trkpt>
      <trkpt lat="42.39775903522968292236328125" lon="0.92570216394960880279541015625">
        <ele>1470.4000244140625</ele>
        <time>2020-08-14T07:08:08.000Z</time>
      </trkpt>
      <trkpt lat="42.3977618850767612457275390625" lon="0.92568774707615375518798828125">
        <ele>1470.4000244140625</ele>
        <time>2020-08-14T07:08:17.000Z</time>
      </trkpt>
      <trkpt lat="42.39776079542934894561767578125" lon="0.9256771020591259002685546875">
        <ele>1470.4000244140625</ele>
        <time>2020-08-14T07:08:28.000Z</time>
      </trkpt>
      <trkpt lat="42.39776699803769588470458984375" lon="0.925658829510211944580078125">
        <ele>1470.199951171875</ele>
        <time>2020-08-14T07:08:34.000Z</time>
      </trkpt>
      <trkpt lat="42.39776465110480785369873046875" lon="0.925637371838092803955078125">
        <ele>1470.4000244140625</ele>
        <time>2020-08-14T07:08:41.000Z</time>
      </trkpt>
      <trkpt lat="42.397760711610317230224609375" lon="0.9256261400878429412841796875">
        <ele>1470</ele>
        <time>2020-08-14T07:08:48.000Z</time>
      </trkpt>
      <trkpt lat="42.39776171743869781494140625" lon="0.925619602203369140625">
        <ele>1470.5999755859375</ele>
        <time>2020-08-14T07:09:00.000Z</time>
      </trkpt>
      <trkpt lat="42.3977622203528881072998046875" lon="0.92561264522373676300048828125">
        <ele>1470.800048828125</ele>
        <time>2020-08-14T07:09:09.000Z</time>
      </trkpt>
      <trkpt lat="42.3977642320096492767333984375" lon="0.9256088733673095703125">
        <ele>1470.5999755859375</ele>
        <time>2020-08-14T07:09:17.000Z</time>
      </trkpt>
      <trkpt lat="42.39776699803769588470458984375" lon="0.92559185810387134552001953125">
        <ele>1470.5999755859375</ele>
        <time>2020-08-14T07:09:41.000Z</time>
      </trkpt>
      <trkpt lat="42.39777185954153537750244140625" lon="0.92556931078433990478515625">
        <ele>1471</ele>
        <time>2020-08-14T07:09:47.000Z</time>
      </trkpt>
      <trkpt lat="42.3977806605398654937744140625" lon="0.925542153418064117431640625">
        <ele>1471.199951171875</ele>
        <time>2020-08-14T07:09:53.000Z</time>
      </trkpt>
      <trkpt lat="42.39778711460530757904052734375" lon="0.92552497051656246185302734375">
        <ele>1471.5999755859375</ele>
        <time>2020-08-14T07:10:00.000Z</time>
      </trkpt>
      <trkpt lat="42.39779029972851276397705078125" lon="0.92551625333726406097412109375">
        <ele>1471.5999755859375</ele>
        <time>2020-08-14T07:10:08.000Z</time>
      </trkpt>
      <trkpt lat="42.39779214374721050262451171875" lon="0.925497226417064666748046875">
        <ele>1471.199951171875</ele>
        <time>2020-08-14T07:10:16.000Z</time>
      </trkpt>
      <trkpt lat="42.3977972567081451416015625" lon="0.9254779480397701263427734375">
        <ele>1471.4000244140625</ele>
        <time>2020-08-14T07:10:23.000Z</time>
      </trkpt>
      <trkpt lat="42.397800944745540618896484375" lon="0.925455987453460693359375">
        <ele>1471.199951171875</ele>
        <time>2020-08-14T07:10:29.000Z</time>
      </trkpt>
      <trkpt lat="42.39779918454587459564208984375" lon="0.9254424087703227996826171875">
        <ele>1471.199951171875</ele>
        <time>2020-08-14T07:10:39.000Z</time>
      </trkpt>
      <trkpt lat="42.3977980948984622955322265625" lon="0.925421454012393951416015625">
        <ele>1471.199951171875</ele>
        <time>2020-08-14T07:10:47.000Z</time>
      </trkpt>
      <trkpt lat="42.397797591984272003173828125" lon="0.9254063665866851806640625">
        <ele>1470.800048828125</ele>
        <time>2020-08-14T07:10:57.000Z</time>
      </trkpt>
      <trkpt lat="42.3977947421371936798095703125" lon="0.9253927879035472869873046875">
        <ele>1470.5999755859375</ele>
        <time>2020-08-14T07:11:12.000Z</time>
      </trkpt>
      <trkpt lat="42.3977900482714176177978515625" lon="0.9253696538507938385009765625">
        <ele>1470.5999755859375</ele>
        <time>2020-08-14T07:11:20.000Z</time>
      </trkpt>
      <trkpt lat="42.3977877013385295867919921875" lon="0.92535079456865787506103515625">
        <ele>1470.5999755859375</ele>
        <time>2020-08-14T07:11:27.000Z</time>
      </trkpt>
      <trkpt lat="42.397787868976593017578125" lon="0.92534576542675495147705078125">
        <ele>1470.4000244140625</ele>
        <time>2020-08-14T07:11:37.000Z</time>
      </trkpt>
      <trkpt lat="42.3977887071669101715087890625" lon="0.9253435023128986358642578125">
        <ele>1470.5999755859375</ele>
        <time>2020-08-14T07:11:59.000Z</time>
      </trkpt>
      <trkpt lat="42.39779658615589141845703125" lon="0.92530217953026294708251953125">
        <ele>1470.5999755859375</ele>
        <time>2020-08-14T07:12:07.000Z</time>
      </trkpt>
      <trkpt lat="42.39779465831816196441650390625" lon="0.925294719636440277099609375">
        <ele>1470.800048828125</ele>
        <time>2020-08-14T07:12:19.000Z</time>
      </trkpt>
      <trkpt lat="42.3977991007268428802490234375" lon="0.92526764608919620513916015625">
        <ele>1471</ele>
        <time>2020-08-14T07:12:27.000Z</time>
      </trkpt>
      <trkpt lat="42.3977999389171600341796875" lon="0.92526295222342014312744140625">
        <ele>1471</ele>
        <time>2020-08-14T07:12:29.000Z</time>
      </trkpt>
      <trkpt lat="42.39780136384069919586181640625" lon="0.9252516366541385650634765625">
        <ele>1471.4000244140625</ele>
        <time>2020-08-14T07:12:36.000Z</time>
      </trkpt>
      <trkpt lat="42.3978058062493801116943359375" lon="0.92524803243577480316162109375">
        <ele>1471.5999755859375</ele>
        <time>2020-08-14T07:12:51.000Z</time>
      </trkpt>
      <trkpt lat="42.39780865609645843505859375" lon="0.9252365492284297943115234375">
        <ele>1471.800048828125</ele>
        <time>2020-08-14T07:13:00.000Z</time>
      </trkpt>
      <trkpt lat="42.39781460724771022796630859375" lon="0.92522691003978252410888671875">
        <ele>1472</ele>
        <time>2020-08-14T07:13:07.000Z</time>
      </trkpt>
      <trkpt lat="42.3978185467422008514404296875" lon="0.925204195082187652587890625">
        <ele>1472</ele>
        <time>2020-08-14T07:13:13.000Z</time>
      </trkpt>
      <trkpt lat="42.397820390760898590087890625" lon="0.9251939691603183746337890625">
        <ele>1472.199951171875</ele>
        <time>2020-08-14T07:13:24.000Z</time>
      </trkpt>
      <trkpt lat="42.39782097749412059783935546875" lon="0.92519455589354038238525390625">
        <ele>1472.199951171875</ele>
        <time>2020-08-14T07:13:44.000Z</time>
      </trkpt>
      <trkpt lat="42.3978212289512157440185546875" lon="0.92519472353160381317138671875">
        <ele>1472.199951171875</ele>
        <time>2020-08-14T07:14:08.000Z</time>
      </trkpt>
      <trkpt lat="42.3978212289512157440185546875" lon="0.92519472353160381317138671875">
        <ele>1472.199951171875</ele>
        <time>2020-08-14T07:14:53.000Z</time>
      </trkpt>
      <trkpt lat="42.39782131277024745941162109375" lon="0.9251939691603183746337890625">
        <ele>1472.199951171875</ele>
        <time>2020-08-14T07:15:14.000Z</time>
      </trkpt>
      <trkpt lat="42.39782164804637432098388671875" lon="0.9251953102648258209228515625">
        <ele>1472.199951171875</ele>
        <time>2020-08-14T07:15:54.000Z</time>
      </trkpt>
      <trkpt lat="42.39781879819929599761962890625" lon="0.92519137077033519744873046875">
        <ele>1472</ele>
        <time>2020-08-14T07:16:01.000Z</time>
      </trkpt>
      <trkpt lat="42.39781796000897884368896484375" lon="0.92519086785614490509033203125">
        <ele>1472</ele>
        <time>2020-08-14T07:16:12.000Z</time>
      </trkpt>
      <trkpt lat="42.3978182114660739898681640625" lon="0.92519120313227176666259765625">
        <ele>1472</ele>
        <time>2020-08-14T07:16:33.000Z</time>
      </trkpt>
      <trkpt lat="42.3978178761899471282958984375" lon="0.9251932986080646514892578125">
        <ele>1472</ele>
        <time>2020-08-14T07:17:10.000Z</time>
      </trkpt>
      <trkpt lat="42.39781779237091541290283203125" lon="0.92519380152225494384765625">
        <ele>1472</ele>
        <time>2020-08-14T07:17:36.000Z</time>
      </trkpt>
      <trkpt lat="42.3978182114660739898681640625" lon="0.925193130970001220703125">
        <ele>1472</ele>
        <time>2020-08-14T07:17:57.000Z</time>
      </trkpt>
      <trkpt lat="42.397818379104137420654296875" lon="0.925192795693874359130859375">
        <ele>1472</ele>
        <time>2020-08-14T07:18:17.000Z</time>
      </trkpt>
      <trkpt lat="42.3978185467422008514404296875" lon="0.9251929633319377899169921875">
        <ele>1472</ele>
        <time>2020-08-14T07:18:24.000Z</time>
      </trkpt>
      <trkpt lat="42.39781536161899566650390625" lon="0.92519287951290607452392578125">
        <ele>1472</ele>
        <time>2020-08-14T07:18:39.000Z</time>
      </trkpt>
      <trkpt lat="42.39781578071415424346923828125" lon="0.92519371770322322845458984375">
        <ele>1472.199951171875</ele>
        <time>2020-08-14T07:18:54.000Z</time>
      </trkpt>
      <trkpt lat="42.39781712181866168975830078125" lon="0.9251775406301021575927734375">
        <ele>1472.4000244140625</ele>
        <time>2020-08-14T07:19:01.000Z</time>
      </trkpt>
      <trkpt lat="42.39781670272350311279296875" lon="0.9251658059656620025634765625">
        <ele>1472.5999755859375</ele>
        <time>2020-08-14T07:19:08.000Z</time>
      </trkpt>
      <trkpt lat="42.39782072603702545166015625" lon="0.92515759170055389404296875">
        <ele>1472.5999755859375</ele>
        <time>2020-08-14T07:19:13.000Z</time>
      </trkpt>
      <trkpt lat="42.397825084626674652099609375" lon="0.9251542389392852783203125">
        <ele>1473</ele>
        <time>2020-08-14T07:19:19.000Z</time>
      </trkpt>
      <trkpt lat="42.39783254452049732208251953125" lon="0.9251460246741771697998046875">
        <ele>1473.199951171875</ele>
        <time>2020-08-14T07:19:28.000Z</time>
      </trkpt>
      <trkpt lat="42.39783656783401966094970703125" lon="0.9251383133232593536376953125">
        <ele>1473.5999755859375</ele>
        <time>2020-08-14T07:19:33.000Z</time>
      </trkpt>
      <trkpt lat="42.39783841185271739959716796875" lon="0.92513345181941986083984375">
        <ele>1473.800048828125</ele>
        <time>2020-08-14T07:19:35.000Z</time>
      </trkpt>
      <trkpt lat="42.39783857949078083038330078125" lon="0.92513118870556354522705078125">
        <ele>1473.800048828125</ele>
        <time>2020-08-14T07:19:36.000Z</time>
      </trkpt>
      <trkpt lat="42.3978393338620662689208984375" lon="0.92510453425347805023193359375">
        <ele>1473.800048828125</ele>
        <time>2020-08-14T07:19:45.000Z</time>
      </trkpt>
      <trkpt lat="42.3978500626981258392333984375" lon="0.925087518990039825439453125">
        <ele>1474</ele>
        <time>2020-08-14T07:19:51.000Z</time>
      </trkpt>
      <trkpt lat="42.39785157144069671630859375" lon="0.92506907880306243896484375">
        <ele>1474</ele>
        <time>2020-08-14T07:19:58.000Z</time>
      </trkpt>
      <trkpt lat="42.3978413455188274383544921875" lon="0.925047956407070159912109375">
        <ele>1473.800048828125</ele>
        <time>2020-08-14T07:20:05.000Z</time>
      </trkpt>
      <trkpt lat="42.39783640019595623016357421875" lon="0.92503647319972515106201171875">
        <ele>1473.4000244140625</ele>
        <time>2020-08-14T07:20:12.000Z</time>
      </trkpt>
      <trkpt lat="42.39783287979662418365478515625" lon="0.92500831000506877899169921875">
        <ele>1473</ele>
        <time>2020-08-14T07:20:20.000Z</time>
      </trkpt>
      <trkpt lat="42.39782986231148242950439453125" lon="0.92499506659805774688720703125">
        <ele>1472.5999755859375</ele>
        <time>2020-08-14T07:20:27.000Z</time>
      </trkpt>
      <trkpt lat="42.39782935939729213714599609375" lon="0.9249948151409626007080078125">
        <ele>1472.5999755859375</ele>
        <time>2020-08-14T07:20:29.000Z</time>
      </trkpt>
      <trkpt lat="42.39783019758760929107666015625" lon="0.92498819343745708465576171875">
        <ele>1472.5999755859375</ele>
        <time>2020-08-14T07:20:38.000Z</time>
      </trkpt>
      <trkpt lat="42.39782718010246753692626953125" lon="0.92495416291058063507080078125">
        <ele>1472</ele>
        <time>2020-08-14T07:20:45.000Z</time>
      </trkpt>
      <trkpt lat="42.39783254452049732208251953125" lon="0.92493941076099872589111328125">
        <ele>1472.4000244140625</ele>
        <time>2020-08-14T07:20:50.000Z</time>
      </trkpt>
      <trkpt lat="42.39784226752817630767822265625" lon="0.924924910068511962890625">
        <ele>1472.4000244140625</ele>
        <time>2020-08-14T07:20:56.000Z</time>
      </trkpt>
      <trkpt lat="42.39786288700997829437255859375" lon="0.92490588314831256866455078125">
        <ele>1473.199951171875</ele>
        <time>2020-08-14T07:21:05.000Z</time>
      </trkpt>
      <trkpt lat="42.39786473102867603302001953125" lon="0.9249016083776950836181640625">
        <ele>1473.800048828125</ele>
        <time>2020-08-14T07:21:16.000Z</time>
      </trkpt>
      <trkpt lat="42.39786473102867603302001953125" lon="0.924901105463504791259765625">
        <ele>1473.800048828125</ele>
        <time>2020-08-14T07:21:17.000Z</time>
      </trkpt>
      <trkpt lat="42.3978752084076404571533203125" lon="0.92489850707352161407470703125">
        <ele>1474.4000244140625</ele>
        <time>2020-08-14T07:21:28.000Z</time>
      </trkpt>
      <trkpt lat="42.3978839255869388580322265625" lon="0.92489565722644329071044921875">
        <ele>1474.800048828125</ele>
        <time>2020-08-14T07:21:35.000Z</time>
      </trkpt>
      <trkpt lat="42.39788635633885860443115234375" lon="0.9248938970267772674560546875">
        <ele>1475</ele>
        <time>2020-08-14T07:21:39.000Z</time>
      </trkpt>
      <trkpt lat="42.39788467995822429656982421875" lon="0.92489414848387241363525390625">
        <ele>1475.199951171875</ele>
        <time>2020-08-14T07:21:46.000Z</time>
      </trkpt>
      <trkpt lat="42.397884763777256011962890625" lon="0.924893058836460113525390625">
        <ele>1475</ele>
        <time>2020-08-14T07:21:55.000Z</time>
      </trkpt>
      <trkpt lat="42.39788937382400035858154296875" lon="0.92488937079906463623046875">
        <ele>1475.199951171875</ele>
        <time>2020-08-14T07:22:04.000Z</time>
      </trkpt>
      <trkpt lat="42.39789071492850780487060546875" lon="0.92488509602844715118408203125">
        <ele>1475.4000244140625</ele>
        <time>2020-08-14T07:22:14.000Z</time>
      </trkpt>
      <trkpt lat="42.39789188839495182037353515625" lon="0.92488040216267108917236328125">
        <ele>1475.4000244140625</ele>
        <time>2020-08-14T07:22:25.000Z</time>
      </trkpt>
      <trkpt lat="42.39789473824203014373779296875" lon="0.924870260059833526611328125">
        <ele>1475.199951171875</ele>
        <time>2020-08-14T07:22:34.000Z</time>
      </trkpt>
      <trkpt lat="42.397895492613315582275390625" lon="0.92486791312694549560546875">
        <ele>1475.199951171875</ele>
        <time>2020-08-14T07:22:45.000Z</time>
      </trkpt>
      <trkpt lat="42.3978983424603939056396484375" lon="0.92486280016601085662841796875">
        <ele>1475.5999755859375</ele>
        <time>2020-08-14T07:22:53.000Z</time>
      </trkpt>
      <trkpt lat="42.3978976719081401824951171875" lon="0.9248590283095836639404296875">
        <ele>1475.4000244140625</ele>
        <time>2020-08-14T07:23:09.000Z</time>
      </trkpt>
      <trkpt lat="42.39790429361164569854736328125" lon="0.92485944740474224090576171875">
        <ele>1475.4000244140625</ele>
        <time>2020-08-14T07:23:28.000Z</time>
      </trkpt>
      <trkpt lat="42.39790655672550201416015625" lon="0.92485425062477588653564453125">
        <ele>1475.4000244140625</ele>
        <time>2020-08-14T07:23:38.000Z</time>
      </trkpt>
      <trkpt lat="42.39791569299995899200439453125" lon="0.9248355589807033538818359375">
        <ele>1475.5999755859375</ele>
        <time>2020-08-14T07:23:44.000Z</time>
      </trkpt>
      <trkpt lat="42.39792256616055965423583984375" lon="0.92482633888721466064453125">
        <ele>1475.800048828125</ele>
        <time>2020-08-14T07:23:51.000Z</time>
      </trkpt>
      <trkpt lat="42.39793530665338039398193359375" lon="0.9248114190995693206787109375">
        <ele>1476</ele>
        <time>2020-08-14T07:23:57.000Z</time>
      </trkpt>
      <trkpt lat="42.3979436047375202178955078125" lon="0.9248013608157634735107421875">
        <ele>1476.199951171875</ele>
        <time>2020-08-14T07:24:00.000Z</time>
      </trkpt>
      <trkpt lat="42.39794871769845485687255859375" lon="0.9248006902635097503662109375">
        <ele>1476.4000244140625</ele>
        <time>2020-08-14T07:24:03.000Z</time>
      </trkpt>
      <trkpt lat="42.39796665497124195098876953125" lon="0.9247916378080844879150390625">
        <ele>1476.5999755859375</ele>
        <time>2020-08-14T07:24:08.000Z</time>
      </trkpt>
      <trkpt lat="42.3979821614921092987060546875" lon="0.9247651509940624237060546875">
        <ele>1477</ele>
        <time>2020-08-14T07:24:14.000Z</time>
      </trkpt>
      <trkpt lat="42.39798710681498050689697265625" lon="0.92474930919706821441650390625">
        <ele>1477</ele>
        <time>2020-08-14T07:24:22.000Z</time>
      </trkpt>
      <trkpt lat="42.39801242016255855560302734375" lon="0.92471963725984096527099609375">
        <ele>1477</ele>
        <time>2020-08-14T07:24:29.000Z</time>
      </trkpt>
      <trkpt lat="42.398021221160888671875" lon="0.92471729032695293426513671875">
        <ele>1477</ele>
        <time>2020-08-14T07:24:36.000Z</time>
      </trkpt>
      <trkpt lat="42.39802717231214046478271484375" lon="0.92471905052661895751953125">
        <ele>1477.199951171875</ele>
        <time>2020-08-14T07:24:38.000Z</time>
      </trkpt>
      <trkpt lat="42.39803262054920196533203125" lon="0.92472349293529987335205078125">
        <ele>1477.5999755859375</ele>
        <time>2020-08-14T07:24:42.000Z</time>
      </trkpt>
      <trkpt lat="42.39804469048976898193359375" lon="0.92473120428621768951416015625">
        <ele>1478.199951171875</ele>
        <time>2020-08-14T07:24:48.000Z</time>
      </trkpt>
      <trkpt lat="42.39804980345070362091064453125" lon="0.9247339703142642974853515625">
        <ele>1478.800048828125</ele>
        <time>2020-08-14T07:24:55.000Z</time>
      </trkpt>
      <trkpt lat="42.39805650897324085235595703125" lon="0.92473841272294521331787109375">
        <ele>1479.199951171875</ele>
        <time>2020-08-14T07:25:02.000Z</time>
      </trkpt>
      <trkpt lat="42.39805734716355800628662109375" lon="0.9247393347322940826416015625">
        <ele>1479.4000244140625</ele>
        <time>2020-08-14T07:25:06.000Z</time>
      </trkpt>
      <trkpt lat="42.39805868826806545257568359375" lon="0.9247384965419769287109375">
        <ele>1479.5999755859375</ele>
        <time>2020-08-14T07:25:09.000Z</time>
      </trkpt>
      <trkpt lat="42.39805902354419231414794921875" lon="0.9247430227696895599365234375">
        <ele>1479.5999755859375</ele>
        <time>2020-08-14T07:25:19.000Z</time>
      </trkpt>
      <trkpt lat="42.3980659805238246917724609375" lon="0.92474796809256076812744140625">
        <ele>1480.199951171875</ele>
        <time>2020-08-14T07:25:27.000Z</time>
      </trkpt>
      <trkpt lat="42.3980616219341754913330078125" lon="0.924752242863178253173828125">
        <ele>1480.199951171875</ele>
        <time>2020-08-14T07:25:36.000Z</time>
      </trkpt>
      <trkpt lat="42.39806053228676319122314453125" lon="0.9247581101953983306884765625">
        <ele>1480.4000244140625</ele>
        <time>2020-08-14T07:25:40.000Z</time>
      </trkpt>
      <trkpt lat="42.39806103520095348358154296875" lon="0.92475634999573230743408203125">
        <ele>1480.4000244140625</ele>
        <time>2020-08-14T07:25:44.000Z</time>
      </trkpt>
      <trkpt lat="42.39806204102933406829833984375" lon="0.924769006669521331787109375">
        <ele>1480.4000244140625</ele>
        <time>2020-08-14T07:25:54.000Z</time>
      </trkpt>
      <trkpt lat="42.39806254394352436065673828125" lon="0.92477160505950450897216796875">
        <ele>1480.800048828125</ele>
        <time>2020-08-14T07:25:55.000Z</time>
      </trkpt>
      <trkpt lat="42.39806723780930042266845703125" lon="0.9247867763042449951171875">
        <ele>1481.5999755859375</ele>
        <time>2020-08-14T07:26:03.000Z</time>
      </trkpt>
      <trkpt lat="42.3980693332850933074951171875" lon="0.9247916378080844879150390625">
        <ele>1481.800048828125</ele>
        <time>2020-08-14T07:26:04.000Z</time>
      </trkpt>
      <trkpt lat="42.398081906139850616455078125" lon="0.9248047135770320892333984375">
        <ele>1481.800048828125</ele>
        <time>2020-08-14T07:26:09.000Z</time>
      </trkpt>
      <trkpt lat="42.3980834148824214935302734375" lon="0.92480546794831752777099609375">
        <ele>1482</ele>
        <time>2020-08-14T07:26:19.000Z</time>
      </trkpt>
      <trkpt lat="42.39808358252048492431640625" lon="0.9248053841292858123779296875">
        <ele>1482</ele>
        <time>2020-08-14T07:26:31.000Z</time>
      </trkpt>
      <trkpt lat="42.398116774857044219970703125" lon="0.9247933141887187957763671875">
        <ele>1481.800048828125</ele>
        <time>2020-08-14T07:26:42.000Z</time>
      </trkpt>
      <trkpt lat="42.3981808125972747802734375" lon="0.92476825229823589324951171875">
        <ele>1481.5999755859375</ele>
        <time>2020-08-14T07:26:49.000Z</time>
      </trkpt>
      <trkpt lat="42.398187853395938873291015625" lon="0.9247599542140960693359375">
        <ele>1481.5999755859375</ele>
        <time>2020-08-14T07:26:50.000Z</time>
      </trkpt>
      <trkpt lat="42.39822817035019397735595703125" lon="0.92472667805850505828857421875">
        <ele>1481.800048828125</ele>
        <time>2020-08-14T07:26:55.000Z</time>
      </trkpt>
      <trkpt lat="42.39824451506137847900390625" lon="0.92467471025884151458740234375">
        <ele>1481.5999755859375</ele>
        <time>2020-08-14T07:27:00.000Z</time>
      </trkpt>
      <trkpt lat="42.39823370240628719329833984375" lon="0.924642272293567657470703125">
        <ele>1481.5999755859375</ele>
        <time>2020-08-14T07:27:08.000Z</time>
      </trkpt>
      <trkpt lat="42.39820051006972789764404296875" lon="0.92457144521176815032958984375">
        <ele>1481.800048828125</ele>
        <time>2020-08-14T07:27:15.000Z</time>
      </trkpt>
      <trkpt lat="42.398193217813968658447265625" lon="0.9244949184358119964599609375">
        <ele>1482</ele>
        <time>2020-08-14T07:27:21.000Z</time>
      </trkpt>
      <trkpt lat="42.39814183674752712249755859375" lon="0.9244295395910739898681640625">
        <ele>1482.5999755859375</ele>
        <time>2020-08-14T07:27:29.000Z</time>
      </trkpt>
      <trkpt lat="42.39807209931313991546630859375" lon="0.9243356622755527496337890625">
        <ele>1482.800048828125</ele>
        <time>2020-08-14T07:27:38.000Z</time>
      </trkpt>
      <trkpt lat="42.3980659805238246917724609375" lon="0.92429417185485363006591796875">
        <ele>1483</ele>
        <time>2020-08-14T07:27:41.000Z</time>
      </trkpt>
      <trkpt lat="42.398050390183925628662109375" lon="0.92424086295068264007568359375">
        <ele>1483.199951171875</ele>
        <time>2020-08-14T07:27:45.000Z</time>
      </trkpt>
      <trkpt lat="42.39800990559160709381103515625" lon="0.9241606481373310089111328125">
        <ele>1483.4000244140625</ele>
        <time>2020-08-14T07:27:52.000Z</time>
      </trkpt>
      <trkpt lat="42.3980016075074672698974609375" lon="0.92408604919910430908203125">
        <ele>1484</ele>
        <time>2020-08-14T07:27:59.000Z</time>
      </trkpt>
      <trkpt lat="42.3979957401752471923828125" lon="0.924066603183746337890625">
        <ele>1484.199951171875</ele>
        <time>2020-08-14T07:28:01.000Z</time>
      </trkpt>
      <trkpt lat="42.3979995958507061004638671875" lon="0.92401220463216304779052734375">
        <ele>1484.800048828125</ele>
        <time>2020-08-14T07:28:07.000Z</time>
      </trkpt>
      <trkpt lat="42.39800219424068927764892578125" lon="0.92400533147156238555908203125">
        <ele>1485</ele>
        <time>2020-08-14T07:28:08.000Z</time>
      </trkpt>
      <trkpt lat="42.398023903369903564453125" lon="0.92394699342548847198486328125">
        <ele>1485.800048828125</ele>
        <time>2020-08-14T07:28:16.000Z</time>
      </trkpt>
      <trkpt lat="42.39802784286439418792724609375" lon="0.9239373542368412017822265625">
        <ele>1486</ele>
        <time>2020-08-14T07:28:17.000Z</time>
      </trkpt>
      <trkpt lat="42.39803354255855083465576171875" lon="0.92388144694268703460693359375">
        <ele>1487</ele>
        <time>2020-08-14T07:28:24.000Z</time>
      </trkpt>
      <trkpt lat="42.39803396165370941162109375" lon="0.923872478306293487548828125">
        <ele>1487.199951171875</ele>
        <time>2020-08-14T07:28:25.000Z</time>
      </trkpt>
      <trkpt lat="42.39803907461464405059814453125" lon="0.9238267131149768829345703125">
        <ele>1488.199951171875</ele>
        <time>2020-08-14T07:28:32.000Z</time>
      </trkpt>
      <trkpt lat="42.39803957752883434295654296875" lon="0.9238267131149768829345703125">
        <ele>1488.199951171875</ele>
        <time>2020-08-14T07:28:34.000Z</time>
      </trkpt>
      <trkpt lat="42.39805365912616252899169921875" lon="0.92378622852265834808349609375">
        <ele>1488.5999755859375</ele>
        <time>2020-08-14T07:28:46.000Z</time>
      </trkpt>
      <trkpt lat="42.39806078374385833740234375" lon="0.92377751134335994720458984375">
        <ele>1488.800048828125</ele>
        <time>2020-08-14T07:28:54.000Z</time>
      </trkpt>
      <trkpt lat="42.3980669863522052764892578125" lon="0.92374130152165889739990234375">
        <ele>1489.199951171875</ele>
        <time>2020-08-14T07:29:05.000Z</time>
      </trkpt>
      <trkpt lat="42.39806639961898326873779296875" lon="0.92373124323785305023193359375">
        <ele>1489.199951171875</ele>
        <time>2020-08-14T07:29:06.000Z</time>
      </trkpt>
      <trkpt lat="42.39806748926639556884765625" lon="0.92368816025555133819580078125">
        <ele>1489.800048828125</ele>
        <time>2020-08-14T07:29:13.000Z</time>
      </trkpt>
      <trkpt lat="42.3980760388076305389404296875" lon="0.923653542995452880859375">
        <ele>1490.4000244140625</ele>
        <time>2020-08-14T07:29:18.000Z</time>
      </trkpt>
      <trkpt lat="42.39807545207440853118896484375" lon="0.92363543808460235595703125">
        <ele>1490.800048828125</ele>
        <time>2020-08-14T07:29:21.000Z</time>
      </trkpt>
      <trkpt lat="42.3980762064456939697265625" lon="0.92358489520847797393798828125">
        <ele>1491.4000244140625</ele>
        <time>2020-08-14T07:29:27.000Z</time>
      </trkpt>
      <trkpt lat="42.3980767093598842620849609375" lon="0.92355103231966495513916015625">
        <ele>1492</ele>
        <time>2020-08-14T07:29:32.000Z</time>
      </trkpt>
      <trkpt lat="42.39807821810245513916015625" lon="0.92352571897208690643310546875">
        <ele>1492.5999755859375</ele>
        <time>2020-08-14T07:29:36.000Z</time>
      </trkpt>
      <trkpt lat="42.3980917967855930328369140625" lon="0.92349596321582794189453125">
        <ele>1493.199951171875</ele>
        <time>2020-08-14T07:29:41.000Z</time>
      </trkpt>
      <trkpt lat="42.398095987737178802490234375" lon="0.9234832227230072021484375">
        <ele>1493.5999755859375</ele>
        <time>2020-08-14T07:29:43.000Z</time>
      </trkpt>
      <trkpt lat="42.398085258901119232177734375" lon="0.92345179058611392974853515625">
        <ele>1494.4000244140625</ele>
        <time>2020-08-14T07:29:48.000Z</time>
      </trkpt>
      <trkpt lat="42.39807763136923313140869140625" lon="0.9234418161213397979736328125">
        <ele>1494.5999755859375</ele>
        <time>2020-08-14T07:29:50.000Z</time>
      </trkpt>
      <trkpt lat="42.39805919118225574493408203125" lon="0.9234129823744297027587890625">
        <ele>1495.199951171875</ele>
        <time>2020-08-14T07:29:56.000Z</time>
      </trkpt>
      <trkpt lat="42.39803505130112171173095703125" lon="0.92338875867426395416259765625">
        <ele>1495.5999755859375</ele>
        <time>2020-08-14T07:30:03.000Z</time>
      </trkpt>
      <trkpt lat="42.39802935160696506500244140625" lon="0.92338733375072479248046875">
        <ele>1495.5999755859375</ele>
        <time>2020-08-14T07:30:04.000Z</time>
      </trkpt>
      <trkpt lat="42.3979804851114749908447265625" lon="0.92338926158845424652099609375">
        <ele>1496.5999755859375</ele>
        <time>2020-08-14T07:30:12.000Z</time>
      </trkpt>
      <trkpt lat="42.39792935550212860107421875" lon="0.92339294962584972381591796875">
        <ele>1497.5999755859375</ele>
        <time>2020-08-14T07:30:19.000Z</time>
      </trkpt>
      <trkpt lat="42.39791535772383213043212890625" lon="0.92339211143553256988525390625">
        <ele>1498</ele>
        <time>2020-08-14T07:30:21.000Z</time>
      </trkpt>
      <trkpt lat="42.3978939838707447052001953125" lon="0.92339077033102512359619140625">
        <ele>1498.800048828125</ele>
        <time>2020-08-14T07:30:25.000Z</time>
      </trkpt>
      <trkpt lat="42.39786707796156406402587890625" lon="0.9233858250081539154052734375">
        <ele>1499.4000244140625</ele>
        <time>2020-08-14T07:30:32.000Z</time>
      </trkpt>
      <trkpt lat="42.39783556200563907623291015625" lon="0.92334098182618618011474609375">
        <ele>1499.800048828125</ele>
        <time>2020-08-14T07:30:39.000Z</time>
      </trkpt>
      <trkpt lat="42.39778895862400531768798828125" lon="0.92334483750164508819580078125">
        <ele>1500.5999755859375</ele>
        <time>2020-08-14T07:30:46.000Z</time>
      </trkpt>
      <trkpt lat="42.39777605049312114715576171875" lon="0.92334634624421596527099609375">
        <ele>1500.800048828125</ele>
        <time>2020-08-14T07:30:48.000Z</time>
      </trkpt>
      <trkpt lat="42.3977427743375301361083984375" lon="0.92333980835974216461181640625">
        <ele>1501.5999755859375</ele>
        <time>2020-08-14T07:30:53.000Z</time>
      </trkpt>
      <trkpt lat="42.39773212932050228118896484375" lon="0.92332757078111171722412109375">
        <ele>1501.800048828125</ele>
        <time>2020-08-14T07:30:57.000Z</time>
      </trkpt>
      <trkpt lat="42.39771611988544464111328125" lon="0.92331214807927608489990234375">
        <ele>1502</ele>
        <time>2020-08-14T07:31:00.000Z</time>
      </trkpt>
      <trkpt lat="42.39768267609179019927978515625" lon="0.923291780054569244384765625">
        <ele>1503</ele>
        <time>2020-08-14T07:31:06.000Z</time>
      </trkpt>
      <trkpt lat="42.397678904235363006591796875" lon="0.92328809201717376708984375">
        <ele>1503.199951171875</ele>
        <time>2020-08-14T07:31:07.000Z</time>
      </trkpt>
      <trkpt lat="42.39767429418861865997314453125" lon="0.9232651256024837493896484375">
        <ele>1503.800048828125</ele>
        <time>2020-08-14T07:31:14.000Z</time>
      </trkpt>
      <trkpt lat="42.397667504847049713134765625" lon="0.92326018027961254119873046875">
        <ele>1504</ele>
        <time>2020-08-14T07:31:16.000Z</time>
      </trkpt>
      <trkpt lat="42.397648058831691741943359375" lon="0.92326453886926174163818359375">
        <ele>1504.5999755859375</ele>
        <time>2020-08-14T07:31:20.000Z</time>
      </trkpt>
      <trkpt lat="42.397635318338871002197265625" lon="0.92328096739947795867919921875">
        <ele>1505.199951171875</ele>
        <time>2020-08-14T07:31:23.000Z</time>
      </trkpt>
      <trkpt lat="42.397599108517169952392578125" lon="0.92328717000782489776611328125">
        <ele>1506</ele>
        <time>2020-08-14T07:31:29.000Z</time>
      </trkpt>
      <trkpt lat="42.39759248681366443634033203125" lon="0.9232849068939685821533203125">
        <ele>1506.199951171875</ele>
        <time>2020-08-14T07:31:30.000Z</time>
      </trkpt>
      <trkpt lat="42.39757203496992588043212890625" lon="0.9232517145574092864990234375">
        <ele>1506.800048828125</ele>
        <time>2020-08-14T07:31:36.000Z</time>
      </trkpt>
      <trkpt lat="42.39756784401834011077880859375" lon="0.9232295863330364227294921875">
        <ele>1507.4000244140625</ele>
        <time>2020-08-14T07:31:39.000Z</time>
      </trkpt>
      <trkpt lat="42.39755895920097827911376953125" lon="0.92317887581884860992431640625">
        <ele>1508.5999755859375</ele>
        <time>2020-08-14T07:31:46.000Z</time>
      </trkpt>
      <trkpt lat="42.39753884263336658477783203125" lon="0.92313445173203945159912109375">
        <ele>1508.800048828125</ele>
        <time>2020-08-14T07:31:53.000Z</time>
      </trkpt>
      <trkpt lat="42.3975276947021484375" lon="0.9230773709714412689208984375">
        <ele>1508.199951171875</ele>
        <time>2020-08-14T07:32:00.000Z</time>
      </trkpt>
      <trkpt lat="42.39753196947276592254638671875" lon="0.92306454665958881378173828125">
        <ele>1508</ele>
        <time>2020-08-14T07:32:01.000Z</time>
      </trkpt>
      <trkpt lat="42.39754286594688892364501953125" lon="0.923039652407169342041015625">
        <ele>1507.4000244140625</ele>
        <time>2020-08-14T07:32:03.000Z</time>
      </trkpt>
      <trkpt lat="42.39754714071750640869140625" lon="0.92297553084790706634521484375">
        <ele>1507.199951171875</ele>
        <time>2020-08-14T07:32:08.000Z</time>
      </trkpt>
      <trkpt lat="42.3975265212357044219970703125" lon="0.92291166074573993682861328125">
        <ele>1506.4000244140625</ele>
        <time>2020-08-14T07:32:16.000Z</time>
      </trkpt>
      <trkpt lat="42.397530376911163330078125" lon="0.92288165353238582611083984375">
        <ele>1506</ele>
        <time>2020-08-14T07:32:19.000Z</time>
      </trkpt>
      <trkpt lat="42.39754169248044490814208984375" lon="0.92283873818814754486083984375">
        <ele>1505.4000244140625</ele>
        <time>2020-08-14T07:32:22.000Z</time>
      </trkpt>
      <trkpt lat="42.39754470996558666229248046875" lon="0.92282532714307308197021484375">
        <ele>1505</ele>
        <time>2020-08-14T07:32:23.000Z</time>
      </trkpt>
      <trkpt lat="42.39754672162234783172607421875" lon="0.9227615408599376678466796875">
        <ele>1505.199951171875</ele>
        <time>2020-08-14T07:32:29.000Z</time>
      </trkpt>
      <trkpt lat="42.39753104746341705322265625" lon="0.922652743756771087646484375">
        <ele>1505.199951171875</ele>
        <time>2020-08-14T07:32:37.000Z</time>
      </trkpt>
      <trkpt lat="42.39752358756959438323974609375" lon="0.92251519672572612762451171875">
        <ele>1505.800048828125</ele>
        <time>2020-08-14T07:32:48.000Z</time>
      </trkpt>
      <trkpt lat="42.39753129892051219940185546875" lon="0.92241427861154079437255859375">
        <ele>1505.800048828125</ele>
        <time>2020-08-14T07:32:55.000Z</time>
      </trkpt>
      <trkpt lat="42.397567927837371826171875" lon="0.92233599163591861724853515625">
        <ele>1506.199951171875</ele>
        <time>2020-08-14T07:33:03.000Z</time>
      </trkpt>
      <trkpt lat="42.3975711129605770111083984375" lon="0.92232710681855678558349609375">
        <ele>1506.199951171875</ele>
        <time>2020-08-14T07:33:04.000Z</time>
      </trkpt>
      <trkpt lat="42.39761763252317905426025390625" lon="0.92224613763391971588134765625">
        <ele>1506.800048828125</ele>
        <time>2020-08-14T07:33:12.000Z</time>
      </trkpt>
      <trkpt lat="42.39766247570514678955078125" lon="0.92218570411205291748046875">
        <ele>1507.199951171875</ele>
        <time>2020-08-14T07:33:19.000Z</time>
      </trkpt>
      <trkpt lat="42.3976656608283519744873046875" lon="0.9221670962870121002197265625">
        <ele>1507.199951171875</ele>
        <time>2020-08-14T07:33:21.000Z</time>
      </trkpt>
      <trkpt lat="42.3976671695709228515625" lon="0.92211353592574596405029296875">
        <ele>1507.5999755859375</ele>
        <time>2020-08-14T07:33:27.000Z</time>
      </trkpt>
      <trkpt lat="42.39767043851315975189208984375" lon="0.92208134941756725311279296875">
        <ele>1508.4000244140625</ele>
        <time>2020-08-14T07:33:31.000Z</time>
      </trkpt>
      <trkpt lat="42.3976659961044788360595703125" lon="0.92203684151172637939453125">
        <ele>1508.800048828125</ele>
        <time>2020-08-14T07:33:36.000Z</time>
      </trkpt>
      <trkpt lat="42.39765769802033901214599609375" lon="0.92197121120989322662353515625">
        <ele>1509.4000244140625</ele>
        <time>2020-08-14T07:33:43.000Z</time>
      </trkpt>
      <trkpt lat="42.3976577818393707275390625" lon="0.92196182347834110260009765625">
        <ele>1509.5999755859375</ele>
        <time>2020-08-14T07:33:44.000Z</time>
      </trkpt>
      <trkpt lat="42.3976582847535610198974609375" lon="0.921883285045623779296875">
        <ele>1510.4000244140625</ele>
        <time>2020-08-14T07:33:52.000Z</time>
      </trkpt>
      <trkpt lat="42.39765635691583156585693359375" lon="0.92185956425964832305908203125">
        <ele>1510.800048828125</ele>
        <time>2020-08-14T07:33:55.000Z</time>
      </trkpt>
      <trkpt lat="42.39764093421399593353271484375" lon="0.9218033216893672943115234375">
        <ele>1511.4000244140625</ele>
        <time>2020-08-14T07:34:03.000Z</time>
      </trkpt>
      <trkpt lat="42.3976381681859493255615234375" lon="0.9217934310436248779296875">
        <ele>1511.4000244140625</ele>
        <time>2020-08-14T07:34:04.000Z</time>
      </trkpt>
      <trkpt lat="42.397627271711826324462890625" lon="0.921700894832611083984375">
        <ele>1511.800048828125</ele>
        <time>2020-08-14T07:34:11.000Z</time>
      </trkpt>
      <trkpt lat="42.3975902236998081207275390625" lon="0.92159737832844257354736328125">
        <ele>1511.800048828125</ele>
        <time>2020-08-14T07:34:19.000Z</time>
      </trkpt>
      <trkpt lat="42.39754378795623779296875" lon="0.92149729840457439422607421875">
        <ele>1511.800048828125</ele>
        <time>2020-08-14T07:34:28.000Z</time>
      </trkpt>
      <trkpt lat="42.39752702414989471435546875" lon="0.9214231185615062713623046875">
        <ele>1512.4000244140625</ele>
        <time>2020-08-14T07:34:35.000Z</time>
      </trkpt>
      <trkpt lat="42.39752702414989471435546875" lon="0.92141917906701564788818359375">
        <ele>1512.4000244140625</ele>
        <time>2020-08-14T07:34:37.000Z</time>
      </trkpt>
      <trkpt lat="42.3975278623402118682861328125" lon="0.9213741682469844818115234375">
        <ele>1513</ele>
        <time>2020-08-14T07:34:43.000Z</time>
      </trkpt>
      <trkpt lat="42.39752492867410182952880859375" lon="0.92132630757987499237060546875">
        <ele>1513.4000244140625</ele>
        <time>2020-08-14T07:34:48.000Z</time>
      </trkpt>
      <trkpt lat="42.39751906134188175201416015625" lon="0.92130602337419986724853515625">
        <ele>1513.5999755859375</ele>
        <time>2020-08-14T07:34:50.000Z</time>
      </trkpt>
      <trkpt lat="42.3975047282874584197998046875" lon="0.92123611830174922943115234375">
        <ele>1514.4000244140625</ele>
        <time>2020-08-14T07:34:58.000Z</time>
      </trkpt>
      <trkpt lat="42.397498190402984619140625" lon="0.92122253961861133575439453125">
        <ele>1514.4000244140625</ele>
        <time>2020-08-14T07:35:00.000Z</time>
      </trkpt>
      <trkpt lat="42.39748234860599040985107421875" lon="0.92117375694215297698974609375">
        <ele>1515.4000244140625</ele>
        <time>2020-08-14T07:35:06.000Z</time>
      </trkpt>
      <trkpt lat="42.3974799178540706634521484375" lon="0.921166129410266876220703125">
        <ele>1515.5999755859375</ele>
        <time>2020-08-14T07:35:07.000Z</time>
      </trkpt>
      <trkpt lat="42.39747296087443828582763671875" lon="0.92113117687404155731201171875">
        <ele>1516.5999755859375</ele>
        <time>2020-08-14T07:35:13.000Z</time>
      </trkpt>
      <trkpt lat="42.3974722065031528472900390625" lon="0.92109211720526218414306640625">
        <ele>1517.800048828125</ele>
        <time>2020-08-14T07:35:19.000Z</time>
      </trkpt>
      <trkpt lat="42.397471368312835693359375" lon="0.92107820324599742889404296875">
        <ele>1517.800048828125</ele>
        <time>2020-08-14T07:35:21.000Z</time>
      </trkpt>
      <trkpt lat="42.39747446961700916290283203125" lon="0.921030677855014801025390625">
        <ele>1518.199951171875</ele>
        <time>2020-08-14T07:35:28.000Z</time>
      </trkpt>
      <trkpt lat="42.39747279323637485504150390625" lon="0.92102355323731899261474609375">
        <ele>1518.5999755859375</ele>
        <time>2020-08-14T07:35:30.000Z</time>
      </trkpt>
      <trkpt lat="42.39746072329580783843994140625" lon="0.920987427234649658203125">
        <ele>1519.199951171875</ele>
        <time>2020-08-14T07:35:35.000Z</time>
      </trkpt>
      <trkpt lat="42.397440858185291290283203125" lon="0.9209644608199596405029296875">
        <ele>1519.5999755859375</ele>
        <time>2020-08-14T07:35:40.000Z</time>
      </trkpt>
      <trkpt lat="42.3974336497485637664794921875" lon="0.92095591127872467041015625">
        <ele>1519.800048828125</ele>
        <time>2020-08-14T07:35:42.000Z</time>
      </trkpt>
      <trkpt lat="42.39741898141801357269287109375" lon="0.92093118466436862945556640625">
        <ele>1520.199951171875</ele>
        <time>2020-08-14T07:35:47.000Z</time>
      </trkpt>
      <trkpt lat="42.39739031530916690826416015625" lon="0.92086873948574066162109375">
        <ele>1520.800048828125</ele>
        <time>2020-08-14T07:35:54.000Z</time>
      </trkpt>
      <trkpt lat="42.39738545380532741546630859375" lon="0.92085910029709339141845703125">
        <ele>1520.800048828125</ele>
        <time>2020-08-14T07:35:55.000Z</time>
      </trkpt>
      <trkpt lat="42.397371120750904083251953125" lon="0.9207468666136264801025390625">
        <ele>1521.199951171875</ele>
        <time>2020-08-14T07:36:04.000Z</time>
      </trkpt>
      <trkpt lat="42.3973642475903034210205078125" lon="0.9206747822463512420654296875">
        <ele>1521.800048828125</ele>
        <time>2020-08-14T07:36:10.000Z</time>
      </trkpt>
      <trkpt lat="42.39736743271350860595703125" lon="0.92065542005002498626708984375">
        <ele>1521.800048828125</ele>
        <time>2020-08-14T07:36:12.000Z</time>
      </trkpt>
      <trkpt lat="42.3973676003515720367431640625" lon="0.92062323354184627532958984375">
        <ele>1522</ele>
        <time>2020-08-14T07:36:19.000Z</time>
      </trkpt>
      <trkpt lat="42.39735360257327556610107421875" lon="0.9205262549221515655517578125">
        <ele>1522</ele>
        <time>2020-08-14T07:36:28.000Z</time>
      </trkpt>
      <trkpt lat="42.3973629064857959747314453125" lon="0.92046548612415790557861328125">
        <ele>1522.800048828125</ele>
        <time>2020-08-14T07:36:34.000Z</time>
      </trkpt>
      <trkpt lat="42.3973627388477325439453125" lon="0.92044235207140445709228515625">
        <ele>1523.199951171875</ele>
        <time>2020-08-14T07:36:36.000Z</time>
      </trkpt>
      <trkpt lat="42.39736382849514484405517578125" lon="0.9203777275979518890380859375">
        <ele>1523.4000244140625</ele>
        <time>2020-08-14T07:36:43.000Z</time>
      </trkpt>
      <trkpt lat="42.39736030809581279754638671875" lon="0.92031343840062618255615234375">
        <ele>1524</ele>
        <time>2020-08-14T07:36:49.000Z</time>
      </trkpt>
      <trkpt lat="42.39735427312552928924560546875" lon="0.92027002014219760894775390625">
        <ele>1525</ele>
        <time>2020-08-14T07:36:54.000Z</time>
      </trkpt>
      <trkpt lat="42.397358380258083343505859375" lon="0.92022174037992954254150390625">
        <ele>1525.800048828125</ele>
        <time>2020-08-14T07:37:00.000Z</time>
      </trkpt>
      <trkpt lat="42.39736206829547882080078125" lon="0.92020078562200069427490234375">
        <ele>1526.199951171875</ele>
        <time>2020-08-14T07:37:03.000Z</time>
      </trkpt>
      <trkpt lat="42.39737011492252349853515625" lon="0.92016197741031646728515625">
        <ele>1526.800048828125</ele>
        <time>2020-08-14T07:37:07.000Z</time>
      </trkpt>
      <trkpt lat="42.39738059230148792266845703125" lon="0.92011629603803157806396484375">
        <ele>1527.4000244140625</ele>
        <time>2020-08-14T07:37:12.000Z</time>
      </trkpt>
      <trkpt lat="42.3973702825605869293212890625" lon="0.920061059296131134033203125">
        <ele>1527.800048828125</ele>
        <time>2020-08-14T07:37:19.000Z</time>
      </trkpt>
      <trkpt lat="42.39735712297260761260986328125" lon="0.92000397853553295135498046875">
        <ele>1528.199951171875</ele>
        <time>2020-08-14T07:37:27.000Z</time>
      </trkpt>
      <trkpt lat="42.39737204276025295257568359375" lon="0.91993675567209720611572265625">
        <ele>1528.800048828125</ele>
        <time>2020-08-14T07:37:34.000Z</time>
      </trkpt>
      <trkpt lat="42.39737438969314098358154296875" lon="0.919926278293132781982421875">
        <ele>1528.800048828125</ele>
        <time>2020-08-14T07:37:35.000Z</time>
      </trkpt>
      <trkpt lat="42.39739702083170413970947265625" lon="0.91986165381968021392822265625">
        <ele>1529.5999755859375</ele>
        <time>2020-08-14T07:37:42.000Z</time>
      </trkpt>
      <trkpt lat="42.39740096032619476318359375" lon="0.91983986087143421173095703125">
        <ele>1530</ele>
        <time>2020-08-14T07:37:44.000Z</time>
      </trkpt>
      <trkpt lat="42.39740892313420772552490234375" lon="0.9197551198303699493408203125">
        <ele>1530.5999755859375</ele>
        <time>2020-08-14T07:37:52.000Z</time>
      </trkpt>
      <trkpt lat="42.3974212445318698883056640625" lon="0.919692926108837127685546875">
        <ele>1530.800048828125</ele>
        <time>2020-08-14T07:38:00.000Z</time>
      </trkpt>
      <trkpt lat="42.3974353261291980743408203125" lon="0.9196790121495723724365234375">
        <ele>1530.800048828125</ele>
        <time>2020-08-14T07:38:06.000Z</time>
      </trkpt>
      <trkpt lat="42.3974494077265262603759765625" lon="0.91965780593454837799072265625">
        <ele>1530.5999755859375</ele>
        <time>2020-08-14T07:38:11.000Z</time>
      </trkpt>
      <trkpt lat="42.39744949154555797576904296875" lon="0.91964439488947391510009765625">
        <ele>1530.5999755859375</ele>
        <time>2020-08-14T07:38:13.000Z</time>
      </trkpt>
      <trkpt lat="42.39745753817260265350341796875" lon="0.91961053200066089630126953125">
        <ele>1530.199951171875</ele>
        <time>2020-08-14T07:38:22.000Z</time>
      </trkpt>
      <trkpt lat="42.39745804108679294586181640625" lon="0.9196109510958194732666015625">
        <ele>1530.199951171875</ele>
        <time>2020-08-14T07:38:37.000Z</time>
      </trkpt>
      <trkpt lat="42.39745804108679294586181640625" lon="0.91961103491485118865966796875">
        <ele>1530.199951171875</ele>
        <time>2020-08-14T07:38:40.000Z</time>
      </trkpt>
      <trkpt lat="42.39747078157961368560791015625" lon="0.91961346566677093505859375">
        <ele>1530.199951171875</ele>
        <time>2020-08-14T07:45:17.000Z</time>
      </trkpt>
      <trkpt lat="42.39748754538595676422119140625" lon="0.9196288883686065673828125">
        <ele>1530</ele>
        <time>2020-08-14T07:45:24.000Z</time>
      </trkpt>
      <trkpt lat="42.39752727560698986053466796875" lon="0.9196315705776214599609375">
        <ele>1529.199951171875</ele>
        <time>2020-08-14T07:45:31.000Z</time>
      </trkpt>
      <trkpt lat="42.39753364585340023040771484375" lon="0.91963701881468296051025390625">
        <ele>1529.199951171875</ele>
        <time>2020-08-14T07:45:32.000Z</time>
      </trkpt>
      <trkpt lat="42.39755929447710514068603515625" lon="0.91964841820299625396728515625">
        <ele>1528.5999755859375</ele>
        <time>2020-08-14T07:45:39.000Z</time>
      </trkpt>
      <trkpt lat="42.39758242852985858917236328125" lon="0.919646658003330230712890625">
        <ele>1528</ele>
        <time>2020-08-14T07:45:44.000Z</time>
      </trkpt>
      <trkpt lat="42.39758628420531749725341796875" lon="0.9196471609175205230712890625">
        <ele>1528</ele>
        <time>2020-08-14T07:45:45.000Z</time>
      </trkpt>
      <trkpt lat="42.3975982703268527984619140625" lon="0.91963827610015869140625">
        <ele>1528</ele>
        <time>2020-08-14T07:45:52.000Z</time>
      </trkpt>
      <trkpt lat="42.39760070107877254486083984375" lon="0.9196029044687747955322265625">
        <ele>1527.5999755859375</ele>
        <time>2020-08-14T07:46:00.000Z</time>
      </trkpt>
      <trkpt lat="42.39761310629546642303466796875" lon="0.91957331635057926177978515625">
        <ele>1526.800048828125</ele>
        <time>2020-08-14T07:46:04.000Z</time>
      </trkpt>
      <trkpt lat="42.3976443707942962646484375" lon="0.91955336742103099822998046875">
        <ele>1526.4000244140625</ele>
        <time>2020-08-14T07:46:08.000Z</time>
      </trkpt>
      <trkpt lat="42.3976720310747623443603515625" lon="0.91954641044139862060546875">
        <ele>1525.800048828125</ele>
        <time>2020-08-14T07:46:11.000Z</time>
      </trkpt>
      <trkpt lat="42.39771586842834949493408203125" lon="0.91954029165208339691162109375">
        <ele>1524.800048828125</ele>
        <time>2020-08-14T07:46:15.000Z</time>
      </trkpt>
      <trkpt lat="42.39772827364504337310791015625" lon="0.919539034366607666015625">
        <ele>1524.5999755859375</ele>
        <time>2020-08-14T07:46:16.000Z</time>
      </trkpt>
      <trkpt lat="42.39781158976256847381591796875" lon="0.9195204265415668487548828125">
        <ele>1523.5999755859375</ele>
        <time>2020-08-14T07:46:25.000Z</time>
      </trkpt>
      <trkpt lat="42.39784796722233295440673828125" lon="0.91950341127812862396240234375">
        <ele>1522.800048828125</ele>
        <time>2020-08-14T07:46:31.000Z</time>
      </trkpt>
      <trkpt lat="42.39786565303802490234375" lon="0.91949972324073314666748046875">
        <ele>1522.4000244140625</ele>
        <time>2020-08-14T07:46:33.000Z</time>
      </trkpt>
      <trkpt lat="42.39787730388343334197998046875" lon="0.919498465955257415771484375">
        <ele>1522.4000244140625</ele>
        <time>2020-08-14T07:46:34.000Z</time>
      </trkpt>
      <trkpt lat="42.3979342170059680938720703125" lon="0.91950894333422183990478515625">
        <ele>1521.4000244140625</ele>
        <time>2020-08-14T07:46:39.000Z</time>
      </trkpt>
      <trkpt lat="42.39794620312750339508056640625" lon="0.9195147268474102020263671875">
        <ele>1521.199951171875</ele>
        <time>2020-08-14T07:46:41.000Z</time>
      </trkpt>
      <trkpt lat="42.39796849898993968963623046875" lon="0.91952629387378692626953125">
        <ele>1521.199951171875</ele>
        <time>2020-08-14T07:46:49.000Z</time>
      </trkpt>
      <trkpt lat="42.39802331663668155670166015625" lon="0.9195214323699474334716796875">
        <ele>1521.4000244140625</ele>
        <time>2020-08-14T07:46:56.000Z</time>
      </trkpt>
      <trkpt lat="42.39808148704469203948974609375" lon="0.9195214323699474334716796875">
        <ele>1521</ele>
        <time>2020-08-14T07:47:02.000Z</time>
      </trkpt>
      <trkpt lat="42.39810193888843059539794921875" lon="0.91951497830450534820556640625">
        <ele>1521</ele>
        <time>2020-08-14T07:47:04.000Z</time>
      </trkpt>
      <trkpt lat="42.39811954088509082794189453125" lon="0.91945932246744632720947265625">
        <ele>1520.5999755859375</ele>
        <time>2020-08-14T07:47:09.000Z</time>
      </trkpt>
      <trkpt lat="42.39812054671347141265869140625" lon="0.91944691725075244903564453125">
        <ele>1520.5999755859375</ele>
        <time>2020-08-14T07:47:10.000Z</time>
      </trkpt>
      <trkpt lat="42.39812113344669342041015625" lon="0.919378101825714111328125">
        <ele>1520.199951171875</ele>
        <time>2020-08-14T07:47:16.000Z</time>
      </trkpt>
      <trkpt lat="42.39811937324702739715576171875" lon="0.91936527751386165618896484375">
        <ele>1520.199951171875</ele>
        <time>2020-08-14T07:47:17.000Z</time>
      </trkpt>
      <trkpt lat="42.3981394059956073760986328125" lon="0.9193024970591068267822265625">
        <ele>1519.800048828125</ele>
        <time>2020-08-14T07:47:23.000Z</time>
      </trkpt>
      <trkpt lat="42.398159690201282501220703125" lon="0.91923854313790798187255859375">
        <ele>1519.4000244140625</ele>
        <time>2020-08-14T07:47:31.000Z</time>
      </trkpt>
      <trkpt lat="42.3981727659702301025390625" lon="0.91920518316328525543212890625">
        <ele>1519.199951171875</ele>
        <time>2020-08-14T07:47:34.000Z</time>
      </trkpt>
      <trkpt lat="42.39819581620395183563232421875" lon="0.9191677160561084747314453125">
        <ele>1518.800048828125</ele>
        <time>2020-08-14T07:47:39.000Z</time>
      </trkpt>
      <trkpt lat="42.3982369713485240936279296875" lon="0.919102840125560760498046875">
        <ele>1518.800048828125</ele>
        <time>2020-08-14T07:47:47.000Z</time>
      </trkpt>
      <trkpt lat="42.398256920278072357177734375" lon="0.91907023452222347259521484375">
        <ele>1518.199951171875</ele>
        <time>2020-08-14T07:47:51.000Z</time>
      </trkpt>
      <trkpt lat="42.3982711695134639739990234375" lon="0.91903503052890300750732421875">
        <ele>1517.800048828125</ele>
        <time>2020-08-14T07:47:55.000Z</time>
      </trkpt>
      <trkpt lat="42.3982993327081203460693359375" lon="0.9190061129629611968994140625">
        <ele>1517.199951171875</ele>
        <time>2020-08-14T07:47:59.000Z</time>
      </trkpt>
      <trkpt lat="42.39832405932247638702392578125" lon="0.91898893006145954132080078125">
        <ele>1517</ele>
        <time>2020-08-14T07:48:02.000Z</time>
      </trkpt>
      <trkpt lat="42.39835741929709911346435546875" lon="0.918962024152278900146484375">
        <ele>1516.4000244140625</ele>
        <time>2020-08-14T07:48:09.000Z</time>
      </trkpt>
      <trkpt lat="42.39837334491312503814697265625" lon="0.91894383542239665985107421875">
        <ele>1516</ele>
        <time>2020-08-14T07:48:14.000Z</time>
      </trkpt>
      <trkpt lat="42.39838323555886745452880859375" lon="0.9189422428607940673828125">
        <ele>1515.800048828125</ele>
        <time>2020-08-14T07:48:16.000Z</time>
      </trkpt>
      <trkpt lat="42.398407459259033203125" lon="0.9189346991479396820068359375">
        <ele>1515.4000244140625</ele>
        <time>2020-08-14T07:48:19.000Z</time>
      </trkpt>
      <trkpt lat="42.39842288196086883544921875" lon="0.918911732733249664306640625">
        <ele>1515.199951171875</ele>
        <time>2020-08-14T07:48:22.000Z</time>
      </trkpt>
      <trkpt lat="42.39843671210110187530517578125" lon="0.9188887663185596466064453125">
        <ele>1514.800048828125</ele>
        <time>2020-08-14T07:48:25.000Z</time>
      </trkpt>
      <trkpt lat="42.3984683118760585784912109375" lon="0.9188606031239032745361328125">
        <ele>1514</ele>
        <time>2020-08-14T07:48:30.000Z</time>
      </trkpt>
      <trkpt lat="42.3985055275261402130126953125" lon="0.91882162727415561676025390625">
        <ele>1513.800048828125</ele>
        <time>2020-08-14T07:48:36.000Z</time>
      </trkpt>
      <trkpt lat="42.3985112272202968597412109375" lon="0.918811820447444915771484375">
        <ele>1513.800048828125</ele>
        <time>2020-08-14T07:48:37.000Z</time>
      </trkpt>
      <trkpt lat="42.39857375621795654296875" lon="0.91875423677265644073486328125">
        <ele>1513.5999755859375</ele>
        <time>2020-08-14T07:48:45.000Z</time>
      </trkpt>
      <trkpt lat="42.39866134710609912872314453125" lon="0.9187020175158977508544921875">
        <ele>1513</ele>
        <time>2020-08-14T07:48:54.000Z</time>
      </trkpt>
      <trkpt lat="42.3987033404409885406494140625" lon="0.91868299059569835662841796875">
        <ele>1512.800048828125</ele>
        <time>2020-08-14T07:48:58.000Z</time>
      </trkpt>
      <trkpt lat="42.39875371567904949188232421875" lon="0.91867846436798572540283203125">
        <ele>1512.4000244140625</ele>
        <time>2020-08-14T07:49:03.000Z</time>
      </trkpt>
      <trkpt lat="42.39880635403096675872802734375" lon="0.91869958676397800445556640625">
        <ele>1512.199951171875</ele>
        <time>2020-08-14T07:49:09.000Z</time>
      </trkpt>
      <trkpt lat="42.39881490357220172882080078125" lon="0.91870126314461231231689453125">
        <ele>1512</ele>
        <time>2020-08-14T07:49:10.000Z</time>
      </trkpt>
      <trkpt lat="42.39884004928171634674072265625" lon="0.91868634335696697235107421875">
        <ele>1511.5999755859375</ele>
        <time>2020-08-14T07:49:14.000Z</time>
      </trkpt>
      <trkpt lat="42.39884625189006328582763671875" lon="0.9186849184334278106689453125">
        <ele>1511.5999755859375</ele>
        <time>2020-08-14T07:49:15.000Z</time>
      </trkpt>
      <trkpt lat="42.39887927658855915069580078125" lon="0.9186738543212413787841796875">
        <ele>1510.800048828125</ele>
        <time>2020-08-14T07:49:22.000Z</time>
      </trkpt>
      <trkpt lat="42.39889235235750675201416015625" lon="0.91867662034928798675537109375">
        <ele>1510.5999755859375</ele>
        <time>2020-08-14T07:49:27.000Z</time>
      </trkpt>
      <trkpt lat="42.39889553748071193695068359375" lon="0.9186819009482860565185546875">
        <ele>1510.4000244140625</ele>
        <time>2020-08-14T07:49:29.000Z</time>
      </trkpt>
      <trkpt lat="42.3989397101104259490966796875" lon="0.91869824565947055816650390625">
        <ele>1510.800048828125</ele>
        <time>2020-08-14T07:49:36.000Z</time>
      </trkpt>
      <trkpt lat="42.39901372231543064117431640625" lon="0.91867930255830287933349609375">
        <ele>1511</ele>
        <time>2020-08-14T07:49:44.000Z</time>
      </trkpt>
      <trkpt lat="42.39907625131309032440185546875" lon="0.91866522096097469329833984375">
        <ele>1511</ele>
        <time>2020-08-14T07:49:51.000Z</time>
      </trkpt>
      <trkpt lat="42.39913576282560825347900390625" lon="0.9186601080000400543212890625">
        <ele>1510.4000244140625</ele>
        <time>2020-08-14T07:49:57.000Z</time>
      </trkpt>
      <trkpt lat="42.39918990992009639739990234375" lon="0.91866404749453067779541015625">
        <ele>1510</ele>
        <time>2020-08-14T07:50:05.000Z</time>
      </trkpt>
      <trkpt lat="42.39920885302126407623291015625" lon="0.91867293231189250946044921875">
        <ele>1509.5999755859375</ele>
        <time>2020-08-14T07:50:11.000Z</time>
      </trkpt>
      <trkpt lat="42.399213798344135284423828125" lon="0.9186772070825099945068359375">
        <ele>1509.4000244140625</ele>
        <time>2020-08-14T07:50:12.000Z</time>
      </trkpt>
      <trkpt lat="42.39924908615648746490478515625" lon="0.91869883239269256591796875">
        <ele>1508.5999755859375</ele>
        <time>2020-08-14T07:50:19.000Z</time>
      </trkpt>
      <trkpt lat="42.39926383830606937408447265625" lon="0.91870394535362720489501953125">
        <ele>1508</ele>
        <time>2020-08-14T07:50:22.000Z</time>
      </trkpt>
      <trkpt lat="42.399276830255985260009765625" lon="0.91871132142841815948486328125">
        <ele>1507.199951171875</ele>
        <time>2020-08-14T07:50:27.000Z</time>
      </trkpt>
      <trkpt lat="42.39928026683628559112548828125" lon="0.9187107346951961517333984375">
        <ele>1507</ele>
        <time>2020-08-14T07:50:29.000Z</time>
      </trkpt>
      <trkpt lat="42.3993189074099063873291015625" lon="0.91873160563409328460693359375">
        <ele>1506.5999755859375</ele>
        <time>2020-08-14T07:50:35.000Z</time>
      </trkpt>
      <trkpt lat="42.39933709613978862762451171875" lon="0.918776281177997589111328125">
        <ele>1506.199951171875</ele>
        <time>2020-08-14T07:50:40.000Z</time>
      </trkpt>
      <trkpt lat="42.39934690296649932861328125" lon="0.91879002749919891357421875">
        <ele>1505.800048828125</ele>
        <time>2020-08-14T07:50:43.000Z</time>
      </trkpt>
      <trkpt lat="42.39938772283494472503662109375" lon="0.91886890120804309844970703125">
        <ele>1505.5999755859375</ele>
        <time>2020-08-14T07:50:50.000Z</time>
      </trkpt>
      <trkpt lat="42.3994218371808528900146484375" lon="0.91892321594059467315673828125">
        <ele>1505.4000244140625</ele>
        <time>2020-08-14T07:50:56.000Z</time>
      </trkpt>
      <trkpt lat="42.3994285427033901214599609375" lon="0.9189457632601261138916015625">
        <ele>1505.4000244140625</ele>
        <time>2020-08-14T07:50:58.000Z</time>
      </trkpt>
      <trkpt lat="42.3994372598826885223388671875" lon="0.918965041637420654296875">
        <ele>1505.199951171875</ele>
        <time>2020-08-14T07:51:00.000Z</time>
      </trkpt>
      <trkpt lat="42.39944740198552608489990234375" lon="0.91896839439868927001953125">
        <ele>1505</ele>
        <time>2020-08-14T07:51:03.000Z</time>
      </trkpt>
      <trkpt lat="42.39945360459387302398681640625" lon="0.91897233389317989349365234375">
        <ele>1505</ele>
        <time>2020-08-14T07:51:04.000Z</time>
      </trkpt>
      <trkpt lat="42.3994774930179119110107421875" lon="0.9189739264547824859619140625">
        <ele>1504.5999755859375</ele>
        <time>2020-08-14T07:51:11.000Z</time>
      </trkpt>
      <trkpt lat="42.39952049218118190765380859375" lon="0.918970741331577301025390625">
        <ele>1504</ele>
        <time>2020-08-14T07:51:20.000Z</time>
      </trkpt>
      <trkpt lat="42.39956357516348361968994140625" lon="0.91900200583040714263916015625">
        <ele>1503.5999755859375</ele>
        <time>2020-08-14T07:51:27.000Z</time>
      </trkpt>
      <trkpt lat="42.3995948396623134613037109375" lon="0.91904827393591403961181640625">
        <ele>1503.199951171875</ele>
        <time>2020-08-14T07:51:35.000Z</time>
      </trkpt>
      <trkpt lat="42.3996146209537982940673828125" lon="0.91906352899968624114990234375">
        <ele>1502.800048828125</ele>
        <time>2020-08-14T07:51:39.000Z</time>
      </trkpt>
      <trkpt lat="42.3996270261704921722412109375" lon="0.91908414848148822784423828125">
        <ele>1502.4000244140625</ele>
        <time>2020-08-14T07:51:42.000Z</time>
      </trkpt>
      <trkpt lat="42.39965225569903850555419921875" lon="0.9191107191145420074462890625">
        <ele>1501.800048828125</ele>
        <time>2020-08-14T07:51:47.000Z</time>
      </trkpt>
      <trkpt lat="42.39966097287833690643310546875" lon="0.9191180951893329620361328125">
        <ele>1501.5999755859375</ele>
        <time>2020-08-14T07:51:49.000Z</time>
      </trkpt>
      <trkpt lat="42.3996937461197376251220703125" lon="0.9191434085369110107421875">
        <ele>1500.800048828125</ele>
        <time>2020-08-14T07:51:56.000Z</time>
      </trkpt>
      <trkpt lat="42.39969852380454540252685546875" lon="0.9191462583839893341064453125">
        <ele>1500.5999755859375</ele>
        <time>2020-08-14T07:51:57.000Z</time>
      </trkpt>
      <trkpt lat="42.3997266031801700592041015625" lon="0.919163189828395843505859375">
        <ele>1500.4000244140625</ele>
        <time>2020-08-14T07:52:04.000Z</time>
      </trkpt>
      <trkpt lat="42.39975149743258953094482421875" lon="0.91916478238999843597412109375">
        <ele>1500</ele>
        <time>2020-08-14T07:52:11.000Z</time>
      </trkpt>
      <trkpt lat="42.39975501783192157745361328125" lon="0.91916478238999843597412109375">
        <ele>1499.800048828125</ele>
        <time>2020-08-14T07:52:13.000Z</time>
      </trkpt>
      <trkpt lat="42.399771027266979217529296875" lon="0.919152460992336273193359375">
        <ele>1499.4000244140625</ele>
        <time>2020-08-14T07:52:18.000Z</time>
      </trkpt>
      <trkpt lat="42.39979340694844722747802734375" lon="0.9191757626831531524658203125">
        <ele>1499</ele>
        <time>2020-08-14T07:52:24.000Z</time>
      </trkpt>
      <trkpt lat="42.3998067341744899749755859375" lon="0.91918724589049816131591796875">
        <ele>1498.5999755859375</ele>
        <time>2020-08-14T07:52:27.000Z</time>
      </trkpt>
      <trkpt lat="42.3998416028916835784912109375" lon="0.9191938675940036773681640625">
        <ele>1497.800048828125</ele>
        <time>2020-08-14T07:52:32.000Z</time>
      </trkpt>
      <trkpt lat="42.39987253211438655853271484375" lon="0.9192196838557720184326171875">
        <ele>1497.5999755859375</ele>
        <time>2020-08-14T07:52:37.000Z</time>
      </trkpt>
      <trkpt lat="42.3998882062733173370361328125" lon="0.9192404709756374359130859375">
        <ele>1497.5999755859375</ele>
        <time>2020-08-14T07:52:41.000Z</time>
      </trkpt>
      <trkpt lat="42.39991930313408374786376953125" lon="0.91928833164274692535400390625">
        <ele>1497.4000244140625</ele>
        <time>2020-08-14T07:52:48.000Z</time>
      </trkpt>
      <trkpt lat="42.39997428841888904571533203125" lon="0.91932605020701885223388671875">
        <ele>1497</ele>
        <time>2020-08-14T07:52:56.000Z</time>
      </trkpt>
      <trkpt lat="42.4000060558319091796875" lon="0.91935195028781890869140625">
        <ele>1496.5999755859375</ele>
        <time>2020-08-14T07:53:01.000Z</time>
      </trkpt>
      <trkpt lat="42.40003086626529693603515625" lon="0.91937164776027202606201171875">
        <ele>1496.199951171875</ele>
        <time>2020-08-14T07:53:04.000Z</time>
      </trkpt>
      <trkpt lat="42.40007503889501094818115234375" lon="0.919387824833393096923828125">
        <ele>1496.199951171875</ele>
        <time>2020-08-14T07:53:11.000Z</time>
      </trkpt>
      <trkpt lat="42.4001118354499340057373046875" lon="0.91941171325743198394775390625">
        <ele>1495.5999755859375</ele>
        <time>2020-08-14T07:53:19.000Z</time>
      </trkpt>
      <trkpt lat="42.40011963061988353729248046875" lon="0.9194164909422397613525390625">
        <ele>1495.4000244140625</ele>
        <time>2020-08-14T07:53:23.000Z</time>
      </trkpt>
      <trkpt lat="42.40013220347464084625244140625" lon="0.9194285608828067779541015625">
        <ele>1495.4000244140625</ele>
        <time>2020-08-14T07:53:27.000Z</time>
      </trkpt>
      <trkpt lat="42.40015986375510692596435546875" lon="0.9194563888013362884521484375">
        <ele>1494.5999755859375</ele>
        <time>2020-08-14T07:53:35.000Z</time>
      </trkpt>
      <trkpt lat="42.40019439719617366790771484375" lon="0.9194771759212017059326171875">
        <ele>1494</ele>
        <time>2020-08-14T07:53:42.000Z</time>
      </trkpt>
      <trkpt lat="42.40020914934575557708740234375" lon="0.91952185146510601043701171875">
        <ele>1494</ele>
        <time>2020-08-14T07:53:48.000Z</time>
      </trkpt>
      <trkpt lat="42.400223314762115478515625" lon="0.91957147233188152313232421875">
        <ele>1493.5999755859375</ele>
        <time>2020-08-14T07:53:54.000Z</time>
      </trkpt>
      <trkpt lat="42.40022591315209865570068359375" lon="0.91957591474056243896484375">
        <ele>1493.4000244140625</ele>
        <time>2020-08-14T07:53:55.000Z</time>
      </trkpt>
      <trkpt lat="42.400237061083316802978515625" lon="0.9196267090737819671630859375">
        <ele>1493</ele>
        <time>2020-08-14T07:54:02.000Z</time>
      </trkpt>
      <trkpt lat="42.40026882849633693695068359375" lon="0.919674150645732879638671875">
        <ele>1492.4000244140625</ele>
        <time>2020-08-14T07:54:08.000Z</time>
      </trkpt>
      <trkpt lat="42.40033571608364582061767578125" lon="0.91973911039531230926513671875">
        <ele>1492.4000244140625</ele>
        <time>2020-08-14T07:54:16.000Z</time>
      </trkpt>
      <trkpt lat="42.40037511102855205535888671875" lon="0.9197484143078327178955078125">
        <ele>1492</ele>
        <time>2020-08-14T07:54:23.000Z</time>
      </trkpt>
      <trkpt lat="42.40040344186127185821533203125" lon="0.91976325027644634246826171875">
        <ele>1491.800048828125</ele>
        <time>2020-08-14T07:54:29.000Z</time>
      </trkpt>
      <trkpt lat="42.40040964446961879730224609375" lon="0.919768698513507843017578125">
        <ele>1491.5999755859375</ele>
        <time>2020-08-14T07:54:30.000Z</time>
      </trkpt>
      <trkpt lat="42.40043965168297290802001953125" lon="0.9198161400854587554931640625">
        <ele>1491.5999755859375</ele>
        <time>2020-08-14T07:54:35.000Z</time>
      </trkpt>
      <trkpt lat="42.40044568665325641632080078125" lon="0.9199100174009799957275390625">
        <ele>1492.199951171875</ele>
        <time>2020-08-14T07:54:44.000Z</time>
      </trkpt>
      <trkpt lat="42.40045909769833087921142578125" lon="0.91997824609279632568359375">
        <ele>1493</ele>
        <time>2020-08-14T07:54:51.000Z</time>
      </trkpt>
      <trkpt lat="42.4004796333611011505126953125" lon="0.92004396021366119384765625">
        <ele>1493</ele>
        <time>2020-08-14T07:54:58.000Z</time>
      </trkpt>
      <trkpt lat="42.40049916319549083709716796875" lon="0.92011327855288982391357421875">
        <ele>1493.5999755859375</ele>
        <time>2020-08-14T07:55:06.000Z</time>
      </trkpt>
      <trkpt lat="42.40048424340784549713134765625" lon="0.92018536292016506195068359375">
        <ele>1494.4000244140625</ele>
        <time>2020-08-14T07:55:15.000Z</time>
      </trkpt>
      <trkpt lat="42.4004756100475788116455078125" lon="0.92020547948777675628662109375">
        <ele>1494.5999755859375</ele>
        <time>2020-08-14T07:55:18.000Z</time>
      </trkpt>
      <trkpt lat="42.40047234110534191131591796875" lon="0.9202473051846027374267578125">
        <ele>1495.199951171875</ele>
        <time>2020-08-14T07:55:23.000Z</time>
      </trkpt>
      <trkpt lat="42.400473766028881072998046875" lon="0.9202969260513782501220703125">
        <ele>1495.5999755859375</ele>
        <time>2020-08-14T07:55:29.000Z</time>
      </trkpt>
      <trkpt lat="42.40048474632203578948974609375" lon="0.92032064683735370635986328125">
        <ele>1495.800048828125</ele>
        <time>2020-08-14T07:55:32.000Z</time>
      </trkpt>
      <trkpt lat="42.40050553344190120697021484375" lon="0.92036423273384571075439453125">
        <ele>1496.800048828125</ele>
        <time>2020-08-14T07:55:39.000Z</time>
      </trkpt>
      <trkpt lat="42.40051005966961383819580078125" lon="0.92036850750446319580078125">
        <ele>1497</ele>
        <time>2020-08-14T07:55:40.000Z</time>
      </trkpt>
      <trkpt lat="42.4005614407360553741455078125" lon="0.920408070087432861328125">
        <ele>1497.4000244140625</ele>
        <time>2020-08-14T07:55:49.000Z</time>
      </trkpt>
      <trkpt lat="42.40056462585926055908203125" lon="0.92040798626840114593505859375">
        <ele>1497.800048828125</ele>
        <time>2020-08-14T07:55:57.000Z</time>
      </trkpt>
      <trkpt lat="42.400586418807506561279296875" lon="0.9204172901809215545654296875">
        <ele>1497.5999755859375</ele>
        <time>2020-08-14T07:56:06.000Z</time>
      </trkpt>
      <trkpt lat="42.40061701275408267974853515625" lon="0.92041703872382640838623046875">
        <ele>1497.199951171875</ele>
        <time>2020-08-14T07:56:13.000Z</time>
      </trkpt>
      <trkpt lat="42.40066428668797016143798828125" lon="0.9204189665615558624267578125">
        <ele>1496.4000244140625</ele>
        <time>2020-08-14T07:56:22.000Z</time>
      </trkpt>
      <trkpt lat="42.40070133469998836517333984375" lon="0.92042022384703159332275390625">
        <ele>1496.5999755859375</ele>
        <time>2020-08-14T07:56:29.000Z</time>
      </trkpt>
      <trkpt lat="42.4007047712802886962890625" lon="0.92042424716055393218994140625">
        <ele>1496.199951171875</ele>
        <time>2020-08-14T07:56:38.000Z</time>
      </trkpt>
      <trkpt lat="42.40070938132703304290771484375" lon="0.920435898005962371826171875">
        <ele>1496.5999755859375</ele>
        <time>2020-08-14T07:56:45.000Z</time>
      </trkpt>
      <trkpt lat="42.40072689950466156005859375" lon="0.92044629156589508056640625">
        <ele>1497</ele>
        <time>2020-08-14T07:56:54.000Z</time>
      </trkpt>
      <trkpt lat="42.40075229667127132415771484375" lon="0.92047051526606082916259765625">
        <ele>1496.800048828125</ele>
        <time>2020-08-14T07:57:02.000Z</time>
      </trkpt>
      <trkpt lat="42.40079906769096851348876953125" lon="0.92052415944635868072509765625">
        <ele>1497</ele>
        <time>2020-08-14T07:57:09.000Z</time>
      </trkpt>
      <trkpt lat="42.40080736577510833740234375" lon="0.92052985914051532745361328125">
        <ele>1497</ele>
        <time>2020-08-14T07:57:10.000Z</time>
      </trkpt>
      <trkpt lat="42.40084114484488964080810546875" lon="0.9205527417361736297607421875">
        <ele>1496.800048828125</ele>
        <time>2020-08-14T07:57:14.000Z</time>
      </trkpt>
      <trkpt lat="42.4008903466165065765380859375" lon="0.92058534733951091766357421875">
        <ele>1496.800048828125</ele>
        <time>2020-08-14T07:57:21.000Z</time>
      </trkpt>
      <trkpt lat="42.40094952285289764404296875" lon="0.92056699097156524658203125">
        <ele>1497.800048828125</ele>
        <time>2020-08-14T07:57:30.000Z</time>
      </trkpt>
      <trkpt lat="42.40095782093703746795654296875" lon="0.92056187801063060760498046875">
        <ele>1498</ele>
        <time>2020-08-14T07:57:31.000Z</time>
      </trkpt>
      <trkpt lat="42.40103803575038909912109375" lon="0.9205001033842563629150390625">
        <ele>1497.199951171875</ele>
        <time>2020-08-14T07:57:40.000Z</time>
      </trkpt>
      <trkpt lat="42.40113065578043460845947265625" lon="0.920402705669403076171875">
        <ele>1497.800048828125</ele>
        <time>2020-08-14T07:57:51.000Z</time>
      </trkpt>
      <trkpt lat="42.4012256227433681488037109375" lon="0.920295417308807373046875">
        <ele>1498</ele>
        <time>2020-08-14T07:58:03.000Z</time>
      </trkpt>
      <trkpt lat="42.4012546241283416748046875" lon="0.9202768094837665557861328125">
        <ele>1498.4000244140625</ele>
        <time>2020-08-14T07:58:07.000Z</time>
      </trkpt>
      <trkpt lat="42.401292510330677032470703125" lon="0.92025375925004482269287109375">
        <ele>1499</ele>
        <time>2020-08-14T07:58:12.000Z</time>
      </trkpt>
      <trkpt lat="42.4013493396341800689697265625" lon="0.920201204717159271240234375">
        <ele>1499.4000244140625</ele>
        <time>2020-08-14T07:58:20.000Z</time>
      </trkpt>
      <trkpt lat="42.4014318175613880157470703125" lon="0.920106656849384307861328125">
        <ele>1499.4000244140625</ele>
        <time>2020-08-14T07:58:29.000Z</time>
      </trkpt>
      <trkpt lat="42.4014599807560443878173828125" lon="0.9200675971806049346923828125">
        <ele>1499.800048828125</ele>
        <time>2020-08-14T07:58:33.000Z</time>
      </trkpt>
      <trkpt lat="42.40147364325821399688720703125" lon="0.92001772485673427581787109375">
        <ele>1499.5999755859375</ele>
        <time>2020-08-14T07:58:37.000Z</time>
      </trkpt>
      <trkpt lat="42.4015089310705661773681640625" lon="0.91993256472051143646240234375">
        <ele>1500.199951171875</ele>
        <time>2020-08-14T07:58:45.000Z</time>
      </trkpt>
      <trkpt lat="42.401521839201450347900390625" lon="0.919905491173267364501953125">
        <ele>1500.199951171875</ele>
        <time>2020-08-14T07:58:47.000Z</time>
      </trkpt>
      <trkpt lat="42.40153483115136623382568359375" lon="0.91988260857760906219482421875">
        <ele>1500.5999755859375</ele>
        <time>2020-08-14T07:58:50.000Z</time>
      </trkpt>
      <trkpt lat="42.401540614664554595947265625" lon="0.9198771603405475616455078125">
        <ele>1500.5999755859375</ele>
        <time>2020-08-14T07:58:51.000Z</time>
      </trkpt>
      <trkpt lat="42.40158864296972751617431640625" lon="0.91981287114322185516357421875">
        <ele>1501.199951171875</ele>
        <time>2020-08-14T07:59:00.000Z</time>
      </trkpt>
      <trkpt lat="42.40159803070127964019775390625" lon="0.9197963587939739227294921875">
        <ele>1501.5999755859375</ele>
        <time>2020-08-14T07:59:06.000Z</time>
      </trkpt>
      <trkpt lat="42.40159736014902591705322265625" lon="0.9197943471372127532958984375">
        <ele>1501.5999755859375</ele>
        <time>2020-08-14T07:59:07.000Z</time>
      </trkpt>
      <trkpt lat="42.401594929397106170654296875" lon="0.919796526432037353515625">
        <ele>1501.800048828125</ele>
        <time>2020-08-14T07:59:38.000Z</time>
      </trkpt>
      <trkpt lat="42.40159903652966022491455078125" lon="0.91976660303771495819091796875">
        <ele>1502.199951171875</ele>
        <time>2020-08-14T07:59:55.000Z</time>
      </trkpt>
      <trkpt lat="42.401600964367389678955078125" lon="0.91966233216226100921630859375">
        <ele>1502.199951171875</ele>
        <time>2020-08-14T08:00:04.000Z</time>
      </trkpt>
      <trkpt lat="42.401591241359710693359375" lon="0.91954506933689117431640625">
        <ele>1501.800048828125</ele>
        <time>2020-08-14T08:00:12.000Z</time>
      </trkpt>
      <trkpt lat="42.4015979468822479248046875" lon="0.9194493480026721954345703125">
        <ele>1501.5999755859375</ele>
        <time>2020-08-14T08:00:19.000Z</time>
      </trkpt>
      <trkpt lat="42.40161010064184665679931640625" lon="0.91936460696160793304443359375">
        <ele>1502</ele>
        <time>2020-08-14T08:00:26.000Z</time>
      </trkpt>
      <trkpt lat="42.40163843147456645965576171875" lon="0.91925404965877532958984375">
        <ele>1502.4000244140625</ele>
        <time>2020-08-14T08:00:35.000Z</time>
      </trkpt>
      <trkpt lat="42.40165368653833866119384765625" lon="0.91921960003674030303955078125">
        <ele>1502.5999755859375</ele>
        <time>2020-08-14T08:00:44.000Z</time>
      </trkpt>
      <trkpt lat="42.401652596890926361083984375" lon="0.91921876184642314910888671875">
        <ele>1502.4000244140625</ele>
        <time>2020-08-14T08:00:52.000Z</time>
      </trkpt>
      <trkpt lat="42.4016524292528629302978515625" lon="0.9192166663706302642822265625">
        <ele>1502.4000244140625</ele>
        <time>2020-08-14T08:00:53.000Z</time>
      </trkpt>
      <trkpt lat="42.40165494382381439208984375" lon="0.91918188147246837615966796875">
        <ele>1502.199951171875</ele>
        <time>2020-08-14T08:01:01.000Z</time>
      </trkpt>
      <trkpt lat="42.4016695283353328704833984375" lon="0.91909018345177173614501953125">
        <ele>1501</ele>
        <time>2020-08-14T08:01:05.000Z</time>
      </trkpt>
      <trkpt lat="42.4016758985817432403564453125" lon="0.91904106549918651580810546875">
        <ele>1500</ele>
        <time>2020-08-14T08:01:07.000Z</time>
      </trkpt>
      <trkpt lat="42.401680089533329010009765625" lon="0.91901709325611591339111328125">
        <ele>1499.800048828125</ele>
        <time>2020-08-14T08:01:08.000Z</time>
      </trkpt>
      <trkpt lat="42.40171001292765140533447265625" lon="0.91889874078333377838134765625">
        <ele>1498.5999755859375</ele>
        <time>2020-08-14T08:01:12.000Z</time>
      </trkpt>
      <trkpt lat="42.40172375924885272979736328125" lon="0.91886244714260101318359375">
        <ele>1498.199951171875</ele>
        <time>2020-08-14T08:01:13.000Z</time>
      </trkpt>
      <trkpt lat="42.401778660714626312255859375" lon="0.91874300502240657806396484375">
        <ele>1497.199951171875</ele>
        <time>2020-08-14T08:01:16.000Z</time>
      </trkpt>
      <trkpt lat="42.40182333625853061676025390625" lon="0.9186606109142303466796875">
        <ele>1496.800048828125</ele>
        <time>2020-08-14T08:01:19.000Z</time>
      </trkpt>
      <trkpt lat="42.4019243381917476654052734375" lon="0.91854301281273365020751953125">
        <ele>1496.4000244140625</ele>
        <time>2020-08-14T08:01:27.000Z</time>
      </trkpt>
      <trkpt lat="42.40193950943648815155029296875" lon="0.9185276739299297332763671875">
        <ele>1496.199951171875</ele>
        <time>2020-08-14T08:01:28.000Z</time>
      </trkpt>
      <trkpt lat="42.40205585025250911712646484375" lon="0.9184358082711696624755859375">
        <ele>1496</ele>
        <time>2020-08-14T08:01:34.000Z</time>
      </trkpt>
      <trkpt lat="42.40220722742378711700439453125" lon="0.9183228202164173126220703125">
        <ele>1495.800048828125</ele>
        <time>2020-08-14T08:01:41.000Z</time>
      </trkpt>
      <trkpt lat="42.40225751884281635284423828125" lon="0.9182916395366191864013671875">
        <ele>1495</ele>
        <time>2020-08-14T08:01:44.000Z</time>
      </trkpt>
      <trkpt lat="42.4022944830358028411865234375" lon="0.91828300617635250091552734375">
        <ele>1494.4000244140625</ele>
        <time>2020-08-14T08:01:46.000Z</time>
      </trkpt>
      <trkpt lat="42.40239984355866909027099609375" lon="0.91822902671992778778076171875">
        <ele>1494</ele>
        <time>2020-08-14T08:01:50.000Z</time>
      </trkpt>
      <trkpt lat="42.40243085660040378570556640625" lon="0.918199606239795684814453125">
        <ele>1494</ele>
        <time>2020-08-14T08:01:52.000Z</time>
      </trkpt>
      <trkpt lat="42.4024456925690174102783203125" lon="0.9181330539286136627197265625">
        <ele>1494.199951171875</ele>
        <time>2020-08-14T08:01:55.000Z</time>
      </trkpt>
      <trkpt lat="42.40245449356734752655029296875" lon="0.918007157742977142333984375">
        <ele>1494.800048828125</ele>
        <time>2020-08-14T08:02:01.000Z</time>
      </trkpt>
      <trkpt lat="42.40244485437870025634765625" lon="0.91789140366017818450927734375">
        <ele>1495</ele>
        <time>2020-08-14T08:02:05.000Z</time>
      </trkpt>
      <trkpt lat="42.4024356342852115631103515625" lon="0.9178183972835540771484375">
        <ele>1495</ele>
        <time>2020-08-14T08:02:07.000Z</time>
      </trkpt>
      <trkpt lat="42.40241593681275844573974609375" lon="0.91760088689625263214111328125">
        <ele>1495</ele>
        <time>2020-08-14T08:02:14.000Z</time>
      </trkpt>
      <trkpt lat="42.40242314524948596954345703125" lon="0.91743391938507556915283203125">
        <ele>1495.800048828125</ele>
        <time>2020-08-14T08:02:21.000Z</time>
      </trkpt>
      <trkpt lat="42.4024141766130924224853515625" lon="0.91736250557005405426025390625">
        <ele>1496.199951171875</ele>
        <time>2020-08-14T08:02:24.000Z</time>
      </trkpt>
      <trkpt lat="42.40238827653229236602783203125" lon="0.91724582947790622711181640625">
        <ele>1496.4000244140625</ele>
        <time>2020-08-14T08:02:29.000Z</time>
      </trkpt>
      <trkpt lat="42.4023809842765331268310546875" lon="0.9170692227780818939208984375">
        <ele>1496.800048828125</ele>
        <time>2020-08-14T08:02:37.000Z</time>
      </trkpt>
      <trkpt lat="42.40239984355866909027099609375" lon="0.917007364332675933837890625">
        <ele>1497.199951171875</ele>
        <time>2020-08-14T08:02:40.000Z</time>
      </trkpt>
      <trkpt lat="42.40240571089088916778564453125" lon="0.91692589223384857177734375">
        <ele>1497.800048828125</ele>
        <time>2020-08-14T08:02:44.000Z</time>
      </trkpt>
      <trkpt lat="42.40240738727152347564697265625" lon="0.91675582341849803924560546875">
        <ele>1497.5999755859375</ele>
        <time>2020-08-14T08:02:51.000Z</time>
      </trkpt>
      <trkpt lat="42.4024295993149280548095703125" lon="0.916495732963085174560546875">
        <ele>1496.199951171875</ele>
        <time>2020-08-14T08:02:58.000Z</time>
      </trkpt>
      <trkpt lat="42.40243705920875072479248046875" lon="0.91645156033337116241455078125">
        <ele>1495.5999755859375</ele>
        <time>2020-08-14T08:02:59.000Z</time>
      </trkpt>
      <trkpt lat="42.40247276611626148223876953125" lon="0.916300602257251739501953125">
        <ele>1494.4000244140625</ele>
        <time>2020-08-14T08:03:03.000Z</time>
      </trkpt>
      <trkpt lat="42.40247930400073528289794921875" lon="0.91626900248229503631591796875">
        <ele>1494.199951171875</ele>
        <time>2020-08-14T08:03:04.000Z</time>
      </trkpt>
      <trkpt lat="42.40250729955732822418212890625" lon="0.91617889702320098876953125">
        <ele>1493.4000244140625</ele>
        <time>2020-08-14T08:03:07.000Z</time>
      </trkpt>
      <trkpt lat="42.40253210999071598052978515625" lon="0.91611879877746105194091796875">
        <ele>1493</ele>
        <time>2020-08-14T08:03:09.000Z</time>
      </trkpt>
      <trkpt lat="42.40253630094230175018310546875" lon="0.91609365306794643402099609375">
        <ele>1493</ele>
        <time>2020-08-14T08:03:10.000Z</time>
      </trkpt>
      <trkpt lat="42.40250210277736186981201171875" lon="0.91605174355208873748779296875">
        <ele>1492.4000244140625</ele>
        <time>2020-08-14T08:03:13.000Z</time>
      </trkpt>
      <trkpt lat="42.4024825729429721832275390625" lon="0.91606163419783115386962890625">
        <ele>1492.199951171875</ele>
        <time>2020-08-14T08:03:14.000Z</time>
      </trkpt>
      <trkpt lat="42.40243907086551189422607421875" lon="0.91610848903656005859375">
        <ele>1491.800048828125</ele>
        <time>2020-08-14T08:03:16.000Z</time>
      </trkpt>
      <trkpt lat="42.4024141766130924224853515625" lon="0.9161395020782947540283203125">
        <ele>1491.5999755859375</ele>
        <time>2020-08-14T08:03:17.000Z</time>
      </trkpt>
      <trkpt lat="42.40236178971827030181884765625" lon="0.91621569357812404632568359375">
        <ele>1491</ele>
        <time>2020-08-14T08:03:19.000Z</time>
      </trkpt>
      <trkpt lat="42.402312755584716796875" lon="0.91633354313671588897705078125">
        <ele>1490.199951171875</ele>
        <time>2020-08-14T08:03:22.000Z</time>
      </trkpt>
      <trkpt lat="42.40229942835867404937744140625" lon="0.91636874713003635406494140625">
        <ele>1490</ele>
        <time>2020-08-14T08:03:23.000Z</time>
      </trkpt>
      <trkpt lat="42.4022549204528331756591796875" lon="0.91642674989998340606689453125">
        <ele>1489.5999755859375</ele>
        <time>2020-08-14T08:03:25.000Z</time>
      </trkpt>
      <trkpt lat="42.40222181193530559539794921875" lon="0.9164342097938060760498046875">
        <ele>1489.4000244140625</ele>
        <time>2020-08-14T08:03:26.000Z</time>
      </trkpt>
      <trkpt lat="42.402170933783054351806640625" lon="0.91638584621250629425048828125">
        <ele>1488.800048828125</ele>
        <time>2020-08-14T08:03:28.000Z</time>
      </trkpt>
      <trkpt lat="42.40216615609824657440185546875" lon="0.9163436852395534515380859375">
        <ele>1488.199951171875</ele>
        <time>2020-08-14T08:03:29.000Z</time>
      </trkpt>
      <trkpt lat="42.40218359045684337615966796875" lon="0.91626330278813838958740234375">
        <ele>1487.199951171875</ele>
        <time>2020-08-14T08:03:31.000Z</time>
      </trkpt>
      <trkpt lat="42.4022257514297962188720703125" lon="0.9161995165050029754638671875">
        <ele>1486.4000244140625</ele>
        <time>2020-08-14T08:03:33.000Z</time>
      </trkpt>
      <trkpt lat="42.40225483663380146026611328125" lon="0.9161582775413990020751953125">
        <ele>1486</ele>
        <time>2020-08-14T08:03:34.000Z</time>
      </trkpt>
      <trkpt lat="42.40235893987119197845458984375" lon="0.91599089093506336212158203125">
        <ele>1484.5999755859375</ele>
        <time>2020-08-14T08:03:37.000Z</time>
      </trkpt>
      <trkpt lat="42.402418367564678192138671875" lon="0.915871448814868927001953125">
        <ele>1483.4000244140625</ele>
        <time>2020-08-14T08:03:39.000Z</time>
      </trkpt>
      <trkpt lat="42.40248240530490875244140625" lon="0.91570825316011905670166015625">
        <ele>1482.4000244140625</ele>
        <time>2020-08-14T08:03:42.000Z</time>
      </trkpt>
      <trkpt lat="42.4025047011673450469970703125" lon="0.91565226204693317413330078125">
        <ele>1482.199951171875</ele>
        <time>2020-08-14T08:03:43.000Z</time>
      </trkpt>
      <trkpt lat="42.4025513045489788055419921875" lon="0.91554061509668827056884765625">
        <ele>1481.4000244140625</ele>
        <time>2020-08-14T08:03:45.000Z</time>
      </trkpt>
      <trkpt lat="42.402581311762332916259765625" lon="0.9154907427728176116943359375">
        <ele>1481</ele>
        <time>2020-08-14T08:03:46.000Z</time>
      </trkpt>
      <trkpt lat="42.40266219712793827056884765625" lon="0.91541446745395660400390625">
        <ele>1480</ele>
        <time>2020-08-14T08:03:48.000Z</time>
      </trkpt>
      <trkpt lat="42.402707375586032867431640625" lon="0.91538764536380767822265625">
        <ele>1479.5999755859375</ele>
        <time>2020-08-14T08:03:49.000Z</time>
      </trkpt>
      <trkpt lat="42.4027534760534763336181640625" lon="0.91536275111138820648193359375">
        <ele>1479.199951171875</ele>
        <time>2020-08-14T08:03:50.000Z</time>
      </trkpt>
      <trkpt lat="42.40285028703510761260986328125" lon="0.915306508541107177734375">
        <ele>1478.199951171875</ele>
        <time>2020-08-14T08:03:52.000Z</time>
      </trkpt>
      <trkpt lat="42.40293628536164760589599609375" lon="0.91522159986197948455810546875">
        <ele>1477.199951171875</ele>
        <time>2020-08-14T08:03:54.000Z</time>
      </trkpt>
      <trkpt lat="42.40302714519202709197998046875" lon="0.9150691330432891845703125">
        <ele>1476</ele>
        <time>2020-08-14T08:03:57.000Z</time>
      </trkpt>
      <trkpt lat="42.4030518718063831329345703125" lon="0.9150200150907039642333984375">
        <ele>1475.4000244140625</ele>
        <time>2020-08-14T08:03:58.000Z</time>
      </trkpt>
      <trkpt lat="42.40310543216764926910400390625" lon="0.9149103797972202301025390625">
        <ele>1474.199951171875</ele>
        <time>2020-08-14T08:04:00.000Z</time>
      </trkpt>
      <trkpt lat="42.4031363613903522491455078125" lon="0.91481323353946208953857421875">
        <ele>1473.199951171875</ele>
        <time>2020-08-14T08:04:02.000Z</time>
      </trkpt>
      <trkpt lat="42.40313007496297359466552734375" lon="0.9147370420396327972412109375">
        <ele>1471.800048828125</ele>
        <time>2020-08-14T08:04:04.000Z</time>
      </trkpt>
      <trkpt lat="42.403113059699535369873046875" lon="0.91470963321626186370849609375">
        <ele>1471.4000244140625</ele>
        <time>2020-08-14T08:04:05.000Z</time>
      </trkpt>
      <trkpt lat="42.40306016989052295684814453125" lon="0.914675854146480560302734375">
        <ele>1470.5999755859375</ele>
        <time>2020-08-14T08:04:07.000Z</time>
      </trkpt>
      <trkpt lat="42.4029982276260852813720703125" lon="0.91468222439289093017578125">
        <ele>1470</ele>
        <time>2020-08-14T08:04:09.000Z</time>
      </trkpt>
      <trkpt lat="42.4029630236327648162841796875" lon="0.91469873674213886260986328125">
        <ele>1469.5999755859375</ele>
        <time>2020-08-14T08:04:10.000Z</time>
      </trkpt>
      <trkpt lat="42.40288280881941318511962890625" lon="0.91475321911275386810302734375">
        <ele>1468.800048828125</ele>
        <time>2020-08-14T08:04:12.000Z</time>
      </trkpt>
      <trkpt lat="42.40283838473260402679443359375" lon="0.91478574089705944061279296875">
        <ele>1468.199951171875</ele>
        <time>2020-08-14T08:04:13.000Z</time>
      </trkpt>
      <trkpt lat="42.402746267616748809814453125" lon="0.91485128737986087799072265625">
        <ele>1466.5999755859375</ele>
        <time>2020-08-14T08:04:15.000Z</time>
      </trkpt>
      <trkpt lat="42.40264979191124439239501953125" lon="0.9149217791855335235595703125">
        <ele>1465.4000244140625</ele>
        <time>2020-08-14T08:04:17.000Z</time>
      </trkpt>
      <trkpt lat="42.40256094373762607574462890625" lon="0.91498933732509613037109375">
        <ele>1464</ele>
        <time>2020-08-14T08:04:19.000Z</time>
      </trkpt>
      <trkpt lat="42.40243772976100444793701171875" lon="0.9150498546659946441650390625">
        <ele>1462.5999755859375</ele>
        <time>2020-08-14T08:04:22.000Z</time>
      </trkpt>
      <trkpt lat="42.40234787575900554656982421875" lon="0.91505379416048526763916015625">
        <ele>1461.5999755859375</ele>
        <time>2020-08-14T08:04:24.000Z</time>
      </trkpt>
      <trkpt lat="42.40229993127286434173583984375" lon="0.91505479998886585235595703125">
        <ele>1461.199951171875</ele>
        <time>2020-08-14T08:04:25.000Z</time>
      </trkpt>
      <trkpt lat="42.402254082262516021728515625" lon="0.91506083495914936065673828125">
        <ele>1461</ele>
        <time>2020-08-14T08:04:26.000Z</time>
      </trkpt>
      <trkpt lat="42.40215576253831386566162109375" lon="0.9151048399507999420166015625">
        <ele>1460.199951171875</ele>
        <time>2020-08-14T08:04:29.000Z</time>
      </trkpt>
      <trkpt lat="42.4021067284047603607177734375" lon="0.91515370644629001617431640625">
        <ele>1459.4000244140625</ele>
        <time>2020-08-14T08:04:34.000Z</time>
      </trkpt>
      <trkpt lat="42.40210798569023609161376953125" lon="0.9151541255414485931396484375">
        <ele>1459.199951171875</ele>
        <time>2020-08-14T08:04:36.000Z</time>
      </trkpt>
      <trkpt lat="42.402109913527965545654296875" lon="0.91515538282692432403564453125">
        <ele>1459.199951171875</ele>
        <time>2020-08-14T08:04:57.000Z</time>
      </trkpt>
      <trkpt lat="42.40210999734699726104736328125" lon="0.91515521518886089324951171875">
        <ele>1458.800048828125</ele>
        <time>2020-08-14T08:05:11.000Z</time>
      </trkpt>
      <trkpt lat="42.4021100811660289764404296875" lon="0.9151554666459560394287109375">
        <ele>1459</ele>
        <time>2020-08-14T08:05:32.000Z</time>
      </trkpt>
      <trkpt lat="42.4021100811660289764404296875" lon="0.91515571810305118560791015625">
        <ele>1459</ele>
        <time>2020-08-14T08:06:00.000Z</time>
      </trkpt>
      <trkpt lat="42.40210413001477718353271484375" lon="0.91516493819653987884521484375">
        <ele>1458.800048828125</ele>
        <time>2020-08-14T08:06:13.000Z</time>
      </trkpt>
      <trkpt lat="42.402031123638153076171875" lon="0.915262587368488311767578125">
        <ele>1458.4000244140625</ele>
        <time>2020-08-14T08:06:17.000Z</time>
      </trkpt>
      <trkpt lat="42.40199617110192775726318359375" lon="0.91529921628534793853759765625">
        <ele>1458</ele>
        <time>2020-08-14T08:06:18.000Z</time>
      </trkpt>
      <trkpt lat="42.40187128074467182159423828125" lon="0.915434248745441436767578125">
        <ele>1456.4000244140625</ele>
        <time>2020-08-14T08:06:21.000Z</time>
      </trkpt>
      <trkpt lat="42.40172644145786762237548828125" lon="0.91558436863124370574951171875">
        <ele>1454.800048828125</ele>
        <time>2020-08-14T08:06:24.000Z</time>
      </trkpt>
      <trkpt lat="42.4016410298645496368408203125" lon="0.91569744050502777099609375">
        <ele>1453.800048828125</ele>
        <time>2020-08-14T08:06:26.000Z</time>
      </trkpt>
      <trkpt lat="42.40160205401480197906494140625" lon="0.91575887985527515411376953125">
        <ele>1453.4000244140625</ele>
        <time>2020-08-14T08:06:27.000Z</time>
      </trkpt>
      <trkpt lat="42.4014713801443576812744140625" lon="0.916025340557098388671875">
        <ele>1451.800048828125</ele>
        <time>2020-08-14T08:06:31.000Z</time>
      </trkpt>
      <trkpt lat="42.40144707262516021728515625" lon="0.91609683819115161895751953125">
        <ele>1450.800048828125</ele>
        <time>2020-08-14T08:06:32.000Z</time>
      </trkpt>
      <trkpt lat="42.40142636932432651519775390625" lon="0.9161713533103466033935546875">
        <ele>1450.4000244140625</ele>
        <time>2020-08-14T08:06:33.000Z</time>
      </trkpt>
      <trkpt lat="42.40140876732766628265380859375" lon="0.9163182042539119720458984375">
        <ele>1449.4000244140625</ele>
        <time>2020-08-14T08:06:35.000Z</time>
      </trkpt>
      <trkpt lat="42.4014127068221569061279296875" lon="0.91638743877410888671875">
        <ele>1449</ele>
        <time>2020-08-14T08:06:36.000Z</time>
      </trkpt>
      <trkpt lat="42.40141966380178928375244140625" lon="0.9164509736001491546630859375">
        <ele>1448.5999755859375</ele>
        <time>2020-08-14T08:06:37.000Z</time>
      </trkpt>
      <trkpt lat="42.4014153890311717987060546875" lon="0.91655884869396686553955078125">
        <ele>1448.199951171875</ele>
        <time>2020-08-14T08:06:39.000Z</time>
      </trkpt>
      <trkpt lat="42.40139887668192386627197265625" lon="0.9165966510772705078125">
        <ele>1447.5999755859375</ele>
        <time>2020-08-14T08:06:40.000Z</time>
      </trkpt>
      <trkpt lat="42.40134137682616710662841796875" lon="0.91660402715206146240234375">
        <ele>1447</ele>
        <time>2020-08-14T08:06:42.000Z</time>
      </trkpt>
      <trkpt lat="42.4013164825737476348876953125" lon="0.91657862998545169830322265625">
        <ele>1446.5999755859375</ele>
        <time>2020-08-14T08:06:43.000Z</time>
      </trkpt>
      <trkpt lat="42.40129686892032623291015625" lon="0.916428007185459136962890625">
        <ele>1446.199951171875</ele>
        <time>2020-08-14T08:06:46.000Z</time>
      </trkpt>
      <trkpt lat="42.40130181424319744110107421875" lon="0.9163654781877994537353515625">
        <ele>1445.5999755859375</ele>
        <time>2020-08-14T08:06:47.000Z</time>
      </trkpt>
      <trkpt lat="42.4013070948421955108642578125" lon="0.9162310324609279632568359375">
        <ele>1445</ele>
        <time>2020-08-14T08:06:49.000Z</time>
      </trkpt>
      <trkpt lat="42.4012946896255016326904296875" lon="0.916096083819866180419921875">
        <ele>1444.4000244140625</ele>
        <time>2020-08-14T08:06:51.000Z</time>
      </trkpt>
      <trkpt lat="42.40128882229328155517578125" lon="0.91602441854774951934814453125">
        <ele>1444</ele>
        <time>2020-08-14T08:06:52.000Z</time>
      </trkpt>
      <trkpt lat="42.40129510872066020965576171875" lon="0.91586533002555370330810546875">
        <ele>1443.199951171875</ele>
        <time>2020-08-14T08:06:54.000Z</time>
      </trkpt>
      <trkpt lat="42.4013064242899417877197265625" lon="0.91578402556478977203369140625">
        <ele>1442.199951171875</ele>
        <time>2020-08-14T08:06:55.000Z</time>
      </trkpt>
      <trkpt lat="42.40131891332566738128662109375" lon="0.915703475475311279296875">
        <ele>1441.199951171875</ele>
        <time>2020-08-14T08:06:56.000Z</time>
      </trkpt>
      <trkpt lat="42.4013422988355159759521484375" lon="0.9155531041324138641357421875">
        <ele>1439.800048828125</ele>
        <time>2020-08-14T08:06:58.000Z</time>
      </trkpt>
      <trkpt lat="42.40137926302850246429443359375" lon="0.91534866951406002044677734375">
        <ele>1439.4000244140625</ele>
        <time>2020-08-14T08:07:01.000Z</time>
      </trkpt>
      <trkpt lat="42.40139585919678211212158203125" lon="0.9152805246412754058837890625">
        <ele>1438.800048828125</ele>
        <time>2020-08-14T08:07:02.000Z</time>
      </trkpt>
      <trkpt lat="42.40141597576439380645751953125" lon="0.91521087102591991424560546875">
        <ele>1438.4000244140625</ele>
        <time>2020-08-14T08:07:03.000Z</time>
      </trkpt>
      <trkpt lat="42.40144195966422557830810546875" lon="0.9151400439441204071044921875">
        <ele>1437</ele>
        <time>2020-08-14T08:07:04.000Z</time>
      </trkpt>
      <trkpt lat="42.4014908261597156524658203125" lon="0.9149967133998870849609375">
        <ele>1435</ele>
        <time>2020-08-14T08:07:06.000Z</time>
      </trkpt>
      <trkpt lat="42.4015089310705661773681640625" lon="0.91492538340389728546142578125">
        <ele>1434.199951171875</ele>
        <time>2020-08-14T08:07:07.000Z</time>
      </trkpt>
      <trkpt lat="42.401522509753704071044921875" lon="0.91485246084630489349365234375">
        <ele>1433.4000244140625</ele>
        <time>2020-08-14T08:07:08.000Z</time>
      </trkpt>
      <trkpt lat="42.4015397764742374420166015625" lon="0.914697982370853424072265625">
        <ele>1432.199951171875</ele>
        <time>2020-08-14T08:07:10.000Z</time>
      </trkpt>
      <trkpt lat="42.4015458114445209503173828125" lon="0.9146119840443134307861328125">
        <ele>1431.199951171875</ele>
        <time>2020-08-14T08:07:11.000Z</time>
      </trkpt>
      <trkpt lat="42.40155008621513843536376953125" lon="0.91452640481293201446533203125">
        <ele>1430.5999755859375</ele>
        <time>2020-08-14T08:07:12.000Z</time>
      </trkpt>
      <trkpt lat="42.40155729465186595916748046875" lon="0.91420236043632030487060546875">
        <ele>1429.5999755859375</ele>
        <time>2020-08-14T08:07:16.000Z</time>
      </trkpt>
      <trkpt lat="42.4015565402805805206298828125" lon="0.9141221456229686737060546875">
        <ele>1429.199951171875</ele>
        <time>2020-08-14T08:07:17.000Z</time>
      </trkpt>
      <trkpt lat="42.40155762992799282073974609375" lon="0.913965404033660888671875">
        <ele>1427.4000244140625</ele>
        <time>2020-08-14T08:07:19.000Z</time>
      </trkpt>
      <trkpt lat="42.4015810154378414154052734375" lon="0.913830287754535675048828125">
        <ele>1425.800048828125</ele>
        <time>2020-08-14T08:07:21.000Z</time>
      </trkpt>
      <trkpt lat="42.4016028083860874176025390625" lon="0.91376599855720996856689453125">
        <ele>1425</ele>
        <time>2020-08-14T08:07:22.000Z</time>
      </trkpt>
      <trkpt lat="42.401625774800777435302734375" lon="0.913700871169567108154296875">
        <ele>1424.4000244140625</ele>
        <time>2020-08-14T08:07:23.000Z</time>
      </trkpt>
      <trkpt lat="42.401684112846851348876953125" lon="0.91358243487775325775146484375">
        <ele>1422.800048828125</ele>
        <time>2020-08-14T08:07:25.000Z</time>
      </trkpt>
      <trkpt lat="42.40175326354801654815673828125" lon="0.913488306105136871337890625">
        <ele>1421.800048828125</ele>
        <time>2020-08-14T08:07:27.000Z</time>
      </trkpt>
      <trkpt lat="42.401794083416461944580078125" lon="0.91340473853051662445068359375">
        <ele>1421.199951171875</ele>
        <time>2020-08-14T08:07:29.000Z</time>
      </trkpt>
      <trkpt lat="42.40179383195936679840087890625" lon="0.9133614040911197662353515625">
        <ele>1420.800048828125</ele>
        <time>2020-08-14T08:07:30.000Z</time>
      </trkpt>
      <trkpt lat="42.40178192965686321258544921875" lon="0.9133215062320232391357421875">
        <ele>1420.199951171875</ele>
        <time>2020-08-14T08:07:31.000Z</time>
      </trkpt>
      <trkpt lat="42.40173138678073883056640625" lon="0.9132675267755985260009765625">
        <ele>1419.4000244140625</ele>
        <time>2020-08-14T08:07:33.000Z</time>
      </trkpt>
      <trkpt lat="42.4016976915299892425537109375" lon="0.91325922869145870208740234375">
        <ele>1419</ele>
        <time>2020-08-14T08:07:34.000Z</time>
      </trkpt>
      <trkpt lat="42.40162418223917484283447265625" lon="0.91327498666942119598388671875">
        <ele>1418.199951171875</ele>
        <time>2020-08-14T08:07:36.000Z</time>
      </trkpt>
      <trkpt lat="42.401585876941680908203125" lon="0.91329392977058887481689453125">
        <ele>1417.5999755859375</ele>
        <time>2020-08-14T08:07:37.000Z</time>
      </trkpt>
      <trkpt lat="42.4015119485557079315185546875" lon="0.9133530221879482269287109375">
        <ele>1416.4000244140625</ele>
        <time>2020-08-14T08:07:39.000Z</time>
      </trkpt>
      <trkpt lat="42.4014462344348430633544921875" lon="0.91343700885772705078125">
        <ele>1415.199951171875</ele>
        <time>2020-08-14T08:07:41.000Z</time>
      </trkpt>
      <trkpt lat="42.40141689777374267578125" lon="0.91348956339061260223388671875">
        <ele>1414.5999755859375</ele>
        <time>2020-08-14T08:07:42.000Z</time>
      </trkpt>
      <trkpt lat="42.4013914167881011962890625" lon="0.91354228556156158447265625">
        <ele>1414.199951171875</ele>
        <time>2020-08-14T08:07:43.000Z</time>
      </trkpt>
      <trkpt lat="42.40137088112533092498779296875" lon="0.913592241704463958740234375">
        <ele>1413.800048828125</ele>
        <time>2020-08-14T08:07:44.000Z</time>
      </trkpt>
      <trkpt lat="42.40131975151598453521728515625" lon="0.913741104304790496826171875">
        <ele>1412.800048828125</ele>
        <time>2020-08-14T08:07:47.000Z</time>
      </trkpt>
      <trkpt lat="42.40130164660513401031494140625" lon="0.91377840377390384674072265625">
        <ele>1411.800048828125</ele>
        <time>2020-08-14T08:07:48.000Z</time>
      </trkpt>
      <trkpt lat="42.4012524448335170745849609375" lon="0.9138036333024501800537109375">
        <ele>1410.4000244140625</ele>
        <time>2020-08-14T08:07:50.000Z</time>
      </trkpt>
      <trkpt lat="42.40122805349528789520263671875" lon="0.913793407380580902099609375">
        <ele>1410</ele>
        <time>2020-08-14T08:07:51.000Z</time>
      </trkpt>
      <trkpt lat="42.40119385533034801483154296875" lon="0.91374202631413936614990234375">
        <ele>1409.199951171875</ele>
        <time>2020-08-14T08:07:53.000Z</time>
      </trkpt>
      <trkpt lat="42.40118564106523990631103515625" lon="0.91366558335721492767333984375">
        <ele>1408.800048828125</ele>
        <time>2020-08-14T08:07:55.000Z</time>
      </trkpt>
      <trkpt lat="42.40120190195739269256591796875" lon="0.9135585464537143707275390625">
        <ele>1408</ele>
        <time>2020-08-14T08:07:57.000Z</time>
      </trkpt>
      <trkpt lat="42.4012158997356891632080078125" lon="0.91349643655121326446533203125">
        <ele>1407.5999755859375</ele>
        <time>2020-08-14T08:07:58.000Z</time>
      </trkpt>
      <trkpt lat="42.40123207680881023406982421875" lon="0.91343692503869533538818359375">
        <ele>1407</ele>
        <time>2020-08-14T08:07:59.000Z</time>
      </trkpt>
      <trkpt lat="42.40126308985054492950439453125" lon="0.91332192532718181610107421875">
        <ele>1406.199951171875</ele>
        <time>2020-08-14T08:08:01.000Z</time>
      </trkpt>
      <trkpt lat="42.40129125304520130157470703125" lon="0.913203321397304534912109375">
        <ele>1405.5999755859375</ele>
        <time>2020-08-14T08:08:03.000Z</time>
      </trkpt>
      <trkpt lat="42.40132159553468227386474609375" lon="0.91307985596358776092529296875">
        <ele>1405</ele>
        <time>2020-08-14T08:08:05.000Z</time>
      </trkpt>
      <trkpt lat="42.40133534185588359832763671875" lon="0.9130194224417209625244140625">
        <ele>1404.199951171875</ele>
        <time>2020-08-14T08:08:06.000Z</time>
      </trkpt>
      <trkpt lat="42.40136015228927135467529296875" lon="0.91290517710149288177490234375">
        <ele>1402.5999755859375</ele>
        <time>2020-08-14T08:08:08.000Z</time>
      </trkpt>
      <trkpt lat="42.40137959830462932586669921875" lon="0.9127973020076751708984375">
        <ele>1400.800048828125</ele>
        <time>2020-08-14T08:08:10.000Z</time>
      </trkpt>
      <trkpt lat="42.40139208734035491943359375" lon="0.91274625621736049652099609375">
        <ele>1400.199951171875</ele>
        <time>2020-08-14T08:08:11.000Z</time>
      </trkpt>
      <trkpt lat="42.40140658803284168243408203125" lon="0.91269965283572673797607421875">
        <ele>1399.800048828125</ele>
        <time>2020-08-14T08:08:12.000Z</time>
      </trkpt>
      <trkpt lat="42.40143089555203914642333984375" lon="0.9126291610300540924072265625">
        <ele>1398.5999755859375</ele>
        <time>2020-08-14T08:08:14.000Z</time>
      </trkpt>
      <trkpt lat="42.4014343321323394775390625" lon="0.9126097150146961212158203125">
        <ele>1398.199951171875</ele>
        <time>2020-08-14T08:08:15.000Z</time>
      </trkpt>
      <trkpt lat="42.40143173374235630035400390625" lon="0.91259957291185855865478515625">
        <ele>1397.4000244140625</ele>
        <time>2020-08-14T08:08:17.000Z</time>
      </trkpt>
      <trkpt lat="42.40142603404819965362548828125" lon="0.91259186156094074249267578125">
        <ele>1397.199951171875</ele>
        <time>2020-08-14T08:08:20.000Z</time>
      </trkpt>
      <trkpt lat="42.40143366158008575439453125" lon="0.91258280910551548004150390625">
        <ele>1397.199951171875</ele>
        <time>2020-08-14T08:08:26.000Z</time>
      </trkpt>
      <trkpt lat="42.40146542899310588836669921875" lon="0.91255615465342998504638671875">
        <ele>1396.800048828125</ele>
        <time>2020-08-14T08:08:28.000Z</time>
      </trkpt>
      <trkpt lat="42.40154271014034748077392578125" lon="0.912427492439746856689453125">
        <ele>1396.199951171875</ele>
        <time>2020-08-14T08:08:32.000Z</time>
      </trkpt>
      <trkpt lat="42.40156852640211582183837890625" lon="0.9123911149799823760986328125">
        <ele>1395.800048828125</ele>
        <time>2020-08-14T08:08:33.000Z</time>
      </trkpt>
      <trkpt lat="42.4016262777149677276611328125" lon="0.9123364649713039398193359375">
        <ele>1395.199951171875</ele>
        <time>2020-08-14T08:08:35.000Z</time>
      </trkpt>
      <trkpt lat="42.40169056691229343414306640625" lon="0.91230017133057117462158203125">
        <ele>1393.800048828125</ele>
        <time>2020-08-14T08:08:37.000Z</time>
      </trkpt>
      <trkpt lat="42.40172543562948703765869140625" lon="0.91228910721838474273681640625">
        <ele>1393.199951171875</ele>
        <time>2020-08-14T08:08:38.000Z</time>
      </trkpt>
      <trkpt lat="42.4017613939940929412841796875" lon="0.91227988712489604949951171875">
        <ele>1392.800048828125</ele>
        <time>2020-08-14T08:08:39.000Z</time>
      </trkpt>
      <trkpt lat="42.4018237553536891937255859375" lon="0.9122586809098720550537109375">
        <ele>1391.5999755859375</ele>
        <time>2020-08-14T08:08:41.000Z</time>
      </trkpt>
      <trkpt lat="42.401861809194087982177734375" lon="0.912226326763629913330078125">
        <ele>1391</ele>
        <time>2020-08-14T08:08:43.000Z</time>
      </trkpt>
      <trkpt lat="42.4018713645637035369873046875" lon="0.912206210196018218994140625">
        <ele>1390.800048828125</ele>
        <time>2020-08-14T08:08:44.000Z</time>
      </trkpt>
      <trkpt lat="42.40187597461044788360595703125" lon="0.9121839143335819244384765625">
        <ele>1390.5999755859375</ele>
        <time>2020-08-14T08:08:45.000Z</time>
      </trkpt>
      <trkpt lat="42.4018747173249721527099609375" lon="0.9121213853359222412109375">
        <ele>1389.800048828125</ele>
        <time>2020-08-14T08:08:48.000Z</time>
      </trkpt>
      <trkpt lat="42.40186088718473911285400390625" lon="0.9120873548090457916259765625">
        <ele>1389.199951171875</ele>
        <time>2020-08-14T08:08:50.000Z</time>
      </trkpt>
      <trkpt lat="42.40180523134768009185791015625" lon="0.91203211806714534759521484375">
        <ele>1388.800048828125</ele>
        <time>2020-08-14T08:08:54.000Z</time>
      </trkpt>
      <trkpt lat="42.4017600528895854949951171875" lon="0.91201786883175373077392578125">
        <ele>1388.4000244140625</ele>
        <time>2020-08-14T08:08:56.000Z</time>
      </trkpt>
      <trkpt lat="42.401729710400104522705078125" lon="0.9120114147663116455078125">
        <ele>1388.199951171875</ele>
        <time>2020-08-14T08:08:57.000Z</time>
      </trkpt>
      <trkpt lat="42.40165854804217815399169921875" lon="0.9120115824043750762939453125">
        <ele>1387.4000244140625</ele>
        <time>2020-08-14T08:08:59.000Z</time>
      </trkpt>
      <trkpt lat="42.401621080935001373291015625" lon="0.9120189584791660308837890625">
        <ele>1386.5999755859375</ele>
        <time>2020-08-14T08:09:00.000Z</time>
      </trkpt>
      <trkpt lat="42.4015129543840885162353515625" lon="0.91205290518701076507568359375">
        <ele>1385.4000244140625</ele>
        <time>2020-08-14T08:09:03.000Z</time>
      </trkpt>
      <trkpt lat="42.40144464187324047088623046875" lon="0.91208810918033123016357421875">
        <ele>1384.5999755859375</ele>
        <time>2020-08-14T08:09:05.000Z</time>
      </trkpt>
      <trkpt lat="42.40140893496572971343994140625" lon="0.912111662328243255615234375">
        <ele>1383.800048828125</ele>
        <time>2020-08-14T08:09:06.000Z</time>
      </trkpt>
      <trkpt lat="42.4013268761336803436279296875" lon="0.91215960681438446044921875">
        <ele>1382.199951171875</ele>
        <time>2020-08-14T08:09:08.000Z</time>
      </trkpt>
      <trkpt lat="42.40127733908593654632568359375" lon="0.91216765344142913818359375">
        <ele>1381</ele>
        <time>2020-08-14T08:09:09.000Z</time>
      </trkpt>
      <trkpt lat="42.401175834238529205322265625" lon="0.91215826570987701416015625">
        <ele>1379.199951171875</ele>
        <time>2020-08-14T08:09:11.000Z</time>
      </trkpt>
      <trkpt lat="42.4010234512388706207275390625" lon="0.9121306054294109344482421875">
        <ele>1378</ele>
        <time>2020-08-14T08:09:14.000Z</time>
      </trkpt>
      <trkpt lat="42.40093150176107883453369140625" lon="0.9121119976043701171875">
        <ele>1376.199951171875</ele>
        <time>2020-08-14T08:09:16.000Z</time>
      </trkpt>
      <trkpt lat="42.40085120312869548797607421875" lon="0.9120954014360904693603515625">
        <ele>1374.800048828125</ele>
        <time>2020-08-14T08:09:18.000Z</time>
      </trkpt>
      <trkpt lat="42.4007770232856273651123046875" lon="0.9120762906968593597412109375">
        <ele>1373.199951171875</ele>
        <time>2020-08-14T08:09:20.000Z</time>
      </trkpt>
      <trkpt lat="42.40069177933037281036376953125" lon="0.9120595268905162811279296875">
        <ele>1372</ele>
        <time>2020-08-14T08:09:22.000Z</time>
      </trkpt>
      <trkpt lat="42.40059756673872470855712890625" lon="0.91207218356430530548095703125">
        <ele>1371.199951171875</ele>
        <time>2020-08-14T08:09:24.000Z</time>
      </trkpt>
      <trkpt lat="42.4005492031574249267578125" lon="0.91208911500871181488037109375">
        <ele>1371</ele>
        <time>2020-08-14T08:09:25.000Z</time>
      </trkpt>
      <trkpt lat="42.400418780744075775146484375" lon="0.91217125765979290008544921875">
        <ele>1370</ele>
        <time>2020-08-14T08:09:28.000Z</time>
      </trkpt>
      <trkpt lat="42.4003780446946620941162109375" lon="0.9122093953192234039306640625">
        <ele>1369.5999755859375</ele>
        <time>2020-08-14T08:09:29.000Z</time>
      </trkpt>
      <trkpt lat="42.40033688955008983612060546875" lon="0.91225482523441314697265625">
        <ele>1369.199951171875</ele>
        <time>2020-08-14T08:09:30.000Z</time>
      </trkpt>
      <trkpt lat="42.40030000917613506317138671875" lon="0.91230654157698154449462890625">
        <ele>1368.800048828125</ele>
        <time>2020-08-14T08:09:31.000Z</time>
      </trkpt>
      <trkpt lat="42.40024368278682231903076171875" lon="0.9124149195849895477294921875">
        <ele>1368</ele>
        <time>2020-08-14T08:09:33.000Z</time>
      </trkpt>
      <trkpt lat="42.40022188983857631683349609375" lon="0.9124675579369068145751953125">
        <ele>1367.4000244140625</ele>
        <time>2020-08-14T08:09:34.000Z</time>
      </trkpt>
      <trkpt lat="42.40017813630402088165283203125" lon="0.91256805695593357086181640625">
        <ele>1365.199951171875</ele>
        <time>2020-08-14T08:09:36.000Z</time>
      </trkpt>
      <trkpt lat="42.40013119764626026153564453125" lon="0.91265003196895122528076171875">
        <ele>1364</ele>
        <time>2020-08-14T08:09:38.000Z</time>
      </trkpt>
      <trkpt lat="42.4001037888228893280029296875" lon="0.91267350129783153533935546875">
        <ele>1363.5999755859375</ele>
        <time>2020-08-14T08:09:39.000Z</time>
      </trkpt>
      <trkpt lat="42.40007470361888408660888671875" lon="0.9126797877252101898193359375">
        <ele>1363</ele>
        <time>2020-08-14T08:09:40.000Z</time>
      </trkpt>
      <trkpt lat="42.400023154914379119873046875" lon="0.91264919377863407135009765625">
        <ele>1362.199951171875</ele>
        <time>2020-08-14T08:09:42.000Z</time>
      </trkpt>
      <trkpt lat="42.40000345744192600250244140625" lon="0.9126211144030094146728515625">
        <ele>1362</ele>
        <time>2020-08-14T08:09:43.000Z</time>
      </trkpt>
      <trkpt lat="42.39998334087431430816650390625" lon="0.91253872029483318328857421875">
        <ele>1360.5999755859375</ele>
        <time>2020-08-14T08:09:45.000Z</time>
      </trkpt>
      <trkpt lat="42.39998065866529941558837890625" lon="0.91248826123774051666259765625">
        <ele>1360</ele>
        <time>2020-08-14T08:09:46.000Z</time>
      </trkpt>
      <trkpt lat="42.399978898465633392333984375" lon="0.91243310831487178802490234375">
        <ele>1359.800048828125</ele>
        <time>2020-08-14T08:09:47.000Z</time>
      </trkpt>
      <trkpt lat="42.39997713826596736907958984375" lon="0.9123730100691318511962890625">
        <ele>1359.5999755859375</ele>
        <time>2020-08-14T08:09:48.000Z</time>
      </trkpt>
      <trkpt lat="42.39998250268399715423583984375" lon="0.9122482873499393463134765625">
        <ele>1358.5999755859375</ele>
        <time>2020-08-14T08:09:50.000Z</time>
      </trkpt>
      <trkpt lat="42.39999474026262760162353515625" lon="0.91218634508550167083740234375">
        <ele>1358.199951171875</ele>
        <time>2020-08-14T08:09:51.000Z</time>
      </trkpt>
      <trkpt lat="42.40007185377180576324462890625" lon="0.9119928069412708282470703125">
        <ele>1357.199951171875</ele>
        <time>2020-08-14T08:09:54.000Z</time>
      </trkpt>
      <trkpt lat="42.4001058004796504974365234375" lon="0.9119202196598052978515625">
        <ele>1356.800048828125</ele>
        <time>2020-08-14T08:09:55.000Z</time>
      </trkpt>
      <trkpt lat="42.4001802317798137664794921875" lon="0.91176540590822696685791015625">
        <ele>1355.5999755859375</ele>
        <time>2020-08-14T08:09:57.000Z</time>
      </trkpt>
      <trkpt lat="42.40025675855576992034912109375" lon="0.9116196446120738983154296875">
        <ele>1354.4000244140625</ele>
        <time>2020-08-14T08:09:59.000Z</time>
      </trkpt>
      <trkpt lat="42.40033705718815326690673828125" lon="0.91149617917835712432861328125">
        <ele>1353.5999755859375</ele>
        <time>2020-08-14T08:10:01.000Z</time>
      </trkpt>
      <trkpt lat="42.40040377713739871978759765625" lon="0.911373384296894073486328125">
        <ele>1353.4000244140625</ele>
        <time>2020-08-14T08:10:03.000Z</time>
      </trkpt>
      <trkpt lat="42.40046563558280467987060546875" lon="0.91115268878638744354248046875">
        <ele>1352.5999755859375</ele>
        <time>2020-08-14T08:10:06.000Z</time>
      </trkpt>
      <trkpt lat="42.4004692398011684417724609375" lon="0.9110718034207820892333984375">
        <ele>1351.800048828125</ele>
        <time>2020-08-14T08:10:07.000Z</time>
      </trkpt>
      <trkpt lat="42.4004571698606014251708984375" lon="0.910913385450839996337890625">
        <ele>1350.5999755859375</ele>
        <time>2020-08-14T08:10:09.000Z</time>
      </trkpt>
      <trkpt lat="42.40045021288096904754638671875" lon="0.91084155254065990447998046875">
        <ele>1349.800048828125</ele>
        <time>2020-08-14T08:10:10.000Z</time>
      </trkpt>
      <trkpt lat="42.4004437588155269622802734375" lon="0.910772569477558135986328125">
        <ele>1348.800048828125</ele>
        <time>2020-08-14T08:10:11.000Z</time>
      </trkpt>
      <trkpt lat="42.40044015459716320037841796875" lon="0.91063787229359149932861328125">
        <ele>1347.4000244140625</ele>
        <time>2020-08-14T08:10:13.000Z</time>
      </trkpt>
      <trkpt lat="42.40046563558280467987060546875" lon="0.9105172567069530487060546875">
        <ele>1346.199951171875</ele>
        <time>2020-08-14T08:10:15.000Z</time>
      </trkpt>
      <trkpt lat="42.40048994310200214385986328125" lon="0.91046688146889209747314453125">
        <ele>1345.199951171875</ele>
        <time>2020-08-14T08:10:16.000Z</time>
      </trkpt>
      <trkpt lat="42.40056219510734081268310546875" lon="0.910394378006458282470703125">
        <ele>1343.800048828125</ele>
        <time>2020-08-14T08:10:18.000Z</time>
      </trkpt>
      <trkpt lat="42.40065179765224456787109375" lon="0.91035255230963230133056640625">
        <ele>1343.4000244140625</ele>
        <time>2020-08-14T08:10:20.000Z</time>
      </trkpt>
      <trkpt lat="42.40070166997611522674560546875" lon="0.910335369408130645751953125">
        <ele>1342.800048828125</ele>
        <time>2020-08-14T08:10:21.000Z</time>
      </trkpt>
      <trkpt lat="42.40079940296709537506103515625" lon="0.910297818481922149658203125">
        <ele>1341.5999755859375</ele>
        <time>2020-08-14T08:10:23.000Z</time>
      </trkpt>
      <trkpt lat="42.4008863233029842376708984375" lon="0.91024543158710002899169921875">
        <ele>1340.5999755859375</ele>
        <time>2020-08-14T08:10:25.000Z</time>
      </trkpt>
      <trkpt lat="42.40103024058043956756591796875" lon="0.910145603120326995849609375">
        <ele>1339.4000244140625</ele>
        <time>2020-08-14T08:10:28.000Z</time>
      </trkpt>
      <trkpt lat="42.4010821245610713958740234375" lon="0.91011098586022853851318359375">
        <ele>1339</ele>
        <time>2020-08-14T08:10:29.000Z</time>
      </trkpt>
      <trkpt lat="42.40118329413235187530517578125" lon="0.91004200279712677001953125">
        <ele>1337.800048828125</ele>
        <time>2020-08-14T08:10:31.000Z</time>
      </trkpt>
      <trkpt lat="42.40127700380980968475341796875" lon="0.90997226536273956298828125">
        <ele>1336.5999755859375</ele>
        <time>2020-08-14T08:10:33.000Z</time>
      </trkpt>
      <trkpt lat="42.40132461301982402801513671875" lon="0.909939073026180267333984375">
        <ele>1336.199951171875</ele>
        <time>2020-08-14T08:10:34.000Z</time>
      </trkpt>
      <trkpt lat="42.4013724736869335174560546875" lon="0.90991267003118991851806640625">
        <ele>1335.4000244140625</ele>
        <time>2020-08-14T08:10:35.000Z</time>
      </trkpt>
      <trkpt lat="42.40141714923083782196044921875" lon="0.90989020653069019317626953125">
        <ele>1334.5999755859375</ele>
        <time>2020-08-14T08:10:36.000Z</time>
      </trkpt>
      <trkpt lat="42.4014566279947757720947265625" lon="0.9098648093640804290771484375">
        <ele>1334</ele>
        <time>2020-08-14T08:10:37.000Z</time>
      </trkpt>
      <trkpt lat="42.4015300534665584564208984375" lon="0.90975676663219928741455078125">
        <ele>1332.4000244140625</ele>
        <time>2020-08-14T08:10:40.000Z</time>
      </trkpt>
      <trkpt lat="42.40153064019978046417236328125" lon="0.90962332673370838165283203125">
        <ele>1331</ele>
        <time>2020-08-14T08:10:43.000Z</time>
      </trkpt>
      <trkpt lat="42.4015193246304988861083984375" lon="0.909580998122692108154296875">
        <ele>1330.5999755859375</ele>
        <time>2020-08-14T08:10:44.000Z</time>
      </trkpt>
      <trkpt lat="42.40150096826255321502685546875" lon="0.90953481383621692657470703125">
        <ele>1330.199951171875</ele>
        <time>2020-08-14T08:10:45.000Z</time>
      </trkpt>
      <trkpt lat="42.40147716365754604339599609375" lon="0.9094849415123462677001953125">
        <ele>1329.199951171875</ele>
        <time>2020-08-14T08:10:46.000Z</time>
      </trkpt>
      <trkpt lat="42.40142016671597957611083984375" lon="0.90938461013138294219970703125">
        <ele>1328.199951171875</ele>
        <time>2020-08-14T08:10:48.000Z</time>
      </trkpt>
      <trkpt lat="42.40138848312199115753173828125" lon="0.90933683328330516815185546875">
        <ele>1327.800048828125</ele>
        <time>2020-08-14T08:10:49.000Z</time>
      </trkpt>
      <trkpt lat="42.40135545842349529266357421875" lon="0.9092911519110202789306640625">
        <ele>1327</ele>
        <time>2020-08-14T08:10:50.000Z</time>
      </trkpt>
      <trkpt lat="42.40132058970630168914794921875" lon="0.90925133787095546722412109375">
        <ele>1326.5999755859375</ele>
        <time>2020-08-14T08:10:51.000Z</time>
      </trkpt>
      <trkpt lat="42.40124456584453582763671875" lon="0.90918503701686859130859375">
        <ele>1325.800048828125</ele>
        <time>2020-08-14T08:10:53.000Z</time>
      </trkpt>
      <trkpt lat="42.40119762718677520751953125" lon="0.90915410779416561126708984375">
        <ele>1325.199951171875</ele>
        <time>2020-08-14T08:10:54.000Z</time>
      </trkpt>
      <trkpt lat="42.40114741958677768707275390625" lon="0.90912477113306522369384765625">
        <ele>1324.800048828125</ele>
        <time>2020-08-14T08:10:55.000Z</time>
      </trkpt>
      <trkpt lat="42.401094026863574981689453125" lon="0.9090973623096942901611328125">
        <ele>1324</ele>
        <time>2020-08-14T08:10:56.000Z</time>
      </trkpt>
      <trkpt lat="42.4009818769991397857666015625" lon="0.9090534411370754241943359375">
        <ele>1322.4000244140625</ele>
        <time>2020-08-14T08:10:58.000Z</time>
      </trkpt>
      <trkpt lat="42.40086947567760944366455078125" lon="0.90901345945894718170166015625">
        <ele>1320.199951171875</ele>
        <time>2020-08-14T08:11:00.000Z</time>
      </trkpt>
      <trkpt lat="42.4007548950612545013427734375" lon="0.908968113362789154052734375">
        <ele>1318.800048828125</ele>
        <time>2020-08-14T08:11:02.000Z</time>
      </trkpt>
      <trkpt lat="42.4006435833871364593505859375" lon="0.90892042033374309539794921875">
        <ele>1317.199951171875</ele>
        <time>2020-08-14T08:11:04.000Z</time>
      </trkpt>
      <trkpt lat="42.40053302608430385589599609375" lon="0.90887532569468021392822265625">
        <ele>1315.199951171875</ele>
        <time>2020-08-14T08:11:06.000Z</time>
      </trkpt>
      <trkpt lat="42.40047418512403964996337890625" lon="0.90885101817548274993896484375">
        <ele>1314.5999755859375</ele>
        <time>2020-08-14T08:11:07.000Z</time>
      </trkpt>
      <trkpt lat="42.4004150927066802978515625" lon="0.9088261239230632781982421875">
        <ele>1314</ele>
        <time>2020-08-14T08:11:08.000Z</time>
      </trkpt>
      <trkpt lat="42.4002137593924999237060546875" lon="0.90874942950904369354248046875">
        <ele>1313</ele>
        <time>2020-08-14T08:11:12.000Z</time>
      </trkpt>
      <trkpt lat="42.4001671560108661651611328125" lon="0.90872503817081451416015625">
        <ele>1313</ele>
        <time>2020-08-14T08:11:13.000Z</time>
      </trkpt>
      <trkpt lat="42.40001753903925418853759765625" lon="0.908640883862972259521484375">
        <ele>1311.800048828125</ele>
        <time>2020-08-14T08:11:16.000Z</time>
      </trkpt>
      <trkpt lat="42.39996246993541717529296875" lon="0.90862101875245571136474609375">
        <ele>1311</ele>
        <time>2020-08-14T08:11:17.000Z</time>
      </trkpt>
      <trkpt lat="42.39990538917481899261474609375" lon="0.90861179865896701812744140625">
        <ele>1310.4000244140625</ele>
        <time>2020-08-14T08:11:18.000Z</time>
      </trkpt>
      <trkpt lat="42.39974311552941799163818359375" lon="0.90863510034978389739990234375">
        <ele>1309.199951171875</ele>
        <time>2020-08-14T08:11:21.000Z</time>
      </trkpt>
      <trkpt lat="42.39961906336247920989990234375" lon="0.90870986692607402801513671875">
        <ele>1307.5999755859375</ele>
        <time>2020-08-14T08:11:24.000Z</time>
      </trkpt>
      <trkpt lat="42.399584949016571044921875" lon="0.908745825290679931640625">
        <ele>1307.4000244140625</ele>
        <time>2020-08-14T08:11:25.000Z</time>
      </trkpt>
      <trkpt lat="42.39952032454311847686767578125" lon="0.90881682001054286956787109375">
        <ele>1306.4000244140625</ele>
        <time>2020-08-14T08:11:27.000Z</time>
      </trkpt>
      <trkpt lat="42.3994580470025539398193359375" lon="0.9088522754609584808349609375">
        <ele>1305.199951171875</ele>
        <time>2020-08-14T08:11:29.000Z</time>
      </trkpt>
      <trkpt lat="42.39943130873143672943115234375" lon="0.9088408760726451873779296875">
        <ele>1304.4000244140625</ele>
        <time>2020-08-14T08:11:30.000Z</time>
      </trkpt>
      <trkpt lat="42.399413622915744781494140625" lon="0.9088143892586231231689453125">
        <ele>1304</ele>
        <time>2020-08-14T08:11:31.000Z</time>
      </trkpt>
      <trkpt lat="42.39940716885030269622802734375" lon="0.90874557383358478546142578125">
        <ele>1303.199951171875</ele>
        <time>2020-08-14T08:11:33.000Z</time>
      </trkpt>
      <trkpt lat="42.39941135980188846588134765625" lon="0.90870559215545654296875">
        <ele>1302.800048828125</ele>
        <time>2020-08-14T08:11:34.000Z</time>
      </trkpt>
      <trkpt lat="42.39946098066866397857666015625" lon="0.90856469236314296722412109375">
        <ele>1301.4000244140625</ele>
        <time>2020-08-14T08:11:37.000Z</time>
      </trkpt>
      <trkpt lat="42.3995147086679935455322265625" lon="0.9084368683397769927978515625">
        <ele>1300.199951171875</ele>
        <time>2020-08-14T08:11:39.000Z</time>
      </trkpt>
      <trkpt lat="42.3995720408856868743896484375" lon="0.9083074517548084259033203125">
        <ele>1299</ele>
        <time>2020-08-14T08:11:41.000Z</time>
      </trkpt>
      <trkpt lat="42.39962727762758731842041015625" lon="0.90818457305431365966796875">
        <ele>1297.800048828125</ele>
        <time>2020-08-14T08:11:43.000Z</time>
      </trkpt>
      <trkpt lat="42.39969559013843536376953125" lon="0.90802364051342010498046875">
        <ele>1296.800048828125</ele>
        <time>2020-08-14T08:11:46.000Z</time>
      </trkpt>
      <trkpt lat="42.399722076952457427978515625" lon="0.90797670185565948486328125">
        <ele>1296.199951171875</ele>
        <time>2020-08-14T08:11:47.000Z</time>
      </trkpt>
      <trkpt lat="42.3997524194419384002685546875" lon="0.9079363010823726654052734375">
        <ele>1295.800048828125</ele>
        <time>2020-08-14T08:11:48.000Z</time>
      </trkpt>
      <trkpt lat="42.3997859470546245574951171875" lon="0.90790453366935253143310546875">
        <ele>1295.5999755859375</ele>
        <time>2020-08-14T08:11:49.000Z</time>
      </trkpt>
      <trkpt lat="42.3998613841831684112548828125" lon="0.9078674018383026123046875">
        <ele>1294.4000244140625</ele>
        <time>2020-08-14T08:11:51.000Z</time>
      </trkpt>
      <trkpt lat="42.39990371279418468475341796875" lon="0.9078585170209407806396484375">
        <ele>1293.199951171875</ele>
        <time>2020-08-14T08:11:52.000Z</time>
      </trkpt>
      <trkpt lat="42.3999840952455997467041015625" lon="0.90785809792578220367431640625">
        <ele>1292.199951171875</ele>
        <time>2020-08-14T08:11:54.000Z</time>
      </trkpt>
      <trkpt lat="42.4000263400375843048095703125" lon="0.90785424225032329559326171875">
        <ele>1291.800048828125</ele>
        <time>2020-08-14T08:11:55.000Z</time>
      </trkpt>
      <trkpt lat="42.400109656155109405517578125" lon="0.907824151217937469482421875">
        <ele>1291</ele>
        <time>2020-08-14T08:11:57.000Z</time>
      </trkpt>
      <trkpt lat="42.4002077244222164154052734375" lon="0.9077368117868900299072265625">
        <ele>1289.4000244140625</ele>
        <time>2020-08-14T08:12:00.000Z</time>
      </trkpt>
      <trkpt lat="42.40023463033139705657958984375" lon="0.90770353563129901885986328125">
        <ele>1289</ele>
        <time>2020-08-14T08:12:01.000Z</time>
      </trkpt>
      <trkpt lat="42.40031157620251178741455078125" lon="0.90760010294616222381591796875">
        <ele>1288.199951171875</ele>
        <time>2020-08-14T08:12:04.000Z</time>
      </trkpt>
      <trkpt lat="42.4003777094185352325439453125" lon="0.9075024537742137908935546875">
        <ele>1287.4000244140625</ele>
        <time>2020-08-14T08:12:07.000Z</time>
      </trkpt>
      <trkpt lat="42.40040578879415988922119140625" lon="0.9074779786169528961181640625">
        <ele>1287.199951171875</ele>
        <time>2020-08-14T08:12:08.000Z</time>
      </trkpt>
      <trkpt lat="42.4005322717130184173583984375" lon="0.907409079372882843017578125">
        <ele>1286</ele>
        <time>2020-08-14T08:12:12.000Z</time>
      </trkpt>
      <trkpt lat="42.4005681462585926055908203125" lon="0.90740161947906017303466796875">
        <ele>1285.5999755859375</ele>
        <time>2020-08-14T08:12:13.000Z</time>
      </trkpt>
      <trkpt lat="42.40060083568096160888671875" lon="0.90739239938557147979736328125">
        <ele>1284.800048828125</ele>
        <time>2020-08-14T08:12:14.000Z</time>
      </trkpt>
      <trkpt lat="42.40069546736776828765869140625" lon="0.90737831778824329376220703125">
        <ele>1283.5999755859375</ele>
        <time>2020-08-14T08:12:17.000Z</time>
      </trkpt>
      <trkpt lat="42.40072262473404407501220703125" lon="0.9073716960847377777099609375">
        <ele>1283.199951171875</ele>
        <time>2020-08-14T08:12:18.000Z</time>
      </trkpt>
      <trkpt lat="42.40074693225324153900146484375" lon="0.9073613025248050689697265625">
        <ele>1282.5999755859375</ele>
        <time>2020-08-14T08:12:19.000Z</time>
      </trkpt>
      <trkpt lat="42.40078984759747982025146484375" lon="0.9073321335017681121826171875">
        <ele>1282</ele>
        <time>2020-08-14T08:12:21.000Z</time>
      </trkpt>
      <trkpt lat="42.4008066952228546142578125" lon="0.907272286713123321533203125">
        <ele>1281.5999755859375</ele>
        <time>2020-08-14T08:12:23.000Z</time>
      </trkpt>
      <trkpt lat="42.400804348289966583251953125" lon="0.9072369150817394256591796875">
        <ele>1281.199951171875</ele>
        <time>2020-08-14T08:12:24.000Z</time>
      </trkpt>
      <trkpt lat="42.40078314207494258880615234375" lon="0.90716692619025707244873046875">
        <ele>1280.199951171875</ele>
        <time>2020-08-14T08:12:26.000Z</time>
      </trkpt>
      <trkpt lat="42.40076520480215549468994140625" lon="0.90714027173817157745361328125">
        <ele>1279.4000244140625</ele>
        <time>2020-08-14T08:12:27.000Z</time>
      </trkpt>
      <trkpt lat="42.4007428251206874847412109375" lon="0.90711797587573528289794921875">
        <ele>1278.800048828125</ele>
        <time>2020-08-14T08:12:28.000Z</time>
      </trkpt>
      <trkpt lat="42.40065447986125946044921875" lon="0.9070909023284912109375">
        <ele>1278.199951171875</ele>
        <time>2020-08-14T08:12:31.000Z</time>
      </trkpt>
      <trkpt lat="42.4005517177283763885498046875" lon="0.9070863761007785797119140625">
        <ele>1277.800048828125</ele>
        <time>2020-08-14T08:12:34.000Z</time>
      </trkpt>
      <trkpt lat="42.40048575215041637420654296875" lon="0.90709467418491840362548828125">
        <ele>1276.800048828125</ele>
        <time>2020-08-14T08:12:36.000Z</time>
      </trkpt>
      <trkpt lat="42.4004526436328887939453125" lon="0.90710506774485111236572265625">
        <ele>1276.4000244140625</ele>
        <time>2020-08-14T08:12:37.000Z</time>
      </trkpt>
      <trkpt lat="42.40039086900651454925537109375" lon="0.90712116099894046783447265625">
        <ele>1275.199951171875</ele>
        <time>2020-08-14T08:12:39.000Z</time>
      </trkpt>
      <trkpt lat="42.4003609456121921539306640625" lon="0.907116048038005828857421875">
        <ele>1274</ele>
        <time>2020-08-14T08:12:40.000Z</time>
      </trkpt>
      <trkpt lat="42.4003378115594387054443359375" lon="0.90710221789777278900146484375">
        <ele>1273.5999755859375</ele>
        <time>2020-08-14T08:12:41.000Z</time>
      </trkpt>
      <trkpt lat="42.40031425841152667999267578125" lon="0.90704329311847686767578125">
        <ele>1273</ele>
        <time>2020-08-14T08:12:43.000Z</time>
      </trkpt>
      <trkpt lat="42.4003173597157001495361328125" lon="0.9070109389722347259521484375">
        <ele>1272.4000244140625</ele>
        <time>2020-08-14T08:12:44.000Z</time>
      </trkpt>
      <trkpt lat="42.40034594200551509857177734375" lon="0.90695519931614398956298828125">
        <ele>1271.4000244140625</ele>
        <time>2020-08-14T08:12:46.000Z</time>
      </trkpt>
      <trkpt lat="42.400400005280971527099609375" lon="0.90692116878926753997802734375">
        <ele>1270.800048828125</ele>
        <time>2020-08-14T08:12:48.000Z</time>
      </trkpt>
      <trkpt lat="42.40051374770700931549072265625" lon="0.90689367614686489105224609375">
        <ele>1270.199951171875</ele>
        <time>2020-08-14T08:12:51.000Z</time>
      </trkpt>
      <trkpt lat="42.40055666305124759674072265625" lon="0.9068852104246616363525390625">
        <ele>1270</ele>
        <time>2020-08-14T08:12:52.000Z</time>
      </trkpt>
      <trkpt lat="42.40063159726560115814208984375" lon="0.90686383657157421112060546875">
        <ele>1268.5999755859375</ele>
        <time>2020-08-14T08:12:54.000Z</time>
      </trkpt>
      <trkpt lat="42.4007059447467327117919921875" lon="0.90685210190713405609130859375">
        <ele>1267.4000244140625</ele>
        <time>2020-08-14T08:12:56.000Z</time>
      </trkpt>
      <trkpt lat="42.4007468484342098236083984375" lon="0.90684791095554828643798828125">
        <ele>1266.5999755859375</ele>
        <time>2020-08-14T08:12:57.000Z</time>
      </trkpt>
      <trkpt lat="42.400786578655242919921875" lon="0.906851850450038909912109375">
        <ele>1266.199951171875</ele>
        <time>2020-08-14T08:12:58.000Z</time>
      </trkpt>
      <trkpt lat="42.40089696832001209259033203125" lon="0.90689920820295810699462890625">
        <ele>1265</ele>
        <time>2020-08-14T08:13:01.000Z</time>
      </trkpt>
      <trkpt lat="42.4009309150278568267822265625" lon="0.9068992920219898223876953125">
        <ele>1264.800048828125</ele>
        <time>2020-08-14T08:13:02.000Z</time>
      </trkpt>
      <trkpt lat="42.40096888504922389984130859375" lon="0.9068476594984531402587890625">
        <ele>1264.5999755859375</ele>
        <time>2020-08-14T08:13:04.000Z</time>
      </trkpt>
      <trkpt lat="42.4009674601256847381591796875" lon="0.90677632950246334075927734375">
        <ele>1263.800048828125</ele>
        <time>2020-08-14T08:13:06.000Z</time>
      </trkpt>
      <trkpt lat="42.40095161832869052886962890625" lon="0.90674632228910923004150390625">
        <ele>1263.5999755859375</ele>
        <time>2020-08-14T08:13:07.000Z</time>
      </trkpt>
      <trkpt lat="42.400849945843219757080078125" lon="0.90667373500764369964599609375">
        <ele>1262.5999755859375</ele>
        <time>2020-08-14T08:13:11.000Z</time>
      </trkpt>
      <trkpt lat="42.40081516094505786895751953125" lon="0.9066550433635711669921875">
        <ele>1262</ele>
        <time>2020-08-14T08:13:12.000Z</time>
      </trkpt>
      <trkpt lat="42.40078079514205455780029296875" lon="0.906633250415325164794921875">
        <ele>1261.4000244140625</ele>
        <time>2020-08-14T08:13:13.000Z</time>
      </trkpt>
      <trkpt lat="42.40071960724890232086181640625" lon="0.90658974833786487579345703125">
        <ele>1259.800048828125</ele>
        <time>2020-08-14T08:13:15.000Z</time>
      </trkpt>
      <trkpt lat="42.4006925337016582489013671875" lon="0.90656912885606288909912109375">
        <ele>1258.5999755859375</ele>
        <time>2020-08-14T08:13:16.000Z</time>
      </trkpt>
      <trkpt lat="42.40064375102519989013671875" lon="0.906530655920505523681640625">
        <ele>1257.199951171875</ele>
        <time>2020-08-14T08:13:18.000Z</time>
      </trkpt>
      <trkpt lat="42.4005825631320476531982421875" lon="0.90650391764938831329345703125">
        <ele>1256.199951171875</ele>
        <time>2020-08-14T08:13:20.000Z</time>
      </trkpt>
      <trkpt lat="42.4004732631146907806396484375" lon="0.9065075218677520751953125">
        <ele>1255.199951171875</ele>
        <time>2020-08-14T08:13:23.000Z</time>
      </trkpt>
      <trkpt lat="42.40038701333105564117431640625" lon="0.90651766397058963775634765625">
        <ele>1254.4000244140625</ele>
        <time>2020-08-14T08:13:25.000Z</time>
      </trkpt>
      <trkpt lat="42.40034460090100765228271484375" lon="0.9065304882824420928955078125">
        <ele>1253.5999755859375</ele>
        <time>2020-08-14T08:13:26.000Z</time>
      </trkpt>
      <trkpt lat="42.40025239996612071990966796875" lon="0.90655923821032047271728515625">
        <ele>1252.5999755859375</ele>
        <time>2020-08-14T08:13:28.000Z</time>
      </trkpt>
      <trkpt lat="42.4001624621450901031494140625" lon="0.9065908379852771759033203125">
        <ele>1251.4000244140625</ele>
        <time>2020-08-14T08:13:30.000Z</time>
      </trkpt>
      <trkpt lat="42.40002994425594806671142578125" lon="0.90663350187242031097412109375">
        <ele>1250.199951171875</ele>
        <time>2020-08-14T08:13:33.000Z</time>
      </trkpt>
      <trkpt lat="42.39998937584459781646728515625" lon="0.906648673117160797119140625">
        <ele>1249.800048828125</ele>
        <time>2020-08-14T08:13:34.000Z</time>
      </trkpt>
      <trkpt lat="42.39994704723358154296875" lon="0.90666510164737701416015625">
        <ele>1249</ele>
        <time>2020-08-14T08:13:35.000Z</time>
      </trkpt>
      <trkpt lat="42.39990614354610443115234375" lon="0.90668731369078159332275390625">
        <ele>1248.4000244140625</ele>
        <time>2020-08-14T08:13:36.000Z</time>
      </trkpt>
      <trkpt lat="42.3998312093317508697509765625" lon="0.90675788931548595428466796875">
        <ele>1247.4000244140625</ele>
        <time>2020-08-14T08:13:38.000Z</time>
      </trkpt>
      <trkpt lat="42.39979860372841358184814453125" lon="0.90679175220429897308349609375">
        <ele>1246.4000244140625</ele>
        <time>2020-08-14T08:13:39.000Z</time>
      </trkpt>
      <trkpt lat="42.39976935088634490966796875" lon="0.9068205021321773529052734375">
        <ele>1245.800048828125</ele>
        <time>2020-08-14T08:13:40.000Z</time>
      </trkpt>
      <trkpt lat="42.3997152037918567657470703125" lon="0.90684355236589908599853515625">
        <ele>1244.4000244140625</ele>
        <time>2020-08-14T08:13:42.000Z</time>
      </trkpt>
      <trkpt lat="42.39969634450972080230712890625" lon="0.906826369464397430419921875">
        <ele>1244</ele>
        <time>2020-08-14T08:13:43.000Z</time>
      </trkpt>
      <trkpt lat="42.3996924050152301788330078125" lon="0.90672285296022891998291015625">
        <ele>1243.5999755859375</ele>
        <time>2020-08-14T08:13:46.000Z</time>
      </trkpt>
      <trkpt lat="42.399778403341770172119140625" lon="0.90660743415355682373046875">
        <ele>1243.4000244140625</ele>
        <time>2020-08-14T08:13:49.000Z</time>
      </trkpt>
      <trkpt lat="42.39981352351605892181396484375" lon="0.9065599925816059112548828125">
        <ele>1243</ele>
        <time>2020-08-14T08:13:50.000Z</time>
      </trkpt>
      <trkpt lat="42.39985048770904541015625" lon="0.90650592930614948272705078125">
        <ele>1242.199951171875</ele>
        <time>2020-08-14T08:13:51.000Z</time>
      </trkpt>
      <trkpt lat="42.39992533810436725616455078125" lon="0.90639411471784114837646484375">
        <ele>1240.4000244140625</ele>
        <time>2020-08-14T08:13:53.000Z</time>
      </trkpt>
      <trkpt lat="42.3999636434018611907958984375" lon="0.90634332038462162017822265625">
        <ele>1239</ele>
        <time>2020-08-14T08:13:54.000Z</time>
      </trkpt>
      <trkpt lat="42.400003038346767425537109375" lon="0.9062978066504001617431640625">
        <ele>1238</ele>
        <time>2020-08-14T08:13:55.000Z</time>
      </trkpt>
      <trkpt lat="42.40004318766295909881591796875" lon="0.90625313110649585723876953125">
        <ele>1237.199951171875</ele>
        <time>2020-08-14T08:13:56.000Z</time>
      </trkpt>
      <trkpt lat="42.40008627064526081085205078125" lon="0.9062113054096698760986328125">
        <ele>1236.4000244140625</ele>
        <time>2020-08-14T08:13:57.000Z</time>
      </trkpt>
      <trkpt lat="42.4002187885344028472900390625" lon="0.90609286911785602569580078125">
        <ele>1235.199951171875</ele>
        <time>2020-08-14T08:14:00.000Z</time>
      </trkpt>
      <trkpt lat="42.4002617038786411285400390625" lon="0.9060530550777912139892578125">
        <ele>1235</ele>
        <time>2020-08-14T08:14:01.000Z</time>
      </trkpt>
      <trkpt lat="42.40030420012772083282470703125" lon="0.90600955300033092498779296875">
        <ele>1234</ele>
        <time>2020-08-14T08:14:02.000Z</time>
      </trkpt>
      <trkpt lat="42.40038449876010417938232421875" lon="0.9059306792914867401123046875">
        <ele>1232.800048828125</ele>
        <time>2020-08-14T08:14:04.000Z</time>
      </trkpt>
      <trkpt lat="42.40050553344190120697021484375" lon="0.905840657651424407958984375">
        <ele>1232.4000244140625</ele>
        <time>2020-08-14T08:14:07.000Z</time>
      </trkpt>
      <trkpt lat="42.40054928697645664215087890625" lon="0.905817858874797821044921875">
        <ele>1231.4000244140625</ele>
        <time>2020-08-14T08:14:08.000Z</time>
      </trkpt>
      <trkpt lat="42.4005919508635997772216796875" lon="0.9057999216020107269287109375">
        <ele>1230.800048828125</ele>
        <time>2020-08-14T08:14:09.000Z</time>
      </trkpt>
      <trkpt lat="42.40068130195140838623046875" lon="0.90576781891286373138427734375">
        <ele>1230.199951171875</ele>
        <time>2020-08-14T08:14:11.000Z</time>
      </trkpt>
      <trkpt lat="42.4007230438292026519775390625" lon="0.90575189329683780670166015625">
        <ele>1230</ele>
        <time>2020-08-14T08:14:12.000Z</time>
      </trkpt>
      <trkpt lat="42.4007914401590824127197265625" lon="0.9057150967419147491455078125">
        <ele>1228.800048828125</ele>
        <time>2020-08-14T08:14:14.000Z</time>
      </trkpt>
      <trkpt lat="42.400848604738712310791015625" lon="0.905661620199680328369140625">
        <ele>1227.199951171875</ele>
        <time>2020-08-14T08:14:16.000Z</time>
      </trkpt>
      <trkpt lat="42.40087115205824375152587890625" lon="0.90562465600669384002685546875">
        <ele>1226.800048828125</ele>
        <time>2020-08-14T08:14:17.000Z</time>
      </trkpt>
      <trkpt lat="42.4009113013744354248046875" lon="0.90554033406078815460205078125">
        <ele>1226.199951171875</ele>
        <time>2020-08-14T08:14:19.000Z</time>
      </trkpt>
      <trkpt lat="42.40092672407627105712890625" lon="0.9054438583552837371826171875">
        <ele>1226</ele>
        <time>2020-08-14T08:14:21.000Z</time>
      </trkpt>
      <trkpt lat="42.40092848427593708038330078125" lon="0.905398093163967132568359375">
        <ele>1225.800048828125</ele>
        <time>2020-08-14T08:14:22.000Z</time>
      </trkpt>
      <trkpt lat="42.400916330516338348388671875" lon="0.9052869491279125213623046875">
        <ele>1224.4000244140625</ele>
        <time>2020-08-14T08:14:24.000Z</time>
      </trkpt>
      <trkpt lat="42.40089814178645610809326171875" lon="0.9051689319312572479248046875">
        <ele>1223.4000244140625</ele>
        <time>2020-08-14T08:14:26.000Z</time>
      </trkpt>
      <trkpt lat="42.40089059807360172271728515625" lon="0.90510732494294643402099609375">
        <ele>1222.800048828125</ele>
        <time>2020-08-14T08:14:27.000Z</time>
      </trkpt>
      <trkpt lat="42.40088657476007938385009765625" lon="0.90504261665046215057373046875">
        <ele>1222.199951171875</ele>
        <time>2020-08-14T08:14:28.000Z</time>
      </trkpt>
      <trkpt lat="42.4008858203887939453125" lon="0.90497665107250213623046875">
        <ele>1221.800048828125</ele>
        <time>2020-08-14T08:14:29.000Z</time>
      </trkpt>
      <trkpt lat="42.40088556893169879913330078125" lon="0.90484748594462871551513671875">
        <ele>1220.4000244140625</ele>
        <time>2020-08-14T08:14:31.000Z</time>
      </trkpt>
      <trkpt lat="42.40088506601750850677490234375" lon="0.90478646568953990936279296875">
        <ele>1220</ele>
        <time>2020-08-14T08:14:32.000Z</time>
      </trkpt>
      <trkpt lat="42.400888502597808837890625" lon="0.90472293086349964141845703125">
        <ele>1219.4000244140625</ele>
        <time>2020-08-14T08:14:33.000Z</time>
      </trkpt>
      <trkpt lat="42.4008997343480587005615234375" lon="0.90459032915532588958740234375">
        <ele>1218.199951171875</ele>
        <time>2020-08-14T08:14:35.000Z</time>
      </trkpt>
      <trkpt lat="42.4009292386472225189208984375" lon="0.90440324507653713226318359375">
        <ele>1216.800048828125</ele>
        <time>2020-08-14T08:14:38.000Z</time>
      </trkpt>
      <trkpt lat="42.40095555782318115234375" lon="0.90429428033530712127685546875">
        <ele>1215.4000244140625</ele>
        <time>2020-08-14T08:14:40.000Z</time>
      </trkpt>
      <trkpt lat="42.40099587477743625640869140625" lon="0.9041939489543437957763671875">
        <ele>1214.4000244140625</ele>
        <time>2020-08-14T08:14:42.000Z</time>
      </trkpt>
      <trkpt lat="42.4010214395821094512939453125" lon="0.9041493572294712066650390625">
        <ele>1213.5999755859375</ele>
        <time>2020-08-14T08:14:43.000Z</time>
      </trkpt>
      <trkpt lat="42.40104767493903636932373046875" lon="0.9041061066091060638427734375">
        <ele>1212.800048828125</ele>
        <time>2020-08-14T08:14:44.000Z</time>
      </trkpt>
      <trkpt lat="42.40107751451432704925537109375" lon="0.90406511910259723663330078125">
        <ele>1212.4000244140625</ele>
        <time>2020-08-14T08:14:45.000Z</time>
      </trkpt>
      <trkpt lat="42.401189245283603668212890625" lon="0.90398549102246761322021484375">
        <ele>1211.800048828125</ele>
        <time>2020-08-14T08:14:48.000Z</time>
      </trkpt>
      <trkpt lat="42.40132494829595088958740234375" lon="0.9038834832608699798583984375">
        <ele>1211.5999755859375</ele>
        <time>2020-08-14T08:14:53.000Z</time>
      </trkpt>
      <trkpt lat="42.40135311149060726165771484375" lon="0.90371509082615375518798828125">
        <ele>1211.4000244140625</ele>
        <time>2020-08-14T08:14:58.000Z</time>
      </trkpt>
      <trkpt lat="42.40135042928159236907958984375" lon="0.90368122793734073638916015625">
        <ele>1211.4000244140625</ele>
        <time>2020-08-14T08:14:59.000Z</time>
      </trkpt>
      <trkpt lat="42.40129359997808933258056640625" lon="0.90350068174302577972412109375">
        <ele>1211</ele>
        <time>2020-08-14T08:15:04.000Z</time>
      </trkpt>
      <trkpt lat="42.40122352726757526397705078125" lon="0.9033919684588909149169921875">
        <ele>1210.5999755859375</ele>
        <time>2020-08-14T08:15:07.000Z</time>
      </trkpt>
      <trkpt lat="42.40115043707191944122314453125" lon="0.903271101415157318115234375">
        <ele>1211</ele>
        <time>2020-08-14T08:15:11.000Z</time>
      </trkpt>
      <trkpt lat="42.4010640196502208709716796875" lon="0.90311394073069095611572265625">
        <ele>1211.4000244140625</ele>
        <time>2020-08-14T08:15:17.000Z</time>
      </trkpt>
      <trkpt lat="42.400995790958404541015625" lon="0.9030268527567386627197265625">
        <ele>1212</ele>
        <time>2020-08-14T08:15:21.000Z</time>
      </trkpt>
      <trkpt lat="42.4009667895734310150146484375" lon="0.90298376977443695068359375">
        <ele>1212.199951171875</ele>
        <time>2020-08-14T08:15:23.000Z</time>
      </trkpt>
      <trkpt lat="42.4009309150278568267822265625" lon="0.90290053747594356536865234375">
        <ele>1213.4000244140625</ele>
        <time>2020-08-14T08:15:27.000Z</time>
      </trkpt>
      <trkpt lat="42.40092337131500244140625" lon="0.9028783254325389862060546875">
        <ele>1213.4000244140625</ele>
        <time>2020-08-14T08:15:28.000Z</time>
      </trkpt>
      <trkpt lat="42.4008377082645893096923828125" lon="0.90275653637945652008056640625">
        <ele>1214</ele>
        <time>2020-08-14T08:15:35.000Z</time>
      </trkpt>
      <trkpt lat="42.4008256383240222930908203125" lon="0.90273926965892314910888671875">
        <ele>1214.4000244140625</ele>
        <time>2020-08-14T08:15:36.000Z</time>
      </trkpt>
      <trkpt lat="42.4007579125463962554931640625" lon="0.902606584131717681884765625">
        <ele>1215.5999755859375</ele>
        <time>2020-08-14T08:15:43.000Z</time>
      </trkpt>
      <trkpt lat="42.40073603577911853790283203125" lon="0.90256794355809688568115234375">
        <ele>1215.5999755859375</ele>
        <time>2020-08-14T08:15:45.000Z</time>
      </trkpt>
      <trkpt lat="42.40067191421985626220703125" lon="0.90241975151002407073974609375">
        <ele>1216.4000244140625</ele>
        <time>2020-08-14T08:15:52.000Z</time>
      </trkpt>
      <trkpt lat="42.40065439604222774505615234375" lon="0.9023811109364032745361328125">
        <ele>1216.800048828125</ele>
        <time>2020-08-14T08:15:54.000Z</time>
      </trkpt>
      <trkpt lat="42.4006040208041667938232421875" lon="0.90228748507797718048095703125">
        <ele>1217.5999755859375</ele>
        <time>2020-08-14T08:16:00.000Z</time>
      </trkpt>
      <trkpt lat="42.4005840718746185302734375" lon="0.902268625795841217041015625">
        <ele>1217.800048828125</ele>
        <time>2020-08-14T08:16:02.000Z</time>
      </trkpt>
      <trkpt lat="42.40055213682353496551513671875" lon="0.902233421802520751953125">
        <ele>1217.800048828125</ele>
        <time>2020-08-14T08:16:05.000Z</time>
      </trkpt>
      <trkpt lat="42.4004762805998325347900390625" lon="0.9021655283868312835693359375">
        <ele>1218.800048828125</ele>
        <time>2020-08-14T08:16:11.000Z</time>
      </trkpt>
      <trkpt lat="42.40042238496243953704833984375" lon="0.90211280621588230133056640625">
        <ele>1219</ele>
        <time>2020-08-14T08:16:15.000Z</time>
      </trkpt>
      <trkpt lat="42.40038014017045497894287109375" lon="0.90206469409167766571044921875">
        <ele>1219.5999755859375</ele>
        <time>2020-08-14T08:16:18.000Z</time>
      </trkpt>
      <trkpt lat="42.400310151278972625732421875" lon="0.90197819285094738006591796875">
        <ele>1220</ele>
        <time>2020-08-14T08:16:23.000Z</time>
      </trkpt>
      <trkpt lat="42.4002838321030139923095703125" lon="0.90193795971572399139404296875">
        <ele>1220.800048828125</ele>
        <time>2020-08-14T08:16:25.000Z</time>
      </trkpt>
      <trkpt lat="42.4001785553991794586181640625" lon="0.90177769772708415985107421875">
        <ele>1221</ele>
        <time>2020-08-14T08:16:32.000Z</time>
      </trkpt>
      <trkpt lat="42.400100268423557281494140625" lon="0.901560522615909576416015625">
        <ele>1220.5999755859375</ele>
        <time>2020-08-14T08:16:39.000Z</time>
      </trkpt>
      <trkpt lat="42.400149218738079071044921875" lon="0.90139330364763736724853515625">
        <ele>1220.800048828125</ele>
        <time>2020-08-14T08:16:44.000Z</time>
      </trkpt>
      <trkpt lat="42.4002375639975070953369140625" lon="0.90124167501926422119140625">
        <ele>1220.800048828125</ele>
        <time>2020-08-14T08:16:50.000Z</time>
      </trkpt>
      <trkpt lat="42.40024217404425144195556640625" lon="0.901203118264675140380859375">
        <ele>1221</ele>
        <time>2020-08-14T08:16:51.000Z</time>
      </trkpt>
      <trkpt lat="42.40021585486829280853271484375" lon="0.901087112724781036376953125">
        <ele>1221</ele>
        <time>2020-08-14T08:16:54.000Z</time>
      </trkpt>
      <trkpt lat="42.40012340247631072998046875" lon="0.900991894304752349853515625">
        <ele>1220.800048828125</ele>
        <time>2020-08-14T08:16:59.000Z</time>
      </trkpt>
      <trkpt lat="42.40009850822389125823974609375" lon="0.900973789393901824951171875">
        <ele>1220.800048828125</ele>
        <time>2020-08-14T08:17:00.000Z</time>
      </trkpt>
      <trkpt lat="42.39995350129902362823486328125" lon="0.90081998147070407867431640625">
        <ele>1220.5999755859375</ele>
        <time>2020-08-14T08:17:06.000Z</time>
      </trkpt>
      <trkpt lat="42.3998302035033702850341796875" lon="0.9005759842693805694580078125">
        <ele>1219.4000244140625</ele>
        <time>2020-08-14T08:17:12.000Z</time>
      </trkpt>
      <trkpt lat="42.39979223348200321197509765625" lon="0.90047766454517841339111328125">
        <ele>1219</ele>
        <time>2020-08-14T08:17:14.000Z</time>
      </trkpt>
      <trkpt lat="42.399769686162471771240234375" lon="0.900309272110462188720703125">
        <ele>1218.800048828125</ele>
        <time>2020-08-14T08:17:17.000Z</time>
      </trkpt>
      <trkpt lat="42.399828694760799407958984375" lon="0.90009544976055622100830078125">
        <ele>1218.800048828125</ele>
        <time>2020-08-14T08:17:21.000Z</time>
      </trkpt>
      <trkpt lat="42.399852834641933441162109375" lon="0.90005136094987392425537109375">
        <ele>1218.5999755859375</ele>
        <time>2020-08-14T08:17:22.000Z</time>
      </trkpt>
      <trkpt lat="42.39991745911538600921630859375" lon="0.89991641230881214141845703125">
        <ele>1218.199951171875</ele>
        <time>2020-08-14T08:17:25.000Z</time>
      </trkpt>
      <trkpt lat="42.399962134659290313720703125" lon="0.8997753448784351348876953125">
        <ele>1218</ele>
        <time>2020-08-14T08:17:28.000Z</time>
      </trkpt>
      <trkpt lat="42.39998702891170978546142578125" lon="0.89957660995423793792724609375">
        <ele>1217.4000244140625</ele>
        <time>2020-08-14T08:17:32.000Z</time>
      </trkpt>
      <trkpt lat="42.399983592331409454345703125" lon="0.89948222972452640533447265625">
        <ele>1217</ele>
        <time>2020-08-14T08:17:34.000Z</time>
      </trkpt>
      <trkpt lat="42.39992014132440090179443359375" lon="0.89915852062404155731201171875">
        <ele>1217</ele>
        <time>2020-08-14T08:17:40.000Z</time>
      </trkpt>
      <trkpt lat="42.39988359622657299041748046875" lon="0.89906372129917144775390625">
        <ele>1216.800048828125</ele>
        <time>2020-08-14T08:17:42.000Z</time>
      </trkpt>
      <trkpt lat="42.3998553492128849029541015625" lon="0.899020135402679443359375">
        <ele>1216.4000244140625</ele>
        <time>2020-08-14T08:17:43.000Z</time>
      </trkpt>
      <trkpt lat="42.39982274360954761505126953125" lon="0.89898199774324893951416015625">
        <ele>1215.5999755859375</ele>
        <time>2020-08-14T08:17:44.000Z</time>
      </trkpt>
      <trkpt lat="42.3997852765023708343505859375" lon="0.89895115233957767486572265625">
        <ele>1215.4000244140625</ele>
        <time>2020-08-14T08:17:45.000Z</time>
      </trkpt>
      <trkpt lat="42.39970497786998748779296875" lon="0.89891217648983001708984375">
        <ele>1214.199951171875</ele>
        <time>2020-08-14T08:17:47.000Z</time>
      </trkpt>
      <trkpt lat="42.39966868422925472259521484375" lon="0.8988900482654571533203125">
        <ele>1213.800048828125</ele>
        <time>2020-08-14T08:17:48.000Z</time>
      </trkpt>
      <trkpt lat="42.39956072531640529632568359375" lon="0.89872400276362895965576171875">
        <ele>1212.800048828125</ele>
        <time>2020-08-14T08:17:52.000Z</time>
      </trkpt>
      <trkpt lat="42.39954010583460330963134765625" lon="0.898669771850109100341796875">
        <ele>1212.5999755859375</ele>
        <time>2020-08-14T08:17:53.000Z</time>
      </trkpt>
      <trkpt lat="42.399463914334774017333984375" lon="0.898438431322574615478515625">
        <ele>1211.800048828125</ele>
        <time>2020-08-14T08:17:57.000Z</time>
      </trkpt>
      <trkpt lat="42.39942041225731372833251953125" lon="0.89831613935530185699462890625">
        <ele>1211.5999755859375</ele>
        <time>2020-08-14T08:17:59.000Z</time>
      </trkpt>
      <trkpt lat="42.39939610473811626434326171875" lon="0.89825595729053020477294921875">
        <ele>1210.5999755859375</ele>
        <time>2020-08-14T08:18:00.000Z</time>
      </trkpt>
      <trkpt lat="42.399342544376850128173828125" lon="0.898133330047130584716796875">
        <ele>1209.4000244140625</ele>
        <time>2020-08-14T08:18:02.000Z</time>
      </trkpt>
      <trkpt lat="42.39923634566366672515869140625" lon="0.8978706412017345428466796875">
        <ele>1208.199951171875</ele>
        <time>2020-08-14T08:18:06.000Z</time>
      </trkpt>
      <trkpt lat="42.3990486748516559600830078125" lon="0.89751206338405609130859375">
        <ele>1207.4000244140625</ele>
        <time>2020-08-14T08:18:12.000Z</time>
      </trkpt>
      <trkpt lat="42.39902378059923648834228515625" lon="0.89744676835834980010986328125">
        <ele>1207.199951171875</ele>
        <time>2020-08-14T08:18:13.000Z</time>
      </trkpt>
      <trkpt lat="42.3989936895668506622314453125" lon="0.89730695821344852447509765625">
        <ele>1205.5999755859375</ele>
        <time>2020-08-14T08:18:15.000Z</time>
      </trkpt>
      <trkpt lat="42.39898882806301116943359375" lon="0.89723847806453704833984375">
        <ele>1205</ele>
        <time>2020-08-14T08:18:16.000Z</time>
      </trkpt>
      <trkpt lat="42.399001233279705047607421875" lon="0.8971135877072811126708984375">
        <ele>1204.5999755859375</ele>
        <time>2020-08-14T08:18:18.000Z</time>
      </trkpt>
      <trkpt lat="42.3990141414105892181396484375" lon="0.89705097489058971405029296875">
        <ele>1204.4000244140625</ele>
        <time>2020-08-14T08:18:19.000Z</time>
      </trkpt>
      <trkpt lat="42.399024032056331634521484375" lon="0.89698643423616886138916015625">
        <ele>1204.4000244140625</ele>
        <time>2020-08-14T08:18:20.000Z</time>
      </trkpt>
      <trkpt lat="42.39902679808437824249267578125" lon="0.89692055247724056243896484375">
        <ele>1204.199951171875</ele>
        <time>2020-08-14T08:18:21.000Z</time>
      </trkpt>
      <trkpt lat="42.39897566847503185272216796875" lon="0.89673346839845180511474609375">
        <ele>1203.5999755859375</ele>
        <time>2020-08-14T08:18:24.000Z</time>
      </trkpt>
      <trkpt lat="42.398946247994899749755859375" lon="0.896676219999790191650390625">
        <ele>1203.199951171875</ele>
        <time>2020-08-14T08:18:25.000Z</time>
      </trkpt>
      <trkpt lat="42.39891867153346538543701171875" lon="0.89661712758243083953857421875">
        <ele>1202.5999755859375</ele>
        <time>2020-08-14T08:18:26.000Z</time>
      </trkpt>
      <trkpt lat="42.3988682962954044342041015625" lon="0.89648787863552570343017578125">
        <ele>1202.5999755859375</ele>
        <time>2020-08-14T08:18:28.000Z</time>
      </trkpt>
      <trkpt lat="42.39879763685166835784912109375" lon="0.8962851203978061676025390625">
        <ele>1201.5999755859375</ele>
        <time>2020-08-14T08:18:31.000Z</time>
      </trkpt>
      <trkpt lat="42.39873343147337436676025390625" lon="0.89607783593237400054931640625">
        <ele>1201.4000244140625</ele>
        <time>2020-08-14T08:18:34.000Z</time>
      </trkpt>
      <trkpt lat="42.39869252778589725494384765625" lon="0.8959283865988254547119140625">
        <ele>1200.199951171875</ele>
        <time>2020-08-14T08:18:36.000Z</time>
      </trkpt>
      <trkpt lat="42.398653216660022735595703125" lon="0.89578832499682903289794921875">
        <ele>1198.800048828125</ele>
        <time>2020-08-14T08:18:38.000Z</time>
      </trkpt>
      <trkpt lat="42.39863284863531589508056640625" lon="0.89572797529399394989013671875">
        <ele>1198.4000244140625</ele>
        <time>2020-08-14T08:18:39.000Z</time>
      </trkpt>
      <trkpt lat="42.39857702516019344329833984375" lon="0.895633511245250701904296875">
        <ele>1197.800048828125</ele>
        <time>2020-08-14T08:18:41.000Z</time>
      </trkpt>
      <trkpt lat="42.39854165352880954742431640625" lon="0.89559352956712245941162109375">
        <ele>1197.5999755859375</ele>
        <time>2020-08-14T08:18:42.000Z</time>
      </trkpt>
      <trkpt lat="42.39850200712680816650390625" lon="0.8955548889935016632080078125">
        <ele>1197.199951171875</ele>
        <time>2020-08-14T08:18:43.000Z</time>
      </trkpt>
      <trkpt lat="42.39837401546537876129150390625" lon="0.89541256427764892578125">
        <ele>1196.800048828125</ele>
        <time>2020-08-14T08:18:46.000Z</time>
      </trkpt>
      <trkpt lat="42.3983352072536945343017578125" lon="0.89535229839384555816650390625">
        <ele>1196.5999755859375</ele>
        <time>2020-08-14T08:18:47.000Z</time>
      </trkpt>
      <trkpt lat="42.39825725555419921875" lon="0.895168147981166839599609375">
        <ele>1195.800048828125</ele>
        <time>2020-08-14T08:18:50.000Z</time>
      </trkpt>
      <trkpt lat="42.398242168128490447998046875" lon="0.8951069600880146026611328125">
        <ele>1195.4000244140625</ele>
        <time>2020-08-14T08:18:51.000Z</time>
      </trkpt>
      <trkpt lat="42.398134879767894744873046875" lon="0.8948347158730030059814453125">
        <ele>1194.5999755859375</ele>
        <time>2020-08-14T08:18:56.000Z</time>
      </trkpt>
      <trkpt lat="42.39804963581264019012451171875" lon="0.8947693370282649993896484375">
        <ele>1193.199951171875</ele>
        <time>2020-08-14T08:18:58.000Z</time>
      </trkpt>
      <trkpt lat="42.3979580216109752655029296875" lon="0.8947267569601535797119140625">
        <ele>1192.5999755859375</ele>
        <time>2020-08-14T08:19:00.000Z</time>
      </trkpt>
      <trkpt lat="42.39791938103735446929931640625" lon="0.894704796373844146728515625">
        <ele>1192.199951171875</ele>
        <time>2020-08-14T08:19:01.000Z</time>
      </trkpt>
      <trkpt lat="42.39784964360296726226806640625" lon="0.8946268446743488311767578125">
        <ele>1192</ele>
        <time>2020-08-14T08:19:04.000Z</time>
      </trkpt>
      <trkpt lat="42.39780304022133350372314453125" lon="0.89446968398988246917724609375">
        <ele>1192</ele>
        <time>2020-08-14T08:19:10.000Z</time>
      </trkpt>
      <trkpt lat="42.39778057672083377838134765625" lon="0.89437882415950298309326171875">
        <ele>1192.800048828125</ele>
        <time>2020-08-14T08:19:16.000Z</time>
      </trkpt>
      <trkpt lat="42.39779868163168430328369140625" lon="0.89438259601593017578125">
        <ele>1192.800048828125</ele>
        <time>2020-08-14T08:19:24.000Z</time>
      </trkpt>
      <trkpt lat="42.39780387841165065765380859375" lon="0.894399695098400115966796875">
        <ele>1192.800048828125</ele>
        <time>2020-08-14T08:19:25.000Z</time>
      </trkpt>
      <trkpt lat="42.39782080985605716705322265625" lon="0.89448879472911357879638671875">
        <ele>1192.4000244140625</ele>
        <time>2020-08-14T08:19:28.000Z</time>
      </trkpt>
      <trkpt lat="42.39782013930380344390869140625" lon="0.89456188492476940155029296875">
        <ele>1192</ele>
        <time>2020-08-14T08:19:30.000Z</time>
      </trkpt>
      <trkpt lat="42.39775367081165313720703125" lon="0.894589461386203765869140625">
        <ele>1191.4000244140625</ele>
        <time>2020-08-14T08:19:33.000Z</time>
      </trkpt>
      <trkpt lat="42.3977303691208362579345703125" lon="0.8945663273334503173828125">
        <ele>1191.4000244140625</ele>
        <time>2020-08-14T08:19:34.000Z</time>
      </trkpt>
      <trkpt lat="42.39770346321165561676025390625" lon="0.8944912254810333251953125">
        <ele>1191.199951171875</ele>
        <time>2020-08-14T08:19:36.000Z</time>
      </trkpt>
      <trkpt lat="42.39769357256591320037841796875" lon="0.894455350935459136962890625">
        <ele>1191.199951171875</ele>
        <time>2020-08-14T08:19:37.000Z</time>
      </trkpt>
      <trkpt lat="42.3976861126720905303955078125" lon="0.89441922493278980255126953125">
        <ele>1191</ele>
        <time>2020-08-14T08:19:41.000Z</time>
      </trkpt>
      <trkpt lat="42.3976867832243442535400390625" lon="0.89442073367536067962646484375">
        <ele>1191</ele>
        <time>2020-08-14T08:19:57.000Z</time>
      </trkpt>
      <trkpt lat="42.39768393337726593017578125" lon="0.89441671036183834075927734375">
        <ele>1190.800048828125</ele>
        <time>2020-08-14T08:20:15.000Z</time>
      </trkpt>
      <trkpt lat="42.39768351428210735321044921875" lon="0.8944166265428066253662109375">
        <ele>1191</ele>
        <time>2020-08-14T08:20:30.000Z</time>
      </trkpt>
      <trkpt lat="42.39768351428210735321044921875" lon="0.89441603980958461761474609375">
        <ele>1190.800048828125</ele>
        <time>2020-08-14T08:20:49.000Z</time>
      </trkpt>
      <trkpt lat="42.397683598101139068603515625" lon="0.89441587217152118682861328125">
        <ele>1190.800048828125</ele>
        <time>2020-08-14T08:20:55.000Z</time>
      </trkpt>
      <trkpt lat="42.3976834304630756378173828125" lon="0.89441587217152118682861328125">
        <ele>1190.800048828125</ele>
        <time>2020-08-14T08:21:10.000Z</time>
      </trkpt>
      <trkpt lat="42.39767345599830150604248046875" lon="0.89438888244330883026123046875">
        <ele>1190.800048828125</ele>
        <time>2020-08-14T08:21:47.000Z</time>
      </trkpt>
      <trkpt lat="42.39762115292251110076904296875" lon="0.894269607961177825927734375">
        <ele>1190.5999755859375</ele>
        <time>2020-08-14T08:21:52.000Z</time>
      </trkpt>
      <trkpt lat="42.3975074104964733123779296875" lon="0.89396224357187747955322265625">
        <ele>1190.199951171875</ele>
        <time>2020-08-14T08:22:00.000Z</time>
      </trkpt>
      <trkpt lat="42.3973334021866321563720703125" lon="0.8936324156820774078369140625">
        <ele>1189.4000244140625</ele>
        <time>2020-08-14T08:22:07.000Z</time>
      </trkpt>
      <trkpt lat="42.3973049037158489227294921875" lon="0.89357399381697177886962890625">
        <ele>1189.199951171875</ele>
        <time>2020-08-14T08:22:08.000Z</time>
      </trkpt>
      <trkpt lat="42.3971979506313800811767578125" lon="0.89328481815755367279052734375">
        <ele>1188</ele>
        <time>2020-08-14T08:22:12.000Z</time>
      </trkpt>
      <trkpt lat="42.3971092700958251953125" lon="0.8930547349154949188232421875">
        <ele>1186.5999755859375</ele>
        <time>2020-08-14T08:22:15.000Z</time>
      </trkpt>
      <trkpt lat="42.397019080817699432373046875" lon="0.892807133495807647705078125">
        <ele>1185.199951171875</ele>
        <time>2020-08-14T08:22:18.000Z</time>
      </trkpt>
      <trkpt lat="42.39699401892721652984619140625" lon="0.89272809214890003204345703125">
        <ele>1184.800048828125</ele>
        <time>2020-08-14T08:22:19.000Z</time>
      </trkpt>
      <trkpt lat="42.39695294760167598724365234375" lon="0.89258207939565181732177734375">
        <ele>1184.199951171875</ele>
        <time>2020-08-14T08:22:21.000Z</time>
      </trkpt>
      <trkpt lat="42.39691078662872314453125" lon="0.89234537445008754730224609375">
        <ele>1183.5999755859375</ele>
        <time>2020-08-14T08:22:24.000Z</time>
      </trkpt>
      <trkpt lat="42.39691003225743770599365234375" lon="0.892259292304515838623046875">
        <ele>1183.199951171875</ele>
        <time>2020-08-14T08:22:25.000Z</time>
      </trkpt>
      <trkpt lat="42.396938614547252655029296875" lon="0.89200406335294246673583984375">
        <ele>1182.199951171875</ele>
        <time>2020-08-14T08:22:28.000Z</time>
      </trkpt>
      <trkpt lat="42.39697490818798542022705078125" lon="0.89173399843275547027587890625">
        <ele>1181.199951171875</ele>
        <time>2020-08-14T08:22:31.000Z</time>
      </trkpt>
      <trkpt lat="42.39699586294591426849365234375" lon="0.8914906717836856842041015625">
        <ele>1180.199951171875</ele>
        <time>2020-08-14T08:22:34.000Z</time>
      </trkpt>
      <trkpt lat="42.39699737168848514556884765625" lon="0.891407690942287445068359375">
        <ele>1179.800048828125</ele>
        <time>2020-08-14T08:22:35.000Z</time>
      </trkpt>
      <trkpt lat="42.39700307138264179229736328125" lon="0.8912341855466365814208984375">
        <ele>1178.5999755859375</ele>
        <time>2020-08-14T08:22:37.000Z</time>
      </trkpt>
      <trkpt lat="42.39702721126377582550048828125" lon="0.89097476564347743988037109375">
        <ele>1177.4000244140625</ele>
        <time>2020-08-14T08:22:40.000Z</time>
      </trkpt>
      <trkpt lat="42.39704984240233898162841796875" lon="0.890533961355686187744140625">
        <ele>1176.199951171875</ele>
        <time>2020-08-14T08:22:45.000Z</time>
      </trkpt>
      <trkpt lat="42.39707280881702899932861328125" lon="0.89036875404417514801025390625">
        <ele>1176</ele>
        <time>2020-08-14T08:22:47.000Z</time>
      </trkpt>
      <trkpt lat="42.39708839915692806243896484375" lon="0.89021083898842334747314453125">
        <ele>1175.800048828125</ele>
        <time>2020-08-14T08:22:49.000Z</time>
      </trkpt>
      <trkpt lat="42.39707238972187042236328125" lon="0.89005476795136928558349609375">
        <ele>1175.5999755859375</ele>
        <time>2020-08-14T08:22:51.000Z</time>
      </trkpt>
      <trkpt lat="42.39703752100467681884765625" lon="0.88989718817174434661865234375">
        <ele>1174.800048828125</ele>
        <time>2020-08-14T08:22:53.000Z</time>
      </trkpt>
      <trkpt lat="42.3969899117946624755859375" lon="0.88964338414371013641357421875">
        <ele>1173.5999755859375</ele>
        <time>2020-08-14T08:22:56.000Z</time>
      </trkpt>
      <trkpt lat="42.39697406999766826629638671875" lon="0.88955604471266269683837890625">
        <ele>1173.4000244140625</ele>
        <time>2020-08-14T08:22:57.000Z</time>
      </trkpt>
      <trkpt lat="42.39687616936862468719482421875" lon="0.88921506889164447784423828125">
        <ele>1172.4000244140625</ele>
        <time>2020-08-14T08:23:01.000Z</time>
      </trkpt>
      <trkpt lat="42.396846078336238861083984375" lon="0.8891346864402294158935546875">
        <ele>1172.199951171875</ele>
        <time>2020-08-14T08:23:02.000Z</time>
      </trkpt>
      <trkpt lat="42.39682051353156566619873046875" lon="0.88905371725559234619140625">
        <ele>1172</ele>
        <time>2020-08-14T08:23:03.000Z</time>
      </trkpt>
      <trkpt lat="42.39679821766912937164306640625" lon="0.88889605365693569183349609375">
        <ele>1171.199951171875</ele>
        <time>2020-08-14T08:23:05.000Z</time>
      </trkpt>
      <trkpt lat="42.39680349826812744140625" lon="0.8888242207467555999755859375">
        <ele>1171</ele>
        <time>2020-08-14T08:23:06.000Z</time>
      </trkpt>
      <trkpt lat="42.39691204391419887542724609375" lon="0.8885943889617919921875">
        <ele>1169.800048828125</ele>
        <time>2020-08-14T08:23:10.000Z</time>
      </trkpt>
      <trkpt lat="42.39704397507011890411376953125" lon="0.8884772099554538726806640625">
        <ele>1168.5999755859375</ele>
        <time>2020-08-14T08:23:13.000Z</time>
      </trkpt>
      <trkpt lat="42.39708722569048404693603515625" lon="0.888452567160129547119140625">
        <ele>1168.199951171875</ele>
        <time>2020-08-14T08:23:14.000Z</time>
      </trkpt>
      <trkpt lat="42.39712544716894626617431640625" lon="0.888423062860965728759765625">
        <ele>1167.800048828125</ele>
        <time>2020-08-14T08:23:15.000Z</time>
      </trkpt>
      <trkpt lat="42.3971521854400634765625" lon="0.88838626630604267120361328125">
        <ele>1167.5999755859375</ele>
        <time>2020-08-14T08:23:16.000Z</time>
      </trkpt>
      <trkpt lat="42.3971550352871417999267578125" lon="0.8883001841604709625244140625">
        <ele>1167.4000244140625</ele>
        <time>2020-08-14T08:23:18.000Z</time>
      </trkpt>
      <trkpt lat="42.3971079289913177490234375" lon="0.88825282640755176544189453125">
        <ele>1167</ele>
        <time>2020-08-14T08:23:20.000Z</time>
      </trkpt>
      <trkpt lat="42.39708320237696170806884765625" lon="0.88823555968701839447021484375">
        <ele>1167</ele>
        <time>2020-08-14T08:23:21.000Z</time>
      </trkpt>
      <trkpt lat="42.39690047688782215118408203125" lon="0.888074375689029693603515625">
        <ele>1167</ele>
        <time>2020-08-14T08:23:28.000Z</time>
      </trkpt>
      <trkpt lat="42.39677391014993190765380859375" lon="0.8878606371581554412841796875">
        <ele>1166.800048828125</ele>
        <time>2020-08-14T08:23:33.000Z</time>
      </trkpt>
      <trkpt lat="42.396713308990001678466796875" lon="0.8877577073872089385986328125">
        <ele>1166.199951171875</ele>
        <time>2020-08-14T08:23:35.000Z</time>
      </trkpt>
      <trkpt lat="42.39668455906212329864501953125" lon="0.8876976929605007171630859375">
        <ele>1165.4000244140625</ele>
        <time>2020-08-14T08:23:36.000Z</time>
      </trkpt>
      <trkpt lat="42.3966377042233943939208984375" lon="0.88756282813847064971923828125">
        <ele>1164</ele>
        <time>2020-08-14T08:23:38.000Z</time>
      </trkpt>
      <trkpt lat="42.39658825099468231201171875" lon="0.8874341659247875213623046875">
        <ele>1162.800048828125</ele>
        <time>2020-08-14T08:23:40.000Z</time>
      </trkpt>
      <trkpt lat="42.39651960320770740509033203125" lon="0.88731405325233936309814453125">
        <ele>1161.800048828125</ele>
        <time>2020-08-14T08:23:42.000Z</time>
      </trkpt>
      <trkpt lat="42.39643896929919719696044921875" lon="0.887195952236652374267578125">
        <ele>1160.4000244140625</ele>
        <time>2020-08-14T08:23:44.000Z</time>
      </trkpt>
      <trkpt lat="42.3963989876210689544677734375" lon="0.88713568635284900665283203125">
        <ele>1159.5999755859375</ele>
        <time>2020-08-14T08:23:45.000Z</time>
      </trkpt>
      <trkpt lat="42.3963622748851776123046875" lon="0.88707164861261844635009765625">
        <ele>1158.5999755859375</ele>
        <time>2020-08-14T08:23:46.000Z</time>
      </trkpt>
      <trkpt lat="42.39631332457065582275390625" lon="0.88692605495452880859375">
        <ele>1157.4000244140625</ele>
        <time>2020-08-14T08:23:48.000Z</time>
      </trkpt>
      <trkpt lat="42.39630050025880336761474609375" lon="0.8868481032550334930419921875">
        <ele>1156.800048828125</ele>
        <time>2020-08-14T08:23:49.000Z</time>
      </trkpt>
      <trkpt lat="42.39629413001239299774169921875" lon="0.886764787137508392333984375">
        <ele>1156</ele>
        <time>2020-08-14T08:23:50.000Z</time>
      </trkpt>
      <trkpt lat="42.39629245363175868988037109375" lon="0.8865953050553798675537109375">
        <ele>1154.5999755859375</ele>
        <time>2020-08-14T08:23:52.000Z</time>
      </trkpt>
      <trkpt lat="42.396296225488185882568359375" lon="0.8864320255815982818603515625">
        <ele>1153.4000244140625</ele>
        <time>2020-08-14T08:23:54.000Z</time>
      </trkpt>
      <trkpt lat="42.39628859795629978179931640625" lon="0.8862744458019733428955078125">
        <ele>1152</ele>
        <time>2020-08-14T08:23:56.000Z</time>
      </trkpt>
      <trkpt lat="42.396264038980007171630859375" lon="0.88611158542335033416748046875">
        <ele>1151</ele>
        <time>2020-08-14T08:23:58.000Z</time>
      </trkpt>
      <trkpt lat="42.39624870009720325469970703125" lon="0.886033214628696441650390625">
        <ele>1150.4000244140625</ele>
        <time>2020-08-14T08:23:59.000Z</time>
      </trkpt>
      <trkpt lat="42.39623361267149448394775390625" lon="0.88595501147210597991943359375">
        <ele>1149.4000244140625</ele>
        <time>2020-08-14T08:24:00.000Z</time>
      </trkpt>
      <trkpt lat="42.396210394799709320068359375" lon="0.88580095209181308746337890625">
        <ele>1148</ele>
        <time>2020-08-14T08:24:02.000Z</time>
      </trkpt>
      <trkpt lat="42.39619488827884197235107421875" lon="0.885586626827716827392578125">
        <ele>1147</ele>
        <time>2020-08-14T08:24:05.000Z</time>
      </trkpt>
      <trkpt lat="42.39619606174528598785400390625" lon="0.88551144115626811981201171875">
        <ele>1146.800048828125</ele>
        <time>2020-08-14T08:24:06.000Z</time>
      </trkpt>
      <trkpt lat="42.39620813168585300445556640625" lon="0.88535486720502376556396484375">
        <ele>1145.4000244140625</ele>
        <time>2020-08-14T08:24:08.000Z</time>
      </trkpt>
      <trkpt lat="42.39622615277767181396484375" lon="0.8851995505392551422119140625">
        <ele>1144.199951171875</ele>
        <time>2020-08-14T08:24:10.000Z</time>
      </trkpt>
      <trkpt lat="42.39623663015663623809814453125" lon="0.88512402959167957305908203125">
        <ele>1143.5999755859375</ele>
        <time>2020-08-14T08:24:11.000Z</time>
      </trkpt>
      <trkpt lat="42.39624802954494953155517578125" lon="0.885048173367977142333984375">
        <ele>1142.800048828125</ele>
        <time>2020-08-14T08:24:12.000Z</time>
      </trkpt>
      <trkpt lat="42.39627040922641754150390625" lon="0.8848961256444454193115234375">
        <ele>1141.5999755859375</ele>
        <time>2020-08-14T08:24:14.000Z</time>
      </trkpt>
      <trkpt lat="42.3962913639843463897705078125" lon="0.88473862968385219573974609375">
        <ele>1140</ele>
        <time>2020-08-14T08:24:16.000Z</time>
      </trkpt>
      <trkpt lat="42.39630955271422863006591796875" lon="0.88456998579204082489013671875">
        <ele>1139</ele>
        <time>2020-08-14T08:24:18.000Z</time>
      </trkpt>
      <trkpt lat="42.3963178507983684539794921875" lon="0.884482562541961669921875">
        <ele>1138.4000244140625</ele>
        <time>2020-08-14T08:24:19.000Z</time>
      </trkpt>
      <trkpt lat="42.39633285440504550933837890625" lon="0.8843033574521541595458984375">
        <ele>1136.5999755859375</ele>
        <time>2020-08-14T08:24:21.000Z</time>
      </trkpt>
      <trkpt lat="42.39634282886981964111328125" lon="0.884118787944316864013671875">
        <ele>1134.5999755859375</ele>
        <time>2020-08-14T08:24:23.000Z</time>
      </trkpt>
      <trkpt lat="42.39634090103209018707275390625" lon="0.88402767665684223175048828125">
        <ele>1133.5999755859375</ele>
        <time>2020-08-14T08:24:24.000Z</time>
      </trkpt>
      <trkpt lat="42.3963339440524578094482421875" lon="0.88394201360642910003662109375">
        <ele>1132.800048828125</ele>
        <time>2020-08-14T08:24:25.000Z</time>
      </trkpt>
      <trkpt lat="42.39632271230220794677734375" lon="0.88386255316436290740966796875">
        <ele>1132</ele>
        <time>2020-08-14T08:24:26.000Z</time>
      </trkpt>
      <trkpt lat="42.396293543279170989990234375" lon="0.8837015368044376373291015625">
        <ele>1130.5999755859375</ele>
        <time>2020-08-14T08:24:28.000Z</time>
      </trkpt>
      <trkpt lat="42.39626227878034114837646484375" lon="0.88352543301880359649658203125">
        <ele>1129.4000244140625</ele>
        <time>2020-08-14T08:24:30.000Z</time>
      </trkpt>
      <trkpt lat="42.39623478613793849945068359375" lon="0.8833501674234867095947265625">
        <ele>1128.199951171875</ele>
        <time>2020-08-14T08:24:32.000Z</time>
      </trkpt>
      <trkpt lat="42.39621366374194622039794921875" lon="0.88318194262683391571044921875">
        <ele>1127.199951171875</ele>
        <time>2020-08-14T08:24:34.000Z</time>
      </trkpt>
      <trkpt lat="42.39618751220405101776123046875" lon="0.8829287253320217132568359375">
        <ele>1125.800048828125</ele>
        <time>2020-08-14T08:24:37.000Z</time>
      </trkpt>
      <trkpt lat="42.39616982638835906982421875" lon="0.88276703841984272003173828125">
        <ele>1124</ele>
        <time>2020-08-14T08:24:39.000Z</time>
      </trkpt>
      <trkpt lat="42.3961515538394451141357421875" lon="0.88261264376342296600341796875">
        <ele>1123</ele>
        <time>2020-08-14T08:24:41.000Z</time>
      </trkpt>
      <trkpt lat="42.39613629877567291259765625" lon="0.88254122994840145111083984375">
        <ele>1122.5999755859375</ele>
        <time>2020-08-14T08:24:42.000Z</time>
      </trkpt>
      <trkpt lat="42.39611593075096607208251953125" lon="0.88247903622686862945556640625">
        <ele>1122.4000244140625</ele>
        <time>2020-08-14T08:24:43.000Z</time>
      </trkpt>
      <trkpt lat="42.39605993963778018951416015625" lon="0.8823721669614315032958984375">
        <ele>1121.800048828125</ele>
        <time>2020-08-14T08:24:45.000Z</time>
      </trkpt>
      <trkpt lat="42.3959855921566486358642578125" lon="0.88227971456944942474365234375">
        <ele>1120.800048828125</ele>
        <time>2020-08-14T08:24:47.000Z</time>
      </trkpt>
      <trkpt lat="42.39585055969655513763427734375" lon="0.88217393495142459869384765625">
        <ele>1119.5999755859375</ele>
        <time>2020-08-14T08:24:50.000Z</time>
      </trkpt>
      <trkpt lat="42.395802699029445648193359375" lon="0.88214577175676822662353515625">
        <ele>1119.199951171875</ele>
        <time>2020-08-14T08:24:51.000Z</time>
      </trkpt>
      <trkpt lat="42.3957559280097484588623046875" lon="0.88211811147630214691162109375">
        <ele>1119</ele>
        <time>2020-08-14T08:24:52.000Z</time>
      </trkpt>
      <trkpt lat="42.39566422998905181884765625" lon="0.882059521973133087158203125">
        <ele>1118.199951171875</ele>
        <time>2020-08-14T08:24:54.000Z</time>
      </trkpt>
      <trkpt lat="42.39558468572795391082763671875" lon="0.8819986693561077117919921875">
        <ele>1117.800048828125</ele>
        <time>2020-08-14T08:24:56.000Z</time>
      </trkpt>
      <trkpt lat="42.39553187973797321319580078125" lon="0.88190923444926738739013671875">
        <ele>1116.800048828125</ele>
        <time>2020-08-14T08:24:58.000Z</time>
      </trkpt>
      <trkpt lat="42.395509667694568634033203125" lon="0.88163313455879688262939453125">
        <ele>1115.800048828125</ele>
        <time>2020-08-14T08:25:02.000Z</time>
      </trkpt>
      <trkpt lat="42.39551394246518611907958984375" lon="0.88155233301222324371337890625">
        <ele>1115.199951171875</ele>
        <time>2020-08-14T08:25:03.000Z</time>
      </trkpt>
      <trkpt lat="42.39551796577870845794677734375" lon="0.88146985508501529693603515625">
        <ele>1114</ele>
        <time>2020-08-14T08:25:04.000Z</time>
      </trkpt>
      <trkpt lat="42.3955262638628482818603515625" lon="0.88129651732742786407470703125">
        <ele>1112.5999755859375</ele>
        <time>2020-08-14T08:25:06.000Z</time>
      </trkpt>
      <trkpt lat="42.39553439430892467498779296875" lon="0.88112016208469867706298828125">
        <ele>1111.199951171875</ele>
        <time>2020-08-14T08:25:08.000Z</time>
      </trkpt>
      <trkpt lat="42.3955393396317958831787109375" lon="0.8810317330062389373779296875">
        <ele>1110.5999755859375</ele>
        <time>2020-08-14T08:25:09.000Z</time>
      </trkpt>
      <trkpt lat="42.39554663188755512237548828125" lon="0.88094481267035007476806640625">
        <ele>1109.800048828125</ele>
        <time>2020-08-14T08:25:10.000Z</time>
      </trkpt>
      <trkpt lat="42.395561635494232177734375" lon="0.8807744085788726806640625">
        <ele>1108.5999755859375</ele>
        <time>2020-08-14T08:25:12.000Z</time>
      </trkpt>
      <trkpt lat="42.39557563327252864837646484375" lon="0.8804498612880706787109375">
        <ele>1107.4000244140625</ele>
        <time>2020-08-14T08:25:16.000Z</time>
      </trkpt>
      <trkpt lat="42.39555568434298038482666015625" lon="0.88015439920127391815185546875">
        <ele>1106.199951171875</ele>
        <time>2020-08-14T08:25:20.000Z</time>
      </trkpt>
      <trkpt lat="42.39551092498004436492919921875" lon="0.88002934120595455169677734375">
        <ele>1105.800048828125</ele>
        <time>2020-08-14T08:25:22.000Z</time>
      </trkpt>
      <trkpt lat="42.39534177817404270172119140625" lon="0.87987494654953479766845703125">
        <ele>1105.199951171875</ele>
        <time>2020-08-14T08:25:26.000Z</time>
      </trkpt>
      <trkpt lat="42.3952935822308063507080078125" lon="0.87985114194452762603759765625">
        <ele>1104.4000244140625</ele>
        <time>2020-08-14T08:25:27.000Z</time>
      </trkpt>
      <trkpt lat="42.39524287171661853790283203125" lon="0.879828594624996185302734375">
        <ele>1103.800048828125</ele>
        <time>2020-08-14T08:25:28.000Z</time>
      </trkpt>
      <trkpt lat="42.39513692446053028106689453125" lon="0.8797969110310077667236328125">
        <ele>1103.4000244140625</ele>
        <time>2020-08-14T08:25:30.000Z</time>
      </trkpt>
      <trkpt lat="42.39503114484250545501708984375" lon="0.8797995932400226593017578125">
        <ele>1103.199951171875</ele>
        <time>2020-08-14T08:25:32.000Z</time>
      </trkpt>
      <trkpt lat="42.39492368884384632110595703125" lon="0.87982180528342723846435546875">
        <ele>1103</ele>
        <time>2020-08-14T08:25:34.000Z</time>
      </trkpt>
      <trkpt lat="42.3948704637587070465087890625" lon="0.87984309531748294830322265625">
        <ele>1102.5999755859375</ele>
        <time>2020-08-14T08:25:35.000Z</time>
      </trkpt>
      <trkpt lat="42.39477449096739292144775390625" lon="0.87990176863968372344970703125">
        <ele>1102.199951171875</ele>
        <time>2020-08-14T08:25:37.000Z</time>
      </trkpt>
      <trkpt lat="42.3946914263069629669189453125" lon="0.87993663735687732696533203125">
        <ele>1101.4000244140625</ele>
        <time>2020-08-14T08:25:39.000Z</time>
      </trkpt>
      <trkpt lat="42.394648678600788116455078125" lon="0.8799290098249912261962890625">
        <ele>1101.199951171875</ele>
        <time>2020-08-14T08:25:40.000Z</time>
      </trkpt>
      <trkpt lat="42.39457366056740283966064453125" lon="0.87984510697424411773681640625">
        <ele>1100.4000244140625</ele>
        <time>2020-08-14T08:25:42.000Z</time>
      </trkpt>
      <trkpt lat="42.3945432342588901519775390625" lon="0.87978442199528217315673828125">
        <ele>1100</ele>
        <time>2020-08-14T08:25:43.000Z</time>
      </trkpt>
      <trkpt lat="42.394499480724334716796875" lon="0.879644863307476043701171875">
        <ele>1099.199951171875</ele>
        <time>2020-08-14T08:25:45.000Z</time>
      </trkpt>
      <trkpt lat="42.39447257481515407562255859375" lon="0.87950077839195728302001953125">
        <ele>1098.5999755859375</ele>
        <time>2020-08-14T08:25:47.000Z</time>
      </trkpt>
      <trkpt lat="42.3944644443690776824951171875" lon="0.87942902930080890655517578125">
        <ele>1098.4000244140625</ele>
        <time>2020-08-14T08:25:48.000Z</time>
      </trkpt>
      <trkpt lat="42.39445681683719158172607421875" lon="0.8793600462377071380615234375">
        <ele>1097.800048828125</ele>
        <time>2020-08-14T08:25:49.000Z</time>
      </trkpt>
      <trkpt lat="42.39443837665021419525146484375" lon="0.87908386252820491790771484375">
        <ele>1096.4000244140625</ele>
        <time>2020-08-14T08:25:53.000Z</time>
      </trkpt>
      <trkpt lat="42.39442513324320316314697265625" lon="0.878867022693157196044921875">
        <ele>1095.800048828125</ele>
        <time>2020-08-14T08:25:56.000Z</time>
      </trkpt>
      <trkpt lat="42.394418679177761077880859375" lon="0.8787927590310573577880859375">
        <ele>1095.4000244140625</ele>
        <time>2020-08-14T08:25:57.000Z</time>
      </trkpt>
      <trkpt lat="42.39440250210464000701904296875" lon="0.8786438964307308197021484375">
        <ele>1094.4000244140625</ele>
        <time>2020-08-14T08:25:59.000Z</time>
      </trkpt>
      <trkpt lat="42.3943591676652431488037109375" lon="0.8784229494631290435791015625">
        <ele>1093.4000244140625</ele>
        <time>2020-08-14T08:26:02.000Z</time>
      </trkpt>
      <trkpt lat="42.394341565668582916259765625" lon="0.87835446931421756744384765625">
        <ele>1093.199951171875</ele>
        <time>2020-08-14T08:26:03.000Z</time>
      </trkpt>
      <trkpt lat="42.39421642385423183441162109375" lon="0.87804056704044342041015625">
        <ele>1092</ele>
        <time>2020-08-14T08:26:08.000Z</time>
      </trkpt>
      <trkpt lat="42.39418239332735538482666015625" lon="0.87798264808952808380126953125">
        <ele>1091.4000244140625</ele>
        <time>2020-08-14T08:26:09.000Z</time>
      </trkpt>
      <trkpt lat="42.3941462673246860504150390625" lon="0.87792531587183475494384765625">
        <ele>1090.800048828125</ele>
        <time>2020-08-14T08:26:10.000Z</time>
      </trkpt>
      <trkpt lat="42.3940751887857913970947265625" lon="0.8778134174644947052001953125">
        <ele>1089.800048828125</ele>
        <time>2020-08-14T08:26:12.000Z</time>
      </trkpt>
      <trkpt lat="42.39398273639380931854248046875" lon="0.8776363916695117950439453125">
        <ele>1088.199951171875</ele>
        <time>2020-08-14T08:26:15.000Z</time>
      </trkpt>
      <trkpt lat="42.39393546245992183685302734375" lon="0.87750521488487720489501953125">
        <ele>1087.199951171875</ele>
        <time>2020-08-14T08:26:17.000Z</time>
      </trkpt>
      <trkpt lat="42.39389824680984020233154296875" lon="0.87736121378839015960693359375">
        <ele>1086.4000244140625</ele>
        <time>2020-08-14T08:26:19.000Z</time>
      </trkpt>
      <trkpt lat="42.393886931240558624267578125" lon="0.87727907113730907440185546875">
        <ele>1085.5999755859375</ele>
        <time>2020-08-14T08:26:20.000Z</time>
      </trkpt>
      <trkpt lat="42.393881566822528839111328125" lon="0.8771924860775470733642578125">
        <ele>1085</ele>
        <time>2020-08-14T08:26:21.000Z</time>
      </trkpt>
      <trkpt lat="42.39388030953705310821533203125" lon="0.87693750858306884765625">
        <ele>1084.5999755859375</ele>
        <time>2020-08-14T08:26:24.000Z</time>
      </trkpt>
      <trkpt lat="42.39388651214540004730224609375" lon="0.87672737427055835723876953125">
        <ele>1084.5999755859375</ele>
        <time>2020-08-14T08:26:27.000Z</time>
      </trkpt>
      <trkpt lat="42.39385868422687053680419921875" lon="0.8763586543500423431396484375">
        <ele>1084.199951171875</ele>
        <time>2020-08-14T08:26:33.000Z</time>
      </trkpt>
      <trkpt lat="42.3938451893627643585205078125" lon="0.87630291469395160675048828125">
        <ele>1084.199951171875</ele>
        <time>2020-08-14T08:26:34.000Z</time>
      </trkpt>
      <trkpt lat="42.3937868513166904449462890625" lon="0.87617115117609500885009765625">
        <ele>1084</ele>
        <time>2020-08-14T08:26:37.000Z</time>
      </trkpt>
      <trkpt lat="42.39374645054340362548828125" lon="0.87609990499913692474365234375">
        <ele>1084</ele>
        <time>2020-08-14T08:26:39.000Z</time>
      </trkpt>
      <trkpt lat="42.39361426793038845062255859375" lon="0.875835120677947998046875">
        <ele>1083.800048828125</ele>
        <time>2020-08-14T08:26:46.000Z</time>
      </trkpt>
      <trkpt lat="42.39349298179149627685546875" lon="0.87563588283956050872802734375">
        <ele>1084</ele>
        <time>2020-08-14T08:26:52.000Z</time>
      </trkpt>
      <trkpt lat="42.39340178668498992919921875" lon="0.87555357255041599273681640625">
        <ele>1083.800048828125</ele>
        <time>2020-08-14T08:26:55.000Z</time>
      </trkpt>
      <trkpt lat="42.3932725377380847930908203125" lon="0.875496156513690948486328125">
        <ele>1082.800048828125</ele>
        <time>2020-08-14T08:26:58.000Z</time>
      </trkpt>
      <trkpt lat="42.39316952414810657501220703125" lon="0.875473357737064361572265625">
        <ele>1082.5999755859375</ele>
        <time>2020-08-14T08:27:00.000Z</time>
      </trkpt>
      <trkpt lat="42.392979003489017486572265625" lon="0.87543211877346038818359375">
        <ele>1081.800048828125</ele>
        <time>2020-08-14T08:27:04.000Z</time>
      </trkpt>
      <trkpt lat="42.39293684251606464385986328125" lon="0.87540856562554836273193359375">
        <ele>1081.4000244140625</ele>
        <time>2020-08-14T08:27:05.000Z</time>
      </trkpt>
      <trkpt lat="42.392824105918407440185546875" lon="0.87530362419784069061279296875">
        <ele>1080.4000244140625</ele>
        <time>2020-08-14T08:27:08.000Z</time>
      </trkpt>
      <trkpt lat="42.39278999157249927520751953125" lon="0.87525844573974609375">
        <ele>1080.4000244140625</ele>
        <time>2020-08-14T08:27:09.000Z</time>
      </trkpt>
      <trkpt lat="42.39272796548902988433837890625" lon="0.87517253123223781585693359375">
        <ele>1079.199951171875</ele>
        <time>2020-08-14T08:27:11.000Z</time>
      </trkpt>
      <trkpt lat="42.3926683701574802398681640625" lon="0.875096507370471954345703125">
        <ele>1078.4000244140625</ele>
        <time>2020-08-14T08:27:13.000Z</time>
      </trkpt>
      <trkpt lat="42.392641045153141021728515625" lon="0.8750507421791553497314453125">
        <ele>1077.800048828125</ele>
        <time>2020-08-14T08:27:14.000Z</time>
      </trkpt>
      <trkpt lat="42.3925436474382877349853515625" lon="0.874843038618564605712890625">
        <ele>1076.800048828125</ele>
        <time>2020-08-14T08:27:18.000Z</time>
      </trkpt>
      <trkpt lat="42.39251858554780483245849609375" lon="0.87479182519018650054931640625">
        <ele>1076.199951171875</ele>
        <time>2020-08-14T08:27:19.000Z</time>
      </trkpt>
      <trkpt lat="42.39249042235314846038818359375" lon="0.87474547326564788818359375">
        <ele>1075.4000244140625</ele>
        <time>2020-08-14T08:27:20.000Z</time>
      </trkpt>
      <trkpt lat="42.39242236129939556121826171875" lon="0.87467146106064319610595703125">
        <ele>1074.4000244140625</ele>
        <time>2020-08-14T08:27:22.000Z</time>
      </trkpt>
      <trkpt lat="42.39238061942160129547119140625" lon="0.8746494166553020477294921875">
        <ele>1073.5999755859375</ele>
        <time>2020-08-14T08:27:23.000Z</time>
      </trkpt>
      <trkpt lat="42.3923327587544918060302734375" lon="0.8746427111327648162841796875">
        <ele>1073</ele>
        <time>2020-08-14T08:27:24.000Z</time>
      </trkpt>
      <trkpt lat="42.39224039018154144287109375" lon="0.874629803001880645751953125">
        <ele>1071.800048828125</ele>
        <time>2020-08-14T08:27:26.000Z</time>
      </trkpt>
      <trkpt lat="42.39220292307436466217041015625" lon="0.87460792623460292816162109375">
        <ele>1071.5999755859375</ele>
        <time>2020-08-14T08:27:27.000Z</time>
      </trkpt>
      <trkpt lat="42.392162270843982696533203125" lon="0.8745089359581470489501953125">
        <ele>1070.800048828125</ele>
        <time>2020-08-14T08:27:29.000Z</time>
      </trkpt>
      <trkpt lat="42.3921538889408111572265625" lon="0.87444531731307506561279296875">
        <ele>1070.4000244140625</ele>
        <time>2020-08-14T08:27:30.000Z</time>
      </trkpt>
      <trkpt lat="42.39214777015149593353271484375" lon="0.8743800222873687744140625">
        <ele>1069.800048828125</ele>
        <time>2020-08-14T08:27:31.000Z</time>
      </trkpt>
      <trkpt lat="42.3921446688473224639892578125" lon="0.8743141405284404754638671875">
        <ele>1069.4000244140625</ele>
        <time>2020-08-14T08:27:32.000Z</time>
      </trkpt>
      <trkpt lat="42.3921201936900615692138671875" lon="0.874005854129791259765625">
        <ele>1068.800048828125</ele>
        <time>2020-08-14T08:27:37.000Z</time>
      </trkpt>
      <trkpt lat="42.39209957420825958251953125" lon="0.87382824160158634185791015625">
        <ele>1068.800048828125</ele>
        <time>2020-08-14T08:27:40.000Z</time>
      </trkpt>
      <trkpt lat="42.39208390004932880401611328125" lon="0.87373050861060619354248046875">
        <ele>1069</ele>
        <time>2020-08-14T08:27:42.000Z</time>
      </trkpt>
      <trkpt lat="42.392079792916774749755859375" lon="0.87356991134583950042724609375">
        <ele>1068.800048828125</ele>
        <time>2020-08-14T08:27:47.000Z</time>
      </trkpt>
      <trkpt lat="42.39210183732211589813232421875" lon="0.8735292591154575347900390625">
        <ele>1069</ele>
        <time>2020-08-14T08:27:49.000Z</time>
      </trkpt>
      <trkpt lat="42.39214961417019367218017578125" lon="0.873485170304775238037109375">
        <ele>1069.199951171875</ele>
        <time>2020-08-14T08:27:52.000Z</time>
      </trkpt>
      <trkpt lat="42.39228288643062114715576171875" lon="0.87337511591613292694091796875">
        <ele>1070.199951171875</ele>
        <time>2020-08-14T08:28:00.000Z</time>
      </trkpt>
      <trkpt lat="42.39234155975282192230224609375" lon="0.8733187057077884674072265625">
        <ele>1070.800048828125</ele>
        <time>2020-08-14T08:28:04.000Z</time>
      </trkpt>
      <trkpt lat="42.39238145761191844940185546875" lon="0.8732724376022815704345703125">
        <ele>1071.199951171875</ele>
        <time>2020-08-14T08:28:07.000Z</time>
      </trkpt>
      <trkpt lat="42.3924336768686771392822265625" lon="0.87321368046104907989501953125">
        <ele>1071.800048828125</ele>
        <time>2020-08-14T08:28:11.000Z</time>
      </trkpt>
      <trkpt lat="42.39248774014413356781005859375" lon="0.8731607906520366668701171875">
        <ele>1072.5999755859375</ele>
        <time>2020-08-14T08:28:15.000Z</time>
      </trkpt>
      <trkpt lat="42.392552196979522705078125" lon="0.87309465743601322174072265625">
        <ele>1073</ele>
        <time>2020-08-14T08:28:20.000Z</time>
      </trkpt>
      <trkpt lat="42.3925942741334438323974609375" lon="0.8730625547468662261962890625">
        <ele>1073.5999755859375</ele>
        <time>2020-08-14T08:28:23.000Z</time>
      </trkpt>
      <trkpt lat="42.39264045841991901397705078125" lon="0.8730001933872699737548828125">
        <ele>1074</ele>
        <time>2020-08-14T08:28:27.000Z</time>
      </trkpt>
      <trkpt lat="42.3926636762917041778564453125" lon="0.87296708486974239349365234375">
        <ele>1074.4000244140625</ele>
        <time>2020-08-14T08:28:29.000Z</time>
      </trkpt>
      <trkpt lat="42.392706759274005889892578125" lon="0.87291142903268337249755859375">
        <ele>1075.199951171875</ele>
        <time>2020-08-14T08:28:33.000Z</time>
      </trkpt>
      <trkpt lat="42.39275269210338592529296875" lon="0.872858203947544097900390625">
        <ele>1076</ele>
        <time>2020-08-14T08:28:37.000Z</time>
      </trkpt>
      <trkpt lat="42.392774485051631927490234375" lon="0.872828029096126556396484375">
        <ele>1076.199951171875</ele>
        <time>2020-08-14T08:28:39.000Z</time>
      </trkpt>
      <trkpt lat="42.39285453222692012786865234375" lon="0.8727500773966312408447265625">
        <ele>1077.4000244140625</ele>
        <time>2020-08-14T08:28:45.000Z</time>
      </trkpt>
      <trkpt lat="42.39286802709102630615234375" lon="0.87273649871349334716796875">
        <ele>1077.5999755859375</ele>
        <time>2020-08-14T08:28:46.000Z</time>
      </trkpt>
      <trkpt lat="42.3929842002689838409423828125" lon="0.8726441301405429840087890625">
        <ele>1078.5999755859375</ele>
        <time>2020-08-14T08:28:54.000Z</time>
      </trkpt>
      <trkpt lat="42.393126524984836578369140625" lon="0.87256156839430332183837890625">
        <ele>1079.4000244140625</ele>
        <time>2020-08-14T08:29:03.000Z</time>
      </trkpt>
      <trkpt lat="42.3931920714676380157470703125" lon="0.8725400269031524658203125">
        <ele>1079.5999755859375</ele>
        <time>2020-08-14T08:29:07.000Z</time>
      </trkpt>
      <trkpt lat="42.39322802983224391937255859375" lon="0.87253139354288578033447265625">
        <ele>1080</ele>
        <time>2020-08-14T08:29:09.000Z</time>
      </trkpt>
      <trkpt lat="42.3933395929634571075439453125" lon="0.8724714629352092742919921875">
        <ele>1080.5999755859375</ele>
        <time>2020-08-14T08:29:16.000Z</time>
      </trkpt>
      <trkpt lat="42.39346054382622241973876953125" lon="0.8724372647702693939208984375">
        <ele>1080.800048828125</ele>
        <time>2020-08-14T08:29:23.000Z</time>
      </trkpt>
      <trkpt lat="42.3934789001941680908203125" lon="0.87243466638028621673583984375">
        <ele>1081</ele>
        <time>2020-08-14T08:29:24.000Z</time>
      </trkpt>
      <trkpt lat="42.39362365566194057464599609375" lon="0.87238973937928676605224609375">
        <ele>1081.4000244140625</ele>
        <time>2020-08-14T08:29:32.000Z</time>
      </trkpt>
      <trkpt lat="42.393768914043903350830078125" lon="0.8723641745746135711669921875">
        <ele>1082</ele>
        <time>2020-08-14T08:29:40.000Z</time>
      </trkpt>
      <trkpt lat="42.39378668367862701416015625" lon="0.87236140854656696319580078125">
        <ele>1082.199951171875</ele>
        <time>2020-08-14T08:29:41.000Z</time>
      </trkpt>
      <trkpt lat="42.3938753642141819000244140625" lon="0.87236006744205951690673828125">
        <ele>1083.4000244140625</ele>
        <time>2020-08-14T08:29:47.000Z</time>
      </trkpt>
      <trkpt lat="42.39388592541217803955078125" lon="0.87234648875892162322998046875">
        <ele>1083.4000244140625</ele>
        <time>2020-08-14T08:29:48.000Z</time>
      </trkpt>
      <trkpt lat="42.39388114772737026214599609375" lon="0.872272141277790069580078125">
        <ele>1084.199951171875</ele>
        <time>2020-08-14T08:29:52.000Z</time>
      </trkpt>
      <trkpt lat="42.39386958070099353790283203125" lon="0.8722578920423984527587890625">
        <ele>1084.4000244140625</ele>
        <time>2020-08-14T08:29:53.000Z</time>
      </trkpt>
      <trkpt lat="42.39385667257010936737060546875" lon="0.87224590592086315155029296875">
        <ele>1084.5999755859375</ele>
        <time>2020-08-14T08:29:54.000Z</time>
      </trkpt>
      <trkpt lat="42.393784336745738983154296875" lon="0.87222964502871036529541015625">
        <ele>1085.199951171875</ele>
        <time>2020-08-14T08:29:59.000Z</time>
      </trkpt>
      <trkpt lat="42.39375508390367031097412109375" lon="0.8722314052283763885498046875">
        <ele>1085.4000244140625</ele>
        <time>2020-08-14T08:30:01.000Z</time>
      </trkpt>
      <trkpt lat="42.39365818910300731658935546875" lon="0.8722324110567569732666015625">
        <ele>1086.4000244140625</ele>
        <time>2020-08-14T08:30:07.000Z</time>
      </trkpt>
      <trkpt lat="42.39364226348698139190673828125" lon="0.872233919799327850341796875">
        <ele>1086.5999755859375</ele>
        <time>2020-08-14T08:30:08.000Z</time>
      </trkpt>
      <trkpt lat="42.39356129430234432220458984375" lon="0.87226082570850849151611328125">
        <ele>1087.4000244140625</ele>
        <time>2020-08-14T08:30:13.000Z</time>
      </trkpt>
      <trkpt lat="42.39349524490535259246826171875" lon="0.87227423675358295440673828125">
        <ele>1087.800048828125</ele>
        <time>2020-08-14T08:30:17.000Z</time>
      </trkpt>
      <trkpt lat="42.39341477863490581512451171875" lon="0.872293598949909210205078125">
        <ele>1088.800048828125</ele>
        <time>2020-08-14T08:30:22.000Z</time>
      </trkpt>
      <trkpt lat="42.39326625131070613861083984375" lon="0.8723326586186885833740234375">
        <ele>1090</ele>
        <time>2020-08-14T08:30:31.000Z</time>
      </trkpt>
      <trkpt lat="42.39324881695210933685302734375" lon="0.87233056314289569854736328125">
        <ele>1090.199951171875</ele>
        <time>2020-08-14T08:30:32.000Z</time>
      </trkpt>
      <trkpt lat="42.3931236751377582550048828125" lon="0.872329808771610260009765625">
        <ele>1091</ele>
        <time>2020-08-14T08:30:39.000Z</time>
      </trkpt>
      <trkpt lat="42.39310649223625659942626953125" lon="0.87232871912419795989990234375">
        <ele>1091.4000244140625</ele>
        <time>2020-08-14T08:30:40.000Z</time>
      </trkpt>
      <trkpt lat="42.39300305955111980438232421875" lon="0.8723232708871364593505859375">
        <ele>1092.199951171875</ele>
        <time>2020-08-14T08:30:46.000Z</time>
      </trkpt>
      <trkpt lat="42.392950840294361114501953125" lon="0.87232251651585102081298828125">
        <ele>1092.5999755859375</ele>
        <time>2020-08-14T08:30:49.000Z</time>
      </trkpt>
      <trkpt lat="42.39286626689136028289794921875" lon="0.87233844213187694549560546875">
        <ele>1093.199951171875</ele>
        <time>2020-08-14T08:30:54.000Z</time>
      </trkpt>
      <trkpt lat="42.3928044922649860382080078125" lon="0.87235755287110805511474609375">
        <ele>1093.800048828125</ele>
        <time>2020-08-14T08:30:58.000Z</time>
      </trkpt>
      <trkpt lat="42.39277423359453678131103515625" lon="0.87237196974456310272216796875">
        <ele>1093.800048828125</ele>
        <time>2020-08-14T08:31:03.000Z</time>
      </trkpt>
      <trkpt lat="42.39277440123260021209716796875" lon="0.87237146683037281036376953125">
        <ele>1093.800048828125</ele>
        <time>2020-08-14T08:31:21.000Z</time>
      </trkpt>
      <trkpt lat="42.3927746526896953582763671875" lon="0.872370712459087371826171875">
        <ele>1093.800048828125</ele>
        <time>2020-08-14T08:31:23.000Z</time>
      </trkpt>
      <trkpt lat="42.39277473650872707366943359375" lon="0.8723681978881359100341796875">
        <ele>1093.800048828125</ele>
        <time>2020-08-14T08:31:35.000Z</time>
      </trkpt>
      <trkpt lat="42.3927746526896953582763671875" lon="0.872366018593311309814453125">
        <ele>1093.800048828125</ele>
        <time>2020-08-14T08:31:47.000Z</time>
      </trkpt>
      <trkpt lat="42.39277775399386882781982421875" lon="0.8723648451268672943115234375">
        <ele>1094</ele>
        <time>2020-08-14T08:32:01.000Z</time>
      </trkpt>
      <trkpt lat="42.39275780506432056427001953125" lon="0.87236861698329448699951171875">
        <ele>1094</ele>
        <time>2020-08-14T08:32:11.000Z</time>
      </trkpt>
      <trkpt lat="42.39267650060355663299560546875" lon="0.87234933860599994659423828125">
        <ele>1094.4000244140625</ele>
        <time>2020-08-14T08:32:19.000Z</time>
      </trkpt>
      <trkpt lat="42.39267247729003429412841796875" lon="0.87234732694923877716064453125">
        <ele>1094.4000244140625</ele>
        <time>2020-08-14T08:32:20.000Z</time>
      </trkpt>
      <trkpt lat="42.39267298020422458648681640625" lon="0.872344560921192169189453125">
        <ele>1094.4000244140625</ele>
        <time>2020-08-14T08:32:26.000Z</time>
      </trkpt>
      <trkpt lat="42.392672561109066009521484375" lon="0.87234296835958957672119140625">
        <ele>1094.4000244140625</ele>
        <time>2020-08-14T08:32:41.000Z</time>
      </trkpt>
      <trkpt lat="42.39267289638519287109375" lon="0.87234196253120899200439453125">
        <ele>1094.5999755859375</ele>
        <time>2020-08-14T08:33:17.000Z</time>
      </trkpt>
      <trkpt lat="42.3926723934710025787353515625" lon="0.8723427169024944305419921875">
        <ele>1094.5999755859375</ele>
        <time>2020-08-14T08:33:27.000Z</time>
      </trkpt>
      <trkpt lat="42.39266744814813137054443359375" lon="0.872343219816684722900390625">
        <ele>1094.5999755859375</ele>
        <time>2020-08-14T08:33:29.000Z</time>
      </trkpt>
      <trkpt lat="42.39265537820756435394287109375" lon="0.8723440580070018768310546875">
        <ele>1094.4000244140625</ele>
        <time>2020-08-14T08:33:31.000Z</time>
      </trkpt>
      <trkpt lat="42.3925389535725116729736328125" lon="0.8723289705812931060791015625">
        <ele>1094.800048828125</ele>
        <time>2020-08-14T08:33:38.000Z</time>
      </trkpt>
      <trkpt lat="42.392523698508739471435546875" lon="0.87232905440032482147216796875">
        <ele>1095</ele>
        <time>2020-08-14T08:33:39.000Z</time>
      </trkpt>
      <trkpt lat="42.392474748194217681884765625" lon="0.872325785458087921142578125">
        <ele>1095.4000244140625</ele>
        <time>2020-08-14T08:33:42.000Z</time>
      </trkpt>
      <trkpt lat="42.39242739044129848480224609375" lon="0.87231664918363094329833984375">
        <ele>1096</ele>
        <time>2020-08-14T08:33:45.000Z</time>
      </trkpt>
      <trkpt lat="42.39238011650741100311279296875" lon="0.87230156175792217254638671875">
        <ele>1096.4000244140625</ele>
        <time>2020-08-14T08:33:48.000Z</time>
      </trkpt>
      <trkpt lat="42.39228288643062114715576171875" lon="0.8722977899014949798583984375">
        <ele>1096.800048828125</ele>
        <time>2020-08-14T08:33:53.000Z</time>
      </trkpt>
      <trkpt lat="42.3922254703938961029052734375" lon="0.8723286353051662445068359375">
        <ele>1097.5999755859375</ele>
        <time>2020-08-14T08:33:58.000Z</time>
      </trkpt>
      <trkpt lat="42.3921805433928966522216796875" lon="0.872356630861759185791015625">
        <ele>1098</ele>
        <time>2020-08-14T08:34:01.000Z</time>
      </trkpt>
      <trkpt lat="42.39212078042328357696533203125" lon="0.87240113876760005950927734375">
        <ele>1098.4000244140625</ele>
        <time>2020-08-14T08:34:05.000Z</time>
      </trkpt>
      <trkpt lat="42.39208876155316829681396484375" lon="0.8724074251949787139892578125">
        <ele>1098.800048828125</ele>
        <time>2020-08-14T08:34:07.000Z</time>
      </trkpt>
      <trkpt lat="42.39205288700759410858154296875" lon="0.8724084310233592987060546875">
        <ele>1098.800048828125</ele>
        <time>2020-08-14T08:34:09.000Z</time>
      </trkpt>
      <trkpt lat="42.39189413376152515411376953125" lon="0.8724070899188518524169921875">
        <ele>1099.800048828125</ele>
        <time>2020-08-14T08:34:17.000Z</time>
      </trkpt>
      <trkpt lat="42.39189413376152515411376953125" lon="0.8724070899188518524169921875">
        <ele>1099.800048828125</ele>
        <time>2020-08-14T08:34:18.000Z</time>
      </trkpt>
      <trkpt lat="42.391818948090076446533203125" lon="0.87231631390750408172607421875">
        <ele>1100.199951171875</ele>
        <time>2020-08-14T08:34:24.000Z</time>
      </trkpt>
      <trkpt lat="42.39176563918590545654296875" lon="0.872208438813686370849609375">
        <ele>1100.800048828125</ele>
        <time>2020-08-14T08:34:29.000Z</time>
      </trkpt>
      <trkpt lat="42.39174577407538890838623046875" lon="0.872165523469448089599609375">
        <ele>1101.199951171875</ele>
        <time>2020-08-14T08:34:31.000Z</time>
      </trkpt>
      <trkpt lat="42.39168894477188587188720703125" lon="0.87206452153623104095458984375">
        <ele>1102.199951171875</ele>
        <time>2020-08-14T08:34:36.000Z</time>
      </trkpt>
      <trkpt lat="42.39167318679392337799072265625" lon="0.8720250427722930908203125">
        <ele>1102.4000244140625</ele>
        <time>2020-08-14T08:34:38.000Z</time>
      </trkpt>
      <trkpt lat="42.3916684091091156005859375" lon="0.87200316600501537322998046875">
        <ele>1102.4000244140625</ele>
        <time>2020-08-14T08:34:39.000Z</time>
      </trkpt>
      <trkpt lat="42.39160872995853424072265625" lon="0.871885232627391815185546875">
        <ele>1103.199951171875</ele>
        <time>2020-08-14T08:34:45.000Z</time>
      </trkpt>
      <trkpt lat="42.3916018567979335784912109375" lon="0.87186302058398723602294921875">
        <ele>1103.4000244140625</ele>
        <time>2020-08-14T08:34:46.000Z</time>
      </trkpt>
      <trkpt lat="42.39158366806805133819580078125" lon="0.8717368729412555694580078125">
        <ele>1104</ele>
        <time>2020-08-14T08:34:52.000Z</time>
      </trkpt>
      <trkpt lat="42.39157662726938724517822265625" lon="0.8716929517686367034912109375">
        <ele>1104.199951171875</ele>
        <time>2020-08-14T08:34:54.000Z</time>
      </trkpt>
      <trkpt lat="42.39151996560394763946533203125" lon="0.87158272974193096160888671875">
        <ele>1105.199951171875</ele>
        <time>2020-08-14T08:35:00.000Z</time>
      </trkpt>
      <trkpt lat="42.391402535140514373779296875" lon="0.87146638892590999603271484375">
        <ele>1106</ele>
        <time>2020-08-14T08:35:08.000Z</time>
      </trkpt>
      <trkpt lat="42.39137470722198486328125" lon="0.8714378066360950469970703125">
        <ele>1106.199951171875</ele>
        <time>2020-08-14T08:35:10.000Z</time>
      </trkpt>
      <trkpt lat="42.39130790345370769500732421875" lon="0.8713026903569698333740234375">
        <ele>1107.4000244140625</ele>
        <time>2020-08-14T08:35:17.000Z</time>
      </trkpt>
      <trkpt lat="42.39127269946038722991943359375" lon="0.8711715973913669586181640625">
        <ele>1108.4000244140625</ele>
        <time>2020-08-14T08:35:23.000Z</time>
      </trkpt>
      <trkpt lat="42.3912642337381839752197265625" lon="0.87110110558569431304931640625">
        <ele>1108.800048828125</ele>
        <time>2020-08-14T08:35:26.000Z</time>
      </trkpt>
      <trkpt lat="42.3912615515291690826416015625" lon="0.871007479727268218994140625">
        <ele>1109.800048828125</ele>
        <time>2020-08-14T08:35:30.000Z</time>
      </trkpt>
      <trkpt lat="42.391265742480754852294921875" lon="0.8708651550114154815673828125">
        <ele>1110.4000244140625</ele>
        <time>2020-08-14T08:35:35.000Z</time>
      </trkpt>
      <trkpt lat="42.3912957496941089630126953125" lon="0.8707322180271148681640625">
        <ele>1111</ele>
        <time>2020-08-14T08:35:41.000Z</time>
      </trkpt>
      <trkpt lat="42.39130698144435882568359375" lon="0.8706839382648468017578125">
        <ele>1111.800048828125</ele>
        <time>2020-08-14T08:35:44.000Z</time>
      </trkpt>
      <trkpt lat="42.39133237861096858978271484375" lon="0.87061478756368160247802734375">
        <ele>1112</ele>
        <time>2020-08-14T08:35:46.000Z</time>
      </trkpt>
      <trkpt lat="42.391374371945858001708984375" lon="0.8704390190541744232177734375">
        <ele>1112.4000244140625</ele>
        <time>2020-08-14T08:35:53.000Z</time>
      </trkpt>
      <trkpt lat="42.3913800716400146484375" lon="0.8703847043216228485107421875">
        <ele>1112.5999755859375</ele>
        <time>2020-08-14T08:35:56.000Z</time>
      </trkpt>
      <trkpt lat="42.39137328229844570159912109375" lon="0.87025134824216365814208984375">
        <ele>1113.199951171875</ele>
        <time>2020-08-14T08:36:01.000Z</time>
      </trkpt>
      <trkpt lat="42.39133371971547603607177734375" lon="0.8700219355523586273193359375">
        <ele>1113.800048828125</ele>
        <time>2020-08-14T08:36:10.000Z</time>
      </trkpt>
      <trkpt lat="42.39131678827106952667236328125" lon="0.86997608654201030731201171875">
        <ele>1114.199951171875</ele>
        <time>2020-08-14T08:36:12.000Z</time>
      </trkpt>
      <trkpt lat="42.39122911356389522552490234375" lon="0.86981213651597499847412109375">
        <ele>1115.199951171875</ele>
        <time>2020-08-14T08:36:20.000Z</time>
      </trkpt>
      <trkpt lat="42.39108913578093051910400390625" lon="0.869649946689605712890625">
        <ele>1116.4000244140625</ele>
        <time>2020-08-14T08:36:29.000Z</time>
      </trkpt>
      <trkpt lat="42.39099693484604358673095703125" lon="0.86952396668493747711181640625">
        <ele>1117.5999755859375</ele>
        <time>2020-08-14T08:36:37.000Z</time>
      </trkpt>
      <trkpt lat="42.39098603837192058563232421875" lon="0.869502760469913482666015625">
        <ele>1117.5999755859375</ele>
        <time>2020-08-14T08:36:38.000Z</time>
      </trkpt>
      <trkpt lat="42.39091135561466217041015625" lon="0.869389437139034271240234375">
        <ele>1118.199951171875</ele>
        <time>2020-08-14T08:36:44.000Z</time>
      </trkpt>
      <trkpt lat="42.390876822173595428466796875" lon="0.8693651296198368072509765625">
        <ele>1118.5999755859375</ele>
        <time>2020-08-14T08:36:46.000Z</time>
      </trkpt>
      <trkpt lat="42.3907656781375408172607421875" lon="0.86931668221950531005859375">
        <ele>1119.4000244140625</ele>
        <time>2020-08-14T08:36:52.000Z</time>
      </trkpt>
      <trkpt lat="42.39070884883403778076171875" lon="0.8693057857453823089599609375">
        <ele>1119.800048828125</ele>
        <time>2020-08-14T08:36:54.000Z</time>
      </trkpt>
      <trkpt lat="42.39065612666308879852294921875" lon="0.869290530681610107421875">
        <ele>1120.4000244140625</ele>
        <time>2020-08-14T08:36:58.000Z</time>
      </trkpt>
      <trkpt lat="42.3905899934470653533935546875" lon="0.8692548237740993499755859375">
        <ele>1120.800048828125</ele>
        <time>2020-08-14T08:37:02.000Z</time>
      </trkpt>
      <trkpt lat="42.39053274504840373992919921875" lon="0.8691907860338687896728515625">
        <ele>1121.4000244140625</ele>
        <time>2020-08-14T08:37:05.000Z</time>
      </trkpt>
      <trkpt lat="42.39049955271184444427490234375" lon="0.8691317774355411529541015625">
        <ele>1122</ele>
        <time>2020-08-14T08:37:08.000Z</time>
      </trkpt>
      <trkpt lat="42.3904595710337162017822265625" lon="0.86899288929998874664306640625">
        <ele>1123</ele>
        <time>2020-08-14T08:37:14.000Z</time>
      </trkpt>
      <trkpt lat="42.3904508538544178009033203125" lon="0.86894712410867214202880859375">
        <ele>1123.4000244140625</ele>
        <time>2020-08-14T08:37:16.000Z</time>
      </trkpt>
      <trkpt lat="42.39042897708714008331298828125" lon="0.86884603835642337799072265625">
        <ele>1124</ele>
        <time>2020-08-14T08:37:20.000Z</time>
      </trkpt>
      <trkpt lat="42.39041917026042938232421875" lon="0.86876573972404003143310546875">
        <ele>1124.4000244140625</ele>
        <time>2020-08-14T08:37:24.000Z</time>
      </trkpt>
      <trkpt lat="42.39037617109715938568115234375" lon="0.86861285381019115447998046875">
        <ele>1125</ele>
        <time>2020-08-14T08:37:29.000Z</time>
      </trkpt>
      <trkpt lat="42.3903542943298816680908203125" lon="0.86852953769266605377197265625">
        <ele>1125.4000244140625</ele>
        <time>2020-08-14T08:37:33.000Z</time>
      </trkpt>
      <trkpt lat="42.39031380973756313323974609375" lon="0.8683281205594539642333984375">
        <ele>1125.5999755859375</ele>
        <time>2020-08-14T08:37:40.000Z</time>
      </trkpt>
      <trkpt lat="42.39034381695091724395751953125" lon="0.8680857159197330474853515625">
        <ele>1125.800048828125</ele>
        <time>2020-08-14T08:37:47.000Z</time>
      </trkpt>
      <trkpt lat="42.39043702371418476104736328125" lon="0.86794112809002399444580078125">
        <ele>1126.800048828125</ele>
        <time>2020-08-14T08:37:55.000Z</time>
      </trkpt>
      <trkpt lat="42.39045093767344951629638671875" lon="0.86792654357850551605224609375">
        <ele>1127.199951171875</ele>
        <time>2020-08-14T08:37:56.000Z</time>
      </trkpt>
      <trkpt lat="42.39052285440266132354736328125" lon="0.86779452860355377197265625">
        <ele>1128.199951171875</ele>
        <time>2020-08-14T08:38:02.000Z</time>
      </trkpt>
      <trkpt lat="42.39059619605541229248046875" lon="0.86768967099487781524658203125">
        <ele>1129.199951171875</ele>
        <time>2020-08-14T08:38:09.000Z</time>
      </trkpt>
      <trkpt lat="42.39064992405474185943603515625" lon="0.86761909537017345428466796875">
        <ele>1130</ele>
        <time>2020-08-14T08:38:13.000Z</time>
      </trkpt>
      <trkpt lat="42.39069837145507335662841796875" lon="0.867538042366504669189453125">
        <ele>1130.4000244140625</ele>
        <time>2020-08-14T08:38:16.000Z</time>
      </trkpt>
      <trkpt lat="42.39075176417827606201171875" lon="0.86746369488537311553955078125">
        <ele>1131</ele>
        <time>2020-08-14T08:38:20.000Z</time>
      </trkpt>
      <trkpt lat="42.39077967591583728790283203125" lon="0.86742966435849666595458984375">
        <ele>1131.4000244140625</ele>
        <time>2020-08-14T08:38:22.000Z</time>
      </trkpt>
      <trkpt lat="42.3908870480954647064208984375" lon="0.86730846203863620758056640625">
        <ele>1132.199951171875</ele>
        <time>2020-08-14T08:38:29.000Z</time>
      </trkpt>
      <trkpt lat="42.3908870480954647064208984375" lon="0.86730846203863620758056640625">
        <ele>1132.4000244140625</ele>
        <time>2020-08-14T08:38:30.000Z</time>
      </trkpt>
      <trkpt lat="42.39106424152851104736328125" lon="0.86718306876718997955322265625">
        <ele>1132.800048828125</ele>
        <time>2020-08-14T08:38:39.000Z</time>
      </trkpt>
      <trkpt lat="42.391186617314815521240234375" lon="0.86710746400058269500732421875">
        <ele>1133</ele>
        <time>2020-08-14T08:38:45.000Z</time>
      </trkpt>
      <trkpt lat="42.3913296125829219818115234375" lon="0.8670128323137760162353515625">
        <ele>1133.4000244140625</ele>
        <time>2020-08-14T08:38:52.000Z</time>
      </trkpt>
      <trkpt lat="42.3913497291505336761474609375" lon="0.86700587533414363861083984375">
        <ele>1133.5999755859375</ele>
        <time>2020-08-14T08:38:53.000Z</time>
      </trkpt>
      <trkpt lat="42.39140882156789302825927734375" lon="0.86699883453547954559326171875">
        <ele>1134.5999755859375</ele>
        <time>2020-08-14T08:38:57.000Z</time>
      </trkpt>
      <trkpt lat="42.39148895256221294403076171875" lon="0.86699414066970348358154296875">
        <ele>1135</ele>
        <time>2020-08-14T08:39:01.000Z</time>
      </trkpt>
      <trkpt lat="42.3915864340960979461669921875" lon="0.866971425712108612060546875">
        <ele>1135.5999755859375</ele>
        <time>2020-08-14T08:39:06.000Z</time>
      </trkpt>
      <trkpt lat="42.39167670719325542449951171875" lon="0.8669290132820606231689453125">
        <ele>1136.199951171875</ele>
        <time>2020-08-14T08:39:10.000Z</time>
      </trkpt>
      <trkpt lat="42.39179355092346668243408203125" lon="0.8668177016079425811767578125">
        <ele>1136.800048828125</ele>
        <time>2020-08-14T08:39:17.000Z</time>
      </trkpt>
      <trkpt lat="42.39180645905435085296630859375" lon="0.86679716594517230987548828125">
        <ele>1136.800048828125</ele>
        <time>2020-08-14T08:39:18.000Z</time>
      </trkpt>
      <trkpt lat="42.391866557300090789794921875" lon="0.866658948361873626708984375">
        <ele>1138</ele>
        <time>2020-08-14T08:39:24.000Z</time>
      </trkpt>
      <trkpt lat="42.39189078100025653839111328125" lon="0.8665568567812442779541015625">
        <ele>1138.800048828125</ele>
        <time>2020-08-14T08:39:28.000Z</time>
      </trkpt>
      <trkpt lat="42.391903437674045562744140625" lon="0.86650799028575420379638671875">
        <ele>1139</ele>
        <time>2020-08-14T08:39:30.000Z</time>
      </trkpt>
      <trkpt lat="42.39193453453481197357177734375" lon="0.8663898892700672149658203125">
        <ele>1140</ele>
        <time>2020-08-14T08:39:35.000Z</time>
      </trkpt>
      <trkpt lat="42.39194191060960292816162109375" lon="0.86636600084602832794189453125">
        <ele>1140.4000244140625</ele>
        <time>2020-08-14T08:39:37.000Z</time>
      </trkpt>
      <trkpt lat="42.391971163451671600341796875" lon="0.86627061478793621063232421875">
        <ele>1141</ele>
        <time>2020-08-14T08:39:40.000Z</time>
      </trkpt>
      <trkpt lat="42.3920358717441558837890625" lon="0.866115130484104156494140625">
        <ele>1142</ele>
        <time>2020-08-14T08:39:47.000Z</time>
      </trkpt>
      <trkpt lat="42.3920467682182788848876953125" lon="0.86609476245939731597900390625">
        <ele>1142.199951171875</ele>
        <time>2020-08-14T08:39:48.000Z</time>
      </trkpt>
      <trkpt lat="42.39215229637920856475830078125" lon="0.86594757623970508575439453125">
        <ele>1143.199951171875</ele>
        <time>2020-08-14T08:39:56.000Z</time>
      </trkpt>
      <trkpt lat="42.39220946095883846282958984375" lon="0.86588052101433277130126953125">
        <ele>1143.800048828125</ele>
        <time>2020-08-14T08:40:00.000Z</time>
      </trkpt>
      <trkpt lat="42.3922348581254482269287109375" lon="0.8658370189368724822998046875">
        <ele>1144</ele>
        <time>2020-08-14T08:40:02.000Z</time>
      </trkpt>
      <trkpt lat="42.39227483980357646942138671875" lon="0.86573316715657711029052734375">
        <ele>1144.4000244140625</ele>
        <time>2020-08-14T08:40:07.000Z</time>
      </trkpt>
      <trkpt lat="42.3923113010823726654052734375" lon="0.8656154014170169830322265625">
        <ele>1144.5999755859375</ele>
        <time>2020-08-14T08:40:10.000Z</time>
      </trkpt>
      <trkpt lat="42.39239470101892948150634765625" lon="0.8653649501502513885498046875">
        <ele>1145.4000244140625</ele>
        <time>2020-08-14T08:40:18.000Z</time>
      </trkpt>
      <trkpt lat="42.39243342541158199310302734375" lon="0.86523863486945629119873046875">
        <ele>1145.5999755859375</ele>
        <time>2020-08-14T08:40:22.000Z</time>
      </trkpt>
      <trkpt lat="42.3925154842436313629150390625" lon="0.86502087302505970001220703125">
        <ele>1145.800048828125</ele>
        <time>2020-08-14T08:40:29.000Z</time>
      </trkpt>
      <trkpt lat="42.3926152288913726806640625" lon="0.86481719277799129486083984375">
        <ele>1146.4000244140625</ele>
        <time>2020-08-14T08:40:36.000Z</time>
      </trkpt>
      <trkpt lat="42.3926412127912044525146484375" lon="0.864757262170314788818359375">
        <ele>1146.5999755859375</ele>
        <time>2020-08-14T08:40:39.000Z</time>
      </trkpt>
      <trkpt lat="42.39275009371340274810791015625" lon="0.86462415754795074462890625">
        <ele>1147.4000244140625</ele>
        <time>2020-08-14T08:40:45.000Z</time>
      </trkpt>
      <trkpt lat="42.39293281920254230499267578125" lon="0.86442768573760986328125">
        <ele>1148.199951171875</ele>
        <time>2020-08-14T08:40:53.000Z</time>
      </trkpt>
      <trkpt lat="42.39307061769068241119384765625" lon="0.86430371738970279693603515625">
        <ele>1148.800048828125</ele>
        <time>2020-08-14T08:40:59.000Z</time>
      </trkpt>
      <trkpt lat="42.3931367509067058563232421875" lon="0.8642454631626605987548828125">
        <ele>1149</ele>
        <time>2020-08-14T08:41:02.000Z</time>
      </trkpt>
      <trkpt lat="42.3931367509067058563232421875" lon="0.8642454631626605987548828125">
        <ele>1149</ele>
        <time>2020-08-14T08:41:03.000Z</time>
      </trkpt>
      <trkpt lat="42.39321143366396427154541015625" lon="0.86415477097034454345703125">
        <ele>1149</ele>
        <time>2020-08-14T08:41:07.000Z</time>
      </trkpt>
      <trkpt lat="42.39335082471370697021484375" lon="0.863910354673862457275390625">
        <ele>1149</ele>
        <time>2020-08-14T08:41:15.000Z</time>
      </trkpt>
      <trkpt lat="42.39351603202521800994873046875" lon="0.86373743601143360137939453125">
        <ele>1149.5999755859375</ele>
        <time>2020-08-14T08:41:22.000Z</time>
      </trkpt>
      <trkpt lat="42.39355810917913913726806640625" lon="0.86369385011494159698486328125">
        <ele>1149.800048828125</ele>
        <time>2020-08-14T08:41:25.000Z</time>
      </trkpt>
      <trkpt lat="42.39370261318981647491455078125" lon="0.86349654011428356170654296875">
        <ele>1150.199951171875</ele>
        <time>2020-08-14T08:41:32.000Z</time>
      </trkpt>
      <trkpt lat="42.39384963177144527435302734375" lon="0.8632389642298221588134765625">
        <ele>1150.800048828125</ele>
        <time>2020-08-14T08:41:41.000Z</time>
      </trkpt>
      <trkpt lat="42.393866814672946929931640625" lon="0.86320870555937290191650390625">
        <ele>1151</ele>
        <time>2020-08-14T08:41:42.000Z</time>
      </trkpt>
      <trkpt lat="42.39405834116041660308837890625" lon="0.86297887377440929412841796875">
        <ele>1151.4000244140625</ele>
        <time>2020-08-14T08:41:51.000Z</time>
      </trkpt>
      <trkpt lat="42.394268810749053955078125" lon="0.86290226317942142486572265625">
        <ele>1151.5999755859375</ele>
        <time>2020-08-14T08:41:59.000Z</time>
      </trkpt>
      <trkpt lat="42.3943417333066463470458984375" lon="0.86287242360413074493408203125">
        <ele>1152</ele>
        <time>2020-08-14T08:42:02.000Z</time>
      </trkpt>
      <trkpt lat="42.394428737461566925048828125" lon="0.86283135227859020233154296875">
        <ele>1152.4000244140625</ele>
        <time>2020-08-14T08:42:06.000Z</time>
      </trkpt>
      <trkpt lat="42.394517920911312103271484375" lon="0.86279883049428462982177734375">
        <ele>1153</ele>
        <time>2020-08-14T08:42:10.000Z</time>
      </trkpt>
      <trkpt lat="42.39456796087324619293212890625" lon="0.8627967350184917449951171875">
        <ele>1153.4000244140625</ele>
        <time>2020-08-14T08:42:13.000Z</time>
      </trkpt>
      <trkpt lat="42.39470609463751316070556640625" lon="0.86275490932166576385498046875">
        <ele>1153.800048828125</ele>
        <time>2020-08-14T08:42:19.000Z</time>
      </trkpt>
      <trkpt lat="42.39473073743283748626708984375" lon="0.86270394735038280487060546875">
        <ele>1154</ele>
        <time>2020-08-14T08:42:20.000Z</time>
      </trkpt>
      <trkpt lat="42.39474632777273654937744140625" lon="0.86261057294905185699462890625">
        <ele>1154.199951171875</ele>
        <time>2020-08-14T08:42:23.000Z</time>
      </trkpt>
      <trkpt lat="42.3947001434862613677978515625" lon="0.86246606893837451934814453125">
        <ele>1155</ele>
        <time>2020-08-14T08:42:29.000Z</time>
      </trkpt>
      <trkpt lat="42.3946498520672321319580078125" lon="0.862370431423187255859375">
        <ele>1156.199951171875</ele>
        <time>2020-08-14T08:42:34.000Z</time>
      </trkpt>
      <trkpt lat="42.3946283943951129913330078125" lon="0.86227496154606342315673828125">
        <ele>1156.800048828125</ele>
        <time>2020-08-14T08:42:38.000Z</time>
      </trkpt>
      <trkpt lat="42.39461305551230907440185546875" lon="0.8622053079307079315185546875">
        <ele>1157.4000244140625</ele>
        <time>2020-08-14T08:42:41.000Z</time>
      </trkpt>
      <trkpt lat="42.39457190036773681640625" lon="0.86209860630333423614501953125">
        <ele>1158.199951171875</ele>
        <time>2020-08-14T08:42:46.000Z</time>
      </trkpt>
      <trkpt lat="42.394563853740692138671875" lon="0.86207471787929534912109375">
        <ele>1158.4000244140625</ele>
        <time>2020-08-14T08:42:47.000Z</time>
      </trkpt>
      <trkpt lat="42.39450576715171337127685546875" lon="0.86190414614975452423095703125">
        <ele>1159.4000244140625</ele>
        <time>2020-08-14T08:42:54.000Z</time>
      </trkpt>
      <trkpt lat="42.39450576715171337127685546875" lon="0.86190414614975452423095703125">
        <ele>1159.5999755859375</ele>
        <time>2020-08-14T08:42:55.000Z</time>
      </trkpt>
      <trkpt lat="42.3944654501974582672119140625" lon="0.861764252185821533203125">
        <ele>1160.5999755859375</ele>
        <time>2020-08-14T08:43:00.000Z</time>
      </trkpt>
      <trkpt lat="42.3944423161447048187255859375" lon="0.86163894273340702056884765625">
        <ele>1161.4000244140625</ele>
        <time>2020-08-14T08:43:05.000Z</time>
      </trkpt>
      <trkpt lat="42.39443887956440448760986328125" lon="0.86161295883357524871826171875">
        <ele>1161.5999755859375</ele>
        <time>2020-08-14T08:43:06.000Z</time>
      </trkpt>
      <trkpt lat="42.39443552680313587188720703125" lon="0.86146040819585323333740234375">
        <ele>1162.4000244140625</ele>
        <time>2020-08-14T08:43:12.000Z</time>
      </trkpt>
      <trkpt lat="42.394438125193119049072265625" lon="0.861408524215221405029296875">
        <ele>1162.5999755859375</ele>
        <time>2020-08-14T08:43:14.000Z</time>
      </trkpt>
      <trkpt lat="42.39445866085588932037353515625" lon="0.8612561412155628204345703125">
        <ele>1163.800048828125</ele>
        <time>2020-08-14T08:43:20.000Z</time>
      </trkpt>
      <trkpt lat="42.39448011852800846099853515625" lon="0.861153043806552886962890625">
        <ele>1164.4000244140625</ele>
        <time>2020-08-14T08:43:24.000Z</time>
      </trkpt>
      <trkpt lat="42.3944889195263385772705078125" lon="0.86110174655914306640625">
        <ele>1164.800048828125</ele>
        <time>2020-08-14T08:43:27.000Z</time>
      </trkpt>
      <trkpt lat="42.394528649747371673583984375" lon="0.8609540574252605438232421875">
        <ele>1165.800048828125</ele>
        <time>2020-08-14T08:43:33.000Z</time>
      </trkpt>
      <trkpt lat="42.394540049135684967041015625" lon="0.860904268920421600341796875">
        <ele>1166</ele>
        <time>2020-08-14T08:43:34.000Z</time>
      </trkpt>
      <trkpt lat="42.394566871225833892822265625" lon="0.86078164167702198028564453125">
        <ele>1167</ele>
        <time>2020-08-14T08:43:39.000Z</time>
      </trkpt>
      <trkpt lat="42.39457567222416400909423828125" lon="0.86075833998620510101318359375">
        <ele>1167.4000244140625</ele>
        <time>2020-08-14T08:43:40.000Z</time>
      </trkpt>
      <trkpt lat="42.3946361057460308074951171875" lon="0.86063462309539318084716796875">
        <ele>1168</ele>
        <time>2020-08-14T08:43:46.000Z</time>
      </trkpt>
      <trkpt lat="42.39465840160846710205078125" lon="0.86059589870274066925048828125">
        <ele>1168.5999755859375</ele>
        <time>2020-08-14T08:43:49.000Z</time>
      </trkpt>
      <trkpt lat="42.3946867324411869049072265625" lon="0.8605322800576686859130859375">
        <ele>1169.199951171875</ele>
        <time>2020-08-14T08:43:51.000Z</time>
      </trkpt>
      <trkpt lat="42.39473291672766208648681640625" lon="0.8604236505925655364990234375">
        <ele>1169.800048828125</ele>
        <time>2020-08-14T08:43:57.000Z</time>
      </trkpt>
      <trkpt lat="42.39477013237774372100830078125" lon="0.86033337749540805816650390625">
        <ele>1170.4000244140625</ele>
        <time>2020-08-14T08:44:00.000Z</time>
      </trkpt>
      <trkpt lat="42.3948315717279911041259765625" lon="0.86014327593147754669189453125">
        <ele>1171.4000244140625</ele>
        <time>2020-08-14T08:44:08.000Z</time>
      </trkpt>
      <trkpt lat="42.39486216567456722259521484375" lon="0.86004638113081455230712890625">
        <ele>1172.4000244140625</ele>
        <time>2020-08-14T08:44:12.000Z</time>
      </trkpt>
      <trkpt lat="42.39490457810461521148681640625" lon="0.85989248938858509063720703125">
        <ele>1173</ele>
        <time>2020-08-14T08:44:19.000Z</time>
      </trkpt>
      <trkpt lat="42.3949475772678852081298828125" lon="0.85976743139326572418212890625">
        <ele>1173.5999755859375</ele>
        <time>2020-08-14T08:44:23.000Z</time>
      </trkpt>
      <trkpt lat="42.3950085975229740142822265625" lon="0.85959409363567829132080078125">
        <ele>1174.5999755859375</ele>
        <time>2020-08-14T08:44:31.000Z</time>
      </trkpt>
      <trkpt lat="42.39510096609592437744140625" lon="0.859421677887439727783203125">
        <ele>1175.800048828125</ele>
        <time>2020-08-14T08:44:38.000Z</time>
      </trkpt>
      <trkpt lat="42.39519509486854076385498046875" lon="0.8592387847602367401123046875">
        <ele>1177</ele>
        <time>2020-08-14T08:44:46.000Z</time>
      </trkpt>
      <trkpt lat="42.3952339030802249908447265625" lon="0.859140045940876007080078125">
        <ele>1177.800048828125</ele>
        <time>2020-08-14T08:44:51.000Z</time>
      </trkpt>
      <trkpt lat="42.39525544457137584686279296875" lon="0.8590919338166713714599609375">
        <ele>1178.199951171875</ele>
        <time>2020-08-14T08:44:52.000Z</time>
      </trkpt>
      <trkpt lat="42.39529919810593128204345703125" lon="0.85890292190015316009521484375">
        <ele>1179.199951171875</ele>
        <time>2020-08-14T08:44:59.000Z</time>
      </trkpt>
      <trkpt lat="42.3953267745673656463623046875" lon="0.858739055693149566650390625">
        <ele>1180.4000244140625</ele>
        <time>2020-08-14T08:45:05.000Z</time>
      </trkpt>
      <trkpt lat="42.39535041153430938720703125" lon="0.85866521112620830535888671875">
        <ele>1181</ele>
        <time>2020-08-14T08:45:09.000Z</time>
      </trkpt>
      <trkpt lat="42.39538016729056835174560546875" lon="0.85856261663138866424560546875">
        <ele>1181.5999755859375</ele>
        <time>2020-08-14T08:45:13.000Z</time>
      </trkpt>
      <trkpt lat="42.3954152874648571014404296875" lon="0.85840880870819091796875">
        <ele>1182.5999755859375</ele>
        <time>2020-08-14T08:45:18.000Z</time>
      </trkpt>
      <trkpt lat="42.395450659096240997314453125" lon="0.8582626283168792724609375">
        <ele>1184</ele>
        <time>2020-08-14T08:45:24.000Z</time>
      </trkpt>
      <trkpt lat="42.3954934068024158477783203125" lon="0.85811845958232879638671875">
        <ele>1185</ele>
        <time>2020-08-14T08:45:30.000Z</time>
      </trkpt>
      <trkpt lat="42.3954934068024158477783203125" lon="0.85811845958232879638671875">
        <ele>1185.199951171875</ele>
        <time>2020-08-14T08:45:31.000Z</time>
      </trkpt>
      <trkpt lat="42.39553422667086124420166015625" lon="0.85797839798033237457275390625">
        <ele>1186.199951171875</ele>
        <time>2020-08-14T08:45:36.000Z</time>
      </trkpt>
      <trkpt lat="42.3955450393259525299072265625" lon="0.8579308725893497467041015625">
        <ele>1186.5999755859375</ele>
        <time>2020-08-14T08:45:39.000Z</time>
      </trkpt>
      <trkpt lat="42.39555803127586841583251953125" lon="0.85788334719836711883544921875">
        <ele>1187</ele>
        <time>2020-08-14T08:45:40.000Z</time>
      </trkpt>
      <trkpt lat="42.39558116532862186431884765625" lon="0.85784076713025569915771484375">
        <ele>1187.4000244140625</ele>
        <time>2020-08-14T08:45:42.000Z</time>
      </trkpt>
      <trkpt lat="42.3956020362675189971923828125" lon="0.85779667831957340240478515625">
        <ele>1188</ele>
        <time>2020-08-14T08:45:45.000Z</time>
      </trkpt>
      <trkpt lat="42.395635060966014862060546875" lon="0.8577008731663227081298828125">
        <ele>1188.5999755859375</ele>
        <time>2020-08-14T08:45:48.000Z</time>
      </trkpt>
      <trkpt lat="42.3956791497766971588134765625" lon="0.8575580455362796783447265625">
        <ele>1189.4000244140625</ele>
        <time>2020-08-14T08:45:55.000Z</time>
      </trkpt>
      <trkpt lat="42.39569901488721370697021484375" lon="0.8575116097927093505859375">
        <ele>1189.800048828125</ele>
        <time>2020-08-14T08:45:56.000Z</time>
      </trkpt>
      <trkpt lat="42.39574260078370571136474609375" lon="0.85741949267685413360595703125">
        <ele>1190.4000244140625</ele>
        <time>2020-08-14T08:46:00.000Z</time>
      </trkpt>
      <trkpt lat="42.39576271735131740570068359375" lon="0.85737238638103008270263671875">
        <ele>1190.800048828125</ele>
        <time>2020-08-14T08:46:03.000Z</time>
      </trkpt>
      <trkpt lat="42.3958209715783596038818359375" lon="0.8571986295282840728759765625">
        <ele>1191.5999755859375</ele>
        <time>2020-08-14T08:46:09.000Z</time>
      </trkpt>
      <trkpt lat="42.39583144895732402801513671875" lon="0.85711372084915637969970703125">
        <ele>1191.800048828125</ele>
        <time>2020-08-14T08:46:12.000Z</time>
      </trkpt>
      <trkpt lat="42.39582055248320102691650390625" lon="0.85696636699140071868896484375">
        <ele>1192.4000244140625</ele>
        <time>2020-08-14T08:46:17.000Z</time>
      </trkpt>
      <trkpt lat="42.39582021720707416534423828125" lon="0.85678850300610065460205078125">
        <ele>1193</ele>
        <time>2020-08-14T08:46:23.000Z</time>
      </trkpt>
      <trkpt lat="42.39583513699471950531005859375" lon="0.856705270707607269287109375">
        <ele>1193.199951171875</ele>
        <time>2020-08-14T08:46:27.000Z</time>
      </trkpt>
      <trkpt lat="42.395875118672847747802734375" lon="0.85654408670961856842041015625">
        <ele>1194.199951171875</ele>
        <time>2020-08-14T08:46:32.000Z</time>
      </trkpt>
      <trkpt lat="42.395908646285533905029296875" lon="0.85647602565586566925048828125">
        <ele>1194.5999755859375</ele>
        <time>2020-08-14T08:46:35.000Z</time>
      </trkpt>
      <trkpt lat="42.39594058133661746978759765625" lon="0.85641282610595226287841796875">
        <ele>1195.199951171875</ele>
        <time>2020-08-14T08:46:38.000Z</time>
      </trkpt>
      <trkpt lat="42.39598098210990428924560546875" lon="0.85633202455937862396240234375">
        <ele>1196.199951171875</ele>
        <time>2020-08-14T08:46:43.000Z</time>
      </trkpt>
      <trkpt lat="42.3960318602621555328369140625" lon="0.856234543025493621826171875">
        <ele>1197</ele>
        <time>2020-08-14T08:46:47.000Z</time>
      </trkpt>
      <trkpt lat="42.396062202751636505126953125" lon="0.856174193322658538818359375">
        <ele>1197.4000244140625</ele>
        <time>2020-08-14T08:46:50.000Z</time>
      </trkpt>
      <trkpt lat="42.3961015976965427398681640625" lon="0.8560902066528797149658203125">
        <ele>1198.4000244140625</ele>
        <time>2020-08-14T08:46:55.000Z</time>
      </trkpt>
      <trkpt lat="42.3961421661078929901123046875" lon="0.85600580088794231414794921875">
        <ele>1199</ele>
        <time>2020-08-14T08:46:58.000Z</time>
      </trkpt>
      <trkpt lat="42.3961584270000457763671875" lon="0.85596053861081600189208984375">
        <ele>1199.5999755859375</ele>
        <time>2020-08-14T08:47:01.000Z</time>
      </trkpt>
      <trkpt lat="42.3962125740945339202880859375" lon="0.85582927800714969635009765625">
        <ele>1200.5999755859375</ele>
        <time>2020-08-14T08:47:06.000Z</time>
      </trkpt>
      <trkpt lat="42.39623830653727054595947265625" lon="0.8557626418769359588623046875">
        <ele>1201.199951171875</ele>
        <time>2020-08-14T08:47:09.000Z</time>
      </trkpt>
      <trkpt lat="42.39625590853393077850341796875" lon="0.85569315589964389801025390625">
        <ele>1201.800048828125</ele>
        <time>2020-08-14T08:47:12.000Z</time>
      </trkpt>
      <trkpt lat="42.39626613445580005645751953125" lon="0.85559776984155178070068359375">
        <ele>1202.800048828125</ele>
        <time>2020-08-14T08:47:16.000Z</time>
      </trkpt>
      <trkpt lat="42.39626705646514892578125" lon="0.8555517531931400299072265625">
        <ele>1203</ele>
        <time>2020-08-14T08:47:18.000Z</time>
      </trkpt>
      <trkpt lat="42.396269738674163818359375" lon="0.855410099029541015625">
        <ele>1203.800048828125</ele>
        <time>2020-08-14T08:47:24.000Z</time>
      </trkpt>
      <trkpt lat="42.39627703092992305755615234375" lon="0.8553633280098438262939453125">
        <ele>1204.199951171875</ele>
        <time>2020-08-14T08:47:27.000Z</time>
      </trkpt>
      <trkpt lat="42.39628122188150882720947265625" lon="0.85526886396110057830810546875">
        <ele>1204.800048828125</ele>
        <time>2020-08-14T08:47:30.000Z</time>
      </trkpt>
      <trkpt lat="42.396288849413394927978515625" lon="0.85512779653072357177734375">
        <ele>1206</ele>
        <time>2020-08-14T08:47:36.000Z</time>
      </trkpt>
      <trkpt lat="42.39630485884845256805419921875" lon="0.85499092005193233489990234375">
        <ele>1207.199951171875</ele>
        <time>2020-08-14T08:47:43.000Z</time>
      </trkpt>
      <trkpt lat="42.39632614888250827789306640625" lon="0.854863263666629791259765625">
        <ele>1208.199951171875</ele>
        <time>2020-08-14T08:47:48.000Z</time>
      </trkpt>
      <trkpt lat="42.39632614888250827789306640625" lon="0.854863263666629791259765625">
        <ele>1208.4000244140625</ele>
        <time>2020-08-14T08:47:49.000Z</time>
      </trkpt>
      <trkpt lat="42.396343834698200225830078125" lon="0.85476125590503215789794921875">
        <ele>1209.4000244140625</ele>
        <time>2020-08-14T08:47:53.000Z</time>
      </trkpt>
      <trkpt lat="42.39636026322841644287109375" lon="0.85470124147832393646240234375">
        <ele>1210.199951171875</ele>
        <time>2020-08-14T08:47:57.000Z</time>
      </trkpt>
      <trkpt lat="42.39637769758701324462890625" lon="0.85463829338550567626953125">
        <ele>1210.4000244140625</ele>
        <time>2020-08-14T08:47:59.000Z</time>
      </trkpt>
      <trkpt lat="42.39639856852591037750244140625" lon="0.85458020679652690887451171875">
        <ele>1210.800048828125</ele>
        <time>2020-08-14T08:48:02.000Z</time>
      </trkpt>
      <trkpt lat="42.3964321799576282501220703125" lon="0.8545305021107196807861328125">
        <ele>1211.4000244140625</ele>
        <time>2020-08-14T08:48:05.000Z</time>
      </trkpt>
      <trkpt lat="42.39649345166981220245361328125" lon="0.85439546965062618255615234375">
        <ele>1212.5999755859375</ele>
        <time>2020-08-14T08:48:12.000Z</time>
      </trkpt>
      <trkpt lat="42.396510131657123565673828125" lon="0.85435657761991024017333984375">
        <ele>1213</ele>
        <time>2020-08-14T08:48:14.000Z</time>
      </trkpt>
      <trkpt lat="42.39654877223074436187744140625" lon="0.85428147576749324798583984375">
        <ele>1213.5999755859375</ele>
        <time>2020-08-14T08:48:18.000Z</time>
      </trkpt>
      <trkpt lat="42.39659151993691921234130859375" lon="0.85420553572475910186767578125">
        <ele>1214.199951171875</ele>
        <time>2020-08-14T08:48:22.000Z</time>
      </trkpt>
      <trkpt lat="42.39661063067615032196044921875" lon="0.8541653864085674285888671875">
        <ele>1214.5999755859375</ele>
        <time>2020-08-14T08:48:24.000Z</time>
      </trkpt>
      <trkpt lat="42.396659664809703826904296875" lon="0.85403387434780597686767578125">
        <ele>1215.5999755859375</ele>
        <time>2020-08-14T08:48:31.000Z</time>
      </trkpt>
      <trkpt lat="42.39667215384542942047119140625" lon="0.85398651659488677978515625">
        <ele>1215.800048828125</ele>
        <time>2020-08-14T08:48:32.000Z</time>
      </trkpt>
      <trkpt lat="42.396703921258449554443359375" lon="0.85384729318320751190185546875">
        <ele>1216.800048828125</ele>
        <time>2020-08-14T08:48:39.000Z</time>
      </trkpt>
      <trkpt lat="42.3967188410460948944091796875" lon="0.85380186326801776885986328125">
        <ele>1217.199951171875</ele>
        <time>2020-08-14T08:48:40.000Z</time>
      </trkpt>
      <trkpt lat="42.39677022211253643035888671875" lon="0.8536701835691928863525390625">
        <ele>1217.800048828125</ele>
        <time>2020-08-14T08:48:46.000Z</time>
      </trkpt>
      <trkpt lat="42.3967848904430866241455078125" lon="0.85362651385366916656494140625">
        <ele>1218</ele>
        <time>2020-08-14T08:48:48.000Z</time>
      </trkpt>
      <trkpt lat="42.39681649021804332733154296875" lon="0.85353590548038482666015625">
        <ele>1219</ele>
        <time>2020-08-14T08:48:52.000Z</time>
      </trkpt>
      <trkpt lat="42.39683543331921100616455078125" lon="0.85343398153781890869140625">
        <ele>1219.199951171875</ele>
        <time>2020-08-14T08:48:56.000Z</time>
      </trkpt>
      <trkpt lat="42.39682621322572231292724609375" lon="0.8532168902456760406494140625">
        <ele>1220.199951171875</ele>
        <time>2020-08-14T08:49:04.000Z</time>
      </trkpt>
      <trkpt lat="42.3968267999589443206787109375" lon="0.8531897328794002532958984375">
        <ele>1220.199951171875</ele>
        <time>2020-08-14T08:49:05.000Z</time>
      </trkpt>
      <trkpt lat="42.39685102365911006927490234375" lon="0.853064171969890594482421875">
        <ele>1221.4000244140625</ele>
        <time>2020-08-14T08:49:10.000Z</time>
      </trkpt>
      <trkpt lat="42.3968718945980072021484375" lon="0.8530190773308277130126953125">
        <ele>1221.5999755859375</ele>
        <time>2020-08-14T08:49:12.000Z</time>
      </trkpt>
      <trkpt lat="42.396909110248088836669921875" lon="0.85292897187173366546630859375">
        <ele>1222.4000244140625</ele>
        <time>2020-08-14T08:49:16.000Z</time>
      </trkpt>
      <trkpt lat="42.3969763331115245819091796875" lon="0.85283475928008556365966796875">
        <ele>1223</ele>
        <time>2020-08-14T08:49:21.000Z</time>
      </trkpt>
      <trkpt lat="42.39702737890183925628662109375" lon="0.85279536433517932891845703125">
        <ele>1223.5999755859375</ele>
        <time>2020-08-14T08:49:24.000Z</time>
      </trkpt>
      <trkpt lat="42.39711991511285305023193359375" lon="0.85275144316256046295166015625">
        <ele>1224</ele>
        <time>2020-08-14T08:49:29.000Z</time>
      </trkpt>
      <trkpt lat="42.397173307836055755615234375" lon="0.85272445343434810638427734375">
        <ele>1224.5999755859375</ele>
        <time>2020-08-14T08:49:33.000Z</time>
      </trkpt>
      <trkpt lat="42.3973062448203563690185546875" lon="0.85266443900763988494873046875">
        <ele>1225</ele>
        <time>2020-08-14T08:49:39.000Z</time>
      </trkpt>
      <trkpt lat="42.3973391018807888031005859375" lon="0.85263468325138092041015625">
        <ele>1225.5999755859375</ele>
        <time>2020-08-14T08:49:41.000Z</time>
      </trkpt>
      <trkpt lat="42.397395260632038116455078125" lon="0.852587409317493438720703125">
        <ele>1225.800048828125</ele>
        <time>2020-08-14T08:49:45.000Z</time>
      </trkpt>
      <trkpt lat="42.39760807715356349945068359375" lon="0.852500908076763153076171875">
        <ele>1226.199951171875</ele>
        <time>2020-08-14T08:49:54.000Z</time>
      </trkpt>
      <trkpt lat="42.39765300415456295013427734375" lon="0.852494537830352783203125">
        <ele>1226.5999755859375</ele>
        <time>2020-08-14T08:49:56.000Z</time>
      </trkpt>
      <trkpt lat="42.39769156090915203094482421875" lon="0.85246612317860126495361328125">
        <ele>1226.800048828125</ele>
        <time>2020-08-14T08:49:58.000Z</time>
      </trkpt>
      <trkpt lat="42.39771737717092037200927734375" lon="0.85242019034922122955322265625">
        <ele>1227</ele>
        <time>2020-08-14T08:50:00.000Z</time>
      </trkpt>
      <trkpt lat="42.3977115936577320098876953125" lon="0.8523671329021453857421875">
        <ele>1227.199951171875</ele>
        <time>2020-08-14T08:50:02.000Z</time>
      </trkpt>
      <trkpt lat="42.3976787365972995758056640625" lon="0.85233033634722232818603515625">
        <ele>1227.5999755859375</ele>
        <time>2020-08-14T08:50:04.000Z</time>
      </trkpt>
      <trkpt lat="42.39760757423937320709228515625" lon="0.85227702744305133819580078125">
        <ele>1228.4000244140625</ele>
        <time>2020-08-14T08:50:08.000Z</time>
      </trkpt>
      <trkpt lat="42.3975912295281887054443359375" lon="0.8522734232246875762939453125">
        <ele>1228.5999755859375</ele>
        <time>2020-08-14T08:50:09.000Z</time>
      </trkpt>
      <trkpt lat="42.39757689647376537322998046875" lon="0.8522710762917995452880859375">
        <ele>1228.800048828125</ele>
        <time>2020-08-14T08:50:10.000Z</time>
      </trkpt>
      <trkpt lat="42.39749743603169918060302734375" lon="0.8522613532841205596923828125">
        <ele>1229.800048828125</ele>
        <time>2020-08-14T08:50:15.000Z</time>
      </trkpt>
      <trkpt lat="42.39744982682168483734130859375" lon="0.8522523008286952972412109375">
        <ele>1230.199951171875</ele>
        <time>2020-08-14T08:50:19.000Z</time>
      </trkpt>
      <trkpt lat="42.39742065779864788055419921875" lon="0.85223629139363765716552734375">
        <ele>1230.5999755859375</ele>
        <time>2020-08-14T08:50:21.000Z</time>
      </trkpt>
      <trkpt lat="42.39733851514756679534912109375" lon="0.85218365304172039031982421875">
        <ele>1231</ele>
        <time>2020-08-14T08:50:25.000Z</time>
      </trkpt>
      <trkpt lat="42.39725955761969089508056640625" lon="0.8521203696727752685546875">
        <ele>1231.800048828125</ele>
        <time>2020-08-14T08:50:30.000Z</time>
      </trkpt>
      <trkpt lat="42.3972056619822978973388671875" lon="0.8520665578544139862060546875">
        <ele>1232.800048828125</ele>
        <time>2020-08-14T08:50:34.000Z</time>
      </trkpt>
      <trkpt lat="42.3971939273178577423095703125" lon="0.85205406881868839263916015625">
        <ele>1233</ele>
        <time>2020-08-14T08:50:35.000Z</time>
      </trkpt>
      <trkpt lat="42.3970990441739559173583984375" lon="0.85198315791785717010498046875">
        <ele>1233.5999755859375</ele>
        <time>2020-08-14T08:50:41.000Z</time>
      </trkpt>
      <trkpt lat="42.39705353043973445892333984375" lon="0.85194326005876064300537109375">
        <ele>1234</ele>
        <time>2020-08-14T08:50:44.000Z</time>
      </trkpt>
      <trkpt lat="42.39699594676494598388671875" lon="0.85188944824039936065673828125">
        <ele>1234.5999755859375</ele>
        <time>2020-08-14T08:50:49.000Z</time>
      </trkpt>
      <trkpt lat="42.3969357647001743316650390625" lon="0.85185156203806400299072265625">
        <ele>1235.199951171875</ele>
        <time>2020-08-14T08:50:52.000Z</time>
      </trkpt>
      <trkpt lat="42.3968740738928318023681640625" lon="0.85182189010083675384521484375">
        <ele>1235.800048828125</ele>
        <time>2020-08-14T08:50:56.000Z</time>
      </trkpt>
      <trkpt lat="42.396810539066791534423828125" lon="0.8517912961542606353759765625">
        <ele>1236.5999755859375</ele>
        <time>2020-08-14T08:51:00.000Z</time>
      </trkpt>
      <trkpt lat="42.3967785201966762542724609375" lon="0.8517815731465816497802734375">
        <ele>1236.800048828125</ele>
        <time>2020-08-14T08:51:02.000Z</time>
      </trkpt>
      <trkpt lat="42.396715991199016571044921875" lon="0.851749219000339508056640625">
        <ele>1238</ele>
        <time>2020-08-14T08:51:07.000Z</time>
      </trkpt>
      <trkpt lat="42.39666159264743328094482421875" lon="0.8516407571732997894287109375">
        <ele>1238.800048828125</ele>
        <time>2020-08-14T08:51:12.000Z</time>
      </trkpt>
      <trkpt lat="42.39667181856930255889892578125" lon="0.8516027033329010009765625">
        <ele>1239.4000244140625</ele>
        <time>2020-08-14T08:51:14.000Z</time>
      </trkpt>
      <trkpt lat="42.39671674557030200958251953125" lon="0.85158250294625759124755859375">
        <ele>1239.800048828125</ele>
        <time>2020-08-14T08:51:17.000Z</time>
      </trkpt>
      <trkpt lat="42.39673317410051822662353515625" lon="0.8515867777168750762939453125">
        <ele>1240</ele>
        <time>2020-08-14T08:51:19.000Z</time>
      </trkpt>
      <trkpt lat="42.3968308232724666595458984375" lon="0.85162005387246608734130859375">
        <ele>1241</ele>
        <time>2020-08-14T08:51:25.000Z</time>
      </trkpt>
      <trkpt lat="42.396859824657440185546875" lon="0.851635895669460296630859375">
        <ele>1241.199951171875</ele>
        <time>2020-08-14T08:51:26.000Z</time>
      </trkpt>
      <trkpt lat="42.3969174921512603759765625" lon="0.851671434938907623291015625">
        <ele>1242.4000244140625</ele>
        <time>2020-08-14T08:51:31.000Z</time>
      </trkpt>
      <trkpt lat="42.39694473333656787872314453125" lon="0.85168182849884033203125">
        <ele>1242.800048828125</ele>
        <time>2020-08-14T08:51:32.000Z</time>
      </trkpt>
      <trkpt lat="42.396990917623043060302734375" lon="0.85169565863907337188720703125">
        <ele>1243</ele>
        <time>2020-08-14T08:51:35.000Z</time>
      </trkpt>
      <trkpt lat="42.39704020321369171142578125" lon="0.851709656417369842529296875">
        <ele>1243.199951171875</ele>
        <time>2020-08-14T08:51:38.000Z</time>
      </trkpt>
      <trkpt lat="42.397108934819698333740234375" lon="0.85172985680401325225830078125">
        <ele>1243.5999755859375</ele>
        <time>2020-08-14T08:51:42.000Z</time>
      </trkpt>
      <trkpt lat="42.39717607386410236358642578125" lon="0.85176355205476284027099609375">
        <ele>1244.199951171875</ele>
        <time>2020-08-14T08:51:46.000Z</time>
      </trkpt>
      <trkpt lat="42.39722955040633678436279296875" lon="0.85178903304040431976318359375">
        <ele>1244.800048828125</ele>
        <time>2020-08-14T08:51:49.000Z</time>
      </trkpt>
      <trkpt lat="42.39729811437427997589111328125" lon="0.8518221415579319000244140625">
        <ele>1245.4000244140625</ele>
        <time>2020-08-14T08:51:53.000Z</time>
      </trkpt>
      <trkpt lat="42.3973491601645946502685546875" lon="0.851851142942905426025390625">
        <ele>1245.800048828125</ele>
        <time>2020-08-14T08:51:56.000Z</time>
      </trkpt>
      <trkpt lat="42.39740087650716304779052734375" lon="0.851883329451084136962890625">
        <ele>1246.4000244140625</ele>
        <time>2020-08-14T08:51:59.000Z</time>
      </trkpt>
      <trkpt lat="42.39747044630348682403564453125" lon="0.8519210480153560638427734375">
        <ele>1246.4000244140625</ele>
        <time>2020-08-14T08:52:03.000Z</time>
      </trkpt>
      <trkpt lat="42.39755476824939250946044921875" lon="0.8519485406577587127685546875">
        <ele>1247</ele>
        <time>2020-08-14T08:52:08.000Z</time>
      </trkpt>
      <trkpt lat="42.397590391337871551513671875" lon="0.85195197723805904388427734375">
        <ele>1247.199951171875</ele>
        <time>2020-08-14T08:52:10.000Z</time>
      </trkpt>
      <trkpt lat="42.39760841242969036102294921875" lon="0.8519552461802959442138671875">
        <ele>1247.4000244140625</ele>
        <time>2020-08-14T08:52:11.000Z</time>
      </trkpt>
      <trkpt lat="42.39771855063736438751220703125" lon="0.8519549109041690826416015625">
        <ele>1248.199951171875</ele>
        <time>2020-08-14T08:52:17.000Z</time>
      </trkpt>
      <trkpt lat="42.39775358699262142181396484375" lon="0.85195046849548816680908203125">
        <ele>1248.5999755859375</ele>
        <time>2020-08-14T08:52:19.000Z</time>
      </trkpt>
      <trkpt lat="42.3978373222053050994873046875" lon="0.851931273937225341796875">
        <ele>1249.5999755859375</ele>
        <time>2020-08-14T08:52:24.000Z</time>
      </trkpt>
      <trkpt lat="42.397855259478092193603515625" lon="0.8519304357469081878662109375">
        <ele>1249.5999755859375</ele>
        <time>2020-08-14T08:52:25.000Z</time>
      </trkpt>
      <trkpt lat="42.397936396300792694091796875" lon="0.8519031107425689697265625">
        <ele>1250.4000244140625</ele>
        <time>2020-08-14T08:52:30.000Z</time>
      </trkpt>
      <trkpt lat="42.39795139990746974945068359375" lon="0.8518928848206996917724609375">
        <ele>1250.800048828125</ele>
        <time>2020-08-14T08:52:31.000Z</time>
      </trkpt>
      <trkpt lat="42.39800579845905303955078125" lon="0.8518466167151927947998046875">
        <ele>1251.5999755859375</ele>
        <time>2020-08-14T08:52:35.000Z</time>
      </trkpt>
      <trkpt lat="42.39804980345070362091064453125" lon="0.85181267000734806060791015625">
        <ele>1252</ele>
        <time>2020-08-14T08:52:38.000Z</time>
      </trkpt>
      <trkpt lat="42.398087270557880401611328125" lon="0.85176564753055572509765625">
        <ele>1252.800048828125</ele>
        <time>2020-08-14T08:52:41.000Z</time>
      </trkpt>
      <trkpt lat="42.39812339656054973602294921875" lon="0.85169213823974132537841796875">
        <ele>1253.800048828125</ele>
        <time>2020-08-14T08:52:45.000Z</time>
      </trkpt>
      <trkpt lat="42.39812959916889667510986328125" lon="0.85167311131954193115234375">
        <ele>1253.800048828125</ele>
        <time>2020-08-14T08:52:46.000Z</time>
      </trkpt>
      <trkpt lat="42.39820922724902629852294921875" lon="0.85155635140836238861083984375">
        <ele>1254.4000244140625</ele>
        <time>2020-08-14T08:52:53.000Z</time>
      </trkpt>
      <trkpt lat="42.3982344567775726318359375" lon="0.85149516351521015167236328125">
        <ele>1254.800048828125</ele>
        <time>2020-08-14T08:52:56.000Z</time>
      </trkpt>
      <trkpt lat="42.3982344567775726318359375" lon="0.85149516351521015167236328125">
        <ele>1254.800048828125</ele>
        <time>2020-08-14T08:52:57.000Z</time>
      </trkpt>
      <trkpt lat="42.3982319422066211700439453125" lon="0.85144579410552978515625">
        <ele>1254.800048828125</ele>
        <time>2020-08-14T08:52:58.000Z</time>
      </trkpt>
      <trkpt lat="42.3982076346874237060546875" lon="0.85135200060904026031494140625">
        <ele>1255.4000244140625</ele>
        <time>2020-08-14T08:53:02.000Z</time>
      </trkpt>
      <trkpt lat="42.39817838184535503387451171875" lon="0.851330123841762542724609375">
        <ele>1255.5999755859375</ele>
        <time>2020-08-14T08:53:04.000Z</time>
      </trkpt>
      <trkpt lat="42.3981405794620513916015625" lon="0.85131176747381687164306640625">
        <ele>1255.800048828125</ele>
        <time>2020-08-14T08:53:06.000Z</time>
      </trkpt>
      <trkpt lat="42.39803622476756572723388671875" lon="0.85125661455094814300537109375">
        <ele>1256.4000244140625</ele>
        <time>2020-08-14T08:53:12.000Z</time>
      </trkpt>
      <trkpt lat="42.39798677153885364532470703125" lon="0.851232223212718963623046875">
        <ele>1256.800048828125</ele>
        <time>2020-08-14T08:53:15.000Z</time>
      </trkpt>
      <trkpt lat="42.39791653119027614593505859375" lon="0.85117916576564311981201171875">
        <ele>1257.199951171875</ele>
        <time>2020-08-14T08:53:20.000Z</time>
      </trkpt>
      <trkpt lat="42.3978148587048053741455078125" lon="0.8511069975793361663818359375">
        <ele>1257.800048828125</ele>
        <time>2020-08-14T08:53:27.000Z</time>
      </trkpt>
      <trkpt lat="42.39780195057392120361328125" lon="0.85109652020037174224853515625">
        <ele>1258</ele>
        <time>2020-08-14T08:53:28.000Z</time>
      </trkpt>
      <trkpt lat="42.39770698361098766326904296875" lon="0.85105712525546550750732421875">
        <ele>1259</ele>
        <time>2020-08-14T08:53:34.000Z</time>
      </trkpt>
      <trkpt lat="42.3976911418139934539794921875" lon="0.85105678997933864593505859375">
        <ele>1259.199951171875</ele>
        <time>2020-08-14T08:53:35.000Z</time>
      </trkpt>
      <trkpt lat="42.3976435326039791107177734375" lon="0.85105930455029010772705078125">
        <ele>1259.800048828125</ele>
        <time>2020-08-14T08:53:38.000Z</time>
      </trkpt>
      <trkpt lat="42.39761151373386383056640625" lon="0.8510704524815082550048828125">
        <ele>1260.199951171875</ele>
        <time>2020-08-14T08:53:40.000Z</time>
      </trkpt>
      <trkpt lat="42.39759542047977447509765625" lon="0.85107053630053997039794921875">
        <ele>1260.4000244140625</ele>
        <time>2020-08-14T08:53:41.000Z</time>
      </trkpt>
      <trkpt lat="42.397552840411663055419921875" lon="0.85107472725212574005126953125">
        <ele>1261.199951171875</ele>
        <time>2020-08-14T08:53:45.000Z</time>
      </trkpt>
      <trkpt lat="42.39755242131650447845458984375" lon="0.8510738052427768707275390625">
        <ele>1261.4000244140625</ele>
        <time>2020-08-14T08:53:46.000Z</time>
      </trkpt>
      <trkpt lat="42.39755074493587017059326171875" lon="0.8510614000260829925537109375">
        <ele>1261.199951171875</ele>
        <time>2020-08-14T08:54:53.000Z</time>
      </trkpt>
      <trkpt lat="42.39753783680498600006103515625" lon="0.851063244044780731201171875">
        <ele>1261.4000244140625</ele>
        <time>2020-08-14T08:54:56.000Z</time>
      </trkpt>
      <trkpt lat="42.3975060693919658660888671875" lon="0.851067937910556793212890625">
        <ele>1261.5999755859375</ele>
        <time>2020-08-14T08:54:59.000Z</time>
      </trkpt>
      <trkpt lat="42.397460304200649261474609375" lon="0.85106424987316131591796875">
        <ele>1261.800048828125</ele>
        <time>2020-08-14T08:55:04.000Z</time>
      </trkpt>
      <trkpt lat="42.39746005274355411529541015625" lon="0.85106450133025646209716796875">
        <ele>1262</ele>
        <time>2020-08-14T08:55:05.000Z</time>
      </trkpt>
      <trkpt lat="42.39745871163904666900634765625" lon="0.85106399841606616973876953125">
        <ele>1262.199951171875</ele>
        <time>2020-08-14T08:57:08.000Z</time>
      </trkpt>
      <trkpt lat="42.39745032973587512969970703125" lon="0.85106651298701763153076171875">
        <ele>1262.199951171875</ele>
        <time>2020-08-14T08:57:11.000Z</time>
      </trkpt>
      <trkpt lat="42.3974252678453922271728515625" lon="0.8510751463472843170166015625">
        <ele>1262.199951171875</ele>
        <time>2020-08-14T08:57:13.000Z</time>
      </trkpt>
      <trkpt lat="42.39728000946342945098876953125" lon="0.85111521184444427490234375">
        <ele>1262.4000244140625</ele>
        <time>2020-08-14T08:57:21.000Z</time>
      </trkpt>
      <trkpt lat="42.39713785238564014434814453125" lon="0.8511365018784999847412109375">
        <ele>1262.800048828125</ele>
        <time>2020-08-14T08:57:28.000Z</time>
      </trkpt>
      <trkpt lat="42.39693283103406429290771484375" lon="0.85110674612224102020263671875">
        <ele>1262.800048828125</ele>
        <time>2020-08-14T08:57:35.000Z</time>
      </trkpt>
      <trkpt lat="42.39683794789016246795654296875" lon="0.85107028484344482421875">
        <ele>1263.199951171875</ele>
        <time>2020-08-14T08:57:39.000Z</time>
      </trkpt>
      <trkpt lat="42.39669545553624629974365234375" lon="0.8510070852935314178466796875">
        <ele>1264.4000244140625</ele>
        <time>2020-08-14T08:57:46.000Z</time>
      </trkpt>
      <trkpt lat="42.39654324017465114593505859375" lon="0.8509484119713306427001953125">
        <ele>1265.4000244140625</ele>
        <time>2020-08-14T08:57:54.000Z</time>
      </trkpt>
      <trkpt lat="42.3964026756584644317626953125" lon="0.85087238810956478118896484375">
        <ele>1266</ele>
        <time>2020-08-14T08:58:01.000Z</time>
      </trkpt>
      <trkpt lat="42.39633050747215747833251953125" lon="0.85078018717467784881591796875">
        <ele>1266.5999755859375</ele>
        <time>2020-08-14T08:58:06.000Z</time>
      </trkpt>
      <trkpt lat="42.39631474949419498443603515625" lon="0.85076509974896907806396484375">
        <ele>1266.800048828125</ele>
        <time>2020-08-14T08:58:08.000Z</time>
      </trkpt>
      <trkpt lat="42.3962521366775035858154296875" lon="0.85069837979972362518310546875">
        <ele>1267.5999755859375</ele>
        <time>2020-08-14T08:58:11.000Z</time>
      </trkpt>
      <trkpt lat="42.39619304426014423370361328125" lon="0.8506317436695098876953125">
        <ele>1268.199951171875</ele>
        <time>2020-08-14T08:58:15.000Z</time>
      </trkpt>
      <trkpt lat="42.396138645708560943603515625" lon="0.85055840201675891876220703125">
        <ele>1268.5999755859375</ele>
        <time>2020-08-14T08:58:20.000Z</time>
      </trkpt>
      <trkpt lat="42.39608961157500743865966796875" lon="0.8505128882825374603271484375">
        <ele>1269</ele>
        <time>2020-08-14T08:58:22.000Z</time>
      </trkpt>
      <trkpt lat="42.39604602567851543426513671875" lon="0.85046066902577877044677734375">
        <ele>1269.800048828125</ele>
        <time>2020-08-14T08:58:26.000Z</time>
      </trkpt>
      <trkpt lat="42.39594812504947185516357421875" lon="0.85036578588187694549560546875">
        <ele>1270.800048828125</ele>
        <time>2020-08-14T08:58:31.000Z</time>
      </trkpt>
      <trkpt lat="42.395871765911579132080078125" lon="0.85029043257236480712890625">
        <ele>1271.800048828125</ele>
        <time>2020-08-14T08:58:36.000Z</time>
      </trkpt>
      <trkpt lat="42.39581979811191558837890625" lon="0.85025866515934467315673828125">
        <ele>1272.5999755859375</ele>
        <time>2020-08-14T08:58:39.000Z</time>
      </trkpt>
      <trkpt lat="42.39581979811191558837890625" lon="0.85025866515934467315673828125">
        <ele>1273</ele>
        <time>2020-08-14T08:58:40.000Z</time>
      </trkpt>
      <trkpt lat="42.395712174475193023681640625" lon="0.85019395686686038970947265625">
        <ele>1273.5999755859375</ele>
        <time>2020-08-14T08:58:46.000Z</time>
      </trkpt>
      <trkpt lat="42.3956747911870479583740234375" lon="0.85020401515066623687744140625">
        <ele>1273.800048828125</ele>
        <time>2020-08-14T08:58:47.000Z</time>
      </trkpt>
      <trkpt lat="42.39564503543078899383544921875" lon="0.8502352796494960784912109375">
        <ele>1273.800048828125</ele>
        <time>2020-08-14T08:58:50.000Z</time>
      </trkpt>
      <trkpt lat="42.395630367100238800048828125" lon="0.8502852357923984527587890625">
        <ele>1273.800048828125</ele>
        <time>2020-08-14T08:58:51.000Z</time>
      </trkpt>
      <trkpt lat="42.39562860690057277679443359375" lon="0.8503972180187702178955078125">
        <ele>1274.5999755859375</ele>
        <time>2020-08-14T08:58:55.000Z</time>
      </trkpt>
      <trkpt lat="42.3956327140331268310546875" lon="0.85044407285749912261962890625">
        <ele>1275</ele>
        <time>2020-08-14T08:58:57.000Z</time>
      </trkpt>
      <trkpt lat="42.3956560157239437103271484375" lon="0.850595198571681976318359375">
        <ele>1275.800048828125</ele>
        <time>2020-08-14T08:59:04.000Z</time>
      </trkpt>
      <trkpt lat="42.3956660740077495574951171875" lon="0.85067122243344783782958984375">
        <ele>1276</ele>
        <time>2020-08-14T08:59:06.000Z</time>
      </trkpt>
      <trkpt lat="42.395648472011089324951171875" lon="0.8507951907813549041748046875">
        <ele>1276.800048828125</ele>
        <time>2020-08-14T08:59:11.000Z</time>
      </trkpt>
      <trkpt lat="42.39563179202377796173095703125" lon="0.85084707476198673248291015625">
        <ele>1277</ele>
        <time>2020-08-14T08:59:13.000Z</time>
      </trkpt>
      <trkpt lat="42.3955654911696910858154296875" lon="0.85099853575229644775390625">
        <ele>1277.4000244140625</ele>
        <time>2020-08-14T08:59:19.000Z</time>
      </trkpt>
      <trkpt lat="42.39551645703613758087158203125" lon="0.851159133017063140869140625">
        <ele>1278</ele>
        <time>2020-08-14T08:59:26.000Z</time>
      </trkpt>
      <trkpt lat="42.395497597754001617431640625" lon="0.85121135227382183074951171875">
        <ele>1278.199951171875</ele>
        <time>2020-08-14T08:59:27.000Z</time>
      </trkpt>
      <trkpt lat="42.39546951837837696075439453125" lon="0.8513799123466014862060546875">
        <ele>1279.199951171875</ele>
        <time>2020-08-14T08:59:34.000Z</time>
      </trkpt>
      <trkpt lat="42.395456023514270782470703125" lon="0.8514600433409214019775390625">
        <ele>1279.4000244140625</ele>
        <time>2020-08-14T08:59:36.000Z</time>
      </trkpt>
      <trkpt lat="42.395454011857509613037109375" lon="0.851487703621387481689453125">
        <ele>1279.5999755859375</ele>
        <time>2020-08-14T08:59:37.000Z</time>
      </trkpt>
      <trkpt lat="42.3954449594020843505859375" lon="0.8515975065529346466064453125">
        <ele>1280.4000244140625</ele>
        <time>2020-08-14T08:59:41.000Z</time>
      </trkpt>
      <trkpt lat="42.39544353447854518890380859375" lon="0.85170303471386432647705078125">
        <ele>1281.199951171875</ele>
        <time>2020-08-14T08:59:46.000Z</time>
      </trkpt>
      <trkpt lat="42.395443283021450042724609375" lon="0.85175701417028903961181640625">
        <ele>1281.4000244140625</ele>
        <time>2020-08-14T08:59:47.000Z</time>
      </trkpt>
      <trkpt lat="42.39543766714632511138916015625" lon="0.851981900632381439208984375">
        <ele>1282.199951171875</ele>
        <time>2020-08-14T08:59:56.000Z</time>
      </trkpt>
      <trkpt lat="42.39541470073163509368896484375" lon="0.85202808491885662078857421875">
        <ele>1282.199951171875</ele>
        <time>2020-08-14T08:59:57.000Z</time>
      </trkpt>
      <trkpt lat="42.39541470073163509368896484375" lon="0.85202808491885662078857421875">
        <ele>1282.5999755859375</ele>
        <time>2020-08-14T08:59:58.000Z</time>
      </trkpt>
      <trkpt lat="42.3953814245760440826416015625" lon="0.85205934941768646240234375">
        <ele>1282.5999755859375</ele>
        <time>2020-08-14T08:59:59.000Z</time>
      </trkpt>
      <trkpt lat="42.39536189474165439605712890625" lon="0.85206530056893825531005859375">
        <ele>1283</ele>
        <time>2020-08-14T09:00:00.000Z</time>
      </trkpt>
      <trkpt lat="42.39531193859875202178955078125" lon="0.8520333655178546905517578125">
        <ele>1283.5999755859375</ele>
        <time>2020-08-14T09:00:03.000Z</time>
      </trkpt>
      <trkpt lat="42.395296432077884674072265625" lon="0.85198081098496913909912109375">
        <ele>1283.800048828125</ele>
        <time>2020-08-14T09:00:05.000Z</time>
      </trkpt>
      <trkpt lat="42.39532367326319217681884765625" lon="0.851823985576629638671875">
        <ele>1284.800048828125</ele>
        <time>2020-08-14T09:00:11.000Z</time>
      </trkpt>
      <trkpt lat="42.3953274451196193695068359375" lon="0.85179590620100498199462890625">
        <ele>1284.800048828125</ele>
        <time>2020-08-14T09:00:12.000Z</time>
      </trkpt>
      <trkpt lat="42.39533607847988605499267578125" lon="0.85154009051620960235595703125">
        <ele>1285.800048828125</ele>
        <time>2020-08-14T09:00:21.000Z</time>
      </trkpt>
      <trkpt lat="42.39533607847988605499267578125" lon="0.85154009051620960235595703125">
        <ele>1285.800048828125</ele>
        <time>2020-08-14T09:00:22.000Z</time>
      </trkpt>
      <trkpt lat="42.39531554281711578369140625" lon="0.85136256180703639984130859375">
        <ele>1286.4000244140625</ele>
        <time>2020-08-14T09:00:27.000Z</time>
      </trkpt>
      <trkpt lat="42.39532048813998699188232421875" lon="0.85112116299569606781005859375">
        <ele>1286.800048828125</ele>
        <time>2020-08-14T09:00:35.000Z</time>
      </trkpt>
      <trkpt lat="42.3953282833099365234375" lon="0.85109241306781768798828125">
        <ele>1286.800048828125</ele>
        <time>2020-08-14T09:00:36.000Z</time>
      </trkpt>
      <trkpt lat="42.395381927490234375" lon="0.85088856518268585205078125">
        <ele>1287.5999755859375</ele>
        <time>2020-08-14T09:00:44.000Z</time>
      </trkpt>
      <trkpt lat="42.39541478455066680908203125" lon="0.850778259336948394775390625">
        <ele>1288</ele>
        <time>2020-08-14T09:00:47.000Z</time>
      </trkpt>
      <trkpt lat="42.395419143140316009521484375" lon="0.850717909634113311767578125">
        <ele>1288.4000244140625</ele>
        <time>2020-08-14T09:00:50.000Z</time>
      </trkpt>
      <trkpt lat="42.39538335241377353668212890625" lon="0.85046879947185516357421875">
        <ele>1289</ele>
        <time>2020-08-14T09:00:58.000Z</time>
      </trkpt>
      <trkpt lat="42.39536893554031848907470703125" lon="0.85040970705449581146240234375">
        <ele>1289.199951171875</ele>
        <time>2020-08-14T09:00:59.000Z</time>
      </trkpt>
      <trkpt lat="42.3953133635222911834716796875" lon="0.8501709066331386566162109375">
        <ele>1289.5999755859375</ele>
        <time>2020-08-14T09:01:07.000Z</time>
      </trkpt>
      <trkpt lat="42.3952855356037616729736328125" lon="0.84999647922813892364501953125">
        <ele>1290.199951171875</ele>
        <time>2020-08-14T09:01:13.000Z</time>
      </trkpt>
      <trkpt lat="42.3952627368271350860595703125" lon="0.84986119531095027923583984375">
        <ele>1291</ele>
        <time>2020-08-14T09:01:18.000Z</time>
      </trkpt>
      <trkpt lat="42.39525997079908847808837890625" lon="0.8498336188495159149169921875">
        <ele>1291.199951171875</ele>
        <time>2020-08-14T09:01:19.000Z</time>
      </trkpt>
      <trkpt lat="42.39522392861545085906982421875" lon="0.8496810682117938995361328125">
        <ele>1292.199951171875</ele>
        <time>2020-08-14T09:01:25.000Z</time>
      </trkpt>
      <trkpt lat="42.39522392861545085906982421875" lon="0.8496810682117938995361328125">
        <ele>1292.4000244140625</ele>
        <time>2020-08-14T09:01:26.000Z</time>
      </trkpt>
      <trkpt lat="42.3952221684157848358154296875" lon="0.84955525584518909454345703125">
        <ele>1293.4000244140625</ele>
        <time>2020-08-14T09:01:30.000Z</time>
      </trkpt>
      <trkpt lat="42.39523868076503276824951171875" lon="0.84951259195804595947265625">
        <ele>1294</ele>
        <time>2020-08-14T09:01:32.000Z</time>
      </trkpt>
      <trkpt lat="42.39528511650860309600830078125" lon="0.84948602132499217987060546875">
        <ele>1294.5999755859375</ele>
        <time>2020-08-14T09:01:35.000Z</time>
      </trkpt>
      <trkpt lat="42.3953220807015895843505859375" lon="0.8494889549911022186279296875">
        <ele>1294.800048828125</ele>
        <time>2020-08-14T09:01:37.000Z</time>
      </trkpt>
      <trkpt lat="42.39543029107153415679931640625" lon="0.84950856864452362060546875">
        <ele>1295.5999755859375</ele>
        <time>2020-08-14T09:01:43.000Z</time>
      </trkpt>
      <trkpt lat="42.39546013064682483673095703125" lon="0.8495174534618854522705078125">
        <ele>1296.199951171875</ele>
        <time>2020-08-14T09:01:46.000Z</time>
      </trkpt>
      <trkpt lat="42.3955272696912288665771484375" lon="0.8495288528501987457275390625">
        <ele>1296.5999755859375</ele>
        <time>2020-08-14T09:01:49.000Z</time>
      </trkpt>
      <trkpt lat="42.39558552391827106475830078125" lon="0.8495469577610492706298828125">
        <ele>1297.5999755859375</ele>
        <time>2020-08-14T09:01:53.000Z</time>
      </trkpt>
      <trkpt lat="42.39560027606785297393798828125" lon="0.84954787977039813995361328125">
        <ele>1297.800048828125</ele>
        <time>2020-08-14T09:01:54.000Z</time>
      </trkpt>
      <trkpt lat="42.39569901488721370697021484375" lon="0.849555172026157379150390625">
        <ele>1298.800048828125</ele>
        <time>2020-08-14T09:02:00.000Z</time>
      </trkpt>
      <trkpt lat="42.39571678452193737030029296875" lon="0.84955860860645771026611328125">
        <ele>1299</ele>
        <time>2020-08-14T09:02:01.000Z</time>
      </trkpt>
      <trkpt lat="42.39580244757235050201416015625" lon="0.849587023258209228515625">
        <ele>1300</ele>
        <time>2020-08-14T09:02:06.000Z</time>
      </trkpt>
      <trkpt lat="42.39581552334129810333251953125" lon="0.849594734609127044677734375">
        <ele>1300</ele>
        <time>2020-08-14T09:02:07.000Z</time>
      </trkpt>
      <trkpt lat="42.39589213393628597259521484375" lon="0.849603116512298583984375">
        <ele>1301</ele>
        <time>2020-08-14T09:02:12.000Z</time>
      </trkpt>
      <trkpt lat="42.3959076404571533203125" lon="0.84961074404418468475341796875">
        <ele>1301.5999755859375</ele>
        <time>2020-08-14T09:02:14.000Z</time>
      </trkpt>
      <trkpt lat="42.3959738574922084808349609375" lon="0.8496401645243167877197265625">
        <ele>1302.199951171875</ele>
        <time>2020-08-14T09:02:17.000Z</time>
      </trkpt>
      <trkpt lat="42.39604267291724681854248046875" lon="0.84965315647423267364501953125">
        <ele>1303</ele>
        <time>2020-08-14T09:02:21.000Z</time>
      </trkpt>
      <trkpt lat="42.39604267291724681854248046875" lon="0.84965315647423267364501953125">
        <ele>1303.199951171875</ele>
        <time>2020-08-14T09:02:22.000Z</time>
      </trkpt>
      <trkpt lat="42.39612900651991367340087890625" lon="0.84970705211162567138671875">
        <ele>1304.4000244140625</ele>
        <time>2020-08-14T09:02:27.000Z</time>
      </trkpt>
      <trkpt lat="42.39612900651991367340087890625" lon="0.84970705211162567138671875">
        <ele>1304.4000244140625</ele>
        <time>2020-08-14T09:02:28.000Z</time>
      </trkpt>
      <trkpt lat="42.39616236649453639984130859375" lon="0.84971132688224315643310546875">
        <ele>1304.5999755859375</ele>
        <time>2020-08-14T09:02:29.000Z</time>
      </trkpt>
      <trkpt lat="42.39619103260338306427001953125" lon="0.84974183700978755950927734375">
        <ele>1305.199951171875</ele>
        <time>2020-08-14T09:02:32.000Z</time>
      </trkpt>
      <trkpt lat="42.3962534777820110321044921875" lon="0.84978072904050350189208984375">
        <ele>1306</ele>
        <time>2020-08-14T09:02:35.000Z</time>
      </trkpt>
      <trkpt lat="42.39628775976598262786865234375" lon="0.84978207014501094818115234375">
        <ele>1306.4000244140625</ele>
        <time>2020-08-14T09:02:37.000Z</time>
      </trkpt>
      <trkpt lat="42.3963885940611362457275390625" lon="0.84980084560811519622802734375">
        <ele>1307.4000244140625</ele>
        <time>2020-08-14T09:02:44.000Z</time>
      </trkpt>
      <trkpt lat="42.39642304368317127227783203125" lon="0.8498047851026058197021484375">
        <ele>1307.5999755859375</ele>
        <time>2020-08-14T09:02:46.000Z</time>
      </trkpt>
      <trkpt lat="42.3964636959135532379150390625" lon="0.84979883395135402679443359375">
        <ele>1308</ele>
        <time>2020-08-14T09:02:48.000Z</time>
      </trkpt>
      <trkpt lat="42.396475933492183685302734375" lon="0.849787183105945587158203125">
        <ele>1308.5999755859375</ele>
        <time>2020-08-14T09:02:50.000Z</time>
      </trkpt>
      <trkpt lat="42.39649462513625621795654296875" lon="0.8497534878551959991455078125">
        <ele>1308.800048828125</ele>
        <time>2020-08-14T09:02:51.000Z</time>
      </trkpt>
      <trkpt lat="42.396544329822063446044921875" lon="0.849645026028156280517578125">
        <ele>1310</ele>
        <time>2020-08-14T09:02:58.000Z</time>
      </trkpt>
      <trkpt lat="42.396549023687839508056640625" lon="0.84959196858108043670654296875">
        <ele>1310</ele>
        <time>2020-08-14T09:03:00.000Z</time>
      </trkpt>
      <trkpt lat="42.396542988717555999755859375" lon="0.84952910430729389190673828125">
        <ele>1310.800048828125</ele>
        <time>2020-08-14T09:03:04.000Z</time>
      </trkpt>
      <trkpt lat="42.3965347744524478912353515625" lon="0.84948845207691192626953125">
        <ele>1311</ele>
        <time>2020-08-14T09:03:05.000Z</time>
      </trkpt>
      <trkpt lat="42.39651985466480255126953125" lon="0.84945115260779857635498046875">
        <ele>1311.199951171875</ele>
        <time>2020-08-14T09:03:08.000Z</time>
      </trkpt>
      <trkpt lat="42.39650049246847629547119140625" lon="0.84942097775638103485107421875">
        <ele>1311.199951171875</ele>
        <time>2020-08-14T09:03:09.000Z</time>
      </trkpt>
      <trkpt lat="42.3964509554207324981689453125" lon="0.8493818342685699462890625">
        <ele>1312</ele>
        <time>2020-08-14T09:03:14.000Z</time>
      </trkpt>
      <trkpt lat="42.3964239656925201416015625" lon="0.84936599247157573699951171875">
        <ele>1312.199951171875</ele>
        <time>2020-08-14T09:03:15.000Z</time>
      </trkpt>
      <trkpt lat="42.3963869176805019378662109375" lon="0.84933062084019184112548828125">
        <ele>1313.4000244140625</ele>
        <time>2020-08-14T09:03:18.000Z</time>
      </trkpt>
      <trkpt lat="42.3963530547916889190673828125" lon="0.84926784038543701171875">
        <ele>1313.800048828125</ele>
        <time>2020-08-14T09:03:22.000Z</time>
      </trkpt>
      <trkpt lat="42.39633386023342609405517578125" lon="0.84922433830797672271728515625">
        <ele>1314.199951171875</ele>
        <time>2020-08-14T09:03:25.000Z</time>
      </trkpt>
      <trkpt lat="42.396284155547618865966796875" lon="0.84916616789996623992919921875">
        <ele>1315.4000244140625</ele>
        <time>2020-08-14T09:03:30.000Z</time>
      </trkpt>
      <trkpt lat="42.39622212946414947509765625" lon="0.84914781153202056884765625">
        <ele>1316.5999755859375</ele>
        <time>2020-08-14T09:03:35.000Z</time>
      </trkpt>
      <trkpt lat="42.396189607679843902587890625" lon="0.84914202801883220672607421875">
        <ele>1316.800048828125</ele>
        <time>2020-08-14T09:03:37.000Z</time>
      </trkpt>
      <trkpt lat="42.3960687406361103057861328125" lon="0.8491094224154949188232421875">
        <ele>1317.5999755859375</ele>
        <time>2020-08-14T09:03:45.000Z</time>
      </trkpt>
      <trkpt lat="42.396053485572338104248046875" lon="0.84910489618778228759765625">
        <ele>1317.800048828125</ele>
        <time>2020-08-14T09:03:46.000Z</time>
      </trkpt>
      <trkpt lat="42.39593446254730224609375" lon="0.84904999472200870513916015625">
        <ele>1318.4000244140625</ele>
        <time>2020-08-14T09:03:54.000Z</time>
      </trkpt>
      <trkpt lat="42.39589079283177852630615234375" lon="0.8490292914211750030517578125">
        <ele>1318.800048828125</ele>
        <time>2020-08-14T09:03:58.000Z</time>
      </trkpt>
      <trkpt lat="42.39579607732594013214111328125" lon="0.84903976880013942718505859375">
        <ele>1319</ele>
        <time>2020-08-14T09:04:03.000Z</time>
      </trkpt>
      <trkpt lat="42.39575282670557498931884765625" lon="0.8490460552275180816650390625">
        <ele>1319.800048828125</ele>
        <time>2020-08-14T09:04:06.000Z</time>
      </trkpt>
      <trkpt lat="42.3956999368965625762939453125" lon="0.84906290285289287567138671875">
        <ele>1320.5999755859375</ele>
        <time>2020-08-14T09:04:10.000Z</time>
      </trkpt>
      <trkpt lat="42.39568761549890041351318359375" lon="0.84907002747058868408203125">
        <ele>1320.800048828125</ele>
        <time>2020-08-14T09:04:11.000Z</time>
      </trkpt>
      <trkpt lat="42.39560429938137531280517578125" lon="0.84909123368561267852783203125">
        <ele>1321.199951171875</ele>
        <time>2020-08-14T09:04:17.000Z</time>
      </trkpt>
      <trkpt lat="42.39556188695132732391357421875" lon="0.8490192331373691558837890625">
        <ele>1321.800048828125</ele>
        <time>2020-08-14T09:04:22.000Z</time>
      </trkpt>
      <trkpt lat="42.39556775428354740142822265625" lon="0.84900238551199436187744140625">
        <ele>1321.800048828125</ele>
        <time>2020-08-14T09:04:23.000Z</time>
      </trkpt>
      <trkpt lat="42.39557647146284580230712890625" lon="0.84898822009563446044921875">
        <ele>1322.199951171875</ele>
        <time>2020-08-14T09:04:24.000Z</time>
      </trkpt>
      <trkpt lat="42.3956432752311229705810546875" lon="0.84893432445824146270751953125">
        <ele>1323</ele>
        <time>2020-08-14T09:04:30.000Z</time>
      </trkpt>
      <trkpt lat="42.39574008621275424957275390625" lon="0.8489097654819488525390625">
        <ele>1324</ele>
        <time>2020-08-14T09:04:37.000Z</time>
      </trkpt>
      <trkpt lat="42.39575182087719440460205078125" lon="0.84890632890164852142333984375">
        <ele>1324.4000244140625</ele>
        <time>2020-08-14T09:04:38.000Z</time>
      </trkpt>
      <trkpt lat="42.3957730270922183990478515625" lon="0.8489069156348705291748046875">
        <ele>1324.5999755859375</ele>
        <time>2020-08-14T09:04:40.000Z</time>
      </trkpt>
      <trkpt lat="42.39581175148487091064453125" lon="0.848912112414836883544921875">
        <ele>1325</ele>
        <time>2020-08-14T09:04:43.000Z</time>
      </trkpt>
      <trkpt lat="42.39582692272961139678955078125" lon="0.8489106036722660064697265625">
        <ele>1325.199951171875</ele>
        <time>2020-08-14T09:04:44.000Z</time>
      </trkpt>
      <trkpt lat="42.39592247642576694488525390625" lon="0.8489028923213481903076171875">
        <ele>1325.800048828125</ele>
        <time>2020-08-14T09:04:50.000Z</time>
      </trkpt>
      <trkpt lat="42.39593639038503170013427734375" lon="0.84889660589396953582763671875">
        <ele>1326.199951171875</ele>
        <time>2020-08-14T09:04:51.000Z</time>
      </trkpt>
      <trkpt lat="42.3959894478321075439453125" lon="0.8488589711487293243408203125">
        <ele>1327.199951171875</ele>
        <time>2020-08-14T09:04:55.000Z</time>
      </trkpt>
      <trkpt lat="42.3960120789706707000732421875" lon="0.8488346636295318603515625">
        <ele>1327.800048828125</ele>
        <time>2020-08-14T09:04:57.000Z</time>
      </trkpt>
      <trkpt lat="42.39604300819337368011474609375" lon="0.84877037443220615386962890625">
        <ele>1328.199951171875</ele>
        <time>2020-08-14T09:05:01.000Z</time>
      </trkpt>
      <trkpt lat="42.396065555512905120849609375" lon="0.84868915379047393798828125">
        <ele>1328.800048828125</ele>
        <time>2020-08-14T09:05:05.000Z</time>
      </trkpt>
      <trkpt lat="42.3960680700838565826416015625" lon="0.84865118376910686492919921875">
        <ele>1329.199951171875</ele>
        <time>2020-08-14T09:05:08.000Z</time>
      </trkpt>
      <trkpt lat="42.39607720635831356048583984375" lon="0.84855294786393642425537109375">
        <ele>1330.199951171875</ele>
        <time>2020-08-14T09:05:12.000Z</time>
      </trkpt>
      <trkpt lat="42.39607854746282100677490234375" lon="0.84851589985191822052001953125">
        <ele>1330.4000244140625</ele>
        <time>2020-08-14T09:05:14.000Z</time>
      </trkpt>
      <trkpt lat="42.3960912041366100311279296875" lon="0.848402492702007293701171875">
        <ele>1331.199951171875</ele>
        <time>2020-08-14T09:05:20.000Z</time>
      </trkpt>
      <trkpt lat="42.39609229378402233123779296875" lon="0.8483835496008396148681640625">
        <ele>1331.4000244140625</ele>
        <time>2020-08-14T09:05:21.000Z</time>
      </trkpt>
      <trkpt lat="42.3961066268384456634521484375" lon="0.84827005863189697265625">
        <ele>1332</ele>
        <time>2020-08-14T09:05:27.000Z</time>
      </trkpt>
      <trkpt lat="42.3961128294467926025390625" lon="0.84823141805827617645263671875">
        <ele>1332.5999755859375</ele>
        <time>2020-08-14T09:05:29.000Z</time>
      </trkpt>
      <trkpt lat="42.39616312086582183837890625" lon="0.84807970561087131500244140625">
        <ele>1333.4000244140625</ele>
        <time>2020-08-14T09:05:37.000Z</time>
      </trkpt>
      <trkpt lat="42.3961934633553028106689453125" lon="0.848035700619220733642578125">
        <ele>1334.5999755859375</ele>
        <time>2020-08-14T09:05:40.000Z</time>
      </trkpt>
      <trkpt lat="42.39620813168585300445556640625" lon="0.8479621075093746185302734375">
        <ele>1334.800048828125</ele>
        <time>2020-08-14T09:05:44.000Z</time>
      </trkpt>
      <trkpt lat="42.396186925470829010009765625" lon="0.8479118160903453826904296875">
        <ele>1335.800048828125</ele>
        <time>2020-08-14T09:05:47.000Z</time>
      </trkpt>
      <trkpt lat="42.39614459685981273651123046875" lon="0.8478876762092113494873046875">
        <ele>1336.5999755859375</ele>
        <time>2020-08-14T09:05:50.000Z</time>
      </trkpt>
      <trkpt lat="42.396131940186023712158203125" lon="0.84788960404694080352783203125">
        <ele>1336.800048828125</ele>
        <time>2020-08-14T09:05:51.000Z</time>
      </trkpt>
      <trkpt lat="42.39611995406448841094970703125" lon="0.8478984050452709197998046875">
        <ele>1336.800048828125</ele>
        <time>2020-08-14T09:05:52.000Z</time>
      </trkpt>
      <trkpt lat="42.39608609117567539215087890625" lon="0.847937799990177154541015625">
        <ele>1337</ele>
        <time>2020-08-14T09:05:55.000Z</time>
      </trkpt>
      <trkpt lat="42.3960368894040584564208984375" lon="0.8480392210185527801513671875">
        <ele>1338</ele>
        <time>2020-08-14T09:06:01.000Z</time>
      </trkpt>
      <trkpt lat="42.39603177644312381744384765625" lon="0.84805707447230815887451171875">
        <ele>1338.199951171875</ele>
        <time>2020-08-14T09:06:02.000Z</time>
      </trkpt>
      <trkpt lat="42.3960281722247600555419921875" lon="0.84807685576379299163818359375">
        <ele>1338.199951171875</ele>
        <time>2020-08-14T09:06:03.000Z</time>
      </trkpt>
      <trkpt lat="42.39601249806582927703857421875" lon="0.84814944304525852203369140625">
        <ele>1338.800048828125</ele>
        <time>2020-08-14T09:06:07.000Z</time>
      </trkpt>
      <trkpt lat="42.39600193686783313751220703125" lon="0.84818816743791103363037109375">
        <ele>1339.199951171875</ele>
        <time>2020-08-14T09:06:09.000Z</time>
      </trkpt>
      <trkpt lat="42.39598986692726612091064453125" lon="0.8482273109257221221923828125">
        <ele>1339.4000244140625</ele>
        <time>2020-08-14T09:06:11.000Z</time>
      </trkpt>
      <trkpt lat="42.3959523998200893402099609375" lon="0.84834457375109195709228515625">
        <ele>1340</ele>
        <time>2020-08-14T09:06:17.000Z</time>
      </trkpt>
      <trkpt lat="42.39594594575464725494384765625" lon="0.848361589014530181884765625">
        <ele>1340.199951171875</ele>
        <time>2020-08-14T09:06:18.000Z</time>
      </trkpt>
      <trkpt lat="42.39591627381742000579833984375" lon="0.84848170168697834014892578125">
        <ele>1340.5999755859375</ele>
        <time>2020-08-14T09:06:24.000Z</time>
      </trkpt>
      <trkpt lat="42.3958940617740154266357421875" lon="0.848539285361766815185546875">
        <ele>1341.199951171875</ele>
        <time>2020-08-14T09:06:27.000Z</time>
      </trkpt>
      <trkpt lat="42.3958534933626651763916015625" lon="0.8485796861350536346435546875">
        <ele>1341.5999755859375</ele>
        <time>2020-08-14T09:06:30.000Z</time>
      </trkpt>
      <trkpt lat="42.3958042077720165252685546875" lon="0.8485860563814640045166015625">
        <ele>1342.199951171875</ele>
        <time>2020-08-14T09:06:33.000Z</time>
      </trkpt>
      <trkpt lat="42.395765148103237152099609375" lon="0.848558060824871063232421875">
        <ele>1342.4000244140625</ele>
        <time>2020-08-14T09:06:36.000Z</time>
      </trkpt>
      <trkpt lat="42.3957485519349575042724609375" lon="0.84847725927829742431640625">
        <ele>1343</ele>
        <time>2020-08-14T09:06:40.000Z</time>
      </trkpt>
      <trkpt lat="42.39575433544814586639404296875" lon="0.8484589867293834686279296875">
        <ele>1343.4000244140625</ele>
        <time>2020-08-14T09:06:41.000Z</time>
      </trkpt>
      <trkpt lat="42.3958043754100799560546875" lon="0.84838715381920337677001953125">
        <ele>1344.4000244140625</ele>
        <time>2020-08-14T09:06:46.000Z</time>
      </trkpt>
      <trkpt lat="42.39584368653595447540283203125" lon="0.84835345856845378875732421875">
        <ele>1344.5999755859375</ele>
        <time>2020-08-14T09:06:49.000Z</time>
      </trkpt>
      <trkpt lat="42.39590034820139408111572265625" lon="0.8482299931347370147705078125">
        <ele>1345.5999755859375</ele>
        <time>2020-08-14T09:06:56.000Z</time>
      </trkpt>
      <trkpt lat="42.39591962657868862152099609375" lon="0.84808507002890110015869140625">
        <ele>1346.5999755859375</ele>
        <time>2020-08-14T09:07:03.000Z</time>
      </trkpt>
      <trkpt lat="42.39590789191424846649169921875" lon="0.84796638227999210357666015625">
        <ele>1347.5999755859375</ele>
        <time>2020-08-14T09:07:09.000Z</time>
      </trkpt>
      <trkpt lat="42.39590353332459926605224609375" lon="0.847927741706371307373046875">
        <ele>1348</ele>
        <time>2020-08-14T09:07:11.000Z</time>
      </trkpt>
      <trkpt lat="42.3958967439830303192138671875" lon="0.8478732593357563018798828125">
        <ele>1348.800048828125</ele>
        <time>2020-08-14T09:07:14.000Z</time>
      </trkpt>
      <trkpt lat="42.39589230157434940338134765625" lon="0.84785138256847858428955078125">
        <ele>1349.199951171875</ele>
        <time>2020-08-14T09:07:17.000Z</time>
      </trkpt>
      <trkpt lat="42.39589146338403224945068359375" lon="0.84785163402557373046875">
        <ele>1349.4000244140625</ele>
        <time>2020-08-14T09:07:19.000Z</time>
      </trkpt>
      <trkpt lat="42.39589246921241283416748046875" lon="0.8478462696075439453125">
        <ele>1349.199951171875</ele>
        <time>2020-08-14T09:09:26.000Z</time>
      </trkpt>
      <trkpt lat="42.395898588001728057861328125" lon="0.84778415970504283905029296875">
        <ele>1349.199951171875</ele>
        <time>2020-08-14T09:09:31.000Z</time>
      </trkpt>
      <trkpt lat="42.39589079283177852630615234375" lon="0.84770679473876953125">
        <ele>1349.4000244140625</ele>
        <time>2020-08-14T09:09:35.000Z</time>
      </trkpt>
      <trkpt lat="42.395884506404399871826171875" lon="0.84764854051172733306884765625">
        <ele>1350.199951171875</ele>
        <time>2020-08-14T09:09:38.000Z</time>
      </trkpt>
      <trkpt lat="42.39588106982409954071044921875" lon="0.84760964848101139068603515625">
        <ele>1350.5999755859375</ele>
        <time>2020-08-14T09:09:40.000Z</time>
      </trkpt>
      <trkpt lat="42.39585793577134609222412109375" lon="0.847457684576511383056640625">
        <ele>1351.5999755859375</ele>
        <time>2020-08-14T09:09:48.000Z</time>
      </trkpt>
      <trkpt lat="42.3958565108478069305419921875" lon="0.84743748418986797332763671875">
        <ele>1351.5999755859375</ele>
        <time>2020-08-14T09:09:49.000Z</time>
      </trkpt>
      <trkpt lat="42.395840585231781005859375" lon="0.847306139767169952392578125">
        <ele>1352.5999755859375</ele>
        <time>2020-08-14T09:09:56.000Z</time>
      </trkpt>
      <trkpt lat="42.39581434987485408782958984375" lon="0.8472000248730182647705078125">
        <ele>1353.5999755859375</ele>
        <time>2020-08-14T09:10:02.000Z</time>
      </trkpt>
      <trkpt lat="42.39580110646784305572509765625" lon="0.84716624580323696136474609375">
        <ele>1354</ele>
        <time>2020-08-14T09:10:04.000Z</time>
      </trkpt>
      <trkpt lat="42.39574142731726169586181640625" lon="0.8470753021538257598876953125">
        <ele>1354.5999755859375</ele>
        <time>2020-08-14T09:10:10.000Z</time>
      </trkpt>
      <trkpt lat="42.3957207240164279937744140625" lon="0.847045965492725372314453125">
        <ele>1355</ele>
        <time>2020-08-14T09:10:12.000Z</time>
      </trkpt>
      <trkpt lat="42.395676635205745697021484375" lon="0.84699542261660099029541015625">
        <ele>1355.800048828125</ele>
        <time>2020-08-14T09:10:16.000Z</time>
      </trkpt>
      <trkpt lat="42.39563330076634883880615234375" lon="0.8469472266733646392822265625">
        <ele>1356.5999755859375</ele>
        <time>2020-08-14T09:10:20.000Z</time>
      </trkpt>
      <trkpt lat="42.39561033435165882110595703125" lon="0.84692518226802349090576171875">
        <ele>1357</ele>
        <time>2020-08-14T09:10:22.000Z</time>
      </trkpt>
      <trkpt lat="42.395563982427120208740234375" lon="0.84686256945133209228515625">
        <ele>1357.800048828125</ele>
        <time>2020-08-14T09:10:27.000Z</time>
      </trkpt>
      <trkpt lat="42.39555719308555126190185546875" lon="0.8468473143875598907470703125">
        <ele>1358</ele>
        <time>2020-08-14T09:10:28.000Z</time>
      </trkpt>
      <trkpt lat="42.3955349810421466827392578125" lon="0.8467785827815532684326171875">
        <ele>1358.199951171875</ele>
        <time>2020-08-14T09:10:32.000Z</time>
      </trkpt>
      <trkpt lat="42.39553959108889102935791015625" lon="0.8467463962733745574951171875">
        <ele>1358.5999755859375</ele>
        <time>2020-08-14T09:10:34.000Z</time>
      </trkpt>
      <trkpt lat="42.3955510742962360382080078125" lon="0.84671345539391040802001953125">
        <ele>1359</ele>
        <time>2020-08-14T09:10:36.000Z</time>
      </trkpt>
      <trkpt lat="42.3955567739903926849365234375" lon="0.846675150096416473388671875">
        <ele>1359.199951171875</ele>
        <time>2020-08-14T09:10:38.000Z</time>
      </trkpt>
      <trkpt lat="42.3955602943897247314453125" lon="0.84661823697388172149658203125">
        <ele>1360</ele>
        <time>2020-08-14T09:10:41.000Z</time>
      </trkpt>
      <trkpt lat="42.3955601267516613006591796875" lon="0.8465982042253017425537109375">
        <ele>1360.199951171875</ele>
        <time>2020-08-14T09:10:42.000Z</time>
      </trkpt>
      <trkpt lat="42.39551695995032787322998046875" lon="0.84648706018924713134765625">
        <ele>1361.199951171875</ele>
        <time>2020-08-14T09:10:49.000Z</time>
      </trkpt>
      <trkpt lat="42.39550271071493625640869140625" lon="0.84648110903799533843994140625">
        <ele>1361.4000244140625</ele>
        <time>2020-08-14T09:10:50.000Z</time>
      </trkpt>
      <trkpt lat="42.39547437988221645355224609375" lon="0.84648194722831249237060546875">
        <ele>1361.800048828125</ele>
        <time>2020-08-14T09:10:52.000Z</time>
      </trkpt>
      <trkpt lat="42.3954434506595134735107421875" lon="0.84652050398290157318115234375">
        <ele>1362.199951171875</ele>
        <time>2020-08-14T09:10:55.000Z</time>
      </trkpt>
      <trkpt lat="42.39542157389223575592041015625" lon="0.84662762470543384552001953125">
        <ele>1362.5999755859375</ele>
        <time>2020-08-14T09:11:00.000Z</time>
      </trkpt>
      <trkpt lat="42.3954226635396480560302734375" lon="0.84665360860526561737060546875">
        <ele>1362.5999755859375</ele>
        <time>2020-08-14T09:11:01.000Z</time>
      </trkpt>
      <trkpt lat="42.39542593248188495635986328125" lon="0.846847482025623321533203125">
        <ele>1363.199951171875</ele>
        <time>2020-08-14T09:11:08.000Z</time>
      </trkpt>
      <trkpt lat="42.395427860319614410400390625" lon="0.84689953364431858062744140625">
        <ele>1363.5999755859375</ele>
        <time>2020-08-14T09:11:10.000Z</time>
      </trkpt>
      <trkpt lat="42.39546163938939571380615234375" lon="0.84700682200491428375244140625">
        <ele>1363.800048828125</ele>
        <time>2020-08-14T09:11:15.000Z</time>
      </trkpt>
      <trkpt lat="42.39551310427486896514892578125" lon="0.8470697700977325439453125">
        <ele>1364.5999755859375</ele>
        <time>2020-08-14T09:11:19.000Z</time>
      </trkpt>
      <trkpt lat="42.395561300218105316162109375" lon="0.8471556007862091064453125">
        <ele>1365</ele>
        <time>2020-08-14T09:11:24.000Z</time>
      </trkpt>
      <trkpt lat="42.39558376371860504150390625" lon="0.8472379110753536224365234375">
        <ele>1365.800048828125</ele>
        <time>2020-08-14T09:11:28.000Z</time>
      </trkpt>
      <trkpt lat="42.39558921195566654205322265625" lon="0.84734075702726840972900390625">
        <ele>1366.199951171875</ele>
        <time>2020-08-14T09:11:33.000Z</time>
      </trkpt>
      <trkpt lat="42.3955675028264522552490234375" lon="0.8474219776690006256103515625">
        <ele>1366.800048828125</ele>
        <time>2020-08-14T09:11:37.000Z</time>
      </trkpt>
      <trkpt lat="42.39552131853997707366943359375" lon="0.84753907285630702972412109375">
        <ele>1367.800048828125</ele>
        <time>2020-08-14T09:11:43.000Z</time>
      </trkpt>
      <trkpt lat="42.3954796604812145233154296875" lon="0.847709476947784423828125">
        <ele>1368.5999755859375</ele>
        <time>2020-08-14T09:11:51.000Z</time>
      </trkpt>
      <trkpt lat="42.3954664170742034912109375" lon="0.8477525599300861358642578125">
        <ele>1368.800048828125</ele>
        <time>2020-08-14T09:11:53.000Z</time>
      </trkpt>
      <trkpt lat="42.39545560441911220550537109375" lon="0.84777108393609523773193359375">
        <ele>1369</ele>
        <time>2020-08-14T09:11:54.000Z</time>
      </trkpt>
      <trkpt lat="42.39540816284716129302978515625" lon="0.8478100597858428955078125">
        <ele>1369.4000244140625</ele>
        <time>2020-08-14T09:11:57.000Z</time>
      </trkpt>
      <trkpt lat="42.39535720087587833404541015625" lon="0.84780612029135227203369140625">
        <ele>1370.199951171875</ele>
        <time>2020-08-14T09:12:00.000Z</time>
      </trkpt>
      <trkpt lat="42.39533138461410999298095703125" lon="0.8477783761918544769287109375">
        <ele>1370.5999755859375</ele>
        <time>2020-08-14T09:12:02.000Z</time>
      </trkpt>
      <trkpt lat="42.39528964273631572723388671875" lon="0.8476385660469532012939453125">
        <ele>1371.199951171875</ele>
        <time>2020-08-14T09:12:09.000Z</time>
      </trkpt>
      <trkpt lat="42.3952446319162845611572265625" lon="0.84753387607634067535400390625">
        <ele>1372.4000244140625</ele>
        <time>2020-08-14T09:12:15.000Z</time>
      </trkpt>
      <trkpt lat="42.39523231051862239837646484375" lon="0.84751996211707592010498046875">
        <ele>1372.4000244140625</ele>
        <time>2020-08-14T09:12:16.000Z</time>
      </trkpt>
      <trkpt lat="42.395149581134319305419921875" lon="0.84742256440222263336181640625">
        <ele>1373.199951171875</ele>
        <time>2020-08-14T09:12:23.000Z</time>
      </trkpt>
      <trkpt lat="42.3951316438615322113037109375" lon="0.847387276589870452880859375">
        <ele>1373.5999755859375</ele>
        <time>2020-08-14T09:12:25.000Z</time>
      </trkpt>
      <trkpt lat="42.3951105214655399322509765625" lon="0.84733170457184314727783203125">
        <ele>1374.4000244140625</ele>
        <time>2020-08-14T09:12:28.000Z</time>
      </trkpt>
      <trkpt lat="42.39507288672029972076416015625" lon="0.847226679325103759765625">
        <ele>1375.199951171875</ele>
        <time>2020-08-14T09:12:34.000Z</time>
      </trkpt>
      <trkpt lat="42.39503852091729640960693359375" lon="0.84716565907001495361328125">
        <ele>1375.4000244140625</ele>
        <time>2020-08-14T09:12:38.000Z</time>
      </trkpt>
      <trkpt lat="42.39499024115502834320068359375" lon="0.847079493105411529541015625">
        <ele>1376.5999755859375</ele>
        <time>2020-08-14T09:12:44.000Z</time>
      </trkpt>
      <trkpt lat="42.3949629999697208404541015625" lon="0.84703691303730010986328125">
        <ele>1377.5999755859375</ele>
        <time>2020-08-14T09:12:47.000Z</time>
      </trkpt>
      <trkpt lat="42.3949261195957660675048828125" lon="0.8469478972256183624267578125">
        <ele>1378.4000244140625</ele>
        <time>2020-08-14T09:12:52.000Z</time>
      </trkpt>
      <trkpt lat="42.394900806248188018798828125" lon="0.84689450450241565704345703125">
        <ele>1378.800048828125</ele>
        <time>2020-08-14T09:12:55.000Z</time>
      </trkpt>
      <trkpt lat="42.39485646598041057586669921875" lon="0.8467881381511688232421875">
        <ele>1379.800048828125</ele>
        <time>2020-08-14T09:13:01.000Z</time>
      </trkpt>
      <trkpt lat="42.39481522701680660247802734375" lon="0.84664019756019115447998046875">
        <ele>1380.800048828125</ele>
        <time>2020-08-14T09:13:08.000Z</time>
      </trkpt>
      <trkpt lat="42.39480718038976192474365234375" lon="0.8466210030019283294677734375">
        <ele>1380.800048828125</ele>
        <time>2020-08-14T09:13:09.000Z</time>
      </trkpt>
      <trkpt lat="42.394732497632503509521484375" lon="0.8465767465531826019287109375">
        <ele>1381.800048828125</ele>
        <time>2020-08-14T09:13:14.000Z</time>
      </trkpt>
      <trkpt lat="42.39471682347357273101806640625" lon="0.84658470936119556427001953125">
        <ele>1382</ele>
        <time>2020-08-14T09:13:15.000Z</time>
      </trkpt>
      <trkpt lat="42.39468245767056941986083984375" lon="0.8466555364429950714111328125">
        <ele>1382.800048828125</ele>
        <time>2020-08-14T09:13:19.000Z</time>
      </trkpt>
      <trkpt lat="42.39468882791697978973388671875" lon="0.8466974459588527679443359375">
        <ele>1383</ele>
        <time>2020-08-14T09:13:21.000Z</time>
      </trkpt>
      <trkpt lat="42.39469553343951702117919921875" lon="0.846718735992908477783203125">
        <ele>1383.199951171875</ele>
        <time>2020-08-14T09:13:22.000Z</time>
      </trkpt>
      <trkpt lat="42.39472537301480770111083984375" lon="0.84679928608238697052001953125">
        <ele>1383.5999755859375</ele>
        <time>2020-08-14T09:13:26.000Z</time>
      </trkpt>
      <trkpt lat="42.39474750123918056488037109375" lon="0.84685712121427059173583984375">
        <ele>1384.199951171875</ele>
        <time>2020-08-14T09:13:29.000Z</time>
      </trkpt>
      <trkpt lat="42.394756637513637542724609375" lon="0.84696189500391483306884765625">
        <ele>1385.199951171875</ele>
        <time>2020-08-14T09:13:34.000Z</time>
      </trkpt>
      <trkpt lat="42.39474163390696048736572265625" lon="0.84710237570106983184814453125">
        <ele>1386.199951171875</ele>
        <time>2020-08-14T09:13:41.000Z</time>
      </trkpt>
      <trkpt lat="42.3947420530021190643310546875" lon="0.84712265990674495697021484375">
        <ele>1386.4000244140625</ele>
        <time>2020-08-14T09:13:42.000Z</time>
      </trkpt>
      <trkpt lat="42.39471816457808017730712890625" lon="0.84725794382393360137939453125">
        <ele>1386.800048828125</ele>
        <time>2020-08-14T09:13:49.000Z</time>
      </trkpt>
      <trkpt lat="42.3947071842849254608154296875" lon="0.8472955785691738128662109375">
        <ele>1387.4000244140625</ele>
        <time>2020-08-14T09:13:51.000Z</time>
      </trkpt>
      <trkpt lat="42.39467985928058624267578125" lon="0.8473847620189189910888671875">
        <ele>1388.4000244140625</ele>
        <time>2020-08-14T09:13:56.000Z</time>
      </trkpt>
      <trkpt lat="42.39467390812933444976806640625" lon="0.84740211255848407745361328125">
        <ele>1388.5999755859375</ele>
        <time>2020-08-14T09:13:57.000Z</time>
      </trkpt>
      <trkpt lat="42.3946334235370159149169921875" lon="0.84747855551540851593017578125">
        <ele>1389.5999755859375</ele>
        <time>2020-08-14T09:14:02.000Z</time>
      </trkpt>
      <trkpt lat="42.39460467360913753509521484375" lon="0.84752163849771022796630859375">
        <ele>1390.4000244140625</ele>
        <time>2020-08-14T09:14:05.000Z</time>
      </trkpt>
      <trkpt lat="42.39458355121314525604248046875" lon="0.84754577837884426116943359375">
        <ele>1390.5999755859375</ele>
        <time>2020-08-14T09:14:07.000Z</time>
      </trkpt>
      <trkpt lat="42.39452085457742214202880859375" lon="0.8476003445684909820556640625">
        <ele>1391.199951171875</ele>
        <time>2020-08-14T09:14:12.000Z</time>
      </trkpt>
      <trkpt lat="42.39448581822216510772705078125" lon="0.84763797931373119354248046875">
        <ele>1391.800048828125</ele>
        <time>2020-08-14T09:14:15.000Z</time>
      </trkpt>
      <trkpt lat="42.39441993646323680877685546875" lon="0.84767318330705165863037109375">
        <ele>1393</ele>
        <time>2020-08-14T09:14:20.000Z</time>
      </trkpt>
      <trkpt lat="42.39432589150965213775634765625" lon="0.84768894128501415252685546875">
        <ele>1394</ele>
        <time>2020-08-14T09:14:27.000Z</time>
      </trkpt>
      <trkpt lat="42.39422597922384738922119140625" lon="0.84770235233008861541748046875">
        <ele>1395.199951171875</ele>
        <time>2020-08-14T09:14:34.000Z</time>
      </trkpt>
      <trkpt lat="42.39421072416007518768310546875" lon="0.84770134650170803070068359375">
        <ele>1395.4000244140625</ele>
        <time>2020-08-14T09:14:35.000Z</time>
      </trkpt>
      <trkpt lat="42.39412103779613971710205078125" lon="0.84769933484494686126708984375">
        <ele>1396.4000244140625</ele>
        <time>2020-08-14T09:14:41.000Z</time>
      </trkpt>
      <trkpt lat="42.3940765298902988433837890625" lon="0.84770972840487957000732421875">
        <ele>1396.800048828125</ele>
        <time>2020-08-14T09:14:44.000Z</time>
      </trkpt>
      <trkpt lat="42.39403403364121913909912109375" lon="0.8477161824703216552734375">
        <ele>1397.4000244140625</ele>
        <time>2020-08-14T09:14:47.000Z</time>
      </trkpt>
      <trkpt lat="42.39397888071835041046142578125" lon="0.84771056659519672393798828125">
        <ele>1398.5999755859375</ele>
        <time>2020-08-14T09:14:51.000Z</time>
      </trkpt>
      <trkpt lat="42.39388265646994113922119140625" lon="0.84763512946665287017822265625">
        <ele>1398.5999755859375</ele>
        <time>2020-08-14T09:14:58.000Z</time>
      </trkpt>
      <trkpt lat="42.39377318881452083587646484375" lon="0.84753974340856075286865234375">
        <ele>1399</ele>
        <time>2020-08-14T09:15:05.000Z</time>
      </trkpt>
      <trkpt lat="42.393641509115695953369140625" lon="0.84752507507801055908203125">
        <ele>1399.4000244140625</ele>
        <time>2020-08-14T09:15:12.000Z</time>
      </trkpt>
      <trkpt lat="42.39351234398782253265380859375" lon="0.847564972937107086181640625">
        <ele>1400.4000244140625</ele>
        <time>2020-08-14T09:15:20.000Z</time>
      </trkpt>
      <trkpt lat="42.39349826239049434661865234375" lon="0.84757628850638866424560546875">
        <ele>1400.5999755859375</ele>
        <time>2020-08-14T09:15:21.000Z</time>
      </trkpt>
      <trkpt lat="42.3934324644505977630615234375" lon="0.84764250554144382476806640625">
        <ele>1401.800048828125</ele>
        <time>2020-08-14T09:15:26.000Z</time>
      </trkpt>
      <trkpt lat="42.39341964013874530792236328125" lon="0.84765960462391376495361328125">
        <ele>1401.800048828125</ele>
        <time>2020-08-14T09:15:27.000Z</time>
      </trkpt>
      <trkpt lat="42.39334152080118656158447265625" lon="0.84773504175245761871337890625">
        <ele>1403</ele>
        <time>2020-08-14T09:15:33.000Z</time>
      </trkpt>
      <trkpt lat="42.39330866374075412750244140625" lon="0.8477451838552951812744140625">
        <ele>1403.5999755859375</ele>
        <time>2020-08-14T09:15:35.000Z</time>
      </trkpt>
      <trkpt lat="42.3932618089020252227783203125" lon="0.8477317728102207183837890625">
        <ele>1404</ele>
        <time>2020-08-14T09:15:38.000Z</time>
      </trkpt>
      <trkpt lat="42.3932316340506076812744140625" lon="0.84768877364695072174072265625">
        <ele>1404.4000244140625</ele>
        <time>2020-08-14T09:15:41.000Z</time>
      </trkpt>
      <trkpt lat="42.39322098903357982635498046875" lon="0.84762942977249622344970703125">
        <ele>1405</ele>
        <time>2020-08-14T09:15:44.000Z</time>
      </trkpt>
      <trkpt lat="42.39322534762322902679443359375" lon="0.8476104028522968292236328125">
        <ele>1405.199951171875</ele>
        <time>2020-08-14T09:15:45.000Z</time>
      </trkpt>
      <trkpt lat="42.39323942922055721282958984375" lon="0.84757427684962749481201171875">
        <ele>1405.4000244140625</ele>
        <time>2020-08-14T09:15:47.000Z</time>
      </trkpt>
      <trkpt lat="42.3933121003210544586181640625" lon="0.84747235290706157684326171875">
        <ele>1406.4000244140625</ele>
        <time>2020-08-14T09:15:54.000Z</time>
      </trkpt>
      <trkpt lat="42.39333414472639560699462890625" lon="0.8474467881023883819580078125">
        <ele>1406.800048828125</ele>
        <time>2020-08-14T09:15:56.000Z</time>
      </trkpt>
      <trkpt lat="42.3934049718081951141357421875" lon="0.84735332988202571868896484375">
        <ele>1407.5999755859375</ele>
        <time>2020-08-14T09:16:03.000Z</time>
      </trkpt>
      <trkpt lat="42.39343321882188320159912109375" lon="0.84730111062526702880859375">
        <ele>1408</ele>
        <time>2020-08-14T09:16:06.000Z</time>
      </trkpt>
      <trkpt lat="42.39346540533006191253662109375" lon="0.84720161743462085723876953125">
        <ele>1408.800048828125</ele>
        <time>2020-08-14T09:16:11.000Z</time>
      </trkpt>
      <trkpt lat="42.39347152411937713623046875" lon="0.84710824303328990936279296875">
        <ele>1409</ele>
        <time>2020-08-14T09:16:15.000Z</time>
      </trkpt>
      <trkpt lat="42.39344461821019649505615234375" lon="0.847005732357501983642578125">
        <ele>1409.800048828125</ele>
        <time>2020-08-14T09:16:20.000Z</time>
      </trkpt>
      <trkpt lat="42.39342391490936279296875" lon="0.8469502441585063934326171875">
        <ele>1410.199951171875</ele>
        <time>2020-08-14T09:16:23.000Z</time>
      </trkpt>
      <trkpt lat="42.393374629318714141845703125" lon="0.84682099521160125732421875">
        <ele>1411</ele>
        <time>2020-08-14T09:16:30.000Z</time>
      </trkpt>
      <trkpt lat="42.39336113445460796356201171875" lon="0.84678067825734615325927734375">
        <ele>1411.199951171875</ele>
        <time>2020-08-14T09:16:32.000Z</time>
      </trkpt>
      <trkpt lat="42.39333565346896648406982421875" lon="0.84664019756019115447998046875">
        <ele>1412.4000244140625</ele>
        <time>2020-08-14T09:16:39.000Z</time>
      </trkpt>
      <trkpt lat="42.39332609809935092926025390625" lon="0.8466012217104434967041015625">
        <ele>1412.800048828125</ele>
        <time>2020-08-14T09:16:41.000Z</time>
      </trkpt>
      <trkpt lat="42.39331754855811595916748046875" lon="0.84656258113682270050048828125">
        <ele>1413.4000244140625</ele>
        <time>2020-08-14T09:16:43.000Z</time>
      </trkpt>
      <trkpt lat="42.39329173229634761810302734375" lon="0.84646761417388916015625">
        <ele>1414.5999755859375</ele>
        <time>2020-08-14T09:16:48.000Z</time>
      </trkpt>
      <trkpt lat="42.3932711966335773468017578125" lon="0.84637298248708248138427734375">
        <ele>1415.5999755859375</ele>
        <time>2020-08-14T09:16:53.000Z</time>
      </trkpt>
      <trkpt lat="42.393270023167133331298828125" lon="0.84619998000562191009521484375">
        <ele>1416.5999755859375</ele>
        <time>2020-08-14T09:17:01.000Z</time>
      </trkpt>
      <trkpt lat="42.39327228628098964691162109375" lon="0.84617801941931247711181640625">
        <ele>1416.800048828125</ele>
        <time>2020-08-14T09:17:02.000Z</time>
      </trkpt>
      <trkpt lat="42.3932849429547786712646484375" lon="0.84609604440629482269287109375">
        <ele>1417.4000244140625</ele>
        <time>2020-08-14T09:17:06.000Z</time>
      </trkpt>
      <trkpt lat="42.39328402094542980194091796875" lon="0.8460292406380176544189453125">
        <ele>1417.800048828125</ele>
        <time>2020-08-14T09:17:09.000Z</time>
      </trkpt>
      <trkpt lat="42.39328402094542980194091796875" lon="0.84592538885772228240966796875">
        <ele>1418.5999755859375</ele>
        <time>2020-08-14T09:17:14.000Z</time>
      </trkpt>
      <trkpt lat="42.393281757831573486328125" lon="0.84586319513618946075439453125">
        <ele>1418.5999755859375</ele>
        <time>2020-08-14T09:17:17.000Z</time>
      </trkpt>
      <trkpt lat="42.3932939954102039337158203125" lon="0.845693461596965789794921875">
        <ele>1419.5999755859375</ele>
        <time>2020-08-14T09:17:24.000Z</time>
      </trkpt>
      <trkpt lat="42.39331939257681369781494140625" lon="0.84548869170248508453369140625">
        <ele>1420</ele>
        <time>2020-08-14T09:17:33.000Z</time>
      </trkpt>
      <trkpt lat="42.3933271877467632293701171875" lon="0.84541979245841503143310546875">
        <ele>1420.800048828125</ele>
        <time>2020-08-14T09:17:36.000Z</time>
      </trkpt>
      <trkpt lat="42.39332878030836582183837890625" lon="0.84530596621334552764892578125">
        <ele>1420.800048828125</ele>
        <time>2020-08-14T09:17:41.000Z</time>
      </trkpt>
      <trkpt lat="42.39329508505761623382568359375" lon="0.845100693404674530029296875">
        <ele>1421.800048828125</ele>
        <time>2020-08-14T09:17:50.000Z</time>
      </trkpt>
      <trkpt lat="42.3932872898876667022705078125" lon="0.845080576837062835693359375">
        <ele>1421.800048828125</ele>
        <time>2020-08-14T09:17:51.000Z</time>
      </trkpt>
      <trkpt lat="42.393267340958118438720703125" lon="0.84498611278831958770751953125">
        <ele>1422.800048828125</ele>
        <time>2020-08-14T09:17:55.000Z</time>
      </trkpt>
      <trkpt lat="42.3932634852826595306396484375" lon="0.84491788409650325775146484375">
        <ele>1423</ele>
        <time>2020-08-14T09:17:58.000Z</time>
      </trkpt>
      <trkpt lat="42.39325786940753459930419921875" lon="0.84473465569317340850830078125">
        <ele>1423.800048828125</ele>
        <time>2020-08-14T09:18:06.000Z</time>
      </trkpt>
      <trkpt lat="42.393257953226566314697265625" lon="0.8447099290788173675537109375">
        <ele>1423.800048828125</ele>
        <time>2020-08-14T09:18:07.000Z</time>
      </trkpt>
      <trkpt lat="42.39327262155711650848388671875" lon="0.84452644921839237213134765625">
        <ele>1424.800048828125</ele>
        <time>2020-08-14T09:18:14.000Z</time>
      </trkpt>
      <trkpt lat="42.39326901733875274658203125" lon="0.84447464905679225921630859375">
        <ele>1425</ele>
        <time>2020-08-14T09:18:16.000Z</time>
      </trkpt>
      <trkpt lat="42.39328821189701557159423828125" lon="0.8443473279476165771484375">
        <ele>1425.5999755859375</ele>
        <time>2020-08-14T09:18:21.000Z</time>
      </trkpt>
      <trkpt lat="42.3933064006268978118896484375" lon="0.84426677785813808441162109375">
        <ele>1426</ele>
        <time>2020-08-14T09:18:24.000Z</time>
      </trkpt>
      <trkpt lat="42.3933429457247257232666015625" lon="0.84416619502007961273193359375">
        <ele>1426.5999755859375</ele>
        <time>2020-08-14T09:18:28.000Z</time>
      </trkpt>
      <trkpt lat="42.393439002335071563720703125" lon="0.8438824675977230072021484375">
        <ele>1427</ele>
        <time>2020-08-14T09:18:39.000Z</time>
      </trkpt>
      <trkpt lat="42.39344629459083080291748046875" lon="0.8438566513359546661376953125">
        <ele>1427.199951171875</ele>
        <time>2020-08-14T09:18:40.000Z</time>
      </trkpt>
      <trkpt lat="42.39349876530468463897705078125" lon="0.84364953450858592987060546875">
        <ele>1427.5999755859375</ele>
        <time>2020-08-14T09:18:48.000Z</time>
      </trkpt>
      <trkpt lat="42.39350765012204647064208984375" lon="0.84351877681910991668701171875">
        <ele>1428.199951171875</ele>
        <time>2020-08-14T09:18:53.000Z</time>
      </trkpt>
      <trkpt lat="42.3935092426836490631103515625" lon="0.84347284398972988128662109375">
        <ele>1428.5999755859375</ele>
        <time>2020-08-14T09:18:55.000Z</time>
      </trkpt>
      <trkpt lat="42.39351100288331508636474609375" lon="0.84346362389624118804931640625">
        <ele>1429</ele>
        <time>2020-08-14T09:18:57.000Z</time>
      </trkpt>
      <trkpt lat="42.3935132659971714019775390625" lon="0.8434690721333026885986328125">
        <ele>1429</ele>
        <time>2020-08-14T09:22:26.000Z</time>
      </trkpt>
      <trkpt lat="42.393513433635234832763671875" lon="0.84346915595233440399169921875">
        <ele>1429</ele>
        <time>2020-08-14T09:22:27.000Z</time>
      </trkpt>
      <trkpt lat="42.39351569674909114837646484375" lon="0.84343043155968189239501953125">
        <ele>1429.199951171875</ele>
        <time>2020-08-14T09:22:36.000Z</time>
      </trkpt>
      <trkpt lat="42.3935719393193721771240234375" lon="0.8432498015463352203369140625">
        <ele>1429.800048828125</ele>
        <time>2020-08-14T09:22:45.000Z</time>
      </trkpt>
      <trkpt lat="42.39361879415810108184814453125" lon="0.84316053427755832672119140625">
        <ele>1430.199951171875</ele>
        <time>2020-08-14T09:22:50.000Z</time>
      </trkpt>
      <trkpt lat="42.39363991655409336090087890625" lon="0.8431274257600307464599609375">
        <ele>1431</ele>
        <time>2020-08-14T09:22:52.000Z</time>
      </trkpt>
      <trkpt lat="42.39365123212337493896484375" lon="0.84311150014400482177734375">
        <ele>1431.199951171875</ele>
        <time>2020-08-14T09:22:53.000Z</time>
      </trkpt>
      <trkpt lat="42.3937446065247058868408203125" lon="0.8430084027349948883056640625">
        <ele>1431</ele>
        <time>2020-08-14T09:23:00.000Z</time>
      </trkpt>
      <trkpt lat="42.393822558224201202392578125" lon="0.842938162386417388916015625">
        <ele>1432</ele>
        <time>2020-08-14T09:23:06.000Z</time>
      </trkpt>
      <trkpt lat="42.393856085836887359619140625" lon="0.8428960852324962615966796875">
        <ele>1432.5999755859375</ele>
        <time>2020-08-14T09:23:09.000Z</time>
      </trkpt>
      <trkpt lat="42.39393152296543121337890625" lon="0.8427659980952739715576171875">
        <ele>1433.199951171875</ele>
        <time>2020-08-14T09:23:17.000Z</time>
      </trkpt>
      <trkpt lat="42.3939849995076656341552734375" lon="0.84257212467491626739501953125">
        <ele>1433.199951171875</ele>
        <time>2020-08-14T09:23:26.000Z</time>
      </trkpt>
      <trkpt lat="42.39399597980082035064697265625" lon="0.842431224882602691650390625">
        <ele>1433.800048828125</ele>
        <time>2020-08-14T09:23:33.000Z</time>
      </trkpt>
      <trkpt lat="42.39401307888329029083251953125" lon="0.84227322600781917572021484375">
        <ele>1434.199951171875</ele>
        <time>2020-08-14T09:23:40.000Z</time>
      </trkpt>
      <trkpt lat="42.39401743747293949127197265625" lon="0.842249505221843719482421875">
        <ele>1434.199951171875</ele>
        <time>2020-08-14T09:23:41.000Z</time>
      </trkpt>
      <trkpt lat="42.394051887094974517822265625" lon="0.84206703118979930877685546875">
        <ele>1434.4000244140625</ele>
        <time>2020-08-14T09:23:48.000Z</time>
      </trkpt>
      <trkpt lat="42.39411382935941219329833984375" lon="0.84186787717044353485107421875">
        <ele>1435</ele>
        <time>2020-08-14T09:23:56.000Z</time>
      </trkpt>
      <trkpt lat="42.3941630311310291290283203125" lon="0.84177844226360321044921875">
        <ele>1435.4000244140625</ele>
        <time>2020-08-14T09:24:00.000Z</time>
      </trkpt>
      <trkpt lat="42.394217513501644134521484375" lon="0.8417031727731227874755859375">
        <ele>1435.4000244140625</ele>
        <time>2020-08-14T09:24:03.000Z</time>
      </trkpt>
      <trkpt lat="42.39437735639512538909912109375" lon="0.84156780503690242767333984375">
        <ele>1434</ele>
        <time>2020-08-14T09:24:08.000Z</time>
      </trkpt>
      <trkpt lat="42.39454667083919048309326171875" lon="0.8414621092379093170166015625">
        <ele>1433.4000244140625</ele>
        <time>2020-08-14T09:24:12.000Z</time>
      </trkpt>
      <trkpt lat="42.39463568665087223052978515625" lon="0.84143914282321929931640625">
        <ele>1433.4000244140625</ele>
        <time>2020-08-14T09:24:14.000Z</time>
      </trkpt>
      <trkpt lat="42.39467851817607879638671875" lon="0.84143486805260181427001953125">
        <ele>1432.800048828125</ele>
        <time>2020-08-14T09:24:15.000Z</time>
      </trkpt>
      <trkpt lat="42.3948912508785724639892578125" lon="0.84142464213073253631591796875">
        <ele>1432.4000244140625</ele>
        <time>2020-08-14T09:24:21.000Z</time>
      </trkpt>
      <trkpt lat="42.39503667689859867095947265625" lon="0.84138507954776287078857421875">
        <ele>1432.800048828125</ele>
        <time>2020-08-14T09:24:28.000Z</time>
      </trkpt>
      <trkpt lat="42.3951901495456695556640625" lon="0.84129287861287593841552734375">
        <ele>1432.800048828125</ele>
        <time>2020-08-14T09:24:36.000Z</time>
      </trkpt>
      <trkpt lat="42.39532417617738246917724609375" lon="0.84120218642055988311767578125">
        <ele>1432.5999755859375</ele>
        <time>2020-08-14T09:24:43.000Z</time>
      </trkpt>
      <trkpt lat="42.39548058249056339263916015625" lon="0.84107972681522369384765625">
        <ele>1432.800048828125</ele>
        <time>2020-08-14T09:24:51.000Z</time>
      </trkpt>
      <trkpt lat="42.395671941339969635009765625" lon="0.84097906015813350677490234375">
        <ele>1433.199951171875</ele>
        <time>2020-08-14T09:25:01.000Z</time>
      </trkpt>
      <trkpt lat="42.39584033377468585968017578125" lon="0.84087814204394817352294921875">
        <ele>1432.800048828125</ele>
        <time>2020-08-14T09:25:09.000Z</time>
      </trkpt>
      <trkpt lat="42.39603831432759761810302734375" lon="0.840740762650966644287109375">
        <ele>1432.800048828125</ele>
        <time>2020-08-14T09:25:18.000Z</time>
      </trkpt>
      <trkpt lat="42.3962323553860187530517578125" lon="0.8405742980539798736572265625">
        <ele>1432.800048828125</ele>
        <time>2020-08-14T09:25:28.000Z</time>
      </trkpt>
      <trkpt lat="42.3964261449873447418212890625" lon="0.8404324762523174285888671875">
        <ele>1432.199951171875</ele>
        <time>2020-08-14T09:25:36.000Z</time>
      </trkpt>
      <trkpt lat="42.39652161486446857452392578125" lon="0.84038243629038333892822265625">
        <ele>1431.5999755859375</ele>
        <time>2020-08-14T09:25:39.000Z</time>
      </trkpt>
      <trkpt lat="42.39659822545945644378662109375" lon="0.84035494364798069000244140625">
        <ele>1430.800048828125</ele>
        <time>2020-08-14T09:25:41.000Z</time>
      </trkpt>
      <trkpt lat="42.39663795568048954010009765625" lon="0.840346477925777435302734375">
        <ele>1430.5999755859375</ele>
        <time>2020-08-14T09:25:42.000Z</time>
      </trkpt>
      <trkpt lat="42.39679419435560703277587890625" lon="0.84035142324864864349365234375">
        <ele>1431</ele>
        <time>2020-08-14T09:25:47.000Z</time>
      </trkpt>
      <trkpt lat="42.39694355987012386322021484375" lon="0.8403905667364597320556640625">
        <ele>1431.5999755859375</ele>
        <time>2020-08-14T09:25:54.000Z</time>
      </trkpt>
      <trkpt lat="42.396961748600006103515625" lon="0.8403862081468105316162109375">
        <ele>1431.5999755859375</ele>
        <time>2020-08-14T09:25:55.000Z</time>
      </trkpt>
      <trkpt lat="42.39703525789082050323486328125" lon="0.84031823091208934783935546875">
        <ele>1432.800048828125</ele>
        <time>2020-08-14T09:26:00.000Z</time>
      </trkpt>
      <trkpt lat="42.3970462381839752197265625" lon="0.84029945544898509979248046875">
        <ele>1433</ele>
        <time>2020-08-14T09:26:01.000Z</time>
      </trkpt>
      <trkpt lat="42.397068701684474945068359375" lon="0.840210355818271636962890625">
        <ele>1433.800048828125</ele>
        <time>2020-08-14T09:26:05.000Z</time>
      </trkpt>
      <trkpt lat="42.39708068780601024627685546875" lon="0.8401632495224475860595703125">
        <ele>1434.199951171875</ele>
        <time>2020-08-14T09:26:07.000Z</time>
      </trkpt>
      <trkpt lat="42.39710734225809574127197265625" lon="0.8400583080947399139404296875">
        <ele>1434.800048828125</ele>
        <time>2020-08-14T09:26:12.000Z</time>
      </trkpt>
      <trkpt lat="42.39713349379599094390869140625" lon="0.8399806916713714599609375">
        <ele>1434.800048828125</ele>
        <time>2020-08-14T09:26:16.000Z</time>
      </trkpt>
      <trkpt lat="42.39717188291251659393310546875" lon="0.83986602723598480224609375">
        <ele>1435.5999755859375</ele>
        <time>2020-08-14T09:26:22.000Z</time>
      </trkpt>
      <trkpt lat="42.39718629978597164154052734375" lon="0.83983157761394977569580078125">
        <ele>1436.199951171875</ele>
        <time>2020-08-14T09:26:24.000Z</time>
      </trkpt>
      <trkpt lat="42.39720976911485195159912109375" lon="0.8397760055959224700927734375">
        <ele>1436.800048828125</ele>
        <time>2020-08-14T09:26:27.000Z</time>
      </trkpt>
      <trkpt lat="42.39726576022803783416748046875" lon="0.8396509476006031036376953125">
        <ele>1437.4000244140625</ele>
        <time>2020-08-14T09:26:33.000Z</time>
      </trkpt>
      <trkpt lat="42.39729090593755245208740234375" lon="0.83959001116454601287841796875">
        <ele>1437.800048828125</ele>
        <time>2020-08-14T09:26:36.000Z</time>
      </trkpt>
      <trkpt lat="42.3973466455936431884765625" lon="0.8394722454249858856201171875">
        <ele>1438.800048828125</ele>
        <time>2020-08-14T09:26:42.000Z</time>
      </trkpt>
      <trkpt lat="42.3973759822547435760498046875" lon="0.83942304365336894989013671875">
        <ele>1439.199951171875</ele>
        <time>2020-08-14T09:26:45.000Z</time>
      </trkpt>
      <trkpt lat="42.397435493767261505126953125" lon="0.8393602631986141204833984375">
        <ele>1440.199951171875</ele>
        <time>2020-08-14T09:26:50.000Z</time>
      </trkpt>
      <trkpt lat="42.39752425812184810638427734375" lon="0.83924132399260997772216796875">
        <ele>1440.5999755859375</ele>
        <time>2020-08-14T09:26:58.000Z</time>
      </trkpt>
      <trkpt lat="42.39755393005907535552978515625" lon="0.8391909487545490264892578125">
        <ele>1441.4000244140625</ele>
        <time>2020-08-14T09:27:01.000Z</time>
      </trkpt>
      <trkpt lat="42.3976043052971363067626953125" lon="0.83911006338894367218017578125">
        <ele>1442.4000244140625</ele>
        <time>2020-08-14T09:27:06.000Z</time>
      </trkpt>
      <trkpt lat="42.39764780737459659576416015625" lon="0.838986933231353759765625">
        <ele>1442.5999755859375</ele>
        <time>2020-08-14T09:27:12.000Z</time>
      </trkpt>
      <trkpt lat="42.39765577018260955810546875" lon="0.83896840922534465789794921875">
        <ele>1442.800048828125</ele>
        <time>2020-08-14T09:27:13.000Z</time>
      </trkpt>
      <trkpt lat="42.397683598101139068603515625" lon="0.838890038430690765380859375">
        <ele>1443.5999755859375</ele>
        <time>2020-08-14T09:27:17.000Z</time>
      </trkpt>
      <trkpt lat="42.3977226577699184417724609375" lon="0.8388139307498931884765625">
        <ele>1443.800048828125</ele>
        <time>2020-08-14T09:27:21.000Z</time>
      </trkpt>
      <trkpt lat="42.3977742902934551239013671875" lon="0.83866615779697895050048828125">
        <ele>1444.5999755859375</ele>
        <time>2020-08-14T09:27:28.000Z</time>
      </trkpt>
      <trkpt lat="42.39778074435889720916748046875" lon="0.83864562213420867919921875">
        <ele>1444.800048828125</ele>
        <time>2020-08-14T09:27:29.000Z</time>
      </trkpt>
      <trkpt lat="42.39782919175922870635986328125" lon="0.83845493383705615997314453125">
        <ele>1445.800048828125</ele>
        <time>2020-08-14T09:27:38.000Z</time>
      </trkpt>
      <trkpt lat="42.3978349752724170684814453125" lon="0.83843397907912731170654296875">
        <ele>1446</ele>
        <time>2020-08-14T09:27:39.000Z</time>
      </trkpt>
      <trkpt lat="42.39786908961832523345947265625" lon="0.83832887001335620880126953125">
        <ele>1446.800048828125</ele>
        <time>2020-08-14T09:27:44.000Z</time>
      </trkpt>
      <trkpt lat="42.39791150204837322235107421875" lon="0.83822644315659999847412109375">
        <ele>1447.4000244140625</ele>
        <time>2020-08-14T09:27:49.000Z</time>
      </trkpt>
      <trkpt lat="42.397973276674747467041015625" lon="0.83809535019099712371826171875">
        <ele>1448</ele>
        <time>2020-08-14T09:27:56.000Z</time>
      </trkpt>
      <trkpt lat="42.39801091141998767852783203125" lon="0.83799979649484157562255859375">
        <ele>1449</ele>
        <time>2020-08-14T09:28:01.000Z</time>
      </trkpt>
      <trkpt lat="42.39803119562566280364990234375" lon="0.83796710707247257232666015625">
        <ele>1449.4000244140625</ele>
        <time>2020-08-14T09:28:03.000Z</time>
      </trkpt>
      <trkpt lat="42.39811568520963191986083984375" lon="0.8379608206450939178466796875">
        <ele>1449.800048828125</ele>
        <time>2020-08-14T09:28:09.000Z</time>
      </trkpt>
      <trkpt lat="42.3981430940330028533935546875" lon="0.83808311261236667633056640625">
        <ele>1450</ele>
        <time>2020-08-14T09:28:15.000Z</time>
      </trkpt>
      <trkpt lat="42.3981057107448577880859375" lon="0.83815854974091053009033203125">
        <ele>1450.5999755859375</ele>
        <time>2020-08-14T09:28:19.000Z</time>
      </trkpt>
      <trkpt lat="42.3980788886547088623046875" lon="0.8381921611726284027099609375">
        <ele>1451</ele>
        <time>2020-08-14T09:28:21.000Z</time>
      </trkpt>
      <trkpt lat="42.3979653976857662200927734375" lon="0.838365666568279266357421875">
        <ele>1451.800048828125</ele>
        <time>2020-08-14T09:28:30.000Z</time>
      </trkpt>
      <trkpt lat="42.39795089699327945709228515625" lon="0.83848762325942516326904296875">
        <ele>1452</ele>
        <time>2020-08-14T09:28:35.000Z</time>
      </trkpt>
      <trkpt lat="42.39795223809778690338134765625" lon="0.83855769596993923187255859375">
        <ele>1452.5999755859375</ele>
        <time>2020-08-14T09:28:38.000Z</time>
      </trkpt>
      <trkpt lat="42.397955842316150665283203125" lon="0.838625840842723846435546875">
        <ele>1453</ele>
        <time>2020-08-14T09:28:41.000Z</time>
      </trkpt>
      <trkpt lat="42.39796816371381282806396484375" lon="0.83873949944972991943359375">
        <ele>1454.199951171875</ele>
        <time>2020-08-14T09:28:46.000Z</time>
      </trkpt>
      <trkpt lat="42.39797436632215976715087890625" lon="0.83882558159530162811279296875">
        <ele>1454.5999755859375</ele>
        <time>2020-08-14T09:28:50.000Z</time>
      </trkpt>
      <trkpt lat="42.3979617096483707427978515625" lon="0.838907472789287567138671875">
        <ele>1455.199951171875</ele>
        <time>2020-08-14T09:28:54.000Z</time>
      </trkpt>
      <trkpt lat="42.39796028472483158111572265625" lon="0.83892784081399440765380859375">
        <ele>1455.4000244140625</ele>
        <time>2020-08-14T09:28:55.000Z</time>
      </trkpt>
      <trkpt lat="42.3979285173118114471435546875" lon="0.83910562098026275634765625">
        <ele>1456</ele>
        <time>2020-08-14T09:29:04.000Z</time>
      </trkpt>
      <trkpt lat="42.397921979427337646484375" lon="0.839146859943866729736328125">
        <ele>1456.4000244140625</ele>
        <time>2020-08-14T09:29:06.000Z</time>
      </trkpt>
      <trkpt lat="42.3979063890874385833740234375" lon="0.83926462568342685699462890625">
        <ele>1457.4000244140625</ele>
        <time>2020-08-14T09:29:12.000Z</time>
      </trkpt>
      <trkpt lat="42.39790513180196285247802734375" lon="0.839284323155879974365234375">
        <ele>1457.5999755859375</ele>
        <time>2020-08-14T09:29:13.000Z</time>
      </trkpt>
      <trkpt lat="42.39787965081632137298583984375" lon="0.839438550174236297607421875">
        <ele>1458</ele>
        <time>2020-08-14T09:29:21.000Z</time>
      </trkpt>
      <trkpt lat="42.397873364388942718505859375" lon="0.83949663676321506500244140625">
        <ele>1458.5999755859375</ele>
        <time>2020-08-14T09:29:24.000Z</time>
      </trkpt>
      <trkpt lat="42.39785416983067989349365234375" lon="0.83959202282130718231201171875">
        <ele>1459.4000244140625</ele>
        <time>2020-08-14T09:29:29.000Z</time>
      </trkpt>
      <trkpt lat="42.3978426866233348846435546875" lon="0.8396278135478496551513671875">
        <ele>1459.800048828125</ele>
        <time>2020-08-14T09:29:31.000Z</time>
      </trkpt>
      <trkpt lat="42.3978051356971263885498046875" lon="0.83975999616086483001708984375">
        <ele>1460.5999755859375</ele>
        <time>2020-08-14T09:29:38.000Z</time>
      </trkpt>
      <trkpt lat="42.39779985509812831878662109375" lon="0.83977843634784221649169921875">
        <ele>1460.800048828125</ele>
        <time>2020-08-14T09:29:39.000Z</time>
      </trkpt>
      <trkpt lat="42.39777403883635997772216796875" lon="0.83991229534149169921875">
        <ele>1462</ele>
        <time>2020-08-14T09:29:46.000Z</time>
      </trkpt>
      <trkpt lat="42.39776968024671077728271484375" lon="0.8399699628353118896484375">
        <ele>1462.5999755859375</ele>
        <time>2020-08-14T09:29:49.000Z</time>
      </trkpt>
      <trkpt lat="42.397764734923839569091796875" lon="0.8400539495050907135009765625">
        <ele>1463</ele>
        <time>2020-08-14T09:29:53.000Z</time>
      </trkpt>
      <trkpt lat="42.3977655731141567230224609375" lon="0.840113461017608642578125">
        <ele>1463.199951171875</ele>
        <time>2020-08-14T09:29:56.000Z</time>
      </trkpt>
      <trkpt lat="42.39779147319495677947998046875" lon="0.84024916402995586395263671875">
        <ele>1464</ele>
        <time>2020-08-14T09:30:03.000Z</time>
      </trkpt>
      <trkpt lat="42.3977980948984622955322265625" lon="0.840268023312091827392578125">
        <ele>1464.199951171875</ele>
        <time>2020-08-14T09:30:04.000Z</time>
      </trkpt>
      <trkpt lat="42.397839836776256561279296875" lon="0.84041127003729343414306640625">
        <ele>1465</ele>
        <time>2020-08-14T09:30:12.000Z</time>
      </trkpt>
      <trkpt lat="42.39784696139395236968994140625" lon="0.8404294587671756744384765625">
        <ele>1465</ele>
        <time>2020-08-14T09:30:13.000Z</time>
      </trkpt>
      <trkpt lat="42.3978869430720806121826171875" lon="0.8405350707471370697021484375">
        <ele>1466.199951171875</ele>
        <time>2020-08-14T09:30:19.000Z</time>
      </trkpt>
      <trkpt lat="42.3979120887815952301025390625" lon="0.84058460779488086700439453125">
        <ele>1466.5999755859375</ele>
        <time>2020-08-14T09:30:22.000Z</time>
      </trkpt>
      <trkpt lat="42.39797101356089115142822265625" lon="0.84064931608736515045166015625">
        <ele>1467.199951171875</ele>
        <time>2020-08-14T09:30:27.000Z</time>
      </trkpt>
      <trkpt lat="42.397997416555881500244140625" lon="0.84067245014011859893798828125">
        <ele>1467.199951171875</ele>
        <time>2020-08-14T09:30:29.000Z</time>
      </trkpt>
      <trkpt lat="42.398092634975910186767578125" lon="0.8407496474683284759521484375">
        <ele>1468</ele>
        <time>2020-08-14T09:30:36.000Z</time>
      </trkpt>
      <trkpt lat="42.3981072194874286651611328125" lon="0.84075962193310260772705078125">
        <ele>1468.199951171875</ele>
        <time>2020-08-14T09:30:37.000Z</time>
      </trkpt>
      <trkpt lat="42.39821693859994411468505859375" lon="0.84084260277450084686279296875">
        <ele>1469.199951171875</ele>
        <time>2020-08-14T09:30:45.000Z</time>
      </trkpt>
      <trkpt lat="42.3982349596917629241943359375" lon="0.8408482186496257781982421875">
        <ele>1469.4000244140625</ele>
        <time>2020-08-14T09:30:46.000Z</time>
      </trkpt>
      <trkpt lat="42.39835046231746673583984375" lon="0.84091284312307834625244140625">
        <ele>1470</ele>
        <time>2020-08-14T09:30:53.000Z</time>
      </trkpt>
      <trkpt lat="42.39838943816721439361572265625" lon="0.84094804711639881134033203125">
        <ele>1470.4000244140625</ele>
        <time>2020-08-14T09:30:56.000Z</time>
      </trkpt>
      <trkpt lat="42.39843252114951610565185546875" lon="0.841039828956127166748046875">
        <ele>1471.199951171875</ele>
        <time>2020-08-14T09:31:01.000Z</time>
      </trkpt>
      <trkpt lat="42.39843763411045074462890625" lon="0.841106884181499481201171875">
        <ele>1471.4000244140625</ele>
        <time>2020-08-14T09:31:04.000Z</time>
      </trkpt>
      <trkpt lat="42.39845640957355499267578125" lon="0.84121727384626865386962890625">
        <ele>1472</ele>
        <time>2020-08-14T09:31:09.000Z</time>
      </trkpt>
      <trkpt lat="42.39848985336720943450927734375" lon="0.84126689471304416656494140625">
        <ele>1472.4000244140625</ele>
        <time>2020-08-14T09:31:12.000Z</time>
      </trkpt>
      <trkpt lat="42.39856244064867496490478515625" lon="0.84136278368532657623291015625">
        <ele>1472.800048828125</ele>
        <time>2020-08-14T09:31:18.000Z</time>
      </trkpt>
      <trkpt lat="42.3986282385885715484619140625" lon="0.84146286360919475555419921875">
        <ele>1473.5999755859375</ele>
        <time>2020-08-14T09:31:24.000Z</time>
      </trkpt>
      <trkpt lat="42.398660592734813690185546875" lon="0.84151164628565311431884765625">
        <ele>1473.4000244140625</ele>
        <time>2020-08-14T09:31:27.000Z</time>
      </trkpt>
      <trkpt lat="42.39869638346135616302490234375" lon="0.84157350473105907440185546875">
        <ele>1473.800048828125</ele>
        <time>2020-08-14T09:31:31.000Z</time>
      </trkpt>
      <trkpt lat="42.39870174787938594818115234375" lon="0.8416109718382358551025390625">
        <ele>1474.199951171875</ele>
        <time>2020-08-14T09:31:34.000Z</time>
      </trkpt>
      <trkpt lat="42.39870317280292510986328125" lon="0.8416173420846462249755859375">
        <ele>1474.4000244140625</ele>
        <time>2020-08-14T09:31:40.000Z</time>
      </trkpt>
      <trkpt lat="42.39870225079357624053955078125" lon="0.8416166715323925018310546875">
        <ele>1474.800048828125</ele>
        <time>2020-08-14T09:31:42.000Z</time>
      </trkpt>
      <trkpt lat="42.39870795048773288726806640625" lon="0.84162161685526371002197265625">
        <ele>1474.4000244140625</ele>
        <time>2020-08-14T09:31:54.000Z</time>
      </trkpt>
      <trkpt lat="42.3987811245024204254150390625" lon="0.84172119386494159698486328125">
        <ele>1474.5999755859375</ele>
        <time>2020-08-14T09:32:01.000Z</time>
      </trkpt>
      <trkpt lat="42.3988518677651882171630859375" lon="0.8418178372085094451904296875">
        <ele>1475.4000244140625</ele>
        <time>2020-08-14T09:32:07.000Z</time>
      </trkpt>
      <trkpt lat="42.39887709729373455047607421875" lon="0.8418486826121807098388671875">
        <ele>1475.5999755859375</ele>
        <time>2020-08-14T09:32:09.000Z</time>
      </trkpt>
      <trkpt lat="42.398993857204914093017578125" lon="0.8419454097747802734375">
        <ele>1476</ele>
        <time>2020-08-14T09:32:17.000Z</time>
      </trkpt>
      <trkpt lat="42.3990617506206035614013671875" lon="0.841969884932041168212890625">
        <ele>1476.4000244140625</ele>
        <time>2020-08-14T09:32:21.000Z</time>
      </trkpt>
      <trkpt lat="42.39912570454180240631103515625" lon="0.8419807814061641693115234375">
        <ele>1476.800048828125</ele>
        <time>2020-08-14T09:32:25.000Z</time>
      </trkpt>
      <trkpt lat="42.399227879941463470458984375" lon="0.8419559709727764129638671875">
        <ele>1477.5999755859375</ele>
        <time>2020-08-14T09:32:31.000Z</time>
      </trkpt>
      <trkpt lat="42.3993386887013912200927734375" lon="0.84201120771467685699462890625">
        <ele>1478.4000244140625</ele>
        <time>2020-08-14T09:32:38.000Z</time>
      </trkpt>
      <trkpt lat="42.39935302175581455230712890625" lon="0.84201891906559467315673828125">
        <ele>1478.5999755859375</ele>
        <time>2020-08-14T09:32:39.000Z</time>
      </trkpt>
      <trkpt lat="42.39946223795413970947265625" lon="0.842116735875606536865234375">
        <ele>1479.5999755859375</ele>
        <time>2020-08-14T09:32:47.000Z</time>
      </trkpt>
      <trkpt lat="42.3995569534599781036376953125" lon="0.84224372170865535736083984375">
        <ele>1480.4000244140625</ele>
        <time>2020-08-14T09:32:55.000Z</time>
      </trkpt>
      <trkpt lat="42.399568520486354827880859375" lon="0.84225914441049098968505859375">
        <ele>1480.5999755859375</ele>
        <time>2020-08-14T09:32:56.000Z</time>
      </trkpt>
      <trkpt lat="42.39965728484094142913818359375" lon="0.84229418076574802398681640625">
        <ele>1481.199951171875</ele>
        <time>2020-08-14T09:33:02.000Z</time>
      </trkpt>
      <trkpt lat="42.39969148300588130950927734375" lon="0.84229485131800174713134765625">
        <ele>1481.800048828125</ele>
        <time>2020-08-14T09:33:04.000Z</time>
      </trkpt>
      <trkpt lat="42.399790473282337188720703125" lon="0.84231010638177394866943359375">
        <ele>1482.4000244140625</ele>
        <time>2020-08-14T09:33:10.000Z</time>
      </trkpt>
      <trkpt lat="42.39983640611171722412109375" lon="0.8423395268619060516357421875">
        <ele>1482.5999755859375</ele>
        <time>2020-08-14T09:33:13.000Z</time>
      </trkpt>
      <trkpt lat="42.39990086294710636138916015625" lon="0.84235905669629573822021484375">
        <ele>1483.199951171875</ele>
        <time>2020-08-14T09:33:17.000Z</time>
      </trkpt>
      <trkpt lat="42.3999515734612941741943359375" lon="0.84235955961048603057861328125">
        <ele>1483.5999755859375</ele>
        <time>2020-08-14T09:33:20.000Z</time>
      </trkpt>
      <trkpt lat="42.40004670806229114532470703125" lon="0.84235017187893390655517578125">
        <ele>1484</ele>
        <time>2020-08-14T09:33:26.000Z</time>
      </trkpt>
      <trkpt lat="42.4001054652035236358642578125" lon="0.84238738752901554107666015625">
        <ele>1484.800048828125</ele>
        <time>2020-08-14T09:33:30.000Z</time>
      </trkpt>
      <trkpt lat="42.40014729090034961700439453125" lon="0.84242158569395542144775390625">
        <ele>1484.800048828125</ele>
        <time>2020-08-14T09:33:33.000Z</time>
      </trkpt>
      <trkpt lat="42.400228679180145263671875" lon="0.842480175197124481201171875">
        <ele>1485.800048828125</ele>
        <time>2020-08-14T09:33:39.000Z</time>
      </trkpt>
      <trkpt lat="42.40025809966027736663818359375" lon="0.8424910716712474822998046875">
        <ele>1486.199951171875</ele>
        <time>2020-08-14T09:33:41.000Z</time>
      </trkpt>
      <trkpt lat="42.400312162935733795166015625" lon="0.84252133034169673919677734375">
        <ele>1486.800048828125</ele>
        <time>2020-08-14T09:33:45.000Z</time>
      </trkpt>
      <trkpt lat="42.40035834722220897674560546875" lon="0.842533819377422332763671875">
        <ele>1487.4000244140625</ele>
        <time>2020-08-14T09:33:48.000Z</time>
      </trkpt>
      <trkpt lat="42.4004558287560939788818359375" lon="0.84255435504019260406494140625">
        <ele>1488</ele>
        <time>2020-08-14T09:33:54.000Z</time>
      </trkpt>
      <trkpt lat="42.400486506521701812744140625" lon="0.842563994228839874267578125">
        <ele>1488.199951171875</ele>
        <time>2020-08-14T09:33:56.000Z</time>
      </trkpt>
      <trkpt lat="42.4005597643554210662841796875" lon="0.84260531701147556304931640625">
        <ele>1489</ele>
        <time>2020-08-14T09:34:01.000Z</time>
      </trkpt>
      <trkpt lat="42.4006040208041667938232421875" lon="0.84262794815003871917724609375">
        <ele>1489.4000244140625</ele>
        <time>2020-08-14T09:34:04.000Z</time>
      </trkpt>
      <trkpt lat="42.40071742795407772064208984375" lon="0.84268595091998577117919921875">
        <ele>1490.199951171875</ele>
        <time>2020-08-14T09:34:12.000Z</time>
      </trkpt>
      <trkpt lat="42.4007327668368816375732421875" lon="0.84268637001514434814453125">
        <ele>1490.4000244140625</ele>
        <time>2020-08-14T09:34:13.000Z</time>
      </trkpt>
      <trkpt lat="42.40083795972168445587158203125" lon="0.84268410690128803253173828125">
        <ele>1491.199951171875</ele>
        <time>2020-08-14T09:34:20.000Z</time>
      </trkpt>
      <trkpt lat="42.400884144008159637451171875" lon="0.84267002530395984649658203125">
        <ele>1491.4000244140625</ele>
        <time>2020-08-14T09:34:23.000Z</time>
      </trkpt>
      <trkpt lat="42.400985397398471832275390625" lon="0.84261336363852024078369140625">
        <ele>1492.199951171875</ele>
        <time>2020-08-14T09:34:30.000Z</time>
      </trkpt>
      <trkpt lat="42.40108422003686428070068359375" lon="0.84248654544353485107421875">
        <ele>1493.199951171875</ele>
        <time>2020-08-14T09:34:39.000Z</time>
      </trkpt>
      <trkpt lat="42.40109209902584552764892578125" lon="0.84246852435171604156494140625">
        <ele>1493.4000244140625</ele>
        <time>2020-08-14T09:34:40.000Z</time>
      </trkpt>
      <trkpt lat="42.40114800631999969482421875" lon="0.84236861206591129302978515625">
        <ele>1494</ele>
        <time>2020-08-14T09:34:46.000Z</time>
      </trkpt>
      <trkpt lat="42.40116502158343791961669921875" lon="0.84231111221015453338623046875">
        <ele>1494.5999755859375</ele>
        <time>2020-08-14T09:34:49.000Z</time>
      </trkpt>
      <trkpt lat="42.40120542235672473907470703125" lon="0.84224539808928966522216796875">
        <ele>1495.199951171875</ele>
        <time>2020-08-14T09:34:53.000Z</time>
      </trkpt>
      <trkpt lat="42.40123023279011249542236328125" lon="0.8422201685607433319091796875">
        <ele>1495.199951171875</ele>
        <time>2020-08-14T09:34:55.000Z</time>
      </trkpt>
      <trkpt lat="42.401290833950042724609375" lon="0.84215453825891017913818359375">
        <ele>1495.5999755859375</ele>
        <time>2020-08-14T09:35:00.000Z</time>
      </trkpt>
      <trkpt lat="42.40130164660513401031494140625" lon="0.84214045666158199310302734375">
        <ele>1495.800048828125</ele>
        <time>2020-08-14T09:35:01.000Z</time>
      </trkpt>
      <trkpt lat="42.40136400796473026275634765625" lon="0.84205613471567630767822265625">
        <ele>1496.5999755859375</ele>
        <time>2020-08-14T09:35:07.000Z</time>
      </trkpt>
      <trkpt lat="42.401383034884929656982421875" lon="0.8420240320265293121337890625">
        <ele>1497.199951171875</ele>
        <time>2020-08-14T09:35:09.000Z</time>
      </trkpt>
      <trkpt lat="42.40141379646956920623779296875" lon="0.84198421798646450042724609375">
        <ele>1497.800048828125</ele>
        <time>2020-08-14T09:35:12.000Z</time>
      </trkpt>
      <trkpt lat="42.401444055140018463134765625" lon="0.8419428952038288116455078125">
        <ele>1498.199951171875</ele>
        <time>2020-08-14T09:35:15.000Z</time>
      </trkpt>
      <trkpt lat="42.4015099368989467620849609375" lon="0.84186821244657039642333984375">
        <ele>1498.800048828125</ele>
        <time>2020-08-14T09:35:21.000Z</time>
      </trkpt>
      <trkpt lat="42.40152728743851184844970703125" lon="0.841835774481296539306640625">
        <ele>1498.800048828125</ele>
        <time>2020-08-14T09:35:23.000Z</time>
      </trkpt>
      <trkpt lat="42.4015806801617145538330078125" lon="0.841733850538730621337890625">
        <ele>1499.5999755859375</ele>
        <time>2020-08-14T09:35:29.000Z</time>
      </trkpt>
      <trkpt lat="42.40162133239209651947021484375" lon="0.84169797599315643310546875">
        <ele>1500</ele>
        <time>2020-08-14T09:35:32.000Z</time>
      </trkpt>
      <trkpt lat="42.40170900709927082061767578125" lon="0.841654054820537567138671875">
        <ele>1500.5999755859375</ele>
        <time>2020-08-14T09:35:38.000Z</time>
      </trkpt>
      <trkpt lat="42.40174052305519580841064453125" lon="0.84164910949766635894775390625">
        <ele>1500.5999755859375</ele>
        <time>2020-08-14T09:35:40.000Z</time>
      </trkpt>
      <trkpt lat="42.40175552666187286376953125" lon="0.841646678745746612548828125">
        <ele>1500.800048828125</ele>
        <time>2020-08-14T09:35:41.000Z</time>
      </trkpt>
      <trkpt lat="42.4018478952348232269287109375" lon="0.8416374586522579193115234375">
        <ele>1501.800048828125</ele>
        <time>2020-08-14T09:35:47.000Z</time>
      </trkpt>
      <trkpt lat="42.40186281502246856689453125" lon="0.84163988940417766571044921875">
        <ele>1502</ele>
        <time>2020-08-14T09:35:48.000Z</time>
      </trkpt>
      <trkpt lat="42.40197840146720409393310546875" lon="0.841658413410186767578125">
        <ele>1502.5999755859375</ele>
        <time>2020-08-14T09:35:56.000Z</time>
      </trkpt>
      <trkpt lat="42.40200790576636791229248046875" lon="0.84166486747562885284423828125">
        <ele>1503</ele>
        <time>2020-08-14T09:35:58.000Z</time>
      </trkpt>
      <trkpt lat="42.40210513584315776824951171875" lon="0.84167827852070331573486328125">
        <ele>1504.4000244140625</ele>
        <time>2020-08-14T09:36:05.000Z</time>
      </trkpt>
      <trkpt lat="42.4022602848708629608154296875" lon="0.841711722314357757568359375">
        <ele>1505.4000244140625</ele>
        <time>2020-08-14T09:36:16.000Z</time>
      </trkpt>
      <trkpt lat="42.40227512083947658538818359375" lon="0.8417118899524211883544921875">
        <ele>1505.5999755859375</ele>
        <time>2020-08-14T09:36:17.000Z</time>
      </trkpt>
      <trkpt lat="42.4023994244635105133056640625" lon="0.841729827225208282470703125">
        <ele>1506</ele>
        <time>2020-08-14T09:36:26.000Z</time>
      </trkpt>
      <trkpt lat="42.402439825236797332763671875" lon="0.8417289890348911285400390625">
        <ele>1506.4000244140625</ele>
        <time>2020-08-14T09:36:29.000Z</time>
      </trkpt>
      <trkpt lat="42.4024782143533229827880859375" lon="0.84172219969332218170166015625">
        <ele>1507.4000244140625</ele>
        <time>2020-08-14T09:36:32.000Z</time>
      </trkpt>
      <trkpt lat="42.40254417993128299713134765625" lon="0.84173175506293773651123046875">
        <ele>1507.800048828125</ele>
        <time>2020-08-14T09:36:37.000Z</time>
      </trkpt>
      <trkpt lat="42.40262732841074466705322265625" lon="0.841733850538730621337890625">
        <ele>1508.4000244140625</ele>
        <time>2020-08-14T09:36:43.000Z</time>
      </trkpt>
      <trkpt lat="42.40264157764613628387451171875" lon="0.8417323417961597442626953125">
        <ele>1508.4000244140625</ele>
        <time>2020-08-14T09:36:44.000Z</time>
      </trkpt>
      <trkpt lat="42.40273654460906982421875" lon="0.84172002039849758148193359375">
        <ele>1509.4000244140625</ele>
        <time>2020-08-14T09:36:51.000Z</time>
      </trkpt>
      <trkpt lat="42.40276277996599674224853515625" lon="0.84170510061085224151611328125">
        <ele>1509.5999755859375</ele>
        <time>2020-08-14T09:36:53.000Z</time>
      </trkpt>
      <trkpt lat="42.40288364700973033905029296875" lon="0.84166335873305797576904296875">
        <ele>1510.199951171875</ele>
        <time>2020-08-14T09:37:01.000Z</time>
      </trkpt>
      <trkpt lat="42.40292538888752460479736328125" lon="0.84165078587830066680908203125">
        <ele>1510.800048828125</ele>
        <time>2020-08-14T09:37:04.000Z</time>
      </trkpt>
      <trkpt lat="42.4030170030891895294189453125" lon="0.8416012488305568695068359375">
        <ele>1511.800048828125</ele>
        <time>2020-08-14T09:37:11.000Z</time>
      </trkpt>
      <trkpt lat="42.4030921049416065216064453125" lon="0.84154400043189525604248046875">
        <ele>1513</ele>
        <time>2020-08-14T09:37:17.000Z</time>
      </trkpt>
      <trkpt lat="42.403162010014057159423828125" lon="0.84146956913173198699951171875">
        <ele>1514.199951171875</ele>
        <time>2020-08-14T09:37:23.000Z</time>
      </trkpt>
      <trkpt lat="42.4032537080347537994384765625" lon="0.8413390628993511199951171875">
        <ele>1514.5999755859375</ele>
        <time>2020-08-14T09:37:32.000Z</time>
      </trkpt>
      <trkpt lat="42.40331095643341541290283203125" lon="0.841263793408870697021484375">
        <ele>1515.4000244140625</ele>
        <time>2020-08-14T09:37:37.000Z</time>
      </trkpt>
      <trkpt lat="42.40335973910987377166748046875" lon="0.8411957323551177978515625">
        <ele>1516.199951171875</ele>
        <time>2020-08-14T09:37:41.000Z</time>
      </trkpt>
      <trkpt lat="42.4033710546791553497314453125" lon="0.841179303824901580810546875">
        <ele>1516.4000244140625</ele>
        <time>2020-08-14T09:37:42.000Z</time>
      </trkpt>
      <trkpt lat="42.403446994721889495849609375" lon="0.84109053947031497955322265625">
        <ele>1517.4000244140625</ele>
        <time>2020-08-14T09:37:49.000Z</time>
      </trkpt>
      <trkpt lat="42.40348245017230510711669921875" lon="0.84105583839118480682373046875">
        <ele>1517.5999755859375</ele>
        <time>2020-08-14T09:37:52.000Z</time>
      </trkpt>
      <trkpt lat="42.4035105295479297637939453125" lon="0.84103890694677829742431640625">
        <ele>1518</ele>
        <time>2020-08-14T09:37:55.000Z</time>
      </trkpt>
      <trkpt lat="42.40350508131086826324462890625" lon="0.841043181717395782470703125">
        <ele>1518</ele>
        <time>2020-08-14T09:38:02.000Z</time>
      </trkpt>
      <trkpt lat="42.4035460688173770904541015625" lon="0.84101342596113681793212890625">
        <ele>1518</ele>
        <time>2020-08-14T09:38:06.000Z</time>
      </trkpt>
      <trkpt lat="42.40365629084408283233642578125" lon="0.8409645594656467437744140625">
        <ele>1518.4000244140625</ele>
        <time>2020-08-14T09:38:12.000Z</time>
      </trkpt>
      <trkpt lat="42.4036748148500919342041015625" lon="0.8409585244953632354736328125">
        <ele>1518.5999755859375</ele>
        <time>2020-08-14T09:38:13.000Z</time>
      </trkpt>
      <trkpt lat="42.40379693917930126190185546875" lon="0.8409256674349308013916015625">
        <ele>1519</ele>
        <time>2020-08-14T09:38:20.000Z</time>
      </trkpt>
      <trkpt lat="42.403810434043407440185546875" lon="0.84091586060822010040283203125">
        <ele>1519</ele>
        <time>2020-08-14T09:38:21.000Z</time>
      </trkpt>
      <trkpt lat="42.40382258780300617218017578125" lon="0.84090278483927249908447265625">
        <ele>1519.199951171875</ele>
        <time>2020-08-14T09:38:24.000Z</time>
      </trkpt>
      <trkpt lat="42.40387941710650920867919921875" lon="0.84089742042124271392822265625">
        <ele>1519.199951171875</ele>
        <time>2020-08-14T09:41:26.000Z</time>
      </trkpt>
      <trkpt lat="42.40387958474457263946533203125" lon="0.84089742042124271392822265625">
        <ele>1519.199951171875</ele>
        <time>2020-08-14T09:41:28.000Z</time>
      </trkpt>
      <trkpt lat="42.40390707738697528839111328125" lon="0.84086037240922451019287109375">
        <ele>1519.4000244140625</ele>
        <time>2020-08-14T09:41:31.000Z</time>
      </trkpt>
      <trkpt lat="42.404006905853748321533203125" lon="0.840768925845623016357421875">
        <ele>1519.4000244140625</ele>
        <time>2020-08-14T09:41:39.000Z</time>
      </trkpt>
      <trkpt lat="42.404105477035045623779296875" lon="0.84067873656749725341796875">
        <ele>1519.800048828125</ele>
        <time>2020-08-14T09:41:46.000Z</time>
      </trkpt>
      <trkpt lat="42.40420832298696041107177734375" lon="0.8405628986656665802001953125">
        <ele>1519.800048828125</ele>
        <time>2020-08-14T09:41:53.000Z</time>
      </trkpt>
      <trkpt lat="42.40434293635189533233642578125" lon="0.840551666915416717529296875">
        <ele>1520</ele>
        <time>2020-08-14T09:41:59.000Z</time>
      </trkpt>
      <trkpt lat="42.40447738207876682281494140625" lon="0.84052425809204578399658203125">
        <ele>1519.199951171875</ele>
        <time>2020-08-14T09:42:03.000Z</time>
      </trkpt>
      <trkpt lat="42.40465206094086170196533203125" lon="0.84032946266233921051025390625">
        <ele>1518.4000244140625</ele>
        <time>2020-08-14T09:42:09.000Z</time>
      </trkpt>
      <trkpt lat="42.40478700958192348480224609375" lon="0.84018395282328128814697265625">
        <ele>1518.5999755859375</ele>
        <time>2020-08-14T09:42:15.000Z</time>
      </trkpt>
      <trkpt lat="42.4049528874456882476806640625" lon="0.8400710485875606536865234375">
        <ele>1519</ele>
        <time>2020-08-14T09:42:23.000Z</time>
      </trkpt>
      <trkpt lat="42.4051144905388355255126953125" lon="0.83995948545634746551513671875">
        <ele>1518.800048828125</ele>
        <time>2020-08-14T09:42:31.000Z</time>
      </trkpt>
      <trkpt lat="42.40527852438390254974365234375" lon="0.8398212678730487823486328125">
        <ele>1519.4000244140625</ele>
        <time>2020-08-14T09:42:40.000Z</time>
      </trkpt>
      <trkpt lat="42.40545722655951976776123046875" lon="0.8398031629621982574462890625">
        <ele>1519.5999755859375</ele>
        <time>2020-08-14T09:42:48.000Z</time>
      </trkpt>
      <trkpt lat="42.4056480824947357177734375" lon="0.83971238695085048675537109375">
        <ele>1520</ele>
        <time>2020-08-14T09:42:57.000Z</time>
      </trkpt>
      <trkpt lat="42.40569242276251316070556640625" lon="0.8396925218403339385986328125">
        <ele>1520.4000244140625</ele>
        <time>2020-08-14T09:42:59.000Z</time>
      </trkpt>
      <trkpt lat="42.4058349989354610443115234375" lon="0.8396561443805694580078125">
        <ele>1520.800048828125</ele>
        <time>2020-08-14T09:43:05.000Z</time>
      </trkpt>
      <trkpt lat="42.40606826730072498321533203125" lon="0.8396110497415065765380859375">
        <ele>1520</ele>
        <time>2020-08-14T09:43:13.000Z</time>
      </trkpt>
      <trkpt lat="42.40623339079320430755615234375" lon="0.8395181782543659210205078125">
        <ele>1519.199951171875</ele>
        <time>2020-08-14T09:43:19.000Z</time>
      </trkpt>
      <trkpt lat="42.4062634818255901336669921875" lon="0.83949781022965908050537109375">
        <ele>1519</ele>
        <time>2020-08-14T09:43:20.000Z</time>
      </trkpt>
      <trkpt lat="42.4064334668219089508056640625" lon="0.8393932878971099853515625">
        <ele>1518.800048828125</ele>
        <time>2020-08-14T09:43:25.000Z</time>
      </trkpt>
      <trkpt lat="42.40667025558650493621826171875" lon="0.8393833972513675689697265625">
        <ele>1518</ele>
        <time>2020-08-14T09:43:31.000Z</time>
      </trkpt>
      <trkpt lat="42.40689153783023357391357421875" lon="0.8392918668687343597412109375">
        <ele>1517.800048828125</ele>
        <time>2020-08-14T09:43:37.000Z</time>
      </trkpt>
      <trkpt lat="42.40704216063022613525390625" lon="0.83911098539829254150390625">
        <ele>1517.199951171875</ele>
        <time>2020-08-14T09:43:42.000Z</time>
      </trkpt>
      <trkpt lat="42.40710041485726833343505859375" lon="0.8390392363071441650390625">
        <ele>1516.800048828125</ele>
        <time>2020-08-14T09:43:44.000Z</time>
      </trkpt>
      <trkpt lat="42.407232932746410369873046875" lon="0.83893395960330963134765625">
        <ele>1516</ele>
        <time>2020-08-14T09:43:48.000Z</time>
      </trkpt>
      <trkpt lat="42.40730929188430309295654296875" lon="0.838884003460407257080078125">
        <ele>1515.5999755859375</ele>
        <time>2020-08-14T09:43:50.000Z</time>
      </trkpt>
      <trkpt lat="42.40738791413605213165283203125" lon="0.83880060352385044097900390625">
        <ele>1515</ele>
        <time>2020-08-14T09:43:53.000Z</time>
      </trkpt>
      <trkpt lat="42.40748497657477855682373046875" lon="0.83872164599597454071044921875">
        <ele>1514.800048828125</ele>
        <time>2020-08-14T09:43:57.000Z</time>
      </trkpt>
      <trkpt lat="42.4075093679130077362060546875" lon="0.83872902207076549530029296875">
        <ele>1515</ele>
        <time>2020-08-14T09:43:58.000Z</time>
      </trkpt>
      <trkpt lat="42.4075417220592498779296875" lon="0.83881518803536891937255859375">
        <ele>1515.199951171875</ele>
        <time>2020-08-14T09:44:01.000Z</time>
      </trkpt>
      <trkpt lat="42.4075465835630893707275390625" lon="0.83885408006608486175537109375">
        <ele>1515.199951171875</ele>
        <time>2020-08-14T09:44:02.000Z</time>
      </trkpt>
      <trkpt lat="42.40755102597177028656005859375" lon="0.83889565430581569671630859375">
        <ele>1514.5999755859375</ele>
        <time>2020-08-14T09:44:03.000Z</time>
      </trkpt>
      <trkpt lat="42.40755655802786350250244140625" lon="0.8390338718891143798828125">
        <ele>1513.4000244140625</ele>
        <time>2020-08-14T09:44:06.000Z</time>
      </trkpt>
      <trkpt lat="42.40755974315106868743896484375" lon="0.8390809781849384307861328125">
        <ele>1513</ele>
        <time>2020-08-14T09:44:07.000Z</time>
      </trkpt>
      <trkpt lat="42.407596372067928314208984375" lon="0.8393307588994503021240234375">
        <ele>1512.800048828125</ele>
        <time>2020-08-14T09:44:12.000Z</time>
      </trkpt>
      <trkpt lat="42.40762042813003063201904296875" lon="0.8394863270223140716552734375">
        <ele>1512</ele>
        <time>2020-08-14T09:44:15.000Z</time>
      </trkpt>
      <trkpt lat="42.40764875896275043487548828125" lon="0.83964147605001926422119140625">
        <ele>1511.800048828125</ele>
        <time>2020-08-14T09:44:18.000Z</time>
      </trkpt>
      <trkpt lat="42.4076961167156696319580078125" lon="0.8398879878222942352294921875">
        <ele>1510.800048828125</ele>
        <time>2020-08-14T09:44:23.000Z</time>
      </trkpt>
      <trkpt lat="42.407713048160076141357421875" lon="0.8399366028606891632080078125">
        <ele>1510.800048828125</ele>
        <time>2020-08-14T09:44:24.000Z</time>
      </trkpt>
      <trkpt lat="42.4077832885086536407470703125" lon="0.84018277935683727264404296875">
        <ele>1510.199951171875</ele>
        <time>2020-08-14T09:44:29.000Z</time>
      </trkpt>
      <trkpt lat="42.40791748277842998504638671875" lon="0.840338431298732757568359375">
        <ele>1510.199951171875</ele>
        <time>2020-08-14T09:44:34.000Z</time>
      </trkpt>
      <trkpt lat="42.407943718135356903076171875" lon="0.84035217761993408203125">
        <ele>1509.800048828125</ele>
        <time>2020-08-14T09:44:35.000Z</time>
      </trkpt>
      <trkpt lat="42.408076822757720947265625" lon="0.84037723951041698455810546875">
        <ele>1509.4000244140625</ele>
        <time>2020-08-14T09:44:39.000Z</time>
      </trkpt>
      <trkpt lat="42.4081425368785858154296875" lon="0.840445049107074737548828125">
        <ele>1509.199951171875</ele>
        <time>2020-08-14T09:44:41.000Z</time>
      </trkpt>
      <trkpt lat="42.408194839954376220703125" lon="0.840536914765834808349609375">
        <ele>1508.5999755859375</ele>
        <time>2020-08-14T09:44:43.000Z</time>
      </trkpt>
      <trkpt lat="42.40826524794101715087890625" lon="0.84074788726866245269775390625">
        <ele>1508</ele>
        <time>2020-08-14T09:44:47.000Z</time>
      </trkpt>
      <trkpt lat="42.4082768149673938751220703125" lon="0.8407942391932010650634765625">
        <ele>1507.5999755859375</ele>
        <time>2020-08-14T09:44:48.000Z</time>
      </trkpt>
      <trkpt lat="42.40837362594902515411376953125" lon="0.84114938043057918548583984375">
        <ele>1507.199951171875</ele>
        <time>2020-08-14T09:44:56.000Z</time>
      </trkpt>
      <trkpt lat="42.4084927327930927276611328125" lon="0.84154651500284671783447265625">
        <ele>1506.5999755859375</ele>
        <time>2020-08-14T09:45:04.000Z</time>
      </trkpt>
      <trkpt lat="42.4085128493607044219970703125" lon="0.84159613586962223052978515625">
        <ele>1506.4000244140625</ele>
        <time>2020-08-14T09:45:05.000Z</time>
      </trkpt>
      <trkpt lat="42.40853623487055301666259765625" lon="0.84164290688931941986083984375">
        <ele>1506.4000244140625</ele>
        <time>2020-08-14T09:45:06.000Z</time>
      </trkpt>
      <trkpt lat="42.408599518239498138427734375" lon="0.84178238175809383392333984375">
        <ele>1505.4000244140625</ele>
        <time>2020-08-14T09:45:09.000Z</time>
      </trkpt>
      <trkpt lat="42.40864436142146587371826171875" lon="0.8419395424425601959228515625">
        <ele>1505.199951171875</ele>
        <time>2020-08-14T09:45:12.000Z</time>
      </trkpt>
      <trkpt lat="42.4086762964725494384765625" lon="0.84210257045924663543701171875">
        <ele>1505.4000244140625</ele>
        <time>2020-08-14T09:45:15.000Z</time>
      </trkpt>
      <trkpt lat="42.40868744440376758575439453125" lon="0.842156969010829925537109375">
        <ele>1505</ele>
        <time>2020-08-14T09:45:16.000Z</time>
      </trkpt>
      <trkpt lat="42.40869498811662197113037109375" lon="0.84221430122852325439453125">
        <ele>1504.800048828125</ele>
        <time>2020-08-14T09:45:17.000Z</time>
      </trkpt>
      <trkpt lat="42.4087012745440006256103515625" lon="0.84233122877776622772216796875">
        <ele>1504.199951171875</ele>
        <time>2020-08-14T09:45:19.000Z</time>
      </trkpt>
      <trkpt lat="42.4087032862007617950439453125" lon="0.842516385018825531005859375">
        <ele>1503.4000244140625</ele>
        <time>2020-08-14T09:45:22.000Z</time>
      </trkpt>
      <trkpt lat="42.40870219655334949493408203125" lon="0.84258536808192729949951171875">
        <ele>1503.4000244140625</ele>
        <time>2020-08-14T09:45:23.000Z</time>
      </trkpt>
      <trkpt lat="42.40869515575468540191650390625" lon="0.84281645715236663818359375">
        <ele>1502.199951171875</ele>
        <time>2020-08-14T09:45:26.000Z</time>
      </trkpt>
      <trkpt lat="42.40869113244116306304931640625" lon="0.842894576489925384521484375">
        <ele>1502</ele>
        <time>2020-08-14T09:45:27.000Z</time>
      </trkpt>
      <trkpt lat="42.408689372241497039794921875" lon="0.843387432396411895751953125">
        <ele>1501.4000244140625</ele>
        <time>2020-08-14T09:45:34.000Z</time>
      </trkpt>
      <trkpt lat="42.4086855165660381317138671875" lon="0.843506120145320892333984375">
        <ele>1501</ele>
        <time>2020-08-14T09:45:36.000Z</time>
      </trkpt>
      <trkpt lat="42.40864813327789306640625" lon="0.84371340461075305938720703125">
        <ele>1501</ele>
        <time>2020-08-14T09:45:40.000Z</time>
      </trkpt>
      <trkpt lat="42.4086164496839046478271484375" lon="0.84399587474763393402099609375">
        <ele>1501</ele>
        <time>2020-08-14T09:45:46.000Z</time>
      </trkpt>
      <trkpt lat="42.4086576886475086212158203125" lon="0.8442878164350986480712890625">
        <ele>1500.800048828125</ele>
        <time>2020-08-14T09:45:53.000Z</time>
      </trkpt>
      <trkpt lat="42.40865886211395263671875" lon="0.8446750603616237640380859375">
        <ele>1500</ele>
        <time>2020-08-14T09:46:01.000Z</time>
      </trkpt>
      <trkpt lat="42.4086640588939189910888671875" lon="0.84472577087581157684326171875">
        <ele>1499.800048828125</ele>
        <time>2020-08-14T09:46:02.000Z</time>
      </trkpt>
      <trkpt lat="42.4087039567530155181884765625" lon="0.845000445842742919921875">
        <ele>1499.4000244140625</ele>
        <time>2020-08-14T09:46:08.000Z</time>
      </trkpt>
      <trkpt lat="42.40870705805718898773193359375" lon="0.84509189240634441375732421875">
        <ele>1499</ele>
        <time>2020-08-14T09:46:10.000Z</time>
      </trkpt>
      <trkpt lat="42.40870789624750614166259765625" lon="0.8451387472450733184814453125">
        <ele>1498.800048828125</ele>
        <time>2020-08-14T09:46:11.000Z</time>
      </trkpt>
      <trkpt lat="42.408714853227138519287109375" lon="0.8452329598367214202880859375">
        <ele>1497.800048828125</ele>
        <time>2020-08-14T09:46:13.000Z</time>
      </trkpt>
      <trkpt lat="42.40871761925518512725830078125" lon="0.8453248254954814910888671875">
        <ele>1496.4000244140625</ele>
        <time>2020-08-14T09:46:15.000Z</time>
      </trkpt>
      <trkpt lat="42.40871795453131198883056640625" lon="0.84560402669012546539306640625">
        <ele>1495.5999755859375</ele>
        <time>2020-08-14T09:46:21.000Z</time>
      </trkpt>
      <trkpt lat="42.40871007554233074188232421875" lon="0.84568851627409458160400390625">
        <ele>1494.5999755859375</ele>
        <time>2020-08-14T09:46:23.000Z</time>
      </trkpt>
      <trkpt lat="42.40869037806987762451171875" lon="0.8457673899829387664794921875">
        <ele>1494</ele>
        <time>2020-08-14T09:46:25.000Z</time>
      </trkpt>
      <trkpt lat="42.40862323902547359466552734375" lon="0.84587375633418560028076171875">
        <ele>1493.199951171875</ele>
        <time>2020-08-14T09:46:28.000Z</time>
      </trkpt>
      <trkpt lat="42.40857277996838092803955078125" lon="0.8459367044270038604736328125">
        <ele>1493.199951171875</ele>
        <time>2020-08-14T09:46:30.000Z</time>
      </trkpt>
      <trkpt lat="42.40853975526988506317138671875" lon="0.84600560367107391357421875">
        <ele>1492</ele>
        <time>2020-08-14T09:46:32.000Z</time>
      </trkpt>
      <trkpt lat="42.40853824652731418609619140625" lon="0.84604374133050441741943359375">
        <ele>1491.800048828125</ele>
        <time>2020-08-14T09:46:33.000Z</time>
      </trkpt>
      <trkpt lat="42.40859105251729488372802734375" lon="0.84610895253717899322509765625">
        <ele>1491.199951171875</ele>
        <time>2020-08-14T09:46:36.000Z</time>
      </trkpt>
      <trkpt lat="42.408677637577056884765625" lon="0.84604960866272449493408203125">
        <ele>1490.5999755859375</ele>
        <time>2020-08-14T09:46:40.000Z</time>
      </trkpt>
      <trkpt lat="42.40881904028356075286865234375" lon="0.8459199406206607818603515625">
        <ele>1489.800048828125</ele>
        <time>2020-08-14T09:46:46.000Z</time>
      </trkpt>
      <trkpt lat="42.40896823816001415252685546875" lon="0.84592513740062713623046875">
        <ele>1488.4000244140625</ele>
        <time>2020-08-14T09:46:51.000Z</time>
      </trkpt>
      <trkpt lat="42.40915699861943721771240234375" lon="0.8459494449198246002197265625">
        <ele>1487.5999755859375</ele>
        <time>2020-08-14T09:46:57.000Z</time>
      </trkpt>
      <trkpt lat="42.40923352539539337158203125" lon="0.8459605090320110321044921875">
        <ele>1486.800048828125</ele>
        <time>2020-08-14T09:46:59.000Z</time>
      </trkpt>
      <trkpt lat="42.409342825412750244140625" lon="0.84599780850112438201904296875">
        <ele>1485.800048828125</ele>
        <time>2020-08-14T09:47:02.000Z</time>
      </trkpt>
      <trkpt lat="42.40937543101608753204345703125" lon="0.8460102975368499755859375">
        <ele>1485.4000244140625</ele>
        <time>2020-08-14T09:47:03.000Z</time>
      </trkpt>
      <trkpt lat="42.4095515348017215728759765625" lon="0.846067629754543304443359375">
        <ele>1484</ele>
        <time>2020-08-14T09:47:08.000Z</time>
      </trkpt>
      <trkpt lat="42.4095887504518032073974609375" lon="0.84608900360763072967529296875">
        <ele>1483.800048828125</ele>
        <time>2020-08-14T09:47:09.000Z</time>
      </trkpt>
      <trkpt lat="42.40980626083910465240478515625" lon="0.8461703918874263763427734375">
        <ele>1482.800048828125</ele>
        <time>2020-08-14T09:47:15.000Z</time>
      </trkpt>
      <trkpt lat="42.4099106155335903167724609375" lon="0.84612202830612659454345703125">
        <ele>1481.4000244140625</ele>
        <time>2020-08-14T09:47:18.000Z</time>
      </trkpt>
      <trkpt lat="42.40994456224143505096435546875" lon="0.84610216319561004638671875">
        <ele>1481</ele>
        <time>2020-08-14T09:47:19.000Z</time>
      </trkpt>
      <trkpt lat="42.41004967130720615386962890625" lon="0.84605715237557888031005859375">
        <ele>1480.199951171875</ele>
        <time>2020-08-14T09:47:22.000Z</time>
      </trkpt>
      <trkpt lat="42.41012175567448139190673828125" lon="0.84600870497524738311767578125">
        <ele>1479</ele>
        <time>2020-08-14T09:47:24.000Z</time>
      </trkpt>
      <trkpt lat="42.41015486419200897216796875" lon="0.84597702138125896453857421875">
        <ele>1479</ele>
        <time>2020-08-14T09:47:25.000Z</time>
      </trkpt>
      <trkpt lat="42.41032593883574008941650390625" lon="0.84581458009779453277587890625">
        <ele>1478.800048828125</ele>
        <time>2020-08-14T09:47:30.000Z</time>
      </trkpt>
      <trkpt lat="42.41041260771453380584716796875" lon="0.845784656703472137451171875">
        <ele>1478.5999755859375</ele>
        <time>2020-08-14T09:47:32.000Z</time>
      </trkpt>
      <trkpt lat="42.410456947982311248779296875" lon="0.84577468223869800567626953125">
        <ele>1478.5999755859375</ele>
        <time>2020-08-14T09:47:33.000Z</time>
      </trkpt>
      <trkpt lat="42.41059415973722934722900390625" lon="0.84575959481298923492431640625">
        <ele>1478.4000244140625</ele>
        <time>2020-08-14T09:47:36.000Z</time>
      </trkpt>
      <trkpt lat="42.410779483616352081298828125" lon="0.84571324288845062255859375">
        <ele>1478.199951171875</ele>
        <time>2020-08-14T09:47:41.000Z</time>
      </trkpt>
      <trkpt lat="42.41080437786877155303955078125" lon="0.845683403313159942626953125">
        <ele>1478</ele>
        <time>2020-08-14T09:47:42.000Z</time>
      </trkpt>
      <trkpt lat="42.41084645502269268035888671875" lon="0.84556303918361663818359375">
        <ele>1477.199951171875</ele>
        <time>2020-08-14T09:47:45.000Z</time>
      </trkpt>
      <trkpt lat="42.41086740978062152862548828125" lon="0.84548165090382099151611328125">
        <ele>1476.800048828125</ele>
        <time>2020-08-14T09:47:47.000Z</time>
      </trkpt>
      <trkpt lat="42.410899512469768524169921875" lon="0.8453332073986530303955078125">
        <ele>1475.800048828125</ele>
        <time>2020-08-14T09:47:51.000Z</time>
      </trkpt>
      <trkpt lat="42.41091619245707988739013671875" lon="0.84529490210115909576416015625">
        <ele>1475.5999755859375</ele>
        <time>2020-08-14T09:47:52.000Z</time>
      </trkpt>
      <trkpt lat="42.4110079742968082427978515625" lon="0.84514084272086620330810546875">
        <ele>1475</ele>
        <time>2020-08-14T09:47:56.000Z</time>
      </trkpt>
      <trkpt lat="42.4110968224704265594482421875" lon="0.8450522460043430328369140625">
        <ele>1474.5999755859375</ele>
        <time>2020-08-14T09:47:59.000Z</time>
      </trkpt>
      <trkpt lat="42.41119966842234134674072265625" lon="0.8449664153158664703369140625">
        <ele>1473.800048828125</ele>
        <time>2020-08-14T09:48:02.000Z</time>
      </trkpt>
      <trkpt lat="42.41123168729245662689208984375" lon="0.8449369110167026519775390625">
        <ele>1473.4000244140625</ele>
        <time>2020-08-14T09:48:03.000Z</time>
      </trkpt>
      <trkpt lat="42.41130150854587554931640625" lon="0.844884775578975677490234375">
        <ele>1472.800048828125</ele>
        <time>2020-08-14T09:48:05.000Z</time>
      </trkpt>
      <trkpt lat="42.411421202123165130615234375" lon="0.8448209054768085479736328125">
        <ele>1472.4000244140625</ele>
        <time>2020-08-14T09:48:08.000Z</time>
      </trkpt>
      <trkpt lat="42.41146068088710308074951171875" lon="0.8447981067001819610595703125">
        <ele>1472.4000244140625</ele>
        <time>2020-08-14T09:48:09.000Z</time>
      </trkpt>
      <trkpt lat="42.41157433949410915374755859375" lon="0.84477036260068416595458984375">
        <ele>1471.199951171875</ele>
        <time>2020-08-14T09:48:12.000Z</time>
      </trkpt>
      <trkpt lat="42.411611974239349365234375" lon="0.84477656520903110504150390625">
        <ele>1471</ele>
        <time>2020-08-14T09:48:13.000Z</time>
      </trkpt>
      <trkpt lat="42.411682717502117156982421875" lon="0.84480372257530689239501953125">
        <ele>1470.800048828125</ele>
        <time>2020-08-14T09:48:15.000Z</time>
      </trkpt>
      <trkpt lat="42.4118257127702236175537109375" lon="0.844834148883819580078125">
        <ele>1469.800048828125</ele>
        <time>2020-08-14T09:48:19.000Z</time>
      </trkpt>
      <trkpt lat="42.4119159020483493804931640625" lon="0.844818390905857086181640625">
        <ele>1468.800048828125</ele>
        <time>2020-08-14T09:48:22.000Z</time>
      </trkpt>
      <trkpt lat="42.41193543188273906707763671875" lon="0.84479718469083309173583984375">
        <ele>1468.199951171875</ele>
        <time>2020-08-14T09:48:23.000Z</time>
      </trkpt>
      <trkpt lat="42.4119651876389980316162109375" lon="0.84473264403641223907470703125">
        <ele>1467.4000244140625</ele>
        <time>2020-08-14T09:48:25.000Z</time>
      </trkpt>
      <trkpt lat="42.41197398863732814788818359375" lon="0.84464983083307743072509765625">
        <ele>1466.800048828125</ele>
        <time>2020-08-14T09:48:27.000Z</time>
      </trkpt>
      <trkpt lat="42.411956973373889923095703125" lon="0.844504572451114654541015625">
        <ele>1466</ele>
        <time>2020-08-14T09:48:30.000Z</time>
      </trkpt>
      <trkpt lat="42.41192738525569438934326171875" lon="0.8444065041840076446533203125">
        <ele>1465.4000244140625</ele>
        <time>2020-08-14T09:48:32.000Z</time>
      </trkpt>
      <trkpt lat="42.4119128845632076263427734375" lon="0.84435964934527873992919921875">
        <ele>1464.800048828125</ele>
        <time>2020-08-14T09:48:33.000Z</time>
      </trkpt>
      <trkpt lat="42.411897294223308563232421875" lon="0.8441595733165740966796875">
        <ele>1464</ele>
        <time>2020-08-14T09:48:37.000Z</time>
      </trkpt>
      <trkpt lat="42.41192386485636234283447265625" lon="0.844045244157314300537109375">
        <ele>1463.5999755859375</ele>
        <time>2020-08-14T09:48:39.000Z</time>
      </trkpt>
      <trkpt lat="42.411960661411285400390625" lon="0.8439342677593231201171875">
        <ele>1463.199951171875</ele>
        <time>2020-08-14T09:48:41.000Z</time>
      </trkpt>
      <trkpt lat="42.4120008945465087890625" lon="0.84382622502744197845458984375">
        <ele>1462.4000244140625</ele>
        <time>2020-08-14T09:48:43.000Z</time>
      </trkpt>
      <trkpt lat="42.41204070858657360076904296875" lon="0.84371558390557765960693359375">
        <ele>1461.4000244140625</ele>
        <time>2020-08-14T09:48:45.000Z</time>
      </trkpt>
      <trkpt lat="42.4120972864329814910888671875" lon="0.84355431608855724334716796875">
        <ele>1460.5999755859375</ele>
        <time>2020-08-14T09:48:48.000Z</time>
      </trkpt>
      <trkpt lat="42.41215805523097515106201171875" lon="0.84339505992829799652099609375">
        <ele>1460</ele>
        <time>2020-08-14T09:48:51.000Z</time>
      </trkpt>
      <trkpt lat="42.41222578100860118865966796875" lon="0.8432182855904102325439453125">
        <ele>1458.5999755859375</ele>
        <time>2020-08-14T09:48:54.000Z</time>
      </trkpt>
      <trkpt lat="42.41228965111076831817626953125" lon="0.84302759729325771331787109375">
        <ele>1457.4000244140625</ele>
        <time>2020-08-14T09:48:57.000Z</time>
      </trkpt>
      <trkpt lat="42.41232904605567455291748046875" lon="0.8428950794041156768798828125">
        <ele>1456.199951171875</ele>
        <time>2020-08-14T09:48:59.000Z</time>
      </trkpt>
      <trkpt lat="42.41242091171443462371826171875" lon="0.8426020480692386627197265625">
        <ele>1455</ele>
        <time>2020-08-14T09:49:04.000Z</time>
      </trkpt>
      <trkpt lat="42.41243750788271427154541015625" lon="0.8425462245941162109375">
        <ele>1454.800048828125</ele>
        <time>2020-08-14T09:49:05.000Z</time>
      </trkpt>
      <trkpt lat="42.41245242767035961151123046875" lon="0.84248931147158145904541015625">
        <ele>1454.5999755859375</ele>
        <time>2020-08-14T09:49:06.000Z</time>
      </trkpt>
      <trkpt lat="42.41248025558888912200927734375" lon="0.84238135255873203277587890625">
        <ele>1453.800048828125</ele>
        <time>2020-08-14T09:49:08.000Z</time>
      </trkpt>
      <trkpt lat="42.41252702660858631134033203125" lon="0.84228948689997196197509765625">
        <ele>1453.199951171875</ele>
        <time>2020-08-14T09:49:10.000Z</time>
      </trkpt>
      <trkpt lat="42.4125998653471469879150390625" lon="0.8422238565981388092041015625">
        <ele>1452.5999755859375</ele>
        <time>2020-08-14T09:49:12.000Z</time>
      </trkpt>
      <trkpt lat="42.41268552839756011962890625" lon="0.8421666920185089111328125">
        <ele>1452</ele>
        <time>2020-08-14T09:49:14.000Z</time>
      </trkpt>
      <trkpt lat="42.41272551007568836212158203125" lon="0.84212939254939556121826171875">
        <ele>1451.5999755859375</ele>
        <time>2020-08-14T09:49:15.000Z</time>
      </trkpt>
      <trkpt lat="42.41278921253979206085205078125" lon="0.84197265096008777618408203125">
        <ele>1451</ele>
        <time>2020-08-14T09:49:18.000Z</time>
      </trkpt>
      <trkpt lat="42.41277404129505157470703125" lon="0.841853879392147064208984375">
        <ele>1450.4000244140625</ele>
        <time>2020-08-14T09:49:20.000Z</time>
      </trkpt>
      <trkpt lat="42.41275635547935962677001953125" lon="0.84180166013538837432861328125">
        <ele>1450.199951171875</ele>
        <time>2020-08-14T09:49:21.000Z</time>
      </trkpt>
      <trkpt lat="42.41272467188537120819091796875" lon="0.8416274003684520721435546875">
        <ele>1449</ele>
        <time>2020-08-14T09:49:24.000Z</time>
      </trkpt>
      <trkpt lat="42.41273422725498676300048828125" lon="0.84155984222888946533203125">
        <ele>1448.5999755859375</ele>
        <time>2020-08-14T09:49:25.000Z</time>
      </trkpt>
      <trkpt lat="42.41281888447701930999755859375" lon="0.8413715846836566925048828125">
        <ele>1447.5999755859375</ele>
        <time>2020-08-14T09:49:28.000Z</time>
      </trkpt>
      <trkpt lat="42.412858195602893829345703125" lon="0.84130964241921901702880859375">
        <ele>1447</ele>
        <time>2020-08-14T09:49:29.000Z</time>
      </trkpt>
      <trkpt lat="42.4128959141671657562255859375" lon="0.84125247783958911895751953125">
        <ele>1446.5999755859375</ele>
        <time>2020-08-14T09:49:30.000Z</time>
      </trkpt>
      <trkpt lat="42.412995994091033935546875" lon="0.841086097061634063720703125">
        <ele>1445</ele>
        <time>2020-08-14T09:49:33.000Z</time>
      </trkpt>
      <trkpt lat="42.41303228773176670074462890625" lon="0.84103890694677829742431640625">
        <ele>1444.4000244140625</ele>
        <time>2020-08-14T09:49:34.000Z</time>
      </trkpt>
      <trkpt lat="42.41311409510672092437744140625" lon="0.8409583568572998046875">
        <ele>1443.5999755859375</ele>
        <time>2020-08-14T09:49:36.000Z</time>
      </trkpt>
      <trkpt lat="42.41324954666197299957275390625" lon="0.8408845961093902587890625">
        <ele>1442.5999755859375</ele>
        <time>2020-08-14T09:49:39.000Z</time>
      </trkpt>
      <trkpt lat="42.41337946616113185882568359375" lon="0.84083522669970989227294921875">
        <ele>1442.4000244140625</ele>
        <time>2020-08-14T09:49:42.000Z</time>
      </trkpt>
      <trkpt lat="42.41344601847231388092041015625" lon="0.84076800383627414703369140625">
        <ele>1441.800048828125</ele>
        <time>2020-08-14T09:49:44.000Z</time>
      </trkpt>
      <trkpt lat="42.41347518749535083770751953125" lon="0.84072123281657695770263671875">
        <ele>1440.800048828125</ele>
        <time>2020-08-14T09:49:45.000Z</time>
      </trkpt>
      <trkpt lat="42.41351969540119171142578125" lon="0.84061679430305957794189453125">
        <ele>1439.4000244140625</ele>
        <time>2020-08-14T09:49:47.000Z</time>
      </trkpt>
      <trkpt lat="42.41352832876145839691162109375" lon="0.8405618928372859954833984375">
        <ele>1439.199951171875</ele>
        <time>2020-08-14T09:49:48.000Z</time>
      </trkpt>
      <trkpt lat="42.41353084333240985870361328125" lon="0.84050078876316547393798828125">
        <ele>1439</ele>
        <time>2020-08-14T09:49:49.000Z</time>
      </trkpt>
      <trkpt lat="42.4135445058345794677734375" lon="0.8402678556740283966064453125">
        <ele>1438.4000244140625</ele>
        <time>2020-08-14T09:49:53.000Z</time>
      </trkpt>
      <trkpt lat="42.4135624431073665618896484375" lon="0.8401434682309627532958984375">
        <ele>1437</ele>
        <time>2020-08-14T09:49:55.000Z</time>
      </trkpt>
      <trkpt lat="42.41361114196479320526123046875" lon="0.83996334113180637359619140625">
        <ele>1436</ele>
        <time>2020-08-14T09:49:58.000Z</time>
      </trkpt>
      <trkpt lat="42.41368859075009822845458984375" lon="0.8397525362670421600341796875">
        <ele>1435</ele>
        <time>2020-08-14T09:50:02.000Z</time>
      </trkpt>
      <trkpt lat="42.41371214389801025390625" lon="0.839704759418964385986328125">
        <ele>1434.4000244140625</ele>
        <time>2020-08-14T09:50:03.000Z</time>
      </trkpt>
      <trkpt lat="42.4138102121651172637939453125" lon="0.83956159651279449462890625">
        <ele>1433.5999755859375</ele>
        <time>2020-08-14T09:50:07.000Z</time>
      </trkpt>
      <trkpt lat="42.41381733678281307220458984375" lon="0.83952496759593486785888671875">
        <ele>1433.199951171875</ele>
        <time>2020-08-14T09:50:08.000Z</time>
      </trkpt>
      <trkpt lat="42.41379118524491786956787109375" lon="0.8394618518650531768798828125">
        <ele>1432.5999755859375</ele>
        <time>2020-08-14T09:50:10.000Z</time>
      </trkpt>
      <trkpt lat="42.4137646146118640899658203125" lon="0.8394504524767398834228515625">
        <ele>1432</ele>
        <time>2020-08-14T09:50:11.000Z</time>
      </trkpt>
      <trkpt lat="42.41371172480285167694091796875" lon="0.83948247134685516357421875">
        <ele>1431.5999755859375</ele>
        <time>2020-08-14T09:50:13.000Z</time>
      </trkpt>
      <trkpt lat="42.41366453468799591064453125" lon="0.83955380134284496307373046875">
        <ele>1431</ele>
        <time>2020-08-14T09:50:15.000Z</time>
      </trkpt>
      <trkpt lat="42.41363896988332271575927734375" lon="0.83958850242197513580322265625">
        <ele>1430.5999755859375</ele>
        <time>2020-08-14T09:50:16.000Z</time>
      </trkpt>
      <trkpt lat="42.413577027618885040283203125" lon="0.83964633755385875701904296875">
        <ele>1430</ele>
        <time>2020-08-14T09:50:18.000Z</time>
      </trkpt>
      <trkpt lat="42.41346831433475017547607421875" lon="0.8396861515939235687255859375">
        <ele>1429</ele>
        <time>2020-08-14T09:50:21.000Z</time>
      </trkpt>
      <trkpt lat="42.41343411616981029510498046875" lon="0.8396978862583637237548828125">
        <ele>1428.4000244140625</ele>
        <time>2020-08-14T09:50:22.000Z</time>
      </trkpt>
      <trkpt lat="42.4133988283574581146240234375" lon="0.839710794389247894287109375">
        <ele>1427.5999755859375</ele>
        <time>2020-08-14T09:50:23.000Z</time>
      </trkpt>
      <trkpt lat="42.41326698102056980133056640625" lon="0.8398091979324817657470703125">
        <ele>1426.5999755859375</ele>
        <time>2020-08-14T09:50:27.000Z</time>
      </trkpt>
      <trkpt lat="42.41323001682758331298828125" lon="0.840003490447998046875">
        <ele>1425.5999755859375</ele>
        <time>2020-08-14T09:50:31.000Z</time>
      </trkpt>
      <trkpt lat="42.413225658237934112548828125" lon="0.840058811008930206298828125">
        <ele>1425.4000244140625</ele>
        <time>2020-08-14T09:50:32.000Z</time>
      </trkpt>
      <trkpt lat="42.41320788860321044921875" lon="0.840225107967853546142578125">
        <ele>1424.4000244140625</ele>
        <time>2020-08-14T09:50:35.000Z</time>
      </trkpt>
      <trkpt lat="42.413181401789188385009765625" lon="0.84030968137085437774658203125">
        <ele>1423.800048828125</ele>
        <time>2020-08-14T09:50:37.000Z</time>
      </trkpt>
      <trkpt lat="42.4131306074559688568115234375" lon="0.84036466665565967559814453125">
        <ele>1423.199951171875</ele>
        <time>2020-08-14T09:50:39.000Z</time>
      </trkpt>
      <trkpt lat="42.4130970798432826995849609375" lon="0.84037221036851406097412109375">
        <ele>1422.800048828125</ele>
        <time>2020-08-14T09:50:40.000Z</time>
      </trkpt>
      <trkpt lat="42.413064725697040557861328125" lon="0.8403624035418033599853515625">
        <ele>1422.199951171875</ele>
        <time>2020-08-14T09:50:41.000Z</time>
      </trkpt>
      <trkpt lat="42.4130172841250896453857421875" lon="0.8403027243912220001220703125">
        <ele>1421.5999755859375</ele>
        <time>2020-08-14T09:50:43.000Z</time>
      </trkpt>
      <trkpt lat="42.41299909539520740509033203125" lon="0.84022133611142635345458984375">
        <ele>1421</ele>
        <time>2020-08-14T09:50:45.000Z</time>
      </trkpt>
      <trkpt lat="42.41300563327968120574951171875" lon="0.8401780016720294952392578125">
        <ele>1420.800048828125</ele>
        <time>2020-08-14T09:50:46.000Z</time>
      </trkpt>
      <trkpt lat="42.413053996860980987548828125" lon="0.83997256122529506683349609375">
        <ele>1419.800048828125</ele>
        <time>2020-08-14T09:50:50.000Z</time>
      </trkpt>
      <trkpt lat="42.41303379647433757781982421875" lon="0.83982571028172969818115234375">
        <ele>1418.5999755859375</ele>
        <time>2020-08-14T09:50:53.000Z</time>
      </trkpt>
      <trkpt lat="42.41302080452442169189453125" lon="0.83977860398590564727783203125">
        <ele>1417.800048828125</ele>
        <time>2020-08-14T09:50:54.000Z</time>
      </trkpt>
      <trkpt lat="42.4130085669457912445068359375" lon="0.83973367698490619659423828125">
        <ele>1417.199951171875</ele>
        <time>2020-08-14T09:50:55.000Z</time>
      </trkpt>
      <trkpt lat="42.41299339570105075836181640625" lon="0.83954977802932262420654296875">
        <ele>1415.800048828125</ele>
        <time>2020-08-14T09:50:59.000Z</time>
      </trkpt>
      <trkpt lat="42.41300328634679317474365234375" lon="0.839504934847354888916015625">
        <ele>1415</ele>
        <time>2020-08-14T09:51:00.000Z</time>
      </trkpt>
      <trkpt lat="42.41304083727300167083740234375" lon="0.8394206129014492034912109375">
        <ele>1414.4000244140625</ele>
        <time>2020-08-14T09:51:02.000Z</time>
      </trkpt>
      <trkpt lat="42.4130689166486263275146484375" lon="0.83938498981297016143798828125">
        <ele>1414.4000244140625</ele>
        <time>2020-08-14T09:51:03.000Z</time>
      </trkpt>
      <trkpt lat="42.41310152225196361541748046875" lon="0.8393478579819202423095703125">
        <ele>1414.199951171875</ele>
        <time>2020-08-14T09:51:04.000Z</time>
      </trkpt>
      <trkpt lat="42.41322926245629787445068359375" lon="0.83918206393718719482421875">
        <ele>1413.4000244140625</ele>
        <time>2020-08-14T09:51:08.000Z</time>
      </trkpt>
      <trkpt lat="42.41330109536647796630859375" lon="0.839035548269748687744140625">
        <ele>1412.4000244140625</ele>
        <time>2020-08-14T09:51:11.000Z</time>
      </trkpt>
      <trkpt lat="42.41332364268600940704345703125" lon="0.83899028599262237548828125">
        <ele>1411.800048828125</ele>
        <time>2020-08-14T09:51:12.000Z</time>
      </trkpt>
      <trkpt lat="42.41339891217648983001708984375" lon="0.83886128850281238555908203125">
        <ele>1410.5999755859375</ele>
        <time>2020-08-14T09:51:15.000Z</time>
      </trkpt>
      <trkpt lat="42.413473427295684814453125" lon="0.83874142728745937347412109375">
        <ele>1409.4000244140625</ele>
        <time>2020-08-14T09:51:18.000Z</time>
      </trkpt>
      <trkpt lat="42.41356956772506237030029296875" lon="0.8386870287358760833740234375">
        <ele>1408.199951171875</ele>
        <time>2020-08-14T09:51:21.000Z</time>
      </trkpt>
      <trkpt lat="42.41360108368098735809326171875" lon="0.83869365043938159942626953125">
        <ele>1408</ele>
        <time>2020-08-14T09:51:22.000Z</time>
      </trkpt>
      <trkpt lat="42.41369068622589111328125" lon="0.83872214891016483306884765625">
        <ele>1407</ele>
        <time>2020-08-14T09:51:25.000Z</time>
      </trkpt>
      <trkpt lat="42.41374005563557147979736328125" lon="0.83869784139096736907958984375">
        <ele>1406.5999755859375</ele>
        <time>2020-08-14T09:51:27.000Z</time>
      </trkpt>
      <trkpt lat="42.4137676320970058441162109375" lon="0.83863732405006885528564453125">
        <ele>1406</ele>
        <time>2020-08-14T09:51:29.000Z</time>
      </trkpt>
      <trkpt lat="42.4137750081717967987060546875" lon="0.83855501376092433929443359375">
        <ele>1405.199951171875</ele>
        <time>2020-08-14T09:51:31.000Z</time>
      </trkpt>
      <trkpt lat="42.41378162987530231475830078125" lon="0.8384706079959869384765625">
        <ele>1404.199951171875</ele>
        <time>2020-08-14T09:51:33.000Z</time>
      </trkpt>
      <trkpt lat="42.4138207733631134033203125" lon="0.83835518918931484222412109375">
        <ele>1403</ele>
        <time>2020-08-14T09:51:36.000Z</time>
      </trkpt>
      <trkpt lat="42.413863353431224822998046875" lon="0.8382028900086879730224609375">
        <ele>1401.4000244140625</ele>
        <time>2020-08-14T09:51:40.000Z</time>
      </trkpt>
      <trkpt lat="42.4138744175434112548828125" lon="0.83816927857697010040283203125">
        <ele>1400.800048828125</ele>
        <time>2020-08-14T09:51:41.000Z</time>
      </trkpt>
      <trkpt lat="42.41390534676611423492431640625" lon="0.83812552504241466522216796875">
        <ele>1400.199951171875</ele>
        <time>2020-08-14T09:51:43.000Z</time>
      </trkpt>
      <trkpt lat="42.413939796388149261474609375" lon="0.83810389973223209381103515625">
        <ele>1399.800048828125</ele>
        <time>2020-08-14T09:51:45.000Z</time>
      </trkpt>
      <trkpt lat="42.41396737284958362579345703125" lon="0.83808395080268383026123046875">
        <ele>1399.199951171875</ele>
        <time>2020-08-14T09:51:47.000Z</time>
      </trkpt>
      <trkpt lat="42.413976676762104034423828125" lon="0.83807766437530517578125">
        <ele>1398.800048828125</ele>
        <time>2020-08-14T09:51:50.000Z</time>
      </trkpt>
      <trkpt lat="42.41397743113338947296142578125" lon="0.8380785025656223297119140625">
        <ele>1398.800048828125</ele>
        <time>2020-08-14T09:51:52.000Z</time>
      </trkpt>
      <trkpt lat="42.414024956524372100830078125" lon="0.8380570448935031890869140625">
        <ele>1398.5999755859375</ele>
        <time>2020-08-14T09:51:57.000Z</time>
      </trkpt>
      <trkpt lat="42.41416434757411479949951171875" lon="0.8380204997956752777099609375">
        <ele>1398.5999755859375</ele>
        <time>2020-08-14T09:52:05.000Z</time>
      </trkpt>
      <trkpt lat="42.41423727013170719146728515625" lon="0.838029384613037109375">
        <ele>1398.4000244140625</ele>
        <time>2020-08-14T09:52:09.000Z</time>
      </trkpt>
      <trkpt lat="42.41431119851768016815185546875" lon="0.838035084307193756103515625">
        <ele>1398.199951171875</ele>
        <time>2020-08-14T09:52:13.000Z</time>
      </trkpt>
      <trkpt lat="42.4143359251320362091064453125" lon="0.83803550340235233306884765625">
        <ele>1398.199951171875</ele>
        <time>2020-08-14T09:52:17.000Z</time>
      </trkpt>
      <trkpt lat="42.4143339134752750396728515625" lon="0.838037095963954925537109375">
        <ele>1398.4000244140625</ele>
        <time>2020-08-14T09:52:35.000Z</time>
      </trkpt>
      <trkpt lat="42.4143342487514019012451171875" lon="0.8380359224975109100341796875">
        <ele>1398</ele>
        <time>2020-08-14T09:53:23.000Z</time>
      </trkpt>
      <trkpt lat="42.4143339134752750396728515625" lon="0.8380352519452571868896484375">
        <ele>1398</ele>
        <time>2020-08-14T09:53:47.000Z</time>
      </trkpt>
      <trkpt lat="42.41433374583721160888671875" lon="0.83803483285009860992431640625">
        <ele>1397.800048828125</ele>
        <time>2020-08-14T09:53:53.000Z</time>
      </trkpt>
      <trkpt lat="42.41442904807627201080322265625" lon="0.83809685893356800079345703125">
        <ele>1398</ele>
        <time>2020-08-14T10:10:04.000Z</time>
      </trkpt>
      <trkpt lat="42.41442871280014514923095703125" lon="0.8380962722003459930419921875">
        <ele>1398.199951171875</ele>
        <time>2020-08-14T10:10:06.000Z</time>
      </trkpt>
      <trkpt lat="42.4144596420228481292724609375" lon="0.83810172043740749359130859375">
        <ele>1398.199951171875</ele>
        <time>2020-08-14T10:10:09.000Z</time>
      </trkpt>
      <trkpt lat="42.414494343101978302001953125" lon="0.83810423500835895538330078125">
        <ele>1398.4000244140625</ele>
        <time>2020-08-14T10:10:12.000Z</time>
      </trkpt>
      <trkpt lat="42.41454488597810268402099609375" lon="0.83810306154191493988037109375">
        <ele>1398.800048828125</ele>
        <time>2020-08-14T10:10:16.000Z</time>
      </trkpt>
      <trkpt lat="42.41457472555339336395263671875" lon="0.83809442818164825439453125">
        <ele>1399.4000244140625</ele>
        <time>2020-08-14T10:10:18.000Z</time>
      </trkpt>
      <trkpt lat="42.41458847187459468841552734375" lon="0.83809082396328449249267578125">
        <ele>1399.5999755859375</ele>
        <time>2020-08-14T10:10:19.000Z</time>
      </trkpt>
      <trkpt lat="42.414653263986110687255859375" lon="0.83808596245944499969482421875">
        <ele>1399.800048828125</ele>
        <time>2020-08-14T10:10:23.000Z</time>
      </trkpt>
      <trkpt lat="42.41473029367625713348388671875" lon="0.83809266798198223114013671875">
        <ele>1400.5999755859375</ele>
        <time>2020-08-14T10:10:28.000Z</time>
      </trkpt>
      <trkpt lat="42.414776645600795745849609375" lon="0.83809417672455310821533203125">
        <ele>1400.5999755859375</ele>
        <time>2020-08-14T10:10:31.000Z</time>
      </trkpt>
      <trkpt lat="42.414859794080257415771484375" lon="0.83810406737029552459716796875">
        <ele>1401.199951171875</ele>
        <time>2020-08-14T10:10:37.000Z</time>
      </trkpt>
      <trkpt lat="42.414909414947032928466796875" lon="0.83812569268047809600830078125">
        <ele>1401.5999755859375</ele>
        <time>2020-08-14T10:10:41.000Z</time>
      </trkpt>
      <trkpt lat="42.41493648849427700042724609375" lon="0.838159807026386260986328125">
        <ele>1402.199951171875</ele>
        <time>2020-08-14T10:10:44.000Z</time>
      </trkpt>
      <trkpt lat="42.414980828762054443359375" lon="0.838218145072460174560546875">
        <ele>1402.800048828125</ele>
        <time>2020-08-14T10:10:49.000Z</time>
      </trkpt>
      <trkpt lat="42.41501024924218654632568359375" lon="0.838242955505847930908203125">
        <ele>1403</ele>
        <time>2020-08-14T10:10:52.000Z</time>
      </trkpt>
      <trkpt lat="42.41505048237740993499755859375" lon="0.8382994495332241058349609375">
        <ele>1404</ele>
        <time>2020-08-14T10:10:57.000Z</time>
      </trkpt>
      <trkpt lat="42.4150795675814151763916015625" lon="0.8383279480040073394775390625">
        <ele>1404.5999755859375</ele>
        <time>2020-08-14T10:11:00.000Z</time>
      </trkpt>
      <trkpt lat="42.41513413377106189727783203125" lon="0.8383946679532527923583984375">
        <ele>1405</ele>
        <time>2020-08-14T10:11:06.000Z</time>
      </trkpt>
      <trkpt lat="42.415170259773731231689453125" lon="0.83844018168747425079345703125">
        <ele>1405.4000244140625</ele>
        <time>2020-08-14T10:11:10.000Z</time>
      </trkpt>
      <trkpt lat="42.415237985551357269287109375" lon="0.83851343952119350433349609375">
        <ele>1406</ele>
        <time>2020-08-14T10:11:17.000Z</time>
      </trkpt>
      <trkpt lat="42.41524779237806797027587890625" lon="0.838522575795650482177734375">
        <ele>1406.199951171875</ele>
        <time>2020-08-14T10:11:18.000Z</time>
      </trkpt>
      <trkpt lat="42.41530445404350757598876953125" lon="0.83856557495892047882080078125">
        <ele>1407.4000244140625</ele>
        <time>2020-08-14T10:11:23.000Z</time>
      </trkpt>
      <trkpt lat="42.4153246544301509857177734375" lon="0.83858191967010498046875">
        <ele>1407.4000244140625</ele>
        <time>2020-08-14T10:11:25.000Z</time>
      </trkpt>
      <trkpt lat="42.4153950624167919158935546875" lon="0.83862944506108760833740234375">
        <ele>1407.800048828125</ele>
        <time>2020-08-14T10:11:32.000Z</time>
      </trkpt>
      <trkpt lat="42.41542666219174861907958984375" lon="0.8386514894664287567138671875">
        <ele>1408.800048828125</ele>
        <time>2020-08-14T10:11:35.000Z</time>
      </trkpt>
      <trkpt lat="42.415468990802764892578125" lon="0.8386806584894657135009765625">
        <ele>1409.4000244140625</ele>
        <time>2020-08-14T10:11:39.000Z</time>
      </trkpt>
      <trkpt lat="42.41551064886152744293212890625" lon="0.838702954351902008056640625">
        <ele>1409.800048828125</ele>
        <time>2020-08-14T10:11:43.000Z</time>
      </trkpt>
      <trkpt lat="42.4155425839126110076904296875" lon="0.8387292735278606414794921875">
        <ele>1409.800048828125</ele>
        <time>2020-08-14T10:11:46.000Z</time>
      </trkpt>
      <trkpt lat="42.41565934382379055023193359375" lon="0.838793814182281494140625">
        <ele>1411</ele>
        <time>2020-08-14T10:11:55.000Z</time>
      </trkpt>
      <trkpt lat="42.41574718616902828216552734375" lon="0.83880814723670482635498046875">
        <ele>1411.4000244140625</ele>
        <time>2020-08-14T10:12:02.000Z</time>
      </trkpt>
      <trkpt lat="42.4157742597162723541259765625" lon="0.8388060517609119415283203125">
        <ele>1412</ele>
        <time>2020-08-14T10:12:04.000Z</time>
      </trkpt>
      <trkpt lat="42.41585564799606800079345703125" lon="0.83879054524004459381103515625">
        <ele>1412.5999755859375</ele>
        <time>2020-08-14T10:12:10.000Z</time>
      </trkpt>
      <trkpt lat="42.415928654372692108154296875" lon="0.83877981640398502349853515625">
        <ele>1413</ele>
        <time>2020-08-14T10:12:15.000Z</time>
      </trkpt>
      <trkpt lat="42.41594114340841770172119140625" lon="0.8387788943946361541748046875">
        <ele>1413</ele>
        <time>2020-08-14T10:12:16.000Z</time>
      </trkpt>
      <trkpt lat="42.41602144204080104827880859375" lon="0.83874662406742572784423828125">
        <ele>1413.5999755859375</ele>
        <time>2020-08-14T10:12:22.000Z</time>
      </trkpt>
      <trkpt lat="42.41606301628053188323974609375" lon="0.83873472176492214202880859375">
        <ele>1414.4000244140625</ele>
        <time>2020-08-14T10:12:25.000Z</time>
      </trkpt>
      <trkpt lat="42.41613795049488544464111328125" lon="0.838706977665424346923828125">
        <ele>1414.5999755859375</ele>
        <time>2020-08-14T10:12:30.000Z</time>
      </trkpt>
      <trkpt lat="42.41626233793795108795166015625" lon="0.838630199432373046875">
        <ele>1415.4000244140625</ele>
        <time>2020-08-14T10:12:39.000Z</time>
      </trkpt>
      <trkpt lat="42.4163998849689960479736328125" lon="0.83853774704039096832275390625">
        <ele>1415.800048828125</ele>
        <time>2020-08-14T10:12:48.000Z</time>
      </trkpt>
      <trkpt lat="42.41644598543643951416015625" lon="0.8385019563138484954833984375">
        <ele>1416.5999755859375</ele>
        <time>2020-08-14T10:12:51.000Z</time>
      </trkpt>
      <trkpt lat="42.41650365293025970458984375" lon="0.83846247754991054534912109375">
        <ele>1417.5999755859375</ele>
        <time>2020-08-14T10:12:55.000Z</time>
      </trkpt>
      <trkpt lat="42.41653240285813808441162109375" lon="0.8384449593722820281982421875">
        <ele>1417.800048828125</ele>
        <time>2020-08-14T10:12:57.000Z</time>
      </trkpt>
      <trkpt lat="42.41664857603609561920166015625" lon="0.8383681811392307281494140625">
        <ele>1418.199951171875</ele>
        <time>2020-08-14T10:13:05.000Z</time>
      </trkpt>
      <trkpt lat="42.41672267206013202667236328125" lon="0.83833314478397369384765625">
        <ele>1418.800048828125</ele>
        <time>2020-08-14T10:13:10.000Z</time>
      </trkpt>
      <trkpt lat="42.41677111946046352386474609375" lon="0.83831562660634517669677734375">
        <ele>1419</ele>
        <time>2020-08-14T10:13:13.000Z</time>
      </trkpt>
      <trkpt lat="42.41686130873858928680419921875" lon="0.83828645758330821990966796875">
        <ele>1419.800048828125</ele>
        <time>2020-08-14T10:13:19.000Z</time>
      </trkpt>
      <trkpt lat="42.4169205687940120697021484375" lon="0.8382722921669483184814453125">
        <ele>1420.199951171875</ele>
        <time>2020-08-14T10:13:23.000Z</time>
      </trkpt>
      <trkpt lat="42.4169790744781494140625" lon="0.8382582105696201324462890625">
        <ele>1421</ele>
        <time>2020-08-14T10:13:27.000Z</time>
      </trkpt>
      <trkpt lat="42.41705040447413921356201171875" lon="0.83824689500033855438232421875">
        <ele>1421.5999755859375</ele>
        <time>2020-08-14T10:13:32.000Z</time>
      </trkpt>
      <trkpt lat="42.41712081246078014373779296875" lon="0.83823851309716701507568359375">
        <ele>1422.199951171875</ele>
        <time>2020-08-14T10:13:37.000Z</time>
      </trkpt>
      <trkpt lat="42.41714847274124622344970703125" lon="0.8382347412407398223876953125">
        <ele>1422.199951171875</ele>
        <time>2020-08-14T10:13:39.000Z</time>
      </trkpt>
      <trkpt lat="42.41723380051553249359130859375" lon="0.838229544460773468017578125">
        <ele>1423.4000244140625</ele>
        <time>2020-08-14T10:13:45.000Z</time>
      </trkpt>
      <trkpt lat="42.41727738641202449798583984375" lon="0.83822962827980518341064453125">
        <ele>1423.800048828125</ele>
        <time>2020-08-14T10:13:48.000Z</time>
      </trkpt>
      <trkpt lat="42.417423315346240997314453125" lon="0.83820917643606662750244140625">
        <ele>1424.4000244140625</ele>
        <time>2020-08-14T10:13:58.000Z</time>
      </trkpt>
      <trkpt lat="42.4175369739532470703125" lon="0.83818671293556690216064453125">
        <ele>1425.5999755859375</ele>
        <time>2020-08-14T10:14:06.000Z</time>
      </trkpt>
      <trkpt lat="42.41764585487544536590576171875" lon="0.8381599746644496917724609375">
        <ele>1426.800048828125</ele>
        <time>2020-08-14T10:14:14.000Z</time>
      </trkpt>
      <trkpt lat="42.41765909828245639801025390625" lon="0.83815854974091053009033203125">
        <ele>1427</ele>
        <time>2020-08-14T10:14:15.000Z</time>
      </trkpt>
      <trkpt lat="42.41777543909847736358642578125" lon="0.83815905265510082244873046875">
        <ele>1427.800048828125</ele>
        <time>2020-08-14T10:14:23.000Z</time>
      </trkpt>
      <trkpt lat="42.41780645214021205902099609375" lon="0.838169194757938385009765625">
        <ele>1428.199951171875</ele>
        <time>2020-08-14T10:14:25.000Z</time>
      </trkpt>
      <trkpt lat="42.417888343334197998046875" lon="0.838210098445415496826171875">
        <ele>1428.800048828125</ele>
        <time>2020-08-14T10:14:31.000Z</time>
      </trkpt>
      <trkpt lat="42.41790049709379673004150390625" lon="0.8382213301956653594970703125">
        <ele>1429</ele>
        <time>2020-08-14T10:14:32.000Z</time>
      </trkpt>
      <trkpt lat="42.417945004999637603759765625" lon="0.83827120251953601837158203125">
        <ele>1430</ele>
        <time>2020-08-14T10:14:36.000Z</time>
      </trkpt>
      <trkpt lat="42.4179907701909542083740234375" lon="0.8383453823626041412353515625">
        <ele>1430.5999755859375</ele>
        <time>2020-08-14T10:14:41.000Z</time>
      </trkpt>
      <trkpt lat="42.41803276352584362030029296875" lon="0.83842626772820949554443359375">
        <ele>1431</ele>
        <time>2020-08-14T10:14:46.000Z</time>
      </trkpt>
      <trkpt lat="42.41806461475789546966552734375" lon="0.8384962566196918487548828125">
        <ele>1431.4000244140625</ele>
        <time>2020-08-14T10:14:50.000Z</time>
      </trkpt>
      <trkpt lat="42.4181208573281764984130859375" lon="0.83861050195991992950439453125">
        <ele>1432</ele>
        <time>2020-08-14T10:14:57.000Z</time>
      </trkpt>
      <trkpt lat="42.418152876198291778564453125" lon="0.8386769704520702362060546875">
        <ele>1432.800048828125</ele>
        <time>2020-08-14T10:15:01.000Z</time>
      </trkpt>
      <trkpt lat="42.41816938854753971099853515625" lon="0.83870974369347095489501953125">
        <ele>1433.199951171875</ele>
        <time>2020-08-14T10:15:03.000Z</time>
      </trkpt>
      <trkpt lat="42.4182304926216602325439453125" lon="0.83884452469646930694580078125">
        <ele>1434</ele>
        <time>2020-08-14T10:15:11.000Z</time>
      </trkpt>
      <trkpt lat="42.41824633441865444183349609375" lon="0.83888023160398006439208984375">
        <ele>1434.4000244140625</ele>
        <time>2020-08-14T10:15:13.000Z</time>
      </trkpt>
      <trkpt lat="42.41827391088008880615234375" lon="0.83892901428043842315673828125">
        <ele>1435</ele>
        <time>2020-08-14T10:15:16.000Z</time>
      </trkpt>
      <trkpt lat="42.418296374380588531494140625" lon="0.83897997625172138214111328125">
        <ele>1435.4000244140625</ele>
        <time>2020-08-14T10:15:19.000Z</time>
      </trkpt>
      <trkpt lat="42.41830400191247463226318359375" lon="0.83899590186774730682373046875">
        <ele>1435.5999755859375</ele>
        <time>2020-08-14T10:15:20.000Z</time>
      </trkpt>
      <trkpt lat="42.4183542095124721527099609375" lon="0.83911794237792491912841796875">
        <ele>1436.4000244140625</ele>
        <time>2020-08-14T10:15:27.000Z</time>
      </trkpt>
      <trkpt lat="42.41836166940629482269287109375" lon="0.83913470618426799774169921875">
        <ele>1436.5999755859375</ele>
        <time>2020-08-14T10:15:28.000Z</time>
      </trkpt>
      <trkpt lat="42.4184261262416839599609375" lon="0.83924048580229282379150390625">
        <ele>1437.199951171875</ele>
        <time>2020-08-14T10:15:35.000Z</time>
      </trkpt>
      <trkpt lat="42.41844582371413707733154296875" lon="0.83926881663501262664794921875">
        <ele>1437.5999755859375</ele>
        <time>2020-08-14T10:15:37.000Z</time>
      </trkpt>
      <trkpt lat="42.4185184948146343231201171875" lon="0.8393626101315021514892578125">
        <ele>1438.5999755859375</ele>
        <time>2020-08-14T10:15:44.000Z</time>
      </trkpt>
      <trkpt lat="42.41852964274585247039794921875" lon="0.83937493152916431427001953125">
        <ele>1438.800048828125</ele>
        <time>2020-08-14T10:15:45.000Z</time>
      </trkpt>
      <trkpt lat="42.418630309402942657470703125" lon="0.8394812978804111480712890625">
        <ele>1439.5999755859375</ele>
        <time>2020-08-14T10:15:54.000Z</time>
      </trkpt>
      <trkpt lat="42.41873256862163543701171875" lon="0.83957777358591556549072265625">
        <ele>1440.5999755859375</ele>
        <time>2020-08-14T10:16:03.000Z</time>
      </trkpt>
      <trkpt lat="42.41880171932280063629150390625" lon="0.83964231424033641815185546875">
        <ele>1441.800048828125</ele>
        <time>2020-08-14T10:16:09.000Z</time>
      </trkpt>
      <trkpt lat="42.41884983144700527191162109375" lon="0.839677266776561737060546875">
        <ele>1443</ele>
        <time>2020-08-14T10:16:13.000Z</time>
      </trkpt>
      <trkpt lat="42.41886106319725513458251953125" lon="0.83968657068908214569091796875">
        <ele>1443</ele>
        <time>2020-08-14T10:16:14.000Z</time>
      </trkpt>
      <trkpt lat="42.4189328961074352264404296875" lon="0.83973619155585765838623046875">
        <ele>1444</ele>
        <time>2020-08-14T10:16:20.000Z</time>
      </trkpt>
      <trkpt lat="42.4189670942723751068115234375" lon="0.83976536057889461517333984375">
        <ele>1444.4000244140625</ele>
        <time>2020-08-14T10:16:23.000Z</time>
      </trkpt>
      <trkpt lat="42.4190240912139415740966796875" lon="0.83980970084667205810546875">
        <ele>1445.199951171875</ele>
        <time>2020-08-14T10:16:28.000Z</time>
      </trkpt>
      <trkpt lat="42.4190604686737060546875" lon="0.83983744494616985321044921875">
        <ele>1445.5999755859375</ele>
        <time>2020-08-14T10:16:31.000Z</time>
      </trkpt>
      <trkpt lat="42.419151999056339263916015625" lon="0.83990952931344509124755859375">
        <ele>1446.4000244140625</ele>
        <time>2020-08-14T10:16:38.000Z</time>
      </trkpt>
      <trkpt lat="42.41916432045400142669677734375" lon="0.83992528729140758514404296875">
        <ele>1446.5999755859375</ele>
        <time>2020-08-14T10:16:39.000Z</time>
      </trkpt>
      <trkpt lat="42.4192634783685207366943359375" lon="0.84008018486201763153076171875">
        <ele>1446.800048828125</ele>
        <time>2020-08-14T10:16:48.000Z</time>
      </trkpt>
      <trkpt lat="42.4193291924893856048583984375" lon="0.840211026370525360107421875">
        <ele>1447</ele>
        <time>2020-08-14T10:16:55.000Z</time>
      </trkpt>
      <trkpt lat="42.419390045106410980224609375" lon="0.840298198163509368896484375">
        <ele>1447.4000244140625</ele>
        <time>2020-08-14T10:17:01.000Z</time>
      </trkpt>
      <trkpt lat="42.419414520263671875" lon="0.84032342769205570220947265625">
        <ele>1447</ele>
        <time>2020-08-14T10:17:03.000Z</time>
      </trkpt>
      <trkpt lat="42.4195146001875400543212890625" lon="0.84039869718253612518310546875">
        <ele>1447</ele>
        <time>2020-08-14T10:17:10.000Z</time>
      </trkpt>
      <trkpt lat="42.41960336454212665557861328125" lon="0.8404448814690113067626953125">
        <ele>1447.5999755859375</ele>
        <time>2020-08-14T10:17:16.000Z</time>
      </trkpt>
      <trkpt lat="42.41971551440656185150146484375" lon="0.84048117510974407196044921875">
        <ele>1448</ele>
        <time>2020-08-14T10:17:22.000Z</time>
      </trkpt>
      <trkpt lat="42.41985683329403400421142578125" lon="0.840504057705402374267578125">
        <ele>1448.5999755859375</ele>
        <time>2020-08-14T10:17:29.000Z</time>
      </trkpt>
      <trkpt lat="42.41989505477249622344970703125" lon="0.84051906131207942962646484375">
        <ele>1448.800048828125</ele>
        <time>2020-08-14T10:17:31.000Z</time>
      </trkpt>
      <trkpt lat="42.42000217549502849578857421875" lon="0.8405991084873676300048828125">
        <ele>1449.5999755859375</ele>
        <time>2020-08-14T10:17:37.000Z</time>
      </trkpt>
      <trkpt lat="42.42005062289535999298095703125" lon="0.84064730443060398101806640625">
        <ele>1450</ele>
        <time>2020-08-14T10:17:40.000Z</time>
      </trkpt>
      <trkpt lat="42.42018372751772403717041015625" lon="0.840844698250293731689453125">
        <ele>1450.4000244140625</ele>
        <time>2020-08-14T10:17:50.000Z</time>
      </trkpt>
      <trkpt lat="42.4202082864940166473388671875" lon="0.84088518284261226654052734375">
        <ele>1450.5999755859375</ele>
        <time>2020-08-14T10:17:52.000Z</time>
      </trkpt>
      <trkpt lat="42.42026545107364654541015625" lon="0.84098760969936847686767578125">
        <ele>1451.4000244140625</ele>
        <time>2020-08-14T10:17:57.000Z</time>
      </trkpt>
      <trkpt lat="42.42029503919184207916259765625" lon="0.8410570956766605377197265625">
        <ele>1451.5999755859375</ele>
        <time>2020-08-14T10:18:00.000Z</time>
      </trkpt>
      <trkpt lat="42.42034323513507843017578125" lon="0.841173939406871795654296875">
        <ele>1452</ele>
        <time>2020-08-14T10:18:05.000Z</time>
      </trkpt>
      <trkpt lat="42.42041238583624362945556640625" lon="0.841333530843257904052734375">
        <ele>1452.4000244140625</ele>
        <time>2020-08-14T10:18:12.000Z</time>
      </trkpt>
      <trkpt lat="42.42051984183490276336669921875" lon="0.84144341759383678436279296875">
        <ele>1452.800048828125</ele>
        <time>2020-08-14T10:18:19.000Z</time>
      </trkpt>
      <trkpt lat="42.4205375276505947113037109375" lon="0.8414503745734691619873046875">
        <ele>1452.800048828125</ele>
        <time>2020-08-14T10:18:20.000Z</time>
      </trkpt>
      <trkpt lat="42.42062863893806934356689453125" lon="0.8414637856185436248779296875">
        <ele>1453.800048828125</ele>
        <time>2020-08-14T10:18:25.000Z</time>
      </trkpt>
      <trkpt lat="42.42067851126194000244140625" lon="0.84146403707563877105712890625">
        <ele>1453.800048828125</ele>
        <time>2020-08-14T10:18:28.000Z</time>
      </trkpt>
      <trkpt lat="42.4207983724772930145263671875" lon="0.84148331545293331146240234375">
        <ele>1454.800048828125</ele>
        <time>2020-08-14T10:18:35.000Z</time>
      </trkpt>
      <trkpt lat="42.4208320677280426025390625" lon="0.84149521775543689727783203125">
        <ele>1455</ele>
        <time>2020-08-14T10:18:37.000Z</time>
      </trkpt>
      <trkpt lat="42.42094262503087520599365234375" lon="0.84150142036378383636474609375">
        <ele>1455.800048828125</ele>
        <time>2020-08-14T10:18:44.000Z</time>
      </trkpt>
      <trkpt lat="42.42098872549831867218017578125" lon="0.84149546921253204345703125">
        <ele>1456</ele>
        <time>2020-08-14T10:18:47.000Z</time>
      </trkpt>
      <trkpt lat="42.4210359156131744384765625" lon="0.84149002097547054290771484375">
        <ele>1457</ele>
        <time>2020-08-14T10:18:50.000Z</time>
      </trkpt>
      <trkpt lat="42.4210655875504016876220703125" lon="0.84147937595844268798828125">
        <ele>1457.199951171875</ele>
        <time>2020-08-14T10:18:52.000Z</time>
      </trkpt>
      <trkpt lat="42.4211266078054904937744140625" lon="0.84147870540618896484375">
        <ele>1458</ele>
        <time>2020-08-14T10:18:56.000Z</time>
      </trkpt>
      <trkpt lat="42.42117178626358509063720703125" lon="0.84148599766194820404052734375">
        <ele>1458.4000244140625</ele>
        <time>2020-08-14T10:18:59.000Z</time>
      </trkpt>
      <trkpt lat="42.42127521894872188568115234375" lon="0.8414993248879909515380859375">
        <ele>1459</ele>
        <time>2020-08-14T10:19:06.000Z</time>
      </trkpt>
      <trkpt lat="42.42131964303553104400634765625" lon="0.84150980226695537567138671875">
        <ele>1459.4000244140625</ele>
        <time>2020-08-14T10:19:09.000Z</time>
      </trkpt>
      <trkpt lat="42.42137722671031951904296875" lon="0.84152153693139553070068359375">
        <ele>1460</ele>
        <time>2020-08-14T10:19:13.000Z</time>
      </trkpt>
      <trkpt lat="42.421434223651885986328125" lon="0.8415377140045166015625">
        <ele>1460.5999755859375</ele>
        <time>2020-08-14T10:19:17.000Z</time>
      </trkpt>
      <trkpt lat="42.42151225917041301727294921875" lon="0.8415660448372364044189453125">
        <ele>1461.199951171875</ele>
        <time>2020-08-14T10:19:23.000Z</time>
      </trkpt>
      <trkpt lat="42.42152382619678974151611328125" lon="0.841576270759105682373046875">
        <ele>1461.4000244140625</ele>
        <time>2020-08-14T10:19:24.000Z</time>
      </trkpt>
      <trkpt lat="42.421558611094951629638671875" lon="0.8416019193828105926513671875">
        <ele>1462</ele>
        <time>2020-08-14T10:19:27.000Z</time>
      </trkpt>
      <trkpt lat="42.42161032743752002716064453125" lon="0.84160116501152515411376953125">
        <ele>1462.4000244140625</ele>
        <time>2020-08-14T10:19:31.000Z</time>
      </trkpt>
      <trkpt lat="42.42165257222950458526611328125" lon="0.84160803817212581634521484375">
        <ele>1463</ele>
        <time>2020-08-14T10:19:34.000Z</time>
      </trkpt>
      <trkpt lat="42.42167721502482891082763671875" lon="0.84161926992237567901611328125">
        <ele>1463.5999755859375</ele>
        <time>2020-08-14T10:19:36.000Z</time>
      </trkpt>
      <trkpt lat="42.42169112898409366607666015625" lon="0.84162614308297634124755859375">
        <ele>1463.800048828125</ele>
        <time>2020-08-14T10:19:37.000Z</time>
      </trkpt>
      <trkpt lat="42.42179556749761104583740234375" lon="0.84168263711035251617431640625">
        <ele>1464.5999755859375</ele>
        <time>2020-08-14T10:19:45.000Z</time>
      </trkpt>
      <trkpt lat="42.4218159355223178863525390625" lon="0.8417055197060108184814453125">
        <ele>1464.800048828125</ele>
        <time>2020-08-14T10:19:47.000Z</time>
      </trkpt>
      <trkpt lat="42.42186069488525390625" lon="0.8417544700205326080322265625">
        <ele>1465.5999755859375</ele>
        <time>2020-08-14T10:19:51.000Z</time>
      </trkpt>
      <trkpt lat="42.4218853376805782318115234375" lon="0.8417742513120174407958984375">
        <ele>1466</ele>
        <time>2020-08-14T10:19:53.000Z</time>
      </trkpt>
      <trkpt lat="42.42195951752364635467529296875" lon="0.84183418191969394683837890625">
        <ele>1466.800048828125</ele>
        <time>2020-08-14T10:19:59.000Z</time>
      </trkpt>
      <trkpt lat="42.42197108455002307891845703125" lon="0.8418456651270389556884765625">
        <ele>1467</ele>
        <time>2020-08-14T10:20:00.000Z</time>
      </trkpt>
      <trkpt lat="42.42197980172932147979736328125" lon="0.8418600820004940032958984375">
        <ele>1467</ele>
        <time>2020-08-14T10:20:01.000Z</time>
      </trkpt>
      <trkpt lat="42.42201156914234161376953125" lon="0.84189872257411479949951171875">
        <ele>1467.199951171875</ele>
        <time>2020-08-14T10:20:04.000Z</time>
      </trkpt>
      <trkpt lat="42.42208759300410747528076171875" lon="0.84198220632970333099365234375">
        <ele>1468</ele>
        <time>2020-08-14T10:20:11.000Z</time>
      </trkpt>
      <trkpt lat="42.422110140323638916015625" lon="0.84200282581150531768798828125">
        <ele>1468.4000244140625</ele>
        <time>2020-08-14T10:20:13.000Z</time>
      </trkpt>
      <trkpt lat="42.42216353304684162139892578125" lon="0.84206284023821353912353515625">
        <ele>1469.199951171875</ele>
        <time>2020-08-14T10:20:18.000Z</time>
      </trkpt>
      <trkpt lat="42.42217518389225006103515625" lon="0.8420741558074951171875">
        <ele>1469.199951171875</ele>
        <time>2020-08-14T10:20:19.000Z</time>
      </trkpt>
      <trkpt lat="42.422268390655517578125" lon="0.84213643334805965423583984375">
        <ele>1470.199951171875</ele>
        <time>2020-08-14T10:20:27.000Z</time>
      </trkpt>
      <trkpt lat="42.4223621003329753875732421875" lon="0.84216090850532054901123046875">
        <ele>1471</ele>
        <time>2020-08-14T10:20:34.000Z</time>
      </trkpt>
      <trkpt lat="42.42238950915634632110595703125" lon="0.8421586453914642333984375">
        <ele>1471.199951171875</ele>
        <time>2020-08-14T10:20:36.000Z</time>
      </trkpt>
      <trkpt lat="42.42246192879974842071533203125" lon="0.842136852443218231201171875">
        <ele>1471.5999755859375</ele>
        <time>2020-08-14T10:20:41.000Z</time>
      </trkpt>
      <trkpt lat="42.4225307442247867584228515625" lon="0.8420957811176776885986328125">
        <ele>1472.199951171875</ele>
        <time>2020-08-14T10:20:46.000Z</time>
      </trkpt>
      <trkpt lat="42.42256955243647098541259765625" lon="0.84205999039113521575927734375">
        <ele>1472.4000244140625</ele>
        <time>2020-08-14T10:20:49.000Z</time>
      </trkpt>
      <trkpt lat="42.42261707782745361328125" lon="0.842004753649234771728515625">
        <ele>1473.4000244140625</ele>
        <time>2020-08-14T10:20:53.000Z</time>
      </trkpt>
      <trkpt lat="42.4226708896458148956298828125" lon="0.84192504175007343292236328125">
        <ele>1474.4000244140625</ele>
        <time>2020-08-14T10:20:58.000Z</time>
      </trkpt>
      <trkpt lat="42.42268270812928676605224609375" lon="0.8419117145240306854248046875">
        <ele>1474.4000244140625</ele>
        <time>2020-08-14T10:20:59.000Z</time>
      </trkpt>
      <trkpt lat="42.42274791933596134185791015625" lon="0.84181733429431915283203125">
        <ele>1475.5999755859375</ele>
        <time>2020-08-14T10:21:05.000Z</time>
      </trkpt>
      <trkpt lat="42.42276485078036785125732421875" lon="0.84178171120584011077880859375">
        <ele>1476</ele>
        <time>2020-08-14T10:21:07.000Z</time>
      </trkpt>
      <trkpt lat="42.4228127114474773406982421875" lon="0.84169923327863216400146484375">
        <ele>1476.5999755859375</ele>
        <time>2020-08-14T10:21:12.000Z</time>
      </trkpt>
      <trkpt lat="42.4228532798588275909423828125" lon="0.841639302670955657958984375">
        <ele>1477</ele>
        <time>2020-08-14T10:21:16.000Z</time>
      </trkpt>
      <trkpt lat="42.4228871427476406097412109375" lon="0.84159831516444683074951171875">
        <ele>1477.5999755859375</ele>
        <time>2020-08-14T10:21:19.000Z</time>
      </trkpt>
      <trkpt lat="42.42295662872493267059326171875" lon="0.84155305288732051849365234375">
        <ele>1478.5999755859375</ele>
        <time>2020-08-14T10:21:24.000Z</time>
      </trkpt>
      <trkpt lat="42.42298630066215991973876953125" lon="0.84153997711837291717529296875">
        <ele>1478.800048828125</ele>
        <time>2020-08-14T10:21:26.000Z</time>
      </trkpt>
      <trkpt lat="42.423091828823089599609375" lon="0.84156386554241180419921875">
        <ele>1479.5999755859375</ele>
        <time>2020-08-14T10:21:33.000Z</time>
      </trkpt>
      <trkpt lat="42.42310649715363979339599609375" lon="0.84157333709299564361572265625">
        <ele>1479.800048828125</ele>
        <time>2020-08-14T10:21:34.000Z</time>
      </trkpt>
      <trkpt lat="42.42317430675029754638671875" lon="0.8416320942342281341552734375">
        <ele>1480.800048828125</ele>
        <time>2020-08-14T10:21:39.000Z</time>
      </trkpt>
      <trkpt lat="42.42321026511490345001220703125" lon="0.84167878143489360809326171875">
        <ele>1481.4000244140625</ele>
        <time>2020-08-14T10:21:42.000Z</time>
      </trkpt>
      <trkpt lat="42.423258461058139801025390625" lon="0.84174692630767822265625">
        <ele>1481.800048828125</ele>
        <time>2020-08-14T10:21:46.000Z</time>
      </trkpt>
      <trkpt lat="42.4233126081526279449462890625" lon="0.84183342754840850830078125">
        <ele>1482.800048828125</ele>
        <time>2020-08-14T10:21:51.000Z</time>
      </trkpt>
      <trkpt lat="42.423331551253795623779296875" lon="0.8418674580752849578857421875">
        <ele>1482.800048828125</ele>
        <time>2020-08-14T10:21:53.000Z</time>
      </trkpt>
      <trkpt lat="42.42336046881973743438720703125" lon="0.84194934926927089691162109375">
        <ele>1483.4000244140625</ele>
        <time>2020-08-14T10:21:57.000Z</time>
      </trkpt>
      <trkpt lat="42.42338913492858409881591796875" lon="0.84200249053537845611572265625">
        <ele>1484</ele>
        <time>2020-08-14T10:22:00.000Z</time>
      </trkpt>
      <trkpt lat="42.42342936806380748748779296875" lon="0.84207440726459026336669921875">
        <ele>1485</ele>
        <time>2020-08-14T10:22:04.000Z</time>
      </trkpt>
      <trkpt lat="42.423439510166645050048828125" lon="0.8420914225280284881591796875">
        <ele>1485.199951171875</ele>
        <time>2020-08-14T10:22:05.000Z</time>
      </trkpt>
      <trkpt lat="42.42351771332323551177978515625" lon="0.8422392792999744415283203125">
        <ele>1485.800048828125</ele>
        <time>2020-08-14T10:22:13.000Z</time>
      </trkpt>
      <trkpt lat="42.4235379137098789215087890625" lon="0.8422798477113246917724609375">
        <ele>1486.199951171875</ele>
        <time>2020-08-14T10:22:15.000Z</time>
      </trkpt>
      <trkpt lat="42.423618547618389129638671875" lon="0.842409431934356689453125">
        <ele>1487.199951171875</ele>
        <time>2020-08-14T10:22:22.000Z</time>
      </trkpt>
      <trkpt lat="42.4236291088163852691650390625" lon="0.84242829121649265289306640625">
        <ele>1487.4000244140625</ele>
        <time>2020-08-14T10:22:23.000Z</time>
      </trkpt>
      <trkpt lat="42.4237303622066974639892578125" lon="0.84256189875304698944091796875">
        <ele>1488.4000244140625</ele>
        <time>2020-08-14T10:22:31.000Z</time>
      </trkpt>
      <trkpt lat="42.4237444438040256500244140625" lon="0.84257631562650203704833984375">
        <ele>1488.4000244140625</ele>
        <time>2020-08-14T10:22:32.000Z</time>
      </trkpt>
      <trkpt lat="42.423820383846759796142578125" lon="0.8426328934729099273681640625">
        <ele>1489.4000244140625</ele>
        <time>2020-08-14T10:22:37.000Z</time>
      </trkpt>
      <trkpt lat="42.42385114543139934539794921875" lon="0.84264814853668212890625">
        <ele>1490.199951171875</ele>
        <time>2020-08-14T10:22:39.000Z</time>
      </trkpt>
      <trkpt lat="42.42387981154024600982666015625" lon="0.84265762008726596832275390625">
        <ele>1490.5999755859375</ele>
        <time>2020-08-14T10:22:41.000Z</time>
      </trkpt>
      <trkpt lat="42.4239630438387393951416015625" lon="0.84266348741948604583740234375">
        <ele>1490.800048828125</ele>
        <time>2020-08-14T10:22:46.000Z</time>
      </trkpt>
      <trkpt lat="42.424065135419368743896484375" lon="0.84264253266155719757080078125">
        <ele>1491.5999755859375</ele>
        <time>2020-08-14T10:22:52.000Z</time>
      </trkpt>
      <trkpt lat="42.4240961484611034393310546875" lon="0.8426265232264995574951171875">
        <ele>1492.199951171875</ele>
        <time>2020-08-14T10:22:54.000Z</time>
      </trkpt>
      <trkpt lat="42.42420251481235027313232421875" lon="0.8425782434642314910888671875">
        <ele>1492.800048828125</ele>
        <time>2020-08-14T10:23:01.000Z</time>
      </trkpt>
      <trkpt lat="42.42425548844039440155029296875" lon="0.8426157943904399871826171875">
        <ele>1493.800048828125</ele>
        <time>2020-08-14T10:23:05.000Z</time>
      </trkpt>
      <trkpt lat="42.42426102049648761749267578125" lon="0.84263381548225879669189453125">
        <ele>1493.800048828125</ele>
        <time>2020-08-14T10:23:06.000Z</time>
      </trkpt>
      <trkpt lat="42.42425649426877498626708984375" lon="0.84267773665487766265869140625">
        <ele>1494</ele>
        <time>2020-08-14T10:23:08.000Z</time>
      </trkpt>
      <trkpt lat="42.42423939518630504608154296875" lon="0.84273842163383960723876953125">
        <ele>1494.5999755859375</ele>
        <time>2020-08-14T10:23:11.000Z</time>
      </trkpt>
      <trkpt lat="42.4242304265499114990234375" lon="0.84275317378342151641845703125">
        <ele>1495</ele>
        <time>2020-08-14T10:23:12.000Z</time>
      </trkpt>
      <trkpt lat="42.42421793751418590545654296875" lon="0.84276457317173480987548828125">
        <ele>1495.199951171875</ele>
        <time>2020-08-14T10:23:13.000Z</time>
      </trkpt>
      <trkpt lat="42.4241625331342220306396484375" lon="0.84281167946755886077880859375">
        <ele>1495.5999755859375</ele>
        <time>2020-08-14T10:23:17.000Z</time>
      </trkpt>
      <trkpt lat="42.42405901663005352020263671875" lon="0.84285677410662174224853515625">
        <ele>1496.199951171875</ele>
        <time>2020-08-14T10:23:23.000Z</time>
      </trkpt>
      <trkpt lat="42.42400579154491424560546875" lon="0.84286649711430072784423828125">
        <ele>1496.5999755859375</ele>
        <time>2020-08-14T10:23:26.000Z</time>
      </trkpt>
      <trkpt lat="42.42381543852388858795166015625" lon="0.8428709395229816436767578125">
        <ele>1497.199951171875</ele>
        <time>2020-08-14T10:23:36.000Z</time>
      </trkpt>
      <trkpt lat="42.42360505275428295135498046875" lon="0.84283548407256603240966796875">
        <ele>1498.199951171875</ele>
        <time>2020-08-14T10:23:46.000Z</time>
      </trkpt>
      <trkpt lat="42.42352207191288471221923828125" lon="0.8428131043910980224609375">
        <ele>1498.199951171875</ele>
        <time>2020-08-14T10:23:50.000Z</time>
      </trkpt>
      <trkpt lat="42.423427440226078033447265625" lon="0.8427794091403484344482421875">
        <ele>1498.800048828125</ele>
        <time>2020-08-14T10:23:55.000Z</time>
      </trkpt>
      <trkpt lat="42.42337253876030445098876953125" lon="0.84274982102215290069580078125">
        <ele>1499.5999755859375</ele>
        <time>2020-08-14T10:23:58.000Z</time>
      </trkpt>
      <trkpt lat="42.42329768836498260498046875" lon="0.84271998144686222076416015625">
        <ele>1500.5999755859375</ele>
        <time>2020-08-14T10:24:02.000Z</time>
      </trkpt>
      <trkpt lat="42.42327832616865634918212890625" lon="0.842712856829166412353515625">
        <ele>1500.800048828125</ele>
        <time>2020-08-14T10:24:03.000Z</time>
      </trkpt>
      <trkpt lat="42.4231831915676593780517578125" lon="0.8427230827510356903076171875">
        <ele>1501.800048828125</ele>
        <time>2020-08-14T10:24:08.000Z</time>
      </trkpt>
      <trkpt lat="42.42316533811390399932861328125" lon="0.84273423068225383758544921875">
        <ele>1502.199951171875</ele>
        <time>2020-08-14T10:24:09.000Z</time>
      </trkpt>
      <trkpt lat="42.42313583381474018096923828125" lon="0.842771865427494049072265625">
        <ele>1502.5999755859375</ele>
        <time>2020-08-14T10:24:11.000Z</time>
      </trkpt>
      <trkpt lat="42.42313264869153499603271484375" lon="0.84282240830361843109130859375">
        <ele>1502.800048828125</ele>
        <time>2020-08-14T10:24:13.000Z</time>
      </trkpt>
      <trkpt lat="42.4231684394180774688720703125" lon="0.8428742922842502593994140625">
        <ele>1503</ele>
        <time>2020-08-14T10:24:16.000Z</time>
      </trkpt>
      <trkpt lat="42.42319769226014614105224609375" lon="0.84290270693600177764892578125">
        <ele>1503.4000244140625</ele>
        <time>2020-08-14T10:24:18.000Z</time>
      </trkpt>
      <trkpt lat="42.42323826067149639129638671875" lon="0.8429470472037792205810546875">
        <ele>1503.800048828125</ele>
        <time>2020-08-14T10:24:24.000Z</time>
      </trkpt>
      <trkpt lat="42.42323826067149639129638671875" lon="0.8429470472037792205810546875">
        <ele>1504</ele>
        <time>2020-08-14T10:24:25.000Z</time>
      </trkpt>
      <trkpt lat="42.423237673938274383544921875" lon="0.84294855594635009765625">
        <ele>1504.199951171875</ele>
        <time>2020-08-14T10:24:38.000Z</time>
      </trkpt>
      <trkpt lat="42.4232381768524646759033203125" lon="0.8429467119276523590087890625">
        <ele>1504.199951171875</ele>
        <time>2020-08-14T10:24:52.000Z</time>
      </trkpt>
      <trkpt lat="42.42323725484311580657958984375" lon="0.842948220670223236083984375">
        <ele>1503.800048828125</ele>
        <time>2020-08-14T10:26:29.000Z</time>
      </trkpt>
      <trkpt lat="42.42323960177600383758544921875" lon="0.8429490588605403900146484375">
        <ele>1504</ele>
        <time>2020-08-14T10:26:31.000Z</time>
      </trkpt>
      <trkpt lat="42.42331436835229396820068359375" lon="0.84298769943416118621826171875">
        <ele>1504</ele>
        <time>2020-08-14T10:26:38.000Z</time>
      </trkpt>
      <trkpt lat="42.4234058149158954620361328125" lon="0.84305123426020145416259765625">
        <ele>1504.800048828125</ele>
        <time>2020-08-14T10:26:46.000Z</time>
      </trkpt>
      <trkpt lat="42.423441521823406219482421875" lon="0.84307822398841381072998046875">
        <ele>1505</ele>
        <time>2020-08-14T10:26:49.000Z</time>
      </trkpt>
      <trkpt lat="42.423515617847442626953125" lon="0.84314100444316864013671875">
        <ele>1505.800048828125</ele>
        <time>2020-08-14T10:26:55.000Z</time>
      </trkpt>
      <trkpt lat="42.42354017682373523712158203125" lon="0.84316606633365154266357421875">
        <ele>1506</ele>
        <time>2020-08-14T10:26:57.000Z</time>
      </trkpt>
      <trkpt lat="42.42364428006112575531005859375" lon="0.84324820898473262786865234375">
        <ele>1506.800048828125</ele>
        <time>2020-08-14T10:27:05.000Z</time>
      </trkpt>
      <trkpt lat="42.42365777492523193359375" lon="0.84325877018272876739501953125">
        <ele>1507.199951171875</ele>
        <time>2020-08-14T10:27:06.000Z</time>
      </trkpt>
      <trkpt lat="42.4237001873552799224853515625" lon="0.8432856760919094085693359375">
        <ele>1508.199951171875</ele>
        <time>2020-08-14T10:27:09.000Z</time>
      </trkpt>
      <trkpt lat="42.42377621121704578399658203125" lon="0.84331442601978778839111328125">
        <ele>1507.800048828125</ele>
        <time>2020-08-14T10:27:14.000Z</time>
      </trkpt>
      <trkpt lat="42.4239332042634487152099609375" lon="0.84333269856870174407958984375">
        <ele>1509</ele>
        <time>2020-08-14T10:27:24.000Z</time>
      </trkpt>
      <trkpt lat="42.42395005188882350921630859375" lon="0.8433316089212894439697265625">
        <ele>1509</ele>
        <time>2020-08-14T10:27:25.000Z</time>
      </trkpt>
      <trkpt lat="42.42404711432754993438720703125" lon="0.84332146681845188140869140625">
        <ele>1509.5999755859375</ele>
        <time>2020-08-14T10:27:31.000Z</time>
      </trkpt>
      <trkpt lat="42.42406354285776615142822265625" lon="0.84331945516169071197509765625">
        <ele>1509.800048828125</ele>
        <time>2020-08-14T10:27:32.000Z</time>
      </trkpt>
      <trkpt lat="42.4240800552070140838623046875" lon="0.84331694059073925018310546875">
        <ele>1510</ele>
        <time>2020-08-14T10:27:33.000Z</time>
      </trkpt>
      <trkpt lat="42.42422397248446941375732421875" lon="0.8432876877486705780029296875">
        <ele>1511</ele>
        <time>2020-08-14T10:27:42.000Z</time>
      </trkpt>
      <trkpt lat="42.4242399819195270538330078125" lon="0.843283496797084808349609375">
        <ele>1511.199951171875</ele>
        <time>2020-08-14T10:27:43.000Z</time>
      </trkpt>
      <trkpt lat="42.424333356320858001708984375" lon="0.8432531543076038360595703125">
        <ele>1512.199951171875</ele>
        <time>2020-08-14T10:27:49.000Z</time>
      </trkpt>
      <trkpt lat="42.42434835992753505706787109375" lon="0.84324686788022518157958984375">
        <ele>1512.199951171875</ele>
        <time>2020-08-14T10:27:50.000Z</time>
      </trkpt>
      <trkpt lat="42.4244503676891326904296875" lon="0.84315575659275054931640625">
        <ele>1513.5999755859375</ele>
        <time>2020-08-14T10:27:58.000Z</time>
      </trkpt>
      <trkpt lat="42.4245400540530681610107421875" lon="0.842987783253192901611328125">
        <ele>1514.5999755859375</ele>
        <time>2020-08-14T10:28:08.000Z</time>
      </trkpt>
      <trkpt lat="42.424628399312496185302734375" lon="0.8428119309246540069580078125">
        <ele>1515.800048828125</ele>
        <time>2020-08-14T10:28:18.000Z</time>
      </trkpt>
      <trkpt lat="42.4247036688029766082763671875" lon="0.8427398465573787689208984375">
        <ele>1516.800048828125</ele>
        <time>2020-08-14T10:28:24.000Z</time>
      </trkpt>
      <trkpt lat="42.4247184209525585174560546875" lon="0.84273205138742923736572265625">
        <ele>1517</ele>
        <time>2020-08-14T10:28:25.000Z</time>
      </trkpt>
      <trkpt lat="42.4247978813946247100830078125" lon="0.84271528758108615875244140625">
        <ele>1518</ele>
        <time>2020-08-14T10:28:30.000Z</time>
      </trkpt>
      <trkpt lat="42.42484322749078273773193359375" lon="0.8427214063704013824462890625">
        <ele>1518.4000244140625</ele>
        <time>2020-08-14T10:28:33.000Z</time>
      </trkpt>
      <trkpt lat="42.42495068348944187164306640625" lon="0.8427770622074604034423828125">
        <ele>1519.199951171875</ele>
        <time>2020-08-14T10:28:40.000Z</time>
      </trkpt>
      <trkpt lat="42.4249806068837642669677734375" lon="0.84280128590762615203857421875">
        <ele>1519.199951171875</ele>
        <time>2020-08-14T10:28:42.000Z</time>
      </trkpt>
      <trkpt lat="42.42507733404636383056640625" lon="0.8429450355470180511474609375">
        <ele>1520</ele>
        <time>2020-08-14T10:28:50.000Z</time>
      </trkpt>
      <trkpt lat="42.42510172538459300994873046875" lon="0.84298384375870227813720703125">
        <ele>1520.199951171875</ele>
        <time>2020-08-14T10:28:52.000Z</time>
      </trkpt>
      <trkpt lat="42.42516324855387210845947265625" lon="0.84305760450661182403564453125">
        <ele>1520.4000244140625</ele>
        <time>2020-08-14T10:28:57.000Z</time>
      </trkpt>
      <trkpt lat="42.42524941451847553253173828125" lon="0.8431703411042690277099609375">
        <ele>1520.4000244140625</ele>
        <time>2020-08-14T10:29:04.000Z</time>
      </trkpt>
      <trkpt lat="42.425296604633331298828125" lon="0.84324032999575138092041015625">
        <ele>1520.4000244140625</ele>
        <time>2020-08-14T10:29:11.000Z</time>
      </trkpt>
      <trkpt lat="42.42532099597156047821044921875" lon="0.8432541601359844207763671875">
        <ele>1520.5999755859375</ele>
        <time>2020-08-14T10:29:14.000Z</time>
      </trkpt>
      <trkpt lat="42.425349242985248565673828125" lon="0.84329389035701751708984375">
        <ele>1521</ele>
        <time>2020-08-14T10:29:17.000Z</time>
      </trkpt>
      <trkpt lat="42.42541537620127201080322265625" lon="0.84343294613063335418701171875">
        <ele>1521</ele>
        <time>2020-08-14T10:29:25.000Z</time>
      </trkpt>
      <trkpt lat="42.42543264292180538177490234375" lon="0.84349262528121471405029296875">
        <ele>1521.199951171875</ele>
        <time>2020-08-14T10:29:28.000Z</time>
      </trkpt>
      <trkpt lat="42.425452172756195068359375" lon="0.84362137131392955780029296875">
        <ele>1521.5999755859375</ele>
        <time>2020-08-14T10:29:34.000Z</time>
      </trkpt>
      <trkpt lat="42.42547522298991680145263671875" lon="0.84376235492527484893798828125">
        <ele>1522.4000244140625</ele>
        <time>2020-08-14T10:29:40.000Z</time>
      </trkpt>
      <trkpt lat="42.42548578418791294097900390625" lon="0.84380929358303546905517578125">
        <ele>1522.5999755859375</ele>
        <time>2020-08-14T10:29:42.000Z</time>
      </trkpt>
      <trkpt lat="42.4255277775228023529052734375" lon="0.84398950450122356414794921875">
        <ele>1523.199951171875</ele>
        <time>2020-08-14T10:29:50.000Z</time>
      </trkpt>
      <trkpt lat="42.42554747499525547027587890625" lon="0.84408405236899852752685546875">
        <ele>1523.4000244140625</ele>
        <time>2020-08-14T10:29:54.000Z</time>
      </trkpt>
      <trkpt lat="42.42556415498256683349609375" lon="0.8441563881933689117431640625">
        <ele>1523.5999755859375</ele>
        <time>2020-08-14T10:29:57.000Z</time>
      </trkpt>
      <trkpt lat="42.4256491474807262420654296875" lon="0.84433592855930328369140625">
        <ele>1523.800048828125</ele>
        <time>2020-08-14T10:30:05.000Z</time>
      </trkpt>
      <trkpt lat="42.42579390294849872589111328125" lon="0.844387225806713104248046875">
        <ele>1524</ele>
        <time>2020-08-14T10:30:13.000Z</time>
      </trkpt>
      <trkpt lat="42.42593027651309967041015625" lon="0.8443401195108890533447265625">
        <ele>1524.4000244140625</ele>
        <time>2020-08-14T10:30:20.000Z</time>
      </trkpt>
      <trkpt lat="42.42607377469539642333984375" lon="0.844260491430759429931640625">
        <ele>1524.5999755859375</ele>
        <time>2020-08-14T10:30:28.000Z</time>
      </trkpt>
      <trkpt lat="42.42622741498053073883056640625" lon="0.844209194183349609375">
        <ele>1524.800048828125</ele>
        <time>2020-08-14T10:30:36.000Z</time>
      </trkpt>
      <trkpt lat="42.4263203702867031097412109375" lon="0.84420860745012760162353515625">
        <ele>1525.5999755859375</ele>
        <time>2020-08-14T10:30:41.000Z</time>
      </trkpt>
      <trkpt lat="42.42641039192676544189453125" lon="0.8442254550755023956298828125">
        <ele>1525.5999755859375</ele>
        <time>2020-08-14T10:30:46.000Z</time>
      </trkpt>
      <trkpt lat="42.426583059132099151611328125" lon="0.844302065670490264892578125">
        <ele>1526.800048828125</ele>
        <time>2020-08-14T10:30:56.000Z</time>
      </trkpt>
      <trkpt lat="42.42670434527099132537841796875" lon="0.84439870901405811309814453125">
        <ele>1527.5999755859375</ele>
        <time>2020-08-14T10:31:04.000Z</time>
      </trkpt>
      <trkpt lat="42.4267337657511234283447265625" lon="0.84442754276096820831298828125">
        <ele>1527.800048828125</ele>
        <time>2020-08-14T10:31:06.000Z</time>
      </trkpt>
      <trkpt lat="42.42680543102324008941650390625" lon="0.8445251919329166412353515625">
        <ele>1528.5999755859375</ele>
        <time>2020-08-14T10:31:12.000Z</time>
      </trkpt>
      <trkpt lat="42.42681674659252166748046875" lon="0.84454136900603771209716796875">
        <ele>1529</ele>
        <time>2020-08-14T10:31:13.000Z</time>
      </trkpt>
      <trkpt lat="42.42688908241689205169677734375" lon="0.844655446708202362060546875">
        <ele>1529.4000244140625</ele>
        <time>2020-08-14T10:31:20.000Z</time>
      </trkpt>
      <trkpt lat="42.42690660059452056884765625" lon="0.84469266235828399658203125">
        <ele>1530</ele>
        <time>2020-08-14T10:31:22.000Z</time>
      </trkpt>
      <trkpt lat="42.42695312015712261199951171875" lon="0.8448051474988460540771484375">
        <ele>1530.800048828125</ele>
        <time>2020-08-14T10:31:28.000Z</time>
      </trkpt>
      <trkpt lat="42.42696695029735565185546875" lon="0.844845212996006011962890625">
        <ele>1531</ele>
        <time>2020-08-14T10:31:30.000Z</time>
      </trkpt>
      <trkpt lat="42.42702386341989040374755859375" lon="0.84499709308147430419921875">
        <ele>1532</ele>
        <time>2020-08-14T10:31:38.000Z</time>
      </trkpt>
      <trkpt lat="42.42703174240887165069580078125" lon="0.84501394070684909820556640625">
        <ele>1532</ele>
        <time>2020-08-14T10:31:39.000Z</time>
      </trkpt>
      <trkpt lat="42.42703945375978946685791015625" lon="0.84503204561769962310791015625">
        <ele>1532.199951171875</ele>
        <time>2020-08-14T10:31:40.000Z</time>
      </trkpt>
      <trkpt lat="42.427092678844928741455078125" lon="0.8451887033879756927490234375">
        <ele>1533</ele>
        <time>2020-08-14T10:31:48.000Z</time>
      </trkpt>
      <trkpt lat="42.4270982109010219573974609375" lon="0.8452115021646022796630859375">
        <ele>1533</ele>
        <time>2020-08-14T10:31:49.000Z</time>
      </trkpt>
      <trkpt lat="42.42715612985193729400634765625" lon="0.845325328409671783447265625">
        <ele>1533.5999755859375</ele>
        <time>2020-08-14T10:31:55.000Z</time>
      </trkpt>
      <trkpt lat="42.42717943154275417327880859375" lon="0.84536195732653141021728515625">
        <ele>1534.199951171875</ele>
        <time>2020-08-14T10:31:57.000Z</time>
      </trkpt>
      <trkpt lat="42.42728487588465213775634765625" lon="0.84548584185540676116943359375">
        <ele>1535</ele>
        <time>2020-08-14T10:32:05.000Z</time>
      </trkpt>
      <trkpt lat="42.42734120227396488189697265625" lon="0.84552691318094730377197265625">
        <ele>1535.199951171875</ele>
        <time>2020-08-14T10:32:09.000Z</time>
      </trkpt>
      <trkpt lat="42.4274536035954952239990234375" lon="0.84556798450648784637451171875">
        <ele>1536</ele>
        <time>2020-08-14T10:32:16.000Z</time>
      </trkpt>
      <trkpt lat="42.427489645779132843017578125" lon="0.84557376801967620849609375">
        <ele>1536.199951171875</ele>
        <time>2020-08-14T10:32:18.000Z</time>
      </trkpt>
      <trkpt lat="42.42757254280149936676025390625" lon="0.8455732651054859161376953125">
        <ele>1537.4000244140625</ele>
        <time>2020-08-14T10:32:23.000Z</time>
      </trkpt>
      <trkpt lat="42.42758729495108127593994140625" lon="0.84556840360164642333984375">
        <ele>1537.5999755859375</ele>
        <time>2020-08-14T10:32:24.000Z</time>
      </trkpt>
      <trkpt lat="42.42766407318413257598876953125" lon="0.8455776236951351165771484375">
        <ele>1538.4000244140625</ele>
        <time>2020-08-14T10:32:29.000Z</time>
      </trkpt>
      <trkpt lat="42.42772492580115795135498046875" lon="0.84559748880565166473388671875">
        <ele>1538.5999755859375</ele>
        <time>2020-08-14T10:32:33.000Z</time>
      </trkpt>
      <trkpt lat="42.4278460443019866943359375" lon="0.84567426703870296478271484375">
        <ele>1539.4000244140625</ele>
        <time>2020-08-14T10:32:41.000Z</time>
      </trkpt>
      <trkpt lat="42.42785987444221973419189453125" lon="0.84568784572184085845947265625">
        <ele>1539.5999755859375</ele>
        <time>2020-08-14T10:32:42.000Z</time>
      </trkpt>
      <trkpt lat="42.4279622174799442291259765625" lon="0.84581742994487285614013671875">
        <ele>1539.5999755859375</ele>
        <time>2020-08-14T10:32:50.000Z</time>
      </trkpt>
      <trkpt lat="42.428049556910991668701171875" lon="0.84598238579928874969482421875">
        <ele>1540.199951171875</ele>
        <time>2020-08-14T10:32:58.000Z</time>
      </trkpt>
      <trkpt lat="42.4281090684235095977783203125" lon="0.8461878262460231781005859375">
        <ele>1540.4000244140625</ele>
        <time>2020-08-14T10:33:07.000Z</time>
      </trkpt>
      <trkpt lat="42.4281110800802707672119140625" lon="0.8463735692203044891357421875">
        <ele>1541.4000244140625</ele>
        <time>2020-08-14T10:33:15.000Z</time>
      </trkpt>
      <trkpt lat="42.42814016528427600860595703125" lon="0.846554450690746307373046875">
        <ele>1541.800048828125</ele>
        <time>2020-08-14T10:33:23.000Z</time>
      </trkpt>
      <trkpt lat="42.4281985871493816375732421875" lon="0.84665260277688503265380859375">
        <ele>1542.5999755859375</ele>
        <time>2020-08-14T10:33:28.000Z</time>
      </trkpt>
      <trkpt lat="42.42821224965155124664306640625" lon="0.8466692827641963958740234375">
        <ele>1542.5999755859375</ele>
        <time>2020-08-14T10:33:29.000Z</time>
      </trkpt>
      <trkpt lat="42.4282805621623992919921875" lon="0.84675134159624576568603515625">
        <ele>1543.800048828125</ele>
        <time>2020-08-14T10:33:34.000Z</time>
      </trkpt>
      <trkpt lat="42.4283253215253353118896484375" lon="0.84678604267537593841552734375">
        <ele>1544.4000244140625</ele>
        <time>2020-08-14T10:33:37.000Z</time>
      </trkpt>
      <trkpt lat="42.4283476173877716064453125" lon="0.8467997051775455474853515625">
        <ele>1544.4000244140625</ele>
        <time>2020-08-14T10:33:42.000Z</time>
      </trkpt>
      <trkpt lat="42.42834568955004215240478515625" lon="0.84679828025400638580322265625">
        <ele>1544.199951171875</ele>
        <time>2020-08-14T10:33:56.000Z</time>
      </trkpt>
      <trkpt lat="42.42834535427391529083251953125" lon="0.84679828025400638580322265625">
        <ele>1544.199951171875</ele>
        <time>2020-08-14T10:33:59.000Z</time>
      </trkpt>
      <trkpt lat="42.4283449351787567138671875" lon="0.84679844789206981658935546875">
        <ele>1544.199951171875</ele>
        <time>2020-08-14T10:34:17.000Z</time>
      </trkpt>
      <trkpt lat="42.42835021577775478363037109375" lon="0.84680364467203617095947265625">
        <ele>1544.199951171875</ele>
        <time>2020-08-14T10:34:30.000Z</time>
      </trkpt>
      <trkpt lat="42.4284503795206546783447265625" lon="0.8469016291201114654541015625">
        <ele>1544.5999755859375</ele>
        <time>2020-08-14T10:34:38.000Z</time>
      </trkpt>
      <trkpt lat="42.42850595153868198394775390625" lon="0.84696223028004169464111328125">
        <ele>1544.800048828125</ele>
        <time>2020-08-14T10:34:42.000Z</time>
      </trkpt>
      <trkpt lat="42.4285781197249889373779296875" lon="0.84705510176718235015869140625">
        <ele>1545.199951171875</ele>
        <time>2020-08-14T10:34:47.000Z</time>
      </trkpt>
      <trkpt lat="42.42871097289025783538818359375" lon="0.8472348935902118682861328125">
        <ele>1544.800048828125</ele>
        <time>2020-08-14T10:34:55.000Z</time>
      </trkpt>
      <trkpt lat="42.42890442721545696258544921875" lon="0.8475051261484622955322265625">
        <ele>1544.800048828125</ele>
        <time>2020-08-14T10:35:05.000Z</time>
      </trkpt>
      <trkpt lat="42.42907558567821979522705078125" lon="0.84776739589869976043701171875">
        <ele>1544.199951171875</ele>
        <time>2020-08-14T10:35:12.000Z</time>
      </trkpt>
      <trkpt lat="42.42910257540643215179443359375" lon="0.8478098921477794647216796875">
        <ele>1543.800048828125</ele>
        <time>2020-08-14T10:35:13.000Z</time>
      </trkpt>
      <trkpt lat="42.42929083295166492462158203125" lon="0.8480702340602874755859375">
        <ele>1543.199951171875</ele>
        <time>2020-08-14T10:35:19.000Z</time>
      </trkpt>
      <trkpt lat="42.42932863533496856689453125" lon="0.848104096949100494384765625">
        <ele>1543.4000244140625</ele>
        <time>2020-08-14T10:35:20.000Z</time>
      </trkpt>
      <trkpt lat="42.4293663538992404937744140625" lon="0.84813301451504230499267578125">
        <ele>1543.199951171875</ele>
        <time>2020-08-14T10:35:21.000Z</time>
      </trkpt>
      <trkpt lat="42.42954027839004993438720703125" lon="0.84822806529700756072998046875">
        <ele>1543.4000244140625</ele>
        <time>2020-08-14T10:35:26.000Z</time>
      </trkpt>
      <trkpt lat="42.42969333194196224212646484375" lon="0.84828942082822322845458984375">
        <ele>1542.5999755859375</ele>
        <time>2020-08-14T10:35:31.000Z</time>
      </trkpt>
      <trkpt lat="42.4297452159225940704345703125" lon="0.848309956490993499755859375">
        <ele>1542.4000244140625</ele>
        <time>2020-08-14T10:35:33.000Z</time>
      </trkpt>
      <trkpt lat="42.429992817342281341552734375" lon="0.84840006195008754730224609375">
        <ele>1542.800048828125</ele>
        <time>2020-08-14T10:35:42.000Z</time>
      </trkpt>
      <trkpt lat="42.43021200411021709442138671875" lon="0.84853434003889560699462890625">
        <ele>1543</ele>
        <time>2020-08-14T10:35:49.000Z</time>
      </trkpt>
      <trkpt lat="42.43049807846546173095703125" lon="0.8488217554986476898193359375">
        <ele>1541.4000244140625</ele>
        <time>2020-08-14T10:35:59.000Z</time>
      </trkpt>
      <trkpt lat="42.4306596815586090087890625" lon="0.849005319178104400634765625">
        <ele>1541.5999755859375</ele>
        <time>2020-08-14T10:36:05.000Z</time>
      </trkpt>
      <trkpt lat="42.4308576621115207672119140625" lon="0.84905468858778476715087890625">
        <ele>1540.5999755859375</ele>
        <time>2020-08-14T10:36:11.000Z</time>
      </trkpt>
      <trkpt lat="42.43092530407011508941650390625" lon="0.84903390146791934967041015625">
        <ele>1540.4000244140625</ele>
        <time>2020-08-14T10:36:13.000Z</time>
      </trkpt>
      <trkpt lat="42.43098464794456958770751953125" lon="0.8489897288382053375244140625">
        <ele>1540.4000244140625</ele>
        <time>2020-08-14T10:36:15.000Z</time>
      </trkpt>
      <trkpt lat="42.4311344325542449951171875" lon="0.84883843548595905303955078125">
        <ele>1539</ele>
        <time>2020-08-14T10:36:21.000Z</time>
      </trkpt>
      <trkpt lat="42.43116150610148906707763671875" lon="0.84880490787327289581298828125">
        <ele>1538.5999755859375</ele>
        <time>2020-08-14T10:36:22.000Z</time>
      </trkpt>
      <trkpt lat="42.4312965385615825653076171875" lon="0.8486403711140155792236328125">
        <ele>1537.5999755859375</ele>
        <time>2020-08-14T10:36:26.000Z</time>
      </trkpt>
      <trkpt lat="42.43133752606809139251708984375" lon="0.84859267808496952056884765625">
        <ele>1537.199951171875</ele>
        <time>2020-08-14T10:36:27.000Z</time>
      </trkpt>
      <trkpt lat="42.43137993849813938140869140625" lon="0.84854071028530597686767578125">
        <ele>1536.5999755859375</ele>
        <time>2020-08-14T10:36:28.000Z</time>
      </trkpt>
      <trkpt lat="42.43161521852016448974609375" lon="0.8482501097023487091064453125">
        <ele>1536.800048828125</ele>
        <time>2020-08-14T10:36:33.000Z</time>
      </trkpt>
      <trkpt lat="42.4316646717488765716552734375" lon="0.8481877483427524566650390625">
        <ele>1536.4000244140625</ele>
        <time>2020-08-14T10:36:34.000Z</time>
      </trkpt>
      <trkpt lat="42.4318024702370166778564453125" lon="0.8480031788349151611328125">
        <ele>1535.199951171875</ele>
        <time>2020-08-14T10:36:37.000Z</time>
      </trkpt>
      <trkpt lat="42.4318755604326725006103515625" lon="0.84787552244961261749267578125">
        <ele>1534.5999755859375</ele>
        <time>2020-08-14T10:36:39.000Z</time>
      </trkpt>
      <trkpt lat="42.43195661343634128570556640625" lon="0.84762741811573505401611328125">
        <ele>1534.5999755859375</ele>
        <time>2020-08-14T10:36:43.000Z</time>
      </trkpt>
      <trkpt lat="42.43196583352982997894287109375" lon="0.8475725166499614715576171875">
        <ele>1534.4000244140625</ele>
        <time>2020-08-14T10:36:44.000Z</time>
      </trkpt>
      <trkpt lat="42.43197287432849407196044921875" lon="0.8475222252309322357177734375">
        <ele>1534.199951171875</ele>
        <time>2020-08-14T10:36:45.000Z</time>
      </trkpt>
      <trkpt lat="42.43198879994451999664306640625" lon="0.847396664321422576904296875">
        <ele>1533.5999755859375</ele>
        <time>2020-08-14T10:36:48.000Z</time>
      </trkpt>
      <trkpt lat="42.43201662786304950714111328125" lon="0.8472020365297794342041015625">
        <ele>1534.5999755859375</ele>
        <time>2020-08-14T10:36:55.000Z</time>
      </trkpt>
      <trkpt lat="42.43202970363199710845947265625" lon="0.84706968627870082855224609375">
        <ele>1535.199951171875</ele>
        <time>2020-08-14T10:37:00.000Z</time>
      </trkpt>
      <trkpt lat="42.432033978402614593505859375" lon="0.846990644931793212890625">
        <ele>1535.800048828125</ele>
        <time>2020-08-14T10:37:03.000Z</time>
      </trkpt>
      <trkpt lat="42.4320358224213123321533203125" lon="0.84685309790074825286865234375">
        <ele>1536.4000244140625</ele>
        <time>2020-08-14T10:37:08.000Z</time>
      </trkpt>
      <trkpt lat="42.43203406222164630889892578125" lon="0.84682761691510677337646484375">
        <ele>1536.5999755859375</ele>
        <time>2020-08-14T10:37:09.000Z</time>
      </trkpt>
      <trkpt lat="42.432023249566555023193359375" lon="0.84672150202095508575439453125">
        <ele>1537.5999755859375</ele>
        <time>2020-08-14T10:37:13.000Z</time>
      </trkpt>
      <trkpt lat="42.43201964534819126129150390625" lon="0.84667338989675045013427734375">
        <ele>1538</ele>
        <time>2020-08-14T10:37:15.000Z</time>
      </trkpt>
      <trkpt lat="42.43202065117657184600830078125" lon="0.8466666005551815032958984375">
        <ele>1538.199951171875</ele>
        <time>2020-08-14T10:37:17.000Z</time>
      </trkpt>
      <trkpt lat="42.4320170469582080841064453125" lon="0.84666634909808635711669921875">
        <ele>1538.5999755859375</ele>
        <time>2020-08-14T10:37:21.000Z</time>
      </trkpt>
      <trkpt lat="42.43201796896755695343017578125" lon="0.846643634140491485595703125">
        <ele>1538.199951171875</ele>
        <time>2020-08-14T10:37:29.000Z</time>
      </trkpt>
      <trkpt lat="42.43201620876789093017578125" lon="0.8466057479381561279296875">
        <ele>1538.4000244140625</ele>
        <time>2020-08-14T10:37:36.000Z</time>
      </trkpt>
      <trkpt lat="42.43201218545436859130859375" lon="0.84654397331178188323974609375">
        <ele>1539</ele>
        <time>2020-08-14T10:37:44.000Z</time>
      </trkpt>
      <trkpt lat="42.43201277218759059906005859375" lon="0.84652167744934558868408203125">
        <ele>1539.199951171875</ele>
        <time>2020-08-14T10:37:51.000Z</time>
      </trkpt>
      <trkpt lat="42.4320147000253200531005859375" lon="0.8464731462299823760986328125">
        <ele>1539.5999755859375</ele>
        <time>2020-08-14T10:38:00.000Z</time>
      </trkpt>
      <trkpt lat="42.432020567357540130615234375" lon="0.8463423885405063629150390625">
        <ele>1540</ele>
        <time>2020-08-14T10:38:10.000Z</time>
      </trkpt>
      <trkpt lat="42.43202333338558673858642578125" lon="0.8461941964924335479736328125">
        <ele>1540.5999755859375</ele>
        <time>2020-08-14T10:38:21.000Z</time>
      </trkpt>
      <trkpt lat="42.43202048353850841522216796875" lon="0.8461371995508670806884765625">
        <ele>1541</ele>
        <time>2020-08-14T10:38:25.000Z</time>
      </trkpt>
      <trkpt lat="42.43201880715787410736083984375" lon="0.84600417874753475189208984375">
        <ele>1541.800048828125</ele>
        <time>2020-08-14T10:38:34.000Z</time>
      </trkpt>
      <trkpt lat="42.43201780132949352264404296875" lon="0.84593242965638637542724609375">
        <ele>1542</ele>
        <time>2020-08-14T10:38:39.000Z</time>
      </trkpt>
      <trkpt lat="42.43201528675854206085205078125" lon="0.845847688615322113037109375">
        <ele>1542.800048828125</ele>
        <time>2020-08-14T10:38:45.000Z</time>
      </trkpt>
      <trkpt lat="42.432013861835002899169921875" lon="0.84570678882300853729248046875">
        <ele>1543</ele>
        <time>2020-08-14T10:38:55.000Z</time>
      </trkpt>
      <trkpt lat="42.4320140294730663299560546875" lon="0.84567678160965442657470703125">
        <ele>1543.199951171875</ele>
        <time>2020-08-14T10:38:57.000Z</time>
      </trkpt>
      <trkpt lat="42.43201042525470256805419921875" lon="0.84554317407310009002685546875">
        <ele>1543.800048828125</ele>
        <time>2020-08-14T10:39:06.000Z</time>
      </trkpt>
      <trkpt lat="42.43201260454952716827392578125" lon="0.8454596064984798431396484375">
        <ele>1544.199951171875</ele>
        <time>2020-08-14T10:39:12.000Z</time>
      </trkpt>
      <trkpt lat="42.4320168793201446533203125" lon="0.84541895426809787750244140625">
        <ele>1544.5999755859375</ele>
        <time>2020-08-14T10:39:15.000Z</time>
      </trkpt>
      <trkpt lat="42.4320304580032825469970703125" lon="0.8452688343822956085205078125">
        <ele>1545.199951171875</ele>
        <time>2020-08-14T10:39:26.000Z</time>
      </trkpt>
      <trkpt lat="42.432050406932830810546875" lon="0.8451266773045063018798828125">
        <ele>1546.199951171875</ele>
        <time>2020-08-14T10:39:37.000Z</time>
      </trkpt>
      <trkpt lat="42.43205199949443340301513671875" lon="0.84509843029081821441650390625">
        <ele>1546.4000244140625</ele>
        <time>2020-08-14T10:39:39.000Z</time>
      </trkpt>
      <trkpt lat="42.43206088431179523468017578125" lon="0.8449952490627765655517578125">
        <ele>1546.5999755859375</ele>
        <time>2020-08-14T10:39:47.000Z</time>
      </trkpt>
      <trkpt lat="42.4320678412914276123046875" lon="0.844908915460109710693359375">
        <ele>1547.4000244140625</ele>
        <time>2020-08-14T10:39:54.000Z</time>
      </trkpt>
      <trkpt lat="42.43207077495753765106201171875" lon="0.84486105479300022125244140625">
        <ele>1547.800048828125</ele>
        <time>2020-08-14T10:39:58.000Z</time>
      </trkpt>
      <trkpt lat="42.4320758879184722900390625" lon="0.8447826839983463287353515625">
        <ele>1548.4000244140625</ele>
        <time>2020-08-14T10:40:04.000Z</time>
      </trkpt>
      <trkpt lat="42.43207655847072601318359375" lon="0.8447174727916717529296875">
        <ele>1548.800048828125</ele>
        <time>2020-08-14T10:40:09.000Z</time>
      </trkpt>
      <trkpt lat="42.43207546882331371307373046875" lon="0.844608508050441741943359375">
        <ele>1549.199951171875</ele>
        <time>2020-08-14T10:40:18.000Z</time>
      </trkpt>
      <trkpt lat="42.43207597173750400543212890625" lon="0.84459610283374786376953125">
        <ele>1549.5999755859375</ele>
        <time>2020-08-14T10:40:19.000Z</time>
      </trkpt>
      <trkpt lat="42.43209005333483219146728515625" lon="0.84450499154627323150634765625">
        <ele>1550</ele>
        <time>2020-08-14T10:40:27.000Z</time>
      </trkpt>
      <trkpt lat="42.43209759704768657684326171875" lon="0.84437079727649688720703125">
        <ele>1550.199951171875</ele>
        <time>2020-08-14T10:40:37.000Z</time>
      </trkpt>
      <trkpt lat="42.43210815824568271636962890625" lon="0.844276584684848785400390625">
        <ele>1550.800048828125</ele>
        <time>2020-08-14T10:40:44.000Z</time>
      </trkpt>
      <trkpt lat="42.432110421359539031982421875" lon="0.84425034932792186737060546875">
        <ele>1551.199951171875</ele>
        <time>2020-08-14T10:40:46.000Z</time>
      </trkpt>
      <trkpt lat="42.4321179650723934173583984375" lon="0.84410802461206912994384765625">
        <ele>1551.5999755859375</ele>
        <time>2020-08-14T10:40:56.000Z</time>
      </trkpt>
      <trkpt lat="42.432115785777568817138671875" lon="0.84406544454395771026611328125">
        <ele>1552</ele>
        <time>2020-08-14T10:40:59.000Z</time>
      </trkpt>
      <trkpt lat="42.4321236647665500640869140625" lon="0.84396787919104099273681640625">
        <ele>1552.4000244140625</ele>
        <time>2020-08-14T10:41:06.000Z</time>
      </trkpt>
      <trkpt lat="42.432124502956867218017578125" lon="0.84391473792493343353271484375">
        <ele>1553</ele>
        <time>2020-08-14T10:41:10.000Z</time>
      </trkpt>
      <trkpt lat="42.43212743662297725677490234375" lon="0.843851454555988311767578125">
        <ele>1553.199951171875</ele>
        <time>2020-08-14T10:41:15.000Z</time>
      </trkpt>
      <trkpt lat="42.4321377463638782501220703125" lon="0.84377744235098361968994140625">
        <ele>1554</ele>
        <time>2020-08-14T10:41:23.000Z</time>
      </trkpt>
      <trkpt lat="42.4321370758116245269775390625" lon="0.84377693943679332733154296875">
        <ele>1554</ele>
        <time>2020-08-14T10:41:24.000Z</time>
      </trkpt>
      <trkpt lat="42.43214202113449573516845703125" lon="0.84372572600841522216796875">
        <ele>1554.199951171875</ele>
        <time>2020-08-14T10:41:33.000Z</time>
      </trkpt>
      <trkpt lat="42.4321575276553630828857421875" lon="0.843602009117603302001953125">
        <ele>1555</ele>
        <time>2020-08-14T10:41:44.000Z</time>
      </trkpt>
      <trkpt lat="42.4321598745882511138916015625" lon="0.84359186701476573944091796875">
        <ele>1555.199951171875</ele>
        <time>2020-08-14T10:41:45.000Z</time>
      </trkpt>
      <trkpt lat="42.4321846850216388702392578125" lon="0.843467228114604949951171875">
        <ele>1556.199951171875</ele>
        <time>2020-08-14T10:41:57.000Z</time>
      </trkpt>
      <trkpt lat="42.43220890872180461883544921875" lon="0.84339975379407405853271484375">
        <ele>1557.199951171875</ele>
        <time>2020-08-14T10:42:04.000Z</time>
      </trkpt>
      <trkpt lat="42.432211674749851226806640625" lon="0.84338868968188762664794921875">
        <ele>1557.199951171875</ele>
        <time>2020-08-14T10:42:05.000Z</time>
      </trkpt>
      <trkpt lat="42.43222550489008426666259765625" lon="0.84327268414199352264404296875">
        <ele>1558.199951171875</ele>
        <time>2020-08-14T10:42:16.000Z</time>
      </trkpt>
      <trkpt lat="42.43222651071846485137939453125" lon="0.8432608656585216522216796875">
        <ele>1558.199951171875</ele>
        <time>2020-08-14T10:42:17.000Z</time>
      </trkpt>
      <trkpt lat="42.432222068309783935546875" lon="0.84317461587488651275634765625">
        <ele>1558.5999755859375</ele>
        <time>2020-08-14T10:42:25.000Z</time>
      </trkpt>
      <trkpt lat="42.43221628479659557342529296875" lon="0.8431270904839038848876953125">
        <ele>1559.4000244140625</ele>
        <time>2020-08-14T10:42:29.000Z</time>
      </trkpt>
      <trkpt lat="42.43219885043799877166748046875" lon="0.84305492229759693145751953125">
        <ele>1560</ele>
        <time>2020-08-14T10:42:36.000Z</time>
      </trkpt>
      <trkpt lat="42.43218359537422657012939453125" lon="0.84299147129058837890625">
        <ele>1560.4000244140625</ele>
        <time>2020-08-14T10:42:42.000Z</time>
      </trkpt>
      <trkpt lat="42.432179488241672515869140625" lon="0.84294578991830348968505859375">
        <ele>1561</ele>
        <time>2020-08-14T10:42:46.000Z</time>
      </trkpt>
      <trkpt lat="42.43217873387038707733154296875" lon="0.84289214573800563812255859375">
        <ele>1561.199951171875</ele>
        <time>2020-08-14T10:42:51.000Z</time>
      </trkpt>
      <trkpt lat="42.43218426592648029327392578125" lon="0.84283657371997833251953125">
        <ele>1561.5999755859375</ele>
        <time>2020-08-14T10:42:56.000Z</time>
      </trkpt>
      <trkpt lat="42.43222265504300594329833984375" lon="0.84274881519377231597900390625">
        <ele>1562.4000244140625</ele>
        <time>2020-08-14T10:43:05.000Z</time>
      </trkpt>
      <trkpt lat="42.432227432727813720703125" lon="0.84274412132799625396728515625">
        <ele>1562.5999755859375</ele>
        <time>2020-08-14T10:43:06.000Z</time>
      </trkpt>
      <trkpt lat="42.43225769139826297760009765625" lon="0.84271277301013469696044921875">
        <ele>1563.199951171875</ele>
        <time>2020-08-14T10:43:13.000Z</time>
      </trkpt>
      <trkpt lat="42.432259619235992431640625" lon="0.8427173830568790435791015625">
        <ele>1563.199951171875</ele>
        <time>2020-08-14T10:43:23.000Z</time>
      </trkpt>
      <trkpt lat="42.43225987069308757781982421875" lon="0.8427187241613864898681640625">
        <ele>1563.199951171875</ele>
        <time>2020-08-14T10:43:47.000Z</time>
      </trkpt>
      <trkpt lat="42.432287447154521942138671875" lon="0.8426751382648944854736328125">
        <ele>1563.199951171875</ele>
        <time>2020-08-14T10:43:54.000Z</time>
      </trkpt>
      <trkpt lat="42.43229440413415431976318359375" lon="0.842660553753376007080078125">
        <ele>1563.4000244140625</ele>
        <time>2020-08-14T10:43:55.000Z</time>
      </trkpt>
      <trkpt lat="42.432351820170879364013671875" lon="0.84252116270363330841064453125">
        <ele>1564</ele>
        <time>2020-08-14T10:44:03.000Z</time>
      </trkpt>
      <trkpt lat="42.43236062116920948028564453125" lon="0.84248193539679050445556640625">
        <ele>1564.4000244140625</ele>
        <time>2020-08-14T10:44:05.000Z</time>
      </trkpt>
      <trkpt lat="42.43238543160259723663330078125" lon="0.8423358388245105743408203125">
        <ele>1565</ele>
        <time>2020-08-14T10:44:12.000Z</time>
      </trkpt>
      <trkpt lat="42.43239532224833965301513671875" lon="0.84223265759646892547607421875">
        <ele>1565.4000244140625</ele>
        <time>2020-08-14T10:44:17.000Z</time>
      </trkpt>
      <trkpt lat="42.43238979019224643707275390625" lon="0.84212956018745899200439453125">
        <ele>1566.4000244140625</ele>
        <time>2020-08-14T10:44:22.000Z</time>
      </trkpt>
      <trkpt lat="42.43238761089742183685302734375" lon="0.84210961125791072845458984375">
        <ele>1566.800048828125</ele>
        <time>2020-08-14T10:44:23.000Z</time>
      </trkpt>
      <trkpt lat="42.43235659785568714141845703125" lon="0.8419777639210224151611328125">
        <ele>1567.800048828125</ele>
        <time>2020-08-14T10:44:29.000Z</time>
      </trkpt>
      <trkpt lat="42.43232692591845989227294921875" lon="0.841916240751743316650390625">
        <ele>1568.199951171875</ele>
        <time>2020-08-14T10:44:32.000Z</time>
      </trkpt>
      <trkpt lat="42.432251907885074615478515625" lon="0.8418268896639347076416015625">
        <ele>1568.800048828125</ele>
        <time>2020-08-14T10:44:37.000Z</time>
      </trkpt>
      <trkpt lat="42.43221946991980075836181640625" lon="0.84179227240383625030517578125">
        <ele>1569.5999755859375</ele>
        <time>2020-08-14T10:44:39.000Z</time>
      </trkpt>
      <trkpt lat="42.43218895979225635528564453125" lon="0.8417589962482452392578125">
        <ele>1570</ele>
        <time>2020-08-14T10:44:41.000Z</time>
      </trkpt>
      <trkpt lat="42.432103715837001800537109375" lon="0.84162714891135692596435546875">
        <ele>1570.800048828125</ele>
        <time>2020-08-14T10:44:48.000Z</time>
      </trkpt>
      <trkpt lat="42.43207915686070919036865234375" lon="0.84156914614140987396240234375">
        <ele>1571.4000244140625</ele>
        <time>2020-08-14T10:44:51.000Z</time>
      </trkpt>
      <trkpt lat="42.4320545978844165802001953125" lon="0.84151784889400005340576171875">
        <ele>1572</ele>
        <time>2020-08-14T10:44:54.000Z</time>
      </trkpt>
      <trkpt lat="42.43199315853416919708251953125" lon="0.8414235524833202362060546875">
        <ele>1572.5999755859375</ele>
        <time>2020-08-14T10:45:00.000Z</time>
      </trkpt>
      <trkpt lat="42.43195376358926296234130859375" lon="0.84139262326061725616455078125">
        <ele>1573</ele>
        <time>2020-08-14T10:45:03.000Z</time>
      </trkpt>
      <trkpt lat="42.43185804225504398345947265625" lon="0.84136672317981719970703125">
        <ele>1573.5999755859375</ele>
        <time>2020-08-14T10:45:09.000Z</time>
      </trkpt>
      <trkpt lat="42.4318427033722400665283203125" lon="0.84136010147631168365478515625">
        <ele>1573.800048828125</ele>
        <time>2020-08-14T10:45:10.000Z</time>
      </trkpt>
      <trkpt lat="42.43178411386907100677490234375" lon="0.8413298428058624267578125">
        <ele>1574.5999755859375</ele>
        <time>2020-08-14T10:45:14.000Z</time>
      </trkpt>
      <trkpt lat="42.43169543333351612091064453125" lon="0.84125516004860401153564453125">
        <ele>1574.800048828125</ele>
        <time>2020-08-14T10:45:21.000Z</time>
      </trkpt>
      <trkpt lat="42.43165167979896068572998046875" lon="0.84120017476379871368408203125">
        <ele>1575.5999755859375</ele>
        <time>2020-08-14T10:45:25.000Z</time>
      </trkpt>
      <trkpt lat="42.43160876445472240447998046875" lon="0.84112339653074741363525390625">
        <ele>1576.199951171875</ele>
        <time>2020-08-14T10:45:30.000Z</time>
      </trkpt>
      <trkpt lat="42.4315858818590641021728515625" lon="0.8410540781915187835693359375">
        <ele>1576.800048828125</ele>
        <time>2020-08-14T10:45:34.000Z</time>
      </trkpt>
      <trkpt lat="42.43157020770013332366943359375" lon="0.840976126492023468017578125">
        <ele>1577.199951171875</ele>
        <time>2020-08-14T10:45:38.000Z</time>
      </trkpt>
      <trkpt lat="42.43156299926340579986572265625" lon="0.84091602824628353118896484375">
        <ele>1577.800048828125</ele>
        <time>2020-08-14T10:45:41.000Z</time>
      </trkpt>
      <trkpt lat="42.43156752549111843109130859375" lon="0.8408133499324321746826171875">
        <ele>1578.5999755859375</ele>
        <time>2020-08-14T10:45:46.000Z</time>
      </trkpt>
      <trkpt lat="42.43157221935689449310302734375" lon="0.8407711051404476165771484375">
        <ele>1579</ele>
        <time>2020-08-14T10:45:48.000Z</time>
      </trkpt>
      <trkpt lat="42.4315878935158252716064453125" lon="0.8406504057347774505615234375">
        <ele>1579.5999755859375</ele>
        <time>2020-08-14T10:45:54.000Z</time>
      </trkpt>
      <trkpt lat="42.43160205893218517303466796875" lon="0.84057555533945560455322265625">
        <ele>1580</ele>
        <time>2020-08-14T10:45:58.000Z</time>
      </trkpt>
      <trkpt lat="42.43161060847342014312744140625" lon="0.8405037224292755126953125">
        <ele>1580.800048828125</ele>
        <time>2020-08-14T10:46:02.000Z</time>
      </trkpt>
      <trkpt lat="42.43161027319729328155517578125" lon="0.84046407602727413177490234375">
        <ele>1581</ele>
        <time>2020-08-14T10:46:04.000Z</time>
      </trkpt>
      <trkpt lat="42.43159510195255279541015625" lon="0.8403392694890499114990234375">
        <ele>1581.800048828125</ele>
        <time>2020-08-14T10:46:10.000Z</time>
      </trkpt>
      <trkpt lat="42.43159241974353790283203125" lon="0.84031932055950164794921875">
        <ele>1582</ele>
        <time>2020-08-14T10:46:11.000Z</time>
      </trkpt>
      <trkpt lat="42.4315436370670795440673828125" lon="0.84020105190575122833251953125">
        <ele>1583</ele>
        <time>2020-08-14T10:46:17.000Z</time>
      </trkpt>
      <trkpt lat="42.4315003864467144012451171875" lon="0.8401501737534999847412109375">
        <ele>1583.199951171875</ele>
        <time>2020-08-14T10:46:20.000Z</time>
      </trkpt>
      <trkpt lat="42.431445233523845672607421875" lon="0.8401384390890598297119140625">
        <ele>1583.5999755859375</ele>
        <time>2020-08-14T10:46:23.000Z</time>
      </trkpt>
      <trkpt lat="42.43134163320064544677734375" lon="0.8402101881802082061767578125">
        <ele>1583.5999755859375</ele>
        <time>2020-08-14T10:46:29.000Z</time>
      </trkpt>
      <trkpt lat="42.4312697164714336395263671875" lon="0.84025369025766849517822265625">
        <ele>1584.4000244140625</ele>
        <time>2020-08-14T10:46:33.000Z</time>
      </trkpt>
      <trkpt lat="42.43121196515858173370361328125" lon="0.84026559256017208099365234375">
        <ele>1585.199951171875</ele>
        <time>2020-08-14T10:46:36.000Z</time>
      </trkpt>
      <trkpt lat="42.431193105876445770263671875" lon="0.84026969969272613525390625">
        <ele>1585.4000244140625</ele>
        <time>2020-08-14T10:46:37.000Z</time>
      </trkpt>
      <trkpt lat="42.43105287663638591766357421875" lon="0.84027280099689960479736328125">
        <ele>1585.800048828125</ele>
        <time>2020-08-14T10:46:45.000Z</time>
      </trkpt>
      <trkpt lat="42.43100493215024471282958984375" lon="0.840258300304412841796875">
        <ele>1586.4000244140625</ele>
        <time>2020-08-14T10:46:48.000Z</time>
      </trkpt>
      <trkpt lat="42.43091759271919727325439453125" lon="0.840198285877704620361328125">
        <ele>1587.4000244140625</ele>
        <time>2020-08-14T10:46:54.000Z</time>
      </trkpt>
      <trkpt lat="42.43090367875993251800537109375" lon="0.8401853777468204498291015625">
        <ele>1587.5999755859375</ele>
        <time>2020-08-14T10:46:55.000Z</time>
      </trkpt>
      <trkpt lat="42.4308033473789691925048828125" lon="0.84003425203263759613037109375">
        <ele>1588.4000244140625</ele>
        <time>2020-08-14T10:47:04.000Z</time>
      </trkpt>
      <trkpt lat="42.43078784085810184478759765625" lon="0.839995108544826507568359375">
        <ele>1588.5999755859375</ele>
        <time>2020-08-14T10:47:06.000Z</time>
      </trkpt>
      <trkpt lat="42.43075934238731861114501953125" lon="0.8399161510169506072998046875">
        <ele>1589.800048828125</ele>
        <time>2020-08-14T10:47:10.000Z</time>
      </trkpt>
      <trkpt lat="42.43073143064975738525390625" lon="0.83983912132680416107177734375">
        <ele>1590.4000244140625</ele>
        <time>2020-08-14T10:47:14.000Z</time>
      </trkpt>
      <trkpt lat="42.43068658746778964996337890625" lon="0.83971590735018253326416015625">
        <ele>1590.5999755859375</ele>
        <time>2020-08-14T10:47:20.000Z</time>
      </trkpt>
      <trkpt lat="42.43066546507179737091064453125" lon="0.83966209553182125091552734375">
        <ele>1590.800048828125</ele>
        <time>2020-08-14T10:47:23.000Z</time>
      </trkpt>
      <trkpt lat="42.43064534850418567657470703125" lon="0.839611552655696868896484375">
        <ele>1592</ele>
        <time>2020-08-14T10:47:26.000Z</time>
      </trkpt>
      <trkpt lat="42.43061919696629047393798828125" lon="0.8395369537174701690673828125">
        <ele>1592.199951171875</ele>
        <time>2020-08-14T10:47:30.000Z</time>
      </trkpt>
      <trkpt lat="42.430566810071468353271484375" lon="0.83938188850879669189453125">
        <ele>1593.199951171875</ele>
        <time>2020-08-14T10:47:38.000Z</time>
      </trkpt>
      <trkpt lat="42.43053755722939968109130859375" lon="0.83926915191113948822021484375">
        <ele>1594.199951171875</ele>
        <time>2020-08-14T10:47:44.000Z</time>
      </trkpt>
      <trkpt lat="42.4305207096040248870849609375" lon="0.83921232260763645172119140625">
        <ele>1594.199951171875</ele>
        <time>2020-08-14T10:47:48.000Z</time>
      </trkpt>
      <trkpt lat="42.4305207096040248870849609375" lon="0.83921232260763645172119140625">
        <ele>1594.4000244140625</ele>
        <time>2020-08-14T10:47:49.000Z</time>
      </trkpt>
      <trkpt lat="42.430519200861454010009765625" lon="0.83921450190246105194091796875">
        <ele>1594</ele>
        <time>2020-08-14T10:48:29.000Z</time>
      </trkpt>
      <trkpt lat="42.430516518652439117431640625" lon="0.83920159377157688140869140625">
        <ele>1594</ele>
        <time>2020-08-14T10:48:32.000Z</time>
      </trkpt>
      <trkpt lat="42.430507130920886993408203125" lon="0.83916856907308101654052734375">
        <ele>1594</ele>
        <time>2020-08-14T10:48:34.000Z</time>
      </trkpt>
      <trkpt lat="42.43046664632856845855712890625" lon="0.838997662067413330078125">
        <ele>1594.4000244140625</ele>
        <time>2020-08-14T10:48:42.000Z</time>
      </trkpt>
      <trkpt lat="42.43042071349918842315673828125" lon="0.83883262239396572113037109375">
        <ele>1594.199951171875</ele>
        <time>2020-08-14T10:48:50.000Z</time>
      </trkpt>
      <trkpt lat="42.4303661473095417022705078125" lon="0.83866146393120288848876953125">
        <ele>1594.800048828125</ele>
        <time>2020-08-14T10:48:58.000Z</time>
      </trkpt>
      <trkpt lat="42.430360279977321624755859375" lon="0.838637240231037139892578125">
        <ele>1595</ele>
        <time>2020-08-14T10:48:59.000Z</time>
      </trkpt>
      <trkpt lat="42.43031459860503673553466796875" lon="0.83847940899431705474853515625">
        <ele>1594.5999755859375</ele>
        <time>2020-08-14T10:49:05.000Z</time>
      </trkpt>
      <trkpt lat="42.43027905933558940887451171875" lon="0.8383862860500812530517578125">
        <ele>1593.800048828125</ele>
        <time>2020-08-14T10:49:08.000Z</time>
      </trkpt>
      <trkpt lat="42.43021049536764621734619140625" lon="0.838226862251758575439453125">
        <ele>1593.4000244140625</ele>
        <time>2020-08-14T10:49:12.000Z</time>
      </trkpt>
      <trkpt lat="42.4301321245729923248291015625" lon="0.83804639987647533416748046875">
        <ele>1592.4000244140625</ele>
        <time>2020-08-14T10:49:16.000Z</time>
      </trkpt>
      <trkpt lat="42.43006850592792034149169921875" lon="0.83790776319801807403564453125">
        <ele>1591</ele>
        <time>2020-08-14T10:49:19.000Z</time>
      </trkpt>
      <trkpt lat="42.4300052225589752197265625" lon="0.83776644431054592132568359375">
        <ele>1590</ele>
        <time>2020-08-14T10:49:22.000Z</time>
      </trkpt>
      <trkpt lat="42.429985441267490386962890625" lon="0.83772101439535617828369140625">
        <ele>1589.800048828125</ele>
        <time>2020-08-14T10:49:23.000Z</time>
      </trkpt>
      <trkpt lat="42.4299078248441219329833984375" lon="0.8375340141355991363525390625">
        <ele>1588.199951171875</ele>
        <time>2020-08-14T10:49:27.000Z</time>
      </trkpt>
      <trkpt lat="42.4298525042831897735595703125" lon="0.837399400770664215087890625">
        <ele>1586.800048828125</ele>
        <time>2020-08-14T10:49:30.000Z</time>
      </trkpt>
      <trkpt lat="42.429833225905895233154296875" lon="0.83735807798802852630615234375">
        <ele>1586</ele>
        <time>2020-08-14T10:49:31.000Z</time>
      </trkpt>
      <trkpt lat="42.429811768233776092529296875" lon="0.8373199403285980224609375">
        <ele>1585.5999755859375</ele>
        <time>2020-08-14T10:49:32.000Z</time>
      </trkpt>
      <trkpt lat="42.4296784959733486175537109375" lon="0.83712891675531864166259765625">
        <ele>1584.4000244140625</ele>
        <time>2020-08-14T10:49:37.000Z</time>
      </trkpt>
      <trkpt lat="42.42964589037001132965087890625" lon="0.83709622733294963836669921875">
        <ele>1584.199951171875</ele>
        <time>2020-08-14T10:49:38.000Z</time>
      </trkpt>
      <trkpt lat="42.4294796772301197052001953125" lon="0.8369804732501506805419921875">
        <ele>1583.4000244140625</ele>
        <time>2020-08-14T10:49:43.000Z</time>
      </trkpt>
      <trkpt lat="42.4294438026845455169677734375" lon="0.83696697838604450225830078125">
        <ele>1583</ele>
        <time>2020-08-14T10:49:44.000Z</time>
      </trkpt>
      <trkpt lat="42.42933240719139575958251953125" lon="0.83694376051425933837890625">
        <ele>1582.199951171875</ele>
        <time>2020-08-14T10:49:47.000Z</time>
      </trkpt>
      <trkpt lat="42.42917717434465885162353515625" lon="0.83692758344113826751708984375">
        <ele>1581.199951171875</ele>
        <time>2020-08-14T10:49:51.000Z</time>
      </trkpt>
      <trkpt lat="42.4289975501596927642822265625" lon="0.83690025843679904937744140625">
        <ele>1580</ele>
        <time>2020-08-14T10:49:56.000Z</time>
      </trkpt>
      <trkpt lat="42.42893166840076446533203125" lon="0.83688131533563137054443359375">
        <ele>1578.800048828125</ele>
        <time>2020-08-14T10:49:58.000Z</time>
      </trkpt>
      <trkpt lat="42.4288411438465118408203125" lon="0.83685264922678470611572265625">
        <ele>1577.5999755859375</ele>
        <time>2020-08-14T10:50:01.000Z</time>
      </trkpt>
      <trkpt lat="42.42871499620378017425537109375" lon="0.8368049561977386474609375">
        <ele>1577.199951171875</ele>
        <time>2020-08-14T10:50:05.000Z</time>
      </trkpt>
      <trkpt lat="42.42853864096105098724365234375" lon="0.8367394097149372100830078125">
        <ele>1576.4000244140625</ele>
        <time>2020-08-14T10:50:11.000Z</time>
      </trkpt>
      <trkpt lat="42.42845180444419384002685546875" lon="0.8367008529603481292724609375">
        <ele>1575.4000244140625</ele>
        <time>2020-08-14T10:50:14.000Z</time>
      </trkpt>
      <trkpt lat="42.42834552191197872161865234375" lon="0.83664008416235446929931640625">
        <ele>1573.800048828125</ele>
        <time>2020-08-14T10:50:18.000Z</time>
      </trkpt>
      <trkpt lat="42.428262792527675628662109375" lon="0.83658509887754917144775390625">
        <ele>1572.800048828125</ele>
        <time>2020-08-14T10:50:21.000Z</time>
      </trkpt>
      <trkpt lat="42.42823706008493900299072265625" lon="0.8365650661289691925048828125">
        <ele>1572.4000244140625</ele>
        <time>2020-08-14T10:50:22.000Z</time>
      </trkpt>
      <trkpt lat="42.4281851761043071746826171875" lon="0.83651854656636714935302734375">
        <ele>1571.4000244140625</ele>
        <time>2020-08-14T10:50:24.000Z</time>
      </trkpt>
      <trkpt lat="42.4281184561550617218017578125" lon="0.8364509046077728271484375">
        <ele>1570</ele>
        <time>2020-08-14T10:50:27.000Z</time>
      </trkpt>
      <trkpt lat="42.42807495407760143280029296875" lon="0.836399607360363006591796875">
        <ele>1569.199951171875</ele>
        <time>2020-08-14T10:50:29.000Z</time>
      </trkpt>
      <trkpt lat="42.42805433459579944610595703125" lon="0.83637756295502185821533203125">
        <ele>1568.5999755859375</ele>
        <time>2020-08-14T10:50:30.000Z</time>
      </trkpt>
      <trkpt lat="42.4279947392642498016357421875" lon="0.836292318999767303466796875">
        <ele>1567.4000244140625</ele>
        <time>2020-08-14T10:50:33.000Z</time>
      </trkpt>
      <trkpt lat="42.42795936763286590576171875" lon="0.83622719161212444305419921875">
        <ele>1566.800048828125</ele>
        <time>2020-08-14T10:50:35.000Z</time>
      </trkpt>
      <trkpt lat="42.4279303662478923797607421875" lon="0.836166255176067352294921875">
        <ele>1566.199951171875</ele>
        <time>2020-08-14T10:50:37.000Z</time>
      </trkpt>
      <trkpt lat="42.42787730880081653594970703125" lon="0.83603541366755962371826171875">
        <ele>1565.199951171875</ele>
        <time>2020-08-14T10:50:41.000Z</time>
      </trkpt>
      <trkpt lat="42.42785987444221973419189453125" lon="0.8360018022358417510986328125">
        <ele>1564.800048828125</ele>
        <time>2020-08-14T10:50:42.000Z</time>
      </trkpt>
      <trkpt lat="42.42779516614973545074462890625" lon="0.83589443005621433258056640625">
        <ele>1563.800048828125</ele>
        <time>2020-08-14T10:50:45.000Z</time>
      </trkpt>
      <trkpt lat="42.42774479091167449951171875" lon="0.83582469262182712554931640625">
        <ele>1564</ele>
        <time>2020-08-14T10:50:47.000Z</time>
      </trkpt>
      <trkpt lat="42.42763004265725612640380859375" lon="0.8356802724301815032958984375">
        <ele>1562.5999755859375</ele>
        <time>2020-08-14T10:50:52.000Z</time>
      </trkpt>
      <trkpt lat="42.42759383283555507659912109375" lon="0.83562755025923252105712890625">
        <ele>1561.5999755859375</ele>
        <time>2020-08-14T10:50:54.000Z</time>
      </trkpt>
      <trkpt lat="42.4274525977671146392822265625" lon="0.83543342538177967071533203125">
        <ele>1560.5999755859375</ele>
        <time>2020-08-14T10:51:00.000Z</time>
      </trkpt>
      <trkpt lat="42.4274271167814731597900390625" lon="0.83539612591266632080078125">
        <ele>1560.4000244140625</ele>
        <time>2020-08-14T10:51:01.000Z</time>
      </trkpt>
      <trkpt lat="42.42733231745660305023193359375" lon="0.835225470364093780517578125">
        <ele>1560</ele>
        <time>2020-08-14T10:51:05.000Z</time>
      </trkpt>
      <trkpt lat="42.427297532558441162109375" lon="0.83511860109865665435791015625">
        <ele>1560</ele>
        <time>2020-08-14T10:51:07.000Z</time>
      </trkpt>
      <trkpt lat="42.42727012373507022857666015625" lon="0.835013575851917266845703125">
        <ele>1559.4000244140625</ele>
        <time>2020-08-14T10:51:09.000Z</time>
      </trkpt>
      <trkpt lat="42.427183203399181365966796875" lon="0.834855325520038604736328125">
        <ele>1558.5999755859375</ele>
        <time>2020-08-14T10:51:13.000Z</time>
      </trkpt>
      <trkpt lat="42.42706409655511379241943359375" lon="0.83480780012905597686767578125">
        <ele>1559.199951171875</ele>
        <time>2020-08-14T10:51:17.000Z</time>
      </trkpt>
      <trkpt lat="42.42687039077281951904296875" lon="0.83481987006962299346923828125">
        <ele>1559.199951171875</ele>
        <time>2020-08-14T10:51:24.000Z</time>
      </trkpt>
      <trkpt lat="42.42664718069136142730712890625" lon="0.83485473878681659698486328125">
        <ele>1558.199951171875</ele>
        <time>2020-08-14T10:51:31.000Z</time>
      </trkpt>
      <trkpt lat="42.4265423230826854705810546875" lon="0.83486932329833507537841796875">
        <ele>1558.199951171875</ele>
        <time>2020-08-14T10:51:34.000Z</time>
      </trkpt>
      <trkpt lat="42.426195479929447174072265625" lon="0.83491810597479343414306640625">
        <ele>1557.5999755859375</ele>
        <time>2020-08-14T10:51:44.000Z</time>
      </trkpt>
      <trkpt lat="42.4260072223842144012451171875" lon="0.83491601049900054931640625">
        <ele>1557.199951171875</ele>
        <time>2020-08-14T10:51:49.000Z</time>
      </trkpt>
      <trkpt lat="42.4258888699114322662353515625" lon="0.83490259945392608642578125">
        <ele>1556.800048828125</ele>
        <time>2020-08-14T10:51:52.000Z</time>
      </trkpt>
      <trkpt lat="42.4255312979221343994140625" lon="0.83485297858715057373046875">
        <ele>1556.199951171875</ele>
        <time>2020-08-14T10:52:01.000Z</time>
      </trkpt>
      <trkpt lat="42.42549441754817962646484375" lon="0.83485004492104053497314453125">
        <ele>1556</ele>
        <time>2020-08-14T10:52:02.000Z</time>
      </trkpt>
      <trkpt lat="42.42530942894518375396728515625" lon="0.83484702743589878082275390625">
        <ele>1555</ele>
        <time>2020-08-14T10:52:07.000Z</time>
      </trkpt>
      <trkpt lat="42.42518671788275241851806640625" lon="0.834850631654262542724609375">
        <ele>1554.800048828125</ele>
        <time>2020-08-14T10:52:11.000Z</time>
      </trkpt>
      <trkpt lat="42.42516609840095043182373046875" lon="0.8348504640161991119384765625">
        <ele>1554</ele>
        <time>2020-08-14T10:52:14.000Z</time>
      </trkpt>
      <trkpt lat="42.42516760714352130889892578125" lon="0.8348494581878185272216796875">
        <ele>1553.800048828125</ele>
        <time>2020-08-14T10:52:15.000Z</time>
      </trkpt>
      <trkpt lat="42.42516584694385528564453125" lon="0.83485658280551433563232421875">
        <ele>1553.800048828125</ele>
        <time>2020-08-14T10:52:22.000Z</time>
      </trkpt>
      <trkpt lat="42.42516660131514072418212890625" lon="0.83485373295843601226806640625">
        <ele>1554</ele>
        <time>2020-08-14T10:53:01.000Z</time>
      </trkpt>
      <trkpt lat="42.42516584694385528564453125" lon="0.834850631654262542724609375">
        <ele>1553.800048828125</ele>
        <time>2020-08-14T10:53:28.000Z</time>
      </trkpt>
      <trkpt lat="42.42510776035487651824951171875" lon="0.8348524756729602813720703125">
        <ele>1553.800048828125</ele>
        <time>2020-08-14T10:53:33.000Z</time>
      </trkpt>
      <trkpt lat="42.42497649975121021270751953125" lon="0.8348598517477512359619140625">
        <ele>1552.5999755859375</ele>
        <time>2020-08-14T10:53:39.000Z</time>
      </trkpt>
      <trkpt lat="42.4249537847936153411865234375" lon="0.8348598517477512359619140625">
        <ele>1552.4000244140625</ele>
        <time>2020-08-14T10:53:40.000Z</time>
      </trkpt>
      <trkpt lat="42.4248401261866092681884765625" lon="0.8348692394793033599853515625">
        <ele>1551.5999755859375</ele>
        <time>2020-08-14T10:53:45.000Z</time>
      </trkpt>
      <trkpt lat="42.42476527579128742218017578125" lon="0.83487921394407749176025390625">
        <ele>1550.800048828125</ele>
        <time>2020-08-14T10:53:48.000Z</time>
      </trkpt>
      <trkpt lat="42.42471464909613132476806640625" lon="0.83488759584724903106689453125">
        <ele>1550.4000244140625</ele>
        <time>2020-08-14T10:53:50.000Z</time>
      </trkpt>
      <trkpt lat="42.42461708374321460723876953125" lon="0.8349051140248775482177734375">
        <ele>1549.199951171875</ele>
        <time>2020-08-14T10:53:54.000Z</time>
      </trkpt>
      <trkpt lat="42.42455371655523777008056640625" lon="0.83492062054574489593505859375">
        <ele>1548</ele>
        <time>2020-08-14T10:53:57.000Z</time>
      </trkpt>
      <trkpt lat="42.4244180135428905487060546875" lon="0.8349285833537578582763671875">
        <ele>1546.5999755859375</ele>
        <time>2020-08-14T10:54:03.000Z</time>
      </trkpt>
      <trkpt lat="42.424399070441722869873046875" lon="0.8349327743053436279296875">
        <ele>1546.199951171875</ele>
        <time>2020-08-14T10:54:05.000Z</time>
      </trkpt>
      <trkpt lat="42.4243861623108386993408203125" lon="0.834939144551753997802734375">
        <ele>1546</ele>
        <time>2020-08-14T10:54:06.000Z</time>
      </trkpt>
      <trkpt lat="42.4243442527949810028076171875" lon="0.83494325168430805206298828125">
        <ele>1545.5999755859375</ele>
        <time>2020-08-14T10:54:08.000Z</time>
      </trkpt>
      <trkpt lat="42.42427594028413295745849609375" lon="0.83493453450500965118408203125">
        <ele>1545</ele>
        <time>2020-08-14T10:54:10.000Z</time>
      </trkpt>
      <trkpt lat="42.42423512041568756103515625" lon="0.83492447622120380401611328125">
        <ele>1544</ele>
        <time>2020-08-14T10:54:11.000Z</time>
      </trkpt>
      <trkpt lat="42.4241955578327178955078125" lon="0.8349131606519222259521484375">
        <ele>1543.800048828125</ele>
        <time>2020-08-14T10:54:12.000Z</time>
      </trkpt>
      <trkpt lat="42.4241124093532562255859375" lon="0.8348836563527584075927734375">
        <ele>1544.199951171875</ele>
        <time>2020-08-14T10:54:14.000Z</time>
      </trkpt>
      <trkpt lat="42.42402230389416217803955078125" lon="0.83482104353606700897216796875">
        <ele>1543.800048828125</ele>
        <time>2020-08-14T10:54:16.000Z</time>
      </trkpt>
      <trkpt lat="42.42390931583940982818603515625" lon="0.83466648124158382415771484375">
        <ele>1542.800048828125</ele>
        <time>2020-08-14T10:54:19.000Z</time>
      </trkpt>
      <trkpt lat="42.42387930862605571746826171875" lon="0.8346068859100341796875">
        <ele>1542.199951171875</ele>
        <time>2020-08-14T10:54:20.000Z</time>
      </trkpt>
      <trkpt lat="42.42385114543139934539794921875" lon="0.83454720675945281982421875">
        <ele>1541.800048828125</ele>
        <time>2020-08-14T10:54:21.000Z</time>
      </trkpt>
      <trkpt lat="42.4235813319683074951171875" lon="0.83398888818919658660888671875">
        <ele>1541</ele>
        <time>2020-08-14T10:54:31.000Z</time>
      </trkpt>
      <trkpt lat="42.4235533364117145538330078125" lon="0.83393893204629421234130859375">
        <ele>1540.800048828125</ele>
        <time>2020-08-14T10:54:32.000Z</time>
      </trkpt>
      <trkpt lat="42.4233840219676494598388671875" lon="0.83373726345598697662353515625">
        <ele>1540.199951171875</ele>
        <time>2020-08-14T10:54:37.000Z</time>
      </trkpt>
      <trkpt lat="42.4232200719416141510009765625" lon="0.83370767533779144287109375">
        <ele>1540</ele>
        <time>2020-08-14T10:54:41.000Z</time>
      </trkpt>
      <trkpt lat="42.4231215007603168487548828125" lon="0.833734162151813507080078125">
        <ele>1540.199951171875</ele>
        <time>2020-08-14T10:54:44.000Z</time>
      </trkpt>
      <trkpt lat="42.42303256876766681671142578125" lon="0.8337457291781902313232421875">
        <ele>1540.199951171875</ele>
        <time>2020-08-14T10:54:47.000Z</time>
      </trkpt>
      <trkpt lat="42.422836013138294219970703125" lon="0.833794176578521728515625">
        <ele>1540.800048828125</ele>
        <time>2020-08-14T10:54:54.000Z</time>
      </trkpt>
      <trkpt lat="42.422681786119937896728515625" lon="0.8338303864002227783203125">
        <ele>1541.199951171875</ele>
        <time>2020-08-14T10:55:00.000Z</time>
      </trkpt>
      <trkpt lat="42.42241851054131984710693359375" lon="0.83391194231808185577392578125">
        <ele>1542</ele>
        <time>2020-08-14T10:55:11.000Z</time>
      </trkpt>
      <trkpt lat="42.422194294631481170654296875" lon="0.8339767344295978546142578125">
        <ele>1542.4000244140625</ele>
        <time>2020-08-14T10:55:21.000Z</time>
      </trkpt>
      <trkpt lat="42.4220261536538600921630859375" lon="0.833992995321750640869140625">
        <ele>1543</ele>
        <time>2020-08-14T10:55:28.000Z</time>
      </trkpt>
      <trkpt lat="42.42191626690328121185302734375" lon="0.83399467170238494873046875">
        <ele>1543.4000244140625</ele>
        <time>2020-08-14T10:55:32.000Z</time>
      </trkpt>
      <trkpt lat="42.42166698910295963287353515625" lon="0.8339537680149078369140625">
        <ele>1542.199951171875</ele>
        <time>2020-08-14T10:55:40.000Z</time>
      </trkpt>
      <trkpt lat="42.4216043762862682342529296875" lon="0.83392686210572719573974609375">
        <ele>1542</ele>
        <time>2020-08-14T10:55:42.000Z</time>
      </trkpt>
      <trkpt lat="42.42147512733936309814453125" lon="0.833821333944797515869140625">
        <ele>1541.4000244140625</ele>
        <time>2020-08-14T10:55:46.000Z</time>
      </trkpt>
      <trkpt lat="42.421441264450550079345703125" lon="0.8337876386940479278564453125">
        <ele>1540.5999755859375</ele>
        <time>2020-08-14T10:55:47.000Z</time>
      </trkpt>
      <trkpt lat="42.42135216481983661651611328125" lon="0.8336746506392955780029296875">
        <ele>1539.4000244140625</ele>
        <time>2020-08-14T10:55:50.000Z</time>
      </trkpt>
      <trkpt lat="42.4212825112044811248779296875" lon="0.83355805836617946624755859375">
        <ele>1539.5999755859375</ele>
        <time>2020-08-14T10:55:53.000Z</time>
      </trkpt>
      <trkpt lat="42.42126080207526683807373046875" lon="0.8335165679454803466796875">
        <ele>1539.5999755859375</ele>
        <time>2020-08-14T10:55:54.000Z</time>
      </trkpt>
      <trkpt lat="42.42117815650999546051025390625" lon="0.8333366923034191131591796875">
        <ele>1538.199951171875</ele>
        <time>2020-08-14T10:55:58.000Z</time>
      </trkpt>
      <trkpt lat="42.4211457185447216033935546875" lon="0.83325027488172054290771484375">
        <ele>1537.199951171875</ele>
        <time>2020-08-14T10:56:00.000Z</time>
      </trkpt>
      <trkpt lat="42.42113088257610797882080078125" lon="0.833206437528133392333984375">
        <ele>1537</ele>
        <time>2020-08-14T10:56:01.000Z</time>
      </trkpt>
      <trkpt lat="42.42108142934739589691162109375" lon="0.833042152225971221923828125">
        <ele>1536.199951171875</ele>
        <time>2020-08-14T10:56:04.000Z</time>
      </trkpt>
      <trkpt lat="42.4210682697594165802001953125" lon="0.8329755999147891998291015625">
        <ele>1536</ele>
        <time>2020-08-14T10:56:05.000Z</time>
      </trkpt>
      <trkpt lat="42.42104656063020229339599609375" lon="0.83284257911145687103271484375">
        <ele>1534.800048828125</ele>
        <time>2020-08-14T10:56:07.000Z</time>
      </trkpt>
      <trkpt lat="42.4209965206682682037353515625" lon="0.83259464241564273834228515625">
        <ele>1534</ele>
        <time>2020-08-14T10:56:11.000Z</time>
      </trkpt>
      <trkpt lat="42.4209770746529102325439453125" lon="0.8325375616550445556640625">
        <ele>1533.4000244140625</ele>
        <time>2020-08-14T10:56:12.000Z</time>
      </trkpt>
      <trkpt lat="42.4209237657487392425537109375" lon="0.83240604959428310394287109375">
        <ele>1532.4000244140625</ele>
        <time>2020-08-14T10:56:15.000Z</time>
      </trkpt>
      <trkpt lat="42.42090784013271331787109375" lon="0.83236799575388431549072265625">
        <ele>1531.800048828125</ele>
        <time>2020-08-14T10:56:16.000Z</time>
      </trkpt>
      <trkpt lat="42.420890070497989654541015625" lon="0.83233061246573925018310546875">
        <ele>1531</ele>
        <time>2020-08-14T10:56:17.000Z</time>
      </trkpt>
      <trkpt lat="42.420827038586139678955078125" lon="0.83220806904137134552001953125">
        <ele>1529.800048828125</ele>
        <time>2020-08-14T10:56:20.000Z</time>
      </trkpt>
      <trkpt lat="42.42075688205659389495849609375" lon="0.832068510353565216064453125">
        <ele>1528.800048828125</ele>
        <time>2020-08-14T10:56:23.000Z</time>
      </trkpt>
      <trkpt lat="42.4206404574215412139892578125" lon="0.83180942572653293609619140625">
        <ele>1527</ele>
        <time>2020-08-14T10:56:28.000Z</time>
      </trkpt>
      <trkpt lat="42.42060148157179355621337890625" lon="0.83169895224273204803466796875">
        <ele>1525.800048828125</ele>
        <time>2020-08-14T10:56:30.000Z</time>
      </trkpt>
      <trkpt lat="42.4205844663083553314208984375" lon="0.8316485770046710968017578125">
        <ele>1525.5999755859375</ele>
        <time>2020-08-14T10:56:31.000Z</time>
      </trkpt>
      <trkpt lat="42.42052168585360050201416015625" lon="0.83144850097596645355224609375">
        <ele>1524.5999755859375</ele>
        <time>2020-08-14T10:56:35.000Z</time>
      </trkpt>
      <trkpt lat="42.4204915948212146759033203125" lon="0.83129779435694217681884765625">
        <ele>1523.800048828125</ele>
        <time>2020-08-14T10:56:38.000Z</time>
      </trkpt>
      <trkpt lat="42.42048547603189945220947265625" lon="0.8312472514808177947998046875">
        <ele>1523.5999755859375</ele>
        <time>2020-08-14T10:56:39.000Z</time>
      </trkpt>
      <trkpt lat="42.4204852245748043060302734375" lon="0.83103376440703868865966796875">
        <ele>1523.4000244140625</ele>
        <time>2020-08-14T10:56:43.000Z</time>
      </trkpt>
      <trkpt lat="42.420495115220546722412109375" lon="0.8309766836464405059814453125">
        <ele>1523.199951171875</ele>
        <time>2020-08-14T10:56:44.000Z</time>
      </trkpt>
      <trkpt lat="42.42052688263356685638427734375" lon="0.8308714069426059722900390625">
        <ele>1522</ele>
        <time>2020-08-14T10:56:46.000Z</time>
      </trkpt>
      <trkpt lat="42.42057122290134429931640625" lon="0.8307470194995403289794921875">
        <ele>1520.5999755859375</ele>
        <time>2020-08-14T10:56:49.000Z</time>
      </trkpt>
      <trkpt lat="42.42057499475777149200439453125" lon="0.8306300081312656402587890625">
        <ele>1519.199951171875</ele>
        <time>2020-08-14T10:56:52.000Z</time>
      </trkpt>
      <trkpt lat="42.42055420763790607452392578125" lon="0.8305471949279308319091796875">
        <ele>1518.5999755859375</ele>
        <time>2020-08-14T10:56:54.000Z</time>
      </trkpt>
      <trkpt lat="42.42044306360185146331787109375" lon="0.83035902120172977447509765625">
        <ele>1518</ele>
        <time>2020-08-14T10:56:59.000Z</time>
      </trkpt>
      <trkpt lat="42.420412637293338775634765625" lon="0.83032247610390186309814453125">
        <ele>1517.800048828125</ele>
        <time>2020-08-14T10:57:00.000Z</time>
      </trkpt>
      <trkpt lat="42.42026151157915592193603515625" lon="0.830108486115932464599609375">
        <ele>1517</ele>
        <time>2020-08-14T10:57:05.000Z</time>
      </trkpt>
      <trkpt lat="42.42020401172339916229248046875" lon="0.8299986831843852996826171875">
        <ele>1517</ele>
        <time>2020-08-14T10:57:07.000Z</time>
      </trkpt>
      <trkpt lat="42.4201392196118831634521484375" lon="0.8298196457326412200927734375">
        <ele>1515.5999755859375</ele>
        <time>2020-08-14T10:57:10.000Z</time>
      </trkpt>
      <trkpt lat="42.420104853808879852294921875" lon="0.8297009579837322235107421875">
        <ele>1514.4000244140625</ele>
        <time>2020-08-14T10:57:12.000Z</time>
      </trkpt>
      <trkpt lat="42.42007124237716197967529296875" lon="0.82958067767322063446044921875">
        <ele>1513</ele>
        <time>2020-08-14T10:57:14.000Z</time>
      </trkpt>
      <trkpt lat="42.42001072503626346588134765625" lon="0.82932553254067897796630859375">
        <ele>1511.800048828125</ele>
        <time>2020-08-14T10:57:18.000Z</time>
      </trkpt>
      <trkpt lat="42.4199571646749973297119140625" lon="0.82906468771398067474365234375">
        <ele>1510.4000244140625</ele>
        <time>2020-08-14T10:57:22.000Z</time>
      </trkpt>
      <trkpt lat="42.419930510222911834716796875" lon="0.82893870770931243896484375">
        <ele>1508.800048828125</ele>
        <time>2020-08-14T10:57:24.000Z</time>
      </trkpt>
      <trkpt lat="42.41986102424561977386474609375" lon="0.82870627753436565399169921875">
        <ele>1509</ele>
        <time>2020-08-14T10:57:28.000Z</time>
      </trkpt>
      <trkpt lat="42.4195984192192554473876953125" lon="0.8280788920819759368896484375">
        <ele>1508.5999755859375</ele>
        <time>2020-08-14T10:57:39.000Z</time>
      </trkpt>
      <trkpt lat="42.41956916637718677520751953125" lon="0.828039161860942840576171875">
        <ele>1508</ele>
        <time>2020-08-14T10:57:40.000Z</time>
      </trkpt>
      <trkpt lat="42.4195390753448009490966796875" lon="0.8280064724385738372802734375">
        <ele>1507.5999755859375</ele>
        <time>2020-08-14T10:57:41.000Z</time>
      </trkpt>
      <trkpt lat="42.41945751942694187164306640625" lon="0.82792617380619049072265625">
        <ele>1507</ele>
        <time>2020-08-14T10:57:44.000Z</time>
      </trkpt>
      <trkpt lat="42.4192839302122592926025390625" lon="0.82776884548366069793701171875">
        <ele>1508.4000244140625</ele>
        <time>2020-08-14T10:57:51.000Z</time>
      </trkpt>
      <trkpt lat="42.41922835819423198699951171875" lon="0.82772861234843730926513671875">
        <ele>1508.5999755859375</ele>
        <time>2020-08-14T10:57:53.000Z</time>
      </trkpt>
      <trkpt lat="42.419061474502086639404296875" lon="0.8276279456913471221923828125">
        <ele>1508</ele>
        <time>2020-08-14T10:57:59.000Z</time>
      </trkpt>
      <trkpt lat="42.41898746229708194732666015625" lon="0.827577821910381317138671875">
        <ele>1507.5999755859375</ele>
        <time>2020-08-14T10:58:02.000Z</time>
      </trkpt>
      <trkpt lat="42.41884924471378326416015625" lon="0.8274871297180652618408203125">
        <ele>1507</ele>
        <time>2020-08-14T10:58:07.000Z</time>
      </trkpt>
      <trkpt lat="42.41874790750443935394287109375" lon="0.82741999067366123199462890625">
        <ele>1506.4000244140625</ele>
        <time>2020-08-14T10:58:10.000Z</time>
      </trkpt>
      <trkpt lat="42.41864346899092197418212890625" lon="0.8273318968713283538818359375">
        <ele>1506.199951171875</ele>
        <time>2020-08-14T10:58:13.000Z</time>
      </trkpt>
      <trkpt lat="42.41861044429242610931396484375" lon="0.827294178307056427001953125">
        <ele>1506.199951171875</ele>
        <time>2020-08-14T10:58:14.000Z</time>
      </trkpt>
      <trkpt lat="42.4185500107705593109130859375" lon="0.82720742560923099517822265625">
        <ele>1504.800048828125</ele>
        <time>2020-08-14T10:58:16.000Z</time>
      </trkpt>
      <trkpt lat="42.41848655976355075836181640625" lon="0.82705789245665073394775390625">
        <ele>1503.5999755859375</ele>
        <time>2020-08-14T10:58:19.000Z</time>
      </trkpt>
      <trkpt lat="42.41845923475921154022216796875" lon="0.826951526105403900146484375">
        <ele>1503.4000244140625</ele>
        <time>2020-08-14T10:58:21.000Z</time>
      </trkpt>
      <trkpt lat="42.41842185147106647491455078125" lon="0.826777517795562744140625">
        <ele>1502</ele>
        <time>2020-08-14T10:58:24.000Z</time>
      </trkpt>
      <trkpt lat="42.41839569993317127227783203125" lon="0.82666444592177867889404296875">
        <ele>1501.199951171875</ele>
        <time>2020-08-14T10:58:26.000Z</time>
      </trkpt>
      <trkpt lat="42.418344654142856597900390625" lon="0.826438553631305694580078125">
        <ele>1500.800048828125</ele>
        <time>2020-08-14T10:58:30.000Z</time>
      </trkpt>
      <trkpt lat="42.41832395084202289581298828125" lon="0.82632849924266338348388671875">
        <ele>1499.4000244140625</ele>
        <time>2020-08-14T10:58:32.000Z</time>
      </trkpt>
      <trkpt lat="42.4183079414069652557373046875" lon="0.82610922865569591522216796875">
        <ele>1499</ele>
        <time>2020-08-14T10:58:36.000Z</time>
      </trkpt>
      <trkpt lat="42.418319843709468841552734375" lon="0.82590823061764240264892578125">
        <ele>1498.4000244140625</ele>
        <time>2020-08-14T10:58:40.000Z</time>
      </trkpt>
      <trkpt lat="42.41832596249878406524658203125" lon="0.8257557637989521026611328125">
        <ele>1496.800048828125</ele>
        <time>2020-08-14T10:58:43.000Z</time>
      </trkpt>
      <trkpt lat="42.41830517537891864776611328125" lon="0.8255101740360260009765625">
        <ele>1495.800048828125</ele>
        <time>2020-08-14T10:58:47.000Z</time>
      </trkpt>
      <trkpt lat="42.4182925187051296234130859375" lon="0.825452506542205810546875">
        <ele>1494.800048828125</ele>
        <time>2020-08-14T10:58:48.000Z</time>
      </trkpt>
      <trkpt lat="42.418260164558887481689453125" lon="0.82534144632518291473388671875">
        <ele>1493.5999755859375</ele>
        <time>2020-08-14T10:58:50.000Z</time>
      </trkpt>
      <trkpt lat="42.418191768229007720947265625" lon="0.82511815242469310760498046875">
        <ele>1493</ele>
        <time>2020-08-14T10:58:54.000Z</time>
      </trkpt>
      <trkpt lat="42.4181775189936161041259765625" lon="0.8250503428280353546142578125">
        <ele>1492.800048828125</ele>
        <time>2020-08-14T10:58:55.000Z</time>
      </trkpt>
      <trkpt lat="42.41815857589244842529296875" lon="0.82491229288280010223388671875">
        <ele>1492.4000244140625</ele>
        <time>2020-08-14T10:58:57.000Z</time>
      </trkpt>
      <trkpt lat="42.41813703440129756927490234375" lon="0.82478807307779788970947265625">
        <ele>1491.5999755859375</ele>
        <time>2020-08-14T10:58:59.000Z</time>
      </trkpt>
      <trkpt lat="42.4181221984326839447021484375" lon="0.82474096678197383880615234375">
        <ele>1491.199951171875</ele>
        <time>2020-08-14T10:59:00.000Z</time>
      </trkpt>
      <trkpt lat="42.41805941797792911529541015625" lon="0.8246563933789730072021484375">
        <ele>1490.5999755859375</ele>
        <time>2020-08-14T10:59:03.000Z</time>
      </trkpt>
      <trkpt lat="42.41803519427776336669921875" lon="0.82464055158197879791259765625">
        <ele>1490.199951171875</ele>
        <time>2020-08-14T10:59:04.000Z</time>
      </trkpt>
      <trkpt lat="42.41794542409479618072509765625" lon="0.82462579943239688873291015625">
        <ele>1488.5999755859375</ele>
        <time>2020-08-14T10:59:07.000Z</time>
      </trkpt>
      <trkpt lat="42.4177745170891284942626953125" lon="0.824670307338237762451171875">
        <ele>1487.4000244140625</ele>
        <time>2020-08-14T10:59:12.000Z</time>
      </trkpt>
      <trkpt lat="42.417739816009998321533203125" lon="0.8246761746704578399658203125">
        <ele>1487</ele>
        <time>2020-08-14T10:59:13.000Z</time>
      </trkpt>
      <trkpt lat="42.4176276661455631256103515625" lon="0.8246617577970027923583984375">
        <ele>1486.4000244140625</ele>
        <time>2020-08-14T10:59:16.000Z</time>
      </trkpt>
      <trkpt lat="42.4175555817782878875732421875" lon="0.82462169229984283447265625">
        <ele>1486</ele>
        <time>2020-08-14T10:59:18.000Z</time>
      </trkpt>
      <trkpt lat="42.41742775775492191314697265625" lon="0.8244652859866619110107421875">
        <ele>1484.800048828125</ele>
        <time>2020-08-14T10:59:22.000Z</time>
      </trkpt>
      <trkpt lat="42.41739758290350437164306640625" lon="0.82441222853958606719970703125">
        <ele>1483.800048828125</ele>
        <time>2020-08-14T10:59:23.000Z</time>
      </trkpt>
      <trkpt lat="42.41736791096627712249755859375" lon="0.8243606798350811004638671875">
        <ele>1483.199951171875</ele>
        <time>2020-08-14T10:59:24.000Z</time>
      </trkpt>
      <trkpt lat="42.41730974055826663970947265625" lon="0.8242629468441009521484375">
        <ele>1481.5999755859375</ele>
        <time>2020-08-14T10:59:26.000Z</time>
      </trkpt>
      <trkpt lat="42.41722650825977325439453125" lon="0.8241263218224048614501953125">
        <ele>1480.4000244140625</ele>
        <time>2020-08-14T10:59:29.000Z</time>
      </trkpt>
      <trkpt lat="42.4172003567218780517578125" lon="0.82408214919269084930419921875">
        <ele>1480</ele>
        <time>2020-08-14T10:59:30.000Z</time>
      </trkpt>
      <trkpt lat="42.4171760492026805877685546875" lon="0.82404107786715030670166015625">
        <ele>1479.199951171875</ele>
        <time>2020-08-14T10:59:31.000Z</time>
      </trkpt>
      <trkpt lat="42.41706465370953083038330078125" lon="0.8238480426371097564697265625">
        <ele>1477.5999755859375</ele>
        <time>2020-08-14T10:59:36.000Z</time>
      </trkpt>
      <trkpt lat="42.41699726320803165435791015625" lon="0.82373949699103832244873046875">
        <ele>1477</ele>
        <time>2020-08-14T10:59:39.000Z</time>
      </trkpt>
      <trkpt lat="42.41694345138967037200927734375" lon="0.8236673288047313690185546875">
        <ele>1476.199951171875</ele>
        <time>2020-08-14T10:59:41.000Z</time>
      </trkpt>
      <trkpt lat="42.4168059043586254119873046875" lon="0.823527015745639801025390625">
        <ele>1474.800048828125</ele>
        <time>2020-08-14T10:59:45.000Z</time>
      </trkpt>
      <trkpt lat="42.4165685288608074188232421875" lon="0.82337907515466213226318359375">
        <ele>1474</ele>
        <time>2020-08-14T10:59:52.000Z</time>
      </trkpt>
      <trkpt lat="42.4165219254791736602783203125" lon="0.82336231134831905364990234375">
        <ele>1473.800048828125</ele>
        <time>2020-08-14T10:59:54.000Z</time>
      </trkpt>
      <trkpt lat="42.4164354242384433746337890625" lon="0.823335908353328704833984375">
        <ele>1474.5999755859375</ele>
        <time>2020-08-14T10:59:58.000Z</time>
      </trkpt>
      <trkpt lat="42.41639628075063228607177734375" lon="0.823325850069522857666015625">
        <ele>1475</ele>
        <time>2020-08-14T11:00:00.000Z</time>
      </trkpt>
      <trkpt lat="42.41630516946315765380859375" lon="0.82330112345516681671142578125">
        <ele>1475.800048828125</ele>
        <time>2020-08-14T11:00:06.000Z</time>
      </trkpt>
      <trkpt lat="42.41629100404679775238037109375" lon="0.82329827360808849334716796875">
        <ele>1476.199951171875</ele>
        <time>2020-08-14T11:00:07.000Z</time>
      </trkpt>
      <trkpt lat="42.416204251348972320556640625" lon="0.82324177958071231842041015625">
        <ele>1477.4000244140625</ele>
        <time>2020-08-14T11:00:14.000Z</time>
      </trkpt>
      <trkpt lat="42.41619159467518329620361328125" lon="0.8232307992875576019287109375">
        <ele>1477.5999755859375</ele>
        <time>2020-08-14T11:00:15.000Z</time>
      </trkpt>
      <trkpt lat="42.41615471430122852325439453125" lon="0.8231781609356403350830078125">
        <ele>1478.4000244140625</ele>
        <time>2020-08-14T11:00:19.000Z</time>
      </trkpt>
      <trkpt lat="42.41613350808620452880859375" lon="0.82312074489891529083251953125">
        <ele>1478.800048828125</ele>
        <time>2020-08-14T11:00:22.000Z</time>
      </trkpt>
      <trkpt lat="42.4161355197429656982421875" lon="0.82308185286819934844970703125">
        <ele>1479.199951171875</ele>
        <time>2020-08-14T11:00:24.000Z</time>
      </trkpt>
      <trkpt lat="42.416148595511913299560546875" lon="0.8230460621416568756103515625">
        <ele>1479.5999755859375</ele>
        <time>2020-08-14T11:00:26.000Z</time>
      </trkpt>
      <trkpt lat="42.41615856997668743133544921875" lon="0.82303105853497982025146484375">
        <ele>1479.800048828125</ele>
        <time>2020-08-14T11:00:27.000Z</time>
      </trkpt>
      <trkpt lat="42.41624406538903713226318359375" lon="0.82296542823314666748046875">
        <ele>1480.4000244140625</ele>
        <time>2020-08-14T11:00:33.000Z</time>
      </trkpt>
      <trkpt lat="42.4162647686898708343505859375" lon="0.82293651066720485687255859375">
        <ele>1480.800048828125</ele>
        <time>2020-08-14T11:00:35.000Z</time>
      </trkpt>
      <trkpt lat="42.4162818677723407745361328125" lon="0.82289694808423519134521484375">
        <ele>1482</ele>
        <time>2020-08-14T11:00:37.000Z</time>
      </trkpt>
      <trkpt lat="42.41629234515130519866943359375" lon="0.822853110730648040771484375">
        <ele>1482.4000244140625</ele>
        <time>2020-08-14T11:00:39.000Z</time>
      </trkpt>
      <trkpt lat="42.41628798656165599822998046875" lon="0.8228304795920848846435546875">
        <ele>1482.4000244140625</ele>
        <time>2020-08-14T11:00:40.000Z</time>
      </trkpt>
      <trkpt lat="42.41627709008753299713134765625" lon="0.82281363196671009063720703125">
        <ele>1482.4000244140625</ele>
        <time>2020-08-14T11:00:41.000Z</time>
      </trkpt>
      <trkpt lat="42.41623199544847011566162109375" lon="0.8227899111807346343994140625">
        <ele>1483</ele>
        <time>2020-08-14T11:00:44.000Z</time>
      </trkpt>
      <trkpt lat="42.41621657274663448333740234375" lon="0.82278764806687831878662109375">
        <ele>1483</ele>
        <time>2020-08-14T11:00:45.000Z</time>
      </trkpt>
      <trkpt lat="42.416091598570346832275390625" lon="0.82282788120210170745849609375">
        <ele>1483.5999755859375</ele>
        <time>2020-08-14T11:00:53.000Z</time>
      </trkpt>
      <trkpt lat="42.4159965477883815765380859375" lon="0.82284950651228427886962890625">
        <ele>1484</ele>
        <time>2020-08-14T11:00:59.000Z</time>
      </trkpt>
      <trkpt lat="42.4159640260040760040283203125" lon="0.82286627031862735748291015625">
        <ele>1484.4000244140625</ele>
        <time>2020-08-14T11:01:01.000Z</time>
      </trkpt>
      <trkpt lat="42.4158248864114284515380859375" lon="0.8229293860495090484619140625">
        <ele>1485</ele>
        <time>2020-08-14T11:01:10.000Z</time>
      </trkpt>
      <trkpt lat="42.4158094637095928192138671875" lon="0.82293550483882427215576171875">
        <ele>1485.199951171875</ele>
        <time>2020-08-14T11:01:11.000Z</time>
      </trkpt>
      <trkpt lat="42.41570728830993175506591796875" lon="0.8229642547667026519775390625">
        <ele>1485.4000244140625</ele>
        <time>2020-08-14T11:01:18.000Z</time>
      </trkpt>
      <trkpt lat="42.4156934581696987152099609375" lon="0.82296920008957386016845703125">
        <ele>1485.5999755859375</ele>
        <time>2020-08-14T11:01:19.000Z</time>
      </trkpt>
      <trkpt lat="42.41563503630459308624267578125" lon="0.822991915047168731689453125">
        <ele>1485.800048828125</ele>
        <time>2020-08-14T11:01:23.000Z</time>
      </trkpt>
      <trkpt lat="42.41562061943113803863525390625" lon="0.822998620569705963134765625">
        <ele>1486.199951171875</ele>
        <time>2020-08-14T11:01:24.000Z</time>
      </trkpt>
      <trkpt lat="42.415553145110607147216796875" lon="0.82303709350526332855224609375">
        <ele>1487.4000244140625</ele>
        <time>2020-08-14T11:01:29.000Z</time>
      </trkpt>
      <trkpt lat="42.41550360806286334991455078125" lon="0.823065340518951416015625">
        <ele>1487.800048828125</ele>
        <time>2020-08-14T11:01:32.000Z</time>
      </trkpt>
      <trkpt lat="42.41541073657572269439697265625" lon="0.82312661223113536834716796875">
        <ele>1488.5999755859375</ele>
        <time>2020-08-14T11:01:38.000Z</time>
      </trkpt>
      <trkpt lat="42.41536128334701061248779296875" lon="0.82315728999674320220947265625">
        <ele>1488.5999755859375</ele>
        <time>2020-08-14T11:01:41.000Z</time>
      </trkpt>
      <trkpt lat="42.41526908241212368011474609375" lon="0.82322350703179836273193359375">
        <ele>1489.5999755859375</ele>
        <time>2020-08-14T11:01:47.000Z</time>
      </trkpt>
      <trkpt lat="42.415237314999103546142578125" lon="0.82324060611426830291748046875">
        <ele>1489.5999755859375</ele>
        <time>2020-08-14T11:01:49.000Z</time>
      </trkpt>
      <trkpt lat="42.41512759588658809661865234375" lon="0.82330665551126003265380859375">
        <ele>1490.199951171875</ele>
        <time>2020-08-14T11:01:56.000Z</time>
      </trkpt>
      <trkpt lat="42.41506305523216724395751953125" lon="0.82332962192595005035400390625">
        <ele>1490.5999755859375</ele>
        <time>2020-08-14T11:02:00.000Z</time>
      </trkpt>
      <trkpt lat="42.41499214433133602142333984375" lon="0.82336314953863620758056640625">
        <ele>1491</ele>
        <time>2020-08-14T11:02:04.000Z</time>
      </trkpt>
      <trkpt lat="42.41489835083484649658203125" lon="0.82338628359138965606689453125">
        <ele>1491.800048828125</ele>
        <time>2020-08-14T11:02:09.000Z</time>
      </trkpt>
      <trkpt lat="42.4148395098745822906494140625" lon="0.82339097745716571807861328125">
        <ele>1492</ele>
        <time>2020-08-14T11:02:12.000Z</time>
      </trkpt>
      <trkpt lat="42.4146748892962932586669921875" lon="0.82339516840875148773193359375">
        <ele>1492</ele>
        <time>2020-08-14T11:02:19.000Z</time>
      </trkpt>
      <trkpt lat="42.4146222509443759918212890625" lon="0.8233598805963993072509765625">
        <ele>1491.5999755859375</ele>
        <time>2020-08-14T11:02:24.000Z</time>
      </trkpt>
      <trkpt lat="42.4146215803921222686767578125" lon="0.82336566410958766937255859375">
        <ele>1492</ele>
        <time>2020-08-14T11:02:44.000Z</time>
      </trkpt>
      <trkpt lat="42.4146215803921222686767578125" lon="0.82337136380374431610107421875">
        <ele>1492.199951171875</ele>
        <time>2020-08-14T11:04:00.000Z</time>
      </trkpt>
      <trkpt lat="42.4146148748695850372314453125" lon="0.82336432300508022308349609375">
        <ele>1492.199951171875</ele>
        <time>2020-08-14T11:04:20.000Z</time>
      </trkpt>
      <trkpt lat="42.41457246243953704833984375" lon="0.8232785761356353759765625">
        <ele>1492</ele>
        <time>2020-08-14T11:04:25.000Z</time>
      </trkpt>
      <trkpt lat="42.4145582132041454315185546875" lon="0.82304346375167369842529296875">
        <ele>1492</ele>
        <time>2020-08-14T11:04:31.000Z</time>
      </trkpt>
      <trkpt lat="42.41456517018377780914306640625" lon="0.822946317493915557861328125">
        <ele>1490.5999755859375</ele>
        <time>2020-08-14T11:04:33.000Z</time>
      </trkpt>
      <trkpt lat="42.4145753122866153717041015625" lon="0.822843722999095916748046875">
        <ele>1489</ele>
        <time>2020-08-14T11:04:35.000Z</time>
      </trkpt>
      <trkpt lat="42.41458478383719921112060546875" lon="0.822732411324977874755859375">
        <ele>1487.800048828125</ele>
        <time>2020-08-14T11:04:37.000Z</time>
      </trkpt>
      <trkpt lat="42.41459031589329242706298828125" lon="0.82267398945987224578857421875">
        <ele>1487.5999755859375</ele>
        <time>2020-08-14T11:04:38.000Z</time>
      </trkpt>
      <trkpt lat="42.4146012961864471435546875" lon="0.82255664281547069549560546875">
        <ele>1486.5999755859375</ele>
        <time>2020-08-14T11:04:40.000Z</time>
      </trkpt>
      <trkpt lat="42.41464345715939998626708984375" lon="0.8222330175340175628662109375">
        <ele>1486.199951171875</ele>
        <time>2020-08-14T11:04:46.000Z</time>
      </trkpt>
      <trkpt lat="42.41466457955539226531982421875" lon="0.82209077663719654083251953125">
        <ele>1485.199951171875</ele>
        <time>2020-08-14T11:04:49.000Z</time>
      </trkpt>
      <trkpt lat="42.4146883003413677215576171875" lon="0.82189497537910938262939453125">
        <ele>1484</ele>
        <time>2020-08-14T11:04:53.000Z</time>
      </trkpt>
      <trkpt lat="42.4146819300949573516845703125" lon="0.82178466953337192535400390625">
        <ele>1483.800048828125</ele>
        <time>2020-08-14T11:04:55.000Z</time>
      </trkpt>
      <trkpt lat="42.4146544374525547027587890625" lon="0.8216667361557483673095703125">
        <ele>1483.199951171875</ele>
        <time>2020-08-14T11:04:57.000Z</time>
      </trkpt>
      <trkpt lat="42.41463205777108669281005859375" lon="0.82161418162286281585693359375">
        <ele>1482.800048828125</ele>
        <time>2020-08-14T11:04:58.000Z</time>
      </trkpt>
      <trkpt lat="42.414580844342708587646484375" lon="0.82152198068797588348388671875">
        <ele>1482.199951171875</ele>
        <time>2020-08-14T11:05:00.000Z</time>
      </trkpt>
      <trkpt lat="42.41455427370965480804443359375" lon="0.82148074172437191009521484375">
        <ele>1481.5999755859375</ele>
        <time>2020-08-14T11:05:01.000Z</time>
      </trkpt>
      <trkpt lat="42.4145002104341983795166015625" lon="0.8214038796722888946533203125">
        <ele>1481.199951171875</ele>
        <time>2020-08-14T11:05:03.000Z</time>
      </trkpt>
      <trkpt lat="42.414345480501651763916015625" lon="0.82120564766228199005126953125">
        <ele>1480.5999755859375</ele>
        <time>2020-08-14T11:05:08.000Z</time>
      </trkpt>
      <trkpt lat="42.4142611585557460784912109375" lon="0.82108913920819759368896484375">
        <ele>1479.800048828125</ele>
        <time>2020-08-14T11:05:11.000Z</time>
      </trkpt>
      <trkpt lat="42.41423693485558032989501953125" lon="0.82105276174843311309814453125">
        <ele>1479.4000244140625</ele>
        <time>2020-08-14T11:05:12.000Z</time>
      </trkpt>
      <trkpt lat="42.41411707364022731781005859375" lon="0.82082930020987987518310546875">
        <ele>1478.4000244140625</ele>
        <time>2020-08-14T11:05:18.000Z</time>
      </trkpt>
      <trkpt lat="42.414105422794818878173828125" lon="0.820790491998195648193359375">
        <ele>1478.199951171875</ele>
        <time>2020-08-14T11:05:19.000Z</time>
      </trkpt>
      <trkpt lat="42.4140898324549198150634765625" lon="0.82069971598684787750244140625">
        <ele>1477.199951171875</ele>
        <time>2020-08-14T11:05:21.000Z</time>
      </trkpt>
      <trkpt lat="42.41409125737845897674560546875" lon="0.820602737367153167724609375">
        <ele>1475.5999755859375</ele>
        <time>2020-08-14T11:05:23.000Z</time>
      </trkpt>
      <trkpt lat="42.4141847155988216400146484375" lon="0.82049150951206684112548828125">
        <ele>1475</ele>
        <time>2020-08-14T11:05:27.000Z</time>
      </trkpt>
      <trkpt lat="42.41424716077744960784912109375" lon="0.82046435214579105377197265625">
        <ele>1474.4000244140625</ele>
        <time>2020-08-14T11:05:29.000Z</time>
      </trkpt>
      <trkpt lat="42.41435880772769451141357421875" lon="0.82039997912943363189697265625">
        <ele>1473.4000244140625</ele>
        <time>2020-08-14T11:05:33.000Z</time>
      </trkpt>
      <trkpt lat="42.414380013942718505859375" lon="0.82033258862793445587158203125">
        <ele>1473.4000244140625</ele>
        <time>2020-08-14T11:05:35.000Z</time>
      </trkpt>
      <trkpt lat="42.4143744818866252899169921875" lon="0.8202947862446308135986328125">
        <ele>1473.199951171875</ele>
        <time>2020-08-14T11:05:36.000Z</time>
      </trkpt>
      <trkpt lat="42.41433751769363880157470703125" lon="0.8202342689037322998046875">
        <ele>1472.199951171875</ele>
        <time>2020-08-14T11:05:38.000Z</time>
      </trkpt>
      <trkpt lat="42.414308600127696990966796875" lon="0.820221863687038421630859375">
        <ele>1471.5999755859375</ele>
        <time>2020-08-14T11:05:39.000Z</time>
      </trkpt>
      <trkpt lat="42.41423995234072208404541015625" lon="0.82022898830473423004150390625">
        <ele>1470.800048828125</ele>
        <time>2020-08-14T11:05:41.000Z</time>
      </trkpt>
      <trkpt lat="42.41417088545858860015869140625" lon="0.82026234827935695648193359375">
        <ele>1470.5999755859375</ele>
        <time>2020-08-14T11:05:43.000Z</time>
      </trkpt>
      <trkpt lat="42.41410533897578716278076171875" lon="0.82030241377651691436767578125">
        <ele>1469.800048828125</ele>
        <time>2020-08-14T11:05:45.000Z</time>
      </trkpt>
      <trkpt lat="42.41395848803222179412841796875" lon="0.82041439600288867950439453125">
        <ele>1468.800048828125</ele>
        <time>2020-08-14T11:05:50.000Z</time>
      </trkpt>
      <trkpt lat="42.4139312468469142913818359375" lon="0.8204413019120693206787109375">
        <ele>1468.4000244140625</ele>
        <time>2020-08-14T11:05:51.000Z</time>
      </trkpt>
      <trkpt lat="42.41387869231402873992919921875" lon="0.820506513118743896484375">
        <ele>1467.800048828125</ele>
        <time>2020-08-14T11:05:53.000Z</time>
      </trkpt>
      <trkpt lat="42.41378934122622013092041015625" lon="0.82067482173442840576171875">
        <ele>1465.800048828125</ele>
        <time>2020-08-14T11:05:57.000Z</time>
      </trkpt>
      <trkpt lat="42.41373754106462001800537109375" lon="0.82079309038817882537841796875">
        <ele>1464.4000244140625</ele>
        <time>2020-08-14T11:06:00.000Z</time>
      </trkpt>
      <trkpt lat="42.4136858247220516204833984375" lon="0.820833407342433929443359375">
        <ele>1463.5999755859375</ele>
        <time>2020-08-14T11:06:02.000Z</time>
      </trkpt>
      <trkpt lat="42.41362371481955051422119140625" lon="0.82081119529902935028076171875">
        <ele>1463.4000244140625</ele>
        <time>2020-08-14T11:06:04.000Z</time>
      </trkpt>
      <trkpt lat="42.41359789855778217315673828125" lon="0.8207785896956920623779296875">
        <ele>1462.800048828125</ele>
        <time>2020-08-14T11:06:05.000Z</time>
      </trkpt>
      <trkpt lat="42.4135688133537769317626953125" lon="0.82068999297916889190673828125">
        <ele>1462.199951171875</ele>
        <time>2020-08-14T11:06:07.000Z</time>
      </trkpt>
      <trkpt lat="42.41356822662055492401123046875" lon="0.820575244724750518798828125">
        <ele>1461.5999755859375</ele>
        <time>2020-08-14T11:06:09.000Z</time>
      </trkpt>
      <trkpt lat="42.41359882056713104248046875" lon="0.82046032883226871490478515625">
        <ele>1460.800048828125</ele>
        <time>2020-08-14T11:06:11.000Z</time>
      </trkpt>
      <trkpt lat="42.41367928683757781982421875" lon="0.82031381316483020782470703125">
        <ele>1460.5999755859375</ele>
        <time>2020-08-14T11:06:14.000Z</time>
      </trkpt>
      <trkpt lat="42.41377584636211395263671875" lon="0.82019428722560405731201171875">
        <ele>1460.800048828125</ele>
        <time>2020-08-14T11:06:17.000Z</time>
      </trkpt>
      <trkpt lat="42.413879446685314178466796875" lon="0.82009839825332164764404296875">
        <ele>1460</ele>
        <time>2020-08-14T11:06:20.000Z</time>
      </trkpt>
      <trkpt lat="42.4139124713838100433349609375" lon="0.820068977773189544677734375">
        <ele>1459.5999755859375</ele>
        <time>2020-08-14T11:06:21.000Z</time>
      </trkpt>
      <trkpt lat="42.41398078389465808868408203125" lon="0.81995733082294464111328125">
        <ele>1458.5999755859375</ele>
        <time>2020-08-14T11:06:24.000Z</time>
      </trkpt>
      <trkpt lat="42.413996122777462005615234375" lon="0.819873847067356109619140625">
        <ele>1457.800048828125</ele>
        <time>2020-08-14T11:06:26.000Z</time>
      </trkpt>
      <trkpt lat="42.413987405598163604736328125" lon="0.81983570940792560577392578125">
        <ele>1457.4000244140625</ele>
        <time>2020-08-14T11:06:27.000Z</time>
      </trkpt>
      <trkpt lat="42.4138839729130268096923828125" lon="0.8197559975087642669677734375">
        <ele>1456.199951171875</ele>
        <time>2020-08-14T11:06:31.000Z</time>
      </trkpt>
      <trkpt lat="42.41378665901720523834228515625" lon="0.8197744376957416534423828125">
        <ele>1455</ele>
        <time>2020-08-14T11:06:34.000Z</time>
      </trkpt>
      <trkpt lat="42.4137180112302303314208984375" lon="0.819795392453670501708984375">
        <ele>1454.4000244140625</ele>
        <time>2020-08-14T11:06:36.000Z</time>
      </trkpt>
      <trkpt lat="42.413604520261287689208984375" lon="0.81984325312077999114990234375">
        <ele>1453.800048828125</ele>
        <time>2020-08-14T11:06:39.000Z</time>
      </trkpt>
      <trkpt lat="42.41347753442823886871337890625" lon="0.8199095539748668670654296875">
        <ele>1451.4000244140625</ele>
        <time>2020-08-14T11:06:42.000Z</time>
      </trkpt>
      <trkpt lat="42.41343478672206401824951171875" lon="0.81993713043630123138427734375">
        <ele>1450.4000244140625</ele>
        <time>2020-08-14T11:06:43.000Z</time>
      </trkpt>
      <trkpt lat="42.413312494754791259765625" lon="0.8200218714773654937744140625">
        <ele>1449</ele>
        <time>2020-08-14T11:06:46.000Z</time>
      </trkpt>
      <trkpt lat="42.41323563270270824432373046875" lon="0.82006403245031833648681640625">
        <ele>1448</ele>
        <time>2020-08-14T11:06:48.000Z</time>
      </trkpt>
      <trkpt lat="42.41319254972040653228759765625" lon="0.8200798742473125457763671875">
        <ele>1447.800048828125</ele>
        <time>2020-08-14T11:06:49.000Z</time>
      </trkpt>
      <trkpt lat="42.4131014384329319000244140625" lon="0.82010175101459026336669921875">
        <ele>1447</ele>
        <time>2020-08-14T11:06:51.000Z</time>
      </trkpt>
      <trkpt lat="42.41305726580321788787841796875" lon="0.82010493613779544830322265625">
        <ele>1446.4000244140625</ele>
        <time>2020-08-14T11:06:52.000Z</time>
      </trkpt>
      <trkpt lat="42.41301284171640872955322265625" lon="0.82010342739522457122802734375">
        <ele>1445.800048828125</ele>
        <time>2020-08-14T11:06:53.000Z</time>
      </trkpt>
      <trkpt lat="42.41296774707734584808349609375" lon="0.82009873352944850921630859375">
        <ele>1445.4000244140625</ele>
        <time>2020-08-14T11:06:54.000Z</time>
      </trkpt>
      <trkpt lat="42.41287571378052234649658203125" lon="0.82009001635015010833740234375">
        <ele>1444</ele>
        <time>2020-08-14T11:06:56.000Z</time>
      </trkpt>
      <trkpt lat="42.4126588739454746246337890625" lon="0.8200661279261112213134765625">
        <ele>1444.199951171875</ele>
        <time>2020-08-14T11:07:01.000Z</time>
      </trkpt>
      <trkpt lat="42.41241504438221454620361328125" lon="0.82009940408170223236083984375">
        <ele>1442.5999755859375</ele>
        <time>2020-08-14T11:07:07.000Z</time>
      </trkpt>
      <trkpt lat="42.4123777449131011962890625" lon="0.82010996527969837188720703125">
        <ele>1442.199951171875</ele>
        <time>2020-08-14T11:07:08.000Z</time>
      </trkpt>
      <trkpt lat="42.41230272687971591949462890625" lon="0.82012656144797801971435546875">
        <ele>1441.199951171875</ele>
        <time>2020-08-14T11:07:10.000Z</time>
      </trkpt>
      <trkpt lat="42.412203736603260040283203125" lon="0.8201214484870433807373046875">
        <ele>1440</ele>
        <time>2020-08-14T11:07:13.000Z</time>
      </trkpt>
      <trkpt lat="42.41217096336185932159423828125" lon="0.82011331804096698760986328125">
        <ele>1439.199951171875</ele>
        <time>2020-08-14T11:07:14.000Z</time>
      </trkpt>
      <trkpt lat="42.41213642992079257965087890625" lon="0.82010124810039997100830078125">
        <ele>1438.199951171875</ele>
        <time>2020-08-14T11:07:15.000Z</time>
      </trkpt>
      <trkpt lat="42.41210223175585269927978515625" lon="0.82008414901793003082275390625">
        <ele>1437.5999755859375</ele>
        <time>2020-08-14T11:07:16.000Z</time>
      </trkpt>
      <trkpt lat="42.41206970997154712677001953125" lon="0.820061266422271728515625">
        <ele>1437</ele>
        <time>2020-08-14T11:07:17.000Z</time>
      </trkpt>
      <trkpt lat="42.4120064266026020050048828125" lon="0.82000116817653179168701171875">
        <ele>1436.199951171875</ele>
        <time>2020-08-14T11:07:19.000Z</time>
      </trkpt>
      <trkpt lat="42.41197876632213592529296875" lon="0.819964371621608734130859375">
        <ele>1436</ele>
        <time>2020-08-14T11:07:20.000Z</time>
      </trkpt>
      <trkpt lat="42.4119018204510211944580078125" lon="0.81979379989206790924072265625">
        <ele>1435</ele>
        <time>2020-08-14T11:07:24.000Z</time>
      </trkpt>
      <trkpt lat="42.41188933141529560089111328125" lon="0.81974552012979984283447265625">
        <ele>1434.5999755859375</ele>
        <time>2020-08-14T11:07:25.000Z</time>
      </trkpt>
      <trkpt lat="42.41187893785536289215087890625" lon="0.81969589926302433013916015625">
        <ele>1433.4000244140625</ele>
        <time>2020-08-14T11:07:26.000Z</time>
      </trkpt>
      <trkpt lat="42.41186351515352725982666015625" lon="0.819542594254016876220703125">
        <ele>1432</ele>
        <time>2020-08-14T11:07:29.000Z</time>
      </trkpt>
      <trkpt lat="42.4118646048009395599365234375" lon="0.8194894529879093170166015625">
        <ele>1431.800048828125</ele>
        <time>2020-08-14T11:07:30.000Z</time>
      </trkpt>
      <trkpt lat="42.41185697726905345916748046875" lon="0.8193942345678806304931640625">
        <ele>1430.800048828125</ele>
        <time>2020-08-14T11:07:32.000Z</time>
      </trkpt>
      <trkpt lat="42.41184021346271038055419921875" lon="0.81935584545135498046875">
        <ele>1430.4000244140625</ele>
        <time>2020-08-14T11:07:33.000Z</time>
      </trkpt>
      <trkpt lat="42.4118143133819103240966796875" lon="0.81932944245636463165283203125">
        <ele>1430.199951171875</ele>
        <time>2020-08-14T11:07:34.000Z</time>
      </trkpt>
      <trkpt lat="42.411753125488758087158203125" lon="0.81933380104601383209228515625">
        <ele>1429.5999755859375</ele>
        <time>2020-08-14T11:07:36.000Z</time>
      </trkpt>
      <trkpt lat="42.41172890178859233856201171875" lon="0.8193660713732242584228515625">
        <ele>1429.4000244140625</ele>
        <time>2020-08-14T11:07:37.000Z</time>
      </trkpt>
      <trkpt lat="42.41168715991079807281494140625" lon="0.81951870582997798919677734375">
        <ele>1428.5999755859375</ele>
        <time>2020-08-14T11:07:40.000Z</time>
      </trkpt>
      <trkpt lat="42.4116751737892627716064453125" lon="0.819578804075717926025390625">
        <ele>1428.4000244140625</ele>
        <time>2020-08-14T11:07:41.000Z</time>
      </trkpt>
      <trkpt lat="42.41163318045437335968017578125" lon="0.81976328976452350616455078125">
        <ele>1427</ele>
        <time>2020-08-14T11:07:44.000Z</time>
      </trkpt>
      <trkpt lat="42.4115893431007862091064453125" lon="0.819936208426952362060546875">
        <ele>1425.199951171875</ele>
        <time>2020-08-14T11:07:47.000Z</time>
      </trkpt>
      <trkpt lat="42.41156025789678096771240234375" lon="0.820045173168182373046875">
        <ele>1424</ele>
        <time>2020-08-14T11:07:49.000Z</time>
      </trkpt>
      <trkpt lat="42.4115041829645633697509765625" lon="0.82033325918018817901611328125">
        <ele>1422.800048828125</ele>
        <time>2020-08-14T11:07:54.000Z</time>
      </trkpt>
      <trkpt lat="42.41149169392883777618408203125" lon="0.8204448223114013671875">
        <ele>1421.5999755859375</ele>
        <time>2020-08-14T11:07:56.000Z</time>
      </trkpt>
      <trkpt lat="42.4114964716136455535888671875" lon="0.82065763883292675018310546875">
        <ele>1420.4000244140625</ele>
        <time>2020-08-14T11:08:00.000Z</time>
      </trkpt>
      <trkpt lat="42.4115132354199886322021484375" lon="0.82076065242290496826171875">
        <ele>1419.5999755859375</ele>
        <time>2020-08-14T11:08:02.000Z</time>
      </trkpt>
      <trkpt lat="42.41152388043701648712158203125" lon="0.82080331631004810333251953125">
        <ele>1419.199951171875</ele>
        <time>2020-08-14T11:08:03.000Z</time>
      </trkpt>
      <trkpt lat="42.41154667921364307403564453125" lon="0.82087892107665538787841796875">
        <ele>1418</ele>
        <time>2020-08-14T11:08:06.000Z</time>
      </trkpt>
      <trkpt lat="42.41156092844903469085693359375" lon="0.82095318473875522613525390625">
        <ele>1417</ele>
        <time>2020-08-14T11:08:10.000Z</time>
      </trkpt>
      <trkpt lat="42.41155765950679779052734375" lon="0.82098369486629962921142578125">
        <ele>1416.800048828125</ele>
        <time>2020-08-14T11:08:11.000Z</time>
      </trkpt>
      <trkpt lat="42.41148926317691802978515625" lon="0.8210977725684642791748046875">
        <ele>1415.800048828125</ele>
        <time>2020-08-14T11:08:16.000Z</time>
      </trkpt>
      <trkpt lat="42.4114049412310123443603515625" lon="0.82104437984526157379150390625">
        <ele>1415</ele>
        <time>2020-08-14T11:08:20.000Z</time>
      </trkpt>
      <trkpt lat="42.411377616226673126220703125" lon="0.82098403014242649078369140625">
        <ele>1414.5999755859375</ele>
        <time>2020-08-14T11:08:22.000Z</time>
      </trkpt>
      <trkpt lat="42.41135708056390285491943359375" lon="0.82091487944126129150390625">
        <ele>1414</ele>
        <time>2020-08-14T11:08:24.000Z</time>
      </trkpt>
      <trkpt lat="42.411348782479763031005859375" lon="0.82088403403759002685546875">
        <ele>1413.5999755859375</ele>
        <time>2020-08-14T11:08:25.000Z</time>
      </trkpt>
      <trkpt lat="42.41133964620530605316162109375" lon="0.82085427828133106231689453125">
        <ele>1413</ele>
        <time>2020-08-14T11:08:26.000Z</time>
      </trkpt>
      <trkpt lat="42.41131366230547428131103515625" lon="0.82077397964894771575927734375">
        <ele>1412.4000244140625</ele>
        <time>2020-08-14T11:08:28.000Z</time>
      </trkpt>
      <trkpt lat="42.4113013409078121185302734375" lon="0.82072913646697998046875">
        <ele>1411</ele>
        <time>2020-08-14T11:08:29.000Z</time>
      </trkpt>
      <trkpt lat="42.411275021731853485107421875" lon="0.82063618116080760955810546875">
        <ele>1410</ele>
        <time>2020-08-14T11:08:31.000Z</time>
      </trkpt>
      <trkpt lat="42.41120218299329280853271484375" lon="0.82037885673344135284423828125">
        <ele>1408</ele>
        <time>2020-08-14T11:08:36.000Z</time>
      </trkpt>
      <trkpt lat="42.41117251105606555938720703125" lon="0.82027005963027477264404296875">
        <ele>1406.800048828125</ele>
        <time>2020-08-14T11:08:38.000Z</time>
      </trkpt>
      <trkpt lat="42.4111591838300228118896484375" lon="0.8202183432877063751220703125">
        <ele>1406.199951171875</ele>
        <time>2020-08-14T11:08:39.000Z</time>
      </trkpt>
      <trkpt lat="42.41114568896591663360595703125" lon="0.82016788423061370849609375">
        <ele>1405.800048828125</ele>
        <time>2020-08-14T11:08:40.000Z</time>
      </trkpt>
      <trkpt lat="42.4111098982393741607666015625" lon="0.82000921480357646942138671875">
        <ele>1404.5999755859375</ele>
        <time>2020-08-14T11:08:43.000Z</time>
      </trkpt>
      <trkpt lat="42.411083243787288665771484375" lon="0.81985834054648876190185546875">
        <ele>1403.199951171875</ele>
        <time>2020-08-14T11:08:46.000Z</time>
      </trkpt>
      <trkpt lat="42.411077208817005157470703125" lon="0.8198119886219501495361328125">
        <ele>1402.5999755859375</ele>
        <time>2020-08-14T11:08:47.000Z</time>
      </trkpt>
      <trkpt lat="42.41107259877026081085205078125" lon="0.81973261199891567230224609375">
        <ele>1402.199951171875</ele>
        <time>2020-08-14T11:08:49.000Z</time>
      </trkpt>
      <trkpt lat="42.411079891026020050048828125" lon="0.8196969889104366302490234375">
        <ele>1401.5999755859375</ele>
        <time>2020-08-14T11:08:51.000Z</time>
      </trkpt>
      <trkpt lat="42.41108684800565242767333984375" lon="0.8196436800062656402587890625">
        <ele>1401.199951171875</ele>
        <time>2020-08-14T11:08:56.000Z</time>
      </trkpt>
      <trkpt lat="42.41106421686708927154541015625" lon="0.8194934763014316558837890625">
        <ele>1400</ele>
        <time>2020-08-14T11:09:02.000Z</time>
      </trkpt>
      <trkpt lat="42.4110562540590763092041015625" lon="0.81946757622063159942626953125">
        <ele>1399.800048828125</ele>
        <time>2020-08-14T11:09:03.000Z</time>
      </trkpt>
      <trkpt lat="42.41101141087710857391357421875" lon="0.819342434406280517578125">
        <ele>1399</ele>
        <time>2020-08-14T11:09:07.000Z</time>
      </trkpt>
      <trkpt lat="42.41097385995090007781982421875" lon="0.81927596591413021087646484375">
        <ele>1398.5999755859375</ele>
        <time>2020-08-14T11:09:09.000Z</time>
      </trkpt>
      <trkpt lat="42.41092876531183719635009765625" lon="0.81921092234551906585693359375">
        <ele>1398</ele>
        <time>2020-08-14T11:09:11.000Z</time>
      </trkpt>
      <trkpt lat="42.410789541900157928466796875" lon="0.81905133090913295745849609375">
        <ele>1397.199951171875</ele>
        <time>2020-08-14T11:09:16.000Z</time>
      </trkpt>
      <trkpt lat="42.41075810976326465606689453125" lon="0.81901646219193935394287109375">
        <ele>1396.5999755859375</ele>
        <time>2020-08-14T11:09:17.000Z</time>
      </trkpt>
      <trkpt lat="42.41063766181468963623046875" lon="0.81887782551348209381103515625">
        <ele>1395.199951171875</ele>
        <time>2020-08-14T11:09:21.000Z</time>
      </trkpt>
      <trkpt lat="42.41058242507278919219970703125" lon="0.8188073337078094482421875">
        <ele>1393</ele>
        <time>2020-08-14T11:09:23.000Z</time>
      </trkpt>
      <trkpt lat="42.41055577062070369720458984375" lon="0.8187712915241718292236328125">
        <ele>1392.199951171875</ele>
        <time>2020-08-14T11:09:24.000Z</time>
      </trkpt>
      <trkpt lat="42.41052961908280849456787109375" lon="0.818734578788280487060546875">
        <ele>1391.5999755859375</ele>
        <time>2020-08-14T11:09:25.000Z</time>
      </trkpt>
      <trkpt lat="42.41036868654191493988037109375" lon="0.81851069815456867218017578125">
        <ele>1390.800048828125</ele>
        <time>2020-08-14T11:09:30.000Z</time>
      </trkpt>
      <trkpt lat="42.41032920777797698974609375" lon="0.81846602261066436767578125">
        <ele>1390.4000244140625</ele>
        <time>2020-08-14T11:09:31.000Z</time>
      </trkpt>
      <trkpt lat="42.41028822027146816253662109375" lon="0.81842637620866298675537109375">
        <ele>1390.199951171875</ele>
        <time>2020-08-14T11:09:32.000Z</time>
      </trkpt>
      <trkpt lat="42.41015746258199214935302734375" lon="0.81835797987878322601318359375">
        <ele>1389.5999755859375</ele>
        <time>2020-08-14T11:09:35.000Z</time>
      </trkpt>
      <trkpt lat="42.4101164750754833221435546875" lon="0.81835244782269001007080078125">
        <ele>1389.4000244140625</ele>
        <time>2020-08-14T11:09:36.000Z</time>
      </trkpt>
      <trkpt lat="42.410018742084503173828125" lon="0.81836887635290622711181640625">
        <ele>1388.800048828125</ele>
        <time>2020-08-14T11:09:39.000Z</time>
      </trkpt>
      <trkpt lat="42.40994791500270366668701171875" lon="0.8184034936130046844482421875">
        <ele>1388.4000244140625</ele>
        <time>2020-08-14T11:09:42.000Z</time>
      </trkpt>
      <trkpt lat="42.40986241959035396575927734375" lon="0.81846459768712520599365234375">
        <ele>1388.5999755859375</ele>
        <time>2020-08-14T11:09:46.000Z</time>
      </trkpt>
      <trkpt lat="42.409690506756305694580078125" lon="0.81855612806975841522216796875">
        <ele>1388.800048828125</ele>
        <time>2020-08-14T11:09:53.000Z</time>
      </trkpt>
      <trkpt lat="42.40949579514563083648681640625" lon="0.81860021688044071197509765625">
        <ele>1388.4000244140625</ele>
        <time>2020-08-14T11:10:00.000Z</time>
      </trkpt>
      <trkpt lat="42.40933142602443695068359375" lon="0.81857171840965747833251953125">
        <ele>1387.5999755859375</ele>
        <time>2020-08-14T11:10:05.000Z</time>
      </trkpt>
      <trkpt lat="42.4093000777065753936767578125" lon="0.8185543678700923919677734375">
        <ele>1387.199951171875</ele>
        <time>2020-08-14T11:10:06.000Z</time>
      </trkpt>
      <trkpt lat="42.40918884985148906707763671875" lon="0.81841229461133480072021484375">
        <ele>1387.199951171875</ele>
        <time>2020-08-14T11:10:11.000Z</time>
      </trkpt>
      <trkpt lat="42.4091287516057491302490234375" lon="0.81812831573188304901123046875">
        <ele>1386</ele>
        <time>2020-08-14T11:10:17.000Z</time>
      </trkpt>
      <trkpt lat="42.4091270752251148223876953125" lon="0.8180732466280460357666015625">
        <ele>1385.5999755859375</ele>
        <time>2020-08-14T11:10:18.000Z</time>
      </trkpt>
      <trkpt lat="42.40913218818604946136474609375" lon="0.8179595880210399627685546875">
        <ele>1385.199951171875</ele>
        <time>2020-08-14T11:10:20.000Z</time>
      </trkpt>
      <trkpt lat="42.40913989953696727752685546875" lon="0.8179007470607757568359375">
        <ele>1385</ele>
        <time>2020-08-14T11:10:21.000Z</time>
      </trkpt>
      <trkpt lat="42.4091616086661815643310546875" lon="0.817781388759613037109375">
        <ele>1384.199951171875</ele>
        <time>2020-08-14T11:10:23.000Z</time>
      </trkpt>
      <trkpt lat="42.40917476825416088104248046875" lon="0.81772397272288799285888671875">
        <ele>1383.800048828125</ele>
        <time>2020-08-14T11:10:24.000Z</time>
      </trkpt>
      <trkpt lat="42.40923427976667881011962890625" lon="0.81748173572123050689697265625">
        <ele>1382.5999755859375</ele>
        <time>2020-08-14T11:10:29.000Z</time>
      </trkpt>
      <trkpt lat="42.40927082486450672149658203125" lon="0.81735097803175449371337890625">
        <ele>1381</ele>
        <time>2020-08-14T11:10:32.000Z</time>
      </trkpt>
      <trkpt lat="42.40930502302944660186767578125" lon="0.81723346374928951263427734375">
        <ele>1379.800048828125</ele>
        <time>2020-08-14T11:10:35.000Z</time>
      </trkpt>
      <trkpt lat="42.40933536551892757415771484375" lon="0.81711460836231708526611328125">
        <ele>1380</ele>
        <time>2020-08-14T11:10:38.000Z</time>
      </trkpt>
      <trkpt lat="42.4093651212751865386962890625" lon="0.81692718900740146636962890625">
        <ele>1378.4000244140625</ele>
        <time>2020-08-14T11:10:43.000Z</time>
      </trkpt>
      <trkpt lat="42.40938146598637104034423828125" lon="0.8167874626815319061279296875">
        <ele>1377.800048828125</ele>
        <time>2020-08-14T11:10:47.000Z</time>
      </trkpt>
      <trkpt lat="42.40938833914697170257568359375" lon="0.8166389353573322296142578125">
        <ele>1377.5999755859375</ele>
        <time>2020-08-14T11:10:51.000Z</time>
      </trkpt>
      <trkpt lat="42.4093708209693431854248046875" lon="0.8164826966822147369384765625">
        <ele>1376.5999755859375</ele>
        <time>2020-08-14T11:10:55.000Z</time>
      </trkpt>
      <trkpt lat="42.409363277256488800048828125" lon="0.816445648670196533203125">
        <ele>1376</ele>
        <time>2020-08-14T11:10:56.000Z</time>
      </trkpt>
      <trkpt lat="42.40933385677635669708251953125" lon="0.8163425512611865997314453125">
        <ele>1374.4000244140625</ele>
        <time>2020-08-14T11:10:59.000Z</time>
      </trkpt>
      <trkpt lat="42.4093081243336200714111328125" lon="0.81622361205518245697021484375">
        <ele>1373.800048828125</ele>
        <time>2020-08-14T11:11:02.000Z</time>
      </trkpt>
      <trkpt lat="42.40930460393428802490234375" lon="0.81614096648991107940673828125">
        <ele>1373.4000244140625</ele>
        <time>2020-08-14T11:11:04.000Z</time>
      </trkpt>
      <trkpt lat="42.40931399166584014892578125" lon="0.81601523794233798980712890625">
        <ele>1372.199951171875</ele>
        <time>2020-08-14T11:11:07.000Z</time>
      </trkpt>
      <trkpt lat="42.4093218706548213958740234375" lon="0.8159737475216388702392578125">
        <ele>1371.800048828125</ele>
        <time>2020-08-14T11:11:08.000Z</time>
      </trkpt>
      <trkpt lat="42.4093731679022312164306640625" lon="0.8158099651336669921875">
        <ele>1371</ele>
        <time>2020-08-14T11:11:12.000Z</time>
      </trkpt>
      <trkpt lat="42.40944080986082553863525390625" lon="0.81565213389694690704345703125">
        <ele>1369.800048828125</ele>
        <time>2020-08-14T11:11:16.000Z</time>
      </trkpt>
      <trkpt lat="42.40947551093995571136474609375" lon="0.81558524630963802337646484375">
        <ele>1368.5999755859375</ele>
        <time>2020-08-14T11:11:18.000Z</time>
      </trkpt>
      <trkpt lat="42.40952278487384319305419921875" lon="0.81548516638576984405517578125">
        <ele>1367.5999755859375</ele>
        <time>2020-08-14T11:11:21.000Z</time>
      </trkpt>
      <trkpt lat="42.40955430082976818084716796875" lon="0.8154114894568920135498046875">
        <ele>1366.5999755859375</ele>
        <time>2020-08-14T11:11:23.000Z</time>
      </trkpt>
      <trkpt lat="42.40956838242709636688232421875" lon="0.8153729327023029327392578125">
        <ele>1366.199951171875</ele>
        <time>2020-08-14T11:11:24.000Z</time>
      </trkpt>
      <trkpt lat="42.4096125550568103790283203125" lon="0.815150476992130279541015625">
        <ele>1365.5999755859375</ele>
        <time>2020-08-14T11:11:30.000Z</time>
      </trkpt>
      <trkpt lat="42.40961171686649322509765625" lon="0.8151063881814479827880859375">
        <ele>1365.199951171875</ele>
        <time>2020-08-14T11:11:31.000Z</time>
      </trkpt>
      <trkpt lat="42.40955539047718048095703125" lon="0.81495693884789943695068359375">
        <ele>1364.199951171875</ele>
        <time>2020-08-14T11:11:35.000Z</time>
      </trkpt>
      <trkpt lat="42.40945975296199321746826171875" lon="0.8148921467363834381103515625">
        <ele>1362.800048828125</ele>
        <time>2020-08-14T11:11:38.000Z</time>
      </trkpt>
      <trkpt lat="42.4093949608504772186279296875" lon="0.81487320363521575927734375">
        <ele>1362.4000244140625</ele>
        <time>2020-08-14T11:11:40.000Z</time>
      </trkpt>
      <trkpt lat="42.4093486927449703216552734375" lon="0.81486046314239501953125">
        <ele>1362</ele>
        <time>2020-08-14T11:11:42.000Z</time>
      </trkpt>
      <trkpt lat="42.40928323008120059967041015625" lon="0.8148063160479068756103515625">
        <ele>1361.5999755859375</ele>
        <time>2020-08-14T11:11:45.000Z</time>
      </trkpt>
      <trkpt lat="42.40925389342010021209716796875" lon="0.81475007347762584686279296875">
        <ele>1360.5999755859375</ele>
        <time>2020-08-14T11:11:47.000Z</time>
      </trkpt>
      <trkpt lat="42.4092528037726879119873046875" lon="0.81465368159115314483642578125">
        <ele>1359.800048828125</ele>
        <time>2020-08-14T11:11:50.000Z</time>
      </trkpt>
      <trkpt lat="42.4092652089893817901611328125" lon="0.8146242611110210418701171875">
        <ele>1359.5999755859375</ele>
        <time>2020-08-14T11:11:51.000Z</time>
      </trkpt>
      <trkpt lat="42.40932245738804340362548828125" lon="0.8145578764379024505615234375">
        <ele>1358.5999755859375</ele>
        <time>2020-08-14T11:11:54.000Z</time>
      </trkpt>
      <trkpt lat="42.409344501793384552001953125" lon="0.8145451359450817108154296875">
        <ele>1358</ele>
        <time>2020-08-14T11:11:55.000Z</time>
      </trkpt>
      <trkpt lat="42.4093902669847011566162109375" lon="0.8145380951464176177978515625">
        <ele>1357.4000244140625</ele>
        <time>2020-08-14T11:11:57.000Z</time>
      </trkpt>
      <trkpt lat="42.40950199775397777557373046875" lon="0.8145444653928279876708984375">
        <ele>1356.5999755859375</ele>
        <time>2020-08-14T11:12:01.000Z</time>
      </trkpt>
      <trkpt lat="42.40956637077033519744873046875" lon="0.814549662172794342041015625">
        <ele>1356</ele>
        <time>2020-08-14T11:12:03.000Z</time>
      </trkpt>
      <trkpt lat="42.4096276424825191497802734375" lon="0.814554356038570404052734375">
        <ele>1355</ele>
        <time>2020-08-14T11:12:05.000Z</time>
      </trkpt>
      <trkpt lat="42.409689836204051971435546875" lon="0.81456315703690052032470703125">
        <ele>1353.800048828125</ele>
        <time>2020-08-14T11:12:07.000Z</time>
      </trkpt>
      <trkpt lat="42.409718334674835205078125" lon="0.81457338295876979827880859375">
        <ele>1353.5999755859375</ele>
        <time>2020-08-14T11:12:08.000Z</time>
      </trkpt>
      <trkpt lat="42.40980642847716808319091796875" lon="0.81462468020617961883544921875">
        <ele>1352.4000244140625</ele>
        <time>2020-08-14T11:12:11.000Z</time>
      </trkpt>
      <trkpt lat="42.40985470823943614959716796875" lon="0.814683437347412109375">
        <ele>1352</ele>
        <time>2020-08-14T11:12:13.000Z</time>
      </trkpt>
      <trkpt lat="42.40990919061005115509033203125" lon="0.814799778163433074951171875">
        <ele>1351.199951171875</ele>
        <time>2020-08-14T11:12:16.000Z</time>
      </trkpt>
      <trkpt lat="42.4099491722881793975830078125" lon="0.814932882785797119140625">
        <ele>1350.5999755859375</ele>
        <time>2020-08-14T11:12:19.000Z</time>
      </trkpt>
      <trkpt lat="42.40999133326113224029541015625" lon="0.815102867782115936279296875">
        <ele>1349.800048828125</ele>
        <time>2020-08-14T11:12:23.000Z</time>
      </trkpt>
      <trkpt lat="42.410017736256122589111328125" lon="0.81521644257009029388427734375">
        <ele>1348.800048828125</ele>
        <time>2020-08-14T11:12:26.000Z</time>
      </trkpt>
      <trkpt lat="42.41005553863942623138427734375" lon="0.8153863437473773956298828125">
        <ele>1347.5999755859375</ele>
        <time>2020-08-14T11:12:30.000Z</time>
      </trkpt>
      <trkpt lat="42.4100708775222301483154296875" lon="0.815471000969409942626953125">
        <ele>1347.4000244140625</ele>
        <time>2020-08-14T11:12:32.000Z</time>
      </trkpt>
      <trkpt lat="42.410086132586002349853515625" lon="0.81559631042182445526123046875">
        <ele>1346.5999755859375</ele>
        <time>2020-08-14T11:12:35.000Z</time>
      </trkpt>
      <trkpt lat="42.41009660996496677398681640625" lon="0.8157799579203128814697265625">
        <ele>1345.4000244140625</ele>
        <time>2020-08-14T11:12:39.000Z</time>
      </trkpt>
      <trkpt lat="42.4100963585078716278076171875" lon="0.8158718235790729522705078125">
        <ele>1344.800048828125</ele>
        <time>2020-08-14T11:12:41.000Z</time>
      </trkpt>
      <trkpt lat="42.41009593941271305084228515625" lon="0.8159140683710575103759765625">
        <ele>1344.4000244140625</ele>
        <time>2020-08-14T11:12:42.000Z</time>
      </trkpt>
      <trkpt lat="42.410080432891845703125" lon="0.81608413718640804290771484375">
        <ele>1343.199951171875</ele>
        <time>2020-08-14T11:12:47.000Z</time>
      </trkpt>
      <trkpt lat="42.41006911732256412506103515625" lon="0.81624607555568218231201171875">
        <ele>1342.199951171875</ele>
        <time>2020-08-14T11:12:52.000Z</time>
      </trkpt>
      <trkpt lat="42.41007448174059391021728515625" lon="0.8162865601480007171630859375">
        <ele>1341.800048828125</ele>
        <time>2020-08-14T11:12:53.000Z</time>
      </trkpt>
      <trkpt lat="42.4101272039115428924560546875" lon="0.81642896868288516998291015625">
        <ele>1340.5999755859375</ele>
        <time>2020-08-14T11:12:57.000Z</time>
      </trkpt>
      <trkpt lat="42.41014757193624973297119140625" lon="0.81645302474498748779296875">
        <ele>1340.4000244140625</ele>
        <time>2020-08-14T11:12:58.000Z</time>
      </trkpt>
      <trkpt lat="42.41019769571721553802490234375" lon="0.81647808663547039031982421875">
        <ele>1339.5999755859375</ele>
        <time>2020-08-14T11:13:00.000Z</time>
      </trkpt>
      <trkpt lat="42.4102462269365787506103515625" lon="0.81646383740007877349853515625">
        <ele>1338.5999755859375</ele>
        <time>2020-08-14T11:13:02.000Z</time>
      </trkpt>
      <trkpt lat="42.4103097617626190185546875" lon="0.81639644689857959747314453125">
        <ele>1337.4000244140625</ele>
        <time>2020-08-14T11:13:05.000Z</time>
      </trkpt>
      <trkpt lat="42.410341612994670867919921875" lon="0.81632670946419239044189453125">
        <ele>1336.199951171875</ele>
        <time>2020-08-14T11:13:07.000Z</time>
      </trkpt>
      <trkpt lat="42.41039198823273181915283203125" lon="0.81617868505418300628662109375">
        <ele>1335</ele>
        <time>2020-08-14T11:13:11.000Z</time>
      </trkpt>
      <trkpt lat="42.410419397056102752685546875" lon="0.81610827706754207611083984375">
        <ele>1333.800048828125</ele>
        <time>2020-08-14T11:13:13.000Z</time>
      </trkpt>
      <trkpt lat="42.41043515503406524658203125" lon="0.81606988795101642608642578125">
        <ele>1333.4000244140625</ele>
        <time>2020-08-14T11:13:14.000Z</time>
      </trkpt>
      <trkpt lat="42.41048117168247699737548828125" lon="0.81593393348157405853271484375">
        <ele>1332.800048828125</ele>
        <time>2020-08-14T11:13:17.000Z</time>
      </trkpt>
      <trkpt lat="42.41050413809716701507568359375" lon="0.81582228653132915496826171875">
        <ele>1332.199951171875</ele>
        <time>2020-08-14T11:13:19.000Z</time>
      </trkpt>
      <trkpt lat="42.41051084361970424652099609375" lon="0.815639309585094451904296875">
        <ele>1331</ele>
        <time>2020-08-14T11:13:22.000Z</time>
      </trkpt>
      <trkpt lat="42.41051754914224147796630859375" lon="0.81558625213801860809326171875">
        <ele>1329.800048828125</ele>
        <time>2020-08-14T11:13:23.000Z</time>
      </trkpt>
      <trkpt lat="42.41052961908280849456787109375" lon="0.81553679890930652618408203125">
        <ele>1329</ele>
        <time>2020-08-14T11:13:24.000Z</time>
      </trkpt>
      <trkpt lat="42.4105556868016719818115234375" lon="0.81544476561248302459716796875">
        <ele>1328.5999755859375</ele>
        <time>2020-08-14T11:13:26.000Z</time>
      </trkpt>
      <trkpt lat="42.41062902845442295074462890625" lon="0.815288610756397247314453125">
        <ele>1328.199951171875</ele>
        <time>2020-08-14T11:13:30.000Z</time>
      </trkpt>
      <trkpt lat="42.4106639809906482696533203125" lon="0.815211497247219085693359375">
        <ele>1327.800048828125</ele>
        <time>2020-08-14T11:13:32.000Z</time>
      </trkpt>
      <trkpt lat="42.41071879863739013671875" lon="0.81504444591701030731201171875">
        <ele>1327</ele>
        <time>2020-08-14T11:13:36.000Z</time>
      </trkpt>
      <trkpt lat="42.4107330478727817535400390625" lon="0.814950652420520782470703125">
        <ele>1326.4000244140625</ele>
        <time>2020-08-14T11:13:38.000Z</time>
      </trkpt>
      <trkpt lat="42.4107193015515804290771484375" lon="0.814798772335052490234375">
        <ele>1325.199951171875</ele>
        <time>2020-08-14T11:13:41.000Z</time>
      </trkpt>
      <trkpt lat="42.41066641174256801605224609375" lon="0.81464295275509357452392578125">
        <ele>1324</ele>
        <time>2020-08-14T11:13:44.000Z</time>
      </trkpt>
      <trkpt lat="42.41060405038297176361083984375" lon="0.8145059086382389068603515625">
        <ele>1323</ele>
        <time>2020-08-14T11:13:47.000Z</time>
      </trkpt>
      <trkpt lat="42.410552166402339935302734375" lon="0.8143838681280612945556640625">
        <ele>1321.800048828125</ele>
        <time>2020-08-14T11:13:50.000Z</time>
      </trkpt>
      <trkpt lat="42.41052341647446155548095703125" lon="0.8143047429621219635009765625">
        <ele>1320.4000244140625</ele>
        <time>2020-08-14T11:13:52.000Z</time>
      </trkpt>
      <trkpt lat="42.41048670373857021331787109375" lon="0.81419535912573337554931640625">
        <ele>1319.4000244140625</ele>
        <time>2020-08-14T11:13:55.000Z</time>
      </trkpt>
      <trkpt lat="42.41047597490251064300537109375" lon="0.81416216678917407989501953125">
        <ele>1319.199951171875</ele>
        <time>2020-08-14T11:13:56.000Z</time>
      </trkpt>
      <trkpt lat="42.4104411900043487548828125" lon="0.81404029391705989837646484375">
        <ele>1318.199951171875</ele>
        <time>2020-08-14T11:14:00.000Z</time>
      </trkpt>
      <trkpt lat="42.41042132489383220672607421875" lon="0.813972987234592437744140625">
        <ele>1318</ele>
        <time>2020-08-14T11:14:02.000Z</time>
      </trkpt>
      <trkpt lat="42.41037153638899326324462890625" lon="0.8137988112866878509521484375">
        <ele>1317</ele>
        <time>2020-08-14T11:14:06.000Z</time>
      </trkpt>
      <trkpt lat="42.41031604818999767303466796875" lon="0.81367266364395618438720703125">
        <ele>1316.199951171875</ele>
        <time>2020-08-14T11:14:09.000Z</time>
      </trkpt>
      <trkpt lat="42.410294003784656524658203125" lon="0.81363427452743053436279296875">
        <ele>1315.5999755859375</ele>
        <time>2020-08-14T11:14:10.000Z</time>
      </trkpt>
      <trkpt lat="42.41021378897130489349365234375" lon="0.8135356195271015167236328125">
        <ele>1314.199951171875</ele>
        <time>2020-08-14T11:14:13.000Z</time>
      </trkpt>
      <trkpt lat="42.4101486615836620330810546875" lon="0.813476778566837310791015625">
        <ele>1313.4000244140625</ele>
        <time>2020-08-14T11:14:15.000Z</time>
      </trkpt>
      <trkpt lat="42.410115636885166168212890625" lon="0.8134507946670055389404296875">
        <ele>1312.800048828125</ele>
        <time>2020-08-14T11:14:16.000Z</time>
      </trkpt>
      <trkpt lat="42.410017065703868865966796875" lon="0.81338248215615749359130859375">
        <ele>1311.5999755859375</ele>
        <time>2020-08-14T11:14:19.000Z</time>
      </trkpt>
      <trkpt lat="42.40991086699068546295166015625" lon="0.81331752240657806396484375">
        <ele>1311.199951171875</ele>
        <time>2020-08-14T11:14:22.000Z</time>
      </trkpt>
      <trkpt lat="42.4098412133753299713134765625" lon="0.8132727630436420440673828125">
        <ele>1310.5999755859375</ele>
        <time>2020-08-14T11:14:24.000Z</time>
      </trkpt>
      <trkpt lat="42.4097369424998760223388671875" lon="0.81319740973412990570068359375">
        <ele>1309.199951171875</ele>
        <time>2020-08-14T11:14:27.000Z</time>
      </trkpt>
      <trkpt lat="42.40962638519704341888427734375" lon="0.8131047897040843963623046875">
        <ele>1308.5999755859375</ele>
        <time>2020-08-14T11:14:30.000Z</time>
      </trkpt>
      <trkpt lat="42.4095560610294342041015625" lon="0.81303060986101627349853515625">
        <ele>1308</ele>
        <time>2020-08-14T11:14:32.000Z</time>
      </trkpt>
      <trkpt lat="42.40939135663211345672607421875" lon="0.81284872256219387054443359375">
        <ele>1307.4000244140625</ele>
        <time>2020-08-14T11:14:37.000Z</time>
      </trkpt>
      <trkpt lat="42.40925020538270473480224609375" lon="0.81274009309709072113037109375">
        <ele>1307</ele>
        <time>2020-08-14T11:14:41.000Z</time>
      </trkpt>
      <trkpt lat="42.40921885706484317779541015625" lon="0.81272651441395282745361328125">
        <ele>1306.800048828125</ele>
        <time>2020-08-14T11:14:42.000Z</time>
      </trkpt>
      <trkpt lat="42.40916781127452850341796875" lon="0.8127001114189624786376953125">
        <ele>1305.4000244140625</ele>
        <time>2020-08-14T11:14:44.000Z</time>
      </trkpt>
      <trkpt lat="42.40910368971526622772216796875" lon="0.81263716332614421844482421875">
        <ele>1304.5999755859375</ele>
        <time>2020-08-14T11:14:47.000Z</time>
      </trkpt>
      <trkpt lat="42.40909011103212833404541015625" lon="0.81260866485536098480224609375">
        <ele>1304.199951171875</ele>
        <time>2020-08-14T11:14:48.000Z</time>
      </trkpt>
      <trkpt lat="42.4090834893286228179931640625" lon="0.81257949583232402801513671875">
        <ele>1304</ele>
        <time>2020-08-14T11:14:49.000Z</time>
      </trkpt>
      <trkpt lat="42.40909413434565067291259765625" lon="0.81252668984234333038330078125">
        <ele>1303.5999755859375</ele>
        <time>2020-08-14T11:14:51.000Z</time>
      </trkpt>
      <trkpt lat="42.409145347774028778076171875" lon="0.8124851994216442108154296875">
        <ele>1303.199951171875</ele>
        <time>2020-08-14T11:14:54.000Z</time>
      </trkpt>
      <trkpt lat="42.40918717347085475921630859375" lon="0.81249450333416461944580078125">
        <ele>1303</ele>
        <time>2020-08-14T11:14:56.000Z</time>
      </trkpt>
      <trkpt lat="42.40923243574798107147216796875" lon="0.8125525899231433868408203125">
        <ele>1302.199951171875</ele>
        <time>2020-08-14T11:14:59.000Z</time>
      </trkpt>
      <trkpt lat="42.40926780737936496734619140625" lon="0.81259793601930141448974609375">
        <ele>1301.5999755859375</ele>
        <time>2020-08-14T11:15:01.000Z</time>
      </trkpt>
      <trkpt lat="42.4092876724898815155029296875" lon="0.812618471682071685791015625">
        <ele>1301.4000244140625</ele>
        <time>2020-08-14T11:15:02.000Z</time>
      </trkpt>
      <trkpt lat="42.409378699958324432373046875" lon="0.8126608841121196746826171875">
        <ele>1301.199951171875</ele>
        <time>2020-08-14T11:15:06.000Z</time>
      </trkpt>
      <trkpt lat="42.40940007381141185760498046875" lon="0.81265443004667758941650390625">
        <ele>1300.5999755859375</ele>
        <time>2020-08-14T11:15:07.000Z</time>
      </trkpt>
      <trkpt lat="42.409436367452144622802734375" lon="0.8126240037381649017333984375">
        <ele>1300.199951171875</ele>
        <time>2020-08-14T11:15:09.000Z</time>
      </trkpt>
      <trkpt lat="42.409458495676517486572265625" lon="0.81255233846604824066162109375">
        <ele>1299.4000244140625</ele>
        <time>2020-08-14T11:15:12.000Z</time>
      </trkpt>
      <trkpt lat="42.40945614874362945556640625" lon="0.81252886913716793060302734375">
        <ele>1299</ele>
        <time>2020-08-14T11:15:13.000Z</time>
      </trkpt>
      <trkpt lat="42.40941147319972515106201171875" lon="0.8124446310102939605712890625">
        <ele>1298</ele>
        <time>2020-08-14T11:15:17.000Z</time>
      </trkpt>
      <trkpt lat="42.40937559865415096282958984375" lon="0.812395177781581878662109375">
        <ele>1297.800048828125</ele>
        <time>2020-08-14T11:15:19.000Z</time>
      </trkpt>
      <trkpt lat="42.40935129113495349884033203125" lon="0.81232887692749500274658203125">
        <ele>1296.5999755859375</ele>
        <time>2020-08-14T11:15:21.000Z</time>
      </trkpt>
      <trkpt lat="42.40934793837368488311767578125" lon="0.812294594943523406982421875">
        <ele>1296.199951171875</ele>
        <time>2020-08-14T11:15:22.000Z</time>
      </trkpt>
      <trkpt lat="42.4093567393720149993896484375" lon="0.8122313953936100006103515625">
        <ele>1295.5999755859375</ele>
        <time>2020-08-14T11:15:24.000Z</time>
      </trkpt>
      <trkpt lat="42.409392781555652618408203125" lon="0.8121854625642299652099609375">
        <ele>1295.4000244140625</ele>
        <time>2020-08-14T11:15:26.000Z</time>
      </trkpt>
      <trkpt lat="42.40946327336132526397705078125" lon="0.812164507806301116943359375">
        <ele>1294.800048828125</ele>
        <time>2020-08-14T11:15:29.000Z</time>
      </trkpt>
      <trkpt lat="42.40948925726115703582763671875" lon="0.8121643401682376861572265625">
        <ele>1294.199951171875</ele>
        <time>2020-08-14T11:15:30.000Z</time>
      </trkpt>
      <trkpt lat="42.40951440297067165374755859375" lon="0.812169872224330902099609375">
        <ele>1293.800048828125</ele>
        <time>2020-08-14T11:15:31.000Z</time>
      </trkpt>
      <trkpt lat="42.40959252230823040008544921875" lon="0.8122045733034610748291015625">
        <ele>1293</ele>
        <time>2020-08-14T11:15:34.000Z</time>
      </trkpt>
      <trkpt lat="42.4097151495516300201416015625" lon="0.8122830279171466827392578125">
        <ele>1292</ele>
        <time>2020-08-14T11:15:38.000Z</time>
      </trkpt>
      <trkpt lat="42.40982436574995517730712890625" lon="0.8123732171952724456787109375">
        <ele>1290.800048828125</ele>
        <time>2020-08-14T11:15:41.000Z</time>
      </trkpt>
      <trkpt lat="42.40992846898734569549560546875" lon="0.81246399320662021636962890625">
        <ele>1290.199951171875</ele>
        <time>2020-08-14T11:15:44.000Z</time>
      </trkpt>
      <trkpt lat="42.41000072099268436431884765625" lon="0.8125210739672183990478515625">
        <ele>1289.5999755859375</ele>
        <time>2020-08-14T11:15:46.000Z</time>
      </trkpt>
      <trkpt lat="42.41018495522439479827880859375" lon="0.81261612474918365478515625">
        <ele>1288.800048828125</ele>
        <time>2020-08-14T11:15:51.000Z</time>
      </trkpt>
      <trkpt lat="42.41021429188549518585205078125" lon="0.81263800151646137237548828125">
        <ele>1288.800048828125</ele>
        <time>2020-08-14T11:15:52.000Z</time>
      </trkpt>
      <trkpt lat="42.410316132009029388427734375" lon="0.812746547162532806396484375">
        <ele>1287.5999755859375</ele>
        <time>2020-08-14T11:15:56.000Z</time>
      </trkpt>
      <trkpt lat="42.4104554392397403717041015625" lon="0.812866576015949249267578125">
        <ele>1286.800048828125</ele>
        <time>2020-08-14T11:16:00.000Z</time>
      </trkpt>
      <trkpt lat="42.41049743257462978363037109375" lon="0.8128875307738780975341796875">
        <ele>1286.5999755859375</ele>
        <time>2020-08-14T11:16:01.000Z</time>
      </trkpt>
      <trkpt lat="42.410535402595996856689453125" lon="0.812903456389904022216796875">
        <ele>1286.5999755859375</ele>
        <time>2020-08-14T11:16:02.000Z</time>
      </trkpt>
      <trkpt lat="42.4105994403362274169921875" lon="0.8129297755658626556396484375">
        <ele>1285.4000244140625</ele>
        <time>2020-08-14T11:16:04.000Z</time>
      </trkpt>
      <trkpt lat="42.4106545932590961456298828125" lon="0.81294276751577854156494140625">
        <ele>1284.199951171875</ele>
        <time>2020-08-14T11:16:06.000Z</time>
      </trkpt>
      <trkpt lat="42.41067613475024700164794921875" lon="0.8129361458122730255126953125">
        <ele>1284</ele>
        <time>2020-08-14T11:16:07.000Z</time>
      </trkpt>
      <trkpt lat="42.41072122938930988311767578125" lon="0.8128737844526767730712890625">
        <ele>1283.4000244140625</ele>
        <time>2020-08-14T11:16:10.000Z</time>
      </trkpt>
      <trkpt lat="42.41072944365441799163818359375" lon="0.81283950246870517730712890625">
        <ele>1283</ele>
        <time>2020-08-14T11:16:11.000Z</time>
      </trkpt>
      <trkpt lat="42.4107152782380580902099609375" lon="0.8127695135772228240966796875">
        <ele>1282.800048828125</ele>
        <time>2020-08-14T11:16:13.000Z</time>
      </trkpt>
      <trkpt lat="42.41061544977128505706787109375" lon="0.8126421086490154266357421875">
        <ele>1282.4000244140625</ele>
        <time>2020-08-14T11:16:17.000Z</time>
      </trkpt>
      <trkpt lat="42.41058393381536006927490234375" lon="0.812613777816295623779296875">
        <ele>1281.5999755859375</ele>
        <time>2020-08-14T11:16:18.000Z</time>
      </trkpt>
      <trkpt lat="42.41052609868347644805908203125" lon="0.81255652941763401031494140625">
        <ele>1280.4000244140625</ele>
        <time>2020-08-14T11:16:20.000Z</time>
      </trkpt>
      <trkpt lat="42.41047580726444721221923828125" lon="0.81245074979960918426513671875">
        <ele>1280</ele>
        <time>2020-08-14T11:16:23.000Z</time>
      </trkpt>
      <trkpt lat="42.41051302291452884674072265625" lon="0.81231328658759593963623046875">
        <ele>1279.5999755859375</ele>
        <time>2020-08-14T11:16:27.000Z</time>
      </trkpt>
      <trkpt lat="42.41053917445242404937744140625" lon="0.8122954331338405609130859375">
        <ele>1278.800048828125</ele>
        <time>2020-08-14T11:16:28.000Z</time>
      </trkpt>
      <trkpt lat="42.41061083972454071044921875" lon="0.81229199655354022979736328125">
        <ele>1277.800048828125</ele>
        <time>2020-08-14T11:16:30.000Z</time>
      </trkpt>
      <trkpt lat="42.41074369288980960845947265625" lon="0.8124087564647197723388671875">
        <ele>1277</ele>
        <time>2020-08-14T11:16:34.000Z</time>
      </trkpt>
      <trkpt lat="42.41087478585541248321533203125" lon="0.8126913942396640777587890625">
        <ele>1276.5999755859375</ele>
        <time>2020-08-14T11:16:40.000Z</time>
      </trkpt>
      <trkpt lat="42.4109493009746074676513671875" lon="0.8128218166530132293701171875">
        <ele>1275.5999755859375</ele>
        <time>2020-08-14T11:16:43.000Z</time>
      </trkpt>
      <trkpt lat="42.41101258434355258941650390625" lon="0.81286934204399585723876953125">
        <ele>1275</ele>
        <time>2020-08-14T11:16:45.000Z</time>
      </trkpt>
      <trkpt lat="42.411045022308826446533203125" lon="0.8128731139004230499267578125">
        <ele>1274.4000244140625</ele>
        <time>2020-08-14T11:16:46.000Z</time>
      </trkpt>
      <trkpt lat="42.41111719049513339996337890625" lon="0.81282709725201129913330078125">
        <ele>1273.5999755859375</ele>
        <time>2020-08-14T11:16:49.000Z</time>
      </trkpt>
      <trkpt lat="42.41113630123436450958251953125" lon="0.812760293483734130859375">
        <ele>1273.4000244140625</ele>
        <time>2020-08-14T11:16:51.000Z</time>
      </trkpt>
      <trkpt lat="42.41112758405506610870361328125" lon="0.81267840228974819183349609375">
        <ele>1273.5999755859375</ele>
        <time>2020-08-14T11:16:53.000Z</time>
      </trkpt>
      <trkpt lat="42.4110730178654193878173828125" lon="0.81242258660495281219482421875">
        <ele>1273.5999755859375</ele>
        <time>2020-08-14T11:16:59.000Z</time>
      </trkpt>
      <trkpt lat="42.4110688269138336181640625" lon="0.81238972954452037811279296875">
        <ele>1273.199951171875</ele>
        <time>2020-08-14T11:17:00.000Z</time>
      </trkpt>
      <trkpt lat="42.41106287576258182525634765625" lon="0.81237531267106533050537109375">
        <ele>1272.4000244140625</ele>
        <time>2020-08-14T11:17:04.000Z</time>
      </trkpt>
      <trkpt lat="42.4110661447048187255859375" lon="0.8123095147311687469482421875">
        <ele>1272.199951171875</ele>
        <time>2020-08-14T11:17:12.000Z</time>
      </trkpt>
      <trkpt lat="42.41111719049513339996337890625" lon="0.81208705902099609375">
        <ele>1271.4000244140625</ele>
        <time>2020-08-14T11:17:18.000Z</time>
      </trkpt>
      <trkpt lat="42.41112842224538326263427734375" lon="0.8120454847812652587890625">
        <ele>1270.800048828125</ele>
        <time>2020-08-14T11:17:19.000Z</time>
      </trkpt>
      <trkpt lat="42.41115675307810306549072265625" lon="0.81184037961065769195556640625">
        <ele>1270</ele>
        <time>2020-08-14T11:17:23.000Z</time>
      </trkpt>
      <trkpt lat="42.41115675307810306549072265625" lon="0.81178220920264720916748046875">
        <ele>1270.199951171875</ele>
        <time>2020-08-14T11:17:24.000Z</time>
      </trkpt>
      <trkpt lat="42.411123476922512054443359375" lon="0.81155422143638134002685546875">
        <ele>1269.800048828125</ele>
        <time>2020-08-14T11:17:28.000Z</time>
      </trkpt>
      <trkpt lat="42.411122806370258331298828125" lon="0.81149873323738574981689453125">
        <ele>1269.5999755859375</ele>
        <time>2020-08-14T11:17:29.000Z</time>
      </trkpt>
      <trkpt lat="42.41118022240698337554931640625" lon="0.8113186061382293701171875">
        <ele>1269.199951171875</ele>
        <time>2020-08-14T11:17:33.000Z</time>
      </trkpt>
      <trkpt lat="42.4112324416637420654296875" lon="0.81127594225108623504638671875">
        <ele>1268.800048828125</ele>
        <time>2020-08-14T11:17:36.000Z</time>
      </trkpt>
      <trkpt lat="42.41123445332050323486328125" lon="0.81127359531819820404052734375">
        <ele>1268.800048828125</ele>
        <time>2020-08-14T11:17:37.000Z</time>
      </trkpt>
      <trkpt lat="42.41123604588210582733154296875" lon="0.81127426587045192718505859375">
        <ele>1268.800048828125</ele>
        <time>2020-08-14T11:17:50.000Z</time>
      </trkpt>
      <trkpt lat="42.41123579442501068115234375" lon="0.81127627752721309661865234375">
        <ele>1269</ele>
        <time>2020-08-14T11:18:22.000Z</time>
      </trkpt>
      <trkpt lat="42.411235459148883819580078125" lon="0.8112758584320545196533203125">
        <ele>1268.800048828125</ele>
        <time>2020-08-14T11:18:48.000Z</time>
      </trkpt>
      <trkpt lat="42.4112352915108203887939453125" lon="0.81127636134624481201171875">
        <ele>1269.4000244140625</ele>
        <time>2020-08-14T11:19:18.000Z</time>
      </trkpt>
      <trkpt lat="42.41123537532985210418701171875" lon="0.8112765289843082427978515625">
        <ele>1269.199951171875</ele>
        <time>2020-08-14T11:19:40.000Z</time>
      </trkpt>
      <trkpt lat="42.41123579442501068115234375" lon="0.81128030084073543548583984375">
        <ele>1269</ele>
        <time>2020-08-14T11:20:29.000Z</time>
      </trkpt>
      <trkpt lat="42.41123981773853302001953125" lon="0.81127560697495937347412109375">
        <ele>1269</ele>
        <time>2020-08-14T11:20:33.000Z</time>
      </trkpt>
      <trkpt lat="42.41127468645572662353515625" lon="0.81124090589582920074462890625">
        <ele>1268.800048828125</ele>
        <time>2020-08-14T11:20:36.000Z</time>
      </trkpt>
      <trkpt lat="42.4112887680530548095703125" lon="0.81122514791786670684814453125">
        <ele>1268.800048828125</ele>
        <time>2020-08-14T11:20:37.000Z</time>
      </trkpt>
      <trkpt lat="42.4114133231341838836669921875" lon="0.8111467771232128143310546875">
        <ele>1268.5999755859375</ele>
        <time>2020-08-14T11:20:42.000Z</time>
      </trkpt>
      <trkpt lat="42.41152773611247539520263671875" lon="0.8111129142343997955322265625">
        <ele>1267.800048828125</ele>
        <time>2020-08-14T11:20:45.000Z</time>
      </trkpt>
      <trkpt lat="42.4116051010787487030029296875" lon="0.81111568026244640350341796875">
        <ele>1267.199951171875</ele>
        <time>2020-08-14T11:20:47.000Z</time>
      </trkpt>
      <trkpt lat="42.41173393093049526214599609375" lon="0.81112171523272991180419921875">
        <ele>1266.5999755859375</ele>
        <time>2020-08-14T11:20:51.000Z</time>
      </trkpt>
      <trkpt lat="42.4117610044777393341064453125" lon="0.81112925894558429718017578125">
        <ele>1265.5999755859375</ele>
        <time>2020-08-14T11:20:52.000Z</time>
      </trkpt>
      <trkpt lat="42.4117861501872539520263671875" lon="0.81114199943840503692626953125">
        <ele>1265</ele>
        <time>2020-08-14T11:20:53.000Z</time>
      </trkpt>
      <trkpt lat="42.41188086569309234619140625" lon="0.8112476952373981475830078125">
        <ele>1264.5999755859375</ele>
        <time>2020-08-14T11:20:58.000Z</time>
      </trkpt>
      <trkpt lat="42.41189084015786647796630859375" lon="0.811274684965610504150390625">
        <ele>1264.4000244140625</ele>
        <time>2020-08-14T11:20:59.000Z</time>
      </trkpt>
      <trkpt lat="42.41189888678491115570068359375" lon="0.81130309961736202239990234375">
        <ele>1264.4000244140625</ele>
        <time>2020-08-14T11:21:00.000Z</time>
      </trkpt>
      <trkpt lat="42.41191095672547817230224609375" lon="0.81136076711118221282958984375">
        <ele>1263.5999755859375</ele>
        <time>2020-08-14T11:21:02.000Z</time>
      </trkpt>
      <trkpt lat="42.41194498725235462188720703125" lon="0.81148096360266208648681640625">
        <ele>1262.800048828125</ele>
        <time>2020-08-14T11:21:06.000Z</time>
      </trkpt>
      <trkpt lat="42.4119604937732219696044921875" lon="0.811512731015682220458984375">
        <ele>1262.4000244140625</ele>
        <time>2020-08-14T11:21:07.000Z</time>
      </trkpt>
      <trkpt lat="42.4120262078940868377685546875" lon="0.81159663386642932891845703125">
        <ele>1261.4000244140625</ele>
        <time>2020-08-14T11:21:10.000Z</time>
      </trkpt>
      <trkpt lat="42.41205445490777492523193359375" lon="0.811618007719516754150390625">
        <ele>1260.800048828125</ele>
        <time>2020-08-14T11:21:11.000Z</time>
      </trkpt>
      <trkpt lat="42.41211329586803913116455078125" lon="0.811644829809665679931640625">
        <ele>1260</ele>
        <time>2020-08-14T11:21:13.000Z</time>
      </trkpt>
      <trkpt lat="42.41222796030342578887939453125" lon="0.811679698526859283447265625">
        <ele>1259.4000244140625</ele>
        <time>2020-08-14T11:21:17.000Z</time>
      </trkpt>
      <trkpt lat="42.4122555367648601531982421875" lon="0.8116860687732696533203125">
        <ele>1259</ele>
        <time>2020-08-14T11:21:18.000Z</time>
      </trkpt>
      <trkpt lat="42.4123108573257923126220703125" lon="0.8116962946951389312744140625">
        <ele>1257.5999755859375</ele>
        <time>2020-08-14T11:21:20.000Z</time>
      </trkpt>
      <trkpt lat="42.412398196756839752197265625" lon="0.81171297468245029449462890625">
        <ele>1256.800048828125</ele>
        <time>2020-08-14T11:21:23.000Z</time>
      </trkpt>
      <trkpt lat="42.412498779594898223876953125" lon="0.8117271400988101959228515625">
        <ele>1256.199951171875</ele>
        <time>2020-08-14T11:21:26.000Z</time>
      </trkpt>
      <trkpt lat="42.41260095499455928802490234375" lon="0.811734013259410858154296875">
        <ele>1255.800048828125</ele>
        <time>2020-08-14T11:21:29.000Z</time>
      </trkpt>
      <trkpt lat="42.41273171268403530120849609375" lon="0.811734683811664581298828125">
        <ele>1254.800048828125</ele>
        <time>2020-08-14T11:21:33.000Z</time>
      </trkpt>
      <trkpt lat="42.412762306630611419677734375" lon="0.81173275597393512725830078125">
        <ele>1254.4000244140625</ele>
        <time>2020-08-14T11:21:34.000Z</time>
      </trkpt>
      <trkpt lat="42.412847466766834259033203125" lon="0.8117328397929668426513671875">
        <ele>1252.800048828125</ele>
        <time>2020-08-14T11:21:37.000Z</time>
      </trkpt>
      <trkpt lat="42.41294167935848236083984375" lon="0.8117361925542354583740234375">
        <ele>1251.5999755859375</ele>
        <time>2020-08-14T11:21:40.000Z</time>
      </trkpt>
      <trkpt lat="42.41311795078217983245849609375" lon="0.81170559860765933990478515625">
        <ele>1250.800048828125</ele>
        <time>2020-08-14T11:21:46.000Z</time>
      </trkpt>
      <trkpt lat="42.41315064020454883575439453125" lon="0.8116510324180126190185546875">
        <ele>1250.4000244140625</ele>
        <time>2020-08-14T11:21:48.000Z</time>
      </trkpt>
      <trkpt lat="42.413159944117069244384765625" lon="0.81157785840332508087158203125">
        <ele>1249</ele>
        <time>2020-08-14T11:21:50.000Z</time>
      </trkpt>
      <trkpt lat="42.413154579699039459228515625" lon="0.81150233745574951171875">
        <ele>1247.5999755859375</ele>
        <time>2020-08-14T11:21:52.000Z</time>
      </trkpt>
      <trkpt lat="42.413127422332763671875" lon="0.8114366233348846435546875">
        <ele>1246.5999755859375</ele>
        <time>2020-08-14T11:21:54.000Z</time>
      </trkpt>
      <trkpt lat="42.41310068406164646148681640625" lon="0.81140686757862567901611328125">
        <ele>1246.199951171875</ele>
        <time>2020-08-14T11:21:55.000Z</time>
      </trkpt>
      <trkpt lat="42.4130021966993808746337890625" lon="0.8113315142691135406494140625">
        <ele>1245.5999755859375</ele>
        <time>2020-08-14T11:21:58.000Z</time>
      </trkpt>
      <trkpt lat="42.4129284359514713287353515625" lon="0.8112916164100170135498046875">
        <ele>1244.5999755859375</ele>
        <time>2020-08-14T11:22:00.000Z</time>
      </trkpt>
      <trkpt lat="42.4128858558833599090576171875" lon="0.811265967786312103271484375">
        <ele>1244.199951171875</ele>
        <time>2020-08-14T11:22:01.000Z</time>
      </trkpt>
      <trkpt lat="42.4127889610826969146728515625" lon="0.81120151095092296600341796875">
        <ele>1243</ele>
        <time>2020-08-14T11:22:03.000Z</time>
      </trkpt>
      <trkpt lat="42.4126746319234371185302734375" lon="0.81112540327012538909912109375">
        <ele>1242.199951171875</ele>
        <time>2020-08-14T11:22:05.000Z</time>
      </trkpt>
      <trkpt lat="42.4126191437244415283203125" lon="0.8110844157636165618896484375">
        <ele>1241.5999755859375</ele>
        <time>2020-08-14T11:22:06.000Z</time>
      </trkpt>
      <trkpt lat="42.41257362999022006988525390625" lon="0.81104309298098087310791015625">
        <ele>1241.199951171875</ele>
        <time>2020-08-14T11:22:07.000Z</time>
      </trkpt>
      <trkpt lat="42.41250908933579921722412109375" lon="0.8109617047011852264404296875">
        <ele>1240.5999755859375</ele>
        <time>2020-08-14T11:22:09.000Z</time>
      </trkpt>
      <trkpt lat="42.41243147291243076324462890625" lon="0.81073044799268245697021484375">
        <ele>1239.5999755859375</ele>
        <time>2020-08-14T11:22:14.000Z</time>
      </trkpt>
      <trkpt lat="42.41242191754281520843505859375" lon="0.8106388337910175323486328125">
        <ele>1239.4000244140625</ele>
        <time>2020-08-14T11:22:16.000Z</time>
      </trkpt>
      <trkpt lat="42.41240984760224819183349609375" lon="0.8104359917342662811279296875">
        <ele>1239.5999755859375</ele>
        <time>2020-08-14T11:22:20.000Z</time>
      </trkpt>
      <trkpt lat="42.41235502995550632476806640625" lon="0.810072720050811767578125">
        <ele>1238.800048828125</ele>
        <time>2020-08-14T11:22:27.000Z</time>
      </trkpt>
      <trkpt lat="42.4123118631541728973388671875" lon="0.8099319040775299072265625">
        <ele>1238.4000244140625</ele>
        <time>2020-08-14T11:22:30.000Z</time>
      </trkpt>
      <trkpt lat="42.41226349957287311553955078125" lon="0.80980005674064159393310546875">
        <ele>1238.199951171875</ele>
        <time>2020-08-14T11:22:33.000Z</time>
      </trkpt>
      <trkpt lat="42.41212134249508380889892578125" lon="0.80952026881277561187744140625">
        <ele>1238</ele>
        <time>2020-08-14T11:22:40.000Z</time>
      </trkpt>
      <trkpt lat="42.4120124615728855133056640625" lon="0.80922338180243968963623046875">
        <ele>1237.4000244140625</ele>
        <time>2020-08-14T11:22:47.000Z</time>
      </trkpt>
      <trkpt lat="42.41190592758357524871826171875" lon="0.80899857915937900543212890625">
        <ele>1237.4000244140625</ele>
        <time>2020-08-14T11:22:54.000Z</time>
      </trkpt>
      <trkpt lat="42.4117757566273212432861328125" lon="0.8088477887213230133056640625">
        <ele>1237</ele>
        <time>2020-08-14T11:23:00.000Z</time>
      </trkpt>
      <trkpt lat="42.411649189889430999755859375" lon="0.8087234012782573699951171875">
        <ele>1236.5999755859375</ele>
        <time>2020-08-14T11:23:04.000Z</time>
      </trkpt>
      <trkpt lat="42.41161624900996685028076171875" lon="0.80867721699178218841552734375">
        <ele>1236.4000244140625</ele>
        <time>2020-08-14T11:23:05.000Z</time>
      </trkpt>
      <trkpt lat="42.4115843139588832855224609375" lon="0.80862340517342090606689453125">
        <ele>1236.199951171875</ele>
        <time>2020-08-14T11:23:06.000Z</time>
      </trkpt>
      <trkpt lat="42.41151667200028896331787109375" lon="0.8084142766892910003662109375">
        <ele>1235.800048828125</ele>
        <time>2020-08-14T11:23:09.000Z</time>
      </trkpt>
      <trkpt lat="42.41149571724236011505126953125" lon="0.80833389423787593841552734375">
        <ele>1235.4000244140625</ele>
        <time>2020-08-14T11:23:10.000Z</time>
      </trkpt>
      <trkpt lat="42.4114716611802577972412109375" lon="0.80825627781450748443603515625">
        <ele>1234.800048828125</ele>
        <time>2020-08-14T11:23:11.000Z</time>
      </trkpt>
      <trkpt lat="42.4114438332617282867431640625" lon="0.80818654038012027740478515625">
        <ele>1234</ele>
        <time>2020-08-14T11:23:12.000Z</time>
      </trkpt>
      <trkpt lat="42.4113717488944530487060546875" lon="0.8080659247934818267822265625">
        <ele>1232.4000244140625</ele>
        <time>2020-08-14T11:23:14.000Z</time>
      </trkpt>
      <trkpt lat="42.41127963177859783172607421875" lon="0.80795570276677608489990234375">
        <ele>1230.800048828125</ele>
        <time>2020-08-14T11:23:16.000Z</time>
      </trkpt>
      <trkpt lat="42.41123168729245662689208984375" lon="0.80790624953806400299072265625">
        <ele>1230.4000244140625</ele>
        <time>2020-08-14T11:23:17.000Z</time>
      </trkpt>
      <trkpt lat="42.4111813120543956756591796875" lon="0.80786199308931827545166015625">
        <ele>1229.800048828125</ele>
        <time>2020-08-14T11:23:18.000Z</time>
      </trkpt>
      <trkpt lat="42.41112506948411464691162109375" lon="0.8078235201537609100341796875">
        <ele>1228.5999755859375</ele>
        <time>2020-08-14T11:23:19.000Z</time>
      </trkpt>
      <trkpt lat="42.41106673143804073333740234375" lon="0.80778948962688446044921875">
        <ele>1227.4000244140625</ele>
        <time>2020-08-14T11:23:20.000Z</time>
      </trkpt>
      <trkpt lat="42.41095148026943206787109375" lon="0.8077199198305606842041015625">
        <ele>1225.800048828125</ele>
        <time>2020-08-14T11:23:22.000Z</time>
      </trkpt>
      <trkpt lat="42.41089691407978534698486328125" lon="0.807675160467624664306640625">
        <ele>1224.199951171875</ele>
        <time>2020-08-14T11:23:23.000Z</time>
      </trkpt>
      <trkpt lat="42.4108480475842952728271484375" lon="0.80762185156345367431640625">
        <ele>1223</ele>
        <time>2020-08-14T11:23:24.000Z</time>
      </trkpt>
      <trkpt lat="42.410807311534881591796875" lon="0.8075616694986820220947265625">
        <ele>1222</ele>
        <time>2020-08-14T11:23:25.000Z</time>
      </trkpt>
      <trkpt lat="42.4107524938881397247314453125" lon="0.80742227844893932342529296875">
        <ele>1219.5999755859375</ele>
        <time>2020-08-14T11:23:27.000Z</time>
      </trkpt>
      <trkpt lat="42.41074184887111186981201171875" lon="0.80734080635011196136474609375">
        <ele>1218.5999755859375</ele>
        <time>2020-08-14T11:23:28.000Z</time>
      </trkpt>
      <trkpt lat="42.41074386052787303924560546875" lon="0.80725799314677715301513671875">
        <ele>1217.4000244140625</ele>
        <time>2020-08-14T11:23:29.000Z</time>
      </trkpt>
      <trkpt lat="42.4107682518661022186279296875" lon="0.8071023412048816680908203125">
        <ele>1215.800048828125</ele>
        <time>2020-08-14T11:23:31.000Z</time>
      </trkpt>
      <trkpt lat="42.41077738814055919647216796875" lon="0.8070295862853527069091796875">
        <ele>1215.199951171875</ele>
        <time>2020-08-14T11:23:32.000Z</time>
      </trkpt>
      <trkpt lat="42.41077755577862262725830078125" lon="0.8069588430225849151611328125">
        <ele>1214</ele>
        <time>2020-08-14T11:23:33.000Z</time>
      </trkpt>
      <trkpt lat="42.4107655696570873260498046875" lon="0.8068951405584812164306640625">
        <ele>1213</ele>
        <time>2020-08-14T11:23:34.000Z</time>
      </trkpt>
      <trkpt lat="42.41074084304273128509521484375" lon="0.806834287941455841064453125">
        <ele>1212.199951171875</ele>
        <time>2020-08-14T11:23:35.000Z</time>
      </trkpt>
      <trkpt lat="42.410703711211681365966796875" lon="0.80677452497184276580810546875">
        <ele>1211.5999755859375</ele>
        <time>2020-08-14T11:23:36.000Z</time>
      </trkpt>
      <trkpt lat="42.4105996079742908477783203125" lon="0.8066631294786930084228515625">
        <ele>1210.199951171875</ele>
        <time>2020-08-14T11:23:38.000Z</time>
      </trkpt>
      <trkpt lat="42.4105417728424072265625" lon="0.806605629622936248779296875">
        <ele>1208.5999755859375</ele>
        <time>2020-08-14T11:23:39.000Z</time>
      </trkpt>
      <trkpt lat="42.410485111176967620849609375" lon="0.80654720775783061981201171875">
        <ele>1207.5999755859375</ele>
        <time>2020-08-14T11:23:40.000Z</time>
      </trkpt>
      <trkpt lat="42.4104312993586063385009765625" lon="0.80648819915950298309326171875">
        <ele>1206</ele>
        <time>2020-08-14T11:23:41.000Z</time>
      </trkpt>
      <trkpt lat="42.4103816784918308258056640625" lon="0.80642734654247760772705078125">
        <ele>1204.5999755859375</ele>
        <time>2020-08-14T11:23:42.000Z</time>
      </trkpt>
      <trkpt lat="42.41033733822405338287353515625" lon="0.8063630573451519012451171875">
        <ele>1203.800048828125</ele>
        <time>2020-08-14T11:23:43.000Z</time>
      </trkpt>
      <trkpt lat="42.41030012257397174835205078125" lon="0.80629105679690837860107421875">
        <ele>1203</ele>
        <time>2020-08-14T11:23:44.000Z</time>
      </trkpt>
      <trkpt lat="42.41025167517364025115966796875" lon="0.80611973069608211517333984375">
        <ele>1201.199951171875</ele>
        <time>2020-08-14T11:23:46.000Z</time>
      </trkpt>
      <trkpt lat="42.41023893468081951141357421875" lon="0.80603490583598613739013671875">
        <ele>1199.5999755859375</ele>
        <time>2020-08-14T11:23:47.000Z</time>
      </trkpt>
      <trkpt lat="42.4102341569960117340087890625" lon="0.80595745705068111419677734375">
        <ele>1198.199951171875</ele>
        <time>2020-08-14T11:23:48.000Z</time>
      </trkpt>
      <trkpt lat="42.4102428741753101348876953125" lon="0.8058896474540233612060546875">
        <ele>1197</ele>
        <time>2020-08-14T11:23:49.000Z</time>
      </trkpt>
      <trkpt lat="42.4102663435041904449462890625" lon="0.80583390779793262481689453125">
        <ele>1196.4000244140625</ele>
        <time>2020-08-14T11:23:50.000Z</time>
      </trkpt>
      <trkpt lat="42.4103437922894954681396484375" lon="0.8057833649218082427978515625">
        <ele>1195.199951171875</ele>
        <time>2020-08-14T11:23:52.000Z</time>
      </trkpt>
      <trkpt lat="42.41039081476628780364990234375" lon="0.80578831024467945098876953125">
        <ele>1194.199951171875</ele>
        <time>2020-08-14T11:23:53.000Z</time>
      </trkpt>
      <trkpt lat="42.41044462658464908599853515625" lon="0.80580440349876880645751953125">
        <ele>1193.5999755859375</ele>
        <time>2020-08-14T11:23:54.000Z</time>
      </trkpt>
      <trkpt lat="42.41050262935459613800048828125" lon="0.805823095142841339111328125">
        <ele>1193</ele>
        <time>2020-08-14T11:23:55.000Z</time>
      </trkpt>
      <trkpt lat="42.41055585443973541259765625" lon="0.80583281815052032470703125">
        <ele>1192.4000244140625</ele>
        <time>2020-08-14T11:23:56.000Z</time>
      </trkpt>
      <trkpt lat="42.4105996079742908477783203125" lon="0.80582602880895137786865234375">
        <ele>1191.5999755859375</ele>
        <time>2020-08-14T11:23:57.000Z</time>
      </trkpt>
      <trkpt lat="42.41063254885375499725341796875" lon="0.80580255948007106781005859375">
        <ele>1190.5999755859375</ele>
        <time>2020-08-14T11:23:58.000Z</time>
      </trkpt>
      <trkpt lat="42.41066020913422107696533203125" lon="0.8057176508009433746337890625">
        <ele>1189.5999755859375</ele>
        <time>2020-08-14T11:24:00.000Z</time>
      </trkpt>
      <trkpt lat="42.41060153581202030181884765625" lon="0.80557071603834629058837890625">
        <ele>1187.5999755859375</ele>
        <time>2020-08-14T11:24:03.000Z</time>
      </trkpt>
      <trkpt lat="42.4105672538280487060546875" lon="0.80552461557090282440185546875">
        <ele>1187.199951171875</ele>
        <time>2020-08-14T11:24:04.000Z</time>
      </trkpt>
      <trkpt lat="42.41052995435893535614013671875" lon="0.8054767549037933349609375">
        <ele>1186.4000244140625</ele>
        <time>2020-08-14T11:24:05.000Z</time>
      </trkpt>
      <trkpt lat="42.41045267321169376373291015625" lon="0.80536879599094390869140625">
        <ele>1185</ele>
        <time>2020-08-14T11:24:07.000Z</time>
      </trkpt>
      <trkpt lat="42.4103679321706295013427734375" lon="0.8052372001111507415771484375">
        <ele>1183.800048828125</ele>
        <time>2020-08-14T11:24:09.000Z</time>
      </trkpt>
      <trkpt lat="42.41032543592154979705810546875" lon="0.8051728270947933197021484375">
        <ele>1182.5999755859375</ele>
        <time>2020-08-14T11:24:10.000Z</time>
      </trkpt>
      <trkpt lat="42.41028226912021636962890625" lon="0.805112309753894805908203125">
        <ele>1181.199951171875</ele>
        <time>2020-08-14T11:24:11.000Z</time>
      </trkpt>
      <trkpt lat="42.41023474372923374176025390625" lon="0.805055312812328338623046875">
        <ele>1180.199951171875</ele>
        <time>2020-08-14T11:24:12.000Z</time>
      </trkpt>
      <trkpt lat="42.4101285450160503387451171875" lon="0.8049743436276912689208984375">
        <ele>1178.5999755859375</ele>
        <time>2020-08-14T11:24:14.000Z</time>
      </trkpt>
      <trkpt lat="42.40997515618801116943359375" lon="0.80495531670749187469482421875">
        <ele>1177.199951171875</ele>
        <time>2020-08-14T11:24:17.000Z</time>
      </trkpt>
      <trkpt lat="42.40987465716898441314697265625" lon="0.8049854077398777008056640625">
        <ele>1176</ele>
        <time>2020-08-14T11:24:19.000Z</time>
      </trkpt>
      <trkpt lat="42.40977625362575054168701171875" lon="0.80503276549279689788818359375">
        <ele>1175</ele>
        <time>2020-08-14T11:24:21.000Z</time>
      </trkpt>
      <trkpt lat="42.40972998552024364471435546875" lon="0.80504961311817169189453125">
        <ele>1174.5999755859375</ele>
        <time>2020-08-14T11:24:22.000Z</time>
      </trkpt>
      <trkpt lat="42.4096477590501308441162109375" lon="0.80503620207309722900390625">
        <ele>1174</ele>
        <time>2020-08-14T11:24:24.000Z</time>
      </trkpt>
      <trkpt lat="42.409617416560649871826171875" lon="0.80500527285039424896240234375">
        <ele>1173.4000244140625</ele>
        <time>2020-08-14T11:24:25.000Z</time>
      </trkpt>
      <trkpt lat="42.4096011556684970855712890625" lon="0.8049582503736019134521484375">
        <ele>1172.4000244140625</ele>
        <time>2020-08-14T11:24:26.000Z</time>
      </trkpt>
      <trkpt lat="42.4096138961613178253173828125" lon="0.80485573969781398773193359375">
        <ele>1171.4000244140625</ele>
        <time>2020-08-14T11:24:28.000Z</time>
      </trkpt>
      <trkpt lat="42.409632503986358642578125" lon="0.8048062026500701904296875">
        <ele>1170.800048828125</ele>
        <time>2020-08-14T11:24:29.000Z</time>
      </trkpt>
      <trkpt lat="42.40965119563043117523193359375" lon="0.804753564298152923583984375">
        <ele>1169.800048828125</ele>
        <time>2020-08-14T11:24:30.000Z</time>
      </trkpt>
      <trkpt lat="42.40969394333660602569580078125" lon="0.80464099533855915069580078125">
        <ele>1168.4000244140625</ele>
        <time>2020-08-14T11:24:32.000Z</time>
      </trkpt>
      <trkpt lat="42.40975479595363140106201171875" lon="0.80455533228814601898193359375">
        <ele>1167.199951171875</ele>
        <time>2020-08-14T11:24:34.000Z</time>
      </trkpt>
      <trkpt lat="42.40982822142541408538818359375" lon="0.8045170269906520843505859375">
        <ele>1165.800048828125</ele>
        <time>2020-08-14T11:24:36.000Z</time>
      </trkpt>
      <trkpt lat="42.4098913371562957763671875" lon="0.8045016042888164520263671875">
        <ele>1165.199951171875</ele>
        <time>2020-08-14T11:24:38.000Z</time>
      </trkpt>
      <trkpt lat="42.40990902297198772430419921875" lon="0.804501436650753021240234375">
        <ele>1164.5999755859375</ele>
        <time>2020-08-14T11:24:39.000Z</time>
      </trkpt>
      <trkpt lat="42.40991413593292236328125" lon="0.80450286157429218292236328125">
        <ele>1164</ele>
        <time>2020-08-14T11:24:41.000Z</time>
      </trkpt>
      <trkpt lat="42.40991539321839809417724609375" lon="0.80450587905943393707275390625">
        <ele>1163.5999755859375</ele>
        <time>2020-08-14T11:24:49.000Z</time>
      </trkpt>
      <trkpt lat="42.40996065549552440643310546875" lon="0.804494731128215789794921875">
        <ele>1163.5999755859375</ele>
        <time>2020-08-14T11:24:53.000Z</time>
      </trkpt>
      <trkpt lat="42.410122342407703399658203125" lon="0.80448106862604618072509765625">
        <ele>1162.5999755859375</ele>
        <time>2020-08-14T11:24:57.000Z</time>
      </trkpt>
      <trkpt lat="42.410165928304195404052734375" lon="0.804477967321872711181640625">
        <ele>1162.199951171875</ele>
        <time>2020-08-14T11:24:58.000Z</time>
      </trkpt>
      <trkpt lat="42.41025838069617748260498046875" lon="0.8044824935495853424072265625">
        <ele>1161.199951171875</ele>
        <time>2020-08-14T11:25:00.000Z</time>
      </trkpt>
      <trkpt lat="42.410417385399341583251953125" lon="0.8045057952404022216796875">
        <ele>1160</ele>
        <time>2020-08-14T11:25:03.000Z</time>
      </trkpt>
      <trkpt lat="42.41046734154224395751953125" lon="0.80450780689716339111328125">
        <ele>1159.4000244140625</ele>
        <time>2020-08-14T11:25:04.000Z</time>
      </trkpt>
      <trkpt lat="42.4105395935475826263427734375" lon="0.8044643886387348175048828125">
        <ele>1158.800048828125</ele>
        <time>2020-08-14T11:25:06.000Z</time>
      </trkpt>
      <trkpt lat="42.41053414531052112579345703125" lon="0.80431762151420116424560546875">
        <ele>1157.800048828125</ele>
        <time>2020-08-14T11:25:09.000Z</time>
      </trkpt>
      <trkpt lat="42.41050430573523044586181640625" lon="0.8042648993432521820068359375">
        <ele>1157.5999755859375</ele>
        <time>2020-08-14T11:25:10.000Z</time>
      </trkpt>
      <trkpt lat="42.410422749817371368408203125" lon="0.80416582524776458740234375">
        <ele>1156.199951171875</ele>
        <time>2020-08-14T11:25:12.000Z</time>
      </trkpt>
      <trkpt lat="42.41037606261670589447021484375" lon="0.8041153661906719207763671875">
        <ele>1155.4000244140625</ele>
        <time>2020-08-14T11:25:13.000Z</time>
      </trkpt>
      <trkpt lat="42.410324849188327789306640625" lon="0.804069600999355316162109375">
        <ele>1154.800048828125</ele>
        <time>2020-08-14T11:25:14.000Z</time>
      </trkpt>
      <trkpt lat="42.41027128882706165313720703125" lon="0.80403297208249568939208984375">
        <ele>1153.199951171875</ele>
        <time>2020-08-14T11:25:15.000Z</time>
      </trkpt>
      <trkpt lat="42.41016467101871967315673828125" lon="0.8039913140237331390380859375">
        <ele>1151.5999755859375</ele>
        <time>2020-08-14T11:25:17.000Z</time>
      </trkpt>
      <trkpt lat="42.41011463105678558349609375" lon="0.803981758654117584228515625">
        <ele>1151.199951171875</ele>
        <time>2020-08-14T11:25:18.000Z</time>
      </trkpt>
      <trkpt lat="42.41007012315094470977783203125" lon="0.80396692268550395965576171875">
        <ele>1150.199951171875</ele>
        <time>2020-08-14T11:25:19.000Z</time>
      </trkpt>
      <trkpt lat="42.410017065703868865966796875" lon="0.80389760434627532958984375">
        <ele>1149.5999755859375</ele>
        <time>2020-08-14T11:25:21.000Z</time>
      </trkpt>
      <trkpt lat="42.41001664660871028900146484375" lon="0.8038486540317535400390625">
        <ele>1149.199951171875</ele>
        <time>2020-08-14T11:25:22.000Z</time>
      </trkpt>
      <trkpt lat="42.4100732244551181793212890625" lon="0.80376877449452877044677734375">
        <ele>1148.199951171875</ele>
        <time>2020-08-14T11:25:24.000Z</time>
      </trkpt>
      <trkpt lat="42.41012535989284515380859375" lon="0.80374195240437984466552734375">
        <ele>1148</ele>
        <time>2020-08-14T11:25:25.000Z</time>
      </trkpt>
      <trkpt lat="42.41026441566646099090576171875" lon="0.80370926298201084136962890625">
        <ele>1146.4000244140625</ele>
        <time>2020-08-14T11:25:27.000Z</time>
      </trkpt>
      <trkpt lat="42.41042451001703739166259765625" lon="0.80368579365313053131103515625">
        <ele>1144.800048828125</ele>
        <time>2020-08-14T11:25:29.000Z</time>
      </trkpt>
      <trkpt lat="42.410502545535564422607421875" lon="0.8036882244050502777099609375">
        <ele>1144.199951171875</ele>
        <time>2020-08-14T11:25:30.000Z</time>
      </trkpt>
      <trkpt lat="42.41057337261736392974853515625" lon="0.8037064969539642333984375">
        <ele>1142.800048828125</ele>
        <time>2020-08-14T11:25:31.000Z</time>
      </trkpt>
      <trkpt lat="42.41073078475892543792724609375" lon="0.8038196526467800140380859375">
        <ele>1141.800048828125</ele>
        <time>2020-08-14T11:25:34.000Z</time>
      </trkpt>
      <trkpt lat="42.4108601175248622894287109375" lon="0.8038354106247425079345703125">
        <ele>1141</ele>
        <time>2020-08-14T11:25:37.000Z</time>
      </trkpt>
      <trkpt lat="42.41088987328112125396728515625" lon="0.803801380097866058349609375">
        <ele>1140.5999755859375</ele>
        <time>2020-08-14T11:25:38.000Z</time>
      </trkpt>
      <trkpt lat="42.41090764291584491729736328125" lon="0.803694427013397216796875">
        <ele>1140</ele>
        <time>2020-08-14T11:25:40.000Z</time>
      </trkpt>
      <trkpt lat="42.41087101399898529052734375" lon="0.803553946316242218017578125">
        <ele>1139.199951171875</ele>
        <time>2020-08-14T11:25:42.000Z</time>
      </trkpt>
      <trkpt lat="42.4108453653752803802490234375" lon="0.8034652657806873321533203125">
        <ele>1138.800048828125</ele>
        <time>2020-08-14T11:25:43.000Z</time>
      </trkpt>
      <trkpt lat="42.41081963293254375457763671875" lon="0.8033687062561511993408203125">
        <ele>1137.800048828125</ele>
        <time>2020-08-14T11:25:44.000Z</time>
      </trkpt>
      <trkpt lat="42.4107925593852996826171875" lon="0.80327533185482025146484375">
        <ele>1137</ele>
        <time>2020-08-14T11:25:45.000Z</time>
      </trkpt>
      <trkpt lat="42.410759367048740386962890625" lon="0.8031963743269443511962890625">
        <ele>1136.199951171875</ele>
        <time>2020-08-14T11:25:46.000Z</time>
      </trkpt>
      <trkpt lat="42.4107166193425655364990234375" lon="0.80313795246183872222900390625">
        <ele>1135</ele>
        <time>2020-08-14T11:25:47.000Z</time>
      </trkpt>
      <trkpt lat="42.41060153581202030181884765625" lon="0.8030924387276172637939453125">
        <ele>1133.5999755859375</ele>
        <time>2020-08-14T11:25:49.000Z</time>
      </trkpt>
      <trkpt lat="42.41053381003439426422119140625" lon="0.80310769379138946533203125">
        <ele>1132.5999755859375</ele>
        <time>2020-08-14T11:25:50.000Z</time>
      </trkpt>
      <trkpt lat="42.41046876646578311920166015625" lon="0.8031403832137584686279296875">
        <ele>1131.800048828125</ele>
        <time>2020-08-14T11:25:51.000Z</time>
      </trkpt>
      <trkpt lat="42.4104101769626140594482421875" lon="0.8031755872070789337158203125">
        <ele>1131.199951171875</ele>
        <time>2020-08-14T11:25:52.000Z</time>
      </trkpt>
      <trkpt lat="42.41035795770585536956787109375" lon="0.803203247487545013427734375">
        <ele>1130.800048828125</ele>
        <time>2020-08-14T11:25:53.000Z</time>
      </trkpt>
      <trkpt lat="42.41031403653323650360107421875" lon="0.8032131381332874298095703125">
        <ele>1130</ele>
        <time>2020-08-14T11:25:54.000Z</time>
      </trkpt>
      <trkpt lat="42.41027782671153545379638671875" lon="0.80320148728787899017333984375">
        <ele>1128.800048828125</ele>
        <time>2020-08-14T11:25:55.000Z</time>
      </trkpt>
      <trkpt lat="42.41024446673691272735595703125" lon="0.80312772653996944427490234375">
        <ele>1127.5999755859375</ele>
        <time>2020-08-14T11:25:57.000Z</time>
      </trkpt>
      <trkpt lat="42.41029031574726104736328125" lon="0.80303284339606761932373046875">
        <ele>1126.4000244140625</ele>
        <time>2020-08-14T11:25:59.000Z</time>
      </trkpt>
      <trkpt lat="42.41032744757831096649169921875" lon="0.80297634936869144439697265625">
        <ele>1126</ele>
        <time>2020-08-14T11:26:00.000Z</time>
      </trkpt>
      <trkpt lat="42.4103955924510955810546875" lon="0.80284408293664455413818359375">
        <ele>1125</ele>
        <time>2020-08-14T11:26:02.000Z</time>
      </trkpt>
      <trkpt lat="42.4104252643883228302001953125" lon="0.80277032218873500823974609375">
        <ele>1123.800048828125</ele>
        <time>2020-08-14T11:26:03.000Z</time>
      </trkpt>
      <trkpt lat="42.41045527160167694091796875" lon="0.80269153229892253875732421875">
        <ele>1123</ele>
        <time>2020-08-14T11:26:04.000Z</time>
      </trkpt>
      <trkpt lat="42.410489805042743682861328125" lon="0.80261291004717350006103515625">
        <ele>1121.800048828125</ele>
        <time>2020-08-14T11:26:05.000Z</time>
      </trkpt>
      <trkpt lat="42.410532049834728240966796875" lon="0.8025439269840717315673828125">
        <ele>1120.800048828125</ele>
        <time>2020-08-14T11:26:06.000Z</time>
      </trkpt>
      <trkpt lat="42.4106398411095142364501953125" lon="0.80245482735335826873779296875">
        <ele>1118.800048828125</ele>
        <time>2020-08-14T11:26:08.000Z</time>
      </trkpt>
      <trkpt lat="42.410701699554920196533203125" lon="0.80243605189025402069091796875">
        <ele>1117.800048828125</ele>
        <time>2020-08-14T11:26:09.000Z</time>
      </trkpt>
      <trkpt lat="42.410841174423694610595703125" lon="0.80245415680110454559326171875">
        <ele>1116</ele>
        <time>2020-08-14T11:26:11.000Z</time>
      </trkpt>
      <trkpt lat="42.4109814874827861785888671875" lon="0.80252322368323802947998046875">
        <ele>1114.4000244140625</ele>
        <time>2020-08-14T11:26:13.000Z</time>
      </trkpt>
      <trkpt lat="42.411114089190959930419921875" lon="0.8025920391082763671875">
        <ele>1112.800048828125</ele>
        <time>2020-08-14T11:26:15.000Z</time>
      </trkpt>
      <trkpt lat="42.41117066703736782073974609375" lon="0.802625231444835662841796875">
        <ele>1112.4000244140625</ele>
        <time>2020-08-14T11:26:16.000Z</time>
      </trkpt>
      <trkpt lat="42.4112725071609020233154296875" lon="0.80271684564650058746337890625">
        <ele>1111.4000244140625</ele>
        <time>2020-08-14T11:26:18.000Z</time>
      </trkpt>
      <trkpt lat="42.4113694019615650177001953125" lon="0.8028607629239559173583984375">
        <ele>1109.5999755859375</ele>
        <time>2020-08-14T11:26:20.000Z</time>
      </trkpt>
      <trkpt lat="42.411464788019657135009765625" lon="0.80300099216401576995849609375">
        <ele>1107.800048828125</ele>
        <time>2020-08-14T11:26:22.000Z</time>
      </trkpt>
      <trkpt lat="42.41156294010579586029052734375" lon="0.8031177520751953125">
        <ele>1106.199951171875</ele>
        <time>2020-08-14T11:26:24.000Z</time>
      </trkpt>
      <trkpt lat="42.4116081185638904571533203125" lon="0.80316603183746337890625">
        <ele>1105.5999755859375</ele>
        <time>2020-08-14T11:26:25.000Z</time>
      </trkpt>
      <trkpt lat="42.41165296174585819244384765625" lon="0.80320425331592559814453125">
        <ele>1104.800048828125</ele>
        <time>2020-08-14T11:26:26.000Z</time>
      </trkpt>
      <trkpt lat="42.4116993136703968048095703125" lon="0.80323032103478908538818359375">
        <ele>1103.4000244140625</ele>
        <time>2020-08-14T11:26:27.000Z</time>
      </trkpt>
      <trkpt lat="42.4117931909859180450439453125" lon="0.8032371103763580322265625">
        <ele>1101.800048828125</ele>
        <time>2020-08-14T11:26:29.000Z</time>
      </trkpt>
      <trkpt lat="42.41192520596086978912353515625" lon="0.803134851157665252685546875">
        <ele>1100.199951171875</ele>
        <time>2020-08-14T11:26:32.000Z</time>
      </trkpt>
      <trkpt lat="42.41196258924901485443115234375" lon="0.80308481119573116302490234375">
        <ele>1099.5999755859375</ele>
        <time>2020-08-14T11:26:33.000Z</time>
      </trkpt>
      <trkpt lat="42.4120007269084453582763671875" lon="0.80302965827286243438720703125">
        <ele>1099</ele>
        <time>2020-08-14T11:26:34.000Z</time>
      </trkpt>
      <trkpt lat="42.41204054094851016998291015625" lon="0.802971906960010528564453125">
        <ele>1097.800048828125</ele>
        <time>2020-08-14T11:26:35.000Z</time>
      </trkpt>
      <trkpt lat="42.4121277965605258941650390625" lon="0.80286361277103424072265625">
        <ele>1096.199951171875</ele>
        <time>2020-08-14T11:26:37.000Z</time>
      </trkpt>
      <trkpt lat="42.4121787585318088531494140625" lon="0.80282379873096942901611328125">
        <ele>1095.5999755859375</ele>
        <time>2020-08-14T11:26:38.000Z</time>
      </trkpt>
      <trkpt lat="42.41230490617454051971435546875" lon="0.8027900196611881256103515625">
        <ele>1095</ele>
        <time>2020-08-14T11:26:40.000Z</time>
      </trkpt>
      <trkpt lat="42.412378080189228057861328125" lon="0.802792869508266448974609375">
        <ele>1094</ele>
        <time>2020-08-14T11:26:41.000Z</time>
      </trkpt>
      <trkpt lat="42.4124553613364696502685546875" lon="0.80279965884983539581298828125">
        <ele>1093.4000244140625</ele>
        <time>2020-08-14T11:26:42.000Z</time>
      </trkpt>
      <trkpt lat="42.412620484828948974609375" lon="0.80281457863748073577880859375">
        <ele>1092.199951171875</ele>
        <time>2020-08-14T11:26:44.000Z</time>
      </trkpt>
      <trkpt lat="42.41279306821525096893310546875" lon="0.8028312586247920989990234375">
        <ele>1091.199951171875</ele>
        <time>2020-08-14T11:26:46.000Z</time>
      </trkpt>
      <trkpt lat="42.412876971065998077392578125" lon="0.80284642986953258514404296875">
        <ele>1090.5999755859375</ele>
        <time>2020-08-14T11:26:47.000Z</time>
      </trkpt>
      <trkpt lat="42.41295450367033481597900390625" lon="0.80287258140742778778076171875">
        <ele>1090</ele>
        <time>2020-08-14T11:26:48.000Z</time>
      </trkpt>
      <trkpt lat="42.41307176649570465087890625" lon="0.80296687781810760498046875">
        <ele>1089.199951171875</ele>
        <time>2020-08-14T11:26:50.000Z</time>
      </trkpt>
      <trkpt lat="42.413164637982845306396484375" lon="0.8032185025513172149658203125">
        <ele>1087.800048828125</ele>
        <time>2020-08-14T11:26:53.000Z</time>
      </trkpt>
      <trkpt lat="42.41318467073142528533935546875" lon="0.80331698991358280181884765625">
        <ele>1087.199951171875</ele>
        <time>2020-08-14T11:26:54.000Z</time>
      </trkpt>
      <trkpt lat="42.4132067151367664337158203125" lon="0.803407095372676849365234375">
        <ele>1086.5999755859375</ele>
        <time>2020-08-14T11:26:55.000Z</time>
      </trkpt>
      <trkpt lat="42.41327519528567790985107421875" lon="0.80353416502475738525390625">
        <ele>1085.5999755859375</ele>
        <time>2020-08-14T11:26:57.000Z</time>
      </trkpt>
      <trkpt lat="42.413326241075992584228515625" lon="0.8035718835890293121337890625">
        <ele>1085</ele>
        <time>2020-08-14T11:26:58.000Z</time>
      </trkpt>
      <trkpt lat="42.4133837409317493438720703125" lon="0.8036010526120662689208984375">
        <ele>1084.4000244140625</ele>
        <time>2020-08-14T11:26:59.000Z</time>
      </trkpt>
      <trkpt lat="42.413440234959125518798828125" lon="0.80363164655864238739013671875">
        <ele>1084.4000244140625</ele>
        <time>2020-08-14T11:27:00.000Z</time>
      </trkpt>
      <trkpt lat="42.4134937115013599395751953125" lon="0.80366869457066059112548828125">
        <ele>1084</ele>
        <time>2020-08-14T11:27:01.000Z</time>
      </trkpt>
      <trkpt lat="42.41354257799685001373291015625" lon="0.80371747724711894989013671875">
        <ele>1083.800048828125</ele>
        <time>2020-08-14T11:27:02.000Z</time>
      </trkpt>
      <trkpt lat="42.41363729350268840789794921875" lon="0.80384957604110240936279296875">
        <ele>1083.5999755859375</ele>
        <time>2020-08-14T11:27:04.000Z</time>
      </trkpt>
      <trkpt lat="42.4138125590980052947998046875" lon="0.80407773144543170928955078125">
        <ele>1082.199951171875</ele>
        <time>2020-08-14T11:27:07.000Z</time>
      </trkpt>
      <trkpt lat="42.4138792790472507476806640625" lon="0.804150402545928955078125">
        <ele>1081.4000244140625</ele>
        <time>2020-08-14T11:27:08.000Z</time>
      </trkpt>
      <trkpt lat="42.4139470048248767852783203125" lon="0.80422089435160160064697265625">
        <ele>1080.800048828125</ele>
        <time>2020-08-14T11:27:09.000Z</time>
      </trkpt>
      <trkpt lat="42.41412009112536907196044921875" lon="0.804421640932559967041015625">
        <ele>1079.5999755859375</ele>
        <time>2020-08-14T11:27:12.000Z</time>
      </trkpt>
      <trkpt lat="42.41421648301184177398681640625" lon="0.80456019379198551177978515625">
        <ele>1078.5999755859375</ele>
        <time>2020-08-14T11:27:14.000Z</time>
      </trkpt>
      <trkpt lat="42.414256967604160308837890625" lon="0.804629512131214141845703125">
        <ele>1078</ele>
        <time>2020-08-14T11:27:15.000Z</time>
      </trkpt>
      <trkpt lat="42.4143479950726032257080078125" lon="0.80481349490582942962646484375">
        <ele>1077.5999755859375</ele>
        <time>2020-08-14T11:27:18.000Z</time>
      </trkpt>
      <trkpt lat="42.41437573917210102081298828125" lon="0.804860182106494903564453125">
        <ele>1077.5999755859375</ele>
        <time>2020-08-14T11:27:19.000Z</time>
      </trkpt>
      <trkpt lat="42.414443381130695343017578125" lon="0.80491055734455585479736328125">
        <ele>1077.5999755859375</ele>
        <time>2020-08-14T11:27:21.000Z</time>
      </trkpt>
      <trkpt lat="42.41453499533236026763916015625" lon="0.804857499897480010986328125">
        <ele>1077.199951171875</ele>
        <time>2020-08-14T11:27:24.000Z</time>
      </trkpt>
      <trkpt lat="42.41457355208694934844970703125" lon="0.80478901974856853485107421875">
        <ele>1077.199951171875</ele>
        <time>2020-08-14T11:27:26.000Z</time>
      </trkpt>
      <trkpt lat="42.414586544036865234375" lon="0.80471660010516643524169921875">
        <ele>1077.199951171875</ele>
        <time>2020-08-14T11:27:28.000Z</time>
      </trkpt>
      <trkpt lat="42.4145610630512237548828125" lon="0.8046109043061733245849609375">
        <ele>1077.199951171875</ele>
        <time>2020-08-14T11:27:31.000Z</time>
      </trkpt>
      <trkpt lat="42.41452862508594989776611328125" lon="0.804535634815692901611328125">
        <ele>1077.4000244140625</ele>
        <time>2020-08-14T11:27:33.000Z</time>
      </trkpt>
      <trkpt lat="42.4143781699240207672119140625" lon="0.8042273484170436859130859375">
        <ele>1076.199951171875</ele>
        <time>2020-08-14T11:27:39.000Z</time>
      </trkpt>
      <trkpt lat="42.414302565157413482666015625" lon="0.804040767252445220947265625">
        <ele>1075.4000244140625</ele>
        <time>2020-08-14T11:27:42.000Z</time>
      </trkpt>
      <trkpt lat="42.41417977027595043182373046875" lon="0.803704150021076202392578125">
        <ele>1074</ele>
        <time>2020-08-14T11:27:47.000Z</time>
      </trkpt>
      <trkpt lat="42.41405303589999675750732421875" lon="0.80335713922977447509765625">
        <ele>1073.4000244140625</ele>
        <time>2020-08-14T11:27:52.000Z</time>
      </trkpt>
      <trkpt lat="42.41402906365692615509033203125" lon="0.80320693552494049072265625">
        <ele>1073.4000244140625</ele>
        <time>2020-08-14T11:27:54.000Z</time>
      </trkpt>
      <trkpt lat="42.41402453742921352386474609375" lon="0.8030649460852146148681640625">
        <ele>1073</ele>
        <time>2020-08-14T11:27:56.000Z</time>
      </trkpt>
      <trkpt lat="42.4140489287674427032470703125" lon="0.80293293111026287078857421875">
        <ele>1072.4000244140625</ele>
        <time>2020-08-14T11:27:58.000Z</time>
      </trkpt>
      <trkpt lat="42.4140951968729496002197265625" lon="0.8028084598481655120849609375">
        <ele>1072.199951171875</ele>
        <time>2020-08-14T11:28:00.000Z</time>
      </trkpt>
      <trkpt lat="42.4141481705009937286376953125" lon="0.80268214456737041473388671875">
        <ele>1072</ele>
        <time>2020-08-14T11:28:02.000Z</time>
      </trkpt>
      <trkpt lat="42.4141991324722766876220703125" lon="0.80254820175468921661376953125">
        <ele>1071.800048828125</ele>
        <time>2020-08-14T11:28:04.000Z</time>
      </trkpt>
      <trkpt lat="42.414216734468936920166015625" lon="0.80247628502547740936279296875">
        <ele>1071.5999755859375</ele>
        <time>2020-08-14T11:28:05.000Z</time>
      </trkpt>
      <trkpt lat="42.41422754712402820587158203125" lon="0.80232943408191204071044921875">
        <ele>1071.199951171875</ele>
        <time>2020-08-14T11:28:07.000Z</time>
      </trkpt>
      <trkpt lat="42.414208352565765380859375" lon="0.80218073911964893341064453125">
        <ele>1070.800048828125</ele>
        <time>2020-08-14T11:28:09.000Z</time>
      </trkpt>
      <trkpt lat="42.4140727333724498748779296875" lon="0.8019243367016315460205078125">
        <ele>1070.199951171875</ele>
        <time>2020-08-14T11:28:13.000Z</time>
      </trkpt>
      <trkpt lat="42.414024285972118377685546875" lon="0.8018696866929531097412109375">
        <ele>1070.199951171875</ele>
        <time>2020-08-14T11:28:14.000Z</time>
      </trkpt>
      <trkpt lat="42.41384332068264484405517578125" lon="0.80174722708761692047119140625">
        <ele>1069.4000244140625</ele>
        <time>2020-08-14T11:28:17.000Z</time>
      </trkpt>
      <trkpt lat="42.4137783609330654144287109375" lon="0.801727361977100372314453125">
        <ele>1069</ele>
        <time>2020-08-14T11:28:18.000Z</time>
      </trkpt>
      <trkpt lat="42.41364785470068454742431640625" lon="0.801701880991458892822265625">
        <ele>1067.5999755859375</ele>
        <time>2020-08-14T11:28:20.000Z</time>
      </trkpt>
      <trkpt lat="42.41358540952205657958984375" lon="0.8016841113567352294921875">
        <ele>1067.199951171875</ele>
        <time>2020-08-14T11:28:21.000Z</time>
      </trkpt>
      <trkpt lat="42.4135279096662998199462890625" lon="0.8016571216285228729248046875">
        <ele>1066.800048828125</ele>
        <time>2020-08-14T11:28:22.000Z</time>
      </trkpt>
      <trkpt lat="42.41342724300920963287353515625" lon="0.80156181938946247100830078125">
        <ele>1066.4000244140625</ele>
        <time>2020-08-14T11:28:24.000Z</time>
      </trkpt>
      <trkpt lat="42.413336969912052154541015625" lon="0.80143072642385959625244140625">
        <ele>1065.800048828125</ele>
        <time>2020-08-14T11:28:26.000Z</time>
      </trkpt>
      <trkpt lat="42.4132905341684818267822265625" lon="0.8013634197413921356201171875">
        <ele>1065.199951171875</ele>
        <time>2020-08-14T11:28:27.000Z</time>
      </trkpt>
      <trkpt lat="42.41318869404494762420654296875" lon="0.8012402057647705078125">
        <ele>1064.5999755859375</ele>
        <time>2020-08-14T11:28:29.000Z</time>
      </trkpt>
      <trkpt lat="42.4130709283053874969482421875" lon="0.80112931318581104278564453125">
        <ele>1063.800048828125</ele>
        <time>2020-08-14T11:28:31.000Z</time>
      </trkpt>
      <trkpt lat="42.41289013065397739410400390625" lon="0.80096871592104434967041015625">
        <ele>1062.5999755859375</ele>
        <time>2020-08-14T11:28:34.000Z</time>
      </trkpt>
      <trkpt lat="42.41270028054714202880859375" lon="0.80077794380486011505126953125">
        <ele>1061</ele>
        <time>2020-08-14T11:28:37.000Z</time>
      </trkpt>
      <trkpt lat="42.41263582371175289154052734375" lon="0.80070787109434604644775390625">
        <ele>1060.4000244140625</ele>
        <time>2020-08-14T11:28:38.000Z</time>
      </trkpt>
      <trkpt lat="42.4125710316002368927001953125" lon="0.80063394270837306976318359375">
        <ele>1059.5999755859375</ele>
        <time>2020-08-14T11:28:39.000Z</time>
      </trkpt>
      <trkpt lat="42.412444464862346649169921875" lon="0.800472088158130645751953125">
        <ele>1058.4000244140625</ele>
        <time>2020-08-14T11:28:41.000Z</time>
      </trkpt>
      <trkpt lat="42.4123235978186130523681640625" lon="0.8002979122102260589599609375">
        <ele>1057.4000244140625</ele>
        <time>2020-08-14T11:28:43.000Z</time>
      </trkpt>
      <trkpt lat="42.4122666008770465850830078125" lon="0.800215266644954681396484375">
        <ele>1057</ele>
        <time>2020-08-14T11:28:44.000Z</time>
      </trkpt>
      <trkpt lat="42.41220801137387752532958984375" lon="0.80014108680188655853271484375">
        <ele>1056.5999755859375</ele>
        <time>2020-08-14T11:28:45.000Z</time>
      </trkpt>
      <trkpt lat="42.4121459014713764190673828125" lon="0.8000774681568145751953125">
        <ele>1056</ele>
        <time>2020-08-14T11:28:46.000Z</time>
      </trkpt>
      <trkpt lat="42.412010617554187774658203125" lon="0.79997948370873928070068359375">
        <ele>1054.800048828125</ele>
        <time>2020-08-14T11:28:48.000Z</time>
      </trkpt>
      <trkpt lat="42.41193677298724651336669921875" lon="0.79994193278253078460693359375">
        <ele>1054.5999755859375</ele>
        <time>2020-08-14T11:28:49.000Z</time>
      </trkpt>
      <trkpt lat="42.41171247325837612152099609375" lon="0.79983749426901340484619140625">
        <ele>1053.800048828125</ele>
        <time>2020-08-14T11:28:52.000Z</time>
      </trkpt>
      <trkpt lat="42.411640472710132598876953125" lon="0.79979441128671169281005859375">
        <ele>1053.5999755859375</ele>
        <time>2020-08-14T11:28:53.000Z</time>
      </trkpt>
      <trkpt lat="42.41157199256122112274169921875" lon="0.79974143765866756439208984375">
        <ele>1053.4000244140625</ele>
        <time>2020-08-14T11:28:54.000Z</time>
      </trkpt>
      <trkpt lat="42.41132539696991443634033203125" lon="0.79946449957787990570068359375">
        <ele>1052.5999755859375</ele>
        <time>2020-08-14T11:28:58.000Z</time>
      </trkpt>
      <trkpt lat="42.41126253269612789154052734375" lon="0.7993980310857295989990234375">
        <ele>1052.199951171875</ele>
        <time>2020-08-14T11:28:59.000Z</time>
      </trkpt>
      <trkpt lat="42.4111331999301910400390625" lon="0.799275152385234832763671875">
        <ele>1051.199951171875</ele>
        <time>2020-08-14T11:29:01.000Z</time>
      </trkpt>
      <trkpt lat="42.411000095307826995849609375" lon="0.7991628348827362060546875">
        <ele>1050.4000244140625</ele>
        <time>2020-08-14T11:29:03.000Z</time>
      </trkpt>
      <trkpt lat="42.41087059490382671356201171875" lon="0.7990590669214725494384765625">
        <ele>1049.4000244140625</ele>
        <time>2020-08-14T11:29:05.000Z</time>
      </trkpt>
      <trkpt lat="42.41080907173454761505126953125" lon="0.79901539720594882965087890625">
        <ele>1049</ele>
        <time>2020-08-14T11:29:06.000Z</time>
      </trkpt>
      <trkpt lat="42.4105214886367321014404296875" lon="0.79877181909978389739990234375">
        <ele>1047.800048828125</ele>
        <time>2020-08-14T11:29:11.000Z</time>
      </trkpt>
      <trkpt lat="42.41032593883574008941650390625" lon="0.79854123294353485107421875">
        <ele>1046.4000244140625</ele>
        <time>2020-08-14T11:29:15.000Z</time>
      </trkpt>
      <trkpt lat="42.41028956137597560882568359375" lon="0.7984991557896137237548828125">
        <ele>1046.199951171875</ele>
        <time>2020-08-14T11:29:16.000Z</time>
      </trkpt>
      <trkpt lat="42.41011102683842182159423828125" lon="0.7983060367405414581298828125">
        <ele>1045.4000244140625</ele>
        <time>2020-08-14T11:29:21.000Z</time>
      </trkpt>
      <trkpt lat="42.4099843762814998626708984375" lon="0.798185504972934722900390625">
        <ele>1044.800048828125</ele>
        <time>2020-08-14T11:29:24.000Z</time>
      </trkpt>
      <trkpt lat="42.40979201160371303558349609375" lon="0.79805977642536163330078125">
        <ele>1044.5999755859375</ele>
        <time>2020-08-14T11:29:28.000Z</time>
      </trkpt>
      <trkpt lat="42.40969260223209857940673828125" lon="0.798026584088802337646484375">
        <ele>1044.4000244140625</ele>
        <time>2020-08-14T11:29:30.000Z</time>
      </trkpt>
      <trkpt lat="42.409641556441783905029296875" lon="0.79801526851952075958251953125">
        <ele>1044.4000244140625</ele>
        <time>2020-08-14T11:29:31.000Z</time>
      </trkpt>
      <trkpt lat="42.4094506166875362396240234375" lon="0.79797671176493167877197265625">
        <ele>1043.199951171875</ele>
        <time>2020-08-14T11:29:35.000Z</time>
      </trkpt>
      <trkpt lat="42.4093637801706790924072265625" lon="0.7979610376060009002685546875">
        <ele>1042.5999755859375</ele>
        <time>2020-08-14T11:29:37.000Z</time>
      </trkpt>
      <trkpt lat="42.40928390063345432281494140625" lon="0.797951482236385345458984375">
        <ele>1042.199951171875</ele>
        <time>2020-08-14T11:29:39.000Z</time>
      </trkpt>
      <trkpt lat="42.4090690724551677703857421875" lon="0.79794368706643581390380859375">
        <ele>1041.4000244140625</ele>
        <time>2020-08-14T11:29:45.000Z</time>
      </trkpt>
      <trkpt lat="42.40896262228488922119140625" lon="0.7979182898998260498046875">
        <ele>1041.199951171875</ele>
        <time>2020-08-14T11:29:48.000Z</time>
      </trkpt>
      <trkpt lat="42.40893269889056682586669921875" lon="0.797889791429042816162109375">
        <ele>1041</ele>
        <time>2020-08-14T11:29:49.000Z</time>
      </trkpt>
      <trkpt lat="42.40891174413263797760009765625" lon="0.79784930683672428131103515625">
        <ele>1040.800048828125</ele>
        <time>2020-08-14T11:29:50.000Z</time>
      </trkpt>
      <trkpt lat="42.408914677798748016357421875" lon="0.7976948283612728118896484375">
        <ele>1040.5999755859375</ele>
        <time>2020-08-14T11:29:54.000Z</time>
      </trkpt>
      <trkpt lat="42.4089198745787143707275390625" lon="0.79766725189983844757080078125">
        <ele>1040.5999755859375</ele>
        <time>2020-08-14T11:29:55.000Z</time>
      </trkpt>
      <trkpt lat="42.40895264782011508941650390625" lon="0.79750950448215007781982421875">
        <ele>1041.199951171875</ele>
        <time>2020-08-14T11:30:01.000Z</time>
      </trkpt>
      <trkpt lat="42.40896639414131641387939453125" lon="0.79737656749784946441650390625">
        <ele>1042</ele>
        <time>2020-08-14T11:30:06.000Z</time>
      </trkpt>
      <trkpt lat="42.4089762009680271148681640625" lon="0.79721278510987758636474609375">
        <ele>1042.5999755859375</ele>
        <time>2020-08-14T11:30:12.000Z</time>
      </trkpt>
      <trkpt lat="42.4089684896171092987060546875" lon="0.79715897329151630401611328125">
        <ele>1043</ele>
        <time>2020-08-14T11:30:14.000Z</time>
      </trkpt>
      <trkpt lat="42.40894116461277008056640625" lon="0.79697742126882076263427734375">
        <ele>1043.4000244140625</ele>
        <time>2020-08-14T11:30:21.000Z</time>
      </trkpt>
      <trkpt lat="42.40893018431961536407470703125" lon="0.79692796804010868072509765625">
        <ele>1043.5999755859375</ele>
        <time>2020-08-14T11:30:23.000Z</time>
      </trkpt>
      <trkpt lat="42.40890654735267162322998046875" lon="0.7968281395733356475830078125">
        <ele>1044.199951171875</ele>
        <time>2020-08-14T11:30:27.000Z</time>
      </trkpt>
      <trkpt lat="42.4088813178241252899169921875" lon="0.7967060990631580352783203125">
        <ele>1044.800048828125</ele>
        <time>2020-08-14T11:30:32.000Z</time>
      </trkpt>
      <trkpt lat="42.4088558368384838104248046875" lon="0.796552039682865142822265625">
        <ele>1045.800048828125</ele>
        <time>2020-08-14T11:30:38.000Z</time>
      </trkpt>
      <trkpt lat="42.40884938277304172515869140625" lon="0.79652647487819194793701171875">
        <ele>1046</ele>
        <time>2020-08-14T11:30:39.000Z</time>
      </trkpt>
      <trkpt lat="42.40881099365651607513427734375" lon="0.796344839036464691162109375">
        <ele>1046.800048828125</ele>
        <time>2020-08-14T11:30:46.000Z</time>
      </trkpt>
      <trkpt lat="42.408806718885898590087890625" lon="0.79631860367953777313232421875">
        <ele>1047</ele>
        <time>2020-08-14T11:30:47.000Z</time>
      </trkpt>
      <trkpt lat="42.4087770469486713409423828125" lon="0.796088017523288726806640625">
        <ele>1048.199951171875</ele>
        <time>2020-08-14T11:30:56.000Z</time>
      </trkpt>
      <trkpt lat="42.4087602831423282623291015625" lon="0.795904956758022308349609375">
        <ele>1049</ele>
        <time>2020-08-14T11:31:03.000Z</time>
      </trkpt>
      <trkpt lat="42.40875936113297939300537109375" lon="0.79587989486753940582275390625">
        <ele>1049.199951171875</ele>
        <time>2020-08-14T11:31:04.000Z</time>
      </trkpt>
      <trkpt lat="42.40875215269625186920166015625" lon="0.7957108318805694580078125">
        <ele>1050</ele>
        <time>2020-08-14T11:31:11.000Z</time>
      </trkpt>
      <trkpt lat="42.4087348021566867828369140625" lon="0.7956114225089550018310546875">
        <ele>1050.5999755859375</ele>
        <time>2020-08-14T11:31:15.000Z</time>
      </trkpt>
      <trkpt lat="42.40871024318039417266845703125" lon="0.7955096662044525146484375">
        <ele>1051</ele>
        <time>2020-08-14T11:31:19.000Z</time>
      </trkpt>
      <trkpt lat="42.40867319516837596893310546875" lon="0.7953535951673984527587890625">
        <ele>1051.5999755859375</ele>
        <time>2020-08-14T11:31:25.000Z</time>
      </trkpt>
      <trkpt lat="42.40866481326520442962646484375" lon="0.79532752744853496551513671875">
        <ele>1051.800048828125</ele>
        <time>2020-08-14T11:31:26.000Z</time>
      </trkpt>
      <trkpt lat="42.40861938335001468658447265625" lon="0.7951247692108154296875">
        <ele>1052.5999755859375</ele>
        <time>2020-08-14T11:31:34.000Z</time>
      </trkpt>
      <trkpt lat="42.40861066617071628570556640625" lon="0.79508093185722827911376953125">
        <ele>1053.199951171875</ele>
        <time>2020-08-14T11:31:36.000Z</time>
      </trkpt>
      <trkpt lat="42.408586107194423675537109375" lon="0.79499091021716594696044921875">
        <ele>1054</ele>
        <time>2020-08-14T11:31:40.000Z</time>
      </trkpt>
      <trkpt lat="42.408565320074558258056640625" lon="0.79492720775306224822998046875">
        <ele>1054.4000244140625</ele>
        <time>2020-08-14T11:31:43.000Z</time>
      </trkpt>
      <trkpt lat="42.40846901200711727142333984375" lon="0.79479913227260112762451171875">
        <ele>1055</ele>
        <time>2020-08-14T11:31:50.000Z</time>
      </trkpt>
      <trkpt lat="42.40845057182013988494873046875" lon="0.79478756524622440338134765625">
        <ele>1055</ele>
        <time>2020-08-14T11:31:51.000Z</time>
      </trkpt>
      <trkpt lat="42.40827706642448902130126953125" lon="0.79474096186459064483642578125">
        <ele>1055.800048828125</ele>
        <time>2020-08-14T11:31:59.000Z</time>
      </trkpt>
      <trkpt lat="42.40821705199778079986572265625" lon="0.79470835626125335693359375">
        <ele>1056.4000244140625</ele>
        <time>2020-08-14T11:32:02.000Z</time>
      </trkpt>
      <trkpt lat="42.408179752528667449951171875" lon="0.79464398324489593505859375">
        <ele>1056.800048828125</ele>
        <time>2020-08-14T11:32:05.000Z</time>
      </trkpt>
      <trkpt lat="42.4081725440919399261474609375" lon="0.79459109343588352203369140625">
        <ele>1057.5999755859375</ele>
        <time>2020-08-14T11:32:07.000Z</time>
      </trkpt>
      <trkpt lat="42.40817815996706485748291015625" lon="0.79456619918346405029296875">
        <ele>1058</ele>
        <time>2020-08-14T11:32:08.000Z</time>
      </trkpt>
      <trkpt lat="42.4081903137266635894775390625" lon="0.79454415477812290191650390625">
        <ele>1058.199951171875</ele>
        <time>2020-08-14T11:32:09.000Z</time>
      </trkpt>
      <trkpt lat="42.40823767147958278656005859375" lon="0.79450576566159725189208984375">
        <ele>1058.5999755859375</ele>
        <time>2020-08-14T11:32:12.000Z</time>
      </trkpt>
      <trkpt lat="42.4082573689520359039306640625" lon="0.794502161443233489990234375">
        <ele>1058.800048828125</ele>
        <time>2020-08-14T11:32:13.000Z</time>
      </trkpt>
      <trkpt lat="42.408277988433837890625" lon="0.79450107179582118988037109375">
        <ele>1059</ele>
        <time>2020-08-14T11:32:14.000Z</time>
      </trkpt>
      <trkpt lat="42.4083834327757358551025390625" lon="0.7945090346038341522216796875">
        <ele>1059.5999755859375</ele>
        <time>2020-08-14T11:32:19.000Z</time>
      </trkpt>
      <trkpt lat="42.40842274390161037445068359375" lon="0.79451397992670536041259765625">
        <ele>1060.199951171875</ele>
        <time>2020-08-14T11:32:21.000Z</time>
      </trkpt>
      <trkpt lat="42.4085239134728908538818359375" lon="0.79452931880950927734375">
        <ele>1061</ele>
        <time>2020-08-14T11:32:26.000Z</time>
      </trkpt>
      <trkpt lat="42.40854394622147083282470703125" lon="0.79454013146460056304931640625">
        <ele>1061</ele>
        <time>2020-08-14T11:32:27.000Z</time>
      </trkpt>
      <trkpt lat="42.40868425928056240081787109375" lon="0.79459293745458126068115234375">
        <ele>1062</ele>
        <time>2020-08-14T11:32:34.000Z</time>
      </trkpt>
      <trkpt lat="42.40870119072496891021728515625" lon="0.7946097850799560546875">
        <ele>1062</ele>
        <time>2020-08-14T11:32:35.000Z</time>
      </trkpt>
      <trkpt lat="42.4087944813072681427001953125" lon="0.79475386999547481536865234375">
        <ele>1063.199951171875</ele>
        <time>2020-08-14T11:32:42.000Z</time>
      </trkpt>
      <trkpt lat="42.40880546160042285919189453125" lon="0.79477784223854541778564453125">
        <ele>1063.4000244140625</ele>
        <time>2020-08-14T11:32:43.000Z</time>
      </trkpt>
      <trkpt lat="42.40886916406452655792236328125" lon="0.7949839532375335693359375">
        <ele>1064.5999755859375</ele>
        <time>2020-08-14T11:32:51.000Z</time>
      </trkpt>
      <trkpt lat="42.40887545049190521240234375" lon="0.79501002095639705657958984375">
        <ele>1064.5999755859375</ele>
        <time>2020-08-14T11:32:52.000Z</time>
      </trkpt>
      <trkpt lat="42.40892146714031696319580078125" lon="0.795163325965404510498046875">
        <ele>1065.5999755859375</ele>
        <time>2020-08-14T11:32:58.000Z</time>
      </trkpt>
      <trkpt lat="42.4089453555643558502197265625" lon="0.7952657528221607208251953125">
        <ele>1066.4000244140625</ele>
        <time>2020-08-14T11:33:02.000Z</time>
      </trkpt>
      <trkpt lat="42.4089567549526691436767578125" lon="0.79532015137374401092529296875">
        <ele>1066.5999755859375</ele>
        <time>2020-08-14T11:33:04.000Z</time>
      </trkpt>
      <trkpt lat="42.40898667834699153900146484375" lon="0.7955338060855865478515625">
        <ele>1068</ele>
        <time>2020-08-14T11:33:12.000Z</time>
      </trkpt>
      <trkpt lat="42.4090093933045864105224609375" lon="0.7957270927727222442626953125">
        <ele>1068.800048828125</ele>
        <time>2020-08-14T11:33:19.000Z</time>
      </trkpt>
      <trkpt lat="42.409011907875537872314453125" lon="0.79575517214834690093994140625">
        <ele>1069</ele>
        <time>2020-08-14T11:33:20.000Z</time>
      </trkpt>
      <trkpt lat="42.40904669277369976043701171875" lon="0.7959121651947498321533203125">
        <ele>1070</ele>
        <time>2020-08-14T11:33:26.000Z</time>
      </trkpt>
      <trkpt lat="42.40905339829623699188232421875" lon="0.7959388196468353271484375">
        <ele>1070.199951171875</ele>
        <time>2020-08-14T11:33:27.000Z</time>
      </trkpt>
      <trkpt lat="42.40909849293529987335205078125" lon="0.79607435502111911773681640625">
        <ele>1071.4000244140625</ele>
        <time>2020-08-14T11:33:32.000Z</time>
      </trkpt>
      <trkpt lat="42.4091314338147640228271484375" lon="0.79615364782512187957763671875">
        <ele>1071.800048828125</ele>
        <time>2020-08-14T11:33:35.000Z</time>
      </trkpt>
      <trkpt lat="42.409173510968685150146484375" lon="0.7962551526725292205810546875">
        <ele>1072.4000244140625</ele>
        <time>2020-08-14T11:33:39.000Z</time>
      </trkpt>
      <trkpt lat="42.409241236746311187744140625" lon="0.79639622010290622711181640625">
        <ele>1073.5999755859375</ele>
        <time>2020-08-14T11:33:45.000Z</time>
      </trkpt>
      <trkpt lat="42.4092972278594970703125" lon="0.7965535484254360198974609375">
        <ele>1074.5999755859375</ele>
        <time>2020-08-14T11:33:51.000Z</time>
      </trkpt>
      <trkpt lat="42.4093537218868732452392578125" lon="0.796740464866161346435546875">
        <ele>1075.5999755859375</ele>
        <time>2020-08-14T11:33:58.000Z</time>
      </trkpt>
      <trkpt lat="42.4094165861606597900390625" lon="0.796918161213397979736328125">
        <ele>1076.800048828125</ele>
        <time>2020-08-14T11:34:05.000Z</time>
      </trkpt>
      <trkpt lat="42.4094388820230960845947265625" lon="0.7969661056995391845703125">
        <ele>1077.199951171875</ele>
        <time>2020-08-14T11:34:07.000Z</time>
      </trkpt>
      <trkpt lat="42.40948456339538097381591796875" lon="0.79707079567015171051025390625">
        <ele>1078</ele>
        <time>2020-08-14T11:34:11.000Z</time>
      </trkpt>
      <trkpt lat="42.40954726003110408782958984375" lon="0.7972013019025325775146484375">
        <ele>1078.800048828125</ele>
        <time>2020-08-14T11:34:16.000Z</time>
      </trkpt>
      <trkpt lat="42.40957240574061870574951171875" lon="0.797252096235752105712890625">
        <ele>1079</ele>
        <time>2020-08-14T11:34:18.000Z</time>
      </trkpt>
      <trkpt lat="42.40967206656932830810546875" lon="0.79742409288883209228515625">
        <ele>1080.199951171875</ele>
        <time>2020-08-14T11:34:25.000Z</time>
      </trkpt>
      <trkpt lat="42.4097907543182373046875" lon="0.79745451919734477996826171875">
        <ele>1081.199951171875</ele>
        <time>2020-08-14T11:34:31.000Z</time>
      </trkpt>
      <trkpt lat="42.40982503630220890045166015625" lon="0.797378830611705780029296875">
        <ele>1082</ele>
        <time>2020-08-14T11:34:34.000Z</time>
      </trkpt>
      <trkpt lat="42.4098234437406063079833984375" lon="0.7973488233983516693115234375">
        <ele>1082.4000244140625</ele>
        <time>2020-08-14T11:34:35.000Z</time>
      </trkpt>
      <trkpt lat="42.4097624234855175018310546875" lon="0.7972271181643009185791015625">
        <ele>1083</ele>
        <time>2020-08-14T11:34:40.000Z</time>
      </trkpt>
      <trkpt lat="42.4097178317606449127197265625" lon="0.797160565853118896484375">
        <ele>1083.4000244140625</ele>
        <time>2020-08-14T11:34:43.000Z</time>
      </trkpt>
      <trkpt lat="42.4096514470875263214111328125" lon="0.7970105297863483428955078125">
        <ele>1084.5999755859375</ele>
        <time>2020-08-14T11:34:49.000Z</time>
      </trkpt>
      <trkpt lat="42.4096289835870265960693359375" lon="0.79695914871990680694580078125">
        <ele>1084.800048828125</ele>
        <time>2020-08-14T11:34:51.000Z</time>
      </trkpt>
      <trkpt lat="42.4095743335783481597900390625" lon="0.79675932414829730987548828125">
        <ele>1086</ele>
        <time>2020-08-14T11:34:58.000Z</time>
      </trkpt>
      <trkpt lat="42.40952127613127231597900390625" lon="0.79652957618236541748046875">
        <ele>1087</ele>
        <time>2020-08-14T11:35:06.000Z</time>
      </trkpt>
      <trkpt lat="42.409501411020755767822265625" lon="0.79644165001809597015380859375">
        <ele>1087.5999755859375</ele>
        <time>2020-08-14T11:35:09.000Z</time>
      </trkpt>
      <trkpt lat="42.4094702303409576416015625" lon="0.7962947152554988861083984375">
        <ele>1088.199951171875</ele>
        <time>2020-08-14T11:35:14.000Z</time>
      </trkpt>
      <trkpt lat="42.4094541370868682861328125" lon="0.7961746864020824432373046875">
        <ele>1088.800048828125</ele>
        <time>2020-08-14T11:35:18.000Z</time>
      </trkpt>
      <trkpt lat="42.40943695418536663055419921875" lon="0.79608726315200328826904296875">
        <ele>1089.199951171875</ele>
        <time>2020-08-14T11:35:21.000Z</time>
      </trkpt>
      <trkpt lat="42.4094231240451335906982421875" lon="0.79599791206419467926025390625">
        <ele>1089.5999755859375</ele>
        <time>2020-08-14T11:35:24.000Z</time>
      </trkpt>
      <trkpt lat="42.40942530333995819091796875" lon="0.79582071863114833831787109375">
        <ele>1090.4000244140625</ele>
        <time>2020-08-14T11:35:30.000Z</time>
      </trkpt>
      <trkpt lat="42.4094274826347827911376953125" lon="0.79576137475669384002685546875">
        <ele>1090.800048828125</ele>
        <time>2020-08-14T11:35:32.000Z</time>
      </trkpt>
      <trkpt lat="42.40943200886249542236328125" lon="0.79561167396605014801025390625">
        <ele>1091.4000244140625</ele>
        <time>2020-08-14T11:35:37.000Z</time>
      </trkpt>
      <trkpt lat="42.40943879820406436920166015625" lon="0.79552014358341693878173828125">
        <ele>1092</ele>
        <time>2020-08-14T11:35:40.000Z</time>
      </trkpt>
      <trkpt lat="42.4094492755830287933349609375" lon="0.7954628951847553253173828125">
        <ele>1092.4000244140625</ele>
        <time>2020-08-14T11:35:42.000Z</time>
      </trkpt>
      <trkpt lat="42.40948908962309360504150390625" lon="0.7953237555921077728271484375">
        <ele>1093.199951171875</ele>
        <time>2020-08-14T11:35:47.000Z</time>
      </trkpt>
      <trkpt lat="42.4095196835696697235107421875" lon="0.79524387605488300323486328125">
        <ele>1093.800048828125</ele>
        <time>2020-08-14T11:35:50.000Z</time>
      </trkpt>
      <trkpt lat="42.40956502966582775115966796875" lon="0.79513893462717533111572265625">
        <ele>1094.4000244140625</ele>
        <time>2020-08-14T11:35:54.000Z</time>
      </trkpt>
      <trkpt lat="42.4095978029072284698486328125" lon="0.79505913890898227691650390625">
        <ele>1094.800048828125</ele>
        <time>2020-08-14T11:35:57.000Z</time>
      </trkpt>
      <trkpt lat="42.40963275544345378875732421875" lon="0.7949422113597393035888671875">
        <ele>1095.4000244140625</ele>
        <time>2020-08-14T11:36:01.000Z</time>
      </trkpt>
      <trkpt lat="42.40965329110622406005859375" lon="0.7948547042906284332275390625">
        <ele>1095.800048828125</ele>
        <time>2020-08-14T11:36:04.000Z</time>
      </trkpt>
      <trkpt lat="42.4096712283790111541748046875" lon="0.794734172523021697998046875">
        <ele>1096.4000244140625</ele>
        <time>2020-08-14T11:36:08.000Z</time>
      </trkpt>
      <trkpt lat="42.40967743098735809326171875" lon="0.79463501460850238800048828125">
        <ele>1097.199951171875</ele>
        <time>2020-08-14T11:36:11.000Z</time>
      </trkpt>
      <trkpt lat="42.40969578735530376434326171875" lon="0.794478021562099456787109375">
        <ele>1098.199951171875</ele>
        <time>2020-08-14T11:36:16.000Z</time>
      </trkpt>
      <trkpt lat="42.40969981066882610321044921875" lon="0.7944473437964916229248046875">
        <ele>1098.4000244140625</ele>
        <time>2020-08-14T11:36:17.000Z</time>
      </trkpt>
      <trkpt lat="42.40973643958568572998046875" lon="0.794294960796833038330078125">
        <ele>1099.4000244140625</ele>
        <time>2020-08-14T11:36:22.000Z</time>
      </trkpt>
      <trkpt lat="42.40975999273359775543212890625" lon="0.794241316616535186767578125">
        <ele>1099.5999755859375</ele>
        <time>2020-08-14T11:36:24.000Z</time>
      </trkpt>
      <trkpt lat="42.409816570580005645751953125" lon="0.79411483369767665863037109375">
        <ele>1100.5999755859375</ele>
        <time>2020-08-14T11:36:29.000Z</time>
      </trkpt>
      <trkpt lat="42.4098442308604717254638671875" lon="0.79406806267797946929931640625">
        <ele>1101.199951171875</ele>
        <time>2020-08-14T11:36:31.000Z</time>
      </trkpt>
      <trkpt lat="42.4098988808691501617431640625" lon="0.79396806657314300537109375">
        <ele>1101.5999755859375</ele>
        <time>2020-08-14T11:36:35.000Z</time>
      </trkpt>
      <trkpt lat="42.4099438078701496124267578125" lon="0.7938585989177227020263671875">
        <ele>1102</ele>
        <time>2020-08-14T11:36:39.000Z</time>
      </trkpt>
      <trkpt lat="42.41004757583141326904296875" lon="0.79368643462657928466796875">
        <ele>1102.5999755859375</ele>
        <time>2020-08-14T11:36:45.000Z</time>
      </trkpt>
      <trkpt lat="42.41009627468883991241455078125" lon="0.79359029419720172882080078125">
        <ele>1102.800048828125</ele>
        <time>2020-08-14T11:36:48.000Z</time>
      </trkpt>
      <trkpt lat="42.4102220870554447174072265625" lon="0.79335895366966724395751953125">
        <ele>1103.800048828125</ele>
        <time>2020-08-14T11:36:55.000Z</time>
      </trkpt>
      <trkpt lat="42.4102373421192169189453125" lon="0.79332643188536167144775390625">
        <ele>1104</ele>
        <time>2020-08-14T11:36:56.000Z</time>
      </trkpt>
      <trkpt lat="42.41036114282906055450439453125" lon="0.793039686977863311767578125">
        <ele>1105</ele>
        <time>2020-08-14T11:37:05.000Z</time>
      </trkpt>
      <trkpt lat="42.4103414453566074371337890625" lon="0.79280859790742397308349609375">
        <ele>1105.5999755859375</ele>
        <time>2020-08-14T11:37:11.000Z</time>
      </trkpt>
      <trkpt lat="42.410249412059783935546875" lon="0.79266744665801525115966796875">
        <ele>1106</ele>
        <time>2020-08-14T11:37:16.000Z</time>
      </trkpt>
      <trkpt lat="42.4101587198674678802490234375" lon="0.79260944388806819915771484375">
        <ele>1106.199951171875</ele>
        <time>2020-08-14T11:37:20.000Z</time>
      </trkpt>
      <trkpt lat="42.41012996993958950042724609375" lon="0.79257021658122539520263671875">
        <ele>1106.4000244140625</ele>
        <time>2020-08-14T11:37:22.000Z</time>
      </trkpt>
      <trkpt lat="42.41015410982072353363037109375" lon="0.79247650690376758575439453125">
        <ele>1107.4000244140625</ele>
        <time>2020-08-14T11:37:26.000Z</time>
      </trkpt>
      <trkpt lat="42.4102100171148777008056640625" lon="0.79242235980927944183349609375">
        <ele>1108.4000244140625</ele>
        <time>2020-08-14T11:37:30.000Z</time>
      </trkpt>
      <trkpt lat="42.41022233851253986358642578125" lon="0.79240693710744380950927734375">
        <ele>1108.5999755859375</ele>
        <time>2020-08-14T11:37:31.000Z</time>
      </trkpt>
      <trkpt lat="42.41025771014392375946044921875" lon="0.79235882498323917388916015625">
        <ele>1109.4000244140625</ele>
        <time>2020-08-14T11:37:34.000Z</time>
      </trkpt>
      <trkpt lat="42.410268522799015045166015625" lon="0.7923391275107860565185546875">
        <ele>1109.5999755859375</ele>
        <time>2020-08-14T11:37:35.000Z</time>
      </trkpt>
      <trkpt lat="42.410329878330230712890625" lon="0.7922615110874176025390625">
        <ele>1110.199951171875</ele>
        <time>2020-08-14T11:37:40.000Z</time>
      </trkpt>
      <trkpt lat="42.41036667488515377044677734375" lon="0.79220258630812168121337890625">
        <ele>1110.800048828125</ele>
        <time>2020-08-14T11:37:44.000Z</time>
      </trkpt>
      <trkpt lat="42.41037874482572078704833984375" lon="0.79216302372515201568603515625">
        <ele>1111.199951171875</ele>
        <time>2020-08-14T11:37:46.000Z</time>
      </trkpt>
      <trkpt lat="42.41038008593022823333740234375" lon="0.792143158614635467529296875">
        <ele>1111.5999755859375</ele>
        <time>2020-08-14T11:37:47.000Z</time>
      </trkpt>
      <trkpt lat="42.41037220694124698638916015625" lon="0.79210166819393634796142578125">
        <ele>1111.800048828125</ele>
        <time>2020-08-14T11:37:49.000Z</time>
      </trkpt>
      <trkpt lat="42.4103553593158721923828125" lon="0.7920424081385135650634765625">
        <ele>1112.800048828125</ele>
        <time>2020-08-14T11:37:52.000Z</time>
      </trkpt>
      <trkpt lat="42.41034789942204952239990234375" lon="0.79202488996088504791259765625">
        <ele>1113.199951171875</ele>
        <time>2020-08-14T11:37:53.000Z</time>
      </trkpt>
      <trkpt lat="42.41032652556896209716796875" lon="0.7919059507548809051513671875">
        <ele>1113.800048828125</ele>
        <time>2020-08-14T11:37:59.000Z</time>
      </trkpt>
      <trkpt lat="42.41032007150352001190185546875" lon="0.7918439246714115142822265625">
        <ele>1114.4000244140625</ele>
        <time>2020-08-14T11:38:02.000Z</time>
      </trkpt>
      <trkpt lat="42.4103287048637866973876953125" lon="0.791759602725505828857421875">
        <ele>1115.4000244140625</ele>
        <time>2020-08-14T11:38:06.000Z</time>
      </trkpt>
      <trkpt lat="42.4103773199021816253662109375" lon="0.79157779924571514129638671875">
        <ele>1116</ele>
        <time>2020-08-14T11:38:14.000Z</time>
      </trkpt>
      <trkpt lat="42.4104195646941661834716796875" lon="0.79137311317026615142822265625">
        <ele>1116.4000244140625</ele>
        <time>2020-08-14T11:38:22.000Z</time>
      </trkpt>
      <trkpt lat="42.410476393997669219970703125" lon="0.79113892279565334320068359375">
        <ele>1116.199951171875</ele>
        <time>2020-08-14T11:38:29.000Z</time>
      </trkpt>
      <trkpt lat="42.41052442230284214019775390625" lon="0.79088042490184307098388671875">
        <ele>1115.199951171875</ele>
        <time>2020-08-14T11:38:36.000Z</time>
      </trkpt>
      <trkpt lat="42.41058460436761379241943359375" lon="0.79066769219934940338134765625">
        <ele>1115</ele>
        <time>2020-08-14T11:38:43.000Z</time>
      </trkpt>
      <trkpt lat="42.41066440008580684661865234375" lon="0.7905363477766513824462890625">
        <ele>1115.199951171875</ele>
        <time>2020-08-14T11:38:49.000Z</time>
      </trkpt>
      <trkpt lat="42.41080395877361297607421875" lon="0.7904588989913463592529296875">
        <ele>1115.4000244140625</ele>
        <time>2020-08-14T11:38:56.000Z</time>
      </trkpt>
      <trkpt lat="42.41098232567310333251953125" lon="0.790464766323566436767578125">
        <ele>1116.5999755859375</ele>
        <time>2020-08-14T11:39:04.000Z</time>
      </trkpt>
      <trkpt lat="42.41114384494721889495849609375" lon="0.790478177368640899658203125">
        <ele>1115.5999755859375</ele>
        <time>2020-08-14T11:39:11.000Z</time>
      </trkpt>
      <trkpt lat="42.411251552402973175048828125" lon="0.7904027402400970458984375">
        <ele>1116</ele>
        <time>2020-08-14T11:39:17.000Z</time>
      </trkpt>
      <trkpt lat="42.4113600142300128936767578125" lon="0.79031514935195446014404296875">
        <ele>1115.800048828125</ele>
        <time>2020-08-14T11:39:23.000Z</time>
      </trkpt>
      <trkpt lat="42.41154651157557964324951171875" lon="0.79021758399903774261474609375">
        <ele>1115.199951171875</ele>
        <time>2020-08-14T11:39:28.000Z</time>
      </trkpt>
      <trkpt lat="42.41169981658458709716796875" lon="0.79020970501005649566650390625">
        <ele>1114.800048828125</ele>
        <time>2020-08-14T11:39:32.000Z</time>
      </trkpt>
      <trkpt lat="42.4117237888276576995849609375" lon="0.790213979780673980712890625">
        <ele>1114.5999755859375</ele>
        <time>2020-08-14T11:39:33.000Z</time>
      </trkpt>
      <trkpt lat="42.4118096195161342620849609375" lon="0.7902335934340953826904296875">
        <ele>1114.800048828125</ele>
        <time>2020-08-14T11:39:38.000Z</time>
      </trkpt>
      <trkpt lat="42.411923110485076904296875" lon="0.79025127924978733062744140625">
        <ele>1115.800048828125</ele>
        <time>2020-08-14T11:39:45.000Z</time>
      </trkpt>
      <trkpt lat="42.41195487789809703826904296875" lon="0.7902798615396022796630859375">
        <ele>1115.5999755859375</ele>
        <time>2020-08-14T11:39:50.000Z</time>
      </trkpt>
      <trkpt lat="42.41195538081228733062744140625" lon="0.79028245992958545684814453125">
        <ele>1115.5999755859375</ele>
        <time>2020-08-14T11:40:08.000Z</time>
      </trkpt>
      <trkpt lat="42.4119554646313190460205078125" lon="0.790281035006046295166015625">
        <ele>1115.800048828125</ele>
        <time>2020-08-14T11:40:22.000Z</time>
      </trkpt>
      <trkpt lat="42.41195722483098506927490234375" lon="0.79028346575796604156494140625">
        <ele>1115.5999755859375</ele>
        <time>2020-08-14T11:40:39.000Z</time>
      </trkpt>
      <trkpt lat="42.4119876511394977569580078125" lon="0.7903090305626392364501953125">
        <ele>1115.5999755859375</ele>
        <time>2020-08-14T11:40:45.000Z</time>
      </trkpt>
      <trkpt lat="42.41208245046436786651611328125" lon="0.79043031670153141021728515625">
        <ele>1115.5999755859375</ele>
        <time>2020-08-14T11:40:51.000Z</time>
      </trkpt>
      <trkpt lat="42.41221924312412738800048828125" lon="0.79059921205043792724609375">
        <ele>1114.800048828125</ele>
        <time>2020-08-14T11:40:58.000Z</time>
      </trkpt>
      <trkpt lat="42.412291578948497772216796875" lon="0.7906387746334075927734375">
        <ele>1114.199951171875</ele>
        <time>2020-08-14T11:41:01.000Z</time>
      </trkpt>
      <trkpt lat="42.4123457260429859161376953125" lon="0.79062947072088718414306640625">
        <ele>1113.800048828125</ele>
        <time>2020-08-14T11:41:03.000Z</time>
      </trkpt>
      <trkpt lat="42.41238755173981189727783203125" lon="0.79057632945477962493896484375">
        <ele>1113.5999755859375</ele>
        <time>2020-08-14T11:41:05.000Z</time>
      </trkpt>
      <trkpt lat="42.41239559836685657501220703125" lon="0.79053676687180995941162109375">
        <ele>1113.199951171875</ele>
        <time>2020-08-14T11:41:06.000Z</time>
      </trkpt>
      <trkpt lat="42.41237833164632320404052734375" lon="0.7904129661619663238525390625">
        <ele>1113.5999755859375</ele>
        <time>2020-08-14T11:41:10.000Z</time>
      </trkpt>
      <trkpt lat="42.41237170994281768798828125" lon="0.7903864793479442596435546875">
        <ele>1113.5999755859375</ele>
        <time>2020-08-14T11:41:11.000Z</time>
      </trkpt>
      <trkpt lat="42.41233742795884609222412109375" lon="0.7902939431369304656982421875">
        <ele>1114.199951171875</ele>
        <time>2020-08-14T11:41:15.000Z</time>
      </trkpt>
      <trkpt lat="42.41229367442429065704345703125" lon="0.79021523706614971160888671875">
        <ele>1115.199951171875</ele>
        <time>2020-08-14T11:41:19.000Z</time>
      </trkpt>
      <trkpt lat="42.41225142963230609893798828125" lon="0.7901318371295928955078125">
        <ele>1115.199951171875</ele>
        <time>2020-08-14T11:41:23.000Z</time>
      </trkpt>
      <trkpt lat="42.4122275412082672119140625" lon="0.7900917716324329376220703125">
        <ele>1116.4000244140625</ele>
        <time>2020-08-14T11:41:25.000Z</time>
      </trkpt>
      <trkpt lat="42.412221841514110565185546875" lon="0.7900679670274257659912109375">
        <ele>1117</ele>
        <time>2020-08-14T11:41:26.000Z</time>
      </trkpt>
      <trkpt lat="42.41221421398222446441650390625" lon="0.790036953985691070556640625">
        <ele>1117.800048828125</ele>
        <time>2020-08-14T11:41:28.000Z</time>
      </trkpt>
      <trkpt lat="42.41221589036285877227783203125" lon="0.79000568948686122894287109375">
        <ele>1118.199951171875</ele>
        <time>2020-08-14T11:41:30.000Z</time>
      </trkpt>
      <trkpt lat="42.412230558693408966064453125" lon="0.7899737544357776641845703125">
        <ele>1118.4000244140625</ele>
        <time>2020-08-14T11:41:32.000Z</time>
      </trkpt>
      <trkpt lat="42.412264756858348846435546875" lon="0.7898379676043987274169921875">
        <ele>1118.199951171875</ele>
        <time>2020-08-14T11:41:39.000Z</time>
      </trkpt>
      <trkpt lat="42.41226014681160449981689453125" lon="0.78980217687785625457763671875">
        <ele>1118.4000244140625</ele>
        <time>2020-08-14T11:41:41.000Z</time>
      </trkpt>
      <trkpt lat="42.41222879849374294281005859375" lon="0.789760686457157135009765625">
        <ele>1118.800048828125</ele>
        <time>2020-08-14T11:41:44.000Z</time>
      </trkpt>
      <trkpt lat="42.41221974603831768035888671875" lon="0.78974568285048007965087890625">
        <ele>1119</ele>
        <time>2020-08-14T11:41:45.000Z</time>
      </trkpt>
      <trkpt lat="42.41219996474683284759521484375" lon="0.789671838283538818359375">
        <ele>1119.5999755859375</ele>
        <time>2020-08-14T11:41:49.000Z</time>
      </trkpt>
      <trkpt lat="42.412193678319454193115234375" lon="0.78963420353829860687255859375">
        <ele>1119.800048828125</ele>
        <time>2020-08-14T11:41:51.000Z</time>
      </trkpt>
      <trkpt lat="42.4121928401291370391845703125" lon="0.78961391933262348175048828125">
        <ele>1119.800048828125</ele>
        <time>2020-08-14T11:41:52.000Z</time>
      </trkpt>
      <trkpt lat="42.41218588314950466156005859375" lon="0.78952305950224399566650390625">
        <ele>1121</ele>
        <time>2020-08-14T11:41:56.000Z</time>
      </trkpt>
      <trkpt lat="42.4121901579201221466064453125" lon="0.7894478738307952880859375">
        <ele>1121.199951171875</ele>
        <time>2020-08-14T11:41:59.000Z</time>
      </trkpt>
      <trkpt lat="42.412177585065364837646484375" lon="0.78923991881310939788818359375">
        <ele>1122</ele>
        <time>2020-08-14T11:42:07.000Z</time>
      </trkpt>
      <trkpt lat="42.4122357554733753204345703125" lon="0.7890178821980953216552734375">
        <ele>1123.4000244140625</ele>
        <time>2020-08-14T11:42:16.000Z</time>
      </trkpt>
      <trkpt lat="42.41235435940325260162353515625" lon="0.7887880504131317138671875">
        <ele>1124.199951171875</ele>
        <time>2020-08-14T11:42:26.000Z</time>
      </trkpt>
      <trkpt lat="42.41237799637019634246826171875" lon="0.78874773345887660980224609375">
        <ele>1124.4000244140625</ele>
        <time>2020-08-14T11:42:28.000Z</time>
      </trkpt>
      <trkpt lat="42.41245997138321399688720703125" lon="0.7886309735476970672607421875">
        <ele>1125.4000244140625</ele>
        <time>2020-08-14T11:42:35.000Z</time>
      </trkpt>
      <trkpt lat="42.4125116877257823944091796875" lon="0.7885495014488697052001953125">
        <ele>1125.800048828125</ele>
        <time>2020-08-14T11:42:43.000Z</time>
      </trkpt>
      <trkpt lat="42.4125324748456478118896484375" lon="0.78851739875972270965576171875">
        <ele>1125.800048828125</ele>
        <time>2020-08-14T11:42:46.000Z</time>
      </trkpt>
      <trkpt lat="42.41255502216517925262451171875" lon="0.7884878106415271759033203125">
        <ele>1125.800048828125</ele>
        <time>2020-08-14T11:42:49.000Z</time>
      </trkpt>
      <trkpt lat="42.412614785134792327880859375" lon="0.78842972405254840850830078125">
        <ele>1126</ele>
        <time>2020-08-14T11:42:55.000Z</time>
      </trkpt>
      <trkpt lat="42.41263188421726226806640625" lon="0.78841815702617168426513671875">
        <ele>1126</ele>
        <time>2020-08-14T11:42:56.000Z</time>
      </trkpt>
      <trkpt lat="42.41276540793478488922119140625" lon="0.78835931606590747833251953125">
        <ele>1125.5999755859375</ele>
        <time>2020-08-14T11:43:03.000Z</time>
      </trkpt>
      <trkpt lat="42.4129311181604862213134765625" lon="0.78828019089996814727783203125">
        <ele>1126</ele>
        <time>2020-08-14T11:43:12.000Z</time>
      </trkpt>
      <trkpt lat="42.4130370654165744781494140625" lon="0.7882427237927913665771484375">
        <ele>1126.199951171875</ele>
        <time>2020-08-14T11:43:17.000Z</time>
      </trkpt>
      <trkpt lat="42.41307805292308330535888671875" lon="0.78823777846992015838623046875">
        <ele>1126.199951171875</ele>
        <time>2020-08-14T11:43:19.000Z</time>
      </trkpt>
      <trkpt lat="42.41317142732441425323486328125" lon="0.7882132194936275482177734375">
        <ele>1126.5999755859375</ele>
        <time>2020-08-14T11:43:24.000Z</time>
      </trkpt>
      <trkpt lat="42.41319221444427967071533203125" lon="0.78817122615873813629150390625">
        <ele>1126.199951171875</ele>
        <time>2020-08-14T11:43:26.000Z</time>
      </trkpt>
      <trkpt lat="42.4131906218826770782470703125" lon="0.78800660558044910430908203125">
        <ele>1126.800048828125</ele>
        <time>2020-08-14T11:43:32.000Z</time>
      </trkpt>
      <trkpt lat="42.41318282671272754669189453125" lon="0.787814073264598846435546875">
        <ele>1127.800048828125</ele>
        <time>2020-08-14T11:43:39.000Z</time>
      </trkpt>
      <trkpt lat="42.41318249143660068511962890625" lon="0.78778691589832305908203125">
        <ele>1128</ele>
        <time>2020-08-14T11:43:40.000Z</time>
      </trkpt>
      <trkpt lat="42.413198836147785186767578125" lon="0.78765037469565868377685546875">
        <ele>1129</ele>
        <time>2020-08-14T11:43:45.000Z</time>
      </trkpt>
      <trkpt lat="42.41321149282157421112060546875" lon="0.7875460200011730194091796875">
        <ele>1128.800048828125</ele>
        <time>2020-08-14T11:43:49.000Z</time>
      </trkpt>
      <trkpt lat="42.413256168365478515625" lon="0.78734292648732662200927734375">
        <ele>1129</ele>
        <time>2020-08-14T11:43:56.000Z</time>
      </trkpt>
      <trkpt lat="42.41334878839552402496337890625" lon="0.78709767200052738189697265625">
        <ele>1129</ele>
        <time>2020-08-14T11:44:05.000Z</time>
      </trkpt>
      <trkpt lat="42.4133860878646373748779296875" lon="0.78693690709769725799560546875">
        <ele>1128.5999755859375</ele>
        <time>2020-08-14T11:44:10.000Z</time>
      </trkpt>
      <trkpt lat="42.41340109147131443023681640625" lon="0.78690907917916774749755859375">
        <ele>1128</ele>
        <time>2020-08-14T11:44:11.000Z</time>
      </trkpt>
      <trkpt lat="42.413499243557453155517578125" lon="0.7867946662008762359619140625">
        <ele>1127.4000244140625</ele>
        <time>2020-08-14T11:44:16.000Z</time>
      </trkpt>
      <trkpt lat="42.413549534976482391357421875" lon="0.78674546442925930023193359375">
        <ele>1126.800048828125</ele>
        <time>2020-08-14T11:44:18.000Z</time>
      </trkpt>
      <trkpt lat="42.41366780363023281097412109375" lon="0.7866369187831878662109375">
        <ele>1125.800048828125</ele>
        <time>2020-08-14T11:44:22.000Z</time>
      </trkpt>
      <trkpt lat="42.413699738681316375732421875" lon="0.78660431317985057830810546875">
        <ele>1125.4000244140625</ele>
        <time>2020-08-14T11:44:23.000Z</time>
      </trkpt>
      <trkpt lat="42.41381733678281307220458984375" lon="0.786459557712078094482421875">
        <ele>1124.5999755859375</ele>
        <time>2020-08-14T11:44:27.000Z</time>
      </trkpt>
      <trkpt lat="42.41387265734374523162841796875" lon="0.786398537456989288330078125">
        <ele>1124.5999755859375</ele>
        <time>2020-08-14T11:44:29.000Z</time>
      </trkpt>
      <trkpt lat="42.4140526168048381805419921875" lon="0.7863122038543224334716796875">
        <ele>1124.5999755859375</ele>
        <time>2020-08-14T11:44:34.000Z</time>
      </trkpt>
      <trkpt lat="42.4140911735594272613525390625" lon="0.78629367984831333160400390625">
        <ele>1124.4000244140625</ele>
        <time>2020-08-14T11:44:35.000Z</time>
      </trkpt>
      <trkpt lat="42.41418890655040740966796875" lon="0.786183960735797882080078125">
        <ele>1124</ele>
        <time>2020-08-14T11:44:38.000Z</time>
      </trkpt>
      <trkpt lat="42.41421564482152462005615234375" lon="0.7861405424773693084716796875">
        <ele>1123.5999755859375</ele>
        <time>2020-08-14T11:44:39.000Z</time>
      </trkpt>
      <trkpt lat="42.414385378360748291015625" lon="0.78587726689875125885009765625">
        <ele>1123.4000244140625</ele>
        <time>2020-08-14T11:44:45.000Z</time>
      </trkpt>
      <trkpt lat="42.41448319517076015472412109375" lon="0.7856906019151210784912109375">
        <ele>1123.4000244140625</ele>
        <time>2020-08-14T11:44:50.000Z</time>
      </trkpt>
      <trkpt lat="42.4146068282425403594970703125" lon="0.7855184376239776611328125">
        <ele>1123.4000244140625</ele>
        <time>2020-08-14T11:44:58.000Z</time>
      </trkpt>
      <trkpt lat="42.41472023539245128631591796875" lon="0.78544610179960727691650390625">
        <ele>1123.800048828125</ele>
        <time>2020-08-14T11:45:04.000Z</time>
      </trkpt>
      <trkpt lat="42.41481981240212917327880859375" lon="0.7853494584560394287109375">
        <ele>1124.4000244140625</ele>
        <time>2020-08-14T11:45:10.000Z</time>
      </trkpt>
      <trkpt lat="42.41485141217708587646484375" lon="0.7853150926530361175537109375">
        <ele>1124.800048828125</ele>
        <time>2020-08-14T11:45:12.000Z</time>
      </trkpt>
      <trkpt lat="42.41493648849427700042724609375" lon="0.78526035882532596588134765625">
        <ele>1126</ele>
        <time>2020-08-14T11:45:17.000Z</time>
      </trkpt>
      <trkpt lat="42.41495601832866668701171875" lon="0.785253904759883880615234375">
        <ele>1126.199951171875</ele>
        <time>2020-08-14T11:45:18.000Z</time>
      </trkpt>
      <trkpt lat="42.41505634970963001251220703125" lon="0.7852314412593841552734375">
        <ele>1127.199951171875</ele>
        <time>2020-08-14T11:45:23.000Z</time>
      </trkpt>
      <trkpt lat="42.41511619649827480316162109375" lon="0.78521610237658023834228515625">
        <ele>1128</ele>
        <time>2020-08-14T11:45:26.000Z</time>
      </trkpt>
      <trkpt lat="42.415238320827484130859375" lon="0.78519665636122226715087890625">
        <ele>1128.4000244140625</ele>
        <time>2020-08-14T11:45:33.000Z</time>
      </trkpt>
      <trkpt lat="42.41525642573833465576171875" lon="0.78519590198993682861328125">
        <ele>1129</ele>
        <time>2020-08-14T11:45:34.000Z</time>
      </trkpt>
      <trkpt lat="42.41529540158808231353759765625" lon="0.78519632108509540557861328125">
        <ele>1129.5999755859375</ele>
        <time>2020-08-14T11:45:36.000Z</time>
      </trkpt>
      <trkpt lat="42.41544811986386775970458984375" lon="0.7851885259151458740234375">
        <ele>1130.5999755859375</ele>
        <time>2020-08-14T11:45:44.000Z</time>
      </trkpt>
      <trkpt lat="42.41564291529357433319091796875" lon="0.78524510376155376434326171875">
        <ele>1131.5999755859375</ele>
        <time>2020-08-14T11:45:54.000Z</time>
      </trkpt>
      <trkpt lat="42.4158735014498233795166015625" lon="0.7853462733328342437744140625">
        <ele>1132.199951171875</ele>
        <time>2020-08-14T11:46:05.000Z</time>
      </trkpt>
      <trkpt lat="42.41593745537102222442626953125" lon="0.785400755703449249267578125">
        <ele>1132.800048828125</ele>
        <time>2020-08-14T11:46:08.000Z</time>
      </trkpt>
      <trkpt lat="42.41603694856166839599609375" lon="0.78548264689743518829345703125">
        <ele>1134</ele>
        <time>2020-08-14T11:46:13.000Z</time>
      </trkpt>
      <trkpt lat="42.41605547256767749786376953125" lon="0.7855018414556980133056640625">
        <ele>1134.199951171875</ele>
        <time>2020-08-14T11:46:14.000Z</time>
      </trkpt>
      <trkpt lat="42.4161360226571559906005859375" lon="0.78561625443398952484130859375">
        <ele>1135</ele>
        <time>2020-08-14T11:46:19.000Z</time>
      </trkpt>
      <trkpt lat="42.416150607168674468994140625" lon="0.7856520451605319976806640625">
        <ele>1135.199951171875</ele>
        <time>2020-08-14T11:46:21.000Z</time>
      </trkpt>
      <trkpt lat="42.4161755852401256561279296875" lon="0.78573745675384998321533203125">
        <ele>1135.4000244140625</ele>
        <time>2020-08-14T11:46:28.000Z</time>
      </trkpt>
      <trkpt lat="42.416172064840793609619140625" lon="0.78583468683063983917236328125">
        <ele>1135.4000244140625</ele>
        <time>2020-08-14T11:46:36.000Z</time>
      </trkpt>
      <trkpt lat="42.41621221415698528289794921875" lon="0.78594566322863101959228515625">
        <ele>1135.199951171875</ele>
        <time>2020-08-14T11:46:43.000Z</time>
      </trkpt>
      <trkpt lat="42.41630709730088710784912109375" lon="0.786035098135471343994140625">
        <ele>1135.5999755859375</ele>
        <time>2020-08-14T11:46:49.000Z</time>
      </trkpt>
      <trkpt lat="42.4164538644254207611083984375" lon="0.7861031591892242431640625">
        <ele>1135.5999755859375</ele>
        <time>2020-08-14T11:46:57.000Z</time>
      </trkpt>
      <trkpt lat="42.41654698736965656280517578125" lon="0.78619368374347686767578125">
        <ele>1135.4000244140625</ele>
        <time>2020-08-14T11:47:03.000Z</time>
      </trkpt>
      <trkpt lat="42.41669098846614360809326171875" lon="0.7863199152052402496337890625">
        <ele>1135.800048828125</ele>
        <time>2020-08-14T11:47:11.000Z</time>
      </trkpt>
      <trkpt lat="42.4167309701442718505859375" lon="0.78633273951709270477294921875">
        <ele>1136.199951171875</ele>
        <time>2020-08-14T11:47:13.000Z</time>
      </trkpt>
      <trkpt lat="42.41683180443942546844482421875" lon="0.7863852940499782562255859375">
        <ele>1137.4000244140625</ele>
        <time>2020-08-14T11:47:18.000Z</time>
      </trkpt>
      <trkpt lat="42.41685158573091030120849609375" lon="0.78640717081725597381591796875">
        <ele>1137.4000244140625</ele>
        <time>2020-08-14T11:47:19.000Z</time>
      </trkpt>
      <trkpt lat="42.4170045554637908935546875" lon="0.78652149997651576995849609375">
        <ele>1137.800048828125</ele>
        <time>2020-08-14T11:47:24.000Z</time>
      </trkpt>
      <trkpt lat="42.41714528761804103851318359375" lon="0.78648026101291179656982421875">
        <ele>1137.199951171875</ele>
        <time>2020-08-14T11:47:28.000Z</time>
      </trkpt>
      <trkpt lat="42.41718619130551815032958984375" lon="0.78636400401592254638671875">
        <ele>1137.199951171875</ele>
        <time>2020-08-14T11:47:31.000Z</time>
      </trkpt>
      <trkpt lat="42.41717956960201263427734375" lon="0.78632603399455547332763671875">
        <ele>1137.199951171875</ele>
        <time>2020-08-14T11:47:32.000Z</time>
      </trkpt>
      <trkpt lat="42.41710639558732509613037109375" lon="0.78618220053613185882568359375">
        <ele>1137.4000244140625</ele>
        <time>2020-08-14T11:47:37.000Z</time>
      </trkpt>
      <trkpt lat="42.41709348745644092559814453125" lon="0.785978101193904876708984375">
        <ele>1137.5999755859375</ele>
        <time>2020-08-14T11:47:43.000Z</time>
      </trkpt>
      <trkpt lat="42.4171509034931659698486328125" lon="0.78571482561528682708740234375">
        <ele>1137.800048828125</ele>
        <time>2020-08-14T11:47:51.000Z</time>
      </trkpt>
      <trkpt lat="42.417234219610691070556640625" lon="0.7854567468166351318359375">
        <ele>1137.4000244140625</ele>
        <time>2020-08-14T11:47:59.000Z</time>
      </trkpt>
      <trkpt lat="42.41737578995525836944580078125" lon="0.78519179485738277435302734375">
        <ele>1137.4000244140625</ele>
        <time>2020-08-14T11:48:06.000Z</time>
      </trkpt>
      <trkpt lat="42.41743194870650768280029296875" lon="0.78512826003134250640869140625">
        <ele>1136.4000244140625</ele>
        <time>2020-08-14T11:48:08.000Z</time>
      </trkpt>
      <trkpt lat="42.41760872304439544677734375" lon="0.78498308546841144561767578125">
        <ele>1136.4000244140625</ele>
        <time>2020-08-14T11:48:14.000Z</time>
      </trkpt>
      <trkpt lat="42.41774627007544040679931640625" lon="0.78496657311916351318359375">
        <ele>1136.199951171875</ele>
        <time>2020-08-14T11:48:19.000Z</time>
      </trkpt>
      <trkpt lat="42.417920529842376708984375" lon="0.78492759726941585540771484375">
        <ele>1136.199951171875</ele>
        <time>2020-08-14T11:48:26.000Z</time>
      </trkpt>
      <trkpt lat="42.4180853180587291717529296875" lon="0.7848292775452136993408203125">
        <ele>1136.4000244140625</ele>
        <time>2020-08-14T11:48:33.000Z</time>
      </trkpt>
      <trkpt lat="42.418176345527172088623046875" lon="0.78466574661433696746826171875">
        <ele>1136.4000244140625</ele>
        <time>2020-08-14T11:48:39.000Z</time>
      </trkpt>
      <trkpt lat="42.41828405298292636871337890625" lon="0.78444630838930606842041015625">
        <ele>1136.199951171875</ele>
        <time>2020-08-14T11:48:45.000Z</time>
      </trkpt>
      <trkpt lat="42.41847465746104717254638671875" lon="0.7842287980020046234130859375">
        <ele>1135.4000244140625</ele>
        <time>2020-08-14T11:48:52.000Z</time>
      </trkpt>
      <trkpt lat="42.4186569638550281524658203125" lon="0.78409141860902309417724609375">
        <ele>1134.4000244140625</ele>
        <time>2020-08-14T11:48:58.000Z</time>
      </trkpt>
      <trkpt lat="42.4188353307545185089111328125" lon="0.78411019407212734222412109375">
        <ele>1133.4000244140625</ele>
        <time>2020-08-14T11:49:03.000Z</time>
      </trkpt>
      <trkpt lat="42.41887447424232959747314453125" lon="0.7841342501342296600341796875">
        <ele>1133.199951171875</ele>
        <time>2020-08-14T11:49:04.000Z</time>
      </trkpt>
      <trkpt lat="42.41905175149440765380859375" lon="0.78423424623906612396240234375">
        <ele>1132.199951171875</ele>
        <time>2020-08-14T11:49:08.000Z</time>
      </trkpt>
      <trkpt lat="42.41915769875049591064453125" lon="0.78426383435726165771484375">
        <ele>1131</ele>
        <time>2020-08-14T11:49:10.000Z</time>
      </trkpt>
      <trkpt lat="42.41926406510174274444580078125" lon="0.784290321171283721923828125">
        <ele>1131</ele>
        <time>2020-08-14T11:49:12.000Z</time>
      </trkpt>
      <trkpt lat="42.4193694256246089935302734375" lon="0.78432275913655757904052734375">
        <ele>1130.4000244140625</ele>
        <time>2020-08-14T11:49:14.000Z</time>
      </trkpt>
      <trkpt lat="42.4194679968059062957763671875" lon="0.7843313924968242645263671875">
        <ele>1129.800048828125</ele>
        <time>2020-08-14T11:49:16.000Z</time>
      </trkpt>
      <trkpt lat="42.419583164155483245849609375" lon="0.784339942038059234619140625">
        <ele>1129.5999755859375</ele>
        <time>2020-08-14T11:49:19.000Z</time>
      </trkpt>
      <trkpt lat="42.419775612652301788330078125" lon="0.7844621501863002777099609375">
        <ele>1129.4000244140625</ele>
        <time>2020-08-14T11:49:25.000Z</time>
      </trkpt>
      <trkpt lat="42.41993822157382965087890625" lon="0.78455912880599498748779296875">
        <ele>1128.5999755859375</ele>
        <time>2020-08-14T11:49:29.000Z</time>
      </trkpt>
      <trkpt lat="42.4199843220412731170654296875" lon="0.7845711149275302886962890625">
        <ele>1128.5999755859375</ele>
        <time>2020-08-14T11:49:30.000Z</time>
      </trkpt>
      <trkpt lat="42.4201963841915130615234375" lon="0.7846100069582462310791015625">
        <ele>1128.199951171875</ele>
        <time>2020-08-14T11:49:35.000Z</time>
      </trkpt>
      <trkpt lat="42.4202766828238964080810546875" lon="0.784633643925189971923828125">
        <ele>1128.4000244140625</ele>
        <time>2020-08-14T11:49:37.000Z</time>
      </trkpt>
      <trkpt lat="42.4203574843704700469970703125" lon="0.7846740446984767913818359375">
        <ele>1127.4000244140625</ele>
        <time>2020-08-14T11:49:41.000Z</time>
      </trkpt>
      <trkpt lat="42.420358322560787200927734375" lon="0.78467295505106449127197265625">
        <ele>1127</ele>
        <time>2020-08-14T11:49:51.000Z</time>
      </trkpt>
      <trkpt lat="42.42035857401788234710693359375" lon="0.7846750505268573760986328125">
        <ele>1126.800048828125</ele>
        <time>2020-08-14T11:50:10.000Z</time>
      </trkpt>
      <trkpt lat="42.42035807110369205474853515625" lon="0.78467211686074733734130859375">
        <ele>1126.800048828125</ele>
        <time>2020-08-14T11:50:26.000Z</time>
      </trkpt>
      <trkpt lat="42.42035840637981891632080078125" lon="0.78467044048011302947998046875">
        <ele>1126.800048828125</ele>
        <time>2020-08-14T11:50:47.000Z</time>
      </trkpt>
      <trkpt lat="42.42035890929400920867919921875" lon="0.78467077575623989105224609375">
        <ele>1126.800048828125</ele>
        <time>2020-08-14T11:51:00.000Z</time>
      </trkpt>
      <trkpt lat="42.420384474098682403564453125" lon="0.78469491563737392425537109375">
        <ele>1126.800048828125</ele>
        <time>2020-08-14T11:51:09.000Z</time>
      </trkpt>
      <trkpt lat="42.4204855598509311676025390625" lon="0.784742943942546844482421875">
        <ele>1127</ele>
        <time>2020-08-14T11:51:15.000Z</time>
      </trkpt>
      <trkpt lat="42.42064540274441242218017578125" lon="0.78489071689546108245849609375">
        <ele>1126.199951171875</ele>
        <time>2020-08-14T11:51:22.000Z</time>
      </trkpt>
      <trkpt lat="42.420806922018527984619140625" lon="0.7850049622356891632080078125">
        <ele>1126.199951171875</ele>
        <time>2020-08-14T11:51:28.000Z</time>
      </trkpt>
      <trkpt lat="42.42092602886259555816650390625" lon="0.78509557060897350311279296875">
        <ele>1126.800048828125</ele>
        <time>2020-08-14T11:51:33.000Z</time>
      </trkpt>
      <trkpt lat="42.42106751538813114166259765625" lon="0.78532598912715911865234375">
        <ele>1126.800048828125</ele>
        <time>2020-08-14T11:51:40.000Z</time>
      </trkpt>
      <trkpt lat="42.42115016095340251922607421875" lon="0.78546068631112575531005859375">
        <ele>1126.4000244140625</ele>
        <time>2020-08-14T11:51:45.000Z</time>
      </trkpt>
      <trkpt lat="42.42125359363853931427001953125" lon="0.7854366302490234375">
        <ele>1127</ele>
        <time>2020-08-14T11:51:49.000Z</time>
      </trkpt>
      <trkpt lat="42.42135970853269100189208984375" lon="0.78531350009143352508544921875">
        <ele>1127.4000244140625</ele>
        <time>2020-08-14T11:51:55.000Z</time>
      </trkpt>
      <trkpt lat="42.42137982510030269622802734375" lon="0.78526840545237064361572265625">
        <ele>1127.4000244140625</ele>
        <time>2020-08-14T11:51:57.000Z</time>
      </trkpt>
      <trkpt lat="42.421401031315326690673828125" lon="0.78521811403334140777587890625">
        <ele>1127.5999755859375</ele>
        <time>2020-08-14T11:51:59.000Z</time>
      </trkpt>
      <trkpt lat="42.421436570584774017333984375" lon="0.78515298664569854736328125">
        <ele>1128.4000244140625</ele>
        <time>2020-08-14T11:52:02.000Z</time>
      </trkpt>
      <trkpt lat="42.42144637741148471832275390625" lon="0.7851316966116428375244140625">
        <ele>1128.5999755859375</ele>
        <time>2020-08-14T11:52:03.000Z</time>
      </trkpt>
      <trkpt lat="42.42147185839712619781494140625" lon="0.7850378192961215972900390625">
        <ele>1129.4000244140625</ele>
        <time>2020-08-14T11:52:07.000Z</time>
      </trkpt>
      <trkpt lat="42.4214823357760906219482421875" lon="0.78498442657291889190673828125">
        <ele>1129.800048828125</ele>
        <time>2020-08-14T11:52:09.000Z</time>
      </trkpt>
      <trkpt lat="42.4214746244251728057861328125" lon="0.7848483882844448089599609375">
        <ele>1130.5999755859375</ele>
        <time>2020-08-14T11:52:14.000Z</time>
      </trkpt>
      <trkpt lat="42.42146532051265239715576171875" lon="0.78482014127075672149658203125">
        <ele>1130.5999755859375</ele>
        <time>2020-08-14T11:52:15.000Z</time>
      </trkpt>
      <trkpt lat="42.42144051007926464080810546875" lon="0.78467580489814281463623046875">
        <ele>1131.5999755859375</ele>
        <time>2020-08-14T11:52:21.000Z</time>
      </trkpt>
      <trkpt lat="42.42142994888126850128173828125" lon="0.78461252152919769287109375">
        <ele>1132.5999755859375</ele>
        <time>2020-08-14T11:52:24.000Z</time>
      </trkpt>
      <trkpt lat="42.4214286915957927703857421875" lon="0.7845912314951419830322265625">
        <ele>1132.800048828125</ele>
        <time>2020-08-14T11:52:25.000Z</time>
      </trkpt>
      <trkpt lat="42.42140698246657848358154296875" lon="0.7844410277903079986572265625">
        <ele>1133.800048828125</ele>
        <time>2020-08-14T11:52:32.000Z</time>
      </trkpt>
      <trkpt lat="42.421403713524341583251953125" lon="0.7843505032360553741455078125">
        <ele>1135.199951171875</ele>
        <time>2020-08-14T11:52:36.000Z</time>
      </trkpt>
      <trkpt lat="42.4214141070842742919921875" lon="0.784268192946910858154296875">
        <ele>1135.800048828125</ele>
        <time>2020-08-14T11:52:40.000Z</time>
      </trkpt>
      <trkpt lat="42.42142190225422382354736328125" lon="0.78423592261970043182373046875">
        <ele>1136.199951171875</ele>
        <time>2020-08-14T11:52:42.000Z</time>
      </trkpt>
      <trkpt lat="42.421425841748714447021484375" lon="0.78422267921268939971923828125">
        <ele>1136.800048828125</ele>
        <time>2020-08-14T11:52:46.000Z</time>
      </trkpt>
      <trkpt lat="42.42142575792968273162841796875" lon="0.784219242632389068603515625">
        <ele>1136.199951171875</ele>
        <time>2020-08-14T11:53:02.000Z</time>
      </trkpt>
      <trkpt lat="42.4214260093867778778076171875" lon="0.78421890735626220703125">
        <ele>1136.4000244140625</ele>
        <time>2020-08-14T11:53:17.000Z</time>
      </trkpt>
      <trkpt lat="42.421425841748714447021484375" lon="0.7842187397181987762451171875">
        <ele>1136.5999755859375</ele>
        <time>2020-08-14T11:53:37.000Z</time>
      </trkpt>
      <trkpt lat="42.42144151590764522552490234375" lon="0.78419066034257411956787109375">
        <ele>1136.4000244140625</ele>
        <time>2020-08-14T11:53:53.000Z</time>
      </trkpt>
      <trkpt lat="42.42152583785355091094970703125" lon="0.78406174667179584503173828125">
        <ele>1136</ele>
        <time>2020-08-14T11:53:58.000Z</time>
      </trkpt>
      <trkpt lat="42.42163849063217639923095703125" lon="0.7839354313910007476806640625">
        <ele>1135.4000244140625</ele>
        <time>2020-08-14T11:54:02.000Z</time>
      </trkpt>
      <trkpt lat="42.42166631855070590972900390625" lon="0.783922858536243438720703125">
        <ele>1135.4000244140625</ele>
        <time>2020-08-14T11:54:03.000Z</time>
      </trkpt>
      <trkpt lat="42.42181249894201755523681640625" lon="0.7839381136000156402587890625">
        <ele>1136.199951171875</ele>
        <time>2020-08-14T11:54:09.000Z</time>
      </trkpt>
      <trkpt lat="42.42183244787156581878662109375" lon="0.78393618576228618621826171875">
        <ele>1136.800048828125</ele>
        <time>2020-08-14T11:54:10.000Z</time>
      </trkpt>
      <trkpt lat="42.42191576398909091949462890625" lon="0.78386954963207244873046875">
        <ele>1137.4000244140625</ele>
        <time>2020-08-14T11:54:15.000Z</time>
      </trkpt>
      <trkpt lat="42.4219473637640476226806640625" lon="0.7838050089776515960693359375">
        <ele>1137.800048828125</ele>
        <time>2020-08-14T11:54:18.000Z</time>
      </trkpt>
      <trkpt lat="42.42197846062481403350830078125" lon="0.7837079465389251708984375">
        <ele>1138.199951171875</ele>
        <time>2020-08-14T11:54:22.000Z</time>
      </trkpt>
      <trkpt lat="42.42204082198441028594970703125" lon="0.78358280472457408905029296875">
        <ele>1139</ele>
        <time>2020-08-14T11:54:28.000Z</time>
      </trkpt>
      <trkpt lat="42.42207267321646213531494140625" lon="0.7835602574050426483154296875">
        <ele>1139.4000244140625</ele>
        <time>2020-08-14T11:54:30.000Z</time>
      </trkpt>
      <trkpt lat="42.42209211923182010650634765625" lon="0.78355975449085235595703125">
        <ele>1139.5999755859375</ele>
        <time>2020-08-14T11:54:31.000Z</time>
      </trkpt>
      <trkpt lat="42.4221678078174591064453125" lon="0.7835552282631397247314453125">
        <ele>1139.800048828125</ele>
        <time>2020-08-14T11:54:35.000Z</time>
      </trkpt>
      <trkpt lat="42.42218566127121448516845703125" lon="0.78355363570153713226318359375">
        <ele>1139.800048828125</ele>
        <time>2020-08-14T11:54:36.000Z</time>
      </trkpt>
      <trkpt lat="42.42221969179809093475341796875" lon="0.78354206867516040802001953125">
        <ele>1140.199951171875</ele>
        <time>2020-08-14T11:54:38.000Z</time>
      </trkpt>
      <trkpt lat="42.4222933687269687652587890625" lon="0.78349697403609752655029296875">
        <ele>1141</ele>
        <time>2020-08-14T11:54:43.000Z</time>
      </trkpt>
      <trkpt lat="42.422306947410106658935546875" lon="0.78348255716264247894287109375">
        <ele>1141.199951171875</ele>
        <time>2020-08-14T11:54:44.000Z</time>
      </trkpt>
      <trkpt lat="42.42240845225751399993896484375" lon="0.7833718322217464447021484375">
        <ele>1141.199951171875</ele>
        <time>2020-08-14T11:54:49.000Z</time>
      </trkpt>
      <trkpt lat="42.42248455993831157684326171875" lon="0.7832960598170757293701171875">
        <ele>1139.5999755859375</ele>
        <time>2020-08-14T11:54:52.000Z</time>
      </trkpt>
      <trkpt lat="42.42262319661676883697509765625" lon="0.78316354192793369293212890625">
        <ele>1139.199951171875</ele>
        <time>2020-08-14T11:54:57.000Z</time>
      </trkpt>
      <trkpt lat="42.42267943918704986572265625" lon="0.78312096185982227325439453125">
        <ele>1138.5999755859375</ele>
        <time>2020-08-14T11:54:59.000Z</time>
      </trkpt>
      <trkpt lat="42.4227996356785297393798828125" lon="0.7830687426030635833740234375">
        <ele>1138.4000244140625</ele>
        <time>2020-08-14T11:55:03.000Z</time>
      </trkpt>
      <trkpt lat="42.42295880801975727081298828125" lon="0.7830561697483062744140625">
        <ele>1137.800048828125</ele>
        <time>2020-08-14T11:55:09.000Z</time>
      </trkpt>
      <trkpt lat="42.42300172336399555206298828125" lon="0.783064551651477813720703125">
        <ele>1137.5999755859375</ele>
        <time>2020-08-14T11:55:11.000Z</time>
      </trkpt>
      <trkpt lat="42.42307548411190509796142578125" lon="0.78305105678737163543701171875">
        <ele>1136.800048828125</ele>
        <time>2020-08-14T11:55:14.000Z</time>
      </trkpt>
      <trkpt lat="42.42311303503811359405517578125" lon="0.7829986698925495147705078125">
        <ele>1136.199951171875</ele>
        <time>2020-08-14T11:55:16.000Z</time>
      </trkpt>
      <trkpt lat="42.42312393151223659515380859375" lon="0.78296069987118244171142578125">
        <ele>1135.5999755859375</ele>
        <time>2020-08-14T11:55:17.000Z</time>
      </trkpt>
      <trkpt lat="42.42312795482575893402099609375" lon="0.78292449004948139190673828125">
        <ele>1135.4000244140625</ele>
        <time>2020-08-14T11:55:18.000Z</time>
      </trkpt>
      <trkpt lat="42.42311186157166957855224609375" lon="0.78284452669322490692138671875">
        <ele>1135.5999755859375</ele>
        <time>2020-08-14T11:55:21.000Z</time>
      </trkpt>
      <trkpt lat="42.4230879731476306915283203125" lon="0.78280261717736721038818359375">
        <ele>1136</ele>
        <time>2020-08-14T11:55:23.000Z</time>
      </trkpt>
      <trkpt lat="42.42300373502075672149658203125" lon="0.7827557623386383056640625">
        <ele>1137</ele>
        <time>2020-08-14T11:55:28.000Z</time>
      </trkpt>
      <trkpt lat="42.42283903062343597412109375" lon="0.7826617173850536346435546875">
        <ele>1136.5999755859375</ele>
        <time>2020-08-14T11:55:35.000Z</time>
      </trkpt>
      <trkpt lat="42.4227034114301204681396484375" lon="0.7826107554137706756591796875">
        <ele>1136.5999755859375</ele>
        <time>2020-08-14T11:55:40.000Z</time>
      </trkpt>
      <trkpt lat="42.42253753356635570526123046875" lon="0.78253271989524364471435546875">
        <ele>1137.199951171875</ele>
        <time>2020-08-14T11:55:46.000Z</time>
      </trkpt>
      <trkpt lat="42.42238934151828289031982421875" lon="0.782491229474544525146484375">
        <ele>1137</ele>
        <time>2020-08-14T11:55:52.000Z</time>
      </trkpt>
      <trkpt lat="42.4223463423550128936767578125" lon="0.78248687088489532470703125">
        <ele>1137.4000244140625</ele>
        <time>2020-08-14T11:55:54.000Z</time>
      </trkpt>
      <trkpt lat="42.42228448390960693359375" lon="0.782479159533977508544921875">
        <ele>1138.5999755859375</ele>
        <time>2020-08-14T11:55:57.000Z</time>
      </trkpt>
      <trkpt lat="42.4222293309867382049560546875" lon="0.78247547149658203125">
        <ele>1138.800048828125</ele>
        <time>2020-08-14T11:56:00.000Z</time>
      </trkpt>
      <trkpt lat="42.42210133932530879974365234375" lon="0.782502628862857818603515625">
        <ele>1139.5999755859375</ele>
        <time>2020-08-14T11:56:07.000Z</time>
      </trkpt>
      <trkpt lat="42.42208222858607769012451171875" lon="0.7825141958892345428466796875">
        <ele>1139.800048828125</ele>
        <time>2020-08-14T11:56:08.000Z</time>
      </trkpt>
      <trkpt lat="42.42194627411663532257080078125" lon="0.78253448009490966796875">
        <ele>1139.800048828125</ele>
        <time>2020-08-14T11:56:15.000Z</time>
      </trkpt>
      <trkpt lat="42.42186580784618854522705078125" lon="0.78236742876470088958740234375">
        <ele>1139.800048828125</ele>
        <time>2020-08-14T11:56:21.000Z</time>
      </trkpt>
      <trkpt lat="42.4218166060745716094970703125" lon="0.7821561209857463836669921875">
        <ele>1139.4000244140625</ele>
        <time>2020-08-14T11:56:28.000Z</time>
      </trkpt>
      <trkpt lat="42.42178467102348804473876953125" lon="0.78199259005486965179443359375">
        <ele>1140</ele>
        <time>2020-08-14T11:56:36.000Z</time>
      </trkpt>
      <trkpt lat="42.42175835184752941131591796875" lon="0.7818144746124744415283203125">
        <ele>1140.5999755859375</ele>
        <time>2020-08-14T11:56:43.000Z</time>
      </trkpt>
      <trkpt lat="42.4217384867370128631591796875" lon="0.78170207329094409942626953125">
        <ele>1141.800048828125</ele>
        <time>2020-08-14T11:56:48.000Z</time>
      </trkpt>
      <trkpt lat="42.42173387669026851654052734375" lon="0.78165563754737377166748046875">
        <ele>1142</ele>
        <time>2020-08-14T11:56:50.000Z</time>
      </trkpt>
      <trkpt lat="42.42171116173267364501953125" lon="0.781480036675930023193359375">
        <ele>1142.800048828125</ele>
        <time>2020-08-14T11:56:57.000Z</time>
      </trkpt>
      <trkpt lat="42.4217036180198192596435546875" lon="0.78139923512935638427734375">
        <ele>1143</ele>
        <time>2020-08-14T11:57:00.000Z</time>
      </trkpt>
      <trkpt lat="42.4216915480792522430419921875" lon="0.781178958714008331298828125">
        <ele>1143.199951171875</ele>
        <time>2020-08-14T11:57:08.000Z</time>
      </trkpt>
      <trkpt lat="42.42168626748025417327880859375" lon="0.781095139682292938232421875">
        <ele>1143.800048828125</ele>
        <time>2020-08-14T11:57:11.000Z</time>
      </trkpt>
      <trkpt lat="42.42168056778609752655029296875" lon="0.78103940002620220184326171875">
        <ele>1144.199951171875</ele>
        <time>2020-08-14T11:57:13.000Z</time>
      </trkpt>
      <trkpt lat="42.42166464217007160186767578125" lon="0.78091803006827831268310546875">
        <ele>1144.199951171875</ele>
        <time>2020-08-14T11:57:17.000Z</time>
      </trkpt>
      <trkpt lat="42.4215973354876041412353515625" lon="0.780633129179477691650390625">
        <ele>1143</ele>
        <time>2020-08-14T11:57:24.000Z</time>
      </trkpt>
      <trkpt lat="42.42158434353768825531005859375" lon="0.780586190521717071533203125">
        <ele>1142.5999755859375</ele>
        <time>2020-08-14T11:57:25.000Z</time>
      </trkpt>
      <trkpt lat="42.42152214981615543365478515625" lon="0.78034504316747188568115234375">
        <ele>1141.5999755859375</ele>
        <time>2020-08-14T11:57:30.000Z</time>
      </trkpt>
      <trkpt lat="42.4214930646121501922607421875" lon="0.78024596907198429107666015625">
        <ele>1140.800048828125</ele>
        <time>2020-08-14T11:57:32.000Z</time>
      </trkpt>
      <trkpt lat="42.42146951146423816680908203125" lon="0.78015175648033618927001953125">
        <ele>1140.4000244140625</ele>
        <time>2020-08-14T11:57:34.000Z</time>
      </trkpt>
      <trkpt lat="42.421441264450550079345703125" lon="0.78000314533710479736328125">
        <ele>1139</ele>
        <time>2020-08-14T11:57:37.000Z</time>
      </trkpt>
      <trkpt lat="42.4214457906782627105712890625" lon="0.779896862804889678955078125">
        <ele>1137.5999755859375</ele>
        <time>2020-08-14T11:57:39.000Z</time>
      </trkpt>
      <trkpt lat="42.42151737213134765625" lon="0.7796821184456348419189453125">
        <ele>1136.800048828125</ele>
        <time>2020-08-14T11:57:43.000Z</time>
      </trkpt>
      <trkpt lat="42.42153807543218135833740234375" lon="0.779637359082698822021484375">
        <ele>1137</ele>
        <time>2020-08-14T11:57:44.000Z</time>
      </trkpt>
      <trkpt lat="42.42157797329127788543701171875" lon="0.779563598334789276123046875">
        <ele>1136.5999755859375</ele>
        <time>2020-08-14T11:57:46.000Z</time>
      </trkpt>
      <trkpt lat="42.42162658832967281341552734375" lon="0.77945589087903499603271484375">
        <ele>1135.800048828125</ele>
        <time>2020-08-14T11:57:49.000Z</time>
      </trkpt>
      <trkpt lat="42.42163471877574920654296875" lon="0.77929277904331684112548828125">
        <ele>1134.800048828125</ele>
        <time>2020-08-14T11:57:54.000Z</time>
      </trkpt>
      <trkpt lat="42.4216432683169841766357421875" lon="0.77923226170241832733154296875">
        <ele>1134.800048828125</ele>
        <time>2020-08-14T11:57:56.000Z</time>
      </trkpt>
      <trkpt lat="42.4216630496084690093994140625" lon="0.779122374951839447021484375">
        <ele>1134.199951171875</ele>
        <time>2020-08-14T11:57:59.000Z</time>
      </trkpt>
      <trkpt lat="42.42171811871230602264404296875" lon="0.778821967542171478271484375">
        <ele>1133.4000244140625</ele>
        <time>2020-08-14T11:58:06.000Z</time>
      </trkpt>
      <trkpt lat="42.42172650061547756195068359375" lon="0.7786491326987743377685546875">
        <ele>1132.199951171875</ele>
        <time>2020-08-14T11:58:10.000Z</time>
      </trkpt>
      <trkpt lat="42.421724908053874969482421875" lon="0.77860898338258266448974609375">
        <ele>1132</ele>
        <time>2020-08-14T11:58:11.000Z</time>
      </trkpt>
      <trkpt lat="42.4217156879603862762451171875" lon="0.7783943228423595428466796875">
        <ele>1132.4000244140625</ele>
        <time>2020-08-14T11:58:17.000Z</time>
      </trkpt>
      <trkpt lat="42.42169649340212345123291015625" lon="0.77820547856390476226806640625">
        <ele>1132.800048828125</ele>
        <time>2020-08-14T11:58:22.000Z</time>
      </trkpt>
      <trkpt lat="42.42164670489728450775146484375" lon="0.77801789157092571258544921875">
        <ele>1133.4000244140625</ele>
        <time>2020-08-14T11:58:28.000Z</time>
      </trkpt>
      <trkpt lat="42.421574704349040985107421875" lon="0.7778659276664257049560546875">
        <ele>1133.5999755859375</ele>
        <time>2020-08-14T11:58:33.000Z</time>
      </trkpt>
      <trkpt lat="42.42155618034303188323974609375" lon="0.77781370840966701507568359375">
        <ele>1133.800048828125</ele>
        <time>2020-08-14T11:58:35.000Z</time>
      </trkpt>
      <trkpt lat="42.421537823975086212158203125" lon="0.77774472534656524658203125">
        <ele>1134.199951171875</ele>
        <time>2020-08-14T11:58:38.000Z</time>
      </trkpt>
      <trkpt lat="42.421533130109310150146484375" lon="0.77772284857928752899169921875">
        <ele>1134.5999755859375</ele>
        <time>2020-08-14T11:58:39.000Z</time>
      </trkpt>
      <trkpt lat="42.4215131811797618865966796875" lon="0.777574069797992706298828125">
        <ele>1135.4000244140625</ele>
        <time>2020-08-14T11:58:44.000Z</time>
      </trkpt>
      <trkpt lat="42.421513684093952178955078125" lon="0.7775138877332210540771484375">
        <ele>1135.800048828125</ele>
        <time>2020-08-14T11:58:46.000Z</time>
      </trkpt>
      <trkpt lat="42.4215366505086421966552734375" lon="0.77738321386277675628662109375">
        <ele>1136.5999755859375</ele>
        <time>2020-08-14T11:58:51.000Z</time>
      </trkpt>
      <trkpt lat="42.421552576124668121337890625" lon="0.7773348502814769744873046875">
        <ele>1137</ele>
        <time>2020-08-14T11:58:53.000Z</time>
      </trkpt>
      <trkpt lat="42.42161150090396404266357421875" lon="0.77723032794892787933349609375">
        <ele>1137.800048828125</ele>
        <time>2020-08-14T11:58:58.000Z</time>
      </trkpt>
      <trkpt lat="42.4216234870254993438720703125" lon="0.77721037901937961578369140625">
        <ele>1138.199951171875</ele>
        <time>2020-08-14T11:58:59.000Z</time>
      </trkpt>
      <trkpt lat="42.42167972959578037261962890625" lon="0.777076520025730133056640625">
        <ele>1139.199951171875</ele>
        <time>2020-08-14T11:59:05.000Z</time>
      </trkpt>
      <trkpt lat="42.42168945260345935821533203125" lon="0.77705330215394496917724609375">
        <ele>1139.4000244140625</ele>
        <time>2020-08-14T11:59:06.000Z</time>
      </trkpt>
      <trkpt lat="42.42173035629093647003173828125" lon="0.7769231311976909637451171875">
        <ele>1140.5999755859375</ele>
        <time>2020-08-14T11:59:11.000Z</time>
      </trkpt>
      <trkpt lat="42.42173907347023487091064453125" lon="0.7769010029733180999755859375">
        <ele>1140.800048828125</ele>
        <time>2020-08-14T11:59:12.000Z</time>
      </trkpt>
      <trkpt lat="42.4217676557600498199462890625" lon="0.77683839015662670135498046875">
        <ele>1141.800048828125</ele>
        <time>2020-08-14T11:59:15.000Z</time>
      </trkpt>
      <trkpt lat="42.4218233115971088409423828125" lon="0.7767420820891857147216796875">
        <ele>1142.800048828125</ele>
        <time>2020-08-14T11:59:20.000Z</time>
      </trkpt>
      <trkpt lat="42.42184795439243316650390625" lon="0.77670679427683353424072265625">
        <ele>1143.5999755859375</ele>
        <time>2020-08-14T11:59:22.000Z</time>
      </trkpt>
      <trkpt lat="42.42186094634234905242919921875" lon="0.77669019810855388641357421875">
        <ele>1144</ele>
        <time>2020-08-14T11:59:23.000Z</time>
      </trkpt>
      <trkpt lat="42.4219590984284877777099609375" lon="0.77659313566982746124267578125">
        <ele>1144.800048828125</ele>
        <time>2020-08-14T11:59:30.000Z</time>
      </trkpt>
      <trkpt lat="42.42198751308023929595947265625" lon="0.77657528221607208251953125">
        <ele>1145.199951171875</ele>
        <time>2020-08-14T11:59:32.000Z</time>
      </trkpt>
      <trkpt lat="42.42204082198441028594970703125" lon="0.776545442640781402587890625">
        <ele>1146.199951171875</ele>
        <time>2020-08-14T11:59:36.000Z</time>
      </trkpt>
      <trkpt lat="42.4220680631697177886962890625" lon="0.7765298523008823394775390625">
        <ele>1146.800048828125</ele>
        <time>2020-08-14T11:59:38.000Z</time>
      </trkpt>
      <trkpt lat="42.42210754193365573883056640625" lon="0.7765060476958751678466796875">
        <ele>1147.4000244140625</ele>
        <time>2020-08-14T11:59:41.000Z</time>
      </trkpt>
      <trkpt lat="42.42215883918106555938720703125" lon="0.77650018036365509033203125">
        <ele>1147.4000244140625</ele>
        <time>2020-08-14T11:59:44.000Z</time>
      </trkpt>
      <trkpt lat="42.422174848616123199462890625" lon="0.77649003826081752777099609375">
        <ele>1147.5999755859375</ele>
        <time>2020-08-14T11:59:45.000Z</time>
      </trkpt>
      <trkpt lat="42.42222237400710582733154296875" lon="0.77646204270422458648681640625">
        <ele>1148</ele>
        <time>2020-08-14T11:59:48.000Z</time>
      </trkpt>
      <trkpt lat="42.42226445116102695465087890625" lon="0.77642801217734813690185546875">
        <ele>1148.5999755859375</ele>
        <time>2020-08-14T11:59:51.000Z</time>
      </trkpt>
      <trkpt lat="42.42228792048990726470947265625" lon="0.7764027826488018035888671875">
        <ele>1149.199951171875</ele>
        <time>2020-08-14T11:59:53.000Z</time>
      </trkpt>
      <trkpt lat="42.42229931987822055816650390625" lon="0.7763917185366153717041015625">
        <ele>1149.5999755859375</ele>
        <time>2020-08-14T11:59:54.000Z</time>
      </trkpt>
      <trkpt lat="42.4223684705793857574462890625" lon="0.77632877044379711151123046875">
        <ele>1150.199951171875</ele>
        <time>2020-08-14T12:00:00.000Z</time>
      </trkpt>
      <trkpt lat="42.422391436994075775146484375" lon="0.7763095758855342864990234375">
        <ele>1150.5999755859375</ele>
        <time>2020-08-14T12:00:02.000Z</time>
      </trkpt>
      <trkpt lat="42.4224563129246234893798828125" lon="0.776261799037456512451171875">
        <ele>1151.4000244140625</ele>
        <time>2020-08-14T12:00:07.000Z</time>
      </trkpt>
      <trkpt lat="42.42248673923313617706298828125" lon="0.77626205049455165863037109375">
        <ele>1151.800048828125</ele>
        <time>2020-08-14T12:00:09.000Z</time>
      </trkpt>
      <trkpt lat="42.42254172451794147491455078125" lon="0.7763105817139148712158203125">
        <ele>1152.5999755859375</ele>
        <time>2020-08-14T12:00:13.000Z</time>
      </trkpt>
      <trkpt lat="42.4225538782775402069091796875" lon="0.77637386508285999298095703125">
        <ele>1153</ele>
        <time>2020-08-14T12:00:16.000Z</time>
      </trkpt>
      <trkpt lat="42.4225448258221149444580078125" lon="0.776412673294544219970703125">
        <ele>1153.4000244140625</ele>
        <time>2020-08-14T12:00:18.000Z</time>
      </trkpt>
      <trkpt lat="42.42252479307353496551513671875" lon="0.77644729055464267730712890625">
        <ele>1154.199951171875</ele>
        <time>2020-08-14T12:00:20.000Z</time>
      </trkpt>
      <trkpt lat="42.4224888347089290618896484375" lon="0.7764847576618194580078125">
        <ele>1154.5999755859375</ele>
        <time>2020-08-14T12:00:23.000Z</time>
      </trkpt>
      <trkpt lat="42.422470562160015106201171875" lon="0.776488445699214935302734375">
        <ele>1154.800048828125</ele>
        <time>2020-08-14T12:00:24.000Z</time>
      </trkpt>
      <trkpt lat="42.422428987920284271240234375" lon="0.77652256004512310028076171875">
        <ele>1155.4000244140625</ele>
        <time>2020-08-14T12:00:27.000Z</time>
      </trkpt>
      <trkpt lat="42.422419600188732147216796875" lon="0.776540748775005340576171875">
        <ele>1155.800048828125</ele>
        <time>2020-08-14T12:00:28.000Z</time>
      </trkpt>
      <trkpt lat="42.422410212457180023193359375" lon="0.7765580154955387115478515625">
        <ele>1156</ele>
        <time>2020-08-14T12:00:29.000Z</time>
      </trkpt>
      <trkpt lat="42.4223808757960796356201171875" lon="0.7766130007803440093994140625">
        <ele>1156.5999755859375</ele>
        <time>2020-08-14T12:00:32.000Z</time>
      </trkpt>
      <trkpt lat="42.42234282195568084716796875" lon="0.7767162658274173736572265625">
        <ele>1157.4000244140625</ele>
        <time>2020-08-14T12:00:37.000Z</time>
      </trkpt>
      <trkpt lat="42.42232932709157466888427734375" lon="0.77678323723375797271728515625">
        <ele>1157.5999755859375</ele>
        <time>2020-08-14T12:00:40.000Z</time>
      </trkpt>
      <trkpt lat="42.4223312549293041229248046875" lon="0.776874013245105743408203125">
        <ele>1158.5999755859375</ele>
        <time>2020-08-14T12:00:44.000Z</time>
      </trkpt>
      <trkpt lat="42.422333769500255584716796875" lon="0.77692422084510326385498046875">
        <ele>1158.800048828125</ele>
        <time>2020-08-14T12:00:46.000Z</time>
      </trkpt>
      <trkpt lat="42.4223429895937442779541015625" lon="0.77699462883174419403076171875">
        <ele>1159.800048828125</ele>
        <time>2020-08-14T12:00:49.000Z</time>
      </trkpt>
      <trkpt lat="42.42234592325985431671142578125" lon="0.777027569711208343505859375">
        <ele>1160.4000244140625</ele>
        <time>2020-08-14T12:00:51.000Z</time>
      </trkpt>
      <trkpt lat="42.42237366735935211181640625" lon="0.77712220139801502227783203125">
        <ele>1160.800048828125</ele>
        <time>2020-08-14T12:00:56.000Z</time>
      </trkpt>
      <trkpt lat="42.422402836382389068603515625" lon="0.7771648652851581573486328125">
        <ele>1161.5999755859375</ele>
        <time>2020-08-14T12:00:59.000Z</time>
      </trkpt>
      <trkpt lat="42.42245279252529144287109375" lon="0.7771702297031879425048828125">
        <ele>1162</ele>
        <time>2020-08-14T12:01:02.000Z</time>
      </trkpt>
      <trkpt lat="42.42248120717704296112060546875" lon="0.7771579921245574951171875">
        <ele>1162</ele>
        <time>2020-08-14T12:01:04.000Z</time>
      </trkpt>
      <trkpt lat="42.4224923551082611083984375" lon="0.77714416198432445526123046875">
        <ele>1162.199951171875</ele>
        <time>2020-08-14T12:01:05.000Z</time>
      </trkpt>
      <trkpt lat="42.42254189215600490570068359375" lon="0.7771102152764797210693359375">
        <ele>1163</ele>
        <time>2020-08-14T12:01:09.000Z</time>
      </trkpt>
      <trkpt lat="42.422567121684551239013671875" lon="0.77709420584142208099365234375">
        <ele>1163.800048828125</ele>
        <time>2020-08-14T12:01:11.000Z</time>
      </trkpt>
      <trkpt lat="42.4226065166294574737548828125" lon="0.7770689763128757476806640625">
        <ele>1164.199951171875</ele>
        <time>2020-08-14T12:01:14.000Z</time>
      </trkpt>
      <trkpt lat="42.422694861888885498046875" lon="0.777030922472476959228515625">
        <ele>1165.199951171875</ele>
        <time>2020-08-14T12:01:20.000Z</time>
      </trkpt>
      <trkpt lat="42.42270936258137226104736328125" lon="0.77702396549284458160400390625">
        <ele>1165.5999755859375</ele>
        <time>2020-08-14T12:01:21.000Z</time>
      </trkpt>
      <trkpt lat="42.4227912537753582000732421875" lon="0.77698457054793834686279296875">
        <ele>1166.5999755859375</ele>
        <time>2020-08-14T12:01:27.000Z</time>
      </trkpt>
      <trkpt lat="42.422844059765338897705078125" lon="0.7769476063549518585205078125">
        <ele>1167.4000244140625</ele>
        <time>2020-08-14T12:01:31.000Z</time>
      </trkpt>
      <trkpt lat="42.42285646498203277587890625" lon="0.7769352011382579803466796875">
        <ele>1167.800048828125</ele>
        <time>2020-08-14T12:01:32.000Z</time>
      </trkpt>
      <trkpt lat="42.4229585565626621246337890625" lon="0.7768832333385944366455078125">
        <ele>1168.800048828125</ele>
        <time>2020-08-14T12:01:39.000Z</time>
      </trkpt>
      <trkpt lat="42.42310230620205402374267578125" lon="0.77685113064944744110107421875">
        <ele>1168.4000244140625</ele>
        <time>2020-08-14T12:01:45.000Z</time>
      </trkpt>
      <trkpt lat="42.4231929145753383636474609375" lon="0.77685263939201831817626953125">
        <ele>1167.4000244140625</ele>
        <time>2020-08-14T12:01:48.000Z</time>
      </trkpt>
      <trkpt lat="42.4232569523155689239501953125" lon="0.7768600992858409881591796875">
        <ele>1166.5999755859375</ele>
        <time>2020-08-14T12:01:51.000Z</time>
      </trkpt>
      <trkpt lat="42.4232639931142330169677734375" lon="0.77686093747615814208984375">
        <ele>1166.4000244140625</ele>
        <time>2020-08-14T12:01:52.000Z</time>
      </trkpt>
      <trkpt lat="42.4232767336070537567138671875" lon="0.7768540643155574798583984375">
        <ele>1166.199951171875</ele>
        <time>2020-08-14T12:01:56.000Z</time>
      </trkpt>
      <trkpt lat="42.42328268475830554962158203125" lon="0.77685046009719371795654296875">
        <ele>1166.199951171875</ele>
        <time>2020-08-14T12:01:57.000Z</time>
      </trkpt>
      <trkpt lat="42.423338256776332855224609375" lon="0.7768651284277439117431640625">
        <ele>1166.199951171875</ele>
        <time>2020-08-14T12:02:03.000Z</time>
      </trkpt>
      <trkpt lat="42.42343246936798095703125" lon="0.77685892581939697265625">
        <ele>1166.4000244140625</ele>
        <time>2020-08-14T12:02:11.000Z</time>
      </trkpt>
      <trkpt lat="42.4234852753579616546630859375" lon="0.77684476040303707122802734375">
        <ele>1166.4000244140625</ele>
        <time>2020-08-14T12:02:18.000Z</time>
      </trkpt>
      <trkpt lat="42.42352408356964588165283203125" lon="0.776812992990016937255859375">
        <ele>1166.5999755859375</ele>
        <time>2020-08-14T12:02:23.000Z</time>
      </trkpt>
      <trkpt lat="42.4236418493092060089111328125" lon="0.7766455225646495819091796875">
        <ele>1167.199951171875</ele>
        <time>2020-08-14T12:02:33.000Z</time>
      </trkpt>
      <trkpt lat="42.4236537516117095947265625" lon="0.77662934549152851104736328125">
        <ele>1167.4000244140625</ele>
        <time>2020-08-14T12:02:34.000Z</time>
      </trkpt>
      <trkpt lat="42.42375307716429233551025390625" lon="0.77650294639170169830322265625">
        <ele>1168</ele>
        <time>2020-08-14T12:02:42.000Z</time>
      </trkpt>
      <trkpt lat="42.4238604493439197540283203125" lon="0.776384174823760986328125">
        <ele>1168.199951171875</ele>
        <time>2020-08-14T12:02:50.000Z</time>
      </trkpt>
      <trkpt lat="42.42387427948415279388427734375" lon="0.7763679139316082000732421875">
        <ele>1168.5999755859375</ele>
        <time>2020-08-14T12:02:51.000Z</time>
      </trkpt>
      <trkpt lat="42.42398844100534915924072265625" lon="0.77625953592360019683837890625">
        <ele>1169.5999755859375</ele>
        <time>2020-08-14T12:02:59.000Z</time>
      </trkpt>
      <trkpt lat="42.42400201968848705291748046875" lon="0.776250064373016357421875">
        <ele>1169.5999755859375</ele>
        <time>2020-08-14T12:03:00.000Z</time>
      </trkpt>
      <trkpt lat="42.42406035773456096649169921875" lon="0.776249058544635772705078125">
        <ele>1170.199951171875</ele>
        <time>2020-08-14T12:03:05.000Z</time>
      </trkpt>
      <trkpt lat="42.42409564554691314697265625" lon="0.77625132165849208831787109375">
        <ele>1170</ele>
        <time>2020-08-14T12:03:11.000Z</time>
      </trkpt>
      <trkpt lat="42.42409656755626201629638671875" lon="0.7762431912124156951904296875">
        <ele>1170.4000244140625</ele>
        <time>2020-08-14T12:03:22.000Z</time>
      </trkpt>
      <trkpt lat="42.42410075850784778594970703125" lon="0.7762381620705127716064453125">
        <ele>1170.199951171875</ele>
        <time>2020-08-14T12:03:30.000Z</time>
      </trkpt>
      <trkpt lat="42.42410226725041866302490234375" lon="0.7762395031750202178955078125">
        <ele>1169.800048828125</ele>
        <time>2020-08-14T12:03:45.000Z</time>
      </trkpt>
      <trkpt lat="42.42410209961235523223876953125" lon="0.776239000260829925537109375">
        <ele>1170</ele>
        <time>2020-08-14T12:03:57.000Z</time>
      </trkpt>
      <trkpt lat="42.42410277016460895538330078125" lon="0.77623824588954448699951171875">
        <ele>1170.199951171875</ele>
        <time>2020-08-14T12:04:11.000Z</time>
      </trkpt>
      <trkpt lat="42.42410243488848209381103515625" lon="0.77623774297535419464111328125">
        <ele>1170</ele>
        <time>2020-08-14T12:04:43.000Z</time>
      </trkpt>
      <trkpt lat="42.42410629056394100189208984375" lon="0.776235647499561309814453125">
        <ele>1170.199951171875</ele>
        <time>2020-08-14T12:04:59.000Z</time>
      </trkpt>
      <trkpt lat="42.42409807629883289337158203125" lon="0.77622785232961177825927734375">
        <ele>1170</ele>
        <time>2020-08-14T12:05:12.000Z</time>
      </trkpt>
      <trkpt lat="42.4240964837372303009033203125" lon="0.77621930278837680816650390625">
        <ele>1170</ele>
        <time>2020-08-14T12:05:27.000Z</time>
      </trkpt>
      <trkpt lat="42.4240936338901519775390625" lon="0.7762210629880428314208984375">
        <ele>1170.199951171875</ele>
        <time>2020-08-14T12:05:38.000Z</time>
      </trkpt>
      <trkpt lat="42.42409103550016880035400390625" lon="0.776217542588710784912109375">
        <ele>1169.800048828125</ele>
        <time>2020-08-14T12:05:49.000Z</time>
      </trkpt>
      <trkpt lat="42.42408667691051959991455078125" lon="0.7762200571596622467041015625">
        <ele>1169.800048828125</ele>
        <time>2020-08-14T12:06:01.000Z</time>
      </trkpt>
      <trkpt lat="42.4240882694721221923828125" lon="0.77621745876967906951904296875">
        <ele>1170.199951171875</ele>
        <time>2020-08-14T12:06:18.000Z</time>
      </trkpt>
      <trkpt lat="42.42408692836761474609375" lon="0.77620446681976318359375">
        <ele>1170</ele>
        <time>2020-08-14T12:06:37.000Z</time>
      </trkpt>
      <trkpt lat="42.42413562722504138946533203125" lon="0.77620622701942920684814453125">
        <ele>1170.4000244140625</ele>
        <time>2020-08-14T12:06:43.000Z</time>
      </trkpt>
      <trkpt lat="42.42416546680033206939697265625" lon="0.77621586620807647705078125">
        <ele>1170.4000244140625</ele>
        <time>2020-08-14T12:06:46.000Z</time>
      </trkpt>
      <trkpt lat="42.42418491281569004058837890625" lon="0.77621494419872760772705078125">
        <ele>1170.800048828125</ele>
        <time>2020-08-14T12:06:48.000Z</time>
      </trkpt>
      <trkpt lat="42.42419664748013019561767578125" lon="0.77621192671358585357666015625">
        <ele>1171</ele>
        <time>2020-08-14T12:06:49.000Z</time>
      </trkpt>
      <trkpt lat="42.42424258030951023101806640625" lon="0.7762089930474758148193359375">
        <ele>1171.199951171875</ele>
        <time>2020-08-14T12:06:53.000Z</time>
      </trkpt>
      <trkpt lat="42.42426621727645397186279296875" lon="0.7762006111443042755126953125">
        <ele>1171.199951171875</ele>
        <time>2020-08-14T12:06:55.000Z</time>
      </trkpt>
      <trkpt lat="42.42429287172853946685791015625" lon="0.77618443407118320465087890625">
        <ele>1171.4000244140625</ele>
        <time>2020-08-14T12:06:57.000Z</time>
      </trkpt>
      <trkpt lat="42.424345426261425018310546875" lon="0.77615375630557537078857421875">
        <ele>1172.199951171875</ele>
        <time>2020-08-14T12:07:01.000Z</time>
      </trkpt>
      <trkpt lat="42.42440552450716495513916015625" lon="0.77610530890524387359619140625">
        <ele>1172.5999755859375</ele>
        <time>2020-08-14T12:07:05.000Z</time>
      </trkpt>
      <trkpt lat="42.42443854920566082000732421875" lon="0.77608820982277393341064453125">
        <ele>1173</ele>
        <time>2020-08-14T12:07:07.000Z</time>
      </trkpt>
      <trkpt lat="42.4245236255228519439697265625" lon="0.77601612545549869537353515625">
        <ele>1173.199951171875</ele>
        <time>2020-08-14T12:07:13.000Z</time>
      </trkpt>
      <trkpt lat="42.42452706210315227508544921875" lon="0.7759954221546649932861328125">
        <ele>1173.199951171875</ele>
        <time>2020-08-14T12:07:14.000Z</time>
      </trkpt>
      <trkpt lat="42.42447241209447383880615234375" lon="0.7759186439216136932373046875">
        <ele>1173.199951171875</ele>
        <time>2020-08-14T12:07:19.000Z</time>
      </trkpt>
      <trkpt lat="42.4244528822600841522216796875" lon="0.77591688372194766998291015625">
        <ele>1173.4000244140625</ele>
        <time>2020-08-14T12:07:20.000Z</time>
      </trkpt>
      <trkpt lat="42.424433268606662750244140625" lon="0.77591604553163051605224609375">
        <ele>1173.5999755859375</ele>
        <time>2020-08-14T12:07:21.000Z</time>
      </trkpt>
      <trkpt lat="42.42438624612987041473388671875" lon="0.77591202221810817718505859375">
        <ele>1174</ele>
        <time>2020-08-14T12:07:24.000Z</time>
      </trkpt>
      <trkpt lat="42.42432363331317901611328125" lon="0.77590967528522014617919921875">
        <ele>1174.4000244140625</ele>
        <time>2020-08-14T12:07:27.000Z</time>
      </trkpt>
      <trkpt lat="42.42429303936660289764404296875" lon="0.77589358203113079071044921875">
        <ele>1175.199951171875</ele>
        <time>2020-08-14T12:07:29.000Z</time>
      </trkpt>
      <trkpt lat="42.4242842383682727813720703125" lon="0.77588017098605632781982421875">
        <ele>1175.4000244140625</ele>
        <time>2020-08-14T12:07:30.000Z</time>
      </trkpt>
      <trkpt lat="42.4242768622934818267822265625" lon="0.77586583793163299560546875">
        <ele>1175.800048828125</ele>
        <time>2020-08-14T12:07:31.000Z</time>
      </trkpt>
      <trkpt lat="42.42426236160099506378173828125" lon="0.77575276605784893035888671875">
        <ele>1176.199951171875</ele>
        <time>2020-08-14T12:07:36.000Z</time>
      </trkpt>
      <trkpt lat="42.4242331087589263916015625" lon="0.77561228536069393157958984375">
        <ele>1175</ele>
        <time>2020-08-14T12:07:42.000Z</time>
      </trkpt>
      <trkpt lat="42.42421324364840984344482421875" lon="0.7755629159510135650634765625">
        <ele>1174.5999755859375</ele>
        <time>2020-08-14T12:07:44.000Z</time>
      </trkpt>
      <trkpt lat="42.42418776266276836395263671875" lon="0.7754827849566936492919921875">
        <ele>1173.4000244140625</ele>
        <time>2020-08-14T12:07:47.000Z</time>
      </trkpt>
      <trkpt lat="42.42416898719966411590576171875" lon="0.77538714744150638580322265625">
        <ele>1172</ele>
        <time>2020-08-14T12:07:50.000Z</time>
      </trkpt>
      <trkpt lat="42.424167729914188385009765625" lon="0.7751676253974437713623046875">
        <ele>1170.800048828125</ele>
        <time>2020-08-14T12:07:55.000Z</time>
      </trkpt>
      <trkpt lat="42.4241836555302143096923828125" lon="0.77506612055003643035888671875">
        <ele>1169.199951171875</ele>
        <time>2020-08-14T12:07:57.000Z</time>
      </trkpt>
      <trkpt lat="42.42420754395425319671630859375" lon="0.77497207559645175933837890625">
        <ele>1168</ele>
        <time>2020-08-14T12:07:59.000Z</time>
      </trkpt>
      <trkpt lat="42.42422095499932765960693359375" lon="0.774929411709308624267578125">
        <ele>1167.800048828125</ele>
        <time>2020-08-14T12:08:00.000Z</time>
      </trkpt>
      <trkpt lat="42.42428348399698734283447265625" lon="0.77466865070164203643798828125">
        <ele>1166.5999755859375</ele>
        <time>2020-08-14T12:08:06.000Z</time>
      </trkpt>
      <trkpt lat="42.42422866635024547576904296875" lon="0.77457862906157970428466796875">
        <ele>1165.5999755859375</ele>
        <time>2020-08-14T12:08:09.000Z</time>
      </trkpt>
      <trkpt lat="42.42420117370784282684326171875" lon="0.77457033097743988037109375">
        <ele>1165.4000244140625</ele>
        <time>2020-08-14T12:08:10.000Z</time>
      </trkpt>
      <trkpt lat="42.42410838603973388671875" lon="0.77460343949496746063232421875">
        <ele>1165.199951171875</ele>
        <time>2020-08-14T12:08:13.000Z</time>
      </trkpt>
      <trkpt lat="42.42404007352888584136962890625" lon="0.7746566645801067352294921875">
        <ele>1165</ele>
        <time>2020-08-14T12:08:15.000Z</time>
      </trkpt>
      <trkpt lat="42.4239680729806423187255859375" lon="0.77471760101616382598876953125">
        <ele>1164.5999755859375</ele>
        <time>2020-08-14T12:08:17.000Z</time>
      </trkpt>
      <trkpt lat="42.42392943240702152252197265625" lon="0.77474375255405902862548828125">
        <ele>1164.4000244140625</ele>
        <time>2020-08-14T12:08:18.000Z</time>
      </trkpt>
      <trkpt lat="42.4238916300237178802490234375" lon="0.774765126407146453857421875">
        <ele>1164.199951171875</ele>
        <time>2020-08-14T12:08:19.000Z</time>
      </trkpt>
      <trkpt lat="42.42382608354091644287109375" lon="0.7747904397547245025634765625">
        <ele>1163.5999755859375</ele>
        <time>2020-08-14T12:08:21.000Z</time>
      </trkpt>
      <trkpt lat="42.42376950569450855255126953125" lon="0.774809382855892181396484375">
        <ele>1163.199951171875</ele>
        <time>2020-08-14T12:08:23.000Z</time>
      </trkpt>
      <trkpt lat="42.42374184541404247283935546875" lon="0.774812735617160797119140625">
        <ele>1163</ele>
        <time>2020-08-14T12:08:24.000Z</time>
      </trkpt>
      <trkpt lat="42.423598766326904296875" lon="0.77473939396440982818603515625">
        <ele>1162.5999755859375</ele>
        <time>2020-08-14T12:08:29.000Z</time>
      </trkpt>
      <trkpt lat="42.42358342744410037994384765625" lon="0.774564631283283233642578125">
        <ele>1162.800048828125</ele>
        <time>2020-08-14T12:08:33.000Z</time>
      </trkpt>
      <trkpt lat="42.42360186763107776641845703125" lon="0.7744625397026538848876953125">
        <ele>1161.5999755859375</ele>
        <time>2020-08-14T12:08:35.000Z</time>
      </trkpt>
      <trkpt lat="42.423644699156284332275390625" lon="0.7742020301520824432373046875">
        <ele>1160.800048828125</ele>
        <time>2020-08-14T12:08:40.000Z</time>
      </trkpt>
      <trkpt lat="42.423640675842761993408203125" lon="0.77416556887328624725341796875">
        <ele>1160.800048828125</ele>
        <time>2020-08-14T12:08:41.000Z</time>
      </trkpt>
      <trkpt lat="42.42360689677298069000244140625" lon="0.7741125114262104034423828125">
        <ele>1160.5999755859375</ele>
        <time>2020-08-14T12:08:43.000Z</time>
      </trkpt>
      <trkpt lat="42.42347982712090015411376953125" lon="0.7739391736686229705810546875">
        <ele>1161.4000244140625</ele>
        <time>2020-08-14T12:08:50.000Z</time>
      </trkpt>
      <trkpt lat="42.4233598820865154266357421875" lon="0.77382392250001430511474609375">
        <ele>1161.5999755859375</ele>
        <time>2020-08-14T12:08:56.000Z</time>
      </trkpt>
      <trkpt lat="42.42322384379804134368896484375" lon="0.77388091944158077239990234375">
        <ele>1161.4000244140625</ele>
        <time>2020-08-14T12:09:00.000Z</time>
      </trkpt>
      <trkpt lat="42.42309945635497570037841796875" lon="0.77387505210936069488525390625">
        <ele>1161.4000244140625</ele>
        <time>2020-08-14T12:09:03.000Z</time>
      </trkpt>
      <trkpt lat="42.4230236001312732696533203125" lon="0.77387069351971149444580078125">
        <ele>1161.4000244140625</ele>
        <time>2020-08-14T12:09:05.000Z</time>
      </trkpt>
      <trkpt lat="42.42292880080640316009521484375" lon="0.77386415563523769378662109375">
        <ele>1161</ele>
        <time>2020-08-14T12:09:08.000Z</time>
      </trkpt>
      <trkpt lat="42.42279150523245334625244140625" lon="0.77375787310302257537841796875">
        <ele>1161</ele>
        <time>2020-08-14T12:09:13.000Z</time>
      </trkpt>
      <trkpt lat="42.42276920937001705169677734375" lon="0.7736045680940151214599609375">
        <ele>1161.4000244140625</ele>
        <time>2020-08-14T12:09:17.000Z</time>
      </trkpt>
      <trkpt lat="42.42276501841843128204345703125" lon="0.77352158725261688232421875">
        <ele>1161.800048828125</ele>
        <time>2020-08-14T12:09:19.000Z</time>
      </trkpt>
      <trkpt lat="42.42274775169789791107177734375" lon="0.773396529257297515869140625">
        <ele>1161.4000244140625</ele>
        <time>2020-08-14T12:09:22.000Z</time>
      </trkpt>
      <trkpt lat="42.42271238006651401519775390625" lon="0.773296616971492767333984375">
        <ele>1160.800048828125</ele>
        <time>2020-08-14T12:09:24.000Z</time>
      </trkpt>
      <trkpt lat="42.42268807254731655120849609375" lon="0.77324825339019298553466796875">
        <ele>1160.4000244140625</ele>
        <time>2020-08-14T12:09:25.000Z</time>
      </trkpt>
      <trkpt lat="42.42263677529990673065185546875" lon="0.773149430751800537109375">
        <ele>1159.800048828125</ele>
        <time>2020-08-14T12:09:27.000Z</time>
      </trkpt>
      <trkpt lat="42.42258950136601924896240234375" lon="0.773055888712406158447265625">
        <ele>1159.4000244140625</ele>
        <time>2020-08-14T12:09:29.000Z</time>
      </trkpt>
      <trkpt lat="42.42252982221543788909912109375" lon="0.772940553724765777587890625">
        <ele>1158</ele>
        <time>2020-08-14T12:09:32.000Z</time>
      </trkpt>
      <trkpt lat="42.422514818608760833740234375" lon="0.77291180379688739776611328125">
        <ele>1157.4000244140625</ele>
        <time>2020-08-14T12:09:33.000Z</time>
      </trkpt>
      <trkpt lat="42.42249545641243457794189453125" lon="0.7728669606149196624755859375">
        <ele>1156.5999755859375</ele>
        <time>2020-08-14T12:09:35.000Z</time>
      </trkpt>
      <trkpt lat="42.4224787764251232147216796875" lon="0.77282060869038105010986328125">
        <ele>1155.800048828125</ele>
        <time>2020-08-14T12:09:38.000Z</time>
      </trkpt>
      <trkpt lat="42.42243242450058460235595703125" lon="0.7727216184139251708984375">
        <ele>1156.199951171875</ele>
        <time>2020-08-14T12:09:44.000Z</time>
      </trkpt>
      <trkpt lat="42.42235581390559673309326171875" lon="0.77255389653146266937255859375">
        <ele>1156.199951171875</ele>
        <time>2020-08-14T12:09:51.000Z</time>
      </trkpt>
      <trkpt lat="42.42224567569792270660400390625" lon="0.77234099619090557098388671875">
        <ele>1157.199951171875</ele>
        <time>2020-08-14T12:10:00.000Z</time>
      </trkpt>
      <trkpt lat="42.422194294631481170654296875" lon="0.77226874418556690216064453125">
        <ele>1157.800048828125</ele>
        <time>2020-08-14T12:10:03.000Z</time>
      </trkpt>
      <trkpt lat="42.42214241065084934234619140625" lon="0.77214318327605724334716796875">
        <ele>1158</ele>
        <time>2020-08-14T12:10:07.000Z</time>
      </trkpt>
      <trkpt lat="42.42208574898540973663330078125" lon="0.7719935663044452667236328125">
        <ele>1159</ele>
        <time>2020-08-14T12:10:12.000Z</time>
      </trkpt>
      <trkpt lat="42.4220647104084491729736328125" lon="0.77195375226438045501708984375">
        <ele>1159.5999755859375</ele>
        <time>2020-08-14T12:10:14.000Z</time>
      </trkpt>
      <trkpt lat="42.4220040254294872283935546875" lon="0.77181796543300151824951171875">
        <ele>1159.800048828125</ele>
        <time>2020-08-14T12:10:20.000Z</time>
      </trkpt>
      <trkpt lat="42.421991117298603057861328125" lon="0.77179692685604095458984375">
        <ele>1160.199951171875</ele>
        <time>2020-08-14T12:10:21.000Z</time>
      </trkpt>
      <trkpt lat="42.42192171514034271240234375" lon="0.77164915390312671661376953125">
        <ele>1160.4000244140625</ele>
        <time>2020-08-14T12:10:27.000Z</time>
      </trkpt>
      <trkpt lat="42.421880476176738739013671875" lon="0.77139794826507568359375">
        <ele>1160</ele>
        <time>2020-08-14T12:10:33.000Z</time>
      </trkpt>
      <trkpt lat="42.4218907020986080169677734375" lon="0.77123500406742095947265625">
        <ele>1159</ele>
        <time>2020-08-14T12:10:36.000Z</time>
      </trkpt>
      <trkpt lat="42.42189849726855754852294921875" lon="0.7711801864206790924072265625">
        <ele>1158.4000244140625</ele>
        <time>2020-08-14T12:10:37.000Z</time>
      </trkpt>
      <trkpt lat="42.4219165183603763580322265625" lon="0.771128050982952117919921875">
        <ele>1157.800048828125</ele>
        <time>2020-08-14T12:10:38.000Z</time>
      </trkpt>
      <trkpt lat="42.42199053056538105010986328125" lon="0.77095798216760158538818359375">
        <ele>1156.5999755859375</ele>
        <time>2020-08-14T12:10:42.000Z</time>
      </trkpt>
      <trkpt lat="42.42198348976671695709228515625" lon="0.77088438905775547027587890625">
        <ele>1156.199951171875</ele>
        <time>2020-08-14T12:10:44.000Z</time>
      </trkpt>
      <trkpt lat="42.42194493301212787628173828125" lon="0.7708425633609294891357421875">
        <ele>1156.199951171875</ele>
        <time>2020-08-14T12:10:46.000Z</time>
      </trkpt>
      <trkpt lat="42.42175701074302196502685546875" lon="0.77074307017028331756591796875">
        <ele>1156.800048828125</ele>
        <time>2020-08-14T12:10:54.000Z</time>
      </trkpt>
      <trkpt lat="42.4216985888779163360595703125" lon="0.77067936770617961883544921875">
        <ele>1157.800048828125</ele>
        <time>2020-08-14T12:10:57.000Z</time>
      </trkpt>
      <trkpt lat="42.4216576851904392242431640625" lon="0.7705954648554325103759765625">
        <ele>1158.4000244140625</ele>
        <time>2020-08-14T12:11:00.000Z</time>
      </trkpt>
      <trkpt lat="42.42164117284119129180908203125" lon="0.77053385786712169647216796875">
        <ele>1158.800048828125</ele>
        <time>2020-08-14T12:11:02.000Z</time>
      </trkpt>
      <trkpt lat="42.421633712947368621826171875" lon="0.7704442553222179412841796875">
        <ele>1160.5999755859375</ele>
        <time>2020-08-14T12:11:05.000Z</time>
      </trkpt>
      <trkpt lat="42.4216352216899394989013671875" lon="0.7703949697315692901611328125">
        <ele>1161.199951171875</ele>
        <time>2020-08-14T12:11:07.000Z</time>
      </trkpt>
      <trkpt lat="42.42164251394569873809814453125" lon="0.770326741039752960205078125">
        <ele>1161.5999755859375</ele>
        <time>2020-08-14T12:11:10.000Z</time>
      </trkpt>
      <trkpt lat="42.4216322042047977447509765625" lon="0.77023026533424854278564453125">
        <ele>1162.199951171875</ele>
        <time>2020-08-14T12:11:14.000Z</time>
      </trkpt>
      <trkpt lat="42.421633712947368621826171875" lon="0.77012750320136547088623046875">
        <ele>1162.800048828125</ele>
        <time>2020-08-14T12:11:18.000Z</time>
      </trkpt>
      <trkpt lat="42.42163731716573238372802734375" lon="0.7700476236641407012939453125">
        <ele>1163.199951171875</ele>
        <time>2020-08-14T12:11:21.000Z</time>
      </trkpt>
      <trkpt lat="42.421633712947368621826171875" lon="0.7698843441903591156005859375">
        <ele>1163.800048828125</ele>
        <time>2020-08-14T12:11:27.000Z</time>
      </trkpt>
      <trkpt lat="42.4216335453093051910400390625" lon="0.7698283530771732330322265625">
        <ele>1164.199951171875</ele>
        <time>2020-08-14T12:11:29.000Z</time>
      </trkpt>
      <trkpt lat="42.42164419032633304595947265625" lon="0.7696516625583171844482421875">
        <ele>1164.800048828125</ele>
        <time>2020-08-14T12:11:35.000Z</time>
      </trkpt>
      <trkpt lat="42.4216449446976184844970703125" lon="0.7696198113262653350830078125">
        <ele>1165</ele>
        <time>2020-08-14T12:11:36.000Z</time>
      </trkpt>
      <trkpt lat="42.42166229523718357086181640625" lon="0.76947790570557117462158203125">
        <ele>1165.5999755859375</ele>
        <time>2020-08-14T12:11:41.000Z</time>
      </trkpt>
      <trkpt lat="42.4216767959296703338623046875" lon="0.76937849633395671844482421875">
        <ele>1166</ele>
        <time>2020-08-14T12:11:45.000Z</time>
      </trkpt>
      <trkpt lat="42.4216798134148120880126953125" lon="0.76931093819439411163330078125">
        <ele>1166.4000244140625</ele>
        <time>2020-08-14T12:11:48.000Z</time>
      </trkpt>
      <trkpt lat="42.4216841720044612884521484375" lon="0.7692644186317920684814453125">
        <ele>1166.800048828125</ele>
        <time>2020-08-14T12:11:50.000Z</time>
      </trkpt>
      <trkpt lat="42.42167520336806774139404296875" lon="0.7691698707640171051025390625">
        <ele>1167.199951171875</ele>
        <time>2020-08-14T12:11:54.000Z</time>
      </trkpt>
      <trkpt lat="42.42165307514369487762451171875" lon="0.7691301405429840087890625">
        <ele>1167.4000244140625</ele>
        <time>2020-08-14T12:11:56.000Z</time>
      </trkpt>
      <trkpt lat="42.42159993387758731842041015625" lon="0.7690562121570110321044921875">
        <ele>1168.199951171875</ele>
        <time>2020-08-14T12:12:00.000Z</time>
      </trkpt>
      <trkpt lat="42.42156498134136199951171875" lon="0.76899326406419277191162109375">
        <ele>1168.800048828125</ele>
        <time>2020-08-14T12:12:03.000Z</time>
      </trkpt>
      <trkpt lat="42.42155693471431732177734375" lon="0.76896996237337589263916015625">
        <ele>1169.4000244140625</ele>
        <time>2020-08-14T12:12:04.000Z</time>
      </trkpt>
      <trkpt lat="42.4215426854789257049560546875" lon="0.768870301544666290283203125">
        <ele>1170.5999755859375</ele>
        <time>2020-08-14T12:12:08.000Z</time>
      </trkpt>
      <trkpt lat="42.421540506184101104736328125" lon="0.76882126741111278533935546875">
        <ele>1171.4000244140625</ele>
        <time>2020-08-14T12:12:10.000Z</time>
      </trkpt>
      <trkpt lat="42.42153958417475223541259765625" lon="0.7687962055206298828125">
        <ele>1171.5999755859375</ele>
        <time>2020-08-14T12:12:11.000Z</time>
      </trkpt>
      <trkpt lat="42.42154360748827457427978515625" lon="0.76866209506988525390625">
        <ele>1173</ele>
        <time>2020-08-14T12:12:17.000Z</time>
      </trkpt>
      <trkpt lat="42.42155215702950954437255859375" lon="0.76862060464918613433837890625">
        <ele>1173.800048828125</ele>
        <time>2020-08-14T12:12:19.000Z</time>
      </trkpt>
      <trkpt lat="42.42156037129461765289306640625" lon="0.76860241591930389404296875">
        <ele>1174.4000244140625</ele>
        <time>2020-08-14T12:12:20.000Z</time>
      </trkpt>
      <trkpt lat="42.42161594331264495849609375" lon="0.7685345225036144256591796875">
        <ele>1175.5999755859375</ele>
        <time>2020-08-14T12:12:25.000Z</time>
      </trkpt>
      <trkpt lat="42.4216288514435291290283203125" lon="0.76852337457239627838134765625">
        <ele>1175.5999755859375</ele>
        <time>2020-08-14T12:12:26.000Z</time>
      </trkpt>
      <trkpt lat="42.4216742813587188720703125" lon="0.76847492717206478118896484375">
        <ele>1176.5999755859375</ele>
        <time>2020-08-14T12:12:30.000Z</time>
      </trkpt>
      <trkpt lat="42.42171384394168853759765625" lon="0.768417678773403167724609375">
        <ele>1177.5999755859375</ele>
        <time>2020-08-14T12:12:34.000Z</time>
      </trkpt>
      <trkpt lat="42.42171878926455974578857421875" lon="0.7683994062244892120361328125">
        <ele>1178</ele>
        <time>2020-08-14T12:12:35.000Z</time>
      </trkpt>
      <trkpt lat="42.421715520322322845458984375" lon="0.76834215782582759857177734375">
        <ele>1178.5999755859375</ele>
        <time>2020-08-14T12:12:38.000Z</time>
      </trkpt>
      <trkpt lat="42.42170018143951892852783203125" lon="0.76830846257507801055908203125">
        <ele>1179</ele>
        <time>2020-08-14T12:12:40.000Z</time>
      </trkpt>
      <trkpt lat="42.42169163189828395843505859375" lon="0.7682921178638935089111328125">
        <ele>1179.199951171875</ele>
        <time>2020-08-14T12:12:41.000Z</time>
      </trkpt>
      <trkpt lat="42.42163279093801975250244140625" lon="0.768224895000457763671875">
        <ele>1180.199951171875</ele>
        <time>2020-08-14T12:12:46.000Z</time>
      </trkpt>
      <trkpt lat="42.42160881869494915008544921875" lon="0.7681989111006259918212890625">
        <ele>1180.5999755859375</ele>
        <time>2020-08-14T12:12:48.000Z</time>
      </trkpt>
      <trkpt lat="42.42156825028359889984130859375" lon="0.76813981868326663970947265625">
        <ele>1181.199951171875</ele>
        <time>2020-08-14T12:12:52.000Z</time>
      </trkpt>
      <trkpt lat="42.4215480498969554901123046875" lon="0.76810880564153194427490234375">
        <ele>1181.5999755859375</ele>
        <time>2020-08-14T12:12:54.000Z</time>
      </trkpt>
      <trkpt lat="42.4215265922248363494873046875" lon="0.76800956390798091888427734375">
        <ele>1182.4000244140625</ele>
        <time>2020-08-14T12:12:59.000Z</time>
      </trkpt>
      <trkpt lat="42.42152919061481952667236328125" lon="0.7679687440395355224609375">
        <ele>1183</ele>
        <time>2020-08-14T12:13:01.000Z</time>
      </trkpt>
      <trkpt lat="42.421539835631847381591796875" lon="0.76793127693235874176025390625">
        <ele>1183.5999755859375</ele>
        <time>2020-08-14T12:13:03.000Z</time>
      </trkpt>
      <trkpt lat="42.4215782247483730316162109375" lon="0.7678368128836154937744140625">
        <ele>1184.800048828125</ele>
        <time>2020-08-14T12:13:08.000Z</time>
      </trkpt>
      <trkpt lat="42.42158400826156139373779296875" lon="0.76781543903052806854248046875">
        <ele>1185.199951171875</ele>
        <time>2020-08-14T12:13:09.000Z</time>
      </trkpt>
      <trkpt lat="42.4215902946889400482177734375" lon="0.767748467624187469482421875">
        <ele>1185.800048828125</ele>
        <time>2020-08-14T12:13:12.000Z</time>
      </trkpt>
      <trkpt lat="42.42158241569995880126953125" lon="0.76767646707594394683837890625">
        <ele>1186.4000244140625</ele>
        <time>2020-08-14T12:13:15.000Z</time>
      </trkpt>
      <trkpt lat="42.42157093249261379241943359375" lon="0.76763053424656391143798828125">
        <ele>1187</ele>
        <time>2020-08-14T12:13:17.000Z</time>
      </trkpt>
      <trkpt lat="42.4215366505086421966552734375" lon="0.76754503883421421051025390625">
        <ele>1188</ele>
        <time>2020-08-14T12:13:21.000Z</time>
      </trkpt>
      <trkpt lat="42.42152416147291660308837890625" lon="0.76750271022319793701171875">
        <ele>1188.5999755859375</ele>
        <time>2020-08-14T12:13:23.000Z</time>
      </trkpt>
      <trkpt lat="42.42151670157909393310546875" lon="0.76748653315007686614990234375">
        <ele>1188.800048828125</ele>
        <time>2020-08-14T12:13:24.000Z</time>
      </trkpt>
      <trkpt lat="42.421507649123668670654296875" lon="0.76747261919081211090087890625">
        <ele>1189</ele>
        <time>2020-08-14T12:13:25.000Z</time>
      </trkpt>
      <trkpt lat="42.42148049175739288330078125" lon="0.76742534525692462921142578125">
        <ele>1189.5999755859375</ele>
        <time>2020-08-14T12:13:28.000Z</time>
      </trkpt>
      <trkpt lat="42.42147085256874561309814453125" lon="0.76741176657378673553466796875">
        <ele>1189.5999755859375</ele>
        <time>2020-08-14T12:13:29.000Z</time>
      </trkpt>
      <trkpt lat="42.42144503630697727203369140625" lon="0.767366588115692138671875">
        <ele>1190.199951171875</ele>
        <time>2020-08-14T12:13:32.000Z</time>
      </trkpt>
      <trkpt lat="42.42141502909362316131591796875" lon="0.767301879823207855224609375">
        <ele>1191.199951171875</ele>
        <time>2020-08-14T12:13:36.000Z</time>
      </trkpt>
      <trkpt lat="42.42140471935272216796875" lon="0.7672668434679508209228515625">
        <ele>1191.4000244140625</ele>
        <time>2020-08-14T12:13:38.000Z</time>
      </trkpt>
      <trkpt lat="42.42138418368995189666748046875" lon="0.767171792685985565185546875">
        <ele>1191.5999755859375</ele>
        <time>2020-08-14T12:13:43.000Z</time>
      </trkpt>
      <trkpt lat="42.42140077985823154449462890625" lon="0.76697238720953464508056640625">
        <ele>1192.199951171875</ele>
        <time>2020-08-14T12:13:52.000Z</time>
      </trkpt>
      <trkpt lat="42.4214079044759273529052734375" lon="0.76690055429935455322265625">
        <ele>1192.4000244140625</ele>
        <time>2020-08-14T12:13:55.000Z</time>
      </trkpt>
      <trkpt lat="42.4214303679764270782470703125" lon="0.7667548768222332000732421875">
        <ele>1192.800048828125</ele>
        <time>2020-08-14T12:14:01.000Z</time>
      </trkpt>
      <trkpt lat="42.42145945318043231964111328125" lon="0.766622610390186309814453125">
        <ele>1193.4000244140625</ele>
        <time>2020-08-14T12:14:06.000Z</time>
      </trkpt>
      <trkpt lat="42.42148325778543949127197265625" lon="0.7665134780108928680419921875">
        <ele>1193.5999755859375</ele>
        <time>2020-08-14T12:14:10.000Z</time>
      </trkpt>
      <trkpt lat="42.42153991945087909698486328125" lon="0.7662543095648288726806640625">
        <ele>1194.4000244140625</ele>
        <time>2020-08-14T12:14:20.000Z</time>
      </trkpt>
      <trkpt lat="42.42154511623084545135498046875" lon="0.76623042114078998565673828125">
        <ele>1194.5999755859375</ele>
        <time>2020-08-14T12:14:21.000Z</time>
      </trkpt>
      <trkpt lat="42.4215939827263355255126953125" lon="0.76601970009505748748779296875">
        <ele>1195</ele>
        <time>2020-08-14T12:14:30.000Z</time>
      </trkpt>
      <trkpt lat="42.42159842513501644134521484375" lon="0.7659958116710186004638671875">
        <ele>1195.4000244140625</ele>
        <time>2020-08-14T12:14:31.000Z</time>
      </trkpt>
      <trkpt lat="42.4216099083423614501953125" lon="0.76589883305132389068603515625">
        <ele>1196.5999755859375</ele>
        <time>2020-08-14T12:14:35.000Z</time>
      </trkpt>
      <trkpt lat="42.42162155918776988983154296875" lon="0.76585172675549983978271484375">
        <ele>1197</ele>
        <time>2020-08-14T12:14:37.000Z</time>
      </trkpt>
      <trkpt lat="42.42166061885654926300048828125" lon="0.765747539699077606201171875">
        <ele>1197.800048828125</ele>
        <time>2020-08-14T12:14:42.000Z</time>
      </trkpt>
      <trkpt lat="42.4216845072805881500244140625" lon="0.765695907175540924072265625">
        <ele>1198.5999755859375</ele>
        <time>2020-08-14T12:14:45.000Z</time>
      </trkpt>
      <trkpt lat="42.42171929217875003814697265625" lon="0.7656192965805530548095703125">
        <ele>1199</ele>
        <time>2020-08-14T12:14:49.000Z</time>
      </trkpt>
      <trkpt lat="42.42172993719577789306640625" lon="0.76555316336452960968017578125">
        <ele>1199.4000244140625</ele>
        <time>2020-08-14T12:14:52.000Z</time>
      </trkpt>
      <trkpt lat="42.421685345470905303955078125" lon="0.76537345536053180694580078125">
        <ele>1199.5999755859375</ele>
        <time>2020-08-14T12:14:59.000Z</time>
      </trkpt>
      <trkpt lat="42.421624660491943359375" lon="0.76518955640494823455810546875">
        <ele>1200.199951171875</ele>
        <time>2020-08-14T12:15:06.000Z</time>
      </trkpt>
      <trkpt lat="42.421612925827503204345703125" lon="0.7651361636817455291748046875">
        <ele>1200.4000244140625</ele>
        <time>2020-08-14T12:15:08.000Z</time>
      </trkpt>
      <trkpt lat="42.42157126776874065399169921875" lon="0.76493005268275737762451171875">
        <ele>1201.199951171875</ele>
        <time>2020-08-14T12:15:16.000Z</time>
      </trkpt>
      <trkpt lat="42.42154427804052829742431640625" lon="0.7648364268243312835693359375">
        <ele>1202.4000244140625</ele>
        <time>2020-08-14T12:15:20.000Z</time>
      </trkpt>
      <trkpt lat="42.42151443846523761749267578125" lon="0.76476794667541980743408203125">
        <ele>1202.5999755859375</ele>
        <time>2020-08-14T12:15:23.000Z</time>
      </trkpt>
      <trkpt lat="42.42148853838443756103515625" lon="0.76470457948744297027587890625">
        <ele>1203.4000244140625</ele>
        <time>2020-08-14T12:15:26.000Z</time>
      </trkpt>
      <trkpt lat="42.42146297357976436614990234375" lon="0.7646124623715877532958984375">
        <ele>1204.4000244140625</ele>
        <time>2020-08-14T12:15:30.000Z</time>
      </trkpt>
      <trkpt lat="42.421427182853221893310546875" lon="0.76454230584204196929931640625">
        <ele>1205.4000244140625</ele>
        <time>2020-08-14T12:15:34.000Z</time>
      </trkpt>
      <trkpt lat="42.4213931523263454437255859375" lon="0.76450391672551631927490234375">
        <ele>1205.5999755859375</ele>
        <time>2020-08-14T12:15:37.000Z</time>
      </trkpt>
      <trkpt lat="42.42130422033369541168212890625" lon="0.76442764140665531158447265625">
        <ele>1205.5999755859375</ele>
        <time>2020-08-14T12:15:44.000Z</time>
      </trkpt>
      <trkpt lat="42.421214282512664794921875" lon="0.7643170841038227081298828125">
        <ele>1204.800048828125</ele>
        <time>2020-08-14T12:15:49.000Z</time>
      </trkpt>
      <trkpt lat="42.4211812578141689300537109375" lon="0.76425581239163875579833984375">
        <ele>1204.5999755859375</ele>
        <time>2020-08-14T12:15:51.000Z</time>
      </trkpt>
      <trkpt lat="42.4210937507450580596923828125" lon="0.76410024426877498626708984375">
        <ele>1203.5999755859375</ele>
        <time>2020-08-14T12:15:55.000Z</time>
      </trkpt>
      <trkpt lat="42.42106768302619457244873046875" lon="0.76405783183872699737548828125">
        <ele>1203</ele>
        <time>2020-08-14T12:15:56.000Z</time>
      </trkpt>
      <trkpt lat="42.42098939605057239532470703125" lon="0.76393679715692996978759765625">
        <ele>1202</ele>
        <time>2020-08-14T12:15:59.000Z</time>
      </trkpt>
      <trkpt lat="42.42094061337411403656005859375" lon="0.763798914849758148193359375">
        <ele>1201</ele>
        <time>2020-08-14T12:16:02.000Z</time>
      </trkpt>
      <trkpt lat="42.420945726335048675537109375" lon="0.7637528143823146820068359375">
        <ele>1200.800048828125</ele>
        <time>2020-08-14T12:16:03.000Z</time>
      </trkpt>
      <trkpt lat="42.4209837801754474639892578125" lon="0.763650722801685333251953125">
        <ele>1200</ele>
        <time>2020-08-14T12:16:06.000Z</time>
      </trkpt>
      <trkpt lat="42.42100079543888568878173828125" lon="0.76359808444976806640625">
        <ele>1199.5999755859375</ele>
        <time>2020-08-14T12:16:08.000Z</time>
      </trkpt>
      <trkpt lat="42.42099677212536334991455078125" lon="0.76353304088115692138671875">
        <ele>1199.5999755859375</ele>
        <time>2020-08-14T12:16:10.000Z</time>
      </trkpt>
      <trkpt lat="42.4209956824779510498046875" lon="0.76348886825144290924072265625">
        <ele>1199.4000244140625</ele>
        <time>2020-08-14T12:16:11.000Z</time>
      </trkpt>
      <trkpt lat="42.4210189841687679290771484375" lon="0.76334252022206783294677734375">
        <ele>1198.4000244140625</ele>
        <time>2020-08-14T12:16:14.000Z</time>
      </trkpt>
      <trkpt lat="42.4210354126989841461181640625" lon="0.76328535564243793487548828125">
        <ele>1197</ele>
        <time>2020-08-14T12:16:16.000Z</time>
      </trkpt>
      <trkpt lat="42.4210431240499019622802734375" lon="0.76327194459736347198486328125">
        <ele>1196</ele>
        <time>2020-08-14T12:16:20.000Z</time>
      </trkpt>
      <trkpt lat="42.42104639299213886260986328125" lon="0.7632737047970294952392578125">
        <ele>1196</ele>
        <time>2020-08-14T12:16:34.000Z</time>
      </trkpt>
      <trkpt lat="42.421061061322689056396484375" lon="0.76327999122440814971923828125">
        <ele>1195.800048828125</ele>
        <time>2020-08-14T12:16:43.000Z</time>
      </trkpt>
      <trkpt lat="42.42106231860816478729248046875" lon="0.76327999122440814971923828125">
        <ele>1196</ele>
        <time>2020-08-14T12:17:00.000Z</time>
      </trkpt>
      <trkpt lat="42.4210635758936405181884765625" lon="0.76328200288116931915283203125">
        <ele>1195.5999755859375</ele>
        <time>2020-08-14T12:17:21.000Z</time>
      </trkpt>
      <trkpt lat="42.42106198333203792572021484375" lon="0.7632824219763278961181640625">
        <ele>1195.800048828125</ele>
        <time>2020-08-14T12:17:35.000Z</time>
      </trkpt>
      <trkpt lat="42.42107237689197063446044921875" lon="0.763251744210720062255859375">
        <ele>1195.5999755859375</ele>
        <time>2020-08-14T12:17:47.000Z</time>
      </trkpt>
      <trkpt lat="42.42107355035841464996337890625" lon="0.76324713416397571563720703125">
        <ele>1195.4000244140625</ele>
        <time>2020-08-14T12:17:56.000Z</time>
      </trkpt>
      <trkpt lat="42.42102040909230709075927734375" lon="0.76320053078234195709228515625">
        <ele>1195.199951171875</ele>
        <time>2020-08-14T12:18:01.000Z</time>
      </trkpt>
      <trkpt lat="42.420946061611175537109375" lon="0.76311972923576831817626953125">
        <ele>1194.800048828125</ele>
        <time>2020-08-14T12:18:04.000Z</time>
      </trkpt>
      <trkpt lat="42.42091580294072628021240234375" lon="0.7630789093673229217529296875">
        <ele>1194.4000244140625</ele>
        <time>2020-08-14T12:18:05.000Z</time>
      </trkpt>
      <trkpt lat="42.420812956988811492919921875" lon="0.7629411108791828155517578125">
        <ele>1193.5999755859375</ele>
        <time>2020-08-14T12:18:08.000Z</time>
      </trkpt>
      <trkpt lat="42.42068731226027011871337890625" lon="0.7627697847783565521240234375">
        <ele>1192.4000244140625</ele>
        <time>2020-08-14T12:18:11.000Z</time>
      </trkpt>
      <trkpt lat="42.42054616101086139678955078125" lon="0.7625736482441425323486328125">
        <ele>1191.4000244140625</ele>
        <time>2020-08-14T12:18:14.000Z</time>
      </trkpt>
      <trkpt lat="42.42035807110369205474853515625" lon="0.76227215118706226348876953125">
        <ele>1190.4000244140625</ele>
        <time>2020-08-14T12:18:18.000Z</time>
      </trkpt>
      <trkpt lat="42.42026922293007373809814453125" lon="0.76208330690860748291015625">
        <ele>1189.199951171875</ele>
        <time>2020-08-14T12:18:20.000Z</time>
      </trkpt>
      <trkpt lat="42.4201764352619647979736328125" lon="0.7618813030421733856201171875">
        <ele>1188.199951171875</ele>
        <time>2020-08-14T12:18:22.000Z</time>
      </trkpt>
      <trkpt lat="42.4200825579464435577392578125" lon="0.76168709434568881988525390625">
        <ele>1187.199951171875</ele>
        <time>2020-08-14T12:18:24.000Z</time>
      </trkpt>
      <trkpt lat="42.4200282432138919830322265625" lon="0.76160545460879802703857421875">
        <ele>1186.5999755859375</ele>
        <time>2020-08-14T12:18:25.000Z</time>
      </trkpt>
      <trkpt lat="42.41996328346431255340576171875" lon="0.76154409907758235931396484375">
        <ele>1186</ele>
        <time>2020-08-14T12:18:26.000Z</time>
      </trkpt>
      <trkpt lat="42.41988885216414928436279296875" lon="0.76150286011397838592529296875">
        <ele>1185.5999755859375</ele>
        <time>2020-08-14T12:18:27.000Z</time>
      </trkpt>
      <trkpt lat="42.4197269976139068603515625" lon="0.76145458035171031951904296875">
        <ele>1184.5999755859375</ele>
        <time>2020-08-14T12:18:29.000Z</time>
      </trkpt>
      <trkpt lat="42.419551312923431396484375" lon="0.76141132973134517669677734375">
        <ele>1183.5999755859375</ele>
        <time>2020-08-14T12:18:31.000Z</time>
      </trkpt>
      <trkpt lat="42.41945835761725902557373046875" lon="0.7613973319530487060546875">
        <ele>1183.199951171875</ele>
        <time>2020-08-14T12:18:32.000Z</time>
      </trkpt>
      <trkpt lat="42.4193633906543254852294921875" lon="0.76138920150697231292724609375">
        <ele>1182.4000244140625</ele>
        <time>2020-08-14T12:18:33.000Z</time>
      </trkpt>
      <trkpt lat="42.41907723248004913330078125" lon="0.7613790594041347503662109375">
        <ele>1180.5999755859375</ele>
        <time>2020-08-14T12:18:36.000Z</time>
      </trkpt>
      <trkpt lat="42.41890179924666881561279296875" lon="0.76135684736073017120361328125">
        <ele>1179.800048828125</ele>
        <time>2020-08-14T12:18:38.000Z</time>
      </trkpt>
      <trkpt lat="42.418822087347507476806640625" lon="0.76133119873702526092529296875">
        <ele>1179.199951171875</ele>
        <time>2020-08-14T12:18:39.000Z</time>
      </trkpt>
      <trkpt lat="42.41867917589843273162841796875" lon="0.7612318731844425201416015625">
        <ele>1178</ele>
        <time>2020-08-14T12:18:41.000Z</time>
      </trkpt>
      <trkpt lat="42.418565936386585235595703125" lon="0.7610701024532318115234375">
        <ele>1176.800048828125</ele>
        <time>2020-08-14T12:18:43.000Z</time>
      </trkpt>
      <trkpt lat="42.4185221828520298004150390625" lon="0.76097094453871250152587890625">
        <ele>1176.199951171875</ele>
        <time>2020-08-14T12:18:44.000Z</time>
      </trkpt>
      <trkpt lat="42.4184789322316646575927734375" lon="0.7608687691390514373779296875">
        <ele>1175.5999755859375</ele>
        <time>2020-08-14T12:18:45.000Z</time>
      </trkpt>
      <trkpt lat="42.41842905990779399871826171875" lon="0.760770030319690704345703125">
        <ele>1175.199951171875</ele>
        <time>2020-08-14T12:18:46.000Z</time>
      </trkpt>
      <trkpt lat="42.41837072186172008514404296875" lon="0.76067975722253322601318359375">
        <ele>1174.5999755859375</ele>
        <time>2020-08-14T12:18:47.000Z</time>
      </trkpt>
      <trkpt lat="42.418303750455379486083984375" lon="0.760599039494991302490234375">
        <ele>1174</ele>
        <time>2020-08-14T12:18:48.000Z</time>
      </trkpt>
      <trkpt lat="42.41823091171681880950927734375" lon="0.760523267090320587158203125">
        <ele>1173.199951171875</ele>
        <time>2020-08-14T12:18:49.000Z</time>
      </trkpt>
      <trkpt lat="42.41807517595589160919189453125" lon="0.76037197373807430267333984375">
        <ele>1171.800048828125</ele>
        <time>2020-08-14T12:18:51.000Z</time>
      </trkpt>
      <trkpt lat="42.417993284761905670166015625" lon="0.76029368676245212554931640625">
        <ele>1170.5999755859375</ele>
        <time>2020-08-14T12:18:52.000Z</time>
      </trkpt>
      <trkpt lat="42.41782070137560367584228515625" lon="0.7601328380405902862548828125">
        <ele>1169.199951171875</ele>
        <time>2020-08-14T12:18:54.000Z</time>
      </trkpt>
      <trkpt lat="42.41773151792585849761962890625" lon="0.76005111448466777801513671875">
        <ele>1168.199951171875</ele>
        <time>2020-08-14T12:18:55.000Z</time>
      </trkpt>
      <trkpt lat="42.417642585933208465576171875" lon="0.75996779836714267730712890625">
        <ele>1167</ele>
        <time>2020-08-14T12:18:56.000Z</time>
      </trkpt>
      <trkpt lat="42.4174712598323822021484375" lon="0.75979538261890411376953125">
        <ele>1165.4000244140625</ele>
        <time>2020-08-14T12:18:58.000Z</time>
      </trkpt>
      <trkpt lat="42.41730831563472747802734375" lon="0.7596339471638202667236328125">
        <ele>1164</ele>
        <time>2020-08-14T12:19:00.000Z</time>
      </trkpt>
      <trkpt lat="42.41722784936428070068359375" lon="0.7595662213861942291259765625">
        <ele>1163</ele>
        <time>2020-08-14T12:19:01.000Z</time>
      </trkpt>
      <trkpt lat="42.4171472154557704925537109375" lon="0.75951031409204006195068359375">
        <ele>1162</ele>
        <time>2020-08-14T12:19:02.000Z</time>
      </trkpt>
      <trkpt lat="42.41698888130486011505126953125" lon="0.759424902498722076416015625">
        <ele>1160.4000244140625</ele>
        <time>2020-08-14T12:19:04.000Z</time>
      </trkpt>
      <trkpt lat="42.41691193543374538421630859375" lon="0.7593814842402935028076171875">
        <ele>1160</ele>
        <time>2020-08-14T12:19:05.000Z</time>
      </trkpt>
      <trkpt lat="42.41683850996196269989013671875" lon="0.75932876206934452056884765625">
        <ele>1159.199951171875</ele>
        <time>2020-08-14T12:19:06.000Z</time>
      </trkpt>
      <trkpt lat="42.41670942865312099456787109375" lon="0.759184174239635467529296875">
        <ele>1157.5999755859375</ele>
        <time>2020-08-14T12:19:08.000Z</time>
      </trkpt>
      <trkpt lat="42.41661630570888519287109375" lon="0.7590016163885593414306640625">
        <ele>1156.5999755859375</ele>
        <time>2020-08-14T12:19:10.000Z</time>
      </trkpt>
      <trkpt lat="42.4165903218090534210205078125" lon="0.75889675877988338470458984375">
        <ele>1155.800048828125</ele>
        <time>2020-08-14T12:19:11.000Z</time>
      </trkpt>
      <trkpt lat="42.4165792576968669891357421875" lon="0.7587823458015918731689453125">
        <ele>1155</ele>
        <time>2020-08-14T12:19:12.000Z</time>
      </trkpt>
      <trkpt lat="42.4165893159806728363037109375" lon="0.758539102971553802490234375">
        <ele>1154</ele>
        <time>2020-08-14T12:19:14.000Z</time>
      </trkpt>
      <trkpt lat="42.4166268669068813323974609375" lon="0.75828823260962963104248046875">
        <ele>1152</ele>
        <time>2020-08-14T12:19:16.000Z</time>
      </trkpt>
      <trkpt lat="42.4166553653776645660400390625" lon="0.7580474205315113067626953125">
        <ele>1150.800048828125</ele>
        <time>2020-08-14T12:19:18.000Z</time>
      </trkpt>
      <trkpt lat="42.41665276698768138885498046875" lon="0.75793652795255184173583984375">
        <ele>1150.199951171875</ele>
        <time>2020-08-14T12:19:19.000Z</time>
      </trkpt>
      <trkpt lat="42.41662946529686450958251953125" lon="0.75783628039062023162841796875">
        <ele>1149.5999755859375</ele>
        <time>2020-08-14T12:19:20.000Z</time>
      </trkpt>
      <trkpt lat="42.41658336482942104339599609375" lon="0.7577547244727611541748046875">
        <ele>1149</ele>
        <time>2020-08-14T12:19:21.000Z</time>
      </trkpt>
      <trkpt lat="42.4165209196507930755615234375" lon="0.757701583206653594970703125">
        <ele>1148.4000244140625</ele>
        <time>2020-08-14T12:19:22.000Z</time>
      </trkpt>
      <trkpt lat="42.41644824855029582977294921875" lon="0.7576715759932994842529296875">
        <ele>1147.5999755859375</ele>
        <time>2020-08-14T12:19:23.000Z</time>
      </trkpt>
      <trkpt lat="42.41636912338435649871826171875" lon="0.757649280130863189697265625">
        <ele>1146.5999755859375</ele>
        <time>2020-08-14T12:19:24.000Z</time>
      </trkpt>
      <trkpt lat="42.4162000603973865509033203125" lon="0.75760225765407085418701171875">
        <ele>1145.199951171875</ele>
        <time>2020-08-14T12:19:26.000Z</time>
      </trkpt>
      <trkpt lat="42.4160277284681797027587890625" lon="0.75754274614155292510986328125">
        <ele>1144.199951171875</ele>
        <time>2020-08-14T12:19:28.000Z</time>
      </trkpt>
      <trkpt lat="42.41594701074063777923583984375" lon="0.75750586576759815216064453125">
        <ele>1143.5999755859375</ele>
        <time>2020-08-14T12:19:29.000Z</time>
      </trkpt>
      <trkpt lat="42.415872327983379364013671875" lon="0.75746093876659870147705078125">
        <ele>1142.800048828125</ele>
        <time>2020-08-14T12:19:30.000Z</time>
      </trkpt>
      <trkpt lat="42.41580359637737274169921875" lon="0.75740260072052478790283203125">
        <ele>1141.800048828125</ele>
        <time>2020-08-14T12:19:31.000Z</time>
      </trkpt>
      <trkpt lat="42.41574081592261791229248046875" lon="0.757328085601329803466796875">
        <ele>1141</ele>
        <time>2020-08-14T12:19:32.000Z</time>
      </trkpt>
      <trkpt lat="42.41568289697170257568359375" lon="0.75724049471318721771240234375">
        <ele>1140.199951171875</ele>
        <time>2020-08-14T12:19:33.000Z</time>
      </trkpt>
      <trkpt lat="42.41557569243013858795166015625" lon="0.75704469345510005950927734375">
        <ele>1139</ele>
        <time>2020-08-14T12:19:35.000Z</time>
      </trkpt>
      <trkpt lat="42.4155241437256336212158203125" lon="0.75694528408348560333251953125">
        <ele>1138.4000244140625</ele>
        <time>2020-08-14T12:19:36.000Z</time>
      </trkpt>
      <trkpt lat="42.4154758639633655548095703125" lon="0.75684738345444202423095703125">
        <ele>1137.5999755859375</ele>
        <time>2020-08-14T12:19:37.000Z</time>
      </trkpt>
      <trkpt lat="42.41543688811361789703369140625" lon="0.75674747116863727569580078125">
        <ele>1136.800048828125</ele>
        <time>2020-08-14T12:19:38.000Z</time>
      </trkpt>
      <trkpt lat="42.41541065275669097900390625" lon="0.75663951225578784942626953125">
        <ele>1136</ele>
        <time>2020-08-14T12:19:39.000Z</time>
      </trkpt>
      <trkpt lat="42.415396235883235931396484375" lon="0.756522752344608306884765625">
        <ele>1134.5999755859375</ele>
        <time>2020-08-14T12:19:40.000Z</time>
      </trkpt>
      <trkpt lat="42.41538072936236858367919921875" lon="0.75627506710588932037353515625">
        <ele>1133.4000244140625</ele>
        <time>2020-08-14T12:19:42.000Z</time>
      </trkpt>
      <trkpt lat="42.415372096002101898193359375" lon="0.75602746568620204925537109375">
        <ele>1131.800048828125</ele>
        <time>2020-08-14T12:19:44.000Z</time>
      </trkpt>
      <trkpt lat="42.41538274101912975311279296875" lon="0.7557833008468151092529296875">
        <ele>1130.5999755859375</ele>
        <time>2020-08-14T12:19:46.000Z</time>
      </trkpt>
      <trkpt lat="42.41540922783315181732177734375" lon="0.75555254705250263214111328125">
        <ele>1128.5999755859375</ele>
        <time>2020-08-14T12:19:48.000Z</time>
      </trkpt>
      <trkpt lat="42.41547645069658756256103515625" lon="0.7553528062999248504638671875">
        <ele>1127.199951171875</ele>
        <time>2020-08-14T12:19:50.000Z</time>
      </trkpt>
      <trkpt lat="42.4155684001743793487548828125" lon="0.755174942314624786376953125">
        <ele>1126</ele>
        <time>2020-08-14T12:19:52.000Z</time>
      </trkpt>
      <trkpt lat="42.4156475253403186798095703125" lon="0.75499691069126129150390625">
        <ele>1124.800048828125</ele>
        <time>2020-08-14T12:19:54.000Z</time>
      </trkpt>
      <trkpt lat="42.41567359305918216705322265625" lon="0.7549082301557064056396484375">
        <ele>1123.800048828125</ele>
        <time>2020-08-14T12:19:55.000Z</time>
      </trkpt>
      <trkpt lat="42.4156833998858928680419921875" lon="0.75482047162950038909912109375">
        <ele>1122.800048828125</ele>
        <time>2020-08-14T12:19:56.000Z</time>
      </trkpt>
      <trkpt lat="42.41564710624516010284423828125" lon="0.75467177666723728179931640625">
        <ele>1121.800048828125</ele>
        <time>2020-08-14T12:19:58.000Z</time>
      </trkpt>
      <trkpt lat="42.4155754409730434417724609375" lon="0.754577480256557464599609375">
        <ele>1120</ele>
        <time>2020-08-14T12:20:00.000Z</time>
      </trkpt>
      <trkpt lat="42.41554367356002330780029296875" lon="0.75454839505255222320556640625">
        <ele>1119.4000244140625</ele>
        <time>2020-08-14T12:20:01.000Z</time>
      </trkpt>
      <trkpt lat="42.41551752202212810516357421875" lon="0.754527859389781951904296875">
        <ele>1118.800048828125</ele>
        <time>2020-08-14T12:20:02.000Z</time>
      </trkpt>
      <trkpt lat="42.4154661409556865692138671875" lon="0.75448536314070224761962890625">
        <ele>1117.5999755859375</ele>
        <time>2020-08-14T12:20:05.000Z</time>
      </trkpt>
      <trkpt lat="42.4153710901737213134765625" lon="0.75434018857777118682861328125">
        <ele>1116.800048828125</ele>
        <time>2020-08-14T12:20:10.000Z</time>
      </trkpt>
      <trkpt lat="42.4153457768261432647705078125" lon="0.7542852871119976043701171875">
        <ele>1116.800048828125</ele>
        <time>2020-08-14T12:20:11.000Z</time>
      </trkpt>
      <trkpt lat="42.4153216369450092315673828125" lon="0.75422049500048160552978515625">
        <ele>1116.199951171875</ele>
        <time>2020-08-14T12:20:12.000Z</time>
      </trkpt>
      <trkpt lat="42.41528299637138843536376953125" lon="0.75406216084957122802734375">
        <ele>1115.4000244140625</ele>
        <time>2020-08-14T12:20:14.000Z</time>
      </trkpt>
      <trkpt lat="42.41525106132030487060546875" lon="0.75387449003756046295166015625">
        <ele>1114.199951171875</ele>
        <time>2020-08-14T12:20:16.000Z</time>
      </trkpt>
      <trkpt lat="42.41522868163883686065673828125" lon="0.753773488104343414306640625">
        <ele>1113.5999755859375</ele>
        <time>2020-08-14T12:20:17.000Z</time>
      </trkpt>
      <trkpt lat="42.41519716568291187286376953125" lon="0.75367030687630176544189453125">
        <ele>1113.199951171875</ele>
        <time>2020-08-14T12:20:18.000Z</time>
      </trkpt>
      <trkpt lat="42.4151063896715641021728515625" lon="0.7534615136682987213134765625">
        <ele>1111.800048828125</ele>
        <time>2020-08-14T12:20:20.000Z</time>
      </trkpt>
      <trkpt lat="42.41498820483684539794921875" lon="0.753253810107707977294921875">
        <ele>1110.800048828125</ele>
        <time>2020-08-14T12:20:22.000Z</time>
      </trkpt>
      <trkpt lat="42.414865158498287200927734375" lon="0.7530595175921916961669921875">
        <ele>1109</ele>
        <time>2020-08-14T12:20:24.000Z</time>
      </trkpt>
      <trkpt lat="42.4147380888462066650390625" lon="0.75286530889570713043212890625">
        <ele>1107.5999755859375</ele>
        <time>2020-08-14T12:20:26.000Z</time>
      </trkpt>
      <trkpt lat="42.41462208330631256103515625" lon="0.752669759094715118408203125">
        <ele>1106.199951171875</ele>
        <time>2020-08-14T12:20:28.000Z</time>
      </trkpt>
      <trkpt lat="42.41457791067659854888916015625" lon="0.752576887607574462890625">
        <ele>1105.199951171875</ele>
        <time>2020-08-14T12:20:29.000Z</time>
      </trkpt>
      <trkpt lat="42.41455276496708393096923828125" lon="0.75248175300657749176025390625">
        <ele>1104.5999755859375</ele>
        <time>2020-08-14T12:20:30.000Z</time>
      </trkpt>
      <trkpt lat="42.4145501665771007537841796875" lon="0.7523825950920581817626953125">
        <ele>1104</ele>
        <time>2020-08-14T12:20:31.000Z</time>
      </trkpt>
      <trkpt lat="42.4145692773163318634033203125" lon="0.752282179892063140869140625">
        <ele>1103.4000244140625</ele>
        <time>2020-08-14T12:20:32.000Z</time>
      </trkpt>
      <trkpt lat="42.41465628147125244140625" lon="0.752088390290737152099609375">
        <ele>1102.4000244140625</ele>
        <time>2020-08-14T12:20:34.000Z</time>
      </trkpt>
      <trkpt lat="42.41477421484887599945068359375" lon="0.7518974505364894866943359375">
        <ele>1101</ele>
        <time>2020-08-14T12:20:36.000Z</time>
      </trkpt>
      <trkpt lat="42.414884604513645172119140625" lon="0.75171112082898616790771484375">
        <ele>1099.199951171875</ele>
        <time>2020-08-14T12:20:38.000Z</time>
      </trkpt>
      <trkpt lat="42.4149231612682342529296875" lon="0.75150341726839542388916015625">
        <ele>1097.800048828125</ele>
        <time>2020-08-14T12:20:40.000Z</time>
      </trkpt>
      <trkpt lat="42.41486574523150920867919921875" lon="0.75132220052182674407958984375">
        <ele>1095.800048828125</ele>
        <time>2020-08-14T12:20:42.000Z</time>
      </trkpt>
      <trkpt lat="42.41473674774169921875" lon="0.75121700763702392578125">
        <ele>1094</ele>
        <time>2020-08-14T12:20:44.000Z</time>
      </trkpt>
      <trkpt lat="42.41466608829796314239501953125" lon="0.751169063150882720947265625">
        <ele>1093.4000244140625</ele>
        <time>2020-08-14T12:20:45.000Z</time>
      </trkpt>
      <trkpt lat="42.41460372693836688995361328125" lon="0.7511098869144916534423828125">
        <ele>1092.800048828125</ele>
        <time>2020-08-14T12:20:46.000Z</time>
      </trkpt>
      <trkpt lat="42.41452015936374664306640625" lon="0.75094535015523433685302734375">
        <ele>1091.5999755859375</ele>
        <time>2020-08-14T12:20:48.000Z</time>
      </trkpt>
      <trkpt lat="42.41447615437209606170654296875" lon="0.75073580257594585418701171875">
        <ele>1090.5999755859375</ele>
        <time>2020-08-14T12:20:50.000Z</time>
      </trkpt>
      <trkpt lat="42.41445788182318210601806640625" lon="0.75051804073154926300048828125">
        <ele>1089.199951171875</ele>
        <time>2020-08-14T12:20:52.000Z</time>
      </trkpt>
      <trkpt lat="42.4144552834331989288330078125" lon="0.75040907599031925201416015625">
        <ele>1088.800048828125</ele>
        <time>2020-08-14T12:20:53.000Z</time>
      </trkpt>
      <trkpt lat="42.41445318795740604400634765625" lon="0.750302374362945556640625">
        <ele>1088</ele>
        <time>2020-08-14T12:20:54.000Z</time>
      </trkpt>
      <trkpt lat="42.41444447077810764312744140625" lon="0.750089474022388458251953125">
        <ele>1086.4000244140625</ele>
        <time>2020-08-14T12:20:56.000Z</time>
      </trkpt>
      <trkpt lat="42.4144395254552364349365234375" lon="0.74998109601438045501708984375">
        <ele>1085.4000244140625</ele>
        <time>2020-08-14T12:20:57.000Z</time>
      </trkpt>
      <trkpt lat="42.41442133672535419464111328125" lon="0.7497664354741573333740234375">
        <ele>1084</ele>
        <time>2020-08-14T12:20:59.000Z</time>
      </trkpt>
      <trkpt lat="42.41437473334372043609619140625" lon="0.7494802772998809814453125">
        <ele>1082.800048828125</ele>
        <time>2020-08-14T12:21:02.000Z</time>
      </trkpt>
      <trkpt lat="42.41433416493237018585205078125" lon="0.74929964728653430938720703125">
        <ele>1081.199951171875</ele>
        <time>2020-08-14T12:21:04.000Z</time>
      </trkpt>
      <trkpt lat="42.41429560817778110504150390625" lon="0.74911373667418956756591796875">
        <ele>1080.4000244140625</ele>
        <time>2020-08-14T12:21:06.000Z</time>
      </trkpt>
      <trkpt lat="42.41427197121083736419677734375" lon="0.74881165288388729095458984375">
        <ele>1079</ele>
        <time>2020-08-14T12:21:09.000Z</time>
      </trkpt>
      <trkpt lat="42.41426995955407619476318359375" lon="0.74851895682513713836669921875">
        <ele>1076.800048828125</ele>
        <time>2020-08-14T12:21:12.000Z</time>
      </trkpt>
      <trkpt lat="42.41427071392536163330078125" lon="0.74842491187155246734619140625">
        <ele>1075.800048828125</ele>
        <time>2020-08-14T12:21:13.000Z</time>
      </trkpt>
      <trkpt lat="42.41427347995340824127197265625" lon="0.74833354912698268890380859375">
        <ele>1074.4000244140625</ele>
        <time>2020-08-14T12:21:14.000Z</time>
      </trkpt>
      <trkpt lat="42.41428018547594547271728515625" lon="0.74824604205787181854248046875">
        <ele>1073.5999755859375</ele>
        <time>2020-08-14T12:21:15.000Z</time>
      </trkpt>
      <trkpt lat="42.4142928421497344970703125" lon="0.748162977397441864013671875">
        <ele>1073</ele>
        <time>2020-08-14T12:21:16.000Z</time>
      </trkpt>
      <trkpt lat="42.41437993012368679046630859375" lon="0.7479299604892730712890625">
        <ele>1071.800048828125</ele>
        <time>2020-08-14T12:21:19.000Z</time>
      </trkpt>
      <trkpt lat="42.41441261954605579376220703125" lon="0.74786148034036159515380859375">
        <ele>1071.4000244140625</ele>
        <time>2020-08-14T12:21:20.000Z</time>
      </trkpt>
      <trkpt lat="42.41443525068461894989013671875" lon="0.74779626913368701934814453125">
        <ele>1071</ele>
        <time>2020-08-14T12:21:21.000Z</time>
      </trkpt>
      <trkpt lat="42.41444371640682220458984375" lon="0.74773541651666164398193359375">
        <ele>1070.4000244140625</ele>
        <time>2020-08-14T12:21:22.000Z</time>
      </trkpt>
      <trkpt lat="42.41443432867527008056640625" lon="0.7476831972599029541015625">
        <ele>1069.800048828125</ele>
        <time>2020-08-14T12:21:23.000Z</time>
      </trkpt>
      <trkpt lat="42.41440759040415287017822265625" lon="0.7476511783897876739501953125">
        <ele>1069</ele>
        <time>2020-08-14T12:21:24.000Z</time>
      </trkpt>
      <trkpt lat="42.41433064453303813934326171875" lon="0.74766241014003753662109375">
        <ele>1068.4000244140625</ele>
        <time>2020-08-14T12:21:26.000Z</time>
      </trkpt>
      <trkpt lat="42.4142633378505706787109375" lon="0.74774648062884807586669921875">
        <ele>1067.800048828125</ele>
        <time>2020-08-14T12:21:28.000Z</time>
      </trkpt>
      <trkpt lat="42.41423743776977062225341796875" lon="0.74779652059078216552734375">
        <ele>1067.4000244140625</ele>
        <time>2020-08-14T12:21:29.000Z</time>
      </trkpt>
      <trkpt lat="42.4142145551741123199462890625" lon="0.7478456385433673858642578125">
        <ele>1067.199951171875</ele>
        <time>2020-08-14T12:21:30.000Z</time>
      </trkpt>
      <trkpt lat="42.4141682870686054229736328125" lon="0.74794865213334560394287109375">
        <ele>1066.4000244140625</ele>
        <time>2020-08-14T12:21:32.000Z</time>
      </trkpt>
      <trkpt lat="42.41410181857645511627197265625" lon="0.74813825078308582305908203125">
        <ele>1065.199951171875</ele>
        <time>2020-08-14T12:21:35.000Z</time>
      </trkpt>
      <trkpt lat="42.41408388130366802215576171875" lon="0.748208574950695037841796875">
        <ele>1065</ele>
        <time>2020-08-14T12:21:36.000Z</time>
      </trkpt>
      <trkpt lat="42.41405370645225048065185546875" lon="0.7483468763530254364013671875">
        <ele>1064.5999755859375</ele>
        <time>2020-08-14T12:21:38.000Z</time>
      </trkpt>
      <trkpt lat="42.41400307975709438323974609375" lon="0.7484484650194644927978515625">
        <ele>1064.199951171875</ele>
        <time>2020-08-14T12:21:40.000Z</time>
      </trkpt>
      <trkpt lat="42.41390953771770000457763671875" lon="0.74841787107288837432861328125">
        <ele>1063.4000244140625</ele>
        <time>2020-08-14T12:21:43.000Z</time>
      </trkpt>
      <trkpt lat="42.41390082053840160369873046875" lon="0.74836154468357563018798828125">
        <ele>1062.800048828125</ele>
        <time>2020-08-14T12:21:44.000Z</time>
      </trkpt>
      <trkpt lat="42.4139111302793025970458984375" lon="0.748209916055202484130859375">
        <ele>1062</ele>
        <time>2020-08-14T12:21:46.000Z</time>
      </trkpt>
      <trkpt lat="42.4139211885631084442138671875" lon="0.7481203973293304443359375">
        <ele>1061.5999755859375</ele>
        <time>2020-08-14T12:21:47.000Z</time>
      </trkpt>
      <trkpt lat="42.413945160806179046630859375" lon="0.747926272451877593994140625">
        <ele>1060.199951171875</ele>
        <time>2020-08-14T12:21:49.000Z</time>
      </trkpt>
      <trkpt lat="42.4139704741537570953369140625" lon="0.747728459537029266357421875">
        <ele>1059.199951171875</ele>
        <time>2020-08-14T12:21:51.000Z</time>
      </trkpt>
      <trkpt lat="42.41398279555141925811767578125" lon="0.74762963689863681793212890625">
        <ele>1058.5999755859375</ele>
        <time>2020-08-14T12:21:52.000Z</time>
      </trkpt>
      <trkpt lat="42.41400693543255329132080078125" lon="0.74742713011801242828369140625">
        <ele>1058</ele>
        <time>2020-08-14T12:21:54.000Z</time>
      </trkpt>
      <trkpt lat="42.414018921554088592529296875" lon="0.74732269160449504852294921875">
        <ele>1057</ele>
        <time>2020-08-14T12:21:55.000Z</time>
      </trkpt>
      <trkpt lat="42.4140308238565921783447265625" lon="0.7472200132906436920166015625">
        <ele>1055.5999755859375</ele>
        <time>2020-08-14T12:21:56.000Z</time>
      </trkpt>
      <trkpt lat="42.41405437700450420379638671875" lon="0.7470181770622730255126953125">
        <ele>1054.4000244140625</ele>
        <time>2020-08-14T12:21:58.000Z</time>
      </trkpt>
      <trkpt lat="42.4140817858278751373291015625" lon="0.74681860394775867462158203125">
        <ele>1053</ele>
        <time>2020-08-14T12:22:00.000Z</time>
      </trkpt>
      <trkpt lat="42.41410844027996063232421875" lon="0.74662682600319385528564453125">
        <ele>1051.800048828125</ele>
        <time>2020-08-14T12:22:02.000Z</time>
      </trkpt>
      <trkpt lat="42.4141252040863037109375" lon="0.7464770413935184478759765625">
        <ele>1050.5999755859375</ele>
        <time>2020-08-14T12:22:04.000Z</time>
      </trkpt>
      <trkpt lat="42.41413417272269725799560546875" lon="0.74641744606196880340576171875">
        <ele>1050.199951171875</ele>
        <time>2020-08-14T12:22:05.000Z</time>
      </trkpt>
      <trkpt lat="42.41414473392069339752197265625" lon="0.746304206550121307373046875">
        <ele>1049.5999755859375</ele>
        <time>2020-08-14T12:22:07.000Z</time>
      </trkpt>
      <trkpt lat="42.4141133017838001251220703125" lon="0.74613681994378566741943359375">
        <ele>1048.4000244140625</ele>
        <time>2020-08-14T12:22:10.000Z</time>
      </trkpt>
      <trkpt lat="42.4139748327434062957763671875" lon="0.74598376639187335968017578125">
        <ele>1047.199951171875</ele>
        <time>2020-08-14T12:22:14.000Z</time>
      </trkpt>
      <trkpt lat="42.413929738104343414306640625" lon="0.74595375917851924896240234375">
        <ele>1046.800048828125</ele>
        <time>2020-08-14T12:22:15.000Z</time>
      </trkpt>
      <trkpt lat="42.4137679673731327056884765625" lon="0.74584613554179668426513671875">
        <ele>1045.800048828125</ele>
        <time>2020-08-14T12:22:18.000Z</time>
      </trkpt>
      <trkpt lat="42.4137106351554393768310546875" lon="0.74580372311174869537353515625">
        <ele>1045.199951171875</ele>
        <time>2020-08-14T12:22:19.000Z</time>
      </trkpt>
      <trkpt lat="42.41365171037614345550537109375" lon="0.74575795792043209075927734375">
        <ele>1044.5999755859375</ele>
        <time>2020-08-14T12:22:20.000Z</time>
      </trkpt>
      <trkpt lat="42.4134799651801586151123046875" lon="0.74560523964464664459228515625">
        <ele>1043</ele>
        <time>2020-08-14T12:22:23.000Z</time>
      </trkpt>
      <trkpt lat="42.413371503353118896484375" lon="0.74548311531543731689453125">
        <ele>1041.5999755859375</ele>
        <time>2020-08-14T12:22:25.000Z</time>
      </trkpt>
      <trkpt lat="42.41320461966097354888916015625" lon="0.745287649333477020263671875">
        <ele>1040.5999755859375</ele>
        <time>2020-08-14T12:22:28.000Z</time>
      </trkpt>
      <trkpt lat="42.41310202516615390777587890625" lon="0.745157897472381591796875">
        <ele>1039.4000244140625</ele>
        <time>2020-08-14T12:22:30.000Z</time>
      </trkpt>
      <trkpt lat="42.41305592469871044158935546875" lon="0.745086483657360076904296875">
        <ele>1038.5999755859375</ele>
        <time>2020-08-14T12:22:31.000Z</time>
      </trkpt>
      <trkpt lat="42.4130146019160747528076171875" lon="0.745006687939167022705078125">
        <ele>1038.199951171875</ele>
        <time>2020-08-14T12:22:32.000Z</time>
      </trkpt>
      <trkpt lat="42.4128724448382854461669921875" lon="0.74464551173150539398193359375">
        <ele>1037.199951171875</ele>
        <time>2020-08-14T12:22:36.000Z</time>
      </trkpt>
      <trkpt lat="42.41283782757818698883056640625" lon="0.74456538073718547821044921875">
        <ele>1036.4000244140625</ele>
        <time>2020-08-14T12:22:37.000Z</time>
      </trkpt>
      <trkpt lat="42.41279591806232929229736328125" lon="0.74449430219829082489013671875">
        <ele>1035.5999755859375</ele>
        <time>2020-08-14T12:22:38.000Z</time>
      </trkpt>
      <trkpt lat="42.41269265301525592803955078125" lon="0.74438047595322132110595703125">
        <ele>1034.5999755859375</ele>
        <time>2020-08-14T12:22:40.000Z</time>
      </trkpt>
      <trkpt lat="42.412637583911418914794921875" lon="0.74433689005672931671142578125">
        <ele>1034.199951171875</ele>
        <time>2020-08-14T12:22:41.000Z</time>
      </trkpt>
      <trkpt lat="42.41252266801893711090087890625" lon="0.74427586980164051055908203125">
        <ele>1033.800048828125</ele>
        <time>2020-08-14T12:22:43.000Z</time>
      </trkpt>
      <trkpt lat="42.41239459253847599029541015625" lon="0.744254998862743377685546875">
        <ele>1033</ele>
        <time>2020-08-14T12:22:45.000Z</time>
      </trkpt>
      <trkpt lat="42.41232653148472309112548828125" lon="0.744261704385280609130859375">
        <ele>1032</ele>
        <time>2020-08-14T12:22:46.000Z</time>
      </trkpt>
      <trkpt lat="42.41218504495918750762939453125" lon="0.74431627057492733001708984375">
        <ele>1030.5999755859375</ele>
        <time>2020-08-14T12:22:48.000Z</time>
      </trkpt>
      <trkpt lat="42.4121160618960857391357421875" lon="0.74435885064303874969482421875">
        <ele>1030</ele>
        <time>2020-08-14T12:22:49.000Z</time>
      </trkpt>
      <trkpt lat="42.41204976104199886322021484375" lon="0.74440754950046539306640625">
        <ele>1029.5999755859375</ele>
        <time>2020-08-14T12:22:50.000Z</time>
      </trkpt>
      <trkpt lat="42.41192646324634552001953125" lon="0.74451827444136142730712890625">
        <ele>1028.199951171875</ele>
        <time>2020-08-14T12:22:52.000Z</time>
      </trkpt>
      <trkpt lat="42.41180718876421451568603515625" lon="0.7446340285241603851318359375">
        <ele>1026.800048828125</ele>
        <time>2020-08-14T12:22:54.000Z</time>
      </trkpt>
      <trkpt lat="42.4116416461765766143798828125" lon="0.74476302601397037506103515625">
        <ele>1025.199951171875</ele>
        <time>2020-08-14T12:22:57.000Z</time>
      </trkpt>
      <trkpt lat="42.411592192947864532470703125" lon="0.744787752628326416015625">
        <ele>1024.5999755859375</ele>
        <time>2020-08-14T12:22:58.000Z</time>
      </trkpt>
      <trkpt lat="42.4115470983088016510009765625" lon="0.74480443261563777923583984375">
        <ele>1024</ele>
        <time>2020-08-14T12:22:59.000Z</time>
      </trkpt>
      <trkpt lat="42.4114657938480377197265625" lon="0.74484013952314853668212890625">
        <ele>1022.79998779296875</ele>
        <time>2020-08-14T12:23:01.000Z</time>
      </trkpt>
      <trkpt lat="42.4113385565578937530517578125" lon="0.7449005730450153350830078125">
        <ele>1022</ele>
        <time>2020-08-14T12:23:04.000Z</time>
      </trkpt>
      <trkpt lat="42.41128801368176937103271484375" lon="0.74491423554718494415283203125">
        <ele>1021.5999755859375</ele>
        <time>2020-08-14T12:23:05.000Z</time>
      </trkpt>
      <trkpt lat="42.4111236445605754852294921875" lon="0.744940303266048431396484375">
        <ele>1020.4000244140625</ele>
        <time>2020-08-14T12:23:08.000Z</time>
      </trkpt>
      <trkpt lat="42.41107159294188022613525390625" lon="0.74494021944701671600341796875">
        <ele>1020</ele>
        <time>2020-08-14T12:23:09.000Z</time>
      </trkpt>
      <trkpt lat="42.41097587160766124725341796875" lon="0.74493686668574810028076171875">
        <ele>1018.79998779296875</ele>
        <time>2020-08-14T12:23:11.000Z</time>
      </trkpt>
      <trkpt lat="42.41088350303471088409423828125" lon="0.74493066407740116119384765625">
        <ele>1018</ele>
        <time>2020-08-14T12:23:13.000Z</time>
      </trkpt>
      <trkpt lat="42.41083991713821887969970703125" lon="0.7449354417622089385986328125">
        <ele>1017.5999755859375</ele>
        <time>2020-08-14T12:23:14.000Z</time>
      </trkpt>
      <trkpt lat="42.410756014287471771240234375" lon="0.744971148669719696044921875">
        <ele>1017.20001220703125</ele>
        <time>2020-08-14T12:23:16.000Z</time>
      </trkpt>
      <trkpt lat="42.41068066097795963287353515625" lon="0.7450521178543567657470703125">
        <ele>1016.5999755859375</ele>
        <time>2020-08-14T12:23:18.000Z</time>
      </trkpt>
      <trkpt lat="42.4106157012283802032470703125" lon="0.74517105706036090850830078125">
        <ele>1015.5999755859375</ele>
        <time>2020-08-14T12:23:20.000Z</time>
      </trkpt>
      <trkpt lat="42.4105885438621044158935546875" lon="0.74523777700960636138916015625">
        <ele>1015.20001220703125</ele>
        <time>2020-08-14T12:23:21.000Z</time>
      </trkpt>
      <trkpt lat="42.41054655052721500396728515625" lon="0.74543056078255176544189453125">
        <ele>1013.4000244140625</ele>
        <time>2020-08-14T12:23:24.000Z</time>
      </trkpt>
      <trkpt lat="42.41054671816527843475341796875" lon="0.74554773978888988494873046875">
        <ele>1013</ele>
        <time>2020-08-14T12:23:26.000Z</time>
      </trkpt>
      <trkpt lat="42.4105431139469146728515625" lon="0.7456911541521549224853515625">
        <ele>1012.20001220703125</ele>
        <time>2020-08-14T12:23:28.000Z</time>
      </trkpt>
      <trkpt lat="42.41054034791886806488037109375" lon="0.74577203951776027679443359375">
        <ele>1011.4000244140625</ele>
        <time>2020-08-14T12:23:29.000Z</time>
      </trkpt>
      <trkpt lat="42.4105439521372318267822265625" lon="0.745855607092380523681640625">
        <ele>1011.20001220703125</ele>
        <time>2020-08-14T12:23:30.000Z</time>
      </trkpt>
      <trkpt lat="42.41055794991552829742431640625" lon="0.745936743915081024169921875">
        <ele>1011</ele>
        <time>2020-08-14T12:23:31.000Z</time>
      </trkpt>
      <trkpt lat="42.41060706786811351776123046875" lon="0.74608124792575836181640625">
        <ele>1010</ele>
        <time>2020-08-14T12:23:33.000Z</time>
      </trkpt>
      <trkpt lat="42.41063992492854595184326171875" lon="0.7461390830576419830322265625">
        <ele>1009.5999755859375</ele>
        <time>2020-08-14T12:23:34.000Z</time>
      </trkpt>
      <trkpt lat="42.4107239954173564910888671875" lon="0.74623639695346355438232421875">
        <ele>1008.79998779296875</ele>
        <time>2020-08-14T12:23:36.000Z</time>
      </trkpt>
      <trkpt lat="42.41077219136059284210205078125" lon="0.7462835870683193206787109375">
        <ele>1008.20001220703125</ele>
        <time>2020-08-14T12:23:37.000Z</time>
      </trkpt>
      <trkpt lat="42.41087528876960277557373046875" lon="0.74637453071773052215576171875">
        <ele>1007.20001220703125</ele>
        <time>2020-08-14T12:23:39.000Z</time>
      </trkpt>
      <trkpt lat="42.41102348081767559051513671875" lon="0.7465253211557865142822265625">
        <ele>1006.5999755859375</ele>
        <time>2020-08-14T12:23:42.000Z</time>
      </trkpt>
      <trkpt lat="42.4110599420964717864990234375" lon="0.7465809769928455352783203125">
        <ele>1006</ele>
        <time>2020-08-14T12:23:43.000Z</time>
      </trkpt>
      <trkpt lat="42.411096990108489990234375" lon="0.7467425800859928131103515625">
        <ele>1005</ele>
        <time>2020-08-14T12:23:46.000Z</time>
      </trkpt>
      <trkpt lat="42.411116771399974822998046875" lon="0.7468865811824798583984375">
        <ele>1004</ele>
        <time>2020-08-14T12:23:48.000Z</time>
      </trkpt>
      <trkpt lat="42.41113118827342987060546875" lon="0.74698070995509624481201171875">
        <ele>1003.5999755859375</ele>
        <time>2020-08-14T12:23:49.000Z</time>
      </trkpt>
      <trkpt lat="42.411166392266750335693359375" lon="0.74717449955642223358154296875">
        <ele>1002.79998779296875</ele>
        <time>2020-08-14T12:23:51.000Z</time>
      </trkpt>
      <trkpt lat="42.4111987464129924774169921875" lon="0.74732244014739990234375">
        <ele>1001</ele>
        <time>2020-08-14T12:23:53.000Z</time>
      </trkpt>
      <trkpt lat="42.411203272640705108642578125" lon="0.74737985618412494659423828125">
        <ele>1000.4000244140625</ele>
        <time>2020-08-14T12:23:54.000Z</time>
      </trkpt>
      <trkpt lat="42.41119665093719959259033203125" lon="0.74743450619280338287353515625">
        <ele>1000</ele>
        <time>2020-08-14T12:23:55.000Z</time>
      </trkpt>
      <trkpt lat="42.41118005476891994476318359375" lon="0.74749032966792583465576171875">
        <ele>999.79998779296875</ele>
        <time>2020-08-14T12:23:56.000Z</time>
      </trkpt>
      <trkpt lat="42.4111229740083217620849609375" lon="0.747604072093963623046875">
        <ele>999.20001220703125</ele>
        <time>2020-08-14T12:23:58.000Z</time>
      </trkpt>
      <trkpt lat="42.41108768619596958160400390625" lon="0.74766668491065502166748046875">
        <ele>998.79998779296875</ele>
        <time>2020-08-14T12:23:59.000Z</time>
      </trkpt>
      <trkpt lat="42.41104896180331707000732421875" lon="0.74773348867893218994140625">
        <ele>998.4000244140625</ele>
        <time>2020-08-14T12:24:00.000Z</time>
      </trkpt>
      <trkpt lat="42.410967908799648284912109375" lon="0.74787489138543605804443359375">
        <ele>997.20001220703125</ele>
        <time>2020-08-14T12:24:02.000Z</time>
      </trkpt>
      <trkpt lat="42.41090278141200542449951171875" lon="0.7480156235396862030029296875">
        <ele>996.4000244140625</ele>
        <time>2020-08-14T12:24:04.000Z</time>
      </trkpt>
      <trkpt lat="42.4108855985105037689208984375" lon="0.74809432961046695709228515625">
        <ele>995.79998779296875</ele>
        <time>2020-08-14T12:24:05.000Z</time>
      </trkpt>
      <trkpt lat="42.4108849279582500457763671875" lon="0.74826858937740325927734375">
        <ele>995.20001220703125</ele>
        <time>2020-08-14T12:24:07.000Z</time>
      </trkpt>
      <trkpt lat="42.4108923040330410003662109375" lon="0.748349726200103759765625">
        <ele>994.79998779296875</ele>
        <time>2020-08-14T12:24:08.000Z</time>
      </trkpt>
      <trkpt lat="42.41089691407978534698486328125" lon="0.7484234869480133056640625">
        <ele>994.4000244140625</ele>
        <time>2020-08-14T12:24:09.000Z</time>
      </trkpt>
      <trkpt lat="42.410894818603992462158203125" lon="0.7484910450875759124755859375">
        <ele>994</ele>
        <time>2020-08-14T12:24:10.000Z</time>
      </trkpt>
      <trkpt lat="42.410860620439052581787109375" lon="0.74859372340142726898193359375">
        <ele>993.20001220703125</ele>
        <time>2020-08-14T12:24:12.000Z</time>
      </trkpt>
      <trkpt lat="42.4108275957405567169189453125" lon="0.74861325323581695556640625">
        <ele>992.5999755859375</ele>
        <time>2020-08-14T12:24:13.000Z</time>
      </trkpt>
      <trkpt lat="42.41078962571918964385986328125" lon="0.74859841726720333099365234375">
        <ele>992</ele>
        <time>2020-08-14T12:24:14.000Z</time>
      </trkpt>
      <trkpt lat="42.41074721328914165496826171875" lon="0.74849112890660762786865234375">
        <ele>991.4000244140625</ele>
        <time>2020-08-14T12:24:16.000Z</time>
      </trkpt>
      <trkpt lat="42.41073413752019405364990234375" lon="0.74832248501479625701904296875">
        <ele>990.20001220703125</ele>
        <time>2020-08-14T12:24:18.000Z</time>
      </trkpt>
      <trkpt lat="42.4107085727155208587646484375" lon="0.748125426471233367919921875">
        <ele>988.5999755859375</ele>
        <time>2020-08-14T12:24:20.000Z</time>
      </trkpt>
      <trkpt lat="42.410690970718860626220703125" lon="0.7479354925453662872314453125">
        <ele>987.20001220703125</ele>
        <time>2020-08-14T12:24:22.000Z</time>
      </trkpt>
      <trkpt lat="42.41067362017929553985595703125" lon="0.74777112342417240142822265625">
        <ele>986</ele>
        <time>2020-08-14T12:24:24.000Z</time>
      </trkpt>
      <trkpt lat="42.4106576107442378997802734375" lon="0.74768328107893466949462890625">
        <ele>984.79998779296875</ele>
        <time>2020-08-14T12:24:25.000Z</time>
      </trkpt>
      <trkpt lat="42.41063766181468963623046875" lon="0.747606419026851654052734375">
        <ele>984</ele>
        <time>2020-08-14T12:24:26.000Z</time>
      </trkpt>
      <trkpt lat="42.410611845552921295166015625" lon="0.74754238128662109375">
        <ele>983.79998779296875</ele>
        <time>2020-08-14T12:24:27.000Z</time>
      </trkpt>
      <trkpt lat="42.41058007813990116119384765625" lon="0.74749301187694072723388671875">
        <ele>983</ele>
        <time>2020-08-14T12:24:28.000Z</time>
      </trkpt>
      <trkpt lat="42.4105074070394039154052734375" lon="0.74743534438312053680419921875">
        <ele>982.5999755859375</ele>
        <time>2020-08-14T12:24:30.000Z</time>
      </trkpt>
      <trkpt lat="42.41043020971119403839111328125" lon="0.7473796047270298004150390625">
        <ele>982.5999755859375</ele>
        <time>2020-08-14T12:24:32.000Z</time>
      </trkpt>
      <trkpt lat="42.41039115004241466522216796875" lon="0.74734247289597988128662109375">
        <ele>982.5999755859375</ele>
        <time>2020-08-14T12:24:33.000Z</time>
      </trkpt>
      <trkpt lat="42.41022854112088680267333984375" lon="0.74719646014273166656494140625">
        <ele>982</ele>
        <time>2020-08-14T12:24:37.000Z</time>
      </trkpt>
      <trkpt lat="42.41019283421337604522705078125" lon="0.74714985676109790802001953125">
        <ele>981.5999755859375</ele>
        <time>2020-08-14T12:24:38.000Z</time>
      </trkpt>
      <trkpt lat="42.4101302213966846466064453125" lon="0.747024714946746826171875">
        <ele>980.79998779296875</ele>
        <time>2020-08-14T12:24:40.000Z</time>
      </trkpt>
      <trkpt lat="42.41010096855461597442626953125" lon="0.74695698916912078857421875">
        <ele>980.4000244140625</ele>
        <time>2020-08-14T12:24:41.000Z</time>
      </trkpt>
      <trkpt lat="42.41003843955695629119873046875" lon="0.74683226644992828369140625">
        <ele>979.4000244140625</ele>
        <time>2020-08-14T12:24:43.000Z</time>
      </trkpt>
      <trkpt lat="42.40995705127716064453125" lon="0.74673696421086788177490234375">
        <ele>978.5999755859375</ele>
        <time>2020-08-14T12:24:45.000Z</time>
      </trkpt>
      <trkpt lat="42.40986543707549571990966796875" lon="0.7466668076813220977783203125">
        <ele>978</ele>
        <time>2020-08-14T12:24:47.000Z</time>
      </trkpt>
      <trkpt lat="42.40972361527383327484130859375" lon="0.746574103832244873046875">
        <ele>976.5999755859375</ele>
        <time>2020-08-14T12:24:50.000Z</time>
      </trkpt>
      <trkpt lat="42.40967751480638980865478515625" lon="0.74656027369201183319091796875">
        <ele>976.20001220703125</ele>
        <time>2020-08-14T12:24:51.000Z</time>
      </trkpt>
      <trkpt lat="42.40963719785213470458984375" lon="0.746567733585834503173828125">
        <ele>975.5999755859375</ele>
        <time>2020-08-14T12:24:52.000Z</time>
      </trkpt>
      <trkpt lat="42.40959319286048412322998046875" lon="0.746651552617549896240234375">
        <ele>974.79998779296875</ele>
        <time>2020-08-14T12:24:54.000Z</time>
      </trkpt>
      <trkpt lat="42.40959989838302135467529296875" lon="0.74670645408332347869873046875">
        <ele>974.5999755859375</ele>
        <time>2020-08-14T12:24:55.000Z</time>
      </trkpt>
      <trkpt lat="42.40966192446649074554443359375" lon="0.74678943492472171783447265625">
        <ele>973.79998779296875</ele>
        <time>2020-08-14T12:24:57.000Z</time>
      </trkpt>
      <trkpt lat="42.4097087793052196502685546875" lon="0.74682229198515415191650390625">
        <ele>973.4000244140625</ele>
        <time>2020-08-14T12:24:58.000Z</time>
      </trkpt>
      <trkpt lat="42.4098120443522930145263671875" lon="0.74690124951303005218505859375">
        <ele>972</ele>
        <time>2020-08-14T12:25:00.000Z</time>
      </trkpt>
      <trkpt lat="42.40985906682908535003662109375" lon="0.74695606715977191925048828125">
        <ele>971.20001220703125</ele>
        <time>2020-08-14T12:25:01.000Z</time>
      </trkpt>
      <trkpt lat="42.40989913232624530792236328125" lon="0.74702245183289051055908203125">
        <ele>970.5999755859375</ele>
        <time>2020-08-14T12:25:02.000Z</time>
      </trkpt>
      <trkpt lat="42.4099528603255748748779296875" lon="0.74718296527862548828125">
        <ele>970</ele>
        <time>2020-08-14T12:25:04.000Z</time>
      </trkpt>
      <trkpt lat="42.4099723063409328460693359375" lon="0.74726820923388004302978515625">
        <ele>969.5999755859375</ele>
        <time>2020-08-14T12:25:05.000Z</time>
      </trkpt>
      <trkpt lat="42.41004564799368381500244140625" lon="0.74762678705155849456787109375">
        <ele>968.20001220703125</ele>
        <time>2020-08-14T12:25:09.000Z</time>
      </trkpt>
      <trkpt lat="42.4100517667829990386962890625" lon="0.74771203100681304931640625">
        <ele>967.5999755859375</ele>
        <time>2020-08-14T12:25:10.000Z</time>
      </trkpt>
      <trkpt lat="42.41004682146012783050537109375" lon="0.74779576621949672698974609375">
        <ele>966.79998779296875</ele>
        <time>2020-08-14T12:25:11.000Z</time>
      </trkpt>
      <trkpt lat="42.40999661386013031005859375" lon="0.7479566149413585662841796875">
        <ele>965.79998779296875</ele>
        <time>2020-08-14T12:25:13.000Z</time>
      </trkpt>
      <trkpt lat="42.4099163152277469635009765625" lon="0.7480863668024539947509765625">
        <ele>965</ele>
        <time>2020-08-14T12:25:15.000Z</time>
      </trkpt>
      <trkpt lat="42.40988127887248992919921875" lon="0.74815057218074798583984375">
        <ele>964</ele>
        <time>2020-08-14T12:25:16.000Z</time>
      </trkpt>
      <trkpt lat="42.4098564684391021728515625" lon="0.7482201419770717620849609375">
        <ele>963.4000244140625</ele>
        <time>2020-08-14T12:25:17.000Z</time>
      </trkpt>
      <trkpt lat="42.40984247066080570220947265625" lon="0.7482947409152984619140625">
        <ele>962.79998779296875</ele>
        <time>2020-08-14T12:25:18.000Z</time>
      </trkpt>
      <trkpt lat="42.40984096191823482513427734375" lon="0.74846682138741016387939453125">
        <ele>961.79998779296875</ele>
        <time>2020-08-14T12:25:20.000Z</time>
      </trkpt>
      <trkpt lat="42.4098485894501209259033203125" lon="0.7485621236264705657958984375">
        <ele>961.20001220703125</ele>
        <time>2020-08-14T12:25:21.000Z</time>
      </trkpt>
      <trkpt lat="42.40985889919102191925048828125" lon="0.7486573420464992523193359375">
        <ele>960.4000244140625</ele>
        <time>2020-08-14T12:25:22.000Z</time>
      </trkpt>
      <trkpt lat="42.4098780937492847442626953125" lon="0.74883210472762584686279296875">
        <ele>959.5999755859375</ele>
        <time>2020-08-14T12:25:24.000Z</time>
      </trkpt>
      <trkpt lat="42.4098854698240756988525390625" lon="0.74891634285449981689453125">
        <ele>959.4000244140625</ele>
        <time>2020-08-14T12:25:25.000Z</time>
      </trkpt>
      <trkpt lat="42.409906089305877685546875" lon="0.74918129481375217437744140625">
        <ele>958.20001220703125</ele>
        <time>2020-08-14T12:25:28.000Z</time>
      </trkpt>
      <trkpt lat="42.409924529492855072021484375" lon="0.7494321651756763458251953125">
        <ele>957</ele>
        <time>2020-08-14T12:25:31.000Z</time>
      </trkpt>
      <trkpt lat="42.40992863662540912628173828125" lon="0.74950751848518848419189453125">
        <ele>956.4000244140625</ele>
        <time>2020-08-14T12:25:32.000Z</time>
      </trkpt>
      <trkpt lat="42.409923188388347625732421875" lon="0.7496417127549648284912109375">
        <ele>955.79998779296875</ele>
        <time>2020-08-14T12:25:34.000Z</time>
      </trkpt>
      <trkpt lat="42.40987197495996952056884765625" lon="0.7497379370033740997314453125">
        <ele>955.20001220703125</ele>
        <time>2020-08-14T12:25:36.000Z</time>
      </trkpt>
      <trkpt lat="42.40982939489185810089111328125" lon="0.74975646100938320159912109375">
        <ele>954.79998779296875</ele>
        <time>2020-08-14T12:25:37.000Z</time>
      </trkpt>
      <trkpt lat="42.409739457070827484130859375" lon="0.74971220456063747406005859375">
        <ele>953.79998779296875</ele>
        <time>2020-08-14T12:25:39.000Z</time>
      </trkpt>
      <trkpt lat="42.40970701910555362701416015625" lon="0.749658308923244476318359375">
        <ele>953.4000244140625</ele>
        <time>2020-08-14T12:25:40.000Z</time>
      </trkpt>
      <trkpt lat="42.40966645069420337677001953125" lon="0.74951581656932830810546875">
        <ele>952.79998779296875</ele>
        <time>2020-08-14T12:25:42.000Z</time>
      </trkpt>
      <trkpt lat="42.409648261964321136474609375" lon="0.74943359009921550750732421875">
        <ele>952.4000244140625</ele>
        <time>2020-08-14T12:25:43.000Z</time>
      </trkpt>
      <trkpt lat="42.40957441739737987518310546875" lon="0.74909512884914875030517578125">
        <ele>951</ele>
        <time>2020-08-14T12:25:47.000Z</time>
      </trkpt>
      <trkpt lat="42.40954239852726459503173828125" lon="0.7489339448511600494384765625">
        <ele>950</ele>
        <time>2020-08-14T12:25:49.000Z</time>
      </trkpt>
      <trkpt lat="42.40948322229087352752685546875" lon="0.748684667050838470458984375">
        <ele>948.79998779296875</ele>
        <time>2020-08-14T12:25:52.000Z</time>
      </trkpt>
      <trkpt lat="42.4094271473586559295654296875" lon="0.7484481297433376312255859375">
        <ele>947.4000244140625</ele>
        <time>2020-08-14T12:25:55.000Z</time>
      </trkpt>
      <trkpt lat="42.409382723271846771240234375" lon="0.7482211478054523468017578125">
        <ele>946.20001220703125</ele>
        <time>2020-08-14T12:25:58.000Z</time>
      </trkpt>
      <trkpt lat="42.4093393050134181976318359375" lon="0.74790003709495067596435546875">
        <ele>945</ele>
        <time>2020-08-14T12:26:02.000Z</time>
      </trkpt>
      <trkpt lat="42.4093235470354557037353515625" lon="0.7476711273193359375">
        <ele>943.79998779296875</ele>
        <time>2020-08-14T12:26:05.000Z</time>
      </trkpt>
      <trkpt lat="42.40931332111358642578125" lon="0.74744506739079952239990234375">
        <ele>942.79998779296875</ele>
        <time>2020-08-14T12:26:08.000Z</time>
      </trkpt>
      <trkpt lat="42.409304268658161163330078125" lon="0.7473792694509029388427734375">
        <ele>942.4000244140625</ele>
        <time>2020-08-14T12:26:09.000Z</time>
      </trkpt>
      <trkpt lat="42.40921852178871631622314453125" lon="0.747291259467601776123046875">
        <ele>941.4000244140625</ele>
        <time>2020-08-14T12:26:12.000Z</time>
      </trkpt>
      <trkpt lat="42.40915448404848575592041015625" lon="0.7474138028919696807861328125">
        <ele>940.20001220703125</ele>
        <time>2020-08-14T12:26:15.000Z</time>
      </trkpt>
      <trkpt lat="42.40914744324982166290283203125" lon="0.74764422141015529632568359375">
        <ele>939</ele>
        <time>2020-08-14T12:26:18.000Z</time>
      </trkpt>
      <trkpt lat="42.40913704968988895416259765625" lon="0.74780800379812717437744140625">
        <ele>938.20001220703125</ele>
        <time>2020-08-14T12:26:20.000Z</time>
      </trkpt>
      <trkpt lat="42.4091294221580028533935546875" lon="0.74788033962249755859375">
        <ele>937.79998779296875</ele>
        <time>2020-08-14T12:26:21.000Z</time>
      </trkpt>
      <trkpt lat="42.4091161787509918212890625" lon="0.74794697575271129608154296875">
        <ele>937.4000244140625</ele>
        <time>2020-08-14T12:26:22.000Z</time>
      </trkpt>
      <trkpt lat="42.40906965918838977813720703125" lon="0.7480680942535400390625">
        <ele>936.79998779296875</ele>
        <time>2020-08-14T12:26:24.000Z</time>
      </trkpt>
      <trkpt lat="42.40903931669890880584716796875" lon="0.74811830185353755950927734375">
        <ele>936.5999755859375</ele>
        <time>2020-08-14T12:26:25.000Z</time>
      </trkpt>
      <trkpt lat="42.4090070463716983795166015625" lon="0.74816406704485416412353515625">
        <ele>936.4000244140625</ele>
        <time>2020-08-14T12:26:26.000Z</time>
      </trkpt>
      <trkpt lat="42.4089713394641876220703125" lon="0.748207569122314453125">
        <ele>936.20001220703125</ele>
        <time>2020-08-14T12:26:27.000Z</time>
      </trkpt>
      <trkpt lat="42.408895231783390045166015625" lon="0.74828736484050750732421875">
        <ele>935.5999755859375</ele>
        <time>2020-08-14T12:26:29.000Z</time>
      </trkpt>
      <trkpt lat="42.40886069834232330322265625" lon="0.7483294419944286346435546875">
        <ele>935.4000244140625</ele>
        <time>2020-08-14T12:26:30.000Z</time>
      </trkpt>
      <trkpt lat="42.4087840877473354339599609375" lon="0.7484756223857402801513671875">
        <ele>934.5999755859375</ele>
        <time>2020-08-14T12:26:33.000Z</time>
      </trkpt>
      <trkpt lat="42.40876439027488231658935546875" lon="0.7485254108905792236328125">
        <ele>934.4000244140625</ele>
        <time>2020-08-14T12:26:34.000Z</time>
      </trkpt>
      <trkpt lat="42.40874779410660266876220703125" lon="0.74857863597571849822998046875">
        <ele>934.20001220703125</ele>
        <time>2020-08-14T12:26:35.000Z</time>
      </trkpt>
      <trkpt lat="42.4087475426495075225830078125" lon="0.74875750578939914703369140625">
        <ele>933.5999755859375</ele>
        <time>2020-08-14T12:26:38.000Z</time>
      </trkpt>
      <trkpt lat="42.40876019932329654693603515625" lon="0.74881852604448795318603515625">
        <ele>933</ele>
        <time>2020-08-14T12:26:39.000Z</time>
      </trkpt>
      <trkpt lat="42.40882038138806819915771484375" lon="0.74899069033563137054443359375">
        <ele>931.79998779296875</ele>
        <time>2020-08-14T12:26:42.000Z</time>
      </trkpt>
      <trkpt lat="42.40884737111628055572509765625" lon="0.7490385510027408599853515625">
        <ele>931.4000244140625</ele>
        <time>2020-08-14T12:26:43.000Z</time>
      </trkpt>
      <trkpt lat="42.40887352265417575836181640625" lon="0.74907987378537654876708984375">
        <ele>931.4000244140625</ele>
        <time>2020-08-14T12:26:44.000Z</time>
      </trkpt>
      <trkpt lat="42.4089255742728710174560546875" lon="0.74915950186550617218017578125">
        <ele>931.20001220703125</ele>
        <time>2020-08-14T12:26:46.000Z</time>
      </trkpt>
      <trkpt lat="42.40898944437503814697265625" lon="0.7492353580892086029052734375">
        <ele>930.79998779296875</ele>
        <time>2020-08-14T12:26:48.000Z</time>
      </trkpt>
      <trkpt lat="42.409025318920612335205078125" lon="0.74927709996700286865234375">
        <ele>930.5999755859375</ele>
        <time>2020-08-14T12:26:49.000Z</time>
      </trkpt>
      <trkpt lat="42.4091215431690216064453125" lon="0.749422274529933929443359375">
        <ele>929.20001220703125</ele>
        <time>2020-08-14T12:26:52.000Z</time>
      </trkpt>
      <trkpt lat="42.40915096364915370941162109375" lon="0.74952185153961181640625">
        <ele>928.20001220703125</ele>
        <time>2020-08-14T12:26:54.000Z</time>
      </trkpt>
      <trkpt lat="42.40914224646985530853271484375" lon="0.749565102159976959228515625">
        <ele>928</ele>
        <time>2020-08-14T12:26:55.000Z</time>
      </trkpt>
      <trkpt lat="42.40907929837703704833984375" lon="0.7496014796197414398193359375">
        <ele>927.5999755859375</ele>
        <time>2020-08-14T12:26:57.000Z</time>
      </trkpt>
      <trkpt lat="42.40899749100208282470703125" lon="0.74955278076231479644775390625">
        <ele>926.79998779296875</ele>
        <time>2020-08-14T12:26:59.000Z</time>
      </trkpt>
      <trkpt lat="42.4089591018855571746826171875" lon="0.74951045215129852294921875">
        <ele>926</ele>
        <time>2020-08-14T12:27:00.000Z</time>
      </trkpt>
      <trkpt lat="42.4089158512651920318603515625" lon="0.74946795590221881866455078125">
        <ele>925.5999755859375</ele>
        <time>2020-08-14T12:27:01.000Z</time>
      </trkpt>
      <trkpt lat="42.4087740294635295867919921875" lon="0.74937055818736553192138671875">
        <ele>924.4000244140625</ele>
        <time>2020-08-14T12:27:04.000Z</time>
      </trkpt>
      <trkpt lat="42.408726923167705535888671875" lon="0.74934625066816806793212890625">
        <ele>923.79998779296875</ele>
        <time>2020-08-14T12:27:05.000Z</time>
      </trkpt>
      <trkpt lat="42.40867855958640575408935546875" lon="0.74932412244379520416259765625">
        <ele>923.4000244140625</ele>
        <time>2020-08-14T12:27:06.000Z</time>
      </trkpt>
      <trkpt lat="42.4084571935236454010009765625" lon="0.7492279820144176483154296875">
        <ele>922</ele>
        <time>2020-08-14T12:27:11.000Z</time>
      </trkpt>
      <trkpt lat="42.40832819603383541107177734375" lon="0.7491662912070751190185546875">
        <ele>920.79998779296875</ele>
        <time>2020-08-14T12:27:14.000Z</time>
      </trkpt>
      <trkpt lat="42.408167682588100433349609375" lon="0.74908104725182056427001953125">
        <ele>919.79998779296875</ele>
        <time>2020-08-14T12:27:18.000Z</time>
      </trkpt>
      <trkpt lat="42.40813055075705051422119140625" lon="0.74905238114297389984130859375">
        <ele>919.5999755859375</ele>
        <time>2020-08-14T12:27:19.000Z</time>
      </trkpt>
      <trkpt lat="42.40801387466490268707275390625" lon="0.74886663816869258880615234375">
        <ele>918.5999755859375</ele>
        <time>2020-08-14T12:27:23.000Z</time>
      </trkpt>
      <trkpt lat="42.40796341560781002044677734375" lon="0.748688019812107086181640625">
        <ele>917.5999755859375</ele>
        <time>2020-08-14T12:27:26.000Z</time>
      </trkpt>
      <trkpt lat="42.40796073339879512786865234375" lon="0.74855533428490161895751953125">
        <ele>916.79998779296875</ele>
        <time>2020-08-14T12:27:28.000Z</time>
      </trkpt>
      <trkpt lat="42.4079693667590618133544921875" lon="0.748488865792751312255859375">
        <ele>916.4000244140625</ele>
        <time>2020-08-14T12:27:29.000Z</time>
      </trkpt>
      <trkpt lat="42.4079807661473751068115234375" lon="0.74842415750026702880859375">
        <ele>916</ele>
        <time>2020-08-14T12:27:30.000Z</time>
      </trkpt>
      <trkpt lat="42.40804991684854030609130859375" lon="0.74816876091063022613525390625">
        <ele>915.20001220703125</ele>
        <time>2020-08-14T12:27:34.000Z</time>
      </trkpt>
      <trkpt lat="42.408110685646533966064453125" lon="0.74800296686589717864990234375">
        <ele>914</ele>
        <time>2020-08-14T12:27:37.000Z</time>
      </trkpt>
      <trkpt lat="42.4081373400986194610595703125" lon="0.74794848449528217315673828125">
        <ele>913.5999755859375</ele>
        <time>2020-08-14T12:27:38.000Z</time>
      </trkpt>
      <trkpt lat="42.40820816718041896820068359375" lon="0.74785284698009490966796875">
        <ele>913</ele>
        <time>2020-08-14T12:27:40.000Z</time>
      </trkpt>
      <trkpt lat="42.408336661756038665771484375" lon="0.74773751199245452880859375">
        <ele>911.79998779296875</ele>
        <time>2020-08-14T12:27:43.000Z</time>
      </trkpt>
      <trkpt lat="42.40838049910962581634521484375" lon="0.74769685976207256317138671875">
        <ele>911.4000244140625</ele>
        <time>2020-08-14T12:27:44.000Z</time>
      </trkpt>
      <trkpt lat="42.4084524996578693389892578125" lon="0.74759644456207752227783203125">
        <ele>910.79998779296875</ele>
        <time>2020-08-14T12:27:46.000Z</time>
      </trkpt>
      <trkpt lat="42.4084809981286525726318359375" lon="0.7474081031978130340576171875">
        <ele>910</ele>
        <time>2020-08-14T12:27:49.000Z</time>
      </trkpt>
      <trkpt lat="42.40847043693065643310546875" lon="0.74734188616275787353515625">
        <ele>909.20001220703125</ele>
        <time>2020-08-14T12:27:50.000Z</time>
      </trkpt>
      <trkpt lat="42.408457696437835693359375" lon="0.747276842594146728515625">
        <ele>908.5999755859375</ele>
        <time>2020-08-14T12:27:51.000Z</time>
      </trkpt>
      <trkpt lat="42.40844638086855411529541015625" lon="0.74721288867294788360595703125">
        <ele>908</ele>
        <time>2020-08-14T12:27:52.000Z</time>
      </trkpt>
      <trkpt lat="42.4084183014929294586181640625" lon="0.7470862381160259246826171875">
        <ele>907.5999755859375</ele>
        <time>2020-08-14T12:27:54.000Z</time>
      </trkpt>
      <trkpt lat="42.40840061567723751068115234375" lon="0.7470185123383998870849609375">
        <ele>907.4000244140625</ele>
        <time>2020-08-14T12:27:55.000Z</time>
      </trkpt>
      <trkpt lat="42.4083827622234821319580078125" lon="0.74694667942821979522705078125">
        <ele>907</ele>
        <time>2020-08-14T12:27:56.000Z</time>
      </trkpt>
      <trkpt lat="42.408292405307292938232421875" lon="0.74667292647063732147216796875">
        <ele>906.20001220703125</ele>
        <time>2020-08-14T12:28:00.000Z</time>
      </trkpt>
      <trkpt lat="42.40827974863350391387939453125" lon="0.7466091401875019073486328125">
        <ele>906</ele>
        <time>2020-08-14T12:28:01.000Z</time>
      </trkpt>
      <trkpt lat="42.40829165093600749969482421875" lon="0.746463127434253692626953125">
        <ele>905.79998779296875</ele>
        <time>2020-08-14T12:28:03.000Z</time>
      </trkpt>
      <trkpt lat="42.4083532579243183135986328125" lon="0.74629716575145721435546875">
        <ele>904.79998779296875</ele>
        <time>2020-08-14T12:28:05.000Z</time>
      </trkpt>
      <trkpt lat="42.40839441306889057159423828125" lon="0.7462054677307605743408203125">
        <ele>904</ele>
        <time>2020-08-14T12:28:06.000Z</time>
      </trkpt>
      <trkpt lat="42.4084400944411754608154296875" lon="0.74610698036849498748779296875">
        <ele>903.4000244140625</ele>
        <time>2020-08-14T12:28:07.000Z</time>
      </trkpt>
      <trkpt lat="42.4085272662341594696044921875" lon="0.745889805257320404052734375">
        <ele>901.5999755859375</ele>
        <time>2020-08-14T12:28:09.000Z</time>
      </trkpt>
      <trkpt lat="42.4085896275937557220458984375" lon="0.74564832262694835662841796875">
        <ele>900.20001220703125</ele>
        <time>2020-08-14T12:28:11.000Z</time>
      </trkpt>
      <trkpt lat="42.4086144380271434783935546875" lon="0.7455235160887241363525390625">
        <ele>899.20001220703125</ele>
        <time>2020-08-14T12:28:12.000Z</time>
      </trkpt>
      <trkpt lat="42.4086610414087772369384765625" lon="0.74526627548038959503173828125">
        <ele>898</ele>
        <time>2020-08-14T12:28:14.000Z</time>
      </trkpt>
      <trkpt lat="42.40870119072496891021728515625" lon="0.74486327357590198516845703125">
        <ele>897</ele>
        <time>2020-08-14T12:28:17.000Z</time>
      </trkpt>
      <trkpt lat="42.408706136047840118408203125" lon="0.744471251964569091796875">
        <ele>895.5999755859375</ele>
        <time>2020-08-14T12:28:20.000Z</time>
      </trkpt>
      <trkpt lat="42.40872248075902462005615234375" lon="0.74423949234187602996826171875">
        <ele>895.4000244140625</ele>
        <time>2020-08-14T12:28:22.000Z</time>
      </trkpt>
      <trkpt lat="42.40876086987555027008056640625" lon="0.74398920871317386627197265625">
        <ele>896.20001220703125</ele>
        <time>2020-08-14T12:28:25.000Z</time>
      </trkpt>
      <trkpt lat="42.40878417156636714935302734375" lon="0.74387957341969013214111328125">
        <ele>897.20001220703125</ele>
        <time>2020-08-14T12:28:27.000Z</time>
      </trkpt>
      <trkpt lat="42.4088025279343128204345703125" lon="0.74379441328346729278564453125">
        <ele>898.4000244140625</ele>
        <time>2020-08-14T12:28:29.000Z</time>
      </trkpt>
      <trkpt lat="42.4088176153600215911865234375" lon="0.74372501112520694732666015625">
        <ele>899</ele>
        <time>2020-08-14T12:28:33.000Z</time>
      </trkpt>
      <trkpt lat="42.40881669335067272186279296875" lon="0.74372467584908008575439453125">
        <ele>899</ele>
        <time>2020-08-14T12:28:35.000Z</time>
      </trkpt>
      <trkpt lat="42.40855048410594463348388671875" lon="0.74263326823711395263671875">
        <ele>891.5999755859375</ele>
        <time>2020-08-14T12:29:51.000Z</time>
      </trkpt>
      <trkpt lat="42.4085259251296520233154296875" lon="0.74258255772292613983154296875">
        <ele>891.5999755859375</ele>
        <time>2020-08-14T12:29:52.000Z</time>
      </trkpt>
      <trkpt lat="42.40844906307756900787353515625" lon="0.7424235530197620391845703125">
        <ele>890.5999755859375</ele>
        <time>2020-08-14T12:29:55.000Z</time>
      </trkpt>
      <trkpt lat="42.408385612070560455322265625" lon="0.7422961480915546417236328125">
        <ele>890</ele>
        <time>2020-08-14T12:29:58.000Z</time>
      </trkpt>
      <trkpt lat="42.40837253630161285400390625" lon="0.74227410368621349334716796875">
        <ele>889.5999755859375</ele>
        <time>2020-08-14T12:30:00.000Z</time>
      </trkpt>
      <trkpt lat="42.408372201025485992431640625" lon="0.742273516952991485595703125">
        <ele>889.4000244140625</ele>
        <time>2020-08-14T12:30:01.000Z</time>
      </trkpt>
      <trkpt lat="42.40836859680712223052978515625" lon="0.74226823635399341583251953125">
        <ele>889.20001220703125</ele>
        <time>2020-08-14T12:30:06.000Z</time>
      </trkpt>
      <trkpt lat="42.40834479220211505889892578125" lon="0.742231942713260650634765625">
        <ele>889.4000244140625</ele>
        <time>2020-08-14T12:30:09.000Z</time>
      </trkpt>
      <trkpt lat="42.40827329456806182861328125" lon="0.74203387834131717681884765625">
        <ele>888.79998779296875</ele>
        <time>2020-08-14T12:30:17.000Z</time>
      </trkpt>
      <trkpt lat="42.408266924321651458740234375" lon="0.742009989917278289794921875">
        <ele>888.79998779296875</ele>
        <time>2020-08-14T12:30:21.000Z</time>
      </trkpt>
      <trkpt lat="42.4082680977880954742431640625" lon="0.7420078106224536895751953125">
        <ele>889</ele>
        <time>2020-08-14T12:30:35.000Z</time>
      </trkpt>
      <trkpt lat="42.4082701094448566436767578125" lon="0.74199666269123554229736328125">
        <ele>889</ele>
        <time>2020-08-14T12:30:36.000Z</time>
      </trkpt>
      <trkpt lat="42.40827572531998157501220703125" lon="0.741975121200084686279296875">
        <ele>889</ele>
        <time>2020-08-14T12:30:37.000Z</time>
      </trkpt>
      <trkpt lat="42.40833842195570468902587890625" lon="0.74189205653965473175048828125">
        <ele>889.4000244140625</ele>
        <time>2020-08-14T12:30:42.000Z</time>
      </trkpt>
      <trkpt lat="42.4084022082388401031494140625" lon="0.741816870868206024169921875">
        <ele>890</ele>
        <time>2020-08-14T12:30:47.000Z</time>
      </trkpt>
      <trkpt lat="42.40846549160778522491455078125" lon="0.74175744317471981048583984375">
        <ele>890.5999755859375</ele>
        <time>2020-08-14T12:30:51.000Z</time>
      </trkpt>
      <trkpt lat="42.40854763425886631011962890625" lon="0.7416916452348232269287109375">
        <ele>891.20001220703125</ele>
        <time>2020-08-14T12:30:56.000Z</time>
      </trkpt>
      <trkpt lat="42.408602200448513031005859375" lon="0.741619057953357696533203125">
        <ele>891.4000244140625</ele>
        <time>2020-08-14T12:31:00.000Z</time>
      </trkpt>
      <trkpt lat="42.408731281757354736328125" lon="0.741507746279239654541015625">
        <ele>891.20001220703125</ele>
        <time>2020-08-14T12:31:08.000Z</time>
      </trkpt>
      <trkpt lat="42.40887100808322429656982421875" lon="0.7413640804588794708251953125">
        <ele>891.79998779296875</ele>
        <time>2020-08-14T12:31:18.000Z</time>
      </trkpt>
      <trkpt lat="42.408929429948329925537109375" lon="0.7413397729396820068359375">
        <ele>891.5999755859375</ele>
        <time>2020-08-14T12:31:23.000Z</time>
      </trkpt>
      <trkpt lat="42.40892465226352214813232421875" lon="0.741326697170734405517578125">
        <ele>892</ele>
        <time>2020-08-14T12:31:26.000Z</time>
      </trkpt>
      <trkpt lat="42.409289181232452392578125" lon="0.7409070990979671478271484375">
        <ele>892</ele>
        <time>2020-08-14T12:32:40.000Z</time>
      </trkpt>
      <trkpt lat="42.409290187060832977294921875" lon="0.74090768583118915557861328125">
        <ele>892</ele>
        <time>2020-08-14T12:32:42.000Z</time>
      </trkpt>
      <trkpt lat="42.40929043851792812347412109375" lon="0.74090751819312572479248046875">
        <ele>892.20001220703125</ele>
        <time>2020-08-14T12:32:44.000Z</time>
      </trkpt>
      <trkpt lat="42.4084766395390033721923828125" lon="0.74171687476336956024169921875">
        <ele>841.20001220703125</ele>
        <time>2020-08-15T05:14:20.000Z</time>
      </trkpt>
      <trkpt lat="42.40849348716437816619873046875" lon="0.74171201325953006744384765625">
        <ele>841.4000244140625</ele>
        <time>2020-08-15T05:14:24.000Z</time>
      </trkpt>
      <trkpt lat="42.40851678885519504547119140625" lon="0.74169189669191837310791015625">
        <ele>841.4000244140625</ele>
        <time>2020-08-15T05:14:32.000Z</time>
      </trkpt>
      <trkpt lat="42.40852785296738147735595703125" lon="0.74167647399008274078369140625">
        <ele>841.4000244140625</ele>
        <time>2020-08-15T05:14:33.000Z</time>
      </trkpt>
      <trkpt lat="42.40855601616203784942626953125" lon="0.7416862808167934417724609375">
        <ele>841.4000244140625</ele>
        <time>2020-08-15T05:14:36.000Z</time>
      </trkpt>
      <trkpt lat="42.40862307138741016387939453125" lon="0.7417342253029346466064453125">
        <ele>841.5999755859375</ele>
        <time>2020-08-15T05:14:42.000Z</time>
      </trkpt>
      <trkpt lat="42.40869683213531970977783203125" lon="0.74172408320009708404541015625">
        <ele>841.5999755859375</ele>
        <time>2020-08-15T05:14:46.000Z</time>
      </trkpt>
      <trkpt lat="42.40881551988422870635986328125" lon="0.74170463718473911285400390625">
        <ele>842</ele>
        <time>2020-08-15T05:14:57.000Z</time>
      </trkpt>
      <trkpt lat="42.40894510410726070404052734375" lon="0.74137522839009761810302734375">
        <ele>842.4000244140625</ele>
        <time>2020-08-15T05:15:05.000Z</time>
      </trkpt>
      <trkpt lat="42.408947534859180450439453125" lon="0.74139132164418697357177734375">
        <ele>842.79998779296875</ele>
        <time>2020-08-15T05:15:06.000Z</time>
      </trkpt>
      <trkpt lat="42.40895030088722705841064453125" lon="0.74140137992799282073974609375">
        <ele>842.79998779296875</ele>
        <time>2020-08-15T05:15:08.000Z</time>
      </trkpt>
      <trkpt lat="42.40896237082779407501220703125" lon="0.74142518453299999237060546875">
        <ele>842.79998779296875</ele>
        <time>2020-08-15T05:15:15.000Z</time>
      </trkpt>
      <trkpt lat="42.408989109098911285400390625" lon="0.74145921505987644195556640625">
        <ele>843.20001220703125</ele>
        <time>2020-08-15T05:15:22.000Z</time>
      </trkpt>
      <trkpt lat="42.40899858064949512481689453125" lon="0.7414603047072887420654296875">
        <ele>843</ele>
        <time>2020-08-15T05:15:23.000Z</time>
      </trkpt>
      <trkpt lat="42.4090120755136013031005859375" lon="0.74148201383650302886962890625">
        <ele>843</ele>
        <time>2020-08-15T05:15:29.000Z</time>
      </trkpt>
      <trkpt lat="42.4090650491416454315185546875" lon="0.74145921505987644195556640625">
        <ele>842.5999755859375</ele>
        <time>2020-08-15T05:15:34.000Z</time>
      </trkpt>
      <trkpt lat="42.40906764753162860870361328125" lon="0.74144261889159679412841796875">
        <ele>842.79998779296875</ele>
        <time>2020-08-15T05:15:42.000Z</time>
      </trkpt>
      <trkpt lat="42.4090744368731975555419921875" lon="0.7414321415126323699951171875">
        <ele>842.79998779296875</ele>
        <time>2020-08-15T05:15:44.000Z</time>
      </trkpt>
      <trkpt lat="42.40903613157570362091064453125" lon="0.74134186841547489166259765625">
        <ele>842.79998779296875</ele>
        <time>2020-08-15T05:15:50.000Z</time>
      </trkpt>
      <trkpt lat="42.40904166363179683685302734375" lon="0.7413318939507007598876953125">
        <ele>842.5999755859375</ele>
        <time>2020-08-15T05:15:51.000Z</time>
      </trkpt>
      <trkpt lat="42.40896656177937984466552734375" lon="0.74127472937107086181640625">
        <ele>842.4000244140625</ele>
        <time>2020-08-15T05:15:57.000Z</time>
      </trkpt>
      <trkpt lat="42.40881367586553096771240234375" lon="0.7412888109683990478515625">
        <ele>842.20001220703125</ele>
        <time>2020-08-15T05:16:02.000Z</time>
      </trkpt>
      <trkpt lat="42.40869599394500255584716796875" lon="0.74135251343250274658203125">
        <ele>842</ele>
        <time>2020-08-15T05:16:08.000Z</time>
      </trkpt>
      <trkpt lat="42.40859708748757839202880859375" lon="0.74145938269793987274169921875">
        <ele>841.5999755859375</ele>
        <time>2020-08-15T05:16:14.000Z</time>
      </trkpt>
      <trkpt lat="42.40847052074968814849853515625" lon="0.741559378802776336669921875">
        <ele>841.79998779296875</ele>
        <time>2020-08-15T05:16:20.000Z</time>
      </trkpt>
      <trkpt lat="42.40834747441112995147705078125" lon="0.741663984954357147216796875">
        <ele>841.4000244140625</ele>
        <time>2020-08-15T05:16:25.000Z</time>
      </trkpt>
      <trkpt lat="42.40832534618675708770751953125" lon="0.7417003624141216278076171875">
        <ele>841</ele>
        <time>2020-08-15T05:16:27.000Z</time>
      </trkpt>
      <trkpt lat="42.40832157433032989501953125" lon="0.741706900298595428466796875">
        <ele>840.79998779296875</ele>
        <time>2020-08-15T05:16:29.000Z</time>
      </trkpt>
      <trkpt lat="42.4082954227924346923828125" lon="0.7416524179279804229736328125">
        <ele>840.4000244140625</ele>
        <time>2020-08-15T05:16:36.000Z</time>
      </trkpt>
      <trkpt lat="42.40823800675570964813232421875" lon="0.74154538102447986602783203125">
        <ele>840.20001220703125</ele>
        <time>2020-08-15T05:16:42.000Z</time>
      </trkpt>
      <trkpt lat="42.408214621245861053466796875" lon="0.7414277829229831695556640625">
        <ele>840</ele>
        <time>2020-08-15T05:16:47.000Z</time>
      </trkpt>
      <trkpt lat="42.40820129401981830596923828125" lon="0.74131286703050136566162109375">
        <ele>839.5999755859375</ele>
        <time>2020-08-15T05:16:52.000Z</time>
      </trkpt>
      <trkpt lat="42.4081586301326751708984375" lon="0.74117473326623439788818359375">
        <ele>839.20001220703125</ele>
        <time>2020-08-15T05:16:57.000Z</time>
      </trkpt>
      <trkpt lat="42.40810020826756954193115234375" lon="0.74103601276874542236328125">
        <ele>839</ele>
        <time>2020-08-15T05:17:02.000Z</time>
      </trkpt>
      <trkpt lat="42.40801186300814151763916015625" lon="0.7408677041530609130859375">
        <ele>838.79998779296875</ele>
        <time>2020-08-15T05:17:07.000Z</time>
      </trkpt>
      <trkpt lat="42.40791228599846363067626953125" lon="0.7406804524362087249755859375">
        <ele>838.20001220703125</ele>
        <time>2020-08-15T05:17:11.000Z</time>
      </trkpt>
      <trkpt lat="42.40788110531866550445556640625" lon="0.74063544161617755889892578125">
        <ele>838</ele>
        <time>2020-08-15T05:17:12.000Z</time>
      </trkpt>
      <trkpt lat="42.407835088670253753662109375" lon="0.74051273055374622344970703125">
        <ele>837.4000244140625</ele>
        <time>2020-08-15T05:17:16.000Z</time>
      </trkpt>
      <trkpt lat="42.40776007063686847686767578125" lon="0.74038096703588962554931640625">
        <ele>837</ele>
        <time>2020-08-15T05:17:22.000Z</time>
      </trkpt>
      <trkpt lat="42.40772888995707035064697265625" lon="0.74035246856510639190673828125">
        <ele>837.20001220703125</ele>
        <time>2020-08-15T05:17:25.000Z</time>
      </trkpt>
      <trkpt lat="42.4077093601226806640625" lon="0.74032480828464031219482421875">
        <ele>837.20001220703125</ele>
        <time>2020-08-15T05:17:26.000Z</time>
      </trkpt>
      <trkpt lat="42.4076146446168422698974609375" lon="0.74019941501319408416748046875">
        <ele>837</ele>
        <time>2020-08-15T05:17:30.000Z</time>
      </trkpt>
      <trkpt lat="42.40758757106959819793701171875" lon="0.74010587297379970550537109375">
        <ele>836.79998779296875</ele>
        <time>2020-08-15T05:17:34.000Z</time>
      </trkpt>
      <trkpt lat="42.4075685441493988037109375" lon="0.7400511391460895538330078125">
        <ele>836.4000244140625</ele>
        <time>2020-08-15T05:17:36.000Z</time>
      </trkpt>
      <trkpt lat="42.407421357929706573486328125" lon="0.74002079665660858154296875">
        <ele>835.4000244140625</ele>
        <time>2020-08-15T05:17:42.000Z</time>
      </trkpt>
      <trkpt lat="42.40736804902553558349609375" lon="0.74003613553941249847412109375">
        <ele>835.4000244140625</ele>
        <time>2020-08-15T05:17:44.000Z</time>
      </trkpt>
      <trkpt lat="42.40729286335408687591552734375" lon="0.7400415837764739990234375">
        <ele>834.79998779296875</ele>
        <time>2020-08-15T05:17:49.000Z</time>
      </trkpt>
      <trkpt lat="42.40727291442453861236572265625" lon="0.74003412388265132904052734375">
        <ele>834.5999755859375</ele>
        <time>2020-08-15T05:17:50.000Z</time>
      </trkpt>
      <trkpt lat="42.40723938681185245513916015625" lon="0.7400296814739704132080078125">
        <ele>834.20001220703125</ele>
        <time>2020-08-15T05:17:52.000Z</time>
      </trkpt>
      <trkpt lat="42.40725514478981494903564453125" lon="0.740053653717041015625">
        <ele>833.4000244140625</ele>
        <time>2020-08-15T05:17:54.000Z</time>
      </trkpt>
      <trkpt lat="42.40725397132337093353271484375" lon="0.74005491100251674652099609375">
        <ele>833</ele>
        <time>2020-08-15T05:17:55.000Z</time>
      </trkpt>
      <trkpt lat="42.40724994800984859466552734375" lon="0.74004066176712512969970703125">
        <ele>831.79998779296875</ele>
        <time>2020-08-15T05:17:57.000Z</time>
      </trkpt>
      <trkpt lat="42.4071472696959972381591796875" lon="0.739878304302692413330078125">
        <ele>831</ele>
        <time>2020-08-15T05:18:00.000Z</time>
      </trkpt>
      <trkpt lat="42.40706739015877246856689453125" lon="0.73974645696580410003662109375">
        <ele>830.5999755859375</ele>
        <time>2020-08-15T05:18:02.000Z</time>
      </trkpt>
      <trkpt lat="42.40705532021820545196533203125" lon="0.7397413440048694610595703125">
        <ele>830.20001220703125</ele>
        <time>2020-08-15T05:18:03.000Z</time>
      </trkpt>
      <trkpt lat="42.4070597626268863677978515625" lon="0.73974209837615489959716796875">
        <ele>829.4000244140625</ele>
        <time>2020-08-15T05:18:09.000Z</time>
      </trkpt>
      <trkpt lat="42.40713872015476226806640625" lon="0.7398409210145473480224609375">
        <ele>829.5999755859375</ele>
        <time>2020-08-15T05:18:20.000Z</time>
      </trkpt>
      <trkpt lat="42.40707275457680225372314453125" lon="0.73991275392472743988037109375">
        <ele>829.4000244140625</ele>
        <time>2020-08-15T05:18:24.000Z</time>
      </trkpt>
      <trkpt lat="42.4069940485060214996337890625" lon="0.73997159488499164581298828125">
        <ele>829.20001220703125</ele>
        <time>2020-08-15T05:18:27.000Z</time>
      </trkpt>
      <trkpt lat="42.406885586678981781005859375" lon="0.74008190073072910308837890625">
        <ele>828.20001220703125</ele>
        <time>2020-08-15T05:18:31.000Z</time>
      </trkpt>
      <trkpt lat="42.40686421282589435577392578125" lon="0.740102268755435943603515625">
        <ele>827.79998779296875</ele>
        <time>2020-08-15T05:18:32.000Z</time>
      </trkpt>
      <trkpt lat="42.40683437325060367584228515625" lon="0.74016253463923931121826171875">
        <ele>827.79998779296875</ele>
        <time>2020-08-15T05:18:34.000Z</time>
      </trkpt>
      <trkpt lat="42.40680688060820102691650390625" lon="0.7401919551193714141845703125">
        <ele>827.79998779296875</ele>
        <time>2020-08-15T05:18:35.000Z</time>
      </trkpt>
      <trkpt lat="42.4066979996860027313232421875" lon="0.7403124868869781494140625">
        <ele>827.4000244140625</ele>
        <time>2020-08-15T05:18:39.000Z</time>
      </trkpt>
      <trkpt lat="42.40666254423558712005615234375" lon="0.7403471879661083221435546875">
        <ele>827.4000244140625</ele>
        <time>2020-08-15T05:18:41.000Z</time>
      </trkpt>
      <trkpt lat="42.406647205352783203125" lon="0.74035950936377048492431640625">
        <ele>827.79998779296875</ele>
        <time>2020-08-15T05:18:42.000Z</time>
      </trkpt>
      <trkpt lat="42.40663136355578899383544921875" lon="0.74036269448697566986083984375">
        <ele>828</ele>
        <time>2020-08-15T05:18:43.000Z</time>
      </trkpt>
      <trkpt lat="42.406592555344104766845703125" lon="0.74031525291502475738525390625">
        <ele>828.4000244140625</ele>
        <time>2020-08-15T05:18:46.000Z</time>
      </trkpt>
      <trkpt lat="42.40658174268901348114013671875" lon="0.74029195122420787811279296875">
        <ele>828</ele>
        <time>2020-08-15T05:18:47.000Z</time>
      </trkpt>
      <trkpt lat="42.4064918048679828643798828125" lon="0.74013118632137775421142578125">
        <ele>828</ele>
        <time>2020-08-15T05:18:53.000Z</time>
      </trkpt>
      <trkpt lat="42.406394071877002716064453125" lon="0.73989833705127239227294921875">
        <ele>827.5999755859375</ele>
        <time>2020-08-15T05:18:59.000Z</time>
      </trkpt>
      <trkpt lat="42.4063218198716640472412109375" lon="0.73975391685962677001953125">
        <ele>827.4000244140625</ele>
        <time>2020-08-15T05:19:04.000Z</time>
      </trkpt>
      <trkpt lat="42.40630480460822582244873046875" lon="0.739561803638935089111328125">
        <ele>827</ele>
        <time>2020-08-15T05:19:10.000Z</time>
      </trkpt>
      <trkpt lat="42.40631989203393459320068359375" lon="0.7393041439354419708251953125">
        <ele>827.5999755859375</ele>
        <time>2020-08-15T05:19:18.000Z</time>
      </trkpt>
      <trkpt lat="42.40632207132875919342041015625" lon="0.739213116466999053955078125">
        <ele>827.4000244140625</ele>
        <time>2020-08-15T05:19:21.000Z</time>
      </trkpt>
      <trkpt lat="42.40631888620555400848388671875" lon="0.73902569711208343505859375">
        <ele>827.5999755859375</ele>
        <time>2020-08-15T05:19:27.000Z</time>
      </trkpt>
      <trkpt lat="42.406351827085018157958984375" lon="0.73885696940124034881591796875">
        <ele>827.4000244140625</ele>
        <time>2020-08-15T05:19:34.000Z</time>
      </trkpt>
      <trkpt lat="42.4064606241881847381591796875" lon="0.738784968852996826171875">
        <ele>827.20001220703125</ele>
        <time>2020-08-15T05:19:40.000Z</time>
      </trkpt>
      <trkpt lat="42.40662038326263427734375" lon="0.7387217693030834197998046875">
        <ele>826.79998779296875</ele>
        <time>2020-08-15T05:19:46.000Z</time>
      </trkpt>
      <trkpt lat="42.40677058696746826171875" lon="0.73880701325833797454833984375">
        <ele>826.4000244140625</ele>
        <time>2020-08-15T05:19:51.000Z</time>
      </trkpt>
      <trkpt lat="42.4068820662796497344970703125" lon="0.7388337515294551849365234375">
        <ele>826.20001220703125</ele>
        <time>2020-08-15T05:19:56.000Z</time>
      </trkpt>
      <trkpt lat="42.40689539350569248199462890625" lon="0.73882545344531536102294921875">
        <ele>826.20001220703125</ele>
        <time>2020-08-15T05:19:57.000Z</time>
      </trkpt>
      <trkpt lat="42.40691098384559154510498046875" lon="0.7388176582753658294677734375">
        <ele>826.4000244140625</ele>
        <time>2020-08-15T05:20:02.000Z</time>
      </trkpt>
      <trkpt lat="42.4069082178175449371337890625" lon="0.7387898303568363189697265625">
        <ele>826.4000244140625</ele>
        <time>2020-08-15T05:20:05.000Z</time>
      </trkpt>
      <trkpt lat="42.40690863691270351409912109375" lon="0.7387338392436504364013671875">
        <ele>826.4000244140625</ele>
        <time>2020-08-15T05:20:08.000Z</time>
      </trkpt>
      <trkpt lat="42.4069018475711345672607421875" lon="0.738688074052333831787109375">
        <ele>826.4000244140625</ele>
        <time>2020-08-15T05:20:10.000Z</time>
      </trkpt>
      <trkpt lat="42.4069008417427539825439453125" lon="0.73856343515217304229736328125">
        <ele>826.5999755859375</ele>
        <time>2020-08-15T05:20:15.000Z</time>
      </trkpt>
      <trkpt lat="42.406914420425891876220703125" lon="0.7384129799902439117431640625">
        <ele>827.20001220703125</ele>
        <time>2020-08-15T05:20:21.000Z</time>
      </trkpt>
      <trkpt lat="42.40691785700619220733642578125" lon="0.738315246999263763427734375">
        <ele>827.5999755859375</ele>
        <time>2020-08-15T05:20:25.000Z</time>
      </trkpt>
      <trkpt lat="42.4069229699671268463134765625" lon="0.73826923035085201263427734375">
        <ele>827.79998779296875</ele>
        <time>2020-08-15T05:20:27.000Z</time>
      </trkpt>
      <trkpt lat="42.40693545900285243988037109375" lon="0.7381196133792400360107421875">
        <ele>828.5999755859375</ele>
        <time>2020-08-15T05:20:34.000Z</time>
      </trkpt>
      <trkpt lat="42.40693621337413787841796875" lon="0.73808097280561923980712890625">
        <ele>829</ele>
        <time>2020-08-15T05:20:36.000Z</time>
      </trkpt>
      <trkpt lat="42.40694585256278514862060546875" lon="0.7380049489438533782958984375">
        <ele>829.79998779296875</ele>
        <time>2020-08-15T05:20:40.000Z</time>
      </trkpt>
      <trkpt lat="42.40694987587630748748779296875" lon="0.737938396632671356201171875">
        <ele>830.20001220703125</ele>
        <time>2020-08-15T05:20:43.000Z</time>
      </trkpt>
      <trkpt lat="42.4069440923631191253662109375" lon="0.73781962506473064422607421875">
        <ele>830.79998779296875</ele>
        <time>2020-08-15T05:20:48.000Z</time>
      </trkpt>
      <trkpt lat="42.40694534964859485626220703125" lon="0.73779615573585033416748046875">
        <ele>830.79998779296875</ele>
        <time>2020-08-15T05:20:49.000Z</time>
      </trkpt>
      <trkpt lat="42.40695255808532238006591796875" lon="0.73767864145338535308837890625">
        <ele>831.4000244140625</ele>
        <time>2020-08-15T05:20:54.000Z</time>
      </trkpt>
      <trkpt lat="42.406955659389495849609375" lon="0.737628601491451263427734375">
        <ele>831.4000244140625</ele>
        <time>2020-08-15T05:20:56.000Z</time>
      </trkpt>
      <trkpt lat="42.40695809014141559600830078125" lon="0.737580321729183197021484375">
        <ele>831.5999755859375</ele>
        <time>2020-08-15T05:20:58.000Z</time>
      </trkpt>
      <trkpt lat="42.40696161054074764251708984375" lon="0.73743590153753757476806640625">
        <ele>832.4000244140625</ele>
        <time>2020-08-15T05:21:04.000Z</time>
      </trkpt>
      <trkpt lat="42.40696278400719165802001953125" lon="0.7374155335128307342529296875">
        <ele>832.4000244140625</ele>
        <time>2020-08-15T05:21:05.000Z</time>
      </trkpt>
      <trkpt lat="42.40697133354842662811279296875" lon="0.73734789155423641204833984375">
        <ele>832.5999755859375</ele>
        <time>2020-08-15T05:21:08.000Z</time>
      </trkpt>
      <trkpt lat="42.40697083063423633575439453125" lon="0.73732207529246807098388671875">
        <ele>832.79998779296875</ele>
        <time>2020-08-15T05:21:09.000Z</time>
      </trkpt>
      <trkpt lat="42.40697736851871013641357421875" lon="0.7371365837752819061279296875">
        <ele>833.5999755859375</ele>
        <time>2020-08-15T05:21:16.000Z</time>
      </trkpt>
      <trkpt lat="42.4069757759571075439453125" lon="0.737033821642398834228515625">
        <ele>833.79998779296875</ele>
        <time>2020-08-15T05:21:20.000Z</time>
      </trkpt>
      <trkpt lat="42.406980134546756744384765625" lon="0.736956037580966949462890625">
        <ele>834</ele>
        <time>2020-08-15T05:21:23.000Z</time>
      </trkpt>
      <trkpt lat="42.40698440931737422943115234375" lon="0.73675361461937427520751953125">
        <ele>834.4000244140625</ele>
        <time>2020-08-15T05:21:31.000Z</time>
      </trkpt>
      <trkpt lat="42.406988851726055145263671875" lon="0.736649930477142333984375">
        <ele>834.79998779296875</ele>
        <time>2020-08-15T05:21:35.000Z</time>
      </trkpt>
      <trkpt lat="42.40699145011603832244873046875" lon="0.73646728880703449249267578125">
        <ele>835.79998779296875</ele>
        <time>2020-08-15T05:21:42.000Z</time>
      </trkpt>
      <trkpt lat="42.40699145011603832244873046875" lon="0.73644113726913928985595703125">
        <ele>835.79998779296875</ele>
        <time>2020-08-15T05:21:43.000Z</time>
      </trkpt>
      <trkpt lat="42.4069980718195438385009765625" lon="0.73623812757432460784912109375">
        <ele>836.20001220703125</ele>
        <time>2020-08-15T05:21:51.000Z</time>
      </trkpt>
      <trkpt lat="42.4069943837821483612060546875" lon="0.73608373291790485382080078125">
        <ele>837</ele>
        <time>2020-08-15T05:21:57.000Z</time>
      </trkpt>
      <trkpt lat="42.40699178539216518402099609375" lon="0.73603210039436817169189453125">
        <ele>837.4000244140625</ele>
        <time>2020-08-15T05:21:59.000Z</time>
      </trkpt>
      <trkpt lat="42.406980134546756744384765625" lon="0.7358343712985515594482421875">
        <ele>837.79998779296875</ele>
        <time>2020-08-15T05:22:07.000Z</time>
      </trkpt>
      <trkpt lat="42.4069786258041858673095703125" lon="0.73581031523644924163818359375">
        <ele>838</ele>
        <time>2020-08-15T05:22:08.000Z</time>
      </trkpt>
      <trkpt lat="42.40696999244391918182373046875" lon="0.73566279374063014984130859375">
        <ele>838.5999755859375</ele>
        <time>2020-08-15T05:22:14.000Z</time>
      </trkpt>
      <trkpt lat="42.4069645442068576812744140625" lon="0.7355359755456447601318359375">
        <ele>839</ele>
        <time>2020-08-15T05:22:19.000Z</time>
      </trkpt>
      <trkpt lat="42.40696144290268421173095703125" lon="0.73545726947486400604248046875">
        <ele>839.4000244140625</ele>
        <time>2020-08-15T05:22:22.000Z</time>
      </trkpt>
      <trkpt lat="42.406950630247592926025390625" lon="0.735270939767360687255859375">
        <ele>840</ele>
        <time>2020-08-15T05:22:30.000Z</time>
      </trkpt>
      <trkpt lat="42.406942583620548248291015625" lon="0.73510053567588329315185546875">
        <ele>840.79998779296875</ele>
        <time>2020-08-15T05:22:37.000Z</time>
      </trkpt>
      <trkpt lat="42.40694216452538967132568359375" lon="0.73505309410393238067626953125">
        <ele>841.20001220703125</ele>
        <time>2020-08-15T05:22:39.000Z</time>
      </trkpt>
      <trkpt lat="42.40693327970802783966064453125" lon="0.7348771579563617706298828125">
        <ele>841.5999755859375</ele>
        <time>2020-08-15T05:22:46.000Z</time>
      </trkpt>
      <trkpt lat="42.4069263227283954620361328125" lon="0.7348020561039447784423828125">
        <ele>842.20001220703125</ele>
        <time>2020-08-15T05:22:49.000Z</time>
      </trkpt>
      <trkpt lat="42.40692414343357086181640625" lon="0.73477716185152530670166015625">
        <ele>842.4000244140625</ele>
        <time>2020-08-15T05:22:50.000Z</time>
      </trkpt>
      <trkpt lat="42.4069112353026866912841796875" lon="0.7346300594508647918701171875">
        <ele>842.79998779296875</ele>
        <time>2020-08-15T05:22:56.000Z</time>
      </trkpt>
      <trkpt lat="42.40690628997981548309326171875" lon="0.73455856181681156158447265625">
        <ele>843.20001220703125</ele>
        <time>2020-08-15T05:22:59.000Z</time>
      </trkpt>
      <trkpt lat="42.40689790807664394378662109375" lon="0.73446183465421199798583984375">
        <ele>843.5999755859375</ele>
        <time>2020-08-15T05:23:03.000Z</time>
      </trkpt>
      <trkpt lat="42.40688935853540897369384765625" lon="0.734335519373416900634765625">
        <ele>844.20001220703125</ele>
        <time>2020-08-15T05:23:08.000Z</time>
      </trkpt>
      <trkpt lat="42.40688583813607692718505859375" lon="0.734236948192119598388671875">
        <ele>844.5999755859375</ele>
        <time>2020-08-15T05:23:12.000Z</time>
      </trkpt>
      <trkpt lat="42.40687142126262187957763671875" lon="0.73404072783887386322021484375">
        <ele>844.79998779296875</ele>
        <time>2020-08-15T05:23:20.000Z</time>
      </trkpt>
      <trkpt lat="42.4068669788539409637451171875" lon="0.73396814055740833282470703125">
        <ele>845.20001220703125</ele>
        <time>2020-08-15T05:23:23.000Z</time>
      </trkpt>
      <trkpt lat="42.40686002187430858612060546875" lon="0.7338274084031581878662109375">
        <ele>845.79998779296875</ele>
        <time>2020-08-15T05:23:29.000Z</time>
      </trkpt>
      <trkpt lat="42.406849376857280731201171875" lon="0.73376052081584930419921875">
        <ele>846.20001220703125</ele>
        <time>2020-08-15T05:23:32.000Z</time>
      </trkpt>
      <trkpt lat="42.4068458564579486846923828125" lon="0.7337375544011592864990234375">
        <ele>846.4000244140625</ele>
        <time>2020-08-15T05:23:33.000Z</time>
      </trkpt>
      <trkpt lat="42.4068445153534412384033203125" lon="0.7336901128292083740234375">
        <ele>846.5999755859375</ele>
        <time>2020-08-15T05:23:35.000Z</time>
      </trkpt>
      <trkpt lat="42.406836636364459991455078125" lon="0.7335425913333892822265625">
        <ele>847.4000244140625</ele>
        <time>2020-08-15T05:23:41.000Z</time>
      </trkpt>
      <trkpt lat="42.40683563053607940673828125" lon="0.73351769708096981048583984375">
        <ele>847.4000244140625</ele>
        <time>2020-08-15T05:23:42.000Z</time>
      </trkpt>
      <trkpt lat="42.40682196803390979766845703125" lon="0.73329448699951171875">
        <ele>848</ele>
        <time>2020-08-15T05:23:51.000Z</time>
      </trkpt>
      <trkpt lat="42.406819202005863189697265625" lon="0.73322332464158535003662109375">
        <ele>848.4000244140625</ele>
        <time>2020-08-15T05:23:54.000Z</time>
      </trkpt>
      <trkpt lat="42.4068153463304042816162109375" lon="0.73309776373207569122314453125">
        <ele>848.79998779296875</ele>
        <time>2020-08-15T05:23:59.000Z</time>
      </trkpt>
      <trkpt lat="42.40680738352239131927490234375" lon="0.73297597467899322509765625">
        <ele>849.5999755859375</ele>
        <time>2020-08-15T05:24:04.000Z</time>
      </trkpt>
      <trkpt lat="42.4067992530763149261474609375" lon="0.732900537550449371337890625">
        <ele>849.79998779296875</ele>
        <time>2020-08-15T05:24:07.000Z</time>
      </trkpt>
      <trkpt lat="42.406851388514041900634765625" lon="0.73266358114778995513916015625">
        <ele>850.4000244140625</ele>
        <time>2020-08-15T05:24:17.000Z</time>
      </trkpt>
      <trkpt lat="42.406859099864959716796875" lon="0.732640363276004791259765625">
        <ele>850.5999755859375</ele>
        <time>2020-08-15T05:24:18.000Z</time>
      </trkpt>
      <trkpt lat="42.4069132469594478607177734375" lon="0.732514970004558563232421875">
        <ele>851.20001220703125</ele>
        <time>2020-08-15T05:24:24.000Z</time>
      </trkpt>
      <trkpt lat="42.4070205353200435638427734375" lon="0.73225404135882854461669921875">
        <ele>852.4000244140625</ele>
        <time>2020-08-15T05:24:36.000Z</time>
      </trkpt>
      <trkpt lat="42.40707627497613430023193359375" lon="0.7321034185588359832763671875">
        <ele>852.79998779296875</ele>
        <time>2020-08-15T05:24:43.000Z</time>
      </trkpt>
      <trkpt lat="42.40710393525660037994384765625" lon="0.732015073299407958984375">
        <ele>853.5999755859375</ele>
        <time>2020-08-15T05:24:47.000Z</time>
      </trkpt>
      <trkpt lat="42.40712606348097324371337890625" lon="0.731944330036640167236328125">
        <ele>853.5999755859375</ele>
        <time>2020-08-15T05:24:50.000Z</time>
      </trkpt>
      <trkpt lat="42.4071821384131908416748046875" lon="0.73178499005734920501708984375">
        <ele>854.20001220703125</ele>
        <time>2020-08-15T05:24:57.000Z</time>
      </trkpt>
      <trkpt lat="42.4072089605033397674560546875" lon="0.7317195273935794830322265625">
        <ele>854.5999755859375</ele>
        <time>2020-08-15T05:25:00.000Z</time>
      </trkpt>
      <trkpt lat="42.40726704709231853485107421875" lon="0.7316060364246368408203125">
        <ele>855.79998779296875</ele>
        <time>2020-08-15T05:25:06.000Z</time>
      </trkpt>
      <trkpt lat="42.4073232896625995635986328125" lon="0.7314831577241420745849609375">
        <ele>856.79998779296875</ele>
        <time>2020-08-15T05:25:12.000Z</time>
      </trkpt>
      <trkpt lat="42.40733359940350055694580078125" lon="0.7314633764326572418212890625">
        <ele>857</ele>
        <time>2020-08-15T05:25:13.000Z</time>
      </trkpt>
      <trkpt lat="42.40741171874105930328369140625" lon="0.7314100675284862518310546875">
        <ele>858</ele>
        <time>2020-08-15T05:25:19.000Z</time>
      </trkpt>
      <trkpt lat="42.40744004957377910614013671875" lon="0.731403864920139312744140625">
        <ele>858.4000244140625</ele>
        <time>2020-08-15T05:25:21.000Z</time>
      </trkpt>
      <trkpt lat="42.40748430602252483367919921875" lon="0.7314070500433444976806640625">
        <ele>859.20001220703125</ele>
        <time>2020-08-15T05:25:24.000Z</time>
      </trkpt>
      <trkpt lat="42.40755312144756317138671875" lon="0.73141082189977169036865234375">
        <ele>860.20001220703125</ele>
        <time>2020-08-15T05:25:29.000Z</time>
      </trkpt>
      <trkpt lat="42.40756561048328876495361328125" lon="0.731410570442676544189453125">
        <ele>860.4000244140625</ele>
        <time>2020-08-15T05:25:30.000Z</time>
      </trkpt>
      <trkpt lat="42.40761355496942996978759765625" lon="0.7314285077154636383056640625">
        <ele>861.20001220703125</ele>
        <time>2020-08-15T05:25:34.000Z</time>
      </trkpt>
      <trkpt lat="42.40762042813003063201904296875" lon="0.7314169406890869140625">
        <ele>861.4000244140625</ele>
        <time>2020-08-15T05:25:35.000Z</time>
      </trkpt>
      <trkpt lat="42.40763836540281772613525390625" lon="0.73136908002197742462158203125">
        <ele>862</ele>
        <time>2020-08-15T05:25:38.000Z</time>
      </trkpt>
      <trkpt lat="42.4076570570468902587890625" lon="0.7312987558543682098388671875">
        <ele>862.20001220703125</ele>
        <time>2020-08-15T05:25:42.000Z</time>
      </trkpt>
      <trkpt lat="42.40766082890331745147705078125" lon="0.7312793098390102386474609375">
        <ele>862.4000244140625</ele>
        <time>2020-08-15T05:25:43.000Z</time>
      </trkpt>
      <trkpt lat="42.4076919257640838623046875" lon="0.73109348304569721221923828125">
        <ele>862.5999755859375</ele>
        <time>2020-08-15T05:25:50.000Z</time>
      </trkpt>
      <trkpt lat="42.40773391909897327423095703125" lon="0.73080430738627910614013671875">
        <ele>861.79998779296875</ele>
        <time>2020-08-15T05:25:58.000Z</time>
      </trkpt>
      <trkpt lat="42.40776308812201023101806640625" lon="0.730636082589626312255859375">
        <ele>862</ele>
        <time>2020-08-15T05:26:04.000Z</time>
      </trkpt>
      <trkpt lat="42.40776493214070796966552734375" lon="0.73046945035457611083984375">
        <ele>862.4000244140625</ele>
        <time>2020-08-15T05:26:11.000Z</time>
      </trkpt>
      <trkpt lat="42.40778823383152484893798828125" lon="0.73026032187044620513916015625">
        <ele>863.4000244140625</ele>
        <time>2020-08-15T05:26:20.000Z</time>
      </trkpt>
      <trkpt lat="42.4077799357473850250244140625" lon="0.730073153972625732421875">
        <ele>863.79998779296875</ele>
        <time>2020-08-15T05:26:28.000Z</time>
      </trkpt>
      <trkpt lat="42.407792843878269195556640625" lon="0.7299291528761386871337890625">
        <ele>864.20001220703125</ele>
        <time>2020-08-15T05:26:34.000Z</time>
      </trkpt>
      <trkpt lat="42.4077906645834445953369140625" lon="0.72988380677998065948486328125">
        <ele>864.20001220703125</ele>
        <time>2020-08-15T05:26:36.000Z</time>
      </trkpt>
      <trkpt lat="42.40779946558177471160888671875" lon="0.72981893084943294525146484375">
        <ele>864.79998779296875</ele>
        <time>2020-08-15T05:26:39.000Z</time>
      </trkpt>
      <trkpt lat="42.40781790576875209808349609375" lon="0.72968984954059123992919921875">
        <ele>865.20001220703125</ele>
        <time>2020-08-15T05:26:45.000Z</time>
      </trkpt>
      <trkpt lat="42.40781597793102264404296875" lon="0.72966638021171092987060546875">
        <ele>865.20001220703125</ele>
        <time>2020-08-15T05:26:46.000Z</time>
      </trkpt>
      <trkpt lat="42.40782209672033786773681640625" lon="0.72953947819769382476806640625">
        <ele>866.4000244140625</ele>
        <time>2020-08-15T05:26:52.000Z</time>
      </trkpt>
      <trkpt lat="42.40782293491065502166748046875" lon="0.72951793670654296875">
        <ele>866.5999755859375</ele>
        <time>2020-08-15T05:26:53.000Z</time>
      </trkpt>
      <trkpt lat="42.40782536566257476806640625" lon="0.7294986583292484283447265625">
        <ele>866.79998779296875</ele>
        <time>2020-08-15T05:26:54.000Z</time>
      </trkpt>
      <trkpt lat="42.4078614078462123870849609375" lon="0.72944258339703083038330078125">
        <ele>867.79998779296875</ele>
        <time>2020-08-15T05:26:58.000Z</time>
      </trkpt>
      <trkpt lat="42.40787171758711338043212890625" lon="0.7294091396033763885498046875">
        <ele>868.4000244140625</ele>
        <time>2020-08-15T05:27:00.000Z</time>
      </trkpt>
      <trkpt lat="42.4078743159770965576171875" lon="0.72939111851155757904052734375">
        <ele>868.4000244140625</ele>
        <time>2020-08-15T05:27:01.000Z</time>
      </trkpt>
      <trkpt lat="42.40787875838577747344970703125" lon="0.72935474105179309844970703125">
        <ele>868.79998779296875</ele>
        <time>2020-08-15T05:27:03.000Z</time>
      </trkpt>
      <trkpt lat="42.40789242088794708251953125" lon="0.72932506911456584930419921875">
        <ele>869.4000244140625</ele>
        <time>2020-08-15T05:27:05.000Z</time>
      </trkpt>
      <trkpt lat="42.4079083465039730072021484375" lon="0.72929606772959232330322265625">
        <ele>870</ele>
        <time>2020-08-15T05:27:07.000Z</time>
      </trkpt>
      <trkpt lat="42.40793391130864620208740234375" lon="0.7292029447853565216064453125">
        <ele>871</ele>
        <time>2020-08-15T05:27:13.000Z</time>
      </trkpt>
      <trkpt lat="42.4079519324004650115966796875" lon="0.72915676049888134002685546875">
        <ele>871.5999755859375</ele>
        <time>2020-08-15T05:27:16.000Z</time>
      </trkpt>
      <trkpt lat="42.40796056576073169708251953125" lon="0.72914309799671173095703125">
        <ele>871.79998779296875</ele>
        <time>2020-08-15T05:27:17.000Z</time>
      </trkpt>
      <trkpt lat="42.40797883830964565277099609375" lon="0.72911686263978481292724609375">
        <ele>872.20001220703125</ele>
        <time>2020-08-15T05:27:19.000Z</time>
      </trkpt>
      <trkpt lat="42.407977581024169921875" lon="0.7290633022785186767578125">
        <ele>873</ele>
        <time>2020-08-15T05:27:22.000Z</time>
      </trkpt>
      <trkpt lat="42.40797883830964565277099609375" lon="0.7290069758892059326171875">
        <ele>873.5999755859375</ele>
        <time>2020-08-15T05:27:25.000Z</time>
      </trkpt>
      <trkpt lat="42.40798537619411945343017578125" lon="0.728990547358989715576171875">
        <ele>873.5999755859375</ele>
        <time>2020-08-15T05:27:26.000Z</time>
      </trkpt>
      <trkpt lat="42.40800884552299976348876953125" lon="0.7289434410631656646728515625">
        <ele>874</ele>
        <time>2020-08-15T05:27:29.000Z</time>
      </trkpt>
      <trkpt lat="42.40801622159779071807861328125" lon="0.72890815325081348419189453125">
        <ele>874.5999755859375</ele>
        <time>2020-08-15T05:27:31.000Z</time>
      </trkpt>
      <trkpt lat="42.40801437757909297943115234375" lon="0.72889038361608982086181640625">
        <ele>874.79998779296875</ele>
        <time>2020-08-15T05:27:32.000Z</time>
      </trkpt>
      <trkpt lat="42.40800867788493633270263671875" lon="0.72885601781308650970458984375">
        <ele>875.20001220703125</ele>
        <time>2020-08-15T05:27:34.000Z</time>
      </trkpt>
      <trkpt lat="42.40802653133869171142578125" lon="0.7287654094398021697998046875">
        <ele>876.4000244140625</ele>
        <time>2020-08-15T05:27:39.000Z</time>
      </trkpt>
      <trkpt lat="42.4080325663089752197265625" lon="0.728729031980037689208984375">
        <ele>876.5999755859375</ele>
        <time>2020-08-15T05:27:41.000Z</time>
      </trkpt>
      <trkpt lat="42.40801873616874217987060546875" lon="0.72865719906985759735107421875">
        <ele>877.20001220703125</ele>
        <time>2020-08-15T05:27:45.000Z</time>
      </trkpt>
      <trkpt lat="42.408028207719326019287109375" lon="0.7286205701529979705810546875">
        <ele>877.4000244140625</ele>
        <time>2020-08-15T05:27:47.000Z</time>
      </trkpt>
      <trkpt lat="42.4080263637006282806396484375" lon="0.72854437865316867828369140625">
        <ele>877.79998779296875</ele>
        <time>2020-08-15T05:27:51.000Z</time>
      </trkpt>
      <trkpt lat="42.40801940672099590301513671875" lon="0.72850741446018218994140625">
        <ele>878.4000244140625</ele>
        <time>2020-08-15T05:27:53.000Z</time>
      </trkpt>
      <trkpt lat="42.40803985856473445892333984375" lon="0.72845955379307270050048828125">
        <ele>878.79998779296875</ele>
        <time>2020-08-15T05:27:56.000Z</time>
      </trkpt>
      <trkpt lat="42.40804824046790599822998046875" lon="0.7283862121403217315673828125">
        <ele>879.4000244140625</ele>
        <time>2020-08-15T05:28:00.000Z</time>
      </trkpt>
      <trkpt lat="42.40804740227758884429931640625" lon="0.728347487747669219970703125">
        <ele>879.79998779296875</ele>
        <time>2020-08-15T05:28:02.000Z</time>
      </trkpt>
      <trkpt lat="42.408079169690608978271484375" lon="0.72828034870326519012451171875">
        <ele>880.20001220703125</ele>
        <time>2020-08-15T05:28:07.000Z</time>
      </trkpt>
      <trkpt lat="42.40808260627090930938720703125" lon="0.72824346832931041717529296875">
        <ele>880.5999755859375</ele>
        <time>2020-08-15T05:28:10.000Z</time>
      </trkpt>
      <trkpt lat="42.40807774476706981658935546875" lon="0.72821212001144886016845703125">
        <ele>880.5999755859375</ele>
        <time>2020-08-15T05:28:13.000Z</time>
      </trkpt>
      <trkpt lat="42.408104650676250457763671875" lon="0.7281441427767276763916015625">
        <ele>881</ele>
        <time>2020-08-15T05:28:19.000Z</time>
      </trkpt>
      <trkpt lat="42.40811831317842006683349609375" lon="0.72811958380043506622314453125">
        <ele>881.20001220703125</ele>
        <time>2020-08-15T05:28:21.000Z</time>
      </trkpt>
      <trkpt lat="42.40812770090997219085693359375" lon="0.72807264514267444610595703125">
        <ele>881.5999755859375</ele>
        <time>2020-08-15T05:28:24.000Z</time>
      </trkpt>
      <trkpt lat="42.40812971256673336029052734375" lon="0.728056468069553375244140625">
        <ele>881.5999755859375</ele>
        <time>2020-08-15T05:28:25.000Z</time>
      </trkpt>
      <trkpt lat="42.40815267898142337799072265625" lon="0.72792537510395050048828125">
        <ele>882.4000244140625</ele>
        <time>2020-08-15T05:28:33.000Z</time>
      </trkpt>
      <trkpt lat="42.40817279554903507232666015625" lon="0.72785773314535617828369140625">
        <ele>882.79998779296875</ele>
        <time>2020-08-15T05:28:37.000Z</time>
      </trkpt>
      <trkpt lat="42.4081883020699024200439453125" lon="0.72780677117407321929931640625">
        <ele>883</ele>
        <time>2020-08-15T05:28:40.000Z</time>
      </trkpt>
      <trkpt lat="42.40823247469961643218994140625" lon="0.72766813449561595916748046875">
        <ele>883.4000244140625</ele>
        <time>2020-08-15T05:28:48.000Z</time>
      </trkpt>
      <trkpt lat="42.4082452990114688873291015625" lon="0.7276336848735809326171875">
        <ele>883.5999755859375</ele>
        <time>2020-08-15T05:28:50.000Z</time>
      </trkpt>
      <trkpt lat="42.40828536450862884521484375" lon="0.72752832435071468353271484375">
        <ele>884.4000244140625</ele>
        <time>2020-08-15T05:28:56.000Z</time>
      </trkpt>
      <trkpt lat="42.40829818882048130035400390625" lon="0.7274937070906162261962890625">
        <ele>884.79998779296875</ele>
        <time>2020-08-15T05:28:58.000Z</time>
      </trkpt>
      <trkpt lat="42.4083056487143039703369140625" lon="0.72747652418911457061767578125">
        <ele>884.79998779296875</ele>
        <time>2020-08-15T05:28:59.000Z</time>
      </trkpt>
      <trkpt lat="42.40836624987423419952392578125" lon="0.72734526358544826507568359375">
        <ele>885.4000244140625</ele>
        <time>2020-08-15T05:29:07.000Z</time>
      </trkpt>
      <trkpt lat="42.408370189368724822998046875" lon="0.727326907217502593994140625">
        <ele>885.5999755859375</ele>
        <time>2020-08-15T05:29:08.000Z</time>
      </trkpt>
      <trkpt lat="42.4083770625293254852294921875" lon="0.72731140069663524627685546875">
        <ele>885.79998779296875</ele>
        <time>2020-08-15T05:29:09.000Z</time>
      </trkpt>
      <trkpt lat="42.40842157043516635894775390625" lon="0.72721400298178195953369140625">
        <ele>886.79998779296875</ele>
        <time>2020-08-15T05:29:15.000Z</time>
      </trkpt>
      <trkpt lat="42.40842559374868869781494140625" lon="0.72719581425189971923828125">
        <ele>887</ele>
        <time>2020-08-15T05:29:16.000Z</time>
      </trkpt>
      <trkpt lat="42.40847303532063961029052734375" lon="0.7270793057978153228759765625">
        <ele>888</ele>
        <time>2020-08-15T05:29:23.000Z</time>
      </trkpt>
      <trkpt lat="42.4085333012044429779052734375" lon="0.72697411291301250457763671875">
        <ele>888.79998779296875</ele>
        <time>2020-08-15T05:29:30.000Z</time>
      </trkpt>
      <trkpt lat="42.40855920128524303436279296875" lon="0.72695533744990825653076171875">
        <ele>889.20001220703125</ele>
        <time>2020-08-15T05:29:32.000Z</time>
      </trkpt>
      <trkpt lat="42.408608905971050262451171875" lon="0.7269203849136829376220703125">
        <ele>889.79998779296875</ele>
        <time>2020-08-15T05:29:36.000Z</time>
      </trkpt>
      <trkpt lat="42.40867185406386852264404296875" lon="0.72688140906393527984619140625">
        <ele>890.5999755859375</ele>
        <time>2020-08-15T05:29:41.000Z</time>
      </trkpt>
      <trkpt lat="42.408693730831146240234375" lon="0.726858191192150115966796875">
        <ele>890.79998779296875</ele>
        <time>2020-08-15T05:29:43.000Z</time>
      </trkpt>
      <trkpt lat="42.408775202929973602294921875" lon="0.7267778925597667694091796875">
        <ele>891.79998779296875</ele>
        <time>2020-08-15T05:29:50.000Z</time>
      </trkpt>
      <trkpt lat="42.40878400392830371856689453125" lon="0.726765654981136322021484375">
        <ele>892</ele>
        <time>2020-08-15T05:29:51.000Z</time>
      </trkpt>
      <trkpt lat="42.40884385071694850921630859375" lon="0.726669095456600189208984375">
        <ele>892.4000244140625</ele>
        <time>2020-08-15T05:29:57.000Z</time>
      </trkpt>
      <trkpt lat="42.408961951732635498046875" lon="0.7264419458806514739990234375">
        <ele>892.20001220703125</ele>
        <time>2020-08-15T05:30:05.000Z</time>
      </trkpt>
      <trkpt lat="42.4091026000678539276123046875" lon="0.7262759841978549957275390625">
        <ele>891.4000244140625</ele>
        <time>2020-08-15T05:30:09.000Z</time>
      </trkpt>
      <trkpt lat="42.409133613109588623046875" lon="0.7262233458459377288818359375">
        <ele>891.20001220703125</ele>
        <time>2020-08-15T05:30:10.000Z</time>
      </trkpt>
      <trkpt lat="42.40918147377669811248779296875" lon="0.7261167280375957489013671875">
        <ele>890.79998779296875</ele>
        <time>2020-08-15T05:30:12.000Z</time>
      </trkpt>
      <trkpt lat="42.4092046916484832763671875" lon="0.7259769178926944732666015625">
        <ele>890.79998779296875</ele>
        <time>2020-08-15T05:30:15.000Z</time>
      </trkpt>
      <trkpt lat="42.4091874249279499053955078125" lon="0.7257496006786823272705078125">
        <ele>891.79998779296875</ele>
        <time>2020-08-15T05:30:23.000Z</time>
      </trkpt>
      <trkpt lat="42.40914727561175823211669921875" lon="0.72558137588202953338623046875">
        <ele>892.4000244140625</ele>
        <time>2020-08-15T05:30:30.000Z</time>
      </trkpt>
      <trkpt lat="42.40912246517837047576904296875" lon="0.725440643727779388427734375">
        <ele>892.5999755859375</ele>
        <time>2020-08-15T05:30:36.000Z</time>
      </trkpt>
      <trkpt lat="42.4091133289039134979248046875" lon="0.7253699004650115966796875">
        <ele>892.79998779296875</ele>
        <time>2020-08-15T05:30:39.000Z</time>
      </trkpt>
      <trkpt lat="42.40909731946885585784912109375" lon="0.725329332053661346435546875">
        <ele>893</ele>
        <time>2020-08-15T05:30:41.000Z</time>
      </trkpt>
      <trkpt lat="42.409074939787387847900390625" lon="0.72521978057920932769775390625">
        <ele>892.79998779296875</ele>
        <time>2020-08-15T05:30:46.000Z</time>
      </trkpt>
      <trkpt lat="42.40905188955366611480712890625" lon="0.725049711763858795166015625">
        <ele>893.5999755859375</ele>
        <time>2020-08-15T05:30:53.000Z</time>
      </trkpt>
      <trkpt lat="42.40904979407787322998046875" lon="0.72491434402763843536376953125">
        <ele>893.79998779296875</ele>
        <time>2020-08-15T05:30:58.000Z</time>
      </trkpt>
      <trkpt lat="42.40905893035233020782470703125" lon="0.72486522607505321502685546875">
        <ele>894.20001220703125</ele>
        <time>2020-08-15T05:31:00.000Z</time>
      </trkpt>
      <trkpt lat="42.4091069586575031280517578125" lon="0.72475768625736236572265625">
        <ele>894.79998779296875</ele>
        <time>2020-08-15T05:31:05.000Z</time>
      </trkpt>
      <trkpt lat="42.4091518856585025787353515625" lon="0.72470806539058685302734375">
        <ele>895</ele>
        <time>2020-08-15T05:31:08.000Z</time>
      </trkpt>
      <trkpt lat="42.40925741381943225860595703125" lon="0.72455744259059429168701171875">
        <ele>896</ele>
        <time>2020-08-15T05:31:16.000Z</time>
      </trkpt>
      <trkpt lat="42.40934617817401885986328125" lon="0.72443448007106781005859375">
        <ele>896.79998779296875</ele>
        <time>2020-08-15T05:31:23.000Z</time>
      </trkpt>
      <trkpt lat="42.4093718267977237701416015625" lon="0.7243997789919376373291015625">
        <ele>897.20001220703125</ele>
        <time>2020-08-15T05:31:25.000Z</time>
      </trkpt>
      <trkpt lat="42.40943812765181064605712890625" lon="0.72428519837558269500732421875">
        <ele>898.20001220703125</ele>
        <time>2020-08-15T05:31:31.000Z</time>
      </trkpt>
      <trkpt lat="42.40945070050656795501708984375" lon="0.7242683507502079010009765625">
        <ele>898.4000244140625</ele>
        <time>2020-08-15T05:31:32.000Z</time>
      </trkpt>
      <trkpt lat="42.40951138548552989959716796875" lon="0.72412460111081600189208984375">
        <ele>899.20001220703125</ele>
        <time>2020-08-15T05:31:39.000Z</time>
      </trkpt>
      <trkpt lat="42.40952831692993640899658203125" lon="0.72408311069011688232421875">
        <ele>899.20001220703125</ele>
        <time>2020-08-15T05:31:41.000Z</time>
      </trkpt>
      <trkpt lat="42.40955648012459278106689453125" lon="0.72394606657326221466064453125">
        <ele>900.20001220703125</ele>
        <time>2020-08-15T05:31:47.000Z</time>
      </trkpt>
      <trkpt lat="42.40956184454262256622314453125" lon="0.7239241898059844970703125">
        <ele>900.4000244140625</ele>
        <time>2020-08-15T05:31:48.000Z</time>
      </trkpt>
      <trkpt lat="42.40958087146282196044921875" lon="0.72379066608846187591552734375">
        <ele>901.5999755859375</ele>
        <time>2020-08-15T05:31:54.000Z</time>
      </trkpt>
      <trkpt lat="42.40957844071090221405029296875" lon="0.72374112904071807861328125">
        <ele>902</ele>
        <time>2020-08-15T05:31:56.000Z</time>
      </trkpt>
      <trkpt lat="42.409582547843456268310546875" lon="0.723648928105831146240234375">
        <ele>902.5999755859375</ele>
        <time>2020-08-15T05:32:00.000Z</time>
      </trkpt>
      <trkpt lat="42.409573495388031005859375" lon="0.7235820405185222625732421875">
        <ele>903.20001220703125</ele>
        <time>2020-08-15T05:32:03.000Z</time>
      </trkpt>
      <trkpt lat="42.40956016816198825836181640625" lon="0.72351624257862567901611328125">
        <ele>903.79998779296875</ele>
        <time>2020-08-15T05:32:06.000Z</time>
      </trkpt>
      <trkpt lat="42.40953066386282444000244140625" lon="0.72336494922637939453125">
        <ele>904.79998779296875</ele>
        <time>2020-08-15T05:32:13.000Z</time>
      </trkpt>
      <trkpt lat="42.40949545986950397491455078125" lon="0.723249614238739013671875">
        <ele>906</ele>
        <time>2020-08-15T05:32:19.000Z</time>
      </trkpt>
      <trkpt lat="42.4094844795763492584228515625" lon="0.7232336886227130889892578125">
        <ele>906.20001220703125</ele>
        <time>2020-08-15T05:32:20.000Z</time>
      </trkpt>
      <trkpt lat="42.40944298915565013885498046875" lon="0.72314157150685787200927734375">
        <ele>907</ele>
        <time>2020-08-15T05:32:25.000Z</time>
      </trkpt>
      <trkpt lat="42.40943334996700286865234375" lon="0.723123215138912200927734375">
        <ele>907.20001220703125</ele>
        <time>2020-08-15T05:32:26.000Z</time>
      </trkpt>
      <trkpt lat="42.40940845571458339691162109375" lon="0.72299757041037082672119140625">
        <ele>908</ele>
        <time>2020-08-15T05:32:32.000Z</time>
      </trkpt>
      <trkpt lat="42.4093976430594921112060546875" lon="0.7229530625045299530029296875">
        <ele>908.20001220703125</ele>
        <time>2020-08-15T05:32:34.000Z</time>
      </trkpt>
      <trkpt lat="42.409396134316921234130859375" lon="0.72291232645511627197265625">
        <ele>908.5999755859375</ele>
        <time>2020-08-15T05:32:36.000Z</time>
      </trkpt>
      <trkpt lat="42.40940988063812255859375" lon="0.7228615321218967437744140625">
        <ele>908.79998779296875</ele>
        <time>2020-08-15T05:32:39.000Z</time>
      </trkpt>
      <trkpt lat="42.40942454896867275238037109375" lon="0.72270671837031841278076171875">
        <ele>909</ele>
        <time>2020-08-15T05:32:46.000Z</time>
      </trkpt>
      <trkpt lat="42.4094683863222599029541015625" lon="0.72250203229486942291259765625">
        <ele>908.5999755859375</ele>
        <time>2020-08-15T05:32:52.000Z</time>
      </trkpt>
      <trkpt lat="42.4095211923122406005859375" lon="0.722192488610744476318359375">
        <ele>907.20001220703125</ele>
        <time>2020-08-15T05:32:57.000Z</time>
      </trkpt>
      <trkpt lat="42.40955195389688014984130859375" lon="0.72204572148621082305908203125">
        <ele>906.79998779296875</ele>
        <time>2020-08-15T05:33:01.000Z</time>
      </trkpt>
      <trkpt lat="42.409611046314239501953125" lon="0.72168789803981781005859375">
        <ele>906.4000244140625</ele>
        <time>2020-08-15T05:33:05.000Z</time>
      </trkpt>
      <trkpt lat="42.40963644348084926605224609375" lon="0.7214885763823986053466796875">
        <ele>907.4000244140625</ele>
        <time>2020-08-15T05:33:11.000Z</time>
      </trkpt>
      <trkpt lat="42.40971942432224750518798828125" lon="0.72126067243516445159912109375">
        <ele>909</ele>
        <time>2020-08-15T05:33:20.000Z</time>
      </trkpt>
      <trkpt lat="42.40972747094929218292236328125" lon="0.72123569436371326446533203125">
        <ele>909.20001220703125</ele>
        <time>2020-08-15T05:33:21.000Z</time>
      </trkpt>
      <trkpt lat="42.40988069213926792144775390625" lon="0.721056573092937469482421875">
        <ele>910.79998779296875</ele>
        <time>2020-08-15T05:33:32.000Z</time>
      </trkpt>
      <trkpt lat="42.40989058278501033782958984375" lon="0.72104014456272125244140625">
        <ele>911</ele>
        <time>2020-08-15T05:33:33.000Z</time>
      </trkpt>
      <trkpt lat="42.4098915047943592071533203125" lon="0.7209762744605541229248046875">
        <ele>912.20001220703125</ele>
        <time>2020-08-15T05:33:36.000Z</time>
      </trkpt>
      <trkpt lat="42.4098951928317546844482421875" lon="0.7209544815123081207275390625">
        <ele>912.4000244140625</ele>
        <time>2020-08-15T05:33:37.000Z</time>
      </trkpt>
      <trkpt lat="42.409911789000034332275390625" lon="0.72092304937541484832763671875">
        <ele>912.79998779296875</ele>
        <time>2020-08-15T05:33:39.000Z</time>
      </trkpt>
      <trkpt lat="42.40991790778934955596923828125" lon="0.720904357731342315673828125">
        <ele>913</ele>
        <time>2020-08-15T05:33:40.000Z</time>
      </trkpt>
      <trkpt lat="42.4099176563322544097900390625" lon="0.72088516317307949066162109375">
        <ele>913.4000244140625</ele>
        <time>2020-08-15T05:33:41.000Z</time>
      </trkpt>
      <trkpt lat="42.40990273654460906982421875" lon="0.720842666923999786376953125">
        <ele>914</ele>
        <time>2020-08-15T05:33:43.000Z</time>
      </trkpt>
      <trkpt lat="42.409895695745944976806640625" lon="0.72079966776072978973388671875">
        <ele>914.5999755859375</ele>
        <time>2020-08-15T05:33:45.000Z</time>
      </trkpt>
      <trkpt lat="42.40988823585212230682373046875" lon="0.720737390220165252685546875">
        <ele>915</ele>
        <time>2020-08-15T05:33:48.000Z</time>
      </trkpt>
      <trkpt lat="42.40986677818000316619873046875" lon="0.72070227004587650299072265625">
        <ele>915.20001220703125</ele>
        <time>2020-08-15T05:33:50.000Z</time>
      </trkpt>
      <trkpt lat="42.40985755808651447296142578125" lon="0.720685422420501708984375">
        <ele>915.4000244140625</ele>
        <time>2020-08-15T05:33:51.000Z</time>
      </trkpt>
      <trkpt lat="42.4098430573940277099609375" lon="0.72062817402184009552001953125">
        <ele>916</ele>
        <time>2020-08-15T05:33:54.000Z</time>
      </trkpt>
      <trkpt lat="42.409831322729587554931640625" lon="0.7205917127430438995361328125">
        <ele>916.4000244140625</ele>
        <time>2020-08-15T05:33:56.000Z</time>
      </trkpt>
      <trkpt lat="42.40978346206247806549072265625" lon="0.720516107976436614990234375">
        <ele>917.4000244140625</ele>
        <time>2020-08-15T05:34:01.000Z</time>
      </trkpt>
      <trkpt lat="42.40977558307349681854248046875" lon="0.7205001823604106903076171875">
        <ele>917.5999755859375</ele>
        <time>2020-08-15T05:34:02.000Z</time>
      </trkpt>
      <trkpt lat="42.40975647233426570892333984375" lon="0.7203999347984790802001953125">
        <ele>918.5999755859375</ele>
        <time>2020-08-15T05:34:07.000Z</time>
      </trkpt>
      <trkpt lat="42.40973434410989284515380859375" lon="0.72036934085190296173095703125">
        <ele>918.79998779296875</ele>
        <time>2020-08-15T05:34:09.000Z</time>
      </trkpt>
      <trkpt lat="42.40970701910555362701416015625" lon="0.72031997144222259521484375">
        <ele>919.20001220703125</ele>
        <time>2020-08-15T05:34:12.000Z</time>
      </trkpt>
      <trkpt lat="42.40970064885914325714111328125" lon="0.7202607952058315277099609375">
        <ele>919.79998779296875</ele>
        <time>2020-08-15T05:34:15.000Z</time>
      </trkpt>
      <trkpt lat="42.4096484296023845672607421875" lon="0.7201940752565860748291015625">
        <ele>920.79998779296875</ele>
        <time>2020-08-15T05:34:20.000Z</time>
      </trkpt>
      <trkpt lat="42.4096454121172428131103515625" lon="0.72017513215541839599609375">
        <ele>920.5999755859375</ele>
        <time>2020-08-15T05:34:21.000Z</time>
      </trkpt>
      <trkpt lat="42.4096444062888622283935546875" lon="0.72015635669231414794921875">
        <ele>921</ele>
        <time>2020-08-15T05:34:22.000Z</time>
      </trkpt>
      <trkpt lat="42.409626133739948272705078125" lon="0.72010464034974575042724609375">
        <ele>921.79998779296875</ele>
        <time>2020-08-15T05:34:25.000Z</time>
      </trkpt>
      <trkpt lat="42.40961481817066669464111328125" lon="0.72009156458079814910888671875">
        <ele>922</ele>
        <time>2020-08-15T05:34:26.000Z</time>
      </trkpt>
      <trkpt lat="42.40959118120372295379638671875" lon="0.72005066089332103729248046875">
        <ele>922.4000244140625</ele>
        <time>2020-08-15T05:34:29.000Z</time>
      </trkpt>
      <trkpt lat="42.40958615206182003021240234375" lon="0.72001260705292224884033203125">
        <ele>922.79998779296875</ele>
        <time>2020-08-15T05:34:31.000Z</time>
      </trkpt>
      <trkpt lat="42.409584559500217437744140625" lon="0.7199932448565959930419921875">
        <ele>923</ele>
        <time>2020-08-15T05:34:32.000Z</time>
      </trkpt>
      <trkpt lat="42.40957844071090221405029296875" lon="0.71997572667896747589111328125">
        <ele>923.20001220703125</ele>
        <time>2020-08-15T05:34:33.000Z</time>
      </trkpt>
      <trkpt lat="42.4095441587269306182861328125" lon="0.71991638280451297760009765625">
        <ele>923.79998779296875</ele>
        <time>2020-08-15T05:34:37.000Z</time>
      </trkpt>
      <trkpt lat="42.4095434881746768951416015625" lon="0.71989618241786956787109375">
        <ele>924</ele>
        <time>2020-08-15T05:34:38.000Z</time>
      </trkpt>
      <trkpt lat="42.4095292389392852783203125" lon="0.71978830732405185699462890625">
        <ele>925</ele>
        <time>2020-08-15T05:34:44.000Z</time>
      </trkpt>
      <trkpt lat="42.40952362306416034698486328125" lon="0.7197706215083599090576171875">
        <ele>925</ele>
        <time>2020-08-15T05:34:45.000Z</time>
      </trkpt>
      <trkpt lat="42.40952278487384319305419921875" lon="0.71975192986428737640380859375">
        <ele>925.20001220703125</ele>
        <time>2020-08-15T05:34:46.000Z</time>
      </trkpt>
      <trkpt lat="42.409532256424427032470703125" lon="0.71967498399317264556884765625">
        <ele>926</ele>
        <time>2020-08-15T05:34:50.000Z</time>
      </trkpt>
      <trkpt lat="42.40952814929187297821044921875" lon="0.71965654380619525909423828125">
        <ele>926.20001220703125</ele>
        <time>2020-08-15T05:34:51.000Z</time>
      </trkpt>
      <trkpt lat="42.4095104634761810302734375" lon="0.71960541419684886932373046875">
        <ele>926.79998779296875</ele>
        <time>2020-08-15T05:34:54.000Z</time>
      </trkpt>
      <trkpt lat="42.40951918065547943115234375" lon="0.7195510156452655792236328125">
        <ele>927.4000244140625</ele>
        <time>2020-08-15T05:34:57.000Z</time>
      </trkpt>
      <trkpt lat="42.4095129780471324920654296875" lon="0.7194762490689754486083984375">
        <ele>927.79998779296875</ele>
        <time>2020-08-15T05:35:01.000Z</time>
      </trkpt>
      <trkpt lat="42.4094901792705059051513671875" lon="0.7194246165454387664794921875">
        <ele>928.4000244140625</ele>
        <time>2020-08-15T05:35:04.000Z</time>
      </trkpt>
      <trkpt lat="42.40948389284312725067138671875" lon="0.71936703287065029144287109375">
        <ele>928.79998779296875</ele>
        <time>2020-08-15T05:35:07.000Z</time>
      </trkpt>
      <trkpt lat="42.4094541370868682861328125" lon="0.7192921824753284454345703125">
        <ele>929.5999755859375</ele>
        <time>2020-08-15T05:35:12.000Z</time>
      </trkpt>
      <trkpt lat="42.4094402231276035308837890625" lon="0.719260163605213165283203125">
        <ele>929.79998779296875</ele>
        <time>2020-08-15T05:35:14.000Z</time>
      </trkpt>
      <trkpt lat="42.40943192504346370697021484375" lon="0.7191915996372699737548828125">
        <ele>930.79998779296875</ele>
        <time>2020-08-15T05:35:18.000Z</time>
      </trkpt>
      <trkpt lat="42.40942102856934070587158203125" lon="0.71916083805263042449951171875">
        <ele>931</ele>
        <time>2020-08-15T05:35:20.000Z</time>
      </trkpt>
      <trkpt lat="42.40940384566783905029296875" lon="0.7191138155758380889892578125">
        <ele>931.4000244140625</ele>
        <time>2020-08-15T05:35:23.000Z</time>
      </trkpt>
      <trkpt lat="42.40941214375197887420654296875" lon="0.71905665099620819091796875">
        <ele>931.5999755859375</ele>
        <time>2020-08-15T05:35:26.000Z</time>
      </trkpt>
      <trkpt lat="42.4094150774180889129638671875" lon="0.7189629413187503814697265625">
        <ele>932.5999755859375</ele>
        <time>2020-08-15T05:35:31.000Z</time>
      </trkpt>
      <trkpt lat="42.40940862335264682769775390625" lon="0.71894626133143901824951171875">
        <ele>932.5999755859375</ele>
        <time>2020-08-15T05:35:32.000Z</time>
      </trkpt>
      <trkpt lat="42.409401834011077880859375" lon="0.718930251896381378173828125">
        <ele>932.79998779296875</ele>
        <time>2020-08-15T05:35:33.000Z</time>
      </trkpt>
      <trkpt lat="42.40940074436366558074951171875" lon="0.71884484030306339263916015625">
        <ele>933.79998779296875</ele>
        <time>2020-08-15T05:35:38.000Z</time>
      </trkpt>
      <trkpt lat="42.40940024144947528839111328125" lon="0.71882874704897403717041015625">
        <ele>934</ele>
        <time>2020-08-15T05:35:39.000Z</time>
      </trkpt>
      <trkpt lat="42.40935464389622211456298828125" lon="0.71874241344630718231201171875">
        <ele>935.20001220703125</ele>
        <time>2020-08-15T05:35:45.000Z</time>
      </trkpt>
      <trkpt lat="42.4093522131443023681640625" lon="0.71872581727802753448486328125">
        <ele>935.20001220703125</ele>
        <time>2020-08-15T05:35:46.000Z</time>
      </trkpt>
      <trkpt lat="42.40931667387485504150390625" lon="0.71864417754113674163818359375">
        <ele>936</ele>
        <time>2020-08-15T05:35:51.000Z</time>
      </trkpt>
      <trkpt lat="42.4092444218695163726806640625" lon="0.7185612805187702178955078125">
        <ele>936.79998779296875</ele>
        <time>2020-08-15T05:35:57.000Z</time>
      </trkpt>
      <trkpt lat="42.40923528559505939483642578125" lon="0.71854795329272747039794921875">
        <ele>937</ele>
        <time>2020-08-15T05:35:58.000Z</time>
      </trkpt>
      <trkpt lat="42.409235201776027679443359375" lon="0.71853554807603359222412109375">
        <ele>937.20001220703125</ele>
        <time>2020-08-15T05:35:59.000Z</time>
      </trkpt>
      <trkpt lat="42.40923863835632801055908203125" lon="0.7184992544353008270263671875">
        <ele>938.20001220703125</ele>
        <time>2020-08-15T05:36:01.000Z</time>
      </trkpt>
      <trkpt lat="42.409251295030117034912109375" lon="0.71846681647002696990966796875">
        <ele>938.5999755859375</ele>
        <time>2020-08-15T05:36:03.000Z</time>
      </trkpt>
      <trkpt lat="42.40928038023412227630615234375" lon="0.7184087298810482025146484375">
        <ele>939</ele>
        <time>2020-08-15T05:36:07.000Z</time>
      </trkpt>
      <trkpt lat="42.40927685983479022979736328125" lon="0.71839070878922939300537109375">
        <ele>939.20001220703125</ele>
        <time>2020-08-15T05:36:08.000Z</time>
      </trkpt>
      <trkpt lat="42.40927685983479022979736328125" lon="0.7183567620813846588134765625">
        <ele>939.79998779296875</ele>
        <time>2020-08-15T05:36:10.000Z</time>
      </trkpt>
      <trkpt lat="42.40927903912961483001708984375" lon="0.71830621920526027679443359375">
        <ele>940.4000244140625</ele>
        <time>2020-08-15T05:36:13.000Z</time>
      </trkpt>
      <trkpt lat="42.40929647348821163177490234375" lon="0.7182793132960796356201171875">
        <ele>940.79998779296875</ele>
        <time>2020-08-15T05:36:15.000Z</time>
      </trkpt>
      <trkpt lat="42.40932346321642398834228515625" lon="0.71822424419224262237548828125">
        <ele>941.5999755859375</ele>
        <time>2020-08-15T05:36:19.000Z</time>
      </trkpt>
      <trkpt lat="42.409319020807743072509765625" lon="0.71817244403064250946044921875">
        <ele>942.20001220703125</ele>
        <time>2020-08-15T05:36:22.000Z</time>
      </trkpt>
      <trkpt lat="42.40933142602443695068359375" lon="0.7181462086737155914306640625">
        <ele>942.5999755859375</ele>
        <time>2020-08-15T05:36:24.000Z</time>
      </trkpt>
      <trkpt lat="42.409359924495220184326171875" lon="0.71811326779425144195556640625">
        <ele>943</ele>
        <time>2020-08-15T05:36:27.000Z</time>
      </trkpt>
      <trkpt lat="42.40936486981809139251708984375" lon="0.718062222003936767578125">
        <ele>943.5999755859375</ele>
        <time>2020-08-15T05:36:30.000Z</time>
      </trkpt>
      <trkpt lat="42.4093641154468059539794921875" lon="0.7180273532867431640625">
        <ele>943.79998779296875</ele>
        <time>2020-08-15T05:36:32.000Z</time>
      </trkpt>
      <trkpt lat="42.409370653331279754638671875" lon="0.7179916463792324066162109375">
        <ele>944.4000244140625</ele>
        <time>2020-08-15T05:36:34.000Z</time>
      </trkpt>
      <trkpt lat="42.4093792028725147247314453125" lon="0.71797731332480907440185546875">
        <ele>944.5999755859375</ele>
        <time>2020-08-15T05:36:35.000Z</time>
      </trkpt>
      <trkpt lat="42.40939672105014324188232421875" lon="0.7179524190723896026611328125">
        <ele>945</ele>
        <time>2020-08-15T05:36:37.000Z</time>
      </trkpt>
      <trkpt lat="42.40940242074429988861083984375" lon="0.71793724782764911651611328125">
        <ele>945.20001220703125</ele>
        <time>2020-08-15T05:36:38.000Z</time>
      </trkpt>
      <trkpt lat="42.4094030074775218963623046875" lon="0.71788854897022247314453125">
        <ele>945.5999755859375</ele>
        <time>2020-08-15T05:36:41.000Z</time>
      </trkpt>
      <trkpt lat="42.409400828182697296142578125" lon="0.71785141713917255401611328125">
        <ele>946</ele>
        <time>2020-08-15T05:36:43.000Z</time>
      </trkpt>
      <trkpt lat="42.409439720213413238525390625" lon="0.71777681820094585418701171875">
        <ele>946.5999755859375</ele>
        <time>2020-08-15T05:36:48.000Z</time>
      </trkpt>
      <trkpt lat="42.40944349206984043121337890625" lon="0.71775955148041248321533203125">
        <ele>946.79998779296875</ele>
        <time>2020-08-15T05:36:49.000Z</time>
      </trkpt>
      <trkpt lat="42.40944139659404754638671875" lon="0.7177043147385120391845703125">
        <ele>947.20001220703125</ele>
        <time>2020-08-15T05:36:52.000Z</time>
      </trkpt>
      <trkpt lat="42.40944483317434787750244140625" lon="0.7176667638123035430908203125">
        <ele>947.4000244140625</ele>
        <time>2020-08-15T05:36:54.000Z</time>
      </trkpt>
      <trkpt lat="42.40947232581675052642822265625" lon="0.71762342937290668487548828125">
        <ele>947.79998779296875</ele>
        <time>2020-08-15T05:36:57.000Z</time>
      </trkpt>
      <trkpt lat="42.40948372520506381988525390625" lon="0.7175512611865997314453125">
        <ele>948.5999755859375</ele>
        <time>2020-08-15T05:37:01.000Z</time>
      </trkpt>
      <trkpt lat="42.40948355756700038909912109375" lon="0.71749367751181125640869140625">
        <ele>949</ele>
        <time>2020-08-15T05:37:04.000Z</time>
      </trkpt>
      <trkpt lat="42.40950711071491241455078125" lon="0.71744590066373348236083984375">
        <ele>949.4000244140625</ele>
        <time>2020-08-15T05:37:07.000Z</time>
      </trkpt>
      <trkpt lat="42.40952244959771633148193359375" lon="0.71738990955054759979248046875">
        <ele>949.5999755859375</ele>
        <time>2020-08-15T05:37:10.000Z</time>
      </trkpt>
      <trkpt lat="42.40952722728252410888671875" lon="0.71737096644937992095947265625">
        <ele>949.79998779296875</ele>
        <time>2020-08-15T05:37:11.000Z</time>
      </trkpt>
      <trkpt lat="42.40953552536666393280029296875" lon="0.71727608330547809600830078125">
        <ele>950.4000244140625</ele>
        <time>2020-08-15T05:37:16.000Z</time>
      </trkpt>
      <trkpt lat="42.40954591892659664154052734375" lon="0.717219673097133636474609375">
        <ele>951</ele>
        <time>2020-08-15T05:37:19.000Z</time>
      </trkpt>
      <trkpt lat="42.40956067107617855072021484375" lon="0.71714264340698719024658203125">
        <ele>951.4000244140625</ele>
        <time>2020-08-15T05:37:23.000Z</time>
      </trkpt>
      <trkpt lat="42.40956335328519344329833984375" lon="0.71706452406942844390869140625">
        <ele>952</ele>
        <time>2020-08-15T05:37:27.000Z</time>
      </trkpt>
      <trkpt lat="42.40955161862075328826904296875" lon="0.71696511469781398773193359375">
        <ele>952.5999755859375</ele>
        <time>2020-08-15T05:37:32.000Z</time>
      </trkpt>
      <trkpt lat="42.40956234745681285858154296875" lon="0.716885738074779510498046875">
        <ele>953</ele>
        <time>2020-08-15T05:37:36.000Z</time>
      </trkpt>
      <trkpt lat="42.40957424975931644439697265625" lon="0.71684961207211017608642578125">
        <ele>953.4000244140625</ele>
        <time>2020-08-15T05:37:38.000Z</time>
      </trkpt>
      <trkpt lat="42.4096018262207508087158203125" lon="0.71675590239465236663818359375">
        <ele>954.20001220703125</ele>
        <time>2020-08-15T05:37:43.000Z</time>
      </trkpt>
      <trkpt lat="42.4096035026013851165771484375" lon="0.7167145796120166778564453125">
        <ele>954.5999755859375</ele>
        <time>2020-08-15T05:37:45.000Z</time>
      </trkpt>
      <trkpt lat="42.40962655283510684967041015625" lon="0.71662095375359058380126953125">
        <ele>955.4000244140625</ele>
        <time>2020-08-15T05:37:50.000Z</time>
      </trkpt>
      <trkpt lat="42.4096387065947055816650390625" lon="0.71658432483673095703125">
        <ele>955.79998779296875</ele>
        <time>2020-08-15T05:37:52.000Z</time>
      </trkpt>
      <trkpt lat="42.409652955830097198486328125" lon="0.716549456119537353515625">
        <ele>956.4000244140625</ele>
        <time>2020-08-15T05:37:54.000Z</time>
      </trkpt>
      <trkpt lat="42.40971154533326625823974609375" lon="0.7165023498237133026123046875">
        <ele>957.5999755859375</ele>
        <time>2020-08-15T05:37:59.000Z</time>
      </trkpt>
      <trkpt lat="42.40977130830287933349609375" lon="0.71654350496828556060791015625">
        <ele>958.5999755859375</ele>
        <time>2020-08-15T05:38:04.000Z</time>
      </trkpt>
      <trkpt lat="42.40977893583476543426513671875" lon="0.7165586762130260467529296875">
        <ele>958.5999755859375</ele>
        <time>2020-08-15T05:38:05.000Z</time>
      </trkpt>
      <trkpt lat="42.4097731523215770721435546875" lon="0.7166679762303829193115234375">
        <ele>959.4000244140625</ele>
        <time>2020-08-15T05:38:11.000Z</time>
      </trkpt>
      <trkpt lat="42.409766614437103271484375" lon="0.7166847400367259979248046875">
        <ele>959.5999755859375</ele>
        <time>2020-08-15T05:38:12.000Z</time>
      </trkpt>
      <trkpt lat="42.4097399599850177764892578125" lon="0.7167893461883068084716796875">
        <ele>960.79998779296875</ele>
        <time>2020-08-15T05:38:18.000Z</time>
      </trkpt>
      <trkpt lat="42.40974247455596923828125" lon="0.7168268971145153045654296875">
        <ele>961.20001220703125</ele>
        <time>2020-08-15T05:38:20.000Z</time>
      </trkpt>
      <trkpt lat="42.4097384512424468994140625" lon="0.716899819672107696533203125">
        <ele>961.79998779296875</ele>
        <time>2020-08-15T05:38:24.000Z</time>
      </trkpt>
      <trkpt lat="42.40972847677767276763916015625" lon="0.71694935671985149383544921875">
        <ele>962.4000244140625</ele>
        <time>2020-08-15T05:38:27.000Z</time>
      </trkpt>
      <trkpt lat="42.40972294472157955169677734375" lon="0.71698757819831371307373046875">
        <ele>962.5999755859375</ele>
        <time>2020-08-15T05:38:29.000Z</time>
      </trkpt>
      <trkpt lat="42.40972361527383327484130859375" lon="0.7170069403946399688720703125">
        <ele>962.79998779296875</ele>
        <time>2020-08-15T05:38:30.000Z</time>
      </trkpt>
      <trkpt lat="42.40973082371056079864501953125" lon="0.71707583963871002197265625">
        <ele>963.5999755859375</ele>
        <time>2020-08-15T05:38:34.000Z</time>
      </trkpt>
      <trkpt lat="42.4097309075295925140380859375" lon="0.71711213327944278717041015625">
        <ele>963.79998779296875</ele>
        <time>2020-08-15T05:38:36.000Z</time>
      </trkpt>
      <trkpt lat="42.40975580178201198577880859375" lon="0.7171715609729290008544921875">
        <ele>964.5999755859375</ele>
        <time>2020-08-15T05:38:40.000Z</time>
      </trkpt>
      <trkpt lat="42.409764938056468963623046875" lon="0.71719964034855365753173828125">
        <ele>964.79998779296875</ele>
        <time>2020-08-15T05:38:42.000Z</time>
      </trkpt>
      <trkpt lat="42.40976820699870586395263671875" lon="0.7172161526978015899658203125">
        <ele>964.79998779296875</ele>
        <time>2020-08-15T05:38:43.000Z</time>
      </trkpt>
      <trkpt lat="42.40978497080504894256591796875" lon="0.71730642579495906829833984375">
        <ele>965.5999755859375</ele>
        <time>2020-08-15T05:38:48.000Z</time>
      </trkpt>
      <trkpt lat="42.4097882397472858428955078125" lon="0.71732251904904842376708984375">
        <ele>965.79998779296875</ele>
        <time>2020-08-15T05:38:49.000Z</time>
      </trkpt>
      <trkpt lat="42.409811206161975860595703125" lon="0.71742720901966094970703125">
        <ele>966.79998779296875</ele>
        <time>2020-08-15T05:38:55.000Z</time>
      </trkpt>
      <trkpt lat="42.40982771851122379302978515625" lon="0.7174592278897762298583984375">
        <ele>967.4000244140625</ele>
        <time>2020-08-15T05:38:57.000Z</time>
      </trkpt>
      <trkpt lat="42.40984532050788402557373046875" lon="0.71752971969544887542724609375">
        <ele>968</ele>
        <time>2020-08-15T05:39:01.000Z</time>
      </trkpt>
      <trkpt lat="42.40984096191823482513427734375" lon="0.717585124075412750244140625">
        <ele>968.4000244140625</ele>
        <time>2020-08-15T05:39:04.000Z</time>
      </trkpt>
      <trkpt lat="42.40984833799302577972412109375" lon="0.71763910353183746337890625">
        <ele>968.79998779296875</ele>
        <time>2020-08-15T05:39:07.000Z</time>
      </trkpt>
      <trkpt lat="42.4098633415997028350830078125" lon="0.7176721282303333282470703125">
        <ele>969.20001220703125</ele>
        <time>2020-08-15T05:39:09.000Z</time>
      </trkpt>
      <trkpt lat="42.40987113676965236663818359375" lon="0.71770624257624149322509765625">
        <ele>969.5999755859375</ele>
        <time>2020-08-15T05:39:11.000Z</time>
      </trkpt>
      <trkpt lat="42.4098643474280834197998046875" lon="0.71776206605136394500732421875">
        <ele>970.20001220703125</ele>
        <time>2020-08-15T05:39:14.000Z</time>
      </trkpt>
      <trkpt lat="42.409879267215728759765625" lon="0.7178320549428462982177734375">
        <ele>971</ele>
        <time>2020-08-15T05:39:18.000Z</time>
      </trkpt>
      <trkpt lat="42.409884631633758544921875" lon="0.7178650796413421630859375">
        <ele>971.20001220703125</ele>
        <time>2020-08-15T05:39:20.000Z</time>
      </trkpt>
      <trkpt lat="42.40988471545279026031494140625" lon="0.71788025088608264923095703125">
        <ele>971.4000244140625</ele>
        <time>2020-08-15T05:39:21.000Z</time>
      </trkpt>
      <trkpt lat="42.40988186560571193695068359375" lon="0.7179279439151287078857421875">
        <ele>971.79998779296875</ele>
        <time>2020-08-15T05:39:24.000Z</time>
      </trkpt>
      <trkpt lat="42.4098858051002025604248046875" lon="0.717943198978900909423828125">
        <ele>972</ele>
        <time>2020-08-15T05:39:25.000Z</time>
      </trkpt>
      <trkpt lat="42.409894354641437530517578125" lon="0.717971026897430419921875">
        <ele>972.5999755859375</ele>
        <time>2020-08-15T05:39:27.000Z</time>
      </trkpt>
      <trkpt lat="42.40990315563976764678955078125" lon="0.71798644959926605224609375">
        <ele>972.5999755859375</ele>
        <time>2020-08-15T05:39:28.000Z</time>
      </trkpt>
      <trkpt lat="42.40992712788283824920654296875" lon="0.7180348969995975494384765625">
        <ele>973.20001220703125</ele>
        <time>2020-08-15T05:39:31.000Z</time>
      </trkpt>
      <trkpt lat="42.4099438078701496124267578125" lon="0.71807504631578922271728515625">
        <ele>973.5999755859375</ele>
        <time>2020-08-15T05:39:33.000Z</time>
      </trkpt>
      <trkpt lat="42.4099746532738208770751953125" lon="0.7181234098970890045166015625">
        <ele>974.20001220703125</ele>
        <time>2020-08-15T05:39:36.000Z</time>
      </trkpt>
      <trkpt lat="42.4099800176918506622314453125" lon="0.71813824586570262908935546875">
        <ele>974.4000244140625</ele>
        <time>2020-08-15T05:39:37.000Z</time>
      </trkpt>
      <trkpt lat="42.4099860526621341705322265625" lon="0.7181891240179538726806640625">
        <ele>974.4000244140625</ele>
        <time>2020-08-15T05:39:40.000Z</time>
      </trkpt>
      <trkpt lat="42.40998588502407073974609375" lon="0.71818971075117588043212890625">
        <ele>974.79998779296875</ele>
        <time>2020-08-15T05:39:41.000Z</time>
      </trkpt>
      <trkpt lat="42.409887649118900299072265625" lon="0.71830026805400848388671875">
        <ele>986</ele>
        <time>2020-08-15T05:47:06.000Z</time>
      </trkpt>
      <trkpt lat="42.40996442735195159912109375" lon="0.7183854281902313232421875">
        <ele>975</ele>
        <time>2020-08-15T05:47:15.000Z</time>
      </trkpt>
      <trkpt lat="42.41001279093325138092041015625" lon="0.71848089806735515594482421875">
        <ele>976</ele>
        <time>2020-08-15T05:47:20.000Z</time>
      </trkpt>
      <trkpt lat="42.41001949645578861236572265625" lon="0.718497075140476226806640625">
        <ele>976.20001220703125</ele>
        <time>2020-08-15T05:47:21.000Z</time>
      </trkpt>
      <trkpt lat="42.410024441778659820556640625" lon="0.718514509499073028564453125">
        <ele>976.4000244140625</ele>
        <time>2020-08-15T05:47:22.000Z</time>
      </trkpt>
      <trkpt lat="42.4100911617279052734375" lon="0.71866965852677822113037109375">
        <ele>977.4000244140625</ele>
        <time>2020-08-15T05:47:32.000Z</time>
      </trkpt>
      <trkpt lat="42.410454265773296356201171875" lon="0.7189218699932098388671875">
        <ele>983.4000244140625</ele>
        <time>2039-05-14T05:48:02.000Z</time>
      </trkpt>
      <trkpt lat="42.41048745810985565185546875" lon="0.7189260609447956085205078125">
        <ele>983.5999755859375</ele>
        <time>2039-05-14T05:48:04.000Z</time>
      </trkpt>
      <trkpt lat="42.41058728657662868499755859375" lon="0.71889513172209262847900390625">
        <ele>985.20001220703125</ele>
        <time>2039-05-14T05:48:11.000Z</time>
      </trkpt>
      <trkpt lat="42.41062567569315433502197265625" lon="0.71887518279254436492919921875">
        <ele>985.5999755859375</ele>
        <time>2039-05-14T05:48:14.000Z</time>
      </trkpt>
      <trkpt lat="42.41066054441034793853759765625" lon="0.7188375480473041534423828125">
        <ele>986</ele>
        <time>2039-05-14T05:48:17.000Z</time>
      </trkpt>
      <trkpt lat="42.41067789494991302490234375" lon="0.71881131269037723541259765625">
        <ele>986.20001220703125</ele>
        <time>2039-05-14T05:48:19.000Z</time>
      </trkpt>
      <trkpt lat="42.41068049333989620208740234375" lon="0.7187929563224315643310546875">
        <ele>986.79998779296875</ele>
        <time>2039-05-14T05:48:20.000Z</time>
      </trkpt>
      <trkpt lat="42.4106814153492450714111328125" lon="0.71877275593578815460205078125">
        <ele>987</ele>
        <time>2039-05-14T05:48:21.000Z</time>
      </trkpt>
      <trkpt lat="42.41071133874356746673583984375" lon="0.71867167018353939056396484375">
        <ele>988</ele>
        <time>2039-05-14T05:48:27.000Z</time>
      </trkpt>
      <trkpt lat="42.41071066819131374359130859375" lon="0.71865322999656200408935546875">
        <ele>988.20001220703125</ele>
        <time>2039-05-14T05:48:28.000Z</time>
      </trkpt>
      <trkpt lat="42.41069910116493701934814453125" lon="0.71861836127936840057373046875">
        <ele>988.5999755859375</ele>
        <time>2039-05-14T05:48:30.000Z</time>
      </trkpt>
      <trkpt lat="42.41066641174256801605224609375" lon="0.718593634665012359619140625">
        <ele>989.20001220703125</ele>
        <time>2039-05-14T05:48:33.000Z</time>
      </trkpt>
      <trkpt lat="42.4106086604297161102294921875" lon="0.71853521279990673065185546875">
        <ele>990.20001220703125</ele>
        <time>2039-05-14T05:48:39.000Z</time>
      </trkpt>
      <trkpt lat="42.41059851832687854766845703125" lon="0.7185249030590057373046875">
        <ele>990.20001220703125</ele>
        <time>2039-05-14T05:48:40.000Z</time>
      </trkpt>
      <trkpt lat="42.410569600760936737060546875" lon="0.71844602935016155242919921875">
        <ele>990.79998779296875</ele>
        <time>2039-05-14T05:48:46.000Z</time>
      </trkpt>
      <trkpt lat="42.41056121885776519775390625" lon="0.7184328697621822357177734375">
        <ele>991</ele>
        <time>2039-05-14T05:48:47.000Z</time>
      </trkpt>
      <trkpt lat="42.41054034791886806488037109375" lon="0.71840889751911163330078125">
        <ele>991.4000244140625</ele>
        <time>2039-05-14T05:48:49.000Z</time>
      </trkpt>
      <trkpt lat="42.41052509285509586334228515625" lon="0.71837947703897953033447265625">
        <ele>991.79998779296875</ele>
        <time>2039-05-14T05:48:51.000Z</time>
      </trkpt>
      <trkpt lat="42.41052425466477870941162109375" lon="0.71836271323263645172119140625">
        <ele>991.79998779296875</ele>
        <time>2039-05-14T05:48:52.000Z</time>
      </trkpt>
      <trkpt lat="42.4105109274387359619140625" lon="0.71827470324933528900146484375">
        <ele>992.4000244140625</ele>
        <time>2039-05-14T05:48:57.000Z</time>
      </trkpt>
      <trkpt lat="42.410492487251758575439453125" lon="0.718244947493076324462890625">
        <ele>992.4000244140625</ele>
        <time>2039-05-14T05:48:59.000Z</time>
      </trkpt>
      <trkpt lat="42.4104765616357326507568359375" lon="0.71812592446804046630859375">
        <ele>993.4000244140625</ele>
        <time>2039-05-14T05:49:06.000Z</time>
      </trkpt>
      <trkpt lat="42.41046926937997341156005859375" lon="0.71811125613749027252197265625">
        <ele>993.4000244140625</ele>
        <time>2039-05-14T05:49:07.000Z</time>
      </trkpt>
      <trkpt lat="42.41044186055660247802734375" lon="0.718051828444004058837890625">
        <ele>993.79998779296875</ele>
        <time>2039-05-14T05:49:11.000Z</time>
      </trkpt>
      <trkpt lat="42.4104463867843151092529296875" lon="0.717985443770885467529296875">
        <ele>994.5999755859375</ele>
        <time>2039-05-14T05:49:15.000Z</time>
      </trkpt>
      <trkpt lat="42.41043456830084323883056640625" lon="0.71795049123466014862060546875">
        <ele>995</ele>
        <time>2039-05-14T05:49:17.000Z</time>
      </trkpt>
      <trkpt lat="42.41042166016995906829833984375" lon="0.71788377128541469573974609375">
        <ele>995.5999755859375</ele>
        <time>2039-05-14T05:49:21.000Z</time>
      </trkpt>
      <trkpt lat="42.41043859161436557769775390625" lon="0.7178556919097900390625">
        <ele>995.79998779296875</ele>
        <time>2039-05-14T05:49:23.000Z</time>
      </trkpt>
      <trkpt lat="42.41049760021269321441650390625" lon="0.71777321398258209228515625">
        <ele>996.5999755859375</ele>
        <time>2039-05-14T05:49:29.000Z</time>
      </trkpt>
      <trkpt lat="42.41052676923573017120361328125" lon="0.71777748875319957733154296875">
        <ele>996.79998779296875</ele>
        <time>2039-05-14T05:49:31.000Z</time>
      </trkpt>
      <trkpt lat="42.41057639010250568389892578125" lon="0.71782912127673625946044921875">
        <ele>997.5999755859375</ele>
        <time>2039-05-14T05:49:35.000Z</time>
      </trkpt>
      <trkpt lat="42.41059415973722934722900390625" lon="0.7178893871605396270751953125">
        <ele>998</ele>
        <time>2039-05-14T05:49:38.000Z</time>
      </trkpt>
      <trkpt lat="42.41059633903205394744873046875" lon="0.71791159920394420623779296875">
        <ele>998.20001220703125</ele>
        <time>2039-05-14T05:49:39.000Z</time>
      </trkpt>
      <trkpt lat="42.4106271006166934967041015625" lon="0.717987120151519775390625">
        <ele>998.5999755859375</ele>
        <time>2039-05-14T05:49:43.000Z</time>
      </trkpt>
      <trkpt lat="42.41064243949949741363525390625" lon="0.71802534162998199462890625">
        <ele>998.5999755859375</ele>
        <time>2039-05-14T05:49:45.000Z</time>
      </trkpt>
      <trkpt lat="42.4106639809906482696533203125" lon="0.7181064784526824951171875">
        <ele>998.79998779296875</ele>
        <time>2039-05-14T05:49:49.000Z</time>
      </trkpt>
      <trkpt lat="42.410688959062099456787109375" lon="0.7181354798376560211181640625">
        <ele>999</ele>
        <time>2039-05-14T05:49:51.000Z</time>
      </trkpt>
      <trkpt lat="42.41072751581668853759765625" lon="0.718232207000255584716796875">
        <ele>999.5999755859375</ele>
        <time>2039-05-14T05:49:56.000Z</time>
      </trkpt>
      <trkpt lat="42.4107362329959869384765625" lon="0.71825064718723297119140625">
        <ele>999.5999755859375</ele>
        <time>2039-05-14T05:49:57.000Z</time>
      </trkpt>
      <trkpt lat="42.410805635154247283935546875" lon="0.71832298301160335540771484375">
        <ele>1000</ele>
        <time>2039-05-14T05:50:02.000Z</time>
      </trkpt>
      <trkpt lat="42.41081728599965572357177734375" lon="0.7183396629989147186279296875">
        <ele>1000</ele>
        <time>2039-05-14T05:50:03.000Z</time>
      </trkpt>
      <trkpt lat="42.410865984857082366943359375" lon="0.7184047065675258636474609375">
        <ele>1000.4000244140625</ele>
        <time>2039-05-14T05:50:07.000Z</time>
      </trkpt>
      <trkpt lat="42.4108971655368804931640625" lon="0.71839858777821063995361328125">
        <ele>1000.79998779296875</ele>
        <time>2039-05-14T05:50:09.000Z</time>
      </trkpt>
      <trkpt lat="42.4109137617051601409912109375" lon="0.7183359749615192413330078125">
        <ele>1001.20001220703125</ele>
        <time>2039-05-14T05:50:12.000Z</time>
      </trkpt>
      <trkpt lat="42.41091786883771419525146484375" lon="0.71831367909908294677734375">
        <ele>1001.4000244140625</ele>
        <time>2039-05-14T05:50:13.000Z</time>
      </trkpt>
      <trkpt lat="42.41092063486576080322265625" lon="0.718269757926464080810546875">
        <ele>1001.79998779296875</ele>
        <time>2039-05-14T05:50:15.000Z</time>
      </trkpt>
      <trkpt lat="42.41088836453855037689208984375" lon="0.7182159461081027984619140625">
        <ele>1002.20001220703125</ele>
        <time>2039-05-14T05:50:18.000Z</time>
      </trkpt>
      <trkpt lat="42.41086942143738269805908203125" lon="0.718179903924465179443359375">
        <ele>1002.79998779296875</ele>
        <time>2039-05-14T05:50:20.000Z</time>
      </trkpt>
      <trkpt lat="42.41084964014589786529541015625" lon="0.71810388006269931793212890625">
        <ele>1003.20001220703125</ele>
        <time>2039-05-14T05:50:24.000Z</time>
      </trkpt>
      <trkpt lat="42.41082273423671722412109375" lon="0.71803280152380466461181640625">
        <ele>1003.79998779296875</ele>
        <time>2039-05-14T05:50:28.000Z</time>
      </trkpt>
      <trkpt lat="42.4107910506427288055419921875" lon="0.7179624773561954498291015625">
        <ele>1004.4000244140625</ele>
        <time>2039-05-14T05:50:32.000Z</time>
      </trkpt>
      <trkpt lat="42.4107799865305423736572265625" lon="0.71790355257689952850341796875">
        <ele>1005</ele>
        <time>2039-05-14T05:50:35.000Z</time>
      </trkpt>
      <trkpt lat="42.4107612110674381256103515625" lon="0.71782778017222881317138671875">
        <ele>1005.5999755859375</ele>
        <time>2039-05-14T05:50:39.000Z</time>
      </trkpt>
      <trkpt lat="42.4107447825372219085693359375" lon="0.7177934981882572174072265625">
        <ele>1006</ele>
        <time>2039-05-14T05:50:41.000Z</time>
      </trkpt>
      <trkpt lat="42.41074000485241413116455078125" lon="0.71771261282265186309814453125">
        <ele>1006.4000244140625</ele>
        <time>2039-05-14T05:50:45.000Z</time>
      </trkpt>
      <trkpt lat="42.41072592325508594512939453125" lon="0.717676989734172821044921875">
        <ele>1006.5999755859375</ele>
        <time>2039-05-14T05:50:47.000Z</time>
      </trkpt>
      <trkpt lat="42.410719133913516998291015625" lon="0.71765980683267116546630859375">
        <ele>1006.79998779296875</ele>
        <time>2039-05-14T05:50:48.000Z</time>
      </trkpt>
      <trkpt lat="42.41071586497128009796142578125" lon="0.717642791569232940673828125">
        <ele>1007</ele>
        <time>2039-05-14T05:50:49.000Z</time>
      </trkpt>
      <trkpt lat="42.4107196368277072906494140625" lon="0.71758604608476161956787109375">
        <ele>1007.4000244140625</ele>
        <time>2039-05-14T05:50:52.000Z</time>
      </trkpt>
      <trkpt lat="42.41070094518363475799560546875" lon="0.7175329886376857757568359375">
        <ele>1008</ele>
        <time>2039-05-14T05:50:55.000Z</time>
      </trkpt>
      <trkpt lat="42.41069373674690723419189453125" lon="0.71745662949979305267333984375">
        <ele>1008.79998779296875</ele>
        <time>2039-05-14T05:50:59.000Z</time>
      </trkpt>
      <trkpt lat="42.41069457493722438812255859375" lon="0.71743869222700595855712890625">
        <ele>1009</ele>
        <time>2039-05-14T05:51:00.000Z</time>
      </trkpt>
      <trkpt lat="42.41067362017929553985595703125" lon="0.71736912243068218231201171875">
        <ele>1009.5999755859375</ele>
        <time>2039-05-14T05:51:04.000Z</time>
      </trkpt>
      <trkpt lat="42.41067630238831043243408203125" lon="0.717287398874759674072265625">
        <ele>1010.20001220703125</ele>
        <time>2039-05-14T05:51:08.000Z</time>
      </trkpt>
      <trkpt lat="42.41067311726510524749755859375" lon="0.71726837195456027984619140625">
        <ele>1010.5999755859375</ele>
        <time>2039-05-14T05:51:09.000Z</time>
      </trkpt>
      <trkpt lat="42.410658113658428192138671875" lon="0.717171728610992431640625">
        <ele>1011</ele>
        <time>2039-05-14T05:51:14.000Z</time>
      </trkpt>
      <trkpt lat="42.4106602929532527923583984375" lon="0.71713292039930820465087890625">
        <ele>1011.20001220703125</ele>
        <time>2039-05-14T05:51:16.000Z</time>
      </trkpt>
      <trkpt lat="42.410657107830047607421875" lon="0.71711473166942596435546875">
        <ele>1011.4000244140625</ele>
        <time>2039-05-14T05:51:17.000Z</time>
      </trkpt>
      <trkpt lat="42.41064646281301975250244140625" lon="0.71701875887811183929443359375">
        <ele>1012.20001220703125</ele>
        <time>2039-05-14T05:51:22.000Z</time>
      </trkpt>
      <trkpt lat="42.41064763627946376800537109375" lon="0.71699939668178558349609375">
        <ele>1012.4000244140625</ele>
        <time>2039-05-14T05:51:23.000Z</time>
      </trkpt>
      <trkpt lat="42.41064394824206829071044921875" lon="0.71698204614222049713134765625">
        <ele>1012.5999755859375</ele>
        <time>2039-05-14T05:51:24.000Z</time>
      </trkpt>
      <trkpt lat="42.410618551075458526611328125" lon="0.71691088378429412841796875">
        <ele>1012.79998779296875</ele>
        <time>2039-05-14T05:51:28.000Z</time>
      </trkpt>
      <trkpt lat="42.4106167070567607879638671875" lon="0.7168698124587535858154296875">
        <ele>1013</ele>
        <time>2039-05-14T05:51:30.000Z</time>
      </trkpt>
      <trkpt lat="42.41059985943138599395751953125" lon="0.71678691543638706207275390625">
        <ele>1013.79998779296875</ele>
        <time>2039-05-14T05:51:34.000Z</time>
      </trkpt>
      <trkpt lat="42.41058393381536006927490234375" lon="0.71672581136226654052734375">
        <ele>1014.20001220703125</ele>
        <time>2039-05-14T05:51:37.000Z</time>
      </trkpt>
      <trkpt lat="42.41056926548480987548828125" lon="0.7166446745395660400390625">
        <ele>1014.79998779296875</ele>
        <time>2039-05-14T05:51:41.000Z</time>
      </trkpt>
      <trkpt lat="42.4105701036751270294189453125" lon="0.7165848277509212493896484375">
        <ele>1015.20001220703125</ele>
        <time>2039-05-14T05:51:44.000Z</time>
      </trkpt>
      <trkpt lat="42.41057605482637882232666015625" lon="0.71652322076261043548583984375">
        <ele>1015.5999755859375</ele>
        <time>2039-05-14T05:51:47.000Z</time>
      </trkpt>
      <trkpt lat="42.41060371510684490203857421875" lon="0.71646857075393199920654296875">
        <ele>1016</ele>
        <time>2039-05-14T05:51:50.000Z</time>
      </trkpt>
      <trkpt lat="42.41063154302537441253662109375" lon="0.7164520584046840667724609375">
        <ele>1016.20001220703125</ele>
        <time>2039-05-14T05:51:52.000Z</time>
      </trkpt>
      <trkpt lat="42.41064663045108318328857421875" lon="0.7164577580988407135009765625">
        <ele>1016.4000244140625</ele>
        <time>2039-05-14T05:51:53.000Z</time>
      </trkpt>
      <trkpt lat="42.41068535484373569488525390625" lon="0.71649857796728610992431640625">
        <ele>1017.20001220703125</ele>
        <time>2039-05-14T05:51:56.000Z</time>
      </trkpt>
      <trkpt lat="42.4106995202600955963134765625" lon="0.71656177751719951629638671875">
        <ele>1017.4000244140625</ele>
        <time>2039-05-14T05:51:59.000Z</time>
      </trkpt>
      <trkpt lat="42.41071519441902637481689453125" lon="0.716667473316192626953125">
        <ele>1018</ele>
        <time>2039-05-14T05:52:04.000Z</time>
      </trkpt>
      <trkpt lat="42.41072106175124645233154296875" lon="0.71668867953121662139892578125">
        <ele>1018.20001220703125</ele>
        <time>2039-05-14T05:52:05.000Z</time>
      </trkpt>
      <trkpt lat="42.41072508506476879119873046875" lon="0.716757662594318389892578125">
        <ele>1018.4000244140625</ele>
        <time>2039-05-14T05:52:08.000Z</time>
      </trkpt>
      <trkpt lat="42.41075433790683746337890625" lon="0.716836452484130859375">
        <ele>1019.20001220703125</ele>
        <time>2039-05-14T05:52:12.000Z</time>
      </trkpt>
      <trkpt lat="42.41079046390950679779052734375" lon="0.71693577803671360015869140625">
        <ele>1019.79998779296875</ele>
        <time>2039-05-14T05:52:17.000Z</time>
      </trkpt>
      <trkpt lat="42.4108024500310420989990234375" lon="0.7169760949909687042236328125">
        <ele>1020.20001220703125</ele>
        <time>2039-05-14T05:52:19.000Z</time>
      </trkpt>
      <trkpt lat="42.41084561683237552642822265625" lon="0.71704004891216754913330078125">
        <ele>1020.79998779296875</ele>
        <time>2039-05-14T05:52:23.000Z</time>
      </trkpt>
      <trkpt lat="42.41089775227010250091552734375" lon="0.71709595620632171630859375">
        <ele>1021.20001220703125</ele>
        <time>2039-05-14T05:52:27.000Z</time>
      </trkpt>
      <trkpt lat="42.41096019744873046875" lon="0.71719829924404621124267578125">
        <ele>1021.79998779296875</ele>
        <time>2039-05-14T05:52:33.000Z</time>
      </trkpt>
      <trkpt lat="42.41098509170114994049072265625" lon="0.71722713299095630645751953125">
        <ele>1022.20001220703125</ele>
        <time>2039-05-14T05:52:35.000Z</time>
      </trkpt>
      <trkpt lat="42.41102918051183223724365234375" lon="0.7172979600727558135986328125">
        <ele>1022.5999755859375</ele>
        <time>2039-05-14T05:52:39.000Z</time>
      </trkpt>
      <trkpt lat="42.41107645444571971893310546875" lon="0.717360489070415496826171875">
        <ele>1023.20001220703125</ele>
        <time>2039-05-14T05:52:43.000Z</time>
      </trkpt>
      <trkpt lat="42.41113982163369655609130859375" lon="0.71746132336556911468505859375">
        <ele>1024</ele>
        <time>2039-05-14T05:52:49.000Z</time>
      </trkpt>
      <trkpt lat="42.41115055046975612640380859375" lon="0.7174769975244998931884765625">
        <ele>1024.199951171875</ele>
        <time>2039-05-14T05:52:50.000Z</time>
      </trkpt>
      <trkpt lat="42.411234118044376373291015625" lon="0.71756961755454540252685546875">
        <ele>1025.4000244140625</ele>
        <time>2039-05-14T05:52:57.000Z</time>
      </trkpt>
      <trkpt lat="42.41124828346073627471923828125" lon="0.71757632307708263397216796875">
        <ele>1025.5999755859375</ele>
        <time>2039-05-14T05:52:58.000Z</time>
      </trkpt>
      <trkpt lat="42.41129212081432342529296875" lon="0.71756802499294281005859375">
        <ele>1026.4000244140625</ele>
        <time>2039-05-14T05:53:01.000Z</time>
      </trkpt>
      <trkpt lat="42.41130419075489044189453125" lon="0.7175547815859317779541015625">
        <ele>1026.4000244140625</ele>
        <time>2039-05-14T05:53:02.000Z</time>
      </trkpt>
      <trkpt lat="42.4113147519528865814208984375" lon="0.71753919124603271484375">
        <ele>1026.5999755859375</ele>
        <time>2039-05-14T05:53:03.000Z</time>
      </trkpt>
      <trkpt lat="42.4113362096250057220458984375" lon="0.71746786125004291534423828125">
        <ele>1027.4000244140625</ele>
        <time>2039-05-14T05:53:07.000Z</time>
      </trkpt>
      <trkpt lat="42.411327995359897613525390625" lon="0.71745126508176326751708984375">
        <ele>1027.5999755859375</ele>
        <time>2039-05-14T05:53:08.000Z</time>
      </trkpt>
      <trkpt lat="42.4113036878407001495361328125" lon="0.71738152764737606048583984375">
        <ele>1028.4000244140625</ele>
        <time>2039-05-14T05:53:12.000Z</time>
      </trkpt>
      <trkpt lat="42.41129522211849689483642578125" lon="0.71734263561666011810302734375">
        <ele>1029</ele>
        <time>2039-05-14T05:53:14.000Z</time>
      </trkpt>
      <trkpt lat="42.41126663982868194580078125" lon="0.71727222763001918792724609375">
        <ele>1029.4000244140625</ele>
        <time>2039-05-14T05:53:18.000Z</time>
      </trkpt>
      <trkpt lat="42.41124241612851619720458984375" lon="0.71722143329679965972900390625">
        <ele>1029.5999755859375</ele>
        <time>2039-05-14T05:53:21.000Z</time>
      </trkpt>
      <trkpt lat="42.4112118221819400787353515625" lon="0.7171765901148319244384765625">
        <ele>1030.800048828125</ele>
        <time>2039-05-14T05:53:24.000Z</time>
      </trkpt>
      <trkpt lat="42.4112007580697536468505859375" lon="0.7171423919498920440673828125">
        <ele>1031</ele>
        <time>2039-05-14T05:53:26.000Z</time>
      </trkpt>
      <trkpt lat="42.41119866259396076202392578125" lon="0.71710391901433467864990234375">
        <ele>1031.199951171875</ele>
        <time>2039-05-14T05:53:28.000Z</time>
      </trkpt>
      <trkpt lat="42.4111725948750972747802734375" lon="0.71703535504639148712158203125">
        <ele>1032</ele>
        <time>2039-05-14T05:53:32.000Z</time>
      </trkpt>
      <trkpt lat="42.4111601896584033966064453125" lon="0.7169988937675952911376953125">
        <ele>1032.4000244140625</ele>
        <time>2039-05-14T05:53:34.000Z</time>
      </trkpt>
      <trkpt lat="42.4111581780016422271728515625" lon="0.71692286990582942962646484375">
        <ele>1033</ele>
        <time>2039-05-14T05:53:38.000Z</time>
      </trkpt>
      <trkpt lat="42.4111481197178363800048828125" lon="0.71688515134155750274658203125">
        <ele>1033.4000244140625</ele>
        <time>2039-05-14T05:53:40.000Z</time>
      </trkpt>
      <trkpt lat="42.41113118827342987060546875" lon="0.7168128155171871185302734375">
        <ele>1034</ele>
        <time>2039-05-14T05:53:44.000Z</time>
      </trkpt>
      <trkpt lat="42.4111305177211761474609375" lon="0.7167722471058368682861328125">
        <ele>1034.199951171875</ele>
        <time>2039-05-14T05:53:46.000Z</time>
      </trkpt>
      <trkpt lat="42.41111098788678646087646484375" lon="0.71669739671051502227783203125">
        <ele>1034.800048828125</ele>
        <time>2039-05-14T05:53:50.000Z</time>
      </trkpt>
      <trkpt lat="42.41111283190548419952392578125" lon="0.71667795069515705108642578125">
        <ele>1035</ele>
        <time>2039-05-14T05:53:51.000Z</time>
      </trkpt>
      <trkpt lat="42.41111719049513339996337890625" lon="0.716638304293155670166015625">
        <ele>1035.4000244140625</ele>
        <time>2039-05-14T05:53:53.000Z</time>
      </trkpt>
      <trkpt lat="42.411103360354900360107421875" lon="0.71656647138297557830810546875">
        <ele>1036</ele>
        <time>2039-05-14T05:53:57.000Z</time>
      </trkpt>
      <trkpt lat="42.411099337041378021240234375" lon="0.716528333723545074462890625">
        <ele>1036.199951171875</ele>
        <time>2039-05-14T05:53:59.000Z</time>
      </trkpt>
      <trkpt lat="42.41110897623002529144287109375" lon="0.716435126960277557373046875">
        <ele>1037</ele>
        <time>2039-05-14T05:54:04.000Z</time>
      </trkpt>
      <trkpt lat="42.41111031733453273773193359375" lon="0.7164155133068561553955078125">
        <ele>1037.199951171875</ele>
        <time>2039-05-14T05:54:05.000Z</time>
      </trkpt>
      <trkpt lat="42.4111005105078220367431640625" lon="0.71631434373557567596435546875">
        <ele>1038.199951171875</ele>
        <time>2039-05-14T05:54:10.000Z</time>
      </trkpt>
      <trkpt lat="42.41111182607710361480712890625" lon="0.71620705537497997283935546875">
        <ele>1039.199951171875</ele>
        <time>2039-05-14T05:54:16.000Z</time>
      </trkpt>
      <trkpt lat="42.4111233092844486236572265625" lon="0.71617319248616695404052734375">
        <ele>1039.4000244140625</ele>
        <time>2039-05-14T05:54:18.000Z</time>
      </trkpt>
      <trkpt lat="42.4111400730907917022705078125" lon="0.71608216501772403717041015625">
        <ele>1040.199951171875</ele>
        <time>2039-05-14T05:54:23.000Z</time>
      </trkpt>
      <trkpt lat="42.41114703007042407989501953125" lon="0.7160277664661407470703125">
        <ele>1040.800048828125</ele>
        <time>2039-05-14T05:54:26.000Z</time>
      </trkpt>
      <trkpt lat="42.411148287355899810791015625" lon="0.71598954498767852783203125">
        <ele>1041.199951171875</ele>
        <time>2039-05-14T05:54:28.000Z</time>
      </trkpt>
      <trkpt lat="42.41115868091583251953125" lon="0.71591871790587902069091796875">
        <ele>1041.5999755859375</ele>
        <time>2039-05-14T05:54:32.000Z</time>
      </trkpt>
      <trkpt lat="42.411154992878437042236328125" lon="0.71583959273993968963623046875">
        <ele>1042.199951171875</ele>
        <time>2039-05-14T05:54:36.000Z</time>
      </trkpt>
      <trkpt lat="42.4111491255462169647216796875" lon="0.715803802013397216796875">
        <ele>1042.4000244140625</ele>
        <time>2039-05-14T05:54:38.000Z</time>
      </trkpt>
      <trkpt lat="42.411138899624347686767578125" lon="0.715704225003719329833984375">
        <ele>1043.199951171875</ele>
        <time>2039-05-14T05:54:43.000Z</time>
      </trkpt>
      <trkpt lat="42.41113898344337940216064453125" lon="0.71562702767550945281982421875">
        <ele>1044</ele>
        <time>2039-05-14T05:54:47.000Z</time>
      </trkpt>
      <trkpt lat="42.41113848052918910980224609375" lon="0.71558930911123752593994140625">
        <ele>1044.4000244140625</ele>
        <time>2039-05-14T05:54:49.000Z</time>
      </trkpt>
      <trkpt lat="42.41114518605172634124755859375" lon="0.7154958508908748626708984375">
        <ele>1045</ele>
        <time>2039-05-14T05:54:54.000Z</time>
      </trkpt>
      <trkpt lat="42.4111464433372020721435546875" lon="0.7154572941362857818603515625">
        <ele>1045.199951171875</ele>
        <time>2039-05-14T05:54:56.000Z</time>
      </trkpt>
      <trkpt lat="42.4111427552998065948486328125" lon="0.7154378481209278106689453125">
        <ele>1045.199951171875</ele>
        <time>2039-05-14T05:54:57.000Z</time>
      </trkpt>
      <trkpt lat="42.41114518605172634124755859375" lon="0.71539945900440216064453125">
        <ele>1045.4000244140625</ele>
        <time>2039-05-14T05:54:59.000Z</time>
      </trkpt>
      <trkpt lat="42.411149628460407257080078125" lon="0.71527129970490932464599609375">
        <ele>1046.4000244140625</ele>
        <time>2039-05-14T05:55:06.000Z</time>
      </trkpt>
      <trkpt lat="42.41116463206708431243896484375" lon="0.71520307101309299468994140625">
        <ele>1047</ele>
        <time>2039-05-14T05:55:09.000Z</time>
      </trkpt>
      <trkpt lat="42.41116412915289402008056640625" lon="0.71513794362545013427734375">
        <ele>1047.5999755859375</ele>
        <time>2039-05-14T05:55:12.000Z</time>
      </trkpt>
      <trkpt lat="42.41119514219462871551513671875" lon="0.7150729000568389892578125">
        <ele>1048.4000244140625</ele>
        <time>2039-05-14T05:55:16.000Z</time>
      </trkpt>
      <trkpt lat="42.41120268590748310089111328125" lon="0.71505739353597164154052734375">
        <ele>1048.5999755859375</ele>
        <time>2039-05-14T05:55:17.000Z</time>
      </trkpt>
      <trkpt lat="42.41124392487108707427978515625" lon="0.7149798609316349029541015625">
        <ele>1049.4000244140625</ele>
        <time>2039-05-14T05:55:23.000Z</time>
      </trkpt>
      <trkpt lat="42.411248870193958282470703125" lon="0.714953206479549407958984375">
        <ele>1049.5999755859375</ele>
        <time>2039-05-14T05:55:25.000Z</time>
      </trkpt>
      <trkpt lat="42.41124912165105342864990234375" lon="0.71489729918539524078369140625">
        <ele>1049.800048828125</ele>
        <time>2039-05-14T05:55:28.000Z</time>
      </trkpt>
      <trkpt lat="42.41121768951416015625" lon="0.7148046791553497314453125">
        <ele>1050.5999755859375</ele>
        <time>2039-05-14T05:55:33.000Z</time>
      </trkpt>
      <trkpt lat="42.4112091399729251861572265625" lon="0.7147859036922454833984375">
        <ele>1050.800048828125</ele>
        <time>2039-05-14T05:55:34.000Z</time>
      </trkpt>
      <trkpt lat="42.41119966842234134674072265625" lon="0.71476955898106098175048828125">
        <ele>1051</ele>
        <time>2039-05-14T05:55:35.000Z</time>
      </trkpt>
      <trkpt lat="42.4111742712557315826416015625" lon="0.71473552845418453216552734375">
        <ele>1051.5999755859375</ele>
        <time>2039-05-14T05:55:38.000Z</time>
      </trkpt>
      <trkpt lat="42.41114149801433086395263671875" lon="0.71470015682280063629150390625">
        <ele>1052</ele>
        <time>2039-05-14T05:55:41.000Z</time>
      </trkpt>
      <trkpt lat="42.41108349524438381195068359375" lon="0.71464466862380504608154296875">
        <ele>1052.800048828125</ele>
        <time>2039-05-14T05:55:46.000Z</time>
      </trkpt>
      <trkpt lat="42.41106119938194751739501953125" lon="0.7146227918565273284912109375">
        <ele>1052.800048828125</ele>
        <time>2039-05-14T05:55:48.000Z</time>
      </trkpt>
      <trkpt lat="42.4110017716884613037109375" lon="0.71454425342381000518798828125">
        <ele>1053.5999755859375</ele>
        <time>2039-05-14T05:55:54.000Z</time>
      </trkpt>
      <trkpt lat="42.41099967621266841888427734375" lon="0.71453905664384365081787109375">
        <ele>1053.800048828125</ele>
        <time>2039-05-14T05:55:55.000Z</time>
      </trkpt>
      <trkpt lat="42.410998083651065826416015625" lon="0.71453251875936985015869140625">
        <ele>1054</ele>
        <time>2039-05-14T05:56:44.000Z</time>
      </trkpt>
      <trkpt lat="42.41098760627210140228271484375" lon="0.71447971276938915252685546875">
        <ele>1053.800048828125</ele>
        <time>2039-05-14T05:56:49.000Z</time>
      </trkpt>
      <trkpt lat="42.4109811522066593170166015625" lon="0.71445674635469913482666015625">
        <ele>1053.800048828125</ele>
        <time>2039-05-14T05:56:50.000Z</time>
      </trkpt>
      <trkpt lat="42.41094318218529224395751953125" lon="0.71427418850362300872802734375">
        <ele>1054.5999755859375</ele>
        <time>2039-05-14T05:56:57.000Z</time>
      </trkpt>
      <trkpt lat="42.4109231494367122650146484375" lon="0.7141363061964511871337890625">
        <ele>1054.800048828125</ele>
        <time>2039-05-14T05:57:02.000Z</time>
      </trkpt>
      <trkpt lat="42.41091937758028507232666015625" lon="0.714103281497955322265625">
        <ele>1055</ele>
        <time>2039-05-14T05:57:03.000Z</time>
      </trkpt>
      <trkpt lat="42.4109325371682643890380859375" lon="0.713935308158397674560546875">
        <ele>1055.199951171875</ele>
        <time>2039-05-14T05:57:09.000Z</time>
      </trkpt>
      <trkpt lat="42.41094879806041717529296875" lon="0.71376909501850605010986328125">
        <ele>1055.800048828125</ele>
        <time>2039-05-14T05:57:15.000Z</time>
      </trkpt>
      <trkpt lat="42.410969920456409454345703125" lon="0.7135814242064952850341796875">
        <ele>1055.4000244140625</ele>
        <time>2039-05-14T05:57:22.000Z</time>
      </trkpt>
      <trkpt lat="42.4110237322747707366943359375" lon="0.71336500346660614013671875">
        <ele>1055.199951171875</ele>
        <time>2039-05-14T05:57:28.000Z</time>
      </trkpt>
      <trkpt lat="42.411073185503482818603515625" lon="0.71333172731101512908935546875">
        <ele>1055.199951171875</ele>
        <time>2039-05-14T05:57:30.000Z</time>
      </trkpt>
      <trkpt lat="42.4110911227762699127197265625" lon="0.7133393548429012298583984375">
        <ele>1055.199951171875</ele>
        <time>2039-05-14T05:57:31.000Z</time>
      </trkpt>
      <trkpt lat="42.41110813803970813751220703125" lon="0.71342593990266323089599609375">
        <ele>1055.5999755859375</ele>
        <time>2039-05-14T05:57:35.000Z</time>
      </trkpt>
      <trkpt lat="42.41109221242368221282958984375" lon="0.713491737842559814453125">
        <ele>1056.5999755859375</ele>
        <time>2039-05-14T05:57:38.000Z</time>
      </trkpt>
      <trkpt lat="42.41108031012117862701416015625" lon="0.71355518884956836700439453125">
        <ele>1057.5999755859375</ele>
        <time>2039-05-14T05:57:41.000Z</time>
      </trkpt>
      <trkpt lat="42.41107913665473461151123046875" lon="0.71357681415975093841552734375">
        <ele>1057.800048828125</ele>
        <time>2039-05-14T05:57:42.000Z</time>
      </trkpt>
      <trkpt lat="42.411069832742214202880859375" lon="0.71369550190865993499755859375">
        <ele>1058.800048828125</ele>
        <time>2039-05-14T05:57:48.000Z</time>
      </trkpt>
      <trkpt lat="42.41107209585607051849365234375" lon="0.71371511556208133697509765625">
        <ele>1059</ele>
        <time>2039-05-14T05:57:49.000Z</time>
      </trkpt>
      <trkpt lat="42.41109070368111133575439453125" lon="0.71378468535840511322021484375">
        <ele>1059.800048828125</ele>
        <time>2039-05-14T05:57:53.000Z</time>
      </trkpt>
      <trkpt lat="42.4110954813659191131591796875" lon="0.71383749134838581085205078125">
        <ele>1060.4000244140625</ele>
        <time>2039-05-14T05:57:56.000Z</time>
      </trkpt>
      <trkpt lat="42.41107997484505176544189453125" lon="0.713916532695293426513671875">
        <ele>1060.800048828125</ele>
        <time>2039-05-14T05:58:01.000Z</time>
      </trkpt>
      <trkpt lat="42.4110837467014789581298828125" lon="0.71395500563085079193115234375">
        <ele>1061</ele>
        <time>2039-05-14T05:58:03.000Z</time>
      </trkpt>
      <trkpt lat="42.41110696457326412200927734375" lon="0.714115686714649200439453125">
        <ele>1061.800048828125</ele>
        <time>2039-05-14T05:58:12.000Z</time>
      </trkpt>
      <trkpt lat="42.41110713221132755279541015625" lon="0.71413354016840457916259765625">
        <ele>1062</ele>
        <time>2039-05-14T05:58:13.000Z</time>
      </trkpt>
      <trkpt lat="42.4111313559114933013916015625" lon="0.71421501226723194122314453125">
        <ele>1062.5999755859375</ele>
        <time>2039-05-14T05:58:18.000Z</time>
      </trkpt>
      <trkpt lat="42.4111420847475528717041015625" lon="0.71422423236072063446044921875">
        <ele>1062.5999755859375</ele>
        <time>2039-05-14T05:58:19.000Z</time>
      </trkpt>
      <trkpt lat="42.41121190600097179412841796875" lon="0.71426622569561004638671875">
        <ele>1063.4000244140625</ele>
        <time>2039-05-14T05:58:25.000Z</time>
      </trkpt>
      <trkpt lat="42.41123638115823268890380859375" lon="0.71425817906856536865234375">
        <ele>1063.800048828125</ele>
        <time>2039-05-14T05:58:27.000Z</time>
      </trkpt>
      <trkpt lat="42.4113003350794315338134765625" lon="0.7141829095780849456787109375">
        <ele>1065</ele>
        <time>2039-05-14T05:58:34.000Z</time>
      </trkpt>
      <trkpt lat="42.4113107286393642425537109375" lon="0.71406103670597076416015625">
        <ele>1066</ele>
        <time>2039-05-14T05:58:40.000Z</time>
      </trkpt>
      <trkpt lat="42.41130980663001537322998046875" lon="0.71404016576707363128662109375">
        <ele>1066</ele>
        <time>2039-05-14T05:58:41.000Z</time>
      </trkpt>
      <trkpt lat="42.41131491959095001220703125" lon="0.71389767341315746307373046875">
        <ele>1066.800048828125</ele>
        <time>2039-05-14T05:58:48.000Z</time>
      </trkpt>
      <trkpt lat="42.41131894290447235107421875" lon="0.71385920047760009765625">
        <ele>1066.800048828125</ele>
        <time>2039-05-14T05:58:50.000Z</time>
      </trkpt>
      <trkpt lat="42.41132305003702640533447265625" lon="0.71384134702384471893310546875">
        <ele>1066.800048828125</ele>
        <time>2039-05-14T05:58:51.000Z</time>
      </trkpt>
      <trkpt lat="42.41132824681699275970458984375" lon="0.713804550468921661376953125">
        <ele>1067</ele>
        <time>2039-05-14T05:58:53.000Z</time>
      </trkpt>
      <trkpt lat="42.41135456599295139312744140625" lon="0.71370237506926059722900390625">
        <ele>1068</ele>
        <time>2039-05-14T05:58:59.000Z</time>
      </trkpt>
      <trkpt lat="42.41135875694453716278076171875" lon="0.71368594653904438018798828125">
        <ele>1068.199951171875</ele>
        <time>2039-05-14T05:59:00.000Z</time>
      </trkpt>
      <trkpt lat="42.41137258708477020263671875" lon="0.71360128931701183319091796875">
        <ele>1069</ele>
        <time>2039-05-14T05:59:05.000Z</time>
      </trkpt>
      <trkpt lat="42.411385662853717803955078125" lon="0.71354747749865055084228515625">
        <ele>1069.4000244140625</ele>
        <time>2039-05-14T05:59:08.000Z</time>
      </trkpt>
      <trkpt lat="42.41141139529645442962646484375" lon="0.713434405624866485595703125">
        <ele>1069.5999755859375</ele>
        <time>2039-05-14T05:59:16.000Z</time>
      </trkpt>
      <trkpt lat="42.4114287458360195159912109375" lon="0.71334497071802616119384765625">
        <ele>1069.800048828125</ele>
        <time>2039-05-14T05:59:25.000Z</time>
      </trkpt>
      <trkpt lat="42.4114468507468700408935546875" lon="0.7132605649530887603759765625">
        <ele>1070</ele>
        <time>2039-05-14T05:59:30.000Z</time>
      </trkpt>
      <trkpt lat="42.411456070840358734130859375" lon="0.71320130489766597747802734375">
        <ele>1070</ele>
        <time>2039-05-14T05:59:33.000Z</time>
      </trkpt>
      <trkpt lat="42.41150007583200931549072265625" lon="0.7130054198205471038818359375">
        <ele>1070.4000244140625</ele>
        <time>2039-05-14T05:59:43.000Z</time>
      </trkpt>
      <trkpt lat="42.41151952184736728668212890625" lon="0.71293157525360584259033203125">
        <ele>1070.4000244140625</ele>
        <time>2039-05-14T05:59:47.000Z</time>
      </trkpt>
      <trkpt lat="42.4115108884871006011962890625" lon="0.712739042937755584716796875">
        <ele>1070.5999755859375</ele>
        <time>2039-05-14T05:59:54.000Z</time>
      </trkpt>
      <trkpt lat="42.41154248826205730438232421875" lon="0.71270249783992767333984375">
        <ele>1070.800048828125</ele>
        <time>2039-05-14T05:59:57.000Z</time>
      </trkpt>
      <trkpt lat="42.41154684685170650482177734375" lon="0.7126577384769916534423828125">
        <ele>1071</ele>
        <time>2039-05-14T05:59:59.000Z</time>
      </trkpt>
      <trkpt lat="42.41154902614653110504150390625" lon="0.71263871155679225921630859375">
        <ele>1071</ele>
        <time>2039-05-14T06:00:00.000Z</time>
      </trkpt>
      <trkpt lat="42.4115799553692340850830078125" lon="0.71255371905863285064697265625">
        <ele>1071.4000244140625</ele>
        <time>2039-05-14T06:00:05.000Z</time>
      </trkpt>
      <trkpt lat="42.41159445606172084808349609375" lon="0.71239513345062732696533203125">
        <ele>1071.5999755859375</ele>
        <time>2039-05-14T06:00:12.000Z</time>
      </trkpt>
      <trkpt lat="42.41159789264202117919921875" lon="0.71236244402825832366943359375">
        <ele>1071.5999755859375</ele>
        <time>2039-05-14T06:00:13.000Z</time>
      </trkpt>
      <trkpt lat="42.4116178415715694427490234375" lon="0.712194554507732391357421875">
        <ele>1071.199951171875</ele>
        <time>2039-05-14T06:00:18.000Z</time>
      </trkpt>
      <trkpt lat="42.41165421903133392333984375" lon="0.7120502181351184844970703125">
        <ele>1071</ele>
        <time>2039-05-14T06:00:24.000Z</time>
      </trkpt>
      <trkpt lat="42.41170023567974567413330078125" lon="0.71187503635883331298828125">
        <ele>1070.5999755859375</ele>
        <time>2039-05-14T06:00:31.000Z</time>
      </trkpt>
      <trkpt lat="42.41174197755753993988037109375" lon="0.711765401065349578857421875">
        <ele>1070.199951171875</ele>
        <time>2039-05-14T06:00:35.000Z</time>
      </trkpt>
      <trkpt lat="42.41179629229009151458740234375" lon="0.7115918956696987152099609375">
        <ele>1070.199951171875</ele>
        <time>2039-05-14T06:00:41.000Z</time>
      </trkpt>
      <trkpt lat="42.411873154342174530029296875" lon="0.71141646243631839752197265625">
        <ele>1070.5999755859375</ele>
        <time>2039-05-14T06:00:48.000Z</time>
      </trkpt>
      <trkpt lat="42.4119370244443416595458984375" lon="0.71126810275018215179443359375">
        <ele>1070.199951171875</ele>
        <time>2039-05-14T06:00:54.000Z</time>
      </trkpt>
      <trkpt lat="42.41197474300861358642578125" lon="0.71109107695519924163818359375">
        <ele>1070.5999755859375</ele>
        <time>2039-05-14T06:01:01.000Z</time>
      </trkpt>
      <trkpt lat="42.4120091088116168975830078125" lon="0.71085487492382526397705078125">
        <ele>1071</ele>
        <time>2039-05-14T06:01:10.000Z</time>
      </trkpt>
      <trkpt lat="42.41201640106737613677978515625" lon="0.71075948886573314666748046875">
        <ele>1071.800048828125</ele>
        <time>2039-05-14T06:01:14.000Z</time>
      </trkpt>
      <trkpt lat="42.412014640867710113525390625" lon="0.710646249353885650634765625">
        <ele>1072.199951171875</ele>
        <time>2039-05-14T06:01:19.000Z</time>
      </trkpt>
      <trkpt lat="42.41201899945735931396484375" lon="0.7105364464223384857177734375">
        <ele>1072.800048828125</ele>
        <time>2039-05-14T06:01:24.000Z</time>
      </trkpt>
      <trkpt lat="42.4120275489985942840576171875" lon="0.710424296557903289794921875">
        <ele>1073</ele>
        <time>2039-05-14T06:01:29.000Z</time>
      </trkpt>
      <trkpt lat="42.41204858757555484771728515625" lon="0.71027107536792755126953125">
        <ele>1073</ele>
        <time>2039-05-14T06:01:36.000Z</time>
      </trkpt>
      <trkpt lat="42.41208429448306560516357421875" lon="0.71012615226209163665771484375">
        <ele>1073.199951171875</ele>
        <time>2039-05-14T06:01:43.000Z</time>
      </trkpt>
      <trkpt lat="42.412127293646335601806640625" lon="0.70993714034557342529296875">
        <ele>1072.800048828125</ele>
        <time>2039-05-14T06:01:50.000Z</time>
      </trkpt>
      <trkpt lat="42.41217724978923797607421875" lon="0.7096399180591106414794921875">
        <ele>1072.800048828125</ele>
        <time>2039-05-14T06:02:02.000Z</time>
      </trkpt>
      <trkpt lat="42.412197701632976531982421875" lon="0.7095322944223880767822265625">
        <ele>1073.199951171875</ele>
        <time>2039-05-14T06:02:07.000Z</time>
      </trkpt>
      <trkpt lat="42.412231229245662689208984375" lon="0.70934177376329898834228515625">
        <ele>1073.5999755859375</ele>
        <time>2039-05-14T06:02:15.000Z</time>
      </trkpt>
      <trkpt lat="42.41226601414382457733154296875" lon="0.70917145349085330963134765625">
        <ele>1073.800048828125</ele>
        <time>2039-05-14T06:02:23.000Z</time>
      </trkpt>
      <trkpt lat="42.412314377725124359130859375" lon="0.70900683291256427764892578125">
        <ele>1074.5999755859375</ele>
        <time>2039-05-14T06:02:31.000Z</time>
      </trkpt>
      <trkpt lat="42.41240750066936016082763671875" lon="0.70887272246181964874267578125">
        <ele>1075.800048828125</ele>
        <time>2039-05-14T06:02:40.000Z</time>
      </trkpt>
      <trkpt lat="42.4125386774539947509765625" lon="0.7088121213018894195556640625">
        <ele>1075.4000244140625</ele>
        <time>2039-05-14T06:02:48.000Z</time>
      </trkpt>
      <trkpt lat="42.412648312747478485107421875" lon="0.70877716876566410064697265625">
        <ele>1075.199951171875</ele>
        <time>2039-05-14T06:02:54.000Z</time>
      </trkpt>
      <trkpt lat="42.4127467162907123565673828125" lon="0.70876241661608219146728515625">
        <ele>1076</ele>
        <time>2039-05-14T06:03:00.000Z</time>
      </trkpt>
      <trkpt lat="42.4128506518900394439697265625" lon="0.70869435556232929229736328125">
        <ele>1076.4000244140625</ele>
        <time>2039-05-14T06:03:07.000Z</time>
      </trkpt>
      <trkpt lat="42.4128697626292705535888671875" lon="0.70866468362510204315185546875">
        <ele>1076.800048828125</ele>
        <time>2039-05-14T06:03:09.000Z</time>
      </trkpt>
      <trkpt lat="42.41288275457918643951416015625" lon="0.7085878215730190277099609375">
        <ele>1077.199951171875</ele>
        <time>2039-05-14T06:03:13.000Z</time>
      </trkpt>
      <trkpt lat="42.4128757975995540618896484375" lon="0.7085147313773632049560546875">
        <ele>1077.800048828125</ele>
        <time>2039-05-14T06:03:17.000Z</time>
      </trkpt>
      <trkpt lat="42.41285626776516437530517578125" lon="0.70846435613930225372314453125">
        <ele>1077.800048828125</ele>
        <time>2039-05-14T06:03:20.000Z</time>
      </trkpt>
      <trkpt lat="42.41281368769705295562744140625" lon="0.7083306647837162017822265625">
        <ele>1079</ele>
        <time>2039-05-14T06:03:27.000Z</time>
      </trkpt>
      <trkpt lat="42.4127805791795253753662109375" lon="0.708233602344989776611328125">
        <ele>1080</ele>
        <time>2039-05-14T06:03:32.000Z</time>
      </trkpt>
      <trkpt lat="42.41276792250573635101318359375" lon="0.70819781161844730377197265625">
        <ele>1080.199951171875</ele>
        <time>2039-05-14T06:03:34.000Z</time>
      </trkpt>
      <trkpt lat="42.4127353169023990631103515625" lon="0.7080614380538463592529296875">
        <ele>1080.800048828125</ele>
        <time>2039-05-14T06:03:41.000Z</time>
      </trkpt>
      <trkpt lat="42.41273204796016216278076171875" lon="0.70803956128656864166259765625">
        <ele>1081</ele>
        <time>2039-05-14T06:03:42.000Z</time>
      </trkpt>
      <trkpt lat="42.41271679289638996124267578125" lon="0.70792338810861110687255859375">
        <ele>1080.800048828125</ele>
        <time>2039-05-14T06:03:47.000Z</time>
      </trkpt>
      <trkpt lat="42.412758283317089080810546875" lon="0.70767226628959178924560546875">
        <ele>1081.5999755859375</ele>
        <time>2039-05-14T06:03:57.000Z</time>
      </trkpt>
      <trkpt lat="42.41277378983795642852783203125" lon="0.70763111114501953125">
        <ele>1082</ele>
        <time>2039-05-14T06:03:59.000Z</time>
      </trkpt>
      <trkpt lat="42.41280245594680309295654296875" lon="0.7075766287744045257568359375">
        <ele>1083</ele>
        <time>2039-05-14T06:04:02.000Z</time>
      </trkpt>
      <trkpt lat="42.41284838877618312835693359375" lon="0.70751686580479145050048828125">
        <ele>1084</ele>
        <time>2039-05-14T06:04:06.000Z</time>
      </trkpt>
      <trkpt lat="42.41294570267200469970703125" lon="0.70744268596172332763671875">
        <ele>1084.800048828125</ele>
        <time>2039-05-14T06:04:13.000Z</time>
      </trkpt>
      <trkpt lat="42.412954755127429962158203125" lon="0.70741980336606502532958984375">
        <ele>1085.4000244140625</ele>
        <time>2039-05-14T06:04:15.000Z</time>
      </trkpt>
      <trkpt lat="42.4130192957818508148193359375" lon="0.7073722779750823974609375">
        <ele>1086.5999755859375</ele>
        <time>2039-05-14T06:04:20.000Z</time>
      </trkpt>
      <trkpt lat="42.41305475123226642608642578125" lon="0.707335732877254486083984375">
        <ele>1087.199951171875</ele>
        <time>2039-05-14T06:04:23.000Z</time>
      </trkpt>
      <trkpt lat="42.41307587362825870513916015625" lon="0.70731100626289844512939453125">
        <ele>1087.5999755859375</ele>
        <time>2039-05-14T06:04:25.000Z</time>
      </trkpt>
      <trkpt lat="42.413085512816905975341796875" lon="0.7072966732084751129150390625">
        <ele>1087.5999755859375</ele>
        <time>2039-05-14T06:04:26.000Z</time>
      </trkpt>
      <trkpt lat="42.41314527578651905059814453125" lon="0.70723523385822772979736328125">
        <ele>1088.4000244140625</ele>
        <time>2039-05-14T06:04:31.000Z</time>
      </trkpt>
      <trkpt lat="42.41317025385797023773193359375" lon="0.70721243508160114288330078125">
        <ele>1088.800048828125</ele>
        <time>2039-05-14T06:04:33.000Z</time>
      </trkpt>
      <trkpt lat="42.41323010064661502838134765625" lon="0.70715845562517642974853515625">
        <ele>1089.800048828125</ele>
        <time>2039-05-14T06:04:38.000Z</time>
      </trkpt>
      <trkpt lat="42.41324150003492832183837890625" lon="0.707148648798465728759765625">
        <ele>1090</ele>
        <time>2039-05-14T06:04:39.000Z</time>
      </trkpt>
      <trkpt lat="42.4132640473544597625732421875" lon="0.7071283645927906036376953125">
        <ele>1090.199951171875</ele>
        <time>2039-05-14T06:04:41.000Z</time>
      </trkpt>
      <trkpt lat="42.41331006400287151336669921875" lon="0.70709743537008762359619140625">
        <ele>1090.5999755859375</ele>
        <time>2039-05-14T06:04:45.000Z</time>
      </trkpt>
      <trkpt lat="42.41332984529435634613037109375" lon="0.707081258296966552734375">
        <ele>1090.800048828125</ele>
        <time>2039-05-14T06:04:47.000Z</time>
      </trkpt>
      <trkpt lat="42.41337913088500499725341796875" lon="0.7070328108966350555419921875">
        <ele>1091.4000244140625</ele>
        <time>2039-05-14T06:04:52.000Z</time>
      </trkpt>
      <trkpt lat="42.41344861686229705810546875" lon="0.7069459743797779083251953125">
        <ele>1091.800048828125</ele>
        <time>2039-05-14T06:05:00.000Z</time>
      </trkpt>
      <trkpt lat="42.41345725022256374359130859375" lon="0.70693633519113063812255859375">
        <ele>1092</ele>
        <time>2039-05-14T06:05:01.000Z</time>
      </trkpt>
      <trkpt lat="42.41352061741054058074951171875" lon="0.70685218088328838348388671875">
        <ele>1092</ele>
        <time>2039-05-14T06:05:08.000Z</time>
      </trkpt>
      <trkpt lat="42.41357493214309215545654296875" lon="0.70676953531801700592041015625">
        <ele>1091.800048828125</ele>
        <time>2039-05-14T06:05:14.000Z</time>
      </trkpt>
      <trkpt lat="42.413664869964122772216796875" lon="0.7066462375223636627197265625">
        <ele>1091.5999755859375</ele>
        <time>2039-05-14T06:05:20.000Z</time>
      </trkpt>
      <trkpt lat="42.41374592296779155731201171875" lon="0.70656694471836090087890625">
        <ele>1090.5999755859375</ele>
        <time>2039-05-14T06:05:23.000Z</time>
      </trkpt>
      <trkpt lat="42.4137874133884906768798828125" lon="0.70654003880918025970458984375">
        <ele>1090.5999755859375</ele>
        <time>2039-05-14T06:05:24.000Z</time>
      </trkpt>
      <trkpt lat="42.4139134772121906280517578125" lon="0.70640441961586475372314453125">
        <ele>1090.5999755859375</ele>
        <time>2039-05-14T06:05:28.000Z</time>
      </trkpt>
      <trkpt lat="42.414101399481296539306640625" lon="0.7063535414636135101318359375">
        <ele>1089.5999755859375</ele>
        <time>2039-05-14T06:05:34.000Z</time>
      </trkpt>
      <trkpt lat="42.41417641751468181610107421875" lon="0.70630836300551891326904296875">
        <ele>1088.5999755859375</ele>
        <time>2039-05-14T06:05:36.000Z</time>
      </trkpt>
      <trkpt lat="42.4141920916736125946044921875" lon="0.70627651177346706390380859375">
        <ele>1088.4000244140625</ele>
        <time>2039-05-14T06:05:37.000Z</time>
      </trkpt>
      <trkpt lat="42.414200305938720703125" lon="0.70618472993373870849609375">
        <ele>1088.5999755859375</ele>
        <time>2039-05-14T06:05:40.000Z</time>
      </trkpt>
      <trkpt lat="42.414156384766101837158203125" lon="0.70608238689601421356201171875">
        <ele>1089.199951171875</ele>
        <time>2039-05-14T06:05:45.000Z</time>
      </trkpt>
      <trkpt lat="42.41412327624857425689697265625" lon="0.706030167639255523681640625">
        <ele>1089.800048828125</ele>
        <time>2039-05-14T06:05:48.000Z</time>
      </trkpt>
      <trkpt lat="42.414098717272281646728515625" lon="0.7059978134930133819580078125">
        <ele>1090</ele>
        <time>2039-05-14T06:05:50.000Z</time>
      </trkpt>
      <trkpt lat="42.41408740170300006866455078125" lon="0.70598297752439975738525390625">
        <ele>1090</ele>
        <time>2039-05-14T06:05:51.000Z</time>
      </trkpt>
      <trkpt lat="42.41404012776911258697509765625" lon="0.70592899806797504425048828125">
        <ele>1090.800048828125</ele>
        <time>2039-05-14T06:05:55.000Z</time>
      </trkpt>
      <trkpt lat="42.4140234477818012237548828125" lon="0.70591927506029605865478515625">
        <ele>1091.199951171875</ele>
        <time>2039-05-14T06:05:57.000Z</time>
      </trkpt>
      <trkpt lat="42.41394004784524440765380859375" lon="0.7058737613260746002197265625">
        <ele>1091.5999755859375</ele>
        <time>2039-05-14T06:06:04.000Z</time>
      </trkpt>
      <trkpt lat="42.41392739117145538330078125" lon="0.705866552889347076416015625">
        <ele>1091.800048828125</ele>
        <time>2039-05-14T06:06:05.000Z</time>
      </trkpt>
      <trkpt lat="42.4138695560395717620849609375" lon="0.7058541476726531982421875">
        <ele>1092.199951171875</ele>
        <time>2039-05-14T06:06:11.000Z</time>
      </trkpt>
      <trkpt lat="42.41377123631536960601806640625" lon="0.705868564546108245849609375">
        <ele>1092.199951171875</ele>
        <time>2039-05-14T06:06:19.000Z</time>
      </trkpt>
      <trkpt lat="42.41366453468799591064453125" lon="0.7058298401534557342529296875">
        <ele>1092</ele>
        <time>2039-05-14T06:06:27.000Z</time>
      </trkpt>
      <trkpt lat="42.413579039275646209716796875" lon="0.70569162257015705108642578125">
        <ele>1091.800048828125</ele>
        <time>2039-05-14T06:06:33.000Z</time>
      </trkpt>
      <trkpt lat="42.41352363489568233489990234375" lon="0.7054710946977138519287109375">
        <ele>1091.4000244140625</ele>
        <time>2039-05-14T06:06:39.000Z</time>
      </trkpt>
      <trkpt lat="42.413516677916049957275390625" lon="0.70525743998587131500244140625">
        <ele>1091.199951171875</ele>
        <time>2039-05-14T06:06:45.000Z</time>
      </trkpt>
      <trkpt lat="42.4135091342031955718994140625" lon="0.70515451021492481231689453125">
        <ele>1091.5999755859375</ele>
        <time>2039-05-14T06:06:49.000Z</time>
      </trkpt>
      <trkpt lat="42.41351298987865447998046875" lon="0.7051036320626735687255859375">
        <ele>1091.800048828125</ele>
        <time>2039-05-14T06:06:51.000Z</time>
      </trkpt>
      <trkpt lat="42.41349756717681884765625" lon="0.7049286179244518280029296875">
        <ele>1091.800048828125</ele>
        <time>2039-05-14T06:06:58.000Z</time>
      </trkpt>
      <trkpt lat="42.4134940467774868011474609375" lon="0.7049038074910640716552734375">
        <ele>1092</ele>
        <time>2039-05-14T06:06:59.000Z</time>
      </trkpt>
      <trkpt lat="42.41350167430937290191650390625" lon="0.704628042876720428466796875">
        <ele>1092.199951171875</ele>
        <time>2039-05-14T06:07:07.000Z</time>
      </trkpt>
      <trkpt lat="42.41352631710469722747802734375" lon="0.7044421322643756866455078125">
        <ele>1091.800048828125</ele>
        <time>2039-05-14T06:07:13.000Z</time>
      </trkpt>
      <trkpt lat="42.413493879139423370361328125" lon="0.704290084540843963623046875">
        <ele>1091.800048828125</ele>
        <time>2039-05-14T06:07:19.000Z</time>
      </trkpt>
      <trkpt lat="42.4134940467774868011474609375" lon="0.7041621766984462738037109375">
        <ele>1092.800048828125</ele>
        <time>2039-05-14T06:07:25.000Z</time>
      </trkpt>
      <trkpt lat="42.41350502707064151763916015625" lon="0.70414616726338863372802734375">
        <ele>1093</ele>
        <time>2039-05-14T06:07:26.000Z</time>
      </trkpt>
      <trkpt lat="42.41356252692639827728271484375" lon="0.7041107118129730224609375">
        <ele>1093.800048828125</ele>
        <time>2039-05-14T06:07:30.000Z</time>
      </trkpt>
      <trkpt lat="42.4135768599808216094970703125" lon="0.7041065208613872528076171875">
        <ele>1094</ele>
        <time>2039-05-14T06:07:31.000Z</time>
      </trkpt>
      <trkpt lat="42.41359211504459381103515625" lon="0.7041026651859283447265625">
        <ele>1094.199951171875</ele>
        <time>2039-05-14T06:07:32.000Z</time>
      </trkpt>
      <trkpt lat="42.413645423948764801025390625" lon="0.70408414117991924285888671875">
        <ele>1095.199951171875</ele>
        <time>2039-05-14T06:07:36.000Z</time>
      </trkpt>
      <trkpt lat="42.41371122188866138458251953125" lon="0.7040716521441936492919921875">
        <ele>1096</ele>
        <time>2039-05-14T06:07:41.000Z</time>
      </trkpt>
      <trkpt lat="42.413736283779144287109375" lon="0.7040753401815891265869140625">
        <ele>1096.199951171875</ele>
        <time>2039-05-14T06:07:43.000Z</time>
      </trkpt>
      <trkpt lat="42.41381968371570110321044921875" lon="0.70408053696155548095703125">
        <ele>1097</ele>
        <time>2039-05-14T06:07:49.000Z</time>
      </trkpt>
      <trkpt lat="42.41383510641753673553466796875" lon="0.704083554446697235107421875">
        <ele>1097.199951171875</ele>
        <time>2039-05-14T06:07:50.000Z</time>
      </trkpt>
      <trkpt lat="42.41388849914073944091796875" lon="0.70409956388175487518310546875">
        <ele>1098.5999755859375</ele>
        <time>2039-05-14T06:07:54.000Z</time>
      </trkpt>
      <trkpt lat="42.41392814554274082183837890625" lon="0.704111047089099884033203125">
        <ele>1099.199951171875</ele>
        <time>2039-05-14T06:07:57.000Z</time>
      </trkpt>
      <trkpt lat="42.4139543808996677398681640625" lon="0.704112388193607330322265625">
        <ele>1099.800048828125</ele>
        <time>2039-05-14T06:07:59.000Z</time>
      </trkpt>
      <trkpt lat="42.41402001120150089263916015625" lon="0.70412353612482547760009765625">
        <ele>1100.800048828125</ele>
        <time>2039-05-14T06:08:04.000Z</time>
      </trkpt>
      <trkpt lat="42.4140750803053379058837890625" lon="0.70415295660495758056640625">
        <ele>1102</ele>
        <time>2039-05-14T06:08:08.000Z</time>
      </trkpt>
      <trkpt lat="42.41412210278213024139404296875" lon="0.7041916809976100921630859375">
        <ele>1102.800048828125</ele>
        <time>2039-05-14T06:08:12.000Z</time>
      </trkpt>
      <trkpt lat="42.41413450799882411956787109375" lon="0.704200565814971923828125">
        <ele>1103</ele>
        <time>2039-05-14T06:08:13.000Z</time>
      </trkpt>
      <trkpt lat="42.41419938392937183380126953125" lon="0.70428078062832355499267578125">
        <ele>1104</ele>
        <time>2039-05-14T06:08:19.000Z</time>
      </trkpt>
      <trkpt lat="42.414208687841892242431640625" lon="0.7042969577014446258544921875">
        <ele>1104.4000244140625</ele>
        <time>2039-05-14T06:08:20.000Z</time>
      </trkpt>
      <trkpt lat="42.4142350070178508758544921875" lon="0.704346410930156707763671875">
        <ele>1105.199951171875</ele>
        <time>2039-05-14T06:08:23.000Z</time>
      </trkpt>
      <trkpt lat="42.41426627151668071746826171875" lon="0.70444121025502681732177734375">
        <ele>1106</ele>
        <time>2039-05-14T06:08:29.000Z</time>
      </trkpt>
      <trkpt lat="42.4142698757350444793701171875" lon="0.7044593989849090576171875">
        <ele>1106.4000244140625</ele>
        <time>2039-05-14T06:08:30.000Z</time>
      </trkpt>
      <trkpt lat="42.4142765812575817108154296875" lon="0.70454615168273448944091796875">
        <ele>1107.5999755859375</ele>
        <time>2039-05-14T06:08:35.000Z</time>
      </trkpt>
      <trkpt lat="42.41427515633404254913330078125" lon="0.70456241257488727569580078125">
        <ele>1107.800048828125</ele>
        <time>2039-05-14T06:08:36.000Z</time>
      </trkpt>
      <trkpt lat="42.41426409222185611724853515625" lon="0.70473994128406047821044921875">
        <ele>1108.5999755859375</ele>
        <time>2039-05-14T06:08:46.000Z</time>
      </trkpt>
      <trkpt lat="42.414265684783458709716796875" lon="0.70483423769474029541015625">
        <ele>1108.800048828125</ele>
        <time>2039-05-14T06:08:51.000Z</time>
      </trkpt>
      <trkpt lat="42.4142621643841266632080078125" lon="0.704872794449329376220703125">
        <ele>1108.5999755859375</ele>
        <time>2039-05-14T06:08:53.000Z</time>
      </trkpt>
      <trkpt lat="42.41425336338579654693603515625" lon="0.7050318829715251922607421875">
        <ele>1109</ele>
        <time>2039-05-14T06:09:00.000Z</time>
      </trkpt>
      <trkpt lat="42.4142725579440593719482421875" lon="0.70512986741960048675537109375">
        <ele>1109.800048828125</ele>
        <time>2039-05-14T06:09:05.000Z</time>
      </trkpt>
      <trkpt lat="42.41428253240883350372314453125" lon="0.70514176972210407257080078125">
        <ele>1110</ele>
        <time>2039-05-14T06:09:06.000Z</time>
      </trkpt>
      <trkpt lat="42.41429485380649566650390625" lon="0.7051478885114192962646484375">
        <ele>1110</ele>
        <time>2039-05-14T06:09:07.000Z</time>
      </trkpt>
      <trkpt lat="42.414363920688629150390625" lon="0.70509198121726512908935546875">
        <ele>1110.4000244140625</ele>
        <time>2039-05-14T06:09:13.000Z</time>
      </trkpt>
      <trkpt lat="42.41437171585857868194580078125" lon="0.705054514110088348388671875">
        <ele>1110.800048828125</ele>
        <time>2039-05-14T06:09:15.000Z</time>
      </trkpt>
      <trkpt lat="42.4143748171627521514892578125" lon="0.7050352357327938079833984375">
        <ele>1111</ele>
        <time>2039-05-14T06:09:16.000Z</time>
      </trkpt>
      <trkpt lat="42.414406836032867431640625" lon="0.70493884384632110595703125">
        <ele>1111.5999755859375</ele>
        <time>2039-05-14T06:09:22.000Z</time>
      </trkpt>
      <trkpt lat="42.4144127033650875091552734375" lon="0.70492249913513660430908203125">
        <ele>1112</ele>
        <time>2039-05-14T06:09:23.000Z</time>
      </trkpt>
      <trkpt lat="42.41445017047226428985595703125" lon="0.7048501633107662200927734375">
        <ele>1113.199951171875</ele>
        <time>2039-05-14T06:09:28.000Z</time>
      </trkpt>
      <trkpt lat="42.41447581909596920013427734375" lon="0.70481437258422374725341796875">
        <ele>1113.800048828125</ele>
        <time>2039-05-14T06:09:31.000Z</time>
      </trkpt>
      <trkpt lat="42.414513789117336273193359375" lon="0.70476307533681392669677734375">
        <ele>1114.4000244140625</ele>
        <time>2039-05-14T06:09:35.000Z</time>
      </trkpt>
      <trkpt lat="42.41452225483953952789306640625" lon="0.70474983192980289459228515625">
        <ele>1114.4000244140625</ele>
        <time>2039-05-14T06:09:36.000Z</time>
      </trkpt>
      <trkpt lat="42.4145401082932949066162109375" lon="0.704721920192241668701171875">
        <ele>1115.199951171875</ele>
        <time>2039-05-14T06:09:38.000Z</time>
      </trkpt>
      <trkpt lat="42.41455041803419589996337890625" lon="0.704710185527801513671875">
        <ele>1115.4000244140625</ele>
        <time>2039-05-14T06:09:39.000Z</time>
      </trkpt>
      <trkpt lat="42.4145706184208393096923828125" lon="0.7046862132847309112548828125">
        <ele>1115.5999755859375</ele>
        <time>2039-05-14T06:09:41.000Z</time>
      </trkpt>
      <trkpt lat="42.4146111868321895599365234375" lon="0.70463684387505054473876953125">
        <ele>1116</ele>
        <time>2039-05-14T06:09:45.000Z</time>
      </trkpt>
      <trkpt lat="42.41463012993335723876953125" lon="0.70461169816553592681884765625">
        <ele>1116.4000244140625</ele>
        <time>2039-05-14T06:09:47.000Z</time>
      </trkpt>
      <trkpt lat="42.41469978354871273040771484375" lon="0.7045269571244716644287109375">
        <ele>1117.4000244140625</ele>
        <time>2039-05-14T06:09:54.000Z</time>
      </trkpt>
      <trkpt lat="42.4147077463567256927490234375" lon="0.70451329462230205535888671875">
        <ele>1117.5999755859375</ele>
        <time>2039-05-14T06:09:55.000Z</time>
      </trkpt>
      <trkpt lat="42.41475845687091350555419921875" lon="0.7044298946857452392578125">
        <ele>1118.199951171875</ele>
        <time>2039-05-14T06:10:01.000Z</time>
      </trkpt>
      <trkpt lat="42.41479533724486827850341796875" lon="0.704375244677066802978515625">
        <ele>1118.5999755859375</ele>
        <time>2039-05-14T06:10:05.000Z</time>
      </trkpt>
      <trkpt lat="42.414847053587436676025390625" lon="0.7043170742690563201904296875">
        <ele>1119.199951171875</ele>
        <time>2039-05-14T06:10:10.000Z</time>
      </trkpt>
      <trkpt lat="42.41489273495972156524658203125" lon="0.7042624242603778839111328125">
        <ele>1119.800048828125</ele>
        <time>2039-05-14T06:10:15.000Z</time>
      </trkpt>
      <trkpt lat="42.41490262560546398162841796875" lon="0.704248845577239990234375">
        <ele>1120</ele>
        <time>2039-05-14T06:10:16.000Z</time>
      </trkpt>
      <trkpt lat="42.414948977530002593994140625" lon="0.70417282171547412872314453125">
        <ele>1120.800048828125</ele>
        <time>2039-05-14T06:10:22.000Z</time>
      </trkpt>
      <trkpt lat="42.41495677269995212554931640625" lon="0.70415991358458995819091796875">
        <ele>1120.800048828125</ele>
        <time>2039-05-14T06:10:23.000Z</time>
      </trkpt>
      <trkpt lat="42.41500454954802989959716796875" lon="0.70406134240329265594482421875">
        <ele>1121.4000244140625</ele>
        <time>2039-05-14T06:10:30.000Z</time>
      </trkpt>
      <trkpt lat="42.4150373227894306182861328125" lon="0.703947432339191436767578125">
        <ele>1122.199951171875</ele>
        <time>2039-05-14T06:10:37.000Z</time>
      </trkpt>
      <trkpt lat="42.4150411784648895263671875" lon="0.7039122283458709716796875">
        <ele>1122.5999755859375</ele>
        <time>2039-05-14T06:10:39.000Z</time>
      </trkpt>
      <trkpt lat="42.4150571040809154510498046875" lon="0.7038604281842708587646484375">
        <ele>1123.4000244140625</ele>
        <time>2039-05-14T06:10:42.000Z</time>
      </trkpt>
      <trkpt lat="42.4150889553129673004150390625" lon="0.7037621922791004180908203125">
        <ele>1124</ele>
        <time>2039-05-14T06:10:47.000Z</time>
      </trkpt>
      <trkpt lat="42.41513463668525218963623046875" lon="0.70368985645473003387451171875">
        <ele>1124.4000244140625</ele>
        <time>2039-05-14T06:10:52.000Z</time>
      </trkpt>
      <trkpt lat="42.41515609435737133026123046875" lon="0.70363839156925678253173828125">
        <ele>1125</ele>
        <time>2039-05-14T06:10:55.000Z</time>
      </trkpt>
      <trkpt lat="42.41516933776438236236572265625" lon="0.7036099769175052642822265625">
        <ele>1125.4000244140625</ele>
        <time>2039-05-14T06:10:57.000Z</time>
      </trkpt>
      <trkpt lat="42.41519012488424777984619140625" lon="0.70356965996325016021728515625">
        <ele>1126.199951171875</ele>
        <time>2039-05-14T06:11:00.000Z</time>
      </trkpt>
      <trkpt lat="42.4151979200541973114013671875" lon="0.7035543210804462432861328125">
        <ele>1126.5999755859375</ele>
        <time>2039-05-14T06:11:01.000Z</time>
      </trkpt>
      <trkpt lat="42.4152160249650478363037109375" lon="0.70336597971618175506591796875">
        <ele>1127.800048828125</ele>
        <time>2039-05-14T06:11:10.000Z</time>
      </trkpt>
      <trkpt lat="42.4152235686779022216796875" lon="0.703313760459423065185546875">
        <ele>1128.800048828125</ele>
        <time>2039-05-14T06:11:14.000Z</time>
      </trkpt>
      <trkpt lat="42.4152170307934284210205078125" lon="0.70323823951184749603271484375">
        <ele>1129</ele>
        <time>2039-05-14T06:11:18.000Z</time>
      </trkpt>
      <trkpt lat="42.415212504565715789794921875" lon="0.703192055225372314453125">
        <ele>1129</ele>
        <time>2039-05-14T06:11:21.000Z</time>
      </trkpt>
      <trkpt lat="42.4152200482785701751708984375" lon="0.70316280238330364227294921875">
        <ele>1129.199951171875</ele>
        <time>2039-05-14T06:12:40.000Z</time>
      </trkpt>
      <trkpt lat="42.41522046737372875213623046875" lon="0.70316062308847904205322265625">
        <ele>1129.199951171875</ele>
        <time>2039-05-14T06:12:41.000Z</time>
      </trkpt>
      <trkpt lat="42.4152227304875850677490234375" lon="0.7031090743839740753173828125">
        <ele>1129.4000244140625</ele>
        <time>2039-05-14T06:12:47.000Z</time>
      </trkpt>
      <trkpt lat="42.41522155702114105224609375" lon="0.70296800695359706878662109375">
        <ele>1129.199951171875</ele>
        <time>2039-05-14T06:12:53.000Z</time>
      </trkpt>
      <trkpt lat="42.41523941047489643096923828125" lon="0.70278243161737918853759765625">
        <ele>1128.800048828125</ele>
        <time>2039-05-14T06:12:59.000Z</time>
      </trkpt>
      <trkpt lat="42.41525751538574695587158203125" lon="0.7026101835072040557861328125">
        <ele>1129.199951171875</ele>
        <time>2039-05-14T06:13:06.000Z</time>
      </trkpt>
      <trkpt lat="42.415263466536998748779296875" lon="0.70256550796329975128173828125">
        <ele>1129</ele>
        <time>2039-05-14T06:13:08.000Z</time>
      </trkpt>
      <trkpt lat="42.415292970836162567138671875" lon="0.7024686969816684722900390625">
        <ele>1128.800048828125</ele>
        <time>2039-05-14T06:13:12.000Z</time>
      </trkpt>
      <trkpt lat="42.41536161862313747406005859375" lon="0.70228806696832180023193359375">
        <ele>1128.5999755859375</ele>
        <time>2039-05-14T06:13:19.000Z</time>
      </trkpt>
      <trkpt lat="42.4154168553650379180908203125" lon="0.70212646387517452239990234375">
        <ele>1128.5999755859375</ele>
        <time>2039-05-14T06:13:25.000Z</time>
      </trkpt>
      <trkpt lat="42.4154557473957538604736328125" lon="0.70190786384046077728271484375">
        <ele>1128.5999755859375</ele>
        <time>2039-05-14T06:13:34.000Z</time>
      </trkpt>
      <trkpt lat="42.4155063740909099578857421875" lon="0.70173419080674648284912109375">
        <ele>1130.4000244140625</ele>
        <time>2039-05-14T06:13:42.000Z</time>
      </trkpt>
      <trkpt lat="42.415511570870876312255859375" lon="0.70171424187719821929931640625">
        <ele>1130.4000244140625</ele>
        <time>2039-05-14T06:13:43.000Z</time>
      </trkpt>
      <trkpt lat="42.4155385605990886688232421875" lon="0.70159454829990863800048828125">
        <ele>1130.5999755859375</ele>
        <time>2039-05-14T06:13:50.000Z</time>
      </trkpt>
      <trkpt lat="42.4155776202678680419921875" lon="0.70143898017704486846923828125">
        <ele>1130.800048828125</ele>
        <time>2039-05-14T06:13:56.000Z</time>
      </trkpt>
      <trkpt lat="42.4156428314745426177978515625" lon="0.7012328691780567169189453125">
        <ele>1130.4000244140625</ele>
        <time>2039-05-14T06:14:05.000Z</time>
      </trkpt>
      <trkpt lat="42.41570007987320423126220703125" lon="0.70105207152664661407470703125">
        <ele>1131.199951171875</ele>
        <time>2039-05-14T06:14:13.000Z</time>
      </trkpt>
      <trkpt lat="42.4157363735139369964599609375" lon="0.7008893787860870361328125">
        <ele>1131.5999755859375</ele>
        <time>2039-05-14T06:14:20.000Z</time>
      </trkpt>
      <trkpt lat="42.4157675541937351226806640625" lon="0.70072266273200511932373046875">
        <ele>1132.4000244140625</ele>
        <time>2039-05-14T06:14:28.000Z</time>
      </trkpt>
      <trkpt lat="42.4157895147800445556640625" lon="0.70068930275738239288330078125">
        <ele>1132.5999755859375</ele>
        <time>2039-05-14T06:14:30.000Z</time>
      </trkpt>
      <trkpt lat="42.415828742086887359619140625" lon="0.7006032206118106842041015625">
        <ele>1133.5999755859375</ele>
        <time>2039-05-14T06:14:35.000Z</time>
      </trkpt>
      <trkpt lat="42.415882050991058349609375" lon="0.70051127113401889801025390625">
        <ele>1134.800048828125</ele>
        <time>2039-05-14T06:14:41.000Z</time>
      </trkpt>
      <trkpt lat="42.4159066937863826751708984375" lon="0.7004637457430362701416015625">
        <ele>1134.800048828125</ele>
        <time>2039-05-14T06:14:44.000Z</time>
      </trkpt>
      <trkpt lat="42.415975593030452728271484375" lon="0.700305998325347900390625">
        <ele>1135.5999755859375</ele>
        <time>2039-05-14T06:14:53.000Z</time>
      </trkpt>
      <trkpt lat="42.4159995652735233306884765625" lon="0.70025780238211154937744140625">
        <ele>1135.800048828125</ele>
        <time>2039-05-14T06:14:56.000Z</time>
      </trkpt>
      <trkpt lat="42.41603770293295383453369140625" lon="0.70019963197410106658935546875">
        <ele>1136.199951171875</ele>
        <time>2039-05-14T06:15:00.000Z</time>
      </trkpt>
      <trkpt lat="42.41611615754663944244384765625" lon="0.700107179582118988037109375">
        <ele>1136.5999755859375</ele>
        <time>2039-05-14T06:15:07.000Z</time>
      </trkpt>
      <trkpt lat="42.416169382631778717041015625" lon="0.7000097818672657012939453125">
        <ele>1136.800048828125</ele>
        <time>2039-05-14T06:15:13.000Z</time>
      </trkpt>
      <trkpt lat="42.4161759205162525177001953125" lon="0.69999611936509609222412109375">
        <ele>1137</ele>
        <time>2039-05-14T06:15:14.000Z</time>
      </trkpt>
      <trkpt lat="42.416196204721927642822265625" lon="0.69991850294172763824462890625">
        <ele>1138</ele>
        <time>2039-05-14T06:15:18.000Z</time>
      </trkpt>
      <trkpt lat="42.4162154830992221832275390625" lon="0.69986117072403430938720703125">
        <ele>1138.800048828125</ele>
        <time>2039-05-14T06:15:21.000Z</time>
      </trkpt>
      <trkpt lat="42.4162409640848636627197265625" lon="0.69980903528630733489990234375">
        <ele>1139.4000244140625</ele>
        <time>2039-05-14T06:15:24.000Z</time>
      </trkpt>
      <trkpt lat="42.4162865616381168365478515625" lon="0.69974935613572597503662109375">
        <ele>1140</ele>
        <time>2039-05-14T06:15:28.000Z</time>
      </trkpt>
      <trkpt lat="42.41633341647684574127197265625" lon="0.69968917407095432281494140625">
        <ele>1140.4000244140625</ele>
        <time>2039-05-14T06:15:32.000Z</time>
      </trkpt>
      <trkpt lat="42.4163774214684963226318359375" lon="0.6996379606425762176513671875">
        <ele>1141.199951171875</ele>
        <time>2039-05-14T06:15:36.000Z</time>
      </trkpt>
      <trkpt lat="42.41643399931490421295166015625" lon="0.69957283325493335723876953125">
        <ele>1141.4000244140625</ele>
        <time>2039-05-14T06:15:41.000Z</time>
      </trkpt>
      <trkpt lat="42.41650901734828948974609375" lon="0.69951918907463550567626953125">
        <ele>1142.199951171875</ele>
        <time>2039-05-14T06:15:47.000Z</time>
      </trkpt>
      <trkpt lat="42.4165219254791736602783203125" lon="0.69951583631336688995361328125">
        <ele>1142.4000244140625</ele>
        <time>2039-05-14T06:15:48.000Z</time>
      </trkpt>
      <trkpt lat="42.41656936705112457275390625" lon="0.6995175965130329132080078125">
        <ele>1142.800048828125</ele>
        <time>2039-05-14T06:15:54.000Z</time>
      </trkpt>
      <trkpt lat="42.4165722168982028961181640625" lon="0.69951969198882579803466796875">
        <ele>1142.4000244140625</ele>
        <time>2039-05-14T06:16:06.000Z</time>
      </trkpt>
      <trkpt lat="42.41657213307917118072509765625" lon="0.69951969198882579803466796875">
        <ele>1142.5999755859375</ele>
        <time>2039-05-14T06:16:24.000Z</time>
      </trkpt>
      <trkpt lat="42.41662728600203990936279296875" lon="0.69951633922755718231201171875">
        <ele>1142.5999755859375</ele>
        <time>2039-05-14T06:16:31.000Z</time>
      </trkpt>
      <trkpt lat="42.416752092540264129638671875" lon="0.69953285157680511474609375">
        <ele>1141.800048828125</ele>
        <time>2039-05-14T06:16:38.000Z</time>
      </trkpt>
      <trkpt lat="42.4168136157095432281494140625" lon="0.69953880272805690765380859375">
        <ele>1141.4000244140625</ele>
        <time>2039-05-14T06:16:42.000Z</time>
      </trkpt>
      <trkpt lat="42.4168303795158863067626953125" lon="0.69953394122421741485595703125">
        <ele>1141.199951171875</ele>
        <time>2039-05-14T06:16:43.000Z</time>
      </trkpt>
      <trkpt lat="42.416859380900859832763671875" lon="0.69951097480952739715576171875">
        <ele>1141</ele>
        <time>2039-05-14T06:16:45.000Z</time>
      </trkpt>
      <trkpt lat="42.4168853648006916046142578125" lon="0.6994508765637874603271484375">
        <ele>1141</ele>
        <time>2039-05-14T06:16:48.000Z</time>
      </trkpt>
      <trkpt lat="42.416885532438755035400390625" lon="0.69933461956679821014404296875">
        <ele>1141</ele>
        <time>2039-05-14T06:16:53.000Z</time>
      </trkpt>
      <trkpt lat="42.416883520781993865966796875" lon="0.69931081496179103851318359375">
        <ele>1141.199951171875</ele>
        <time>2039-05-14T06:16:54.000Z</time>
      </trkpt>
      <trkpt lat="42.41685896180570125579833984375" lon="0.6991660594940185546875">
        <ele>1141.4000244140625</ele>
        <time>2039-05-14T06:17:00.000Z</time>
      </trkpt>
      <trkpt lat="42.4168266914784908294677734375" lon="0.6990143470466136932373046875">
        <ele>1142</ele>
        <time>2039-05-14T06:17:07.000Z</time>
      </trkpt>
      <trkpt lat="42.416798360645771026611328125" lon="0.698940418660640716552734375">
        <ele>1142.4000244140625</ele>
        <time>2039-05-14T06:17:11.000Z</time>
      </trkpt>
      <trkpt lat="42.4167344905436038970947265625" lon="0.6987769715487957000732421875">
        <ele>1143.199951171875</ele>
        <time>2039-05-14T06:17:19.000Z</time>
      </trkpt>
      <trkpt lat="42.4167033098638057708740234375" lon="0.6986874528229236602783203125">
        <ele>1143.4000244140625</ele>
        <time>2039-05-14T06:17:24.000Z</time>
      </trkpt>
      <trkpt lat="42.41669668816030025482177734375" lon="0.69867010228335857391357421875">
        <ele>1143.800048828125</ele>
        <time>2039-05-14T06:17:25.000Z</time>
      </trkpt>
      <trkpt lat="42.4166359193623065948486328125" lon="0.6985526718199253082275390625">
        <ele>1144.4000244140625</ele>
        <time>2039-05-14T06:17:32.000Z</time>
      </trkpt>
      <trkpt lat="42.41662845946848392486572265625" lon="0.6985352374613285064697265625">
        <ele>1144.5999755859375</ele>
        <time>2039-05-14T06:17:33.000Z</time>
      </trkpt>
      <trkpt lat="42.416565679013729095458984375" lon="0.69844244979321956634521484375">
        <ele>1145.199951171875</ele>
        <time>2039-05-14T06:17:40.000Z</time>
      </trkpt>
      <trkpt lat="42.4165390245616436004638671875" lon="0.698396265506744384765625">
        <ele>1145.5999755859375</ele>
        <time>2039-05-14T06:17:43.000Z</time>
      </trkpt>
      <trkpt lat="42.41649636067450046539306640625" lon="0.69832057692110538482666015625">
        <ele>1146</ele>
        <time>2039-05-14T06:17:48.000Z</time>
      </trkpt>
      <trkpt lat="42.41645042784512042999267578125" lon="0.698196105659008026123046875">
        <ele>1146.5999755859375</ele>
        <time>2039-05-14T06:17:55.000Z</time>
      </trkpt>
      <trkpt lat="42.41645998321473598480224609375" lon="0.69800441153347492218017578125">
        <ele>1147.4000244140625</ele>
        <time>2039-05-14T06:18:04.000Z</time>
      </trkpt>
      <trkpt lat="42.4164699576795101165771484375" lon="0.69786242209374904632568359375">
        <ele>1147.5999755859375</ele>
        <time>2039-05-14T06:18:10.000Z</time>
      </trkpt>
      <trkpt lat="42.416459731757640838623046875" lon="0.6977252103388309478759765625">
        <ele>1148.800048828125</ele>
        <time>2039-05-14T06:18:17.000Z</time>
      </trkpt>
      <trkpt lat="42.416457049548625946044921875" lon="0.69770568050444126129150390625">
        <ele>1148.800048828125</ele>
        <time>2039-05-14T06:18:18.000Z</time>
      </trkpt>
      <trkpt lat="42.41645797155797481536865234375" lon="0.6976675428450107574462890625">
        <ele>1149</ele>
        <time>2039-05-14T06:18:20.000Z</time>
      </trkpt>
      <trkpt lat="42.41647473536431789398193359375" lon="0.6975998170673847198486328125">
        <ele>1149.199951171875</ele>
        <time>2039-05-14T06:18:24.000Z</time>
      </trkpt>
      <trkpt lat="42.4165028147399425506591796875" lon="0.6974945403635501861572265625">
        <ele>1149.4000244140625</ele>
        <time>2039-05-14T06:18:31.000Z</time>
      </trkpt>
      <trkpt lat="42.4165081791579723358154296875" lon="0.6974757649004459381103515625">
        <ele>1149.4000244140625</ele>
        <time>2039-05-14T06:18:32.000Z</time>
      </trkpt>
      <trkpt lat="42.41655872203409671783447265625" lon="0.69730904884636402130126953125">
        <ele>1149.4000244140625</ele>
        <time>2039-05-14T06:18:40.000Z</time>
      </trkpt>
      <trkpt lat="42.41660230793058872222900390625" lon="0.697196982800960540771484375">
        <ele>1149.5999755859375</ele>
        <time>2039-05-14T06:18:46.000Z</time>
      </trkpt>
      <trkpt lat="42.41661203093826770782470703125" lon="0.69716311991214752197265625">
        <ele>1149.800048828125</ele>
        <time>2039-05-14T06:18:48.000Z</time>
      </trkpt>
      <trkpt lat="42.41663214750587940216064453125" lon="0.697044432163238525390625">
        <ele>1150.5999755859375</ele>
        <time>2039-05-14T06:18:54.000Z</time>
      </trkpt>
      <trkpt lat="42.41663734428584575653076171875" lon="0.69700486958026885986328125">
        <ele>1150.5999755859375</ele>
        <time>2039-05-14T06:18:56.000Z</time>
      </trkpt>
      <trkpt lat="42.41664472036063671112060546875" lon="0.69689665921032428741455078125">
        <ele>1151.4000244140625</ele>
        <time>2039-05-14T06:19:01.000Z</time>
      </trkpt>
      <trkpt lat="42.41665997542440891265869140625" lon="0.6967733614146709442138671875">
        <ele>1151.5999755859375</ele>
        <time>2039-05-14T06:19:07.000Z</time>
      </trkpt>
      <trkpt lat="42.416664250195026397705078125" lon="0.69675274193286895751953125">
        <ele>1151.5999755859375</ele>
        <time>2039-05-14T06:19:08.000Z</time>
      </trkpt>
      <trkpt lat="42.4166855402290821075439453125" lon="0.69666816852986812591552734375">
        <ele>1152.4000244140625</ele>
        <time>2039-05-14T06:19:13.000Z</time>
      </trkpt>
      <trkpt lat="42.4166909046471118927001953125" lon="0.6966543383896350860595703125">
        <ele>1152.4000244140625</ele>
        <time>2039-05-14T06:19:14.000Z</time>
      </trkpt>
      <trkpt lat="42.4167002923786640167236328125" lon="0.69662525318562984466552734375">
        <ele>1152.5999755859375</ele>
        <time>2039-05-14T06:19:16.000Z</time>
      </trkpt>
      <trkpt lat="42.41673373617231845855712890625" lon="0.69651276804506778717041015625">
        <ele>1153.199951171875</ele>
        <time>2039-05-14T06:19:22.000Z</time>
      </trkpt>
      <trkpt lat="42.41678126156330108642578125" lon="0.696393661201000213623046875">
        <ele>1154</ele>
        <time>2039-05-14T06:19:28.000Z</time>
      </trkpt>
      <trkpt lat="42.416816465556621551513671875" lon="0.69624857045710086822509765625">
        <ele>1154.4000244140625</ele>
        <time>2039-05-14T06:19:35.000Z</time>
      </trkpt>
      <trkpt lat="42.41682794876396656036376953125" lon="0.69612921215593814849853515625">
        <ele>1155</ele>
        <time>2039-05-14T06:19:41.000Z</time>
      </trkpt>
      <trkpt lat="42.41684027016162872314453125" lon="0.69609333761036396026611328125">
        <ele>1155.199951171875</ele>
        <time>2039-05-14T06:19:43.000Z</time>
      </trkpt>
      <trkpt lat="42.416890226304531097412109375" lon="0.69592528045177459716796875">
        <ele>1155.800048828125</ele>
        <time>2039-05-14T06:19:52.000Z</time>
      </trkpt>
      <trkpt lat="42.4168972671031951904296875" lon="0.6958882324397563934326171875">
        <ele>1156</ele>
        <time>2039-05-14T06:19:54.000Z</time>
      </trkpt>
      <trkpt lat="42.41691763512790203094482421875" lon="0.69579209201037883758544921875">
        <ele>1156.199951171875</ele>
        <time>2039-05-14T06:19:59.000Z</time>
      </trkpt>
      <trkpt lat="42.41694345138967037200927734375" lon="0.69565236568450927734375">
        <ele>1157</ele>
        <time>2039-05-14T06:20:06.000Z</time>
      </trkpt>
      <trkpt lat="42.41694965399801731109619140625" lon="0.69560769014060497283935546875">
        <ele>1157.199951171875</ele>
        <time>2039-05-14T06:20:08.000Z</time>
      </trkpt>
      <trkpt lat="42.41696910001337528228759765625" lon="0.69548011757433414459228515625">
        <ele>1157.5999755859375</ele>
        <time>2039-05-14T06:20:13.000Z</time>
      </trkpt>
      <trkpt lat="42.416988126933574676513671875" lon="0.6953023374080657958984375">
        <ele>1158</ele>
        <time>2039-05-14T06:20:21.000Z</time>
      </trkpt>
      <trkpt lat="42.4169953353703022003173828125" lon="0.69525850005447864532470703125">
        <ele>1158.4000244140625</ele>
        <time>2039-05-14T06:20:23.000Z</time>
      </trkpt>
      <trkpt lat="42.41701268590986728668212890625" lon="0.69513478316366672515869140625">
        <ele>1159</ele>
        <time>2039-05-14T06:20:29.000Z</time>
      </trkpt>
      <trkpt lat="42.41702391766011714935302734375" lon="0.69498022086918354034423828125">
        <ele>1159.4000244140625</ele>
        <time>2039-05-14T06:20:36.000Z</time>
      </trkpt>
      <trkpt lat="42.41702542640268802642822265625" lon="0.69495708681643009185791015625">
        <ele>1159.5999755859375</ele>
        <time>2039-05-14T06:20:37.000Z</time>
      </trkpt>
      <trkpt lat="42.41703749634325504302978515625" lon="0.694897659122943878173828125">
        <ele>1159.5999755859375</ele>
        <time>2039-05-14T06:20:40.000Z</time>
      </trkpt>
      <trkpt lat="42.41703816689550876617431640625" lon="0.69484963081777095794677734375">
        <ele>1160</ele>
        <time>2039-05-14T06:20:42.000Z</time>
      </trkpt>
      <trkpt lat="42.41706465370953083038330078125" lon="0.6947204656898975372314453125">
        <ele>1160.5999755859375</ele>
        <time>2039-05-14T06:20:49.000Z</time>
      </trkpt>
      <trkpt lat="42.4170905537903308868408203125" lon="0.69451309740543365478515625">
        <ele>1160.199951171875</ele>
        <time>2039-05-14T06:20:57.000Z</time>
      </trkpt>
      <trkpt lat="42.41709549911320209503173828125" lon="0.69435778073966503143310546875">
        <ele>1160.199951171875</ele>
        <time>2039-05-14T06:21:04.000Z</time>
      </trkpt>
      <trkpt lat="42.417095415294170379638671875" lon="0.69420925341546535491943359375">
        <ele>1160.199951171875</ele>
        <time>2039-05-14T06:21:09.000Z</time>
      </trkpt>
      <trkpt lat="42.41708979941904544830322265625" lon="0.69411571137607097625732421875">
        <ele>1160.4000244140625</ele>
        <time>2039-05-14T06:21:12.000Z</time>
      </trkpt>
      <trkpt lat="42.417062222957611083984375" lon="0.69393776357173919677734375">
        <ele>1160.4000244140625</ele>
        <time>2039-05-14T06:21:19.000Z</time>
      </trkpt>
      <trkpt lat="42.417057193815708160400390625" lon="0.6937535293400287628173828125">
        <ele>1160.199951171875</ele>
        <time>2039-05-14T06:21:26.000Z</time>
      </trkpt>
      <trkpt lat="42.41704545915126800537109375" lon="0.6935540400445461273193359375">
        <ele>1160</ele>
        <time>2039-05-14T06:21:34.000Z</time>
      </trkpt>
      <trkpt lat="42.41704319603741168975830078125" lon="0.69353300146758556365966796875">
        <ele>1160</ele>
        <time>2039-05-14T06:21:35.000Z</time>
      </trkpt>
      <trkpt lat="42.41703162901103496551513671875" lon="0.6934098713099956512451171875">
        <ele>1160.199951171875</ele>
        <time>2039-05-14T06:21:40.000Z</time>
      </trkpt>
      <trkpt lat="42.416979409754276275634765625" lon="0.69324265234172344207763671875">
        <ele>1160.199951171875</ele>
        <time>2039-05-14T06:21:46.000Z</time>
      </trkpt>
      <trkpt lat="42.4169401824474334716796875" lon="0.693038888275623321533203125">
        <ele>1160.4000244140625</ele>
        <time>2039-05-14T06:21:55.000Z</time>
      </trkpt>
      <trkpt lat="42.4169187247753143310546875" lon="0.69289111532270908355712890625">
        <ele>1160.800048828125</ele>
        <time>2039-05-14T06:22:01.000Z</time>
      </trkpt>
      <trkpt lat="42.41691629402339458465576171875" lon="0.69286446087062358856201171875">
        <ele>1160.800048828125</ele>
        <time>2039-05-14T06:22:02.000Z</time>
      </trkpt>
      <trkpt lat="42.4168870411813259124755859375" lon="0.69265927188098430633544921875">
        <ele>1161.4000244140625</ele>
        <time>2039-05-14T06:22:10.000Z</time>
      </trkpt>
      <trkpt lat="42.41685443557798862457275390625" lon="0.69242323748767375946044921875">
        <ele>1161.5999755859375</ele>
        <time>2039-05-14T06:22:19.000Z</time>
      </trkpt>
      <trkpt lat="42.41684940643608570098876953125" lon="0.69237177260220050811767578125">
        <ele>1161.800048828125</ele>
        <time>2039-05-14T06:22:21.000Z</time>
      </trkpt>
      <trkpt lat="42.4168276973068714141845703125" lon="0.69224772043526172637939453125">
        <ele>1162.4000244140625</ele>
        <time>2039-05-14T06:22:26.000Z</time>
      </trkpt>
      <trkpt lat="42.41681076586246490478515625" lon="0.692103467881679534912109375">
        <ele>1162.800048828125</ele>
        <time>2039-05-14T06:22:32.000Z</time>
      </trkpt>
      <trkpt lat="42.41680732928216457366943359375" lon="0.6920805014669895172119140625">
        <ele>1163</ele>
        <time>2039-05-14T06:22:33.000Z</time>
      </trkpt>
      <trkpt lat="42.41678369231522083282470703125" lon="0.6918877176940441131591796875">
        <ele>1163.800048828125</ele>
        <time>2039-05-14T06:22:41.000Z</time>
      </trkpt>
      <trkpt lat="42.41676022298634052276611328125" lon="0.6917666830122470855712890625">
        <ele>1164.199951171875</ele>
        <time>2039-05-14T06:22:46.000Z</time>
      </trkpt>
      <trkpt lat="42.41674907505512237548828125" lon="0.69167121313512325286865234375">
        <ele>1164.5999755859375</ele>
        <time>2039-05-14T06:22:50.000Z</time>
      </trkpt>
      <trkpt lat="42.41670507006347179412841796875" lon="0.6914119608700275421142578125">
        <ele>1164.800048828125</ele>
        <time>2039-05-14T06:23:01.000Z</time>
      </trkpt>
      <trkpt lat="42.4166875518858432769775390625" lon="0.69132395088672637939453125">
        <ele>1165</ele>
        <time>2039-05-14T06:23:04.000Z</time>
      </trkpt>
      <trkpt lat="42.4166644178330898284912109375" lon="0.6912473402917385101318359375">
        <ele>1165.5999755859375</ele>
        <time>2039-05-14T06:23:07.000Z</time>
      </trkpt>
      <trkpt lat="42.41665896959602832794189453125" lon="0.69108867086470127105712890625">
        <ele>1165.5999755859375</ele>
        <time>2039-05-14T06:23:14.000Z</time>
      </trkpt>
      <trkpt lat="42.41666902787983417510986328125" lon="0.69090845994651317596435546875">
        <ele>1165.5999755859375</ele>
        <time>2039-05-14T06:23:21.000Z</time>
      </trkpt>
      <trkpt lat="42.416683025658130645751953125" lon="0.69072523154318332672119140625">
        <ele>1165.800048828125</ele>
        <time>2039-05-14T06:23:28.000Z</time>
      </trkpt>
      <trkpt lat="42.4167251028120517730712890625" lon="0.69051132537424564361572265625">
        <ele>1165.5999755859375</ele>
        <time>2039-05-14T06:23:35.000Z</time>
      </trkpt>
      <trkpt lat="42.41674681194126605987548828125" lon="0.69043102674186229705810546875">
        <ele>1166</ele>
        <time>2039-05-14T06:23:38.000Z</time>
      </trkpt>
      <trkpt lat="42.41678520105779170989990234375" lon="0.69028518162667751312255859375">
        <ele>1166</ele>
        <time>2039-05-14T06:23:43.000Z</time>
      </trkpt>
      <trkpt lat="42.41685342974960803985595703125" lon="0.69009189493954181671142578125">
        <ele>1165.5999755859375</ele>
        <time>2039-05-14T06:23:51.000Z</time>
      </trkpt>
      <trkpt lat="42.41692115552723407745361328125" lon="0.68988134153187274932861328125">
        <ele>1165.800048828125</ele>
        <time>2039-05-14T06:23:59.000Z</time>
      </trkpt>
      <trkpt lat="42.4169812537729740142822265625" lon="0.6896762363612651824951171875">
        <ele>1166.4000244140625</ele>
        <time>2039-05-14T06:24:08.000Z</time>
      </trkpt>
      <trkpt lat="42.41701117716729640960693359375" lon="0.689559392631053924560546875">
        <ele>1167</ele>
        <time>2039-05-14T06:24:13.000Z</time>
      </trkpt>
      <trkpt lat="42.41702509112656116485595703125" lon="0.68948890082538127899169921875">
        <ele>1167.4000244140625</ele>
        <time>2039-05-14T06:24:16.000Z</time>
      </trkpt>
      <trkpt lat="42.4170483089983463287353515625" lon="0.68932545371353626251220703125">
        <ele>1167.4000244140625</ele>
        <time>2039-05-14T06:24:23.000Z</time>
      </trkpt>
      <trkpt lat="42.417094744741916656494140625" lon="0.68913132883608341217041015625">
        <ele>1167.199951171875</ele>
        <time>2039-05-14T06:24:30.000Z</time>
      </trkpt>
      <trkpt lat="42.41716858930885791778564453125" lon="0.68882907740771770477294921875">
        <ele>1166</ele>
        <time>2039-05-14T06:24:37.000Z</time>
      </trkpt>
      <trkpt lat="42.41719088517129421234130859375" lon="0.6887471862137317657470703125">
        <ele>1165.800048828125</ele>
        <time>2039-05-14T06:24:39.000Z</time>
      </trkpt>
      <trkpt lat="42.41724050603806972503662109375" lon="0.68855364806950092315673828125">
        <ele>1165.199951171875</ele>
        <time>2039-05-14T06:24:44.000Z</time>
      </trkpt>
      <trkpt lat="42.4172927252948284149169921875" lon="0.68834829144179821014404296875">
        <ele>1165.4000244140625</ele>
        <time>2039-05-14T06:24:51.000Z</time>
      </trkpt>
      <trkpt lat="42.417354248464107513427734375" lon="0.68815902806818485260009765625">
        <ele>1165.800048828125</ele>
        <time>2039-05-14T06:24:58.000Z</time>
      </trkpt>
      <trkpt lat="42.417411915957927703857421875" lon="0.68797613494098186492919921875">
        <ele>1165.4000244140625</ele>
        <time>2039-05-14T06:25:05.000Z</time>
      </trkpt>
      <trkpt lat="42.41748173721134662628173828125" lon="0.687764994800090789794921875">
        <ele>1165.4000244140625</ele>
        <time>2039-05-14T06:25:13.000Z</time>
      </trkpt>
      <trkpt lat="42.41756639443337917327880859375" lon="0.68750984966754913330078125">
        <ele>1165.4000244140625</ele>
        <time>2039-05-14T06:25:23.000Z</time>
      </trkpt>
      <trkpt lat="42.417620457708835601806640625" lon="0.6873842887580394744873046875">
        <ele>1165.5999755859375</ele>
        <time>2039-05-14T06:25:30.000Z</time>
      </trkpt>
      <trkpt lat="42.4176568351686000823974609375" lon="0.68723852746188640594482421875">
        <ele>1165.5999755859375</ele>
        <time>2039-05-14T06:25:37.000Z</time>
      </trkpt>
      <trkpt lat="42.4177057854831218719482421875" lon="0.68709008395671844482421875">
        <ele>1165.5999755859375</ele>
        <time>2039-05-14T06:25:44.000Z</time>
      </trkpt>
      <trkpt lat="42.4177674762904644012451171875" lon="0.68688229657709598541259765625">
        <ele>1166.199951171875</ele>
        <time>2039-05-14T06:25:53.000Z</time>
      </trkpt>
      <trkpt lat="42.41783813573420047760009765625" lon="0.68670359440147876739501953125">
        <ele>1166.5999755859375</ele>
        <time>2039-05-14T06:26:01.000Z</time>
      </trkpt>
      <trkpt lat="42.4179022572934627532958984375" lon="0.6865943782031536102294921875">
        <ele>1166.800048828125</ele>
        <time>2039-05-14T06:26:07.000Z</time>
      </trkpt>
      <trkpt lat="42.41799253039062023162841796875" lon="0.68647979758679866790771484375">
        <ele>1166.800048828125</ele>
        <time>2039-05-14T06:26:14.000Z</time>
      </trkpt>
      <trkpt lat="42.41812915541231632232666015625" lon="0.68620537407696247100830078125">
        <ele>1166.800048828125</ele>
        <time>2039-05-14T06:26:25.000Z</time>
      </trkpt>
      <trkpt lat="42.41820811294019222259521484375" lon="0.68609842099249362945556640625">
        <ele>1167.5999755859375</ele>
        <time>2039-05-14T06:26:31.000Z</time>
      </trkpt>
      <trkpt lat="42.41822839714586734771728515625" lon="0.6860629655420780181884765625">
        <ele>1167.5999755859375</ele>
        <time>2039-05-14T06:26:33.000Z</time>
      </trkpt>
      <trkpt lat="42.41825605742633342742919921875" lon="0.686012171208858489990234375">
        <ele>1168.199951171875</ele>
        <time>2039-05-14T06:26:36.000Z</time>
      </trkpt>
      <trkpt lat="42.41828656755387783050537109375" lon="0.68596263416111469268798828125">
        <ele>1168.5999755859375</ele>
        <time>2039-05-14T06:26:39.000Z</time>
      </trkpt>
      <trkpt lat="42.41832126863300800323486328125" lon="0.68591259419918060302734375">
        <ele>1169</ele>
        <time>2039-05-14T06:26:42.000Z</time>
      </trkpt>
      <trkpt lat="42.4183548800647258758544921875" lon="0.68586523644626140594482421875">
        <ele>1169.4000244140625</ele>
        <time>2039-05-14T06:26:45.000Z</time>
      </trkpt>
      <trkpt lat="42.41837910376489162445068359375" lon="0.68582986481487751007080078125">
        <ele>1169.800048828125</ele>
        <time>2039-05-14T06:26:47.000Z</time>
      </trkpt>
      <trkpt lat="42.4184226058423519134521484375" lon="0.68576507270336151123046875">
        <ele>1170.4000244140625</ele>
        <time>2039-05-14T06:26:52.000Z</time>
      </trkpt>
      <trkpt lat="42.41844297386705875396728515625" lon="0.685715116560459136962890625">
        <ele>1170.5999755859375</ele>
        <time>2039-05-14T06:26:55.000Z</time>
      </trkpt>
      <trkpt lat="42.418455295264720916748046875" lon="0.6856730394065380096435546875">
        <ele>1170.5999755859375</ele>
        <time>2039-05-14T06:26:57.000Z</time>
      </trkpt>
      <trkpt lat="42.41851589642465114593505859375" lon="0.68554772995412349700927734375">
        <ele>1170.199951171875</ele>
        <time>2039-05-14T06:27:02.000Z</time>
      </trkpt>
      <trkpt lat="42.41859376430511474609375" lon="0.68544329144060611724853515625">
        <ele>1169.199951171875</ele>
        <time>2039-05-14T06:27:07.000Z</time>
      </trkpt>
      <trkpt lat="42.4186552874743938446044921875" lon="0.68532996810972690582275390625">
        <ele>1168.4000244140625</ele>
        <time>2039-05-14T06:27:11.000Z</time>
      </trkpt>
      <trkpt lat="42.418680600821971893310546875" lon="0.6852774135768413543701171875">
        <ele>1168</ele>
        <time>2039-05-14T06:27:13.000Z</time>
      </trkpt>
      <trkpt lat="42.41868571378290653228759765625" lon="0.68525386042892932891845703125">
        <ele>1167.800048828125</ele>
        <time>2039-05-14T06:27:14.000Z</time>
      </trkpt>
      <trkpt lat="42.41869644261896610260009765625" lon="0.6851637549698352813720703125">
        <ele>1167.800048828125</ele>
        <time>2039-05-14T06:27:18.000Z</time>
      </trkpt>
      <trkpt lat="42.41871454752981662750244140625" lon="0.68508270196616649627685546875">
        <ele>1167.199951171875</ele>
        <time>2039-05-14T06:27:21.000Z</time>
      </trkpt>
      <trkpt lat="42.41872024722397327423095703125" lon="0.68506292067468166351318359375">
        <ele>1166.800048828125</ele>
        <time>2039-05-14T06:27:22.000Z</time>
      </trkpt>
      <trkpt lat="42.41873701103031635284423828125" lon="0.68498991429805755615234375">
        <ele>1166.4000244140625</ele>
        <time>2039-05-14T06:27:25.000Z</time>
      </trkpt>
      <trkpt lat="42.418746650218963623046875" lon="0.684941299259662628173828125">
        <ele>1166.199951171875</ele>
        <time>2039-05-14T06:27:27.000Z</time>
      </trkpt>
      <trkpt lat="42.4187622405588626861572265625" lon="0.68480509333312511444091796875">
        <ele>1165.5999755859375</ele>
        <time>2039-05-14T06:27:32.000Z</time>
      </trkpt>
      <trkpt lat="42.418766431510448455810546875" lon="0.6847424805164337158203125">
        <ele>1165</ele>
        <time>2039-05-14T06:27:34.000Z</time>
      </trkpt>
      <trkpt lat="42.418753020465373992919921875" lon="0.68463427014648914337158203125">
        <ele>1164.4000244140625</ele>
        <time>2039-05-14T06:27:37.000Z</time>
      </trkpt>
      <trkpt lat="42.4187426269054412841796875" lon="0.68456989713013172149658203125">
        <ele>1164</ele>
        <time>2039-05-14T06:27:39.000Z</time>
      </trkpt>
      <trkpt lat="42.41872812621295452117919921875" lon="0.6844581663608551025390625">
        <ele>1163</ele>
        <time>2039-05-14T06:27:43.000Z</time>
      </trkpt>
      <trkpt lat="42.41872225888073444366455078125" lon="0.68442958407104015350341796875">
        <ele>1162.800048828125</ele>
        <time>2039-05-14T06:27:44.000Z</time>
      </trkpt>
      <trkpt lat="42.41868202574551105499267578125" lon="0.68426278419792652130126953125">
        <ele>1161.5999755859375</ele>
        <time>2039-05-14T06:27:49.000Z</time>
      </trkpt>
      <trkpt lat="42.4186502583324909210205078125" lon="0.68415583111345767974853515625">
        <ele>1160.4000244140625</ele>
        <time>2039-05-14T06:27:52.000Z</time>
      </trkpt>
      <trkpt lat="42.4186407029628753662109375" lon="0.6841180287301540374755859375">
        <ele>1160.4000244140625</ele>
        <time>2039-05-14T06:27:53.000Z</time>
      </trkpt>
      <trkpt lat="42.41861195303499698638916015625" lon="0.68396271206438541412353515625">
        <ele>1159.5999755859375</ele>
        <time>2039-05-14T06:27:57.000Z</time>
      </trkpt>
      <trkpt lat="42.4186046607792377471923828125" lon="0.68393002264201641082763671875">
        <ele>1159.4000244140625</ele>
        <time>2039-05-14T06:27:58.000Z</time>
      </trkpt>
      <trkpt lat="42.418591417372226715087890625" lon="0.68385064601898193359375">
        <ele>1158.5999755859375</ele>
        <time>2039-05-14T06:28:00.000Z</time>
      </trkpt>
      <trkpt lat="42.41857507266104221343994140625" lon="0.68372852168977260589599609375">
        <ele>1157.4000244140625</ele>
        <time>2039-05-14T06:28:03.000Z</time>
      </trkpt>
      <trkpt lat="42.41856266744434833526611328125" lon="0.683645121753215789794921875">
        <ele>1156.199951171875</ele>
        <time>2039-05-14T06:28:06.000Z</time>
      </trkpt>
      <trkpt lat="42.41856149397790431976318359375" lon="0.683633387088775634765625">
        <ele>1155.800048828125</ele>
        <time>2039-05-14T06:28:07.000Z</time>
      </trkpt>
      <trkpt lat="42.4185580573976039886474609375" lon="0.68361301906406879425048828125">
        <ele>1155.4000244140625</ele>
        <time>2039-05-14T06:28:17.000Z</time>
      </trkpt>
      <trkpt lat="42.41855763830244541168212890625" lon="0.68361385725438594818115234375">
        <ele>1155.4000244140625</ele>
        <time>2039-05-14T06:28:18.000Z</time>
      </trkpt>
      <trkpt lat="42.41855713538825511932373046875" lon="0.6836144439876079559326171875">
        <ele>1155.4000244140625</ele>
        <time>2039-05-14T06:28:30.000Z</time>
      </trkpt>
      <trkpt lat="42.41855663247406482696533203125" lon="0.683615617454051971435546875">
        <ele>1155.4000244140625</ele>
        <time>2039-05-14T06:28:42.000Z</time>
      </trkpt>
      <trkpt lat="42.41855680011212825775146484375" lon="0.68361528217792510986328125">
        <ele>1155.199951171875</ele>
        <time>2039-05-14T06:28:53.000Z</time>
      </trkpt>
      <trkpt lat="42.4185567162930965423583984375" lon="0.6836147792637348175048828125">
        <ele>1155.5999755859375</ele>
        <time>2039-05-14T06:29:20.000Z</time>
      </trkpt>
      <trkpt lat="42.418552525341510772705078125" lon="0.68361662328243255615234375">
        <ele>1155.5999755859375</ele>
        <time>2039-05-14T06:29:28.000Z</time>
      </trkpt>
      <trkpt lat="42.4185441434383392333984375" lon="0.68361385725438594818115234375">
        <ele>1155.199951171875</ele>
        <time>2039-05-14T06:29:35.000Z</time>
      </trkpt>
      <trkpt lat="42.41854439489543437957763671875" lon="0.6836132705211639404296875">
        <ele>1155.4000244140625</ele>
        <time>2039-05-14T06:29:44.000Z</time>
      </trkpt>
      <trkpt lat="42.4185426346957683563232421875" lon="0.6835996918380260467529296875">
        <ele>1155.4000244140625</ele>
        <time>2039-05-14T06:30:06.000Z</time>
      </trkpt>
      <trkpt lat="42.41853517480194568634033203125" lon="0.683498270809650421142578125">
        <ele>1155.199951171875</ele>
        <time>2039-05-14T06:30:11.000Z</time>
      </trkpt>
      <trkpt lat="42.41852746345102787017822265625" lon="0.6834535114467144012451171875">
        <ele>1154.5999755859375</ele>
        <time>2039-05-14T06:30:13.000Z</time>
      </trkpt>
      <trkpt lat="42.41849980317056179046630859375" lon="0.68334412761032581329345703125">
        <ele>1154.199951171875</ele>
        <time>2039-05-14T06:30:16.000Z</time>
      </trkpt>
      <trkpt lat="42.41848756559193134307861328125" lon="0.68330858834087848663330078125">
        <ele>1154</ele>
        <time>2039-05-14T06:30:17.000Z</time>
      </trkpt>
      <trkpt lat="42.4184725619852542877197265625" lon="0.6832764856517314910888671875">
        <ele>1153.5999755859375</ele>
        <time>2039-05-14T06:30:18.000Z</time>
      </trkpt>
      <trkpt lat="42.4184467457234859466552734375" lon="0.68320767022669315338134765625">
        <ele>1153</ele>
        <time>2039-05-14T06:30:20.000Z</time>
      </trkpt>
      <trkpt lat="42.4184395372867584228515625" lon="0.683129467070102691650390625">
        <ele>1152.5999755859375</ele>
        <time>2039-05-14T06:30:22.000Z</time>
      </trkpt>
      <trkpt lat="42.41841950453817844390869140625" lon="0.68303726613521575927734375">
        <ele>1151.800048828125</ele>
        <time>2039-05-14T06:30:25.000Z</time>
      </trkpt>
      <trkpt lat="42.418414056301116943359375" lon="0.6829975359141826629638671875">
        <ele>1151.5999755859375</ele>
        <time>2039-05-14T06:30:26.000Z</time>
      </trkpt>
      <trkpt lat="42.41839100606739521026611328125" lon="0.68282662890851497650146484375">
        <ele>1150.199951171875</ele>
        <time>2039-05-14T06:30:30.000Z</time>
      </trkpt>
      <trkpt lat="42.4183746613562107086181640625" lon="0.68275202997028827667236328125">
        <ele>1149.800048828125</ele>
        <time>2039-05-14T06:30:32.000Z</time>
      </trkpt>
      <trkpt lat="42.41817408241331577301025390625" lon="0.682092122733592987060546875">
        <ele>1149.199951171875</ele>
        <time>2039-05-14T06:30:38.000Z</time>
      </trkpt>
      <trkpt lat="42.418156564235687255859375" lon="0.68202565424144268035888671875">
        <ele>1148.5999755859375</ele>
        <time>2039-05-14T06:30:39.000Z</time>
      </trkpt>
      <trkpt lat="42.4181688018143177032470703125" lon="0.68198659457266330718994140625">
        <ele>1147.800048828125</ele>
        <time>2039-05-14T06:30:40.000Z</time>
      </trkpt>
      <trkpt lat="42.4181235395371913909912109375" lon="0.6818659789860248565673828125">
        <ele>1147</ele>
        <time>2039-05-14T06:30:43.000Z</time>
      </trkpt>
      <trkpt lat="42.418102920055389404296875" lon="0.6818160228431224822998046875">
        <ele>1146.5999755859375</ele>
        <time>2039-05-14T06:30:44.000Z</time>
      </trkpt>
      <trkpt lat="42.418082468211650848388671875" lon="0.68176967091858386993408203125">
        <ele>1146.199951171875</ele>
        <time>2039-05-14T06:30:45.000Z</time>
      </trkpt>
      <trkpt lat="42.41806629113852977752685546875" lon="0.68172206170856952667236328125">
        <ele>1145.5999755859375</ele>
        <time>2039-05-14T06:30:46.000Z</time>
      </trkpt>
      <trkpt lat="42.41792933084070682525634765625" lon="0.68147462792694568634033203125">
        <ele>1144.800048828125</ele>
        <time>2039-05-14T06:30:52.000Z</time>
      </trkpt>
      <trkpt lat="42.41791776381433010101318359375" lon="0.6814093329012393951416015625">
        <ele>1144.5999755859375</ele>
        <time>2039-05-14T06:30:53.000Z</time>
      </trkpt>
      <trkpt lat="42.4178962223231792449951171875" lon="0.6813670881092548370361328125">
        <ele>1144.4000244140625</ele>
        <time>2039-05-14T06:30:54.000Z</time>
      </trkpt>
      <trkpt lat="42.4178603477776050567626953125" lon="0.6812289543449878692626953125">
        <ele>1143.5999755859375</ele>
        <time>2039-05-14T06:30:58.000Z</time>
      </trkpt>
      <trkpt lat="42.4178655445575714111328125" lon="0.68111889995634555816650390625">
        <ele>1144</ele>
        <time>2039-05-14T06:31:01.000Z</time>
      </trkpt>
      <trkpt lat="42.4178814701735973358154296875" lon="0.68107648752629756927490234375">
        <ele>1144</ele>
        <time>2039-05-14T06:31:05.000Z</time>
      </trkpt>
      <trkpt lat="42.417964451014995574951171875" lon="0.6809191592037677764892578125">
        <ele>1144.199951171875</ele>
        <time>2039-05-14T06:31:11.000Z</time>
      </trkpt>
      <trkpt lat="42.4180025048553943634033203125" lon="0.68083575926721096038818359375">
        <ele>1144.5999755859375</ele>
        <time>2039-05-14T06:31:15.000Z</time>
      </trkpt>
      <trkpt lat="42.41806746460497379302978515625" lon="0.680748336017131805419921875">
        <ele>1144.800048828125</ele>
        <time>2039-05-14T06:31:20.000Z</time>
      </trkpt>
      <trkpt lat="42.41811725310981273651123046875" lon="0.68065504543483257293701171875">
        <ele>1145.4000244140625</ele>
        <time>2039-05-14T06:31:26.000Z</time>
      </trkpt>
      <trkpt lat="42.4181359447538852691650390625" lon="0.68061615340411663055419921875">
        <ele>1145.4000244140625</ele>
        <time>2039-05-14T06:31:28.000Z</time>
      </trkpt>
      <trkpt lat="42.41815346293151378631591796875" lon="0.68057256750762462615966796875">
        <ele>1145.4000244140625</ele>
        <time>2039-05-14T06:31:31.000Z</time>
      </trkpt>
      <trkpt lat="42.41817257367074489593505859375" lon="0.6804926879703998565673828125">
        <ele>1145.4000244140625</ele>
        <time>2039-05-14T06:31:35.000Z</time>
      </trkpt>
      <trkpt lat="42.41818548180162906646728515625" lon="0.6803917698562145233154296875">
        <ele>1145.199951171875</ele>
        <time>2039-05-14T06:31:40.000Z</time>
      </trkpt>
      <trkpt lat="42.41821314208209514617919921875" lon="0.680343993008136749267578125">
        <ele>1145.4000244140625</ele>
        <time>2039-05-14T06:31:45.000Z</time>
      </trkpt>
      <trkpt lat="42.41822789423167705535888671875" lon="0.6802041828632354736328125">
        <ele>1145.5999755859375</ele>
        <time>2039-05-14T06:31:52.000Z</time>
      </trkpt>
      <trkpt lat="42.4182425625622272491455078125" lon="0.680101253092288970947265625">
        <ele>1145.800048828125</ele>
        <time>2039-05-14T06:31:57.000Z</time>
      </trkpt>
      <trkpt lat="42.4182740785181522369384765625" lon="0.6799867562949657440185546875">
        <ele>1145.199951171875</ele>
        <time>2039-05-14T06:32:04.000Z</time>
      </trkpt>
      <trkpt lat="42.41830215789377689361572265625" lon="0.67989413626492023468017578125">
        <ele>1145.199951171875</ele>
        <time>2039-05-14T06:32:08.000Z</time>
      </trkpt>
      <trkpt lat="42.41831171326339244842529296875" lon="0.67984971217811107635498046875">
        <ele>1145.199951171875</ele>
        <time>2039-05-14T06:32:10.000Z</time>
      </trkpt>
      <trkpt lat="42.4183109588921070098876953125" lon="0.679800175130367279052734375">
        <ele>1145.4000244140625</ele>
        <time>2039-05-14T06:32:13.000Z</time>
      </trkpt>
      <trkpt lat="42.418315149843692779541015625" lon="0.67973555065691471099853515625">
        <ele>1145.199951171875</ele>
        <time>2039-05-14T06:32:16.000Z</time>
      </trkpt>
      <trkpt lat="42.4183163233101367950439453125" lon="0.67970755510032176971435546875">
        <ele>1145</ele>
        <time>2039-05-14T06:32:17.000Z</time>
      </trkpt>
      <trkpt lat="42.4182757548987865447998046875" lon="0.6795871071517467498779296875">
        <ele>1144.800048828125</ele>
        <time>2039-05-14T06:32:21.000Z</time>
      </trkpt>
      <trkpt lat="42.418209202587604522705078125" lon="0.67945861257612705230712890625">
        <ele>1144.4000244140625</ele>
        <time>2039-05-14T06:32:25.000Z</time>
      </trkpt>
      <trkpt lat="42.4181902594864368438720703125" lon="0.6794035434722900390625">
        <ele>1143.800048828125</ele>
        <time>2039-05-14T06:32:27.000Z</time>
      </trkpt>
      <trkpt lat="42.4181785248219966888427734375" lon="0.679370351135730743408203125">
        <ele>1143.4000244140625</ele>
        <time>2039-05-14T06:32:28.000Z</time>
      </trkpt>
      <trkpt lat="42.41817173548042774200439453125" lon="0.6792578659951686859130859375">
        <ele>1142.199951171875</ele>
        <time>2039-05-14T06:32:31.000Z</time>
      </trkpt>
      <trkpt lat="42.4181807041168212890625" lon="0.67921620793640613555908203125">
        <ele>1142.199951171875</ele>
        <time>2039-05-14T06:32:32.000Z</time>
      </trkpt>
      <trkpt lat="42.41819838993251323699951171875" lon="0.67915988154709339141845703125">
        <ele>1142</ele>
        <time>2039-05-14T06:32:34.000Z</time>
      </trkpt>
      <trkpt lat="42.41822822950780391693115234375" lon="0.67910112440586090087890625">
        <ele>1142.4000244140625</ele>
        <time>2039-05-14T06:32:37.000Z</time>
      </trkpt>
      <trkpt lat="42.41826586425304412841796875" lon="0.6790642440319061279296875">
        <ele>1142.5999755859375</ele>
        <time>2039-05-14T06:32:40.000Z</time>
      </trkpt>
      <trkpt lat="42.41836108267307281494140625" lon="0.6789819337427616119384765625">
        <ele>1142.800048828125</ele>
        <time>2039-05-14T06:32:47.000Z</time>
      </trkpt>
      <trkpt lat="42.4184038303792476654052734375" lon="0.67896190099418163299560546875">
        <ele>1143.199951171875</ele>
        <time>2039-05-14T06:32:50.000Z</time>
      </trkpt>
      <trkpt lat="42.41846074350178241729736328125" lon="0.6789450533688068389892578125">
        <ele>1143.5999755859375</ele>
        <time>2039-05-14T06:32:54.000Z</time>
      </trkpt>
      <trkpt lat="42.418564260005950927734375" lon="0.67886550910770893096923828125">
        <ele>1144.5999755859375</ele>
        <time>2039-05-14T06:33:01.000Z</time>
      </trkpt>
      <trkpt lat="42.41867582313716411590576171875" lon="0.6788786686956882476806640625">
        <ele>1145.4000244140625</ele>
        <time>2039-05-14T06:33:08.000Z</time>
      </trkpt>
      <trkpt lat="42.4187069199979305267333984375" lon="0.67888654768466949462890625">
        <ele>1145.5999755859375</ele>
        <time>2039-05-14T06:33:10.000Z</time>
      </trkpt>
      <trkpt lat="42.41879300214350223541259765625" lon="0.678942538797855377197265625">
        <ele>1146</ele>
        <time>2039-05-14T06:33:17.000Z</time>
      </trkpt>
      <trkpt lat="42.4188847839832305908203125" lon="0.67896843887865543365478515625">
        <ele>1146.800048828125</ele>
        <time>2039-05-14T06:33:23.000Z</time>
      </trkpt>
      <trkpt lat="42.41890096105635166168212890625" lon="0.67897581495344638824462890625">
        <ele>1146.800048828125</ele>
        <time>2039-05-14T06:33:24.000Z</time>
      </trkpt>
      <trkpt lat="42.419014871120452880859375" lon="0.679029710590839385986328125">
        <ele>1147.5999755859375</ele>
        <time>2039-05-14T06:33:32.000Z</time>
      </trkpt>
      <trkpt lat="42.41902920417487621307373046875" lon="0.6790362484753131866455078125">
        <ele>1147.800048828125</ele>
        <time>2039-05-14T06:33:33.000Z</time>
      </trkpt>
      <trkpt lat="42.41909977979958057403564453125" lon="0.6790613941848278045654296875">
        <ele>1149</ele>
        <time>2039-05-14T06:33:38.000Z</time>
      </trkpt>
      <trkpt lat="42.419127188622951507568359375" lon="0.679070949554443359375">
        <ele>1149.199951171875</ele>
        <time>2039-05-14T06:33:42.000Z</time>
      </trkpt>
      <trkpt lat="42.4192470498383045196533203125" lon="0.6791339814662933349609375">
        <ele>1150</ele>
        <time>2039-05-14T06:33:48.000Z</time>
      </trkpt>
      <trkpt lat="42.419259957969188690185546875" lon="0.67914026789367198944091796875">
        <ele>1150.199951171875</ele>
        <time>2039-05-14T06:33:49.000Z</time>
      </trkpt>
      <trkpt lat="42.41929926909506320953369140625" lon="0.67915745079517364501953125">
        <ele>1150.5999755859375</ele>
        <time>2039-05-14T06:33:52.000Z</time>
      </trkpt>
      <trkpt lat="42.4193171225488185882568359375" lon="0.679174549877643585205078125">
        <ele>1151</ele>
        <time>2039-05-14T06:33:54.000Z</time>
      </trkpt>
      <trkpt lat="42.41934000514447689056396484375" lon="0.67917890846729278564453125">
        <ele>1151.4000244140625</ele>
        <time>2039-05-14T06:33:56.000Z</time>
      </trkpt>
      <trkpt lat="42.419357858598232269287109375" lon="0.67919709719717502593994140625">
        <ele>1151.4000244140625</ele>
        <time>2039-05-14T06:33:58.000Z</time>
      </trkpt>
      <trkpt lat="42.41943086497485637664794921875" lon="0.67922425456345081329345703125">
        <ele>1152.199951171875</ele>
        <time>2039-05-14T06:34:04.000Z</time>
      </trkpt>
      <trkpt lat="42.4194451980292797088623046875" lon="0.6792330555617809295654296875">
        <ele>1152.4000244140625</ele>
        <time>2039-05-14T06:34:05.000Z</time>
      </trkpt>
      <trkpt lat="42.419482581317424774169921875" lon="0.67925862036645412445068359375">
        <ele>1153</ele>
        <time>2039-05-14T06:34:09.000Z</time>
      </trkpt>
      <trkpt lat="42.41951300762593746185302734375" lon="0.67927488125860691070556640625">
        <ele>1153.4000244140625</ele>
        <time>2039-05-14T06:34:12.000Z</time>
      </trkpt>
      <trkpt lat="42.41952113807201385498046875" lon="0.6792833469808101654052734375">
        <ele>1153.4000244140625</ele>
        <time>2039-05-14T06:34:13.000Z</time>
      </trkpt>
      <trkpt lat="42.41958827711641788482666015625" lon="0.679320059716701507568359375">
        <ele>1154</ele>
        <time>2039-05-14T06:34:18.000Z</time>
      </trkpt>
      <trkpt lat="42.41967008449137210845947265625" lon="0.67936892621219158172607421875">
        <ele>1154.5999755859375</ele>
        <time>2039-05-14T06:34:24.000Z</time>
      </trkpt>
      <trkpt lat="42.41969724185764789581298828125" lon="0.67938745021820068359375">
        <ele>1154.800048828125</ele>
        <time>2039-05-14T06:34:26.000Z</time>
      </trkpt>
      <trkpt lat="42.41976748220622539520263671875" lon="0.67944369278848171234130859375">
        <ele>1155.5999755859375</ele>
        <time>2039-05-14T06:34:32.000Z</time>
      </trkpt>
      <trkpt lat="42.41983219049870967864990234375" lon="0.67946565337479114532470703125">
        <ele>1156.4000244140625</ele>
        <time>2039-05-14T06:34:37.000Z</time>
      </trkpt>
      <trkpt lat="42.419848702847957611083984375" lon="0.6794714368879795074462890625">
        <ele>1156.4000244140625</ele>
        <time>2039-05-14T06:34:38.000Z</time>
      </trkpt>
      <trkpt lat="42.41986152715981006622314453125" lon="0.67947738803923130035400390625">
        <ele>1156.5999755859375</ele>
        <time>2039-05-14T06:34:39.000Z</time>
      </trkpt>
      <trkpt lat="42.41991718299686908721923828125" lon="0.679505802690982818603515625">
        <ele>1156.800048828125</ele>
        <time>2039-05-14T06:34:43.000Z</time>
      </trkpt>
      <trkpt lat="42.419952638447284698486328125" lon="0.67951954901218414306640625">
        <ele>1157.199951171875</ele>
        <time>2039-05-14T06:34:45.000Z</time>
      </trkpt>
      <trkpt lat="42.419994883239269256591796875" lon="0.67954913713037967681884765625">
        <ele>1157.5999755859375</ele>
        <time>2039-05-14T06:34:48.000Z</time>
      </trkpt>
      <trkpt lat="42.42003972642123699188232421875" lon="0.6795666553080081939697265625">
        <ele>1157.800048828125</ele>
        <time>2039-05-14T06:34:51.000Z</time>
      </trkpt>
      <trkpt lat="42.42009873501956462860107421875" lon="0.67957545630633831024169921875">
        <ele>1158.199951171875</ele>
        <time>2039-05-14T06:34:56.000Z</time>
      </trkpt>
      <trkpt lat="42.42012471891939640045166015625" lon="0.67959196865558624267578125">
        <ele>1158.5999755859375</ele>
        <time>2039-05-14T06:34:58.000Z</time>
      </trkpt>
      <trkpt lat="42.42013611830770969390869140625" lon="0.67959825508296489715576171875">
        <ele>1158.800048828125</ele>
        <time>2039-05-14T06:34:59.000Z</time>
      </trkpt>
      <trkpt lat="42.420193366706371307373046875" lon="0.6796152703464031219482421875">
        <ele>1159.5999755859375</ele>
        <time>2039-05-14T06:35:04.000Z</time>
      </trkpt>
      <trkpt lat="42.4202035926282405853271484375" lon="0.679619126021862030029296875">
        <ele>1159.800048828125</ele>
        <time>2039-05-14T06:35:05.000Z</time>
      </trkpt>
      <trkpt lat="42.42029420100152492523193359375" lon="0.67966279573738574981689453125">
        <ele>1160.5999755859375</ele>
        <time>2039-05-14T06:35:12.000Z</time>
      </trkpt>
      <trkpt lat="42.42030492983758449554443359375" lon="0.67967000417411327362060546875">
        <ele>1161</ele>
        <time>2039-05-14T06:35:13.000Z</time>
      </trkpt>
      <trkpt lat="42.42035253904759883880615234375" lon="0.67971861921250820159912109375">
        <ele>1161.5999755859375</ele>
        <time>2039-05-14T06:35:17.000Z</time>
      </trkpt>
      <trkpt lat="42.420363016426563262939453125" lon="0.67971979267895221710205078125">
        <ele>1161.800048828125</ele>
        <time>2039-05-14T06:35:18.000Z</time>
      </trkpt>
      <trkpt lat="42.42037466727197170257568359375" lon="0.67972079850733280181884765625">
        <ele>1162</ele>
        <time>2039-05-14T06:35:19.000Z</time>
      </trkpt>
      <trkpt lat="42.42042194120585918426513671875" lon="0.67975424230098724365234375">
        <ele>1162.5999755859375</ele>
        <time>2039-05-14T06:35:24.000Z</time>
      </trkpt>
      <trkpt lat="42.42047156207263469696044921875" lon="0.67978441715240478515625">
        <ele>1163</ele>
        <time>2039-05-14T06:35:29.000Z</time>
      </trkpt>
      <trkpt lat="42.42064741440117359161376953125" lon="0.67990067414939403533935546875">
        <ele>1164</ele>
        <time>2039-05-14T06:35:38.000Z</time>
      </trkpt>
      <trkpt lat="42.42072251625359058380126953125" lon="0.67993621341884136199951171875">
        <ele>1165.199951171875</ele>
        <time>2039-05-14T06:35:45.000Z</time>
      </trkpt>
      <trkpt lat="42.42076970636844635009765625" lon="0.679934956133365631103515625">
        <ele>1165.800048828125</ele>
        <time>2039-05-14T06:35:50.000Z</time>
      </trkpt>
      <trkpt lat="42.42080080322921276092529296875" lon="0.67994861863553524017333984375">
        <ele>1166.199951171875</ele>
        <time>2039-05-14T06:35:53.000Z</time>
      </trkpt>
      <trkpt lat="42.4208781681954860687255859375" lon="0.6799669750034809112548828125">
        <ele>1166.5999755859375</ele>
        <time>2039-05-14T06:35:58.000Z</time>
      </trkpt>
      <trkpt lat="42.42092016153037548065185546875" lon="0.6799746863543987274169921875">
        <ele>1167.199951171875</ele>
        <time>2039-05-14T06:36:01.000Z</time>
      </trkpt>
      <trkpt lat="42.4209753982722759246826171875" lon="0.6799968145787715911865234375">
        <ele>1168.4000244140625</ele>
        <time>2039-05-14T06:36:06.000Z</time>
      </trkpt>
      <trkpt lat="42.42104035802185535430908203125" lon="0.68001165054738521575927734375">
        <ele>1168.5999755859375</ele>
        <time>2039-05-14T06:36:11.000Z</time>
      </trkpt>
      <trkpt lat="42.42110959254205226898193359375" lon="0.68003981374204158782958984375">
        <ele>1169</ele>
        <time>2039-05-14T06:36:18.000Z</time>
      </trkpt>
      <trkpt lat="42.4211158789694309234619140625" lon="0.6800363771617412567138671875">
        <ele>1169.199951171875</ele>
        <time>2039-05-14T06:36:19.000Z</time>
      </trkpt>
      <trkpt lat="42.42120246402919292449951171875" lon="0.6800729222595691680908203125">
        <ele>1170.4000244140625</ele>
        <time>2039-05-14T06:36:26.000Z</time>
      </trkpt>
      <trkpt lat="42.42129500024020671844482421875" lon="0.68012799136340618133544921875">
        <ele>1171.4000244140625</ele>
        <time>2039-05-14T06:36:32.000Z</time>
      </trkpt>
      <trkpt lat="42.42130924947559833526611328125" lon="0.6801426596939563751220703125">
        <ele>1171.5999755859375</ele>
        <time>2039-05-14T06:36:33.000Z</time>
      </trkpt>
      <trkpt lat="42.42139197885990142822265625" lon="0.680210888385772705078125">
        <ele>1172.4000244140625</ele>
        <time>2039-05-14T06:36:40.000Z</time>
      </trkpt>
      <trkpt lat="42.421403713524341583251953125" lon="0.68022019229829311370849609375">
        <ele>1172.5999755859375</ele>
        <time>2039-05-14T06:36:41.000Z</time>
      </trkpt>
      <trkpt lat="42.42145769298076629638671875" lon="0.68028389476239681243896484375">
        <ele>1173.199951171875</ele>
        <time>2039-05-14T06:36:46.000Z</time>
      </trkpt>
      <trkpt lat="42.421516366302967071533203125" lon="0.6803387962281703948974609375">
        <ele>1173.5999755859375</ele>
        <time>2039-05-14T06:36:52.000Z</time>
      </trkpt>
      <trkpt lat="42.4215795658528804779052734375" lon="0.680396966636180877685546875">
        <ele>1174.199951171875</ele>
        <time>2039-05-14T06:36:58.000Z</time>
      </trkpt>
      <trkpt lat="42.42159004323184490203857421875" lon="0.68040643818676471710205078125">
        <ele>1174.4000244140625</ele>
        <time>2039-05-14T06:36:59.000Z</time>
      </trkpt>
      <trkpt lat="42.42160898633301258087158203125" lon="0.68042211234569549560546875">
        <ele>1174.800048828125</ele>
        <time>2039-05-14T06:37:01.000Z</time>
      </trkpt>
      <trkpt lat="42.42163044400513172149658203125" lon="0.680431164801120758056640625">
        <ele>1175</ele>
        <time>2039-05-14T06:37:03.000Z</time>
      </trkpt>
      <trkpt lat="42.421695403754711151123046875" lon="0.6804759241640567779541015625">
        <ele>1175.800048828125</ele>
        <time>2039-05-14T06:37:09.000Z</time>
      </trkpt>
      <trkpt lat="42.42170889861881732940673828125" lon="0.6804843060672283172607421875">
        <ele>1176</ele>
        <time>2039-05-14T06:37:10.000Z</time>
      </trkpt>
      <trkpt lat="42.421818114817142486572265625" lon="0.68047282285988330841064453125">
        <ele>1176.5999755859375</ele>
        <time>2039-05-14T06:37:17.000Z</time>
      </trkpt>
      <trkpt lat="42.4218271672725677490234375" lon="0.6804564781486988067626953125">
        <ele>1176.800048828125</ele>
        <time>2039-05-14T06:37:18.000Z</time>
      </trkpt>
      <trkpt lat="42.4218326993286609649658203125" lon="0.68043711595237255096435546875">
        <ele>1177</ele>
        <time>2039-05-14T06:37:19.000Z</time>
      </trkpt>
      <trkpt lat="42.421839572489261627197265625" lon="0.68040442653000354766845703125">
        <ele>1177</ele>
        <time>2039-05-14T06:37:21.000Z</time>
      </trkpt>
      <trkpt lat="42.42183999158442020416259765625" lon="0.680390261113643646240234375">
        <ele>1177</ele>
        <time>2039-05-14T06:37:22.000Z</time>
      </trkpt>
      <trkpt lat="42.421817779541015625" lon="0.680286996066570281982421875">
        <ele>1178</ele>
        <time>2039-05-14T06:37:29.000Z</time>
      </trkpt>
      <trkpt lat="42.42179992608726024627685546875" lon="0.68017534911632537841796875">
        <ele>1179</ele>
        <time>2039-05-14T06:37:35.000Z</time>
      </trkpt>
      <trkpt lat="42.42179431021213531494140625" lon="0.68015783093869686126708984375">
        <ele>1179</ele>
        <time>2039-05-14T06:37:36.000Z</time>
      </trkpt>
      <trkpt lat="42.42177193053066730499267578125" lon="0.6800792925059795379638671875">
        <ele>1179.5999755859375</ele>
        <time>2039-05-14T06:37:41.000Z</time>
      </trkpt>
      <trkpt lat="42.421735636889934539794921875" lon="0.67998214624822139739990234375">
        <ele>1180</ele>
        <time>2039-05-14T06:37:46.000Z</time>
      </trkpt>
      <trkpt lat="42.42172700352966785430908203125" lon="0.67995985038578510284423828125">
        <ele>1180.199951171875</ele>
        <time>2039-05-14T06:37:47.000Z</time>
      </trkpt>
      <trkpt lat="42.4216823279857635498046875" lon="0.67982188425958156585693359375">
        <ele>1181.199951171875</ele>
        <time>2039-05-14T06:37:54.000Z</time>
      </trkpt>
      <trkpt lat="42.42166556417942047119140625" lon="0.67976237274706363677978515625">
        <ele>1181.4000244140625</ele>
        <time>2039-05-14T06:37:57.000Z</time>
      </trkpt>
      <trkpt lat="42.421642430126667022705078125" lon="0.6797232292592525482177734375">
        <ele>1181.5999755859375</ele>
        <time>2039-05-14T06:38:00.000Z</time>
      </trkpt>
      <trkpt lat="42.42161083035171031951904296875" lon="0.679615773260593414306640625">
        <ele>1181.800048828125</ele>
        <time>2039-05-14T06:38:06.000Z</time>
      </trkpt>
      <trkpt lat="42.42157998494803905487060546875" lon="0.67953170277178287506103515625">
        <ele>1182.199951171875</ele>
        <time>2039-05-14T06:38:10.000Z</time>
      </trkpt>
      <trkpt lat="42.421559952199459075927734375" lon="0.6794719398021697998046875">
        <ele>1182.5999755859375</ele>
        <time>2039-05-14T06:38:13.000Z</time>
      </trkpt>
      <trkpt lat="42.4215145222842693328857421875" lon="0.67939608357846736907958984375">
        <ele>1183.199951171875</ele>
        <time>2039-05-14T06:38:18.000Z</time>
      </trkpt>
      <trkpt lat="42.42149616591632366180419921875" lon="0.67936104722321033477783203125">
        <ele>1183.5999755859375</ele>
        <time>2039-05-14T06:38:20.000Z</time>
      </trkpt>
      <trkpt lat="42.42144118063151836395263671875" lon="0.679234229028224945068359375">
        <ele>1183.800048828125</ele>
        <time>2039-05-14T06:38:27.000Z</time>
      </trkpt>
      <trkpt lat="42.42140832357108592987060546875" lon="0.67906851880252361297607421875">
        <ele>1184.199951171875</ele>
        <time>2039-05-14T06:38:35.000Z</time>
      </trkpt>
      <trkpt lat="42.42140161804854869842529296875" lon="0.67905175499618053436279296875">
        <ele>1184.4000244140625</ele>
        <time>2039-05-14T06:38:36.000Z</time>
      </trkpt>
      <trkpt lat="42.42136557586491107940673828125" lon="0.67896357737481594085693359375">
        <ele>1184.5999755859375</ele>
        <time>2039-05-14T06:38:40.000Z</time>
      </trkpt>
      <trkpt lat="42.42134344764053821563720703125" lon="0.67888998426496982574462890625">
        <ele>1184.800048828125</ele>
        <time>2039-05-14T06:38:44.000Z</time>
      </trkpt>
      <trkpt lat="42.42133121006190776824951171875" lon="0.678865425288677215576171875">
        <ele>1184.800048828125</ele>
        <time>2039-05-14T06:38:45.000Z</time>
      </trkpt>
      <trkpt lat="42.4212737940251827239990234375" lon="0.6787770800292491912841796875">
        <ele>1185</ele>
        <time>2039-05-14T06:38:50.000Z</time>
      </trkpt>
      <trkpt lat="42.4212612211704254150390625" lon="0.678761489689350128173828125">
        <ele>1185.199951171875</ele>
        <time>2039-05-14T06:38:51.000Z</time>
      </trkpt>
      <trkpt lat="42.4212060682475566864013671875" lon="0.67871010862290859222412109375">
        <ele>1185.4000244140625</ele>
        <time>2039-05-14T06:38:55.000Z</time>
      </trkpt>
      <trkpt lat="42.4211725406348705291748046875" lon="0.67868580110371112823486328125">
        <ele>1185.5999755859375</ele>
        <time>2039-05-14T06:38:57.000Z</time>
      </trkpt>
      <trkpt lat="42.421063743531703948974609375" lon="0.6785956956446170806884765625">
        <ele>1186</ele>
        <time>2039-05-14T06:39:04.000Z</time>
      </trkpt>
      <trkpt lat="42.420973218977451324462890625" lon="0.67848849110305309295654296875">
        <ele>1186</ele>
        <time>2039-05-14T06:39:10.000Z</time>
      </trkpt>
      <trkpt lat="42.42088965140283107757568359375" lon="0.67842059768736362457275390625">
        <ele>1186.5999755859375</ele>
        <time>2039-05-14T06:39:15.000Z</time>
      </trkpt>
      <trkpt lat="42.42086065001785755157470703125" lon="0.67839159630239009857177734375">
        <ele>1186.800048828125</ele>
        <time>2039-05-14T06:39:17.000Z</time>
      </trkpt>
      <trkpt lat="42.42074020206928253173828125" lon="0.67836846224963665008544921875">
        <ele>1187.800048828125</ele>
        <time>2039-05-14T06:39:24.000Z</time>
      </trkpt>
      <trkpt lat="42.42067993618547916412353515625" lon="0.6782768480479717254638671875">
        <ele>1188</ele>
        <time>2039-05-14T06:39:30.000Z</time>
      </trkpt>
      <trkpt lat="42.4206106178462505340576171875" lon="0.67809018306434154510498046875">
        <ele>1188.800048828125</ele>
        <time>2039-05-14T06:39:38.000Z</time>
      </trkpt>
      <trkpt lat="42.42060835473239421844482421875" lon="0.67808398045599460601806640625">
        <ele>1188.800048828125</ele>
        <time>2039-05-14T06:39:39.000Z</time>
      </trkpt>
      <trkpt lat="42.420615144073963165283203125" lon="0.6780840642750263214111328125">
        <ele>1189</ele>
        <time>2039-05-14T06:39:43.000Z</time>
      </trkpt>
      <trkpt lat="42.4206183291971683502197265625" lon="0.6780800409615039825439453125">
        <ele>1188.800048828125</ele>
        <time>2039-05-14T06:39:57.000Z</time>
      </trkpt>
      <trkpt lat="42.4206183291971683502197265625" lon="0.678080208599567413330078125">
        <ele>1188.5999755859375</ele>
        <time>2039-05-14T06:39:59.000Z</time>
      </trkpt>
      <trkpt lat="42.4206086061894893646240234375" lon="0.67806688137352466583251953125">
        <ele>1189</ele>
        <time>2039-05-14T06:41:17.000Z</time>
      </trkpt>
      <trkpt lat="42.42059645242989063262939453125" lon="0.67802983336150646209716796875">
        <ele>1188.800048828125</ele>
        <time>2039-05-14T06:41:24.000Z</time>
      </trkpt>
      <trkpt lat="42.42058907635509967803955078125" lon="0.6779901869595050811767578125">
        <ele>1189</ele>
        <time>2039-05-14T06:41:27.000Z</time>
      </trkpt>
      <trkpt lat="42.42057465948164463043212890625" lon="0.67795909009873867034912109375">
        <ele>1189.199951171875</ele>
        <time>2039-05-14T06:41:30.000Z</time>
      </trkpt>
      <trkpt lat="42.4205559678375720977783203125" lon="0.6779030151665210723876953125">
        <ele>1189.800048828125</ele>
        <time>2039-05-14T06:41:34.000Z</time>
      </trkpt>
      <trkpt lat="42.42054180242121219635009765625" lon="0.67786688916385173797607421875">
        <ele>1190</ele>
        <time>2039-05-14T06:41:37.000Z</time>
      </trkpt>
      <trkpt lat="42.4205210991203784942626953125" lon="0.6777900271117687225341796875">
        <ele>1190.199951171875</ele>
        <time>2039-05-14T06:41:42.000Z</time>
      </trkpt>
      <trkpt lat="42.420495115220546722412109375" lon="0.67771618254482746124267578125">
        <ele>1190.4000244140625</ele>
        <time>2039-05-14T06:41:46.000Z</time>
      </trkpt>
      <trkpt lat="42.42044792510569095611572265625" lon="0.677598081529140472412109375">
        <ele>1190.800048828125</ele>
        <time>2039-05-14T06:41:52.000Z</time>
      </trkpt>
      <trkpt lat="42.420437447726726531982421875" lon="0.67758676595985889434814453125">
        <ele>1191</ele>
        <time>2039-05-14T06:41:53.000Z</time>
      </trkpt>
      <trkpt lat="42.42039662785828113555908203125" lon="0.67749523557722568511962890625">
        <ele>1191.4000244140625</ele>
        <time>2039-05-14T06:41:58.000Z</time>
      </trkpt>
      <trkpt lat="42.4203574843704700469970703125" lon="0.67737068049609661102294921875">
        <ele>1192</ele>
        <time>2039-05-14T06:42:04.000Z</time>
      </trkpt>
      <trkpt lat="42.4203383736312389373779296875" lon="0.67732793278992176055908203125">
        <ele>1192.199951171875</ele>
        <time>2039-05-14T06:42:06.000Z</time>
      </trkpt>
      <trkpt lat="42.4203144013881683349609375" lon="0.67727345041930675506591796875">
        <ele>1192.4000244140625</ele>
        <time>2039-05-14T06:42:09.000Z</time>
      </trkpt>
      <trkpt lat="42.42030291818082332611083984375" lon="0.6772542558610439300537109375">
        <ele>1192.4000244140625</ele>
        <time>2039-05-14T06:42:10.000Z</time>
      </trkpt>
      <trkpt lat="42.4202709831297397613525390625" lon="0.67719013430178165435791015625">
        <ele>1193</ele>
        <time>2039-05-14T06:42:13.000Z</time>
      </trkpt>
      <trkpt lat="42.42025849409401416778564453125" lon="0.67715040408074855804443359375">
        <ele>1193.199951171875</ele>
        <time>2039-05-14T06:42:15.000Z</time>
      </trkpt>
      <trkpt lat="42.42025162093341350555419921875" lon="0.67713095806539058685302734375">
        <ele>1193.5999755859375</ele>
        <time>2039-05-14T06:42:16.000Z</time>
      </trkpt>
      <trkpt lat="42.420195378363132476806640625" lon="0.67702107131481170654296875">
        <ele>1194</ele>
        <time>2039-05-14T06:42:22.000Z</time>
      </trkpt>
      <trkpt lat="42.4201590009033679962158203125" lon="0.676933228969573974609375">
        <ele>1194.800048828125</ele>
        <time>2039-05-14T06:42:26.000Z</time>
      </trkpt>
      <trkpt lat="42.42013343609869480133056640625" lon="0.67682929337024688720703125">
        <ele>1195</ele>
        <time>2039-05-14T06:42:28.000Z</time>
      </trkpt>
      <trkpt lat="42.42003151215612888336181640625" lon="0.6765964441001415252685546875">
        <ele>1195.5999755859375</ele>
        <time>2039-05-14T06:42:34.000Z</time>
      </trkpt>
      <trkpt lat="42.419996224343776702880859375" lon="0.6764893233776092529296875">
        <ele>1196</ele>
        <time>2039-05-14T06:42:38.000Z</time>
      </trkpt>
      <trkpt lat="42.41998960264027118682861328125" lon="0.67646920680999755859375">
        <ele>1196.199951171875</ele>
        <time>2039-05-14T06:42:39.000Z</time>
      </trkpt>
      <trkpt lat="42.41992053575813770294189453125" lon="0.67632344551384449005126953125">
        <ele>1196.800048828125</ele>
        <time>2039-05-14T06:42:48.000Z</time>
      </trkpt>
      <trkpt lat="42.4198475293815135955810546875" lon="0.67619872279465198516845703125">
        <ele>1197.199951171875</ele>
        <time>2039-05-14T06:42:51.000Z</time>
      </trkpt>
      <trkpt lat="42.4198388122022151947021484375" lon="0.67619905807077884674072265625">
        <ele>1197.5999755859375</ele>
        <time>2039-05-14T06:42:54.000Z</time>
      </trkpt>
      <trkpt lat="42.41982464678585529327392578125" lon="0.67620760761201381683349609375">
        <ele>1197.5999755859375</ele>
        <time>2039-05-14T06:43:05.000Z</time>
      </trkpt>
      <trkpt lat="42.4198233895003795623779296875" lon="0.67621012218296527862548828125">
        <ele>1197.4000244140625</ele>
        <time>2039-05-14T06:43:15.000Z</time>
      </trkpt>
      <trkpt lat="42.41980385966598987579345703125" lon="0.67617257125675678253173828125">
        <ele>1198</ele>
        <time>2039-05-14T06:43:49.000Z</time>
      </trkpt>
      <trkpt lat="42.4197392351925373077392578125" lon="0.6760655343532562255859375">
        <ele>1198.4000244140625</ele>
        <time>2039-05-14T06:43:56.000Z</time>
      </trkpt>
      <trkpt lat="42.41968818940222263336181640625" lon="0.6759792007505893707275390625">
        <ele>1198.4000244140625</ele>
        <time>2039-05-14T06:44:01.000Z</time>
      </trkpt>
      <trkpt lat="42.41966589353978633880615234375" lon="0.67594558931887149810791015625">
        <ele>1198.5999755859375</ele>
        <time>2039-05-14T06:44:03.000Z</time>
      </trkpt>
      <trkpt lat="42.41965122520923614501953125" lon="0.6759208627045154571533203125">
        <ele>1198.800048828125</ele>
        <time>2039-05-14T06:44:05.000Z</time>
      </trkpt>
      <trkpt lat="42.41962348110973834991455078125" lon="0.67586503922939300537109375">
        <ele>1199.4000244140625</ele>
        <time>2039-05-14T06:44:08.000Z</time>
      </trkpt>
      <trkpt lat="42.41954418830573558807373046875" lon="0.6757408194243907928466796875">
        <ele>1199.5999755859375</ele>
        <time>2039-05-14T06:44:14.000Z</time>
      </trkpt>
      <trkpt lat="42.41948082111775875091552734375" lon="0.67563562653958797454833984375">
        <ele>1200.199951171875</ele>
        <time>2039-05-14T06:44:20.000Z</time>
      </trkpt>
      <trkpt lat="42.419447042047977447509765625" lon="0.67556538619101047515869140625">
        <ele>1200.4000244140625</ele>
        <time>2039-05-14T06:44:24.000Z</time>
      </trkpt>
      <trkpt lat="42.41943405009806156158447265625" lon="0.675530768930912017822265625">
        <ele>1200.800048828125</ele>
        <time>2039-05-14T06:44:26.000Z</time>
      </trkpt>
      <trkpt lat="42.41942885331809520721435546875" lon="0.67551509477198123931884765625">
        <ele>1201</ele>
        <time>2039-05-14T06:44:27.000Z</time>
      </trkpt>
      <trkpt lat="42.41941116750240325927734375" lon="0.67546807229518890380859375">
        <ele>1201.199951171875</ele>
        <time>2039-05-14T06:44:30.000Z</time>
      </trkpt>
      <trkpt lat="42.41940571926534175872802734375" lon="0.67544854246079921722412109375">
        <ele>1201.199951171875</ele>
        <time>2039-05-14T06:44:31.000Z</time>
      </trkpt>
      <trkpt lat="42.41942348890006542205810546875" lon="0.67534393630921840667724609375">
        <ele>1201.199951171875</ele>
        <time>2039-05-14T06:44:36.000Z</time>
      </trkpt>
      <trkpt lat="42.41941980086266994476318359375" lon="0.67525793798267841339111328125">
        <ele>1201.199951171875</ele>
        <time>2039-05-14T06:44:38.000Z</time>
      </trkpt>
      <trkpt lat="42.41939884610474109649658203125" lon="0.67504403181374073028564453125">
        <ele>1200.800048828125</ele>
        <time>2039-05-14T06:44:42.000Z</time>
      </trkpt>
      <trkpt lat="42.4194073118269443511962890625" lon="0.67484152503311634063720703125">
        <ele>1200.199951171875</ele>
        <time>2039-05-14T06:44:47.000Z</time>
      </trkpt>
      <trkpt lat="42.4194351397454738616943359375" lon="0.67465393804013729095458984375">
        <ele>1199.800048828125</ele>
        <time>2039-05-14T06:44:52.000Z</time>
      </trkpt>
      <trkpt lat="42.41948400624096393585205078125" lon="0.674436092376708984375">
        <ele>1200</ele>
        <time>2039-05-14T06:44:58.000Z</time>
      </trkpt>
      <trkpt lat="42.4195585213601589202880859375" lon="0.6742300651967525482177734375">
        <ele>1200</ele>
        <time>2039-05-14T06:45:04.000Z</time>
      </trkpt>
      <trkpt lat="42.41961526684463024139404296875" lon="0.6741264648735523223876953125">
        <ele>1199.800048828125</ele>
        <time>2039-05-14T06:45:08.000Z</time>
      </trkpt>
      <trkpt lat="42.4196497164666652679443359375" lon="0.67403082735836505889892578125">
        <ele>1199.800048828125</ele>
        <time>2039-05-14T06:45:11.000Z</time>
      </trkpt>
      <trkpt lat="42.4197412468492984771728515625" lon="0.67385472357273101806640625">
        <ele>1199.800048828125</ele>
        <time>2039-05-14T06:45:17.000Z</time>
      </trkpt>
      <trkpt lat="42.41979204118251800537109375" lon="0.673756487667560577392578125">
        <ele>1199.800048828125</ele>
        <time>2039-05-14T06:45:21.000Z</time>
      </trkpt>
      <trkpt lat="42.41995825432240962982177734375" lon="0.67355775274336338043212890625">
        <ele>1199.5999755859375</ele>
        <time>2039-05-14T06:45:30.000Z</time>
      </trkpt>
      <trkpt lat="42.420036792755126953125" lon="0.67341710440814495086669921875">
        <ele>1199.5999755859375</ele>
        <time>2039-05-14T06:45:36.000Z</time>
      </trkpt>
      <trkpt lat="42.42012999951839447021484375" lon="0.67335792817175388336181640625">
        <ele>1199.5999755859375</ele>
        <time>2039-05-14T06:45:41.000Z</time>
      </trkpt>
      <trkpt lat="42.42013880051672458648681640625" lon="0.6731379032135009765625">
        <ele>1199.800048828125</ele>
        <time>2039-05-14T06:45:49.000Z</time>
      </trkpt>
      <trkpt lat="42.42012463510036468505859375" lon="0.6730158627033233642578125">
        <ele>1199.800048828125</ele>
        <time>2039-05-14T06:45:54.000Z</time>
      </trkpt>
      <trkpt lat="42.42008599452674388885498046875" lon="0.6728319637477397918701171875">
        <ele>1199.4000244140625</ele>
        <time>2039-05-14T06:45:59.000Z</time>
      </trkpt>
      <trkpt lat="42.42006269283592700958251953125" lon="0.67267312668263912200927734375">
        <ele>1199.4000244140625</ele>
        <time>2039-05-14T06:46:04.000Z</time>
      </trkpt>
      <trkpt lat="42.420013658702373504638671875" lon="0.672486461699008941650390625">
        <ele>1199.4000244140625</ele>
        <time>2039-05-14T06:46:10.000Z</time>
      </trkpt>
      <trkpt lat="42.4199665524065494537353515625" lon="0.67234254442155361175537109375">
        <ele>1199.199951171875</ele>
        <time>2039-05-14T06:46:14.000Z</time>
      </trkpt>
      <trkpt lat="42.4199407361447811126708984375" lon="0.67225906066596508026123046875">
        <ele>1199</ele>
        <time>2039-05-14T06:46:16.000Z</time>
      </trkpt>
      <trkpt lat="42.419819869101047515869140625" lon="0.67197985947132110595703125">
        <ele>1198.199951171875</ele>
        <time>2039-05-14T06:46:22.000Z</time>
      </trkpt>
      <trkpt lat="42.41980520077049732208251953125" lon="0.67193618975579738616943359375">
        <ele>1198.4000244140625</ele>
        <time>2039-05-14T06:46:23.000Z</time>
      </trkpt>
      <trkpt lat="42.4197563342750072479248046875" lon="0.67162974737584590911865234375">
        <ele>1198</ele>
        <time>2039-05-14T06:46:30.000Z</time>
      </trkpt>
      <trkpt lat="42.41977066732943058013916015625" lon="0.67113722674548625946044921875">
        <ele>1196.800048828125</ele>
        <time>2039-05-14T06:46:36.000Z</time>
      </trkpt>
      <trkpt lat="42.419801093637943267822265625" lon="0.67110906355082988739013671875">
        <ele>1196.5999755859375</ele>
        <time>2039-05-14T06:46:37.000Z</time>
      </trkpt>
      <trkpt lat="42.419810481369495391845703125" lon="0.67110185511410236358642578125">
        <ele>1196</ele>
        <time>2039-05-14T06:46:38.000Z</time>
      </trkpt>
      <trkpt lat="42.41988801397383213043212890625" lon="0.67109649069607257843017578125">
        <ele>1195</ele>
        <time>2039-05-14T06:46:42.000Z</time>
      </trkpt>
      <trkpt lat="42.42012723349034786224365234375" lon="0.6711133383214473724365234375">
        <ele>1195.800048828125</ele>
        <time>2039-05-14T06:46:53.000Z</time>
      </trkpt>
      <trkpt lat="42.4202572368085384368896484375" lon="0.67113362252712249755859375">
        <ele>1196.199951171875</ele>
        <time>2039-05-14T06:47:00.000Z</time>
      </trkpt>
      <trkpt lat="42.4203678779304027557373046875" lon="0.67114745266735553741455078125">
        <ele>1197</ele>
        <time>2039-05-14T06:47:06.000Z</time>
      </trkpt>
      <trkpt lat="42.42040316574275493621826171875" lon="0.67115214653313159942626953125">
        <ele>1197.199951171875</ele>
        <time>2039-05-14T06:47:08.000Z</time>
      </trkpt>
      <trkpt lat="42.42050592787563800811767578125" lon="0.67116312682628631591796875">
        <ele>1197.800048828125</ele>
        <time>2039-05-14T06:47:14.000Z</time>
      </trkpt>
      <trkpt lat="42.42052428424358367919921875" lon="0.67116723395884037017822265625">
        <ele>1198</ele>
        <time>2039-05-14T06:47:15.000Z</time>
      </trkpt>
      <trkpt lat="42.42066501639783382415771484375" lon="0.671198666095733642578125">
        <ele>1198.199951171875</ele>
        <time>2039-05-14T06:47:22.000Z</time>
      </trkpt>
      <trkpt lat="42.42080113850533962249755859375" lon="0.671219117939472198486328125">
        <ele>1198.5999755859375</ele>
        <time>2039-05-14T06:47:29.000Z</time>
      </trkpt>
      <trkpt lat="42.42082066833972930908203125" lon="0.6712162680923938751220703125">
        <ele>1199.199951171875</ele>
        <time>2039-05-14T06:47:30.000Z</time>
      </trkpt>
      <trkpt lat="42.420955114066600799560546875" lon="0.6712001748383045196533203125">
        <ele>1200.199951171875</ele>
        <time>2039-05-14T06:47:37.000Z</time>
      </trkpt>
      <trkpt lat="42.4209730513393878936767578125" lon="0.67118986509740352630615234375">
        <ele>1200.4000244140625</ele>
        <time>2039-05-14T06:47:38.000Z</time>
      </trkpt>
      <trkpt lat="42.42105678655207157135009765625" lon="0.67114309407770633697509765625">
        <ele>1201.199951171875</ele>
        <time>2039-05-14T06:47:43.000Z</time>
      </trkpt>
      <trkpt lat="42.42108754813671112060546875" lon="0.67111996002495288848876953125">
        <ele>1201.4000244140625</ele>
        <time>2039-05-14T06:47:45.000Z</time>
      </trkpt>
      <trkpt lat="42.421211935579776763916015625" lon="0.67101552151143550872802734375">
        <ele>1202.199951171875</ele>
        <time>2039-05-14T06:47:53.000Z</time>
      </trkpt>
      <trkpt lat="42.42122626863420009613037109375" lon="0.67100093699991703033447265625">
        <ele>1202.4000244140625</ele>
        <time>2039-05-14T06:47:54.000Z</time>
      </trkpt>
      <trkpt lat="42.42130740545690059661865234375" lon="0.6709118373692035675048828125">
        <ele>1203.199951171875</ele>
        <time>2039-05-14T06:48:00.000Z</time>
      </trkpt>
      <trkpt lat="42.4213435314595699310302734375" lon="0.670863725244998931884765625">
        <ele>1203.4000244140625</ele>
        <time>2039-05-14T06:48:03.000Z</time>
      </trkpt>
      <trkpt lat="42.4214300327003002166748046875" lon="0.67072718404233455657958984375">
        <ele>1204.4000244140625</ele>
        <time>2039-05-14T06:48:11.000Z</time>
      </trkpt>
      <trkpt lat="42.4214960820972919464111328125" lon="0.67056474275887012481689453125">
        <ele>1204.800048828125</ele>
        <time>2039-05-14T06:48:20.000Z</time>
      </trkpt>
      <trkpt lat="42.421535812318325042724609375" lon="0.6705021299421787261962890625">
        <ele>1205.4000244140625</ele>
        <time>2039-05-14T06:48:23.000Z</time>
      </trkpt>
      <trkpt lat="42.42157579399645328521728515625" lon="0.67038402892649173736572265625">
        <ele>1206</ele>
        <time>2039-05-14T06:48:28.000Z</time>
      </trkpt>
      <trkpt lat="42.42159356363117694854736328125" lon="0.67033591680228710174560546875">
        <ele>1206.4000244140625</ele>
        <time>2039-05-14T06:48:30.000Z</time>
      </trkpt>
      <trkpt lat="42.42166288197040557861328125" lon="0.67022410221397876739501953125">
        <ele>1207</ele>
        <time>2039-05-14T06:48:36.000Z</time>
      </trkpt>
      <trkpt lat="42.4217864312231540679931640625" lon="0.67010088823735713958740234375">
        <ele>1207.199951171875</ele>
        <time>2039-05-14T06:48:45.000Z</time>
      </trkpt>
      <trkpt lat="42.4218142591416835784912109375" lon="0.6700719706714153289794921875">
        <ele>1207.5999755859375</ele>
        <time>2039-05-14T06:48:47.000Z</time>
      </trkpt>
      <trkpt lat="42.4218923784792423248291015625" lon="0.66998689435422420501708984375">
        <ele>1208.5999755859375</ele>
        <time>2039-05-14T06:48:53.000Z</time>
      </trkpt>
      <trkpt lat="42.42191878147423267364501953125" lon="0.66995889879763126373291015625">
        <ele>1208.5999755859375</ele>
        <time>2039-05-14T06:48:55.000Z</time>
      </trkpt>
      <trkpt lat="42.42199757136404514312744140625" lon="0.66986896097660064697265625">
        <ele>1209.5999755859375</ele>
        <time>2039-05-14T06:49:01.000Z</time>
      </trkpt>
      <trkpt lat="42.42202405817806720733642578125" lon="0.66984188742935657501220703125">
        <ele>1209.800048828125</ele>
        <time>2039-05-14T06:49:03.000Z</time>
      </trkpt>
      <trkpt lat="42.4221220426261425018310546875" lon="0.66967341117560863494873046875">
        <ele>1210.4000244140625</ele>
        <time>2039-05-14T06:49:12.000Z</time>
      </trkpt>
      <trkpt lat="42.42214458994567394256591796875" lon="0.66963904537260532379150390625">
        <ele>1210.5999755859375</ele>
        <time>2039-05-14T06:49:14.000Z</time>
      </trkpt>
      <trkpt lat="42.4221973121166229248046875" lon="0.6695563159883022308349609375">
        <ele>1211</ele>
        <time>2039-05-14T06:49:19.000Z</time>
      </trkpt>
      <trkpt lat="42.422224469482898712158203125" lon="0.6694282405078411102294921875">
        <ele>1211.5999755859375</ele>
        <time>2039-05-14T06:49:25.000Z</time>
      </trkpt>
      <trkpt lat="42.42222522385418415069580078125" lon="0.6694044359028339385986328125">
        <ele>1211.5999755859375</ele>
        <time>2039-05-14T06:49:26.000Z</time>
      </trkpt>
      <trkpt lat="42.42222924716770648956298828125" lon="0.6692220456898212432861328125">
        <ele>1213</ele>
        <time>2039-05-14T06:49:34.000Z</time>
      </trkpt>
      <trkpt lat="42.4221919476985931396484375" lon="0.66901543177664279937744140625">
        <ele>1213.199951171875</ele>
        <time>2039-05-14T06:49:43.000Z</time>
      </trkpt>
      <trkpt lat="42.42216722108423709869384765625" lon="0.66892708651721477508544921875">
        <ele>1213.800048828125</ele>
        <time>2039-05-14T06:49:47.000Z</time>
      </trkpt>
      <trkpt lat="42.42211642675101757049560546875" lon="0.6687851808965206146240234375">
        <ele>1214.5999755859375</ele>
        <time>2039-05-14T06:49:54.000Z</time>
      </trkpt>
      <trkpt lat="42.4221061170101165771484375" lon="0.6687684170901775360107421875">
        <ele>1214.800048828125</ele>
        <time>2039-05-14T06:49:55.000Z</time>
      </trkpt>
      <trkpt lat="42.42202556692063808441162109375" lon="0.66866054199635982513427734375">
        <ele>1215.5999755859375</ele>
        <time>2039-05-14T06:50:02.000Z</time>
      </trkpt>
      <trkpt lat="42.4220117367804050445556640625" lon="0.66864788532257080078125">
        <ele>1215.800048828125</ele>
        <time>2039-05-14T06:50:03.000Z</time>
      </trkpt>
      <trkpt lat="42.4218984134495258331298828125" lon="0.66856004297733306884765625">
        <ele>1216.5999755859375</ele>
        <time>2039-05-14T06:50:11.000Z</time>
      </trkpt>
      <trkpt lat="42.4218846671283245086669921875" lon="0.66854931414127349853515625">
        <ele>1216.800048828125</ele>
        <time>2039-05-14T06:50:12.000Z</time>
      </trkpt>
      <trkpt lat="42.42180093191564083099365234375" lon="0.66847496666014194488525390625">
        <ele>1217.5999755859375</ele>
        <time>2039-05-14T06:50:18.000Z</time>
      </trkpt>
      <trkpt lat="42.421649806201457977294921875" lon="0.6684254296123981475830078125">
        <ele>1218.5999755859375</ele>
        <time>2039-05-14T06:50:27.000Z</time>
      </trkpt>
      <trkpt lat="42.42161736823618412017822265625" lon="0.66841780208051204681396484375">
        <ele>1218.800048828125</ele>
        <time>2039-05-14T06:50:29.000Z</time>
      </trkpt>
      <trkpt lat="42.42153170518577098846435546875" lon="0.66840522922575473785400390625">
        <ele>1219.199951171875</ele>
        <time>2039-05-14T06:50:34.000Z</time>
      </trkpt>
      <trkpt lat="42.4214099161326885223388671875" lon="0.66840355284512042999267578125">
        <ele>1219.5999755859375</ele>
        <time>2039-05-14T06:50:41.000Z</time>
      </trkpt>
      <trkpt lat="42.4213747121393680572509765625" lon="0.6684130243957042694091796875">
        <ele>1219.800048828125</ele>
        <time>2039-05-14T06:50:43.000Z</time>
      </trkpt>
      <trkpt lat="42.42132215760648250579833984375" lon="0.66841109655797481536865234375">
        <ele>1220.199951171875</ele>
        <time>2039-05-14T06:50:46.000Z</time>
      </trkpt>
      <trkpt lat="42.42128779180347919464111328125" lon="0.66840874962508678436279296875">
        <ele>1220.5999755859375</ele>
        <time>2039-05-14T06:50:48.000Z</time>
      </trkpt>
      <trkpt lat="42.42125208489596843719482421875" lon="0.6684046424925327301025390625">
        <ele>1220.5999755859375</ele>
        <time>2039-05-14T06:50:50.000Z</time>
      </trkpt>
      <trkpt lat="42.42113071493804454803466796875" lon="0.66838779486715793609619140625">
        <ele>1221</ele>
        <time>2039-05-14T06:50:57.000Z</time>
      </trkpt>
      <trkpt lat="42.421006076037883758544921875" lon="0.66836331970989704132080078125">
        <ele>1221.5999755859375</ele>
        <time>2039-05-14T06:51:04.000Z</time>
      </trkpt>
      <trkpt lat="42.42082075215876102447509765625" lon="0.6682936660945415496826171875">
        <ele>1222.5999755859375</ele>
        <time>2039-05-14T06:51:15.000Z</time>
      </trkpt>
      <trkpt lat="42.42078672163188457489013671875" lon="0.66827899776399135589599609375">
        <ele>1222.800048828125</ele>
        <time>2039-05-14T06:51:17.000Z</time>
      </trkpt>
      <trkpt lat="42.42066250182688236236572265625" lon="0.66821361891925334930419921875">
        <ele>1223.199951171875</ele>
        <time>2039-05-14T06:51:24.000Z</time>
      </trkpt>
      <trkpt lat="42.42047742940485477447509765625" lon="0.66803894005715847015380859375">
        <ele>1222</ele>
        <time>2039-05-14T06:51:31.000Z</time>
      </trkpt>
      <trkpt lat="42.42037944495677947998046875" lon="0.66794673912227153778076171875">
        <ele>1221.4000244140625</ele>
        <time>2039-05-14T06:51:34.000Z</time>
      </trkpt>
      <trkpt lat="42.42024608887732028961181640625" lon="0.66781128756701946258544921875">
        <ele>1221.199951171875</ele>
        <time>2039-05-14T06:51:38.000Z</time>
      </trkpt>
      <trkpt lat="42.42018221877515316009521484375" lon="0.66773517988622188568115234375">
        <ele>1220.4000244140625</ele>
        <time>2039-05-14T06:51:40.000Z</time>
      </trkpt>
      <trkpt lat="42.42006696760654449462890625" lon="0.6675594113767147064208984375">
        <ele>1219.199951171875</ele>
        <time>2039-05-14T06:51:44.000Z</time>
      </trkpt>
      <trkpt lat="42.42004416882991790771484375" lon="0.6675188429653644561767578125">
        <ele>1219.199951171875</ele>
        <time>2039-05-14T06:51:45.000Z</time>
      </trkpt>
      <trkpt lat="42.4199518002569675445556640625" lon="0.66733452491462230682373046875">
        <ele>1217.800048828125</ele>
        <time>2039-05-14T06:51:49.000Z</time>
      </trkpt>
      <trkpt lat="42.4199018441140651702880859375" lon="0.66724441945552825927734375">
        <ele>1217.199951171875</ele>
        <time>2039-05-14T06:51:51.000Z</time>
      </trkpt>
      <trkpt lat="42.41985482163727283477783203125" lon="0.6671584211289882659912109375">
        <ele>1216.199951171875</ele>
        <time>2039-05-14T06:51:53.000Z</time>
      </trkpt>
      <trkpt lat="42.4197492934763431549072265625" lon="0.66699841059744358062744140625">
        <ele>1214.5999755859375</ele>
        <time>2039-05-14T06:51:57.000Z</time>
      </trkpt>
      <trkpt lat="42.41969774477183818817138671875" lon="0.66691693849861621856689453125">
        <ele>1212.800048828125</ele>
        <time>2039-05-14T06:51:59.000Z</time>
      </trkpt>
      <trkpt lat="42.41962381638586521148681640625" lon="0.66679783165454864501953125">
        <ele>1211.800048828125</ele>
        <time>2039-05-14T06:52:02.000Z</time>
      </trkpt>
      <trkpt lat="42.41958810947835445404052734375" lon="0.666717700660228729248046875">
        <ele>1210.800048828125</ele>
        <time>2039-05-14T06:52:04.000Z</time>
      </trkpt>
      <trkpt lat="42.419577129185199737548828125" lon="0.6666752882301807403564453125">
        <ele>1210.4000244140625</ele>
        <time>2039-05-14T06:52:05.000Z</time>
      </trkpt>
      <trkpt lat="42.41960026323795318603515625" lon="0.66656003706157207489013671875">
        <ele>1209.199951171875</ele>
        <time>2039-05-14T06:52:08.000Z</time>
      </trkpt>
      <trkpt lat="42.41967670619487762451171875" lon="0.66647672094404697418212890625">
        <ele>1208</ele>
        <time>2039-05-14T06:52:11.000Z</time>
      </trkpt>
      <trkpt lat="42.41973797790706157684326171875" lon="0.6664389185607433319091796875">
        <ele>1207.199951171875</ele>
        <time>2039-05-14T06:52:13.000Z</time>
      </trkpt>
      <trkpt lat="42.41976647637784481048583984375" lon="0.66642743535339832305908203125">
        <ele>1206.800048828125</ele>
        <time>2039-05-14T06:52:14.000Z</time>
      </trkpt>
      <trkpt lat="42.41983353160321712493896484375" lon="0.66641964018344879150390625">
        <ele>1205.5999755859375</ele>
        <time>2039-05-14T06:52:17.000Z</time>
      </trkpt>
      <trkpt lat="42.4199310131371021270751953125" lon="0.666432715952396392822265625">
        <ele>1204.4000244140625</ele>
        <time>2039-05-14T06:52:22.000Z</time>
      </trkpt>
      <trkpt lat="42.4199611879885196685791015625" lon="0.66643330268561840057373046875">
        <ele>1204.5999755859375</ele>
        <time>2039-05-14T06:52:24.000Z</time>
      </trkpt>
      <trkpt lat="42.420001924037933349609375" lon="0.66644822247326374053955078125">
        <ele>1204.800048828125</ele>
        <time>2039-05-14T06:52:27.000Z</time>
      </trkpt>
      <trkpt lat="42.4200139939785003662109375" lon="0.66645291633903980255126953125">
        <ele>1205</ele>
        <time>2039-05-14T06:52:28.000Z</time>
      </trkpt>
      <trkpt lat="42.42004861123859882354736328125" lon="0.66646481864154338836669921875">
        <ele>1205.5999755859375</ele>
        <time>2039-05-14T06:52:31.000Z</time>
      </trkpt>
      <trkpt lat="42.42007761262357234954833984375" lon="0.66647051833570003509521484375">
        <ele>1206.199951171875</ele>
        <time>2039-05-14T06:52:33.000Z</time>
      </trkpt>
      <trkpt lat="42.42009655572474002838134765625" lon="0.66647001542150974273681640625">
        <ele>1206.4000244140625</ele>
        <time>2039-05-14T06:52:34.000Z</time>
      </trkpt>
      <trkpt lat="42.42019571363925933837890625" lon="0.6664533354341983795166015625">
        <ele>1206.199951171875</ele>
        <time>2039-05-14T06:52:40.000Z</time>
      </trkpt>
      <trkpt lat="42.4202448315918445587158203125" lon="0.66645660437643527984619140625">
        <ele>1206.4000244140625</ele>
        <time>2039-05-14T06:52:44.000Z</time>
      </trkpt>
      <trkpt lat="42.42027022875845432281494140625" lon="0.66646448336541652679443359375">
        <ele>1206.4000244140625</ele>
        <time>2039-05-14T06:52:46.000Z</time>
      </trkpt>
      <trkpt lat="42.42033761925995349884033203125" lon="0.66648594103753566741943359375">
        <ele>1206.5999755859375</ele>
        <time>2039-05-14T06:52:51.000Z</time>
      </trkpt>
      <trkpt lat="42.420367710292339324951171875" lon="0.66648007370531558990478515625">
        <ele>1206.5999755859375</ele>
        <time>2039-05-14T06:52:52.000Z</time>
      </trkpt>
      <trkpt lat="42.4204845540225505828857421875" lon="0.6665116734802722930908203125">
        <ele>1207.199951171875</ele>
        <time>2039-05-14T06:52:58.000Z</time>
      </trkpt>
      <trkpt lat="42.4205935187637805938720703125" lon="0.6665716879069805145263671875">
        <ele>1207.800048828125</ele>
        <time>2039-05-14T06:53:03.000Z</time>
      </trkpt>
      <trkpt lat="42.4206159822642803192138671875" lon="0.66658149473369121551513671875">
        <ele>1207.800048828125</ele>
        <time>2039-05-14T06:53:04.000Z</time>
      </trkpt>
      <trkpt lat="42.4207410402595996856689453125" lon="0.66663161851465702056884765625">
        <ele>1208.4000244140625</ele>
        <time>2039-05-14T06:53:11.000Z</time>
      </trkpt>
      <trkpt lat="42.4208749830722808837890625" lon="0.66668258048593997955322265625">
        <ele>1208.199951171875</ele>
        <time>2039-05-14T06:53:16.000Z</time>
      </trkpt>
      <trkpt lat="42.42112250067293643951416015625" lon="0.66672784276306629180908203125">
        <ele>1207</ele>
        <time>2039-05-14T06:53:23.000Z</time>
      </trkpt>
      <trkpt lat="42.42119156755506992340087890625" lon="0.6667145155370235443115234375">
        <ele>1206.5999755859375</ele>
        <time>2039-05-14T06:53:25.000Z</time>
      </trkpt>
      <trkpt lat="42.421312518417835235595703125" lon="0.6666719354689121246337890625">
        <ele>1206.199951171875</ele>
        <time>2039-05-14T06:53:29.000Z</time>
      </trkpt>
      <trkpt lat="42.42136758752167224884033203125" lon="0.6666548363864421844482421875">
        <ele>1205.4000244140625</ele>
        <time>2039-05-14T06:53:31.000Z</time>
      </trkpt>
      <trkpt lat="42.42149566300213336944580078125" lon="0.66659758798778057098388671875">
        <ele>1204.5999755859375</ele>
        <time>2039-05-14T06:53:35.000Z</time>
      </trkpt>
      <trkpt lat="42.42157847620546817779541015625" lon="0.6665490567684173583984375">
        <ele>1204.199951171875</ele>
        <time>2039-05-14T06:53:37.000Z</time>
      </trkpt>
      <trkpt lat="42.42174334824085235595703125" lon="0.666519217193126678466796875">
        <ele>1203.4000244140625</ele>
        <time>2039-05-14T06:53:41.000Z</time>
      </trkpt>
      <trkpt lat="42.42193303070962429046630859375" lon="0.66656758077442646026611328125">
        <ele>1203.4000244140625</ele>
        <time>2039-05-14T06:53:46.000Z</time>
      </trkpt>
      <trkpt lat="42.422005869448184967041015625" lon="0.66658384166657924652099609375">
        <ele>1203</ele>
        <time>2039-05-14T06:53:48.000Z</time>
      </trkpt>
      <trkpt lat="42.42218784056603908538818359375" lon="0.6666055507957935333251953125">
        <ele>1203</ele>
        <time>2039-05-14T06:53:53.000Z</time>
      </trkpt>
      <trkpt lat="42.42236352525651454925537109375" lon="0.6665861047804355621337890625">
        <ele>1203</ele>
        <time>2039-05-14T06:53:59.000Z</time>
      </trkpt>
      <trkpt lat="42.4225367791950702667236328125" lon="0.66653002984821796417236328125">
        <ele>1203.4000244140625</ele>
        <time>2039-05-14T06:54:07.000Z</time>
      </trkpt>
      <trkpt lat="42.42272076196968555450439453125" lon="0.6665093265473842620849609375">
        <ele>1204</ele>
        <time>2039-05-14T06:54:15.000Z</time>
      </trkpt>
      <trkpt lat="42.4228814430534839630126953125" lon="0.6665398366749286651611328125">
        <ele>1204.800048828125</ele>
        <time>2039-05-14T06:54:22.000Z</time>
      </trkpt>
      <trkpt lat="42.42292393930256366729736328125" lon="0.66654109396040439605712890625">
        <ele>1205.199951171875</ele>
        <time>2039-05-14T06:54:24.000Z</time>
      </trkpt>
      <trkpt lat="42.42307129316031932830810546875" lon="0.66653170622885227203369140625">
        <ele>1205.800048828125</ele>
        <time>2039-05-14T06:54:30.000Z</time>
      </trkpt>
      <trkpt lat="42.42326944135129451751708984375" lon="0.666552074253559112548828125">
        <ele>1205.800048828125</ele>
        <time>2039-05-14T06:54:38.000Z</time>
      </trkpt>
      <trkpt lat="42.4234990216791629791259765625" lon="0.6665381602942943572998046875">
        <ele>1205.5999755859375</ele>
        <time>2039-05-14T06:54:47.000Z</time>
      </trkpt>
      <trkpt lat="42.4235962517559528350830078125" lon="0.6665034592151641845703125">
        <ele>1206.199951171875</ele>
        <time>2039-05-14T06:54:51.000Z</time>
      </trkpt>
      <trkpt lat="42.42368099279701709747314453125" lon="0.66644403152167797088623046875">
        <ele>1206.5999755859375</ele>
        <time>2039-05-14T06:54:55.000Z</time>
      </trkpt>
      <trkpt lat="42.42373916320502758026123046875" lon="0.66639239899814128875732421875">
        <ele>1207</ele>
        <time>2039-05-14T06:54:58.000Z</time>
      </trkpt>
      <trkpt lat="42.42381392978131771087646484375" lon="0.6662913970649242401123046875">
        <ele>1208</ele>
        <time>2039-05-14T06:55:03.000Z</time>
      </trkpt>
      <trkpt lat="42.4238265864551067352294921875" lon="0.666268430650234222412109375">
        <ele>1208.199951171875</ele>
        <time>2039-05-14T06:55:04.000Z</time>
      </trkpt>
      <trkpt lat="42.42392121814191341400146484375" lon="0.66609769128262996673583984375">
        <ele>1208.5999755859375</ele>
        <time>2039-05-14T06:55:11.000Z</time>
      </trkpt>
      <trkpt lat="42.42399984039366245269775390625" lon="0.66589836962521076202392578125">
        <ele>1209.4000244140625</ele>
        <time>2039-05-14T06:55:18.000Z</time>
      </trkpt>
      <trkpt lat="42.42402859032154083251953125" lon="0.66580465994775295257568359375">
        <ele>1209.4000244140625</ele>
        <time>2039-05-14T06:55:21.000Z</time>
      </trkpt>
      <trkpt lat="42.4240775406360626220703125" lon="0.66550592891871929168701171875">
        <ele>1209.4000244140625</ele>
        <time>2039-05-14T06:55:30.000Z</time>
      </trkpt>
      <trkpt lat="42.42406572215259075164794921875" lon="0.66520015709102153778076171875">
        <ele>1209.5999755859375</ele>
        <time>2039-05-14T06:55:38.000Z</time>
      </trkpt>
      <trkpt lat="42.42401115596294403076171875" lon="0.66498021595180034637451171875">
        <ele>1209</ele>
        <time>2039-05-14T06:55:44.000Z</time>
      </trkpt>
      <trkpt lat="42.423882745206356048583984375" lon="0.66481140442192554473876953125">
        <ele>1208.4000244140625</ele>
        <time>2039-05-14T06:55:49.000Z</time>
      </trkpt>
      <trkpt lat="42.423853240907192230224609375" lon="0.66476915962994098663330078125">
        <ele>1208</ele>
        <time>2039-05-14T06:55:50.000Z</time>
      </trkpt>
      <trkpt lat="42.42377780377864837646484375" lon="0.664577297866344451904296875">
        <ele>1207.199951171875</ele>
        <time>2039-05-14T06:55:54.000Z</time>
      </trkpt>
      <trkpt lat="42.42375978268682956695556640625" lon="0.664474703371524810791015625">
        <ele>1207</ele>
        <time>2039-05-14T06:55:56.000Z</time>
      </trkpt>
      <trkpt lat="42.42375575937330722808837890625" lon="0.66430144943296909332275390625">
        <ele>1206.5999755859375</ele>
        <time>2039-05-14T06:55:59.000Z</time>
      </trkpt>
      <trkpt lat="42.423762381076812744140625" lon="0.6642385013401508331298828125">
        <ele>1206.4000244140625</ele>
        <time>2039-05-14T06:56:00.000Z</time>
      </trkpt>
      <trkpt lat="42.4237903766334056854248046875" lon="0.66412073560059070587158203125">
        <ele>1205.800048828125</ele>
        <time>2039-05-14T06:56:02.000Z</time>
      </trkpt>
      <trkpt lat="42.4238212220370769500732421875" lon="0.66401311196386814117431640625">
        <ele>1205.5999755859375</ele>
        <time>2039-05-14T06:56:04.000Z</time>
      </trkpt>
      <trkpt lat="42.423885762691497802734375" lon="0.66384530626237392425537109375">
        <ele>1206</ele>
        <time>2039-05-14T06:56:09.000Z</time>
      </trkpt>
      <trkpt lat="42.4239677377045154571533203125" lon="0.6636038236320018768310546875">
        <ele>1206.5999755859375</ele>
        <time>2039-05-14T06:56:17.000Z</time>
      </trkpt>
      <trkpt lat="42.4240790493786334991455078125" lon="0.663253627717494964599609375">
        <ele>1206</ele>
        <time>2039-05-14T06:56:25.000Z</time>
      </trkpt>
      <trkpt lat="42.42416362278163433074951171875" lon="0.6629885919392108917236328125">
        <ele>1206</ele>
        <time>2039-05-14T06:56:32.000Z</time>
      </trkpt>
      <trkpt lat="42.42425733245909214019775390625" lon="0.6626684032380580902099609375">
        <ele>1205.4000244140625</ele>
        <time>2039-05-14T06:56:40.000Z</time>
      </trkpt>
      <trkpt lat="42.42433436214923858642578125" lon="0.66239557228982448577880859375">
        <ele>1204.4000244140625</ele>
        <time>2039-05-14T06:56:45.000Z</time>
      </trkpt>
      <trkpt lat="42.4244052730500698089599609375" lon="0.66217177547514438629150390625">
        <ele>1204</ele>
        <time>2039-05-14T06:56:49.000Z</time>
      </trkpt>
      <trkpt lat="42.4245174229145050048828125" lon="0.6618727929890155792236328125">
        <ele>1204.4000244140625</ele>
        <time>2039-05-14T06:56:56.000Z</time>
      </trkpt>
      <trkpt lat="42.42468212731182575225830078125" lon="0.66148437559604644775390625">
        <ele>1205</ele>
        <time>2039-05-14T06:57:07.000Z</time>
      </trkpt>
      <trkpt lat="42.42473158054053783416748046875" lon="0.66138421185314655303955078125">
        <ele>1205.4000244140625</ele>
        <time>2039-05-14T06:57:10.000Z</time>
      </trkpt>
      <trkpt lat="42.42483736015856266021728515625" lon="0.66122311167418956756591796875">
        <ele>1205.4000244140625</ele>
        <time>2039-05-14T06:57:15.000Z</time>
      </trkpt>
      <trkpt lat="42.42501203902065753936767578125" lon="0.66109235398471355438232421875">
        <ele>1204.800048828125</ele>
        <time>2039-05-14T06:57:22.000Z</time>
      </trkpt>
      <trkpt lat="42.42513810284435749053955078125" lon="0.6611444056034088134765625">
        <ele>1205</ele>
        <time>2039-05-14T06:57:27.000Z</time>
      </trkpt>
      <trkpt lat="42.42525058798491954803466796875" lon="0.6613115407526493072509765625">
        <ele>1205.800048828125</ele>
        <time>2039-05-14T06:57:33.000Z</time>
      </trkpt>
      <trkpt lat="42.42527221329510211944580078125" lon="0.6615311466157436370849609375">
        <ele>1205.800048828125</ele>
        <time>2039-05-14T06:57:39.000Z</time>
      </trkpt>
      <trkpt lat="42.4252595566213130950927734375" lon="0.66160884685814380645751953125">
        <ele>1206</ele>
        <time>2039-05-14T06:57:41.000Z</time>
      </trkpt>
      <trkpt lat="42.42521840147674083709716796875" lon="0.6617903150618076324462890625">
        <ele>1206.199951171875</ele>
        <time>2039-05-14T06:57:46.000Z</time>
      </trkpt>
      <trkpt lat="42.4252094328403472900390625" lon="0.66182577051222324371337890625">
        <ele>1206.4000244140625</ele>
        <time>2039-05-14T06:57:47.000Z</time>
      </trkpt>
      <trkpt lat="42.42512284778058528900146484375" lon="0.66222458146512508392333984375">
        <ele>1206.4000244140625</ele>
        <time>2039-05-14T06:57:58.000Z</time>
      </trkpt>
      <trkpt lat="42.42506886832416057586669921875" lon="0.66256262362003326416015625">
        <ele>1206.199951171875</ele>
        <time>2039-05-14T06:58:07.000Z</time>
      </trkpt>
      <trkpt lat="42.4250449799001216888427734375" lon="0.66291038878262042999267578125">
        <ele>1206.199951171875</ele>
        <time>2039-05-14T06:58:16.000Z</time>
      </trkpt>
      <trkpt lat="42.4250436387956142425537109375" lon="0.66316721029579639434814453125">
        <ele>1206</ele>
        <time>2039-05-14T06:58:23.000Z</time>
      </trkpt>
      <trkpt lat="42.42507641203701496124267578125" lon="0.66346745006740093231201171875">
        <ele>1206</ele>
        <time>2039-05-14T06:58:32.000Z</time>
      </trkpt>
      <trkpt lat="42.42517649196088314056396484375" lon="0.663785040378570556640625">
        <ele>1206.5999755859375</ele>
        <time>2039-05-14T06:58:42.000Z</time>
      </trkpt>
      <trkpt lat="42.42521957494318485260009765625" lon="0.66387363709509372711181640625">
        <ele>1207.199951171875</ele>
        <time>2039-05-14T06:58:45.000Z</time>
      </trkpt>
      <trkpt lat="42.42529434151947498321533203125" lon="0.66400707699358463287353515625">
        <ele>1207.5999755859375</ele>
        <time>2039-05-14T06:58:50.000Z</time>
      </trkpt>
      <trkpt lat="42.42540531791746616363525390625" lon="0.66416868008673191070556640625">
        <ele>1208</ele>
        <time>2039-05-14T06:58:57.000Z</time>
      </trkpt>
      <trkpt lat="42.4254858680069446563720703125" lon="0.66423833370208740234375">
        <ele>1208.4000244140625</ele>
        <time>2039-05-14T06:59:01.000Z</time>
      </trkpt>
      <trkpt lat="42.425526268780231475830078125" lon="0.664261467754840850830078125">
        <ele>1208.5999755859375</ele>
        <time>2039-05-14T06:59:03.000Z</time>
      </trkpt>
      <trkpt lat="42.42568342946469783782958984375" lon="0.664303041994571685791015625">
        <ele>1209.4000244140625</ele>
        <time>2039-05-14T06:59:10.000Z</time>
      </trkpt>
      <trkpt lat="42.42591418325901031494140625" lon="0.66434134729206562042236328125">
        <ele>1209.5999755859375</ele>
        <time>2039-05-14T06:59:20.000Z</time>
      </trkpt>
      <trkpt lat="42.4261010996997356414794921875" lon="0.664261467754840850830078125">
        <ele>1210.4000244140625</ele>
        <time>2039-05-14T06:59:28.000Z</time>
      </trkpt>
      <trkpt lat="42.4262539856135845184326171875" lon="0.664147473871707916259765625">
        <ele>1210</ele>
        <time>2039-05-14T06:59:34.000Z</time>
      </trkpt>
      <trkpt lat="42.4264759384095668792724609375" lon="0.66396265290677547454833984375">
        <ele>1209</ele>
        <time>2039-05-14T06:59:40.000Z</time>
      </trkpt>
      <trkpt lat="42.42657677270472049713134765625" lon="0.66390263848006725311279296875">
        <ele>1208.5999755859375</ele>
        <time>2039-05-14T06:59:42.000Z</time>
      </trkpt>
      <trkpt lat="42.42662991397082805633544921875" lon="0.6638864614069461822509765625">
        <ele>1208</ele>
        <time>2039-05-14T06:59:43.000Z</time>
      </trkpt>
      <trkpt lat="42.4266817979514598846435546875" lon="0.66388235427439212799072265625">
        <ele>1207.4000244140625</ele>
        <time>2039-05-14T06:59:44.000Z</time>
      </trkpt>
      <trkpt lat="42.42686946876347064971923828125" lon="0.66395603120326995849609375">
        <ele>1206.5999755859375</ele>
        <time>2039-05-14T06:59:48.000Z</time>
      </trkpt>
      <trkpt lat="42.4269909225404262542724609375" lon="0.664166919887065887451171875">
        <ele>1206.5999755859375</ele>
        <time>2039-05-14T06:59:52.000Z</time>
      </trkpt>
      <trkpt lat="42.42707147262990474700927734375" lon="0.6643843464553356170654296875">
        <ele>1205.5999755859375</ele>
        <time>2039-05-14T06:59:55.000Z</time>
      </trkpt>
      <trkpt lat="42.4271352589130401611328125" lon="0.66454100422561168670654296875">
        <ele>1204.4000244140625</ele>
        <time>2039-05-14T06:59:57.000Z</time>
      </trkpt>
      <trkpt lat="42.427168451249599456787109375" lon="0.66461694426834583282470703125">
        <ele>1204.199951171875</ele>
        <time>2039-05-14T06:59:58.000Z</time>
      </trkpt>
      <trkpt lat="42.4272604845464229583740234375" lon="0.6648463569581508636474609375">
        <ele>1203.199951171875</ele>
        <time>2039-05-14T07:00:01.000Z</time>
      </trkpt>
      <trkpt lat="42.4273211695253849029541015625" lon="0.665021203458309173583984375">
        <ele>1203</ele>
        <time>2039-05-14T07:00:04.000Z</time>
      </trkpt>
      <trkpt lat="42.4273391067981719970703125" lon="0.6651038490235805511474609375">
        <ele>1204.199951171875</ele>
        <time>2039-05-14T07:00:07.000Z</time>
      </trkpt>
      <trkpt lat="42.427344135940074920654296875" lon="0.66512606106698513031005859375">
        <ele>1204.800048828125</ele>
        <time>2039-05-14T07:00:08.000Z</time>
      </trkpt>
      <trkpt lat="42.42737037129700183868408203125" lon="0.6651789508759975433349609375">
        <ele>1205.5999755859375</ele>
        <time>2039-05-14T07:00:11.000Z</time>
      </trkpt>
      <trkpt lat="42.427388392388820648193359375" lon="0.66524215042591094970703125">
        <ele>1206.199951171875</ele>
        <time>2039-05-14T07:00:14.000Z</time>
      </trkpt>
      <trkpt lat="42.42739350534975528717041015625" lon="0.66526033915579319000244140625">
        <ele>1206.5999755859375</ele>
        <time>2039-05-14T07:00:15.000Z</time>
      </trkpt>
      <trkpt lat="42.42741487920284271240234375" lon="0.66531565971672534942626953125">
        <ele>1207.5999755859375</ele>
        <time>2039-05-14T07:00:18.000Z</time>
      </trkpt>
      <trkpt lat="42.42743189446628093719482421875" lon="0.6653702259063720703125">
        <ele>1208.800048828125</ele>
        <time>2039-05-14T07:00:21.000Z</time>
      </trkpt>
      <trkpt lat="42.4274489097297191619873046875" lon="0.66543987952172756195068359375">
        <ele>1209.800048828125</ele>
        <time>2039-05-14T07:00:25.000Z</time>
      </trkpt>
      <trkpt lat="42.42746156640350818634033203125" lon="0.66549285314977169036865234375">
        <ele>1210.4000244140625</ele>
        <time>2039-05-14T07:00:28.000Z</time>
      </trkpt>
      <trkpt lat="42.4274603091180324554443359375" lon="0.66551162861287593841552734375">
        <ele>1210.800048828125</ele>
        <time>2039-05-14T07:00:29.000Z</time>
      </trkpt>
      <trkpt lat="42.427454106509685516357421875" lon="0.66556007601320743560791015625">
        <ele>1211.4000244140625</ele>
        <time>2039-05-14T07:00:33.000Z</time>
      </trkpt>
      <trkpt lat="42.42745636962354183197021484375" lon="0.66556376405060291290283203125">
        <ele>1211.800048828125</ele>
        <time>2039-05-14T07:00:37.000Z</time>
      </trkpt>
      <trkpt lat="42.42745502851903438568115234375" lon="0.66556426696479320526123046875">
        <ele>1211.5999755859375</ele>
        <time>2039-05-14T07:00:43.000Z</time>
      </trkpt>
      <trkpt lat="42.42749802768230438232421875" lon="0.66559083759784698486328125">
        <ele>1212</ele>
        <time>2039-05-14T07:29:33.000Z</time>
      </trkpt>
      <trkpt lat="42.42761872708797454833984375" lon="0.6655873171985149383544921875">
        <ele>1213</ele>
        <time>2039-05-14T07:29:41.000Z</time>
      </trkpt>
      <trkpt lat="42.42771402932703495025634765625" lon="0.6655564717948436737060546875">
        <ele>1213</ele>
        <time>2039-05-14T07:29:47.000Z</time>
      </trkpt>
      <trkpt lat="42.42775275371968746185302734375" lon="0.66552269272506237030029296875">
        <ele>1213.199951171875</ele>
        <time>2039-05-14T07:29:50.000Z</time>
      </trkpt>
      <trkpt lat="42.4278257600963115692138671875" lon="0.66547307185828685760498046875">
        <ele>1213.800048828125</ele>
        <time>2039-05-14T07:29:55.000Z</time>
      </trkpt>
      <trkpt lat="42.427856437861919403076171875" lon="0.6654454953968524932861328125">
        <ele>1214</ele>
        <time>2039-05-14T07:29:57.000Z</time>
      </trkpt>
      <trkpt lat="42.42788963019847869873046875" lon="0.66542462445795536041259765625">
        <ele>1214.199951171875</ele>
        <time>2039-05-14T07:29:59.000Z</time>
      </trkpt>
      <trkpt lat="42.42791645228862762451171875" lon="0.665403418242931365966796875">
        <ele>1214.5999755859375</ele>
        <time>2039-05-14T07:30:01.000Z</time>
      </trkpt>
      <trkpt lat="42.42795936763286590576171875" lon="0.6653482653200626373291015625">
        <ele>1215.4000244140625</ele>
        <time>2039-05-14T07:30:07.000Z</time>
      </trkpt>
      <trkpt lat="42.42795743979513645172119140625" lon="0.6653311662375926971435546875">
        <ele>1215.4000244140625</ele>
        <time>2039-05-14T07:30:08.000Z</time>
      </trkpt>
      <trkpt lat="42.4279836751520633697509765625" lon="0.66525958478450775146484375">
        <ele>1215.5999755859375</ele>
        <time>2039-05-14T07:30:12.000Z</time>
      </trkpt>
      <trkpt lat="42.42799582891166210174560546875" lon="0.66524525173008441925048828125">
        <ele>1215.800048828125</ele>
        <time>2039-05-14T07:30:13.000Z</time>
      </trkpt>
      <trkpt lat="42.42802918888628482818603515625" lon="0.66518322564661502838134765625">
        <ele>1216.4000244140625</ele>
        <time>2039-05-14T07:30:17.000Z</time>
      </trkpt>
      <trkpt lat="42.42805584333837032318115234375" lon="0.66513746045529842376708984375">
        <ele>1216.800048828125</ele>
        <time>2039-05-14T07:30:20.000Z</time>
      </trkpt>
      <trkpt lat="42.4280664883553981781005859375" lon="0.66505900584161281585693359375">
        <ele>1217.5999755859375</ele>
        <time>2039-05-14T07:30:24.000Z</time>
      </trkpt>
      <trkpt lat="42.4280715174973011016845703125" lon="0.66497954539954662322998046875">
        <ele>1218</ele>
        <time>2039-05-14T07:30:28.000Z</time>
      </trkpt>
      <trkpt lat="42.42807394824922084808349609375" lon="0.66483520902693271636962890625">
        <ele>1218.4000244140625</ele>
        <time>2039-05-14T07:30:35.000Z</time>
      </trkpt>
      <trkpt lat="42.4280765466392040252685546875" lon="0.66479279659688472747802734375">
        <ele>1218.5999755859375</ele>
        <time>2039-05-14T07:30:37.000Z</time>
      </trkpt>
      <trkpt lat="42.42807445116341114044189453125" lon="0.66462197341024875640869140625">
        <ele>1219.4000244140625</ele>
        <time>2039-05-14T07:30:45.000Z</time>
      </trkpt>
      <trkpt lat="42.428075037896633148193359375" lon="0.664600767195224761962890625">
        <ele>1219.4000244140625</ele>
        <time>2039-05-14T07:30:46.000Z</time>
      </trkpt>
      <trkpt lat="42.42808065377175807952880859375" lon="0.6644775532186031341552734375">
        <ele>1220.5999755859375</ele>
        <time>2039-05-14T07:30:52.000Z</time>
      </trkpt>
      <trkpt lat="42.428089790046215057373046875" lon="0.66431351937353610992431640625">
        <ele>1221.4000244140625</ele>
        <time>2039-05-14T07:31:00.000Z</time>
      </trkpt>
      <trkpt lat="42.42809087969362735748291015625" lon="0.6642931513488292694091796875">
        <ele>1221.5999755859375</ele>
        <time>2039-05-14T07:31:01.000Z</time>
      </trkpt>
      <trkpt lat="42.4280874431133270263671875" lon="0.664151497185230255126953125">
        <ele>1222.5999755859375</ele>
        <time>2039-05-14T07:31:08.000Z</time>
      </trkpt>
      <trkpt lat="42.428069002926349639892578125" lon="0.663982518017292022705078125">
        <ele>1223.800048828125</ele>
        <time>2039-05-14T07:31:16.000Z</time>
      </trkpt>
      <trkpt lat="42.42805751971900463104248046875" lon="0.6639196537435054779052734375">
        <ele>1224</ele>
        <time>2039-05-14T07:31:19.000Z</time>
      </trkpt>
      <trkpt lat="42.428032793104648590087890625" lon="0.6637956015765666961669921875">
        <ele>1224.800048828125</ele>
        <time>2039-05-14T07:31:25.000Z</time>
      </trkpt>
      <trkpt lat="42.42802432738244533538818359375" lon="0.6637530215084552764892578125">
        <ele>1225</ele>
        <time>2039-05-14T07:31:27.000Z</time>
      </trkpt>
      <trkpt lat="42.4279984273016452789306640625" lon="0.663630478084087371826171875">
        <ele>1226</ele>
        <time>2039-05-14T07:31:33.000Z</time>
      </trkpt>
      <trkpt lat="42.42797814309597015380859375" lon="0.66354741342365741729736328125">
        <ele>1226.4000244140625</ele>
        <time>2039-05-14T07:31:37.000Z</time>
      </trkpt>
      <trkpt lat="42.4279491417109966278076171875" lon="0.66342570818960666656494140625">
        <ele>1227</ele>
        <time>2039-05-14T07:31:43.000Z</time>
      </trkpt>
      <trkpt lat="42.42793765850365161895751953125" lon="0.66336602903902530670166015625">
        <ele>1227.5999755859375</ele>
        <time>2039-05-14T07:31:46.000Z</time>
      </trkpt>
      <trkpt lat="42.42791754193603992462158203125" lon="0.663264356553554534912109375">
        <ele>1228</ele>
        <time>2039-05-14T07:31:51.000Z</time>
      </trkpt>
      <trkpt lat="42.4279075674712657928466796875" lon="0.66322303377091884613037109375">
        <ele>1228.199951171875</ele>
        <time>2039-05-14T07:31:53.000Z</time>
      </trkpt>
      <trkpt lat="42.4278861097991466522216796875" lon="0.66309629939496517181396484375">
        <ele>1229</ele>
        <time>2039-05-14T07:31:59.000Z</time>
      </trkpt>
      <trkpt lat="42.42788024246692657470703125" lon="0.6630318425595760345458984375">
        <ele>1229.4000244140625</ele>
        <time>2039-05-14T07:32:02.000Z</time>
      </trkpt>
      <trkpt lat="42.42785199545323848724365234375" lon="0.6629034318029880523681640625">
        <ele>1230.199951171875</ele>
        <time>2039-05-14T07:32:08.000Z</time>
      </trkpt>
      <trkpt lat="42.42784461937844753265380859375" lon="0.6628596782684326171875">
        <ele>1230.4000244140625</ele>
        <time>2039-05-14T07:32:10.000Z</time>
      </trkpt>
      <trkpt lat="42.42780472151935100555419921875" lon="0.662693046033382415771484375">
        <ele>1231.199951171875</ele>
        <time>2039-05-14T07:32:18.000Z</time>
      </trkpt>
      <trkpt lat="42.42780354805290699005126953125" lon="0.6626704148948192596435546875">
        <ele>1231.199951171875</ele>
        <time>2039-05-14T07:32:19.000Z</time>
      </trkpt>
      <trkpt lat="42.42778770625591278076171875" lon="0.662560276687145233154296875">
        <ele>1232.199951171875</ele>
        <time>2039-05-14T07:32:24.000Z</time>
      </trkpt>
      <trkpt lat="42.42777387611567974090576171875" lon="0.66251836717128753662109375">
        <ele>1232.5999755859375</ele>
        <time>2039-05-14T07:32:26.000Z</time>
      </trkpt>
      <trkpt lat="42.4277469702064990997314453125" lon="0.6623693369328975677490234375">
        <ele>1233.199951171875</ele>
        <time>2039-05-14T07:32:33.000Z</time>
      </trkpt>
      <trkpt lat="42.42774336598813533782958984375" lon="0.66234695725142955780029296875">
        <ele>1233.199951171875</ele>
        <time>2039-05-14T07:32:34.000Z</time>
      </trkpt>
      <trkpt lat="42.42771503515541553497314453125" lon="0.66219340078532695770263671875">
        <ele>1234.199951171875</ele>
        <time>2039-05-14T07:32:41.000Z</time>
      </trkpt>
      <trkpt lat="42.42770967073738574981689453125" lon="0.662147216498851776123046875">
        <ele>1234.5999755859375</ele>
        <time>2039-05-14T07:32:43.000Z</time>
      </trkpt>
      <trkpt lat="42.42769475094974040985107421875" lon="0.66203397698700428009033203125">
        <ele>1235.4000244140625</ele>
        <time>2039-05-14T07:32:48.000Z</time>
      </trkpt>
      <trkpt lat="42.4276805855333805084228515625" lon="0.66190221346914768218994140625">
        <ele>1236.199951171875</ele>
        <time>2039-05-14T07:32:54.000Z</time>
      </trkpt>
      <trkpt lat="42.42768720723688602447509765625" lon="0.66185913048684597015380859375">
        <ele>1236.4000244140625</ele>
        <time>2039-05-14T07:32:56.000Z</time>
      </trkpt>
      <trkpt lat="42.42767999880015850067138671875" lon="0.6617494113743305206298828125">
        <ele>1237</ele>
        <time>2039-05-14T07:33:01.000Z</time>
      </trkpt>
      <trkpt lat="42.42767505347728729248046875" lon="0.6617048196494579315185546875">
        <ele>1237.4000244140625</ele>
        <time>2039-05-14T07:33:03.000Z</time>
      </trkpt>
      <trkpt lat="42.427663318812847137451171875" lon="0.66152838058769702911376953125">
        <ele>1238.5999755859375</ele>
        <time>2039-05-14T07:33:11.000Z</time>
      </trkpt>
      <trkpt lat="42.42767035961151123046875" lon="0.66148580051958560943603515625">
        <ele>1239</ele>
        <time>2039-05-14T07:33:13.000Z</time>
      </trkpt>
      <trkpt lat="42.42766432464122772216796875" lon="0.66135202534496784210205078125">
        <ele>1239.5999755859375</ele>
        <time>2039-05-14T07:33:19.000Z</time>
      </trkpt>
      <trkpt lat="42.42766541428864002227783203125" lon="0.6613294780254364013671875">
        <ele>1239.800048828125</ele>
        <time>2039-05-14T07:33:20.000Z</time>
      </trkpt>
      <trkpt lat="42.42764513008296489715576171875" lon="0.6611710600554943084716796875">
        <ele>1240.5999755859375</ele>
        <time>2039-05-14T07:33:27.000Z</time>
      </trkpt>
      <trkpt lat="42.4276475608348846435546875" lon="0.66112495958805084228515625">
        <ele>1240.800048828125</ele>
        <time>2039-05-14T07:33:29.000Z</time>
      </trkpt>
      <trkpt lat="42.427633143961429595947265625" lon="0.660996548831462860107421875">
        <ele>1241.5999755859375</ele>
        <time>2039-05-14T07:33:35.000Z</time>
      </trkpt>
      <trkpt lat="42.42764160968363285064697265625" lon="0.66089118830859661102294921875">
        <ele>1242.4000244140625</ele>
        <time>2039-05-14T07:33:40.000Z</time>
      </trkpt>
      <trkpt lat="42.42763959802687168121337890625" lon="0.6608699820935726165771484375">
        <ele>1242.4000244140625</ele>
        <time>2039-05-14T07:33:41.000Z</time>
      </trkpt>
      <trkpt lat="42.42763616144657135009765625" lon="0.66084869205951690673828125">
        <ele>1242.5999755859375</ele>
        <time>2039-05-14T07:33:42.000Z</time>
      </trkpt>
      <trkpt lat="42.42763138376176357269287109375" lon="0.66078406758606433868408203125">
        <ele>1242.800048828125</ele>
        <time>2039-05-14T07:33:45.000Z</time>
      </trkpt>
      <trkpt lat="42.42762484587728977203369140625" lon="0.66069320775568485260009765625">
        <ele>1243.5999755859375</ele>
        <time>2039-05-14T07:33:49.000Z</time>
      </trkpt>
      <trkpt lat="42.4276175536215305328369140625" lon="0.66048617474734783172607421875">
        <ele>1244.800048828125</ele>
        <time>2039-05-14T07:33:58.000Z</time>
      </trkpt>
      <trkpt lat="42.4276068247854709625244140625" lon="0.66032708622515201568603515625">
        <ele>1245.5999755859375</ele>
        <time>2039-05-14T07:34:05.000Z</time>
      </trkpt>
      <trkpt lat="42.42760053835809230804443359375" lon="0.66023572348058223724365234375">
        <ele>1246.199951171875</ele>
        <time>2039-05-14T07:34:09.000Z</time>
      </trkpt>
      <trkpt lat="42.42760187946259975433349609375" lon="0.66009809263050556182861328125">
        <ele>1246.5999755859375</ele>
        <time>2039-05-14T07:34:15.000Z</time>
      </trkpt>
      <trkpt lat="42.427609674632549285888671875" lon="0.65998393110930919647216796875">
        <ele>1247.800048828125</ele>
        <time>2039-05-14T07:34:20.000Z</time>
      </trkpt>
      <trkpt lat="42.427619062364101409912109375" lon="0.6597791612148284912109375">
        <ele>1249</ele>
        <time>2039-05-14T07:34:29.000Z</time>
      </trkpt>
      <trkpt lat="42.42763741873204708099365234375" lon="0.6596207432448863983154296875">
        <ele>1250</ele>
        <time>2039-05-14T07:34:36.000Z</time>
      </trkpt>
      <trkpt lat="42.42763590998947620391845703125" lon="0.65959752537310123443603515625">
        <ele>1250.199951171875</ele>
        <time>2039-05-14T07:34:37.000Z</time>
      </trkpt>
      <trkpt lat="42.4276480637490749359130859375" lon="0.65945855341851711273193359375">
        <ele>1251</ele>
        <time>2039-05-14T07:34:43.000Z</time>
      </trkpt>
      <trkpt lat="42.42765116505324840545654296875" lon="0.65941195003688335418701171875">
        <ele>1251.199951171875</ele>
        <time>2039-05-14T07:34:45.000Z</time>
      </trkpt>
      <trkpt lat="42.427659966051578521728515625" lon="0.65926945768296718597412109375">
        <ele>1252</ele>
        <time>2039-05-14T07:34:51.000Z</time>
      </trkpt>
      <trkpt lat="42.427661977708339691162109375" lon="0.6592214293777942657470703125">
        <ele>1252.199951171875</ele>
        <time>2039-05-14T07:34:53.000Z</time>
      </trkpt>
      <trkpt lat="42.427674718201160430908203125" lon="0.65908203832805156707763671875">
        <ele>1253</ele>
        <time>2039-05-14T07:34:59.000Z</time>
      </trkpt>
      <trkpt lat="42.42767614312469959259033203125" lon="0.6590588204562664031982421875">
        <ele>1253.4000244140625</ele>
        <time>2039-05-14T07:35:00.000Z</time>
      </trkpt>
      <trkpt lat="42.42768452502787113189697265625" lon="0.65894164144992828369140625">
        <ele>1254.199951171875</ele>
        <time>2039-05-14T07:35:05.000Z</time>
      </trkpt>
      <trkpt lat="42.4276909790933132171630859375" lon="0.65877844579517841339111328125">
        <ele>1255.199951171875</ele>
        <time>2039-05-14T07:35:12.000Z</time>
      </trkpt>
      <trkpt lat="42.42770615033805370330810546875" lon="0.6585971452295780181884765625">
        <ele>1256.199951171875</ele>
        <time>2039-05-14T07:35:20.000Z</time>
      </trkpt>
      <trkpt lat="42.4277080781757831573486328125" lon="0.6585746817290782928466796875">
        <ele>1256.4000244140625</ele>
        <time>2039-05-14T07:35:21.000Z</time>
      </trkpt>
      <trkpt lat="42.4277007021009922027587890625" lon="0.65841215662658214569091796875">
        <ele>1257</ele>
        <time>2039-05-14T07:35:28.000Z</time>
      </trkpt>
      <trkpt lat="42.42769860662519931793212890625" lon="0.65838868729770183563232421875">
        <ele>1257.199951171875</ele>
        <time>2039-05-14T07:35:29.000Z</time>
      </trkpt>
      <trkpt lat="42.42766759358346462249755859375" lon="0.65822817385196685791015625">
        <ele>1258.199951171875</ele>
        <time>2039-05-14T07:35:36.000Z</time>
      </trkpt>
      <trkpt lat="42.4276644922792911529541015625" lon="0.6582038663327693939208984375">
        <ele>1258.4000244140625</ele>
        <time>2039-05-14T07:35:37.000Z</time>
      </trkpt>
      <trkpt lat="42.42763741873204708099365234375" lon="0.65803916193544864654541015625">
        <ele>1259.199951171875</ele>
        <time>2039-05-14T07:35:44.000Z</time>
      </trkpt>
      <trkpt lat="42.4276333115994930267333984375" lon="0.65801552496850490570068359375">
        <ele>1259.4000244140625</ele>
        <time>2039-05-14T07:35:45.000Z</time>
      </trkpt>
      <trkpt lat="42.42758545093238353729248046875" lon="0.6578883714973926544189453125">
        <ele>1260.4000244140625</ele>
        <time>2039-05-14T07:35:51.000Z</time>
      </trkpt>
      <trkpt lat="42.42757572792470455169677734375" lon="0.65786699764430522918701171875">
        <ele>1260.5999755859375</ele>
        <time>2039-05-14T07:35:52.000Z</time>
      </trkpt>
      <trkpt lat="42.4274864606559276580810546875" lon="0.65773959271609783172607421875">
        <ele>1261.4000244140625</ele>
        <time>2039-05-14T07:35:59.000Z</time>
      </trkpt>
      <trkpt lat="42.42747028358280658721923828125" lon="0.6577274389564990997314453125">
        <ele>1261.5999755859375</ele>
        <time>2039-05-14T07:36:00.000Z</time>
      </trkpt>
      <trkpt lat="42.4273905716836452484130859375" lon="0.65766616724431514739990234375">
        <ele>1262.5999755859375</ele>
        <time>2039-05-14T07:36:05.000Z</time>
      </trkpt>
      <trkpt lat="42.42734002880752086639404296875" lon="0.65764345228672027587890625">
        <ele>1263.199951171875</ele>
        <time>2039-05-14T07:36:08.000Z</time>
      </trkpt>
      <trkpt lat="42.4273037351667881011962890625" lon="0.65763196907937526702880859375">
        <ele>1263.5999755859375</ele>
        <time>2039-05-14T07:36:10.000Z</time>
      </trkpt>
      <trkpt lat="42.427185215055942535400390625" lon="0.6576131097972393035888671875">
        <ele>1263.800048828125</ele>
        <time>2039-05-14T07:36:17.000Z</time>
      </trkpt>
      <trkpt lat="42.427181191742420196533203125" lon="0.65761235542595386505126953125">
        <ele>1264</ele>
        <time>2039-05-14T07:36:22.000Z</time>
      </trkpt>
      <trkpt lat="42.42718144319951534271240234375" lon="0.65761235542595386505126953125">
        <ele>1264</ele>
        <time>2039-05-14T07:36:45.000Z</time>
      </trkpt>
      <trkpt lat="42.427181191742420196533203125" lon="0.65761218778789043426513671875">
        <ele>1264.199951171875</ele>
        <time>2039-05-14T07:36:51.000Z</time>
      </trkpt>
      <trkpt lat="42.42714137770235538482666015625" lon="0.65763314254581928253173828125">
        <ele>1264.5999755859375</ele>
        <time>2039-05-14T07:36:54.000Z</time>
      </trkpt>
      <trkpt lat="42.4270063452422618865966796875" lon="0.65767320804297924041748046875">
        <ele>1265.199951171875</ele>
        <time>2039-05-14T07:37:01.000Z</time>
      </trkpt>
      <trkpt lat="42.4269671179354190826416015625" lon="0.657677985727787017822265625">
        <ele>1265.4000244140625</ele>
        <time>2039-05-14T07:37:03.000Z</time>
      </trkpt>
      <trkpt lat="42.42682755924761295318603515625" lon="0.6577096693217754364013671875">
        <ele>1266</ele>
        <time>2039-05-14T07:37:10.000Z</time>
      </trkpt>
      <trkpt lat="42.42678866721689701080322265625" lon="0.65771629102528095245361328125">
        <ele>1266.4000244140625</ele>
        <time>2039-05-14T07:37:12.000Z</time>
      </trkpt>
      <trkpt lat="42.426670230925083160400390625" lon="0.6577287800610065460205078125">
        <ele>1267.5999755859375</ele>
        <time>2039-05-14T07:37:18.000Z</time>
      </trkpt>
      <trkpt lat="42.42653511464595794677734375" lon="0.6577254272997379302978515625">
        <ele>1268.800048828125</ele>
        <time>2039-05-14T07:37:25.000Z</time>
      </trkpt>
      <trkpt lat="42.4264618568122386932373046875" lon="0.65771075896918773651123046875">
        <ele>1269.800048828125</ele>
        <time>2039-05-14T07:37:29.000Z</time>
      </trkpt>
      <trkpt lat="42.42631492204964160919189453125" lon="0.6576838530600070953369140625">
        <ele>1271</ele>
        <time>2039-05-14T07:37:37.000Z</time>
      </trkpt>
      <trkpt lat="42.42629706859588623046875" lon="0.657679997384548187255859375">
        <ele>1271.199951171875</ele>
        <time>2039-05-14T07:37:38.000Z</time>
      </trkpt>
      <trkpt lat="42.426174692809581756591796875" lon="0.65763004124164581298828125">
        <ele>1272</ele>
        <time>2039-05-14T07:37:45.000Z</time>
      </trkpt>
      <trkpt lat="42.4261409975588321685791015625" lon="0.65761285834014415740966796875">
        <ele>1272.4000244140625</ele>
        <time>2039-05-14T07:37:47.000Z</time>
      </trkpt>
      <trkpt lat="42.4260575138032436370849609375" lon="0.6575611419975757598876953125">
        <ele>1273.199951171875</ele>
        <time>2039-05-14T07:37:52.000Z</time>
      </trkpt>
      <trkpt lat="42.4260105751454830169677734375" lon="0.6575205735862255096435546875">
        <ele>1273.5999755859375</ele>
        <time>2039-05-14T07:37:55.000Z</time>
      </trkpt>
      <trkpt lat="42.42591476999223232269287109375" lon="0.65744035877287387847900390625">
        <ele>1274.4000244140625</ele>
        <time>2039-05-14T07:38:01.000Z</time>
      </trkpt>
      <trkpt lat="42.425851486623287200927734375" lon="0.657390989363193511962890625">
        <ele>1274.800048828125</ele>
        <time>2039-05-14T07:38:05.000Z</time>
      </trkpt>
      <trkpt lat="42.4258077330887317657470703125" lon="0.6573517620563507080078125">
        <ele>1275.199951171875</ele>
        <time>2039-05-14T07:38:08.000Z</time>
      </trkpt>
      <trkpt lat="42.42574520409107208251953125" lon="0.657262913882732391357421875">
        <ele>1275.800048828125</ele>
        <time>2039-05-14T07:38:13.000Z</time>
      </trkpt>
      <trkpt lat="42.4256954155862331390380859375" lon="0.657191164791584014892578125">
        <ele>1276.4000244140625</ele>
        <time>2039-05-14T07:38:17.000Z</time>
      </trkpt>
      <trkpt lat="42.42564302869141101837158203125" lon="0.657127462327480316162109375">
        <ele>1277.199951171875</ele>
        <time>2039-05-14T07:38:21.000Z</time>
      </trkpt>
      <trkpt lat="42.425623834133148193359375" lon="0.6570887379348278045654296875">
        <ele>1277.4000244140625</ele>
        <time>2039-05-14T07:38:23.000Z</time>
      </trkpt>
      <trkpt lat="42.4255312979221343994140625" lon="0.65697130747139453887939453125">
        <ele>1278.4000244140625</ele>
        <time>2039-05-14T07:38:30.000Z</time>
      </trkpt>
      <trkpt lat="42.42552149109542369842529296875" lon="0.65695068798959255218505859375">
        <ele>1278.5999755859375</ele>
        <time>2039-05-14T07:38:31.000Z</time>
      </trkpt>
      <trkpt lat="42.4254516698420047760009765625" lon="0.65684281289577484130859375">
        <ele>1279.5999755859375</ele>
        <time>2039-05-14T07:38:37.000Z</time>
      </trkpt>
      <trkpt lat="42.42543004453182220458984375" lon="0.656805597245693206787109375">
        <ele>1279.800048828125</ele>
        <time>2039-05-14T07:38:39.000Z</time>
      </trkpt>
      <trkpt lat="42.42536910809576511383056640625" lon="0.65671012736856937408447265625">
        <ele>1280.5999755859375</ele>
        <time>2039-05-14T07:38:44.000Z</time>
      </trkpt>
      <trkpt lat="42.4253202416002750396728515625" lon="0.65663368441164493560791015625">
        <ele>1281.199951171875</ele>
        <time>2039-05-14T07:38:48.000Z</time>
      </trkpt>
      <trkpt lat="42.42526852525770664215087890625" lon="0.65656327642500400543212890625">
        <ele>1281.5999755859375</ele>
        <time>2039-05-14T07:38:52.000Z</time>
      </trkpt>
      <trkpt lat="42.42519794963300228118896484375" lon="0.65644676797091960906982421875">
        <ele>1282.4000244140625</ele>
        <time>2039-05-14T07:38:58.000Z</time>
      </trkpt>
      <trkpt lat="42.42518453858792781829833984375" lon="0.6564299203455448150634765625">
        <ele>1282.5999755859375</ele>
        <time>2039-05-14T07:38:59.000Z</time>
      </trkpt>
      <trkpt lat="42.42510993964970111846923828125" lon="0.65632338635623455047607421875">
        <ele>1283.5999755859375</ele>
        <time>2039-05-14T07:39:05.000Z</time>
      </trkpt>
      <trkpt lat="42.42507540620863437652587890625" lon="0.65626504831016063690185546875">
        <ele>1284.199951171875</ele>
        <time>2039-05-14T07:39:08.000Z</time>
      </trkpt>
      <trkpt lat="42.42503785528242588043212890625" lon="0.656210146844387054443359375">
        <ele>1284.5999755859375</ele>
        <time>2039-05-14T07:39:11.000Z</time>
      </trkpt>
      <trkpt lat="42.42495755665004253387451171875" lon="0.65607243217527866363525390625">
        <ele>1285.5999755859375</ele>
        <time>2039-05-14T07:39:18.000Z</time>
      </trkpt>
      <trkpt lat="42.42493651807308197021484375" lon="0.656029768288135528564453125">
        <ele>1285.5999755859375</ele>
        <time>2039-05-14T07:39:20.000Z</time>
      </trkpt>
      <trkpt lat="42.42487558163702487945556640625" lon="0.65590295009315013885498046875">
        <ele>1286.800048828125</ele>
        <time>2039-05-14T07:39:26.000Z</time>
      </trkpt>
      <trkpt lat="42.42485605180263519287109375" lon="0.65586120821535587310791015625">
        <ele>1287</ele>
        <time>2039-05-14T07:39:28.000Z</time>
      </trkpt>
      <trkpt lat="42.42481053806841373443603515625" lon="0.6557556800544261932373046875">
        <ele>1287.800048828125</ele>
        <time>2039-05-14T07:39:33.000Z</time>
      </trkpt>
      <trkpt lat="42.42476376704871654510498046875" lon="0.65564964897930622100830078125">
        <ele>1288.5999755859375</ele>
        <time>2039-05-14T07:39:38.000Z</time>
      </trkpt>
      <trkpt lat="42.42474264465272426605224609375" lon="0.6556105054914951324462890625">
        <ele>1288.800048828125</ele>
        <time>2039-05-14T07:39:40.000Z</time>
      </trkpt>
      <trkpt lat="42.4246972985565662384033203125" lon="0.65550682134926319122314453125">
        <ele>1289.5999755859375</ele>
        <time>2039-05-14T07:39:45.000Z</time>
      </trkpt>
      <trkpt lat="42.42464256472885608673095703125" lon="0.6554100103676319122314453125">
        <ele>1290</ele>
        <time>2039-05-14T07:39:50.000Z</time>
      </trkpt>
      <trkpt lat="42.4246154911816120147705078125" lon="0.65534739755094051361083984375">
        <ele>1290.5999755859375</ele>
        <time>2039-05-14T07:39:53.000Z</time>
      </trkpt>
      <trkpt lat="42.42459394969046115875244140625" lon="0.6552812643349170684814453125">
        <ele>1291.199951171875</ele>
        <time>2039-05-14T07:39:56.000Z</time>
      </trkpt>
      <trkpt lat="42.424552626907825469970703125" lon="0.65520373173058032989501953125">
        <ele>1291.800048828125</ele>
        <time>2039-05-14T07:40:00.000Z</time>
      </trkpt>
      <trkpt lat="42.42450795136392116546630859375" lon="0.65509845502674579620361328125">
        <ele>1292.199951171875</ele>
        <time>2039-05-14T07:40:05.000Z</time>
      </trkpt>
      <trkpt lat="42.42449470795691013336181640625" lon="0.65508236177265644073486328125">
        <ele>1292.199951171875</ele>
        <time>2039-05-14T07:40:06.000Z</time>
      </trkpt>
      <trkpt lat="42.424482889473438262939453125" lon="0.65506459213793277740478515625">
        <ele>1292.199951171875</ele>
        <time>2039-05-14T07:40:07.000Z</time>
      </trkpt>
      <trkpt lat="42.42443016730248928070068359375" lon="0.65493500791490077972412109375">
        <ele>1293.199951171875</ele>
        <time>2039-05-14T07:40:13.000Z</time>
      </trkpt>
      <trkpt lat="42.4243891797959804534912109375" lon="0.65485739149153232574462890625">
        <ele>1294</ele>
        <time>2039-05-14T07:40:17.000Z</time>
      </trkpt>
      <trkpt lat="42.42437082342803478240966796875" lon="0.65481883473694324493408203125">
        <ele>1294.4000244140625</ele>
        <time>2039-05-14T07:40:19.000Z</time>
      </trkpt>
      <trkpt lat="42.4243251420557498931884765625" lon="0.6547183357179164886474609375">
        <ele>1295</ele>
        <time>2039-05-14T07:40:24.000Z</time>
      </trkpt>
      <trkpt lat="42.42429957725107669830322265625" lon="0.65465748310089111328125">
        <ele>1295.4000244140625</ele>
        <time>2039-05-14T07:40:27.000Z</time>
      </trkpt>
      <trkpt lat="42.42424375377595424652099609375" lon="0.65453787334263324737548828125">
        <ele>1296.199951171875</ele>
        <time>2039-05-14T07:40:33.000Z</time>
      </trkpt>
      <trkpt lat="42.4242269061505794525146484375" lon="0.65449931658804416656494140625">
        <ele>1296.4000244140625</ele>
        <time>2039-05-14T07:40:35.000Z</time>
      </trkpt>
      <trkpt lat="42.42415138520300388336181640625" lon="0.65431348979473114013671875">
        <ele>1297.4000244140625</ele>
        <time>2039-05-14T07:40:44.000Z</time>
      </trkpt>
      <trkpt lat="42.4241447634994983673095703125" lon="0.65429261885583400726318359375">
        <ele>1297.5999755859375</ele>
        <time>2039-05-14T07:40:45.000Z</time>
      </trkpt>
      <trkpt lat="42.4241162650287151336669921875" lon="0.654209554195404052734375">
        <ele>1298.5999755859375</ele>
        <time>2039-05-14T07:40:49.000Z</time>
      </trkpt>
      <trkpt lat="42.42409338243305683135986328125" lon="0.65411995165050029754638671875">
        <ele>1299.199951171875</ele>
        <time>2039-05-14T07:40:53.000Z</time>
      </trkpt>
      <trkpt lat="42.42405113764107227325439453125" lon="0.65398734994232654571533203125">
        <ele>1299.5999755859375</ele>
        <time>2039-05-14T07:40:59.000Z</time>
      </trkpt>
      <trkpt lat="42.42404174990952014923095703125" lon="0.65393974073231220245361328125">
        <ele>1300</ele>
        <time>2039-05-14T07:41:01.000Z</time>
      </trkpt>
      <trkpt lat="42.4240143410861492156982421875" lon="0.6538499705493450164794921875">
        <ele>1300.5999755859375</ele>
        <time>2039-05-14T07:41:05.000Z</time>
      </trkpt>
      <trkpt lat="42.42399347014725208282470703125" lon="0.65375735051929950714111328125">
        <ele>1301</ele>
        <time>2039-05-14T07:41:09.000Z</time>
      </trkpt>
      <trkpt lat="42.42397184483706951141357421875" lon="0.653664730489253997802734375">
        <ele>1301.5999755859375</ele>
        <time>2039-05-14T07:41:13.000Z</time>
      </trkpt>
      <trkpt lat="42.4239372275769710540771484375" lon="0.65355417318642139434814453125">
        <ele>1302.4000244140625</ele>
        <time>2039-05-14T07:41:18.000Z</time>
      </trkpt>
      <trkpt lat="42.42392758838832378387451171875" lon="0.65350807271897792816162109375">
        <ele>1302.5999755859375</ele>
        <time>2039-05-14T07:41:20.000Z</time>
      </trkpt>
      <trkpt lat="42.42389774881303310394287109375" lon="0.653369016945362091064453125">
        <ele>1303.800048828125</ele>
        <time>2039-05-14T07:41:26.000Z</time>
      </trkpt>
      <trkpt lat="42.42389355786144733428955078125" lon="0.65334512852132320404052734375">
        <ele>1304</ele>
        <time>2039-05-14T07:41:27.000Z</time>
      </trkpt>
      <trkpt lat="42.42385885678231716156005859375" lon="0.65318302251398563385009765625">
        <ele>1304.800048828125</ele>
        <time>2039-05-14T07:41:34.000Z</time>
      </trkpt>
      <trkpt lat="42.42384661920368671417236328125" lon="0.653114207088947296142578125">
        <ele>1305.4000244140625</ele>
        <time>2039-05-14T07:41:37.000Z</time>
      </trkpt>
      <trkpt lat="42.42383169941604137420654296875" lon="0.65304539166390895843505859375">
        <ele>1305.800048828125</ele>
        <time>2039-05-14T07:41:40.000Z</time>
      </trkpt>
      <trkpt lat="42.423813343048095703125" lon="0.6529517658054828643798828125">
        <ele>1306.5999755859375</ele>
        <time>2039-05-14T07:41:44.000Z</time>
      </trkpt>
      <trkpt lat="42.423801608383655548095703125" lon="0.65290742553770542144775390625">
        <ele>1306.800048828125</ele>
        <time>2039-05-14T07:41:46.000Z</time>
      </trkpt>
      <trkpt lat="42.4237637221813201904296875" lon="0.65272654406726360321044921875">
        <ele>1307.800048828125</ele>
        <time>2039-05-14T07:41:54.000Z</time>
      </trkpt>
      <trkpt lat="42.4237591959536075592041015625" lon="0.65270357765257358551025390625">
        <ele>1308</ele>
        <time>2039-05-14T07:41:55.000Z</time>
      </trkpt>
      <trkpt lat="42.42372424341738224029541015625" lon="0.65253778360784053802490234375">
        <ele>1309</ele>
        <time>2039-05-14T07:42:02.000Z</time>
      </trkpt>
      <trkpt lat="42.42370714433491230010986328125" lon="0.65249226987361907958984375">
        <ele>1309.4000244140625</ele>
        <time>2039-05-14T07:42:04.000Z</time>
      </trkpt>
      <trkpt lat="42.4236871115863323211669921875" lon="0.65236696042120456695556640625">
        <ele>1310</ele>
        <time>2039-05-14T07:42:09.000Z</time>
      </trkpt>
      <trkpt lat="42.42367160506546497344970703125" lon="0.65229604952037334442138671875">
        <ele>1310.5999755859375</ele>
        <time>2039-05-14T07:42:12.000Z</time>
      </trkpt>
      <trkpt lat="42.4236488901078701019287109375" lon="0.65222547389566898345947265625">
        <ele>1311</ele>
        <time>2039-05-14T07:42:15.000Z</time>
      </trkpt>
      <trkpt lat="42.42361796088516712188720703125" lon="0.65207627601921558380126953125">
        <ele>1311.800048828125</ele>
        <time>2039-05-14T07:42:21.000Z</time>
      </trkpt>
      <trkpt lat="42.42360890842974185943603515625" lon="0.6520260684192180633544921875">
        <ele>1312.199951171875</ele>
        <time>2039-05-14T07:42:23.000Z</time>
      </trkpt>
      <trkpt lat="42.4235734529793262481689453125" lon="0.65188047476112842559814453125">
        <ele>1313</ele>
        <time>2039-05-14T07:42:29.000Z</time>
      </trkpt>
      <trkpt lat="42.42354252375662326812744140625" lon="0.65170696936547756195068359375">
        <ele>1314</ele>
        <time>2039-05-14T07:42:36.000Z</time>
      </trkpt>
      <trkpt lat="42.42352659814059734344482421875" lon="0.65163186751306056976318359375">
        <ele>1314.5999755859375</ele>
        <time>2039-05-14T07:42:39.000Z</time>
      </trkpt>
      <trkpt lat="42.42351184599101543426513671875" lon="0.65155684947967529296875">
        <ele>1315.199951171875</ele>
        <time>2039-05-14T07:42:42.000Z</time>
      </trkpt>
      <trkpt lat="42.4234785698354244232177734375" lon="0.651414357125759124755859375">
        <ele>1316</ele>
        <time>2039-05-14T07:42:48.000Z</time>
      </trkpt>
      <trkpt lat="42.42347328923642635345458984375" lon="0.6513897143304347991943359375">
        <ele>1316.4000244140625</ele>
        <time>2039-05-14T07:42:49.000Z</time>
      </trkpt>
      <trkpt lat="42.42343205027282238006591796875" lon="0.6512202322483062744140625">
        <ele>1317</ele>
        <time>2039-05-14T07:42:56.000Z</time>
      </trkpt>
      <trkpt lat="42.42342551238834857940673828125" lon="0.65117061138153076171875">
        <ele>1317.5999755859375</ele>
        <time>2039-05-14T07:42:58.000Z</time>
      </trkpt>
      <trkpt lat="42.42340992204844951629638671875" lon="0.65099953673779964447021484375">
        <ele>1318.800048828125</ele>
        <time>2039-05-14T07:43:05.000Z</time>
      </trkpt>
      <trkpt lat="42.4234084971249103546142578125" lon="0.65097413957118988037109375">
        <ele>1318.800048828125</ele>
        <time>2039-05-14T07:43:06.000Z</time>
      </trkpt>
      <trkpt lat="42.42339424788951873779296875" lon="0.6507996283471584320068359375">
        <ele>1319.800048828125</ele>
        <time>2039-05-14T07:43:13.000Z</time>
      </trkpt>
      <trkpt lat="42.42338846437633037567138671875" lon="0.6507758237421512603759765625">
        <ele>1320</ele>
        <time>2039-05-14T07:43:14.000Z</time>
      </trkpt>
      <trkpt lat="42.42337941192090511322021484375" lon="0.6506340019404888153076171875">
        <ele>1320.5999755859375</ele>
        <time>2039-05-14T07:43:20.000Z</time>
      </trkpt>
      <trkpt lat="42.42337706498801708221435546875" lon="0.6506091915071010589599609375">
        <ele>1320.800048828125</ele>
        <time>2039-05-14T07:43:21.000Z</time>
      </trkpt>
      <trkpt lat="42.4233642406761646270751953125" lon="0.6504368595778942108154296875">
        <ele>1321.800048828125</ele>
        <time>2039-05-14T07:43:28.000Z</time>
      </trkpt>
      <trkpt lat="42.42335879243910312652587890625" lon="0.65038732253015041351318359375">
        <ele>1322.199951171875</ele>
        <time>2039-05-14T07:43:30.000Z</time>
      </trkpt>
      <trkpt lat="42.423355020582675933837890625" lon="0.650270394980907440185546875">
        <ele>1323</ele>
        <time>2039-05-14T07:43:35.000Z</time>
      </trkpt>
      <trkpt lat="42.42333381436765193939208984375" lon="0.65018146298825740814208984375">
        <ele>1323.5999755859375</ele>
        <time>2039-05-14T07:43:39.000Z</time>
      </trkpt>
      <trkpt lat="42.4233307130634784698486328125" lon="0.6501119770109653472900390625">
        <ele>1324</ele>
        <time>2039-05-14T07:43:42.000Z</time>
      </trkpt>
      <trkpt lat="42.42333750240504741668701171875" lon="0.65003695897758007049560546875">
        <ele>1324.4000244140625</ele>
        <time>2039-05-14T07:43:45.000Z</time>
      </trkpt>
      <trkpt lat="42.4233323894441127777099609375" lon="0.6499151699244976043701171875">
        <ele>1325.199951171875</ele>
        <time>2039-05-14T07:43:50.000Z</time>
      </trkpt>
      <trkpt lat="42.42333146743476390838623046875" lon="0.64984082244336605072021484375">
        <ele>1325.800048828125</ele>
        <time>2039-05-14T07:43:53.000Z</time>
      </trkpt>
      <trkpt lat="42.42331738583743572235107421875" lon="0.6497676484286785125732421875">
        <ele>1326.199951171875</ele>
        <time>2039-05-14T07:43:56.000Z</time>
      </trkpt>
      <trkpt lat="42.4232998676598072052001953125" lon="0.649644099175930023193359375">
        <ele>1326.800048828125</ele>
        <time>2039-05-14T07:44:01.000Z</time>
      </trkpt>
      <trkpt lat="42.4233022145926952362060546875" lon="0.64957042224705219268798828125">
        <ele>1327.199951171875</ele>
        <time>2039-05-14T07:44:04.000Z</time>
      </trkpt>
      <trkpt lat="42.4233055673539638519287109375" lon="0.649473778903484344482421875">
        <ele>1327.800048828125</ele>
        <time>2039-05-14T07:44:08.000Z</time>
      </trkpt>
      <trkpt lat="42.42330246604979038238525390625" lon="0.64937713555991649627685546875">
        <ele>1328.4000244140625</ele>
        <time>2039-05-14T07:44:12.000Z</time>
      </trkpt>
      <trkpt lat="42.42329861037433147430419921875" lon="0.6492804922163486480712890625">
        <ele>1329</ele>
        <time>2039-05-14T07:44:16.000Z</time>
      </trkpt>
      <trkpt lat="42.423304729163646697998046875" lon="0.64916071482002735137939453125">
        <ele>1329.5999755859375</ele>
        <time>2039-05-14T07:44:21.000Z</time>
      </trkpt>
      <trkpt lat="42.423309423029422760009765625" lon="0.649087540805339813232421875">
        <ele>1330</ele>
        <time>2039-05-14T07:44:24.000Z</time>
      </trkpt>
      <trkpt lat="42.42332409135997295379638671875" lon="0.64899257384240627288818359375">
        <ele>1330.4000244140625</ele>
        <time>2039-05-14T07:44:28.000Z</time>
      </trkpt>
      <trkpt lat="42.4233444593846797943115234375" lon="0.64887438900768756866455078125">
        <ele>1331.4000244140625</ele>
        <time>2039-05-14T07:44:33.000Z</time>
      </trkpt>
      <trkpt lat="42.423363737761974334716796875" lon="0.6488047353923320770263671875">
        <ele>1332</ele>
        <time>2039-05-14T07:44:36.000Z</time>
      </trkpt>
      <trkpt lat="42.42340070195496082305908203125" lon="0.648720078170299530029296875">
        <ele>1332.5999755859375</ele>
        <time>2039-05-14T07:44:40.000Z</time>
      </trkpt>
      <trkpt lat="42.4234339781105518341064453125" lon="0.64863366074860095977783203125">
        <ele>1332.800048828125</ele>
        <time>2039-05-14T07:44:44.000Z</time>
      </trkpt>
      <trkpt lat="42.42346641607582569122314453125" lon="0.64855151809751987457275390625">
        <ele>1333.5999755859375</ele>
        <time>2039-05-14T07:44:48.000Z</time>
      </trkpt>
      <trkpt lat="42.42347873747348785400390625" lon="0.6485080160200595855712890625">
        <ele>1334</ele>
        <time>2039-05-14T07:44:50.000Z</time>
      </trkpt>
      <trkpt lat="42.42355911992490291595458984375" lon="0.648299641907215118408203125">
        <ele>1334.4000244140625</ele>
        <time>2039-05-14T07:45:00.000Z</time>
      </trkpt>
      <trkpt lat="42.42356934584677219390869140625" lon="0.648276843130588531494140625">
        <ele>1334.199951171875</ele>
        <time>2039-05-14T07:45:02.000Z</time>
      </trkpt>
      <trkpt lat="42.423568256199359893798828125" lon="0.64828279428184032440185546875">
        <ele>1334.4000244140625</ele>
        <time>2039-05-14T07:46:26.000Z</time>
      </trkpt>
      <trkpt lat="42.4235684238374233245849609375" lon="0.648282207548618316650390625">
        <ele>1334.5999755859375</ele>
        <time>2039-05-14T07:46:27.000Z</time>
      </trkpt>
      <trkpt lat="42.42358678020536899566650390625" lon="0.6482230313122272491455078125">
        <ele>1334.5999755859375</ele>
        <time>2039-05-14T07:46:31.000Z</time>
      </trkpt>
      <trkpt lat="42.4236510694026947021484375" lon="0.64806461334228515625">
        <ele>1334.5999755859375</ele>
        <time>2039-05-14T07:46:38.000Z</time>
      </trkpt>
      <trkpt lat="42.4237127602100372314453125" lon="0.6478994898498058319091796875">
        <ele>1334.4000244140625</ele>
        <time>2039-05-14T07:46:45.000Z</time>
      </trkpt>
      <trkpt lat="42.42381057702004909515380859375" lon="0.6476480327546596527099609375">
        <ele>1333.800048828125</ele>
        <time>2039-05-14T07:46:53.000Z</time>
      </trkpt>
      <trkpt lat="42.42390713654458522796630859375" lon="0.64736950211226940155029296875">
        <ele>1333.199951171875</ele>
        <time>2039-05-14T07:46:59.000Z</time>
      </trkpt>
      <trkpt lat="42.42392792366445064544677734375" lon="0.64731669612228870391845703125">
        <ele>1333</ele>
        <time>2039-05-14T07:47:00.000Z</time>
      </trkpt>
      <trkpt lat="42.42411484010517597198486328125" lon="0.64682610332965850830078125">
        <ele>1332.199951171875</ele>
        <time>2039-05-14T07:47:08.000Z</time>
      </trkpt>
      <trkpt lat="42.4242309294641017913818359375" lon="0.64654556103050708770751953125">
        <ele>1331</ele>
        <time>2039-05-14T07:47:12.000Z</time>
      </trkpt>
      <trkpt lat="42.4243189394474029541015625" lon="0.6463132984936237335205078125">
        <ele>1330.5999755859375</ele>
        <time>2039-05-14T07:47:15.000Z</time>
      </trkpt>
      <trkpt lat="42.42440636269748210906982421875" lon="0.646069049835205078125">
        <ele>1329.800048828125</ele>
        <time>2039-05-14T07:47:18.000Z</time>
      </trkpt>
      <trkpt lat="42.42457441985607147216796875" lon="0.64566873013973236083984375">
        <ele>1329.199951171875</ele>
        <time>2039-05-14T07:47:23.000Z</time>
      </trkpt>
      <trkpt lat="42.4246077798306941986083984375" lon="0.64558750949800014495849609375">
        <ele>1328.800048828125</ele>
        <time>2039-05-14T07:47:24.000Z</time>
      </trkpt>
      <trkpt lat="42.4247801117599010467529296875" lon="0.64516506157815456390380859375">
        <ele>1327.800048828125</ele>
        <time>2039-05-14T07:47:29.000Z</time>
      </trkpt>
      <trkpt lat="42.42481707595288753509521484375" lon="0.64507939852774143218994140625">
        <ele>1327.5999755859375</ele>
        <time>2039-05-14T07:47:30.000Z</time>
      </trkpt>
      <trkpt lat="42.42497515864670276641845703125" lon="0.64473272301256656646728515625">
        <ele>1326.4000244140625</ele>
        <time>2039-05-14T07:47:34.000Z</time>
      </trkpt>
      <trkpt lat="42.425026707351207733154296875" lon="0.64466047100722789764404296875">
        <ele>1326.199951171875</ele>
        <time>2039-05-14T07:47:35.000Z</time>
      </trkpt>
      <trkpt lat="42.42521773092448711395263671875" lon="0.64450674690306186676025390625">
        <ele>1325.199951171875</ele>
        <time>2039-05-14T07:47:38.000Z</time>
      </trkpt>
      <trkpt lat="42.425446473062038421630859375" lon="0.64448059536516666412353515625">
        <ele>1323.800048828125</ele>
        <time>2039-05-14T07:47:41.000Z</time>
      </trkpt>
      <trkpt lat="42.42561000399291515350341796875" lon="0.64453373663127422332763671875">
        <ele>1322.800048828125</ele>
        <time>2039-05-14T07:47:43.000Z</time>
      </trkpt>
      <trkpt lat="42.42569365538656711578369140625" lon="0.64457044936716556549072265625">
        <ele>1322.4000244140625</ele>
        <time>2039-05-14T07:47:44.000Z</time>
      </trkpt>
      <trkpt lat="42.42577898316085338592529296875" lon="0.64461202360689640045166015625">
        <ele>1322</ele>
        <time>2039-05-14T07:47:45.000Z</time>
      </trkpt>
      <trkpt lat="42.4258638918399810791015625" lon="0.644653178751468658447265625">
        <ele>1321.5999755859375</ele>
        <time>2039-05-14T07:47:46.000Z</time>
      </trkpt>
      <trkpt lat="42.426023818552494049072265625" lon="0.64472920261323451995849609375">
        <ele>1320.4000244140625</ele>
        <time>2039-05-14T07:47:48.000Z</time>
      </trkpt>
      <trkpt lat="42.4261696636676788330078125" lon="0.6448189727962017059326171875">
        <ele>1319</ele>
        <time>2039-05-14T07:47:50.000Z</time>
      </trkpt>
      <trkpt lat="42.4263079650700092315673828125" lon="0.6449490599334239959716796875">
        <ele>1318</ele>
        <time>2039-05-14T07:47:52.000Z</time>
      </trkpt>
      <trkpt lat="42.4263689853250980377197265625" lon="0.6450345553457736968994140625">
        <ele>1317.199951171875</ele>
        <time>2039-05-14T07:47:53.000Z</time>
      </trkpt>
      <trkpt lat="42.4264202825725078582763671875" lon="0.6451327912509441375732421875">
        <ele>1316.800048828125</ele>
        <time>2039-05-14T07:47:54.000Z</time>
      </trkpt>
      <trkpt lat="42.426466383039951324462890625" lon="0.6452360562980175018310546875">
        <ele>1316.199951171875</ele>
        <time>2039-05-14T07:47:55.000Z</time>
      </trkpt>
      <trkpt lat="42.42651089094579219818115234375" lon="0.6453453563153743743896484375">
        <ele>1315.199951171875</ele>
        <time>2039-05-14T07:47:56.000Z</time>
      </trkpt>
      <trkpt lat="42.42655263282358646392822265625" lon="0.645458512008190155029296875">
        <ele>1314.199951171875</ele>
        <time>2039-05-14T07:47:57.000Z</time>
      </trkpt>
      <trkpt lat="42.42659068666398525238037109375" lon="0.6455736793577671051025390625">
        <ele>1313.800048828125</ele>
        <time>2039-05-14T07:47:58.000Z</time>
      </trkpt>
      <trkpt lat="42.4266180954873561859130859375" lon="0.6456866674125194549560546875">
        <ele>1313</ele>
        <time>2039-05-14T07:47:59.000Z</time>
      </trkpt>
      <trkpt lat="42.42663309909403324127197265625" lon="0.64580057747662067413330078125">
        <ele>1312.199951171875</ele>
        <time>2039-05-14T07:48:00.000Z</time>
      </trkpt>
      <trkpt lat="42.4266398884356021881103515625" lon="0.64603619277477264404296875">
        <ele>1311</ele>
        <time>2039-05-14T07:48:02.000Z</time>
      </trkpt>
      <trkpt lat="42.42662572301924228668212890625" lon="0.646268539130687713623046875">
        <ele>1309.800048828125</ele>
        <time>2039-05-14T07:48:04.000Z</time>
      </trkpt>
      <trkpt lat="42.4266201071441173553466796875" lon="0.64637809060513973236083984375">
        <ele>1309</ele>
        <time>2039-05-14T07:48:05.000Z</time>
      </trkpt>
      <trkpt lat="42.42661583237349987030029296875" lon="0.6464849598705768585205078125">
        <ele>1308.4000244140625</ele>
        <time>2039-05-14T07:48:06.000Z</time>
      </trkpt>
      <trkpt lat="42.42661750875413417816162109375" lon="0.64658814109861850738525390625">
        <ele>1307.800048828125</ele>
        <time>2039-05-14T07:48:07.000Z</time>
      </trkpt>
      <trkpt lat="42.4266298301517963409423828125" lon="0.646688640117645263671875">
        <ele>1307.199951171875</ele>
        <time>2039-05-14T07:48:08.000Z</time>
      </trkpt>
      <trkpt lat="42.4266524612903594970703125" lon="0.64678511582314968109130859375">
        <ele>1306.800048828125</ele>
        <time>2039-05-14T07:48:09.000Z</time>
      </trkpt>
      <trkpt lat="42.4267394654452800750732421875" lon="0.6469338946044445037841796875">
        <ele>1305.800048828125</ele>
        <time>2039-05-14T07:48:11.000Z</time>
      </trkpt>
      <trkpt lat="42.42679528892040252685546875" lon="0.646986030042171478271484375">
        <ele>1305.4000244140625</ele>
        <time>2039-05-14T07:48:12.000Z</time>
      </trkpt>
      <trkpt lat="42.4268594942986965179443359375" lon="0.64701058901846408843994140625">
        <ele>1304.800048828125</ele>
        <time>2039-05-14T07:48:13.000Z</time>
      </trkpt>
      <trkpt lat="42.42700793780386447906494140625" lon="0.64701695926487445831298828125">
        <ele>1303.800048828125</ele>
        <time>2039-05-14T07:48:15.000Z</time>
      </trkpt>
      <trkpt lat="42.42708773352205753326416015625" lon="0.64702265895903110504150390625">
        <ele>1303.4000244140625</ele>
        <time>2039-05-14T07:48:16.000Z</time>
      </trkpt>
      <trkpt lat="42.42717071436345577239990234375" lon="0.64703959040343761444091796875">
        <ele>1302.800048828125</ele>
        <time>2039-05-14T07:48:17.000Z</time>
      </trkpt>
      <trkpt lat="42.4273422919213771820068359375" lon="0.647103376686573028564453125">
        <ele>1301.800048828125</ele>
        <time>2039-05-14T07:48:19.000Z</time>
      </trkpt>
      <trkpt lat="42.427508421242237091064453125" lon="0.64718023873865604400634765625">
        <ele>1300.4000244140625</ele>
        <time>2039-05-14T07:48:21.000Z</time>
      </trkpt>
      <trkpt lat="42.4275816790759563446044921875" lon="0.64723153598606586456298828125">
        <ele>1299.5999755859375</ele>
        <time>2039-05-14T07:48:22.000Z</time>
      </trkpt>
      <trkpt lat="42.42764462716877460479736328125" lon="0.6472939811646938323974609375">
        <ele>1299</ele>
        <time>2039-05-14T07:48:23.000Z</time>
      </trkpt>
      <trkpt lat="42.42774638347327709197998046875" lon="0.64745700918138027191162109375">
        <ele>1297.800048828125</ele>
        <time>2039-05-14T07:48:25.000Z</time>
      </trkpt>
      <trkpt lat="42.4277942441403865814208984375" lon="0.64754887484014034271240234375">
        <ele>1297.199951171875</ele>
        <time>2039-05-14T07:48:26.000Z</time>
      </trkpt>
      <trkpt lat="42.427844703197479248046875" lon="0.64763956703245639801025390625">
        <ele>1296.5999755859375</ele>
        <time>2039-05-14T07:48:27.000Z</time>
      </trkpt>
      <trkpt lat="42.42789826355874538421630859375" lon="0.64772472716867923736572265625">
        <ele>1296</ele>
        <time>2039-05-14T07:48:28.000Z</time>
      </trkpt>
      <trkpt lat="42.42796028964221477508544921875" lon="0.6477922014892101287841796875">
        <ele>1295</ele>
        <time>2039-05-14T07:48:29.000Z</time>
      </trkpt>
      <trkpt lat="42.4280299432575702667236328125" lon="0.6478391401469707489013671875">
        <ele>1294.5999755859375</ele>
        <time>2039-05-14T07:48:30.000Z</time>
      </trkpt>
      <trkpt lat="42.4281761236488819122314453125" lon="0.64784408546984195709228515625">
        <ele>1294</ele>
        <time>2039-05-14T07:48:32.000Z</time>
      </trkpt>
      <trkpt lat="42.42824812419712543487548828125" lon="0.64780318178236484527587890625">
        <ele>1293.4000244140625</ele>
        <time>2039-05-14T07:48:33.000Z</time>
      </trkpt>
      <trkpt lat="42.42832037620246410369873046875" lon="0.6477442570030689239501953125">
        <ele>1292.5999755859375</ele>
        <time>2039-05-14T07:48:34.000Z</time>
      </trkpt>
      <trkpt lat="42.4284602701663970947265625" lon="0.64759933389723300933837890625">
        <ele>1291.4000244140625</ele>
        <time>2039-05-14T07:48:36.000Z</time>
      </trkpt>
      <trkpt lat="42.4285278283059597015380859375" lon="0.64752054400742053985595703125">
        <ele>1290.199951171875</ele>
        <time>2039-05-14T07:48:37.000Z</time>
      </trkpt>
      <trkpt lat="42.42866336368024349212646484375" lon="0.6473747827112674713134765625">
        <ele>1288.800048828125</ele>
        <time>2039-05-14T07:48:39.000Z</time>
      </trkpt>
      <trkpt lat="42.428807951509952545166015625" lon="0.647257603704929351806640625">
        <ele>1288</ele>
        <time>2039-05-14T07:48:41.000Z</time>
      </trkpt>
      <trkpt lat="42.4288905970752239227294921875" lon="0.64721904695034027099609375">
        <ele>1287.199951171875</ele>
        <time>2039-05-14T07:48:42.000Z</time>
      </trkpt>
      <trkpt lat="42.42907156236469745635986328125" lon="0.64719021320343017578125">
        <ele>1286.199951171875</ele>
        <time>2039-05-14T07:48:44.000Z</time>
      </trkpt>
      <trkpt lat="42.42916594259440898895263671875" lon="0.64719079993665218353271484375">
        <ele>1285.199951171875</ele>
        <time>2039-05-14T07:48:45.000Z</time>
      </trkpt>
      <trkpt lat="42.42926300503313541412353515625" lon="0.6471915543079376220703125">
        <ele>1284.4000244140625</ele>
        <time>2039-05-14T07:48:46.000Z</time>
      </trkpt>
      <trkpt lat="42.42946199141442775726318359375" lon="0.64718392677605152130126953125">
        <ele>1282.800048828125</ele>
        <time>2039-05-14T07:48:48.000Z</time>
      </trkpt>
      <trkpt lat="42.4296660907566547393798828125" lon="0.647179149091243743896484375">
        <ele>1281.800048828125</ele>
        <time>2039-05-14T07:48:50.000Z</time>
      </trkpt>
      <trkpt lat="42.4298746325075626373291015625" lon="0.6471861898899078369140625">
        <ele>1280.5999755859375</ele>
        <time>2039-05-14T07:48:52.000Z</time>
      </trkpt>
      <trkpt lat="42.4299785681068897247314453125" lon="0.6472011096775531768798828125">
        <ele>1279.4000244140625</ele>
        <time>2039-05-14T07:48:53.000Z</time>
      </trkpt>
      <trkpt lat="42.43008040823042392730712890625" lon="0.647228769958019256591796875">
        <ele>1278.4000244140625</ele>
        <time>2039-05-14T07:48:54.000Z</time>
      </trkpt>
      <trkpt lat="42.430268414318561553955078125" lon="0.64728987403213977813720703125">
        <ele>1277</ele>
        <time>2039-05-14T07:48:56.000Z</time>
      </trkpt>
      <trkpt lat="42.43035382591187953948974609375" lon="0.6473070569336414337158203125">
        <ele>1276.4000244140625</ele>
        <time>2039-05-14T07:48:57.000Z</time>
      </trkpt>
      <trkpt lat="42.430431358516216278076171875" lon="0.6473122537136077880859375">
        <ele>1275.5999755859375</ele>
        <time>2039-05-14T07:48:58.000Z</time>
      </trkpt>
      <trkpt lat="42.4304985813796520233154296875" lon="0.6473067216575145721435546875">
        <ele>1275</ele>
        <time>2039-05-14T07:48:59.000Z</time>
      </trkpt>
      <trkpt lat="42.4305891059339046478271484375" lon="0.6472772173583507537841796875">
        <ele>1274.4000244140625</ele>
        <time>2039-05-14T07:49:01.000Z</time>
      </trkpt>
      <trkpt lat="42.43061006069183349609375" lon="0.647266320884227752685546875">
        <ele>1274.199951171875</ele>
        <time>2039-05-14T07:49:02.000Z</time>
      </trkpt>
      <trkpt lat="42.43060846813023090362548828125" lon="0.64726590178906917572021484375">
        <ele>1273.5999755859375</ele>
        <time>2039-05-14T07:49:06.000Z</time>
      </trkpt>
      <trkpt lat="42.4306087195873260498046875" lon="0.64726690761744976043701171875">
        <ele>1273.4000244140625</ele>
        <time>2039-05-14T07:49:16.000Z</time>
      </trkpt>
      <trkpt lat="42.43060846813023090362548828125" lon="0.647262297570705413818359375">
        <ele>1273.4000244140625</ele>
        <time>2039-05-14T07:49:21.000Z</time>
      </trkpt>
      <trkpt lat="42.43061416782438755035400390625" lon="0.64725584350526332855224609375">
        <ele>1273.4000244140625</ele>
        <time>2039-05-14T07:49:23.000Z</time>
      </trkpt>
      <trkpt lat="42.4306400679051876068115234375" lon="0.64722650684416294097900390625">
        <ele>1273.4000244140625</ele>
        <time>2039-05-14T07:49:25.000Z</time>
      </trkpt>
      <trkpt lat="42.4306772835552692413330078125" lon="0.64718342386186122894287109375">
        <ele>1273</ele>
        <time>2039-05-14T07:49:27.000Z</time>
      </trkpt>
      <trkpt lat="42.43076085112988948822021484375" lon="0.647086612880229949951171875">
        <ele>1272.5999755859375</ele>
        <time>2039-05-14T07:49:30.000Z</time>
      </trkpt>
      <trkpt lat="42.43088792078197002410888671875" lon="0.64698091708123683929443359375">
        <ele>1272</ele>
        <time>2039-05-14T07:49:33.000Z</time>
      </trkpt>
      <trkpt lat="42.4309683032333850860595703125" lon="0.64691570587456226348876953125">
        <ele>1271.199951171875</ele>
        <time>2039-05-14T07:49:35.000Z</time>
      </trkpt>
      <trkpt lat="42.4310092069208621978759765625" lon="0.6468805857002735137939453125">
        <ele>1270.5999755859375</ele>
        <time>2039-05-14T07:49:36.000Z</time>
      </trkpt>
      <trkpt lat="42.43114524520933628082275390625" lon="0.6466633267700672149658203125">
        <ele>1269.5999755859375</ele>
        <time>2039-05-14T07:49:39.000Z</time>
      </trkpt>
      <trkpt lat="42.43118162266910076141357421875" lon="0.64651924185454845428466796875">
        <ele>1268.5999755859375</ele>
        <time>2039-05-14T07:49:41.000Z</time>
      </trkpt>
      <trkpt lat="42.43118246085941791534423828125" lon="0.646434165537357330322265625">
        <ele>1268.199951171875</ele>
        <time>2039-05-14T07:49:42.000Z</time>
      </trkpt>
      <trkpt lat="42.43119503371417522430419921875" lon="0.6462742388248443603515625">
        <ele>1267.199951171875</ele>
        <time>2039-05-14T07:49:44.000Z</time>
      </trkpt>
      <trkpt lat="42.43118765763938426971435546875" lon="0.6462083570659160614013671875">
        <ele>1266.800048828125</ele>
        <time>2039-05-14T07:49:45.000Z</time>
      </trkpt>
      <trkpt lat="42.431115992367267608642578125" lon="0.64612478949129581451416015625">
        <ele>1266</ele>
        <time>2039-05-14T07:49:47.000Z</time>
      </trkpt>
      <trkpt lat="42.43106746114790439605712890625" lon="0.64611389301717281341552734375">
        <ele>1265.5999755859375</ele>
        <time>2039-05-14T07:49:48.000Z</time>
      </trkpt>
      <trkpt lat="42.43096612393856048583984375" lon="0.6461634300649166107177734375">
        <ele>1264.5999755859375</ele>
        <time>2039-05-14T07:49:50.000Z</time>
      </trkpt>
      <trkpt lat="42.430916167795658111572265625" lon="0.64621699042618274688720703125">
        <ele>1264</ele>
        <time>2039-05-14T07:49:51.000Z</time>
      </trkpt>
      <trkpt lat="42.43082505650818347930908203125" lon="0.64636032097041606903076171875">
        <ele>1263.199951171875</ele>
        <time>2039-05-14T07:49:53.000Z</time>
      </trkpt>
      <trkpt lat="42.43078230880200862884521484375" lon="0.64644363708794116973876953125">
        <ele>1262.800048828125</ele>
        <time>2039-05-14T07:49:54.000Z</time>
      </trkpt>
      <trkpt lat="42.43064585141837596893310546875" lon="0.6467146240174770355224609375">
        <ele>1261.4000244140625</ele>
        <time>2039-05-14T07:49:57.000Z</time>
      </trkpt>
      <trkpt lat="42.4305897764861583709716796875" lon="0.646799616515636444091796875">
        <ele>1260.5999755859375</ele>
        <time>2039-05-14T07:49:58.000Z</time>
      </trkpt>
      <trkpt lat="42.43052699603140354156494140625" lon="0.64687245525419712066650390625">
        <ele>1260</ele>
        <time>2039-05-14T07:49:59.000Z</time>
      </trkpt>
      <trkpt lat="42.43036958388984203338623046875" lon="0.646961219608783721923828125">
        <ele>1258.5999755859375</ele>
        <time>2039-05-14T07:50:01.000Z</time>
      </trkpt>
      <trkpt lat="42.43027403019368648529052734375" lon="0.64697169698774814605712890625">
        <ele>1257.5999755859375</ele>
        <time>2039-05-14T07:50:02.000Z</time>
      </trkpt>
      <trkpt lat="42.430082000792026519775390625" lon="0.64692626707255840301513671875">
        <ele>1255.800048828125</ele>
        <time>2039-05-14T07:50:04.000Z</time>
      </trkpt>
      <trkpt lat="42.42987974546849727630615234375" lon="0.6468648277223110198974609375">
        <ele>1254</ele>
        <time>2039-05-14T07:50:06.000Z</time>
      </trkpt>
      <trkpt lat="42.42966684512794017791748046875" lon="0.64679802395403385162353515625">
        <ele>1252.800048828125</ele>
        <time>2039-05-14T07:50:08.000Z</time>
      </trkpt>
      <trkpt lat="42.42956626228988170623779296875" lon="0.64675695262849330902099609375">
        <ele>1252</ele>
        <time>2039-05-14T07:50:09.000Z</time>
      </trkpt>
      <trkpt lat="42.4294686131179332733154296875" lon="0.64671386964619159698486328125">
        <ele>1250.800048828125</ele>
        <time>2039-05-14T07:50:10.000Z</time>
      </trkpt>
      <trkpt lat="42.42927691899240016937255859375" lon="0.64660239033401012420654296875">
        <ele>1249</ele>
        <time>2039-05-14T07:50:12.000Z</time>
      </trkpt>
      <trkpt lat="42.4291816167533397674560546875" lon="0.64652837812900543212890625">
        <ele>1248.199951171875</ele>
        <time>2039-05-14T07:50:13.000Z</time>
      </trkpt>
      <trkpt lat="42.429089248180389404296875" lon="0.6464485824108123779296875">
        <ele>1247.4000244140625</ele>
        <time>2039-05-14T07:50:14.000Z</time>
      </trkpt>
      <trkpt lat="42.42890241555869579315185546875" lon="0.6462941877543926239013671875">
        <ele>1246</ele>
        <time>2039-05-14T07:50:16.000Z</time>
      </trkpt>
      <trkpt lat="42.42870594374835491180419921875" lon="0.64615814946591854095458984375">
        <ele>1244.5999755859375</ele>
        <time>2039-05-14T07:50:18.000Z</time>
      </trkpt>
      <trkpt lat="42.42860418744385242462158203125" lon="0.6461040861904621124267578125">
        <ele>1243.800048828125</ele>
        <time>2039-05-14T07:50:19.000Z</time>
      </trkpt>
      <trkpt lat="42.42850209586322307586669921875" lon="0.646052621304988861083984375">
        <ele>1243</ele>
        <time>2039-05-14T07:50:20.000Z</time>
      </trkpt>
      <trkpt lat="42.42830880917608737945556640625" lon="0.6459485180675983428955078125">
        <ele>1241.4000244140625</ele>
        <time>2039-05-14T07:50:22.000Z</time>
      </trkpt>
      <trkpt lat="42.42822230793535709381103515625" lon="0.64588590525090694427490234375">
        <ele>1240.800048828125</ele>
        <time>2039-05-14T07:50:23.000Z</time>
      </trkpt>
      <trkpt lat="42.42814301513135433197021484375" lon="0.64580946229398250579833984375">
        <ele>1240.4000244140625</ele>
        <time>2039-05-14T07:50:24.000Z</time>
      </trkpt>
      <trkpt lat="42.428016364574432373046875" lon="0.6456021778285503387451171875">
        <ele>1239</ele>
        <time>2039-05-14T07:50:26.000Z</time>
      </trkpt>
      <trkpt lat="42.427965737879276275634765625" lon="0.6454831548035144805908203125">
        <ele>1238.4000244140625</ele>
        <time>2039-05-14T07:50:27.000Z</time>
      </trkpt>
      <trkpt lat="42.42791754193603992462158203125" lon="0.6453634612262248992919921875">
        <ele>1237.800048828125</ele>
        <time>2039-05-14T07:50:28.000Z</time>
      </trkpt>
      <trkpt lat="42.42783003486692905426025390625" lon="0.6451294384896755218505859375">
        <ele>1236.5999755859375</ele>
        <time>2039-05-14T07:50:30.000Z</time>
      </trkpt>
      <trkpt lat="42.4277982674539089202880859375" lon="0.64501083455979824066162109375">
        <ele>1235.800048828125</ele>
        <time>2039-05-14T07:50:31.000Z</time>
      </trkpt>
      <trkpt lat="42.4277828447520732879638671875" lon="0.64489281736314296722412109375">
        <ele>1235.199951171875</ele>
        <time>2039-05-14T07:50:32.000Z</time>
      </trkpt>
      <trkpt lat="42.42780203931033611297607421875" lon="0.64465359784662723541259765625">
        <ele>1234</ele>
        <time>2039-05-14T07:50:34.000Z</time>
      </trkpt>
      <trkpt lat="42.42783506400883197784423828125" lon="0.64453876577317714691162109375">
        <ele>1233.199951171875</ele>
        <time>2039-05-14T07:50:35.000Z</time>
      </trkpt>
      <trkpt lat="42.42787093855440616607666015625" lon="0.64442217350006103515625">
        <ele>1232.800048828125</ele>
        <time>2039-05-14T07:50:36.000Z</time>
      </trkpt>
      <trkpt lat="42.427911423146724700927734375" lon="0.64417205750942230224609375">
        <ele>1231.5999755859375</ele>
        <time>2039-05-14T07:50:38.000Z</time>
      </trkpt>
      <trkpt lat="42.427912764251232147216796875" lon="0.643918924033641815185546875">
        <ele>1230</ele>
        <time>2039-05-14T07:50:40.000Z</time>
      </trkpt>
      <trkpt lat="42.4279122613370418548583984375" lon="0.64366067759692668914794921875">
        <ele>1229</ele>
        <time>2039-05-14T07:50:42.000Z</time>
      </trkpt>
      <trkpt lat="42.42791955359280109405517578125" lon="0.6435355357825756072998046875">
        <ele>1228.199951171875</ele>
        <time>2039-05-14T07:50:43.000Z</time>
      </trkpt>
      <trkpt lat="42.4279323779046535491943359375" lon="0.64341575838625431060791015625">
        <ele>1227.4000244140625</ele>
        <time>2039-05-14T07:50:44.000Z</time>
      </trkpt>
      <trkpt lat="42.4279654026031494140625" lon="0.643183328211307525634765625">
        <ele>1226</ele>
        <time>2039-05-14T07:50:46.000Z</time>
      </trkpt>
      <trkpt lat="42.427990548312664031982421875" lon="0.6429514847695827484130859375">
        <ele>1225</ele>
        <time>2039-05-14T07:50:48.000Z</time>
      </trkpt>
      <trkpt lat="42.42799985222518444061279296875" lon="0.64283430576324462890625">
        <ele>1224.199951171875</ele>
        <time>2039-05-14T07:50:49.000Z</time>
      </trkpt>
      <trkpt lat="42.4280058033764362335205078125" lon="0.64259894192218780517578125">
        <ele>1223</ele>
        <time>2039-05-14T07:50:51.000Z</time>
      </trkpt>
      <trkpt lat="42.4280004389584064483642578125" lon="0.64235460944473743438720703125">
        <ele>1221.800048828125</ele>
        <time>2039-05-14T07:50:53.000Z</time>
      </trkpt>
      <trkpt lat="42.42799096740782260894775390625" lon="0.64211077988147735595703125">
        <ele>1220.5999755859375</ele>
        <time>2039-05-14T07:50:55.000Z</time>
      </trkpt>
      <trkpt lat="42.42797688581049442291259765625" lon="0.6418740749359130859375">
        <ele>1219</ele>
        <time>2039-05-14T07:50:57.000Z</time>
      </trkpt>
      <trkpt lat="42.42796649225056171417236328125" lon="0.641757734119892120361328125">
        <ele>1218.4000244140625</ele>
        <time>2039-05-14T07:50:58.000Z</time>
      </trkpt>
      <trkpt lat="42.42795375175774097442626953125" lon="0.6416402198374271392822265625">
        <ele>1218</ele>
        <time>2039-05-14T07:50:59.000Z</time>
      </trkpt>
      <trkpt lat="42.4279397539794445037841796875" lon="0.64152044244110584259033203125">
        <ele>1217.4000244140625</ele>
        <time>2039-05-14T07:51:00.000Z</time>
      </trkpt>
      <trkpt lat="42.42792290635406970977783203125" lon="0.64139823429286479949951171875">
        <ele>1216.5999755859375</ele>
        <time>2039-05-14T07:51:01.000Z</time>
      </trkpt>
      <trkpt lat="42.42787295021116733551025390625" lon="0.64115012995898723602294921875">
        <ele>1215</ele>
        <time>2039-05-14T07:51:03.000Z</time>
      </trkpt>
      <trkpt lat="42.427810169756412506103515625" lon="0.640902779996395111083984375">
        <ele>1213.5999755859375</ele>
        <time>2039-05-14T07:51:05.000Z</time>
      </trkpt>
      <trkpt lat="42.42774613201618194580078125" lon="0.64065509475767612457275390625">
        <ele>1212.199951171875</ele>
        <time>2039-05-14T07:51:07.000Z</time>
      </trkpt>
      <trkpt lat="42.4276851117610931396484375" lon="0.6404164619743824005126953125">
        <ele>1210.800048828125</ele>
        <time>2039-05-14T07:51:09.000Z</time>
      </trkpt>
      <trkpt lat="42.42763171903789043426513671875" lon="0.6401918269693851470947265625">
        <ele>1209.199951171875</ele>
        <time>2039-05-14T07:51:11.000Z</time>
      </trkpt>
      <trkpt lat="42.42761730216443538665771484375" lon="0.64008160494267940521240234375">
        <ele>1208.5999755859375</ele>
        <time>2039-05-14T07:51:12.000Z</time>
      </trkpt>
      <trkpt lat="42.4276195652782917022705078125" lon="0.639978758990764617919921875">
        <ele>1208</ele>
        <time>2039-05-14T07:51:13.000Z</time>
      </trkpt>
      <trkpt lat="42.4276715330779552459716796875" lon="0.6397774256765842437744140625">
        <ele>1206.800048828125</ele>
        <time>2039-05-14T07:51:15.000Z</time>
      </trkpt>
      <trkpt lat="42.42770992219448089599609375" lon="0.63968069851398468017578125">
        <ele>1206.4000244140625</ele>
        <time>2039-05-14T07:51:16.000Z</time>
      </trkpt>
      <trkpt lat="42.42774873040616512298583984375" lon="0.63958053477108478546142578125">
        <ele>1205.800048828125</ele>
        <time>2039-05-14T07:51:17.000Z</time>
      </trkpt>
      <trkpt lat="42.4277831800282001495361328125" lon="0.63947726972401142120361328125">
        <ele>1205.199951171875</ele>
        <time>2039-05-14T07:51:18.000Z</time>
      </trkpt>
      <trkpt lat="42.42780916392803192138671875" lon="0.639371238648891448974609375">
        <ele>1204.800048828125</ele>
        <time>2039-05-14T07:51:19.000Z</time>
      </trkpt>
      <trkpt lat="42.42782550863921642303466796875" lon="0.639266632497310638427734375">
        <ele>1204</ele>
        <time>2039-05-14T07:51:20.000Z</time>
      </trkpt>
      <trkpt lat="42.4278321303427219390869140625" lon="0.63916361890733242034912109375">
        <ele>1203.4000244140625</ele>
        <time>2039-05-14T07:51:21.000Z</time>
      </trkpt>
      <trkpt lat="42.4278157018125057220458984375" lon="0.63895490951836109161376953125">
        <ele>1202.199951171875</ele>
        <time>2039-05-14T07:51:23.000Z</time>
      </trkpt>
      <trkpt lat="42.42779843509197235107421875" lon="0.6388487108051776885986328125">
        <ele>1201.5999755859375</ele>
        <time>2039-05-14T07:51:24.000Z</time>
      </trkpt>
      <trkpt lat="42.42778175510466098785400390625" lon="0.6387427635490894317626953125">
        <ele>1200.5999755859375</ele>
        <time>2039-05-14T07:51:25.000Z</time>
      </trkpt>
      <trkpt lat="42.42775510065257549285888671875" lon="0.63853807747364044189453125">
        <ele>1199.4000244140625</ele>
        <time>2039-05-14T07:51:27.000Z</time>
      </trkpt>
      <trkpt lat="42.42773481644690036773681640625" lon="0.6382361613214015960693359375">
        <ele>1197.800048828125</ele>
        <time>2039-05-14T07:51:30.000Z</time>
      </trkpt>
      <trkpt lat="42.42774319835007190704345703125" lon="0.638034157454967498779296875">
        <ele>1196.5999755859375</ele>
        <time>2039-05-14T07:51:32.000Z</time>
      </trkpt>
      <trkpt lat="42.42775409482419490814208984375" lon="0.63783441670238971710205078125">
        <ele>1195.4000244140625</ele>
        <time>2039-05-14T07:51:34.000Z</time>
      </trkpt>
      <trkpt lat="42.4277573637664318084716796875" lon="0.63763291575014591217041015625">
        <ele>1194.199951171875</ele>
        <time>2039-05-14T07:51:36.000Z</time>
      </trkpt>
      <trkpt lat="42.42775241844356060028076171875" lon="0.6373406387865543365478515625">
        <ele>1192.800048828125</ele>
        <time>2039-05-14T07:51:39.000Z</time>
      </trkpt>
      <trkpt lat="42.4277462996542453765869140625" lon="0.63715078867971897125244140625">
        <ele>1191.5999755859375</ele>
        <time>2039-05-14T07:51:41.000Z</time>
      </trkpt>
      <trkpt lat="42.42773850448429584503173828125" lon="0.6369540654122829437255859375">
        <ele>1190.4000244140625</ele>
        <time>2039-05-14T07:51:43.000Z</time>
      </trkpt>
      <trkpt lat="42.4277275241911411285400390625" lon="0.6367579288780689239501953125">
        <ele>1189.4000244140625</ele>
        <time>2039-05-14T07:51:45.000Z</time>
      </trkpt>
      <trkpt lat="42.4277172982692718505859375" lon="0.6365530751645565032958984375">
        <ele>1188.4000244140625</ele>
        <time>2039-05-14T07:51:47.000Z</time>
      </trkpt>
      <trkpt lat="42.42771805264055728912353515625" lon="0.6364524923264980316162109375">
        <ele>1188</ele>
        <time>2039-05-14T07:51:48.000Z</time>
      </trkpt>
      <trkpt lat="42.42773196659982204437255859375" lon="0.63626046292483806610107421875">
        <ele>1187</ele>
        <time>2039-05-14T07:51:50.000Z</time>
      </trkpt>
      <trkpt lat="42.42776331491768360137939453125" lon="0.63606885261833667755126953125">
        <ele>1186</ele>
        <time>2039-05-14T07:51:52.000Z</time>
      </trkpt>
      <trkpt lat="42.42778980173170566558837890625" lon="0.63597598113119602203369140625">
        <ele>1185.4000244140625</ele>
        <time>2039-05-14T07:51:53.000Z</time>
      </trkpt>
      <trkpt lat="42.427826263010501861572265625" lon="0.635887049138545989990234375">
        <ele>1184.800048828125</ele>
        <time>2039-05-14T07:51:54.000Z</time>
      </trkpt>
      <trkpt lat="42.427873872220516204833984375" lon="0.6358057446777820587158203125">
        <ele>1184.4000244140625</ele>
        <time>2039-05-14T07:51:55.000Z</time>
      </trkpt>
      <trkpt lat="42.42799733765423297882080078125" lon="0.635673142969608306884765625">
        <ele>1183.4000244140625</ele>
        <time>2039-05-14T07:51:57.000Z</time>
      </trkpt>
      <trkpt lat="42.42806523106992244720458984375" lon="0.63561639748513698577880859375">
        <ele>1183.199951171875</ele>
        <time>2039-05-14T07:51:58.000Z</time>
      </trkpt>
      <trkpt lat="42.42825767956674098968505859375" lon="0.635449849069118499755859375">
        <ele>1182.4000244140625</ele>
        <time>2039-05-14T07:52:01.000Z</time>
      </trkpt>
      <trkpt lat="42.4283742718398571014404296875" lon="0.63534800894558429718017578125">
        <ele>1182.199951171875</ele>
        <time>2039-05-14T07:52:03.000Z</time>
      </trkpt>
      <trkpt lat="42.42842699401080608367919921875" lon="0.6352932751178741455078125">
        <ele>1182.199951171875</ele>
        <time>2039-05-14T07:52:04.000Z</time>
      </trkpt>
      <trkpt lat="42.428472340106964111328125" lon="0.63523300923407077789306640625">
        <ele>1182</ele>
        <time>2039-05-14T07:52:05.000Z</time>
      </trkpt>
      <trkpt lat="42.42853813804686069488525390625" lon="0.63510107807815074920654296875">
        <ele>1181.800048828125</ele>
        <time>2039-05-14T07:52:07.000Z</time>
      </trkpt>
      <trkpt lat="42.42859060876071453094482421875" lon="0.63482615165412425994873046875">
        <ele>1181.5999755859375</ele>
        <time>2039-05-14T07:52:11.000Z</time>
      </trkpt>
      <trkpt lat="42.4285455979406833648681640625" lon="0.63458072952926158905029296875">
        <ele>1181.5999755859375</ele>
        <time>2039-05-14T07:52:15.000Z</time>
      </trkpt>
      <trkpt lat="42.42843319661915302276611328125" lon="0.6343657337129116058349609375">
        <ele>1181.199951171875</ele>
        <time>2039-05-14T07:52:19.000Z</time>
      </trkpt>
      <trkpt lat="42.4284034408628940582275390625" lon="0.634313262999057769775390625">
        <ele>1181.199951171875</ele>
        <time>2039-05-14T07:52:20.000Z</time>
      </trkpt>
      <trkpt lat="42.42819548584520816802978515625" lon="0.63388444483280181884765625">
        <ele>1180.5999755859375</ele>
        <time>2039-05-14T07:52:28.000Z</time>
      </trkpt>
      <trkpt lat="42.42814435623586177825927734375" lon="0.6337833590805530548095703125">
        <ele>1180.199951171875</ele>
        <time>2039-05-14T07:52:30.000Z</time>
      </trkpt>
      <trkpt lat="42.4281214736402034759521484375" lon="0.63373164273798465728759765625">
        <ele>1180.199951171875</ele>
        <time>2039-05-14T07:52:31.000Z</time>
      </trkpt>
      <trkpt lat="42.42801929824054241180419921875" lon="0.633526705205440521240234375">
        <ele>1179.800048828125</ele>
        <time>2039-05-14T07:52:35.000Z</time>
      </trkpt>
      <trkpt lat="42.42785853333771228790283203125" lon="0.6331798620522022247314453125">
        <ele>1178.800048828125</ele>
        <time>2039-05-14T07:52:41.000Z</time>
      </trkpt>
      <trkpt lat="42.4278036318719387054443359375" lon="0.63304147683084011077880859375">
        <ele>1178.4000244140625</ele>
        <time>2039-05-14T07:52:43.000Z</time>
      </trkpt>
      <trkpt lat="42.4277794919908046722412109375" lon="0.63296587206423282623291015625">
        <ele>1178.199951171875</ele>
        <time>2039-05-14T07:52:44.000Z</time>
      </trkpt>
      <trkpt lat="42.42774487473070621490478515625" lon="0.6328010000288486480712890625">
        <ele>1177.5999755859375</ele>
        <time>2039-05-14T07:52:46.000Z</time>
      </trkpt>
      <trkpt lat="42.427729703485965728759765625" lon="0.63262824900448322296142578125">
        <ele>1177</ele>
        <time>2039-05-14T07:52:48.000Z</time>
      </trkpt>
      <trkpt lat="42.42774839513003826141357421875" lon="0.632351897656917572021484375">
        <ele>1176.4000244140625</ele>
        <time>2039-05-14T07:52:51.000Z</time>
      </trkpt>
      <trkpt lat="42.42776901461184024810791015625" lon="0.63226061873137950897216796875">
        <ele>1176.199951171875</ele>
        <time>2039-05-14T07:52:52.000Z</time>
      </trkpt>
      <trkpt lat="42.42779365740716457366943359375" lon="0.6321703456342220306396484375">
        <ele>1175.800048828125</ele>
        <time>2039-05-14T07:52:53.000Z</time>
      </trkpt>
      <trkpt lat="42.42782265879213809967041015625" lon="0.63208208419382572174072265625">
        <ele>1175.5999755859375</ele>
        <time>2039-05-14T07:52:54.000Z</time>
      </trkpt>
      <trkpt lat="42.42785752750933170318603515625" lon="0.63199742697179317474365234375">
        <ele>1175.4000244140625</ele>
        <time>2039-05-14T07:52:55.000Z</time>
      </trkpt>
      <trkpt lat="42.427934892475605010986328125" lon="0.6318297050893306732177734375">
        <ele>1175</ele>
        <time>2039-05-14T07:52:57.000Z</time>
      </trkpt>
      <trkpt lat="42.42805148474872112274169921875" lon="0.63156902790069580078125">
        <ele>1174.199951171875</ele>
        <time>2039-05-14T07:53:00.000Z</time>
      </trkpt>
      <trkpt lat="42.428250722587108612060546875" lon="0.63112604431807994842529296875">
        <ele>1173</ele>
        <time>2039-05-14T07:53:05.000Z</time>
      </trkpt>
      <trkpt lat="42.42829070426523685455322265625" lon="0.6310379505157470703125">
        <ele>1172.800048828125</ele>
        <time>2039-05-14T07:53:06.000Z</time>
      </trkpt>
      <trkpt lat="42.42844325490295886993408203125" lon="0.63068062998354434967041015625">
        <ele>1171.800048828125</ele>
        <time>2039-05-14T07:53:10.000Z</time>
      </trkpt>
      <trkpt lat="42.4285774491727352142333984375" lon="0.6303122453391551971435546875">
        <ele>1170.800048828125</ele>
        <time>2039-05-14T07:53:14.000Z</time>
      </trkpt>
      <trkpt lat="42.42860443890094757080078125" lon="0.63021719455718994140625">
        <ele>1170.5999755859375</ele>
        <time>2039-05-14T07:53:15.000Z</time>
      </trkpt>
      <trkpt lat="42.42870493791997432708740234375" lon="0.629721991717815399169921875">
        <ele>1169.5999755859375</ele>
        <time>2039-05-14T07:53:20.000Z</time>
      </trkpt>
      <trkpt lat="42.42873226292431354522705078125" lon="0.6295156292617321014404296875">
        <ele>1169</ele>
        <time>2039-05-14T07:53:22.000Z</time>
      </trkpt>
      <trkpt lat="42.428763024508953094482421875" lon="0.62920323573052883148193359375">
        <ele>1168.4000244140625</ele>
        <time>2039-05-14T07:53:25.000Z</time>
      </trkpt>
      <trkpt lat="42.4287843145430088043212890625" lon="0.628887154161930084228515625">
        <ele>1167.5999755859375</ele>
        <time>2039-05-14T07:53:28.000Z</time>
      </trkpt>
      <trkpt lat="42.4287923611700534820556640625" lon="0.62878078781068325042724609375">
        <ele>1167.4000244140625</ele>
        <time>2039-05-14T07:53:29.000Z</time>
      </trkpt>
      <trkpt lat="42.4288158304989337921142578125" lon="0.628353059291839599609375">
        <ele>1166.4000244140625</ele>
        <time>2039-05-14T07:53:33.000Z</time>
      </trkpt>
      <trkpt lat="42.428834438323974609375" lon="0.62803454697132110595703125">
        <ele>1166</ele>
        <time>2039-05-14T07:53:36.000Z</time>
      </trkpt>
      <trkpt lat="42.42881759069859981536865234375" lon="0.6275237537920475006103515625">
        <ele>1165.199951171875</ele>
        <time>2039-05-14T07:53:41.000Z</time>
      </trkpt>
      <trkpt lat="42.428799904882907867431640625" lon="0.627425350248813629150390625">
        <ele>1165.199951171875</ele>
        <time>2039-05-14T07:53:42.000Z</time>
      </trkpt>
      <trkpt lat="42.42863084189593791961669921875" lon="0.62689469195902347564697265625">
        <ele>1164.199951171875</ele>
        <time>2039-05-14T07:53:48.000Z</time>
      </trkpt>
      <trkpt lat="42.428561858832836151123046875" lon="0.62673308886587619781494140625">
        <ele>1164</ele>
        <time>2039-05-14T07:53:50.000Z</time>
      </trkpt>
      <trkpt lat="42.42845431901514530181884765625" lon="0.62650728039443492889404296875">
        <ele>1163.5999755859375</ele>
        <time>2039-05-14T07:53:53.000Z</time>
      </trkpt>
      <trkpt lat="42.42829598486423492431640625" lon="0.6261383928358554840087890625">
        <ele>1163.199951171875</ele>
        <time>2039-05-14T07:53:58.000Z</time>
      </trkpt>
      <trkpt lat="42.42812926881015300750732421875" lon="0.62576799653470516204833984375">
        <ele>1162.5999755859375</ele>
        <time>2039-05-14T07:54:03.000Z</time>
      </trkpt>
      <trkpt lat="42.42803421802818775177001953125" lon="0.6255489774048328399658203125">
        <ele>1162.199951171875</ele>
        <time>2039-05-14T07:54:06.000Z</time>
      </trkpt>
      <trkpt lat="42.428008653223514556884765625" lon="0.625473372638225555419921875">
        <ele>1162</ele>
        <time>2039-05-14T07:54:07.000Z</time>
      </trkpt>
      <trkpt lat="42.42797755636274814605712890625" lon="0.6253105960786342620849609375">
        <ele>1161.800048828125</ele>
        <time>2039-05-14T07:54:09.000Z</time>
      </trkpt>
      <trkpt lat="42.42800085805356502532958984375" lon="0.624972470104694366455078125">
        <ele>1161.4000244140625</ele>
        <time>2039-05-14T07:54:13.000Z</time>
      </trkpt>
      <trkpt lat="42.42804947309195995330810546875" lon="0.624816231429576873779296875">
        <ele>1161.199951171875</ele>
        <time>2039-05-14T07:54:15.000Z</time>
      </trkpt>
      <trkpt lat="42.42808031849563121795654296875" lon="0.62474439851939678192138671875">
        <ele>1161</ele>
        <time>2039-05-14T07:54:16.000Z</time>
      </trkpt>
      <trkpt lat="42.4281439371407032012939453125" lon="0.624603331089019775390625">
        <ele>1160.800048828125</ele>
        <time>2039-05-14T07:54:18.000Z</time>
      </trkpt>
      <trkpt lat="42.428327836096286773681640625" lon="0.6241833977401256561279296875">
        <ele>1160.4000244140625</ele>
        <time>2039-05-14T07:54:24.000Z</time>
      </trkpt>
      <trkpt lat="42.428343258798122406005859375" lon="0.62410418875515460968017578125">
        <ele>1160.199951171875</ele>
        <time>2039-05-14T07:54:25.000Z</time>
      </trkpt>
      <trkpt lat="42.42835122160613536834716796875" lon="0.6240207888185977935791015625">
        <ele>1160</ele>
        <time>2039-05-14T07:54:26.000Z</time>
      </trkpt>
      <trkpt lat="42.4283316917717456817626953125" lon="0.62375131063163280487060546875">
        <ele>1159.5999755859375</ele>
        <time>2039-05-14T07:54:29.000Z</time>
      </trkpt>
      <trkpt lat="42.42829606868326663970947265625" lon="0.62356808222830295562744140625">
        <ele>1158.4000244140625</ele>
        <time>2039-05-14T07:54:31.000Z</time>
      </trkpt>
      <trkpt lat="42.428239323198795318603515625" lon="0.62327957712113857269287109375">
        <ele>1156.800048828125</ele>
        <time>2039-05-14T07:54:34.000Z</time>
      </trkpt>
      <trkpt lat="42.4282284267246723175048828125" lon="0.6231836043298244476318359375">
        <ele>1156.4000244140625</ele>
        <time>2039-05-14T07:54:35.000Z</time>
      </trkpt>
      <trkpt lat="42.42823161184787750244140625" lon="0.6229926645755767822265625">
        <ele>1155</ele>
        <time>2039-05-14T07:54:37.000Z</time>
      </trkpt>
      <trkpt lat="42.42826237343251705169677734375" lon="0.6227909959852695465087890625">
        <ele>1154.199951171875</ele>
        <time>2039-05-14T07:54:39.000Z</time>
      </trkpt>
      <trkpt lat="42.428280226886272430419921875" lon="0.6226870603859424591064453125">
        <ele>1153.199951171875</ele>
        <time>2039-05-14T07:54:40.000Z</time>
      </trkpt>
      <trkpt lat="42.4283075518906116485595703125" lon="0.6224872358143329620361328125">
        <ele>1152.5999755859375</ele>
        <time>2039-05-14T07:54:42.000Z</time>
      </trkpt>
      <trkpt lat="42.42830981500446796417236328125" lon="0.62239109538495540618896484375">
        <ele>1152.199951171875</ele>
        <time>2039-05-14T07:54:43.000Z</time>
      </trkpt>
      <trkpt lat="42.4283028580248355865478515625" lon="0.62229353003203868865966796875">
        <ele>1151.800048828125</ele>
        <time>2039-05-14T07:54:44.000Z</time>
      </trkpt>
      <trkpt lat="42.42829062044620513916015625" lon="0.62219663523137569427490234375">
        <ele>1151</ele>
        <time>2039-05-14T07:54:45.000Z</time>
      </trkpt>
      <trkpt lat="42.42826019413769245147705078125" lon="0.6220118142664432525634765625">
        <ele>1149.800048828125</ele>
        <time>2039-05-14T07:54:47.000Z</time>
      </trkpt>
      <trkpt lat="42.42821375839412212371826171875" lon="0.621747784316539764404296875">
        <ele>1148.4000244140625</ele>
        <time>2039-05-14T07:54:50.000Z</time>
      </trkpt>
      <trkpt lat="42.42820872925221920013427734375" lon="0.6215699203312397003173828125">
        <ele>1147.199951171875</ele>
        <time>2039-05-14T07:54:52.000Z</time>
      </trkpt>
      <trkpt lat="42.42823806591331958770751953125" lon="0.62140538357198238372802734375">
        <ele>1145.800048828125</ele>
        <time>2039-05-14T07:54:54.000Z</time>
      </trkpt>
      <trkpt lat="42.4283544905483722686767578125" lon="0.621196590363979339599609375">
        <ele>1144.5999755859375</ele>
        <time>2039-05-14T07:54:57.000Z</time>
      </trkpt>
      <trkpt lat="42.42846773006021976470947265625" lon="0.62108837999403476715087890625">
        <ele>1143.4000244140625</ele>
        <time>2039-05-14T07:54:59.000Z</time>
      </trkpt>
      <trkpt lat="42.42859144695103168487548828125" lon="0.62097991816699504852294921875">
        <ele>1142.4000244140625</ele>
        <time>2039-05-14T07:55:01.000Z</time>
      </trkpt>
      <trkpt lat="42.42864961735904216766357421875" lon="0.62092141248285770416259765625">
        <ele>1142</ele>
        <time>2039-05-14T07:55:02.000Z</time>
      </trkpt>
      <trkpt lat="42.4287018366158008575439453125" lon="0.62085888348519802093505859375">
        <ele>1141.800048828125</ele>
        <time>2039-05-14T07:55:03.000Z</time>
      </trkpt>
      <trkpt lat="42.42874659597873687744140625" lon="0.620792247354984283447265625">
        <ele>1141.199951171875</ele>
        <time>2039-05-14T07:55:04.000Z</time>
      </trkpt>
      <trkpt lat="42.42880937643349170684814453125" lon="0.62063927762210369110107421875">
        <ele>1140.199951171875</ele>
        <time>2039-05-14T07:55:06.000Z</time>
      </trkpt>
      <trkpt lat="42.428825385868549346923828125" lon="0.62055327929556369781494140625">
        <ele>1139.800048828125</ele>
        <time>2039-05-14T07:55:07.000Z</time>
      </trkpt>
      <trkpt lat="42.42882932536303997039794921875" lon="0.62036401592195034027099609375">
        <ele>1138.800048828125</ele>
        <time>2039-05-14T07:55:09.000Z</time>
      </trkpt>
      <trkpt lat="42.4288223683834075927734375" lon="0.620263516902923583984375">
        <ele>1138.199951171875</ele>
        <time>2039-05-14T07:55:10.000Z</time>
      </trkpt>
      <trkpt lat="42.42880887351930141448974609375" lon="0.620053298771381378173828125">
        <ele>1137.4000244140625</ele>
        <time>2039-05-14T07:55:12.000Z</time>
      </trkpt>
      <trkpt lat="42.42880602367222309112548828125" lon="0.6198491156101226806640625">
        <ele>1136.199951171875</ele>
        <time>2039-05-14T07:55:14.000Z</time>
      </trkpt>
      <trkpt lat="42.4288134835660457611083984375" lon="0.619751550257205963134765625">
        <ele>1135.5999755859375</ele>
        <time>2039-05-14T07:55:15.000Z</time>
      </trkpt>
      <trkpt lat="42.42883033119142055511474609375" lon="0.61965532600879669189453125">
        <ele>1135.199951171875</ele>
        <time>2039-05-14T07:55:16.000Z</time>
      </trkpt>
      <trkpt lat="42.42885581217706203460693359375" lon="0.61956086196005344390869140625">
        <ele>1134.800048828125</ele>
        <time>2039-05-14T07:55:17.000Z</time>
      </trkpt>
      <trkpt lat="42.4289221130311489105224609375" lon="0.6193809024989604949951171875">
        <ele>1134</ele>
        <time>2039-05-14T07:55:19.000Z</time>
      </trkpt>
      <trkpt lat="42.42895807139575481414794921875" lon="0.61929867602884769439697265625">
        <ele>1133.5999755859375</ele>
        <time>2039-05-14T07:55:20.000Z</time>
      </trkpt>
      <trkpt lat="42.4291192553937435150146484375" lon="0.61895870603621006011962890625">
        <ele>1132.5999755859375</ele>
        <time>2039-05-14T07:55:25.000Z</time>
      </trkpt>
      <trkpt lat="42.42914666421711444854736328125" lon="0.61889030970633029937744140625">
        <ele>1132.5999755859375</ele>
        <time>2039-05-14T07:55:26.000Z</time>
      </trkpt>
      <trkpt lat="42.42923869751393795013427734375" lon="0.6185316480696201324462890625">
        <ele>1131.800048828125</ele>
        <time>2039-05-14T07:55:31.000Z</time>
      </trkpt>
      <trkpt lat="42.4292409606277942657470703125" lon="0.61845260672271251678466796875">
        <ele>1131.800048828125</ele>
        <time>2039-05-14T07:55:32.000Z</time>
      </trkpt>
      <trkpt lat="42.42922327481210231781005859375" lon="0.61829921789467334747314453125">
        <ele>1131.5999755859375</ele>
        <time>2039-05-14T07:55:34.000Z</time>
      </trkpt>
      <trkpt lat="42.4291826225817203521728515625" lon="0.6181645207107067108154296875">
        <ele>1131.5999755859375</ele>
        <time>2039-05-14T07:55:36.000Z</time>
      </trkpt>
      <trkpt lat="42.42903501726686954498291015625" lon="0.61795371584594249725341796875">
        <ele>1131.199951171875</ele>
        <time>2039-05-14T07:55:40.000Z</time>
      </trkpt>
      <trkpt lat="42.428942061960697174072265625" lon="0.61778322793543338775634765625">
        <ele>1130.800048828125</ele>
        <time>2039-05-14T07:55:44.000Z</time>
      </trkpt>
      <trkpt lat="42.42896427400410175323486328125" lon="0.617640316486358642578125">
        <ele>1131.199951171875</ele>
        <time>2039-05-14T07:55:49.000Z</time>
      </trkpt>
      <trkpt lat="42.4289941973984241485595703125" lon="0.617586337029933929443359375">
        <ele>1131.5999755859375</ele>
        <time>2039-05-14T07:55:52.000Z</time>
      </trkpt>
      <trkpt lat="42.429015822708606719970703125" lon="0.61754367314279079437255859375">
        <ele>1132.199951171875</ele>
        <time>2039-05-14T07:55:55.000Z</time>
      </trkpt>
      <trkpt lat="42.4290458299219608306884765625" lon="0.61751467175781726837158203125">
        <ele>1132.5999755859375</ele>
        <time>2039-05-14T07:55:58.000Z</time>
      </trkpt>
      <trkpt lat="42.42905815131962299346923828125" lon="0.6175077147781848907470703125">
        <ele>1133</ele>
        <time>2039-05-14T07:55:59.000Z</time>
      </trkpt>
      <trkpt lat="42.42907114326953887939453125" lon="0.61750017106533050537109375">
        <ele>1133.4000244140625</ele>
        <time>2039-05-14T07:56:00.000Z</time>
      </trkpt>
      <trkpt lat="42.42910006083548069000244140625" lon="0.6174916215240955352783203125">
        <ele>1134</ele>
        <time>2039-05-14T07:56:02.000Z</time>
      </trkpt>
      <trkpt lat="42.42915873415768146514892578125" lon="0.6174681521952152252197265625">
        <ele>1134.800048828125</ele>
        <time>2039-05-14T07:56:06.000Z</time>
      </trkpt>
      <trkpt lat="42.42922981269657611846923828125" lon="0.617428757250308990478515625">
        <ele>1135</ele>
        <time>2039-05-14T07:56:11.000Z</time>
      </trkpt>
      <trkpt lat="42.42925965227186679840087890625" lon="0.61742247082293033599853515625">
        <ele>1135.199951171875</ele>
        <time>2039-05-14T07:56:13.000Z</time>
      </trkpt>
      <trkpt lat="42.429298795759677886962890625" lon="0.6174084730446338653564453125">
        <ele>1135.4000244140625</ele>
        <time>2039-05-14T07:56:16.000Z</time>
      </trkpt>
      <trkpt lat="42.42935084737837314605712890625" lon="0.6173873506486415863037109375">
        <ele>1136</ele>
        <time>2039-05-14T07:56:20.000Z</time>
      </trkpt>
      <trkpt lat="42.42936425842344760894775390625" lon="0.6173833273351192474365234375">
        <ele>1136.199951171875</ele>
        <time>2039-05-14T07:56:21.000Z</time>
      </trkpt>
      <trkpt lat="42.42945377714931964874267578125" lon="0.61734502203762531280517578125">
        <ele>1137</ele>
        <time>2039-05-14T07:56:28.000Z</time>
      </trkpt>
      <trkpt lat="42.42947883903980255126953125" lon="0.61733194626867771148681640625">
        <ele>1137.199951171875</ele>
        <time>2039-05-14T07:56:30.000Z</time>
      </trkpt>
      <trkpt lat="42.429491914808750152587890625" lon="0.61732674948871135711669921875">
        <ele>1137.4000244140625</ele>
        <time>2039-05-14T07:56:31.000Z</time>
      </trkpt>
      <trkpt lat="42.42952351458370685577392578125" lon="0.6173122487962245941162109375">
        <ele>1137.800048828125</ele>
        <time>2039-05-14T07:56:34.000Z</time>
      </trkpt>
      <trkpt lat="42.4295584671199321746826171875" lon="0.61729121021926403045654296875">
        <ele>1138.199951171875</ele>
        <time>2039-05-14T07:56:37.000Z</time>
      </trkpt>
      <trkpt lat="42.42959593422710895538330078125" lon="0.61726924963295459747314453125">
        <ele>1139.199951171875</ele>
        <time>2039-05-14T07:56:41.000Z</time>
      </trkpt>
      <trkpt lat="42.429607249796390533447265625" lon="0.61726237647235393524169921875">
        <ele>1139.4000244140625</ele>
        <time>2039-05-14T07:56:42.000Z</time>
      </trkpt>
      <trkpt lat="42.4296902306377887725830078125" lon="0.61722247861325740814208984375">
        <ele>1140.4000244140625</ele>
        <time>2039-05-14T07:56:49.000Z</time>
      </trkpt>
      <trkpt lat="42.429701797664165496826171875" lon="0.61721451580524444580078125">
        <ele>1140.800048828125</ele>
        <time>2039-05-14T07:56:50.000Z</time>
      </trkpt>
      <trkpt lat="42.4297502450644969940185546875" lon="0.61717294156551361083984375">
        <ele>1141.199951171875</ele>
        <time>2039-05-14T07:56:54.000Z</time>
      </trkpt>
      <trkpt lat="42.42977413348853588104248046875" lon="0.6171533279120922088623046875">
        <ele>1141.800048828125</ele>
        <time>2039-05-14T07:56:56.000Z</time>
      </trkpt>
      <trkpt lat="42.4297971837222576141357421875" lon="0.61713430099189281463623046875">
        <ele>1141.800048828125</ele>
        <time>2039-05-14T07:56:58.000Z</time>
      </trkpt>
      <trkpt lat="42.4298488162457942962646484375" lon="0.617088116705417633056640625">
        <ele>1142.5999755859375</ele>
        <time>2039-05-14T07:57:03.000Z</time>
      </trkpt>
      <trkpt lat="42.429876811802387237548828125" lon="0.6170544214546680450439453125">
        <ele>1142.800048828125</ele>
        <time>2039-05-14T07:57:06.000Z</time>
      </trkpt>
      <trkpt lat="42.42990639992058277130126953125" lon="0.617022402584552764892578125">
        <ele>1143.199951171875</ele>
        <time>2039-05-14T07:57:09.000Z</time>
      </trkpt>
      <trkpt lat="42.429970018565654754638671875" lon="0.61698342673480510711669921875">
        <ele>1144</ele>
        <time>2039-05-14T07:57:15.000Z</time>
      </trkpt>
      <trkpt lat="42.42997781373560428619384765625" lon="0.6169783137738704681396484375">
        <ele>1144.199951171875</ele>
        <time>2039-05-14T07:57:16.000Z</time>
      </trkpt>
      <trkpt lat="42.43003346957266330718994140625" lon="0.616921149194240570068359375">
        <ele>1145</ele>
        <time>2039-05-14T07:57:22.000Z</time>
      </trkpt>
      <trkpt lat="42.43005660362541675567626953125" lon="0.61690329574048519134521484375">
        <ele>1145.199951171875</ele>
        <time>2039-05-14T07:57:24.000Z</time>
      </trkpt>
      <trkpt lat="42.43010471574962139129638671875" lon="0.616873204708099365234375">
        <ele>1146</ele>
        <time>2039-05-14T07:57:28.000Z</time>
      </trkpt>
      <trkpt lat="42.4301767162978649139404296875" lon="0.61684177257120609283447265625">
        <ele>1146.800048828125</ele>
        <time>2039-05-14T07:57:34.000Z</time>
      </trkpt>
      <trkpt lat="42.4302162788808345794677734375" lon="0.61682651750743389129638671875">
        <ele>1147</ele>
        <time>2039-05-14T07:57:37.000Z</time>
      </trkpt>
      <trkpt lat="42.4303114973008632659912109375" lon="0.61679743230342864990234375">
        <ele>1147.5999755859375</ele>
        <time>2039-05-14T07:57:44.000Z</time>
      </trkpt>
      <trkpt lat="42.43034829385578632354736328125" lon="0.6167905591428279876708984375">
        <ele>1148.199951171875</ele>
        <time>2039-05-14T07:57:47.000Z</time>
      </trkpt>
      <trkpt lat="42.43040227331221103668212890625" lon="0.61678276397287845611572265625">
        <ele>1148.800048828125</ele>
        <time>2039-05-14T07:57:51.000Z</time>
      </trkpt>
      <trkpt lat="42.43041568435728549957275390625" lon="0.61677404679358005523681640625">
        <ele>1149</ele>
        <time>2039-05-14T07:57:52.000Z</time>
      </trkpt>
      <trkpt lat="42.43048592470586299896240234375" lon="0.6167359091341495513916015625">
        <ele>1149.4000244140625</ele>
        <time>2039-05-14T07:57:57.000Z</time>
      </trkpt>
      <trkpt lat="42.43051492609083652496337890625" lon="0.6167171336710453033447265625">
        <ele>1149.5999755859375</ele>
        <time>2039-05-14T07:57:59.000Z</time>
      </trkpt>
      <trkpt lat="42.43052959442138671875" lon="0.61670732684433460235595703125">
        <ele>1149.800048828125</ele>
        <time>2039-05-14T07:58:00.000Z</time>
      </trkpt>
      <trkpt lat="42.43060360662639141082763671875" lon="0.6166611425578594207763671875">
        <ele>1150.5999755859375</ele>
        <time>2039-05-14T07:58:05.000Z</time>
      </trkpt>
      <trkpt lat="42.43063244037330150604248046875" lon="0.616615712642669677734375">
        <ele>1151</ele>
        <time>2039-05-14T07:58:08.000Z</time>
      </trkpt>
      <trkpt lat="42.43064853362739086151123046875" lon="0.61654136516153812408447265625">
        <ele>1151.5999755859375</ele>
        <time>2039-05-14T07:58:12.000Z</time>
      </trkpt>
      <trkpt lat="42.4306444264948368072509765625" lon="0.6165226735174655914306640625">
        <ele>1151.800048828125</ele>
        <time>2039-05-14T07:58:13.000Z</time>
      </trkpt>
      <trkpt lat="42.4306410737335681915283203125" lon="0.61650238931179046630859375">
        <ele>1151.800048828125</ele>
        <time>2039-05-14T07:58:14.000Z</time>
      </trkpt>
      <trkpt lat="42.43060268461704254150390625" lon="0.6164147146046161651611328125">
        <ele>1152.4000244140625</ele>
        <time>2039-05-14T07:58:19.000Z</time>
      </trkpt>
      <trkpt lat="42.430589608848094940185546875" lon="0.616399459540843963623046875">
        <ele>1152.5999755859375</ele>
        <time>2039-05-14T07:58:20.000Z</time>
      </trkpt>
      <trkpt lat="42.43057577870786190032958984375" lon="0.6163865514099597930908203125">
        <ele>1152.800048828125</ele>
        <time>2039-05-14T07:58:21.000Z</time>
      </trkpt>
      <trkpt lat="42.430468909442424774169921875" lon="0.61630533076822757720947265625">
        <ele>1153.800048828125</ele>
        <time>2039-05-14T07:58:28.000Z</time>
      </trkpt>
      <trkpt lat="42.43045273236930370330810546875" lon="0.61629795469343662261962890625">
        <ele>1153.800048828125</ele>
        <time>2039-05-14T07:58:29.000Z</time>
      </trkpt>
      <trkpt lat="42.43035499937832355499267578125" lon="0.61625554226338863372802734375">
        <ele>1154.4000244140625</ele>
        <time>2039-05-14T07:58:36.000Z</time>
      </trkpt>
      <trkpt lat="42.43030973710119724273681640625" lon="0.6162417121231555938720703125">
        <ele>1154.800048828125</ele>
        <time>2039-05-14T07:58:39.000Z</time>
      </trkpt>
      <trkpt lat="42.43023924529552459716796875" lon="0.61621405184268951416015625">
        <ele>1155.800048828125</ele>
        <time>2039-05-14T07:58:44.000Z</time>
      </trkpt>
      <trkpt lat="42.43022524751722812652587890625" lon="0.6162148900330066680908203125">
        <ele>1156</ele>
        <time>2039-05-14T07:58:45.000Z</time>
      </trkpt>
      <trkpt lat="42.43010991252958774566650390625" lon="0.6162093579769134521484375">
        <ele>1157.199951171875</ele>
        <time>2039-05-14T07:58:54.000Z</time>
      </trkpt>
      <trkpt lat="42.4300962500274181365966796875" lon="0.61620960943400859832763671875">
        <ele>1157.4000244140625</ele>
        <time>2039-05-14T07:58:55.000Z</time>
      </trkpt>
      <trkpt lat="42.4300110898911952972412109375" lon="0.61622955836355686187744140625">
        <ele>1158.4000244140625</ele>
        <time>2039-05-14T07:59:01.000Z</time>
      </trkpt>
      <trkpt lat="42.42999725975096225738525390625" lon="0.61622788198292255401611328125">
        <ele>1158.5999755859375</ele>
        <time>2039-05-14T07:59:02.000Z</time>
      </trkpt>
      <trkpt lat="42.42992718704044818878173828125" lon="0.6162480823695659637451171875">
        <ele>1159.4000244140625</ele>
        <time>2039-05-14T07:59:07.000Z</time>
      </trkpt>
      <trkpt lat="42.42991377599537372589111328125" lon="0.6162567995488643646240234375">
        <ele>1159.4000244140625</ele>
        <time>2039-05-14T07:59:08.000Z</time>
      </trkpt>
      <trkpt lat="42.4298354052007198333740234375" lon="0.61630566604435443878173828125">
        <ele>1160.199951171875</ele>
        <time>2039-05-14T07:59:14.000Z</time>
      </trkpt>
      <trkpt lat="42.42980740964412689208984375" lon="0.61632058583199977874755859375">
        <ele>1160.4000244140625</ele>
        <time>2039-05-14T07:59:16.000Z</time>
      </trkpt>
      <trkpt lat="42.429717890918254852294921875" lon="0.61639032326638698577880859375">
        <ele>1161.4000244140625</ele>
        <time>2039-05-14T07:59:23.000Z</time>
      </trkpt>
      <trkpt lat="42.42962392978370189666748046875" lon="0.616445727646350860595703125">
        <ele>1162.5999755859375</ele>
        <time>2039-05-14T07:59:30.000Z</time>
      </trkpt>
      <trkpt lat="42.42959911935031414031982421875" lon="0.61646106652915477752685546875">
        <ele>1163.199951171875</ele>
        <time>2039-05-14T07:59:32.000Z</time>
      </trkpt>
      <trkpt lat="42.42954991757869720458984375" lon="0.61648319475352764129638671875">
        <ele>1163.800048828125</ele>
        <time>2039-05-14T07:59:36.000Z</time>
      </trkpt>
      <trkpt lat="42.4295172281563282012939453125" lon="0.61646207235753536224365234375">
        <ele>1164.199951171875</ele>
        <time>2039-05-14T07:59:39.000Z</time>
      </trkpt>
      <trkpt lat="42.429516054689884185791015625" lon="0.6163962744176387786865234375">
        <ele>1164.4000244140625</ele>
        <time>2039-05-14T07:59:43.000Z</time>
      </trkpt>
      <trkpt lat="42.42952049709856510162353515625" lon="0.61637942679226398468017578125">
        <ele>1164.5999755859375</ele>
        <time>2039-05-14T07:59:44.000Z</time>
      </trkpt>
      <trkpt lat="42.429526112973690032958984375" lon="0.61636299826204776763916015625">
        <ele>1164.800048828125</ele>
        <time>2039-05-14T07:59:45.000Z</time>
      </trkpt>
      <trkpt lat="42.429557628929615020751953125" lon="0.61630583368241786956787109375">
        <ele>1165.5999755859375</ele>
        <time>2039-05-14T07:59:49.000Z</time>
      </trkpt>
      <trkpt lat="42.42958067916333675384521484375" lon="0.61629191972315311431884765625">
        <ele>1165.800048828125</ele>
        <time>2039-05-14T07:59:51.000Z</time>
      </trkpt>
      <trkpt lat="42.42959341965615749359130859375" lon="0.616282112896442413330078125">
        <ele>1166</ele>
        <time>2039-05-14T07:59:52.000Z</time>
      </trkpt>
      <trkpt lat="42.42960532195866107940673828125" lon="0.61627213843166828155517578125">
        <ele>1166</ele>
        <time>2039-05-14T07:59:53.000Z</time>
      </trkpt>
      <trkpt lat="42.4296664260327816009521484375" lon="0.61619259417057037353515625">
        <ele>1167</ele>
        <time>2039-05-14T07:59:59.000Z</time>
      </trkpt>
      <trkpt lat="42.42967732250690460205078125" lon="0.61618094332516193389892578125">
        <ele>1167.199951171875</ele>
        <time>2039-05-14T08:00:00.000Z</time>
      </trkpt>
      <trkpt lat="42.42973037995398044586181640625" lon="0.616126544773578643798828125">
        <ele>1168</ele>
        <time>2039-05-14T08:00:05.000Z</time>
      </trkpt>
      <trkpt lat="42.4297891370952129364013671875" lon="0.61606896109879016876220703125">
        <ele>1169</ele>
        <time>2039-05-14T08:00:10.000Z</time>
      </trkpt>
      <trkpt lat="42.429799698293209075927734375" lon="0.61605655588209629058837890625">
        <ele>1169.199951171875</ele>
        <time>2039-05-14T08:00:11.000Z</time>
      </trkpt>
      <trkpt lat="42.429879494011402130126953125" lon="0.6159423105418682098388671875">
        <ele>1170</ele>
        <time>2039-05-14T08:00:19.000Z</time>
      </trkpt>
      <trkpt lat="42.42995233274996280670166015625" lon="0.6158440746366977691650390625">
        <ele>1171</ele>
        <time>2039-05-14T08:00:26.000Z</time>
      </trkpt>
      <trkpt lat="42.4299738742411136627197265625" lon="0.61581498943269252777099609375">
        <ele>1171.199951171875</ele>
        <time>2039-05-14T08:00:28.000Z</time>
      </trkpt>
      <trkpt lat="42.43007563054561614990234375" lon="0.61569906771183013916015625">
        <ele>1172.199951171875</ele>
        <time>2039-05-14T08:00:37.000Z</time>
      </trkpt>
      <trkpt lat="42.4300878681242465972900390625" lon="0.61568708159029483795166015625">
        <ele>1172.4000244140625</ele>
        <time>2039-05-14T08:00:38.000Z</time>
      </trkpt>
      <trkpt lat="42.4301622994244098663330078125" lon="0.61562019400298595428466796875">
        <ele>1173.4000244140625</ele>
        <time>2039-05-14T08:00:44.000Z</time>
      </trkpt>
      <trkpt lat="42.43017562665045261383056640625" lon="0.61561524868011474609375">
        <ele>1173.5999755859375</ele>
        <time>2039-05-14T08:00:45.000Z</time>
      </trkpt>
      <trkpt lat="42.4302424304187297821044921875" lon="0.61559588648378849029541015625">
        <ele>1174.5999755859375</ele>
        <time>2039-05-14T08:00:50.000Z</time>
      </trkpt>
      <trkpt lat="42.4302729405462741851806640625" lon="0.61559588648378849029541015625">
        <ele>1175</ele>
        <time>2039-05-14T08:00:52.000Z</time>
      </trkpt>
      <trkpt lat="42.43031711317598819732666015625" lon="0.61560108326375484466552734375">
        <ele>1175.4000244140625</ele>
        <time>2039-05-14T08:00:55.000Z</time>
      </trkpt>
      <trkpt lat="42.43035935796797275543212890625" lon="0.6155959703028202056884765625">
        <ele>1175.800048828125</ele>
        <time>2039-05-14T08:00:58.000Z</time>
      </trkpt>
      <trkpt lat="42.4303976632654666900634765625" lon="0.615576021373271942138671875">
        <ele>1176.4000244140625</ele>
        <time>2039-05-14T08:01:01.000Z</time>
      </trkpt>
      <trkpt lat="42.4304305203258991241455078125" lon="0.6155334413051605224609375">
        <ele>1177</ele>
        <time>2039-05-14T08:01:04.000Z</time>
      </trkpt>
      <trkpt lat="42.43045910261571407318115234375" lon="0.61545322649180889129638671875">
        <ele>1177.4000244140625</ele>
        <time>2039-05-14T08:01:08.000Z</time>
      </trkpt>
      <trkpt lat="42.43043311871588230133056640625" lon="0.61531282961368560791015625">
        <ele>1177.800048828125</ele>
        <time>2039-05-14T08:01:15.000Z</time>
      </trkpt>
      <trkpt lat="42.430426664650440216064453125" lon="0.61529547907412052154541015625">
        <ele>1177.800048828125</ele>
        <time>2039-05-14T08:01:16.000Z</time>
      </trkpt>
      <trkpt lat="42.4304040335118770599365234375" lon="0.61526513658463954925537109375">
        <ele>1178.199951171875</ele>
        <time>2039-05-14T08:01:18.000Z</time>
      </trkpt>
      <trkpt lat="42.43037402629852294921875" lon="0.6152496300637722015380859375">
        <ele>1178.4000244140625</ele>
        <time>2039-05-14T08:01:20.000Z</time>
      </trkpt>
      <trkpt lat="42.4303000979125499725341796875" lon="0.6152544915676116943359375">
        <ele>1179</ele>
        <time>2039-05-14T08:01:25.000Z</time>
      </trkpt>
      <trkpt lat="42.4302876926958560943603515625" lon="0.61525516211986541748046875">
        <ele>1179.199951171875</ele>
        <time>2039-05-14T08:01:26.000Z</time>
      </trkpt>
      <trkpt lat="42.4302171170711517333984375" lon="0.61526379548013210296630859375">
        <ele>1180</ele>
        <time>2039-05-14T08:01:31.000Z</time>
      </trkpt>
      <trkpt lat="42.43017663247883319854736328125" lon="0.61529329977929592132568359375">
        <ele>1180.4000244140625</ele>
        <time>2039-05-14T08:01:34.000Z</time>
      </trkpt>
      <trkpt lat="42.43011192418634891510009765625" lon="0.6153803877532482147216796875">
        <ele>1181.199951171875</ele>
        <time>2039-05-14T08:01:40.000Z</time>
      </trkpt>
      <trkpt lat="42.43008426390588283538818359375" lon="0.615399666130542755126953125">
        <ele>1181.4000244140625</ele>
        <time>2039-05-14T08:01:42.000Z</time>
      </trkpt>
      <trkpt lat="42.4299973435699939727783203125" lon="0.6154615245759487152099609375">
        <ele>1182.199951171875</ele>
        <time>2039-05-14T08:01:48.000Z</time>
      </trkpt>
      <trkpt lat="42.4299852736294269561767578125" lon="0.61547418124973773956298828125">
        <ele>1182.4000244140625</ele>
        <time>2039-05-14T08:01:49.000Z</time>
      </trkpt>
      <trkpt lat="42.429899275302886962890625" lon="0.61553352512419223785400390625">
        <ele>1183.4000244140625</ele>
        <time>2039-05-14T08:01:55.000Z</time>
      </trkpt>
      <trkpt lat="42.42987555451691150665283203125" lon="0.6155604310333728790283203125">
        <ele>1183.5999755859375</ele>
        <time>2039-05-14T08:01:57.000Z</time>
      </trkpt>
      <trkpt lat="42.42981947958469390869140625" lon="0.61558934859931468963623046875">
        <ele>1184.4000244140625</ele>
        <time>2039-05-14T08:02:01.000Z</time>
      </trkpt>
      <trkpt lat="42.42976156063377857208251953125" lon="0.615614242851734161376953125">
        <ele>1185</ele>
        <time>2039-05-14T08:02:05.000Z</time>
      </trkpt>
      <trkpt lat="42.42973943240940570831298828125" lon="0.6156274862587451934814453125">
        <ele>1185.4000244140625</ele>
        <time>2039-05-14T08:02:07.000Z</time>
      </trkpt>
      <trkpt lat="42.42970012128353118896484375" lon="0.61564408242702484130859375">
        <ele>1186</ele>
        <time>2039-05-14T08:02:10.000Z</time>
      </trkpt>
      <trkpt lat="42.42966198362410068511962890625" lon="0.61565657146275043487548828125">
        <ele>1186.5999755859375</ele>
        <time>2039-05-14T08:02:13.000Z</time>
      </trkpt>
      <trkpt lat="42.429598532617092132568359375" lon="0.61567299999296665191650390625">
        <ele>1187.199951171875</ele>
        <time>2039-05-14T08:02:18.000Z</time>
      </trkpt>
      <trkpt lat="42.42957212962210178375244140625" lon="0.61567853204905986785888671875">
        <ele>1187.5999755859375</ele>
        <time>2039-05-14T08:02:20.000Z</time>
      </trkpt>
      <trkpt lat="42.42953374050557613372802734375" lon="0.61570015735924243927001953125">
        <ele>1188.199951171875</ele>
        <time>2039-05-14T08:02:23.000Z</time>
      </trkpt>
      <trkpt lat="42.42946450598537921905517578125" lon="0.6157297454774379730224609375">
        <ele>1188.800048828125</ele>
        <time>2039-05-14T08:02:28.000Z</time>
      </trkpt>
      <trkpt lat="42.42942745797336101531982421875" lon="0.61575531028211116790771484375">
        <ele>1189.199951171875</ele>
        <time>2039-05-14T08:02:31.000Z</time>
      </trkpt>
      <trkpt lat="42.429362833499908447265625" lon="0.615800656378269195556640625">
        <ele>1189.800048828125</ele>
        <time>2039-05-14T08:02:36.000Z</time>
      </trkpt>
      <trkpt lat="42.42932452820241451263427734375" lon="0.615832172334194183349609375">
        <ele>1190.5999755859375</ele>
        <time>2039-05-14T08:02:39.000Z</time>
      </trkpt>
      <trkpt lat="42.429286055266857147216796875" lon="0.61586670577526092529296875">
        <ele>1191</ele>
        <time>2039-05-14T08:02:42.000Z</time>
      </trkpt>
      <trkpt lat="42.429237104952335357666015625" lon="0.6159077771008014678955078125">
        <ele>1191.5999755859375</ele>
        <time>2039-05-14T08:02:46.000Z</time>
      </trkpt>
      <trkpt lat="42.42919611744582653045654296875" lon="0.6159319169819355010986328125">
        <ele>1191.5999755859375</ele>
        <time>2039-05-14T08:02:49.000Z</time>
      </trkpt>
      <trkpt lat="42.4291782639920711517333984375" lon="0.61595857143402099609375">
        <ele>1192</ele>
        <time>2039-05-14T08:02:51.000Z</time>
      </trkpt>
      <trkpt lat="42.42915563285350799560546875" lon="0.61598480679094791412353515625">
        <ele>1192.5999755859375</ele>
        <time>2039-05-14T08:02:53.000Z</time>
      </trkpt>
      <trkpt lat="42.42912017740309238433837890625" lon="0.61602001078426837921142578125">
        <ele>1193</ele>
        <time>2039-05-14T08:02:56.000Z</time>
      </trkpt>
      <trkpt lat="42.429074831306934356689453125" lon="0.616063512861728668212890625">
        <ele>1193.800048828125</ele>
        <time>2039-05-14T08:03:00.000Z</time>
      </trkpt>
      <trkpt lat="42.42902512662112712860107421875" lon="0.61610097996890544891357421875">
        <ele>1194.199951171875</ele>
        <time>2039-05-14T08:03:04.000Z</time>
      </trkpt>
      <trkpt lat="42.42899009026587009429931640625" lon="0.61612880788743495941162109375">
        <ele>1195</ele>
        <time>2039-05-14T08:03:07.000Z</time>
      </trkpt>
      <trkpt lat="42.4289643578231334686279296875" lon="0.6161474995315074920654296875">
        <ele>1195.199951171875</ele>
        <time>2039-05-14T08:03:09.000Z</time>
      </trkpt>
      <trkpt lat="42.428880035877227783203125" lon="0.61616099439561367034912109375">
        <ele>1195.800048828125</ele>
        <time>2039-05-14T08:03:15.000Z</time>
      </trkpt>
      <trkpt lat="42.42885514162480831146240234375" lon="0.6161538697779178619384765625">
        <ele>1196.199951171875</ele>
        <time>2039-05-14T08:03:17.000Z</time>
      </trkpt>
      <trkpt lat="42.42881976999342441558837890625" lon="0.6161106191575527191162109375">
        <ele>1197.800048828125</ele>
        <time>2039-05-14T08:07:27.000Z</time>
      </trkpt>
      <trkpt lat="42.4288198538124561309814453125" lon="0.61611036770045757293701171875">
        <ele>1197.5999755859375</ele>
        <time>2039-05-14T08:07:29.000Z</time>
      </trkpt>
      <trkpt lat="42.42885614745318889617919921875" lon="0.61601984314620494842529296875">
        <ele>1197.4000244140625</ele>
        <time>2039-05-14T08:07:35.000Z</time>
      </trkpt>
      <trkpt lat="42.42895044386386871337890625" lon="0.6158987246453762054443359375">
        <ele>1198.5999755859375</ele>
        <time>2039-05-14T08:07:44.000Z</time>
      </trkpt>
      <trkpt lat="42.428960166871547698974609375" lon="0.61588455922901630401611328125">
        <ele>1198.800048828125</ele>
        <time>2039-05-14T08:07:45.000Z</time>
      </trkpt>
      <trkpt lat="42.42899578996002674102783203125" lon="0.61583720147609710693359375">
        <ele>1199.800048828125</ele>
        <time>2039-05-14T08:07:49.000Z</time>
      </trkpt>
      <trkpt lat="42.42903283797204494476318359375" lon="0.6157760135829448699951171875">
        <ele>1201</ele>
        <time>2039-05-14T08:07:54.000Z</time>
      </trkpt>
      <trkpt lat="42.4290629290044307708740234375" lon="0.61573200859129428863525390625">
        <ele>1202</ele>
        <time>2039-05-14T08:07:58.000Z</time>
      </trkpt>
      <trkpt lat="42.42907525040209293365478515625" lon="0.6157260574400424957275390625">
        <ele>1202</ele>
        <time>2039-05-14T08:07:59.000Z</time>
      </trkpt>
      <trkpt lat="42.42909687571227550506591796875" lon="0.615710802376270294189453125">
        <ele>1202.199951171875</ele>
        <time>2039-05-14T08:08:01.000Z</time>
      </trkpt>
      <trkpt lat="42.42917164228856563568115234375" lon="0.61561969108879566192626953125">
        <ele>1202.800048828125</ele>
        <time>2039-05-14T08:08:08.000Z</time>
      </trkpt>
      <trkpt lat="42.42917968891561031341552734375" lon="0.61560560949146747589111328125">
        <ele>1203</ele>
        <time>2039-05-14T08:08:09.000Z</time>
      </trkpt>
      <trkpt lat="42.42921304889023303985595703125" lon="0.61553553678095340728759765625">
        <ele>1204.199951171875</ele>
        <time>2039-05-14T08:08:14.000Z</time>
      </trkpt>
      <trkpt lat="42.4292319081723690032958984375" lon="0.6155134923756122589111328125">
        <ele>1204.5999755859375</ele>
        <time>2039-05-14T08:08:16.000Z</time>
      </trkpt>
      <trkpt lat="42.42926099337637424468994140625" lon="0.6154836528003215789794921875">
        <ele>1204.800048828125</ele>
        <time>2039-05-14T08:08:19.000Z</time>
      </trkpt>
      <trkpt lat="42.42928169667720794677734375" lon="0.6154393963515758514404296875">
        <ele>1205.4000244140625</ele>
        <time>2039-05-14T08:08:22.000Z</time>
      </trkpt>
      <trkpt lat="42.42929602973163127899169921875" lon="0.61541047878563404083251953125">
        <ele>1205.5999755859375</ele>
        <time>2039-05-14T08:08:24.000Z</time>
      </trkpt>
      <trkpt lat="42.4293422140181064605712890625" lon="0.61532129533588886260986328125">
        <ele>1206.4000244140625</ele>
        <time>2039-05-14T08:08:30.000Z</time>
      </trkpt>
      <trkpt lat="42.42935822345316410064697265625" lon="0.615296065807342529296875">
        <ele>1206.5999755859375</ele>
        <time>2039-05-14T08:08:32.000Z</time>
      </trkpt>
      <trkpt lat="42.4294092692434787750244140625" lon="0.61521627008914947509765625">
        <ele>1207.5999755859375</ele>
        <time>2039-05-14T08:08:38.000Z</time>
      </trkpt>
      <trkpt lat="42.42942494340240955352783203125" lon="0.61518944799900054931640625">
        <ele>1207.800048828125</ele>
        <time>2039-05-14T08:08:40.000Z</time>
      </trkpt>
      <trkpt lat="42.42947070859372615814208984375" lon="0.61509833671152591705322265625">
        <ele>1208.5999755859375</ele>
        <time>2039-05-14T08:08:46.000Z</time>
      </trkpt>
      <trkpt lat="42.42948495782911777496337890625" lon="0.6150675751268863677978515625">
        <ele>1208.800048828125</ele>
        <time>2039-05-14T08:08:48.000Z</time>
      </trkpt>
      <trkpt lat="42.42953927256166934967041015625" lon="0.61499255709350109100341796875">
        <ele>1209.5999755859375</ele>
        <time>2039-05-14T08:08:54.000Z</time>
      </trkpt>
      <trkpt lat="42.429545558989048004150390625" lon="0.6149773858487606048583984375">
        <ele>1209.800048828125</ele>
        <time>2039-05-14T08:08:55.000Z</time>
      </trkpt>
      <trkpt lat="42.429593838751316070556640625" lon="0.61487470753490924835205078125">
        <ele>1210.800048828125</ele>
        <time>2039-05-14T08:09:02.000Z</time>
      </trkpt>
      <trkpt lat="42.429606579244136810302734375" lon="0.61484268866479396820068359375">
        <ele>1211</ele>
        <time>2039-05-14T08:09:04.000Z</time>
      </trkpt>
      <trkpt lat="42.429617978632450103759765625" lon="0.61471679247915744781494140625">
        <ele>1211.800048828125</ele>
        <time>2039-05-14T08:09:11.000Z</time>
      </trkpt>
      <trkpt lat="42.42961370386183261871337890625" lon="0.6146991066634654998779296875">
        <ele>1212</ele>
        <time>2039-05-14T08:09:12.000Z</time>
      </trkpt>
      <trkpt lat="42.42954715155065059661865234375" lon="0.61462190933525562286376953125">
        <ele>1212.800048828125</ele>
        <time>2039-05-14T08:09:19.000Z</time>
      </trkpt>
      <trkpt lat="42.4295339919626712799072265625" lon="0.61462090350687503814697265625">
        <ele>1213</ele>
        <time>2039-05-14T08:09:20.000Z</time>
      </trkpt>
      <trkpt lat="42.4294746480882167816162109375" lon="0.6146514974534511566162109375">
        <ele>1213.800048828125</ele>
        <time>2039-05-14T08:09:25.000Z</time>
      </trkpt>
      <trkpt lat="42.42946534417569637298583984375" lon="0.61466046608984470367431640625">
        <ele>1214</ele>
        <time>2039-05-14T08:09:26.000Z</time>
      </trkpt>
      <trkpt lat="42.42941404692828655242919921875" lon="0.6147329695522785186767578125">
        <ele>1215</ele>
        <time>2039-05-14T08:09:32.000Z</time>
      </trkpt>
      <trkpt lat="42.4294055812060832977294921875" lon="0.61474763788282871246337890625">
        <ele>1215</ele>
        <time>2039-05-14T08:09:33.000Z</time>
      </trkpt>
      <trkpt lat="42.42933592759072780609130859375" lon="0.614796169102191925048828125">
        <ele>1216.199951171875</ele>
        <time>2039-05-14T08:09:39.000Z</time>
      </trkpt>
      <trkpt lat="42.42932369001209735870361328125" lon="0.61480379663407802581787109375">
        <ele>1216.4000244140625</ele>
        <time>2039-05-14T08:09:40.000Z</time>
      </trkpt>
      <trkpt lat="42.4292783439159393310546875" lon="0.6148694269359111785888671875">
        <ele>1217.4000244140625</ele>
        <time>2039-05-14T08:09:45.000Z</time>
      </trkpt>
      <trkpt lat="42.4292463250458240509033203125" lon="0.614901445806026458740234375">
        <ele>1217.800048828125</ele>
        <time>2039-05-14T08:09:48.000Z</time>
      </trkpt>
      <trkpt lat="42.42916996590793132781982421875" lon="0.6150139309465885162353515625">
        <ele>1218.4000244140625</ele>
        <time>2039-05-14T08:09:56.000Z</time>
      </trkpt>
      <trkpt lat="42.42906167171895503997802734375" lon="0.6150947324931621551513671875">
        <ele>1219.4000244140625</ele>
        <time>2039-05-14T08:10:05.000Z</time>
      </trkpt>
      <trkpt lat="42.42905127815902233123779296875" lon="0.6151054613292217254638671875">
        <ele>1219.5999755859375</ele>
        <time>2039-05-14T08:10:06.000Z</time>
      </trkpt>
      <trkpt lat="42.42895170114934444427490234375" lon="0.6151659786701202392578125">
        <ele>1220.5999755859375</ele>
        <time>2039-05-14T08:10:14.000Z</time>
      </trkpt>
      <trkpt lat="42.42893912829458713531494140625" lon="0.61517109163105487823486328125">
        <ele>1220.800048828125</ele>
        <time>2039-05-14T08:10:15.000Z</time>
      </trkpt>
      <trkpt lat="42.42888565175235271453857421875" lon="0.615187771618366241455078125">
        <ele>1221.5999755859375</ele>
        <time>2039-05-14T08:10:19.000Z</time>
      </trkpt>
      <trkpt lat="42.42882899008691310882568359375" lon="0.61518232338130474090576171875">
        <ele>1221.800048828125</ele>
        <time>2039-05-14T08:10:23.000Z</time>
      </trkpt>
      <trkpt lat="42.428740225732326507568359375" lon="0.6151322834193706512451171875">
        <ele>1222.5999755859375</ele>
        <time>2039-05-14T08:10:30.000Z</time>
      </trkpt>
      <trkpt lat="42.42872840724885463714599609375" lon="0.61512080021202564239501953125">
        <ele>1222.800048828125</ele>
        <time>2039-05-14T08:10:31.000Z</time>
      </trkpt>
      <trkpt lat="42.42862883023917675018310546875" lon="0.615071766078472137451171875">
        <ele>1223.4000244140625</ele>
        <time>2039-05-14T08:10:38.000Z</time>
      </trkpt>
      <trkpt lat="42.428584657609462738037109375" lon="0.6150474585592746734619140625">
        <ele>1223.5999755859375</ele>
        <time>2039-05-14T08:10:41.000Z</time>
      </trkpt>
      <trkpt lat="42.42852204479277133941650390625" lon="0.6149914674460887908935546875">
        <ele>1224.4000244140625</ele>
        <time>2039-05-14T08:10:46.000Z</time>
      </trkpt>
      <trkpt lat="42.42849656380712985992431640625" lon="0.61496824957430362701416015625">
        <ele>1224.5999755859375</ele>
        <time>2039-05-14T08:10:48.000Z</time>
      </trkpt>
      <trkpt lat="42.42848642170429229736328125" lon="0.6149525754153728485107421875">
        <ele>1224.800048828125</ele>
        <time>2039-05-14T08:10:49.000Z</time>
      </trkpt>
      <trkpt lat="42.42848030291497707366943359375" lon="0.61489180661737918853759765625">
        <ele>1225.199951171875</ele>
        <time>2039-05-14T08:10:52.000Z</time>
      </trkpt>
      <trkpt lat="42.42848985828459262847900390625" lon="0.61484721489250659942626953125">
        <ele>1225.4000244140625</ele>
        <time>2039-05-14T08:10:54.000Z</time>
      </trkpt>
      <trkpt lat="42.4285053648054599761962890625" lon="0.61478233896195888519287109375">
        <ele>1225.800048828125</ele>
        <time>2039-05-14T08:10:57.000Z</time>
      </trkpt>
      <trkpt lat="42.4285434186458587646484375" lon="0.61470572836697101593017578125">
        <ele>1226.4000244140625</ele>
        <time>2039-05-14T08:11:01.000Z</time>
      </trkpt>
      <trkpt lat="42.4285952188074588775634765625" lon="0.6146511621773242950439453125">
        <ele>1226.800048828125</ele>
        <time>2039-05-14T08:11:05.000Z</time>
      </trkpt>
      <trkpt lat="42.42864408530294895172119140625" lon="0.61463951133191585540771484375">
        <ele>1227.4000244140625</ele>
        <time>2039-05-14T08:11:08.000Z</time>
      </trkpt>
      <trkpt lat="42.428675852715969085693359375" lon="0.61462006531655788421630859375">
        <ele>1228</ele>
        <time>2039-05-14T08:11:10.000Z</time>
      </trkpt>
      <trkpt lat="42.42876193486154079437255859375" lon="0.61458167620003223419189453125">
        <ele>1228.800048828125</ele>
        <time>2039-05-14T08:11:15.000Z</time>
      </trkpt>
      <trkpt lat="42.42881189100444316864013671875" lon="0.6145589612424373626708984375">
        <ele>1229</ele>
        <time>2039-05-14T08:11:18.000Z</time>
      </trkpt>
      <trkpt lat="42.42890777997672557830810546875" lon="0.61452484689652919769287109375">
        <ele>1230.199951171875</ele>
        <time>2039-05-14T08:11:24.000Z</time>
      </trkpt>
      <trkpt lat="42.42892253212630748748779296875" lon="0.6145170517265796661376953125">
        <ele>1230.4000244140625</ele>
        <time>2039-05-14T08:11:25.000Z</time>
      </trkpt>
      <trkpt lat="42.4289851449429988861083984375" lon="0.61448729597032070159912109375">
        <ele>1231.199951171875</ele>
        <time>2039-05-14T08:11:29.000Z</time>
      </trkpt>
      <trkpt lat="42.42906385101377964019775390625" lon="0.61443884856998920440673828125">
        <ele>1231.5999755859375</ele>
        <time>2039-05-14T08:11:34.000Z</time>
      </trkpt>
      <trkpt lat="42.42910659871995449066162109375" lon="0.6143755652010440826416015625">
        <ele>1232.4000244140625</ele>
        <time>2039-05-14T08:11:38.000Z</time>
      </trkpt>
      <trkpt lat="42.4291450716555118560791015625" lon="0.61431027017533779144287109375">
        <ele>1233.199951171875</ele>
        <time>2039-05-14T08:11:42.000Z</time>
      </trkpt>
      <trkpt lat="42.42917013354599475860595703125" lon="0.61428210698068141937255859375">
        <ele>1233.5999755859375</ele>
        <time>2039-05-14T08:11:44.000Z</time>
      </trkpt>
      <trkpt lat="42.4292252026498317718505859375" lon="0.61416962184011936187744140625">
        <ele>1234.199951171875</ele>
        <time>2039-05-14T08:11:50.000Z</time>
      </trkpt>
      <trkpt lat="42.42925177328288555145263671875" lon="0.6141157262027263641357421875">
        <ele>1234.5999755859375</ele>
        <time>2039-05-14T08:11:53.000Z</time>
      </trkpt>
      <trkpt lat="42.4292915873229503631591796875" lon="0.61400198377668857574462890625">
        <ele>1235.800048828125</ele>
        <time>2039-05-14T08:11:59.000Z</time>
      </trkpt>
      <trkpt lat="42.42933039553463459014892578125" lon="0.6138813681900501251220703125">
        <ele>1236.800048828125</ele>
        <time>2039-05-14T08:12:05.000Z</time>
      </trkpt>
      <trkpt lat="42.4293385259807109832763671875" lon="0.6138622574508190155029296875">
        <ele>1237</ele>
        <time>2039-05-14T08:12:06.000Z</time>
      </trkpt>
      <trkpt lat="42.42939560674130916595458984375" lon="0.61372756026685237884521484375">
        <ele>1237.800048828125</ele>
        <time>2039-05-14T08:12:13.000Z</time>
      </trkpt>
      <trkpt lat="42.4294039048254489898681640625" lon="0.6136862374842166900634765625">
        <ele>1238.199951171875</ele>
        <time>2039-05-14T08:12:15.000Z</time>
      </trkpt>
      <trkpt lat="42.42944606579840183258056640625" lon="0.61352538876235485076904296875">
        <ele>1238.800048828125</ele>
        <time>2039-05-14T08:12:23.000Z</time>
      </trkpt>
      <trkpt lat="42.42949769832193851470947265625" lon="0.61339010484516620635986328125">
        <ele>1240</ele>
        <time>2039-05-14T08:12:30.000Z</time>
      </trkpt>
      <trkpt lat="42.42953172884881496429443359375" lon="0.613316260278224945068359375">
        <ele>1240.199951171875</ele>
        <time>2039-05-14T08:12:34.000Z</time>
      </trkpt>
      <trkpt lat="42.4295634962618350982666015625" lon="0.613227076828479766845703125">
        <ele>1241</ele>
        <time>2039-05-14T08:12:39.000Z</time>
      </trkpt>
      <trkpt lat="42.429597862064838409423828125" lon="0.61316396109759807586669921875">
        <ele>1241.4000244140625</ele>
        <time>2039-05-14T08:12:43.000Z</time>
      </trkpt>
      <trkpt lat="42.42966592311859130859375" lon="0.61306807212531566619873046875">
        <ele>1242.199951171875</ele>
        <time>2039-05-14T08:12:49.000Z</time>
      </trkpt>
      <trkpt lat="42.4296860396862030029296875" lon="0.61302750371396541595458984375">
        <ele>1242.4000244140625</ele>
        <time>2039-05-14T08:12:51.000Z</time>
      </trkpt>
      <trkpt lat="42.42975166998803615570068359375" lon="0.6129177846014499664306640625">
        <ele>1243.199951171875</ele>
        <time>2039-05-14T08:12:57.000Z</time>
      </trkpt>
      <trkpt lat="42.4297817610204219818115234375" lon="0.6128557585179805755615234375">
        <ele>1243.5999755859375</ele>
        <time>2039-05-14T08:13:00.000Z</time>
      </trkpt>
      <trkpt lat="42.4298216588795185089111328125" lon="0.6127615459263324737548828125">
        <ele>1243.4000244140625</ele>
        <time>2039-05-14T08:13:05.000Z</time>
      </trkpt>
      <trkpt lat="42.4298193119466304779052734375" lon="0.612756349146366119384765625">
        <ele>1243.5999755859375</ele>
        <time>2039-05-14T08:15:28.000Z</time>
      </trkpt>
      <trkpt lat="42.42981922812759876251220703125" lon="0.6127565167844295501708984375">
        <ele>1243.5999755859375</ele>
        <time>2039-05-14T08:15:29.000Z</time>
      </trkpt>
      <trkpt lat="42.429818809032440185546875" lon="0.6127494759857654571533203125">
        <ele>1243.5999755859375</ele>
        <time>2039-05-14T08:15:31.000Z</time>
      </trkpt>
      <trkpt lat="42.42982040159404277801513671875" lon="0.61271050013601779937744140625">
        <ele>1243.800048828125</ele>
        <time>2039-05-14T08:15:34.000Z</time>
      </trkpt>
      <trkpt lat="42.42982107214629650115966796875" lon="0.6126944907009601593017578125">
        <ele>1243.800048828125</ele>
        <time>2039-05-14T08:15:35.000Z</time>
      </trkpt>
      <trkpt lat="42.42984227836132049560546875" lon="0.61257295310497283935546875">
        <ele>1244</ele>
        <time>2039-05-14T08:15:41.000Z</time>
      </trkpt>
      <trkpt lat="42.42986281402409076690673828125" lon="0.6123732961714267730712890625">
        <ele>1243.4000244140625</ele>
        <time>2039-05-14T08:15:48.000Z</time>
      </trkpt>
      <trkpt lat="42.42988946847617626190185546875" lon="0.6122334860265254974365234375">
        <ele>1244.199951171875</ele>
        <time>2039-05-14T08:15:54.000Z</time>
      </trkpt>
      <trkpt lat="42.42989282123744487762451171875" lon="0.61220817267894744873046875">
        <ele>1244</ele>
        <time>2039-05-14T08:15:55.000Z</time>
      </trkpt>
      <trkpt lat="42.42993137799203395843505859375" lon="0.61200558207929134368896484375">
        <ele>1245.199951171875</ele>
        <time>2039-05-14T08:16:04.000Z</time>
      </trkpt>
      <trkpt lat="42.429955936968326568603515625" lon="0.611922852694988250732421875">
        <ele>1245.199951171875</ele>
        <time>2039-05-14T08:16:08.000Z</time>
      </trkpt>
      <trkpt lat="42.42998166941106319427490234375" lon="0.61181346885859966278076171875">
        <ele>1244.800048828125</ele>
        <time>2039-05-14T08:16:11.000Z</time>
      </trkpt>
      <trkpt lat="42.43001922033727169036865234375" lon="0.61159688048064708709716796875">
        <ele>1244</ele>
        <time>2039-05-14T08:16:16.000Z</time>
      </trkpt>
      <trkpt lat="42.4300322122871875762939453125" lon="0.61154457740485668182373046875">
        <ele>1243.800048828125</ele>
        <time>2039-05-14T08:16:17.000Z</time>
      </trkpt>
      <trkpt lat="42.4300682544708251953125" lon="0.61138230375945568084716796875">
        <ele>1242.4000244140625</ele>
        <time>2039-05-14T08:16:20.000Z</time>
      </trkpt>
      <trkpt lat="42.4300964176654815673828125" lon="0.61128071509301662445068359375">
        <ele>1241.4000244140625</ele>
        <time>2039-05-14T08:16:22.000Z</time>
      </trkpt>
      <trkpt lat="42.430110834538936614990234375" lon="0.6112353689968585968017578125">
        <ele>1241</ele>
        <time>2039-05-14T08:16:23.000Z</time>
      </trkpt>
      <trkpt lat="42.4301535822451114654541015625" lon="0.6111123226583003997802734375">
        <ele>1240</ele>
        <time>2039-05-14T08:16:26.000Z</time>
      </trkpt>
      <trkpt lat="42.43020060472190380096435546875" lon="0.6110063754022121429443359375">
        <ele>1238.800048828125</ele>
        <time>2039-05-14T08:16:29.000Z</time>
      </trkpt>
      <trkpt lat="42.43021686561405658721923828125" lon="0.610967315733432769775390625">
        <ele>1238.4000244140625</ele>
        <time>2039-05-14T08:16:30.000Z</time>
      </trkpt>
      <trkpt lat="42.43033655919134616851806640625" lon="0.6107901223003864288330078125">
        <ele>1237.4000244140625</ele>
        <time>2039-05-14T08:16:35.000Z</time>
      </trkpt>
      <trkpt lat="42.430370338261127471923828125" lon="0.61074980534613132476806640625">
        <ele>1237</ele>
        <time>2039-05-14T08:16:36.000Z</time>
      </trkpt>
      <trkpt lat="42.43044845759868621826171875" lon="0.6106127612292766571044921875">
        <ele>1236.5999755859375</ele>
        <time>2039-05-14T08:16:39.000Z</time>
      </trkpt>
      <trkpt lat="42.43046362884342670440673828125" lon="0.6105752103030681610107421875">
        <ele>1236.199951171875</ele>
        <time>2039-05-14T08:16:40.000Z</time>
      </trkpt>
      <trkpt lat="42.430546693503856658935546875" lon="0.61040363274514675140380859375">
        <ele>1236</ele>
        <time>2039-05-14T08:16:44.000Z</time>
      </trkpt>
      <trkpt lat="42.43056387640535831451416015625" lon="0.6103572808206081390380859375">
        <ele>1235.4000244140625</ele>
        <time>2039-05-14T08:16:45.000Z</time>
      </trkpt>
      <trkpt lat="42.43066370487213134765625" lon="0.6100751459598541259765625">
        <ele>1234.5999755859375</ele>
        <time>2039-05-14T08:16:51.000Z</time>
      </trkpt>
      <trkpt lat="42.4307450093328952789306640625" lon="0.609872639179229736328125">
        <ele>1234.800048828125</ele>
        <time>2039-05-14T08:16:57.000Z</time>
      </trkpt>
      <trkpt lat="42.43081969209015369415283203125" lon="0.60967507772147655487060546875">
        <ele>1234.5999755859375</ele>
        <time>2039-05-14T08:17:02.000Z</time>
      </trkpt>
      <trkpt lat="42.43087585084140300750732421875" lon="0.609566532075405120849609375">
        <ele>1234.5999755859375</ele>
        <time>2039-05-14T08:17:06.000Z</time>
      </trkpt>
      <trkpt lat="42.4309686385095119476318359375" lon="0.6093923561275005340576171875">
        <ele>1235.4000244140625</ele>
        <time>2039-05-14T08:17:14.000Z</time>
      </trkpt>
      <trkpt lat="42.43105237372219562530517578125" lon="0.60922094620764255523681640625">
        <ele>1236.4000244140625</ele>
        <time>2039-05-14T08:17:22.000Z</time>
      </trkpt>
      <trkpt lat="42.43106268346309661865234375" lon="0.60919940471649169921875">
        <ele>1236.199951171875</ele>
        <time>2039-05-14T08:17:23.000Z</time>
      </trkpt>
      <trkpt lat="42.431159578263759613037109375" lon="0.6089808046817779541015625">
        <ele>1236</ele>
        <time>2039-05-14T08:17:31.000Z</time>
      </trkpt>
      <trkpt lat="42.4312147311866283416748046875" lon="0.60885633341968059539794921875">
        <ele>1235.4000244140625</ele>
        <time>2039-05-14T08:17:35.000Z</time>
      </trkpt>
      <trkpt lat="42.4312495999038219451904296875" lon="0.608755834400653839111328125">
        <ele>1234.800048828125</ele>
        <time>2039-05-14T08:17:38.000Z</time>
      </trkpt>
      <trkpt lat="42.43127516470849514007568359375" lon="0.6086785532534122467041015625">
        <ele>1234.199951171875</ele>
        <time>2039-05-14T08:17:40.000Z</time>
      </trkpt>
      <trkpt lat="42.43132176809012889862060546875" lon="0.60854787938296794891357421875">
        <ele>1233.199951171875</ele>
        <time>2039-05-14T08:17:43.000Z</time>
      </trkpt>
      <trkpt lat="42.43136937730014324188232421875" lon="0.60842751525342464447021484375">
        <ele>1232</ele>
        <time>2039-05-14T08:17:45.000Z</time>
      </trkpt>
      <trkpt lat="42.4314172379672527313232421875" lon="0.60829357244074344635009765625">
        <ele>1230.800048828125</ele>
        <time>2039-05-14T08:17:47.000Z</time>
      </trkpt>
      <trkpt lat="42.43146769702434539794921875" lon="0.6081793271005153656005859375">
        <ele>1229.800048828125</ele>
        <time>2039-05-14T08:17:49.000Z</time>
      </trkpt>
      <trkpt lat="42.43148856796324253082275390625" lon="0.6081332266330718994140625">
        <ele>1229.5999755859375</ele>
        <time>2039-05-14T08:17:50.000Z</time>
      </trkpt>
      <trkpt lat="42.4315141327679157257080078125" lon="0.60808829963207244873046875">
        <ele>1229.4000244140625</ele>
        <time>2039-05-14T08:17:51.000Z</time>
      </trkpt>
      <trkpt lat="42.43158009834587574005126953125" lon="0.60794522054493427276611328125">
        <ele>1228.4000244140625</ele>
        <time>2039-05-14T08:17:54.000Z</time>
      </trkpt>
      <trkpt lat="42.43159434758126735687255859375" lon="0.60789627023041248321533203125">
        <ele>1228.199951171875</ele>
        <time>2039-05-14T08:17:55.000Z</time>
      </trkpt>
      <trkpt lat="42.43162862956523895263671875" lon="0.607769787311553955078125">
        <ele>1227.5999755859375</ele>
        <time>2039-05-14T08:17:59.000Z</time>
      </trkpt>
      <trkpt lat="42.43162938393652439117431640625" lon="0.6077508442103862762451171875">
        <ele>1227.5999755859375</ele>
        <time>2039-05-14T08:18:05.000Z</time>
      </trkpt>
      <trkpt lat="42.4316365085542201995849609375" lon="0.60772511176764965057373046875">
        <ele>1227.800048828125</ele>
        <time>2039-05-14T08:18:11.000Z</time>
      </trkpt>
      <trkpt lat="42.4316663481295108795166015625" lon="0.60761597938835620880126953125">
        <ele>1227.5999755859375</ele>
        <time>2039-05-14T08:18:16.000Z</time>
      </trkpt>
      <trkpt lat="42.4317256920039653778076171875" lon="0.60741783119738101959228515625">
        <ele>1227.5999755859375</ele>
        <time>2039-05-14T08:18:21.000Z</time>
      </trkpt>
      <trkpt lat="42.4317746423184871673583984375" lon="0.60725019313395023345947265625">
        <ele>1227.199951171875</ele>
        <time>2039-05-14T08:18:26.000Z</time>
      </trkpt>
      <trkpt lat="42.431803643703460693359375" lon="0.60715514235198497772216796875">
        <ele>1227</ele>
        <time>2039-05-14T08:18:29.000Z</time>
      </trkpt>
      <trkpt lat="42.43187396787106990814208984375" lon="0.60696034692227840423583984375">
        <ele>1226.800048828125</ele>
        <time>2039-05-14T08:18:34.000Z</time>
      </trkpt>
      <trkpt lat="42.43189894594252109527587890625" lon="0.6069056130945682525634765625">
        <ele>1226.4000244140625</ele>
        <time>2039-05-14T08:18:35.000Z</time>
      </trkpt>
      <trkpt lat="42.43192710913717746734619140625" lon="0.60684802941977977752685546875">
        <ele>1225.800048828125</ele>
        <time>2039-05-14T08:18:36.000Z</time>
      </trkpt>
      <trkpt lat="42.43202299810945987701416015625" lon="0.6066843308508396148681640625">
        <ele>1224.800048828125</ele>
        <time>2039-05-14T08:18:39.000Z</time>
      </trkpt>
      <trkpt lat="42.43205468170344829559326171875" lon="0.60663412325084209442138671875">
        <ele>1224.5999755859375</ele>
        <time>2039-05-14T08:18:40.000Z</time>
      </trkpt>
      <trkpt lat="42.43216750212013721466064453125" lon="0.60643362812697887420654296875">
        <ele>1224.5999755859375</ele>
        <time>2039-05-14T08:18:44.000Z</time>
      </trkpt>
      <trkpt lat="42.43223472498357295989990234375" lon="0.60634193010628223419189453125">
        <ele>1224</ele>
        <time>2039-05-14T08:18:46.000Z</time>
      </trkpt>
      <trkpt lat="42.43237688206136226654052734375" lon="0.60617546550929546356201171875">
        <ele>1223.4000244140625</ele>
        <time>2039-05-14T08:18:50.000Z</time>
      </trkpt>
      <trkpt lat="42.43240856565535068511962890625" lon="0.6061331368982791900634765625">
        <ele>1223.199951171875</ele>
        <time>2039-05-14T08:18:51.000Z</time>
      </trkpt>
      <trkpt lat="42.4324344657361507415771484375" lon="0.6060865335166454315185546875">
        <ele>1223</ele>
        <time>2039-05-14T08:18:52.000Z</time>
      </trkpt>
      <trkpt lat="42.43250411935150623321533203125" lon="0.60591177083551883697509765625">
        <ele>1222.4000244140625</ele>
        <time>2039-05-14T08:18:55.000Z</time>
      </trkpt>
      <trkpt lat="42.43256782181560993194580078125" lon="0.60571144334971904754638671875">
        <ele>1221.800048828125</ele>
        <time>2039-05-14T08:18:58.000Z</time>
      </trkpt>
      <trkpt lat="42.43267209269106388092041015625" lon="0.60536242090165615081787109375">
        <ele>1221.5999755859375</ele>
        <time>2039-05-14T08:19:04.000Z</time>
      </trkpt>
      <trkpt lat="42.43273613043129444122314453125" lon="0.6051209382712841033935546875">
        <ele>1222</ele>
        <time>2039-05-14T08:19:10.000Z</time>
      </trkpt>
      <trkpt lat="42.43282757699489593505859375" lon="0.60481139458715915679931640625">
        <ele>1222.4000244140625</ele>
        <time>2039-05-14T08:19:19.000Z</time>
      </trkpt>
      <trkpt lat="42.43291768245398998260498046875" lon="0.6044929660856723785400390625">
        <ele>1223.199951171875</ele>
        <time>2039-05-14T08:19:29.000Z</time>
      </trkpt>
      <trkpt lat="42.43294919840991497039794921875" lon="0.60436396859586238861083984375">
        <ele>1223.4000244140625</ele>
        <time>2039-05-14T08:19:33.000Z</time>
      </trkpt>
      <trkpt lat="42.43300049565732479095458984375" lon="0.6041442789137363433837890625">
        <ele>1223.800048828125</ele>
        <time>2039-05-14T08:19:40.000Z</time>
      </trkpt>
      <trkpt lat="42.43302647955715656280517578125" lon="0.603960044682025909423828125">
        <ele>1224.5999755859375</ele>
        <time>2039-05-14T08:19:46.000Z</time>
      </trkpt>
      <trkpt lat="42.4330299161374568939208984375" lon="0.60389659367501735687255859375">
        <ele>1224.800048828125</ele>
        <time>2039-05-14T08:19:48.000Z</time>
      </trkpt>
      <trkpt lat="42.433031089603900909423828125" lon="0.60380456037819385528564453125">
        <ele>1224.800048828125</ele>
        <time>2039-05-14T08:19:51.000Z</time>
      </trkpt>
      <trkpt lat="42.43304475210607051849365234375" lon="0.6036809273064136505126953125">
        <ele>1225.199951171875</ele>
        <time>2039-05-14T08:19:55.000Z</time>
      </trkpt>
      <trkpt lat="42.4330584146082401275634765625" lon="0.60360088013112545013427734375">
        <ele>1225.5999755859375</ele>
        <time>2039-05-14T08:19:58.000Z</time>
      </trkpt>
      <trkpt lat="42.4330778606235980987548828125" lon="0.60349493287503719329833984375">
        <ele>1226</ele>
        <time>2039-05-14T08:20:02.000Z</time>
      </trkpt>
      <trkpt lat="42.43311113677918910980224609375" lon="0.603293515741825103759765625">
        <ele>1226.4000244140625</ele>
        <time>2039-05-14T08:20:09.000Z</time>
      </trkpt>
      <trkpt lat="42.43311650119721889495849609375" lon="0.60326493345201015472412109375">
        <ele>1226.4000244140625</ele>
        <time>2039-05-14T08:20:10.000Z</time>
      </trkpt>
      <trkpt lat="42.43316226638853549957275390625" lon="0.60310316272079944610595703125">
        <ele>1226.800048828125</ele>
        <time>2039-05-14T08:20:16.000Z</time>
      </trkpt>
      <trkpt lat="42.4332086183130741119384765625" lon="0.6029496900737285614013671875">
        <ele>1227.4000244140625</ele>
        <time>2039-05-14T08:20:22.000Z</time>
      </trkpt>
      <trkpt lat="42.4332230351865291595458984375" lon="0.6027448363602161407470703125">
        <ele>1227</ele>
        <time>2039-05-14T08:20:28.000Z</time>
      </trkpt>
      <trkpt lat="42.433232255280017852783203125" lon="0.60240159742534160614013671875">
        <ele>1226</ele>
        <time>2039-05-14T08:20:34.000Z</time>
      </trkpt>
      <trkpt lat="42.4332347698509693145751953125" lon="0.602266229689121246337890625">
        <ele>1225.4000244140625</ele>
        <time>2039-05-14T08:20:36.000Z</time>
      </trkpt>
      <trkpt lat="42.433246672153472900390625" lon="0.60204922221601009368896484375">
        <ele>1225.199951171875</ele>
        <time>2039-05-14T08:20:40.000Z</time>
      </trkpt>
      <trkpt lat="42.4332270585000514984130859375" lon="0.60185576789081096649169921875">
        <ele>1226.4000244140625</ele>
        <time>2039-05-14T08:20:45.000Z</time>
      </trkpt>
      <trkpt lat="42.4332173354923725128173828125" lon="0.601768009364604949951171875">
        <ele>1227.5999755859375</ele>
        <time>2039-05-14T08:20:48.000Z</time>
      </trkpt>
      <trkpt lat="42.43321054615080356597900390625" lon="0.60160397551953792572021484375">
        <ele>1227.5999755859375</ele>
        <time>2039-05-14T08:20:53.000Z</time>
      </trkpt>
      <trkpt lat="42.43315489031374454498291015625" lon="0.60131572186946868896484375">
        <ele>1227.800048828125</ele>
        <time>2039-05-14T08:21:02.000Z</time>
      </trkpt>
      <trkpt lat="42.43313041515648365020751953125" lon="0.60107591561973094940185546875">
        <ele>1227.800048828125</ele>
        <time>2039-05-14T08:21:09.000Z</time>
      </trkpt>
      <trkpt lat="42.43313066661357879638671875" lon="0.60095437802374362945556640625">
        <ele>1228.800048828125</ele>
        <time>2039-05-14T08:21:13.000Z</time>
      </trkpt>
      <trkpt lat="42.4331331811845302581787109375" lon="0.6008351035416126251220703125">
        <ele>1229.5999755859375</ele>
        <time>2039-05-14T08:21:17.000Z</time>
      </trkpt>
      <trkpt lat="42.4331462569534778594970703125" lon="0.60065765865147113800048828125">
        <ele>1229.800048828125</ele>
        <time>2039-05-14T08:21:23.000Z</time>
      </trkpt>
      <trkpt lat="42.4331519566476345062255859375" lon="0.600630082190036773681640625">
        <ele>1230</ele>
        <time>2039-05-14T08:21:24.000Z</time>
      </trkpt>
      <trkpt lat="42.43322194553911685943603515625" lon="0.60038155876100063323974609375">
        <ele>1230.5999755859375</ele>
        <time>2039-05-14T08:21:33.000Z</time>
      </trkpt>
      <trkpt lat="42.43323116563260555267333984375" lon="0.6003563292324542999267578125">
        <ele>1230.800048828125</ele>
        <time>2039-05-14T08:21:34.000Z</time>
      </trkpt>
      <trkpt lat="42.43324893526732921600341796875" lon="0.600219033658504486083984375">
        <ele>1231</ele>
        <time>2039-05-14T08:21:39.000Z</time>
      </trkpt>
      <trkpt lat="42.43326771073043346405029296875" lon="0.60010646469891071319580078125">
        <ele>1231</ele>
        <time>2039-05-14T08:21:43.000Z</time>
      </trkpt>
      <trkpt lat="42.43327081203460693359375" lon="0.60005365870893001556396484375">
        <ele>1231</ele>
        <time>2039-05-14T08:21:45.000Z</time>
      </trkpt>
      <trkpt lat="42.43326636962592601776123046875" lon="0.5998612940311431884765625">
        <ele>1231.4000244140625</ele>
        <time>2039-05-14T08:21:51.000Z</time>
      </trkpt>
      <trkpt lat="42.4332568980753421783447265625" lon="0.59950548224151134490966796875">
        <ele>1230.800048828125</ele>
        <time>2039-05-14T08:22:00.000Z</time>
      </trkpt>
      <trkpt lat="42.43329067714512348175048828125" lon="0.5992505885660648345947265625">
        <ele>1231.5999755859375</ele>
        <time>2039-05-14T08:22:07.000Z</time>
      </trkpt>
      <trkpt lat="42.4333487637341022491455078125" lon="0.59900592081248760223388671875">
        <ele>1231</ele>
        <time>2039-05-14T08:22:14.000Z</time>
      </trkpt>
      <trkpt lat="42.4333635158836841583251953125" lon="0.5987463332712650299072265625">
        <ele>1230.800048828125</ele>
        <time>2039-05-14T08:22:21.000Z</time>
      </trkpt>
      <trkpt lat="42.43334750644862651824951171875" lon="0.5985149927437305450439453125">
        <ele>1231.4000244140625</ele>
        <time>2039-05-14T08:22:28.000Z</time>
      </trkpt>
      <trkpt lat="42.43328782729804515838623046875" lon="0.59834190644323825836181640625">
        <ele>1231.5999755859375</ele>
        <time>2039-05-14T08:22:34.000Z</time>
      </trkpt>
      <trkpt lat="42.43317316286265850067138671875" lon="0.5981297604739665985107421875">
        <ele>1231.800048828125</ele>
        <time>2039-05-14T08:22:42.000Z</time>
      </trkpt>
      <trkpt lat="42.43301860056817531585693359375" lon="0.59791325591504573822021484375">
        <ele>1232.800048828125</ele>
        <time>2039-05-14T08:22:51.000Z</time>
      </trkpt>
      <trkpt lat="42.43300233967602252960205078125" lon="0.59788928367197513580322265625">
        <ele>1232.800048828125</ele>
        <time>2039-05-14T08:22:52.000Z</time>
      </trkpt>
      <trkpt lat="42.4329073727130889892578125" lon="0.5977394990622997283935546875">
        <ele>1232.800048828125</ele>
        <time>2039-05-14T08:22:58.000Z</time>
      </trkpt>
      <trkpt lat="42.43290603160858154296875" lon="0.59770622290670871734619140625">
        <ele>1233</ele>
        <time>2039-05-14T08:22:59.000Z</time>
      </trkpt>
      <trkpt lat="42.4329212866723537445068359375" lon="0.59760748408734798431396484375">
        <ele>1233.4000244140625</ele>
        <time>2039-05-14T08:23:02.000Z</time>
      </trkpt>
      <trkpt lat="42.432943247258663177490234375" lon="0.5975567735731601715087890625">
        <ele>1233.800048828125</ele>
        <time>2039-05-14T08:23:04.000Z</time>
      </trkpt>
      <trkpt lat="42.4329583346843719482421875" lon="0.597536824643611907958984375">
        <ele>1233.800048828125</ele>
        <time>2039-05-14T08:23:05.000Z</time>
      </trkpt>
      <trkpt lat="42.43304349482059478759765625" lon="0.597469769418239593505859375">
        <ele>1234.800048828125</ele>
        <time>2039-05-14T08:23:10.000Z</time>
      </trkpt>
      <trkpt lat="42.4330594204366207122802734375" lon="0.59745845384895801544189453125">
        <ele>1235</ele>
        <time>2039-05-14T08:23:11.000Z</time>
      </trkpt>
      <trkpt lat="42.43316075764596462249755859375" lon="0.59737564064562320709228515625">
        <ele>1236.199951171875</ele>
        <time>2039-05-14T08:23:17.000Z</time>
      </trkpt>
      <trkpt lat="42.433181293308734893798828125" lon="0.59736189432442188262939453125">
        <ele>1236.4000244140625</ele>
        <time>2039-05-14T08:23:18.000Z</time>
      </trkpt>
      <trkpt lat="42.433285899460315704345703125" lon="0.59725091792643070220947265625">
        <ele>1236.800048828125</ele>
        <time>2039-05-14T08:23:25.000Z</time>
      </trkpt>
      <trkpt lat="42.4333266355097293853759765625" lon="0.597182102501392364501953125">
        <ele>1237.4000244140625</ele>
        <time>2039-05-14T08:23:29.000Z</time>
      </trkpt>
      <trkpt lat="42.43335739709436893463134765625" lon="0.5971240997314453125">
        <ele>1238.199951171875</ele>
        <time>2039-05-14T08:23:32.000Z</time>
      </trkpt>
      <trkpt lat="42.43339159525930881500244140625" lon="0.5970163084566593170166015625">
        <ele>1238.5999755859375</ele>
        <time>2039-05-14T08:23:37.000Z</time>
      </trkpt>
      <trkpt lat="42.43339880369603633880615234375" lon="0.59696786105632781982421875">
        <ele>1238.800048828125</ele>
        <time>2039-05-14T08:23:39.000Z</time>
      </trkpt>
      <trkpt lat="42.43341204710304737091064453125" lon="0.5968731455504894256591796875">
        <ele>1239.800048828125</ele>
        <time>2039-05-14T08:23:43.000Z</time>
      </trkpt>
      <trkpt lat="42.4334188364446163177490234375" lon="0.596810616552829742431640625">
        <ele>1240.199951171875</ele>
        <time>2039-05-14T08:23:46.000Z</time>
      </trkpt>
      <trkpt lat="42.4334312416613101959228515625" lon="0.59674398042261600494384765625">
        <ele>1240.800048828125</ele>
        <time>2039-05-14T08:23:49.000Z</time>
      </trkpt>
      <trkpt lat="42.43344792164862155914306640625" lon="0.5966555513441562652587890625">
        <ele>1241.4000244140625</ele>
        <time>2039-05-14T08:23:53.000Z</time>
      </trkpt>
      <trkpt lat="42.43348932825028896331787109375" lon="0.59643049724400043487548828125">
        <ele>1242</ele>
        <time>2039-05-14T08:24:03.000Z</time>
      </trkpt>
      <trkpt lat="42.43351154029369354248046875" lon="0.5962837301194667816162109375">
        <ele>1243.199951171875</ele>
        <time>2039-05-14T08:24:09.000Z</time>
      </trkpt>
      <trkpt lat="42.43352872319519519805908203125" lon="0.5962190218269824981689453125">
        <ele>1243.199951171875</ele>
        <time>2039-05-14T08:24:12.000Z</time>
      </trkpt>
      <trkpt lat="42.43354775011539459228515625" lon="0.59610410593450069427490234375">
        <ele>1243.800048828125</ele>
        <time>2039-05-14T08:24:17.000Z</time>
      </trkpt>
      <trkpt lat="42.43355906568467617034912109375" lon="0.59606052003800868988037109375">
        <ele>1244.199951171875</ele>
        <time>2039-05-14T08:24:19.000Z</time>
      </trkpt>
      <trkpt lat="42.4335935153067111968994140625" lon="0.59592892415821552276611328125">
        <ele>1245</ele>
        <time>2039-05-14T08:24:25.000Z</time>
      </trkpt>
      <trkpt lat="42.43360181339085102081298828125" lon="0.5958824045956134796142578125">
        <ele>1245.199951171875</ele>
        <time>2039-05-14T08:24:27.000Z</time>
      </trkpt>
      <trkpt lat="42.4336288869380950927734375" lon="0.595767237246036529541015625">
        <ele>1245.800048828125</ele>
        <time>2039-05-14T08:24:32.000Z</time>
      </trkpt>
      <trkpt lat="42.43365679867565631866455078125" lon="0.595622397959232330322265625">
        <ele>1246.199951171875</ele>
        <time>2039-05-14T08:24:38.000Z</time>
      </trkpt>
      <trkpt lat="42.4336652643978595733642578125" lon="0.59557017870247364044189453125">
        <ele>1246.5999755859375</ele>
        <time>2039-05-14T08:24:40.000Z</time>
      </trkpt>
      <trkpt lat="42.43369317613542079925537109375" lon="0.59538946487009525299072265625">
        <ele>1247.4000244140625</ele>
        <time>2039-05-14T08:24:47.000Z</time>
      </trkpt>
      <trkpt lat="42.433697618544101715087890625" lon="0.59536498971283435821533203125">
        <ele>1247.4000244140625</ele>
        <time>2039-05-14T08:24:48.000Z</time>
      </trkpt>
      <trkpt lat="42.43372343480587005615234375" lon="0.595218725502490997314453125">
        <ele>1248.5999755859375</ele>
        <time>2039-05-14T08:24:54.000Z</time>
      </trkpt>
      <trkpt lat="42.43372670374810695648193359375" lon="0.5951942503452301025390625">
        <ele>1249</ele>
        <time>2039-05-14T08:24:55.000Z</time>
      </trkpt>
      <trkpt lat="42.43373625911772251129150390625" lon="0.59501009993255138397216796875">
        <ele>1249.800048828125</ele>
        <time>2039-05-14T08:25:02.000Z</time>
      </trkpt>
      <trkpt lat="42.43373022414743900299072265625" lon="0.59484564699232578277587890625">
        <ele>1250.5999755859375</ele>
        <time>2039-05-14T08:25:08.000Z</time>
      </trkpt>
      <trkpt lat="42.4337306432425975799560546875" lon="0.5947919189929962158203125">
        <ele>1250.800048828125</ele>
        <time>2039-05-14T08:25:10.000Z</time>
      </trkpt>
      <trkpt lat="42.43372854776680469512939453125" lon="0.594634674489498138427734375">
        <ele>1251.4000244140625</ele>
        <time>2039-05-14T08:25:16.000Z</time>
      </trkpt>
      <trkpt lat="42.43372955359518527984619140625" lon="0.5945882387459278106689453125">
        <ele>1251.800048828125</ele>
        <time>2039-05-14T08:25:18.000Z</time>
      </trkpt>
      <trkpt lat="42.43371547199785709381103515625" lon="0.5945022404193878173828125">
        <ele>1252.199951171875</ele>
        <time>2039-05-14T08:25:22.000Z</time>
      </trkpt>
      <trkpt lat="42.43369200266897678375244140625" lon="0.59437206946313381195068359375">
        <ele>1252.800048828125</ele>
        <time>2039-05-14T08:25:28.000Z</time>
      </trkpt>
      <trkpt lat="42.43368747644126415252685546875" lon="0.5943461693823337554931640625">
        <ele>1253</ele>
        <time>2039-05-14T08:25:29.000Z</time>
      </trkpt>
      <trkpt lat="42.43364154361188411712646484375" lon="0.594165287911891937255859375">
        <ele>1254.199951171875</ele>
        <time>2039-05-14T08:25:36.000Z</time>
      </trkpt>
      <trkpt lat="42.43359602987766265869140625" lon="0.59400980360805988311767578125">
        <ele>1254.800048828125</ele>
        <time>2039-05-14T08:25:43.000Z</time>
      </trkpt>
      <trkpt lat="42.4336243607103824615478515625" lon="0.59391525574028491973876953125">
        <ele>1255.199951171875</ele>
        <time>2039-05-14T08:25:47.000Z</time>
      </trkpt>
      <trkpt lat="42.43365797214210033416748046875" lon="0.5938546545803546905517578125">
        <ele>1255.5999755859375</ele>
        <time>2039-05-14T08:25:50.000Z</time>
      </trkpt>
      <trkpt lat="42.43370155803859233856201171875" lon="0.593796484172344207763671875">
        <ele>1256.4000244140625</ele>
        <time>2039-05-14T08:25:53.000Z</time>
      </trkpt>
      <trkpt lat="42.433731816709041595458984375" lon="0.59375750832259654998779296875">
        <ele>1256.5999755859375</ele>
        <time>2039-05-14T08:25:55.000Z</time>
      </trkpt>
      <trkpt lat="42.433741204440593719482421875" lon="0.59373370371758937835693359375">
        <ele>1256.800048828125</ele>
        <time>2039-05-14T08:25:56.000Z</time>
      </trkpt>
      <trkpt lat="42.4337898194789886474609375" lon="0.59367469511926174163818359375">
        <ele>1257</ele>
        <time>2039-05-14T08:25:59.000Z</time>
      </trkpt>
      <trkpt lat="42.43382024578750133514404296875" lon="0.593642257153987884521484375">
        <ele>1257.5999755859375</ele>
        <time>2039-05-14T08:26:01.000Z</time>
      </trkpt>
      <trkpt lat="42.4338483251631259918212890625" lon="0.59360898099839687347412109375">
        <ele>1258</ele>
        <time>2039-05-14T08:26:03.000Z</time>
      </trkpt>
      <trkpt lat="42.4339153803884983062744140625" lon="0.5935059674084186553955078125">
        <ele>1258.5999755859375</ele>
        <time>2039-05-14T08:26:09.000Z</time>
      </trkpt>
      <trkpt lat="42.4339274503290653228759765625" lon="0.59348828159272670745849609375">
        <ele>1258.800048828125</ele>
        <time>2039-05-14T08:26:10.000Z</time>
      </trkpt>
      <trkpt lat="42.4340139515697956085205078125" lon="0.59333288110792636871337890625">
        <ele>1259.800048828125</ele>
        <time>2039-05-14T08:26:18.000Z</time>
      </trkpt>
      <trkpt lat="42.43403398431837558746337890625" lon="0.5932890437543392181396484375">
        <ele>1260.199951171875</ele>
        <time>2039-05-14T08:26:20.000Z</time>
      </trkpt>
      <trkpt lat="42.43409131653606891632080078125" lon="0.593120567500591278076171875">
        <ele>1261</ele>
        <time>2039-05-14T08:26:27.000Z</time>
      </trkpt>
      <trkpt lat="42.43412098847329616546630859375" lon="0.5930489860475063323974609375">
        <ele>1261.5999755859375</ele>
        <time>2039-05-14T08:26:30.000Z</time>
      </trkpt>
      <trkpt lat="42.43417094461619853973388671875" lon="0.59294027276337146759033203125">
        <ele>1262</ele>
        <time>2039-05-14T08:26:35.000Z</time>
      </trkpt>
      <trkpt lat="42.43420648388564586639404296875" lon="0.59285092167556285858154296875">
        <ele>1262.4000244140625</ele>
        <time>2039-05-14T08:26:39.000Z</time>
      </trkpt>
      <trkpt lat="42.4342600442469120025634765625" lon="0.5926845408976078033447265625">
        <ele>1263</ele>
        <time>2039-05-14T08:26:46.000Z</time>
      </trkpt>
      <trkpt lat="42.434294410049915313720703125" lon="0.59250005520880222320556640625">
        <ele>1263.5999755859375</ele>
        <time>2039-05-14T08:26:53.000Z</time>
      </trkpt>
      <trkpt lat="42.43431645445525646209716796875" lon="0.59230039827525615692138671875">
        <ele>1264.199951171875</ele>
        <time>2039-05-14T08:27:00.000Z</time>
      </trkpt>
      <trkpt lat="42.43432349525392055511474609375" lon="0.59224038384854793548583984375">
        <ele>1264.4000244140625</ele>
        <time>2039-05-14T08:27:02.000Z</time>
      </trkpt>
      <trkpt lat="42.43434294126927852630615234375" lon="0.59204793535172939300537109375">
        <ele>1265.199951171875</ele>
        <time>2039-05-14T08:27:09.000Z</time>
      </trkpt>
      <trkpt lat="42.4343462102115154266357421875" lon="0.59199345298111438751220703125">
        <ele>1265.4000244140625</ele>
        <time>2039-05-14T08:27:11.000Z</time>
      </trkpt>
      <trkpt lat="42.43436138145625591278076171875" lon="0.5917739309370517730712890625">
        <ele>1266</ele>
        <time>2039-05-14T08:27:19.000Z</time>
      </trkpt>
      <trkpt lat="42.43436523713171482086181640625" lon="0.59171601198613643646240234375">
        <ele>1266.199951171875</ele>
        <time>2039-05-14T08:27:21.000Z</time>
      </trkpt>
      <trkpt lat="42.4343857727944850921630859375" lon="0.591570921242237091064453125">
        <ele>1266.800048828125</ele>
        <time>2039-05-14T08:27:26.000Z</time>
      </trkpt>
      <trkpt lat="42.43446749635040760040283203125" lon="0.591369755566120147705078125">
        <ele>1267</ele>
        <time>2039-05-14T08:27:33.000Z</time>
      </trkpt>
      <trkpt lat="42.43456975556910037994384765625" lon="0.59118459932506084442138671875">
        <ele>1266.5999755859375</ele>
        <time>2039-05-14T08:27:39.000Z</time>
      </trkpt>
      <trkpt lat="42.434673272073268890380859375" lon="0.59093615971505641937255859375">
        <ele>1266.4000244140625</ele>
        <time>2039-05-14T08:27:46.000Z</time>
      </trkpt>
      <trkpt lat="42.43475968949496746063232421875" lon="0.590701885521411895751953125">
        <ele>1266.199951171875</ele>
        <time>2039-05-14T08:27:52.000Z</time>
      </trkpt>
      <trkpt lat="42.43477159179747104644775390625" lon="0.5905377678573131561279296875">
        <ele>1265.199951171875</ele>
        <time>2039-05-14T08:27:56.000Z</time>
      </trkpt>
      <trkpt lat="42.43477544747292995452880859375" lon="0.59048772789537906646728515625">
        <ele>1265</ele>
        <time>2039-05-14T08:27:57.000Z</time>
      </trkpt>
      <trkpt lat="42.43477393873035907745361328125" lon="0.5902393721044063568115234375">
        <ele>1264.199951171875</ele>
        <time>2039-05-14T08:28:01.000Z</time>
      </trkpt>
      <trkpt lat="42.434771172702312469482421875" lon="0.59017826803028583526611328125">
        <ele>1264</ele>
        <time>2039-05-14T08:28:02.000Z</time>
      </trkpt>
      <trkpt lat="42.4347726814448833465576171875" lon="0.590054132044315338134765625">
        <ele>1263.199951171875</ele>
        <time>2039-05-14T08:28:04.000Z</time>
      </trkpt>
      <trkpt lat="42.4347813986241817474365234375" lon="0.58985388837754726409912109375">
        <ele>1262</ele>
        <time>2039-05-14T08:28:07.000Z</time>
      </trkpt>
      <trkpt lat="42.434782572090625762939453125" lon="0.58963947929441928863525390625">
        <ele>1260.5999755859375</ele>
        <time>2039-05-14T08:28:10.000Z</time>
      </trkpt>
      <trkpt lat="42.43478416465222835540771484375" lon="0.58942875824868679046630859375">
        <ele>1260</ele>
        <time>2039-05-14T08:28:13.000Z</time>
      </trkpt>
      <trkpt lat="42.43477620184421539306640625" lon="0.58928978629410266876220703125">
        <ele>1259.4000244140625</ele>
        <time>2039-05-14T08:28:15.000Z</time>
      </trkpt>
      <trkpt lat="42.434754408895969390869140625" lon="0.58907487429678440093994140625">
        <ele>1258.5999755859375</ele>
        <time>2039-05-14T08:28:18.000Z</time>
      </trkpt>
      <trkpt lat="42.43475600145757198333740234375" lon="0.58900346048176288604736328125">
        <ele>1258.4000244140625</ele>
        <time>2039-05-14T08:28:19.000Z</time>
      </trkpt>
      <trkpt lat="42.4347632937133312225341796875" lon="0.5889311246573925018310546875">
        <ele>1258.199951171875</ele>
        <time>2039-05-14T08:28:20.000Z</time>
      </trkpt>
      <trkpt lat="42.434801347553730010986328125" lon="0.5887148715555667877197265625">
        <ele>1257</ele>
        <time>2039-05-14T08:28:23.000Z</time>
      </trkpt>
      <trkpt lat="42.4348125793039798736572265625" lon="0.5886411108076572418212890625">
        <ele>1256.4000244140625</ele>
        <time>2039-05-14T08:28:24.000Z</time>
      </trkpt>
      <trkpt lat="42.4348280020058155059814453125" lon="0.5885691940784454345703125">
        <ele>1255.800048828125</ele>
        <time>2039-05-14T08:28:25.000Z</time>
      </trkpt>
      <trkpt lat="42.43490905500948429107666015625" lon="0.58836878277361392974853515625">
        <ele>1254.800048828125</ele>
        <time>2039-05-14T08:28:28.000Z</time>
      </trkpt>
      <trkpt lat="42.43502103723585605621337890625" lon="0.5882404558360576629638671875">
        <ele>1254.4000244140625</ele>
        <time>2039-05-14T08:28:31.000Z</time>
      </trkpt>
      <trkpt lat="42.4350611865520477294921875" lon="0.588211119174957275390625">
        <ele>1254.199951171875</ele>
        <time>2039-05-14T08:28:32.000Z</time>
      </trkpt>
      <trkpt lat="42.43509882129728794097900390625" lon="0.5881814472377300262451171875">
        <ele>1254</ele>
        <time>2039-05-14T08:28:33.000Z</time>
      </trkpt>
      <trkpt lat="42.435131929814815521240234375" lon="0.58814481832087039947509765625">
        <ele>1253.800048828125</ele>
        <time>2039-05-14T08:28:34.000Z</time>
      </trkpt>
      <trkpt lat="42.43517627008259296417236328125" lon="0.588053204119205474853515625">
        <ele>1253.5999755859375</ele>
        <time>2039-05-14T08:28:36.000Z</time>
      </trkpt>
      <trkpt lat="42.43521315045654773712158203125" lon="0.58790241368114948272705078125">
        <ele>1253.4000244140625</ele>
        <time>2039-05-14T08:28:39.000Z</time>
      </trkpt>
      <trkpt lat="42.435229830443859100341796875" lon="0.58775388635694980621337890625">
        <ele>1253</ele>
        <time>2039-05-14T08:28:42.000Z</time>
      </trkpt>
      <trkpt lat="42.43526981212198734283447265625" lon="0.58735524304211139678955078125">
        <ele>1253.199951171875</ele>
        <time>2039-05-14T08:28:51.000Z</time>
      </trkpt>
      <trkpt lat="42.43532412685453891754150390625" lon="0.5870277620851993560791015625">
        <ele>1253.4000244140625</ele>
        <time>2039-05-14T08:28:59.000Z</time>
      </trkpt>
      <trkpt lat="42.435371987521648406982421875" lon="0.58676331304013729095458984375">
        <ele>1253</ele>
        <time>2039-05-14T08:29:06.000Z</time>
      </trkpt>
      <trkpt lat="42.43539805524051189422607421875" lon="0.58664328418672084808349609375">
        <ele>1252.5999755859375</ele>
        <time>2039-05-14T08:29:09.000Z</time>
      </trkpt>
      <trkpt lat="42.4354405514895915985107421875" lon="0.5864919908344745635986328125">
        <ele>1251.4000244140625</ele>
        <time>2039-05-14T08:29:12.000Z</time>
      </trkpt>
      <trkpt lat="42.4355703033506870269775390625" lon="0.58613517321646213531494140625">
        <ele>1250.5999755859375</ele>
        <time>2039-05-14T08:29:18.000Z</time>
      </trkpt>
      <trkpt lat="42.4356232769787311553955078125" lon="0.58602453209459781646728515625">
        <ele>1250.199951171875</ele>
        <time>2039-05-14T08:29:20.000Z</time>
      </trkpt>
      <trkpt lat="42.435750849545001983642578125" lon="0.58573485352098941802978515625">
        <ele>1249.5999755859375</ele>
        <time>2039-05-14T08:29:25.000Z</time>
      </trkpt>
      <trkpt lat="42.43582586757838726043701171875" lon="0.58548876084387302398681640625">
        <ele>1249</ele>
        <time>2039-05-14T08:29:29.000Z</time>
      </trkpt>
      <trkpt lat="42.43587129749357700347900390625" lon="0.58527317829430103302001953125">
        <ele>1248.4000244140625</ele>
        <time>2039-05-14T08:29:32.000Z</time>
      </trkpt>
      <trkpt lat="42.43590004742145538330078125" lon="0.58512247167527675628662109375">
        <ele>1248</ele>
        <time>2039-05-14T08:29:34.000Z</time>
      </trkpt>
      <trkpt lat="42.43595310486853122711181640625" lon="0.58489180169999599456787109375">
        <ele>1246.5999755859375</ele>
        <time>2039-05-14T08:29:37.000Z</time>
      </trkpt>
      <trkpt lat="42.4360111914575099945068359375" lon="0.58466725051403045654296875">
        <ele>1246.199951171875</ele>
        <time>2039-05-14T08:29:40.000Z</time>
      </trkpt>
      <trkpt lat="42.43605016730725765228271484375" lon="0.58453054167330265045166015625">
        <ele>1245.4000244140625</ele>
        <time>2039-05-14T08:29:42.000Z</time>
      </trkpt>
      <trkpt lat="42.43611462414264678955078125" lon="0.584314204752445220947265625">
        <ele>1244.4000244140625</ele>
        <time>2039-05-14T08:29:45.000Z</time>
      </trkpt>
      <trkpt lat="42.436175979673862457275390625" lon="0.584172718226909637451171875">
        <ele>1243.4000244140625</ele>
        <time>2039-05-14T08:29:47.000Z</time>
      </trkpt>
      <trkpt lat="42.43621026165783405303955078125" lon="0.58410541154444217681884765625">
        <ele>1243</ele>
        <time>2039-05-14T08:29:48.000Z</time>
      </trkpt>
      <trkpt lat="42.4362817592918872833251953125" lon="0.5839911662042140960693359375">
        <ele>1241.800048828125</ele>
        <time>2039-05-14T08:29:50.000Z</time>
      </trkpt>
      <trkpt lat="42.43633925914764404296875" lon="0.5839169025421142578125">
        <ele>1240.5999755859375</ele>
        <time>2039-05-14T08:29:52.000Z</time>
      </trkpt>
      <trkpt lat="42.436393909156322479248046875" lon="0.5838637612760066986083984375">
        <ele>1239.4000244140625</ele>
        <time>2039-05-14T08:29:54.000Z</time>
      </trkpt>
      <trkpt lat="42.4364908039569854736328125" lon="0.58376577682793140411376953125">
        <ele>1237.800048828125</ele>
        <time>2039-05-14T08:29:58.000Z</time>
      </trkpt>
      <trkpt lat="42.43656096048653125762939453125" lon="0.58368363417685031890869140625">
        <ele>1237.199951171875</ele>
        <time>2039-05-14T08:30:01.000Z</time>
      </trkpt>
      <trkpt lat="42.43661443702876567840576171875" lon="0.58362496085464954376220703125">
        <ele>1236.5999755859375</ele>
        <time>2039-05-14T08:30:03.000Z</time>
      </trkpt>
      <trkpt lat="42.436674199998378753662109375" lon="0.5835439078509807586669921875">
        <ele>1235.4000244140625</ele>
        <time>2039-05-14T08:30:06.000Z</time>
      </trkpt>
      <trkpt lat="42.43668467737734317779541015625" lon="0.583533681929111480712890625">
        <ele>1235.199951171875</ele>
        <time>2039-05-14T08:30:07.000Z</time>
      </trkpt>
      <trkpt lat="42.43667160160839557647705078125" lon="0.583537705242633819580078125">
        <ele>1234.5999755859375</ele>
        <time>2039-05-14T08:30:12.000Z</time>
      </trkpt>
      <trkpt lat="42.436669170856475830078125" lon="0.58354474604129791259765625">
        <ele>1234.5999755859375</ele>
        <time>2039-05-14T08:30:19.000Z</time>
      </trkpt>
      <trkpt lat="42.4367008544504642486572265625" lon="0.5835157446563243865966796875">
        <ele>1234.4000244140625</ele>
        <time>2039-05-14T08:30:29.000Z</time>
      </trkpt>
      <trkpt lat="42.4367132596671581268310546875" lon="0.58351255953311920166015625">
        <ele>1234</ele>
        <time>2039-05-14T08:30:36.000Z</time>
      </trkpt>
      <trkpt lat="42.4367759563028812408447265625" lon="0.58346964418888092041015625">
        <ele>1234.199951171875</ele>
        <time>2039-05-14T08:30:41.000Z</time>
      </trkpt>
      <trkpt lat="42.43688701651990413665771484375" lon="0.58338004164397716522216796875">
        <ele>1233.4000244140625</ele>
        <time>2039-05-14T08:30:45.000Z</time>
      </trkpt>
      <trkpt lat="42.43696178309619426727294921875" lon="0.58333276771008968353271484375">
        <ele>1232.199951171875</ele>
        <time>2039-05-14T08:30:48.000Z</time>
      </trkpt>
      <trkpt lat="42.43711550720036029815673828125" lon="0.583263449370861053466796875">
        <ele>1231.5999755859375</ele>
        <time>2039-05-14T08:30:55.000Z</time>
      </trkpt>
      <trkpt lat="42.4371256493031978607177734375" lon="0.583240985870361328125">
        <ele>1231.5999755859375</ele>
        <time>2039-05-14T08:30:56.000Z</time>
      </trkpt>
      <trkpt lat="42.43712388910353183746337890625" lon="0.583179295063018798828125">
        <ele>1231.5999755859375</ele>
        <time>2039-05-14T08:30:59.000Z</time>
      </trkpt>
      <trkpt lat="42.43711550720036029815673828125" lon="0.58317367918789386749267578125">
        <ele>1231.800048828125</ele>
        <time>2039-05-14T08:31:01.000Z</time>
      </trkpt>
      <trkpt lat="42.437104023993015289306640625" lon="0.58317183516919612884521484375">
        <ele>1232</ele>
        <time>2039-05-14T08:31:03.000Z</time>
      </trkpt>
      <trkpt lat="42.4370482005178928375244140625" lon="0.58314685709774494171142578125">
        <ele>1233</ele>
        <time>2039-05-14T08:31:09.000Z</time>
      </trkpt>
      <trkpt lat="42.4370374716818332672119140625" lon="0.58313646353781223297119140625">
        <ele>1233.199951171875</ele>
        <time>2039-05-14T08:31:10.000Z</time>
      </trkpt>
      <trkpt lat="42.43697016499936580657958984375" lon="0.58303621597588062286376953125">
        <ele>1234</ele>
        <time>2039-05-14T08:31:17.000Z</time>
      </trkpt>
      <trkpt lat="42.43696362711489200592041015625" lon="0.58301844634115695953369140625">
        <ele>1234.199951171875</ele>
        <time>2039-05-14T08:31:18.000Z</time>
      </trkpt>
      <trkpt lat="42.43693160824477672576904296875" lon="0.58294736780226230621337890625">
        <ele>1235.199951171875</ele>
        <time>2039-05-14T08:31:22.000Z</time>
      </trkpt>
      <trkpt lat="42.436899505555629730224609375" lon="0.58285399340093135833740234375">
        <ele>1235.5999755859375</ele>
        <time>2039-05-14T08:31:27.000Z</time>
      </trkpt>
      <trkpt lat="42.43688098154962062835693359375" lon="0.58279314078390598297119140625">
        <ele>1236.199951171875</ele>
        <time>2039-05-14T08:31:30.000Z</time>
      </trkpt>
      <trkpt lat="42.43683622218668460845947265625" lon="0.58268182910978794097900390625">
        <ele>1237</ele>
        <time>2039-05-14T08:31:36.000Z</time>
      </trkpt>
      <trkpt lat="42.4368007667362689971923828125" lon="0.5826001055538654327392578125">
        <ele>1237.4000244140625</ele>
        <time>2039-05-14T08:31:41.000Z</time>
      </trkpt>
      <trkpt lat="42.43677687831223011016845703125" lon="0.58255827985703945159912109375">
        <ele>1237.800048828125</ele>
        <time>2039-05-14T08:31:44.000Z</time>
      </trkpt>
      <trkpt lat="42.43675273843109607696533203125" lon="0.58251804672181606292724609375">
        <ele>1238.4000244140625</ele>
        <time>2039-05-14T08:31:47.000Z</time>
      </trkpt>
      <trkpt lat="42.43672323413193225860595703125" lon="0.58243975974619388580322265625">
        <ele>1239</ele>
        <time>2039-05-14T08:31:52.000Z</time>
      </trkpt>
      <trkpt lat="42.43671200238168239593505859375" lon="0.58240841142833232879638671875">
        <ele>1239.4000244140625</ele>
        <time>2039-05-14T08:31:54.000Z</time>
      </trkpt>
      <trkpt lat="42.43671451695263385772705078125" lon="0.58233398012816905975341796875">
        <ele>1240.199951171875</ele>
        <time>2039-05-14T08:31:58.000Z</time>
      </trkpt>
      <trkpt lat="42.43672776035964488983154296875" lon="0.58229609392583370208740234375">
        <ele>1240.5999755859375</ele>
        <time>2039-05-14T08:32:00.000Z</time>
      </trkpt>
      <trkpt lat="42.43676832877099514007568359375" lon="0.5822530947625637054443359375">
        <ele>1241</ele>
        <time>2039-05-14T08:32:04.000Z</time>
      </trkpt>
      <trkpt lat="42.43679984472692012786865234375" lon="0.5822487361729145050048828125">
        <ele>1241.199951171875</ele>
        <time>2039-05-14T08:32:06.000Z</time>
      </trkpt>
      <trkpt lat="42.43683991022408008575439453125" lon="0.58227228932082653045654296875">
        <ele>1241.800048828125</ele>
        <time>2039-05-14T08:32:09.000Z</time>
      </trkpt>
      <trkpt lat="42.436914928257465362548828125" lon="0.5823298729956150054931640625">
        <ele>1242.4000244140625</ele>
        <time>2039-05-14T08:32:15.000Z</time>
      </trkpt>
      <trkpt lat="42.4369395710527896881103515625" lon="0.5823533423244953155517578125">
        <ele>1242.5999755859375</ele>
        <time>2039-05-14T08:32:17.000Z</time>
      </trkpt>
      <trkpt lat="42.43695222772657871246337890625" lon="0.58236298151314258575439453125">
        <ele>1242.800048828125</ele>
        <time>2039-05-14T08:32:18.000Z</time>
      </trkpt>
      <trkpt lat="42.43703688494861125946044921875" lon="0.5824214033782482147216796875">
        <ele>1243.800048828125</ele>
        <time>2039-05-14T08:32:25.000Z</time>
      </trkpt>
      <trkpt lat="42.4370495416224002838134765625" lon="0.5824291147291660308837890625">
        <ele>1243.800048828125</ele>
        <time>2039-05-14T08:32:26.000Z</time>
      </trkpt>
      <trkpt lat="42.43712690658867359161376953125" lon="0.5825162865221500396728515625">
        <ele>1244.800048828125</ele>
        <time>2039-05-14T08:32:33.000Z</time>
      </trkpt>
      <trkpt lat="42.4371360428631305694580078125" lon="0.582529194653034210205078125">
        <ele>1245</ele>
        <time>2039-05-14T08:32:34.000Z</time>
      </trkpt>
      <trkpt lat="42.4372188560664653778076171875" lon="0.58261980302631855010986328125">
        <ele>1246.4000244140625</ele>
        <time>2039-05-14T08:32:42.000Z</time>
      </trkpt>
      <trkpt lat="42.43723218329250812530517578125" lon="0.5826272629201412200927734375">
        <ele>1246.5999755859375</ele>
        <time>2039-05-14T08:32:43.000Z</time>
      </trkpt>
      <trkpt lat="42.437310554087162017822265625" lon="0.5825990997254848480224609375">
        <ele>1247.5999755859375</ele>
        <time>2039-05-14T08:32:49.000Z</time>
      </trkpt>
      <trkpt lat="42.43732237257063388824462890625" lon="0.58258719742298126220703125">
        <ele>1247.800048828125</ele>
        <time>2039-05-14T08:32:50.000Z</time>
      </trkpt>
      <trkpt lat="42.4374086223542690277099609375" lon="0.58247186243534088134765625">
        <ele>1248.4000244140625</ele>
        <time>2039-05-14T08:32:59.000Z</time>
      </trkpt>
      <trkpt lat="42.43743284605443477630615234375" lon="0.5824240855872631072998046875">
        <ele>1248.5999755859375</ele>
        <time>2039-05-14T08:33:02.000Z</time>
      </trkpt>
      <trkpt lat="42.4374381266534328460693359375" lon="0.58240480720996856689453125">
        <ele>1248.800048828125</ele>
        <time>2039-05-14T08:33:03.000Z</time>
      </trkpt>
      <trkpt lat="42.43746268562972545623779296875" lon="0.5823312141001224517822265625">
        <ele>1249.5999755859375</ele>
        <time>2039-05-14T08:33:07.000Z</time>
      </trkpt>
      <trkpt lat="42.43747442029416561126708984375" lon="0.58231763541698455810546875">
        <ele>1249.800048828125</ele>
        <time>2039-05-14T08:33:08.000Z</time>
      </trkpt>
      <trkpt lat="42.43749587796628475189208984375" lon="0.582285113632678985595703125">
        <ele>1250.5999755859375</ele>
        <time>2039-05-14T08:33:10.000Z</time>
      </trkpt>
      <trkpt lat="42.43752052076160907745361328125" lon="0.5822525918483734130859375">
        <ele>1251</ele>
        <time>2039-05-14T08:33:12.000Z</time>
      </trkpt>
      <trkpt lat="42.4375316686928272247314453125" lon="0.58223490603268146514892578125">
        <ele>1251.4000244140625</ele>
        <time>2039-05-14T08:33:13.000Z</time>
      </trkpt>
      <trkpt lat="42.43756511248648166656494140625" lon="0.5821629054844379425048828125">
        <ele>1252</ele>
        <time>2039-05-14T08:33:17.000Z</time>
      </trkpt>
      <trkpt lat="42.4375822953879833221435546875" lon="0.58213247917592525482177734375">
        <ele>1253</ele>
        <time>2039-05-14T08:33:19.000Z</time>
      </trkpt>
      <trkpt lat="42.43759176693856716156005859375" lon="0.5821250192821025848388671875">
        <ele>1253.4000244140625</ele>
        <time>2039-05-14T08:33:20.000Z</time>
      </trkpt>
      <trkpt lat="42.43759880773723125457763671875" lon="0.58212292380630970001220703125">
        <ele>1254</ele>
        <time>2039-05-14T08:33:22.000Z</time>
      </trkpt>
      <trkpt lat="42.43760350160300731658935546875" lon="0.58211789466440677642822265625">
        <ele>1254</ele>
        <time>2039-05-14T08:33:24.000Z</time>
      </trkpt>
      <trkpt lat="42.43762948550283908843994140625" lon="0.582064501941204071044921875">
        <ele>1254.199951171875</ele>
        <time>2039-05-14T08:33:30.000Z</time>
      </trkpt>
      <trkpt lat="42.43763837032020092010498046875" lon="0.5820460617542266845703125">
        <ele>1254.4000244140625</ele>
        <time>2039-05-14T08:33:32.000Z</time>
      </trkpt>
      <trkpt lat="42.43765681050717830657958984375" lon="0.582020916044712066650390625">
        <ele>1255.199951171875</ele>
        <time>2039-05-14T08:33:39.000Z</time>
      </trkpt>
      <trkpt lat="42.43765664286911487579345703125" lon="0.58202099986374378204345703125">
        <ele>1255.4000244140625</ele>
        <time>2039-05-14T08:34:04.000Z</time>
      </trkpt>
      <trkpt lat="42.43767374195158481597900390625" lon="0.581998117268085479736328125">
        <ele>1255.4000244140625</ele>
        <time>2039-05-14T08:34:10.000Z</time>
      </trkpt>
      <trkpt lat="42.4377046711742877960205078125" lon="0.58194237761199474334716796875">
        <ele>1255.5999755859375</ele>
        <time>2039-05-14T08:34:17.000Z</time>
      </trkpt>
      <trkpt lat="42.4377197585999965667724609375" lon="0.58185227215290069580078125">
        <ele>1256.4000244140625</ele>
        <time>2039-05-14T08:34:24.000Z</time>
      </trkpt>
      <trkpt lat="42.437720932066440582275390625" lon="0.58182938955724239349365234375">
        <ele>1256.5999755859375</ele>
        <time>2039-05-14T08:34:26.000Z</time>
      </trkpt>
      <trkpt lat="42.4377449043095111846923828125" lon="0.5817082710564136505126953125">
        <ele>1257.4000244140625</ele>
        <time>2039-05-14T08:34:35.000Z</time>
      </trkpt>
      <trkpt lat="42.4377526156604290008544921875" lon="0.5816174112260341644287109375">
        <ele>1258.199951171875</ele>
        <time>2039-05-14T08:34:42.000Z</time>
      </trkpt>
      <trkpt lat="42.4377563036978244781494140625" lon="0.58154641650617122650146484375">
        <ele>1258.5999755859375</ele>
        <time>2039-05-14T08:34:48.000Z</time>
      </trkpt>
      <trkpt lat="42.43775747716426849365234375" lon="0.58153384365141391754150390625">
        <ele>1258.800048828125</ele>
        <time>2039-05-14T08:34:49.000Z</time>
      </trkpt>
      <trkpt lat="42.43777080439031124114990234375" lon="0.58147349394857883453369140625">
        <ele>1259</ele>
        <time>2039-05-14T08:34:54.000Z</time>
      </trkpt>
      <trkpt lat="42.437789328396320343017578125" lon="0.58144591748714447021484375">
        <ele>1259.5999755859375</ele>
        <time>2039-05-14T08:34:57.000Z</time>
      </trkpt>
      <trkpt lat="42.43779393844306468963623046875" lon="0.58143544010818004608154296875">
        <ele>1259.800048828125</ele>
        <time>2039-05-14T08:34:58.000Z</time>
      </trkpt>
      <trkpt lat="42.43783215992152690887451171875" lon="0.58134927414357662200927734375">
        <ele>1260.4000244140625</ele>
        <time>2039-05-14T08:35:05.000Z</time>
      </trkpt>
      <trkpt lat="42.437838278710842132568359375" lon="0.58130912482738494873046875">
        <ele>1260.800048828125</ele>
        <time>2039-05-14T08:35:08.000Z</time>
      </trkpt>
      <trkpt lat="42.43784758262336254119873046875" lon="0.58127216063439846038818359375">
        <ele>1261.199951171875</ele>
        <time>2039-05-14T08:35:11.000Z</time>
      </trkpt>
      <trkpt lat="42.43786015547811985015869140625" lon="0.58123561553657054901123046875">
        <ele>1261.199951171875</ele>
        <time>2039-05-14T08:35:14.000Z</time>
      </trkpt>
      <trkpt lat="42.43786551989614963531494140625" lon="0.58122673071920871734619140625">
        <ele>1261.199951171875</ele>
        <time>2039-05-14T08:35:15.000Z</time>
      </trkpt>
      <trkpt lat="42.4378729797899723052978515625" lon="0.5812043510377407073974609375">
        <ele>1261.199951171875</ele>
        <time>2039-05-14T08:35:17.000Z</time>
      </trkpt>
      <trkpt lat="42.437876500189304351806640625" lon="0.581173002719879150390625">
        <ele>1261.4000244140625</ele>
        <time>2039-05-14T08:35:19.000Z</time>
      </trkpt>
      <trkpt lat="42.43788211606442928314208984375" lon="0.58110519312322139739990234375">
        <ele>1262</ele>
        <time>2039-05-14T08:35:24.000Z</time>
      </trkpt>
      <trkpt lat="42.4378776736557483673095703125" lon="0.5810997448861598968505859375">
        <ele>1262.199951171875</ele>
        <time>2039-05-14T08:35:27.000Z</time>
      </trkpt>
      <trkpt lat="42.43787742219865322113037109375" lon="0.5810970626771450042724609375">
        <ele>1262</ele>
        <time>2039-05-14T08:35:37.000Z</time>
      </trkpt>
      <trkpt lat="42.43787775747478008270263671875" lon="0.581096224486827850341796875">
        <ele>1262</ele>
        <time>2039-05-14T08:35:55.000Z</time>
      </trkpt>
      <trkpt lat="42.4378801882266998291015625" lon="0.58108189143240451812744140625">
        <ele>1262</ele>
        <time>2039-05-14T08:36:14.000Z</time>
      </trkpt>
      <trkpt lat="42.43787708692252635955810546875" lon="0.58102606795728206634521484375">
        <ele>1262</ele>
        <time>2039-05-14T08:36:19.000Z</time>
      </trkpt>
      <trkpt lat="42.43789284490048885345458984375" lon="0.580902099609375">
        <ele>1262.199951171875</ele>
        <time>2039-05-14T08:36:26.000Z</time>
      </trkpt>
      <trkpt lat="42.437920756638050079345703125" lon="0.5807674862444400787353515625">
        <ele>1262.5999755859375</ele>
        <time>2039-05-14T08:36:34.000Z</time>
      </trkpt>
      <trkpt lat="42.43795084767043590545654296875" lon="0.58070403523743152618408203125">
        <ele>1263</ele>
        <time>2039-05-14T08:36:38.000Z</time>
      </trkpt>
      <trkpt lat="42.4379822798073291778564453125" lon="0.58065860532224178314208984375">
        <ele>1263.4000244140625</ele>
        <time>2039-05-14T08:36:41.000Z</time>
      </trkpt>
      <trkpt lat="42.438017986714839935302734375" lon="0.5805948190391063690185546875">
        <ele>1264.199951171875</ele>
        <time>2039-05-14T08:36:45.000Z</time>
      </trkpt>
      <trkpt lat="42.43803441524505615234375" lon="0.5805626325309276580810546875">
        <ele>1264.4000244140625</ele>
        <time>2039-05-14T08:36:47.000Z</time>
      </trkpt>
      <trkpt lat="42.43810155428946018218994140625" lon="0.58044687844812870025634765625">
        <ele>1265.199951171875</ele>
        <time>2039-05-14T08:36:54.000Z</time>
      </trkpt>
      <trkpt lat="42.438111864030361175537109375" lon="0.5804325453937053680419921875">
        <ele>1265.4000244140625</ele>
        <time>2039-05-14T08:36:55.000Z</time>
      </trkpt>
      <trkpt lat="42.438161484897136688232421875" lon="0.580361299216747283935546875">
        <ele>1266.199951171875</ele>
        <time>2039-05-14T08:37:00.000Z</time>
      </trkpt>
      <trkpt lat="42.43816961534321308135986328125" lon="0.58034998364746570587158203125">
        <ele>1266.199951171875</ele>
        <time>2039-05-14T08:37:01.000Z</time>
      </trkpt>
      <trkpt lat="42.438187301158905029296875" lon="0.58032550849020481109619140625">
        <ele>1266.4000244140625</ele>
        <time>2039-05-14T08:37:03.000Z</time>
      </trkpt>
      <trkpt lat="42.4381966888904571533203125" lon="0.5803108401596546173095703125">
        <ele>1266.4000244140625</ele>
        <time>2039-05-14T08:37:04.000Z</time>
      </trkpt>
      <trkpt lat="42.43824739940464496612548828125" lon="0.58025375939905643463134765625">
        <ele>1267.199951171875</ele>
        <time>2039-05-14T08:37:08.000Z</time>
      </trkpt>
      <trkpt lat="42.4382635764777660369873046875" lon="0.5802213214337825775146484375">
        <ele>1267.4000244140625</ele>
        <time>2039-05-14T08:37:10.000Z</time>
      </trkpt>
      <trkpt lat="42.43829148821532726287841796875" lon="0.58016172610223293304443359375">
        <ele>1267.5999755859375</ele>
        <time>2039-05-14T08:37:13.000Z</time>
      </trkpt>
      <trkpt lat="42.43832602165639400482177734375" lon="0.58012065477669239044189453125">
        <ele>1268.199951171875</ele>
        <time>2039-05-14T08:37:16.000Z</time>
      </trkpt>
      <trkpt lat="42.438363321125507354736328125" lon="0.580084361135959625244140625">
        <ele>1268.5999755859375</ele>
        <time>2039-05-14T08:37:19.000Z</time>
      </trkpt>
      <trkpt lat="42.43837715126574039459228515625" lon="0.5800704471766948699951171875">
        <ele>1268.800048828125</ele>
        <time>2039-05-14T08:37:20.000Z</time>
      </trkpt>
      <trkpt lat="42.438439428806304931640625" lon="0.58002057485282421112060546875">
        <ele>1269.800048828125</ele>
        <time>2039-05-14T08:37:24.000Z</time>
      </trkpt>
      <trkpt lat="42.43846599943935871124267578125" lon="0.579999200999736785888671875">
        <ele>1270.199951171875</ele>
        <time>2039-05-14T08:37:26.000Z</time>
      </trkpt>
      <trkpt lat="42.43852433748543262481689453125" lon="0.5799370072782039642333984375">
        <ele>1271</ele>
        <time>2039-05-14T08:37:31.000Z</time>
      </trkpt>
      <trkpt lat="42.43854814209043979644775390625" lon="0.57990943081676959991455078125">
        <ele>1271.199951171875</ele>
        <time>2039-05-14T08:37:33.000Z</time>
      </trkpt>
      <trkpt lat="42.43861335329711437225341796875" lon="0.57982494123280048370361328125">
        <ele>1272</ele>
        <time>2039-05-14T08:37:39.000Z</time>
      </trkpt>
      <trkpt lat="42.43862190283834934234619140625" lon="0.57980415411293506622314453125">
        <ele>1272</ele>
        <time>2039-05-14T08:37:40.000Z</time>
      </trkpt>
      <trkpt lat="42.43864352814853191375732421875" lon="0.57972486130893230438232421875">
        <ele>1272.5999755859375</ele>
        <time>2039-05-14T08:37:45.000Z</time>
      </trkpt>
      <trkpt lat="42.4386608786880970001220703125" lon="0.5796935968101024627685546875">
        <ele>1273</ele>
        <time>2039-05-14T08:37:48.000Z</time>
      </trkpt>
      <trkpt lat="42.43868661113083362579345703125" lon="0.57964213192462921142578125">
        <ele>1273.199951171875</ele>
        <time>2039-05-14T08:37:51.000Z</time>
      </trkpt>
      <trkpt lat="42.43874260224401950836181640625" lon="0.5795725621283054351806640625">
        <ele>1273.4000244140625</ele>
        <time>2039-05-14T08:37:56.000Z</time>
      </trkpt>
      <trkpt lat="42.4388243257999420166015625" lon="0.5794751644134521484375">
        <ele>1274</ele>
        <time>2039-05-14T08:38:02.000Z</time>
      </trkpt>
      <trkpt lat="42.4389267526566982269287109375" lon="0.57938103564083576202392578125">
        <ele>1274</ele>
        <time>2039-05-14T08:38:08.000Z</time>
      </trkpt>
      <trkpt lat="42.4389596097171306610107421875" lon="0.57935421355068683624267578125">
        <ele>1274.199951171875</ele>
        <time>2039-05-14T08:38:10.000Z</time>
      </trkpt>
      <trkpt lat="42.43904233910143375396728515625" lon="0.57926503010094165802001953125">
        <ele>1274.800048828125</ele>
        <time>2039-05-14T08:38:17.000Z</time>
      </trkpt>
      <trkpt lat="42.4390655569732189178466796875" lon="0.57923443615436553955078125">
        <ele>1275</ele>
        <time>2039-05-14T08:38:19.000Z</time>
      </trkpt>
      <trkpt lat="42.4391094781458377838134765625" lon="0.579194538295269012451171875">
        <ele>1275.4000244140625</ele>
        <time>2039-05-14T08:38:22.000Z</time>
      </trkpt>
      <trkpt lat="42.4391647987067699432373046875" lon="0.57913611643016338348388671875">
        <ele>1276.199951171875</ele>
        <time>2039-05-14T08:38:26.000Z</time>
      </trkpt>
      <trkpt lat="42.4391852505505084991455078125" lon="0.5791036784648895263671875">
        <ele>1276.800048828125</ele>
        <time>2039-05-14T08:38:28.000Z</time>
      </trkpt>
      <trkpt lat="42.43922791443765163421630859375" lon="0.5790089629590511322021484375">
        <ele>1277.199951171875</ele>
        <time>2039-05-14T08:38:33.000Z</time>
      </trkpt>
      <trkpt lat="42.43923939764499664306640625" lon="0.57899110950529575347900390625">
        <ele>1277.4000244140625</ele>
        <time>2039-05-14T08:38:34.000Z</time>
      </trkpt>
      <trkpt lat="42.43926362134516239166259765625" lon="0.5788979865610599517822265625">
        <ele>1278.4000244140625</ele>
        <time>2039-05-14T08:38:39.000Z</time>
      </trkpt>
      <trkpt lat="42.439264543354511260986328125" lon="0.57887996546924114227294921875">
        <ele>1278.4000244140625</ele>
        <time>2039-05-14T08:38:40.000Z</time>
      </trkpt>
      <trkpt lat="42.43932128883898258209228515625" lon="0.5787844955921173095703125">
        <ele>1279.5999755859375</ele>
        <time>2039-05-14T08:38:46.000Z</time>
      </trkpt>
      <trkpt lat="42.4393300898373126983642578125" lon="0.578767396509647369384765625">
        <ele>1279.800048828125</ele>
        <time>2039-05-14T08:38:47.000Z</time>
      </trkpt>
      <trkpt lat="42.4393582530319690704345703125" lon="0.57870092801749706268310546875">
        <ele>1280.5999755859375</ele>
        <time>2039-05-14T08:38:51.000Z</time>
      </trkpt>
      <trkpt lat="42.4393760226666927337646484375" lon="0.57865365408360958099365234375">
        <ele>1280.800048828125</ele>
        <time>2039-05-14T08:38:54.000Z</time>
      </trkpt>
      <trkpt lat="42.43938365019857883453369140625" lon="0.57863722555339336395263671875">
        <ele>1281</ele>
        <time>2039-05-14T08:38:55.000Z</time>
      </trkpt>
      <trkpt lat="42.43941801600158214569091796875" lon="0.5785808153450489044189453125">
        <ele>1281.800048828125</ele>
        <time>2039-05-14T08:38:59.000Z</time>
      </trkpt>
      <trkpt lat="42.439423464238643646240234375" lon="0.57856497354805469512939453125">
        <ele>1282</ele>
        <time>2039-05-14T08:39:00.000Z</time>
      </trkpt>
      <trkpt lat="42.439434863626956939697265625" lon="0.5785355530679225921630859375">
        <ele>1282.199951171875</ele>
        <time>2039-05-14T08:39:02.000Z</time>
      </trkpt>
      <trkpt lat="42.4394638650119304656982421875" lon="0.57847243733704090118408203125">
        <ele>1282.5999755859375</ele>
        <time>2039-05-14T08:39:06.000Z</time>
      </trkpt>
      <trkpt lat="42.43947082199156284332275390625" lon="0.57845768518745899200439453125">
        <ele>1282.800048828125</ele>
        <time>2039-05-14T08:39:07.000Z</time>
      </trkpt>
      <trkpt lat="42.4395128153264522552490234375" lon="0.57838962413370609283447265625">
        <ele>1283.800048828125</ele>
        <time>2039-05-14T08:39:11.000Z</time>
      </trkpt>
      <trkpt lat="42.4395218677818775177001953125" lon="0.578373782336711883544921875">
        <ele>1284</ele>
        <time>2039-05-14T08:39:12.000Z</time>
      </trkpt>
      <trkpt lat="42.4395305849611759185791015625" lon="0.5783558450639247894287109375">
        <ele>1284.199951171875</ele>
        <time>2039-05-14T08:39:13.000Z</time>
      </trkpt>
      <trkpt lat="42.43957324884831905364990234375" lon="0.5782971717417240142822265625">
        <ele>1284.800048828125</ele>
        <time>2039-05-14T08:39:17.000Z</time>
      </trkpt>
      <trkpt lat="42.43958297185599803924560546875" lon="0.57828451506793498992919921875">
        <ele>1285</ele>
        <time>2039-05-14T08:39:18.000Z</time>
      </trkpt>
      <trkpt lat="42.4396174214780330657958984375" lon="0.57824193499982357025146484375">
        <ele>1284.800048828125</ele>
        <time>2039-05-14T08:39:21.000Z</time>
      </trkpt>
      <trkpt lat="42.4396439082920551300048828125" lon="0.5782076530158519744873046875">
        <ele>1285.5999755859375</ele>
        <time>2039-05-14T08:39:23.000Z</time>
      </trkpt>
      <trkpt lat="42.4396697245538234710693359375" lon="0.5781737901270389556884765625">
        <ele>1286</ele>
        <time>2039-05-14T08:39:25.000Z</time>
      </trkpt>
      <trkpt lat="42.4396898411214351654052734375" lon="0.5781536735594272613525390625">
        <ele>1287</ele>
        <time>2039-05-14T08:39:27.000Z</time>
      </trkpt>
      <trkpt lat="42.43970316834747791290283203125" lon="0.57813942432403564453125">
        <ele>1287.5999755859375</ele>
        <time>2039-05-14T08:39:28.000Z</time>
      </trkpt>
      <trkpt lat="42.43972797878086566925048828125" lon="0.57810899801552295684814453125">
        <ele>1288.199951171875</ele>
        <time>2039-05-14T08:39:30.000Z</time>
      </trkpt>
      <trkpt lat="42.43979034014046192169189453125" lon="0.578018389642238616943359375">
        <ele>1289</ele>
        <time>2039-05-14T08:39:36.000Z</time>
      </trkpt>
      <trkpt lat="42.43979997932910919189453125" lon="0.57797974906861782073974609375">
        <ele>1289.199951171875</ele>
        <time>2039-05-14T08:39:38.000Z</time>
      </trkpt>
      <trkpt lat="42.439837194979190826416015625" lon="0.57788352482020854949951171875">
        <ele>1289.4000244140625</ele>
        <time>2039-05-14T08:39:43.000Z</time>
      </trkpt>
      <trkpt lat="42.439890839159488677978515625" lon="0.57775159366428852081298828125">
        <ele>1289.800048828125</ele>
        <time>2039-05-14T08:39:50.000Z</time>
      </trkpt>
      <trkpt lat="42.43991372175514698028564453125" lon="0.57769778184592723846435546875">
        <ele>1290.199951171875</ele>
        <time>2039-05-14T08:39:53.000Z</time>
      </trkpt>
      <trkpt lat="42.4399295635521411895751953125" lon="0.57764095254242420196533203125">
        <ele>1291.4000244140625</ele>
        <time>2039-05-14T08:39:56.000Z</time>
      </trkpt>
      <trkpt lat="42.43993199430406093597412109375" lon="0.57762050069868564605712890625">
        <ele>1291.4000244140625</ele>
        <time>2039-05-14T08:39:57.000Z</time>
      </trkpt>
      <trkpt lat="42.43995479308068752288818359375" lon="0.57753601111471652984619140625">
        <ele>1292.4000244140625</ele>
        <time>2039-05-14T08:40:02.000Z</time>
      </trkpt>
      <trkpt lat="42.439965941011905670166015625" lon="0.57750315405428409576416015625">
        <ele>1292.5999755859375</ele>
        <time>2039-05-14T08:40:04.000Z</time>
      </trkpt>
      <trkpt lat="42.43998178280889987945556640625" lon="0.5774774216115474700927734375">
        <ele>1293.5999755859375</ele>
        <time>2039-05-14T08:40:06.000Z</time>
      </trkpt>
      <trkpt lat="42.44000382721424102783203125" lon="0.577439032495021820068359375">
        <ele>1294.5999755859375</ele>
        <time>2039-05-14T08:40:09.000Z</time>
      </trkpt>
      <trkpt lat="42.44000650942325592041015625" lon="0.577422268688678741455078125">
        <ele>1294.5999755859375</ele>
        <time>2039-05-14T08:40:10.000Z</time>
      </trkpt>
      <trkpt lat="42.4400495924055576324462890625" lon="0.57728069834411144256591796875">
        <ele>1293.800048828125</ele>
        <time>2039-05-14T08:40:17.000Z</time>
      </trkpt>
      <trkpt lat="42.4401511810719966888427734375" lon="0.57715781964361667633056640625">
        <ele>1295.199951171875</ele>
        <time>2039-05-14T08:40:25.000Z</time>
      </trkpt>
      <trkpt lat="42.44016501121222972869873046875" lon="0.57715144939720630645751953125">
        <ele>1295.4000244140625</ele>
        <time>2039-05-14T08:40:26.000Z</time>
      </trkpt>
      <trkpt lat="42.4401763267815113067626953125" lon="0.5771498568356037139892578125">
        <ele>1295.800048828125</ele>
        <time>2039-05-14T08:40:30.000Z</time>
      </trkpt>
      <trkpt lat="42.4401907436549663543701171875" lon="0.57712948881089687347412109375">
        <ele>1295.800048828125</ele>
        <time>2039-05-14T08:40:39.000Z</time>
      </trkpt>
      <trkpt lat="42.4402339942753314971923828125" lon="0.57707802392542362213134765625">
        <ele>1296.5999755859375</ele>
        <time>2039-05-14T08:40:46.000Z</time>
      </trkpt>
      <trkpt lat="42.44025151245296001434326171875" lon="0.577054806053638458251953125">
        <ele>1297</ele>
        <time>2039-05-14T08:40:49.000Z</time>
      </trkpt>
      <trkpt lat="42.44028269313275814056396484375" lon="0.576989762485027313232421875">
        <ele>1297.5999755859375</ele>
        <time>2039-05-14T08:40:55.000Z</time>
      </trkpt>
      <trkpt lat="42.440291829407215118408203125" lon="0.576956234872341156005859375">
        <ele>1298</ele>
        <time>2039-05-14T08:40:58.000Z</time>
      </trkpt>
      <trkpt lat="42.4402970261871814727783203125" lon="0.576924048364162445068359375">
        <ele>1298.199951171875</ele>
        <time>2039-05-14T08:41:04.000Z</time>
      </trkpt>
      <trkpt lat="42.440295517444610595703125" lon="0.57679102756083011627197265625">
        <ele>1298.4000244140625</ele>
        <time>2039-05-14T08:41:11.000Z</time>
      </trkpt>
      <trkpt lat="42.44029275141656398773193359375" lon="0.576767809689044952392578125">
        <ele>1298.4000244140625</ele>
        <time>2039-05-14T08:41:12.000Z</time>
      </trkpt>
      <trkpt lat="42.44028973393142223358154296875" lon="0.57661081664264202117919921875">
        <ele>1299</ele>
        <time>2039-05-14T08:41:19.000Z</time>
      </trkpt>
      <trkpt lat="42.44028772227466106414794921875" lon="0.576523058116436004638671875">
        <ele>1299.5999755859375</ele>
        <time>2039-05-14T08:41:23.000Z</time>
      </trkpt>
      <trkpt lat="42.44029761292040348052978515625" lon="0.57647972367703914642333984375">
        <ele>1300.199951171875</ele>
        <time>2039-05-14T08:41:26.000Z</time>
      </trkpt>
      <trkpt lat="42.440305240452289581298828125" lon="0.576457343995571136474609375">
        <ele>1300.5999755859375</ele>
        <time>2039-05-14T08:41:32.000Z</time>
      </trkpt>
      <trkpt lat="42.44030817411839962005615234375" lon="0.5764467827975749969482421875">
        <ele>1300.5999755859375</ele>
        <time>2039-05-14T08:41:33.000Z</time>
      </trkpt>
      <trkpt lat="42.44032795540988445281982421875" lon="0.57636656798422336578369140625">
        <ele>1301.4000244140625</ele>
        <time>2039-05-14T08:41:41.000Z</time>
      </trkpt>
      <trkpt lat="42.440334744751453399658203125" lon="0.5763384886085987091064453125">
        <ele>1301.5999755859375</ele>
        <time>2039-05-14T08:41:44.000Z</time>
      </trkpt>
      <trkpt lat="42.44034136645495891571044921875" lon="0.576289705932140350341796875">
        <ele>1302.199951171875</ele>
        <time>2039-05-14T08:41:50.000Z</time>
      </trkpt>
      <trkpt lat="42.4403392709791660308837890625" lon="0.5762318708002567291259765625">
        <ele>1302.800048828125</ele>
        <time>2039-05-14T08:41:55.000Z</time>
      </trkpt>
      <trkpt lat="42.44033784605562686920166015625" lon="0.57618736289441585540771484375">
        <ele>1303.199951171875</ele>
        <time>2039-05-14T08:41:59.000Z</time>
      </trkpt>
      <trkpt lat="42.44032946415245532989501953125" lon="0.5761540867388248443603515625">
        <ele>1303.800048828125</ele>
        <time>2039-05-14T08:42:03.000Z</time>
      </trkpt>
      <trkpt lat="42.44032166898250579833984375" lon="0.57612818665802478790283203125">
        <ele>1304.5999755859375</ele>
        <time>2039-05-14T08:42:06.000Z</time>
      </trkpt>
      <trkpt lat="42.4403121136128902435302734375" lon="0.57610991410911083221435546875">
        <ele>1305</ele>
        <time>2039-05-14T08:42:08.000Z</time>
      </trkpt>
      <trkpt lat="42.440266348421573638916015625" lon="0.57606699876487255096435546875">
        <ele>1305</ele>
        <time>2039-05-14T08:42:14.000Z</time>
      </trkpt>
      <trkpt lat="42.440208680927753448486328125" lon="0.5760652385652065277099609375">
        <ele>1305.5999755859375</ele>
        <time>2039-05-14T08:42:22.000Z</time>
      </trkpt>
      <trkpt lat="42.44015847332775592803955078125" lon="0.57611159048974514007568359375">
        <ele>1305.800048828125</ele>
        <time>2039-05-14T08:42:30.000Z</time>
      </trkpt>
      <trkpt lat="42.440142296254634857177734375" lon="0.57614025659859180450439453125">
        <ele>1306</ele>
        <time>2039-05-14T08:42:33.000Z</time>
      </trkpt>
      <trkpt lat="42.4401243589818477630615234375" lon="0.5761720240116119384765625">
        <ele>1306.4000244140625</ele>
        <time>2039-05-14T08:42:37.000Z</time>
      </trkpt>
      <trkpt lat="42.44010868482291698455810546875" lon="0.5762177892029285430908203125">
        <ele>1307</ele>
        <time>2039-05-14T08:42:41.000Z</time>
      </trkpt>
      <trkpt lat="42.44010181166231632232666015625" lon="0.576243437826633453369140625">
        <ele>1307.199951171875</ele>
        <time>2039-05-14T08:42:43.000Z</time>
      </trkpt>
      <trkpt lat="42.440092675387859344482421875" lon="0.57628777809441089630126953125">
        <ele>1307.5999755859375</ele>
        <time>2039-05-14T08:42:46.000Z</time>
      </trkpt>
      <trkpt lat="42.44008018635213375091552734375" lon="0.5763267539441585540771484375">
        <ele>1307.800048828125</ele>
        <time>2039-05-14T08:42:49.000Z</time>
      </trkpt>
      <trkpt lat="42.4400715529918670654296875" lon="0.5763582699000835418701171875">
        <ele>1307.800048828125</ele>
        <time>2039-05-14T08:42:52.000Z</time>
      </trkpt>
      <trkpt lat="42.44005135260522365570068359375" lon="0.5763954855501651763916015625">
        <ele>1308</ele>
        <time>2039-05-14T08:42:56.000Z</time>
      </trkpt>
      <trkpt lat="42.440031655132770538330078125" lon="0.57643881998956203460693359375">
        <ele>1308.4000244140625</ele>
        <time>2039-05-14T08:43:00.000Z</time>
      </trkpt>
      <trkpt lat="42.4400204233825206756591796875" lon="0.57646949775516986846923828125">
        <ele>1308.4000244140625</ele>
        <time>2039-05-14T08:43:03.000Z</time>
      </trkpt>
      <trkpt lat="42.44001396931707859039306640625" lon="0.5765041150152683258056640625">
        <ele>1308.800048828125</ele>
        <time>2039-05-14T08:43:06.000Z</time>
      </trkpt>
      <trkpt lat="42.440011203289031982421875" lon="0.57651492767035961151123046875">
        <ele>1309.199951171875</ele>
        <time>2039-05-14T08:43:07.000Z</time>
      </trkpt>
      <trkpt lat="42.44000458158552646636962890625" lon="0.57657460682094097137451171875">
        <ele>1309.4000244140625</ele>
        <time>2039-05-14T08:43:13.000Z</time>
      </trkpt>
      <trkpt lat="42.43998647667467594146728515625" lon="0.576637051999568939208984375">
        <ele>1310.199951171875</ele>
        <time>2039-05-14T08:43:20.000Z</time>
      </trkpt>
      <trkpt lat="42.439982704818248748779296875" lon="0.57664551772177219390869140625">
        <ele>1310.199951171875</ele>
        <time>2039-05-14T08:43:21.000Z</time>
      </trkpt>
      <trkpt lat="42.43994875811040401458740234375" lon="0.5767133273184299468994140625">
        <ele>1310.800048828125</ele>
        <time>2039-05-14T08:43:29.000Z</time>
      </trkpt>
      <trkpt lat="42.4399359337985515594482421875" lon="0.57672481052577495574951171875">
        <ele>1311.4000244140625</ele>
        <time>2039-05-14T08:43:31.000Z</time>
      </trkpt>
      <trkpt lat="42.4398789368569850921630859375" lon="0.57674224488437175750732421875">
        <ele>1312</ele>
        <time>2039-05-14T08:43:38.000Z</time>
      </trkpt>
      <trkpt lat="42.43985706008970737457275390625" lon="0.5767272412776947021484375">
        <ele>1312.4000244140625</ele>
        <time>2039-05-14T08:43:41.000Z</time>
      </trkpt>
      <trkpt lat="42.43984783999621868133544921875" lon="0.5766950547695159912109375">
        <ele>1312.5999755859375</ele>
        <time>2039-05-14T08:43:44.000Z</time>
      </trkpt>
      <trkpt lat="42.43984918110072612762451171875" lon="0.57668256573379039764404296875">
        <ele>1312.4000244140625</ele>
        <time>2039-05-14T08:43:45.000Z</time>
      </trkpt>
      <trkpt lat="42.4398578144609928131103515625" lon="0.57658567093312740325927734375">
        <ele>1313</ele>
        <time>2039-05-14T08:43:53.000Z</time>
      </trkpt>
      <trkpt lat="42.43985990993678569793701171875" lon="0.5765627883374691009521484375">
        <ele>1313.4000244140625</ele>
        <time>2039-05-14T08:43:55.000Z</time>
      </trkpt>
      <trkpt lat="42.43987298570573329925537109375" lon="0.57649900205433368682861328125">
        <ele>1314</ele>
        <time>2039-05-14T08:44:01.000Z</time>
      </trkpt>
      <trkpt lat="42.439879439771175384521484375" lon="0.57646178640425205230712890625">
        <ele>1314.4000244140625</ele>
        <time>2039-05-14T08:44:05.000Z</time>
      </trkpt>
      <trkpt lat="42.43987767957150936126708984375" lon="0.576417110860347747802734375">
        <ele>1314.800048828125</ele>
        <time>2039-05-14T08:44:09.000Z</time>
      </trkpt>
      <trkpt lat="42.43987533263862133026123046875" lon="0.5763602815568447113037109375">
        <ele>1315.4000244140625</ele>
        <time>2039-05-14T08:44:15.000Z</time>
      </trkpt>
      <trkpt lat="42.43987482972443103790283203125" lon="0.57635919190943241119384765625">
        <ele>1315.4000244140625</ele>
        <time>2039-05-14T08:44:16.000Z</time>
      </trkpt>
      <trkpt lat="42.4398678727447986602783203125" lon="0.57632281444966793060302734375">
        <ele>1315.4000244140625</ele>
        <time>2039-05-14T08:44:28.000Z</time>
      </trkpt>
      <trkpt lat="42.4398547969758510589599609375" lon="0.5762425996363162994384765625">
        <ele>1316.199951171875</ele>
        <time>2039-05-14T08:44:37.000Z</time>
      </trkpt>
      <trkpt lat="42.4398568086326122283935546875" lon="0.57616598904132843017578125">
        <ele>1316.800048828125</ele>
        <time>2039-05-14T08:44:45.000Z</time>
      </trkpt>
      <trkpt lat="42.4398695491254329681396484375" lon="0.57607613503932952880859375">
        <ele>1317.199951171875</ele>
        <time>2039-05-14T08:44:53.000Z</time>
      </trkpt>
      <trkpt lat="42.439864687621593475341796875" lon="0.57599877007305622100830078125">
        <ele>1318.4000244140625</ele>
        <time>2039-05-14T08:44:59.000Z</time>
      </trkpt>
      <trkpt lat="42.439862675964832305908203125" lon="0.57598468847572803497314453125">
        <ele>1318.4000244140625</ele>
        <time>2039-05-14T08:45:00.000Z</time>
      </trkpt>
      <trkpt lat="42.4398382008075714111328125" lon="0.57589449919760227203369140625">
        <ele>1319</ele>
        <time>2039-05-14T08:45:07.000Z</time>
      </trkpt>
      <trkpt lat="42.439827807247638702392578125" lon="0.57583632878959178924560546875">
        <ele>1319.4000244140625</ele>
        <time>2039-05-14T08:45:12.000Z</time>
      </trkpt>
      <trkpt lat="42.4398259632289409637451171875" lon="0.57582392357289791107177734375">
        <ele>1319.4000244140625</ele>
        <time>2039-05-14T08:45:13.000Z</time>
      </trkpt>
      <trkpt lat="42.43981079198420047760009765625" lon="0.57572518475353717803955078125">
        <ele>1320.199951171875</ele>
        <time>2039-05-14T08:45:21.000Z</time>
      </trkpt>
      <trkpt lat="42.43980760686099529266357421875" lon="0.57571294717490673065185546875">
        <ele>1320.199951171875</ele>
        <time>2039-05-14T08:45:22.000Z</time>
      </trkpt>
      <trkpt lat="42.43978522717952728271484375" lon="0.57564941234886646270751953125">
        <ele>1320.800048828125</ele>
        <time>2039-05-14T08:45:28.000Z</time>
      </trkpt>
      <trkpt lat="42.43976921774446964263916015625" lon="0.57560079731047153472900390625">
        <ele>1321.199951171875</ele>
        <time>2039-05-14T08:45:32.000Z</time>
      </trkpt>
      <trkpt lat="42.4397565610706806182861328125" lon="0.57556475512683391571044921875">
        <ele>1321.5999755859375</ele>
        <time>2039-05-14T08:45:35.000Z</time>
      </trkpt>
      <trkpt lat="42.43974708952009677886962890625" lon="0.5755390226840972900390625">
        <ele>1321.800048828125</ele>
        <time>2039-05-14T08:45:37.000Z</time>
      </trkpt>
      <trkpt lat="42.43972931988537311553955078125" lon="0.57548847980797290802001953125">
        <ele>1322</ele>
        <time>2039-05-14T08:45:41.000Z</time>
      </trkpt>
      <trkpt lat="42.43971238844096660614013671875" lon="0.57542511261999607086181640625">
        <ele>1322.199951171875</ele>
        <time>2039-05-14T08:45:46.000Z</time>
      </trkpt>
      <trkpt lat="42.43969931267201900482177734375" lon="0.5753983743488788604736328125">
        <ele>1322.5999755859375</ele>
        <time>2039-05-14T08:45:48.000Z</time>
      </trkpt>
      <trkpt lat="42.43968053720891475677490234375" lon="0.575281195342540740966796875">
        <ele>1323</ele>
        <time>2039-05-14T08:45:56.000Z</time>
      </trkpt>
      <trkpt lat="42.4396757595241069793701171875" lon="0.57525395415723323822021484375">
        <ele>1323.199951171875</ele>
        <time>2039-05-14T08:45:58.000Z</time>
      </trkpt>
      <trkpt lat="42.439646758139133453369140625" lon="0.5751730687916278839111328125">
        <ele>1324</ele>
        <time>2039-05-14T08:46:05.000Z</time>
      </trkpt>
      <trkpt lat="42.439632676541805267333984375" lon="0.57515739463269710540771484375">
        <ele>1324.199951171875</ele>
        <time>2039-05-14T08:46:07.000Z</time>
      </trkpt>
      <trkpt lat="42.43962806649506092071533203125" lon="0.57515387423336505889892578125">
        <ele>1325</ele>
        <time>2039-05-14T08:46:11.000Z</time>
      </trkpt>
      <trkpt lat="42.4396133981645107269287109375" lon="0.57514213956892490386962890625">
        <ele>1325.4000244140625</ele>
        <time>2039-05-14T08:46:15.000Z</time>
      </trkpt>
      <trkpt lat="42.439589761197566986083984375" lon="0.57513526640832424163818359375">
        <ele>1325.4000244140625</ele>
        <time>2039-05-14T08:46:18.000Z</time>
      </trkpt>
      <trkpt lat="42.4395403079688549041748046875" lon="0.5751621723175048828125">
        <ele>1325.5999755859375</ele>
        <time>2039-05-14T08:46:25.000Z</time>
      </trkpt>
      <trkpt lat="42.43948280811309814453125" lon="0.575207434594631195068359375">
        <ele>1326.199951171875</ele>
        <time>2039-05-14T08:46:32.000Z</time>
      </trkpt>
      <trkpt lat="42.43947501294314861297607421875" lon="0.57521170936524868011474609375">
        <ele>1326.199951171875</ele>
        <time>2039-05-14T08:46:33.000Z</time>
      </trkpt>
      <trkpt lat="42.4394685588777065277099609375" lon="0.57521875016391277313232421875">
        <ele>1326.199951171875</ele>
        <time>2039-05-14T08:46:34.000Z</time>
      </trkpt>
      <trkpt lat="42.43942053057253360748291015625" lon="0.5752837099134922027587890625">
        <ele>1327.199951171875</ele>
        <time>2039-05-14T08:46:42.000Z</time>
      </trkpt>
      <trkpt lat="42.43935548700392246246337890625" lon="0.575344562530517578125">
        <ele>1327.800048828125</ele>
        <time>2039-05-14T08:46:50.000Z</time>
      </trkpt>
      <trkpt lat="42.43932464160025119781494140625" lon="0.575368367135524749755859375">
        <ele>1328.199951171875</ele>
        <time>2039-05-14T08:46:54.000Z</time>
      </trkpt>
      <trkpt lat="42.43929035961627960205078125" lon="0.575397871434688568115234375">
        <ele>1329</ele>
        <time>2039-05-14T08:46:59.000Z</time>
      </trkpt>
      <trkpt lat="42.43928373791277408599853515625" lon="0.5754034034907817840576171875">
        <ele>1329.199951171875</ele>
        <time>2039-05-14T08:47:00.000Z</time>
      </trkpt>
      <trkpt lat="42.43923646397888660430908203125" lon="0.57546786032617092132568359375">
        <ele>1329.5999755859375</ele>
        <time>2039-05-14T08:47:07.000Z</time>
      </trkpt>
      <trkpt lat="42.43917862884700298309326171875" lon="0.57552468962967395782470703125">
        <ele>1330.199951171875</ele>
        <time>2039-05-14T08:47:15.000Z</time>
      </trkpt>
      <trkpt lat="42.439169324934482574462890625" lon="0.57553022168576717376708984375">
        <ele>1330.199951171875</ele>
        <time>2039-05-14T08:47:16.000Z</time>
      </trkpt>
      <trkpt lat="42.4391078017652034759521484375" lon="0.57557280175387859344482421875">
        <ele>1330.5999755859375</ele>
        <time>2039-05-14T08:47:23.000Z</time>
      </trkpt>
      <trkpt lat="42.43901149369776248931884765625" lon="0.57557732798159122467041015625">
        <ele>1331.4000244140625</ele>
        <time>2039-05-14T08:47:32.000Z</time>
      </trkpt>
      <trkpt lat="42.43892557919025421142578125" lon="0.57557590305805206298828125">
        <ele>1332</ele>
        <time>2039-05-14T08:47:41.000Z</time>
      </trkpt>
      <trkpt lat="42.43883128277957439422607421875" lon="0.5755619890987873077392578125">
        <ele>1332</ele>
        <time>2039-05-14T08:47:50.000Z</time>
      </trkpt>
      <trkpt lat="42.43882290087640285491943359375" lon="0.57556358166038990020751953125">
        <ele>1332.199951171875</ele>
        <time>2039-05-14T08:47:51.000Z</time>
      </trkpt>
      <trkpt lat="42.43880714289844036102294921875" lon="0.57556441985070705413818359375">
        <ele>1332.4000244140625</ele>
        <time>2039-05-14T08:47:53.000Z</time>
      </trkpt>
      <trkpt lat="42.43875668384134769439697265625" lon="0.575562827289104461669921875">
        <ele>1332.5999755859375</ele>
        <time>2039-05-14T08:47:58.000Z</time>
      </trkpt>
      <trkpt lat="42.43867018260061740875244140625" lon="0.57558151893317699432373046875">
        <ele>1333.4000244140625</ele>
        <time>2039-05-14T08:48:07.000Z</time>
      </trkpt>
      <trkpt lat="42.43866079486906528472900390625" lon="0.57558403350412845611572265625">
        <ele>1333.5999755859375</ele>
        <time>2039-05-14T08:48:08.000Z</time>
      </trkpt>
      <trkpt lat="42.43859893642365932464599609375" lon="0.5755980312824249267578125">
        <ele>1334.199951171875</ele>
        <time>2039-05-14T08:48:15.000Z</time>
      </trkpt>
      <trkpt lat="42.4385596252977848052978515625" lon="0.57560130022466182708740234375">
        <ele>1334.5999755859375</ele>
        <time>2039-05-14T08:48:20.000Z</time>
      </trkpt>
      <trkpt lat="42.43852970190346240997314453125" lon="0.57560616172850131988525390625">
        <ele>1335</ele>
        <time>2039-05-14T08:48:24.000Z</time>
      </trkpt>
      <trkpt lat="42.43846013210713863372802734375" lon="0.5756300501525402069091796875">
        <ele>1335.199951171875</ele>
        <time>2039-05-14T08:48:32.000Z</time>
      </trkpt>
      <trkpt lat="42.4384161271154880523681640625" lon="0.5756471492350101470947265625">
        <ele>1335.4000244140625</ele>
        <time>2039-05-14T08:48:37.000Z</time>
      </trkpt>
      <trkpt lat="42.43836902081966400146484375" lon="0.57565947063267230987548828125">
        <ele>1336.199951171875</ele>
        <time>2039-05-14T08:48:42.000Z</time>
      </trkpt>
      <trkpt lat="42.43833146989345550537109375" lon="0.5756739713251590728759765625">
        <ele>1336.5999755859375</ele>
        <time>2039-05-14T08:48:46.000Z</time>
      </trkpt>
      <trkpt lat="42.43826885707676410675048828125" lon="0.57569953612983226776123046875">
        <ele>1337.4000244140625</ele>
        <time>2039-05-14T08:48:53.000Z</time>
      </trkpt>
      <trkpt lat="42.4382538534700870513916015625" lon="0.5757017992436885833740234375">
        <ele>1337.5999755859375</ele>
        <time>2039-05-14T08:48:58.000Z</time>
      </trkpt>
      <trkpt lat="42.438237927854061126708984375" lon="0.57570733129978179931640625">
        <ele>1337.800048828125</ele>
        <time>2039-05-14T08:49:06.000Z</time>
      </trkpt>
      <trkpt lat="42.43819601833820343017578125" lon="0.57572518475353717803955078125">
        <ele>1338.199951171875</ele>
        <time>2039-05-14T08:49:14.000Z</time>
      </trkpt>
      <trkpt lat="42.438162155449390411376953125" lon="0.57573993690311908721923828125">
        <ele>1338.800048828125</ele>
        <time>2039-05-14T08:49:18.000Z</time>
      </trkpt>
      <trkpt lat="42.43813575245440006256103515625" lon="0.57574697770178318023681640625">
        <ele>1339</ele>
        <time>2039-05-14T08:49:21.000Z</time>
      </trkpt>
      <trkpt lat="42.43808294646441936492919921875" lon="0.57576307095587253570556640625">
        <ele>1339.5999755859375</ele>
        <time>2039-05-14T08:49:27.000Z</time>
      </trkpt>
      <trkpt lat="42.438065595924854278564453125" lon="0.57576726190745830535888671875">
        <ele>1339.5999755859375</ele>
        <time>2039-05-14T08:49:29.000Z</time>
      </trkpt>
      <trkpt lat="42.43805746547877788543701171875" lon="0.57577011175453662872314453125">
        <ele>1339.800048828125</ele>
        <time>2039-05-14T08:49:30.000Z</time>
      </trkpt>
      <trkpt lat="42.43800834752619266510009765625" lon="0.57578251697123050689697265625">
        <ele>1340.4000244140625</ele>
        <time>2039-05-14T08:49:36.000Z</time>
      </trkpt>
      <trkpt lat="42.4379861354827880859375" lon="0.5757909826934337615966796875">
        <ele>1340.5999755859375</ele>
        <time>2039-05-14T08:49:39.000Z</time>
      </trkpt>
      <trkpt lat="42.43795705027878284454345703125" lon="0.5757965147495269775390625">
        <ele>1341.199951171875</ele>
        <time>2039-05-14T08:49:43.000Z</time>
      </trkpt>
      <trkpt lat="42.437922097742557525634765625" lon="0.5758087523281574249267578125">
        <ele>1341.5999755859375</ele>
        <time>2039-05-14T08:49:48.000Z</time>
      </trkpt>
      <trkpt lat="42.43790793232619762420654296875" lon="0.5758131109178066253662109375">
        <ele>1342.199951171875</ele>
        <time>2039-05-14T08:49:50.000Z</time>
      </trkpt>
      <trkpt lat="42.43786820210516452789306640625" lon="0.5758285336196422576904296875">
        <ele>1342.800048828125</ele>
        <time>2039-05-14T08:49:55.000Z</time>
      </trkpt>
      <trkpt lat="42.437838613986968994140625" lon="0.5758432857692241668701171875">
        <ele>1343.4000244140625</ele>
        <time>2039-05-14T08:49:59.000Z</time>
      </trkpt>
      <trkpt lat="42.43779745884239673614501953125" lon="0.57586180977523326873779296875">
        <ele>1344</ele>
        <time>2039-05-14T08:50:04.000Z</time>
      </trkpt>
      <trkpt lat="42.43776057846844196319580078125" lon="0.57587857358157634735107421875">
        <ele>1344.5999755859375</ele>
        <time>2039-05-14T08:50:09.000Z</time>
      </trkpt>
      <trkpt lat="42.43772990070283412933349609375" lon="0.57589240372180938720703125">
        <ele>1345.199951171875</ele>
        <time>2039-05-14T08:50:13.000Z</time>
      </trkpt>
      <trkpt lat="42.437686063349246978759765625" lon="0.57590606622397899627685546875">
        <ele>1345.800048828125</ele>
        <time>2039-05-14T08:50:19.000Z</time>
      </trkpt>
      <trkpt lat="42.43766267783939838409423828125" lon="0.57590774260461330413818359375">
        <ele>1346</ele>
        <time>2039-05-14T08:50:25.000Z</time>
      </trkpt>
      <trkpt lat="42.43765697814524173736572265625" lon="0.5759118497371673583984375">
        <ele>1346</ele>
        <time>2039-05-14T08:50:26.000Z</time>
      </trkpt>
      <trkpt lat="42.437610290944576263427734375" lon="0.5759361572563648223876953125">
        <ele>1346.800048828125</ele>
        <time>2039-05-14T08:50:32.000Z</time>
      </trkpt>
      <trkpt lat="42.43759059347212314605712890625" lon="0.57594076730310916900634765625">
        <ele>1347</ele>
        <time>2039-05-14T08:50:35.000Z</time>
      </trkpt>
      <trkpt lat="42.437569387257099151611328125" lon="0.57594261132180690765380859375">
        <ele>1347.4000244140625</ele>
        <time>2039-05-14T08:50:38.000Z</time>
      </trkpt>
      <trkpt lat="42.43753225542604923248291015625" lon="0.57596054859459400177001953125">
        <ele>1348.199951171875</ele>
        <time>2039-05-14T08:50:43.000Z</time>
      </trkpt>
      <trkpt lat="42.43751079775393009185791015625" lon="0.575974881649017333984375">
        <ele>1348.4000244140625</ele>
        <time>2039-05-14T08:50:46.000Z</time>
      </trkpt>
      <trkpt lat="42.43746385909616947174072265625" lon="0.5759948305785655975341796875">
        <ele>1349</ele>
        <time>2039-05-14T08:50:53.000Z</time>
      </trkpt>
      <trkpt lat="42.43743586353957653045654296875" lon="0.5760213173925876617431640625">
        <ele>1349.199951171875</ele>
        <time>2039-05-14T08:50:57.000Z</time>
      </trkpt>
      <trkpt lat="42.43741926737129688262939453125" lon="0.5760317109525203704833984375">
        <ele>1349.800048828125</ele>
        <time>2039-05-14T08:51:00.000Z</time>
      </trkpt>
      <trkpt lat="42.43740065954625606536865234375" lon="0.57604470290243625640869140625">
        <ele>1350.4000244140625</ele>
        <time>2039-05-14T08:51:03.000Z</time>
      </trkpt>
      <trkpt lat="42.43735355325043201446533203125" lon="0.57607135735452175140380859375">
        <ele>1351</ele>
        <time>2039-05-14T08:51:09.000Z</time>
      </trkpt>
      <trkpt lat="42.4373385496437549591064453125" lon="0.576079823076725006103515625">
        <ele>1351.4000244140625</ele>
        <time>2039-05-14T08:51:11.000Z</time>
      </trkpt>
      <trkpt lat="42.43729236535727977752685546875" lon="0.57610572315752506256103515625">
        <ele>1351.800048828125</ele>
        <time>2039-05-14T08:51:17.000Z</time>
      </trkpt>
      <trkpt lat="42.43724425323307514190673828125" lon="0.57612567208707332611083984375">
        <ele>1352.4000244140625</ele>
        <time>2039-05-14T08:51:23.000Z</time>
      </trkpt>
      <trkpt lat="42.43721391074359416961669921875" lon="0.57614260353147983551025390625">
        <ele>1353</ele>
        <time>2039-05-14T08:51:27.000Z</time>
      </trkpt>
      <trkpt lat="42.43720636703073978424072265625" lon="0.57614578865468502044677734375">
        <ele>1353.199951171875</ele>
        <time>2039-05-14T08:51:28.000Z</time>
      </trkpt>
      <trkpt lat="42.4371809698641300201416015625" lon="0.5761540867388248443603515625">
        <ele>1353.4000244140625</ele>
        <time>2039-05-14T08:51:31.000Z</time>
      </trkpt>
      <trkpt lat="42.4371702410280704498291015625" lon="0.57615316472947597503662109375">
        <ele>1353.4000244140625</ele>
        <time>2039-05-14T08:51:32.000Z</time>
      </trkpt>
      <trkpt lat="42.43716110475361347198486328125" lon="0.576156936585903167724609375">
        <ele>1353.199951171875</ele>
        <time>2039-05-14T08:51:33.000Z</time>
      </trkpt>
      <trkpt lat="42.43711165152490139007568359375" lon="0.576194822788238525390625">
        <ele>1354.199951171875</ele>
        <time>2039-05-14T08:51:40.000Z</time>
      </trkpt>
      <trkpt lat="42.43709706701338291168212890625" lon="0.57619909755885601043701171875">
        <ele>1354.199951171875</ele>
        <time>2039-05-14T08:51:42.000Z</time>
      </trkpt>
      <trkpt lat="42.43708248250186443328857421875" lon="0.576215274631977081298828125">
        <ele>1354.800048828125</ele>
        <time>2039-05-14T08:51:47.000Z</time>
      </trkpt>
      <trkpt lat="42.4370837397873401641845703125" lon="0.5762187950313091278076171875">
        <ele>1355.199951171875</ele>
        <time>2039-05-14T08:51:51.000Z</time>
      </trkpt>
      <trkpt lat="42.43705113418400287628173828125" lon="0.57623581029474735260009765625">
        <ele>1355.199951171875</ele>
        <time>2039-05-14T08:51:56.000Z</time>
      </trkpt>
      <trkpt lat="42.4369798041880130767822265625" lon="0.57625777088105678558349609375">
        <ele>1356</ele>
        <time>2039-05-14T08:52:05.000Z</time>
      </trkpt>
      <trkpt lat="42.4369499646127223968505859375" lon="0.5762771330773830413818359375">
        <ele>1356.199951171875</ele>
        <time>2039-05-14T08:52:09.000Z</time>
      </trkpt>
      <trkpt lat="42.43689975701272487640380859375" lon="0.57629515416920185089111328125">
        <ele>1356.800048828125</ele>
        <time>2039-05-14T08:52:15.000Z</time>
      </trkpt>
      <trkpt lat="42.4368663132190704345703125" lon="0.57631141506135463714599609375">
        <ele>1357.4000244140625</ele>
        <time>2039-05-14T08:52:19.000Z</time>
      </trkpt>
      <trkpt lat="42.4368389882147312164306640625" lon="0.576327256858348846435546875">
        <ele>1357.5999755859375</ele>
        <time>2039-05-14T08:52:22.000Z</time>
      </trkpt>
      <trkpt lat="42.43679934181272983551025390625" lon="0.5763502232730388641357421875">
        <ele>1357.800048828125</ele>
        <time>2039-05-14T08:52:27.000Z</time>
      </trkpt>
      <trkpt lat="42.43679188191890716552734375" lon="0.57635382749140262603759765625">
        <ele>1357.800048828125</ele>
        <time>2039-05-14T08:52:28.000Z</time>
      </trkpt>
      <trkpt lat="42.436740584671497344970703125" lon="0.57637880556285381317138671875">
        <ele>1358.199951171875</ele>
        <time>2039-05-14T08:52:34.000Z</time>
      </trkpt>
      <trkpt lat="42.43672139011323451995849609375" lon="0.5763830803334712982177734375">
        <ele>1358.4000244140625</ele>
        <time>2039-05-14T08:52:36.000Z</time>
      </trkpt>
      <trkpt lat="42.436662130057811737060546875" lon="0.576401688158512115478515625">
        <ele>1359.199951171875</ele>
        <time>2039-05-14T08:52:43.000Z</time>
      </trkpt>
      <trkpt lat="42.43664494715631008148193359375" lon="0.576401017606258392333984375">
        <ele>1359.5999755859375</ele>
        <time>2039-05-14T08:52:45.000Z</time>
      </trkpt>
      <trkpt lat="42.43659515865147113800048828125" lon="0.57640043087303638458251953125">
        <ele>1360.199951171875</ele>
        <time>2039-05-14T08:52:52.000Z</time>
      </trkpt>
      <trkpt lat="42.43658258579671382904052734375" lon="0.5764045380055904388427734375">
        <ele>1360.5999755859375</ele>
        <time>2039-05-14T08:52:54.000Z</time>
      </trkpt>
      <trkpt lat="42.4365191347897052764892578125" lon="0.57642105035483837127685546875">
        <ele>1361.199951171875</ele>
        <time>2039-05-14T08:53:02.000Z</time>
      </trkpt>
      <trkpt lat="42.43651268072426319122314453125" lon="0.5764196254312992095947265625">
        <ele>1361.4000244140625</ele>
        <time>2039-05-14T08:53:03.000Z</time>
      </trkpt>
      <trkpt lat="42.436455599963665008544921875" lon="0.57642205618321895599365234375">
        <ele>1362.4000244140625</ele>
        <time>2039-05-14T08:53:12.000Z</time>
      </trkpt>
      <trkpt lat="42.43644721806049346923828125" lon="0.5764256604015827178955078125">
        <ele>1362.4000244140625</ele>
        <time>2039-05-14T08:53:13.000Z</time>
      </trkpt>
      <trkpt lat="42.4364027939736843109130859375" lon="0.576420128345489501953125">
        <ele>1363.199951171875</ele>
        <time>2039-05-14T08:53:21.000Z</time>
      </trkpt>
      <trkpt lat="42.43638376705348491668701171875" lon="0.576409064233303070068359375">
        <ele>1363.4000244140625</ele>
        <time>2039-05-14T08:53:24.000Z</time>
      </trkpt>
      <trkpt lat="42.43635929189622402191162109375" lon="0.576394312083721160888671875">
        <ele>1363.4000244140625</ele>
        <time>2039-05-14T08:53:27.000Z</time>
      </trkpt>
      <trkpt lat="42.43628150783479213714599609375" lon="0.5763575993478298187255859375">
        <ele>1364.4000244140625</ele>
        <time>2039-05-14T08:53:37.000Z</time>
      </trkpt>
      <trkpt lat="42.43624068796634674072265625" lon="0.57633622549474239349365234375">
        <ele>1365.199951171875</ele>
        <time>2039-05-14T08:53:42.000Z</time>
      </trkpt>
      <trkpt lat="42.43622350506484508514404296875" lon="0.57632734067738056182861328125">
        <ele>1365.4000244140625</ele>
        <time>2039-05-14T08:53:44.000Z</time>
      </trkpt>
      <trkpt lat="42.4362167157232761383056640625" lon="0.57632298208773136138916015625">
        <ele>1365.4000244140625</ele>
        <time>2039-05-14T08:53:45.000Z</time>
      </trkpt>
      <trkpt lat="42.4362019635736942291259765625" lon="0.5763153545558452606201171875">
        <ele>1365.800048828125</ele>
        <time>2039-05-14T08:53:47.000Z</time>
      </trkpt>
      <trkpt lat="42.4361808411777019500732421875" lon="0.57630085386335849761962890625">
        <ele>1366</ele>
        <time>2039-05-14T08:53:50.000Z</time>
      </trkpt>
      <trkpt lat="42.43617120198905467987060546875" lon="0.57629733346402645111083984375">
        <ele>1366</ele>
        <time>2039-05-14T08:53:51.000Z</time>
      </trkpt>
      <trkpt lat="42.43614102713763713836669921875" lon="0.5762881971895694732666015625">
        <ele>1366.5999755859375</ele>
        <time>2039-05-14T08:53:55.000Z</time>
      </trkpt>
      <trkpt lat="42.4361077509820461273193359375" lon="0.57626933790743350982666015625">
        <ele>1367</ele>
        <time>2039-05-14T08:53:59.000Z</time>
      </trkpt>
      <trkpt lat="42.4360549449920654296875" lon="0.57624050416052341461181640625">
        <ele>1367.5999755859375</ele>
        <time>2039-05-14T08:54:06.000Z</time>
      </trkpt>
      <trkpt lat="42.43604891002178192138671875" lon="0.576237402856349945068359375">
        <ele>1367.5999755859375</ele>
        <time>2039-05-14T08:54:07.000Z</time>
      </trkpt>
      <trkpt lat="42.43598026223480701446533203125" lon="0.57620865292847156524658203125">
        <ele>1368.199951171875</ele>
        <time>2039-05-14T08:54:15.000Z</time>
      </trkpt>
      <trkpt lat="42.43597188033163547515869140625" lon="0.5762047134339809417724609375">
        <ele>1368.4000244140625</ele>
        <time>2039-05-14T08:54:16.000Z</time>
      </trkpt>
      <trkpt lat="42.43588789366185665130615234375" lon="0.57616389356553554534912109375">
        <ele>1369.4000244140625</ele>
        <time>2039-05-14T08:54:26.000Z</time>
      </trkpt>
      <trkpt lat="42.43587247096002101898193359375" lon="0.576154924929141998291015625">
        <ele>1369.5999755859375</ele>
        <time>2039-05-14T08:54:28.000Z</time>
      </trkpt>
      <trkpt lat="42.43581153452396392822265625" lon="0.5761229060590267181396484375">
        <ele>1370.199951171875</ele>
        <time>2039-05-14T08:54:35.000Z</time>
      </trkpt>
      <trkpt lat="42.435789071023464202880859375" lon="0.5761091597378253936767578125">
        <ele>1370.5999755859375</ele>
        <time>2039-05-14T08:54:38.000Z</time>
      </trkpt>
      <trkpt lat="42.43573651649057865142822265625" lon="0.5760897137224674224853515625">
        <ele>1370.800048828125</ele>
        <time>2039-05-14T08:54:44.000Z</time>
      </trkpt>
      <trkpt lat="42.4356879852712154388427734375" lon="0.5760776437819004058837890625">
        <ele>1371.4000244140625</ele>
        <time>2039-05-14T08:54:50.000Z</time>
      </trkpt>
      <trkpt lat="42.435673065483570098876953125" lon="0.57607471011579036712646484375">
        <ele>1371.5999755859375</ele>
        <time>2039-05-14T08:54:52.000Z</time>
      </trkpt>
      <trkpt lat="42.4356058426201343536376953125" lon="0.57605870068073272705078125">
        <ele>1372.4000244140625</ele>
        <time>2039-05-14T08:55:00.000Z</time>
      </trkpt>
      <trkpt lat="42.43558715097606182098388671875" lon="0.57605895213782787322998046875">
        <ele>1372.5999755859375</ele>
        <time>2039-05-14T08:55:02.000Z</time>
      </trkpt>
      <trkpt lat="42.435517497360706329345703125" lon="0.57606406509876251220703125">
        <ele>1373.4000244140625</ele>
        <time>2039-05-14T08:55:12.000Z</time>
      </trkpt>
      <trkpt lat="42.4355159886181354522705078125" lon="0.576056353747844696044921875">
        <ele>1373</ele>
        <time>2039-05-14T08:55:21.000Z</time>
      </trkpt>
      <trkpt lat="42.4355123005807399749755859375" lon="0.57606129907071590423583984375">
        <ele>1373.199951171875</ele>
        <time>2039-05-14T08:55:32.000Z</time>
      </trkpt>
      <trkpt lat="42.43551389314234256744384765625" lon="0.576060377061367034912109375">
        <ele>1373</ele>
        <time>2039-05-14T08:55:51.000Z</time>
      </trkpt>
      <trkpt lat="42.43551339022815227508544921875" lon="0.57605979032814502716064453125">
        <ele>1373.199951171875</ele>
        <time>2039-05-14T08:56:03.000Z</time>
      </trkpt>
      <trkpt lat="42.43551355786621570587158203125" lon="0.57605870068073272705078125">
        <ele>1373.199951171875</ele>
        <time>2039-05-14T08:56:32.000Z</time>
      </trkpt>
      <trkpt lat="42.43551389314234256744384765625" lon="0.576059706509113311767578125">
        <ele>1372.800048828125</ele>
        <time>2039-05-14T08:57:02.000Z</time>
      </trkpt>
      <trkpt lat="42.43551380932331085205078125" lon="0.57605995796620845794677734375">
        <ele>1373.199951171875</ele>
        <time>2039-05-14T08:57:27.000Z</time>
      </trkpt>
      <trkpt lat="42.4355106242001056671142578125" lon="0.57606196962296962738037109375">
        <ele>1373</ele>
        <time>2039-05-14T08:57:52.000Z</time>
      </trkpt>
      <trkpt lat="42.43547282181680202484130859375" lon="0.576095245778560638427734375">
        <ele>1372.800048828125</ele>
        <time>2039-05-14T08:57:57.000Z</time>
      </trkpt>
      <trkpt lat="42.43546963669359683990478515625" lon="0.576100610196590423583984375">
        <ele>1373</ele>
        <time>2039-05-14T08:58:05.000Z</time>
      </trkpt>
      <trkpt lat="42.43546796031296253204345703125" lon="0.57610102929174900054931640625">
        <ele>1373</ele>
        <time>2039-05-14T08:58:27.000Z</time>
      </trkpt>
      <trkpt lat="42.4354683794081211090087890625" lon="0.5760994367301464080810546875">
        <ele>1373.199951171875</ele>
        <time>2039-05-14T08:58:53.000Z</time>
      </trkpt>
      <trkpt lat="42.4354680441319942474365234375" lon="0.5760991014540195465087890625">
        <ele>1373.4000244140625</ele>
        <time>2039-05-14T08:58:57.000Z</time>
      </trkpt>
      <trkpt lat="42.4354677088558673858642578125" lon="0.5761001072824001312255859375">
        <ele>1373.4000244140625</ele>
        <time>2039-05-14T08:59:22.000Z</time>
      </trkpt>
      <trkpt lat="42.43546846322715282440185546875" lon="0.5760996043682098388671875">
        <ele>1373.199951171875</ele>
        <time>2039-05-14T08:59:51.000Z</time>
      </trkpt>
      <trkpt lat="42.43545882403850555419921875" lon="0.57613807730376720428466796875">
        <ele>1373</ele>
        <time>2039-05-14T09:00:11.000Z</time>
      </trkpt>
      <trkpt lat="42.4354224465787410736083984375" lon="0.57621032930910587310791015625">
        <ele>1373.5999755859375</ele>
        <time>2039-05-14T09:00:18.000Z</time>
      </trkpt>
      <trkpt lat="42.4354167468845844268798828125" lon="0.5762211419641971588134765625">
        <ele>1373.5999755859375</ele>
        <time>2039-05-14T09:00:19.000Z</time>
      </trkpt>
      <trkpt lat="42.43540073744952678680419921875" lon="0.57625190354883670806884765625">
        <ele>1374</ele>
        <time>2039-05-14T09:00:22.000Z</time>
      </trkpt>
      <trkpt lat="42.43539445102214813232421875" lon="0.57626112364232540130615234375">
        <ele>1374</ele>
        <time>2039-05-14T09:00:23.000Z</time>
      </trkpt>
      <trkpt lat="42.4353748373687267303466796875" lon="0.576300434768199920654296875">
        <ele>1373.800048828125</ele>
        <time>2039-05-14T09:00:26.000Z</time>
      </trkpt>
      <trkpt lat="42.43527601473033428192138671875" lon="0.57643345557153224945068359375">
        <ele>1374</ele>
        <time>2039-05-14T09:00:35.000Z</time>
      </trkpt>
      <trkpt lat="42.43527601473033428192138671875" lon="0.57643345557153224945068359375">
        <ele>1374</ele>
        <time>2039-05-14T09:00:36.000Z</time>
      </trkpt>
      <trkpt lat="42.4351706542074680328369140625" lon="0.57646237313747406005859375">
        <ele>1374.4000244140625</ele>
        <time>2039-05-14T09:00:43.000Z</time>
      </trkpt>
      <trkpt lat="42.43508960120379924774169921875" lon="0.5765403248369693756103515625">
        <ele>1374.800048828125</ele>
        <time>2039-05-14T09:00:49.000Z</time>
      </trkpt>
      <trkpt lat="42.4350844882428646087646484375" lon="0.5765587650239467620849609375">
        <ele>1375</ele>
        <time>2039-05-14T09:00:50.000Z</time>
      </trkpt>
      <trkpt lat="42.43507820181548595428466796875" lon="0.57665943168103694915771484375">
        <ele>1375.800048828125</ele>
        <time>2039-05-14T09:00:55.000Z</time>
      </trkpt>
      <trkpt lat="42.43507258594036102294921875" lon="0.57668256573379039764404296875">
        <ele>1375.800048828125</ele>
        <time>2039-05-14T09:00:56.000Z</time>
      </trkpt>
      <trkpt lat="42.43505624122917652130126953125" lon="0.5767471902072429656982421875">
        <ele>1376.4000244140625</ele>
        <time>2039-05-14T09:00:59.000Z</time>
      </trkpt>
      <trkpt lat="42.43504936806857585906982421875" lon="0.57678935118019580841064453125">
        <ele>1376.4000244140625</ele>
        <time>2039-05-14T09:01:01.000Z</time>
      </trkpt>
      <trkpt lat="42.43507660925388336181640625" lon="0.57688943110406398773193359375">
        <ele>1377.199951171875</ele>
        <time>2039-05-14T09:01:07.000Z</time>
      </trkpt>
      <trkpt lat="42.43507753126323223114013671875" lon="0.5769580788910388946533203125">
        <ele>1377.800048828125</ele>
        <time>2039-05-14T09:01:12.000Z</time>
      </trkpt>
      <trkpt lat="42.4350744299590587615966796875" lon="0.57697677053511142730712890625">
        <ele>1377.800048828125</ele>
        <time>2039-05-14T09:01:13.000Z</time>
      </trkpt>
      <trkpt lat="42.43507317267358303070068359375" lon="0.57701398618519306182861328125">
        <ele>1378.4000244140625</ele>
        <time>2039-05-14T09:01:15.000Z</time>
      </trkpt>
      <trkpt lat="42.4350751005113124847412109375" lon="0.57705136947333812713623046875">
        <ele>1378.800048828125</ele>
        <time>2039-05-14T09:01:17.000Z</time>
      </trkpt>
      <trkpt lat="42.4350720830261707305908203125" lon="0.57706511579453945159912109375">
        <ele>1379</ele>
        <time>2039-05-14T09:01:18.000Z</time>
      </trkpt>
      <trkpt lat="42.4350781179964542388916015625" lon="0.5771237052977085113525390625">
        <ele>1379.4000244140625</ele>
        <time>2039-05-14T09:01:22.000Z</time>
      </trkpt>
      <trkpt lat="42.43507836945354938507080078125" lon="0.57713828980922698974609375">
        <ele>1379.5999755859375</ele>
        <time>2039-05-14T09:01:23.000Z</time>
      </trkpt>
      <trkpt lat="42.43509404361248016357421875" lon="0.5772234499454498291015625">
        <ele>1380.4000244140625</ele>
        <time>2039-05-14T09:01:28.000Z</time>
      </trkpt>
      <trkpt lat="42.4351035989820957183837890625" lon="0.57725806720554828643798828125">
        <ele>1380.800048828125</ele>
        <time>2039-05-14T09:01:30.000Z</time>
      </trkpt>
      <trkpt lat="42.4351096339523792266845703125" lon="0.57737021706998348236083984375">
        <ele>1381</ele>
        <time>2039-05-14T09:01:37.000Z</time>
      </trkpt>
      <trkpt lat="42.43509965948760509490966796875" lon="0.5774217657744884490966796875">
        <ele>1381.5999755859375</ele>
        <time>2039-05-14T09:01:40.000Z</time>
      </trkpt>
      <trkpt lat="42.43509228341281414031982421875" lon="0.57751270942389965057373046875">
        <ele>1382</ele>
        <time>2039-05-14T09:01:45.000Z</time>
      </trkpt>
      <trkpt lat="42.435090355575084686279296875" lon="0.57757624424993991851806640625">
        <ele>1382.800048828125</ele>
        <time>2039-05-14T09:01:48.000Z</time>
      </trkpt>
      <trkpt lat="42.43508406914770603179931640625" lon="0.5776869691908359527587890625">
        <ele>1383.5999755859375</ele>
        <time>2039-05-14T09:01:53.000Z</time>
      </trkpt>
      <trkpt lat="42.4350754357874393463134765625" lon="0.577722005546092987060546875">
        <ele>1383.800048828125</ele>
        <time>2039-05-14T09:01:56.000Z</time>
      </trkpt>
      <trkpt lat="42.43506797589361667633056640625" lon="0.577809512615203857421875">
        <ele>1385.199951171875</ele>
        <time>2039-05-14T09:02:01.000Z</time>
      </trkpt>
      <trkpt lat="42.43506931699812412261962890625" lon="0.5778277851641178131103515625">
        <ele>1385.199951171875</ele>
        <time>2039-05-14T09:02:02.000Z</time>
      </trkpt>
      <trkpt lat="42.435057163238525390625" lon="0.577925853431224822998046875">
        <ele>1386.4000244140625</ele>
        <time>2039-05-14T09:02:07.000Z</time>
      </trkpt>
      <trkpt lat="42.43505640886723995208740234375" lon="0.57794773019850254058837890625">
        <ele>1386.5999755859375</ele>
        <time>2039-05-14T09:02:08.000Z</time>
      </trkpt>
      <trkpt lat="42.4350563250482082366943359375" lon="0.578083433210849761962890625">
        <ele>1387.199951171875</ele>
        <time>2039-05-14T09:02:14.000Z</time>
      </trkpt>
      <trkpt lat="42.4350486136972904205322265625" lon="0.5780950002372264862060546875">
        <ele>1387.4000244140625</ele>
        <time>2039-05-14T09:02:15.000Z</time>
      </trkpt>
      <trkpt lat="42.43503914214670658111572265625" lon="0.5781030468642711639404296875">
        <ele>1387.5999755859375</ele>
        <time>2039-05-14T09:02:16.000Z</time>
      </trkpt>
      <trkpt lat="42.43498248048126697540283203125" lon="0.57809256948530673980712890625">
        <ele>1388</ele>
        <time>2039-05-14T09:02:21.000Z</time>
      </trkpt>
      <trkpt lat="42.43496202863752841949462890625" lon="0.5780561082065105438232421875">
        <ele>1388.199951171875</ele>
        <time>2039-05-14T09:02:24.000Z</time>
      </trkpt>
      <trkpt lat="42.43495322763919830322265625" lon="0.578015707433223724365234375">
        <ele>1388.4000244140625</ele>
        <time>2039-05-14T09:02:27.000Z</time>
      </trkpt>
      <trkpt lat="42.43493638001382350921630859375" lon="0.57788453064858913421630859375">
        <ele>1389.5999755859375</ele>
        <time>2039-05-14T09:02:34.000Z</time>
      </trkpt>
      <trkpt lat="42.43493537418544292449951171875" lon="0.577782355248928070068359375">
        <ele>1389.800048828125</ele>
        <time>2039-05-14T09:02:40.000Z</time>
      </trkpt>
      <trkpt lat="42.4349252320826053619384765625" lon="0.577719993889331817626953125">
        <ele>1390.5999755859375</ele>
        <time>2039-05-14T09:02:44.000Z</time>
      </trkpt>
      <trkpt lat="42.43492196314036846160888671875" lon="0.57770381681621074676513671875">
        <ele>1391</ele>
        <time>2039-05-14T09:02:46.000Z</time>
      </trkpt>
      <trkpt lat="42.4349056184291839599609375" lon="0.5776242725551128387451171875">
        <ele>1391.5999755859375</ele>
        <time>2039-05-14T09:02:52.000Z</time>
      </trkpt>
      <trkpt lat="42.43490620516240596771240234375" lon="0.57760097086429595947265625">
        <ele>1391.5999755859375</ele>
        <time>2039-05-14T09:02:53.000Z</time>
      </trkpt>
      <trkpt lat="42.43489690124988555908203125" lon="0.5775585584342479705810546875">
        <ele>1391.800048828125</ele>
        <time>2039-05-14T09:02:57.000Z</time>
      </trkpt>
      <trkpt lat="42.43488977663218975067138671875" lon="0.5775153078138828277587890625">
        <ele>1392</ele>
        <time>2039-05-14T09:02:59.000Z</time>
      </trkpt>
      <trkpt lat="42.434859685599803924560546875" lon="0.57743132114410400390625">
        <ele>1392.4000244140625</ele>
        <time>2039-05-14T09:03:05.000Z</time>
      </trkpt>
      <trkpt lat="42.4348581768572330474853515625" lon="0.57741464115679264068603515625">
        <ele>1392.5999755859375</ele>
        <time>2039-05-14T09:03:06.000Z</time>
      </trkpt>
      <trkpt lat="42.43485675193369388580322265625" lon="0.57734339497983455657958984375">
        <ele>1393.5999755859375</ele>
        <time>2039-05-14T09:03:11.000Z</time>
      </trkpt>
      <trkpt lat="42.43484300561249256134033203125" lon="0.57727868668735027313232421875">
        <ele>1394</ele>
        <time>2039-05-14T09:03:15.000Z</time>
      </trkpt>
      <trkpt lat="42.434832863509654998779296875" lon="0.5771951191127300262451171875">
        <ele>1394.800048828125</ele>
        <time>2039-05-14T09:03:21.000Z</time>
      </trkpt>
      <trkpt lat="42.434799335896968841552734375" lon="0.577139966189861297607421875">
        <ele>1395.5999755859375</ele>
        <time>2039-05-14T09:03:24.000Z</time>
      </trkpt>
      <trkpt lat="42.43478936143219470977783203125" lon="0.5771216936409473419189453125">
        <ele>1395.800048828125</ele>
        <time>2039-05-14T09:03:25.000Z</time>
      </trkpt>
      <trkpt lat="42.43471585214138031005859375" lon="0.5770120583474636077880859375">
        <ele>1396.199951171875</ele>
        <time>2039-05-14T09:03:31.000Z</time>
      </trkpt>
      <trkpt lat="42.43467017076909542083740234375" lon="0.5769123136997222900390625">
        <ele>1397</ele>
        <time>2039-05-14T09:03:36.000Z</time>
      </trkpt>
      <trkpt lat="42.43465072475373744964599609375" lon="0.57688205502927303314208984375">
        <ele>1397.5999755859375</ele>
        <time>2039-05-14T09:03:38.000Z</time>
      </trkpt>
      <trkpt lat="42.43461317382752895355224609375" lon="0.5768303386867046356201171875">
        <ele>1398</ele>
        <time>2039-05-14T09:03:41.000Z</time>
      </trkpt>
      <trkpt lat="42.43458308279514312744140625" lon="0.5768028460443019866943359375">
        <ele>1398.800048828125</ele>
        <time>2039-05-14T09:03:45.000Z</time>
      </trkpt>
      <trkpt lat="42.4345111660659313201904296875" lon="0.57677191682159900665283203125">
        <ele>1399.4000244140625</ele>
        <time>2039-05-14T09:03:50.000Z</time>
      </trkpt>
      <trkpt lat="42.43446699343621730804443359375" lon="0.57674274779856204986572265625">
        <ele>1400</ele>
        <time>2039-05-14T09:03:54.000Z</time>
      </trkpt>
      <trkpt lat="42.4344176240265369415283203125" lon="0.57669304311275482177734375">
        <ele>1400.4000244140625</ele>
        <time>2039-05-14T09:04:00.000Z</time>
      </trkpt>
      <trkpt lat="42.43438535369932651519775390625" lon="0.57665825821459293365478515625">
        <ele>1401.199951171875</ele>
        <time>2039-05-14T09:04:03.000Z</time>
      </trkpt>
      <trkpt lat="42.43433824740350246429443359375" lon="0.57662188075482845306396484375">
        <ele>1401.5999755859375</ele>
        <time>2039-05-14T09:04:05.000Z</time>
      </trkpt>
      <trkpt lat="42.43431477807462215423583984375" lon="0.576607882976531982421875">
        <ele>1402.4000244140625</ele>
        <time>2039-05-14T09:04:09.000Z</time>
      </trkpt>
      <trkpt lat="42.43431461043655872344970703125" lon="0.576607882976531982421875">
        <ele>1402.5999755859375</ele>
        <time>2039-05-14T09:04:10.000Z</time>
      </trkpt>
      <trkpt lat="42.43431209586560726165771484375" lon="0.5766114033758640289306640625">
        <ele>1402.800048828125</ele>
        <time>2039-05-14T09:04:20.000Z</time>
      </trkpt>
      <trkpt lat="42.434310503304004669189453125" lon="0.57661123573780059814453125">
        <ele>1402.5999755859375</ele>
        <time>2039-05-14T09:04:32.000Z</time>
      </trkpt>
      <trkpt lat="42.43427370674908161163330078125" lon="0.57661391794681549072265625">
        <ele>1403</ele>
        <time>2039-05-14T09:04:45.000Z</time>
      </trkpt>
      <trkpt lat="42.43423573672771453857421875" lon="0.57662389241158962249755859375">
        <ele>1403.5999755859375</ele>
        <time>2039-05-14T09:04:50.000Z</time>
      </trkpt>
      <trkpt lat="42.43419894017279148101806640625" lon="0.5766432546079158782958984375">
        <ele>1404.4000244140625</ele>
        <time>2039-05-14T09:04:56.000Z</time>
      </trkpt>
      <trkpt lat="42.4341916479170322418212890625" lon="0.5766593478620052337646484375">
        <ele>1404.5999755859375</ele>
        <time>2039-05-14T09:04:59.000Z</time>
      </trkpt>
      <trkpt lat="42.43417195044457912445068359375" lon="0.57668675668537616729736328125">
        <ele>1405</ele>
        <time>2039-05-14T09:05:04.000Z</time>
      </trkpt>
      <trkpt lat="42.43412735871970653533935546875" lon="0.576726906001567840576171875">
        <ele>1405.800048828125</ele>
        <time>2039-05-14T09:05:11.000Z</time>
      </trkpt>
      <trkpt lat="42.4341182224452495574951171875" lon="0.57673738338053226470947265625">
        <ele>1406.199951171875</ele>
        <time>2039-05-14T09:05:14.000Z</time>
      </trkpt>
      <trkpt lat="42.43408796377480030059814453125" lon="0.5767374671995639801025390625">
        <ele>1407</ele>
        <time>2039-05-14T09:05:20.000Z</time>
      </trkpt>
      <trkpt lat="42.434057034552097320556640625" lon="0.57673654519021511077880859375">
        <ele>1407.199951171875</ele>
        <time>2039-05-14T09:05:23.000Z</time>
      </trkpt>
      <trkpt lat="42.4340062402188777923583984375" lon="0.57673419825732707977294921875">
        <ele>1407.800048828125</ele>
        <time>2039-05-14T09:05:29.000Z</time>
      </trkpt>
      <trkpt lat="42.43399157188832759857177734375" lon="0.5767361260950565338134765625">
        <ele>1408.199951171875</ele>
        <time>2039-05-14T09:05:32.000Z</time>
      </trkpt>
      <trkpt lat="42.43394748307764530181884765625" lon="0.57672715745866298675537109375">
        <ele>1409</ele>
        <time>2039-05-14T09:05:39.000Z</time>
      </trkpt>
      <trkpt lat="42.43394781835377216339111328125" lon="0.57672430761158466339111328125">
        <ele>1409</ele>
        <time>2039-05-14T09:05:41.000Z</time>
      </trkpt>
      <trkpt lat="42.43392862379550933837890625" lon="0.57671609334647655487060546875">
        <ele>1409.199951171875</ele>
        <time>2039-05-14T09:05:56.000Z</time>
      </trkpt>
      <trkpt lat="42.4338728003203868865966796875" lon="0.5766744352877140045166015625">
        <ele>1409.800048828125</ele>
        <time>2039-05-14T09:06:04.000Z</time>
      </trkpt>
      <trkpt lat="42.43386114947497844696044921875" lon="0.5766600184142589569091796875">
        <ele>1410</ele>
        <time>2039-05-14T09:06:06.000Z</time>
      </trkpt>
      <trkpt lat="42.43380733765661716461181640625" lon="0.5766033567488193511962890625">
        <ele>1411</ele>
        <time>2039-05-14T09:06:15.000Z</time>
      </trkpt>
      <trkpt lat="42.4337782524526119232177734375" lon="0.57655113749206066131591796875">
        <ele>1411.800048828125</ele>
        <time>2039-05-14T09:06:22.000Z</time>
      </trkpt>
      <trkpt lat="42.43377045728266239166259765625" lon="0.57653353549540042877197265625">
        <ele>1412</ele>
        <time>2039-05-14T09:06:23.000Z</time>
      </trkpt>
      <trkpt lat="42.43376626633107662200927734375" lon="0.57652414776384830474853515625">
        <ele>1412</ele>
        <time>2039-05-14T09:06:25.000Z</time>
      </trkpt>
      <trkpt lat="42.4337482452392578125" lon="0.57648592628538608551025390625">
        <ele>1412.5999755859375</ele>
        <time>2039-05-14T09:06:29.000Z</time>
      </trkpt>
      <trkpt lat="42.433743216097354888916015625" lon="0.57648827321827411651611328125">
        <ele>1413.199951171875</ele>
        <time>2039-05-14T09:06:35.000Z</time>
      </trkpt>
      <trkpt lat="42.43374296464025974273681640625" lon="0.57648793794214725494384765625">
        <ele>1413.199951171875</ele>
        <time>2039-05-14T09:06:37.000Z</time>
      </trkpt>
      <trkpt lat="42.433743216097354888916015625" lon="0.576488859951496124267578125">
        <ele>1413</ele>
        <time>2039-05-14T09:07:05.000Z</time>
      </trkpt>
      <trkpt lat="42.43374329991638660430908203125" lon="0.5764880217611789703369140625">
        <ele>1413</ele>
        <time>2039-05-14T09:07:25.000Z</time>
      </trkpt>
      <trkpt lat="42.43374262936413288116455078125" lon="0.57648626156151294708251953125">
        <ele>1413</ele>
        <time>2039-05-14T09:07:58.000Z</time>
      </trkpt>
      <trkpt lat="42.4337323196232318878173828125" lon="0.57643890380859375">
        <ele>1413.199951171875</ele>
        <time>2039-05-14T09:08:09.000Z</time>
      </trkpt>
      <trkpt lat="42.43370926938951015472412109375" lon="0.57634796015918254852294921875">
        <ele>1413.800048828125</ele>
        <time>2039-05-14T09:08:14.000Z</time>
      </trkpt>
      <trkpt lat="42.433705665171146392822265625" lon="0.57632155716419219970703125">
        <ele>1414</ele>
        <time>2039-05-14T09:08:16.000Z</time>
      </trkpt>
      <trkpt lat="42.4337013065814971923828125" lon="0.5763056315481662750244140625">
        <ele>1414.199951171875</ele>
        <time>2039-05-14T09:08:17.000Z</time>
      </trkpt>
      <trkpt lat="42.43368663825094699859619140625" lon="0.5761852674186229705810546875">
        <ele>1415.199951171875</ele>
        <time>2039-05-14T09:08:25.000Z</time>
      </trkpt>
      <trkpt lat="42.43368010036647319793701171875" lon="0.57613288052380084991455078125">
        <ele>1415.199951171875</ele>
        <time>2039-05-14T09:08:26.000Z</time>
      </trkpt>
      <trkpt lat="42.433684207499027252197265625" lon="0.57608443312346935272216796875">
        <ele>1415.4000244140625</ele>
        <time>2039-05-14T09:08:28.000Z</time>
      </trkpt>
      <trkpt lat="42.43369099684059619903564453125" lon="0.57601184584200382232666015625">
        <ele>1416</ele>
        <time>2039-05-14T09:08:32.000Z</time>
      </trkpt>
      <trkpt lat="42.43369099684059619903564453125" lon="0.57601184584200382232666015625">
        <ele>1416.4000244140625</ele>
        <time>2039-05-14T09:08:33.000Z</time>
      </trkpt>
      <trkpt lat="42.43369795382022857666015625" lon="0.575965829193592071533203125">
        <ele>1416.800048828125</ele>
        <time>2039-05-14T09:08:34.000Z</time>
      </trkpt>
      <trkpt lat="42.43369870819151401519775390625" lon="0.57594629935920238494873046875">
        <ele>1417.4000244140625</ele>
        <time>2039-05-14T09:08:35.000Z</time>
      </trkpt>
      <trkpt lat="42.43370306678116321563720703125" lon="0.57589349336922168731689453125">
        <ele>1418.4000244140625</ele>
        <time>2039-05-14T09:08:38.000Z</time>
      </trkpt>
      <trkpt lat="42.43370306678116321563720703125" lon="0.57589349336922168731689453125">
        <ele>1418.4000244140625</ele>
        <time>2039-05-14T09:08:39.000Z</time>
      </trkpt>
      <trkpt lat="42.43369954638183116912841796875" lon="0.57586231268942356109619140625">
        <ele>1418.5999755859375</ele>
        <time>2039-05-14T09:08:40.000Z</time>
      </trkpt>
      <trkpt lat="42.43372301571071147918701171875" lon="0.5757723748683929443359375">
        <ele>1419.5999755859375</ele>
        <time>2039-05-14T09:08:45.000Z</time>
      </trkpt>
      <trkpt lat="42.43373290635645389556884765625" lon="0.5757356621325016021728515625">
        <ele>1419.800048828125</ele>
        <time>2039-05-14T09:08:46.000Z</time>
      </trkpt>
      <trkpt lat="42.43373491801321506500244140625" lon="0.57572468183934688568115234375">
        <ele>1419.800048828125</ele>
        <time>2039-05-14T09:08:47.000Z</time>
      </trkpt>
      <trkpt lat="42.4337386898696422576904296875" lon="0.57571135461330413818359375">
        <ele>1420.199951171875</ele>
        <time>2039-05-14T09:08:49.000Z</time>
      </trkpt>
      <trkpt lat="42.43374849669635295867919921875" lon="0.57567807845771312713623046875">
        <ele>1420.199951171875</ele>
        <time>2039-05-14T09:08:51.000Z</time>
      </trkpt>
      <trkpt lat="42.43374380283057689666748046875" lon="0.57567170821130275726318359375">
        <ele>1420.5999755859375</ele>
        <time>2039-05-14T09:09:05.000Z</time>
      </trkpt>
      <trkpt lat="42.43374430574476718902587890625" lon="0.5756702832877635955810546875">
        <ele>1420.5999755859375</ele>
        <time>2039-05-14T09:09:14.000Z</time>
      </trkpt>
      <trkpt lat="42.43374346755445003509521484375" lon="0.575649328529834747314453125">
        <ele>1420.4000244140625</ele>
        <time>2039-05-14T09:09:26.000Z</time>
      </trkpt>
      <trkpt lat="42.43374346755445003509521484375" lon="0.575649328529834747314453125">
        <ele>1420.4000244140625</ele>
        <time>2039-05-14T09:09:27.000Z</time>
      </trkpt>
      <trkpt lat="42.43373910896480083465576171875" lon="0.57551597245037555694580078125">
        <ele>1421</ele>
        <time>2039-05-14T09:09:33.000Z</time>
      </trkpt>
      <trkpt lat="42.43372636847198009490966796875" lon="0.57546149007976055145263671875">
        <ele>1421</ele>
        <time>2039-05-14T09:09:34.000Z</time>
      </trkpt>
      <trkpt lat="42.4336826987564563751220703125" lon="0.57536803185939788818359375">
        <ele>1421.800048828125</ele>
        <time>2039-05-14T09:09:38.000Z</time>
      </trkpt>
      <trkpt lat="42.4336826987564563751220703125" lon="0.57536803185939788818359375">
        <ele>1422</ele>
        <time>2039-05-14T09:09:39.000Z</time>
      </trkpt>
      <trkpt lat="42.43358555249869823455810546875" lon="0.57526501826941967010498046875">
        <ele>1422.800048828125</ele>
        <time>2039-05-14T09:09:44.000Z</time>
      </trkpt>
      <trkpt lat="42.43358555249869823455810546875" lon="0.57526501826941967010498046875">
        <ele>1423</ele>
        <time>2039-05-14T09:09:45.000Z</time>
      </trkpt>
      <trkpt lat="42.43355177342891693115234375" lon="0.57526300661265850067138671875">
        <ele>1423.199951171875</ele>
        <time>2039-05-14T09:09:46.000Z</time>
      </trkpt>
      <trkpt lat="42.43351757526397705078125" lon="0.575279183685779571533203125">
        <ele>1424.4000244140625</ele>
        <time>2039-05-14T09:09:48.000Z</time>
      </trkpt>
      <trkpt lat="42.43348949588835239410400390625" lon="0.5753038264811038970947265625">
        <ele>1425</ele>
        <time>2039-05-14T09:09:50.000Z</time>
      </trkpt>
      <trkpt lat="42.43347357027232646942138671875" lon="0.57531044818460941314697265625">
        <ele>1425.5999755859375</ele>
        <time>2039-05-14T09:09:53.000Z</time>
      </trkpt>
      <trkpt lat="42.43347398936748504638671875" lon="0.57531095109879970550537109375">
        <ele>1425.800048828125</ele>
        <time>2039-05-14T09:09:54.000Z</time>
      </trkpt>
      <trkpt lat="42.433448173105716705322265625" lon="0.57535688392817974090576171875">
        <ele>1426.800048828125</ele>
        <time>2039-05-14T09:10:02.000Z</time>
      </trkpt>
      <trkpt lat="42.43339955806732177734375" lon="0.57534615509212017059326171875">
        <ele>1427.199951171875</ele>
        <time>2039-05-14T09:10:10.000Z</time>
      </trkpt>
      <trkpt lat="42.4333786033093929290771484375" lon="0.5753338336944580078125">
        <ele>1428</ele>
        <time>2039-05-14T09:10:15.000Z</time>
      </trkpt>
      <trkpt lat="42.43335572071373462677001953125" lon="0.57532913982868194580078125">
        <ele>1428.199951171875</ele>
        <time>2039-05-14T09:10:17.000Z</time>
      </trkpt>
      <trkpt lat="42.43333174847066402435302734375" lon="0.5752877332270145416259765625">
        <ele>1428.4000244140625</ele>
        <time>2039-05-14T09:10:24.000Z</time>
      </trkpt>
      <trkpt lat="42.433352284133434295654296875" lon="0.5752230249345302581787109375">
        <ele>1429</ele>
        <time>2039-05-14T09:10:33.000Z</time>
      </trkpt>
      <trkpt lat="42.43336133658885955810546875" lon="0.5751874856650829315185546875">
        <ele>1429.4000244140625</ele>
        <time>2039-05-14T09:10:36.000Z</time>
      </trkpt>
      <trkpt lat="42.4333873204886913299560546875" lon="0.5751143954694271087646484375">
        <ele>1430</ele>
        <time>2039-05-14T09:10:44.000Z</time>
      </trkpt>
      <trkpt lat="42.4333977140486240386962890625" lon="0.5750838853418827056884765625">
        <ele>1430.4000244140625</ele>
        <time>2039-05-14T09:10:47.000Z</time>
      </trkpt>
      <trkpt lat="42.4334067665040493011474609375" lon="0.57505446486175060272216796875">
        <ele>1431</ele>
        <time>2039-05-14T09:10:51.000Z</time>
      </trkpt>
      <trkpt lat="42.43342512287199497222900390625" lon="0.57500668801367282867431640625">
        <ele>1431.5999755859375</ele>
        <time>2039-05-14T09:10:56.000Z</time>
      </trkpt>
      <trkpt lat="42.43342596106231212615966796875" lon="0.5749784409999847412109375">
        <ele>1432</ele>
        <time>2039-05-14T09:10:59.000Z</time>
      </trkpt>
      <trkpt lat="42.43344180285930633544921875" lon="0.57492077350616455078125">
        <ele>1433.199951171875</ele>
        <time>2039-05-14T09:11:07.000Z</time>
      </trkpt>
      <trkpt lat="42.43344540707767009735107421875" lon="0.57490090839564800262451171875">
        <ele>1433.4000244140625</ele>
        <time>2039-05-14T09:11:08.000Z</time>
      </trkpt>
      <trkpt lat="42.43347306735813617706298828125" lon="0.5748253874480724334716796875">
        <ele>1434</ele>
        <time>2039-05-14T09:11:17.000Z</time>
      </trkpt>
      <trkpt lat="42.43347792886197566986083984375" lon="0.57481692172586917877197265625">
        <ele>1434.199951171875</ele>
        <time>2039-05-14T09:11:19.000Z</time>
      </trkpt>
      <trkpt lat="42.4335003085434436798095703125" lon="0.574768893420696258544921875">
        <ele>1434.800048828125</ele>
        <time>2039-05-14T09:11:25.000Z</time>
      </trkpt>
      <trkpt lat="42.43353207595646381378173828125" lon="0.5747030116617679595947265625">
        <ele>1435.199951171875</ele>
        <time>2039-05-14T09:11:32.000Z</time>
      </trkpt>
      <trkpt lat="42.43354682810604572296142578125" lon="0.5746859125792980194091796875">
        <ele>1435.5999755859375</ele>
        <time>2039-05-14T09:11:35.000Z</time>
      </trkpt>
      <trkpt lat="42.4335660226643085479736328125" lon="0.5746460147202014923095703125">
        <ele>1436.199951171875</ele>
        <time>2039-05-14T09:11:40.000Z</time>
      </trkpt>
      <trkpt lat="42.4335797689855098724365234375" lon="0.57458641938865184783935546875">
        <ele>1436.800048828125</ele>
        <time>2039-05-14T09:11:46.000Z</time>
      </trkpt>
      <trkpt lat="42.43359678424894809722900390625" lon="0.57453059591352939605712890625">
        <ele>1437.4000244140625</ele>
        <time>2039-05-14T09:11:52.000Z</time>
      </trkpt>
      <trkpt lat="42.43361673317849636077880859375" lon="0.57448617182672023773193359375">
        <ele>1438</ele>
        <time>2039-05-14T09:11:58.000Z</time>
      </trkpt>
      <trkpt lat="42.433627545833587646484375" lon="0.57445197366178035736083984375">
        <ele>1438.4000244140625</ele>
        <time>2039-05-14T09:12:03.000Z</time>
      </trkpt>
      <trkpt lat="42.4336441420018672943115234375" lon="0.574421547353267669677734375">
        <ele>1438.800048828125</ele>
        <time>2039-05-14T09:12:07.000Z</time>
      </trkpt>
      <trkpt lat="42.433662749826908111572265625" lon="0.57438592426478862762451171875">
        <ele>1439.5999755859375</ele>
        <time>2039-05-14T09:12:12.000Z</time>
      </trkpt>
      <trkpt lat="42.4336796812713146209716796875" lon="0.574363879859447479248046875">
        <ele>1440</ele>
        <time>2039-05-14T09:12:16.000Z</time>
      </trkpt>
      <trkpt lat="42.4336830340325832366943359375" lon="0.574357174336910247802734375">
        <ele>1440</ele>
        <time>2039-05-14T09:12:17.000Z</time>
      </trkpt>
      <trkpt lat="42.43372745811939239501953125" lon="0.5742835812270641326904296875">
        <ele>1440</ele>
        <time>2039-05-14T09:12:26.000Z</time>
      </trkpt>
      <trkpt lat="42.43373676203191280364990234375" lon="0.5742631293833255767822265625">
        <ele>1440.5999755859375</ele>
        <time>2039-05-14T09:12:29.000Z</time>
      </trkpt>
      <trkpt lat="42.4337710440158843994140625" lon="0.57421334087848663330078125">
        <ele>1441.4000244140625</ele>
        <time>2039-05-14T09:12:36.000Z</time>
      </trkpt>
      <trkpt lat="42.433777749538421630859375" lon="0.5742034502327442169189453125">
        <ele>1441.800048828125</ele>
        <time>2039-05-14T09:12:39.000Z</time>
      </trkpt>
      <trkpt lat="42.4338248558342456817626953125" lon="0.57414636947214603424072265625">
        <ele>1442.199951171875</ele>
        <time>2039-05-14T09:12:46.000Z</time>
      </trkpt>
      <trkpt lat="42.4338520132005214691162109375" lon="0.57408233173191547393798828125">
        <ele>1442.800048828125</ele>
        <time>2039-05-14T09:12:53.000Z</time>
      </trkpt>
      <trkpt lat="42.43385620415210723876953125" lon="0.57407386600971221923828125">
        <ele>1442.800048828125</ele>
        <time>2039-05-14T09:12:54.000Z</time>
      </trkpt>
      <trkpt lat="42.43385620415210723876953125" lon="0.57407386600971221923828125">
        <ele>1442.800048828125</ele>
        <time>2039-05-14T09:12:55.000Z</time>
      </trkpt>
      <trkpt lat="42.433893419802188873291015625" lon="0.57400035671889781951904296875">
        <ele>1443.800048828125</ele>
        <time>2039-05-14T09:13:02.000Z</time>
      </trkpt>
      <trkpt lat="42.4339043162763118743896484375" lon="0.57398325763642787933349609375">
        <ele>1444.199951171875</ele>
        <time>2039-05-14T09:13:05.000Z</time>
      </trkpt>
      <trkpt lat="42.4339804239571094512939453125" lon="0.5739109218120574951171875">
        <ele>1444.800048828125</ele>
        <time>2039-05-14T09:13:16.000Z</time>
      </trkpt>
      <trkpt lat="42.43406633846461772918701171875" lon="0.5739228241145610809326171875">
        <ele>1446</ele>
        <time>2039-05-14T09:13:28.000Z</time>
      </trkpt>
      <trkpt lat="42.43411545641720294952392578125" lon="0.573964230716228485107421875">
        <ele>1446.5999755859375</ele>
        <time>2039-05-14T09:13:35.000Z</time>
      </trkpt>
      <trkpt lat="42.434160970151424407958984375" lon="0.5739806592464447021484375">
        <ele>1447</ele>
        <time>2039-05-14T09:13:43.000Z</time>
      </trkpt>
      <trkpt lat="42.43417278863489627838134765625" lon="0.5739967525005340576171875">
        <ele>1447</ele>
        <time>2039-05-14T09:13:44.000Z</time>
      </trkpt>
      <trkpt lat="42.43421670980751514434814453125" lon="0.5739959143102169036865234375">
        <ele>1447.800048828125</ele>
        <time>2039-05-14T09:13:53.000Z</time>
      </trkpt>
      <trkpt lat="42.4342315457761287689208984375" lon="0.5739940702915191650390625">
        <ele>1447.800048828125</ele>
        <time>2039-05-14T09:14:17.000Z</time>
      </trkpt>
      <trkpt lat="42.434267587959766387939453125" lon="0.57400873862206935882568359375">
        <ele>1447.800048828125</ele>
        <time>2039-05-14T09:14:26.000Z</time>
      </trkpt>
      <trkpt lat="42.4343069829046726226806640625" lon="0.5740287713706493377685546875">
        <ele>1448.199951171875</ele>
        <time>2039-05-14T09:14:31.000Z</time>
      </trkpt>
      <trkpt lat="42.434333972632884979248046875" lon="0.574042685329914093017578125">
        <ele>1448.199951171875</ele>
        <time>2039-05-14T09:14:32.000Z</time>
      </trkpt>
      <trkpt lat="42.43445140309631824493408203125" lon="0.57407663203775882720947265625">
        <ele>1449</ele>
        <time>2039-05-14T09:14:41.000Z</time>
      </trkpt>
      <trkpt lat="42.4344652332365512847900390625" lon="0.57407713495194911956787109375">
        <ele>1449.4000244140625</ele>
        <time>2039-05-14T09:14:43.000Z</time>
      </trkpt>
      <trkpt lat="42.43455852381885051727294921875" lon="0.57412139140069484710693359375">
        <ele>1450.4000244140625</ele>
        <time>2039-05-14T09:14:51.000Z</time>
      </trkpt>
      <trkpt lat="42.43459741584956645965576171875" lon="0.57414972223341464996337890625">
        <ele>1450.5999755859375</ele>
        <time>2039-05-14T09:14:53.000Z</time>
      </trkpt>
      <trkpt lat="42.43463647551834583282470703125" lon="0.57416363619267940521240234375">
        <ele>1450.800048828125</ele>
        <time>2039-05-14T09:14:56.000Z</time>
      </trkpt>
      <trkpt lat="42.43467855267226696014404296875" lon="0.57418039999902248382568359375">
        <ele>1451.800048828125</ele>
        <time>2039-05-14T09:14:59.000Z</time>
      </trkpt>
      <trkpt lat="42.4347579292953014373779296875" lon="0.57421510107815265655517578125">
        <ele>1452.800048828125</ele>
        <time>2039-05-14T09:15:04.000Z</time>
      </trkpt>
      <trkpt lat="42.4348090589046478271484375" lon="0.5742228962481021881103515625">
        <ele>1453.199951171875</ele>
        <time>2039-05-14T09:15:08.000Z</time>
      </trkpt>
      <trkpt lat="42.4348551593720912933349609375" lon="0.574221722781658172607421875">
        <ele>1453.800048828125</ele>
        <time>2039-05-14T09:15:12.000Z</time>
      </trkpt>
      <trkpt lat="42.43490201421082019805908203125" lon="0.57421912439167499542236328125">
        <ele>1454.4000244140625</ele>
        <time>2039-05-14T09:15:16.000Z</time>
      </trkpt>
      <trkpt lat="42.43492431007325649261474609375" lon="0.57420034892857074737548828125">
        <ele>1454.800048828125</ele>
        <time>2039-05-14T09:15:18.000Z</time>
      </trkpt>
      <trkpt lat="42.43495113216340541839599609375" lon="0.5741397477686405181884765625">
        <ele>1455.199951171875</ele>
        <time>2039-05-14T09:15:22.000Z</time>
      </trkpt>
      <trkpt lat="42.4349584244191646575927734375" lon="0.57403941638767719268798828125">
        <ele>1455.4000244140625</ele>
        <time>2039-05-14T09:15:28.000Z</time>
      </trkpt>
      <trkpt lat="42.43495884351432323455810546875" lon="0.5740249156951904296875">
        <ele>1455.4000244140625</ele>
        <time>2039-05-14T09:15:29.000Z</time>
      </trkpt>
      <trkpt lat="42.4349590949714183807373046875" lon="0.57400823570787906646728515625">
        <ele>1455.800048828125</ele>
        <time>2039-05-14T09:15:30.000Z</time>
      </trkpt>
      <trkpt lat="42.434953562915325164794921875" lon="0.573978982865810394287109375">
        <ele>1455.800048828125</ele>
        <time>2039-05-14T09:15:32.000Z</time>
      </trkpt>
      <trkpt lat="42.43493453599512577056884765625" lon="0.57391033507883548736572265625">
        <ele>1456.4000244140625</ele>
        <time>2039-05-14T09:15:37.000Z</time>
      </trkpt>
      <trkpt lat="42.43492648936808109283447265625" lon="0.5738745443522930145263671875">
        <ele>1456.800048828125</ele>
        <time>2039-05-14T09:15:39.000Z</time>
      </trkpt>
      <trkpt lat="42.43488944135606288909912109375" lon="0.57377102784812450408935546875">
        <ele>1457.800048828125</ele>
        <time>2039-05-14T09:15:44.000Z</time>
      </trkpt>
      <trkpt lat="42.434867732226848602294921875" lon="0.57371788658201694488525390625">
        <ele>1458.800048828125</ele>
        <time>2039-05-14T09:15:48.000Z</time>
      </trkpt>
      <trkpt lat="42.43484459817409515380859375" lon="0.57365753687918186187744140625">
        <ele>1459.4000244140625</ele>
        <time>2039-05-14T09:15:52.000Z</time>
      </trkpt>
      <trkpt lat="42.4348383955657482147216796875" lon="0.5736321397125720977783203125">
        <ele>1459.5999755859375</ele>
        <time>2039-05-14T09:15:54.000Z</time>
      </trkpt>
      <trkpt lat="42.43482221849262714385986328125" lon="0.57360691018402576446533203125">
        <ele>1460</ele>
        <time>2039-05-14T09:15:56.000Z</time>
      </trkpt>
      <trkpt lat="42.43480294011533260345458984375" lon="0.5735664255917072296142578125">
        <ele>1460.5999755859375</ele>
        <time>2039-05-14T09:15:59.000Z</time>
      </trkpt>
      <trkpt lat="42.43477812968194484710693359375" lon="0.5735218338668346405029296875">
        <ele>1461</ele>
        <time>2039-05-14T09:16:02.000Z</time>
      </trkpt>
      <trkpt lat="42.43474141694605350494384765625" lon="0.57346877641975879669189453125">
        <ele>1461.800048828125</ele>
        <time>2039-05-14T09:16:07.000Z</time>
      </trkpt>
      <trkpt lat="42.43470621295273303985595703125" lon="0.57340591214597225189208984375">
        <ele>1462.199951171875</ele>
        <time>2039-05-14T09:16:10.000Z</time>
      </trkpt>
      <trkpt lat="42.43466346524655818939208984375" lon="0.5733588896691799163818359375">
        <ele>1462.5999755859375</ele>
        <time>2039-05-14T09:16:14.000Z</time>
      </trkpt>
      <trkpt lat="42.43461652658879756927490234375" lon="0.5733317323029041290283203125">
        <ele>1463.199951171875</ele>
        <time>2039-05-14T09:16:18.000Z</time>
      </trkpt>
      <trkpt lat="42.43456472642719745635986328125" lon="0.57330943644046783447265625">
        <ele>1463.4000244140625</ele>
        <time>2039-05-14T09:16:23.000Z</time>
      </trkpt>
      <trkpt lat="42.43453857488930225372314453125" lon="0.57330432347953319549560546875">
        <ele>1464</ele>
        <time>2039-05-14T09:16:26.000Z</time>
      </trkpt>
      <trkpt lat="42.43453857488930225372314453125" lon="0.57330432347953319549560546875">
        <ele>1464</ele>
        <time>2039-05-14T09:16:27.000Z</time>
      </trkpt>
      <trkpt lat="42.43451736867427825927734375" lon="0.57330281473696231842041015625">
        <ele>1464.199951171875</ele>
        <time>2039-05-14T09:16:28.000Z</time>
      </trkpt>
      <trkpt lat="42.43449322879314422607421875" lon="0.573297701776027679443359375">
        <ele>1464.4000244140625</ele>
        <time>2039-05-14T09:16:31.000Z</time>
      </trkpt>
      <trkpt lat="42.4343555979430675506591796875" lon="0.57332955300807952880859375">
        <ele>1464</ele>
        <time>2039-05-14T09:16:38.000Z</time>
      </trkpt>
      <trkpt lat="42.434237413108348846435546875" lon="0.5733669362962245941162109375">
        <ele>1463.5999755859375</ele>
        <time>2039-05-14T09:16:44.000Z</time>
      </trkpt>
      <trkpt lat="42.4340783245861530303955078125" lon="0.573421083390712738037109375">
        <ele>1462.800048828125</ele>
        <time>2039-05-14T09:16:51.000Z</time>
      </trkpt>
      <trkpt lat="42.43401202373206615447998046875" lon="0.573434494435787200927734375">
        <ele>1462.199951171875</ele>
        <time>2039-05-14T09:16:52.000Z</time>
      </trkpt>
      <trkpt lat="42.433975897729396820068359375" lon="0.5734413675963878631591796875">
        <ele>1461.5999755859375</ele>
        <time>2039-05-14T09:16:53.000Z</time>
      </trkpt>
      <trkpt lat="42.43386701680719852447509765625" lon="0.57346391491591930389404296875">
        <ele>1460.4000244140625</ele>
        <time>2039-05-14T09:16:57.000Z</time>
      </trkpt>
      <trkpt lat="42.4337785877287387847900390625" lon="0.5734779126942157745361328125">
        <ele>1460.5999755859375</ele>
        <time>2039-05-14T09:16:59.000Z</time>
      </trkpt>
      <trkpt lat="42.43364028632640838623046875" lon="0.5734490789473056793212890625">
        <ele>1461.4000244140625</ele>
        <time>2039-05-14T09:17:06.000Z</time>
      </trkpt>
      <trkpt lat="42.43361212313175201416015625" lon="0.57343239895999431610107421875">
        <ele>1461.5999755859375</ele>
        <time>2039-05-14T09:17:09.000Z</time>
      </trkpt>
      <trkpt lat="42.43356627412140369415283203125" lon="0.57338193990290164947509765625">
        <ele>1462.5999755859375</ele>
        <time>2039-05-14T09:17:13.000Z</time>
      </trkpt>
      <trkpt lat="42.43354833684861660003662109375" lon="0.57334673590958118438720703125">
        <ele>1462.800048828125</ele>
        <time>2039-05-14T09:17:14.000Z</time>
      </trkpt>
      <trkpt lat="42.4334915913641452789306640625" lon="0.57325780391693115234375">
        <ele>1464</ele>
        <time>2039-05-14T09:17:20.000Z</time>
      </trkpt>
      <trkpt lat="42.43345093913376331329345703125" lon="0.57318873703479766845703125">
        <ele>1464.4000244140625</ele>
        <time>2039-05-14T09:17:24.000Z</time>
      </trkpt>
      <trkpt lat="42.43342663161456584930419921875" lon="0.5731557123363018035888671875">
        <ele>1465</ele>
        <time>2039-05-14T09:17:27.000Z</time>
      </trkpt>
      <trkpt lat="42.4333661980926990509033203125" lon="0.57305119000375270843505859375">
        <ele>1466</ele>
        <time>2039-05-14T09:17:33.000Z</time>
      </trkpt>
      <trkpt lat="42.4333433993160724639892578125" lon="0.5730048380792140960693359375">
        <ele>1466.199951171875</ele>
        <time>2039-05-14T09:17:34.000Z</time>
      </trkpt>
      <trkpt lat="42.43329822085797786712646484375" lon="0.5729371123015880584716796875">
        <ele>1467.199951171875</ele>
        <time>2039-05-14T09:17:39.000Z</time>
      </trkpt>
      <trkpt lat="42.43326234631240367889404296875" lon="0.57289302349090576171875">
        <ele>1467.5999755859375</ele>
        <time>2039-05-14T09:17:41.000Z</time>
      </trkpt>
      <trkpt lat="42.43322814814746379852294921875" lon="0.5728475935757160186767578125">
        <ele>1468.4000244140625</ele>
        <time>2039-05-14T09:17:45.000Z</time>
      </trkpt>
      <trkpt lat="42.43316276930272579193115234375" lon="0.5727724917232990264892578125">
        <ele>1469.4000244140625</ele>
        <time>2039-05-14T09:17:50.000Z</time>
      </trkpt>
      <trkpt lat="42.43316276930272579193115234375" lon="0.5727724917232990264892578125">
        <ele>1469.4000244140625</ele>
        <time>2039-05-14T09:17:51.000Z</time>
      </trkpt>
      <trkpt lat="42.4331043474376201629638671875" lon="0.57264399714767932891845703125">
        <ele>1470.199951171875</ele>
        <time>2039-05-14T09:17:58.000Z</time>
      </trkpt>
      <trkpt lat="42.4331006594002246856689453125" lon="0.572630502283573150634765625">
        <ele>1470.4000244140625</ele>
        <time>2039-05-14T09:17:59.000Z</time>
      </trkpt>
      <trkpt lat="42.43309537880122661590576171875" lon="0.57261482812464237213134765625">
        <ele>1470.800048828125</ele>
        <time>2039-05-14T09:18:01.000Z</time>
      </trkpt>
      <trkpt lat="42.43305849842727184295654296875" lon="0.5725429952144622802734375">
        <ele>1471.4000244140625</ele>
        <time>2039-05-14T09:18:05.000Z</time>
      </trkpt>
      <trkpt lat="42.43302798829972743988037109375" lon="0.57245993055403232574462890625">
        <ele>1471.800048828125</ele>
        <time>2039-05-14T09:18:10.000Z</time>
      </trkpt>
      <trkpt lat="42.43301709182560443878173828125" lon="0.57242740876972675323486328125">
        <ele>1472.5999755859375</ele>
        <time>2039-05-14T09:18:12.000Z</time>
      </trkpt>
      <trkpt lat="42.4329940415918827056884765625" lon="0.57236437685787677764892578125">
        <ele>1473.800048828125</ele>
        <time>2039-05-14T09:18:16.000Z</time>
      </trkpt>
      <trkpt lat="42.43298641405999660491943359375" lon="0.57233470492064952850341796875">
        <ele>1473.5999755859375</ele>
        <time>2039-05-14T09:18:18.000Z</time>
      </trkpt>
      <trkpt lat="42.432955987751483917236328125" lon="0.57218399830162525177001953125">
        <ele>1474.800048828125</ele>
        <time>2039-05-14T09:18:28.000Z</time>
      </trkpt>
      <trkpt lat="42.4329316802322864532470703125" lon="0.5720670707523822784423828125">
        <ele>1475.800048828125</ele>
        <time>2039-05-14T09:18:35.000Z</time>
      </trkpt>
      <trkpt lat="42.43292757309973239898681640625" lon="0.5720493011176586151123046875">
        <ele>1476</ele>
        <time>2039-05-14T09:18:36.000Z</time>
      </trkpt>
      <trkpt lat="42.4329189397394657135009765625" lon="0.57199507020413875579833984375">
        <ele>1477.199951171875</ele>
        <time>2039-05-14T09:18:39.000Z</time>
      </trkpt>
      <trkpt lat="42.43288951925933361053466796875" lon="0.57187713682651519775390625">
        <ele>1477.800048828125</ele>
        <time>2039-05-14T09:18:46.000Z</time>
      </trkpt>
      <trkpt lat="42.432881556451320648193359375" lon="0.571849308907985687255859375">
        <ele>1478.199951171875</ele>
        <time>2039-05-14T09:18:48.000Z</time>
      </trkpt>
      <trkpt lat="42.43285439908504486083984375" lon="0.57176188565790653228759765625">
        <ele>1478.800048828125</ele>
        <time>2039-05-14T09:18:53.000Z</time>
      </trkpt>
      <trkpt lat="42.4328441731631755828857421875" lon="0.57170572690665721893310546875">
        <ele>1479.4000244140625</ele>
        <time>2039-05-14T09:18:56.000Z</time>
      </trkpt>
      <trkpt lat="42.4328173510730266571044921875" lon="0.5715956725180149078369140625">
        <ele>1480</ele>
        <time>2039-05-14T09:19:02.000Z</time>
      </trkpt>
      <trkpt lat="42.4327992461621761322021484375" lon="0.57148863561451435089111328125">
        <ele>1480.5999755859375</ele>
        <time>2039-05-14T09:19:08.000Z</time>
      </trkpt>
      <trkpt lat="42.4327891878783702850341796875" lon="0.57143323123455047607421875">
        <ele>1481.4000244140625</ele>
        <time>2039-05-14T09:19:11.000Z</time>
      </trkpt>
      <trkpt lat="42.43278692476451396942138671875" lon="0.57141470722854137420654296875">
        <ele>1481.5999755859375</ele>
        <time>2039-05-14T09:19:12.000Z</time>
      </trkpt>
      <trkpt lat="42.43278692476451396942138671875" lon="0.57141470722854137420654296875">
        <ele>1481.5999755859375</ele>
        <time>2039-05-14T09:19:13.000Z</time>
      </trkpt>
      <trkpt lat="42.4327660538256168365478515625" lon="0.5712835304439067840576171875">
        <ele>1482.4000244140625</ele>
        <time>2039-05-14T09:19:20.000Z</time>
      </trkpt>
      <trkpt lat="42.4327620305120944976806640625" lon="0.5712510086596012115478515625">
        <ele>1482.800048828125</ele>
        <time>2039-05-14T09:19:22.000Z</time>
      </trkpt>
      <trkpt lat="42.4327288381755352020263671875" lon="0.57112838141620159149169921875">
        <ele>1483.5999755859375</ele>
        <time>2039-05-14T09:19:29.000Z</time>
      </trkpt>
      <trkpt lat="42.4327244795858860015869140625" lon="0.57111178524792194366455078125">
        <ele>1484.199951171875</ele>
        <time>2039-05-14T09:19:31.000Z</time>
      </trkpt>
      <trkpt lat="42.4326832406222820281982421875" lon="0.57093526236712932586669921875">
        <ele>1485</ele>
        <time>2039-05-14T09:19:40.000Z</time>
      </trkpt>
      <trkpt lat="42.4326792173087596893310546875" lon="0.57091816328465938568115234375">
        <ele>1485.199951171875</ele>
        <time>2039-05-14T09:19:41.000Z</time>
      </trkpt>
      <trkpt lat="42.43264979682862758636474609375" lon="0.57081406004726886749267578125">
        <ele>1486.4000244140625</ele>
        <time>2039-05-14T09:19:47.000Z</time>
      </trkpt>
      <trkpt lat="42.4326356314122676849365234375" lon="0.57076267898082733154296875">
        <ele>1486.800048828125</ele>
        <time>2039-05-14T09:19:50.000Z</time>
      </trkpt>
      <trkpt lat="42.4326098151504993438720703125" lon="0.5706974677741527557373046875">
        <ele>1487.4000244140625</ele>
        <time>2039-05-14T09:19:54.000Z</time>
      </trkpt>
      <trkpt lat="42.43257469497621059417724609375" lon="0.57062244974076747894287109375">
        <ele>1488.4000244140625</ele>
        <time>2039-05-14T09:19:59.000Z</time>
      </trkpt>
      <trkpt lat="42.43256681598722934722900390625" lon="0.57060979306697845458984375">
        <ele>1488.4000244140625</ele>
        <time>2039-05-14T09:20:00.000Z</time>
      </trkpt>
      <trkpt lat="42.4325176142156124114990234375" lon="0.57052798569202423095703125">
        <ele>1489.4000244140625</ele>
        <time>2039-05-14T09:20:06.000Z</time>
      </trkpt>
      <trkpt lat="42.4325001798570156097412109375" lon="0.5705016665160655975341796875">
        <ele>1490.199951171875</ele>
        <time>2039-05-14T09:20:08.000Z</time>
      </trkpt>
      <trkpt lat="42.4325001798570156097412109375" lon="0.5705016665160655975341796875">
        <ele>1490.5999755859375</ele>
        <time>2039-05-14T09:20:09.000Z</time>
      </trkpt>
      <trkpt lat="42.4324223957955837249755859375" lon="0.5703826434910297393798828125">
        <ele>1490.5999755859375</ele>
        <time>2039-05-14T09:20:16.000Z</time>
      </trkpt>
      <trkpt lat="42.4323509819805622100830078125" lon="0.570295639336109161376953125">
        <ele>1491.199951171875</ele>
        <time>2039-05-14T09:20:23.000Z</time>
      </trkpt>
      <trkpt lat="42.4323177896440029144287109375" lon="0.57026638649404048919677734375">
        <ele>1491.5999755859375</ele>
        <time>2039-05-14T09:20:27.000Z</time>
      </trkpt>
      <trkpt lat="42.43226489983499050140380859375" lon="0.57019178755581378936767578125">
        <ele>1492.5999755859375</ele>
        <time>2039-05-14T09:20:32.000Z</time>
      </trkpt>
      <trkpt lat="42.43225668556988239288330078125" lon="0.5701650492846965789794921875">
        <ele>1492.800048828125</ele>
        <time>2039-05-14T09:20:34.000Z</time>
      </trkpt>
      <trkpt lat="42.43220354430377483367919921875" lon="0.57006639428436756134033203125">
        <ele>1493.800048828125</ele>
        <time>2039-05-14T09:20:41.000Z</time>
      </trkpt>
      <trkpt lat="42.43219348601996898651123046875" lon="0.5700540728867053985595703125">
        <ele>1493.800048828125</ele>
        <time>2039-05-14T09:20:42.000Z</time>
      </trkpt>
      <trkpt lat="42.43215627036988735198974609375" lon="0.57000503875315189361572265625">
        <ele>1493.800048828125</ele>
        <time>2039-05-14T09:20:46.000Z</time>
      </trkpt>
      <trkpt lat="42.4321474693715572357177734375" lon="0.56997318752110004425048828125">
        <ele>1494.5999755859375</ele>
        <time>2039-05-14T09:20:49.000Z</time>
      </trkpt>
      <trkpt lat="42.43213263340294361114501953125" lon="0.56994368322193622589111328125">
        <ele>1494.800048828125</ele>
        <time>2039-05-14T09:20:51.000Z</time>
      </trkpt>
      <trkpt lat="42.4320820905268192291259765625" lon="0.569832958281040191650390625">
        <ele>1495.4000244140625</ele>
        <time>2039-05-14T09:20:58.000Z</time>
      </trkpt>
      <trkpt lat="42.4320572800934314727783203125" lon="0.569765232503414154052734375">
        <ele>1496</ele>
        <time>2039-05-14T09:21:03.000Z</time>
      </trkpt>
      <trkpt lat="42.43202584795653820037841796875" lon="0.569696165621280670166015625">
        <ele>1496.5999755859375</ele>
        <time>2039-05-14T09:21:07.000Z</time>
      </trkpt>
      <trkpt lat="42.43199517019093036651611328125" lon="0.56960798799991607666015625">
        <ele>1497.199951171875</ele>
        <time>2039-05-14T09:21:11.000Z</time>
      </trkpt>
      <trkpt lat="42.43197673000395298004150390625" lon="0.569549985229969024658203125">
        <ele>1498.199951171875</ele>
        <time>2039-05-14T09:21:15.000Z</time>
      </trkpt>
      <trkpt lat="42.431955523788928985595703125" lon="0.5694767273962497711181640625">
        <ele>1498.199951171875</ele>
        <time>2039-05-14T09:21:19.000Z</time>
      </trkpt>
      <trkpt lat="42.43191939778625965118408203125" lon="0.56935996748507022857666015625">
        <ele>1498.5999755859375</ele>
        <time>2039-05-14T09:21:24.000Z</time>
      </trkpt>
      <trkpt lat="42.43190665729343891143798828125" lon="0.5693248473107814788818359375">
        <ele>1499.199951171875</ele>
        <time>2039-05-14T09:21:27.000Z</time>
      </trkpt>
      <trkpt lat="42.43188385851681232452392578125" lon="0.569251589477062225341796875">
        <ele>1500.4000244140625</ele>
        <time>2039-05-14T09:21:31.000Z</time>
      </trkpt>
      <trkpt lat="42.4318774044513702392578125" lon="0.56921227835118770599365234375">
        <ele>1500.800048828125</ele>
        <time>2039-05-14T09:21:33.000Z</time>
      </trkpt>
      <trkpt lat="42.43185737170279026031494140625" lon="0.5691370926797389984130859375">
        <ele>1501.5999755859375</ele>
        <time>2039-05-14T09:21:37.000Z</time>
      </trkpt>
      <trkpt lat="42.43182853795588016510009765625" lon="0.56903072632849216461181640625">
        <ele>1502.4000244140625</ele>
        <time>2039-05-14T09:21:43.000Z</time>
      </trkpt>
      <trkpt lat="42.43182434700429439544677734375" lon="0.568977333605289459228515625">
        <ele>1502.5999755859375</ele>
        <time>2039-05-14T09:21:45.000Z</time>
      </trkpt>
      <trkpt lat="42.43179635144770145416259765625" lon="0.5688946880400180816650390625">
        <ele>1503.4000244140625</ele>
        <time>2039-05-14T09:21:50.000Z</time>
      </trkpt>
      <trkpt lat="42.4317515082657337188720703125" lon="0.56881832890212535858154296875">
        <ele>1503.5999755859375</ele>
        <time>2039-05-14T09:21:55.000Z</time>
      </trkpt>
      <trkpt lat="42.431701384484767913818359375" lon="0.5687521956861019134521484375">
        <ele>1504.800048828125</ele>
        <time>2039-05-14T09:22:00.000Z</time>
      </trkpt>
      <trkpt lat="42.43156836368143558502197265625" lon="0.56859704665839672088623046875">
        <ele>1505.199951171875</ele>
        <time>2039-05-14T09:22:13.000Z</time>
      </trkpt>
      <trkpt lat="42.43151371367275714874267578125" lon="0.56850694119930267333984375">
        <ele>1505.800048828125</ele>
        <time>2039-05-14T09:22:18.000Z</time>
      </trkpt>
      <trkpt lat="42.4314608238637447357177734375" lon="0.56840040720999240875244140625">
        <ele>1506.800048828125</ele>
        <time>2039-05-14T09:22:24.000Z</time>
      </trkpt>
      <trkpt lat="42.4314608238637447357177734375" lon="0.56840040720999240875244140625">
        <ele>1507</ele>
        <time>2039-05-14T09:22:25.000Z</time>
      </trkpt>
      <trkpt lat="42.43141296319663524627685546875" lon="0.56830166839063167572021484375">
        <ele>1508.199951171875</ele>
        <time>2039-05-14T09:22:31.000Z</time>
      </trkpt>
      <trkpt lat="42.4313776753842830657958984375" lon="0.56822807528078556060791015625">
        <ele>1508.199951171875</ele>
        <time>2039-05-14T09:22:34.000Z</time>
      </trkpt>
      <trkpt lat="42.43131975643336772918701171875" lon="0.5681292526423931121826171875">
        <ele>1509.199951171875</ele>
        <time>2039-05-14T09:22:41.000Z</time>
      </trkpt>
      <trkpt lat="42.43131187744438648223876953125" lon="0.56811676360666751861572265625">
        <ele>1509.4000244140625</ele>
        <time>2039-05-14T09:22:42.000Z</time>
      </trkpt>
      <trkpt lat="42.43120978586375713348388671875" lon="0.5679988302290439605712890625">
        <ele>1510.199951171875</ele>
        <time>2039-05-14T09:22:52.000Z</time>
      </trkpt>
      <trkpt lat="42.4311956204473972320556640625" lon="0.56799606420099735260009765625">
        <ele>1510.4000244140625</ele>
        <time>2039-05-14T09:22:53.000Z</time>
      </trkpt>
      <trkpt lat="42.4311129748821258544921875" lon="0.5679805576801300048828125">
        <ele>1511.5999755859375</ele>
        <time>2039-05-14T09:23:00.000Z</time>
      </trkpt>
      <trkpt lat="42.43097190745174884796142578125" lon="0.56795096956193447113037109375">
        <ele>1512.199951171875</ele>
        <time>2039-05-14T09:23:10.000Z</time>
      </trkpt>
      <trkpt lat="42.43094055913388729095458984375" lon="0.56794946081936359405517578125">
        <ele>1512.800048828125</ele>
        <time>2039-05-14T09:23:13.000Z</time>
      </trkpt>
      <trkpt lat="42.43086143396794795989990234375" lon="0.56791417300701141357421875">
        <ele>1513.4000244140625</ele>
        <time>2039-05-14T09:23:18.000Z</time>
      </trkpt>
      <trkpt lat="42.43076403625309467315673828125" lon="0.56781032122671604156494140625">
        <ele>1513.800048828125</ele>
        <time>2039-05-14T09:23:26.000Z</time>
      </trkpt>
      <trkpt lat="42.430662028491497039794921875" lon="0.56767386384308338165283203125">
        <ele>1514</ele>
        <time>2039-05-14T09:23:35.000Z</time>
      </trkpt>
      <trkpt lat="42.430592291057109832763671875" lon="0.56754863820970058441162109375">
        <ele>1514.5999755859375</ele>
        <time>2039-05-14T09:23:43.000Z</time>
      </trkpt>
      <trkpt lat="42.43057359941303730010986328125" lon="0.5675058066844940185546875">
        <ele>1514.5999755859375</ele>
        <time>2039-05-14T09:23:44.000Z</time>
      </trkpt>
      <trkpt lat="42.43056421168148517608642578125" lon="0.567463897168636322021484375">
        <ele>1515</ele>
        <time>2039-05-14T09:23:46.000Z</time>
      </trkpt>
      <trkpt lat="42.43056421168148517608642578125" lon="0.56741653941571712493896484375">
        <ele>1514.800048828125</ele>
        <time>2039-05-14T09:23:49.000Z</time>
      </trkpt>
      <trkpt lat="42.43058231659233570098876953125" lon="0.56731562130153179168701171875">
        <ele>1515</ele>
        <time>2039-05-14T09:23:52.000Z</time>
      </trkpt>
      <trkpt lat="42.4306018464267253875732421875" lon="0.56728326715528964996337890625">
        <ele>1515.5999755859375</ele>
        <time>2039-05-14T09:23:55.000Z</time>
      </trkpt>
      <trkpt lat="42.43062288500368595123291015625" lon="0.5672461353242397308349609375">
        <ele>1516.199951171875</ele>
        <time>2039-05-14T09:23:57.000Z</time>
      </trkpt>
      <trkpt lat="42.43071206845343112945556640625" lon="0.5670892260968685150146484375">
        <ele>1517</ele>
        <time>2039-05-14T09:24:06.000Z</time>
      </trkpt>
      <trkpt lat="42.4307305924594402313232421875" lon="0.566948913037776947021484375">
        <ele>1517.199951171875</ele>
        <time>2039-05-14T09:24:12.000Z</time>
      </trkpt>
      <trkpt lat="42.4307319335639476776123046875" lon="0.566897951066493988037109375">
        <ele>1517</ele>
        <time>2039-05-14T09:24:15.000Z</time>
      </trkpt>
      <trkpt lat="42.43073084391653537750244140625" lon="0.56688395328819751739501953125">
        <ele>1517</ele>
        <time>2039-05-14T09:24:19.000Z</time>
      </trkpt>
      <trkpt lat="42.430730760097503662109375" lon="0.56688479147851467132568359375">
        <ele>1517</ele>
        <time>2039-05-14T09:24:43.000Z</time>
      </trkpt>
      <trkpt lat="42.43072983808815479278564453125" lon="0.56685729883611202239990234375">
        <ele>1516.800048828125</ele>
        <time>2039-05-14T09:25:08.000Z</time>
      </trkpt>
      <trkpt lat="42.43071055971086025238037109375" lon="0.56669385172426700592041015625">
        <ele>1516</ele>
        <time>2039-05-14T09:25:15.000Z</time>
      </trkpt>
      <trkpt lat="42.43070251308381557464599609375" lon="0.56661455892026424407958984375">
        <ele>1515.800048828125</ele>
        <time>2039-05-14T09:25:16.000Z</time>
      </trkpt>
      <trkpt lat="42.4306880123913288116455078125" lon="0.5664401315152645111083984375">
        <ele>1514.4000244140625</ele>
        <time>2039-05-14T09:25:20.000Z</time>
      </trkpt>
      <trkpt lat="42.4306880123913288116455078125" lon="0.5664401315152645111083984375">
        <ele>1514</ele>
        <time>2039-05-14T09:25:21.000Z</time>
      </trkpt>
      <trkpt lat="42.43067636154592037200927734375" lon="0.56624944321811199188232421875">
        <ele>1513.199951171875</ele>
        <time>2039-05-14T09:25:24.000Z</time>
      </trkpt>
      <trkpt lat="42.43067150004208087921142578125" lon="0.566075183451175689697265625">
        <ele>1513</ele>
        <time>2039-05-14T09:25:28.000Z</time>
      </trkpt>
      <trkpt lat="42.430655322968959808349609375" lon="0.56571098975837230682373046875">
        <ele>1512.5999755859375</ele>
        <time>2039-05-14T09:25:36.000Z</time>
      </trkpt>
      <trkpt lat="42.4306471087038516998291015625" lon="0.56561426259577274322509765625">
        <ele>1511.800048828125</ele>
        <time>2039-05-14T09:25:39.000Z</time>
      </trkpt>
      <trkpt lat="42.4305887706577777862548828125" lon="0.56541494093835353851318359375">
        <ele>1510.5999755859375</ele>
        <time>2039-05-14T09:25:42.000Z</time>
      </trkpt>
      <trkpt lat="42.43057074956595897674560546875" lon="0.56515996344387531280517578125">
        <ele>1509.4000244140625</ele>
        <time>2039-05-14T09:25:47.000Z</time>
      </trkpt>
      <trkpt lat="42.43062372319400310516357421875" lon="0.564929209649562835693359375">
        <ele>1509.5999755859375</ele>
        <time>2039-05-14T09:25:53.000Z</time>
      </trkpt>
      <trkpt lat="42.43059874512255191802978515625" lon="0.56474983692169189453125">
        <ele>1509.5999755859375</ele>
        <time>2039-05-14T09:25:58.000Z</time>
      </trkpt>
      <trkpt lat="42.4305653013288974761962890625" lon="0.56455110199749469757080078125">
        <ele>1509.4000244140625</ele>
        <time>2039-05-14T09:26:05.000Z</time>
      </trkpt>
      <trkpt lat="42.430558092892169952392578125" lon="0.5644026584923267364501953125">
        <ele>1510.199951171875</ele>
        <time>2039-05-14T09:26:11.000Z</time>
      </trkpt>
      <trkpt lat="42.43056220002472400665283203125" lon="0.56433065794408321380615234375">
        <ele>1510.800048828125</ele>
        <time>2039-05-14T09:26:14.000Z</time>
      </trkpt>
      <trkpt lat="42.4305792152881622314453125" lon="0.56422370485961437225341796875">
        <ele>1511</ele>
        <time>2039-05-14T09:26:19.000Z</time>
      </trkpt>
      <trkpt lat="42.43059522472321987152099609375" lon="0.56408355943858623504638671875">
        <ele>1512</ele>
        <time>2039-05-14T09:26:27.000Z</time>
      </trkpt>
      <trkpt lat="42.43060762993991374969482421875" lon="0.564051456749439239501953125">
        <ele>1512.199951171875</ele>
        <time>2039-05-14T09:26:28.000Z</time>
      </trkpt>
      <trkpt lat="42.43066512979567050933837890625" lon="0.564006865024566650390625">
        <ele>1512.4000244140625</ele>
        <time>2039-05-14T09:26:32.000Z</time>
      </trkpt>
      <trkpt lat="42.43066512979567050933837890625" lon="0.564006865024566650390625">
        <ele>1512.4000244140625</ele>
        <time>2039-05-14T09:26:33.000Z</time>
      </trkpt>
      <trkpt lat="42.43072816170752048492431640625" lon="0.56401382200419902801513671875">
        <ele>1513.4000244140625</ele>
        <time>2039-05-14T09:26:35.000Z</time>
      </trkpt>
      <trkpt lat="42.43075632490217685699462890625" lon="0.5640445835888385772705078125">
        <ele>1514.199951171875</ele>
        <time>2039-05-14T09:26:37.000Z</time>
      </trkpt>
      <trkpt lat="42.430761270225048065185546875" lon="0.56406612507998943328857421875">
        <ele>1514.4000244140625</ele>
        <time>2039-05-14T09:26:38.000Z</time>
      </trkpt>
      <trkpt lat="42.43080921471118927001953125" lon="0.56417726911604404449462890625">
        <ele>1515.4000244140625</ele>
        <time>2039-05-14T09:26:44.000Z</time>
      </trkpt>
      <trkpt lat="42.43083628825843334197998046875" lon="0.56419931352138519287109375">
        <ele>1515.4000244140625</ele>
        <time>2039-05-14T09:26:46.000Z</time>
      </trkpt>
      <trkpt lat="42.43090443313121795654296875" lon="0.5642336793243885040283203125">
        <ele>1516.4000244140625</ele>
        <time>2039-05-14T09:26:52.000Z</time>
      </trkpt>
      <trkpt lat="42.43091558106243610382080078125" lon="0.56423795409500598907470703125">
        <ele>1516.4000244140625</ele>
        <time>2039-05-14T09:26:53.000Z</time>
      </trkpt>
      <trkpt lat="42.43098163045942783355712890625" lon="0.5642605014145374298095703125">
        <ele>1517</ele>
        <time>2039-05-14T09:26:59.000Z</time>
      </trkpt>
      <trkpt lat="42.43108816444873809814453125" lon="0.56425857357680797576904296875">
        <ele>1517.4000244140625</ele>
        <time>2039-05-14T09:27:05.000Z</time>
      </trkpt>
      <trkpt lat="42.43114055134356021881103515625" lon="0.564264021813869476318359375">
        <ele>1517.800048828125</ele>
        <time>2039-05-14T09:27:09.000Z</time>
      </trkpt>
      <trkpt lat="42.43123359046876430511474609375" lon="0.56437793187797069549560546875">
        <ele>1518.199951171875</ele>
        <time>2039-05-14T09:27:17.000Z</time>
      </trkpt>
      <trkpt lat="42.43125320412218570709228515625" lon="0.56440743617713451385498046875">
        <ele>1518.5999755859375</ele>
        <time>2039-05-14T09:27:19.000Z</time>
      </trkpt>
      <trkpt lat="42.4313525296747684478759765625" lon="0.56450416333973407745361328125">
        <ele>1519.199951171875</ele>
        <time>2039-05-14T09:27:27.000Z</time>
      </trkpt>
      <trkpt lat="42.43139770813286304473876953125" lon="0.5645622499287128448486328125">
        <ele>1519.5999755859375</ele>
        <time>2039-05-14T09:27:31.000Z</time>
      </trkpt>
      <trkpt lat="42.4314568005502223968505859375" lon="0.56463710032403469085693359375">
        <ele>1520</ele>
        <time>2039-05-14T09:27:37.000Z</time>
      </trkpt>
      <trkpt lat="42.43150499649345874786376953125" lon="0.56467800401151180267333984375">
        <ele>1520.5999755859375</ele>
        <time>2039-05-14T09:27:41.000Z</time>
      </trkpt>
      <trkpt lat="42.43154724128544330596923828125" lon="0.5646896548569202423095703125">
        <ele>1520.4000244140625</ele>
        <time>2039-05-14T09:27:44.000Z</time>
      </trkpt>
      <trkpt lat="42.43156962096691131591796875" lon="0.56469677947461605072021484375">
        <ele>1520.5999755859375</ele>
        <time>2039-05-14T09:27:46.000Z</time>
      </trkpt>
      <trkpt lat="42.43159300647675991058349609375" lon="0.5646836198866367340087890625">
        <ele>1520.800048828125</ele>
        <time>2039-05-14T09:27:49.000Z</time>
      </trkpt>
      <trkpt lat="42.43169836699962615966796875" lon="0.564607679843902587890625">
        <ele>1521.199951171875</ele>
        <time>2039-05-14T09:27:57.000Z</time>
      </trkpt>
      <trkpt lat="42.4317173101007938385009765625" lon="0.5645860545337200164794921875">
        <ele>1521.199951171875</ele>
        <time>2039-05-14T09:27:58.000Z</time>
      </trkpt>
      <trkpt lat="42.43175276555120944976806640625" lon="0.56453282944858074188232421875">
        <ele>1521.199951171875</ele>
        <time>2039-05-14T09:28:02.000Z</time>
      </trkpt>
      <trkpt lat="42.431842200458049774169921875" lon="0.5644051730632781982421875">
        <ele>1521.199951171875</ele>
        <time>2039-05-14T09:28:11.000Z</time>
      </trkpt>
      <trkpt lat="42.43184479884803295135498046875" lon="0.56440022774040699005126953125">
        <ele>1521.800048828125</ele>
        <time>2039-05-14T09:28:15.000Z</time>
      </trkpt>
      <trkpt lat="42.43184186518192291259765625" lon="0.564398132264614105224609375">
        <ele>1521.800048828125</ele>
        <time>2039-05-14T09:28:16.000Z</time>
      </trkpt>
      <trkpt lat="42.431840188801288604736328125" lon="0.56439821608364582061767578125">
        <ele>1521.5999755859375</ele>
        <time>2039-05-14T09:28:26.000Z</time>
      </trkpt>
      <trkpt lat="42.43184178136289119720458984375" lon="0.56439771316945552825927734375">
        <ele>1521.800048828125</ele>
        <time>2039-05-14T09:28:59.000Z</time>
      </trkpt>
      <trkpt lat="42.431842200458049774169921875" lon="0.56439821608364582061767578125">
        <ele>1521.800048828125</ele>
        <time>2039-05-14T09:29:27.000Z</time>
      </trkpt>
      <trkpt lat="42.43187363259494304656982421875" lon="0.56434038095176219940185546875">
        <ele>1521.800048828125</ele>
        <time>2039-05-14T09:29:33.000Z</time>
      </trkpt>
      <trkpt lat="42.43194420821964740753173828125" lon="0.5642149038612842559814453125">
        <ele>1521.5999755859375</ele>
        <time>2039-05-14T09:29:40.000Z</time>
      </trkpt>
      <trkpt lat="42.43199818767607212066650390625" lon="0.56408959440886974334716796875">
        <ele>1522.5999755859375</ele>
        <time>2039-05-14T09:29:48.000Z</time>
      </trkpt>
      <trkpt lat="42.4320209026336669921875" lon="0.5640315078198909759521484375">
        <ele>1522.800048828125</ele>
        <time>2039-05-14T09:29:52.000Z</time>
      </trkpt>
      <trkpt lat="42.43203070946037769317626953125" lon="0.56400409899652004241943359375">
        <ele>1523</ele>
        <time>2039-05-14T09:29:55.000Z</time>
      </trkpt>
      <trkpt lat="42.432052083313465118408203125" lon="0.5638739280402660369873046875">
        <ele>1523.199951171875</ele>
        <time>2039-05-14T09:30:02.000Z</time>
      </trkpt>
      <trkpt lat="42.43206222541630268096923828125" lon="0.563797317445278167724609375">
        <ele>1523.5999755859375</ele>
        <time>2039-05-14T09:30:07.000Z</time>
      </trkpt>
      <trkpt lat="42.432078905403614044189453125" lon="0.56370913982391357421875">
        <ele>1523.800048828125</ele>
        <time>2039-05-14T09:30:11.000Z</time>
      </trkpt>
      <trkpt lat="42.43207831867039203643798828125" lon="0.5635879375040531158447265625">
        <ele>1524.5999755859375</ele>
        <time>2039-05-14T09:30:17.000Z</time>
      </trkpt>
      <trkpt lat="42.43207119405269622802734375" lon="0.56352934800088405609130859375">
        <ele>1524.800048828125</ele>
        <time>2039-05-14T09:30:20.000Z</time>
      </trkpt>
      <trkpt lat="42.432066500186920166015625" lon="0.56334729306399822235107421875">
        <ele>1525.4000244140625</ele>
        <time>2039-05-14T09:30:29.000Z</time>
      </trkpt>
      <trkpt lat="42.4320629797875881195068359375" lon="0.56329163722693920135498046875">
        <ele>1525.5999755859375</ele>
        <time>2039-05-14T09:30:33.000Z</time>
      </trkpt>
      <trkpt lat="42.4320519156754016876220703125" lon="0.56321938522160053253173828125">
        <ele>1526</ele>
        <time>2039-05-14T09:30:36.000Z</time>
      </trkpt>
      <trkpt lat="42.432029284536838531494140625" lon="0.56311905384063720703125">
        <ele>1525.800048828125</ele>
        <time>2039-05-14T09:30:43.000Z</time>
      </trkpt>
      <trkpt lat="42.43200589902698993682861328125" lon="0.5629670061171054840087890625">
        <ele>1526</ele>
        <time>2039-05-14T09:30:51.000Z</time>
      </trkpt>
      <trkpt lat="42.43199634365737438201904296875" lon="0.5628027208149433135986328125">
        <ele>1526.800048828125</ele>
        <time>2039-05-14T09:30:58.000Z</time>
      </trkpt>
      <trkpt lat="42.43199382908642292022705078125" lon="0.5627839453518390655517578125">
        <ele>1526.800048828125</ele>
        <time>2039-05-14T09:30:59.000Z</time>
      </trkpt>
      <trkpt lat="42.43198444135487079620361328125" lon="0.5626510083675384521484375">
        <ele>1527</ele>
        <time>2039-05-14T09:31:05.000Z</time>
      </trkpt>
      <trkpt lat="42.4319892190396785736083984375" lon="0.56260474026203155517578125">
        <ele>1527.199951171875</ele>
        <time>2039-05-14T09:31:07.000Z</time>
      </trkpt>
      <trkpt lat="42.43197170086205005645751953125" lon="0.56239879690110683441162109375">
        <ele>1528</ele>
        <time>2039-05-14T09:31:15.000Z</time>
      </trkpt>
      <trkpt lat="42.431973628699779510498046875" lon="0.56235386990010738372802734375">
        <ele>1528.4000244140625</ele>
        <time>2039-05-14T09:31:17.000Z</time>
      </trkpt>
      <trkpt lat="42.4319818429648876190185546875" lon="0.56220919825136661529541015625">
        <ele>1529.199951171875</ele>
        <time>2039-05-14T09:31:23.000Z</time>
      </trkpt>
      <trkpt lat="42.4320007860660552978515625" lon="0.56215681135654449462890625">
        <ele>1529.199951171875</ele>
        <time>2039-05-14T09:31:26.000Z</time>
      </trkpt>
      <trkpt lat="42.43202685378491878509521484375" lon="0.5620047636330127716064453125">
        <ele>1530.199951171875</ele>
        <time>2039-05-14T09:31:34.000Z</time>
      </trkpt>
      <trkpt lat="42.43203339166939258575439453125" lon="0.56198691017925739288330078125">
        <ele>1530.4000244140625</ele>
        <time>2039-05-14T09:31:35.000Z</time>
      </trkpt>
      <trkpt lat="42.43208150379359722137451171875" lon="0.561826564371585845947265625">
        <ele>1531.199951171875</ele>
        <time>2039-05-14T09:31:44.000Z</time>
      </trkpt>
      <trkpt lat="42.43209089152514934539794921875" lon="0.5617927014827728271484375">
        <ele>1531.5999755859375</ele>
        <time>2039-05-14T09:31:46.000Z</time>
      </trkpt>
      <trkpt lat="42.4321186356246471405029296875" lon="0.56167669594287872314453125">
        <ele>1532.4000244140625</ele>
        <time>2039-05-14T09:31:52.000Z</time>
      </trkpt>
      <trkpt lat="42.43213866837322711944580078125" lon="0.56161944754421710968017578125">
        <ele>1532.5999755859375</ele>
        <time>2039-05-14T09:31:55.000Z</time>
      </trkpt>
      <trkpt lat="42.43216197006404399871826171875" lon="0.5615075491368770599365234375">
        <ele>1533</ele>
        <time>2039-05-14T09:32:01.000Z</time>
      </trkpt>
      <trkpt lat="42.43217772804200649261474609375" lon="0.56141409091651439666748046875">
        <ele>1533.800048828125</ele>
        <time>2039-05-14T09:32:06.000Z</time>
      </trkpt>
      <trkpt lat="42.43218091316521167755126953125" lon="0.5613774619996547698974609375">
        <ele>1534</ele>
        <time>2039-05-14T09:32:08.000Z</time>
      </trkpt>
      <trkpt lat="42.4322165362536907196044921875" lon="0.56119230575859546661376953125">
        <ele>1534.5999755859375</ele>
        <time>2039-05-14T09:32:18.000Z</time>
      </trkpt>
      <trkpt lat="42.43222366087138652801513671875" lon="0.56115693412721157073974609375">
        <ele>1534.800048828125</ele>
        <time>2039-05-14T09:32:20.000Z</time>
      </trkpt>
      <trkpt lat="42.432238496840000152587890625" lon="0.561038665473461151123046875">
        <ele>1535.199951171875</ele>
        <time>2039-05-14T09:32:27.000Z</time>
      </trkpt>
      <trkpt lat="42.43225852958858013153076171875" lon="0.56096130050718784332275390625">
        <ele>1535.800048828125</ele>
        <time>2039-05-14T09:32:30.000Z</time>
      </trkpt>
      <trkpt lat="42.43228518404066562652587890625" lon="0.56086256168782711029052734375">
        <ele>1537</ele>
        <time>2039-05-14T09:32:35.000Z</time>
      </trkpt>
      <trkpt lat="42.43232709355652332305908203125" lon="0.56072643958032131195068359375">
        <ele>1537.4000244140625</ele>
        <time>2039-05-14T09:32:42.000Z</time>
      </trkpt>
      <trkpt lat="42.43234737776219844818115234375" lon="0.56063625030219554901123046875">
        <ele>1538</ele>
        <time>2039-05-14T09:32:47.000Z</time>
      </trkpt>
      <trkpt lat="42.43235223926603794097900390625" lon="0.56061479263007640838623046875">
        <ele>1538.4000244140625</ele>
        <time>2039-05-14T09:32:49.000Z</time>
      </trkpt>
      <trkpt lat="42.43236414156854152679443359375" lon="0.5605204962193965911865234375">
        <ele>1539</ele>
        <time>2039-05-14T09:32:53.000Z</time>
      </trkpt>
      <trkpt lat="42.4323816597461700439453125" lon="0.56047062389552593231201171875">
        <ele>1539.4000244140625</ele>
        <time>2039-05-14T09:32:56.000Z</time>
      </trkpt>
      <trkpt lat="42.4323999322950839996337890625" lon="0.5604140460491180419921875">
        <ele>1540.199951171875</ele>
        <time>2039-05-14T09:32:59.000Z</time>
      </trkpt>
      <trkpt lat="42.4324272572994232177734375" lon="0.56029343046247959136962890625">
        <ele>1540.4000244140625</ele>
        <time>2039-05-14T09:33:05.000Z</time>
      </trkpt>
      <trkpt lat="42.43246145546436309814453125" lon="0.56016661226749420166015625">
        <ele>1541.5999755859375</ele>
        <time>2039-05-14T09:33:12.000Z</time>
      </trkpt>
      <trkpt lat="42.4324659816920757293701171875" lon="0.56014917790889739990234375">
        <ele>1541.800048828125</ele>
        <time>2039-05-14T09:33:13.000Z</time>
      </trkpt>
      <trkpt lat="42.43248961865901947021484375" lon="0.5600822903215885162353515625">
        <ele>1542.5999755859375</ele>
        <time>2039-05-14T09:33:17.000Z</time>
      </trkpt>
      <trkpt lat="42.4325052089989185333251953125" lon="0.56001129560172557830810546875">
        <ele>1543.4000244140625</ele>
        <time>2039-05-14T09:33:21.000Z</time>
      </trkpt>
      <trkpt lat="42.43252406828105449676513671875" lon="0.559983551502227783203125">
        <ele>1543.800048828125</ele>
        <time>2039-05-14T09:33:23.000Z</time>
      </trkpt>
      <trkpt lat="42.432589195668697357177734375" lon="0.55992663837969303131103515625">
        <ele>1543.800048828125</ele>
        <time>2039-05-14T09:33:28.000Z</time>
      </trkpt>
      <trkpt lat="42.4326664768159389495849609375" lon="0.55997676216065883636474609375">
        <ele>1543.800048828125</ele>
        <time>2039-05-14T09:33:33.000Z</time>
      </trkpt>
      <trkpt lat="42.43272372521460056304931640625" lon="0.56012378074228763580322265625">
        <ele>1544.4000244140625</ele>
        <time>2039-05-14T09:33:40.000Z</time>
      </trkpt>
      <trkpt lat="42.43273378349840641021728515625" lon="0.5601439811289310455322265625">
        <ele>1544.5999755859375</ele>
        <time>2039-05-14T09:33:41.000Z</time>
      </trkpt>
      <trkpt lat="42.432823888957500457763671875" lon="0.56025135330855846405029296875">
        <ele>1545.199951171875</ele>
        <time>2039-05-14T09:33:48.000Z</time>
      </trkpt>
      <trkpt lat="42.43287962861359119415283203125" lon="0.56028597056865692138671875">
        <ele>1545.800048828125</ele>
        <time>2039-05-14T09:33:52.000Z</time>
      </trkpt>
      <trkpt lat="42.432932518422603607177734375" lon="0.560295693576335906982421875">
        <ele>1546.4000244140625</ele>
        <time>2039-05-14T09:33:56.000Z</time>
      </trkpt>
      <trkpt lat="42.43301005102694034576416015625" lon="0.56024305522441864013671875">
        <ele>1546.800048828125</ele>
        <time>2039-05-14T09:34:02.000Z</time>
      </trkpt>
      <trkpt lat="42.433053553104400634765625" lon="0.56015915237367153167724609375">
        <ele>1547.800048828125</ele>
        <time>2039-05-14T09:34:07.000Z</time>
      </trkpt>
      <trkpt lat="42.4330718256533145904541015625" lon="0.56010131724178791046142578125">
        <ele>1548.4000244140625</ele>
        <time>2039-05-14T09:34:10.000Z</time>
      </trkpt>
      <trkpt lat="42.43307794444262981414794921875" lon="0.560066699981689453125">
        <ele>1549</ele>
        <time>2039-05-14T09:34:12.000Z</time>
      </trkpt>
      <trkpt lat="42.4330828897655010223388671875" lon="0.56004851125180721282958984375">
        <ele>1549.199951171875</ele>
        <time>2039-05-14T09:34:13.000Z</time>
      </trkpt>
      <trkpt lat="42.43309420533478260040283203125" lon="0.55999520234763622283935546875">
        <ele>1549.199951171875</ele>
        <time>2039-05-14T09:34:16.000Z</time>
      </trkpt>
      <trkpt lat="42.43310392834246158599853515625" lon="0.55987894535064697265625">
        <ele>1550</ele>
        <time>2039-05-14T09:34:22.000Z</time>
      </trkpt>
      <trkpt lat="42.4331073649227619171142578125" lon="0.559861175715923309326171875">
        <ele>1550.199951171875</ele>
        <time>2039-05-14T09:34:23.000Z</time>
      </trkpt>
      <trkpt lat="42.43310091085731983184814453125" lon="0.55972874164581298828125">
        <ele>1551.199951171875</ele>
        <time>2039-05-14T09:34:30.000Z</time>
      </trkpt>
      <trkpt lat="42.43307928554713726043701171875" lon="0.55957518517971038818359375">
        <ele>1552.199951171875</ele>
        <time>2039-05-14T09:34:38.000Z</time>
      </trkpt>
      <trkpt lat="42.43308163248002529144287109375" lon="0.55955632589757442474365234375">
        <ele>1552.4000244140625</ele>
        <time>2039-05-14T09:34:39.000Z</time>
      </trkpt>
      <trkpt lat="42.43312387727200984954833984375" lon="0.55942037142813205718994140625">
        <ele>1553.4000244140625</ele>
        <time>2039-05-14T09:34:46.000Z</time>
      </trkpt>
      <trkpt lat="42.43313561193645000457763671875" lon="0.559406541287899017333984375">
        <ele>1553.4000244140625</ele>
        <time>2039-05-14T09:34:47.000Z</time>
      </trkpt>
      <trkpt lat="42.4332024157047271728515625" lon="0.5593359656631946563720703125">
        <ele>1554.4000244140625</ele>
        <time>2039-05-14T09:34:53.000Z</time>
      </trkpt>
      <trkpt lat="42.43322999216616153717041015625" lon="0.55932884104549884796142578125">
        <ele>1554.199951171875</ele>
        <time>2039-05-14T09:34:55.000Z</time>
      </trkpt>
      <trkpt lat="42.4332813732326030731201171875" lon="0.55934778414666652679443359375">
        <ele>1554.4000244140625</ele>
        <time>2039-05-14T09:34:58.000Z</time>
      </trkpt>
      <trkpt lat="42.43329838849604129791259765625" lon="0.55936102755367755889892578125">
        <ele>1554.4000244140625</ele>
        <time>2039-05-14T09:34:59.000Z</time>
      </trkpt>
      <trkpt lat="42.43331414647400379180908203125" lon="0.55937427096068859100341796875">
        <ele>1554.5999755859375</ele>
        <time>2039-05-14T09:35:00.000Z</time>
      </trkpt>
      <trkpt lat="42.433352284133434295654296875" lon="0.55940276943147182464599609375">
        <ele>1555</ele>
        <time>2039-05-14T09:35:03.000Z</time>
      </trkpt>
      <trkpt lat="42.4333809502422809600830078125" lon="0.55940645746886730194091796875">
        <ele>1555.199951171875</ele>
        <time>2039-05-14T09:35:05.000Z</time>
      </trkpt>
      <trkpt lat="42.43341104127466678619384765625" lon="0.55942053906619548797607421875">
        <ele>1555.4000244140625</ele>
        <time>2039-05-14T09:35:07.000Z</time>
      </trkpt>
      <trkpt lat="42.4334258772432804107666015625" lon="0.55942900478839874267578125">
        <ele>1555.4000244140625</ele>
        <time>2039-05-14T09:35:08.000Z</time>
      </trkpt>
      <trkpt lat="42.4334969557821750640869140625" lon="0.55945322848856449127197265625">
        <ele>1555.4000244140625</ele>
        <time>2039-05-14T09:35:13.000Z</time>
      </trkpt>
      <trkpt lat="42.43359209038317203521728515625" lon="0.5594704113900661468505859375">
        <ele>1556.199951171875</ele>
        <time>2039-05-14T09:35:20.000Z</time>
      </trkpt>
      <trkpt lat="42.4336213432252407073974609375" lon="0.5594781227409839630126953125">
        <ele>1556.5999755859375</ele>
        <time>2039-05-14T09:35:22.000Z</time>
      </trkpt>
      <trkpt lat="42.4337068386375904083251953125" lon="0.5594962276518344879150390625">
        <ele>1557.4000244140625</ele>
        <time>2039-05-14T09:35:28.000Z</time>
      </trkpt>
      <trkpt lat="42.433734498918056488037109375" lon="0.55950016714632511138916015625">
        <ele>1557.800048828125</ele>
        <time>2039-05-14T09:35:30.000Z</time>
      </trkpt>
      <trkpt lat="42.43383231572806835174560546875" lon="0.5595347844064235687255859375">
        <ele>1558.5999755859375</ele>
        <time>2039-05-14T09:35:37.000Z</time>
      </trkpt>
      <trkpt lat="42.4338459782302379608154296875" lon="0.5595450103282928466796875">
        <ele>1558.800048828125</ele>
        <time>2039-05-14T09:35:38.000Z</time>
      </trkpt>
      <trkpt lat="42.433894760906696319580078125" lon="0.55957493372261524200439453125">
        <ele>1559</ele>
        <time>2039-05-14T09:35:41.000Z</time>
      </trkpt>
      <trkpt lat="42.4339240975677967071533203125" lon="0.55958633311092853546142578125">
        <ele>1559.4000244140625</ele>
        <time>2039-05-14T09:35:43.000Z</time>
      </trkpt>
      <trkpt lat="42.43395485915243625640869140625" lon="0.5595897696912288665771484375">
        <ele>1560</ele>
        <time>2039-05-14T09:35:45.000Z</time>
      </trkpt>
      <trkpt lat="42.4340407736599445343017578125" lon="0.5596145801246166229248046875">
        <ele>1561</ele>
        <time>2039-05-14T09:35:50.000Z</time>
      </trkpt>
      <trkpt lat="42.4340561963617801666259765625" lon="0.5596212856471538543701171875">
        <ele>1561</ele>
        <time>2039-05-14T09:35:51.000Z</time>
      </trkpt>
      <trkpt lat="42.434158287942409515380859375" lon="0.55962706916034221649169921875">
        <ele>1561.5999755859375</ele>
        <time>2039-05-14T09:35:58.000Z</time>
      </trkpt>
      <trkpt lat="42.434185780584812164306640625" lon="0.559633187949657440185546875">
        <ele>1561.800048828125</ele>
        <time>2039-05-14T09:36:00.000Z</time>
      </trkpt>
      <trkpt lat="42.43425442837178707122802734375" lon="0.55965120904147624969482421875">
        <ele>1562.5999755859375</ele>
        <time>2039-05-14T09:36:05.000Z</time>
      </trkpt>
      <trkpt lat="42.4342967569828033447265625" lon="0.55966881103813648223876953125">
        <ele>1563</ele>
        <time>2039-05-14T09:36:08.000Z</time>
      </trkpt>
      <trkpt lat="42.43436540476977825164794921875" lon="0.5596863292157649993896484375">
        <ele>1564</ele>
        <time>2039-05-14T09:36:13.000Z</time>
      </trkpt>
      <trkpt lat="42.43438057601451873779296875" lon="0.5596871674060821533203125">
        <ele>1564.199951171875</ele>
        <time>2039-05-14T09:36:14.000Z</time>
      </trkpt>
      <trkpt lat="42.4344712682068347930908203125" lon="0.55971859954297542572021484375">
        <ele>1564.5999755859375</ele>
        <time>2039-05-14T09:36:20.000Z</time>
      </trkpt>
      <trkpt lat="42.434539161622524261474609375" lon="0.55972270667552947998046875">
        <ele>1565.199951171875</ele>
        <time>2039-05-14T09:36:24.000Z</time>
      </trkpt>
      <trkpt lat="42.434546537697315216064453125" lon="0.55972404778003692626953125">
        <ele>1565.5999755859375</ele>
        <time>2039-05-14T09:36:25.000Z</time>
      </trkpt>
      <trkpt lat="42.434545196592807769775390625" lon="0.559718348085880279541015625">
        <ele>1566</ele>
        <time>2039-05-14T09:36:34.000Z</time>
      </trkpt>
      <trkpt lat="42.43454477749764919281005859375" lon="0.5597178451716899871826171875">
        <ele>1566.199951171875</ele>
        <time>2039-05-14T09:36:36.000Z</time>
      </trkpt>
      <trkpt lat="42.43454662151634693145751953125" lon="0.5597195215523242950439453125">
        <ele>1566.199951171875</ele>
        <time>2039-05-14T09:36:53.000Z</time>
      </trkpt>
      <trkpt lat="42.43459154851734638214111328125" lon="0.55972698144614696502685546875">
        <ele>1566</ele>
        <time>2039-05-14T09:37:01.000Z</time>
      </trkpt>
      <trkpt lat="42.434622980654239654541015625" lon="0.55973477661609649658203125">
        <ele>1566.199951171875</ele>
        <time>2039-05-14T09:37:05.000Z</time>
      </trkpt>
      <trkpt lat="42.4346586875617504119873046875" lon="0.55975061841309070587158203125">
        <ele>1566.5999755859375</ele>
        <time>2039-05-14T09:37:09.000Z</time>
      </trkpt>
      <trkpt lat="42.43473890237510204315185546875" lon="0.55977442301809787750244140625">
        <ele>1567</ele>
        <time>2039-05-14T09:37:18.000Z</time>
      </trkpt>
      <trkpt lat="42.4347485415637493133544921875" lon="0.5597768537700176239013671875">
        <ele>1567.199951171875</ele>
        <time>2039-05-14T09:37:19.000Z</time>
      </trkpt>
      <trkpt lat="42.4348048679530620574951171875" lon="0.55978816933929920196533203125">
        <ele>1568</ele>
        <time>2039-05-14T09:37:25.000Z</time>
      </trkpt>
      <trkpt lat="42.434819452464580535888671875" lon="0.559796802699565887451171875">
        <ele>1568.4000244140625</ele>
        <time>2039-05-14T09:37:27.000Z</time>
      </trkpt>
      <trkpt lat="42.43486563675105571746826171875" lon="0.55982605554163455963134765625">
        <ele>1568.5999755859375</ele>
        <time>2039-05-14T09:37:33.000Z</time>
      </trkpt>
      <trkpt lat="42.43488776497542858123779296875" lon="0.559841059148311614990234375">
        <ele>1569.199951171875</ele>
        <time>2039-05-14T09:37:36.000Z</time>
      </trkpt>
      <trkpt lat="42.4349056184291839599609375" lon="0.559862516820430755615234375">
        <ele>1569.4000244140625</ele>
        <time>2039-05-14T09:37:39.000Z</time>
      </trkpt>
      <trkpt lat="42.4349111504852771759033203125" lon="0.55986628867685794830322265625">
        <ele>1569.4000244140625</ele>
        <time>2039-05-14T09:37:40.000Z</time>
      </trkpt>
      <trkpt lat="42.43496806360781192779541015625" lon="0.559904091060161590576171875">
        <ele>1570.4000244140625</ele>
        <time>2039-05-14T09:37:48.000Z</time>
      </trkpt>
      <trkpt lat="42.43497510440647602081298828125" lon="0.55991037748754024505615234375">
        <ele>1570.4000244140625</ele>
        <time>2039-05-14T09:37:49.000Z</time>
      </trkpt>
      <trkpt lat="42.43500477634370326995849609375" lon="0.55993326008319854736328125">
        <ele>1570.800048828125</ele>
        <time>2039-05-14T09:37:53.000Z</time>
      </trkpt>
      <trkpt lat="42.4350177682936191558837890625" lon="0.55994725786149501800537109375">
        <ele>1571</ele>
        <time>2039-05-14T09:37:55.000Z</time>
      </trkpt>
      <trkpt lat="42.43505842052400112152099609375" lon="0.55999226868152618408203125">
        <ele>1571.4000244140625</ele>
        <time>2039-05-14T09:38:02.000Z</time>
      </trkpt>
      <trkpt lat="42.43507132865488529205322265625" lon="0.56000475771725177764892578125">
        <ele>1571.800048828125</ele>
        <time>2039-05-14T09:38:04.000Z</time>
      </trkpt>
      <trkpt lat="42.4351029284298419952392578125" lon="0.56002688594162464141845703125">
        <ele>1572</ele>
        <time>2039-05-14T09:38:09.000Z</time>
      </trkpt>
      <trkpt lat="42.4351113103330135345458984375" lon="0.56003157980740070343017578125">
        <ele>1572</ele>
        <time>2039-05-14T09:38:10.000Z</time>
      </trkpt>
      <trkpt lat="42.43514844216406345367431640625" lon="0.56007131002843379974365234375">
        <ele>1572.4000244140625</ele>
        <time>2039-05-14T09:38:15.000Z</time>
      </trkpt>
      <trkpt lat="42.43517727591097354888916015625" lon="0.5601000599563121795654296875">
        <ele>1572.800048828125</ele>
        <time>2039-05-14T09:38:19.000Z</time>
      </trkpt>
      <trkpt lat="42.43521616794168949127197265625" lon="0.56015797890722751617431640625">
        <ele>1573.4000244140625</ele>
        <time>2039-05-14T09:38:26.000Z</time>
      </trkpt>
      <trkpt lat="42.43522186763584613800048828125" lon="0.5601620860397815704345703125">
        <ele>1573.5999755859375</ele>
        <time>2039-05-14T09:38:27.000Z</time>
      </trkpt>
      <trkpt lat="42.43528154678642749786376953125" lon="0.5602009780704975128173828125">
        <ele>1574</ele>
        <time>2039-05-14T09:38:35.000Z</time>
      </trkpt>
      <trkpt lat="42.43531608022749423980712890625" lon="0.5602128803730010986328125">
        <ele>1574.4000244140625</ele>
        <time>2039-05-14T09:38:39.000Z</time>
      </trkpt>
      <trkpt lat="42.4353503622114658355712890625" lon="0.56020424701273441314697265625">
        <ele>1574.5999755859375</ele>
        <time>2039-05-14T09:38:43.000Z</time>
      </trkpt>
      <trkpt lat="42.4353627674281597137451171875" lon="0.56020139716565608978271484375">
        <ele>1574.5999755859375</ele>
        <time>2039-05-14T09:38:46.000Z</time>
      </trkpt>
      <trkpt lat="42.43537374772131443023681640625" lon="0.56018278934061527252197265625">
        <ele>1574.800048828125</ele>
        <time>2039-05-14T09:43:27.000Z</time>
      </trkpt>
      <trkpt lat="42.43537978269159793853759765625" lon="0.56017935276031494140625">
        <ele>1575</ele>
        <time>2039-05-14T09:43:30.000Z</time>
      </trkpt>
      <trkpt lat="42.43538497947156429290771484375" lon="0.560170970857143402099609375">
        <ele>1574.800048828125</ele>
        <time>2039-05-14T09:43:31.000Z</time>
      </trkpt>
      <trkpt lat="42.43544314987957477569580078125" lon="0.56013769470155239105224609375">
        <ele>1574.5999755859375</ele>
        <time>2039-05-14T09:43:35.000Z</time>
      </trkpt>
      <trkpt lat="42.43558815680444240570068359375" lon="0.560000650584697723388671875">
        <ele>1574.4000244140625</ele>
        <time>2039-05-14T09:43:42.000Z</time>
      </trkpt>
      <trkpt lat="42.43563719093799591064453125" lon="0.55987299419939517974853515625">
        <ele>1573.4000244140625</ele>
        <time>2039-05-14T09:43:46.000Z</time>
      </trkpt>
      <trkpt lat="42.435645572841167449951171875" lon="0.559812895953655242919921875">
        <ele>1572.5999755859375</ele>
        <time>2039-05-14T09:43:48.000Z</time>
      </trkpt>
      <trkpt lat="42.4356474168598651885986328125" lon="0.55976134724915027618408203125">
        <ele>1572.199951171875</ele>
        <time>2039-05-14T09:43:50.000Z</time>
      </trkpt>
      <trkpt lat="42.43566845543682575225830078125" lon="0.55964752100408077239990234375">
        <ele>1571.199951171875</ele>
        <time>2039-05-14T09:43:55.000Z</time>
      </trkpt>
      <trkpt lat="42.43567868135869503021240234375" lon="0.5596340261399745941162109375">
        <ele>1571.199951171875</ele>
        <time>2039-05-14T09:43:56.000Z</time>
      </trkpt>
      <trkpt lat="42.43569058366119861602783203125" lon="0.5596199445426464080810546875">
        <ele>1571.199951171875</ele>
        <time>2039-05-14T09:43:57.000Z</time>
      </trkpt>
      <trkpt lat="42.43572947569191455841064453125" lon="0.5595911107957363128662109375">
        <ele>1570.4000244140625</ele>
        <time>2039-05-14T09:44:00.000Z</time>
      </trkpt>
      <trkpt lat="42.435763590037822723388671875" lon="0.55960795842111110687255859375">
        <ele>1570</ele>
        <time>2039-05-14T09:44:02.000Z</time>
      </trkpt>
      <trkpt lat="42.435823269188404083251953125" lon="0.5596558190882205963134765625">
        <ele>1569.4000244140625</ele>
        <time>2039-05-14T09:44:05.000Z</time>
      </trkpt>
      <trkpt lat="42.43586123920977115631103515625" lon="0.5597044341266155242919921875">
        <ele>1568.800048828125</ele>
        <time>2039-05-14T09:44:07.000Z</time>
      </trkpt>
      <trkpt lat="42.435924522578716278076171875" lon="0.55981985293328762054443359375">
        <ele>1567.5999755859375</ele>
        <time>2039-05-14T09:44:11.000Z</time>
      </trkpt>
      <trkpt lat="42.43599669076502323150634765625" lon="0.559937953948974609375">
        <ele>1566.4000244140625</ele>
        <time>2039-05-14T09:44:16.000Z</time>
      </trkpt>
      <trkpt lat="42.4360651709139347076416015625" lon="0.5600440688431262969970703125">
        <ele>1565.199951171875</ele>
        <time>2039-05-14T09:44:20.000Z</time>
      </trkpt>
      <trkpt lat="42.4360819347202777862548828125" lon="0.5600715614855289459228515625">
        <ele>1564.800048828125</ele>
        <time>2039-05-14T09:44:21.000Z</time>
      </trkpt>
      <trkpt lat="42.43611688725650310516357421875" lon="0.56013769470155239105224609375">
        <ele>1564.4000244140625</ele>
        <time>2039-05-14T09:44:25.000Z</time>
      </trkpt>
      <trkpt lat="42.43612007237970829010009765625" lon="0.56013903580605983734130859375">
        <ele>1564.199951171875</ele>
        <time>2039-05-14T09:44:26.000Z</time>
      </trkpt>
      <trkpt lat="42.43612526915967464447021484375" lon="0.560170300304889678955078125">
        <ele>1563.4000244140625</ele>
        <time>2039-05-14T09:44:35.000Z</time>
      </trkpt>
      <trkpt lat="42.4361369200050830841064453125" lon="0.5602013133466243743896484375">
        <ele>1563</ele>
        <time>2039-05-14T09:44:38.000Z</time>
      </trkpt>
      <trkpt lat="42.43615276180207729339599609375" lon="0.56023769080638885498046875">
        <ele>1563</ele>
        <time>2039-05-14T09:44:41.000Z</time>
      </trkpt>
      <trkpt lat="42.43621227331459522247314453125" lon="0.5603349208831787109375">
        <ele>1562.4000244140625</ele>
        <time>2039-05-14T09:44:48.000Z</time>
      </trkpt>
      <trkpt lat="42.436232306063175201416015625" lon="0.56035411544144153594970703125">
        <ele>1562</ele>
        <time>2039-05-14T09:44:50.000Z</time>
      </trkpt>
      <trkpt lat="42.436259798705577850341796875" lon="0.56036802940070629119873046875">
        <ele>1561.4000244140625</ele>
        <time>2039-05-14T09:44:54.000Z</time>
      </trkpt>
      <trkpt lat="42.43628561496734619140625" lon="0.5603753216564655303955078125">
        <ele>1560.800048828125</ele>
        <time>2039-05-14T09:45:00.000Z</time>
      </trkpt>
      <trkpt lat="42.43629164993762969970703125" lon="0.56036903522908687591552734375">
        <ele>1560.800048828125</ele>
        <time>2039-05-14T09:45:01.000Z</time>
      </trkpt>
      <trkpt lat="42.43636113591492176055908203125" lon="0.56031773798167705535888671875">
        <ele>1560.199951171875</ele>
        <time>2039-05-14T09:45:10.000Z</time>
      </trkpt>
      <trkpt lat="42.436365075409412384033203125" lon="0.56031304411590099334716796875">
        <ele>1560</ele>
        <time>2039-05-14T09:45:11.000Z</time>
      </trkpt>
      <trkpt lat="42.4363913945853710174560546875" lon="0.560275577008724212646484375">
        <ele>1559</ele>
        <time>2039-05-14T09:45:16.000Z</time>
      </trkpt>
      <trkpt lat="42.43639499880373477935791015625" lon="0.56027113460004329681396484375">
        <ele>1558.800048828125</ele>
        <time>2039-05-14T09:45:19.000Z</time>
      </trkpt>
      <trkpt lat="42.43640975095331668853759765625" lon="0.56022754870355129241943359375">
        <ele>1559</ele>
        <time>2039-05-14T09:45:27.000Z</time>
      </trkpt>
      <trkpt lat="42.43642383255064487457275390625" lon="0.5601560510694980621337890625">
        <ele>1558.4000244140625</ele>
        <time>2039-05-14T09:45:31.000Z</time>
      </trkpt>
      <trkpt lat="42.4364212341606616973876953125" lon="0.5601203441619873046875">
        <ele>1558</ele>
        <time>2039-05-14T09:45:33.000Z</time>
      </trkpt>
      <trkpt lat="42.43642299436032772064208984375" lon="0.5600990541279315948486328125">
        <ele>1557.800048828125</ele>
        <time>2039-05-14T09:45:34.000Z</time>
      </trkpt>
      <trkpt lat="42.43639784865081310272216796875" lon="0.55995664559304714202880859375">
        <ele>1557</ele>
        <time>2039-05-14T09:45:39.000Z</time>
      </trkpt>
      <trkpt lat="42.43638946674764156341552734375" lon="0.5599186755716800689697265625">
        <ele>1556.4000244140625</ele>
        <time>2039-05-14T09:45:40.000Z</time>
      </trkpt>
      <trkpt lat="42.43637957610189914703369140625" lon="0.559845753014087677001953125">
        <ele>1555.199951171875</ele>
        <time>2039-05-14T09:45:42.000Z</time>
      </trkpt>
      <trkpt lat="42.4363860301673412322998046875" lon="0.55972010828554630279541015625">
        <ele>1554</ele>
        <time>2039-05-14T09:45:46.000Z</time>
      </trkpt>
      <trkpt lat="42.43645316921174526214599609375" lon="0.55958851240575313568115234375">
        <ele>1553.4000244140625</ele>
        <time>2039-05-14T09:45:52.000Z</time>
      </trkpt>
      <trkpt lat="42.43646959774196147918701171875" lon="0.55957317352294921875">
        <ele>1553.199951171875</ele>
        <time>2039-05-14T09:45:53.000Z</time>
      </trkpt>
      <trkpt lat="42.43648820556700229644775390625" lon="0.55956001393496990203857421875">
        <ele>1552.800048828125</ele>
        <time>2039-05-14T09:45:54.000Z</time>
      </trkpt>
      <trkpt lat="42.436546124517917633056640625" lon="0.55951123125851154327392578125">
        <ele>1552.5999755859375</ele>
        <time>2039-05-14T09:45:57.000Z</time>
      </trkpt>
      <trkpt lat="42.43657990358769893646240234375" lon="0.5594844929873943328857421875">
        <ele>1552.4000244140625</ele>
        <time>2039-05-14T09:45:59.000Z</time>
      </trkpt>
      <trkpt lat="42.43660622276365756988525390625" lon="0.55944434367120265960693359375">
        <ele>1551.4000244140625</ele>
        <time>2039-05-14T09:46:01.000Z</time>
      </trkpt>
      <trkpt lat="42.43661980144679546356201171875" lon="0.55942825041711330413818359375">
        <ele>1551</ele>
        <time>2039-05-14T09:46:02.000Z</time>
      </trkpt>
      <trkpt lat="42.43670647032558917999267578125" lon="0.55929179303348064422607421875">
        <ele>1550.199951171875</ele>
        <time>2039-05-14T09:46:08.000Z</time>
      </trkpt>
      <trkpt lat="42.4367375671863555908203125" lon="0.55920579470694065093994140625">
        <ele>1549</ele>
        <time>2039-05-14T09:46:11.000Z</time>
      </trkpt>
      <trkpt lat="42.43675835430622100830078125" lon="0.5591280944645404815673828125">
        <ele>1547.800048828125</ele>
        <time>2039-05-14T09:46:14.000Z</time>
      </trkpt>
      <trkpt lat="42.436810322105884552001953125" lon="0.55899138562381267547607421875">
        <ele>1547</ele>
        <time>2039-05-14T09:46:20.000Z</time>
      </trkpt>
      <trkpt lat="42.43685751222074031829833984375" lon="0.5588028766214847564697265625">
        <ele>1545.800048828125</ele>
        <time>2039-05-14T09:46:27.000Z</time>
      </trkpt>
      <trkpt lat="42.43688416667282581329345703125" lon="0.558764152228832244873046875">
        <ele>1545</ele>
        <time>2039-05-14T09:46:32.000Z</time>
      </trkpt>
      <trkpt lat="42.43689271621406078338623046875" lon="0.5587425269186496734619140625">
        <ele>1544.5999755859375</ele>
        <time>2039-05-14T09:46:35.000Z</time>
      </trkpt>
      <trkpt lat="42.4369104020297527313232421875" lon="0.5586898885667324066162109375">
        <ele>1544.199951171875</ele>
        <time>2039-05-14T09:46:40.000Z</time>
      </trkpt>
      <trkpt lat="42.43692465126514434814453125" lon="0.55868200957775115966796875">
        <ele>1544.4000244140625</ele>
        <time>2039-05-14T09:46:48.000Z</time>
      </trkpt>
      <trkpt lat="42.43695960380136966705322265625" lon="0.55864957161247730255126953125">
        <ele>1544.199951171875</ele>
        <time>2039-05-14T09:46:53.000Z</time>
      </trkpt>
      <trkpt lat="42.43699447251856327056884765625" lon="0.55861906148493289947509765625">
        <ele>1543.800048828125</ele>
        <time>2039-05-14T09:46:56.000Z</time>
      </trkpt>
      <trkpt lat="42.43703353218734264373779296875" lon="0.55857799015939235687255859375">
        <ele>1543.4000244140625</ele>
        <time>2039-05-14T09:46:59.000Z</time>
      </trkpt>
      <trkpt lat="42.43706990964710712432861328125" lon="0.55853180587291717529296875">
        <ele>1542.5999755859375</ele>
        <time>2039-05-14T09:47:02.000Z</time>
      </trkpt>
      <trkpt lat="42.43711885996162891387939453125" lon="0.55851160548627376556396484375">
        <ele>1541.800048828125</ele>
        <time>2039-05-14T09:47:05.000Z</time>
      </trkpt>
      <trkpt lat="42.43713394738733768463134765625" lon="0.5585016310214996337890625">
        <ele>1541.800048828125</ele>
        <time>2039-05-14T09:47:06.000Z</time>
      </trkpt>
      <trkpt lat="42.43714618496596813201904296875" lon="0.55848629213869571685791015625">
        <ele>1541.5999755859375</ele>
        <time>2039-05-14T09:47:07.000Z</time>
      </trkpt>
      <trkpt lat="42.43717703036963939666748046875" lon="0.5584213323891162872314453125">
        <ele>1541.199951171875</ele>
        <time>2039-05-14T09:47:10.000Z</time>
      </trkpt>
      <trkpt lat="42.43720837868750095367431640625" lon="0.558271966874599456787109375">
        <ele>1540.5999755859375</ele>
        <time>2039-05-14T09:47:17.000Z</time>
      </trkpt>
      <trkpt lat="42.4372101388871669769287109375" lon="0.55825260467827320098876953125">
        <ele>1540.199951171875</ele>
        <time>2039-05-14T09:47:18.000Z</time>
      </trkpt>
      <trkpt lat="42.43723352439701557159423828125" lon="0.55817884393036365509033203125">
        <ele>1539.4000244140625</ele>
        <time>2039-05-14T09:47:22.000Z</time>
      </trkpt>
      <trkpt lat="42.43725229986011981964111328125" lon="0.5581169016659259796142578125">
        <ele>1539.199951171875</ele>
        <time>2039-05-14T09:47:25.000Z</time>
      </trkpt>
      <trkpt lat="42.437259592115879058837890625" lon="0.55805982090532779693603515625">
        <ele>1538.5999755859375</ele>
        <time>2039-05-14T09:47:28.000Z</time>
      </trkpt>
      <trkpt lat="42.43726193904876708984375" lon="0.55803718976676464080810546875">
        <ele>1538.4000244140625</ele>
        <time>2039-05-14T09:47:29.000Z</time>
      </trkpt>
      <trkpt lat="42.4372681416571140289306640625" lon="0.55799276567995548248291015625">
        <ele>1538</ele>
        <time>2039-05-14T09:47:31.000Z</time>
      </trkpt>
      <trkpt lat="42.43727208115160465240478515625" lon="0.557913221418857574462890625">
        <ele>1537.199951171875</ele>
        <time>2039-05-14T09:47:35.000Z</time>
      </trkpt>
      <trkpt lat="42.4372725002467632293701171875" lon="0.5578781850636005401611328125">
        <ele>1536.800048828125</ele>
        <time>2039-05-14T09:47:37.000Z</time>
      </trkpt>
      <trkpt lat="42.4372711591422557830810546875" lon="0.55783820338547229766845703125">
        <ele>1536.4000244140625</ele>
        <time>2039-05-14T09:47:39.000Z</time>
      </trkpt>
      <trkpt lat="42.43726554326713085174560546875" lon="0.55775270797312259674072265625">
        <ele>1536</ele>
        <time>2039-05-14T09:47:43.000Z</time>
      </trkpt>
      <trkpt lat="42.4372604303061962127685546875" lon="0.55771549232304096221923828125">
        <ele>1535.800048828125</ele>
        <time>2039-05-14T09:47:45.000Z</time>
      </trkpt>
      <trkpt lat="42.43724442087113857269287109375" lon="0.55764399468898773193359375">
        <ele>1535.5999755859375</ele>
        <time>2039-05-14T09:47:48.000Z</time>
      </trkpt>
      <trkpt lat="42.4372329376637935638427734375" lon="0.55756277404725551605224609375">
        <ele>1535</ele>
        <time>2039-05-14T09:47:51.000Z</time>
      </trkpt>
      <trkpt lat="42.43723503313958644866943359375" lon="0.5574859119951725006103515625">
        <ele>1534.4000244140625</ele>
        <time>2039-05-14T09:47:54.000Z</time>
      </trkpt>
      <trkpt lat="42.43723603896796703338623046875" lon="0.55746504105627536773681640625">
        <ele>1534.199951171875</ele>
        <time>2039-05-14T09:47:55.000Z</time>
      </trkpt>
      <trkpt lat="42.4372497014701366424560546875" lon="0.5573605187237262725830078125">
        <ele>1533.199951171875</ele>
        <time>2039-05-14T09:47:59.000Z</time>
      </trkpt>
      <trkpt lat="42.43725456297397613525390625" lon="0.55733285844326019287109375">
        <ele>1533</ele>
        <time>2039-05-14T09:48:00.000Z</time>
      </trkpt>
      <trkpt lat="42.4372651241719722747802734375" lon="0.55730201303958892822265625">
        <ele>1532.800048828125</ele>
        <time>2039-05-14T09:48:01.000Z</time>
      </trkpt>
      <trkpt lat="42.4373134039342403411865234375" lon="0.5572009272873401641845703125">
        <ele>1532.800048828125</ele>
        <time>2039-05-14T09:48:05.000Z</time>
      </trkpt>
      <trkpt lat="42.43732237257063388824462890625" lon="0.55717184208333492279052734375">
        <ele>1532.199951171875</ele>
        <time>2039-05-14T09:48:06.000Z</time>
      </trkpt>
      <trkpt lat="42.43734248913824558258056640625" lon="0.55712892673909664154052734375">
        <ele>1531.199951171875</ele>
        <time>2039-05-14T09:48:08.000Z</time>
      </trkpt>
      <trkpt lat="42.43739278055727481842041015625" lon="0.55704209022223949432373046875">
        <ele>1531</ele>
        <time>2039-05-14T09:48:12.000Z</time>
      </trkpt>
      <trkpt lat="42.43743569590151309967041015625" lon="0.5569699220359325408935546875">
        <ele>1529.800048828125</ele>
        <time>2039-05-14T09:48:16.000Z</time>
      </trkpt>
      <trkpt lat="42.437456734478473663330078125" lon="0.55692641995847225189208984375">
        <ele>1529.4000244140625</ele>
        <time>2039-05-14T09:48:18.000Z</time>
      </trkpt>
      <trkpt lat="42.43752412497997283935546875" lon="0.556803457438945770263671875">
        <ele>1528.800048828125</ele>
        <time>2039-05-14T09:48:23.000Z</time>
      </trkpt>
      <trkpt lat="42.437610290944576263427734375" lon="0.55662701837718486785888671875">
        <ele>1528.199951171875</ele>
        <time>2039-05-14T09:48:29.000Z</time>
      </trkpt>
      <trkpt lat="42.4376201815903186798095703125" lon="0.5566162057220935821533203125">
        <ele>1528</ele>
        <time>2039-05-14T09:48:30.000Z</time>
      </trkpt>
      <trkpt lat="42.4376195110380649566650390625" lon="0.556609667837619781494140625">
        <ele>1527.5999755859375</ele>
        <time>2039-05-14T09:48:33.000Z</time>
      </trkpt>
      <trkpt lat="42.4376168288290500640869140625" lon="0.556601621210575103759765625">
        <ele>1526.800048828125</ele>
        <time>2039-05-14T09:48:44.000Z</time>
      </trkpt>
      <trkpt lat="42.43761599063873291015625" lon="0.55660019628703594207763671875">
        <ele>1527.199951171875</ele>
        <time>2039-05-14T09:48:55.000Z</time>
      </trkpt>
      <trkpt lat="42.43761590681970119476318359375" lon="0.55659784935414791107177734375">
        <ele>1527.199951171875</ele>
        <time>2039-05-14T09:49:21.000Z</time>
      </trkpt>
      <trkpt lat="42.43761607445776462554931640625" lon="0.55659927427768707275390625">
        <ele>1527.4000244140625</ele>
        <time>2039-05-14T09:49:51.000Z</time>
      </trkpt>
      <trkpt lat="42.437615655362606048583984375" lon="0.556600950658321380615234375">
        <ele>1527.199951171875</ele>
        <time>2039-05-14T09:50:31.000Z</time>
      </trkpt>
      <trkpt lat="42.4376158230006694793701171875" lon="0.55660271085798740386962890625">
        <ele>1527.199951171875</ele>
        <time>2039-05-14T09:51:06.000Z</time>
      </trkpt>
      <trkpt lat="42.43761573918163776397705078125" lon="0.55659986101090908050537109375">
        <ele>1527.5999755859375</ele>
        <time>2039-05-14T09:52:01.000Z</time>
      </trkpt>
      <trkpt lat="42.43761590681970119476318359375" lon="0.55659986101090908050537109375">
        <ele>1527.4000244140625</ele>
        <time>2039-05-14T09:52:06.000Z</time>
      </trkpt>
      <trkpt lat="42.43761557154357433319091796875" lon="0.5566051416099071502685546875">
        <ele>1527.5999755859375</ele>
        <time>2039-05-14T09:53:04.000Z</time>
      </trkpt>
      <trkpt lat="42.43761573918163776397705078125" lon="0.55660891346633434295654296875">
        <ele>1527.800048828125</ele>
        <time>2039-05-14T09:53:27.000Z</time>
      </trkpt>
      <trkpt lat="42.43761557154357433319091796875" lon="0.55661109276115894317626953125">
        <ele>1527.5999755859375</ele>
        <time>2039-05-14T09:53:41.000Z</time>
      </trkpt>
      <trkpt lat="42.4376158230006694793701171875" lon="0.5566128529608249664306640625">
        <ele>1527.4000244140625</ele>
        <time>2039-05-14T09:53:59.000Z</time>
      </trkpt>
      <trkpt lat="42.4376154877245426177978515625" lon="0.55661612190306186676025390625">
        <ele>1527</ele>
        <time>2039-05-14T09:54:22.000Z</time>
      </trkpt>
      <trkpt lat="42.4376154877245426177978515625" lon="0.5566172115504741668701171875">
        <ele>1527</ele>
        <time>2039-05-14T09:54:31.000Z</time>
      </trkpt>
      <trkpt lat="42.43761590681970119476318359375" lon="0.55661913938820362091064453125">
        <ele>1527.4000244140625</ele>
        <time>2039-05-14T09:54:46.000Z</time>
      </trkpt>
      <trkpt lat="42.4376158230006694793701171875" lon="0.55662098340690135955810546875">
        <ele>1527.5999755859375</ele>
        <time>2039-05-14T09:55:02.000Z</time>
      </trkpt>
      <trkpt lat="42.437615655362606048583984375" lon="0.5566239170730113983154296875">
        <ele>1527.800048828125</ele>
        <time>2039-05-14T09:55:30.000Z</time>
      </trkpt>
      <trkpt lat="42.4376158230006694793701171875" lon="0.5566262640058994293212890625">
        <ele>1527.4000244140625</ele>
        <time>2039-05-14T09:55:57.000Z</time>
      </trkpt>
      <trkpt lat="42.43761573918163776397705078125" lon="0.55662651546299457550048828125">
        <ele>1527.800048828125</ele>
        <time>2039-05-14T09:56:03.000Z</time>
      </trkpt>
      <trkpt lat="42.43761607445776462554931640625" lon="0.5566185526549816131591796875">
        <ele>1528.4000244140625</ele>
        <time>2039-05-14T10:03:15.000Z</time>
      </trkpt>
      <trkpt lat="42.437612302601337432861328125" lon="0.55657588876783847808837890625">
        <ele>1528</ele>
        <time>2039-05-14T10:03:22.000Z</time>
      </trkpt>
      <trkpt lat="42.43757081218063831329345703125" lon="0.5564603023231029510498046875">
        <ele>1527.4000244140625</ele>
        <time>2039-05-14T10:03:28.000Z</time>
      </trkpt>
      <trkpt lat="42.43754482828080654144287109375" lon="0.55634320713579654693603515625">
        <ele>1526.4000244140625</ele>
        <time>2039-05-14T10:03:32.000Z</time>
      </trkpt>
      <trkpt lat="42.43754097260534763336181640625" lon="0.55631722323596477508544921875">
        <ele>1526.199951171875</ele>
        <time>2039-05-14T10:03:33.000Z</time>
      </trkpt>
      <trkpt lat="42.4375397153198719024658203125" lon="0.55617590434849262237548828125">
        <ele>1525</ele>
        <time>2039-05-14T10:03:38.000Z</time>
      </trkpt>
      <trkpt lat="42.43755019269883632659912109375" lon="0.55614707060158252716064453125">
        <ele>1524.4000244140625</ele>
        <time>2039-05-14T10:03:39.000Z</time>
      </trkpt>
      <trkpt lat="42.43757131509482860565185546875" lon="0.55606056936085224151611328125">
        <ele>1523.800048828125</ele>
        <time>2039-05-14T10:03:42.000Z</time>
      </trkpt>
      <trkpt lat="42.437597550451755523681640625" lon="0.55599845945835113525390625">
        <ele>1523.5999755859375</ele>
        <time>2039-05-14T10:03:44.000Z</time>
      </trkpt>
      <trkpt lat="42.43764691986143589019775390625" lon="0.5558527819812297821044921875">
        <ele>1522.5999755859375</ele>
        <time>2039-05-14T10:03:48.000Z</time>
      </trkpt>
      <trkpt lat="42.43766871280968189239501953125" lon="0.5557860620319843292236328125">
        <ele>1522</ele>
        <time>2039-05-14T10:03:50.000Z</time>
      </trkpt>
      <trkpt lat="42.43769402615725994110107421875" lon="0.55566779337823390960693359375">
        <ele>1521.5999755859375</ele>
        <time>2039-05-14T10:03:53.000Z</time>
      </trkpt>
      <trkpt lat="42.43769486434757709503173828125" lon="0.555538795888423919677734375">
        <ele>1521</ele>
        <time>2039-05-14T10:03:57.000Z</time>
      </trkpt>
      <trkpt lat="42.43768631480634212493896484375" lon="0.55548674426972866058349609375">
        <ele>1520.5999755859375</ele>
        <time>2039-05-14T10:03:59.000Z</time>
      </trkpt>
      <trkpt lat="42.43768380023539066314697265625" lon="0.55535363964736461639404296875">
        <ele>1519.199951171875</ele>
        <time>2039-05-14T10:04:04.000Z</time>
      </trkpt>
      <trkpt lat="42.43764884769916534423828125" lon="0.5551688186824321746826171875">
        <ele>1518.199951171875</ele>
        <time>2039-05-14T10:04:11.000Z</time>
      </trkpt>
      <trkpt lat="42.43762847967445850372314453125" lon="0.5550595186650753021240234375">
        <ele>1517.199951171875</ele>
        <time>2039-05-14T10:04:15.000Z</time>
      </trkpt>
      <trkpt lat="42.43762093596160411834716796875" lon="0.55493974126875400543212890625">
        <ele>1516.199951171875</ele>
        <time>2039-05-14T10:04:19.000Z</time>
      </trkpt>
      <trkpt lat="42.4376252107322216033935546875" lon="0.55491543374955654144287109375">
        <ele>1516.199951171875</ele>
        <time>2039-05-14T10:04:20.000Z</time>
      </trkpt>
      <trkpt lat="42.4376560561358928680419921875" lon="0.55472575128078460693359375">
        <ele>1514.800048828125</ele>
        <time>2039-05-14T10:04:26.000Z</time>
      </trkpt>
      <trkpt lat="42.43769721128046512603759765625" lon="0.5545301176607608795166015625">
        <ele>1513.800048828125</ele>
        <time>2039-05-14T10:04:32.000Z</time>
      </trkpt>
      <trkpt lat="42.43770626373589038848876953125" lon="0.55449851788580417633056640625">
        <ele>1513.5999755859375</ele>
        <time>2039-05-14T10:04:33.000Z</time>
      </trkpt>
      <trkpt lat="42.4377358518540859222412109375" lon="0.55441888980567455291748046875">
        <ele>1512.4000244140625</ele>
        <time>2039-05-14T10:04:36.000Z</time>
      </trkpt>
      <trkpt lat="42.4377593211829662322998046875" lon="0.55429416708648204803466796875">
        <ele>1511.4000244140625</ele>
        <time>2039-05-14T10:04:41.000Z</time>
      </trkpt>
      <trkpt lat="42.437766529619693756103515625" lon="0.55427622981369495391845703125">
        <ele>1511</ele>
        <time>2039-05-14T10:04:42.000Z</time>
      </trkpt>
      <trkpt lat="42.4378045834600925445556640625" lon="0.55417858064174652099609375">
        <ele>1509.800048828125</ele>
        <time>2039-05-14T10:04:47.000Z</time>
      </trkpt>
      <trkpt lat="42.43784221820533275604248046875" lon="0.5539681948721408843994140625">
        <ele>1509</ele>
        <time>2039-05-14T10:04:55.000Z</time>
      </trkpt>
      <trkpt lat="42.43785847909748554229736328125" lon="0.55391949601471424102783203125">
        <ele>1508.5999755859375</ele>
        <time>2039-05-14T10:04:57.000Z</time>
      </trkpt>
      <trkpt lat="42.43790742941200733184814453125" lon="0.553793013095855712890625">
        <ele>1507.5999755859375</ele>
        <time>2039-05-14T10:05:02.000Z</time>
      </trkpt>
      <trkpt lat="42.4379209242761135101318359375" lon="0.55377214215695858001708984375">
        <ele>1507</ele>
        <time>2039-05-14T10:05:03.000Z</time>
      </trkpt>
      <trkpt lat="42.4379675276577472686767578125" lon="0.55367860011756420135498046875">
        <ele>1505.800048828125</ele>
        <time>2039-05-14T10:05:07.000Z</time>
      </trkpt>
      <trkpt lat="42.43801019154489040374755859375" lon="0.55361506529152393341064453125">
        <ele>1505.4000244140625</ele>
        <time>2039-05-14T10:05:10.000Z</time>
      </trkpt>
      <trkpt lat="42.4380751512944698333740234375" lon="0.5534984730184078216552734375">
        <ele>1504.800048828125</ele>
        <time>2039-05-14T10:05:15.000Z</time>
      </trkpt>
      <trkpt lat="42.43809501640498638153076171875" lon="0.553457401692867279052734375">
        <ele>1504.5999755859375</ele>
        <time>2039-05-14T10:05:17.000Z</time>
      </trkpt>
      <trkpt lat="42.43812686763703823089599609375" lon="0.5534035898745059967041015625">
        <ele>1503.800048828125</ele>
        <time>2039-05-14T10:05:20.000Z</time>
      </trkpt>
      <trkpt lat="42.4381713755428791046142578125" lon="0.553317256271839141845703125">
        <ele>1502.800048828125</ele>
        <time>2039-05-14T10:05:25.000Z</time>
      </trkpt>
      <trkpt lat="42.43818218819797039031982421875" lon="0.55330208502709865570068359375">
        <ele>1502.5999755859375</ele>
        <time>2039-05-14T10:05:26.000Z</time>
      </trkpt>
      <trkpt lat="42.43823222815990447998046875" lon="0.5532416515052318572998046875">
        <ele>1501.5999755859375</ele>
        <time>2039-05-14T10:05:30.000Z</time>
      </trkpt>
      <trkpt lat="42.43827036581933498382568359375" lon="0.55318390019237995147705078125">
        <ele>1501.5999755859375</ele>
        <time>2039-05-14T10:05:33.000Z</time>
      </trkpt>
      <trkpt lat="42.4383614771068096160888671875" lon="0.5530391447246074676513671875">
        <ele>1500.4000244140625</ele>
        <time>2039-05-14T10:05:39.000Z</time>
      </trkpt>
      <trkpt lat="42.438381426036357879638671875" lon="0.55301039479672908782958984375">
        <ele>1500</ele>
        <time>2039-05-14T10:05:40.000Z</time>
      </trkpt>
      <trkpt lat="42.43848779238760471343994140625" lon="0.55286471731960773468017578125">
        <ele>1498.800048828125</ele>
        <time>2039-05-14T10:05:45.000Z</time>
      </trkpt>
      <trkpt lat="42.4385292828083038330078125" lon="0.552808977663516998291015625">
        <ele>1498.199951171875</ele>
        <time>2039-05-14T10:05:47.000Z</time>
      </trkpt>
      <trkpt lat="42.438664399087429046630859375" lon="0.55263304151594638824462890625">
        <ele>1497.800048828125</ele>
        <time>2039-05-14T10:05:54.000Z</time>
      </trkpt>
      <trkpt lat="42.438682503998279571533203125" lon="0.5526079796254634857177734375">
        <ele>1497.199951171875</ele>
        <time>2039-05-14T10:05:55.000Z</time>
      </trkpt>
      <trkpt lat="42.43870069272816181182861328125" lon="0.55258358828723430633544921875">
        <ele>1496.800048828125</ele>
        <time>2039-05-14T10:05:56.000Z</time>
      </trkpt>
      <trkpt lat="42.43883706629276275634765625" lon="0.55240698158740997314453125">
        <ele>1495.800048828125</ele>
        <time>2039-05-14T10:06:03.000Z</time>
      </trkpt>
      <trkpt lat="42.4388784728944301605224609375" lon="0.552354343235492706298828125">
        <ele>1495.5999755859375</ele>
        <time>2039-05-14T10:06:05.000Z</time>
      </trkpt>
      <trkpt lat="42.43891795165836811065673828125" lon="0.55230329744517803192138671875">
        <ele>1494.4000244140625</ele>
        <time>2039-05-14T10:06:07.000Z</time>
      </trkpt>
      <trkpt lat="42.43899875320494174957275390625" lon="0.55220782756805419921875">
        <ele>1493</ele>
        <time>2039-05-14T10:06:11.000Z</time>
      </trkpt>
      <trkpt lat="42.4390383996069431304931640625" lon="0.5521613918244838714599609375">
        <ele>1492.5999755859375</ele>
        <time>2039-05-14T10:06:13.000Z</time>
      </trkpt>
      <trkpt lat="42.43916220031678676605224609375" lon="0.55204362608492374420166015625">
        <ele>1492.4000244140625</ele>
        <time>2039-05-14T10:06:18.000Z</time>
      </trkpt>
      <trkpt lat="42.43926278315484523773193359375" lon="0.5519598908722400665283203125">
        <ele>1491.800048828125</ele>
        <time>2039-05-14T10:06:22.000Z</time>
      </trkpt>
      <trkpt lat="42.43931927718222141265869140625" lon="0.55192007683217525482177734375">
        <ele>1491.4000244140625</ele>
        <time>2039-05-14T10:06:24.000Z</time>
      </trkpt>
      <trkpt lat="42.43939672596752643585205078125" lon="0.5518626607954502105712890625">
        <ele>1490.800048828125</ele>
        <time>2039-05-14T10:06:27.000Z</time>
      </trkpt>
      <trkpt lat="42.4394734203815460205078125" lon="0.55181949399411678314208984375">
        <ele>1490.199951171875</ele>
        <time>2039-05-14T10:06:31.000Z</time>
      </trkpt>
      <trkpt lat="42.43955296464264392852783203125" lon="0.5517587251961231231689453125">
        <ele>1489.800048828125</ele>
        <time>2039-05-14T10:06:36.000Z</time>
      </trkpt>
      <trkpt lat="42.43957023136317729949951171875" lon="0.55174757726490497589111328125">
        <ele>1489.5999755859375</ele>
        <time>2039-05-14T10:06:37.000Z</time>
      </trkpt>
      <trkpt lat="42.43969981558620929718017578125" lon="0.551675744354724884033203125">
        <ele>1488.800048828125</ele>
        <time>2039-05-14T10:06:42.000Z</time>
      </trkpt>
      <trkpt lat="42.43972294963896274566650390625" lon="0.5516591481864452362060546875">
        <ele>1488.5999755859375</ele>
        <time>2039-05-14T10:06:43.000Z</time>
      </trkpt>
      <trkpt lat="42.43980358354747295379638671875" lon="0.5515934340655803680419921875">
        <ele>1487</ele>
        <time>2039-05-14T10:06:47.000Z</time>
      </trkpt>
      <trkpt lat="42.43982118554413318634033203125" lon="0.5515870638191699981689453125">
        <ele>1486.800048828125</ele>
        <time>2039-05-14T10:06:48.000Z</time>
      </trkpt>
      <trkpt lat="42.43992143310606479644775390625" lon="0.55153802968561649322509765625">
        <ele>1486.5999755859375</ele>
        <time>2039-05-14T10:06:54.000Z</time>
      </trkpt>
      <trkpt lat="42.440044395625591278076171875" lon="0.55143124423921108245849609375">
        <ele>1486</ele>
        <time>2039-05-14T10:07:00.000Z</time>
      </trkpt>
      <trkpt lat="42.44020474143326282501220703125" lon="0.55130300112068653106689453125">
        <ele>1486.199951171875</ele>
        <time>2039-05-14T10:07:07.000Z</time>
      </trkpt>
      <trkpt lat="42.44032569229602813720703125" lon="0.55118263699114322662353515625">
        <ele>1485.5999755859375</ele>
        <time>2039-05-14T10:07:13.000Z</time>
      </trkpt>
      <trkpt lat="42.44033776223659515380859375" lon="0.55116939358413219451904296875">
        <ele>1485</ele>
        <time>2039-05-14T10:07:16.000Z</time>
      </trkpt>
      <trkpt lat="42.44033717550337314605712890625" lon="0.5511699803173542022705078125">
        <ele>1485</ele>
        <time>2039-05-14T10:07:17.000Z</time>
      </trkpt>
      <trkpt lat="42.440337426960468292236328125" lon="0.5511723272502422332763671875">
        <ele>1484.5999755859375</ele>
        <time>2039-05-14T10:07:36.000Z</time>
      </trkpt>
      <trkpt lat="42.44033700786530971527099609375" lon="0.55117291398346424102783203125">
        <ele>1484.5999755859375</ele>
        <time>2039-05-14T10:07:48.000Z</time>
      </trkpt>
      <trkpt lat="42.4403402768075466156005859375" lon="0.55116151459515094757080078125">
        <ele>1484.4000244140625</ele>
        <time>2039-05-14T10:08:02.000Z</time>
      </trkpt>
      <trkpt lat="42.44035528041422367095947265625" lon="0.5511284060776233673095703125">
        <ele>1484.4000244140625</ele>
        <time>2039-05-14T10:08:08.000Z</time>
      </trkpt>
      <trkpt lat="42.440361566841602325439453125" lon="0.55111440829932689666748046875">
        <ele>1484.5999755859375</ele>
        <time>2039-05-14T10:08:13.000Z</time>
      </trkpt>
      <trkpt lat="42.44037657044827938079833984375" lon="0.551089011132717132568359375">
        <ele>1484.199951171875</ele>
        <time>2039-05-14T10:08:15.000Z</time>
      </trkpt>
      <trkpt lat="42.44039065204560756683349609375" lon="0.55105246603488922119140625">
        <ele>1484.4000244140625</ele>
        <time>2039-05-14T10:08:17.000Z</time>
      </trkpt>
      <trkpt lat="42.44042686186730861663818359375" lon="0.550933443009853363037109375">
        <ele>1484</ele>
        <time>2039-05-14T10:08:21.000Z</time>
      </trkpt>
      <trkpt lat="42.44045846164226531982421875" lon="0.55073328316211700439453125">
        <ele>1483.5999755859375</ele>
        <time>2039-05-14T10:08:26.000Z</time>
      </trkpt>
      <trkpt lat="42.44046793319284915924072265625" lon="0.55065524764358997344970703125">
        <ele>1483.199951171875</ele>
        <time>2039-05-14T10:08:28.000Z</time>
      </trkpt>
      <trkpt lat="42.440504394471645355224609375" lon="0.5504125915467739105224609375">
        <ele>1482.800048828125</ele>
        <time>2039-05-14T10:08:35.000Z</time>
      </trkpt>
      <trkpt lat="42.44057790376245975494384765625" lon="0.550179071724414825439453125">
        <ele>1482.199951171875</ele>
        <time>2039-05-14T10:08:41.000Z</time>
      </trkpt>
      <trkpt lat="42.44061847217381000518798828125" lon="0.550102293491363525390625">
        <ele>1481.800048828125</ele>
        <time>2039-05-14T10:08:43.000Z</time>
      </trkpt>
      <trkpt lat="42.44079952128231525421142578125" lon="0.54979316890239715576171875">
        <ele>1482</ele>
        <time>2039-05-14T10:08:51.000Z</time>
      </trkpt>
      <trkpt lat="42.4409746192395687103271484375" lon="0.549470297992229461669921875">
        <ele>1481.199951171875</ele>
        <time>2039-05-14T10:09:00.000Z</time>
      </trkpt>
      <trkpt lat="42.44099398143589496612548828125" lon="0.5494335852563381195068359375">
        <ele>1481.199951171875</ele>
        <time>2039-05-14T10:09:01.000Z</time>
      </trkpt>
      <trkpt lat="42.44110378436744213104248046875" lon="0.549221523106098175048828125">
        <ele>1480.5999755859375</ele>
        <time>2039-05-14T10:09:07.000Z</time>
      </trkpt>
      <trkpt lat="42.4412026070058345794677734375" lon="0.54904374293982982635498046875">
        <ele>1480</ele>
        <time>2039-05-14T10:09:12.000Z</time>
      </trkpt>
      <trkpt lat="42.4412230588495731353759765625" lon="0.54901105351746082305908203125">
        <ele>1480</ele>
        <time>2039-05-14T10:09:13.000Z</time>
      </trkpt>
      <trkpt lat="42.44129137136042118072509765625" lon="0.5488662980496883392333984375">
        <ele>1479.4000244140625</ele>
        <time>2039-05-14T10:09:18.000Z</time>
      </trkpt>
      <trkpt lat="42.44133998639881610870361328125" lon="0.548742748796939849853515625">
        <ele>1479.800048828125</ele>
        <time>2039-05-14T10:09:23.000Z</time>
      </trkpt>
      <trkpt lat="42.441370747983455657958984375" lon="0.5485819838941097259521484375">
        <ele>1480</ele>
        <time>2039-05-14T10:09:28.000Z</time>
      </trkpt>
      <trkpt lat="42.44136814959347248077392578125" lon="0.5483717657625675201416015625">
        <ele>1479.5999755859375</ele>
        <time>2039-05-14T10:09:33.000Z</time>
      </trkpt>
      <trkpt lat="42.44132774882018566131591796875" lon="0.54814629256725311279296875">
        <ele>1479.4000244140625</ele>
        <time>2039-05-14T10:09:38.000Z</time>
      </trkpt>
      <trkpt lat="42.4413166008889675140380859375" lon="0.5480713583528995513916015625">
        <ele>1478.800048828125</ele>
        <time>2039-05-14T10:09:40.000Z</time>
      </trkpt>
      <trkpt lat="42.44131006300449371337890625" lon="0.547976978123188018798828125">
        <ele>1478.4000244140625</ele>
        <time>2039-05-14T10:09:43.000Z</time>
      </trkpt>
      <trkpt lat="42.4412881024181842803955078125" lon="0.54776583798229694366455078125">
        <ele>1478</ele>
        <time>2039-05-14T10:09:50.000Z</time>
      </trkpt>
      <trkpt lat="42.44126153178513050079345703125" lon="0.5476172268390655517578125">
        <ele>1477.800048828125</ele>
        <time>2039-05-14T10:09:55.000Z</time>
      </trkpt>
      <trkpt lat="42.44124895893037319183349609375" lon="0.54750214330852031707763671875">
        <ele>1477.5999755859375</ele>
        <time>2039-05-14T10:09:58.000Z</time>
      </trkpt>
      <trkpt lat="42.441282570362091064453125" lon="0.547320842742919921875">
        <ele>1476.800048828125</ele>
        <time>2039-05-14T10:10:04.000Z</time>
      </trkpt>
      <trkpt lat="42.44129396975040435791015625" lon="0.547288320958614349365234375">
        <ele>1476.4000244140625</ele>
        <time>2039-05-14T10:10:05.000Z</time>
      </trkpt>
      <trkpt lat="42.441357336938381195068359375" lon="0.54713375866413116455078125">
        <ele>1476.199951171875</ele>
        <time>2039-05-14T10:10:09.000Z</time>
      </trkpt>
      <trkpt lat="42.44145783595740795135498046875" lon="0.5469508655369281768798828125">
        <ele>1475.5999755859375</ele>
        <time>2039-05-14T10:10:15.000Z</time>
      </trkpt>
      <trkpt lat="42.441602088510990142822265625" lon="0.54671625606715679168701171875">
        <ele>1475.4000244140625</ele>
        <time>2039-05-14T10:10:24.000Z</time>
      </trkpt>
      <trkpt lat="42.44162119925022125244140625" lon="0.54668775759637355804443359375">
        <ele>1475.4000244140625</ele>
        <time>2039-05-14T10:10:25.000Z</time>
      </trkpt>
      <trkpt lat="42.4417323432862758636474609375" lon="0.54649413563311100006103515625">
        <ele>1475.199951171875</ele>
        <time>2039-05-14T10:10:32.000Z</time>
      </trkpt>
      <trkpt lat="42.4417732469737529754638671875" lon="0.54633202962577342987060546875">
        <ele>1475.199951171875</ele>
        <time>2039-05-14T10:10:38.000Z</time>
      </trkpt>
      <trkpt lat="42.441783137619495391845703125" lon="0.54621116258203983306884765625">
        <ele>1474.800048828125</ele>
        <time>2039-05-14T10:10:43.000Z</time>
      </trkpt>
      <trkpt lat="42.44178087450563907623291015625" lon="0.54609649814665317535400390625">
        <ele>1474.4000244140625</ele>
        <time>2039-05-14T10:10:49.000Z</time>
      </trkpt>
      <trkpt lat="42.4417742528021335601806640625" lon="0.54602977819740772247314453125">
        <ele>1474.5999755859375</ele>
        <time>2039-05-14T10:11:04.000Z</time>
      </trkpt>
      <trkpt lat="42.4417400546371936798095703125" lon="0.545935817062854766845703125">
        <ele>1474.199951171875</ele>
        <time>2039-05-14T10:11:09.000Z</time>
      </trkpt>
      <trkpt lat="42.44172840379178524017333984375" lon="0.5459084920585155487060546875">
        <ele>1474.199951171875</ele>
        <time>2039-05-14T10:11:10.000Z</time>
      </trkpt>
      <trkpt lat="42.44169638492166996002197265625" lon="0.54580547846853733062744140625">
        <ele>1474</ele>
        <time>2039-05-14T10:11:14.000Z</time>
      </trkpt>
      <trkpt lat="42.44159747846424579620361328125" lon="0.545660890638828277587890625">
        <ele>1473.4000244140625</ele>
        <time>2039-05-14T10:11:19.000Z</time>
      </trkpt>
      <trkpt lat="42.4415382184088230133056640625" lon="0.5456054024398326873779296875">
        <ele>1473.199951171875</ele>
        <time>2039-05-14T10:11:21.000Z</time>
      </trkpt>
      <trkpt lat="42.44144476018846035003662109375" lon="0.54551781155169010162353515625">
        <ele>1472.199951171875</ele>
        <time>2039-05-14T10:11:24.000Z</time>
      </trkpt>
      <trkpt lat="42.4414088018238544464111328125" lon="0.5454843677580356597900390625">
        <ele>1472</ele>
        <time>2039-05-14T10:11:25.000Z</time>
      </trkpt>
      <trkpt lat="42.4412646330893039703369140625" lon="0.5452899076044559478759765625">
        <ele>1471</ele>
        <time>2039-05-14T10:11:30.000Z</time>
      </trkpt>
      <trkpt lat="42.4411766231060028076171875" lon="0.54517708718776702880859375">
        <ele>1471.4000244140625</ele>
        <time>2039-05-14T10:11:35.000Z</time>
      </trkpt>
      <trkpt lat="42.44110713712871074676513671875" lon="0.5450652725994586944580078125">
        <ele>1471.5999755859375</ele>
        <time>2039-05-14T10:11:40.000Z</time>
      </trkpt>
      <trkpt lat="42.44098015129566192626953125" lon="0.54484407417476177215576171875">
        <ele>1471.199951171875</ele>
        <time>2039-05-14T10:11:47.000Z</time>
      </trkpt>
      <trkpt lat="42.4409310333430767059326171875" lon="0.5447491072118282318115234375">
        <ele>1471.199951171875</ele>
        <time>2039-05-14T10:11:50.000Z</time>
      </trkpt>
      <trkpt lat="42.440893650054931640625" lon="0.5446890927851200103759765625">
        <ele>1471.199951171875</ele>
        <time>2039-05-14T10:11:52.000Z</time>
      </trkpt>
      <trkpt lat="42.44083254598081111907958984375" lon="0.54454618133604526519775390625">
        <ele>1471.4000244140625</ele>
        <time>2039-05-14T10:11:56.000Z</time>
      </trkpt>
      <trkpt lat="42.4408197216689586639404296875" lon="0.54450997151434421539306640625">
        <ele>1471.199951171875</ele>
        <time>2039-05-14T10:11:57.000Z</time>
      </trkpt>
      <trkpt lat="42.4407875351607799530029296875" lon="0.54437887854874134063720703125">
        <ele>1470.5999755859375</ele>
        <time>2039-05-14T10:12:00.000Z</time>
      </trkpt>
      <trkpt lat="42.440752498805522918701171875" lon="0.544207803905010223388671875">
        <ele>1470.4000244140625</ele>
        <time>2039-05-14T10:12:03.000Z</time>
      </trkpt>
      <trkpt lat="42.440767586231231689453125" lon="0.543859787285327911376953125">
        <ele>1470</ele>
        <time>2039-05-14T10:12:09.000Z</time>
      </trkpt>
      <trkpt lat="42.44082458317279815673828125" lon="0.54366432130336761474609375">
        <ele>1470</ele>
        <time>2039-05-14T10:12:13.000Z</time>
      </trkpt>
      <trkpt lat="42.44083489291369915008544921875" lon="0.5436074919998645782470703125">
        <ele>1470.199951171875</ele>
        <time>2039-05-14T10:12:14.000Z</time>
      </trkpt>
      <trkpt lat="42.4409110844135284423828125" lon="0.5433486588299274444580078125">
        <ele>1469.5999755859375</ele>
        <time>2039-05-14T10:12:19.000Z</time>
      </trkpt>
      <trkpt lat="42.44095693342387676239013671875" lon="0.54318898357450962066650390625">
        <ele>1468.4000244140625</ele>
        <time>2039-05-14T10:12:22.000Z</time>
      </trkpt>
      <trkpt lat="42.4409722723066806793212890625" lon="0.54314338602125644683837890625">
        <ele>1468.199951171875</ele>
        <time>2039-05-14T10:12:23.000Z</time>
      </trkpt>
      <trkpt lat="42.4410644732415676116943359375" lon="0.5428903363645076751708984375">
        <ele>1467.199951171875</ele>
        <time>2039-05-14T10:12:28.000Z</time>
      </trkpt>
      <trkpt lat="42.44108207523822784423828125" lon="0.54284222424030303955078125">
        <ele>1467</ele>
        <time>2039-05-14T10:12:29.000Z</time>
      </trkpt>
      <trkpt lat="42.44115776382386684417724609375" lon="0.542658828198909759521484375">
        <ele>1466</ele>
        <time>2039-05-14T10:12:33.000Z</time>
      </trkpt>
      <trkpt lat="42.44120017625391483306884765625" lon="0.54256721399724483489990234375">
        <ele>1465.5999755859375</ele>
        <time>2039-05-14T10:12:35.000Z</time>
      </trkpt>
      <trkpt lat="42.4413149245083332061767578125" lon="0.5423545651137828826904296875">
        <ele>1464.800048828125</ele>
        <time>2039-05-14T10:12:40.000Z</time>
      </trkpt>
      <trkpt lat="42.4413300119340419769287109375" lon="0.5423079617321491241455078125">
        <ele>1464.5999755859375</ele>
        <time>2039-05-14T10:12:41.000Z</time>
      </trkpt>
      <trkpt lat="42.44137736968696117401123046875" lon="0.54200981743633747100830078125">
        <ele>1464.199951171875</ele>
        <time>2039-05-14T10:12:47.000Z</time>
      </trkpt>
      <trkpt lat="42.44138290174305438995361328125" lon="0.5419237352907657623291015625">
        <ele>1463.800048828125</ele>
        <time>2039-05-14T10:12:49.000Z</time>
      </trkpt>
      <trkpt lat="42.44137753732502460479736328125" lon="0.541803203523159027099609375">
        <ele>1463.5999755859375</ele>
        <time>2039-05-14T10:12:52.000Z</time>
      </trkpt>
      <trkpt lat="42.44140125811100006103515625" lon="0.541572533547878265380859375">
        <ele>1463.5999755859375</ele>
        <time>2039-05-14T10:12:57.000Z</time>
      </trkpt>
      <trkpt lat="42.4414242245256900787353515625" lon="0.54145275615155696868896484375">
        <ele>1462.800048828125</ele>
        <time>2039-05-14T10:13:00.000Z</time>
      </trkpt>
      <trkpt lat="42.44143721647560596466064453125" lon="0.541408918797969818115234375">
        <ele>1462.5999755859375</ele>
        <time>2039-05-14T10:13:01.000Z</time>
      </trkpt>
      <trkpt lat="42.4414755217730998992919921875" lon="0.54126449860632419586181640625">
        <ele>1461.4000244140625</ele>
        <time>2039-05-14T10:13:04.000Z</time>
      </trkpt>
      <trkpt lat="42.441504187881946563720703125" lon="0.5410758219659328460693359375">
        <ele>1461.199951171875</ele>
        <time>2039-05-14T10:13:08.000Z</time>
      </trkpt>
      <trkpt lat="42.441555149853229522705078125" lon="0.54084976203739643096923828125">
        <ele>1461.199951171875</ele>
        <time>2039-05-14T10:13:13.000Z</time>
      </trkpt>
      <trkpt lat="42.4416361190378665924072265625" lon="0.5406325869262218475341796875">
        <ele>1460.4000244140625</ele>
        <time>2039-05-14T10:13:19.000Z</time>
      </trkpt>
      <trkpt lat="42.441740892827510833740234375" lon="0.54048380814492702484130859375">
        <ele>1460</ele>
        <time>2039-05-14T10:13:25.000Z</time>
      </trkpt>
      <trkpt lat="42.44189419783651828765869140625" lon="0.54038825444877147674560546875">
        <ele>1460.199951171875</ele>
        <time>2039-05-14T10:13:32.000Z</time>
      </trkpt>
      <trkpt lat="42.442080862820148468017578125" lon="0.54034986533224582672119140625">
        <ele>1459.5999755859375</ele>
        <time>2039-05-14T10:13:38.000Z</time>
      </trkpt>
      <trkpt lat="42.44211472570896148681640625" lon="0.54034232161939144134521484375">
        <ele>1459.4000244140625</ele>
        <time>2039-05-14T10:13:39.000Z</time>
      </trkpt>
      <trkpt lat="42.44231010787189006805419921875" lon="0.54025062359869480133056640625">
        <ele>1459.4000244140625</ele>
        <time>2039-05-14T10:13:46.000Z</time>
      </trkpt>
      <trkpt lat="42.4424873851239681243896484375" lon="0.54013176821172237396240234375">
        <ele>1459.5999755859375</ele>
        <time>2039-05-14T10:13:53.000Z</time>
      </trkpt>
      <trkpt lat="42.4427562765777111053466796875" lon="0.54002699442207813262939453125">
        <ele>1459.4000244140625</ele>
        <time>2039-05-14T10:14:03.000Z</time>
      </trkpt>
      <trkpt lat="42.442978061735630035400390625" lon="0.53991534747183322906494140625">
        <ele>1460</ele>
        <time>2039-05-14T10:14:11.000Z</time>
      </trkpt>
      <trkpt lat="42.4431673251092433929443359375" lon="0.53982063196599483489990234375">
        <ele>1458.5999755859375</ele>
        <time>2039-05-14T10:14:18.000Z</time>
      </trkpt>
      <trkpt lat="42.4432752840220928192138671875" lon="0.5397578515112400054931640625">
        <ele>1458.5999755859375</ele>
        <time>2039-05-14T10:14:22.000Z</time>
      </trkpt>
      <trkpt lat="42.4434137530624866485595703125" lon="0.53969641216099262237548828125">
        <ele>1458.199951171875</ele>
        <time>2039-05-14T10:14:26.000Z</time>
      </trkpt>
      <trkpt lat="42.443487010896205902099609375" lon="0.5396549217402935028076171875">
        <ele>1458.199951171875</ele>
        <time>2039-05-14T10:14:28.000Z</time>
      </trkpt>
      <trkpt lat="42.44369965977966785430908203125" lon="0.5395330488681793212890625">
        <ele>1457.199951171875</ele>
        <time>2039-05-14T10:14:34.000Z</time>
      </trkpt>
      <trkpt lat="42.44386109523475170135498046875" lon="0.53943045437335968017578125">
        <ele>1456.4000244140625</ele>
        <time>2039-05-14T10:14:40.000Z</time>
      </trkpt>
      <trkpt lat="42.44404365308582782745361328125" lon="0.5393387563526630401611328125">
        <ele>1456.199951171875</ele>
        <time>2039-05-14T10:14:46.000Z</time>
      </trkpt>
      <trkpt lat="42.44414784014225006103515625" lon="0.53928553126752376556396484375">
        <ele>1455.800048828125</ele>
        <time>2039-05-14T10:14:51.000Z</time>
      </trkpt>
      <trkpt lat="42.44423425756394863128662109375" lon="0.539234317839145660400390625">
        <ele>1455</ele>
        <time>2039-05-14T10:14:55.000Z</time>
      </trkpt>
      <trkpt lat="42.444368787109851837158203125" lon="0.53915477357804775238037109375">
        <ele>1454.199951171875</ele>
        <time>2039-05-14T10:15:00.000Z</time>
      </trkpt>
      <trkpt lat="42.4445225112140178680419921875" lon="0.5390765704214572906494140625">
        <ele>1453.800048828125</ele>
        <time>2039-05-14T10:15:05.000Z</time>
      </trkpt>
      <trkpt lat="42.44459803216159343719482421875" lon="0.53902602754533290863037109375">
        <ele>1453.5999755859375</ele>
        <time>2039-05-14T10:15:08.000Z</time>
      </trkpt>
      <trkpt lat="42.44469962082803249359130859375" lon="0.538963414728641510009765625">
        <ele>1454.199951171875</ele>
        <time>2039-05-14T10:15:12.000Z</time>
      </trkpt>
      <trkpt lat="42.4448282830417156219482421875" lon="0.5388784222304821014404296875">
        <ele>1452.5999755859375</ele>
        <time>2039-05-14T10:15:17.000Z</time>
      </trkpt>
      <trkpt lat="42.44497639127075672149658203125" lon="0.53880491293966770172119140625">
        <ele>1451.5999755859375</ele>
        <time>2039-05-14T10:15:22.000Z</time>
      </trkpt>
      <trkpt lat="42.4450079910457134246826171875" lon="0.53878462873399257659912109375">
        <ele>1451.4000244140625</ele>
        <time>2039-05-14T10:15:23.000Z</time>
      </trkpt>
      <trkpt lat="42.44515861384570598602294921875" lon="0.53866694681346416473388671875">
        <ele>1450.4000244140625</ele>
        <time>2039-05-14T10:15:28.000Z</time>
      </trkpt>
      <trkpt lat="42.445192225277423858642578125" lon="0.53864330984652042388916015625">
        <ele>1450.199951171875</ele>
        <time>2039-05-14T10:15:29.000Z</time>
      </trkpt>
      <trkpt lat="42.4453154392540454864501953125" lon="0.5385937727987766265869140625">
        <ele>1450.4000244140625</ele>
        <time>2039-05-14T10:15:33.000Z</time>
      </trkpt>
      <trkpt lat="42.445415519177913665771484375" lon="0.5386693775653839111328125">
        <ele>1450</ele>
        <time>2039-05-14T10:15:37.000Z</time>
      </trkpt>
      <trkpt lat="42.44544326327741146087646484375" lon="0.53885604254901409149169921875">
        <ele>1448.800048828125</ele>
        <time>2039-05-14T10:15:42.000Z</time>
      </trkpt>
      <trkpt lat="42.44544410146772861480712890625" lon="0.538895688951015472412109375">
        <ele>1448.4000244140625</ele>
        <time>2039-05-14T10:15:43.000Z</time>
      </trkpt>
      <trkpt lat="42.44544678367674350738525390625" lon="0.53920825012028217315673828125">
        <ele>1447.800048828125</ele>
        <time>2039-05-14T10:15:51.000Z</time>
      </trkpt>
      <trkpt lat="42.44545969180762767791748046875" lon="0.53927429951727390289306640625">
        <ele>1447.4000244140625</ele>
        <time>2039-05-14T10:15:53.000Z</time>
      </trkpt>
      <trkpt lat="42.44548819027841091156005859375" lon="0.53932450711727142333984375">
        <ele>1447.4000244140625</ele>
        <time>2039-05-14T10:15:55.000Z</time>
      </trkpt>
      <trkpt lat="42.4455360509455204010009765625" lon="0.53939466364681720733642578125">
        <ele>1446.199951171875</ele>
        <time>2039-05-14T10:15:58.000Z</time>
      </trkpt>
      <trkpt lat="42.44558072648942470550537109375" lon="0.53941327147185802459716796875">
        <ele>1445.800048828125</ele>
        <time>2039-05-14T10:16:00.000Z</time>
      </trkpt>
      <trkpt lat="42.445679046213626861572265625" lon="0.53941142745316028594970703125">
        <ele>1445.800048828125</ele>
        <time>2039-05-14T10:16:04.000Z</time>
      </trkpt>
      <trkpt lat="42.44577401317656040191650390625" lon="0.5393974296748638153076171875">
        <ele>1445.800048828125</ele>
        <time>2039-05-14T10:16:08.000Z</time>
      </trkpt>
      <trkpt lat="42.4459789507091045379638671875" lon="0.539377816021442413330078125">
        <ele>1445.800048828125</ele>
        <time>2039-05-14T10:16:16.000Z</time>
      </trkpt>
      <trkpt lat="42.44604726321995258331298828125" lon="0.5393759720027446746826171875">
        <ele>1445.199951171875</ele>
        <time>2039-05-14T10:16:19.000Z</time>
      </trkpt>
      <trkpt lat="42.44614583440124988555908203125" lon="0.5393776483833789825439453125">
        <ele>1444.4000244140625</ele>
        <time>2039-05-14T10:16:23.000Z</time>
      </trkpt>
      <trkpt lat="42.44621808640658855438232421875" lon="0.53937119431793689727783203125">
        <ele>1444.199951171875</ele>
        <time>2039-05-14T10:16:26.000Z</time>
      </trkpt>
      <trkpt lat="42.44632252492010593414306640625" lon="0.53933330811560153961181640625">
        <ele>1443</ele>
        <time>2039-05-14T10:16:31.000Z</time>
      </trkpt>
      <trkpt lat="42.44642109610140323638916015625" lon="0.5392519198358058929443359375">
        <ele>1442.800048828125</ele>
        <time>2039-05-14T10:16:36.000Z</time>
      </trkpt>
      <trkpt lat="42.4464577250182628631591796875" lon="0.53922149352729320526123046875">
        <ele>1442.4000244140625</ele>
        <time>2039-05-14T10:16:38.000Z</time>
      </trkpt>
      <trkpt lat="42.44649217464029788970947265625" lon="0.53919173777103424072265625">
        <ele>1441.199951171875</ele>
        <time>2039-05-14T10:16:40.000Z</time>
      </trkpt>
      <trkpt lat="42.446545399725437164306640625" lon="0.53914655931293964385986328125">
        <ele>1440</ele>
        <time>2039-05-14T10:16:43.000Z</time>
      </trkpt>
      <trkpt lat="42.44656291790306568145751953125" lon="0.5391312204301357269287109375">
        <ele>1439.800048828125</ele>
        <time>2039-05-14T10:16:44.000Z</time>
      </trkpt>
      <trkpt lat="42.4466840364038944244384765625" lon="0.53901345469057559967041015625">
        <ele>1439.4000244140625</ele>
        <time>2039-05-14T10:16:52.000Z</time>
      </trkpt>
      <trkpt lat="42.44673273526132106781005859375" lon="0.53896416909992694854736328125">
        <ele>1438.800048828125</ele>
        <time>2039-05-14T10:16:55.000Z</time>
      </trkpt>
      <trkpt lat="42.44679124094545841217041015625" lon="0.5389102734625339508056640625">
        <ele>1437.5999755859375</ele>
        <time>2039-05-14T10:16:59.000Z</time>
      </trkpt>
      <trkpt lat="42.4468977749347686767578125" lon="0.538751520216464996337890625">
        <ele>1436.5999755859375</ele>
        <time>2039-05-14T10:17:05.000Z</time>
      </trkpt>
      <trkpt lat="42.4470203183591365814208984375" lon="0.53866040892899036407470703125">
        <ele>1435.800048828125</ele>
        <time>2039-05-14T10:17:10.000Z</time>
      </trkpt>
      <trkpt lat="42.44713473133742809295654296875" lon="0.53866694681346416473388671875">
        <ele>1435.4000244140625</ele>
        <time>2039-05-14T10:17:14.000Z</time>
      </trkpt>
      <trkpt lat="42.44719323702156543731689453125" lon="0.53869150578975677490234375">
        <ele>1434.800048828125</ele>
        <time>2039-05-14T10:17:16.000Z</time>
      </trkpt>
      <trkpt lat="42.447260878980159759521484375" lon="0.53871673531830310821533203125">
        <ele>1434</ele>
        <time>2039-05-14T10:17:18.000Z</time>
      </trkpt>
      <trkpt lat="42.44734645821154117584228515625" lon="0.5387382768094539642333984375">
        <ele>1432.800048828125</ele>
        <time>2039-05-14T10:17:21.000Z</time>
      </trkpt>
      <trkpt lat="42.44736791588366031646728515625" lon="0.53874188102781772613525390625">
        <ele>1432.5999755859375</ele>
        <time>2039-05-14T10:17:22.000Z</time>
      </trkpt>
      <trkpt lat="42.4474779702723026275634765625" lon="0.53873953409492969512939453125">
        <ele>1432.4000244140625</ele>
        <time>2039-05-14T10:17:28.000Z</time>
      </trkpt>
      <trkpt lat="42.44754058308899402618408203125" lon="0.5387332476675510406494140625">
        <ele>1431.800048828125</ele>
        <time>2039-05-14T10:17:31.000Z</time>
      </trkpt>
      <trkpt lat="42.44759355671703815460205078125" lon="0.53873316384851932525634765625">
        <ele>1431</ele>
        <time>2039-05-14T10:17:33.000Z</time>
      </trkpt>
      <trkpt lat="42.447620965540409088134765625" lon="0.538733415305614471435546875">
        <ele>1430.5999755859375</ele>
        <time>2039-05-14T10:17:34.000Z</time>
      </trkpt>
      <trkpt lat="42.44776538573205471038818359375" lon="0.53872528485953807830810546875">
        <ele>1429.5999755859375</ele>
        <time>2039-05-14T10:17:40.000Z</time>
      </trkpt>
      <trkpt lat="42.44778868742287158966064453125" lon="0.5387270450592041015625">
        <ele>1429.4000244140625</ele>
        <time>2039-05-14T10:17:41.000Z</time>
      </trkpt>
      <trkpt lat="42.44791902601718902587890625" lon="0.53873316384851932525634765625">
        <ele>1429.5999755859375</ele>
        <time>2039-05-14T10:17:46.000Z</time>
      </trkpt>
      <trkpt lat="42.44804735295474529266357421875" lon="0.5387050844728946685791015625">
        <ele>1428.4000244140625</ele>
        <time>2039-05-14T10:17:51.000Z</time>
      </trkpt>
      <trkpt lat="42.44809697382152080535888671875" lon="0.5386930145323276519775390625">
        <ele>1428.4000244140625</ele>
        <time>2039-05-14T10:17:53.000Z</time>
      </trkpt>
      <trkpt lat="42.4482477642595767974853515625" lon="0.5386256240308284759521484375">
        <ele>1428</ele>
        <time>2039-05-14T10:17:58.000Z</time>
      </trkpt>
      <trkpt lat="42.44839847087860107421875" lon="0.53853166289627552032470703125">
        <ele>1427.4000244140625</ele>
        <time>2039-05-14T10:18:03.000Z</time>
      </trkpt>
      <trkpt lat="42.44847734458744525909423828125" lon="0.53846620023250579833984375">
        <ele>1427.4000244140625</ele>
        <time>2039-05-14T10:18:06.000Z</time>
      </trkpt>
      <trkpt lat="42.44861983694136142730712890625" lon="0.5383175052702426910400390625">
        <ele>1427.4000244140625</ele>
        <time>2039-05-14T10:18:13.000Z</time>
      </trkpt>
      <trkpt lat="42.4486685357987880706787109375" lon="0.538171492516994476318359375">
        <ele>1428.5999755859375</ele>
        <time>2039-05-14T10:18:19.000Z</time>
      </trkpt>
      <trkpt lat="42.44867281056940555572509765625" lon="0.53802556358277797698974609375">
        <ele>1429.4000244140625</ele>
        <time>2039-05-14T10:18:26.000Z</time>
      </trkpt>
      <trkpt lat="42.44865520857274532318115234375" lon="0.53785507567226886749267578125">
        <ele>1429</ele>
        <time>2039-05-14T10:18:33.000Z</time>
      </trkpt>
      <trkpt lat="42.44860776700079441070556640625" lon="0.53774510510265827178955078125">
        <ele>1428.5999755859375</ele>
        <time>2039-05-14T10:18:38.000Z</time>
      </trkpt>
      <trkpt lat="42.44849461130797863006591796875" lon="0.53761652670800685882568359375">
        <ele>1429.199951171875</ele>
        <time>2039-05-14T10:18:45.000Z</time>
      </trkpt>
      <trkpt lat="42.44835731573402881622314453125" lon="0.5374518223106861114501953125">
        <ele>1429.199951171875</ele>
        <time>2039-05-14T10:18:53.000Z</time>
      </trkpt>
      <trkpt lat="42.448310963809490203857421875" lon="0.53739893250167369842529296875">
        <ele>1429.5999755859375</ele>
        <time>2039-05-14T10:18:56.000Z</time>
      </trkpt>
      <trkpt lat="42.4482469260692596435546875" lon="0.5373202264308929443359375">
        <ele>1430</ele>
        <time>2039-05-14T10:19:00.000Z</time>
      </trkpt>
      <trkpt lat="42.448235861957073211669921875" lon="0.537275634706020355224609375">
        <ele>1429.5999755859375</ele>
        <time>2039-05-14T10:19:04.000Z</time>
      </trkpt>
      <trkpt lat="42.44823007844388484954833984375" lon="0.537262894213199615478515625">
        <ele>1429.4000244140625</ele>
        <time>2039-05-14T10:19:05.000Z</time>
      </trkpt>
      <trkpt lat="42.44820878840982913970947265625" lon="0.53721117787063121795654296875">
        <ele>1429.4000244140625</ele>
        <time>2039-05-14T10:19:08.000Z</time>
      </trkpt>
      <trkpt lat="42.4481927789747714996337890625" lon="0.5371695198118686676025390625">
        <ele>1429.5999755859375</ele>
        <time>2039-05-14T10:19:10.000Z</time>
      </trkpt>
      <trkpt lat="42.44812798686325550079345703125" lon="0.53700171411037445068359375">
        <ele>1429.4000244140625</ele>
        <time>2039-05-14T10:19:17.000Z</time>
      </trkpt>
      <trkpt lat="42.44807836599647998809814453125" lon="0.53686735220253467559814453125">
        <ele>1429.4000244140625</ele>
        <time>2039-05-14T10:19:22.000Z</time>
      </trkpt>
      <trkpt lat="42.44807082228362560272216796875" lon="0.5368416197597980499267578125">
        <ele>1429.4000244140625</ele>
        <time>2039-05-14T10:19:23.000Z</time>
      </trkpt>
      <trkpt lat="42.44799320586025714874267578125" lon="0.53666266612708568572998046875">
        <ele>1429</ele>
        <time>2039-05-14T10:19:30.000Z</time>
      </trkpt>
      <trkpt lat="42.447899244725704193115234375" lon="0.536470972001552581787109375">
        <ele>1429.4000244140625</ele>
        <time>2039-05-14T10:19:37.000Z</time>
      </trkpt>
      <trkpt lat="42.4477995000779628753662109375" lon="0.5362478457391262054443359375">
        <ele>1428.4000244140625</ele>
        <time>2039-05-14T10:19:44.000Z</time>
      </trkpt>
      <trkpt lat="42.4477585963904857635498046875" lon="0.536171905696392059326171875">
        <ele>1427.199951171875</ele>
        <time>2039-05-14T10:19:47.000Z</time>
      </trkpt>
      <trkpt lat="42.44768039323389530181884765625" lon="0.5360450036823749542236328125">
        <ele>1426</ele>
        <time>2039-05-14T10:19:52.000Z</time>
      </trkpt>
      <trkpt lat="42.44764384813606739044189453125" lon="0.5359581671655178070068359375">
        <ele>1425.199951171875</ele>
        <time>2039-05-14T10:19:55.000Z</time>
      </trkpt>
      <trkpt lat="42.44763328693807125091552734375" lon="0.53593176417052745819091796875">
        <ele>1424.800048828125</ele>
        <time>2039-05-14T10:19:56.000Z</time>
      </trkpt>
      <trkpt lat="42.4475678242743015289306640625" lon="0.53578407503664493560791015625">
        <ele>1424</ele>
        <time>2039-05-14T10:20:01.000Z</time>
      </trkpt>
      <trkpt lat="42.44750822894275188446044921875" lon="0.5356356315314769744873046875">
        <ele>1423.800048828125</ele>
        <time>2039-05-14T10:20:06.000Z</time>
      </trkpt>
      <trkpt lat="42.447485513985157012939453125" lon="0.535582490265369415283203125">
        <ele>1422.800048828125</ele>
        <time>2039-05-14T10:20:08.000Z</time>
      </trkpt>
      <trkpt lat="42.4474628828465938568115234375" lon="0.53551702760159969329833984375">
        <ele>1422.5999755859375</ele>
        <time>2039-05-14T10:20:10.000Z</time>
      </trkpt>
      <trkpt lat="42.44744050316512584686279296875" lon="0.53540789522230625152587890625">
        <ele>1421.4000244140625</ele>
        <time>2039-05-14T10:20:13.000Z</time>
      </trkpt>
      <trkpt lat="42.4474236555397510528564453125" lon="0.5352778919041156768798828125">
        <ele>1420.199951171875</ele>
        <time>2039-05-14T10:20:16.000Z</time>
      </trkpt>
      <trkpt lat="42.4474315345287322998046875" lon="0.53518988192081451416015625">
        <ele>1419.5999755859375</ele>
        <time>2039-05-14T10:20:18.000Z</time>
      </trkpt>
      <trkpt lat="42.44744670577347278594970703125" lon="0.535104386508464813232421875">
        <ele>1419</ele>
        <time>2039-05-14T10:20:20.000Z</time>
      </trkpt>
      <trkpt lat="42.44748987257480621337890625" lon="0.5349630676209926605224609375">
        <ele>1417.800048828125</ele>
        <time>2039-05-14T10:20:24.000Z</time>
      </trkpt>
      <trkpt lat="42.447549887001514434814453125" lon="0.53483775816857814788818359375">
        <ele>1416.5999755859375</ele>
        <time>2039-05-14T10:20:28.000Z</time>
      </trkpt>
      <trkpt lat="42.44757712818682193756103515625" lon="0.53481361828744411468505859375">
        <ele>1416.5999755859375</ele>
        <time>2039-05-14T10:20:29.000Z</time>
      </trkpt>
      <trkpt lat="42.4477140046656131744384765625" lon="0.5347479879856109619140625">
        <ele>1415.199951171875</ele>
        <time>2039-05-14T10:20:34.000Z</time>
      </trkpt>
      <trkpt lat="42.44773931801319122314453125" lon="0.53473583422601222991943359375">
        <ele>1414.800048828125</ele>
        <time>2039-05-14T10:20:35.000Z</time>
      </trkpt>
      <trkpt lat="42.4477592669427394866943359375" lon="0.53472477011382579803466796875">
        <ele>1414</ele>
        <time>2039-05-14T10:20:36.000Z</time>
      </trkpt>
      <trkpt lat="42.44780578650534152984619140625" lon="0.53469224832952022552490234375">
        <ele>1412.800048828125</ele>
        <time>2039-05-14T10:20:38.000Z</time>
      </trkpt>
      <trkpt lat="42.44786110706627368927001953125" lon="0.53463340736925601959228515625">
        <ele>1412.199951171875</ele>
        <time>2039-05-14T10:20:41.000Z</time>
      </trkpt>
      <trkpt lat="42.44789580814540386199951171875" lon="0.5346039868891239166259765625">
        <ele>1411.5999755859375</ele>
        <time>2039-05-14T10:20:43.000Z</time>
      </trkpt>
      <trkpt lat="42.4479597620666027069091796875" lon="0.53462200798094272613525390625">
        <ele>1410.800048828125</ele>
        <time>2039-05-14T10:20:46.000Z</time>
      </trkpt>
      <trkpt lat="42.44798046536743640899658203125" lon="0.53464346565306186676025390625">
        <ele>1410.4000244140625</ele>
        <time>2039-05-14T10:20:47.000Z</time>
      </trkpt>
      <trkpt lat="42.44799940846860408782958984375" lon="0.534725189208984375">
        <ele>1409.5999755859375</ele>
        <time>2039-05-14T10:20:50.000Z</time>
      </trkpt>
      <trkpt lat="42.4479961395263671875" lon="0.53475159220397472381591796875">
        <ele>1409.5999755859375</ele>
        <time>2039-05-14T10:20:51.000Z</time>
      </trkpt>
      <trkpt lat="42.44796034879982471466064453125" lon="0.53482283838093280792236328125">
        <ele>1409.4000244140625</ele>
        <time>2039-05-14T10:20:54.000Z</time>
      </trkpt>
      <trkpt lat="42.447945512831211090087890625" lon="0.53483926691114902496337890625">
        <ele>1409.4000244140625</ele>
        <time>2039-05-14T10:20:55.000Z</time>
      </trkpt>
      <trkpt lat="42.44788038544356822967529296875" lon="0.53492040373384952545166015625">
        <ele>1408.4000244140625</ele>
        <time>2039-05-14T10:21:00.000Z</time>
      </trkpt>
      <trkpt lat="42.44786445982754230499267578125" lon="0.534933395683765411376953125">
        <ele>1407.800048828125</ele>
        <time>2039-05-14T10:21:01.000Z</time>
      </trkpt>
      <trkpt lat="42.44781936518847942352294921875" lon="0.53498695604503154754638671875">
        <ele>1406.5999755859375</ele>
        <time>2039-05-14T10:21:04.000Z</time>
      </trkpt>
      <trkpt lat="42.447809390723705291748046875" lon="0.53501646034419536590576171875">
        <ele>1406.4000244140625</ele>
        <time>2039-05-14T10:21:05.000Z</time>
      </trkpt>
      <trkpt lat="42.4477897770702838897705078125" lon="0.535161383450031280517578125">
        <ele>1405.5999755859375</ele>
        <time>2039-05-14T10:21:09.000Z</time>
      </trkpt>
      <trkpt lat="42.447788603603839874267578125" lon="0.53520052693784236907958984375">
        <ele>1405.4000244140625</ele>
        <time>2039-05-14T10:21:10.000Z</time>
      </trkpt>
      <trkpt lat="42.44781064800918102264404296875" lon="0.5354280956089496612548828125">
        <ele>1404.4000244140625</ele>
        <time>2039-05-14T10:21:16.000Z</time>
      </trkpt>
      <trkpt lat="42.44785741902887821197509765625" lon="0.53553454577922821044921875">
        <ele>1403</ele>
        <time>2039-05-14T10:21:19.000Z</time>
      </trkpt>
      <trkpt lat="42.44790167547762393951416015625" lon="0.53565130569040775299072265625">
        <ele>1402</ele>
        <time>2039-05-14T10:21:22.000Z</time>
      </trkpt>
      <trkpt lat="42.4479735083878040313720703125" lon="0.5358200334012508392333984375">
        <ele>1400.5999755859375</ele>
        <time>2039-05-14T10:21:27.000Z</time>
      </trkpt>
      <trkpt lat="42.44798633269965648651123046875" lon="0.5358505435287952423095703125">
        <ele>1400.800048828125</ele>
        <time>2039-05-14T10:21:28.000Z</time>
      </trkpt>
      <trkpt lat="42.4480358697474002838134765625" lon="0.53597979247570037841796875">
        <ele>1399.5999755859375</ele>
        <time>2039-05-14T10:21:32.000Z</time>
      </trkpt>
      <trkpt lat="42.4480747617781162261962890625" lon="0.53605313412845134735107421875">
        <ele>1398.199951171875</ele>
        <time>2039-05-14T10:21:35.000Z</time>
      </trkpt>
      <trkpt lat="42.44809311814606189727783203125" lon="0.53607442416250705718994140625">
        <ele>1397.5999755859375</ele>
        <time>2039-05-14T10:21:36.000Z</time>
      </trkpt>
      <trkpt lat="42.44811222888529300689697265625" lon="0.5360902659595012664794921875">
        <ele>1397.199951171875</ele>
        <time>2039-05-14T10:21:37.000Z</time>
      </trkpt>
      <trkpt lat="42.44815237820148468017578125" lon="0.53610694594681262969970703125">
        <ele>1397</ele>
        <time>2039-05-14T10:21:41.000Z</time>
      </trkpt>
      <trkpt lat="42.44815832935273647308349609375" lon="0.536102838814258575439453125">
        <ele>1397</ele>
        <time>2039-05-14T10:21:49.000Z</time>
      </trkpt>
      <trkpt lat="42.448160760104656219482421875" lon="0.53610241971909999847412109375">
        <ele>1397.199951171875</ele>
        <time>2039-05-14T10:21:59.000Z</time>
      </trkpt>
      <trkpt lat="42.44816184975206851959228515625" lon="0.53610141389071941375732421875">
        <ele>1396.800048828125</ele>
        <time>2039-05-14T10:22:15.000Z</time>
      </trkpt>
      <trkpt lat="42.44816042482852935791015625" lon="0.536100156605243682861328125">
        <ele>1397.199951171875</ele>
        <time>2039-05-14T10:22:28.000Z</time>
      </trkpt>
      <trkpt lat="42.4481610953807830810546875" lon="0.5360989831387996673583984375">
        <ele>1397.199951171875</ele>
        <time>2039-05-14T10:22:51.000Z</time>
      </trkpt>
      <trkpt lat="42.4481610953807830810546875" lon="0.53609705530107021331787109375">
        <ele>1397.199951171875</ele>
        <time>2039-05-14T10:23:19.000Z</time>
      </trkpt>
      <trkpt lat="42.448168806731700897216796875" lon="0.53609135560691356658935546875">
        <ele>1397</ele>
        <time>2039-05-14T10:24:00.000Z</time>
      </trkpt>
      <trkpt lat="42.44820577092468738555908203125" lon="0.53605497814714908599853515625">
        <ele>1397</ele>
        <time>2039-05-14T10:24:04.000Z</time>
      </trkpt>
      <trkpt lat="42.44821314699947834014892578125" lon="0.53601977415382862091064453125">
        <ele>1396.5999755859375</ele>
        <time>2039-05-14T10:24:06.000Z</time>
      </trkpt>
      <trkpt lat="42.4482147395610809326171875" lon="0.535995550453662872314453125">
        <ele>1396.4000244140625</ele>
        <time>2039-05-14T10:24:07.000Z</time>
      </trkpt>
      <trkpt lat="42.44818992912769317626953125" lon="0.535919107496738433837890625">
        <ele>1396.199951171875</ele>
        <time>2039-05-14T10:24:10.000Z</time>
      </trkpt>
      <trkpt lat="42.44817928411066532135009765625" lon="0.53589186631143093109130859375">
        <ele>1395.800048828125</ele>
        <time>2039-05-14T10:24:11.000Z</time>
      </trkpt>
      <trkpt lat="42.44814625941216945648193359375" lon="0.53578441031277179718017578125">
        <ele>1395</ele>
        <time>2039-05-14T10:24:15.000Z</time>
      </trkpt>
      <trkpt lat="42.44812614284455776214599609375" lon="0.53573529236018657684326171875">
        <ele>1393.800048828125</ele>
        <time>2039-05-14T10:24:17.000Z</time>
      </trkpt>
      <trkpt lat="42.44810837320983409881591796875" lon="0.5356818996369838714599609375">
        <ele>1393</ele>
        <time>2039-05-14T10:24:19.000Z</time>
      </trkpt>
      <trkpt lat="42.44809471070766448974609375" lon="0.53561367094516754150390625">
        <ele>1392.5999755859375</ele>
        <time>2039-05-14T10:24:21.000Z</time>
      </trkpt>
      <trkpt lat="42.44811080396175384521484375" lon="0.53550864569842815399169921875">
        <ele>1392.199951171875</ele>
        <time>2039-05-14T10:24:24.000Z</time>
      </trkpt>
      <trkpt lat="42.448127567768096923828125" lon="0.53547914139926433563232421875">
        <ele>1392.199951171875</ele>
        <time>2039-05-14T10:24:25.000Z</time>
      </trkpt>
      <trkpt lat="42.44817123748362064361572265625" lon="0.53543739952147006988525390625">
        <ele>1391.5999755859375</ele>
        <time>2039-05-14T10:24:27.000Z</time>
      </trkpt>
      <trkpt lat="42.4481932818889617919921875" lon="0.53542717359960079193115234375">
        <ele>1391.4000244140625</ele>
        <time>2039-05-14T10:24:28.000Z</time>
      </trkpt>
      <trkpt lat="42.448212392628192901611328125" lon="0.5354197137057781219482421875">
        <ele>1391</ele>
        <time>2039-05-14T10:24:29.000Z</time>
      </trkpt>
      <trkpt lat="42.448251284658908843994140625" lon="0.5354190431535243988037109375">
        <ele>1390.5999755859375</ele>
        <time>2039-05-14T10:24:31.000Z</time>
      </trkpt>
      <trkpt lat="42.448328398168087005615234375" lon="0.53542063571512699127197265625">
        <ele>1389.800048828125</ele>
        <time>2039-05-14T10:24:34.000Z</time>
      </trkpt>
      <trkpt lat="42.44834658689796924591064453125" lon="0.53542113862931728363037109375">
        <ele>1389.4000244140625</ele>
        <time>2039-05-14T10:24:35.000Z</time>
      </trkpt>
      <trkpt lat="42.448390088975429534912109375" lon="0.535424239933490753173828125">
        <ele>1389</ele>
        <time>2039-05-14T10:24:37.000Z</time>
      </trkpt>
      <trkpt lat="42.4484884925186634063720703125" lon="0.53541845642030239105224609375">
        <ele>1388.4000244140625</ele>
        <time>2039-05-14T10:24:41.000Z</time>
      </trkpt>
      <trkpt lat="42.4485099501907825469970703125" lon="0.53541745059192180633544921875">
        <ele>1388</ele>
        <time>2039-05-14T10:24:42.000Z</time>
      </trkpt>
      <trkpt lat="42.4485485069453716278076171875" lon="0.5354143492877483367919921875">
        <ele>1387</ele>
        <time>2039-05-14T10:24:44.000Z</time>
      </trkpt>
      <trkpt lat="42.44862151332199573516845703125" lon="0.5353680811822414398193359375">
        <ele>1386.5999755859375</ele>
        <time>2039-05-14T10:24:47.000Z</time>
      </trkpt>
      <trkpt lat="42.44868773035705089569091796875" lon="0.53529641591012477874755859375">
        <ele>1386</ele>
        <time>2039-05-14T10:24:50.000Z</time>
      </trkpt>
      <trkpt lat="42.44870491325855255126953125" lon="0.53525769151747226715087890625">
        <ele>1385.800048828125</ele>
        <time>2039-05-14T10:24:51.000Z</time>
      </trkpt>
      <trkpt lat="42.44874020107090473175048828125" lon="0.53513967432081699371337890625">
        <ele>1385</ele>
        <time>2039-05-14T10:24:54.000Z</time>
      </trkpt>
      <trkpt lat="42.4487593956291675567626953125" lon="0.53510597907006740570068359375">
        <ele>1384.5999755859375</ele>
        <time>2039-05-14T10:24:55.000Z</time>
      </trkpt>
      <trkpt lat="42.44878227822482585906982421875" lon="0.53506784141063690185546875">
        <ele>1384.4000244140625</ele>
        <time>2039-05-14T10:24:56.000Z</time>
      </trkpt>
      <trkpt lat="42.4488693661987781524658203125" lon="0.5349724553525447845458984375">
        <ele>1383.5999755859375</ele>
        <time>2039-05-14T10:24:59.000Z</time>
      </trkpt>
      <trkpt lat="42.44895838201045989990234375" lon="0.53490347228944301605224609375">
        <ele>1382.800048828125</ele>
        <time>2039-05-14T10:25:02.000Z</time>
      </trkpt>
      <trkpt lat="42.4490604735910892486572265625" lon="0.5348450504243373870849609375">
        <ele>1382.4000244140625</ele>
        <time>2039-05-14T10:25:06.000Z</time>
      </trkpt>
      <trkpt lat="42.4490903131663799285888671875" lon="0.534832477569580078125">
        <ele>1382.199951171875</ele>
        <time>2039-05-14T10:25:07.000Z</time>
      </trkpt>
      <trkpt lat="42.44921243749558925628662109375" lon="0.53479366935789585113525390625">
        <ele>1382</ele>
        <time>2039-05-14T10:25:12.000Z</time>
      </trkpt>
      <trkpt lat="42.44936632923781871795654296875" lon="0.53468520753085613250732421875">
        <ele>1381.5999755859375</ele>
        <time>2039-05-14T10:25:18.000Z</time>
      </trkpt>
      <trkpt lat="42.44951033033430576324462890625" lon="0.53448638878762722015380859375">
        <ele>1380.5999755859375</ele>
        <time>2039-05-14T10:25:24.000Z</time>
      </trkpt>
      <trkpt lat="42.4495395831763744354248046875" lon="0.534458644688129425048828125">
        <ele>1380.4000244140625</ele>
        <time>2039-05-14T10:25:25.000Z</time>
      </trkpt>
      <trkpt lat="42.4497127532958984375" lon="0.53437474183738231658935546875">
        <ele>1379.5999755859375</ele>
        <time>2039-05-14T10:25:30.000Z</time>
      </trkpt>
      <trkpt lat="42.449844181537628173828125" lon="0.53429109044373035430908203125">
        <ele>1378.5999755859375</ele>
        <time>2039-05-14T10:25:34.000Z</time>
      </trkpt>
      <trkpt lat="42.44991282932460308074951171875" lon="0.53422772325575351715087890625">
        <ele>1378.5999755859375</ele>
        <time>2039-05-14T10:25:36.000Z</time>
      </trkpt>
      <trkpt lat="42.4501110613346099853515625" lon="0.53407567553222179412841796875">
        <ele>1377.5999755859375</ele>
        <time>2039-05-14T10:25:42.000Z</time>
      </trkpt>
      <trkpt lat="42.45017166249454021453857421875" lon="0.534065030515193939208984375">
        <ele>1377.199951171875</ele>
        <time>2039-05-14T10:25:44.000Z</time>
      </trkpt>
      <trkpt lat="42.45024274103343486785888671875" lon="0.53407299332320690155029296875">
        <ele>1376.4000244140625</ele>
        <time>2039-05-14T10:25:47.000Z</time>
      </trkpt>
      <trkpt lat="42.45027308352291584014892578125" lon="0.53410149179399013519287109375">
        <ele>1376</ele>
        <time>2039-05-14T10:25:49.000Z</time>
      </trkpt>
      <trkpt lat="42.4503033421933650970458984375" lon="0.534156225621700286865234375">
        <ele>1375.5999755859375</ele>
        <time>2039-05-14T10:25:52.000Z</time>
      </trkpt>
      <trkpt lat="42.45039009489119052886962890625" lon="0.534186400473117828369140625">
        <ele>1375.199951171875</ele>
        <time>2039-05-14T10:25:57.000Z</time>
      </trkpt>
      <trkpt lat="42.4504994787275791168212890625" lon="0.53418246097862720489501953125">
        <ele>1374.800048828125</ele>
        <time>2039-05-14T10:26:02.000Z</time>
      </trkpt>
      <trkpt lat="42.4505122192203998565673828125" lon="0.53418464027345180511474609375">
        <ele>1374.5999755859375</ele>
        <time>2039-05-14T10:26:03.000Z</time>
      </trkpt>
      <trkpt lat="42.45052705518901348114013671875" lon="0.5341862328350543975830078125">
        <ele>1374.5999755859375</ele>
        <time>2039-05-14T10:26:04.000Z</time>
      </trkpt>
      <trkpt lat="42.45061355642974376678466796875" lon="0.53418396972119808197021484375">
        <ele>1374.4000244140625</ele>
        <time>2039-05-14T10:26:08.000Z</time>
      </trkpt>
      <trkpt lat="42.45066300965845584869384765625" lon="0.534179694950580596923828125">
        <ele>1373.5999755859375</ele>
        <time>2039-05-14T10:26:10.000Z</time>
      </trkpt>
      <trkpt lat="42.4507526122033596038818359375" lon="0.5341661162674427032470703125">
        <ele>1373.199951171875</ele>
        <time>2039-05-14T10:26:13.000Z</time>
      </trkpt>
      <trkpt lat="42.45088689029216766357421875" lon="0.53411029279232025146484375">
        <ele>1372.4000244140625</ele>
        <time>2039-05-14T10:26:17.000Z</time>
      </trkpt>
      <trkpt lat="42.450916059315204620361328125" lon="0.53409554064273834228515625">
        <ele>1372</ele>
        <time>2039-05-14T10:26:18.000Z</time>
      </trkpt>
      <trkpt lat="42.45094262994825839996337890625" lon="0.53407274186611175537109375">
        <ele>1371.199951171875</ele>
        <time>2039-05-14T10:26:19.000Z</time>
      </trkpt>
      <trkpt lat="42.4510551989078521728515625" lon="0.53393326699733734130859375">
        <ele>1370.800048828125</ele>
        <time>2039-05-14T10:26:23.000Z</time>
      </trkpt>
      <trkpt lat="42.4511502496898174285888671875" lon="0.53374777548015117645263671875">
        <ele>1369.800048828125</ele>
        <time>2039-05-14T10:26:27.000Z</time>
      </trkpt>
      <trkpt lat="42.4511653371155261993408203125" lon="0.53369832225143909454345703125">
        <ele>1369.5999755859375</ele>
        <time>2039-05-14T10:26:28.000Z</time>
      </trkpt>
      <trkpt lat="42.45125435292720794677734375" lon="0.5334694124758243560791015625">
        <ele>1368.5999755859375</ele>
        <time>2039-05-14T10:26:33.000Z</time>
      </trkpt>
      <trkpt lat="42.451278828084468841552734375" lon="0.533370338380336761474609375">
        <ele>1367.4000244140625</ele>
        <time>2039-05-14T10:26:35.000Z</time>
      </trkpt>
      <trkpt lat="42.45138100348412990570068359375" lon="0.53312868811190128326416015625">
        <ele>1366.800048828125</ele>
        <time>2039-05-14T10:26:41.000Z</time>
      </trkpt>
      <trkpt lat="42.45152416639029979705810546875" lon="0.53303028456866741180419921875">
        <ele>1366.5999755859375</ele>
        <time>2039-05-14T10:26:46.000Z</time>
      </trkpt>
      <trkpt lat="42.4517058022320270538330078125" lon="0.533008575439453125">
        <ele>1366.800048828125</ele>
        <time>2039-05-14T10:26:53.000Z</time>
      </trkpt>
      <trkpt lat="42.451853491365909576416015625" lon="0.5330654047429561614990234375">
        <ele>1366.800048828125</ele>
        <time>2039-05-14T10:26:59.000Z</time>
      </trkpt>
      <trkpt lat="42.45194309391081333160400390625" lon="0.53311577998101711273193359375">
        <ele>1367.199951171875</ele>
        <time>2039-05-14T10:27:04.000Z</time>
      </trkpt>
      <trkpt lat="42.45195700787007808685302734375" lon="0.5331198871135711669921875">
        <ele>1367.199951171875</ele>
        <time>2039-05-14T10:27:05.000Z</time>
      </trkpt>
      <trkpt lat="42.4520129151642322540283203125" lon="0.533151738345623016357421875">
        <ele>1367.199951171875</ele>
        <time>2039-05-14T10:27:09.000Z</time>
      </trkpt>
      <trkpt lat="42.45204350911080837249755859375" lon="0.5331666581332683563232421875">
        <ele>1367</ele>
        <time>2039-05-14T10:27:11.000Z</time>
      </trkpt>
      <trkpt lat="42.45212917216122150421142578125" lon="0.53318048827350139617919921875">
        <ele>1366.800048828125</ele>
        <time>2039-05-14T10:27:16.000Z</time>
      </trkpt>
      <trkpt lat="42.45222036726772785186767578125" lon="0.53319163620471954345703125">
        <ele>1367</ele>
        <time>2039-05-14T10:27:22.000Z</time>
      </trkpt>
      <trkpt lat="42.45228272862732410430908203125" lon="0.5331938154995441436767578125">
        <ele>1366.800048828125</ele>
        <time>2039-05-14T10:27:29.000Z</time>
      </trkpt>
      <trkpt lat="42.45238398201763629913330078125" lon="0.53319138474762439727783203125">
        <ele>1366.800048828125</ele>
        <time>2039-05-14T10:27:35.000Z</time>
      </trkpt>
      <trkpt lat="42.45247400365769863128662109375" lon="0.5331896245479583740234375">
        <ele>1367</ele>
        <time>2039-05-14T10:27:40.000Z</time>
      </trkpt>
      <trkpt lat="42.45257307775318622589111328125" lon="0.533172190189361572265625">
        <ele>1367</ele>
        <time>2039-05-14T10:27:44.000Z</time>
      </trkpt>
      <trkpt lat="42.4526962079107761383056640625" lon="0.53311946801841259002685546875">
        <ele>1367</ele>
        <time>2039-05-14T10:27:49.000Z</time>
      </trkpt>
      <trkpt lat="42.45276418514549732208251953125" lon="0.53304922766983509063720703125">
        <ele>1366.4000244140625</ele>
        <time>2039-05-14T10:27:52.000Z</time>
      </trkpt>
      <trkpt lat="42.4528068490326404571533203125" lon="0.5330010317265987396240234375">
        <ele>1366.4000244140625</ele>
        <time>2039-05-14T10:27:54.000Z</time>
      </trkpt>
      <trkpt lat="42.45290265418589115142822265625" lon="0.53286164067685604095458984375">
        <ele>1366.5999755859375</ele>
        <time>2039-05-14T10:27:58.000Z</time>
      </trkpt>
      <trkpt lat="42.452967949211597442626953125" lon="0.53267707116901874542236328125">
        <ele>1365.4000244140625</ele>
        <time>2039-05-14T10:28:02.000Z</time>
      </trkpt>
      <trkpt lat="42.452990077435970306396484375" lon="0.532577075064182281494140625">
        <ele>1364.5999755859375</ele>
        <time>2039-05-14T10:28:04.000Z</time>
      </trkpt>
      <trkpt lat="42.45299938134849071502685546875" lon="0.532528795301914215087890625">
        <ele>1364.199951171875</ele>
        <time>2039-05-14T10:28:05.000Z</time>
      </trkpt>
      <trkpt lat="42.45304883457720279693603515625" lon="0.53229871205985546112060546875">
        <ele>1364</ele>
        <time>2039-05-14T10:28:10.000Z</time>
      </trkpt>
      <trkpt lat="42.45308420620858669281005859375" lon="0.53220064379274845123291015625">
        <ele>1364.199951171875</ele>
        <time>2039-05-14T10:28:12.000Z</time>
      </trkpt>
      <trkpt lat="42.45315729640424251556396484375" lon="0.5321289785206317901611328125">
        <ele>1363</ele>
        <time>2039-05-14T10:28:14.000Z</time>
      </trkpt>
      <trkpt lat="42.453280426561832427978515625" lon="0.53209922276437282562255859375">
        <ele>1362.4000244140625</ele>
        <time>2039-05-14T10:28:17.000Z</time>
      </trkpt>
      <trkpt lat="42.4533201567828655242919921875" lon="0.53209804929792881011962890625">
        <ele>1362.4000244140625</ele>
        <time>2039-05-14T10:28:18.000Z</time>
      </trkpt>
      <trkpt lat="42.45351453311741352081298828125" lon="0.53205362521111965179443359375">
        <ele>1362</ele>
        <time>2039-05-14T10:28:24.000Z</time>
      </trkpt>
      <trkpt lat="42.45354085229337215423583984375" lon="0.5320397950708866119384765625">
        <ele>1361.800048828125</ele>
        <time>2039-05-14T10:28:25.000Z</time>
      </trkpt>
      <trkpt lat="42.4536225758492946624755859375" lon="0.53199511952698230743408203125">
        <ele>1361</ele>
        <time>2039-05-14T10:28:28.000Z</time>
      </trkpt>
      <trkpt lat="42.45370765216648578643798828125" lon="0.531958155333995819091796875">
        <ele>1360.800048828125</ele>
        <time>2039-05-14T10:28:31.000Z</time>
      </trkpt>
      <trkpt lat="42.4537593685090541839599609375" lon="0.53193929605185985565185546875">
        <ele>1360.4000244140625</ele>
        <time>2039-05-14T10:28:33.000Z</time>
      </trkpt>
      <trkpt lat="42.4539327062666416168212890625" lon="0.53182396106421947479248046875">
        <ele>1360.199951171875</ele>
        <time>2039-05-14T10:28:39.000Z</time>
      </trkpt>
      <trkpt lat="42.4539645574986934661865234375" lon="0.531795211136341094970703125">
        <ele>1359.4000244140625</ele>
        <time>2039-05-14T10:28:40.000Z</time>
      </trkpt>
      <trkpt lat="42.454140074551105499267578125" lon="0.5316599272191524505615234375">
        <ele>1358.5999755859375</ele>
        <time>2039-05-14T10:28:45.000Z</time>
      </trkpt>
      <trkpt lat="42.45420754887163639068603515625" lon="0.53160117007791996002197265625">
        <ele>1358.199951171875</ele>
        <time>2039-05-14T10:28:47.000Z</time>
      </trkpt>
      <trkpt lat="42.4542874284088611602783203125" lon="0.5315241403877735137939453125">
        <ele>1357.199951171875</ele>
        <time>2039-05-14T10:28:50.000Z</time>
      </trkpt>
      <trkpt lat="42.4543367139995098114013671875" lon="0.53147845901548862457275390625">
        <ele>1357.199951171875</ele>
        <time>2039-05-14T10:28:52.000Z</time>
      </trkpt>
      <trkpt lat="42.454492114484310150146484375" lon="0.5313672311604022979736328125">
        <ele>1356</ele>
        <time>2039-05-14T10:28:58.000Z</time>
      </trkpt>
      <trkpt lat="42.4545476026833057403564453125" lon="0.53133294917643070220947265625">
        <ele>1355.800048828125</ele>
        <time>2039-05-14T10:29:00.000Z</time>
      </trkpt>
      <trkpt lat="42.4548054300248622894287109375" lon="0.53114837966859340667724609375">
        <ele>1355.199951171875</ele>
        <time>2039-05-14T10:29:10.000Z</time>
      </trkpt>
      <trkpt lat="42.45488195680081844329833984375" lon="0.5311204679310321807861328125">
        <ele>1355</ele>
        <time>2039-05-14T10:29:13.000Z</time>
      </trkpt>
      <trkpt lat="42.4549485929310321807861328125" lon="0.53109339438378810882568359375">
        <ele>1354.199951171875</ele>
        <time>2039-05-14T10:29:16.000Z</time>
      </trkpt>
      <trkpt lat="42.4550766684114933013916015625" lon="0.531018711626529693603515625">
        <ele>1354.4000244140625</ele>
        <time>2039-05-14T10:29:22.000Z</time>
      </trkpt>
      <trkpt lat="42.45519988238811492919921875" lon="0.53094084374606609344482421875">
        <ele>1354.199951171875</ele>
        <time>2039-05-14T10:29:28.000Z</time>
      </trkpt>
      <trkpt lat="42.455319575965404510498046875" lon="0.5308371596038341522216796875">
        <ele>1353.800048828125</ele>
        <time>2039-05-14T10:29:34.000Z</time>
      </trkpt>
      <trkpt lat="42.45534094981849193572998046875" lon="0.53081276826560497283935546875">
        <ele>1353.800048828125</ele>
        <time>2039-05-14T10:29:35.000Z</time>
      </trkpt>
      <trkpt lat="42.45537179522216320037841796875" lon="0.53069978021085262298583984375">
        <ele>1353.800048828125</ele>
        <time>2039-05-14T10:29:39.000Z</time>
      </trkpt>
      <trkpt lat="42.45539962314069271087646484375" lon="0.53053951822221279144287109375">
        <ele>1353.800048828125</ele>
        <time>2039-05-14T10:29:44.000Z</time>
      </trkpt>
      <trkpt lat="42.45550833642482757568359375" lon="0.5303654260933399200439453125">
        <ele>1352.5999755859375</ele>
        <time>2039-05-14T10:29:50.000Z</time>
      </trkpt>
      <trkpt lat="42.4556337296962738037109375" lon="0.53021664731204509735107421875">
        <ele>1351.5999755859375</ele>
        <time>2039-05-14T10:29:56.000Z</time>
      </trkpt>
      <trkpt lat="42.45564890094101428985595703125" lon="0.530192591249942779541015625">
        <ele>1351.4000244140625</ele>
        <time>2039-05-14T10:29:57.000Z</time>
      </trkpt>
      <trkpt lat="42.45569466613233089447021484375" lon="0.53012545220553874969482421875">
        <ele>1350.5999755859375</ele>
        <time>2039-05-14T10:30:00.000Z</time>
      </trkpt>
      <trkpt lat="42.4557274393737316131591796875" lon="0.5300874821841716766357421875">
        <ele>1349.800048828125</ele>
        <time>2039-05-14T10:30:02.000Z</time>
      </trkpt>
      <trkpt lat="42.45574277825653553009033203125" lon="0.53006811998784542083740234375">
        <ele>1349.199951171875</ele>
        <time>2039-05-14T10:30:03.000Z</time>
      </trkpt>
      <trkpt lat="42.45578988455235958099365234375" lon="0.5299835465848445892333984375">
        <ele>1348.199951171875</ele>
        <time>2039-05-14T10:30:07.000Z</time>
      </trkpt>
      <trkpt lat="42.45580111630260944366455078125" lon="0.5299607478082180023193359375">
        <ele>1347.5999755859375</ele>
        <time>2039-05-14T10:30:08.000Z</time>
      </trkpt>
      <trkpt lat="42.45582659728825092315673828125" lon="0.5299077741801738739013671875">
        <ele>1347.199951171875</ele>
        <time>2039-05-14T10:30:10.000Z</time>
      </trkpt>
      <trkpt lat="42.45586230419576168060302734375" lon="0.52982420660555362701416015625">
        <ele>1346.199951171875</ele>
        <time>2039-05-14T10:30:13.000Z</time>
      </trkpt>
      <trkpt lat="42.45589918456971645355224609375" lon="0.52978028543293476104736328125">
        <ele>1346</ele>
        <time>2039-05-14T10:30:15.000Z</time>
      </trkpt>
      <trkpt lat="42.4559540860354900360107421875" lon="0.52971792407333850860595703125">
        <ele>1344.800048828125</ele>
        <time>2039-05-14T10:30:18.000Z</time>
      </trkpt>
      <trkpt lat="42.4559688381850719451904296875" lon="0.52969763986766338348388671875">
        <ele>1344.5999755859375</ele>
        <time>2039-05-14T10:30:19.000Z</time>
      </trkpt>
      <trkpt lat="42.45599775575101375579833984375" lon="0.52965522743761539459228515625">
        <ele>1344</ele>
        <time>2039-05-14T10:30:21.000Z</time>
      </trkpt>
      <trkpt lat="42.4560094065964221954345703125" lon="0.5296321772038936614990234375">
        <ele>1343.5999755859375</ele>
        <time>2039-05-14T10:30:22.000Z</time>
      </trkpt>
      <trkpt lat="42.4560442753136157989501953125" lon="0.52958398126065731048583984375">
        <ele>1342.800048828125</ele>
        <time>2039-05-14T10:30:24.000Z</time>
      </trkpt>
      <trkpt lat="42.45605542324483394622802734375" lon="0.52955866791307926177978515625">
        <ele>1342.5999755859375</ele>
        <time>2039-05-14T10:30:25.000Z</time>
      </trkpt>
      <trkpt lat="42.45611317455768585205078125" lon="0.52942053414881229400634765625">
        <ele>1342.4000244140625</ele>
        <time>2039-05-14T10:30:30.000Z</time>
      </trkpt>
      <trkpt lat="42.4561844207346439361572265625" lon="0.52913102321326732635498046875">
        <ele>1341.800048828125</ele>
        <time>2039-05-14T10:30:38.000Z</time>
      </trkpt>
      <trkpt lat="42.456306628882884979248046875" lon="0.52885056473314762115478515625">
        <ele>1341.4000244140625</ele>
        <time>2039-05-14T10:30:46.000Z</time>
      </trkpt>
      <trkpt lat="42.456415258347988128662109375" lon="0.52863129414618015289306640625">
        <ele>1340.5999755859375</ele>
        <time>2039-05-14T10:30:53.000Z</time>
      </trkpt>
      <trkpt lat="42.456418611109256744384765625" lon="0.52856708876788616180419921875">
        <ele>1340.4000244140625</ele>
        <time>2039-05-14T10:30:55.000Z</time>
      </trkpt>
      <trkpt lat="42.45641970075666904449462890625" lon="0.52841135300695896148681640625">
        <ele>1340.5999755859375</ele>
        <time>2039-05-14T10:31:00.000Z</time>
      </trkpt>
      <trkpt lat="42.45644283480942249298095703125" lon="0.52819711156189441680908203125">
        <ele>1341</ele>
        <time>2039-05-14T10:31:07.000Z</time>
      </trkpt>
      <trkpt lat="42.45649631135165691375732421875" lon="0.52794381044805049896240234375">
        <ele>1341</ele>
        <time>2039-05-14T10:31:16.000Z</time>
      </trkpt>
      <trkpt lat="42.4565203674137592315673828125" lon="0.52765077911317348480224609375">
        <ele>1340</ele>
        <time>2039-05-14T10:31:23.000Z</time>
      </trkpt>
      <trkpt lat="42.4565220437943935394287109375" lon="0.527594871819019317626953125">
        <ele>1339.5999755859375</ele>
        <time>2039-05-14T10:31:24.000Z</time>
      </trkpt>
      <trkpt lat="42.45652916841208934783935546875" lon="0.5275407247245311737060546875">
        <ele>1339.4000244140625</ele>
        <time>2039-05-14T10:31:25.000Z</time>
      </trkpt>
      <trkpt lat="42.45657174848020076751708984375" lon="0.52740820683538913726806640625">
        <ele>1339.199951171875</ele>
        <time>2039-05-14T10:31:28.000Z</time>
      </trkpt>
      <trkpt lat="42.4565884284675121307373046875" lon="0.52737182937562465667724609375">
        <ele>1339.199951171875</ele>
        <time>2039-05-14T10:31:29.000Z</time>
      </trkpt>
      <trkpt lat="42.4566610157489776611328125" lon="0.52716848440468311309814453125">
        <ele>1339.4000244140625</ele>
        <time>2039-05-14T10:31:35.000Z</time>
      </trkpt>
      <trkpt lat="42.4567604251205921173095703125" lon="0.52693680860102176666259765625">
        <ele>1340.4000244140625</ele>
        <time>2039-05-14T10:31:43.000Z</time>
      </trkpt>
      <trkpt lat="42.45677291415631771087646484375" lon="0.5269093997776508331298828125">
        <ele>1340.4000244140625</ele>
        <time>2039-05-14T10:31:44.000Z</time>
      </trkpt>
      <trkpt lat="42.4568499438464641571044921875" lon="0.5266794003546237945556640625">
        <ele>1340.199951171875</ele>
        <time>2039-05-14T10:31:52.000Z</time>
      </trkpt>
      <trkpt lat="42.45688087306916713714599609375" lon="0.526477731764316558837890625">
        <ele>1341</ele>
        <time>2039-05-14T10:31:59.000Z</time>
      </trkpt>
      <trkpt lat="42.4569391272962093353271484375" lon="0.526289977133274078369140625">
        <ele>1341.800048828125</ele>
        <time>2039-05-14T10:32:06.000Z</time>
      </trkpt>
      <trkpt lat="42.45695128105580806732177734375" lon="0.52626491524279117584228515625">
        <ele>1342</ele>
        <time>2039-05-14T10:32:07.000Z</time>
      </trkpt>
      <trkpt lat="42.45701381005346775054931640625" lon="0.526110939681529998779296875">
        <ele>1342.4000244140625</ele>
        <time>2039-05-14T10:32:13.000Z</time>
      </trkpt>
      <trkpt lat="42.45705999433994293212890625" lon="0.525988899171352386474609375">
        <ele>1343</ele>
        <time>2039-05-14T10:32:18.000Z</time>
      </trkpt>
      <trkpt lat="42.45709695853292942047119140625" lon="0.52588655613362789154052734375">
        <ele>1343.4000244140625</ele>
        <time>2039-05-14T10:32:22.000Z</time>
      </trkpt>
      <trkpt lat="42.45713400654494762420654296875" lon="0.5257500149309635162353515625">
        <ele>1344</ele>
        <time>2039-05-14T10:32:27.000Z</time>
      </trkpt>
      <trkpt lat="42.4571433104574680328369140625" lon="0.52563828416168689727783203125">
        <ele>1344.4000244140625</ele>
        <time>2039-05-14T10:32:31.000Z</time>
      </trkpt>
      <trkpt lat="42.4571563862264156341552734375" lon="0.52550568245351314544677734375">
        <ele>1344.800048828125</ele>
        <time>2039-05-14T10:32:36.000Z</time>
      </trkpt>
      <trkpt lat="42.45715797878801822662353515625" lon="0.52542923949658870697021484375">
        <ele>1345.4000244140625</ele>
        <time>2039-05-14T10:32:39.000Z</time>
      </trkpt>
      <trkpt lat="42.457156218588352203369140625" lon="0.52540426142513751983642578125">
        <ele>1345.199951171875</ele>
        <time>2039-05-14T10:32:40.000Z</time>
      </trkpt>
      <trkpt lat="42.457150854170322418212890625" lon="0.5253550596535205841064453125">
        <ele>1345.4000244140625</ele>
        <time>2039-05-14T10:32:42.000Z</time>
      </trkpt>
      <trkpt lat="42.45711472816765308380126953125" lon="0.5251642875373363494873046875">
        <ele>1346</ele>
        <time>2039-05-14T10:32:50.000Z</time>
      </trkpt>
      <trkpt lat="42.4570946954190731048583984375" lon="0.52502858452498912811279296875">
        <ele>1346.4000244140625</ele>
        <time>2039-05-14T10:32:55.000Z</time>
      </trkpt>
      <trkpt lat="42.457105927169322967529296875" lon="0.524822138249874114990234375">
        <ele>1346.800048828125</ele>
        <time>2039-05-14T10:33:02.000Z</time>
      </trkpt>
      <trkpt lat="42.45714523829519748687744140625" lon="0.5246747843921184539794921875">
        <ele>1346.4000244140625</ele>
        <time>2039-05-14T10:33:07.000Z</time>
      </trkpt>
      <trkpt lat="42.45716619305312633514404296875" lon="0.52461393177509307861328125">
        <ele>1346.4000244140625</ele>
        <time>2039-05-14T10:33:09.000Z</time>
      </trkpt>
      <trkpt lat="42.45724967680871486663818359375" lon="0.524390973150730133056640625">
        <ele>1346.5999755859375</ele>
        <time>2039-05-14T10:33:16.000Z</time>
      </trkpt>
      <trkpt lat="42.457290329039096832275390625" lon="0.5242382548749446868896484375">
        <ele>1346.5999755859375</ele>
        <time>2039-05-14T10:33:21.000Z</time>
      </trkpt>
      <trkpt lat="42.45734028518199920654296875" lon="0.524041615426540374755859375">
        <ele>1346.4000244140625</ele>
        <time>2039-05-14T10:33:27.000Z</time>
      </trkpt>
      <trkpt lat="42.45736442506313323974609375" lon="0.523845814168453216552734375">
        <ele>1346.5999755859375</ele>
        <time>2039-05-14T10:33:33.000Z</time>
      </trkpt>
      <trkpt lat="42.45737473480403423309326171875" lon="0.5236632563173770904541015625">
        <ele>1346.5999755859375</ele>
        <time>2039-05-14T10:33:38.000Z</time>
      </trkpt>
      <trkpt lat="42.4573964439332485198974609375" lon="0.5234057642519474029541015625">
        <ele>1346</ele>
        <time>2039-05-14T10:33:46.000Z</time>
      </trkpt>
      <trkpt lat="42.4574272893369197845458984375" lon="0.52315254695713520050048828125">
        <ele>1346.4000244140625</ele>
        <time>2039-05-14T10:33:53.000Z</time>
      </trkpt>
      <trkpt lat="42.457437179982662200927734375" lon="0.523033104836940765380859375">
        <ele>1345.800048828125</ele>
        <time>2039-05-14T10:33:57.000Z</time>
      </trkpt>
      <trkpt lat="42.45744531042873859405517578125" lon="0.52297434769570827484130859375">
        <ele>1345.800048828125</ele>
        <time>2039-05-14T10:33:59.000Z</time>
      </trkpt>
      <trkpt lat="42.4574695341289043426513671875" lon="0.52281006239354610443115234375">
        <ele>1345.800048828125</ele>
        <time>2039-05-14T10:34:04.000Z</time>
      </trkpt>
      <trkpt lat="42.4574871361255645751953125" lon="0.5226057954132556915283203125">
        <ele>1346.4000244140625</ele>
        <time>2039-05-14T10:34:10.000Z</time>
      </trkpt>
      <trkpt lat="42.4575298838317394256591796875" lon="0.52242918871343135833740234375">
        <ele>1346.4000244140625</ele>
        <time>2039-05-14T10:34:15.000Z</time>
      </trkpt>
      <trkpt lat="42.45760138146579265594482421875" lon="0.52222735248506069183349609375">
        <ele>1346.5999755859375</ele>
        <time>2039-05-14T10:34:21.000Z</time>
      </trkpt>
      <trkpt lat="42.45771068148314952850341796875" lon="0.5219962634146213531494140625">
        <ele>1346.4000244140625</ele>
        <time>2039-05-14T10:34:28.000Z</time>
      </trkpt>
      <trkpt lat="42.457777820527553558349609375" lon="0.5218044854700565338134765625">
        <ele>1346.800048828125</ele>
        <time>2039-05-14T10:34:34.000Z</time>
      </trkpt>
      <trkpt lat="42.4577887170016765594482421875" lon="0.52177187986671924591064453125">
        <ele>1347</ele>
        <time>2039-05-14T10:34:35.000Z</time>
      </trkpt>
      <trkpt lat="42.45785652659833431243896484375" lon="0.521546490490436553955078125">
        <ele>1347.4000244140625</ele>
        <time>2039-05-14T10:34:42.000Z</time>
      </trkpt>
      <trkpt lat="42.457926683127880096435546875" lon="0.521333925426006317138671875">
        <ele>1348</ele>
        <time>2039-05-14T10:34:49.000Z</time>
      </trkpt>
      <trkpt lat="42.45794286020100116729736328125" lon="0.52127583883702754974365234375">
        <ele>1348.199951171875</ele>
        <time>2039-05-14T10:34:51.000Z</time>
      </trkpt>
      <trkpt lat="42.45797504670917987823486328125" lon="0.5211346037685871124267578125">
        <ele>1348.4000244140625</ele>
        <time>2039-05-14T10:34:56.000Z</time>
      </trkpt>
      <trkpt lat="42.4579831771552562713623046875" lon="0.521107614040374755859375">
        <ele>1348.800048828125</ele>
        <time>2039-05-14T10:34:57.000Z</time>
      </trkpt>
      <trkpt lat="42.45800958015024662017822265625" lon="0.52099789492785930633544921875">
        <ele>1349.199951171875</ele>
        <time>2039-05-14T10:35:01.000Z</time>
      </trkpt>
      <trkpt lat="42.45802148245275020599365234375" lon="0.520920194685459136962890625">
        <ele>1349.800048828125</ele>
        <time>2039-05-14T10:35:04.000Z</time>
      </trkpt>
      <trkpt lat="42.45803506113588809967041015625" lon="0.52086981944739818572998046875">
        <ele>1350</ele>
        <time>2039-05-14T10:35:06.000Z</time>
      </trkpt>
      <trkpt lat="42.45806305669248104095458984375" lon="0.520745180547237396240234375">
        <ele>1350.5999755859375</ele>
        <time>2039-05-14T10:35:11.000Z</time>
      </trkpt>
      <trkpt lat="42.45808459818363189697265625" lon="0.52070402540266513824462890625">
        <ele>1350.800048828125</ele>
        <time>2039-05-14T10:35:13.000Z</time>
      </trkpt>
      <trkpt lat="42.458111755549907684326171875" lon="0.52065775729715824127197265625">
        <ele>1351.199951171875</ele>
        <time>2039-05-14T10:35:15.000Z</time>
      </trkpt>
      <trkpt lat="42.4581417627632617950439453125" lon="0.52061350084841251373291015625">
        <ele>1351.800048828125</ele>
        <time>2039-05-14T10:35:17.000Z</time>
      </trkpt>
      <trkpt lat="42.45819062925875186920166015625" lon="0.52055683918297290802001953125">
        <ele>1352.199951171875</ele>
        <time>2039-05-14T10:35:20.000Z</time>
      </trkpt>
      <trkpt lat="42.4583000130951404571533203125" lon="0.52045248448848724365234375">
        <ele>1353</ele>
        <time>2039-05-14T10:35:27.000Z</time>
      </trkpt>
      <trkpt lat="42.45833043940365314483642578125" lon="0.52041501738131046295166015625">
        <ele>1353.199951171875</ele>
        <time>2039-05-14T10:35:29.000Z</time>
      </trkpt>
      <trkpt lat="42.45844694785773754119873046875" lon="0.52018702961504459381103515625">
        <ele>1353.199951171875</ele>
        <time>2039-05-14T10:35:38.000Z</time>
      </trkpt>
      <trkpt lat="42.4585404060781002044677734375" lon="0.5199587903916835784912109375">
        <ele>1352.199951171875</ele>
        <time>2039-05-14T10:35:44.000Z</time>
      </trkpt>
      <trkpt lat="42.45856312103569507598876953125" lon="0.51992082037031650543212890625">
        <ele>1351.5999755859375</ele>
        <time>2039-05-14T10:35:45.000Z</time>
      </trkpt>
      <trkpt lat="42.458645515143871307373046875" lon="0.5197683535516262054443359375">
        <ele>1350.800048828125</ele>
        <time>2039-05-14T10:35:49.000Z</time>
      </trkpt>
      <trkpt lat="42.4586647935211658477783203125" lon="0.5197314731776714324951171875">
        <ele>1350.4000244140625</ele>
        <time>2039-05-14T10:35:50.000Z</time>
      </trkpt>
      <trkpt lat="42.45871667750179767608642578125" lon="0.5195725522935390472412109375">
        <ele>1349.4000244140625</ele>
        <time>2039-05-14T10:35:54.000Z</time>
      </trkpt>
      <trkpt lat="42.45884492062032222747802734375" lon="0.51924817264080047607421875">
        <ele>1350</ele>
        <time>2039-05-14T10:36:02.000Z</time>
      </trkpt>
      <trkpt lat="42.45894952677190303802490234375" lon="0.519034601747989654541015625">
        <ele>1349.800048828125</ele>
        <time>2039-05-14T10:36:08.000Z</time>
      </trkpt>
      <trkpt lat="42.45903720147907733917236328125" lon="0.5188342742621898651123046875">
        <ele>1349.5999755859375</ele>
        <time>2039-05-14T10:36:15.000Z</time>
      </trkpt>
      <trkpt lat="42.45907324366271495819091796875" lon="0.5186156742274761199951171875">
        <ele>1349.800048828125</ele>
        <time>2039-05-14T10:36:23.000Z</time>
      </trkpt>
      <trkpt lat="42.45909118093550205230712890625" lon="0.51851467229425907135009765625">
        <ele>1350.800048828125</ele>
        <time>2039-05-14T10:36:27.000Z</time>
      </trkpt>
      <trkpt lat="42.45909486897289752960205078125" lon="0.51844594068825244903564453125">
        <ele>1351</ele>
        <time>2039-05-14T10:36:30.000Z</time>
      </trkpt>
      <trkpt lat="42.4591040052473545074462890625" lon="0.518264807760715484619140625">
        <ele>1351.4000244140625</ele>
        <time>2039-05-14T10:36:37.000Z</time>
      </trkpt>
      <trkpt lat="42.4591821245849132537841796875" lon="0.51806665956974029541015625">
        <ele>1351.5999755859375</ele>
        <time>2039-05-14T10:36:44.000Z</time>
      </trkpt>
      <trkpt lat="42.459222860634326934814453125" lon="0.5180151946842670440673828125">
        <ele>1351.800048828125</ele>
        <time>2039-05-14T10:36:46.000Z</time>
      </trkpt>
      <trkpt lat="42.4593051709234714508056640625" lon="0.51791469566524028778076171875">
        <ele>1352.199951171875</ele>
        <time>2039-05-14T10:36:50.000Z</time>
      </trkpt>
      <trkpt lat="42.4594620801508426666259765625" lon="0.517706573009490966796875">
        <ele>1352.199951171875</ele>
        <time>2039-05-14T10:36:58.000Z</time>
      </trkpt>
      <trkpt lat="42.459603734314441680908203125" lon="0.51770883612334728240966796875">
        <ele>1351.4000244140625</ele>
        <time>2039-05-14T10:37:03.000Z</time>
      </trkpt>
      <trkpt lat="42.4597058258950710296630859375" lon="0.5177240073680877685546875">
        <ele>1350.800048828125</ele>
        <time>2039-05-14T10:37:06.000Z</time>
      </trkpt>
      <trkpt lat="42.459801547229290008544921875" lon="0.5176916532218456268310546875">
        <ele>1350.199951171875</ele>
        <time>2039-05-14T10:37:09.000Z</time>
      </trkpt>
      <trkpt lat="42.46007923968136310577392578125" lon="0.51754773594439029693603515625">
        <ele>1349.800048828125</ele>
        <time>2039-05-14T10:37:18.000Z</time>
      </trkpt>
      <trkpt lat="42.46010907925665378570556640625" lon="0.5175268650054931640625">
        <ele>1349.4000244140625</ele>
        <time>2039-05-14T10:37:19.000Z</time>
      </trkpt>
      <trkpt lat="42.46027998626232147216796875" lon="0.51739937625825405120849609375">
        <ele>1348.199951171875</ele>
        <time>2039-05-14T10:37:25.000Z</time>
      </trkpt>
      <trkpt lat="42.46032482944428920745849609375" lon="0.517349503934383392333984375">
        <ele>1348.4000244140625</ele>
        <time>2039-05-14T10:37:27.000Z</time>
      </trkpt>
      <trkpt lat="42.4604132585227489471435546875" lon="0.51728420890867710113525390625">
        <ele>1347</ele>
        <time>2039-05-14T10:37:31.000Z</time>
      </trkpt>
      <trkpt lat="42.46045692823827266693115234375" lon="0.51725638099014759063720703125">
        <ele>1346.199951171875</ele>
        <time>2039-05-14T10:37:33.000Z</time>
      </trkpt>
      <trkpt lat="42.4605145119130611419677734375" lon="0.5171924270689487457275390625">
        <ele>1345.800048828125</ele>
        <time>2039-05-14T10:37:36.000Z</time>
      </trkpt>
      <trkpt lat="42.46056790463626384735107421875" lon="0.5171193368732929229736328125">
        <ele>1345.4000244140625</ele>
        <time>2039-05-14T10:37:39.000Z</time>
      </trkpt>
      <trkpt lat="42.46058173477649688720703125" lon="0.5170905031263828277587890625">
        <ele>1344.800048828125</ele>
        <time>2039-05-14T10:37:40.000Z</time>
      </trkpt>
      <trkpt lat="42.4606119096279144287109375" lon="0.51697625778615474700927734375">
        <ele>1343.800048828125</ele>
        <time>2039-05-14T10:37:44.000Z</time>
      </trkpt>
      <trkpt lat="42.46061568148434162139892578125" lon="0.51694281399250030517578125">
        <ele>1343.5999755859375</ele>
        <time>2039-05-14T10:37:45.000Z</time>
      </trkpt>
      <trkpt lat="42.46064208447933197021484375" lon="0.51674567162990570068359375">
        <ele>1343.199951171875</ele>
        <time>2039-05-14T10:37:51.000Z</time>
      </trkpt>
      <trkpt lat="42.46064853854477405548095703125" lon="0.516712479293346405029296875">
        <ele>1342.4000244140625</ele>
        <time>2039-05-14T10:37:52.000Z</time>
      </trkpt>
      <trkpt lat="42.4607079662382602691650390625" lon="0.51661667414009571075439453125">
        <ele>1341.4000244140625</ele>
        <time>2039-05-14T10:37:56.000Z</time>
      </trkpt>
      <trkpt lat="42.46072364039719104766845703125" lon="0.51660795696079730987548828125">
        <ele>1341.4000244140625</ele>
        <time>2039-05-14T10:37:57.000Z</time>
      </trkpt>
      <trkpt lat="42.460830509662628173828125" lon="0.5166107229888439178466796875">
        <ele>1340.5999755859375</ele>
        <time>2039-05-14T10:38:02.000Z</time>
      </trkpt>
      <trkpt lat="42.4608534760773181915283203125" lon="0.5166135728359222412109375">
        <ele>1340.4000244140625</ele>
        <time>2039-05-14T10:38:03.000Z</time>
      </trkpt>
      <trkpt lat="42.46092312969267368316650390625" lon="0.51658532582223415374755859375">
        <ele>1339.5999755859375</ele>
        <time>2039-05-14T10:38:07.000Z</time>
      </trkpt>
      <trkpt lat="42.46101717464625835418701171875" lon="0.5165047757327556610107421875">
        <ele>1339</ele>
        <time>2039-05-14T10:38:11.000Z</time>
      </trkpt>
      <trkpt lat="42.46104198507964611053466796875" lon="0.51648189313709735870361328125">
        <ele>1338.800048828125</ele>
        <time>2039-05-14T10:38:12.000Z</time>
      </trkpt>
      <trkpt lat="42.46109881438314914703369140625" lon="0.51641483791172504425048828125">
        <ele>1338</ele>
        <time>2039-05-14T10:38:15.000Z</time>
      </trkpt>
      <trkpt lat="42.46113837696611881256103515625" lon="0.5163515545427799224853515625">
        <ele>1337.4000244140625</ele>
        <time>2039-05-14T10:38:18.000Z</time>
      </trkpt>
      <trkpt lat="42.461166121065616607666015625" lon="0.51629908382892608642578125">
        <ele>1336.5999755859375</ele>
        <time>2039-05-14T10:38:20.000Z</time>
      </trkpt>
      <trkpt lat="42.46120895259082317352294921875" lon="0.5161802284419536590576171875">
        <ele>1335.800048828125</ele>
        <time>2039-05-14T10:38:24.000Z</time>
      </trkpt>
      <trkpt lat="42.46122010052204132080078125" lon="0.51615022122859954833984375">
        <ele>1335.4000244140625</ele>
        <time>2039-05-14T10:38:25.000Z</time>
      </trkpt>
      <trkpt lat="42.461245916783809661865234375" lon="0.51598534919321537017822265625">
        <ele>1334.800048828125</ele>
        <time>2039-05-14T10:38:30.000Z</time>
      </trkpt>
      <trkpt lat="42.4612517841160297393798828125" lon="0.5159099958837032318115234375">
        <ele>1334.5999755859375</ele>
        <time>2039-05-14T10:38:32.000Z</time>
      </trkpt>
      <trkpt lat="42.461256645619869232177734375" lon="0.51575593650341033935546875">
        <ele>1333.5999755859375</ele>
        <time>2039-05-14T10:38:36.000Z</time>
      </trkpt>
      <trkpt lat="42.46127248741686344146728515625" lon="0.51564018242061138153076171875">
        <ele>1332.4000244140625</ele>
        <time>2039-05-14T10:38:39.000Z</time>
      </trkpt>
      <trkpt lat="42.461294867098331451416015625" lon="0.51556826569139957427978515625">
        <ele>1332</ele>
        <time>2039-05-14T10:38:41.000Z</time>
      </trkpt>
      <trkpt lat="42.46131406165659427642822265625" lon="0.51553591154515743255615234375">
        <ele>1332</ele>
        <time>2039-05-14T10:38:42.000Z</time>
      </trkpt>
      <trkpt lat="42.461362592875957489013671875" lon="0.51543700508773326873779296875">
        <ele>1331.4000244140625</ele>
        <time>2039-05-14T10:38:45.000Z</time>
      </trkpt>
      <trkpt lat="42.46140240691602230072021484375" lon="0.5153755657374858856201171875">
        <ele>1331</ele>
        <time>2039-05-14T10:38:47.000Z</time>
      </trkpt>
      <trkpt lat="42.4614267982542514801025390625" lon="0.5153490789234638214111328125">
        <ele>1330.4000244140625</ele>
        <time>2039-05-14T10:38:48.000Z</time>
      </trkpt>
      <trkpt lat="42.46148857288062572479248046875" lon="0.5152830295264720916748046875">
        <ele>1329.800048828125</ele>
        <time>2039-05-14T10:38:51.000Z</time>
      </trkpt>
      <trkpt lat="42.4615052528679370880126953125" lon="0.5152615718543529510498046875">
        <ele>1329.4000244140625</ele>
        <time>2039-05-14T10:38:52.000Z</time>
      </trkpt>
      <trkpt lat="42.461603991687297821044921875" lon="0.5151864700019359588623046875">
        <ele>1328.5999755859375</ele>
        <time>2039-05-14T10:38:56.000Z</time>
      </trkpt>
      <trkpt lat="42.46162888593971729278564453125" lon="0.5151697061955928802490234375">
        <ele>1328.4000244140625</ele>
        <time>2039-05-14T10:38:57.000Z</time>
      </trkpt>
      <trkpt lat="42.4617027305066585540771484375" lon="0.51508328877389430999755859375">
        <ele>1328.199951171875</ele>
        <time>2039-05-14T10:39:01.000Z</time>
      </trkpt>
      <trkpt lat="42.46172812767326831817626953125" lon="0.5150272138416767120361328125">
        <ele>1328.199951171875</ele>
        <time>2039-05-14T10:39:04.000Z</time>
      </trkpt>
      <trkpt lat="42.46174489147961139678955078125" lon="0.51500835455954074859619140625">
        <ele>1328.199951171875</ele>
        <time>2039-05-14T10:39:05.000Z</time>
      </trkpt>
      <trkpt lat="42.46181278489530086517333984375" lon="0.5149330012500286102294921875">
        <ele>1327</ele>
        <time>2039-05-14T10:39:08.000Z</time>
      </trkpt>
      <trkpt lat="42.461836338043212890625" lon="0.51490165293216705322265625">
        <ele>1326.5999755859375</ele>
        <time>2039-05-14T10:39:09.000Z</time>
      </trkpt>
      <trkpt lat="42.461858801543712615966796875" lon="0.51487172953784465789794921875">
        <ele>1326.199951171875</ele>
        <time>2039-05-14T10:39:10.000Z</time>
      </trkpt>
      <trkpt lat="42.4618810974061489105224609375" lon="0.51484507508575916290283203125">
        <ele>1325.800048828125</ele>
        <time>2039-05-14T10:39:11.000Z</time>
      </trkpt>
      <trkpt lat="42.461965084075927734375" lon="0.5147512815892696380615234375">
        <ele>1324.800048828125</ele>
        <time>2039-05-14T10:39:15.000Z</time>
      </trkpt>
      <trkpt lat="42.4619843624532222747802734375" lon="0.51472286693751811981201171875">
        <ele>1324.4000244140625</ele>
        <time>2039-05-14T10:39:16.000Z</time>
      </trkpt>
      <trkpt lat="42.46201663278043270111083984375" lon="0.514681041240692138671875">
        <ele>1323.800048828125</ele>
        <time>2039-05-14T10:39:18.000Z</time>
      </trkpt>
      <trkpt lat="42.462057285010814666748046875" lon="0.5146233737468719482421875">
        <ele>1323</ele>
        <time>2039-05-14T10:39:20.000Z</time>
      </trkpt>
      <trkpt lat="42.46208050288259983062744140625" lon="0.514592193067073822021484375">
        <ele>1322.5999755859375</ele>
        <time>2039-05-14T10:39:21.000Z</time>
      </trkpt>
      <trkpt lat="42.4621781520545482635498046875" lon="0.5144689790904521942138671875">
        <ele>1321.4000244140625</ele>
        <time>2039-05-14T10:39:25.000Z</time>
      </trkpt>
      <trkpt lat="42.4622110091149806976318359375" lon="0.514433272182941436767578125">
        <ele>1321.4000244140625</ele>
        <time>2039-05-14T10:39:26.000Z</time>
      </trkpt>
      <trkpt lat="42.46227781288325786590576171875" lon="0.51436663605272769927978515625">
        <ele>1321</ele>
        <time>2039-05-14T10:39:28.000Z</time>
      </trkpt>
      <trkpt lat="42.462330199778079986572265625" lon="0.51430511288344860076904296875">
        <ele>1320.4000244140625</ele>
        <time>2039-05-14T10:39:30.000Z</time>
      </trkpt>
      <trkpt lat="42.4623994342982769012451171875" lon="0.51422799937427043914794921875">
        <ele>1319.5999755859375</ele>
        <time>2039-05-14T10:39:33.000Z</time>
      </trkpt>
      <trkpt lat="42.4624275974929332733154296875" lon="0.5142004229128360748291015625">
        <ele>1319.199951171875</ele>
        <time>2039-05-14T10:39:34.000Z</time>
      </trkpt>
      <trkpt lat="42.4624550901353359222412109375" lon="0.51417686976492404937744140625">
        <ele>1318.800048828125</ele>
        <time>2039-05-14T10:39:35.000Z</time>
      </trkpt>
      <trkpt lat="42.4625533260405063629150390625" lon="0.51409305073320865631103515625">
        <ele>1317.800048828125</ele>
        <time>2039-05-14T10:39:39.000Z</time>
      </trkpt>
      <trkpt lat="42.4625801481306552886962890625" lon="0.51407209597527980804443359375">
        <ele>1318</ele>
        <time>2039-05-14T10:39:40.000Z</time>
      </trkpt>
      <trkpt lat="42.4626244045794010162353515625" lon="0.514036305248737335205078125">
        <ele>1316.800048828125</ele>
        <time>2039-05-14T10:39:42.000Z</time>
      </trkpt>
      <trkpt lat="42.46269841678440570831298828125" lon="0.51397117786109447479248046875">
        <ele>1316.199951171875</ele>
        <time>2039-05-14T10:39:45.000Z</time>
      </trkpt>
      <trkpt lat="42.46279531158506870269775390625" lon="0.51381024532020092010498046875">
        <ele>1316</ele>
        <time>2039-05-14T10:39:49.000Z</time>
      </trkpt>
      <trkpt lat="42.46282548643648624420166015625" lon="0.5137623846530914306640625">
        <ele>1315.800048828125</ele>
        <time>2039-05-14T10:39:50.000Z</time>
      </trkpt>
      <trkpt lat="42.46290377341210842132568359375" lon="0.51362902857363224029541015625">
        <ele>1314.199951171875</ele>
        <time>2039-05-14T10:39:53.000Z</time>
      </trkpt>
      <trkpt lat="42.46302128769457340240478515625" lon="0.51346323452889919281005859375">
        <ele>1313.4000244140625</ele>
        <time>2039-05-14T10:39:57.000Z</time>
      </trkpt>
      <trkpt lat="42.46304911561310291290283203125" lon="0.51342585124075412750244140625">
        <ele>1313.199951171875</ele>
        <time>2039-05-14T10:39:58.000Z</time>
      </trkpt>
      <trkpt lat="42.46311952359974384307861328125" lon="0.51334354095160961151123046875">
        <ele>1312</ele>
        <time>2039-05-14T10:40:00.000Z</time>
      </trkpt>
      <trkpt lat="42.46318280696868896484375" lon="0.51327355206012725830078125">
        <ele>1311.5999755859375</ele>
        <time>2039-05-14T10:40:02.000Z</time>
      </trkpt>
      <trkpt lat="42.46330644004046916961669921875" lon="0.51306660287082195281982421875">
        <ele>1311.199951171875</ele>
        <time>2039-05-14T10:40:06.000Z</time>
      </trkpt>
      <trkpt lat="42.46334114111959934234619140625" lon="0.513017736375331878662109375">
        <ele>1310.800048828125</ele>
        <time>2039-05-14T10:40:07.000Z</time>
      </trkpt>
      <trkpt lat="42.46345102787017822265625" lon="0.5128703825175762176513671875">
        <ele>1309.800048828125</ele>
        <time>2039-05-14T10:40:10.000Z</time>
      </trkpt>
      <trkpt lat="42.46348388493061065673828125" lon="0.5128182470798492431640625">
        <ele>1309.4000244140625</ele>
        <time>2039-05-14T10:40:11.000Z</time>
      </trkpt>
      <trkpt lat="42.46357977390289306640625" lon="0.5126812867820262908935546875">
        <ele>1308.5999755859375</ele>
        <time>2039-05-14T10:40:14.000Z</time>
      </trkpt>
      <trkpt lat="42.46368379332125186920166015625" lon="0.51254273392260074615478515625">
        <ele>1307.800048828125</ele>
        <time>2039-05-14T10:40:17.000Z</time>
      </trkpt>
      <trkpt lat="42.4637519381940364837646484375" lon="0.51245413720607757568359375">
        <ele>1307.4000244140625</ele>
        <time>2039-05-14T10:40:19.000Z</time>
      </trkpt>
      <trkpt lat="42.46381907723844051361083984375" lon="0.51236637867987155914306640625">
        <ele>1306.800048828125</ele>
        <time>2039-05-14T10:40:21.000Z</time>
      </trkpt>
      <trkpt lat="42.46385294012725353240966796875" lon="0.51232405006885528564453125">
        <ele>1307</ele>
        <time>2039-05-14T10:40:22.000Z</time>
      </trkpt>
      <trkpt lat="42.4640258587896823883056640625" lon="0.5120948888361454010009765625">
        <ele>1306.800048828125</ele>
        <time>2039-05-14T10:40:27.000Z</time>
      </trkpt>
      <trkpt lat="42.4640848673880100250244140625" lon="0.51199103705585002899169921875">
        <ele>1306.4000244140625</ele>
        <time>2039-05-14T10:40:29.000Z</time>
      </trkpt>
      <trkpt lat="42.4641670100390911102294921875" lon="0.51183722913265228271484375">
        <ele>1306.199951171875</ele>
        <time>2039-05-14T10:40:32.000Z</time>
      </trkpt>
      <trkpt lat="42.4641951732337474822998046875" lon="0.51178970374166965484619140625">
        <ele>1305.5999755859375</ele>
        <time>2039-05-14T10:40:33.000Z</time>
      </trkpt>
      <trkpt lat="42.464221827685832977294921875" lon="0.51174695603549480438232421875">
        <ele>1304.800048828125</ele>
        <time>2039-05-14T10:40:34.000Z</time>
      </trkpt>
      <trkpt lat="42.46427102945744991302490234375" lon="0.51166498102247714996337890625">
        <ele>1304.199951171875</ele>
        <time>2039-05-14T10:40:36.000Z</time>
      </trkpt>
      <trkpt lat="42.46431997977197170257568359375" lon="0.51158468239009380340576171875">
        <ele>1304</ele>
        <time>2039-05-14T10:40:38.000Z</time>
      </trkpt>
      <trkpt lat="42.46438401751220226287841796875" lon="0.51150455139577388763427734375">
        <ele>1304.4000244140625</ele>
        <time>2039-05-14T10:40:40.000Z</time>
      </trkpt>
      <trkpt lat="42.46462189592421054840087890625" lon="0.51120766438543796539306640625">
        <ele>1304.800048828125</ele>
        <time>2039-05-14T10:40:48.000Z</time>
      </trkpt>
      <trkpt lat="42.46472977101802825927734375" lon="0.51104270853102207183837890625">
        <ele>1304.800048828125</ele>
        <time>2039-05-14T10:40:52.000Z</time>
      </trkpt>
      <trkpt lat="42.4648459441959857940673828125" lon="0.51076711155474185943603515625">
        <ele>1303.800048828125</ele>
        <time>2039-05-14T10:40:58.000Z</time>
      </trkpt>
      <trkpt lat="42.4649019353091716766357421875" lon="0.5106273852288722991943359375">
        <ele>1303.4000244140625</ele>
        <time>2039-05-14T10:41:01.000Z</time>
      </trkpt>
      <trkpt lat="42.46498550288379192352294921875" lon="0.5104061029851436614990234375">
        <ele>1303</ele>
        <time>2039-05-14T10:41:06.000Z</time>
      </trkpt>
      <trkpt lat="42.46503680013120174407958984375" lon="0.5101690627634525299072265625">
        <ele>1302.199951171875</ele>
        <time>2039-05-14T10:41:11.000Z</time>
      </trkpt>
      <trkpt lat="42.46504685841500759124755859375" lon="0.510121621191501617431640625">
        <ele>1302.199951171875</ele>
        <time>2039-05-14T10:41:12.000Z</time>
      </trkpt>
      <trkpt lat="42.4650843255221843719482421875" lon="0.5099858343601226806640625">
        <ele>1301.5999755859375</ele>
        <time>2039-05-14T10:41:15.000Z</time>
      </trkpt>
      <trkpt lat="42.46510502882301807403564453125" lon="0.509949289262294769287109375">
        <ele>1301.5999755859375</ele>
        <time>2039-05-14T10:41:16.000Z</time>
      </trkpt>
      <trkpt lat="42.4651560746133327484130859375" lon="0.5098222196102142333984375">
        <ele>1301.199951171875</ele>
        <time>2039-05-14T10:41:20.000Z</time>
      </trkpt>
      <trkpt lat="42.46516420505940914154052734375" lon="0.5097962357103824615478515625">
        <ele>1301</ele>
        <time>2039-05-14T10:41:21.000Z</time>
      </trkpt>
      <trkpt lat="42.46523511596024036407470703125" lon="0.50968953408300876617431640625">
        <ele>1301</ele>
        <time>2039-05-14T10:41:25.000Z</time>
      </trkpt>
      <trkpt lat="42.4652640335261821746826171875" lon="0.50963245332241058349609375">
        <ele>1300.4000244140625</ele>
        <time>2039-05-14T10:41:28.000Z</time>
      </trkpt>
      <trkpt lat="42.465264536440372467041015625" lon="0.509591214358806610107421875">
        <ele>1300.199951171875</ele>
        <time>2039-05-14T10:41:30.000Z</time>
      </trkpt>
      <trkpt lat="42.46530904434621334075927734375" lon="0.50952306948602199554443359375">
        <ele>1300</ele>
        <time>2039-05-14T10:41:33.000Z</time>
      </trkpt>
      <trkpt lat="42.46532647870481014251708984375" lon="0.5095008574426174163818359375">
        <ele>1300</ele>
        <time>2039-05-14T10:41:34.000Z</time>
      </trkpt>
      <trkpt lat="42.46540677733719348907470703125" lon="0.50940714776515960693359375">
        <ele>1299.5999755859375</ele>
        <time>2039-05-14T10:41:38.000Z</time>
      </trkpt>
      <trkpt lat="42.4654474295675754547119140625" lon="0.50935191102325916290283203125">
        <ele>1299</ele>
        <time>2039-05-14T10:41:40.000Z</time>
      </trkpt>
      <trkpt lat="42.46554918587207794189453125" lon="0.50924026407301425933837890625">
        <ele>1299</ele>
        <time>2039-05-14T10:41:44.000Z</time>
      </trkpt>
      <trkpt lat="42.46564901433885097503662109375" lon="0.50910682417452335357666015625">
        <ele>1298.4000244140625</ele>
        <time>2039-05-14T10:41:49.000Z</time>
      </trkpt>
      <trkpt lat="42.4656633473932743072509765625" lon="0.50908033736050128936767578125">
        <ele>1298</ele>
        <time>2039-05-14T10:41:50.000Z</time>
      </trkpt>
      <trkpt lat="42.46572076342999935150146484375" lon="0.508978329598903656005859375">
        <ele>1297.800048828125</ele>
        <time>2039-05-14T10:41:54.000Z</time>
      </trkpt>
      <trkpt lat="42.46578731574118137359619140625" lon="0.5088953487575054168701171875">
        <ele>1297</ele>
        <time>2039-05-14T10:41:57.000Z</time>
      </trkpt>
      <trkpt lat="42.4658591486513614654541015625" lon="0.50882251001894474029541015625">
        <ele>1296.199951171875</ele>
        <time>2039-05-14T10:42:00.000Z</time>
      </trkpt>
      <trkpt lat="42.4659593962132930755615234375" lon="0.5086801014840602874755859375">
        <ele>1295.5999755859375</ele>
        <time>2039-05-14T10:42:05.000Z</time>
      </trkpt>
      <trkpt lat="42.465976662933826446533203125" lon="0.50865386612713336944580078125">
        <ele>1295.4000244140625</ele>
        <time>2039-05-14T10:42:06.000Z</time>
      </trkpt>
      <trkpt lat="42.4660968594253063201904296875" lon="0.50856401212513446807861328125">
        <ele>1294.4000244140625</ele>
        <time>2039-05-14T10:42:11.000Z</time>
      </trkpt>
      <trkpt lat="42.46612359769642353057861328125" lon="0.50856300629675388336181640625">
        <ele>1294.4000244140625</ele>
        <time>2039-05-14T10:42:12.000Z</time>
      </trkpt>
      <trkpt lat="42.4662822671234607696533203125" lon="0.50858111120760440826416015625">
        <ele>1293.199951171875</ele>
        <time>2039-05-14T10:42:18.000Z</time>
      </trkpt>
      <trkpt lat="42.4663050659000873565673828125" lon="0.50857356749475002288818359375">
        <ele>1293</ele>
        <time>2039-05-14T10:42:22.000Z</time>
      </trkpt>
      <trkpt lat="42.46630799956619739532470703125" lon="0.508569963276386260986328125">
        <ele>1292.5999755859375</ele>
        <time>2039-05-14T10:42:34.000Z</time>
      </trkpt>
      <trkpt lat="42.4663077481091022491455078125" lon="0.508567281067371368408203125">
        <ele>1292.5999755859375</ele>
        <time>2039-05-14T10:42:59.000Z</time>
      </trkpt>
      <trkpt lat="42.46630799956619739532470703125" lon="0.50856518559157848358154296875">
        <ele>1292.5999755859375</ele>
        <time>2039-05-14T10:43:19.000Z</time>
      </trkpt>
      <trkpt lat="42.46629542671144008636474609375" lon="0.50855848006904125213623046875">
        <ele>1292.4000244140625</ele>
        <time>2039-05-14T10:43:27.000Z</time>
      </trkpt>
      <trkpt lat="42.46628947556018829345703125" lon="0.508554540574550628662109375">
        <ele>1292.5999755859375</ele>
        <time>2039-05-14T10:43:37.000Z</time>
      </trkpt>
      <trkpt lat="42.46628201566636562347412109375" lon="0.50855210982263088226318359375">
        <ele>1292.5999755859375</ele>
        <time>2039-05-14T10:43:46.000Z</time>
      </trkpt>
      <trkpt lat="42.4662551097571849822998046875" lon="0.50855613313615322113037109375">
        <ele>1292.800048828125</ele>
        <time>2039-05-14T10:43:48.000Z</time>
      </trkpt>
      <trkpt lat="42.46616743505001068115234375" lon="0.5085446499288082122802734375">
        <ele>1292.800048828125</ele>
        <time>2039-05-14T10:43:54.000Z</time>
      </trkpt>
      <trkpt lat="42.46613449417054653167724609375" lon="0.50849997438490390777587890625">
        <ele>1293</ele>
        <time>2039-05-14T10:43:58.000Z</time>
      </trkpt>
      <trkpt lat="42.46613298542797565460205078125" lon="0.50846678204834461212158203125">
        <ele>1293.4000244140625</ele>
        <time>2039-05-14T10:44:00.000Z</time>
      </trkpt>
      <trkpt lat="42.466130554676055908203125" lon="0.50839955918490886688232421875">
        <ele>1294</ele>
        <time>2039-05-14T10:44:04.000Z</time>
      </trkpt>
      <trkpt lat="42.46613147668540477752685546875" lon="0.508384890854358673095703125">
        <ele>1294.199951171875</ele>
        <time>2039-05-14T10:44:05.000Z</time>
      </trkpt>
      <trkpt lat="42.466132231056690216064453125" lon="0.50835530273616313934326171875">
        <ele>1294.5999755859375</ele>
        <time>2039-05-14T10:44:07.000Z</time>
      </trkpt>
      <trkpt lat="42.46613449417054653167724609375" lon="0.50827366299927234649658203125">
        <ele>1295.4000244140625</ele>
        <time>2039-05-14T10:44:12.000Z</time>
      </trkpt>
      <trkpt lat="42.4661345779895782470703125" lon="0.50825673155486583709716796875">
        <ele>1295.5999755859375</ele>
        <time>2039-05-14T10:44:13.000Z</time>
      </trkpt>
      <trkpt lat="42.4661330692470073699951171875" lon="0.5082197673618793487548828125">
        <ele>1296</ele>
        <time>2039-05-14T10:44:15.000Z</time>
      </trkpt>
      <trkpt lat="42.46612845920026302337646484375" lon="0.508185736835002899169921875">
        <ele>1296.4000244140625</ele>
        <time>2039-05-14T10:44:17.000Z</time>
      </trkpt>
      <trkpt lat="42.46612980030477046966552734375" lon="0.5081372894346714019775390625">
        <ele>1297.199951171875</ele>
        <time>2039-05-14T10:44:20.000Z</time>
      </trkpt>
      <trkpt lat="42.46613499708473682403564453125" lon="0.50812060944736003875732421875">
        <ele>1297.5999755859375</ele>
        <time>2039-05-14T10:44:21.000Z</time>
      </trkpt>
      <trkpt lat="42.46613684110343456268310546875" lon="0.50810267217457294464111328125">
        <ele>1297.5999755859375</ele>
        <time>2039-05-14T10:44:22.000Z</time>
      </trkpt>
      <trkpt lat="42.46614153496921062469482421875" lon="0.5080279894173145294189453125">
        <ele>1298.199951171875</ele>
        <time>2039-05-14T10:44:26.000Z</time>
      </trkpt>
      <trkpt lat="42.4661386013031005859375" lon="0.50797409377992153167724609375">
        <ele>1298.4000244140625</ele>
        <time>2039-05-14T10:44:29.000Z</time>
      </trkpt>
      <trkpt lat="42.4661394394934177398681640625" lon="0.507936961948871612548828125">
        <ele>1298.800048828125</ele>
        <time>2039-05-14T10:44:31.000Z</time>
      </trkpt>
      <trkpt lat="42.46613583527505397796630859375" lon="0.50792212598025798797607421875">
        <ele>1299</ele>
        <time>2039-05-14T10:44:32.000Z</time>
      </trkpt>
      <trkpt lat="42.46614572592079639434814453125" lon="0.50785305909812450408935546875">
        <ele>1299.4000244140625</ele>
        <time>2039-05-14T10:44:36.000Z</time>
      </trkpt>
      <trkpt lat="42.466157712042331695556640625" lon="0.50776890479028224945068359375">
        <ele>1299.800048828125</ele>
        <time>2039-05-14T10:44:41.000Z</time>
      </trkpt>
      <trkpt lat="42.46615938842296600341796875" lon="0.50774040631949901580810546875">
        <ele>1300</ele>
        <time>2039-05-14T10:44:43.000Z</time>
      </trkpt>
      <trkpt lat="42.4661629088222980499267578125" lon="0.50764418207108974456787109375">
        <ele>1300.5999755859375</ele>
        <time>2039-05-14T10:44:48.000Z</time>
      </trkpt>
      <trkpt lat="42.46616885997354984283447265625" lon="0.5075901187956333160400390625">
        <ele>1301</ele>
        <time>2039-05-14T10:44:51.000Z</time>
      </trkpt>
      <trkpt lat="42.4661721289157867431640625" lon="0.50755650736391544342041015625">
        <ele>1301</ele>
        <time>2039-05-14T10:44:53.000Z</time>
      </trkpt>
      <trkpt lat="42.466153018176555633544921875" lon="0.50744452513754367828369140625">
        <ele>1301.5999755859375</ele>
        <time>2039-05-14T10:44:59.000Z</time>
      </trkpt>
      <trkpt lat="42.46617204509675502777099609375" lon="0.50739557482302188873291015625">
        <ele>1302</ele>
        <time>2039-05-14T10:45:02.000Z</time>
      </trkpt>
      <trkpt lat="42.4661779962480068206787109375" lon="0.50738065503537654876708984375">
        <ele>1302.199951171875</ele>
        <time>2039-05-14T10:45:03.000Z</time>
      </trkpt>
      <trkpt lat="42.4661887250840663909912109375" lon="0.50734595395624637603759765625">
        <ele>1302.800048828125</ele>
        <time>2039-05-14T10:45:05.000Z</time>
      </trkpt>
      <trkpt lat="42.46619962155818939208984375" lon="0.5073165334761142730712890625">
        <ele>1303.199951171875</ele>
        <time>2039-05-14T10:45:07.000Z</time>
      </trkpt>
      <trkpt lat="42.4662346579134464263916015625" lon="0.50724931061267852783203125">
        <ele>1303.5999755859375</ele>
        <time>2039-05-14T10:45:11.000Z</time>
      </trkpt>
      <trkpt lat="42.4662722088396549224853515625" lon="0.5071534216403961181640625">
        <ele>1304.199951171875</ele>
        <time>2039-05-14T10:45:17.000Z</time>
      </trkpt>
      <trkpt lat="42.46628536842763423919677734375" lon="0.50708527676761150360107421875">
        <ele>1304.4000244140625</ele>
        <time>2039-05-14T10:45:21.000Z</time>
      </trkpt>
      <trkpt lat="42.4662862904369831085205078125" lon="0.50707085989415645599365234375">
        <ele>1304.5999755859375</ele>
        <time>2039-05-14T10:45:22.000Z</time>
      </trkpt>
      <trkpt lat="42.466321997344493865966796875" lon="0.50697295926511287689208984375">
        <ele>1305.4000244140625</ele>
        <time>2039-05-14T10:45:28.000Z</time>
      </trkpt>
      <trkpt lat="42.466326020658016204833984375" lon="0.5069576203823089599609375">
        <ele>1305.5999755859375</ele>
        <time>2039-05-14T10:45:29.000Z</time>
      </trkpt>
      <trkpt lat="42.4663426168262958526611328125" lon="0.5068932473659515380859375">
        <ele>1306.199951171875</ele>
        <time>2039-05-14T10:45:33.000Z</time>
      </trkpt>
      <trkpt lat="42.4663761444389820098876953125" lon="0.5067914910614490509033203125">
        <ele>1306.5999755859375</ele>
        <time>2039-05-14T10:45:38.000Z</time>
      </trkpt>
      <trkpt lat="42.46638192795217037200927734375" lon="0.5067720450460910797119140625">
        <ele>1306.800048828125</ele>
        <time>2039-05-14T10:45:39.000Z</time>
      </trkpt>
      <trkpt lat="42.4663952551782131195068359375" lon="0.5066503398120403289794921875">
        <ele>1307.800048828125</ele>
        <time>2039-05-14T10:45:46.000Z</time>
      </trkpt>
      <trkpt lat="42.46640925295650959014892578125" lon="0.50659711472690105438232421875">
        <ele>1308.199951171875</ele>
        <time>2039-05-14T10:45:49.000Z</time>
      </trkpt>
      <trkpt lat="42.46642149053514003753662109375" lon="0.5065443925559520721435546875">
        <ele>1308.5999755859375</ele>
        <time>2039-05-14T10:45:52.000Z</time>
      </trkpt>
      <trkpt lat="42.4664254300296306610107421875" lon="0.50650843419134616851806640625">
        <ele>1308.5999755859375</ele>
        <time>2039-05-14T10:45:54.000Z</time>
      </trkpt>
      <trkpt lat="42.46644211001694202423095703125" lon="0.50643819384276866912841796875">
        <ele>1308.5999755859375</ele>
        <time>2039-05-14T10:45:58.000Z</time>
      </trkpt>
      <trkpt lat="42.46644345112144947052001953125" lon="0.506419837474822998046875">
        <ele>1308.800048828125</ele>
        <time>2039-05-14T10:45:59.000Z</time>
      </trkpt>
      <trkpt lat="42.46643791906535625457763671875" lon="0.506384633481502532958984375">
        <ele>1309</ele>
        <time>2039-05-14T10:46:01.000Z</time>
      </trkpt>
      <trkpt lat="42.46644579805433750152587890625" lon="0.506335012614727020263671875">
        <ele>1309.4000244140625</ele>
        <time>2039-05-14T10:46:04.000Z</time>
      </trkpt>
      <trkpt lat="42.466447390615940093994140625" lon="0.5062775127589702606201171875">
        <ele>1309.800048828125</ele>
        <time>2039-05-14T10:46:07.000Z</time>
      </trkpt>
      <trkpt lat="42.46645216830074787139892578125" lon="0.5062423087656497955322265625">
        <ele>1310.199951171875</ele>
        <time>2039-05-14T10:46:09.000Z</time>
      </trkpt>
      <trkpt lat="42.46644512750208377838134765625" lon="0.50620333291590213775634765625">
        <ele>1310.5999755859375</ele>
        <time>2039-05-14T10:46:11.000Z</time>
      </trkpt>
      <trkpt lat="42.4664465524256229400634765625" lon="0.50618506036698818206787109375">
        <ele>1310.800048828125</ele>
        <time>2039-05-14T10:46:12.000Z</time>
      </trkpt>
      <trkpt lat="42.4664430320262908935546875" lon="0.50614130683243274688720703125">
        <ele>1310.800048828125</ele>
        <time>2039-05-14T10:46:14.000Z</time>
      </trkpt>
      <trkpt lat="42.46645803563296794891357421875" lon="0.50604793243110179901123046875">
        <ele>1311.4000244140625</ele>
        <time>2039-05-14T10:46:19.000Z</time>
      </trkpt>
      <trkpt lat="42.46645937673747539520263671875" lon="0.50602932460606098175048828125">
        <ele>1311.800048828125</ele>
        <time>2039-05-14T10:46:20.000Z</time>
      </trkpt>
      <trkpt lat="42.4664613045752048492431640625" lon="0.50601189024746417999267578125">
        <ele>1312</ele>
        <time>2039-05-14T10:46:21.000Z</time>
      </trkpt>
      <trkpt lat="42.4664703570306301116943359375" lon="0.50597685389220714569091796875">
        <ele>1312.199951171875</ele>
        <time>2039-05-14T10:46:23.000Z</time>
      </trkpt>
      <trkpt lat="42.46649022214114665985107421875" lon="0.5059174261987209320068359375">
        <ele>1312.5999755859375</ele>
        <time>2039-05-14T10:46:26.000Z</time>
      </trkpt>
      <trkpt lat="42.4665025435388088226318359375" lon="0.50582061521708965301513671875">
        <ele>1313.199951171875</ele>
        <time>2039-05-14T10:46:31.000Z</time>
      </trkpt>
      <trkpt lat="42.46651000343263149261474609375" lon="0.50580368377268314361572265625">
        <ele>1313.4000244140625</ele>
        <time>2039-05-14T10:46:32.000Z</time>
      </trkpt>
      <trkpt lat="42.4665462970733642578125" lon="0.50573260523378849029541015625">
        <ele>1314.5999755859375</ele>
        <time>2039-05-14T10:46:36.000Z</time>
      </trkpt>
      <trkpt lat="42.46655660681426525115966796875" lon="0.5056969821453094482421875">
        <ele>1314.800048828125</ele>
        <time>2039-05-14T10:46:38.000Z</time>
      </trkpt>
      <trkpt lat="42.46656750328838825225830078125" lon="0.5056817270815372467041015625">
        <ele>1314.800048828125</ele>
        <time>2039-05-14T10:46:39.000Z</time>
      </trkpt>
      <trkpt lat="42.46662667952477931976318359375" lon="0.50559162162244319915771484375">
        <ele>1315.5999755859375</ele>
        <time>2039-05-14T10:46:45.000Z</time>
      </trkpt>
      <trkpt lat="42.46663874946534633636474609375" lon="0.50557561218738555908203125">
        <ele>1315.800048828125</ele>
        <time>2039-05-14T10:46:46.000Z</time>
      </trkpt>
      <trkpt lat="42.4666788987815380096435546875" lon="0.5054778791964054107666015625">
        <ele>1316.800048828125</ele>
        <time>2039-05-14T10:46:52.000Z</time>
      </trkpt>
      <trkpt lat="42.4667016975581645965576171875" lon="0.5054275877773761749267578125">
        <ele>1317</ele>
        <time>2039-05-14T10:46:55.000Z</time>
      </trkpt>
      <trkpt lat="42.46674704365432262420654296875" lon="0.5053719319403171539306640625">
        <ele>1317.800048828125</ele>
        <time>2039-05-14T10:46:59.000Z</time>
      </trkpt>
      <trkpt lat="42.46675626374781131744384765625" lon="0.50535877235233783721923828125">
        <ele>1317.800048828125</ele>
        <time>2039-05-14T10:47:00.000Z</time>
      </trkpt>
      <trkpt lat="42.466771267354488372802734375" lon="0.50532625056803226470947265625">
        <ele>1318</ele>
        <time>2039-05-14T10:47:02.000Z</time>
      </trkpt>
      <trkpt lat="42.4667892046272754669189453125" lon="0.5052733607590198516845703125">
        <ele>1318.5999755859375</ele>
        <time>2039-05-14T10:47:05.000Z</time>
      </trkpt>
      <trkpt lat="42.466800101101398468017578125" lon="0.50524234771728515625">
        <ele>1318.800048828125</ele>
        <time>2039-05-14T10:47:07.000Z</time>
      </trkpt>
      <trkpt lat="42.46680445969104766845703125" lon="0.5052264221012592315673828125">
        <ele>1319</ele>
        <time>2039-05-14T10:47:08.000Z</time>
      </trkpt>
      <trkpt lat="42.4668180383741855621337890625" lon="0.5051954090595245361328125">
        <ele>1319.4000244140625</ele>
        <time>2039-05-14T10:47:10.000Z</time>
      </trkpt>
      <trkpt lat="42.4668230675160884857177734375" lon="0.50517856143414974212646484375">
        <ele>1319.5999755859375</ele>
        <time>2039-05-14T10:47:11.000Z</time>
      </trkpt>
      <trkpt lat="42.46683052740991115570068359375" lon="0.505140088498592376708984375">
        <ele>1319.800048828125</ele>
        <time>2039-05-14T10:47:13.000Z</time>
      </trkpt>
      <trkpt lat="42.46683890931308269500732421875" lon="0.50507730804383754730224609375">
        <ele>1320</ele>
        <time>2039-05-14T10:47:16.000Z</time>
      </trkpt>
      <trkpt lat="42.46686640195548534393310546875" lon="0.50499767996370792388916015625">
        <ele>1320.4000244140625</ele>
        <time>2039-05-14T10:47:20.000Z</time>
      </trkpt>
      <trkpt lat="42.46687092818319797515869140625" lon="0.50497203134000301361083984375">
        <ele>1320.4000244140625</ele>
        <time>2039-05-14T10:47:21.000Z</time>
      </trkpt>
      <trkpt lat="42.4668877758085727691650390625" lon="0.50479911267757415771484375">
        <ele>1320.4000244140625</ele>
        <time>2039-05-14T10:47:27.000Z</time>
      </trkpt>
      <trkpt lat="42.46692943386733531951904296875" lon="0.5046031437814235687255859375">
        <ele>1321</ele>
        <time>2039-05-14T10:47:35.000Z</time>
      </trkpt>
      <trkpt lat="42.46694485656917095184326171875" lon="0.5045360885560512542724609375">
        <ele>1322</ele>
        <time>2039-05-14T10:47:39.000Z</time>
      </trkpt>
      <trkpt lat="42.46694619767367839813232421875" lon="0.50453483127057552337646484375">
        <ele>1322.4000244140625</ele>
        <time>2039-05-14T10:47:40.000Z</time>
      </trkpt>
      <trkpt lat="42.4669390730559825897216796875" lon="0.504517816007137298583984375">
        <ele>1322.199951171875</ele>
        <time>2039-05-14T10:47:49.000Z</time>
      </trkpt>
      <trkpt lat="42.46694167144596576690673828125" lon="0.504497028887271881103515625">
        <ele>1322.800048828125</ele>
        <time>2039-05-14T10:47:56.000Z</time>
      </trkpt>
      <trkpt lat="42.46694100089371204376220703125" lon="0.50446593202650547027587890625">
        <ele>1322.800048828125</ele>
        <time>2039-05-14T10:48:03.000Z</time>
      </trkpt>
      <trkpt lat="42.46693915687501430511474609375" lon="0.50445151515305042266845703125">
        <ele>1322.800048828125</ele>
        <time>2039-05-14T10:48:10.000Z</time>
      </trkpt>
      <trkpt lat="42.4669380672276020050048828125" lon="0.504451431334018707275390625">
        <ele>1323</ele>
        <time>2039-05-14T10:48:12.000Z</time>
      </trkpt>
      <trkpt lat="42.46694368310272693634033203125" lon="0.5044106952846050262451171875">
        <ele>1323</ele>
        <time>2039-05-14T10:48:20.000Z</time>
      </trkpt>
      <trkpt lat="42.4669534899294376373291015625" lon="0.50431958399713039398193359375">
        <ele>1323.4000244140625</ele>
        <time>2039-05-14T10:48:27.000Z</time>
      </trkpt>
      <trkpt lat="42.4669558368623256683349609375" lon="0.5043089389801025390625">
        <ele>1323.5999755859375</ele>
        <time>2039-05-14T10:48:28.000Z</time>
      </trkpt>
      <trkpt lat="42.46696815825998783111572265625" lon="0.50422168336808681488037109375">
        <ele>1324.199951171875</ele>
        <time>2039-05-14T10:48:36.000Z</time>
      </trkpt>
      <trkpt lat="42.46698542498052120208740234375" lon="0.50414239056408405303955078125">
        <ele>1324.199951171875</ele>
        <time>2039-05-14T10:48:43.000Z</time>
      </trkpt>
      <trkpt lat="42.46699062176048755645751953125" lon="0.50412680022418498992919921875">
        <ele>1324.4000244140625</ele>
        <time>2039-05-14T10:48:44.000Z</time>
      </trkpt>
      <trkpt lat="42.46699355542659759521484375" lon="0.504115484654903411865234375">
        <ele>1324.4000244140625</ele>
        <time>2039-05-14T10:48:45.000Z</time>
      </trkpt>
      <trkpt lat="42.46700788848102092742919921875" lon="0.50407759845256805419921875">
        <ele>1324.800048828125</ele>
        <time>2039-05-14T10:48:49.000Z</time>
      </trkpt>
      <trkpt lat="42.46702414937317371368408203125" lon="0.5040043406188488006591796875">
        <ele>1325.5999755859375</ele>
        <time>2039-05-14T10:48:55.000Z</time>
      </trkpt>
      <trkpt lat="42.467026077210903167724609375" lon="0.50399403087794780731201171875">
        <ele>1325.800048828125</ele>
        <time>2039-05-14T10:48:56.000Z</time>
      </trkpt>
      <trkpt lat="42.46702616102993488311767578125" lon="0.50398263148963451385498046875">
        <ele>1325.800048828125</ele>
        <time>2039-05-14T10:48:57.000Z</time>
      </trkpt>
      <trkpt lat="42.46703605167567729949951171875" lon="0.50389629788696765899658203125">
        <ele>1326.199951171875</ele>
        <time>2039-05-14T10:49:04.000Z</time>
      </trkpt>
      <trkpt lat="42.46704460121691226959228515625" lon="0.50384785048663616180419921875">
        <ele>1326.800048828125</ele>
        <time>2039-05-14T10:49:08.000Z</time>
      </trkpt>
      <trkpt lat="42.4670564197003841400146484375" lon="0.50377526320517063140869140625">
        <ele>1327.4000244140625</ele>
        <time>2039-05-14T10:49:14.000Z</time>
      </trkpt>
      <trkpt lat="42.4670560844242572784423828125" lon="0.503764115273952484130859375">
        <ele>1327.4000244140625</ele>
        <time>2039-05-14T10:49:15.000Z</time>
      </trkpt>
      <trkpt lat="42.46705667115747928619384765625" lon="0.50371558405458927154541015625">
        <ele>1327.4000244140625</ele>
        <time>2039-05-14T10:49:20.000Z</time>
      </trkpt>
      <trkpt lat="42.4670627899467945098876953125" lon="0.50370686687529087066650390625">
        <ele>1327.5999755859375</ele>
        <time>2039-05-14T10:49:26.000Z</time>
      </trkpt>
      <trkpt lat="42.46706463396549224853515625" lon="0.5036908574402332305908203125">
        <ele>1327.5999755859375</ele>
        <time>2039-05-14T10:49:27.000Z</time>
      </trkpt>
      <trkpt lat="42.46707259677350521087646484375" lon="0.503559596836566925048828125">
        <ele>1327.800048828125</ele>
        <time>2039-05-14T10:49:33.000Z</time>
      </trkpt>
      <trkpt lat="42.46707796119153499603271484375" lon="0.50353503786027431488037109375">
        <ele>1327.800048828125</ele>
        <time>2039-05-14T10:49:34.000Z</time>
      </trkpt>
      <trkpt lat="42.46711291372776031494140625" lon="0.5033339560031890869140625">
        <ele>1327.800048828125</ele>
        <time>2039-05-14T10:49:42.000Z</time>
      </trkpt>
      <trkpt lat="42.4671244807541370391845703125" lon="0.50324317999184131622314453125">
        <ele>1328.199951171875</ele>
        <time>2039-05-14T10:49:46.000Z</time>
      </trkpt>
      <trkpt lat="42.4671281687915325164794921875" lon="0.50317143090069293975830078125">
        <ele>1328.199951171875</ele>
        <time>2039-05-14T10:49:49.000Z</time>
      </trkpt>
      <trkpt lat="42.4671459384262561798095703125" lon="0.50302608869969844818115234375">
        <ele>1328.4000244140625</ele>
        <time>2039-05-14T10:49:55.000Z</time>
      </trkpt>
      <trkpt lat="42.46716932393610477447509765625" lon="0.50285912118852138519287109375">
        <ele>1328.199951171875</ele>
        <time>2039-05-14T10:50:02.000Z</time>
      </trkpt>
      <trkpt lat="42.46722967363893985748291015625" lon="0.50269366241991519927978515625">
        <ele>1328.5999755859375</ele>
        <time>2039-05-14T10:50:10.000Z</time>
      </trkpt>
      <trkpt lat="42.4672931246459484100341796875" lon="0.5025274492800235748291015625">
        <ele>1329.199951171875</ele>
        <time>2039-05-14T10:50:18.000Z</time>
      </trkpt>
      <trkpt lat="42.4672958068549633026123046875" lon="0.50250406377017498016357421875">
        <ele>1329.199951171875</ele>
        <time>2039-05-14T10:50:19.000Z</time>
      </trkpt>
      <trkpt lat="42.46731500141322612762451171875" lon="0.50235771574079990386962890625">
        <ele>1329.5999755859375</ele>
        <time>2039-05-14T10:50:25.000Z</time>
      </trkpt>
      <trkpt lat="42.46733126230537891387939453125" lon="0.50220030359923839569091796875">
        <ele>1330.199951171875</ele>
        <time>2039-05-14T10:50:31.000Z</time>
      </trkpt>
      <trkpt lat="42.4673574976623058319091796875" lon="0.50205714069306850433349609375">
        <ele>1330.199951171875</ele>
        <time>2039-05-14T10:50:37.000Z</time>
      </trkpt>
      <trkpt lat="42.4673853255808353424072265625" lon="0.50194163806736469268798828125">
        <ele>1330.5999755859375</ele>
        <time>2039-05-14T10:50:42.000Z</time>
      </trkpt>
      <trkpt lat="42.46740502305328845977783203125" lon="0.5018817074596881866455078125">
        <ele>1330.5999755859375</ele>
        <time>2039-05-14T10:50:45.000Z</time>
      </trkpt>
      <trkpt lat="42.4674118123948574066162109375" lon="0.50186150707304477691650390625">
        <ele>1330.800048828125</ele>
        <time>2039-05-14T10:50:46.000Z</time>
      </trkpt>
      <trkpt lat="42.46742916293442249298095703125" lon="0.5017938651144504547119140625">
        <ele>1331.4000244140625</ele>
        <time>2039-05-14T10:50:49.000Z</time>
      </trkpt>
      <trkpt lat="42.46743687428534030914306640625" lon="0.50177198834717273712158203125">
        <ele>1331.5999755859375</ele>
        <time>2039-05-14T10:50:50.000Z</time>
      </trkpt>
      <trkpt lat="42.46747911907732486724853515625" lon="0.50161658786237239837646484375">
        <ele>1332</ele>
        <time>2039-05-14T10:50:57.000Z</time>
      </trkpt>
      <trkpt lat="42.46752865612506866455078125" lon="0.5014698207378387451171875">
        <ele>1332.199951171875</ele>
        <time>2039-05-14T10:51:04.000Z</time>
      </trkpt>
      <trkpt lat="42.46755908243358135223388671875" lon="0.50142355263233184814453125">
        <ele>1332.5999755859375</ele>
        <time>2039-05-14T10:51:07.000Z</time>
      </trkpt>
      <trkpt lat="42.4675760976970195770263671875" lon="0.5013908632099628448486328125">
        <ele>1333.199951171875</ele>
        <time>2039-05-14T10:51:09.000Z</time>
      </trkpt>
      <trkpt lat="42.46758154593408107757568359375" lon="0.50137384794652462005615234375">
        <ele>1333.800048828125</ele>
        <time>2039-05-14T10:51:10.000Z</time>
      </trkpt>
      <trkpt lat="42.46760317124426364898681640625" lon="0.5012946389615535736083984375">
        <ele>1334.5999755859375</ele>
        <time>2039-05-14T10:51:14.000Z</time>
      </trkpt>
      <trkpt lat="42.4676178395748138427734375" lon="0.5012369714677333831787109375">
        <ele>1335</ele>
        <time>2039-05-14T10:51:17.000Z</time>
      </trkpt>
      <trkpt lat="42.46762781403958797454833984375" lon="0.50118357874453067779541015625">
        <ele>1335.800048828125</ele>
        <time>2039-05-14T10:51:20.000Z</time>
      </trkpt>
      <trkpt lat="42.4676307477056980133056640625" lon="0.5011648871004581451416015625">
        <ele>1336.199951171875</ele>
        <time>2039-05-14T10:51:21.000Z</time>
      </trkpt>
      <trkpt lat="42.46763435192406177520751953125" lon="0.501143932342529296875">
        <ele>1336.5999755859375</ele>
        <time>2039-05-14T10:51:22.000Z</time>
      </trkpt>
      <trkpt lat="42.46764667332172393798828125" lon="0.5010750330984592437744140625">
        <ele>1337.199951171875</ele>
        <time>2039-05-14T10:51:25.000Z</time>
      </trkpt>
      <trkpt lat="42.46765312738716602325439453125" lon="0.501049719750881195068359375">
        <ele>1337.4000244140625</ele>
        <time>2039-05-14T10:51:26.000Z</time>
      </trkpt>
      <trkpt lat="42.467679865658283233642578125" lon="0.5009186267852783203125">
        <ele>1337.800048828125</ele>
        <time>2039-05-14T10:51:32.000Z</time>
      </trkpt>
      <trkpt lat="42.46769051067531108856201171875" lon="0.500847212970256805419921875">
        <ele>1338.5999755859375</ele>
        <time>2039-05-14T10:51:35.000Z</time>
      </trkpt>
      <trkpt lat="42.46771230362355709075927734375" lon="0.50078040920197963714599609375">
        <ele>1339.199951171875</ele>
        <time>2039-05-14T10:51:39.000Z</time>
      </trkpt>
      <trkpt lat="42.46773376129567623138427734375" lon="0.50068267621099948883056640625">
        <ele>1339.5999755859375</ele>
        <time>2039-05-14T10:51:44.000Z</time>
      </trkpt>
      <trkpt lat="42.46774189174175262451171875" lon="0.50066507421433925628662109375">
        <ele>1339.5999755859375</ele>
        <time>2039-05-14T10:51:45.000Z</time>
      </trkpt>
      <trkpt lat="42.4677948653697967529296875" lon="0.50058108754456043243408203125">
        <ele>1340.5999755859375</ele>
        <time>2039-05-14T10:51:50.000Z</time>
      </trkpt>
      <trkpt lat="42.4678148142993450164794921875" lon="0.50054739229381084442138671875">
        <ele>1341</ele>
        <time>2039-05-14T10:51:52.000Z</time>
      </trkpt>
      <trkpt lat="42.46782780624926090240478515625" lon="0.50053280778229236602783203125">
        <ele>1341.199951171875</ele>
        <time>2039-05-14T10:51:53.000Z</time>
      </trkpt>
      <trkpt lat="42.46784892864525318145751953125" lon="0.5005074106156826019287109375">
        <ele>1341</ele>
        <time>2039-05-14T10:51:55.000Z</time>
      </trkpt>
      <trkpt lat="42.46789838187396526336669921875" lon="0.500452257692813873291015625">
        <ele>1342</ele>
        <time>2039-05-14T10:51:59.000Z</time>
      </trkpt>
      <trkpt lat="42.46796158142387866973876953125" lon="0.50043323077261447906494140625">
        <ele>1342.5999755859375</ele>
        <time>2039-05-14T10:52:03.000Z</time>
      </trkpt>
      <trkpt lat="42.46798672713339328765869140625" lon="0.50042082555592060089111328125">
        <ele>1343</ele>
        <time>2039-05-14T10:52:05.000Z</time>
      </trkpt>
      <trkpt lat="42.46803584508597850799560546875" lon="0.50040020607411861419677734375">
        <ele>1343.5999755859375</ele>
        <time>2039-05-14T10:52:09.000Z</time>
      </trkpt>
      <trkpt lat="42.468112371861934661865234375" lon="0.50032510422170162200927734375">
        <ele>1344.199951171875</ele>
        <time>2039-05-14T10:52:15.000Z</time>
      </trkpt>
      <trkpt lat="42.46812050230801105499267578125" lon="0.50031169317662715911865234375">
        <ele>1344.4000244140625</ele>
        <time>2039-05-14T10:52:16.000Z</time>
      </trkpt>
      <trkpt lat="42.46815989725291728973388671875" lon="0.5002520978450775146484375">
        <ele>1344.800048828125</ele>
        <time>2039-05-14T10:52:20.000Z</time>
      </trkpt>
      <trkpt lat="42.4682106077671051025390625" lon="0.50020138733088970184326171875">
        <ele>1345.4000244140625</ele>
        <time>2039-05-14T10:52:24.000Z</time>
      </trkpt>
      <trkpt lat="42.46823617257177829742431640625" lon="0.5001984536647796630859375">
        <ele>1345.5999755859375</ele>
        <time>2039-05-14T10:52:26.000Z</time>
      </trkpt>
      <trkpt lat="42.46824103407561779022216796875" lon="0.50020758993923664093017578125">
        <ele>1346.4000244140625</ele>
        <time>2039-05-14T10:52:28.000Z</time>
      </trkpt>
      <trkpt lat="42.46824824251234531402587890625" lon="0.500208847224712371826171875">
        <ele>1346.800048828125</ele>
        <time>2039-05-14T10:52:31.000Z</time>
      </trkpt>
      <trkpt lat="42.4682583846151828765869140625" lon="0.5001989565789699554443359375">
        <ele>1346.5999755859375</ele>
        <time>2039-05-14T10:52:43.000Z</time>
      </trkpt>
      <trkpt lat="42.46828814037144184112548828125" lon="0.5001677758991718292236328125">
        <ele>1346.800048828125</ele>
        <time>2039-05-14T10:52:50.000Z</time>
      </trkpt>
      <trkpt lat="42.46831948868930339813232421875" lon="0.50015042535960674285888671875">
        <ele>1347.4000244140625</ele>
        <time>2039-05-14T10:52:55.000Z</time>
      </trkpt>
      <trkpt lat="42.4683361686766147613525390625" lon="0.50013667903840541839599609375">
        <ele>1347.5999755859375</ele>
        <time>2039-05-14T10:52:57.000Z</time>
      </trkpt>
      <trkpt lat="42.468377240002155303955078125" lon="0.50008378922939300537109375">
        <ele>1348.199951171875</ele>
        <time>2039-05-14T10:53:03.000Z</time>
      </trkpt>
      <trkpt lat="42.46839995495975017547607421875" lon="0.5000688694417476654052734375">
        <ele>1348.4000244140625</ele>
        <time>2039-05-14T10:53:06.000Z</time>
      </trkpt>
      <trkpt lat="42.468416802585124969482421875" lon="0.500053279101848602294921875">
        <ele>1348.800048828125</ele>
        <time>2039-05-14T10:53:09.000Z</time>
      </trkpt>
      <trkpt lat="42.46845292858779430389404296875" lon="0.5000055022537708282470703125">
        <ele>1349.199951171875</ele>
        <time>2039-05-14T10:53:15.000Z</time>
      </trkpt>
      <trkpt lat="42.468464411795139312744140625" lon="0.49998329021036624908447265625">
        <ele>1349.199951171875</ele>
        <time>2039-05-14T10:53:17.000Z</time>
      </trkpt>
      <trkpt lat="42.46847547590732574462890625" lon="0.49995915032923221588134765625">
        <ele>1349.5999755859375</ele>
        <time>2039-05-14T10:53:19.000Z</time>
      </trkpt>
      <trkpt lat="42.4685051478445529937744140625" lon="0.4998831264674663543701171875">
        <ele>1349.800048828125</ele>
        <time>2039-05-14T10:53:25.000Z</time>
      </trkpt>
      <trkpt lat="42.46853255666792392730712890625" lon="0.49981556832790374755859375">
        <ele>1350.199951171875</ele>
        <time>2039-05-14T10:53:32.000Z</time>
      </trkpt>
      <trkpt lat="42.46854982338845729827880859375" lon="0.4997880756855010986328125">
        <ele>1350.4000244140625</ele>
        <time>2039-05-14T10:53:40.000Z</time>
      </trkpt>
      <trkpt lat="42.4685487337410449981689453125" lon="0.4997865669429302215576171875">
        <ele>1350.199951171875</ele>
        <time>2039-05-14T10:53:49.000Z</time>
      </trkpt>
      <trkpt lat="42.4685512483119964599609375" lon="0.49978346563875675201416015625">
        <ele>1350.199951171875</ele>
        <time>2039-05-14T10:54:13.000Z</time>
      </trkpt>
      <trkpt lat="42.468551583588123321533203125" lon="0.49978329800069332122802734375">
        <ele>1350.4000244140625</ele>
        <time>2039-05-14T10:54:15.000Z</time>
      </trkpt>
      <trkpt lat="42.468551583588123321533203125" lon="0.49978212453424930572509765625">
        <ele>1350.4000244140625</ele>
        <time>2039-05-14T10:54:43.000Z</time>
      </trkpt>
      <trkpt lat="42.46855133213102817535400390625" lon="0.49978313036262989044189453125">
        <ele>1350.5999755859375</ele>
        <time>2039-05-14T10:55:08.000Z</time>
      </trkpt>
      <trkpt lat="42.46854864992201328277587890625" lon="0.499781034886837005615234375">
        <ele>1349.800048828125</ele>
        <time>2039-05-14T10:55:32.000Z</time>
      </trkpt>
      <trkpt lat="42.46854848228394985198974609375" lon="0.49977642484009265899658203125">
        <ele>1350.4000244140625</ele>
        <time>2039-05-14T10:56:11.000Z</time>
      </trkpt>
      <trkpt lat="42.46855200268328189849853515625" lon="0.49974172376096248626708984375">
        <ele>1350.4000244140625</ele>
        <time>2039-05-14T10:56:18.000Z</time>
      </trkpt>
      <trkpt lat="42.468548901379108428955078125" lon="0.4997225292026996612548828125">
        <ele>1350.4000244140625</ele>
        <time>2039-05-14T10:56:19.000Z</time>
      </trkpt>
      <trkpt lat="42.46854722499847412109375" lon="0.49965589307248592376708984375">
        <ele>1350.4000244140625</ele>
        <time>2039-05-14T10:56:22.000Z</time>
      </trkpt>
      <trkpt lat="42.46855384670197963714599609375" lon="0.49955698661506175994873046875">
        <ele>1350.5999755859375</ele>
        <time>2039-05-14T10:56:27.000Z</time>
      </trkpt>
      <trkpt lat="42.4685594625771045684814453125" lon="0.49947216175496578216552734375">
        <ele>1351</ele>
        <time>2039-05-14T10:56:31.000Z</time>
      </trkpt>
      <trkpt lat="42.4685698561370372772216796875" lon="0.49941466189920902252197265625">
        <ele>1351.4000244140625</ele>
        <time>2039-05-14T10:56:34.000Z</time>
      </trkpt>
      <trkpt lat="42.468577735126018524169921875" lon="0.49929320812225341796875">
        <ele>1351.5999755859375</ele>
        <time>2039-05-14T10:56:40.000Z</time>
      </trkpt>
      <trkpt lat="42.4685869552195072174072265625" lon="0.499144010245800018310546875">
        <ele>1351.5999755859375</ele>
        <time>2039-05-14T10:56:46.000Z</time>
      </trkpt>
      <trkpt lat="42.46862241066992282867431640625" lon="0.499017275869846343994140625">
        <ele>1351.800048828125</ele>
        <time>2039-05-14T10:56:52.000Z</time>
      </trkpt>
      <trkpt lat="42.4686513282358646392822265625" lon="0.49885743297636508941650390625">
        <ele>1351.800048828125</ele>
        <time>2039-05-14T10:56:58.000Z</time>
      </trkpt>
      <trkpt lat="42.46872265823185443878173828125" lon="0.498797334730625152587890625">
        <ele>1351.199951171875</ele>
        <time>2039-05-14T10:57:03.000Z</time>
      </trkpt>
      <trkpt lat="42.46878418140113353729248046875" lon="0.498825497925281524658203125">
        <ele>1350.4000244140625</ele>
        <time>2039-05-14T10:57:06.000Z</time>
      </trkpt>
      <trkpt lat="42.4688065610826015472412109375" lon="0.4988320358097553253173828125">
        <ele>1350.199951171875</ele>
        <time>2039-05-14T10:57:07.000Z</time>
      </trkpt>
      <trkpt lat="42.468827180564403533935546875" lon="0.49883815459907054901123046875">
        <ele>1350.199951171875</ele>
        <time>2039-05-14T10:57:08.000Z</time>
      </trkpt>
      <trkpt lat="42.46894863434135913848876953125" lon="0.4988293536007404327392578125">
        <ele>1350.199951171875</ele>
        <time>2039-05-14T10:57:13.000Z</time>
      </trkpt>
      <trkpt lat="42.46914678253233432769775390625" lon="0.49883564002811908721923828125">
        <ele>1349.5999755859375</ele>
        <time>2039-05-14T10:57:21.000Z</time>
      </trkpt>
      <trkpt lat="42.4692303501069545745849609375" lon="0.49884318374097347259521484375">
        <ele>1349.199951171875</ele>
        <time>2039-05-14T10:57:25.000Z</time>
      </trkpt>
      <trkpt lat="42.4692685715854167938232421875" lon="0.49885977990925312042236328125">
        <ele>1349</ele>
        <time>2039-05-14T10:57:27.000Z</time>
      </trkpt>
      <trkpt lat="42.4693403206765651702880859375" lon="0.4988977499306201934814453125">
        <ele>1347.800048828125</ele>
        <time>2039-05-14T10:57:31.000Z</time>
      </trkpt>
      <trkpt lat="42.46936152689158916473388671875" lon="0.49890738911926746368408203125">
        <ele>1347.199951171875</ele>
        <time>2039-05-14T10:57:33.000Z</time>
      </trkpt>
      <trkpt lat="42.4693785421550273895263671875" lon="0.49891359172761440277099609375">
        <ele>1346.800048828125</ele>
        <time>2039-05-14T10:57:35.000Z</time>
      </trkpt>
      <trkpt lat="42.46944241225719451904296875" lon="0.49890671856701374053955078125">
        <ele>1345.5999755859375</ele>
        <time>2039-05-14T10:57:40.000Z</time>
      </trkpt>
      <trkpt lat="42.4695324338972568511962890625" lon="0.4988283477723598480224609375">
        <ele>1344.5999755859375</ele>
        <time>2039-05-14T10:57:46.000Z</time>
      </trkpt>
      <trkpt lat="42.46954970061779022216796875" lon="0.49880764447152614593505859375">
        <ele>1344.4000244140625</ele>
        <time>2039-05-14T10:57:47.000Z</time>
      </trkpt>
      <trkpt lat="42.4695844016969203948974609375" lon="0.49868241883814334869384765625">
        <ele>1343.199951171875</ele>
        <time>2039-05-14T10:57:51.000Z</time>
      </trkpt>
      <trkpt lat="42.46959370560944080352783203125" lon="0.498532466590404510498046875">
        <ele>1342.5999755859375</ele>
        <time>2039-05-14T10:57:56.000Z</time>
      </trkpt>
      <trkpt lat="42.46967551298439502716064453125" lon="0.49842844717204570770263671875">
        <ele>1342.199951171875</ele>
        <time>2039-05-14T10:58:01.000Z</time>
      </trkpt>
      <trkpt lat="42.46969521045684814453125" lon="0.49841679632663726806640625">
        <ele>1342.199951171875</ele>
        <time>2039-05-14T10:58:02.000Z</time>
      </trkpt>
      <trkpt lat="42.4697922728955745697021484375" lon="0.4983700253069400787353515625">
        <ele>1341.199951171875</ele>
        <time>2039-05-14T10:58:07.000Z</time>
      </trkpt>
      <trkpt lat="42.46981498785316944122314453125" lon="0.49835686571896076202392578125">
        <ele>1341</ele>
        <time>2039-05-14T10:58:08.000Z</time>
      </trkpt>
      <trkpt lat="42.4699428118765354156494140625" lon="0.49826131202280521392822265625">
        <ele>1340</ele>
        <time>2039-05-14T10:58:13.000Z</time>
      </trkpt>
      <trkpt lat="42.469967119395732879638671875" lon="0.49823700450360774993896484375">
        <ele>1339.800048828125</ele>
        <time>2039-05-14T10:58:14.000Z</time>
      </trkpt>
      <trkpt lat="42.47010986320674419403076171875" lon="0.4980940930545330047607421875">
        <ele>1338.5999755859375</ele>
        <time>2039-05-14T10:58:19.000Z</time>
      </trkpt>
      <trkpt lat="42.4701553769409656524658203125" lon="0.49804237671196460723876953125">
        <ele>1338</ele>
        <time>2039-05-14T10:58:21.000Z</time>
      </trkpt>
      <trkpt lat="42.47023609466850757598876953125" lon="0.497932322323322296142578125">
        <ele>1337.5999755859375</ele>
        <time>2039-05-14T10:58:25.000Z</time>
      </trkpt>
      <trkpt lat="42.47026576660573482513427734375" lon="0.49787976779043674468994140625">
        <ele>1337.199951171875</ele>
        <time>2039-05-14T10:58:27.000Z</time>
      </trkpt>
      <trkpt lat="42.47037305496633052825927734375" lon="0.49770894460380077362060546875">
        <ele>1336.5999755859375</ele>
        <time>2039-05-14T10:58:35.000Z</time>
      </trkpt>
      <trkpt lat="42.47038864530622959136962890625" lon="0.49769385717809200286865234375">
        <ele>1336.4000244140625</ele>
        <time>2039-05-14T10:58:36.000Z</time>
      </trkpt>
      <trkpt lat="42.47049325145781040191650390625" lon="0.497579611837863922119140625">
        <ele>1336.199951171875</ele>
        <time>2039-05-14T10:58:43.000Z</time>
      </trkpt>
      <trkpt lat="42.4706680141389369964599609375" lon="0.49743100069463253021240234375">
        <ele>1335.199951171875</ele>
        <time>2039-05-14T10:58:51.000Z</time>
      </trkpt>
      <trkpt lat="42.4706918187439441680908203125" lon="0.49742362461984157562255859375">
        <ele>1335</ele>
        <time>2039-05-14T10:58:52.000Z</time>
      </trkpt>
      <trkpt lat="42.47080170549452304840087890625" lon="0.4974091239273548126220703125">
        <ele>1333.5999755859375</ele>
        <time>2039-05-14T10:58:56.000Z</time>
      </trkpt>
      <trkpt lat="42.4708540923893451690673828125" lon="0.49738087691366672515869140625">
        <ele>1332.5999755859375</ele>
        <time>2039-05-14T10:58:58.000Z</time>
      </trkpt>
      <trkpt lat="42.470878399908542633056640625" lon="0.49736268818378448486328125">
        <ele>1332.199951171875</ele>
        <time>2039-05-14T10:58:59.000Z</time>
      </trkpt>
      <trkpt lat="42.470940090715885162353515625" lon="0.4972797073423862457275390625">
        <ele>1331.199951171875</ele>
        <time>2039-05-14T10:59:03.000Z</time>
      </trkpt>
      <trkpt lat="42.47105735354125499725341796875" lon="0.49727794714272022247314453125">
        <ele>1331</ele>
        <time>2039-05-14T10:59:08.000Z</time>
      </trkpt>
      <trkpt lat="42.47111770324409008026123046875" lon="0.49732337705790996551513671875">
        <ele>1330.4000244140625</ele>
        <time>2039-05-14T10:59:10.000Z</time>
      </trkpt>
      <trkpt lat="42.47114737518131732940673828125" lon="0.4973481036722660064697265625">
        <ele>1330</ele>
        <time>2039-05-14T10:59:11.000Z</time>
      </trkpt>
      <trkpt lat="42.47123773209750652313232421875" lon="0.49742379225790500640869140625">
        <ele>1329</ele>
        <time>2039-05-14T10:59:14.000Z</time>
      </trkpt>
      <trkpt lat="42.47126824222505092620849609375" lon="0.49744608812034130096435546875">
        <ele>1329</ele>
        <time>2039-05-14T10:59:15.000Z</time>
      </trkpt>
      <trkpt lat="42.471468150615692138671875" lon="0.497558154165744781494140625">
        <ele>1328.199951171875</ele>
        <time>2039-05-14T10:59:22.000Z</time>
      </trkpt>
      <trkpt lat="42.471593208611011505126953125" lon="0.4976810328662395477294921875">
        <ele>1328</ele>
        <time>2039-05-14T10:59:27.000Z</time>
      </trkpt>
      <trkpt lat="42.47167191468179225921630859375" lon="0.49779611639678478240966796875">
        <ele>1328</ele>
        <time>2039-05-14T10:59:32.000Z</time>
      </trkpt>
      <trkpt lat="42.47168817557394504547119140625" lon="0.49780634231865406036376953125">
        <ele>1328</ele>
        <time>2039-05-14T10:59:33.000Z</time>
      </trkpt>
      <trkpt lat="42.47177702374756336212158203125" lon="0.49783299677073955535888671875">
        <ele>1327.4000244140625</ele>
        <time>2039-05-14T10:59:37.000Z</time>
      </trkpt>
      <trkpt lat="42.47182949446141719818115234375" lon="0.49785780720412731170654296875">
        <ele>1326.199951171875</ele>
        <time>2039-05-14T10:59:39.000Z</time>
      </trkpt>
      <trkpt lat="42.4719688855111598968505859375" lon="0.49790558405220508575439453125">
        <ele>1325.199951171875</ele>
        <time>2039-05-14T10:59:43.000Z</time>
      </trkpt>
      <trkpt lat="42.47212017886340618133544921875" lon="0.4980407841503620147705078125">
        <ele>1324.5999755859375</ele>
        <time>2039-05-14T10:59:48.000Z</time>
      </trkpt>
      <trkpt lat="42.472165860235691070556640625" lon="0.49814010970294475555419921875">
        <ele>1324.199951171875</ele>
        <time>2039-05-14T10:59:51.000Z</time>
      </trkpt>
      <trkpt lat="42.47218337841331958770751953125" lon="0.49819811247289180755615234375">
        <ele>1324</ele>
        <time>2039-05-14T10:59:53.000Z</time>
      </trkpt>
      <trkpt lat="42.4722253717482089996337890625" lon="0.49829819239675998687744140625">
        <ele>1323.800048828125</ele>
        <time>2039-05-14T10:59:57.000Z</time>
      </trkpt>
      <trkpt lat="42.4722672812640666961669921875" lon="0.4983009584248065948486328125">
        <ele>1324</ele>
        <time>2039-05-14T10:59:59.000Z</time>
      </trkpt>
      <trkpt lat="42.47234095819294452667236328125" lon="0.4982094280421733856201171875">
        <ele>1324.5999755859375</ele>
        <time>2039-05-14T11:00:03.000Z</time>
      </trkpt>
      <trkpt lat="42.472395189106464385986328125" lon="0.498046986758708953857421875">
        <ele>1323</ele>
        <time>2039-05-14T11:00:07.000Z</time>
      </trkpt>
      <trkpt lat="42.4724231846630573272705078125" lon="0.49795277416706085205078125">
        <ele>1322</ele>
        <time>2039-05-14T11:00:09.000Z</time>
      </trkpt>
      <trkpt lat="42.4724396131932735443115234375" lon="0.4979036562144756317138671875">
        <ele>1321.4000244140625</ele>
        <time>2039-05-14T11:00:10.000Z</time>
      </trkpt>
      <trkpt lat="42.47252837754786014556884765625" lon="0.49771883524954319000244140625">
        <ele>1321.4000244140625</ele>
        <time>2039-05-14T11:00:15.000Z</time>
      </trkpt>
      <trkpt lat="42.472666092216968536376953125" lon="0.49758740700781345367431640625">
        <ele>1321.800048828125</ele>
        <time>2039-05-14T11:00:22.000Z</time>
      </trkpt>
      <trkpt lat="42.47284420765936374664306640625" lon="0.49742379225790500640869140625">
        <ele>1320.4000244140625</ele>
        <time>2039-05-14T11:00:28.000Z</time>
      </trkpt>
      <trkpt lat="42.47286767698824405670166015625" lon="0.497392527759075164794921875">
        <ele>1320</ele>
        <time>2039-05-14T11:00:29.000Z</time>
      </trkpt>
      <trkpt lat="42.47299608774483203887939453125" lon="0.4972126521170139312744140625">
        <ele>1319.5999755859375</ele>
        <time>2039-05-14T11:00:35.000Z</time>
      </trkpt>
      <trkpt lat="42.4731101654469966888427734375" lon="0.49701877869665622711181640625">
        <ele>1320</ele>
        <time>2039-05-14T11:00:40.000Z</time>
      </trkpt>
      <trkpt lat="42.4731852672994136810302734375" lon="0.49689992330968379974365234375">
        <ele>1318.5999755859375</ele>
        <time>2039-05-14T11:00:43.000Z</time>
      </trkpt>
      <trkpt lat="42.47332750819623470306396484375" lon="0.49671501852571964263916015625">
        <ele>1318</ele>
        <time>2039-05-14T11:00:48.000Z</time>
      </trkpt>
      <trkpt lat="42.47339691035449504852294921875" lon="0.49661896191537380218505859375">
        <ele>1317.4000244140625</ele>
        <time>2039-05-14T11:00:51.000Z</time>
      </trkpt>
      <trkpt lat="42.47345021925866603851318359375" lon="0.49652391113340854644775390625">
        <ele>1316.800048828125</ele>
        <time>2039-05-14T11:00:54.000Z</time>
      </trkpt>
      <trkpt lat="42.47348408214747905731201171875" lon="0.49645987339317798614501953125">
        <ele>1316.4000244140625</ele>
        <time>2039-05-14T11:00:56.000Z</time>
      </trkpt>
      <trkpt lat="42.4735259078443050384521484375" lon="0.49635929055511951446533203125">
        <ele>1316.199951171875</ele>
        <time>2039-05-14T11:01:00.000Z</time>
      </trkpt>
      <trkpt lat="42.47360243462026119232177734375" lon="0.496173463761806488037109375">
        <ele>1315.4000244140625</ele>
        <time>2039-05-14T11:01:07.000Z</time>
      </trkpt>
      <trkpt lat="42.473619617521762847900390625" lon="0.4961528442800045013427734375">
        <ele>1315.199951171875</ele>
        <time>2039-05-14T11:01:08.000Z</time>
      </trkpt>
      <trkpt lat="42.473675273358821868896484375" lon="0.496113114058971405029296875">
        <ele>1314</ele>
        <time>2039-05-14T11:01:11.000Z</time>
      </trkpt>
      <trkpt lat="42.47375045903027057647705078125" lon="0.4961082525551319122314453125">
        <ele>1313.199951171875</ele>
        <time>2039-05-14T11:01:14.000Z</time>
      </trkpt>
      <trkpt lat="42.4738378822803497314453125" lon="0.49611789174377918243408203125">
        <ele>1312.4000244140625</ele>
        <time>2039-05-14T11:01:17.000Z</time>
      </trkpt>
      <trkpt lat="42.47390829026699066162109375" lon="0.496103055775165557861328125">
        <ele>1311.4000244140625</ele>
        <time>2039-05-14T11:01:20.000Z</time>
      </trkpt>
      <trkpt lat="42.47401465661823749542236328125" lon="0.49603172577917575836181640625">
        <ele>1311.199951171875</ele>
        <time>2039-05-14T11:01:26.000Z</time>
      </trkpt>
      <trkpt lat="42.4740926921367645263671875" lon="0.495990402996540069580078125">
        <ele>1311</ele>
        <time>2039-05-14T11:01:30.000Z</time>
      </trkpt>
      <trkpt lat="42.4741106294095516204833984375" lon="0.49594136886298656463623046875">
        <ele>1310.800048828125</ele>
        <time>2039-05-14T11:01:32.000Z</time>
      </trkpt>
      <trkpt lat="42.47409679926931858062744140625" lon="0.4958554543554782867431640625">
        <ele>1309.800048828125</ele>
        <time>2039-05-14T11:01:35.000Z</time>
      </trkpt>
      <trkpt lat="42.47407282702624797821044921875" lon="0.49579334445297718048095703125">
        <ele>1309.199951171875</ele>
        <time>2039-05-14T11:01:37.000Z</time>
      </trkpt>
      <trkpt lat="42.47403996996581554412841796875" lon="0.4957324080169200897216796875">
        <ele>1308.800048828125</ele>
        <time>2039-05-14T11:01:39.000Z</time>
      </trkpt>
      <trkpt lat="42.47398263774812221527099609375" lon="0.4956247843801975250244140625">
        <ele>1307.4000244140625</ele>
        <time>2039-05-14T11:01:43.000Z</time>
      </trkpt>
      <trkpt lat="42.47396118007600307464599609375" lon="0.495573319494724273681640625">
        <ele>1307</ele>
        <time>2039-05-14T11:01:45.000Z</time>
      </trkpt>
      <trkpt lat="42.47394584119319915771484375" lon="0.49551640637218952178955078125">
        <ele>1306.199951171875</ele>
        <time>2039-05-14T11:01:47.000Z</time>
      </trkpt>
      <trkpt lat="42.47396084479987621307373046875" lon="0.49545186571776866912841796875">
        <ele>1305.800048828125</ele>
        <time>2039-05-14T11:01:49.000Z</time>
      </trkpt>
      <trkpt lat="42.4739988148212432861328125" lon="0.4953994788229465484619140625">
        <ele>1305.199951171875</ele>
        <time>2039-05-14T11:01:51.000Z</time>
      </trkpt>
      <trkpt lat="42.4740569852292537689208984375" lon="0.49537106417119503021240234375">
        <ele>1304.800048828125</ele>
        <time>2039-05-14T11:01:53.000Z</time>
      </trkpt>
      <trkpt lat="42.47412957251071929931640625" lon="0.49536578357219696044921875">
        <ele>1304.4000244140625</ele>
        <time>2039-05-14T11:01:55.000Z</time>
      </trkpt>
      <trkpt lat="42.47416368685662746429443359375" lon="0.49536620266735553741455078125">
        <ele>1304.199951171875</ele>
        <time>2039-05-14T11:01:56.000Z</time>
      </trkpt>
      <trkpt lat="42.4742568098008632659912109375" lon="0.4953384585678577423095703125">
        <ele>1303.5999755859375</ele>
        <time>2039-05-14T11:01:59.000Z</time>
      </trkpt>
      <trkpt lat="42.47432160191237926483154296875" lon="0.49530887044966220855712890625">
        <ele>1303</ele>
        <time>2039-05-14T11:02:01.000Z</time>
      </trkpt>
      <trkpt lat="42.4745406210422515869140625" lon="0.4951666295528411865234375">
        <ele>1303</ele>
        <time>2039-05-14T11:02:08.000Z</time>
      </trkpt>
      <trkpt lat="42.4746326543390750885009765625" lon="0.4950486123561859130859375">
        <ele>1301.5999755859375</ele>
        <time>2039-05-14T11:02:12.000Z</time>
      </trkpt>
      <trkpt lat="42.47469241730868816375732421875" lon="0.494972169399261474609375">
        <ele>1301</ele>
        <time>2039-05-14T11:02:15.000Z</time>
      </trkpt>
      <trkpt lat="42.4747902341187000274658203125" lon="0.4948556609451770782470703125">
        <ele>1300</ele>
        <time>2039-05-14T11:02:20.000Z</time>
      </trkpt>
      <trkpt lat="42.47480951249599456787109375" lon="0.4948315210640430450439453125">
        <ele>1299.4000244140625</ele>
        <time>2039-05-14T11:02:21.000Z</time>
      </trkpt>
      <trkpt lat="42.474852092564105987548828125" lon="0.4947808943688869476318359375">
        <ele>1298.800048828125</ele>
        <time>2039-05-14T11:02:23.000Z</time>
      </trkpt>
      <trkpt lat="42.4749897234141826629638671875" lon="0.49462675116956233978271484375">
        <ele>1298</ele>
        <time>2039-05-14T11:02:29.000Z</time>
      </trkpt>
      <trkpt lat="42.47501059435307979583740234375" lon="0.49459934234619140625">
        <ele>1297.800048828125</ele>
        <time>2039-05-14T11:02:30.000Z</time>
      </trkpt>
      <trkpt lat="42.47505870647728443145751953125" lon="0.49450336955487728118896484375">
        <ele>1296.800048828125</ele>
        <time>2039-05-14T11:02:33.000Z</time>
      </trkpt>
      <trkpt lat="42.47508016414940357208251953125" lon="0.49444100819528102874755859375">
        <ele>1296.4000244140625</ele>
        <time>2039-05-14T11:02:35.000Z</time>
      </trkpt>
      <trkpt lat="42.47513330541551113128662109375" lon="0.49437328241765499114990234375">
        <ele>1296</ele>
        <time>2039-05-14T11:02:38.000Z</time>
      </trkpt>
      <trkpt lat="42.4751794897019863128662109375" lon="0.49437512643635272979736328125">
        <ele>1296</ele>
        <time>2039-05-14T11:02:40.000Z</time>
      </trkpt>
      <trkpt lat="42.47522919438779354095458984375" lon="0.49439474008977413177490234375">
        <ele>1296</ele>
        <time>2039-05-14T11:02:42.000Z</time>
      </trkpt>
      <trkpt lat="42.47537143528461456298828125" lon="0.4944315366446971893310546875">
        <ele>1295.800048828125</ele>
        <time>2039-05-14T11:02:46.000Z</time>
      </trkpt>
      <trkpt lat="42.47550043277442455291748046875" lon="0.49448224715888500213623046875">
        <ele>1294.5999755859375</ele>
        <time>2039-05-14T11:02:50.000Z</time>
      </trkpt>
      <trkpt lat="42.475523985922336578369140625" lon="0.4944992624223232269287109375">
        <ele>1294.5999755859375</ele>
        <time>2039-05-14T11:02:51.000Z</time>
      </trkpt>
      <trkpt lat="42.4757155962288379669189453125" lon="0.49466547556221485137939453125">
        <ele>1294.5999755859375</ele>
        <time>2039-05-14T11:03:00.000Z</time>
      </trkpt>
      <trkpt lat="42.47594651766121387481689453125" lon="0.494774691760540008544921875">
        <ele>1293.800048828125</ele>
        <time>2039-05-14T11:03:09.000Z</time>
      </trkpt>
      <trkpt lat="42.47597032226622104644775390625" lon="0.494786091148853302001953125">
        <ele>1293.5999755859375</ele>
        <time>2039-05-14T11:03:10.000Z</time>
      </trkpt>
      <trkpt lat="42.4760810472071170806884765625" lon="0.49481936730444431304931640625">
        <ele>1292.199951171875</ele>
        <time>2039-05-14T11:03:15.000Z</time>
      </trkpt>
      <trkpt lat="42.47613376937806606292724609375" lon="0.49481953494250774383544921875">
        <ele>1291.800048828125</ele>
        <time>2039-05-14T11:03:17.000Z</time>
      </trkpt>
      <trkpt lat="42.47626352123916149139404296875" lon="0.4947708360850811004638671875">
        <ele>1291</ele>
        <time>2039-05-14T11:03:22.000Z</time>
      </trkpt>
      <trkpt lat="42.47629143297672271728515625" lon="0.49475247971713542938232421875">
        <ele>1290.5999755859375</ele>
        <time>2039-05-14T11:03:23.000Z</time>
      </trkpt>
      <trkpt lat="42.47642009519040584564208984375" lon="0.4946839995682239532470703125">
        <ele>1290</ele>
        <time>2039-05-14T11:03:27.000Z</time>
      </trkpt>
      <trkpt lat="42.47648949734866619110107421875" lon="0.4946591891348361968994140625">
        <ele>1289.4000244140625</ele>
        <time>2039-05-14T11:03:29.000Z</time>
      </trkpt>
      <trkpt lat="42.47659343294799327850341796875" lon="0.4946140944957733154296875">
        <ele>1288.5999755859375</ele>
        <time>2039-05-14T11:03:32.000Z</time>
      </trkpt>
      <trkpt lat="42.47677749954164028167724609375" lon="0.4945228993892669677734375">
        <ele>1288.199951171875</ele>
        <time>2039-05-14T11:03:38.000Z</time>
      </trkpt>
      <trkpt lat="42.47696005739271640777587890625" lon="0.4944261722266674041748046875">
        <ele>1288.800048828125</ele>
        <time>2039-05-14T11:03:45.000Z</time>
      </trkpt>
      <trkpt lat="42.4770912341773509979248046875" lon="0.49434914253652095794677734375">
        <ele>1289</ele>
        <time>2039-05-14T11:03:52.000Z</time>
      </trkpt>
      <trkpt lat="42.47722484171390533447265625" lon="0.49426381476223468780517578125">
        <ele>1288.4000244140625</ele>
        <time>2039-05-14T11:03:59.000Z</time>
      </trkpt>
      <trkpt lat="42.47737227939069271087646484375" lon="0.494158454239368438720703125">
        <ele>1288</ele>
        <time>2039-05-14T11:04:06.000Z</time>
      </trkpt>
      <trkpt lat="42.4774003587663173675537109375" lon="0.49409701488912105560302734375">
        <ele>1287.5999755859375</ele>
        <time>2039-05-14T11:04:08.000Z</time>
      </trkpt>
      <trkpt lat="42.4774063937366008758544921875" lon="0.49406432546675205230712890625">
        <ele>1287.199951171875</ele>
        <time>2039-05-14T11:04:09.000Z</time>
      </trkpt>
      <trkpt lat="42.4774124287068843841552734375" lon="0.494001209735870361328125">
        <ele>1287</ele>
        <time>2039-05-14T11:04:11.000Z</time>
      </trkpt>
      <trkpt lat="42.47743564657866954803466796875" lon="0.49393138848245143890380859375">
        <ele>1286.800048828125</ele>
        <time>2039-05-14T11:04:13.000Z</time>
      </trkpt>
      <trkpt lat="42.47744746506214141845703125" lon="0.493898950517177581787109375">
        <ele>1286.4000244140625</ele>
        <time>2039-05-14T11:04:14.000Z</time>
      </trkpt>
      <trkpt lat="42.47745945118367671966552734375" lon="0.4938659258186817169189453125">
        <ele>1285.800048828125</ele>
        <time>2039-05-14T11:04:15.000Z</time>
      </trkpt>
      <trkpt lat="42.4775337986648082733154296875" lon="0.49370088614523410797119140625">
        <ele>1285.5999755859375</ele>
        <time>2039-05-14T11:04:20.000Z</time>
      </trkpt>
      <trkpt lat="42.4775710143148899078369140625" lon="0.4936590604484081268310546875">
        <ele>1285.5999755859375</ele>
        <time>2039-05-14T11:04:22.000Z</time>
      </trkpt>
      <trkpt lat="42.47760982252657413482666015625" lon="0.4936342500150203704833984375">
        <ele>1285.5999755859375</ele>
        <time>2039-05-14T11:04:24.000Z</time>
      </trkpt>
      <trkpt lat="42.47775583527982234954833984375" lon="0.49360985867679119110107421875">
        <ele>1286.199951171875</ele>
        <time>2039-05-14T11:04:29.000Z</time>
      </trkpt>
      <trkpt lat="42.47789547778666019439697265625" lon="0.4935412108898162841796875">
        <ele>1286.800048828125</ele>
        <time>2039-05-14T11:04:35.000Z</time>
      </trkpt>
      <trkpt lat="42.4779217131435871124267578125" lon="0.49351547844707965850830078125">
        <ele>1287.4000244140625</ele>
        <time>2039-05-14T11:04:37.000Z</time>
      </trkpt>
      <trkpt lat="42.47798348776996135711669921875" lon="0.49343350343406200408935546875">
        <ele>1288</ele>
        <time>2039-05-14T11:04:42.000Z</time>
      </trkpt>
      <trkpt lat="42.478079460561275482177734375" lon="0.49326284788548946380615234375">
        <ele>1288.199951171875</ele>
        <time>2039-05-14T11:04:50.000Z</time>
      </trkpt>
      <trkpt lat="42.47822723351418972015380859375" lon="0.4930562339723110198974609375">
        <ele>1287</ele>
        <time>2039-05-14T11:04:57.000Z</time>
      </trkpt>
      <trkpt lat="42.47824408113956451416015625" lon="0.49301256425678730010986328125">
        <ele>1286.5999755859375</ele>
        <time>2039-05-14T11:04:58.000Z</time>
      </trkpt>
      <trkpt lat="42.47826822102069854736328125" lon="0.49283352680504322052001953125">
        <ele>1286</ele>
        <time>2039-05-14T11:05:02.000Z</time>
      </trkpt>
      <trkpt lat="42.47826193459331989288330078125" lon="0.49274937249720096588134765625">
        <ele>1285.5999755859375</ele>
        <time>2039-05-14T11:05:04.000Z</time>
      </trkpt>
      <trkpt lat="42.4782549776136875152587890625" lon="0.492647700011730194091796875">
        <ele>1284.4000244140625</ele>
        <time>2039-05-14T11:05:07.000Z</time>
      </trkpt>
      <trkpt lat="42.47825615108013153076171875" lon="0.4926145076751708984375">
        <ele>1284.199951171875</ele>
        <time>2039-05-14T11:05:08.000Z</time>
      </trkpt>
      <trkpt lat="42.47831239365041255950927734375" lon="0.4924037866294384002685546875">
        <ele>1283.5999755859375</ele>
        <time>2039-05-14T11:05:13.000Z</time>
      </trkpt>
      <trkpt lat="42.47834642417728900909423828125" lon="0.49232843331992626190185546875">
        <ele>1283.199951171875</ele>
        <time>2039-05-14T11:05:15.000Z</time>
      </trkpt>
      <trkpt lat="42.47842756099998950958251953125" lon="0.49221544526517391204833984375">
        <ele>1282.800048828125</ele>
        <time>2039-05-14T11:05:19.000Z</time>
      </trkpt>
      <trkpt lat="42.47853510081768035888671875" lon="0.49201696179807186126708984375">
        <ele>1282.800048828125</ele>
        <time>2039-05-14T11:05:26.000Z</time>
      </trkpt>
      <trkpt lat="42.4786029942333698272705078125" lon="0.491833984851837158203125">
        <ele>1283</ele>
        <time>2039-05-14T11:05:33.000Z</time>
      </trkpt>
      <trkpt lat="42.478657476603984832763671875" lon="0.491724349558353424072265625">
        <ele>1282.199951171875</ele>
        <time>2039-05-14T11:05:37.000Z</time>
      </trkpt>
      <trkpt lat="42.478693015873432159423828125" lon="0.4916410334408283233642578125">
        <ele>1281.4000244140625</ele>
        <time>2039-05-14T11:05:40.000Z</time>
      </trkpt>
      <trkpt lat="42.47869863174855709075927734375" lon="0.49161429516971111297607421875">
        <ele>1281.199951171875</ele>
        <time>2039-05-14T11:05:41.000Z</time>
      </trkpt>
      <trkpt lat="42.478700391948223114013671875" lon="0.49158697016537189483642578125">
        <ele>1281</ele>
        <time>2039-05-14T11:05:42.000Z</time>
      </trkpt>
      <trkpt lat="42.4786604940891265869140625" lon="0.4914640076458454132080078125">
        <ele>1280</ele>
        <time>2039-05-14T11:05:47.000Z</time>
      </trkpt>
      <trkpt lat="42.47856770642101764678955078125" lon="0.49135730601847171783447265625">
        <ele>1278.199951171875</ele>
        <time>2039-05-14T11:05:51.000Z</time>
      </trkpt>
      <trkpt lat="42.4785371124744415283203125" lon="0.49131824634969234466552734375">
        <ele>1277.4000244140625</ele>
        <time>2039-05-14T11:05:52.000Z</time>
      </trkpt>
      <trkpt lat="42.47850500978529453277587890625" lon="0.49127784557640552520751953125">
        <ele>1277</ele>
        <time>2039-05-14T11:05:53.000Z</time>
      </trkpt>
      <trkpt lat="42.4783481843769550323486328125" lon="0.49111314117908477783203125">
        <ele>1276.199951171875</ele>
        <time>2039-05-14T11:05:58.000Z</time>
      </trkpt>
      <trkpt lat="42.47819311916828155517578125" lon="0.49098573625087738037109375">
        <ele>1276.4000244140625</ele>
        <time>2039-05-14T11:06:04.000Z</time>
      </trkpt>
      <trkpt lat="42.47814307920634746551513671875" lon="0.49084600992500782012939453125">
        <ele>1277.199951171875</ele>
        <time>2039-05-14T11:06:10.000Z</time>
      </trkpt>
      <trkpt lat="42.47810502536594867706298828125" lon="0.49076437018811702728271484375">
        <ele>1278</ele>
        <time>2039-05-14T11:06:14.000Z</time>
      </trkpt>
      <trkpt lat="42.47805004008114337921142578125" lon="0.490709133446216583251953125">
        <ele>1278.4000244140625</ele>
        <time>2039-05-14T11:06:18.000Z</time>
      </trkpt>
      <trkpt lat="42.478022463619709014892578125" lon="0.49067736603319644927978515625">
        <ele>1278.4000244140625</ele>
        <time>2039-05-14T11:06:20.000Z</time>
      </trkpt>
      <trkpt lat="42.47801072895526885986328125" lon="0.49060192890465259552001953125">
        <ele>1278.5999755859375</ele>
        <time>2039-05-14T11:06:23.000Z</time>
      </trkpt>
      <trkpt lat="42.47802724130451679229736328125" lon="0.490530095994472503662109375">
        <ele>1279</ele>
        <time>2039-05-14T11:06:26.000Z</time>
      </trkpt>
      <trkpt lat="42.478050626814365386962890625" lon="0.49049262888729572296142578125">
        <ele>1279.5999755859375</ele>
        <time>2039-05-14T11:06:28.000Z</time>
      </trkpt>
      <trkpt lat="42.4780618585646152496337890625" lon="0.4904725961387157440185546875">
        <ele>1279.800048828125</ele>
        <time>2039-05-14T11:06:29.000Z</time>
      </trkpt>
      <trkpt lat="42.47811189852654933929443359375" lon="0.4903964884579181671142578125">
        <ele>1280</ele>
        <time>2039-05-14T11:06:33.000Z</time>
      </trkpt>
      <trkpt lat="42.47813008725643157958984375" lon="0.4903539083898067474365234375">
        <ele>1281.199951171875</ele>
        <time>2039-05-14T11:06:35.000Z</time>
      </trkpt>
      <trkpt lat="42.4781369604170322418212890625" lon="0.4903076402842998504638671875">
        <ele>1281.5999755859375</ele>
        <time>2039-05-14T11:06:37.000Z</time>
      </trkpt>
      <trkpt lat="42.47814324684441089630126953125" lon="0.49025726504623889923095703125">
        <ele>1282.199951171875</ele>
        <time>2039-05-14T11:06:39.000Z</time>
      </trkpt>
      <trkpt lat="42.47814525850117206573486328125" lon="0.49022306688129901885986328125">
        <ele>1283.5999755859375</ele>
        <time>2039-05-14T11:06:42.000Z</time>
      </trkpt>
      <trkpt lat="42.478145174682140350341796875" lon="0.4902244918048381805419921875">
        <ele>1283.800048828125</ele>
        <time>2039-05-14T11:06:43.000Z</time>
      </trkpt>
      <trkpt lat="42.478143163025379180908203125" lon="0.49022289924323558807373046875">
        <ele>1284.199951171875</ele>
        <time>2039-05-14T11:07:03.000Z</time>
      </trkpt>
      <trkpt lat="42.47812346555292606353759765625" lon="0.4901765473186969757080078125">
        <ele>1284</ele>
        <time>2039-05-14T11:07:12.000Z</time>
      </trkpt>
      <trkpt lat="42.47810586355626583099365234375" lon="0.49014628864824771881103515625">
        <ele>1284</ele>
        <time>2039-05-14T11:07:14.000Z</time>
      </trkpt>
      <trkpt lat="42.47809865511953830718994140625" lon="0.49008778296411037445068359375">
        <ele>1284.4000244140625</ele>
        <time>2039-05-14T11:07:17.000Z</time>
      </trkpt>
      <trkpt lat="42.47815288603305816650390625" lon="0.48998284153640270233154296875">
        <ele>1284.5999755859375</ele>
        <time>2039-05-14T11:07:23.000Z</time>
      </trkpt>
      <trkpt lat="42.478186078369617462158203125" lon="0.4899700172245502471923828125">
        <ele>1284.5999755859375</ele>
        <time>2039-05-14T11:07:25.000Z</time>
      </trkpt>
      <trkpt lat="42.47823293320834636688232421875" lon="0.48999038524925708770751953125">
        <ele>1284.5999755859375</ele>
        <time>2039-05-14T11:07:28.000Z</time>
      </trkpt>
      <trkpt lat="42.4783069454133510589599609375" lon="0.49007554538547992706298828125">
        <ele>1284.800048828125</ele>
        <time>2039-05-14T11:07:33.000Z</time>
      </trkpt>
      <trkpt lat="42.4783515371382236480712890625" lon="0.4901292733848094940185546875">
        <ele>1284.800048828125</ele>
        <time>2039-05-14T11:07:36.000Z</time>
      </trkpt>
      <trkpt lat="42.47844516299664974212646484375" lon="0.4903036169707775115966796875">
        <ele>1285.199951171875</ele>
        <time>2039-05-14T11:07:44.000Z</time>
      </trkpt>
      <trkpt lat="42.47853644192218780517578125" lon="0.4904325306415557861328125">
        <ele>1285.800048828125</ele>
        <time>2039-05-14T11:07:51.000Z</time>
      </trkpt>
      <trkpt lat="42.47863241471350193023681640625" lon="0.490502603352069854736328125">
        <ele>1287</ele>
        <time>2039-05-14T11:07:57.000Z</time>
      </trkpt>
      <trkpt lat="42.4786497652530670166015625" lon="0.49050637520849704742431640625">
        <ele>1287.199951171875</ele>
        <time>2039-05-14T11:07:58.000Z</time>
      </trkpt>
      <trkpt lat="42.47873249463737010955810546875" lon="0.4905419982969760894775390625">
        <ele>1288.4000244140625</ele>
        <time>2039-05-14T11:08:03.000Z</time>
      </trkpt>
      <trkpt lat="42.47878178022801876068115234375" lon="0.49055264331400394439697265625">
        <ele>1288.800048828125</ele>
        <time>2039-05-14T11:08:06.000Z</time>
      </trkpt>
      <trkpt lat="42.4789007194340229034423828125" lon="0.49058415926992893218994140625">
        <ele>1289.5999755859375</ele>
        <time>2039-05-14T11:08:13.000Z</time>
      </trkpt>
      <trkpt lat="42.47891840524971485137939453125" lon="0.49059103243052959442138671875">
        <ele>1289.5999755859375</ele>
        <time>2039-05-14T11:08:14.000Z</time>
      </trkpt>
      <trkpt lat="42.47907447628676891326904296875" lon="0.49063864164054393768310546875">
        <ele>1290.199951171875</ele>
        <time>2039-05-14T11:08:23.000Z</time>
      </trkpt>
      <trkpt lat="42.47910632751882076263427734375" lon="0.49065758474171161651611328125">
        <ele>1290.5999755859375</ele>
        <time>2039-05-14T11:08:25.000Z</time>
      </trkpt>
      <trkpt lat="42.4791675992310047149658203125" lon="0.4907032661139965057373046875">
        <ele>1291.5999755859375</ele>
        <time>2039-05-14T11:08:29.000Z</time>
      </trkpt>
      <trkpt lat="42.479205317795276641845703125" lon="0.49072346650063991546630859375">
        <ele>1291.5999755859375</ele>
        <time>2039-05-14T11:08:31.000Z</time>
      </trkpt>
      <trkpt lat="42.47936189174652099609375" lon="0.490762107074260711669921875">
        <ele>1291.4000244140625</ele>
        <time>2039-05-14T11:08:39.000Z</time>
      </trkpt>
      <trkpt lat="42.479479573667049407958984375" lon="0.4907471872866153717041015625">
        <ele>1290.800048828125</ele>
        <time>2039-05-14T11:08:45.000Z</time>
      </trkpt>
      <trkpt lat="42.47948233969509601593017578125" lon="0.49074291251599788665771484375">
        <ele>1290.5999755859375</ele>
        <time>2039-05-14T11:08:47.000Z</time>
      </trkpt>
      <trkpt lat="42.47948435135185718536376953125" lon="0.4907337762415409088134765625">
        <ele>1290.4000244140625</ele>
        <time>2039-05-14T11:08:50.000Z</time>
      </trkpt>
      <trkpt lat="42.47948368079960346221923828125" lon="0.4907307587563991546630859375">
        <ele>1290.5999755859375</ele>
        <time>2039-05-14T11:08:54.000Z</time>
      </trkpt>
      <trkpt lat="42.479465492069721221923828125" lon="0.4907079599797725677490234375">
        <ele>1289.800048828125</ele>
        <time>2039-05-14T11:15:01.000Z</time>
      </trkpt>
      <trkpt lat="42.479460798203945159912109375" lon="0.49070016480982303619384765625">
        <ele>1289.800048828125</ele>
        <time>2039-05-14T11:15:03.000Z</time>
      </trkpt>
      <trkpt lat="42.47945350594818592071533203125" lon="0.490687005221843719482421875">
        <ele>1289.800048828125</ele>
        <time>2039-05-14T11:15:04.000Z</time>
      </trkpt>
      <trkpt lat="42.4794425256550312042236328125" lon="0.4905557446181774139404296875">
        <ele>1289</ele>
        <time>2039-05-14T11:15:09.000Z</time>
      </trkpt>
      <trkpt lat="42.4794492311775684356689453125" lon="0.4905292578041553497314453125">
        <ele>1289</ele>
        <time>2039-05-14T11:15:10.000Z</time>
      </trkpt>
      <trkpt lat="42.4794529192149639129638671875" lon="0.4905054531991481781005859375">
        <ele>1288.800048828125</ele>
        <time>2039-05-14T11:15:11.000Z</time>
      </trkpt>
      <trkpt lat="42.47944378294050693511962890625" lon="0.4904410801827907562255859375">
        <ele>1288.4000244140625</ele>
        <time>2039-05-14T11:15:14.000Z</time>
      </trkpt>
      <trkpt lat="42.47943808324635028839111328125" lon="0.4903864301741123199462890625">
        <ele>1287.800048828125</ele>
        <time>2039-05-14T11:15:16.000Z</time>
      </trkpt>
      <trkpt lat="42.47942534275352954864501953125" lon="0.49026531167328357696533203125">
        <ele>1286.800048828125</ele>
        <time>2039-05-14T11:15:20.000Z</time>
      </trkpt>
      <trkpt lat="42.4794207327067852020263671875" lon="0.49023379571735858917236328125">
        <ele>1286.4000244140625</ele>
        <time>2039-05-14T11:15:21.000Z</time>
      </trkpt>
      <trkpt lat="42.4794133566319942474365234375" lon="0.49016087315976619720458984375">
        <ele>1285.199951171875</ele>
        <time>2039-05-14T11:15:24.000Z</time>
      </trkpt>
      <trkpt lat="42.47941243462264537811279296875" lon="0.49015668220818042755126953125">
        <ele>1285</ele>
        <time>2039-05-14T11:15:25.000Z</time>
      </trkpt>
      <trkpt lat="42.4793989397585391998291015625" lon="0.4901249147951602935791015625">
        <ele>1285</ele>
        <time>2039-05-14T11:15:33.000Z</time>
      </trkpt>
      <trkpt lat="42.479397766292095184326171875" lon="0.4901245795190334320068359375">
        <ele>1285.5999755859375</ele>
        <time>2039-05-14T11:15:52.000Z</time>
      </trkpt>
      <trkpt lat="42.4793975986540317535400390625" lon="0.49012365750968456268310546875">
        <ele>1285.199951171875</ele>
        <time>2039-05-14T11:16:16.000Z</time>
      </trkpt>
      <trkpt lat="42.47939768247306346893310546875" lon="0.49012348987162113189697265625">
        <ele>1285.4000244140625</ele>
        <time>2039-05-14T11:16:31.000Z</time>
      </trkpt>
      <trkpt lat="42.4793979339301586151123046875" lon="0.4901213943958282470703125">
        <ele>1285</ele>
        <time>2039-05-14T11:16:52.000Z</time>
      </trkpt>
      <trkpt lat="42.47935845516622066497802734375" lon="0.4900434426963329315185546875">
        <ele>1284.4000244140625</ele>
        <time>2039-05-14T11:16:57.000Z</time>
      </trkpt>
      <trkpt lat="42.4793446250259876251220703125" lon="0.49001938663423061370849609375">
        <ele>1284.199951171875</ele>
        <time>2039-05-14T11:16:58.000Z</time>
      </trkpt>
      <trkpt lat="42.47931755147874355316162109375" lon="0.4899395070970058441162109375">
        <ele>1283.800048828125</ele>
        <time>2039-05-14T11:17:01.000Z</time>
      </trkpt>
      <trkpt lat="42.479320652782917022705078125" lon="0.48991880379617214202880859375">
        <ele>1283.5999755859375</ele>
        <time>2039-05-14T11:17:02.000Z</time>
      </trkpt>
      <trkpt lat="42.479336746037006378173828125" lon="0.48988259397447109222412109375">
        <ele>1283.199951171875</ele>
        <time>2039-05-14T11:17:04.000Z</time>
      </trkpt>
      <trkpt lat="42.4793815053999423980712890625" lon="0.48984856344759464263916015625">
        <ele>1282</ele>
        <time>2039-05-14T11:17:08.000Z</time>
      </trkpt>
      <trkpt lat="42.4794321320950984954833984375" lon="0.48988225869834423065185546875">
        <ele>1281.199951171875</ele>
        <time>2039-05-14T11:17:15.000Z</time>
      </trkpt>
      <trkpt lat="42.4794328026473522186279296875" lon="0.489890389144420623779296875">
        <ele>1281</ele>
        <time>2039-05-14T11:17:17.000Z</time>
      </trkpt>
      <trkpt lat="42.47944772243499755859375" lon="0.48994914628565311431884765625">
        <ele>1280.5999755859375</ele>
        <time>2039-05-14T11:17:21.000Z</time>
      </trkpt>
      <trkpt lat="42.47946976684033870697021484375" lon="0.49000027589499950408935546875">
        <ele>1280.199951171875</ele>
        <time>2039-05-14T11:17:23.000Z</time>
      </trkpt>
      <trkpt lat="42.4795370735228061676025390625" lon="0.49014125950634479522705078125">
        <ele>1279</ele>
        <time>2039-05-14T11:17:28.000Z</time>
      </trkpt>
      <trkpt lat="42.47964411042630672454833984375" lon="0.49021460115909576416015625">
        <ele>1278.199951171875</ele>
        <time>2039-05-14T11:17:33.000Z</time>
      </trkpt>
      <trkpt lat="42.47966565191745758056640625" lon="0.49023396335542201995849609375">
        <ele>1278</ele>
        <time>2039-05-14T11:17:34.000Z</time>
      </trkpt>
      <trkpt lat="42.4797583557665348052978515625" lon="0.49036773853003978729248046875">
        <ele>1276.800048828125</ele>
        <time>2039-05-14T11:17:39.000Z</time>
      </trkpt>
      <trkpt lat="42.4797778017818927764892578125" lon="0.4903948120772838592529296875">
        <ele>1276.199951171875</ele>
        <time>2039-05-14T11:17:40.000Z</time>
      </trkpt>
      <trkpt lat="42.47979708015918731689453125" lon="0.4904258251190185546875">
        <ele>1275.800048828125</ele>
        <time>2039-05-14T11:17:41.000Z</time>
      </trkpt>
      <trkpt lat="42.47982733882963657379150390625" lon="0.4905232228338718414306640625">
        <ele>1274.5999755859375</ele>
        <time>2039-05-14T11:17:44.000Z</time>
      </trkpt>
      <trkpt lat="42.47983689419925212860107421875" lon="0.4905537329614162445068359375">
        <ele>1274.4000244140625</ele>
        <time>2039-05-14T11:17:45.000Z</time>
      </trkpt>
      <trkpt lat="42.4798757024109363555908203125" lon="0.4906462691724300384521484375">
        <ele>1273.4000244140625</ele>
        <time>2039-05-14T11:17:48.000Z</time>
      </trkpt>
      <trkpt lat="42.4799219705164432525634765625" lon="0.49074961803853511810302734375">
        <ele>1272.4000244140625</ele>
        <time>2039-05-14T11:17:52.000Z</time>
      </trkpt>
      <trkpt lat="42.4799330346286296844482421875" lon="0.49077258445322513580322265625">
        <ele>1272</ele>
        <time>2039-05-14T11:17:53.000Z</time>
      </trkpt>
      <trkpt lat="42.47996329329907894134521484375" lon="0.49084165133535861968994140625">
        <ele>1271.4000244140625</ele>
        <time>2039-05-14T11:17:56.000Z</time>
      </trkpt>
      <trkpt lat="42.479996569454669952392578125" lon="0.490892194211483001708984375">
        <ele>1270.199951171875</ele>
        <time>2039-05-14T11:17:59.000Z</time>
      </trkpt>
      <trkpt lat="42.4800091423094272613525390625" lon="0.4909020848572254180908203125">
        <ele>1269.800048828125</ele>
        <time>2039-05-14T11:18:00.000Z</time>
      </trkpt>
      <trkpt lat="42.48002615757286548614501953125" lon="0.49091625027358531951904296875">
        <ele>1269.4000244140625</ele>
        <time>2039-05-14T11:18:05.000Z</time>
      </trkpt>
      <trkpt lat="42.48002699576318264007568359375" lon="0.49091641791164875030517578125">
        <ele>1269.199951171875</ele>
        <time>2039-05-14T11:18:07.000Z</time>
      </trkpt>
      <trkpt lat="42.4800644628703594207763671875" lon="0.49092044122517108917236328125">
        <ele>1269</ele>
        <time>2039-05-14T11:18:11.000Z</time>
      </trkpt>
      <trkpt lat="42.48010561801493167877197265625" lon="0.4909087903797626495361328125">
        <ele>1268.199951171875</ele>
        <time>2039-05-14T11:18:15.000Z</time>
      </trkpt>
      <trkpt lat="42.4801093898713588714599609375" lon="0.4909034259617328643798828125">
        <ele>1268</ele>
        <time>2039-05-14T11:18:16.000Z</time>
      </trkpt>
      <trkpt lat="42.480125986039638519287109375" lon="0.49087652005255222320556640625">
        <ele>1267.5999755859375</ele>
        <time>2039-05-14T11:18:18.000Z</time>
      </trkpt>
      <trkpt lat="42.48014568351209163665771484375" lon="0.49082689918577671051025390625">
        <ele>1267</ele>
        <time>2039-05-14T11:18:21.000Z</time>
      </trkpt>
      <trkpt lat="42.4801544845104217529296875" lon="0.4907570779323577880859375">
        <ele>1266.4000244140625</ele>
        <time>2039-05-14T11:18:24.000Z</time>
      </trkpt>
      <trkpt lat="42.48015540651977062225341796875" lon="0.49070871435105800628662109375">
        <ele>1266.199951171875</ele>
        <time>2039-05-14T11:18:26.000Z</time>
      </trkpt>
      <trkpt lat="42.48015305958688259124755859375" lon="0.4906821437180042266845703125">
        <ele>1266</ele>
        <time>2039-05-14T11:18:27.000Z</time>
      </trkpt>
      <trkpt lat="42.4801425822079181671142578125" lon="0.4905906133353710174560546875">
        <ele>1265.199951171875</ele>
        <time>2039-05-14T11:18:30.000Z</time>
      </trkpt>
      <trkpt lat="42.48014031909406185150146484375" lon="0.49056169576942920684814453125">
        <ele>1264.800048828125</ele>
        <time>2039-05-14T11:18:31.000Z</time>
      </trkpt>
      <trkpt lat="42.48013244010508060455322265625" lon="0.49047485925257205963134765625">
        <ele>1263.5999755859375</ele>
        <time>2039-05-14T11:18:34.000Z</time>
      </trkpt>
      <trkpt lat="42.480120621621608734130859375" lon="0.49039858393371105194091796875">
        <ele>1263</ele>
        <time>2039-05-14T11:18:37.000Z</time>
      </trkpt>
      <trkpt lat="42.48011215589940547943115234375" lon="0.49034728668630123138427734375">
        <ele>1262.4000244140625</ele>
        <time>2039-05-14T11:18:39.000Z</time>
      </trkpt>
      <trkpt lat="42.480104528367519378662109375" lon="0.49030990339815616607666015625">
        <ele>1261.4000244140625</ele>
        <time>2039-05-14T11:18:43.000Z</time>
      </trkpt>
      <trkpt lat="42.4800701625645160675048828125" lon="0.49024485982954502105712890625">
        <ele>1260.800048828125</ele>
        <time>2039-05-14T11:18:49.000Z</time>
      </trkpt>
      <trkpt lat="42.4800686538219451904296875" lon="0.4902412556111812591552734375">
        <ele>1260.199951171875</ele>
        <time>2039-05-14T11:18:53.000Z</time>
      </trkpt>
      <trkpt lat="42.4800684861838817596435546875" lon="0.49023681320250034332275390625">
        <ele>1260</ele>
        <time>2039-05-14T11:18:56.000Z</time>
      </trkpt>
      <trkpt lat="42.48005700297653675079345703125" lon="0.4901413433253765106201171875">
        <ele>1259.199951171875</ele>
        <time>2039-05-14T11:19:03.000Z</time>
      </trkpt>
      <trkpt lat="42.4800466932356357574462890625" lon="0.4900055564939975738525390625">
        <ele>1258.5999755859375</ele>
        <time>2039-05-14T11:19:12.000Z</time>
      </trkpt>
      <trkpt lat="42.4800419993698596954345703125" lon="0.48993221484124660491943359375">
        <ele>1258</ele>
        <time>2039-05-14T11:19:17.000Z</time>
      </trkpt>
      <trkpt lat="42.48004174791276454925537109375" lon="0.48992986790835857391357421875">
        <ele>1257.5999755859375</ele>
        <time>2039-05-14T11:19:19.000Z</time>
      </trkpt>
      <trkpt lat="42.480040825903415679931640625" lon="0.48991293646395206451416015625">
        <ele>1257.4000244140625</ele>
        <time>2039-05-14T11:19:25.000Z</time>
      </trkpt>
      <trkpt lat="42.4800391495227813720703125" lon="0.48990589566528797149658203125">
        <ele>1257</ele>
        <time>2039-05-14T11:19:36.000Z</time>
      </trkpt>
      <trkpt lat="42.480038814246654510498046875" lon="0.4898989386856555938720703125">
        <ele>1256.800048828125</ele>
        <time>2039-05-14T11:19:38.000Z</time>
      </trkpt>
      <trkpt lat="42.48003638349473476409912109375" lon="0.4898238368332386016845703125">
        <ele>1256.800048828125</ele>
        <time>2039-05-14T11:19:45.000Z</time>
      </trkpt>
      <trkpt lat="42.4800255708396434783935546875" lon="0.489778406918048858642578125">
        <ele>1256</ele>
        <time>2039-05-14T11:19:50.000Z</time>
      </trkpt>
      <trkpt lat="42.48002498410642147064208984375" lon="0.4897768981754779815673828125">
        <ele>1256.199951171875</ele>
        <time>2039-05-14T11:19:51.000Z</time>
      </trkpt>
      <trkpt lat="42.4800249002873897552490234375" lon="0.48977698199450969696044921875">
        <ele>1256</ele>
        <time>2039-05-14T11:20:19.000Z</time>
      </trkpt>
      <trkpt lat="42.48002464883029460906982421875" lon="0.48977765254676342010498046875">
        <ele>1256.199951171875</ele>
        <time>2039-05-14T11:20:34.000Z</time>
      </trkpt>
      <trkpt lat="42.48001324944198131561279296875" lon="0.48973658122122287750244140625">
        <ele>1256.199951171875</ele>
        <time>2039-05-14T11:20:50.000Z</time>
      </trkpt>
      <trkpt lat="42.47996748425066471099853515625" lon="0.48954664729535579681396484375">
        <ele>1256</ele>
        <time>2039-05-14T11:20:56.000Z</time>
      </trkpt>
      <trkpt lat="42.47990177012979984283447265625" lon="0.4892766661942005157470703125">
        <ele>1255.5999755859375</ele>
        <time>2039-05-14T11:21:04.000Z</time>
      </trkpt>
      <trkpt lat="42.4798254109919071197509765625" lon="0.48908933065831661224365234375">
        <ele>1255.5999755859375</ele>
        <time>2039-05-14T11:21:10.000Z</time>
      </trkpt>
      <trkpt lat="42.4797499738633632659912109375" lon="0.48889989964663982391357421875">
        <ele>1256.4000244140625</ele>
        <time>2039-05-14T11:21:17.000Z</time>
      </trkpt>
      <trkpt lat="42.479638494551181793212890625" lon="0.4887519590556621551513671875">
        <ele>1256.4000244140625</ele>
        <time>2039-05-14T11:21:24.000Z</time>
      </trkpt>
      <trkpt lat="42.47954092919826507568359375" lon="0.48859043978154659271240234375">
        <ele>1257.199951171875</ele>
        <time>2039-05-14T11:21:31.000Z</time>
      </trkpt>
      <trkpt lat="42.47952877543866634368896484375" lon="0.48857032321393489837646484375">
        <ele>1257.5999755859375</ele>
        <time>2039-05-14T11:21:32.000Z</time>
      </trkpt>
      <trkpt lat="42.47948267497122287750244140625" lon="0.48849052749574184417724609375">
        <ele>1258.5999755859375</ele>
        <time>2039-05-14T11:21:36.000Z</time>
      </trkpt>
      <trkpt lat="42.47945199720561504364013671875" lon="0.488456077873706817626953125">
        <ele>1259.199951171875</ele>
        <time>2039-05-14T11:21:38.000Z</time>
      </trkpt>
      <trkpt lat="42.47939684428274631500244140625" lon="0.4883938841521739959716796875">
        <ele>1259.5999755859375</ele>
        <time>2039-05-14T11:21:42.000Z</time>
      </trkpt>
      <trkpt lat="42.47937169857323169708251953125" lon="0.488361530005931854248046875">
        <ele>1259.5999755859375</ele>
        <time>2039-05-14T11:21:44.000Z</time>
      </trkpt>
      <trkpt lat="42.47936381958425045013427734375" lon="0.488264970481395721435546875">
        <ele>1260</ele>
        <time>2039-05-14T11:21:49.000Z</time>
      </trkpt>
      <trkpt lat="42.4793959222733974456787109375" lon="0.48823705874383449554443359375">
        <ele>1260.199951171875</ele>
        <time>2039-05-14T11:21:52.000Z</time>
      </trkpt>
      <trkpt lat="42.47944612987339496612548828125" lon="0.4882175289094448089599609375">
        <ele>1260.4000244140625</ele>
        <time>2039-05-14T11:21:55.000Z</time>
      </trkpt>
      <trkpt lat="42.479568086564540863037109375" lon="0.48819380812346935272216796875">
        <ele>1259.800048828125</ele>
        <time>2039-05-14T11:22:00.000Z</time>
      </trkpt>
      <trkpt lat="42.4796904623508453369140625" lon="0.48817520029842853546142578125">
        <ele>1258.199951171875</ele>
        <time>2039-05-14T11:22:05.000Z</time>
      </trkpt>
      <trkpt lat="42.47974217869341373443603515625" lon="0.48816665075719356536865234375">
        <ele>1257</ele>
        <time>2039-05-14T11:22:07.000Z</time>
      </trkpt>
      <trkpt lat="42.47982968576252460479736328125" lon="0.48815860413014888763427734375">
        <ele>1256.5999755859375</ele>
        <time>2039-05-14T11:22:10.000Z</time>
      </trkpt>
      <trkpt lat="42.47998961247503757476806640625" lon="0.48814603127539157867431640625">
        <ele>1255.800048828125</ele>
        <time>2039-05-14T11:22:17.000Z</time>
      </trkpt>
      <trkpt lat="42.4801181070506572723388671875" lon="0.4881420917809009552001953125">
        <ele>1254.800048828125</ele>
        <time>2039-05-14T11:22:22.000Z</time>
      </trkpt>
      <trkpt lat="42.48014786280691623687744140625" lon="0.48814653418958187103271484375">
        <ele>1254.5999755859375</ele>
        <time>2039-05-14T11:22:23.000Z</time>
      </trkpt>
      <trkpt lat="42.48026110231876373291015625" lon="0.48817737959325313568115234375">
        <ele>1253.4000244140625</ele>
        <time>2039-05-14T11:22:27.000Z</time>
      </trkpt>
      <trkpt lat="42.4803078733384609222412109375" lon="0.4881950654089450836181640625">
        <ele>1253</ele>
        <time>2039-05-14T11:22:29.000Z</time>
      </trkpt>
      <trkpt lat="42.48041541315615177154541015625" lon="0.488203279674053192138671875">
        <ele>1252.4000244140625</ele>
        <time>2039-05-14T11:22:33.000Z</time>
      </trkpt>
      <trkpt lat="42.48046570457518100738525390625" lon="0.4881930537521839141845703125">
        <ele>1251.800048828125</ele>
        <time>2039-05-14T11:22:35.000Z</time>
      </trkpt>
      <trkpt lat="42.48048984445631504058837890625" lon="0.48818307928740978240966796875">
        <ele>1251.4000244140625</ele>
        <time>2039-05-14T11:22:36.000Z</time>
      </trkpt>
      <trkpt lat="42.48060300014913082122802734375" lon="0.48814318142831325531005859375">
        <ele>1251.4000244140625</ele>
        <time>2039-05-14T11:22:41.000Z</time>
      </trkpt>
      <trkpt lat="42.48075370676815509796142578125" lon="0.48806405626237392425537109375">
        <ele>1250</ele>
        <time>2039-05-14T11:22:47.000Z</time>
      </trkpt>
      <trkpt lat="42.48090240173041820526123046875" lon="0.48787613399326801300048828125">
        <ele>1249.199951171875</ele>
        <time>2039-05-14T11:22:55.000Z</time>
      </trkpt>
      <trkpt lat="42.48091983608901500701904296875" lon="0.48784495331346988677978515625">
        <ele>1248.5999755859375</ele>
        <time>2039-05-14T11:22:56.000Z</time>
      </trkpt>
      <trkpt lat="42.48098353855311870574951171875" lon="0.4877115972340106964111328125">
        <ele>1247.5999755859375</ele>
        <time>2039-05-14T11:23:00.000Z</time>
      </trkpt>
      <trkpt lat="42.481009103357791900634765625" lon="0.48764429055154323577880859375">
        <ele>1247.5999755859375</ele>
        <time>2039-05-14T11:23:02.000Z</time>
      </trkpt>
      <trkpt lat="42.48103626072406768798828125" lon="0.48757723532617092132568359375">
        <ele>1246.4000244140625</ele>
        <time>2039-05-14T11:23:04.000Z</time>
      </trkpt>
      <trkpt lat="42.481062747538089752197265625" lon="0.4875278659164905548095703125">
        <ele>1245.199951171875</ele>
        <time>2039-05-14T11:23:06.000Z</time>
      </trkpt>
      <trkpt lat="42.48108780942857265472412109375" lon="0.48747380264103412628173828125">
        <ele>1245</ele>
        <time>2039-05-14T11:23:08.000Z</time>
      </trkpt>
      <trkpt lat="42.48120331205427646636962890625" lon="0.487336255609989166259765625">
        <ele>1244.5999755859375</ele>
        <time>2039-05-14T11:23:13.000Z</time>
      </trkpt>
      <trkpt lat="42.48127539642155170440673828125" lon="0.48714070580899715423583984375">
        <ele>1244.5999755859375</ele>
        <time>2039-05-14T11:23:18.000Z</time>
      </trkpt>
      <trkpt lat="42.4813534319400787353515625" lon="0.4869213514029979705810546875">
        <ele>1244.4000244140625</ele>
        <time>2039-05-14T11:23:23.000Z</time>
      </trkpt>
      <trkpt lat="42.4813775718212127685546875" lon="0.48688639886677265167236328125">
        <ele>1244.4000244140625</ele>
        <time>2039-05-14T11:23:24.000Z</time>
      </trkpt>
      <trkpt lat="42.48148544691503047943115234375" lon="0.486803837120532989501953125">
        <ele>1243.5999755859375</ele>
        <time>2039-05-14T11:23:28.000Z</time>
      </trkpt>
      <trkpt lat="42.48158468864858150482177734375" lon="0.4867319203913211822509765625">
        <ele>1243.800048828125</ele>
        <time>2039-05-14T11:23:33.000Z</time>
      </trkpt>
      <trkpt lat="42.48167487792670726776123046875" lon="0.48664282076060771942138671875">
        <ele>1244.800048828125</ele>
        <time>2039-05-14T11:23:39.000Z</time>
      </trkpt>
      <trkpt lat="42.48168393038213253021240234375" lon="0.48662446439266204833984375">
        <ele>1245</ele>
        <time>2039-05-14T11:23:40.000Z</time>
      </trkpt>
      <trkpt lat="42.48171075247228145599365234375" lon="0.4865156672894954681396484375">
        <ele>1245.199951171875</ele>
        <time>2039-05-14T11:23:45.000Z</time>
      </trkpt>
      <trkpt lat="42.4817237444221973419189453125" lon="0.48646646551787853240966796875">
        <ele>1245.4000244140625</ele>
        <time>2039-05-14T11:23:47.000Z</time>
      </trkpt>
      <trkpt lat="42.48175048269331455230712890625" lon="0.4863929562270641326904296875">
        <ele>1245.4000244140625</ele>
        <time>2039-05-14T11:23:50.000Z</time>
      </trkpt>
      <trkpt lat="42.48175651766359806060791015625" lon="0.48633554019033908843994140625">
        <ele>1245.4000244140625</ele>
        <time>2039-05-14T11:23:52.000Z</time>
      </trkpt>
      <trkpt lat="42.48174704611301422119140625" lon="0.486247278749942779541015625">
        <ele>1245.5999755859375</ele>
        <time>2039-05-14T11:23:55.000Z</time>
      </trkpt>
      <trkpt lat="42.4817348085343837738037109375" lon="0.4861626215279102325439453125">
        <ele>1245.4000244140625</ele>
        <time>2039-05-14T11:23:58.000Z</time>
      </trkpt>
      <trkpt lat="42.48171712271869182586669921875" lon="0.48602842725813388824462890625">
        <ele>1245</ele>
        <time>2039-05-14T11:24:03.000Z</time>
      </trkpt>
      <trkpt lat="42.48174704611301422119140625" lon="0.4858736135065555572509765625">
        <ele>1246.199951171875</ele>
        <time>2039-05-14T11:24:09.000Z</time>
      </trkpt>
      <trkpt lat="42.4817710183560848236083984375" lon="0.48582382500171661376953125">
        <ele>1246.5999755859375</ele>
        <time>2039-05-14T11:24:11.000Z</time>
      </trkpt>
      <trkpt lat="42.48183329589664936065673828125" lon="0.4857547581195831298828125">
        <ele>1247.800048828125</ele>
        <time>2039-05-14T11:24:15.000Z</time>
      </trkpt>
      <trkpt lat="42.48185056261718273162841796875" lon="0.485744364559650421142578125">
        <ele>1248</ele>
        <time>2039-05-14T11:24:16.000Z</time>
      </trkpt>
      <trkpt lat="42.4819963239133358001708984375" lon="0.485648475587368011474609375">
        <ele>1248.4000244140625</ele>
        <time>2039-05-14T11:24:24.000Z</time>
      </trkpt>
      <trkpt lat="42.48217779211699962615966796875" lon="0.48557362519204616546630859375">
        <ele>1248.199951171875</ele>
        <time>2039-05-14T11:24:32.000Z</time>
      </trkpt>
      <trkpt lat="42.482309304177761077880859375" lon="0.48552618362009525299072265625">
        <ele>1249</ele>
        <time>2039-05-14T11:24:39.000Z</time>
      </trkpt>
      <trkpt lat="42.48232581652700901031494140625" lon="0.4855188913643360137939453125">
        <ele>1249.199951171875</ele>
        <time>2039-05-14T11:24:40.000Z</time>
      </trkpt>
      <trkpt lat="42.48243075795471668243408203125" lon="0.48548561520874500274658203125">
        <ele>1249.5999755859375</ele>
        <time>2039-05-14T11:24:46.000Z</time>
      </trkpt>
      <trkpt lat="42.48250988312065601348876953125" lon="0.48545460216701030731201171875">
        <ele>1250.5999755859375</ele>
        <time>2039-05-14T11:24:51.000Z</time>
      </trkpt>
      <trkpt lat="42.4825243838131427764892578125" lon="0.4854444600641727447509765625">
        <ele>1250.5999755859375</ele>
        <time>2039-05-14T11:24:52.000Z</time>
      </trkpt>
      <trkpt lat="42.48262035660445690155029296875" lon="0.485354773700237274169921875">
        <ele>1250.800048828125</ele>
        <time>2039-05-14T11:24:59.000Z</time>
      </trkpt>
      <trkpt lat="42.482678107917308807373046875" lon="0.4852692782878875732421875">
        <ele>1251.5999755859375</ele>
        <time>2039-05-14T11:25:04.000Z</time>
      </trkpt>
      <trkpt lat="42.4826987273991107940673828125" lon="0.48523105680942535400390625">
        <ele>1251.5999755859375</ele>
        <time>2039-05-14T11:25:06.000Z</time>
      </trkpt>
      <trkpt lat="42.482747845351696014404296875" lon="0.48511044122278690338134765625">
        <ele>1251.5999755859375</ele>
        <time>2039-05-14T11:25:11.000Z</time>
      </trkpt>
      <trkpt lat="42.48281481675803661346435546875" lon="0.484974570572376251220703125">
        <ele>1250.800048828125</ele>
        <time>2039-05-14T11:25:16.000Z</time>
      </trkpt>
      <trkpt lat="42.48290039598941802978515625" lon="0.484804920852184295654296875">
        <ele>1251.4000244140625</ele>
        <time>2039-05-14T11:25:22.000Z</time>
      </trkpt>
      <trkpt lat="42.482967115938663482666015625" lon="0.4846505261957645416259765625">
        <ele>1250.5999755859375</ele>
        <time>2039-05-14T11:25:28.000Z</time>
      </trkpt>
      <trkpt lat="42.482974492013454437255859375" lon="0.4846233688294887542724609375">
        <ele>1250.4000244140625</ele>
        <time>2039-05-14T11:25:29.000Z</time>
      </trkpt>
      <trkpt lat="42.482991926372051239013671875" lon="0.48453074879944324493408203125">
        <ele>1250.4000244140625</ele>
        <time>2039-05-14T11:25:32.000Z</time>
      </trkpt>
      <trkpt lat="42.482980526983737945556640625" lon="0.48447023145854473114013671875">
        <ele>1250.800048828125</ele>
        <time>2039-05-14T11:25:34.000Z</time>
      </trkpt>
      <trkpt lat="42.48294071294367313385009765625" lon="0.48435925506055355072021484375">
        <ele>1250.800048828125</ele>
        <time>2039-05-14T11:25:37.000Z</time>
      </trkpt>
      <trkpt lat="42.4829012341797351837158203125" lon="0.48423671163618564605712890625">
        <ele>1250.199951171875</ele>
        <time>2039-05-14T11:25:40.000Z</time>
      </trkpt>
      <trkpt lat="42.482869215309619903564453125" lon="0.4841060377657413482666015625">
        <ele>1249.199951171875</ele>
        <time>2039-05-14T11:25:43.000Z</time>
      </trkpt>
      <trkpt lat="42.48284499160945415496826171875" lon="0.48397100530564785003662109375">
        <ele>1248.5999755859375</ele>
        <time>2039-05-14T11:25:46.000Z</time>
      </trkpt>
      <trkpt lat="42.48283912427723407745361328125" lon="0.483766905963420867919921875">
        <ele>1248</ele>
        <time>2039-05-14T11:25:50.000Z</time>
      </trkpt>
      <trkpt lat="42.48282906599342823028564453125" lon="0.48365391790866851806640625">
        <ele>1247.5999755859375</ele>
        <time>2039-05-14T11:25:52.000Z</time>
      </trkpt>
      <trkpt lat="42.4828154034912586212158203125" lon="0.48359700478613376617431640625">
        <ele>1246.5999755859375</ele>
        <time>2039-05-14T11:25:53.000Z</time>
      </trkpt>
      <trkpt lat="42.48276402242481708526611328125" lon="0.4834264330565929412841796875">
        <ele>1246</ele>
        <time>2039-05-14T11:25:56.000Z</time>
      </trkpt>
      <trkpt lat="42.48275958001613616943359375" lon="0.48337153159081935882568359375">
        <ele>1245.800048828125</ele>
        <time>2039-05-14T11:25:57.000Z</time>
      </trkpt>
      <trkpt lat="42.48275823891162872314453125" lon="0.483325012028217315673828125">
        <ele>1245.800048828125</ele>
        <time>2039-05-14T11:25:58.000Z</time>
      </trkpt>
      <trkpt lat="42.48278698883950710296630859375" lon="0.4832507483661174774169921875">
        <ele>1245.5999755859375</ele>
        <time>2039-05-14T11:26:00.000Z</time>
      </trkpt>
      <trkpt lat="42.48287064023315906524658203125" lon="0.483156703412532806396484375">
        <ele>1245.199951171875</ele>
        <time>2039-05-14T11:26:04.000Z</time>
      </trkpt>
      <trkpt lat="42.482900060713291168212890625" lon="0.4831307195127010345458984375">
        <ele>1245</ele>
        <time>2039-05-14T11:26:05.000Z</time>
      </trkpt>
      <trkpt lat="42.48298396356403827667236328125" lon="0.48303592018783092498779296875">
        <ele>1245</ele>
        <time>2039-05-14T11:26:09.000Z</time>
      </trkpt>
      <trkpt lat="42.482993602752685546875" lon="0.483009852468967437744140625">
        <ele>1245</ele>
        <time>2039-05-14T11:26:10.000Z</time>
      </trkpt>
      <trkpt lat="42.4830259568989276885986328125" lon="0.48292695544660091400146484375">
        <ele>1245.199951171875</ele>
        <time>2039-05-14T11:26:13.000Z</time>
      </trkpt>
      <trkpt lat="42.4831424653530120849609375" lon="0.48280592076480388641357421875">
        <ele>1246</ele>
        <time>2039-05-14T11:26:19.000Z</time>
      </trkpt>
      <trkpt lat="42.483240030705928802490234375" lon="0.48278261907398700714111328125">
        <ele>1247</ele>
        <time>2039-05-14T11:26:23.000Z</time>
      </trkpt>
      <trkpt lat="42.48328437097370624542236328125" lon="0.48277222551405429840087890625">
        <ele>1247.199951171875</ele>
        <time>2039-05-14T11:26:25.000Z</time>
      </trkpt>
      <trkpt lat="42.4834209121763706207275390625" lon="0.482746660709381103515625">
        <ele>1248.199951171875</ele>
        <time>2039-05-14T11:26:31.000Z</time>
      </trkpt>
      <trkpt lat="42.483466006815433502197265625" lon="0.48274456523358821868896484375">
        <ele>1249</ele>
        <time>2039-05-14T11:26:33.000Z</time>
      </trkpt>
      <trkpt lat="42.48348779976367950439453125" lon="0.48274607397615909576416015625">
        <ele>1249.199951171875</ele>
        <time>2039-05-14T11:26:34.000Z</time>
      </trkpt>
      <trkpt lat="42.483577318489551544189453125" lon="0.48276166431605815887451171875">
        <ele>1249.800048828125</ele>
        <time>2039-05-14T11:26:39.000Z</time>
      </trkpt>
      <trkpt lat="42.48362534679472446441650390625" lon="0.48273685388267040252685546875">
        <ele>1250.4000244140625</ele>
        <time>2039-05-14T11:26:42.000Z</time>
      </trkpt>
      <trkpt lat="42.4836881272494792938232421875" lon="0.48268027603626251220703125">
        <ele>1251.199951171875</ele>
        <time>2039-05-14T11:26:46.000Z</time>
      </trkpt>
      <trkpt lat="42.48371846973896026611328125" lon="0.4826546274125576019287109375">
        <ele>1251.4000244140625</ele>
        <time>2039-05-14T11:26:48.000Z</time>
      </trkpt>
      <trkpt lat="42.48378493823111057281494140625" lon="0.48257692717015743255615234375">
        <ele>1252.800048828125</ele>
        <time>2039-05-14T11:26:53.000Z</time>
      </trkpt>
      <trkpt lat="42.4838242493569850921630859375" lon="0.48249763436615467071533203125">
        <ele>1253.800048828125</ele>
        <time>2039-05-14T11:26:57.000Z</time>
      </trkpt>
      <trkpt lat="42.48383522965013980865478515625" lon="0.48244960606098175048828125">
        <ele>1254.800048828125</ele>
        <time>2039-05-14T11:26:59.000Z</time>
      </trkpt>
      <trkpt lat="42.4838344752788543701171875" lon="0.48242722637951374053955078125">
        <ele>1255</ele>
        <time>2039-05-14T11:27:00.000Z</time>
      </trkpt>
      <trkpt lat="42.4837970919907093048095703125" lon="0.48233452253043651580810546875">
        <ele>1255.800048828125</ele>
        <time>2039-05-14T11:27:04.000Z</time>
      </trkpt>
      <trkpt lat="42.4837622232735157012939453125" lon="0.48228557221591472625732421875">
        <ele>1256</ele>
        <time>2039-05-14T11:27:07.000Z</time>
      </trkpt>
      <trkpt lat="42.48374369926750659942626953125" lon="0.482247434556484222412109375">
        <ele>1256.5999755859375</ele>
        <time>2039-05-14T11:27:09.000Z</time>
      </trkpt>
      <trkpt lat="42.48372358269989490509033203125" lon="0.482199154794216156005859375">
        <ele>1257.4000244140625</ele>
        <time>2039-05-14T11:27:12.000Z</time>
      </trkpt>
      <trkpt lat="42.48370916582643985748291015625" lon="0.48214785754680633544921875">
        <ele>1258.199951171875</ele>
        <time>2039-05-14T11:27:15.000Z</time>
      </trkpt>
      <trkpt lat="42.48370371758937835693359375" lon="0.48213184811174869537353515625">
        <ele>1258.5999755859375</ele>
        <time>2039-05-14T11:27:16.000Z</time>
      </trkpt>
      <trkpt lat="42.48367932625114917755126953125" lon="0.48203545622527599334716796875">
        <ele>1259.199951171875</ele>
        <time>2039-05-14T11:27:21.000Z</time>
      </trkpt>
      <trkpt lat="42.48366842977702617645263671875" lon="0.48188575543463230133056640625">
        <ele>1259.5999755859375</ele>
        <time>2039-05-14T11:27:29.000Z</time>
      </trkpt>
      <trkpt lat="42.48367345891892910003662109375" lon="0.4818633757531642913818359375">
        <ele>1259.5999755859375</ele>
        <time>2039-05-14T11:27:30.000Z</time>
      </trkpt>
      <trkpt lat="42.48374369926750659942626953125" lon="0.48173035494983196258544921875">
        <ele>1259.4000244140625</ele>
        <time>2039-05-14T11:27:36.000Z</time>
      </trkpt>
      <trkpt lat="42.48381913639605045318603515625" lon="0.48157294280827045440673828125">
        <ele>1258.800048828125</ele>
        <time>2039-05-14T11:27:41.000Z</time>
      </trkpt>
      <trkpt lat="42.48382701538503170013427734375" lon="0.4815337993204593658447265625">
        <ele>1258.5999755859375</ele>
        <time>2039-05-14T11:27:42.000Z</time>
      </trkpt>
      <trkpt lat="42.4838302843272686004638671875" lon="0.4814084060490131378173828125">
        <ele>1257.800048828125</ele>
        <time>2039-05-14T11:27:45.000Z</time>
      </trkpt>
      <trkpt lat="42.4838156998157501220703125" lon="0.4812535084784030914306640625">
        <ele>1257.5999755859375</ele>
        <time>2039-05-14T11:27:49.000Z</time>
      </trkpt>
      <trkpt lat="42.4838151969015598297119140625" lon="0.48119693063199520111083984375">
        <ele>1257.5999755859375</ele>
        <time>2039-05-14T11:27:51.000Z</time>
      </trkpt>
      <trkpt lat="42.48383958823978900909423828125" lon="0.4811059869825839996337890625">
        <ele>1258</ele>
        <time>2039-05-14T11:27:56.000Z</time>
      </trkpt>
      <trkpt lat="42.4839241616427898406982421875" lon="0.48097849823534488677978515625">
        <ele>1258.199951171875</ele>
        <time>2039-05-14T11:28:02.000Z</time>
      </trkpt>
      <trkpt lat="42.48402968980371952056884765625" lon="0.48082552850246429443359375">
        <ele>1258.199951171875</ele>
        <time>2039-05-14T11:28:08.000Z</time>
      </trkpt>
      <trkpt lat="42.484093643724918365478515625" lon="0.48058547079563140869140625">
        <ele>1257.5999755859375</ele>
        <time>2039-05-14T11:28:14.000Z</time>
      </trkpt>
      <trkpt lat="42.484087608754634857177734375" lon="0.48055169172585010528564453125">
        <ele>1257</ele>
        <time>2039-05-14T11:28:15.000Z</time>
      </trkpt>
      <trkpt lat="42.48404033482074737548828125" lon="0.48045814968645572662353515625">
        <ele>1256.4000244140625</ele>
        <time>2039-05-14T11:28:18.000Z</time>
      </trkpt>
      <trkpt lat="42.48393765650689601898193359375" lon="0.48031280748546123504638671875">
        <ele>1256.199951171875</ele>
        <time>2039-05-14T11:28:24.000Z</time>
      </trkpt>
      <trkpt lat="42.483922652900218963623046875" lon="0.48029151745140552520751953125">
        <ele>1256</ele>
        <time>2039-05-14T11:28:25.000Z</time>
      </trkpt>
      <trkpt lat="42.4838728643953800201416015625" lon="0.4802372865378856658935546875">
        <ele>1255.800048828125</ele>
        <time>2039-05-14T11:28:29.000Z</time>
      </trkpt>
      <trkpt lat="42.48380119912326335906982421875" lon="0.48013695515692234039306640625">
        <ele>1255.800048828125</ele>
        <time>2039-05-14T11:28:36.000Z</time>
      </trkpt>
      <trkpt lat="42.48375711031258106231689453125" lon="0.47999479807913303375244140625">
        <ele>1255.4000244140625</ele>
        <time>2039-05-14T11:28:42.000Z</time>
      </trkpt>
      <trkpt lat="42.48374462127685546875" lon="0.4799409024417400360107421875">
        <ele>1255.4000244140625</ele>
        <time>2039-05-14T11:28:44.000Z</time>
      </trkpt>
      <trkpt lat="42.48374931514263153076171875" lon="0.47985616140067577362060546875">
        <ele>1255.4000244140625</ele>
        <time>2039-05-14T11:28:47.000Z</time>
      </trkpt>
      <trkpt lat="42.48381259851157665252685546875" lon="0.47969053499400615692138671875">
        <ele>1255</ele>
        <time>2039-05-14T11:28:53.000Z</time>
      </trkpt>
      <trkpt lat="42.4838369898498058319091796875" lon="0.479672849178314208984375">
        <ele>1254.800048828125</ele>
        <time>2039-05-14T11:28:54.000Z</time>
      </trkpt>
      <trkpt lat="42.48394603841006755828857421875" lon="0.47962917946279048919677734375">
        <ele>1254.4000244140625</ele>
        <time>2039-05-14T11:28:58.000Z</time>
      </trkpt>
      <trkpt lat="42.4840924702584743499755859375" lon="0.47951535321772098541259765625">
        <ele>1254.199951171875</ele>
        <time>2039-05-14T11:29:04.000Z</time>
      </trkpt>
      <trkpt lat="42.48418986797332763671875" lon="0.47940605320036411285400390625">
        <ele>1253.800048828125</ele>
        <time>2039-05-14T11:29:09.000Z</time>
      </trkpt>
      <trkpt lat="42.48420822434127330780029296875" lon="0.4793876968324184417724609375">
        <ele>1254</ele>
        <time>2039-05-14T11:29:10.000Z</time>
      </trkpt>
      <trkpt lat="42.48429656960070133209228515625" lon="0.4792150296270847320556640625">
        <ele>1254.5999755859375</ele>
        <time>2039-05-14T11:29:16.000Z</time>
      </trkpt>
      <trkpt lat="42.48429774306714534759521484375" lon="0.478988550603389739990234375">
        <ele>1254</ele>
        <time>2039-05-14T11:29:21.000Z</time>
      </trkpt>
      <trkpt lat="42.484321631491184234619140625" lon="0.47879643738269805908203125">
        <ele>1253.199951171875</ele>
        <time>2039-05-14T11:29:27.000Z</time>
      </trkpt>
      <trkpt lat="42.48438826762139797210693359375" lon="0.478690154850482940673828125">
        <ele>1253.5999755859375</ele>
        <time>2039-05-14T11:29:31.000Z</time>
      </trkpt>
      <trkpt lat="42.48449270613491535186767578125" lon="0.47866894863545894622802734375">
        <ele>1254</ele>
        <time>2039-05-14T11:29:35.000Z</time>
      </trkpt>
      <trkpt lat="42.48460887931287288665771484375" lon="0.47866291366517543792724609375">
        <ele>1254.199951171875</ele>
        <time>2039-05-14T11:29:40.000Z</time>
      </trkpt>
      <trkpt lat="42.48463033698499202728271484375" lon="0.47866006381809711456298828125">
        <ele>1254.199951171875</ele>
        <time>2039-05-14T11:29:41.000Z</time>
      </trkpt>
      <trkpt lat="42.48476075939834117889404296875" lon="0.47860994003713130950927734375">
        <ele>1254.800048828125</ele>
        <time>2039-05-14T11:29:47.000Z</time>
      </trkpt>
      <trkpt lat="42.4847814626991748809814453125" lon="0.47860390506684780120849609375">
        <ele>1255</ele>
        <time>2039-05-14T11:29:48.000Z</time>
      </trkpt>
      <trkpt lat="42.48491163365542888641357421875" lon="0.47857590951025485992431640625">
        <ele>1256</ele>
        <time>2039-05-14T11:29:54.000Z</time>
      </trkpt>
      <trkpt lat="42.48499008826911449432373046875" lon="0.4785582236945629119873046875">
        <ele>1257.199951171875</ele>
        <time>2039-05-14T11:29:58.000Z</time>
      </trkpt>
      <trkpt lat="42.48507164418697357177734375" lon="0.47854690812528133392333984375">
        <ele>1258</ele>
        <time>2039-05-14T11:30:02.000Z</time>
      </trkpt>
      <trkpt lat="42.48508949764072895050048828125" lon="0.47854472883045673370361328125">
        <ele>1258.199951171875</ele>
        <time>2039-05-14T11:30:03.000Z</time>
      </trkpt>
      <trkpt lat="42.48517398722469806671142578125" lon="0.47849829308688640594482421875">
        <ele>1259.4000244140625</ele>
        <time>2039-05-14T11:30:08.000Z</time>
      </trkpt>
      <trkpt lat="42.485234923660755157470703125" lon="0.478394441306591033935546875">
        <ele>1260.5999755859375</ele>
        <time>2039-05-14T11:30:14.000Z</time>
      </trkpt>
      <trkpt lat="42.4852421320974826812744140625" lon="0.4783754982054233551025390625">
        <ele>1260.800048828125</ele>
        <time>2039-05-14T11:30:15.000Z</time>
      </trkpt>
      <trkpt lat="42.48528026975691318511962890625" lon="0.47829226590692996978759765625">
        <ele>1261.5999755859375</ele>
        <time>2039-05-14T11:30:20.000Z</time>
      </trkpt>
      <trkpt lat="42.48530541546642780303955078125" lon="0.47824767418205738067626953125">
        <ele>1261.800048828125</ele>
        <time>2039-05-14T11:30:23.000Z</time>
      </trkpt>
      <trkpt lat="42.48536006547510623931884765625" lon="0.47817894257605075836181640625">
        <ele>1262.5999755859375</ele>
        <time>2039-05-14T11:30:28.000Z</time>
      </trkpt>
      <trkpt lat="42.4853909946978092193603515625" lon="0.47813636250793933868408203125">
        <ele>1262.5999755859375</ele>
        <time>2039-05-14T11:30:31.000Z</time>
      </trkpt>
      <trkpt lat="42.48545528389513492584228515625" lon="0.478077940642833709716796875">
        <ele>1263.5999755859375</ele>
        <time>2039-05-14T11:30:36.000Z</time>
      </trkpt>
      <trkpt lat="42.48549484647810459136962890625" lon="0.47805103473365306854248046875">
        <ele>1264.199951171875</ele>
        <time>2039-05-14T11:30:39.000Z</time>
      </trkpt>
      <trkpt lat="42.48553566634654998779296875" lon="0.4780261404812335968017578125">
        <ele>1264.800048828125</ele>
        <time>2039-05-14T11:30:42.000Z</time>
      </trkpt>
      <trkpt lat="42.485595680773258209228515625" lon="0.4779849015176296234130859375">
        <ele>1265.5999755859375</ele>
        <time>2039-05-14T11:30:47.000Z</time>
      </trkpt>
      <trkpt lat="42.48562191613018512725830078125" lon="0.47797165811061859130859375">
        <ele>1266</ele>
        <time>2039-05-14T11:30:49.000Z</time>
      </trkpt>
      <trkpt lat="42.48567790724337100982666015625" lon="0.47795129008591175079345703125">
        <ele>1267</ele>
        <time>2039-05-14T11:30:53.000Z</time>
      </trkpt>
      <trkpt lat="42.48569148592650890350341796875" lon="0.47794626094400882720947265625">
        <ele>1267.199951171875</ele>
        <time>2039-05-14T11:30:54.000Z</time>
      </trkpt>
      <trkpt lat="42.48576189391314983367919921875" lon="0.4779148288071155548095703125">
        <ele>1268</ele>
        <time>2039-05-14T11:30:59.000Z</time>
      </trkpt>
      <trkpt lat="42.48582400381565093994140625" lon="0.47792077995836734771728515625">
        <ele>1269.199951171875</ele>
        <time>2039-05-14T11:31:03.000Z</time>
      </trkpt>
      <trkpt lat="42.48594067990779876708984375" lon="0.47793519683182239532470703125">
        <ele>1270.199951171875</ele>
        <time>2039-05-14T11:31:11.000Z</time>
      </trkpt>
      <trkpt lat="42.4860303662717342376708984375" lon="0.477935783565044403076171875">
        <ele>1270.800048828125</ele>
        <time>2039-05-14T11:31:17.000Z</time>
      </trkpt>
      <trkpt lat="42.4862231500446796417236328125" lon="0.47790736891329288482666015625">
        <ele>1269.800048828125</ele>
        <time>2039-05-14T11:31:24.000Z</time>
      </trkpt>
      <trkpt lat="42.4863342940807342529296875" lon="0.4779119789600372314453125">
        <ele>1269</ele>
        <time>2039-05-14T11:31:27.000Z</time>
      </trkpt>
      <trkpt lat="42.48643554747104644775390625" lon="0.47792480327188968658447265625">
        <ele>1268.199951171875</ele>
        <time>2039-05-14T11:31:30.000Z</time>
      </trkpt>
      <trkpt lat="42.4864957295358180999755859375" lon="0.47792295925319194793701171875">
        <ele>1267.5999755859375</ele>
        <time>2039-05-14T11:31:32.000Z</time>
      </trkpt>
      <trkpt lat="42.48663268983364105224609375" lon="0.47791239805519580841064453125">
        <ele>1266.5999755859375</ele>
        <time>2039-05-14T11:31:36.000Z</time>
      </trkpt>
      <trkpt lat="42.48671114444732666015625" lon="0.47791533172130584716796875">
        <ele>1265.4000244140625</ele>
        <time>2039-05-14T11:31:38.000Z</time>
      </trkpt>
      <trkpt lat="42.48681516386568546295166015625" lon="0.47792480327188968658447265625">
        <ele>1264.199951171875</ele>
        <time>2039-05-14T11:31:41.000Z</time>
      </trkpt>
      <trkpt lat="42.4868440814316272735595703125" lon="0.4779114760458469390869140625">
        <ele>1264</ele>
        <time>2039-05-14T11:31:42.000Z</time>
      </trkpt>
      <trkpt lat="42.4869030900299549102783203125" lon="0.47782556153833866119384765625">
        <ele>1264</ele>
        <time>2039-05-14T11:31:46.000Z</time>
      </trkpt>
      <trkpt lat="42.486877776682376861572265625" lon="0.47772849909961223602294921875">
        <ele>1264.4000244140625</ele>
        <time>2039-05-14T11:31:50.000Z</time>
      </trkpt>
      <trkpt lat="42.4868608452379703521728515625" lon="0.47768793068826198577880859375">
        <ele>1264.5999755859375</ele>
        <time>2039-05-14T11:31:52.000Z</time>
      </trkpt>
      <trkpt lat="42.48678498901426792144775390625" lon="0.47756304033100605010986328125">
        <ele>1264.800048828125</ele>
        <time>2039-05-14T11:31:59.000Z</time>
      </trkpt>
      <trkpt lat="42.486679963767528533935546875" lon="0.4774360544979572296142578125">
        <ele>1265</ele>
        <time>2039-05-14T11:32:06.000Z</time>
      </trkpt>
      <trkpt lat="42.48663227073848247528076171875" lon="0.47738735564053058624267578125">
        <ele>1265.4000244140625</ele>
        <time>2039-05-14T11:32:09.000Z</time>
      </trkpt>
      <trkpt lat="42.4865651316940784454345703125" lon="0.477336980402469635009765625">
        <ele>1266</ele>
        <time>2039-05-14T11:32:13.000Z</time>
      </trkpt>
      <trkpt lat="42.486478127539157867431640625" lon="0.47729716636240482330322265625">
        <ele>1266.4000244140625</ele>
        <time>2039-05-14T11:32:18.000Z</time>
      </trkpt>
      <trkpt lat="42.4864444322884082794189453125" lon="0.4772814922034740447998046875">
        <ele>1266.800048828125</ele>
        <time>2039-05-14T11:32:20.000Z</time>
      </trkpt>
      <trkpt lat="42.4863183684647083282470703125" lon="0.4772456176578998565673828125">
        <ele>1267.199951171875</ele>
        <time>2039-05-14T11:32:28.000Z</time>
      </trkpt>
      <trkpt lat="42.4862982518970966339111328125" lon="0.47724301926791667938232421875">
        <ele>1267.4000244140625</ele>
        <time>2039-05-14T11:32:29.000Z</time>
      </trkpt>
      <trkpt lat="42.48618467710912227630615234375" lon="0.47727788798511028289794921875">
        <ele>1267.4000244140625</ele>
        <time>2039-05-14T11:32:34.000Z</time>
      </trkpt>
      <trkpt lat="42.48602491803467273712158203125" lon="0.47739456407725811004638671875">
        <ele>1266.4000244140625</ele>
        <time>2039-05-14T11:32:39.000Z</time>
      </trkpt>
      <trkpt lat="42.48599172569811344146728515625" lon="0.4774211347103118896484375">
        <ele>1266</ele>
        <time>2039-05-14T11:32:40.000Z</time>
      </trkpt>
      <trkpt lat="42.48583481647074222564697265625" lon="0.4775094799697399139404296875">
        <ele>1265.4000244140625</ele>
        <time>2039-05-14T11:32:45.000Z</time>
      </trkpt>
      <trkpt lat="42.48580011539161205291748046875" lon="0.4775165207684040069580078125">
        <ele>1265.4000244140625</ele>
        <time>2039-05-14T11:32:46.000Z</time>
      </trkpt>
      <trkpt lat="42.4857031367719173431396484375" lon="0.477481819689273834228515625">
        <ele>1264.199951171875</ele>
        <time>2039-05-14T11:32:49.000Z</time>
      </trkpt>
      <trkpt lat="42.4855676852166652679443359375" lon="0.47731141559779644012451171875">
        <ele>1263.800048828125</ele>
        <time>2039-05-14T11:32:55.000Z</time>
      </trkpt>
      <trkpt lat="42.4855633266270160675048828125" lon="0.47714897431433200836181640625">
        <ele>1263.4000244140625</ele>
        <time>2039-05-14T11:32:59.000Z</time>
      </trkpt>
      <trkpt lat="42.4855556152760982513427734375" lon="0.47706381417810916900634765625">
        <ele>1263.199951171875</ele>
        <time>2039-05-14T11:33:01.000Z</time>
      </trkpt>
      <trkpt lat="42.485519908368587493896484375" lon="0.47698502428829669952392578125">
        <ele>1263</ele>
        <time>2039-05-14T11:33:03.000Z</time>
      </trkpt>
      <trkpt lat="42.48545696027576923370361328125" lon="0.4768758080899715423583984375">
        <ele>1262.4000244140625</ele>
        <time>2039-05-14T11:33:07.000Z</time>
      </trkpt>
      <trkpt lat="42.48544447124004364013671875" lon="0.47683775424957275390625">
        <ele>1262.4000244140625</ele>
        <time>2039-05-14T11:33:08.000Z</time>
      </trkpt>
      <trkpt lat="42.48545385897159576416015625" lon="0.47675670124590396881103515625">
        <ele>1262.199951171875</ele>
        <time>2039-05-14T11:33:10.000Z</time>
      </trkpt>
      <trkpt lat="42.48549836687743663787841796875" lon="0.4766608960926532745361328125">
        <ele>1261.5999755859375</ele>
        <time>2039-05-14T11:33:13.000Z</time>
      </trkpt>
      <trkpt lat="42.485539354383945465087890625" lon="0.47657984308898448944091796875">
        <ele>1260.5999755859375</ele>
        <time>2039-05-14T11:33:16.000Z</time>
      </trkpt>
      <trkpt lat="42.485587634146213531494140625" lon="0.47641891054809093475341796875">
        <ele>1258.800048828125</ele>
        <time>2039-05-14T11:33:21.000Z</time>
      </trkpt>
      <trkpt lat="42.4855975247919559478759765625" lon="0.4763497598469257354736328125">
        <ele>1258.199951171875</ele>
        <time>2039-05-14T11:33:23.000Z</time>
      </trkpt>
      <trkpt lat="42.48560112901031970977783203125" lon="0.4763165675103664398193359375">
        <ele>1258</ele>
        <time>2039-05-14T11:33:24.000Z</time>
      </trkpt>
      <trkpt lat="42.485590986907482147216796875" lon="0.47617281787097454071044921875">
        <ele>1257.199951171875</ele>
        <time>2039-05-14T11:33:29.000Z</time>
      </trkpt>
      <trkpt lat="42.48558486811816692352294921875" lon="0.47614297829568386077880859375">
        <ele>1257</ele>
        <time>2039-05-14T11:33:30.000Z</time>
      </trkpt>
      <trkpt lat="42.48555771075189113616943359375" lon="0.47603954561054706573486328125">
        <ele>1255.800048828125</ele>
        <time>2039-05-14T11:33:33.000Z</time>
      </trkpt>
      <trkpt lat="42.4855368398129940032958984375" lon="0.47597668133676052093505859375">
        <ele>1255.199951171875</ele>
        <time>2039-05-14T11:33:35.000Z</time>
      </trkpt>
      <trkpt lat="42.4854808486998081207275390625" lon="0.475879870355129241943359375">
        <ele>1254.5999755859375</ele>
        <time>2039-05-14T11:33:39.000Z</time>
      </trkpt>
      <trkpt lat="42.485468275845050811767578125" lon="0.4758565686643123626708984375">
        <ele>1254.199951171875</ele>
        <time>2039-05-14T11:33:40.000Z</time>
      </trkpt>
      <trkpt lat="42.48545520007610321044921875" lon="0.47583435662090778350830078125">
        <ele>1253.5999755859375</ele>
        <time>2039-05-14T11:33:41.000Z</time>
      </trkpt>
      <trkpt lat="42.48536375351250171661376953125" lon="0.47569370828568935394287109375">
        <ele>1252.5999755859375</ele>
        <time>2039-05-14T11:33:48.000Z</time>
      </trkpt>
      <trkpt lat="42.4853477440774440765380859375" lon="0.4756748490035533905029296875">
        <ele>1252.4000244140625</ele>
        <time>2039-05-14T11:33:49.000Z</time>
      </trkpt>
      <trkpt lat="42.48529535718262195587158203125" lon="0.4756232164800167083740234375">
        <ele>1251.199951171875</ele>
        <time>2039-05-14T11:33:52.000Z</time>
      </trkpt>
      <trkpt lat="42.4852615781128406524658203125" lon="0.4755890183150768280029296875">
        <ele>1250.199951171875</ele>
        <time>2039-05-14T11:33:54.000Z</time>
      </trkpt>
      <trkpt lat="42.485233247280120849609375" lon="0.4755494557321071624755859375">
        <ele>1249.4000244140625</ele>
        <time>2039-05-14T11:33:56.000Z</time>
      </trkpt>
      <trkpt lat="42.48520231805741786956787109375" lon="0.475507713854312896728515625">
        <ele>1249</ele>
        <time>2039-05-14T11:33:58.000Z</time>
      </trkpt>
      <trkpt lat="42.485155127942562103271484375" lon="0.47544275410473346710205078125">
        <ele>1247.800048828125</ele>
        <time>2039-05-14T11:34:01.000Z</time>
      </trkpt>
      <trkpt lat="42.48509754426777362823486328125" lon="0.4753824882209300994873046875">
        <ele>1246.800048828125</ele>
        <time>2039-05-14T11:34:04.000Z</time>
      </trkpt>
      <trkpt lat="42.4850775115191936492919921875" lon="0.4753665626049041748046875">
        <ele>1246.4000244140625</ele>
        <time>2039-05-14T11:34:05.000Z</time>
      </trkpt>
      <trkpt lat="42.48494264669716358184814453125" lon="0.4752788878977298736572265625">
        <ele>1245.5999755859375</ele>
        <time>2039-05-14T11:34:11.000Z</time>
      </trkpt>
      <trkpt lat="42.4849175848066806793212890625" lon="0.47526807524263858795166015625">
        <ele>1245.4000244140625</ele>
        <time>2039-05-14T11:34:12.000Z</time>
      </trkpt>
      <trkpt lat="42.4848646111786365509033203125" lon="0.47525164671242237091064453125">
        <ele>1244.5999755859375</ele>
        <time>2039-05-14T11:34:14.000Z</time>
      </trkpt>
      <trkpt lat="42.48479537665843963623046875" lon="0.47522096894681453704833984375">
        <ele>1243.4000244140625</ele>
        <time>2039-05-14T11:34:17.000Z</time>
      </trkpt>
      <trkpt lat="42.4847710691392421722412109375" lon="0.47521568834781646728515625">
        <ele>1243.199951171875</ele>
        <time>2039-05-14T11:34:18.000Z</time>
      </trkpt>
      <trkpt lat="42.4846610985696315765380859375" lon="0.4752011038362979888916015625">
        <ele>1242.199951171875</ele>
        <time>2039-05-14T11:34:22.000Z</time>
      </trkpt>
      <trkpt lat="42.48456143774092197418212890625" lon="0.475185178220272064208984375">
        <ele>1241.5999755859375</ele>
        <time>2039-05-14T11:34:25.000Z</time>
      </trkpt>
      <trkpt lat="42.48449354432523250579833984375" lon="0.47517972998321056365966796875">
        <ele>1241.199951171875</ele>
        <time>2039-05-14T11:34:27.000Z</time>
      </trkpt>
      <trkpt lat="42.4843653850257396697998046875" lon="0.475177466869354248046875">
        <ele>1240.5999755859375</ele>
        <time>2039-05-14T11:34:31.000Z</time>
      </trkpt>
      <trkpt lat="42.48435147106647491455078125" lon="0.475158356130123138427734375">
        <ele>1240</ele>
        <time>2039-05-14T11:34:32.000Z</time>
      </trkpt>
      <trkpt lat="42.4843519739806652069091796875" lon="0.47506137751042842864990234375">
        <ele>1239.5999755859375</ele>
        <time>2039-05-14T11:34:36.000Z</time>
      </trkpt>
      <trkpt lat="42.4843573383986949920654296875" lon="0.4750438593327999114990234375">
        <ele>1239.800048828125</ele>
        <time>2039-05-14T11:34:37.000Z</time>
      </trkpt>
      <trkpt lat="42.48439078219234943389892578125" lon="0.4749734513461589813232421875">
        <ele>1240</ele>
        <time>2039-05-14T11:34:41.000Z</time>
      </trkpt>
      <trkpt lat="42.48444057069718837738037109375" lon="0.4748591221868991851806640625">
        <ele>1240.4000244140625</ele>
        <time>2039-05-14T11:34:47.000Z</time>
      </trkpt>
      <trkpt lat="42.48445129953324794769287109375" lon="0.47484152019023895263671875">
        <ele>1240.4000244140625</ele>
        <time>2039-05-14T11:34:48.000Z</time>
      </trkpt>
      <trkpt lat="42.4844880960881710052490234375" lon="0.4747632332146167755126953125">
        <ele>1240.800048828125</ele>
        <time>2039-05-14T11:34:52.000Z</time>
      </trkpt>
      <trkpt lat="42.48452690429985523223876953125" lon="0.47468067146837711334228515625">
        <ele>1241</ele>
        <time>2039-05-14T11:34:56.000Z</time>
      </trkpt>
      <trkpt lat="42.4845420755445957183837890625" lon="0.4746425338089466094970703125">
        <ele>1241</ele>
        <time>2039-05-14T11:34:58.000Z</time>
      </trkpt>
      <trkpt lat="42.48454920016229152679443359375" lon="0.4746197350323200225830078125">
        <ele>1241.199951171875</ele>
        <time>2039-05-14T11:34:59.000Z</time>
      </trkpt>
      <trkpt lat="42.48457677662372589111328125" lon="0.474540106952190399169921875">
        <ele>1242.199951171875</ele>
        <time>2039-05-14T11:35:03.000Z</time>
      </trkpt>
      <trkpt lat="42.48458256013691425323486328125" lon="0.47451755963265895843505859375">
        <ele>1242.4000244140625</ele>
        <time>2039-05-14T11:35:04.000Z</time>
      </trkpt>
      <trkpt lat="42.48459228314459323883056640625" lon="0.474414043128490447998046875">
        <ele>1242.4000244140625</ele>
        <time>2039-05-14T11:35:09.000Z</time>
      </trkpt>
      <trkpt lat="42.48456227593123912811279296875" lon="0.47433952800929546356201171875">
        <ele>1242.4000244140625</ele>
        <time>2039-05-14T11:35:12.000Z</time>
      </trkpt>
      <trkpt lat="42.4845068715512752532958984375" lon="0.47426006756722927093505859375">
        <ele>1241.5999755859375</ele>
        <time>2039-05-14T11:35:15.000Z</time>
      </trkpt>
      <trkpt lat="42.48448021709918975830078125" lon="0.47423307783901691436767578125">
        <ele>1241.199951171875</ele>
        <time>2039-05-14T11:35:16.000Z</time>
      </trkpt>
      <trkpt lat="42.48437368310987949371337890625" lon="0.47416635788977146148681640625">
        <ele>1239.4000244140625</ele>
        <time>2039-05-14T11:35:19.000Z</time>
      </trkpt>
      <trkpt lat="42.4843315221369266510009765625" lon="0.47414406202733516693115234375">
        <ele>1238.5999755859375</ele>
        <time>2039-05-14T11:35:20.000Z</time>
      </trkpt>
      <trkpt lat="42.484287433326244354248046875" lon="0.4741201736032962799072265625">
        <ele>1238.199951171875</ele>
        <time>2039-05-14T11:35:21.000Z</time>
      </trkpt>
      <trkpt lat="42.4841384030878543853759765625" lon="0.47401984222233295440673828125">
        <ele>1238</ele>
        <time>2039-05-14T11:35:25.000Z</time>
      </trkpt>
      <trkpt lat="42.48410277999937534332275390625" lon="0.473923198878765106201171875">
        <ele>1238.5999755859375</ele>
        <time>2039-05-14T11:35:29.000Z</time>
      </trkpt>
      <trkpt lat="42.48410462401807308197021484375" lon="0.47390417195856571197509765625">
        <ele>1238.5999755859375</ele>
        <time>2039-05-14T11:35:30.000Z</time>
      </trkpt>
      <trkpt lat="42.48413044027984142303466796875" lon="0.4738573171198368072509765625">
        <ele>1239.199951171875</ele>
        <time>2039-05-14T11:35:33.000Z</time>
      </trkpt>
      <trkpt lat="42.484139241278171539306640625" lon="0.47384432516992092132568359375">
        <ele>1239.199951171875</ele>
        <time>2039-05-14T11:35:34.000Z</time>
      </trkpt>
      <trkpt lat="42.48416648246347904205322265625" lon="0.47380861826241016387939453125">
        <ele>1239.800048828125</ele>
        <time>2039-05-14T11:35:37.000Z</time>
      </trkpt>
      <trkpt lat="42.48419850133359432220458984375" lon="0.47377006150782108306884765625">
        <ele>1240.199951171875</ele>
        <time>2039-05-14T11:35:40.000Z</time>
      </trkpt>
      <trkpt lat="42.48422532342374324798583984375" lon="0.473750531673431396484375">
        <ele>1240.4000244140625</ele>
        <time>2039-05-14T11:35:42.000Z</time>
      </trkpt>
      <trkpt lat="42.48428734950721263885498046875" lon="0.47367819584906101226806640625">
        <ele>1241</ele>
        <time>2039-05-14T11:35:47.000Z</time>
      </trkpt>
      <trkpt lat="42.48434518463909626007080078125" lon="0.47360041178762912750244140625">
        <ele>1241.5999755859375</ele>
        <time>2039-05-14T11:35:52.000Z</time>
      </trkpt>
      <trkpt lat="42.48438172973692417144775390625" lon="0.4735602624714374542236328125">
        <ele>1242.199951171875</ele>
        <time>2039-05-14T11:35:55.000Z</time>
      </trkpt>
      <trkpt lat="42.4844250641763210296630859375" lon="0.4735176824033260345458984375">
        <ele>1243.199951171875</ele>
        <time>2039-05-14T11:35:58.000Z</time>
      </trkpt>
      <trkpt lat="42.48446353711187839508056640625" lon="0.47347015701234340667724609375">
        <ele>1244.4000244140625</ele>
        <time>2039-05-14T11:36:01.000Z</time>
      </trkpt>
      <trkpt lat="42.48450578190386295318603515625" lon="0.47343880869448184967041015625">
        <ele>1245.4000244140625</ele>
        <time>2039-05-14T11:36:04.000Z</time>
      </trkpt>
      <trkpt lat="42.48451919294893741607666015625" lon="0.473430342972278594970703125">
        <ele>1245.5999755859375</ele>
        <time>2039-05-14T11:36:05.000Z</time>
      </trkpt>
      <trkpt lat="42.48455842025578022003173828125" lon="0.4733859188854694366455078125">
        <ele>1246.4000244140625</ele>
        <time>2039-05-14T11:36:09.000Z</time>
      </trkpt>
      <trkpt lat="42.4845611862838268280029296875" lon="0.47337259165942668914794921875">
        <ele>1246.5999755859375</ele>
        <time>2039-05-14T11:36:10.000Z</time>
      </trkpt>
      <trkpt lat="42.4845621921122074127197265625" lon="0.4733570851385593414306640625">
        <ele>1246.5999755859375</ele>
        <time>2039-05-14T11:36:11.000Z</time>
      </trkpt>
      <trkpt lat="42.48455003835260868072509765625" lon="0.4732611961662769317626953125">
        <ele>1246.199951171875</ele>
        <time>2039-05-14T11:36:16.000Z</time>
      </trkpt>
      <trkpt lat="42.48454324901103973388671875" lon="0.4732451029121875762939453125">
        <ele>1246.199951171875</ele>
        <time>2039-05-14T11:36:17.000Z</time>
      </trkpt>
      <trkpt lat="42.48446135781705379486083984375" lon="0.47320813871920108795166015625">
        <ele>1246</ele>
        <time>2039-05-14T11:36:23.000Z</time>
      </trkpt>
      <trkpt lat="42.484406791627407073974609375" lon="0.47319171018898487091064453125">
        <ele>1245.4000244140625</ele>
        <time>2039-05-14T11:36:26.000Z</time>
      </trkpt>
      <trkpt lat="42.48432624153792858123779296875" lon="0.473165474832057952880859375">
        <ele>1244.199951171875</ele>
        <time>2039-05-14T11:36:30.000Z</time>
      </trkpt>
      <trkpt lat="42.484305202960968017578125" lon="0.47315843403339385986328125">
        <ele>1243.800048828125</ele>
        <time>2039-05-14T11:36:31.000Z</time>
      </trkpt>
      <trkpt lat="42.48426388017833232879638671875" lon="0.47314058057963848114013671875">
        <ele>1243</ele>
        <time>2039-05-14T11:36:33.000Z</time>
      </trkpt>
      <trkpt lat="42.48418986797332763671875" lon="0.4731086455285549163818359375">
        <ele>1241.5999755859375</ele>
        <time>2039-05-14T11:36:37.000Z</time>
      </trkpt>
      <trkpt lat="42.48417234979569911956787109375" lon="0.4731036163866519927978515625">
        <ele>1241.199951171875</ele>
        <time>2039-05-14T11:36:38.000Z</time>
      </trkpt>
      <trkpt lat="42.484153993427753448486328125" lon="0.47309548594057559967041015625">
        <ele>1240.5999755859375</ele>
        <time>2039-05-14T11:36:39.000Z</time>
      </trkpt>
      <trkpt lat="42.48407746665179729461669921875" lon="0.473062209784984588623046875">
        <ele>1239.199951171875</ele>
        <time>2039-05-14T11:36:43.000Z</time>
      </trkpt>
      <trkpt lat="42.48406112194061279296875" lon="0.47303949482738971710205078125">
        <ele>1238.800048828125</ele>
        <time>2039-05-14T11:36:44.000Z</time>
      </trkpt>
      <trkpt lat="42.4840428493916988372802734375" lon="0.472980402410030364990234375">
        <ele>1238.199951171875</ele>
        <time>2039-05-14T11:36:46.000Z</time>
      </trkpt>
      <trkpt lat="42.4840549193322658538818359375" lon="0.472901277244091033935546875">
        <ele>1237.5999755859375</ele>
        <time>2039-05-14T11:36:48.000Z</time>
      </trkpt>
      <trkpt lat="42.484117113053798675537109375" lon="0.472786612808704376220703125">
        <ele>1237.4000244140625</ele>
        <time>2039-05-14T11:36:52.000Z</time>
      </trkpt>
      <trkpt lat="42.48413748107850551605224609375" lon="0.472716204822063446044921875">
        <ele>1237.5999755859375</ele>
        <time>2039-05-14T11:36:55.000Z</time>
      </trkpt>
      <trkpt lat="42.4841484613716602325439453125" lon="0.47264881432056427001953125">
        <ele>1237.4000244140625</ele>
        <time>2039-05-14T11:36:58.000Z</time>
      </trkpt>
      <trkpt lat="42.484168745577335357666015625" lon="0.4725282825529575347900390625">
        <ele>1237.4000244140625</ele>
        <time>2039-05-14T11:37:03.000Z</time>
      </trkpt>
      <trkpt lat="42.48417553491890430450439453125" lon="0.47250070609152317047119140625">
        <ele>1237.4000244140625</ele>
        <time>2039-05-14T11:37:04.000Z</time>
      </trkpt>
      <trkpt lat="42.48421543277800083160400390625" lon="0.47229266725480556488037109375">
        <ele>1237.5999755859375</ele>
        <time>2039-05-14T11:37:11.000Z</time>
      </trkpt>
      <trkpt lat="42.4842694960534572601318359375" lon="0.4721500910818576812744140625">
        <ele>1238.5999755859375</ele>
        <time>2039-05-14T11:37:17.000Z</time>
      </trkpt>
      <trkpt lat="42.48436597175896167755126953125" lon="0.47203836031258106231689453125">
        <ele>1239.4000244140625</ele>
        <time>2039-05-14T11:37:24.000Z</time>
      </trkpt>
      <trkpt lat="42.48443520627915859222412109375" lon="0.4719351790845394134521484375">
        <ele>1239.800048828125</ele>
        <time>2039-05-14T11:37:30.000Z</time>
      </trkpt>
      <trkpt lat="42.4844508804380893707275390625" lon="0.47191782854497432708740234375">
        <ele>1240</ele>
        <time>2039-05-14T11:37:31.000Z</time>
      </trkpt>
      <trkpt lat="42.4845023453235626220703125" lon="0.471835099160671234130859375">
        <ele>1240.800048828125</ele>
        <time>2039-05-14T11:37:35.000Z</time>
      </trkpt>
      <trkpt lat="42.48451768420636653900146484375" lon="0.4717858135700225830078125">
        <ele>1241.199951171875</ele>
        <time>2039-05-14T11:37:37.000Z</time>
      </trkpt>
      <trkpt lat="42.48458976857364177703857421875" lon="0.4715859889984130859375">
        <ele>1241.4000244140625</ele>
        <time>2039-05-14T11:37:45.000Z</time>
      </trkpt>
      <trkpt lat="42.48461340554058551788330078125" lon="0.471483059227466583251953125">
        <ele>1242</ele>
        <time>2039-05-14T11:37:50.000Z</time>
      </trkpt>
      <trkpt lat="42.48462145216763019561767578125" lon="0.47144022770226001739501953125">
        <ele>1242.4000244140625</ele>
        <time>2039-05-14T11:37:52.000Z</time>
      </trkpt>
      <trkpt lat="42.484634108841419219970703125" lon="0.4713494516909122467041015625">
        <ele>1242.5999755859375</ele>
        <time>2039-05-14T11:37:56.000Z</time>
      </trkpt>
      <trkpt lat="42.48466503806412220001220703125" lon="0.471287257969379425048828125">
        <ele>1243</ele>
        <time>2039-05-14T11:37:59.000Z</time>
      </trkpt>
      <trkpt lat="42.48467995785176753997802734375" lon="0.471267811954021453857421875">
        <ele>1243.199951171875</ele>
        <time>2039-05-14T11:38:00.000Z</time>
      </trkpt>
      <trkpt lat="42.4847509525716304779052734375" lon="0.4711849987506866455078125">
        <ele>1243.5999755859375</ele>
        <time>2039-05-14T11:38:05.000Z</time>
      </trkpt>
      <trkpt lat="42.4848206900060176849365234375" lon="0.47113026492297649383544921875">
        <ele>1244.4000244140625</ele>
        <time>2039-05-14T11:38:09.000Z</time>
      </trkpt>
      <trkpt lat="42.484858073294162750244140625" lon="0.471110902726650238037109375">
        <ele>1244.800048828125</ele>
        <time>2039-05-14T11:38:11.000Z</time>
      </trkpt>
      <trkpt lat="42.48491783626377582550048828125" lon="0.47108734957873821258544921875">
        <ele>1245.4000244140625</ele>
        <time>2039-05-14T11:38:14.000Z</time>
      </trkpt>
      <trkpt lat="42.48501800000667572021484375" lon="0.47102029435336589813232421875">
        <ele>1245.5999755859375</ele>
        <time>2039-05-14T11:38:20.000Z</time>
      </trkpt>
      <trkpt lat="42.485105507075786590576171875" lon="0.4709489643573760986328125">
        <ele>1246</ele>
        <time>2039-05-14T11:38:26.000Z</time>
      </trkpt>
      <trkpt lat="42.48514900915324687957763671875" lon="0.470912754535675048828125">
        <ele>1246.4000244140625</ele>
        <time>2039-05-14T11:38:29.000Z</time>
      </trkpt>
      <trkpt lat="42.48524087481200695037841796875" lon="0.47083606012165546417236328125">
        <ele>1247</ele>
        <time>2039-05-14T11:38:35.000Z</time>
      </trkpt>
      <trkpt lat="42.4853628315031528472900390625" lon="0.4707553423941135406494140625">
        <ele>1247.199951171875</ele>
        <time>2039-05-14T11:38:42.000Z</time>
      </trkpt>
      <trkpt lat="42.48541303910315036773681640625" lon="0.4707167856395244598388671875">
        <ele>1247.4000244140625</ele>
        <time>2039-05-14T11:38:45.000Z</time>
      </trkpt>
      <trkpt lat="42.48546056449413299560546875" lon="0.47065299935638904571533203125">
        <ele>1247.5999755859375</ele>
        <time>2039-05-14T11:38:49.000Z</time>
      </trkpt>
      <trkpt lat="42.4854614026844501495361328125" lon="0.4705171287059783935546875">
        <ele>1247.4000244140625</ele>
        <time>2039-05-14T11:38:54.000Z</time>
      </trkpt>
      <trkpt lat="42.4854459799826145172119140625" lon="0.4703912325203418731689453125">
        <ele>1246.5999755859375</ele>
        <time>2039-05-14T11:38:59.000Z</time>
      </trkpt>
      <trkpt lat="42.485438100993633270263671875" lon="0.470341779291629791259765625">
        <ele>1246</ele>
        <time>2039-05-14T11:39:01.000Z</time>
      </trkpt>
      <trkpt lat="42.4854305572807788848876953125" lon="0.47014270909130573272705078125">
        <ele>1245.800048828125</ele>
        <time>2039-05-14T11:39:08.000Z</time>
      </trkpt>
      <trkpt lat="42.48543265275657176971435546875" lon="0.47011337243020534515380859375">
        <ele>1245.5999755859375</ele>
        <time>2039-05-14T11:39:09.000Z</time>
      </trkpt>
      <trkpt lat="42.485437430441379547119140625" lon="0.470048747956752777099609375">
        <ele>1244.4000244140625</ele>
        <time>2039-05-14T11:39:11.000Z</time>
      </trkpt>
      <trkpt lat="42.485450841486454010009765625" lon="0.46992545016109943389892578125">
        <ele>1243.199951171875</ele>
        <time>2039-05-14T11:39:15.000Z</time>
      </trkpt>
      <trkpt lat="42.485462240874767303466796875" lon="0.46982017345726490020751953125">
        <ele>1242</ele>
        <time>2039-05-14T11:39:19.000Z</time>
      </trkpt>
      <trkpt lat="42.48547623865306377410888671875" lon="0.46976971440017223358154296875">
        <ele>1240.800048828125</ele>
        <time>2039-05-14T11:39:21.000Z</time>
      </trkpt>
      <trkpt lat="42.48548495583236217498779296875" lon="0.4697481729090213775634765625">
        <ele>1240.5999755859375</ele>
        <time>2039-05-14T11:39:22.000Z</time>
      </trkpt>
      <trkpt lat="42.48552686534821987152099609375" lon="0.46964943408966064453125">
        <ele>1239.199951171875</ele>
        <time>2039-05-14T11:39:27.000Z</time>
      </trkpt>
      <trkpt lat="42.4855465628206729888916015625" lon="0.46961062587797641754150390625">
        <ele>1238.5999755859375</ele>
        <time>2039-05-14T11:39:29.000Z</time>
      </trkpt>
      <trkpt lat="42.48556651175022125244140625" lon="0.46956427395343780517578125">
        <ele>1238.199951171875</ele>
        <time>2039-05-14T11:39:31.000Z</time>
      </trkpt>
      <trkpt lat="42.48558185063302516937255859375" lon="0.46946461312472820281982421875">
        <ele>1237</ele>
        <time>2039-05-14T11:39:35.000Z</time>
      </trkpt>
      <trkpt lat="42.48565510846674442291259765625" lon="0.46937542967498302459716796875">
        <ele>1235.5999755859375</ele>
        <time>2039-05-14T11:39:40.000Z</time>
      </trkpt>
      <trkpt lat="42.48569886200129985809326171875" lon="0.4693069495260715484619140625">
        <ele>1234.5999755859375</ele>
        <time>2039-05-14T11:39:43.000Z</time>
      </trkpt>
      <trkpt lat="42.4857433699071407318115234375" lon="0.4692341946065425872802734375">
        <ele>1233.4000244140625</ele>
        <time>2039-05-14T11:39:46.000Z</time>
      </trkpt>
      <trkpt lat="42.48575870878994464874267578125" lon="0.4692093841731548309326171875">
        <ele>1233.199951171875</ele>
        <time>2039-05-14T11:39:47.000Z</time>
      </trkpt>
      <trkpt lat="42.48579944483935832977294921875" lon="0.46913721598684787750244140625">
        <ele>1232.199951171875</ele>
        <time>2039-05-14T11:39:50.000Z</time>
      </trkpt>
      <trkpt lat="42.4858208186924457550048828125" lon="0.46908994205296039581298828125">
        <ele>1231.199951171875</ele>
        <time>2039-05-14T11:39:52.000Z</time>
      </trkpt>
      <trkpt lat="42.4858405999839305877685546875" lon="0.46900461427867412567138671875">
        <ele>1230.4000244140625</ele>
        <time>2039-05-14T11:39:55.000Z</time>
      </trkpt>
      <trkpt lat="42.4858416058123111724853515625" lon="0.4689740203320980072021484375">
        <ele>1230.199951171875</ele>
        <time>2039-05-14T11:39:56.000Z</time>
      </trkpt>
      <trkpt lat="42.485834062099456787109375" lon="0.46884921379387378692626953125">
        <ele>1228.800048828125</ele>
        <time>2039-05-14T11:40:00.000Z</time>
      </trkpt>
      <trkpt lat="42.485835067927837371826171875" lon="0.46882121823728084564208984375">
        <ele>1228.800048828125</ele>
        <time>2039-05-14T11:40:01.000Z</time>
      </trkpt>
      <trkpt lat="42.485822997987270355224609375" lon="0.46863983385264873504638671875">
        <ele>1227.5999755859375</ele>
        <time>2039-05-14T11:40:06.000Z</time>
      </trkpt>
      <trkpt lat="42.48572769574820995330810546875" lon="0.46857587993144989013671875">
        <ele>1226.5999755859375</ele>
        <time>2039-05-14T11:40:10.000Z</time>
      </trkpt>
      <trkpt lat="42.48560003936290740966796875" lon="0.4686102457344532012939453125">
        <ele>1226.199951171875</ele>
        <time>2039-05-14T11:40:16.000Z</time>
      </trkpt>
      <trkpt lat="42.485447488725185394287109375" lon="0.4686541669070720672607421875">
        <ele>1225.4000244140625</ele>
        <time>2039-05-14T11:40:22.000Z</time>
      </trkpt>
      <trkpt lat="42.4854265339672565460205078125" lon="0.4686665721237659454345703125">
        <ele>1224.5999755859375</ele>
        <time>2039-05-14T11:40:23.000Z</time>
      </trkpt>
      <trkpt lat="42.48539225198328495025634765625" lon="0.46869716607034206390380859375">
        <ele>1224.199951171875</ele>
        <time>2039-05-14T11:40:25.000Z</time>
      </trkpt>
      <trkpt lat="42.485313713550567626953125" lon="0.46876019798219203948974609375">
        <ele>1223.800048828125</ele>
        <time>2039-05-14T11:40:29.000Z</time>
      </trkpt>
      <trkpt lat="42.48517348431050777435302734375" lon="0.4688620381057262420654296875">
        <ele>1223.4000244140625</ele>
        <time>2039-05-14T11:40:35.000Z</time>
      </trkpt>
      <trkpt lat="42.48500936664640903472900390625" lon="0.468961782753467559814453125">
        <ele>1222.199951171875</ele>
        <time>2039-05-14T11:40:41.000Z</time>
      </trkpt>
      <trkpt lat="42.48497701250016689300537109375" lon="0.4689723439514636993408203125">
        <ele>1222</ele>
        <time>2039-05-14T11:40:42.000Z</time>
      </trkpt>
      <trkpt lat="42.484789006412029266357421875" lon="0.46898231841623783111572265625">
        <ele>1221.5999755859375</ele>
        <time>2039-05-14T11:40:48.000Z</time>
      </trkpt>
      <trkpt lat="42.48467375524342060089111328125" lon="0.468926914036273956298828125">
        <ele>1221.199951171875</ele>
        <time>2039-05-14T11:40:53.000Z</time>
      </trkpt>
      <trkpt lat="42.4846570752561092376708984375" lon="0.46890914440155029296875">
        <ele>1221</ele>
        <time>2039-05-14T11:40:54.000Z</time>
      </trkpt>
      <trkpt lat="42.484583817422389984130859375" lon="0.468816272914409637451171875">
        <ele>1220.4000244140625</ele>
        <time>2039-05-14T11:40:59.000Z</time>
      </trkpt>
      <trkpt lat="42.48447929508984088897705078125" lon="0.46867646276950836181640625">
        <ele>1220</ele>
        <time>2039-05-14T11:41:06.000Z</time>
      </trkpt>
      <trkpt lat="42.48445875942707061767578125" lon="0.46866171061992645263671875">
        <ele>1219.800048828125</ele>
        <time>2039-05-14T11:41:07.000Z</time>
      </trkpt>
      <trkpt lat="42.484304197132587432861328125" lon="0.468606054782867431640625">
        <ele>1219.199951171875</ele>
        <time>2039-05-14T11:41:14.000Z</time>
      </trkpt>
      <trkpt lat="42.484167404472827911376953125" lon="0.468654669821262359619140625">
        <ele>1219.199951171875</ele>
        <time>2039-05-14T11:41:21.000Z</time>
      </trkpt>
      <trkpt lat="42.4841268360614776611328125" lon="0.46867822296917438507080078125">
        <ele>1219</ele>
        <time>2039-05-14T11:41:23.000Z</time>
      </trkpt>
      <trkpt lat="42.48399431817233562469482421875" lon="0.46872415579855442047119140625">
        <ele>1218.5999755859375</ele>
        <time>2039-05-14T11:41:28.000Z</time>
      </trkpt>
      <trkpt lat="42.483876384794712066650390625" lon="0.46868643723428249359130859375">
        <ele>1219</ele>
        <time>2039-05-14T11:41:33.000Z</time>
      </trkpt>
      <trkpt lat="42.48382802121341228485107421875" lon="0.46855970285832881927490234375">
        <ele>1219.199951171875</ele>
        <time>2039-05-14T11:41:39.000Z</time>
      </trkpt>
      <trkpt lat="42.4837471358478069305419921875" lon="0.46837647445499897003173828125">
        <ele>1218.4000244140625</ele>
        <time>2039-05-14T11:41:45.000Z</time>
      </trkpt>
      <trkpt lat="42.4837370775640010833740234375" lon="0.46834923326969146728515625">
        <ele>1218</ele>
        <time>2039-05-14T11:41:46.000Z</time>
      </trkpt>
      <trkpt lat="42.48371738009154796600341796875" lon="0.4682401008903980255126953125">
        <ele>1218.199951171875</ele>
        <time>2039-05-14T11:41:50.000Z</time>
      </trkpt>
      <trkpt lat="42.483691312372684478759765625" lon="0.46805544756352901458740234375">
        <ele>1218</ele>
        <time>2039-05-14T11:41:56.000Z</time>
      </trkpt>
      <trkpt lat="42.48364663682878017425537109375" lon="0.467961989343166351318359375">
        <ele>1217.199951171875</ele>
        <time>2039-05-14T11:42:00.000Z</time>
      </trkpt>
      <trkpt lat="42.4836106784641742706298828125" lon="0.46794690191745758056640625">
        <ele>1217.199951171875</ele>
        <time>2039-05-14T11:42:02.000Z</time>
      </trkpt>
      <trkpt lat="42.4835737980902194976806640625" lon="0.4679380171000957489013671875">
        <ele>1217</ele>
        <time>2039-05-14T11:42:04.000Z</time>
      </trkpt>
      <trkpt lat="42.4834755621850490570068359375" lon="0.467947907745838165283203125">
        <ele>1216.199951171875</ele>
        <time>2039-05-14T11:42:09.000Z</time>
      </trkpt>
      <trkpt lat="42.4833779968321323394775390625" lon="0.46795570291578769683837890625">
        <ele>1215.800048828125</ele>
        <time>2039-05-14T11:42:13.000Z</time>
      </trkpt>
      <trkpt lat="42.48330348171293735504150390625" lon="0.467969365417957305908203125">
        <ele>1214.800048828125</ele>
        <time>2039-05-14T11:42:16.000Z</time>
      </trkpt>
      <trkpt lat="42.48328185640275478363037109375" lon="0.4679717123508453369140625">
        <ele>1214.5999755859375</ele>
        <time>2039-05-14T11:42:17.000Z</time>
      </trkpt>
      <trkpt lat="42.48318093828856945037841796875" lon="0.46799928881227970123291015625">
        <ele>1213.4000244140625</ele>
        <time>2039-05-14T11:42:21.000Z</time>
      </trkpt>
      <trkpt lat="42.48315093107521533966064453125" lon="0.46801135875284671783447265625">
        <ele>1213.199951171875</ele>
        <time>2039-05-14T11:42:22.000Z</time>
      </trkpt>
      <trkpt lat="42.483063675463199615478515625" lon="0.4680660925805568695068359375">
        <ele>1212.4000244140625</ele>
        <time>2039-05-14T11:42:25.000Z</time>
      </trkpt>
      <trkpt lat="42.4830165691673755645751953125" lon="0.468100123107433319091796875">
        <ele>1212.5999755859375</ele>
        <time>2039-05-14T11:42:27.000Z</time>
      </trkpt>
      <trkpt lat="42.48294465243816375732421875" lon="0.4681787453591823577880859375">
        <ele>1213</ele>
        <time>2039-05-14T11:42:32.000Z</time>
      </trkpt>
      <trkpt lat="42.4829394556581974029541015625" lon="0.4681956768035888671875">
        <ele>1213.199951171875</ele>
        <time>2039-05-14T11:42:33.000Z</time>
      </trkpt>
      <trkpt lat="42.4829166568815708160400390625" lon="0.4682682640850543975830078125">
        <ele>1213.199951171875</ele>
        <time>2039-05-14T11:42:37.000Z</time>
      </trkpt>
      <trkpt lat="42.48290483839809894561767578125" lon="0.46830992214381694793701171875">
        <ele>1213.199951171875</ele>
        <time>2039-05-14T11:42:39.000Z</time>
      </trkpt>
      <trkpt lat="42.48281682841479778289794921875" lon="0.4683785699307918548583984375">
        <ele>1213</ele>
        <time>2039-05-14T11:42:45.000Z</time>
      </trkpt>
      <trkpt lat="42.48275882564485073089599609375" lon="0.4684070684015750885009765625">
        <ele>1211.5999755859375</ele>
        <time>2039-05-14T11:42:48.000Z</time>
      </trkpt>
      <trkpt lat="42.482678778469562530517578125" lon="0.46844176948070526123046875">
        <ele>1210.800048828125</ele>
        <time>2039-05-14T11:42:52.000Z</time>
      </trkpt>
      <trkpt lat="42.4826367013156414031982421875" lon="0.46845727600157260894775390625">
        <ele>1210.4000244140625</ele>
        <time>2039-05-14T11:42:54.000Z</time>
      </trkpt>
      <trkpt lat="42.48250611126422882080078125" lon="0.468482337892055511474609375">
        <ele>1209.4000244140625</ele>
        <time>2039-05-14T11:42:59.000Z</time>
      </trkpt>
      <trkpt lat="42.48240888118743896484375" lon="0.4684865288436412811279296875">
        <ele>1208.199951171875</ele>
        <time>2039-05-14T11:43:03.000Z</time>
      </trkpt>
      <trkpt lat="42.48236906714737415313720703125" lon="0.46848929487168788909912109375">
        <ele>1208</ele>
        <time>2039-05-14T11:43:05.000Z</time>
      </trkpt>
      <trkpt lat="42.4822940491139888763427734375" lon="0.46849683858454227447509765625">
        <ele>1207.199951171875</ele>
        <time>2039-05-14T11:43:10.000Z</time>
      </trkpt>
      <trkpt lat="42.4822591803967952728271484375" lon="0.46851879917085170745849609375">
        <ele>1206.800048828125</ele>
        <time>2039-05-14T11:43:13.000Z</time>
      </trkpt>
      <trkpt lat="42.4822105653584003448486328125" lon="0.46856506727635860443115234375">
        <ele>1206</ele>
        <time>2039-05-14T11:43:17.000Z</time>
      </trkpt>
      <trkpt lat="42.48216253705322742462158203125" lon="0.4686038754880428314208984375">
        <ele>1205.199951171875</ele>
        <time>2039-05-14T11:43:20.000Z</time>
      </trkpt>
      <trkpt lat="42.48214661143720149993896484375" lon="0.46861569397151470184326171875">
        <ele>1204.800048828125</ele>
        <time>2039-05-14T11:43:21.000Z</time>
      </trkpt>
      <trkpt lat="42.48207888565957546234130859375" lon="0.46865743584930896759033203125">
        <ele>1203.5999755859375</ele>
        <time>2039-05-14T11:43:25.000Z</time>
      </trkpt>
      <trkpt lat="42.482058517634868621826171875" lon="0.46866481192409992218017578125">
        <ele>1203</ele>
        <time>2039-05-14T11:43:26.000Z</time>
      </trkpt>
      <trkpt lat="42.4820140935480594635009765625" lon="0.46867311000823974609375">
        <ele>1202.4000244140625</ele>
        <time>2039-05-14T11:43:28.000Z</time>
      </trkpt>
      <trkpt lat="42.48194460757076740264892578125" lon="0.4686883650720119476318359375">
        <ele>1202</ele>
        <time>2039-05-14T11:43:31.000Z</time>
      </trkpt>
      <trkpt lat="42.48182759620249271392822265625" lon="0.46868107281625270843505859375">
        <ele>1200.800048828125</ele>
        <time>2039-05-14T11:43:35.000Z</time>
      </trkpt>
      <trkpt lat="42.48180496506392955780029296875" lon="0.46865492127835750579833984375">
        <ele>1200.4000244140625</ele>
        <time>2039-05-14T11:43:36.000Z</time>
      </trkpt>
      <trkpt lat="42.4817777238786220550537109375" lon="0.468535982072353363037109375">
        <ele>1200.4000244140625</ele>
        <time>2039-05-14T11:43:40.000Z</time>
      </trkpt>
      <trkpt lat="42.4817344732582569122314453125" lon="0.46837597154080867767333984375">
        <ele>1200.5999755859375</ele>
        <time>2039-05-14T11:43:47.000Z</time>
      </trkpt>
      <trkpt lat="42.48163447715342044830322265625" lon="0.468280501663684844970703125">
        <ele>1201.199951171875</ele>
        <time>2039-05-14T11:43:54.000Z</time>
      </trkpt>
      <trkpt lat="42.4816224910318851470947265625" lon="0.4681338183581829071044921875">
        <ele>1201.800048828125</ele>
        <time>2039-05-14T11:44:00.000Z</time>
      </trkpt>
      <trkpt lat="42.48165610246360301971435546875" lon="0.4679698683321475982666015625">
        <ele>1202</ele>
        <time>2039-05-14T11:44:08.000Z</time>
      </trkpt>
      <trkpt lat="42.4816690944135189056396484375" lon="0.467888228595256805419921875">
        <ele>1202.199951171875</ele>
        <time>2039-05-14T11:44:12.000Z</time>
      </trkpt>
      <trkpt lat="42.48167336918413639068603515625" lon="0.46781103126704692840576171875">
        <ele>1202.4000244140625</ele>
        <time>2039-05-14T11:44:16.000Z</time>
      </trkpt>
      <trkpt lat="42.4816915579140186309814453125" lon="0.46775286085903644561767578125">
        <ele>1203.199951171875</ele>
        <time>2039-05-14T11:44:19.000Z</time>
      </trkpt>
      <trkpt lat="42.481701783835887908935546875" lon="0.46771396882832050323486328125">
        <ele>1203.5999755859375</ele>
        <time>2039-05-14T11:44:21.000Z</time>
      </trkpt>
      <trkpt lat="42.481706142425537109375" lon="0.467694103717803955078125">
        <ele>1203.800048828125</ele>
        <time>2039-05-14T11:44:22.000Z</time>
      </trkpt>
      <trkpt lat="42.48175752349197864532470703125" lon="0.4675666987895965576171875">
        <ele>1204</ele>
        <time>2039-05-14T11:44:27.000Z</time>
      </trkpt>
      <trkpt lat="42.4818350560963153839111328125" lon="0.4674126394093036651611328125">
        <ele>1204.199951171875</ele>
        <time>2039-05-14T11:44:34.000Z</time>
      </trkpt>
      <trkpt lat="42.48185810633003711700439453125" lon="0.46735757030546665191650390625">
        <ele>1204.5999755859375</ele>
        <time>2039-05-14T11:44:37.000Z</time>
      </trkpt>
      <trkpt lat="42.4818675778806209564208984375" lon="0.46731918118894100189208984375">
        <ele>1206</ele>
        <time>2039-05-14T11:44:39.000Z</time>
      </trkpt>
      <trkpt lat="42.48188115656375885009765625" lon="0.46727542765438556671142578125">
        <ele>1206.4000244140625</ele>
        <time>2039-05-14T11:44:41.000Z</time>
      </trkpt>
      <trkpt lat="42.48192231170833110809326171875" lon="0.4670570790767669677734375">
        <ele>1206.4000244140625</ele>
        <time>2039-05-14T11:44:49.000Z</time>
      </trkpt>
      <trkpt lat="42.481971345841884613037109375" lon="0.4668889380991458892822265625">
        <ele>1205.4000244140625</ele>
        <time>2039-05-14T11:44:55.000Z</time>
      </trkpt>
      <trkpt lat="42.48191560618579387664794921875" lon="0.4667695797979831695556640625">
        <ele>1205.199951171875</ele>
        <time>2039-05-14T11:45:00.000Z</time>
      </trkpt>
      <trkpt lat="42.481870763003826141357421875" lon="0.4667400754988193511962890625">
        <ele>1205</ele>
        <time>2039-05-14T11:45:02.000Z</time>
      </trkpt>
      <trkpt lat="42.4817881174385547637939453125" lon="0.46672406606376171112060546875">
        <ele>1203.5999755859375</ele>
        <time>2039-05-14T11:45:05.000Z</time>
      </trkpt>
      <trkpt lat="42.4817596189677715301513671875" lon="0.4667266644537448883056640625">
        <ele>1203</ele>
        <time>2039-05-14T11:45:06.000Z</time>
      </trkpt>
      <trkpt lat="42.48169130645692348480224609375" lon="0.46673412434756755828857421875">
        <ele>1202.4000244140625</ele>
        <time>2039-05-14T11:45:08.000Z</time>
      </trkpt>
      <trkpt lat="42.48156356625258922576904296875" lon="0.4667078889906406402587890625">
        <ele>1202</ele>
        <time>2039-05-14T11:45:11.000Z</time>
      </trkpt>
      <trkpt lat="42.481469772756099700927734375" lon="0.46666287817060947418212890625">
        <ele>1201.199951171875</ele>
        <time>2039-05-14T11:45:14.000Z</time>
      </trkpt>
      <trkpt lat="42.481457032263278961181640625" lon="0.4666425101459026336669921875">
        <ele>1200.800048828125</ele>
        <time>2039-05-14T11:45:15.000Z</time>
      </trkpt>
      <trkpt lat="42.4814392626285552978515625" lon="0.46657763421535491943359375">
        <ele>1200.199951171875</ele>
        <time>2039-05-14T11:45:18.000Z</time>
      </trkpt>
      <trkpt lat="42.48145041055977344512939453125" lon="0.466545112431049346923828125">
        <ele>1200</ele>
        <time>2039-05-14T11:45:20.000Z</time>
      </trkpt>
      <trkpt lat="42.48149332590401172637939453125" lon="0.46645148657262325286865234375">
        <ele>1200</ele>
        <time>2039-05-14T11:45:25.000Z</time>
      </trkpt>
      <trkpt lat="42.4815007857978343963623046875" lon="0.46643069945275783538818359375">
        <ele>1199.800048828125</ele>
        <time>2039-05-14T11:45:26.000Z</time>
      </trkpt>
      <trkpt lat="42.48159826733171939849853515625" lon="0.46628233976662158966064453125">
        <ele>1200.800048828125</ele>
        <time>2039-05-14T11:45:34.000Z</time>
      </trkpt>
      <trkpt lat="42.4816305376589298248291015625" lon="0.4661209881305694580078125">
        <ele>1200.5999755859375</ele>
        <time>2039-05-14T11:45:41.000Z</time>
      </trkpt>
      <trkpt lat="42.4816426075994968414306640625" lon="0.46593658626079559326171875">
        <ele>1199.4000244140625</ele>
        <time>2039-05-14T11:45:47.000Z</time>
      </trkpt>
      <trkpt lat="42.4816457927227020263671875" lon="0.46587380580604076385498046875">
        <ele>1199</ele>
        <time>2039-05-14T11:45:49.000Z</time>
      </trkpt>
      <trkpt lat="42.4816436134278774261474609375" lon="0.4657312296330928802490234375">
        <ele>1198.199951171875</ele>
        <time>2039-05-14T11:45:54.000Z</time>
      </trkpt>
      <trkpt lat="42.48164285905659198760986328125" lon="0.465704239904880523681640625">
        <ele>1197.800048828125</ele>
        <time>2039-05-14T11:45:55.000Z</time>
      </trkpt>
      <trkpt lat="42.48163732700049877166748046875" lon="0.46556903980672359466552734375">
        <ele>1196.5999755859375</ele>
        <time>2039-05-14T11:46:00.000Z</time>
      </trkpt>
      <trkpt lat="42.481637410819530487060546875" lon="0.46554489992558956146240234375">
        <ele>1196.199951171875</ele>
        <time>2039-05-14T11:46:01.000Z</time>
      </trkpt>
      <trkpt lat="42.48163648881018161773681640625" lon="0.46548756770789623260498046875">
        <ele>1195.199951171875</ele>
        <time>2039-05-14T11:46:03.000Z</time>
      </trkpt>
      <trkpt lat="42.48163573443889617919921875" lon="0.46535111032426357269287109375">
        <ele>1194.4000244140625</ele>
        <time>2039-05-14T11:46:08.000Z</time>
      </trkpt>
      <trkpt lat="42.481632046401500701904296875" lon="0.4653205163776874542236328125">
        <ele>1194.199951171875</ele>
        <time>2039-05-14T11:46:09.000Z</time>
      </trkpt>
      <trkpt lat="42.4816167913377285003662109375" lon="0.46525798738002777099609375">
        <ele>1193.199951171875</ele>
        <time>2039-05-14T11:46:11.000Z</time>
      </trkpt>
      <trkpt lat="42.48158770613372325897216796875" lon="0.4651750065386295318603515625">
        <ele>1192.199951171875</ele>
        <time>2039-05-14T11:46:14.000Z</time>
      </trkpt>
      <trkpt lat="42.4815601296722888946533203125" lon="0.46512446366250514984130859375">
        <ele>1191.4000244140625</ele>
        <time>2039-05-14T11:46:16.000Z</time>
      </trkpt>
      <trkpt lat="42.48152702115476131439208984375" lon="0.4650801233947277069091796875">
        <ele>1190.800048828125</ele>
        <time>2039-05-14T11:46:18.000Z</time>
      </trkpt>
      <trkpt lat="42.48145560733973979949951171875" lon="0.46499907039105892181396484375">
        <ele>1189.800048828125</ele>
        <time>2039-05-14T11:46:22.000Z</time>
      </trkpt>
      <trkpt lat="42.481434233486652374267578125" lon="0.46497878618538379669189453125">
        <ele>1189.5999755859375</ele>
        <time>2039-05-14T11:46:23.000Z</time>
      </trkpt>
      <trkpt lat="42.48132032342255115509033203125" lon="0.46488222666084766387939453125">
        <ele>1188.5999755859375</ele>
        <time>2039-05-14T11:46:28.000Z</time>
      </trkpt>
      <trkpt lat="42.4812795035541057586669921875" lon="0.4648404009640216827392578125">
        <ele>1187.5999755859375</ele>
        <time>2039-05-14T11:46:30.000Z</time>
      </trkpt>
      <trkpt lat="42.48126466758549213409423828125" lon="0.46481450088322162628173828125">
        <ele>1187.199951171875</ele>
        <time>2039-05-14T11:46:31.000Z</time>
      </trkpt>
      <trkpt lat="42.4812603928148746490478515625" lon="0.46472129411995410919189453125">
        <ele>1186.199951171875</ele>
        <time>2039-05-14T11:46:34.000Z</time>
      </trkpt>
      <trkpt lat="42.48129048384726047515869140625" lon="0.46457469463348388671875">
        <ele>1185.199951171875</ele>
        <time>2039-05-14T11:46:39.000Z</time>
      </trkpt>
      <trkpt lat="42.4812184832990169525146484375" lon="0.46445290558040142059326171875">
        <ele>1184.4000244140625</ele>
        <time>2039-05-14T11:46:43.000Z</time>
      </trkpt>
      <trkpt lat="42.4811953492462635040283203125" lon="0.464425496757030487060546875">
        <ele>1184</ele>
        <time>2039-05-14T11:46:44.000Z</time>
      </trkpt>
      <trkpt lat="42.4811447225511074066162109375" lon="0.46429775655269622802734375">
        <ele>1183.4000244140625</ele>
        <time>2039-05-14T11:46:48.000Z</time>
      </trkpt>
      <trkpt lat="42.4811584688723087310791015625" lon="0.46421217732131481170654296875">
        <ele>1183.5999755859375</ele>
        <time>2039-05-14T11:46:51.000Z</time>
      </trkpt>
      <trkpt lat="42.48117866925895214080810546875" lon="0.4641675017774105072021484375">
        <ele>1183.4000244140625</ele>
        <time>2039-05-14T11:46:53.000Z</time>
      </trkpt>
      <trkpt lat="42.48123080469667911529541015625" lon="0.4640865325927734375">
        <ele>1183.800048828125</ele>
        <time>2039-05-14T11:46:57.000Z</time>
      </trkpt>
      <trkpt lat="42.48128034174442291259765625" lon="0.4640320502221584320068359375">
        <ele>1184</ele>
        <time>2039-05-14T11:47:00.000Z</time>
      </trkpt>
      <trkpt lat="42.481412105262279510498046875" lon="0.46390615403652191162109375">
        <ele>1184.4000244140625</ele>
        <time>2039-05-14T11:47:08.000Z</time>
      </trkpt>
      <trkpt lat="42.4815358221530914306640625" lon="0.46381671912968158721923828125">
        <ele>1185</ele>
        <time>2039-05-14T11:47:15.000Z</time>
      </trkpt>
      <trkpt lat="42.48158586211502552032470703125" lon="0.46378419734537601470947265625">
        <ele>1185.5999755859375</ele>
        <time>2039-05-14T11:47:18.000Z</time>
      </trkpt>
      <trkpt lat="42.48167621903121471405029296875" lon="0.46371177770197391510009765625">
        <ele>1186.199951171875</ele>
        <time>2039-05-14T11:47:24.000Z</time>
      </trkpt>
      <trkpt lat="42.48170689679682254791259765625" lon="0.4636843688786029815673828125">
        <ele>1186.199951171875</ele>
        <time>2039-05-14T11:47:26.000Z</time>
      </trkpt>
      <trkpt lat="42.48186145909130573272705078125" lon="0.4635643400251865386962890625">
        <ele>1187</ele>
        <time>2039-05-14T11:47:35.000Z</time>
      </trkpt>
      <trkpt lat="42.48198266141116619110107421875" lon="0.46340634115040302276611328125">
        <ele>1186.199951171875</ele>
        <time>2039-05-14T11:47:42.000Z</time>
      </trkpt>
      <trkpt lat="42.48203664086759090423583984375" lon="0.46332185156643390655517578125">
        <ele>1185.4000244140625</ele>
        <time>2039-05-14T11:47:47.000Z</time>
      </trkpt>
      <trkpt lat="42.48204770497977733612060546875" lon="0.46330056153237819671630859375">
        <ele>1185.199951171875</ele>
        <time>2039-05-14T11:47:48.000Z</time>
      </trkpt>
      <trkpt lat="42.48213152401149272918701171875" lon="0.46318388544023036956787109375">
        <ele>1184.199951171875</ele>
        <time>2039-05-14T11:47:54.000Z</time>
      </trkpt>
      <trkpt lat="42.48217343352735042572021484375" lon="0.463112555444240570068359375">
        <ele>1183.800048828125</ele>
        <time>2039-05-14T11:47:57.000Z</time>
      </trkpt>
      <trkpt lat="42.48218835331499576568603515625" lon="0.4630862362682819366455078125">
        <ele>1183.199951171875</ele>
        <time>2039-05-14T11:47:58.000Z</time>
      </trkpt>
      <trkpt lat="42.48227133415639400482177734375" lon="0.46292982995510101318359375">
        <ele>1182.199951171875</ele>
        <time>2039-05-14T11:48:03.000Z</time>
      </trkpt>
      <trkpt lat="42.4822900258004665374755859375" lon="0.46289722435176372528076171875">
        <ele>1181.800048828125</ele>
        <time>2039-05-14T11:48:04.000Z</time>
      </trkpt>
      <trkpt lat="42.4823289178311824798583984375" lon="0.46283251605927944183349609375">
        <ele>1181</ele>
        <time>2039-05-14T11:48:06.000Z</time>
      </trkpt>
      <trkpt lat="42.48236319981515407562255859375" lon="0.46276931650936603546142578125">
        <ele>1179.5999755859375</ele>
        <time>2039-05-14T11:48:08.000Z</time>
      </trkpt>
      <trkpt lat="42.4824155867099761962890625" lon="0.462643168866634368896484375">
        <ele>1178.4000244140625</ele>
        <time>2039-05-14T11:48:12.000Z</time>
      </trkpt>
      <trkpt lat="42.482444085180759429931640625" lon="0.46250511892139911651611328125">
        <ele>1177.199951171875</ele>
        <time>2039-05-14T11:48:16.000Z</time>
      </trkpt>
      <trkpt lat="42.482454478740692138671875" lon="0.4624351300299167633056640625">
        <ele>1176.4000244140625</ele>
        <time>2039-05-14T11:48:18.000Z</time>
      </trkpt>
      <trkpt lat="42.48246428556740283966064453125" lon="0.46234644949436187744140625">
        <ele>1175.5999755859375</ele>
        <time>2039-05-14T11:48:21.000Z</time>
      </trkpt>
      <trkpt lat="42.4824744276702404022216796875" lon="0.462292470037937164306640625">
        <ele>1174.199951171875</ele>
        <time>2039-05-14T11:48:23.000Z</time>
      </trkpt>
      <trkpt lat="42.48247166164219379425048828125" lon="0.462264306843280792236328125">
        <ele>1174</ele>
        <time>2039-05-14T11:48:24.000Z</time>
      </trkpt>
      <trkpt lat="42.4824244715273380279541015625" lon="0.46212608925998210906982421875">
        <ele>1173</ele>
        <time>2039-05-14T11:48:29.000Z</time>
      </trkpt>
      <trkpt lat="42.48241030611097812652587890625" lon="0.46207680366933345794677734375">
        <ele>1172.4000244140625</ele>
        <time>2039-05-14T11:48:31.000Z</time>
      </trkpt>
      <trkpt lat="42.482381053268909454345703125" lon="0.46199164353311061859130859375">
        <ele>1172.199951171875</ele>
        <time>2039-05-14T11:48:35.000Z</time>
      </trkpt>
      <trkpt lat="42.482352554798126220703125" lon="0.461914278566837310791015625">
        <ele>1171.4000244140625</ele>
        <time>2039-05-14T11:48:38.000Z</time>
      </trkpt>
      <trkpt lat="42.48234107159078121185302734375" lon="0.461895167827606201171875">
        <ele>1171</ele>
        <time>2039-05-14T11:48:39.000Z</time>
      </trkpt>
      <trkpt lat="42.482314668595790863037109375" lon="0.46184378676116466522216796875">
        <ele>1170</ele>
        <time>2039-05-14T11:48:42.000Z</time>
      </trkpt>
      <trkpt lat="42.482291869819164276123046875" lon="0.46180137433111667633056640625">
        <ele>1169.4000244140625</ele>
        <time>2039-05-14T11:48:44.000Z</time>
      </trkpt>
      <trkpt lat="42.48219338245689868927001953125" lon="0.461704730987548828125">
        <ele>1168.800048828125</ele>
        <time>2039-05-14T11:48:49.000Z</time>
      </trkpt>
      <trkpt lat="42.4820561707019805908203125" lon="0.4617105983197689056396484375">
        <ele>1167.4000244140625</ele>
        <time>2039-05-14T11:48:54.000Z</time>
      </trkpt>
      <trkpt lat="42.48202473856508731842041015625" lon="0.46172409318387508392333984375">
        <ele>1167.199951171875</ele>
        <time>2039-05-14T11:48:55.000Z</time>
      </trkpt>
      <trkpt lat="42.481853663921356201171875" lon="0.46188376843929290771484375">
        <ele>1166.800048828125</ele>
        <time>2039-05-14T11:49:01.000Z</time>
      </trkpt>
      <trkpt lat="42.48181200586259365081787109375" lon="0.46192207373678684234619140625">
        <ele>1166.4000244140625</ele>
        <time>2039-05-14T11:49:03.000Z</time>
      </trkpt>
      <trkpt lat="42.48174193315207958221435546875" lon="0.46197320334613323211669921875">
        <ele>1165.4000244140625</ele>
        <time>2039-05-14T11:49:07.000Z</time>
      </trkpt>
      <trkpt lat="42.48172516934573650360107421875" lon="0.4619851894676685333251953125">
        <ele>1165.4000244140625</ele>
        <time>2039-05-14T11:49:08.000Z</time>
      </trkpt>
      <trkpt lat="42.48161519877612590789794921875" lon="0.462050400674343109130859375">
        <ele>1164</ele>
        <time>2039-05-14T11:49:14.000Z</time>
      </trkpt>
      <trkpt lat="42.48148947022855281829833984375" lon="0.46216447837650775909423828125">
        <ele>1163</ele>
        <time>2039-05-14T11:49:19.000Z</time>
      </trkpt>
      <trkpt lat="42.48146801255643367767333984375" lon="0.46218543313443660736083984375">
        <ele>1162.4000244140625</ele>
        <time>2039-05-14T11:49:20.000Z</time>
      </trkpt>
      <trkpt lat="42.4814018793404102325439453125" lon="0.46223019249737262725830078125">
        <ele>1162</ele>
        <time>2039-05-14T11:49:23.000Z</time>
      </trkpt>
      <trkpt lat="42.48132669366896152496337890625" lon="0.46227805316448211669921875">
        <ele>1160.800048828125</ele>
        <time>2039-05-14T11:49:26.000Z</time>
      </trkpt>
      <trkpt lat="42.4812984466552734375" lon="0.46229280531406402587890625">
        <ele>1160.5999755859375</ele>
        <time>2039-05-14T11:49:27.000Z</time>
      </trkpt>
      <trkpt lat="42.48121152631938457489013671875" lon="0.462328009307384490966796875">
        <ele>1159.5999755859375</ele>
        <time>2039-05-14T11:49:30.000Z</time>
      </trkpt>
      <trkpt lat="42.48113541863858699798583984375" lon="0.46231920830905437469482421875">
        <ele>1158.5999755859375</ele>
        <time>2039-05-14T11:49:33.000Z</time>
      </trkpt>
      <trkpt lat="42.48101706616580486297607421875" lon="0.46227268874645233154296875">
        <ele>1157.4000244140625</ele>
        <time>2039-05-14T11:49:39.000Z</time>
      </trkpt>
      <trkpt lat="42.48092637397348880767822265625" lon="0.46222382225096225738525390625">
        <ele>1156.4000244140625</ele>
        <time>2039-05-14T11:49:44.000Z</time>
      </trkpt>
      <trkpt lat="42.4809100292623043060302734375" lon="0.46221678145229816436767578125">
        <ele>1156</ele>
        <time>2039-05-14T11:49:45.000Z</time>
      </trkpt>
      <trkpt lat="42.48087641783058643341064453125" lon="0.4621947370469570159912109375">
        <ele>1155.4000244140625</ele>
        <time>2039-05-14T11:49:47.000Z</time>
      </trkpt>
      <trkpt lat="42.48082679696381092071533203125" lon="0.4621944017708301544189453125">
        <ele>1154.4000244140625</ele>
        <time>2039-05-14T11:49:50.000Z</time>
      </trkpt>
      <trkpt lat="42.48074348084628582000732421875" lon="0.46218845061957836151123046875">
        <ele>1153</ele>
        <time>2039-05-14T11:49:54.000Z</time>
      </trkpt>
      <trkpt lat="42.48070240952074527740478515625" lon="0.4621729440987110137939453125">
        <ele>1152.4000244140625</ele>
        <time>2039-05-14T11:49:56.000Z</time>
      </trkpt>
      <trkpt lat="42.48068346641957759857177734375" lon="0.4621578566730022430419921875">
        <ele>1152</ele>
        <time>2039-05-14T11:49:57.000Z</time>
      </trkpt>
      <trkpt lat="42.480636946856975555419921875" lon="0.462057776749134063720703125">
        <ele>1151</ele>
        <time>2039-05-14T11:50:01.000Z</time>
      </trkpt>
      <trkpt lat="42.4806324206292629241943359375" lon="0.46203196048736572265625">
        <ele>1150.800048828125</ele>
        <time>2039-05-14T11:50:02.000Z</time>
      </trkpt>
      <trkpt lat="42.48063082806766033172607421875" lon="0.4618551023304462432861328125">
        <ele>1149.5999755859375</ele>
        <time>2039-05-14T11:50:07.000Z</time>
      </trkpt>
      <trkpt lat="42.48064734041690826416015625" lon="0.46169936656951904296875">
        <ele>1148.5999755859375</ele>
        <time>2039-05-14T11:50:11.000Z</time>
      </trkpt>
      <trkpt lat="42.48066477477550506591796875" lon="0.46161311678588390350341796875">
        <ele>1147.800048828125</ele>
        <time>2039-05-14T11:50:14.000Z</time>
      </trkpt>
      <trkpt lat="42.48067080974578857421875" lon="0.46158160082995891571044921875">
        <ele>1146.5999755859375</ele>
        <time>2039-05-14T11:50:15.000Z</time>
      </trkpt>
      <trkpt lat="42.48068581335246562957763671875" lon="0.4615194909274578094482421875">
        <ele>1145.5999755859375</ele>
        <time>2039-05-14T11:50:17.000Z</time>
      </trkpt>
      <trkpt lat="42.48068547807633876800537109375" lon="0.4613582231104373931884765625">
        <ele>1144.4000244140625</ele>
        <time>2039-05-14T11:50:21.000Z</time>
      </trkpt>
      <trkpt lat="42.480662427842617034912109375" lon="0.461243055760860443115234375">
        <ele>1143.199951171875</ele>
        <time>2039-05-14T11:50:24.000Z</time>
      </trkpt>
      <trkpt lat="42.48061272315680980682373046875" lon="0.4611744917929172515869140625">
        <ele>1142.5999755859375</ele>
        <time>2039-05-14T11:50:27.000Z</time>
      </trkpt>
      <trkpt lat="42.4805693887174129486083984375" lon="0.46115311793982982635498046875">
        <ele>1142.199951171875</ele>
        <time>2039-05-14T11:50:29.000Z</time>
      </trkpt>
      <trkpt lat="42.480501830577850341796875" lon="0.461138449609279632568359375">
        <ele>1140.5999755859375</ele>
        <time>2039-05-14T11:50:32.000Z</time>
      </trkpt>
      <trkpt lat="42.48046168126165866851806640625" lon="0.46113886870443820953369140625">
        <ele>1139.800048828125</ele>
        <time>2039-05-14T11:50:34.000Z</time>
      </trkpt>
      <trkpt lat="42.48042203485965728759765625" lon="0.46113409101963043212890625">
        <ele>1139.4000244140625</ele>
        <time>2039-05-14T11:50:36.000Z</time>
      </trkpt>
      <trkpt lat="42.48034425079822540283203125" lon="0.4611557163298130035400390625">
        <ele>1138.199951171875</ele>
        <time>2039-05-14T11:50:40.000Z</time>
      </trkpt>
      <trkpt lat="42.4802522175014019012451171875" lon="0.461184047162532806396484375">
        <ele>1137.199951171875</ele>
        <time>2039-05-14T11:50:44.000Z</time>
      </trkpt>
      <trkpt lat="42.4802039377391338348388671875" lon="0.46119184233248233795166015625">
        <ele>1136.4000244140625</ele>
        <time>2039-05-14T11:50:46.000Z</time>
      </trkpt>
      <trkpt lat="42.48017518781125545501708984375" lon="0.46119485981762409210205078125">
        <ele>1135.800048828125</ele>
        <time>2039-05-14T11:50:47.000Z</time>
      </trkpt>
      <trkpt lat="42.4800822325050830841064453125" lon="0.461215563118457794189453125">
        <ele>1134.5999755859375</ele>
        <time>2039-05-14T11:50:50.000Z</time>
      </trkpt>
      <trkpt lat="42.4800311028957366943359375" lon="0.46123827807605266571044921875">
        <ele>1133.800048828125</ele>
        <time>2039-05-14T11:50:52.000Z</time>
      </trkpt>
      <trkpt lat="42.480007968842983245849609375" lon="0.4612509347498416900634765625">
        <ele>1133.4000244140625</ele>
        <time>2039-05-14T11:50:53.000Z</time>
      </trkpt>
      <trkpt lat="42.47992792166769504547119140625" lon="0.4612847976386547088623046875">
        <ele>1132</ele>
        <time>2039-05-14T11:50:56.000Z</time>
      </trkpt>
      <trkpt lat="42.4798337928950786590576171875" lon="0.4612903296947479248046875">
        <ele>1131</ele>
        <time>2039-05-14T11:50:59.000Z</time>
      </trkpt>
      <trkpt lat="42.4798052944242954254150390625" lon="0.46128588728606700897216796875">
        <ele>1130.5999755859375</ele>
        <time>2039-05-14T11:51:00.000Z</time>
      </trkpt>
      <trkpt lat="42.47976229526102542877197265625" lon="0.46127985231578350067138671875">
        <ele>1129.5999755859375</ele>
        <time>2039-05-14T11:51:02.000Z</time>
      </trkpt>
      <trkpt lat="42.47972357086837291717529296875" lon="0.4612764157354831695556640625">
        <ele>1129</ele>
        <time>2039-05-14T11:51:04.000Z</time>
      </trkpt>
      <trkpt lat="42.4796671606600284576416015625" lon="0.4612680338323116302490234375">
        <ele>1128.4000244140625</ele>
        <time>2039-05-14T11:51:07.000Z</time>
      </trkpt>
      <trkpt lat="42.47956850565969944000244140625" lon="0.461260490119457244873046875">
        <ele>1127</ele>
        <time>2039-05-14T11:51:11.000Z</time>
      </trkpt>
      <trkpt lat="42.479489631950855255126953125" lon="0.46125655062496662139892578125">
        <ele>1126</ele>
        <time>2039-05-14T11:51:14.000Z</time>
      </trkpt>
      <trkpt lat="42.47946918010711669921875" lon="0.46124984510242938995361328125">
        <ele>1125.4000244140625</ele>
        <time>2039-05-14T11:51:16.000Z</time>
      </trkpt>
      <trkpt lat="42.47946373187005519866943359375" lon="0.4612499289214611053466796875">
        <ele>1125</ele>
        <time>2039-05-14T11:51:20.000Z</time>
      </trkpt>
      <trkpt lat="42.47946239076554775238037109375" lon="0.46124934218823909759521484375">
        <ele>1125.4000244140625</ele>
        <time>2039-05-14T11:51:30.000Z</time>
      </trkpt>
      <trkpt lat="42.47946046292781829833984375" lon="0.46124833635985851287841796875">
        <ele>1125.199951171875</ele>
        <time>2039-05-14T11:51:47.000Z</time>
      </trkpt>
      <trkpt lat="42.4794576130807399749755859375" lon="0.46124942600727081298828125">
        <ele>1125.199951171875</ele>
        <time>2039-05-14T11:51:57.000Z</time>
      </trkpt>
      <trkpt lat="42.47945434413850307464599609375" lon="0.46124481596052646636962890625">
        <ele>1125.5999755859375</ele>
        <time>2039-05-14T11:52:18.000Z</time>
      </trkpt>
      <trkpt lat="42.47945434413850307464599609375" lon="0.4612447321414947509765625">
        <ele>1125.199951171875</ele>
        <time>2039-05-14T11:52:31.000Z</time>
      </trkpt>
      <trkpt lat="42.4794544279575347900390625" lon="0.46124397777020931243896484375">
        <ele>1125.5999755859375</ele>
        <time>2039-05-14T11:52:45.000Z</time>
      </trkpt>
      <trkpt lat="42.4794328026473522186279296875" lon="0.46123257838189601898193359375">
        <ele>1125.199951171875</ele>
        <time>2039-05-14T11:53:10.000Z</time>
      </trkpt>
      <trkpt lat="42.47936449013650417327880859375" lon="0.461138784885406494140625">
        <ele>1125</ele>
        <time>2039-05-14T11:53:16.000Z</time>
      </trkpt>
      <trkpt lat="42.479370273649692535400390625" lon="0.46102353371679782867431640625">
        <ele>1125.5999755859375</ele>
        <time>2039-05-14T11:53:21.000Z</time>
      </trkpt>
      <trkpt lat="42.4793915636837482452392578125" lon="0.46090736053884029388427734375">
        <ele>1126.199951171875</ele>
        <time>2039-05-14T11:53:26.000Z</time>
      </trkpt>
      <trkpt lat="42.47938913293182849884033203125" lon="0.46088456176221370697021484375">
        <ele>1126.4000244140625</ele>
        <time>2039-05-14T11:53:27.000Z</time>
      </trkpt>
      <trkpt lat="42.4793825112283229827880859375" lon="0.46086595393717288970947265625">
        <ele>1126.4000244140625</ele>
        <time>2039-05-14T11:53:28.000Z</time>
      </trkpt>
      <trkpt lat="42.47931025922298431396484375" lon="0.46079202555119991302490234375">
        <ele>1127.4000244140625</ele>
        <time>2039-05-14T11:53:33.000Z</time>
      </trkpt>
      <trkpt lat="42.4792936630547046661376953125" lon="0.46077626757323741912841796875">
        <ele>1127.800048828125</ele>
        <time>2039-05-14T11:53:34.000Z</time>
      </trkpt>
      <trkpt lat="42.4792473949491977691650390625" lon="0.46073553152382373809814453125">
        <ele>1128.800048828125</ele>
        <time>2039-05-14T11:53:37.000Z</time>
      </trkpt>
      <trkpt lat="42.47920431196689605712890625" lon="0.46065623871982097625732421875">
        <ele>1129.4000244140625</ele>
        <time>2039-05-14T11:53:41.000Z</time>
      </trkpt>
      <trkpt lat="42.47920188121497631072998046875" lon="0.460563115775585174560546875">
        <ele>1129.800048828125</ele>
        <time>2039-05-14T11:53:45.000Z</time>
      </trkpt>
      <trkpt lat="42.47920959256589412689208984375" lon="0.46050108969211578369140625">
        <ele>1130.199951171875</ele>
        <time>2039-05-14T11:53:48.000Z</time>
      </trkpt>
      <trkpt lat="42.47920707799494266510009765625" lon="0.460495054721832275390625">
        <ele>1130.5999755859375</ele>
        <time>2039-05-14T11:53:56.000Z</time>
      </trkpt>
      <trkpt lat="42.47920640744268894195556640625" lon="0.46049463562667369842529296875">
        <ele>1130.5999755859375</ele>
        <time>2039-05-14T11:54:05.000Z</time>
      </trkpt>
      <trkpt lat="42.47920640744268894195556640625" lon="0.4604523070156574249267578125">
        <ele>1130.5999755859375</ele>
        <time>2039-05-14T11:54:17.000Z</time>
      </trkpt>
      <trkpt lat="42.4792034737765789031982421875" lon="0.4603601060807704925537109375">
        <ele>1131.199951171875</ele>
        <time>2039-05-14T11:54:22.000Z</time>
      </trkpt>
      <trkpt lat="42.47919383458793163299560546875" lon="0.46032481826841831207275390625">
        <ele>1131.4000244140625</ele>
        <time>2039-05-14T11:54:24.000Z</time>
      </trkpt>
      <trkpt lat="42.47913365252315998077392578125" lon="0.46024351380765438079833984375">
        <ele>1131.5999755859375</ele>
        <time>2039-05-14T11:54:30.000Z</time>
      </trkpt>
      <trkpt lat="42.479074560105800628662109375" lon="0.46020470559597015380859375">
        <ele>1132.199951171875</ele>
        <time>2039-05-14T11:54:34.000Z</time>
      </trkpt>
      <trkpt lat="42.47904011048376560211181640625" lon="0.4601643048226833343505859375">
        <ele>1132.4000244140625</ele>
        <time>2039-05-14T11:54:37.000Z</time>
      </trkpt>
      <trkpt lat="42.479041703045368194580078125" lon="0.460036732256412506103515625">
        <ele>1132.800048828125</ele>
        <time>2039-05-14T11:54:43.000Z</time>
      </trkpt>
      <trkpt lat="42.47905301861464977264404296875" lon="0.4599493928253650665283203125">
        <ele>1133.199951171875</ele>
        <time>2039-05-14T11:54:47.000Z</time>
      </trkpt>
      <trkpt lat="42.47906056232750415802001953125" lon="0.4599061422049999237060546875">
        <ele>1133.5999755859375</ele>
        <time>2039-05-14T11:54:49.000Z</time>
      </trkpt>
      <trkpt lat="42.47909375466406345367431640625" lon="0.459787957370281219482421875">
        <ele>1134.199951171875</ele>
        <time>2039-05-14T11:54:55.000Z</time>
      </trkpt>
      <trkpt lat="42.47911714017391204833984375" lon="0.4595913179218769073486328125">
        <ele>1134.800048828125</ele>
        <time>2039-05-14T11:55:03.000Z</time>
      </trkpt>
      <trkpt lat="42.479100711643695831298828125" lon="0.4595403559505939483642578125">
        <ele>1135.4000244140625</ele>
        <time>2039-05-14T11:55:05.000Z</time>
      </trkpt>
      <trkpt lat="42.4790619872510433197021484375" lon="0.4594786651432514190673828125">
        <ele>1136.4000244140625</ele>
        <time>2039-05-14T11:55:08.000Z</time>
      </trkpt>
      <trkpt lat="42.479045726358890533447265625" lon="0.45946307480335235595703125">
        <ele>1137.199951171875</ele>
        <time>2039-05-14T11:55:09.000Z</time>
      </trkpt>
      <trkpt lat="42.47901253402233123779296875" lon="0.4594317264854907989501953125">
        <ele>1137.5999755859375</ele>
        <time>2039-05-14T11:55:11.000Z</time>
      </trkpt>
      <trkpt lat="42.47894053347408771514892578125" lon="0.45938202179968357086181640625">
        <ele>1139</ele>
        <time>2039-05-14T11:55:15.000Z</time>
      </trkpt>
      <trkpt lat="42.47890734113752841949462890625" lon="0.4593650065362453460693359375">
        <ele>1139.4000244140625</ele>
        <time>2039-05-14T11:55:17.000Z</time>
      </trkpt>
      <trkpt lat="42.47889258898794651031494140625" lon="0.4593559540808200836181640625">
        <ele>1140.4000244140625</ele>
        <time>2039-05-14T11:55:19.000Z</time>
      </trkpt>
      <trkpt lat="42.4788911640644073486328125" lon="0.45936089940369129180908203125">
        <ele>1141.199951171875</ele>
        <time>2039-05-14T11:55:21.000Z</time>
      </trkpt>
      <trkpt lat="42.4788911640644073486328125" lon="0.45936089940369129180908203125">
        <ele>1141.199951171875</ele>
        <time>2039-05-14T11:55:22.000Z</time>
      </trkpt>
      <trkpt lat="42.47889409773051738739013671875" lon="0.459362827241420745849609375">
        <ele>1141</ele>
        <time>2039-05-14T11:56:13.000Z</time>
      </trkpt>
      <trkpt lat="42.478867359459400177001953125" lon="0.45932787470519542694091796875">
        <ele>1140.800048828125</ele>
        <time>2039-05-14T11:56:21.000Z</time>
      </trkpt>
      <trkpt lat="42.478860318660736083984375" lon="0.45931060798466205596923828125">
        <ele>1140.800048828125</ele>
        <time>2039-05-14T11:56:22.000Z</time>
      </trkpt>
      <trkpt lat="42.47883005999028682708740234375" lon="0.45919661410152912139892578125">
        <ele>1140.4000244140625</ele>
        <time>2039-05-14T11:56:26.000Z</time>
      </trkpt>
      <trkpt lat="42.47881363146007061004638671875" lon="0.459162332117557525634765625">
        <ele>1140.199951171875</ele>
        <time>2039-05-14T11:56:27.000Z</time>
      </trkpt>
      <trkpt lat="42.47877256013453006744384765625" lon="0.45909351669251918792724609375">
        <ele>1139.4000244140625</ele>
        <time>2039-05-14T11:56:29.000Z</time>
      </trkpt>
      <trkpt lat="42.47868890874087810516357421875" lon="0.45902344398200511932373046875">
        <ele>1137.800048828125</ele>
        <time>2039-05-14T11:56:32.000Z</time>
      </trkpt>
      <trkpt lat="42.4785862304270267486572265625" lon="0.45901003293693065643310546875">
        <ele>1136.5999755859375</ele>
        <time>2039-05-14T11:56:35.000Z</time>
      </trkpt>
      <trkpt lat="42.4785339273512363433837890625" lon="0.45900248922407627105712890625">
        <ele>1135.800048828125</ele>
        <time>2039-05-14T11:56:37.000Z</time>
      </trkpt>
      <trkpt lat="42.4785124696791172027587890625" lon="0.45898991636931896209716796875">
        <ele>1135.5999755859375</ele>
        <time>2039-05-14T11:56:38.000Z</time>
      </trkpt>
      <trkpt lat="42.47847315855324268341064453125" lon="0.45889914035797119140625">
        <ele>1135.4000244140625</ele>
        <time>2039-05-14T11:56:41.000Z</time>
      </trkpt>
      <trkpt lat="42.47846804559230804443359375" lon="0.45883904211223125457763671875">
        <ele>1135</ele>
        <time>2039-05-14T11:56:43.000Z</time>
      </trkpt>
      <trkpt lat="42.47846310026943683624267578125" lon="0.458810627460479736328125">
        <ele>1134.199951171875</ele>
        <time>2039-05-14T11:56:44.000Z</time>
      </trkpt>
      <trkpt lat="42.47845052741467952728271484375" lon="0.45876494608819484710693359375">
        <ele>1132.4000244140625</ele>
        <time>2039-05-14T11:56:46.000Z</time>
      </trkpt>
      <trkpt lat="42.4784427322447299957275390625" lon="0.45874214731156826019287109375">
        <ele>1131.800048828125</ele>
        <time>2039-05-14T11:56:47.000Z</time>
      </trkpt>
      <trkpt lat="42.4784303270280361175537109375" lon="0.45868213288486003875732421875">
        <ele>1131</ele>
        <time>2039-05-14T11:56:49.000Z</time>
      </trkpt>
      <trkpt lat="42.478424794971942901611328125" lon="0.45857333578169345855712890625">
        <ele>1129.800048828125</ele>
        <time>2039-05-14T11:56:52.000Z</time>
      </trkpt>
      <trkpt lat="42.47843761928379535675048828125" lon="0.4584986530244350433349609375">
        <ele>1128.800048828125</ele>
        <time>2039-05-14T11:56:54.000Z</time>
      </trkpt>
      <trkpt lat="42.47845823876559734344482421875" lon="0.45839966274797916412353515625">
        <ele>1127.4000244140625</ele>
        <time>2039-05-14T11:56:56.000Z</time>
      </trkpt>
      <trkpt lat="42.47847148217260837554931640625" lon="0.45834459364414215087890625">
        <ele>1127.199951171875</ele>
        <time>2039-05-14T11:56:57.000Z</time>
      </trkpt>
      <trkpt lat="42.4784846417605876922607421875" lon="0.458190701901912689208984375">
        <ele>1126.199951171875</ele>
        <time>2039-05-14T11:57:00.000Z</time>
      </trkpt>
      <trkpt lat="42.4784809537231922149658203125" lon="0.4581127502024173736572265625">
        <ele>1125.4000244140625</ele>
        <time>2039-05-14T11:57:02.000Z</time>
      </trkpt>
      <trkpt lat="42.4784807860851287841796875" lon="0.457960031926631927490234375">
        <ele>1125.199951171875</ele>
        <time>2039-05-14T11:57:06.000Z</time>
      </trkpt>
      <trkpt lat="42.47846662066876888275146484375" lon="0.45789188705384731292724609375">
        <ele>1124.800048828125</ele>
        <time>2039-05-14T11:57:08.000Z</time>
      </trkpt>
      <trkpt lat="42.47844818048179149627685546875" lon="0.45782851986587047576904296875">
        <ele>1124</ele>
        <time>2039-05-14T11:57:10.000Z</time>
      </trkpt>
      <trkpt lat="42.47839839197695255279541015625" lon="0.4577077366411685943603515625">
        <ele>1123.4000244140625</ele>
        <time>2039-05-14T11:57:15.000Z</time>
      </trkpt>
      <trkpt lat="42.478346340358257293701171875" lon="0.45765258371829986572265625">
        <ele>1122.800048828125</ele>
        <time>2039-05-14T11:57:18.000Z</time>
      </trkpt>
      <trkpt lat="42.47830082662403583526611328125" lon="0.45761478133499622344970703125">
        <ele>1121.800048828125</ele>
        <time>2039-05-14T11:57:20.000Z</time>
      </trkpt>
      <trkpt lat="42.47827400453388690948486328125" lon="0.45759215019643306732177734375">
        <ele>1121.4000244140625</ele>
        <time>2039-05-14T11:57:21.000Z</time>
      </trkpt>
      <trkpt lat="42.47822136618196964263916015625" lon="0.4575377516448497772216796875">
        <ele>1120.4000244140625</ele>
        <time>2039-05-14T11:57:23.000Z</time>
      </trkpt>
      <trkpt lat="42.47817166149616241455078125" lon="0.4574408568441867828369140625">
        <ele>1119.800048828125</ele>
        <time>2039-05-14T11:57:26.000Z</time>
      </trkpt>
      <trkpt lat="42.4781745113432407379150390625" lon="0.457227118313312530517578125">
        <ele>1119.199951171875</ele>
        <time>2039-05-14T11:57:32.000Z</time>
      </trkpt>
      <trkpt lat="42.47825288213789463043212890625" lon="0.457049421966075897216796875">
        <ele>1119.199951171875</ele>
        <time>2039-05-14T11:57:37.000Z</time>
      </trkpt>
      <trkpt lat="42.4783230386674404144287109375" lon="0.4568440653383731842041015625">
        <ele>1118.800048828125</ele>
        <time>2039-05-14T11:57:44.000Z</time>
      </trkpt>
      <trkpt lat="42.478338964283466339111328125" lon="0.4566261358559131622314453125">
        <ele>1118.199951171875</ele>
        <time>2039-05-14T11:57:49.000Z</time>
      </trkpt>
      <trkpt lat="42.47836234979331493377685546875" lon="0.45644433237612247467041015625">
        <ele>1116.800048828125</ele>
        <time>2039-05-14T11:57:52.000Z</time>
      </trkpt>
      <trkpt lat="42.47836838476359844207763671875" lon="0.45634609647095203399658203125">
        <ele>1116.800048828125</ele>
        <time>2039-05-14T11:57:54.000Z</time>
      </trkpt>
      <trkpt lat="42.47834508307278156280517578125" lon="0.45590453781187534332275390625">
        <ele>1117</ele>
        <time>2039-05-14T11:58:03.000Z</time>
      </trkpt>
      <trkpt lat="42.47829613275825977325439453125" lon="0.45567177236080169677734375">
        <ele>1116.199951171875</ele>
        <time>2039-05-14T11:58:09.000Z</time>
      </trkpt>
      <trkpt lat="42.47821566648781299591064453125" lon="0.455505810678005218505859375">
        <ele>1116</ele>
        <time>2039-05-14T11:58:15.000Z</time>
      </trkpt>
      <trkpt lat="42.47805875726044178009033203125" lon="0.45543280430138111114501953125">
        <ele>1116</ele>
        <time>2039-05-14T11:58:20.000Z</time>
      </trkpt>
      <trkpt lat="42.47795951552689075469970703125" lon="0.4553836025297641754150390625">
        <ele>1115.800048828125</ele>
        <time>2039-05-14T11:58:23.000Z</time>
      </trkpt>
      <trkpt lat="42.4779381416738033294677734375" lon="0.455353260040283203125">
        <ele>1115.5999755859375</ele>
        <time>2039-05-14T11:58:24.000Z</time>
      </trkpt>
      <trkpt lat="42.4778824858367443084716796875" lon="0.45519174076616764068603515625">
        <ele>1114.800048828125</ele>
        <time>2039-05-14T11:58:28.000Z</time>
      </trkpt>
      <trkpt lat="42.47786798514425754547119140625" lon="0.455115549266338348388671875">
        <ele>1114.199951171875</ele>
        <time>2039-05-14T11:58:30.000Z</time>
      </trkpt>
      <trkpt lat="42.4779146723449230194091796875" lon="0.45495889149606227874755859375">
        <ele>1114.5999755859375</ele>
        <time>2039-05-14T11:58:35.000Z</time>
      </trkpt>
      <trkpt lat="42.4779683165252208709716796875" lon="0.45488328672945499420166015625">
        <ele>1113.5999755859375</ele>
        <time>2039-05-14T11:58:38.000Z</time>
      </trkpt>
      <trkpt lat="42.47799689881503582000732421875" lon="0.45483182184398174285888671875">
        <ele>1112.5999755859375</ele>
        <time>2039-05-14T11:58:40.000Z</time>
      </trkpt>
      <trkpt lat="42.4780162610113620758056640625" lon="0.45480273663997650146484375">
        <ele>1112.4000244140625</ele>
        <time>2039-05-14T11:58:41.000Z</time>
      </trkpt>
      <trkpt lat="42.47806127183139324188232421875" lon="0.454693101346492767333984375">
        <ele>1112</ele>
        <time>2039-05-14T11:58:44.000Z</time>
      </trkpt>
      <trkpt lat="42.47807267121970653533935546875" lon="0.45465898700058460235595703125">
        <ele>1112</ele>
        <time>2039-05-14T11:58:45.000Z</time>
      </trkpt>
      <trkpt lat="42.4781201966106891632080078125" lon="0.4544562287628650665283203125">
        <ele>1111.4000244140625</ele>
        <time>2039-05-14T11:58:51.000Z</time>
      </trkpt>
      <trkpt lat="42.47812874615192413330078125" lon="0.454420857131481170654296875">
        <ele>1111.4000244140625</ele>
        <time>2039-05-14T11:58:52.000Z</time>
      </trkpt>
      <trkpt lat="42.4781825579702854156494140625" lon="0.45425891876220703125">
        <ele>1110.4000244140625</ele>
        <time>2039-05-14T11:58:56.000Z</time>
      </trkpt>
      <trkpt lat="42.47829412110149860382080078125" lon="0.45396261848509311676025390625">
        <ele>1110.5999755859375</ele>
        <time>2039-05-14T11:59:03.000Z</time>
      </trkpt>
      <trkpt lat="42.47837341390550136566162109375" lon="0.45373194850981235504150390625">
        <ele>1110</ele>
        <time>2039-05-14T11:59:09.000Z</time>
      </trkpt>
      <trkpt lat="42.47841616161167621612548828125" lon="0.4535164497792720794677734375">
        <ele>1109.5999755859375</ele>
        <time>2039-05-14T11:59:15.000Z</time>
      </trkpt>
      <trkpt lat="42.47843527235090732574462890625" lon="0.4533199779689311981201171875">
        <ele>1109.5999755859375</ele>
        <time>2039-05-14T11:59:22.000Z</time>
      </trkpt>
      <trkpt lat="42.47842554934322834014892578125" lon="0.4531225003302097320556640625">
        <ele>1109.4000244140625</ele>
        <time>2039-05-14T11:59:28.000Z</time>
      </trkpt>
      <trkpt lat="42.4784206040203571319580078125" lon="0.45309039764106273651123046875">
        <ele>1109.199951171875</ele>
        <time>2039-05-14T11:59:29.000Z</time>
      </trkpt>
      <trkpt lat="42.4783857353031635284423828125" lon="0.4529753141105175018310546875">
        <ele>1108.4000244140625</ele>
        <time>2039-05-14T11:59:33.000Z</time>
      </trkpt>
      <trkpt lat="42.478336282074451446533203125" lon="0.4528908245265483856201171875">
        <ele>1108</ele>
        <time>2039-05-14T11:59:36.000Z</time>
      </trkpt>
      <trkpt lat="42.47824232093989849090576171875" lon="0.45275218784809112548828125">
        <ele>1106.800048828125</ele>
        <time>2039-05-14T11:59:41.000Z</time>
      </trkpt>
      <trkpt lat="42.4782097153365612030029296875" lon="0.45270734466612339019775390625">
        <ele>1105.800048828125</ele>
        <time>2039-05-14T11:59:43.000Z</time>
      </trkpt>
      <trkpt lat="42.47817300260066986083984375" lon="0.45266660861670970916748046875">
        <ele>1104.800048828125</ele>
        <time>2039-05-14T11:59:45.000Z</time>
      </trkpt>
      <trkpt lat="42.47815246693789958953857421875" lon="0.45264758169651031494140625">
        <ele>1104.5999755859375</ele>
        <time>2039-05-14T11:59:46.000Z</time>
      </trkpt>
      <trkpt lat="42.4780167639255523681640625" lon="0.45251338742673397064208984375">
        <ele>1104.199951171875</ele>
        <time>2039-05-14T11:59:52.000Z</time>
      </trkpt>
      <trkpt lat="42.4779002554714679718017578125" lon="0.45235480181872844696044921875">
        <ele>1103.5999755859375</ele>
        <time>2039-05-14T11:59:58.000Z</time>
      </trkpt>
      <trkpt lat="42.477843761444091796875" lon="0.45227752067148685455322265625">
        <ele>1102.199951171875</ele>
        <time>2039-05-14T12:00:02.000Z</time>
      </trkpt>
      <trkpt lat="42.4777912907302379608154296875" lon="0.45217593200504779815673828125">
        <ele>1101.199951171875</ele>
        <time>2039-05-14T12:00:06.000Z</time>
      </trkpt>
      <trkpt lat="42.47778181917965412139892578125" lon="0.45214575715363025665283203125">
        <ele>1101</ele>
        <time>2039-05-14T12:00:07.000Z</time>
      </trkpt>
      <trkpt lat="42.47774728573858737945556640625" lon="0.45203343965113162994384765625">
        <ele>1099.800048828125</ele>
        <time>2039-05-14T12:00:11.000Z</time>
      </trkpt>
      <trkpt lat="42.477717697620391845703125" lon="0.4519510455429553985595703125">
        <ele>1098.800048828125</ele>
        <time>2039-05-14T12:00:14.000Z</time>
      </trkpt>
      <trkpt lat="42.47770763933658599853515625" lon="0.45192883349955081939697265625">
        <ele>1098.5999755859375</ele>
        <time>2039-05-14T12:00:15.000Z</time>
      </trkpt>
      <trkpt lat="42.4776786379516124725341796875" lon="0.45186295174062252044677734375">
        <ele>1097.4000244140625</ele>
        <time>2039-05-14T12:00:18.000Z</time>
      </trkpt>
      <trkpt lat="42.47765407897531986236572265625" lon="0.4518122412264347076416015625">
        <ele>1096.199951171875</ele>
        <time>2039-05-14T12:00:20.000Z</time>
      </trkpt>
      <trkpt lat="42.47762340120971202850341796875" lon="0.45176253654062747955322265625">
        <ele>1095.800048828125</ele>
        <time>2039-05-14T12:00:22.000Z</time>
      </trkpt>
      <trkpt lat="42.4775904603302478790283203125" lon="0.45170956291258335113525390625">
        <ele>1095</ele>
        <time>2039-05-14T12:00:24.000Z</time>
      </trkpt>
      <trkpt lat="42.47754125855863094329833984375" lon="0.45165893621742725372314453125">
        <ele>1094.800048828125</ele>
        <time>2039-05-14T12:00:26.000Z</time>
      </trkpt>
      <trkpt lat="42.4774526618421077728271484375" lon="0.45158048160374164581298828125">
        <ele>1093.800048828125</ele>
        <time>2039-05-14T12:00:29.000Z</time>
      </trkpt>
      <trkpt lat="42.47733891941606998443603515625" lon="0.4514773003756999969482421875">
        <ele>1092.800048828125</ele>
        <time>2039-05-14T12:00:33.000Z</time>
      </trkpt>
      <trkpt lat="42.4771700240671634674072265625" lon="0.4512727819383144378662109375">
        <ele>1093</ele>
        <time>2039-05-14T12:00:41.000Z</time>
      </trkpt>
      <trkpt lat="42.4771395139396190643310546875" lon="0.45110740698873996734619140625">
        <ele>1092</ele>
        <time>2039-05-14T12:00:47.000Z</time>
      </trkpt>
      <trkpt lat="42.47714026831090450286865234375" lon="0.45108561404049396514892578125">
        <ele>1091.5999755859375</ele>
        <time>2039-05-14T12:00:48.000Z</time>
      </trkpt>
      <trkpt lat="42.47713574208319187164306640625" lon="0.45096843503415584564208984375">
        <ele>1090.5999755859375</ele>
        <time>2039-05-14T12:00:53.000Z</time>
      </trkpt>
      <trkpt lat="42.4771307967603206634521484375" lon="0.45094043947756290435791015625">
        <ele>1090.199951171875</ele>
        <time>2039-05-14T12:00:54.000Z</time>
      </trkpt>
      <trkpt lat="42.47710280120372772216796875" lon="0.45087388716638088226318359375">
        <ele>1089.199951171875</ele>
        <time>2039-05-14T12:00:57.000Z</time>
      </trkpt>
      <trkpt lat="42.47707673348486423492431640625" lon="0.45085360296070575714111328125">
        <ele>1088.199951171875</ele>
        <time>2039-05-14T12:00:59.000Z</time>
      </trkpt>
      <trkpt lat="42.476973049342632293701171875" lon="0.45083398930728435516357421875">
        <ele>1087.4000244140625</ele>
        <time>2039-05-14T12:01:07.000Z</time>
      </trkpt>
      <trkpt lat="42.47695435769855976104736328125" lon="0.45083616860210895538330078125">
        <ele>1087.4000244140625</ele>
        <time>2039-05-14T12:01:08.000Z</time>
      </trkpt>
      <trkpt lat="42.4768739752471446990966796875" lon="0.4508510045707225799560546875">
        <ele>1086.199951171875</ele>
        <time>2039-05-14T12:01:12.000Z</time>
      </trkpt>
      <trkpt lat="42.4768099375069141387939453125" lon="0.45087036676704883575439453125">
        <ele>1085</ele>
        <time>2039-05-14T12:01:15.000Z</time>
      </trkpt>
      <trkpt lat="42.4767174012959003448486328125" lon="0.4508888907730579376220703125">
        <ele>1084</ele>
        <time>2039-05-14T12:01:19.000Z</time>
      </trkpt>
      <trkpt lat="42.476660571992397308349609375" lon="0.45087422244250774383544921875">
        <ele>1083</ele>
        <time>2039-05-14T12:01:21.000Z</time>
      </trkpt>
      <trkpt lat="42.4765812791883945465087890625" lon="0.4507819376885890960693359375">
        <ele>1082</ele>
        <time>2039-05-14T12:01:25.000Z</time>
      </trkpt>
      <trkpt lat="42.4765561334788799285888671875" lon="0.450750924646854400634765625">
        <ele>1081.800048828125</ele>
        <time>2039-05-14T12:01:26.000Z</time>
      </trkpt>
      <trkpt lat="42.476493604481220245361328125" lon="0.4506451450288295745849609375">
        <ele>1081.199951171875</ele>
        <time>2039-05-14T12:01:29.000Z</time>
      </trkpt>
      <trkpt lat="42.47648195363581180572509765625" lon="0.4506044089794158935546875">
        <ele>1080.800048828125</ele>
        <time>2039-05-14T12:01:30.000Z</time>
      </trkpt>
      <trkpt lat="42.47646837495267391204833984375" lon="0.45056484639644622802734375">
        <ele>1080.800048828125</ele>
        <time>2039-05-14T12:01:31.000Z</time>
      </trkpt>
      <trkpt lat="42.47642956674098968505859375" lon="0.4503698833286762237548828125">
        <ele>1079.800048828125</ele>
        <time>2039-05-14T12:01:35.000Z</time>
      </trkpt>
      <trkpt lat="42.476417832076549530029296875" lon="0.4503256268799304962158203125">
        <ele>1079.5999755859375</ele>
        <time>2039-05-14T12:01:36.000Z</time>
      </trkpt>
      <trkpt lat="42.47637231834232807159423828125" lon="0.4502066038548946380615234375">
        <ele>1078.4000244140625</ele>
        <time>2039-05-14T12:01:39.000Z</time>
      </trkpt>
      <trkpt lat="42.47632973827421665191650390625" lon="0.45012856833636760711669921875">
        <ele>1078</ele>
        <time>2039-05-14T12:01:41.000Z</time>
      </trkpt>
      <trkpt lat="42.4763046763837337493896484375" lon="0.45009353198111057281494140625">
        <ele>1077.199951171875</ele>
        <time>2039-05-14T12:01:42.000Z</time>
      </trkpt>
      <trkpt lat="42.47624717652797698974609375" lon="0.4500366188585758209228515625">
        <ele>1075.800048828125</ele>
        <time>2039-05-14T12:01:44.000Z</time>
      </trkpt>
      <trkpt lat="42.4761963821947574615478515625" lon="0.45001633465290069580078125">
        <ele>1074.5999755859375</ele>
        <time>2039-05-14T12:01:46.000Z</time>
      </trkpt>
      <trkpt lat="42.47609823010861873626708984375" lon="0.4500000737607479095458984375">
        <ele>1073.199951171875</ele>
        <time>2039-05-14T12:01:50.000Z</time>
      </trkpt>
      <trkpt lat="42.476024888455867767333984375" lon="0.450003258883953094482421875">
        <ele>1072.199951171875</ele>
        <time>2039-05-14T12:01:53.000Z</time>
      </trkpt>
      <trkpt lat="42.4759375490248203277587890625" lon="0.45004089362919330596923828125">
        <ele>1070.800048828125</ele>
        <time>2039-05-14T12:01:56.000Z</time>
      </trkpt>
      <trkpt lat="42.47588046826422214508056640625" lon="0.45007743872702121734619140625">
        <ele>1069.4000244140625</ele>
        <time>2039-05-14T12:01:58.000Z</time>
      </trkpt>
      <trkpt lat="42.47585398145020008087158203125" lon="0.45009034685790538787841796875">
        <ele>1068.5999755859375</ele>
        <time>2039-05-14T12:01:59.000Z</time>
      </trkpt>
      <trkpt lat="42.475828416645526885986328125" lon="0.45009068213403224945068359375">
        <ele>1067.800048828125</ele>
        <time>2039-05-14T12:02:00.000Z</time>
      </trkpt>
      <trkpt lat="42.47577502392232418060302734375" lon="0.45006972737610340118408203125">
        <ele>1066.5999755859375</ele>
        <time>2039-05-14T12:02:02.000Z</time>
      </trkpt>
      <trkpt lat="42.47574853710830211639404296875" lon="0.45005346648395061492919921875">
        <ele>1066.199951171875</ele>
        <time>2039-05-14T12:02:03.000Z</time>
      </trkpt>
      <trkpt lat="42.47570109553635120391845703125" lon="0.45001256279647350311279296875">
        <ele>1065.4000244140625</ele>
        <time>2039-05-14T12:02:05.000Z</time>
      </trkpt>
      <trkpt lat="42.47564971446990966796875" lon="0.449972413480281829833984375">
        <ele>1064.4000244140625</ele>
        <time>2039-05-14T12:02:07.000Z</time>
      </trkpt>
      <trkpt lat="42.4756207130849361419677734375" lon="0.44996210373938083648681640625">
        <ele>1063.5999755859375</ele>
        <time>2039-05-14T12:02:08.000Z</time>
      </trkpt>
      <trkpt lat="42.4755915440618991851806640625" lon="0.44996025972068309783935546875">
        <ele>1063.199951171875</ele>
        <time>2039-05-14T12:02:09.000Z</time>
      </trkpt>
      <trkpt lat="42.4755338765680789947509765625" lon="0.4499725811183452606201171875">
        <ele>1062.199951171875</ele>
        <time>2039-05-14T12:02:11.000Z</time>
      </trkpt>
      <trkpt lat="42.47550646774470806121826171875" lon="0.4499786160886287689208984375">
        <ele>1061.800048828125</ele>
        <time>2039-05-14T12:02:12.000Z</time>
      </trkpt>
      <trkpt lat="42.47547998093068599700927734375" lon="0.44998146593570709228515625">
        <ele>1061.199951171875</ele>
        <time>2039-05-14T12:02:13.000Z</time>
      </trkpt>
      <trkpt lat="42.475452907383441925048828125" lon="0.449979789555072784423828125">
        <ele>1060.5999755859375</ele>
        <time>2039-05-14T12:02:14.000Z</time>
      </trkpt>
      <trkpt lat="42.47538107447326183319091796875" lon="0.4499414004385471343994140625">
        <ele>1059.5999755859375</ele>
        <time>2039-05-14T12:02:17.000Z</time>
      </trkpt>
      <trkpt lat="42.4753591977059841156005859375" lon="0.4499169252812862396240234375">
        <ele>1059.199951171875</ele>
        <time>2039-05-14T12:02:18.000Z</time>
      </trkpt>
      <trkpt lat="42.47531670145690441131591796875" lon="0.44986152090132236480712890625">
        <ele>1058.199951171875</ele>
        <time>2039-05-14T12:02:20.000Z</time>
      </trkpt>
      <trkpt lat="42.47526221908628940582275390625" lon="0.4497965611517429351806640625">
        <ele>1057</ele>
        <time>2039-05-14T12:02:23.000Z</time>
      </trkpt>
      <trkpt lat="42.475228942930698394775390625" lon="0.44977988116443157196044921875">
        <ele>1055.800048828125</ele>
        <time>2039-05-14T12:02:25.000Z</time>
      </trkpt>
      <trkpt lat="42.47521377168595790863037109375" lon="0.44978189282119274139404296875">
        <ele>1055.4000244140625</ele>
        <time>2039-05-14T12:02:26.000Z</time>
      </trkpt>
      <trkpt lat="42.4751845188438892364501953125" lon="0.44980435632169246673583984375">
        <ele>1054.4000244140625</ele>
        <time>2039-05-14T12:02:28.000Z</time>
      </trkpt>
      <trkpt lat="42.475153170526027679443359375" lon="0.44983017258346080780029296875">
        <ele>1053.5999755859375</ele>
        <time>2039-05-14T12:02:30.000Z</time>
      </trkpt>
      <trkpt lat="42.4751375801861286163330078125" lon="0.4498421587049961090087890625">
        <ele>1053.4000244140625</ele>
        <time>2039-05-14T12:02:31.000Z</time>
      </trkpt>
      <trkpt lat="42.47507245279848575592041015625" lon="0.44984878040850162506103515625">
        <ele>1052.5999755859375</ele>
        <time>2039-05-14T12:02:35.000Z</time>
      </trkpt>
      <trkpt lat="42.47506566345691680908203125" lon="0.4498480260372161865234375">
        <ele>1052.4000244140625</ele>
        <time>2039-05-14T12:02:36.000Z</time>
      </trkpt>
      <trkpt lat="42.47506407089531421661376953125" lon="0.44984375126659870147705078125">
        <ele>1051.4000244140625</ele>
        <time>2039-05-14T12:02:39.000Z</time>
      </trkpt>
      <trkpt lat="42.47505904175341129302978515625" lon="0.44984023086726665496826171875">
        <ele>1051</ele>
        <time>2039-05-14T12:02:41.000Z</time>
      </trkpt>
      <trkpt lat="42.47505091130733489990234375" lon="0.44983469881117343902587890625">
        <ele>1051</ele>
        <time>2039-05-14T12:02:42.000Z</time>
      </trkpt>
      <trkpt lat="42.4750178866088390350341796875" lon="0.44980578124523162841796875">
        <ele>1050.199951171875</ele>
        <time>2039-05-14T12:02:46.000Z</time>
      </trkpt>
      <trkpt lat="42.47501143254339694976806640625" lon="0.44979597441852092742919921875">
        <ele>1050.199951171875</ele>
        <time>2039-05-14T12:02:47.000Z</time>
      </trkpt>
      <trkpt lat="42.4749722890555858612060546875" lon="0.449749119579792022705078125">
        <ele>1049.5999755859375</ele>
        <time>2039-05-14T12:02:52.000Z</time>
      </trkpt>
      <trkpt lat="42.47495611198246479034423828125" lon="0.4497278295457363128662109375">
        <ele>1048.800048828125</ele>
        <time>2039-05-14T12:02:54.000Z</time>
      </trkpt>
      <trkpt lat="42.474917806684970855712890625" lon="0.4496575891971588134765625">
        <ele>1047.800048828125</ele>
        <time>2039-05-14T12:03:00.000Z</time>
      </trkpt>
      <trkpt lat="42.47491277754306793212890625" lon="0.4496460221707820892333984375">
        <ele>1047.4000244140625</ele>
        <time>2039-05-14T12:03:01.000Z</time>
      </trkpt>
      <trkpt lat="42.4748812615871429443359375" lon="0.449586175382137298583984375">
        <ele>1046.800048828125</ele>
        <time>2039-05-14T12:03:08.000Z</time>
      </trkpt>
      <trkpt lat="42.47487614862620830535888671875" lon="0.44957586564123630523681640625">
        <ele>1046.5999755859375</ele>
        <time>2039-05-14T12:03:09.000Z</time>
      </trkpt>
      <trkpt lat="42.47486558742821216583251953125" lon="0.449526496231555938720703125">
        <ele>1045.4000244140625</ele>
        <time>2039-05-14T12:03:13.000Z</time>
      </trkpt>
      <trkpt lat="42.47485536150634288787841796875" lon="0.44950931333005428314208984375">
        <ele>1045</ele>
        <time>2039-05-14T12:03:15.000Z</time>
      </trkpt>
      <trkpt lat="42.474831975996494293212890625" lon="0.4494673199951648712158203125">
        <ele>1044.199951171875</ele>
        <time>2039-05-14T12:03:20.000Z</time>
      </trkpt>
      <trkpt lat="42.4748204089701175689697265625" lon="0.449446700513362884521484375">
        <ele>1043.800048828125</ele>
        <time>2039-05-14T12:03:22.000Z</time>
      </trkpt>
      <trkpt lat="42.474777996540069580078125" lon="0.4493922181427478790283203125">
        <ele>1043</ele>
        <time>2039-05-14T12:03:29.000Z</time>
      </trkpt>
      <trkpt lat="42.47476525604724884033203125" lon="0.44937754981219768524169921875">
        <ele>1042.5999755859375</ele>
        <time>2039-05-14T12:03:31.000Z</time>
      </trkpt>
      <trkpt lat="42.4747444689273834228515625" lon="0.44934980571269989013671875">
        <ele>1041.800048828125</ele>
        <time>2039-05-14T12:03:34.000Z</time>
      </trkpt>
      <trkpt lat="42.47472099959850311279296875" lon="0.44931820593774318695068359375">
        <ele>1040.800048828125</ele>
        <time>2039-05-14T12:03:38.000Z</time>
      </trkpt>
      <trkpt lat="42.4747134558856487274169921875" lon="0.44930948875844478607177734375">
        <ele>1040.4000244140625</ele>
        <time>2039-05-14T12:03:39.000Z</time>
      </trkpt>
      <trkpt lat="42.47468755580484867095947265625" lon="0.44927210547029972076416015625">
        <ele>1039.5999755859375</ele>
        <time>2039-05-14T12:03:43.000Z</time>
      </trkpt>
      <trkpt lat="42.474662996828556060791015625" lon="0.4492259211838245391845703125">
        <ele>1039.199951171875</ele>
        <time>2039-05-14T12:03:47.000Z</time>
      </trkpt>
      <trkpt lat="42.47465017251670360565185546875" lon="0.44920362532138824462890625">
        <ele>1038.5999755859375</ele>
        <time>2039-05-14T12:03:49.000Z</time>
      </trkpt>
      <trkpt lat="42.474620752036571502685546875" lon="0.4491598717868328094482421875">
        <ele>1037.4000244140625</ele>
        <time>2039-05-14T12:03:54.000Z</time>
      </trkpt>
      <trkpt lat="42.47460558079183101654052734375" lon="0.44912156648933887481689453125">
        <ele>1036.800048828125</ele>
        <time>2039-05-14T12:03:59.000Z</time>
      </trkpt>
      <trkpt lat="42.4746021442115306854248046875" lon="0.4491095803678035736083984375">
        <ele>1036.5999755859375</ele>
        <time>2039-05-14T12:04:00.000Z</time>
      </trkpt>
      <trkpt lat="42.4745994620025157928466796875" lon="0.4490810818970203399658203125">
        <ele>1036.199951171875</ele>
        <time>2039-05-14T12:04:02.000Z</time>
      </trkpt>
      <trkpt lat="42.4745900742709636688232421875" lon="0.4490267671644687652587890625">
        <ele>1035.4000244140625</ele>
        <time>2039-05-14T12:04:05.000Z</time>
      </trkpt>
      <trkpt lat="42.474587224423885345458984375" lon="0.44901025481522083282470703125">
        <ele>1034.800048828125</ele>
        <time>2039-05-14T12:04:06.000Z</time>
      </trkpt>
      <trkpt lat="42.4745629169046878814697265625" lon="0.4488963447511196136474609375">
        <ele>1034</ele>
        <time>2039-05-14T12:04:14.000Z</time>
      </trkpt>
      <trkpt lat="42.4745619110763072967529296875" lon="0.4488805867731571197509765625">
        <ele>1033.800048828125</ele>
        <time>2039-05-14T12:04:15.000Z</time>
      </trkpt>
      <trkpt lat="42.47455428354442119598388671875" lon="0.44880841858685016632080078125">
        <ele>1032.800048828125</ele>
        <time>2039-05-14T12:04:20.000Z</time>
      </trkpt>
      <trkpt lat="42.474548332393169403076171875" lon="0.44876416213810443878173828125">
        <ele>1032.199951171875</ele>
        <time>2039-05-14T12:04:23.000Z</time>
      </trkpt>
      <trkpt lat="42.47454154305160045623779296875" lon="0.44870867393910884857177734375">
        <ele>1031.5999755859375</ele>
        <time>2039-05-14T12:04:27.000Z</time>
      </trkpt>
      <trkpt lat="42.47453592717647552490234375" lon="0.448664166033267974853515625">
        <ele>1031.4000244140625</ele>
        <time>2039-05-14T12:04:30.000Z</time>
      </trkpt>
      <trkpt lat="42.474526204168796539306640625" lon="0.44858914799988269805908203125">
        <ele>1030.4000244140625</ele>
        <time>2039-05-14T12:04:35.000Z</time>
      </trkpt>
      <trkpt lat="42.47452243231236934661865234375" lon="0.44856081716716289520263671875">
        <ele>1029.800048828125</ele>
        <time>2039-05-14T12:04:37.000Z</time>
      </trkpt>
      <trkpt lat="42.47451874427497386932373046875" lon="0.44851957820355892181396484375">
        <ele>1029.4000244140625</ele>
        <time>2039-05-14T12:04:40.000Z</time>
      </trkpt>
      <trkpt lat="42.4745022319257259368896484375" lon="0.44844699092209339141845703125">
        <ele>1028.4000244140625</ele>
        <time>2039-05-14T12:04:45.000Z</time>
      </trkpt>
      <trkpt lat="42.47449359856545925140380859375" lon="0.44839401729404926300048828125">
        <ele>1027.4000244140625</ele>
        <time>2039-05-14T12:04:49.000Z</time>
      </trkpt>
      <trkpt lat="42.47447834350168704986572265625" lon="0.44833517633378505706787109375">
        <ele>1027</ele>
        <time>2039-05-14T12:04:54.000Z</time>
      </trkpt>
      <trkpt lat="42.47446954250335693359375" lon="0.44830533675849437713623046875">
        <ele>1026.4000244140625</ele>
        <time>2039-05-14T12:04:56.000Z</time>
      </trkpt>
      <trkpt lat="42.47444808483123779296875" lon="0.44823224656283855438232421875">
        <ele>1025.5999755859375</ele>
        <time>2039-05-14T12:05:01.000Z</time>
      </trkpt>
      <trkpt lat="42.47442972846329212188720703125" lon="0.4481761716306209564208984375">
        <ele>1024.4000244140625</ele>
        <time>2039-05-14T12:05:05.000Z</time>
      </trkpt>
      <trkpt lat="42.4744164012372493743896484375" lon="0.44814205728471279144287109375">
        <ele>1023.4000244140625</ele>
        <time>2039-05-14T12:05:10.000Z</time>
      </trkpt>
      <trkpt lat="42.474402822554111480712890625" lon="0.4481128044426441192626953125">
        <ele>1023.20001220703125</ele>
        <time>2039-05-14T12:05:29.000Z</time>
      </trkpt>
      <trkpt lat="42.47436636127531528472900390625" lon="0.44806477613747119903564453125">
        <ele>1022.4000244140625</ele>
        <time>2039-05-14T12:05:36.000Z</time>
      </trkpt>
      <trkpt lat="42.47435487806797027587890625" lon="0.4480561427772045135498046875">
        <ele>1022</ele>
        <time>2039-05-14T12:05:38.000Z</time>
      </trkpt>
      <trkpt lat="42.4743354320526123046875" lon="0.448040552437305450439453125">
        <ele>1021.4000244140625</ele>
        <time>2039-05-14T12:05:44.000Z</time>
      </trkpt>
      <trkpt lat="42.47433350421488285064697265625" lon="0.4480403847992420196533203125">
        <ele>1021.4000244140625</ele>
        <time>2039-05-14T12:05:47.000Z</time>
      </trkpt>
      <trkpt lat="42.47432713396847248077392578125" lon="0.4480360262095928192138671875">
        <ele>1021</ele>
        <time>2039-05-14T12:06:15.000Z</time>
      </trkpt>
      <trkpt lat="42.4743071012198925018310546875" lon="0.44802940450608730316162109375">
        <ele>1021.20001220703125</ele>
        <time>2039-05-14T12:06:25.000Z</time>
      </trkpt>
      <trkpt lat="42.47429897077381610870361328125" lon="0.44802672229707241058349609375">
        <ele>1021.20001220703125</ele>
        <time>2039-05-14T12:06:26.000Z</time>
      </trkpt>
      <trkpt lat="42.47425052337348461151123046875" lon="0.4480048455297946929931640625">
        <ele>1020.5999755859375</ele>
        <time>2039-05-14T12:06:32.000Z</time>
      </trkpt>
      <trkpt lat="42.47424214147031307220458984375" lon="0.4480014927685260772705078125">
        <ele>1020.4000244140625</ele>
        <time>2039-05-14T12:06:33.000Z</time>
      </trkpt>
      <trkpt lat="42.4742068536579608917236328125" lon="0.44798665679991245269775390625">
        <ele>1019.20001220703125</ele>
        <time>2039-05-14T12:06:37.000Z</time>
      </trkpt>
      <trkpt lat="42.4741713143885135650634765625" lon="0.44796972535550594329833984375">
        <ele>1019</ele>
        <time>2039-05-14T12:06:41.000Z</time>
      </trkpt>
      <trkpt lat="42.4741538800299167633056640625" lon="0.44796570204198360443115234375">
        <ele>1018.5999755859375</ele>
        <time>2039-05-14T12:06:43.000Z</time>
      </trkpt>
      <trkpt lat="42.47413636185228824615478515625" lon="0.44796151109039783477783203125">
        <ele>1018</ele>
        <time>2039-05-14T12:06:45.000Z</time>
      </trkpt>
      <trkpt lat="42.474087662994861602783203125" lon="0.44794927351176738739013671875">
        <ele>1017.4000244140625</ele>
        <time>2039-05-14T12:06:51.000Z</time>
      </trkpt>
      <trkpt lat="42.4740784429013729095458984375" lon="0.447945334017276763916015625">
        <ele>1017.20001220703125</ele>
        <time>2039-05-14T12:06:52.000Z</time>
      </trkpt>
      <trkpt lat="42.474027313292026519775390625" lon="0.4479287378489971160888671875">
        <ele>1016</ele>
        <time>2039-05-14T12:06:58.000Z</time>
      </trkpt>
      <trkpt lat="42.47401834465563297271728515625" lon="0.44792513363063335418701171875">
        <ele>1015.79998779296875</ele>
        <time>2039-05-14T12:06:59.000Z</time>
      </trkpt>
      <trkpt lat="42.4739852361381053924560546875" lon="0.447915159165859222412109375">
        <ele>1015</ele>
        <time>2039-05-14T12:07:02.000Z</time>
      </trkpt>
      <trkpt lat="42.473948188126087188720703125" lon="0.4478921927511692047119140625">
        <ele>1014.4000244140625</ele>
        <time>2039-05-14T12:07:06.000Z</time>
      </trkpt>
      <trkpt lat="42.47392966412007808685302734375" lon="0.44788339175283908843994140625">
        <ele>1013.79998779296875</ele>
        <time>2039-05-14T12:07:08.000Z</time>
      </trkpt>
      <trkpt lat="42.47387870214879512786865234375" lon="0.447875596582889556884765625">
        <ele>1012.5999755859375</ele>
        <time>2039-05-14T12:07:14.000Z</time>
      </trkpt>
      <trkpt lat="42.47383126057684421539306640625" lon="0.4478640295565128326416015625">
        <ele>1011.5999755859375</ele>
        <time>2039-05-14T12:07:19.000Z</time>
      </trkpt>
      <trkpt lat="42.47381038963794708251953125" lon="0.44786126352846622467041015625">
        <ele>1011.4000244140625</ele>
        <time>2039-05-14T12:07:21.000Z</time>
      </trkpt>
      <trkpt lat="42.47376504354178905487060546875" lon="0.44785740785300731658935546875">
        <ele>1010.4000244140625</ele>
        <time>2039-05-14T12:07:25.000Z</time>
      </trkpt>
      <trkpt lat="42.47372053563594818115234375" lon="0.44784500263631343841552734375">
        <ele>1009.5999755859375</ele>
        <time>2039-05-14T12:07:29.000Z</time>
      </trkpt>
      <trkpt lat="42.473680637776851654052734375" lon="0.44782673008739948272705078125">
        <ele>1008.4000244140625</ele>
        <time>2039-05-14T12:07:33.000Z</time>
      </trkpt>
      <trkpt lat="42.47365959919989109039306640625" lon="0.4478160850703716278076171875">
        <ele>1008</ele>
        <time>2039-05-14T12:07:35.000Z</time>
      </trkpt>
      <trkpt lat="42.47364786453545093536376953125" lon="0.44781063683331012725830078125">
        <ele>1007.79998779296875</ele>
        <time>2039-05-14T12:07:36.000Z</time>
      </trkpt>
      <trkpt lat="42.4736248143017292022705078125" lon="0.44780493713915348052978515625">
        <ele>1007.20001220703125</ele>
        <time>2039-05-14T12:07:38.000Z</time>
      </trkpt>
      <trkpt lat="42.4735758639872074127197265625" lon="0.44780225493013858795166015625">
        <ele>1006.20001220703125</ele>
        <time>2039-05-14T12:07:42.000Z</time>
      </trkpt>
      <trkpt lat="42.47356505133211612701416015625" lon="0.447802506387233734130859375">
        <ele>1006.20001220703125</ele>
        <time>2039-05-14T12:07:43.000Z</time>
      </trkpt>
      <trkpt lat="42.47355197556316852569580078125" lon="0.447801835834980010986328125">
        <ele>1006</ele>
        <time>2039-05-14T12:07:44.000Z</time>
      </trkpt>
      <trkpt lat="42.4735024385154247283935546875" lon="0.44780041091144084930419921875">
        <ele>1005.20001220703125</ele>
        <time>2039-05-14T12:07:48.000Z</time>
      </trkpt>
      <trkpt lat="42.473478130996227264404296875" lon="0.44780007563531398773193359375">
        <ele>1004.5999755859375</ele>
        <time>2039-05-14T12:07:50.000Z</time>
      </trkpt>
      <trkpt lat="42.473440580070018768310546875" lon="0.447807870805263519287109375">
        <ele>1004</ele>
        <time>2039-05-14T12:07:53.000Z</time>
      </trkpt>
      <trkpt lat="42.4733928032219409942626953125" lon="0.44780359603464603424072265625">
        <ele>1003.5999755859375</ele>
        <time>2039-05-14T12:07:57.000Z</time>
      </trkpt>
      <trkpt lat="42.47332264669239521026611328125" lon="0.44778213836252689361572265625">
        <ele>1003</ele>
        <time>2039-05-14T12:08:02.000Z</time>
      </trkpt>
      <trkpt lat="42.4733116663992404937744140625" lon="0.4477679729461669921875">
        <ele>1002.79998779296875</ele>
        <time>2039-05-14T12:08:03.000Z</time>
      </trkpt>
      <trkpt lat="42.4733019433915615081787109375" lon="0.44775925576686859130859375">
        <ele>1002.4000244140625</ele>
        <time>2039-05-14T12:08:04.000Z</time>
      </trkpt>
      <trkpt lat="42.4732774682343006134033203125" lon="0.44765909202396869659423828125">
        <ele>1002.20001220703125</ele>
        <time>2039-05-14T12:08:09.000Z</time>
      </trkpt>
      <trkpt lat="42.473257519304752349853515625" lon="0.4475787095725536346435546875">
        <ele>1001.5999755859375</ele>
        <time>2039-05-14T12:08:17.000Z</time>
      </trkpt>
      <trkpt lat="42.4732576869428157806396484375" lon="0.4475753568112850189208984375">
        <ele>1002</ele>
        <time>2039-05-14T12:08:29.000Z</time>
      </trkpt>
      <trkpt lat="42.473257519304752349853515625" lon="0.4475740157067775726318359375">
        <ele>1001.5999755859375</ele>
        <time>2039-05-14T12:08:48.000Z</time>
      </trkpt>
      <trkpt lat="42.47325743548572063446044921875" lon="0.44757359661161899566650390625">
        <ele>1001.5999755859375</ele>
        <time>2039-05-14T12:08:52.000Z</time>
      </trkpt>
      <trkpt lat="42.47326456010341644287109375" lon="0.44754576869308948516845703125">
        <ele>1001.20001220703125</ele>
        <time>2039-05-14T12:09:06.000Z</time>
      </trkpt>
      <trkpt lat="42.47327721677720546722412109375" lon="0.4475039429962635040283203125">
        <ele>1001.20001220703125</ele>
        <time>2039-05-14T12:09:09.000Z</time>
      </trkpt>
      <trkpt lat="42.4733056314289569854736328125" lon="0.44745960272848606109619140625">
        <ele>1001.4000244140625</ele>
        <time>2039-05-14T12:09:12.000Z</time>
      </trkpt>
      <trkpt lat="42.473318539559841156005859375" lon="0.44744074344635009765625">
        <ele>1001.20001220703125</ele>
        <time>2039-05-14T12:09:13.000Z</time>
      </trkpt>
      <trkpt lat="42.4733901210129261016845703125" lon="0.4473145119845867156982421875">
        <ele>1000.79998779296875</ele>
        <time>2039-05-14T12:09:18.000Z</time>
      </trkpt>
      <trkpt lat="42.4734042026102542877197265625" lon="0.44728743843734264373779296875">
        <ele>1000.5999755859375</ele>
        <time>2039-05-14T12:09:19.000Z</time>
      </trkpt>
      <trkpt lat="42.4735094793140888214111328125" lon="0.44709767214953899383544921875">
        <ele>1000</ele>
        <time>2039-05-14T12:09:25.000Z</time>
      </trkpt>
      <trkpt lat="42.47353655286133289337158203125" lon="0.4470255039632320404052734375">
        <ele>999.79998779296875</ele>
        <time>2039-05-14T12:09:27.000Z</time>
      </trkpt>
      <trkpt lat="42.473637722432613372802734375" lon="0.44680464081466197967529296875">
        <ele>998.79998779296875</ele>
        <time>2039-05-14T12:09:33.000Z</time>
      </trkpt>
      <trkpt lat="42.47365607880055904388427734375" lon="0.44671713374555110931396484375">
        <ele>997.5999755859375</ele>
        <time>2039-05-14T12:09:36.000Z</time>
      </trkpt>
      <trkpt lat="42.47364602051675319671630859375" lon="0.4466872103512287139892578125">
        <ele>997.4000244140625</ele>
        <time>2039-05-14T12:09:37.000Z</time>
      </trkpt>
      <trkpt lat="42.4735844135284423828125" lon="0.44659878127276897430419921875">
        <ele>996.4000244140625</ele>
        <time>2039-05-14T12:09:41.000Z</time>
      </trkpt>
      <trkpt lat="42.47357158921658992767333984375" lon="0.4465893097221851348876953125">
        <ele>996.20001220703125</ele>
        <time>2039-05-14T12:09:42.000Z</time>
      </trkpt>
      <trkpt lat="42.4735446833074092864990234375" lon="0.44657631777226924896240234375">
        <ele>995.20001220703125</ele>
        <time>2039-05-14T12:09:45.000Z</time>
      </trkpt>
      <trkpt lat="42.4735379777848720550537109375" lon="0.446581430733203887939453125">
        <ele>995</ele>
        <time>2039-05-14T12:09:47.000Z</time>
      </trkpt>
      <trkpt lat="42.4734933860599994659423828125" lon="0.4465762339532375335693359375">
        <ele>994.4000244140625</ele>
        <time>2039-05-14T12:09:52.000Z</time>
      </trkpt>
      <trkpt lat="42.47346865944564342498779296875" lon="0.4465675167739391326904296875">
        <ele>994.20001220703125</ele>
        <time>2039-05-14T12:09:53.000Z</time>
      </trkpt>
      <trkpt lat="42.47337662614881992340087890625" lon="0.44653122313320636749267578125">
        <ele>992.79998779296875</ele>
        <time>2039-05-14T12:09:56.000Z</time>
      </trkpt>
      <trkpt lat="42.4733505584299564361572265625" lon="0.44651630334556102752685546875">
        <ele>991.79998779296875</ele>
        <time>2039-05-14T12:09:57.000Z</time>
      </trkpt>
      <trkpt lat="42.47332667000591754913330078125" lon="0.44650574214756488800048828125">
        <ele>991</ele>
        <time>2039-05-14T12:09:58.000Z</time>
      </trkpt>
      <trkpt lat="42.4732838384807109832763671875" lon="0.446482859551906585693359375">
        <ele>989.79998779296875</ele>
        <time>2039-05-14T12:10:00.000Z</time>
      </trkpt>
      <trkpt lat="42.47322432696819305419921875" lon="0.44642678461968898773193359375">
        <ele>988.5999755859375</ele>
        <time>2039-05-14T12:10:03.000Z</time>
      </trkpt>
      <trkpt lat="42.47318870387971401214599609375" lon="0.44636450707912445068359375">
        <ele>987.20001220703125</ele>
        <time>2039-05-14T12:10:06.000Z</time>
      </trkpt>
      <trkpt lat="42.473188452422618865966796875" lon="0.4463093541562557220458984375">
        <ele>986.5999755859375</ele>
        <time>2039-05-14T12:10:08.000Z</time>
      </trkpt>
      <trkpt lat="42.47319088317453861236572265625" lon="0.44628261588513851165771484375">
        <ele>986.20001220703125</ele>
        <time>2039-05-14T12:10:09.000Z</time>
      </trkpt>
      <trkpt lat="42.4731887876987457275390625" lon="0.44622176326811313629150390625">
        <ele>985.4000244140625</ele>
        <time>2039-05-14T12:10:11.000Z</time>
      </trkpt>
      <trkpt lat="42.47318937443196773529052734375" lon="0.44618722982704639434814453125">
        <ele>985.20001220703125</ele>
        <time>2039-05-14T12:10:12.000Z</time>
      </trkpt>
      <trkpt lat="42.473193816840648651123046875" lon="0.44613811187446117401123046875">
        <ele>983.79998779296875</ele>
        <time>2039-05-14T12:10:14.000Z</time>
      </trkpt>
      <trkpt lat="42.47319708578288555145263671875" lon="0.4461251199245452880859375">
        <ele>982.5999755859375</ele>
        <time>2039-05-14T12:10:19.000Z</time>
      </trkpt>
      <trkpt lat="42.47317596338689327239990234375" lon="0.4460894130170345306396484375">
        <ele>982.20001220703125</ele>
        <time>2039-05-14T12:10:25.000Z</time>
      </trkpt>
      <trkpt lat="42.473150901496410369873046875" lon="0.4460428096354007720947265625">
        <ele>981.79998779296875</ele>
        <time>2039-05-14T12:10:29.000Z</time>
      </trkpt>
      <trkpt lat="42.47312047518789768218994140625" lon="0.4459995590150356292724609375">
        <ele>980.5999755859375</ele>
        <time>2039-05-14T12:10:33.000Z</time>
      </trkpt>
      <trkpt lat="42.4731135182082653045654296875" lon="0.44599226675927639007568359375">
        <ele>980.20001220703125</ele>
        <time>2039-05-14T12:10:34.000Z</time>
      </trkpt>
      <trkpt lat="42.47309700585901737213134765625" lon="0.4459744133055210113525390625">
        <ele>979.5999755859375</ele>
        <time>2039-05-14T12:10:36.000Z</time>
      </trkpt>
      <trkpt lat="42.47305610217154026031494140625" lon="0.445954464375972747802734375">
        <ele>978.5999755859375</ele>
        <time>2039-05-14T12:10:40.000Z</time>
      </trkpt>
      <trkpt lat="42.473036237061023712158203125" lon="0.44593443162739276885986328125">
        <ele>977.79998779296875</ele>
        <time>2039-05-14T12:10:42.000Z</time>
      </trkpt>
      <trkpt lat="42.4730283580720424652099609375" lon="0.445922948420047760009765625">
        <ele>977.4000244140625</ele>
        <time>2039-05-14T12:10:43.000Z</time>
      </trkpt>
      <trkpt lat="42.4729968421161174774169921875" lon="0.44587776996195316314697265625">
        <ele>976.4000244140625</ele>
        <time>2039-05-14T12:10:47.000Z</time>
      </trkpt>
      <trkpt lat="42.472986280918121337890625" lon="0.4458610899746417999267578125">
        <ele>976</ele>
        <time>2039-05-14T12:10:49.000Z</time>
      </trkpt>
      <trkpt lat="42.47298468835651874542236328125" lon="0.44585798867046833038330078125">
        <ele>975.4000244140625</ele>
        <time>2039-05-14T12:10:51.000Z</time>
      </trkpt>
      <trkpt lat="42.4729847721755504608154296875" lon="0.44585488736629486083984375">
        <ele>975.4000244140625</ele>
        <time>2039-05-14T12:10:59.000Z</time>
      </trkpt>
      <trkpt lat="42.4729835987091064453125" lon="0.4458500258624553680419921875">
        <ele>975.4000244140625</ele>
        <time>2039-05-14T12:11:04.000Z</time>
      </trkpt>
      <trkpt lat="42.47296591289341449737548828125" lon="0.44580467976629734039306640625">
        <ele>975.20001220703125</ele>
        <time>2039-05-14T12:11:06.000Z</time>
      </trkpt>
      <trkpt lat="42.47291495092213153839111328125" lon="0.4456911049783229827880859375">
        <ele>974.20001220703125</ele>
        <time>2039-05-14T12:11:10.000Z</time>
      </trkpt>
      <trkpt lat="42.47288276441395282745361328125" lon="0.4456243850290775299072265625">
        <ele>973</ele>
        <time>2039-05-14T12:11:12.000Z</time>
      </trkpt>
      <trkpt lat="42.472853846848011016845703125" lon="0.4455714114010334014892578125">
        <ele>971.4000244140625</ele>
        <time>2039-05-14T12:11:14.000Z</time>
      </trkpt>
      <trkpt lat="42.47280028648674488067626953125" lon="0.44549790211021900177001953125">
        <ele>970.4000244140625</ele>
        <time>2039-05-14T12:11:17.000Z</time>
      </trkpt>
      <trkpt lat="42.47277899645268917083740234375" lon="0.44546755962073802947998046875">
        <ele>969.5999755859375</ele>
        <time>2039-05-14T12:11:18.000Z</time>
      </trkpt>
      <trkpt lat="42.472757957875728607177734375" lon="0.4454384744167327880859375">
        <ele>969</ele>
        <time>2039-05-14T12:11:19.000Z</time>
      </trkpt>
      <trkpt lat="42.47271462343633174896240234375" lon="0.44538541696965694427490234375">
        <ele>967.4000244140625</ele>
        <time>2039-05-14T12:11:21.000Z</time>
      </trkpt>
      <trkpt lat="42.4726645834743976593017578125" lon="0.4453383944928646087646484375">
        <ele>966.20001220703125</ele>
        <time>2039-05-14T12:11:23.000Z</time>
      </trkpt>
      <trkpt lat="42.472605742514133453369140625" lon="0.44531668536365032196044921875">
        <ele>965</ele>
        <time>2039-05-14T12:11:25.000Z</time>
      </trkpt>
      <trkpt lat="42.472547404468059539794921875" lon="0.44530570507049560546875">
        <ele>963.5999755859375</ele>
        <time>2039-05-14T12:11:27.000Z</time>
      </trkpt>
      <trkpt lat="42.47246836312115192413330078125" lon="0.44525952078402042388916015625">
        <ele>962.4000244140625</ele>
        <time>2039-05-14T12:11:30.000Z</time>
      </trkpt>
      <trkpt lat="42.4724292196333408355712890625" lon="0.44516966678202152252197265625">
        <ele>961.5999755859375</ele>
        <time>2039-05-14T12:11:33.000Z</time>
      </trkpt>
      <trkpt lat="42.472428716719150543212890625" lon="0.44513471424579620361328125">
        <ele>961.20001220703125</ele>
        <time>2039-05-14T12:11:34.000Z</time>
      </trkpt>
      <trkpt lat="42.47243349440395832061767578125" lon="0.44509959407150745391845703125">
        <ele>961</ele>
        <time>2039-05-14T12:11:35.000Z</time>
      </trkpt>
      <trkpt lat="42.4724433012306690216064453125" lon="0.4450611211359500885009765625">
        <ele>960.4000244140625</ele>
        <time>2039-05-14T12:11:36.000Z</time>
      </trkpt>
      <trkpt lat="42.4725029803812503814697265625" lon="0.4449990950524806976318359375">
        <ele>959.4000244140625</ele>
        <time>2039-05-14T12:11:39.000Z</time>
      </trkpt>
      <trkpt lat="42.47252485714852809906005859375" lon="0.4449784755706787109375">
        <ele>959</ele>
        <time>2039-05-14T12:11:40.000Z</time>
      </trkpt>
      <trkpt lat="42.47254849411547183990478515625" lon="0.444965399801731109619140625">
        <ele>958</ele>
        <time>2039-05-14T12:11:41.000Z</time>
      </trkpt>
      <trkpt lat="42.4725906550884246826171875" lon="0.4449390806257724761962890625">
        <ele>956.5999755859375</ele>
        <time>2039-05-14T12:11:43.000Z</time>
      </trkpt>
      <trkpt lat="42.47260448522865772247314453125" lon="0.444919131696224212646484375">
        <ele>956.20001220703125</ele>
        <time>2039-05-14T12:11:44.000Z</time>
      </trkpt>
      <trkpt lat="42.4726416170597076416015625" lon="0.44488971121609210968017578125">
        <ele>955.5999755859375</ele>
        <time>2039-05-14T12:11:46.000Z</time>
      </trkpt>
      <trkpt lat="42.47267782688140869140625" lon="0.44485132209956645965576171875">
        <ele>954.20001220703125</ele>
        <time>2039-05-14T12:11:48.000Z</time>
      </trkpt>
      <trkpt lat="42.47269568033516407012939453125" lon="0.44483824633061885833740234375">
        <ele>953.79998779296875</ele>
        <time>2039-05-14T12:11:49.000Z</time>
      </trkpt>
      <trkpt lat="42.4727668426930904388427734375" lon="0.44472274370491504669189453125">
        <ele>953.20001220703125</ele>
        <time>2039-05-14T12:11:53.000Z</time>
      </trkpt>
      <trkpt lat="42.47278503142297267913818359375" lon="0.44469038955867290496826171875">
        <ele>953</ele>
        <time>2039-05-14T12:11:54.000Z</time>
      </trkpt>
      <trkpt lat="42.4728181399405002593994140625" lon="0.4446333087980747222900390625">
        <ele>952</ele>
        <time>2039-05-14T12:11:56.000Z</time>
      </trkpt>
      <trkpt lat="42.47284973971545696258544921875" lon="0.44458083808422088623046875">
        <ele>950.79998779296875</ele>
        <time>2039-05-14T12:11:58.000Z</time>
      </trkpt>
      <trkpt lat="42.47289634309709072113037109375" lon="0.444506742060184478759765625">
        <ele>950.20001220703125</ele>
        <time>2039-05-14T12:12:01.000Z</time>
      </trkpt>
      <trkpt lat="42.47292065061628818511962890625" lon="0.44447757303714752197265625">
        <ele>950.4000244140625</ele>
        <time>2039-05-14T12:12:05.000Z</time>
      </trkpt>
      <trkpt lat="42.4729224108159542083740234375" lon="0.444470532238483428955078125">
        <ele>950.20001220703125</ele>
        <time>2039-05-14T12:12:24.000Z</time>
      </trkpt>
      <trkpt lat="42.47295283712446689605712890625" lon="0.44440825469791889190673828125">
        <ele>950</ele>
        <time>2039-05-14T12:12:29.000Z</time>
      </trkpt>
      <trkpt lat="42.47303883545100688934326171875" lon="0.4442755691707134246826171875">
        <ele>949</ele>
        <time>2039-05-14T12:12:35.000Z</time>
      </trkpt>
      <trkpt lat="42.4730949103832244873046875" lon="0.44419552199542522430419921875">
        <ele>948</ele>
        <time>2039-05-14T12:12:38.000Z</time>
      </trkpt>
      <trkpt lat="42.47311125509440898895263671875" lon="0.44416450895369052886962890625">
        <ele>947</ele>
        <time>2039-05-14T12:12:40.000Z</time>
      </trkpt>
      <trkpt lat="42.47311393730342388153076171875" lon="0.44416149146854877471923828125">
        <ele>946.5999755859375</ele>
        <time>2039-05-14T12:12:41.000Z</time>
      </trkpt>
      <trkpt lat="42.4731182120740413665771484375" lon="0.4441367648541927337646484375">
        <ele>946</ele>
        <time>2039-05-14T12:12:45.000Z</time>
      </trkpt>
      <trkpt lat="42.4731245823204517364501953125" lon="0.44409460388123989105224609375">
        <ele>945.5999755859375</ele>
        <time>2039-05-14T12:12:49.000Z</time>
      </trkpt>
      <trkpt lat="42.47312449850142002105712890625" lon="0.4440096952021121978759765625">
        <ele>944.4000244140625</ele>
        <time>2039-05-14T12:12:55.000Z</time>
      </trkpt>
      <trkpt lat="42.47312483377754688262939453125" lon="0.4439811967313289642333984375">
        <ele>944.20001220703125</ele>
        <time>2039-05-14T12:12:57.000Z</time>
      </trkpt>
      <trkpt lat="42.4731198884546756744384765625" lon="0.4439540393650531768798828125">
        <ele>943.5999755859375</ele>
        <time>2039-05-14T12:13:00.000Z</time>
      </trkpt>
      <trkpt lat="42.4731163680553436279296875" lon="0.44391422532498836517333984375">
        <ele>942.79998779296875</ele>
        <time>2039-05-14T12:13:04.000Z</time>
      </trkpt>
      <trkpt lat="42.4731138534843921661376953125" lon="0.44390198774635791778564453125">
        <ele>942.4000244140625</ele>
        <time>2039-05-14T12:13:05.000Z</time>
      </trkpt>
      <trkpt lat="42.473113350570201873779296875" lon="0.4438532888889312744140625">
        <ele>941.20001220703125</ele>
        <time>2039-05-14T12:13:10.000Z</time>
      </trkpt>
      <trkpt lat="42.4731105007231235504150390625" lon="0.443822778761386871337890625">
        <ele>940.79998779296875</ele>
        <time>2039-05-14T12:13:13.000Z</time>
      </trkpt>
      <trkpt lat="42.47311209328472614288330078125" lon="0.4437843896448612213134765625">
        <ele>940.20001220703125</ele>
        <time>2039-05-14T12:13:16.000Z</time>
      </trkpt>
      <trkpt lat="42.47311326675117015838623046875" lon="0.44375547207891941070556640625">
        <ele>939</ele>
        <time>2039-05-14T12:13:19.000Z</time>
      </trkpt>
      <trkpt lat="42.4731148593127727508544921875" lon="0.44373971410095691680908203125">
        <ele>938.5999755859375</ele>
        <time>2039-05-14T12:13:21.000Z</time>
      </trkpt>
      <trkpt lat="42.47311301529407501220703125" lon="0.44370451010763645172119140625">
        <ele>938</ele>
        <time>2039-05-14T12:13:24.000Z</time>
      </trkpt>
      <trkpt lat="42.4731017835438251495361328125" lon="0.4436413943767547607421875">
        <ele>937</ele>
        <time>2039-05-14T12:13:29.000Z</time>
      </trkpt>
      <trkpt lat="42.4730957485735416412353515625" lon="0.44362504966557025909423828125">
        <ele>936.4000244140625</ele>
        <time>2039-05-14T12:13:35.000Z</time>
      </trkpt>
      <trkpt lat="42.473059706389904022216796875" lon="0.4435037635266780853271484375">
        <ele>935.79998779296875</ele>
        <time>2039-05-14T12:13:39.000Z</time>
      </trkpt>
      <trkpt lat="42.47305895201861858367919921875" lon="0.44346101582050323486328125">
        <ele>935.5999755859375</ele>
        <time>2039-05-14T12:13:40.000Z</time>
      </trkpt>
      <trkpt lat="42.47308351099491119384765625" lon="0.44333897531032562255859375">
        <ele>934.79998779296875</ele>
        <time>2039-05-14T12:13:43.000Z</time>
      </trkpt>
      <trkpt lat="42.4731041304767131805419921875" lon="0.443267561495304107666015625">
        <ele>934</ele>
        <time>2039-05-14T12:13:45.000Z</time>
      </trkpt>
      <trkpt lat="42.47311703860759735107421875" lon="0.44323160313069820404052734375">
        <ele>933.5999755859375</ele>
        <time>2039-05-14T12:13:46.000Z</time>
      </trkpt>
      <trkpt lat="42.47315685264766216278076171875" lon="0.44316069222986698150634765625">
        <ele>932.4000244140625</ele>
        <time>2039-05-14T12:13:48.000Z</time>
      </trkpt>
      <trkpt lat="42.47320915572345256805419921875" lon="0.44310629367828369140625">
        <ele>931.4000244140625</ele>
        <time>2039-05-14T12:13:50.000Z</time>
      </trkpt>
      <trkpt lat="42.47323463670909404754638671875" lon="0.44308642856776714324951171875">
        <ele>930.79998779296875</ele>
        <time>2039-05-14T12:13:51.000Z</time>
      </trkpt>
      <trkpt lat="42.4732845090329647064208984375" lon="0.4430513083934783935546875">
        <ele>929.4000244140625</ele>
        <time>2039-05-14T12:13:53.000Z</time>
      </trkpt>
      <trkpt lat="42.4733331240713596343994140625" lon="0.44303446076810359954833984375">
        <ele>928.4000244140625</ele>
        <time>2039-05-14T12:13:55.000Z</time>
      </trkpt>
      <trkpt lat="42.47335365973412990570068359375" lon="0.4430246539413928985595703125">
        <ele>928.20001220703125</ele>
        <time>2039-05-14T12:13:56.000Z</time>
      </trkpt>
      <trkpt lat="42.47337025590240955352783203125" lon="0.44300847686827182769775390625">
        <ele>927.79998779296875</ele>
        <time>2039-05-14T12:13:57.000Z</time>
      </trkpt>
      <trkpt lat="42.4733810685575008392333984375" lon="0.442984588444232940673828125">
        <ele>927</ele>
        <time>2039-05-14T12:13:58.000Z</time>
      </trkpt>
      <trkpt lat="42.47339489869773387908935546875" lon="0.44292599894106388092041015625">
        <ele>926.4000244140625</ele>
        <time>2039-05-14T12:14:00.000Z</time>
      </trkpt>
      <trkpt lat="42.47340680100023746490478515625" lon="0.442863889038562774658203125">
        <ele>925.79998779296875</ele>
        <time>2039-05-14T12:14:02.000Z</time>
      </trkpt>
      <trkpt lat="42.47342549264430999755859375" lon="0.44280387461185455322265625">
        <ele>925.20001220703125</ele>
        <time>2039-05-14T12:14:04.000Z</time>
      </trkpt>
      <trkpt lat="42.47343915514647960662841796875" lon="0.44277168810367584228515625">
        <ele>924.5999755859375</ele>
        <time>2039-05-14T12:14:05.000Z</time>
      </trkpt>
      <trkpt lat="42.473456002771854400634765625" lon="0.4427374899387359619140625">
        <ele>924.20001220703125</ele>
        <time>2039-05-14T12:14:06.000Z</time>
      </trkpt>
      <trkpt lat="42.4734870158135890960693359375" lon="0.44266381300985813140869140625">
        <ele>923.20001220703125</ele>
        <time>2039-05-14T12:14:08.000Z</time>
      </trkpt>
      <trkpt lat="42.47350185178220272064208984375" lon="0.44259290210902690887451171875">
        <ele>922.5999755859375</ele>
        <time>2039-05-14T12:14:10.000Z</time>
      </trkpt>
      <trkpt lat="42.473497577011585235595703125" lon="0.44256892986595630645751953125">
        <ele>922.5999755859375</ele>
        <time>2039-05-14T12:14:11.000Z</time>
      </trkpt>
      <trkpt lat="42.473460696637630462646484375" lon="0.442520566284656524658203125">
        <ele>922.20001220703125</ele>
        <time>2039-05-14T12:14:14.000Z</time>
      </trkpt>
      <trkpt lat="42.473429180681705474853515625" lon="0.442501120269298553466796875">
        <ele>922</ele>
        <time>2039-05-14T12:14:16.000Z</time>
      </trkpt>
      <trkpt lat="42.4734095670282840728759765625" lon="0.44249097816646099090576171875">
        <ele>921.5999755859375</ele>
        <time>2039-05-14T12:14:17.000Z</time>
      </trkpt>
      <trkpt lat="42.47338534332811832427978515625" lon="0.44248142279684543609619140625">
        <ele>921.20001220703125</ele>
        <time>2039-05-14T12:14:18.000Z</time>
      </trkpt>
      <trkpt lat="42.47331208549439907073974609375" lon="0.44245921075344085693359375">
        <ele>920.20001220703125</ele>
        <time>2039-05-14T12:14:21.000Z</time>
      </trkpt>
      <trkpt lat="42.4732674099504947662353515625" lon="0.442456193268299102783203125">
        <ele>919.5999755859375</ele>
        <time>2039-05-14T12:14:23.000Z</time>
      </trkpt>
      <trkpt lat="42.4732482992112636566162109375" lon="0.44245493598282337188720703125">
        <ele>919.4000244140625</ele>
        <time>2039-05-14T12:14:24.000Z</time>
      </trkpt>
      <trkpt lat="42.47322876937687397003173828125" lon="0.4424504935741424560546875">
        <ele>919</ele>
        <time>2039-05-14T12:14:25.000Z</time>
      </trkpt>
      <trkpt lat="42.47318753041326999664306640625" lon="0.44242979027330875396728515625">
        <ele>917.79998779296875</ele>
        <time>2039-05-14T12:14:27.000Z</time>
      </trkpt>
      <trkpt lat="42.473115362226963043212890625" lon="0.44240414164960384368896484375">
        <ele>916.4000244140625</ele>
        <time>2039-05-14T12:14:30.000Z</time>
      </trkpt>
      <trkpt lat="42.47307144105434417724609375" lon="0.44239341281354427337646484375">
        <ele>914.79998779296875</ele>
        <time>2039-05-14T12:14:32.000Z</time>
      </trkpt>
      <trkpt lat="42.47302626259624958038330078125" lon="0.44238385744392871856689453125">
        <ele>913.79998779296875</ele>
        <time>2039-05-14T12:14:34.000Z</time>
      </trkpt>
      <trkpt lat="42.47296415269374847412109375" lon="0.44236675836145877838134765625">
        <ele>912.79998779296875</ele>
        <time>2039-05-14T12:14:36.000Z</time>
      </trkpt>
      <trkpt lat="42.47292484156787395477294921875" lon="0.44235686771571636199951171875">
        <ele>912</ele>
        <time>2039-05-14T12:14:37.000Z</time>
      </trkpt>
      <trkpt lat="42.4728791601955890655517578125" lon="0.44234613887965679168701171875">
        <ele>911.20001220703125</ele>
        <time>2039-05-14T12:14:38.000Z</time>
      </trkpt>
      <trkpt lat="42.472737841308116912841796875" lon="0.4422897286713123321533203125">
        <ele>910.20001220703125</ele>
        <time>2039-05-14T12:14:41.000Z</time>
      </trkpt>
      <trkpt lat="42.47269484214484691619873046875" lon="0.44226215220987796783447265625">
        <ele>909.79998779296875</ele>
        <time>2039-05-14T12:14:42.000Z</time>
      </trkpt>
      <trkpt lat="42.47261689044535160064697265625" lon="0.44220708310604095458984375">
        <ele>908.4000244140625</ele>
        <time>2039-05-14T12:14:44.000Z</time>
      </trkpt>
      <trkpt lat="42.4725690297782421112060546875" lon="0.4421455599367618560791015625">
        <ele>907.79998779296875</ele>
        <time>2039-05-14T12:14:46.000Z</time>
      </trkpt>
      <trkpt lat="42.47256718575954437255859375" lon="0.4421080090105533599853515625">
        <ele>907.5999755859375</ele>
        <time>2039-05-14T12:14:47.000Z</time>
      </trkpt>
      <trkpt lat="42.47259677387773990631103515625" lon="0.442021004855632781982421875">
        <ele>907.79998779296875</ele>
        <time>2039-05-14T12:14:50.000Z</time>
      </trkpt>
      <trkpt lat="42.47260767035186290740966796875" lon="0.44200398959219455718994140625">
        <ele>907.79998779296875</ele>
        <time>2039-05-14T12:14:51.000Z</time>
      </trkpt>
      <trkpt lat="42.4726930819451808929443359375" lon="0.44192545115947723388671875">
        <ele>908.20001220703125</ele>
        <time>2039-05-14T12:14:57.000Z</time>
      </trkpt>
      <trkpt lat="42.4727864563465118408203125" lon="0.4417316615581512451171875">
        <ele>908.20001220703125</ele>
        <time>2039-05-14T12:15:04.000Z</time>
      </trkpt>
      <trkpt lat="42.47287890873849391937255859375" lon="0.4415179230272769927978515625">
        <ele>908.5999755859375</ele>
        <time>2039-05-14T12:15:10.000Z</time>
      </trkpt>
      <trkpt lat="42.4729663319885730743408203125" lon="0.441247858107089996337890625">
        <ele>908.5999755859375</ele>
        <time>2039-05-14T12:15:17.000Z</time>
      </trkpt>
      <trkpt lat="42.47305006720125675201416015625" lon="0.4409865103662014007568359375">
        <ele>908.4000244140625</ele>
        <time>2039-05-14T12:15:24.000Z</time>
      </trkpt>
      <trkpt lat="42.47314226813614368438720703125" lon="0.4407970793545246124267578125">
        <ele>908.4000244140625</ele>
        <time>2039-05-14T12:15:30.000Z</time>
      </trkpt>
      <trkpt lat="42.4732013605535030364990234375" lon="0.4407129250466823577880859375">
        <ele>908.79998779296875</ele>
        <time>2039-05-14T12:15:34.000Z</time>
      </trkpt>
      <trkpt lat="42.4732174538075923919677734375" lon="0.44067093171179294586181640625">
        <ele>908.79998779296875</ele>
        <time>2039-05-14T12:15:36.000Z</time>
      </trkpt>
      <trkpt lat="42.4733096547424793243408203125" lon="0.4404960013926029205322265625">
        <ele>909.4000244140625</ele>
        <time>2039-05-14T12:15:43.000Z</time>
      </trkpt>
      <trkpt lat="42.47340596280992031097412109375" lon="0.44029156677424907684326171875">
        <ele>909.20001220703125</ele>
        <time>2039-05-14T12:15:50.000Z</time>
      </trkpt>
      <trkpt lat="42.4734891951084136962890625" lon="0.44007648713886737823486328125">
        <ele>908.20001220703125</ele>
        <time>2039-05-14T12:15:55.000Z</time>
      </trkpt>
      <trkpt lat="42.473510988056659698486328125" lon="0.4400309734046459197998046875">
        <ele>908</ele>
        <time>2039-05-14T12:15:56.000Z</time>
      </trkpt>
      <trkpt lat="42.47363445349037647247314453125" lon="0.439855791628360748291015625">
        <ele>907.5999755859375</ele>
        <time>2039-05-14T12:16:01.000Z</time>
      </trkpt>
      <trkpt lat="42.47375448234379291534423828125" lon="0.43969443999230861663818359375">
        <ele>907.5999755859375</ele>
        <time>2039-05-14T12:16:07.000Z</time>
      </trkpt>
      <trkpt lat="42.47381349094212055206298828125" lon="0.4395247064530849456787109375">
        <ele>908.79998779296875</ele>
        <time>2039-05-14T12:16:13.000Z</time>
      </trkpt>
      <trkpt lat="42.47377476654946804046630859375" lon="0.4393584094941616058349609375">
        <ele>908.5999755859375</ele>
        <time>2039-05-14T12:16:18.000Z</time>
      </trkpt>
      <trkpt lat="42.4736466072499752044677734375" lon="0.4392450861632823944091796875">
        <ele>907.79998779296875</ele>
        <time>2039-05-14T12:16:23.000Z</time>
      </trkpt>
      <trkpt lat="42.473529092967510223388671875" lon="0.439125560224056243896484375">
        <ele>907.5999755859375</ele>
        <time>2039-05-14T12:16:28.000Z</time>
      </trkpt>
      <trkpt lat="42.473515681922435760498046875" lon="0.4390251450240612030029296875">
        <ele>907.5999755859375</ele>
        <time>2039-05-14T12:16:31.000Z</time>
      </trkpt>
      <trkpt lat="42.47353085316717624664306640625" lon="0.43894962407648563385009765625">
        <ele>907.4000244140625</ele>
        <time>2039-05-14T12:16:33.000Z</time>
      </trkpt>
      <trkpt lat="42.47357904911041259765625" lon="0.43875969015061855316162109375">
        <ele>906.4000244140625</ele>
        <time>2039-05-14T12:16:37.000Z</time>
      </trkpt>
      <trkpt lat="42.47359287925064563751220703125" lon="0.4386945627629756927490234375">
        <ele>905.5999755859375</ele>
        <time>2039-05-14T12:16:38.000Z</time>
      </trkpt>
      <trkpt lat="42.47360922396183013916015625" lon="0.43862608261406421661376953125">
        <ele>905.20001220703125</ele>
        <time>2039-05-14T12:16:39.000Z</time>
      </trkpt>
      <trkpt lat="42.47362992726266384124755859375" lon="0.438560955226421356201171875">
        <ele>905</ele>
        <time>2039-05-14T12:16:40.000Z</time>
      </trkpt>
      <trkpt lat="42.47370486147701740264892578125" lon="0.4383934848010540008544921875">
        <ele>904.4000244140625</ele>
        <time>2039-05-14T12:16:43.000Z</time>
      </trkpt>
      <trkpt lat="42.4737574160099029541015625" lon="0.43829315342009067535400390625">
        <ele>904.79998779296875</ele>
        <time>2039-05-14T12:16:45.000Z</time>
      </trkpt>
      <trkpt lat="42.4738279916346073150634765625" lon="0.4382208175957202911376953125">
        <ele>904.5999755859375</ele>
        <time>2039-05-14T12:16:47.000Z</time>
      </trkpt>
      <trkpt lat="42.4739520438015460968017578125" lon="0.43814747594296932220458984375">
        <ele>904.5999755859375</ele>
        <time>2039-05-14T12:16:50.000Z</time>
      </trkpt>
      <trkpt lat="42.4740325100719928741455078125" lon="0.438102968037128448486328125">
        <ele>903.79998779296875</ele>
        <time>2039-05-14T12:16:52.000Z</time>
      </trkpt>
      <trkpt lat="42.4740680493414402008056640625" lon="0.4380739666521549224853515625">
        <ele>903.5999755859375</ele>
        <time>2039-05-14T12:16:53.000Z</time>
      </trkpt>
      <trkpt lat="42.47415329329669475555419921875" lon="0.43797447346150875091552734375">
        <ele>902.5999755859375</ele>
        <time>2039-05-14T12:16:56.000Z</time>
      </trkpt>
      <trkpt lat="42.47417491860687732696533203125" lon="0.4379381798207759857177734375">
        <ele>902.4000244140625</ele>
        <time>2039-05-14T12:16:57.000Z</time>
      </trkpt>
      <trkpt lat="42.47419570572674274444580078125" lon="0.43790171854197978973388671875">
        <ele>902.4000244140625</ele>
        <time>2039-05-14T12:16:58.000Z</time>
      </trkpt>
      <trkpt lat="42.47427835129201412200927734375" lon="0.437702648341655731201171875">
        <ele>901.79998779296875</ele>
        <time>2039-05-14T12:17:03.000Z</time>
      </trkpt>
      <trkpt lat="42.47431137599050998687744140625" lon="0.43762008659541606903076171875">
        <ele>901.4000244140625</ele>
        <time>2039-05-14T12:17:05.000Z</time>
      </trkpt>
      <trkpt lat="42.474362589418888092041015625" lon="0.4375586472451686859130859375">
        <ele>900.79998779296875</ele>
        <time>2039-05-14T12:17:07.000Z</time>
      </trkpt>
      <trkpt lat="42.47442754916846752166748046875" lon="0.43752126395702362060546875">
        <ele>900</ele>
        <time>2039-05-14T12:17:09.000Z</time>
      </trkpt>
      <trkpt lat="42.4744616635143756866455078125" lon="0.4375070147216320037841796875">
        <ele>899.20001220703125</ele>
        <time>2039-05-14T12:17:10.000Z</time>
      </trkpt>
      <trkpt lat="42.47452695854008197784423828125" lon="0.4374875687062740325927734375">
        <ele>897.4000244140625</ele>
        <time>2039-05-14T12:17:12.000Z</time>
      </trkpt>
      <trkpt lat="42.4745857156813144683837890625" lon="0.437470637261867523193359375">
        <ele>896.20001220703125</ele>
        <time>2039-05-14T12:17:14.000Z</time>
      </trkpt>
      <trkpt lat="42.4746410362422466278076171875" lon="0.43746032752096652984619140625">
        <ele>895</ele>
        <time>2039-05-14T12:17:16.000Z</time>
      </trkpt>
      <trkpt lat="42.4747335724532604217529296875" lon="0.43748748488724231719970703125">
        <ele>893.79998779296875</ele>
        <time>2039-05-14T12:17:20.000Z</time>
      </trkpt>
      <trkpt lat="42.47475511394441127777099609375" lon="0.437490083277225494384765625">
        <ele>893.79998779296875</ele>
        <time>2039-05-14T12:17:21.000Z</time>
      </trkpt>
      <trkpt lat="42.474815212190151214599609375" lon="0.4374775104224681854248046875">
        <ele>892.79998779296875</ele>
        <time>2039-05-14T12:17:24.000Z</time>
      </trkpt>
      <trkpt lat="42.47482719831168651580810546875" lon="0.43746535666286945343017578125">
        <ele>892.4000244140625</ele>
        <time>2039-05-14T12:17:25.000Z</time>
      </trkpt>
      <trkpt lat="42.474833987653255462646484375" lon="0.43744708411395549774169921875">
        <ele>892</ele>
        <time>2039-05-14T12:17:26.000Z</time>
      </trkpt>
      <trkpt lat="42.47483725659549236297607421875" lon="0.43742696754634380340576171875">
        <ele>891.5999755859375</ele>
        <time>2039-05-14T12:17:27.000Z</time>
      </trkpt>
      <trkpt lat="42.47483633458614349365234375" lon="0.43738254345953464508056640625">
        <ele>891.20001220703125</ele>
        <time>2039-05-14T12:17:29.000Z</time>
      </trkpt>
      <trkpt lat="42.47480976395308971405029296875" lon="0.43731565587222576141357421875">
        <ele>890.79998779296875</ele>
        <time>2039-05-14T12:17:32.000Z</time>
      </trkpt>
      <trkpt lat="42.474795766174793243408203125" lon="0.4372984729707241058349609375">
        <ele>890.4000244140625</ele>
        <time>2039-05-14T12:17:33.000Z</time>
      </trkpt>
      <trkpt lat="42.47472099959850311279296875" lon="0.43722161091864109039306640625">
        <ele>889.20001220703125</ele>
        <time>2039-05-14T12:17:37.000Z</time>
      </trkpt>
      <trkpt lat="42.4746997095644474029541015625" lon="0.437162183225154876708984375">
        <ele>888.20001220703125</ele>
        <time>2039-05-14T12:17:39.000Z</time>
      </trkpt>
      <trkpt lat="42.474669031798839569091796875" lon="0.43705112300813198089599609375">
        <ele>887.4000244140625</ele>
        <time>2039-05-14T12:17:42.000Z</time>
      </trkpt>
      <trkpt lat="42.47468051500618457794189453125" lon="0.43690863065421581268310546875">
        <ele>886.20001220703125</ele>
        <time>2039-05-14T12:17:45.000Z</time>
      </trkpt>
      <trkpt lat="42.47469962574541568756103515625" lon="0.43684995733201503753662109375">
        <ele>886</ele>
        <time>2039-05-14T12:17:46.000Z</time>
      </trkpt>
      <trkpt lat="42.4747766554355621337890625" lon="0.4366829060018062591552734375">
        <ele>885</ele>
        <time>2039-05-14T12:17:49.000Z</time>
      </trkpt>
      <trkpt lat="42.47482066042721271514892578125" lon="0.43657771311700344085693359375">
        <ele>884.4000244140625</ele>
        <time>2039-05-14T12:17:51.000Z</time>
      </trkpt>
      <trkpt lat="42.4748398549854755401611328125" lon="0.4365273378789424896240234375">
        <ele>883.5999755859375</ele>
        <time>2039-05-14T12:17:52.000Z</time>
      </trkpt>
      <trkpt lat="42.474890984594821929931640625" lon="0.43642960488796234130859375">
        <ele>882.20001220703125</ele>
        <time>2039-05-14T12:17:54.000Z</time>
      </trkpt>
      <trkpt lat="42.474944293498992919921875" lon="0.436317287385463714599609375">
        <ele>880.20001220703125</ele>
        <time>2039-05-14T12:17:56.000Z</time>
      </trkpt>
      <trkpt lat="42.47496918775141239166259765625" lon="0.43626054190099239349365234375">
        <ele>880</ele>
        <time>2039-05-14T12:17:57.000Z</time>
      </trkpt>
      <trkpt lat="42.47505300678312778472900390625" lon="0.4360445402562618255615234375">
        <ele>878.79998779296875</ele>
        <time>2039-05-14T12:18:01.000Z</time>
      </trkpt>
      <trkpt lat="42.47509516775608062744140625" lon="0.43593465350568294525146484375">
        <ele>877.5999755859375</ele>
        <time>2039-05-14T12:18:03.000Z</time>
      </trkpt>
      <trkpt lat="42.47511670924723148345947265625" lon="0.4358804225921630859375">
        <ele>877</ele>
        <time>2039-05-14T12:18:04.000Z</time>
      </trkpt>
      <trkpt lat="42.475159205496311187744140625" lon="0.43577740900218486785888671875">
        <ele>876.20001220703125</ele>
        <time>2039-05-14T12:18:06.000Z</time>
      </trkpt>
      <trkpt lat="42.475197426974773406982421875" lon="0.435675568878650665283203125">
        <ele>874.5999755859375</ele>
        <time>2039-05-14T12:18:08.000Z</time>
      </trkpt>
      <trkpt lat="42.47525802813470363616943359375" lon="0.43552326969802379608154296875">
        <ele>873.20001220703125</ele>
        <time>2039-05-14T12:18:11.000Z</time>
      </trkpt>
      <trkpt lat="42.47529457323253154754638671875" lon="0.43542620725929737091064453125">
        <ele>872</ele>
        <time>2039-05-14T12:18:13.000Z</time>
      </trkpt>
      <trkpt lat="42.4753283523023128509521484375" lon="0.43535278178751468658447265625">
        <ele>870.20001220703125</ele>
        <time>2039-05-14T12:18:15.000Z</time>
      </trkpt>
      <trkpt lat="42.4753598682582378387451171875" lon="0.4352889955043792724609375">
        <ele>869</ele>
        <time>2039-05-14T12:18:17.000Z</time>
      </trkpt>
      <trkpt lat="42.4754473753273487091064453125" lon="0.435083806514739990234375">
        <ele>867.4000244140625</ele>
        <time>2039-05-14T12:18:23.000Z</time>
      </trkpt>
      <trkpt lat="42.475458271801471710205078125" lon="0.435041226446628570556640625">
        <ele>867</ele>
        <time>2039-05-14T12:18:24.000Z</time>
      </trkpt>
      <trkpt lat="42.4754731915891170501708984375" lon="0.43494592420756816864013671875">
        <ele>866.20001220703125</ele>
        <time>2039-05-14T12:18:26.000Z</time>
      </trkpt>
      <trkpt lat="42.475466988980770111083984375" lon="0.43473235331475734710693359375">
        <ele>865.4000244140625</ele>
        <time>2039-05-14T12:18:30.000Z</time>
      </trkpt>
      <trkpt lat="42.4753675796091556549072265625" lon="0.43451123870909214019775390625">
        <ele>865.79998779296875</ele>
        <time>2039-05-14T12:18:35.000Z</time>
      </trkpt>
      <trkpt lat="42.4753323756158351898193359375" lon="0.43427067808806896209716796875">
        <ele>865.20001220703125</ele>
        <time>2039-05-14T12:18:40.000Z</time>
      </trkpt>
      <trkpt lat="42.47531644999980926513671875" lon="0.43417244218289852142333984375">
        <ele>865.5999755859375</ele>
        <time>2039-05-14T12:18:44.000Z</time>
      </trkpt>
      <trkpt lat="42.4753099121153354644775390625" lon="0.43407202698290348052978515625">
        <ele>866</ele>
        <time>2039-05-14T12:18:50.000Z</time>
      </trkpt>
      <trkpt lat="42.47531116940081119537353515625" lon="0.43406330980360507965087890625">
        <ele>865.79998779296875</ele>
        <time>2039-05-14T12:19:05.000Z</time>
      </trkpt>
      <trkpt lat="42.47531116940081119537353515625" lon="0.43406364507973194122314453125">
        <ele>865.5999755859375</ele>
        <time>2039-05-14T12:19:11.000Z</time>
      </trkpt>
      <trkpt lat="42.47531267814338207244873046875" lon="0.43406297452747821807861328125">
        <ele>865.5999755859375</ele>
        <time>2039-05-14T12:19:20.000Z</time>
      </trkpt>
      <trkpt lat="42.4753139354288578033447265625" lon="0.4340613819658756256103515625">
        <ele>865.5999755859375</ele>
        <time>2039-05-14T12:19:52.000Z</time>
      </trkpt>
      <trkpt lat="42.47531284578144550323486328125" lon="0.43397647328674793243408203125">
        <ele>865.5999755859375</ele>
        <time>2039-05-14T12:19:58.000Z</time>
      </trkpt>
      <trkpt lat="42.475312761962413787841796875" lon="0.4337386786937713623046875">
        <ele>864.79998779296875</ele>
        <time>2039-05-14T12:20:03.000Z</time>
      </trkpt>
      <trkpt lat="42.4753340519964694976806640625" lon="0.43346199207007884979248046875">
        <ele>863.5999755859375</ele>
        <time>2039-05-14T12:20:07.000Z</time>
      </trkpt>
      <trkpt lat="42.47534486465156078338623046875" lon="0.433390326797962188720703125">
        <ele>863.20001220703125</ele>
        <time>2039-05-14T12:20:08.000Z</time>
      </trkpt>
      <trkpt lat="42.47539599426090717315673828125" lon="0.43307206593453884124755859375">
        <ele>862.79998779296875</ele>
        <time>2039-05-14T12:20:12.000Z</time>
      </trkpt>
      <trkpt lat="42.4754145182669162750244140625" lon="0.4327891767024993896484375">
        <ele>861.4000244140625</ele>
        <time>2039-05-14T12:20:15.000Z</time>
      </trkpt>
      <trkpt lat="42.47545567341148853302001953125" lon="0.4325130768120288848876953125">
        <ele>860.5999755859375</ele>
        <time>2039-05-14T12:20:18.000Z</time>
      </trkpt>
      <trkpt lat="42.4754775501787662506103515625" lon="0.43242582120001316070556640625">
        <ele>860.4000244140625</ele>
        <time>2039-05-14T12:20:19.000Z</time>
      </trkpt>
      <trkpt lat="42.47552624903619289398193359375" lon="0.4322656430304050445556640625">
        <ele>859.5999755859375</ele>
        <time>2039-05-14T12:20:21.000Z</time>
      </trkpt>
      <trkpt lat="42.4755385704338550567626953125" lon="0.43218559585511684417724609375">
        <ele>859.20001220703125</ele>
        <time>2039-05-14T12:20:22.000Z</time>
      </trkpt>
      <trkpt lat="42.4755060486495494842529296875" lon="0.43192877434194087982177734375">
        <ele>858</ele>
        <time>2039-05-14T12:20:25.000Z</time>
      </trkpt>
      <trkpt lat="42.47545131482183933258056640625" lon="0.4316215775907039642333984375">
        <ele>856.79998779296875</ele>
        <time>2039-05-14T12:20:28.000Z</time>
      </trkpt>
      <trkpt lat="42.47542281635105609893798828125" lon="0.43140104971826076507568359375">
        <ele>855.5999755859375</ele>
        <time>2039-05-14T12:20:30.000Z</time>
      </trkpt>
      <trkpt lat="42.47539649717509746551513671875" lon="0.43117674998939037322998046875">
        <ele>854</ele>
        <time>2039-05-14T12:20:32.000Z</time>
      </trkpt>
      <trkpt lat="42.4753826670348644256591796875" lon="0.430969297885894775390625">
        <ele>852.4000244140625</ele>
        <time>2039-05-14T12:20:34.000Z</time>
      </trkpt>
      <trkpt lat="42.47539046220481395721435546875" lon="0.43087366037070751190185546875">
        <ele>851.79998779296875</ele>
        <time>2039-05-14T12:20:35.000Z</time>
      </trkpt>
      <trkpt lat="42.4754426814615726470947265625" lon="0.43069378472864627838134765625">
        <ele>850.79998779296875</ele>
        <time>2039-05-14T12:20:37.000Z</time>
      </trkpt>
      <trkpt lat="42.4754772149026393890380859375" lon="0.43060376308858394622802734375">
        <ele>850</ele>
        <time>2039-05-14T12:20:38.000Z</time>
      </trkpt>
      <trkpt lat="42.475501857697963714599609375" lon="0.43051139451563358306884765625">
        <ele>848.4000244140625</ele>
        <time>2039-05-14T12:20:39.000Z</time>
      </trkpt>
      <trkpt lat="42.4755062162876129150390625" lon="0.43030754663050174713134765625">
        <ele>847.4000244140625</ele>
        <time>2039-05-14T12:20:41.000Z</time>
      </trkpt>
      <trkpt lat="42.47541711665689945220947265625" lon="0.4300068877637386322021484375">
        <ele>846.4000244140625</ele>
        <time>2039-05-14T12:20:44.000Z</time>
      </trkpt>
      <trkpt lat="42.47530915774405002593994140625" lon="0.4298038780689239501953125">
        <ele>845</ele>
        <time>2039-05-14T12:20:46.000Z</time>
      </trkpt>
      <trkpt lat="42.4752505682408809661865234375" lon="0.4296984337270259857177734375">
        <ele>843.4000244140625</ele>
        <time>2039-05-14T12:20:47.000Z</time>
      </trkpt>
      <trkpt lat="42.4751922301948070526123046875" lon="0.42959458194673061370849609375">
        <ele>842.20001220703125</ele>
        <time>2039-05-14T12:20:48.000Z</time>
      </trkpt>
      <trkpt lat="42.4750859476625919342041015625" lon="0.4293854534626007080078125">
        <ele>840.79998779296875</ele>
        <time>2039-05-14T12:20:50.000Z</time>
      </trkpt>
      <trkpt lat="42.47498963959515094757080078125" lon="0.42917548678815364837646484375">
        <ele>839.20001220703125</ele>
        <time>2039-05-14T12:20:52.000Z</time>
      </trkpt>
      <trkpt lat="42.47494521550834178924560546875" lon="0.42907540686428546905517578125">
        <ele>838.5999755859375</ele>
        <time>2039-05-14T12:20:53.000Z</time>
      </trkpt>
      <trkpt lat="42.47490464709699153900146484375" lon="0.428983457386493682861328125">
        <ele>838</ele>
        <time>2039-05-14T12:20:54.000Z</time>
      </trkpt>
      <trkpt lat="42.4748603068292140960693359375" lon="0.42890257202088832855224609375">
        <ele>837</ele>
        <time>2039-05-14T12:20:55.000Z</time>
      </trkpt>
      <trkpt lat="42.47480507008731365203857421875" lon="0.428830571472644805908203125">
        <ele>836.4000244140625</ele>
        <time>2039-05-14T12:20:56.000Z</time>
      </trkpt>
      <trkpt lat="42.47467196546494960784912109375" lon="0.42872085236012935638427734375">
        <ele>835.20001220703125</ele>
        <time>2039-05-14T12:20:58.000Z</time>
      </trkpt>
      <trkpt lat="42.47461195103824138641357421875" lon="0.428666286170482635498046875">
        <ele>834.5999755859375</ele>
        <time>2039-05-14T12:20:59.000Z</time>
      </trkpt>
      <trkpt lat="42.47456534765660762786865234375" lon="0.4286049306392669677734375">
        <ele>834.4000244140625</ele>
        <time>2039-05-14T12:21:00.000Z</time>
      </trkpt>
      <trkpt lat="42.4745270423591136932373046875" lon="0.42846034280955791473388671875">
        <ele>833.4000244140625</ele>
        <time>2039-05-14T12:21:02.000Z</time>
      </trkpt>
      <trkpt lat="42.47453726828098297119140625" lon="0.42839127592742443084716796875">
        <ele>832.5999755859375</ele>
        <time>2039-05-14T12:21:03.000Z</time>
      </trkpt>
      <trkpt lat="42.47456283308565616607666015625" lon="0.42833427898585796356201171875">
        <ele>832</ele>
        <time>2039-05-14T12:21:04.000Z</time>
      </trkpt>
      <trkpt lat="42.4746524356305599212646484375" lon="0.42827057652175426483154296875">
        <ele>831.20001220703125</ele>
        <time>2039-05-14T12:21:06.000Z</time>
      </trkpt>
      <trkpt lat="42.4747141264379024505615234375" lon="0.42826722376048564910888671875">
        <ele>830.5999755859375</ele>
        <time>2039-05-14T12:21:07.000Z</time>
      </trkpt>
      <trkpt lat="42.4748442135751247406005859375" lon="0.4283013381063938140869140625">
        <ele>829.20001220703125</ele>
        <time>2039-05-14T12:21:09.000Z</time>
      </trkpt>
      <trkpt lat="42.474965751171112060546875" lon="0.42834718711674213409423828125">
        <ele>828</ele>
        <time>2039-05-14T12:21:11.000Z</time>
      </trkpt>
      <trkpt lat="42.47502836398780345916748046875" lon="0.4283774457871913909912109375">
        <ele>827.79998779296875</ele>
        <time>2039-05-14T12:21:12.000Z</time>
      </trkpt>
      <trkpt lat="42.4751563556492328643798828125" lon="0.4284723289310932159423828125">
        <ele>826.5999755859375</ele>
        <time>2039-05-14T12:21:14.000Z</time>
      </trkpt>
      <trkpt lat="42.4752723611891269683837890625" lon="0.42862714268267154693603515625">
        <ele>825.4000244140625</ele>
        <time>2039-05-14T12:21:16.000Z</time>
      </trkpt>
      <trkpt lat="42.47532592155039310455322265625" lon="0.42871900834143161773681640625">
        <ele>824.79998779296875</ele>
        <time>2039-05-14T12:21:17.000Z</time>
      </trkpt>
      <trkpt lat="42.475378476083278656005859375" lon="0.42880970053374767303466796875">
        <ele>824.20001220703125</ele>
        <time>2039-05-14T12:21:18.000Z</time>
      </trkpt>
      <trkpt lat="42.4754741974174976348876953125" lon="0.42898152954876422882080078125">
        <ele>823</ele>
        <time>2039-05-14T12:21:20.000Z</time>
      </trkpt>
      <trkpt lat="42.475554160773754119873046875" lon="0.42912050150334835052490234375">
        <ele>822</ele>
        <time>2039-05-14T12:21:22.000Z</time>
      </trkpt>
      <trkpt lat="42.475589029490947723388671875" lon="0.42917716316878795623779296875">
        <ele>821.5999755859375</ele>
        <time>2039-05-14T12:21:23.000Z</time>
      </trkpt>
      <trkpt lat="42.47571148909628391265869140625" lon="0.42937950231134891510009765625">
        <ele>820.5999755859375</ele>
        <time>2039-05-14T12:21:27.000Z</time>
      </trkpt>
      <trkpt lat="42.47578223235905170440673828125" lon="0.429429374635219573974609375">
        <ele>819.4000244140625</ele>
        <time>2039-05-14T12:21:29.000Z</time>
      </trkpt>
      <trkpt lat="42.47581693343818187713623046875" lon="0.42943482287228107452392578125">
        <ele>818.79998779296875</ele>
        <time>2039-05-14T12:21:30.000Z</time>
      </trkpt>
      <trkpt lat="42.47584752738475799560546875" lon="0.42942996136844158172607421875">
        <ele>818.4000244140625</ele>
        <time>2039-05-14T12:21:31.000Z</time>
      </trkpt>
      <trkpt lat="42.4759010039269924163818359375" lon="0.42938050813972949981689453125">
        <ele>817.5999755859375</ele>
        <time>2039-05-14T12:21:34.000Z</time>
      </trkpt>
      <trkpt lat="42.47590745799243450164794921875" lon="0.4293537698686122894287109375">
        <ele>817.4000244140625</ele>
        <time>2039-05-14T12:21:35.000Z</time>
      </trkpt>
      <trkpt lat="42.475884743034839630126953125" lon="0.429292581975460052490234375">
        <ele>817.20001220703125</ele>
        <time>2039-05-14T12:21:37.000Z</time>
      </trkpt>
      <trkpt lat="42.4758436717092990875244140625" lon="0.42922980152070522308349609375">
        <ele>817</ele>
        <time>2039-05-14T12:21:39.000Z</time>
      </trkpt>
      <trkpt lat="42.4756938032805919647216796875" lon="0.42901405133306980133056640625">
        <ele>816.79998779296875</ele>
        <time>2039-05-14T12:21:46.000Z</time>
      </trkpt>
      <trkpt lat="42.47553932480514049530029296875" lon="0.42872990481555461883544921875">
        <ele>816.4000244140625</ele>
        <time>2039-05-14T12:21:53.000Z</time>
      </trkpt>
      <trkpt lat="42.47536607086658477783203125" lon="0.42838591150939464569091796875">
        <ele>815</ele>
        <time>2039-05-14T12:21:59.000Z</time>
      </trkpt>
      <trkpt lat="42.47529692016541957855224609375" lon="0.42826638557016849517822265625">
        <ele>814</ele>
        <time>2039-05-14T12:22:01.000Z</time>
      </trkpt>
      <trkpt lat="42.4751744605600833892822265625" lon="0.42808550409972667694091796875">
        <ele>813</ele>
        <time>2039-05-14T12:22:04.000Z</time>
      </trkpt>
      <trkpt lat="42.47508200816810131072998046875" lon="0.4279720969498157501220703125">
        <ele>812.79998779296875</ele>
        <time>2039-05-14T12:22:06.000Z</time>
      </trkpt>
      <trkpt lat="42.47493163682520389556884765625" lon="0.4278296045958995819091796875">
        <ele>812</ele>
        <time>2039-05-14T12:22:09.000Z</time>
      </trkpt>
      <trkpt lat="42.47477673925459384918212890625" lon="0.427720136940479278564453125">
        <ele>812</ele>
        <time>2039-05-14T12:22:12.000Z</time>
      </trkpt>
      <trkpt lat="42.47445286251604557037353515625" lon="0.42755174450576305389404296875">
        <ele>811.5999755859375</ele>
        <time>2039-05-14T12:22:18.000Z</time>
      </trkpt>
      <trkpt lat="42.474342472851276397705078125" lon="0.42745753191411495208740234375">
        <ele>811.4000244140625</ele>
        <time>2039-05-14T12:22:20.000Z</time>
      </trkpt>
      <trkpt lat="42.47423895634710788726806640625" lon="0.42733213864266872406005859375">
        <ele>811.20001220703125</ele>
        <time>2039-05-14T12:22:22.000Z</time>
      </trkpt>
      <trkpt lat="42.4741887487471103668212890625" lon="0.4272639937698841094970703125">
        <ele>810.79998779296875</ele>
        <time>2039-05-14T12:22:23.000Z</time>
      </trkpt>
      <trkpt lat="42.47392882592976093292236328125" lon="0.426875911653041839599609375">
        <ele>809.5999755859375</ele>
        <time>2039-05-14T12:22:28.000Z</time>
      </trkpt>
      <trkpt lat="42.47387744486331939697265625" lon="0.42678438127040863037109375">
        <ele>808.79998779296875</ele>
        <time>2039-05-14T12:22:29.000Z</time>
      </trkpt>
      <trkpt lat="42.47382891364395618438720703125" lon="0.4266866482794284820556640625">
        <ele>808.4000244140625</ele>
        <time>2039-05-14T12:22:30.000Z</time>
      </trkpt>
      <trkpt lat="42.47378516010940074920654296875" lon="0.42658061720430850982666015625">
        <ele>807.5999755859375</ele>
        <time>2039-05-14T12:22:31.000Z</time>
      </trkpt>
      <trkpt lat="42.47374727390706539154052734375" lon="0.4264724068343639373779296875">
        <ele>807.20001220703125</ele>
        <time>2039-05-14T12:22:32.000Z</time>
      </trkpt>
      <trkpt lat="42.4737119860947132110595703125" lon="0.4263634420931339263916015625">
        <ele>806.79998779296875</ele>
        <time>2039-05-14T12:22:33.000Z</time>
      </trkpt>
      <trkpt lat="42.4736254848539829254150390625" lon="0.425925068557262420654296875">
        <ele>806.4000244140625</ele>
        <time>2039-05-14T12:22:37.000Z</time>
      </trkpt>
      <trkpt lat="42.47358969412744045257568359375" lon="0.42542844079434871673583984375">
        <ele>806.20001220703125</ele>
        <time>2039-05-14T12:22:42.000Z</time>
      </trkpt>
      <trkpt lat="42.4735594354569911956787109375" lon="0.4250719584524631500244140625">
        <ele>805.79998779296875</ele>
        <time>2039-05-14T12:22:46.000Z</time>
      </trkpt>
      <trkpt lat="42.473564632236957550048828125" lon="0.42490121908485889434814453125">
        <ele>805.5999755859375</ele>
        <time>2039-05-14T12:22:48.000Z</time>
      </trkpt>
      <trkpt lat="42.47358583845198154449462890625" lon="0.4247403703629970550537109375">
        <ele>805.5999755859375</ele>
        <time>2039-05-14T12:22:50.000Z</time>
      </trkpt>
      <trkpt lat="42.47362188063561916351318359375" lon="0.4245177470147609710693359375">
        <ele>805.79998779296875</ele>
        <time>2039-05-14T12:22:53.000Z</time>
      </trkpt>
      <trkpt lat="42.47364467941224575042724609375" lon="0.424091108143329620361328125">
        <ele>805.5999755859375</ele>
        <time>2039-05-14T12:22:59.000Z</time>
      </trkpt>
      <trkpt lat="42.47364300303161144256591796875" lon="0.42402145452797412872314453125">
        <ele>805.5999755859375</ele>
        <time>2039-05-14T12:23:00.000Z</time>
      </trkpt>
      <trkpt lat="42.4736616946756839752197265625" lon="0.4235471226274967193603515625">
        <ele>805.20001220703125</ele>
        <time>2039-05-14T12:23:07.000Z</time>
      </trkpt>
      <trkpt lat="42.473720200359821319580078125" lon="0.42305552400648593902587890625">
        <ele>804.5999755859375</ele>
        <time>2039-05-14T12:23:15.000Z</time>
      </trkpt>
      <trkpt lat="42.4737346172332763671875" lon="0.4229898937046527862548828125">
        <ele>804.4000244140625</ele>
        <time>2039-05-14T12:23:16.000Z</time>
      </trkpt>
      <trkpt lat="42.4738273210823535919189453125" lon="0.42263961397111415863037109375">
        <ele>803.4000244140625</ele>
        <time>2039-05-14T12:23:21.000Z</time>
      </trkpt>
      <trkpt lat="42.47384919784963130950927734375" lon="0.42256367392838001251220703125">
        <ele>803.20001220703125</ele>
        <time>2039-05-14T12:23:22.000Z</time>
      </trkpt>
      <trkpt lat="42.47392027638852596282958984375" lon="0.42231976054608821868896484375">
        <ele>802.4000244140625</ele>
        <time>2039-05-14T12:23:25.000Z</time>
      </trkpt>
      <trkpt lat="42.4739929474890232086181640625" lon="0.42195782996714115142822265625">
        <ele>801</ele>
        <time>2039-05-14T12:23:29.000Z</time>
      </trkpt>
      <trkpt lat="42.47399956919252872467041015625" lon="0.42166815139353275299072265625">
        <ele>800</ele>
        <time>2039-05-14T12:23:32.000Z</time>
      </trkpt>
      <trkpt lat="42.4739906005561351776123046875" lon="0.42157259769737720489501953125">
        <ele>799.5999755859375</ele>
        <time>2039-05-14T12:23:33.000Z</time>
      </trkpt>
      <trkpt lat="42.47397392056882381439208984375" lon="0.42147637344896793365478515625">
        <ele>799.4000244140625</ele>
        <time>2039-05-14T12:23:34.000Z</time>
      </trkpt>
      <trkpt lat="42.47391776181757450103759765625" lon="0.42129012756049633026123046875">
        <ele>798.79998779296875</ele>
        <time>2039-05-14T12:23:36.000Z</time>
      </trkpt>
      <trkpt lat="42.4738373793661594390869140625" lon="0.42111511342227458953857421875">
        <ele>798.4000244140625</ele>
        <time>2039-05-14T12:23:38.000Z</time>
      </trkpt>
      <trkpt lat="42.47367552481591701507568359375" lon="0.4208732955157756805419921875">
        <ele>797.79998779296875</ele>
        <time>2039-05-14T12:23:41.000Z</time>
      </trkpt>
      <trkpt lat="42.4736110679805278778076171875" lon="0.4208025522530078887939453125">
        <ele>797.4000244140625</ele>
        <time>2039-05-14T12:23:42.000Z</time>
      </trkpt>
      <trkpt lat="42.4734799750149250030517578125" lon="0.420658886432647705078125">
        <ele>796.4000244140625</ele>
        <time>2039-05-14T12:23:44.000Z</time>
      </trkpt>
      <trkpt lat="42.47334963642060756683349609375" lon="0.4205108620226383209228515625">
        <ele>795.20001220703125</ele>
        <time>2039-05-14T12:23:46.000Z</time>
      </trkpt>
      <trkpt lat="42.4731566011905670166015625" lon="0.42028178460896015167236328125">
        <ele>794.4000244140625</ele>
        <time>2039-05-14T12:23:49.000Z</time>
      </trkpt>
      <trkpt lat="42.47310253791511058807373046875" lon="0.42019075714051723480224609375">
        <ele>794</ele>
        <time>2039-05-14T12:23:50.000Z</time>
      </trkpt>
      <trkpt lat="42.47300128452479839324951171875" lon="0.4198691435158252716064453125">
        <ele>792.79998779296875</ele>
        <time>2039-05-14T12:23:53.000Z</time>
      </trkpt>
      <trkpt lat="42.47294931672513484954833984375" lon="0.41965104639530181884765625">
        <ele>791.5999755859375</ele>
        <time>2039-05-14T12:23:55.000Z</time>
      </trkpt>
      <trkpt lat="42.47280330397188663482666015625" lon="0.41926958598196506500244140625">
        <ele>790.20001220703125</ele>
        <time>2039-05-14T12:23:59.000Z</time>
      </trkpt>
      <trkpt lat="42.472591660916805267333984375" lon="0.41901812888681888580322265625">
        <ele>789.79998779296875</ele>
        <time>2039-05-14T12:24:03.000Z</time>
      </trkpt>
      <trkpt lat="42.4723500944674015045166015625" lon="0.41895945556461811065673828125">
        <ele>789.4000244140625</ele>
        <time>2039-05-14T12:24:07.000Z</time>
      </trkpt>
      <trkpt lat="42.472295276820659637451171875" lon="0.418961383402347564697265625">
        <ele>789.4000244140625</ele>
        <time>2039-05-14T12:24:08.000Z</time>
      </trkpt>
      <trkpt lat="42.47205195017158985137939453125" lon="0.4190001077950000762939453125">
        <ele>789.79998779296875</ele>
        <time>2039-05-14T12:24:13.000Z</time>
      </trkpt>
      <trkpt lat="42.47192521579563617706298828125" lon="0.41902869008481502532958984375">
        <ele>789.79998779296875</ele>
        <time>2039-05-14T12:24:16.000Z</time>
      </trkpt>
      <trkpt lat="42.47180921025574207305908203125" lon="0.4190361499786376953125">
        <ele>789.4000244140625</ele>
        <time>2039-05-14T12:24:19.000Z</time>
      </trkpt>
      <trkpt lat="42.4717727489769458770751953125" lon="0.4190366528928279876708984375">
        <ele>789.4000244140625</ele>
        <time>2039-05-14T12:24:20.000Z</time>
      </trkpt>
      <trkpt lat="42.4715450964868068695068359375" lon="0.41902852244675159454345703125">
        <ele>789</ele>
        <time>2039-05-14T12:24:26.000Z</time>
      </trkpt>
      <trkpt lat="42.47131115756928920745849609375" lon="0.418982841074466705322265625">
        <ele>788.5999755859375</ele>
        <time>2039-05-14T12:24:32.000Z</time>
      </trkpt>
      <trkpt lat="42.47112256474792957305908203125" lon="0.4189270175993442535400390625">
        <ele>788.5999755859375</ele>
        <time>2039-05-14T12:24:37.000Z</time>
      </trkpt>
      <trkpt lat="42.4710864387452602386474609375" lon="0.41891369037330150604248046875">
        <ele>788.4000244140625</ele>
        <time>2039-05-14T12:24:38.000Z</time>
      </trkpt>
      <trkpt lat="42.47079215012490749359130859375" lon="0.41881126351654529571533203125">
        <ele>788.20001220703125</ele>
        <time>2039-05-14T12:24:46.000Z</time>
      </trkpt>
      <trkpt lat="42.4705151282250881195068359375" lon="0.41872006841003894805908203125">
        <ele>788</ele>
        <time>2039-05-14T12:24:53.000Z</time>
      </trkpt>
      <trkpt lat="42.47019552625715732574462890625" lon="0.41868369095027446746826171875">
        <ele>787.4000244140625</ele>
        <time>2039-05-14T12:25:01.000Z</time>
      </trkpt>
      <trkpt lat="42.46988774277269840240478515625" lon="0.41871017776429653167724609375">
        <ele>787</ele>
        <time>2039-05-14T12:25:09.000Z</time>
      </trkpt>
      <trkpt lat="42.46957526542246341705322265625" lon="0.41882970370352268218994140625">
        <ele>786.79998779296875</ele>
        <time>2039-05-14T12:25:17.000Z</time>
      </trkpt>
      <trkpt lat="42.4695347808301448822021484375" lon="0.41884663514792919158935546875">
        <ele>786.5999755859375</ele>
        <time>2039-05-14T12:25:18.000Z</time>
      </trkpt>
      <trkpt lat="42.46914158575236797332763671875" lon="0.41900371201336383819580078125">
        <ele>785.79998779296875</ele>
        <time>2039-05-14T12:25:27.000Z</time>
      </trkpt>
      <trkpt lat="42.46904837898910045623779296875" lon="0.41904210112988948822021484375">
        <ele>785.4000244140625</ele>
        <time>2039-05-14T12:25:29.000Z</time>
      </trkpt>
      <trkpt lat="42.46873456053435802459716796875" lon="0.41918492875993251800537109375">
        <ele>784.79998779296875</ele>
        <time>2039-05-14T12:25:36.000Z</time>
      </trkpt>
      <trkpt lat="42.46850632131099700927734375" lon="0.41927528567612171173095703125">
        <ele>785</ele>
        <time>2039-05-14T12:25:42.000Z</time>
      </trkpt>
      <trkpt lat="42.46824941597878932952880859375" lon="0.41938056237995624542236328125">
        <ele>784.5999755859375</ele>
        <time>2039-05-14T12:25:49.000Z</time>
      </trkpt>
      <trkpt lat="42.46818051673471927642822265625" lon="0.41941006667912006378173828125">
        <ele>784.5999755859375</ele>
        <time>2039-05-14T12:25:51.000Z</time>
      </trkpt>
      <trkpt lat="42.4678530357778072357177734375" lon="0.41955649852752685546875">
        <ele>784.5999755859375</ele>
        <time>2039-05-14T12:26:00.000Z</time>
      </trkpt>
      <trkpt lat="42.467578612267971038818359375" lon="0.419663451611995697021484375">
        <ele>784.79998779296875</ele>
        <time>2039-05-14T12:26:08.000Z</time>
      </trkpt>
      <trkpt lat="42.4672069586813449859619140625" lon="0.41978457011282444000244140625">
        <ele>784.5999755859375</ele>
        <time>2039-05-14T12:26:18.000Z</time>
      </trkpt>
      <trkpt lat="42.4668421782553195953369140625" lon="0.419860593974590301513671875">
        <ele>784.5999755859375</ele>
        <time>2039-05-14T12:26:28.000Z</time>
      </trkpt>
      <trkpt lat="42.4666470475494861602783203125" lon="0.4198268987238407135009765625">
        <ele>784.79998779296875</ele>
        <time>2039-05-14T12:26:34.000Z</time>
      </trkpt>
      <trkpt lat="42.4663831852376461029052734375" lon="0.41980586014688014984130859375">
        <ele>784.5999755859375</ele>
        <time>2039-05-14T12:26:42.000Z</time>
      </trkpt>
      <trkpt lat="42.46609962545335292816162109375" lon="0.41977652348577976226806640625">
        <ele>784.20001220703125</ele>
        <time>2039-05-14T12:26:50.000Z</time>
      </trkpt>
      <trkpt lat="42.4659925885498523712158203125" lon="0.4197786189615726470947265625">
        <ele>784</ele>
        <time>2039-05-14T12:26:53.000Z</time>
      </trkpt>
      <trkpt lat="42.46583408676087856292724609375" lon="0.4197675548493862152099609375">
        <ele>783.5999755859375</ele>
        <time>2039-05-14T12:26:57.000Z</time>
      </trkpt>
      <trkpt lat="42.46552865020930767059326171875" lon="0.4197397269308567047119140625">
        <ele>783.20001220703125</ele>
        <time>2039-05-14T12:27:05.000Z</time>
      </trkpt>
      <trkpt lat="42.465319521725177764892578125" lon="0.41972137056291103363037109375">
        <ele>783</ele>
        <time>2039-05-14T12:27:10.000Z</time>
      </trkpt>
      <trkpt lat="42.46523528359830379486083984375" lon="0.41971315629780292510986328125">
        <ele>782.79998779296875</ele>
        <time>2039-05-14T12:27:12.000Z</time>
      </trkpt>
      <trkpt lat="42.46490545570850372314453125" lon="0.41965766809880733489990234375">
        <ele>782.5999755859375</ele>
        <time>2039-05-14T12:27:20.000Z</time>
      </trkpt>
      <trkpt lat="42.464573197066783905029296875" lon="0.4195878468453884124755859375">
        <ele>782.5999755859375</ele>
        <time>2039-05-14T12:27:28.000Z</time>
      </trkpt>
      <trkpt lat="42.46453086845576763153076171875" lon="0.41957552544772624969482421875">
        <ele>782.4000244140625</ele>
        <time>2039-05-14T12:27:29.000Z</time>
      </trkpt>
      <trkpt lat="42.46434696950018405914306640625" lon="0.41952255181968212127685546875">
        <ele>782</ele>
        <time>2039-05-14T12:27:33.000Z</time>
      </trkpt>
      <trkpt lat="42.464039437472820281982421875" lon="0.4193834960460662841796875">
        <ele>781.5999755859375</ele>
        <time>2039-05-14T12:27:40.000Z</time>
      </trkpt>
      <trkpt lat="42.463995181024074554443359375" lon="0.41934452019631862640380859375">
        <ele>781.4000244140625</ele>
        <time>2039-05-14T12:27:41.000Z</time>
      </trkpt>
      <trkpt lat="42.4638305604457855224609375" lon="0.4191479645669460296630859375">
        <ele>781.20001220703125</ele>
        <time>2039-05-14T12:27:45.000Z</time>
      </trkpt>
      <trkpt lat="42.463716566562652587890625" lon="0.41899315081536769866943359375">
        <ele>781</ele>
        <time>2039-05-14T12:27:48.000Z</time>
      </trkpt>
      <trkpt lat="42.46354130096733570098876953125" lon="0.4187236726284027099609375">
        <ele>780.79998779296875</ele>
        <time>2039-05-14T12:27:53.000Z</time>
      </trkpt>
      <trkpt lat="42.46333359740674495697021484375" lon="0.41825135238468647003173828125">
        <ele>781</ele>
        <time>2039-05-14T12:28:01.000Z</time>
      </trkpt>
      <trkpt lat="42.46317769400775432586669921875" lon="0.41773553006350994110107421875">
        <ele>781.5999755859375</ele>
        <time>2039-05-14T12:28:09.000Z</time>
      </trkpt>
      <trkpt lat="42.46309990994632244110107421875" lon="0.41740410961210727691650390625">
        <ele>782.20001220703125</ele>
        <time>2039-05-14T12:28:14.000Z</time>
      </trkpt>
      <trkpt lat="42.4630669690668582916259765625" lon="0.417206548154354095458984375">
        <ele>782.5999755859375</ele>
        <time>2039-05-14T12:28:17.000Z</time>
      </trkpt>
      <trkpt lat="42.46304173953831195831298828125" lon="0.416659377515316009521484375">
        <ele>782.5999755859375</ele>
        <time>2039-05-14T12:28:25.000Z</time>
      </trkpt>
      <trkpt lat="42.46304961852729320526123046875" lon="0.4162525199353694915771484375">
        <ele>783</ele>
        <time>2039-05-14T12:28:32.000Z</time>
      </trkpt>
      <trkpt lat="42.46304475702345371246337890625" lon="0.4160868935286998748779296875">
        <ele>783.20001220703125</ele>
        <time>2039-05-14T12:28:35.000Z</time>
      </trkpt>
      <trkpt lat="42.46303863823413848876953125" lon="0.41586385108530521392822265625">
        <ele>783.4000244140625</ele>
        <time>2039-05-14T12:28:39.000Z</time>
      </trkpt>
      <trkpt lat="42.4630129896104335784912109375" lon="0.415373928844928741455078125">
        <ele>783.20001220703125</ele>
        <time>2039-05-14T12:28:47.000Z</time>
      </trkpt>
      <trkpt lat="42.4629402346909046173095703125" lon="0.41487872600555419921875">
        <ele>782.4000244140625</ele>
        <time>2039-05-14T12:28:54.000Z</time>
      </trkpt>
      <trkpt lat="42.4628327786922454833984375" lon="0.41449843905866146087646484375">
        <ele>781.4000244140625</ele>
        <time>2039-05-14T12:28:59.000Z</time>
      </trkpt>
      <trkpt lat="42.46278592385351657867431640625" lon="0.41433700360357761383056640625">
        <ele>781</ele>
        <time>2039-05-14T12:29:01.000Z</time>
      </trkpt>
      <trkpt lat="42.4627286754548549652099609375" lon="0.4140792600810527801513671875">
        <ele>780.20001220703125</ele>
        <time>2039-05-14T12:29:04.000Z</time>
      </trkpt>
      <trkpt lat="42.462696991860866546630859375" lon="0.41381187736988067626953125">
        <ele>779.79998779296875</ele>
        <time>2039-05-14T12:29:07.000Z</time>
      </trkpt>
      <trkpt lat="42.4627038650214672088623046875" lon="0.413304269313812255859375">
        <ele>779.4000244140625</ele>
        <time>2039-05-14T12:29:13.000Z</time>
      </trkpt>
      <trkpt lat="42.4627494625747203826904296875" lon="0.41298818774521350860595703125">
        <ele>779.5999755859375</ele>
        <time>2039-05-14T12:29:18.000Z</time>
      </trkpt>
      <trkpt lat="42.4628649652004241943359375" lon="0.41253455914556980133056640625">
        <ele>781.4000244140625</ele>
        <time>2039-05-14T12:29:27.000Z</time>
      </trkpt>
      <trkpt lat="42.46294098906219005584716796875" lon="0.41224890388548374176025390625">
        <ele>782.4000244140625</ele>
        <time>2039-05-14T12:29:33.000Z</time>
      </trkpt>
      <trkpt lat="42.46296630240976810455322265625" lon="0.4121584631502628326416015625">
        <ele>782.5999755859375</ele>
        <time>2039-05-14T12:29:35.000Z</time>
      </trkpt>
      <trkpt lat="42.46301759965717792510986328125" lon="0.41192896664142608642578125">
        <ele>783.4000244140625</ele>
        <time>2039-05-14T12:29:40.000Z</time>
      </trkpt>
      <trkpt lat="42.46303486637771129608154296875" lon="0.4118453152477741241455078125">
        <ele>783.79998779296875</ele>
        <time>2039-05-14T12:29:42.000Z</time>
      </trkpt>
      <trkpt lat="42.46306906454265117645263671875" lon="0.4116813652217388153076171875">
        <ele>784.4000244140625</ele>
        <time>2039-05-14T12:29:46.000Z</time>
      </trkpt>
      <trkpt lat="42.463090606033802032470703125" lon="0.411559827625751495361328125">
        <ele>785.20001220703125</ele>
        <time>2039-05-14T12:29:49.000Z</time>
      </trkpt>
      <trkpt lat="42.46311399154365062713623046875" lon="0.41139629669487476348876953125">
        <ele>785.79998779296875</ele>
        <time>2039-05-14T12:29:53.000Z</time>
      </trkpt>
      <trkpt lat="42.46314550749957561492919921875" lon="0.4111962206661701202392578125">
        <ele>786.5999755859375</ele>
        <time>2039-05-14T12:29:58.000Z</time>
      </trkpt>
      <trkpt lat="42.463155649602413177490234375" lon="0.41111600585281848907470703125">
        <ele>786.79998779296875</ele>
        <time>2039-05-14T12:30:00.000Z</time>
      </trkpt>
      <trkpt lat="42.46318590827286243438720703125" lon="0.41092942468822002410888671875">
        <ele>787.79998779296875</ele>
        <time>2039-05-14T12:30:05.000Z</time>
      </trkpt>
      <trkpt lat="42.46318875811994075775146484375" lon="0.41088919155299663543701171875">
        <ele>787.79998779296875</ele>
        <time>2039-05-14T12:30:06.000Z</time>
      </trkpt>
      <trkpt lat="42.4631789512932300567626953125" lon="0.41060202755033969879150390625">
        <ele>788.5999755859375</ele>
        <time>2039-05-14T12:30:13.000Z</time>
      </trkpt>
      <trkpt lat="42.46316009201109409332275390625" lon="0.41051753796637058258056640625">
        <ele>789</ele>
        <time>2039-05-14T12:30:15.000Z</time>
      </trkpt>
      <trkpt lat="42.46308800764381885528564453125" lon="0.4102849401533603668212890625">
        <ele>789.79998779296875</ele>
        <time>2039-05-14T12:30:21.000Z</time>
      </trkpt>
      <trkpt lat="42.46305783279240131378173828125" lon="0.4101727902889251708984375">
        <ele>790</ele>
        <time>2039-05-14T12:30:24.000Z</time>
      </trkpt>
      <trkpt lat="42.46303603984415531158447265625" lon="0.41001177392899990081787109375">
        <ele>790.79998779296875</ele>
        <time>2039-05-14T12:30:28.000Z</time>
      </trkpt>
      <trkpt lat="42.46304140426218509674072265625" lon="0.4099282063543796539306640625">
        <ele>791</ele>
        <time>2039-05-14T12:30:30.000Z</time>
      </trkpt>
      <trkpt lat="42.46308566071093082427978515625" lon="0.40969460271298885345458984375">
        <ele>792</ele>
        <time>2039-05-14T12:30:36.000Z</time>
      </trkpt>
      <trkpt lat="42.46309630572795867919921875" lon="0.4096591472625732421875">
        <ele>792.20001220703125</ele>
        <time>2039-05-14T12:30:37.000Z</time>
      </trkpt>
      <trkpt lat="42.4631698988378047943115234375" lon="0.409393608570098876953125">
        <ele>793.4000244140625</ele>
        <time>2039-05-14T12:30:44.000Z</time>
      </trkpt>
      <trkpt lat="42.46317836456000804901123046875" lon="0.40935362689197063446044921875">
        <ele>793.4000244140625</ele>
        <time>2039-05-14T12:30:45.000Z</time>
      </trkpt>
      <trkpt lat="42.4632124789059162139892578125" lon="0.40914827026426792144775390625">
        <ele>794.5999755859375</ele>
        <time>2039-05-14T12:30:50.000Z</time>
      </trkpt>
      <trkpt lat="42.46322899125516414642333984375" lon="0.40902522392570972442626953125">
        <ele>794.79998779296875</ele>
        <time>2039-05-14T12:30:53.000Z</time>
      </trkpt>
      <trkpt lat="42.46324022300541400909423828125" lon="0.408864207565784454345703125">
        <ele>795.5999755859375</ele>
        <time>2039-05-14T12:30:57.000Z</time>
      </trkpt>
      <trkpt lat="42.4632490240037441253662109375" lon="0.40869145654141902923583984375">
        <ele>796.20001220703125</ele>
        <time>2039-05-14T12:31:01.000Z</time>
      </trkpt>
      <trkpt lat="42.463250197470188140869140625" lon="0.40859875269234180450439453125">
        <ele>796.5999755859375</ele>
        <time>2039-05-14T12:31:03.000Z</time>
      </trkpt>
      <trkpt lat="42.46325187385082244873046875" lon="0.408301614224910736083984375">
        <ele>797</ele>
        <time>2039-05-14T12:31:10.000Z</time>
      </trkpt>
      <trkpt lat="42.4632533825933933258056640625" lon="0.4081482253968715667724609375">
        <ele>797.5999755859375</ele>
        <time>2039-05-14T12:31:14.000Z</time>
      </trkpt>
      <trkpt lat="42.46322697959840297698974609375" lon="0.4079490713775157928466796875">
        <ele>799</ele>
        <time>2039-05-14T12:31:19.000Z</time>
      </trkpt>
      <trkpt lat="42.4631615169346332550048828125" lon="0.40766802616417407989501953125">
        <ele>799.20001220703125</ele>
        <time>2039-05-14T12:31:26.000Z</time>
      </trkpt>
      <trkpt lat="42.46314332820475101470947265625" lon="0.4074112884700298309326171875">
        <ele>800</ele>
        <time>2039-05-14T12:31:32.000Z</time>
      </trkpt>
      <trkpt lat="42.46314215473830699920654296875" lon="0.407337360084056854248046875">
        <ele>800.4000244140625</ele>
        <time>2039-05-14T12:31:34.000Z</time>
      </trkpt>
      <trkpt lat="42.463147938251495361328125" lon="0.4071955382823944091796875">
        <ele>801.20001220703125</ele>
        <time>2039-05-14T12:31:38.000Z</time>
      </trkpt>
      <trkpt lat="42.46315204538404941558837890625" lon="0.407087914645671844482421875">
        <ele>801.5999755859375</ele>
        <time>2039-05-14T12:31:41.000Z</time>
      </trkpt>
      <trkpt lat="42.46316461823880672454833984375" lon="0.4069811291992664337158203125">
        <ele>802.20001220703125</ele>
        <time>2039-05-14T12:31:44.000Z</time>
      </trkpt>
      <trkpt lat="42.46317015029489994049072265625" lon="0.40680083446204662322998046875">
        <ele>803</ele>
        <time>2039-05-14T12:31:49.000Z</time>
      </trkpt>
      <trkpt lat="42.4631732515990734100341796875" lon="0.4067293368279933929443359375">
        <ele>803.5999755859375</ele>
        <time>2039-05-14T12:31:51.000Z</time>
      </trkpt>
      <trkpt lat="42.46319361962378025054931640625" lon="0.4065519757568836212158203125">
        <ele>804</ele>
        <time>2039-05-14T12:31:56.000Z</time>
      </trkpt>
      <trkpt lat="42.46320082806050777435302734375" lon="0.406449548900127410888671875">
        <ele>804.5999755859375</ele>
        <time>2039-05-14T12:31:59.000Z</time>
      </trkpt>
      <trkpt lat="42.4632161669433116912841796875" lon="0.406272523105144500732421875">
        <ele>805.20001220703125</ele>
        <time>2039-05-14T12:32:04.000Z</time>
      </trkpt>
      <trkpt lat="42.46321968734264373779296875" lon="0.4061291925609111785888671875">
        <ele>805.5999755859375</ele>
        <time>2039-05-14T12:32:08.000Z</time>
      </trkpt>
      <trkpt lat="42.4632128141820430755615234375" lon="0.40598443709313869476318359375">
        <ele>806.4000244140625</ele>
        <time>2039-05-14T12:32:12.000Z</time>
      </trkpt>
      <trkpt lat="42.46313125826418399810791015625" lon="0.4056202434003353118896484375">
        <ele>806.5999755859375</ele>
        <time>2039-05-14T12:32:21.000Z</time>
      </trkpt>
      <trkpt lat="42.46299974620342254638671875" lon="0.40535327978432178497314453125">
        <ele>806.20001220703125</ele>
        <time>2039-05-14T12:32:28.000Z</time>
      </trkpt>
      <trkpt lat="42.46281878091394901275634765625" lon="0.40510450489819049835205078125">
        <ele>806.4000244140625</ele>
        <time>2039-05-14T12:32:35.000Z</time>
      </trkpt>
      <trkpt lat="42.46271543204784393310546875" lon="0.4048299975693225860595703125">
        <ele>806.5999755859375</ele>
        <time>2039-05-14T12:32:41.000Z</time>
      </trkpt>
      <trkpt lat="42.46269506402313709259033203125" lon="0.40465674363076686859130859375">
        <ele>807</ele>
        <time>2039-05-14T12:32:45.000Z</time>
      </trkpt>
      <trkpt lat="42.46268651448190212249755859375" lon="0.404624976217746734619140625">
        <ele>807</ele>
        <time>2039-05-14T12:32:46.000Z</time>
      </trkpt>
      <trkpt lat="42.46267025358974933624267578125" lon="0.4045654647052288055419921875">
        <ele>807.20001220703125</ele>
        <time>2039-05-14T12:32:50.000Z</time>
      </trkpt>
      <trkpt lat="42.4626807309687137603759765625" lon="0.404562614858150482177734375">
        <ele>807.20001220703125</ele>
        <time>2039-05-14T12:32:58.000Z</time>
      </trkpt>
      <trkpt lat="42.4626827426254749298095703125" lon="0.404559932649135589599609375">
        <ele>806.79998779296875</ele>
        <time>2039-05-14T12:33:11.000Z</time>
      </trkpt>
      <trkpt lat="42.46268232353031635284423828125" lon="0.4045621119439601898193359375">
        <ele>807</ele>
        <time>2039-05-14T12:33:44.000Z</time>
      </trkpt>
      <trkpt lat="42.46268232353031635284423828125" lon="0.4045647941529750823974609375">
        <ele>807</ele>
        <time>2039-05-14T12:34:23.000Z</time>
      </trkpt>
      <trkpt lat="42.46266036294400691986083984375" lon="0.4045295901596546173095703125">
        <ele>807.20001220703125</ele>
        <time>2039-05-14T12:34:46.000Z</time>
      </trkpt>
      <trkpt lat="42.4625610373914241790771484375" lon="0.40440361015498638153076171875">
        <ele>806.79998779296875</ele>
        <time>2039-05-14T12:34:51.000Z</time>
      </trkpt>
      <trkpt lat="42.46253178454935550689697265625" lon="0.40437008254230022430419921875">
        <ele>806.5999755859375</ele>
        <time>2039-05-14T12:34:52.000Z</time>
      </trkpt>
      <trkpt lat="42.46246439404785633087158203125" lon="0.40429481305181980133056640625">
        <ele>806.20001220703125</ele>
        <time>2039-05-14T12:34:54.000Z</time>
      </trkpt>
      <trkpt lat="42.46238593943417072296142578125" lon="0.40420613251626491546630859375">
        <ele>805.5999755859375</ele>
        <time>2039-05-14T12:34:56.000Z</time>
      </trkpt>
      <trkpt lat="42.46230362914502620697021484375" lon="0.40410135872662067413330078125">
        <ele>805</ele>
        <time>2039-05-14T12:34:58.000Z</time>
      </trkpt>
      <trkpt lat="42.46224059723317623138427734375" lon="0.40395836345851421356201171875">
        <ele>804.4000244140625</ele>
        <time>2039-05-14T12:35:00.000Z</time>
      </trkpt>
      <trkpt lat="42.4621979333460330963134765625" lon="0.403796844184398651123046875">
        <ele>803.79998779296875</ele>
        <time>2039-05-14T12:35:02.000Z</time>
      </trkpt>
      <trkpt lat="42.462150491774082183837890625" lon="0.40363566018640995025634765625">
        <ele>803</ele>
        <time>2039-05-14T12:35:04.000Z</time>
      </trkpt>
      <trkpt lat="42.4621188081800937652587890625" lon="0.40355536155402660369873046875">
        <ele>802.79998779296875</ele>
        <time>2039-05-14T12:35:05.000Z</time>
      </trkpt>
      <trkpt lat="42.4620817601680755615234375" lon="0.40347774513065814971923828125">
        <ele>802.5999755859375</ele>
        <time>2039-05-14T12:35:06.000Z</time>
      </trkpt>
      <trkpt lat="42.46195360086858272552490234375" lon="0.4032525233924388885498046875">
        <ele>801.4000244140625</ele>
        <time>2039-05-14T12:35:09.000Z</time>
      </trkpt>
      <trkpt lat="42.46181429363787174224853515625" lon="0.403027720749378204345703125">
        <ele>800.20001220703125</ele>
        <time>2039-05-14T12:35:12.000Z</time>
      </trkpt>
      <trkpt lat="42.4617221765220165252685546875" lon="0.40286569856107234954833984375">
        <ele>799.5999755859375</ele>
        <time>2039-05-14T12:35:14.000Z</time>
      </trkpt>
      <trkpt lat="42.46163324452936649322509765625" lon="0.40269286371767520904541015625">
        <ele>799.20001220703125</ele>
        <time>2039-05-14T12:35:16.000Z</time>
      </trkpt>
      <trkpt lat="42.461498044431209564208984375" lon="0.4024371318519115447998046875">
        <ele>797.79998779296875</ele>
        <time>2039-05-14T12:35:19.000Z</time>
      </trkpt>
      <trkpt lat="42.461445070803165435791015625" lon="0.402358509600162506103515625">
        <ele>797.4000244140625</ele>
        <time>2039-05-14T12:35:20.000Z</time>
      </trkpt>
      <trkpt lat="42.4613285623490810394287109375" lon="0.40220788680016994476318359375">
        <ele>796.5999755859375</ele>
        <time>2039-05-14T12:35:22.000Z</time>
      </trkpt>
      <trkpt lat="42.4611501954495906829833984375" lon="0.40196883492171764373779296875">
        <ele>795.4000244140625</ele>
        <time>2039-05-14T12:35:25.000Z</time>
      </trkpt>
      <trkpt lat="42.4610921926796436309814453125" lon="0.40188434533774852752685546875">
        <ele>794.79998779296875</ele>
        <time>2039-05-14T12:35:26.000Z</time>
      </trkpt>
      <trkpt lat="42.46103611774742603302001953125" lon="0.40179650299251079559326171875">
        <ele>794.20001220703125</ele>
        <time>2039-05-14T12:35:27.000Z</time>
      </trkpt>
      <trkpt lat="42.46084216050803661346435546875" lon="0.40141336619853973388671875">
        <ele>792.79998779296875</ele>
        <time>2039-05-14T12:35:31.000Z</time>
      </trkpt>
      <trkpt lat="42.460641749203205108642578125" lon="0.4010291397571563720703125">
        <ele>791.20001220703125</ele>
        <time>2039-05-14T12:35:35.000Z</time>
      </trkpt>
      <trkpt lat="42.46048928238451480865478515625" lon="0.40074289776384830474853515625">
        <ele>789.79998779296875</ele>
        <time>2039-05-14T12:35:38.000Z</time>
      </trkpt>
      <trkpt lat="42.46037445031106472015380859375" lon="0.4005813784897327423095703125">
        <ele>788.5999755859375</ele>
        <time>2039-05-14T12:35:40.000Z</time>
      </trkpt>
      <trkpt lat="42.46026934124529361724853515625" lon="0.40041667409241199493408203125">
        <ele>787.79998779296875</ele>
        <time>2039-05-14T12:35:42.000Z</time>
      </trkpt>
      <trkpt lat="42.4602310359477996826171875" lon="0.4003282450139522552490234375">
        <ele>787.20001220703125</ele>
        <time>2039-05-14T12:35:43.000Z</time>
      </trkpt>
      <trkpt lat="42.4601963348686695098876953125" lon="0.4002424143254756927490234375">
        <ele>787</ele>
        <time>2039-05-14T12:35:44.000Z</time>
      </trkpt>
      <trkpt lat="42.4600457958877086639404296875" lon="0.4000261612236499786376953125">
        <ele>786.20001220703125</ele>
        <time>2039-05-14T12:35:47.000Z</time>
      </trkpt>
      <trkpt lat="42.459865920245647430419921875" lon="0.39981720037758350372314453125">
        <ele>784.79998779296875</ele>
        <time>2039-05-14T12:35:50.000Z</time>
      </trkpt>
      <trkpt lat="42.45972150005400180816650390625" lon="0.39970454759895801544189453125">
        <ele>783.5999755859375</ele>
        <time>2039-05-14T12:35:52.000Z</time>
      </trkpt>
      <trkpt lat="42.45958168990910053253173828125" lon="0.39958150126039981842041015625">
        <ele>782.4000244140625</ele>
        <time>2039-05-14T12:35:54.000Z</time>
      </trkpt>
      <trkpt lat="42.45939125306904315948486328125" lon="0.399360470473766326904296875">
        <ele>781</ele>
        <time>2039-05-14T12:35:57.000Z</time>
      </trkpt>
      <trkpt lat="42.45927290059626102447509765625" lon="0.39919626899063587188720703125">
        <ele>780</ele>
        <time>2039-05-14T12:35:59.000Z</time>
      </trkpt>
      <trkpt lat="42.45910459198057651519775390625" lon="0.3989303112030029296875">
        <ele>778.5999755859375</ele>
        <time>2039-05-14T12:36:02.000Z</time>
      </trkpt>
      <trkpt lat="42.45905178599059581756591796875" lon="0.39883433841168880462646484375">
        <ele>778.20001220703125</ele>
        <time>2039-05-14T12:36:03.000Z</time>
      </trkpt>
      <trkpt lat="42.45895170606672763824462890625" lon="0.3986327536404132843017578125">
        <ele>777.5999755859375</ele>
        <time>2039-05-14T12:36:05.000Z</time>
      </trkpt>
      <trkpt lat="42.4588525481522083282470703125" lon="0.39842731319367885589599609375">
        <ele>776.4000244140625</ele>
        <time>2039-05-14T12:36:07.000Z</time>
      </trkpt>
      <trkpt lat="42.4586942978203296661376953125" lon="0.39812221191823482513427734375">
        <ele>774.79998779296875</ele>
        <time>2039-05-14T12:36:10.000Z</time>
      </trkpt>
      <trkpt lat="42.45858508162200450897216796875" lon="0.39791953749954700469970703125">
        <ele>773.79998779296875</ele>
        <time>2039-05-14T12:36:12.000Z</time>
      </trkpt>
      <trkpt lat="42.45847695507109165191650390625" lon="0.39771200157701969146728515625">
        <ele>772.5999755859375</ele>
        <time>2039-05-14T12:36:14.000Z</time>
      </trkpt>
      <trkpt lat="42.4583167769014835357666015625" lon="0.39739013649523258209228515625">
        <ele>771.5999755859375</ele>
        <time>2039-05-14T12:36:17.000Z</time>
      </trkpt>
      <trkpt lat="42.45826522819697856903076171875" lon="0.3972795791923999786376953125">
        <ele>771.20001220703125</ele>
        <time>2039-05-14T12:36:18.000Z</time>
      </trkpt>
      <trkpt lat="42.45816774666309356689453125" lon="0.3970502503216266632080078125">
        <ele>770.20001220703125</ele>
        <time>2039-05-14T12:36:20.000Z</time>
      </trkpt>
      <trkpt lat="42.458019554615020751953125" lon="0.3967049159109592437744140625">
        <ele>768.5999755859375</ele>
        <time>2039-05-14T12:36:23.000Z</time>
      </trkpt>
      <trkpt lat="42.45787412859499454498291015625" lon="0.39635195396840572357177734375">
        <ele>768</ele>
        <time>2039-05-14T12:36:26.000Z</time>
      </trkpt>
      <trkpt lat="42.45782568119466304779052734375" lon="0.39623611606657505035400390625">
        <ele>767.5999755859375</ele>
        <time>2039-05-14T12:36:27.000Z</time>
      </trkpt>
      <trkpt lat="42.45766122825443744659423828125" lon="0.39578248746693134307861328125">
        <ele>766.4000244140625</ele>
        <time>2039-05-14T12:36:31.000Z</time>
      </trkpt>
      <trkpt lat="42.4576308019459247589111328125" lon="0.39567151106894016265869140625">
        <ele>766.20001220703125</ele>
        <time>2039-05-14T12:36:32.000Z</time>
      </trkpt>
      <trkpt lat="42.4574430473148822784423828125" lon="0.39507354609668254852294921875">
        <ele>766</ele>
        <time>2039-05-14T12:36:38.000Z</time>
      </trkpt>
      <trkpt lat="42.45726526714861392974853515625" lon="0.39464154280722141265869140625">
        <ele>765.20001220703125</ele>
        <time>2039-05-14T12:36:43.000Z</time>
      </trkpt>
      <trkpt lat="42.4571721442043781280517578125" lon="0.39438840933144092559814453125">
        <ele>765</ele>
        <time>2039-05-14T12:36:46.000Z</time>
      </trkpt>
      <trkpt lat="42.45701305568218231201171875" lon="0.39380670525133609771728515625">
        <ele>764.5999755859375</ele>
        <time>2039-05-14T12:36:53.000Z</time>
      </trkpt>
      <trkpt lat="42.4569761753082275390625" lon="0.393556170165538787841796875">
        <ele>764.20001220703125</ele>
        <time>2039-05-14T12:36:56.000Z</time>
      </trkpt>
      <trkpt lat="42.45697173289954662322998046875" lon="0.3933913819491863250732421875">
        <ele>764.20001220703125</ele>
        <time>2039-05-14T12:36:58.000Z</time>
      </trkpt>
      <trkpt lat="42.456971146166324615478515625" lon="0.393311083316802978515625">
        <ele>764.20001220703125</ele>
        <time>2039-05-14T12:36:59.000Z</time>
      </trkpt>
      <trkpt lat="42.45695932768285274505615234375" lon="0.393153168261051177978515625">
        <ele>764.20001220703125</ele>
        <time>2039-05-14T12:37:01.000Z</time>
      </trkpt>
      <trkpt lat="42.45690065436065196990966796875" lon="0.39284479804337024688720703125">
        <ele>763.79998779296875</ele>
        <time>2039-05-14T12:37:05.000Z</time>
      </trkpt>
      <trkpt lat="42.45683393441140651702880859375" lon="0.39263256825506687164306640625">
        <ele>763.20001220703125</ele>
        <time>2039-05-14T12:37:08.000Z</time>
      </trkpt>
      <trkpt lat="42.4567362852394580841064453125" lon="0.39238010533154010772705078125">
        <ele>763.20001220703125</ele>
        <time>2039-05-14T12:37:12.000Z</time>
      </trkpt>
      <trkpt lat="42.456618435680866241455078125" lon="0.392068885266780853271484375">
        <ele>763.79998779296875</ele>
        <time>2039-05-14T12:37:18.000Z</time>
      </trkpt>
      <trkpt lat="42.45652489364147186279296875" lon="0.3919042646884918212890625">
        <ele>764.20001220703125</ele>
        <time>2039-05-14T12:37:22.000Z</time>
      </trkpt>
      <trkpt lat="42.4564429186284542083740234375" lon="0.39173553697764873504638671875">
        <ele>764.20001220703125</ele>
        <time>2039-05-14T12:37:26.000Z</time>
      </trkpt>
      <trkpt lat="42.45627251453697681427001953125" lon="0.391428507864475250244140625">
        <ele>764.79998779296875</ele>
        <time>2039-05-14T12:37:34.000Z</time>
      </trkpt>
      <trkpt lat="42.45602373965084552764892578125" lon="0.39121770299971103668212890625">
        <ele>764.79998779296875</ele>
        <time>2039-05-14T12:37:41.000Z</time>
      </trkpt>
      <trkpt lat="42.45582257397472858428955078125" lon="0.3910773061215877532958984375">
        <ele>764.20001220703125</ele>
        <time>2039-05-14T12:37:46.000Z</time>
      </trkpt>
      <trkpt lat="42.45570220984518527984619140625" lon="0.3909763880074024200439453125">
        <ele>763.5999755859375</ele>
        <time>2039-05-14T12:37:49.000Z</time>
      </trkpt>
      <trkpt lat="42.45562207885086536407470703125" lon="0.39091092534363269805908203125">
        <ele>763</ele>
        <time>2039-05-14T12:37:51.000Z</time>
      </trkpt>
      <trkpt lat="42.45538336224853992462158203125" lon="0.390714369714260101318359375">
        <ele>763</ele>
        <time>2039-05-14T12:37:57.000Z</time>
      </trkpt>
      <trkpt lat="42.45503316633403301239013671875" lon="0.39049141108989715576171875">
        <ele>762.4000244140625</ele>
        <time>2039-05-14T12:38:06.000Z</time>
      </trkpt>
      <trkpt lat="42.4550002254545688629150390625" lon="0.39046048186719417572021484375">
        <ele>762.20001220703125</ele>
        <time>2039-05-14T12:38:07.000Z</time>
      </trkpt>
      <trkpt lat="42.45493643917143344879150390625" lon="0.39039191789925098419189453125">
        <ele>762</ele>
        <time>2039-05-14T12:38:09.000Z</time>
      </trkpt>
      <trkpt lat="42.45481255464255809783935546875" lon="0.3902350924909114837646484375">
        <ele>762</ele>
        <time>2039-05-14T12:38:13.000Z</time>
      </trkpt>
      <trkpt lat="42.45464198291301727294921875" lon="0.39006686769425868988037109375">
        <ele>761.20001220703125</ele>
        <time>2039-05-14T12:38:18.000Z</time>
      </trkpt>
      <trkpt lat="42.45452354662120342254638671875" lon="0.38998506031930446624755859375">
        <ele>761</ele>
        <time>2039-05-14T12:38:21.000Z</time>
      </trkpt>
      <trkpt lat="42.45440519414842128753662109375" lon="0.38989151827991008758544921875">
        <ele>760.20001220703125</ele>
        <time>2039-05-14T12:38:24.000Z</time>
      </trkpt>
      <trkpt lat="42.45416614226996898651123046875" lon="0.3896674700081348419189453125">
        <ele>759.5999755859375</ele>
        <time>2039-05-14T12:38:30.000Z</time>
      </trkpt>
      <trkpt lat="42.45381846092641353607177734375" lon="0.3892917931079864501953125">
        <ele>759.4000244140625</ele>
        <time>2039-05-14T12:38:39.000Z</time>
      </trkpt>
      <trkpt lat="42.4537908844649791717529296875" lon="0.38924108259379863739013671875">
        <ele>759.4000244140625</ele>
        <time>2039-05-14T12:38:40.000Z</time>
      </trkpt>
      <trkpt lat="42.453722320497035980224609375" lon="0.38901141844689846038818359375">
        <ele>759.5999755859375</ele>
        <time>2039-05-14T12:38:44.000Z</time>
      </trkpt>
      <trkpt lat="42.453710250556468963623046875" lon="0.38895274512469768524169921875">
        <ele>759.5999755859375</ele>
        <time>2039-05-14T12:38:45.000Z</time>
      </trkpt>
      <trkpt lat="42.45362467132508754730224609375" lon="0.38858528248965740203857421875">
        <ele>759.4000244140625</ele>
        <time>2039-05-14T12:38:52.000Z</time>
      </trkpt>
      <trkpt lat="42.4535082466900348663330078125" lon="0.38819141685962677001953125">
        <ele>759.4000244140625</ele>
        <time>2039-05-14T12:39:01.000Z</time>
      </trkpt>
      <trkpt lat="42.45339014567434787750244140625" lon="0.387988574802875518798828125">
        <ele>759.20001220703125</ele>
        <time>2039-05-14T12:39:07.000Z</time>
      </trkpt>
      <trkpt lat="42.45313282124698162078857421875" lon="0.38769193924963474273681640625">
        <ele>759.20001220703125</ele>
        <time>2039-05-14T12:39:16.000Z</time>
      </trkpt>
      <trkpt lat="42.45285001583397388458251953125" lon="0.38748490624129772186279296875">
        <ele>759.4000244140625</ele>
        <time>2039-05-14T12:39:25.000Z</time>
      </trkpt>
      <trkpt lat="42.4526241235435009002685546875" lon="0.38739924319088459014892578125">
        <ele>759.4000244140625</ele>
        <time>2039-05-14T12:39:32.000Z</time>
      </trkpt>
      <trkpt lat="42.45234710164368152618408203125" lon="0.3874191083014011383056640625">
        <ele>759</ele>
        <time>2039-05-14T12:39:40.000Z</time>
      </trkpt>
      <trkpt lat="42.45211559347808361053466796875" lon="0.387496389448642730712890625">
        <ele>758.79998779296875</ele>
        <time>2039-05-14T12:39:47.000Z</time>
      </trkpt>
      <trkpt lat="42.45189364068210124969482421875" lon="0.3876983933150768280029296875">
        <ele>759</ele>
        <time>2039-05-14T12:39:54.000Z</time>
      </trkpt>
      <trkpt lat="42.45182658545672893524169921875" lon="0.38776586763560771942138671875">
        <ele>758.79998779296875</ele>
        <time>2039-05-14T12:39:56.000Z</time>
      </trkpt>
      <trkpt lat="42.4515904672443866729736328125" lon="0.3879263810813426971435546875">
        <ele>758.4000244140625</ele>
        <time>2039-05-14T12:40:02.000Z</time>
      </trkpt>
      <trkpt lat="42.45150237344205379486083984375" lon="0.38796300999820232391357421875">
        <ele>758.20001220703125</ele>
        <time>2039-05-14T12:40:04.000Z</time>
      </trkpt>
      <trkpt lat="42.4513695202767848968505859375" lon="0.3879746608436107635498046875">
        <ele>758.20001220703125</ele>
        <time>2039-05-14T12:40:07.000Z</time>
      </trkpt>
      <trkpt lat="42.45099694468080997467041015625" lon="0.3879334218800067901611328125">
        <ele>758.20001220703125</ele>
        <time>2039-05-14T12:40:16.000Z</time>
      </trkpt>
      <trkpt lat="42.4508719705045223236083984375" lon="0.387905426323413848876953125">
        <ele>758.20001220703125</ele>
        <time>2039-05-14T12:40:19.000Z</time>
      </trkpt>
      <trkpt lat="42.45076510123908519744873046875" lon="0.38782001473009586334228515625">
        <ele>758.20001220703125</ele>
        <time>2039-05-14T12:40:22.000Z</time>
      </trkpt>
      <trkpt lat="42.450685389339923858642578125" lon="0.38768204860389232635498046875">
        <ele>758.4000244140625</ele>
        <time>2039-05-14T12:40:25.000Z</time>
      </trkpt>
      <trkpt lat="42.45061037130653858184814453125" lon="0.38754743523895740509033203125">
        <ele>758.79998779296875</ele>
        <time>2039-05-14T12:40:28.000Z</time>
      </trkpt>
      <trkpt lat="42.45040451176464557647705078125" lon="0.38726429454982280731201171875">
        <ele>758.79998779296875</ele>
        <time>2039-05-14T12:40:35.000Z</time>
      </trkpt>
      <trkpt lat="42.4502795375883579254150390625" lon="0.3870950639247894287109375">
        <ele>758.79998779296875</ele>
        <time>2039-05-14T12:40:39.000Z</time>
      </trkpt>
      <trkpt lat="42.45020988397300243377685546875" lon="0.3869420103728771209716796875">
        <ele>759</ele>
        <time>2039-05-14T12:40:42.000Z</time>
      </trkpt>
      <trkpt lat="42.4501199461519718170166015625" lon="0.38655552081763744354248046875">
        <ele>759.5999755859375</ele>
        <time>2039-05-14T12:40:49.000Z</time>
      </trkpt>
      <trkpt lat="42.45011952705681324005126953125" lon="0.38631864823400974273681640625">
        <ele>760</ele>
        <time>2039-05-14T12:40:53.000Z</time>
      </trkpt>
      <trkpt lat="42.45011500082910060882568359375" lon="0.386085547506809234619140625">
        <ele>760.20001220703125</ele>
        <time>2039-05-14T12:40:57.000Z</time>
      </trkpt>
      <trkpt lat="42.450138889253139495849609375" lon="0.38553192280232906341552734375">
        <ele>760.5999755859375</ele>
        <time>2039-05-14T12:41:06.000Z</time>
      </trkpt>
      <trkpt lat="42.45014634914696216583251953125" lon="0.385029427707195281982421875">
        <ele>759.79998779296875</ele>
        <time>2039-05-14T12:41:14.000Z</time>
      </trkpt>
      <trkpt lat="42.4501310102641582489013671875" lon="0.3848988376557826995849609375">
        <ele>759.79998779296875</ele>
        <time>2039-05-14T12:41:16.000Z</time>
      </trkpt>
      <trkpt lat="42.450085915625095367431640625" lon="0.3846882842481136322021484375">
        <ele>759.4000244140625</ele>
        <time>2039-05-14T12:41:19.000Z</time>
      </trkpt>
      <trkpt lat="42.4500679783523082733154296875" lon="0.38461209274828433990478515625">
        <ele>759</ele>
        <time>2039-05-14T12:41:20.000Z</time>
      </trkpt>
      <trkpt lat="42.4500091373920440673828125" lon="0.38436449132859706878662109375">
        <ele>758</ele>
        <time>2039-05-14T12:41:23.000Z</time>
      </trkpt>
      <trkpt lat="42.44995859451591968536376953125" lon="0.3841924108564853668212890625">
        <ele>757.20001220703125</ele>
        <time>2039-05-14T12:41:25.000Z</time>
      </trkpt>
      <trkpt lat="42.44992607273161411285400390625" lon="0.38410683162510395050048828125">
        <ele>756.5999755859375</ele>
        <time>2039-05-14T12:41:26.000Z</time>
      </trkpt>
      <trkpt lat="42.44988768361508846282958984375" lon="0.38402183912694454193115234375">
        <ele>756</ele>
        <time>2039-05-14T12:41:27.000Z</time>
      </trkpt>
      <trkpt lat="42.4497891962528228759765625" lon="0.38386811502277851104736328125">
        <ele>755.20001220703125</ele>
        <time>2039-05-14T12:41:29.000Z</time>
      </trkpt>
      <trkpt lat="42.4495265074074268341064453125" lon="0.38364507257938385009765625">
        <ele>754.20001220703125</ele>
        <time>2039-05-14T12:41:33.000Z</time>
      </trkpt>
      <trkpt lat="42.4493783153593540191650390625" lon="0.38357072509825229644775390625">
        <ele>753.4000244140625</ele>
        <time>2039-05-14T12:41:35.000Z</time>
      </trkpt>
      <trkpt lat="42.44930346496403217315673828125" lon="0.3835362754762172698974609375">
        <ele>753</ele>
        <time>2039-05-14T12:41:36.000Z</time>
      </trkpt>
      <trkpt lat="42.44915141724050045013427734375" lon="0.3834876604378223419189453125">
        <ele>752.20001220703125</ele>
        <time>2039-05-14T12:41:38.000Z</time>
      </trkpt>
      <trkpt lat="42.44907581247389316558837890625" lon="0.38347718305885791778564453125">
        <ele>752</ele>
        <time>2039-05-14T12:41:39.000Z</time>
      </trkpt>
      <trkpt lat="42.449002303183078765869140625" lon="0.3834740817546844482421875">
        <ele>751.79998779296875</ele>
        <time>2039-05-14T12:41:40.000Z</time>
      </trkpt>
      <trkpt lat="42.4487486667931079864501953125" lon="0.3834843076765537261962890625">
        <ele>751.20001220703125</ele>
        <time>2039-05-14T12:41:44.000Z</time>
      </trkpt>
      <trkpt lat="42.44853031821548938751220703125" lon="0.3834568150341510772705078125">
        <ele>751.5999755859375</ele>
        <time>2039-05-14T12:41:49.000Z</time>
      </trkpt>
      <trkpt lat="42.4482296593487262725830078125" lon="0.38342672400176525115966796875">
        <ele>753</ele>
        <time>2039-05-14T12:41:58.000Z</time>
      </trkpt>
      <trkpt lat="42.44819688610732555389404296875" lon="0.38342739455401897430419921875">
        <ele>753.20001220703125</ele>
        <time>2039-05-14T12:41:59.000Z</time>
      </trkpt>
      <trkpt lat="42.44799840264022350311279296875" lon="0.3834584914147853851318359375">
        <ele>753.79998779296875</ele>
        <time>2039-05-14T12:42:05.000Z</time>
      </trkpt>
      <trkpt lat="42.44793235324323177337646484375" lon="0.3834660351276397705078125">
        <ele>754.20001220703125</ele>
        <time>2039-05-14T12:42:07.000Z</time>
      </trkpt>
      <trkpt lat="42.44776773266494274139404296875" lon="0.3834745846688747406005859375">
        <ele>755</ele>
        <time>2039-05-14T12:42:12.000Z</time>
      </trkpt>
      <trkpt lat="42.44767067022621631622314453125" lon="0.38348011672496795654296875">
        <ele>755.4000244140625</ele>
        <time>2039-05-14T12:42:15.000Z</time>
      </trkpt>
      <trkpt lat="42.4474491365253925323486328125" lon="0.38348740898072719573974609375">
        <ele>756.4000244140625</ele>
        <time>2039-05-14T12:42:22.000Z</time>
      </trkpt>
      <trkpt lat="42.4473537504673004150390625" lon="0.38349193520843982696533203125">
        <ele>756.5999755859375</ele>
        <time>2039-05-14T12:42:25.000Z</time>
      </trkpt>
      <trkpt lat="42.4471956677734851837158203125" lon="0.38350266404449939727783203125">
        <ele>757.5999755859375</ele>
        <time>2039-05-14T12:42:30.000Z</time>
      </trkpt>
      <trkpt lat="42.44713171385228633880615234375" lon="0.383493863046169281005859375">
        <ele>758</ele>
        <time>2039-05-14T12:42:32.000Z</time>
      </trkpt>
      <trkpt lat="42.446972541511058807373046875" lon="0.38344382308423519134521484375">
        <ele>758.79998779296875</ele>
        <time>2039-05-14T12:42:37.000Z</time>
      </trkpt>
      <trkpt lat="42.446820996701717376708984375" lon="0.38339504040777683258056640625">
        <ele>759.5999755859375</ele>
        <time>2039-05-14T12:42:42.000Z</time>
      </trkpt>
      <trkpt lat="42.446790821850299835205078125" lon="0.383382551372051239013671875">
        <ele>760</ele>
        <time>2039-05-14T12:42:43.000Z</time>
      </trkpt>
      <trkpt lat="42.44658387266099452972412109375" lon="0.38329328410327434539794921875">
        <ele>760.4000244140625</ele>
        <time>2039-05-14T12:42:50.000Z</time>
      </trkpt>
      <trkpt lat="42.44640818797051906585693359375" lon="0.38323075510561466217041015625">
        <ele>761</ele>
        <time>2039-05-14T12:42:56.000Z</time>
      </trkpt>
      <trkpt lat="42.44629763066768646240234375" lon="0.38316621445119380950927734375">
        <ele>762</ele>
        <time>2039-05-14T12:43:00.000Z</time>
      </trkpt>
      <trkpt lat="42.4462461657822132110595703125" lon="0.3831208683550357818603515625">
        <ele>762.20001220703125</ele>
        <time>2039-05-14T12:43:02.000Z</time>
      </trkpt>
      <trkpt lat="42.446063272655010223388671875" lon="0.38293940015137195587158203125">
        <ele>762.79998779296875</ele>
        <time>2039-05-14T12:43:09.000Z</time>
      </trkpt>
      <trkpt lat="42.4458290822803974151611328125" lon="0.38272767327725887298583984375">
        <ele>762.5999755859375</ele>
        <time>2039-05-14T12:43:17.000Z</time>
      </trkpt>
      <trkpt lat="42.4455459415912628173828125" lon="0.3826023638248443603515625">
        <ele>762.5999755859375</ele>
        <time>2039-05-14T12:43:25.000Z</time>
      </trkpt>
      <trkpt lat="42.445288114249706268310546875" lon="0.38263346068561077117919921875">
        <ele>762.20001220703125</ele>
        <time>2039-05-14T12:43:32.000Z</time>
      </trkpt>
      <trkpt lat="42.44519448839128017425537109375" lon="0.38269481621682643890380859375">
        <ele>761.79998779296875</ele>
        <time>2039-05-14T12:43:35.000Z</time>
      </trkpt>
      <trkpt lat="42.44512491859495639801025390625" lon="0.38276522420346736907958984375">
        <ele>761.5999755859375</ele>
        <time>2039-05-14T12:43:37.000Z</time>
      </trkpt>
      <trkpt lat="42.4450475536286830902099609375" lon="0.38286496885120868682861328125">
        <ele>761</ele>
        <time>2039-05-14T12:43:39.000Z</time>
      </trkpt>
      <trkpt lat="42.44492325000464916229248046875" lon="0.38306529633700847625732421875">
        <ele>760</ele>
        <time>2039-05-14T12:43:42.000Z</time>
      </trkpt>
      <trkpt lat="42.44484546594321727752685546875" lon="0.38322706706821918487548828125">
        <ele>759</ele>
        <time>2039-05-14T12:43:44.000Z</time>
      </trkpt>
      <trkpt lat="42.44482015259563922882080078125" lon="0.38332094438374042510986328125">
        <ele>758.20001220703125</ele>
        <time>2039-05-14T12:43:45.000Z</time>
      </trkpt>
      <trkpt lat="42.4448074959218502044677734375" lon="0.3834204375743865966796875">
        <ele>757.5999755859375</ele>
        <time>2039-05-14T12:43:46.000Z</time>
      </trkpt>
      <trkpt lat="42.44480288587510585784912109375" lon="0.38351892493665218353271484375">
        <ele>757.20001220703125</ele>
        <time>2039-05-14T12:43:47.000Z</time>
      </trkpt>
      <trkpt lat="42.4447940848767757415771484375" lon="0.3838081844151020050048828125">
        <ele>756</ele>
        <time>2039-05-14T12:43:50.000Z</time>
      </trkpt>
      <trkpt lat="42.444782517850399017333984375" lon="0.38409912027418613433837890625">
        <ele>754.5999755859375</ele>
        <time>2039-05-14T12:43:53.000Z</time>
      </trkpt>
      <trkpt lat="42.44473046623170375823974609375" lon="0.38439718075096607208251953125">
        <ele>753.5999755859375</ele>
        <time>2039-05-14T12:43:56.000Z</time>
      </trkpt>
      <trkpt lat="42.44468268938362598419189453125" lon="0.38459750823676586151123046875">
        <ele>753</ele>
        <time>2039-05-14T12:43:58.000Z</time>
      </trkpt>
      <trkpt lat="42.44465955533087253570556640625" lon="0.3846993483603000640869140625">
        <ele>752.4000244140625</ele>
        <time>2039-05-14T12:43:59.000Z</time>
      </trkpt>
      <trkpt lat="42.44458210654556751251220703125" lon="0.38500855676829814910888671875">
        <ele>751.20001220703125</ele>
        <time>2039-05-14T12:44:02.000Z</time>
      </trkpt>
      <trkpt lat="42.44451153092086315155029296875" lon="0.3852139972150325775146484375">
        <ele>750.79998779296875</ele>
        <time>2039-05-14T12:44:04.000Z</time>
      </trkpt>
      <trkpt lat="42.44442033581435680389404296875" lon="0.385405607521533966064453125">
        <ele>749.79998779296875</ele>
        <time>2039-05-14T12:44:06.000Z</time>
      </trkpt>
      <trkpt lat="42.44432813487946987152099609375" lon="0.38559059612452983856201171875">
        <ele>748.5999755859375</ele>
        <time>2039-05-14T12:44:08.000Z</time>
      </trkpt>
      <trkpt lat="42.44423794560134410858154296875" lon="0.38577181287109851837158203125">
        <ele>748.4000244140625</ele>
        <time>2039-05-14T12:44:10.000Z</time>
      </trkpt>
      <trkpt lat="42.4441034160554409027099609375" lon="0.3860287182033061981201171875">
        <ele>747.4000244140625</ele>
        <time>2039-05-14T12:44:13.000Z</time>
      </trkpt>
      <trkpt lat="42.443903423845767974853515625" lon="0.38633256219327449798583984375">
        <ele>746.5999755859375</ele>
        <time>2039-05-14T12:44:17.000Z</time>
      </trkpt>
      <trkpt lat="42.4436521343886852264404296875" lon="0.38667730987071990966796875">
        <ele>745.4000244140625</ele>
        <time>2039-05-14T12:44:22.000Z</time>
      </trkpt>
      <trkpt lat="42.44344937615096569061279296875" lon="0.3869285993278026580810546875">
        <ele>744.4000244140625</ele>
        <time>2039-05-14T12:44:26.000Z</time>
      </trkpt>
      <trkpt lat="42.4432615377008914947509765625" lon="0.38719623349606990814208984375">
        <ele>743.20001220703125</ele>
        <time>2039-05-14T12:44:30.000Z</time>
      </trkpt>
      <trkpt lat="42.44309532456099987030029296875" lon="0.3874895162880420684814453125">
        <ele>742.20001220703125</ele>
        <time>2039-05-14T12:44:34.000Z</time>
      </trkpt>
      <trkpt lat="42.44306565262377262115478515625" lon="0.38757358677685260772705078125">
        <ele>741.79998779296875</ele>
        <time>2039-05-14T12:44:35.000Z</time>
      </trkpt>
      <trkpt lat="42.442980073392391204833984375" lon="0.38783258758485317230224609375">
        <ele>741.20001220703125</ele>
        <time>2039-05-14T12:44:38.000Z</time>
      </trkpt>
      <trkpt lat="42.44294327683746814727783203125" lon="0.38790953345596790313720703125">
        <ele>741.20001220703125</ele>
        <time>2039-05-14T12:44:39.000Z</time>
      </trkpt>
      <trkpt lat="42.44286247529089450836181640625" lon="0.38804925978183746337890625">
        <ele>740.79998779296875</ele>
        <time>2039-05-14T12:44:41.000Z</time>
      </trkpt>
      <trkpt lat="42.44269408285617828369140625" lon="0.38829459808766841888427734375">
        <ele>740.5999755859375</ele>
        <time>2039-05-14T12:44:45.000Z</time>
      </trkpt>
      <trkpt lat="42.44242913089692592620849609375" lon="0.3886515833437442779541015625">
        <ele>740.5999755859375</ele>
        <time>2039-05-14T12:44:52.000Z</time>
      </trkpt>
      <trkpt lat="42.4422473274171352386474609375" lon="0.3887642361223697662353515625">
        <ele>740.5999755859375</ele>
        <time>2039-05-14T12:44:56.000Z</time>
      </trkpt>
      <trkpt lat="42.44219720363616943359375" lon="0.388780497014522552490234375">
        <ele>740.5999755859375</ele>
        <time>2039-05-14T12:44:57.000Z</time>
      </trkpt>
      <trkpt lat="42.4418205209076404571533203125" lon="0.38884612731635570526123046875">
        <ele>740</ele>
        <time>2039-05-14T12:45:04.000Z</time>
      </trkpt>
      <trkpt lat="42.4417615123093128204345703125" lon="0.38884964771568775177001953125">
        <ele>739.79998779296875</ele>
        <time>2039-05-14T12:45:05.000Z</time>
      </trkpt>
      <trkpt lat="42.44145247153937816619873046875" lon="0.38879466243088245391845703125">
        <ele>739.20001220703125</ele>
        <time>2039-05-14T12:45:10.000Z</time>
      </trkpt>
      <trkpt lat="42.44132456369698047637939453125" lon="0.3887330554425716400146484375">
        <ele>738.5999755859375</ele>
        <time>2039-05-14T12:45:12.000Z</time>
      </trkpt>
      <trkpt lat="42.441203109920024871826171875" lon="0.38863741792738437652587890625">
        <ele>738.20001220703125</ele>
        <time>2039-05-14T12:45:14.000Z</time>
      </trkpt>
      <trkpt lat="42.44103035889565944671630859375" lon="0.38847330026328563690185546875">
        <ele>737.4000244140625</ele>
        <time>2039-05-14T12:45:17.000Z</time>
      </trkpt>
      <trkpt lat="42.440816201269626617431640625" lon="0.38823408074676990509033203125">
        <ele>736.79998779296875</ele>
        <time>2039-05-14T12:45:21.000Z</time>
      </trkpt>
      <trkpt lat="42.44077353738248348236083984375" lon="0.388162918388843536376953125">
        <ele>736.79998779296875</ele>
        <time>2039-05-14T12:45:22.000Z</time>
      </trkpt>
      <trkpt lat="42.44063288904726505279541015625" lon="0.38779017515480518341064453125">
        <ele>736.5999755859375</ele>
        <time>2039-05-14T12:45:27.000Z</time>
      </trkpt>
      <trkpt lat="42.4406212382018566131591796875" lon="0.3877138160169124603271484375">
        <ele>736.79998779296875</ele>
        <time>2039-05-14T12:45:28.000Z</time>
      </trkpt>
      <trkpt lat="42.44059860706329345703125" lon="0.387585572898387908935546875">
        <ele>737</ele>
        <time>2039-05-14T12:45:30.000Z</time>
      </trkpt>
      <trkpt lat="42.44055443443357944488525390625" lon="0.3874834813177585601806640625">
        <ele>737.20001220703125</ele>
        <time>2039-05-14T12:45:32.000Z</time>
      </trkpt>
      <trkpt lat="42.44038947857916355133056640625" lon="0.38727301172912120819091796875">
        <ele>737.5999755859375</ele>
        <time>2039-05-14T12:45:38.000Z</time>
      </trkpt>
      <trkpt lat="42.44024363346397876739501953125" lon="0.3871193714439868927001953125">
        <ele>738.4000244140625</ele>
        <time>2039-05-14T12:45:43.000Z</time>
      </trkpt>
      <trkpt lat="42.44017682969570159912109375" lon="0.387074947357177734375">
        <ele>738.4000244140625</ele>
        <time>2039-05-14T12:45:45.000Z</time>
      </trkpt>
      <trkpt lat="42.439978010952472686767578125" lon="0.3870090655982494354248046875">
        <ele>738.79998779296875</ele>
        <time>2039-05-14T12:45:51.000Z</time>
      </trkpt>
      <trkpt lat="42.43965086527168750762939453125" lon="0.3870486281812191009521484375">
        <ele>739</ele>
        <time>2039-05-14T12:46:00.000Z</time>
      </trkpt>
      <trkpt lat="42.4393294192850589752197265625" lon="0.38716538809239864349365234375">
        <ele>739</ele>
        <time>2039-05-14T12:46:09.000Z</time>
      </trkpt>
      <trkpt lat="42.4389933049678802490234375" lon="0.38725121878087520599365234375">
        <ele>739.4000244140625</ele>
        <time>2039-05-14T12:46:18.000Z</time>
      </trkpt>
      <trkpt lat="42.4387312866747379302978515625" lon="0.38718835450708866119384765625">
        <ele>739.5999755859375</ele>
        <time>2039-05-14T12:46:25.000Z</time>
      </trkpt>
      <trkpt lat="42.43862844072282314300537109375" lon="0.38715985603630542755126953125">
        <ele>739.79998779296875</ele>
        <time>2039-05-14T12:46:28.000Z</time>
      </trkpt>
      <trkpt lat="42.43850807659327983856201171875" lon="0.38712792098522186279296875">
        <ele>740.5999755859375</ele>
        <time>2039-05-14T12:46:32.000Z</time>
      </trkpt>
      <trkpt lat="42.438397519290447235107421875" lon="0.38710922934114933013916015625">
        <ele>741.20001220703125</ele>
        <time>2039-05-14T12:46:36.000Z</time>
      </trkpt>
      <trkpt lat="42.4382779933512210845947265625" lon="0.38712951354682445526123046875">
        <ele>741.79998779296875</ele>
        <time>2039-05-14T12:46:40.000Z</time>
      </trkpt>
      <trkpt lat="42.43818989954888820648193359375" lon="0.3871272504329681396484375">
        <ele>742.20001220703125</ele>
        <time>2039-05-14T12:46:43.000Z</time>
      </trkpt>
      <trkpt lat="42.43807892315089702606201171875" lon="0.387081317603588104248046875">
        <ele>743</ele>
        <time>2039-05-14T12:46:47.000Z</time>
      </trkpt>
      <trkpt lat="42.4380228482186794281005859375" lon="0.387041084468364715576171875">
        <ele>743.20001220703125</ele>
        <time>2039-05-14T12:46:49.000Z</time>
      </trkpt>
      <trkpt lat="42.43779879994690418243408203125" lon="0.3868494741618633270263671875">
        <ele>744.4000244140625</ele>
        <time>2039-05-14T12:46:58.000Z</time>
      </trkpt>
      <trkpt lat="42.4376627616584300994873046875" lon="0.3867358155548572540283203125">
        <ele>745.4000244140625</ele>
        <time>2039-05-14T12:47:04.000Z</time>
      </trkpt>
      <trkpt lat="42.43764155544340610504150390625" lon="0.38672399707138538360595703125">
        <ele>745.4000244140625</ele>
        <time>2039-05-14T12:47:05.000Z</time>
      </trkpt>
      <trkpt lat="42.4375460855662822723388671875" lon="0.38667001761496067047119140625">
        <ele>746.4000244140625</ele>
        <time>2039-05-14T12:47:10.000Z</time>
      </trkpt>
      <trkpt lat="42.437526471912860870361328125" lon="0.38666515611112117767333984375">
        <ele>746.79998779296875</ele>
        <time>2039-05-14T12:47:11.000Z</time>
      </trkpt>
      <trkpt lat="42.4374096281826496124267578125" lon="0.3866764716804027557373046875">
        <ele>747.5999755859375</ele>
        <time>2039-05-14T12:47:16.000Z</time>
      </trkpt>
      <trkpt lat="42.437385655939579010009765625" lon="0.38668024353682994842529296875">
        <ele>747.79998779296875</ele>
        <time>2039-05-14T12:47:17.000Z</time>
      </trkpt>
      <trkpt lat="42.4372681416571140289306640625" lon="0.3866927325725555419921875">
        <ele>748.79998779296875</ele>
        <time>2039-05-14T12:47:22.000Z</time>
      </trkpt>
      <trkpt lat="42.43719949387013912200927734375" lon="0.386696755886077880859375">
        <ele>750</ele>
        <time>2039-05-14T12:47:25.000Z</time>
      </trkpt>
      <trkpt lat="42.43715389631688594818115234375" lon="0.3866992704570293426513671875">
        <ele>750.5999755859375</ele>
        <time>2039-05-14T12:47:27.000Z</time>
      </trkpt>
      <trkpt lat="42.43708700872957706451416015625" lon="0.38669583387672901153564453125">
        <ele>751.20001220703125</ele>
        <time>2039-05-14T12:47:30.000Z</time>
      </trkpt>
      <trkpt lat="42.4369580112397670745849609375" lon="0.3866942413151264190673828125">
        <ele>752</ele>
        <time>2039-05-14T12:47:36.000Z</time>
      </trkpt>
      <trkpt lat="42.4369360506534576416015625" lon="0.3866929002106189727783203125">
        <ele>752.20001220703125</ele>
        <time>2039-05-14T12:47:37.000Z</time>
      </trkpt>
      <trkpt lat="42.436830103397369384765625" lon="0.3866727836430072784423828125">
        <ele>753</ele>
        <time>2039-05-14T12:47:42.000Z</time>
      </trkpt>
      <trkpt lat="42.4368099868297576904296875" lon="0.3866667486727237701416015625">
        <ele>753.20001220703125</ele>
        <time>2039-05-14T12:47:43.000Z</time>
      </trkpt>
      <trkpt lat="42.43667277507483959197998046875" lon="0.386617295444011688232421875">
        <ele>754.20001220703125</ele>
        <time>2039-05-14T12:47:50.000Z</time>
      </trkpt>
      <trkpt lat="42.43665433488786220550537109375" lon="0.3866084106266498565673828125">
        <ele>754.4000244140625</ele>
        <time>2039-05-14T12:47:51.000Z</time>
      </trkpt>
      <trkpt lat="42.436576299369335174560546875" lon="0.38659273646771907806396484375">
        <ele>755.4000244140625</ele>
        <time>2039-05-14T12:47:55.000Z</time>
      </trkpt>
      <trkpt lat="42.4365161173045635223388671875" lon="0.3866114281117916107177734375">
        <ele>755.79998779296875</ele>
        <time>2039-05-14T12:47:58.000Z</time>
      </trkpt>
      <trkpt lat="42.4363996088504791259765625" lon="0.38667806424200534820556640625">
        <ele>756.4000244140625</ele>
        <time>2039-05-14T12:48:04.000Z</time>
      </trkpt>
      <trkpt lat="42.4363642372190952301025390625" lon="0.38670337758958339691162109375">
        <ele>756.79998779296875</ele>
        <time>2039-05-14T12:48:06.000Z</time>
      </trkpt>
      <trkpt lat="42.436226941645145416259765625" lon="0.3867773897945880889892578125">
        <ele>757.79998779296875</ele>
        <time>2039-05-14T12:48:13.000Z</time>
      </trkpt>
      <trkpt lat="42.43620657362043857574462890625" lon="0.38678518496453762054443359375">
        <ele>757.79998779296875</ele>
        <time>2039-05-14T12:48:14.000Z</time>
      </trkpt>
      <trkpt lat="42.43604429997503757476806640625" lon="0.38684637285768985748291015625">
        <ele>758.79998779296875</ele>
        <time>2039-05-14T12:48:22.000Z</time>
      </trkpt>
      <trkpt lat="42.4360078386962413787841796875" lon="0.3868709318339824676513671875">
        <ele>759.20001220703125</ele>
        <time>2039-05-14T12:48:24.000Z</time>
      </trkpt>
      <trkpt lat="42.43593231774866580963134765625" lon="0.386938489973545074462890625">
        <ele>759.79998779296875</ele>
        <time>2039-05-14T12:48:28.000Z</time>
      </trkpt>
      <trkpt lat="42.4358224309980869293212890625" lon="0.38703898899257183074951171875">
        <ele>759.79998779296875</ele>
        <time>2039-05-14T12:48:33.000Z</time>
      </trkpt>
      <trkpt lat="42.43561715818941593170166015625" lon="0.38711392320692539215087890625">
        <ele>760.4000244140625</ele>
        <time>2039-05-14T12:48:41.000Z</time>
      </trkpt>
      <trkpt lat="42.435457147657871246337890625" lon="0.38707318715751171112060546875">
        <ele>760.79998779296875</ele>
        <time>2039-05-14T12:48:47.000Z</time>
      </trkpt>
      <trkpt lat="42.43543208576738834381103515625" lon="0.38707000203430652618408203125">
        <ele>761</ele>
        <time>2039-05-14T12:48:48.000Z</time>
      </trkpt>
      <trkpt lat="42.4352544732391834259033203125" lon="0.3871411643922328948974609375">
        <ele>761.20001220703125</ele>
        <time>2039-05-14T12:48:55.000Z</time>
      </trkpt>
      <trkpt lat="42.43501734919846057891845703125" lon="0.38732380606234073638916015625">
        <ele>761.4000244140625</ele>
        <time>2039-05-14T12:49:05.000Z</time>
      </trkpt>
      <trkpt lat="42.43482984602451324462890625" lon="0.3874972276389598846435546875">
        <ele>761</ele>
        <time>2039-05-14T12:49:13.000Z</time>
      </trkpt>
      <trkpt lat="42.43461116217076778411865234375" lon="0.387585572898387908935546875">
        <ele>761.79998779296875</ele>
        <time>2039-05-14T12:49:21.000Z</time>
      </trkpt>
      <trkpt lat="42.4345845915377140045166015625" lon="0.38759437389671802520751953125">
        <ele>762</ele>
        <time>2039-05-14T12:49:22.000Z</time>
      </trkpt>
      <trkpt lat="42.434395663440227508544921875" lon="0.38768053986132144927978515625">
        <ele>763</ele>
        <time>2039-05-14T12:49:29.000Z</time>
      </trkpt>
      <trkpt lat="42.4343155324459075927734375" lon="0.3877161629498004913330078125">
        <ele>763.20001220703125</ele>
        <time>2039-05-14T12:49:32.000Z</time>
      </trkpt>
      <trkpt lat="42.43419952690601348876953125" lon="0.387702919542789459228515625">
        <ele>764</ele>
        <time>2039-05-14T12:49:36.000Z</time>
      </trkpt>
      <trkpt lat="42.43417203426361083984375" lon="0.38769311271607875823974609375">
        <ele>764.20001220703125</ele>
        <time>2039-05-14T12:49:37.000Z</time>
      </trkpt>
      <trkpt lat="42.43397883139550685882568359375" lon="0.387678779661655426025390625">
        <ele>764.79998779296875</ele>
        <time>2039-05-14T12:49:44.000Z</time>
      </trkpt>
      <trkpt lat="42.4338677711784839630126953125" lon="0.38765924982726573944091796875">
        <ele>765.20001220703125</ele>
        <time>2039-05-14T12:49:48.000Z</time>
      </trkpt>
      <trkpt lat="42.4337936751544475555419921875" lon="0.38761080242693424224853515625">
        <ele>765.79998779296875</ele>
        <time>2039-05-14T12:49:51.000Z</time>
      </trkpt>
      <trkpt lat="42.43364606983959674835205078125" lon="0.38749940693378448486328125">
        <ele>766.4000244140625</ele>
        <time>2039-05-14T12:49:57.000Z</time>
      </trkpt>
      <trkpt lat="42.4335985444486141204833984375" lon="0.3874590061604976654052734375">
        <ele>766.5999755859375</ele>
        <time>2039-05-14T12:49:59.000Z</time>
      </trkpt>
      <trkpt lat="42.4334245361387729644775390625" lon="0.3872511349618434906005859375">
        <ele>767.20001220703125</ele>
        <time>2039-05-14T12:50:07.000Z</time>
      </trkpt>
      <trkpt lat="42.4333910085260868072509765625" lon="0.38719304837286472320556640625">
        <ele>767.4000244140625</ele>
        <time>2039-05-14T12:50:09.000Z</time>
      </trkpt>
      <trkpt lat="42.43327139876782894134521484375" lon="0.3869983367621898651123046875">
        <ele>768.4000244140625</ele>
        <time>2039-05-14T12:50:16.000Z</time>
      </trkpt>
      <trkpt lat="42.43325631134212017059326171875" lon="0.386970005929470062255859375">
        <ele>768.4000244140625</ele>
        <time>2039-05-14T12:50:17.000Z</time>
      </trkpt>
      <trkpt lat="42.43312060832977294921875" lon="0.38679356686770915985107421875">
        <ele>769.5999755859375</ele>
        <time>2039-05-14T12:50:24.000Z</time>
      </trkpt>
      <trkpt lat="42.433099485933780670166015625" lon="0.3867705166339874267578125">
        <ele>769.5999755859375</ele>
        <time>2039-05-14T12:50:25.000Z</time>
      </trkpt>
      <trkpt lat="42.43290779180824756622314453125" lon="0.3865537606179714202880859375">
        <ele>770.5999755859375</ele>
        <time>2039-05-14T12:50:34.000Z</time>
      </trkpt>
      <trkpt lat="42.43288599886000156402587890625" lon="0.38653255440294742584228515625">
        <ele>770.79998779296875</ele>
        <time>2039-05-14T12:50:35.000Z</time>
      </trkpt>
      <trkpt lat="42.43275105021893978118896484375" lon="0.386339016258716583251953125">
        <ele>771.79998779296875</ele>
        <time>2039-05-14T12:50:42.000Z</time>
      </trkpt>
      <trkpt lat="42.43267209269106388092041015625" lon="0.3862369246780872344970703125">
        <ele>772.20001220703125</ele>
        <time>2039-05-14T12:50:46.000Z</time>
      </trkpt>
      <trkpt lat="42.43257603608071804046630859375" lon="0.38610507734119892120361328125">
        <ele>772.79998779296875</ele>
        <time>2039-05-14T12:50:51.000Z</time>
      </trkpt>
      <trkpt lat="42.43251568637788295745849609375" lon="0.3860317356884479522705078125">
        <ele>773</ele>
        <time>2039-05-14T12:50:54.000Z</time>
      </trkpt>
      <trkpt lat="42.43238098919391632080078125" lon="0.385836772620677947998046875">
        <ele>773.4000244140625</ele>
        <time>2039-05-14T12:51:01.000Z</time>
      </trkpt>
      <trkpt lat="42.43232675828039646148681640625" lon="0.38574130274355411529541015625">
        <ele>773.79998779296875</ele>
        <time>2039-05-14T12:51:04.000Z</time>
      </trkpt>
      <trkpt lat="42.43220807053148746490478515625" lon="0.3854959644377231597900390625">
        <ele>774.4000244140625</ele>
        <time>2039-05-14T12:51:11.000Z</time>
      </trkpt>
      <trkpt lat="42.432086952030658721923828125" lon="0.38520519621670246124267578125">
        <ele>774.79998779296875</ele>
        <time>2039-05-14T12:51:19.000Z</time>
      </trkpt>
      <trkpt lat="42.43206189014017581939697265625" lon="0.38512858562171459197998046875">
        <ele>775</ele>
        <time>2039-05-14T12:51:21.000Z</time>
      </trkpt>
      <trkpt lat="42.43192191235721111297607421875" lon="0.38480320014059543609619140625">
        <ele>775.5999755859375</ele>
        <time>2039-05-14T12:51:30.000Z</time>
      </trkpt>
      <trkpt lat="42.43180590681731700897216796875" lon="0.38463656790554523468017578125">
        <ele>776</ele>
        <time>2039-05-14T12:51:36.000Z</time>
      </trkpt>
      <trkpt lat="42.4317763186991214752197265625" lon="0.38462969474494457244873046875">
        <ele>776.20001220703125</ele>
        <time>2039-05-14T12:51:37.000Z</time>
      </trkpt>
      <trkpt lat="42.43163709528744220733642578125" lon="0.38463841192424297332763671875">
        <ele>776</ele>
        <time>2039-05-14T12:51:41.000Z</time>
      </trkpt>
      <trkpt lat="42.4314990453422069549560546875" lon="0.38467847742140293121337890625">
        <ele>775</ele>
        <time>2039-05-14T12:51:44.000Z</time>
      </trkpt>
      <trkpt lat="42.43138429708778858184814453125" lon="0.38470060564577579498291015625">
        <ele>774.4000244140625</ele>
        <time>2039-05-14T12:51:46.000Z</time>
      </trkpt>
      <trkpt lat="42.43125102482736110687255859375" lon="0.3846852667629718780517578125">
        <ele>774</ele>
        <time>2039-05-14T12:51:48.000Z</time>
      </trkpt>
      <trkpt lat="42.4311801977455615997314453125" lon="0.384659953415393829345703125">
        <ele>773.4000244140625</ele>
        <time>2039-05-14T12:51:49.000Z</time>
      </trkpt>
      <trkpt lat="42.43103443644940853118896484375" lon="0.38458116352558135986328125">
        <ele>772</ele>
        <time>2039-05-14T12:51:51.000Z</time>
      </trkpt>
      <trkpt lat="42.43096034042537212371826171875" lon="0.3845322132110595703125">
        <ele>771.20001220703125</ele>
        <time>2039-05-14T12:51:52.000Z</time>
      </trkpt>
      <trkpt lat="42.4308881722390651702880859375" lon="0.38447714410722255706787109375">
        <ele>770.79998779296875</ele>
        <time>2039-05-14T12:51:53.000Z</time>
      </trkpt>
      <trkpt lat="42.4308207817375659942626953125" lon="0.3844116814434528350830078125">
        <ele>770.20001220703125</ele>
        <time>2039-05-14T12:51:54.000Z</time>
      </trkpt>
      <trkpt lat="42.430759929120540618896484375" lon="0.38433364592492580413818359375">
        <ele>769.4000244140625</ele>
        <time>2039-05-14T12:51:55.000Z</time>
      </trkpt>
      <trkpt lat="42.43070125579833984375" lon="0.38424546830356121063232421875">
        <ele>768.79998779296875</ele>
        <time>2039-05-14T12:51:56.000Z</time>
      </trkpt>
      <trkpt lat="42.43063730187714099884033203125" lon="0.38415796123445034027099609375">
        <ele>768.20001220703125</ele>
        <time>2039-05-14T12:51:57.000Z</time>
      </trkpt>
      <trkpt lat="42.43047662079334259033203125" lon="0.3840076737105846405029296875">
        <ele>767.20001220703125</ele>
        <time>2039-05-14T12:51:59.000Z</time>
      </trkpt>
      <trkpt lat="42.43029263801872730255126953125" lon="0.38386794738471508026123046875">
        <ele>765.20001220703125</ele>
        <time>2039-05-14T12:52:01.000Z</time>
      </trkpt>
      <trkpt lat="42.43019892834126949310302734375" lon="0.38379955105483531951904296875">
        <ele>764</ele>
        <time>2039-05-14T12:52:02.000Z</time>
      </trkpt>
      <trkpt lat="42.43000765331089496612548828125" lon="0.383681617677211761474609375">
        <ele>762.5999755859375</ele>
        <time>2039-05-14T12:52:04.000Z</time>
      </trkpt>
      <trkpt lat="42.429908327758312225341796875" lon="0.38364297710359096527099609375">
        <ele>761.5999755859375</ele>
        <time>2039-05-14T12:52:05.000Z</time>
      </trkpt>
      <trkpt lat="42.42980933748185634613037109375" lon="0.38361414335668087005615234375">
        <ele>760.4000244140625</ele>
        <time>2039-05-14T12:52:06.000Z</time>
      </trkpt>
      <trkpt lat="42.429628707468509674072265625" lon="0.3835738264024257659912109375">
        <ele>759.20001220703125</ele>
        <time>2039-05-14T12:52:08.000Z</time>
      </trkpt>
      <trkpt lat="42.429548241198062896728515625" lon="0.383566282689571380615234375">
        <ele>758.5999755859375</ele>
        <time>2039-05-14T12:52:09.000Z</time>
      </trkpt>
      <trkpt lat="42.429471127688884735107421875" lon="0.3835785202682018280029296875">
        <ele>757.5999755859375</ele>
        <time>2039-05-14T12:52:10.000Z</time>
      </trkpt>
      <trkpt lat="42.42939443327486515045166015625" lon="0.3836066834628582000732421875">
        <ele>757</ele>
        <time>2039-05-14T12:52:11.000Z</time>
      </trkpt>
      <trkpt lat="42.4293143860995769500732421875" lon="0.38364029489457607269287109375">
        <ele>756.4000244140625</ele>
        <time>2039-05-14T12:52:12.000Z</time>
      </trkpt>
      <trkpt lat="42.4291534535586833953857421875" lon="0.38371304981410503387451171875">
        <ele>755.20001220703125</ele>
        <time>2039-05-14T12:52:14.000Z</time>
      </trkpt>
      <trkpt lat="42.42908187210559844970703125" lon="0.38375915028154850006103515625">
        <ele>754.79998779296875</ele>
        <time>2039-05-14T12:52:15.000Z</time>
      </trkpt>
      <trkpt lat="42.429018504917621612548828125" lon="0.383820421993732452392578125">
        <ele>754.4000244140625</ele>
        <time>2039-05-14T12:52:16.000Z</time>
      </trkpt>
      <trkpt lat="42.42896527983248233795166015625" lon="0.38389795459806919097900390625">
        <ele>753.5999755859375</ele>
        <time>2039-05-14T12:52:17.000Z</time>
      </trkpt>
      <trkpt lat="42.42889185436069965362548828125" lon="0.384087972342967987060546875">
        <ele>752</ele>
        <time>2039-05-14T12:52:19.000Z</time>
      </trkpt>
      <trkpt lat="42.4288627691566944122314453125" lon="0.38419081829488277435302734375">
        <ele>751.20001220703125</ele>
        <time>2039-05-14T12:52:20.000Z</time>
      </trkpt>
      <trkpt lat="42.42883804254233837127685546875" lon="0.38429710082709789276123046875">
        <ele>750.79998779296875</ele>
        <time>2039-05-14T12:52:21.000Z</time>
      </trkpt>
      <trkpt lat="42.42878942750394344329833984375" lon="0.38452123291790485382080078125">
        <ele>749.5999755859375</ele>
        <time>2039-05-14T12:52:23.000Z</time>
      </trkpt>
      <trkpt lat="42.42876377888023853302001953125" lon="0.3846326284110546112060546875">
        <ele>749.20001220703125</ele>
        <time>2039-05-14T12:52:24.000Z</time>
      </trkpt>
      <trkpt lat="42.42874198593199253082275390625" lon="0.38474905304610729217529296875">
        <ele>748.5999755859375</ele>
        <time>2039-05-14T12:52:25.000Z</time>
      </trkpt>
      <trkpt lat="42.42872840724885463714599609375" lon="0.38486639969050884246826171875">
        <ele>748</ele>
        <time>2039-05-14T12:52:26.000Z</time>
      </trkpt>
      <trkpt lat="42.4287286587059497833251953125" lon="0.38498307578265666961669921875">
        <ele>747.5999755859375</ele>
        <time>2039-05-14T12:52:27.000Z</time>
      </trkpt>
      <trkpt lat="42.42873678915202617645263671875" lon="0.38509706966578960418701171875">
        <ele>747.20001220703125</ele>
        <time>2039-05-14T12:52:28.000Z</time>
      </trkpt>
      <trkpt lat="42.42874969728291034698486328125" lon="0.38532706908881664276123046875">
        <ele>746.4000244140625</ele>
        <time>2039-05-14T12:52:30.000Z</time>
      </trkpt>
      <trkpt lat="42.4287450872361660003662109375" lon="0.38544508628547191619873046875">
        <ele>745.5999755859375</ele>
        <time>2039-05-14T12:52:31.000Z</time>
      </trkpt>
      <trkpt lat="42.42873142473399639129638671875" lon="0.38556243292987346649169921875">
        <ele>745.20001220703125</ele>
        <time>2039-05-14T12:52:32.000Z</time>
      </trkpt>
      <trkpt lat="42.42868758738040924072265625" lon="0.38579025305807590484619140625">
        <ele>744.4000244140625</ele>
        <time>2039-05-14T12:52:34.000Z</time>
      </trkpt>
      <trkpt lat="42.42865808308124542236328125" lon="0.38589200936257839202880859375">
        <ele>744</ele>
        <time>2039-05-14T12:52:35.000Z</time>
      </trkpt>
      <trkpt lat="42.4286153353750705718994140625" lon="0.38597725331783294677734375">
        <ele>743.5999755859375</ele>
        <time>2039-05-14T12:52:36.000Z</time>
      </trkpt>
      <trkpt lat="42.42855506949126720428466796875" lon="0.3860394470393657684326171875">
        <ele>743.4000244140625</ele>
        <time>2039-05-14T12:52:37.000Z</time>
      </trkpt>
      <trkpt lat="42.42840620689094066619873046875" lon="0.3861209191381931304931640625">
        <ele>742.4000244140625</ele>
        <time>2039-05-14T12:52:39.000Z</time>
      </trkpt>
      <trkpt lat="42.4283286742866039276123046875" lon="0.3861614875495433807373046875">
        <ele>742</ele>
        <time>2039-05-14T12:52:40.000Z</time>
      </trkpt>
      <trkpt lat="42.4281679093837738037109375" lon="0.38624874316155910491943359375">
        <ele>740.79998779296875</ele>
        <time>2039-05-14T12:52:42.000Z</time>
      </trkpt>
      <trkpt lat="42.4279206432402133941650390625" lon="0.38641537539660930633544921875">
        <ele>739.5999755859375</ele>
        <time>2039-05-14T12:52:45.000Z</time>
      </trkpt>
      <trkpt lat="42.4276852793991565704345703125" lon="0.3866258449852466583251953125">
        <ele>738.20001220703125</ele>
        <time>2039-05-14T12:52:48.000Z</time>
      </trkpt>
      <trkpt lat="42.427545301616191864013671875" lon="0.386759452521800994873046875">
        <ele>737</ele>
        <time>2039-05-14T12:52:50.000Z</time>
      </trkpt>
      <trkpt lat="42.42741043679416179656982421875" lon="0.38689096458256244659423828125">
        <ele>735.4000244140625</ele>
        <time>2039-05-14T12:52:52.000Z</time>
      </trkpt>
      <trkpt lat="42.4272008053958415985107421875" lon="0.3870843350887298583984375">
        <ele>734.4000244140625</ele>
        <time>2039-05-14T12:52:55.000Z</time>
      </trkpt>
      <trkpt lat="42.42705051787197589874267578125" lon="0.38718718104064464569091796875">
        <ele>733.20001220703125</ele>
        <time>2039-05-14T12:52:57.000Z</time>
      </trkpt>
      <trkpt lat="42.42688455618917942047119140625" lon="0.3872390650212764739990234375">
        <ele>731.79998779296875</ele>
        <time>2039-05-14T12:52:59.000Z</time>
      </trkpt>
      <trkpt lat="42.42672446183860301971435546875" lon="0.387279801070690155029296875">
        <ele>730.20001220703125</ele>
        <time>2039-05-14T12:53:01.000Z</time>
      </trkpt>
      <trkpt lat="42.42665112018585205078125" lon="0.3872910328209400177001953125">
        <ele>729.4000244140625</ele>
        <time>2039-05-14T12:53:02.000Z</time>
      </trkpt>
      <trkpt lat="42.4265795387327671051025390625" lon="0.38728843443095684051513671875">
        <ele>728.5999755859375</ele>
        <time>2039-05-14T12:53:03.000Z</time>
      </trkpt>
      <trkpt lat="42.426433861255645751953125" lon="0.3872481174767017364501953125">
        <ele>728.20001220703125</ele>
        <time>2039-05-14T12:53:05.000Z</time>
      </trkpt>
      <trkpt lat="42.42629237473011016845703125" lon="0.3872105665504932403564453125">
        <ele>727.20001220703125</ele>
        <time>2039-05-14T12:53:07.000Z</time>
      </trkpt>
      <trkpt lat="42.426158599555492401123046875" lon="0.387215428054332733154296875">
        <ele>725.79998779296875</ele>
        <time>2039-05-14T12:53:09.000Z</time>
      </trkpt>
      <trkpt lat="42.42603446356952190399169921875" lon="0.3872702457010746002197265625">
        <ele>724.5999755859375</ele>
        <time>2039-05-14T12:53:11.000Z</time>
      </trkpt>
      <trkpt lat="42.42597587406635284423828125" lon="0.3873044438660144805908203125">
        <ele>724.4000244140625</ele>
        <time>2039-05-14T12:53:12.000Z</time>
      </trkpt>
      <trkpt lat="42.42591862566769123077392578125" lon="0.38733604364097118377685546875">
        <ele>724.20001220703125</ele>
        <time>2039-05-14T12:53:13.000Z</time>
      </trkpt>
      <trkpt lat="42.4258053861558437347412109375" lon="0.38738952018320560455322265625">
        <ele>723</ele>
        <time>2039-05-14T12:53:15.000Z</time>
      </trkpt>
      <trkpt lat="42.425686530768871307373046875" lon="0.387439392507076263427734375">
        <ele>722</ele>
        <time>2039-05-14T12:53:17.000Z</time>
      </trkpt>
      <trkpt lat="42.42562492378056049346923828125" lon="0.38747434504330158233642578125">
        <ele>721.4000244140625</ele>
        <time>2039-05-14T12:53:18.000Z</time>
      </trkpt>
      <trkpt lat="42.42556205950677394866943359375" lon="0.38751474581658840179443359375">
        <ele>720.79998779296875</ele>
        <time>2039-05-14T12:53:19.000Z</time>
      </trkpt>
      <trkpt lat="42.42535804398357868194580078125" lon="0.38764433003962039947509765625">
        <ele>719.5999755859375</ele>
        <time>2039-05-14T12:53:22.000Z</time>
      </trkpt>
      <trkpt lat="42.425205744802951812744140625" lon="0.38773032836616039276123046875">
        <ele>718.5999755859375</ele>
        <time>2039-05-14T12:53:24.000Z</time>
      </trkpt>
      <trkpt lat="42.42512301541864871978759765625" lon="0.387763939797878265380859375">
        <ele>718</ele>
        <time>2039-05-14T12:53:25.000Z</time>
      </trkpt>
      <trkpt lat="42.4248692952096462249755859375" lon="0.3878760896623134613037109375">
        <ele>716.5999755859375</ele>
        <time>2039-05-14T12:53:28.000Z</time>
      </trkpt>
      <trkpt lat="42.4247026629745960235595703125" lon="0.38797340355813503265380859375">
        <ele>715.20001220703125</ele>
        <time>2039-05-14T12:53:30.000Z</time>
      </trkpt>
      <trkpt lat="42.42445531301200389862060546875" lon="0.38811321370303630828857421875">
        <ele>714</ele>
        <time>2039-05-14T12:53:33.000Z</time>
      </trkpt>
      <trkpt lat="42.4242121540009975433349609375" lon="0.38823592476546764373779296875">
        <ele>713</ele>
        <time>2039-05-14T12:53:36.000Z</time>
      </trkpt>
      <trkpt lat="42.4241336993873119354248046875" lon="0.388275571167469024658203125">
        <ele>712.5999755859375</ele>
        <time>2039-05-14T12:53:37.000Z</time>
      </trkpt>
      <trkpt lat="42.42390478961169719696044921875" lon="0.3883930854499340057373046875">
        <ele>711.79998779296875</ele>
        <time>2039-05-14T12:53:40.000Z</time>
      </trkpt>
      <trkpt lat="42.4235570244491100311279296875" lon="0.3885945864021778106689453125">
        <ele>711.20001220703125</ele>
        <time>2039-05-14T12:53:45.000Z</time>
      </trkpt>
      <trkpt lat="42.42330783046782016754150390625" lon="0.38876147009432315826416015625">
        <ele>710.5999755859375</ele>
        <time>2039-05-14T12:53:49.000Z</time>
      </trkpt>
      <trkpt lat="42.42307799868285655975341796875" lon="0.38892072625458240509033203125">
        <ele>710.5999755859375</ele>
        <time>2039-05-14T12:53:53.000Z</time>
      </trkpt>
      <trkpt lat="42.42265152744948863983154296875" lon="0.389210991561412811279296875">
        <ele>709.79998779296875</ele>
        <time>2039-05-14T12:54:01.000Z</time>
      </trkpt>
      <trkpt lat="42.422496378421783447265625" lon="0.38931283168494701385498046875">
        <ele>709.79998779296875</ele>
        <time>2039-05-14T12:54:04.000Z</time>
      </trkpt>
      <trkpt lat="42.42203495465219020843505859375" lon="0.3895863331854343414306640625">
        <ele>709</ele>
        <time>2039-05-14T12:54:13.000Z</time>
      </trkpt>
      <trkpt lat="42.421839572489261627197265625" lon="0.3896942920982837677001953125">
        <ele>708.5999755859375</ele>
        <time>2039-05-14T12:54:17.000Z</time>
      </trkpt>
      <trkpt lat="42.42164620198309421539306640625" lon="0.389802418649196624755859375">
        <ele>708.4000244140625</ele>
        <time>2039-05-14T12:54:21.000Z</time>
      </trkpt>
      <trkpt lat="42.421254850924015045166015625" lon="0.39002328179776668548583984375">
        <ele>707.79998779296875</ele>
        <time>2039-05-14T12:54:29.000Z</time>
      </trkpt>
      <trkpt lat="42.42120849899947643280029296875" lon="0.39005278609693050384521484375">
        <ele>707.79998779296875</ele>
        <time>2039-05-14T12:54:30.000Z</time>
      </trkpt>
      <trkpt lat="42.42082611657679080963134765625" lon="0.39032352156937122344970703125">
        <ele>707.5999755859375</ele>
        <time>2039-05-14T12:54:39.000Z</time>
      </trkpt>
      <trkpt lat="42.420532666146755218505859375" lon="0.39047590456902980804443359375">
        <ele>706.5999755859375</ele>
        <time>2039-05-14T12:54:45.000Z</time>
      </trkpt>
      <trkpt lat="42.42043015547096729278564453125" lon="0.39051496423780918121337890625">
        <ele>706.4000244140625</ele>
        <time>2039-05-14T12:54:47.000Z</time>
      </trkpt>
      <trkpt lat="42.42011248134076595306396484375" lon="0.39068981073796749114990234375">
        <ele>706.4000244140625</ele>
        <time>2039-05-14T12:54:54.000Z</time>
      </trkpt>
      <trkpt lat="42.4198119901120662689208984375" lon="0.39097714237868785858154296875">
        <ele>706.5999755859375</ele>
        <time>2039-05-14T12:55:02.000Z</time>
      </trkpt>
      <trkpt lat="42.4195715971291065216064453125" lon="0.39119976572692394256591796875">
        <ele>707</ele>
        <time>2039-05-14T12:55:09.000Z</time>
      </trkpt>
      <trkpt lat="42.41946439258754253387451171875" lon="0.39128878153860569000244140625">
        <ele>707.20001220703125</ele>
        <time>2039-05-14T12:55:12.000Z</time>
      </trkpt>
      <trkpt lat="42.41906356997787952423095703125" lon="0.3916171006858348846435546875">
        <ele>707.4000244140625</ele>
        <time>2039-05-14T12:55:23.000Z</time>
      </trkpt>
      <trkpt lat="42.41895695216953754425048828125" lon="0.3917025960981845855712890625">
        <ele>708</ele>
        <time>2039-05-14T12:55:26.000Z</time>
      </trkpt>
      <trkpt lat="42.4187453091144561767578125" lon="0.3918707370758056640625">
        <ele>708</ele>
        <time>2039-05-14T12:55:32.000Z</time>
      </trkpt>
      <trkpt lat="42.4183813668787479400634765625" lon="0.392148680984973907470703125">
        <ele>708.4000244140625</ele>
        <time>2039-05-14T12:55:42.000Z</time>
      </trkpt>
      <trkpt lat="42.41799588315188884735107421875" lon="0.39244783110916614532470703125">
        <ele>708</ele>
        <time>2039-05-14T12:55:52.000Z</time>
      </trkpt>
      <trkpt lat="42.41756916046142578125" lon="0.39279199205338954925537109375">
        <ele>707.4000244140625</ele>
        <time>2039-05-14T12:56:02.000Z</time>
      </trkpt>
      <trkpt lat="42.417482323944568634033203125" lon="0.39286516606807708740234375">
        <ele>707</ele>
        <time>2039-05-14T12:56:04.000Z</time>
      </trkpt>
      <trkpt lat="42.417210079729557037353515625" lon="0.39307261817157268524169921875">
        <ele>706.4000244140625</ele>
        <time>2039-05-14T12:56:10.000Z</time>
      </trkpt>
      <trkpt lat="42.41711712442338466644287109375" lon="0.39314277470111846923828125">
        <ele>705.5999755859375</ele>
        <time>2039-05-14T12:56:12.000Z</time>
      </trkpt>
      <trkpt lat="42.41696625016629695892333984375" lon="0.39323036558926105499267578125">
        <ele>704.4000244140625</ele>
        <time>2039-05-14T12:56:15.000Z</time>
      </trkpt>
      <trkpt lat="42.416857369244098663330078125" lon="0.393278561532497406005859375">
        <ele>704</ele>
        <time>2039-05-14T12:56:17.000Z</time>
      </trkpt>
      <trkpt lat="42.416688390076160430908203125" lon="0.3933363966643810272216796875">
        <ele>703.20001220703125</ele>
        <time>2039-05-14T12:56:20.000Z</time>
      </trkpt>
      <trkpt lat="42.41644866764545440673828125" lon="0.39339850656688213348388671875">
        <ele>702.4000244140625</ele>
        <time>2039-05-14T12:56:24.000Z</time>
      </trkpt>
      <trkpt lat="42.416385300457477569580078125" lon="0.3934108279645442962646484375">
        <ele>702.20001220703125</ele>
        <time>2039-05-14T12:56:25.000Z</time>
      </trkpt>
      <trkpt lat="42.4160636030137538909912109375" lon="0.39349758066236972808837890625">
        <ele>701.20001220703125</ele>
        <time>2039-05-14T12:56:30.000Z</time>
      </trkpt>
      <trkpt lat="42.41594667546451091766357421875" lon="0.393550805747509002685546875">
        <ele>700.5999755859375</ele>
        <time>2039-05-14T12:56:32.000Z</time>
      </trkpt>
      <trkpt lat="42.415668480098247528076171875" lon="0.3937685675919055938720703125">
        <ele>700.20001220703125</ele>
        <time>2039-05-14T12:56:38.000Z</time>
      </trkpt>
      <trkpt lat="42.4156310968101024627685546875" lon="0.39380393922328948974609375">
        <ele>700</ele>
        <time>2039-05-14T12:56:39.000Z</time>
      </trkpt>
      <trkpt lat="42.4153853394091129302978515625" lon="0.39403016678988933563232421875">
        <ele>699.79998779296875</ele>
        <time>2039-05-14T12:56:46.000Z</time>
      </trkpt>
      <trkpt lat="42.4150628037750720977783203125" lon="0.394240804016590118408203125">
        <ele>699.79998779296875</ele>
        <time>2039-05-14T12:56:54.000Z</time>
      </trkpt>
      <trkpt lat="42.4147059023380279541015625" lon="0.3943787701427936553955078125">
        <ele>700</ele>
        <time>2039-05-14T12:57:02.000Z</time>
      </trkpt>
      <trkpt lat="42.414381690323352813720703125" lon="0.39445110596716403961181640625">
        <ele>699.20001220703125</ele>
        <time>2039-05-14T12:57:09.000Z</time>
      </trkpt>
      <trkpt lat="42.4142413772642612457275390625" lon="0.39447155781090259552001953125">
        <ele>699</ele>
        <time>2039-05-14T12:57:12.000Z</time>
      </trkpt>
      <trkpt lat="42.41380845196545124053955078125" lon="0.3945199213922023773193359375">
        <ele>698.20001220703125</ele>
        <time>2039-05-14T12:57:21.000Z</time>
      </trkpt>
      <trkpt lat="42.41370988078415393829345703125" lon="0.39453542791306972503662109375">
        <ele>698.20001220703125</ele>
        <time>2039-05-14T12:57:23.000Z</time>
      </trkpt>
      <trkpt lat="42.413387261331081390380859375" lon="0.39462930522859096527099609375">
        <ele>698.20001220703125</ele>
        <time>2039-05-14T12:57:30.000Z</time>
      </trkpt>
      <trkpt lat="42.4129267595708370208740234375" lon="0.39477766491472721099853515625">
        <ele>697.4000244140625</ele>
        <time>2039-05-14T12:57:40.000Z</time>
      </trkpt>
      <trkpt lat="42.41255703382194042205810546875" lon="0.3949001245200634002685546875">
        <ele>697.5999755859375</ele>
        <time>2039-05-14T12:57:48.000Z</time>
      </trkpt>
      <trkpt lat="42.41208865307271480560302734375" lon="0.3950250148773193359375">
        <ele>697.4000244140625</ele>
        <time>2039-05-14T12:57:58.000Z</time>
      </trkpt>
      <trkpt lat="42.411734350025653839111328125" lon="0.39498637430369853973388671875">
        <ele>697.79998779296875</ele>
        <time>2039-05-14T12:58:06.000Z</time>
      </trkpt>
      <trkpt lat="42.41129321046173572540283203125" lon="0.394859723746776580810546875">
        <ele>697.79998779296875</ele>
        <time>2039-05-14T12:58:17.000Z</time>
      </trkpt>
      <trkpt lat="42.411008141934871673583984375" lon="0.3947666846215724945068359375">
        <ele>698.20001220703125</ele>
        <time>2039-05-14T12:58:25.000Z</time>
      </trkpt>
      <trkpt lat="42.410733215510845184326171875" lon="0.3947179019451141357421875">
        <ele>698.20001220703125</ele>
        <time>2039-05-14T12:58:34.000Z</time>
      </trkpt>
      <trkpt lat="42.410347647964954376220703125" lon="0.3945799358189105987548828125">
        <ele>699</ele>
        <time>2039-05-14T12:58:47.000Z</time>
      </trkpt>
      <trkpt lat="42.41013064049184322357177734375" lon="0.3944656066596508026123046875">
        <ele>700</ele>
        <time>2039-05-14T12:58:55.000Z</time>
      </trkpt>
      <trkpt lat="42.41010432131588459014892578125" lon="0.3944491781294345855712890625">
        <ele>700</ele>
        <time>2039-05-14T12:58:56.000Z</time>
      </trkpt>
      <trkpt lat="42.4098304845392704010009765625" lon="0.39426502771675586700439453125">
        <ele>700.4000244140625</ele>
        <time>2039-05-14T12:59:06.000Z</time>
      </trkpt>
      <trkpt lat="42.40980039350688457489013671875" lon="0.3942439891397953033447265625">
        <ele>700.5999755859375</ele>
        <time>2039-05-14T12:59:07.000Z</time>
      </trkpt>
      <trkpt lat="42.409561760723590850830078125" lon="0.394081883132457733154296875">
        <ele>700.79998779296875</ele>
        <time>2039-05-14T12:59:15.000Z</time>
      </trkpt>
      <trkpt lat="42.40933201275765895843505859375" lon="0.39393947459757328033447265625">
        <ele>701</ele>
        <time>2039-05-14T12:59:23.000Z</time>
      </trkpt>
      <trkpt lat="42.40924031473696231842041015625" lon="0.393902845680713653564453125">
        <ele>701.20001220703125</ele>
        <time>2039-05-14T12:59:26.000Z</time>
      </trkpt>
      <trkpt lat="42.409060187637805938720703125" lon="0.39385045878589153289794921875">
        <ele>701.79998779296875</ele>
        <time>2039-05-14T12:59:32.000Z</time>
      </trkpt>
      <trkpt lat="42.40899941883981227874755859375" lon="0.39382581599056720733642578125">
        <ele>702</ele>
        <time>2039-05-14T12:59:35.000Z</time>
      </trkpt>
      <trkpt lat="42.408994138240814208984375" lon="0.393820703029632568359375">
        <ele>702.4000244140625</ele>
        <time>2039-05-14T12:59:36.000Z</time>
      </trkpt>
      <trkpt lat="42.40899321623146533966064453125" lon="0.39382112212479114532470703125">
        <ele>702.5999755859375</ele>
        <time>2039-05-14T12:59:37.000Z</time>
      </trkpt>
      <trkpt lat="42.4078355915844440460205078125" lon="0.39430324919521808624267578125">
        <ele>705.5999755859375</ele>
        <time>2039-05-14T13:01:36.000Z</time>
      </trkpt>
      <trkpt lat="42.40783668123185634613037109375" lon="0.394301153719425201416015625">
        <ele>705.79998779296875</ele>
        <time>2039-05-14T13:01:39.000Z</time>
      </trkpt>
      <trkpt lat="42.40623691119253635406494140625" lon="0.395060889422893524169921875">
        <ele>680.4000244140625</ele>
        <time>2020-08-16T05:18:29.000Z</time>
      </trkpt>
      <trkpt lat="42.40622567944228649139404296875" lon="0.39508058689534664154052734375">
        <ele>679.79998779296875</ele>
        <time>2020-08-16T05:18:32.000Z</time>
      </trkpt>
      <trkpt lat="42.4062155373394489288330078125" lon="0.395084358751773834228515625">
        <ele>679.5999755859375</ele>
        <time>2020-08-16T05:18:33.000Z</time>
      </trkpt>
      <trkpt lat="42.4061183072626590728759765625" lon="0.39513406343758106231689453125">
        <ele>679.4000244140625</ele>
        <time>2020-08-16T05:18:39.000Z</time>
      </trkpt>
      <trkpt lat="42.40597824566066265106201171875" lon="0.39519910700619220733642578125">
        <ele>679.4000244140625</ele>
        <time>2020-08-16T05:18:45.000Z</time>
      </trkpt>
      <trkpt lat="42.40595309995114803314208984375" lon="0.395210087299346923828125">
        <ele>679.20001220703125</ele>
        <time>2020-08-16T05:18:46.000Z</time>
      </trkpt>
      <trkpt lat="42.40576350130140781402587890625" lon="0.3953041322529315948486328125">
        <ele>679.20001220703125</ele>
        <time>2020-08-16T05:18:53.000Z</time>
      </trkpt>
      <trkpt lat="42.40553149022161960601806640625" lon="0.3953902982175350189208984375">
        <ele>678.5999755859375</ele>
        <time>2020-08-16T05:19:00.000Z</time>
      </trkpt>
      <trkpt lat="42.4053793586790561676025390625" lon="0.39546154439449310302734375">
        <ele>678</ele>
        <time>2020-08-16T05:19:04.000Z</time>
      </trkpt>
      <trkpt lat="42.40521289408206939697265625" lon="0.39553790353238582611083984375">
        <ele>677.5999755859375</ele>
        <time>2020-08-16T05:19:08.000Z</time>
      </trkpt>
      <trkpt lat="42.4048543162643909454345703125" lon="0.39570654742419719696044921875">
        <ele>677</ele>
        <time>2020-08-16T05:19:16.000Z</time>
      </trkpt>
      <trkpt lat="42.4047178588807582855224609375" lon="0.39577209390699863433837890625">
        <ele>676.5999755859375</ele>
        <time>2020-08-16T05:19:19.000Z</time>
      </trkpt>
      <trkpt lat="42.40438937209546566009521484375" lon="0.39591408334672451019287109375">
        <ele>676</ele>
        <time>2020-08-16T05:19:26.000Z</time>
      </trkpt>
      <trkpt lat="42.4039601348340511322021484375" lon="0.39610183797776699066162109375">
        <ele>675.4000244140625</ele>
        <time>2020-08-16T05:19:35.000Z</time>
      </trkpt>
      <trkpt lat="42.403778247535228729248046875" lon="0.39618968032300472259521484375">
        <ele>675</ele>
        <time>2020-08-16T05:19:39.000Z</time>
      </trkpt>
      <trkpt lat="42.40360683761537075042724609375" lon="0.3962754271924495697021484375">
        <ele>674.5999755859375</ele>
        <time>2020-08-16T05:19:43.000Z</time>
      </trkpt>
      <trkpt lat="42.40329402498900890350341796875" lon="0.39641113020479679107666015625">
        <ele>674.5999755859375</ele>
        <time>2020-08-16T05:19:51.000Z</time>
      </trkpt>
      <trkpt lat="42.40298640914261341094970703125" lon="0.3965446539223194122314453125">
        <ele>674.5999755859375</ele>
        <time>2020-08-16T05:19:59.000Z</time>
      </trkpt>
      <trkpt lat="42.40273595787584781646728515625" lon="0.3966666944324970245361328125">
        <ele>674.5999755859375</ele>
        <time>2020-08-16T05:20:06.000Z</time>
      </trkpt>
      <trkpt lat="42.402589023113250732421875" lon="0.396674908697605133056640625">
        <ele>674.4000244140625</ele>
        <time>2020-08-16T05:20:11.000Z</time>
      </trkpt>
      <trkpt lat="42.40243806503713130950927734375" lon="0.396653451025485992431640625">
        <ele>674.20001220703125</ele>
        <time>2020-08-16T05:20:17.000Z</time>
      </trkpt>
      <trkpt lat="42.40242264233529567718505859375" lon="0.3966415487229824066162109375">
        <ele>674</ele>
        <time>2020-08-16T05:20:22.000Z</time>
      </trkpt>
      <trkpt lat="42.40242607891559600830078125" lon="0.39664976298809051513671875">
        <ele>674</ele>
        <time>2020-08-16T05:20:30.000Z</time>
      </trkpt>
      <trkpt lat="42.40242029540240764617919921875" lon="0.3966663591563701629638671875">
        <ele>673.79998779296875</ele>
        <time>2020-08-16T05:20:38.000Z</time>
      </trkpt>
      <trkpt lat="42.4024148471653461456298828125" lon="0.39666912518441677093505859375">
        <ele>673.79998779296875</ele>
        <time>2020-08-16T05:20:42.000Z</time>
      </trkpt>
      <trkpt lat="42.40241208113729953765869140625" lon="0.3966693766415119171142578125">
        <ele>674</ele>
        <time>2020-08-16T05:20:53.000Z</time>
      </trkpt>
      <trkpt lat="42.402387522161006927490234375" lon="0.39667583070695400238037109375">
        <ele>673.79998779296875</ele>
        <time>2020-08-16T05:21:09.000Z</time>
      </trkpt>
      <trkpt lat="42.40232507698237895965576171875" lon="0.39677406661212444305419921875">
        <ele>673.5999755859375</ele>
        <time>2020-08-16T05:21:14.000Z</time>
      </trkpt>
      <trkpt lat="42.40224913693964481353759765625" lon="0.39685889147222042083740234375">
        <ele>673.4000244140625</ele>
        <time>2020-08-16T05:21:17.000Z</time>
      </trkpt>
      <trkpt lat="42.40221460349857807159423828125" lon="0.3968712128698825836181640625">
        <ele>673.4000244140625</ele>
        <time>2020-08-16T05:21:18.000Z</time>
      </trkpt>
      <trkpt lat="42.401958368718624114990234375" lon="0.39688973687589168548583984375">
        <ele>673.20001220703125</ele>
        <time>2020-08-16T05:21:25.000Z</time>
      </trkpt>
      <trkpt lat="42.40175158716738224029541015625" lon="0.39679485373198986053466796875">
        <ele>672.79998779296875</ele>
        <time>2020-08-16T05:21:31.000Z</time>
      </trkpt>
      <trkpt lat="42.40158009342849254608154296875" lon="0.39685629308223724365234375">
        <ele>673</ele>
        <time>2020-08-16T05:21:36.000Z</time>
      </trkpt>
      <trkpt lat="42.40145319141447544097900390625" lon="0.397046394646167755126953125">
        <ele>673.20001220703125</ele>
        <time>2020-08-16T05:21:41.000Z</time>
      </trkpt>
      <trkpt lat="42.4013798497617244720458984375" lon="0.3971843607723712921142578125">
        <ele>673.20001220703125</ele>
        <time>2020-08-16T05:21:44.000Z</time>
      </trkpt>
      <trkpt lat="42.4012484215199947357177734375" lon="0.39731754921376705169677734375">
        <ele>672.79998779296875</ele>
        <time>2020-08-16T05:21:48.000Z</time>
      </trkpt>
      <trkpt lat="42.401171810925006866455078125" lon="0.3973674215376377105712890625">
        <ele>672.5999755859375</ele>
        <time>2020-08-16T05:21:50.000Z</time>
      </trkpt>
      <trkpt lat="42.4011325836181640625" lon="0.3973902203142642974853515625">
        <ele>672.4000244140625</ele>
        <time>2020-08-16T05:21:51.000Z</time>
      </trkpt>
      <trkpt lat="42.40101096220314502716064453125" lon="0.39744579233229160308837890625">
        <ele>672.20001220703125</ele>
        <time>2020-08-16T05:21:54.000Z</time>
      </trkpt>
      <trkpt lat="42.4006586708128452301025390625" lon="0.39761443622410297393798828125">
        <ele>671.79998779296875</ele>
        <time>2020-08-16T05:22:03.000Z</time>
      </trkpt>
      <trkpt lat="42.40050494670867919921875" lon="0.3976832516491413116455078125">
        <ele>671.5999755859375</ele>
        <time>2020-08-16T05:22:07.000Z</time>
      </trkpt>
      <trkpt lat="42.40035139024257659912109375" lon="0.3977425955235958099365234375">
        <ele>671.4000244140625</ele>
        <time>2020-08-16T05:22:11.000Z</time>
      </trkpt>
      <trkpt lat="42.40031191147863864898681640625" lon="0.3977541625499725341796875">
        <ele>671.4000244140625</ele>
        <time>2020-08-16T05:22:12.000Z</time>
      </trkpt>
      <trkpt lat="42.4001604504883289337158203125" lon="0.39782725274562835693359375">
        <ele>671.4000244140625</ele>
        <time>2020-08-16T05:22:16.000Z</time>
      </trkpt>
      <trkpt lat="42.399828694760799407958984375" lon="0.39798256941139698028564453125">
        <ele>671.5999755859375</ele>
        <time>2020-08-16T05:22:25.000Z</time>
      </trkpt>
      <trkpt lat="42.39945511333644390106201171875" lon="0.39814081974327564239501953125">
        <ele>671.4000244140625</ele>
        <time>2020-08-16T05:22:35.000Z</time>
      </trkpt>
      <trkpt lat="42.39934463985264301300048828125" lon="0.39818725548684597015380859375">
        <ele>671.4000244140625</ele>
        <time>2020-08-16T05:22:38.000Z</time>
      </trkpt>
      <trkpt lat="42.39908329211175441741943359375" lon="0.3982673026621341705322265625">
        <ele>671.5999755859375</ele>
        <time>2020-08-16T05:22:45.000Z</time>
      </trkpt>
      <trkpt lat="42.3987140692770481109619140625" lon="0.39835430681705474853515625">
        <ele>671.5999755859375</ele>
        <time>2020-08-16T05:22:55.000Z</time>
      </trkpt>
      <trkpt lat="42.39836462773382663726806640625" lon="0.39839453995227813720703125">
        <ele>672.20001220703125</ele>
        <time>2020-08-16T05:23:05.000Z</time>
      </trkpt>
      <trkpt lat="42.398228086531162261962890625" lon="0.39840686134994029998779296875">
        <ele>672.4000244140625</ele>
        <time>2020-08-16T05:23:09.000Z</time>
      </trkpt>
      <trkpt lat="42.39805684424936771392822265625" lon="0.39841490797698497772216796875">
        <ele>673</ele>
        <time>2020-08-16T05:23:14.000Z</time>
      </trkpt>
      <trkpt lat="42.39774830639362335205078125" lon="0.39842731319367885589599609375">
        <ele>673.5999755859375</ele>
        <time>2020-08-16T05:23:23.000Z</time>
      </trkpt>
      <trkpt lat="42.39765015430748462677001953125" lon="0.39843250997364521026611328125">
        <ele>673.5999755859375</ele>
        <time>2020-08-16T05:23:26.000Z</time>
      </trkpt>
      <trkpt lat="42.39745728671550750732421875" lon="0.39843686856329441070556640625">
        <ele>674.20001220703125</ele>
        <time>2020-08-16T05:23:32.000Z</time>
      </trkpt>
      <trkpt lat="42.3973914049565792083740234375" lon="0.39844072423875331878662109375">
        <ele>674.4000244140625</ele>
        <time>2020-08-16T05:23:34.000Z</time>
      </trkpt>
      <trkpt lat="42.397358380258083343505859375" lon="0.3984419815242290496826171875">
        <ele>674.4000244140625</ele>
        <time>2020-08-16T05:23:35.000Z</time>
      </trkpt>
      <trkpt lat="42.39707465283572673797607421875" lon="0.39844424463808536529541015625">
        <ele>674.79998779296875</ele>
        <time>2020-08-16T05:23:44.000Z</time>
      </trkpt>
      <trkpt lat="42.39674323238432407379150390625" lon="0.39845891296863555908203125">
        <ele>675.4000244140625</ele>
        <time>2020-08-16T05:23:54.000Z</time>
      </trkpt>
      <trkpt lat="42.39639907144010066986083984375" lon="0.39846302010118961334228515625">
        <ele>675.5999755859375</ele>
        <time>2020-08-16T05:24:04.000Z</time>
      </trkpt>
      <trkpt lat="42.39604535512626171112060546875" lon="0.3984718210995197296142578125">
        <ele>675.79998779296875</ele>
        <time>2020-08-16T05:24:14.000Z</time>
      </trkpt>
      <trkpt lat="42.39584804512560367584228515625" lon="0.39846084080636501312255859375">
        <ele>675.4000244140625</ele>
        <time>2020-08-16T05:24:20.000Z</time>
      </trkpt>
      <trkpt lat="42.38910312764346599578857421875" lon="0.3980661369860172271728515625">
        <ele>657.20001220703125</ele>
        <time>2020-08-16T05:25:55.000Z</time>
      </trkpt>
      <trkpt lat="42.389006316661834716796875" lon="0.3980386443436145782470703125">
        <ele>656.79998779296875</ele>
        <time>2020-08-16T05:25:56.000Z</time>
      </trkpt>
      <trkpt lat="42.38872937858104705810546875" lon="0.39795138873159885406494140625">
        <ele>655.79998779296875</ele>
        <time>2020-08-16T05:25:59.000Z</time>
      </trkpt>
      <trkpt lat="42.38855092786252498626708984375" lon="0.397921465337276458740234375">
        <ele>655.4000244140625</ele>
        <time>2020-08-16T05:26:01.000Z</time>
      </trkpt>
      <trkpt lat="42.38820634782314300537109375" lon="0.39785541594028472900390625">
        <ele>654.5999755859375</ele>
        <time>2020-08-16T05:26:05.000Z</time>
      </trkpt>
      <trkpt lat="42.38804005086421966552734375" lon="0.3978247381746768951416015625">
        <ele>654.4000244140625</ele>
        <time>2020-08-16T05:26:07.000Z</time>
      </trkpt>
      <trkpt lat="42.38751777447760105133056640625" lon="0.397717617452144622802734375">
        <ele>654</ele>
        <time>2020-08-16T05:26:14.000Z</time>
      </trkpt>
      <trkpt lat="42.38715316168963909149169921875" lon="0.39763757027685642242431640625">
        <ele>653.5999755859375</ele>
        <time>2020-08-16T05:26:20.000Z</time>
      </trkpt>
      <trkpt lat="42.38682257942855358123779296875" lon="0.3975508175790309906005859375">
        <ele>654.5999755859375</ele>
        <time>2020-08-16T05:26:27.000Z</time>
      </trkpt>
      <trkpt lat="42.3864553682506084442138671875" lon="0.3974123485386371612548828125">
        <ele>654.5999755859375</ele>
        <time>2020-08-16T05:26:36.000Z</time>
      </trkpt>
      <trkpt lat="42.3860674537718296051025390625" lon="0.3972108475863933563232421875">
        <ele>655</ele>
        <time>2020-08-16T05:26:46.000Z</time>
      </trkpt>
      <trkpt lat="42.38571683876216411590576171875" lon="0.3969453088939189910888671875">
        <ele>655.4000244140625</ele>
        <time>2020-08-16T05:26:56.000Z</time>
      </trkpt>
      <trkpt lat="42.385380975902080535888671875" lon="0.396612547338008880615234375">
        <ele>655.5999755859375</ele>
        <time>2020-08-16T05:27:06.000Z</time>
      </trkpt>
      <trkpt lat="42.38511133007705211639404296875" lon="0.396231673657894134521484375">
        <ele>655.20001220703125</ele>
        <time>2020-08-16T05:27:15.000Z</time>
      </trkpt>
      <trkpt lat="42.3849065601825714111328125" lon="0.39585591293871402740478515625">
        <ele>655.20001220703125</ele>
        <time>2020-08-16T05:27:23.000Z</time>
      </trkpt>
      <trkpt lat="42.38466977141797542572021484375" lon="0.3953312896192073822021484375">
        <ele>655</ele>
        <time>2020-08-16T05:27:33.000Z</time>
      </trkpt>
      <trkpt lat="42.38451336510479450225830078125" lon="0.3948307223618030548095703125">
        <ele>654.79998779296875</ele>
        <time>2020-08-16T05:27:42.000Z</time>
      </trkpt>
      <trkpt lat="42.38439358770847320556640625" lon="0.3943449072539806365966796875">
        <ele>655.4000244140625</ele>
        <time>2020-08-16T05:27:51.000Z</time>
      </trkpt>
      <trkpt lat="42.38433189690113067626953125" lon="0.39380737580358982086181640625">
        <ele>655.5999755859375</ele>
        <time>2020-08-16T05:28:01.000Z</time>
      </trkpt>
      <trkpt lat="42.3843216709792613983154296875" lon="0.39341594092547893524169921875">
        <ele>656.20001220703125</ele>
        <time>2020-08-16T05:28:09.000Z</time>
      </trkpt>
      <trkpt lat="42.38432259298861026763916015625" lon="0.39336531423032283782958984375">
        <ele>656.4000244140625</ele>
        <time>2020-08-16T05:28:10.000Z</time>
      </trkpt>
      <trkpt lat="42.3843538574874401092529296875" lon="0.39303473196923732757568359375">
        <ele>657</ele>
        <time>2020-08-16T05:28:17.000Z</time>
      </trkpt>
      <trkpt lat="42.38442309200763702392578125" lon="0.39272912777960300445556640625">
        <ele>657.4000244140625</ele>
        <time>2020-08-16T05:28:24.000Z</time>
      </trkpt>
      <trkpt lat="42.38444899208843708038330078125" lon="0.392646230757236480712890625">
        <ele>657.5999755859375</ele>
        <time>2020-08-16T05:28:26.000Z</time>
      </trkpt>
      <trkpt lat="42.384577654302120208740234375" lon="0.39236652664840221405029296875">
        <ele>657.20001220703125</ele>
        <time>2020-08-16T05:28:32.000Z</time>
      </trkpt>
      <trkpt lat="42.38472609780728816986083984375" lon="0.39213703013956546783447265625">
        <ele>656.20001220703125</ele>
        <time>2020-08-16T05:28:36.000Z</time>
      </trkpt>
      <trkpt lat="42.38477856852114200592041015625" lon="0.3920881636440753936767578125">
        <ele>655.5999755859375</ele>
        <time>2020-08-16T05:28:37.000Z</time>
      </trkpt>
      <trkpt lat="42.38489591516554355621337890625" lon="0.39202186278998851776123046875">
        <ele>655</ele>
        <time>2020-08-16T05:28:39.000Z</time>
      </trkpt>
      <trkpt lat="42.38499683327972888946533203125" lon="0.39194005541503429412841796875">
        <ele>654.79998779296875</ele>
        <time>2020-08-16T05:28:41.000Z</time>
      </trkpt>
      <trkpt lat="42.38503220491111278533935546875" lon="0.39173117838799953460693359375">
        <ele>654.5999755859375</ele>
        <time>2020-08-16T05:28:44.000Z</time>
      </trkpt>
      <trkpt lat="42.38497889600694179534912109375" lon="0.39157259277999401092529296875">
        <ele>655</ele>
        <time>2020-08-16T05:28:47.000Z</time>
      </trkpt>
      <trkpt lat="42.3849682509899139404296875" lon="0.39148760028183460235595703125">
        <ele>655.4000244140625</ele>
        <time>2020-08-16T05:28:49.000Z</time>
      </trkpt>
      <trkpt lat="42.3849628865718841552734375" lon="0.391379557549953460693359375">
        <ele>656</ele>
        <time>2020-08-16T05:28:52.000Z</time>
      </trkpt>
      <trkpt lat="42.38496732898056507110595703125" lon="0.391323901712894439697265625">
        <ele>657</ele>
        <time>2020-08-16T05:28:54.000Z</time>
      </trkpt>
      <trkpt lat="42.38497965037822723388671875" lon="0.39126916788518428802490234375">
        <ele>658.20001220703125</ele>
        <time>2020-08-16T05:28:57.000Z</time>
      </trkpt>
      <trkpt lat="42.3849855177104473114013671875" lon="0.3912590257823467254638671875">
        <ele>658.4000244140625</ele>
        <time>2020-08-16T05:28:58.000Z</time>
      </trkpt>
      <trkpt lat="42.38498141057789325714111328125" lon="0.39125391282141208648681640625">
        <ele>658.79998779296875</ele>
        <time>2020-08-16T05:29:03.000Z</time>
      </trkpt>
      <trkpt lat="42.384981326758861541748046875" lon="0.3912543319165706634521484375">
        <ele>658.79998779296875</ele>
        <time>2020-08-16T05:29:15.000Z</time>
      </trkpt>
      <trkpt lat="42.38497369922697544097900390625" lon="0.39125273935496807098388671875">
        <ele>659</ele>
        <time>2020-08-16T05:29:31.000Z</time>
      </trkpt>
      <trkpt lat="42.384974956512451171875" lon="0.39126061834394931793212890625">
        <ele>658.79998779296875</ele>
        <time>2020-08-16T05:29:44.000Z</time>
      </trkpt>
      <trkpt lat="42.38497185520827770233154296875" lon="0.39125709794461727142333984375">
        <ele>658.79998779296875</ele>
        <time>2020-08-16T05:29:53.000Z</time>
      </trkpt>
      <trkpt lat="42.38497386686503887176513671875" lon="0.39125709794461727142333984375">
        <ele>658.79998779296875</ele>
        <time>2020-08-16T05:29:57.000Z</time>
      </trkpt>
      <trkpt lat="42.38497504033148288726806640625" lon="0.39125022478401660919189453125">
        <ele>658.5999755859375</ele>
        <time>2020-08-16T05:30:07.000Z</time>
      </trkpt>
      <trkpt lat="42.384980656206607818603515625" lon="0.39125475101172924041748046875">
        <ele>658.4000244140625</ele>
        <time>2020-08-16T05:30:19.000Z</time>
      </trkpt>
      <trkpt lat="42.38497789017856121063232421875" lon="0.39125206880271434783935546875">
        <ele>658.5999755859375</ele>
        <time>2020-08-16T05:30:33.000Z</time>
      </trkpt>
      <trkpt lat="42.38498459570109844207763671875" lon="0.39122625254094600677490234375">
        <ele>658.79998779296875</ele>
        <time>2020-08-16T05:30:42.000Z</time>
      </trkpt>
      <trkpt lat="42.3849905468523502349853515625" lon="0.39118610322475433349609375">
        <ele>659</ele>
        <time>2020-08-16T05:30:45.000Z</time>
      </trkpt>
      <trkpt lat="42.38500253297388553619384765625" lon="0.39111225865781307220458984375">
        <ele>659.79998779296875</ele>
        <time>2020-08-16T05:30:51.000Z</time>
      </trkpt>
      <trkpt lat="42.38500990904867649078369140625" lon="0.3910893760621547698974609375">
        <ele>660.20001220703125</ele>
        <time>2020-08-16T05:30:53.000Z</time>
      </trkpt>
      <trkpt lat="42.38503857515752315521240234375" lon="0.39099122397601604461669921875">
        <ele>661.20001220703125</ele>
        <time>2020-08-16T05:31:02.000Z</time>
      </trkpt>
      <trkpt lat="42.385043017566204071044921875" lon="0.39097948931157588958740234375">
        <ele>661.4000244140625</ele>
        <time>2020-08-16T05:31:03.000Z</time>
      </trkpt>
      <trkpt lat="42.38506573252379894256591796875" lon="0.39091260172426700592041015625">
        <ele>662.5999755859375</ele>
        <time>2020-08-16T05:31:09.000Z</time>
      </trkpt>
      <trkpt lat="42.3850770480930805206298828125" lon="0.390879325568675994873046875">
        <ele>662.79998779296875</ele>
        <time>2020-08-16T05:31:12.000Z</time>
      </trkpt>
      <trkpt lat="42.38510194234549999237060546875" lon="0.39081654511392116546630859375">
        <ele>663.5999755859375</ele>
        <time>2020-08-16T05:31:18.000Z</time>
      </trkpt>
      <trkpt lat="42.385116778314113616943359375" lon="0.3907782398164272308349609375">
        <ele>664</ele>
        <time>2020-08-16T05:31:22.000Z</time>
      </trkpt>
      <trkpt lat="42.385136894881725311279296875" lon="0.390733145177364349365234375">
        <ele>664.79998779296875</ele>
        <time>2020-08-16T05:31:27.000Z</time>
      </trkpt>
      <trkpt lat="42.385146953165531158447265625" lon="0.39070741273462772369384765625">
        <ele>665</ele>
        <time>2020-08-16T05:31:32.000Z</time>
      </trkpt>
      <trkpt lat="42.385157011449337005615234375" lon="0.3906702809035778045654296875">
        <ele>665.4000244140625</ele>
        <time>2020-08-16T05:31:38.000Z</time>
      </trkpt>
      <trkpt lat="42.38516547717154026031494140625" lon="0.39064421318471431732177734375">
        <ele>665.79998779296875</ele>
        <time>2020-08-16T05:31:40.000Z</time>
      </trkpt>
      <trkpt lat="42.38520604558289051055908203125" lon="0.390575565397739410400390625">
        <ele>666.5999755859375</ele>
        <time>2020-08-16T05:31:45.000Z</time>
      </trkpt>
      <trkpt lat="42.385218702256679534912109375" lon="0.39054530672729015350341796875">
        <ele>666.79998779296875</ele>
        <time>2020-08-16T05:31:47.000Z</time>
      </trkpt>
      <trkpt lat="42.38525633700191974639892578125" lon="0.39044715464115142822265625">
        <ele>667.4000244140625</ele>
        <time>2020-08-16T05:31:53.000Z</time>
      </trkpt>
      <trkpt lat="42.3852983303368091583251953125" lon="0.39038940332829952239990234375">
        <ele>668</ele>
        <time>2020-08-16T05:31:57.000Z</time>
      </trkpt>
      <trkpt lat="42.38532557152211666107177734375" lon="0.39034187793731689453125">
        <ele>668.4000244140625</ele>
        <time>2020-08-16T05:32:00.000Z</time>
      </trkpt>
      <trkpt lat="42.3853908665478229522705078125" lon="0.3902612440288066864013671875">
        <ele>669</ele>
        <time>2020-08-16T05:32:06.000Z</time>
      </trkpt>
      <trkpt lat="42.385401763021945953369140625" lon="0.390245653688907623291015625">
        <ele>669</ele>
        <time>2020-08-16T05:32:07.000Z</time>
      </trkpt>
      <trkpt lat="42.385505028069019317626953125" lon="0.39012252353131771087646484375">
        <ele>670.20001220703125</ele>
        <time>2020-08-16T05:32:16.000Z</time>
      </trkpt>
      <trkpt lat="42.38559043966233730316162109375" lon="0.39003250189125537872314453125">
        <ele>671</ele>
        <time>2020-08-16T05:32:23.000Z</time>
      </trkpt>
      <trkpt lat="42.38560318015515804290771484375" lon="0.39002026431262493133544921875">
        <ele>671.20001220703125</ele>
        <time>2020-08-16T05:32:24.000Z</time>
      </trkpt>
      <trkpt lat="42.38567861728370189666748046875" lon="0.3899489343166351318359375">
        <ele>672</ele>
        <time>2020-08-16T05:32:30.000Z</time>
      </trkpt>
      <trkpt lat="42.385706193745136260986328125" lon="0.389923788607120513916015625">
        <ele>672.4000244140625</ele>
        <time>2020-08-16T05:32:32.000Z</time>
      </trkpt>
      <trkpt lat="42.38580032251775264739990234375" lon="0.389845333993434906005859375">
        <ele>673.20001220703125</ele>
        <time>2020-08-16T05:32:39.000Z</time>
      </trkpt>
      <trkpt lat="42.38581356592476367950439453125" lon="0.38983426988124847412109375">
        <ele>673.4000244140625</ele>
        <time>2020-08-16T05:32:40.000Z</time>
      </trkpt>
      <trkpt lat="42.3859229497611522674560546875" lon="0.38973812945187091827392578125">
        <ele>674.4000244140625</ele>
        <time>2020-08-16T05:32:48.000Z</time>
      </trkpt>
      <trkpt lat="42.3859356902539730072021484375" lon="0.3897248022258281707763671875">
        <ele>674.5999755859375</ele>
        <time>2020-08-16T05:32:49.000Z</time>
      </trkpt>
      <trkpt lat="42.38602344878017902374267578125" lon="0.38966369815170764923095703125">
        <ele>675.5999755859375</ele>
        <time>2020-08-16T05:32:55.000Z</time>
      </trkpt>
      <trkpt lat="42.38604792393743991851806640625" lon="0.3896377980709075927734375">
        <ele>675.79998779296875</ele>
        <time>2020-08-16T05:32:57.000Z</time>
      </trkpt>
      <trkpt lat="42.3861050046980381011962890625" lon="0.38959831930696964263916015625">
        <ele>676.5999755859375</ele>
        <time>2020-08-16T05:33:01.000Z</time>
      </trkpt>
      <trkpt lat="42.386134006083011627197265625" lon="0.389576442539691925048828125">
        <ele>677</ele>
        <time>2020-08-16T05:33:03.000Z</time>
      </trkpt>
      <trkpt lat="42.38620139658451080322265625" lon="0.38951701484620571136474609375">
        <ele>677.5999755859375</ele>
        <time>2020-08-16T05:33:08.000Z</time>
      </trkpt>
      <trkpt lat="42.3862407915294170379638671875" lon="0.389479883015155792236328125">
        <ele>678</ele>
        <time>2020-08-16T05:33:11.000Z</time>
      </trkpt>
      <trkpt lat="42.3863085173070430755615234375" lon="0.38942799903452396392822265625">
        <ele>678.79998779296875</ele>
        <time>2020-08-16T05:33:16.000Z</time>
      </trkpt>
      <trkpt lat="42.38634497858583927154541015625" lon="0.3893938846886157989501953125">
        <ele>679.20001220703125</ele>
        <time>2020-08-16T05:33:19.000Z</time>
      </trkpt>
      <trkpt lat="42.38638537935912609100341796875" lon="0.38936362601816654205322265625">
        <ele>680</ele>
        <time>2020-08-16T05:33:22.000Z</time>
      </trkpt>
      <trkpt lat="42.38644950091838836669921875" lon="0.38931216113269329071044921875">
        <ele>680.5999755859375</ele>
        <time>2020-08-16T05:33:27.000Z</time>
      </trkpt>
      <trkpt lat="42.38648713566362857818603515625" lon="0.3892775438725948333740234375">
        <ele>681</ele>
        <time>2020-08-16T05:33:30.000Z</time>
      </trkpt>
      <trkpt lat="42.38657397218048572540283203125" lon="0.38919716142117977142333984375">
        <ele>681.79998779296875</ele>
        <time>2020-08-16T05:33:37.000Z</time>
      </trkpt>
      <trkpt lat="42.3865990340709686279296875" lon="0.38917520083487033843994140625">
        <ele>682</ele>
        <time>2020-08-16T05:33:39.000Z</time>
      </trkpt>
      <trkpt lat="42.38667220808565616607666015625" lon="0.38910244591534137725830078125">
        <ele>683</ele>
        <time>2020-08-16T05:33:45.000Z</time>
      </trkpt>
      <trkpt lat="42.38669852726161479949951171875" lon="0.38908165879547595977783203125">
        <ele>683.4000244140625</ele>
        <time>2020-08-16T05:33:47.000Z</time>
      </trkpt>
      <trkpt lat="42.38676331937313079833984375" lon="0.38902667351067066192626953125">
        <ele>684.20001220703125</ele>
        <time>2020-08-16T05:33:52.000Z</time>
      </trkpt>
      <trkpt lat="42.3867970146238803863525390625" lon="0.3889892064034938812255859375">
        <ele>684.79998779296875</ele>
        <time>2020-08-16T05:33:55.000Z</time>
      </trkpt>
      <trkpt lat="42.3868342302739620208740234375" lon="0.3889523260295391082763671875">
        <ele>685.20001220703125</ele>
        <time>2020-08-16T05:33:58.000Z</time>
      </trkpt>
      <trkpt lat="42.38690011203289031982421875" lon="0.388891808688640594482421875">
        <ele>685.79998779296875</ele>
        <time>2020-08-16T05:34:03.000Z</time>
      </trkpt>
      <trkpt lat="42.38693766295909881591796875" lon="0.38885551504790782928466796875">
        <ele>686.4000244140625</ele>
        <time>2020-08-16T05:34:06.000Z</time>
      </trkpt>
      <trkpt lat="42.3870162852108478546142578125" lon="0.38878410123288631439208984375">
        <ele>687.20001220703125</ele>
        <time>2020-08-16T05:34:12.000Z</time>
      </trkpt>
      <trkpt lat="42.3870290257036685943603515625" lon="0.3887719474732875823974609375">
        <ele>687.4000244140625</ele>
        <time>2020-08-16T05:34:13.000Z</time>
      </trkpt>
      <trkpt lat="42.38710152916610240936279296875" lon="0.388692319393157958984375">
        <ele>688.4000244140625</ele>
        <time>2020-08-16T05:34:19.000Z</time>
      </trkpt>
      <trkpt lat="42.3871969990432262420654296875" lon="0.38859383203089237213134765625">
        <ele>689.4000244140625</ele>
        <time>2020-08-16T05:34:27.000Z</time>
      </trkpt>
      <trkpt lat="42.38720915280282497406005859375" lon="0.3885810077190399169921875">
        <ele>689.5999755859375</ele>
        <time>2020-08-16T05:34:28.000Z</time>
      </trkpt>
      <trkpt lat="42.3872669041156768798828125" lon="0.38851655088365077972412109375">
        <ele>690.4000244140625</ele>
        <time>2020-08-16T05:34:33.000Z</time>
      </trkpt>
      <trkpt lat="42.38731141202151775360107421875" lon="0.38846039213240146636962890625">
        <ele>691.20001220703125</ele>
        <time>2020-08-16T05:34:37.000Z</time>
      </trkpt>
      <trkpt lat="42.387349717319011688232421875" lon="0.388425104320049285888671875">
        <ele>691.5999755859375</ele>
        <time>2020-08-16T05:34:40.000Z</time>
      </trkpt>
      <trkpt lat="42.3874424211680889129638671875" lon="0.3883283771574497222900390625">
        <ele>692.5999755859375</ele>
        <time>2020-08-16T05:34:48.000Z</time>
      </trkpt>
      <trkpt lat="42.38745289854705333709716796875" lon="0.38831421174108982086181640625">
        <ele>692.79998779296875</ele>
        <time>2020-08-16T05:34:49.000Z</time>
      </trkpt>
      <trkpt lat="42.38752816803753376007080078125" lon="0.38821916095912456512451171875">
        <ele>693.79998779296875</ele>
        <time>2020-08-16T05:34:56.000Z</time>
      </trkpt>
      <trkpt lat="42.38760410808026790618896484375" lon="0.3881265409290790557861328125">
        <ele>694.79998779296875</ele>
        <time>2020-08-16T05:35:03.000Z</time>
      </trkpt>
      <trkpt lat="42.3876251466572284698486328125" lon="0.388097874820232391357421875">
        <ele>695.4000244140625</ele>
        <time>2020-08-16T05:35:05.000Z</time>
      </trkpt>
      <trkpt lat="42.3876653797924518585205078125" lon="0.38803962059319019317626953125">
        <ele>696</ele>
        <time>2020-08-16T05:35:09.000Z</time>
      </trkpt>
      <trkpt lat="42.38771441392600536346435546875" lon="0.3879686258733272552490234375">
        <ele>696.5999755859375</ele>
        <time>2020-08-16T05:35:14.000Z</time>
      </trkpt>
      <trkpt lat="42.38773805089294910430908203125" lon="0.387940965592861175537109375">
        <ele>697</ele>
        <time>2020-08-16T05:35:16.000Z</time>
      </trkpt>
      <trkpt lat="42.38778834231197834014892578125" lon="0.38786678574979305267333984375">
        <ele>697.79998779296875</ele>
        <time>2020-08-16T05:35:21.000Z</time>
      </trkpt>
      <trkpt lat="42.387811057269573211669921875" lon="0.38783996365964412689208984375">
        <ele>698</ele>
        <time>2020-08-16T05:35:23.000Z</time>
      </trkpt>
      <trkpt lat="42.3878757655620574951171875" lon="0.38774860091507434844970703125">
        <ele>698.79998779296875</ele>
        <time>2020-08-16T05:35:29.000Z</time>
      </trkpt>
      <trkpt lat="42.38788674585521221160888671875" lon="0.38773401640355587005615234375">
        <ele>699</ele>
        <time>2020-08-16T05:35:30.000Z</time>
      </trkpt>
      <trkpt lat="42.387957908213138580322265625" lon="0.3876266442239284515380859375">
        <ele>700</ele>
        <time>2020-08-16T05:35:37.000Z</time>
      </trkpt>
      <trkpt lat="42.3879674635827541351318359375" lon="0.38761071860790252685546875">
        <ele>700.20001220703125</ele>
        <time>2020-08-16T05:35:38.000Z</time>
      </trkpt>
      <trkpt lat="42.3880288191139698028564453125" lon="0.38752145133912563323974609375">
        <ele>701.20001220703125</ele>
        <time>2020-08-16T05:35:44.000Z</time>
      </trkpt>
      <trkpt lat="42.3881002329289913177490234375" lon="0.387410558760166168212890625">
        <ele>702.20001220703125</ele>
        <time>2020-08-16T05:35:51.000Z</time>
      </trkpt>
      <trkpt lat="42.3881220258772373199462890625" lon="0.38738013245165348052978515625">
        <ele>702.5999755859375</ele>
        <time>2020-08-16T05:35:53.000Z</time>
      </trkpt>
      <trkpt lat="42.3881595768034458160400390625" lon="0.38731475360691547393798828125">
        <ele>703.4000244140625</ele>
        <time>2020-08-16T05:35:57.000Z</time>
      </trkpt>
      <trkpt lat="42.38820693455636501312255859375" lon="0.3872343711555004119873046875">
        <ele>703.79998779296875</ele>
        <time>2020-08-16T05:36:02.000Z</time>
      </trkpt>
      <trkpt lat="42.3882363550364971160888671875" lon="0.387184917926788330078125">
        <ele>704.4000244140625</ele>
        <time>2020-08-16T05:36:05.000Z</time>
      </trkpt>
      <trkpt lat="42.3882916755974292755126953125" lon="0.38708928041160106658935546875">
        <ele>705</ele>
        <time>2020-08-16T05:36:11.000Z</time>
      </trkpt>
      <trkpt lat="42.38831631839275360107421875" lon="0.3870362229645252227783203125">
        <ele>705.5999755859375</ele>
        <time>2020-08-16T05:36:14.000Z</time>
      </trkpt>
      <trkpt lat="42.38837172277271747589111328125" lon="0.38693857379257678985595703125">
        <ele>706.4000244140625</ele>
        <time>2020-08-16T05:36:20.000Z</time>
      </trkpt>
      <trkpt lat="42.388382367789745330810546875" lon="0.38692398928105831146240234375">
        <ele>706.5999755859375</ele>
        <time>2020-08-16T05:36:21.000Z</time>
      </trkpt>
      <trkpt lat="42.3884556256234645843505859375" lon="0.386790297925472259521484375">
        <ele>707.5999755859375</ele>
        <time>2020-08-16T05:36:29.000Z</time>
      </trkpt>
      <trkpt lat="42.3885052464902400970458984375" lon="0.38668594323098659515380859375">
        <ele>708.5999755859375</ele>
        <time>2020-08-16T05:36:35.000Z</time>
      </trkpt>
      <trkpt lat="42.3885141313076019287109375" lon="0.3866697661578655242919921875">
        <ele>708.79998779296875</ele>
        <time>2020-08-16T05:36:36.000Z</time>
      </trkpt>
      <trkpt lat="42.38857473246753215789794921875" lon="0.38655795156955718994140625">
        <ele>709.5999755859375</ele>
        <time>2020-08-16T05:36:43.000Z</time>
      </trkpt>
      <trkpt lat="42.38861781544983386993408203125" lon="0.38647321052849292755126953125">
        <ele>710.20001220703125</ele>
        <time>2020-08-16T05:36:48.000Z</time>
      </trkpt>
      <trkpt lat="42.3886339925229549407958984375" lon="0.3864367492496967315673828125">
        <ele>710.5999755859375</ele>
        <time>2020-08-16T05:36:50.000Z</time>
      </trkpt>
      <trkpt lat="42.38869895227253437042236328125" lon="0.38632401265203952789306640625">
        <ele>711.5999755859375</ele>
        <time>2020-08-16T05:36:57.000Z</time>
      </trkpt>
      <trkpt lat="42.3887608945369720458984375" lon="0.386207588016986846923828125">
        <ele>712.5999755859375</ele>
        <time>2020-08-16T05:37:04.000Z</time>
      </trkpt>
      <trkpt lat="42.38877774216234683990478515625" lon="0.38617263548076152801513671875">
        <ele>712.79998779296875</ele>
        <time>2020-08-16T05:37:06.000Z</time>
      </trkpt>
      <trkpt lat="42.38883390091359615325927734375" lon="0.386073477566242218017578125">
        <ele>713.79998779296875</ele>
        <time>2020-08-16T05:37:12.000Z</time>
      </trkpt>
      <trkpt lat="42.3888512514531612396240234375" lon="0.38604288361966609954833984375">
        <ele>714.20001220703125</ele>
        <time>2020-08-16T05:37:14.000Z</time>
      </trkpt>
      <trkpt lat="42.3889062367379665374755859375" lon="0.38594749756157398223876953125">
        <ele>714.79998779296875</ele>
        <time>2020-08-16T05:37:20.000Z</time>
      </trkpt>
      <trkpt lat="42.38891554065048694610595703125" lon="0.3859321586787700653076171875">
        <ele>715</ele>
        <time>2020-08-16T05:37:21.000Z</time>
      </trkpt>
      <trkpt lat="42.38897882401943206787109375" lon="0.38582545705139636993408203125">
        <ele>716</ele>
        <time>2020-08-16T05:37:28.000Z</time>
      </trkpt>
      <trkpt lat="42.38900162279605865478515625" lon="0.38577918894588947296142578125">
        <ele>716.4000244140625</ele>
        <time>2020-08-16T05:37:31.000Z</time>
      </trkpt>
      <trkpt lat="42.3890371620655059814453125" lon="0.38571749813854694366455078125">
        <ele>717</ele>
        <time>2020-08-16T05:37:35.000Z</time>
      </trkpt>
      <trkpt lat="42.389065325260162353515625" lon="0.38567089475691318511962890625">
        <ele>717.4000244140625</ele>
        <time>2020-08-16T05:37:38.000Z</time>
      </trkpt>
      <trkpt lat="42.3890961706638336181640625" lon="0.3856015764176845550537109375">
        <ele>718.20001220703125</ele>
        <time>2020-08-16T05:37:42.000Z</time>
      </trkpt>
      <trkpt lat="42.38915274851024150848388671875" lon="0.3855120576918125152587890625">
        <ele>719</ele>
        <time>2020-08-16T05:37:48.000Z</time>
      </trkpt>
      <trkpt lat="42.38916180096566677093505859375" lon="0.38549588061869144439697265625">
        <ele>719.20001220703125</ele>
        <time>2020-08-16T05:37:49.000Z</time>
      </trkpt>
      <trkpt lat="42.38922902382910251617431640625" lon="0.385363362729549407958984375">
        <ele>720.20001220703125</ele>
        <time>2020-08-16T05:37:57.000Z</time>
      </trkpt>
      <trkpt lat="42.3892827518284320831298828125" lon="0.38526713848114013671875">
        <ele>721.4000244140625</ele>
        <time>2020-08-16T05:38:03.000Z</time>
      </trkpt>
      <trkpt lat="42.3892928101122379302978515625" lon="0.38525196723639965057373046875">
        <ele>721.5999755859375</ele>
        <time>2020-08-16T05:38:04.000Z</time>
      </trkpt>
      <trkpt lat="42.389360368251800537109375" lon="0.385121963918209075927734375">
        <ele>722.4000244140625</ele>
        <time>2020-08-16T05:38:12.000Z</time>
      </trkpt>
      <trkpt lat="42.38942532800137996673583984375" lon="0.3850158490240573883056640625">
        <ele>723.5999755859375</ele>
        <time>2020-08-16T05:38:19.000Z</time>
      </trkpt>
      <trkpt lat="42.3894502222537994384765625" lon="0.38496798835694789886474609375">
        <ele>724</ele>
        <time>2020-08-16T05:38:22.000Z</time>
      </trkpt>
      <trkpt lat="42.38948483951389789581298828125" lon="0.38490596227347850799560546875">
        <ele>724.5999755859375</ele>
        <time>2020-08-16T05:38:26.000Z</time>
      </trkpt>
      <trkpt lat="42.38951660692691802978515625" lon="0.38483890704810619354248046875">
        <ele>725</ele>
        <time>2020-08-16T05:38:30.000Z</time>
      </trkpt>
      <trkpt lat="42.3895459435880184173583984375" lon="0.3847908787429332733154296875">
        <ele>725.5999755859375</ele>
        <time>2020-08-16T05:38:33.000Z</time>
      </trkpt>
      <trkpt lat="42.3895995877683162689208984375" lon="0.3846899606287479400634765625">
        <ele>726.4000244140625</ele>
        <time>2020-08-16T05:38:39.000Z</time>
      </trkpt>
      <trkpt lat="42.3896160162985324859619140625" lon="0.384655930101871490478515625">
        <ele>726.79998779296875</ele>
        <time>2020-08-16T05:38:41.000Z</time>
      </trkpt>
      <trkpt lat="42.3896793834865093231201171875" lon="0.38454151712357997894287109375">
        <ele>727.79998779296875</ele>
        <time>2020-08-16T05:38:48.000Z</time>
      </trkpt>
      <trkpt lat="42.38969053141772747039794921875" lon="0.38452743552625179290771484375">
        <ele>728</ele>
        <time>2020-08-16T05:38:49.000Z</time>
      </trkpt>
      <trkpt lat="42.38975691609084606170654296875" lon="0.3844110108911991119384765625">
        <ele>729</ele>
        <time>2020-08-16T05:38:56.000Z</time>
      </trkpt>
      <trkpt lat="42.38976647146046161651611328125" lon="0.38439433090388774871826171875">
        <ele>729.20001220703125</ele>
        <time>2020-08-16T05:38:57.000Z</time>
      </trkpt>
      <trkpt lat="42.38981994800269603729248046875" lon="0.3842899762094020843505859375">
        <ele>730.20001220703125</ele>
        <time>2020-08-16T05:39:03.000Z</time>
      </trkpt>
      <trkpt lat="42.38984995521605014801025390625" lon="0.38421579636633396148681640625">
        <ele>731</ele>
        <time>2020-08-16T05:39:07.000Z</time>
      </trkpt>
      <trkpt lat="42.389870323240756988525390625" lon="0.38418662734329700469970703125">
        <ele>731.4000244140625</ele>
        <time>2020-08-16T05:39:09.000Z</time>
      </trkpt>
      <trkpt lat="42.3899120651185512542724609375" lon="0.3841005451977252960205078125">
        <ele>732</ele>
        <time>2020-08-16T05:39:14.000Z</time>
      </trkpt>
      <trkpt lat="42.38994986750185489654541015625" lon="0.38403692655265331268310546875">
        <ele>732.4000244140625</ele>
        <time>2020-08-16T05:39:18.000Z</time>
      </trkpt>
      <trkpt lat="42.389974929392337799072265625" lon="0.383996777236461639404296875">
        <ele>733</ele>
        <time>2020-08-16T05:39:21.000Z</time>
      </trkpt>
      <trkpt lat="42.38997216336429119110107421875" lon="0.38399417884647846221923828125">
        <ele>733.20001220703125</ele>
        <time>2020-08-16T05:39:28.000Z</time>
      </trkpt>
      <trkpt lat="42.389971911907196044921875" lon="0.38399518467485904693603515625">
        <ele>732.79998779296875</ele>
        <time>2020-08-16T05:39:50.000Z</time>
      </trkpt>
      <trkpt lat="42.38999244756996631622314453125" lon="0.383956544101238250732421875">
        <ele>733</ele>
        <time>2020-08-16T05:40:00.000Z</time>
      </trkpt>
      <trkpt lat="42.39001088775694370269775390625" lon="0.3839221782982349395751953125">
        <ele>733.4000244140625</ele>
        <time>2020-08-16T05:40:02.000Z</time>
      </trkpt>
      <trkpt lat="42.39008481614291667938232421875" lon="0.3837853856384754180908203125">
        <ele>734.20001220703125</ele>
        <time>2020-08-16T05:40:09.000Z</time>
      </trkpt>
      <trkpt lat="42.390094287693500518798828125" lon="0.38376652635633945465087890625">
        <ele>734.4000244140625</ele>
        <time>2020-08-16T05:40:10.000Z</time>
      </trkpt>
      <trkpt lat="42.39014885388314723968505859375" lon="0.38367046974599361419677734375">
        <ele>735.5999755859375</ele>
        <time>2020-08-16T05:40:15.000Z</time>
      </trkpt>
      <trkpt lat="42.39017919637262821197509765625" lon="0.3836117126047611236572265625">
        <ele>736.4000244140625</ele>
        <time>2020-08-16T05:40:18.000Z</time>
      </trkpt>
      <trkpt lat="42.39024055190384387969970703125" lon="0.383503250777721405029296875">
        <ele>736.79998779296875</ele>
        <time>2020-08-16T05:40:24.000Z</time>
      </trkpt>
      <trkpt lat="42.3902575671672821044921875" lon="0.3834641911089420318603515625">
        <ele>737.20001220703125</ele>
        <time>2020-08-16T05:40:26.000Z</time>
      </trkpt>
      <trkpt lat="42.39029117859899997711181640625" lon="0.3834115527570247650146484375">
        <ele>738</ele>
        <time>2020-08-16T05:40:29.000Z</time>
      </trkpt>
      <trkpt lat="42.39034180529415607452392578125" lon="0.38332127965986728668212890625">
        <ele>738.5999755859375</ele>
        <time>2020-08-16T05:40:34.000Z</time>
      </trkpt>
      <trkpt lat="42.3903616704046726226806640625" lon="0.38328967988491058349609375">
        <ele>739</ele>
        <time>2020-08-16T05:40:36.000Z</time>
      </trkpt>
      <trkpt lat="42.390405423939228057861328125" lon="0.3831969760358333587646484375">
        <ele>740</ele>
        <time>2020-08-16T05:40:41.000Z</time>
      </trkpt>
      <trkpt lat="42.3904159851372241973876953125" lon="0.38317970931529998779296875">
        <ele>740.4000244140625</ele>
        <time>2020-08-16T05:40:42.000Z</time>
      </trkpt>
      <trkpt lat="42.39047038368880748748779296875" lon="0.38307334296405315399169921875">
        <ele>741.20001220703125</ele>
        <time>2020-08-16T05:40:48.000Z</time>
      </trkpt>
      <trkpt lat="42.3905003070831298828125" lon="0.383005030453205108642578125">
        <ele>741.79998779296875</ele>
        <time>2020-08-16T05:40:52.000Z</time>
      </trkpt>
      <trkpt lat="42.3905524425208568572998046875" lon="0.38292850367724895477294921875">
        <ele>742.4000244140625</ele>
        <time>2020-08-16T05:40:57.000Z</time>
      </trkpt>
      <trkpt lat="42.390572726726531982421875" lon="0.38289162330329418182373046875">
        <ele>742.79998779296875</ele>
        <time>2020-08-16T05:40:59.000Z</time>
      </trkpt>
      <trkpt lat="42.39062410779297351837158203125" lon="0.38280528970062732696533203125">
        <ele>743.4000244140625</ele>
        <time>2020-08-16T05:41:04.000Z</time>
      </trkpt>
      <trkpt lat="42.3906503431499004364013671875" lon="0.38275265134871006011962890625">
        <ele>744</ele>
        <time>2020-08-16T05:41:07.000Z</time>
      </trkpt>
      <trkpt lat="42.39066484384238719940185546875" lon="0.38271158002316951751708984375">
        <ele>744.5999755859375</ele>
        <time>2020-08-16T05:41:09.000Z</time>
      </trkpt>
      <trkpt lat="42.39070658572018146514892578125" lon="0.38264636881649494171142578125">
        <ele>745</ele>
        <time>2020-08-16T05:41:13.000Z</time>
      </trkpt>
      <trkpt lat="42.390754781663417816162109375" lon="0.38256640546023845672607421875">
        <ele>745.5999755859375</ele>
        <time>2020-08-16T05:41:18.000Z</time>
      </trkpt>
      <trkpt lat="42.390771545469760894775390625" lon="0.38253338076174259185791015625">
        <ele>746</ele>
        <time>2020-08-16T05:41:20.000Z</time>
      </trkpt>
      <trkpt lat="42.390817143023014068603515625" lon="0.3824526630342006683349609375">
        <ele>746.79998779296875</ele>
        <time>2020-08-16T05:41:25.000Z</time>
      </trkpt>
      <trkpt lat="42.39084756933152675628662109375" lon="0.38240061141550540924072265625">
        <ele>747.20001220703125</ele>
        <time>2020-08-16T05:41:28.000Z</time>
      </trkpt>
      <trkpt lat="42.390878163278102874755859375" lon="0.38235031999647617340087890625">
        <ele>747.79998779296875</ele>
        <time>2020-08-16T05:41:31.000Z</time>
      </trkpt>
      <trkpt lat="42.39092736504971981048583984375" lon="0.38226046599447727203369140625">
        <ele>748.5999755859375</ele>
        <time>2020-08-16T05:41:36.000Z</time>
      </trkpt>
      <trkpt lat="42.39095033146440982818603515625" lon="0.38222928531467914581298828125">
        <ele>748.79998779296875</ele>
        <time>2020-08-16T05:41:38.000Z</time>
      </trkpt>
      <trkpt lat="42.3910178057849407196044921875" lon="0.3821083344519138336181640625">
        <ele>750</ele>
        <time>2020-08-16T05:41:45.000Z</time>
      </trkpt>
      <trkpt lat="42.39102803170680999755859375" lon="0.3820922411978244781494140625">
        <ele>750.20001220703125</ele>
        <time>2020-08-16T05:41:46.000Z</time>
      </trkpt>
      <trkpt lat="42.3910687677562236785888671875" lon="0.38202711381018161773681640625">
        <ele>751</ele>
        <time>2020-08-16T05:41:50.000Z</time>
      </trkpt>
      <trkpt lat="42.39112501032650470733642578125" lon="0.38193306885659694671630859375">
        <ele>751.79998779296875</ele>
        <time>2020-08-16T05:41:56.000Z</time>
      </trkpt>
      <trkpt lat="42.39114277996122837066650390625" lon="0.38190172053873538970947265625">
        <ele>752.20001220703125</ele>
        <time>2020-08-16T05:41:58.000Z</time>
      </trkpt>
      <trkpt lat="42.3912142775952816009521484375" lon="0.38177448324859142303466796875">
        <ele>753.20001220703125</ele>
        <time>2020-08-16T05:42:06.000Z</time>
      </trkpt>
      <trkpt lat="42.39122450351715087890625" lon="0.38175989873707294464111328125">
        <ele>753.4000244140625</ele>
        <time>2020-08-16T05:42:07.000Z</time>
      </trkpt>
      <trkpt lat="42.39128175191581249237060546875" lon="0.38166920654475688934326171875">
        <ele>754.4000244140625</ele>
        <time>2020-08-16T05:42:13.000Z</time>
      </trkpt>
      <trkpt lat="42.3913001082837581634521484375" lon="0.3816369362175464630126953125">
        <ele>754.79998779296875</ele>
        <time>2020-08-16T05:42:15.000Z</time>
      </trkpt>
      <trkpt lat="42.39136506803333759307861328125" lon="0.381545238196849822998046875">
        <ele>755.5999755859375</ele>
        <time>2020-08-16T05:42:21.000Z</time>
      </trkpt>
      <trkpt lat="42.3914050497114658355712890625" lon="0.38148245774209499359130859375">
        <ele>756</ele>
        <time>2020-08-16T05:42:25.000Z</time>
      </trkpt>
      <trkpt lat="42.3914687521755695343017578125" lon="0.38138539530336856842041015625">
        <ele>756.79998779296875</ele>
        <time>2020-08-16T05:42:31.000Z</time>
      </trkpt>
      <trkpt lat="42.39151418209075927734375" lon="0.381324291229248046875">
        <ele>757.79998779296875</ele>
        <time>2020-08-16T05:42:35.000Z</time>
      </trkpt>
      <trkpt lat="42.39160294644534587860107421875" lon="0.3811749257147312164306640625">
        <ele>759</ele>
        <time>2020-08-16T05:42:44.000Z</time>
      </trkpt>
      <trkpt lat="42.39167846739292144775390625" lon="0.3810394741594791412353515625">
        <ele>760.20001220703125</ele>
        <time>2020-08-16T05:42:52.000Z</time>
      </trkpt>
      <trkpt lat="42.39174543879926204681396484375" lon="0.38094484247267246246337890625">
        <ele>761.20001220703125</ele>
        <time>2020-08-16T05:42:58.000Z</time>
      </trkpt>
      <trkpt lat="42.39176387898623943328857421875" lon="0.3809083811938762664794921875">
        <ele>761.5999755859375</ele>
        <time>2020-08-16T05:43:00.000Z</time>
      </trkpt>
      <trkpt lat="42.3918181098997592926025390625" lon="0.38082967512309551239013671875">
        <ele>762.20001220703125</ele>
        <time>2020-08-16T05:43:05.000Z</time>
      </trkpt>
      <trkpt lat="42.3918399028480052947998046875" lon="0.3807972371578216552734375">
        <ele>762.4000244140625</ele>
        <time>2020-08-16T05:43:07.000Z</time>
      </trkpt>
      <trkpt lat="42.39188239909708499908447265625" lon="0.3807286731898784637451171875">
        <ele>763.20001220703125</ele>
        <time>2020-08-16T05:43:11.000Z</time>
      </trkpt>
      <trkpt lat="42.391936294734477996826171875" lon="0.3806485421955585479736328125">
        <ele>764.20001220703125</ele>
        <time>2020-08-16T05:43:16.000Z</time>
      </trkpt>
      <trkpt lat="42.39194593392312526702880859375" lon="0.38063202984631061553955078125">
        <ele>764.4000244140625</ele>
        <time>2020-08-16T05:43:17.000Z</time>
      </trkpt>
      <trkpt lat="42.3920303396880626678466796875" lon="0.38049791939556598663330078125">
        <ele>765.5999755859375</ele>
        <time>2020-08-16T05:43:25.000Z</time>
      </trkpt>
      <trkpt lat="42.39205892197787761688232421875" lon="0.38044645451009273529052734375">
        <ele>766</ele>
        <time>2020-08-16T05:43:28.000Z</time>
      </trkpt>
      <trkpt lat="42.392115332186222076416015625" lon="0.38036481477320194244384765625">
        <ele>766.5999755859375</ele>
        <time>2020-08-16T05:43:33.000Z</time>
      </trkpt>
      <trkpt lat="42.392168305814266204833984375" lon="0.3802854381501674652099609375">
        <ele>767.5999755859375</ele>
        <time>2020-08-16T05:43:38.000Z</time>
      </trkpt>
      <trkpt lat="42.39223008044064044952392578125" lon="0.38018703460693359375">
        <ele>768.79998779296875</ele>
        <time>2020-08-16T05:43:44.000Z</time>
      </trkpt>
      <trkpt lat="42.3922817967832088470458984375" lon="0.3801023773849010467529296875">
        <ele>769.4000244140625</ele>
        <time>2020-08-16T05:43:49.000Z</time>
      </trkpt>
      <trkpt lat="42.39231415092945098876953125" lon="0.38005401380360126495361328125">
        <ele>769.79998779296875</ele>
        <time>2020-08-16T05:43:52.000Z</time>
      </trkpt>
      <trkpt lat="42.39237592555582523345947265625" lon="0.37995032966136932373046875">
        <ele>770.79998779296875</ele>
        <time>2020-08-16T05:43:58.000Z</time>
      </trkpt>
      <trkpt lat="42.39238657057285308837890625" lon="0.379933230578899383544921875">
        <ele>771</ele>
        <time>2020-08-16T05:43:59.000Z</time>
      </trkpt>
      <trkpt lat="42.39245454780757427215576171875" lon="0.37983474321663379669189453125">
        <ele>771.79998779296875</ele>
        <time>2020-08-16T05:44:05.000Z</time>
      </trkpt>
      <trkpt lat="42.39249511621892452239990234375" lon="0.37976391613483428955078125">
        <ele>772.4000244140625</ele>
        <time>2020-08-16T05:44:09.000Z</time>
      </trkpt>
      <trkpt lat="42.39253015257418155670166015625" lon="0.37971538491547107696533203125">
        <ele>773</ele>
        <time>2020-08-16T05:44:12.000Z</time>
      </trkpt>
      <trkpt lat="42.392597459256649017333984375" lon="0.37961639463901519775390625">
        <ele>774.20001220703125</ele>
        <time>2020-08-16T05:44:18.000Z</time>
      </trkpt>
      <trkpt lat="42.39267197437584400177001953125" lon="0.37950105965137481689453125">
        <ele>775.20001220703125</ele>
        <time>2020-08-16T05:44:25.000Z</time>
      </trkpt>
      <trkpt lat="42.3926831223070621490478515625" lon="0.3794847987592220306396484375">
        <ele>775.4000244140625</ele>
        <time>2020-08-16T05:44:26.000Z</time>
      </trkpt>
      <trkpt lat="42.39274422638118267059326171875" lon="0.3793798573315143585205078125">
        <ele>776.4000244140625</ele>
        <time>2020-08-16T05:44:32.000Z</time>
      </trkpt>
      <trkpt lat="42.39279937930405139923095703125" lon="0.3792967088520526885986328125">
        <ele>777.4000244140625</ele>
        <time>2020-08-16T05:44:37.000Z</time>
      </trkpt>
      <trkpt lat="42.3928098566830158233642578125" lon="0.37927969358861446380615234375">
        <ele>777.5999755859375</ele>
        <time>2020-08-16T05:44:38.000Z</time>
      </trkpt>
      <trkpt lat="42.3928752355277538299560546875" lon="0.3791798651218414306640625">
        <ele>778.5999755859375</ele>
        <time>2020-08-16T05:44:44.000Z</time>
      </trkpt>
      <trkpt lat="42.39293734543025493621826171875" lon="0.3790806233882904052734375">
        <ele>779.4000244140625</ele>
        <time>2020-08-16T05:44:50.000Z</time>
      </trkpt>
      <trkpt lat="42.3929597251117229461669921875" lon="0.37904852069914340972900390625">
        <ele>779.5999755859375</ele>
        <time>2020-08-16T05:44:52.000Z</time>
      </trkpt>
      <trkpt lat="42.3930321447551250457763671875" lon="0.37892614491283893585205078125">
        <ele>780.79998779296875</ele>
        <time>2020-08-16T05:44:59.000Z</time>
      </trkpt>
      <trkpt lat="42.39304262213408946990966796875" lon="0.37890887819230556488037109375">
        <ele>780.79998779296875</ele>
        <time>2020-08-16T05:45:00.000Z</time>
      </trkpt>
      <trkpt lat="42.393099032342433929443359375" lon="0.37882572971284389495849609375">
        <ele>781.79998779296875</ele>
        <time>2020-08-16T05:45:05.000Z</time>
      </trkpt>
      <trkpt lat="42.39310934208333492279052734375" lon="0.3788068704307079315185546875">
        <ele>782</ele>
        <time>2020-08-16T05:45:06.000Z</time>
      </trkpt>
      <trkpt lat="42.3931746371090412139892578125" lon="0.37870486266911029815673828125">
        <ele>783</ele>
        <time>2020-08-16T05:45:12.000Z</time>
      </trkpt>
      <trkpt lat="42.39323037676513195037841796875" lon="0.37861802615225315093994140625">
        <ele>784</ele>
        <time>2020-08-16T05:45:17.000Z</time>
      </trkpt>
      <trkpt lat="42.39330430515110492706298828125" lon="0.37849657237529754638671875">
        <ele>785.20001220703125</ele>
        <time>2020-08-16T05:45:24.000Z</time>
      </trkpt>
      <trkpt lat="42.3933359049260616302490234375" lon="0.37844234146177768707275390625">
        <ele>785.5999755859375</ele>
        <time>2020-08-16T05:45:27.000Z</time>
      </trkpt>
      <trkpt lat="42.39336968399584293365478515625" lon="0.37838819436728954315185546875">
        <ele>786.20001220703125</ele>
        <time>2020-08-16T05:45:30.000Z</time>
      </trkpt>
      <trkpt lat="42.3934364877641201019287109375" lon="0.3782838396728038787841796875">
        <ele>787.20001220703125</ele>
        <time>2020-08-16T05:45:36.000Z</time>
      </trkpt>
      <trkpt lat="42.3934596218168735504150390625" lon="0.378251485526561737060546875">
        <ele>787.4000244140625</ele>
        <time>2020-08-16T05:45:38.000Z</time>
      </trkpt>
      <trkpt lat="42.393535561859607696533203125" lon="0.378126762807369232177734375">
        <ele>788.4000244140625</ele>
        <time>2020-08-16T05:45:45.000Z</time>
      </trkpt>
      <trkpt lat="42.39357789047062397003173828125" lon="0.3780555166304111480712890625">
        <ele>789.20001220703125</ele>
        <time>2020-08-16T05:45:49.000Z</time>
      </trkpt>
      <trkpt lat="42.3935888707637786865234375" lon="0.37803816609084606170654296875">
        <ele>789.4000244140625</ele>
        <time>2020-08-16T05:45:50.000Z</time>
      </trkpt>
      <trkpt lat="42.3936503939330577850341796875" lon="0.37793221883475780487060546875">
        <ele>790.20001220703125</ele>
        <time>2020-08-16T05:45:56.000Z</time>
      </trkpt>
      <trkpt lat="42.3936594463884830474853515625" lon="0.3779143653810024261474609375">
        <ele>790.5999755859375</ele>
        <time>2020-08-16T05:45:57.000Z</time>
      </trkpt>
      <trkpt lat="42.393724657595157623291015625" lon="0.37781571038067340850830078125">
        <ele>791.5999755859375</ele>
        <time>2020-08-16T05:46:03.000Z</time>
      </trkpt>
      <trkpt lat="42.39373614080250263214111328125" lon="0.3778020478785037994384765625">
        <ele>791.5999755859375</ele>
        <time>2020-08-16T05:46:04.000Z</time>
      </trkpt>
      <trkpt lat="42.39379045553505420684814453125" lon="0.37772007286548614501953125">
        <ele>792.5999755859375</ele>
        <time>2020-08-16T05:46:09.000Z</time>
      </trkpt>
      <trkpt lat="42.39381509833037853240966796875" lon="0.37768654525279998779296875">
        <ele>792.79998779296875</ele>
        <time>2020-08-16T05:46:11.000Z</time>
      </trkpt>
      <trkpt lat="42.39385952241718769073486328125" lon="0.37761680781841278076171875">
        <ele>793.5999755859375</ele>
        <time>2020-08-16T05:46:15.000Z</time>
      </trkpt>
      <trkpt lat="42.39390201866626739501953125" lon="0.37754430435597896575927734375">
        <ele>794.20001220703125</ele>
        <time>2020-08-16T05:46:19.000Z</time>
      </trkpt>
      <trkpt lat="42.39393160678446292877197265625" lon="0.37748806178569793701171875">
        <ele>794.5999755859375</ele>
        <time>2020-08-16T05:46:22.000Z</time>
      </trkpt>
      <trkpt lat="42.39398843608796596527099609375" lon="0.3774027340114116668701171875">
        <ele>795.5999755859375</ele>
        <time>2020-08-16T05:46:27.000Z</time>
      </trkpt>
      <trkpt lat="42.393998242914676666259765625" lon="0.377383790910243988037109375">
        <ele>795.79998779296875</ele>
        <time>2020-08-16T05:46:28.000Z</time>
      </trkpt>
      <trkpt lat="42.3940621130168437957763671875" lon="0.37727608345448970794677734375">
        <ele>796.79998779296875</ele>
        <time>2020-08-16T05:46:34.000Z</time>
      </trkpt>
      <trkpt lat="42.39407527260482311248779296875" lon="0.3772592358291149139404296875">
        <ele>796.79998779296875</ele>
        <time>2020-08-16T05:46:35.000Z</time>
      </trkpt>
      <trkpt lat="42.39414216019213199615478515625" lon="0.3771536238491535186767578125">
        <ele>797.79998779296875</ele>
        <time>2020-08-16T05:46:41.000Z</time>
      </trkpt>
      <trkpt lat="42.39416562952101230621337890625" lon="0.37712085060775279998779296875">
        <ele>798.20001220703125</ele>
        <time>2020-08-16T05:46:43.000Z</time>
      </trkpt>
      <trkpt lat="42.394220530986785888671875" lon="0.3770299069583415985107421875">
        <ele>799</ele>
        <time>2020-08-16T05:46:48.000Z</time>
      </trkpt>
      <trkpt lat="42.39425565116107463836669921875" lon="0.3769772686064243316650390625">
        <ele>799.5999755859375</ele>
        <time>2020-08-16T05:46:51.000Z</time>
      </trkpt>
      <trkpt lat="42.394299320876598358154296875" lon="0.37690375931560993194580078125">
        <ele>800.20001220703125</ele>
        <time>2020-08-16T05:46:55.000Z</time>
      </trkpt>
      <trkpt lat="42.3943427391350269317626953125" lon="0.37683435715734958648681640625">
        <ele>801.20001220703125</ele>
        <time>2020-08-16T05:46:59.000Z</time>
      </trkpt>
      <trkpt lat="42.3943631909787654876708984375" lon="0.37679982371628284454345703125">
        <ele>801.5999755859375</ele>
        <time>2020-08-16T05:47:01.000Z</time>
      </trkpt>
      <trkpt lat="42.394421361386775970458984375" lon="0.37669840268790721893310546875">
        <ele>802.20001220703125</ele>
        <time>2020-08-16T05:47:07.000Z</time>
      </trkpt>
      <trkpt lat="42.39443049766123294830322265625" lon="0.37668130360543727874755859375">
        <ele>802.4000244140625</ele>
        <time>2020-08-16T05:47:08.000Z</time>
      </trkpt>
      <trkpt lat="42.3944713175296783447265625" lon="0.37661475129425525665283203125">
        <ele>803.20001220703125</ele>
        <time>2020-08-16T05:47:12.000Z</time>
      </trkpt>
      <trkpt lat="42.39451498724520206451416015625" lon="0.37654702551662921905517578125">
        <ele>803.5999755859375</ele>
        <time>2020-08-16T05:47:16.000Z</time>
      </trkpt>
      <trkpt lat="42.3945558071136474609375" lon="0.37647829391062259674072265625">
        <ele>804.20001220703125</ele>
        <time>2020-08-16T05:47:20.000Z</time>
      </trkpt>
      <trkpt lat="42.39461976103484630584716796875" lon="0.376373939216136932373046875">
        <ele>805.4000244140625</ele>
        <time>2020-08-16T05:47:26.000Z</time>
      </trkpt>
      <trkpt lat="42.39463023841381072998046875" lon="0.37635616958141326904296875">
        <ele>805.5999755859375</ele>
        <time>2020-08-16T05:47:27.000Z</time>
      </trkpt>
      <trkpt lat="42.39468949846923351287841796875" lon="0.37624896503984928131103515625">
        <ele>806.79998779296875</ele>
        <time>2020-08-16T05:47:33.000Z</time>
      </trkpt>
      <trkpt lat="42.39470927976071834564208984375" lon="0.37621208466589450836181640625">
        <ele>807</ele>
        <time>2020-08-16T05:47:35.000Z</time>
      </trkpt>
      <trkpt lat="42.39476879127323627471923828125" lon="0.376107729971408843994140625">
        <ele>808</ele>
        <time>2020-08-16T05:47:41.000Z</time>
      </trkpt>
      <trkpt lat="42.39478974603116512298583984375" lon="0.37607328034937381744384765625">
        <ele>808.4000244140625</ele>
        <time>2020-08-16T05:47:43.000Z</time>
      </trkpt>
      <trkpt lat="42.3948406241834163665771484375" lon="0.375986360013484954833984375">
        <ele>809</ele>
        <time>2020-08-16T05:47:48.000Z</time>
      </trkpt>
      <trkpt lat="42.3948798514902591705322265625" lon="0.37591620348393917083740234375">
        <ele>809.5999755859375</ele>
        <time>2020-08-16T05:47:52.000Z</time>
      </trkpt>
      <trkpt lat="42.394907176494598388671875" lon="0.37586121819913387298583984375">
        <ele>809.79998779296875</ele>
        <time>2020-08-16T05:47:55.000Z</time>
      </trkpt>
      <trkpt lat="42.39495872519910335540771484375" lon="0.375769771635532379150390625">
        <ele>810.79998779296875</ele>
        <time>2020-08-16T05:48:00.000Z</time>
      </trkpt>
      <trkpt lat="42.39496794529259204864501953125" lon="0.375749655067920684814453125">
        <ele>811</ele>
        <time>2020-08-16T05:48:01.000Z</time>
      </trkpt>
      <trkpt lat="42.395019829273223876953125" lon="0.37565569393336772918701171875">
        <ele>812</ele>
        <time>2020-08-16T05:48:06.000Z</time>
      </trkpt>
      <trkpt lat="42.39504355005919933319091796875" lon="0.37559551186859607696533203125">
        <ele>812.4000244140625</ele>
        <time>2020-08-16T05:48:09.000Z</time>
      </trkpt>
      <trkpt lat="42.395089901983737945556640625" lon="0.3755231760442256927490234375">
        <ele>813.20001220703125</ele>
        <time>2020-08-16T05:48:13.000Z</time>
      </trkpt>
      <trkpt lat="42.39512351341545581817626953125" lon="0.37546827457845211029052734375">
        <ele>813.5999755859375</ele>
        <time>2020-08-16T05:48:16.000Z</time>
      </trkpt>
      <trkpt lat="42.39516575820744037628173828125" lon="0.37539451383054256439208984375">
        <ele>814.20001220703125</ele>
        <time>2020-08-16T05:48:20.000Z</time>
      </trkpt>
      <trkpt lat="42.39521437324583530426025390625" lon="0.375299714505672454833984375">
        <ele>815</ele>
        <time>2020-08-16T05:48:25.000Z</time>
      </trkpt>
      <trkpt lat="42.395224682986736297607421875" lon="0.375281274318695068359375">
        <ele>815.20001220703125</ele>
        <time>2020-08-16T05:48:26.000Z</time>
      </trkpt>
      <trkpt lat="42.39527723751962184906005859375" lon="0.37518999539315700531005859375">
        <ele>818.79998779296875</ele>
        <time>2020-08-16T05:48:31.000Z</time>
      </trkpt>
      <trkpt lat="42.39530925638973712921142578125" lon="0.37513618357479572296142578125">
        <ele>816.5999755859375</ele>
        <time>2020-08-16T05:48:34.000Z</time>
      </trkpt>
      <trkpt lat="42.39533859305083751678466796875" lon="0.37507818080484867095947265625">
        <ele>817.4000244140625</ele>
        <time>2020-08-16T05:48:37.000Z</time>
      </trkpt>
      <trkpt lat="42.395421825349330902099609375" lon="0.3749307431280612945556640625">
        <ele>818.20001220703125</ele>
        <time>2020-08-16T05:48:45.000Z</time>
      </trkpt>
      <trkpt lat="42.3954317159950733184814453125" lon="0.37491154856979846954345703125">
        <ele>818.4000244140625</ele>
        <time>2020-08-16T05:48:46.000Z</time>
      </trkpt>
      <trkpt lat="42.39549231715500354766845703125" lon="0.37479721941053867340087890625">
        <ele>819.5999755859375</ele>
        <time>2020-08-16T05:48:52.000Z</time>
      </trkpt>
      <trkpt lat="42.39550807513296604156494140625" lon="0.37475564517080783843994140625">
        <ele>820.20001220703125</ele>
        <time>2020-08-16T05:48:54.000Z</time>
      </trkpt>
      <trkpt lat="42.3955383338034152984619140625" lon="0.37470124661922454833984375">
        <ele>820.5999755859375</ele>
        <time>2020-08-16T05:48:57.000Z</time>
      </trkpt>
      <trkpt lat="42.3955745436251163482666015625" lon="0.37462941370904445648193359375">
        <ele>821.4000244140625</ele>
        <time>2020-08-16T05:49:01.000Z</time>
      </trkpt>
      <trkpt lat="42.3956060595810413360595703125" lon="0.3745773620903491973876953125">
        <ele>821.79998779296875</ele>
        <time>2020-08-16T05:49:04.000Z</time>
      </trkpt>
      <trkpt lat="42.395662553608417510986328125" lon="0.3744720853865146636962890625">
        <ele>822.5999755859375</ele>
        <time>2020-08-16T05:49:10.000Z</time>
      </trkpt>
      <trkpt lat="42.395674623548984527587890625" lon="0.37445708177983760833740234375">
        <ele>823</ele>
        <time>2020-08-16T05:49:11.000Z</time>
      </trkpt>
      <trkpt lat="42.39573338069021701812744140625" lon="0.374345518648624420166015625">
        <ele>823.79998779296875</ele>
        <time>2020-08-16T05:49:17.000Z</time>
      </trkpt>
      <trkpt lat="42.395751066505908966064453125" lon="0.37430562078952789306640625">
        <ele>824.20001220703125</ele>
        <time>2020-08-16T05:49:19.000Z</time>
      </trkpt>
      <trkpt lat="42.39578803069889545440673828125" lon="0.37422909401357173919677734375">
        <ele>824.79998779296875</ele>
        <time>2020-08-16T05:49:23.000Z</time>
      </trkpt>
      <trkpt lat="42.39580906927585601806640625" lon="0.37419372238218784332275390625">
        <ele>825.20001220703125</ele>
        <time>2020-08-16T05:49:25.000Z</time>
      </trkpt>
      <trkpt lat="42.3958669044077396392822265625" lon="0.3740917146205902099609375">
        <ele>826.20001220703125</ele>
        <time>2020-08-16T05:49:31.000Z</time>
      </trkpt>
      <trkpt lat="42.3958873562514781951904296875" lon="0.37405860610306262969970703125">
        <ele>826.4000244140625</ele>
        <time>2020-08-16T05:49:33.000Z</time>
      </trkpt>
      <trkpt lat="42.395931780338287353515625" lon="0.37396992556750774383544921875">
        <ele>827.4000244140625</ele>
        <time>2020-08-16T05:49:38.000Z</time>
      </trkpt>
      <trkpt lat="42.3959399946033954620361328125" lon="0.37395156919956207275390625">
        <ele>827.5999755859375</ele>
        <time>2020-08-16T05:49:39.000Z</time>
      </trkpt>
      <trkpt lat="42.396004199981689453125" lon="0.373830534517765045166015625">
        <ele>828.5999755859375</ele>
        <time>2020-08-16T05:49:46.000Z</time>
      </trkpt>
      <trkpt lat="42.396013922989368438720703125" lon="0.37381301634013652801513671875">
        <ele>828.5999755859375</ele>
        <time>2020-08-16T05:49:47.000Z</time>
      </trkpt>
      <trkpt lat="42.396065555512905120849609375" lon="0.373707152903079986572265625">
        <ele>829.5999755859375</ele>
        <time>2020-08-16T05:49:53.000Z</time>
      </trkpt>
      <trkpt lat="42.39611593075096607208251953125" lon="0.37362442351877689361572265625">
        <ele>830.4000244140625</ele>
        <time>2020-08-16T05:49:58.000Z</time>
      </trkpt>
      <trkpt lat="42.39612833596765995025634765625" lon="0.37358603440225124359130859375">
        <ele>830.79998779296875</ele>
        <time>2020-08-16T05:50:00.000Z</time>
      </trkpt>
      <trkpt lat="42.3961772024631500244140625" lon="0.3735011257231235504150390625">
        <ele>831.5999755859375</ele>
        <time>2020-08-16T05:50:05.000Z</time>
      </trkpt>
      <trkpt lat="42.39619740284979343414306640625" lon="0.3734659217298030853271484375">
        <ele>831.5999755859375</ele>
        <time>2020-08-16T05:50:07.000Z</time>
      </trkpt>
      <trkpt lat="42.39624895155429840087890625" lon="0.3733529336750507354736328125">
        <ele>833</ele>
        <time>2020-08-16T05:50:13.000Z</time>
      </trkpt>
      <trkpt lat="42.39625473506748676300048828125" lon="0.37333189509809017181396484375">
        <ele>833</ele>
        <time>2020-08-16T05:50:14.000Z</time>
      </trkpt>
      <trkpt lat="42.3963128216564655303955078125" lon="0.37322938442230224609375">
        <ele>833.5999755859375</ele>
        <time>2020-08-16T05:50:20.000Z</time>
      </trkpt>
      <trkpt lat="42.3963215388357639312744140625" lon="0.373212285339832305908203125">
        <ele>834</ele>
        <time>2020-08-16T05:50:21.000Z</time>
      </trkpt>
      <trkpt lat="42.39638716913759708404541015625" lon="0.37308731116354465484619140625">
        <ele>835</ele>
        <time>2020-08-16T05:50:28.000Z</time>
      </trkpt>
      <trkpt lat="42.396449111402034759521484375" lon="0.3729559667408466339111328125">
        <ele>835.79998779296875</ele>
        <time>2020-08-16T05:50:35.000Z</time>
      </trkpt>
      <trkpt lat="42.39646746776998043060302734375" lon="0.37291682325303554534912109375">
        <ele>836.20001220703125</ele>
        <time>2020-08-16T05:50:37.000Z</time>
      </trkpt>
      <trkpt lat="42.3965285718441009521484375" lon="0.3727879934012889862060546875">
        <ele>837.20001220703125</ele>
        <time>2020-08-16T05:50:44.000Z</time>
      </trkpt>
      <trkpt lat="42.3965364508330821990966796875" lon="0.37276846356689929962158203125">
        <ele>837.20001220703125</ele>
        <time>2020-08-16T05:50:45.000Z</time>
      </trkpt>
      <trkpt lat="42.396578527987003326416015625" lon="0.3726800344884395599365234375">
        <ele>838.4000244140625</ele>
        <time>2020-08-16T05:50:50.000Z</time>
      </trkpt>
      <trkpt lat="42.3966682143509387969970703125" lon="0.37252421490848064422607421875">
        <ele>839.4000244140625</ele>
        <time>2020-08-16T05:50:59.000Z</time>
      </trkpt>
      <trkpt lat="42.39673669449985027313232421875" lon="0.3723799623548984527587890625">
        <ele>840.4000244140625</ele>
        <time>2020-08-16T05:51:07.000Z</time>
      </trkpt>
      <trkpt lat="42.39681489765644073486328125" lon="0.37224191240966320037841796875">
        <ele>841.5999755859375</ele>
        <time>2020-08-16T05:51:15.000Z</time>
      </trkpt>
      <trkpt lat="42.3968294821679592132568359375" lon="0.3722034394741058349609375">
        <ele>841.79998779296875</ele>
        <time>2020-08-16T05:51:17.000Z</time>
      </trkpt>
      <trkpt lat="42.39685110747814178466796875" lon="0.3721469454467296600341796875">
        <ele>842.5999755859375</ele>
        <time>2020-08-16T05:51:20.000Z</time>
      </trkpt>
      <trkpt lat="42.39690567366778850555419921875" lon="0.3720666468143463134765625">
        <ele>843.20001220703125</ele>
        <time>2020-08-16T05:51:25.000Z</time>
      </trkpt>
      <trkpt lat="42.396948002278804779052734375" lon="0.37199900485575199127197265625">
        <ele>843.5999755859375</ele>
        <time>2020-08-16T05:51:29.000Z</time>
      </trkpt>
      <trkpt lat="42.3969991318881511688232421875" lon="0.37188895046710968017578125">
        <ele>844.4000244140625</ele>
        <time>2020-08-16T05:51:35.000Z</time>
      </trkpt>
      <trkpt lat="42.39703022874891757965087890625" lon="0.371838323771953582763671875">
        <ele>844.79998779296875</ele>
        <time>2020-08-16T05:51:38.000Z</time>
      </trkpt>
      <trkpt lat="42.397096864879131317138671875" lon="0.37173966877162456512451171875">
        <ele>845.5999755859375</ele>
        <time>2020-08-16T05:51:44.000Z</time>
      </trkpt>
      <trkpt lat="42.3971262015402317047119140625" lon="0.37168686278164386749267578125">
        <ele>846</ele>
        <time>2020-08-16T05:51:47.000Z</time>
      </trkpt>
      <trkpt lat="42.39717104472219944000244140625" lon="0.37162098102271556854248046875">
        <ele>846.79998779296875</ele>
        <time>2020-08-16T05:51:51.000Z</time>
      </trkpt>
      <trkpt lat="42.39718210883438587188720703125" lon="0.37160404957830905914306640625">
        <ele>847</ele>
        <time>2020-08-16T05:51:52.000Z</time>
      </trkpt>
      <trkpt lat="42.39728604443371295928955078125" lon="0.371452085673809051513671875">
        <ele>847.79998779296875</ele>
        <time>2020-08-16T05:52:02.000Z</time>
      </trkpt>
      <trkpt lat="42.397286631166934967041015625" lon="0.3714515827596187591552734375">
        <ele>847.79998779296875</ele>
        <time>2020-08-16T05:52:03.000Z</time>
      </trkpt>
      <trkpt lat="42.3972795903682708740234375" lon="0.37145418114960193634033203125">
        <ele>848.20001220703125</ele>
        <time>2020-08-16T05:55:29.000Z</time>
      </trkpt>
      <trkpt lat="42.397281937301158905029296875" lon="0.3714462183415889739990234375">
        <ele>848.20001220703125</ele>
        <time>2020-08-16T05:55:31.000Z</time>
      </trkpt>
      <trkpt lat="42.397292666137218475341796875" lon="0.37142149172723293304443359375">
        <ele>848.20001220703125</ele>
        <time>2020-08-16T05:55:33.000Z</time>
      </trkpt>
      <trkpt lat="42.39730884321033954620361328125" lon="0.37139450199902057647705078125">
        <ele>848.4000244140625</ele>
        <time>2020-08-16T05:55:35.000Z</time>
      </trkpt>
      <trkpt lat="42.3973310552537441253662109375" lon="0.37136918865144252777099609375">
        <ele>848.5999755859375</ele>
        <time>2020-08-16T05:55:37.000Z</time>
      </trkpt>
      <trkpt lat="42.3973498307168483734130859375" lon="0.37133851088583469390869140625">
        <ele>848.79998779296875</ele>
        <time>2020-08-16T05:55:39.000Z</time>
      </trkpt>
      <trkpt lat="42.39741462282836437225341796875" lon="0.37125066854059696197509765625">
        <ele>849.5999755859375</ele>
        <time>2020-08-16T05:55:45.000Z</time>
      </trkpt>
      <trkpt lat="42.39742602221667766571044921875" lon="0.37123692221939563751220703125">
        <ele>849.79998779296875</ele>
        <time>2020-08-16T05:55:46.000Z</time>
      </trkpt>
      <trkpt lat="42.397514283657073974609375" lon="0.37111773155629634857177734375">
        <ele>850.5999755859375</ele>
        <time>2020-08-16T05:55:54.000Z</time>
      </trkpt>
      <trkpt lat="42.3975389264523983001708984375" lon="0.37108831107616424560546875">
        <ele>850.5999755859375</ele>
        <time>2020-08-16T05:55:56.000Z</time>
      </trkpt>
      <trkpt lat="42.3976068198680877685546875" lon="0.37099309265613555908203125">
        <ele>851.4000244140625</ele>
        <time>2020-08-16T05:56:02.000Z</time>
      </trkpt>
      <trkpt lat="42.39763171412050724029541015625" lon="0.37096451036632061004638671875">
        <ele>851.79998779296875</ele>
        <time>2020-08-16T05:56:04.000Z</time>
      </trkpt>
      <trkpt lat="42.3977060616016387939453125" lon="0.3708735667169094085693359375">
        <ele>852.79998779296875</ele>
        <time>2020-08-16T05:56:10.000Z</time>
      </trkpt>
      <trkpt lat="42.39782047457993030548095703125" lon="0.37074138410389423370361328125">
        <ele>854</ele>
        <time>2020-08-16T05:56:19.000Z</time>
      </trkpt>
      <trkpt lat="42.39791032858192920684814453125" lon="0.37063593976199626922607421875">
        <ele>855</ele>
        <time>2020-08-16T05:56:26.000Z</time>
      </trkpt>
      <trkpt lat="42.3979241587221622467041015625" lon="0.37062185816466808319091796875">
        <ele>855</ele>
        <time>2020-08-16T05:56:27.000Z</time>
      </trkpt>
      <trkpt lat="42.39804846234619617462158203125" lon="0.3704920224845409393310546875">
        <ele>856</ele>
        <time>2020-08-16T05:56:36.000Z</time>
      </trkpt>
      <trkpt lat="42.3980629630386829376220703125" lon="0.37048003636300563812255859375">
        <ele>856.20001220703125</ele>
        <time>2020-08-16T05:56:37.000Z</time>
      </trkpt>
      <trkpt lat="42.39816673099994659423828125" lon="0.37036369554698467254638671875">
        <ele>857.20001220703125</ele>
        <time>2020-08-16T05:56:45.000Z</time>
      </trkpt>
      <trkpt lat="42.3981806449592113494873046875" lon="0.3703488595783710479736328125">
        <ele>857.20001220703125</ele>
        <time>2020-08-16T05:56:46.000Z</time>
      </trkpt>
      <trkpt lat="42.39827728830277919769287109375" lon="0.37025003693997859954833984375">
        <ele>858.20001220703125</ele>
        <time>2020-08-16T05:56:53.000Z</time>
      </trkpt>
      <trkpt lat="42.398292124271392822265625" lon="0.37023729644715785980224609375">
        <ele>858.20001220703125</ele>
        <time>2020-08-16T05:56:54.000Z</time>
      </trkpt>
      <trkpt lat="42.3984183557331562042236328125" lon="0.37015029229223728179931640625">
        <ele>859</ele>
        <time>2020-08-16T05:57:02.000Z</time>
      </trkpt>
      <trkpt lat="42.39846185781061649322509765625" lon="0.3701141662895679473876953125">
        <ele>859.4000244140625</ele>
        <time>2020-08-16T05:57:05.000Z</time>
      </trkpt>
      <trkpt lat="42.3985202796757221221923828125" lon="0.37006027065217494964599609375">
        <ele>860</ele>
        <time>2020-08-16T05:57:09.000Z</time>
      </trkpt>
      <trkpt lat="42.398583479225635528564453125" lon="0.37001769058406352996826171875">
        <ele>860.4000244140625</ele>
        <time>2020-08-16T05:57:13.000Z</time>
      </trkpt>
      <trkpt lat="42.398646511137485504150390625" lon="0.369972847402095794677734375">
        <ele>860.79998779296875</ele>
        <time>2020-08-16T05:57:17.000Z</time>
      </trkpt>
      <trkpt lat="42.3986745066940784454345703125" lon="0.36994862370193004608154296875">
        <ele>861.4000244140625</ele>
        <time>2020-08-16T05:57:19.000Z</time>
      </trkpt>
      <trkpt lat="42.39874650724232196807861328125" lon="0.3698918782174587249755859375">
        <ele>862</ele>
        <time>2020-08-16T05:57:24.000Z</time>
      </trkpt>
      <trkpt lat="42.398817837238311767578125" lon="0.36983731202781200408935546875">
        <ele>862.4000244140625</ele>
        <time>2020-08-16T05:57:29.000Z</time>
      </trkpt>
      <trkpt lat="42.3988495208323001861572265625" lon="0.36981937475502490997314453125">
        <ele>862.79998779296875</ele>
        <time>2020-08-16T05:57:31.000Z</time>
      </trkpt>
      <trkpt lat="42.398942224681377410888671875" lon="0.36975525319576263427734375">
        <ele>863.5999755859375</ele>
        <time>2020-08-16T05:57:37.000Z</time>
      </trkpt>
      <trkpt lat="42.3989715613424777984619140625" lon="0.3697282634675502777099609375">
        <ele>864</ele>
        <time>2020-08-16T05:57:39.000Z</time>
      </trkpt>
      <trkpt lat="42.39905144087970256805419921875" lon="0.36967872641980648040771484375">
        <ele>864.79998779296875</ele>
        <time>2020-08-16T05:57:44.000Z</time>
      </trkpt>
      <trkpt lat="42.3990956135094165802001953125" lon="0.3696461208164691925048828125">
        <ele>865</ele>
        <time>2020-08-16T05:57:47.000Z</time>
      </trkpt>
      <trkpt lat="42.399187646806240081787109375" lon="0.3695830889046192169189453125">
        <ele>865.79998779296875</ele>
        <time>2020-08-16T05:57:53.000Z</time>
      </trkpt>
      <trkpt lat="42.399229891598224639892578125" lon="0.3695495612919330596923828125">
        <ele>866.4000244140625</ele>
        <time>2020-08-16T05:57:56.000Z</time>
      </trkpt>
      <trkpt lat="42.399274148046970367431640625" lon="0.369516871869564056396484375">
        <ele>867</ele>
        <time>2020-08-16T05:57:59.000Z</time>
      </trkpt>
      <trkpt lat="42.399351932108402252197265625" lon="0.3694694302976131439208984375">
        <ele>867.20001220703125</ele>
        <time>2020-08-16T05:58:04.000Z</time>
      </trkpt>
      <trkpt lat="42.3994282074272632598876953125" lon="0.36941369064152240753173828125">
        <ele>868</ele>
        <time>2020-08-16T05:58:09.000Z</time>
      </trkpt>
      <trkpt lat="42.39947807975113391876220703125" lon="0.36938636563718318939208984375">
        <ele>868.5999755859375</ele>
        <time>2020-08-16T05:58:12.000Z</time>
      </trkpt>
      <trkpt lat="42.39954345859587192535400390625" lon="0.36934395320713520050048828125">
        <ele>869.20001220703125</ele>
        <time>2020-08-16T05:58:16.000Z</time>
      </trkpt>
      <trkpt lat="42.399634905159473419189453125" lon="0.36928444169461727142333984375">
        <ele>870</ele>
        <time>2020-08-16T05:58:22.000Z</time>
      </trkpt>
      <trkpt lat="42.3996481485664844512939453125" lon="0.3692717850208282470703125">
        <ele>870.20001220703125</ele>
        <time>2020-08-16T05:58:23.000Z</time>
      </trkpt>
      <trkpt lat="42.39974814467132091522216796875" lon="0.36919810809195041656494140625">
        <ele>871.20001220703125</ele>
        <time>2020-08-16T05:58:30.000Z</time>
      </trkpt>
      <trkpt lat="42.399869598448276519775390625" lon="0.3691200725734233856201171875">
        <ele>872.20001220703125</ele>
        <time>2020-08-16T05:58:38.000Z</time>
      </trkpt>
      <trkpt lat="42.3999001085758209228515625" lon="0.3691001236438751220703125">
        <ele>872.5999755859375</ele>
        <time>2020-08-16T05:58:40.000Z</time>
      </trkpt>
      <trkpt lat="42.39999272860586643218994140625" lon="0.36906056106090545654296875">
        <ele>873.20001220703125</ele>
        <time>2020-08-16T05:58:45.000Z</time>
      </trkpt>
      <trkpt lat="42.40007218904793262481689453125" lon="0.36901001818478107452392578125">
        <ele>873.79998779296875</ele>
        <time>2020-08-16T05:58:50.000Z</time>
      </trkpt>
      <trkpt lat="42.40010571666061878204345703125" lon="0.36899660713970661163330078125">
        <ele>874.4000244140625</ele>
        <time>2020-08-16T05:58:52.000Z</time>
      </trkpt>
      <trkpt lat="42.40021996200084686279296875" lon="0.36893315613269805908203125">
        <ele>875.20001220703125</ele>
        <time>2020-08-16T05:58:59.000Z</time>
      </trkpt>
      <trkpt lat="42.40023605525493621826171875" lon="0.36892418749630451202392578125">
        <ele>875.4000244140625</ele>
        <time>2020-08-16T05:59:00.000Z</time>
      </trkpt>
      <trkpt lat="42.400362789630889892578125" lon="0.36884958855807781219482421875">
        <ele>876.4000244140625</ele>
        <time>2020-08-16T05:59:08.000Z</time>
      </trkpt>
      <trkpt lat="42.4004098959267139434814453125" lon="0.3688213415443897247314453125">
        <ele>877</ele>
        <time>2020-08-16T05:59:11.000Z</time>
      </trkpt>
      <trkpt lat="42.4004741013050079345703125" lon="0.3687787614762783050537109375">
        <ele>877.5999755859375</ele>
        <time>2020-08-16T05:59:15.000Z</time>
      </trkpt>
      <trkpt lat="42.40056370384991168975830078125" lon="0.368708856403827667236328125">
        <ele>878.5999755859375</ele>
        <time>2020-08-16T05:59:21.000Z</time>
      </trkpt>
      <trkpt lat="42.40067593753337860107421875" lon="0.36864758469164371490478515625">
        <ele>879.5999755859375</ele>
        <time>2020-08-16T05:59:28.000Z</time>
      </trkpt>
      <trkpt lat="42.4006911925971508026123046875" lon="0.3686362691223621368408203125">
        <ele>879.79998779296875</ele>
        <time>2020-08-16T05:59:29.000Z</time>
      </trkpt>
      <trkpt lat="42.4007988162338733673095703125" lon="0.36856275983154773712158203125">
        <ele>880.79998779296875</ele>
        <time>2020-08-16T05:59:36.000Z</time>
      </trkpt>
      <trkpt lat="42.40087215788662433624267578125" lon="0.368506014347076416015625">
        <ele>881.5999755859375</ele>
        <time>2020-08-16T05:59:41.000Z</time>
      </trkpt>
      <trkpt lat="42.40090199746191501617431640625" lon="0.36848531104624271392822265625">
        <ele>881.79998779296875</ele>
        <time>2020-08-16T05:59:43.000Z</time>
      </trkpt>
      <trkpt lat="42.40098866634070873260498046875" lon="0.36841875873506069183349609375">
        <ele>882.20001220703125</ele>
        <time>2020-08-16T05:59:49.000Z</time>
      </trkpt>
      <trkpt lat="42.40101833827793598175048828125" lon="0.368398390710353851318359375">
        <ele>882.5999755859375</ele>
        <time>2020-08-16T05:59:51.000Z</time>
      </trkpt>
      <trkpt lat="42.40112244151532649993896484375" lon="0.36832672543823719024658203125">
        <ele>883.79998779296875</ele>
        <time>2020-08-16T05:59:58.000Z</time>
      </trkpt>
      <trkpt lat="42.40113819949328899383544921875" lon="0.36831700243055820465087890625">
        <ele>883.79998779296875</ele>
        <time>2020-08-16T05:59:59.000Z</time>
      </trkpt>
      <trkpt lat="42.40122847259044647216796875" lon="0.368246845901012420654296875">
        <ele>885</ele>
        <time>2020-08-16T06:00:05.000Z</time>
      </trkpt>
      <trkpt lat="42.40129225887358188629150390625" lon="0.36820803768932819366455078125">
        <ele>885.5999755859375</ele>
        <time>2020-08-16T06:00:09.000Z</time>
      </trkpt>
      <trkpt lat="42.40134841762483119964599609375" lon="0.36816160194575786590576171875">
        <ele>886</ele>
        <time>2020-08-16T06:00:13.000Z</time>
      </trkpt>
      <trkpt lat="42.4014106951653957366943359375" lon="0.36812044680118560791015625">
        <ele>886.79998779296875</ele>
        <time>2020-08-16T06:00:17.000Z</time>
      </trkpt>
      <trkpt lat="42.401454448699951171875" lon="0.3680837340652942657470703125">
        <ele>887.20001220703125</ele>
        <time>2020-08-16T06:00:20.000Z</time>
      </trkpt>
      <trkpt lat="42.40157338790595531463623046875" lon="0.36798826418817043304443359375">
        <ele>888.20001220703125</ele>
        <time>2020-08-16T06:00:28.000Z</time>
      </trkpt>
      <trkpt lat="42.40158788859844207763671875" lon="0.36797652952373027801513671875">
        <ele>888.4000244140625</ele>
        <time>2020-08-16T06:00:29.000Z</time>
      </trkpt>
      <trkpt lat="42.401647232472896575927734375" lon="0.3679285012185573577880859375">
        <ele>889.20001220703125</ele>
        <time>2020-08-16T06:00:33.000Z</time>
      </trkpt>
      <trkpt lat="42.40173515863716602325439453125" lon="0.36785080097615718841552734375">
        <ele>889.79998779296875</ele>
        <time>2020-08-16T06:00:39.000Z</time>
      </trkpt>
      <trkpt lat="42.4017617292702198028564453125" lon="0.3678205423057079315185546875">
        <ele>890.4000244140625</ele>
        <time>2020-08-16T06:00:41.000Z</time>
      </trkpt>
      <trkpt lat="42.40185745060443878173828125" lon="0.367728173732757568359375">
        <ele>891.4000244140625</ele>
        <time>2020-08-16T06:00:48.000Z</time>
      </trkpt>
      <trkpt lat="42.401924841105937957763671875" lon="0.36765365861356258392333984375">
        <ele>892.4000244140625</ele>
        <time>2020-08-16T06:00:53.000Z</time>
      </trkpt>
      <trkpt lat="42.4019809998571872711181640625" lon="0.36759674549102783203125">
        <ele>892.79998779296875</ele>
        <time>2020-08-16T06:00:57.000Z</time>
      </trkpt>
      <trkpt lat="42.40203355439007282257080078125" lon="0.36753463558852672576904296875">
        <ele>893.4000244140625</ele>
        <time>2020-08-16T06:01:01.000Z</time>
      </trkpt>
      <trkpt lat="42.40213648416101932525634765625" lon="0.3674098290503025054931640625">
        <ele>894.4000244140625</ele>
        <time>2020-08-16T06:01:09.000Z</time>
      </trkpt>
      <trkpt lat="42.40214847028255462646484375" lon="0.367392562329769134521484375">
        <ele>894.5999755859375</ele>
        <time>2020-08-16T06:01:10.000Z</time>
      </trkpt>
      <trkpt lat="42.4022321216762065887451171875" lon="0.36727630533277988433837890625">
        <ele>895.4000244140625</ele>
        <time>2020-08-16T06:01:17.000Z</time>
      </trkpt>
      <trkpt lat="42.40226439200341701507568359375" lon="0.3672224096953868865966796875">
        <ele>895.79998779296875</ele>
        <time>2020-08-16T06:01:20.000Z</time>
      </trkpt>
      <trkpt lat="42.4023243226110935211181640625" lon="0.36714370362460613250732421875">
        <ele>896.5999755859375</ele>
        <time>2020-08-16T06:01:25.000Z</time>
      </trkpt>
      <trkpt lat="42.40236715413630008697509765625" lon="0.36707497201859951019287109375">
        <ele>897.20001220703125</ele>
        <time>2020-08-16T06:01:29.000Z</time>
      </trkpt>
      <trkpt lat="42.40238609723746776580810546875" lon="0.36703976802527904510498046875">
        <ele>897.5999755859375</ele>
        <time>2020-08-16T06:01:31.000Z</time>
      </trkpt>
      <trkpt lat="42.40245784632861614227294921875" lon="0.3669193200767040252685546875">
        <ele>898.5999755859375</ele>
        <time>2020-08-16T06:01:38.000Z</time>
      </trkpt>
      <trkpt lat="42.40246765315532684326171875" lon="0.3669015504419803619384765625">
        <ele>898.5999755859375</ele>
        <time>2020-08-16T06:01:39.000Z</time>
      </trkpt>
      <trkpt lat="42.40254719741642475128173828125" lon="0.3667573817074298858642578125">
        <ele>899.5999755859375</ele>
        <time>2020-08-16T06:01:47.000Z</time>
      </trkpt>
      <trkpt lat="42.40256396122276782989501953125" lon="0.36671941168606281280517578125">
        <ele>899.5999755859375</ele>
        <time>2020-08-16T06:01:49.000Z</time>
      </trkpt>
      <trkpt lat="42.4025975726544857025146484375" lon="0.366640202701091766357421875">
        <ele>900.4000244140625</ele>
        <time>2020-08-16T06:01:53.000Z</time>
      </trkpt>
      <trkpt lat="42.402619533240795135498046875" lon="0.36660407669842243194580078125">
        <ele>900.5999755859375</ele>
        <time>2020-08-16T06:01:55.000Z</time>
      </trkpt>
      <trkpt lat="42.4026619456708431243896484375" lon="0.366506092250347137451171875">
        <ele>901.4000244140625</ele>
        <time>2020-08-16T06:02:00.000Z</time>
      </trkpt>
      <trkpt lat="42.40267124958336353302001953125" lon="0.36648673005402088165283203125">
        <ele>901.5999755859375</ele>
        <time>2020-08-16T06:02:01.000Z</time>
      </trkpt>
      <trkpt lat="42.40273193456232547760009765625" lon="0.3663443215191364288330078125">
        <ele>902.5999755859375</ele>
        <time>2020-08-16T06:02:08.000Z</time>
      </trkpt>
      <trkpt lat="42.40278490819036960601806640625" lon="0.3661964647471904754638671875">
        <ele>903.5999755859375</ele>
        <time>2020-08-16T06:02:15.000Z</time>
      </trkpt>
      <trkpt lat="42.4027923680841922760009765625" lon="0.3661765158176422119140625">
        <ele>903.5999755859375</ele>
        <time>2020-08-16T06:02:16.000Z</time>
      </trkpt>
      <trkpt lat="42.4028359539806842803955078125" lon="0.36605070345103740692138671875">
        <ele>904.79998779296875</ele>
        <time>2020-08-16T06:02:22.000Z</time>
      </trkpt>
      <trkpt lat="42.40284609608352184295654296875" lon="0.36600661464035511016845703125">
        <ele>905</ele>
        <time>2020-08-16T06:02:24.000Z</time>
      </trkpt>
      <trkpt lat="42.40287409164011478424072265625" lon="0.36589832045137882232666015625">
        <ele>905.5999755859375</ele>
        <time>2020-08-16T06:02:29.000Z</time>
      </trkpt>
      <trkpt lat="42.40288867615163326263427734375" lon="0.36585724912583827972412109375">
        <ele>905.79998779296875</ele>
        <time>2020-08-16T06:02:31.000Z</time>
      </trkpt>
      <trkpt lat="42.402932681143283843994140625" lon="0.36570788361132144927978515625">
        <ele>906.79998779296875</ele>
        <time>2020-08-16T06:02:38.000Z</time>
      </trkpt>
      <trkpt lat="42.4029556475579738616943359375" lon="0.36562020890414714813232421875">
        <ele>907.4000244140625</ele>
        <time>2020-08-16T06:02:42.000Z</time>
      </trkpt>
      <trkpt lat="42.4029647000133991241455078125" lon="0.36557327024638652801513671875">
        <ele>907.79998779296875</ele>
        <time>2020-08-16T06:02:44.000Z</time>
      </trkpt>
      <trkpt lat="42.40299738943576812744140625" lon="0.3654363937675952911376953125">
        <ele>908.79998779296875</ele>
        <time>2020-08-16T06:02:50.000Z</time>
      </trkpt>
      <trkpt lat="42.4030007421970367431640625" lon="0.365413762629032135009765625">
        <ele>909</ele>
        <time>2020-08-16T06:02:51.000Z</time>
      </trkpt>
      <trkpt lat="42.403024546802043914794921875" lon="0.3652509860694408416748046875">
        <ele>909.79998779296875</ele>
        <time>2020-08-16T06:02:58.000Z</time>
      </trkpt>
      <trkpt lat="42.40303519181907176971435546875" lon="0.36520714871585369110107421875">
        <ele>910</ele>
        <time>2020-08-16T06:03:00.000Z</time>
      </trkpt>
      <trkpt lat="42.40304969251155853271484375" lon="0.3650915622711181640625">
        <ele>910.79998779296875</ele>
        <time>2020-08-16T06:03:05.000Z</time>
      </trkpt>
      <trkpt lat="42.403057403862476348876953125" lon="0.36507018841803073883056640625">
        <ele>910.79998779296875</ele>
        <time>2020-08-16T06:03:06.000Z</time>
      </trkpt>
      <trkpt lat="42.40308900363743305206298828125" lon="0.36491210572421550750732421875">
        <ele>911.79998779296875</ele>
        <time>2020-08-16T06:03:13.000Z</time>
      </trkpt>
      <trkpt lat="42.40309403277933597564697265625" lon="0.36488846875727176666259765625">
        <ele>912</ele>
        <time>2020-08-16T06:03:14.000Z</time>
      </trkpt>
      <trkpt lat="42.40311565808951854705810546875" lon="0.3647722117602825164794921875">
        <ele>913</ele>
        <time>2020-08-16T06:03:19.000Z</time>
      </trkpt>
      <trkpt lat="42.40313191898167133331298828125" lon="0.36467783153057098388671875">
        <ele>913.4000244140625</ele>
        <time>2020-08-16T06:03:23.000Z</time>
      </trkpt>
      <trkpt lat="42.403155304491519927978515625" lon="0.36456274800002574920654296875">
        <ele>914</ele>
        <time>2020-08-16T06:03:28.000Z</time>
      </trkpt>
      <trkpt lat="42.4031776003539562225341796875" lon="0.36444858647882938385009765625">
        <ele>914.5999755859375</ele>
        <time>2020-08-16T06:03:33.000Z</time>
      </trkpt>
      <trkpt lat="42.403198890388011932373046875" lon="0.3643564693629741668701171875">
        <ele>915</ele>
        <time>2020-08-16T06:03:37.000Z</time>
      </trkpt>
      <trkpt lat="42.40322579629719257354736328125" lon="0.36421724595129489898681640625">
        <ele>916</ele>
        <time>2020-08-16T06:03:43.000Z</time>
      </trkpt>
      <trkpt lat="42.403230406343936920166015625" lon="0.36419411189854145050048828125">
        <ele>916</ele>
        <time>2020-08-16T06:03:44.000Z</time>
      </trkpt>
      <trkpt lat="42.40327290259301662445068359375" lon="0.36404214799404144287109375">
        <ele>917.20001220703125</ele>
        <time>2020-08-16T06:03:51.000Z</time>
      </trkpt>
      <trkpt lat="42.40330810658633708953857421875" lon="0.36390493623912334442138671875">
        <ele>918.20001220703125</ele>
        <time>2020-08-16T06:03:57.000Z</time>
      </trkpt>
      <trkpt lat="42.40332084707915782928466796875" lon="0.36386101506650447845458984375">
        <ele>918.4000244140625</ele>
        <time>2020-08-16T06:03:59.000Z</time>
      </trkpt>
      <trkpt lat="42.40336619317531585693359375" lon="0.36373076029121875762939453125">
        <ele>919.20001220703125</ele>
        <time>2020-08-16T06:04:05.000Z</time>
      </trkpt>
      <trkpt lat="42.4033831246197223663330078125" lon="0.36368675529956817626953125">
        <ele>919.5999755859375</ele>
        <time>2020-08-16T06:04:07.000Z</time>
      </trkpt>
      <trkpt lat="42.40343182347714900970458984375" lon="0.36355976946651935577392578125">
        <ele>920.20001220703125</ele>
        <time>2020-08-16T06:04:13.000Z</time>
      </trkpt>
      <trkpt lat="42.4034578911960124969482421875" lon="0.3634961508214473724365234375">
        <ele>920.79998779296875</ele>
        <time>2020-08-16T06:04:16.000Z</time>
      </trkpt>
      <trkpt lat="42.40348479710519313812255859375" lon="0.36343353800475597381591796875">
        <ele>921.20001220703125</ele>
        <time>2020-08-16T06:04:19.000Z</time>
      </trkpt>
      <trkpt lat="42.4035440571606159210205078125" lon="0.36331116221845149993896484375">
        <ele>922</ele>
        <time>2020-08-16T06:04:25.000Z</time>
      </trkpt>
      <trkpt lat="42.40356677211821079254150390625" lon="0.363270677626132965087890625">
        <ele>922.4000244140625</ele>
        <time>2020-08-16T06:04:27.000Z</time>
      </trkpt>
      <trkpt lat="42.40364472381770610809326171875" lon="0.3631327114999294281005859375">
        <ele>923.5999755859375</ele>
        <time>2020-08-16T06:04:34.000Z</time>
      </trkpt>
      <trkpt lat="42.4037294648587703704833984375" lon="0.36299181170761585235595703125">
        <ele>924.20001220703125</ele>
        <time>2020-08-16T06:04:41.000Z</time>
      </trkpt>
      <trkpt lat="42.4037437140941619873046875" lon="0.3629712760448455810546875">
        <ele>924.4000244140625</ele>
        <time>2020-08-16T06:04:42.000Z</time>
      </trkpt>
      <trkpt lat="42.40383935160934925079345703125" lon="0.36283188499510288238525390625">
        <ele>925.4000244140625</ele>
        <time>2020-08-16T06:04:49.000Z</time>
      </trkpt>
      <trkpt lat="42.4038672633469104766845703125" lon="0.3627937473356723785400390625">
        <ele>925.5999755859375</ele>
        <time>2020-08-16T06:04:51.000Z</time>
      </trkpt>
      <trkpt lat="42.40393825806677341461181640625" lon="0.3626958467066287994384765625">
        <ele>926.4000244140625</ele>
        <time>2020-08-16T06:04:56.000Z</time>
      </trkpt>
      <trkpt lat="42.403983771800994873046875" lon="0.362641029059886932373046875">
        <ele>926.79998779296875</ele>
        <time>2020-08-16T06:04:59.000Z</time>
      </trkpt>
      <trkpt lat="42.40405946038663387298583984375" lon="0.36255427636206150054931640625">
        <ele>927.5999755859375</ele>
        <time>2020-08-16T06:05:04.000Z</time>
      </trkpt>
      <trkpt lat="42.4041703529655933380126953125" lon="0.36244279704988002777099609375">
        <ele>928.5999755859375</ele>
        <time>2020-08-16T06:05:11.000Z</time>
      </trkpt>
      <trkpt lat="42.40429063327610492706298828125" lon="0.36234238184988498687744140625">
        <ele>929.5999755859375</ele>
        <time>2020-08-16T06:05:18.000Z</time>
      </trkpt>
      <trkpt lat="42.40434695966541767120361328125" lon="0.36229946650564670562744140625">
        <ele>930.20001220703125</ele>
        <time>2020-08-16T06:05:21.000Z</time>
      </trkpt>
      <trkpt lat="42.4044196307659149169921875" lon="0.36225378513336181640625">
        <ele>930.5999755859375</ele>
        <time>2020-08-16T06:05:25.000Z</time>
      </trkpt>
      <trkpt lat="42.40450588054955005645751953125" lon="0.3621882386505603790283203125">
        <ele>931.20001220703125</ele>
        <time>2020-08-16T06:05:30.000Z</time>
      </trkpt>
      <trkpt lat="42.4045777134597301483154296875" lon="0.36214306019246578216552734375">
        <ele>931.79998779296875</ele>
        <time>2020-08-16T06:05:34.000Z</time>
      </trkpt>
      <trkpt lat="42.40465155802667140960693359375" lon="0.36209260113537311553955078125">
        <ele>932.5999755859375</ele>
        <time>2020-08-16T06:05:38.000Z</time>
      </trkpt>
      <trkpt lat="42.40472816862165927886962890625" lon="0.3620558045804500579833984375">
        <ele>933</ele>
        <time>2020-08-16T06:05:42.000Z</time>
      </trkpt>
      <trkpt lat="42.40482489578425884246826171875" lon="0.3620028309524059295654296875">
        <ele>933.4000244140625</ele>
        <time>2020-08-16T06:05:47.000Z</time>
      </trkpt>
      <trkpt lat="42.40490335039794445037841796875" lon="0.36196620203554630279541015625">
        <ele>933.79998779296875</ele>
        <time>2020-08-16T06:05:51.000Z</time>
      </trkpt>
      <trkpt lat="42.40503695793449878692626953125" lon="0.3618988953530788421630859375">
        <ele>934.79998779296875</ele>
        <time>2020-08-16T06:05:58.000Z</time>
      </trkpt>
      <trkpt lat="42.4050568230450153350830078125" lon="0.36189210601150989532470703125">
        <ele>934.79998779296875</ele>
        <time>2020-08-16T06:05:59.000Z</time>
      </trkpt>
      <trkpt lat="42.40520141087472438812255859375" lon="0.36182991228997707366943359375">
        <ele>935.79998779296875</ele>
        <time>2020-08-16T06:06:06.000Z</time>
      </trkpt>
      <trkpt lat="42.4052224494516849517822265625" lon="0.36182069219648838043212890625">
        <ele>936</ele>
        <time>2020-08-16T06:06:07.000Z</time>
      </trkpt>
      <trkpt lat="42.405362091958522796630859375" lon="0.3617657907307147979736328125">
        <ele>937</ele>
        <time>2020-08-16T06:06:14.000Z</time>
      </trkpt>
      <trkpt lat="42.40538212470710277557373046875" lon="0.36175514571368694305419921875">
        <ele>937.20001220703125</ele>
        <time>2020-08-16T06:06:15.000Z</time>
      </trkpt>
      <trkpt lat="42.40551690571010112762451171875" lon="0.36169387400150299072265625">
        <ele>938.20001220703125</ele>
        <time>2020-08-16T06:06:22.000Z</time>
      </trkpt>
      <trkpt lat="42.4055379442870616912841796875" lon="0.361687839031219482421875">
        <ele>938.4000244140625</ele>
        <time>2020-08-16T06:06:23.000Z</time>
      </trkpt>
      <trkpt lat="42.4057045765221118927001953125" lon="0.36162036471068859100341796875">
        <ele>939.20001220703125</ele>
        <time>2020-08-16T06:06:31.000Z</time>
      </trkpt>
      <trkpt lat="42.40585369057953357696533203125" lon="0.36155833862721920013427734375">
        <ele>939.79998779296875</ele>
        <time>2020-08-16T06:06:38.000Z</time>
      </trkpt>
      <trkpt lat="42.4059127829968929290771484375" lon="0.3615247271955013275146484375">
        <ele>940.20001220703125</ele>
        <time>2020-08-16T06:06:41.000Z</time>
      </trkpt>
      <trkpt lat="42.40599500946700572967529296875" lon="0.36148206330835819244384765625">
        <ele>940.79998779296875</ele>
        <time>2020-08-16T06:06:45.000Z</time>
      </trkpt>
      <trkpt lat="42.40609291009604930877685546875" lon="0.3614254854619503021240234375">
        <ele>941.20001220703125</ele>
        <time>2020-08-16T06:06:50.000Z</time>
      </trkpt>
      <trkpt lat="42.4061712808907032012939453125" lon="0.36137427203357219696044921875">
        <ele>941.79998779296875</ele>
        <time>2020-08-16T06:06:54.000Z</time>
      </trkpt>
      <trkpt lat="42.40624931640923023223876953125" lon="0.36131895147264003753662109375">
        <ele>942.20001220703125</ele>
        <time>2020-08-16T06:06:58.000Z</time>
      </trkpt>
      <trkpt lat="42.4063613824546337127685546875" lon="0.3612320311367511749267578125">
        <ele>942.5999755859375</ele>
        <time>2020-08-16T06:07:04.000Z</time>
      </trkpt>
      <trkpt lat="42.40645567886531352996826171875" lon="0.3611616231501102447509765625">
        <ele>943.20001220703125</ele>
        <time>2020-08-16T06:07:09.000Z</time>
      </trkpt>
      <trkpt lat="42.4065270088613033294677734375" lon="0.361106805503368377685546875">
        <ele>943.79998779296875</ele>
        <time>2020-08-16T06:07:13.000Z</time>
      </trkpt>
      <trkpt lat="42.40665969438850879669189453125" lon="0.3609812445938587188720703125">
        <ele>944.4000244140625</ele>
        <time>2020-08-16T06:07:21.000Z</time>
      </trkpt>
      <trkpt lat="42.40669305436313152313232421875" lon="0.36094981245696544647216796875">
        <ele>944.79998779296875</ele>
        <time>2020-08-16T06:07:23.000Z</time>
      </trkpt>
      <trkpt lat="42.40680688060820102691650390625" lon="0.36082760430872440338134765625">
        <ele>945.5999755859375</ele>
        <time>2020-08-16T06:07:30.000Z</time>
      </trkpt>
      <trkpt lat="42.406888939440250396728515625" lon="0.36074261181056499481201171875">
        <ele>946</ele>
        <time>2020-08-16T06:07:35.000Z</time>
      </trkpt>
      <trkpt lat="42.406919784843921661376953125" lon="0.36070740781724452972412109375">
        <ele>946.5999755859375</ele>
        <time>2020-08-16T06:07:37.000Z</time>
      </trkpt>
      <trkpt lat="42.40705850534141063690185546875" lon="0.360530130565166473388671875">
        <ele>947</ele>
        <time>2020-08-16T06:07:46.000Z</time>
      </trkpt>
      <trkpt lat="42.40713444538414478302001953125" lon="0.36042577587068080902099609375">
        <ele>947.5999755859375</ele>
        <time>2020-08-16T06:07:51.000Z</time>
      </trkpt>
      <trkpt lat="42.40717685781419277191162109375" lon="0.36036014556884765625">
        <ele>947.79998779296875</ele>
        <time>2020-08-16T06:07:54.000Z</time>
      </trkpt>
      <trkpt lat="42.40728783421218395233154296875" lon="0.3601809404790401458740234375">
        <ele>948.5999755859375</ele>
        <time>2020-08-16T06:08:02.000Z</time>
      </trkpt>
      <trkpt lat="42.40740736015141010284423828125" lon="0.3599680401384830474853515625">
        <ele>949.5999755859375</ele>
        <time>2020-08-16T06:08:11.000Z</time>
      </trkpt>
      <trkpt lat="42.40753233432769775390625" lon="0.35971867851912975311279296875">
        <ele>950.4000244140625</ele>
        <time>2020-08-16T06:08:21.000Z</time>
      </trkpt>
      <trkpt lat="42.40756711922585964202880859375" lon="0.3596428222954273223876953125">
        <ele>950.79998779296875</ele>
        <time>2020-08-16T06:08:24.000Z</time>
      </trkpt>
      <trkpt lat="42.40764406509697437286376953125" lon="0.359456576406955718994140625">
        <ele>951.79998779296875</ele>
        <time>2020-08-16T06:08:31.000Z</time>
      </trkpt>
      <trkpt lat="42.40774481557309627532958984375" lon="0.3591831587255001068115234375">
        <ele>952.5999755859375</ele>
        <time>2020-08-16T06:08:41.000Z</time>
      </trkpt>
      <trkpt lat="42.4077661894261837005615234375" lon="0.35912976600229740142822265625">
        <ele>952.79998779296875</ele>
        <time>2020-08-16T06:08:43.000Z</time>
      </trkpt>
      <trkpt lat="42.40784623660147190093994140625" lon="0.35890161059796810150146484375">
        <ele>953.4000244140625</ele>
        <time>2020-08-16T06:08:51.000Z</time>
      </trkpt>
      <trkpt lat="42.4078657664358615875244140625" lon="0.35884494893252849578857421875">
        <ele>953.79998779296875</ele>
        <time>2020-08-16T06:08:53.000Z</time>
      </trkpt>
      <trkpt lat="42.40794145502150058746337890625" lon="0.358631797134876251220703125">
        <ele>954.4000244140625</ele>
        <time>2020-08-16T06:09:00.000Z</time>
      </trkpt>
      <trkpt lat="42.40798763930797576904296875" lon="0.3585038892924785614013671875">
        <ele>954.79998779296875</ele>
        <time>2020-08-16T06:09:04.000Z</time>
      </trkpt>
      <trkpt lat="42.40804572589695453643798828125" lon="0.35834454931318759918212890625">
        <ele>955.20001220703125</ele>
        <time>2020-08-16T06:09:09.000Z</time>
      </trkpt>
      <trkpt lat="42.40809903480112552642822265625" lon="0.35821563564240932464599609375">
        <ele>955.79998779296875</ele>
        <time>2020-08-16T06:09:13.000Z</time>
      </trkpt>
      <trkpt lat="42.40816692821681499481201171875" lon="0.35805654712021350860595703125">
        <ele>956</ele>
        <time>2020-08-16T06:09:18.000Z</time>
      </trkpt>
      <trkpt lat="42.4082516692578792572021484375" lon="0.3578725643455982208251953125">
        <ele>957</ele>
        <time>2020-08-16T06:09:24.000Z</time>
      </trkpt>
      <trkpt lat="42.408309839665889739990234375" lon="0.35775446332991123199462890625">
        <ele>957.4000244140625</ele>
        <time>2020-08-16T06:09:28.000Z</time>
      </trkpt>
      <trkpt lat="42.40843196399509906768798828125" lon="0.35756553523242473602294921875">
        <ele>957.5999755859375</ele>
        <time>2020-08-16T06:09:35.000Z</time>
      </trkpt>
      <trkpt lat="42.4084474705159664154052734375" lon="0.3575386293232440948486328125">
        <ele>957.79998779296875</ele>
        <time>2020-08-16T06:09:36.000Z</time>
      </trkpt>
      <trkpt lat="42.4085996858775615692138671875" lon="0.35729832015931606292724609375">
        <ele>958.79998779296875</ele>
        <time>2020-08-16T06:09:45.000Z</time>
      </trkpt>
      <trkpt lat="42.40877277217805385589599609375" lon="0.35709531046450138092041015625">
        <ele>959.79998779296875</ele>
        <time>2020-08-16T06:09:54.000Z</time>
      </trkpt>
      <trkpt lat="42.40879205055534839630126953125" lon="0.35707251168787479400634765625">
        <ele>960</ele>
        <time>2020-08-16T06:09:55.000Z</time>
      </trkpt>
      <trkpt lat="42.4089104868471622467041015625" lon="0.35695130936801433563232421875">
        <ele>960.20001220703125</ele>
        <time>2020-08-16T06:10:01.000Z</time>
      </trkpt>
      <trkpt lat="42.40906454622745513916015625" lon="0.3567929752171039581298828125">
        <ele>961</ele>
        <time>2020-08-16T06:10:09.000Z</time>
      </trkpt>
      <trkpt lat="42.40924534387886524200439453125" lon="0.35664721392095088958740234375">
        <ele>961.79998779296875</ele>
        <time>2020-08-16T06:10:17.000Z</time>
      </trkpt>
      <trkpt lat="42.40930854342877864837646484375" lon="0.35659843124449253082275390625">
        <ele>962.20001220703125</ele>
        <time>2020-08-16T06:10:20.000Z</time>
      </trkpt>
      <trkpt lat="42.4093892611563205718994140625" lon="0.35649575293064117431640625">
        <ele>962.4000244140625</ele>
        <time>2020-08-16T06:10:25.000Z</time>
      </trkpt>
      <trkpt lat="42.40959872491657733917236328125" lon="0.356383435428142547607421875">
        <ele>963</ele>
        <time>2020-08-16T06:10:34.000Z</time>
      </trkpt>
      <trkpt lat="42.40962269715964794158935546875" lon="0.35637178458273410797119140625">
        <ele>963</ele>
        <time>2020-08-16T06:10:35.000Z</time>
      </trkpt>
      <trkpt lat="42.40977407433092594146728515625" lon="0.35626399330794811248779296875">
        <ele>963.5999755859375</ele>
        <time>2020-08-16T06:10:42.000Z</time>
      </trkpt>
      <trkpt lat="42.40986225195229053497314453125" lon="0.3562013804912567138671875">
        <ele>964</ele>
        <time>2020-08-16T06:10:46.000Z</time>
      </trkpt>
      <trkpt lat="42.40999334491789340972900390625" lon="0.35610607825219631195068359375">
        <ele>964.5999755859375</ele>
        <time>2020-08-16T06:10:52.000Z</time>
      </trkpt>
      <trkpt lat="42.41017472930252552032470703125" lon="0.35593206994235515594482421875">
        <ele>965</ele>
        <time>2020-08-16T06:11:01.000Z</time>
      </trkpt>
      <trkpt lat="42.41019509732723236083984375" lon="0.3559125401079654693603515625">
        <ele>965.20001220703125</ele>
        <time>2020-08-16T06:11:02.000Z</time>
      </trkpt>
      <trkpt lat="42.41035678423941135406494140625" lon="0.35574096255004405975341796875">
        <ele>965.5999755859375</ele>
        <time>2020-08-16T06:11:10.000Z</time>
      </trkpt>
      <trkpt lat="42.41047312505543231964111328125" lon="0.355611629784107208251953125">
        <ele>966</ele>
        <time>2020-08-16T06:11:16.000Z</time>
      </trkpt>
      <trkpt lat="42.41050983779132366180419921875" lon="0.35556360147893428802490234375">
        <ele>966.20001220703125</ele>
        <time>2020-08-16T06:11:18.000Z</time>
      </trkpt>
      <trkpt lat="42.41066557355225086212158203125" lon="0.35534240305423736572265625">
        <ele>966.79998779296875</ele>
        <time>2020-08-16T06:11:27.000Z</time>
      </trkpt>
      <trkpt lat="42.4107001908123493194580078125" lon="0.3552949614822864532470703125">
        <ele>967</ele>
        <time>2020-08-16T06:11:29.000Z</time>
      </trkpt>
      <trkpt lat="42.41078518331050872802734375" lon="0.35512782633304595947265625">
        <ele>967.4000244140625</ele>
        <time>2020-08-16T06:11:35.000Z</time>
      </trkpt>
      <trkpt lat="42.4109073914587497711181640625" lon="0.35486287437379360198974609375">
        <ele>968.20001220703125</ele>
        <time>2020-08-16T06:11:44.000Z</time>
      </trkpt>
      <trkpt lat="42.41102146916091442108154296875" lon="0.35459415055811405181884765625">
        <ele>968.79998779296875</ele>
        <time>2020-08-16T06:11:53.000Z</time>
      </trkpt>
      <trkpt lat="42.4110673181712627410888671875" lon="0.35446657799184322357177734375">
        <ele>969.20001220703125</ele>
        <time>2020-08-16T06:11:57.000Z</time>
      </trkpt>
      <trkpt lat="42.4111229740083217620849609375" lon="0.35425744950771331787109375">
        <ele>969.4000244140625</ele>
        <time>2020-08-16T06:12:03.000Z</time>
      </trkpt>
      <trkpt lat="42.41117368452250957489013671875" lon="0.3539743088185787200927734375">
        <ele>969.79998779296875</ele>
        <time>2020-08-16T06:12:11.000Z</time>
      </trkpt>
      <trkpt lat="42.41119547747075557708740234375" lon="0.35379250533878803253173828125">
        <ele>970</ele>
        <time>2020-08-16T06:12:16.000Z</time>
      </trkpt>
      <trkpt lat="42.411210648715496063232421875" lon="0.35364925861358642578125">
        <ele>970.20001220703125</ele>
        <time>2020-08-16T06:12:20.000Z</time>
      </trkpt>
      <trkpt lat="42.41121844388544559478759765625" lon="0.35328648984432220458984375">
        <ele>970.79998779296875</ele>
        <time>2020-08-16T06:12:30.000Z</time>
      </trkpt>
      <trkpt lat="42.41121567785739898681640625" lon="0.35313771106302738189697265625">
        <ele>970.79998779296875</ele>
        <time>2020-08-16T06:12:34.000Z</time>
      </trkpt>
      <trkpt lat="42.41120771504938602447509765625" lon="0.35295297391712665557861328125">
        <ele>971.20001220703125</ele>
        <time>2020-08-16T06:12:39.000Z</time>
      </trkpt>
      <trkpt lat="42.41117267869412899017333984375" lon="0.35261870361864566802978515625">
        <ele>971.79998779296875</ele>
        <time>2020-08-16T06:12:48.000Z</time>
      </trkpt>
      <trkpt lat="42.4111679010093212127685546875" lon="0.35258081741631031036376953125">
        <ele>972</ele>
        <time>2020-08-16T06:12:49.000Z</time>
      </trkpt>
      <trkpt lat="42.4111412465572357177734375" lon="0.352350734174251556396484375">
        <ele>972.20001220703125</ele>
        <time>2020-08-16T06:12:55.000Z</time>
      </trkpt>
      <trkpt lat="42.41107461042702198028564453125" lon="0.35210941918194293975830078125">
        <ele>972.4000244140625</ele>
        <time>2020-08-16T06:13:01.000Z</time>
      </trkpt>
      <trkpt lat="42.41105063818395137786865234375" lon="0.35202912054955959320068359375">
        <ele>972.4000244140625</ele>
        <time>2020-08-16T06:13:03.000Z</time>
      </trkpt>
      <trkpt lat="42.41093178279697895050048828125" lon="0.35172276198863983154296875">
        <ele>972.4000244140625</ele>
        <time>2020-08-16T06:13:11.000Z</time>
      </trkpt>
      <trkpt lat="42.4108332954347133636474609375" lon="0.35141455940902233123779296875">
        <ele>972.5999755859375</ele>
        <time>2020-08-16T06:13:19.000Z</time>
      </trkpt>
      <trkpt lat="42.41071737371385097503662109375" lon="0.35109152086079120635986328125">
        <ele>972.5999755859375</ele>
        <time>2020-08-16T06:13:27.000Z</time>
      </trkpt>
      <trkpt lat="42.4106262624263763427734375" lon="0.35077988170087337493896484375">
        <ele>972.5999755859375</ele>
        <time>2020-08-16T06:13:35.000Z</time>
      </trkpt>
      <trkpt lat="42.410568259656429290771484375" lon="0.3504797257483005523681640625">
        <ele>972.5999755859375</ele>
        <time>2020-08-16T06:13:43.000Z</time>
      </trkpt>
      <trkpt lat="42.41057303734123706817626953125" lon="0.35040722228586673736572265625">
        <ele>972.4000244140625</ele>
        <time>2020-08-16T06:13:47.000Z</time>
      </trkpt>
      <trkpt lat="42.41057119332253932952880859375" lon="0.35040915012359619140625">
        <ele>972.20001220703125</ele>
        <time>2020-08-16T06:14:06.000Z</time>
      </trkpt>
      <trkpt lat="42.410571277141571044921875" lon="0.35040990449488162994384765625">
        <ele>972.5999755859375</ele>
        <time>2020-08-16T06:14:14.000Z</time>
      </trkpt>
      <trkpt lat="42.4105714447796344757080078125" lon="0.3504104912281036376953125">
        <ele>972.4000244140625</ele>
        <time>2020-08-16T06:14:50.000Z</time>
      </trkpt>
      <trkpt lat="42.4105711095035076141357421875" lon="0.350414849817752838134765625">
        <ele>972.20001220703125</ele>
        <time>2020-08-16T06:15:40.000Z</time>
      </trkpt>
      <trkpt lat="42.410571277141571044921875" lon="0.3504156880080699920654296875">
        <ele>972.20001220703125</ele>
        <time>2020-08-16T06:16:12.000Z</time>
      </trkpt>
      <trkpt lat="42.4105704389512538909912109375" lon="0.35035827197134494781494140625">
        <ele>972.20001220703125</ele>
        <time>2020-08-16T06:16:19.000Z</time>
      </trkpt>
      <trkpt lat="42.4105506576597690582275390625" lon="0.35013883374631404876708984375">
        <ele>972.20001220703125</ele>
        <time>2020-08-16T06:16:26.000Z</time>
      </trkpt>
      <trkpt lat="42.41050413809716701507568359375" lon="0.34987865947186946868896484375">
        <ele>972.4000244140625</ele>
        <time>2020-08-16T06:16:33.000Z</time>
      </trkpt>
      <trkpt lat="42.4104846082627773284912109375" lon="0.34953181631863117218017578125">
        <ele>972.5999755859375</ele>
        <time>2020-08-16T06:16:42.000Z</time>
      </trkpt>
      <trkpt lat="42.41048611700534820556640625" lon="0.3493692912161350250244140625">
        <ele>972.79998779296875</ele>
        <time>2020-08-16T06:16:46.000Z</time>
      </trkpt>
      <trkpt lat="42.410497851669788360595703125" lon="0.34919486381113529205322265625">
        <ele>973</ele>
        <time>2020-08-16T06:16:50.000Z</time>
      </trkpt>
      <trkpt lat="42.41051302291452884674072265625" lon="0.349157564342021942138671875">
        <ele>972.79998779296875</ele>
        <time>2020-08-16T06:16:51.000Z</time>
      </trkpt>
      <trkpt lat="42.41056582890450954437255859375" lon="0.34912344999611377716064453125">
        <ele>972.5999755859375</ele>
        <time>2020-08-16T06:16:53.000Z</time>
      </trkpt>
      <trkpt lat="42.4106371589004993438720703125" lon="0.34917994402348995208740234375">
        <ele>972.4000244140625</ele>
        <time>2020-08-16T06:16:56.000Z</time>
      </trkpt>
      <trkpt lat="42.4106713570654392242431640625" lon="0.34928656183183193206787109375">
        <ele>972.4000244140625</ele>
        <time>2020-08-16T06:16:59.000Z</time>
      </trkpt>
      <trkpt lat="42.41069206036627292633056640625" lon="0.34939921461045742034912109375">
        <ele>972.4000244140625</ele>
        <time>2020-08-16T06:17:02.000Z</time>
      </trkpt>
      <trkpt lat="42.4107598699629306793212890625" lon="0.34953064285218715667724609375">
        <ele>972.4000244140625</ele>
        <time>2020-08-16T06:17:07.000Z</time>
      </trkpt>
      <trkpt lat="42.41077051497995853424072265625" lon="0.34955285489559173583984375">
        <ele>972.4000244140625</ele>
        <time>2020-08-16T06:17:08.000Z</time>
      </trkpt>
      <trkpt lat="42.41075593046844005584716796875" lon="0.349609851837158203125">
        <ele>972.5999755859375</ele>
        <time>2020-08-16T06:17:11.000Z</time>
      </trkpt>
      <trkpt lat="42.4107364006340503692626953125" lon="0.34962795674800872802734375">
        <ele>972.5999755859375</ele>
        <time>2020-08-16T06:17:14.000Z</time>
      </trkpt>
      <trkpt lat="42.41067948751151561737060546875" lon="0.349484123289585113525390625">
        <ele>971.5999755859375</ele>
        <time>2020-08-16T06:32:08.000Z</time>
      </trkpt>
      <trkpt lat="42.410710752010345458984375" lon="0.34949610941112041473388671875">
        <ele>971.5999755859375</ele>
        <time>2020-08-16T06:32:09.000Z</time>
      </trkpt>
      <trkpt lat="42.4106455408036708831787109375" lon="0.3492938540875911712646484375">
        <ele>971.20001220703125</ele>
        <time>2020-08-16T06:32:15.000Z</time>
      </trkpt>
      <trkpt lat="42.410625256597995758056640625" lon="0.34921363927423954010009765625">
        <ele>971.5999755859375</ele>
        <time>2020-08-16T06:32:18.000Z</time>
      </trkpt>
      <trkpt lat="42.41060069762170314788818359375" lon="0.349132753908634185791015625">
        <ele>971.5999755859375</ele>
        <time>2020-08-16T06:32:21.000Z</time>
      </trkpt>
      <trkpt lat="42.4105345644056797027587890625" lon="0.34909025765955448150634765625">
        <ele>971.5999755859375</ele>
        <time>2020-08-16T06:32:26.000Z</time>
      </trkpt>
      <trkpt lat="42.4105162918567657470703125" lon="0.34908120520412921905517578125">
        <ele>971.79998779296875</ele>
        <time>2020-08-16T06:32:27.000Z</time>
      </trkpt>
      <trkpt lat="42.410494498908519744873046875" lon="0.34902839921414852142333984375">
        <ele>971.79998779296875</ele>
        <time>2020-08-16T06:32:29.000Z</time>
      </trkpt>
      <trkpt lat="42.41049961186945438385009765625" lon="0.3489398024976253509521484375">
        <ele>971.5999755859375</ele>
        <time>2020-08-16T06:32:32.000Z</time>
      </trkpt>
      <trkpt lat="42.41050430573523044586181640625" lon="0.34880854189395904541015625">
        <ele>971.79998779296875</ele>
        <time>2020-08-16T06:32:36.000Z</time>
      </trkpt>
      <trkpt lat="42.41051696240901947021484375" lon="0.3485783748328685760498046875">
        <ele>972</ele>
        <time>2020-08-16T06:32:43.000Z</time>
      </trkpt>
      <trkpt lat="42.41052224300801753997802734375" lon="0.3483986668288707733154296875">
        <ele>971.79998779296875</ele>
        <time>2020-08-16T06:32:48.000Z</time>
      </trkpt>
      <trkpt lat="42.41052593104541301727294921875" lon="0.348326079547405242919921875">
        <ele>971.79998779296875</ele>
        <time>2020-08-16T06:32:50.000Z</time>
      </trkpt>
      <trkpt lat="42.4105379171669483184814453125" lon="0.34800077788531780242919921875">
        <ele>972</ele>
        <time>2020-08-16T06:32:59.000Z</time>
      </trkpt>
      <trkpt lat="42.41055476479232311248779296875" lon="0.3477579541504383087158203125">
        <ele>972.20001220703125</ele>
        <time>2020-08-16T06:33:07.000Z</time>
      </trkpt>
      <trkpt lat="42.4105699360370635986328125" lon="0.34754815511405467987060546875">
        <ele>972</ele>
        <time>2020-08-16T06:33:14.000Z</time>
      </trkpt>
      <trkpt lat="42.4105892144143581390380859375" lon="0.34733793698251247406005859375">
        <ele>972</ele>
        <time>2020-08-16T06:33:20.000Z</time>
      </trkpt>
      <trkpt lat="42.4106101691722869873046875" lon="0.3470002301037311553955078125">
        <ele>972</ele>
        <time>2020-08-16T06:33:29.000Z</time>
      </trkpt>
      <trkpt lat="42.4106415174901485443115234375" lon="0.3466500341892242431640625">
        <ele>972.20001220703125</ele>
        <time>2020-08-16T06:33:38.000Z</time>
      </trkpt>
      <trkpt lat="42.41067789494991302490234375" lon="0.34622155129909515380859375">
        <ele>972.20001220703125</ele>
        <time>2020-08-16T06:33:48.000Z</time>
      </trkpt>
      <trkpt lat="42.410710752010345458984375" lon="0.3458767198026180267333984375">
        <ele>972.4000244140625</ele>
        <time>2020-08-16T06:33:56.000Z</time>
      </trkpt>
      <trkpt lat="42.410737574100494384765625" lon="0.345567427575588226318359375">
        <ele>972.20001220703125</ele>
        <time>2020-08-16T06:34:03.000Z</time>
      </trkpt>
      <trkpt lat="42.4107598699629306793212890625" lon="0.34534446895122528076171875">
        <ele>972</ele>
        <time>2020-08-16T06:34:08.000Z</time>
      </trkpt>
      <trkpt lat="42.41077152080833911895751953125" lon="0.34520893357694149017333984375">
        <ele>972</ele>
        <time>2020-08-16T06:34:11.000Z</time>
      </trkpt>
      <trkpt lat="42.41082005202770233154296875" lon="0.3447133116424083709716796875">
        <ele>972.4000244140625</ele>
        <time>2020-08-16T06:34:22.000Z</time>
      </trkpt>
      <trkpt lat="42.41087880916893482208251953125" lon="0.3441232256591320037841796875">
        <ele>972.79998779296875</ele>
        <time>2020-08-16T06:34:35.000Z</time>
      </trkpt>
      <trkpt lat="42.41094879806041717529296875" lon="0.34368493594229221343994140625">
        <ele>973.20001220703125</ele>
        <time>2020-08-16T06:34:45.000Z</time>
      </trkpt>
      <trkpt lat="42.4110089801251888275146484375" lon="0.3434369154274463653564453125">
        <ele>973.79998779296875</ele>
        <time>2020-08-16T06:34:51.000Z</time>
      </trkpt>
      <trkpt lat="42.411051727831363677978515625" lon="0.343277156352996826171875">
        <ele>974</ele>
        <time>2020-08-16T06:34:55.000Z</time>
      </trkpt>
      <trkpt lat="42.4111367203295230865478515625" lon="0.3430144675076007843017578125">
        <ele>974.79998779296875</ele>
        <time>2020-08-16T06:35:02.000Z</time>
      </trkpt>
      <trkpt lat="42.4111739359796047210693359375" lon="0.3429098613560199737548828125">
        <ele>975.20001220703125</ele>
        <time>2020-08-16T06:35:05.000Z</time>
      </trkpt>
      <trkpt lat="42.4112523905932903289794921875" lon="0.3427076898515224456787109375">
        <ele>975.79998779296875</ele>
        <time>2020-08-16T06:35:11.000Z</time>
      </trkpt>
      <trkpt lat="42.411310561001300811767578125" lon="0.3425811231136322021484375">
        <ele>976.4000244140625</ele>
        <time>2020-08-16T06:35:15.000Z</time>
      </trkpt>
      <trkpt lat="42.41139915771782398223876953125" lon="0.34239672124385833740234375">
        <ele>977</ele>
        <time>2020-08-16T06:35:21.000Z</time>
      </trkpt>
      <trkpt lat="42.41146353073418140411376953125" lon="0.34227526746690273284912109375">
        <ele>977.5999755859375</ele>
        <time>2020-08-16T06:35:25.000Z</time>
      </trkpt>
      <trkpt lat="42.41151348687708377838134765625" lon="0.3421853296458721160888671875">
        <ele>978</ele>
        <time>2020-08-16T06:35:28.000Z</time>
      </trkpt>
      <trkpt lat="42.41163871251046657562255859375" lon="0.3419881872832775115966796875">
        <ele>978.5999755859375</ele>
        <time>2020-08-16T06:35:35.000Z</time>
      </trkpt>
      <trkpt lat="42.411692775785923004150390625" lon="0.34190160222351551055908203125">
        <ele>978.79998779296875</ele>
        <time>2020-08-16T06:35:38.000Z</time>
      </trkpt>
      <trkpt lat="42.41176846437156200408935546875" lon="0.34179330803453922271728515625">
        <ele>979.20001220703125</ele>
        <time>2020-08-16T06:35:42.000Z</time>
      </trkpt>
      <trkpt lat="42.4118656106293201446533203125" lon="0.3416626341640949249267578125">
        <ele>980</ele>
        <time>2020-08-16T06:35:47.000Z</time>
      </trkpt>
      <trkpt lat="42.4119199253618717193603515625" lon="0.3415774740278720855712890625">
        <ele>980.20001220703125</ele>
        <time>2020-08-16T06:35:50.000Z</time>
      </trkpt>
      <trkpt lat="42.4120697937905788421630859375" lon="0.34134873189032077789306640625">
        <ele>981</ele>
        <time>2020-08-16T06:35:58.000Z</time>
      </trkpt>
      <trkpt lat="42.4121231026947498321533203125" lon="0.34125954844057559967041015625">
        <ele>981.4000244140625</ele>
        <time>2020-08-16T06:36:01.000Z</time>
      </trkpt>
      <trkpt lat="42.41225008852779865264892578125" lon="0.341048575937747955322265625">
        <ele>982</ele>
        <time>2020-08-16T06:36:08.000Z</time>
      </trkpt>
      <trkpt lat="42.412323094904422760009765625" lon="0.340928547084331512451171875">
        <ele>982.4000244140625</ele>
        <time>2020-08-16T06:36:12.000Z</time>
      </trkpt>
      <trkpt lat="42.412452511489391326904296875" lon="0.34066895954310894012451171875">
        <ele>983</ele>
        <time>2020-08-16T06:36:20.000Z</time>
      </trkpt>
      <trkpt lat="42.4124674312770366668701171875" lon="0.34063450992107391357421875">
        <ele>983.20001220703125</ele>
        <time>2020-08-16T06:36:21.000Z</time>
      </trkpt>
      <trkpt lat="42.41257580928504467010498046875" lon="0.3403838910162448883056640625">
        <ele>983.4000244140625</ele>
        <time>2020-08-16T06:36:28.000Z</time>
      </trkpt>
      <trkpt lat="42.41271235048770904541015625" lon="0.34008239395916461944580078125">
        <ele>984</ele>
        <time>2020-08-16T06:36:36.000Z</time>
      </trkpt>
      <trkpt lat="42.41287437267601490020751953125" lon="0.33970856107771396636962890625">
        <ele>984.20001220703125</ele>
        <time>2020-08-16T06:36:45.000Z</time>
      </trkpt>
      <trkpt lat="42.4130920507013797760009765625" lon="0.339265577495098114013671875">
        <ele>984.5999755859375</ele>
        <time>2020-08-16T06:36:56.000Z</time>
      </trkpt>
      <trkpt lat="42.41331190802156925201416015625" lon="0.3388272039592266082763671875">
        <ele>984.79998779296875</ele>
        <time>2020-08-16T06:37:07.000Z</time>
      </trkpt>
      <trkpt lat="42.413517348468303680419921875" lon="0.33846904523670673370361328125">
        <ele>984.5999755859375</ele>
        <time>2020-08-16T06:37:17.000Z</time>
      </trkpt>
      <trkpt lat="42.413741983473300933837890625" lon="0.33806604333221912384033203125">
        <ele>984.4000244140625</ele>
        <time>2020-08-16T06:37:28.000Z</time>
      </trkpt>
      <trkpt lat="42.413955219089984893798828125" lon="0.3377117402851581573486328125">
        <ele>983.79998779296875</ele>
        <time>2020-08-16T06:37:37.000Z</time>
      </trkpt>
      <trkpt lat="42.4141666106879711151123046875" lon="0.33734469674527645111083984375">
        <ele>983.20001220703125</ele>
        <time>2020-08-16T06:37:45.000Z</time>
      </trkpt>
      <trkpt lat="42.4142554588615894317626953125" lon="0.3371917270123958587646484375">
        <ele>983</ele>
        <time>2020-08-16T06:37:48.000Z</time>
      </trkpt>
      <trkpt lat="42.4144804291427135467529296875" lon="0.33680154941976070404052734375">
        <ele>982.20001220703125</ele>
        <time>2020-08-16T06:37:55.000Z</time>
      </trkpt>
      <trkpt lat="42.414586544036865234375" lon="0.3366234339773654937744140625">
        <ele>981.79998779296875</ele>
        <time>2020-08-16T06:37:58.000Z</time>
      </trkpt>
      <trkpt lat="42.41476616822183132171630859375" lon="0.33630676567554473876953125">
        <ele>981.20001220703125</ele>
        <time>2020-08-16T06:38:03.000Z</time>
      </trkpt>
      <trkpt lat="42.41484244354069232940673828125" lon="0.3361761756241321563720703125">
        <ele>980.79998779296875</ele>
        <time>2020-08-16T06:38:05.000Z</time>
      </trkpt>
      <trkpt lat="42.41508719511330127716064453125" lon="0.33577510155737400054931640625">
        <ele>979.79998779296875</ele>
        <time>2020-08-16T06:38:11.000Z</time>
      </trkpt>
      <trkpt lat="42.41542599163949489593505859375" lon="0.33519641496241092681884765625">
        <ele>978.79998779296875</ele>
        <time>2020-08-16T06:38:19.000Z</time>
      </trkpt>
      <trkpt lat="42.41547091864049434661865234375" lon="0.33512257039546966552734375">
        <ele>978.5999755859375</ele>
        <time>2020-08-16T06:38:20.000Z</time>
      </trkpt>
      <trkpt lat="42.41578741930425167083740234375" lon="0.33458319492638111114501953125">
        <ele>977.4000244140625</ele>
        <time>2020-08-16T06:38:27.000Z</time>
      </trkpt>
      <trkpt lat="42.4160696379840373992919921875" lon="0.33410559408366680145263671875">
        <ele>976</ele>
        <time>2020-08-16T06:38:33.000Z</time>
      </trkpt>
      <trkpt lat="42.41640575230121612548828125" lon="0.3335301764309406280517578125">
        <ele>975</ele>
        <time>2020-08-16T06:38:40.000Z</time>
      </trkpt>
      <trkpt lat="42.41645411588251590728759765625" lon="0.3334466926753520965576171875">
        <ele>974.79998779296875</ele>
        <time>2020-08-16T06:38:41.000Z</time>
      </trkpt>
      <trkpt lat="42.4166503362357616424560546875" lon="0.3331129252910614013671875">
        <ele>973.79998779296875</ele>
        <time>2020-08-16T06:38:45.000Z</time>
      </trkpt>
      <trkpt lat="42.4166992865502834320068359375" lon="0.33302885480225086212158203125">
        <ele>973.5999755859375</ele>
        <time>2020-08-16T06:38:46.000Z</time>
      </trkpt>
      <trkpt lat="42.4170442856848239898681640625" lon="0.33243809826672077178955078125">
        <ele>972.5999755859375</ele>
        <time>2020-08-16T06:38:53.000Z</time>
      </trkpt>
      <trkpt lat="42.417230196297168731689453125" lon="0.33212411217391490936279296875">
        <ele>971.79998779296875</ele>
        <time>2020-08-16T06:38:57.000Z</time>
      </trkpt>
      <trkpt lat="42.41726464591920375823974609375" lon="0.332067869603633880615234375">
        <ele>971.4000244140625</ele>
        <time>2020-08-16T06:38:58.000Z</time>
      </trkpt>
      <trkpt lat="42.41730638779699802398681640625" lon="0.332000143826007843017578125">
        <ele>971</ele>
        <time>2020-08-16T06:39:00.000Z</time>
      </trkpt>
      <trkpt lat="42.41730965673923492431640625" lon="0.3319939412176609039306640625">
        <ele>971</ele>
        <time>2020-08-16T06:39:04.000Z</time>
      </trkpt>
      <trkpt lat="42.417308650910854339599609375" lon="0.33199519850313663482666015625">
        <ele>970.79998779296875</ele>
        <time>2020-08-16T06:39:23.000Z</time>
      </trkpt>
      <trkpt lat="42.417308986186981201171875" lon="0.33199670724570751190185546875">
        <ele>970.79998779296875</ele>
        <time>2020-08-16T06:39:42.000Z</time>
      </trkpt>
      <trkpt lat="42.4173088185489177703857421875" lon="0.33199788071215152740478515625">
        <ele>970.79998779296875</ele>
        <time>2020-08-16T06:40:00.000Z</time>
      </trkpt>
      <trkpt lat="42.417308650910854339599609375" lon="0.33199922181665897369384765625">
        <ele>970.79998779296875</ele>
        <time>2020-08-16T06:40:15.000Z</time>
      </trkpt>
      <trkpt lat="42.4173088185489177703857421875" lon="0.33200182020664215087890625">
        <ele>970.79998779296875</ele>
        <time>2020-08-16T06:40:42.000Z</time>
      </trkpt>
      <trkpt lat="42.4173098243772983551025390625" lon="0.332004167139530181884765625">
        <ele>971</ele>
        <time>2020-08-16T06:41:15.000Z</time>
      </trkpt>
      <trkpt lat="42.41731124930083751678466796875" lon="0.33199871890246868133544921875">
        <ele>971.20001220703125</ele>
        <time>2020-08-16T06:41:16.000Z</time>
      </trkpt>
      <trkpt lat="42.41733388043940067291259765625" lon="0.331946499645709991455078125">
        <ele>970.79998779296875</ele>
        <time>2020-08-16T06:41:19.000Z</time>
      </trkpt>
      <trkpt lat="42.41744351573288440704345703125" lon="0.3317595832049846649169921875">
        <ele>970.5999755859375</ele>
        <time>2020-08-16T06:41:25.000Z</time>
      </trkpt>
      <trkpt lat="42.417542003095149993896484375" lon="0.331595130264759063720703125">
        <ele>970.20001220703125</ele>
        <time>2020-08-16T06:41:29.000Z</time>
      </trkpt>
      <trkpt lat="42.41764870472252368927001953125" lon="0.33140745945274829864501953125">
        <ele>969.5999755859375</ele>
        <time>2020-08-16T06:41:33.000Z</time>
      </trkpt>
      <trkpt lat="42.41779823787510395050048828125" lon="0.3311490453779697418212890625">
        <ele>969</ele>
        <time>2020-08-16T06:41:38.000Z</time>
      </trkpt>
      <trkpt lat="42.417894043028354644775390625" lon="0.33098283223807811737060546875">
        <ele>968.79998779296875</ele>
        <time>2020-08-16T06:41:41.000Z</time>
      </trkpt>
      <trkpt lat="42.4181436561048030853271484375" lon="0.33056683838367462158203125">
        <ele>968</ele>
        <time>2020-08-16T06:41:48.000Z</time>
      </trkpt>
      <trkpt lat="42.41825588978826999664306640625" lon="0.33037514425814151763916015625">
        <ele>967.5999755859375</ele>
        <time>2020-08-16T06:41:51.000Z</time>
      </trkpt>
      <trkpt lat="42.41848790086805820465087890625" lon="0.32996476627886295318603515625">
        <ele>966.79998779296875</ele>
        <time>2020-08-16T06:41:57.000Z</time>
      </trkpt>
      <trkpt lat="42.41853031329810619354248046875" lon="0.32989636994898319244384765625">
        <ele>966.5999755859375</ele>
        <time>2020-08-16T06:41:58.000Z</time>
      </trkpt>
      <trkpt lat="42.41874019615352153778076171875" lon="0.32953712157905101776123046875">
        <ele>965.79998779296875</ele>
        <time>2020-08-16T06:42:03.000Z</time>
      </trkpt>
      <trkpt lat="42.41891437210142612457275390625" lon="0.329234786331653594970703125">
        <ele>965</ele>
        <time>2020-08-16T06:42:07.000Z</time>
      </trkpt>
      <trkpt lat="42.4190512485802173614501953125" lon="0.3290009312331676483154296875">
        <ele>964.5999755859375</ele>
        <time>2020-08-16T06:42:10.000Z</time>
      </trkpt>
      <trkpt lat="42.419288791716098785400390625" lon="0.328598432242870330810546875">
        <ele>963.5999755859375</ele>
        <time>2020-08-16T06:42:15.000Z</time>
      </trkpt>
      <trkpt lat="42.419337071478366851806640625" lon="0.3285151161253452301025390625">
        <ele>963.20001220703125</ele>
        <time>2020-08-16T06:42:16.000Z</time>
      </trkpt>
      <trkpt lat="42.41948492825031280517578125" lon="0.3282589651644229888916015625">
        <ele>962.4000244140625</ele>
        <time>2020-08-16T06:42:19.000Z</time>
      </trkpt>
      <trkpt lat="42.41974032483994960784912109375" lon="0.32781749032437801361083984375">
        <ele>961.4000244140625</ele>
        <time>2020-08-16T06:42:24.000Z</time>
      </trkpt>
      <trkpt lat="42.4197922088205814361572265625" lon="0.32772713340818881988525390625">
        <ele>961</ele>
        <time>2020-08-16T06:42:25.000Z</time>
      </trkpt>
      <trkpt lat="42.4199551530182361602783203125" lon="0.3274539671838283538818359375">
        <ele>960.20001220703125</ele>
        <time>2020-08-16T06:42:28.000Z</time>
      </trkpt>
      <trkpt lat="42.42017786018550395965576171875" lon="0.32707384787499904632568359375">
        <ele>959.20001220703125</ele>
        <time>2020-08-16T06:42:32.000Z</time>
      </trkpt>
      <trkpt lat="42.42023460566997528076171875" lon="0.32697645016014575958251953125">
        <ele>959</ele>
        <time>2020-08-16T06:42:33.000Z</time>
      </trkpt>
      <trkpt lat="42.420348264276981353759765625" lon="0.32677679322659969329833984375">
        <ele>958</ele>
        <time>2020-08-16T06:42:35.000Z</time>
      </trkpt>
      <trkpt lat="42.42058404721319675445556640625" lon="0.32637245021760463714599609375">
        <ele>956.79998779296875</ele>
        <time>2020-08-16T06:42:39.000Z</time>
      </trkpt>
      <trkpt lat="42.4207071773707866668701171875" lon="0.3261688537895679473876953125">
        <ele>956</ele>
        <time>2020-08-16T06:42:41.000Z</time>
      </trkpt>
      <trkpt lat="42.4207688681781291961669921875" lon="0.32606567256152629852294921875">
        <ele>955.5999755859375</ele>
        <time>2020-08-16T06:42:42.000Z</time>
      </trkpt>
      <trkpt lat="42.420953102409839630126953125" lon="0.32574959099292755126953125">
        <ele>954.4000244140625</ele>
        <time>2020-08-16T06:42:45.000Z</time>
      </trkpt>
      <trkpt lat="42.421140857040882110595703125" lon="0.325430072844028472900390625">
        <ele>952.79998779296875</ele>
        <time>2020-08-16T06:42:48.000Z</time>
      </trkpt>
      <trkpt lat="42.42132852785289287567138671875" lon="0.325105190277099609375">
        <ele>951.5999755859375</ele>
        <time>2020-08-16T06:42:51.000Z</time>
      </trkpt>
      <trkpt lat="42.42145727388560771942138671875" lon="0.3248891048133373260498046875">
        <ele>951.20001220703125</ele>
        <time>2020-08-16T06:42:53.000Z</time>
      </trkpt>
      <trkpt lat="42.4215212278068065643310546875" lon="0.32477938570082187652587890625">
        <ele>950.5999755859375</ele>
        <time>2020-08-16T06:42:54.000Z</time>
      </trkpt>
      <trkpt lat="42.42171225138008594512939453125" lon="0.324451066553592681884765625">
        <ele>949.4000244140625</ele>
        <time>2020-08-16T06:42:57.000Z</time>
      </trkpt>
      <trkpt lat="42.42190771736204624176025390625" lon="0.3241246752440929412841796875">
        <ele>948</ele>
        <time>2020-08-16T06:43:00.000Z</time>
      </trkpt>
      <trkpt lat="42.4219721741974353790283203125" lon="0.32401428557932376861572265625">
        <ele>947.5999755859375</ele>
        <time>2020-08-16T06:43:01.000Z</time>
      </trkpt>
      <trkpt lat="42.42210184223949909210205078125" lon="0.3237944282591342926025390625">
        <ele>946.79998779296875</ele>
        <time>2020-08-16T06:43:03.000Z</time>
      </trkpt>
      <trkpt lat="42.422294206917285919189453125" lon="0.32346258871257305145263671875">
        <ele>945.4000244140625</ele>
        <time>2020-08-16T06:43:06.000Z</time>
      </trkpt>
      <trkpt lat="42.422421276569366455078125" lon="0.3232392109930515289306640625">
        <ele>944</ele>
        <time>2020-08-16T06:43:08.000Z</time>
      </trkpt>
      <trkpt lat="42.4226076900959014892578125" lon="0.322897396981716156005859375">
        <ele>942.79998779296875</ele>
        <time>2020-08-16T06:43:11.000Z</time>
      </trkpt>
      <trkpt lat="42.42272981442511081695556640625" lon="0.322665385901927947998046875">
        <ele>942</ele>
        <time>2020-08-16T06:43:13.000Z</time>
      </trkpt>
      <trkpt lat="42.4227882362902164459228515625" lon="0.32254577614367008209228515625">
        <ele>941.5999755859375</ele>
        <time>2020-08-16T06:43:14.000Z</time>
      </trkpt>
      <trkpt lat="42.42290030233561992645263671875" lon="0.32230102457106113433837890625">
        <ele>940</ele>
        <time>2020-08-16T06:43:16.000Z</time>
      </trkpt>
      <trkpt lat="42.42300608195364475250244140625" lon="0.32204948365688323974609375">
        <ele>939</ele>
        <time>2020-08-16T06:43:18.000Z</time>
      </trkpt>
      <trkpt lat="42.42310733534395694732666015625" lon="0.32179140485823154449462890625">
        <ele>938</ele>
        <time>2020-08-16T06:43:20.000Z</time>
      </trkpt>
      <trkpt lat="42.42315829731523990631103515625" lon="0.32166081480681896209716796875">
        <ele>937.4000244140625</ele>
        <time>2020-08-16T06:43:21.000Z</time>
      </trkpt>
      <trkpt lat="42.4232582934200763702392578125" lon="0.32139695249497890472412109375">
        <ele>936</ele>
        <time>2020-08-16T06:43:23.000Z</time>
      </trkpt>
      <trkpt lat="42.4233568646013736724853515625" lon="0.321128480136394500732421875">
        <ele>934.4000244140625</ele>
        <time>2020-08-16T06:43:25.000Z</time>
      </trkpt>
      <trkpt lat="42.4234561063349246978759765625" lon="0.3208552300930023193359375">
        <ele>933.20001220703125</ele>
        <time>2020-08-16T06:43:27.000Z</time>
      </trkpt>
      <trkpt lat="42.42355786263942718505859375" lon="0.3205824829638004302978515625">
        <ele>932</ele>
        <time>2020-08-16T06:43:29.000Z</time>
      </trkpt>
      <trkpt lat="42.4236096628010272979736328125" lon="0.32044560648500919342041015625">
        <ele>931.5999755859375</ele>
        <time>2020-08-16T06:43:30.000Z</time>
      </trkpt>
      <trkpt lat="42.42366389371454715728759765625" lon="0.32030998729169368743896484375">
        <ele>930.5999755859375</ele>
        <time>2020-08-16T06:43:31.000Z</time>
      </trkpt>
      <trkpt lat="42.42377906106412410736083984375" lon="0.3200433589518070220947265625">
        <ele>929.4000244140625</ele>
        <time>2020-08-16T06:43:33.000Z</time>
      </trkpt>
      <trkpt lat="42.423903532326221466064453125" lon="0.3197823464870452880859375">
        <ele>928.20001220703125</ele>
        <time>2020-08-16T06:43:35.000Z</time>
      </trkpt>
      <trkpt lat="42.423969916999340057373046875" lon="0.319655276834964752197265625">
        <ele>927.4000244140625</ele>
        <time>2020-08-16T06:43:36.000Z</time>
      </trkpt>
      <trkpt lat="42.42403873242437839508056640625" lon="0.31953030265867710113525390625">
        <ele>926.5999755859375</ele>
        <time>2020-08-16T06:43:37.000Z</time>
      </trkpt>
      <trkpt lat="42.42418424226343631744384765625" lon="0.31928806565701961517333984375">
        <ele>925</ele>
        <time>2020-08-16T06:43:39.000Z</time>
      </trkpt>
      <trkpt lat="42.42434081621468067169189453125" lon="0.3190581500530242919921875">
        <ele>923.5999755859375</ele>
        <time>2020-08-16T06:43:41.000Z</time>
      </trkpt>
      <trkpt lat="42.4244227074086666107177734375" lon="0.31894742511212825775146484375">
        <ele>923</ele>
        <time>2020-08-16T06:43:42.000Z</time>
      </trkpt>
      <trkpt lat="42.42450661025941371917724609375" lon="0.31884063966572284698486328125">
        <ele>922</ele>
        <time>2020-08-16T06:43:43.000Z</time>
      </trkpt>
      <trkpt lat="42.4246798641979694366455078125" lon="0.318634025752544403076171875">
        <ele>920.79998779296875</ele>
        <time>2020-08-16T06:43:45.000Z</time>
      </trkpt>
      <trkpt lat="42.424857057631015777587890625" lon="0.31844031997025012969970703125">
        <ele>919</ele>
        <time>2020-08-16T06:43:47.000Z</time>
      </trkpt>
      <trkpt lat="42.42494724690914154052734375" lon="0.3183518908917903900146484375">
        <ele>918.4000244140625</ele>
        <time>2020-08-16T06:43:48.000Z</time>
      </trkpt>
      <trkpt lat="42.42503416724503040313720703125" lon="0.31827067025005817413330078125">
        <ele>918</ele>
        <time>2020-08-16T06:43:49.000Z</time>
      </trkpt>
      <trkpt lat="42.42519275285303592681884765625" lon="0.31811795197427272796630859375">
        <ele>916.79998779296875</ele>
        <time>2020-08-16T06:43:51.000Z</time>
      </trkpt>
      <trkpt lat="42.42534530349075794219970703125" lon="0.31796825118362903594970703125">
        <ele>915.79998779296875</ele>
        <time>2020-08-16T06:43:53.000Z</time>
      </trkpt>
      <trkpt lat="42.42542074061930179595947265625" lon="0.317895412445068359375">
        <ele>915.4000244140625</ele>
        <time>2020-08-16T06:43:54.000Z</time>
      </trkpt>
      <trkpt lat="42.4256441183388233184814453125" lon="0.31767974607646465301513671875">
        <ele>914.20001220703125</ele>
        <time>2020-08-16T06:43:57.000Z</time>
      </trkpt>
      <trkpt lat="42.42592985741794109344482421875" lon="0.31738554127514362335205078125">
        <ele>913</ele>
        <time>2020-08-16T06:44:01.000Z</time>
      </trkpt>
      <trkpt lat="42.42607176303863525390625" lon="0.31723760068416595458984375">
        <ele>912.4000244140625</ele>
        <time>2020-08-16T06:44:03.000Z</time>
      </trkpt>
      <trkpt lat="42.42614074610173702239990234375" lon="0.3171609900891780853271484375">
        <ele>911.79998779296875</ele>
        <time>2020-08-16T06:44:04.000Z</time>
      </trkpt>
      <trkpt lat="42.42634878493845462799072265625" lon="0.31693124212324619293212890625">
        <ele>910.5999755859375</ele>
        <time>2020-08-16T06:44:07.000Z</time>
      </trkpt>
      <trkpt lat="42.42662471719086170196533203125" lon="0.316615998744964599609375">
        <ele>909.20001220703125</ele>
        <time>2020-08-16T06:44:11.000Z</time>
      </trkpt>
      <trkpt lat="42.42682755924761295318603515625" lon="0.31636512838304042816162109375">
        <ele>907.79998779296875</ele>
        <time>2020-08-16T06:44:14.000Z</time>
      </trkpt>
      <trkpt lat="42.42703157477080821990966796875" lon="0.31610763631761074066162109375">
        <ele>906.20001220703125</ele>
        <time>2020-08-16T06:44:17.000Z</time>
      </trkpt>
      <trkpt lat="42.4271706305444240570068359375" lon="0.3159325383603572845458984375">
        <ele>905.20001220703125</ele>
        <time>2020-08-16T06:44:19.000Z</time>
      </trkpt>
      <trkpt lat="42.42730893194675445556640625" lon="0.315748639404773712158203125">
        <ele>903.79998779296875</ele>
        <time>2020-08-16T06:44:21.000Z</time>
      </trkpt>
      <trkpt lat="42.42744966410100460052490234375" lon="0.315560214221477508544921875">
        <ele>902.5999755859375</ele>
        <time>2020-08-16T06:44:23.000Z</time>
      </trkpt>
      <trkpt lat="42.42758846841752529144287109375" lon="0.3153592161834239959716796875">
        <ele>901.20001220703125</ele>
        <time>2020-08-16T06:44:25.000Z</time>
      </trkpt>
      <trkpt lat="42.42773045785725116729736328125" lon="0.31515360809862613677978515625">
        <ele>900</ele>
        <time>2020-08-16T06:44:27.000Z</time>
      </trkpt>
      <trkpt lat="42.42780170403420925140380859375" lon="0.31504715792834758758544921875">
        <ele>899.20001220703125</ele>
        <time>2020-08-16T06:44:28.000Z</time>
      </trkpt>
      <trkpt lat="42.42787420749664306640625" lon="0.3149391151964664459228515625">
        <ele>898.79998779296875</ele>
        <time>2020-08-16T06:44:29.000Z</time>
      </trkpt>
      <trkpt lat="42.42802130989730358123779296875" lon="0.31471674330532550811767578125">
        <ele>897</ele>
        <time>2020-08-16T06:44:31.000Z</time>
      </trkpt>
      <trkpt lat="42.42816983722150325775146484375" lon="0.31448372639715671539306640625">
        <ele>895.20001220703125</ele>
        <time>2020-08-16T06:44:33.000Z</time>
      </trkpt>
      <trkpt lat="42.4283181130886077880859375" lon="0.31423931010067462921142578125">
        <ele>893</ele>
        <time>2020-08-16T06:44:35.000Z</time>
      </trkpt>
      <trkpt lat="42.42846890352666378021240234375" lon="0.31398718245327472686767578125">
        <ele>891.20001220703125</ele>
        <time>2020-08-16T06:44:37.000Z</time>
      </trkpt>
      <trkpt lat="42.4286185204982757568359375" lon="0.31373036094009876251220703125">
        <ele>889.4000244140625</ele>
        <time>2020-08-16T06:44:39.000Z</time>
      </trkpt>
      <trkpt lat="42.428689263761043548583984375" lon="0.31360345892608165740966796875">
        <ele>888.20001220703125</ele>
        <time>2020-08-16T06:44:40.000Z</time>
      </trkpt>
      <trkpt lat="42.4288258887827396392822265625" lon="0.313346721231937408447265625">
        <ele>886.20001220703125</ele>
        <time>2020-08-16T06:44:42.000Z</time>
      </trkpt>
      <trkpt lat="42.42889503948390483856201171875" lon="0.3132164664566516876220703125">
        <ele>884.5999755859375</ele>
        <time>2020-08-16T06:44:43.000Z</time>
      </trkpt>
      <trkpt lat="42.42903451435267925262451171875" lon="0.312952101230621337890625">
        <ele>883</ele>
        <time>2020-08-16T06:44:45.000Z</time>
      </trkpt>
      <trkpt lat="42.429102323949337005615234375" lon="0.31281975097954273223876953125">
        <ele>881.5999755859375</ele>
        <time>2020-08-16T06:44:46.000Z</time>
      </trkpt>
      <trkpt lat="42.4291678704321384429931640625" lon="0.31269083730876445770263671875">
        <ele>880.5999755859375</ele>
        <time>2020-08-16T06:44:47.000Z</time>
      </trkpt>
      <trkpt lat="42.429231740534305572509765625" lon="0.312563516199588775634765625">
        <ele>879.4000244140625</ele>
        <time>2020-08-16T06:44:48.000Z</time>
      </trkpt>
      <trkpt lat="42.42929510772228240966796875" lon="0.31243384815752506256103515625">
        <ele>878.4000244140625</ele>
        <time>2020-08-16T06:44:49.000Z</time>
      </trkpt>
      <trkpt lat="42.42935855872929096221923828125" lon="0.31230124644935131072998046875">
        <ele>877.5999755859375</ele>
        <time>2020-08-16T06:44:50.000Z</time>
      </trkpt>
      <trkpt lat="42.42942192591726779937744140625" lon="0.312165878713130950927734375">
        <ele>876</ele>
        <time>2020-08-16T06:44:51.000Z</time>
      </trkpt>
      <trkpt lat="42.4295484088361263275146484375" lon="0.31189019791781902313232421875">
        <ele>874.20001220703125</ele>
        <time>2020-08-16T06:44:53.000Z</time>
      </trkpt>
      <trkpt lat="42.4296094290912151336669921875" lon="0.3117544949054718017578125">
        <ele>872.79998779296875</ele>
        <time>2020-08-16T06:44:54.000Z</time>
      </trkpt>
      <trkpt lat="42.4297227524220943450927734375" lon="0.31149155460298061370849609375">
        <ele>870.79998779296875</ele>
        <time>2020-08-16T06:44:56.000Z</time>
      </trkpt>
      <trkpt lat="42.42977899499237537384033203125" lon="0.31135811470448970794677734375">
        <ele>870</ele>
        <time>2020-08-16T06:44:57.000Z</time>
      </trkpt>
      <trkpt lat="42.42983582429587841033935546875" lon="0.31122274696826934814453125">
        <ele>869.20001220703125</ele>
        <time>2020-08-16T06:44:58.000Z</time>
      </trkpt>
      <trkpt lat="42.4298927374184131622314453125" lon="0.3110861219465732574462890625">
        <ele>867.5999755859375</ele>
        <time>2020-08-16T06:44:59.000Z</time>
      </trkpt>
      <trkpt lat="42.4299490638077259063720703125" lon="0.3109473176300525665283203125">
        <ele>866.5999755859375</ele>
        <time>2020-08-16T06:45:00.000Z</time>
      </trkpt>
      <trkpt lat="42.43000362999737262725830078125" lon="0.3108058311045169830322265625">
        <ele>865.20001220703125</ele>
        <time>2020-08-16T06:45:01.000Z</time>
      </trkpt>
      <trkpt lat="42.43010857142508029937744140625" lon="0.31052294187247753143310546875">
        <ele>863.5999755859375</ele>
        <time>2020-08-16T06:45:03.000Z</time>
      </trkpt>
      <trkpt lat="42.43016003631055355072021484375" lon="0.31038564629852771759033203125">
        <ele>862.4000244140625</ele>
        <time>2020-08-16T06:45:04.000Z</time>
      </trkpt>
      <trkpt lat="42.43021099828183650970458984375" lon="0.3102465905249118804931640625">
        <ele>861.5999755859375</ele>
        <time>2020-08-16T06:45:05.000Z</time>
      </trkpt>
      <trkpt lat="42.43026229552924633026123046875" lon="0.3101054392755031585693359375">
        <ele>860.79998779296875</ele>
        <time>2020-08-16T06:45:06.000Z</time>
      </trkpt>
      <trkpt lat="42.43031325750052928924560546875" lon="0.30996202491223812103271484375">
        <ele>859.20001220703125</ele>
        <time>2020-08-16T06:45:07.000Z</time>
      </trkpt>
      <trkpt lat="42.4304134212434291839599609375" lon="0.30966916121542453765869140625">
        <ele>857.20001220703125</ele>
        <time>2020-08-16T06:45:09.000Z</time>
      </trkpt>
      <trkpt lat="42.4305103160440921783447265625" lon="0.30936799943447113037109375">
        <ele>855.20001220703125</ele>
        <time>2020-08-16T06:45:11.000Z</time>
      </trkpt>
      <trkpt lat="42.43055750615894794464111328125" lon="0.30921486206352710723876953125">
        <ele>854.20001220703125</ele>
        <time>2020-08-16T06:45:12.000Z</time>
      </trkpt>
      <trkpt lat="42.4306046962738037109375" lon="0.30906046740710735321044921875">
        <ele>853</ele>
        <time>2020-08-16T06:45:13.000Z</time>
      </trkpt>
      <trkpt lat="42.43065104819834232330322265625" lon="0.30890473164618015289306640625">
        <ele>851.79998779296875</ele>
        <time>2020-08-16T06:45:14.000Z</time>
      </trkpt>
      <trkpt lat="42.43069631047546863555908203125" lon="0.3087472356855869293212890625">
        <ele>850.4000244140625</ele>
        <time>2020-08-16T06:45:15.000Z</time>
      </trkpt>
      <trkpt lat="42.43074081838130950927734375" lon="0.30858839862048625946044921875">
        <ele>849.20001220703125</ele>
        <time>2020-08-16T06:45:16.000Z</time>
      </trkpt>
      <trkpt lat="42.43078482337296009063720703125" lon="0.308428220450878143310546875">
        <ele>848</ele>
        <time>2020-08-16T06:45:17.000Z</time>
      </trkpt>
      <trkpt lat="42.43082740344107151031494140625" lon="0.30826695263385772705078125">
        <ele>846.79998779296875</ele>
        <time>2020-08-16T06:45:18.000Z</time>
      </trkpt>
      <trkpt lat="42.43086822330951690673828125" lon="0.3081075288355350494384765625">
        <ele>845.79998779296875</ele>
        <time>2020-08-16T06:45:19.000Z</time>
      </trkpt>
      <trkpt lat="42.4309424869716167449951171875" lon="0.30780217610299587249755859375">
        <ele>843.5999755859375</ele>
        <time>2020-08-16T06:45:21.000Z</time>
      </trkpt>
      <trkpt lat="42.4310159124433994293212890625" lon="0.3074983321130275726318359375">
        <ele>841.20001220703125</ele>
        <time>2020-08-16T06:45:23.000Z</time>
      </trkpt>
      <trkpt lat="42.43105254136025905609130859375" lon="0.30734435655176639556884765625">
        <ele>840.20001220703125</ele>
        <time>2020-08-16T06:45:24.000Z</time>
      </trkpt>
      <trkpt lat="42.43112294934689998626708984375" lon="0.307032130658626556396484375">
        <ele>838.20001220703125</ele>
        <time>2020-08-16T06:45:26.000Z</time>
      </trkpt>
      <trkpt lat="42.43115731514990329742431640625" lon="0.3068743832409381866455078125">
        <ele>837</ele>
        <time>2020-08-16T06:45:27.000Z</time>
      </trkpt>
      <trkpt lat="42.4312264658510684967041015625" lon="0.3065562061965465545654296875">
        <ele>835</ele>
        <time>2020-08-16T06:45:29.000Z</time>
      </trkpt>
      <trkpt lat="42.43125990964472293853759765625" lon="0.3063949383795261383056640625">
        <ele>833.5999755859375</ele>
        <time>2020-08-16T06:45:30.000Z</time>
      </trkpt>
      <trkpt lat="42.43129293434321880340576171875" lon="0.30623241327702999114990234375">
        <ele>832.4000244140625</ele>
        <time>2020-08-16T06:45:31.000Z</time>
      </trkpt>
      <trkpt lat="42.43132646195590496063232421875" lon="0.306069217622280120849609375">
        <ele>831.20001220703125</ele>
        <time>2020-08-16T06:45:32.000Z</time>
      </trkpt>
      <trkpt lat="42.43139569647610187530517578125" lon="0.30574173666536808013916015625">
        <ele>829.4000244140625</ele>
        <time>2020-08-16T06:45:34.000Z</time>
      </trkpt>
      <trkpt lat="42.431431151926517486572265625" lon="0.30557669699192047119140625">
        <ele>828</ele>
        <time>2020-08-16T06:45:35.000Z</time>
      </trkpt>
      <trkpt lat="42.4314670264720916748046875" lon="0.30541065149009227752685546875">
        <ele>826.79998779296875</ele>
        <time>2020-08-16T06:45:36.000Z</time>
      </trkpt>
      <trkpt lat="42.43150181137025356292724609375" lon="0.305243432521820068359375">
        <ele>825.79998779296875</ele>
        <time>2020-08-16T06:45:37.000Z</time>
      </trkpt>
      <trkpt lat="42.43156149052083492279052734375" lon="0.30490371398627758026123046875">
        <ele>823.79998779296875</ele>
        <time>2020-08-16T06:45:39.000Z</time>
      </trkpt>
      <trkpt lat="42.43158512748777866363525390625" lon="0.30473121441900730133056640625">
        <ele>822.4000244140625</ele>
        <time>2020-08-16T06:45:40.000Z</time>
      </trkpt>
      <trkpt lat="42.4316049925982952117919921875" lon="0.30455754138529300689697265625">
        <ele>821.4000244140625</ele>
        <time>2020-08-16T06:45:41.000Z</time>
      </trkpt>
      <trkpt lat="42.431620918214321136474609375" lon="0.30438252724707126617431640625">
        <ele>820</ele>
        <time>2020-08-16T06:45:42.000Z</time>
      </trkpt>
      <trkpt lat="42.4316314794123172760009765625" lon="0.30420701019465923309326171875">
        <ele>818.5999755859375</ele>
        <time>2020-08-16T06:45:43.000Z</time>
      </trkpt>
      <trkpt lat="42.431637011468410491943359375" lon="0.30402998439967632293701171875">
        <ele>817.20001220703125</ele>
        <time>2020-08-16T06:45:44.000Z</time>
      </trkpt>
      <trkpt lat="42.4316378496587276458740234375" lon="0.30385312624275684356689453125">
        <ele>816</ele>
        <time>2020-08-16T06:45:45.000Z</time>
      </trkpt>
      <trkpt lat="42.431634329259395599365234375" lon="0.30367576517164707183837890625">
        <ele>815</ele>
        <time>2020-08-16T06:45:46.000Z</time>
      </trkpt>
      <trkpt lat="42.4316267855465412139892578125" lon="0.30349873937666416168212890625">
        <ele>813.79998779296875</ele>
        <time>2020-08-16T06:45:47.000Z</time>
      </trkpt>
      <trkpt lat="42.431615553796291351318359375" lon="0.30332674272358417510986328125">
        <ele>812.5999755859375</ele>
        <time>2020-08-16T06:45:48.000Z</time>
      </trkpt>
      <trkpt lat="42.431600801646709442138671875" lon="0.30316430144011974334716796875">
        <ele>811.4000244140625</ele>
        <time>2020-08-16T06:45:49.000Z</time>
      </trkpt>
      <trkpt lat="42.431582696735858917236328125" lon="0.3030116669833660125732421875">
        <ele>810.4000244140625</ele>
        <time>2020-08-16T06:45:50.000Z</time>
      </trkpt>
      <trkpt lat="42.43156249634921550750732421875" lon="0.30286607332527637481689453125">
        <ele>809</ele>
        <time>2020-08-16T06:45:51.000Z</time>
      </trkpt>
      <trkpt lat="42.431539781391620635986328125" lon="0.30272693373262882232666015625">
        <ele>808</ele>
        <time>2020-08-16T06:45:52.000Z</time>
      </trkpt>
      <trkpt lat="42.4315144680440425872802734375" lon="0.3025932423770427703857421875">
        <ele>806.79998779296875</ele>
        <time>2020-08-16T06:45:53.000Z</time>
      </trkpt>
      <trkpt lat="42.43145906366407871246337890625" lon="0.30234203673899173736572265625">
        <ele>804.79998779296875</ele>
        <time>2020-08-16T06:45:55.000Z</time>
      </trkpt>
      <trkpt lat="42.4314286373555660247802734375" lon="0.30222569592297077178955078125">
        <ele>804</ele>
        <time>2020-08-16T06:45:56.000Z</time>
      </trkpt>
      <trkpt lat="42.4313624203205108642578125" lon="0.3020085208117961883544921875">
        <ele>802.20001220703125</ele>
        <time>2020-08-16T06:45:58.000Z</time>
      </trkpt>
      <trkpt lat="42.43129461072385311126708984375" lon="0.301800481975078582763671875">
        <ele>800.4000244140625</ele>
        <time>2020-08-16T06:46:00.000Z</time>
      </trkpt>
      <trkpt lat="42.4312294833362102508544921875" lon="0.30159286223351955413818359375">
        <ele>799</ele>
        <time>2020-08-16T06:46:02.000Z</time>
      </trkpt>
      <trkpt lat="42.43115982972085475921630859375" lon="0.30137543566524982452392578125">
        <ele>797.4000244140625</ele>
        <time>2020-08-16T06:46:04.000Z</time>
      </trkpt>
      <trkpt lat="42.43109059520065784454345703125" lon="0.3011585958302021026611328125">
        <ele>795.5999755859375</ele>
        <time>2020-08-16T06:46:06.000Z</time>
      </trkpt>
      <trkpt lat="42.431018762290477752685546875" lon="0.30094393528997898101806640625">
        <ele>794.20001220703125</ele>
        <time>2020-08-16T06:46:08.000Z</time>
      </trkpt>
      <trkpt lat="42.4309481866657733917236328125" lon="0.3007247485220432281494140625">
        <ele>792.5999755859375</ele>
        <time>2020-08-16T06:46:10.000Z</time>
      </trkpt>
      <trkpt lat="42.43087828159332275390625" lon="0.30049768276512622833251953125">
        <ele>790.79998779296875</ele>
        <time>2020-08-16T06:46:12.000Z</time>
      </trkpt>
      <trkpt lat="42.43080493994057178497314453125" lon="0.3002624027431011199951171875">
        <ele>789.4000244140625</ele>
        <time>2020-08-16T06:46:14.000Z</time>
      </trkpt>
      <trkpt lat="42.43073017336428165435791015625" lon="0.30001488514244556427001953125">
        <ele>787.5999755859375</ele>
        <time>2020-08-16T06:46:16.000Z</time>
      </trkpt>
      <trkpt lat="42.430651299655437469482421875" lon="0.2997571416199207305908203125">
        <ele>786.4000244140625</ele>
        <time>2020-08-16T06:46:18.000Z</time>
      </trkpt>
      <trkpt lat="42.4305676482617855072021484375" lon="0.29949269257485866546630859375">
        <ele>784.5999755859375</ele>
        <time>2020-08-16T06:46:20.000Z</time>
      </trkpt>
      <trkpt lat="42.43048173375427722930908203125" lon="0.299220867455005645751953125">
        <ele>782.79998779296875</ele>
        <time>2020-08-16T06:46:22.000Z</time>
      </trkpt>
      <trkpt lat="42.4304378964006900787353515625" lon="0.299082733690738677978515625">
        <ele>781.79998779296875</ele>
        <time>2020-08-16T06:46:23.000Z</time>
      </trkpt>
      <trkpt lat="42.43039439432322978973388671875" lon="0.2989430911839008331298828125">
        <ele>781.20001220703125</ele>
        <time>2020-08-16T06:46:24.000Z</time>
      </trkpt>
      <trkpt lat="42.43030772544443607330322265625" lon="0.2986601181328296661376953125">
        <ele>779.79998779296875</ele>
        <time>2020-08-16T06:46:26.000Z</time>
      </trkpt>
      <trkpt lat="42.43026246316730976104736328125" lon="0.2985179610550403594970703125">
        <ele>778.5999755859375</ele>
        <time>2020-08-16T06:46:27.000Z</time>
      </trkpt>
      <trkpt lat="42.4302159436047077178955078125" lon="0.2983756363391876220703125">
        <ele>777.5999755859375</ele>
        <time>2020-08-16T06:46:28.000Z</time>
      </trkpt>
      <trkpt lat="42.4301690049469470977783203125" lon="0.29823255725204944610595703125">
        <ele>776.20001220703125</ele>
        <time>2020-08-16T06:46:29.000Z</time>
      </trkpt>
      <trkpt lat="42.43007722310721874237060546875" lon="0.29794204048812389373779296875">
        <ele>774.5999755859375</ele>
        <time>2020-08-16T06:46:31.000Z</time>
      </trkpt>
      <trkpt lat="42.43003078736364841461181640625" lon="0.2977957762777805328369140625">
        <ele>773.79998779296875</ele>
        <time>2020-08-16T06:46:32.000Z</time>
      </trkpt>
      <trkpt lat="42.42998443543910980224609375" lon="0.29764900915324687957763671875">
        <ele>773.20001220703125</ele>
        <time>2020-08-16T06:46:33.000Z</time>
      </trkpt>
      <trkpt lat="42.4298950843513011932373046875" lon="0.2973545528948307037353515625">
        <ele>771.4000244140625</ele>
        <time>2020-08-16T06:46:35.000Z</time>
      </trkpt>
      <trkpt lat="42.42980866692960262298583984375" lon="0.297059677541255950927734375">
        <ele>769.79998779296875</ele>
        <time>2020-08-16T06:46:37.000Z</time>
      </trkpt>
      <trkpt lat="42.429725937545299530029296875" lon="0.296761281788349151611328125">
        <ele>767.79998779296875</ele>
        <time>2020-08-16T06:46:39.000Z</time>
      </trkpt>
      <trkpt lat="42.42964488454163074493408203125" lon="0.296461880207061767578125">
        <ele>766.4000244140625</ele>
        <time>2020-08-16T06:46:41.000Z</time>
      </trkpt>
      <trkpt lat="42.42960632778704166412353515625" lon="0.29631108976900577545166015625">
        <ele>765.4000244140625</ele>
        <time>2020-08-16T06:46:42.000Z</time>
      </trkpt>
      <trkpt lat="42.4295688606798648834228515625" lon="0.29615904204547405242919921875">
        <ele>764</ele>
        <time>2020-08-16T06:46:43.000Z</time>
      </trkpt>
      <trkpt lat="42.42949719540774822235107421875" lon="0.29585243202745914459228515625">
        <ele>762.20001220703125</ele>
        <time>2020-08-16T06:46:45.000Z</time>
      </trkpt>
      <trkpt lat="42.42942988872528076171875" lon="0.29554448090493679046630859375">
        <ele>760.79998779296875</ele>
        <time>2020-08-16T06:46:47.000Z</time>
      </trkpt>
      <trkpt lat="42.4293971993029117584228515625" lon="0.295390672981739044189453125">
        <ele>759.79998779296875</ele>
        <time>2020-08-16T06:46:48.000Z</time>
      </trkpt>
      <trkpt lat="42.42933374829590320587158203125" lon="0.29508481733500957489013671875">
        <ele>758</ele>
        <time>2020-08-16T06:46:50.000Z</time>
      </trkpt>
      <trkpt lat="42.42927608080208301544189453125" lon="0.29477946460247039794921875">
        <ele>756.20001220703125</ele>
        <time>2020-08-16T06:46:52.000Z</time>
      </trkpt>
      <trkpt lat="42.429249174892902374267578125" lon="0.29462733305990695953369140625">
        <ele>755.20001220703125</ele>
        <time>2020-08-16T06:46:53.000Z</time>
      </trkpt>
      <trkpt lat="42.4291993863880634307861328125" lon="0.29432374052703380584716796875">
        <ele>753.79998779296875</ele>
        <time>2020-08-16T06:46:55.000Z</time>
      </trkpt>
      <trkpt lat="42.4291534535586833953857421875" lon="0.294021405279636383056640625">
        <ele>752.20001220703125</ele>
        <time>2020-08-16T06:46:57.000Z</time>
      </trkpt>
      <trkpt lat="42.42911271750926971435546875" lon="0.2937191538512706756591796875">
        <ele>750.5999755859375</ele>
        <time>2020-08-16T06:46:59.000Z</time>
      </trkpt>
      <trkpt lat="42.42907525040209293365478515625" lon="0.29341799207031726837158203125">
        <ele>749.20001220703125</ele>
        <time>2020-08-16T06:47:01.000Z</time>
      </trkpt>
      <trkpt lat="42.42904239334166049957275390625" lon="0.29311875812709331512451171875">
        <ele>748</ele>
        <time>2020-08-16T06:47:03.000Z</time>
      </trkpt>
      <trkpt lat="42.4290133081376552581787109375" lon="0.2928216196596622467041015625">
        <ele>746.4000244140625</ele>
        <time>2020-08-16T06:47:05.000Z</time>
      </trkpt>
      <trkpt lat="42.4289884977042675018310546875" lon="0.292524397373199462890625">
        <ele>744.79998779296875</ele>
        <time>2020-08-16T06:47:07.000Z</time>
      </trkpt>
      <trkpt lat="42.42896343581378459930419921875" lon="0.292228348553180694580078125">
        <ele>743.20001220703125</ele>
        <time>2020-08-16T06:47:09.000Z</time>
      </trkpt>
      <trkpt lat="42.42895203642547130584716796875" lon="0.2920803241431713104248046875">
        <ele>742.79998779296875</ele>
        <time>2020-08-16T06:47:10.000Z</time>
      </trkpt>
      <trkpt lat="42.4289403855800628662109375" lon="0.29193221591413021087646484375">
        <ele>742</ele>
        <time>2020-08-16T06:47:11.000Z</time>
      </trkpt>
      <trkpt lat="42.42891498841345310211181640625" lon="0.29163784347474575042724609375">
        <ele>740.20001220703125</ele>
        <time>2020-08-16T06:47:13.000Z</time>
      </trkpt>
      <trkpt lat="42.4288902617990970611572265625" lon="0.2913437224924564361572265625">
        <ele>738.79998779296875</ele>
        <time>2020-08-16T06:47:15.000Z</time>
      </trkpt>
      <trkpt lat="42.42886536754667758941650390625" lon="0.29104985296726226806640625">
        <ele>737.4000244140625</ele>
        <time>2020-08-16T06:47:17.000Z</time>
      </trkpt>
      <trkpt lat="42.428836785256862640380859375" lon="0.29075682163238525390625">
        <ele>736</ele>
        <time>2020-08-16T06:47:19.000Z</time>
      </trkpt>
      <trkpt lat="42.4288062751293182373046875" lon="0.29046353884041309356689453125">
        <ele>734.79998779296875</ele>
        <time>2020-08-16T06:47:21.000Z</time>
      </trkpt>
      <trkpt lat="42.42878791876137256622314453125" lon="0.2903171069920063018798828125">
        <ele>734.20001220703125</ele>
        <time>2020-08-16T06:47:22.000Z</time>
      </trkpt>
      <trkpt lat="42.428767383098602294921875" lon="0.29017033986747264862060546875">
        <ele>733</ele>
        <time>2020-08-16T06:47:23.000Z</time>
      </trkpt>
      <trkpt lat="42.42872371338307857513427734375" lon="0.2898862771689891815185546875">
        <ele>731.4000244140625</ele>
        <time>2020-08-16T06:47:25.000Z</time>
      </trkpt>
      <trkpt lat="42.4286746792495250701904296875" lon="0.28961126692593097686767578125">
        <ele>729.79998779296875</ele>
        <time>2020-08-16T06:47:27.000Z</time>
      </trkpt>
      <trkpt lat="42.428649030625820159912109375" lon="0.28947162441909313201904296875">
        <ele>729.4000244140625</ele>
        <time>2020-08-16T06:47:28.000Z</time>
      </trkpt>
      <trkpt lat="42.42862145416438579559326171875" lon="0.28933114372193813323974609375">
        <ele>728.5999755859375</ele>
        <time>2020-08-16T06:47:29.000Z</time>
      </trkpt>
      <trkpt lat="42.42855892516672611236572265625" lon="0.289048254489898681640625">
        <ele>726.79998779296875</ele>
        <time>2020-08-16T06:47:31.000Z</time>
      </trkpt>
      <trkpt lat="42.4284862540662288665771484375" lon="0.28876125812530517578125">
        <ele>725.4000244140625</ele>
        <time>2020-08-16T06:47:33.000Z</time>
      </trkpt>
      <trkpt lat="42.42844778113067150115966796875" lon="0.28861532919108867645263671875">
        <ele>724.20001220703125</ele>
        <time>2020-08-16T06:47:34.000Z</time>
      </trkpt>
      <trkpt lat="42.42840888909995555877685546875" lon="0.2884673886001110076904296875">
        <ele>723.4000244140625</ele>
        <time>2020-08-16T06:47:35.000Z</time>
      </trkpt>
      <trkpt lat="42.4283692426979541778564453125" lon="0.2883175201714038848876953125">
        <ele>722.5999755859375</ele>
        <time>2020-08-16T06:47:36.000Z</time>
      </trkpt>
      <trkpt lat="42.428286261856555938720703125" lon="0.28801283799111843109130859375">
        <ele>720.5999755859375</ele>
        <time>2020-08-16T06:47:38.000Z</time>
      </trkpt>
      <trkpt lat="42.42824426852166652679443359375" lon="0.28785844333469867706298828125">
        <ele>719</ele>
        <time>2020-08-16T06:47:39.000Z</time>
      </trkpt>
      <trkpt lat="42.4281585216522216796875" lon="0.28754479251801967620849609375">
        <ele>717.20001220703125</ele>
        <time>2020-08-16T06:47:41.000Z</time>
      </trkpt>
      <trkpt lat="42.4281156063079833984375" lon="0.28738595545291900634765625">
        <ele>715.5999755859375</ele>
        <time>2020-08-16T06:47:42.000Z</time>
      </trkpt>
      <trkpt lat="42.4280721880495548248291015625" lon="0.287226028740406036376953125">
        <ele>714.79998779296875</ele>
        <time>2020-08-16T06:47:43.000Z</time>
      </trkpt>
      <trkpt lat="42.42802784778177738189697265625" lon="0.28706618584692478179931640625">
        <ele>714</ele>
        <time>2020-08-16T06:47:44.000Z</time>
      </trkpt>
      <trkpt lat="42.4279833398759365081787109375" lon="0.28690508566796779632568359375">
        <ele>712.79998779296875</ele>
        <time>2020-08-16T06:47:45.000Z</time>
      </trkpt>
      <trkpt lat="42.4278934858739376068115234375" lon="0.286580286920070648193359375">
        <ele>710.5999755859375</ele>
        <time>2020-08-16T06:47:47.000Z</time>
      </trkpt>
      <trkpt lat="42.42780539207160472869873046875" lon="0.28625330887734889984130859375">
        <ele>708.5999755859375</ele>
        <time>2020-08-16T06:47:49.000Z</time>
      </trkpt>
      <trkpt lat="42.42776197381317615509033203125" lon="0.2860896103084087371826171875">
        <ele>707.20001220703125</ele>
        <time>2020-08-16T06:47:50.000Z</time>
      </trkpt>
      <trkpt lat="42.427718639373779296875" lon="0.28592574410140514373779296875">
        <ele>706</ele>
        <time>2020-08-16T06:47:51.000Z</time>
      </trkpt>
      <trkpt lat="42.42767413146793842315673828125" lon="0.28576330281794071197509765625">
        <ele>705</ele>
        <time>2020-08-16T06:47:52.000Z</time>
      </trkpt>
      <trkpt lat="42.42758444510400295257568359375" lon="0.28544269502162933349609375">
        <ele>703.20001220703125</ele>
        <time>2020-08-16T06:47:54.000Z</time>
      </trkpt>
      <trkpt lat="42.4275411106646060943603515625" lon="0.28528402559459209442138671875">
        <ele>702</ele>
        <time>2020-08-16T06:47:55.000Z</time>
      </trkpt>
      <trkpt lat="42.4274981953203678131103515625" lon="0.2851277031004428863525390625">
        <ele>700.79998779296875</ele>
        <time>2020-08-16T06:47:56.000Z</time>
      </trkpt>
      <trkpt lat="42.4274123646318912506103515625" lon="0.284822098910808563232421875">
        <ele>699.5999755859375</ele>
        <time>2020-08-16T06:47:58.000Z</time>
      </trkpt>
      <trkpt lat="42.4273292161524295806884765625" lon="0.284526385366916656494140625">
        <ele>698.4000244140625</ele>
        <time>2020-08-16T06:48:00.000Z</time>
      </trkpt>
      <trkpt lat="42.42728873156011104583740234375" lon="0.2843820489943027496337890625">
        <ele>697.5999755859375</ele>
        <time>2020-08-16T06:48:01.000Z</time>
      </trkpt>
      <trkpt lat="42.42725034244358539581298828125" lon="0.2842403948307037353515625">
        <ele>697</ele>
        <time>2020-08-16T06:48:02.000Z</time>
      </trkpt>
      <trkpt lat="42.4271763302385807037353515625" lon="0.28396404348313808441162109375">
        <ele>695.79998779296875</ele>
        <time>2020-08-16T06:48:04.000Z</time>
      </trkpt>
      <trkpt lat="42.4270707182586193084716796875" lon="0.28357009403407573699951171875">
        <ele>694.5999755859375</ele>
        <time>2020-08-16T06:48:07.000Z</time>
      </trkpt>
      <trkpt lat="42.42703626863658428192138671875" lon="0.28344537131488323211669921875">
        <ele>694.4000244140625</ele>
        <time>2020-08-16T06:48:08.000Z</time>
      </trkpt>
      <trkpt lat="42.42693535052239894866943359375" lon="0.283090732991695404052734375">
        <ele>693.5999755859375</ele>
        <time>2020-08-16T06:48:11.000Z</time>
      </trkpt>
      <trkpt lat="42.4268373660743236541748046875" lon="0.28276694007217884063720703125">
        <ele>692.79998779296875</ele>
        <time>2020-08-16T06:48:14.000Z</time>
      </trkpt>
      <trkpt lat="42.42677492089569568634033203125" lon="0.28256828896701335906982421875">
        <ele>692.5999755859375</ele>
        <time>2020-08-16T06:48:16.000Z</time>
      </trkpt>
      <trkpt lat="42.42664550431072711944580078125" lon="0.28222077526152133941650390625">
        <ele>692.5999755859375</ele>
        <time>2020-08-16T06:48:20.000Z</time>
      </trkpt>
      <trkpt lat="42.4264497868716716766357421875" lon="0.281803607940673828125">
        <ele>692.5999755859375</ele>
        <time>2020-08-16T06:48:26.000Z</time>
      </trkpt>
      <trkpt lat="42.42619715631008148193359375" lon="0.28138157911598682403564453125">
        <ele>693.20001220703125</ele>
        <time>2020-08-16T06:48:34.000Z</time>
      </trkpt>
      <trkpt lat="42.42613546550273895263671875" lon="0.281290970742702484130859375">
        <ele>693.5999755859375</ele>
        <time>2020-08-16T06:48:36.000Z</time>
      </trkpt>
      <trkpt lat="42.425951063632965087890625" lon="0.28104663826525211334228515625">
        <ele>694.4000244140625</ele>
        <time>2020-08-16T06:48:42.000Z</time>
      </trkpt>
      <trkpt lat="42.42588794790208339691162109375" lon="0.28097958303987979888916015625">
        <ele>694.5999755859375</ele>
        <time>2020-08-16T06:48:44.000Z</time>
      </trkpt>
      <trkpt lat="42.425712011754512786865234375" lon="0.2807791717350482940673828125">
        <ele>695.4000244140625</ele>
        <time>2020-08-16T06:48:50.000Z</time>
      </trkpt>
      <trkpt lat="42.42565325461328029632568359375" lon="0.28072108514606952667236328125">
        <ele>695.79998779296875</ele>
        <time>2020-08-16T06:48:52.000Z</time>
      </trkpt>
      <trkpt lat="42.42549835704267024993896484375" lon="0.28056375682353973388671875">
        <ele>696.4000244140625</ele>
        <time>2020-08-16T06:48:58.000Z</time>
      </trkpt>
      <trkpt lat="42.4254479818046092987060546875" lon="0.2805169858038425445556640625">
        <ele>696.79998779296875</ele>
        <time>2020-08-16T06:49:00.000Z</time>
      </trkpt>
      <trkpt lat="42.4253061600029468536376953125" lon="0.28038614429533481597900390625">
        <ele>697.5999755859375</ele>
        <time>2020-08-16T06:49:06.000Z</time>
      </trkpt>
      <trkpt lat="42.42526332847774028778076171875" lon="0.2803443185985088348388671875">
        <ele>698</ele>
        <time>2020-08-16T06:49:08.000Z</time>
      </trkpt>
      <trkpt lat="42.42507037706673145294189453125" lon="0.28017542324960231781005859375">
        <ele>699.20001220703125</ele>
        <time>2020-08-16T06:49:16.000Z</time>
      </trkpt>
      <trkpt lat="42.42490374483168125152587890625" lon="0.28002220205962657928466796875">
        <ele>700.20001220703125</ele>
        <time>2020-08-16T06:49:23.000Z</time>
      </trkpt>
      <trkpt lat="42.4248300679028034210205078125" lon="0.27996168471872806549072265625">
        <ele>700.4000244140625</ele>
        <time>2020-08-16T06:49:26.000Z</time>
      </trkpt>
      <trkpt lat="42.42466201074421405792236328125" lon="0.27980460785329341888427734375">
        <ele>701.20001220703125</ele>
        <time>2020-08-16T06:49:33.000Z</time>
      </trkpt>
      <trkpt lat="42.42459277622401714324951171875" lon="0.27973637916147708892822265625">
        <ele>701.79998779296875</ele>
        <time>2020-08-16T06:49:36.000Z</time>
      </trkpt>
      <trkpt lat="42.42447827942669391632080078125" lon="0.2796261571347713470458984375">
        <ele>702.4000244140625</ele>
        <time>2020-08-16T06:49:41.000Z</time>
      </trkpt>
      <trkpt lat="42.42432338185608386993408203125" lon="0.2794714272022247314453125">
        <ele>703.4000244140625</ele>
        <time>2020-08-16T06:49:48.000Z</time>
      </trkpt>
      <trkpt lat="42.4241655506193637847900390625" lon="0.279306471347808837890625">
        <ele>704.4000244140625</ele>
        <time>2020-08-16T06:49:55.000Z</time>
      </trkpt>
      <trkpt lat="42.42407678626477718353271484375" lon="0.279208905994892120361328125">
        <ele>705</ele>
        <time>2020-08-16T06:49:59.000Z</time>
      </trkpt>
      <trkpt lat="42.42400939576327800750732421875" lon="0.27913388796150684356689453125">
        <ele>705.5999755859375</ele>
        <time>2020-08-16T06:50:02.000Z</time>
      </trkpt>
      <trkpt lat="42.4238316155970096588134765625" lon="0.27891880832612514495849609375">
        <ele>706.4000244140625</ele>
        <time>2020-08-16T06:50:10.000Z</time>
      </trkpt>
      <trkpt lat="42.42376682348549365997314453125" lon="0.2788379229605197906494140625">
        <ele>706.79998779296875</ele>
        <time>2020-08-16T06:50:13.000Z</time>
      </trkpt>
      <trkpt lat="42.42364092729985713958740234375" lon="0.2786721289157867431640625">
        <ele>707.20001220703125</ele>
        <time>2020-08-16T06:50:19.000Z</time>
      </trkpt>
      <trkpt lat="42.42347580380737781524658203125" lon="0.27844422496855258941650390625">
        <ele>708</ele>
        <time>2020-08-16T06:50:27.000Z</time>
      </trkpt>
      <trkpt lat="42.423435486853122711181640625" lon="0.2783832885324954986572265625">
        <ele>708</ele>
        <time>2020-08-16T06:50:29.000Z</time>
      </trkpt>
      <trkpt lat="42.42324932478368282318115234375" lon="0.27811867184937000274658203125">
        <ele>709.20001220703125</ele>
        <time>2020-08-16T06:50:38.000Z</time>
      </trkpt>
      <trkpt lat="42.4232069961726665496826171875" lon="0.27805731631815433502197265625">
        <ele>709.20001220703125</ele>
        <time>2020-08-16T06:50:40.000Z</time>
      </trkpt>
      <trkpt lat="42.423027120530605316162109375" lon="0.27777769602835178375244140625">
        <ele>709.79998779296875</ele>
        <time>2020-08-16T06:50:49.000Z</time>
      </trkpt>
      <trkpt lat="42.42280826903879642486572265625" lon="0.27744074352085590362548828125">
        <ele>710.20001220703125</ele>
        <time>2020-08-16T06:50:59.000Z</time>
      </trkpt>
      <trkpt lat="42.422764934599399566650390625" lon="0.27737486176192760467529296875">
        <ele>710.20001220703125</ele>
        <time>2020-08-16T06:51:01.000Z</time>
      </trkpt>
      <trkpt lat="42.42254038341343402862548828125" lon="0.27703589759767055511474609375">
        <ele>710.5999755859375</ele>
        <time>2020-08-16T06:51:11.000Z</time>
      </trkpt>
      <trkpt lat="42.4222906865179538726806640625" lon="0.27665267698466777801513671875">
        <ele>710.5999755859375</ele>
        <time>2020-08-16T06:51:22.000Z</time>
      </trkpt>
      <trkpt lat="42.42208625189960002899169921875" lon="0.27634874917566776275634765625">
        <ele>710.5999755859375</ele>
        <time>2020-08-16T06:51:32.000Z</time>
      </trkpt>
      <trkpt lat="42.42189112119376659393310546875" lon="0.27605303563177585601806640625">
        <ele>710.4000244140625</ele>
        <time>2020-08-16T06:51:41.000Z</time>
      </trkpt>
      <trkpt lat="42.42162943817675113677978515625" lon="0.2756504528224468231201171875">
        <ele>710</ele>
        <time>2020-08-16T06:51:52.000Z</time>
      </trkpt>
      <trkpt lat="42.42152483202517032623291015625" lon="0.2754918672144412994384765625">
        <ele>709.4000244140625</ele>
        <time>2020-08-16T06:51:56.000Z</time>
      </trkpt>
      <trkpt lat="42.42137948982417583465576171875" lon="0.27528424747288227081298828125">
        <ele>709</ele>
        <time>2020-08-16T06:52:01.000Z</time>
      </trkpt>
      <trkpt lat="42.42116776295006275177001953125" lon="0.27495257556438446044921875">
        <ele>708.4000244140625</ele>
        <time>2020-08-16T06:52:08.000Z</time>
      </trkpt>
      <trkpt lat="42.42106718011200428009033203125" lon="0.27480497024953365325927734375">
        <ele>708</ele>
        <time>2020-08-16T06:52:11.000Z</time>
      </trkpt>
      <trkpt lat="42.4209636636078357696533203125" lon="0.2746456302702426910400390625">
        <ele>707.4000244140625</ele>
        <time>2020-08-16T06:52:14.000Z</time>
      </trkpt>
      <trkpt lat="42.4207759089767932891845703125" lon="0.2743603102862834930419921875">
        <ele>706.79998779296875</ele>
        <time>2020-08-16T06:52:19.000Z</time>
      </trkpt>
      <trkpt lat="42.42069602943956851959228515625" lon="0.2742396108806133270263671875">
        <ele>706.4000244140625</ele>
        <time>2020-08-16T06:52:21.000Z</time>
      </trkpt>
      <trkpt lat="42.4204915948212146759033203125" lon="0.27392135001718997955322265625">
        <ele>705.4000244140625</ele>
        <time>2020-08-16T06:52:26.000Z</time>
      </trkpt>
      <trkpt lat="42.42040651850402355194091796875" lon="0.2737869881093502044677734375">
        <ele>704.79998779296875</ele>
        <time>2020-08-16T06:52:28.000Z</time>
      </trkpt>
      <trkpt lat="42.42031917907297611236572265625" lon="0.2736501954495906829833984375">
        <ele>704.20001220703125</ele>
        <time>2020-08-16T06:52:30.000Z</time>
      </trkpt>
      <trkpt lat="42.42005079053342342376708984375" lon="0.273227579891681671142578125">
        <ele>702.79998779296875</ele>
        <time>2020-08-16T06:52:36.000Z</time>
      </trkpt>
      <trkpt lat="42.41986404173076152801513671875" lon="0.27293748222291469573974609375">
        <ele>701.79998779296875</ele>
        <time>2020-08-16T06:52:40.000Z</time>
      </trkpt>
      <trkpt lat="42.419620044529438018798828125" lon="0.2725595422089099884033203125">
        <ele>700.5999755859375</ele>
        <time>2020-08-16T06:52:45.000Z</time>
      </trkpt>
      <trkpt lat="42.41941628046333789825439453125" lon="0.2722524292767047882080078125">
        <ele>699.5999755859375</ele>
        <time>2020-08-16T06:52:49.000Z</time>
      </trkpt>
      <trkpt lat="42.419265322387218475341796875" lon="0.2720096893608570098876953125">
        <ele>698.5999755859375</ele>
        <time>2020-08-16T06:52:52.000Z</time>
      </trkpt>
      <trkpt lat="42.41910749115049839019775390625" lon="0.2717666141688823699951171875">
        <ele>697.4000244140625</ele>
        <time>2020-08-16T06:52:55.000Z</time>
      </trkpt>
      <trkpt lat="42.418842203915119171142578125" lon="0.27135078795254230499267578125">
        <ele>696.4000244140625</ele>
        <time>2020-08-16T06:53:00.000Z</time>
      </trkpt>
      <trkpt lat="42.41873214952647686004638671875" lon="0.27118314988911151885986328125">
        <ele>695.4000244140625</ele>
        <time>2020-08-16T06:53:02.000Z</time>
      </trkpt>
      <trkpt lat="42.41856551729142665863037109375" lon="0.27093269862234592437744140625">
        <ele>694.4000244140625</ele>
        <time>2020-08-16T06:53:05.000Z</time>
      </trkpt>
      <trkpt lat="42.41834440268576145172119140625" lon="0.270590968430042266845703125">
        <ele>693</ele>
        <time>2020-08-16T06:53:09.000Z</time>
      </trkpt>
      <trkpt lat="42.41817533969879150390625" lon="0.27033506892621517181396484375">
        <ele>691.79998779296875</ele>
        <time>2020-08-16T06:53:12.000Z</time>
      </trkpt>
      <trkpt lat="42.41794995032250881195068359375" lon="0.26999526657164096832275390625">
        <ele>690.5999755859375</ele>
        <time>2020-08-16T06:53:16.000Z</time>
      </trkpt>
      <trkpt lat="42.4177289195358753204345703125" lon="0.26965412311255931854248046875">
        <ele>689.5999755859375</ele>
        <time>2020-08-16T06:53:20.000Z</time>
      </trkpt>
      <trkpt lat="42.41751308552920818328857421875" lon="0.26931851170957088470458984375">
        <ele>688.4000244140625</ele>
        <time>2020-08-16T06:53:24.000Z</time>
      </trkpt>
      <trkpt lat="42.41725056432187557220458984375" lon="0.26891492307186126708984375">
        <ele>687.4000244140625</ele>
        <time>2020-08-16T06:53:29.000Z</time>
      </trkpt>
      <trkpt lat="42.4170483089983463287353515625" lon="0.2686026133596897125244140625">
        <ele>686</ele>
        <time>2020-08-16T06:53:33.000Z</time>
      </trkpt>
      <trkpt lat="42.4167076684534549713134765625" lon="0.26807807385921478271484375">
        <ele>684.79998779296875</ele>
        <time>2020-08-16T06:53:40.000Z</time>
      </trkpt>
      <trkpt lat="42.41633811034262180328369140625" lon="0.26751522906124591827392578125">
        <ele>683.5999755859375</ele>
        <time>2020-08-16T06:53:48.000Z</time>
      </trkpt>
      <trkpt lat="42.4162496812641620635986328125" lon="0.2673788554966449737548828125">
        <ele>683.20001220703125</ele>
        <time>2020-08-16T06:53:50.000Z</time>
      </trkpt>
      <trkpt lat="42.41607743315398693084716796875" lon="0.267106778919696807861328125">
        <ele>682.5999755859375</ele>
        <time>2020-08-16T06:53:54.000Z</time>
      </trkpt>
      <trkpt lat="42.41581843234598636627197265625" lon="0.26671207509934902191162109375">
        <ele>682</ele>
        <time>2020-08-16T06:54:00.000Z</time>
      </trkpt>
      <trkpt lat="42.41569102741777896881103515625" lon="0.2665178664028644561767578125">
        <ele>681.5999755859375</ele>
        <time>2020-08-16T06:54:03.000Z</time>
      </trkpt>
      <trkpt lat="42.4153699167072772979736328125" lon="0.265981256961822509765625">
        <ele>680.4000244140625</ele>
        <time>2020-08-16T06:54:11.000Z</time>
      </trkpt>
      <trkpt lat="42.4153270013630390167236328125" lon="0.2659163810312747955322265625">
        <ele>680.20001220703125</ele>
        <time>2020-08-16T06:54:12.000Z</time>
      </trkpt>
      <trkpt lat="42.415061295032501220703125" lon="0.265532992780208587646484375">
        <ele>679.5999755859375</ele>
        <time>2020-08-16T06:54:18.000Z</time>
      </trkpt>
      <trkpt lat="42.414796091616153717041015625" lon="0.26514013297855854034423828125">
        <ele>679</ele>
        <time>2020-08-16T06:54:24.000Z</time>
      </trkpt>
      <trkpt lat="42.41470917128026485443115234375" lon="0.26500669308006763458251953125">
        <ele>678.4000244140625</ele>
        <time>2020-08-16T06:54:26.000Z</time>
      </trkpt>
      <trkpt lat="42.41449124179780483245849609375" lon="0.26466404087841510772705078125">
        <ele>677.20001220703125</ele>
        <time>2020-08-16T06:54:31.000Z</time>
      </trkpt>
      <trkpt lat="42.414264678955078125" lon="0.26431786827743053436279296875">
        <ele>676.20001220703125</ele>
        <time>2020-08-16T06:54:36.000Z</time>
      </trkpt>
      <trkpt lat="42.4142182432115077972412109375" lon="0.2642490528523921966552734375">
        <ele>676.20001220703125</ele>
        <time>2020-08-16T06:54:37.000Z</time>
      </trkpt>
      <trkpt lat="42.413943819701671600341796875" lon="0.2638234198093414306640625">
        <ele>675</ele>
        <time>2020-08-16T06:54:43.000Z</time>
      </trkpt>
      <trkpt lat="42.41371256299316883087158203125" lon="0.2634635008871555328369140625">
        <ele>674</ele>
        <time>2020-08-16T06:54:48.000Z</time>
      </trkpt>
      <trkpt lat="42.413569651544094085693359375" lon="0.26324682869017124176025390625">
        <ele>673.5999755859375</ele>
        <time>2020-08-16T06:54:51.000Z</time>
      </trkpt>
      <trkpt lat="42.41342246532440185546875" lon="0.26302571408450603485107421875">
        <ele>673</ele>
        <time>2020-08-16T06:54:54.000Z</time>
      </trkpt>
      <trkpt lat="42.41316723637282848358154296875" lon="0.2626377157866954803466796875">
        <ele>671.79998779296875</ele>
        <time>2020-08-16T06:54:59.000Z</time>
      </trkpt>
      <trkpt lat="42.41306179203093051910400390625" lon="0.2624730952084064483642578125">
        <ele>671</ele>
        <time>2020-08-16T06:55:01.000Z</time>
      </trkpt>
      <trkpt lat="42.413007728755474090576171875" lon="0.2623892761766910552978515625">
        <ele>670.5999755859375</ele>
        <time>2020-08-16T06:55:02.000Z</time>
      </trkpt>
      <trkpt lat="42.41278351284563541412353515625" lon="0.26204301975667476654052734375">
        <ele>669.4000244140625</ele>
        <time>2020-08-16T06:55:06.000Z</time>
      </trkpt>
      <trkpt lat="42.41260849870741367340087890625" lon="0.26176960207521915435791015625">
        <ele>668.20001220703125</ele>
        <time>2020-08-16T06:55:09.000Z</time>
      </trkpt>
      <trkpt lat="42.4125465564429759979248046875" lon="0.261677317321300506591796875">
        <ele>667.79998779296875</ele>
        <time>2020-08-16T06:55:10.000Z</time>
      </trkpt>
      <trkpt lat="42.4124214984476566314697265625" lon="0.26148797012865543365478515625">
        <ele>667</ele>
        <time>2020-08-16T06:55:12.000Z</time>
      </trkpt>
      <trkpt lat="42.41229400970041751861572265625" lon="0.26129133068025112152099609375">
        <ele>665.4000244140625</ele>
        <time>2020-08-16T06:55:14.000Z</time>
      </trkpt>
      <trkpt lat="42.41209401749074459075927734375" lon="0.260986648499965667724609375">
        <ele>664</ele>
        <time>2020-08-16T06:55:17.000Z</time>
      </trkpt>
      <trkpt lat="42.4120248667895793914794921875" lon="0.26088212616741657257080078125">
        <ele>663.4000244140625</ele>
        <time>2020-08-16T06:55:18.000Z</time>
      </trkpt>
      <trkpt lat="42.4119551293551921844482421875" lon="0.260776095092296600341796875">
        <ele>662.5999755859375</ele>
        <time>2020-08-16T06:55:19.000Z</time>
      </trkpt>
      <trkpt lat="42.41181188262999057769775390625" lon="0.2605590038001537322998046875">
        <ele>661.20001220703125</ele>
        <time>2020-08-16T06:55:21.000Z</time>
      </trkpt>
      <trkpt lat="42.4116654507815837860107421875" lon="0.26033344678580760955810546875">
        <ele>659.79998779296875</ele>
        <time>2020-08-16T06:55:23.000Z</time>
      </trkpt>
      <trkpt lat="42.41151214577257633209228515625" lon="0.2601040340960025787353515625">
        <ele>658</ele>
        <time>2020-08-16T06:55:25.000Z</time>
      </trkpt>
      <trkpt lat="42.41143402643501758575439453125" lon="0.259985513985157012939453125">
        <ele>657.4000244140625</ele>
        <time>2020-08-16T06:55:26.000Z</time>
      </trkpt>
      <trkpt lat="42.41135515272617340087890625" lon="0.25986514985561370849609375">
        <ele>656.5999755859375</ele>
        <time>2020-08-16T06:55:27.000Z</time>
      </trkpt>
      <trkpt lat="42.41119329817593097686767578125" lon="0.25962240993976593017578125">
        <ele>655</ele>
        <time>2020-08-16T06:55:29.000Z</time>
      </trkpt>
      <trkpt lat="42.411024905741214752197265625" lon="0.25937388651072978973388671875">
        <ele>653</ele>
        <time>2020-08-16T06:55:31.000Z</time>
      </trkpt>
      <trkpt lat="42.410938739776611328125" lon="0.25924782268702983856201171875">
        <ele>651.5999755859375</ele>
        <time>2020-08-16T06:55:32.000Z</time>
      </trkpt>
      <trkpt lat="42.41085265763103961944580078125" lon="0.259119160473346710205078125">
        <ele>650.4000244140625</ele>
        <time>2020-08-16T06:55:33.000Z</time>
      </trkpt>
      <trkpt lat="42.4107657372951507568359375" lon="0.25898815132677555084228515625">
        <ele>649.5999755859375</ele>
        <time>2020-08-16T06:55:34.000Z</time>
      </trkpt>
      <trkpt lat="42.41067714057862758636474609375" lon="0.25885806418955326080322265625">
        <ele>648.79998779296875</ele>
        <time>2020-08-16T06:55:35.000Z</time>
      </trkpt>
      <trkpt lat="42.41049491800367832183837890625" lon="0.258595459163188934326171875">
        <ele>647</ele>
        <time>2020-08-16T06:55:37.000Z</time>
      </trkpt>
      <trkpt lat="42.41040204651653766632080078125" lon="0.2584631927311420440673828125">
        <ele>645.4000244140625</ele>
        <time>2020-08-16T06:55:38.000Z</time>
      </trkpt>
      <trkpt lat="42.41030783392488956451416015625" lon="0.25833050720393657684326171875">
        <ele>644.20001220703125</ele>
        <time>2020-08-16T06:55:39.000Z</time>
      </trkpt>
      <trkpt lat="42.41021244786679744720458984375" lon="0.25819622911512851715087890625">
        <ele>642.5999755859375</ele>
        <time>2020-08-16T06:55:40.000Z</time>
      </trkpt>
      <trkpt lat="42.41011588834226131439208984375" lon="0.25806195102632045745849609375">
        <ele>641.5999755859375</ele>
        <time>2020-08-16T06:55:41.000Z</time>
      </trkpt>
      <trkpt lat="42.41001681424677371978759765625" lon="0.25792834348976612091064453125">
        <ele>640</ele>
        <time>2020-08-16T06:55:42.000Z</time>
      </trkpt>
      <trkpt lat="42.40991589613258838653564453125" lon="0.2577956579625606536865234375">
        <ele>638.4000244140625</ele>
        <time>2020-08-16T06:55:43.000Z</time>
      </trkpt>
      <trkpt lat="42.409814558923244476318359375" lon="0.25766280479729175567626953125">
        <ele>637</ele>
        <time>2020-08-16T06:55:44.000Z</time>
      </trkpt>
      <trkpt lat="42.40971288643777370452880859375" lon="0.25752869434654712677001953125">
        <ele>635.5999755859375</ele>
        <time>2020-08-16T06:55:45.000Z</time>
      </trkpt>
      <trkpt lat="42.4096098728477954864501953125" lon="0.25739542208611965179443359375">
        <ele>634.4000244140625</ele>
        <time>2020-08-16T06:55:46.000Z</time>
      </trkpt>
      <trkpt lat="42.40950551815330982208251953125" lon="0.2572625689208507537841796875">
        <ele>633</ele>
        <time>2020-08-16T06:55:47.000Z</time>
      </trkpt>
      <trkpt lat="42.4094004929065704345703125" lon="0.2571297995746135711669921875">
        <ele>631.20001220703125</ele>
        <time>2020-08-16T06:55:48.000Z</time>
      </trkpt>
      <trkpt lat="42.40929479710757732391357421875" lon="0.2569966949522495269775390625">
        <ele>629.5999755859375</ele>
        <time>2020-08-16T06:55:49.000Z</time>
      </trkpt>
      <trkpt lat="42.40918926894664764404296875" lon="0.256862752139568328857421875">
        <ele>628.4000244140625</ele>
        <time>2020-08-16T06:55:50.000Z</time>
      </trkpt>
      <trkpt lat="42.40908407606184482574462890625" lon="0.25672839023172855377197265625">
        <ele>627</ele>
        <time>2020-08-16T06:55:51.000Z</time>
      </trkpt>
      <trkpt lat="42.40897863171994686126708984375" lon="0.25659461505711078643798828125">
        <ele>625.5999755859375</ele>
        <time>2020-08-16T06:55:52.000Z</time>
      </trkpt>
      <trkpt lat="42.40887318737804889678955078125" lon="0.2564615942537784576416015625">
        <ele>624</ele>
        <time>2020-08-16T06:55:53.000Z</time>
      </trkpt>
      <trkpt lat="42.4086637236177921295166015625" lon="0.2561953850090503692626953125">
        <ele>621.5999755859375</ele>
        <time>2020-08-16T06:55:55.000Z</time>
      </trkpt>
      <trkpt lat="42.40856020711362361907958984375" lon="0.25606387294828891754150390625">
        <ele>619.79998779296875</ele>
        <time>2020-08-16T06:55:56.000Z</time>
      </trkpt>
      <trkpt lat="42.4084575287997722625732421875" lon="0.2559328638017177581787109375">
        <ele>618.4000244140625</ele>
        <time>2020-08-16T06:55:57.000Z</time>
      </trkpt>
      <trkpt lat="42.40835602395236492156982421875" lon="0.25580353103578090667724609375">
        <ele>617.4000244140625</ele>
        <time>2020-08-16T06:55:58.000Z</time>
      </trkpt>
      <trkpt lat="42.40825661458075046539306640625" lon="0.25567461736500263214111328125">
        <ele>616.4000244140625</ele>
        <time>2020-08-16T06:55:59.000Z</time>
      </trkpt>
      <trkpt lat="42.40816064178943634033203125" lon="0.2555446140468120574951171875">
        <ele>615.4000244140625</ele>
        <time>2020-08-16T06:56:00.000Z</time>
      </trkpt>
      <trkpt lat="42.4080696143209934234619140625" lon="0.25541142560541629791259765625">
        <ele>614.5999755859375</ele>
        <time>2020-08-16T06:56:01.000Z</time>
      </trkpt>
      <trkpt lat="42.40790440700948238372802734375" lon="0.25513465516269207000732421875">
        <ele>612.5999755859375</ele>
        <time>2020-08-16T06:56:03.000Z</time>
      </trkpt>
      <trkpt lat="42.40783031098544597625732421875" lon="0.2549930848181247711181640625">
        <ele>611.5999755859375</ele>
        <time>2020-08-16T06:56:04.000Z</time>
      </trkpt>
      <trkpt lat="42.4077631719410419464111328125" lon="0.25484941899776458740234375">
        <ele>610.79998779296875</ele>
        <time>2020-08-16T06:56:05.000Z</time>
      </trkpt>
      <trkpt lat="42.40764842368662357330322265625" lon="0.25455898605287075042724609375">
        <ele>609.5999755859375</ele>
        <time>2020-08-16T06:56:07.000Z</time>
      </trkpt>
      <trkpt lat="42.4075995571911334991455078125" lon="0.25441381148993968963623046875">
        <ele>609</ele>
        <time>2020-08-16T06:56:08.000Z</time>
      </trkpt>
      <trkpt lat="42.40755588747560977935791015625" lon="0.25426981039345264434814453125">
        <ele>608.5999755859375</ele>
        <time>2020-08-16T06:56:09.000Z</time>
      </trkpt>
      <trkpt lat="42.40745865739881992340087890625" lon="0.25384535081684589385986328125">
        <ele>607.20001220703125</ele>
        <time>2020-08-16T06:56:12.000Z</time>
      </trkpt>
      <trkpt lat="42.4073351919651031494140625" lon="0.25308787822723388671875">
        <ele>606.4000244140625</ele>
        <time>2020-08-16T06:56:18.000Z</time>
      </trkpt>
      <trkpt lat="42.40725749172270298004150390625" lon="0.252472646534442901611328125">
        <ele>606.20001220703125</ele>
        <time>2020-08-16T06:56:24.000Z</time>
      </trkpt>
      <trkpt lat="42.40720485337078571319580078125" lon="0.2518822252750396728515625">
        <ele>606.5999755859375</ele>
        <time>2020-08-16T06:56:31.000Z</time>
      </trkpt>
      <trkpt lat="42.40721893496811389923095703125" lon="0.25130144320428371429443359375">
        <ele>606.20001220703125</ele>
        <time>2020-08-16T06:56:39.000Z</time>
      </trkpt>
      <trkpt lat="42.40722664631903171539306640625" lon="0.25123036466538906097412109375">
        <ele>606</ele>
        <time>2020-08-16T06:56:40.000Z</time>
      </trkpt>
      <trkpt lat="42.40731348283588886260986328125" lon="0.25068235583603382110595703125">
        <ele>605.79998779296875</ele>
        <time>2020-08-16T06:56:48.000Z</time>
      </trkpt>
      <trkpt lat="42.40741926245391368865966796875" lon="0.2501858957111835479736328125">
        <ele>605.5999755859375</ele>
        <time>2020-08-16T06:56:56.000Z</time>
      </trkpt>
      <trkpt lat="42.4075214378535747528076171875" lon="0.24982656352221965789794921875">
        <ele>605.20001220703125</ele>
        <time>2020-08-16T06:57:02.000Z</time>
      </trkpt>
      <trkpt lat="42.40753929130733013153076171875" lon="0.24976302869617938995361328125">
        <ele>605.20001220703125</ele>
        <time>2020-08-16T06:57:03.000Z</time>
      </trkpt>
      <trkpt lat="42.40775152109563350677490234375" lon="0.249036736786365509033203125">
        <ele>604.5999755859375</ele>
        <time>2020-08-16T06:57:14.000Z</time>
      </trkpt>
      <trkpt lat="42.40787909366190433502197265625" lon="0.24857950396835803985595703125">
        <ele>604.4000244140625</ele>
        <time>2020-08-16T06:57:21.000Z</time>
      </trkpt>
      <trkpt lat="42.40791278891265392303466796875" lon="0.24845293723046779632568359375">
        <ele>604.4000244140625</ele>
        <time>2020-08-16T06:57:23.000Z</time>
      </trkpt>
      <trkpt lat="42.4080733023583889007568359375" lon="0.24786855094134807586669921875">
        <ele>604</ele>
        <time>2020-08-16T06:57:33.000Z</time>
      </trkpt>
      <trkpt lat="42.40822426043450832366943359375" lon="0.2473112381994724273681640625">
        <ele>604</ele>
        <time>2020-08-16T06:57:43.000Z</time>
      </trkpt>
      <trkpt lat="42.408412434160709381103515625" lon="0.2465915679931640625">
        <ele>603.4000244140625</ele>
        <time>2020-08-16T06:57:55.000Z</time>
      </trkpt>
      <trkpt lat="42.408443279564380645751953125" lon="0.24646743200719356536865234375">
        <ele>603.20001220703125</ele>
        <time>2020-08-16T06:57:57.000Z</time>
      </trkpt>
      <trkpt lat="42.408567331731319427490234375" lon="0.2459855563938617706298828125">
        <ele>602.79998779296875</ele>
        <time>2020-08-16T06:58:05.000Z</time>
      </trkpt>
      <trkpt lat="42.40867990069091320037841796875" lon="0.24555045180022716522216796875">
        <ele>602.20001220703125</ele>
        <time>2020-08-16T06:58:12.000Z</time>
      </trkpt>
      <trkpt lat="42.4087165296077728271484375" lon="0.24534475989639759063720703125">
        <ele>601.79998779296875</ele>
        <time>2020-08-16T06:58:15.000Z</time>
      </trkpt>
      <trkpt lat="42.40877746604382991790771484375" lon="0.24497075937688350677490234375">
        <ele>601</ele>
        <time>2020-08-16T06:58:20.000Z</time>
      </trkpt>
      <trkpt lat="42.40880613215267658233642578125" lon="0.244724415242671966552734375">
        <ele>600.79998779296875</ele>
        <time>2020-08-16T06:58:23.000Z</time>
      </trkpt>
      <trkpt lat="42.408818788826465606689453125" lon="0.24454881437122821807861328125">
        <ele>600</ele>
        <time>2020-08-16T06:58:25.000Z</time>
      </trkpt>
      <trkpt lat="42.4088303558528423309326171875" lon="0.24407096207141876220703125">
        <ele>598.79998779296875</ele>
        <time>2020-08-16T06:58:30.000Z</time>
      </trkpt>
      <trkpt lat="42.408820800483226776123046875" lon="0.24375982582569122314453125">
        <ele>597.5999755859375</ele>
        <time>2020-08-16T06:58:33.000Z</time>
      </trkpt>
      <trkpt lat="42.40879640914499759674072265625" lon="0.2434361167252063751220703125">
        <ele>596.5999755859375</ele>
        <time>2020-08-16T06:58:36.000Z</time>
      </trkpt>
      <trkpt lat="42.40878500975668430328369140625" lon="0.24332622997462749481201171875">
        <ele>596.20001220703125</ele>
        <time>2020-08-16T06:58:37.000Z</time>
      </trkpt>
      <trkpt lat="42.40875936113297939300537109375" lon="0.24310461245477199554443359375">
        <ele>595.4000244140625</ele>
        <time>2020-08-16T06:58:39.000Z</time>
      </trkpt>
      <trkpt lat="42.40871896035969257354736328125" lon="0.24277386255562305450439453125">
        <ele>594.4000244140625</ele>
        <time>2020-08-16T06:58:42.000Z</time>
      </trkpt>
      <trkpt lat="42.40864955820143222808837890625" lon="0.242246724665164947509765625">
        <ele>593.4000244140625</ele>
        <time>2020-08-16T06:58:47.000Z</time>
      </trkpt>
      <trkpt lat="42.40857294760644435882568359375" lon="0.24161531589925289154052734375">
        <ele>592.79998779296875</ele>
        <time>2020-08-16T06:58:54.000Z</time>
      </trkpt>
      <trkpt lat="42.40853883326053619384765625" lon="0.2412621863186359405517578125">
        <ele>593.20001220703125</ele>
        <time>2020-08-16T06:58:59.000Z</time>
      </trkpt>
      <trkpt lat="42.4085289426147937774658203125" lon="0.24113235063850879669189453125">
        <ele>593.5999755859375</ele>
        <time>2020-08-16T06:59:01.000Z</time>
      </trkpt>
      <trkpt lat="42.408492565155029296875" lon="0.24066078476607799530029296875">
        <ele>594.20001220703125</ele>
        <time>2020-08-16T06:59:09.000Z</time>
      </trkpt>
      <trkpt lat="42.40846700035035610198974609375" lon="0.2403549291193485260009765625">
        <ele>594.5999755859375</ele>
        <time>2020-08-16T06:59:15.000Z</time>
      </trkpt>
      <trkpt lat="42.408464737236499786376953125" lon="0.24030740372836589813232421875">
        <ele>594.79998779296875</ele>
        <time>2020-08-16T06:59:16.000Z</time>
      </trkpt>
      <trkpt lat="42.40843280218541622161865234375" lon="0.239915885031223297119140625">
        <ele>595.20001220703125</ele>
        <time>2020-08-16T06:59:25.000Z</time>
      </trkpt>
      <trkpt lat="42.40841905586421489715576171875" lon="0.23970901966094970703125">
        <ele>595.79998779296875</ele>
        <time>2020-08-16T06:59:30.000Z</time>
      </trkpt>
      <trkpt lat="42.40840899758040904998779296875" lon="0.2394701354205608367919921875">
        <ele>596.4000244140625</ele>
        <time>2020-08-16T06:59:36.000Z</time>
      </trkpt>
      <trkpt lat="42.40841419436037540435791015625" lon="0.2394356019794940948486328125">
        <ele>596.5999755859375</ele>
        <time>2020-08-16T06:59:37.000Z</time>
      </trkpt>
      <trkpt lat="42.40841033868491649627685546875" lon="0.2393216080963611602783203125">
        <ele>596.79998779296875</ele>
        <time>2020-08-16T06:59:40.000Z</time>
      </trkpt>
      <trkpt lat="42.408397011458873748779296875" lon="0.23901910521090030670166015625">
        <ele>597.79998779296875</ele>
        <time>2020-08-16T06:59:48.000Z</time>
      </trkpt>
      <trkpt lat="42.40839743055403232574462890625" lon="0.238950960338115692138671875">
        <ele>598</ele>
        <time>2020-08-16T06:59:50.000Z</time>
      </trkpt>
      <trkpt lat="42.40837044082581996917724609375" lon="0.23865181021392345428466796875">
        <ele>598.79998779296875</ele>
        <time>2020-08-16T06:59:58.000Z</time>
      </trkpt>
      <trkpt lat="42.40852952934801578521728515625" lon="0.2347239665687084197998046875">
        <ele>609</ele>
        <time>2020-08-16T07:01:44.000Z</time>
      </trkpt>
      <trkpt lat="42.40855199284851551055908203125" lon="0.23447133600711822509765625">
        <ele>609.4000244140625</ele>
        <time>2020-08-16T07:01:48.000Z</time>
      </trkpt>
      <trkpt lat="42.4085628055036067962646484375" lon="0.23421811871230602264404296875">
        <ele>609.79998779296875</ele>
        <time>2020-08-16T07:01:53.000Z</time>
      </trkpt>
      <trkpt lat="42.40856640972197055816650390625" lon="0.234047211706638336181640625">
        <ele>609.79998779296875</ele>
        <time>2020-08-16T07:01:56.000Z</time>
      </trkpt>
      <trkpt lat="42.40854151546955108642578125" lon="0.23360439576208591461181640625">
        <ele>610</ele>
        <time>2020-08-16T07:02:02.000Z</time>
      </trkpt>
      <trkpt lat="42.408551909029483795166015625" lon="0.23321329616010189056396484375">
        <ele>610</ele>
        <time>2020-08-16T07:02:10.000Z</time>
      </trkpt>
      <trkpt lat="42.4086023680865764617919921875" lon="0.23272898979485034942626953125">
        <ele>610</ele>
        <time>2020-08-16T07:02:20.000Z</time>
      </trkpt>
      <trkpt lat="42.40864201448857784271240234375" lon="0.232332609593868255615234375">
        <ele>609.20001220703125</ele>
        <time>2020-08-16T07:02:27.000Z</time>
      </trkpt>
      <trkpt lat="42.40870655514299869537353515625" lon="0.2317675016820430755615234375">
        <ele>608.20001220703125</ele>
        <time>2020-08-16T07:02:36.000Z</time>
      </trkpt>
      <trkpt lat="42.40878232754766941070556640625" lon="0.23122091777622699737548828125">
        <ele>607</ele>
        <time>2020-08-16T07:02:44.000Z</time>
      </trkpt>
      <trkpt lat="42.4087948165833950042724609375" lon="0.23115017451345920562744140625">
        <ele>606.79998779296875</ele>
        <time>2020-08-16T07:02:45.000Z</time>
      </trkpt>
      <trkpt lat="42.4088628776371479034423828125" lon="0.230715572834014892578125">
        <ele>606</ele>
        <time>2020-08-16T07:02:51.000Z</time>
      </trkpt>
      <trkpt lat="42.408901937305927276611328125" lon="0.23049403913319110870361328125">
        <ele>605.4000244140625</ele>
        <time>2020-08-16T07:02:54.000Z</time>
      </trkpt>
      <trkpt lat="42.408955581486225128173828125" lon="0.230188183486461639404296875">
        <ele>604.79998779296875</ele>
        <time>2020-08-16T07:02:58.000Z</time>
      </trkpt>
      <trkpt lat="42.40902808494865894317626953125" lon="0.22979867644608020782470703125">
        <ele>604</ele>
        <time>2020-08-16T07:03:03.000Z</time>
      </trkpt>
      <trkpt lat="42.40913185290992259979248046875" lon="0.22924312390387058258056640625">
        <ele>603</ele>
        <time>2020-08-16T07:03:10.000Z</time>
      </trkpt>
      <trkpt lat="42.40918097086250782012939453125" lon="0.22901077754795551300048828125">
        <ele>602.79998779296875</ele>
        <time>2020-08-16T07:03:13.000Z</time>
      </trkpt>
      <trkpt lat="42.40927870385348796844482421875" lon="0.22854859940707683563232421875">
        <ele>602</ele>
        <time>2020-08-16T07:03:19.000Z</time>
      </trkpt>
      <trkpt lat="42.40935732610523700714111328125" lon="0.22816948592662811279296875">
        <ele>601.4000244140625</ele>
        <time>2020-08-16T07:03:24.000Z</time>
      </trkpt>
      <trkpt lat="42.4094462580978870391845703125" lon="0.22772851400077342987060546875">
        <ele>600.79998779296875</ele>
        <time>2020-08-16T07:03:30.000Z</time>
      </trkpt>
      <trkpt lat="42.4094881676137447357177734375" lon="0.2275165356695652008056640625">
        <ele>600.4000244140625</ele>
        <time>2020-08-16T07:03:33.000Z</time>
      </trkpt>
      <trkpt lat="42.4095558933913707733154296875" lon="0.22718084044754505157470703125">
        <ele>599.79998779296875</ele>
        <time>2020-08-16T07:03:38.000Z</time>
      </trkpt>
      <trkpt lat="42.40960392169654369354248046875" lon="0.2269247733056545257568359375">
        <ele>599.79998779296875</ele>
        <time>2020-08-16T07:03:42.000Z</time>
      </trkpt>
      <trkpt lat="42.40968321450054645538330078125" lon="0.22626872174441814422607421875">
        <ele>599.4000244140625</ele>
        <time>2020-08-16T07:03:52.000Z</time>
      </trkpt>
      <trkpt lat="42.40968589670956134796142578125" lon="0.22569648921489715576171875">
        <ele>599</ele>
        <time>2020-08-16T07:04:01.000Z</time>
      </trkpt>
      <trkpt lat="42.40968086756765842437744140625" lon="0.225633122026920318603515625">
        <ele>599</ele>
        <time>2020-08-16T07:04:02.000Z</time>
      </trkpt>
      <trkpt lat="42.4095976352691650390625" lon="0.2250167168676853179931640625">
        <ele>598.20001220703125</ele>
        <time>2020-08-16T07:04:12.000Z</time>
      </trkpt>
      <trkpt lat="42.4094583280384540557861328125" lon="0.22450030781328678131103515625">
        <ele>598.4000244140625</ele>
        <time>2020-08-16T07:04:21.000Z</time>
      </trkpt>
      <trkpt lat="42.4092836491763591766357421875" lon="0.22406059317290782928466796875">
        <ele>598</ele>
        <time>2020-08-16T07:04:29.000Z</time>
      </trkpt>
      <trkpt lat="42.409258671104907989501953125" lon="0.22400594316422939300537109375">
        <ele>598</ele>
        <time>2020-08-16T07:04:30.000Z</time>
      </trkpt>
      <trkpt lat="42.409021966159343719482421875" lon="0.22358399815857410430908203125">
        <ele>597</ele>
        <time>2020-08-16T07:04:38.000Z</time>
      </trkpt>
      <trkpt lat="42.40874712355434894561767578125" lon="0.22321678698062896728515625">
        <ele>596</ele>
        <time>2020-08-16T07:04:45.000Z</time>
      </trkpt>
      <trkpt lat="42.4087016098201274871826171875" lon="0.22316523827612400054931640625">
        <ele>595.79998779296875</ele>
        <time>2020-08-16T07:04:46.000Z</time>
      </trkpt>
      <trkpt lat="42.40850036032497882843017578125" lon="0.2229658327996730804443359375">
        <ele>595</ele>
        <time>2020-08-16T07:04:50.000Z</time>
      </trkpt>
      <trkpt lat="42.4083294533193111419677734375" lon="0.22282090969383716583251953125">
        <ele>594</ele>
        <time>2020-08-16T07:04:53.000Z</time>
      </trkpt>
      <trkpt lat="42.4082684330642223358154296875" lon="0.22277380339801311492919921875">
        <ele>593.79998779296875</ele>
        <time>2020-08-16T07:04:54.000Z</time>
      </trkpt>
      <trkpt lat="42.4080015532672405242919921875" lon="0.22259728051722049713134765625">
        <ele>592.5999755859375</ele>
        <time>2020-08-16T07:04:58.000Z</time>
      </trkpt>
      <trkpt lat="42.40785361267626285552978515625" lon="0.22251832298934459686279296875">
        <ele>591.4000244140625</ele>
        <time>2020-08-16T07:05:00.000Z</time>
      </trkpt>
      <trkpt lat="42.407611794769763946533203125" lon="0.22241891361773014068603515625">
        <ele>590.4000244140625</ele>
        <time>2020-08-16T07:05:03.000Z</time>
      </trkpt>
      <trkpt lat="42.40735338069498538970947265625" lon="0.22233693860471248626708984375">
        <ele>589.20001220703125</ele>
        <time>2020-08-16T07:05:06.000Z</time>
      </trkpt>
      <trkpt lat="42.40717492997646331787109375" lon="0.22227809764444828033447265625">
        <ele>588</ele>
        <time>2020-08-16T07:05:08.000Z</time>
      </trkpt>
      <trkpt lat="42.40699111483991146087646484375" lon="0.222222693264484405517578125">
        <ele>586.79998779296875</ele>
        <time>2020-08-16T07:05:10.000Z</time>
      </trkpt>
      <trkpt lat="42.406705208122730255126953125" lon="0.2221407182514667510986328125">
        <ele>585.20001220703125</ele>
        <time>2020-08-16T07:05:13.000Z</time>
      </trkpt>
      <trkpt lat="42.40660789422690868377685546875" lon="0.22211096249520778656005859375">
        <ele>584.4000244140625</ele>
        <time>2020-08-16T07:05:14.000Z</time>
      </trkpt>
      <trkpt lat="42.40650974214076995849609375" lon="0.22208011709153652191162109375">
        <ele>583.79998779296875</ele>
        <time>2020-08-16T07:05:15.000Z</time>
      </trkpt>
      <trkpt lat="42.40621360950171947479248046875" lon="0.22197634913027286529541015625">
        <ele>582.20001220703125</ele>
        <time>2020-08-16T07:05:18.000Z</time>
      </trkpt>
      <trkpt lat="42.406017221510410308837890625" lon="0.221892111003398895263671875">
        <ele>580.79998779296875</ele>
        <time>2020-08-16T07:05:20.000Z</time>
      </trkpt>
      <trkpt lat="42.40582519210875034332275390625" lon="0.2217947132885456085205078125">
        <ele>579.5999755859375</ele>
        <time>2020-08-16T07:05:22.000Z</time>
      </trkpt>
      <trkpt lat="42.4056408740580081939697265625" lon="0.221685580909252166748046875">
        <ele>578.4000244140625</ele>
        <time>2020-08-16T07:05:24.000Z</time>
      </trkpt>
      <trkpt lat="42.405301071703433990478515625" lon="0.2214418351650238037109375">
        <ele>577.5999755859375</ele>
        <time>2020-08-16T07:05:28.000Z</time>
      </trkpt>
      <trkpt lat="42.40522420965135097503662109375" lon="0.22137553431093692779541015625">
        <ele>577.20001220703125</ele>
        <time>2020-08-16T07:05:29.000Z</time>
      </trkpt>
      <trkpt lat="42.4049475230276584625244140625" lon="0.22109993733465671539306640625">
        <ele>576.20001220703125</ele>
        <time>2020-08-16T07:05:33.000Z</time>
      </trkpt>
      <trkpt lat="42.40488591603934764862060546875" lon="0.22103087045252323150634765625">
        <ele>576</ele>
        <time>2020-08-16T07:05:34.000Z</time>
      </trkpt>
      <trkpt lat="42.40457410924136638641357421875" lon="0.22064362652599811553955078125">
        <ele>575.5999755859375</ele>
        <time>2020-08-16T07:05:40.000Z</time>
      </trkpt>
      <trkpt lat="42.40435517393052577972412109375" lon="0.22031807340681552886962890625">
        <ele>576.4000244140625</ele>
        <time>2020-08-16T07:05:46.000Z</time>
      </trkpt>
      <trkpt lat="42.40410120226442813873291015625" lon="0.2199584059417247772216796875">
        <ele>576.79998779296875</ele>
        <time>2020-08-16T07:05:54.000Z</time>
      </trkpt>
      <trkpt lat="42.40387153811752796173095703125" lon="0.21963444538414478302001953125">
        <ele>577.4000244140625</ele>
        <time>2020-08-16T07:06:02.000Z</time>
      </trkpt>
      <trkpt lat="42.403785288333892822265625" lon="0.21951877512037754058837890625">
        <ele>577.4000244140625</ele>
        <time>2020-08-16T07:06:05.000Z</time>
      </trkpt>
      <trkpt lat="42.4035343341529369354248046875" lon="0.2191718481481075286865234375">
        <ele>578</ele>
        <time>2020-08-16T07:06:14.000Z</time>
      </trkpt>
      <trkpt lat="42.40323887206614017486572265625" lon="0.21878837607800960540771484375">
        <ele>578</ele>
        <time>2020-08-16T07:06:24.000Z</time>
      </trkpt>
      <trkpt lat="42.40287409164011478424072265625" lon="0.21838939748704433441162109375">
        <ele>577.4000244140625</ele>
        <time>2020-08-16T07:06:35.000Z</time>
      </trkpt>
      <trkpt lat="42.4024795554578304290771484375" lon="0.21804858930408954620361328125">
        <ele>576.79998779296875</ele>
        <time>2020-08-16T07:06:45.000Z</time>
      </trkpt>
      <trkpt lat="42.4023940600454807281494140625" lon="0.2179819531738758087158203125">
        <ele>576.5999755859375</ele>
        <time>2020-08-16T07:06:47.000Z</time>
      </trkpt>
      <trkpt lat="42.40212240256369113922119140625" lon="0.2177698910236358642578125">
        <ele>575.5999755859375</ele>
        <time>2020-08-16T07:06:53.000Z</time>
      </trkpt>
      <trkpt lat="42.40175963379442691802978515625" lon="0.2174874208867549896240234375">
        <ele>574.5999755859375</ele>
        <time>2020-08-16T07:07:00.000Z</time>
      </trkpt>
      <trkpt lat="42.4017030559480190277099609375" lon="0.2174431644380092620849609375">
        <ele>574.20001220703125</ele>
        <time>2020-08-16T07:07:01.000Z</time>
      </trkpt>
      <trkpt lat="42.40152628161013126373291015625" lon="0.2173090539872646331787109375">
        <ele>573.4000244140625</ele>
        <time>2020-08-16T07:07:04.000Z</time>
      </trkpt>
      <trkpt lat="42.40128153003752231597900390625" lon="0.21711534820497035980224609375">
        <ele>572.20001220703125</ele>
        <time>2020-08-16T07:07:08.000Z</time>
      </trkpt>
      <trkpt lat="42.40115814842283725738525390625" lon="0.21700839512050151824951171875">
        <ele>571.5999755859375</ele>
        <time>2020-08-16T07:07:10.000Z</time>
      </trkpt>
      <trkpt lat="42.40103493444621562957763671875" lon="0.2168939821422100067138671875">
        <ele>571</ele>
        <time>2020-08-16T07:07:12.000Z</time>
      </trkpt>
      <trkpt lat="42.40085086785256862640380859375" lon="0.21671519614756107330322265625">
        <ele>569.79998779296875</ele>
        <time>2020-08-16T07:07:15.000Z</time>
      </trkpt>
      <trkpt lat="42.40067753009498119354248046875" lon="0.2165228314697742462158203125">
        <ele>569</ele>
        <time>2020-08-16T07:07:18.000Z</time>
      </trkpt>
      <trkpt lat="42.40062220953404903411865234375" lon="0.2164574526250362396240234375">
        <ele>568.79998779296875</ele>
        <time>2020-08-16T07:07:19.000Z</time>
      </trkpt>
      <trkpt lat="42.40037024952471256256103515625" lon="0.2161308936774730682373046875">
        <ele>567.79998779296875</ele>
        <time>2020-08-16T07:07:24.000Z</time>
      </trkpt>
      <trkpt lat="42.40028207190334796905517578125" lon="0.216000638902187347412109375">
        <ele>567.5999755859375</ele>
        <time>2020-08-16T07:07:26.000Z</time>
      </trkpt>
      <trkpt lat="42.3999797366559505462646484375" lon="0.215505771338939666748046875">
        <ele>566.79998779296875</ele>
        <time>2020-08-16T07:07:34.000Z</time>
      </trkpt>
      <trkpt lat="42.39967773668467998504638671875" lon="0.214870758354663848876953125">
        <ele>565.79998779296875</ele>
        <time>2020-08-16T07:07:44.000Z</time>
      </trkpt>
      <trkpt lat="42.399473972618579864501953125" lon="0.21432928740978240966796875">
        <ele>564.5999755859375</ele>
        <time>2020-08-16T07:07:52.000Z</time>
      </trkpt>
      <trkpt lat="42.3994506709277629852294921875" lon="0.2142600528895854949951171875">
        <ele>564.4000244140625</ele>
        <time>2020-08-16T07:07:53.000Z</time>
      </trkpt>
      <trkpt lat="42.399284876883029937744140625" lon="0.21377549506723880767822265625">
        <ele>563.4000244140625</ele>
        <time>2020-08-16T07:08:00.000Z</time>
      </trkpt>
      <trkpt lat="42.3992186598479747772216796875" lon="0.2135640196502208709716796875">
        <ele>562.79998779296875</ele>
        <time>2020-08-16T07:08:03.000Z</time>
      </trkpt>
      <trkpt lat="42.39910206757485866546630859375" lon="0.21321139298379421234130859375">
        <ele>562.5999755859375</ele>
        <time>2020-08-16T07:08:08.000Z</time>
      </trkpt>
      <trkpt lat="42.39895320497453212738037109375" lon="0.21278844214975833892822265625">
        <ele>561.4000244140625</ele>
        <time>2020-08-16T07:08:14.000Z</time>
      </trkpt>
      <trkpt lat="42.39876218140125274658203125" lon="0.2122188918292522430419921875">
        <ele>560.4000244140625</ele>
        <time>2020-08-16T07:08:22.000Z</time>
      </trkpt>
      <trkpt lat="42.3986946232616901397705078125" lon="0.2120029740035533905029296875">
        <ele>559.79998779296875</ele>
        <time>2020-08-16T07:08:25.000Z</time>
      </trkpt>
      <trkpt lat="42.39861977286636829376220703125" lon="0.2117907442152500152587890625">
        <ele>559.4000244140625</ele>
        <time>2020-08-16T07:08:28.000Z</time>
      </trkpt>
      <trkpt lat="42.398425899446010589599609375" lon="0.2112180925905704498291015625">
        <ele>558.4000244140625</ele>
        <time>2020-08-16T07:08:36.000Z</time>
      </trkpt>
      <trkpt lat="42.39840419031679630279541015625" lon="0.21114475093781948089599609375">
        <ele>558</ele>
        <time>2020-08-16T07:08:37.000Z</time>
      </trkpt>
      <trkpt lat="42.39827779121696949005126953125" lon="0.2107010968029499053955078125">
        <ele>557.20001220703125</ele>
        <time>2020-08-16T07:08:43.000Z</time>
      </trkpt>
      <trkpt lat="42.398152649402618408203125" lon="0.21025559864938259124755859375">
        <ele>556.5999755859375</ele>
        <time>2020-08-16T07:08:49.000Z</time>
      </trkpt>
      <trkpt lat="42.39811115898191928863525390625" lon="0.210103131830692291259765625">
        <ele>556</ele>
        <time>2020-08-16T07:08:51.000Z</time>
      </trkpt>
      <trkpt lat="42.39801124669611454010009765625" lon="0.20970557816326618194580078125">
        <ele>555</ele>
        <time>2020-08-16T07:08:56.000Z</time>
      </trkpt>
      <trkpt lat="42.39795081317424774169921875" lon="0.20945361815392971038818359375">
        <ele>554.20001220703125</ele>
        <time>2020-08-16T07:08:59.000Z</time>
      </trkpt>
      <trkpt lat="42.39793245680630207061767578125" lon="0.20936585962772369384765625">
        <ele>554</ele>
        <time>2020-08-16T07:09:00.000Z</time>
      </trkpt>
      <trkpt lat="42.3978359811007976531982421875" lon="0.20891147665679454803466796875">
        <ele>552.79998779296875</ele>
        <time>2020-08-16T07:09:05.000Z</time>
      </trkpt>
      <trkpt lat="42.39778057672083377838134765625" lon="0.208624899387359619140625">
        <ele>551.5999755859375</ele>
        <time>2020-08-16T07:09:08.000Z</time>
      </trkpt>
      <trkpt lat="42.39770379848778247833251953125" lon="0.20823254249989986419677734375">
        <ele>550.4000244140625</ele>
        <time>2020-08-16T07:09:12.000Z</time>
      </trkpt>
      <trkpt lat="42.3976271040737628936767578125" lon="0.20783205516636371612548828125">
        <ele>549</ele>
        <time>2020-08-16T07:09:16.000Z</time>
      </trkpt>
      <trkpt lat="42.3976059816777706146240234375" lon="0.20773130469024181365966796875">
        <ele>548.5999755859375</ele>
        <time>2020-08-16T07:09:17.000Z</time>
      </trkpt>
      <trkpt lat="42.3975382559001445770263671875" lon="0.2074308134615421295166015625">
        <ele>547.79998779296875</ele>
        <time>2020-08-16T07:09:20.000Z</time>
      </trkpt>
      <trkpt lat="42.397440858185291290283203125" lon="0.20703359507024288177490234375">
        <ele>547</ele>
        <time>2020-08-16T07:09:24.000Z</time>
      </trkpt>
      <trkpt lat="42.397353351116180419921875" lon="0.20674659870564937591552734375">
        <ele>546.20001220703125</ele>
        <time>2020-08-16T07:09:27.000Z</time>
      </trkpt>
      <trkpt lat="42.3972935043275356292724609375" lon="0.20656085573136806488037109375">
        <ele>545.79998779296875</ele>
        <time>2020-08-16T07:09:29.000Z</time>
      </trkpt>
      <trkpt lat="42.3971362598240375518798828125" lon="0.20611778832972049713134765625">
        <ele>544.79998779296875</ele>
        <time>2020-08-16T07:09:34.000Z</time>
      </trkpt>
      <trkpt lat="42.39710331894457340240478515625" lon="0.20603447221219539642333984375">
        <ele>544.5999755859375</ele>
        <time>2020-08-16T07:09:35.000Z</time>
      </trkpt>
      <trkpt lat="42.3968423902988433837890625" lon="0.2054268680512905120849609375">
        <ele>543.79998779296875</ele>
        <time>2020-08-16T07:09:43.000Z</time>
      </trkpt>
      <trkpt lat="42.3966246284544467926025390625" lon="0.20497977733612060546875">
        <ele>543.20001220703125</ele>
        <time>2020-08-16T07:09:50.000Z</time>
      </trkpt>
      <trkpt lat="42.3964963853359222412109375" lon="0.20474935881793498992919921875">
        <ele>543</ele>
        <time>2020-08-16T07:09:54.000Z</time>
      </trkpt>
      <trkpt lat="42.396337129175662994384765625" lon="0.204449705779552459716796875">
        <ele>542.79998779296875</ele>
        <time>2020-08-16T07:09:59.000Z</time>
      </trkpt>
      <trkpt lat="42.39601803012192249298095703125" lon="0.20384947769343852996826171875">
        <ele>542.20001220703125</ele>
        <time>2020-08-16T07:10:09.000Z</time>
      </trkpt>
      <trkpt lat="42.39592130295932292938232421875" lon="0.20367010496556758880615234375">
        <ele>542</ele>
        <time>2020-08-16T07:10:12.000Z</time>
      </trkpt>
      <trkpt lat="42.39565174095332622528076171875" lon="0.20312243141233921051025390625">
        <ele>541.4000244140625</ele>
        <time>2020-08-16T07:10:21.000Z</time>
      </trkpt>
      <trkpt lat="42.39544504322111606597900390625" lon="0.2026313357055187225341796875">
        <ele>541</ele>
        <time>2020-08-16T07:10:29.000Z</time>
      </trkpt>
      <trkpt lat="42.39535300992429256439208984375" lon="0.20237878896296024322509765625">
        <ele>540.79998779296875</ele>
        <time>2020-08-16T07:10:33.000Z</time>
      </trkpt>
      <trkpt lat="42.3952312208712100982666015625" lon="0.20201484672725200653076171875">
        <ele>540.4000244140625</ele>
        <time>2020-08-16T07:10:39.000Z</time>
      </trkpt>
      <trkpt lat="42.39506115205585956573486328125" lon="0.20144688896834850311279296875">
        <ele>540.20001220703125</ele>
        <time>2020-08-16T07:10:48.000Z</time>
      </trkpt>
      <trkpt lat="42.39502661861479282379150390625" lon="0.20131680183112621307373046875">
        <ele>540</ele>
        <time>2020-08-16T07:10:50.000Z</time>
      </trkpt>
      <trkpt lat="42.3949469067156314849853515625" lon="0.2009375207126140594482421875">
        <ele>540</ele>
        <time>2020-08-16T07:10:56.000Z</time>
      </trkpt>
      <trkpt lat="42.39485026337206363677978515625" lon="0.200402252376079559326171875">
        <ele>539.5999755859375</ele>
        <time>2020-08-16T07:11:04.000Z</time>
      </trkpt>
      <trkpt lat="42.394727133214473724365234375" lon="0.19971217028796672821044921875">
        <ele>539</ele>
        <time>2020-08-16T07:11:14.000Z</time>
      </trkpt>
      <trkpt lat="42.39470207132399082183837890625" lon="0.19957068376243114471435546875">
        <ele>539</ele>
        <time>2020-08-16T07:11:16.000Z</time>
      </trkpt>
      <trkpt lat="42.39458204247057437896728515625" lon="0.19891706295311450958251953125">
        <ele>538.4000244140625</ele>
        <time>2020-08-16T07:11:25.000Z</time>
      </trkpt>
      <trkpt lat="42.39450543187558650970458984375" lon="0.1983840577304363250732421875">
        <ele>538.20001220703125</ele>
        <time>2020-08-16T07:11:32.000Z</time>
      </trkpt>
      <trkpt lat="42.3944825492799282073974609375" lon="0.1980695687234401702880859375">
        <ele>538</ele>
        <time>2020-08-16T07:11:36.000Z</time>
      </trkpt>
      <trkpt lat="42.39449386484920978546142578125" lon="0.1975257508456707000732421875">
        <ele>537.4000244140625</ele>
        <time>2020-08-16T07:11:43.000Z</time>
      </trkpt>
      <trkpt lat="42.39458120428025722503662109375" lon="0.19696223549544811248779296875">
        <ele>537.20001220703125</ele>
        <time>2020-08-16T07:11:51.000Z</time>
      </trkpt>
      <trkpt lat="42.39462621510028839111328125" lon="0.19677397795021533966064453125">
        <ele>537.20001220703125</ele>
        <time>2020-08-16T07:11:54.000Z</time>
      </trkpt>
      <trkpt lat="42.3947159014642238616943359375" lon="0.1964820362627506256103515625">
        <ele>537</ele>
        <time>2020-08-16T07:11:59.000Z</time>
      </trkpt>
      <trkpt lat="42.39490692503750324249267578125" lon="0.1959727518260478973388671875">
        <ele>537</ele>
        <time>2020-08-16T07:12:08.000Z</time>
      </trkpt>
      <trkpt lat="42.3951004631817340850830078125" lon="0.19549137912690639495849609375">
        <ele>537.20001220703125</ele>
        <time>2020-08-16T07:12:17.000Z</time>
      </trkpt>
      <trkpt lat="42.39525946788489818572998046875" lon="0.1949930749833583831787109375">
        <ele>537.79998779296875</ele>
        <time>2020-08-16T07:12:26.000Z</time>
      </trkpt>
      <trkpt lat="42.3953532613813877105712890625" lon="0.19454657100141048431396484375">
        <ele>538.4000244140625</ele>
        <time>2020-08-16T07:12:34.000Z</time>
      </trkpt>
      <trkpt lat="42.39537094719707965850830078125" lon="0.19443676806986331939697265625">
        <ele>538.5999755859375</ele>
        <time>2020-08-16T07:12:36.000Z</time>
      </trkpt>
      <trkpt lat="42.39539961330592632293701171875" lon="0.19393469206988811492919921875">
        <ele>538.5999755859375</ele>
        <time>2020-08-16T07:12:45.000Z</time>
      </trkpt>
      <trkpt lat="42.3953671753406524658203125" lon="0.19342842511832714080810546875">
        <ele>538.79998779296875</ele>
        <time>2020-08-16T07:12:54.000Z</time>
      </trkpt>
      <trkpt lat="42.395283021032810211181640625" lon="0.1929473876953125">
        <ele>539.20001220703125</ele>
        <time>2020-08-16T07:13:03.000Z</time>
      </trkpt>
      <trkpt lat="42.39509820006787776947021484375" lon="0.19240449182689189910888671875">
        <ele>538.79998779296875</ele>
        <time>2020-08-16T07:13:13.000Z</time>
      </trkpt>
      <trkpt lat="42.3948241956532001495361328125" lon="0.19188766367733478546142578125">
        <ele>539</ele>
        <time>2020-08-16T07:13:23.000Z</time>
      </trkpt>
      <trkpt lat="42.3944956250488758087158203125" lon="0.191338397562503814697265625">
        <ele>539</ele>
        <time>2020-08-16T07:13:34.000Z</time>
      </trkpt>
      <trkpt lat="42.39414601586759090423583984375" lon="0.19076448865234851837158203125">
        <ele>538.79998779296875</ele>
        <time>2020-08-16T07:13:46.000Z</time>
      </trkpt>
      <trkpt lat="42.39408851601183414459228515625" lon="0.190673209726810455322265625">
        <ele>539</ele>
        <time>2020-08-16T07:13:48.000Z</time>
      </trkpt>
      <trkpt lat="42.39382825791835784912109375" lon="0.1902281306684017181396484375">
        <ele>539.4000244140625</ele>
        <time>2020-08-16T07:13:58.000Z</time>
      </trkpt>
      <trkpt lat="42.39370697177946567535400390625" lon="0.19001967273652553558349609375">
        <ele>539.5999755859375</ele>
        <time>2020-08-16T07:14:03.000Z</time>
      </trkpt>
      <trkpt lat="42.393585853278636932373046875" lon="0.18982420675456523895263671875">
        <ele>540</ele>
        <time>2020-08-16T07:14:08.000Z</time>
      </trkpt>
      <trkpt lat="42.39340606145560741424560546875" lon="0.18953201361000537872314453125">
        <ele>540.5999755859375</ele>
        <time>2020-08-16T07:14:16.000Z</time>
      </trkpt>
      <trkpt lat="42.39333850331604480743408203125" lon="0.18943025730550289154052734375">
        <ele>541</ele>
        <time>2020-08-16T07:14:19.000Z</time>
      </trkpt>
      <trkpt lat="42.3931987769901752471923828125" lon="0.18918768502771854400634765625">
        <ele>541.79998779296875</ele>
        <time>2020-08-16T07:14:26.000Z</time>
      </trkpt>
      <trkpt lat="42.39311856217682361602783203125" lon="0.1890622079372406005859375">
        <ele>542.4000244140625</ele>
        <time>2020-08-16T07:14:30.000Z</time>
      </trkpt>
      <trkpt lat="42.39304371178150177001953125" lon="0.18893857486546039581298828125">
        <ele>543</ele>
        <time>2020-08-16T07:14:34.000Z</time>
      </trkpt>
      <trkpt lat="42.39297271706163883209228515625" lon="0.1888166181743144989013671875">
        <ele>543.4000244140625</ele>
        <time>2020-08-16T07:14:38.000Z</time>
      </trkpt>
      <trkpt lat="42.3928829468786716461181640625" lon="0.1886657439172267913818359375">
        <ele>544</ele>
        <time>2020-08-16T07:14:43.000Z</time>
      </trkpt>
      <trkpt lat="42.39277658052742481231689453125" lon="0.1884934119880199432373046875">
        <ele>544.79998779296875</ele>
        <time>2020-08-16T07:14:49.000Z</time>
      </trkpt>
      <trkpt lat="42.3927250318229198455810546875" lon="0.18840548582375049591064453125">
        <ele>545.20001220703125</ele>
        <time>2020-08-16T07:14:52.000Z</time>
      </trkpt>
      <trkpt lat="42.39260156638920307159423828125" lon="0.18820364959537982940673828125">
        <ele>546.20001220703125</ele>
        <time>2020-08-16T07:14:59.000Z</time>
      </trkpt>
      <trkpt lat="42.3925838805735111236572265625" lon="0.188175737857818603515625">
        <ele>546.4000244140625</ele>
        <time>2020-08-16T07:15:00.000Z</time>
      </trkpt>
      <trkpt lat="42.3924702219665050506591796875" lon="0.18799494020640850067138671875">
        <ele>547.20001220703125</ele>
        <time>2020-08-16T07:15:07.000Z</time>
      </trkpt>
      <trkpt lat="42.39243895746767520904541015625" lon="0.1879398711025714874267578125">
        <ele>547.4000244140625</ele>
        <time>2020-08-16T07:15:09.000Z</time>
      </trkpt>
      <trkpt lat="42.39234440959990024566650390625" lon="0.1877849735319614410400390625">
        <ele>548.20001220703125</ele>
        <time>2020-08-16T07:15:15.000Z</time>
      </trkpt>
      <trkpt lat="42.39230182953178882598876953125" lon="0.18770358525216579437255859375">
        <ele>548.5999755859375</ele>
        <time>2020-08-16T07:15:18.000Z</time>
      </trkpt>
      <trkpt lat="42.39219672046601772308349609375" lon="0.187528319656848907470703125">
        <ele>549.79998779296875</ele>
        <time>2020-08-16T07:15:25.000Z</time>
      </trkpt>
      <trkpt lat="42.39209446124732494354248046875" lon="0.187344253063201904296875">
        <ele>551</ele>
        <time>2020-08-16T07:15:32.000Z</time>
      </trkpt>
      <trkpt lat="42.392064034938812255859375" lon="0.187290944159030914306640625">
        <ele>551.20001220703125</ele>
        <time>2020-08-16T07:15:34.000Z</time>
      </trkpt>
      <trkpt lat="42.3920005001127719879150390625" lon="0.1871908642351627349853515625">
        <ele>552.20001220703125</ele>
        <time>2020-08-16T07:15:38.000Z</time>
      </trkpt>
      <trkpt lat="42.391910143196582794189453125" lon="0.18703521229326725006103515625">
        <ele>552.79998779296875</ele>
        <time>2020-08-16T07:15:44.000Z</time>
      </trkpt>
      <trkpt lat="42.39186194725334644317626953125" lon="0.1869605295360088348388671875">
        <ele>553.20001220703125</ele>
        <time>2020-08-16T07:15:47.000Z</time>
      </trkpt>
      <trkpt lat="42.39178768359124660491943359375" lon="0.18683270551264286041259765625">
        <ele>554.20001220703125</ele>
        <time>2020-08-16T07:15:52.000Z</time>
      </trkpt>
      <trkpt lat="42.39172398112714290618896484375" lon="0.1867369003593921661376953125">
        <ele>554.5999755859375</ele>
        <time>2020-08-16T07:15:56.000Z</time>
      </trkpt>
      <trkpt lat="42.39163865335285663604736328125" lon="0.18658108077943325042724609375">
        <ele>555.20001220703125</ele>
        <time>2020-08-16T07:16:02.000Z</time>
      </trkpt>
      <trkpt lat="42.39160847850143909454345703125" lon="0.18652844242751598358154296875">
        <ele>555.4000244140625</ele>
        <time>2020-08-16T07:16:04.000Z</time>
      </trkpt>
      <trkpt lat="42.3914994299411773681640625" lon="0.18634990788996219635009765625">
        <ele>556.4000244140625</ele>
        <time>2020-08-16T07:16:11.000Z</time>
      </trkpt>
      <trkpt lat="42.391468584537506103515625" lon="0.186295844614505767822265625">
        <ele>556.79998779296875</ele>
        <time>2020-08-16T07:16:13.000Z</time>
      </trkpt>
      <trkpt lat="42.39135853014886379241943359375" lon="0.1861099340021610260009765625">
        <ele>557.4000244140625</ele>
        <time>2020-08-16T07:16:20.000Z</time>
      </trkpt>
      <trkpt lat="42.3913259245455265045166015625" lon="0.1860552839934825897216796875">
        <ele>557.79998779296875</ele>
        <time>2020-08-16T07:16:22.000Z</time>
      </trkpt>
      <trkpt lat="42.39119525067508220672607421875" lon="0.1858390308916568756103515625">
        <ele>558.5999755859375</ele>
        <time>2020-08-16T07:16:30.000Z</time>
      </trkpt>
      <trkpt lat="42.3911453783512115478515625" lon="0.1857558824121952056884765625">
        <ele>559</ele>
        <time>2020-08-16T07:16:33.000Z</time>
      </trkpt>
      <trkpt lat="42.39100883714854717254638671875" lon="0.185534097254276275634765625">
        <ele>559.5999755859375</ele>
        <time>2020-08-16T07:16:41.000Z</time>
      </trkpt>
      <trkpt lat="42.3909916542470455169677734375" lon="0.185505263507366180419921875">
        <ele>559.5999755859375</ele>
        <time>2020-08-16T07:16:42.000Z</time>
      </trkpt>
      <trkpt lat="42.39083147607743740081787109375" lon="0.18524433486163616180419921875">
        <ele>560.4000244140625</ele>
        <time>2020-08-16T07:16:51.000Z</time>
      </trkpt>
      <trkpt lat="42.390776909887790679931640625" lon="0.18515381030738353729248046875">
        <ele>560.79998779296875</ele>
        <time>2020-08-16T07:16:54.000Z</time>
      </trkpt>
      <trkpt lat="42.39064673893153667449951171875" lon="0.184942670166492462158203125">
        <ele>561.20001220703125</ele>
        <time>2020-08-16T07:17:01.000Z</time>
      </trkpt>
      <trkpt lat="42.39048530347645282745361328125" lon="0.18466045148670673370361328125">
        <ele>561.79998779296875</ele>
        <time>2020-08-16T07:17:10.000Z</time>
      </trkpt>
      <trkpt lat="42.39046736620366573333740234375" lon="0.18462927080690860748291015625">
        <ele>561.79998779296875</ele>
        <time>2020-08-16T07:17:11.000Z</time>
      </trkpt>
      <trkpt lat="42.39028816111385822296142578125" lon="0.1842561922967433929443359375">
        <ele>562.20001220703125</ele>
        <time>2020-08-16T07:17:22.000Z</time>
      </trkpt>
      <trkpt lat="42.3901370353996753692626953125" lon="0.18381941132247447967529296875">
        <ele>563</ele>
        <time>2020-08-16T07:17:34.000Z</time>
      </trkpt>
      <trkpt lat="42.39012555219233036041259765625" lon="0.183781273663043975830078125">
        <ele>562.79998779296875</ele>
        <time>2020-08-16T07:17:35.000Z</time>
      </trkpt>
      <trkpt lat="42.39005229435861110687255859375" lon="0.1834786869585514068603515625">
        <ele>563.5999755859375</ele>
        <time>2020-08-16T07:17:43.000Z</time>
      </trkpt>
      <trkpt lat="42.39000267349183559417724609375" lon="0.18312538973987102508544921875">
        <ele>564</ele>
        <time>2020-08-16T07:17:52.000Z</time>
      </trkpt>
      <trkpt lat="42.3899955488741397857666015625" lon="0.18304400146007537841796875">
        <ele>564</ele>
        <time>2020-08-16T07:17:54.000Z</time>
      </trkpt>
      <trkpt lat="42.38997685723006725311279296875" lon="0.18272356130182743072509765625">
        <ele>564.4000244140625</ele>
        <time>2020-08-16T07:18:02.000Z</time>
      </trkpt>
      <trkpt lat="42.38999848254024982452392578125" lon="0.18226683139801025390625">
        <ele>564.79998779296875</ele>
        <time>2020-08-16T07:18:14.000Z</time>
      </trkpt>
      <trkpt lat="42.39001021720468997955322265625" lon="0.18210589885711669921875">
        <ele>565</ele>
        <time>2020-08-16T07:18:18.000Z</time>
      </trkpt>
      <trkpt lat="42.3900357820093631744384765625" lon="0.1819062419235706329345703125">
        <ele>565.20001220703125</ele>
        <time>2020-08-16T07:18:23.000Z</time>
      </trkpt>
      <trkpt lat="42.3901145718991756439208984375" lon="0.18149443902075290679931640625">
        <ele>565.79998779296875</ele>
        <time>2020-08-16T07:18:33.000Z</time>
      </trkpt>
      <trkpt lat="42.3902074433863162994384765625" lon="0.18116109073162078857421875">
        <ele>566.20001220703125</ele>
        <time>2020-08-16T07:18:41.000Z</time>
      </trkpt>
      <trkpt lat="42.3902346007525920867919921875" lon="0.1810799539089202880859375">
        <ele>566.4000244140625</ele>
        <time>2020-08-16T07:18:43.000Z</time>
      </trkpt>
      <trkpt lat="42.39041321910917758941650390625" lon="0.18065339885652065277099609375">
        <ele>566.5999755859375</ele>
        <time>2020-08-16T07:18:54.000Z</time>
      </trkpt>
      <trkpt lat="42.39052754826843738555908203125" lon="0.1804430969059467315673828125">
        <ele>567.20001220703125</ele>
        <time>2020-08-16T07:19:00.000Z</time>
      </trkpt>
      <trkpt lat="42.3905874788761138916015625" lon="0.18033723346889019012451171875">
        <ele>567.4000244140625</ele>
        <time>2020-08-16T07:19:03.000Z</time>
      </trkpt>
      <trkpt lat="42.39081236533820629119873046875" lon="0.18001369200646877288818359375">
        <ele>567.79998779296875</ele>
        <time>2020-08-16T07:19:13.000Z</time>
      </trkpt>
      <trkpt lat="42.3910261876881122589111328125" lon="0.17975670285522937774658203125">
        <ele>568</ele>
        <time>2020-08-16T07:19:22.000Z</time>
      </trkpt>
      <trkpt lat="42.3910764791071414947509765625" lon="0.17970263957977294921875">
        <ele>568.20001220703125</ele>
        <time>2020-08-16T07:19:24.000Z</time>
      </trkpt>
      <trkpt lat="42.3913296125829219818115234375" lon="0.179432742297649383544921875">
        <ele>568.79998779296875</ele>
        <time>2020-08-16T07:19:34.000Z</time>
      </trkpt>
      <trkpt lat="42.39155030809342861175537109375" lon="0.17916259355843067169189453125">
        <ele>569.4000244140625</ele>
        <time>2020-08-16T07:19:43.000Z</time>
      </trkpt>
      <trkpt lat="42.39157520234584808349609375" lon="0.17913292162120342254638671875">
        <ele>569.4000244140625</ele>
        <time>2020-08-16T07:19:44.000Z</time>
      </trkpt>
      <trkpt lat="42.39187887869775295257568359375" lon="0.1787868328392505645751953125">
        <ele>570.20001220703125</ele>
        <time>2020-08-16T07:19:56.000Z</time>
      </trkpt>
      <trkpt lat="42.3921433277428150177001953125" lon="0.1785055361688137054443359375">
        <ele>570.5999755859375</ele>
        <time>2020-08-16T07:20:06.000Z</time>
      </trkpt>
      <trkpt lat="42.39217056892812252044677734375" lon="0.1784783788025379180908203125">
        <ele>570.5999755859375</ele>
        <time>2020-08-16T07:20:07.000Z</time>
      </trkpt>
      <trkpt lat="42.39254691638052463531494140625" lon="0.1780879497528076171875">
        <ele>571.20001220703125</ele>
        <time>2020-08-16T07:20:21.000Z</time>
      </trkpt>
      <trkpt lat="42.39271036349236965179443359375" lon="0.17791586928069591522216796875">
        <ele>571.5999755859375</ele>
        <time>2020-08-16T07:20:27.000Z</time>
      </trkpt>
      <trkpt lat="42.39281882531940937042236328125" lon="0.17780187539756298065185546875">
        <ele>571.5999755859375</ele>
        <time>2020-08-16T07:20:31.000Z</time>
      </trkpt>
      <trkpt lat="42.3931659199297428131103515625" lon="0.17743575386703014373779296875">
        <ele>572.5999755859375</ele>
        <time>2020-08-16T07:20:44.000Z</time>
      </trkpt>
      <trkpt lat="42.3933764733374118804931640625" lon="0.1772009767591953277587890625">
        <ele>572.79998779296875</ele>
        <time>2020-08-16T07:20:52.000Z</time>
      </trkpt>
      <trkpt lat="42.39367277361452579498291015625" lon="0.176890678703784942626953125">
        <ele>573.20001220703125</ele>
        <time>2020-08-16T07:21:03.000Z</time>
      </trkpt>
      <trkpt lat="42.39393554627895355224609375" lon="0.17660561017692089080810546875">
        <ele>573.4000244140625</ele>
        <time>2020-08-16T07:21:13.000Z</time>
      </trkpt>
      <trkpt lat="42.39404224790632724761962890625" lon="0.17649178393185138702392578125">
        <ele>573.79998779296875</ele>
        <time>2020-08-16T07:21:17.000Z</time>
      </trkpt>
      <trkpt lat="42.39423788152635097503662109375" lon="0.176286511123180389404296875">
        <ele>574</ele>
        <time>2020-08-16T07:21:24.000Z</time>
      </trkpt>
      <trkpt lat="42.39455253817141056060791015625" lon="0.17595383338630199432373046875">
        <ele>574.79998779296875</ele>
        <time>2020-08-16T07:21:35.000Z</time>
      </trkpt>
      <trkpt lat="42.3948979564011096954345703125" lon="0.17558905296027660369873046875">
        <ele>575.20001220703125</ele>
        <time>2020-08-16T07:21:47.000Z</time>
      </trkpt>
      <trkpt lat="42.39492536522448062896728515625" lon="0.175558626651763916015625">
        <ele>575.20001220703125</ele>
        <time>2020-08-16T07:21:48.000Z</time>
      </trkpt>
      <trkpt lat="42.3952332325279712677001953125" lon="0.17523416317999362945556640625">
        <ele>575.20001220703125</ele>
        <time>2020-08-16T07:21:59.000Z</time>
      </trkpt>
      <trkpt lat="42.39551092498004436492919921875" lon="0.17493576742708683013916015625">
        <ele>575.5999755859375</ele>
        <time>2020-08-16T07:22:09.000Z</time>
      </trkpt>
      <trkpt lat="42.39581979811191558837890625" lon="0.17460065893828868865966796875">
        <ele>576</ele>
        <time>2020-08-16T07:22:20.000Z</time>
      </trkpt>
      <trkpt lat="42.3961317725479602813720703125" lon="0.17427996732294559478759765625">
        <ele>575.79998779296875</ele>
        <time>2020-08-16T07:22:31.000Z</time>
      </trkpt>
      <trkpt lat="42.39638364873826503753662109375" lon="0.1740024425089359283447265625">
        <ele>576.20001220703125</ele>
        <time>2020-08-16T07:22:40.000Z</time>
      </trkpt>
      <trkpt lat="42.3964134044945240020751953125" lon="0.17397201620042324066162109375">
        <ele>576.20001220703125</ele>
        <time>2020-08-16T07:22:41.000Z</time>
      </trkpt>
      <trkpt lat="42.39668237976729869842529296875" lon="0.17369340173900127410888671875">
        <ele>576.20001220703125</ele>
        <time>2020-08-16T07:22:50.000Z</time>
      </trkpt>
      <trkpt lat="42.39694691263139247894287109375" lon="0.1734016276895999908447265625">
        <ele>576.79998779296875</ele>
        <time>2020-08-16T07:22:59.000Z</time>
      </trkpt>
      <trkpt lat="42.3972462303936481475830078125" lon="0.17309225164353847503662109375">
        <ele>576.79998779296875</ele>
        <time>2020-08-16T07:23:09.000Z</time>
      </trkpt>
      <trkpt lat="42.39754504524171352386474609375" lon="0.17277139239013195037841796875">
        <ele>577.20001220703125</ele>
        <time>2020-08-16T07:23:19.000Z</time>
      </trkpt>
      <trkpt lat="42.39788484759628772735595703125" lon="0.17240191809833049774169921875">
        <ele>577</ele>
        <time>2020-08-16T07:23:30.000Z</time>
      </trkpt>
      <trkpt lat="42.3981628753244876861572265625" lon="0.1721004210412502288818359375">
        <ele>577.20001220703125</ele>
        <time>2020-08-16T07:23:39.000Z</time>
      </trkpt>
      <trkpt lat="42.39845062606036663055419921875" lon="0.17179607413709163665771484375">
        <ele>576.5999755859375</ele>
        <time>2020-08-16T07:23:48.000Z</time>
      </trkpt>
      <trkpt lat="42.39878875203430652618408203125" lon="0.17143984325230121612548828125">
        <ele>576.4000244140625</ele>
        <time>2020-08-16T07:23:58.000Z</time>
      </trkpt>
      <trkpt lat="42.39906015805900096893310546875" lon="0.17115066759288311004638671875">
        <ele>576.20001220703125</ele>
        <time>2020-08-16T07:24:07.000Z</time>
      </trkpt>
      <trkpt lat="42.39928713999688625335693359375" lon="0.17091161571443080902099609375">
        <ele>576.4000244140625</ele>
        <time>2020-08-16T07:24:15.000Z</time>
      </trkpt>
      <trkpt lat="42.39958905614912509918212890625" lon="0.1705817878246307373046875">
        <ele>576.4000244140625</ele>
        <time>2020-08-16T07:24:25.000Z</time>
      </trkpt>
      <trkpt lat="42.39995400421321392059326171875" lon="0.17019580118358135223388671875">
        <ele>576.4000244140625</ele>
        <time>2020-08-16T07:24:37.000Z</time>
      </trkpt>
      <trkpt lat="42.40025340579450130462646484375" lon="0.16988298855721950531005859375">
        <ele>576.5999755859375</ele>
        <time>2020-08-16T07:24:47.000Z</time>
      </trkpt>
      <trkpt lat="42.40057644434273242950439453125" lon="0.16953505575656890869140625">
        <ele>576.79998779296875</ele>
        <time>2020-08-16T07:24:58.000Z</time>
      </trkpt>
      <trkpt lat="42.40089512430131435394287109375" lon="0.169192738831043243408203125">
        <ele>576.79998779296875</ele>
        <time>2020-08-16T07:25:09.000Z</time>
      </trkpt>
      <trkpt lat="42.40114867687225341796875" lon="0.16892074607312679290771484375">
        <ele>577.4000244140625</ele>
        <time>2020-08-16T07:25:18.000Z</time>
      </trkpt>
      <trkpt lat="42.401442043483257293701171875" lon="0.16860977746546268463134765625">
        <ele>577.4000244140625</ele>
        <time>2020-08-16T07:25:29.000Z</time>
      </trkpt>
      <trkpt lat="42.40165050141513347625732421875" lon="0.16838698647916316986083984375">
        <ele>577.79998779296875</ele>
        <time>2020-08-16T07:25:37.000Z</time>
      </trkpt>
      <trkpt lat="42.40191553719341754913330078125" lon="0.1681153289973735809326171875">
        <ele>578</ele>
        <time>2020-08-16T07:25:47.000Z</time>
      </trkpt>
      <trkpt lat="42.40214955992996692657470703125" lon="0.167856998741626739501953125">
        <ele>578.20001220703125</ele>
        <time>2020-08-16T07:25:56.000Z</time>
      </trkpt>
      <trkpt lat="42.40236598066985607147216796875" lon="0.16763647086918354034423828125">
        <ele>578.5999755859375</ele>
        <time>2020-08-16T07:26:04.000Z</time>
      </trkpt>
      <trkpt lat="42.402467988431453704833984375" lon="0.16752113588154315948486328125">
        <ele>578.79998779296875</ele>
        <time>2020-08-16T07:26:08.000Z</time>
      </trkpt>
      <trkpt lat="42.40262565203011035919189453125" lon="0.1673579402267932891845703125">
        <ele>579.20001220703125</ele>
        <time>2020-08-16T07:26:14.000Z</time>
      </trkpt>
      <trkpt lat="42.40285799838602542877197265625" lon="0.16710857860743999481201171875">
        <ele>579.79998779296875</ele>
        <time>2020-08-16T07:26:23.000Z</time>
      </trkpt>
      <trkpt lat="42.40314424037933349609375" lon="0.16680213622748851776123046875">
        <ele>580.4000244140625</ele>
        <time>2020-08-16T07:26:34.000Z</time>
      </trkpt>
      <trkpt lat="42.403418831527233123779296875" lon="0.16651488840579986572265625">
        <ele>580.79998779296875</ele>
        <time>2020-08-16T07:26:44.000Z</time>
      </trkpt>
      <trkpt lat="42.40368730388581752777099609375" lon="0.1662258803844451904296875">
        <ele>580.79998779296875</ele>
        <time>2020-08-16T07:26:54.000Z</time>
      </trkpt>
      <trkpt lat="42.40398435853421688079833984375" lon="0.165902674198150634765625">
        <ele>580.5999755859375</ele>
        <time>2020-08-16T07:27:04.000Z</time>
      </trkpt>
      <trkpt lat="42.40422491915524005889892578125" lon="0.1656399853527545928955078125">
        <ele>580</ele>
        <time>2020-08-16T07:27:12.000Z</time>
      </trkpt>
      <trkpt lat="42.404511831700801849365234375" lon="0.16533563844859600067138671875">
        <ele>579.4000244140625</ele>
        <time>2020-08-16T07:27:21.000Z</time>
      </trkpt>
      <trkpt lat="42.404616437852382659912109375" lon="0.1652182079851627349853515625">
        <ele>579</ele>
        <time>2020-08-16T07:27:24.000Z</time>
      </trkpt>
      <trkpt lat="42.4048352055251598358154296875" lon="0.1649808324873447418212890625">
        <ele>578</ele>
        <time>2020-08-16T07:27:30.000Z</time>
      </trkpt>
      <trkpt lat="42.40487250499427318572998046875" lon="0.1649379171431064605712890625">
        <ele>578</ele>
        <time>2020-08-16T07:27:31.000Z</time>
      </trkpt>
      <trkpt lat="42.4051386304199695587158203125" lon="0.16460356302559375762939453125">
        <ele>577.20001220703125</ele>
        <time>2020-08-16T07:27:38.000Z</time>
      </trkpt>
      <trkpt lat="42.4052833020687103271484375" lon="0.16436484642326831817626953125">
        <ele>576</ele>
        <time>2020-08-16T07:27:42.000Z</time>
      </trkpt>
      <trkpt lat="42.40538748912513256072998046875" lon="0.1641557179391384124755859375">
        <ele>575</ele>
        <time>2020-08-16T07:27:45.000Z</time>
      </trkpt>
      <trkpt lat="42.4054226092994213104248046875" lon="0.16408086754381656646728515625">
        <ele>574.79998779296875</ele>
        <time>2020-08-16T07:27:46.000Z</time>
      </trkpt>
      <trkpt lat="42.40555680356919765472412109375" lon="0.1637463457882404327392578125">
        <ele>573.5999755859375</ele>
        <time>2020-08-16T07:27:50.000Z</time>
      </trkpt>
      <trkpt lat="42.40558831952512264251708984375" lon="0.163654647767543792724609375">
        <ele>573</ele>
        <time>2020-08-16T07:27:51.000Z</time>
      </trkpt>
      <trkpt lat="42.40564749576151371002197265625" lon="0.16346521675586700439453125">
        <ele>572.4000244140625</ele>
        <time>2020-08-16T07:27:53.000Z</time>
      </trkpt>
      <trkpt lat="42.4057607352733612060546875" lon="0.16296087764203548431396484375">
        <ele>571.20001220703125</ele>
        <time>2020-08-16T07:27:58.000Z</time>
      </trkpt>
      <trkpt lat="42.405786216259002685546875" lon="0.1627488993108272552490234375">
        <ele>570.20001220703125</ele>
        <time>2020-08-16T07:28:00.000Z</time>
      </trkpt>
      <trkpt lat="42.40582334809005260467529296875" lon="0.162426866590976715087890625">
        <ele>569</ele>
        <time>2020-08-16T07:28:03.000Z</time>
      </trkpt>
      <trkpt lat="42.405862323939800262451171875" lon="0.1619941927492618560791015625">
        <ele>567.79998779296875</ele>
        <time>2020-08-16T07:28:07.000Z</time>
      </trkpt>
      <trkpt lat="42.40589962340891361236572265625" lon="0.161575265228748321533203125">
        <ele>566.5999755859375</ele>
        <time>2020-08-16T07:28:11.000Z</time>
      </trkpt>
      <trkpt lat="42.40594555623829364776611328125" lon="0.161077044904232025146484375">
        <ele>565.5999755859375</ele>
        <time>2020-08-16T07:28:16.000Z</time>
      </trkpt>
      <trkpt lat="42.40600976161658763885498046875" lon="0.16050045378506183624267578125">
        <ele>564.5999755859375</ele>
        <time>2020-08-16T07:28:22.000Z</time>
      </trkpt>
      <trkpt lat="42.40605133585631847381591796875" lon="0.1602150499820709228515625">
        <ele>563.79998779296875</ele>
        <time>2020-08-16T07:28:25.000Z</time>
      </trkpt>
      <trkpt lat="42.4060894735157489776611328125" lon="0.1600254513323307037353515625">
        <ele>563.4000244140625</ele>
        <time>2020-08-16T07:28:27.000Z</time>
      </trkpt>
      <trkpt lat="42.40617907606065273284912109375" lon="0.15963829122483730316162109375">
        <ele>562</ele>
        <time>2020-08-16T07:28:31.000Z</time>
      </trkpt>
      <trkpt lat="42.40625719539821147918701171875" lon="0.159341655671596527099609375">
        <ele>561.20001220703125</ele>
        <time>2020-08-16T07:28:34.000Z</time>
      </trkpt>
      <trkpt lat="42.40628636442124843597412109375" lon="0.15924182720482349395751953125">
        <ele>560.79998779296875</ele>
        <time>2020-08-16T07:28:35.000Z</time>
      </trkpt>
      <trkpt lat="42.40634889341890811920166015625" lon="0.15904183499515056610107421875">
        <ele>559.5999755859375</ele>
        <time>2020-08-16T07:28:37.000Z</time>
      </trkpt>
      <trkpt lat="42.40645735524594783782958984375" lon="0.1587371528148651123046875">
        <ele>558.5999755859375</ele>
        <time>2020-08-16T07:28:40.000Z</time>
      </trkpt>
      <trkpt lat="42.40649976767599582672119140625" lon="0.158636569976806640625">
        <ele>558.20001220703125</ele>
        <time>2020-08-16T07:28:41.000Z</time>
      </trkpt>
      <trkpt lat="42.40654452703893184661865234375" lon="0.15853506512939929962158203125">
        <ele>557.5999755859375</ele>
        <time>2020-08-16T07:28:42.000Z</time>
      </trkpt>
      <trkpt lat="42.4066378176212310791015625" lon="0.15832610428333282470703125">
        <ele>556.4000244140625</ele>
        <time>2020-08-16T07:28:44.000Z</time>
      </trkpt>
      <trkpt lat="42.40674309432506561279296875" lon="0.15811865217983722686767578125">
        <ele>555.20001220703125</ele>
        <time>2020-08-16T07:28:46.000Z</time>
      </trkpt>
      <trkpt lat="42.40685717202723026275634765625" lon="0.1579075120389461517333984375">
        <ele>553.79998779296875</ele>
        <time>2020-08-16T07:28:48.000Z</time>
      </trkpt>
      <trkpt lat="42.40697904489934444427490234375" lon="0.1576937735080718994140625">
        <ele>552.4000244140625</ele>
        <time>2020-08-16T07:28:50.000Z</time>
      </trkpt>
      <trkpt lat="42.40710879676043987274169921875" lon="0.1574765145778656005859375">
        <ele>550.5999755859375</ele>
        <time>2020-08-16T07:28:52.000Z</time>
      </trkpt>
      <trkpt lat="42.4072448350489139556884765625" lon="0.157255567610263824462890625">
        <ele>549.20001220703125</ele>
        <time>2020-08-16T07:28:54.000Z</time>
      </trkpt>
      <trkpt lat="42.40731465630233287811279296875" lon="0.15714065171778202056884765625">
        <ele>548.20001220703125</ele>
        <time>2020-08-16T07:28:55.000Z</time>
      </trkpt>
      <trkpt lat="42.40738590247929096221923828125" lon="0.15702380798757076263427734375">
        <ele>547.20001220703125</ele>
        <time>2020-08-16T07:28:56.000Z</time>
      </trkpt>
      <trkpt lat="42.40753191523253917694091796875" lon="0.15678492374718189239501953125">
        <ele>545</ele>
        <time>2020-08-16T07:28:58.000Z</time>
      </trkpt>
      <trkpt lat="42.407680191099643707275390625" lon="0.15653698705136775970458984375">
        <ele>543.20001220703125</ele>
        <time>2020-08-16T07:29:00.000Z</time>
      </trkpt>
      <trkpt lat="42.40782863460481166839599609375" lon="0.1562837697565555572509765625">
        <ele>541.4000244140625</ele>
        <time>2020-08-16T07:29:02.000Z</time>
      </trkpt>
      <trkpt lat="42.4079036526381969451904296875" lon="0.15615862794220447540283203125">
        <ele>540.4000244140625</ele>
        <time>2020-08-16T07:29:03.000Z</time>
      </trkpt>
      <trkpt lat="42.4079784192144870758056640625" lon="0.15603407286107540130615234375">
        <ele>539.4000244140625</ele>
        <time>2020-08-16T07:29:04.000Z</time>
      </trkpt>
      <trkpt lat="42.40812602452933788299560546875" lon="0.15578697435557842254638671875">
        <ele>537.5999755859375</ele>
        <time>2020-08-16T07:29:06.000Z</time>
      </trkpt>
      <trkpt lat="42.4082680977880954742431640625" lon="0.155545659363269805908203125">
        <ele>535.79998779296875</ele>
        <time>2020-08-16T07:29:08.000Z</time>
      </trkpt>
      <trkpt lat="42.40840564481914043426513671875" lon="0.15531172044575214385986328125">
        <ele>534.5999755859375</ele>
        <time>2020-08-16T07:29:10.000Z</time>
      </trkpt>
      <trkpt lat="42.40854059346020221710205078125" lon="0.1550866663455963134765625">
        <ele>533.4000244140625</ele>
        <time>2020-08-16T07:29:12.000Z</time>
      </trkpt>
      <trkpt lat="42.4086731113493442535400390625" lon="0.15487133525311946868896484375">
        <ele>532.4000244140625</ele>
        <time>2020-08-16T07:29:14.000Z</time>
      </trkpt>
      <trkpt lat="42.40886312909424304962158203125" lon="0.154562629759311676025390625">
        <ele>531</ele>
        <time>2020-08-16T07:29:17.000Z</time>
      </trkpt>
      <trkpt lat="42.408984415233135223388671875" lon="0.15436892397701740264892578125">
        <ele>530.4000244140625</ele>
        <time>2020-08-16T07:29:19.000Z</time>
      </trkpt>
      <trkpt lat="42.40909849293529987335205078125" lon="0.15418133698403835296630859375">
        <ele>529.79998779296875</ele>
        <time>2020-08-16T07:29:21.000Z</time>
      </trkpt>
      <trkpt lat="42.40935447625815868377685546875" lon="0.15375268645584583282470703125">
        <ele>529</ele>
        <time>2020-08-16T07:29:26.000Z</time>
      </trkpt>
      <trkpt lat="42.409401498734951019287109375" lon="0.15367473475635051727294921875">
        <ele>528.79998779296875</ele>
        <time>2020-08-16T07:29:27.000Z</time>
      </trkpt>
      <trkpt lat="42.40965664386749267578125" lon="0.15326485969126224517822265625">
        <ele>528.5999755859375</ele>
        <time>2020-08-16T07:29:33.000Z</time>
      </trkpt>
      <trkpt lat="42.40988530218601226806640625" lon="0.15286973677575588226318359375">
        <ele>528.5999755859375</ele>
        <time>2020-08-16T07:29:40.000Z</time>
      </trkpt>
      <trkpt lat="42.41013340651988983154296875" lon="0.15246841125190258026123046875">
        <ele>528.5999755859375</ele>
        <time>2020-08-16T07:29:49.000Z</time>
      </trkpt>
      <trkpt lat="42.4102804251015186309814453125" lon="0.152247212827205657958984375">
        <ele>528.5999755859375</ele>
        <time>2020-08-16T07:29:55.000Z</time>
      </trkpt>
      <trkpt lat="42.41047379560768604278564453125" lon="0.152066834270954132080078125">
        <ele>528.79998779296875</ele>
        <time>2020-08-16T07:30:02.000Z</time>
      </trkpt>
      <trkpt lat="42.41052945144474506378173828125" lon="0.1518846116960048675537109375">
        <ele>529</ele>
        <time>2020-08-16T07:30:07.000Z</time>
      </trkpt>
      <trkpt lat="42.41062182001769542694091796875" lon="0.1515969447791576385498046875">
        <ele>528.5999755859375</ele>
        <time>2020-08-16T07:30:14.000Z</time>
      </trkpt>
      <trkpt lat="42.41085886023938655853271484375" lon="0.1512231118977069854736328125">
        <ele>529</ele>
        <time>2020-08-16T07:30:24.000Z</time>
      </trkpt>
      <trkpt lat="42.41107888519763946533203125" lon="0.15085724182426929473876953125">
        <ele>529.20001220703125</ele>
        <time>2020-08-16T07:30:34.000Z</time>
      </trkpt>
      <trkpt lat="42.41131382994353771209716796875" lon="0.15049061737954616546630859375">
        <ele>529</ele>
        <time>2020-08-16T07:30:44.000Z</time>
      </trkpt>
      <trkpt lat="42.41158121265470981597900390625" lon="0.15017277561128139495849609375">
        <ele>529.4000244140625</ele>
        <time>2020-08-16T07:30:54.000Z</time>
      </trkpt>
      <trkpt lat="42.4120010621845722198486328125" lon="0.14979558996856212615966796875">
        <ele>530</ele>
        <time>2020-08-16T07:31:08.000Z</time>
      </trkpt>
      <trkpt lat="42.4120654352009296417236328125" lon="0.14975250698626041412353515625">
        <ele>530</ele>
        <time>2020-08-16T07:31:10.000Z</time>
      </trkpt>
      <trkpt lat="42.4122919142246246337890625" lon="0.1495906524360179901123046875">
        <ele>530.20001220703125</ele>
        <time>2020-08-16T07:31:17.000Z</time>
      </trkpt>
      <trkpt lat="42.41254295222461223602294921875" lon="0.14940717257559299468994140625">
        <ele>530.5999755859375</ele>
        <time>2020-08-16T07:31:25.000Z</time>
      </trkpt>
      <trkpt lat="42.41272869519889354705810546875" lon="0.14927574433386325836181640625">
        <ele>530.5999755859375</ele>
        <time>2020-08-16T07:31:31.000Z</time>
      </trkpt>
      <trkpt lat="42.41304519586265087127685546875" lon="0.14904255978763103485107421875">
        <ele>531.20001220703125</ele>
        <time>2020-08-16T07:31:41.000Z</time>
      </trkpt>
      <trkpt lat="42.41333520971238613128662109375" lon="0.1488344371318817138671875">
        <ele>531.5999755859375</ele>
        <time>2020-08-16T07:31:50.000Z</time>
      </trkpt>
      <trkpt lat="42.41362706758081912994384765625" lon="0.14861960895359516143798828125">
        <ele>531.79998779296875</ele>
        <time>2020-08-16T07:31:59.000Z</time>
      </trkpt>
      <trkpt lat="42.41393082775175571441650390625" lon="0.1484145037829875946044921875">
        <ele>532</ele>
        <time>2020-08-16T07:32:08.000Z</time>
      </trkpt>
      <trkpt lat="42.41426979191601276397705078125" lon="0.148180983960628509521484375">
        <ele>532.20001220703125</ele>
        <time>2020-08-16T07:32:18.000Z</time>
      </trkpt>
      <trkpt lat="42.4145800061523914337158203125" lon="0.1479568518698215484619140625">
        <ele>532.20001220703125</ele>
        <time>2020-08-16T07:32:27.000Z</time>
      </trkpt>
      <trkpt lat="42.41488234139978885650634765625" lon="0.14775526709854602813720703125">
        <ele>532.4000244140625</ele>
        <time>2020-08-16T07:32:36.000Z</time>
      </trkpt>
      <trkpt lat="42.41511234082281589508056640625" lon="0.14757539145648479461669921875">
        <ele>532.5999755859375</ele>
        <time>2020-08-16T07:32:44.000Z</time>
      </trkpt>
      <trkpt lat="42.41535323671996593475341796875" lon="0.1473634131252765655517578125">
        <ele>532.20001220703125</ele>
        <time>2020-08-16T07:32:52.000Z</time>
      </trkpt>
      <trkpt lat="42.41547645069658756256103515625" lon="0.14716006815433502197265625">
        <ele>531.5999755859375</ele>
        <time>2020-08-16T07:32:56.000Z</time>
      </trkpt>
      <trkpt lat="42.41550142876803874969482421875" lon="0.14709712006151676177978515625">
        <ele>531.4000244140625</ele>
        <time>2020-08-16T07:32:57.000Z</time>
      </trkpt>
      <trkpt lat="42.41552221588790416717529296875" lon="0.1470284722745418548583984375">
        <ele>531.20001220703125</ele>
        <time>2020-08-16T07:32:58.000Z</time>
      </trkpt>
      <trkpt lat="42.4155492894351482391357421875" lon="0.146793611347675323486328125">
        <ele>530.20001220703125</ele>
        <time>2020-08-16T07:33:01.000Z</time>
      </trkpt>
      <trkpt lat="42.41555188782513141632080078125" lon="0.1467123068869113922119140625">
        <ele>530</ele>
        <time>2020-08-16T07:33:02.000Z</time>
      </trkpt>
      <trkpt lat="42.415544427931308746337890625" lon="0.14654986560344696044921875">
        <ele>529.5999755859375</ele>
        <time>2020-08-16T07:33:04.000Z</time>
      </trkpt>
      <trkpt lat="42.4155258201062679290771484375" lon="0.14639220200479030609130859375">
        <ele>529.20001220703125</ele>
        <time>2020-08-16T07:33:06.000Z</time>
      </trkpt>
      <trkpt lat="42.41550779901444911956787109375" lon="0.14624015428125858306884765625">
        <ele>529</ele>
        <time>2020-08-16T07:33:08.000Z</time>
      </trkpt>
      <trkpt lat="42.4154676496982574462890625" lon="0.14590479433536529541015625">
        <ele>529</ele>
        <time>2020-08-16T07:33:13.000Z</time>
      </trkpt>
      <trkpt lat="42.41540252231061458587646484375" lon="0.14551947824656963348388671875">
        <ele>529.79998779296875</ele>
        <time>2020-08-16T07:33:21.000Z</time>
      </trkpt>
      <trkpt lat="42.4153846688568592071533203125" lon="0.1453487388789653778076171875">
        <ele>530.20001220703125</ele>
        <time>2020-08-16T07:33:26.000Z</time>
      </trkpt>
      <trkpt lat="42.4153883568942546844482421875" lon="0.14531630091369152069091796875">
        <ele>530.20001220703125</ele>
        <time>2020-08-16T07:33:27.000Z</time>
      </trkpt>
      <trkpt lat="42.41539129056036472320556640625" lon="0.145286880433559417724609375">
        <ele>530.20001220703125</ele>
        <time>2020-08-16T07:33:30.000Z</time>
      </trkpt>
      <trkpt lat="42.415347285568714141845703125" lon="0.14532434754073619842529296875">
        <ele>530.4000244140625</ele>
        <time>2020-08-16T08:07:37.000Z</time>
      </trkpt>
      <trkpt lat="42.415369413793087005615234375" lon="0.14520901255309581756591796875">
        <ele>530.5999755859375</ele>
        <time>2020-08-16T08:07:43.000Z</time>
      </trkpt>
      <trkpt lat="42.41536547429859638214111328125" lon="0.145180262625217437744140625">
        <ele>530.5999755859375</ele>
        <time>2020-08-16T08:07:44.000Z</time>
      </trkpt>
      <trkpt lat="42.415342591702938079833984375" lon="0.14496266841888427734375">
        <ele>531.20001220703125</ele>
        <time>2020-08-16T08:07:51.000Z</time>
      </trkpt>
      <trkpt lat="42.4153162725269794464111328125" lon="0.14470375142991542816162109375">
        <ele>531</ele>
        <time>2020-08-16T08:07:58.000Z</time>
      </trkpt>
      <trkpt lat="42.41534301079809665679931640625" lon="0.14453628100454807281494140625">
        <ele>531</ele>
        <time>2020-08-16T08:08:03.000Z</time>
      </trkpt>
      <trkpt lat="42.4153756164014339447021484375" lon="0.144347436726093292236328125">
        <ele>530.79998779296875</ele>
        <time>2020-08-16T08:08:08.000Z</time>
      </trkpt>
      <trkpt lat="42.41528953425586223602294921875" lon="0.14416613616049289703369140625">
        <ele>531</ele>
        <time>2020-08-16T08:08:13.000Z</time>
      </trkpt>
      <trkpt lat="42.41520722396671772003173828125" lon="0.14397972263395786285400390625">
        <ele>531.20001220703125</ele>
        <time>2020-08-16T08:08:18.000Z</time>
      </trkpt>
      <trkpt lat="42.415146790444850921630859375" lon="0.143535397946834564208984375">
        <ele>531</ele>
        <time>2020-08-16T08:08:28.000Z</time>
      </trkpt>
      <trkpt lat="42.41509205661714076995849609375" lon="0.14318503439426422119140625">
        <ele>531.20001220703125</ele>
        <time>2020-08-16T08:08:36.000Z</time>
      </trkpt>
      <trkpt lat="42.41502701304852962493896484375" lon="0.14270894229412078857421875">
        <ele>531.4000244140625</ele>
        <time>2020-08-16T08:08:46.000Z</time>
      </trkpt>
      <trkpt lat="42.41495140828192234039306640625" lon="0.14224198646843433380126953125">
        <ele>531.20001220703125</ele>
        <time>2020-08-16T08:08:56.000Z</time>
      </trkpt>
      <trkpt lat="42.41489608772099018096923828125" lon="0.141861699521541595458984375">
        <ele>531.4000244140625</ele>
        <time>2020-08-16T08:09:05.000Z</time>
      </trkpt>
      <trkpt lat="42.41483657620847225189208984375" lon="0.1414092443883419036865234375">
        <ele>531</ele>
        <time>2020-08-16T08:09:16.000Z</time>
      </trkpt>
      <trkpt lat="42.41482970304787158966064453125" lon="0.14136590994894504547119140625">
        <ele>531</ele>
        <time>2020-08-16T08:09:17.000Z</time>
      </trkpt>
      <trkpt lat="42.41477790288627147674560546875" lon="0.1409636624157428741455078125">
        <ele>531.4000244140625</ele>
        <time>2020-08-16T08:09:26.000Z</time>
      </trkpt>
      <trkpt lat="42.414718307554721832275390625" lon="0.14062193222343921661376953125">
        <ele>531.5999755859375</ele>
        <time>2020-08-16T08:09:35.000Z</time>
      </trkpt>
      <trkpt lat="42.41466474719345569610595703125" lon="0.14025078155100345611572265625">
        <ele>532.5999755859375</ele>
        <time>2020-08-16T08:09:46.000Z</time>
      </trkpt>
      <trkpt lat="42.41463608108460903167724609375" lon="0.1399866677820682525634765625">
        <ele>532.5999755859375</ele>
        <time>2020-08-16T08:09:53.000Z</time>
      </trkpt>
      <trkpt lat="42.4146195687353610992431640625" lon="0.13988398946821689605712890625">
        <ele>532.5999755859375</ele>
        <time>2020-08-16T08:09:56.000Z</time>
      </trkpt>
      <trkpt lat="42.41458578966557979583740234375" lon="0.1397496275603771209716796875">
        <ele>533</ele>
        <time>2020-08-16T08:10:00.000Z</time>
      </trkpt>
      <trkpt lat="42.4145478196442127227783203125" lon="0.13959816657006740570068359375">
        <ele>533.20001220703125</ele>
        <time>2020-08-16T08:10:05.000Z</time>
      </trkpt>
      <trkpt lat="42.4145313911139965057373046875" lon="0.13945567421615123748779296875">
        <ele>533.5999755859375</ele>
        <time>2020-08-16T08:10:10.000Z</time>
      </trkpt>
      <trkpt lat="42.414561398327350616455078125" lon="0.13932357542216777801513671875">
        <ele>533.79998779296875</ele>
        <time>2020-08-16T08:10:14.000Z</time>
      </trkpt>
      <trkpt lat="42.41459718905389308929443359375" lon="0.13923003338277339935302734375">
        <ele>533.79998779296875</ele>
        <time>2020-08-16T08:10:17.000Z</time>
      </trkpt>
      <trkpt lat="42.41474672220647335052490234375" lon="0.1389907300472259521484375">
        <ele>534.5999755859375</ele>
        <time>2020-08-16T08:10:26.000Z</time>
      </trkpt>
      <trkpt lat="42.41478494368493556976318359375" lon="0.1389432884752750396728515625">
        <ele>534.79998779296875</ele>
        <time>2020-08-16T08:10:28.000Z</time>
      </trkpt>
      <trkpt lat="42.4148944951593875885009765625" lon="0.138798616826534271240234375">
        <ele>535</ele>
        <time>2020-08-16T08:10:34.000Z</time>
      </trkpt>
      <trkpt lat="42.4150919727981090545654296875" lon="0.13855998404324054718017578125">
        <ele>535.4000244140625</ele>
        <time>2020-08-16T08:10:44.000Z</time>
      </trkpt>
      <trkpt lat="42.41530847735702991485595703125" lon="0.1383344270288944244384765625">
        <ele>535.79998779296875</ele>
        <time>2020-08-16T08:10:54.000Z</time>
      </trkpt>
      <trkpt lat="42.41556127555668354034423828125" lon="0.13814005069434642791748046875">
        <ele>536.20001220703125</ele>
        <time>2020-08-16T08:11:04.000Z</time>
      </trkpt>
      <trkpt lat="42.41578792221844196319580078125" lon="0.13799093663692474365234375">
        <ele>536.79998779296875</ele>
        <time>2020-08-16T08:11:13.000Z</time>
      </trkpt>
      <trkpt lat="42.41583787836134433746337890625" lon="0.13795548118650913238525390625">
        <ele>536.79998779296875</ele>
        <time>2020-08-16T08:11:15.000Z</time>
      </trkpt>
      <trkpt lat="42.41610492579638957977294921875" lon="0.13777996413409709930419921875">
        <ele>537.79998779296875</ele>
        <time>2020-08-16T08:11:26.000Z</time>
      </trkpt>
      <trkpt lat="42.41633023135364055633544921875" lon="0.1376145891845226287841796875">
        <ele>538.4000244140625</ele>
        <time>2020-08-16T08:11:35.000Z</time>
      </trkpt>
      <trkpt lat="42.41652309894561767578125" lon="0.13742893002927303314208984375">
        <ele>538.4000244140625</ele>
        <time>2020-08-16T08:11:43.000Z</time>
      </trkpt>
      <trkpt lat="42.41659828461706638336181640625" lon="0.1373081468045711517333984375">
        <ele>538.5999755859375</ele>
        <time>2020-08-16T08:11:47.000Z</time>
      </trkpt>
      <trkpt lat="42.41664388217031955718994140625" lon="0.1371981762349605560302734375">
        <ele>538.5999755859375</ele>
        <time>2020-08-16T08:11:50.000Z</time>
      </trkpt>
      <trkpt lat="42.41673926822841167449951171875" lon="0.1368890516459941864013671875">
        <ele>539</ele>
        <time>2020-08-16T08:11:58.000Z</time>
      </trkpt>
      <trkpt lat="42.41678251884877681732177734375" lon="0.13678536750376224517822265625">
        <ele>539.20001220703125</ele>
        <time>2020-08-16T08:12:01.000Z</time>
      </trkpt>
      <trkpt lat="42.41680632345378398895263671875" lon="0.13677061535418033599853515625">
        <ele>539.20001220703125</ele>
        <time>2020-08-16T08:12:02.000Z</time>
      </trkpt>
      <trkpt lat="42.41685410030186176300048828125" lon="0.13680850155651569366455078125">
        <ele>539.20001220703125</ele>
        <time>2020-08-16T08:12:05.000Z</time>
      </trkpt>
      <trkpt lat="42.4168340675532817840576171875" lon="0.13691159896552562713623046875">
        <ele>539.5999755859375</ele>
        <time>2020-08-16T08:12:08.000Z</time>
      </trkpt>
      <trkpt lat="42.41682509891688823699951171875" lon="0.13694697059690952301025390625">
        <ele>539.5999755859375</ele>
        <time>2020-08-16T08:12:09.000Z</time>
      </trkpt>
      <trkpt lat="42.41681906394660472869873046875" lon="0.13698108494281768798828125">
        <ele>539.79998779296875</ele>
        <time>2020-08-16T08:12:10.000Z</time>
      </trkpt>
      <trkpt lat="42.4167723767459392547607421875" lon="0.13716347515583038330078125">
        <ele>540.79998779296875</ele>
        <time>2020-08-16T08:12:16.000Z</time>
      </trkpt>
      <trkpt lat="42.41670037619769573211669921875" lon="0.137315355241298675537109375">
        <ele>541.79998779296875</ele>
        <time>2020-08-16T08:12:22.000Z</time>
      </trkpt>
      <trkpt lat="42.41667221300303936004638671875" lon="0.1373621262609958648681640625">
        <ele>541.79998779296875</ele>
        <time>2020-08-16T08:12:24.000Z</time>
      </trkpt>
      <trkpt lat="42.41659962572157382965087890625" lon="0.13746522367000579833984375">
        <ele>542.5999755859375</ele>
        <time>2020-08-16T08:12:29.000Z</time>
      </trkpt>
      <trkpt lat="42.41654329933226108551025390625" lon="0.13753387145698070526123046875">
        <ele>543.5999755859375</ele>
        <time>2020-08-16T08:12:33.000Z</time>
      </trkpt>
      <trkpt lat="42.41652871482074260711669921875" lon="0.13755046762526035308837890625">
        <ele>543.79998779296875</ele>
        <time>2020-08-16T08:12:34.000Z</time>
      </trkpt>
      <trkpt lat="42.4164320714771747589111328125" lon="0.13764887116849422454833984375">
        <ele>545</ele>
        <time>2020-08-16T08:12:40.000Z</time>
      </trkpt>
      <trkpt lat="42.416353113949298858642578125" lon="0.13774191029369831085205078125">
        <ele>545.20001220703125</ele>
        <time>2020-08-16T08:12:45.000Z</time>
      </trkpt>
      <trkpt lat="42.41619545035064220428466796875" lon="0.13792731799185276031494140625">
        <ele>545.79998779296875</ele>
        <time>2020-08-16T08:12:55.000Z</time>
      </trkpt>
      <trkpt lat="42.41611473262310028076171875" lon="0.1380236260592937469482421875">
        <ele>546</ele>
        <time>2020-08-16T08:13:00.000Z</time>
      </trkpt>
      <trkpt lat="42.41605572402477264404296875" lon="0.138105265796184539794921875">
        <ele>546.20001220703125</ele>
        <time>2020-08-16T08:13:04.000Z</time>
      </trkpt>
      <trkpt lat="42.4159298278391361236572265625" lon="0.1382241211831569671630859375">
        <ele>546.79998779296875</ele>
        <time>2020-08-16T08:13:11.000Z</time>
      </trkpt>
      <trkpt lat="42.4158979766070842742919921875" lon="0.13826075010001659393310546875">
        <ele>547</ele>
        <time>2020-08-16T08:13:13.000Z</time>
      </trkpt>
      <trkpt lat="42.41580602712929248809814453125" lon="0.138365440070629119873046875">
        <ele>548.20001220703125</ele>
        <time>2020-08-16T08:13:19.000Z</time>
      </trkpt>
      <trkpt lat="42.41570837795734405517578125" lon="0.138478763401508331298828125">
        <ele>549.20001220703125</ele>
        <time>2020-08-16T08:13:26.000Z</time>
      </trkpt>
      <trkpt lat="42.4156968109309673309326171875" lon="0.13849594630300998687744140625">
        <ele>549.4000244140625</ele>
        <time>2020-08-16T08:13:27.000Z</time>
      </trkpt>
      <trkpt lat="42.41564308293163776397705078125" lon="0.138566605746746063232421875">
        <ele>550.20001220703125</ele>
        <time>2020-08-16T08:13:31.000Z</time>
      </trkpt>
      <trkpt lat="42.415600083768367767333984375" lon="0.13860994018614292144775390625">
        <ele>550.79998779296875</ele>
        <time>2020-08-16T08:13:34.000Z</time>
      </trkpt>
      <trkpt lat="42.4155603535473346710205078125" lon="0.1386526040732860565185546875">
        <ele>551.4000244140625</ele>
        <time>2020-08-16T08:13:37.000Z</time>
      </trkpt>
      <trkpt lat="42.415491454303264617919921875" lon="0.1387340761721134185791015625">
        <ele>552</ele>
        <time>2020-08-16T08:13:42.000Z</time>
      </trkpt>
      <trkpt lat="42.41547578014433383941650390625" lon="0.1387468166649341583251953125">
        <ele>552.4000244140625</ele>
        <time>2020-08-16T08:13:43.000Z</time>
      </trkpt>
      <trkpt lat="42.41538173519074916839599609375" lon="0.138861648738384246826171875">
        <ele>553.20001220703125</ele>
        <time>2020-08-16T08:13:50.000Z</time>
      </trkpt>
      <trkpt lat="42.41537041962146759033203125" lon="0.138879753649234771728515625">
        <ele>553.4000244140625</ele>
        <time>2020-08-16T08:13:51.000Z</time>
      </trkpt>
      <trkpt lat="42.4153367243707180023193359375" lon="0.1389332301914691925048828125">
        <ele>553.79998779296875</ele>
        <time>2020-08-16T08:13:54.000Z</time>
      </trkpt>
      <trkpt lat="42.415300346910953521728515625" lon="0.138980336487293243408203125">
        <ele>554.4000244140625</ele>
        <time>2020-08-16T08:13:57.000Z</time>
      </trkpt>
      <trkpt lat="42.41529121063649654388427734375" lon="0.13900053687393665313720703125">
        <ele>554.5999755859375</ele>
        <time>2020-08-16T08:13:58.000Z</time>
      </trkpt>
      <trkpt lat="42.41522247903048992156982421875" lon="0.13910145498812198638916015625">
        <ele>555.5999755859375</ele>
        <time>2020-08-16T08:14:04.000Z</time>
      </trkpt>
      <trkpt lat="42.415211163461208343505859375" lon="0.13911939226090908050537109375">
        <ele>555.79998779296875</ele>
        <time>2020-08-16T08:14:05.000Z</time>
      </trkpt>
      <trkpt lat="42.4151385761797428131103515625" lon="0.13925316743552684783935546875">
        <ele>556.5999755859375</ele>
        <time>2020-08-16T08:14:12.000Z</time>
      </trkpt>
      <trkpt lat="42.41511963307857513427734375" lon="0.13931586407124996185302734375">
        <ele>557.20001220703125</ele>
        <time>2020-08-16T08:14:15.000Z</time>
      </trkpt>
      <trkpt lat="42.415091134607791900634765625" lon="0.13940052129328250885009765625">
        <ele>557.79998779296875</ele>
        <time>2020-08-16T08:14:19.000Z</time>
      </trkpt>
      <trkpt lat="42.4150433577597141265869140625" lon="0.1395514793694019317626953125">
        <ele>558.5999755859375</ele>
        <time>2020-08-16T08:14:26.000Z</time>
      </trkpt>
      <trkpt lat="42.41503925062716007232666015625" lon="0.1395739428699016571044921875">
        <ele>558.79998779296875</ele>
        <time>2020-08-16T08:14:27.000Z</time>
      </trkpt>
      <trkpt lat="42.4150332994759082794189453125" lon="0.13973579742014408111572265625">
        <ele>559.5999755859375</ele>
        <time>2020-08-16T08:14:34.000Z</time>
      </trkpt>
      <trkpt lat="42.41504453122615814208984375" lon="0.13977971859276294708251953125">
        <ele>560</ele>
        <time>2020-08-16T08:14:36.000Z</time>
      </trkpt>
      <trkpt lat="42.41510580293834209442138671875" lon="0.13985549099743366241455078125">
        <ele>560.79998779296875</ele>
        <time>2020-08-16T08:14:41.000Z</time>
      </trkpt>
      <trkpt lat="42.41513798944652080535888671875" lon="0.13987359590828418731689453125">
        <ele>561</ele>
        <time>2020-08-16T08:14:43.000Z</time>
      </trkpt>
      <trkpt lat="42.41523354314267635345458984375" lon="0.139877535402774810791015625">
        <ele>562.20001220703125</ele>
        <time>2020-08-16T08:14:49.000Z</time>
      </trkpt>
      <trkpt lat="42.41532205604016780853271484375" lon="0.13980000279843807220458984375">
        <ele>562.79998779296875</ele>
        <time>2020-08-16T08:14:55.000Z</time>
      </trkpt>
      <trkpt lat="42.415348626673221588134765625" lon="0.13977066613733768463134765625">
        <ele>563.20001220703125</ele>
        <time>2020-08-16T08:14:57.000Z</time>
      </trkpt>
      <trkpt lat="42.415421046316623687744140625" lon="0.139676034450531005859375">
        <ele>564.4000244140625</ele>
        <time>2020-08-16T08:15:03.000Z</time>
      </trkpt>
      <trkpt lat="42.41545566357672214508056640625" lon="0.13963756151497364044189453125">
        <ele>564.79998779296875</ele>
        <time>2020-08-16T08:15:06.000Z</time>
      </trkpt>
      <trkpt lat="42.4154651351273059844970703125" lon="0.13962180353701114654541015625">
        <ele>564.79998779296875</ele>
        <time>2020-08-16T08:15:07.000Z</time>
      </trkpt>
      <trkpt lat="42.41550142876803874969482421875" lon="0.13955374248325824737548828125">
        <ele>565.5999755859375</ele>
        <time>2020-08-16T08:15:11.000Z</time>
      </trkpt>
      <trkpt lat="42.4155127443373203277587890625" lon="0.13953831978142261505126953125">
        <ele>566</ele>
        <time>2020-08-16T08:15:12.000Z</time>
      </trkpt>
      <trkpt lat="42.41557200439274311065673828125" lon="0.13945450074970722198486328125">
        <ele>566.79998779296875</ele>
        <time>2020-08-16T08:15:17.000Z</time>
      </trkpt>
      <trkpt lat="42.41561726666986942291259765625" lon="0.13941477052867412567138671875">
        <ele>567.4000244140625</ele>
        <time>2020-08-16T08:15:20.000Z</time>
      </trkpt>
      <trkpt lat="42.41566454060375690460205078125" lon="0.1393895410001277923583984375">
        <ele>567.79998779296875</ele>
        <time>2020-08-16T08:15:23.000Z</time>
      </trkpt>
      <trkpt lat="42.4157424084842205047607421875" lon="0.1393459551036357879638671875">
        <ele>568.79998779296875</ele>
        <time>2020-08-16T08:15:28.000Z</time>
      </trkpt>
      <trkpt lat="42.41575825028121471405029296875" lon="0.1393385790288448333740234375">
        <ele>568.79998779296875</ele>
        <time>2020-08-16T08:15:29.000Z</time>
      </trkpt>
      <trkpt lat="42.415851540863513946533203125" lon="0.13929490931332111358642578125">
        <ele>569.79998779296875</ele>
        <time>2020-08-16T08:15:35.000Z</time>
      </trkpt>
      <trkpt lat="42.41588003933429718017578125" lon="0.1392809115350246429443359375">
        <ele>570</ele>
        <time>2020-08-16T08:15:37.000Z</time>
      </trkpt>
      <trkpt lat="42.41595380008220672607421875" lon="0.139251239597797393798828125">
        <ele>571.20001220703125</ele>
        <time>2020-08-16T08:15:42.000Z</time>
      </trkpt>
      <trkpt lat="42.4160112999379634857177734375" lon="0.13921377249062061309814453125">
        <ele>571.79998779296875</ele>
        <time>2020-08-16T08:15:46.000Z</time>
      </trkpt>
      <trkpt lat="42.4160371161997318267822265625" lon="0.1391877047717571258544921875">
        <ele>572</ele>
        <time>2020-08-16T08:15:48.000Z</time>
      </trkpt>
      <trkpt lat="42.41606502793729305267333984375" lon="0.1391652412712574005126953125">
        <ele>572.4000244140625</ele>
        <time>2020-08-16T08:15:50.000Z</time>
      </trkpt>
      <trkpt lat="42.41609788499772548675537109375" lon="0.1391213200986385345458984375">
        <ele>572.5999755859375</ele>
        <time>2020-08-16T08:15:53.000Z</time>
      </trkpt>
      <trkpt lat="42.41613493300974369049072265625" lon="0.13908259570598602294921875">
        <ele>573.20001220703125</ele>
        <time>2020-08-16T08:15:56.000Z</time>
      </trkpt>
      <trkpt lat="42.4162144772708415985107421875" lon="0.13900858350098133087158203125">
        <ele>574</ele>
        <time>2020-08-16T08:16:02.000Z</time>
      </trkpt>
      <trkpt lat="42.4162443168461322784423828125" lon="0.13898159377276897430419921875">
        <ele>574.20001220703125</ele>
        <time>2020-08-16T08:16:04.000Z</time>
      </trkpt>
      <trkpt lat="42.41630039177834987640380859375" lon="0.13892811723053455352783203125">
        <ele>574.5999755859375</ele>
        <time>2020-08-16T08:16:08.000Z</time>
      </trkpt>
      <trkpt lat="42.41634196601808071136474609375" lon="0.1388886384665966033935546875">
        <ele>575.20001220703125</ele>
        <time>2020-08-16T08:16:11.000Z</time>
      </trkpt>
      <trkpt lat="42.4164305627346038818359375" lon="0.13880641199648380279541015625">
        <ele>575.5999755859375</ele>
        <time>2020-08-16T08:16:17.000Z</time>
      </trkpt>
      <trkpt lat="42.4165440537035465240478515625" lon="0.1386697031557559967041015625">
        <ele>576.20001220703125</ele>
        <time>2020-08-16T08:16:25.000Z</time>
      </trkpt>
      <trkpt lat="42.41655872203409671783447265625" lon="0.13865218497812747955322265625">
        <ele>576.4000244140625</ele>
        <time>2020-08-16T08:16:26.000Z</time>
      </trkpt>
      <trkpt lat="42.41667221300303936004638671875" lon="0.1385428011417388916015625">
        <ele>577.20001220703125</ele>
        <time>2020-08-16T08:16:33.000Z</time>
      </trkpt>
      <trkpt lat="42.41675603203475475311279296875" lon="0.13845403678715229034423828125">
        <ele>577.4000244140625</ele>
        <time>2020-08-16T08:16:38.000Z</time>
      </trkpt>
      <trkpt lat="42.41679073311388492584228515625" lon="0.13841715641319751739501953125">
        <ele>577.4000244140625</ele>
        <time>2020-08-16T08:16:40.000Z</time>
      </trkpt>
      <trkpt lat="42.416922748088836669921875" lon="0.13825605623424053192138671875">
        <ele>577.5999755859375</ele>
        <time>2020-08-16T08:16:48.000Z</time>
      </trkpt>
      <trkpt lat="42.41703682579100131988525390625" lon="0.1381081156432628631591796875">
        <ele>577.79998779296875</ele>
        <time>2020-08-16T08:16:55.000Z</time>
      </trkpt>
      <trkpt lat="42.41713237948715686798095703125" lon="0.13799085281789302825927734375">
        <ele>578.20001220703125</ele>
        <time>2020-08-16T08:17:01.000Z</time>
      </trkpt>
      <trkpt lat="42.417181916534900665283203125" lon="0.13793217949569225311279296875">
        <ele>578.5999755859375</ele>
        <time>2020-08-16T08:17:04.000Z</time>
      </trkpt>
      <trkpt lat="42.41729431785643100738525390625" lon="0.13779915869235992431640625">
        <ele>579.4000244140625</ele>
        <time>2020-08-16T08:17:11.000Z</time>
      </trkpt>
      <trkpt lat="42.41733706556260585784912109375" lon="0.1377366296947002410888671875">
        <ele>579.5999755859375</ele>
        <time>2020-08-16T08:17:14.000Z</time>
      </trkpt>
      <trkpt lat="42.41742172278463840484619140625" lon="0.13761735521256923675537109375">
        <ele>580.4000244140625</ele>
        <time>2020-08-16T08:17:20.000Z</time>
      </trkpt>
      <trkpt lat="42.41746514104306697845458984375" lon="0.13755750842392444610595703125">
        <ele>580.79998779296875</ele>
        <time>2020-08-16T08:17:23.000Z</time>
      </trkpt>
      <trkpt lat="42.4175297655165195465087890625" lon="0.137454830110073089599609375">
        <ele>581.5999755859375</ele>
        <time>2020-08-16T08:17:28.000Z</time>
      </trkpt>
      <trkpt lat="42.41759128868579864501953125" lon="0.137410573661327362060546875">
        <ele>582.20001220703125</ele>
        <time>2020-08-16T08:17:32.000Z</time>
      </trkpt>
      <trkpt lat="42.4176259897649288177490234375" lon="0.13741962611675262451171875">
        <ele>582.4000244140625</ele>
        <time>2020-08-16T08:17:34.000Z</time>
      </trkpt>
      <trkpt lat="42.41763822734355926513671875" lon="0.1374350488185882568359375">
        <ele>582.5999755859375</ele>
        <time>2020-08-16T08:17:35.000Z</time>
      </trkpt>
      <trkpt lat="42.417653314769268035888671875" lon="0.13747503049671649932861328125">
        <ele>583.20001220703125</ele>
        <time>2020-08-16T08:17:37.000Z</time>
      </trkpt>
      <trkpt lat="42.417656667530536651611328125" lon="0.137515850365161895751953125">
        <ele>583.5999755859375</ele>
        <time>2020-08-16T08:17:39.000Z</time>
      </trkpt>
      <trkpt lat="42.417652308940887451171875" lon="0.137577541172504425048828125">
        <ele>584.20001220703125</ele>
        <time>2020-08-16T08:17:42.000Z</time>
      </trkpt>
      <trkpt lat="42.4176467768847942352294921875" lon="0.13761903159320354461669921875">
        <ele>584.79998779296875</ele>
        <time>2020-08-16T08:17:44.000Z</time>
      </trkpt>
      <trkpt lat="42.41763956844806671142578125" lon="0.13773470185697078704833984375">
        <ele>585.4000244140625</ele>
        <time>2020-08-16T08:17:50.000Z</time>
      </trkpt>
      <trkpt lat="42.41763562895357608795166015625" lon="0.1377530582249164581298828125">
        <ele>585.79998779296875</ele>
        <time>2020-08-16T08:17:51.000Z</time>
      </trkpt>
      <trkpt lat="42.417609728872776031494140625" lon="0.13786814175546169281005859375">
        <ele>586.79998779296875</ele>
        <time>2020-08-16T08:17:57.000Z</time>
      </trkpt>
      <trkpt lat="42.41759455762803554534912109375" lon="0.13792547397315502166748046875">
        <ele>587.20001220703125</ele>
        <time>2020-08-16T08:18:00.000Z</time>
      </trkpt>
      <trkpt lat="42.41756471805274486541748046875" lon="0.1380417309701442718505859375">
        <ele>587.79998779296875</ele>
        <time>2020-08-16T08:18:08.000Z</time>
      </trkpt>
      <trkpt lat="42.41756580770015716552734375" lon="0.13804248534142971038818359375">
        <ele>587.79998779296875</ele>
        <time>2020-08-16T08:18:09.000Z</time>
      </trkpt>
      <trkpt lat="42.4155335314571857452392578125" lon="0.1397766172885894775390625">
        <ele>572.79998779296875</ele>
        <time>2020-08-16T08:35:16.000Z</time>
      </trkpt>
      <trkpt lat="42.41552070714533329010009765625" lon="0.13970495201647281646728515625">
        <ele>572.4000244140625</ele>
        <time>2020-08-16T08:35:19.000Z</time>
      </trkpt>
      <trkpt lat="42.415572591125965118408203125" lon="0.139515101909637451171875">
        <ele>571.4000244140625</ele>
        <time>2020-08-16T08:35:25.000Z</time>
      </trkpt>
      <trkpt lat="42.41552724502980709075927734375" lon="0.139477550983428955078125">
        <ele>571.20001220703125</ele>
        <time>2020-08-16T08:35:26.000Z</time>
      </trkpt>
      <trkpt lat="42.41558943875133991241455078125" lon="0.13946522958576679229736328125">
        <ele>570.5999755859375</ele>
        <time>2020-08-16T08:35:28.000Z</time>
      </trkpt>
      <trkpt lat="42.4156344495713710784912109375" lon="0.13939767144620418548583984375">
        <ele>569.79998779296875</ele>
        <time>2020-08-16T08:35:31.000Z</time>
      </trkpt>
      <trkpt lat="42.4156418256461620330810546875" lon="0.13937051407992839813232421875">
        <ele>569.5999755859375</ele>
        <time>2020-08-16T08:35:32.000Z</time>
      </trkpt>
      <trkpt lat="42.41562916897237300872802734375" lon="0.13935022987425327301025390625">
        <ele>569.4000244140625</ele>
        <time>2020-08-16T08:35:35.000Z</time>
      </trkpt>
      <trkpt lat="42.4155301786959171295166015625" lon="0.13944444246590137481689453125">
        <ele>569.20001220703125</ele>
        <time>2020-08-16T08:35:39.000Z</time>
      </trkpt>
      <trkpt lat="42.41546521894633769989013671875" lon="0.1395350508391857147216796875">
        <ele>568.79998779296875</ele>
        <time>2020-08-16T08:35:41.000Z</time>
      </trkpt>
      <trkpt lat="42.41543169133365154266357421875" lon="0.13959498144686222076416015625">
        <ele>568.4000244140625</ele>
        <time>2020-08-16T08:35:42.000Z</time>
      </trkpt>
      <trkpt lat="42.41540084592998027801513671875" lon="0.13965985737740993499755859375">
        <ele>568</ele>
        <time>2020-08-16T08:35:43.000Z</time>
      </trkpt>
      <trkpt lat="42.415365390479564666748046875" lon="0.13972221873700618743896484375">
        <ele>567.20001220703125</ele>
        <time>2020-08-16T08:35:44.000Z</time>
      </trkpt>
      <trkpt lat="42.41532540880143642425537109375" lon="0.13977686874568462371826171875">
        <ele>566.5999755859375</ele>
        <time>2020-08-16T08:35:45.000Z</time>
      </trkpt>
      <trkpt lat="42.41523840464651584625244140625" lon="0.13984962366521358489990234375">
        <ele>565.4000244140625</ele>
        <time>2020-08-16T08:35:47.000Z</time>
      </trkpt>
      <trkpt lat="42.41515022702515125274658203125" lon="0.139845348894596099853515625">
        <ele>564</ele>
        <time>2020-08-16T08:35:49.000Z</time>
      </trkpt>
      <trkpt lat="42.41511066444218158721923828125" lon="0.139801762998104095458984375">
        <ele>563.4000244140625</ele>
        <time>2020-08-16T08:35:50.000Z</time>
      </trkpt>
      <trkpt lat="42.4150825850665569305419921875" lon="0.13974535278975963592529296875">
        <ele>562.79998779296875</ele>
        <time>2020-08-16T08:35:51.000Z</time>
      </trkpt>
      <trkpt lat="42.41506473161280155181884765625" lon="0.13960168696939945220947265625">
        <ele>561.5999755859375</ele>
        <time>2020-08-16T08:35:53.000Z</time>
      </trkpt>
      <trkpt lat="42.41509306244552135467529296875" lon="0.139456428587436676025390625">
        <ele>560.4000244140625</ele>
        <time>2020-08-16T08:35:55.000Z</time>
      </trkpt>
      <trkpt lat="42.41514536552131175994873046875" lon="0.13931837864220142364501953125">
        <ele>559.79998779296875</ele>
        <time>2020-08-16T08:35:57.000Z</time>
      </trkpt>
      <trkpt lat="42.4151804856956005096435546875" lon="0.13924847356975078582763671875">
        <ele>559.4000244140625</ele>
        <time>2020-08-16T08:35:58.000Z</time>
      </trkpt>
      <trkpt lat="42.415261454880237579345703125" lon="0.13911545276641845703125">
        <ele>558.20001220703125</ele>
        <time>2020-08-16T08:36:00.000Z</time>
      </trkpt>
      <trkpt lat="42.41535457782447338104248046875" lon="0.13898544944822788238525390625">
        <ele>557.20001220703125</ele>
        <time>2020-08-16T08:36:02.000Z</time>
      </trkpt>
      <trkpt lat="42.41540704853832721710205078125" lon="0.13891688548028469085693359375">
        <ele>556.5999755859375</ele>
        <time>2020-08-16T08:36:03.000Z</time>
      </trkpt>
      <trkpt lat="42.41551903076469898223876953125" lon="0.13877824880182743072509765625">
        <ele>555.20001220703125</ele>
        <time>2020-08-16T08:36:05.000Z</time>
      </trkpt>
      <trkpt lat="42.4156978167593479156494140625" lon="0.13857356272637844085693359375">
        <ele>553.4000244140625</ele>
        <time>2020-08-16T08:36:08.000Z</time>
      </trkpt>
      <trkpt lat="42.41582111455500125885009765625" lon="0.13843459077179431915283203125">
        <ele>552</ele>
        <time>2020-08-16T08:36:10.000Z</time>
      </trkpt>
      <trkpt lat="42.4158815480768680572509765625" lon="0.13836485333740711212158203125">
        <ele>551.20001220703125</ele>
        <time>2020-08-16T08:36:11.000Z</time>
      </trkpt>
      <trkpt lat="42.4159405566751956939697265625" lon="0.13829679228365421295166015625">
        <ele>550.5999755859375</ele>
        <time>2020-08-16T08:36:12.000Z</time>
      </trkpt>
      <trkpt lat="42.4160595797002315521240234375" lon="0.1381647773087024688720703125">
        <ele>549</ele>
        <time>2020-08-16T08:36:14.000Z</time>
      </trkpt>
      <trkpt lat="42.41611615754663944244384765625" lon="0.13810115866363048553466796875">
        <ele>548.4000244140625</ele>
        <time>2020-08-16T08:36:15.000Z</time>
      </trkpt>
      <trkpt lat="42.41616946645081043243408203125" lon="0.13803930021822452545166015625">
        <ele>547.79998779296875</ele>
        <time>2020-08-16T08:36:16.000Z</time>
      </trkpt>
      <trkpt lat="42.4164278805255889892578125" lon="0.13773956336081027984619140625">
        <ele>546.79998779296875</ele>
        <time>2020-08-16T08:36:21.000Z</time>
      </trkpt>
      <trkpt lat="42.4164816923439502716064453125" lon="0.13767954893410205841064453125">
        <ele>546.5999755859375</ele>
        <time>2020-08-16T08:36:22.000Z</time>
      </trkpt>
      <trkpt lat="42.41668310947716236114501953125" lon="0.13743245042860507965087890625">
        <ele>545.5999755859375</ele>
        <time>2020-08-16T08:36:26.000Z</time>
      </trkpt>
      <trkpt lat="42.41672736592590808868408203125" lon="0.137366987764835357666015625">
        <ele>545</ele>
        <time>2020-08-16T08:36:27.000Z</time>
      </trkpt>
      <trkpt lat="42.41676709614694118499755859375" lon="0.13729381375014781951904296875">
        <ele>544.5999755859375</ele>
        <time>2020-08-16T08:36:28.000Z</time>
      </trkpt>
      <trkpt lat="42.416852004826068878173828125" lon="0.1370597071945667266845703125">
        <ele>543.4000244140625</ele>
        <time>2020-08-16T08:36:31.000Z</time>
      </trkpt>
      <trkpt lat="42.4168729595839977264404296875" lon="0.13697479851543903350830078125">
        <ele>542.79998779296875</ele>
        <time>2020-08-16T08:36:32.000Z</time>
      </trkpt>
      <trkpt lat="42.41688930429518222808837890625" lon="0.13689299114048480987548828125">
        <ele>542.20001220703125</ele>
        <time>2020-08-16T08:36:33.000Z</time>
      </trkpt>
      <trkpt lat="42.41690925322473049163818359375" lon="0.13674228452146053314208984375">
        <ele>541</ele>
        <time>2020-08-16T08:36:35.000Z</time>
      </trkpt>
      <trkpt lat="42.41691176779568195343017578125" lon="0.1366734690964221954345703125">
        <ele>540.5999755859375</ele>
        <time>2020-08-16T08:36:36.000Z</time>
      </trkpt>
      <trkpt lat="42.41690522991120815277099609375" lon="0.13661228120326995849609375">
        <ele>540.5999755859375</ele>
        <time>2020-08-16T08:36:37.000Z</time>
      </trkpt>
      <trkpt lat="42.4168501608073711395263671875" lon="0.13652586378157138824462890625">
        <ele>540.5999755859375</ele>
        <time>2020-08-16T08:36:40.000Z</time>
      </trkpt>
      <trkpt lat="42.4168114364147186279296875" lon="0.13654044829308986663818359375">
        <ele>540.4000244140625</ele>
        <time>2020-08-16T08:36:45.000Z</time>
      </trkpt>
      <trkpt lat="42.41675754077732563018798828125" lon="0.1366255246102809906005859375">
        <ele>540.5999755859375</ele>
        <time>2020-08-16T08:36:50.000Z</time>
      </trkpt>
      <trkpt lat="42.41670138202607631683349609375" lon="0.13682149350643157958984375">
        <ele>540.4000244140625</ele>
        <time>2020-08-16T08:36:57.000Z</time>
      </trkpt>
      <trkpt lat="42.41669869981706142425537109375" lon="0.13682224787771701812744140625">
        <ele>540.20001220703125</ele>
        <time>2020-08-16T08:37:02.000Z</time>
      </trkpt>
      <trkpt lat="42.416698448359966278076171875" lon="0.136829204857349395751953125">
        <ele>540.20001220703125</ele>
        <time>2020-08-16T08:37:14.000Z</time>
      </trkpt>
      <trkpt lat="42.416709177196025848388671875" lon="0.13689986430108547210693359375">
        <ele>540.20001220703125</ele>
        <time>2020-08-16T08:37:19.000Z</time>
      </trkpt>
      <trkpt lat="42.41666282527148723602294921875" lon="0.13708091340959072113037109375">
        <ele>540</ele>
        <time>2020-08-16T08:37:25.000Z</time>
      </trkpt>
      <trkpt lat="42.41662041284143924713134765625" lon="0.13717663474380970001220703125">
        <ele>539.79998779296875</ele>
        <time>2020-08-16T08:37:28.000Z</time>
      </trkpt>
      <trkpt lat="42.41651362739503383636474609375" lon="0.137356929481029510498046875">
        <ele>539.79998779296875</ele>
        <time>2020-08-16T08:37:34.000Z</time>
      </trkpt>
      <trkpt lat="42.416332326829433441162109375" lon="0.13753118924796581268310546875">
        <ele>539.79998779296875</ele>
        <time>2020-08-16T08:37:41.000Z</time>
      </trkpt>
      <trkpt lat="42.41609822027385234832763671875" lon="0.137700252234935760498046875">
        <ele>539.5999755859375</ele>
        <time>2020-08-16T08:37:49.000Z</time>
      </trkpt>
      <trkpt lat="42.415773086249828338623046875" lon="0.13792790472507476806640625">
        <ele>538.79998779296875</ele>
        <time>2020-08-16T08:37:58.000Z</time>
      </trkpt>
      <trkpt lat="42.4154570885002613067626953125" lon="0.138156227767467498779296875">
        <ele>538</ele>
        <time>2020-08-16T08:38:06.000Z</time>
      </trkpt>
      <trkpt lat="42.41530068218708038330078125" lon="0.13829126022756099700927734375">
        <ele>537.79998779296875</ele>
        <time>2020-08-16T08:38:10.000Z</time>
      </trkpt>
      <trkpt lat="42.41515089757740497589111328125" lon="0.138431154191493988037109375">
        <ele>537.20001220703125</ele>
        <time>2020-08-16T08:38:14.000Z</time>
      </trkpt>
      <trkpt lat="42.4148814193904399871826171875" lon="0.13876249082386493682861328125">
        <ele>536.79998779296875</ele>
        <time>2020-08-16T08:38:22.000Z</time>
      </trkpt>
      <trkpt lat="42.41461512632668018341064453125" lon="0.13915644027292728424072265625">
        <ele>536.4000244140625</ele>
        <time>2020-08-16T08:38:30.000Z</time>
      </trkpt>
      <trkpt lat="42.414554692804813385009765625" lon="0.13927127234637737274169921875">
        <ele>535.79998779296875</ele>
        <time>2020-08-16T08:38:32.000Z</time>
      </trkpt>
      <trkpt lat="42.41452041082084178924560546875" lon="0.13940823264420032501220703125">
        <ele>535.5999755859375</ele>
        <time>2020-08-16T08:38:34.000Z</time>
      </trkpt>
      <trkpt lat="42.4145127832889556884765625" lon="0.13948031701147556304931640625">
        <ele>535.5999755859375</ele>
        <time>2020-08-16T08:38:35.000Z</time>
      </trkpt>
      <trkpt lat="42.4145360849797725677490234375" lon="0.13975859619677066802978515625">
        <ele>535.20001220703125</ele>
        <time>2020-08-16T08:38:39.000Z</time>
      </trkpt>
      <trkpt lat="42.41454689763486385345458984375" lon="0.139819867908954620361328125">
        <ele>535</ele>
        <time>2020-08-16T08:38:40.000Z</time>
      </trkpt>
      <trkpt lat="42.4145977757871150970458984375" lon="0.140054225921630859375">
        <ele>534.5999755859375</ele>
        <time>2020-08-16T08:38:44.000Z</time>
      </trkpt>
      <trkpt lat="42.4146068282425403594970703125" lon="0.1400986500084400177001953125">
        <ele>534.5999755859375</ele>
        <time>2020-08-16T08:38:45.000Z</time>
      </trkpt>
      <trkpt lat="42.4147047288715839385986328125" lon="0.1402890868484973907470703125">
        <ele>534.4000244140625</ele>
        <time>2020-08-16T08:38:50.000Z</time>
      </trkpt>
      <trkpt lat="42.41487043909728527069091796875" lon="0.1404386200010776519775390625">
        <ele>534.20001220703125</ele>
        <time>2020-08-16T08:38:58.000Z</time>
      </trkpt>
      <trkpt lat="42.41496196947991847991943359375" lon="0.140491425991058349609375">
        <ele>534.20001220703125</ele>
        <time>2020-08-16T08:39:02.000Z</time>
      </trkpt>
      <trkpt lat="42.41512172855436801910400390625" lon="0.1405777595937252044677734375">
        <ele>534.5999755859375</ele>
        <time>2020-08-16T08:39:08.000Z</time>
      </trkpt>
      <trkpt lat="42.4152503907680511474609375" lon="0.14064758084714412689208984375">
        <ele>534.79998779296875</ele>
        <time>2020-08-16T08:39:13.000Z</time>
      </trkpt>
      <trkpt lat="42.41540654562413692474365234375" lon="0.14075989834964275360107421875">
        <ele>535.20001220703125</ele>
        <time>2020-08-16T08:39:18.000Z</time>
      </trkpt>
      <trkpt lat="42.4156057834625244140625" lon="0.14084220863878726959228515625">
        <ele>535.5999755859375</ele>
        <time>2020-08-16T08:39:24.000Z</time>
      </trkpt>
      <trkpt lat="42.41563654504716396331787109375" lon="0.140840448439121246337890625">
        <ele>535.5999755859375</ele>
        <time>2020-08-16T08:39:25.000Z</time>
      </trkpt>
      <trkpt lat="42.4158912710845470428466796875" lon="0.1408422924578189849853515625">
        <ele>536.4000244140625</ele>
        <time>2020-08-16T08:39:33.000Z</time>
      </trkpt>
      <trkpt lat="42.41594701074063777923583984375" lon="0.1408265344798564910888671875">
        <ele>536.79998779296875</ele>
        <time>2020-08-16T08:39:35.000Z</time>
      </trkpt>
      <trkpt lat="42.4160776846110820770263671875" lon="0.140774734318256378173828125">
        <ele>537.5999755859375</ele>
        <time>2020-08-16T08:39:40.000Z</time>
      </trkpt>
      <trkpt lat="42.416134178638458251953125" lon="0.14076610095798969268798828125">
        <ele>537.79998779296875</ele>
        <time>2020-08-16T08:39:42.000Z</time>
      </trkpt>
      <trkpt lat="42.41632922552525997161865234375" lon="0.14070524834096431732177734375">
        <ele>538.5999755859375</ele>
        <time>2020-08-16T08:39:49.000Z</time>
      </trkpt>
      <trkpt lat="42.41638697683811187744140625" lon="0.1406872272491455078125">
        <ele>538.79998779296875</ele>
        <time>2020-08-16T08:39:51.000Z</time>
      </trkpt>
      <trkpt lat="42.4166060797870159149169921875" lon="0.140594355762004852294921875">
        <ele>539.79998779296875</ele>
        <time>2020-08-16T08:39:59.000Z</time>
      </trkpt>
      <trkpt lat="42.41684521548449993133544921875" lon="0.14050173573195934295654296875">
        <ele>541</ele>
        <time>2020-08-16T08:40:08.000Z</time>
      </trkpt>
      <trkpt lat="42.416898943483829498291015625" lon="0.140479020774364471435546875">
        <ele>541.20001220703125</ele>
        <time>2020-08-16T08:40:10.000Z</time>
      </trkpt>
      <trkpt lat="42.41706029511988162994384765625" lon="0.14041255228221416473388671875">
        <ele>542</ele>
        <time>2020-08-16T08:40:16.000Z</time>
      </trkpt>
      <trkpt lat="42.41719088517129421234130859375" lon="0.140359662473201751708984375">
        <ele>543</ele>
        <time>2020-08-16T08:40:21.000Z</time>
      </trkpt>
      <trkpt lat="42.4172427691519260406494140625" lon="0.14033761806786060333251953125">
        <ele>543.20001220703125</ele>
        <time>2020-08-16T08:40:23.000Z</time>
      </trkpt>
      <trkpt lat="42.41737134754657745361328125" lon="0.14028447680175304412841796875">
        <ele>544</ele>
        <time>2020-08-16T08:40:28.000Z</time>
      </trkpt>
      <trkpt lat="42.41742440499365329742431640625" lon="0.140263773500919342041015625">
        <ele>544.20001220703125</ele>
        <time>2020-08-16T08:40:30.000Z</time>
      </trkpt>
      <trkpt lat="42.41763914935290813446044921875" lon="0.14019998721778392791748046875">
        <ele>545.4000244140625</ele>
        <time>2020-08-16T08:40:38.000Z</time>
      </trkpt>
      <trkpt lat="42.41783411242067813873291015625" lon="0.14013712294399738311767578125">
        <ele>546.4000244140625</ele>
        <time>2020-08-16T08:40:45.000Z</time>
      </trkpt>
      <trkpt lat="42.4179217033088207244873046875" lon="0.14010627754032611846923828125">
        <ele>546.4000244140625</ele>
        <time>2020-08-16T08:40:48.000Z</time>
      </trkpt>
      <trkpt lat="42.4182593263685703277587890625" lon="0.14002229087054729461669921875">
        <ele>546.79998779296875</ele>
        <time>2020-08-16T08:40:59.000Z</time>
      </trkpt>
      <trkpt lat="42.41853810846805572509765625" lon="0.13998976908624172210693359375">
        <ele>547</ele>
        <time>2020-08-16T08:41:07.000Z</time>
      </trkpt>
      <trkpt lat="42.418907582759857177734375" lon="0.1399501226842403411865234375">
        <ele>546.79998779296875</ele>
        <time>2020-08-16T08:41:17.000Z</time>
      </trkpt>
      <trkpt lat="42.41929792799055576324462890625" lon="0.13990997336804866790771484375">
        <ele>546.79998779296875</ele>
        <time>2020-08-16T08:41:27.000Z</time>
      </trkpt>
      <trkpt lat="42.41968181915581226348876953125" lon="0.13987141661345958709716796875">
        <ele>546.4000244140625</ele>
        <time>2020-08-16T08:41:36.000Z</time>
      </trkpt>
      <trkpt lat="42.4200798757374286651611328125" lon="0.13980553485453128814697265625">
        <ele>545.4000244140625</ele>
        <time>2020-08-16T08:41:43.000Z</time>
      </trkpt>
      <trkpt lat="42.42041691206395626068115234375" lon="0.139744766056537628173828125">
        <ele>544.20001220703125</ele>
        <time>2020-08-16T08:41:48.000Z</time>
      </trkpt>
      <trkpt lat="42.420629560947418212890625" lon="0.13970612548291683197021484375">
        <ele>543.4000244140625</ele>
        <time>2020-08-16T08:41:51.000Z</time>
      </trkpt>
      <trkpt lat="42.42070022039115428924560546875" lon="0.1396933011710643768310546875">
        <ele>543.20001220703125</ele>
        <time>2020-08-16T08:41:52.000Z</time>
      </trkpt>
      <trkpt lat="42.42121336050331592559814453125" lon="0.139599926769733428955078125">
        <ele>542.79998779296875</ele>
        <time>2020-08-16T08:42:00.000Z</time>
      </trkpt>
      <trkpt lat="42.42157177068293094635009765625" lon="0.1395236514508724212646484375">
        <ele>543</ele>
        <time>2020-08-16T08:42:07.000Z</time>
      </trkpt>
      <trkpt lat="42.42187553085386753082275390625" lon="0.13943304307758808135986328125">
        <ele>543.4000244140625</ele>
        <time>2020-08-16T08:42:14.000Z</time>
      </trkpt>
      <trkpt lat="42.42239244282245635986328125" lon="0.139211006462574005126953125">
        <ele>543.4000244140625</ele>
        <time>2020-08-16T08:42:26.000Z</time>
      </trkpt>
      <trkpt lat="42.42243275977671146392822265625" lon="0.1391900517046451568603515625">
        <ele>543.5999755859375</ele>
        <time>2020-08-16T08:42:27.000Z</time>
      </trkpt>
      <trkpt lat="42.42273853160440921783447265625" lon="0.13901964761316776275634765625">
        <ele>543.5999755859375</ele>
        <time>2020-08-16T08:42:35.000Z</time>
      </trkpt>
      <trkpt lat="42.42318369448184967041015625" lon="0.1387437991797924041748046875">
        <ele>543.4000244140625</ele>
        <time>2020-08-16T08:42:46.000Z</time>
      </trkpt>
      <trkpt lat="42.4235627241432666778564453125" lon="0.13850768096745014190673828125">
        <ele>542.79998779296875</ele>
        <time>2020-08-16T08:42:55.000Z</time>
      </trkpt>
      <trkpt lat="42.42393932305276393890380859375" lon="0.1382656954228878021240234375">
        <ele>542.4000244140625</ele>
        <time>2020-08-16T08:43:04.000Z</time>
      </trkpt>
      <trkpt lat="42.42416244931519031524658203125" lon="0.13814692385494709014892578125">
        <ele>541.79998779296875</ele>
        <time>2020-08-16T08:43:09.000Z</time>
      </trkpt>
      <trkpt lat="42.42432807572185993194580078125" lon="0.138050951063632965087890625">
        <ele>541.79998779296875</ele>
        <time>2020-08-16T08:43:13.000Z</time>
      </trkpt>
      <trkpt lat="42.42480131797492504119873046875" lon="0.13778172433376312255859375">
        <ele>542</ele>
        <time>2020-08-16T08:43:25.000Z</time>
      </trkpt>
      <trkpt lat="42.4251375161111354827880859375" lon="0.1376093924045562744140625">
        <ele>543</ele>
        <time>2020-08-16T08:43:34.000Z</time>
      </trkpt>
      <trkpt lat="42.4255098402500152587890625" lon="0.1374221406877040863037109375">
        <ele>543.79998779296875</ele>
        <time>2020-08-16T08:43:44.000Z</time>
      </trkpt>
      <trkpt lat="42.42554596625268459320068359375" lon="0.1374026946723461151123046875">
        <ele>543.79998779296875</ele>
        <time>2020-08-16T08:43:45.000Z</time>
      </trkpt>
      <trkpt lat="42.42561805061995983123779296875" lon="0.1373641379177570343017578125">
        <ele>544</ele>
        <time>2020-08-16T08:43:47.000Z</time>
      </trkpt>
      <trkpt lat="42.4259411729872226715087890625" lon="0.1371936500072479248046875">
        <ele>544.4000244140625</ele>
        <time>2020-08-16T08:43:56.000Z</time>
      </trkpt>
      <trkpt lat="42.426121719181537628173828125" lon="0.137103460729122161865234375">
        <ele>545</ele>
        <time>2020-08-16T08:44:01.000Z</time>
      </trkpt>
      <trkpt lat="42.4262640438973903656005859375" lon="0.13701955787837505340576171875">
        <ele>545.4000244140625</ele>
        <time>2020-08-16T08:44:05.000Z</time>
      </trkpt>
      <trkpt lat="42.4266469292342662811279296875" lon="0.13675804249942302703857421875">
        <ele>546</ele>
        <time>2020-08-16T08:44:16.000Z</time>
      </trkpt>
      <trkpt lat="42.42694892920553684234619140625" lon="0.13652653433382511138916015625">
        <ele>546.79998779296875</ele>
        <time>2020-08-16T08:44:25.000Z</time>
      </trkpt>
      <trkpt lat="42.42718714289367198944091796875" lon="0.1363455690443515777587890625">
        <ele>547</ele>
        <time>2020-08-16T08:44:32.000Z</time>
      </trkpt>
      <trkpt lat="42.4272532761096954345703125" lon="0.1362875662744045257568359375">
        <ele>547</ele>
        <time>2020-08-16T08:44:34.000Z</time>
      </trkpt>
      <trkpt lat="42.4274928309023380279541015625" lon="0.1360939443111419677734375">
        <ele>547.5999755859375</ele>
        <time>2020-08-16T08:44:41.000Z</time>
      </trkpt>
      <trkpt lat="42.42776650004088878631591796875" lon="0.13587811030447483062744140625">
        <ele>548.20001220703125</ele>
        <time>2020-08-16T08:44:49.000Z</time>
      </trkpt>
      <trkpt lat="42.4281134270131587982177734375" lon="0.1356129907071590423583984375">
        <ele>548.79998779296875</ele>
        <time>2020-08-16T08:44:59.000Z</time>
      </trkpt>
      <trkpt lat="42.42831744253635406494140625" lon="0.13545985333621501922607421875">
        <ele>549.20001220703125</ele>
        <time>2020-08-16T08:45:05.000Z</time>
      </trkpt>
      <trkpt lat="42.42849136702716350555419921875" lon="0.1353414170444011688232421875">
        <ele>549.4000244140625</ele>
        <time>2020-08-16T08:45:10.000Z</time>
      </trkpt>
      <trkpt lat="42.42887592874467372894287109375" lon="0.1350748725235462188720703125">
        <ele>550.20001220703125</ele>
        <time>2020-08-16T08:45:21.000Z</time>
      </trkpt>
      <trkpt lat="42.428911216557025909423828125" lon="0.135051570832729339599609375">
        <ele>550.20001220703125</ele>
        <time>2020-08-16T08:45:22.000Z</time>
      </trkpt>
      <trkpt lat="42.42925487458705902099609375" lon="0.13481997884809970855712890625">
        <ele>551</ele>
        <time>2020-08-16T08:45:32.000Z</time>
      </trkpt>
      <trkpt lat="42.4293948523700237274169921875" lon="0.1347402669489383697509765625">
        <ele>551.20001220703125</ele>
        <time>2020-08-16T08:45:36.000Z</time>
      </trkpt>
      <trkpt lat="42.42960062809288501739501953125" lon="0.13460573740303516387939453125">
        <ele>552</ele>
        <time>2020-08-16T08:45:42.000Z</time>
      </trkpt>
      <trkpt lat="42.42984806187450885772705078125" lon="0.13445452786982059478759765625">
        <ele>552.4000244140625</ele>
        <time>2020-08-16T08:45:49.000Z</time>
      </trkpt>
      <trkpt lat="42.42998577654361724853515625" lon="0.1343639194965362548828125">
        <ele>552.4000244140625</ele>
        <time>2020-08-16T08:45:53.000Z</time>
      </trkpt>
      <trkpt lat="42.43032633326947689056396484375" lon="0.1341518573462963104248046875">
        <ele>553.20001220703125</ele>
        <time>2020-08-16T08:46:03.000Z</time>
      </trkpt>
      <trkpt lat="42.430360279977321624755859375" lon="0.1341307349503040313720703125">
        <ele>553.4000244140625</ele>
        <time>2020-08-16T08:46:04.000Z</time>
      </trkpt>
      <trkpt lat="42.43074174039065837860107421875" lon="0.133883468806743621826171875">
        <ele>554.4000244140625</ele>
        <time>2020-08-16T08:46:15.000Z</time>
      </trkpt>
      <trkpt lat="42.43077593855559825897216796875" lon="0.13385991565883159637451171875">
        <ele>554.5999755859375</ele>
        <time>2020-08-16T08:46:16.000Z</time>
      </trkpt>
      <trkpt lat="42.43112127296626567840576171875" lon="0.13362832367420196533203125">
        <ele>555.20001220703125</ele>
        <time>2020-08-16T08:46:26.000Z</time>
      </trkpt>
      <trkpt lat="42.43119033984839916229248046875" lon="0.13358272612094879150390625">
        <ele>555.5999755859375</ele>
        <time>2020-08-16T08:46:28.000Z</time>
      </trkpt>
      <trkpt lat="42.4314923398196697235107421875" lon="0.1333713345229625701904296875">
        <ele>556.4000244140625</ele>
        <time>2020-08-16T08:46:37.000Z</time>
      </trkpt>
      <trkpt lat="42.43152544833719730377197265625" lon="0.13334744609892368316650390625">
        <ele>556.5999755859375</ele>
        <time>2020-08-16T08:46:38.000Z</time>
      </trkpt>
      <trkpt lat="42.4318514205515384674072265625" lon="0.1331202127039432525634765625">
        <ele>557.5999755859375</ele>
        <time>2020-08-16T08:46:48.000Z</time>
      </trkpt>
      <trkpt lat="42.4321099184453487396240234375" lon="0.1329348050057888031005859375">
        <ele>558.5999755859375</ele>
        <time>2020-08-16T08:46:56.000Z</time>
      </trkpt>
      <trkpt lat="42.4321776442229747772216796875" lon="0.1328871957957744598388671875">
        <ele>558.79998779296875</ele>
        <time>2020-08-16T08:46:58.000Z</time>
      </trkpt>
      <trkpt lat="42.43257536552846431732177734375" lon="0.13260849751532077789306640625">
        <ele>559</ele>
        <time>2020-08-16T08:47:09.000Z</time>
      </trkpt>
      <trkpt lat="42.432919777929782867431640625" lon="0.132366009056568145751953125">
        <ele>558.79998779296875</ele>
        <time>2020-08-16T08:47:18.000Z</time>
      </trkpt>
      <trkpt lat="42.4332672916352748870849609375" lon="0.1321256160736083984375">
        <ele>558.79998779296875</ele>
        <time>2020-08-16T08:47:27.000Z</time>
      </trkpt>
      <trkpt lat="42.43370038457214832305908203125" lon="0.13182143680751323699951171875">
        <ele>558.79998779296875</ele>
        <time>2020-08-16T08:47:38.000Z</time>
      </trkpt>
      <trkpt lat="42.43407656438648700714111328125" lon="0.13158406130969524383544921875">
        <ele>558.5999755859375</ele>
        <time>2020-08-16T08:47:47.000Z</time>
      </trkpt>
      <trkpt lat="42.434442602097988128662109375" lon="0.13136965222656726837158203125">
        <ele>558.79998779296875</ele>
        <time>2020-08-16T08:47:56.000Z</time>
      </trkpt>
      <trkpt lat="42.4347260780632495880126953125" lon="0.1312632858753204345703125">
        <ele>559.5999755859375</ele>
        <time>2020-08-16T08:48:03.000Z</time>
      </trkpt>
      <trkpt lat="42.43491291068494319915771484375" lon="0.131203942000865936279296875">
        <ele>560</ele>
        <time>2020-08-16T08:48:08.000Z</time>
      </trkpt>
      <trkpt lat="42.43509513325989246368408203125" lon="0.13115658424794673919677734375">
        <ele>560.5999755859375</ele>
        <time>2020-08-16T08:48:13.000Z</time>
      </trkpt>
      <trkpt lat="42.4353481829166412353515625" lon="0.1311088912189006805419921875">
        <ele>561.5999755859375</ele>
        <time>2020-08-16T08:48:20.000Z</time>
      </trkpt>
      <trkpt lat="42.43542018346488475799560546875" lon="0.13109891675412654876708984375">
        <ele>561.79998779296875</ele>
        <time>2020-08-16T08:48:22.000Z</time>
      </trkpt>
      <trkpt lat="42.4357563816010951995849609375" lon="0.131051056087017059326171875">
        <ele>562.20001220703125</ele>
        <time>2020-08-16T08:48:31.000Z</time>
      </trkpt>
      <trkpt lat="42.43616265244781970977783203125" lon="0.13099129311740398406982421875">
        <ele>562.5999755859375</ele>
        <time>2020-08-16T08:48:41.000Z</time>
      </trkpt>
      <trkpt lat="42.43645082227885723114013671875" lon="0.13095173053443431854248046875">
        <ele>562.79998779296875</ele>
        <time>2020-08-16T08:48:48.000Z</time>
      </trkpt>
      <trkpt lat="42.43665534071624279022216796875" lon="0.13092138804495334625244140625">
        <ele>563</ele>
        <time>2020-08-16T08:48:53.000Z</time>
      </trkpt>
      <trkpt lat="42.43715004064142704010009765625" lon="0.1308524049818515777587890625">
        <ele>563.20001220703125</ele>
        <time>2020-08-16T08:49:05.000Z</time>
      </trkpt>
      <trkpt lat="42.4376986362040042877197265625" lon="0.1307732798159122467041015625">
        <ele>563.79998779296875</ele>
        <time>2020-08-16T08:49:18.000Z</time>
      </trkpt>
      <trkpt lat="42.43778103031218051910400390625" lon="0.13076238334178924560546875">
        <ele>564</ele>
        <time>2020-08-16T08:49:20.000Z</time>
      </trkpt>
      <trkpt lat="42.43817028589546680450439453125" lon="0.1307085715234279632568359375">
        <ele>564.79998779296875</ele>
        <time>2020-08-16T08:49:30.000Z</time>
      </trkpt>
      <trkpt lat="42.43832518346607685089111328125" lon="0.13068971224129199981689453125">
        <ele>565</ele>
        <time>2020-08-16T08:49:34.000Z</time>
      </trkpt>
      <trkpt lat="42.43858753703534603118896484375" lon="0.1306515745818614959716796875">
        <ele>565.5999755859375</ele>
        <time>2020-08-16T08:49:41.000Z</time>
      </trkpt>
      <trkpt lat="42.438847124576568603515625" lon="0.13061880134046077728271484375">
        <ele>566.20001220703125</ele>
        <time>2020-08-16T08:49:48.000Z</time>
      </trkpt>
      <trkpt lat="42.43899791501462459564208984375" lon="0.13059466145932674407958984375">
        <ele>566.5999755859375</ele>
        <time>2020-08-16T08:49:52.000Z</time>
      </trkpt>
      <trkpt lat="42.439302764832973480224609375" lon="0.1305523328483104705810546875">
        <ele>567.20001220703125</ele>
        <time>2020-08-16T08:50:00.000Z</time>
      </trkpt>
      <trkpt lat="42.4393414892256259918212890625" lon="0.13054755516350269317626953125">
        <ele>567.20001220703125</ele>
        <time>2020-08-16T08:50:01.000Z</time>
      </trkpt>
      <trkpt lat="42.43980006314814090728759765625" lon="0.13047748245298862457275390625">
        <ele>568</ele>
        <time>2020-08-16T08:50:13.000Z</time>
      </trkpt>
      <trkpt lat="42.44017724879086017608642578125" lon="0.13042601756751537322998046875">
        <ele>569</ele>
        <time>2020-08-16T08:50:23.000Z</time>
      </trkpt>
      <trkpt lat="42.44021614082157611846923828125" lon="0.13041998259723186492919921875">
        <ele>569</ele>
        <time>2020-08-16T08:50:24.000Z</time>
      </trkpt>
      <trkpt lat="42.4405907280743122100830078125" lon="0.13037505559623241424560546875">
        <ele>570</ele>
        <time>2020-08-16T08:50:34.000Z</time>
      </trkpt>
      <trkpt lat="42.44066172279417514801025390625" lon="0.13037052936851978302001953125">
        <ele>570.20001220703125</ele>
        <time>2020-08-16T08:50:36.000Z</time>
      </trkpt>
      <trkpt lat="42.44090077467262744903564453125" lon="0.1303446292877197265625">
        <ele>571.20001220703125</ele>
        <time>2020-08-16T08:50:43.000Z</time>
      </trkpt>
      <trkpt lat="42.440969087183475494384765625" lon="0.13034303672611713409423828125">
        <ele>571.5999755859375</ele>
        <time>2020-08-16T08:50:45.000Z</time>
      </trkpt>
      <trkpt lat="42.44113161228597164154052734375" lon="0.13034261763095855712890625">
        <ele>572.4000244140625</ele>
        <time>2020-08-16T08:50:50.000Z</time>
      </trkpt>
      <trkpt lat="42.44128634221851825714111328125" lon="0.1303491555154323577880859375">
        <ele>573</ele>
        <time>2020-08-16T08:50:55.000Z</time>
      </trkpt>
      <trkpt lat="42.4413870088756084442138671875" lon="0.1303575374186038970947265625">
        <ele>573.5999755859375</ele>
        <time>2020-08-16T08:50:58.000Z</time>
      </trkpt>
      <trkpt lat="42.44159814901649951934814453125" lon="0.13038494624197483062744140625">
        <ele>574</ele>
        <time>2020-08-16T08:51:04.000Z</time>
      </trkpt>
      <trkpt lat="42.44191213510930538177490234375" lon="0.13046742416918277740478515625">
        <ele>574.20001220703125</ele>
        <time>2020-08-16T08:51:12.000Z</time>
      </trkpt>
      <trkpt lat="42.4422969482839107513427734375" lon="0.1306113414466381072998046875">
        <ele>573.79998779296875</ele>
        <time>2020-08-16T08:51:21.000Z</time>
      </trkpt>
      <trkpt lat="42.4427884630858898162841796875" lon="0.130819380283355712890625">
        <ele>573.20001220703125</ele>
        <time>2020-08-16T08:51:32.000Z</time>
      </trkpt>
      <trkpt lat="42.44319288991391658782958984375" lon="0.13099581934511661529541015625">
        <ele>572.5999755859375</ele>
        <time>2020-08-16T08:51:40.000Z</time>
      </trkpt>
      <trkpt lat="42.44344769977033138275146484375" lon="0.13110796920955181121826171875">
        <ele>572.4000244140625</ele>
        <time>2020-08-16T08:51:45.000Z</time>
      </trkpt>
      <trkpt lat="42.44399570859968662261962890625" lon="0.13133394531905651092529296875">
        <ele>572.20001220703125</ele>
        <time>2020-08-16T08:51:56.000Z</time>
      </trkpt>
      <trkpt lat="42.44409495033323764801025390625" lon="0.1313767768442630767822265625">
        <ele>572</ele>
        <time>2020-08-16T08:51:58.000Z</time>
      </trkpt>
      <trkpt lat="42.444251440465450286865234375" lon="0.13144659809768199920654296875">
        <ele>571.5999755859375</ele>
        <time>2020-08-16T08:52:01.000Z</time>
      </trkpt>
      <trkpt lat="42.4445741437375545501708984375" lon="0.1315851509571075439453125">
        <ele>570.5999755859375</ele>
        <time>2020-08-16T08:52:07.000Z</time>
      </trkpt>
      <trkpt lat="42.44499617256224155426025390625" lon="0.13177399523556232452392578125">
        <ele>570.5999755859375</ele>
        <time>2020-08-16T08:52:16.000Z</time>
      </trkpt>
      <trkpt lat="42.4454478733241558074951171875" lon="0.13195596635341644287109375">
        <ele>571.4000244140625</ele>
        <time>2020-08-16T08:52:27.000Z</time>
      </trkpt>
      <trkpt lat="42.4455266632139682769775390625" lon="0.1319889910519123077392578125">
        <ele>571.5999755859375</ele>
        <time>2020-08-16T08:52:29.000Z</time>
      </trkpt>
      <trkpt lat="42.4458659626543521881103515625" lon="0.1321457326412200927734375">
        <ele>572</ele>
        <time>2020-08-16T08:52:38.000Z</time>
      </trkpt>
      <trkpt lat="42.446328811347484588623046875" lon="0.13235854916274547576904296875">
        <ele>572</ele>
        <time>2020-08-16T08:52:49.000Z</time>
      </trkpt>
      <trkpt lat="42.446787469089031219482421875" lon="0.13255384750664234161376953125">
        <ele>572</ele>
        <time>2020-08-16T08:52:59.000Z</time>
      </trkpt>
      <trkpt lat="42.4472043849527835845947265625" lon="0.13272752054035663604736328125">
        <ele>571.79998779296875</ele>
        <time>2020-08-16T08:53:08.000Z</time>
      </trkpt>
      <trkpt lat="42.4476600252091884613037109375" lon="0.132905803620815277099609375">
        <ele>571.4000244140625</ele>
        <time>2020-08-16T08:53:18.000Z</time>
      </trkpt>
      <trkpt lat="42.4480553157627582550048828125" lon="0.1330581866204738616943359375">
        <ele>571.4000244140625</ele>
        <time>2020-08-16T08:53:27.000Z</time>
      </trkpt>
      <trkpt lat="42.448469884693622589111328125" lon="0.13323864899575710296630859375">
        <ele>570.79998779296875</ele>
        <time>2020-08-16T08:53:37.000Z</time>
      </trkpt>
      <trkpt lat="42.44875646196305751800537109375" lon="0.13336454518139362335205078125">
        <ele>570.5999755859375</ele>
        <time>2020-08-16T08:53:44.000Z</time>
      </trkpt>
      <trkpt lat="42.44880004785954952239990234375" lon="0.133384577929973602294921875">
        <ele>570.5999755859375</ele>
        <time>2020-08-16T08:53:45.000Z</time>
      </trkpt>
      <trkpt lat="42.4492063187062740325927734375" lon="0.13353176414966583251953125">
        <ele>570.4000244140625</ele>
        <time>2020-08-16T08:53:54.000Z</time>
      </trkpt>
      <trkpt lat="42.449605464935302734375" lon="0.133688338100910186767578125">
        <ele>570</ele>
        <time>2020-08-16T08:54:04.000Z</time>
      </trkpt>
      <trkpt lat="42.449961192905902862548828125" lon="0.13379286043345928192138671875">
        <ele>570</ele>
        <time>2020-08-16T08:54:13.000Z</time>
      </trkpt>
      <trkpt lat="42.45041205547749996185302734375" lon="0.13388573192059993743896484375">
        <ele>569.79998779296875</ele>
        <time>2020-08-16T08:54:24.000Z</time>
      </trkpt>
      <trkpt lat="42.45068765245378017425537109375" lon="0.13393149711191654205322265625">
        <ele>569.79998779296875</ele>
        <time>2020-08-16T08:54:31.000Z</time>
      </trkpt>
      <trkpt lat="42.45112200267612934112548828125" lon="0.13400592841207981109619140625">
        <ele>570</ele>
        <time>2020-08-16T08:54:41.000Z</time>
      </trkpt>
      <trkpt lat="42.45138703845441341400146484375" lon="0.1340495981276035308837890625">
        <ele>569.5999755859375</ele>
        <time>2020-08-16T08:54:47.000Z</time>
      </trkpt>
      <trkpt lat="42.4516089074313640594482421875" lon="0.13409226201474666595458984375">
        <ele>569.79998779296875</ele>
        <time>2020-08-16T08:54:52.000Z</time>
      </trkpt>
      <trkpt lat="42.4519448541104793548583984375" lon="0.1341713033616542816162109375">
        <ele>569.5999755859375</ele>
        <time>2020-08-16T08:55:00.000Z</time>
      </trkpt>
      <trkpt lat="42.452265881001949310302734375" lon="0.1343188248574733734130859375">
        <ele>569.5999755859375</ele>
        <time>2020-08-16T08:55:08.000Z</time>
      </trkpt>
      <trkpt lat="42.45254575274884700775146484375" lon="0.13446374796330928802490234375">
        <ele>570.5999755859375</ele>
        <time>2020-08-16T08:55:16.000Z</time>
      </trkpt>
      <trkpt lat="42.45257693342864513397216796875" lon="0.13447992503643035888671875">
        <ele>570.79998779296875</ele>
        <time>2020-08-16T08:55:17.000Z</time>
      </trkpt>
      <trkpt lat="42.45276384986937046051025390625" lon="0.134579502046108245849609375">
        <ele>572</ele>
        <time>2020-08-16T08:55:23.000Z</time>
      </trkpt>
      <trkpt lat="42.452793605625629425048828125" lon="0.1345977745950222015380859375">
        <ele>572.20001220703125</ele>
        <time>2020-08-16T08:55:24.000Z</time>
      </trkpt>
      <trkpt lat="42.4529701285064220428466796875" lon="0.1346896402537822723388671875">
        <ele>572.79998779296875</ele>
        <time>2020-08-16T08:55:30.000Z</time>
      </trkpt>
      <trkpt lat="42.45302570052444934844970703125" lon="0.13471126556396484375">
        <ele>573.4000244140625</ele>
        <time>2020-08-16T08:55:32.000Z</time>
      </trkpt>
      <trkpt lat="42.45311253704130649566650390625" lon="0.13476901687681674957275390625">
        <ele>573.79998779296875</ele>
        <time>2020-08-16T08:55:35.000Z</time>
      </trkpt>
      <trkpt lat="42.45331772603094577789306640625" lon="0.1349142752587795257568359375">
        <ele>574.79998779296875</ele>
        <time>2020-08-16T08:55:42.000Z</time>
      </trkpt>
      <trkpt lat="42.45337757281959056854248046875" lon="0.1349580287933349609375">
        <ele>575</ele>
        <time>2020-08-16T08:55:44.000Z</time>
      </trkpt>
      <trkpt lat="42.453561387956142425537109375" lon="0.13512893579900264739990234375">
        <ele>575.20001220703125</ele>
        <time>2020-08-16T08:55:50.000Z</time>
      </trkpt>
      <trkpt lat="42.4538864381611347198486328125" lon="0.13550125993788242340087890625">
        <ele>575</ele>
        <time>2020-08-16T08:56:00.000Z</time>
      </trkpt>
      <trkpt lat="42.45422749780118465423583984375" lon="0.13592831790447235107421875">
        <ele>575</ele>
        <time>2020-08-16T08:56:10.000Z</time>
      </trkpt>
      <trkpt lat="42.45460233651101589202880859375" lon="0.13630877248942852020263671875">
        <ele>574.79998779296875</ele>
        <time>2020-08-16T08:56:20.000Z</time>
      </trkpt>
      <trkpt lat="42.45495806448161602020263671875" lon="0.13650096952915191650390625">
        <ele>575.20001220703125</ele>
        <time>2020-08-16T08:56:28.000Z</time>
      </trkpt>
      <trkpt lat="42.45525419712066650390625" lon="0.13654053211212158203125">
        <ele>575.20001220703125</ele>
        <time>2020-08-16T08:56:34.000Z</time>
      </trkpt>
      <trkpt lat="42.45571210049092769622802734375" lon="0.13648085296154022216796875">
        <ele>574.5999755859375</ele>
        <time>2020-08-16T08:56:43.000Z</time>
      </trkpt>
      <trkpt lat="42.45620981790125370025634765625" lon="0.13640441000461578369140625">
        <ele>574.5999755859375</ele>
        <time>2020-08-16T08:56:53.000Z</time>
      </trkpt>
      <trkpt lat="42.45663897134363651275634765625" lon="0.13634012080729007720947265625">
        <ele>574.79998779296875</ele>
        <time>2020-08-16T08:57:02.000Z</time>
      </trkpt>
      <trkpt lat="42.45716619305312633514404296875" lon="0.1362092792987823486328125">
        <ele>574.4000244140625</ele>
        <time>2020-08-16T08:57:13.000Z</time>
      </trkpt>
      <trkpt lat="42.4576348252594470977783203125" lon="0.13605597428977489471435546875">
        <ele>574.4000244140625</ele>
        <time>2020-08-16T08:57:23.000Z</time>
      </trkpt>
      <trkpt lat="42.45799365453422069549560546875" lon="0.13592957518994808197021484375">
        <ele>574.5999755859375</ele>
        <time>2020-08-16T08:57:31.000Z</time>
      </trkpt>
      <trkpt lat="42.4585360474884510040283203125" lon="0.1357528008520603179931640625">
        <ele>575.20001220703125</ele>
        <time>2020-08-16T08:57:43.000Z</time>
      </trkpt>
      <trkpt lat="42.4590034224092960357666015625" lon="0.13567241840064525604248046875">
        <ele>575.20001220703125</ele>
        <time>2020-08-16T08:57:53.000Z</time>
      </trkpt>
      <trkpt lat="42.459371052682399749755859375" lon="0.13565464876592159271240234375">
        <ele>575.79998779296875</ele>
        <time>2020-08-16T08:58:01.000Z</time>
      </trkpt>
      <trkpt lat="42.45954983867704868316650390625" lon="0.13565900735557079315185546875">
        <ele>576.20001220703125</ele>
        <time>2020-08-16T08:58:05.000Z</time>
      </trkpt>
      <trkpt lat="42.45999324135482311248779296875" lon="0.1356907747685909271240234375">
        <ele>576.5999755859375</ele>
        <time>2020-08-16T08:58:15.000Z</time>
      </trkpt>
      <trkpt lat="42.46031024493277072906494140625" lon="0.1357209496200084686279296875">
        <ele>577</ele>
        <time>2020-08-16T08:58:22.000Z</time>
      </trkpt>
      <trkpt lat="42.46044904924929141998291015625" lon="0.135736204683780670166015625">
        <ele>577</ele>
        <time>2020-08-16T08:58:25.000Z</time>
      </trkpt>
      <trkpt lat="42.46077292598783969879150390625" lon="0.1357655413448810577392578125">
        <ele>577.20001220703125</ele>
        <time>2020-08-16T08:58:32.000Z</time>
      </trkpt>
      <trkpt lat="42.4610050208866596221923828125" lon="0.1357856579124927520751953125">
        <ele>577.5999755859375</ele>
        <time>2020-08-16T08:58:37.000Z</time>
      </trkpt>
      <trkpt lat="42.461568452417850494384765625" lon="0.13586453162133693695068359375">
        <ele>577.79998779296875</ele>
        <time>2020-08-16T08:58:49.000Z</time>
      </trkpt>
      <trkpt lat="42.46161698363721370697021484375" lon="0.1358724944293498992919921875">
        <ele>578</ele>
        <time>2020-08-16T08:58:50.000Z</time>
      </trkpt>
      <trkpt lat="42.4616648443043231964111328125" lon="0.13588137924671173095703125">
        <ele>578</ele>
        <time>2020-08-16T08:58:51.000Z</time>
      </trkpt>
      <trkpt lat="42.46219349093735218048095703125" lon="0.1359821297228336334228515625">
        <ele>578.4000244140625</ele>
        <time>2020-08-16T08:59:02.000Z</time>
      </trkpt>
      <trkpt lat="42.462568581104278564453125" lon="0.13605731539428234100341796875">
        <ele>579</ele>
        <time>2020-08-16T08:59:10.000Z</time>
      </trkpt>
      <trkpt lat="42.4628067947924137115478515625" lon="0.13610676862299442291259765625">
        <ele>579.20001220703125</ele>
        <time>2020-08-16T08:59:15.000Z</time>
      </trkpt>
      <trkpt lat="42.46320770122110843658447265625" lon="0.13622160069644451141357421875">
        <ele>580</ele>
        <time>2020-08-16T08:59:24.000Z</time>
      </trkpt>
      <trkpt lat="42.46329319663345813751220703125" lon="0.13625579886138439178466796875">
        <ele>580.20001220703125</ele>
        <time>2020-08-16T08:59:26.000Z</time>
      </trkpt>
      <trkpt lat="42.46353995986282825469970703125" lon="0.1363861374557018280029296875">
        <ele>581</ele>
        <time>2020-08-16T08:59:32.000Z</time>
      </trkpt>
      <trkpt lat="42.46369183994829654693603515625" lon="0.1364887319505214691162109375">
        <ele>581.4000244140625</ele>
        <time>2020-08-16T08:59:36.000Z</time>
      </trkpt>
      <trkpt lat="42.4638706259429454803466796875" lon="0.13662694953382015228271484375">
        <ele>582</ele>
        <time>2020-08-16T08:59:41.000Z</time>
      </trkpt>
      <trkpt lat="42.46400850825011730194091796875" lon="0.1367411948740482330322265625">
        <ele>582.4000244140625</ele>
        <time>2020-08-16T08:59:45.000Z</time>
      </trkpt>
      <trkpt lat="42.4642404355108737945556640625" lon="0.1369477249681949615478515625">
        <ele>583</ele>
        <time>2020-08-16T08:59:52.000Z</time>
      </trkpt>
      <trkpt lat="42.46436825953423976898193359375" lon="0.137066580355167388916015625">
        <ele>583.4000244140625</ele>
        <time>2020-08-16T08:59:56.000Z</time>
      </trkpt>
      <trkpt lat="42.46452567167580127716064453125" lon="0.13720898889005184173583984375">
        <ele>584.20001220703125</ele>
        <time>2020-08-16T09:00:01.000Z</time>
      </trkpt>
      <trkpt lat="42.46471325866878032684326171875" lon="0.1373760402202606201171875">
        <ele>584.79998779296875</ele>
        <time>2020-08-16T09:00:07.000Z</time>
      </trkpt>
      <trkpt lat="42.4648067168891429901123046875" lon="0.13746128417551517486572265625">
        <ele>585.4000244140625</ele>
        <time>2020-08-16T09:00:10.000Z</time>
      </trkpt>
      <trkpt lat="42.4650896899402141571044921875" lon="0.1377205364406108856201171875">
        <ele>586.20001220703125</ele>
        <time>2020-08-16T09:00:19.000Z</time>
      </trkpt>
      <trkpt lat="42.46517979539930820465087890625" lon="0.1378097198903560638427734375">
        <ele>586.4000244140625</ele>
        <time>2020-08-16T09:00:22.000Z</time>
      </trkpt>
      <trkpt lat="42.46546578593552112579345703125" lon="0.13815186917781829833984375">
        <ele>587.4000244140625</ele>
        <time>2020-08-16T09:00:32.000Z</time>
      </trkpt>
      <trkpt lat="42.465492524206638336181640625" lon="0.1381909288465976715087890625">
        <ele>587.4000244140625</ele>
        <time>2020-08-16T09:00:33.000Z</time>
      </trkpt>
      <trkpt lat="42.465733252465724945068359375" lon="0.13858697377145290374755859375">
        <ele>587.5999755859375</ele>
        <time>2020-08-16T09:00:42.000Z</time>
      </trkpt>
      <trkpt lat="42.46591530740261077880859375" lon="0.13898343779146671295166015625">
        <ele>587.20001220703125</ele>
        <time>2020-08-16T09:00:49.000Z</time>
      </trkpt>
      <trkpt lat="42.4660138785839080810546875" lon="0.13927169144153594970703125">
        <ele>586.4000244140625</ele>
        <time>2020-08-16T09:00:53.000Z</time>
      </trkpt>
      <trkpt lat="42.46608587913215160369873046875" lon="0.13951183296740055084228515625">
        <ele>585.79998779296875</ele>
        <time>2020-08-16T09:00:56.000Z</time>
      </trkpt>
      <trkpt lat="42.466135583817958831787109375" lon="0.13968215323984622955322265625">
        <ele>585</ele>
        <time>2020-08-16T09:00:58.000Z</time>
      </trkpt>
      <trkpt lat="42.4662685208022594451904296875" lon="0.14014768414199352264404296875">
        <ele>584</ele>
        <time>2020-08-16T09:01:03.000Z</time>
      </trkpt>
      <trkpt lat="42.466380335390567779541015625" lon="0.14054574072360992431640625">
        <ele>582.79998779296875</ele>
        <time>2020-08-16T09:01:07.000Z</time>
      </trkpt>
      <trkpt lat="42.46651084162294864654541015625" lon="0.140951089560985565185546875">
        <ele>581.5999755859375</ele>
        <time>2020-08-16T09:01:11.000Z</time>
      </trkpt>
      <trkpt lat="42.46672776527702808380126953125" lon="0.1414441131055355072021484375">
        <ele>580.4000244140625</ele>
        <time>2020-08-16T09:01:16.000Z</time>
      </trkpt>
      <trkpt lat="42.466779649257659912109375" lon="0.1415383256971836090087890625">
        <ele>580</ele>
        <time>2020-08-16T09:01:17.000Z</time>
      </trkpt>
      <trkpt lat="42.46689339168369770050048828125" lon="0.141716189682483673095703125">
        <ele>579.20001220703125</ele>
        <time>2020-08-16T09:01:19.000Z</time>
      </trkpt>
      <trkpt lat="42.467086426913738250732421875" lon="0.14195197261869907379150390625">
        <ele>578.20001220703125</ele>
        <time>2020-08-16T09:01:22.000Z</time>
      </trkpt>
      <trkpt lat="42.46715406887233257293701171875" lon="0.1420227997004985809326171875">
        <ele>578</ele>
        <time>2020-08-16T09:01:23.000Z</time>
      </trkpt>
      <trkpt lat="42.46753628365695476531982421875" lon="0.14239252544939517974853515625">
        <ele>577.20001220703125</ele>
        <time>2020-08-16T09:01:29.000Z</time>
      </trkpt>
      <trkpt lat="42.467908523976802825927734375" lon="0.1427315734326839447021484375">
        <ele>577.20001220703125</ele>
        <time>2020-08-16T09:01:36.000Z</time>
      </trkpt>
      <trkpt lat="42.468265593051910400390625" lon="0.14305092394351959228515625">
        <ele>577.4000244140625</ele>
        <time>2020-08-16T09:01:44.000Z</time>
      </trkpt>
      <trkpt lat="42.46866582892835140228271484375" lon="0.1433922350406646728515625">
        <ele>577.79998779296875</ele>
        <time>2020-08-16T09:01:54.000Z</time>
      </trkpt>
      <trkpt lat="42.4690040387213230133056640625" lon="0.14366355724632740020751953125">
        <ele>578.20001220703125</ele>
        <time>2020-08-16T09:02:03.000Z</time>
      </trkpt>
      <trkpt lat="42.4692534841597080230712890625" lon="0.1438517309725284576416015625">
        <ele>579</ele>
        <time>2020-08-16T09:02:10.000Z</time>
      </trkpt>
      <trkpt lat="42.46932447887957096099853515625" lon="0.14390612952411174774169921875">
        <ele>579.20001220703125</ele>
        <time>2020-08-16T09:02:12.000Z</time>
      </trkpt>
      <trkpt lat="42.46965690515935420989990234375" lon="0.14412741176784038543701171875">
        <ele>580</ele>
        <time>2020-08-16T09:02:21.000Z</time>
      </trkpt>
      <trkpt lat="42.46969345025718212127685546875" lon="0.14415062963962554931640625">
        <ele>580.20001220703125</ele>
        <time>2020-08-16T09:02:22.000Z</time>
      </trkpt>
      <trkpt lat="42.47006468474864959716796875" lon="0.14437400735914707183837890625">
        <ele>581</ele>
        <time>2020-08-16T09:02:32.000Z</time>
      </trkpt>
      <trkpt lat="42.47010366059839725494384765625" lon="0.14439496211707592010498046875">
        <ele>581</ele>
        <time>2020-08-16T09:02:33.000Z</time>
      </trkpt>
      <trkpt lat="42.47047330252826213836669921875" lon="0.14461356215178966522216796875">
        <ele>581.4000244140625</ele>
        <time>2020-08-16T09:02:42.000Z</time>
      </trkpt>
      <trkpt lat="42.470950148999691009521484375" lon="0.14490039087831974029541015625">
        <ele>580.4000244140625</ele>
        <time>2020-08-16T09:02:52.000Z</time>
      </trkpt>
      <trkpt lat="42.47115366160869598388671875" lon="0.145024359226226806640625">
        <ele>580</ele>
        <time>2020-08-16T09:02:56.000Z</time>
      </trkpt>
      <trkpt lat="42.4714166857302188873291015625" lon="0.14518587850034236907958984375">
        <ele>579.4000244140625</ele>
        <time>2020-08-16T09:03:01.000Z</time>
      </trkpt>
      <trkpt lat="42.4715794622898101806640625" lon="0.14529651962220668792724609375">
        <ele>578.79998779296875</ele>
        <time>2020-08-16T09:03:04.000Z</time>
      </trkpt>
      <trkpt lat="42.4717942066490650177001953125" lon="0.1454843580722808837890625">
        <ele>578</ele>
        <time>2020-08-16T09:03:08.000Z</time>
      </trkpt>
      <trkpt lat="42.4718463420867919921875" lon="0.14553892426192760467529296875">
        <ele>577.79998779296875</ele>
        <time>2020-08-16T09:03:09.000Z</time>
      </trkpt>
      <trkpt lat="42.47222763486206531524658203125" lon="0.1460028626024723052978515625">
        <ele>577.20001220703125</ele>
        <time>2020-08-16T09:03:17.000Z</time>
      </trkpt>
      <trkpt lat="42.47238856740295886993408203125" lon="0.1462244801223278045654296875">
        <ele>577.4000244140625</ele>
        <time>2020-08-16T09:03:21.000Z</time>
      </trkpt>
      <trkpt lat="42.47246668674051761627197265625" lon="0.14631927944719791412353515625">
        <ele>577.5999755859375</ele>
        <time>2020-08-16T09:03:23.000Z</time>
      </trkpt>
      <trkpt lat="42.47275896370410919189453125" lon="0.14665120281279087066650390625">
        <ele>578.20001220703125</ele>
        <time>2020-08-16T09:03:31.000Z</time>
      </trkpt>
      <trkpt lat="42.47290405444800853729248046875" lon="0.1467874087393283843994140625">
        <ele>578.79998779296875</ele>
        <time>2020-08-16T09:03:35.000Z</time>
      </trkpt>
      <trkpt lat="42.47306046076118946075439453125" lon="0.146898888051509857177734375">
        <ele>579</ele>
        <time>2020-08-16T09:03:39.000Z</time>
      </trkpt>
      <trkpt lat="42.47342373244464397430419921875" lon="0.14711589552462100982666015625">
        <ele>579.79998779296875</ele>
        <time>2020-08-16T09:03:48.000Z</time>
      </trkpt>
      <trkpt lat="42.4734645523130893707275390625" lon="0.14713886193931102752685546875">
        <ele>579.79998779296875</ele>
        <time>2020-08-16T09:03:49.000Z</time>
      </trkpt>
      <trkpt lat="42.47358332388103008270263671875" lon="0.14721396379172801971435546875">
        <ele>580</ele>
        <time>2020-08-16T09:03:52.000Z</time>
      </trkpt>
      <trkpt lat="42.47370284982025623321533203125" lon="0.1472852937877178192138671875">
        <ele>580.4000244140625</ele>
        <time>2020-08-16T09:03:55.000Z</time>
      </trkpt>
      <trkpt lat="42.4738668836653232574462890625" lon="0.14737472869455814361572265625">
        <ele>581</ele>
        <time>2020-08-16T09:03:59.000Z</time>
      </trkpt>
      <trkpt lat="42.47398448176681995391845703125" lon="0.147440694272518157958984375">
        <ele>581.20001220703125</ele>
        <time>2020-08-16T09:04:02.000Z</time>
      </trkpt>
      <trkpt lat="42.47429930604994297027587890625" lon="0.147620737552642822265625">
        <ele>582.20001220703125</ele>
        <time>2020-08-16T09:04:10.000Z</time>
      </trkpt>
      <trkpt lat="42.47433903627097606658935546875" lon="0.14764412306249141693115234375">
        <ele>582.20001220703125</ele>
        <time>2020-08-16T09:04:11.000Z</time>
      </trkpt>
      <trkpt lat="42.47472812421619892120361328125" lon="0.14784537255764007568359375">
        <ele>582.5999755859375</ele>
        <time>2020-08-16T09:04:21.000Z</time>
      </trkpt>
      <trkpt lat="42.47492476366460323333740234375" lon="0.14793447218835353851318359375">
        <ele>583.20001220703125</ele>
        <time>2020-08-16T09:04:26.000Z</time>
      </trkpt>
      <trkpt lat="42.47516398318111896514892578125" lon="0.14801979996263980865478515625">
        <ele>583.5999755859375</ele>
        <time>2020-08-16T09:04:32.000Z</time>
      </trkpt>
      <trkpt lat="42.4754034541547298431396484375" lon="0.14810076914727687835693359375">
        <ele>584.20001220703125</ele>
        <time>2020-08-16T09:04:38.000Z</time>
      </trkpt>
      <trkpt lat="42.47552373446524143218994140625" lon="0.148140750825405120849609375">
        <ele>584.4000244140625</ele>
        <time>2020-08-16T09:04:41.000Z</time>
      </trkpt>
      <trkpt lat="42.47580452822148799896240234375" lon="0.14823823235929012298583984375">
        <ele>585.20001220703125</ele>
        <time>2020-08-16T09:04:48.000Z</time>
      </trkpt>
      <trkpt lat="42.4759600125253200531005859375" lon="0.14830159954726696014404296875">
        <ele>585.5999755859375</ele>
        <time>2020-08-16T09:04:52.000Z</time>
      </trkpt>
      <trkpt lat="42.47626536525785923004150390625" lon="0.14846052043139934539794921875">
        <ele>586.20001220703125</ele>
        <time>2020-08-16T09:05:00.000Z</time>
      </trkpt>
      <trkpt lat="42.47633879072964191436767578125" lon="0.1485134102404117584228515625">
        <ele>586.20001220703125</ele>
        <time>2020-08-16T09:05:02.000Z</time>
      </trkpt>
      <trkpt lat="42.476699464023113250732421875" lon="0.1488235406577587127685546875">
        <ele>587.20001220703125</ele>
        <time>2020-08-16T09:05:12.000Z</time>
      </trkpt>
      <trkpt lat="42.4767341651022434234619140625" lon="0.148855559527873992919921875">
        <ele>587.20001220703125</ele>
        <time>2020-08-16T09:05:13.000Z</time>
      </trkpt>
      <trkpt lat="42.4769054912030696868896484375" lon="0.1490129716694355010986328125">
        <ele>588.20001220703125</ele>
        <time>2020-08-16T09:05:18.000Z</time>
      </trkpt>
      <trkpt lat="42.47714303433895111083984375" lon="0.1492402888834476470947265625">
        <ele>588.79998779296875</ele>
        <time>2020-08-16T09:05:25.000Z</time>
      </trkpt>
      <trkpt lat="42.47747219167649745941162109375" lon="0.1495561189949512481689453125">
        <ele>589</ele>
        <time>2020-08-16T09:05:34.000Z</time>
      </trkpt>
      <trkpt lat="42.47780076228082180023193359375" lon="0.1498000323772430419921875">
        <ele>588.4000244140625</ele>
        <time>2020-08-16T09:05:41.000Z</time>
      </trkpt>
      <trkpt lat="42.47814492322504520416259765625" lon="0.14991276897490024566650390625">
        <ele>587.4000244140625</ele>
        <time>2020-08-16T09:05:47.000Z</time>
      </trkpt>
      <trkpt lat="42.47832228429615497589111328125" lon="0.14992333017289638519287109375">
        <ele>587.20001220703125</ele>
        <time>2020-08-16T09:05:50.000Z</time>
      </trkpt>
      <trkpt lat="42.4785424768924713134765625" lon="0.149896927177906036376953125">
        <ele>587.20001220703125</ele>
        <time>2020-08-16T09:05:54.000Z</time>
      </trkpt>
      <trkpt lat="42.47897640801966190338134765625" lon="0.149812437593936920166015625">
        <ele>587.20001220703125</ele>
        <time>2020-08-16T09:06:03.000Z</time>
      </trkpt>
      <trkpt lat="42.47954570688307285308837890625" lon="0.1496766507625579833984375">
        <ele>586.79998779296875</ele>
        <time>2020-08-16T09:06:14.000Z</time>
      </trkpt>
      <trkpt lat="42.47994870878756046295166015625" lon="0.149585790932178497314453125">
        <ele>587.20001220703125</ele>
        <time>2020-08-16T09:06:22.000Z</time>
      </trkpt>
      <trkpt lat="42.48034634627401828765869140625" lon="0.14949820004403591156005859375">
        <ele>587.79998779296875</ele>
        <time>2020-08-16T09:06:31.000Z</time>
      </trkpt>
      <trkpt lat="42.480473332107067108154296875" lon="0.14947414398193359375">
        <ele>588.20001220703125</ele>
        <time>2020-08-16T09:06:34.000Z</time>
      </trkpt>
      <trkpt lat="42.4807682074606418609619140625" lon="0.14943516813218593597412109375">
        <ele>588.5999755859375</ele>
        <time>2020-08-16T09:06:41.000Z</time>
      </trkpt>
      <trkpt lat="42.48105545528233051300048828125" lon="0.1494164764881134033203125">
        <ele>589.4000244140625</ele>
        <time>2020-08-16T09:06:48.000Z</time>
      </trkpt>
      <trkpt lat="42.48125645332038402557373046875" lon="0.1494153030216693878173828125">
        <ele>590</ele>
        <time>2020-08-16T09:06:53.000Z</time>
      </trkpt>
      <trkpt lat="42.4814206548035144805908203125" lon="0.149424858391284942626953125">
        <ele>590.4000244140625</ele>
        <time>2020-08-16T09:06:57.000Z</time>
      </trkpt>
      <trkpt lat="42.48171083629131317138671875" lon="0.1494427956640720367431640625">
        <ele>590.5999755859375</ele>
        <time>2020-08-16T09:07:04.000Z</time>
      </trkpt>
      <trkpt lat="42.48204569332301616668701171875" lon="0.149476490914821624755859375">
        <ele>591.4000244140625</ele>
        <time>2020-08-16T09:07:12.000Z</time>
      </trkpt>
      <trkpt lat="42.4821314401924610137939453125" lon="0.1494847051799297332763671875">
        <ele>591.5999755859375</ele>
        <time>2020-08-16T09:07:14.000Z</time>
      </trkpt>
      <trkpt lat="42.48270685784518718719482421875" lon="0.1495344936847686767578125">
        <ele>592.20001220703125</ele>
        <time>2020-08-16T09:07:27.000Z</time>
      </trkpt>
      <trkpt lat="42.4827508628368377685546875" lon="0.14953809790313243865966796875">
        <ele>592.4000244140625</ele>
        <time>2020-08-16T09:07:28.000Z</time>
      </trkpt>
      <trkpt lat="42.48292260803282260894775390625" lon="0.149554274976253509521484375">
        <ele>592.4000244140625</ele>
        <time>2020-08-16T09:07:32.000Z</time>
      </trkpt>
      <trkpt lat="42.4832586385309696197509765625" lon="0.149584449827671051025390625">
        <ele>593.20001220703125</ele>
        <time>2020-08-16T09:07:40.000Z</time>
      </trkpt>
      <trkpt lat="42.48342032544314861297607421875" lon="0.1496003754436969757080078125">
        <ele>593.4000244140625</ele>
        <time>2020-08-16T09:07:44.000Z</time>
      </trkpt>
      <trkpt lat="42.48378108255565166473388671875" lon="0.14962225221097469329833984375">
        <ele>593.79998779296875</ele>
        <time>2020-08-16T09:07:53.000Z</time>
      </trkpt>
      <trkpt lat="42.48414083383977413177490234375" lon="0.14957162551581859588623046875">
        <ele>594.4000244140625</ele>
        <time>2020-08-16T09:08:02.000Z</time>
      </trkpt>
      <trkpt lat="42.48418115079402923583984375" lon="0.14956307597458362579345703125">
        <ele>594.4000244140625</ele>
        <time>2020-08-16T09:08:03.000Z</time>
      </trkpt>
      <trkpt lat="42.48453662730753421783447265625" lon="0.14944271184504032135009765625">
        <ele>595.20001220703125</ele>
        <time>2020-08-16T09:08:12.000Z</time>
      </trkpt>
      <trkpt lat="42.48465129174292087554931640625" lon="0.14938890002667903900146484375">
        <ele>595.5999755859375</ele>
        <time>2020-08-16T09:08:15.000Z</time>
      </trkpt>
      <trkpt lat="42.484836280345916748046875" lon="0.1492754928767681121826171875">
        <ele>596.20001220703125</ele>
        <time>2020-08-16T09:08:20.000Z</time>
      </trkpt>
      <trkpt lat="42.48505027033388614654541015625" lon="0.14912185259163379669189453125">
        <ele>596.5999755859375</ele>
        <time>2020-08-16T09:08:26.000Z</time>
      </trkpt>
      <trkpt lat="42.485186643898487091064453125" lon="0.14899830333888530731201171875">
        <ele>597</ele>
        <time>2020-08-16T09:08:30.000Z</time>
      </trkpt>
      <trkpt lat="42.48552552424371242523193359375" lon="0.14866654761135578155517578125">
        <ele>597.5999755859375</ele>
        <time>2020-08-16T09:08:40.000Z</time>
      </trkpt>
      <trkpt lat="42.48555871658027172088623046875" lon="0.148631595075130462646484375">
        <ele>597.5999755859375</ele>
        <time>2020-08-16T09:08:41.000Z</time>
      </trkpt>
      <trkpt lat="42.48588569462299346923828125" lon="0.14828634448349475860595703125">
        <ele>598.5999755859375</ele>
        <time>2020-08-16T09:08:51.000Z</time>
      </trkpt>
      <trkpt lat="42.48591679148375988006591796875" lon="0.1482532359659671783447265625">
        <ele>598.79998779296875</ele>
        <time>2020-08-16T09:08:52.000Z</time>
      </trkpt>
      <trkpt lat="42.4861829169094562530517578125" lon="0.14800965785980224609375">
        <ele>599.4000244140625</ele>
        <time>2020-08-16T09:09:00.000Z</time>
      </trkpt>
      <trkpt lat="42.48655088245868682861328125" lon="0.14773783273994922637939453125">
        <ele>599.79998779296875</ele>
        <time>2020-08-16T09:09:10.000Z</time>
      </trkpt>
      <trkpt lat="42.48658985830843448638916015625" lon="0.14771671034395694732666015625">
        <ele>600</ele>
        <time>2020-08-16T09:09:11.000Z</time>
      </trkpt>
      <trkpt lat="42.48696553520858287811279296875" lon="0.14757086522877216339111328125">
        <ele>600.20001220703125</ele>
        <time>2020-08-16T09:09:20.000Z</time>
      </trkpt>
      <trkpt lat="42.48704918660223484039306640625" lon="0.1475469768047332763671875">
        <ele>600.20001220703125</ele>
        <time>2020-08-16T09:09:22.000Z</time>
      </trkpt>
      <trkpt lat="42.487276084721088409423828125" lon="0.14749475754797458648681640625">
        <ele>600.5999755859375</ele>
        <time>2020-08-16T09:09:27.000Z</time>
      </trkpt>
      <trkpt lat="42.4878378398716449737548828125" lon="0.1473714597523212432861328125">
        <ele>600.79998779296875</ele>
        <time>2020-08-16T09:09:39.000Z</time>
      </trkpt>
      <trkpt lat="42.4878854490816593170166015625" lon="0.14736249111592769622802734375">
        <ele>601</ele>
        <time>2020-08-16T09:09:40.000Z</time>
      </trkpt>
      <trkpt lat="42.48831602744758129119873046875" lon="0.1472742296755313873291015625">
        <ele>600.79998779296875</ele>
        <time>2020-08-16T09:09:49.000Z</time>
      </trkpt>
      <trkpt lat="42.4888367950916290283203125" lon="0.14716300182044506072998046875">
        <ele>601.5999755859375</ele>
        <time>2020-08-16T09:10:00.000Z</time>
      </trkpt>
      <trkpt lat="42.48922009952366352081298828125" lon="0.147080607712268829345703125">
        <ele>602</ele>
        <time>2020-08-16T09:10:08.000Z</time>
      </trkpt>
      <trkpt lat="42.48936451971530914306640625" lon="0.147050432860851287841796875">
        <ele>602.20001220703125</ele>
        <time>2020-08-16T09:10:11.000Z</time>
      </trkpt>
      <trkpt lat="42.48988310806453227996826171875" lon="0.14693501405417919158935546875">
        <ele>602.20001220703125</ele>
        <time>2020-08-16T09:10:22.000Z</time>
      </trkpt>
      <trkpt lat="42.4902105890214443206787109375" lon="0.14685991220176219940185546875">
        <ele>603</ele>
        <time>2020-08-16T09:10:29.000Z</time>
      </trkpt>
      <trkpt lat="42.49053672887384891510009765625" lon="0.1467947848141193389892578125">
        <ele>603.4000244140625</ele>
        <time>2020-08-16T09:10:36.000Z</time>
      </trkpt>
      <trkpt lat="42.4910990707576274871826171875" lon="0.146673582494258880615234375">
        <ele>604</ele>
        <time>2020-08-16T09:10:48.000Z</time>
      </trkpt>
      <trkpt lat="42.4911456741392612457275390625" lon="0.14666327275335788726806640625">
        <ele>604</ele>
        <time>2020-08-16T09:10:49.000Z</time>
      </trkpt>
      <trkpt lat="42.49170483089983463287353515625" lon="0.14654005877673625946044921875">
        <ele>604.79998779296875</ele>
        <time>2020-08-16T09:11:01.000Z</time>
      </trkpt>
      <trkpt lat="42.49175143428146839141845703125" lon="0.14652907848358154296875">
        <ele>604.79998779296875</ele>
        <time>2020-08-16T09:11:02.000Z</time>
      </trkpt>
      <trkpt lat="42.49184380285441875457763671875" lon="0.14650686644017696380615234375">
        <ele>605</ele>
        <time>2020-08-16T09:11:04.000Z</time>
      </trkpt>
      <trkpt lat="42.4924059771001338958740234375" lon="0.14638650231063365936279296875">
        <ele>605.79998779296875</ele>
        <time>2020-08-16T09:11:16.000Z</time>
      </trkpt>
      <trkpt lat="42.49264058656990528106689453125" lon="0.14633671380579471588134765625">
        <ele>606</ele>
        <time>2020-08-16T09:11:21.000Z</time>
      </trkpt>
      <trkpt lat="42.49296966008841991424560546875" lon="0.1462660543620586395263671875">
        <ele>606.5999755859375</ele>
        <time>2020-08-16T09:11:28.000Z</time>
      </trkpt>
      <trkpt lat="42.49341876246035099029541015625" lon="0.14616706408560276031494140625">
        <ele>607</ele>
        <time>2020-08-16T09:11:37.000Z</time>
      </trkpt>
      <trkpt lat="42.49392285011708736419677734375" lon="0.1460645534098148345947265625">
        <ele>606.5999755859375</ele>
        <time>2020-08-16T09:11:47.000Z</time>
      </trkpt>
      <trkpt lat="42.49413558281958103179931640625" lon="0.14601719565689563751220703125">
        <ele>606.5999755859375</ele>
        <time>2020-08-16T09:11:51.000Z</time>
      </trkpt>
      <trkpt lat="42.49435879290103912353515625" lon="0.14597293920814990997314453125">
        <ele>606</ele>
        <time>2020-08-16T09:11:55.000Z</time>
      </trkpt>
      <trkpt lat="42.4947160296142101287841796875" lon="0.14590655453503131866455078125">
        <ele>605</ele>
        <time>2020-08-16T09:12:01.000Z</time>
      </trkpt>
      <trkpt lat="42.4949577637016773223876953125" lon="0.1458560116589069366455078125">
        <ele>604.5999755859375</ele>
        <time>2020-08-16T09:12:05.000Z</time>
      </trkpt>
      <trkpt lat="42.49543477781116962432861328125" lon="0.145661719143390655517578125">
        <ele>604.20001220703125</ele>
        <time>2020-08-16T09:12:13.000Z</time>
      </trkpt>
      <trkpt lat="42.49555178917944431304931640625" lon="0.14558955095708370208740234375">
        <ele>603.79998779296875</ele>
        <time>2020-08-16T09:12:15.000Z</time>
      </trkpt>
      <trkpt lat="42.495838366448879241943359375" lon="0.14536357484757900238037109375">
        <ele>603.20001220703125</ele>
        <time>2020-08-16T09:12:20.000Z</time>
      </trkpt>
      <trkpt lat="42.49600659124553203582763671875" lon="0.145208425819873809814453125">
        <ele>602.79998779296875</ele>
        <time>2020-08-16T09:12:23.000Z</time>
      </trkpt>
      <trkpt lat="42.49641328118741512298583984375" lon="0.14484490267932415008544921875">
        <ele>601.79998779296875</ele>
        <time>2020-08-16T09:12:30.000Z</time>
      </trkpt>
      <trkpt lat="42.4968175403773784637451171875" lon="0.14456109143793582916259765625">
        <ele>601.4000244140625</ele>
        <time>2020-08-16T09:12:37.000Z</time>
      </trkpt>
      <trkpt lat="42.497181482613086700439453125" lon="0.1443707384169101715087890625">
        <ele>601.4000244140625</ele>
        <time>2020-08-16T09:12:44.000Z</time>
      </trkpt>
      <trkpt lat="42.497556991875171661376953125" lon="0.14422682113945484161376953125">
        <ele>600.79998779296875</ele>
        <time>2020-08-16T09:12:52.000Z</time>
      </trkpt>
      <trkpt lat="42.497647516429424285888671875" lon="0.14420100487768650054931640625">
        <ele>600.5999755859375</ele>
        <time>2020-08-16T09:12:54.000Z</time>
      </trkpt>
      <trkpt lat="42.4979071877896785736083984375" lon="0.14414199627935886383056640625">
        <ele>600.4000244140625</ele>
        <time>2020-08-16T09:13:00.000Z</time>
      </trkpt>
      <trkpt lat="42.49809552915394306182861328125" lon="0.144155323505401611328125">
        <ele>600.4000244140625</ele>
        <time>2020-08-16T09:13:06.000Z</time>
      </trkpt>
      <trkpt lat="42.498099468648433685302734375" lon="0.14416043646633625030517578125">
        <ele>600.4000244140625</ele>
        <time>2020-08-16T09:13:08.000Z</time>
      </trkpt>
      <trkpt lat="42.49812151305377483367919921875" lon="0.1441575028002262115478515625">
        <ele>601.5999755859375</ele>
        <time>2020-08-16T09:22:13.000Z</time>
      </trkpt>
      <trkpt lat="42.4981519393622875213623046875" lon="0.14415037818253040313720703125">
        <ele>601.5999755859375</ele>
        <time>2020-08-16T09:22:14.000Z</time>
      </trkpt>
      <trkpt lat="42.49821036122739315032958984375" lon="0.1440827362239360809326171875">
        <ele>601.5999755859375</ele>
        <time>2020-08-16T09:22:17.000Z</time>
      </trkpt>
      <trkpt lat="42.49827993102371692657470703125" lon="0.14406018890440464019775390625">
        <ele>601.5999755859375</ele>
        <time>2020-08-16T09:22:19.000Z</time>
      </trkpt>
      <trkpt lat="42.49848243780434131622314453125" lon="0.144075863063335418701171875">
        <ele>601.79998779296875</ele>
        <time>2020-08-16T09:22:25.000Z</time>
      </trkpt>
      <trkpt lat="42.498564161360263824462890625" lon="0.1440696604549884796142578125">
        <ele>602.20001220703125</ele>
        <time>2020-08-16T09:22:28.000Z</time>
      </trkpt>
      <trkpt lat="42.49867589212954044342041015625" lon="0.1440559141337871551513671875">
        <ele>602.5999755859375</ele>
        <time>2020-08-16T09:22:32.000Z</time>
      </trkpt>
      <trkpt lat="42.49878033064305782318115234375" lon="0.14403940178453922271728515625">
        <ele>603.20001220703125</ele>
        <time>2020-08-16T09:22:36.000Z</time>
      </trkpt>
      <trkpt lat="42.498892731964588165283203125" lon="0.14403772540390491485595703125">
        <ele>603.79998779296875</ele>
        <time>2020-08-16T09:22:41.000Z</time>
      </trkpt>
      <trkpt lat="42.49894008971750736236572265625" lon="0.1440404914319515228271484375">
        <ele>604.20001220703125</ele>
        <time>2020-08-16T09:22:43.000Z</time>
      </trkpt>
      <trkpt lat="42.499094903469085693359375" lon="0.144037306308746337890625">
        <ele>605.20001220703125</ele>
        <time>2020-08-16T09:22:50.000Z</time>
      </trkpt>
      <trkpt lat="42.49914343468844890594482421875" lon="0.14403571374714374542236328125">
        <ele>605.4000244140625</ele>
        <time>2020-08-16T09:22:52.000Z</time>
      </trkpt>
      <trkpt lat="42.499256171286106109619140625" lon="0.1440404914319515228271484375">
        <ele>606.4000244140625</ele>
        <time>2020-08-16T09:22:57.000Z</time>
      </trkpt>
      <trkpt lat="42.49927905388176441192626953125" lon="0.14404342509806156158447265625">
        <ele>606.4000244140625</ele>
        <time>2020-08-16T09:22:58.000Z</time>
      </trkpt>
      <trkpt lat="42.49943965114653110504150390625" lon="0.144077204167842864990234375">
        <ele>607.5999755859375</ele>
        <time>2020-08-16T09:23:05.000Z</time>
      </trkpt>
      <trkpt lat="42.4996227957308292388916015625" lon="0.14418206177651882171630859375">
        <ele>608.79998779296875</ele>
        <time>2020-08-16T09:23:13.000Z</time>
      </trkpt>
      <trkpt lat="42.49964542686939239501953125" lon="0.14419756829738616943359375">
        <ele>608.79998779296875</ele>
        <time>2020-08-16T09:23:14.000Z</time>
      </trkpt>
      <trkpt lat="42.499777190387248992919921875" lon="0.14421793632209300994873046875">
        <ele>609.5999755859375</ele>
        <time>2020-08-16T09:23:19.000Z</time>
      </trkpt>
      <trkpt lat="42.4998284876346588134765625" lon="0.14419622719287872314453125">
        <ele>609.79998779296875</ele>
        <time>2020-08-16T09:23:21.000Z</time>
      </trkpt>
      <trkpt lat="42.499891854822635650634765625" lon="0.14411785639822483062744140625">
        <ele>610.20001220703125</ele>
        <time>2020-08-16T09:23:24.000Z</time>
      </trkpt>
      <trkpt lat="42.49999319203197956085205078125" lon="0.143924988806247711181640625">
        <ele>611</ele>
        <time>2020-08-16T09:23:30.000Z</time>
      </trkpt>
      <trkpt lat="42.5000522844493389129638671875" lon="0.1437907107174396514892578125">
        <ele>611.4000244140625</ele>
        <time>2020-08-16T09:23:34.000Z</time>
      </trkpt>
      <trkpt lat="42.500170804560184478759765625" lon="0.1435362361371517181396484375">
        <ele>612</ele>
        <time>2020-08-16T09:23:42.000Z</time>
      </trkpt>
      <trkpt lat="42.50021271407604217529296875" lon="0.14343657530844211578369140625">
        <ele>612.4000244140625</ele>
        <time>2020-08-16T09:23:45.000Z</time>
      </trkpt>
      <trkpt lat="42.5002272985875606536865234375" lon="0.1434027962386608123779296875">
        <ele>612.4000244140625</ele>
        <time>2020-08-16T09:23:46.000Z</time>
      </trkpt>
      <trkpt lat="42.500322349369525909423828125" lon="0.14315293170511722564697265625">
        <ele>613.4000244140625</ele>
        <time>2020-08-16T09:23:53.000Z</time>
      </trkpt>
      <trkpt lat="42.50035294331610202789306640625" lon="0.143084116280078887939453125">
        <ele>613.5999755859375</ele>
        <time>2020-08-16T09:23:55.000Z</time>
      </trkpt>
      <trkpt lat="42.50045268796384334564208984375" lon="0.1428423821926116943359375">
        <ele>614.4000244140625</ele>
        <time>2020-08-16T09:24:02.000Z</time>
      </trkpt>
      <trkpt lat="42.5004807673394680023193359375" lon="0.14277189038693904876708984375">
        <ele>614.5999755859375</ele>
        <time>2020-08-16T09:24:04.000Z</time>
      </trkpt>
      <trkpt lat="42.50059367157518863677978515625" lon="0.14249528758227825164794921875">
        <ele>615.5999755859375</ele>
        <time>2020-08-16T09:24:12.000Z</time>
      </trkpt>
      <trkpt lat="42.500636838376522064208984375" lon="0.1423932798206806182861328125">
        <ele>615.79998779296875</ele>
        <time>2020-08-16T09:24:15.000Z</time>
      </trkpt>
      <trkpt lat="42.50070565380156040191650390625" lon="0.14221885241568088531494140625">
        <ele>616.5999755859375</ele>
        <time>2020-08-16T09:24:20.000Z</time>
      </trkpt>
      <trkpt lat="42.500782012939453125" lon="0.14204484410583972930908203125">
        <ele>617</ele>
        <time>2020-08-16T09:24:25.000Z</time>
      </trkpt>
      <trkpt lat="42.50090195797383785247802734375" lon="0.14177159406244754791259765625">
        <ele>617.5999755859375</ele>
        <time>2020-08-16T09:24:33.000Z</time>
      </trkpt>
      <trkpt lat="42.5010007806122303009033203125" lon="0.141656510531902313232421875">
        <ele>618.4000244140625</ele>
        <time>2020-08-16T09:24:39.000Z</time>
      </trkpt>
      <trkpt lat="42.50106540508568286895751953125" lon="0.14162524603307247161865234375">
        <ele>618.79998779296875</ele>
        <time>2020-08-16T09:24:43.000Z</time>
      </trkpt>
      <trkpt lat="42.501065991818904876708984375" lon="0.1416234858334064483642578125">
        <ele>619</ele>
        <time>2020-08-16T09:24:45.000Z</time>
      </trkpt>
      <trkpt lat="42.50107428990304470062255859375" lon="0.1415993459522724151611328125">
        <ele>619.4000244140625</ele>
        <time>2020-08-16T09:24:58.000Z</time>
      </trkpt>
      <trkpt lat="42.501074038445949554443359375" lon="0.14157948084175586700439453125">
        <ele>619.4000244140625</ele>
        <time>2020-08-16T09:24:59.000Z</time>
      </trkpt>
      <trkpt lat="42.50107915140688419342041015625" lon="0.14141016639769077301025390625">
        <ele>619.20001220703125</ele>
        <time>2020-08-16T09:25:06.000Z</time>
      </trkpt>
      <trkpt lat="42.5010810792446136474609375" lon="0.1413934864103794097900390625">
        <ele>619.20001220703125</ele>
        <time>2020-08-16T09:25:09.000Z</time>
      </trkpt>
      <trkpt lat="42.50107982195913791656494140625" lon="0.1413720287382602691650390625">
        <ele>619</ele>
        <time>2020-08-16T09:25:10.000Z</time>
      </trkpt>
      <trkpt lat="42.50112173147499561309814453125" lon="0.14124068431556224822998046875">
        <ele>618.5999755859375</ele>
        <time>2020-08-16T09:25:14.000Z</time>
      </trkpt>
      <trkpt lat="42.5012941472232341766357421875" lon="0.140906833112239837646484375">
        <ele>618.4000244140625</ele>
        <time>2020-08-16T09:25:24.000Z</time>
      </trkpt>
      <trkpt lat="42.501497827470302581787109375" lon="0.1406268775463104248046875">
        <ele>619.4000244140625</ele>
        <time>2020-08-16T09:25:34.000Z</time>
      </trkpt>
      <trkpt lat="42.50155826099216938018798828125" lon="0.14054565690457820892333984375">
        <ele>619.79998779296875</ele>
        <time>2020-08-16T09:25:37.000Z</time>
      </trkpt>
      <trkpt lat="42.50168256461620330810546875" lon="0.140389502048492431640625">
        <ele>620.79998779296875</ele>
        <time>2020-08-16T09:25:43.000Z</time>
      </trkpt>
      <trkpt lat="42.5017434172332286834716796875" lon="0.14031238853931427001953125">
        <ele>621</ele>
        <time>2020-08-16T09:25:46.000Z</time>
      </trkpt>
      <trkpt lat="42.50192119739949703216552734375" lon="0.1400771923363208770751953125">
        <ele>622</ele>
        <time>2020-08-16T09:25:55.000Z</time>
      </trkpt>
      <trkpt lat="42.50194047577679157257080078125" lon="0.140051543712615966796875">
        <ele>622</ele>
        <time>2020-08-16T09:25:56.000Z</time>
      </trkpt>
      <trkpt lat="42.50209688208997249603271484375" lon="0.1398488692939281463623046875">
        <ele>623.20001220703125</ele>
        <time>2020-08-16T09:26:04.000Z</time>
      </trkpt>
      <trkpt lat="42.50226083211600780487060546875" lon="0.139636136591434478759765625">
        <ele>623.79998779296875</ele>
        <time>2020-08-16T09:26:12.000Z</time>
      </trkpt>
      <trkpt lat="42.5023455731570720672607421875" lon="0.13952918350696563720703125">
        <ele>624.20001220703125</ele>
        <time>2020-08-16T09:26:16.000Z</time>
      </trkpt>
      <trkpt lat="42.5024649314582347869873046875" lon="0.139354169368743896484375">
        <ele>624.79998779296875</ele>
        <time>2020-08-16T09:26:22.000Z</time>
      </trkpt>
      <trkpt lat="42.50253039412200450897216796875" lon="0.13919047079980373382568359375">
        <ele>625.4000244140625</ele>
        <time>2020-08-16T09:26:27.000Z</time>
      </trkpt>
      <trkpt lat="42.50255336053669452667236328125" lon="0.13908259570598602294921875">
        <ele>626</ele>
        <time>2020-08-16T09:26:30.000Z</time>
      </trkpt>
      <trkpt lat="42.50255989842116832733154296875" lon="0.13897438533604145050048828125">
        <ele>626.5999755859375</ele>
        <time>2020-08-16T09:26:33.000Z</time>
      </trkpt>
      <trkpt lat="42.502554617822170257568359375" lon="0.13875494711101055145263671875">
        <ele>627.4000244140625</ele>
        <time>2020-08-16T09:26:39.000Z</time>
      </trkpt>
      <trkpt lat="42.5025537796318531036376953125" lon="0.1387189887464046478271484375">
        <ele>627.5999755859375</ele>
        <time>2020-08-16T09:26:40.000Z</time>
      </trkpt>
      <trkpt lat="42.50254799611866474151611328125" lon="0.13838949613273143768310546875">
        <ele>628.5999755859375</ele>
        <time>2020-08-16T09:26:49.000Z</time>
      </trkpt>
      <trkpt lat="42.50254849903285503387451171875" lon="0.13835077174007892608642578125">
        <ele>628.5999755859375</ele>
        <time>2020-08-16T09:26:50.000Z</time>
      </trkpt>
      <trkpt lat="42.5026017241179943084716796875" lon="0.13799755834043025970458984375">
        <ele>629.4000244140625</ele>
        <time>2020-08-16T09:26:59.000Z</time>
      </trkpt>
      <trkpt lat="42.502632401883602142333984375" lon="0.1379300840198993682861328125">
        <ele>629.79998779296875</ele>
        <time>2020-08-16T09:27:01.000Z</time>
      </trkpt>
      <trkpt lat="42.50276911072432994842529296875" lon="0.137674100697040557861328125">
        <ele>630.79998779296875</ele>
        <time>2020-08-16T09:27:09.000Z</time>
      </trkpt>
      <trkpt lat="42.50287405215203762054443359375" lon="0.13748760335147380828857421875">
        <ele>631.79998779296875</ele>
        <time>2020-08-16T09:27:15.000Z</time>
      </trkpt>
      <trkpt lat="42.5029587931931018829345703125" lon="0.13733203522861003875732421875">
        <ele>632.4000244140625</ele>
        <time>2020-08-16T09:27:20.000Z</time>
      </trkpt>
      <trkpt lat="42.5030667521059513092041015625" lon="0.1371498964726924896240234375">
        <ele>633</ele>
        <time>2020-08-16T09:27:26.000Z</time>
      </trkpt>
      <trkpt lat="42.50315467827022075653076171875" lon="0.13704386539757251739501953125">
        <ele>633.4000244140625</ele>
        <time>2020-08-16T09:27:30.000Z</time>
      </trkpt>
      <trkpt lat="42.5033249147236347198486328125" lon="0.1369038037955760955810546875">
        <ele>634.20001220703125</ele>
        <time>2020-08-16T09:27:37.000Z</time>
      </trkpt>
      <trkpt lat="42.503374032676219940185546875" lon="0.13686348684132099151611328125">
        <ele>634.4000244140625</ele>
        <time>2020-08-16T09:27:39.000Z</time>
      </trkpt>
      <trkpt lat="42.503470592200756072998046875" lon="0.13672518543899059295654296875">
        <ele>635.20001220703125</ele>
        <time>2020-08-16T09:27:44.000Z</time>
      </trkpt>
      <trkpt lat="42.5035032816231250762939453125" lon="0.136660896241664886474609375">
        <ele>635.4000244140625</ele>
        <time>2020-08-16T09:27:46.000Z</time>
      </trkpt>
      <trkpt lat="42.5036072172224521636962890625" lon="0.13637549243867397308349609375">
        <ele>636.20001220703125</ele>
        <time>2020-08-16T09:27:54.000Z</time>
      </trkpt>
      <trkpt lat="42.50363462604582309722900390625" lon="0.1363046653568744659423828125">
        <ele>636.4000244140625</ele>
        <time>2020-08-16T09:27:56.000Z</time>
      </trkpt>
      <trkpt lat="42.50370838679373264312744140625" lon="0.13608514331281185150146484375">
        <ele>637.4000244140625</ele>
        <time>2020-08-16T09:28:02.000Z</time>
      </trkpt>
      <trkpt lat="42.5037215463817119598388671875" lon="0.1360456645488739013671875">
        <ele>637.5999755859375</ele>
        <time>2020-08-16T09:28:03.000Z</time>
      </trkpt>
      <trkpt lat="42.50380528159439563751220703125" lon="0.1357745938003063201904296875">
        <ele>638.5999755859375</ele>
        <time>2020-08-16T09:28:10.000Z</time>
      </trkpt>
      <trkpt lat="42.50381651334464550018310546875" lon="0.13573653995990753173828125">
        <ele>638.79998779296875</ele>
        <time>2020-08-16T09:28:11.000Z</time>
      </trkpt>
      <trkpt lat="42.5039200298488140106201171875" lon="0.13540168292820453643798828125">
        <ele>639.79998779296875</ele>
        <time>2020-08-16T09:28:20.000Z</time>
      </trkpt>
      <trkpt lat="42.5040234625339508056640625" lon="0.1350591145455837249755859375">
        <ele>640.79998779296875</ele>
        <time>2020-08-16T09:28:29.000Z</time>
      </trkpt>
      <trkpt lat="42.50403226353228092193603515625" lon="0.13501879759132862091064453125">
        <ele>640.79998779296875</ele>
        <time>2020-08-16T09:28:30.000Z</time>
      </trkpt>
      <trkpt lat="42.5040675513446331024169921875" lon="0.13467698357999324798583984375">
        <ele>641.4000244140625</ele>
        <time>2020-08-16T09:28:38.000Z</time>
      </trkpt>
      <trkpt lat="42.50406025908887386322021484375" lon="0.1343744806945323944091796875">
        <ele>641.79998779296875</ele>
        <time>2020-08-16T09:28:45.000Z</time>
      </trkpt>
      <trkpt lat="42.5040571577847003936767578125" lon="0.134332068264484405517578125">
        <ele>641.79998779296875</ele>
        <time>2020-08-16T09:28:46.000Z</time>
      </trkpt>
      <trkpt lat="42.50404668040573596954345703125" lon="0.13401615433394908905029296875">
        <ele>642.20001220703125</ele>
        <time>2020-08-16T09:28:53.000Z</time>
      </trkpt>
      <trkpt lat="42.50411658547818660736083984375" lon="0.1335404813289642333984375">
        <ele>642.5999755859375</ele>
        <time>2020-08-16T09:29:03.000Z</time>
      </trkpt>
      <trkpt lat="42.50420090742409229278564453125" lon="0.13312331400811672210693359375">
        <ele>642.5999755859375</ele>
        <time>2020-08-16T09:29:11.000Z</time>
      </trkpt>
      <trkpt lat="42.50426813028752803802490234375" lon="0.1328882016241550445556640625">
        <ele>642.4000244140625</ele>
        <time>2020-08-16T09:29:15.000Z</time>
      </trkpt>
      <trkpt lat="42.50432596541941165924072265625" lon="0.13277797959744930267333984375">
        <ele>642.20001220703125</ele>
        <time>2020-08-16T09:29:17.000Z</time>
      </trkpt>
      <trkpt lat="42.50439335592091083526611328125" lon="0.13267488218843936920166015625">
        <ele>642</ele>
        <time>2020-08-16T09:29:19.000Z</time>
      </trkpt>
      <trkpt lat="42.50452126376330852508544921875" lon="0.13255141675472259521484375">
        <ele>642</ele>
        <time>2020-08-16T09:29:22.000Z</time>
      </trkpt>
      <trkpt lat="42.5049701146781444549560546875" lon="0.1322122849524021148681640625">
        <ele>641</ele>
        <time>2020-08-16T09:29:31.000Z</time>
      </trkpt>
      <trkpt lat="42.5050743855535984039306640625" lon="0.132135339081287384033203125">
        <ele>640.5999755859375</ele>
        <time>2020-08-16T09:29:33.000Z</time>
      </trkpt>
      <trkpt lat="42.50542349182069301605224609375" lon="0.13183535076677799224853515625">
        <ele>640</ele>
        <time>2020-08-16T09:29:40.000Z</time>
      </trkpt>
      <trkpt lat="42.50551988370716571807861328125" lon="0.13173493556678295135498046875">
        <ele>639.5999755859375</ele>
        <time>2020-08-16T09:29:42.000Z</time>
      </trkpt>
      <trkpt lat="42.50577217899262905120849609375" lon="0.1314924471080303192138671875">
        <ele>638.5999755859375</ele>
        <time>2020-08-16T09:29:47.000Z</time>
      </trkpt>
      <trkpt lat="42.50582481734454631805419921875" lon="0.13144525699317455291748046875">
        <ele>638.4000244140625</ele>
        <time>2020-08-16T09:29:48.000Z</time>
      </trkpt>
      <trkpt lat="42.50615808181464672088623046875" lon="0.1312015950679779052734375">
        <ele>637.5999755859375</ele>
        <time>2020-08-16T09:29:54.000Z</time>
      </trkpt>
      <trkpt lat="42.5063891708850860595703125" lon="0.1310907863080501556396484375">
        <ele>637.20001220703125</ele>
        <time>2020-08-16T09:29:58.000Z</time>
      </trkpt>
      <trkpt lat="42.50655169598758220672607421875" lon="0.1310073025524616241455078125">
        <ele>637</ele>
        <time>2020-08-16T09:30:01.000Z</time>
      </trkpt>
      <trkpt lat="42.50693826936185359954833984375" lon="0.13085667975246906280517578125">
        <ele>636.79998779296875</ele>
        <time>2020-08-16T09:30:09.000Z</time>
      </trkpt>
      <trkpt lat="42.50726114027202129364013671875" lon="0.13080270029604434967041015625">
        <ele>636.79998779296875</ele>
        <time>2020-08-16T09:30:17.000Z</time>
      </trkpt>
      <trkpt lat="42.50766078941524028778076171875" lon="0.13073095120489597320556640625">
        <ele>637</ele>
        <time>2020-08-16T09:30:27.000Z</time>
      </trkpt>
      <trkpt lat="42.5079540722072124481201171875" lon="0.130589716136455535888671875">
        <ele>637.4000244140625</ele>
        <time>2020-08-16T09:30:35.000Z</time>
      </trkpt>
      <trkpt lat="42.5082155875861644744873046875" lon="0.1303969323635101318359375">
        <ele>637.4000244140625</ele>
        <time>2020-08-16T09:30:42.000Z</time>
      </trkpt>
      <trkpt lat="42.50843946821987628936767578125" lon="0.1303146220743656158447265625">
        <ele>637.20001220703125</ele>
        <time>2020-08-16T09:30:48.000Z</time>
      </trkpt>
      <trkpt lat="42.508552707731723785400390625" lon="0.13018126599490642547607421875">
        <ele>636.79998779296875</ele>
        <time>2020-08-16T09:30:53.000Z</time>
      </trkpt>
      <trkpt lat="42.50872747041285037994384765625" lon="0.12986644171178340911865234375">
        <ele>636.20001220703125</ele>
        <time>2020-08-16T09:31:00.000Z</time>
      </trkpt>
      <trkpt lat="42.50875697471201419830322265625" lon="0.1298127137124538421630859375">
        <ele>636</ele>
        <time>2020-08-16T09:31:01.000Z</time>
      </trkpt>
      <trkpt lat="42.5089213438332080841064453125" lon="0.12952110730111598968505859375">
        <ele>635.20001220703125</ele>
        <time>2020-08-16T09:31:06.000Z</time>
      </trkpt>
      <trkpt lat="42.50898831523954868316650390625" lon="0.129397809505462646484375">
        <ele>635</ele>
        <time>2020-08-16T09:31:08.000Z</time>
      </trkpt>
      <trkpt lat="42.5090262852609157562255859375" lon="0.1293406449258327484130859375">
        <ele>634.79998779296875</ele>
        <time>2020-08-16T09:31:09.000Z</time>
      </trkpt>
      <trkpt lat="42.50916098244488239288330078125" lon="0.12918801046907901763916015625">
        <ele>634.4000244140625</ele>
        <time>2020-08-16T09:31:12.000Z</time>
      </trkpt>
      <trkpt lat="42.50930397771298885345458984375" lon="0.1290362142026424407958984375">
        <ele>634</ele>
        <time>2020-08-16T09:31:15.000Z</time>
      </trkpt>
      <trkpt lat="42.50934136100113391876220703125" lon="0.12897745706140995025634765625">
        <ele>633.79998779296875</ele>
        <time>2020-08-16T09:31:16.000Z</time>
      </trkpt>
      <trkpt lat="42.509370781481266021728515625" lon="0.1289151795208454132080078125">
        <ele>633.79998779296875</ele>
        <time>2020-08-16T09:31:17.000Z</time>
      </trkpt>
      <trkpt lat="42.5093746371567249298095703125" lon="0.12863899581134319305419921875">
        <ele>633.5999755859375</ele>
        <time>2020-08-16T09:31:21.000Z</time>
      </trkpt>
      <trkpt lat="42.5093588791787624359130859375" lon="0.12851410545408725738525390625">
        <ele>633.5999755859375</ele>
        <time>2020-08-16T09:31:23.000Z</time>
      </trkpt>
      <trkpt lat="42.509314119815826416015625" lon="0.128299109637737274169921875">
        <ele>634</ele>
        <time>2020-08-16T09:31:27.000Z</time>
      </trkpt>
      <trkpt lat="42.509263493120670318603515625" lon="0.1279405318200588226318359375">
        <ele>634</ele>
        <time>2020-08-16T09:31:34.000Z</time>
      </trkpt>
      <trkpt lat="42.5092277862131595611572265625" lon="0.127595029771327972412109375">
        <ele>634.20001220703125</ele>
        <time>2020-08-16T09:31:42.000Z</time>
      </trkpt>
      <trkpt lat="42.509283609688282012939453125" lon="0.12736427597701549530029296875">
        <ele>634.4000244140625</ele>
        <time>2020-08-16T09:31:47.000Z</time>
      </trkpt>
      <trkpt lat="42.50950715504586696624755859375" lon="0.12712472118437290191650390625">
        <ele>633.79998779296875</ele>
        <time>2020-08-16T09:31:54.000Z</time>
      </trkpt>
      <trkpt lat="42.50979448668658733367919921875" lon="0.12686270289123058319091796875">
        <ele>632.79998779296875</ele>
        <time>2020-08-16T09:32:01.000Z</time>
      </trkpt>
      <trkpt lat="42.50983874313533306121826171875" lon="0.12682129628956317901611328125">
        <ele>632.5999755859375</ele>
        <time>2020-08-16T09:32:02.000Z</time>
      </trkpt>
      <trkpt lat="42.51026135869324207305908203125" lon="0.126420557498931884765625">
        <ele>631.4000244140625</ele>
        <time>2020-08-16T09:32:11.000Z</time>
      </trkpt>
      <trkpt lat="42.51031165011227130889892578125" lon="0.1263747923076152801513671875">
        <ele>631.20001220703125</ele>
        <time>2020-08-16T09:32:12.000Z</time>
      </trkpt>
      <trkpt lat="42.5107046775519847869873046875" lon="0.12600339017808437347412109375">
        <ele>630.79998779296875</ele>
        <time>2020-08-16T09:32:20.000Z</time>
      </trkpt>
      <trkpt lat="42.51096225343644618988037109375" lon="0.12565839104354381561279296875">
        <ele>630.5999755859375</ele>
        <time>2020-08-16T09:32:27.000Z</time>
      </trkpt>
      <trkpt lat="42.51099058426916599273681640625" lon="0.1256086863577365875244140625">
        <ele>630.5999755859375</ele>
        <time>2020-08-16T09:32:28.000Z</time>
      </trkpt>
      <trkpt lat="42.5111368484795093536376953125" lon="0.1254616677761077880859375">
        <ele>630.5999755859375</ele>
        <time>2020-08-16T09:32:32.000Z</time>
      </trkpt>
      <trkpt lat="42.511262409389019012451171875" lon="0.12545253150165081024169921875">
        <ele>630.79998779296875</ele>
        <time>2020-08-16T09:32:35.000Z</time>
      </trkpt>
      <trkpt lat="42.51133541576564311981201171875" lon="0.12549360282719135284423828125">
        <ele>631.20001220703125</ele>
        <time>2020-08-16T09:32:37.000Z</time>
      </trkpt>
      <trkpt lat="42.51140289008617401123046875" lon="0.1255161501467227935791015625">
        <ele>631</ele>
        <time>2020-08-16T09:32:39.000Z</time>
      </trkpt>
      <trkpt lat="42.511564157903194427490234375" lon="0.12544532306492328643798828125">
        <ele>630.79998779296875</ele>
        <time>2020-08-16T09:32:44.000Z</time>
      </trkpt>
      <trkpt lat="42.511741854250431060791015625" lon="0.125240050256252288818359375">
        <ele>630.5999755859375</ele>
        <time>2020-08-16T09:32:51.000Z</time>
      </trkpt>
      <trkpt lat="42.5118717737495899200439453125" lon="0.12503762729465961456298828125">
        <ele>630.20001220703125</ele>
        <time>2020-08-16T09:32:57.000Z</time>
      </trkpt>
      <trkpt lat="42.51188895665109157562255859375" lon="0.12483260594308376312255859375">
        <ele>630.20001220703125</ele>
        <time>2020-08-16T09:33:02.000Z</time>
      </trkpt>
      <trkpt lat="42.51180790364742279052734375" lon="0.12465960346162319183349609375">
        <ele>630.5999755859375</ele>
        <time>2020-08-16T09:33:07.000Z</time>
      </trkpt>
      <trkpt lat="42.51165359281003475189208984375" lon="0.12443178333342075347900390625">
        <ele>631.4000244140625</ele>
        <time>2020-08-16T09:33:15.000Z</time>
      </trkpt>
      <trkpt lat="42.51161344349384307861328125" lon="0.12438233010470867156982421875">
        <ele>631.79998779296875</ele>
        <time>2020-08-16T09:33:17.000Z</time>
      </trkpt>
      <trkpt lat="42.5114613957703113555908203125" lon="0.12424671091139316558837890625">
        <ele>632.4000244140625</ele>
        <time>2020-08-16T09:33:24.000Z</time>
      </trkpt>
      <trkpt lat="42.51128847710788249969482421875" lon="0.12410790659487247467041015625">
        <ele>633.20001220703125</ele>
        <time>2020-08-16T09:33:32.000Z</time>
      </trkpt>
      <trkpt lat="42.51123852096498012542724609375" lon="0.1240476407110691070556640625">
        <ele>633.5999755859375</ele>
        <time>2020-08-16T09:33:35.000Z</time>
      </trkpt>
      <trkpt lat="42.5112064182758331298828125" lon="0.1239540986716747283935546875">
        <ele>634.20001220703125</ele>
        <time>2020-08-16T09:33:38.000Z</time>
      </trkpt>
      <trkpt lat="42.51119577325880527496337890625" lon="0.12380984611809253692626953125">
        <ele>634.5999755859375</ele>
        <time>2020-08-16T09:33:42.000Z</time>
      </trkpt>
      <trkpt lat="42.511197030544281005859375" lon="0.12370280921459197998046875">
        <ele>635.20001220703125</ele>
        <time>2020-08-16T09:33:45.000Z</time>
      </trkpt>
      <trkpt lat="42.5111992098391056060791015625" lon="0.12352184392511844635009765625">
        <ele>635.79998779296875</ele>
        <time>2020-08-16T09:33:50.000Z</time>
      </trkpt>
      <trkpt lat="42.5112052448093891143798828125" lon="0.12341455556452274322509765625">
        <ele>636.20001220703125</ele>
        <time>2020-08-16T09:33:53.000Z</time>
      </trkpt>
      <trkpt lat="42.5112119503319263458251953125" lon="0.12326502241194248199462890625">
        <ele>636.79998779296875</ele>
        <time>2020-08-16T09:33:57.000Z</time>
      </trkpt>
      <trkpt lat="42.5112149678170680999755859375" lon="0.1230813749134540557861328125">
        <ele>637.20001220703125</ele>
        <time>2020-08-16T09:34:02.000Z</time>
      </trkpt>
      <trkpt lat="42.51122360117733478546142578125" lon="0.12280049733817577362060546875">
        <ele>637.4000244140625</ele>
        <time>2020-08-16T09:34:10.000Z</time>
      </trkpt>
      <trkpt lat="42.5112293846905231475830078125" lon="0.12269572354853153228759765625">
        <ele>637.79998779296875</ele>
        <time>2020-08-16T09:34:13.000Z</time>
      </trkpt>
      <trkpt lat="42.511229552328586578369140625" lon="0.1225211285054683685302734375">
        <ele>638.79998779296875</ele>
        <time>2020-08-16T09:34:18.000Z</time>
      </trkpt>
      <trkpt lat="42.511232234537601470947265625" lon="0.12245231308043003082275390625">
        <ele>639</ele>
        <time>2020-08-16T09:34:20.000Z</time>
      </trkpt>
      <trkpt lat="42.51121706329286098480224609375" lon="0.12231032364070415496826171875">
        <ele>639.4000244140625</ele>
        <time>2020-08-16T09:34:24.000Z</time>
      </trkpt>
      <trkpt lat="42.51117766834795475006103515625" lon="0.12210748158395290374755859375">
        <ele>640</ele>
        <time>2020-08-16T09:34:30.000Z</time>
      </trkpt>
      <trkpt lat="42.5111339986324310302734375" lon="0.12197739444673061370849609375">
        <ele>640.20001220703125</ele>
        <time>2020-08-16T09:34:34.000Z</time>
      </trkpt>
      <trkpt lat="42.51107440330088138580322265625" lon="0.1218522526323795318603515625">
        <ele>641</ele>
        <time>2020-08-16T09:34:38.000Z</time>
      </trkpt>
      <trkpt lat="42.51105814240872859954833984375" lon="0.1218220777809619903564453125">
        <ele>641</ele>
        <time>2020-08-16T09:34:39.000Z</time>
      </trkpt>
      <trkpt lat="42.51099628396332263946533203125" lon="0.12169006280601024627685546875">
        <ele>641</ele>
        <time>2020-08-16T09:34:43.000Z</time>
      </trkpt>
      <trkpt lat="42.51092470251023769378662109375" lon="0.12144112028181552886962890625">
        <ele>641.20001220703125</ele>
        <time>2020-08-16T09:34:49.000Z</time>
      </trkpt>
      <trkpt lat="42.51094046048820018768310546875" lon="0.1211178302764892578125">
        <ele>641.4000244140625</ele>
        <time>2020-08-16T09:34:56.000Z</time>
      </trkpt>
      <trkpt lat="42.5110570527613162994384765625" lon="0.120786912739276885986328125">
        <ele>641.4000244140625</ele>
        <time>2020-08-16T09:35:04.000Z</time>
      </trkpt>
      <trkpt lat="42.51121220178902149200439453125" lon="0.120410732924938201904296875">
        <ele>642</ele>
        <time>2020-08-16T09:35:14.000Z</time>
      </trkpt>
      <trkpt lat="42.51122854650020599365234375" lon="0.1203726790845394134521484375">
        <ele>642</ele>
        <time>2020-08-16T09:35:15.000Z</time>
      </trkpt>
      <trkpt lat="42.51135653816163539886474609375" lon="0.12011242099106311798095703125">
        <ele>643.20001220703125</ele>
        <time>2020-08-16T09:35:22.000Z</time>
      </trkpt>
      <trkpt lat="42.5113941729068756103515625" lon="0.12004201300442218780517578125">
        <ele>643.4000244140625</ele>
        <time>2020-08-16T09:35:24.000Z</time>
      </trkpt>
      <trkpt lat="42.51161838881671428680419921875" lon="0.1196585409343242645263671875">
        <ele>644.20001220703125</ele>
        <time>2020-08-16T09:35:35.000Z</time>
      </trkpt>
      <trkpt lat="42.511639930307865142822265625" lon="0.11962409131228923797607421875">
        <ele>644.4000244140625</ele>
        <time>2020-08-16T09:35:36.000Z</time>
      </trkpt>
      <trkpt lat="42.51190337352454662322998046875" lon="0.11919996701180934906005859375">
        <ele>645.4000244140625</ele>
        <time>2020-08-16T09:35:48.000Z</time>
      </trkpt>
      <trkpt lat="42.51216086558997631072998046875" lon="0.11874340474605560302734375">
        <ele>646.20001220703125</ele>
        <time>2020-08-16T09:36:01.000Z</time>
      </trkpt>
      <trkpt lat="42.5122747756540775299072265625" lon="0.11850929819047451019287109375">
        <ele>646.4000244140625</ele>
        <time>2020-08-16T09:36:08.000Z</time>
      </trkpt>
      <trkpt lat="42.51228977926075458526611328125" lon="0.1184726692736148834228515625">
        <ele>646.4000244140625</ele>
        <time>2020-08-16T09:36:09.000Z</time>
      </trkpt>
      <trkpt lat="42.5124410726130008697509765625" lon="0.118199251592159271240234375">
        <ele>647.20001220703125</ele>
        <time>2020-08-16T09:36:17.000Z</time>
      </trkpt>
      <trkpt lat="42.51248792745172977447509765625" lon="0.118136219680309295654296875">
        <ele>647.4000244140625</ele>
        <time>2020-08-16T09:36:19.000Z</time>
      </trkpt>
      <trkpt lat="42.5126207806169986724853515625" lon="0.118010155856609344482421875">
        <ele>647.4000244140625</ele>
        <time>2020-08-16T09:36:24.000Z</time>
      </trkpt>
      <trkpt lat="42.51277626492083072662353515625" lon="0.11786975897848606109619140625">
        <ele>647.20001220703125</ele>
        <time>2020-08-16T09:36:30.000Z</time>
      </trkpt>
      <trkpt lat="42.51296854577958583831787109375" lon="0.11772592552006244659423828125">
        <ele>647.4000244140625</ele>
        <time>2020-08-16T09:36:37.000Z</time>
      </trkpt>
      <trkpt lat="42.51310416497290134429931640625" lon="0.1176167093217372894287109375">
        <ele>648.4000244140625</ele>
        <time>2020-08-16T09:36:42.000Z</time>
      </trkpt>
      <trkpt lat="42.5131602399051189422607421875" lon="0.11757454834878444671630859375">
        <ele>648.4000244140625</ele>
        <time>2020-08-16T09:36:44.000Z</time>
      </trkpt>
      <trkpt lat="42.5134056620299816131591796875" lon="0.11737547814846038818359375">
        <ele>649.5999755859375</ele>
        <time>2020-08-16T09:36:53.000Z</time>
      </trkpt>
      <trkpt lat="42.51357388682663440704345703125" lon="0.1172368414700031280517578125">
        <ele>650.5999755859375</ele>
        <time>2020-08-16T09:37:00.000Z</time>
      </trkpt>
      <trkpt lat="42.51367061398923397064208984375" lon="0.1171629130840301513671875">
        <ele>651</ele>
        <time>2020-08-16T09:37:04.000Z</time>
      </trkpt>
      <trkpt lat="42.51374253071844577789306640625" lon="0.117123015224933624267578125">
        <ele>651.79998779296875</ele>
        <time>2020-08-16T09:37:07.000Z</time>
      </trkpt>
      <trkpt lat="42.51383833587169647216796875" lon="0.11709979735314846038818359375">
        <ele>652.5999755859375</ele>
        <time>2020-08-16T09:37:11.000Z</time>
      </trkpt>
      <trkpt lat="42.5138861127197742462158203125" lon="0.117083452641963958740234375">
        <ele>653</ele>
        <time>2020-08-16T09:37:13.000Z</time>
      </trkpt>
      <trkpt lat="42.51397336833178997039794921875" lon="0.1170410402119159698486328125">
        <ele>653.79998779296875</ele>
        <time>2020-08-16T09:37:17.000Z</time>
      </trkpt>
      <trkpt lat="42.514016367495059967041015625" lon="0.1170172356069087982177734375">
        <ele>654.20001220703125</ele>
        <time>2020-08-16T09:37:19.000Z</time>
      </trkpt>
      <trkpt lat="42.5141201354563236236572265625" lon="0.1169501803815364837646484375">
        <ele>654.79998779296875</ele>
        <time>2020-08-16T09:37:24.000Z</time>
      </trkpt>
      <trkpt lat="42.51427947543561458587646484375" lon="0.11674842797219753265380859375">
        <ele>655</ele>
        <time>2020-08-16T09:37:30.000Z</time>
      </trkpt>
      <trkpt lat="42.5145412422716617584228515625" lon="0.11637107469141483306884765625">
        <ele>653.79998779296875</ele>
        <time>2020-08-16T09:37:38.000Z</time>
      </trkpt>
      <trkpt lat="42.51461475156247615814208984375" lon="0.11627334170043468475341796875">
        <ele>653.4000244140625</ele>
        <time>2020-08-16T09:37:40.000Z</time>
      </trkpt>
      <trkpt lat="42.5146498717367649078369140625" lon="0.116223134100437164306640625">
        <ele>653.20001220703125</ele>
        <time>2020-08-16T09:37:41.000Z</time>
      </trkpt>
      <trkpt lat="42.5147558189928531646728515625" lon="0.11600327678024768829345703125">
        <ele>652.79998779296875</ele>
        <time>2020-08-16T09:37:45.000Z</time>
      </trkpt>
      <trkpt lat="42.5148171745240688323974609375" lon="0.115785263478755950927734375">
        <ele>653.4000244140625</ele>
        <time>2020-08-16T09:37:50.000Z</time>
      </trkpt>
      <trkpt lat="42.51484106294810771942138671875" lon="0.11541922576725482940673828125">
        <ele>654.20001220703125</ele>
        <time>2020-08-16T09:37:59.000Z</time>
      </trkpt>
      <trkpt lat="42.51484374515712261199951171875" lon="0.11513189412653446197509765625">
        <ele>654.20001220703125</ele>
        <time>2020-08-16T09:38:06.000Z</time>
      </trkpt>
      <trkpt lat="42.514836452901363372802734375" lon="0.11505209840834140777587890625">
        <ele>654.79998779296875</ele>
        <time>2020-08-16T09:38:08.000Z</time>
      </trkpt>
      <trkpt lat="42.51479630358517169952392578125" lon="0.1148615777492523193359375">
        <ele>655.20001220703125</ele>
        <time>2020-08-16T09:38:13.000Z</time>
      </trkpt>
      <trkpt lat="42.51477937214076519012451171875" lon="0.11479318141937255859375">
        <ele>655.4000244140625</ele>
        <time>2020-08-16T09:38:15.000Z</time>
      </trkpt>
      <trkpt lat="42.51473025418817996978759765625" lon="0.114560164511203765869140625">
        <ele>656.20001220703125</ele>
        <time>2020-08-16T09:38:21.000Z</time>
      </trkpt>
      <trkpt lat="42.5146329402923583984375" lon="0.1142714917659759521484375">
        <ele>656.20001220703125</ele>
        <time>2020-08-16T09:38:27.000Z</time>
      </trkpt>
      <trkpt lat="42.51450142823159694671630859375" lon="0.1138772070407867431640625">
        <ele>655.79998779296875</ele>
        <time>2020-08-16T09:38:35.000Z</time>
      </trkpt>
      <trkpt lat="42.5144304335117340087890625" lon="0.11366866528987884521484375">
        <ele>655.79998779296875</ele>
        <time>2020-08-16T09:38:40.000Z</time>
      </trkpt>
      <trkpt lat="42.51434116624295711517333984375" lon="0.11339642107486724853515625">
        <ele>655.79998779296875</ele>
        <time>2020-08-16T09:38:46.000Z</time>
      </trkpt>
      <trkpt lat="42.514316774904727935791015625" lon="0.11309039779007434844970703125">
        <ele>656.20001220703125</ele>
        <time>2020-08-16T09:38:53.000Z</time>
      </trkpt>
      <trkpt lat="42.51433856785297393798828125" lon="0.1129303872585296630859375">
        <ele>656.79998779296875</ele>
        <time>2020-08-16T09:38:57.000Z</time>
      </trkpt>
      <trkpt lat="42.5143714249134063720703125" lon="0.11280926875770092010498046875">
        <ele>657</ele>
        <time>2020-08-16T09:39:00.000Z</time>
      </trkpt>
      <trkpt lat="42.51444778405129909515380859375" lon="0.112534426152706146240234375">
        <ele>657.79998779296875</ele>
        <time>2020-08-16T09:39:07.000Z</time>
      </trkpt>
      <trkpt lat="42.5144463591277599334716796875" lon="0.112444572150707244873046875">
        <ele>657.79998779296875</ele>
        <time>2020-08-16T09:39:09.000Z</time>
      </trkpt>
      <trkpt lat="42.51441207714378833770751953125" lon="0.11223058216273784637451171875">
        <ele>657.79998779296875</ele>
        <time>2020-08-16T09:39:14.000Z</time>
      </trkpt>
      <trkpt lat="42.51435675658285617828369140625" lon="0.1119341142475605010986328125">
        <ele>658.20001220703125</ele>
        <time>2020-08-16T09:39:21.000Z</time>
      </trkpt>
      <trkpt lat="42.514339573681354522705078125" lon="0.1116095669567584991455078125">
        <ele>658.79998779296875</ele>
        <time>2020-08-16T09:39:28.000Z</time>
      </trkpt>
      <trkpt lat="42.51434686593711376190185546875" lon="0.11156237684190273284912109375">
        <ele>658.79998779296875</ele>
        <time>2020-08-16T09:39:29.000Z</time>
      </trkpt>
      <trkpt lat="42.5143821537494659423828125" lon="0.11139591224491596221923828125">
        <ele>659.20001220703125</ele>
        <time>2020-08-16T09:39:33.000Z</time>
      </trkpt>
      <trkpt lat="42.51442934386432170867919921875" lon="0.11119541712105274200439453125">
        <ele>659.5999755859375</ele>
        <time>2020-08-16T09:39:38.000Z</time>
      </trkpt>
      <trkpt lat="42.51448231749236583709716796875" lon="0.11102124117314815521240234375">
        <ele>660</ele>
        <time>2020-08-16T09:39:43.000Z</time>
      </trkpt>
      <trkpt lat="42.5144966505467891693115234375" lon="0.110980756580829620361328125">
        <ele>660.20001220703125</ele>
        <time>2020-08-16T09:39:44.000Z</time>
      </trkpt>
      <trkpt lat="42.51460553146898746490478515625" lon="0.110766179859638214111328125">
        <ele>660.5999755859375</ele>
        <time>2020-08-16T09:39:50.000Z</time>
      </trkpt>
      <trkpt lat="42.5147581659257411956787109375" lon="0.1105497591197490692138671875">
        <ele>661</ele>
        <time>2020-08-16T09:39:57.000Z</time>
      </trkpt>
      <trkpt lat="42.51485891640186309814453125" lon="0.11044733226299285888671875">
        <ele>661.20001220703125</ele>
        <time>2020-08-16T09:40:01.000Z</time>
      </trkpt>
      <trkpt lat="42.51491012983024120330810546875" lon="0.110402740538120269775390625">
        <ele>661.4000244140625</ele>
        <time>2020-08-16T09:40:03.000Z</time>
      </trkpt>
      <trkpt lat="42.5150741636753082275390625" lon="0.11028581298887729644775390625">
        <ele>662.20001220703125</ele>
        <time>2020-08-16T09:40:09.000Z</time>
      </trkpt>
      <trkpt lat="42.515285722911357879638671875" lon="0.110163353383541107177734375">
        <ele>663.20001220703125</ele>
        <time>2020-08-16T09:40:16.000Z</time>
      </trkpt>
      <trkpt lat="42.51531497575342655181884765625" lon="0.11014633812010288238525390625">
        <ele>663.4000244140625</ele>
        <time>2020-08-16T09:40:17.000Z</time>
      </trkpt>
      <trkpt lat="42.5154672749340534210205078125" lon="0.1100890897214412689208984375">
        <ele>664.4000244140625</ele>
        <time>2020-08-16T09:40:22.000Z</time>
      </trkpt>
      <trkpt lat="42.5155608169734477996826171875" lon="0.11005497537553310394287109375">
        <ele>665.20001220703125</ele>
        <time>2020-08-16T09:40:25.000Z</time>
      </trkpt>
      <trkpt lat="42.5157991982996463775634765625" lon="0.109936036169528961181640625">
        <ele>665.79998779296875</ele>
        <time>2020-08-16T09:40:33.000Z</time>
      </trkpt>
      <trkpt lat="42.51598938368260860443115234375" lon="0.10983436368405818939208984375">
        <ele>666</ele>
        <time>2020-08-16T09:40:39.000Z</time>
      </trkpt>
      <trkpt lat="42.516247294843196868896484375" lon="0.10970092378556728363037109375">
        <ele>666.5999755859375</ele>
        <time>2020-08-16T09:40:46.000Z</time>
      </trkpt>
      <trkpt lat="42.5164161063730716705322265625" lon="0.10961978696286678314208984375">
        <ele>666.5999755859375</ele>
        <time>2020-08-16T09:40:51.000Z</time>
      </trkpt>
      <trkpt lat="42.516569830477237701416015625" lon="0.10958642698824405670166015625">
        <ele>666.5999755859375</ele>
        <time>2020-08-16T09:40:56.000Z</time>
      </trkpt>
      <trkpt lat="42.516722381114959716796875" lon="0.10959229432046413421630859375">
        <ele>666.5999755859375</ele>
        <time>2020-08-16T09:41:01.000Z</time>
      </trkpt>
      <trkpt lat="42.51688339747488498687744140625" lon="0.10961626656353473663330078125">
        <ele>666.79998779296875</ele>
        <time>2020-08-16T09:41:07.000Z</time>
      </trkpt>
      <trkpt lat="42.5169114768505096435546875" lon="0.1096210442483425140380859375">
        <ele>666.79998779296875</ele>
        <time>2020-08-16T09:41:08.000Z</time>
      </trkpt>
      <trkpt lat="42.51710065640509128570556640625" lon="0.10966504923999309539794921875">
        <ele>667.20001220703125</ele>
        <time>2020-08-16T09:41:15.000Z</time>
      </trkpt>
      <trkpt lat="42.517302073538303375244140625" lon="0.109724812209606170654296875">
        <ele>667.5999755859375</ele>
        <time>2020-08-16T09:41:22.000Z</time>
      </trkpt>
      <trkpt lat="42.5175024010241031646728515625" lon="0.10971450246870517730712890625">
        <ele>667.5999755859375</ele>
        <time>2020-08-16T09:41:28.000Z</time>
      </trkpt>
      <trkpt lat="42.51754405908286571502685546875" lon="0.10969438590109348297119140625">
        <ele>667.4000244140625</ele>
        <time>2020-08-16T09:41:29.000Z</time>
      </trkpt>
      <trkpt lat="42.51766995526850223541259765625" lon="0.1095844991505146026611328125">
        <ele>667</ele>
        <time>2020-08-16T09:41:32.000Z</time>
      </trkpt>
      <trkpt lat="42.51772695221006870269775390625" lon="0.10935877449810504913330078125">
        <ele>666.79998779296875</ele>
        <time>2020-08-16T09:41:35.000Z</time>
      </trkpt>
      <trkpt lat="42.51771488226950168609619140625" lon="0.10919532738626003265380859375">
        <ele>665.79998779296875</ele>
        <time>2020-08-16T09:41:37.000Z</time>
      </trkpt>
      <trkpt lat="42.51770717091858386993408203125" lon="0.1091181300580501556396484375">
        <ele>665.79998779296875</ele>
        <time>2020-08-16T09:41:38.000Z</time>
      </trkpt>
      <trkpt lat="42.51769945956766605377197265625" lon="0.10897303931415081024169921875">
        <ele>665.4000244140625</ele>
        <time>2020-08-16T09:41:40.000Z</time>
      </trkpt>
      <trkpt lat="42.51772192306816577911376953125" lon="0.10871864855289459228515625">
        <ele>666</ele>
        <time>2020-08-16T09:41:45.000Z</time>
      </trkpt>
      <trkpt lat="42.5177374295890331268310546875" lon="0.10869274847209453582763671875">
        <ele>666</ele>
        <time>2020-08-16T09:41:46.000Z</time>
      </trkpt>
      <trkpt lat="42.51776902936398983001708984375" lon="0.10867849923670291900634765625">
        <ele>666.20001220703125</ele>
        <time>2020-08-16T09:41:48.000Z</time>
      </trkpt>
      <trkpt lat="42.517788223922252655029296875" lon="0.10868168435990810394287109375">
        <ele>666.20001220703125</ele>
        <time>2020-08-16T09:41:52.000Z</time>
      </trkpt>
      <trkpt lat="42.5177535228431224822998046875" lon="0.10857112705707550048828125">
        <ele>667.4000244140625</ele>
        <time>2020-08-16T09:46:25.000Z</time>
      </trkpt>
      <trkpt lat="42.51778277568519115447998046875" lon="0.108514465391635894775390625">
        <ele>667.5999755859375</ele>
        <time>2020-08-16T09:46:28.000Z</time>
      </trkpt>
      <trkpt lat="42.51780331134796142578125" lon="0.10847280733287334442138671875">
        <ele>668</ele>
        <time>2020-08-16T09:46:30.000Z</time>
      </trkpt>
      <trkpt lat="42.51784932799637317657470703125" lon="0.108336769044399261474609375">
        <ele>668.20001220703125</ele>
        <time>2020-08-16T09:46:36.000Z</time>
      </trkpt>
      <trkpt lat="42.5178541056811809539794921875" lon="0.108286477625370025634765625">
        <ele>668.4000244140625</ele>
        <time>2020-08-16T09:46:38.000Z</time>
      </trkpt>
      <trkpt lat="42.51786676235496997833251953125" lon="0.1081910915672779083251953125">
        <ele>669</ele>
        <time>2020-08-16T09:46:42.000Z</time>
      </trkpt>
      <trkpt lat="42.51786408014595508575439453125" lon="0.10814574547111988067626953125">
        <ele>669.5999755859375</ele>
        <time>2020-08-16T09:46:44.000Z</time>
      </trkpt>
      <trkpt lat="42.5178269483149051666259765625" lon="0.10805740021169185638427734375">
        <ele>670.20001220703125</ele>
        <time>2020-08-16T09:46:48.000Z</time>
      </trkpt>
      <trkpt lat="42.51778612844645977020263671875" lon="0.10800459422171115875244140625">
        <ele>670.5999755859375</ele>
        <time>2020-08-16T09:46:51.000Z</time>
      </trkpt>
      <trkpt lat="42.51772888004779815673828125" lon="0.10797156952321529388427734375">
        <ele>671</ele>
        <time>2020-08-16T09:46:54.000Z</time>
      </trkpt>
      <trkpt lat="42.517574317753314971923828125" lon="0.10790216736495494842529296875">
        <ele>671.79998779296875</ele>
        <time>2020-08-16T09:47:02.000Z</time>
      </trkpt>
      <trkpt lat="42.517452277243137359619140625" lon="0.10786972939968109130859375">
        <ele>673</ele>
        <time>2020-08-16T09:47:08.000Z</time>
      </trkpt>
      <trkpt lat="42.51741103827953338623046875" lon="0.1078551448881626129150390625">
        <ele>673.4000244140625</ele>
        <time>2020-08-16T09:47:10.000Z</time>
      </trkpt>
      <trkpt lat="42.51726242713630199432373046875" lon="0.10781432501971721649169921875">
        <ele>674.20001220703125</ele>
        <time>2020-08-16T09:47:17.000Z</time>
      </trkpt>
      <trkpt lat="42.51722060143947601318359375" lon="0.1078028418123722076416015625">
        <ele>674.79998779296875</ele>
        <time>2020-08-16T09:47:19.000Z</time>
      </trkpt>
      <trkpt lat="42.5171367824077606201171875" lon="0.1077880896627902984619140625">
        <ele>675.20001220703125</ele>
        <time>2020-08-16T09:47:23.000Z</time>
      </trkpt>
      <trkpt lat="42.5170289911329746246337890625" lon="0.10776302777230739593505859375">
        <ele>675.79998779296875</ele>
        <time>2020-08-16T09:47:28.000Z</time>
      </trkpt>
      <trkpt lat="42.516965456306934356689453125" lon="0.107748024165630340576171875">
        <ele>676.20001220703125</ele>
        <time>2020-08-16T09:47:31.000Z</time>
      </trkpt>
      <trkpt lat="42.516853809356689453125" lon="0.1077220402657985687255859375">
        <ele>677.20001220703125</ele>
        <time>2020-08-16T09:47:36.000Z</time>
      </trkpt>
      <trkpt lat="42.51683243550360202789306640625" lon="0.10771709494292736053466796875">
        <ele>677.4000244140625</ele>
        <time>2020-08-16T09:47:37.000Z</time>
      </trkpt>
      <trkpt lat="42.51671123318374156951904296875" lon="0.1076861657202243804931640625">
        <ele>678.20001220703125</ele>
        <time>2020-08-16T09:47:43.000Z</time>
      </trkpt>
      <trkpt lat="42.5166906975209712982177734375" lon="0.1076814718544483184814453125">
        <ele>678.4000244140625</ele>
        <time>2020-08-16T09:47:44.000Z</time>
      </trkpt>
      <trkpt lat="42.51657092012465000152587890625" lon="0.10763369500637054443359375">
        <ele>679</ele>
        <time>2020-08-16T09:47:50.000Z</time>
      </trkpt>
      <trkpt lat="42.51649799756705760955810546875" lon="0.107579044997692108154296875">
        <ele>679.5999755859375</ele>
        <time>2020-08-16T09:47:54.000Z</time>
      </trkpt>
      <trkpt lat="42.51644686795771121978759765625" lon="0.107526071369647979736328125">
        <ele>680.4000244140625</ele>
        <time>2020-08-16T09:47:57.000Z</time>
      </trkpt>
      <trkpt lat="42.51641199924051761627197265625" lon="0.1074977405369281768798828125">
        <ele>680.5999755859375</ele>
        <time>2020-08-16T09:47:59.000Z</time>
      </trkpt>
      <trkpt lat="42.516303621232509613037109375" lon="0.1073716767132282257080078125">
        <ele>681.4000244140625</ele>
        <time>2020-08-16T09:48:06.000Z</time>
      </trkpt>
      <trkpt lat="42.51627889461815357208251953125" lon="0.1072912104427814483642578125">
        <ele>681.5999755859375</ele>
        <time>2020-08-16T09:48:09.000Z</time>
      </trkpt>
      <trkpt lat="42.51624670810997486114501953125" lon="0.10717763565480709075927734375">
        <ele>682.20001220703125</ele>
        <time>2020-08-16T09:48:13.000Z</time>
      </trkpt>
      <trkpt lat="42.5162028707563877105712890625" lon="0.1069908030331134796142578125">
        <ele>683.20001220703125</ele>
        <time>2020-08-16T09:48:20.000Z</time>
      </trkpt>
      <trkpt lat="42.51619323156774044036865234375" lon="0.106936655938625335693359375">
        <ele>683.5999755859375</ele>
        <time>2020-08-16T09:48:22.000Z</time>
      </trkpt>
      <trkpt lat="42.51616179943084716796875" lon="0.10683230124413967132568359375">
        <ele>684.20001220703125</ele>
        <time>2020-08-16T09:48:26.000Z</time>
      </trkpt>
      <trkpt lat="42.5161401741206645965576171875" lon="0.106750242412090301513671875">
        <ele>684.79998779296875</ele>
        <time>2020-08-16T09:48:29.000Z</time>
      </trkpt>
      <trkpt lat="42.516089379787445068359375" lon="0.106588639318943023681640625">
        <ele>685</ele>
        <time>2020-08-16T09:48:35.000Z</time>
      </trkpt>
      <trkpt lat="42.51607404090464115142822265625" lon="0.10653574950993061065673828125">
        <ele>685.4000244140625</ele>
        <time>2020-08-16T09:48:37.000Z</time>
      </trkpt>
      <trkpt lat="42.516040094196796417236328125" lon="0.10642376728355884552001953125">
        <ele>686.4000244140625</ele>
        <time>2020-08-16T09:48:42.000Z</time>
      </trkpt>
      <trkpt lat="42.51600866205990314483642578125" lon="0.10629124939441680908203125">
        <ele>687.4000244140625</ele>
        <time>2020-08-16T09:48:48.000Z</time>
      </trkpt>
      <trkpt lat="42.51598536036908626556396484375" lon="0.106187649071216583251953125">
        <ele>688.5999755859375</ele>
        <time>2020-08-16T09:48:53.000Z</time>
      </trkpt>
      <trkpt lat="42.5159834325313568115234375" lon="0.1061656884849071502685546875">
        <ele>689</ele>
        <time>2020-08-16T09:48:54.000Z</time>
      </trkpt>
      <trkpt lat="42.51598066650331020355224609375" lon="0.10614196769893169403076171875">
        <ele>689.20001220703125</ele>
        <time>2020-08-16T09:48:55.000Z</time>
      </trkpt>
      <trkpt lat="42.51595585606992244720458984375" lon="0.10602244175970554351806640625">
        <ele>690</ele>
        <time>2020-08-16T09:49:00.000Z</time>
      </trkpt>
      <trkpt lat="42.51592836342751979827880859375" lon="0.105966366827487945556640625">
        <ele>690.5999755859375</ele>
        <time>2020-08-16T09:49:03.000Z</time>
      </trkpt>
      <trkpt lat="42.515906989574432373046875" lon="0.10593409650027751922607421875">
        <ele>691</ele>
        <time>2020-08-16T09:49:05.000Z</time>
      </trkpt>
      <trkpt lat="42.51586667262017726898193359375" lon="0.10586435906589031219482421875">
        <ele>692</ele>
        <time>2020-08-16T09:49:10.000Z</time>
      </trkpt>
      <trkpt lat="42.5158582068979740142822265625" lon="0.10584927164018154144287109375">
        <ele>692.20001220703125</ele>
        <time>2020-08-16T09:49:11.000Z</time>
      </trkpt>
      <trkpt lat="42.51582208089530467987060546875" lon="0.105771906673908233642578125">
        <ele>693.20001220703125</ele>
        <time>2020-08-16T09:49:16.000Z</time>
      </trkpt>
      <trkpt lat="42.51581788994371891021728515625" lon="0.10575707070529460906982421875">
        <ele>693.5999755859375</ele>
        <time>2020-08-16T09:49:17.000Z</time>
      </trkpt>
      <trkpt lat="42.51581110060214996337890625" lon="0.105737708508968353271484375">
        <ele>693.79998779296875</ele>
        <time>2020-08-16T09:49:18.000Z</time>
      </trkpt>
      <trkpt lat="42.515794336795806884765625" lon="0.1056768558919429779052734375">
        <ele>694.4000244140625</ele>
        <time>2020-08-16T09:49:21.000Z</time>
      </trkpt>
      <trkpt lat="42.51578151248395442962646484375" lon="0.10561843402683734893798828125">
        <ele>695.20001220703125</ele>
        <time>2020-08-16T09:49:24.000Z</time>
      </trkpt>
      <trkpt lat="42.5157723762094974517822265625" lon="0.10558658279478549957275390625">
        <ele>695.5999755859375</ele>
        <time>2020-08-16T09:49:26.000Z</time>
      </trkpt>
      <trkpt lat="42.515761815011501312255859375" lon="0.10550578124821186065673828125">
        <ele>696.20001220703125</ele>
        <time>2020-08-16T09:49:30.000Z</time>
      </trkpt>
      <trkpt lat="42.51574815250933170318603515625" lon="0.10543671436607837677001953125">
        <ele>696.5999755859375</ele>
        <time>2020-08-16T09:49:33.000Z</time>
      </trkpt>
      <trkpt lat="42.51573993824422359466552734375" lon="0.105390362441539764404296875">
        <ele>697</ele>
        <time>2020-08-16T09:49:35.000Z</time>
      </trkpt>
      <trkpt lat="42.51573591493070125579833984375" lon="0.1053469441831111907958984375">
        <ele>697.4000244140625</ele>
        <time>2020-08-16T09:49:37.000Z</time>
      </trkpt>
      <trkpt lat="42.5157272815704345703125" lon="0.10530176572501659393310546875">
        <ele>698</ele>
        <time>2020-08-16T09:49:39.000Z</time>
      </trkpt>
      <trkpt lat="42.51570255495607852935791015625" lon="0.1052188687026500701904296875">
        <ele>699</ele>
        <time>2020-08-16T09:49:43.000Z</time>
      </trkpt>
      <trkpt lat="42.51568864099681377410888671875" lon="0.10517620481550693511962890625">
        <ele>699.20001220703125</ele>
        <time>2020-08-16T09:49:45.000Z</time>
      </trkpt>
      <trkpt lat="42.51563809812068939208984375" lon="0.10508500970900058746337890625">
        <ele>700</ele>
        <time>2020-08-16T09:49:50.000Z</time>
      </trkpt>
      <trkpt lat="42.5156137906014919281005859375" lon="0.10505164973437786102294921875">
        <ele>700.4000244140625</ele>
        <time>2020-08-16T09:49:52.000Z</time>
      </trkpt>
      <trkpt lat="42.515576072037220001220703125" lon="0.10500906966626644134521484375">
        <ele>701.20001220703125</ele>
        <time>2020-08-16T09:49:55.000Z</time>
      </trkpt>
      <trkpt lat="42.5155306421220302581787109375" lon="0.10497839190065860748291015625">
        <ele>701.5999755859375</ele>
        <time>2020-08-16T09:49:58.000Z</time>
      </trkpt>
      <trkpt lat="42.51546601764857769012451171875" lon="0.10494469664990901947021484375">
        <ele>702.20001220703125</ele>
        <time>2020-08-16T09:50:02.000Z</time>
      </trkpt>
      <trkpt lat="42.51538504846394062042236328125" lon="0.1048913039267063140869140625">
        <ele>702.5999755859375</ele>
        <time>2020-08-16T09:50:07.000Z</time>
      </trkpt>
      <trkpt lat="42.51534213311970233917236328125" lon="0.10478795506060123443603515625">
        <ele>703.20001220703125</ele>
        <time>2020-08-16T09:50:12.000Z</time>
      </trkpt>
      <trkpt lat="42.5153402052819728851318359375" lon="0.10473615489900112152099609375">
        <ele>703.20001220703125</ele>
        <time>2020-08-16T09:50:14.000Z</time>
      </trkpt>
      <trkpt lat="42.51534917391836643218994140625" lon="0.1046597957611083984375">
        <ele>703.4000244140625</ele>
        <time>2020-08-16T09:50:17.000Z</time>
      </trkpt>
      <trkpt lat="42.5153584778308868408203125" lon="0.10463942773640155792236328125">
        <ele>703.4000244140625</ele>
        <time>2020-08-16T09:50:18.000Z</time>
      </trkpt>
      <trkpt lat="42.5154791772365570068359375" lon="0.1045127771794795989990234375">
        <ele>704.20001220703125</ele>
        <time>2020-08-16T09:50:26.000Z</time>
      </trkpt>
      <trkpt lat="42.5155722163617610931396484375" lon="0.10433969087898731231689453125">
        <ele>704.79998779296875</ele>
        <time>2020-08-16T09:50:34.000Z</time>
      </trkpt>
      <trkpt lat="42.51557934097945690155029296875" lon="0.10419351048767566680908203125">
        <ele>705.5999755859375</ele>
        <time>2020-08-16T09:50:39.000Z</time>
      </trkpt>
      <trkpt lat="42.51557615585625171661376953125" lon="0.1040779240429401397705078125">
        <ele>706</ele>
        <time>2020-08-16T09:50:43.000Z</time>
      </trkpt>
      <trkpt lat="42.51556173898279666900634765625" lon="0.1038388721644878387451171875">
        <ele>706.4000244140625</ele>
        <time>2020-08-16T09:50:51.000Z</time>
      </trkpt>
      <trkpt lat="42.51555922441184520721435546875" lon="0.10378011502325534820556640625">
        <ele>706.5999755859375</ele>
        <time>2020-08-16T09:50:53.000Z</time>
      </trkpt>
      <trkpt lat="42.51556743867695331573486328125" lon="0.10360962711274623870849609375">
        <ele>707.4000244140625</ele>
        <time>2020-08-16T09:50:59.000Z</time>
      </trkpt>
      <trkpt lat="42.51558579504489898681640625" lon="0.10345824994146823883056640625">
        <ele>707.5999755859375</ele>
        <time>2020-08-16T09:51:04.000Z</time>
      </trkpt>
      <trkpt lat="42.51558386720716953277587890625" lon="0.10336621664464473724365234375">
        <ele>707.79998779296875</ele>
        <time>2020-08-16T09:51:07.000Z</time>
      </trkpt>
      <trkpt lat="42.51554413698613643646240234375" lon="0.1030506379902362823486328125">
        <ele>708.79998779296875</ele>
        <time>2020-08-16T09:51:17.000Z</time>
      </trkpt>
      <trkpt lat="42.5155370123684406280517578125" lon="0.1028323732316493988037109375">
        <ele>710</ele>
        <time>2020-08-16T09:51:24.000Z</time>
      </trkpt>
      <trkpt lat="42.51550993882119655609130859375" lon="0.10262995027005672454833984375">
        <ele>710.79998779296875</ele>
        <time>2020-08-16T09:51:31.000Z</time>
      </trkpt>
      <trkpt lat="42.51550457440316677093505859375" lon="0.102604217827320098876953125">
        <ele>711</ele>
        <time>2020-08-16T09:51:32.000Z</time>
      </trkpt>
      <trkpt lat="42.51546534709632396697998046875" lon="0.10240665636956691741943359375">
        <ele>712</ele>
        <time>2020-08-16T09:51:39.000Z</time>
      </trkpt>
      <trkpt lat="42.5154632516205310821533203125" lon="0.10234647430479526519775390625">
        <ele>712.20001220703125</ele>
        <time>2020-08-16T09:51:41.000Z</time>
      </trkpt>
      <trkpt lat="42.51547926105558872222900390625" lon="0.10223784483969211578369140625">
        <ele>712.20001220703125</ele>
        <time>2020-08-16T09:51:44.000Z</time>
      </trkpt>
      <trkpt lat="42.515516392886638641357421875" lon="0.102035589516162872314453125">
        <ele>712</ele>
        <time>2020-08-16T09:51:48.000Z</time>
      </trkpt>
      <trkpt lat="42.5155209191143512725830078125" lon="0.10197062976658344268798828125">
        <ele>711.79998779296875</ele>
        <time>2020-08-16T09:51:49.000Z</time>
      </trkpt>
      <trkpt lat="42.51551848836243152618408203125" lon="0.1016441546380519866943359375">
        <ele>710.79998779296875</ele>
        <time>2020-08-16T09:51:53.000Z</time>
      </trkpt>
      <trkpt lat="42.515510022640228271484375" lon="0.1015522889792919158935546875">
        <ele>710.4000244140625</ele>
        <time>2020-08-16T09:51:54.000Z</time>
      </trkpt>
      <trkpt lat="42.5154845416545867919921875" lon="0.1013789512217044830322265625">
        <ele>709.4000244140625</ele>
        <time>2020-08-16T09:51:56.000Z</time>
      </trkpt>
      <trkpt lat="42.5154220126569271087646484375" lon="0.10113612748682498931884765625">
        <ele>709</ele>
        <time>2020-08-16T09:51:59.000Z</time>
      </trkpt>
      <trkpt lat="42.51533676870167255401611328125" lon="0.10085441172122955322265625">
        <ele>708.5999755859375</ele>
        <time>2020-08-16T09:52:03.000Z</time>
      </trkpt>
      <trkpt lat="42.51533039845526218414306640625" lon="0.1007774658501148223876953125">
        <ele>708.4000244140625</ele>
        <time>2020-08-16T09:52:04.000Z</time>
      </trkpt>
      <trkpt lat="42.51532964408397674560546875" lon="0.10070345364511013031005859375">
        <ele>708.20001220703125</ele>
        <time>2020-08-16T09:52:05.000Z</time>
      </trkpt>
      <trkpt lat="42.5154189951717853546142578125" lon="0.10042182169854640960693359375">
        <ele>707.5999755859375</ele>
        <time>2020-08-16T09:52:09.000Z</time>
      </trkpt>
      <trkpt lat="42.51544623635709285736083984375" lon="0.10035543702542781829833984375">
        <ele>707.4000244140625</ele>
        <time>2020-08-16T09:52:10.000Z</time>
      </trkpt>
      <trkpt lat="42.51549485139548778533935546875" lon="0.100221075117588043212890625">
        <ele>707.20001220703125</ele>
        <time>2020-08-16T09:52:12.000Z</time>
      </trkpt>
      <trkpt lat="42.51551203429698944091796875" lon="0.1001582108438014984130859375">
        <ele>707.20001220703125</ele>
        <time>2020-08-16T09:52:13.000Z</time>
      </trkpt>
      <trkpt lat="42.5155236013233661651611328125" lon="0.1001002080738544464111328125">
        <ele>707</ele>
        <time>2020-08-16T09:52:14.000Z</time>
      </trkpt>
      <trkpt lat="42.51555151306092739105224609375" lon="0.09989074431359767913818359375">
        <ele>707.4000244140625</ele>
        <time>2020-08-16T09:52:19.000Z</time>
      </trkpt>
      <trkpt lat="42.5156104378402233123779296875" lon="0.09967549704015254974365234375">
        <ele>708</ele>
        <time>2020-08-16T09:52:25.000Z</time>
      </trkpt>
      <trkpt lat="42.51561605371534824371337890625" lon="0.099541805684566497802734375">
        <ele>708.4000244140625</ele>
        <time>2020-08-16T09:52:29.000Z</time>
      </trkpt>
      <trkpt lat="42.51559794880449771881103515625" lon="0.099405013024806976318359375">
        <ele>709</ele>
        <time>2020-08-16T09:52:33.000Z</time>
      </trkpt>
      <trkpt lat="42.51556676812469959259033203125" lon="0.09918498806655406951904296875">
        <ele>709.5999755859375</ele>
        <time>2020-08-16T09:52:39.000Z</time>
      </trkpt>
      <trkpt lat="42.5155621580779552459716796875" lon="0.099147856235504150390625">
        <ele>709.79998779296875</ele>
        <time>2020-08-16T09:52:40.000Z</time>
      </trkpt>
      <trkpt lat="42.51554849557578563690185546875" lon="0.09890385903418064117431640625">
        <ele>710.4000244140625</ele>
        <time>2020-08-16T09:52:47.000Z</time>
      </trkpt>
      <trkpt lat="42.51557263545691967010498046875" lon="0.09880260564386844635009765625">
        <ele>710.5999755859375</ele>
        <time>2020-08-16T09:52:50.000Z</time>
      </trkpt>
      <trkpt lat="42.515601217746734619140625" lon="0.0986967422068119049072265625">
        <ele>711</ele>
        <time>2020-08-16T09:52:53.000Z</time>
      </trkpt>
      <trkpt lat="42.51558973453938961029052734375" lon="0.09845945052802562713623046875">
        <ele>711</ele>
        <time>2020-08-16T09:52:59.000Z</time>
      </trkpt>
      <trkpt lat="42.51554061658680438995361328125" lon="0.0983809120953083038330078125">
        <ele>710.20001220703125</ele>
        <time>2020-08-16T09:53:03.000Z</time>
      </trkpt>
      <trkpt lat="42.51554153859615325927734375" lon="0.0983765535056591033935546875">
        <ele>709.5999755859375</ele>
        <time>2020-08-16T09:53:12.000Z</time>
      </trkpt>
      <trkpt lat="42.515541873872280120849609375" lon="0.09837663732469081878662109375">
        <ele>709.5999755859375</ele>
        <time>2020-08-16T09:53:13.000Z</time>
      </trkpt>
      <trkpt lat="42.515545897185802459716796875" lon="0.09837336838245391845703125">
        <ele>709.5999755859375</ele>
        <time>2020-08-16T09:53:23.000Z</time>
      </trkpt>
      <trkpt lat="42.51554849557578563690185546875" lon="0.098364315927028656005859375">
        <ele>710</ele>
        <time>2020-08-16T09:53:30.000Z</time>
      </trkpt>
      <trkpt lat="42.51554782502353191375732421875" lon="0.09836339391767978668212890625">
        <ele>709.79998779296875</ele>
        <time>2020-08-16T09:53:50.000Z</time>
      </trkpt>
      <trkpt lat="42.51554816029965877532958984375" lon="0.09836154989898204803466796875">
        <ele>709.79998779296875</ele>
        <time>2020-08-16T09:54:08.000Z</time>
      </trkpt>
      <trkpt lat="42.51554816029965877532958984375" lon="0.09836129844188690185546875">
        <ele>709.79998779296875</ele>
        <time>2020-08-16T09:54:38.000Z</time>
      </trkpt>
      <trkpt lat="42.51554849557578563690185546875" lon="0.0983591191470623016357421875">
        <ele>709.79998779296875</ele>
        <time>2020-08-16T09:55:02.000Z</time>
      </trkpt>
      <trkpt lat="42.51554849557578563690185546875" lon="0.09835886768996715545654296875">
        <ele>709.79998779296875</ele>
        <time>2020-08-16T09:55:14.000Z</time>
      </trkpt>
      <trkpt lat="42.5155487470328807830810546875" lon="0.09835853241384029388427734375">
        <ele>709.79998779296875</ele>
        <time>2020-08-16T09:55:17.000Z</time>
      </trkpt>
      <trkpt lat="42.51554824411869049072265625" lon="0.09835786186158657073974609375">
        <ele>710.20001220703125</ele>
        <time>2020-08-16T09:55:43.000Z</time>
      </trkpt>
      <trkpt lat="42.5155487470328807830810546875" lon="0.09835886768996715545654296875">
        <ele>710.4000244140625</ele>
        <time>2020-08-16T09:55:52.000Z</time>
      </trkpt>
      <trkpt lat="42.515548579394817352294921875" lon="0.0983591191470623016357421875">
        <ele>710.20001220703125</ele>
        <time>2020-08-16T09:56:12.000Z</time>
      </trkpt>
      <trkpt lat="42.51554296351969242095947265625" lon="0.09835266508162021636962890625">
        <ele>710</ele>
        <time>2020-08-16T09:56:15.000Z</time>
      </trkpt>
      <trkpt lat="42.51553407870233058929443359375" lon="0.09833984076976776123046875">
        <ele>710</ele>
        <time>2020-08-16T09:56:16.000Z</time>
      </trkpt>
      <trkpt lat="42.51552133820950984954833984375" lon="0.0982350669801235198974609375">
        <ele>709.79998779296875</ele>
        <time>2020-08-16T09:56:20.000Z</time>
      </trkpt>
      <trkpt lat="42.515524439513683319091796875" lon="0.0981063209474086761474609375">
        <ele>709.4000244140625</ele>
        <time>2020-08-16T09:56:23.000Z</time>
      </trkpt>
      <trkpt lat="42.51553558744490146636962890625" lon="0.0980600528419017791748046875">
        <ele>709.20001220703125</ele>
        <time>2020-08-16T09:56:24.000Z</time>
      </trkpt>
      <trkpt lat="42.5155403651297092437744140625" lon="0.0980100966989994049072265625">
        <ele>709</ele>
        <time>2020-08-16T09:56:25.000Z</time>
      </trkpt>
      <trkpt lat="42.51559442840516567230224609375" lon="0.0978805124759674072265625">
        <ele>708.5999755859375</ele>
        <time>2020-08-16T09:56:28.000Z</time>
      </trkpt>
      <trkpt lat="42.51567740924656391143798828125" lon="0.09771983139216899871826171875">
        <ele>708.5999755859375</ele>
        <time>2020-08-16T09:56:33.000Z</time>
      </trkpt>
      <trkpt lat="42.51570791937410831451416015625" lon="0.09760759770870208740234375">
        <ele>708</ele>
        <time>2020-08-16T09:56:37.000Z</time>
      </trkpt>
      <trkpt lat="42.51571378670632839202880859375" lon="0.097601898014545440673828125">
        <ele>707.79998779296875</ele>
        <time>2020-08-16T09:56:38.000Z</time>
      </trkpt>
      <trkpt lat="42.51572049222886562347412109375" lon="0.097577758133411407470703125">
        <ele>707.4000244140625</ele>
        <time>2020-08-16T09:56:40.000Z</time>
      </trkpt>
      <trkpt lat="42.51573272980749607086181640625" lon="0.0975383631885051727294921875">
        <ele>707.20001220703125</ele>
        <time>2020-08-16T09:56:42.000Z</time>
      </trkpt>
      <trkpt lat="42.5157351605594158172607421875" lon="0.0975051708519458770751953125">
        <ele>707</ele>
        <time>2020-08-16T09:56:43.000Z</time>
      </trkpt>
      <trkpt lat="42.5157351605594158172607421875" lon="0.09746602736413478851318359375">
        <ele>706.79998779296875</ele>
        <time>2020-08-16T09:56:44.000Z</time>
      </trkpt>
      <trkpt lat="42.5157686881721019744873046875" lon="0.09727374650537967681884765625">
        <ele>706</ele>
        <time>2020-08-16T09:56:48.000Z</time>
      </trkpt>
      <trkpt lat="42.5157908163964748382568359375" lon="0.0972205214202404022216796875">
        <ele>705.79998779296875</ele>
        <time>2020-08-16T09:56:49.000Z</time>
      </trkpt>
      <trkpt lat="42.5158142857253551483154296875" lon="0.09715639986097812652587890625">
        <ele>705.5999755859375</ele>
        <time>2020-08-16T09:56:50.000Z</time>
      </trkpt>
      <trkpt lat="42.51587907783687114715576171875" lon="0.0970351137220859527587890625">
        <ele>704.79998779296875</ele>
        <time>2020-08-16T09:56:52.000Z</time>
      </trkpt>
      <trkpt lat="42.5159172154963016510009765625" lon="0.096978284418582916259765625">
        <ele>704.4000244140625</ele>
        <time>2020-08-16T09:56:53.000Z</time>
      </trkpt>
      <trkpt lat="42.5159634836018085479736328125" lon="0.09692606516182422637939453125">
        <ele>703.79998779296875</ele>
        <time>2020-08-16T09:56:54.000Z</time>
      </trkpt>
      <trkpt lat="42.51606616191565990447998046875" lon="0.096830762922763824462890625">
        <ele>703.20001220703125</ele>
        <time>2020-08-16T09:56:56.000Z</time>
      </trkpt>
      <trkpt lat="42.516116537153720855712890625" lon="0.09678524918854236602783203125">
        <ele>702.5999755859375</ele>
        <time>2020-08-16T09:56:57.000Z</time>
      </trkpt>
      <trkpt lat="42.5161629728972911834716796875" lon="0.09674082510173320770263671875">
        <ele>702</ele>
        <time>2020-08-16T09:56:58.000Z</time>
      </trkpt>
      <trkpt lat="42.516217790544033050537109375" lon="0.0966981612145900726318359375">
        <ele>701.5999755859375</ele>
        <time>2020-08-16T09:56:59.000Z</time>
      </trkpt>
      <trkpt lat="42.5163356401026248931884765625" lon="0.096626579761505126953125">
        <ele>701</ele>
        <time>2020-08-16T09:57:01.000Z</time>
      </trkpt>
      <trkpt lat="42.51649481244385242462158203125" lon="0.09656866081058979034423828125">
        <ele>699.5999755859375</ele>
        <time>2020-08-16T09:57:04.000Z</time>
      </trkpt>
      <trkpt lat="42.51654694788157939910888671875" lon="0.09655483067035675048828125">
        <ele>699.4000244140625</ele>
        <time>2020-08-16T09:57:05.000Z</time>
      </trkpt>
      <trkpt lat="42.51659086905419826507568359375" lon="0.096530020236968994140625">
        <ele>699</ele>
        <time>2020-08-16T09:57:06.000Z</time>
      </trkpt>
      <trkpt lat="42.51665557734668254852294921875" lon="0.09643622674047946929931640625">
        <ele>698.5999755859375</ele>
        <time>2020-08-16T09:57:08.000Z</time>
      </trkpt>
      <trkpt lat="42.51670737750828266143798828125" lon="0.0963253341615200042724609375">
        <ele>697.79998779296875</ele>
        <time>2020-08-16T09:57:10.000Z</time>
      </trkpt>
      <trkpt lat="42.51674325205385684967041015625" lon="0.09628116153180599212646484375">
        <ele>697.20001220703125</ele>
        <time>2020-08-16T09:57:11.000Z</time>
      </trkpt>
      <trkpt lat="42.51683142967522144317626953125" lon="0.0962202250957489013671875">
        <ele>696</ele>
        <time>2020-08-16T09:57:13.000Z</time>
      </trkpt>
      <trkpt lat="42.51688800752162933349609375" lon="0.09619080461561679840087890625">
        <ele>695.79998779296875</ele>
        <time>2020-08-16T09:57:14.000Z</time>
      </trkpt>
      <trkpt lat="42.51698398031294345855712890625" lon="0.096097849309444427490234375">
        <ele>695.20001220703125</ele>
        <time>2020-08-16T09:57:16.000Z</time>
      </trkpt>
      <trkpt lat="42.5170182622969150543212890625" lon="0.09603054262697696685791015625">
        <ele>695.20001220703125</ele>
        <time>2020-08-16T09:57:17.000Z</time>
      </trkpt>
      <trkpt lat="42.51706645824015140533447265625" lon="0.09588168002665042877197265625">
        <ele>695</ele>
        <time>2020-08-16T09:57:19.000Z</time>
      </trkpt>
      <trkpt lat="42.51708858646452426910400390625" lon="0.09580842219293117523193359375">
        <ele>695</ele>
        <time>2020-08-16T09:57:20.000Z</time>
      </trkpt>
      <trkpt lat="42.5171141512691974639892578125" lon="0.0957402773201465606689453125">
        <ele>695</ele>
        <time>2020-08-16T09:57:21.000Z</time>
      </trkpt>
      <trkpt lat="42.5171421468257904052734375" lon="0.0956772454082965850830078125">
        <ele>694.79998779296875</ele>
        <time>2020-08-16T09:57:22.000Z</time>
      </trkpt>
      <trkpt lat="42.5172224454581737518310546875" lon="0.09552561677992343902587890625">
        <ele>694.5999755859375</ele>
        <time>2020-08-16T09:57:25.000Z</time>
      </trkpt>
      <trkpt lat="42.51726192422211170196533203125" lon="0.09545118547976016998291015625">
        <ele>694.79998779296875</ele>
        <time>2020-08-16T09:57:27.000Z</time>
      </trkpt>
      <trkpt lat="42.5172992236912250518798828125" lon="0.09538748301565647125244140625">
        <ele>694.79998779296875</ele>
        <time>2020-08-16T09:57:29.000Z</time>
      </trkpt>
      <trkpt lat="42.51746828667819499969482421875" lon="0.09517692960798740386962890625">
        <ele>695.20001220703125</ele>
        <time>2020-08-16T09:57:36.000Z</time>
      </trkpt>
      <trkpt lat="42.5175473280251026153564453125" lon="0.09493452496826648712158203125">
        <ele>695.79998779296875</ele>
        <time>2020-08-16T09:57:43.000Z</time>
      </trkpt>
      <trkpt lat="42.5176237709820270538330078125" lon="0.09475632570683956146240234375">
        <ele>696.20001220703125</ele>
        <time>2020-08-16T09:57:48.000Z</time>
      </trkpt>
      <trkpt lat="42.5176324881613254547119140625" lon="0.09471760131418704986572265625">
        <ele>696.4000244140625</ele>
        <time>2020-08-16T09:57:49.000Z</time>
      </trkpt>
      <trkpt lat="42.51775561831891536712646484375" lon="0.0944883562624454498291015625">
        <ele>697</ele>
        <time>2020-08-16T09:57:56.000Z</time>
      </trkpt>
      <trkpt lat="42.51784748397767543792724609375" lon="0.0942801497876644134521484375">
        <ele>697.20001220703125</ele>
        <time>2020-08-16T09:58:02.000Z</time>
      </trkpt>
      <trkpt lat="42.517918311059474945068359375" lon="0.0941638089716434478759765625">
        <ele>698.4000244140625</ele>
        <time>2020-08-16T09:58:06.000Z</time>
      </trkpt>
      <trkpt lat="42.5179499946534633636474609375" lon="0.09408183395862579345703125">
        <ele>698.79998779296875</ele>
        <time>2020-08-16T09:58:09.000Z</time>
      </trkpt>
      <trkpt lat="42.518044374883174896240234375" lon="0.09395602159202098846435546875">
        <ele>699.5999755859375</ele>
        <time>2020-08-16T09:58:15.000Z</time>
      </trkpt>
      <trkpt lat="42.518130876123905181884765625" lon="0.09385711513459682464599609375">
        <ele>700.5999755859375</ele>
        <time>2020-08-16T09:58:20.000Z</time>
      </trkpt>
      <trkpt lat="42.51814738847315311431884765625" lon="0.0938359089195728302001953125">
        <ele>700.79998779296875</ele>
        <time>2020-08-16T09:58:21.000Z</time>
      </trkpt>
      <trkpt lat="42.518222071230411529541015625" lon="0.09372401051223278045654296875">
        <ele>701.79998779296875</ele>
        <time>2020-08-16T09:58:26.000Z</time>
      </trkpt>
      <trkpt lat="42.518234811723232269287109375" lon="0.09369827806949615478515625">
        <ele>702</ele>
        <time>2020-08-16T09:58:27.000Z</time>
      </trkpt>
      <trkpt lat="42.518285773694515228271484375" lon="0.09358872659504413604736328125">
        <ele>703</ele>
        <time>2020-08-16T09:58:31.000Z</time>
      </trkpt>
      <trkpt lat="42.518312595784664154052734375" lon="0.09353977628052234649658203125">
        <ele>703.4000244140625</ele>
        <time>2020-08-16T09:58:33.000Z</time>
      </trkpt>
      <trkpt lat="42.51839884556829929351806640625" lon="0.09344271384179592132568359375">
        <ele>704.20001220703125</ele>
        <time>2020-08-16T09:58:38.000Z</time>
      </trkpt>
      <trkpt lat="42.51841594465076923370361328125" lon="0.09343567304313182830810546875">
        <ele>704.4000244140625</ele>
        <time>2020-08-16T09:58:39.000Z</time>
      </trkpt>
      <trkpt lat="42.51843974925577640533447265625" lon="0.093435756862163543701171875">
        <ele>704.79998779296875</ele>
        <time>2020-08-16T09:58:41.000Z</time>
      </trkpt>
      <trkpt lat="42.5184814073145389556884765625" lon="0.09346869774162769317626953125">
        <ele>705</ele>
        <time>2020-08-16T09:58:43.000Z</time>
      </trkpt>
      <trkpt lat="42.51851568929851055145263671875" lon="0.093482024967670440673828125">
        <ele>705.20001220703125</ele>
        <time>2020-08-16T09:58:45.000Z</time>
      </trkpt>
      <trkpt lat="42.518533207476139068603515625" lon="0.09349174797534942626953125">
        <ele>705.4000244140625</ele>
        <time>2020-08-16T09:58:46.000Z</time>
      </trkpt>
      <trkpt lat="42.51858877949416637420654296875" lon="0.09350641630589962005615234375">
        <ele>706</ele>
        <time>2020-08-16T09:58:49.000Z</time>
      </trkpt>
      <trkpt lat="42.51861258409917354583740234375" lon="0.09350121952593326568603515625">
        <ele>706.4000244140625</ele>
        <time>2020-08-16T09:58:50.000Z</time>
      </trkpt>
      <trkpt lat="42.51868751831352710723876953125" lon="0.093478001654148101806640625">
        <ele>707.4000244140625</ele>
        <time>2020-08-16T09:58:54.000Z</time>
      </trkpt>
      <trkpt lat="42.51870662905275821685791015625" lon="0.09347439743578433990478515625">
        <ele>707.5999755859375</ele>
        <time>2020-08-16T09:58:55.000Z</time>
      </trkpt>
      <trkpt lat="42.51879648305475711822509765625" lon="0.0934453122317790985107421875">
        <ele>708.4000244140625</ele>
        <time>2020-08-16T09:59:00.000Z</time>
      </trkpt>
      <trkpt lat="42.51881525851786136627197265625" lon="0.09343810379505157470703125">
        <ele>708.4000244140625</ele>
        <time>2020-08-16T09:59:01.000Z</time>
      </trkpt>
      <trkpt lat="42.5189139135181903839111328125" lon="0.09342611767351627349853515625">
        <ele>709.5999755859375</ele>
        <time>2020-08-16T09:59:06.000Z</time>
      </trkpt>
      <trkpt lat="42.51902732066810131072998046875" lon="0.09341907687485218048095703125">
        <ele>710.5999755859375</ele>
        <time>2020-08-16T09:59:12.000Z</time>
      </trkpt>
      <trkpt lat="42.5191242992877960205078125" lon="0.0934003852307796478271484375">
        <ele>711.4000244140625</ele>
        <time>2020-08-16T09:59:17.000Z</time>
      </trkpt>
      <trkpt lat="42.5191797874867916107177734375" lon="0.09336928837001323699951171875">
        <ele>711.79998779296875</ele>
        <time>2020-08-16T09:59:20.000Z</time>
      </trkpt>
      <trkpt lat="42.519230581820011138916015625" lon="0.0933329947292804718017578125">
        <ele>712.4000244140625</ele>
        <time>2020-08-16T09:59:23.000Z</time>
      </trkpt>
      <trkpt lat="42.5192786939442157745361328125" lon="0.09328882209956645965576171875">
        <ele>712.79998779296875</ele>
        <time>2020-08-16T09:59:26.000Z</time>
      </trkpt>
      <trkpt lat="42.51932202838361263275146484375" lon="0.09322889149188995361328125">
        <ele>713.4000244140625</ele>
        <time>2020-08-16T09:59:29.000Z</time>
      </trkpt>
      <trkpt lat="42.51935069449245929718017578125" lon="0.09318958036601543426513671875">
        <ele>713.79998779296875</ele>
        <time>2020-08-16T09:59:31.000Z</time>
      </trkpt>
      <trkpt lat="42.51936963759362697601318359375" lon="0.093169547617435455322265625">
        <ele>714</ele>
        <time>2020-08-16T09:59:32.000Z</time>
      </trkpt>
      <trkpt lat="42.5194071047008037567138671875" lon="0.093118250370025634765625">
        <ele>714</ele>
        <time>2020-08-16T09:59:34.000Z</time>
      </trkpt>
      <trkpt lat="42.519431412220001220703125" lon="0.0930929370224475860595703125">
        <ele>714</ele>
        <time>2020-08-16T09:59:35.000Z</time>
      </trkpt>
      <trkpt lat="42.51953040249645709991455078125" lon="0.0930128060281276702880859375">
        <ele>713.5999755859375</ele>
        <time>2020-08-16T09:59:39.000Z</time>
      </trkpt>
      <trkpt lat="42.5195780955255031585693359375" lon="0.09297215379774570465087890625">
        <ele>713.4000244140625</ele>
        <time>2020-08-16T09:59:42.000Z</time>
      </trkpt>
      <trkpt lat="42.51962729729712009429931640625" lon="0.0929061882197856903076171875">
        <ele>712.79998779296875</ele>
        <time>2020-08-16T09:59:45.000Z</time>
      </trkpt>
      <trkpt lat="42.51979409717023372650146484375" lon="0.09271658957004547119140625">
        <ele>712.20001220703125</ele>
        <time>2020-08-16T09:59:51.000Z</time>
      </trkpt>
      <trkpt lat="42.51987976022064685821533203125" lon="0.0925724208354949951171875">
        <ele>711.79998779296875</ele>
        <time>2020-08-16T09:59:54.000Z</time>
      </trkpt>
      <trkpt lat="42.51992904581129550933837890625" lon="0.092465467751026153564453125">
        <ele>711.4000244140625</ele>
        <time>2020-08-16T09:59:56.000Z</time>
      </trkpt>
      <trkpt lat="42.51995083875954151153564453125" lon="0.09240754880011081695556640625">
        <ele>711.20001220703125</ele>
        <time>2020-08-16T09:59:57.000Z</time>
      </trkpt>
      <trkpt lat="42.51999123953282833099365234375" lon="0.09230009280145168304443359375">
        <ele>710.5999755859375</ele>
        <time>2020-08-16T09:59:59.000Z</time>
      </trkpt>
      <trkpt lat="42.52003080211579799652099609375" lon="0.09218878112733364105224609375">
        <ele>710</ele>
        <time>2020-08-16T10:00:01.000Z</time>
      </trkpt>
      <trkpt lat="42.52014689147472381591796875" lon="0.092046372592449188232421875">
        <ele>710.5999755859375</ele>
        <time>2020-08-16T10:00:05.000Z</time>
      </trkpt>
      <trkpt lat="42.52018217928707599639892578125" lon="0.09197420440614223480224609375">
        <ele>711</ele>
        <time>2020-08-16T10:00:07.000Z</time>
      </trkpt>
      <trkpt lat="42.52022660337388515472412109375" lon="0.0918426923453807830810546875">
        <ele>711.4000244140625</ele>
        <time>2020-08-16T10:00:11.000Z</time>
      </trkpt>
      <trkpt lat="42.52029709517955780029296875" lon="0.09168653748929500579833984375">
        <ele>711.4000244140625</ele>
        <time>2020-08-16T10:00:16.000Z</time>
      </trkpt>
      <trkpt lat="42.52031343989074230194091796875" lon="0.09165636263787746429443359375">
        <ele>711.79998779296875</ele>
        <time>2020-08-16T10:00:17.000Z</time>
      </trkpt>
      <trkpt lat="42.52040463499724864959716796875" lon="0.091544799506664276123046875">
        <ele>712</ele>
        <time>2020-08-16T10:00:22.000Z</time>
      </trkpt>
      <trkpt lat="42.52047873102128505706787109375" lon="0.09135981090366840362548828125">
        <ele>712.79998779296875</ele>
        <time>2020-08-16T10:00:28.000Z</time>
      </trkpt>
      <trkpt lat="42.52057244069874286651611328125" lon="0.0911107845604419708251953125">
        <ele>713.5999755859375</ele>
        <time>2020-08-16T10:00:36.000Z</time>
      </trkpt>
      <trkpt lat="42.5206137634813785552978515625" lon="0.0910299830138683319091796875">
        <ele>713.79998779296875</ele>
        <time>2020-08-16T10:00:39.000Z</time>
      </trkpt>
      <trkpt lat="42.52065810374915599822998046875" lon="0.09095328859984874725341796875">
        <ele>714.4000244140625</ele>
        <time>2020-08-16T10:00:42.000Z</time>
      </trkpt>
      <trkpt lat="42.52066866494715213775634765625" lon="0.09092487394809722900390625">
        <ele>714.4000244140625</ele>
        <time>2020-08-16T10:00:43.000Z</time>
      </trkpt>
      <trkpt lat="42.5206845067441463470458984375" lon="0.09082588367164134979248046875">
        <ele>715</ele>
        <time>2020-08-16T10:00:46.000Z</time>
      </trkpt>
      <trkpt lat="42.52068601548671722412109375" lon="0.09079453535377979278564453125">
        <ele>715.20001220703125</ele>
        <time>2020-08-16T10:00:47.000Z</time>
      </trkpt>
      <trkpt lat="42.52068660221993923187255859375" lon="0.090636871755123138427734375">
        <ele>716</ele>
        <time>2020-08-16T10:00:52.000Z</time>
      </trkpt>
      <trkpt lat="42.52068199217319488525390625" lon="0.0905082933604717254638671875">
        <ele>717.20001220703125</ele>
        <time>2020-08-16T10:00:56.000Z</time>
      </trkpt>
      <trkpt lat="42.52071208320558071136474609375" lon="0.090297572314739227294921875">
        <ele>718</ele>
        <time>2020-08-16T10:01:03.000Z</time>
      </trkpt>
      <trkpt lat="42.5207210518419742584228515625" lon="0.09027066640555858612060546875">
        <ele>718.20001220703125</ele>
        <time>2020-08-16T10:01:04.000Z</time>
      </trkpt>
      <trkpt lat="42.52073689363896846771240234375" lon="0.09016237221658229827880859375">
        <ele>719.4000244140625</ele>
        <time>2020-08-16T10:01:08.000Z</time>
      </trkpt>
      <trkpt lat="42.52074309624731540679931640625" lon="0.09013722650706768035888671875">
        <ele>719.79998779296875</ele>
        <time>2020-08-16T10:01:09.000Z</time>
      </trkpt>
      <trkpt lat="42.52077042125165462493896484375" lon="0.0900047086179256439208984375">
        <ele>720.20001220703125</ele>
        <time>2020-08-16T10:01:14.000Z</time>
      </trkpt>
      <trkpt lat="42.520777881145477294921875" lon="0.08998048491775989532470703125">
        <ele>720.4000244140625</ele>
        <time>2020-08-16T10:01:15.000Z</time>
      </trkpt>
      <trkpt lat="42.52078257501125335693359375" lon="0.08995517157018184661865234375">
        <ele>720.5999755859375</ele>
        <time>2020-08-16T10:01:16.000Z</time>
      </trkpt>
      <trkpt lat="42.5207874365150928497314453125" lon="0.08989767171442508697509765625">
        <ele>721.20001220703125</ele>
        <time>2020-08-16T10:01:18.000Z</time>
      </trkpt>
      <trkpt lat="42.5208167731761932373046875" lon="0.08979474194347858428955078125">
        <ele>721.5999755859375</ele>
        <time>2020-08-16T10:01:22.000Z</time>
      </trkpt>
      <trkpt lat="42.52082641236484050750732421875" lon="0.089770853519439697265625">
        <ele>721.79998779296875</ele>
        <time>2020-08-16T10:01:23.000Z</time>
      </trkpt>
      <trkpt lat="42.52083957195281982421875" lon="0.089748390018939971923828125">
        <ele>722</ele>
        <time>2020-08-16T10:01:24.000Z</time>
      </trkpt>
      <trkpt lat="42.520941160619258880615234375" lon="0.089667923748493194580078125">
        <ele>722.79998779296875</ele>
        <time>2020-08-16T10:01:30.000Z</time>
      </trkpt>
      <trkpt lat="42.520959265530109405517578125" lon="0.0896610505878925323486328125">
        <ele>723</ele>
        <time>2020-08-16T10:01:31.000Z</time>
      </trkpt>
      <trkpt lat="42.521014250814914703369140625" lon="0.0895946659147739410400390625">
        <ele>724</ele>
        <time>2020-08-16T10:01:35.000Z</time>
      </trkpt>
      <trkpt lat="42.52108675427734851837158203125" lon="0.08950464427471160888671875">
        <ele>724.79998779296875</ele>
        <time>2020-08-16T10:01:40.000Z</time>
      </trkpt>
      <trkpt lat="42.52110117115080356597900390625" lon="0.08948477916419506072998046875">
        <ele>724.79998779296875</ele>
        <time>2020-08-16T10:01:41.000Z</time>
      </trkpt>
      <trkpt lat="42.5211166776716709136962890625" lon="0.08946550078690052032470703125">
        <ele>725</ele>
        <time>2020-08-16T10:01:42.000Z</time>
      </trkpt>
      <trkpt lat="42.52116437070071697235107421875" lon="0.08941587992012500762939453125">
        <ele>725.4000244140625</ele>
        <time>2020-08-16T10:01:45.000Z</time>
      </trkpt>
      <trkpt lat="42.52122689969837665557861328125" lon="0.0893458910286426544189453125">
        <ele>726.20001220703125</ele>
        <time>2020-08-16T10:01:49.000Z</time>
      </trkpt>
      <trkpt lat="42.5212994031608104705810546875" lon="0.0892553664743900299072265625">
        <ele>727.20001220703125</ele>
        <time>2020-08-16T10:01:54.000Z</time>
      </trkpt>
      <trkpt lat="42.52131809480488300323486328125" lon="0.08924203924834728240966796875">
        <ele>727.20001220703125</ele>
        <time>2020-08-16T10:01:55.000Z</time>
      </trkpt>
      <trkpt lat="42.5214197672903537750244140625" lon="0.08913491852581501007080078125">
        <ele>728.20001220703125</ele>
        <time>2020-08-16T10:02:01.000Z</time>
      </trkpt>
      <trkpt lat="42.5214361958205699920654296875" lon="0.08911832235753536224365234375">
        <ele>728.20001220703125</ele>
        <time>2020-08-16T10:02:02.000Z</time>
      </trkpt>
      <trkpt lat="42.5215029157698154449462890625" lon="0.08902293629944324493408203125">
        <ele>729</ele>
        <time>2020-08-16T10:02:07.000Z</time>
      </trkpt>
      <trkpt lat="42.52155245281755924224853515625" lon="0.088917575776576995849609375">
        <ele>730</ele>
        <time>2020-08-16T10:02:12.000Z</time>
      </trkpt>
      <trkpt lat="42.52156041562557220458984375" lon="0.0888909213244915008544921875">
        <ele>730.20001220703125</ele>
        <time>2020-08-16T10:02:13.000Z</time>
      </trkpt>
      <trkpt lat="42.521565444767475128173828125" lon="0.0887403823435306549072265625">
        <ele>730.5999755859375</ele>
        <time>2020-08-16T10:02:18.000Z</time>
      </trkpt>
      <trkpt lat="42.52156988717615604400634765625" lon="0.0887138955295085906982421875">
        <ele>730.5999755859375</ele>
        <time>2020-08-16T10:02:19.000Z</time>
      </trkpt>
      <trkpt lat="42.52163073979318141937255859375" lon="0.08864675648510456085205078125">
        <ele>731.20001220703125</ele>
        <time>2020-08-16T10:02:23.000Z</time>
      </trkpt>
      <trkpt lat="42.52165068872272968292236328125" lon="0.08863954804837703704833984375">
        <ele>731.20001220703125</ele>
        <time>2020-08-16T10:02:24.000Z</time>
      </trkpt>
      <trkpt lat="42.5216843001544475555419921875" lon="0.088639296591281890869140625">
        <ele>731.20001220703125</ele>
        <time>2020-08-16T10:02:26.000Z</time>
      </trkpt>
      <trkpt lat="42.52173936925828456878662109375" lon="0.0886689685285091400146484375">
        <ele>731.4000244140625</ele>
        <time>2020-08-16T10:02:29.000Z</time>
      </trkpt>
      <trkpt lat="42.52176216803491115570068359375" lon="0.088676512241363525390625">
        <ele>731.4000244140625</ele>
        <time>2020-08-16T10:02:30.000Z</time>
      </trkpt>
      <trkpt lat="42.52189711667597293853759765625" lon="0.0887457467615604400634765625">
        <ele>732.20001220703125</ele>
        <time>2020-08-16T10:02:35.000Z</time>
      </trkpt>
      <trkpt lat="42.521924190223217010498046875" lon="0.0887554697692394256591796875">
        <ele>732.20001220703125</ele>
        <time>2020-08-16T10:02:36.000Z</time>
      </trkpt>
      <trkpt lat="42.52213030122220516204833984375" lon="0.0887832976877689361572265625">
        <ele>732.4000244140625</ele>
        <time>2020-08-16T10:02:43.000Z</time>
      </trkpt>
      <trkpt lat="42.52230548299849033355712890625" lon="0.0888071022927761077880859375">
        <ele>732.79998779296875</ele>
        <time>2020-08-16T10:02:49.000Z</time>
      </trkpt>
      <trkpt lat="42.522415705025196075439453125" lon="0.088910199701786041259765625">
        <ele>733.20001220703125</ele>
        <time>2020-08-16T10:02:54.000Z</time>
      </trkpt>
      <trkpt lat="42.52243892289698123931884765625" lon="0.08893241174519062042236328125">
        <ele>733.20001220703125</ele>
        <time>2020-08-16T10:02:55.000Z</time>
      </trkpt>
      <trkpt lat="42.52256616018712520599365234375" lon="0.08901405148208141326904296875">
        <ele>733.20001220703125</ele>
        <time>2020-08-16T10:03:00.000Z</time>
      </trkpt>
      <trkpt lat="42.5227211415767669677734375" lon="0.0891058333218097686767578125">
        <ele>733.20001220703125</ele>
        <time>2020-08-16T10:03:06.000Z</time>
      </trkpt>
      <trkpt lat="42.5228819064795970916748046875" lon="0.08918554522097110748291015625">
        <ele>733.20001220703125</ele>
        <time>2020-08-16T10:03:12.000Z</time>
      </trkpt>
      <trkpt lat="42.52300302498042583465576171875" lon="0.0892774946987628936767578125">
        <ele>733</ele>
        <time>2020-08-16T10:03:17.000Z</time>
      </trkpt>
      <trkpt lat="42.52313680015504360198974609375" lon="0.089296437799930572509765625">
        <ele>733.5999755859375</ele>
        <time>2020-08-16T10:03:22.000Z</time>
      </trkpt>
      <trkpt lat="42.5232845731079578399658203125" lon="0.08924773894250392913818359375">
        <ele>734</ele>
        <time>2020-08-16T10:03:28.000Z</time>
      </trkpt>
      <trkpt lat="42.52339303493499755859375" lon="0.08930456824600696563720703125">
        <ele>734.20001220703125</ele>
        <time>2020-08-16T10:03:32.000Z</time>
      </trkpt>
      <trkpt lat="42.5234426558017730712890625" lon="0.08937665261328220367431640625">
        <ele>734.4000244140625</ele>
        <time>2020-08-16T10:03:35.000Z</time>
      </trkpt>
      <trkpt lat="42.5234780274331569671630859375" lon="0.0894092582166194915771484375">
        <ele>734.79998779296875</ele>
        <time>2020-08-16T10:03:37.000Z</time>
      </trkpt>
      <trkpt lat="42.52358171157538890838623046875" lon="0.089476145803928375244140625">
        <ele>734.79998779296875</ele>
        <time>2020-08-16T10:03:45.000Z</time>
      </trkpt>
      <trkpt lat="42.52360601909458637237548828125" lon="0.08949181996285915374755859375">
        <ele>734.79998779296875</ele>
        <time>2020-08-16T10:03:47.000Z</time>
      </trkpt>
      <trkpt lat="42.52363636158406734466552734375" lon="0.0895286165177822113037109375">
        <ele>735</ele>
        <time>2020-08-16T10:03:50.000Z</time>
      </trkpt>
      <trkpt lat="42.52370417118072509765625" lon="0.08958242833614349365234375">
        <ele>735.5999755859375</ele>
        <time>2020-08-16T10:03:54.000Z</time>
      </trkpt>
      <trkpt lat="42.52373476512730121612548828125" lon="0.089622326195240020751953125">
        <ele>735.79998779296875</ele>
        <time>2020-08-16T10:03:56.000Z</time>
      </trkpt>
      <trkpt lat="42.5238149799406528472900390625" lon="0.08971787989139556884765625">
        <ele>735.5999755859375</ele>
        <time>2020-08-16T10:04:02.000Z</time>
      </trkpt>
      <trkpt lat="42.5238837115466594696044921875" lon="0.08974964730441570281982421875">
        <ele>735.79998779296875</ele>
        <time>2020-08-16T10:04:07.000Z</time>
      </trkpt>
      <trkpt lat="42.52398789860308170318603515625" lon="0.08981083519756793975830078125">
        <ele>735.5999755859375</ele>
        <time>2020-08-16T10:04:12.000Z</time>
      </trkpt>
      <trkpt lat="42.52412938512861728668212890625" lon="0.0899567641317844390869140625">
        <ele>735.5999755859375</ele>
        <time>2020-08-16T10:04:18.000Z</time>
      </trkpt>
      <trkpt lat="42.52428151667118072509765625" lon="0.090174190700054168701171875">
        <ele>735.20001220703125</ele>
        <time>2020-08-16T10:04:25.000Z</time>
      </trkpt>
      <trkpt lat="42.5243665091693401336669921875" lon="0.0903292559087276458740234375">
        <ele>734.5999755859375</ele>
        <time>2020-08-16T10:04:29.000Z</time>
      </trkpt>
      <trkpt lat="42.52438746392726898193359375" lon="0.0903728418052196502685546875">
        <ele>734.4000244140625</ele>
        <time>2020-08-16T10:04:30.000Z</time>
      </trkpt>
      <trkpt lat="42.52444337122142314910888671875" lon="0.090516842901706695556640625">
        <ele>734.4000244140625</ele>
        <time>2020-08-16T10:04:33.000Z</time>
      </trkpt>
      <trkpt lat="42.524476312100887298583984375" lon="0.0906199403107166290283203125">
        <ele>734.20001220703125</ele>
        <time>2020-08-16T10:04:35.000Z</time>
      </trkpt>
      <trkpt lat="42.5245388410985469818115234375" lon="0.09084415622055530548095703125">
        <ele>733.79998779296875</ele>
        <time>2020-08-16T10:04:39.000Z</time>
      </trkpt>
      <trkpt lat="42.52456205897033214569091796875" lon="0.09089712984859943389892578125">
        <ele>733.79998779296875</ele>
        <time>2020-08-16T10:04:40.000Z</time>
      </trkpt>
      <trkpt lat="42.52459072507917881011962890625" lon="0.09094373323023319244384765625">
        <ele>733.79998779296875</ele>
        <time>2020-08-16T10:04:41.000Z</time>
      </trkpt>
      <trkpt lat="42.52468443475663661956787109375" lon="0.0910658575594425201416015625">
        <ele>733.5999755859375</ele>
        <time>2020-08-16T10:04:44.000Z</time>
      </trkpt>
      <trkpt lat="42.5247192196547985076904296875" lon="0.09110701270401477813720703125">
        <ele>733.4000244140625</ele>
        <time>2020-08-16T10:04:45.000Z</time>
      </trkpt>
      <trkpt lat="42.5247463770210742950439453125" lon="0.09114883840084075927734375">
        <ele>733.20001220703125</ele>
        <time>2020-08-16T10:04:46.000Z</time>
      </trkpt>
      <trkpt lat="42.52483832649886608123779296875" lon="0.0912938453257083892822265625">
        <ele>733.5999755859375</ele>
        <time>2020-08-16T10:04:51.000Z</time>
      </trkpt>
      <trkpt lat="42.52493002451956272125244140625" lon="0.09142351336777210235595703125">
        <ele>734.4000244140625</ele>
        <time>2020-08-16T10:04:57.000Z</time>
      </trkpt>
      <trkpt lat="42.52494896762073040008544921875" lon="0.09143994189798831939697265625">
        <ele>734.4000244140625</ele>
        <time>2020-08-16T10:04:58.000Z</time>
      </trkpt>
      <trkpt lat="42.52501518465578556060791015625" lon="0.09153348393738269805908203125">
        <ele>735</ele>
        <time>2020-08-16T10:05:03.000Z</time>
      </trkpt>
      <trkpt lat="42.5250412523746490478515625" lon="0.0915751419961452484130859375">
        <ele>735.5999755859375</ele>
        <time>2020-08-16T10:05:05.000Z</time>
      </trkpt>
      <trkpt lat="42.5250742770731449127197265625" lon="0.0916120223701000213623046875">
        <ele>735.79998779296875</ele>
        <time>2020-08-16T10:05:07.000Z</time>
      </trkpt>
      <trkpt lat="42.52510101534426212310791015625" lon="0.0916546024382114410400390625">
        <ele>736</ele>
        <time>2020-08-16T10:05:09.000Z</time>
      </trkpt>
      <trkpt lat="42.52513051964342594146728515625" lon="0.09168670512735843658447265625">
        <ele>736.20001220703125</ele>
        <time>2020-08-16T10:05:11.000Z</time>
      </trkpt>
      <trkpt lat="42.52515549771487712860107421875" lon="0.0917253457009792327880859375">
        <ele>736.5999755859375</ele>
        <time>2020-08-16T10:05:13.000Z</time>
      </trkpt>
      <trkpt lat="42.5252080522477626800537109375" lon="0.091835819184780120849609375">
        <ele>737.4000244140625</ele>
        <time>2020-08-16T10:05:17.000Z</time>
      </trkpt>
      <trkpt lat="42.52522942610085010528564453125" lon="0.09189289994537830352783203125">
        <ele>737.4000244140625</ele>
        <time>2020-08-16T10:05:19.000Z</time>
      </trkpt>
      <trkpt lat="42.5252690725028514862060546875" lon="0.09196565486490726470947265625">
        <ele>737.79998779296875</ele>
        <time>2020-08-16T10:05:22.000Z</time>
      </trkpt>
      <trkpt lat="42.52532296814024448394775390625" lon="0.09205802343785762786865234375">
        <ele>738.5999755859375</ele>
        <time>2020-08-16T10:05:26.000Z</time>
      </trkpt>
      <trkpt lat="42.525366134941577911376953125" lon="0.09212759323418140411376953125">
        <ele>739</ele>
        <time>2020-08-16T10:05:29.000Z</time>
      </trkpt>
      <trkpt lat="42.5254564918577671051025390625" lon="0.09223002009093761444091796875">
        <ele>739.5999755859375</ele>
        <time>2020-08-16T10:05:34.000Z</time>
      </trkpt>
      <trkpt lat="42.52557224594056606292724609375" lon="0.09228785522282123565673828125">
        <ele>740</ele>
        <time>2020-08-16T10:05:39.000Z</time>
      </trkpt>
      <trkpt lat="42.5257270596921443939208984375" lon="0.092336721718311309814453125">
        <ele>740.4000244140625</ele>
        <time>2020-08-16T10:05:45.000Z</time>
      </trkpt>
      <trkpt lat="42.5258306600153446197509765625" lon="0.09234770201146602630615234375">
        <ele>741</ele>
        <time>2020-08-16T10:05:49.000Z</time>
      </trkpt>
      <trkpt lat="42.525854967534542083740234375" lon="0.09235792793333530426025390625">
        <ele>741</ele>
        <time>2020-08-16T10:05:50.000Z</time>
      </trkpt>
      <trkpt lat="42.5259999744594097137451171875" lon="0.09239749051630496978759765625">
        <ele>741.5999755859375</ele>
        <time>2020-08-16T10:05:56.000Z</time>
      </trkpt>
      <trkpt lat="42.5260898284614086151123046875" lon="0.0923358835279941558837890625">
        <ele>742</ele>
        <time>2020-08-16T10:06:00.000Z</time>
      </trkpt>
      <trkpt lat="42.52610675990581512451171875" lon="0.09231585077941417694091796875">
        <ele>742.20001220703125</ele>
        <time>2020-08-16T10:06:01.000Z</time>
      </trkpt>
      <trkpt lat="42.526181526482105255126953125" lon="0.09224317967891693115234375">
        <ele>742.20001220703125</ele>
        <time>2020-08-16T10:06:05.000Z</time>
      </trkpt>
      <trkpt lat="42.5262869708240032196044921875" lon="0.0921954028308391571044921875">
        <ele>743</ele>
        <time>2020-08-16T10:06:10.000Z</time>
      </trkpt>
      <trkpt lat="42.52631538547575473785400390625" lon="0.09219489991664886474609375">
        <ele>743.20001220703125</ele>
        <time>2020-08-16T10:06:11.000Z</time>
      </trkpt>
      <trkpt lat="42.5264137051999568939208984375" lon="0.09218148887157440185546875">
        <ele>743.5999755859375</ele>
        <time>2020-08-16T10:06:15.000Z</time>
      </trkpt>
      <trkpt lat="42.5264931656420230865478515625" lon="0.0921219773590564727783203125">
        <ele>744.20001220703125</ele>
        <time>2020-08-16T10:06:19.000Z</time>
      </trkpt>
      <trkpt lat="42.52660975791513919830322265625" lon="0.09203128516674041748046875">
        <ele>744.79998779296875</ele>
        <time>2020-08-16T10:06:24.000Z</time>
      </trkpt>
      <trkpt lat="42.52672995440661907196044921875" lon="0.09201510809361934661865234375">
        <ele>745.20001220703125</ele>
        <time>2020-08-16T10:06:28.000Z</time>
      </trkpt>
      <trkpt lat="42.5269665755331516265869140625" lon="0.092090629041194915771484375">
        <ele>745.4000244140625</ele>
        <time>2020-08-16T10:06:35.000Z</time>
      </trkpt>
      <trkpt lat="42.5271399132907390594482421875" lon="0.09209020994603633880615234375">
        <ele>745</ele>
        <time>2020-08-16T10:06:40.000Z</time>
      </trkpt>
      <trkpt lat="42.52721585333347320556640625" lon="0.09207193739712238311767578125">
        <ele>744.5999755859375</ele>
        <time>2020-08-16T10:06:42.000Z</time>
      </trkpt>
      <trkpt lat="42.5272830761969089508056640625" lon="0.0920009426772594451904296875">
        <ele>744.4000244140625</ele>
        <time>2020-08-16T10:06:44.000Z</time>
      </trkpt>
      <trkpt lat="42.52735323272645473480224609375" lon="0.09189784526824951171875">
        <ele>744</ele>
        <time>2020-08-16T10:06:46.000Z</time>
      </trkpt>
      <trkpt lat="42.52745079807937145233154296875" lon="0.0918279401957988739013671875">
        <ele>743.5999755859375</ele>
        <time>2020-08-16T10:06:48.000Z</time>
      </trkpt>
      <trkpt lat="42.52753637731075286865234375" lon="0.09180958382785320281982421875">
        <ele>743.4000244140625</ele>
        <time>2020-08-16T10:06:50.000Z</time>
      </trkpt>
      <trkpt lat="42.52761458046734333038330078125" lon="0.09179583750665187835693359375">
        <ele>743.5999755859375</ele>
        <time>2020-08-16T10:06:52.000Z</time>
      </trkpt>
      <trkpt lat="42.52778439782559871673583984375" lon="0.0917276926338672637939453125">
        <ele>744.20001220703125</ele>
        <time>2020-08-16T10:06:58.000Z</time>
      </trkpt>
      <trkpt lat="42.52782563678920269012451171875" lon="0.09164731018245220184326171875">
        <ele>744.5999755859375</ele>
        <time>2020-08-16T10:07:01.000Z</time>
      </trkpt>
      <trkpt lat="42.5278500281274318695068359375" lon="0.09158981032669544219970703125">
        <ele>744.79998779296875</ele>
        <time>2020-08-16T10:07:03.000Z</time>
      </trkpt>
      <trkpt lat="42.527922280132770538330078125" lon="0.09139283560216426849365234375">
        <ele>745.5999755859375</ele>
        <time>2020-08-16T10:07:09.000Z</time>
      </trkpt>
      <trkpt lat="42.5279321707785129547119140625" lon="0.0913511775434017181396484375">
        <ele>745.79998779296875</ele>
        <time>2020-08-16T10:07:10.000Z</time>
      </trkpt>
      <trkpt lat="42.527983300387859344482421875" lon="0.09116602130234241485595703125">
        <ele>745.4000244140625</ele>
        <time>2020-08-16T10:07:14.000Z</time>
      </trkpt>
      <trkpt lat="42.528007440268993377685546875" lon="0.09111572988331317901611328125">
        <ele>745.20001220703125</ele>
        <time>2020-08-16T10:07:15.000Z</time>
      </trkpt>
      <trkpt lat="42.5281014852225780487060546875" lon="0.09097156114876270294189453125">
        <ele>744.79998779296875</ele>
        <time>2020-08-16T10:07:18.000Z</time>
      </trkpt>
      <trkpt lat="42.5281620025634765625" lon="0.0909149833023548126220703125">
        <ele>744.5999755859375</ele>
        <time>2020-08-16T10:07:20.000Z</time>
      </trkpt>
      <trkpt lat="42.528218328952789306640625" lon="0.09089947678148746490478515625">
        <ele>744.5999755859375</ele>
        <time>2020-08-16T10:07:22.000Z</time>
      </trkpt>
      <trkpt lat="42.52824590541422367095947265625" lon="0.0907121412456035614013671875">
        <ele>745.5999755859375</ele>
        <time>2020-08-16T10:07:28.000Z</time>
      </trkpt>
      <trkpt lat="42.52823643386363983154296875" lon="0.090675093233585357666015625">
        <ele>746</ele>
        <time>2020-08-16T10:07:29.000Z</time>
      </trkpt>
      <trkpt lat="42.528204582631587982177734375" lon="0.0905481912195682525634765625">
        <ele>747.20001220703125</ele>
        <time>2020-08-16T10:07:33.000Z</time>
      </trkpt>
      <trkpt lat="42.52819008193910121917724609375" lon="0.0904972292482852935791015625">
        <ele>747.5999755859375</ele>
        <time>2020-08-16T10:07:35.000Z</time>
      </trkpt>
      <trkpt lat="42.528177760541439056396484375" lon="0.090424977242946624755859375">
        <ele>748.20001220703125</ele>
        <time>2020-08-16T10:07:38.000Z</time>
      </trkpt>
      <trkpt lat="42.52817600034177303314208984375" lon="0.0903513841331005096435546875">
        <ele>748.79998779296875</ele>
        <time>2020-08-16T10:07:41.000Z</time>
      </trkpt>
      <trkpt lat="42.52815504558384418487548828125" lon="0.09027619846165180206298828125">
        <ele>749.4000244140625</ele>
        <time>2020-08-16T10:07:44.000Z</time>
      </trkpt>
      <trkpt lat="42.52815194427967071533203125" lon="0.0902487896382808685302734375">
        <ele>749.5999755859375</ele>
        <time>2020-08-16T10:07:45.000Z</time>
      </trkpt>
      <trkpt lat="42.52815328538417816162109375" lon="0.09022288955748081207275390625">
        <ele>749.5999755859375</ele>
        <time>2020-08-16T10:07:46.000Z</time>
      </trkpt>
      <trkpt lat="42.52815370447933673858642578125" lon="0.0901150144636631011962890625">
        <ele>750.4000244140625</ele>
        <time>2020-08-16T10:07:50.000Z</time>
      </trkpt>
      <trkpt lat="42.52816292457282543182373046875" lon="0.090058855712413787841796875">
        <ele>750.79998779296875</ele>
        <time>2020-08-16T10:07:52.000Z</time>
      </trkpt>
      <trkpt lat="42.52816669642925262451171875" lon="0.0900295190513134002685546875">
        <ele>751</ele>
        <time>2020-08-16T10:07:53.000Z</time>
      </trkpt>
      <trkpt lat="42.52816275693476200103759765625" lon="0.08993505500257015228271484375">
        <ele>751.5999755859375</ele>
        <time>2020-08-16T10:07:57.000Z</time>
      </trkpt>
      <trkpt lat="42.52816292457282543182373046875" lon="0.08991234004497528076171875">
        <ele>751.79998779296875</ele>
        <time>2020-08-16T10:07:58.000Z</time>
      </trkpt>
      <trkpt lat="42.5281618349254131317138671875" lon="0.0898893736302852630615234375">
        <ele>751.79998779296875</ele>
        <time>2020-08-16T10:07:59.000Z</time>
      </trkpt>
      <trkpt lat="42.52814297564327716827392578125" lon="0.08976079523563385009765625">
        <ele>752.20001220703125</ele>
        <time>2020-08-16T10:08:04.000Z</time>
      </trkpt>
      <trkpt lat="42.5281350128352642059326171875" lon="0.089642107486724853515625">
        <ele>752.5999755859375</ele>
        <time>2020-08-16T10:08:08.000Z</time>
      </trkpt>
      <trkpt lat="42.5281365215778350830078125" lon="0.08957647718489170074462890625">
        <ele>752.79998779296875</ele>
        <time>2020-08-16T10:08:10.000Z</time>
      </trkpt>
      <trkpt lat="42.528120093047618865966796875" lon="0.0893254391849040985107421875">
        <ele>753.4000244140625</ele>
        <time>2020-08-16T10:08:18.000Z</time>
      </trkpt>
      <trkpt lat="42.528104670345783233642578125" lon="0.08920398540794849395751953125">
        <ele>753.5999755859375</ele>
        <time>2020-08-16T10:08:23.000Z</time>
      </trkpt>
      <trkpt lat="42.52810492180287837982177734375" lon="0.0891740620136260986328125">
        <ele>753.79998779296875</ele>
        <time>2020-08-16T10:08:24.000Z</time>
      </trkpt>
      <trkpt lat="42.5281088612973690032958984375" lon="0.0891138799488544464111328125">
        <ele>754</ele>
        <time>2020-08-16T10:08:26.000Z</time>
      </trkpt>
      <trkpt lat="42.5281195901334285736083984375" lon="0.0890280492603778839111328125">
        <ele>754.20001220703125</ele>
        <time>2020-08-16T10:08:29.000Z</time>
      </trkpt>
      <trkpt lat="42.52814029343426227569580078125" lon="0.08891187608242034912109375">
        <ele>754.79998779296875</ele>
        <time>2020-08-16T10:08:33.000Z</time>
      </trkpt>
      <trkpt lat="42.528158985078334808349609375" lon="0.08882177062332630157470703125">
        <ele>755</ele>
        <time>2020-08-16T10:08:36.000Z</time>
      </trkpt>
      <trkpt lat="42.52816460095345973968505859375" lon="0.088761337101459503173828125">
        <ele>755.20001220703125</ele>
        <time>2020-08-16T10:08:38.000Z</time>
      </trkpt>
      <trkpt lat="42.528185807168483734130859375" lon="0.08864960633218288421630859375">
        <ele>755.5999755859375</ele>
        <time>2020-08-16T10:08:42.000Z</time>
      </trkpt>
      <trkpt lat="42.52819628454744815826416015625" lon="0.08858489803969860076904296875">
        <ele>755.79998779296875</ele>
        <time>2020-08-16T10:08:44.000Z</time>
      </trkpt>
      <trkpt lat="42.52820567227900028228759765625" lon="0.0885526277124881744384765625">
        <ele>755.79998779296875</ele>
        <time>2020-08-16T10:08:45.000Z</time>
      </trkpt>
      <trkpt lat="42.5282748229801654815673828125" lon="0.08842237293720245361328125">
        <ele>756.20001220703125</ele>
        <time>2020-08-16T10:08:50.000Z</time>
      </trkpt>
      <trkpt lat="42.52829820849001407623291015625" lon="0.08836763910949230194091796875">
        <ele>756.20001220703125</ele>
        <time>2020-08-16T10:08:52.000Z</time>
      </trkpt>
      <trkpt lat="42.5283016450703144073486328125" lon="0.0882941298186779022216796875">
        <ele>756.20001220703125</ele>
        <time>2020-08-16T10:08:54.000Z</time>
      </trkpt>
      <trkpt lat="42.52833240665495395660400390625" lon="0.08815415203571319580078125">
        <ele>756.4000244140625</ele>
        <time>2020-08-16T10:08:58.000Z</time>
      </trkpt>
      <trkpt lat="42.52834766171872615814208984375" lon="0.088121630251407623291015625">
        <ele>756.5999755859375</ele>
        <time>2020-08-16T10:08:59.000Z</time>
      </trkpt>
      <trkpt lat="42.52847959287464618682861328125" lon="0.0878612883388996124267578125">
        <ele>756.5999755859375</ele>
        <time>2020-08-16T10:09:07.000Z</time>
      </trkpt>
      <trkpt lat="42.52858185209333896636962890625" lon="0.08765685372054576873779296875">
        <ele>756.4000244140625</ele>
        <time>2020-08-16T10:09:13.000Z</time>
      </trkpt>
      <trkpt lat="42.5286449678242206573486328125" lon="0.08745250292122364044189453125">
        <ele>756.4000244140625</ele>
        <time>2020-08-16T10:09:19.000Z</time>
      </trkpt>
      <trkpt lat="42.52866558730602264404296875" lon="0.0872353278100490570068359375">
        <ele>756.4000244140625</ele>
        <time>2020-08-16T10:09:24.000Z</time>
      </trkpt>
      <trkpt lat="42.5287909805774688720703125" lon="0.087012536823749542236328125">
        <ele>755.79998779296875</ele>
        <time>2020-08-16T10:09:30.000Z</time>
      </trkpt>
      <trkpt lat="42.52891729585826396942138671875" lon="0.086852274835109710693359375">
        <ele>756</ele>
        <time>2020-08-16T10:09:35.000Z</time>
      </trkpt>
      <trkpt lat="42.52909784205257892608642578125" lon="0.08676904253661632537841796875">
        <ele>754.79998779296875</ele>
        <time>2020-08-16T10:09:39.000Z</time>
      </trkpt>
      <trkpt lat="42.52914863638579845428466796875" lon="0.0867384485900402069091796875">
        <ele>754.4000244140625</ele>
        <time>2020-08-16T10:09:40.000Z</time>
      </trkpt>
      <trkpt lat="42.52920337021350860595703125" lon="0.08669360540807247161865234375">
        <ele>754.20001220703125</ele>
        <time>2020-08-16T10:09:41.000Z</time>
      </trkpt>
      <trkpt lat="42.52925424836575984954833984375" lon="0.0866365246474742889404296875">
        <ele>753.5999755859375</ele>
        <time>2020-08-16T10:09:42.000Z</time>
      </trkpt>
      <trkpt lat="42.5293547473847866058349609375" lon="0.0864896737039089202880859375">
        <ele>752.5999755859375</ele>
        <time>2020-08-16T10:09:44.000Z</time>
      </trkpt>
      <trkpt lat="42.5293963216245174407958984375" lon="0.08640174753963947296142578125">
        <ele>752</ele>
        <time>2020-08-16T10:09:45.000Z</time>
      </trkpt>
      <trkpt lat="42.5295259058475494384765625" lon="0.08612447418272495269775390625">
        <ele>750.79998779296875</ele>
        <time>2020-08-16T10:09:48.000Z</time>
      </trkpt>
      <trkpt lat="42.52960746176540851593017578125" lon="0.08593990467488765716552734375">
        <ele>749.5999755859375</ele>
        <time>2020-08-16T10:09:50.000Z</time>
      </trkpt>
      <trkpt lat="42.5296467728912830352783203125" lon="0.08585876785218715667724609375">
        <ele>748.79998779296875</ele>
        <time>2020-08-16T10:09:51.000Z</time>
      </trkpt>
      <trkpt lat="42.52967904321849346160888671875" lon="0.0857912935316562652587890625">
        <ele>748.5999755859375</ele>
        <time>2020-08-16T10:09:52.000Z</time>
      </trkpt>
      <trkpt lat="42.52974408678710460662841796875" lon="0.0856952369213104248046875">
        <ele>749.20001220703125</ele>
        <time>2020-08-16T10:09:54.000Z</time>
      </trkpt>
      <trkpt lat="42.52978784032166004180908203125" lon="0.08562348783016204833984375">
        <ele>749.5999755859375</ele>
        <time>2020-08-16T10:09:56.000Z</time>
      </trkpt>
      <trkpt lat="42.52990887500345706939697265625" lon="0.0855183787643909454345703125">
        <ele>749.79998779296875</ele>
        <time>2020-08-16T10:10:01.000Z</time>
      </trkpt>
      <trkpt lat="42.52998255193233489990234375" lon="0.0855167023837566375732421875">
        <ele>749.5999755859375</ele>
        <time>2020-08-16T10:10:06.000Z</time>
      </trkpt>
      <trkpt lat="42.53000937402248382568359375" lon="0.08550303988158702850341796875">
        <ele>749.5999755859375</ele>
        <time>2020-08-16T10:10:08.000Z</time>
      </trkpt>
      <trkpt lat="42.53004717640578746795654296875" lon="0.0854828394949436187744140625">
        <ele>749.5999755859375</ele>
        <time>2020-08-16T10:10:10.000Z</time>
      </trkpt>
      <trkpt lat="42.53019905649125576019287109375" lon="0.08541771210730075836181640625">
        <ele>749</ele>
        <time>2020-08-16T10:10:16.000Z</time>
      </trkpt>
      <trkpt lat="42.5303562171757221221923828125" lon="0.08536205627024173736572265625">
        <ele>748.79998779296875</ele>
        <time>2020-08-16T10:10:22.000Z</time>
      </trkpt>
      <trkpt lat="42.530458979308605194091796875" lon="0.0852333940565586090087890625">
        <ele>749.4000244140625</ele>
        <time>2020-08-16T10:10:27.000Z</time>
      </trkpt>
      <trkpt lat="42.5305064208805561065673828125" lon="0.0852017104625701904296875">
        <ele>749.79998779296875</ele>
        <time>2020-08-16T10:10:29.000Z</time>
      </trkpt>
      <trkpt lat="42.53054791130125522613525390625" lon="0.08514697663486003875732421875">
        <ele>750.4000244140625</ele>
        <time>2020-08-16T10:10:31.000Z</time>
      </trkpt>
      <trkpt lat="42.53063374198973178863525390625" lon="0.0849510915577411651611328125">
        <ele>750.4000244140625</ele>
        <time>2020-08-16T10:10:36.000Z</time>
      </trkpt>
      <trkpt lat="42.53074572421610355377197265625" lon="0.0849618203938007354736328125">
        <ele>750.20001220703125</ele>
        <time>2020-08-16T10:10:39.000Z</time>
      </trkpt>
      <trkpt lat="42.53078880719840526580810546875" lon="0.0849772430956363677978515625">
        <ele>750</ele>
        <time>2020-08-16T10:10:40.000Z</time>
      </trkpt>
      <trkpt lat="42.53105518408119678497314453125" lon="0.08510473184287548065185546875">
        <ele>748.20001220703125</ele>
        <time>2020-08-16T10:10:46.000Z</time>
      </trkpt>
      <trkpt lat="42.5310898013412952423095703125" lon="0.08512794971466064453125">
        <ele>748</ele>
        <time>2020-08-16T10:10:47.000Z</time>
      </trkpt>
      <trkpt lat="42.53111285157501697540283203125" lon="0.0852471403777599334716796875">
        <ele>748.4000244140625</ele>
        <time>2020-08-16T10:10:51.000Z</time>
      </trkpt>
      <trkpt lat="42.5310923159122467041015625" lon="0.085511505603790283203125">
        <ele>749</ele>
        <time>2020-08-16T10:10:56.000Z</time>
      </trkpt>
      <trkpt lat="42.5310830958187580108642578125" lon="0.08556389249861240386962890625">
        <ele>748.79998779296875</ele>
        <time>2020-08-16T10:10:57.000Z</time>
      </trkpt>
      <trkpt lat="42.53105987794697284698486328125" lon="0.08584879338741302490234375">
        <ele>749.4000244140625</ele>
        <time>2020-08-16T10:11:02.000Z</time>
      </trkpt>
      <trkpt lat="42.5310695171356201171875" lon="0.08596010506153106689453125">
        <ele>749.5999755859375</ele>
        <time>2020-08-16T10:11:06.000Z</time>
      </trkpt>
      <trkpt lat="42.531101703643798828125" lon="0.0859964825212955474853515625">
        <ele>749.79998779296875</ele>
        <time>2020-08-16T10:11:12.000Z</time>
      </trkpt>
      <trkpt lat="42.53119465894997119903564453125" lon="0.08609513752162456512451171875">
        <ele>749.79998779296875</ele>
        <time>2020-08-16T10:11:17.000Z</time>
      </trkpt>
      <trkpt lat="42.5313060544431209564208984375" lon="0.086267553269863128662109375">
        <ele>749.20001220703125</ele>
        <time>2020-08-16T10:11:23.000Z</time>
      </trkpt>
      <trkpt lat="42.5313617102801799774169921875" lon="0.08636335842311382293701171875">
        <ele>749.4000244140625</ele>
        <time>2020-08-16T10:11:27.000Z</time>
      </trkpt>
      <trkpt lat="42.53136665560305118560791015625" lon="0.08638121187686920166015625">
        <ele>749.20001220703125</ele>
        <time>2020-08-16T10:11:28.000Z</time>
      </trkpt>
      <trkpt lat="42.53140672110021114349365234375" lon="0.08650995790958404541015625">
        <ele>749.79998779296875</ele>
        <time>2020-08-16T10:11:33.000Z</time>
      </trkpt>
      <trkpt lat="42.53164015710353851318359375" lon="0.08666259236633777618408203125">
        <ele>750.5999755859375</ele>
        <time>2020-08-16T10:11:38.000Z</time>
      </trkpt>
      <trkpt lat="42.53168315626680850982666015625" lon="0.08668254129588603973388671875">
        <ele>750.79998779296875</ele>
        <time>2020-08-16T10:11:39.000Z</time>
      </trkpt>
      <trkpt lat="42.53178499639034271240234375" lon="0.08668161928653717041015625">
        <ele>750.79998779296875</ele>
        <time>2020-08-16T10:11:41.000Z</time>
      </trkpt>
      <trkpt lat="42.531826905906200408935546875" lon="0.08667332120239734649658203125">
        <ele>750.79998779296875</ele>
        <time>2020-08-16T10:11:42.000Z</time>
      </trkpt>
      <trkpt lat="42.5319930352270603179931640625" lon="0.08657894097268581390380859375">
        <ele>751.4000244140625</ele>
        <time>2020-08-16T10:11:45.000Z</time>
      </trkpt>
      <trkpt lat="42.53209068439900875091552734375" lon="0.0864891707897186279296875">
        <ele>751.5999755859375</ele>
        <time>2020-08-16T10:11:47.000Z</time>
      </trkpt>
      <trkpt lat="42.53230392001569271087646484375" lon="0.0862335227429866790771484375">
        <ele>752.4000244140625</ele>
        <time>2020-08-16T10:11:51.000Z</time>
      </trkpt>
      <trkpt lat="42.532386481761932373046875" lon="0.08606630377471446990966796875">
        <ele>753</ele>
        <time>2020-08-16T10:11:54.000Z</time>
      </trkpt>
      <trkpt lat="42.532448507845401763916015625" lon="0.08596521802246570587158203125">
        <ele>753.20001220703125</ele>
        <time>2020-08-16T10:11:56.000Z</time>
      </trkpt>
      <trkpt lat="42.53246770240366458892822265625" lon="0.08590914309024810791015625">
        <ele>753.4000244140625</ele>
        <time>2020-08-16T10:11:57.000Z</time>
      </trkpt>
      <trkpt lat="42.5324952788650989532470703125" lon="0.08579514920711517333984375">
        <ele>753.4000244140625</ele>
        <time>2020-08-16T10:11:59.000Z</time>
      </trkpt>
      <trkpt lat="42.532551102340221405029296875" lon="0.0855995155870914459228515625">
        <ele>754</ele>
        <time>2020-08-16T10:12:02.000Z</time>
      </trkpt>
      <trkpt lat="42.5326075963675975799560546875" lon="0.085415951907634735107421875">
        <ele>754.4000244140625</ele>
        <time>2020-08-16T10:12:05.000Z</time>
      </trkpt>
      <trkpt lat="42.5326374359428882598876953125" lon="0.085318386554718017578125">
        <ele>754.5999755859375</ele>
        <time>2020-08-16T10:12:07.000Z</time>
      </trkpt>
      <trkpt lat="42.532664425671100616455078125" lon="0.08517011068761348724365234375">
        <ele>755.20001220703125</ele>
        <time>2020-08-16T10:12:10.000Z</time>
      </trkpt>
      <trkpt lat="42.5327229313552379608154296875" lon="0.0850905664265155792236328125">
        <ele>755.5999755859375</ele>
        <time>2020-08-16T10:12:12.000Z</time>
      </trkpt>
      <trkpt lat="42.5328218378126621246337890625" lon="0.08488009683787822723388671875">
        <ele>756.20001220703125</ele>
        <time>2020-08-16T10:12:18.000Z</time>
      </trkpt>
      <trkpt lat="42.53282879479229450225830078125" lon="0.08484086953103542327880859375">
        <ele>756.4000244140625</ele>
        <time>2020-08-16T10:12:19.000Z</time>
      </trkpt>
      <trkpt lat="42.5328841991722583770751953125" lon="0.084676332771778106689453125">
        <ele>757</ele>
        <time>2020-08-16T10:12:24.000Z</time>
      </trkpt>
      <trkpt lat="42.53290305845439434051513671875" lon="0.08464825339615345001220703125">
        <ele>757.20001220703125</ele>
        <time>2020-08-16T10:12:25.000Z</time>
      </trkpt>
      <trkpt lat="42.532977573573589324951171875" lon="0.0845257937908172607421875">
        <ele>757.79998779296875</ele>
        <time>2020-08-16T10:12:30.000Z</time>
      </trkpt>
      <trkpt lat="42.53301118500530719757080078125" lon="0.0844773463904857635498046875">
        <ele>758.4000244140625</ele>
        <time>2020-08-16T10:12:33.000Z</time>
      </trkpt>
      <trkpt lat="42.53303750418126583099365234375" lon="0.0844518654048442840576171875">
        <ele>758.5999755859375</ele>
        <time>2020-08-16T10:12:35.000Z</time>
      </trkpt>
      <trkpt lat="42.53311780281364917755126953125" lon="0.0843680463731288909912109375">
        <ele>759.20001220703125</ele>
        <time>2020-08-16T10:12:40.000Z</time>
      </trkpt>
      <trkpt lat="42.533252499997615814208984375" lon="0.08429403416812419891357421875">
        <ele>760.20001220703125</ele>
        <time>2020-08-16T10:12:46.000Z</time>
      </trkpt>
      <trkpt lat="42.53327923826873302459716796875" lon="0.08428397588431835174560546875">
        <ele>760.4000244140625</ele>
        <time>2020-08-16T10:12:47.000Z</time>
      </trkpt>
      <trkpt lat="42.5333458743989467620849609375" lon="0.08428146131336688995361328125">
        <ele>760.4000244140625</ele>
        <time>2020-08-16T10:12:49.000Z</time>
      </trkpt>
      <trkpt lat="42.53341368399560451507568359375" lon="0.084274671971797943115234375">
        <ele>760.79998779296875</ele>
        <time>2020-08-16T10:12:51.000Z</time>
      </trkpt>
      <trkpt lat="42.5336181186139583587646484375" lon="0.08423946797847747802734375">
        <ele>761.20001220703125</ele>
        <time>2020-08-16T10:12:57.000Z</time>
      </trkpt>
      <trkpt lat="42.5337622873485088348388671875" lon="0.08420904166996479034423828125">
        <ele>761.20001220703125</ele>
        <time>2020-08-16T10:13:01.000Z</time>
      </trkpt>
      <trkpt lat="42.53385323099792003631591796875" lon="0.08414450101554393768310546875">
        <ele>760.79998779296875</ele>
        <time>2020-08-16T10:13:05.000Z</time>
      </trkpt>
      <trkpt lat="42.5338558293879032135009765625" lon="0.08410611189901828765869140625">
        <ele>760.79998779296875</ele>
        <time>2020-08-16T10:13:06.000Z</time>
      </trkpt>
      <trkpt lat="42.53391643054783344268798828125" lon="0.084069482982158660888671875">
        <ele>760.79998779296875</ele>
        <time>2020-08-16T10:13:08.000Z</time>
      </trkpt>
      <trkpt lat="42.53409035503864288330078125" lon="0.083884410560131072998046875">
        <ele>760.5999755859375</ele>
        <time>2020-08-16T10:13:14.000Z</time>
      </trkpt>
      <trkpt lat="42.53425908274948596954345703125" lon="0.08380754850804805755615234375">
        <ele>759.79998779296875</ele>
        <time>2020-08-16T10:13:19.000Z</time>
      </trkpt>
      <trkpt lat="42.53440358676016330718994140625" lon="0.0837162695825099945068359375">
        <ele>760.20001220703125</ele>
        <time>2020-08-16T10:13:24.000Z</time>
      </trkpt>
      <trkpt lat="42.53441666252911090850830078125" lon="0.083429776132106781005859375">
        <ele>761.20001220703125</ele>
        <time>2020-08-16T10:13:30.000Z</time>
      </trkpt>
      <trkpt lat="42.5344184227287769317626953125" lon="0.08337118662893772125244140625">
        <ele>761.4000244140625</ele>
        <time>2020-08-16T10:13:31.000Z</time>
      </trkpt>
      <trkpt lat="42.534407861530780792236328125" lon="0.08314990438520908355712890625">
        <ele>762.4000244140625</ele>
        <time>2020-08-16T10:13:35.000Z</time>
      </trkpt>
      <trkpt lat="42.5344048440456390380859375" lon="0.0831161253154277801513671875">
        <ele>762.5999755859375</ele>
        <time>2020-08-16T10:13:36.000Z</time>
      </trkpt>
      <trkpt lat="42.5344838015735149383544921875" lon="0.083076059818267822265625">
        <ele>763.4000244140625</ele>
        <time>2020-08-16T10:13:39.000Z</time>
      </trkpt>
      <trkpt lat="42.53450919874012470245361328125" lon="0.082955025136470794677734375">
        <ele>764</ele>
        <time>2020-08-16T10:13:42.000Z</time>
      </trkpt>
      <trkpt lat="42.53454633057117462158203125" lon="0.0829407759010791778564453125">
        <ele>764.4000244140625</ele>
        <time>2020-08-16T10:13:43.000Z</time>
      </trkpt>
      <trkpt lat="42.5346581451594829559326171875" lon="0.0828499160706996917724609375">
        <ele>765.20001220703125</ele>
        <time>2020-08-16T10:13:47.000Z</time>
      </trkpt>
      <trkpt lat="42.5347674451768398284912109375" lon="0.08274656720459461212158203125">
        <ele>766.20001220703125</ele>
        <time>2020-08-16T10:13:53.000Z</time>
      </trkpt>
      <trkpt lat="42.53478429280221462249755859375" lon="0.0827392749488353729248046875">
        <ele>766.4000244140625</ele>
        <time>2020-08-16T10:13:54.000Z</time>
      </trkpt>
      <trkpt lat="42.5348673574626445770263671875" lon="0.08268454112112522125244140625">
        <ele>767.20001220703125</ele>
        <time>2020-08-16T10:13:58.000Z</time>
      </trkpt>
      <trkpt lat="42.5348871387541294097900390625" lon="0.082674063742160797119140625">
        <ele>767.4000244140625</ele>
        <time>2020-08-16T10:13:59.000Z</time>
      </trkpt>
      <trkpt lat="42.53494597971439361572265625" lon="0.0826648436486721038818359375">
        <ele>768</ele>
        <time>2020-08-16T10:14:01.000Z</time>
      </trkpt>
      <trkpt lat="42.535015046596527099609375" lon="0.08265989832580089569091796875">
        <ele>768.4000244140625</ele>
        <time>2020-08-16T10:14:03.000Z</time>
      </trkpt>
      <trkpt lat="42.5350940041244029998779296875" lon="0.0826460681855678558349609375">
        <ele>769</ele>
        <time>2020-08-16T10:14:06.000Z</time>
      </trkpt>
      <trkpt lat="42.53513038158416748046875" lon="0.0826390273869037628173828125">
        <ele>769.4000244140625</ele>
        <time>2020-08-16T10:14:08.000Z</time>
      </trkpt>
      <trkpt lat="42.53517237491905689239501953125" lon="0.0826460681855678558349609375">
        <ele>769.79998779296875</ele>
        <time>2020-08-16T10:14:10.000Z</time>
      </trkpt>
      <trkpt lat="42.535185702145099639892578125" lon="0.082639865577220916748046875">
        <ele>769.79998779296875</ele>
        <time>2020-08-16T10:14:11.000Z</time>
      </trkpt>
      <trkpt lat="42.53523004241287708282470703125" lon="0.082621760666370391845703125">
        <ele>770.5999755859375</ele>
        <time>2020-08-16T10:14:15.000Z</time>
      </trkpt>
      <trkpt lat="42.535244040191173553466796875" lon="0.08261916227638721466064453125">
        <ele>770.79998779296875</ele>
        <time>2020-08-16T10:14:16.000Z</time>
      </trkpt>
      <trkpt lat="42.5352787412703037261962890625" lon="0.08258865214884281158447265625">
        <ele>771.5999755859375</ele>
        <time>2020-08-16T10:14:19.000Z</time>
      </trkpt>
      <trkpt lat="42.535292319953441619873046875" lon="0.0825785100460052490234375">
        <ele>771.79998779296875</ele>
        <time>2020-08-16T10:14:20.000Z</time>
      </trkpt>
      <trkpt lat="42.53534135408699512481689453125" lon="0.0825495086610317230224609375">
        <ele>772.20001220703125</ele>
        <time>2020-08-16T10:14:23.000Z</time>
      </trkpt>
      <trkpt lat="42.5353488139808177947998046875" lon="0.0825337506830692291259765625">
        <ele>772.20001220703125</ele>
        <time>2020-08-16T10:14:24.000Z</time>
      </trkpt>
      <trkpt lat="42.53536708652973175048828125" lon="0.08250567130744457244873046875">
        <ele>772.4000244140625</ele>
        <time>2020-08-16T10:14:26.000Z</time>
      </trkpt>
      <trkpt lat="42.53537605516612529754638671875" lon="0.08248521946370601654052734375">
        <ele>772.79998779296875</ele>
        <time>2020-08-16T10:14:27.000Z</time>
      </trkpt>
      <trkpt lat="42.53540907986462116241455078125" lon="0.0824398733675479888916015625">
        <ele>773.20001220703125</ele>
        <time>2020-08-16T10:14:30.000Z</time>
      </trkpt>
      <trkpt lat="42.535425759851932525634765625" lon="0.08242101408541202545166015625">
        <ele>773.79998779296875</ele>
        <time>2020-08-16T10:14:32.000Z</time>
      </trkpt>
      <trkpt lat="42.53539600409567356109619140625" lon="0.0823868997395038604736328125">
        <ele>774</ele>
        <time>2020-08-16T10:14:33.000Z</time>
      </trkpt>
      <trkpt lat="42.53539751283824443817138671875" lon="0.08237265050411224365234375">
        <ele>774.20001220703125</ele>
        <time>2020-08-16T10:14:34.000Z</time>
      </trkpt>
      <trkpt lat="42.5353892147541046142578125" lon="0.08235655725002288818359375">
        <ele>774.20001220703125</ele>
        <time>2020-08-16T10:14:35.000Z</time>
      </trkpt>
      <trkpt lat="42.53540924750268459320068359375" lon="0.08229293860495090484619140625">
        <ele>775</ele>
        <time>2020-08-16T10:14:39.000Z</time>
      </trkpt>
      <trkpt lat="42.535423748195171356201171875" lon="0.08228103630244731903076171875">
        <ele>775</ele>
        <time>2020-08-16T10:14:40.000Z</time>
      </trkpt>
      <trkpt lat="42.535480745136737823486328125" lon="0.08221096359193325042724609375">
        <ele>776</ele>
        <time>2020-08-16T10:14:45.000Z</time>
      </trkpt>
      <trkpt lat="42.5354909710586071014404296875" lon="0.082193277776241302490234375">
        <ele>776</ele>
        <time>2020-08-16T10:14:46.000Z</time>
      </trkpt>
      <trkpt lat="42.53552173264324665069580078125" lon="0.08215078152716159820556640625">
        <ele>776.5999755859375</ele>
        <time>2020-08-16T10:14:49.000Z</time>
      </trkpt>
      <trkpt lat="42.53553950227797031402587890625" lon="0.08210149593651294708251953125">
        <ele>777.20001220703125</ele>
        <time>2020-08-16T10:14:51.000Z</time>
      </trkpt>
      <trkpt lat="42.5355446152389049530029296875" lon="0.0820680521428585052490234375">
        <ele>777.4000244140625</ele>
        <time>2020-08-16T10:14:52.000Z</time>
      </trkpt>
      <trkpt lat="42.5355633907020092010498046875" lon="0.08205807767808437347412109375">
        <ele>777.5999755859375</ele>
        <time>2020-08-16T10:14:53.000Z</time>
      </trkpt>
      <trkpt lat="42.53558040596544742584228515625" lon="0.0820432417094707489013671875">
        <ele>777.79998779296875</ele>
        <time>2020-08-16T10:14:54.000Z</time>
      </trkpt>
      <trkpt lat="42.53563740290701389312744140625" lon="0.08199135772883892059326171875">
        <ele>778.4000244140625</ele>
        <time>2020-08-16T10:14:58.000Z</time>
      </trkpt>
      <trkpt lat="42.5356951542198657989501953125" lon="0.08200024254620075225830078125">
        <ele>778.5999755859375</ele>
        <time>2020-08-16T10:15:00.000Z</time>
      </trkpt>
      <trkpt lat="42.5357541628181934356689453125" lon="0.08197191171348094940185546875">
        <ele>779</ele>
        <time>2020-08-16T10:15:03.000Z</time>
      </trkpt>
      <trkpt lat="42.53583035431802272796630859375" lon="0.0818735919892787933349609375">
        <ele>779.20001220703125</ele>
        <time>2020-08-16T10:15:08.000Z</time>
      </trkpt>
      <trkpt lat="42.53589891828596591949462890625" lon="0.081727914512157440185546875">
        <ele>779</ele>
        <time>2020-08-16T10:15:12.000Z</time>
      </trkpt>
      <trkpt lat="42.53593110479414463043212890625" lon="0.081546865403652191162109375">
        <ele>778.4000244140625</ele>
        <time>2020-08-16T10:15:15.000Z</time>
      </trkpt>
      <trkpt lat="42.53593144007027149200439453125" lon="0.08148391731083393096923828125">
        <ele>777.79998779296875</ele>
        <time>2020-08-16T10:15:16.000Z</time>
      </trkpt>
      <trkpt lat="42.53598407842218875885009765625" lon="0.08139808662235736846923828125">
        <ele>776.79998779296875</ele>
        <time>2020-08-16T10:15:18.000Z</time>
      </trkpt>
      <trkpt lat="42.53605549223721027374267578125" lon="0.081322900950908660888671875">
        <ele>775</ele>
        <time>2020-08-16T10:15:20.000Z</time>
      </trkpt>
      <trkpt lat="42.536154650151729583740234375" lon="0.081256516277790069580078125">
        <ele>773.79998779296875</ele>
        <time>2020-08-16T10:15:22.000Z</time>
      </trkpt>
      <trkpt lat="42.53626336343586444854736328125" lon="0.08118149824440479278564453125">
        <ele>772.79998779296875</ele>
        <time>2020-08-16T10:15:24.000Z</time>
      </trkpt>
      <trkpt lat="42.53631331957876682281494140625" lon="0.081131123006343841552734375">
        <ele>772.4000244140625</ele>
        <time>2020-08-16T10:15:25.000Z</time>
      </trkpt>
      <trkpt lat="42.536437623202800750732421875" lon="0.0809061527252197265625">
        <ele>771.5999755859375</ele>
        <time>2020-08-16T10:15:28.000Z</time>
      </trkpt>
      <trkpt lat="42.53648196347057819366455078125" lon="0.080839097499847412109375">
        <ele>771</ele>
        <time>2020-08-16T10:15:29.000Z</time>
      </trkpt>
      <trkpt lat="42.53653812222182750701904296875" lon="0.0807262770831584930419921875">
        <ele>770.20001220703125</ele>
        <time>2020-08-16T10:15:31.000Z</time>
      </trkpt>
      <trkpt lat="42.53654784522950649261474609375" lon="0.080614797770977020263671875">
        <ele>770.20001220703125</ele>
        <time>2020-08-16T10:15:35.000Z</time>
      </trkpt>
      <trkpt lat="42.5365397147834300994873046875" lon="0.08056475780904293060302734375">
        <ele>769.5999755859375</ele>
        <time>2020-08-16T10:15:38.000Z</time>
      </trkpt>
      <trkpt lat="42.536543905735015869140625" lon="0.0805871374905109405517578125">
        <ele>769.5999755859375</ele>
        <time>2020-08-16T10:15:40.000Z</time>
      </trkpt>
      <trkpt lat="42.53657734952867031097412109375" lon="0.08065201342105865478515625">
        <ele>769.4000244140625</ele>
        <time>2020-08-16T10:15:42.000Z</time>
      </trkpt>
      <trkpt lat="42.53662194125354290008544921875" lon="0.08066751994192600250244140625">
        <ele>769.79998779296875</ele>
        <time>2020-08-16T10:15:44.000Z</time>
      </trkpt>
      <trkpt lat="42.5366766750812530517578125" lon="0.08068646304309368133544921875">
        <ele>770</ele>
        <time>2020-08-16T10:15:47.000Z</time>
      </trkpt>
      <trkpt lat="42.536746077239513397216796875" lon="0.08075821213424205780029296875">
        <ele>770.20001220703125</ele>
        <time>2020-08-16T10:15:51.000Z</time>
      </trkpt>
      <trkpt lat="42.53674699924886226654052734375" lon="0.0807879678905010223388671875">
        <ele>770.20001220703125</ele>
        <time>2020-08-16T10:15:52.000Z</time>
      </trkpt>
      <trkpt lat="42.53675739280879497528076171875" lon="0.0807738862931728363037109375">
        <ele>770.4000244140625</ele>
        <time>2020-08-16T10:15:53.000Z</time>
      </trkpt>
      <trkpt lat="42.536813132464885711669921875" lon="0.0806977786123752593994140625">
        <ele>770.79998779296875</ele>
        <time>2020-08-16T10:15:55.000Z</time>
      </trkpt>
      <trkpt lat="42.5368397869169712066650390625" lon="0.08067204616963863372802734375">
        <ele>771</ele>
        <time>2020-08-16T10:15:56.000Z</time>
      </trkpt>
      <trkpt lat="42.53686971031129360198974609375" lon="0.080646313726902008056640625">
        <ele>771.20001220703125</ele>
        <time>2020-08-16T10:15:57.000Z</time>
      </trkpt>
      <trkpt lat="42.53692268393933773040771484375" lon="0.08056257851421833038330078125">
        <ele>771.4000244140625</ele>
        <time>2020-08-16T10:15:59.000Z</time>
      </trkpt>
      <trkpt lat="42.537016980350017547607421875" lon="0.0804778374731540679931640625">
        <ele>771.79998779296875</ele>
        <time>2020-08-16T10:16:02.000Z</time>
      </trkpt>
      <trkpt lat="42.5370617397129535675048828125" lon="0.08041941560804843902587890625">
        <ele>772.20001220703125</ele>
        <time>2020-08-16T10:16:04.000Z</time>
      </trkpt>
      <trkpt lat="42.537082023918628692626953125" lon="0.08039678446948528289794921875">
        <ele>772.4000244140625</ele>
        <time>2020-08-16T10:16:05.000Z</time>
      </trkpt>
      <trkpt lat="42.53713524900376796722412109375" lon="0.08033215999603271484375">
        <ele>773.4000244140625</ele>
        <time>2020-08-16T10:16:08.000Z</time>
      </trkpt>
      <trkpt lat="42.53716525621712207794189453125" lon="0.08024456910789012908935546875">
        <ele>774</ele>
        <time>2020-08-16T10:16:11.000Z</time>
      </trkpt>
      <trkpt lat="42.53716793842613697052001953125" lon="0.08020383305847644805908203125">
        <ele>774</ele>
        <time>2020-08-16T10:16:12.000Z</time>
      </trkpt>
      <trkpt lat="42.53720976412296295166015625" lon="0.08012940175831317901611328125">
        <ele>774.5999755859375</ele>
        <time>2020-08-16T10:16:15.000Z</time>
      </trkpt>
      <trkpt lat="42.53723935224115848541259765625" lon="0.08008615113794803619384765625">
        <ele>775</ele>
        <time>2020-08-16T10:16:17.000Z</time>
      </trkpt>
      <trkpt lat="42.53725410439074039459228515625" lon="0.0800641067326068878173828125">
        <ele>775.20001220703125</ele>
        <time>2020-08-16T10:16:18.000Z</time>
      </trkpt>
      <trkpt lat="42.5373574532568454742431640625" lon="0.07999126799404621124267578125">
        <ele>775.5999755859375</ele>
        <time>2020-08-16T10:16:23.000Z</time>
      </trkpt>
      <trkpt lat="42.53745325841009616851806640625" lon="0.0799340195953845977783203125">
        <ele>776.4000244140625</ele>
        <time>2020-08-16T10:16:27.000Z</time>
      </trkpt>
      <trkpt lat="42.53749483264982700347900390625" lon="0.07989990524947643280029296875">
        <ele>776.4000244140625</ele>
        <time>2020-08-16T10:16:29.000Z</time>
      </trkpt>
      <trkpt lat="42.5375706888735294342041015625" lon="0.07982027716934680938720703125">
        <ele>776.79998779296875</ele>
        <time>2020-08-16T10:16:33.000Z</time>
      </trkpt>
      <trkpt lat="42.53760580904781818389892578125" lon="0.07970058359205722808837890625">
        <ele>777</ele>
        <time>2020-08-16T10:16:38.000Z</time>
      </trkpt>
      <trkpt lat="42.5376208126544952392578125" lon="0.0796906091272830963134765625">
        <ele>777</ele>
        <time>2020-08-16T10:16:39.000Z</time>
      </trkpt>
      <trkpt lat="42.53764520399272441864013671875" lon="0.07965364493429660797119140625">
        <ele>777.4000244140625</ele>
        <time>2020-08-16T10:16:42.000Z</time>
      </trkpt>
      <trkpt lat="42.53764537163078784942626953125" lon="0.07962481118738651275634765625">
        <ele>777.4000244140625</ele>
        <time>2020-08-16T10:16:44.000Z</time>
      </trkpt>
      <trkpt lat="42.53766079433262348175048828125" lon="0.07960301823914051055908203125">
        <ele>777.4000244140625</ele>
        <time>2020-08-16T10:16:49.000Z</time>
      </trkpt>
      <trkpt lat="42.53771125338971614837646484375" lon="0.07961190305650234222412109375">
        <ele>777.5999755859375</ele>
        <time>2020-08-16T10:16:53.000Z</time>
      </trkpt>
      <trkpt lat="42.5377269275486469268798828125" lon="0.0796319358050823211669921875">
        <ele>777.5999755859375</ele>
        <time>2020-08-16T10:16:54.000Z</time>
      </trkpt>
      <trkpt lat="42.53778484649956226348876953125" lon="0.07969773374497890472412109375">
        <ele>777.79998779296875</ele>
        <time>2020-08-16T10:16:58.000Z</time>
      </trkpt>
      <trkpt lat="42.53782424144446849822998046875" lon="0.079704858362674713134765625">
        <ele>777.5999755859375</ele>
        <time>2020-08-16T10:17:00.000Z</time>
      </trkpt>
      <trkpt lat="42.537936978042125701904296875" lon="0.07973008789122104644775390625">
        <ele>777.79998779296875</ele>
        <time>2020-08-16T10:17:05.000Z</time>
      </trkpt>
      <trkpt lat="42.53797142766416072845458984375" lon="0.0797968916594982147216796875">
        <ele>777.79998779296875</ele>
        <time>2020-08-16T10:17:07.000Z</time>
      </trkpt>
      <trkpt lat="42.5380196236073970794677734375" lon="0.0797434151172637939453125">
        <ele>778</ele>
        <time>2020-08-16T10:17:10.000Z</time>
      </trkpt>
      <trkpt lat="42.53802825696766376495361328125" lon="0.07962900213897228240966796875">
        <ele>777.79998779296875</ele>
        <time>2020-08-16T10:17:12.000Z</time>
      </trkpt>
      <trkpt lat="42.53802658058702945709228515625" lon="0.079503357410430908203125">
        <ele>777.79998779296875</ele>
        <time>2020-08-16T10:17:14.000Z</time>
      </trkpt>
      <trkpt lat="42.53807569853961467742919921875" lon="0.0793566741049289703369140625">
        <ele>778</ele>
        <time>2020-08-16T10:17:17.000Z</time>
      </trkpt>
      <trkpt lat="42.53811257891356945037841796875" lon="0.07932440377771854400634765625">
        <ele>778</ele>
        <time>2020-08-16T10:17:19.000Z</time>
      </trkpt>
      <trkpt lat="42.538121379911899566650390625" lon="0.079286433756351470947265625">
        <ele>778.20001220703125</ele>
        <time>2020-08-16T10:17:20.000Z</time>
      </trkpt>
      <trkpt lat="42.53814392723143100738525390625" lon="0.0792500562965869903564453125">
        <ele>778.20001220703125</ele>
        <time>2020-08-16T10:17:22.000Z</time>
      </trkpt>
      <trkpt lat="42.5382043607532978057861328125" lon="0.07916581816971302032470703125">
        <ele>778.4000244140625</ele>
        <time>2020-08-16T10:17:27.000Z</time>
      </trkpt>
      <trkpt lat="42.53832690417766571044921875" lon="0.07920336909592151641845703125">
        <ele>778.4000244140625</ele>
        <time>2020-08-16T10:17:32.000Z</time>
      </trkpt>
      <trkpt lat="42.53846227191388607025146484375" lon="0.07921141572296619415283203125">
        <ele>778.5999755859375</ele>
        <time>2020-08-16T10:17:37.000Z</time>
      </trkpt>
      <trkpt lat="42.53858112730085849761962890625" lon="0.07922247983515262603759765625">
        <ele>779</ele>
        <time>2020-08-16T10:17:42.000Z</time>
      </trkpt>
      <trkpt lat="42.53867517225444316864013671875" lon="0.07924930192530155181884765625">
        <ele>779</ele>
        <time>2020-08-16T10:17:46.000Z</time>
      </trkpt>
      <trkpt lat="42.538699395954608917236328125" lon="0.07925600744783878326416015625">
        <ele>779.4000244140625</ele>
        <time>2020-08-16T10:17:47.000Z</time>
      </trkpt>
      <trkpt lat="42.53877860493957996368408203125" lon="0.07927964441478252410888671875">
        <ele>779.4000244140625</ele>
        <time>2020-08-16T10:17:50.000Z</time>
      </trkpt>
      <trkpt lat="42.5388340093195438385009765625" lon="0.079289786517620086669921875">
        <ele>779.5999755859375</ele>
        <time>2020-08-16T10:17:52.000Z</time>
      </trkpt>
      <trkpt lat="42.53885605372488498687744140625" lon="0.079291798174381256103515625">
        <ele>779.79998779296875</ele>
        <time>2020-08-16T10:17:53.000Z</time>
      </trkpt>
      <trkpt lat="42.53895378671586513519287109375" lon="0.079324655234813690185546875">
        <ele>780.20001220703125</ele>
        <time>2020-08-16T10:17:57.000Z</time>
      </trkpt>
      <trkpt lat="42.5390834547579288482666015625" lon="0.079364888370037078857421875">
        <ele>780.5999755859375</ele>
        <time>2020-08-16T10:18:01.000Z</time>
      </trkpt>
      <trkpt lat="42.539151348173618316650390625" lon="0.079383663833141326904296875">
        <ele>780.79998779296875</ele>
        <time>2020-08-16T10:18:03.000Z</time>
      </trkpt>
      <trkpt lat="42.53925302065908908843994140625" lon="0.07945247925817966461181640625">
        <ele>781</ele>
        <time>2020-08-16T10:18:05.000Z</time>
      </trkpt>
      <trkpt lat="42.539329044520854949951171875" lon="0.0794891081750392913818359375">
        <ele>781</ele>
        <time>2020-08-16T10:18:07.000Z</time>
      </trkpt>
      <trkpt lat="42.53935419023036956787109375" lon="0.07948952727019786834716796875">
        <ele>781.20001220703125</ele>
        <time>2020-08-16T10:18:08.000Z</time>
      </trkpt>
      <trkpt lat="42.5395511649549007415771484375" lon="0.07968968711793422698974609375">
        <ele>781.4000244140625</ele>
        <time>2020-08-16T10:18:11.000Z</time>
      </trkpt>
      <trkpt lat="42.53957807086408138275146484375" lon="0.07971902377903461456298828125">
        <ele>781.4000244140625</ele>
        <time>2020-08-16T10:18:12.000Z</time>
      </trkpt>
      <trkpt lat="42.53971955738961696624755859375" lon="0.079956315457820892333984375">
        <ele>781.5999755859375</ele>
        <time>2020-08-16T10:18:15.000Z</time>
      </trkpt>
      <trkpt lat="42.53977504558861255645751953125" lon="0.08002211339771747589111328125">
        <ele>781.5999755859375</ele>
        <time>2020-08-16T10:18:16.000Z</time>
      </trkpt>
      <trkpt lat="42.53978342749178409576416015625" lon="0.080023370683193206787109375">
        <ele>781.79998779296875</ele>
        <time>2020-08-16T10:18:17.000Z</time>
      </trkpt>
      <trkpt lat="42.53980807028710842132568359375" lon="0.080045163631439208984375">
        <ele>782.20001220703125</ele>
        <time>2020-08-16T10:18:20.000Z</time>
      </trkpt>
      <trkpt lat="42.5398187153041362762451171875" lon="0.08005321025848388671875">
        <ele>782.4000244140625</ele>
        <time>2020-08-16T10:18:21.000Z</time>
      </trkpt>
      <trkpt lat="42.53991435281932353973388671875" lon="0.08015320636332035064697265625">
        <ele>782.5999755859375</ele>
        <time>2020-08-16T10:18:24.000Z</time>
      </trkpt>
      <trkpt lat="42.54001225344836711883544921875" lon="0.08024708367884159088134765625">
        <ele>783</ele>
        <time>2020-08-16T10:18:27.000Z</time>
      </trkpt>
      <trkpt lat="42.540082074701786041259765625" lon="0.0802905857563018798828125">
        <ele>783</ele>
        <time>2020-08-16T10:18:29.000Z</time>
      </trkpt>
      <trkpt lat="42.54015306942164897918701171875" lon="0.080356635153293609619140625">
        <ele>783.20001220703125</ele>
        <time>2020-08-16T10:18:32.000Z</time>
      </trkpt>
      <trkpt lat="42.54020302556455135345458984375" lon="0.08036694489419460296630859375">
        <ele>783.5999755859375</ele>
        <time>2020-08-16T10:18:34.000Z</time>
      </trkpt>
      <trkpt lat="42.54025683738291263580322265625" lon="0.0803490914404392242431640625">
        <ele>783.5999755859375</ele>
        <time>2020-08-16T10:18:36.000Z</time>
      </trkpt>
      <trkpt lat="42.54032573662698268890380859375" lon="0.08031782694160938262939453125">
        <ele>784</ele>
        <time>2020-08-16T10:18:40.000Z</time>
      </trkpt>
      <trkpt lat="42.540379799902439117431640625" lon="0.08028496988117694854736328125">
        <ele>784.4000244140625</ele>
        <time>2020-08-16T10:18:43.000Z</time>
      </trkpt>
      <trkpt lat="42.54040293395519256591796875" lon="0.0802783481776714324951171875">
        <ele>784.5999755859375</ele>
        <time>2020-08-16T10:18:44.000Z</time>
      </trkpt>
      <trkpt lat="42.5404466874897480010986328125" lon="0.08027155883610248565673828125">
        <ele>784.79998779296875</ele>
        <time>2020-08-16T10:18:46.000Z</time>
      </trkpt>
      <trkpt lat="42.54046370275318622589111328125" lon="0.08026845753192901611328125">
        <ele>785.20001220703125</ele>
        <time>2020-08-16T10:18:47.000Z</time>
      </trkpt>
      <trkpt lat="42.5404818914830684661865234375" lon="0.0802642665803432464599609375">
        <ele>785.20001220703125</ele>
        <time>2020-08-16T10:18:48.000Z</time>
      </trkpt>
      <trkpt lat="42.54053411073982715606689453125" lon="0.08021657355129718780517578125">
        <ele>785.4000244140625</ele>
        <time>2020-08-16T10:18:50.000Z</time>
      </trkpt>
      <trkpt lat="42.5405968911945819854736328125" lon="0.08014650084078311920166015625">
        <ele>786</ele>
        <time>2020-08-16T10:18:54.000Z</time>
      </trkpt>
      <trkpt lat="42.54067207686603069305419921875" lon="0.08010350167751312255859375">
        <ele>786.4000244140625</ele>
        <time>2020-08-16T10:18:58.000Z</time>
      </trkpt>
      <trkpt lat="42.54071046598255634307861328125" lon="0.080066621303558349609375">
        <ele>786.79998779296875</ele>
        <time>2020-08-16T10:19:00.000Z</time>
      </trkpt>
      <trkpt lat="42.5407375395298004150390625" lon="0.08004005067050457000732421875">
        <ele>786.79998779296875</ele>
        <time>2020-08-16T10:19:02.000Z</time>
      </trkpt>
      <trkpt lat="42.54079981707036495208740234375" lon="0.08000023663043975830078125">
        <ele>787.4000244140625</ele>
        <time>2020-08-16T10:19:05.000Z</time>
      </trkpt>
      <trkpt lat="42.54087290726602077484130859375" lon="0.07994717918336391448974609375">
        <ele>787.79998779296875</ele>
        <time>2020-08-16T10:19:09.000Z</time>
      </trkpt>
      <trkpt lat="42.540907524526119232177734375" lon="0.07991851307451725006103515625">
        <ele>788.5999755859375</ele>
        <time>2020-08-16T10:19:11.000Z</time>
      </trkpt>
      <trkpt lat="42.54094247706234455108642578125" lon="0.0799061916768550872802734375">
        <ele>789.20001220703125</ele>
        <time>2020-08-16T10:19:13.000Z</time>
      </trkpt>
      <trkpt lat="42.54096309654414653778076171875" lon="0.079879872500896453857421875">
        <ele>789.4000244140625</ele>
        <time>2020-08-16T10:19:14.000Z</time>
      </trkpt>
      <trkpt lat="42.54097768105566501617431640625" lon="0.07986721582710742950439453125">
        <ele>789.20001220703125</ele>
        <time>2020-08-16T10:19:15.000Z</time>
      </trkpt>
      <trkpt lat="42.5410089455544948577880859375" lon="0.0798388011753559112548828125">
        <ele>789.20001220703125</ele>
        <time>2020-08-16T10:19:17.000Z</time>
      </trkpt>
      <trkpt lat="42.54104255698621273040771484375" lon="0.0798260606825351715087890625">
        <ele>789.4000244140625</ele>
        <time>2020-08-16T10:19:19.000Z</time>
      </trkpt>
      <trkpt lat="42.541080527007579803466796875" lon="0.0798009149730205535888671875">
        <ele>789.5999755859375</ele>
        <time>2020-08-16T10:19:21.000Z</time>
      </trkpt>
      <trkpt lat="42.5411169044673442840576171875" lon="0.07978490553796291351318359375">
        <ele>789.79998779296875</ele>
        <time>2020-08-16T10:19:23.000Z</time>
      </trkpt>
      <trkpt lat="42.54117272794246673583984375" lon="0.07979194633662700653076171875">
        <ele>790</ele>
        <time>2020-08-16T10:19:26.000Z</time>
      </trkpt>
      <trkpt lat="42.5412329100072383880615234375" lon="0.0797767750918865203857421875">
        <ele>790.79998779296875</ele>
        <time>2020-08-16T10:19:29.000Z</time>
      </trkpt>
      <trkpt lat="42.541255541145801544189453125" lon="0.07977358996868133544921875">
        <ele>791</ele>
        <time>2020-08-16T10:19:30.000Z</time>
      </trkpt>
      <trkpt lat="42.54131547175347805023193359375" lon="0.079731680452823638916015625">
        <ele>791.20001220703125</ele>
        <time>2020-08-16T10:19:33.000Z</time>
      </trkpt>
      <trkpt lat="42.54136207513511180877685546875" lon="0.07972857914865016937255859375">
        <ele>791.5999755859375</ele>
        <time>2020-08-16T10:19:35.000Z</time>
      </trkpt>
      <trkpt lat="42.54138705320656299591064453125" lon="0.07972522638738155364990234375">
        <ele>791.79998779296875</ele>
        <time>2020-08-16T10:19:36.000Z</time>
      </trkpt>
      <trkpt lat="42.5414494983851909637451171875" lon="0.07971935905516147613525390625">
        <ele>792.4000244140625</ele>
        <time>2020-08-16T10:19:39.000Z</time>
      </trkpt>
      <trkpt lat="42.54153004847466945648193359375" lon="0.07968599908053874969482421875">
        <ele>792.79998779296875</ele>
        <time>2020-08-16T10:19:43.000Z</time>
      </trkpt>
      <trkpt lat="42.5415722094476222991943359375" lon="0.07963252253830432891845703125">
        <ele>793.4000244140625</ele>
        <time>2020-08-16T10:19:46.000Z</time>
      </trkpt>
      <trkpt lat="42.54161219112575054168701171875" lon="0.07954635657370090484619140625">
        <ele>793.79998779296875</ele>
        <time>2020-08-16T10:19:50.000Z</time>
      </trkpt>
      <trkpt lat="42.54165292717516422271728515625" lon="0.0794978253543376922607421875">
        <ele>794</ele>
        <time>2020-08-16T10:19:53.000Z</time>
      </trkpt>
      <trkpt lat="42.54165376536548137664794921875" lon="0.0794813968241214752197265625">
        <ele>794</ele>
        <time>2020-08-16T10:19:54.000Z</time>
      </trkpt>
      <trkpt lat="42.5416486524045467376708984375" lon="0.0794357992708683013916015625">
        <ele>794</ele>
        <time>2020-08-16T10:19:57.000Z</time>
      </trkpt>
      <trkpt lat="42.54164404235780239105224609375" lon="0.07937385700643062591552734375">
        <ele>794</ele>
        <time>2020-08-16T10:20:00.000Z</time>
      </trkpt>
      <trkpt lat="42.5416406057775020599365234375" lon="0.07937033660709857940673828125">
        <ele>793.79998779296875</ele>
        <time>2020-08-16T10:20:05.000Z</time>
      </trkpt>
      <trkpt lat="42.541640438139438629150390625" lon="0.07936798967421054840087890625">
        <ele>793.79998779296875</ele>
        <time>2020-08-16T10:20:07.000Z</time>
      </trkpt>
      <trkpt lat="42.54163716919720172882080078125" lon="0.0793613679707050323486328125">
        <ele>793.79998779296875</ele>
        <time>2020-08-16T10:20:12.000Z</time>
      </trkpt>
      <trkpt lat="42.5416339002549648284912109375" lon="0.07935843430459499359130859375">
        <ele>793.79998779296875</ele>
        <time>2020-08-16T10:20:16.000Z</time>
      </trkpt>
      <trkpt lat="42.54163314588367938995361328125" lon="0.079356171190738677978515625">
        <ele>793.79998779296875</ele>
        <time>2020-08-16T10:20:17.000Z</time>
      </trkpt>
      <trkpt lat="42.54162962548434734344482421875" lon="0.0793476216495037078857421875">
        <ele>793.79998779296875</ele>
        <time>2020-08-16T10:20:23.000Z</time>
      </trkpt>
      <trkpt lat="42.54162878729403018951416015625" lon="0.0793429277837276458740234375">
        <ele>793.79998779296875</ele>
        <time>2020-08-16T10:20:27.000Z</time>
      </trkpt>
      <trkpt lat="42.54162895493209362030029296875" lon="0.07934150286018848419189453125">
        <ele>794</ele>
        <time>2020-08-16T10:20:29.000Z</time>
      </trkpt>
      <trkpt lat="42.5416278652846813201904296875" lon="0.07933043874800205230712890625">
        <ele>793.79998779296875</ele>
        <time>2020-08-16T10:20:35.000Z</time>
      </trkpt>
      <trkpt lat="42.5416265241801738739013671875" lon="0.07932842709124088287353515625">
        <ele>793.79998779296875</ele>
        <time>2020-08-16T10:20:40.000Z</time>
      </trkpt>
      <trkpt lat="42.54162627272307872772216796875" lon="0.07932758890092372894287109375">
        <ele>793.5999755859375</ele>
        <time>2020-08-16T10:20:41.000Z</time>
      </trkpt>
      <trkpt lat="42.5416258536279201507568359375" lon="0.0793228112161159515380859375">
        <ele>793.79998779296875</ele>
        <time>2020-08-16T10:20:46.000Z</time>
      </trkpt>
      <trkpt lat="42.54162610508501529693603515625" lon="0.0793204642832279205322265625">
        <ele>794</ele>
        <time>2020-08-16T10:20:51.000Z</time>
      </trkpt>
      <trkpt lat="42.54162560217082500457763671875" lon="0.07932172156870365142822265625">
        <ele>794</ele>
        <time>2020-08-16T10:20:53.000Z</time>
      </trkpt>
      <trkpt lat="42.5416258536279201507568359375" lon="0.07932138629257678985595703125">
        <ele>793.5999755859375</ele>
        <time>2020-08-16T10:20:57.000Z</time>
      </trkpt>
      <trkpt lat="42.54162711091339588165283203125" lon="0.07933077402412891387939453125">
        <ele>793.79998779296875</ele>
        <time>2020-08-16T10:21:02.000Z</time>
      </trkpt>
      <trkpt lat="42.5416271947324275970458984375" lon="0.07932926528155803680419921875">
        <ele>793.79998779296875</ele>
        <time>2020-08-16T10:21:03.000Z</time>
      </trkpt>
      <trkpt lat="42.5416295416653156280517578125" lon="0.079325996339321136474609375">
        <ele>793.79998779296875</ele>
        <time>2020-08-16T10:21:09.000Z</time>
      </trkpt>
      <trkpt lat="42.54162023775279521942138671875" lon="0.07927344180643558502197265625">
        <ele>793.79998779296875</ele>
        <time>2020-08-16T10:21:13.000Z</time>
      </trkpt>
      <trkpt lat="42.54161822609603404998779296875" lon="0.0792171992361545562744140625">
        <ele>794</ele>
        <time>2020-08-16T10:21:15.000Z</time>
      </trkpt>
      <trkpt lat="42.54162468016147613525390625" lon="0.07909071631729602813720703125">
        <ele>793.79998779296875</ele>
        <time>2020-08-16T10:21:20.000Z</time>
      </trkpt>
      <trkpt lat="42.541598863899707794189453125" lon="0.0789868645370006561279296875">
        <ele>793.79998779296875</ele>
        <time>2020-08-16T10:21:26.000Z</time>
      </trkpt>
      <trkpt lat="42.54159039817750453948974609375" lon="0.0789838470518589019775390625">
        <ele>794</ele>
        <time>2020-08-16T10:21:31.000Z</time>
      </trkpt>
      <trkpt lat="42.54158469848334789276123046875" lon="0.0789825059473514556884765625">
        <ele>794</ele>
        <time>2020-08-16T10:21:35.000Z</time>
      </trkpt>
      <trkpt lat="42.5415846146643161773681640625" lon="0.07898233830928802490234375">
        <ele>794</ele>
        <time>2020-08-16T10:21:37.000Z</time>
      </trkpt>
      <trkpt lat="42.54159844480454921722412109375" lon="0.079003460705280303955078125">
        <ele>794</ele>
        <time>2020-08-16T10:21:43.000Z</time>
      </trkpt>
      <trkpt lat="42.54160347394645214080810546875" lon="0.0790083222091197967529296875">
        <ele>794</ele>
        <time>2020-08-16T10:21:44.000Z</time>
      </trkpt>
      <trkpt lat="42.54161755554378032684326171875" lon="0.07901586592197418212890625">
        <ele>794.4000244140625</ele>
        <time>2020-08-16T10:21:46.000Z</time>
      </trkpt>
      <trkpt lat="42.5416499935090541839599609375" lon="0.07904059253633022308349609375">
        <ele>794.4000244140625</ele>
        <time>2020-08-16T10:21:51.000Z</time>
      </trkpt>
      <trkpt lat="42.54169567488133907318115234375" lon="0.0790666602551937103271484375">
        <ele>794.5999755859375</ele>
        <time>2020-08-16T10:21:57.000Z</time>
      </trkpt>
      <trkpt lat="42.541756443679332733154296875" lon="0.0789372436702251434326171875">
        <ele>795</ele>
        <time>2020-08-16T10:22:01.000Z</time>
      </trkpt>
      <trkpt lat="42.54200412891805171966552734375" lon="0.07845385931432247161865234375">
        <ele>795</ele>
        <time>2020-08-16T10:22:07.000Z</time>
      </trkpt>
      <trkpt lat="42.54205861128866672515869140625" lon="0.078405998647212982177734375">
        <ele>795.20001220703125</ele>
        <time>2020-08-16T10:22:08.000Z</time>
      </trkpt>
      <trkpt lat="42.54214813001453876495361328125" lon="0.07831958122551441192626953125">
        <ele>795.4000244140625</ele>
        <time>2020-08-16T10:22:11.000Z</time>
      </trkpt>
      <trkpt lat="42.54219590686261653900146484375" lon="0.07829762063920497894287109375">
        <ele>795.5999755859375</ele>
        <time>2020-08-16T10:22:12.000Z</time>
      </trkpt>
      <trkpt lat="42.54236991517245769500732421875" lon="0.07820324040949344635009765625">
        <ele>795.79998779296875</ele>
        <time>2020-08-16T10:22:16.000Z</time>
      </trkpt>
      <trkpt lat="42.5424621999263763427734375" lon="0.07817910052835941314697265625">
        <ele>795.79998779296875</ele>
        <time>2020-08-16T10:22:18.000Z</time>
      </trkpt>
      <trkpt lat="42.54254174418747425079345703125" lon="0.07815177552402019500732421875">
        <ele>796</ele>
        <time>2020-08-16T10:22:20.000Z</time>
      </trkpt>
      <trkpt lat="42.54265607334673404693603515625" lon="0.078104920685291290283203125">
        <ele>796</ele>
        <time>2020-08-16T10:22:23.000Z</time>
      </trkpt>
      <trkpt lat="42.54282362759113311767578125" lon="0.0780155695974826812744140625">
        <ele>795.79998779296875</ele>
        <time>2020-08-16T10:22:26.000Z</time>
      </trkpt>
      <trkpt lat="42.5429126434028148651123046875" lon="0.07795614190399646759033203125">
        <ele>796</ele>
        <time>2020-08-16T10:22:29.000Z</time>
      </trkpt>
      <trkpt lat="42.5429451651871204376220703125" lon="0.07788489572703838348388671875">
        <ele>796.20001220703125</ele>
        <time>2020-08-16T10:22:32.000Z</time>
      </trkpt>
      <trkpt lat="42.54288665950298309326171875" lon="0.0778524577617645263671875">
        <ele>796.20001220703125</ele>
        <time>2020-08-16T10:22:34.000Z</time>
      </trkpt>
      <trkpt lat="42.54280426539480686187744140625" lon="0.07779554463922977447509765625">
        <ele>796.4000244140625</ele>
        <time>2020-08-16T10:22:37.000Z</time>
      </trkpt>
      <trkpt lat="42.542817592620849609375" lon="0.07771323435008525848388671875">
        <ele>796.20001220703125</ele>
        <time>2020-08-16T10:22:39.000Z</time>
      </trkpt>
      <trkpt lat="42.54286813549697399139404296875" lon="0.07763980887830257415771484375">
        <ele>796.4000244140625</ele>
        <time>2020-08-16T10:22:43.000Z</time>
      </trkpt>
      <trkpt lat="42.5428806245326995849609375" lon="0.07764316163957118988037109375">
        <ele>796.4000244140625</ele>
        <time>2020-08-16T10:22:44.000Z</time>
      </trkpt>
      <trkpt lat="42.5429324246942996978759765625" lon="0.0776574946939945220947265625">
        <ele>796.5999755859375</ele>
        <time>2020-08-16T10:22:47.000Z</time>
      </trkpt>
      <trkpt lat="42.542959749698638916015625" lon="0.07766981609165668487548828125">
        <ele>796.5999755859375</ele>
        <time>2020-08-16T10:22:48.000Z</time>
      </trkpt>
      <trkpt lat="42.54301900975406169891357421875" lon="0.077716000378131866455078125">
        <ele>796.5999755859375</ele>
        <time>2020-08-16T10:22:50.000Z</time>
      </trkpt>
      <trkpt lat="42.54318597726523876190185546875" lon="0.07800844497978687286376953125">
        <ele>796.5999755859375</ele>
        <time>2020-08-16T10:22:54.000Z</time>
      </trkpt>
      <trkpt lat="42.54324607551097869873046875" lon="0.07818580605089664459228515625">
        <ele>796.5999755859375</ele>
        <time>2020-08-16T10:22:55.000Z</time>
      </trkpt>
      <trkpt lat="42.5434048287570476531982421875" lon="0.07844187319278717041015625">
        <ele>797</ele>
        <time>2020-08-16T10:22:59.000Z</time>
      </trkpt>
      <trkpt lat="42.5434410385787487030029296875" lon="0.0784638337790966033935546875">
        <ele>797</ele>
        <time>2020-08-16T10:23:00.000Z</time>
      </trkpt>
      <trkpt lat="42.5435862131416797637939453125" lon="0.078569948673248291015625">
        <ele>797.4000244140625</ele>
        <time>2020-08-16T10:23:03.000Z</time>
      </trkpt>
      <trkpt lat="42.54378385841846466064453125" lon="0.078534074127674102783203125">
        <ele>797.5999755859375</ele>
        <time>2020-08-16T10:23:07.000Z</time>
      </trkpt>
      <trkpt lat="42.54382015205919742584228515625" lon="0.0784935057163238525390625">
        <ele>797.5999755859375</ele>
        <time>2020-08-16T10:23:08.000Z</time>
      </trkpt>
      <trkpt lat="42.54403238184750080108642578125" lon="0.0783097743988037109375">
        <ele>797.79998779296875</ele>
        <time>2020-08-16T10:23:13.000Z</time>
      </trkpt>
      <trkpt lat="42.54418660886585712432861328125" lon="0.078197456896305084228515625">
        <ele>798.20001220703125</ele>
        <time>2020-08-16T10:23:17.000Z</time>
      </trkpt>
      <trkpt lat="42.54423555918037891387939453125" lon="0.07819242775440216064453125">
        <ele>798.20001220703125</ele>
        <time>2020-08-16T10:23:18.000Z</time>
      </trkpt>
      <trkpt lat="42.54445030353963375091552734375" lon="0.07812847383320331573486328125">
        <ele>798.5999755859375</ele>
        <time>2020-08-16T10:23:23.000Z</time>
      </trkpt>
      <trkpt lat="42.5445508025586605072021484375" lon="0.078100226819515228271484375">
        <ele>798.79998779296875</ele>
        <time>2020-08-16T10:23:26.000Z</time>
      </trkpt>
      <trkpt lat="42.54464778117835521697998046875" lon="0.07807399146258831024169921875">
        <ele>799.4000244140625</ele>
        <time>2020-08-16T10:23:29.000Z</time>
      </trkpt>
      <trkpt lat="42.5447533093392848968505859375" lon="0.07803258486092090606689453125">
        <ele>799.5999755859375</ele>
        <time>2020-08-16T10:23:32.000Z</time>
      </trkpt>
      <trkpt lat="42.54485464654862880706787109375" lon="0.07799201644957065582275390625">
        <ele>800</ele>
        <time>2020-08-16T10:23:35.000Z</time>
      </trkpt>
      <trkpt lat="42.54498607479035854339599609375" lon="0.077909789979457855224609375">
        <ele>800.4000244140625</ele>
        <time>2020-08-16T10:23:39.000Z</time>
      </trkpt>
      <trkpt lat="42.54501775838434696197509765625" lon="0.07788539864122867584228515625">
        <ele>800.4000244140625</ele>
        <time>2020-08-16T10:23:40.000Z</time>
      </trkpt>
      <trkpt lat="42.545107193291187286376953125" lon="0.07773108780384063720703125">
        <ele>800.79998779296875</ele>
        <time>2020-08-16T10:23:45.000Z</time>
      </trkpt>
      <trkpt lat="42.54517584107816219329833984375" lon="0.07759924046695232391357421875">
        <ele>801.4000244140625</ele>
        <time>2020-08-16T10:23:51.000Z</time>
      </trkpt>
      <trkpt lat="42.5452542118728160858154296875" lon="0.077566467225551605224609375">
        <ele>801.4000244140625</ele>
        <time>2020-08-16T10:23:56.000Z</time>
      </trkpt>
      <trkpt lat="42.54530089907348155975341796875" lon="0.0775458477437496185302734375">
        <ele>801.79998779296875</ele>
        <time>2020-08-16T10:23:58.000Z</time>
      </trkpt>
      <trkpt lat="42.5453772582113742828369140625" lon="0.077503435313701629638671875">
        <ele>802.20001220703125</ele>
        <time>2020-08-16T10:24:01.000Z</time>
      </trkpt>
      <trkpt lat="42.54542897455394268035888671875" lon="0.0775119848549365997314453125">
        <ele>802.5999755859375</ele>
        <time>2020-08-16T10:24:02.000Z</time>
      </trkpt>
      <trkpt lat="42.54550893791019916534423828125" lon="0.0775673054158687591552734375">
        <ele>802.79998779296875</ele>
        <time>2020-08-16T10:24:06.000Z</time>
      </trkpt>
      <trkpt lat="42.54549376666545867919921875" lon="0.07754735648632049560546875">
        <ele>803</ele>
        <time>2020-08-16T10:24:07.000Z</time>
      </trkpt>
      <trkpt lat="42.545406259596347808837890625" lon="0.07733101956546306610107421875">
        <ele>803.79998779296875</ele>
        <time>2020-08-16T10:24:11.000Z</time>
      </trkpt>
      <trkpt lat="42.54533560015261173248291015625" lon="0.07699423469603061676025390625">
        <ele>804.20001220703125</ele>
        <time>2020-08-16T10:24:17.000Z</time>
      </trkpt>
      <trkpt lat="42.54537113942205905914306640625" lon="0.0769765488803386688232421875">
        <ele>804.4000244140625</ele>
        <time>2020-08-16T10:24:18.000Z</time>
      </trkpt>
      <trkpt lat="42.54547272808849811553955078125" lon="0.07687454111874103546142578125">
        <ele>804.5999755859375</ele>
        <time>2020-08-16T10:24:23.000Z</time>
      </trkpt>
      <trkpt lat="42.545549757778644561767578125" lon="0.0767971761524677276611328125">
        <ele>805</ele>
        <time>2020-08-16T10:24:25.000Z</time>
      </trkpt>
      <trkpt lat="42.5455697067081928253173828125" lon="0.0767368264496326446533203125">
        <ele>805.20001220703125</ele>
        <time>2020-08-16T10:24:27.000Z</time>
      </trkpt>
      <trkpt lat="42.54553659819066524505615234375" lon="0.076680667698383331298828125">
        <ele>805</ele>
        <time>2020-08-16T10:24:28.000Z</time>
      </trkpt>
      <trkpt lat="42.54547021351754665374755859375" lon="0.0765054859220981597900390625">
        <ele>805.20001220703125</ele>
        <time>2020-08-16T10:24:32.000Z</time>
      </trkpt>
      <trkpt lat="42.5454635918140411376953125" lon="0.07647120393812656402587890625">
        <ele>805.4000244140625</ele>
        <time>2020-08-16T10:24:33.000Z</time>
      </trkpt>
      <trkpt lat="42.54546535201370716094970703125" lon="0.0764340721070766448974609375">
        <ele>805.4000244140625</ele>
        <time>2020-08-16T10:24:34.000Z</time>
      </trkpt>
      <trkpt lat="42.54551162011921405792236328125" lon="0.076360814273357391357421875">
        <ele>805.4000244140625</ele>
        <time>2020-08-16T10:24:37.000Z</time>
      </trkpt>
      <trkpt lat="42.54553559236228466033935546875" lon="0.07628462277352809906005859375">
        <ele>805.5999755859375</ele>
        <time>2020-08-16T10:24:40.000Z</time>
      </trkpt>
      <trkpt lat="42.5455655157566070556640625" lon="0.07624204270541667938232421875">
        <ele>805.79998779296875</ele>
        <time>2020-08-16T10:24:42.000Z</time>
      </trkpt>
      <trkpt lat="42.54561689682304859161376953125" lon="0.0761832855641841888427734375">
        <ele>806</ele>
        <time>2020-08-16T10:24:45.000Z</time>
      </trkpt>
      <trkpt lat="42.54563458263874053955078125" lon="0.07616476155817508697509765625">
        <ele>806.20001220703125</ele>
        <time>2020-08-16T10:24:46.000Z</time>
      </trkpt>
      <trkpt lat="42.5457638315856456756591796875" lon="0.0760837085545063018798828125">
        <ele>806.79998779296875</ele>
        <time>2020-08-16T10:24:52.000Z</time>
      </trkpt>
      <trkpt lat="42.545864246785640716552734375" lon="0.07600064389407634735107421875">
        <ele>807.5999755859375</ele>
        <time>2020-08-16T10:24:57.000Z</time>
      </trkpt>
      <trkpt lat="42.5459599681198596954345703125" lon="0.07598186843097209930419921875">
        <ele>807.5999755859375</ele>
        <time>2020-08-16T10:25:00.000Z</time>
      </trkpt>
      <trkpt lat="42.5459908135235309600830078125" lon="0.07597021758556365966796875">
        <ele>807.79998779296875</ele>
        <time>2020-08-16T10:25:01.000Z</time>
      </trkpt>
      <trkpt lat="42.546021156013011932373046875" lon="0.07596158422529697418212890625">
        <ele>807.79998779296875</ele>
        <time>2020-08-16T10:25:02.000Z</time>
      </trkpt>
      <trkpt lat="42.546157278120517730712890625" lon="0.07595546543598175048828125">
        <ele>808.4000244140625</ele>
        <time>2020-08-16T10:25:06.000Z</time>
      </trkpt>
      <trkpt lat="42.54619826562702655792236328125" lon="0.075957812368869781494140625">
        <ele>808.4000244140625</ele>
        <time>2020-08-16T10:25:07.000Z</time>
      </trkpt>
      <trkpt lat="42.5463532470166683197021484375" lon="0.07598790340125560760498046875">
        <ele>808.5999755859375</ele>
        <time>2020-08-16T10:25:10.000Z</time>
      </trkpt>
      <trkpt lat="42.54640915431082248687744140625" lon="0.075996033847332000732421875">
        <ele>808.79998779296875</ele>
        <time>2020-08-16T10:25:11.000Z</time>
      </trkpt>
      <trkpt lat="42.54654385149478912353515625" lon="0.07602654397487640380859375">
        <ele>809.4000244140625</ele>
        <time>2020-08-16T10:25:14.000Z</time>
      </trkpt>
      <trkpt lat="42.54663169384002685546875" lon="0.07605596445500850677490234375">
        <ele>809.79998779296875</ele>
        <time>2020-08-16T10:25:16.000Z</time>
      </trkpt>
      <trkpt lat="42.5468078814446926116943359375" lon="0.07613173685967922210693359375">
        <ele>810.20001220703125</ele>
        <time>2020-08-16T10:25:21.000Z</time>
      </trkpt>
      <trkpt lat="42.546831853687763214111328125" lon="0.07614430971443653106689453125">
        <ele>810.20001220703125</ele>
        <time>2020-08-16T10:25:22.000Z</time>
      </trkpt>
      <trkpt lat="42.54692262969911098480224609375" lon="0.07617347873747348785400390625">
        <ele>811</ele>
        <time>2020-08-16T10:25:27.000Z</time>
      </trkpt>
      <trkpt lat="42.5469414889812469482421875" lon="0.0761873088777065277099609375">
        <ele>811</ele>
        <time>2020-08-16T10:25:28.000Z</time>
      </trkpt>
      <trkpt lat="42.54700711928308010101318359375" lon="0.07622963748872280120849609375">
        <ele>811.20001220703125</ele>
        <time>2020-08-16T10:25:31.000Z</time>
      </trkpt>
      <trkpt lat="42.54706009291112422943115234375" lon="0.076230056583881378173828125">
        <ele>811.5999755859375</ele>
        <time>2020-08-16T10:25:35.000Z</time>
      </trkpt>
      <trkpt lat="42.54706646315753459930419921875" lon="0.0762350857257843017578125">
        <ele>811.5999755859375</ele>
        <time>2020-08-16T10:25:36.000Z</time>
      </trkpt>
      <trkpt lat="42.5472177565097808837890625" lon="0.07623449899256229400634765625">
        <ele>812.4000244140625</ele>
        <time>2020-08-16T10:25:45.000Z</time>
      </trkpt>
      <trkpt lat="42.547252289950847625732421875" lon="0.0762148015201091766357421875">
        <ele>812.5999755859375</ele>
        <time>2020-08-16T10:25:47.000Z</time>
      </trkpt>
      <trkpt lat="42.547259666025638580322265625" lon="0.07617540657520294189453125">
        <ele>812.79998779296875</ele>
        <time>2020-08-16T10:25:49.000Z</time>
      </trkpt>
      <trkpt lat="42.54729495383799076080322265625" lon="0.07613877765834331512451171875">
        <ele>813.20001220703125</ele>
        <time>2020-08-16T10:25:52.000Z</time>
      </trkpt>
      <trkpt lat="42.5472960434854030609130859375" lon="0.07609921507537364959716796875">
        <ele>813.79998779296875</ele>
        <time>2020-08-16T10:25:54.000Z</time>
      </trkpt>
      <trkpt lat="42.54733250476419925689697265625" lon="0.0760612450540065765380859375">
        <ele>814</ele>
        <time>2020-08-16T10:25:57.000Z</time>
      </trkpt>
      <trkpt lat="42.547356896102428436279296875" lon="0.0760352611541748046875">
        <ele>814</ele>
        <time>2020-08-16T10:25:59.000Z</time>
      </trkpt>
      <trkpt lat="42.54741867072880268096923828125" lon="0.0759708881378173828125">
        <ele>814.5999755859375</ele>
        <time>2020-08-16T10:26:04.000Z</time>
      </trkpt>
      <trkpt lat="42.547452449798583984375" lon="0.075937695801258087158203125">
        <ele>814.4000244140625</ele>
        <time>2020-08-16T10:26:06.000Z</time>
      </trkpt>
      <trkpt lat="42.54750450141727924346923828125" lon="0.07588706910610198974609375">
        <ele>815</ele>
        <time>2020-08-16T10:26:09.000Z</time>
      </trkpt>
      <trkpt lat="42.54755864851176738739013671875" lon="0.07582135498523712158203125">
        <ele>815.4000244140625</ele>
        <time>2020-08-16T10:26:12.000Z</time>
      </trkpt>
      <trkpt lat="42.547596283257007598876953125" lon="0.075775086879730224609375">
        <ele>815.4000244140625</ele>
        <time>2020-08-16T10:26:14.000Z</time>
      </trkpt>
      <trkpt lat="42.547685801982879638671875" lon="0.0756314210593700408935546875">
        <ele>816</ele>
        <time>2020-08-16T10:26:20.000Z</time>
      </trkpt>
      <trkpt lat="42.547706253826618194580078125" lon="0.07562530227005481719970703125">
        <ele>816.20001220703125</ele>
        <time>2020-08-16T10:26:24.000Z</time>
      </trkpt>
      <trkpt lat="42.54774942062795162200927734375" lon="0.07566888816654682159423828125">
        <ele>816.5999755859375</ele>
        <time>2020-08-16T10:26:27.000Z</time>
      </trkpt>
      <trkpt lat="42.5475490093231201171875" lon="0.07469482719898223876953125">
        <ele>817.20001220703125</ele>
        <time>2020-08-16T10:26:32.000Z</time>
      </trkpt>
      <trkpt lat="42.54726712591946125030517578125" lon="0.07429777644574642181396484375">
        <ele>817.4000244140625</ele>
        <time>2020-08-16T10:26:33.000Z</time>
      </trkpt>
      <trkpt lat="42.54727114923298358917236328125" lon="0.07413617335259914398193359375">
        <ele>817.4000244140625</ele>
        <time>2020-08-16T10:26:34.000Z</time>
      </trkpt>
      <trkpt lat="42.54722647368907928466796875" lon="0.0739319063723087310791015625">
        <ele>818.20001220703125</ele>
        <time>2020-08-16T10:26:37.000Z</time>
      </trkpt>
      <trkpt lat="42.5470487773418426513671875" lon="0.07384314201772212982177734375">
        <ele>818.4000244140625</ele>
        <time>2020-08-16T10:26:40.000Z</time>
      </trkpt>
      <trkpt lat="42.5467295944690704345703125" lon="0.07368254475295543670654296875">
        <ele>818.20001220703125</ele>
        <time>2020-08-16T10:26:45.000Z</time>
      </trkpt>
      <trkpt lat="42.54666346125304698944091796875" lon="0.0736105442047119140625">
        <ele>818.4000244140625</ele>
        <time>2020-08-16T10:26:47.000Z</time>
      </trkpt>
      <trkpt lat="42.54660495556890964508056640625" lon="0.07353954948484897613525390625">
        <ele>818.4000244140625</ele>
        <time>2020-08-16T10:26:49.000Z</time>
      </trkpt>
      <trkpt lat="42.54659422673285007476806640625" lon="0.07350166328251361846923828125">
        <ele>818.5999755859375</ele>
        <time>2020-08-16T10:26:50.000Z</time>
      </trkpt>
      <trkpt lat="42.546521387994289398193359375" lon="0.07334978319704532623291015625">
        <ele>819</ele>
        <time>2020-08-16T10:26:55.000Z</time>
      </trkpt>
      <trkpt lat="42.54650906659662723541259765625" lon="0.07331826724112033843994140625">
        <ele>819.20001220703125</ele>
        <time>2020-08-16T10:26:56.000Z</time>
      </trkpt>
      <trkpt lat="42.546502612531185150146484375" lon="0.073267556726932525634765625">
        <ele>819.4000244140625</ele>
        <time>2020-08-16T10:26:58.000Z</time>
      </trkpt>
      <trkpt lat="42.54649448208510875701904296875" lon="0.07317393086850643157958984375">
        <ele>819.4000244140625</ele>
        <time>2020-08-16T10:27:01.000Z</time>
      </trkpt>
      <trkpt lat="42.54652800969779491424560546875" lon="0.07304501719772815704345703125">
        <ele>819.5999755859375</ele>
        <time>2020-08-16T10:27:06.000Z</time>
      </trkpt>
      <trkpt lat="42.54654695279896259307861328125" lon="0.07302255369722843170166015625">
        <ele>819.79998779296875</ele>
        <time>2020-08-16T10:27:07.000Z</time>
      </trkpt>
      <trkpt lat="42.54673051647841930389404296875" lon="0.07296673022210597991943359375">
        <ele>820.20001220703125</ele>
        <time>2020-08-16T10:27:13.000Z</time>
      </trkpt>
      <trkpt lat="42.54677343182265758514404296875" lon="0.07297259755432605743408203125">
        <ele>820.4000244140625</ele>
        <time>2020-08-16T10:27:14.000Z</time>
      </trkpt>
      <trkpt lat="42.5470305047929286956787109375" lon="0.07304384373128414154052734375">
        <ele>820.5999755859375</ele>
        <time>2020-08-16T10:27:19.000Z</time>
      </trkpt>
      <trkpt lat="42.547187246382236480712890625" lon="0.0731451809406280517578125">
        <ele>821.20001220703125</ele>
        <time>2020-08-16T10:27:21.000Z</time>
      </trkpt>
      <trkpt lat="42.54742101766169071197509765625" lon="0.073232352733612060546875">
        <ele>821.79998779296875</ele>
        <time>2020-08-16T10:27:25.000Z</time>
      </trkpt>
      <trkpt lat="42.54746611230075359344482421875" lon="0.07324417121708393096923828125">
        <ele>822</ele>
        <time>2020-08-16T10:27:26.000Z</time>
      </trkpt>
      <trkpt lat="42.54767574369907379150390625" lon="0.07331038825213909149169921875">
        <ele>822.4000244140625</ele>
        <time>2020-08-16T10:27:30.000Z</time>
      </trkpt>
      <trkpt lat="42.5479982793331146240234375" lon="0.07343293167650699615478515625">
        <ele>822.79998779296875</ele>
        <time>2020-08-16T10:27:34.000Z</time>
      </trkpt>
      <trkpt lat="42.54850395955145359039306640625" lon="0.07368556223809719085693359375">
        <ele>823.4000244140625</ele>
        <time>2020-08-16T10:27:38.000Z</time>
      </trkpt>
      <trkpt lat="42.548820041120052337646484375" lon="0.07381347008049488067626953125">
        <ele>824</ele>
        <time>2020-08-16T10:27:42.000Z</time>
      </trkpt>
      <trkpt lat="42.54886220209300518035888671875" lon="0.07381749339401721954345703125">
        <ele>824</ele>
        <time>2020-08-16T10:27:43.000Z</time>
      </trkpt>
      <trkpt lat="42.54906739108264446258544921875" lon="0.0738680362701416015625">
        <ele>825</ele>
        <time>2020-08-16T10:27:48.000Z</time>
      </trkpt>
      <trkpt lat="42.54915758036077022552490234375" lon="0.07387130521237850189208984375">
        <ele>825</ele>
        <time>2020-08-16T10:27:51.000Z</time>
      </trkpt>
      <trkpt lat="42.54921658895909786224365234375" lon="0.0738544575870037078857421875">
        <ele>825.4000244140625</ele>
        <time>2020-08-16T10:27:53.000Z</time>
      </trkpt>
      <trkpt lat="42.5493393838405609130859375" lon="0.07382604293525218963623046875">
        <ele>826.20001220703125</ele>
        <time>2020-08-16T10:27:57.000Z</time>
      </trkpt>
      <trkpt lat="42.549384646117687225341796875" lon="0.07383090443909168243408203125">
        <ele>826.20001220703125</ele>
        <time>2020-08-16T10:27:58.000Z</time>
      </trkpt>
      <trkpt lat="42.54943233914673328399658203125" lon="0.0738216005265712738037109375">
        <ele>826.79998779296875</ele>
        <time>2020-08-16T10:28:00.000Z</time>
      </trkpt>
      <trkpt lat="42.549452371895313262939453125" lon="0.07381640374660491943359375">
        <ele>826.79998779296875</ele>
        <time>2020-08-16T10:28:01.000Z</time>
      </trkpt>
      <trkpt lat="42.549545578658580780029296875" lon="0.07380676455795764923095703125">
        <ele>827</ele>
        <time>2020-08-16T10:28:05.000Z</time>
      </trkpt>
      <trkpt lat="42.549630068242549896240234375" lon="0.07378094829618930816650390625">
        <ele>827.20001220703125</ele>
        <time>2020-08-16T10:28:08.000Z</time>
      </trkpt>
      <trkpt lat="42.54965077154338359832763671875" lon="0.0737652741372585296630859375">
        <ele>827.20001220703125</ele>
        <time>2020-08-16T10:28:09.000Z</time>
      </trkpt>
      <trkpt lat="42.5497009791433811187744140625" lon="0.07374607957899570465087890625">
        <ele>827.79998779296875</ele>
        <time>2020-08-16T10:28:11.000Z</time>
      </trkpt>
      <trkpt lat="42.5498548708856105804443359375" lon="0.07372026331722736358642578125">
        <ele>828.20001220703125</ele>
        <time>2020-08-16T10:28:17.000Z</time>
      </trkpt>
      <trkpt lat="42.5499044917523860931396484375" lon="0.07354684174060821533203125">
        <ele>828.79998779296875</ele>
        <time>2020-08-16T10:28:21.000Z</time>
      </trkpt>
      <trkpt lat="42.54991312511265277862548828125" lon="0.07349579595029354095458984375">
        <ele>829.20001220703125</ele>
        <time>2020-08-16T10:28:22.000Z</time>
      </trkpt>
      <trkpt lat="42.5499670207500457763671875" lon="0.07321131415665149688720703125">
        <ele>829.79998779296875</ele>
        <time>2020-08-16T10:28:28.000Z</time>
      </trkpt>
      <trkpt lat="42.55000683479011058807373046875" lon="0.073030181229114532470703125">
        <ele>830</ele>
        <time>2020-08-16T10:28:33.000Z</time>
      </trkpt>
      <trkpt lat="42.55000524222850799560546875" lon="0.072985924780368804931640625">
        <ele>830.20001220703125</ele>
        <time>2020-08-16T10:28:34.000Z</time>
      </trkpt>
      <trkpt lat="42.550012283027172088623046875" lon="0.0728137604892253875732421875">
        <ele>830.5999755859375</ele>
        <time>2020-08-16T10:28:39.000Z</time>
      </trkpt>
      <trkpt lat="42.55000985227525234222412109375" lon="0.0727621279656887054443359375">
        <ele>830.79998779296875</ele>
        <time>2020-08-16T10:28:41.000Z</time>
      </trkpt>
      <trkpt lat="42.549992501735687255859375" lon="0.07266045548021793365478515625">
        <ele>831.20001220703125</ele>
        <time>2020-08-16T10:28:45.000Z</time>
      </trkpt>
      <trkpt lat="42.549990154802799224853515625" lon="0.07262692786753177642822265625">
        <ele>831.20001220703125</ele>
        <time>2020-08-16T10:28:46.000Z</time>
      </trkpt>
      <trkpt lat="42.5499859638512134552001953125" lon="0.0725269317626953125">
        <ele>831.79998779296875</ele>
        <time>2020-08-16T10:28:49.000Z</time>
      </trkpt>
      <trkpt lat="42.5499826110899448394775390625" lon="0.07246783934533596038818359375">
        <ele>832.20001220703125</ele>
        <time>2020-08-16T10:28:51.000Z</time>
      </trkpt>
      <trkpt lat="42.54999107681214809417724609375" lon="0.0724352337419986724853515625">
        <ele>832.4000244140625</ele>
        <time>2020-08-16T10:28:52.000Z</time>
      </trkpt>
      <trkpt lat="42.55001136101782321929931640625" lon="0.0722471438348293304443359375">
        <ele>833</ele>
        <time>2020-08-16T10:28:58.000Z</time>
      </trkpt>
      <trkpt lat="42.55003483034670352935791015625" lon="0.072117559611797332763671875">
        <ele>833.5999755859375</ele>
        <time>2020-08-16T10:29:02.000Z</time>
      </trkpt>
      <trkpt lat="42.55005628801882266998291015625" lon="0.0720560364425182342529296875">
        <ele>833.79998779296875</ele>
        <time>2020-08-16T10:29:04.000Z</time>
      </trkpt>
      <trkpt lat="42.550069279968738555908203125" lon="0.0720225088298320770263671875">
        <ele>834</ele>
        <time>2020-08-16T10:29:05.000Z</time>
      </trkpt>
      <trkpt lat="42.55017832852900028228759765625" lon="0.0717690400779247283935546875">
        <ele>834.4000244140625</ele>
        <time>2020-08-16T10:29:13.000Z</time>
      </trkpt>
      <trkpt lat="42.5502555258572101593017578125" lon="0.0715524516999721527099609375">
        <ele>835.4000244140625</ele>
        <time>2020-08-16T10:29:20.000Z</time>
      </trkpt>
      <trkpt lat="42.55026885308325290679931640625" lon="0.07152437232434749603271484375">
        <ele>835.5999755859375</ele>
        <time>2020-08-16T10:29:21.000Z</time>
      </trkpt>
      <trkpt lat="42.55031101405620574951171875" lon="0.07140803150832653045654296875">
        <ele>836.20001220703125</ele>
        <time>2020-08-16T10:29:25.000Z</time>
      </trkpt>
      <trkpt lat="42.55036868155002593994140625" lon="0.0712292455136775970458984375">
        <ele>836.5999755859375</ele>
        <time>2020-08-16T10:29:31.000Z</time>
      </trkpt>
      <trkpt lat="42.55042500793933868408203125" lon="0.071090273559093475341796875">
        <ele>837.20001220703125</ele>
        <time>2020-08-16T10:29:36.000Z</time>
      </trkpt>
      <trkpt lat="42.5504345633089542388916015625" lon="0.07106286473572254180908203125">
        <ele>837.20001220703125</ele>
        <time>2020-08-16T10:29:37.000Z</time>
      </trkpt>
      <trkpt lat="42.550476975739002227783203125" lon="0.07094644010066986083984375">
        <ele>837.5999755859375</ele>
        <time>2020-08-16T10:29:41.000Z</time>
      </trkpt>
      <trkpt lat="42.55049030296504497528076171875" lon="0.07091752253472805023193359375">
        <ele>838</ele>
        <time>2020-08-16T10:29:42.000Z</time>
      </trkpt>
      <trkpt lat="42.55053766071796417236328125" lon="0.0707625411450862884521484375">
        <ele>838.4000244140625</ele>
        <time>2020-08-16T10:29:47.000Z</time>
      </trkpt>
      <trkpt lat="42.55054495297372341156005859375" lon="0.070729516446590423583984375">
        <ele>838.5999755859375</ele>
        <time>2020-08-16T10:29:48.000Z</time>
      </trkpt>
      <trkpt lat="42.5505747087299823760986328125" lon="0.070602111518383026123046875">
        <ele>839</ele>
        <time>2020-08-16T10:29:52.000Z</time>
      </trkpt>
      <trkpt lat="42.55058216862380504608154296875" lon="0.07046992890536785125732421875">
        <ele>839.79998779296875</ele>
        <time>2020-08-16T10:29:56.000Z</time>
      </trkpt>
      <trkpt lat="42.55057697184383869171142578125" lon="0.070338584482669830322265625">
        <ele>839.79998779296875</ele>
        <time>2020-08-16T10:30:00.000Z</time>
      </trkpt>
      <trkpt lat="42.550586275756359100341796875" lon="0.0701043941080570220947265625">
        <ele>840.5999755859375</ele>
        <time>2020-08-16T10:30:07.000Z</time>
      </trkpt>
      <trkpt lat="42.55059507675468921661376953125" lon="0.0699035637080669403076171875">
        <ele>841.5999755859375</ele>
        <time>2020-08-16T10:30:13.000Z</time>
      </trkpt>
      <trkpt lat="42.55059725604951381683349609375" lon="0.06987087428569793701171875">
        <ele>841.5999755859375</ele>
        <time>2020-08-16T10:30:14.000Z</time>
      </trkpt>
      <trkpt lat="42.55065567791461944580078125" lon="0.06966426037251949310302734375">
        <ele>842.4000244140625</ele>
        <time>2020-08-16T10:30:21.000Z</time>
      </trkpt>
      <trkpt lat="42.55070798099040985107421875" lon="0.0695609115064144134521484375">
        <ele>843.20001220703125</ele>
        <time>2020-08-16T10:30:25.000Z</time>
      </trkpt>
      <trkpt lat="42.55072080530226230621337890625" lon="0.0694975443184375762939453125">
        <ele>843.4000244140625</ele>
        <time>2020-08-16T10:30:27.000Z</time>
      </trkpt>
      <trkpt lat="42.55075885914266109466552734375" lon="0.06934273056685924530029296875">
        <ele>843.5999755859375</ele>
        <time>2020-08-16T10:30:32.000Z</time>
      </trkpt>
      <trkpt lat="42.55081451497972011566162109375" lon="0.06905036978423595428466796875">
        <ele>844.79998779296875</ele>
        <time>2020-08-16T10:30:41.000Z</time>
      </trkpt>
      <trkpt lat="42.55084116943180561065673828125" lon="0.06888222880661487579345703125">
        <ele>845.20001220703125</ele>
        <time>2020-08-16T10:30:47.000Z</time>
      </trkpt>
      <trkpt lat="42.5508414208889007568359375" lon="0.06885440088808536529541015625">
        <ele>845.4000244140625</ele>
        <time>2020-08-16T10:30:48.000Z</time>
      </trkpt>
      <trkpt lat="42.5508379004895687103271484375" lon="0.068764798343181610107421875">
        <ele>845.79998779296875</ele>
        <time>2020-08-16T10:30:51.000Z</time>
      </trkpt>
      <trkpt lat="42.55083010531961917877197265625" lon="0.06873588077723979949951171875">
        <ele>845.79998779296875</ele>
        <time>2020-08-16T10:30:52.000Z</time>
      </trkpt>
      <trkpt lat="42.55083538591861724853515625" lon="0.06854929961264133453369140625">
        <ele>846.79998779296875</ele>
        <time>2020-08-16T10:30:58.000Z</time>
      </trkpt>
      <trkpt lat="42.55084217526018619537353515625" lon="0.0684860162436962127685546875">
        <ele>847.20001220703125</ele>
        <time>2020-08-16T10:31:00.000Z</time>
      </trkpt>
      <trkpt lat="42.55086958408355712890625" lon="0.0683237425982952117919921875">
        <ele>847.79998779296875</ele>
        <time>2020-08-16T10:31:05.000Z</time>
      </trkpt>
      <trkpt lat="42.55090084858238697052001953125" lon="0.06811528466641902923583984375">
        <ele>848</ele>
        <time>2020-08-16T10:31:11.000Z</time>
      </trkpt>
      <trkpt lat="42.55097997374832630157470703125" lon="0.06793054752051830291748046875">
        <ele>848.4000244140625</ele>
        <time>2020-08-16T10:31:17.000Z</time>
      </trkpt>
      <trkpt lat="42.551095895469188690185546875" lon="0.06777699105441570281982421875">
        <ele>848.79998779296875</ele>
        <time>2020-08-16T10:31:23.000Z</time>
      </trkpt>
      <trkpt lat="42.5511778704822063446044921875" lon="0.06760348565876483917236328125">
        <ele>849.20001220703125</ele>
        <time>2020-08-16T10:31:29.000Z</time>
      </trkpt>
      <trkpt lat="42.551274597644805908203125" lon="0.067470967769622802734375">
        <ele>849.79998779296875</ele>
        <time>2020-08-16T10:31:34.000Z</time>
      </trkpt>
      <trkpt lat="42.55141608417034149169921875" lon="0.06739092059433460235595703125">
        <ele>850.4000244140625</ele>
        <time>2020-08-16T10:31:40.000Z</time>
      </trkpt>
      <trkpt lat="42.55167751573026180267333984375" lon="0.06726804189383983612060546875">
        <ele>850.4000244140625</ele>
        <time>2020-08-16T10:31:49.000Z</time>
      </trkpt>
      <trkpt lat="42.55187968723475933074951171875" lon="0.06709872744977474212646484375">
        <ele>850.5999755859375</ele>
        <time>2020-08-16T10:31:56.000Z</time>
      </trkpt>
      <trkpt lat="42.55203022621572017669677734375" lon="0.06698884069919586181640625">
        <ele>850.79998779296875</ele>
        <time>2020-08-16T10:32:01.000Z</time>
      </trkpt>
      <trkpt lat="42.55228905938565731048583984375" lon="0.06695103831589221954345703125">
        <ele>850.5999755859375</ele>
        <time>2020-08-16T10:32:07.000Z</time>
      </trkpt>
      <trkpt lat="42.55251637659966945648193359375" lon="0.06691751070320606231689453125">
        <ele>850</ele>
        <time>2020-08-16T10:32:12.000Z</time>
      </trkpt>
      <trkpt lat="42.5525645725429058074951171875" lon="0.06690946407616138458251953125">
        <ele>850</ele>
        <time>2020-08-16T10:32:13.000Z</time>
      </trkpt>
      <trkpt lat="42.5528901256620883941650390625" lon="0.0668424926698207855224609375">
        <ele>849.4000244140625</ele>
        <time>2020-08-16T10:32:19.000Z</time>
      </trkpt>
      <trkpt lat="42.55305818282067775726318359375" lon="0.0668274052441120147705078125">
        <ele>849.20001220703125</ele>
        <time>2020-08-16T10:32:22.000Z</time>
      </trkpt>
      <trkpt lat="42.55315926857292652130126953125" lon="0.06679966114461421966552734375">
        <ele>849</ele>
        <time>2020-08-16T10:32:25.000Z</time>
      </trkpt>
      <trkpt lat="42.55326907150447368621826171875" lon="0.06667376495897769927978515625">
        <ele>850</ele>
        <time>2020-08-16T10:32:30.000Z</time>
      </trkpt>
      <trkpt lat="42.5532857514917850494384765625" lon="0.06664216518402099609375">
        <ele>850.20001220703125</ele>
        <time>2020-08-16T10:32:31.000Z</time>
      </trkpt>
      <trkpt lat="42.5533246435225009918212890625" lon="0.06634972058236598968505859375">
        <ele>851</ele>
        <time>2020-08-16T10:32:36.000Z</time>
      </trkpt>
      <trkpt lat="42.55332221277058124542236328125" lon="0.0662410072982311248779296875">
        <ele>851.20001220703125</ele>
        <time>2020-08-16T10:32:38.000Z</time>
      </trkpt>
      <trkpt lat="42.55331818945705890655517578125" lon="0.0662021152675151824951171875">
        <ele>851.20001220703125</ele>
        <time>2020-08-16T10:32:39.000Z</time>
      </trkpt>
      <trkpt lat="42.5533145852386951446533203125" lon="0.0661223195493221282958984375">
        <ele>851.5999755859375</ele>
        <time>2020-08-16T10:32:41.000Z</time>
      </trkpt>
      <trkpt lat="42.55331064574420452117919921875" lon="0.0660908035933971405029296875">
        <ele>851.79998779296875</ele>
        <time>2020-08-16T10:32:42.000Z</time>
      </trkpt>
      <trkpt lat="42.55329974927008152008056640625" lon="0.06599047221243381500244140625">
        <ele>852.5999755859375</ele>
        <time>2020-08-16T10:32:45.000Z</time>
      </trkpt>
      <trkpt lat="42.55328021943569183349609375" lon="0.06589047610759735107421875">
        <ele>852.79998779296875</ele>
        <time>2020-08-16T10:32:48.000Z</time>
      </trkpt>
      <trkpt lat="42.55326001904904842376708984375" lon="0.06572627462446689605712890625">
        <ele>853.20001220703125</ele>
        <time>2020-08-16T10:32:53.000Z</time>
      </trkpt>
      <trkpt lat="42.5532572530210018157958984375" lon="0.065667517483234405517578125">
        <ele>853.5999755859375</ele>
        <time>2020-08-16T10:32:55.000Z</time>
      </trkpt>
      <trkpt lat="42.55322213284671306610107421875" lon="0.06555913947522640228271484375">
        <ele>854</ele>
        <time>2020-08-16T10:32:59.000Z</time>
      </trkpt>
      <trkpt lat="42.5531811453402042388916015625" lon="0.0654809363186359405517578125">
        <ele>854.5999755859375</ele>
        <time>2020-08-16T10:33:02.000Z</time>
      </trkpt>
      <trkpt lat="42.55317385308444499969482421875" lon="0.06545872427523136138916015625">
        <ele>854.5999755859375</ele>
        <time>2020-08-16T10:33:03.000Z</time>
      </trkpt>
      <trkpt lat="42.55312196910381317138671875" lon="0.0652807764708995819091796875">
        <ele>855.4000244140625</ele>
        <time>2020-08-16T10:33:10.000Z</time>
      </trkpt>
      <trkpt lat="42.55311635322868824005126953125" lon="0.06523526273667812347412109375">
        <ele>855.4000244140625</ele>
        <time>2020-08-16T10:33:12.000Z</time>
      </trkpt>
      <trkpt lat="42.55313873291015625" lon="0.065159909427165985107421875">
        <ele>855.79998779296875</ele>
        <time>2020-08-16T10:33:15.000Z</time>
      </trkpt>
      <trkpt lat="42.55318039096891880035400390625" lon="0.06504356861114501953125">
        <ele>856.79998779296875</ele>
        <time>2020-08-16T10:33:20.000Z</time>
      </trkpt>
      <trkpt lat="42.5531868450343608856201171875" lon="0.065017081797122955322265625">
        <ele>857</ele>
        <time>2020-08-16T10:33:21.000Z</time>
      </trkpt>
      <trkpt lat="42.55322934128344058990478515625" lon="0.0648248009383678436279296875">
        <ele>858</ele>
        <time>2020-08-16T10:33:28.000Z</time>
      </trkpt>
      <trkpt lat="42.5532616116106510162353515625" lon="0.0647847354412078857421875">
        <ele>858.4000244140625</ele>
        <time>2020-08-16T10:33:30.000Z</time>
      </trkpt>
      <trkpt lat="42.55336747504770755767822265625" lon="0.06467870436608791351318359375">
        <ele>859.4000244140625</ele>
        <time>2020-08-16T10:33:36.000Z</time>
      </trkpt>
      <trkpt lat="42.5533948838710784912109375" lon="0.06463922560214996337890625">
        <ele>859.79998779296875</ele>
        <time>2020-08-16T10:33:38.000Z</time>
      </trkpt>
      <trkpt lat="42.55343637429177761077880859375" lon="0.0645740143954753875732421875">
        <ele>860.20001220703125</ele>
        <time>2020-08-16T10:33:41.000Z</time>
      </trkpt>
      <trkpt lat="42.55353544838726520538330078125" lon="0.064408220350742340087890625">
        <ele>860.79998779296875</ele>
        <time>2020-08-16T10:33:48.000Z</time>
      </trkpt>
      <trkpt lat="42.553627900779247283935546875" lon="0.06428106687963008880615234375">
        <ele>861.5999755859375</ele>
        <time>2020-08-16T10:33:54.000Z</time>
      </trkpt>
      <trkpt lat="42.5536398030817508697509765625" lon="0.0642585195600986480712890625">
        <ele>861.5999755859375</ele>
        <time>2020-08-16T10:33:55.000Z</time>
      </trkpt>
      <trkpt lat="42.5537088699638843536376953125" lon="0.06413153372704982757568359375">
        <ele>862.79998779296875</ele>
        <time>2020-08-16T10:34:01.000Z</time>
      </trkpt>
      <trkpt lat="42.55375354550778865814208984375" lon="0.06406330503523349761962890625">
        <ele>863.20001220703125</ele>
        <time>2020-08-16T10:34:04.000Z</time>
      </trkpt>
      <trkpt lat="42.55381288938224315643310546875" lon="0.06396020762622356414794921875">
        <ele>864</ele>
        <time>2020-08-16T10:34:09.000Z</time>
      </trkpt>
      <trkpt lat="42.5538791902363300323486328125" lon="0.06386934779584407806396484375">
        <ele>864.79998779296875</ele>
        <time>2020-08-16T10:34:13.000Z</time>
      </trkpt>
      <trkpt lat="42.55396418273448944091796875" lon="0.06373398005962371826171875">
        <ele>865.4000244140625</ele>
        <time>2020-08-16T10:34:19.000Z</time>
      </trkpt>
      <trkpt lat="42.55404087714850902557373046875" lon="0.06358603946864604949951171875">
        <ele>866.4000244140625</ele>
        <time>2020-08-16T10:34:25.000Z</time>
      </trkpt>
      <trkpt lat="42.55406199954450130462646484375" lon="0.06353792734444141387939453125">
        <ele>866.5999755859375</ele>
        <time>2020-08-16T10:34:27.000Z</time>
      </trkpt>
      <trkpt lat="42.55412268452346324920654296875" lon="0.06342125125229358673095703125">
        <ele>867.4000244140625</ele>
        <time>2020-08-16T10:34:33.000Z</time>
      </trkpt>
      <trkpt lat="42.55419610999524593353271484375" lon="0.06327372975647449493408203125">
        <ele>868</ele>
        <time>2020-08-16T10:34:39.000Z</time>
      </trkpt>
      <trkpt lat="42.55420734174549579620361328125" lon="0.0632536970078945159912109375">
        <ele>868.20001220703125</ele>
        <time>2020-08-16T10:34:40.000Z</time>
      </trkpt>
      <trkpt lat="42.554267607629299163818359375" lon="0.063142217695713043212890625">
        <ele>869</ele>
        <time>2020-08-16T10:34:45.000Z</time>
      </trkpt>
      <trkpt lat="42.5542788393795490264892578125" lon="0.06311782635748386383056640625">
        <ele>869</ele>
        <time>2020-08-16T10:34:46.000Z</time>
      </trkpt>
      <trkpt lat="42.55434103310108184814453125" lon="0.06298455409705638885498046875">
        <ele>869.79998779296875</ele>
        <time>2020-08-16T10:34:51.000Z</time>
      </trkpt>
      <trkpt lat="42.55434907972812652587890625" lon="0.06295613944530487060546875">
        <ele>870.20001220703125</ele>
        <time>2020-08-16T10:34:52.000Z</time>
      </trkpt>
      <trkpt lat="42.554361484944820404052734375" lon="0.0628186762332916259765625">
        <ele>870.5999755859375</ele>
        <time>2020-08-16T10:34:57.000Z</time>
      </trkpt>
      <trkpt lat="42.5543556176126003265380859375" lon="0.06281071342527866363525390625">
        <ele>871</ele>
        <time>2020-08-16T10:34:59.000Z</time>
      </trkpt>
      <trkpt lat="42.5543536059558391571044921875" lon="0.06281289272010326385498046875">
        <ele>871.20001220703125</ele>
        <time>2020-08-16T10:39:20.000Z</time>
      </trkpt>
      <trkpt lat="42.5543532706797122955322265625" lon="0.06281289272010326385498046875">
        <ele>871</ele>
        <time>2020-08-16T10:39:21.000Z</time>
      </trkpt>
      <trkpt lat="42.5543532706797122955322265625" lon="0.0628128089010715484619140625">
        <ele>871</ele>
        <time>2020-08-16T10:39:22.000Z</time>
      </trkpt>
      <trkpt lat="42.554328627884387969970703125" lon="0.06276126019656658172607421875">
        <ele>871.20001220703125</ele>
        <time>2020-08-16T10:39:26.000Z</time>
      </trkpt>
      <trkpt lat="42.5542818568646907806396484375" lon="0.06265103816986083984375">
        <ele>872</ele>
        <time>2020-08-16T10:39:32.000Z</time>
      </trkpt>
      <trkpt lat="42.5542302243411540985107421875" lon="0.062515921890735626220703125">
        <ele>873</ele>
        <time>2020-08-16T10:39:38.000Z</time>
      </trkpt>
      <trkpt lat="42.55422058515250682830810546875" lon="0.06249320693314075469970703125">
        <ele>873.20001220703125</ele>
        <time>2020-08-16T10:39:39.000Z</time>
      </trkpt>
      <trkpt lat="42.55420080386102199554443359375" lon="0.062356330454349517822265625">
        <ele>874</ele>
        <time>2020-08-16T10:39:45.000Z</time>
      </trkpt>
      <trkpt lat="42.5542067550122737884521484375" lon="0.0623132474720478057861328125">
        <ele>874.20001220703125</ele>
        <time>2020-08-16T10:39:47.000Z</time>
      </trkpt>
      <trkpt lat="42.55423550494015216827392578125" lon="0.06222900934517383575439453125">
        <ele>875.4000244140625</ele>
        <time>2020-08-16T10:39:51.000Z</time>
      </trkpt>
      <trkpt lat="42.5542526878416538238525390625" lon="0.06216212175786495208740234375">
        <ele>875.5999755859375</ele>
        <time>2020-08-16T10:39:54.000Z</time>
      </trkpt>
      <trkpt lat="42.55425729788839817047119140625" lon="0.06212239153683185577392578125">
        <ele>875.79998779296875</ele>
        <time>2020-08-16T10:39:56.000Z</time>
      </trkpt>
      <trkpt lat="42.55426702089607715606689453125" lon="0.0620661489665508270263671875">
        <ele>876.5999755859375</ele>
        <time>2020-08-16T10:39:59.000Z</time>
      </trkpt>
      <trkpt lat="42.5542982853949069976806640625" lon="0.06195592693984508514404296875">
        <ele>877</ele>
        <time>2020-08-16T10:40:04.000Z</time>
      </trkpt>
      <trkpt lat="42.55430138669908046722412109375" lon="0.06190605461597442626953125">
        <ele>877.4000244140625</ele>
        <time>2020-08-16T10:40:06.000Z</time>
      </trkpt>
      <trkpt lat="42.554305829107761383056640625" lon="0.06181527860462665557861328125">
        <ele>878</ele>
        <time>2020-08-16T10:40:10.000Z</time>
      </trkpt>
      <trkpt lat="42.55428395234048366546630859375" lon="0.0617006979882717132568359375">
        <ele>878.79998779296875</ele>
        <time>2020-08-16T10:40:15.000Z</time>
      </trkpt>
      <trkpt lat="42.5542764924466609954833984375" lon="0.0616785697638988494873046875">
        <ele>879</ele>
        <time>2020-08-16T10:40:16.000Z</time>
      </trkpt>
      <trkpt lat="42.55424355156719684600830078125" lon="0.0615350715816020965576171875">
        <ele>880</ele>
        <time>2020-08-16T10:40:22.000Z</time>
      </trkpt>
      <trkpt lat="42.554232738912105560302734375" lon="0.0614646635949611663818359375">
        <ele>880.20001220703125</ele>
        <time>2020-08-16T10:40:25.000Z</time>
      </trkpt>
      <trkpt lat="42.55422544665634632110595703125" lon="0.06142082624137401580810546875">
        <ele>880.5999755859375</ele>
        <time>2020-08-16T10:40:27.000Z</time>
      </trkpt>
      <trkpt lat="42.5542154721915721893310546875" lon="0.0613305531442165374755859375">
        <ele>881.4000244140625</ele>
        <time>2020-08-16T10:40:31.000Z</time>
      </trkpt>
      <trkpt lat="42.55421823821961879730224609375" lon="0.061308257281780242919921875">
        <ele>881.5999755859375</ele>
        <time>2020-08-16T10:40:32.000Z</time>
      </trkpt>
      <trkpt lat="42.5542188249528408050537109375" lon="0.06128436885774135589599609375">
        <ele>881.79998779296875</ele>
        <time>2020-08-16T10:40:33.000Z</time>
      </trkpt>
      <trkpt lat="42.55418990738689899444580078125" lon="0.06110885180532932281494140625">
        <ele>882.5999755859375</ele>
        <time>2020-08-16T10:40:40.000Z</time>
      </trkpt>
      <trkpt lat="42.554177083075046539306640625" lon="0.0610402040183544158935546875">
        <ele>883</ele>
        <time>2020-08-16T10:40:43.000Z</time>
      </trkpt>
      <trkpt lat="42.5541578046977519989013671875" lon="0.0609505176544189453125">
        <ele>883.79998779296875</ele>
        <time>2020-08-16T10:40:47.000Z</time>
      </trkpt>
      <trkpt lat="42.5541517697274684906005859375" lon="0.06080877967178821563720703125">
        <ele>885</ele>
        <time>2020-08-16T10:40:53.000Z</time>
      </trkpt>
      <trkpt lat="42.55415554158389568328857421875" lon="0.06078346632421016693115234375">
        <ele>885</ele>
        <time>2020-08-16T10:40:54.000Z</time>
      </trkpt>
      <trkpt lat="42.5541485846042633056640625" lon="0.0607431493699550628662109375">
        <ele>885.4000244140625</ele>
        <time>2020-08-16T10:40:57.000Z</time>
      </trkpt>
      <trkpt lat="42.55413659848272800445556640625" lon="0.0606643594801425933837890625">
        <ele>886.4000244140625</ele>
        <time>2020-08-16T10:41:03.000Z</time>
      </trkpt>
      <trkpt lat="42.554176412522792816162109375" lon="0.0605962984263896942138671875">
        <ele>886.79998779296875</ele>
        <time>2020-08-16T10:41:06.000Z</time>
      </trkpt>
      <trkpt lat="42.55423642694950103759765625" lon="0.0605656206607818603515625">
        <ele>887.20001220703125</ele>
        <time>2020-08-16T10:41:09.000Z</time>
      </trkpt>
      <trkpt lat="42.55424288101494312286376953125" lon="0.06039672531187534332275390625">
        <ele>888.4000244140625</ele>
        <time>2020-08-16T10:41:17.000Z</time>
      </trkpt>
      <trkpt lat="42.55425914190709590911865234375" lon="0.060266889631748199462890625">
        <ele>889.20001220703125</ele>
        <time>2020-08-16T10:41:22.000Z</time>
      </trkpt>
      <trkpt lat="42.5542345829308032989501953125" lon="0.06011970341205596923828125">
        <ele>890</ele>
        <time>2020-08-16T10:41:28.000Z</time>
      </trkpt>
      <trkpt lat="42.55423969589173793792724609375" lon="0.0601135008037090301513671875">
        <ele>890.20001220703125</ele>
        <time>2020-08-16T10:41:29.000Z</time>
      </trkpt>
      <trkpt lat="42.5543817691504955291748046875" lon="0.0600772909820079803466796875">
        <ele>890.79998779296875</ele>
        <time>2020-08-16T10:41:32.000Z</time>
      </trkpt>
      <trkpt lat="42.5546053983271121978759765625" lon="0.05996723659336566925048828125">
        <ele>891.4000244140625</ele>
        <time>2020-08-16T10:41:36.000Z</time>
      </trkpt>
      <trkpt lat="42.554616965353488922119140625" lon="0.0599465332925319671630859375">
        <ele>891.5999755859375</ele>
        <time>2020-08-16T10:41:37.000Z</time>
      </trkpt>
      <trkpt lat="42.5546395964920520782470703125" lon="0.0598409213125705718994140625">
        <ele>892.20001220703125</ele>
        <time>2020-08-16T10:41:42.000Z</time>
      </trkpt>
      <trkpt lat="42.55464772693812847137451171875" lon="0.0597423501312732696533203125">
        <ele>893.20001220703125</ele>
        <time>2020-08-16T10:41:46.000Z</time>
      </trkpt>
      <trkpt lat="42.5546486489474773406982421875" lon="0.05967454053461551666259765625">
        <ele>893.4000244140625</ele>
        <time>2020-08-16T10:41:49.000Z</time>
      </trkpt>
      <trkpt lat="42.55465040914714336395263671875" lon="0.05956239067018032073974609375">
        <ele>894.4000244140625</ele>
        <time>2020-08-16T10:41:54.000Z</time>
      </trkpt>
      <trkpt lat="42.5546352379024028778076171875" lon="0.0594429485499858856201171875">
        <ele>895</ele>
        <time>2020-08-16T10:41:59.000Z</time>
      </trkpt>
      <trkpt lat="42.55461704917252063751220703125" lon="0.0593447126448154449462890625">
        <ele>895.5999755859375</ele>
        <time>2020-08-16T10:42:03.000Z</time>
      </trkpt>
      <trkpt lat="42.5545993633568286895751953125" lon="0.05922862328588962554931640625">
        <ele>896.4000244140625</ele>
        <time>2020-08-16T10:42:08.000Z</time>
      </trkpt>
      <trkpt lat="42.554596178233623504638671875" lon="0.05920683033764362335205078125">
        <ele>896.4000244140625</ele>
        <time>2020-08-16T10:42:09.000Z</time>
      </trkpt>
      <trkpt lat="42.554595507681369781494140625" lon="0.05906634964048862457275390625">
        <ele>897.79998779296875</ele>
        <time>2020-08-16T10:42:15.000Z</time>
      </trkpt>
      <trkpt lat="42.55459927953779697418212890625" lon="0.059041120111942291259765625">
        <ele>897.79998779296875</ele>
        <time>2020-08-16T10:42:16.000Z</time>
      </trkpt>
      <trkpt lat="42.55461403168737888336181640625" lon="0.05886174738407135009765625">
        <ele>898.5999755859375</ele>
        <time>2020-08-16T10:42:24.000Z</time>
      </trkpt>
      <trkpt lat="42.55461671389639377593994140625" lon="0.0587891601026058197021484375">
        <ele>899.20001220703125</ele>
        <time>2020-08-16T10:42:27.000Z</time>
      </trkpt>
      <trkpt lat="42.5546285323798656463623046875" lon="0.05864943377673625946044921875">
        <ele>900.20001220703125</ele>
        <time>2020-08-16T10:42:33.000Z</time>
      </trkpt>
      <trkpt lat="42.5546340644359588623046875" lon="0.0586047582328319549560546875">
        <ele>900.5999755859375</ele>
        <time>2020-08-16T10:42:35.000Z</time>
      </trkpt>
      <trkpt lat="42.55464253015816211700439453125" lon="0.058540888130664825439453125">
        <ele>901.4000244140625</ele>
        <time>2020-08-16T10:42:38.000Z</time>
      </trkpt>
      <trkpt lat="42.55465778522193431854248046875" lon="0.058506019413471221923828125">
        <ele>901.5999755859375</ele>
        <time>2020-08-16T10:42:40.000Z</time>
      </trkpt>
      <trkpt lat="42.5546811707317829132080078125" lon="0.05844944156706333160400390625">
        <ele>901.79998779296875</ele>
        <time>2020-08-16T10:42:43.000Z</time>
      </trkpt>
      <trkpt lat="42.55472618155181407928466796875" lon="0.058353133499622344970703125">
        <ele>902.79998779296875</ele>
        <time>2020-08-16T10:42:48.000Z</time>
      </trkpt>
      <trkpt lat="42.5547556020319461822509765625" lon="0.0582798756659030914306640625">
        <ele>903.4000244140625</ele>
        <time>2020-08-16T10:42:52.000Z</time>
      </trkpt>
      <trkpt lat="42.5547804124653339385986328125" lon="0.05823503248393535614013671875">
        <ele>904</ele>
        <time>2020-08-16T10:42:55.000Z</time>
      </trkpt>
      <trkpt lat="42.55482793785631656646728515625" lon="0.0581521354615688323974609375">
        <ele>904.5999755859375</ele>
        <time>2020-08-16T10:43:00.000Z</time>
      </trkpt>
      <trkpt lat="42.554838918149471282958984375" lon="0.0581328570842742919921875">
        <ele>904.5999755859375</ele>
        <time>2020-08-16T10:43:01.000Z</time>
      </trkpt>
      <trkpt lat="42.55484956316649913787841796875" lon="0.0581139139831066131591796875">
        <ele>904.79998779296875</ele>
        <time>2020-08-16T10:43:02.000Z</time>
      </trkpt>
      <trkpt lat="42.554906308650970458984375" lon="0.058007799088954925537109375">
        <ele>905.79998779296875</ele>
        <time>2020-08-16T10:43:08.000Z</time>
      </trkpt>
      <trkpt lat="42.55491192452609539031982421875" lon="0.05798776634037494659423828125">
        <ele>906</ele>
        <time>2020-08-16T10:43:09.000Z</time>
      </trkpt>
      <trkpt lat="42.55494855344295501708984375" lon="0.0578741915524005889892578125">
        <ele>906.5999755859375</ele>
        <time>2020-08-16T10:43:15.000Z</time>
      </trkpt>
      <trkpt lat="42.5550419278442859649658203125" lon="0.05776430480182170867919921875">
        <ele>906.5999755859375</ele>
        <time>2020-08-16T10:43:21.000Z</time>
      </trkpt>
      <trkpt lat="42.555178888142108917236328125" lon="0.0576361455023288726806640625">
        <ele>906.79998779296875</ele>
        <time>2020-08-16T10:43:28.000Z</time>
      </trkpt>
      <trkpt lat="42.55525977350771427154541015625" lon="0.0575439445674419403076171875">
        <ele>906.5999755859375</ele>
        <time>2020-08-16T10:43:33.000Z</time>
      </trkpt>
      <trkpt lat="42.55527310073375701904296875" lon="0.0575204752385616302490234375">
        <ele>906.5999755859375</ele>
        <time>2020-08-16T10:43:34.000Z</time>
      </trkpt>
      <trkpt lat="42.55532045848667621612548828125" lon="0.0572931580245494842529296875">
        <ele>906.20001220703125</ele>
        <time>2020-08-16T10:43:40.000Z</time>
      </trkpt>
      <trkpt lat="42.5553262419998645782470703125" lon="0.05718947388231754302978515625">
        <ele>906</ele>
        <time>2020-08-16T10:43:42.000Z</time>
      </trkpt>
      <trkpt lat="42.5553597696125507354736328125" lon="0.05704195238649845123291015625">
        <ele>905.20001220703125</ele>
        <time>2020-08-16T10:43:45.000Z</time>
      </trkpt>
      <trkpt lat="42.5553802214562892913818359375" lon="0.056993253529071807861328125">
        <ele>904.79998779296875</ele>
        <time>2020-08-16T10:43:46.000Z</time>
      </trkpt>
      <trkpt lat="42.555398829281330108642578125" lon="0.056941621005535125732421875">
        <ele>904.79998779296875</ele>
        <time>2020-08-16T10:43:47.000Z</time>
      </trkpt>
      <trkpt lat="42.5554167665541172027587890625" lon="0.05676786415278911590576171875">
        <ele>905</ele>
        <time>2020-08-16T10:43:50.000Z</time>
      </trkpt>
      <trkpt lat="42.55536035634577274322509765625" lon="0.0565464980900287628173828125">
        <ele>904.79998779296875</ele>
        <time>2020-08-16T10:43:54.000Z</time>
      </trkpt>
      <trkpt lat="42.5553352944552898406982421875" lon="0.05649897269904613494873046875">
        <ele>904.79998779296875</ele>
        <time>2020-08-16T10:43:55.000Z</time>
      </trkpt>
      <trkpt lat="42.55530905909836292266845703125" lon="0.05639721639454364776611328125">
        <ele>904.20001220703125</ele>
        <time>2020-08-16T10:43:57.000Z</time>
      </trkpt>
      <trkpt lat="42.55531358532607555389404296875" lon="0.05634985864162445068359375">
        <ele>904.4000244140625</ele>
        <time>2020-08-16T10:43:58.000Z</time>
      </trkpt>
      <trkpt lat="42.555391788482666015625" lon="0.056296549737453460693359375">
        <ele>904.4000244140625</ele>
        <time>2020-08-16T10:44:01.000Z</time>
      </trkpt>
      <trkpt lat="42.555481307208538055419921875" lon="0.05631423555314540863037109375">
        <ele>904.5999755859375</ele>
        <time>2020-08-16T10:44:05.000Z</time>
      </trkpt>
      <trkpt lat="42.55550117231905460357666015625" lon="0.05631624720990657806396484375">
        <ele>904.79998779296875</ele>
        <time>2020-08-16T10:44:06.000Z</time>
      </trkpt>
      <trkpt lat="42.55564634688198566436767578125" lon="0.05633267574012279510498046875">
        <ele>906</ele>
        <time>2020-08-16T10:44:12.000Z</time>
      </trkpt>
      <trkpt lat="42.5557161681354045867919921875" lon="0.056311972439289093017578125">
        <ele>906</ele>
        <time>2020-08-16T10:44:15.000Z</time>
      </trkpt>
      <trkpt lat="42.5557641126215457916259765625" lon="0.05626629106700420379638671875">
        <ele>906.4000244140625</ele>
        <time>2020-08-16T10:44:18.000Z</time>
      </trkpt>
      <trkpt lat="42.55577358417212963104248046875" lon="0.05624500103294849395751953125">
        <ele>906.5999755859375</ele>
        <time>2020-08-16T10:44:19.000Z</time>
      </trkpt>
      <trkpt lat="42.55581499077379703521728515625" lon="0.0561780296266078948974609375">
        <ele>906.79998779296875</ele>
        <time>2020-08-16T10:44:22.000Z</time>
      </trkpt>
      <trkpt lat="42.55584399215877056121826171875" lon="0.05613000132143497467041015625">
        <ele>907</ele>
        <time>2020-08-16T10:44:24.000Z</time>
      </trkpt>
      <trkpt lat="42.55587651394307613372802734375" lon="0.05605607293546199798583984375">
        <ele>907.4000244140625</ele>
        <time>2020-08-16T10:44:27.000Z</time>
      </trkpt>
      <trkpt lat="42.55589629523456096649169921875" lon="0.05600511096417903900146484375">
        <ele>907.79998779296875</ele>
        <time>2020-08-16T10:44:29.000Z</time>
      </trkpt>
      <trkpt lat="42.55590610206127166748046875" lon="0.05597962997853755950927734375">
        <ele>907.79998779296875</ele>
        <time>2020-08-16T10:44:30.000Z</time>
      </trkpt>
      <trkpt lat="42.555932588875293731689453125" lon="0.05593135021626949310302734375">
        <ele>908.20001220703125</ele>
        <time>2020-08-16T10:44:32.000Z</time>
      </trkpt>
      <trkpt lat="42.55599821917712688446044921875" lon="0.055764801800251007080078125">
        <ele>909</ele>
        <time>2020-08-16T10:44:39.000Z</time>
      </trkpt>
      <trkpt lat="42.55602135322988033294677734375" lon="0.05571794696152210235595703125">
        <ele>909.4000244140625</ele>
        <time>2020-08-16T10:44:41.000Z</time>
      </trkpt>
      <trkpt lat="42.55604096688330173492431640625" lon="0.0556680746376514434814453125">
        <ele>909.5999755859375</ele>
        <time>2020-08-16T10:44:43.000Z</time>
      </trkpt>
      <trkpt lat="42.55605018697679042816162109375" lon="0.05564351566135883331298828125">
        <ele>909.79998779296875</ele>
        <time>2020-08-16T10:44:44.000Z</time>
      </trkpt>
      <trkpt lat="42.55612746812403202056884765625" lon="0.05549850873649120330810546875">
        <ele>910.5999755859375</ele>
        <time>2020-08-16T10:44:50.000Z</time>
      </trkpt>
      <trkpt lat="42.5561361014842987060546875" lon="0.05547453649342060089111328125">
        <ele>910.79998779296875</ele>
        <time>2020-08-16T10:44:51.000Z</time>
      </trkpt>
      <trkpt lat="42.55619904957711696624755859375" lon="0.05532098002731800079345703125">
        <ele>911.4000244140625</ele>
        <time>2020-08-16T10:44:57.000Z</time>
      </trkpt>
      <trkpt lat="42.5562593154609203338623046875" lon="0.055215619504451751708984375">
        <ele>912</ele>
        <time>2020-08-16T10:45:01.000Z</time>
      </trkpt>
      <trkpt lat="42.55628873594105243682861328125" lon="0.0551701895892620086669921875">
        <ele>912.4000244140625</ele>
        <time>2020-08-16T10:45:03.000Z</time>
      </trkpt>
      <trkpt lat="42.556383199989795684814453125" lon="0.05504429340362548828125">
        <ele>913.5999755859375</ele>
        <time>2020-08-16T10:45:09.000Z</time>
      </trkpt>
      <trkpt lat="42.556420750916004180908203125" lon="0.0550136156380176544189453125">
        <ele>914</ele>
        <time>2020-08-16T10:45:11.000Z</time>
      </trkpt>
      <trkpt lat="42.55655377171933650970458984375" lon="0.0548979453742504119873046875">
        <ele>915</ele>
        <time>2020-08-16T10:45:18.000Z</time>
      </trkpt>
      <trkpt lat="42.55657338537275791168212890625" lon="0.05488445051014423370361328125">
        <ele>915</ele>
        <time>2020-08-16T10:45:19.000Z</time>
      </trkpt>
      <trkpt lat="42.556698359549045562744140625" lon="0.05479023791849613189697265625">
        <ele>916</ele>
        <time>2020-08-16T10:45:26.000Z</time>
      </trkpt>
      <trkpt lat="42.556715793907642364501953125" lon="0.05477732978761196136474609375">
        <ele>916.4000244140625</ele>
        <time>2020-08-16T10:45:27.000Z</time>
      </trkpt>
      <trkpt lat="42.55682601593434810638427734375" lon="0.0546967796981334686279296875">
        <ele>917.4000244140625</ele>
        <time>2020-08-16T10:45:33.000Z</time>
      </trkpt>
      <trkpt lat="42.55688670091331005096435546875" lon="0.05465981550514698028564453125">
        <ele>917.5999755859375</ele>
        <time>2020-08-16T10:45:36.000Z</time>
      </trkpt>
      <trkpt lat="42.55694487132132053375244140625" lon="0.0546240247786045074462890625">
        <ele>918.20001220703125</ele>
        <time>2020-08-16T10:45:39.000Z</time>
      </trkpt>
      <trkpt lat="42.55704964511096477508544921875" lon="0.0545459054410457611083984375">
        <ele>919</ele>
        <time>2020-08-16T10:45:46.000Z</time>
      </trkpt>
      <trkpt lat="42.55706909112632274627685546875" lon="0.05453559570014476776123046875">
        <ele>919</ele>
        <time>2020-08-16T10:45:47.000Z</time>
      </trkpt>
      <trkpt lat="42.55719758570194244384765625" lon="0.054444484412670135498046875">
        <ele>920</ele>
        <time>2020-08-16T10:45:54.000Z</time>
      </trkpt>
      <trkpt lat="42.5572359748184680938720703125" lon="0.054430402815341949462890625">
        <ele>920.4000244140625</ele>
        <time>2020-08-16T10:45:56.000Z</time>
      </trkpt>
      <trkpt lat="42.55731384269893169403076171875" lon="0.05441405810415744781494140625">
        <ele>920.79998779296875</ele>
        <time>2020-08-16T10:46:00.000Z</time>
      </trkpt>
      <trkpt lat="42.557435296475887298583984375" lon="0.054424703121185302734375">
        <ele>921.79998779296875</ele>
        <time>2020-08-16T10:46:06.000Z</time>
      </trkpt>
      <trkpt lat="42.557455413043498992919921875" lon="0.05443082191050052642822265625">
        <ele>922</ele>
        <time>2020-08-16T10:46:07.000Z</time>
      </trkpt>
      <trkpt lat="42.5575737655162811279296875" lon="0.0544811971485614776611328125">
        <ele>923</ele>
        <time>2020-08-16T10:46:13.000Z</time>
      </trkpt>
      <trkpt lat="42.55759161897003650665283203125" lon="0.05449150688946247100830078125">
        <ele>923</ele>
        <time>2020-08-16T10:46:14.000Z</time>
      </trkpt>
      <trkpt lat="42.55771650932729244232177734375" lon="0.054563172161579132080078125">
        <ele>924.4000244140625</ele>
        <time>2020-08-16T10:46:21.000Z</time>
      </trkpt>
      <trkpt lat="42.55773545242846012115478515625" lon="0.054572559893131256103515625">
        <ele>924.4000244140625</ele>
        <time>2020-08-16T10:46:22.000Z</time>
      </trkpt>
      <trkpt lat="42.55786822177469730377197265625" lon="0.05465026013553142547607421875">
        <ele>925.4000244140625</ele>
        <time>2020-08-16T10:46:29.000Z</time>
      </trkpt>
      <trkpt lat="42.55792790092527866363525390625" lon="0.05468110553920269012451171875">
        <ele>925.5999755859375</ele>
        <time>2020-08-16T10:46:32.000Z</time>
      </trkpt>
      <trkpt lat="42.5580483488738536834716796875" lon="0.05467884242534637451171875">
        <ele>926.4000244140625</ele>
        <time>2020-08-16T10:46:38.000Z</time>
      </trkpt>
      <trkpt lat="42.5581371970474720001220703125" lon="0.05457800813019275665283203125">
        <ele>926.79998779296875</ele>
        <time>2020-08-16T10:46:44.000Z</time>
      </trkpt>
      <trkpt lat="42.5581455789506435394287109375" lon="0.05440232343971729278564453125">
        <ele>926.4000244140625</ele>
        <time>2020-08-16T10:46:50.000Z</time>
      </trkpt>
      <trkpt lat="42.558080367743968963623046875" lon="0.05421004258096218109130859375">
        <ele>926.4000244140625</ele>
        <time>2020-08-16T10:46:56.000Z</time>
      </trkpt>
      <trkpt lat="42.5579772703349590301513671875" lon="0.053993873298168182373046875">
        <ele>926.4000244140625</ele>
        <time>2020-08-16T10:47:03.000Z</time>
      </trkpt>
      <trkpt lat="42.55792689509689807891845703125" lon="0.05380251444876194000244140625">
        <ele>926.20001220703125</ele>
        <time>2020-08-16T10:47:09.000Z</time>
      </trkpt>
      <trkpt lat="42.55790778435766696929931640625" lon="0.05365733988583087921142578125">
        <ele>926.20001220703125</ele>
        <time>2020-08-16T10:47:14.000Z</time>
      </trkpt>
      <trkpt lat="42.5579125620424747467041015625" lon="0.0535072200000286102294921875">
        <ele>926.4000244140625</ele>
        <time>2020-08-16T10:47:21.000Z</time>
      </trkpt>
      <trkpt lat="42.5579082034528255462646484375" lon="0.05348970182240009307861328125">
        <ele>926.4000244140625</ele>
        <time>2020-08-16T10:47:22.000Z</time>
      </trkpt>
      <trkpt lat="42.55789252929389476776123046875" lon="0.05344192497432231903076171875">
        <ele>926.79998779296875</ele>
        <time>2020-08-16T10:47:27.000Z</time>
      </trkpt>
      <trkpt lat="42.55786419846117496490478515625" lon="0.05327713675796985626220703125">
        <ele>927.4000244140625</ele>
        <time>2020-08-16T10:47:35.000Z</time>
      </trkpt>
      <trkpt lat="42.5578495301306247711181640625" lon="0.05320505239069461822509765625">
        <ele>927.5999755859375</ele>
        <time>2020-08-16T10:47:38.000Z</time>
      </trkpt>
      <trkpt lat="42.557838298380374908447265625" lon="0.05316431634128093719482421875">
        <ele>927.5999755859375</ele>
        <time>2020-08-16T10:47:40.000Z</time>
      </trkpt>
      <trkpt lat="42.55782346241176128387451171875" lon="0.053124167025089263916015625">
        <ele>927.5999755859375</ele>
        <time>2020-08-16T10:47:42.000Z</time>
      </trkpt>
      <trkpt lat="42.55779110826551914215087890625" lon="0.05304344929754734039306640625">
        <ele>927.79998779296875</ele>
        <time>2020-08-16T10:47:46.000Z</time>
      </trkpt>
      <trkpt lat="42.5577529706060886383056640625" lon="0.05282275378704071044921875">
        <ele>928.4000244140625</ele>
        <time>2020-08-16T10:47:54.000Z</time>
      </trkpt>
      <trkpt lat="42.5577774457633495330810546875" lon="0.0526646710932254791259765625">
        <ele>928.20001220703125</ele>
        <time>2020-08-16T10:47:59.000Z</time>
      </trkpt>
      <trkpt lat="42.5578270666301250457763671875" lon="0.0524886511266231536865234375">
        <ele>929.20001220703125</ele>
        <time>2020-08-16T10:48:05.000Z</time>
      </trkpt>
      <trkpt lat="42.55786000750958919525146484375" lon="0.052335262298583984375">
        <ele>930.20001220703125</ele>
        <time>2020-08-16T10:48:11.000Z</time>
      </trkpt>
      <trkpt lat="42.55786905996501445770263671875" lon="0.052223615348339080810546875">
        <ele>930.4000244140625</ele>
        <time>2020-08-16T10:48:18.000Z</time>
      </trkpt>
      <trkpt lat="42.5578672997653484344482421875" lon="0.05218044854700565338134765625">
        <ele>930.79998779296875</ele>
        <time>2020-08-16T10:48:25.000Z</time>
      </trkpt>
      <trkpt lat="42.55786889232695102691650390625" lon="0.05217977799475193023681640625">
        <ele>931</ele>
        <time>2020-08-16T10:48:41.000Z</time>
      </trkpt>
      <trkpt lat="42.55786143243312835693359375" lon="0.052153207361698150634765625">
        <ele>930.79998779296875</ele>
        <time>2020-08-16T10:48:43.000Z</time>
      </trkpt>
      <trkpt lat="42.55785732530057430267333984375" lon="0.0520869903266429901123046875">
        <ele>931</ele>
        <time>2020-08-16T10:48:46.000Z</time>
      </trkpt>
      <trkpt lat="42.5578575767576694488525390625" lon="0.0520320050418376922607421875">
        <ele>931</ele>
        <time>2020-08-16T10:48:48.000Z</time>
      </trkpt>
      <trkpt lat="42.55786771886050701141357421875" lon="0.05186679773032665252685546875">
        <ele>931.79998779296875</ele>
        <time>2020-08-16T10:48:54.000Z</time>
      </trkpt>
      <trkpt lat="42.557902671396732330322265625" lon="0.05162958987057209014892578125">
        <ele>932.79998779296875</ele>
        <time>2020-08-16T10:49:02.000Z</time>
      </trkpt>
      <trkpt lat="42.55794784985482692718505859375" lon="0.0515153445303440093994140625">
        <ele>933.20001220703125</ele>
        <time>2020-08-16T10:49:06.000Z</time>
      </trkpt>
      <trkpt lat="42.55798942409455776214599609375" lon="0.05143362097442150115966796875">
        <ele>933.4000244140625</ele>
        <time>2020-08-16T10:49:09.000Z</time>
      </trkpt>
      <trkpt lat="42.55810844711959362030029296875" lon="0.05131795071065425872802734375">
        <ele>934</ele>
        <time>2020-08-16T10:49:15.000Z</time>
      </trkpt>
      <trkpt lat="42.55821573548018932342529296875" lon="0.05124536342918872833251953125">
        <ele>934.79998779296875</ele>
        <time>2020-08-16T10:49:20.000Z</time>
      </trkpt>
      <trkpt lat="42.55827474407851696014404296875" lon="0.051205046474933624267578125">
        <ele>935</ele>
        <time>2020-08-16T10:49:23.000Z</time>
      </trkpt>
      <trkpt lat="42.5583956949412822723388671875" lon="0.05109884776175022125244140625">
        <ele>935.79998779296875</ele>
        <time>2020-08-16T10:49:30.000Z</time>
      </trkpt>
      <trkpt lat="42.55844489671289920806884765625" lon="0.0510278530418872833251953125">
        <ele>936.20001220703125</ele>
        <time>2020-08-16T10:49:33.000Z</time>
      </trkpt>
      <trkpt lat="42.55851731635630130767822265625" lon="0.05093154497444629669189453125">
        <ele>936.79998779296875</ele>
        <time>2020-08-16T10:49:37.000Z</time>
      </trkpt>
      <trkpt lat="42.55859828554093837738037109375" lon="0.05080447532236576080322265625">
        <ele>937</ele>
        <time>2020-08-16T10:49:42.000Z</time>
      </trkpt>
      <trkpt lat="42.558719404041767120361328125" lon="0.0506144575774669647216796875">
        <ele>937.79998779296875</ele>
        <time>2020-08-16T10:49:49.000Z</time>
      </trkpt>
      <trkpt lat="42.5587329827249050140380859375" lon="0.05058855749666690826416015625">
        <ele>938</ele>
        <time>2020-08-16T10:49:50.000Z</time>
      </trkpt>
      <trkpt lat="42.5587673485279083251953125" lon="0.05044958554208278656005859375">
        <ele>938.5999755859375</ele>
        <time>2020-08-16T10:49:56.000Z</time>
      </trkpt>
      <trkpt lat="42.55876475013792514801025390625" lon="0.05043449811637401580810546875">
        <ele>939</ele>
        <time>2020-08-16T10:49:59.000Z</time>
      </trkpt>
      <trkpt lat="42.55874463357031345367431640625" lon="0.05042242817580699920654296875">
        <ele>939.20001220703125</ele>
        <time>2020-08-16T10:50:01.000Z</time>
      </trkpt>
      <trkpt lat="42.55869165994226932525634765625" lon="0.05048261024057865142822265625">
        <ele>939.79998779296875</ele>
        <time>2020-08-16T10:50:06.000Z</time>
      </trkpt>
      <trkpt lat="42.55869450978934764862060546875" lon="0.05048747174441814422607421875">
        <ele>939.79998779296875</ele>
        <time>2020-08-16T10:50:18.000Z</time>
      </trkpt>
      <trkpt lat="42.55870607681572437286376953125" lon="0.05046433769166469573974609375">
        <ele>939.79998779296875</ele>
        <time>2020-08-16T10:50:28.000Z</time>
      </trkpt>
      <trkpt lat="42.55871345289051532745361328125" lon="0.050446987152099609375">
        <ele>939.79998779296875</ele>
        <time>2020-08-16T10:50:37.000Z</time>
      </trkpt>
      <trkpt lat="42.55871546454727649688720703125" lon="0.05044640041887760162353515625">
        <ele>939.5999755859375</ele>
        <time>2020-08-16T10:50:52.000Z</time>
      </trkpt>
      <trkpt lat="42.55871496163308620452880859375" lon="0.050445981323719024658203125">
        <ele>939.5999755859375</ele>
        <time>2020-08-16T10:50:59.000Z</time>
      </trkpt>
      <trkpt lat="42.55871529690921306610107421875" lon="0.05044631659984588623046875">
        <ele>939.5999755859375</ele>
        <time>2020-08-16T10:51:00.000Z</time>
      </trkpt>
      <trkpt lat="42.5587128661572933197021484375" lon="0.05044631659984588623046875">
        <ele>939.4000244140625</ele>
        <time>2020-08-16T10:51:04.000Z</time>
      </trkpt>
      <trkpt lat="42.5587051548063755035400390625" lon="0.05044623278081417083740234375">
        <ele>939.20001220703125</ele>
        <time>2020-08-16T10:51:10.000Z</time>
      </trkpt>
      <trkpt lat="42.55870188586413860321044921875" lon="0.05045226775109767913818359375">
        <ele>939.4000244140625</ele>
        <time>2020-08-16T10:51:20.000Z</time>
      </trkpt>
      <trkpt lat="42.55868579261004924774169921875" lon="0.05048512481153011322021484375">
        <ele>939.5999755859375</ele>
        <time>2020-08-16T10:51:22.000Z</time>
      </trkpt>
      <trkpt lat="42.55862426944077014923095703125" lon="0.05060079507529735565185546875">
        <ele>939.79998779296875</ele>
        <time>2020-08-16T10:51:27.000Z</time>
      </trkpt>
      <trkpt lat="42.55848228000104427337646484375" lon="0.0507851131260395050048828125">
        <ele>941.20001220703125</ele>
        <time>2020-08-16T10:51:36.000Z</time>
      </trkpt>
      <trkpt lat="42.5584419630467891693115234375" lon="0.0508494861423969268798828125">
        <ele>941.5999755859375</ele>
        <time>2020-08-16T10:51:39.000Z</time>
      </trkpt>
      <trkpt lat="42.55840147845447063446044921875" lon="0.05087756551802158355712890625">
        <ele>942</ele>
        <time>2020-08-16T10:51:41.000Z</time>
      </trkpt>
      <trkpt lat="42.55826837383210659027099609375" lon="0.0509631447494029998779296875">
        <ele>942.5999755859375</ele>
        <time>2020-08-16T10:51:48.000Z</time>
      </trkpt>
      <trkpt lat="42.5582498498260974884033203125" lon="0.05097244866192340850830078125">
        <ele>943</ele>
        <time>2020-08-16T10:51:49.000Z</time>
      </trkpt>
      <trkpt lat="42.55814365111291408538818359375" lon="0.05099792964756488800048828125">
        <ele>943.79998779296875</ele>
        <time>2020-08-16T10:51:54.000Z</time>
      </trkpt>
      <trkpt lat="42.5580842234194278717041015625" lon="0.05102206952869892120361328125">
        <ele>944.20001220703125</ele>
        <time>2020-08-16T10:51:57.000Z</time>
      </trkpt>
      <trkpt lat="42.558006942272186279296875" lon="0.05105811171233654022216796875">
        <ele>944.5999755859375</ele>
        <time>2020-08-16T10:52:01.000Z</time>
      </trkpt>
      <trkpt lat="42.557868473231792449951171875" lon="0.0511103309690952301025390625">
        <ele>945.79998779296875</ele>
        <time>2020-08-16T10:52:08.000Z</time>
      </trkpt>
      <trkpt lat="42.557851038873195648193359375" lon="0.051121897995471954345703125">
        <ele>945.79998779296875</ele>
        <time>2020-08-16T10:52:09.000Z</time>
      </trkpt>
      <trkpt lat="42.55777157843112945556640625" lon="0.0512075610458850860595703125">
        <ele>947</ele>
        <time>2020-08-16T10:52:14.000Z</time>
      </trkpt>
      <trkpt lat="42.5577579997479915618896484375" lon="0.051232874393463134765625">
        <ele>947</ele>
        <time>2020-08-16T10:52:15.000Z</time>
      </trkpt>
      <trkpt lat="42.55767610855400562286376953125" lon="0.05141635425388813018798828125">
        <ele>947.5999755859375</ele>
        <time>2020-08-16T10:52:22.000Z</time>
      </trkpt>
      <trkpt lat="42.55764425732195377349853515625" lon="0.05149514414370059967041015625">
        <ele>948.20001220703125</ele>
        <time>2020-08-16T10:52:25.000Z</time>
      </trkpt>
      <trkpt lat="42.5576212070882320404052734375" lon="0.0515438430011272430419921875">
        <ele>948.4000244140625</ele>
        <time>2020-08-16T10:52:27.000Z</time>
      </trkpt>
      <trkpt lat="42.55758340470492839813232421875" lon="0.051646940410137176513671875">
        <ele>949.5999755859375</ele>
        <time>2020-08-16T10:52:31.000Z</time>
      </trkpt>
      <trkpt lat="42.5575705803930759429931640625" lon="0.05170427262783050537109375">
        <ele>949.5999755859375</ele>
        <time>2020-08-16T10:52:33.000Z</time>
      </trkpt>
      <trkpt lat="42.55754753015935420989990234375" lon="0.05187551490962505340576171875">
        <ele>950</ele>
        <time>2020-08-16T10:52:38.000Z</time>
      </trkpt>
      <trkpt lat="42.557550966739654541015625" lon="0.05196268670260906219482421875">
        <ele>950.79998779296875</ele>
        <time>2020-08-16T10:52:41.000Z</time>
      </trkpt>
      <trkpt lat="42.55754468031227588653564453125" lon="0.05201985128223896026611328125">
        <ele>951.20001220703125</ele>
        <time>2020-08-16T10:52:43.000Z</time>
      </trkpt>
      <trkpt lat="42.55754090845584869384765625" lon="0.0520491041243076324462890625">
        <ele>951.20001220703125</ele>
        <time>2020-08-16T10:52:44.000Z</time>
      </trkpt>
      <trkpt lat="42.557523138821125030517578125" lon="0.05216024816036224365234375">
        <ele>952</ele>
        <time>2020-08-16T10:52:48.000Z</time>
      </trkpt>
      <trkpt lat="42.55750411190092563629150390625" lon="0.0522132217884063720703125">
        <ele>952.20001220703125</ele>
        <time>2020-08-16T10:52:50.000Z</time>
      </trkpt>
      <trkpt lat="42.5574423372745513916015625" lon="0.05238697864115238189697265625">
        <ele>953</ele>
        <time>2020-08-16T10:52:58.000Z</time>
      </trkpt>
      <trkpt lat="42.5574342906475067138671875" lon="0.05242712795734405517578125">
        <ele>953.4000244140625</ele>
        <time>2020-08-16T10:53:00.000Z</time>
      </trkpt>
      <trkpt lat="42.55742783658206462860107421875" lon="0.0524440594017505645751953125">
        <ele>953.5999755859375</ele>
        <time>2020-08-16T10:53:01.000Z</time>
      </trkpt>
      <trkpt lat="42.55740956403315067291259765625" lon="0.05249108187854290008544921875">
        <ele>953.79998779296875</ele>
        <time>2020-08-16T10:53:04.000Z</time>
      </trkpt>
      <trkpt lat="42.55740872584283351898193359375" lon="0.052510611712932586669921875">
        <ele>954</ele>
        <time>2020-08-16T10:53:05.000Z</time>
      </trkpt>
      <trkpt lat="42.55740487016737461090087890625" lon="0.05253047682344913482666015625">
        <ele>954</ele>
        <time>2020-08-16T10:53:06.000Z</time>
      </trkpt>
      <trkpt lat="42.55739665590226650238037109375" lon="0.05261781625449657440185546875">
        <ele>954.4000244140625</ele>
        <time>2020-08-16T10:53:10.000Z</time>
      </trkpt>
      <trkpt lat="42.55739699117839336395263671875" lon="0.05267028696835041046142578125">
        <ele>954.79998779296875</ele>
        <time>2020-08-16T10:53:12.000Z</time>
      </trkpt>
      <trkpt lat="42.5573804788291454315185546875" lon="0.0527800060808658599853515625">
        <ele>955.20001220703125</ele>
        <time>2020-08-16T10:53:17.000Z</time>
      </trkpt>
      <trkpt lat="42.5573633797466754913330078125" lon="0.05288570187985897064208984375">
        <ele>955.5999755859375</ele>
        <time>2020-08-16T10:53:22.000Z</time>
      </trkpt>
      <trkpt lat="42.55734787322580814361572265625" lon="0.05295309238135814666748046875">
        <ele>956</ele>
        <time>2020-08-16T10:53:25.000Z</time>
      </trkpt>
      <trkpt lat="42.55734032951295375823974609375" lon="0.05304537713527679443359375">
        <ele>956.4000244140625</ele>
        <time>2020-08-16T10:53:28.000Z</time>
      </trkpt>
      <trkpt lat="42.55732230842113494873046875" lon="0.05320069380104541778564453125">
        <ele>957.20001220703125</ele>
        <time>2020-08-16T10:53:33.000Z</time>
      </trkpt>
      <trkpt lat="42.557317279279232025146484375" lon="0.053227432072162628173828125">
        <ele>957.4000244140625</ele>
        <time>2020-08-16T10:53:34.000Z</time>
      </trkpt>
      <trkpt lat="42.55726153962314128875732421875" lon="0.053414516150951385498046875">
        <ele>958</ele>
        <time>2020-08-16T10:53:41.000Z</time>
      </trkpt>
      <trkpt lat="42.55720890127122402191162109375" lon="0.0534636341035366058349609375">
        <ele>958.5999755859375</ele>
        <time>2020-08-16T10:53:44.000Z</time>
      </trkpt>
      <trkpt lat="42.55716950632631778717041015625" lon="0.0534683279693126678466796875">
        <ele>958.79998779296875</ele>
        <time>2020-08-16T10:53:46.000Z</time>
      </trkpt>
      <trkpt lat="42.55712927319109439849853515625" lon="0.05338693968951702117919921875">
        <ele>959.79998779296875</ele>
        <time>2020-08-16T10:53:50.000Z</time>
      </trkpt>
      <trkpt lat="42.55713312886655330657958984375" lon="0.05336078815162181854248046875">
        <ele>960</ele>
        <time>2020-08-16T10:53:51.000Z</time>
      </trkpt>
      <trkpt lat="42.5571648962795734405517578125" lon="0.05325802601873874664306640625">
        <ele>961.4000244140625</ele>
        <time>2020-08-16T10:53:55.000Z</time>
      </trkpt>
      <trkpt lat="42.55718157626688480377197265625" lon="0.0532148592174053192138671875">
        <ele>961.79998779296875</ele>
        <time>2020-08-16T10:53:57.000Z</time>
      </trkpt>
      <trkpt lat="42.557217366993427276611328125" lon="0.05312257446348667144775390625">
        <ele>962.5999755859375</ele>
        <time>2020-08-16T10:54:01.000Z</time>
      </trkpt>
      <trkpt lat="42.55724678747355937957763671875" lon="0.053023584187030792236328125">
        <ele>963.20001220703125</ele>
        <time>2020-08-16T10:54:05.000Z</time>
      </trkpt>
      <trkpt lat="42.5572510622441768646240234375" lon="0.05297337658703327178955078125">
        <ele>963.79998779296875</ele>
        <time>2020-08-16T10:54:07.000Z</time>
      </trkpt>
      <trkpt lat="42.5572607852518558502197265625" lon="0.0528296269476413726806640625">
        <ele>965.20001220703125</ele>
        <time>2020-08-16T10:54:13.000Z</time>
      </trkpt>
      <trkpt lat="42.557261288166046142578125" lon="0.05276097916066646575927734375">
        <ele>965.20001220703125</ele>
        <time>2020-08-16T10:54:16.000Z</time>
      </trkpt>
      <trkpt lat="42.55726757459342479705810546875" lon="0.052717141807079315185546875">
        <ele>965.5999755859375</ele>
        <time>2020-08-16T10:54:18.000Z</time>
      </trkpt>
      <trkpt lat="42.557268999516963958740234375" lon="0.05264899693429470062255859375">
        <ele>966.20001220703125</ele>
        <time>2020-08-16T10:54:21.000Z</time>
      </trkpt>
      <trkpt lat="42.55726807750761508941650390625" lon="0.05258512683212757110595703125">
        <ele>966.5999755859375</ele>
        <time>2020-08-16T10:54:24.000Z</time>
      </trkpt>
      <trkpt lat="42.55726908333599567413330078125" lon="0.05250013433396816253662109375">
        <ele>967.4000244140625</ele>
        <time>2020-08-16T10:54:28.000Z</time>
      </trkpt>
      <trkpt lat="42.55726858042180538177490234375" lon="0.05247968249022960662841796875">
        <ele>967.5999755859375</ele>
        <time>2020-08-16T10:54:29.000Z</time>
      </trkpt>
      <trkpt lat="42.55726908333599567413330078125" lon="0.05245738662779331207275390625">
        <ele>967.79998779296875</ele>
        <time>2020-08-16T10:54:30.000Z</time>
      </trkpt>
      <trkpt lat="42.55728743970394134521484375" lon="0.05231237970292568206787109375">
        <ele>968.4000244140625</ele>
        <time>2020-08-16T10:54:36.000Z</time>
      </trkpt>
      <trkpt lat="42.55729414522647857666015625" lon="0.0522891618311405181884765625">
        <ele>968.5999755859375</ele>
        <time>2020-08-16T10:54:37.000Z</time>
      </trkpt>
      <trkpt lat="42.55732138641178607940673828125" lon="0.05216695368289947509765625">
        <ele>969.5999755859375</ele>
        <time>2020-08-16T10:54:42.000Z</time>
      </trkpt>
      <trkpt lat="42.55731920711696147918701171875" lon="0.0520943664014339447021484375">
        <ele>970</ele>
        <time>2020-08-16T10:54:45.000Z</time>
      </trkpt>
      <trkpt lat="42.55731903947889804840087890625" lon="0.05206930451095104217529296875">
        <ele>970</ele>
        <time>2020-08-16T10:54:46.000Z</time>
      </trkpt>
      <trkpt lat="42.5573197938501834869384765625" lon="0.0520442426204681396484375">
        <ele>970</ele>
        <time>2020-08-16T10:54:47.000Z</time>
      </trkpt>
      <trkpt lat="42.5573104061186313629150390625" lon="0.05189345218241214752197265625">
        <ele>970.5999755859375</ele>
        <time>2020-08-16T10:54:53.000Z</time>
      </trkpt>
      <trkpt lat="42.55728534422814846038818359375" lon="0.05173302255570888519287109375">
        <ele>971</ele>
        <time>2020-08-16T10:54:59.000Z</time>
      </trkpt>
      <trkpt lat="42.55726740695536136627197265625" lon="0.0515860877931118011474609375">
        <ele>971.5999755859375</ele>
        <time>2020-08-16T10:55:04.000Z</time>
      </trkpt>
      <trkpt lat="42.55728735588490962982177734375" lon="0.05150671117007732391357421875">
        <ele>971.79998779296875</ele>
        <time>2020-08-16T10:55:07.000Z</time>
      </trkpt>
      <trkpt lat="42.55733479745686054229736328125" lon="0.05139204673469066619873046875">
        <ele>972.4000244140625</ele>
        <time>2020-08-16T10:55:12.000Z</time>
      </trkpt>
      <trkpt lat="42.55734418518841266632080078125" lon="0.051371343433856964111328125">
        <ele>972.5999755859375</ele>
        <time>2020-08-16T10:55:13.000Z</time>
      </trkpt>
      <trkpt lat="42.55735558457672595977783203125" lon="0.0513232313096523284912109375">
        <ele>972.79998779296875</ele>
        <time>2020-08-16T10:55:15.000Z</time>
      </trkpt>
      <trkpt lat="42.55739749409258365631103515625" lon="0.0512058846652507781982421875">
        <ele>973.20001220703125</ele>
        <time>2020-08-16T10:55:20.000Z</time>
      </trkpt>
      <trkpt lat="42.55743638612329959869384765625" lon="0.05107269622385501861572265625">
        <ele>973.79998779296875</ele>
        <time>2020-08-16T10:55:25.000Z</time>
      </trkpt>
      <trkpt lat="42.557456754148006439208984375" lon="0.05102525465190410614013671875">
        <ele>973.79998779296875</ele>
        <time>2020-08-16T10:55:27.000Z</time>
      </trkpt>
      <trkpt lat="42.55750411190092563629150390625" lon="0.050928108394145965576171875">
        <ele>974.20001220703125</ele>
        <time>2020-08-16T10:55:31.000Z</time>
      </trkpt>
      <trkpt lat="42.55759455263614654541015625" lon="0.05077798850834369659423828125">
        <ele>974.79998779296875</ele>
        <time>2020-08-16T10:55:38.000Z</time>
      </trkpt>
      <trkpt lat="42.5576463527977466583251953125" lon="0.05070037208497524261474609375">
        <ele>975.5999755859375</ele>
        <time>2020-08-16T10:55:42.000Z</time>
      </trkpt>
      <trkpt lat="42.5576998293399810791015625" lon="0.05062174983322620391845703125">
        <ele>976.4000244140625</ele>
        <time>2020-08-16T10:55:46.000Z</time>
      </trkpt>
      <trkpt lat="42.55773159675300121307373046875" lon="0.05058847367763519287109375">
        <ele>976.5999755859375</ele>
        <time>2020-08-16T10:55:48.000Z</time>
      </trkpt>
      <trkpt lat="42.55778239108622074127197265625" lon="0.05050825886428356170654296875">
        <ele>977</ele>
        <time>2020-08-16T10:55:52.000Z</time>
      </trkpt>
      <trkpt lat="42.55787710659205913543701171875" lon="0.05038990639150142669677734375">
        <ele>977.5999755859375</ele>
        <time>2020-08-16T10:55:58.000Z</time>
      </trkpt>
      <trkpt lat="42.55791448988020420074462890625" lon="0.0503566302359104156494140625">
        <ele>978</ele>
        <time>2020-08-16T10:56:00.000Z</time>
      </trkpt>
      <trkpt lat="42.55798280239105224609375" lon="0.0502771697938442230224609375">
        <ele>978.5999755859375</ele>
        <time>2020-08-16T10:56:04.000Z</time>
      </trkpt>
      <trkpt lat="42.55802345462143421173095703125" lon="0.0501801073551177978515625">
        <ele>978.79998779296875</ele>
        <time>2020-08-16T10:56:08.000Z</time>
      </trkpt>
      <trkpt lat="42.5580312497913837432861328125" lon="0.05012713372707366943359375">
        <ele>979.20001220703125</ele>
        <time>2020-08-16T10:56:10.000Z</time>
      </trkpt>
      <trkpt lat="42.55799260921776294708251953125" lon="0.05003937520086765289306640625">
        <ele>979.5999755859375</ele>
        <time>2020-08-16T10:56:14.000Z</time>
      </trkpt>
      <trkpt lat="42.55792370997369289398193359375" lon="0.0499777682125568389892578125">
        <ele>979.79998779296875</ele>
        <time>2020-08-16T10:56:18.000Z</time>
      </trkpt>
      <trkpt lat="42.55789336748421192169189453125" lon="0.04994968883693218231201171875">
        <ele>980.20001220703125</ele>
        <time>2020-08-16T10:56:20.000Z</time>
      </trkpt>
      <trkpt lat="42.55777283571660518646240234375" lon="0.0498724915087223052978515625">
        <ele>980.5999755859375</ele>
        <time>2020-08-16T10:56:26.000Z</time>
      </trkpt>
      <trkpt lat="42.55774299614131450653076171875" lon="0.0498577393591403961181640625">
        <ele>980.5999755859375</ele>
        <time>2020-08-16T10:56:28.000Z</time>
      </trkpt>
      <trkpt lat="42.5576688162982463836669921875" lon="0.0498206913471221923828125">
        <ele>980.79998779296875</ele>
        <time>2020-08-16T10:56:32.000Z</time>
      </trkpt>
      <trkpt lat="42.5576540641486644744873046875" lon="0.0496924482285976409912109375">
        <ele>980.79998779296875</ele>
        <time>2020-08-16T10:56:37.000Z</time>
      </trkpt>
      <trkpt lat="42.5577130727469921112060546875" lon="0.04965104162693023681640625">
        <ele>980.79998779296875</ele>
        <time>2020-08-16T10:56:40.000Z</time>
      </trkpt>
      <trkpt lat="42.55777484737336635589599609375" lon="0.04961659200489521026611328125">
        <ele>981.4000244140625</ele>
        <time>2020-08-16T10:56:43.000Z</time>
      </trkpt>
      <trkpt lat="42.55791666917502880096435546875" lon="0.04955205135047435760498046875">
        <ele>982.20001220703125</ele>
        <time>2020-08-16T10:56:50.000Z</time>
      </trkpt>
      <trkpt lat="42.55793293006718158721923828125" lon="0.04953763447701930999755859375">
        <ele>982.4000244140625</ele>
        <time>2020-08-16T10:56:51.000Z</time>
      </trkpt>
      <trkpt lat="42.558003924787044525146484375" lon="0.04948348738253116607666015625">
        <ele>983.4000244140625</ele>
        <time>2020-08-16T10:56:55.000Z</time>
      </trkpt>
      <trkpt lat="42.5580604188144207000732421875" lon="0.049448199570178985595703125">
        <ele>984</ele>
        <time>2020-08-16T10:56:58.000Z</time>
      </trkpt>
      <trkpt lat="42.55811666138470172882080078125" lon="0.0494118221104145050048828125">
        <ele>984.5999755859375</ele>
        <time>2020-08-16T10:57:01.000Z</time>
      </trkpt>
      <trkpt lat="42.55821422673761844635009765625" lon="0.0493323616683483123779296875">
        <ele>985.4000244140625</ele>
        <time>2020-08-16T10:57:07.000Z</time>
      </trkpt>
      <trkpt lat="42.5582394562661647796630859375" lon="0.04929003305733203887939453125">
        <ele>985.79998779296875</ele>
        <time>2020-08-16T10:57:09.000Z</time>
      </trkpt>
      <trkpt lat="42.5582609139382839202880859375" lon="0.04918442107737064361572265625">
        <ele>986.79998779296875</ele>
        <time>2020-08-16T10:57:13.000Z</time>
      </trkpt>
      <trkpt lat="42.55826284177601337432861328125" lon="0.04915692843496799468994140625">
        <ele>987.20001220703125</ele>
        <time>2020-08-16T10:57:14.000Z</time>
      </trkpt>
      <trkpt lat="42.55822545848786830902099609375" lon="0.0489789806306362152099609375">
        <ele>988.20001220703125</ele>
        <time>2020-08-16T10:57:21.000Z</time>
      </trkpt>
      <trkpt lat="42.55821841768920421600341796875" lon="0.04892927594482898712158203125">
        <ele>988.4000244140625</ele>
        <time>2020-08-16T10:57:23.000Z</time>
      </trkpt>
      <trkpt lat="42.55822545848786830902099609375" lon="0.0488797388970851898193359375">
        <ele>989</ele>
        <time>2020-08-16T10:57:25.000Z</time>
      </trkpt>
      <trkpt lat="42.5582387857139110565185546875" lon="0.04885853268206119537353515625">
        <ele>989.20001220703125</ele>
        <time>2020-08-16T10:57:26.000Z</time>
      </trkpt>
      <trkpt lat="42.55825529806315898895263671875" lon="0.0488416850566864013671875">
        <ele>989.4000244140625</ele>
        <time>2020-08-16T10:57:27.000Z</time>
      </trkpt>
      <trkpt lat="42.55834213458001613616943359375" lon="0.0488173775374889373779296875">
        <ele>990.20001220703125</ele>
        <time>2020-08-16T10:57:31.000Z</time>
      </trkpt>
      <trkpt lat="42.5583851337432861328125" lon="0.04882316105067729949951171875">
        <ele>990.4000244140625</ele>
        <time>2020-08-16T10:57:33.000Z</time>
      </trkpt>
      <trkpt lat="42.55845017731189727783203125" lon="0.04883506335318088531494140625">
        <ele>990.79998779296875</ele>
        <time>2020-08-16T10:57:36.000Z</time>
      </trkpt>
      <trkpt lat="42.55851597525179386138916015625" lon="0.048845708370208740234375">
        <ele>991</ele>
        <time>2020-08-16T10:57:39.000Z</time>
      </trkpt>
      <trkpt lat="42.5586179830133914947509765625" lon="0.04881821572780609130859375">
        <ele>992</ele>
        <time>2020-08-16T10:57:44.000Z</time>
      </trkpt>
      <trkpt lat="42.55863700993359088897705078125" lon="0.04880480468273162841796875">
        <ele>992.20001220703125</ele>
        <time>2020-08-16T10:57:45.000Z</time>
      </trkpt>
      <trkpt lat="42.558713369071483612060546875" lon="0.04871184937655925750732421875">
        <ele>993</ele>
        <time>2020-08-16T10:57:50.000Z</time>
      </trkpt>
      <trkpt lat="42.5587430410087108612060546875" lon="0.04867530427873134613037109375">
        <ele>993.4000244140625</ele>
        <time>2020-08-16T10:57:52.000Z</time>
      </trkpt>
      <trkpt lat="42.558812610805034637451171875" lon="0.04857656545937061309814453125">
        <ele>994.4000244140625</ele>
        <time>2020-08-16T10:57:57.000Z</time>
      </trkpt>
      <trkpt lat="42.55887857638299465179443359375" lon="0.0485079176723957061767578125">
        <ele>995.20001220703125</ele>
        <time>2020-08-16T10:58:01.000Z</time>
      </trkpt>
      <trkpt lat="42.55891243927180767059326171875" lon="0.04847648553550243377685546875">
        <ele>995.4000244140625</ele>
        <time>2020-08-16T10:58:03.000Z</time>
      </trkpt>
      <trkpt lat="42.559039257466793060302734375" lon="0.048448406159877777099609375">
        <ele>996.4000244140625</ele>
        <time>2020-08-16T10:58:09.000Z</time>
      </trkpt>
      <trkpt lat="42.5590823404490947723388671875" lon="0.048453100025653839111328125">
        <ele>996.79998779296875</ele>
        <time>2020-08-16T10:58:11.000Z</time>
      </trkpt>
      <trkpt lat="42.5591902993619441986083984375" lon="0.04847162403166294097900390625">
        <ele>997.79998779296875</ele>
        <time>2020-08-16T10:58:16.000Z</time>
      </trkpt>
      <trkpt lat="42.559210918843746185302734375" lon="0.04847480915486812591552734375">
        <ele>997.79998779296875</ele>
        <time>2020-08-16T10:58:17.000Z</time>
      </trkpt>
      <trkpt lat="42.55932600237429141998291015625" lon="0.04842753522098064422607421875">
        <ele>998.79998779296875</ele>
        <time>2020-08-16T10:58:23.000Z</time>
      </trkpt>
      <trkpt lat="42.5593415088951587677001953125" lon="0.048411525785923004150390625">
        <ele>999</ele>
        <time>2020-08-16T10:58:24.000Z</time>
      </trkpt>
      <trkpt lat="42.55943681113421916961669921875" lon="0.04825889132916927337646484375">
        <ele>1000</ele>
        <time>2020-08-16T10:58:32.000Z</time>
      </trkpt>
      <trkpt lat="42.55944871343672275543212890625" lon="0.048211701214313507080078125">
        <ele>1000.4000244140625</ele>
        <time>2020-08-16T10:58:34.000Z</time>
      </trkpt>
      <trkpt lat="42.55950554274022579193115234375" lon="0.04810608923435211181640625">
        <ele>1001</ele>
        <time>2020-08-16T10:58:39.000Z</time>
      </trkpt>
      <trkpt lat="42.5595329515635967254638671875" lon="0.04803895018994808197021484375">
        <ele>1001.4000244140625</ele>
        <time>2020-08-16T10:58:42.000Z</time>
      </trkpt>
      <trkpt lat="42.55955885164439678192138671875" lon="0.0479490123689174652099609375">
        <ele>1002.4000244140625</ele>
        <time>2020-08-16T10:58:46.000Z</time>
      </trkpt>
      <trkpt lat="42.5595795549452304840087890625" lon="0.04790467210114002227783203125">
        <ele>1002.79998779296875</ele>
        <time>2020-08-16T10:58:48.000Z</time>
      </trkpt>
      <trkpt lat="42.559615261852741241455078125" lon="0.047814063727855682373046875">
        <ele>1003.4000244140625</ele>
        <time>2020-08-16T10:58:52.000Z</time>
      </trkpt>
      <trkpt lat="42.55964376032352447509765625" lon="0.04774809814989566802978515625">
        <ele>1004.20001220703125</ele>
        <time>2020-08-16T10:58:55.000Z</time>
      </trkpt>
      <trkpt lat="42.559703774750232696533203125" lon="0.04762597382068634033203125">
        <ele>1005</ele>
        <time>2020-08-16T10:59:01.000Z</time>
      </trkpt>
      <trkpt lat="42.5597475282847881317138671875" lon="0.0475433282554149627685546875">
        <ele>1005.20001220703125</ele>
        <time>2020-08-16T10:59:05.000Z</time>
      </trkpt>
      <trkpt lat="42.5597921200096607208251953125" lon="0.0474615208804607391357421875">
        <ele>1006.20001220703125</ele>
        <time>2020-08-16T10:59:09.000Z</time>
      </trkpt>
      <trkpt lat="42.559799663722515106201171875" lon="0.047439225018024444580078125">
        <ele>1006.5999755859375</ele>
        <time>2020-08-16T10:59:10.000Z</time>
      </trkpt>
      <trkpt lat="42.55984048359096050262451171875" lon="0.04733688198029994964599609375">
        <ele>1007.20001220703125</ele>
        <time>2020-08-16T10:59:15.000Z</time>
      </trkpt>
      <trkpt lat="42.55985322408378124237060546875" lon="0.04729514010250568389892578125">
        <ele>1007.79998779296875</ele>
        <time>2020-08-16T10:59:17.000Z</time>
      </trkpt>
      <trkpt lat="42.5598876737058162689208984375" lon="0.04721836186945438385009765625">
        <ele>1008.5999755859375</ele>
        <time>2020-08-16T10:59:21.000Z</time>
      </trkpt>
      <trkpt lat="42.559914998710155487060546875" lon="0.0471487082540988922119140625">
        <ele>1009</ele>
        <time>2020-08-16T10:59:24.000Z</time>
      </trkpt>
      <trkpt lat="42.55997928790748119354248046875" lon="0.04704586230218410491943359375">
        <ele>1010.4000244140625</ele>
        <time>2020-08-16T10:59:29.000Z</time>
      </trkpt>
      <trkpt lat="42.560040391981601715087890625" lon="0.0469203852117061614990234375">
        <ele>1011.4000244140625</ele>
        <time>2020-08-16T10:59:35.000Z</time>
      </trkpt>
      <trkpt lat="42.56007425487041473388671875" lon="0.04686648957431316375732421875">
        <ele>1011.5999755859375</ele>
        <time>2020-08-16T10:59:38.000Z</time>
      </trkpt>
      <trkpt lat="42.56013351492583751678466796875" lon="0.0468013621866703033447265625">
        <ele>1012.79998779296875</ele>
        <time>2020-08-16T10:59:42.000Z</time>
      </trkpt>
      <trkpt lat="42.56015044637024402618408203125" lon="0.0467845983803272247314453125">
        <ele>1013</ele>
        <time>2020-08-16T10:59:43.000Z</time>
      </trkpt>
      <trkpt lat="42.56022445857524871826171875" lon="0.04671938717365264892578125">
        <ele>1014</ele>
        <time>2020-08-16T10:59:47.000Z</time>
      </trkpt>
      <trkpt lat="42.56029059179127216339111328125" lon="0.04668359644711017608642578125">
        <ele>1014.5999755859375</ele>
        <time>2020-08-16T10:59:50.000Z</time>
      </trkpt>
      <trkpt lat="42.56034222431480884552001953125" lon="0.0466263480484485626220703125">
        <ele>1015.20001220703125</ele>
        <time>2020-08-16T10:59:53.000Z</time>
      </trkpt>
      <trkpt lat="42.56040684878826141357421875" lon="0.0465700216591358184814453125">
        <ele>1016.4000244140625</ele>
        <time>2020-08-16T10:59:57.000Z</time>
      </trkpt>
      <trkpt lat="42.56042403168976306915283203125" lon="0.0465542636811733245849609375">
        <ele>1016.4000244140625</ele>
        <time>2020-08-16T10:59:58.000Z</time>
      </trkpt>
      <trkpt lat="42.56053903140127658843994140625" lon="0.04644588567316532135009765625">
        <ele>1017.5999755859375</ele>
        <time>2020-08-16T11:00:05.000Z</time>
      </trkpt>
      <trkpt lat="42.56057322956621646881103515625" lon="0.04641286097466945648193359375">
        <ele>1018</ele>
        <time>2020-08-16T11:00:07.000Z</time>
      </trkpt>
      <trkpt lat="42.5606108643114566802978515625" lon="0.04635728895664215087890625">
        <ele>1018.79998779296875</ele>
        <time>2020-08-16T11:00:10.000Z</time>
      </trkpt>
      <trkpt lat="42.56066475994884967803955078125" lon="0.04629584960639476776123046875">
        <ele>1019.5999755859375</ele>
        <time>2020-08-16T11:00:14.000Z</time>
      </trkpt>
      <trkpt lat="42.560724355280399322509765625" lon="0.046271122992038726806640625">
        <ele>1020.20001220703125</ele>
        <time>2020-08-16T11:00:17.000Z</time>
      </trkpt>
      <trkpt lat="42.56081345491111278533935546875" lon="0.04626533947885036468505859375">
        <ele>1021</ele>
        <time>2020-08-16T11:00:21.000Z</time>
      </trkpt>
      <trkpt lat="42.56095427088439464569091796875" lon="0.04628076218068599700927734375">
        <ele>1021.5999755859375</ele>
        <time>2020-08-16T11:00:27.000Z</time>
      </trkpt>
      <trkpt lat="42.561090476810932159423828125" lon="0.04627757705748081207275390625">
        <ele>1022.4000244140625</ele>
        <time>2020-08-16T11:00:33.000Z</time>
      </trkpt>
      <trkpt lat="42.56120614707469940185546875" lon="0.04619174636900424957275390625">
        <ele>1022.4000244140625</ele>
        <time>2020-08-16T11:00:39.000Z</time>
      </trkpt>
      <trkpt lat="42.56124562583863735198974609375" lon="0.04613424651324748992919921875">
        <ele>1022.79998779296875</ele>
        <time>2020-08-16T11:00:42.000Z</time>
      </trkpt>
      <trkpt lat="42.56124730221927165985107421875" lon="0.04612603224813938140869140625">
        <ele>1023</ele>
        <time>2020-08-16T11:00:43.000Z</time>
      </trkpt>
      <trkpt lat="42.5612478889524936676025390625" lon="0.04612636752426624298095703125">
        <ele>1023</ele>
        <time>2020-08-16T11:00:44.000Z</time>
      </trkpt>
      <trkpt lat="42.56123053841292858123779296875" lon="0.04605512134730815887451171875">
        <ele>1022.79998779296875</ele>
        <time>2020-08-16T11:03:24.000Z</time>
      </trkpt>
      <trkpt lat="42.56125233136117458343505859375" lon="0.04599426873028278350830078125">
        <ele>1022.79998779296875</ele>
        <time>2020-08-16T11:03:27.000Z</time>
      </trkpt>
      <trkpt lat="42.5613125972449779510498046875" lon="0.045841298997402191162109375">
        <ele>1023.4000244140625</ele>
        <time>2020-08-16T11:03:33.000Z</time>
      </trkpt>
      <trkpt lat="42.5613923929631710052490234375" lon="0.04567491821944713592529296875">
        <ele>1023.5999755859375</ele>
        <time>2020-08-16T11:03:39.000Z</time>
      </trkpt>
      <trkpt lat="42.56145165301859378814697265625" lon="0.04551951773464679718017578125">
        <ele>1024</ele>
        <time>2020-08-16T11:03:44.000Z</time>
      </trkpt>
      <trkpt lat="42.56148870103061199188232421875" lon="0.045335702598094940185546875">
        <ele>1024.199951171875</ele>
        <time>2020-08-16T11:03:49.000Z</time>
      </trkpt>
      <trkpt lat="42.56149171851575374603271484375" lon="0.04529572091996669769287109375">
        <ele>1024.199951171875</ele>
        <time>2020-08-16T11:03:50.000Z</time>
      </trkpt>
      <trkpt lat="42.56152524612843990325927734375" lon="0.04512137733399868011474609375">
        <ele>1024.5999755859375</ele>
        <time>2020-08-16T11:03:55.000Z</time>
      </trkpt>
      <trkpt lat="42.561549134552478790283203125" lon="0.04493664018809795379638671875">
        <ele>1024.800048828125</ele>
        <time>2020-08-16T11:04:00.000Z</time>
      </trkpt>
      <trkpt lat="42.56152625195682048797607421875" lon="0.0447236560285091400146484375">
        <ele>1024.4000244140625</ele>
        <time>2020-08-16T11:04:05.000Z</time>
      </trkpt>
      <trkpt lat="42.561510242521762847900390625" lon="0.04444931633770465850830078125">
        <ele>1024.5999755859375</ele>
        <time>2020-08-16T11:04:12.000Z</time>
      </trkpt>
      <trkpt lat="42.56150730885565280914306640625" lon="0.0442217476665973663330078125">
        <ele>1024.5999755859375</ele>
        <time>2020-08-16T11:04:18.000Z</time>
      </trkpt>
      <trkpt lat="42.56150261498987674713134765625" lon="0.04403047263622283935546875">
        <ele>1025</ele>
        <time>2020-08-16T11:04:23.000Z</time>
      </trkpt>
      <trkpt lat="42.56152759306132793426513671875" lon="0.04382687620818614959716796875">
        <ele>1025.199951171875</ele>
        <time>2020-08-16T11:04:28.000Z</time>
      </trkpt>
      <trkpt lat="42.5616384856402873992919921875" lon="0.043602325022220611572265625">
        <ele>1025.5999755859375</ele>
        <time>2020-08-16T11:04:34.000Z</time>
      </trkpt>
      <trkpt lat="42.5617903657257556915283203125" lon="0.0434117205440998077392578125">
        <ele>1026.199951171875</ele>
        <time>2020-08-16T11:04:41.000Z</time>
      </trkpt>
      <trkpt lat="42.56194232963025569915771484375" lon="0.04328741692006587982177734375">
        <ele>1026.4000244140625</ele>
        <time>2020-08-16T11:04:47.000Z</time>
      </trkpt>
      <trkpt lat="42.5619989074766635894775390625" lon="0.0432400591671466827392578125">
        <ele>1026.5999755859375</ele>
        <time>2020-08-16T11:04:49.000Z</time>
      </trkpt>
      <trkpt lat="42.56211415864527225494384765625" lon="0.0431025959551334381103515625">
        <ele>1026.800048828125</ele>
        <time>2020-08-16T11:04:54.000Z</time>
      </trkpt>
      <trkpt lat="42.5622617639601230621337890625" lon="0.042910985648632049560546875">
        <ele>1027.199951171875</ele>
        <time>2020-08-16T11:05:01.000Z</time>
      </trkpt>
      <trkpt lat="42.56241221912205219268798828125" lon="0.04268056713044643402099609375">
        <ele>1027.800048828125</ele>
        <time>2020-08-16T11:05:09.000Z</time>
      </trkpt>
      <trkpt lat="42.562409453094005584716796875" lon="0.04251309670507907867431640625">
        <ele>1027.5999755859375</ele>
        <time>2020-08-16T11:05:14.000Z</time>
      </trkpt>
      <trkpt lat="42.56240366958081722259521484375" lon="0.04245861433446407318115234375">
        <ele>1027.4000244140625</ele>
        <time>2020-08-16T11:05:18.000Z</time>
      </trkpt>
      <trkpt lat="42.562396712601184844970703125" lon="0.0424290262162685394287109375">
        <ele>1027.199951171875</ele>
        <time>2020-08-16T11:05:25.000Z</time>
      </trkpt>
      <trkpt lat="42.56239830516278743743896484375" lon="0.0424260087311267852783203125">
        <ele>1027.199951171875</ele>
        <time>2020-08-16T11:05:35.000Z</time>
      </trkpt>
      <trkpt lat="42.5623988918960094451904296875" lon="0.04242508672177791595458984375">
        <ele>1027.199951171875</ele>
        <time>2020-08-16T11:06:01.000Z</time>
      </trkpt>
      <trkpt lat="42.56237969733774662017822265625" lon="0.04236339591443538665771484375">
        <ele>1027.199951171875</ele>
        <time>2020-08-16T11:06:12.000Z</time>
      </trkpt>
      <trkpt lat="42.5623710639774799346923828125" lon="0.04234076477587223052978515625">
        <ele>1027</ele>
        <time>2020-08-16T11:06:13.000Z</time>
      </trkpt>
      <trkpt lat="42.5623304955661296844482421875" lon="0.042199529707431793212890625">
        <ele>1026.800048828125</ele>
        <time>2020-08-16T11:06:18.000Z</time>
      </trkpt>
      <trkpt lat="42.56228716112673282623291015625" lon="0.0420288741588592529296875">
        <ele>1026.5999755859375</ele>
        <time>2020-08-16T11:06:23.000Z</time>
      </trkpt>
      <trkpt lat="42.56225463934242725372314453125" lon="0.0418459810316562652587890625">
        <ele>1026.199951171875</ele>
        <time>2020-08-16T11:06:27.000Z</time>
      </trkpt>
      <trkpt lat="42.56223787553608417510986328125" lon="0.041746906936168670654296875">
        <ele>1025.800048828125</ele>
        <time>2020-08-16T11:06:29.000Z</time>
      </trkpt>
      <trkpt lat="42.562233097851276397705078125" lon="0.04169183783233165740966796875">
        <ele>1025.5999755859375</ele>
        <time>2020-08-16T11:06:30.000Z</time>
      </trkpt>
      <trkpt lat="42.56220853887498378753662109375" lon="0.0415130518376827239990234375">
        <ele>1025</ele>
        <time>2020-08-16T11:06:33.000Z</time>
      </trkpt>
      <trkpt lat="42.562200911343097686767578125" lon="0.0414496846497058868408203125">
        <ele>1025</ele>
        <time>2020-08-16T11:06:34.000Z</time>
      </trkpt>
      <trkpt lat="42.56219697184860706329345703125" lon="0.04138522781431674957275390625">
        <ele>1025</ele>
        <time>2020-08-16T11:06:35.000Z</time>
      </trkpt>
      <trkpt lat="42.5621880032122135162353515625" lon="0.04118070937693119049072265625">
        <ele>1024.4000244140625</ele>
        <time>2020-08-16T11:06:38.000Z</time>
      </trkpt>
      <trkpt lat="42.56218649446964263916015625" lon="0.04111398942768573760986328125">
        <ele>1024.199951171875</ele>
        <time>2020-08-16T11:06:39.000Z</time>
      </trkpt>
      <trkpt lat="42.56218993104994297027587890625" lon="0.0410498678684234619140625">
        <ele>1024</ele>
        <time>2020-08-16T11:06:40.000Z</time>
      </trkpt>
      <trkpt lat="42.5621598400175571441650390625" lon="0.04085515625774860382080078125">
        <ele>1023.5999755859375</ele>
        <time>2020-08-16T11:06:43.000Z</time>
      </trkpt>
      <trkpt lat="42.56213662214577198028564453125" lon="0.040785335004329681396484375">
        <ele>1023.5999755859375</ele>
        <time>2020-08-16T11:06:44.000Z</time>
      </trkpt>
      <trkpt lat="42.56208230741322040557861328125" lon="0.0406054593622684478759765625">
        <ele>1023.20001220703125</ele>
        <time>2020-08-16T11:06:47.000Z</time>
      </trkpt>
      <trkpt lat="42.5620637834072113037109375" lon="0.04054536111652851104736328125">
        <ele>1023</ele>
        <time>2020-08-16T11:06:48.000Z</time>
      </trkpt>
      <trkpt lat="42.56203687749803066253662109375" lon="0.0402835942804813385009765625">
        <ele>1022.79998779296875</ele>
        <time>2020-08-16T11:06:52.000Z</time>
      </trkpt>
      <trkpt lat="42.56207074038684368133544921875" lon="0.0401870347559452056884765625">
        <ele>1023</ele>
        <time>2020-08-16T11:06:54.000Z</time>
      </trkpt>
      <trkpt lat="42.5620988197624683380126953125" lon="0.04011738114058971405029296875">
        <ele>1023.4000244140625</ele>
        <time>2020-08-16T11:06:56.000Z</time>
      </trkpt>
      <trkpt lat="42.56215640343725681304931640625" lon="0.0399302132427692413330078125">
        <ele>1024.4000244140625</ele>
        <time>2020-08-16T11:07:02.000Z</time>
      </trkpt>
      <trkpt lat="42.56218339316546916961669921875" lon="0.0397374294698238372802734375">
        <ele>1025.5999755859375</ele>
        <time>2020-08-16T11:07:08.000Z</time>
      </trkpt>
      <trkpt lat="42.562185823917388916015625" lon="0.03970482386648654937744140625">
        <ele>1025.800048828125</ele>
        <time>2020-08-16T11:07:09.000Z</time>
      </trkpt>
      <trkpt lat="42.56219898350536823272705078125" lon="0.0395161472260951995849609375">
        <ele>1026.5999755859375</ele>
        <time>2020-08-16T11:07:15.000Z</time>
      </trkpt>
      <trkpt lat="42.56220334209501743316650390625" lon="0.0394566357135772705078125">
        <ele>1027</ele>
        <time>2020-08-16T11:07:17.000Z</time>
      </trkpt>
      <trkpt lat="42.5622004084289073944091796875" lon="0.039432160556316375732421875">
        <ele>1027</ele>
        <time>2020-08-16T11:07:18.000Z</time>
      </trkpt>
      <trkpt lat="42.56219915114343166351318359375" lon="0.03940525464713573455810546875">
        <ele>1027</ele>
        <time>2020-08-16T11:07:19.000Z</time>
      </trkpt>
      <trkpt lat="42.56223267875611782073974609375" lon="0.03921146504580974578857421875">
        <ele>1027.800048828125</ele>
        <time>2020-08-16T11:07:25.000Z</time>
      </trkpt>
      <trkpt lat="42.56223854608833789825439453125" lon="0.03917592577636241912841796875">
        <ele>1028</ele>
        <time>2020-08-16T11:07:26.000Z</time>
      </trkpt>
      <trkpt lat="42.5622676312923431396484375" lon="0.0390149094164371490478515625">
        <ele>1028.800048828125</ele>
        <time>2020-08-16T11:07:31.000Z</time>
      </trkpt>
      <trkpt lat="42.56229017861187458038330078125" lon="0.03892622888088226318359375">
        <ele>1029.4000244140625</ele>
        <time>2020-08-16T11:07:34.000Z</time>
      </trkpt>
      <trkpt lat="42.5623258017003536224365234375" lon="0.0388201139867305755615234375">
        <ele>1030</ele>
        <time>2020-08-16T11:07:38.000Z</time>
      </trkpt>
      <trkpt lat="42.5623640231788158416748046875" lon="0.038720034062862396240234375">
        <ele>1030.5999755859375</ele>
        <time>2020-08-16T11:07:42.000Z</time>
      </trkpt>
      <trkpt lat="42.5623827986419200897216796875" lon="0.03866664133965969085693359375">
        <ele>1031</ele>
        <time>2020-08-16T11:07:44.000Z</time>
      </trkpt>
      <trkpt lat="42.5624532066285610198974609375" lon="0.0385223887860774993896484375">
        <ele>1031.5999755859375</ele>
        <time>2020-08-16T11:07:50.000Z</time>
      </trkpt>
      <trkpt lat="42.56246334873139858245849609375" lon="0.03849816508591175079345703125">
        <ele>1031.800048828125</ele>
        <time>2020-08-16T11:07:51.000Z</time>
      </trkpt>
      <trkpt lat="42.56252168677747249603271484375" lon="0.03837947733700275421142578125">
        <ele>1032.800048828125</ele>
        <time>2020-08-16T11:07:56.000Z</time>
      </trkpt>
      <trkpt lat="42.56253878585994243621826171875" lon="0.0383557565510272979736328125">
        <ele>1033</ele>
        <time>2020-08-16T11:07:57.000Z</time>
      </trkpt>
      <trkpt lat="42.5626122951507568359375" lon="0.03825458697974681854248046875">
        <ele>1033.4000244140625</ele>
        <time>2020-08-16T11:08:02.000Z</time>
      </trkpt>
      <trkpt lat="42.5626805238425731658935546875" lon="0.03814729861915111541748046875">
        <ele>1033.800048828125</ele>
        <time>2020-08-16T11:08:07.000Z</time>
      </trkpt>
      <trkpt lat="42.56269267760217189788818359375" lon="0.03812156617641448974609375">
        <ele>1034</ele>
        <time>2020-08-16T11:08:08.000Z</time>
      </trkpt>
      <trkpt lat="42.562749087810516357421875" lon="0.037981756031513214111328125">
        <ele>1034.800048828125</ele>
        <time>2020-08-16T11:08:13.000Z</time>
      </trkpt>
      <trkpt lat="42.56278119049966335296630859375" lon="0.0378639064729213714599609375">
        <ele>1035.199951171875</ele>
        <time>2020-08-16T11:08:17.000Z</time>
      </trkpt>
      <trkpt lat="42.5628067553043365478515625" lon="0.0377660058438777923583984375">
        <ele>1035.4000244140625</ele>
        <time>2020-08-16T11:08:20.000Z</time>
      </trkpt>
      <trkpt lat="42.5628598965704441070556640625" lon="0.03754757344722747802734375">
        <ele>1036</ele>
        <time>2020-08-16T11:08:27.000Z</time>
      </trkpt>
      <trkpt lat="42.5628684461116790771484375" lon="0.03751597367227077484130859375">
        <ele>1036.199951171875</ele>
        <time>2020-08-16T11:08:28.000Z</time>
      </trkpt>
      <trkpt lat="42.5628847070038318634033203125" lon="0.037357471883296966552734375">
        <ele>1036.199951171875</ele>
        <time>2020-08-16T11:08:33.000Z</time>
      </trkpt>
      <trkpt lat="42.56289736367762088775634765625" lon="0.03728480078279972076416015625">
        <ele>1036.4000244140625</ele>
        <time>2020-08-16T11:08:35.000Z</time>
      </trkpt>
      <trkpt lat="42.5629031471908092498779296875" lon="0.03720466978847980499267578125">
        <ele>1036.4000244140625</ele>
        <time>2020-08-16T11:08:37.000Z</time>
      </trkpt>
      <trkpt lat="42.56291362456977367401123046875" lon="0.03712286241352558135986328125">
        <ele>1036.5999755859375</ele>
        <time>2020-08-16T11:08:39.000Z</time>
      </trkpt>
      <trkpt lat="42.56292787380516529083251953125" lon="0.0369700603187084197998046875">
        <ele>1036.4000244140625</ele>
        <time>2020-08-16T11:08:43.000Z</time>
      </trkpt>
      <trkpt lat="42.56296701729297637939453125" lon="0.03668926656246185302734375">
        <ele>1036.4000244140625</ele>
        <time>2020-08-16T11:08:50.000Z</time>
      </trkpt>
      <trkpt lat="42.5630127824842929840087890625" lon="0.03647075034677982330322265625">
        <ele>1036.4000244140625</ele>
        <time>2020-08-16T11:08:55.000Z</time>
      </trkpt>
      <trkpt lat="42.56311546079814434051513671875" lon="0.036242008209228515625">
        <ele>1035.800048828125</ele>
        <time>2020-08-16T11:09:01.000Z</time>
      </trkpt>
      <trkpt lat="42.56320950575172901153564453125" lon="0.03609540872275829315185546875">
        <ele>1036.199951171875</ele>
        <time>2020-08-16T11:09:06.000Z</time>
      </trkpt>
      <trkpt lat="42.56330958567559719085693359375" lon="0.0358988530933856964111328125">
        <ele>1036</ele>
        <time>2020-08-16T11:09:12.000Z</time>
      </trkpt>
      <trkpt lat="42.563330121338367462158203125" lon="0.03586557693779468536376953125">
        <ele>1035.800048828125</ele>
        <time>2020-08-16T11:09:13.000Z</time>
      </trkpt>
      <trkpt lat="42.56338804028928279876708984375" lon="0.03577907569706439971923828125">
        <ele>1035.5999755859375</ele>
        <time>2020-08-16T11:09:16.000Z</time>
      </trkpt>
      <trkpt lat="42.56348040886223316192626953125" lon="0.0355535186827182769775390625">
        <ele>1035.4000244140625</ele>
        <time>2020-08-16T11:09:22.000Z</time>
      </trkpt>
      <trkpt lat="42.5635301135480403900146484375" lon="0.03533366136252880096435546875">
        <ele>1035</ele>
        <time>2020-08-16T11:09:27.000Z</time>
      </trkpt>
      <trkpt lat="42.56358870305120944976806640625" lon="0.03506175242364406585693359375">
        <ele>1034.800048828125</ele>
        <time>2020-08-16T11:09:33.000Z</time>
      </trkpt>
      <trkpt lat="42.56359658204019069671630859375" lon="0.03497474826872348785400390625">
        <ele>1034.800048828125</ele>
        <time>2020-08-16T11:09:35.000Z</time>
      </trkpt>
      <trkpt lat="42.5636167824268341064453125" lon="0.034643076360225677490234375">
        <ele>1034.5999755859375</ele>
        <time>2020-08-16T11:09:43.000Z</time>
      </trkpt>
      <trkpt lat="42.56353422068059444427490234375" lon="0.0343644618988037109375">
        <ele>1034.199951171875</ele>
        <time>2020-08-16T11:09:50.000Z</time>
      </trkpt>
      <trkpt lat="42.5633802451193332672119140625" lon="0.0341896153986454010009765625">
        <ele>1034.4000244140625</ele>
        <time>2020-08-16T11:09:56.000Z</time>
      </trkpt>
      <trkpt lat="42.5632136128842830657958984375" lon="0.03408492542803287506103515625">
        <ele>1034</ele>
        <time>2020-08-16T11:10:01.000Z</time>
      </trkpt>
      <trkpt lat="42.563140355050563812255859375" lon="0.03404670394957065582275390625">
        <ele>1034</ele>
        <time>2020-08-16T11:10:03.000Z</time>
      </trkpt>
      <trkpt lat="42.5629569590091705322265625" lon="0.033876635134220123291015625">
        <ele>1033.4000244140625</ele>
        <time>2020-08-16T11:10:09.000Z</time>
      </trkpt>
      <trkpt lat="42.56294480524957180023193359375" lon="0.03383514471352100372314453125">
        <ele>1033.4000244140625</ele>
        <time>2020-08-16T11:10:10.000Z</time>
      </trkpt>
      <trkpt lat="42.56295494735240936279296875" lon="0.0337071530520915985107421875">
        <ele>1033.199951171875</ele>
        <time>2020-08-16T11:10:13.000Z</time>
      </trkpt>
      <trkpt lat="42.5629691965878009796142578125" lon="0.03367337398231029510498046875">
        <ele>1033.199951171875</ele>
        <time>2020-08-16T11:10:14.000Z</time>
      </trkpt>
      <trkpt lat="42.56300062872469425201416015625" lon="0.03361738286912441253662109375">
        <ele>1033.199951171875</ele>
        <time>2020-08-16T11:10:16.000Z</time>
      </trkpt>
      <trkpt lat="42.56305175833404064178466796875" lon="0.033544711768627166748046875">
        <ele>1033.800048828125</ele>
        <time>2020-08-16T11:10:19.000Z</time>
      </trkpt>
      <trkpt lat="42.5631831027567386627197265625" lon="0.03344085998833179473876953125">
        <ele>1034.4000244140625</ele>
        <time>2020-08-16T11:10:25.000Z</time>
      </trkpt>
      <trkpt lat="42.5633121840655803680419921875" lon="0.03335704095661640167236328125">
        <ele>1034.800048828125</ele>
        <time>2020-08-16T11:10:31.000Z</time>
      </trkpt>
      <trkpt lat="42.56338812410831451416015625" lon="0.03330004401504993438720703125">
        <ele>1035.4000244140625</ele>
        <time>2020-08-16T11:10:35.000Z</time>
      </trkpt>
      <trkpt lat="42.56341218017041683197021484375" lon="0.0332840345799922943115234375">
        <ele>1035.5999755859375</ele>
        <time>2020-08-16T11:10:36.000Z</time>
      </trkpt>
      <trkpt lat="42.5634922273457050323486328125" lon="0.03321848809719085693359375">
        <ele>1036.4000244140625</ele>
        <time>2020-08-16T11:10:40.000Z</time>
      </trkpt>
      <trkpt lat="42.56356171332299709320068359375" lon="0.0331646762788295745849609375">
        <ele>1036.800048828125</ele>
        <time>2020-08-16T11:10:43.000Z</time>
      </trkpt>
      <trkpt lat="42.56371409632265567779541015625" lon="0.033106505870819091796875">
        <ele>1037.199951171875</ele>
        <time>2020-08-16T11:10:49.000Z</time>
      </trkpt>
      <trkpt lat="42.56380713544785976409912109375" lon="0.033113546669483184814453125">
        <ele>1037.800048828125</ele>
        <time>2020-08-16T11:10:53.000Z</time>
      </trkpt>
      <trkpt lat="42.56387368775904178619384765625" lon="0.03314933739602565765380859375">
        <ele>1038.4000244140625</ele>
        <time>2020-08-16T11:10:56.000Z</time>
      </trkpt>
      <trkpt lat="42.56394510157406330108642578125" lon="0.03320516087114810943603515625">
        <ele>1039</ele>
        <time>2020-08-16T11:11:00.000Z</time>
      </trkpt>
      <trkpt lat="42.563978545367717742919921875" lon="0.033228881657123565673828125">
        <ele>1039.199951171875</ele>
        <time>2020-08-16T11:11:02.000Z</time>
      </trkpt>
      <trkpt lat="42.564075104892253875732421875" lon="0.033256709575653076171875">
        <ele>1040.199951171875</ele>
        <time>2020-08-16T11:11:07.000Z</time>
      </trkpt>
      <trkpt lat="42.56416738964617252349853515625" lon="0.0332511775195598602294921875">
        <ele>1041</ele>
        <time>2020-08-16T11:11:12.000Z</time>
      </trkpt>
      <trkpt lat="42.56418331526219844818115234375" lon="0.03324187360703945159912109375">
        <ele>1041.199951171875</ele>
        <time>2020-08-16T11:11:13.000Z</time>
      </trkpt>
      <trkpt lat="42.56426093168556690216064453125" lon="0.0332002155482769012451171875">
        <ele>1041.5999755859375</ele>
        <time>2020-08-16T11:11:17.000Z</time>
      </trkpt>
      <trkpt lat="42.56428037770092487335205078125" lon="0.0331847928464412689208984375">
        <ele>1041.800048828125</ele>
        <time>2020-08-16T11:11:18.000Z</time>
      </trkpt>
      <trkpt lat="42.56431910209357738494873046875" lon="0.03315537236630916595458984375">
        <ele>1042.199951171875</ele>
        <time>2020-08-16T11:11:20.000Z</time>
      </trkpt>
      <trkpt lat="42.564407028257846832275390625" lon="0.03308563493192195892333984375">
        <ele>1043.199951171875</ele>
        <time>2020-08-16T11:11:24.000Z</time>
      </trkpt>
      <trkpt lat="42.56447316147387027740478515625" lon="0.03302645869553089141845703125">
        <ele>1043.5999755859375</ele>
        <time>2020-08-16T11:11:27.000Z</time>
      </trkpt>
      <trkpt lat="42.56453837268054485321044921875" lon="0.03296946175396442413330078125">
        <ele>1044</ele>
        <time>2020-08-16T11:11:30.000Z</time>
      </trkpt>
      <trkpt lat="42.56463560275733470916748046875" lon="0.03285815007984638214111328125">
        <ele>1044.5999755859375</ele>
        <time>2020-08-16T11:11:36.000Z</time>
      </trkpt>
      <trkpt lat="42.56474909372627735137939453125" lon="0.0327063538134098052978515625">
        <ele>1045</ele>
        <time>2020-08-16T11:11:43.000Z</time>
      </trkpt>
      <trkpt lat="42.56484179757535457611083984375" lon="0.03251818008720874786376953125">
        <ele>1045.5999755859375</ele>
        <time>2020-08-16T11:11:50.000Z</time>
      </trkpt>
      <trkpt lat="42.5649444758892059326171875" lon="0.032296814024448394775390625">
        <ele>1045.800048828125</ele>
        <time>2020-08-16T11:11:58.000Z</time>
      </trkpt>
      <trkpt lat="42.56500013172626495361328125" lon="0.0321742706000804901123046875">
        <ele>1045.800048828125</ele>
        <time>2020-08-16T11:12:02.000Z</time>
      </trkpt>
      <trkpt lat="42.5650383532047271728515625" lon="0.03208232112228870391845703125">
        <ele>1046</ele>
        <time>2020-08-16T11:12:05.000Z</time>
      </trkpt>
      <trkpt lat="42.56511957384645938873291015625" lon="0.0319130904972553253173828125">
        <ele>1046.4000244140625</ele>
        <time>2020-08-16T11:12:11.000Z</time>
      </trkpt>
      <trkpt lat="42.56521378643810749053955078125" lon="0.03174838609993457794189453125">
        <ele>1046.5999755859375</ele>
        <time>2020-08-16T11:12:17.000Z</time>
      </trkpt>
      <trkpt lat="42.56530917249619960784912109375" lon="0.0316093303263187408447265625">
        <ele>1047</ele>
        <time>2020-08-16T11:12:22.000Z</time>
      </trkpt>
      <trkpt lat="42.56542333401739597320556640625" lon="0.031390227377414703369140625">
        <ele>1047.5999755859375</ele>
        <time>2020-08-16T11:12:29.000Z</time>
      </trkpt>
      <trkpt lat="42.5654488988220691680908203125" lon="0.0311982817947864532470703125">
        <ele>1048</ele>
        <time>2020-08-16T11:12:34.000Z</time>
      </trkpt>
      <trkpt lat="42.56549977697432041168212890625" lon="0.03101564012467861175537109375">
        <ele>1047.5999755859375</ele>
        <time>2020-08-16T11:12:39.000Z</time>
      </trkpt>
      <trkpt lat="42.5656292773783206939697265625" lon="0.0309320725500583648681640625">
        <ele>1048.199951171875</ele>
        <time>2020-08-16T11:12:44.000Z</time>
      </trkpt>
      <trkpt lat="42.5656524114310741424560546875" lon="0.0309183262288570404052734375">
        <ele>1048.4000244140625</ele>
        <time>2020-08-16T11:12:45.000Z</time>
      </trkpt>
      <trkpt lat="42.56577352993190288543701171875" lon="0.03085889853537082672119140625">
        <ele>1049.5999755859375</ele>
        <time>2020-08-16T11:12:50.000Z</time>
      </trkpt>
      <trkpt lat="42.5658230669796466827392578125" lon="0.0308469124138355255126953125">
        <ele>1050</ele>
        <time>2020-08-16T11:12:52.000Z</time>
      </trkpt>
      <trkpt lat="42.56589439697563648223876953125" lon="0.0308494269847869873046875">
        <ele>1051</ele>
        <time>2020-08-16T11:12:55.000Z</time>
      </trkpt>
      <trkpt lat="42.56595994345843791961669921875" lon="0.030889324843883514404296875">
        <ele>1051.5999755859375</ele>
        <time>2020-08-16T11:12:58.000Z</time>
      </trkpt>
      <trkpt lat="42.56602766923606395721435546875" lon="0.0309166498482227325439453125">
        <ele>1052</ele>
        <time>2020-08-16T11:13:01.000Z</time>
      </trkpt>
      <trkpt lat="42.566092796623706817626953125" lon="0.03090717829763889312744140625">
        <ele>1052.4000244140625</ele>
        <time>2020-08-16T11:13:04.000Z</time>
      </trkpt>
      <trkpt lat="42.5662160106003284454345703125" lon="0.03083040006458759307861328125">
        <ele>1053</ele>
        <time>2020-08-16T11:13:10.000Z</time>
      </trkpt>
      <trkpt lat="42.56625196896493434906005859375" lon="0.03079150803387165069580078125">
        <ele>1053.4000244140625</ele>
        <time>2020-08-16T11:13:12.000Z</time>
      </trkpt>
      <trkpt lat="42.56640552543103694915771484375" lon="0.03061180002987384796142578125">
        <ele>1054</ele>
        <time>2020-08-16T11:13:21.000Z</time>
      </trkpt>
      <trkpt lat="42.5664315931499004364013671875" lon="0.0305731594562530517578125">
        <ele>1054.199951171875</ele>
        <time>2020-08-16T11:13:23.000Z</time>
      </trkpt>
      <trkpt lat="42.56647107191383838653564453125" lon="0.03049914725124835968017578125">
        <ele>1054.800048828125</ele>
        <time>2020-08-16T11:13:27.000Z</time>
      </trkpt>
      <trkpt lat="42.5665405578911304473876953125" lon="0.030311308801174163818359375">
        <ele>1054.800048828125</ele>
        <time>2020-08-16T11:13:34.000Z</time>
      </trkpt>
      <trkpt lat="42.56658531725406646728515625" lon="0.03014844842255115509033203125">
        <ele>1054.4000244140625</ele>
        <time>2020-08-16T11:13:40.000Z</time>
      </trkpt>
      <trkpt lat="42.5666377879679203033447265625" lon="0.0299684889614582061767578125">
        <ele>1054.4000244140625</ele>
        <time>2020-08-16T11:13:46.000Z</time>
      </trkpt>
      <trkpt lat="42.56670844741165637969970703125" lon="0.0297926366329193115234375">
        <ele>1054</ele>
        <time>2020-08-16T11:13:51.000Z</time>
      </trkpt>
      <trkpt lat="42.566816322505474090576171875" lon="0.02959482371807098388671875">
        <ele>1054.199951171875</ele>
        <time>2020-08-16T11:13:57.000Z</time>
      </trkpt>
      <trkpt lat="42.56691061891615390777587890625" lon="0.02943213097751140594482421875">
        <ele>1053.5999755859375</ele>
        <time>2020-08-16T11:14:01.000Z</time>
      </trkpt>
      <trkpt lat="42.5669821165502071380615234375" lon="0.0293659977614879608154296875">
        <ele>1053.4000244140625</ele>
        <time>2020-08-16T11:14:03.000Z</time>
      </trkpt>
      <trkpt lat="42.56715822033584117889404296875" lon="0.0292245112359523773193359375">
        <ele>1053.5999755859375</ele>
        <time>2020-08-16T11:14:09.000Z</time>
      </trkpt>
      <trkpt lat="42.56734480150043964385986328125" lon="0.0290887244045734405517578125">
        <ele>1053.800048828125</ele>
        <time>2020-08-16T11:14:16.000Z</time>
      </trkpt>
      <trkpt lat="42.56742241792380809783935546875" lon="0.02893189899623394012451171875">
        <ele>1054</ele>
        <time>2020-08-16T11:14:21.000Z</time>
      </trkpt>
      <trkpt lat="42.56746198050677776336669921875" lon="0.0287212617695331573486328125">
        <ele>1054</ele>
        <time>2020-08-16T11:14:27.000Z</time>
      </trkpt>
      <trkpt lat="42.5675014592707157135009765625" lon="0.02853803336620330810546875">
        <ele>1053.5999755859375</ele>
        <time>2020-08-16T11:14:31.000Z</time>
      </trkpt>
      <trkpt lat="42.56753104738891124725341796875" lon="0.02828582189977169036865234375">
        <ele>1053.199951171875</ele>
        <time>2020-08-16T11:14:36.000Z</time>
      </trkpt>
      <trkpt lat="42.5675467215478420257568359375" lon="0.02822563983500003814697265625">
        <ele>1053.199951171875</ele>
        <time>2020-08-16T11:14:37.000Z</time>
      </trkpt>
      <trkpt lat="42.56759474985301494598388671875" lon="0.0281026773154735565185546875">
        <ele>1052.800048828125</ele>
        <time>2020-08-16T11:14:39.000Z</time>
      </trkpt>
      <trkpt lat="42.5676234997808933258056640625" lon="0.0280413217842578887939453125">
        <ele>1052.5999755859375</ele>
        <time>2020-08-16T11:14:40.000Z</time>
      </trkpt>
      <trkpt lat="42.5677500665187835693359375" lon="0.0278810597956180572509765625">
        <ele>1051.800048828125</ele>
        <time>2020-08-16T11:14:43.000Z</time>
      </trkpt>
      <trkpt lat="42.5678028725087642669677734375" lon="0.0278314389288425445556640625">
        <ele>1051.4000244140625</ele>
        <time>2020-08-16T11:14:44.000Z</time>
      </trkpt>
      <trkpt lat="42.567852996289730072021484375" lon="0.02777536399662494659423828125">
        <ele>1051.199951171875</ele>
        <time>2020-08-16T11:14:45.000Z</time>
      </trkpt>
      <trkpt lat="42.567954249680042266845703125" lon="0.0276483781635761260986328125">
        <ele>1050.5999755859375</ele>
        <time>2020-08-16T11:14:47.000Z</time>
      </trkpt>
      <trkpt lat="42.56806061603128910064697265625" lon="0.02749473787844181060791015625">
        <ele>1050.4000244140625</ele>
        <time>2020-08-16T11:14:49.000Z</time>
      </trkpt>
      <trkpt lat="42.5682551600039005279541015625" lon="0.02713657915592193603515625">
        <ele>1049.4000244140625</ele>
        <time>2020-08-16T11:14:53.000Z</time>
      </trkpt>
      <trkpt lat="42.56830151192843914031982421875" lon="0.02704001963138580322265625">
        <ele>1048.800048828125</ele>
        <time>2020-08-16T11:14:54.000Z</time>
      </trkpt>
      <trkpt lat="42.56834778003394603729248046875" lon="0.0269409455358982086181640625">
        <ele>1047.800048828125</ele>
        <time>2020-08-16T11:14:55.000Z</time>
      </trkpt>
      <trkpt lat="42.5684808008372783660888671875" lon="0.0266492553055286407470703125">
        <ele>1046.5999755859375</ele>
        <time>2020-08-16T11:14:58.000Z</time>
      </trkpt>
      <trkpt lat="42.56863427348434925079345703125" lon="0.02624667249619960784912109375">
        <ele>1046</ele>
        <time>2020-08-16T11:15:02.000Z</time>
      </trkpt>
      <trkpt lat="42.56869495846331119537353515625" lon="0.02603461034595966339111328125">
        <ele>1045.199951171875</ele>
        <time>2020-08-16T11:15:04.000Z</time>
      </trkpt>
      <trkpt lat="42.56877274252474308013916015625" lon="0.02583394758403301239013671875">
        <ele>1044.4000244140625</ele>
        <time>2020-08-16T11:15:06.000Z</time>
      </trkpt>
      <trkpt lat="42.56882504560053348541259765625" lon="0.025746859610080718994140625">
        <ele>1044</ele>
        <time>2020-08-16T11:15:07.000Z</time>
      </trkpt>
      <trkpt lat="42.5690608285367488861083984375" lon="0.02547218464314937591552734375">
        <ele>1043.5999755859375</ele>
        <time>2020-08-16T11:15:11.000Z</time>
      </trkpt>
      <trkpt lat="42.5693032331764698028564453125" lon="0.02521368674933910369873046875">
        <ele>1043.199951171875</ele>
        <time>2020-08-16T11:15:16.000Z</time>
      </trkpt>
      <trkpt lat="42.56944798864424228668212890625" lon="0.02501168288290500640869140625">
        <ele>1044</ele>
        <time>2020-08-16T11:15:21.000Z</time>
      </trkpt>
      <trkpt lat="42.56954773329198360443115234375" lon="0.02487321384251117706298828125">
        <ele>1045</ele>
        <time>2020-08-16T11:15:26.000Z</time>
      </trkpt>
      <trkpt lat="42.56958377547562122344970703125" lon="0.02482183277606964111328125">
        <ele>1045.199951171875</ele>
        <time>2020-08-16T11:15:28.000Z</time>
      </trkpt>
      <trkpt lat="42.56965099833905696868896484375" lon="0.0247044861316680908203125">
        <ele>1045.4000244140625</ele>
        <time>2020-08-16T11:15:32.000Z</time>
      </trkpt>
      <trkpt lat="42.5697300396859645843505859375" lon="0.02449301071465015411376953125">
        <ele>1045</ele>
        <time>2020-08-16T11:15:37.000Z</time>
      </trkpt>
      <trkpt lat="42.569783516228199005126953125" lon="0.02422478981316089630126953125">
        <ele>1044.800048828125</ele>
        <time>2020-08-16T11:15:41.000Z</time>
      </trkpt>
      <trkpt lat="42.56980262696743011474609375" lon="0.0241492688655853271484375">
        <ele>1044.5999755859375</ele>
        <time>2020-08-16T11:15:42.000Z</time>
      </trkpt>
      <trkpt lat="42.56982953287661075592041015625" lon="0.02408933825790882110595703125">
        <ele>1044</ele>
        <time>2020-08-16T11:15:43.000Z</time>
      </trkpt>
      <trkpt lat="42.56986029446125030517578125" lon="0.0240411423146724700927734375">
        <ele>1043.199951171875</ele>
        <time>2020-08-16T11:15:44.000Z</time>
      </trkpt>
      <trkpt lat="42.5699003599584102630615234375" lon="0.02401440404355525970458984375">
        <ele>1042.800048828125</ele>
        <time>2020-08-16T11:15:45.000Z</time>
      </trkpt>
      <trkpt lat="42.569985352456569671630859375" lon="0.02400501631200313568115234375">
        <ele>1042.199951171875</ele>
        <time>2020-08-16T11:15:47.000Z</time>
      </trkpt>
      <trkpt lat="42.57009766995906829833984375" lon="0.0240931101143360137939453125">
        <ele>1042.4000244140625</ele>
        <time>2020-08-16T11:15:51.000Z</time>
      </trkpt>
      <trkpt lat="42.570111416280269622802734375" lon="0.02412269823253154754638671875">
        <ele>1042.5999755859375</ele>
        <time>2020-08-16T11:15:52.000Z</time>
      </trkpt>
      <trkpt lat="42.57020621560513973236083984375" lon="0.0243314914405345916748046875">
        <ele>1044</ele>
        <time>2020-08-16T11:15:59.000Z</time>
      </trkpt>
      <trkpt lat="42.5703120790421962738037109375" lon="0.02444322220981121063232421875">
        <ele>1045</ele>
        <time>2020-08-16T11:16:05.000Z</time>
      </trkpt>
      <trkpt lat="42.5703586824238300323486328125" lon="0.02437281422317028045654296875">
        <ele>1046.199951171875</ele>
        <time>2020-08-16T11:16:09.000Z</time>
      </trkpt>
      <trkpt lat="42.5703549943864345550537109375" lon="0.02432788722217082977294921875">
        <ele>1046.4000244140625</ele>
        <time>2020-08-16T11:16:12.000Z</time>
      </trkpt>
      <trkpt lat="42.57035373710095882415771484375" lon="0.02432704903185367584228515625">
        <ele>1046.4000244140625</ele>
        <time>2020-08-16T11:16:13.000Z</time>
      </trkpt>
      <trkpt lat="42.5703526474535465240478515625" lon="0.02432671375572681427001953125">
        <ele>1046.4000244140625</ele>
        <time>2020-08-16T11:16:14.000Z</time>
      </trkpt>
      <trkpt lat="42.570370920002460479736328125" lon="0.0243450701236724853515625">
        <ele>1045.800048828125</ele>
        <time>2020-08-16T11:30:51.000Z</time>
      </trkpt>
      <trkpt lat="42.5703378953039646148681640625" lon="0.02431782893836498260498046875">
        <ele>1046</ele>
        <time>2020-08-16T11:30:54.000Z</time>
      </trkpt>
      <trkpt lat="42.57033043541014194488525390625" lon="0.02430793829262256622314453125">
        <ele>1046.199951171875</ele>
        <time>2020-08-16T11:30:56.000Z</time>
      </trkpt>
      <trkpt lat="42.57025432772934436798095703125" lon="0.024201236665248870849609375">
        <ele>1046.800048828125</ele>
        <time>2020-08-16T11:31:03.000Z</time>
      </trkpt>
      <trkpt lat="42.57022901438176631927490234375" lon="0.024165026843547821044921875">
        <ele>1047</ele>
        <time>2020-08-16T11:31:05.000Z</time>
      </trkpt>
      <trkpt lat="42.57016866467893123626708984375" lon="0.02404407598078250885009765625">
        <ele>1047.5999755859375</ele>
        <time>2020-08-16T11:31:11.000Z</time>
      </trkpt>
      <trkpt lat="42.57013580761849880218505859375" lon="0.0239667110145092010498046875">
        <ele>1048</ele>
        <time>2020-08-16T11:31:15.000Z</time>
      </trkpt>
      <trkpt lat="42.57003891281783580780029296875" lon="0.0237621925771236419677734375">
        <ele>1049.199951171875</ele>
        <time>2020-08-16T11:31:25.000Z</time>
      </trkpt>
      <trkpt lat="42.56998258642852306365966796875" lon="0.0235808081924915313720703125">
        <ele>1050.199951171875</ele>
        <time>2020-08-16T11:31:33.000Z</time>
      </trkpt>
      <trkpt lat="42.56997755728662014007568359375" lon="0.02355591394007205963134765625">
        <ele>1050.4000244140625</ele>
        <time>2020-08-16T11:31:34.000Z</time>
      </trkpt>
      <trkpt lat="42.56994101218879222869873046875" lon="0.02341224811971187591552734375">
        <ele>1051.5999755859375</ele>
        <time>2020-08-16T11:31:40.000Z</time>
      </trkpt>
      <trkpt lat="42.56991955451667308807373046875" lon="0.02334468998014926910400390625">
        <ele>1051.800048828125</ele>
        <time>2020-08-16T11:31:43.000Z</time>
      </trkpt>
      <trkpt lat="42.56988803856074810028076171875" lon="0.0232579372823238372802734375">
        <ele>1052.5999755859375</ele>
        <time>2020-08-16T11:31:47.000Z</time>
      </trkpt>
      <trkpt lat="42.5698681734502315521240234375" lon="0.0231382437050342559814453125">
        <ele>1053.4000244140625</ele>
        <time>2020-08-16T11:31:52.000Z</time>
      </trkpt>
      <trkpt lat="42.569865994155406951904296875" lon="0.02311351709067821502685546875">
        <ele>1053.5999755859375</ele>
        <time>2020-08-16T11:31:53.000Z</time>
      </trkpt>
      <trkpt lat="42.5698597915470600128173828125" lon="0.02294235862791538238525390625">
        <ele>1054.199951171875</ele>
        <time>2020-08-16T11:32:00.000Z</time>
      </trkpt>
      <trkpt lat="42.56987630389630794525146484375" lon="0.02287429757416248321533203125">
        <ele>1054.800048828125</ele>
        <time>2020-08-16T11:32:03.000Z</time>
      </trkpt>
      <trkpt lat="42.5698996894061565399169921875" lon="0.02278737723827362060546875">
        <ele>1055.4000244140625</ele>
        <time>2020-08-16T11:32:07.000Z</time>
      </trkpt>
      <trkpt lat="42.56991083733737468719482421875" lon="0.02274421043694019317626953125">
        <ele>1055.800048828125</ele>
        <time>2020-08-16T11:32:09.000Z</time>
      </trkpt>
      <trkpt lat="42.56992860697209835052490234375" lon="0.0226552784442901611328125">
        <ele>1057</ele>
        <time>2020-08-16T11:32:13.000Z</time>
      </trkpt>
      <trkpt lat="42.56994235329329967498779296875" lon="0.02258998341858386993408203125">
        <ele>1057.4000244140625</ele>
        <time>2020-08-16T11:32:16.000Z</time>
      </trkpt>
      <trkpt lat="42.569967918097972869873046875" lon="0.022479593753814697265625">
        <ele>1058</ele>
        <time>2020-08-16T11:32:21.000Z</time>
      </trkpt>
      <trkpt lat="42.56998761557042598724365234375" lon="0.02238714136183261871337890625">
        <ele>1058.800048828125</ele>
        <time>2020-08-16T11:32:25.000Z</time>
      </trkpt>
      <trkpt lat="42.5700019486248493194580078125" lon="0.02229343168437480926513671875">
        <ele>1059</ele>
        <time>2020-08-16T11:32:29.000Z</time>
      </trkpt>
      <trkpt lat="42.57002181373536586761474609375" lon="0.02217843197286128997802734375">
        <ele>1059.800048828125</ele>
        <time>2020-08-16T11:32:34.000Z</time>
      </trkpt>
      <trkpt lat="42.5700240768492221832275390625" lon="0.02213065512478351593017578125">
        <ele>1060.199951171875</ele>
        <time>2020-08-16T11:32:36.000Z</time>
      </trkpt>
      <trkpt lat="42.57003220729529857635498046875" lon="0.0219942815601825714111328125">
        <ele>1061.199951171875</ele>
        <time>2020-08-16T11:32:42.000Z</time>
      </trkpt>
      <trkpt lat="42.5700405053794384002685546875" lon="0.02188355661928653717041015625">
        <ele>1062.4000244140625</ele>
        <time>2020-08-16T11:32:47.000Z</time>
      </trkpt>
      <trkpt lat="42.570043690502643585205078125" lon="0.02179487608373165130615234375">
        <ele>1063</ele>
        <time>2020-08-16T11:32:51.000Z</time>
      </trkpt>
      <trkpt lat="42.5700433552265167236328125" lon="0.0217035971581935882568359375">
        <ele>1063.4000244140625</ele>
        <time>2020-08-16T11:32:55.000Z</time>
      </trkpt>
      <trkpt lat="42.57003187201917171478271484375" lon="0.02161432988941669464111328125">
        <ele>1064.4000244140625</ele>
        <time>2020-08-16T11:32:59.000Z</time>
      </trkpt>
      <trkpt lat="42.5700311176478862762451171875" lon="0.02159220166504383087158203125">
        <ele>1064.5999755859375</ele>
        <time>2020-08-16T11:33:00.000Z</time>
      </trkpt>
      <trkpt lat="42.5700116716325283050537109375" lon="0.02148223109543323516845703125">
        <ele>1065.800048828125</ele>
        <time>2020-08-16T11:33:05.000Z</time>
      </trkpt>
      <trkpt lat="42.56999951787292957305908203125" lon="0.02141668461263179779052734375">
        <ele>1066.199951171875</ele>
        <time>2020-08-16T11:33:08.000Z</time>
      </trkpt>
      <trkpt lat="42.5699841789901256561279296875" lon="0.02133018337190151214599609375">
        <ele>1067</ele>
        <time>2020-08-16T11:33:12.000Z</time>
      </trkpt>
      <trkpt lat="42.56996515206992626190185546875" lon="0.021224319934844970703125">
        <ele>1067.800048828125</ele>
        <time>2020-08-16T11:33:17.000Z</time>
      </trkpt>
      <trkpt lat="42.5699600391089916229248046875" lon="0.02117981202900409698486328125">
        <ele>1068</ele>
        <time>2020-08-16T11:33:19.000Z</time>
      </trkpt>
      <trkpt lat="42.5699479691684246063232421875" lon="0.0210722722113132476806640625">
        <ele>1069</ele>
        <time>2020-08-16T11:33:24.000Z</time>
      </trkpt>
      <trkpt lat="42.56994738243520259857177734375" lon="0.021050982177257537841796875">
        <ele>1069.199951171875</ele>
        <time>2020-08-16T11:33:25.000Z</time>
      </trkpt>
      <trkpt lat="42.5699375756084918975830078125" lon="0.02091653645038604736328125">
        <ele>1070</ele>
        <time>2020-08-16T11:33:31.000Z</time>
      </trkpt>
      <trkpt lat="42.56992324255406856536865234375" lon="0.0208275206387042999267578125">
        <ele>1070.800048828125</ele>
        <time>2020-08-16T11:33:35.000Z</time>
      </trkpt>
      <trkpt lat="42.56992374546825885772705078125" lon="0.02080514095723628997802734375">
        <ele>1071</ele>
        <time>2020-08-16T11:33:36.000Z</time>
      </trkpt>
      <trkpt lat="42.56992156617343425750732421875" lon="0.02069181762635707855224609375">
        <ele>1072.199951171875</ele>
        <time>2020-08-16T11:33:41.000Z</time>
      </trkpt>
      <trkpt lat="42.5699255056679248809814453125" lon="0.02064605243504047393798828125">
        <ele>1072.5999755859375</ele>
        <time>2020-08-16T11:33:43.000Z</time>
      </trkpt>
      <trkpt lat="42.56992961280047893524169921875" lon="0.0205774046480655670166015625">
        <ele>1073.199951171875</ele>
        <time>2020-08-16T11:33:46.000Z</time>
      </trkpt>
      <trkpt lat="42.56994822062551975250244140625" lon="0.02046584151685237884521484375">
        <ele>1074.199951171875</ele>
        <time>2020-08-16T11:33:51.000Z</time>
      </trkpt>
      <trkpt lat="42.5699543394148349761962890625" lon="0.02044438384473323822021484375">
        <ele>1074.4000244140625</ele>
        <time>2020-08-16T11:33:52.000Z</time>
      </trkpt>
      <trkpt lat="42.57000907324254512786865234375" lon="0.020300634205341339111328125">
        <ele>1075.5999755859375</ele>
        <time>2020-08-16T11:33:59.000Z</time>
      </trkpt>
      <trkpt lat="42.5700180418789386749267578125" lon="0.0202815234661102294921875">
        <ele>1075.5999755859375</ele>
        <time>2020-08-16T11:34:00.000Z</time>
      </trkpt>
      <trkpt lat="42.57006791420280933380126953125" lon="0.02018831670284271240234375">
        <ele>1076.5999755859375</ele>
        <time>2020-08-16T11:34:05.000Z</time>
      </trkpt>
      <trkpt lat="42.57012792862951755523681640625" lon="0.0200738199055194854736328125">
        <ele>1077.199951171875</ele>
        <time>2020-08-16T11:34:11.000Z</time>
      </trkpt>
      <trkpt lat="42.57014787755906581878662109375" lon="0.02003467641770839691162109375">
        <ele>1077.800048828125</ele>
        <time>2020-08-16T11:34:13.000Z</time>
      </trkpt>
      <trkpt lat="42.57019288837909698486328125" lon="0.019935853779315948486328125">
        <ele>1078.800048828125</ele>
        <time>2020-08-16T11:34:18.000Z</time>
      </trkpt>
      <trkpt lat="42.57022197358310222625732421875" lon="0.019879527390003204345703125">
        <ele>1079.4000244140625</ele>
        <time>2020-08-16T11:34:21.000Z</time>
      </trkpt>
      <trkpt lat="42.57025969214737415313720703125" lon="0.01980585046112537384033203125">
        <ele>1080</ele>
        <time>2020-08-16T11:34:25.000Z</time>
      </trkpt>
      <trkpt lat="42.570305205881595611572265625" lon="0.01970862038433551788330078125">
        <ele>1080.800048828125</ele>
        <time>2020-08-16T11:34:30.000Z</time>
      </trkpt>
      <trkpt lat="42.5703142583370208740234375" lon="0.01968800090253353118896484375">
        <ele>1081</ele>
        <time>2020-08-16T11:34:31.000Z</time>
      </trkpt>
      <trkpt lat="42.57037268020212650299072265625" lon="0.0195725820958614349365234375">
        <ele>1082</ele>
        <time>2020-08-16T11:34:37.000Z</time>
      </trkpt>
      <trkpt lat="42.5703898631036281585693359375" lon="0.01953578554093837738037109375">
        <ele>1082.199951171875</ele>
        <time>2020-08-16T11:34:39.000Z</time>
      </trkpt>
      <trkpt lat="42.5704512186348438262939453125" lon="0.0194538943469524383544921875">
        <ele>1083.199951171875</ele>
        <time>2020-08-16T11:34:44.000Z</time>
      </trkpt>
      <trkpt lat="42.5704709999263286590576171875" lon="0.01941760070621967315673828125">
        <ele>1083.800048828125</ele>
        <time>2020-08-16T11:34:46.000Z</time>
      </trkpt>
      <trkpt lat="42.5705072097480297088623046875" lon="0.0193670578300952911376953125">
        <ele>1084.5999755859375</ele>
        <time>2020-08-16T11:34:49.000Z</time>
      </trkpt>
      <trkpt lat="42.5705628655850887298583984375" lon="0.01928164623677730560302734375">
        <ele>1085.5999755859375</ele>
        <time>2020-08-16T11:34:54.000Z</time>
      </trkpt>
      <trkpt lat="42.57057233713567256927490234375" lon="0.01926337368786334991455078125">
        <ele>1085.800048828125</ele>
        <time>2020-08-16T11:34:55.000Z</time>
      </trkpt>
      <trkpt lat="42.57064743898808956146240234375" lon="0.01913613639771938323974609375">
        <ele>1086.800048828125</ele>
        <time>2020-08-16T11:35:02.000Z</time>
      </trkpt>
      <trkpt lat="42.570656575262546539306640625" lon="0.019115097820758819580078125">
        <ele>1087</ele>
        <time>2020-08-16T11:35:03.000Z</time>
      </trkpt>
      <trkpt lat="42.57069421000778675079345703125" lon="0.01900822855532169342041015625">
        <ele>1088</ele>
        <time>2020-08-16T11:35:08.000Z</time>
      </trkpt>
      <trkpt lat="42.57072874344885349273681640625" lon="0.01892901957035064697265625">
        <ele>1088.4000244140625</ele>
        <time>2020-08-16T11:35:12.000Z</time>
      </trkpt>
      <trkpt lat="42.57073813118040561676025390625" lon="0.0188856013119220733642578125">
        <ele>1089.199951171875</ele>
        <time>2020-08-16T11:35:14.000Z</time>
      </trkpt>
      <trkpt lat="42.5707610137760639190673828125" lon="0.0187518261373043060302734375">
        <ele>1090.199951171875</ele>
        <time>2020-08-16T11:35:20.000Z</time>
      </trkpt>
      <trkpt lat="42.57080376148223876953125" lon="0.01862215809524059295654296875">
        <ele>1091.4000244140625</ele>
        <time>2020-08-16T11:35:26.000Z</time>
      </trkpt>
      <trkpt lat="42.57082530297338962554931640625" lon="0.0185570307075977325439453125">
        <ele>1091.800048828125</ele>
        <time>2020-08-16T11:35:29.000Z</time>
      </trkpt>
      <trkpt lat="42.5708505325019359588623046875" lon="0.018462650477886199951171875">
        <ele>1092.5999755859375</ele>
        <time>2020-08-16T11:35:33.000Z</time>
      </trkpt>
      <trkpt lat="42.57086218334734439849853515625" lon="0.0183903984725475311279296875">
        <ele>1093</ele>
        <time>2020-08-16T11:35:36.000Z</time>
      </trkpt>
      <trkpt lat="42.57085933350026607513427734375" lon="0.018365085124969482421875">
        <ele>1093</ele>
        <time>2020-08-16T11:35:37.000Z</time>
      </trkpt>
      <trkpt lat="42.570834942162036895751953125" lon="0.0182489119470119476318359375">
        <ele>1093.800048828125</ele>
        <time>2020-08-16T11:35:42.000Z</time>
      </trkpt>
      <trkpt lat="42.5707952119410037994384765625" lon="0.01814371906220912933349609375">
        <ele>1094.800048828125</ele>
        <time>2020-08-16T11:35:47.000Z</time>
      </trkpt>
      <trkpt lat="42.5707697309553623199462890625" lon="0.01811237074434757232666015625">
        <ele>1094.800048828125</ele>
        <time>2020-08-16T11:35:49.000Z</time>
      </trkpt>
      <trkpt lat="42.57073611952364444732666015625" lon="0.0180276297032833099365234375">
        <ele>1096</ele>
        <time>2020-08-16T11:35:53.000Z</time>
      </trkpt>
      <trkpt lat="42.5707258097827434539794921875" lon="0.018006674945354461669921875">
        <ele>1096.199951171875</ele>
        <time>2020-08-16T11:35:54.000Z</time>
      </trkpt>
      <trkpt lat="42.57067702710628509521484375" lon="0.01787734217941761016845703125">
        <ele>1097.199951171875</ele>
        <time>2020-08-16T11:36:00.000Z</time>
      </trkpt>
      <trkpt lat="42.5706688128411769866943359375" lon="0.01785613596439361572265625">
        <ele>1097.199951171875</ele>
        <time>2020-08-16T11:36:01.000Z</time>
      </trkpt>
      <trkpt lat="42.5706262327730655670166015625" lon="0.017753541469573974609375">
        <ele>1098.4000244140625</ele>
        <time>2020-08-16T11:36:06.000Z</time>
      </trkpt>
      <trkpt lat="42.570571415126323699951171875" lon="0.01763091422617435455322265625">
        <ele>1099</ele>
        <time>2020-08-16T11:36:12.000Z</time>
      </trkpt>
      <trkpt lat="42.570535205304622650146484375" lon="0.017576850950717926025390625">
        <ele>1099.4000244140625</ele>
        <time>2020-08-16T11:36:15.000Z</time>
      </trkpt>
      <trkpt lat="42.5704931281507015228271484375" lon="0.017490349709987640380859375">
        <ele>1099.800048828125</ele>
        <time>2020-08-16T11:36:19.000Z</time>
      </trkpt>
      <trkpt lat="42.57044895552098751068115234375" lon="0.01737660728394985198974609375">
        <ele>1100.4000244140625</ele>
        <time>2020-08-16T11:36:24.000Z</time>
      </trkpt>
      <trkpt lat="42.5704133324325084686279296875" lon="0.0172819755971431732177734375">
        <ele>1100.5999755859375</ele>
        <time>2020-08-16T11:36:28.000Z</time>
      </trkpt>
      <trkpt lat="42.5704049505293369293212890625" lon="0.01712548546493053436279296875">
        <ele>1100.800048828125</ele>
        <time>2020-08-16T11:36:34.000Z</time>
      </trkpt>
      <trkpt lat="42.5704646296799182891845703125" lon="0.016974695026874542236328125">
        <ele>1101</ele>
        <time>2020-08-16T11:36:39.000Z</time>
      </trkpt>
      <trkpt lat="42.570536546409130096435546875" lon="0.01685089431703090667724609375">
        <ele>1101.199951171875</ele>
        <time>2020-08-16T11:36:45.000Z</time>
      </trkpt>
      <trkpt lat="42.57054534740746021270751953125" lon="0.01684871502220630645751953125">
        <ele>1101.4000244140625</ele>
        <time>2020-08-16T11:36:51.000Z</time>
      </trkpt>
      <trkpt lat="42.57054467685520648956298828125" lon="0.01684821210801601409912109375">
        <ele>1101.199951171875</ele>
        <time>2020-08-16T11:36:53.000Z</time>
      </trkpt>
      <trkpt lat="42.570545263588428497314453125" lon="0.01684896647930145263671875">
        <ele>1101.4000244140625</ele>
        <time>2020-08-16T11:37:07.000Z</time>
      </trkpt>
      <trkpt lat="42.57055942900478839874267578125" lon="0.016801021993160247802734375">
        <ele>1101</ele>
        <time>2020-08-16T11:37:11.000Z</time>
      </trkpt>
      <trkpt lat="42.57062413729727268218994140625" lon="0.01660354435443878173828125">
        <ele>1100.800048828125</ele>
        <time>2020-08-16T11:37:18.000Z</time>
      </trkpt>
      <trkpt lat="42.5706661306321620941162109375" lon="0.01633289270102977752685546875">
        <ele>1100.5999755859375</ele>
        <time>2020-08-16T11:37:25.000Z</time>
      </trkpt>
      <trkpt lat="42.570687420666217803955078125" lon="0.015995018184185028076171875">
        <ele>1100.199951171875</ele>
        <time>2020-08-16T11:37:32.000Z</time>
      </trkpt>
      <trkpt lat="42.5707244686782360076904296875" lon="0.01571799628436565399169921875">
        <ele>1099.4000244140625</ele>
        <time>2020-08-16T11:37:37.000Z</time>
      </trkpt>
      <trkpt lat="42.57076243869960308074951171875" lon="0.01556443981826305389404296875">
        <ele>1099.5999755859375</ele>
        <time>2020-08-16T11:37:40.000Z</time>
      </trkpt>
      <trkpt lat="42.5708894245326519012451171875" lon="0.01527476124465465545654296875">
        <ele>1099.4000244140625</ele>
        <time>2020-08-16T11:37:47.000Z</time>
      </trkpt>
      <trkpt lat="42.571029402315616607666015625" lon="0.0150619447231292724609375">
        <ele>1099.5999755859375</ele>
        <time>2020-08-16T11:37:54.000Z</time>
      </trkpt>
      <trkpt lat="42.571189664304256439208984375" lon="0.0148438476026058197021484375">
        <ele>1099.4000244140625</ele>
        <time>2020-08-16T11:38:02.000Z</time>
      </trkpt>
      <trkpt lat="42.5712773390114307403564453125" lon="0.01466707326471805572509765625">
        <ele>1099.4000244140625</ele>
        <time>2020-08-16T11:38:08.000Z</time>
      </trkpt>
      <trkpt lat="42.57137364707887172698974609375" lon="0.0143221579492092132568359375">
        <ele>1099.199951171875</ele>
        <time>2020-08-16T11:38:17.000Z</time>
      </trkpt>
      <trkpt lat="42.57141035981476306915283203125" lon="0.01394237391650676727294921875">
        <ele>1099.199951171875</ele>
        <time>2020-08-16T11:38:26.000Z</time>
      </trkpt>
      <trkpt lat="42.57141957990825176239013671875" lon="0.01376400701701641082763671875">
        <ele>1099.5999755859375</ele>
        <time>2020-08-16T11:38:31.000Z</time>
      </trkpt>
      <trkpt lat="42.57143164984881877899169921875" lon="0.01342521049082279205322265625">
        <ele>1099.5999755859375</ele>
        <time>2020-08-16T11:38:40.000Z</time>
      </trkpt>
      <trkpt lat="42.571471296250820159912109375" lon="0.0131376273930072784423828125">
        <ele>1099.5999755859375</ele>
        <time>2020-08-16T11:38:48.000Z</time>
      </trkpt>
      <trkpt lat="42.57152971811592578887939453125" lon="0.0128070451319217681884765625">
        <ele>1099.5999755859375</ele>
        <time>2020-08-16T11:38:57.000Z</time>
      </trkpt>
      <trkpt lat="42.57160616107285022735595703125" lon="0.01254376955330371856689453125">
        <ele>1100.199951171875</ele>
        <time>2020-08-16T11:39:05.000Z</time>
      </trkpt>
      <trkpt lat="42.5716783292591571807861328125" lon="0.0121941603720188140869140625">
        <ele>1100.4000244140625</ele>
        <time>2020-08-16T11:39:14.000Z</time>
      </trkpt>
      <trkpt lat="42.57180430926382541656494140625" lon="0.01192920841276645660400390625">
        <ele>1100.5999755859375</ele>
        <time>2020-08-16T11:39:21.000Z</time>
      </trkpt>
      <trkpt lat="42.57200027815997600555419921875" lon="0.01179710961878299713134765625">
        <ele>1100.199951171875</ele>
        <time>2020-08-16T11:39:27.000Z</time>
      </trkpt>
      <trkpt lat="42.57230512797832489013671875" lon="0.01165478490293025970458984375">
        <ele>1099.5999755859375</ele>
        <time>2020-08-16T11:39:34.000Z</time>
      </trkpt>
      <trkpt lat="42.57240612991154193878173828125" lon="0.01161622814834117889404296875">
        <ele>1099.199951171875</ele>
        <time>2020-08-16T11:39:36.000Z</time>
      </trkpt>
      <trkpt lat="42.5725188665091991424560546875" lon="0.01158705912530422210693359375">
        <ele>1098.5999755859375</ele>
        <time>2020-08-16T11:39:38.000Z</time>
      </trkpt>
      <trkpt lat="42.57264317013323307037353515625" lon="0.01154146157205104827880859375">
        <ele>1098</ele>
        <time>2020-08-16T11:39:40.000Z</time>
      </trkpt>
      <trkpt lat="42.57275448180735111236572265625" lon="0.01144071109592914581298828125">
        <ele>1097.4000244140625</ele>
        <time>2020-08-16T11:39:42.000Z</time>
      </trkpt>
      <trkpt lat="42.5727954693138599395751953125" lon="0.01137147657573223114013671875">
        <ele>1097.199951171875</ele>
        <time>2020-08-16T11:39:43.000Z</time>
      </trkpt>
      <trkpt lat="42.57283075712621212005615234375" lon="0.01113929785788059234619140625">
        <ele>1097</ele>
        <time>2020-08-16T11:39:46.000Z</time>
      </trkpt>
      <trkpt lat="42.57286126725375652313232421875" lon="0.0109452567994594573974609375">
        <ele>1097.800048828125</ele>
        <time>2020-08-16T11:39:50.000Z</time>
      </trkpt>
      <trkpt lat="42.5728970579802989959716796875" lon="0.0108577497303485870361328125">
        <ele>1098.5999755859375</ele>
        <time>2020-08-16T11:39:53.000Z</time>
      </trkpt>
      <trkpt lat="42.57293988950550556182861328125" lon="0.0107779540121555328369140625">
        <ele>1099.5999755859375</ele>
        <time>2020-08-16T11:39:56.000Z</time>
      </trkpt>
      <trkpt lat="42.57295246236026287078857421875" lon="0.01074970699846744537353515625">
        <ele>1099.5999755859375</ele>
        <time>2020-08-16T11:39:57.000Z</time>
      </trkpt>
      <trkpt lat="42.572980038821697235107421875" lon="0.010599084198474884033203125">
        <ele>1100.800048828125</ele>
        <time>2020-08-16T11:40:02.000Z</time>
      </trkpt>
      <trkpt lat="42.57297693751752376556396484375" lon="0.0104306079447269439697265625">
        <ele>1102</ele>
        <time>2020-08-16T11:40:07.000Z</time>
      </trkpt>
      <trkpt lat="42.57297090254724025726318359375" lon="0.01027160324156284332275390625">
        <ele>1103</ele>
        <time>2020-08-16T11:40:12.000Z</time>
      </trkpt>
      <trkpt lat="42.57297308184206485748291015625" lon="0.0102431885898113250732421875">
        <ele>1103.199951171875</ele>
        <time>2020-08-16T11:40:13.000Z</time>
      </trkpt>
      <trkpt lat="42.57302035577595233917236328125" lon="0.01011393964290618896484375">
        <ele>1104.199951171875</ele>
        <time>2020-08-16T11:40:18.000Z</time>
      </trkpt>
      <trkpt lat="42.573034353554248809814453125" lon="0.01009390689432621002197265625">
        <ele>1104.5999755859375</ele>
        <time>2020-08-16T11:40:19.000Z</time>
      </trkpt>
      <trkpt lat="42.57308430969715118408203125" lon="0.01006373204290866851806640625">
        <ele>1105.5999755859375</ele>
        <time>2020-08-16T11:40:22.000Z</time>
      </trkpt>
      <trkpt lat="42.57312127389013767242431640625" lon="0.0100514106452465057373046875">
        <ele>1105.800048828125</ele>
        <time>2020-08-16T11:40:24.000Z</time>
      </trkpt>
      <trkpt lat="42.5732356868684291839599609375" lon="0.0100400112569332122802734375">
        <ele>1106.5999755859375</ele>
        <time>2020-08-16T11:40:30.000Z</time>
      </trkpt>
      <trkpt lat="42.5732729025185108184814453125" lon="0.01003749668598175048828125">
        <ele>1106.5999755859375</ele>
        <time>2020-08-16T11:40:32.000Z</time>
      </trkpt>
      <trkpt lat="42.57339988835155963897705078125" lon="0.00998963601887226104736328125">
        <ele>1107.5999755859375</ele>
        <time>2020-08-16T11:40:39.000Z</time>
      </trkpt>
      <trkpt lat="42.573450095951557159423828125" lon="0.00996080227196216583251953125">
        <ele>1108.199951171875</ele>
        <time>2020-08-16T11:40:42.000Z</time>
      </trkpt>
      <trkpt lat="42.57351488806307315826416015625" lon="0.0099136121571063995361328125">
        <ele>1108.800048828125</ele>
        <time>2020-08-16T11:40:46.000Z</time>
      </trkpt>
      <trkpt lat="42.57361396215856075286865234375" lon="0.00985703431069850921630859375">
        <ele>1109.800048828125</ele>
        <time>2020-08-16T11:40:52.000Z</time>
      </trkpt>
      <trkpt lat="42.5736309774219989776611328125" lon="0.00984814949333667755126953125">
        <ele>1110</ele>
        <time>2020-08-16T11:40:53.000Z</time>
      </trkpt>
      <trkpt lat="42.57372133433818817138671875" lon="0.00983188860118389129638671875">
        <ele>1111</ele>
        <time>2020-08-16T11:40:58.000Z</time>
      </trkpt>
      <trkpt lat="42.57376022636890411376953125" lon="0.00983767211437225341796875">
        <ele>1111.199951171875</ele>
        <time>2020-08-16T11:41:00.000Z</time>
      </trkpt>
      <trkpt lat="42.57382929325103759765625" lon="0.00988167710602283477783203125">
        <ele>1112</ele>
        <time>2020-08-16T11:41:04.000Z</time>
      </trkpt>
      <trkpt lat="42.57385946810245513916015625" lon="0.0099206529557704925537109375">
        <ele>1112</ele>
        <time>2020-08-16T11:41:06.000Z</time>
      </trkpt>
      <trkpt lat="42.5739561952650547027587890625" lon="0.01007177866995334625244140625">
        <ele>1111.800048828125</ele>
        <time>2020-08-16T11:41:12.000Z</time>
      </trkpt>
      <trkpt lat="42.5740742124617099761962890625" lon="0.01022994518280029296875">
        <ele>1111.4000244140625</ele>
        <time>2020-08-16T11:41:17.000Z</time>
      </trkpt>
      <trkpt lat="42.57424159906804561614990234375" lon="0.01033396460115909576416015625">
        <ele>1112</ele>
        <time>2020-08-16T11:41:23.000Z</time>
      </trkpt>
      <trkpt lat="42.57443346083164215087890625" lon="0.0103652290999889373779296875">
        <ele>1111.5999755859375</ele>
        <time>2020-08-16T11:41:29.000Z</time>
      </trkpt>
      <trkpt lat="42.57460185326635837554931640625" lon="0.010282583534717559814453125">
        <ele>1111.800048828125</ele>
        <time>2020-08-16T11:41:35.000Z</time>
      </trkpt>
      <trkpt lat="42.57467561401426792144775390625" lon="0.0101221539080142974853515625">
        <ele>1111.4000244140625</ele>
        <time>2020-08-16T11:41:39.000Z</time>
      </trkpt>
      <trkpt lat="42.57463169284164905548095703125" lon="0.00988670624792575836181640625">
        <ele>1111</ele>
        <time>2020-08-16T11:41:43.000Z</time>
      </trkpt>
      <trkpt lat="42.57460646331310272216796875" lon="0.00984798185527324676513671875">
        <ele>1110.800048828125</ele>
        <time>2020-08-16T11:41:44.000Z</time>
      </trkpt>
      <trkpt lat="42.57454820908606052398681640625" lon="0.00977673567831516265869140625">
        <ele>1111</ele>
        <time>2020-08-16T11:41:47.000Z</time>
      </trkpt>
      <trkpt lat="42.57447428070008754730224609375" lon="0.0096983648836612701416015625">
        <ele>1111.800048828125</ele>
        <time>2020-08-16T11:41:51.000Z</time>
      </trkpt>
      <trkpt lat="42.57441443391144275665283203125" lon="0.00961546786129474639892578125">
        <ele>1112.4000244140625</ele>
        <time>2020-08-16T11:41:55.000Z</time>
      </trkpt>
      <trkpt lat="42.57439498789608478546142578125" lon="0.00956852920353412628173828125">
        <ele>1113.199951171875</ele>
        <time>2020-08-16T11:41:57.000Z</time>
      </trkpt>
      <trkpt lat="42.5743732787668704986572265625" lon="0.009462498128414154052734375">
        <ele>1113.5999755859375</ele>
        <time>2020-08-16T11:42:01.000Z</time>
      </trkpt>
      <trkpt lat="42.57435978390276432037353515625" lon="0.00940977595746517181396484375">
        <ele>1114.199951171875</ele>
        <time>2020-08-16T11:42:03.000Z</time>
      </trkpt>
      <trkpt lat="42.5743134319782257080078125" lon="0.009233839809894561767578125">
        <ele>1115.199951171875</ele>
        <time>2020-08-16T11:42:10.000Z</time>
      </trkpt>
      <trkpt lat="42.5742693431675434112548828125" lon="0.00906041823327541351318359375">
        <ele>1116.4000244140625</ele>
        <time>2020-08-16T11:42:17.000Z</time>
      </trkpt>
      <trkpt lat="42.57425785996019840240478515625" lon="0.00901096500456333160400390625">
        <ele>1116.800048828125</ele>
        <time>2020-08-16T11:42:19.000Z</time>
      </trkpt>
      <trkpt lat="42.5742049701511859893798828125" lon="0.008842907845973968505859375">
        <ele>1117.5999755859375</ele>
        <time>2020-08-16T11:42:26.000Z</time>
      </trkpt>
      <trkpt lat="42.574191056191921234130859375" lon="0.00879353843629360198974609375">
        <ele>1118</ele>
        <time>2020-08-16T11:42:28.000Z</time>
      </trkpt>
      <trkpt lat="42.57416163571178913116455078125" lon="0.0086918659508228302001953125">
        <ele>1118.5999755859375</ele>
        <time>2020-08-16T11:42:32.000Z</time>
      </trkpt>
      <trkpt lat="42.57412609644234180450439453125" lon="0.0085959769785404205322265625">
        <ele>1119.5999755859375</ele>
        <time>2020-08-16T11:42:36.000Z</time>
      </trkpt>
      <trkpt lat="42.5741080753505229949951171875" lon="0.0085463561117649078369140625">
        <ele>1119.5999755859375</ele>
        <time>2020-08-16T11:42:38.000Z</time>
      </trkpt>
      <trkpt lat="42.574062310159206390380859375" lon="0.00836891122162342071533203125">
        <ele>1120.800048828125</ele>
        <time>2020-08-16T11:42:45.000Z</time>
      </trkpt>
      <trkpt lat="42.5740380026400089263916015625" lon="0.00824418850243091583251953125">
        <ele>1121.800048828125</ele>
        <time>2020-08-16T11:42:50.000Z</time>
      </trkpt>
      <trkpt lat="42.5740235857665538787841796875" lon="0.0081088207662105560302734375">
        <ele>1122.5999755859375</ele>
        <time>2020-08-16T11:42:55.000Z</time>
      </trkpt>
      <trkpt lat="42.5740219093859195709228515625" lon="0.0080830045044422149658203125">
        <ele>1122.800048828125</ele>
        <time>2020-08-16T11:42:56.000Z</time>
      </trkpt>
      <trkpt lat="42.57402149029076099395751953125" lon="0.007868595421314239501953125">
        <ele>1124</ele>
        <time>2020-08-16T11:43:04.000Z</time>
      </trkpt>
      <trkpt lat="42.57404831238090991973876953125" lon="0.0077711977064609527587890625">
        <ele>1125</ele>
        <time>2020-08-16T11:43:08.000Z</time>
      </trkpt>
      <trkpt lat="42.57408435456454753875732421875" lon="0.007679164409637451171875">
        <ele>1125.199951171875</ele>
        <time>2020-08-16T11:43:12.000Z</time>
      </trkpt>
      <trkpt lat="42.5741587020456790924072265625" lon="0.0075284577906131744384765625">
        <ele>1126</ele>
        <time>2020-08-16T11:43:19.000Z</time>
      </trkpt>
      <trkpt lat="42.57419281639158725738525390625" lon="0.007462911307811737060546875">
        <ele>1126.800048828125</ele>
        <time>2020-08-16T11:43:22.000Z</time>
      </trkpt>
      <trkpt lat="42.57424964569509029388427734375" lon="0.00735470093786716461181640625">
        <ele>1127.199951171875</ele>
        <time>2020-08-16T11:43:27.000Z</time>
      </trkpt>
      <trkpt lat="42.5742743723094463348388671875" lon="0.00731212086975574493408203125">
        <ele>1127.4000244140625</ele>
        <time>2020-08-16T11:43:29.000Z</time>
      </trkpt>
      <trkpt lat="42.574318461120128631591796875" lon="0.00722712837159633636474609375">
        <ele>1128.199951171875</ele>
        <time>2020-08-16T11:43:33.000Z</time>
      </trkpt>
      <trkpt lat="42.574379146099090576171875" lon="0.00709888525307178497314453125">
        <ele>1128.5999755859375</ele>
        <time>2020-08-16T11:43:39.000Z</time>
      </trkpt>
      <trkpt lat="42.5744269229471683502197265625" lon="0.0069913454353809356689453125">
        <ele>1129.4000244140625</ele>
        <time>2020-08-16T11:43:44.000Z</time>
      </trkpt>
      <trkpt lat="42.57445885799825191497802734375" lon="0.006906352937221527099609375">
        <ele>1129.800048828125</ele>
        <time>2020-08-16T11:43:48.000Z</time>
      </trkpt>
      <trkpt lat="42.5744859315454959869384765625" lon="0.00684239901602268218994140625">
        <ele>1130.5999755859375</ele>
        <time>2020-08-16T11:43:51.000Z</time>
      </trkpt>
      <trkpt lat="42.57451954297721385955810546875" lon="0.006751455366611480712890625">
        <ele>1131.4000244140625</ele>
        <time>2020-08-16T11:43:55.000Z</time>
      </trkpt>
      <trkpt lat="42.57454879581928253173828125" lon="0.00668783672153949737548828125">
        <ele>1131.800048828125</ele>
        <time>2020-08-16T11:43:58.000Z</time>
      </trkpt>
      <trkpt lat="42.574610821902751922607421875" lon="0.0065682269632816314697265625">
        <ele>1132.5999755859375</ele>
        <time>2020-08-16T11:44:04.000Z</time>
      </trkpt>
      <trkpt lat="42.57462448440492153167724609375" lon="0.00654794275760650634765625">
        <ele>1132.800048828125</ele>
        <time>2020-08-16T11:44:05.000Z</time>
      </trkpt>
      <trkpt lat="42.57468030788004398345947265625" lon="0.00642145983874797821044921875">
        <ele>1134.199951171875</ele>
        <time>2020-08-16T11:44:11.000Z</time>
      </trkpt>
      <trkpt lat="42.5746944732964038848876953125" lon="0.00637703575193881988525390625">
        <ele>1134.4000244140625</ele>
        <time>2020-08-16T11:44:13.000Z</time>
      </trkpt>
      <trkpt lat="42.5747437588870525360107421875" lon="0.00619523227214813232421875">
        <ele>1135.4000244140625</ele>
        <time>2020-08-16T11:44:20.000Z</time>
      </trkpt>
      <trkpt lat="42.57475038059055805206298828125" lon="0.00617151148617267608642578125">
        <ele>1135.5999755859375</ele>
        <time>2020-08-16T11:44:21.000Z</time>
      </trkpt>
      <trkpt lat="42.5747910328209400177001953125" lon="0.0060381554067134857177734375">
        <ele>1136.5999755859375</ele>
        <time>2020-08-16T11:44:26.000Z</time>
      </trkpt>
      <trkpt lat="42.57484308443963527679443359375" lon="0.0059499777853488922119140625">
        <ele>1137.199951171875</ele>
        <time>2020-08-16T11:44:30.000Z</time>
      </trkpt>
      <trkpt lat="42.57491734810173511505126953125" lon="0.00588250346481800079345703125">
        <ele>1138</ele>
        <time>2020-08-16T11:44:35.000Z</time>
      </trkpt>
      <trkpt lat="42.57494903169572353363037109375" lon="0.00586389563977718353271484375">
        <ele>1138.199951171875</ele>
        <time>2020-08-16T11:44:37.000Z</time>
      </trkpt>
      <trkpt lat="42.57505196146667003631591796875" lon="0.00584076158702373504638671875">
        <ele>1139.199951171875</ele>
        <time>2020-08-16T11:44:43.000Z</time>
      </trkpt>
      <trkpt lat="42.57506922818720340728759765625" lon="0.0058426894247531890869140625">
        <ele>1139.4000244140625</ele>
        <time>2020-08-16T11:44:44.000Z</time>
      </trkpt>
      <trkpt lat="42.57517366670072078704833984375" lon="0.0059426017105579376220703125">
        <ele>1140.199951171875</ele>
        <time>2020-08-16T11:44:51.000Z</time>
      </trkpt>
      <trkpt lat="42.57519177161157131195068359375" lon="0.005990378558635711669921875">
        <ele>1140.4000244140625</ele>
        <time>2020-08-16T11:44:53.000Z</time>
      </trkpt>
      <trkpt lat="42.575221024453639984130859375" lon="0.00611568801105022430419921875">
        <ele>1141.5999755859375</ele>
        <time>2020-08-16T11:44:58.000Z</time>
      </trkpt>
      <trkpt lat="42.57522848434746265411376953125" lon="0.006139911711215972900390625">
        <ele>1141.5999755859375</ele>
        <time>2020-08-16T11:44:59.000Z</time>
      </trkpt>
      <trkpt lat="42.575305514037609100341796875" lon="0.00632188282907009124755859375">
        <ele>1142.5999755859375</ele>
        <time>2020-08-16T11:45:07.000Z</time>
      </trkpt>
      <trkpt lat="42.57540039718151092529296875" lon="0.0064602680504322052001953125">
        <ele>1143.4000244140625</ele>
        <time>2020-08-16T11:45:14.000Z</time>
      </trkpt>
      <trkpt lat="42.57545261643826961517333984375" lon="0.00651516951620578765869140625">
        <ele>1143.5999755859375</ele>
        <time>2020-08-16T11:45:17.000Z</time>
      </trkpt>
      <trkpt lat="42.5755393691360950469970703125" lon="0.00659010373055934906005859375">
        <ele>1144.5999755859375</ele>
        <time>2020-08-16T11:45:22.000Z</time>
      </trkpt>
      <trkpt lat="42.57555621676146984100341796875" lon="0.0066027604043483734130859375">
        <ele>1144.800048828125</ele>
        <time>2020-08-16T11:45:23.000Z</time>
      </trkpt>
      <trkpt lat="42.57564590312540531158447265625" lon="0.0066590867936611175537109375">
        <ele>1145.800048828125</ele>
        <time>2020-08-16T11:45:28.000Z</time>
      </trkpt>
      <trkpt lat="42.57570960558950901031494140625" lon="0.00667241401970386505126953125">
        <ele>1146.199951171875</ele>
        <time>2020-08-16T11:45:31.000Z</time>
      </trkpt>
      <trkpt lat="42.575758136808872222900390625" lon="0.0066671334207057952880859375">
        <ele>1146</ele>
        <time>2020-08-16T11:45:33.000Z</time>
      </trkpt>
      <trkpt lat="42.57586282677948474884033203125" lon="0.00656009651720523834228515625">
        <ele>1145.5999755859375</ele>
        <time>2020-08-16T11:45:39.000Z</time>
      </trkpt>
      <trkpt lat="42.5758887268602848052978515625" lon="0.00636613927781581878662109375">
        <ele>1146.4000244140625</ele>
        <time>2020-08-16T11:45:45.000Z</time>
      </trkpt>
      <trkpt lat="42.57591362111270427703857421875" lon="0.00619179569184780120849609375">
        <ele>1146.800048828125</ele>
        <time>2020-08-16T11:45:52.000Z</time>
      </trkpt>
      <trkpt lat="42.57591529749333858489990234375" lon="0.00618726946413516998291015625">
        <ele>1146.5999755859375</ele>
        <time>2020-08-16T11:45:53.000Z</time>
      </trkpt>
      <trkpt lat="42.5759487412869930267333984375" lon="0.0061182864010334014892578125">
        <ele>1147.4000244140625</ele>
        <time>2020-08-16T11:46:29.000Z</time>
      </trkpt>
      <trkpt lat="42.575974054634571075439453125" lon="0.0060684978961944580078125">
        <ele>1147.4000244140625</ele>
        <time>2020-08-16T11:46:31.000Z</time>
      </trkpt>
      <trkpt lat="42.5760781578719615936279296875" lon="0.00586188398301601409912109375">
        <ele>1147.5999755859375</ele>
        <time>2020-08-16T11:46:38.000Z</time>
      </trkpt>
      <trkpt lat="42.576111517846584320068359375" lon="0.00571000389754772186279296875">
        <ele>1148</ele>
        <time>2020-08-16T11:46:43.000Z</time>
      </trkpt>
      <trkpt lat="42.5760801695287227630615234375" lon="0.0055191479623317718505859375">
        <ele>1148.199951171875</ele>
        <time>2020-08-16T11:46:48.000Z</time>
      </trkpt>
      <trkpt lat="42.57593926973640918731689453125" lon="0.0052341632544994354248046875">
        <ele>1147.4000244140625</ele>
        <time>2020-08-16T11:46:55.000Z</time>
      </trkpt>
      <trkpt lat="42.57588847540318965911865234375" lon="0.0049982964992523193359375">
        <ele>1147.4000244140625</ele>
        <time>2020-08-16T11:47:00.000Z</time>
      </trkpt>
      <trkpt lat="42.57595553062856197357177734375" lon="0.0048090331256389617919921875">
        <ele>1147.199951171875</ele>
        <time>2020-08-16T11:47:04.000Z</time>
      </trkpt>
      <trkpt lat="42.576096765697002410888671875" lon="0.0046554766595363616943359375">
        <ele>1146.4000244140625</ele>
        <time>2020-08-16T11:47:08.000Z</time>
      </trkpt>
      <trkpt lat="42.5761381722986698150634765625" lon="0.0046169199049472808837890625">
        <ele>1146.199951171875</ele>
        <time>2020-08-16T11:47:09.000Z</time>
      </trkpt>
      <trkpt lat="42.57618100382387638092041015625" lon="0.00457643531262874603271484375">
        <ele>1146</ele>
        <time>2020-08-16T11:47:10.000Z</time>
      </trkpt>
      <trkpt lat="42.57640262134373188018798828125" lon="0.0043336115777492523193359375">
        <ele>1145</ele>
        <time>2020-08-16T11:47:15.000Z</time>
      </trkpt>
      <trkpt lat="42.5764399208128452301025390625" lon="0.00426898710429668426513671875">
        <ele>1144.800048828125</ele>
        <time>2020-08-16T11:47:16.000Z</time>
      </trkpt>
      <trkpt lat="42.57647219114005565643310546875" lon="0.0041984952986240386962890625">
        <ele>1144.4000244140625</ele>
        <time>2020-08-16T11:47:17.000Z</time>
      </trkpt>
      <trkpt lat="42.576498426496982574462890625" lon="0.004122890532016754150390625">
        <ele>1144</ele>
        <time>2020-08-16T11:47:18.000Z</time>
      </trkpt>
      <trkpt lat="42.57653790526092052459716796875" lon="0.0039611198008060455322265625">
        <ele>1143.4000244140625</ele>
        <time>2020-08-16T11:47:20.000Z</time>
      </trkpt>
      <trkpt lat="42.57665290497243404388427734375" lon="0.00364872626960277557373046875">
        <ele>1142.5999755859375</ele>
        <time>2020-08-16T11:47:24.000Z</time>
      </trkpt>
      <trkpt lat="42.5766870193183422088623046875" lon="0.0035705231130123138427734375">
        <ele>1142.4000244140625</ele>
        <time>2020-08-16T11:47:25.000Z</time>
      </trkpt>
      <trkpt lat="42.57676036097109317779541015625" lon="0.003414787352085113525390625">
        <ele>1141.4000244140625</ele>
        <time>2020-08-16T11:47:27.000Z</time>
      </trkpt>
      <trkpt lat="42.5768026895821094512939453125" lon="0.0033418647944927215576171875">
        <ele>1140.800048828125</ele>
        <time>2020-08-16T11:47:28.000Z</time>
      </trkpt>
      <trkpt lat="42.576898746192455291748046875" lon="0.0032293796539306640625">
        <ele>1140.4000244140625</ele>
        <time>2020-08-16T11:47:30.000Z</time>
      </trkpt>
      <trkpt lat="42.5769535638391971588134765625" lon="0.00319425947964191436767578125">
        <ele>1140.199951171875</ele>
        <time>2020-08-16T11:47:31.000Z</time>
      </trkpt>
      <trkpt lat="42.57714257575571537017822265625" lon="0.00309384427964687347412109375">
        <ele>1138.800048828125</ele>
        <time>2020-08-16T11:47:34.000Z</time>
      </trkpt>
      <trkpt lat="42.5772455893456935882568359375" lon="0.00286619178950786590576171875">
        <ele>1138</ele>
        <time>2020-08-16T11:47:37.000Z</time>
      </trkpt>
      <trkpt lat="42.57729998789727687835693359375" lon="0.00269017182290554046630859375">
        <ele>1138.199951171875</ele>
        <time>2020-08-16T11:47:40.000Z</time>
      </trkpt>
      <trkpt lat="42.57739738561213016510009765625" lon="0.002583302557468414306640625">
        <ele>1139</ele>
        <time>2020-08-16T11:47:44.000Z</time>
      </trkpt>
      <trkpt lat="42.57742286659777164459228515625" lon="0.00256645493209362030029296875">
        <ele>1139</ele>
        <time>2020-08-16T11:47:45.000Z</time>
      </trkpt>
      <trkpt lat="42.57758346386253833770751953125" lon="0.0025479309260845184326171875">
        <ele>1138.800048828125</ele>
        <time>2020-08-16T11:47:51.000Z</time>
      </trkpt>
      <trkpt lat="42.57780591957271099090576171875" lon="0.002549104392528533935546875">
        <ele>1138.5999755859375</ele>
        <time>2020-08-16T11:47:58.000Z</time>
      </trkpt>
      <trkpt lat="42.577837519347667694091796875" lon="0.00251733697950839996337890625">
        <ele>1138.5999755859375</ele>
        <time>2020-08-16T11:47:59.000Z</time>
      </trkpt>
      <trkpt lat="42.57787473499774932861328125" lon="0.00242262147367000579833984375">
        <ele>1138.4000244140625</ele>
        <time>2020-08-16T11:48:01.000Z</time>
      </trkpt>
      <trkpt lat="42.57786744274199008941650390625" lon="0.00228314660489559173583984375">
        <ele>1138.5999755859375</ele>
        <time>2020-08-16T11:48:04.000Z</time>
      </trkpt>
      <trkpt lat="42.57786124013364315032958984375" lon="0.0021982379257678985595703125">
        <ele>1138.5999755859375</ele>
        <time>2020-08-16T11:48:06.000Z</time>
      </trkpt>
      <trkpt lat="42.57789024151861667633056640625" lon="0.00190160237252712249755859375">
        <ele>1139</ele>
        <time>2020-08-16T11:48:13.000Z</time>
      </trkpt>
      <trkpt lat="42.5780016370117664337158203125" lon="0.00178107060492038726806640625">
        <ele>1138.800048828125</ele>
        <time>2020-08-16T11:48:17.000Z</time>
      </trkpt>
      <trkpt lat="42.57807724177837371826171875" lon="0.00173480249941349029541015625">
        <ele>1138.4000244140625</ele>
        <time>2020-08-16T11:48:19.000Z</time>
      </trkpt>
      <trkpt lat="42.5782390125095844268798828125" lon="0.00161410309374332427978515625">
        <ele>1137.5999755859375</ele>
        <time>2020-08-16T11:48:23.000Z</time>
      </trkpt>
      <trkpt lat="42.57847345434129238128662109375" lon="0.00145845115184783935546875">
        <ele>1136.4000244140625</ele>
        <time>2020-08-16T11:48:28.000Z</time>
      </trkpt>
      <trkpt lat="42.57851754315197467803955078125" lon="0.0014095008373260498046875">
        <ele>1136</ele>
        <time>2020-08-16T11:48:29.000Z</time>
      </trkpt>
      <trkpt lat="42.5787055492401123046875" lon="0.00113063491880893707275390625">
        <ele>1135.4000244140625</ele>
        <time>2020-08-16T11:48:34.000Z</time>
      </trkpt>
      <trkpt lat="42.57874720729887485504150390625" lon="0.0010914914309978485107421875">
        <ele>1135.5999755859375</ele>
        <time>2020-08-16T11:48:35.000Z</time>
      </trkpt>
      <trkpt lat="42.57888232357800006866455078125" lon="0.0010339915752410888671875">
        <ele>1135.800048828125</ele>
        <time>2020-08-16T11:48:38.000Z</time>
      </trkpt>
      <trkpt lat="42.57892859168350696563720703125" lon="0.00102686695754528045654296875">
        <ele>1135.5999755859375</ele>
        <time>2020-08-16T11:48:39.000Z</time>
      </trkpt>
      <trkpt lat="42.57902263663709163665771484375" lon="0.00101529993116855621337890625">
        <ele>1135.199951171875</ele>
        <time>2020-08-16T11:48:41.000Z</time>
      </trkpt>
      <trkpt lat="42.57906890474259853363037109375" lon="0.00100440345704555511474609375">
        <ele>1135.199951171875</ele>
        <time>2020-08-16T11:48:42.000Z</time>
      </trkpt>
      <trkpt lat="42.5791529752314090728759765625" lon="0.00094480812549591064453125">
        <ele>1134.800048828125</ele>
        <time>2020-08-16T11:48:44.000Z</time>
      </trkpt>
      <trkpt lat="42.5792257301509380340576171875" lon="0.000796951353549957275390625">
        <ele>1134.4000244140625</ele>
        <time>2020-08-16T11:48:47.000Z</time>
      </trkpt>
      <trkpt lat="42.579228915274143218994140625" lon="0.00071187503635883331298828125">
        <ele>1134.800048828125</ele>
        <time>2020-08-16T11:48:49.000Z</time>
      </trkpt>
      <trkpt lat="42.579224221408367156982421875" lon="0.0006351806223392486572265625">
        <ele>1135.5999755859375</ele>
        <time>2020-08-16T11:48:51.000Z</time>
      </trkpt>
      <trkpt lat="42.57917694747447967529296875" lon="0.00044566579163074493408203125">
        <ele>1136.4000244140625</ele>
        <time>2020-08-16T11:48:57.000Z</time>
      </trkpt>
      <trkpt lat="42.579167224466800689697265625" lon="0.00035740435123443603515625">
        <ele>1137.4000244140625</ele>
        <time>2020-08-16T11:49:00.000Z</time>
      </trkpt>
      <trkpt lat="42.579179294407367706298828125" lon="0.0002174265682697296142578125">
        <ele>1138.4000244140625</ele>
        <time>2020-08-16T11:49:05.000Z</time>
      </trkpt>
      <trkpt lat="42.579198069870471954345703125" lon="0.00016856007277965545654296875">
        <ele>1138.5999755859375</ele>
        <time>2020-08-16T11:49:07.000Z</time>
      </trkpt>
      <trkpt lat="42.57922950200736522674560546875" lon="0.0000625289976596832275390625">
        <ele>1139.5999755859375</ele>
        <time>2020-08-16T11:49:11.000Z</time>
      </trkpt>
      <trkpt lat="42.5792394764721393585205078125" lon="0.00003688037395477294921875">
        <ele>1140</ele>
        <time>2020-08-16T11:49:12.000Z</time>
      </trkpt>
      <trkpt lat="42.57929437793791294097900390625" lon="-0.00008457340300083160400390625">
        <ele>1140.800048828125</ele>
        <time>2020-08-16T11:49:17.000Z</time>
      </trkpt>
      <trkpt lat="42.57932824082672595977783203125" lon="-0.00015380792319774627685546875">
        <ele>1141.4000244140625</ele>
        <time>2020-08-16T11:49:20.000Z</time>
      </trkpt>
      <trkpt lat="42.57935992442071437835693359375" lon="-0.00022639520466327667236328125">
        <ele>1141.800048828125</ele>
        <time>2020-08-16T11:49:23.000Z</time>
      </trkpt>
      <trkpt lat="42.57941440679132938385009765625" lon="-0.0003045983612537384033203125">
        <ele>1142.4000244140625</ele>
        <time>2020-08-16T11:49:27.000Z</time>
      </trkpt>
      <trkpt lat="42.57945195771753787994384765625" lon="-0.000367462635040283203125">
        <ele>1143</ele>
        <time>2020-08-16T11:49:30.000Z</time>
      </trkpt>
      <trkpt lat="42.57951666601002216339111328125" lon="-0.00045388005673885345458984375">
        <ele>1144</ele>
        <time>2020-08-16T11:49:35.000Z</time>
      </trkpt>
      <trkpt lat="42.57965194992721080780029296875" lon="-0.000548176467418670654296875">
        <ele>1145.199951171875</ele>
        <time>2020-08-16T11:49:43.000Z</time>
      </trkpt>
      <trkpt lat="42.57977231405675411224365234375" lon="-0.00062017701566219329833984375">
        <ele>1146.199951171875</ele>
        <time>2020-08-16T11:49:50.000Z</time>
      </trkpt>
      <trkpt lat="42.5797883234918117523193359375" lon="-0.00063241459429264068603515625">
        <ele>1146.4000244140625</ele>
        <time>2020-08-16T11:49:51.000Z</time>
      </trkpt>
      <trkpt lat="42.579891420900821685791015625" lon="-0.00074305571615695953369140625">
        <ele>1147.199951171875</ele>
        <time>2020-08-16T11:49:58.000Z</time>
      </trkpt>
      <trkpt lat="42.57991396822035312652587890625" lon="-0.00078211538493633270263671875">
        <ele>1147.5999755859375</ele>
        <time>2020-08-16T11:50:00.000Z</time>
      </trkpt>
      <trkpt lat="42.5799713842570781707763671875" lon="-0.00090398825705051422119140625">
        <ele>1148.5999755859375</ele>
        <time>2020-08-16T11:50:06.000Z</time>
      </trkpt>
      <trkpt lat="42.57998085580766201019287109375" lon="-0.0009228475391864776611328125">
        <ele>1148.800048828125</ele>
        <time>2020-08-16T11:50:07.000Z</time>
      </trkpt>
      <trkpt lat="42.58002209477126598358154296875" lon="-0.00100105069577693939208984375">
        <ele>1149.800048828125</ele>
        <time>2020-08-16T11:50:11.000Z</time>
      </trkpt>
      <trkpt lat="42.5800320692360401153564453125" lon="-0.00102259218692779541015625">
        <ele>1149.800048828125</ele>
        <time>2020-08-16T11:50:12.000Z</time>
      </trkpt>
      <trkpt lat="42.58009292185306549072265625" lon="-0.0011206604540348052978515625">
        <ele>1150.5999755859375</ele>
        <time>2020-08-16T11:50:17.000Z</time>
      </trkpt>
      <trkpt lat="42.58010675199329853057861328125" lon="-0.00113951973617076873779296875">
        <ele>1150.800048828125</ele>
        <time>2020-08-16T11:50:18.000Z</time>
      </trkpt>
      <trkpt lat="42.5801826082170009613037109375" lon="-0.00128955580294132232666015625">
        <ele>1152</ele>
        <time>2020-08-16T11:50:25.000Z</time>
      </trkpt>
      <trkpt lat="42.5801956839859485626220703125" lon="-0.00147588551044464111328125">
        <ele>1153.4000244140625</ele>
        <time>2020-08-16T11:50:32.000Z</time>
      </trkpt>
      <trkpt lat="42.58020767010748386383056640625" lon="-0.001655928790569305419921875">
        <ele>1154.4000244140625</ele>
        <time>2020-08-16T11:50:39.000Z</time>
      </trkpt>
      <trkpt lat="42.5802225060760974884033203125" lon="-0.00173429958522319793701171875">
        <ele>1154.800048828125</ele>
        <time>2020-08-16T11:50:42.000Z</time>
      </trkpt>
      <trkpt lat="42.58025662042200565338134765625" lon="-0.00185902230441570281982421875">
        <ele>1155.5999755859375</ele>
        <time>2020-08-16T11:50:47.000Z</time>
      </trkpt>
      <trkpt lat="42.58028662763535976409912109375" lon="-0.00198290683329105377197265625">
        <ele>1156.4000244140625</ele>
        <time>2020-08-16T11:50:52.000Z</time>
      </trkpt>
      <trkpt lat="42.58029517717659473419189453125" lon="-0.00200704671442508697509765625">
        <ele>1156.800048828125</ele>
        <time>2020-08-16T11:50:53.000Z</time>
      </trkpt>
      <trkpt lat="42.5803381763398647308349609375" lon="-0.00217703171074390411376953125">
        <ele>1157.800048828125</ele>
        <time>2020-08-16T11:51:00.000Z</time>
      </trkpt>
      <trkpt lat="42.58034446276724338531494140625" lon="-0.00222598202526569366455078125">
        <ele>1158.4000244140625</ele>
        <time>2020-08-16T11:51:02.000Z</time>
      </trkpt>
      <trkpt lat="42.58036742918193340301513671875" lon="-0.002320446074008941650390625">
        <ele>1159</ele>
        <time>2020-08-16T11:51:06.000Z</time>
      </trkpt>
      <trkpt lat="42.58039534091949462890625" lon="-0.0024674646556377410888671875">
        <ele>1160</ele>
        <time>2020-08-16T11:51:12.000Z</time>
      </trkpt>
      <trkpt lat="42.58044253103435039520263671875" lon="-0.00260115601122379302978515625">
        <ele>1161</ele>
        <time>2020-08-16T11:51:18.000Z</time>
      </trkpt>
      <trkpt lat="42.58044856600463390350341796875" lon="-0.0026253797113895416259765625">
        <ele>1161.199951171875</ele>
        <time>2020-08-16T11:51:19.000Z</time>
      </trkpt>
      <trkpt lat="42.580478489398956298828125" lon="-0.0027450732886791229248046875">
        <ele>1162.199951171875</ele>
        <time>2020-08-16T11:51:24.000Z</time>
      </trkpt>
      <trkpt lat="42.5804974325001239776611328125" lon="-0.00281564891338348388671875">
        <ele>1162.4000244140625</ele>
        <time>2020-08-16T11:51:27.000Z</time>
      </trkpt>
      <trkpt lat="42.58051159791648387908935546875" lon="-0.0028952769935131072998046875">
        <ele>1163.199951171875</ele>
        <time>2020-08-16T11:51:30.000Z</time>
      </trkpt>
      <trkpt lat="42.58053959347307682037353515625" lon="-0.00302326865494251251220703125">
        <ele>1164</ele>
        <time>2020-08-16T11:51:35.000Z</time>
      </trkpt>
      <trkpt lat="42.58055786602199077606201171875" lon="-0.00306786037981510162353515625">
        <ele>1164.5999755859375</ele>
        <time>2020-08-16T11:51:37.000Z</time>
      </trkpt>
      <trkpt lat="42.5806402601301670074462890625" lon="-0.003143213689327239990234375">
        <ele>1165.4000244140625</ele>
        <time>2020-08-16T11:51:42.000Z</time>
      </trkpt>
      <trkpt lat="42.58066129870712757110595703125" lon="-0.0031490810215473175048828125">
        <ele>1165.5999755859375</ele>
        <time>2020-08-16T11:51:43.000Z</time>
      </trkpt>
      <trkpt lat="42.58074981160461902618408203125" lon="-0.00316626392304897308349609375">
        <ele>1166.4000244140625</ele>
        <time>2020-08-16T11:51:48.000Z</time>
      </trkpt>
      <trkpt lat="42.58079163730144500732421875" lon="-0.00316676683723926544189453125">
        <ele>1166.5999755859375</ele>
        <time>2020-08-16T11:51:50.000Z</time>
      </trkpt>
      <trkpt lat="42.58085290901362895965576171875" lon="-0.00317850150167942047119140625">
        <ele>1167.199951171875</ele>
        <time>2020-08-16T11:51:53.000Z</time>
      </trkpt>
      <trkpt lat="42.5809306092560291290283203125" lon="-0.00320347957313060760498046875">
        <ele>1167.800048828125</ele>
        <time>2020-08-16T11:51:57.000Z</time>
      </trkpt>
      <trkpt lat="42.5809517316520214080810546875" lon="-0.00320850871503353118896484375">
        <ele>1168</ele>
        <time>2020-08-16T11:51:58.000Z</time>
      </trkpt>
      <trkpt lat="42.581105791032314300537109375" lon="-0.0032422877848148345947265625">
        <ele>1168.5999755859375</ele>
        <time>2020-08-16T11:52:05.000Z</time>
      </trkpt>
      <trkpt lat="42.58115013130009174346923828125" lon="-0.0032476522028446197509765625">
        <ele>1168.800048828125</ele>
        <time>2020-08-16T11:52:07.000Z</time>
      </trkpt>
      <trkpt lat="42.5812903605401515960693359375" lon="-0.00327388755977153778076171875">
        <ele>1169.5999755859375</ele>
        <time>2020-08-16T11:52:13.000Z</time>
      </trkpt>
      <trkpt lat="42.581335119903087615966796875" lon="-0.00327707268297672271728515625">
        <ele>1170</ele>
        <time>2020-08-16T11:52:15.000Z</time>
      </trkpt>
      <trkpt lat="42.58145255036652088165283203125" lon="-0.003301799297332763671875">
        <ele>1170.5999755859375</ele>
        <time>2020-08-16T11:52:20.000Z</time>
      </trkpt>
      <trkpt lat="42.5815384648740291595458984375" lon="-0.00335351563990116119384765625">
        <ele>1171.199951171875</ele>
        <time>2020-08-16T11:52:24.000Z</time>
      </trkpt>
      <trkpt lat="42.5816008262336254119873046875" lon="-0.00340028665959835052490234375">
        <ele>1171.5999755859375</ele>
        <time>2020-08-16T11:52:27.000Z</time>
      </trkpt>
      <trkpt lat="42.58167835883796215057373046875" lon="-0.00347941182553768157958984375">
        <ele>1172.199951171875</ele>
        <time>2020-08-16T11:52:31.000Z</time>
      </trkpt>
      <trkpt lat="42.58177408017218112945556640625" lon="-0.003595836460590362548828125">
        <ele>1173</ele>
        <time>2020-08-16T11:52:36.000Z</time>
      </trkpt>
      <trkpt lat="42.581813223659992218017578125" lon="-0.00364369712769985198974609375">
        <ele>1173.199951171875</ele>
        <time>2020-08-16T11:52:38.000Z</time>
      </trkpt>
      <trkpt lat="42.58189008571207523345947265625" lon="-0.0037403404712677001953125">
        <ele>1174</ele>
        <time>2020-08-16T11:52:42.000Z</time>
      </trkpt>
      <trkpt lat="42.58192545734345912933349609375" lon="-0.0037872791290283203125">
        <ele>1174.4000244140625</ele>
        <time>2020-08-16T11:52:44.000Z</time>
      </trkpt>
      <trkpt lat="42.58197222836315631866455078125" lon="-0.00386665575206279754638671875">
        <ele>1174.800048828125</ele>
        <time>2020-08-16T11:52:47.000Z</time>
      </trkpt>
      <trkpt lat="42.58204959332942962646484375" lon="-0.00399473123252391815185546875">
        <ele>1175.800048828125</ele>
        <time>2020-08-16T11:52:52.000Z</time>
      </trkpt>
      <trkpt lat="42.5820973701775074005126953125" lon="-0.00407218001782894134521484375">
        <ele>1176.199951171875</ele>
        <time>2020-08-16T11:52:55.000Z</time>
      </trkpt>
      <trkpt lat="42.58216015063226222991943359375" lon="-0.00417360104620456695556640625">
        <ele>1176.800048828125</ele>
        <time>2020-08-16T11:52:59.000Z</time>
      </trkpt>
      <trkpt lat="42.5822019763290882110595703125" lon="-0.0042963959276676177978515625">
        <ele>1177.199951171875</ele>
        <time>2020-08-16T11:53:03.000Z</time>
      </trkpt>
      <trkpt lat="42.5822217576205730438232421875" lon="-0.004391781985759735107421875">
        <ele>1178</ele>
        <time>2020-08-16T11:53:06.000Z</time>
      </trkpt>
      <trkpt lat="42.5822566263377666473388671875" lon="-0.00457643531262874603271484375">
        <ele>1179</ele>
        <time>2020-08-16T11:53:12.000Z</time>
      </trkpt>
      <trkpt lat="42.582263164222240447998046875" lon="-0.00460493378341197967529296875">
        <ele>1179.199951171875</ele>
        <time>2020-08-16T11:53:13.000Z</time>
      </trkpt>
      <trkpt lat="42.58230146951973438262939453125" lon="-0.0047439895570278167724609375">
        <ele>1180</ele>
        <time>2020-08-16T11:53:18.000Z</time>
      </trkpt>
      <trkpt lat="42.58232007734477519989013671875" lon="-0.0048566423356533050537109375">
        <ele>1181</ele>
        <time>2020-08-16T11:53:22.000Z</time>
      </trkpt>
      <trkpt lat="42.5823072530329227447509765625" lon="-0.00506644137203693389892578125">
        <ele>1182.199951171875</ele>
        <time>2020-08-16T11:53:29.000Z</time>
      </trkpt>
      <trkpt lat="42.58229576982557773590087890625" lon="-0.0051215104758739471435546875">
        <ele>1182.5999755859375</ele>
        <time>2020-08-16T11:53:31.000Z</time>
      </trkpt>
      <trkpt lat="42.5822903215885162353515625" lon="-0.00523977912962436676025390625">
        <ele>1183.199951171875</ele>
        <time>2020-08-16T11:53:35.000Z</time>
      </trkpt>
      <trkpt lat="42.58229434490203857421875" lon="-0.0052960216999053955078125">
        <ele>1183.5999755859375</ele>
        <time>2020-08-16T11:53:37.000Z</time>
      </trkpt>
      <trkpt lat="42.58230037987232208251953125" lon="-0.005377493798732757568359375">
        <ele>1184.4000244140625</ele>
        <time>2020-08-16T11:53:40.000Z</time>
      </trkpt>
      <trkpt lat="42.582312114536762237548828125" lon="-0.0055127777159214019775390625">
        <ele>1185</ele>
        <time>2020-08-16T11:53:45.000Z</time>
      </trkpt>
      <trkpt lat="42.58237690664827823638916015625" lon="-0.00560690648853778839111328125">
        <ele>1185.4000244140625</ele>
        <time>2020-08-16T11:53:49.000Z</time>
      </trkpt>
      <trkpt lat="42.58242049254477024078369140625" lon="-0.00563004054129123687744140625">
        <ele>1185.800048828125</ele>
        <time>2020-08-16T11:53:51.000Z</time>
      </trkpt>
      <trkpt lat="42.5825271941721439361572265625" lon="-0.005596764385700225830078125">
        <ele>1186</ele>
        <time>2020-08-16T11:53:56.000Z</time>
      </trkpt>
      <trkpt lat="42.58270204067230224609375" lon="-0.0054879672825336456298828125">
        <ele>1185.4000244140625</ele>
        <time>2020-08-16T11:54:03.000Z</time>
      </trkpt>
      <trkpt lat="42.582867331802845001220703125" lon="-0.0054913200438022613525390625">
        <ele>1185.800048828125</ele>
        <time>2020-08-16T11:54:08.000Z</time>
      </trkpt>
      <trkpt lat="42.583112083375453948974609375" lon="-0.00558435916900634765625">
        <ele>1184.800048828125</ele>
        <time>2020-08-16T11:54:14.000Z</time>
      </trkpt>
      <trkpt lat="42.58334987796843051910400390625" lon="-0.005727522075176239013671875">
        <ele>1184.199951171875</ele>
        <time>2020-08-16T11:54:19.000Z</time>
      </trkpt>
      <trkpt lat="42.5834012590348720550537109375" lon="-0.00576934777200222015380859375">
        <ele>1184.199951171875</ele>
        <time>2020-08-16T11:54:20.000Z</time>
      </trkpt>
      <trkpt lat="42.5835777819156646728515625" lon="-0.0060026161372661590576171875">
        <ele>1183</ele>
        <time>2020-08-16T11:54:24.000Z</time>
      </trkpt>
      <trkpt lat="42.58366403169929981231689453125" lon="-0.00615256838500499725341796875">
        <ele>1182.5999755859375</ele>
        <time>2020-08-16T11:54:26.000Z</time>
      </trkpt>
      <trkpt lat="42.58371884934604167938232421875" lon="-0.00633537769317626953125">
        <ele>1182</ele>
        <time>2020-08-16T11:54:28.000Z</time>
      </trkpt>
      <trkpt lat="42.58373594842851161956787109375" lon="-0.006430931389331817626953125">
        <ele>1181.5999755859375</ele>
        <time>2020-08-16T11:54:29.000Z</time>
      </trkpt>
      <trkpt lat="42.58380417712032794952392578125" lon="-0.0067677162587642669677734375">
        <ele>1181</ele>
        <time>2020-08-16T11:54:33.000Z</time>
      </trkpt>
      <trkpt lat="42.583863772451877593994140625" lon="-0.0071630068123340606689453125">
        <ele>1181.5999755859375</ele>
        <time>2020-08-16T11:54:39.000Z</time>
      </trkpt>
      <trkpt lat="42.583863772451877593994140625" lon="-0.00744924880564212799072265625">
        <ele>1182.199951171875</ele>
        <time>2020-08-16T11:54:45.000Z</time>
      </trkpt>
      <trkpt lat="42.5839417241513729095458984375" lon="-0.00765410251915454864501953125">
        <ele>1182.199951171875</ele>
        <time>2020-08-16T11:54:51.000Z</time>
      </trkpt>
      <trkpt lat="42.58401221595704555511474609375" lon="-0.007729791104793548583984375">
        <ele>1182.800048828125</ele>
        <time>2020-08-16T11:54:54.000Z</time>
      </trkpt>
      <trkpt lat="42.58413392119109630584716796875" lon="-0.00784344971179962158203125">
        <ele>1183</ele>
        <time>2020-08-16T11:54:59.000Z</time>
      </trkpt>
      <trkpt lat="42.58434288203716278076171875" lon="-0.00806515105068683624267578125">
        <ele>1183</ele>
        <time>2020-08-16T11:55:08.000Z</time>
      </trkpt>
      <trkpt lat="42.5844575464725494384765625" lon="-0.00821904279291629791259765625">
        <ele>1183.800048828125</ele>
        <time>2020-08-16T11:55:14.000Z</time>
      </trkpt>
      <trkpt lat="42.584476657211780548095703125" lon="-0.00824502669274806976318359375">
        <ele>1184</ele>
        <time>2020-08-16T11:55:15.000Z</time>
      </trkpt>
      <trkpt lat="42.58462593890726566314697265625" lon="-0.00840377993881702423095703125">
        <ele>1184.800048828125</ele>
        <time>2020-08-16T11:55:22.000Z</time>
      </trkpt>
      <trkpt lat="42.58464731276035308837890625" lon="-0.0084263272583484649658203125">
        <ele>1185</ele>
        <time>2020-08-16T11:55:23.000Z</time>
      </trkpt>
      <trkpt lat="42.58483783341944217681884765625" lon="-0.0086160935461521148681640625">
        <ele>1185.800048828125</ele>
        <time>2020-08-16T11:55:32.000Z</time>
      </trkpt>
      <trkpt lat="42.5848600454628467559814453125" lon="-0.0086345337331295013427734375">
        <ele>1186.199951171875</ele>
        <time>2020-08-16T11:55:33.000Z</time>
      </trkpt>
      <trkpt lat="42.5850159488618373870849609375" lon="-0.008767135441303253173828125">
        <ele>1186.800048828125</ele>
        <time>2020-08-16T11:55:40.000Z</time>
      </trkpt>
      <trkpt lat="42.5852214731276035308837890625" lon="-0.00892999581992626190185546875">
        <ele>1186.5999755859375</ele>
        <time>2020-08-16T11:55:47.000Z</time>
      </trkpt>
      <trkpt lat="42.5853757001459598541259765625" lon="-0.00911188311874866485595703125">
        <ele>1186.199951171875</ele>
        <time>2020-08-16T11:55:53.000Z</time>
      </trkpt>
      <trkpt lat="42.58539455942809581756591796875" lon="-0.00913359224796295166015625">
        <ele>1186.4000244140625</ele>
        <time>2020-08-16T11:55:55.000Z</time>
      </trkpt>
      <trkpt lat="42.58540528826415538787841796875" lon="-0.00916401855647563934326171875">
        <ele>1186.5999755859375</ele>
        <time>2020-08-16T11:56:42.000Z</time>
      </trkpt>
      <trkpt lat="42.58549279533326625823974609375" lon="-0.00928781926631927490234375">
        <ele>1186.800048828125</ele>
        <time>2020-08-16T11:56:48.000Z</time>
      </trkpt>
      <trkpt lat="42.585543505847454071044921875" lon="-0.0093600712716579437255859375">
        <ele>1187.4000244140625</ele>
        <time>2020-08-16T11:56:51.000Z</time>
      </trkpt>
      <trkpt lat="42.585636042058467864990234375" lon="-0.009478591382503509521484375">
        <ele>1188</ele>
        <time>2020-08-16T11:56:56.000Z</time>
      </trkpt>
      <trkpt lat="42.5856704078614711761474609375" lon="-0.00952410511672496795654296875">
        <ele>1188.5999755859375</ele>
        <time>2020-08-16T11:56:58.000Z</time>
      </trkpt>
      <trkpt lat="42.585757412016391754150390625" lon="-0.00964379869401454925537109375">
        <ele>1189.5999755859375</ele>
        <time>2020-08-16T11:57:03.000Z</time>
      </trkpt>
      <trkpt lat="42.58585656993091106414794921875" lon="-0.00977187417447566986083984375">
        <ele>1190.800048828125</ele>
        <time>2020-08-16T11:57:09.000Z</time>
      </trkpt>
      <trkpt lat="42.58588657714426517486572265625" lon="-0.009815208613872528076171875">
        <ele>1191</ele>
        <time>2020-08-16T11:57:11.000Z</time>
      </trkpt>
      <trkpt lat="42.58594357408583164215087890625" lon="-0.00991218723356723785400390625">
        <ele>1191.800048828125</ele>
        <time>2020-08-16T11:57:15.000Z</time>
      </trkpt>
      <trkpt lat="42.58598841726779937744140625" lon="-0.00998728908598423004150390625">
        <ele>1192.199951171875</ele>
        <time>2020-08-16T11:57:18.000Z</time>
      </trkpt>
      <trkpt lat="42.5860802829265594482421875" lon="-0.0101379118859767913818359375">
        <ele>1192.800048828125</ele>
        <time>2020-08-16T11:57:24.000Z</time>
      </trkpt>
      <trkpt lat="42.58612520992755889892578125" lon="-0.01021678559482097625732421875">
        <ele>1193.199951171875</ele>
        <time>2020-08-16T11:57:27.000Z</time>
      </trkpt>
      <trkpt lat="42.5861840508878231048583984375" lon="-0.01031854189932346343994140625">
        <ele>1194</ele>
        <time>2020-08-16T11:57:31.000Z</time>
      </trkpt>
      <trkpt lat="42.58630483411252498626708984375" lon="-0.01048584468662738800048828125">
        <ele>1194.4000244140625</ele>
        <time>2020-08-16T11:57:38.000Z</time>
      </trkpt>
      <trkpt lat="42.5864504277706146240234375" lon="-0.01067561097443103790283203125">
        <ele>1195.199951171875</ele>
        <time>2020-08-16T11:57:46.000Z</time>
      </trkpt>
      <trkpt lat="42.58648873306810855865478515625" lon="-0.0107194483280181884765625">
        <ele>1195.5999755859375</ele>
        <time>2020-08-16T11:57:48.000Z</time>
      </trkpt>
      <trkpt lat="42.5866447202861309051513671875" lon="-0.01090460456907749176025390625">
        <ele>1196.199951171875</ele>
        <time>2020-08-16T11:57:56.000Z</time>
      </trkpt>
      <trkpt lat="42.5866819359362125396728515625" lon="-0.0109533034265041351318359375">
        <ele>1196.5999755859375</ele>
        <time>2020-08-16T11:57:58.000Z</time>
      </trkpt>
      <trkpt lat="42.58683775551617145538330078125" lon="-0.01113091595470905303955078125">
        <ele>1197.5999755859375</ele>
        <time>2020-08-16T11:58:06.000Z</time>
      </trkpt>
      <trkpt lat="42.58704294450581073760986328125" lon="-0.01129469834268093109130859375">
        <ele>1198.4000244140625</ele>
        <time>2020-08-16T11:58:15.000Z</time>
      </trkpt>
      <trkpt lat="42.58727143518626689910888671875" lon="-0.0115252844989299774169921875">
        <ele>1198.800048828125</ele>
        <time>2020-08-16T11:58:25.000Z</time>
      </trkpt>
      <trkpt lat="42.5873736105859279632568359375" lon="-0.01169200055301189422607421875">
        <ele>1199.5999755859375</ele>
        <time>2020-08-16T11:58:31.000Z</time>
      </trkpt>
      <trkpt lat="42.58738760836422443389892578125" lon="-0.01172485761344432830810546875">
        <ele>1199.800048828125</ele>
        <time>2020-08-16T11:58:32.000Z</time>
      </trkpt>
      <trkpt lat="42.58740060031414031982421875" lon="-0.01175804995000362396240234375">
        <ele>1199.800048828125</ele>
        <time>2020-08-16T11:58:33.000Z</time>
      </trkpt>
      <trkpt lat="42.587442509829998016357421875" lon="-0.01201654784381389617919921875">
        <ele>1200.199951171875</ele>
        <time>2020-08-16T11:58:40.000Z</time>
      </trkpt>
      <trkpt lat="42.587430439889430999755859375" lon="-0.012368671596050262451171875">
        <ele>1200.199951171875</ele>
        <time>2020-08-16T11:58:48.000Z</time>
      </trkpt>
      <trkpt lat="42.5874788872897624969482421875" lon="-0.01276840455830097198486328125">
        <ele>1199.199951171875</ele>
        <time>2020-08-16T11:58:55.000Z</time>
      </trkpt>
      <trkpt lat="42.58749715983867645263671875" lon="-0.012901760637760162353515625">
        <ele>1198.800048828125</ele>
        <time>2020-08-16T11:58:57.000Z</time>
      </trkpt>
      <trkpt lat="42.58749908767640590667724609375" lon="-0.0130977295339107513427734375">
        <ele>1198.4000244140625</ele>
        <time>2020-08-16T11:59:00.000Z</time>
      </trkpt>
      <trkpt lat="42.58743069134652614593505859375" lon="-0.0132992304861545562744140625">
        <ele>1198.199951171875</ele>
        <time>2020-08-16T11:59:04.000Z</time>
      </trkpt>
      <trkpt lat="42.5872907973825931549072265625" lon="-0.01335027627646923065185546875">
        <ele>1198.5999755859375</ele>
        <time>2020-08-16T11:59:08.000Z</time>
      </trkpt>
      <trkpt lat="42.58720287121832370758056640625" lon="-0.01334776170551776885986328125">
        <ele>1198.800048828125</ele>
        <time>2020-08-16T11:59:11.000Z</time>
      </trkpt>
      <trkpt lat="42.58713045157492160797119140625" lon="-0.013342313468456268310546875">
        <ele>1199.199951171875</ele>
        <time>2020-08-16T11:59:14.000Z</time>
      </trkpt>
      <trkpt lat="42.5869964249432086944580078125" lon="-0.01336955465376377105712890625">
        <ele>1200</ele>
        <time>2020-08-16T11:59:20.000Z</time>
      </trkpt>
      <trkpt lat="42.58697773329913616180419921875" lon="-0.01338564790785312652587890625">
        <ele>1200.4000244140625</ele>
        <time>2020-08-16T11:59:21.000Z</time>
      </trkpt>
      <trkpt lat="42.5869183056056499481201171875" lon="-0.0134682096540927886962890625">
        <ele>1201</ele>
        <time>2020-08-16T11:59:25.000Z</time>
      </trkpt>
      <trkpt lat="42.5868676789104938507080078125" lon="-0.01355764456093311309814453125">
        <ele>1201.800048828125</ele>
        <time>2020-08-16T11:59:29.000Z</time>
      </trkpt>
      <trkpt lat="42.58685301057994365692138671875" lon="-0.01360676251351833343505859375">
        <ele>1202.199951171875</ele>
        <time>2020-08-16T11:59:31.000Z</time>
      </trkpt>
      <trkpt lat="42.5868113525211811065673828125" lon="-0.0137548707425594329833984375">
        <ele>1203.4000244140625</ele>
        <time>2020-08-16T11:59:37.000Z</time>
      </trkpt>
      <trkpt lat="42.58678101003170013427734375" lon="-0.0138775818049907684326171875">
        <ele>1204.4000244140625</ele>
        <time>2020-08-16T11:59:42.000Z</time>
      </trkpt>
      <trkpt lat="42.586770951747894287109375" lon="-0.01389945857226848602294921875">
        <ele>1204.5999755859375</ele>
        <time>2020-08-16T11:59:43.000Z</time>
      </trkpt>
      <trkpt lat="42.58673541247844696044921875" lon="-0.014057792723178863525390625">
        <ele>1205.4000244140625</ele>
        <time>2020-08-16T11:59:49.000Z</time>
      </trkpt>
      <trkpt lat="42.58674287237226963043212890625" lon="-0.014087297022342681884765625">
        <ele>1205.800048828125</ele>
        <time>2020-08-16T11:59:50.000Z</time>
      </trkpt>
      <trkpt lat="42.586794756352901458740234375" lon="-0.01414186321198940277099609375">
        <ele>1206.4000244140625</ele>
        <time>2020-08-16T11:59:53.000Z</time>
      </trkpt>
      <trkpt lat="42.58681587874889373779296875" lon="-0.0141424499452114105224609375">
        <ele>1206.5999755859375</ele>
        <time>2020-08-16T11:59:54.000Z</time>
      </trkpt>
      <trkpt lat="42.586881257593631744384765625" lon="-0.01406483352184295654296875">
        <ele>1207.5999755859375</ele>
        <time>2020-08-16T11:59:58.000Z</time>
      </trkpt>
      <trkpt lat="42.586890645325183868408203125" lon="-0.01403859816491603851318359375">
        <ele>1207.800048828125</ele>
        <time>2020-08-16T11:59:59.000Z</time>
      </trkpt>
      <trkpt lat="42.5869354046881198883056640625" lon="-0.013915635645389556884765625">
        <ele>1208.800048828125</ele>
        <time>2020-08-16T12:00:04.000Z</time>
      </trkpt>
      <trkpt lat="42.5869417749345302581787109375" lon="-0.0138886459171772003173828125">
        <ele>1208.800048828125</ele>
        <time>2020-08-16T12:00:05.000Z</time>
      </trkpt>
      <trkpt lat="42.5869907252490520477294921875" lon="-0.01375445164740085601806640625">
        <ele>1210</ele>
        <time>2020-08-16T12:00:11.000Z</time>
      </trkpt>
      <trkpt lat="42.58703288622200489044189453125" lon="-0.01367582939565181732177734375">
        <ele>1210.5999755859375</ele>
        <time>2020-08-16T12:00:15.000Z</time>
      </trkpt>
      <trkpt lat="42.587060295045375823974609375" lon="-0.01364506781101226806640625">
        <ele>1211.199951171875</ele>
        <time>2020-08-16T12:00:17.000Z</time>
      </trkpt>
      <trkpt lat="42.58713162504136562347412109375" lon="-0.01361682079732418060302734375">
        <ele>1212</ele>
        <time>2020-08-16T12:00:21.000Z</time>
      </trkpt>
      <trkpt lat="42.587182335555553436279296875" lon="-0.0136492587625980377197265625">
        <ele>1212.199951171875</ele>
        <time>2020-08-16T12:00:24.000Z</time>
      </trkpt>
      <trkpt lat="42.587199099361896514892578125" lon="-0.0136972032487392425537109375">
        <ele>1212.5999755859375</ele>
        <time>2020-08-16T12:00:26.000Z</time>
      </trkpt>
      <trkpt lat="42.5871848501265048980712890625" lon="-0.01383156515657901763916015625">
        <ele>1213.4000244140625</ele>
        <time>2020-08-16T12:00:31.000Z</time>
      </trkpt>
      <trkpt lat="42.58717386983335018157958984375" lon="-0.013855285942554473876953125">
        <ele>1213.4000244140625</ele>
        <time>2020-08-16T12:00:32.000Z</time>
      </trkpt>
      <trkpt lat="42.58709390647709369659423828125" lon="-0.0140418671071529388427734375">
        <ele>1214.4000244140625</ele>
        <time>2020-08-16T12:00:40.000Z</time>
      </trkpt>
      <trkpt lat="42.58705551736056804656982421875" lon="-0.0141914002597332000732421875">
        <ele>1215.5999755859375</ele>
        <time>2020-08-16T12:00:46.000Z</time>
      </trkpt>
      <trkpt lat="42.5870619714260101318359375" lon="-0.0142433680593967437744140625">
        <ele>1216</ele>
        <time>2020-08-16T12:00:48.000Z</time>
      </trkpt>
      <trkpt lat="42.587086446583271026611328125" lon="-0.014347471296787261962890625">
        <ele>1216.5999755859375</ele>
        <time>2020-08-16T12:00:52.000Z</time>
      </trkpt>
      <trkpt lat="42.58714302442967891693115234375" lon="-0.014461465179920196533203125">
        <ele>1217.199951171875</ele>
        <time>2020-08-16T12:00:57.000Z</time>
      </trkpt>
      <trkpt lat="42.58720169775187969207763671875" lon="-0.01463740132749080657958984375">
        <ele>1217.800048828125</ele>
        <time>2020-08-16T12:01:04.000Z</time>
      </trkpt>
      <trkpt lat="42.587232626974582672119140625" lon="-0.01470479182898998260498046875">
        <ele>1218.4000244140625</ele>
        <time>2020-08-16T12:01:07.000Z</time>
      </trkpt>
      <trkpt lat="42.58724729530513286590576171875" lon="-0.01478232443332672119140625">
        <ele>1218.800048828125</ele>
        <time>2020-08-16T12:01:10.000Z</time>
      </trkpt>
      <trkpt lat="42.5872750394046306610107421875" lon="-0.01485331915318965911865234375">
        <ele>1219.199951171875</ele>
        <time>2020-08-16T12:01:13.000Z</time>
      </trkpt>
      <trkpt lat="42.58729842491447925567626953125" lon="-0.01495507545769214630126953125">
        <ele>1219.800048828125</ele>
        <time>2020-08-16T12:01:17.000Z</time>
      </trkpt>
      <trkpt lat="42.58732424117624759674072265625" lon="-0.01505532301962375640869140625">
        <ele>1220.4000244140625</ele>
        <time>2020-08-16T12:01:21.000Z</time>
      </trkpt>
      <trkpt lat="42.5873477943241596221923828125" lon="-0.0151569955050945281982421875">
        <ele>1221</ele>
        <time>2020-08-16T12:01:25.000Z</time>
      </trkpt>
      <trkpt lat="42.58737453259527683258056640625" lon="-0.01525917090475559234619140625">
        <ele>1221.5999755859375</ele>
        <time>2020-08-16T12:01:29.000Z</time>
      </trkpt>
      <trkpt lat="42.5873943977057933807373046875" lon="-0.01535757444798946380615234375">
        <ele>1222</ele>
        <time>2020-08-16T12:01:33.000Z</time>
      </trkpt>
      <trkpt lat="42.58740328252315521240234375" lon="-0.01543485559523105621337890625">
        <ele>1222.4000244140625</ele>
        <time>2020-08-16T12:01:36.000Z</time>
      </trkpt>
      <trkpt lat="42.58740906603634357452392578125" lon="-0.01550727523863315582275390625">
        <ele>1223.199951171875</ele>
        <time>2020-08-16T12:01:39.000Z</time>
      </trkpt>
      <trkpt lat="42.587388195097446441650390625" lon="-0.0155995599925518035888671875">
        <ele>1224.199951171875</ele>
        <time>2020-08-16T12:01:43.000Z</time>
      </trkpt>
      <trkpt lat="42.58738241158425807952880859375" lon="-0.0156226940453052520751953125">
        <ele>1224.4000244140625</ele>
        <time>2020-08-16T12:01:44.000Z</time>
      </trkpt>
      <trkpt lat="42.58734159171581268310546875" lon="-0.01578773371875286102294921875">
        <ele>1225.4000244140625</ele>
        <time>2020-08-16T12:01:51.000Z</time>
      </trkpt>
      <trkpt lat="42.5873102433979511260986328125" lon="-0.0159291364252567291259765625">
        <ele>1226.5999755859375</ele>
        <time>2020-08-16T12:01:57.000Z</time>
      </trkpt>
      <trkpt lat="42.5873301923274993896484375" lon="-0.0160028971731662750244140625">
        <ele>1227</ele>
        <time>2020-08-16T12:02:00.000Z</time>
      </trkpt>
      <trkpt lat="42.587378136813640594482421875" lon="-0.01604204066097736358642578125">
        <ele>1227.800048828125</ele>
        <time>2020-08-16T12:02:03.000Z</time>
      </trkpt>
      <trkpt lat="42.5874178670346736907958984375" lon="-0.01602930016815662384033203125">
        <ele>1228</ele>
        <time>2020-08-16T12:02:05.000Z</time>
      </trkpt>
      <trkpt lat="42.58745432831346988677978515625" lon="-0.0159298069775104522705078125">
        <ele>1228.5999755859375</ele>
        <time>2020-08-16T12:02:09.000Z</time>
      </trkpt>
      <trkpt lat="42.58745902217924594879150390625" lon="-0.015903152525424957275390625">
        <ele>1228.800048828125</ele>
        <time>2020-08-16T12:02:10.000Z</time>
      </trkpt>
      <trkpt lat="42.5874741934239864349365234375" lon="-0.01573677174746990203857421875">
        <ele>1229.800048828125</ele>
        <time>2020-08-16T12:02:16.000Z</time>
      </trkpt>
      <trkpt lat="42.5874775461852550506591796875" lon="-0.01570860855281352996826171875">
        <ele>1230</ele>
        <time>2020-08-16T12:02:17.000Z</time>
      </trkpt>
      <trkpt lat="42.587489448487758636474609375" lon="-0.015654377639293670654296875">
        <ele>1230.5999755859375</ele>
        <time>2020-08-16T12:02:19.000Z</time>
      </trkpt>
      <trkpt lat="42.58751803077757358551025390625" lon="-0.01554985530674457550048828125">
        <ele>1231</ele>
        <time>2020-08-16T12:02:23.000Z</time>
      </trkpt>
      <trkpt lat="42.58753730915486812591552734375" lon="-0.0154453329741954803466796875">
        <ele>1231.5999755859375</ele>
        <time>2020-08-16T12:02:27.000Z</time>
      </trkpt>
      <trkpt lat="42.58755357004702091217041015625" lon="-0.01533863134682178497314453125">
        <ele>1232</ele>
        <time>2020-08-16T12:02:31.000Z</time>
      </trkpt>
      <trkpt lat="42.5875590182840824127197265625" lon="-0.015228576958179473876953125">
        <ele>1232.4000244140625</ele>
        <time>2020-08-16T12:02:35.000Z</time>
      </trkpt>
      <trkpt lat="42.58754812180995941162109375" lon="-0.0151181034743785858154296875">
        <ele>1233.199951171875</ele>
        <time>2020-08-16T12:02:39.000Z</time>
      </trkpt>
      <trkpt lat="42.587537728250026702880859375" lon="-0.0149806402623653411865234375">
        <ele>1234.4000244140625</ele>
        <time>2020-08-16T12:02:44.000Z</time>
      </trkpt>
      <trkpt lat="42.58753462694585323333740234375" lon="-0.0149538181722164154052734375">
        <ele>1234.5999755859375</ele>
        <time>2020-08-16T12:02:45.000Z</time>
      </trkpt>
      <trkpt lat="42.58753244765102863311767578125" lon="-0.0148428417742252349853515625">
        <ele>1235.4000244140625</ele>
        <time>2020-08-16T12:02:49.000Z</time>
      </trkpt>
      <trkpt lat="42.58755088783800601959228515625" lon="-0.01473404467105865478515625">
        <ele>1235.800048828125</ele>
        <time>2020-08-16T12:02:53.000Z</time>
      </trkpt>
      <trkpt lat="42.5876197032630443572998046875" lon="-0.01463874243199825286865234375">
        <ele>1236.5999755859375</ele>
        <time>2020-08-16T12:02:58.000Z</time>
      </trkpt>
      <trkpt lat="42.5876599363982677459716796875" lon="-0.0146467052400112152099609375">
        <ele>1236.800048828125</ele>
        <time>2020-08-16T12:03:00.000Z</time>
      </trkpt>
      <trkpt lat="42.58768851868808269500732421875" lon="-0.014688111841678619384765625">
        <ele>1237.199951171875</ele>
        <time>2020-08-16T12:03:02.000Z</time>
      </trkpt>
      <trkpt lat="42.58771232329308986663818359375" lon="-0.01476581208407878875732421875">
        <ele>1237.4000244140625</ele>
        <time>2020-08-16T12:03:05.000Z</time>
      </trkpt>
      <trkpt lat="42.58771902881562709808349609375" lon="-0.0147902034223079681396484375">
        <ele>1237.5999755859375</ele>
        <time>2020-08-16T12:03:07.000Z</time>
      </trkpt>
      <trkpt lat="42.58771886117756366729736328125" lon="-0.01478978432714939117431640625">
        <ele>1237.800048828125</ele>
        <time>2020-08-16T12:03:08.000Z</time>
      </trkpt>
      <trkpt lat="42.58772036992013454437255859375" lon="-0.01478743739426136016845703125">
        <ele>1237.5999755859375</ele>
        <time>2020-08-16T12:07:29.000Z</time>
      </trkpt>
      <trkpt lat="42.58771802298724651336669921875" lon="-0.0147955678403377532958984375">
        <ele>1237.800048828125</ele>
        <time>2020-08-16T12:07:31.000Z</time>
      </trkpt>
      <trkpt lat="42.587710060179233551025390625" lon="-0.01484678126871585845947265625">
        <ele>1237.800048828125</ele>
        <time>2020-08-16T12:07:34.000Z</time>
      </trkpt>
      <trkpt lat="42.58768550120294094085693359375" lon="-0.0149427540600299835205078125">
        <ele>1238.4000244140625</ele>
        <time>2020-08-16T12:07:39.000Z</time>
      </trkpt>
      <trkpt lat="42.5876870937645435333251953125" lon="-0.01496496610343456268310546875">
        <ele>1238.5999755859375</ele>
        <time>2020-08-16T12:07:40.000Z</time>
      </trkpt>
      <trkpt lat="42.5876894406974315643310546875" lon="-0.01503269188106060028076171875">
        <ele>1239</ele>
        <time>2020-08-16T12:07:43.000Z</time>
      </trkpt>
      <trkpt lat="42.587710730731487274169921875" lon="-0.015176273882389068603515625">
        <ele>1240</ele>
        <time>2020-08-16T12:07:49.000Z</time>
      </trkpt>
      <trkpt lat="42.5877464376389980316162109375" lon="-0.01537752337753772735595703125">
        <ele>1241</ele>
        <time>2020-08-16T12:07:57.000Z</time>
      </trkpt>
      <trkpt lat="42.587751634418964385986328125" lon="-0.0154299102723598480224609375">
        <ele>1241.199951171875</ele>
        <time>2020-08-16T12:07:59.000Z</time>
      </trkpt>
      <trkpt lat="42.587768733501434326171875" lon="-0.0155858136713504791259765625">
        <ele>1242.199951171875</ele>
        <time>2020-08-16T12:08:05.000Z</time>
      </trkpt>
      <trkpt lat="42.5877625308930873870849609375" lon="-0.01574096269905567169189453125">
        <ele>1243.4000244140625</ele>
        <time>2020-08-16T12:08:11.000Z</time>
      </trkpt>
      <trkpt lat="42.58776362054049968719482421875" lon="-0.01579494215548038482666015625">
        <ele>1243.5999755859375</ele>
        <time>2020-08-16T12:08:13.000Z</time>
      </trkpt>
      <trkpt lat="42.58776077069342136383056640625" lon="-0.0159770809113979339599609375">
        <ele>1244.5999755859375</ele>
        <time>2020-08-16T12:08:20.000Z</time>
      </trkpt>
      <trkpt lat="42.58775875903666019439697265625" lon="-0.01600298099219799041748046875">
        <ele>1245</ele>
        <time>2020-08-16T12:08:21.000Z</time>
      </trkpt>
      <trkpt lat="42.58775238879024982452392578125" lon="-0.01620649360120296478271484375">
        <ele>1245.800048828125</ele>
        <time>2020-08-16T12:08:29.000Z</time>
      </trkpt>
      <trkpt lat="42.5877491198480129241943359375" lon="-0.01625997014343738555908203125">
        <ele>1246</ele>
        <time>2020-08-16T12:08:31.000Z</time>
      </trkpt>
      <trkpt lat="42.58776412345468997955322265625" lon="-0.01641000621020793914794921875">
        <ele>1247</ele>
        <time>2020-08-16T12:08:37.000Z</time>
      </trkpt>
      <trkpt lat="42.58776613511145114898681640625" lon="-0.01643414609134197235107421875">
        <ele>1247</ele>
        <time>2020-08-16T12:08:38.000Z</time>
      </trkpt>
      <trkpt lat="42.58779823780059814453125" lon="-0.01660932786762714385986328125">
        <ele>1248</ele>
        <time>2020-08-16T12:08:45.000Z</time>
      </trkpt>
      <trkpt lat="42.58781089447438716888427734375" lon="-0.01665945164859294891357421875">
        <ele>1248.4000244140625</ele>
        <time>2020-08-16T12:08:47.000Z</time>
      </trkpt>
      <trkpt lat="42.58783503435552120208740234375" lon="-0.016782917082309722900390625">
        <ele>1249.199951171875</ele>
        <time>2020-08-16T12:08:52.000Z</time>
      </trkpt>
      <trkpt lat="42.58784693665802478790283203125" lon="-0.01682993955910205841064453125">
        <ele>1249.5999755859375</ele>
        <time>2020-08-16T12:08:54.000Z</time>
      </trkpt>
      <trkpt lat="42.58786587975919246673583984375" lon="-0.016900934278964996337890625">
        <ele>1250.199951171875</ele>
        <time>2020-08-16T12:08:57.000Z</time>
      </trkpt>
      <trkpt lat="42.5878983177244663238525390625" lon="-0.0170174427330493927001953125">
        <ele>1251.4000244140625</ele>
        <time>2020-08-16T12:09:02.000Z</time>
      </trkpt>
      <trkpt lat="42.5879596732556819915771484375" lon="-0.017173849046230316162109375">
        <ele>1252.199951171875</ele>
        <time>2020-08-16T12:09:09.000Z</time>
      </trkpt>
      <trkpt lat="42.58798129856586456298828125" lon="-0.0172157585620880126953125">
        <ele>1252.4000244140625</ele>
        <time>2020-08-16T12:09:11.000Z</time>
      </trkpt>
      <trkpt lat="42.58803636766970157623291015625" lon="-0.01731743104755878448486328125">
        <ele>1253.4000244140625</ele>
        <time>2020-08-16T12:09:16.000Z</time>
      </trkpt>
      <trkpt lat="42.58808615617454051971435546875" lon="-0.0173902697861194610595703125">
        <ele>1254.199951171875</ele>
        <time>2020-08-16T12:09:20.000Z</time>
      </trkpt>
      <trkpt lat="42.58812471292912960052490234375" lon="-0.01744667999446392059326171875">
        <ele>1254.5999755859375</ele>
        <time>2020-08-16T12:09:23.000Z</time>
      </trkpt>
      <trkpt lat="42.5881863199174404144287109375" lon="-0.01750669442117214202880859375">
        <ele>1255.5999755859375</ele>
        <time>2020-08-16T12:09:27.000Z</time>
      </trkpt>
      <trkpt lat="42.58820149116218090057373046875" lon="-0.01752295531332492828369140625">
        <ele>1255.800048828125</ele>
        <time>2020-08-16T12:09:28.000Z</time>
      </trkpt>
      <trkpt lat="42.588291428983211517333984375" lon="-0.017616748809814453125">
        <ele>1256.800048828125</ele>
        <time>2020-08-16T12:09:34.000Z</time>
      </trkpt>
      <trkpt lat="42.58831833489239215850830078125" lon="-0.01765086315572261810302734375">
        <ele>1257</ele>
        <time>2020-08-16T12:09:36.000Z</time>
      </trkpt>
      <trkpt lat="42.588419504463672637939453125" lon="-0.0178031623363494873046875">
        <ele>1258</ele>
        <time>2020-08-16T12:09:44.000Z</time>
      </trkpt>
      <trkpt lat="42.58844506926834583282470703125" lon="-0.0178420543670654296875">
        <ele>1258.4000244140625</ele>
        <time>2020-08-16T12:09:46.000Z</time>
      </trkpt>
      <trkpt lat="42.588490583002567291259765625" lon="-0.0178931839764118194580078125">
        <ele>1259</ele>
        <time>2020-08-16T12:09:49.000Z</time>
      </trkpt>
      <trkpt lat="42.5885425508022308349609375" lon="-0.01790978014469146728515625">
        <ele>1259.800048828125</ele>
        <time>2020-08-16T12:09:52.000Z</time>
      </trkpt>
      <trkpt lat="42.5885775871574878692626953125" lon="-0.01784817315638065338134765625">
        <ele>1260.199951171875</ele>
        <time>2020-08-16T12:09:55.000Z</time>
      </trkpt>
      <trkpt lat="42.58857599459588527679443359375" lon="-0.01781883649528026580810546875">
        <ele>1260.199951171875</ele>
        <time>2020-08-16T12:09:56.000Z</time>
      </trkpt>
      <trkpt lat="42.58852939121425151824951171875" lon="-0.01772579737007617950439453125">
        <ele>1260.4000244140625</ele>
        <time>2020-08-16T12:10:00.000Z</time>
      </trkpt>
      <trkpt lat="42.58851430378854274749755859375" lon="-0.0177060998976230621337890625">
        <ele>1260.800048828125</ele>
        <time>2020-08-16T12:10:01.000Z</time>
      </trkpt>
      <trkpt lat="42.5884840451180934906005859375" lon="-0.01766662113368511199951171875">
        <ele>1261.4000244140625</ele>
        <time>2020-08-16T12:10:03.000Z</time>
      </trkpt>
      <trkpt lat="42.588355131447315216064453125" lon="-0.01751591451466083526611328125">
        <ele>1261.800048828125</ele>
        <time>2020-08-16T12:10:11.000Z</time>
      </trkpt>
      <trkpt lat="42.58825664408504962921142578125" lon="-0.0173232145607471466064453125">
        <ele>1262.4000244140625</ele>
        <time>2020-08-16T12:10:19.000Z</time>
      </trkpt>
      <trkpt lat="42.58824608288705348968505859375" lon="-0.01729714684188365936279296875">
        <ele>1262.4000244140625</ele>
        <time>2020-08-16T12:10:20.000Z</time>
      </trkpt>
      <trkpt lat="42.58818170987069606781005859375" lon="-0.017076618969440460205078125">
        <ele>1263.4000244140625</ele>
        <time>2020-08-16T12:10:28.000Z</time>
      </trkpt>
      <trkpt lat="42.5881777703762054443359375" lon="-0.0170467793941497802734375">
        <ele>1263.5999755859375</ele>
        <time>2020-08-16T12:10:29.000Z</time>
      </trkpt>
      <trkpt lat="42.58815539069473743438720703125" lon="-0.01692968420684337615966796875">
        <ele>1264.4000244140625</ele>
        <time>2020-08-16T12:10:33.000Z</time>
      </trkpt>
      <trkpt lat="42.58813443593680858612060546875" lon="-0.016791634261608123779296875">
        <ele>1265.4000244140625</ele>
        <time>2020-08-16T12:10:38.000Z</time>
      </trkpt>
      <trkpt lat="42.5881309993565082550048828125" lon="-0.01676221378147602081298828125">
        <ele>1265.5999755859375</ele>
        <time>2020-08-16T12:10:39.000Z</time>
      </trkpt>
      <trkpt lat="42.588117420673370361328125" lon="-0.01658988185226917266845703125">
        <ele>1266.800048828125</ele>
        <time>2020-08-16T12:10:45.000Z</time>
      </trkpt>
      <trkpt lat="42.58812345564365386962890625" lon="-0.01653657294809818267822265625">
        <ele>1267.199951171875</ele>
        <time>2020-08-16T12:10:47.000Z</time>
      </trkpt>
      <trkpt lat="42.5881353579461574554443359375" lon="-0.016482174396514892578125">
        <ele>1267.800048828125</ele>
        <time>2020-08-16T12:10:49.000Z</time>
      </trkpt>
      <trkpt lat="42.58816209621727466583251953125" lon="-0.01631814055144786834716796875">
        <ele>1268.4000244140625</ele>
        <time>2020-08-16T12:10:55.000Z</time>
      </trkpt>
      <trkpt lat="42.58819394744932651519775390625" lon="-0.016248486936092376708984375">
        <ele>1268.800048828125</ele>
        <time>2020-08-16T12:10:58.000Z</time>
      </trkpt>
      <trkpt lat="42.5882661156356334686279296875" lon="-0.01615067012608051300048828125">
        <ele>1269.800048828125</ele>
        <time>2020-08-16T12:11:03.000Z</time>
      </trkpt>
      <trkpt lat="42.58828229270875453948974609375" lon="-0.0161346606910228729248046875">
        <ele>1270</ele>
        <time>2020-08-16T12:11:04.000Z</time>
      </trkpt>
      <trkpt lat="42.58839494548738002777099609375" lon="-0.01607959158718585968017578125">
        <ele>1270.5999755859375</ele>
        <time>2020-08-16T12:11:10.000Z</time>
      </trkpt>
      <trkpt lat="42.58845529519021511077880859375" lon="-0.01606483943760395050048828125">
        <ele>1271</ele>
        <time>2020-08-16T12:11:13.000Z</time>
      </trkpt>
      <trkpt lat="42.5885323248803615570068359375" lon="-0.016092248260974884033203125">
        <ele>1271.800048828125</ele>
        <time>2020-08-16T12:11:17.000Z</time>
      </trkpt>
      <trkpt lat="42.588568367063999176025390625" lon="-0.01611915417015552520751953125">
        <ele>1272.199951171875</ele>
        <time>2020-08-16T12:11:19.000Z</time>
      </trkpt>
      <trkpt lat="42.5886919163167476654052734375" lon="-0.01621688716113567352294921875">
        <ele>1272.5999755859375</ele>
        <time>2020-08-16T12:11:26.000Z</time>
      </trkpt>
      <trkpt lat="42.58872770704329013824462890625" lon="-0.01624337397515773773193359375">
        <ele>1273.199951171875</ele>
        <time>2020-08-16T12:11:28.000Z</time>
      </trkpt>
      <trkpt lat="42.588809095323085784912109375" lon="-0.0163126923143863677978515625">
        <ele>1274.199951171875</ele>
        <time>2020-08-16T12:11:33.000Z</time>
      </trkpt>
      <trkpt lat="42.58884337730705738067626953125" lon="-0.0163408555090427398681640625">
        <ele>1274.4000244140625</ele>
        <time>2020-08-16T12:11:35.000Z</time>
      </trkpt>
      <trkpt lat="42.58895753882825374603271484375" lon="-0.0164558552205562591552734375">
        <ele>1275.4000244140625</ele>
        <time>2020-08-16T12:11:42.000Z</time>
      </trkpt>
      <trkpt lat="42.5889996998012065887451171875" lon="-0.01650623045861721038818359375">
        <ele>1275.5999755859375</ele>
        <time>2020-08-16T12:11:45.000Z</time>
      </trkpt>
      <trkpt lat="42.589080668985843658447265625" lon="-0.0165882892906665802001953125">
        <ele>1276.4000244140625</ele>
        <time>2020-08-16T12:11:50.000Z</time>
      </trkpt>
      <trkpt lat="42.58912702091038227081298828125" lon="-0.01663715578615665435791015625">
        <ele>1276.800048828125</ele>
        <time>2020-08-16T12:11:53.000Z</time>
      </trkpt>
      <trkpt lat="42.58917714469134807586669921875" lon="-0.01667973585426807403564453125">
        <ele>1277.4000244140625</ele>
        <time>2020-08-16T12:11:56.000Z</time>
      </trkpt>
      <trkpt lat="42.58926280774176120758056640625" lon="-0.016754753887653350830078125">
        <ele>1278.5999755859375</ele>
        <time>2020-08-16T12:12:01.000Z</time>
      </trkpt>
      <trkpt lat="42.58934210054576396942138671875" lon="-0.0168749503791332244873046875">
        <ele>1279.199951171875</ele>
        <time>2020-08-16T12:12:07.000Z</time>
      </trkpt>
      <trkpt lat="42.58933715522289276123046875" lon="-0.01690152101218700408935546875">
        <ele>1279.4000244140625</ele>
        <time>2020-08-16T12:12:08.000Z</time>
      </trkpt>
      <trkpt lat="42.5893262587487697601318359375" lon="-0.0169265829026699066162109375">
        <ele>1279.5999755859375</ele>
        <time>2020-08-16T12:12:09.000Z</time>
      </trkpt>
      <trkpt lat="42.5892484746873378753662109375" lon="-0.01696564257144927978515625">
        <ele>1280</ele>
        <time>2020-08-16T12:12:13.000Z</time>
      </trkpt>
      <trkpt lat="42.589165158569812774658203125" lon="-0.01693035475909709930419921875">
        <ele>1280.5999755859375</ele>
        <time>2020-08-16T12:12:17.000Z</time>
      </trkpt>
      <trkpt lat="42.5891267694532871246337890625" lon="-0.0169031135737895965576171875">
        <ele>1281</ele>
        <time>2020-08-16T12:12:19.000Z</time>
      </trkpt>
      <trkpt lat="42.58907119743525981903076171875" lon="-0.01685391180217266082763671875">
        <ele>1281.5999755859375</ele>
        <time>2020-08-16T12:12:22.000Z</time>
      </trkpt>
      <trkpt lat="42.5889708660542964935302734375" lon="-0.01680177636444568634033203125">
        <ele>1282.4000244140625</ele>
        <time>2020-08-16T12:12:27.000Z</time>
      </trkpt>
      <trkpt lat="42.58893105201423168182373046875" lon="-0.0168139301240444183349609375">
        <ele>1282.5999755859375</ele>
        <time>2020-08-16T12:12:29.000Z</time>
      </trkpt>
      <trkpt lat="42.588860727846622467041015625" lon="-0.0168692506849765777587890625">
        <ele>1283.199951171875</ele>
        <time>2020-08-16T12:12:33.000Z</time>
      </trkpt>
      <trkpt lat="42.58882627822458744049072265625" lon="-0.01696388237178325653076171875">
        <ele>1284</ele>
        <time>2020-08-16T12:12:37.000Z</time>
      </trkpt>
      <trkpt lat="42.58882795460522174835205078125" lon="-0.0169904530048370361328125">
        <ele>1284.199951171875</ele>
        <time>2020-08-16T12:12:38.000Z</time>
      </trkpt>
      <trkpt lat="42.588853351771831512451171875" lon="-0.0171471945941448211669921875">
        <ele>1285</ele>
        <time>2020-08-16T12:12:44.000Z</time>
      </trkpt>
      <trkpt lat="42.588868439197540283203125" lon="-0.01722103916108608245849609375">
        <ele>1285.4000244140625</ele>
        <time>2020-08-16T12:12:47.000Z</time>
      </trkpt>
      <trkpt lat="42.58890976198017597198486328125" lon="-0.0173352845013141632080078125">
        <ele>1286</ele>
        <time>2020-08-16T12:12:52.000Z</time>
      </trkpt>
      <trkpt lat="42.5889333151280879974365234375" lon="-0.0174060277640819549560546875">
        <ele>1287</ele>
        <time>2020-08-16T12:12:55.000Z</time>
      </trkpt>
      <trkpt lat="42.5889440439641475677490234375" lon="-0.0174278207123279571533203125">
        <ele>1287.199951171875</ele>
        <time>2020-08-16T12:12:56.000Z</time>
      </trkpt>
      <trkpt lat="42.58900296874344348907470703125" lon="-0.01755396835505962371826171875">
        <ele>1288.199951171875</ele>
        <time>2020-08-16T12:13:02.000Z</time>
      </trkpt>
      <trkpt lat="42.5890221633017063140869140625" lon="-0.01759319566190242767333984375">
        <ele>1288.4000244140625</ele>
        <time>2020-08-16T12:13:04.000Z</time>
      </trkpt>
      <trkpt lat="42.589093744754791259765625" lon="-0.01773937605321407318115234375">
        <ele>1289.199951171875</ele>
        <time>2020-08-16T12:13:11.000Z</time>
      </trkpt>
      <trkpt lat="42.589105479419231414794921875" lon="-0.0177610851824283599853515625">
        <ele>1289.4000244140625</ele>
        <time>2020-08-16T12:13:12.000Z</time>
      </trkpt>
      <trkpt lat="42.58916976861655712127685546875" lon="-0.01785747706890106201171875">
        <ele>1290.4000244140625</ele>
        <time>2020-08-16T12:13:17.000Z</time>
      </trkpt>
      <trkpt lat="42.58922173641622066497802734375" lon="-0.01793316565454006195068359375">
        <ele>1291.5999755859375</ele>
        <time>2020-08-16T12:13:21.000Z</time>
      </trkpt>
      <trkpt lat="42.5893493928015232086181640625" lon="-0.01810398884117603302001953125">
        <ele>1292.5999755859375</ele>
        <time>2020-08-16T12:13:31.000Z</time>
      </trkpt>
      <trkpt lat="42.5893748737871646881103515625" lon="-0.0181409530341625213623046875">
        <ele>1293</ele>
        <time>2020-08-16T12:13:33.000Z</time>
      </trkpt>
      <trkpt lat="42.58945005945861339569091796875" lon="-0.01825888641178607940673828125">
        <ele>1293.800048828125</ele>
        <time>2020-08-16T12:13:39.000Z</time>
      </trkpt>
      <trkpt lat="42.589484341442584991455078125" lon="-0.0183223374187946319580078125">
        <ele>1294.5999755859375</ele>
        <time>2020-08-16T12:13:42.000Z</time>
      </trkpt>
      <trkpt lat="42.58949599228799343109130859375" lon="-0.0183437950909137725830078125">
        <ele>1295</ele>
        <time>2020-08-16T12:13:43.000Z</time>
      </trkpt>
      <trkpt lat="42.589566819369792938232421875" lon="-0.01847547478973865509033203125">
        <ele>1296.199951171875</ele>
        <time>2020-08-16T12:13:49.000Z</time>
      </trkpt>
      <trkpt lat="42.58958802558481693267822265625" lon="-0.01851730048656463623046875">
        <ele>1296.4000244140625</ele>
        <time>2020-08-16T12:13:51.000Z</time>
      </trkpt>
      <trkpt lat="42.58963177911937236785888671875" lon="-0.01860019750893115997314453125">
        <ele>1297.199951171875</ele>
        <time>2020-08-16T12:13:55.000Z</time>
      </trkpt>
      <trkpt lat="42.58968793787062168121337890625" lon="-0.01871352083981037139892578125">
        <ele>1298.199951171875</ele>
        <time>2020-08-16T12:14:00.000Z</time>
      </trkpt>
      <trkpt lat="42.5896977446973323822021484375" lon="-0.0187390856444835662841796875">
        <ele>1298.4000244140625</ele>
        <time>2020-08-16T12:14:01.000Z</time>
      </trkpt>
      <trkpt lat="42.58977980352938175201416015625" lon="-0.018876381218433380126953125">
        <ele>1299.5999755859375</ele>
        <time>2020-08-16T12:14:07.000Z</time>
      </trkpt>
      <trkpt lat="42.589830346405506134033203125" lon="-0.01898643560707569122314453125">
        <ele>1300.4000244140625</ele>
        <time>2020-08-16T12:14:12.000Z</time>
      </trkpt>
      <trkpt lat="42.5898432545363903045654296875" lon="-0.01900454051792621612548828125">
        <ele>1300.800048828125</ele>
        <time>2020-08-16T12:14:13.000Z</time>
      </trkpt>
      <trkpt lat="42.5899210385978221893310546875" lon="-0.01912079751491546630859375">
        <ele>1301.800048828125</ele>
        <time>2020-08-16T12:14:20.000Z</time>
      </trkpt>
      <trkpt lat="42.5900276564061641693115234375" lon="-0.01928097568452358245849609375">
        <ele>1303</ele>
        <time>2020-08-16T12:14:28.000Z</time>
      </trkpt>
      <trkpt lat="42.59012010879814624786376953125" lon="-0.01943805254995822906494140625">
        <ele>1304.199951171875</ele>
        <time>2020-08-16T12:14:35.000Z</time>
      </trkpt>
      <trkpt lat="42.59013502858579158782958984375" lon="-0.01946143805980682373046875">
        <ele>1304.199951171875</ele>
        <time>2020-08-16T12:14:36.000Z</time>
      </trkpt>
      <trkpt lat="42.59020493365824222564697265625" lon="-0.01962765119969844818115234375">
        <ele>1305.199951171875</ele>
        <time>2020-08-16T12:14:42.000Z</time>
      </trkpt>
      <trkpt lat="42.59024374186992645263671875" lon="-0.019742734730243682861328125">
        <ele>1305.5999755859375</ele>
        <time>2020-08-16T12:14:46.000Z</time>
      </trkpt>
      <trkpt lat="42.59026519954204559326171875" lon="-0.01984407193958759307861328125">
        <ele>1306.4000244140625</ele>
        <time>2020-08-16T12:14:50.000Z</time>
      </trkpt>
      <trkpt lat="42.5902579911053180694580078125" lon="-0.019921772181987762451171875">
        <ele>1306.800048828125</ele>
        <time>2020-08-16T12:14:53.000Z</time>
      </trkpt>
      <trkpt lat="42.59024851955473423004150390625" lon="-0.0200302340090274810791015625">
        <ele>1307.4000244140625</ele>
        <time>2020-08-16T12:14:57.000Z</time>
      </trkpt>
      <trkpt lat="42.59022228419780731201171875" lon="-0.02010474912822246551513671875">
        <ele>1307.800048828125</ele>
        <time>2020-08-16T12:15:00.000Z</time>
      </trkpt>
      <trkpt lat="42.590193785727024078369140625" lon="-0.02017314545810222625732421875">
        <ele>1308.5999755859375</ele>
        <time>2020-08-16T12:15:03.000Z</time>
      </trkpt>
      <trkpt lat="42.5901396386325359344482421875" lon="-0.02028512768447399139404296875">
        <ele>1309.4000244140625</ele>
        <time>2020-08-16T12:15:08.000Z</time>
      </trkpt>
      <trkpt lat="42.5901275686919689178466796875" lon="-0.020307339727878570556640625">
        <ele>1309.5999755859375</ele>
        <time>2020-08-16T12:15:09.000Z</time>
      </trkpt>
      <trkpt lat="42.59005288593471050262451171875" lon="-0.02043231390416622161865234375">
        <ele>1310.800048828125</ele>
        <time>2020-08-16T12:15:15.000Z</time>
      </trkpt>
      <trkpt lat="42.59004249237477779388427734375" lon="-0.02045519649982452392578125">
        <ele>1310.800048828125</ele>
        <time>2020-08-16T12:15:16.000Z</time>
      </trkpt>
      <trkpt lat="42.59001977741718292236328125" lon="-0.020607747137546539306640625">
        <ele>1311.800048828125</ele>
        <time>2020-08-16T12:15:22.000Z</time>
      </trkpt>
      <trkpt lat="42.59003025479614734649658203125" lon="-0.02063163556158542633056640625">
        <ele>1312</ele>
        <time>2020-08-16T12:15:23.000Z</time>
      </trkpt>
      <trkpt lat="42.59010619483888149261474609375" lon="-0.02064588479697704315185546875">
        <ele>1312.5999755859375</ele>
        <time>2020-08-16T12:15:27.000Z</time>
      </trkpt>
      <trkpt lat="42.59012446738779544830322265625" lon="-0.020629204809665679931640625">
        <ele>1313</ele>
        <time>2020-08-16T12:15:28.000Z</time>
      </trkpt>
      <trkpt lat="42.590148858726024627685546875" lon="-0.02058126032352447509765625">
        <ele>1313.4000244140625</ele>
        <time>2020-08-16T12:15:30.000Z</time>
      </trkpt>
      <trkpt lat="42.59016738273203372955322265625" lon="-0.02053088508546352386474609375">
        <ele>1313.800048828125</ele>
        <time>2020-08-16T12:15:32.000Z</time>
      </trkpt>
      <trkpt lat="42.59018783457577228546142578125" lon="-0.02048260532319545745849609375">
        <ele>1314</ele>
        <time>2020-08-16T12:15:34.000Z</time>
      </trkpt>
      <trkpt lat="42.59025841020047664642333984375" lon="-0.02033726312220096588134765625">
        <ele>1314.800048828125</ele>
        <time>2020-08-16T12:15:40.000Z</time>
      </trkpt>
      <trkpt lat="42.59029847569763660430908203125" lon="-0.02026987262070178985595703125">
        <ele>1315.199951171875</ele>
        <time>2020-08-16T12:15:43.000Z</time>
      </trkpt>
      <trkpt lat="42.59037391282618045806884765625" lon="-0.0201653502881526947021484375">
        <ele>1316</ele>
        <time>2020-08-16T12:15:48.000Z</time>
      </trkpt>
      <trkpt lat="42.59039201773703098297119140625" lon="-0.02015068195760250091552734375">
        <ele>1316.199951171875</ele>
        <time>2020-08-16T12:15:49.000Z</time>
      </trkpt>
      <trkpt lat="42.59049427695572376251220703125" lon="-0.02011564560234546661376953125">
        <ele>1317</ele>
        <time>2020-08-16T12:15:54.000Z</time>
      </trkpt>
      <trkpt lat="42.59055697359144687652587890625" lon="-0.020103156566619873046875">
        <ele>1317.5999755859375</ele>
        <time>2020-08-16T12:15:57.000Z</time>
      </trkpt>
      <trkpt lat="42.59066761471331119537353515625" lon="-0.02010743133723735809326171875">
        <ele>1318</ele>
        <time>2020-08-16T12:16:02.000Z</time>
      </trkpt>
      <trkpt lat="42.5908272899687290191650390625" lon="-0.0201593153178691864013671875">
        <ele>1318.5999755859375</ele>
        <time>2020-08-16T12:16:09.000Z</time>
      </trkpt>
      <trkpt lat="42.59086861275136470794677734375" lon="-0.02018571831285953521728515625">
        <ele>1318.5999755859375</ele>
        <time>2020-08-16T12:16:11.000Z</time>
      </trkpt>
      <trkpt lat="42.59094153530895709991455078125" lon="-0.0203111954033374786376953125">
        <ele>1319.199951171875</ele>
        <time>2020-08-16T12:16:16.000Z</time>
      </trkpt>
      <trkpt lat="42.59094404987990856170654296875" lon="-0.02034388482570648193359375">
        <ele>1319.199951171875</ele>
        <time>2020-08-16T12:16:17.000Z</time>
      </trkpt>
      <trkpt lat="42.59091538377106189727783203125" lon="-0.02042946405708789825439453125">
        <ele>1319.4000244140625</ele>
        <time>2020-08-16T12:16:20.000Z</time>
      </trkpt>
      <trkpt lat="42.59089493192732334136962890625" lon="-0.02044714987277984619140625">
        <ele>1319.5999755859375</ele>
        <time>2020-08-16T12:16:21.000Z</time>
      </trkpt>
      <trkpt lat="42.59077238850295543670654296875" lon="-0.020427703857421875">
        <ele>1320.5999755859375</ele>
        <time>2020-08-16T12:16:26.000Z</time>
      </trkpt>
      <trkpt lat="42.5907495059072971343994140625" lon="-0.02041320316493511199951171875">
        <ele>1320.800048828125</ele>
        <time>2020-08-16T12:16:27.000Z</time>
      </trkpt>
      <trkpt lat="42.590587399899959564208984375" lon="-0.020352266728878021240234375">
        <ele>1321.4000244140625</ele>
        <time>2020-08-16T12:16:34.000Z</time>
      </trkpt>
      <trkpt lat="42.590563260018825531005859375" lon="-0.02035905607044696807861328125">
        <ele>1321.800048828125</ele>
        <time>2020-08-16T12:16:35.000Z</time>
      </trkpt>
      <trkpt lat="42.59046343155205249786376953125" lon="-0.020440779626369476318359375">
        <ele>1323</ele>
        <time>2020-08-16T12:16:40.000Z</time>
      </trkpt>
      <trkpt lat="42.59035865776240825653076171875" lon="-0.02064672298729419708251953125">
        <ele>1324</ele>
        <time>2020-08-16T12:16:48.000Z</time>
      </trkpt>
      <trkpt lat="42.59034742601215839385986328125" lon="-0.0206746347248554229736328125">
        <ele>1324.199951171875</ele>
        <time>2020-08-16T12:16:49.000Z</time>
      </trkpt>
      <trkpt lat="42.5903250463306903839111328125" lon="-0.020822323858737945556640625">
        <ele>1325</ele>
        <time>2020-08-16T12:16:54.000Z</time>
      </trkpt>
      <trkpt lat="42.59031959809362888336181640625" lon="-0.0208835117518901824951171875">
        <ele>1325.4000244140625</ele>
        <time>2020-08-16T12:16:56.000Z</time>
      </trkpt>
      <trkpt lat="42.59031306020915508270263671875" lon="-0.02099792473018169403076171875">
        <ele>1326.199951171875</ele>
        <time>2020-08-16T12:17:00.000Z</time>
      </trkpt>
      <trkpt lat="42.59032378904521465301513671875" lon="-0.02110965549945831298828125">
        <ele>1327</ele>
        <time>2020-08-16T12:17:04.000Z</time>
      </trkpt>
      <trkpt lat="42.5903287343680858612060546875" lon="-0.0211919657886028289794921875">
        <ele>1327.199951171875</ele>
        <time>2020-08-16T12:17:07.000Z</time>
      </trkpt>
      <trkpt lat="42.59035010822117328643798828125" lon="-0.02132582478225231170654296875">
        <ele>1328</ele>
        <time>2020-08-16T12:17:12.000Z</time>
      </trkpt>
      <trkpt lat="42.59035496972501277923583984375" lon="-0.0213528983294963836669921875">
        <ele>1328.4000244140625</ele>
        <time>2020-08-16T12:17:13.000Z</time>
      </trkpt>
      <trkpt lat="42.5903887487947940826416015625" lon="-0.02147904597222805023193359375">
        <ele>1329.4000244140625</ele>
        <time>2020-08-16T12:17:18.000Z</time>
      </trkpt>
      <trkpt lat="42.59041481651365756988525390625" lon="-0.021551884710788726806640625">
        <ele>1330.199951171875</ele>
        <time>2020-08-16T12:17:21.000Z</time>
      </trkpt>
      <trkpt lat="42.5904286466538906097412109375" lon="-0.02160158939659595489501953125">
        <ele>1330.4000244140625</ele>
        <time>2020-08-16T12:17:23.000Z</time>
      </trkpt>
      <trkpt lat="42.59048488922417163848876953125" lon="-0.02173863351345062255859375">
        <ele>1331.5999755859375</ele>
        <time>2020-08-16T12:17:29.000Z</time>
      </trkpt>
      <trkpt lat="42.5905526988208293914794921875" lon="-0.02190065570175647735595703125">
        <ele>1332.5999755859375</ele>
        <time>2020-08-16T12:17:36.000Z</time>
      </trkpt>
      <trkpt lat="42.590568624436855316162109375" lon="-0.02194960601627826690673828125">
        <ele>1333</ele>
        <time>2020-08-16T12:17:38.000Z</time>
      </trkpt>
      <trkpt lat="42.59060852229595184326171875" lon="-0.02206385135650634765625">
        <ele>1334</ele>
        <time>2020-08-16T12:17:43.000Z</time>
      </trkpt>
      <trkpt lat="42.5906227715313434600830078125" lon="-0.0221092812716960906982421875">
        <ele>1334.199951171875</ele>
        <time>2020-08-16T12:17:45.000Z</time>
      </trkpt>
      <trkpt lat="42.5906656868755817413330078125" lon="-0.02228605560958385467529296875">
        <ele>1334.5999755859375</ele>
        <time>2020-08-16T12:17:52.000Z</time>
      </trkpt>
      <trkpt lat="42.59068052284419536590576171875" lon="-0.02236417494714260101318359375">
        <ele>1334.800048828125</ele>
        <time>2020-08-16T12:17:55.000Z</time>
      </trkpt>
      <trkpt lat="42.59070499800145626068115234375" lon="-0.0224884785711765289306640625">
        <ele>1336</ele>
        <time>2020-08-16T12:18:00.000Z</time>
      </trkpt>
      <trkpt lat="42.590710781514644622802734375" lon="-0.0225139595568180084228515625">
        <ele>1336</ele>
        <time>2020-08-16T12:18:01.000Z</time>
      </trkpt>
      <trkpt lat="42.590743638575077056884765625" lon="-0.02268721349537372589111328125">
        <ele>1337.199951171875</ele>
        <time>2020-08-16T12:18:08.000Z</time>
      </trkpt>
      <trkpt lat="42.5907471589744091033935546875" lon="-0.0227330625057220458984375">
        <ele>1337.4000244140625</ele>
        <time>2020-08-16T12:18:10.000Z</time>
      </trkpt>
      <trkpt lat="42.59076098911464214324951171875" lon="-0.022817887365818023681640625">
        <ele>1338</ele>
        <time>2020-08-16T12:18:16.000Z</time>
      </trkpt>
      <trkpt lat="42.5907598994672298431396484375" lon="-0.0228163786232471466064453125">
        <ele>1337.800048828125</ele>
        <time>2020-08-16T12:18:18.000Z</time>
      </trkpt>
      <trkpt lat="42.5902921892702579498291015625" lon="-0.02401222474873065948486328125">
        <ele>1333.4000244140625</ele>
        <time>2020-08-16T12:30:32.000Z</time>
      </trkpt>
      <trkpt lat="42.59023896418511867523193359375" lon="-0.0240284018218517303466796875">
        <ele>1333.199951171875</ele>
        <time>2020-08-16T12:30:36.000Z</time>
      </trkpt>
      <trkpt lat="42.59004467166960239410400390625" lon="-0.02412102185189723968505859375">
        <ele>1332.800048828125</ele>
        <time>2020-08-16T12:30:42.000Z</time>
      </trkpt>
      <trkpt lat="42.58990318514406681060791015625" lon="-0.0241675414144992828369140625">
        <ele>1331.800048828125</ele>
        <time>2020-08-16T12:30:45.000Z</time>
      </trkpt>
      <trkpt lat="42.58979137055575847625732421875" lon="-0.02420115284621715545654296875">
        <ele>1331.4000244140625</ele>
        <time>2020-08-16T12:30:47.000Z</time>
      </trkpt>
      <trkpt lat="42.58953161537647247314453125" lon="-0.02425462938845157623291015625">
        <ele>1330.800048828125</ele>
        <time>2020-08-16T12:30:51.000Z</time>
      </trkpt>
      <trkpt lat="42.58945944719016551971435546875" lon="-0.02427424304187297821044921875">
        <ele>1330.199951171875</ele>
        <time>2020-08-16T12:30:52.000Z</time>
      </trkpt>
      <trkpt lat="42.58938803337514400482177734375" lon="-0.02430676482617855072021484375">
        <ele>1329.800048828125</ele>
        <time>2020-08-16T12:30:53.000Z</time>
      </trkpt>
      <trkpt lat="42.58931829594075679779052734375" lon="-0.02434984780848026275634765625">
        <ele>1329.199951171875</ele>
        <time>2020-08-16T12:30:54.000Z</time>
      </trkpt>
      <trkpt lat="42.5891834311187267303466796875" lon="-0.0244645960628986358642578125">
        <ele>1328.4000244140625</ele>
        <time>2020-08-16T12:30:56.000Z</time>
      </trkpt>
      <trkpt lat="42.589122913777828216552734375" lon="-0.02453743480145931243896484375">
        <ele>1328</ele>
        <time>2020-08-16T12:30:57.000Z</time>
      </trkpt>
      <trkpt lat="42.5889708660542964935302734375" lon="-0.02480666153132915496826171875">
        <ele>1327</ele>
        <time>2020-08-16T12:31:00.000Z</time>
      </trkpt>
      <trkpt lat="42.5889245979487895965576171875" lon="-0.0249044783413410186767578125">
        <ele>1326.199951171875</ele>
        <time>2020-08-16T12:31:01.000Z</time>
      </trkpt>
      <trkpt lat="42.5888176448643207550048828125" lon="-0.025092400610446929931640625">
        <ele>1325.4000244140625</ele>
        <time>2020-08-16T12:31:03.000Z</time>
      </trkpt>
      <trkpt lat="42.58875419385731220245361328125" lon="-0.02517462708055973052978515625">
        <ele>1325.199951171875</ele>
        <time>2020-08-16T12:31:04.000Z</time>
      </trkpt>
      <trkpt lat="42.58856928907334804534912109375" lon="-0.0254298560321331024169921875">
        <ele>1324</ele>
        <time>2020-08-16T12:31:07.000Z</time>
      </trkpt>
      <trkpt lat="42.58845646865665912628173828125" lon="-0.02559565007686614990234375">
        <ele>1322.199951171875</ele>
        <time>2020-08-16T12:31:09.000Z</time>
      </trkpt>
      <trkpt lat="42.58839695714414119720458984375" lon="-0.025670416653156280517578125">
        <ele>1321.5999755859375</ele>
        <time>2020-08-16T12:31:10.000Z</time>
      </trkpt>
      <trkpt lat="42.58833157829940319061279296875" lon="-0.02573202364146709442138671875">
        <ele>1321</ele>
        <time>2020-08-16T12:31:11.000Z</time>
      </trkpt>
      <trkpt lat="42.58825756609439849853515625" lon="-0.02577812410891056060791015625">
        <ele>1320.4000244140625</ele>
        <time>2020-08-16T12:31:12.000Z</time>
      </trkpt>
      <trkpt lat="42.58817550726234912872314453125" lon="-0.02581022679805755615234375">
        <ele>1319.800048828125</ele>
        <time>2020-08-16T12:31:13.000Z</time>
      </trkpt>
      <trkpt lat="42.58808867074549198150634765625" lon="-0.0258378870785236358642578125">
        <ele>1319.4000244140625</ele>
        <time>2020-08-16T12:31:14.000Z</time>
      </trkpt>
      <trkpt lat="42.5880025885999202728271484375" lon="-0.025868900120258331298828125">
        <ele>1319</ele>
        <time>2020-08-16T12:31:15.000Z</time>
      </trkpt>
      <trkpt lat="42.58791969157755374908447265625" lon="-0.0259052775800228118896484375">
        <ele>1318.4000244140625</ele>
        <time>2020-08-16T12:31:16.000Z</time>
      </trkpt>
      <trkpt lat="42.587836124002933502197265625" lon="-0.025941990315914154052734375">
        <ele>1317.4000244140625</ele>
        <time>2020-08-16T12:31:17.000Z</time>
      </trkpt>
      <trkpt lat="42.5877487845718860626220703125" lon="-0.0259706564247608184814453125">
        <ele>1316.5999755859375</ele>
        <time>2020-08-16T12:31:18.000Z</time>
      </trkpt>
      <trkpt lat="42.58765968494117259979248046875" lon="-0.0259927846491336822509765625">
        <ele>1315.800048828125</ele>
        <time>2020-08-16T12:31:19.000Z</time>
      </trkpt>
      <trkpt lat="42.5875744409859180450439453125" lon="-0.026017762720584869384765625">
        <ele>1315.199951171875</ele>
        <time>2020-08-16T12:31:20.000Z</time>
      </trkpt>
      <trkpt lat="42.587492465972900390625" lon="-0.02605640329420566558837890625">
        <ele>1314.5999755859375</ele>
        <time>2020-08-16T12:31:21.000Z</time>
      </trkpt>
      <trkpt lat="42.58735106326639652252197265625" lon="-0.02618950791656970977783203125">
        <ele>1312.800048828125</ele>
        <time>2020-08-16T12:31:23.000Z</time>
      </trkpt>
      <trkpt lat="42.5872576050460338592529296875" lon="-0.02635865472257137298583984375">
        <ele>1310.5999755859375</ele>
        <time>2020-08-16T12:31:25.000Z</time>
      </trkpt>
      <trkpt lat="42.5872384943068027496337890625" lon="-0.02644867636263370513916015625">
        <ele>1310</ele>
        <time>2020-08-16T12:31:26.000Z</time>
      </trkpt>
      <trkpt lat="42.58723421953618526458740234375" lon="-0.02654389478266239166259765625">
        <ele>1309.5999755859375</ele>
        <time>2020-08-16T12:31:27.000Z</time>
      </trkpt>
      <trkpt lat="42.58723405189812183380126953125" lon="-0.02664866857230663299560546875">
        <ele>1309.199951171875</ele>
        <time>2020-08-16T12:31:28.000Z</time>
      </trkpt>
      <trkpt lat="42.587225921452045440673828125" lon="-0.02675310708582401275634765625">
        <ele>1308.4000244140625</ele>
        <time>2020-08-16T12:31:29.000Z</time>
      </trkpt>
      <trkpt lat="42.5872041285037994384765625" lon="-0.02685335464775562286376953125">
        <ele>1307.800048828125</ele>
        <time>2020-08-16T12:31:30.000Z</time>
      </trkpt>
      <trkpt lat="42.58717319928109645843505859375" lon="-0.02694639377295970916748046875">
        <ele>1307.4000244140625</ele>
        <time>2020-08-16T12:31:31.000Z</time>
      </trkpt>
      <trkpt lat="42.587092481553554534912109375" lon="-0.02710171043872833251953125">
        <ele>1305.800048828125</ele>
        <time>2020-08-16T12:31:33.000Z</time>
      </trkpt>
      <trkpt lat="42.58704126812517642974853515625" lon="-0.02716985531151294708251953125">
        <ele>1305.4000244140625</ele>
        <time>2020-08-16T12:31:34.000Z</time>
      </trkpt>
      <trkpt lat="42.58692056871950626373291015625" lon="-0.027280747890472412109375">
        <ele>1304.5999755859375</ele>
        <time>2020-08-16T12:31:36.000Z</time>
      </trkpt>
      <trkpt lat="42.58680221624672412872314453125" lon="-0.02734671346843242645263671875">
        <ele>1303</ele>
        <time>2020-08-16T12:31:38.000Z</time>
      </trkpt>
      <trkpt lat="42.586699537932872772216796875" lon="-0.02737437374889850616455078125">
        <ele>1301.800048828125</ele>
        <time>2020-08-16T12:31:40.000Z</time>
      </trkpt>
      <trkpt lat="42.586653940379619598388671875" lon="-0.0273808278143405914306640625">
        <ele>1300.5999755859375</ele>
        <time>2020-08-16T12:31:41.000Z</time>
      </trkpt>
      <trkpt lat="42.58661680854856967926025390625" lon="-0.02738560549914836883544921875">
        <ele>1300.199951171875</ele>
        <time>2020-08-16T12:31:42.000Z</time>
      </trkpt>
      <trkpt lat="42.5865917466580867767333984375" lon="-0.027389712631702423095703125">
        <ele>1299.5999755859375</ele>
        <time>2020-08-16T12:31:43.000Z</time>
      </trkpt>
      <trkpt lat="42.5865800119936466217041015625" lon="-0.0273932330310344696044921875">
        <ele>1298.800048828125</ele>
        <time>2020-08-16T12:31:45.000Z</time>
      </trkpt>
      <trkpt lat="42.5865786708891391754150390625" lon="-0.027395747601985931396484375">
        <ele>1298.5999755859375</ele>
        <time>2020-08-16T12:31:48.000Z</time>
      </trkpt>
      <trkpt lat="42.58655495010316371917724609375" lon="-0.02738962881267070770263671875">
        <ele>1298.4000244140625</ele>
        <time>2020-08-16T12:32:02.000Z</time>
      </trkpt>
      <trkpt lat="42.5864284671843051910400390625" lon="-0.02737655304372310638427734375">
        <ele>1298</ele>
        <time>2020-08-16T12:32:06.000Z</time>
      </trkpt>
      <trkpt lat="42.58632327429950237274169921875" lon="-0.02736859023571014404296875">
        <ele>1297.4000244140625</ele>
        <time>2020-08-16T12:32:08.000Z</time>
      </trkpt>
      <trkpt lat="42.586260326206684112548828125" lon="-0.02736967988312244415283203125">
        <ele>1297</ele>
        <time>2020-08-16T12:32:09.000Z</time>
      </trkpt>
      <trkpt lat="42.58619486354291439056396484375" lon="-0.0273840129375457763671875">
        <ele>1296.5999755859375</ele>
        <time>2020-08-16T12:32:10.000Z</time>
      </trkpt>
      <trkpt lat="42.5861357711255550384521484375" lon="-0.02742223441600799560546875">
        <ele>1296.4000244140625</ele>
        <time>2020-08-16T12:32:11.000Z</time>
      </trkpt>
      <trkpt lat="42.58603141643106937408447265625" lon="-0.02754335291683673858642578125">
        <ele>1294.800048828125</ele>
        <time>2020-08-16T12:32:13.000Z</time>
      </trkpt>
      <trkpt lat="42.5859758444130420684814453125" lon="-0.02760822884738445281982421875">
        <ele>1294.4000244140625</ele>
        <time>2020-08-16T12:32:14.000Z</time>
      </trkpt>
      <trkpt lat="42.58585019968450069427490234375" lon="-0.0276790559291839599609375">
        <ele>1293.5999755859375</ele>
        <time>2020-08-16T12:32:16.000Z</time>
      </trkpt>
      <trkpt lat="42.58562740869820117950439453125" lon="-0.02761946059763431549072265625">
        <ele>1292.4000244140625</ele>
        <time>2020-08-16T12:32:19.000Z</time>
      </trkpt>
      <trkpt lat="42.58547209203243255615234375" lon="-0.0275514833629131317138671875">
        <ele>1290.5999755859375</ele>
        <time>2020-08-16T12:32:21.000Z</time>
      </trkpt>
      <trkpt lat="42.5853150151669979095458984375" lon="-0.0275276787579059600830078125">
        <ele>1288.5999755859375</ele>
        <time>2020-08-16T12:32:23.000Z</time>
      </trkpt>
      <trkpt lat="42.58518375456333160400390625" lon="-0.0275699235498905181884765625">
        <ele>1287.4000244140625</ele>
        <time>2020-08-16T12:32:25.000Z</time>
      </trkpt>
      <trkpt lat="42.585138492286205291748046875" lon="-0.0276094861328601837158203125">
        <ele>1287</ele>
        <time>2020-08-16T12:32:26.000Z</time>
      </trkpt>
      <trkpt lat="42.58510236628353595733642578125" lon="-0.02765215002000331878662109375">
        <ele>1286</ele>
        <time>2020-08-16T12:32:27.000Z</time>
      </trkpt>
      <trkpt lat="42.5850659050047397613525390625" lon="-0.02769489772617816925048828125">
        <ele>1285.199951171875</ele>
        <time>2020-08-16T12:32:28.000Z</time>
      </trkpt>
      <trkpt lat="42.58502491749823093414306640625" lon="-0.0277432613074779510498046875">
        <ele>1284.5999755859375</ele>
        <time>2020-08-16T12:32:29.000Z</time>
      </trkpt>
      <trkpt lat="42.58493162691593170166015625" lon="-0.02785717137157917022705078125">
        <ele>1283.800048828125</ele>
        <time>2020-08-16T12:32:31.000Z</time>
      </trkpt>
      <trkpt lat="42.5848888792097568511962890625" lon="-0.02792783081531524658203125">
        <ele>1283.4000244140625</ele>
        <time>2020-08-16T12:32:32.000Z</time>
      </trkpt>
      <trkpt lat="42.58483330719172954559326171875" lon="-0.0280988216400146484375">
        <ele>1282.5999755859375</ele>
        <time>2020-08-16T12:32:34.000Z</time>
      </trkpt>
      <trkpt lat="42.58481704629957675933837890625" lon="-0.0281978957355022430419921875">
        <ele>1282.199951171875</ele>
        <time>2020-08-16T12:32:35.000Z</time>
      </trkpt>
      <trkpt lat="42.5848053954541683197021484375" lon="-0.02840350382030010223388671875">
        <ele>1281</ele>
        <time>2020-08-16T12:32:37.000Z</time>
      </trkpt>
      <trkpt lat="42.58480288088321685791015625" lon="-0.02851012162864208221435546875">
        <ele>1280.199951171875</ele>
        <time>2020-08-16T12:32:38.000Z</time>
      </trkpt>
      <trkpt lat="42.58479391224682331085205078125" lon="-0.02861556597054004669189453125">
        <ele>1279.4000244140625</ele>
        <time>2020-08-16T12:32:39.000Z</time>
      </trkpt>
      <trkpt lat="42.5847306288778781890869140625" lon="-0.02878404222428798675537109375">
        <ele>1278.5999755859375</ele>
        <time>2020-08-16T12:32:41.000Z</time>
      </trkpt>
      <trkpt lat="42.58467505685985088348388671875" lon="-0.02884925343096256256103515625">
        <ele>1278.199951171875</ele>
        <time>2020-08-16T12:32:42.000Z</time>
      </trkpt>
      <trkpt lat="42.58453373797237873077392578125" lon="-0.02896961756050586700439453125">
        <ele>1277</ele>
        <time>2020-08-16T12:32:44.000Z</time>
      </trkpt>
      <trkpt lat="42.58445695973932743072509765625" lon="-0.02903248183429241180419921875">
        <ele>1276</ele>
        <time>2020-08-16T12:32:45.000Z</time>
      </trkpt>
      <trkpt lat="42.58438169024884700775146484375" lon="-0.02910641022026538848876953125">
        <ele>1275.4000244140625</ele>
        <time>2020-08-16T12:32:46.000Z</time>
      </trkpt>
      <trkpt lat="42.58430960588157176971435546875" lon="-0.0291931629180908203125">
        <ele>1274.5999755859375</ele>
        <time>2020-08-16T12:32:47.000Z</time>
      </trkpt>
      <trkpt lat="42.58424070663750171661376953125" lon="-0.02928905189037322998046875">
        <ele>1273.800048828125</ele>
        <time>2020-08-16T12:32:48.000Z</time>
      </trkpt>
      <trkpt lat="42.58417256176471710205078125" lon="-0.0293849408626556396484375">
        <ele>1273</ele>
        <time>2020-08-16T12:32:49.000Z</time>
      </trkpt>
      <trkpt lat="42.584040798246860504150390625" lon="-0.0295527465641498565673828125">
        <ele>1271.4000244140625</ele>
        <time>2020-08-16T12:32:51.000Z</time>
      </trkpt>
      <trkpt lat="42.58397282101213932037353515625" lon="-0.02961720339953899383544921875">
        <ele>1270.800048828125</ele>
        <time>2020-08-16T12:32:52.000Z</time>
      </trkpt>
      <trkpt lat="42.58389671333134174346923828125" lon="-0.029657185077667236328125">
        <ele>1269.5999755859375</ele>
        <time>2020-08-16T12:32:53.000Z</time>
      </trkpt>
      <trkpt lat="42.58372823707759380340576171875" lon="-0.02967931330204010009765625">
        <ele>1267.800048828125</ele>
        <time>2020-08-16T12:32:55.000Z</time>
      </trkpt>
      <trkpt lat="42.5836369581520557403564453125" lon="-0.02967855893075466156005859375">
        <ele>1267.199951171875</ele>
        <time>2020-08-16T12:32:56.000Z</time>
      </trkpt>
      <trkpt lat="42.58354199118912220001220703125" lon="-0.02967797219753265380859375">
        <ele>1266.4000244140625</ele>
        <time>2020-08-16T12:32:57.000Z</time>
      </trkpt>
      <trkpt lat="42.58334602229297161102294921875" lon="-0.02967528998851776123046875">
        <ele>1264.5999755859375</ele>
        <time>2020-08-16T12:32:59.000Z</time>
      </trkpt>
      <trkpt lat="42.58324426598846912384033203125" lon="-0.02966858446598052978515625">
        <ele>1263.199951171875</ele>
        <time>2020-08-16T12:33:00.000Z</time>
      </trkpt>
      <trkpt lat="42.583138905465602874755859375" lon="-0.02965475432574748992919921875">
        <ele>1262.199951171875</ele>
        <time>2020-08-16T12:33:01.000Z</time>
      </trkpt>
      <trkpt lat="42.58292675949633121490478515625" lon="-0.02962005324661731719970703125">
        <ele>1261</ele>
        <time>2020-08-16T12:33:03.000Z</time>
      </trkpt>
      <trkpt lat="42.5828219018876552581787109375" lon="-0.02959976904094219207763671875">
        <ele>1259.800048828125</ele>
        <time>2020-08-16T12:33:04.000Z</time>
      </trkpt>
      <trkpt lat="42.582717798650264739990234375" lon="-0.02958141267299652099609375">
        <ele>1258.800048828125</ele>
        <time>2020-08-16T12:33:05.000Z</time>
      </trkpt>
      <trkpt lat="42.58252107538282871246337890625" lon="-0.0295539200305938720703125">
        <ele>1256.800048828125</ele>
        <time>2020-08-16T12:33:07.000Z</time>
      </trkpt>
      <trkpt lat="42.5824359990656375885009765625" lon="-0.02954394556581974029541015625">
        <ele>1255.800048828125</ele>
        <time>2020-08-16T12:33:08.000Z</time>
      </trkpt>
      <trkpt lat="42.58236299268901348114013671875" lon="-0.0295431911945343017578125">
        <ele>1254.199951171875</ele>
        <time>2020-08-16T12:33:09.000Z</time>
      </trkpt>
      <trkpt lat="42.582302726805210113525390625" lon="-0.02956238575279712677001953125">
        <ele>1253.4000244140625</ele>
        <time>2020-08-16T12:33:10.000Z</time>
      </trkpt>
      <trkpt lat="42.58225721307098865509033203125" lon="-0.0296075642108917236328125">
        <ele>1252.5999755859375</ele>
        <time>2020-08-16T12:33:11.000Z</time>
      </trkpt>
      <trkpt lat="42.582232989370822906494140625" lon="-0.0296724401414394378662109375">
        <ele>1252</ele>
        <time>2020-08-16T12:33:12.000Z</time>
      </trkpt>
      <trkpt lat="42.5822274573147296905517578125" lon="-0.029748380184173583984375">
        <ele>1251.4000244140625</ele>
        <time>2020-08-16T12:33:13.000Z</time>
      </trkpt>
      <trkpt lat="42.582233659923076629638671875" lon="-0.0299373082816600799560546875">
        <ele>1250</ele>
        <time>2020-08-16T12:33:15.000Z</time>
      </trkpt>
      <trkpt lat="42.58224430494010448455810546875" lon="-0.03022782504558563232421875">
        <ele>1248.5999755859375</ele>
        <time>2020-08-16T12:33:18.000Z</time>
      </trkpt>
      <trkpt lat="42.5822603143751621246337890625" lon="-0.03031156025826930999755859375">
        <ele>1247.800048828125</ele>
        <time>2020-08-16T12:33:19.000Z</time>
      </trkpt>
      <trkpt lat="42.5822831131517887115478515625" lon="-0.03037760965526103973388671875">
        <ele>1247</ele>
        <time>2020-08-16T12:33:20.000Z</time>
      </trkpt>
      <trkpt lat="42.58233382366597652435302734375" lon="-0.030486322939395904541015625">
        <ele>1245.800048828125</ele>
        <time>2020-08-16T12:33:22.000Z</time>
      </trkpt>
      <trkpt lat="42.58235259912908077239990234375" lon="-0.03052898682653903961181640625">
        <ele>1245.199951171875</ele>
        <time>2020-08-16T12:33:23.000Z</time>
      </trkpt>
      <trkpt lat="42.5823749788105487823486328125" lon="-0.03061146475374698638916015625">
        <ele>1244.4000244140625</ele>
        <time>2020-08-16T12:33:25.000Z</time>
      </trkpt>
      <trkpt lat="42.582372464239597320556640625" lon="-0.030709616839885711669921875">
        <ele>1244</ele>
        <time>2020-08-16T12:33:28.000Z</time>
      </trkpt>
      <trkpt lat="42.5822931714355945587158203125" lon="-0.030792094767093658447265625">
        <ele>1244</ele>
        <time>2020-08-16T12:33:32.000Z</time>
      </trkpt>
      <trkpt lat="42.5822562910616397857666015625" lon="-0.03080106340348720550537109375">
        <ele>1243.800048828125</ele>
        <time>2020-08-16T12:33:33.000Z</time>
      </trkpt>
      <trkpt lat="42.58216559886932373046875" lon="-0.0307949446141719818115234375">
        <ele>1243.199951171875</ele>
        <time>2020-08-16T12:33:35.000Z</time>
      </trkpt>
      <trkpt lat="42.5821151398122310638427734375" lon="-0.03077566623687744140625">
        <ele>1242.800048828125</ele>
        <time>2020-08-16T12:33:36.000Z</time>
      </trkpt>
      <trkpt lat="42.58200609125196933746337890625" lon="-0.03071120940148830413818359375">
        <ele>1242</ele>
        <time>2020-08-16T12:33:38.000Z</time>
      </trkpt>
      <trkpt lat="42.5818841345608234405517578125" lon="-0.03062085248529911041259765625">
        <ele>1241.199951171875</ele>
        <time>2020-08-16T12:33:40.000Z</time>
      </trkpt>
      <trkpt lat="42.58181490004062652587890625" lon="-0.0305706448853015899658203125">
        <ele>1240.5999755859375</ele>
        <time>2020-08-16T12:33:41.000Z</time>
      </trkpt>
      <trkpt lat="42.58159034885466098785400390625" lon="-0.0303892605006694793701171875">
        <ele>1239.199951171875</ele>
        <time>2020-08-16T12:33:44.000Z</time>
      </trkpt>
      <trkpt lat="42.58151826448738574981689453125" lon="-0.03032664768397808074951171875">
        <ele>1238.199951171875</ele>
        <time>2020-08-16T12:33:45.000Z</time>
      </trkpt>
      <trkpt lat="42.58137811906635761260986328125" lon="-0.03022137098014354705810546875">
        <ele>1236.800048828125</ele>
        <time>2020-08-16T12:33:47.000Z</time>
      </trkpt>
      <trkpt lat="42.581310980021953582763671875" lon="-0.0301884301006793975830078125">
        <ele>1235.5999755859375</ele>
        <time>2020-08-16T12:33:48.000Z</time>
      </trkpt>
      <trkpt lat="42.58124568499624729156494140625" lon="-0.0301770307123661041259765625">
        <ele>1234</ele>
        <time>2020-08-16T12:33:49.000Z</time>
      </trkpt>
      <trkpt lat="42.58113219402730464935302734375" lon="-0.03023243509232997894287109375">
        <ele>1232.800048828125</ele>
        <time>2020-08-16T12:33:51.000Z</time>
      </trkpt>
      <trkpt lat="42.58109564892947673797607421875" lon="-0.03029353916645050048828125">
        <ele>1231.800048828125</ele>
        <time>2020-08-16T12:33:52.000Z</time>
      </trkpt>
      <trkpt lat="42.581070922315120697021484375" lon="-0.03044952638447284698486328125">
        <ele>1230.4000244140625</ele>
        <time>2020-08-16T12:33:54.000Z</time>
      </trkpt>
      <trkpt lat="42.5810710899531841278076171875" lon="-0.03053904511034488677978515625">
        <ele>1230.199951171875</ele>
        <time>2020-08-16T12:33:55.000Z</time>
      </trkpt>
      <trkpt lat="42.58106564171612262725830078125" lon="-0.03073618747293949127197265625">
        <ele>1229.4000244140625</ele>
        <time>2020-08-16T12:33:57.000Z</time>
      </trkpt>
      <trkpt lat="42.5810392387211322784423828125" lon="-0.03094732761383056640625">
        <ele>1228.5999755859375</ele>
        <time>2020-08-16T12:33:59.000Z</time>
      </trkpt>
      <trkpt lat="42.58102909661829471588134765625" lon="-0.031054951250553131103515625">
        <ele>1228</ele>
        <time>2020-08-16T12:34:00.000Z</time>
      </trkpt>
      <trkpt lat="42.58104569278657436370849609375" lon="-0.03128319047391414642333984375">
        <ele>1226.4000244140625</ele>
        <time>2020-08-16T12:34:02.000Z</time>
      </trkpt>
      <trkpt lat="42.5811089761555194854736328125" lon="-0.03151620738208293914794921875">
        <ele>1224.800048828125</ele>
        <time>2020-08-16T12:34:04.000Z</time>
      </trkpt>
      <trkpt lat="42.5811924599111080169677734375" lon="-0.03175743855535984039306640625">
        <ele>1223.199951171875</ele>
        <time>2020-08-16T12:34:06.000Z</time>
      </trkpt>
      <trkpt lat="42.58123864419758319854736328125" lon="-0.0318728573620319366455078125">
        <ele>1222.4000244140625</ele>
        <time>2020-08-16T12:34:07.000Z</time>
      </trkpt>
      <trkpt lat="42.5812853313982486724853515625" lon="-0.031985677778720855712890625">
        <ele>1221.5999755859375</ele>
        <time>2020-08-16T12:34:08.000Z</time>
      </trkpt>
      <trkpt lat="42.58136554621160030364990234375" lon="-0.032204277813434600830078125">
        <ele>1220.199951171875</ele>
        <time>2020-08-16T12:34:10.000Z</time>
      </trkpt>
      <trkpt lat="42.5813966430723667144775390625" lon="-0.03231131471693515777587890625">
        <ele>1219.4000244140625</ele>
        <time>2020-08-16T12:34:11.000Z</time>
      </trkpt>
      <trkpt lat="42.58141717873513698577880859375" lon="-0.03241860307753086090087890625">
        <ele>1218.4000244140625</ele>
        <time>2020-08-16T12:34:12.000Z</time>
      </trkpt>
      <trkpt lat="42.58142941631376743316650390625" lon="-0.0325405597686767578125">
        <ele>1217.5999755859375</ele>
        <time>2020-08-16T12:34:13.000Z</time>
      </trkpt>
      <trkpt lat="42.58143402636051177978515625" lon="-0.0326570682227611541748046875">
        <ele>1216.800048828125</ele>
        <time>2020-08-16T12:34:14.000Z</time>
      </trkpt>
      <trkpt lat="42.58140988647937774658203125" lon="-0.032888911664485931396484375">
        <ele>1215</ele>
        <time>2020-08-16T12:34:16.000Z</time>
      </trkpt>
      <trkpt lat="42.58138432167470455169677734375" lon="-0.032994188368320465087890625">
        <ele>1214.4000244140625</ele>
        <time>2020-08-16T12:34:17.000Z</time>
      </trkpt>
      <trkpt lat="42.58135230280458927154541015625" lon="-0.03309510648250579833984375">
        <ele>1213.5999755859375</ele>
        <time>2020-08-16T12:34:18.000Z</time>
      </trkpt>
      <trkpt lat="42.5813010893762111663818359375" lon="-0.033309347927570343017578125">
        <ele>1212</ele>
        <time>2020-08-16T12:34:20.000Z</time>
      </trkpt>
      <trkpt lat="42.58127837441861629486083984375" lon="-0.033406913280487060546875">
        <ele>1211.199951171875</ele>
        <time>2020-08-16T12:34:21.000Z</time>
      </trkpt>
      <trkpt lat="42.58124484680593013763427734375" lon="-0.0334925763309001922607421875">
        <ele>1210.5999755859375</ele>
        <time>2020-08-16T12:34:22.000Z</time>
      </trkpt>
      <trkpt lat="42.58107058703899383544921875" lon="-0.03366901539266109466552734375">
        <ele>1209.4000244140625</ele>
        <time>2020-08-16T12:34:25.000Z</time>
      </trkpt>
      <trkpt lat="42.58091895841062068939208984375" lon="-0.03374914638698101043701171875">
        <ele>1208.4000244140625</ele>
        <time>2020-08-16T12:34:27.000Z</time>
      </trkpt>
      <trkpt lat="42.5808357261121273040771484375" lon="-0.03377697430551052093505859375">
        <ele>1208</ele>
        <time>2020-08-16T12:34:28.000Z</time>
      </trkpt>
      <trkpt lat="42.58074939250946044921875" lon="-0.0338030420243740081787109375">
        <ele>1207.199951171875</ele>
        <time>2020-08-16T12:34:29.000Z</time>
      </trkpt>
      <trkpt lat="42.5805683434009552001953125" lon="-0.03385023213922977447509765625">
        <ele>1205.5999755859375</ele>
        <time>2020-08-16T12:34:31.000Z</time>
      </trkpt>
      <trkpt lat="42.58037991821765899658203125" lon="-0.03389197401702404022216796875">
        <ele>1204.199951171875</ele>
        <time>2020-08-16T12:34:33.000Z</time>
      </trkpt>
      <trkpt lat="42.5801953487098217010498046875" lon="-0.03391812555491924285888671875">
        <ele>1203</ele>
        <time>2020-08-16T12:34:35.000Z</time>
      </trkpt>
      <trkpt lat="42.58001974783837795257568359375" lon="-0.03388476558029651641845703125">
        <ele>1201.5999755859375</ele>
        <time>2020-08-16T12:34:37.000Z</time>
      </trkpt>
      <trkpt lat="42.5799334980547428131103515625" lon="-0.03384386189281940460205078125">
        <ele>1200.800048828125</ele>
        <time>2020-08-16T12:34:38.000Z</time>
      </trkpt>
      <trkpt lat="42.5798500142991542816162109375" lon="-0.03379507921636104583740234375">
        <ele>1200.4000244140625</ele>
        <time>2020-08-16T12:34:39.000Z</time>
      </trkpt>
      <trkpt lat="42.57969033904373645782470703125" lon="-0.033709667623043060302734375">
        <ele>1199</ele>
        <time>2020-08-16T12:34:41.000Z</time>
      </trkpt>
      <trkpt lat="42.579607777297496795654296875" lon="-0.0336836837232112884521484375">
        <ele>1198.4000244140625</ele>
        <time>2020-08-16T12:34:42.000Z</time>
      </trkpt>
      <trkpt lat="42.5795234553515911102294921875" lon="-0.03367706201970577239990234375">
        <ele>1197.5999755859375</ele>
        <time>2020-08-16T12:34:43.000Z</time>
      </trkpt>
      <trkpt lat="42.57944156415760517120361328125" lon="-0.0336873717606067657470703125">
        <ele>1196.4000244140625</ele>
        <time>2020-08-16T12:34:44.000Z</time>
      </trkpt>
      <trkpt lat="42.57936512120068073272705078125" lon="-0.03371176309883594512939453125">
        <ele>1195.4000244140625</ele>
        <time>2020-08-16T12:34:45.000Z</time>
      </trkpt>
      <trkpt lat="42.57921491749584674835205078125" lon="-0.03385324962437152862548828125">
        <ele>1194</ele>
        <time>2020-08-16T12:34:48.000Z</time>
      </trkpt>
      <trkpt lat="42.57919144816696643829345703125" lon="-0.03400705754756927490234375">
        <ele>1192.5999755859375</ele>
        <time>2020-08-16T12:34:50.000Z</time>
      </trkpt>
      <trkpt lat="42.5792032666504383087158203125" lon="-0.0340940617024898529052734375">
        <ele>1192</ele>
        <time>2020-08-16T12:34:51.000Z</time>
      </trkpt>
      <trkpt lat="42.57922765798866748809814453125" lon="-0.03418031148612499237060546875">
        <ele>1191.4000244140625</ele>
        <time>2020-08-16T12:34:52.000Z</time>
      </trkpt>
      <trkpt lat="42.579292953014373779296875" lon="-0.0343622826039791107177734375">
        <ele>1190</ele>
        <time>2020-08-16T12:34:54.000Z</time>
      </trkpt>
      <trkpt lat="42.5793232955038547515869140625" lon="-0.03446076996624469757080078125">
        <ele>1189</ele>
        <time>2020-08-16T12:34:55.000Z</time>
      </trkpt>
      <trkpt lat="42.57934592664241790771484375" lon="-0.03456084989011287689208984375">
        <ele>1188.199951171875</ele>
        <time>2020-08-16T12:34:56.000Z</time>
      </trkpt>
      <trkpt lat="42.57936210371553897857666015625" lon="-0.0346648693084716796875">
        <ele>1187.800048828125</ele>
        <time>2020-08-16T12:34:57.000Z</time>
      </trkpt>
      <trkpt lat="42.57939152419567108154296875" lon="-0.03488958813250064849853515625">
        <ele>1187</ele>
        <time>2020-08-16T12:34:59.000Z</time>
      </trkpt>
      <trkpt lat="42.57941524498164653778076171875" lon="-0.035000145435333251953125">
        <ele>1186.4000244140625</ele>
        <time>2020-08-16T12:35:00.000Z</time>
      </trkpt>
      <trkpt lat="42.579497806727886199951171875" lon="-0.03519334830343723297119140625">
        <ele>1184.800048828125</ele>
        <time>2020-08-16T12:35:02.000Z</time>
      </trkpt>
      <trkpt lat="42.5795928575098514556884765625" lon="-0.0353728048503398895263671875">
        <ele>1183.199951171875</ele>
        <time>2020-08-16T12:35:04.000Z</time>
      </trkpt>
      <trkpt lat="42.57963962852954864501953125" lon="-0.0355406105518341064453125">
        <ele>1182</ele>
        <time>2020-08-16T12:35:06.000Z</time>
      </trkpt>
      <trkpt lat="42.57960484363138675689697265625" lon="-0.035689808428287506103515625">
        <ele>1180.4000244140625</ele>
        <time>2020-08-16T12:35:08.000Z</time>
      </trkpt>
      <trkpt lat="42.57949269376695156097412109375" lon="-0.035785026848316192626953125">
        <ele>1179.199951171875</ele>
        <time>2020-08-16T12:35:10.000Z</time>
      </trkpt>
      <trkpt lat="42.5794198550283908843994140625" lon="-0.0358043052256107330322265625">
        <ele>1179</ele>
        <time>2020-08-16T12:35:11.000Z</time>
      </trkpt>
      <trkpt lat="42.57934165187180042266845703125" lon="-0.0358123518526554107666015625">
        <ele>1178.199951171875</ele>
        <time>2020-08-16T12:35:12.000Z</time>
      </trkpt>
      <trkpt lat="42.5792592577636241912841796875" lon="-0.0358140282332897186279296875">
        <ele>1177.5999755859375</ele>
        <time>2020-08-16T12:35:13.000Z</time>
      </trkpt>
      <trkpt lat="42.57917250506579875946044921875" lon="-0.0358207337558269500732421875">
        <ele>1176.800048828125</ele>
        <time>2020-08-16T12:35:14.000Z</time>
      </trkpt>
      <trkpt lat="42.5790825672447681427001953125" lon="-0.03583967685699462890625">
        <ele>1176</ele>
        <time>2020-08-16T12:35:15.000Z</time>
      </trkpt>
      <trkpt lat="42.5789917074143886566162109375" lon="-0.0358693487942218780517578125">
        <ele>1175.4000244140625</ele>
        <time>2020-08-16T12:35:16.000Z</time>
      </trkpt>
      <trkpt lat="42.5788042880594730377197265625" lon="-0.03593581728637218475341796875">
        <ele>1173.5999755859375</ele>
        <time>2020-08-16T12:35:18.000Z</time>
      </trkpt>
      <trkpt lat="42.57870915345847606658935546875" lon="-0.035963393747806549072265625">
        <ele>1172.4000244140625</ele>
        <time>2020-08-16T12:35:19.000Z</time>
      </trkpt>
      <trkpt lat="42.5786141864955425262451171875" lon="-0.03598191775381565093994140625">
        <ele>1171.199951171875</ele>
        <time>2020-08-16T12:35:20.000Z</time>
      </trkpt>
      <trkpt lat="42.57842651568353176116943359375" lon="-0.03602349199354648590087890625">
        <ele>1169.5999755859375</ele>
        <time>2020-08-16T12:35:22.000Z</time>
      </trkpt>
      <trkpt lat="42.5783328898251056671142578125" lon="-0.0360678322613239288330078125">
        <ele>1168.4000244140625</ele>
        <time>2020-08-16T12:35:23.000Z</time>
      </trkpt>
      <trkpt lat="42.57824026979506015777587890625" lon="-0.03612625412642955780029296875">
        <ele>1167.5999755859375</ele>
        <time>2020-08-16T12:35:24.000Z</time>
      </trkpt>
      <trkpt lat="42.57814773358404636383056640625" lon="-0.0361885316669940948486328125">
        <ele>1166.4000244140625</ele>
        <time>2020-08-16T12:35:25.000Z</time>
      </trkpt>
      <trkpt lat="42.5779773294925689697265625" lon="-0.03631585277616977691650390625">
        <ele>1164.199951171875</ele>
        <time>2020-08-16T12:35:27.000Z</time>
      </trkpt>
      <trkpt lat="42.57783475331962108612060546875" lon="-0.0364544056355953216552734375">
        <ele>1162.4000244140625</ele>
        <time>2020-08-16T12:35:29.000Z</time>
      </trkpt>
      <trkpt lat="42.57767600007355213165283203125" lon="-0.03653445281088352203369140625">
        <ele>1161.4000244140625</ele>
        <time>2020-08-16T12:35:31.000Z</time>
      </trkpt>
      <trkpt lat="42.57758933119475841522216796875" lon="-0.0365637056529521942138671875">
        <ele>1160.199951171875</ele>
        <time>2020-08-16T12:35:32.000Z</time>
      </trkpt>
      <trkpt lat="42.5775024108588695526123046875" lon="-0.0365911982953548431396484375">
        <ele>1159.199951171875</ele>
        <time>2020-08-16T12:35:33.000Z</time>
      </trkpt>
      <trkpt lat="42.57741465233266353607177734375" lon="-0.036603771150112152099609375">
        <ele>1158.5999755859375</ele>
        <time>2020-08-16T12:35:34.000Z</time>
      </trkpt>
      <trkpt lat="42.5773280672729015350341796875" lon="-0.0366082973778247833251953125">
        <ele>1157.800048828125</ele>
        <time>2020-08-16T12:35:35.000Z</time>
      </trkpt>
      <trkpt lat="42.577242739498615264892578125" lon="-0.036611817777156829833984375">
        <ele>1157.199951171875</ele>
        <time>2020-08-16T12:35:36.000Z</time>
      </trkpt>
      <trkpt lat="42.57716126739978790283203125" lon="-0.0366143323481082916259765625">
        <ele>1156</ele>
        <time>2020-08-16T12:35:37.000Z</time>
      </trkpt>
      <trkpt lat="42.577085159718990325927734375" lon="-0.03663067705929279327392578125">
        <ele>1154.5999755859375</ele>
        <time>2020-08-16T12:35:38.000Z</time>
      </trkpt>
      <trkpt lat="42.577018439769744873046875" lon="-0.03667174838483333587646484375">
        <ele>1153.800048828125</ele>
        <time>2020-08-16T12:35:39.000Z</time>
      </trkpt>
      <trkpt lat="42.576963789761066436767578125" lon="-0.03673595376312732696533203125">
        <ele>1152.5999755859375</ele>
        <time>2020-08-16T12:35:40.000Z</time>
      </trkpt>
      <trkpt lat="42.5769140012562274932861328125" lon="-0.0368144921958446502685546875">
        <ele>1151.199951171875</ele>
        <time>2020-08-16T12:35:41.000Z</time>
      </trkpt>
      <trkpt lat="42.5768600217998027801513671875" lon="-0.03689755685627460479736328125">
        <ele>1150.4000244140625</ele>
        <time>2020-08-16T12:35:42.000Z</time>
      </trkpt>
      <trkpt lat="42.57679916918277740478515625" lon="-0.03697902895510196685791015625">
        <ele>1149.5999755859375</ele>
        <time>2020-08-16T12:35:43.000Z</time>
      </trkpt>
      <trkpt lat="42.5767306052148342132568359375" lon="-0.03705044277012348175048828125">
        <ele>1148.800048828125</ele>
        <time>2020-08-16T12:35:44.000Z</time>
      </trkpt>
      <trkpt lat="42.576651982963085174560546875" lon="-0.03710903227329254150390625">
        <ele>1148</ele>
        <time>2020-08-16T12:35:45.000Z</time>
      </trkpt>
      <trkpt lat="42.576475627720355987548828125" lon="-0.03720684908330440521240234375">
        <ele>1146</ele>
        <time>2020-08-16T12:35:47.000Z</time>
      </trkpt>
      <trkpt lat="42.57638418115675449371337890625" lon="-0.03723249770700931549072265625">
        <ele>1145</ele>
        <time>2020-08-16T12:35:48.000Z</time>
      </trkpt>
      <trkpt lat="42.57628728635609149932861328125" lon="-0.03724222071468830108642578125">
        <ele>1143.800048828125</ele>
        <time>2020-08-16T12:35:49.000Z</time>
      </trkpt>
      <trkpt lat="42.57608167827129364013671875" lon="-0.03723132424056529998779296875">
        <ele>1142</ele>
        <time>2020-08-16T12:35:51.000Z</time>
      </trkpt>
      <trkpt lat="42.57597749121487140655517578125" lon="-0.037224702537059783935546875">
        <ele>1140.800048828125</ele>
        <time>2020-08-16T12:35:52.000Z</time>
      </trkpt>
      <trkpt lat="42.57587707601487636566162109375" lon="-0.03722243942320346832275390625">
        <ele>1139.5999755859375</ele>
        <time>2020-08-16T12:35:53.000Z</time>
      </trkpt>
      <trkpt lat="42.57578261196613311767578125" lon="-0.03721900284290313720703125">
        <ele>1138.5999755859375</ele>
        <time>2020-08-16T12:35:54.000Z</time>
      </trkpt>
      <trkpt lat="42.57569250650703907012939453125" lon="-0.0372077710926532745361328125">
        <ele>1137.800048828125</ele>
        <time>2020-08-16T12:35:55.000Z</time>
      </trkpt>
      <trkpt lat="42.57552671246230602264404296875" lon="-0.03715337254106998443603515625">
        <ele>1135.5999755859375</ele>
        <time>2020-08-16T12:35:57.000Z</time>
      </trkpt>
      <trkpt lat="42.5754525326192378997802734375" lon="-0.037114731967449188232421875">
        <ele>1134.199951171875</ele>
        <time>2020-08-16T12:35:58.000Z</time>
      </trkpt>
      <trkpt lat="42.57538254372775554656982421875" lon="-0.037075169384479522705078125">
        <ele>1132.800048828125</ele>
        <time>2020-08-16T12:35:59.000Z</time>
      </trkpt>
      <trkpt lat="42.57532018236815929412841796875" lon="-0.03703837282955646514892578125">
        <ele>1131.4000244140625</ele>
        <time>2020-08-16T12:36:00.000Z</time>
      </trkpt>
      <trkpt lat="42.5752637721598148345947265625" lon="-0.037010125815868377685546875">
        <ele>1130.4000244140625</ele>
        <time>2020-08-16T12:36:01.000Z</time>
      </trkpt>
      <trkpt lat="42.57521557621657848358154296875" lon="-0.03700233064591884613037109375">
        <ele>1129.5999755859375</ele>
        <time>2020-08-16T12:36:02.000Z</time>
      </trkpt>
      <trkpt lat="42.57517450489103794097900390625" lon="-0.03707139752805233001708984375">
        <ele>1128</ele>
        <time>2020-08-16T12:36:04.000Z</time>
      </trkpt>
      <trkpt lat="42.57522982545197010040283203125" lon="-0.037173740565776824951171875">
        <ele>1127</ele>
        <time>2020-08-16T12:36:06.000Z</time>
      </trkpt>
      <trkpt lat="42.57528103888034820556640625" lon="-0.0372201763093471527099609375">
        <ele>1126.5999755859375</ele>
        <time>2020-08-16T12:36:07.000Z</time>
      </trkpt>
      <trkpt lat="42.57541204802691936492919921875" lon="-0.0373164005577564239501953125">
        <ele>1125</ele>
        <time>2020-08-16T12:36:09.000Z</time>
      </trkpt>
      <trkpt lat="42.57548999972641468048095703125" lon="-0.0373656861484050750732421875">
        <ele>1123.5999755859375</ele>
        <time>2020-08-16T12:36:10.000Z</time>
      </trkpt>
      <trkpt lat="42.57557314820587635040283203125" lon="-0.03741237334907054901123046875">
        <ele>1122.800048828125</ele>
        <time>2020-08-16T12:36:11.000Z</time>
      </trkpt>
      <trkpt lat="42.57565998472273349761962890625" lon="-0.03745847381651401519775390625">
        <ele>1122.199951171875</ele>
        <time>2020-08-16T12:36:12.000Z</time>
      </trkpt>
      <trkpt lat="42.57574883289635181427001953125" lon="-0.03750289790332317352294921875">
        <ele>1121</ele>
        <time>2020-08-16T12:36:13.000Z</time>
      </trkpt>
      <trkpt lat="42.5758391059935092926025390625" lon="-0.03753910772502422332763671875">
        <ele>1120</ele>
        <time>2020-08-16T12:36:14.000Z</time>
      </trkpt>
      <trkpt lat="42.57601889781653881072998046875" lon="-0.03758805803954601287841796875">
        <ele>1118.199951171875</ele>
        <time>2020-08-16T12:36:16.000Z</time>
      </trkpt>
      <trkpt lat="42.5761737115681171417236328125" lon="-0.03763633780181407928466796875">
        <ele>1115.800048828125</ele>
        <time>2020-08-16T12:36:18.000Z</time>
      </trkpt>
      <trkpt lat="42.57623163051903247833251953125" lon="-0.03767724148929119110107421875">
        <ele>1115</ele>
        <time>2020-08-16T12:36:19.000Z</time>
      </trkpt>
      <trkpt lat="42.57627119310200214385986328125" lon="-0.03773692063987255096435546875">
        <ele>1114</ele>
        <time>2020-08-16T12:36:20.000Z</time>
      </trkpt>
      <trkpt lat="42.57628410123288631439208984375" lon="-0.03779995255172252655029296875">
        <ele>1113.199951171875</ele>
        <time>2020-08-16T12:36:21.000Z</time>
      </trkpt>
      <trkpt lat="42.5762687623500823974609375" lon="-0.0378615595400333404541015625">
        <ele>1112.800048828125</ele>
        <time>2020-08-16T12:36:22.000Z</time>
      </trkpt>
      <trkpt lat="42.5762297026813030242919921875" lon="-0.03790372051298618316650390625">
        <ele>1112.4000244140625</ele>
        <time>2020-08-16T12:36:23.000Z</time>
      </trkpt>
      <trkpt lat="42.57611453533172607421875" lon="-0.0379116833209991455078125">
        <ele>1111.4000244140625</ele>
        <time>2020-08-16T12:36:25.000Z</time>
      </trkpt>
      <trkpt lat="42.5760479830205440521240234375" lon="-0.03789215348660945892333984375">
        <ele>1111</ele>
        <time>2020-08-16T12:36:26.000Z</time>
      </trkpt>
      <trkpt lat="42.57589367218315601348876953125" lon="-0.03784957341849803924560546875">
        <ele>1110.4000244140625</ele>
        <time>2020-08-16T12:36:28.000Z</time>
      </trkpt>
      <trkpt lat="42.575806081295013427734375" lon="-0.03783213905990123748779296875">
        <ele>1109</ele>
        <time>2020-08-16T12:36:29.000Z</time>
      </trkpt>
      <trkpt lat="42.57571396417915821075439453125" lon="-0.0378122739493846893310546875">
        <ele>1108</ele>
        <time>2020-08-16T12:36:30.000Z</time>
      </trkpt>
      <trkpt lat="42.575618661940097808837890625" lon="-0.0377918221056461334228515625">
        <ele>1107</ele>
        <time>2020-08-16T12:36:31.000Z</time>
      </trkpt>
      <trkpt lat="42.57542780600488185882568359375" lon="-0.0377346575260162353515625">
        <ele>1104.800048828125</ele>
        <time>2020-08-16T12:36:33.000Z</time>
      </trkpt>
      <trkpt lat="42.57533946074545383453369140625" lon="-0.03770289011299610137939453125">
        <ele>1103.4000244140625</ele>
        <time>2020-08-16T12:36:34.000Z</time>
      </trkpt>
      <trkpt lat="42.5752594135701656341552734375" lon="-0.03767925314605236053466796875">
        <ele>1102.199951171875</ele>
        <time>2020-08-16T12:36:35.000Z</time>
      </trkpt>
      <trkpt lat="42.57519378326833248138427734375" lon="-0.0376674346625804901123046875">
        <ele>1101</ele>
        <time>2020-08-16T12:36:36.000Z</time>
      </trkpt>
      <trkpt lat="42.57514483295381069183349609375" lon="-0.0376714579761028289794921875">
        <ele>1099.800048828125</ele>
        <time>2020-08-16T12:36:37.000Z</time>
      </trkpt>
      <trkpt lat="42.5751132331788539886474609375" lon="-0.0376952625811100006103515625">
        <ele>1099</ele>
        <time>2020-08-16T12:36:38.000Z</time>
      </trkpt>
      <trkpt lat="42.5751048512756824493408203125" lon="-0.03773407079279422760009765625">
        <ele>1098.199951171875</ele>
        <time>2020-08-16T12:36:39.000Z</time>
      </trkpt>
      <trkpt lat="42.5751222856342792510986328125" lon="-0.03777346573770046234130859375">
        <ele>1097.800048828125</ele>
        <time>2020-08-16T12:36:40.000Z</time>
      </trkpt>
      <trkpt lat="42.57515765726566314697265625" lon="-0.0378038920462131500244140625">
        <ele>1097.4000244140625</ele>
        <time>2020-08-16T12:36:41.000Z</time>
      </trkpt>
      <trkpt lat="42.5752597488462924957275390625" lon="-0.0378478132188320159912109375">
        <ele>1096.199951171875</ele>
        <time>2020-08-16T12:36:43.000Z</time>
      </trkpt>
      <trkpt lat="42.57546083070337772369384765625" lon="-0.037948228418827056884765625">
        <ele>1094.800048828125</ele>
        <time>2020-08-16T12:36:46.000Z</time>
      </trkpt>
      <trkpt lat="42.5755373574793338775634765625" lon="-0.03799357451498508453369140625">
        <ele>1093.800048828125</ele>
        <time>2020-08-16T12:36:47.000Z</time>
      </trkpt>
      <trkpt lat="42.5756164826452732086181640625" lon="-0.038047134876251220703125">
        <ele>1092.800048828125</ele>
        <time>2020-08-16T12:36:48.000Z</time>
      </trkpt>
      <trkpt lat="42.575776912271976470947265625" lon="-0.038176886737346649169921875">
        <ele>1091.199951171875</ele>
        <time>2020-08-16T12:36:50.000Z</time>
      </trkpt>
      <trkpt lat="42.57593541406095027923583984375" lon="-0.03831476904451847076416015625">
        <ele>1090.199951171875</ele>
        <time>2020-08-16T12:36:52.000Z</time>
      </trkpt>
      <trkpt lat="42.576010264456272125244140625" lon="-0.0383770465850830078125">
        <ele>1088.4000244140625</ele>
        <time>2020-08-16T12:36:53.000Z</time>
      </trkpt>
      <trkpt lat="42.5760764814913272857666015625" lon="-0.03843647427856922149658203125">
        <ele>1087.199951171875</ele>
        <time>2020-08-16T12:36:54.000Z</time>
      </trkpt>
      <trkpt lat="42.57612526416778564453125" lon="-0.03849213011562824249267578125">
        <ele>1086.4000244140625</ele>
        <time>2020-08-16T12:36:55.000Z</time>
      </trkpt>
      <trkpt lat="42.57615351118147373199462890625" lon="-0.038561113178730010986328125">
        <ele>1085.800048828125</ele>
        <time>2020-08-16T12:36:56.000Z</time>
      </trkpt>
      <trkpt lat="42.576155774295330047607421875" lon="-0.03862171433866024017333984375">
        <ele>1085</ele>
        <time>2020-08-16T12:36:57.000Z</time>
      </trkpt>
      <trkpt lat="42.57613272406160831451416015625" lon="-0.0386705808341503143310546875">
        <ele>1084.4000244140625</ele>
        <time>2020-08-16T12:36:58.000Z</time>
      </trkpt>
      <trkpt lat="42.5760917365550994873046875" lon="-0.03869597800076007843017578125">
        <ele>1084</ele>
        <time>2020-08-16T12:36:59.000Z</time>
      </trkpt>
      <trkpt lat="42.5759879685938358306884765625" lon="-0.038678459823131561279296875">
        <ele>1083.199951171875</ele>
        <time>2020-08-16T12:37:01.000Z</time>
      </trkpt>
      <trkpt lat="42.5759292952716350555419921875" lon="-0.03865339793264865875244140625">
        <ele>1082.800048828125</ele>
        <time>2020-08-16T12:37:02.000Z</time>
      </trkpt>
      <trkpt lat="42.57579308934509754180908203125" lon="-0.03860143013298511505126953125">
        <ele>1082.199951171875</ele>
        <time>2020-08-16T12:37:04.000Z</time>
      </trkpt>
      <trkpt lat="42.57563316263258457183837890625" lon="-0.03855206072330474853515625">
        <ele>1080.5999755859375</ele>
        <time>2020-08-16T12:37:06.000Z</time>
      </trkpt>
      <trkpt lat="42.5754560530185699462890625" lon="-0.03850973211228847503662109375">
        <ele>1079.5999755859375</ele>
        <time>2020-08-16T12:37:08.000Z</time>
      </trkpt>
      <trkpt lat="42.5753675401210784912109375" lon="-0.0384989194571971893310546875">
        <ele>1078.4000244140625</ele>
        <time>2020-08-16T12:37:09.000Z</time>
      </trkpt>
      <trkpt lat="42.57528229616582393646240234375" lon="-0.03850084729492664337158203125">
        <ele>1077.5999755859375</ele>
        <time>2020-08-16T12:37:10.000Z</time>
      </trkpt>
      <trkpt lat="42.57519948296248912811279296875" lon="-0.03852062858641147613525390625">
        <ele>1077</ele>
        <time>2020-08-16T12:37:11.000Z</time>
      </trkpt>
      <trkpt lat="42.575053386390209197998046875" lon="-0.0386407412588596343994140625">
        <ele>1075.4000244140625</ele>
        <time>2020-08-16T12:37:13.000Z</time>
      </trkpt>
      <trkpt lat="42.57494651712477207183837890625" lon="-0.03882438875734806060791015625">
        <ele>1074</ele>
        <time>2020-08-16T12:37:15.000Z</time>
      </trkpt>
      <trkpt lat="42.5748413242399692535400390625" lon="-0.03899353556334972381591796875">
        <ele>1072.5999755859375</ele>
        <time>2020-08-16T12:37:17.000Z</time>
      </trkpt>
      <trkpt lat="42.57464124821126461029052734375" lon="-0.0391066074371337890625">
        <ele>1072.4000244140625</ele>
        <time>2020-08-16T12:37:20.000Z</time>
      </trkpt>
      <trkpt lat="42.57451795041561126708984375" lon="-0.0390843115746974945068359375">
        <ele>1072.4000244140625</ele>
        <time>2020-08-16T12:37:22.000Z</time>
      </trkpt>
      <trkpt lat="42.5744207203388214111328125" lon="-0.0390635244548320770263671875">
        <ele>1072.800048828125</ele>
        <time>2020-08-16T12:37:24.000Z</time>
      </trkpt>
      <trkpt lat="42.57427965290844440460205078125" lon="-0.03911389969289302825927734375">
        <ele>1074.199951171875</ele>
        <time>2020-08-16T12:37:28.000Z</time>
      </trkpt>
      <trkpt lat="42.57420538924634456634521484375" lon="-0.03921381197869777679443359375">
        <ele>1074.5999755859375</ele>
        <time>2020-08-16T12:37:31.000Z</time>
      </trkpt>
      <trkpt lat="42.57416632957756519317626953125" lon="-0.03929100930690765380859375">
        <ele>1074.800048828125</ele>
        <time>2020-08-16T12:37:33.000Z</time>
      </trkpt>
      <trkpt lat="42.5740708597004413604736328125" lon="-0.03949628211557865142822265625">
        <ele>1075.199951171875</ele>
        <time>2020-08-16T12:37:39.000Z</time>
      </trkpt>
      <trkpt lat="42.57394471205770969390869140625" lon="-0.0397199951112270355224609375">
        <ele>1076.199951171875</ele>
        <time>2020-08-16T12:37:46.000Z</time>
      </trkpt>
      <trkpt lat="42.57390179671347141265869140625" lon="-0.03977456130087375640869140625">
        <ele>1076.4000244140625</ele>
        <time>2020-08-16T12:37:48.000Z</time>
      </trkpt>
      <trkpt lat="42.57374807260930538177490234375" lon="-0.0399124436080455780029296875">
        <ele>1076.4000244140625</ele>
        <time>2020-08-16T12:37:54.000Z</time>
      </trkpt>
      <trkpt lat="42.573523186147212982177734375" lon="-0.0400254316627979278564453125">
        <ele>1077.199951171875</ele>
        <time>2020-08-16T12:38:01.000Z</time>
      </trkpt>
      <trkpt lat="42.57330718450248241424560546875" lon="-0.04004596732556819915771484375">
        <ele>1076.800048828125</ele>
        <time>2020-08-16T12:38:07.000Z</time>
      </trkpt>
      <trkpt lat="42.5729859061539173126220703125" lon="-0.0399875454604625701904296875">
        <ele>1076.4000244140625</ele>
        <time>2020-08-16T12:38:15.000Z</time>
      </trkpt>
      <trkpt lat="42.5729374587535858154296875" lon="-0.03998846746981143951416015625">
        <ele>1076.199951171875</ele>
        <time>2020-08-16T12:38:16.000Z</time>
      </trkpt>
      <trkpt lat="42.57278147153556346893310546875" lon="-0.04002937115728855133056640625">
        <ele>1075.800048828125</ele>
        <time>2020-08-16T12:38:19.000Z</time>
      </trkpt>
      <trkpt lat="42.57272732444107532501220703125" lon="-0.04005820490419864654541015625">
        <ele>1075.5999755859375</ele>
        <time>2020-08-16T12:38:20.000Z</time>
      </trkpt>
      <trkpt lat="42.57262296974658966064453125" lon="-0.04014194011688232421875">
        <ele>1075.199951171875</ele>
        <time>2020-08-16T12:38:22.000Z</time>
      </trkpt>
      <trkpt lat="42.5724189542233943939208984375" lon="-0.04031703807413578033447265625">
        <ele>1074.4000244140625</ele>
        <time>2020-08-16T12:38:26.000Z</time>
      </trkpt>
      <trkpt lat="42.5722643919289112091064453125" lon="-0.04042851738631725311279296875">
        <ele>1074.199951171875</ele>
        <time>2020-08-16T12:38:29.000Z</time>
      </trkpt>
      <trkpt lat="42.57206398062407970428466796875" lon="-0.04055324010550975799560546875">
        <ele>1074</ele>
        <time>2020-08-16T12:38:33.000Z</time>
      </trkpt>
      <trkpt lat="42.57201586849987506866455078125" lon="-0.040571428835391998291015625">
        <ele>1074</ele>
        <time>2020-08-16T12:38:34.000Z</time>
      </trkpt>
      <trkpt lat="42.57179056294262409210205078125" lon="-0.04060084931552410125732421875">
        <ele>1074</ele>
        <time>2020-08-16T12:38:39.000Z</time>
      </trkpt>
      <trkpt lat="42.5717460550367832183837890625" lon="-0.0405950658023357391357421875">
        <ele>1074</ele>
        <time>2020-08-16T12:38:40.000Z</time>
      </trkpt>
      <trkpt lat="42.57154941558837890625" lon="-0.040568746626377105712890625">
        <ele>1074</ele>
        <time>2020-08-16T12:38:45.000Z</time>
      </trkpt>
      <trkpt lat="42.5714801810681819915771484375" lon="-0.040584504604339599609375">
        <ele>1074.199951171875</ele>
        <time>2020-08-16T12:38:47.000Z</time>
      </trkpt>
      <trkpt lat="42.571414969861507415771484375" lon="-0.0406393222510814666748046875">
        <ele>1074.199951171875</ele>
        <time>2020-08-16T12:38:49.000Z</time>
      </trkpt>
      <trkpt lat="42.57139275781810283660888671875" lon="-0.04068668000400066375732421875">
        <ele>1074.199951171875</ele>
        <time>2020-08-16T12:38:50.000Z</time>
      </trkpt>
      <trkpt lat="42.57136057130992412567138671875" lon="-0.04092941991984844207763671875">
        <ele>1073.800048828125</ele>
        <time>2020-08-16T12:38:54.000Z</time>
      </trkpt>
      <trkpt lat="42.5713174045085906982421875" lon="-0.0412106327712535858154296875">
        <ele>1073</ele>
        <time>2020-08-16T12:38:58.000Z</time>
      </trkpt>
      <trkpt lat="42.57126300595700740814208984375" lon="-0.0414359383285045623779296875">
        <ele>1072.4000244140625</ele>
        <time>2020-08-16T12:39:01.000Z</time>
      </trkpt>
      <trkpt lat="42.5712116248905658721923828125" lon="-0.04158429801464080810546875">
        <ele>1072</ele>
        <time>2020-08-16T12:39:03.000Z</time>
      </trkpt>
      <trkpt lat="42.57113509811460971832275390625" lon="-0.04171296022832393646240234375">
        <ele>1071.800048828125</ele>
        <time>2020-08-16T12:39:05.000Z</time>
      </trkpt>
      <trkpt lat="42.5710057653486728668212890625" lon="-0.04189065657556056976318359375">
        <ele>1070.800048828125</ele>
        <time>2020-08-16T12:39:08.000Z</time>
      </trkpt>
      <trkpt lat="42.5708924420177936553955078125" lon="-0.0420959293842315673828125">
        <ele>1070.800048828125</ele>
        <time>2020-08-16T12:39:11.000Z</time>
      </trkpt>
      <trkpt lat="42.57071147672832012176513671875" lon="-0.042435564100742340087890625">
        <ele>1070</ele>
        <time>2020-08-16T12:39:16.000Z</time>
      </trkpt>
      <trkpt lat="42.57065313868224620819091796875" lon="-0.04257177002727985382080078125">
        <ele>1069.800048828125</ele>
        <time>2020-08-16T12:39:18.000Z</time>
      </trkpt>
      <trkpt lat="42.5706077925860881805419921875" lon="-0.042853653430938720703125">
        <ele>1070</ele>
        <time>2020-08-16T12:39:22.000Z</time>
      </trkpt>
      <trkpt lat="42.57060754112899303436279296875" lon="-0.04292380996048450469970703125">
        <ele>1070</ele>
        <time>2020-08-16T12:39:23.000Z</time>
      </trkpt>
      <trkpt lat="42.5705709122121334075927734375" lon="-0.04336000420153141021728515625">
        <ele>1069</ele>
        <time>2020-08-16T12:39:29.000Z</time>
      </trkpt>
      <trkpt lat="42.5705316849052906036376953125" lon="-0.043511800467967987060546875">
        <ele>1068.5999755859375</ele>
        <time>2020-08-16T12:39:31.000Z</time>
      </trkpt>
      <trkpt lat="42.5705041922628879547119140625" lon="-0.043587572872638702392578125">
        <ele>1068.4000244140625</ele>
        <time>2020-08-16T12:39:32.000Z</time>
      </trkpt>
      <trkpt lat="42.57042498327791690826416015625" lon="-0.04373065195977687835693359375">
        <ele>1068.199951171875</ele>
        <time>2020-08-16T12:39:34.000Z</time>
      </trkpt>
      <trkpt lat="42.570311911404132843017578125" lon="-0.04385252483189105987548828125">
        <ele>1067.4000244140625</ele>
        <time>2020-08-16T12:39:36.000Z</time>
      </trkpt>
      <trkpt lat="42.5702473707497119903564453125" lon="-0.043910779058933258056640625">
        <ele>1066.800048828125</ele>
        <time>2020-08-16T12:39:37.000Z</time>
      </trkpt>
      <trkpt lat="42.5701796449720859527587890625" lon="-0.04397188313305377960205078125">
        <ele>1066.199951171875</ele>
        <time>2020-08-16T12:39:38.000Z</time>
      </trkpt>
      <trkpt lat="42.570031620562076568603515625" lon="-0.0440839491784572601318359375">
        <ele>1064.4000244140625</ele>
        <time>2020-08-16T12:39:40.000Z</time>
      </trkpt>
      <trkpt lat="42.5698691792786121368408203125" lon="-0.04414446651935577392578125">
        <ele>1063.5999755859375</ele>
        <time>2020-08-16T12:39:42.000Z</time>
      </trkpt>
      <trkpt lat="42.5697850249707698822021484375" lon="-0.044160895049571990966796875">
        <ele>1063.199951171875</ele>
        <time>2020-08-16T12:39:43.000Z</time>
      </trkpt>
      <trkpt lat="42.56962367333471775054931640625" lon="-0.0441979430615901947021484375">
        <ele>1062.4000244140625</ele>
        <time>2020-08-16T12:39:45.000Z</time>
      </trkpt>
      <trkpt lat="42.56955075077712535858154296875" lon="-0.044229961931705474853515625">
        <ele>1062</ele>
        <time>2020-08-16T12:39:46.000Z</time>
      </trkpt>
      <trkpt lat="42.56948621012270450592041015625" lon="-0.04427698440849781036376953125">
        <ele>1061.4000244140625</ele>
        <time>2020-08-16T12:39:47.000Z</time>
      </trkpt>
      <trkpt lat="42.56943172775208950042724609375" lon="-0.044340603053569793701171875">
        <ele>1060.5999755859375</ele>
        <time>2020-08-16T12:39:48.000Z</time>
      </trkpt>
      <trkpt lat="42.56934841163456439971923828125" lon="-0.044515617191791534423828125">
        <ele>1059.199951171875</ele>
        <time>2020-08-16T12:39:50.000Z</time>
      </trkpt>
      <trkpt lat="42.56930968724191188812255859375" lon="-0.04461745731532573699951171875">
        <ele>1058.800048828125</ele>
        <time>2020-08-16T12:39:51.000Z</time>
      </trkpt>
      <trkpt lat="42.56922997534275054931640625" lon="-0.044838823378086090087890625">
        <ele>1057.800048828125</ele>
        <time>2020-08-16T12:39:53.000Z</time>
      </trkpt>
      <trkpt lat="42.5691885687410831451416015625" lon="-0.04495256580412387847900390625">
        <ele>1056.800048828125</ele>
        <time>2020-08-16T12:39:54.000Z</time>
      </trkpt>
      <trkpt lat="42.5691463239490985870361328125" lon="-0.04506672732532024383544921875">
        <ele>1056</ele>
        <time>2020-08-16T12:39:55.000Z</time>
      </trkpt>
      <trkpt lat="42.5691018998622894287109375" lon="-0.04517938010394573211669921875">
        <ele>1055.4000244140625</ele>
        <time>2020-08-16T12:39:56.000Z</time>
      </trkpt>
      <trkpt lat="42.56905856542289257049560546875" lon="-0.0452916137874126434326171875">
        <ele>1054.4000244140625</ele>
        <time>2020-08-16T12:39:57.000Z</time>
      </trkpt>
      <trkpt lat="42.5689880736172199249267578125" lon="-0.04551666788756847381591796875">
        <ele>1052.199951171875</ele>
        <time>2020-08-16T12:39:59.000Z</time>
      </trkpt>
      <trkpt lat="42.56896519102156162261962890625" lon="-0.04563032649457454681396484375">
        <ele>1051.199951171875</ele>
        <time>2020-08-16T12:40:00.000Z</time>
      </trkpt>
      <trkpt lat="42.56894457153975963592529296875" lon="-0.04573979414999485015869140625">
        <ele>1050.800048828125</ele>
        <time>2020-08-16T12:40:01.000Z</time>
      </trkpt>
      <trkpt lat="42.5689195096492767333984375" lon="-0.0458397902548313140869140625">
        <ele>1050</ele>
        <time>2020-08-16T12:40:02.000Z</time>
      </trkpt>
      <trkpt lat="42.5688851438462734222412109375" lon="-0.0459236092865467071533203125">
        <ele>1049</ele>
        <time>2020-08-16T12:40:03.000Z</time>
      </trkpt>
      <trkpt lat="42.56883963011205196380615234375" lon="-0.0459873117506504058837890625">
        <ele>1048.199951171875</ele>
        <time>2020-08-16T12:40:04.000Z</time>
      </trkpt>
      <trkpt lat="42.56877995096147060394287109375" lon="-0.04603433422744274139404296875">
        <ele>1047.4000244140625</ele>
        <time>2020-08-16T12:40:05.000Z</time>
      </trkpt>
      <trkpt lat="42.568649612367153167724609375" lon="-0.0461153872311115264892578125">
        <ele>1046.199951171875</ele>
        <time>2020-08-16T12:40:07.000Z</time>
      </trkpt>
      <trkpt lat="42.5685305893421173095703125" lon="-0.046242959797382354736328125">
        <ele>1045.199951171875</ele>
        <time>2020-08-16T12:40:09.000Z</time>
      </trkpt>
      <trkpt lat="42.56842673756182193756103515625" lon="-0.04640364088118076324462890625">
        <ele>1044.4000244140625</ele>
        <time>2020-08-16T12:40:11.000Z</time>
      </trkpt>
      <trkpt lat="42.56837795488536357879638671875" lon="-0.046486370265483856201171875">
        <ele>1044</ele>
        <time>2020-08-16T12:40:12.000Z</time>
      </trkpt>
      <trkpt lat="42.56828759796917438507080078125" lon="-0.0466422736644744873046875">
        <ele>1043</ele>
        <time>2020-08-16T12:40:14.000Z</time>
      </trkpt>
      <trkpt lat="42.56825239397585391998291015625" lon="-0.04671846516430377960205078125">
        <ele>1042.199951171875</ele>
        <time>2020-08-16T12:40:15.000Z</time>
      </trkpt>
      <trkpt lat="42.56822624243795871734619140625" lon="-0.04679775796830654144287109375">
        <ele>1041.5999755859375</ele>
        <time>2020-08-16T12:40:16.000Z</time>
      </trkpt>
      <trkpt lat="42.56822071038186550140380859375" lon="-0.04707318730652332305908203125">
        <ele>1040.199951171875</ele>
        <time>2020-08-16T12:40:19.000Z</time>
      </trkpt>
      <trkpt lat="42.568233869969844818115234375" lon="-0.04717804491519927978515625">
        <ele>1039.199951171875</ele>
        <time>2020-08-16T12:40:20.000Z</time>
      </trkpt>
      <trkpt lat="42.568252980709075927734375" lon="-0.04728994332253932952880859375">
        <ele>1038.4000244140625</ele>
        <time>2020-08-16T12:40:21.000Z</time>
      </trkpt>
      <trkpt lat="42.56827871315181255340576171875" lon="-0.047531090676784515380859375">
        <ele>1037.199951171875</ele>
        <time>2020-08-16T12:40:23.000Z</time>
      </trkpt>
      <trkpt lat="42.5682772882282733917236328125" lon="-0.04792629741132259368896484375">
        <ele>1035.800048828125</ele>
        <time>2020-08-16T12:40:26.000Z</time>
      </trkpt>
      <trkpt lat="42.56826831959187984466552734375" lon="-0.0480599887669086456298828125">
        <ele>1034.199951171875</ele>
        <time>2020-08-16T12:40:27.000Z</time>
      </trkpt>
      <trkpt lat="42.56825507618486881256103515625" lon="-0.04819317720830440521240234375">
        <ele>1033.5999755859375</ele>
        <time>2020-08-16T12:40:28.000Z</time>
      </trkpt>
      <trkpt lat="42.56823898293077945709228515625" lon="-0.048325359821319580078125">
        <ele>1033</ele>
        <time>2020-08-16T12:40:29.000Z</time>
      </trkpt>
      <trkpt lat="42.56819791160523891448974609375" lon="-0.04857011139392852783203125">
        <ele>1032.5999755859375</ele>
        <time>2020-08-16T12:40:31.000Z</time>
      </trkpt>
      <trkpt lat="42.56816723383963108062744140625" lon="-0.0486742146313190460205078125">
        <ele>1032.199951171875</ele>
        <time>2020-08-16T12:40:32.000Z</time>
      </trkpt>
      <trkpt lat="42.5681254081428050994873046875" lon="-0.04876616410911083221435546875">
        <ele>1031.800048828125</ele>
        <time>2020-08-16T12:40:33.000Z</time>
      </trkpt>
      <trkpt lat="42.56801250390708446502685546875" lon="-0.04889558069407939910888671875">
        <ele>1031.199951171875</ele>
        <time>2020-08-16T12:40:35.000Z</time>
      </trkpt>
      <trkpt lat="42.5679450295865535736083984375" lon="-0.04894964396953582763671875">
        <ele>1030.800048828125</ele>
        <time>2020-08-16T12:40:36.000Z</time>
      </trkpt>
      <trkpt lat="42.56787906400859355926513671875" lon="-0.04900940693914890289306640625">
        <ele>1030.199951171875</ele>
        <time>2020-08-16T12:40:37.000Z</time>
      </trkpt>
      <trkpt lat="42.56782072596251964569091796875" lon="-0.04908283241093158721923828125">
        <ele>1030</ele>
        <time>2020-08-16T12:40:38.000Z</time>
      </trkpt>
      <trkpt lat="42.56777294911444187164306640625" lon="-0.049167238175868988037109375">
        <ele>1030</ele>
        <time>2020-08-16T12:40:39.000Z</time>
      </trkpt>
      <trkpt lat="42.5676925666630268096923828125" lon="-0.0494540669023990631103515625">
        <ele>1030</ele>
        <time>2020-08-16T12:40:42.000Z</time>
      </trkpt>
      <trkpt lat="42.5676830112934112548828125" lon="-0.049641989171504974365234375">
        <ele>1029.5999755859375</ele>
        <time>2020-08-16T12:40:44.000Z</time>
      </trkpt>
      <trkpt lat="42.5676711089909076690673828125" lon="-0.04981331527233123779296875">
        <ele>1029.4000244140625</ele>
        <time>2020-08-16T12:40:46.000Z</time>
      </trkpt>
      <trkpt lat="42.5676157884299755096435546875" lon="-0.050279013812541961669921875">
        <ele>1029.4000244140625</ele>
        <time>2020-08-16T12:40:52.000Z</time>
      </trkpt>
      <trkpt lat="42.5675041414797306060791015625" lon="-0.05060230381786823272705078125">
        <ele>1029</ele>
        <time>2020-08-16T12:40:57.000Z</time>
      </trkpt>
      <trkpt lat="42.5674759782850742340087890625" lon="-0.0506657548248767852783203125">
        <ele>1029</ele>
        <time>2020-08-16T12:40:58.000Z</time>
      </trkpt>
      <trkpt lat="42.5673126988112926483154296875" lon="-0.051103122532367706298828125">
        <ele>1028</ele>
        <time>2020-08-16T12:41:04.000Z</time>
      </trkpt>
      <trkpt lat="42.567273639142513275146484375" lon="-0.051168166100978851318359375">
        <ele>1027.800048828125</ele>
        <time>2020-08-16T12:41:05.000Z</time>
      </trkpt>
      <trkpt lat="42.56717749871313571929931640625" lon="-0.0512742809951305389404296875">
        <ele>1027.199951171875</ele>
        <time>2020-08-16T12:41:07.000Z</time>
      </trkpt>
      <trkpt lat="42.567122764885425567626953125" lon="-0.05133002065122127532958984375">
        <ele>1026.5999755859375</ele>
        <time>2020-08-16T12:41:08.000Z</time>
      </trkpt>
      <trkpt lat="42.5670055858790874481201171875" lon="-0.05145541392266750335693359375">
        <ele>1025.199951171875</ele>
        <time>2020-08-16T12:41:10.000Z</time>
      </trkpt>
      <trkpt lat="42.5668822042644023895263671875" lon="-0.05159673281013965606689453125">
        <ele>1024.199951171875</ele>
        <time>2020-08-16T12:41:12.000Z</time>
      </trkpt>
      <trkpt lat="42.5667514465749263763427734375" lon="-0.05173520185053348541259765625">
        <ele>1023</ele>
        <time>2020-08-16T12:41:14.000Z</time>
      </trkpt>
      <trkpt lat="42.5666116364300251007080078125" lon="-0.0518613494932651519775390625">
        <ele>1021.4000244140625</ele>
        <time>2020-08-16T12:41:16.000Z</time>
      </trkpt>
      <trkpt lat="42.56647945381700992584228515625" lon="-0.05198682658374309539794921875">
        <ele>1019.79998779296875</ele>
        <time>2020-08-16T12:41:18.000Z</time>
      </trkpt>
      <trkpt lat="42.56636210717260837554931640625" lon="-0.0521449930965900421142578125">
        <ele>1018.4000244140625</ele>
        <time>2020-08-16T12:41:20.000Z</time>
      </trkpt>
      <trkpt lat="42.566262446343898773193359375" lon="-0.052343644201755523681640625">
        <ele>1017</ele>
        <time>2020-08-16T12:41:22.000Z</time>
      </trkpt>
      <trkpt lat="42.5661670602858066558837890625" lon="-0.05256199277937412261962890625">
        <ele>1015.20001220703125</ele>
        <time>2020-08-16T12:41:24.000Z</time>
      </trkpt>
      <trkpt lat="42.56606320850551128387451171875" lon="-0.0527813471853733062744140625">
        <ele>1014</ele>
        <time>2020-08-16T12:41:26.000Z</time>
      </trkpt>
      <trkpt lat="42.56595726124942302703857421875" lon="-0.05300170741975307464599609375">
        <ele>1012.79998779296875</ele>
        <time>2020-08-16T12:41:28.000Z</time>
      </trkpt>
      <trkpt lat="42.56590713746845722198486328125" lon="-0.05310815759003162384033203125">
        <ele>1012.20001220703125</ele>
        <time>2020-08-16T12:41:29.000Z</time>
      </trkpt>
      <trkpt lat="42.56581124849617481231689453125" lon="-0.05330781452357769012451171875">
        <ele>1011.79998779296875</ele>
        <time>2020-08-16T12:41:31.000Z</time>
      </trkpt>
      <trkpt lat="42.56571619771420955657958984375" lon="-0.05347947590053081512451171875">
        <ele>1011.20001220703125</ele>
        <time>2020-08-16T12:41:33.000Z</time>
      </trkpt>
      <trkpt lat="42.56565769203007221221923828125" lon="-0.0535489618778228759765625">
        <ele>1010.79998779296875</ele>
        <time>2020-08-16T12:41:34.000Z</time>
      </trkpt>
      <trkpt lat="42.56552307866513729095458984375" lon="-0.05365080200135707855224609375">
        <ele>1009.79998779296875</ele>
        <time>2020-08-16T12:41:36.000Z</time>
      </trkpt>
      <trkpt lat="42.56539399735629558563232421875" lon="-0.053739063441753387451171875">
        <ele>1008.79998779296875</ele>
        <time>2020-08-16T12:41:38.000Z</time>
      </trkpt>
      <trkpt lat="42.5652856193482875823974609375" lon="-0.0539363734424114227294921875">
        <ele>1007.79998779296875</ele>
        <time>2020-08-16T12:41:41.000Z</time>
      </trkpt>
      <trkpt lat="42.56526273675262928009033203125" lon="-0.05400267429649829864501953125">
        <ele>1007.79998779296875</ele>
        <time>2020-08-16T12:41:42.000Z</time>
      </trkpt>
      <trkpt lat="42.5651779957115650177001953125" lon="-0.05422160960733890533447265625">
        <ele>1008.4000244140625</ele>
        <time>2020-08-16T12:41:46.000Z</time>
      </trkpt>
      <trkpt lat="42.56501010619103908538818359375" lon="-0.05460600368678569793701171875">
        <ele>1008.5999755859375</ele>
        <time>2020-08-16T12:41:54.000Z</time>
      </trkpt>
      <trkpt lat="42.564854957163333892822265625" lon="-0.05490859039127826690673828125">
        <ele>1008.4000244140625</ele>
        <time>2020-08-16T12:42:01.000Z</time>
      </trkpt>
      <trkpt lat="42.56478027440607547760009765625" lon="-0.05518854595720767974853515625">
        <ele>1008.4000244140625</ele>
        <time>2020-08-16T12:42:07.000Z</time>
      </trkpt>
      <trkpt lat="42.5648433901369571685791015625" lon="-0.0554320402443408966064453125">
        <ele>1008.20001220703125</ele>
        <time>2020-08-16T12:42:12.000Z</time>
      </trkpt>
      <trkpt lat="42.56500683724880218505859375" lon="-0.0555564276874065399169921875">
        <ele>1009</ele>
        <time>2020-08-16T12:42:17.000Z</time>
      </trkpt>
      <trkpt lat="42.56513960659503936767578125" lon="-0.05570822395384311676025390625">
        <ele>1009.5999755859375</ele>
        <time>2020-08-16T12:42:22.000Z</time>
      </trkpt>
      <trkpt lat="42.56514622829854488372802734375" lon="-0.05574996583163738250732421875">
        <ele>1009.5999755859375</ele>
        <time>2020-08-16T12:42:23.000Z</time>
      </trkpt>
      <trkpt lat="42.5651317276060581207275390625" lon="-0.0558323599398136138916015625">
        <ele>1009.4000244140625</ele>
        <time>2020-08-16T12:42:25.000Z</time>
      </trkpt>
      <trkpt lat="42.5650656782090663909912109375" lon="-0.055928416550159454345703125">
        <ele>1009.20001220703125</ele>
        <time>2020-08-16T12:42:28.000Z</time>
      </trkpt>
      <trkpt lat="42.565008513629436492919921875" lon="-0.05599136464297771453857421875">
        <ele>1009.20001220703125</ele>
        <time>2020-08-16T12:42:30.000Z</time>
      </trkpt>
      <trkpt lat="42.5648909993469715118408203125" lon="-0.0561039336025714874267578125">
        <ele>1009</ele>
        <time>2020-08-16T12:42:34.000Z</time>
      </trkpt>
      <trkpt lat="42.56487130187451839447021484375" lon="-0.0561575777828693389892578125">
        <ele>1009</ele>
        <time>2020-08-16T12:42:35.000Z</time>
      </trkpt>
      <trkpt lat="42.56485956721007823944091796875" lon="-0.05640526302158832550048828125">
        <ele>1008.4000244140625</ele>
        <time>2020-08-16T12:42:39.000Z</time>
      </trkpt>
      <trkpt lat="42.5648638419806957244873046875" lon="-0.0564677082002162933349609375">
        <ele>1008.20001220703125</ele>
        <time>2020-08-16T12:42:40.000Z</time>
      </trkpt>
      <trkpt lat="42.56488882005214691162109375" lon="-0.05665135569870471954345703125">
        <ele>1007.79998779296875</ele>
        <time>2020-08-16T12:42:43.000Z</time>
      </trkpt>
      <trkpt lat="42.564943470060825347900390625" lon="-0.0568914972245693206787109375">
        <ele>1007.4000244140625</ele>
        <time>2020-08-16T12:42:47.000Z</time>
      </trkpt>
      <trkpt lat="42.5650452263653278350830078125" lon="-0.05730497650802135467529296875">
        <ele>1007</ele>
        <time>2020-08-16T12:42:54.000Z</time>
      </trkpt>
      <trkpt lat="42.5650854595005512237548828125" lon="-0.05747261457145214080810546875">
        <ele>1006.79998779296875</ele>
        <time>2020-08-16T12:42:57.000Z</time>
      </trkpt>
      <trkpt lat="42.56520808674395084381103515625" lon="-0.0578688271343708038330078125">
        <ele>1006</ele>
        <time>2020-08-16T12:43:04.000Z</time>
      </trkpt>
      <trkpt lat="42.56522476673126220703125" lon="-0.0579268299043178558349609375">
        <ele>1006</ele>
        <time>2020-08-16T12:43:05.000Z</time>
      </trkpt>
      <trkpt lat="42.56534747779369354248046875" lon="-0.05848565138876438140869140625">
        <ele>1005</ele>
        <time>2020-08-16T12:43:14.000Z</time>
      </trkpt>
      <trkpt lat="42.56539852358400821685791015625" lon="-0.05883417092263698577880859375">
        <ele>1003.79998779296875</ele>
        <time>2020-08-16T12:43:19.000Z</time>
      </trkpt>
      <trkpt lat="42.56545937620103359222412109375" lon="-0.05921621806919574737548828125">
        <ele>1003.20001220703125</ele>
        <time>2020-08-16T12:43:24.000Z</time>
      </trkpt>
      <trkpt lat="42.56550363264977931976318359375" lon="-0.0594605505466461181640625">
        <ele>1002.4000244140625</ele>
        <time>2020-08-16T12:43:27.000Z</time>
      </trkpt>
      <trkpt lat="42.56553648971021175384521484375" lon="-0.05972734652459621429443359375">
        <ele>1002</ele>
        <time>2020-08-16T12:43:30.000Z</time>
      </trkpt>
      <trkpt lat="42.56554705090820789337158203125" lon="-0.0599294342100620269775390625">
        <ele>1001.20001220703125</ele>
        <time>2020-08-16T12:43:32.000Z</time>
      </trkpt>
      <trkpt lat="42.56554738618433475494384765625" lon="-0.060146190226078033447265625">
        <ele>999.79998779296875</ele>
        <time>2020-08-16T12:43:34.000Z</time>
      </trkpt>
      <trkpt lat="42.56554788909852504730224609375" lon="-0.06025959737598896026611328125">
        <ele>999.20001220703125</ele>
        <time>2020-08-16T12:43:35.000Z</time>
      </trkpt>
      <trkpt lat="42.56555040366947650909423828125" lon="-0.06037057377398014068603515625">
        <ele>998.79998779296875</ele>
        <time>2020-08-16T12:43:36.000Z</time>
      </trkpt>
      <trkpt lat="42.565555013716220855712890625" lon="-0.06058464758098125457763671875">
        <ele>997.5999755859375</ele>
        <time>2020-08-16T12:43:38.000Z</time>
      </trkpt>
      <trkpt lat="42.565568424761295318603515625" lon="-0.0607855618000030517578125">
        <ele>996.4000244140625</ele>
        <time>2020-08-16T12:43:40.000Z</time>
      </trkpt>
      <trkpt lat="42.56558351218700408935546875" lon="-0.06088455207645893096923828125">
        <ele>995.79998779296875</ele>
        <time>2020-08-16T12:43:41.000Z</time>
      </trkpt>
      <trkpt lat="42.56560253910720348358154296875" lon="-0.06098664365708827972412109375">
        <ele>995.4000244140625</ele>
        <time>2020-08-16T12:43:42.000Z</time>
      </trkpt>
      <trkpt lat="42.56566800177097320556640625" lon="-0.06128420121967792510986328125">
        <ele>993.5999755859375</ele>
        <time>2020-08-16T12:43:45.000Z</time>
      </trkpt>
      <trkpt lat="42.56567596457898616790771484375" lon="-0.06138813681900501251220703125">
        <ele>993</ele>
        <time>2020-08-16T12:43:46.000Z</time>
      </trkpt>
      <trkpt lat="42.56567261181771755218505859375" lon="-0.06149299442768096923828125">
        <ele>992.4000244140625</ele>
        <time>2020-08-16T12:43:47.000Z</time>
      </trkpt>
      <trkpt lat="42.565660290420055389404296875" lon="-0.06170581094920635223388671875">
        <ele>990.79998779296875</ele>
        <time>2020-08-16T12:43:49.000Z</time>
      </trkpt>
      <trkpt lat="42.56564981304109096527099609375" lon="-0.0619249977171421051025390625">
        <ele>990</ele>
        <time>2020-08-16T12:43:51.000Z</time>
      </trkpt>
      <trkpt lat="42.56564277224242687225341796875" lon="-0.062035135924816131591796875">
        <ele>989.5999755859375</ele>
        <time>2020-08-16T12:43:52.000Z</time>
      </trkpt>
      <trkpt lat="42.56561410613358020782470703125" lon="-0.0623627007007598876953125">
        <ele>988.5999755859375</ele>
        <time>2020-08-16T12:43:55.000Z</time>
      </trkpt>
      <trkpt lat="42.565593905746936798095703125" lon="-0.0626689754426479339599609375">
        <ele>987.5999755859375</ele>
        <time>2020-08-16T12:43:58.000Z</time>
      </trkpt>
      <trkpt lat="42.56563791073858737945556640625" lon="-0.06325311027467250823974609375">
        <ele>986.5999755859375</ele>
        <time>2020-08-16T12:44:04.000Z</time>
      </trkpt>
      <trkpt lat="42.5656550936400890350341796875" lon="-0.06335017271339893341064453125">
        <ele>986</ele>
        <time>2020-08-16T12:44:05.000Z</time>
      </trkpt>
      <trkpt lat="42.56571049802005290985107421875" lon="-0.06364345550537109375">
        <ele>985.20001220703125</ele>
        <time>2020-08-16T12:44:08.000Z</time>
      </trkpt>
      <trkpt lat="42.56575223989784717559814453125" lon="-0.0639467127621173858642578125">
        <ele>984</ele>
        <time>2020-08-16T12:44:11.000Z</time>
      </trkpt>
      <trkpt lat="42.5657741166651248931884765625" lon="-0.064156092703342437744140625">
        <ele>983.4000244140625</ele>
        <time>2020-08-16T12:44:13.000Z</time>
      </trkpt>
      <trkpt lat="42.56577889434993267059326171875" lon="-0.064263381063938140869140625">
        <ele>983</ele>
        <time>2020-08-16T12:44:14.000Z</time>
      </trkpt>
      <trkpt lat="42.565772943198680877685546875" lon="-0.06437041796743869781494140625">
        <ele>982.79998779296875</ele>
        <time>2020-08-16T12:44:15.000Z</time>
      </trkpt>
      <trkpt lat="42.5657545030117034912109375" lon="-0.0644757784903049468994140625">
        <ele>982.5999755859375</ele>
        <time>2020-08-16T12:44:16.000Z</time>
      </trkpt>
      <trkpt lat="42.56570563651621341705322265625" lon="-0.0646766088902950286865234375">
        <ele>982.4000244140625</ele>
        <time>2020-08-16T12:44:18.000Z</time>
      </trkpt>
      <trkpt lat="42.56568904034793376922607421875" lon="-0.0648791156709194183349609375">
        <ele>981.79998779296875</ele>
        <time>2020-08-16T12:44:20.000Z</time>
      </trkpt>
      <trkpt lat="42.56568987853825092315673828125" lon="-0.0649786926805973052978515625">
        <ele>981.5999755859375</ele>
        <time>2020-08-16T12:44:21.000Z</time>
      </trkpt>
      <trkpt lat="42.565715946257114410400390625" lon="-0.0655325688421726226806640625">
        <ele>981.20001220703125</ele>
        <time>2020-08-16T12:44:27.000Z</time>
      </trkpt>
      <trkpt lat="42.56574486382305622100830078125" lon="-0.0658790767192840576171875">
        <ele>980.79998779296875</ele>
        <time>2020-08-16T12:44:31.000Z</time>
      </trkpt>
      <trkpt lat="42.56578660570085048675537109375" lon="-0.06612642668187618255615234375">
        <ele>980.5999755859375</ele>
        <time>2020-08-16T12:44:34.000Z</time>
      </trkpt>
      <trkpt lat="42.56591082550585269927978515625" lon="-0.066679380834102630615234375">
        <ele>979.5999755859375</ele>
        <time>2020-08-16T12:44:41.000Z</time>
      </trkpt>
      <trkpt lat="42.56592608056962490081787109375" lon="-0.0667590089142322540283203125">
        <ele>979.4000244140625</ele>
        <time>2020-08-16T12:44:42.000Z</time>
      </trkpt>
      <trkpt lat="42.5660420022904872894287109375" lon="-0.06725463084876537322998046875">
        <ele>978.5999755859375</ele>
        <time>2020-08-16T12:44:48.000Z</time>
      </trkpt>
      <trkpt lat="42.56606354378163814544677734375" lon="-0.0673435628414154052734375">
        <ele>978.20001220703125</ele>
        <time>2020-08-16T12:44:49.000Z</time>
      </trkpt>
      <trkpt lat="42.566118948161602020263671875" lon="-0.06761739961802959442138671875">
        <ele>977.4000244140625</ele>
        <time>2020-08-16T12:44:52.000Z</time>
      </trkpt>
      <trkpt lat="42.5661841593682765960693359375" lon="-0.0679100118577480316162109375">
        <ele>976</ele>
        <time>2020-08-16T12:44:55.000Z</time>
      </trkpt>
      <trkpt lat="42.56621140055358409881591796875" lon="-0.06801101379096508026123046875">
        <ele>975.5999755859375</ele>
        <time>2020-08-16T12:44:56.000Z</time>
      </trkpt>
      <trkpt lat="42.56624090485274791717529296875" lon="-0.06811092607676982879638671875">
        <ele>975</ele>
        <time>2020-08-16T12:44:57.000Z</time>
      </trkpt>
      <trkpt lat="42.56630158983170986175537109375" lon="-0.06831376813352108001708984375">
        <ele>973.5999755859375</ele>
        <time>2020-08-16T12:44:59.000Z</time>
      </trkpt>
      <trkpt lat="42.566378451883792877197265625" lon="-0.06861518137156963348388671875">
        <ele>973.5999755859375</ele>
        <time>2020-08-16T12:45:02.000Z</time>
      </trkpt>
      <trkpt lat="42.56647475995123386383056640625" lon="-0.06886236369609832763671875">
        <ele>974.4000244140625</ele>
        <time>2020-08-16T12:45:06.000Z</time>
      </trkpt>
      <trkpt lat="42.56651264615356922149658203125" lon="-0.0689346157014369964599609375">
        <ele>974.79998779296875</ele>
        <time>2020-08-16T12:45:08.000Z</time>
      </trkpt>
      <trkpt lat="42.5665529631078243255615234375" lon="-0.06904014386236667633056640625">
        <ele>976.20001220703125</ele>
        <time>2020-08-16T12:45:11.000Z</time>
      </trkpt>
      <trkpt lat="42.5666290707886219024658203125" lon="-0.0692346878349781036376953125">
        <ele>977.20001220703125</ele>
        <time>2020-08-16T12:45:17.000Z</time>
      </trkpt>
      <trkpt lat="42.56664893589913845062255859375" lon="-0.06929688155651092529296875">
        <ele>977.4000244140625</ele>
        <time>2020-08-16T12:45:19.000Z</time>
      </trkpt>
      <trkpt lat="42.56667542271316051483154296875" lon="-0.06942118518054485321044921875">
        <ele>978.4000244140625</ele>
        <time>2020-08-16T12:45:23.000Z</time>
      </trkpt>
      <trkpt lat="42.56670811213552951812744140625" lon="-0.06953836418688297271728515625">
        <ele>979.4000244140625</ele>
        <time>2020-08-16T12:45:27.000Z</time>
      </trkpt>
      <trkpt lat="42.56671599112451076507568359375" lon="-0.06956778466701507568359375">
        <ele>979.5999755859375</ele>
        <time>2020-08-16T12:45:28.000Z</time>
      </trkpt>
      <trkpt lat="42.56674080155789852142333984375" lon="-0.0696846283972263336181640625">
        <ele>980.5999755859375</ele>
        <time>2020-08-16T12:45:32.000Z</time>
      </trkpt>
      <trkpt lat="42.5667588226497173309326171875" lon="-0.0698016397655010223388671875">
        <ele>981.20001220703125</ele>
        <time>2020-08-16T12:45:36.000Z</time>
      </trkpt>
      <trkpt lat="42.5667762570083141326904296875" lon="-0.06988696753978729248046875">
        <ele>981.79998779296875</ele>
        <time>2020-08-16T12:45:39.000Z</time>
      </trkpt>
      <trkpt lat="42.56679989397525787353515625" lon="-0.0699977762997150421142578125">
        <ele>982.79998779296875</ele>
        <time>2020-08-16T12:45:43.000Z</time>
      </trkpt>
      <trkpt lat="42.56681263446807861328125" lon="-0.0700510852038860321044921875">
        <ele>983.4000244140625</ele>
        <time>2020-08-16T12:45:45.000Z</time>
      </trkpt>
      <trkpt lat="42.5668369419872760772705078125" lon="-0.0701848603785037994384765625">
        <ele>984</ele>
        <time>2020-08-16T12:45:50.000Z</time>
      </trkpt>
      <trkpt lat="42.56684373132884502410888671875" lon="-0.0702403485774993896484375">
        <ele>984.4000244140625</ele>
        <time>2020-08-16T12:45:52.000Z</time>
      </trkpt>
      <trkpt lat="42.56685261614620685577392578125" lon="-0.07035023532807826995849609375">
        <ele>985</ele>
        <time>2020-08-16T12:45:56.000Z</time>
      </trkpt>
      <trkpt lat="42.5668550468981266021728515625" lon="-0.07043279707431793212890625">
        <ele>985.79998779296875</ele>
        <time>2020-08-16T12:45:59.000Z</time>
      </trkpt>
      <trkpt lat="42.566861249506473541259765625" lon="-0.07054117508232593536376953125">
        <ele>986.20001220703125</ele>
        <time>2020-08-16T12:46:03.000Z</time>
      </trkpt>
      <trkpt lat="42.5668640993535518646240234375" lon="-0.07069573737680912017822265625">
        <ele>987.20001220703125</ele>
        <time>2020-08-16T12:46:09.000Z</time>
      </trkpt>
      <trkpt lat="42.566849850118160247802734375" lon="-0.07089656777679920196533203125">
        <ele>988.4000244140625</ele>
        <time>2020-08-16T12:46:17.000Z</time>
      </trkpt>
      <trkpt lat="42.566846497356891632080078125" lon="-0.07092221640050411224365234375">
        <ele>988.5999755859375</ele>
        <time>2020-08-16T12:46:18.000Z</time>
      </trkpt>
      <trkpt lat="42.56683903746306896209716796875" lon="-0.07102296687662601470947265625">
        <ele>989.4000244140625</ele>
        <time>2020-08-16T12:46:22.000Z</time>
      </trkpt>
      <trkpt lat="42.5668215192854404449462890625" lon="-0.07111810147762298583984375">
        <ele>990.20001220703125</ele>
        <time>2020-08-16T12:46:26.000Z</time>
      </trkpt>
      <trkpt lat="42.56681154482066631317138671875" lon="-0.071165375411510467529296875">
        <ele>990.5999755859375</ele>
        <time>2020-08-16T12:46:28.000Z</time>
      </trkpt>
      <trkpt lat="42.56678522564470767974853515625" lon="-0.07127090357244014739990234375">
        <ele>991.4000244140625</ele>
        <time>2020-08-16T12:46:33.000Z</time>
      </trkpt>
      <trkpt lat="42.5667752511799335479736328125" lon="-0.0713703967630863189697265625">
        <ele>991.79998779296875</ele>
        <time>2020-08-16T12:46:37.000Z</time>
      </trkpt>
      <trkpt lat="42.56677818484604358673095703125" lon="-0.07144994102418422698974609375">
        <ele>992.20001220703125</ele>
        <time>2020-08-16T12:46:40.000Z</time>
      </trkpt>
      <trkpt lat="42.56677064113318920135498046875" lon="-0.071581117808818817138671875">
        <ele>992.79998779296875</ele>
        <time>2020-08-16T12:46:45.000Z</time>
      </trkpt>
      <trkpt lat="42.56677214987576007843017578125" lon="-0.0716345943510532379150390625">
        <ele>993.4000244140625</ele>
        <time>2020-08-16T12:46:47.000Z</time>
      </trkpt>
      <trkpt lat="42.5667957030236721038818359375" lon="-0.071772225201129913330078125">
        <ele>994</ele>
        <time>2020-08-16T12:46:52.000Z</time>
      </trkpt>
      <trkpt lat="42.5668050907552242279052734375" lon="-0.071829222142696380615234375">
        <ele>994.4000244140625</ele>
        <time>2020-08-16T12:46:54.000Z</time>
      </trkpt>
      <trkpt lat="42.566839121282100677490234375" lon="-0.07199778221547603607177734375">
        <ele>995</ele>
        <time>2020-08-16T12:47:00.000Z</time>
      </trkpt>
      <trkpt lat="42.56686368025839328765869140625" lon="-0.07207388989627361297607421875">
        <ele>995.5999755859375</ele>
        <time>2020-08-16T12:47:03.000Z</time>
      </trkpt>
      <trkpt lat="42.5669033266603946685791015625" lon="-0.0721991993486881256103515625">
        <ele>996.20001220703125</ele>
        <time>2020-08-16T12:47:08.000Z</time>
      </trkpt>
      <trkpt lat="42.56694381125271320343017578125" lon="-0.07229617796838283538818359375">
        <ele>997</ele>
        <time>2020-08-16T12:47:12.000Z</time>
      </trkpt>
      <trkpt lat="42.56698471494019031524658203125" lon="-0.07242425344884395599365234375">
        <ele>997.5999755859375</ele>
        <time>2020-08-16T12:47:17.000Z</time>
      </trkpt>
      <trkpt lat="42.5670166499912738800048828125" lon="-0.0725281052291393280029296875">
        <ele>998</ele>
        <time>2020-08-16T12:47:21.000Z</time>
      </trkpt>
      <trkpt lat="42.56705143488943576812744140625" lon="-0.07265727035701274871826171875">
        <ele>998.79998779296875</ele>
        <time>2020-08-16T12:47:26.000Z</time>
      </trkpt>
      <trkpt lat="42.56708513014018535614013671875" lon="-0.07275919429957866668701171875">
        <ele>999.4000244140625</ele>
        <time>2020-08-16T12:47:30.000Z</time>
      </trkpt>
      <trkpt lat="42.5671143829822540283203125" lon="-0.07282842881977558135986328125">
        <ele>999.79998779296875</ele>
        <time>2020-08-16T12:47:33.000Z</time>
      </trkpt>
      <trkpt lat="42.56712335161864757537841796875" lon="-0.072884671390056610107421875">
        <ele>1000</ele>
        <time>2020-08-16T12:47:36.000Z</time>
      </trkpt>
      <trkpt lat="42.56712955422699451446533203125" lon="-0.07291140966117382049560546875">
        <ele>1000</ele>
        <time>2020-08-16T12:47:38.000Z</time>
      </trkpt>
      <trkpt lat="42.56715101189911365509033203125" lon="-0.07295541465282440185546875">
        <ele>1000.4000244140625</ele>
        <time>2020-08-16T12:47:42.000Z</time>
      </trkpt>
      <trkpt lat="42.5671571306884288787841796875" lon="-0.072971172630786895751953125">
        <ele>1000.5999755859375</ele>
        <time>2020-08-16T12:47:43.000Z</time>
      </trkpt>
      <trkpt lat="42.5671733915805816650390625" lon="-0.0730072148144245147705078125">
        <ele>1000.79998779296875</ele>
        <time>2020-08-16T12:47:45.000Z</time>
      </trkpt>
      <trkpt lat="42.567196190357208251953125" lon="-0.0730682350695133209228515625">
        <ele>1000.79998779296875</ele>
        <time>2020-08-16T12:47:48.000Z</time>
      </trkpt>
      <trkpt lat="42.5672111101448535919189453125" lon="-0.0731362961232662200927734375">
        <ele>1001</ele>
        <time>2020-08-16T12:47:54.000Z</time>
      </trkpt>
      <trkpt lat="42.56721136160194873809814453125" lon="-0.0731369666755199432373046875">
        <ele>1000.20001220703125</ele>
        <time>2020-08-16T12:48:13.000Z</time>
      </trkpt>
      <trkpt lat="42.56721035577356815338134765625" lon="-0.0731384754180908203125">
        <ele>1000.79998779296875</ele>
        <time>2020-08-16T12:48:39.000Z</time>
      </trkpt>
      <trkpt lat="42.56720918230712413787841796875" lon="-0.0731647945940494537353515625">
        <ele>1001.20001220703125</ele>
        <time>2020-08-16T12:49:00.000Z</time>
      </trkpt>
      <trkpt lat="42.56721965968608856201171875" lon="-0.07328205741941928863525390625">
        <ele>1001.20001220703125</ele>
        <time>2020-08-16T12:49:05.000Z</time>
      </trkpt>
      <trkpt lat="42.56724648177623748779296875" lon="-0.07350618951022624969482421875">
        <ele>1000.20001220703125</ele>
        <time>2020-08-16T12:49:09.000Z</time>
      </trkpt>
      <trkpt lat="42.56727523170411586761474609375" lon="-0.07374071516096591949462890625">
        <ele>999</ele>
        <time>2020-08-16T12:49:12.000Z</time>
      </trkpt>
      <trkpt lat="42.5672986172139644622802734375" lon="-0.0739252008497714996337890625">
        <ele>998.4000244140625</ele>
        <time>2020-08-16T12:49:14.000Z</time>
      </trkpt>
      <trkpt lat="42.5673240981996059417724609375" lon="-0.07413047365844249725341796875">
        <ele>997.20001220703125</ele>
        <time>2020-08-16T12:49:16.000Z</time>
      </trkpt>
      <trkpt lat="42.56735553033649921417236328125" lon="-0.0743521749973297119140625">
        <ele>996</ele>
        <time>2020-08-16T12:49:18.000Z</time>
      </trkpt>
      <trkpt lat="42.56737564690411090850830078125" lon="-0.07446792908012866973876953125">
        <ele>995.4000244140625</ele>
        <time>2020-08-16T12:49:19.000Z</time>
      </trkpt>
      <trkpt lat="42.5673995353281497955322265625" lon="-0.07458510808646678924560546875">
        <ele>994.5999755859375</ele>
        <time>2020-08-16T12:49:20.000Z</time>
      </trkpt>
      <trkpt lat="42.5674525089561939239501953125" lon="-0.07482382468879222869873046875">
        <ele>993.5999755859375</ele>
        <time>2020-08-16T12:49:22.000Z</time>
      </trkpt>
      <trkpt lat="42.56748519837856292724609375" lon="-0.07507167756557464599609375">
        <ele>992</ele>
        <time>2020-08-16T12:49:24.000Z</time>
      </trkpt>
      <trkpt lat="42.567498274147510528564453125" lon="-0.07532154209911823272705078125">
        <ele>990.4000244140625</ele>
        <time>2020-08-16T12:49:26.000Z</time>
      </trkpt>
      <trkpt lat="42.56750791333615779876708984375" lon="-0.07544458843767642974853515625">
        <ele>989.20001220703125</ele>
        <time>2020-08-16T12:49:27.000Z</time>
      </trkpt>
      <trkpt lat="42.56752006709575653076171875" lon="-0.07556654512882232666015625">
        <ele>988.20001220703125</ele>
        <time>2020-08-16T12:49:28.000Z</time>
      </trkpt>
      <trkpt lat="42.5675323046743869781494140625" lon="-0.07569034583866596221923828125">
        <ele>987.4000244140625</ele>
        <time>2020-08-16T12:49:29.000Z</time>
      </trkpt>
      <trkpt lat="42.56754362024366855621337890625" lon="-0.07581464946269989013671875">
        <ele>986.4000244140625</ele>
        <time>2020-08-16T12:49:30.000Z</time>
      </trkpt>
      <trkpt lat="42.5675547681748867034912109375" lon="-0.0759331695735454559326171875">
        <ele>985.5999755859375</ele>
        <time>2020-08-16T12:49:31.000Z</time>
      </trkpt>
      <trkpt lat="42.5675879605114459991455078125" lon="-0.07613861002027988433837890625">
        <ele>983.79998779296875</ele>
        <time>2020-08-16T12:49:33.000Z</time>
      </trkpt>
      <trkpt lat="42.5676211528480052947998046875" lon="-0.0762221775949001312255859375">
        <ele>983.20001220703125</ele>
        <time>2020-08-16T12:49:34.000Z</time>
      </trkpt>
      <trkpt lat="42.56766700185835361480712890625" lon="-0.0762912444770336151123046875">
        <ele>982.5999755859375</ele>
        <time>2020-08-16T12:49:35.000Z</time>
      </trkpt>
      <trkpt lat="42.567791976034641265869140625" lon="-0.076384954154491424560546875">
        <ele>980.79998779296875</ele>
        <time>2020-08-16T12:49:37.000Z</time>
      </trkpt>
      <trkpt lat="42.56794427521526813507080078125" lon="-0.07642627693712711334228515625">
        <ele>979</ele>
        <time>2020-08-16T12:49:39.000Z</time>
      </trkpt>
      <trkpt lat="42.5680258311331272125244140625" lon="-0.0764282047748565673828125">
        <ele>978.4000244140625</ele>
        <time>2020-08-16T12:49:40.000Z</time>
      </trkpt>
      <trkpt lat="42.568110488355159759521484375" lon="-0.07642443291842937469482421875">
        <ele>977.79998779296875</ele>
        <time>2020-08-16T12:49:41.000Z</time>
      </trkpt>
      <trkpt lat="42.56837527267634868621826171875" lon="-0.07640833966434001922607421875">
        <ele>976.4000244140625</ele>
        <time>2020-08-16T12:49:44.000Z</time>
      </trkpt>
      <trkpt lat="42.56854869425296783447265625" lon="-0.0763901509344577789306640625">
        <ele>975</ele>
        <time>2020-08-16T12:49:46.000Z</time>
      </trkpt>
      <trkpt lat="42.5687290728092193603515625" lon="-0.0763710401952266693115234375">
        <ele>973.79998779296875</ele>
        <time>2020-08-16T12:49:48.000Z</time>
      </trkpt>
      <trkpt lat="42.56891842000186443328857421875" lon="-0.07635637186467647552490234375">
        <ele>972.20001220703125</ele>
        <time>2020-08-16T12:49:50.000Z</time>
      </trkpt>
      <trkpt lat="42.56910114549100399017333984375" lon="-0.0763462297618389129638671875">
        <ele>970.79998779296875</ele>
        <time>2020-08-16T12:49:52.000Z</time>
      </trkpt>
      <trkpt lat="42.56926761008799076080322265625" lon="-0.076333992183208465576171875">
        <ele>969.5999755859375</ele>
        <time>2020-08-16T12:49:54.000Z</time>
      </trkpt>
      <trkpt lat="42.56934355013072490692138671875" lon="-0.0763435475528240203857421875">
        <ele>969</ele>
        <time>2020-08-16T12:49:55.000Z</time>
      </trkpt>
      <trkpt lat="42.5694128684699535369873046875" lon="-0.0763757340610027313232421875">
        <ele>968.4000244140625</ele>
        <time>2020-08-16T12:49:56.000Z</time>
      </trkpt>
      <trkpt lat="42.56950750015676021575927734375" lon="-0.0765017978847026824951171875">
        <ele>967</ele>
        <time>2020-08-16T12:49:58.000Z</time>
      </trkpt>
      <trkpt lat="42.569513954222202301025390625" lon="-0.07666901685297489166259765625">
        <ele>966.79998779296875</ele>
        <time>2020-08-16T12:50:00.000Z</time>
      </trkpt>
      <trkpt lat="42.5694983638823032379150390625" lon="-0.0767472200095653533935546875">
        <ele>966.5999755859375</ele>
        <time>2020-08-16T12:50:01.000Z</time>
      </trkpt>
      <trkpt lat="42.56946575827896595001220703125" lon="-0.0769249163568019866943359375">
        <ele>967.20001220703125</ele>
        <time>2020-08-16T12:50:04.000Z</time>
      </trkpt>
      <trkpt lat="42.56941613741219043731689453125" lon="-0.0770680792629718780517578125">
        <ele>968.20001220703125</ele>
        <time>2020-08-16T12:50:08.000Z</time>
      </trkpt>
      <trkpt lat="42.56939551793038845062255859375" lon="-0.0771009363234043121337890625">
        <ele>968.4000244140625</ele>
        <time>2020-08-16T12:50:09.000Z</time>
      </trkpt>
      <trkpt lat="42.56925755180418491363525390625" lon="-0.07725365459918975830078125">
        <ele>969.4000244140625</ele>
        <time>2020-08-16T12:50:15.000Z</time>
      </trkpt>
      <trkpt lat="42.56903626956045627593994140625" lon="-0.07735230959951877593994140625">
        <ele>970.4000244140625</ele>
        <time>2020-08-16T12:50:24.000Z</time>
      </trkpt>
      <trkpt lat="42.568984888494014739990234375" lon="-0.0773748569190502166748046875">
        <ele>970.5999755859375</ele>
        <time>2020-08-16T12:50:26.000Z</time>
      </trkpt>
      <trkpt lat="42.56877425126731395721435546875" lon="-0.077459514141082763671875">
        <ele>970.4000244140625</ele>
        <time>2020-08-16T12:50:34.000Z</time>
      </trkpt>
      <trkpt lat="42.56853536702692508697509765625" lon="-0.07755816914141178131103515625">
        <ele>969.79998779296875</ele>
        <time>2020-08-16T12:50:41.000Z</time>
      </trkpt>
      <trkpt lat="42.5684935413300991058349609375" lon="-0.07758029736578464508056640625">
        <ele>969.5999755859375</ele>
        <time>2020-08-16T12:50:42.000Z</time>
      </trkpt>
      <trkpt lat="42.5682326965034008026123046875" lon="-0.07768205367028713226318359375">
        <ele>969.20001220703125</ele>
        <time>2020-08-16T12:50:47.000Z</time>
      </trkpt>
      <trkpt lat="42.56804318167269229888916015625" lon="-0.077755562961101531982421875">
        <ele>968.4000244140625</ele>
        <time>2020-08-16T12:50:50.000Z</time>
      </trkpt>
      <trkpt lat="42.5678447820246219635009765625" lon="-0.077840387821197509765625">
        <ele>967.4000244140625</ele>
        <time>2020-08-16T12:50:53.000Z</time>
      </trkpt>
      <trkpt lat="42.5674779899418354034423828125" lon="-0.07798413746058940887451171875">
        <ele>966.4000244140625</ele>
        <time>2020-08-16T12:50:59.000Z</time>
      </trkpt>
      <trkpt lat="42.567426525056362152099609375" lon="-0.078012049198150634765625">
        <ele>966.4000244140625</ele>
        <time>2020-08-16T12:51:00.000Z</time>
      </trkpt>
      <trkpt lat="42.567293755710124969482421875" lon="-0.07811171002686023712158203125">
        <ele>966.4000244140625</ele>
        <time>2020-08-16T12:51:03.000Z</time>
      </trkpt>
      <trkpt lat="42.567228041589260101318359375" lon="-0.07819267921149730682373046875">
        <ele>966.5999755859375</ele>
        <time>2020-08-16T12:51:05.000Z</time>
      </trkpt>
      <trkpt lat="42.56710390560328960418701171875" lon="-0.07845503278076648712158203125">
        <ele>967</ele>
        <time>2020-08-16T12:51:11.000Z</time>
      </trkpt>
      <trkpt lat="42.56706316955387592315673828125" lon="-0.07870112545788288116455078125">
        <ele>966.4000244140625</ele>
        <time>2020-08-16T12:51:17.000Z</time>
      </trkpt>
      <trkpt lat="42.56704053841531276702880859375" lon="-0.07909038104116916656494140625">
        <ele>967.20001220703125</ele>
        <time>2020-08-16T12:51:26.000Z</time>
      </trkpt>
      <trkpt lat="42.567045651376247406005859375" lon="-0.07925860583782196044921875">
        <ele>967.79998779296875</ele>
        <time>2020-08-16T12:51:30.000Z</time>
      </trkpt>
      <trkpt lat="42.567083872854709625244140625" lon="-0.079417191445827484130859375">
        <ele>968.20001220703125</ele>
        <time>2020-08-16T12:51:34.000Z</time>
      </trkpt>
      <trkpt lat="42.56722309626638889312744140625" lon="-0.07973679341375827789306640625">
        <ele>968.5999755859375</ele>
        <time>2020-08-16T12:51:43.000Z</time>
      </trkpt>
      <trkpt lat="42.56724103353917598724365234375" lon="-0.07977090775966644287109375">
        <ele>968.79998779296875</ele>
        <time>2020-08-16T12:51:44.000Z</time>
      </trkpt>
      <trkpt lat="42.567394338548183441162109375" lon="-0.080069638788700103759765625">
        <ele>970</ele>
        <time>2020-08-16T12:51:53.000Z</time>
      </trkpt>
      <trkpt lat="42.56755820475518703460693359375" lon="-0.080393515527248382568359375">
        <ele>970.79998779296875</ele>
        <time>2020-08-16T12:52:03.000Z</time>
      </trkpt>
      <trkpt lat="42.56768443621695041656494140625" lon="-0.0807336531579494476318359375">
        <ele>971.20001220703125</ele>
        <time>2020-08-16T12:52:13.000Z</time>
      </trkpt>
      <trkpt lat="42.567780576646327972412109375" lon="-0.08106213994324207305908203125">
        <ele>972.20001220703125</ele>
        <time>2020-08-16T12:52:22.000Z</time>
      </trkpt>
      <trkpt lat="42.56779138930141925811767578125" lon="-0.08109985850751399993896484375">
        <ele>972.20001220703125</ele>
        <time>2020-08-16T12:52:23.000Z</time>
      </trkpt>
      <trkpt lat="42.5678654015064239501953125" lon="-0.0813552550971508026123046875">
        <ele>973.20001220703125</ele>
        <time>2020-08-16T12:52:30.000Z</time>
      </trkpt>
      <trkpt lat="42.5679007731378078460693359375" lon="-0.08146044798195362091064453125">
        <ele>973.4000244140625</ele>
        <time>2020-08-16T12:52:33.000Z</time>
      </trkpt>
      <trkpt lat="42.5679624639451503753662109375" lon="-0.0816489569842815399169921875">
        <ele>974</ele>
        <time>2020-08-16T12:52:38.000Z</time>
      </trkpt>
      <trkpt lat="42.56804435513913631439208984375" lon="-0.08191340602934360504150390625">
        <ele>974</ele>
        <time>2020-08-16T12:52:45.000Z</time>
      </trkpt>
      <trkpt lat="42.568103782832622528076171875" lon="-0.08211088366806507110595703125">
        <ele>974.5999755859375</ele>
        <time>2020-08-16T12:52:50.000Z</time>
      </trkpt>
      <trkpt lat="42.5681341253221035003662109375" lon="-0.08222068659961223602294921875">
        <ele>975</ele>
        <time>2020-08-16T12:52:53.000Z</time>
      </trkpt>
      <trkpt lat="42.56819330155849456787109375" lon="-0.08240911178290843963623046875">
        <ele>975.79998779296875</ele>
        <time>2020-08-16T12:52:58.000Z</time>
      </trkpt>
      <trkpt lat="42.568234540522098541259765625" lon="-0.08252394385635852813720703125">
        <ele>975.5999755859375</ele>
        <time>2020-08-16T12:53:01.000Z</time>
      </trkpt>
      <trkpt lat="42.568353228271007537841796875" lon="-0.08281311951577663421630859375">
        <ele>976.5999755859375</ele>
        <time>2020-08-16T12:53:09.000Z</time>
      </trkpt>
      <trkpt lat="42.56838566623628139495849609375" lon="-0.08288604207336902618408203125">
        <ele>976.79998779296875</ele>
        <time>2020-08-16T12:53:11.000Z</time>
      </trkpt>
      <trkpt lat="42.56847853772342205047607421875" lon="-0.0830956734716892242431640625">
        <ele>978.4000244140625</ele>
        <time>2020-08-16T12:53:17.000Z</time>
      </trkpt>
      <trkpt lat="42.5685066170990467071533203125" lon="-0.08315962739288806915283203125">
        <ele>978.5999755859375</ele>
        <time>2020-08-16T12:53:19.000Z</time>
      </trkpt>
      <trkpt lat="42.56857207976281642913818359375" lon="-0.08330463431775569915771484375">
        <ele>978.5999755859375</ele>
        <time>2020-08-16T12:53:24.000Z</time>
      </trkpt>
      <trkpt lat="42.56866344250738620758056640625" lon="-0.08347042836248874664306640625">
        <ele>978.79998779296875</ele>
        <time>2020-08-16T12:53:29.000Z</time>
      </trkpt>
      <trkpt lat="42.5687144882977008819580078125" lon="-0.08362591266632080078125">
        <ele>978.79998779296875</ele>
        <time>2020-08-16T12:53:33.000Z</time>
      </trkpt>
      <trkpt lat="42.5688117183744907379150390625" lon="-0.08390930481255054473876953125">
        <ele>979.20001220703125</ele>
        <time>2020-08-16T12:53:40.000Z</time>
      </trkpt>
      <trkpt lat="42.568874247372150421142578125" lon="-0.0841529667377471923828125">
        <ele>979</ele>
        <time>2020-08-16T12:53:47.000Z</time>
      </trkpt>
      <trkpt lat="42.5689176656305789947509765625" lon="-0.08432261645793914794921875">
        <ele>978.79998779296875</ele>
        <time>2020-08-16T12:53:53.000Z</time>
      </trkpt>
      <trkpt lat="42.56895496509969234466552734375" lon="-0.08449302054941654205322265625">
        <ele>978.4000244140625</ele>
        <time>2020-08-16T12:54:01.000Z</time>
      </trkpt>
      <trkpt lat="42.5690004788339138031005859375" lon="-0.08466451428830623626708984375">
        <ele>978.5999755859375</ele>
        <time>2020-08-16T12:54:07.000Z</time>
      </trkpt>
      <trkpt lat="42.56907884962856769561767578125" lon="-0.08492468856275081634521484375">
        <ele>978.4000244140625</ele>
        <time>2020-08-16T12:54:14.000Z</time>
      </trkpt>
      <trkpt lat="42.56914791651070117950439453125" lon="-0.08517379872500896453857421875">
        <ele>978.5999755859375</ele>
        <time>2020-08-16T12:54:20.000Z</time>
      </trkpt>
      <trkpt lat="42.56927364505827426910400390625" lon="-0.0855622999370098114013671875">
        <ele>978.20001220703125</ele>
        <time>2020-08-16T12:54:28.000Z</time>
      </trkpt>
      <trkpt lat="42.56935578770935535430908203125" lon="-0.08587402291595935821533203125">
        <ele>978</ele>
        <time>2020-08-16T12:54:35.000Z</time>
      </trkpt>
      <trkpt lat="42.5694068334996700286865234375" lon="-0.08605054579675197601318359375">
        <ele>978.20001220703125</ele>
        <time>2020-08-16T12:54:39.000Z</time>
      </trkpt>
      <trkpt lat="42.56943709217011928558349609375" lon="-0.08619169704616069793701171875">
        <ele>977.79998779296875</ele>
        <time>2020-08-16T12:54:42.000Z</time>
      </trkpt>
      <trkpt lat="42.56947137415409088134765625" lon="-0.08640141226351261138916015625">
        <ele>977.4000244140625</ele>
        <time>2020-08-16T12:54:46.000Z</time>
      </trkpt>
      <trkpt lat="42.56947464309632778167724609375" lon="-0.086523033678531646728515625">
        <ele>977</ele>
        <time>2020-08-16T12:54:48.000Z</time>
      </trkpt>
      <trkpt lat="42.56947514601051807403564453125" lon="-0.08659436367452144622802734375">
        <ele>976.5999755859375</ele>
        <time>2020-08-16T12:54:49.000Z</time>
      </trkpt>
      <trkpt lat="42.56947833113372325897216796875" lon="-0.08676485158503055572509765625">
        <ele>976</ele>
        <time>2020-08-16T12:54:51.000Z</time>
      </trkpt>
      <trkpt lat="42.5694816000759601593017578125" lon="-0.08696199394762516021728515625">
        <ele>974.5999755859375</ele>
        <time>2020-08-16T12:54:53.000Z</time>
      </trkpt>
      <trkpt lat="42.5694826059043407440185546875" lon="-0.08706827647984027862548828125">
        <ele>974.20001220703125</ele>
        <time>2020-08-16T12:54:54.000Z</time>
      </trkpt>
      <trkpt lat="42.5694846175611019134521484375" lon="-0.08728779852390289306640625">
        <ele>973.20001220703125</ele>
        <time>2020-08-16T12:54:56.000Z</time>
      </trkpt>
      <trkpt lat="42.5694889761507511138916015625" lon="-0.0876420177519321441650390625">
        <ele>971.79998779296875</ele>
        <time>2020-08-16T12:54:59.000Z</time>
      </trkpt>
      <trkpt lat="42.569489814341068267822265625" lon="-0.087766237556934356689453125">
        <ele>971</ele>
        <time>2020-08-16T12:55:00.000Z</time>
      </trkpt>
      <trkpt lat="42.5694908201694488525390625" lon="-0.0878951512277126312255859375">
        <ele>970.20001220703125</ele>
        <time>2020-08-16T12:55:01.000Z</time>
      </trkpt>
      <trkpt lat="42.5694933347404003143310546875" lon="-0.08816630579531192779541015625">
        <ele>968</ele>
        <time>2020-08-16T12:55:03.000Z</time>
      </trkpt>
      <trkpt lat="42.5694953463971614837646484375" lon="-0.08830024860799312591552734375">
        <ele>966.79998779296875</ele>
        <time>2020-08-16T12:55:04.000Z</time>
      </trkpt>
      <trkpt lat="42.569495849311351776123046875" lon="-0.08855757303535938262939453125">
        <ele>965.79998779296875</ele>
        <time>2020-08-16T12:55:06.000Z</time>
      </trkpt>
      <trkpt lat="42.56949953734874725341796875" lon="-0.088805593550205230712890625">
        <ele>964.20001220703125</ele>
        <time>2020-08-16T12:55:08.000Z</time>
      </trkpt>
      <trkpt lat="42.5695131160318851470947265625" lon="-0.08904464542865753173828125">
        <ele>963</ele>
        <time>2020-08-16T12:55:10.000Z</time>
      </trkpt>
      <trkpt lat="42.56953180767595767974853515625" lon="-0.08915872313082218170166015625">
        <ele>962.79998779296875</ele>
        <time>2020-08-16T12:55:11.000Z</time>
      </trkpt>
      <trkpt lat="42.569602467119693756103515625" lon="-0.08937053382396697998046875">
        <ele>961.79998779296875</ele>
        <time>2020-08-16T12:55:13.000Z</time>
      </trkpt>
      <trkpt lat="42.5696504116058349609375" lon="-0.089468769729137420654296875">
        <ele>961</ele>
        <time>2020-08-16T12:55:14.000Z</time>
      </trkpt>
      <trkpt lat="42.5697022117674350738525390625" lon="-0.08956507779657840728759765625">
        <ele>960</ele>
        <time>2020-08-16T12:55:15.000Z</time>
      </trkpt>
      <trkpt lat="42.56978829391300678253173828125" lon="-0.0897462107241153717041015625">
        <ele>959</ele>
        <time>2020-08-16T12:55:17.000Z</time>
      </trkpt>
      <trkpt lat="42.56981578655540943145751953125" lon="-0.0898511521518230438232421875">
        <ele>958.79998779296875</ele>
        <time>2020-08-16T12:55:18.000Z</time>
      </trkpt>
      <trkpt lat="42.56982584483921527862548828125" lon="-0.090082995593547821044921875">
        <ele>957.79998779296875</ele>
        <time>2020-08-16T12:55:20.000Z</time>
      </trkpt>
      <trkpt lat="42.5698044709861278533935546875" lon="-0.0901981629431247711181640625">
        <ele>957.4000244140625</ele>
        <time>2020-08-16T12:55:21.000Z</time>
      </trkpt>
      <trkpt lat="42.56972073577344417572021484375" lon="-0.09041869081556797027587890625">
        <ele>956.5999755859375</ele>
        <time>2020-08-16T12:55:23.000Z</time>
      </trkpt>
      <trkpt lat="42.56967312656342983245849609375" lon="-0.0905284099280834197998046875">
        <ele>955.5999755859375</ele>
        <time>2020-08-16T12:55:24.000Z</time>
      </trkpt>
      <trkpt lat="42.5696291215717792510986328125" lon="-0.09063678793609142303466796875">
        <ele>954.4000244140625</ele>
        <time>2020-08-16T12:55:25.000Z</time>
      </trkpt>
      <trkpt lat="42.5695556960999965667724609375" lon="-0.09083024226129055023193359375">
        <ele>953</ele>
        <time>2020-08-16T12:55:27.000Z</time>
      </trkpt>
      <trkpt lat="42.56949744187295436859130859375" lon="-0.09101782925426959991455078125">
        <ele>952</ele>
        <time>2020-08-16T12:55:29.000Z</time>
      </trkpt>
      <trkpt lat="42.5694916583597660064697265625" lon="-0.09111472405493259429931640625">
        <ele>951</ele>
        <time>2020-08-16T12:55:30.000Z</time>
      </trkpt>
      <trkpt lat="42.56950263865292072296142578125" lon="-0.0912137143313884735107421875">
        <ele>949.79998779296875</ele>
        <time>2020-08-16T12:55:31.000Z</time>
      </trkpt>
      <trkpt lat="42.5695298798382282257080078125" lon="-0.091309435665607452392578125">
        <ele>949.20001220703125</ele>
        <time>2020-08-16T12:55:32.000Z</time>
      </trkpt>
      <trkpt lat="42.56957422010600566864013671875" lon="-0.091408006846904754638671875">
        <ele>948.5999755859375</ele>
        <time>2020-08-16T12:55:33.000Z</time>
      </trkpt>
      <trkpt lat="42.569692991673946380615234375" lon="-0.09157824330031871795654296875">
        <ele>947.5999755859375</ele>
        <time>2020-08-16T12:55:35.000Z</time>
      </trkpt>
      <trkpt lat="42.5697598792612552642822265625" lon="-0.0916569493710994720458984375">
        <ele>947</ele>
        <time>2020-08-16T12:55:36.000Z</time>
      </trkpt>
      <trkpt lat="42.5698282755911350250244140625" lon="-0.0917355716228485107421875">
        <ele>946.5999755859375</ele>
        <time>2020-08-16T12:55:37.000Z</time>
      </trkpt>
      <trkpt lat="42.5700421817600727081298828125" lon="-0.09197051636874675750732421875">
        <ele>945.4000244140625</ele>
        <time>2020-08-16T12:55:40.000Z</time>
      </trkpt>
      <trkpt lat="42.57010630331933498382568359375" lon="-0.09205869399011135101318359375">
        <ele>944.20001220703125</ele>
        <time>2020-08-16T12:55:41.000Z</time>
      </trkpt>
      <trkpt lat="42.57019833661615848541259765625" lon="-0.092246532440185546875">
        <ele>942.5999755859375</ele>
        <time>2020-08-16T12:55:43.000Z</time>
      </trkpt>
      <trkpt lat="42.57022080011665821075439453125" lon="-0.09235776029527187347412109375">
        <ele>942.4000244140625</ele>
        <time>2020-08-16T12:55:44.000Z</time>
      </trkpt>
      <trkpt lat="42.57021560333669185638427734375" lon="-0.09270041249692440032958984375">
        <ele>942</ele>
        <time>2020-08-16T12:55:47.000Z</time>
      </trkpt>
      <trkpt lat="42.570205628871917724609375" lon="-0.09293108247220516204833984375">
        <ele>941.5999755859375</ele>
        <time>2020-08-16T12:55:49.000Z</time>
      </trkpt>
      <trkpt lat="42.57019850425422191619873046875" lon="-0.09323894977569580078125">
        <ele>940.79998779296875</ele>
        <time>2020-08-16T12:55:52.000Z</time>
      </trkpt>
      <trkpt lat="42.570197917520999908447265625" lon="-0.09332637302577495574951171875">
        <ele>940.79998779296875</ele>
        <time>2020-08-16T12:55:53.000Z</time>
      </trkpt>
      <trkpt lat="42.57019582204520702362060546875" lon="-0.09354262612760066986083984375">
        <ele>941</ele>
        <time>2020-08-16T12:55:56.000Z</time>
      </trkpt>
      <trkpt lat="42.5701729394495487213134765625" lon="-0.09377832524478435516357421875">
        <ele>943</ele>
        <time>2020-08-16T12:56:01.000Z</time>
      </trkpt>
      <trkpt lat="42.57015508599579334259033203125" lon="-0.09388913400471210479736328125">
        <ele>944.20001220703125</ele>
        <time>2020-08-16T12:56:04.000Z</time>
      </trkpt>
      <trkpt lat="42.5701273418962955474853515625" lon="-0.093998350203037261962890625">
        <ele>944.79998779296875</ele>
        <time>2020-08-16T12:56:07.000Z</time>
      </trkpt>
      <trkpt lat="42.57009758614003658294677734375" lon="-0.09410086087882518768310546875">
        <ele>945.4000244140625</ele>
        <time>2020-08-16T12:56:10.000Z</time>
      </trkpt>
      <trkpt lat="42.570055760443210601806640625" lon="-0.0942328758537769317626953125">
        <ele>946.20001220703125</ele>
        <time>2020-08-16T12:56:14.000Z</time>
      </trkpt>
      <trkpt lat="42.5700379908084869384765625" lon="-0.09429750032722949981689453125">
        <ele>946.5999755859375</ele>
        <time>2020-08-16T12:56:16.000Z</time>
      </trkpt>
      <trkpt lat="42.5699932314455509185791015625" lon="-0.09447502903640270233154296875">
        <ele>947.5999755859375</ele>
        <time>2020-08-16T12:56:22.000Z</time>
      </trkpt>
      <trkpt lat="42.56996280513703823089599609375" lon="-0.0945882685482501983642578125">
        <ele>948.5999755859375</ele>
        <time>2020-08-16T12:56:26.000Z</time>
      </trkpt>
      <trkpt lat="42.56995819509029388427734375" lon="-0.094643421471118927001953125">
        <ele>949</ele>
        <time>2020-08-16T12:56:28.000Z</time>
      </trkpt>
      <trkpt lat="42.569940090179443359375" lon="-0.0947253964841365814208984375">
        <ele>949.79998779296875</ele>
        <time>2020-08-16T12:56:31.000Z</time>
      </trkpt>
      <trkpt lat="42.56993413902819156646728515625" lon="-0.09478532709181308746337890625">
        <ele>950.20001220703125</ele>
        <time>2020-08-16T12:56:33.000Z</time>
      </trkpt>
      <trkpt lat="42.56991569884121417999267578125" lon="-0.09490351192653179168701171875">
        <ele>950.79998779296875</ele>
        <time>2020-08-16T12:56:37.000Z</time>
      </trkpt>
      <trkpt lat="42.56991268135607242584228515625" lon="-0.094967298209667205810546875">
        <ele>951.20001220703125</ele>
        <time>2020-08-16T12:56:39.000Z</time>
      </trkpt>
      <trkpt lat="42.569910250604152679443359375" lon="-0.0951848924160003662109375">
        <ele>951.5999755859375</ele>
        <time>2020-08-16T12:56:46.000Z</time>
      </trkpt>
      <trkpt lat="42.569908238947391510009765625" lon="-0.0954423844814300537109375">
        <ele>951.79998779296875</ele>
        <time>2020-08-16T12:56:54.000Z</time>
      </trkpt>
      <trkpt lat="42.56991066969931125640869140625" lon="-0.0957315601408481597900390625">
        <ele>951.5999755859375</ele>
        <time>2020-08-16T12:57:01.000Z</time>
      </trkpt>
      <trkpt lat="42.56989918649196624755859375" lon="-0.096042193472385406494140625">
        <ele>951.79998779296875</ele>
        <time>2020-08-16T12:57:08.000Z</time>
      </trkpt>
      <trkpt lat="42.56989541463553905487060546875" lon="-0.0962804071605205535888671875">
        <ele>951.79998779296875</ele>
        <time>2020-08-16T12:57:14.000Z</time>
      </trkpt>
      <trkpt lat="42.5698923133313655853271484375" lon="-0.096401274204254150390625">
        <ele>952</ele>
        <time>2020-08-16T12:57:17.000Z</time>
      </trkpt>
      <trkpt lat="42.56987529806792736053466796875" lon="-0.0966596044600009918212890625">
        <ele>952.20001220703125</ele>
        <time>2020-08-16T12:57:24.000Z</time>
      </trkpt>
      <trkpt lat="42.5698100030422210693359375" lon="-0.09687728248536586761474609375">
        <ele>952.20001220703125</ele>
        <time>2020-08-16T12:57:30.000Z</time>
      </trkpt>
      <trkpt lat="42.56973615847527980804443359375" lon="-0.09708431549370288848876953125">
        <ele>952</ele>
        <time>2020-08-16T12:57:34.000Z</time>
      </trkpt>
      <trkpt lat="42.56971302442252635955810546875" lon="-0.09714751504361629486083984375">
        <ele>951.4000244140625</ele>
        <time>2020-08-16T12:57:35.000Z</time>
      </trkpt>
      <trkpt lat="42.569658458232879638671875" lon="-0.09728967212140560150146484375">
        <ele>950.79998779296875</ele>
        <time>2020-08-16T12:57:37.000Z</time>
      </trkpt>
      <trkpt lat="42.5695962645113468170166015625" lon="-0.09746074676513671875">
        <ele>949.79998779296875</ele>
        <time>2020-08-16T12:57:39.000Z</time>
      </trkpt>
      <trkpt lat="42.5694836117327213287353515625" lon="-0.09775436483323574066162109375">
        <ele>948.4000244140625</ele>
        <time>2020-08-16T12:57:42.000Z</time>
      </trkpt>
      <trkpt lat="42.569402642548084259033203125" lon="-0.0979722104966640472412109375">
        <ele>947</ele>
        <time>2020-08-16T12:57:44.000Z</time>
      </trkpt>
      <trkpt lat="42.56933282129466533660888671875" lon="-0.09820262901484966278076171875">
        <ele>945.79998779296875</ele>
        <time>2020-08-16T12:57:46.000Z</time>
      </trkpt>
      <trkpt lat="42.56926207803189754486083984375" lon="-0.098564140498638153076171875">
        <ele>944</ele>
        <time>2020-08-16T12:57:49.000Z</time>
      </trkpt>
      <trkpt lat="42.569228298962116241455078125" lon="-0.098809562623500823974609375">
        <ele>942.79998779296875</ele>
        <time>2020-08-16T12:57:51.000Z</time>
      </trkpt>
      <trkpt lat="42.569224275648593902587890625" lon="-0.0989351235330104827880859375">
        <ele>942.20001220703125</ele>
        <time>2020-08-16T12:57:52.000Z</time>
      </trkpt>
      <trkpt lat="42.56923668086528778076171875" lon="-0.09906227700412273406982421875">
        <ele>941.5999755859375</ele>
        <time>2020-08-16T12:57:53.000Z</time>
      </trkpt>
      <trkpt lat="42.56931505165994167327880859375" lon="-0.099298395216464996337890625">
        <ele>940.4000244140625</ele>
        <time>2020-08-16T12:57:55.000Z</time>
      </trkpt>
      <trkpt lat="42.56936986930668354034423828125" lon="-0.09940962307155132293701171875">
        <ele>940</ele>
        <time>2020-08-16T12:57:56.000Z</time>
      </trkpt>
      <trkpt lat="42.5694222562015056610107421875" lon="-0.09952143765985965728759765625">
        <ele>939.4000244140625</ele>
        <time>2020-08-16T12:57:57.000Z</time>
      </trkpt>
      <trkpt lat="42.56946408189833164215087890625" lon="-0.0996345095336437225341796875">
        <ele>938.79998779296875</ele>
        <time>2020-08-16T12:57:58.000Z</time>
      </trkpt>
      <trkpt lat="42.5694906525313854217529296875" lon="-0.09975193999707698822021484375">
        <ele>938.20001220703125</ele>
        <time>2020-08-16T12:57:59.000Z</time>
      </trkpt>
      <trkpt lat="42.56950448267161846160888671875" lon="-0.1000046543776988983154296875">
        <ele>937</ele>
        <time>2020-08-16T12:58:01.000Z</time>
      </trkpt>
      <trkpt lat="42.5695000402629375457763671875" lon="-0.10013599880039691925048828125">
        <ele>936</ele>
        <time>2020-08-16T12:58:02.000Z</time>
      </trkpt>
      <trkpt lat="42.56948478519916534423828125" lon="-0.10040271095931529998779296875">
        <ele>934.79998779296875</ele>
        <time>2020-08-16T12:58:04.000Z</time>
      </trkpt>
      <trkpt lat="42.56947950460016727447509765625" lon="-0.1006565988063812255859375">
        <ele>933.20001220703125</ele>
        <time>2020-08-16T12:58:06.000Z</time>
      </trkpt>
      <trkpt lat="42.5694879703223705291748046875" lon="-0.1007771305739879608154296875">
        <ele>932.4000244140625</ele>
        <time>2020-08-16T12:58:07.000Z</time>
      </trkpt>
      <trkpt lat="42.56950967945158481597900390625" lon="-0.10088860988616943359375">
        <ele>931.5999755859375</ele>
        <time>2020-08-16T12:58:08.000Z</time>
      </trkpt>
      <trkpt lat="42.56960322149097919464111328125" lon="-0.10107125155627727508544921875">
        <ele>930.20001220703125</ele>
        <time>2020-08-16T12:58:10.000Z</time>
      </trkpt>
      <trkpt lat="42.5696747191250324249267578125" lon="-0.10113495402038097381591796875">
        <ele>929.5999755859375</ele>
        <time>2020-08-16T12:58:11.000Z</time>
      </trkpt>
      <trkpt lat="42.5697555206716060638427734375" lon="-0.10118742473423480987548828125">
        <ele>928.79998779296875</ele>
        <time>2020-08-16T12:58:12.000Z</time>
      </trkpt>
      <trkpt lat="42.5698457099497318267822265625" lon="-0.10122044943273067474365234375">
        <ele>927.79998779296875</ele>
        <time>2020-08-16T12:58:13.000Z</time>
      </trkpt>
      <trkpt lat="42.56994134746491909027099609375" lon="-0.1012377999722957611083984375">
        <ele>927.20001220703125</ele>
        <time>2020-08-16T12:58:14.000Z</time>
      </trkpt>
      <trkpt lat="42.5700408406555652618408203125" lon="-0.10124777443706989288330078125">
        <ele>926.79998779296875</ele>
        <time>2020-08-16T12:58:15.000Z</time>
      </trkpt>
      <trkpt lat="42.5701427645981311798095703125" lon="-0.10125833563506603240966796875">
        <ele>926.4000244140625</ele>
        <time>2020-08-16T12:58:16.000Z</time>
      </trkpt>
      <trkpt lat="42.5703523121774196624755859375" lon="-0.10128750465810298919677734375">
        <ele>924.79998779296875</ele>
        <time>2020-08-16T12:58:18.000Z</time>
      </trkpt>
      <trkpt lat="42.57056563161313533782958984375" lon="-0.1013325154781341552734375">
        <ele>923.20001220703125</ele>
        <time>2020-08-16T12:58:20.000Z</time>
      </trkpt>
      <trkpt lat="42.57077836431562900543212890625" lon="-0.10139781050384044647216796875">
        <ele>921.79998779296875</ele>
        <time>2020-08-16T12:58:22.000Z</time>
      </trkpt>
      <trkpt lat="42.57088548503816127777099609375" lon="-0.1014466769993305206298828125">
        <ele>920.5999755859375</ele>
        <time>2020-08-16T12:58:23.000Z</time>
      </trkpt>
      <trkpt lat="42.57098975591361522674560546875" lon="-0.1015050150454044342041015625">
        <ele>920</ele>
        <time>2020-08-16T12:58:24.000Z</time>
      </trkpt>
      <trkpt lat="42.5710902549326419830322265625" lon="-0.10157324373722076416015625">
        <ele>919.5999755859375</ele>
        <time>2020-08-16T12:58:25.000Z</time>
      </trkpt>
      <trkpt lat="42.57118807174265384674072265625" lon="-0.10164993815124034881591796875">
        <ele>919.20001220703125</ele>
        <time>2020-08-16T12:58:26.000Z</time>
      </trkpt>
      <trkpt lat="42.57137498818337917327880859375" lon="-0.10183014906942844390869140625">
        <ele>917.5999755859375</ele>
        <time>2020-08-16T12:58:28.000Z</time>
      </trkpt>
      <trkpt lat="42.5714644230902194976806640625" lon="-0.10193257592618465423583984375">
        <ele>916.4000244140625</ele>
        <time>2020-08-16T12:58:29.000Z</time>
      </trkpt>
      <trkpt lat="42.571552433073520660400390625" lon="-0.10204003192484378814697265625">
        <ele>915.4000244140625</ele>
        <time>2020-08-16T12:58:30.000Z</time>
      </trkpt>
      <trkpt lat="42.5716387666761875152587890625" lon="-0.1021517626941204071044921875">
        <ele>913.5999755859375</ele>
        <time>2020-08-16T12:58:31.000Z</time>
      </trkpt>
      <trkpt lat="42.57172518409788608551025390625" lon="-0.10226600803434848785400390625">
        <ele>912</ele>
        <time>2020-08-16T12:58:32.000Z</time>
      </trkpt>
      <trkpt lat="42.5718131102621555328369140625" lon="-0.1023824326694011688232421875">
        <ele>911.20001220703125</ele>
        <time>2020-08-16T12:58:33.000Z</time>
      </trkpt>
      <trkpt lat="42.5719022937119007110595703125" lon="-0.10249936021864414215087890625">
        <ele>910.5999755859375</ele>
        <time>2020-08-16T12:58:34.000Z</time>
      </trkpt>
      <trkpt lat="42.5721631385385990142822265625" lon="-0.102843604981899261474609375">
        <ele>909.20001220703125</ele>
        <time>2020-08-16T12:58:37.000Z</time>
      </trkpt>
      <trkpt lat="42.572249136865139007568359375" lon="-0.1029560901224613189697265625">
        <ele>907.79998779296875</ele>
        <time>2020-08-16T12:58:38.000Z</time>
      </trkpt>
      <trkpt lat="42.572334967553615570068359375" lon="-0.10306983254849910736083984375">
        <ele>906.5999755859375</ele>
        <time>2020-08-16T12:58:39.000Z</time>
      </trkpt>
      <trkpt lat="42.57250335998833179473876953125" lon="-0.10329681448638439178466796875">
        <ele>905.4000244140625</ele>
        <time>2020-08-16T12:58:41.000Z</time>
      </trkpt>
      <trkpt lat="42.572587765753269195556640625" lon="-0.10340913198888301849365234375">
        <ele>904.79998779296875</ele>
        <time>2020-08-16T12:58:42.000Z</time>
      </trkpt>
      <trkpt lat="42.57267300970852375030517578125" lon="-0.103519856929779052734375">
        <ele>903.79998779296875</ele>
        <time>2020-08-16T12:58:43.000Z</time>
      </trkpt>
      <trkpt lat="42.57284483872354030609130859375" lon="-0.10374105535447597503662109375">
        <ele>901.79998779296875</ele>
        <time>2020-08-16T12:58:45.000Z</time>
      </trkpt>
      <trkpt lat="42.57301532663404941558837890625" lon="-0.10396384634077548980712890625">
        <ele>900.20001220703125</ele>
        <time>2020-08-16T12:58:47.000Z</time>
      </trkpt>
      <trkpt lat="42.5730999000370502471923828125" lon="-0.10407582856714725494384765625">
        <ele>899</ele>
        <time>2020-08-16T12:58:48.000Z</time>
      </trkpt>
      <trkpt lat="42.57318430580198764801025390625" lon="-0.1041865535080432891845703125">
        <ele>898</ele>
        <time>2020-08-16T12:58:49.000Z</time>
      </trkpt>
      <trkpt lat="42.573267705738544464111328125" lon="-0.1042951829731464385986328125">
        <ele>896.79998779296875</ele>
        <time>2020-08-16T12:58:50.000Z</time>
      </trkpt>
      <trkpt lat="42.573430649936199188232421875" lon="-0.104504562914371490478515625">
        <ele>895</ele>
        <time>2020-08-16T12:58:52.000Z</time>
      </trkpt>
      <trkpt lat="42.573509775102138519287109375" lon="-0.1046083308756351470947265625">
        <ele>894.4000244140625</ele>
        <time>2020-08-16T12:58:53.000Z</time>
      </trkpt>
      <trkpt lat="42.573586888611316680908203125" lon="-0.10471008718013763427734375">
        <ele>894</ele>
        <time>2020-08-16T12:58:54.000Z</time>
      </trkpt>
      <trkpt lat="42.57374036125838756561279296875" lon="-0.1049130968749523162841796875">
        <ele>892.5999755859375</ele>
        <time>2020-08-16T12:58:56.000Z</time>
      </trkpt>
      <trkpt lat="42.5739702768623828887939453125" lon="-0.1052124984562397003173828125">
        <ele>891.5999755859375</ele>
        <time>2020-08-16T12:58:59.000Z</time>
      </trkpt>
      <trkpt lat="42.5742069818079471588134765625" lon="-0.10551919229328632354736328125">
        <ele>890.20001220703125</ele>
        <time>2020-08-16T12:59:02.000Z</time>
      </trkpt>
      <trkpt lat="42.57428786717355251312255859375" lon="-0.10562413372099399566650390625">
        <ele>889.79998779296875</ele>
        <time>2020-08-16T12:59:03.000Z</time>
      </trkpt>
      <trkpt lat="42.57445164956152439117431640625" lon="-0.10584055446088314056396484375">
        <ele>889</ele>
        <time>2020-08-16T12:59:05.000Z</time>
      </trkpt>
      <trkpt lat="42.57462196983397006988525390625" lon="-0.106058903038501739501953125">
        <ele>887.4000244140625</ele>
        <time>2020-08-16T12:59:07.000Z</time>
      </trkpt>
      <trkpt lat="42.57470780052244663238525390625" lon="-0.10616895742714405059814453125">
        <ele>886.20001220703125</ele>
        <time>2020-08-16T12:59:08.000Z</time>
      </trkpt>
      <trkpt lat="42.574793212115764617919921875" lon="-0.1062780059874057769775390625">
        <ele>884.20001220703125</ele>
        <time>2020-08-16T12:59:09.000Z</time>
      </trkpt>
      <trkpt lat="42.57487870752811431884765625" lon="-0.10638655163347721099853515625">
        <ele>882.79998779296875</ele>
        <time>2020-08-16T12:59:10.000Z</time>
      </trkpt>
      <trkpt lat="42.57496453821659088134765625" lon="-0.10649518109858036041259765625">
        <ele>882</ele>
        <time>2020-08-16T12:59:11.000Z</time>
      </trkpt>
      <trkpt lat="42.5750502012670040130615234375" lon="-0.10660347528755664825439453125">
        <ele>881.20001220703125</ele>
        <time>2020-08-16T12:59:12.000Z</time>
      </trkpt>
      <trkpt lat="42.57537491619586944580078125" lon="-0.1070417650043964385986328125">
        <ele>879.5999755859375</ele>
        <time>2020-08-16T12:59:16.000Z</time>
      </trkpt>
      <trkpt lat="42.57545144297182559967041015625" lon="-0.10715316049754619598388671875">
        <ele>878.4000244140625</ele>
        <time>2020-08-16T12:59:17.000Z</time>
      </trkpt>
      <trkpt lat="42.57552637718617916107177734375" lon="-0.10726631619036197662353515625">
        <ele>877.79998779296875</ele>
        <time>2020-08-16T12:59:18.000Z</time>
      </trkpt>
      <trkpt lat="42.57559661753475666046142578125" lon="-0.10738148353993892669677734375">
        <ele>877</ele>
        <time>2020-08-16T12:59:19.000Z</time>
      </trkpt>
      <trkpt lat="42.57572620175778865814208984375" lon="-0.1076181046664714813232421875">
        <ele>875.4000244140625</ele>
        <time>2020-08-16T12:59:21.000Z</time>
      </trkpt>
      <trkpt lat="42.57584832608699798583984375" lon="-0.10786168277263641357421875">
        <ele>874.5999755859375</ele>
        <time>2020-08-16T12:59:23.000Z</time>
      </trkpt>
      <trkpt lat="42.57590557448565959930419921875" lon="-0.1079865731298923492431640625">
        <ele>873.5999755859375</ele>
        <time>2020-08-16T12:59:24.000Z</time>
      </trkpt>
      <trkpt lat="42.5759598053991794586181640625" lon="-0.10811205022037029266357421875">
        <ele>872.4000244140625</ele>
        <time>2020-08-16T12:59:25.000Z</time>
      </trkpt>
      <trkpt lat="42.5760590471327304840087890625" lon="-0.10836602188646793365478515625">
        <ele>870.4000244140625</ele>
        <time>2020-08-16T12:59:27.000Z</time>
      </trkpt>
      <trkpt lat="42.57610606960952281951904296875" lon="-0.10849074460566043853759765625">
        <ele>869.20001220703125</ele>
        <time>2020-08-16T12:59:28.000Z</time>
      </trkpt>
      <trkpt lat="42.57615217007696628570556640625" lon="-0.1086135394871234893798828125">
        <ele>868</ele>
        <time>2020-08-16T12:59:29.000Z</time>
      </trkpt>
      <trkpt lat="42.57624554447829723358154296875" lon="-0.10885032825171947479248046875">
        <ele>866.5999755859375</ele>
        <time>2020-08-16T12:59:31.000Z</time>
      </trkpt>
      <trkpt lat="42.5764016993343830108642578125" lon="-0.10919432155787944793701171875">
        <ele>865.4000244140625</ele>
        <time>2020-08-16T12:59:34.000Z</time>
      </trkpt>
      <trkpt lat="42.57646498270332813262939453125" lon="-0.10930093936622142791748046875">
        <ele>865.20001220703125</ele>
        <time>2020-08-16T12:59:35.000Z</time>
      </trkpt>
      <trkpt lat="42.57660697214305400848388671875" lon="-0.10950394906103610992431640625">
        <ele>864</ele>
        <time>2020-08-16T12:59:37.000Z</time>
      </trkpt>
      <trkpt lat="42.57667972706258296966552734375" lon="-0.1096046157181262969970703125">
        <ele>862.79998779296875</ele>
        <time>2020-08-16T12:59:38.000Z</time>
      </trkpt>
      <trkpt lat="42.57682691328227519989013671875" lon="-0.10980402119457721710205078125">
        <ele>861.20001220703125</ele>
        <time>2020-08-16T12:59:40.000Z</time>
      </trkpt>
      <trkpt lat="42.5769793801009654998779296875" lon="-0.110007785260677337646484375">
        <ele>859.4000244140625</ele>
        <time>2020-08-16T12:59:42.000Z</time>
      </trkpt>
      <trkpt lat="42.5770551525056362152099609375" lon="-0.1101113855838775634765625">
        <ele>858.20001220703125</ele>
        <time>2020-08-16T12:59:43.000Z</time>
      </trkpt>
      <trkpt lat="42.57720460183918476104736328125" lon="-0.1103073544800281524658203125">
        <ele>856.5999755859375</ele>
        <time>2020-08-16T12:59:45.000Z</time>
      </trkpt>
      <trkpt lat="42.57727081887423992156982421875" lon="-0.1104035787284374237060546875">
        <ele>855.79998779296875</ele>
        <time>2020-08-16T12:59:46.000Z</time>
      </trkpt>
      <trkpt lat="42.57733066566288471221923828125" lon="-0.1104961149394512176513671875">
        <ele>855</ele>
        <time>2020-08-16T12:59:47.000Z</time>
      </trkpt>
      <trkpt lat="42.57743124850094318389892578125" lon="-0.11066601611673831939697265625">
        <ele>854</ele>
        <time>2020-08-16T12:59:49.000Z</time>
      </trkpt>
      <trkpt lat="42.5774946995079517364501953125" lon="-0.1108307205140590667724609375">
        <ele>853</ele>
        <time>2020-08-16T12:59:51.000Z</time>
      </trkpt>
      <trkpt lat="42.5775164924561977386474609375" lon="-0.11091026477515697479248046875">
        <ele>852.5999755859375</ele>
        <time>2020-08-16T12:59:52.000Z</time>
      </trkpt>
      <trkpt lat="42.57754323072731494903564453125" lon="-0.11106583289802074432373046875">
        <ele>851.79998779296875</ele>
        <time>2020-08-16T12:59:54.000Z</time>
      </trkpt>
      <trkpt lat="42.5775624252855777740478515625" lon="-0.11122475378215312957763671875">
        <ele>851.4000244140625</ele>
        <time>2020-08-16T12:59:56.000Z</time>
      </trkpt>
      <trkpt lat="42.57757726125419139862060546875" lon="-0.11137939989566802978515625">
        <ele>850.20001220703125</ele>
        <time>2020-08-16T12:59:58.000Z</time>
      </trkpt>
      <trkpt lat="42.5776563026010990142822265625" lon="-0.11196001432836055755615234375">
        <ele>850</ele>
        <time>2020-08-16T13:00:06.000Z</time>
      </trkpt>
      <trkpt lat="42.57771405391395092010498046875" lon="-0.11246971786022186279296875">
        <ele>849.5999755859375</ele>
        <time>2020-08-16T13:00:14.000Z</time>
      </trkpt>
      <trkpt lat="42.57777071557939052581787109375" lon="-0.11286978609859943389892578125">
        <ele>850</ele>
        <time>2020-08-16T13:00:21.000Z</time>
      </trkpt>
      <trkpt lat="42.5778202526271343231201171875" lon="-0.1132333092391490936279296875">
        <ele>849.5999755859375</ele>
        <time>2020-08-16T13:00:28.000Z</time>
      </trkpt>
      <trkpt lat="42.577842883765697479248046875" lon="-0.11338795535266399383544921875">
        <ele>849.4000244140625</ele>
        <time>2020-08-16T13:00:32.000Z</time>
      </trkpt>
      <trkpt lat="42.5778604857623577117919921875" lon="-0.11345299892127513885498046875">
        <ele>849.4000244140625</ele>
        <time>2020-08-16T13:00:35.000Z</time>
      </trkpt>
      <trkpt lat="42.577859647572040557861328125" lon="-0.1134482212364673614501953125">
        <ele>849.4000244140625</ele>
        <time>2020-08-16T13:00:45.000Z</time>
      </trkpt>
      <trkpt lat="42.57785989902913570404052734375" lon="-0.11344847269356250762939453125">
        <ele>849.4000244140625</ele>
        <time>2020-08-16T13:00:59.000Z</time>
      </trkpt>
      <trkpt lat="42.577859647572040557861328125" lon="-0.11344830505549907684326171875">
        <ele>849.4000244140625</ele>
        <time>2020-08-16T13:01:17.000Z</time>
      </trkpt>
      <trkpt lat="42.57785956375300884246826171875" lon="-0.1134458743035793304443359375">
        <ele>849.4000244140625</ele>
        <time>2020-08-16T13:01:43.000Z</time>
      </trkpt>
      <trkpt lat="42.57785956375300884246826171875" lon="-0.11344579048454761505126953125">
        <ele>849.4000244140625</ele>
        <time>2020-08-16T13:01:44.000Z</time>
      </trkpt>
      <trkpt lat="42.5778591446578502655029296875" lon="-0.11344897560775279998779296875">
        <ele>849.5999755859375</ele>
        <time>2020-08-16T13:02:03.000Z</time>
      </trkpt>
      <trkpt lat="42.57785989902913570404052734375" lon="-0.1134576089680194854736328125">
        <ele>849.5999755859375</ele>
        <time>2020-08-16T13:02:31.000Z</time>
      </trkpt>
      <trkpt lat="42.57786258123815059661865234375" lon="-0.11343170888721942901611328125">
        <ele>849.5999755859375</ele>
        <time>2020-08-16T13:02:39.000Z</time>
      </trkpt>
      <trkpt lat="42.5778584741055965423583984375" lon="-0.113413520157337188720703125">
        <ele>849.5999755859375</ele>
        <time>2020-08-16T13:02:43.000Z</time>
      </trkpt>
      <trkpt lat="42.5778571330010890960693359375" lon="-0.11340580880641937255859375">
        <ele>849.5999755859375</ele>
        <time>2020-08-16T13:02:46.000Z</time>
      </trkpt>
      <trkpt lat="42.57785704918205738067626953125" lon="-0.11340388096868991851806640625">
        <ele>849.4000244140625</ele>
        <time>2020-08-16T13:02:53.000Z</time>
      </trkpt>
      <trkpt lat="42.57785604335367679595947265625" lon="-0.1134053058922290802001953125">
        <ele>849.4000244140625</ele>
        <time>2020-08-16T13:02:57.000Z</time>
      </trkpt>
      <trkpt lat="42.57827463559806346893310546875" lon="-0.1138421706855297088623046875">
        <ele>856</ele>
        <time>2020-08-16T14:27:02.000Z</time>
      </trkpt>
      <trkpt lat="42.5782752223312854766845703125" lon="-0.11384426616132259368896484375">
        <ele>856</ele>
        <time>2020-08-16T14:27:03.000Z</time>
      </trkpt>
      <trkpt lat="42.57826591841876506805419921875" lon="-0.11391802690923213958740234375">
        <ele>855.79998779296875</ele>
        <time>2020-08-16T14:27:09.000Z</time>
      </trkpt>
      <trkpt lat="42.5782272778451442718505859375" lon="-0.114100165665149688720703125">
        <ele>855.5999755859375</ele>
        <time>2020-08-16T14:27:15.000Z</time>
      </trkpt>
      <trkpt lat="42.57822702638804912567138671875" lon="-0.1141694001853466033935546875">
        <ele>855.4000244140625</ele>
        <time>2020-08-16T14:27:17.000Z</time>
      </trkpt>
      <trkpt lat="42.5782427005469799041748046875" lon="-0.114232264459133148193359375">
        <ele>855.4000244140625</ele>
        <time>2020-08-16T14:27:20.000Z</time>
      </trkpt>
      <trkpt lat="42.57831998169422149658203125" lon="-0.11432044208049774169921875">
        <ele>855.5999755859375</ele>
        <time>2020-08-16T14:27:26.000Z</time>
      </trkpt>
      <trkpt lat="42.57839952595531940460205078125" lon="-0.11440183036029338836669921875">
        <ele>856.4000244140625</ele>
        <time>2020-08-16T14:27:31.000Z</time>
      </trkpt>
      <trkpt lat="42.57844042964279651641845703125" lon="-0.11444742791354656219482421875">
        <ele>856.79998779296875</ele>
        <time>2020-08-16T14:27:34.000Z</time>
      </trkpt>
      <trkpt lat="42.578508071601390838623046875" lon="-0.11449101381003856658935546875">
        <ele>857.4000244140625</ele>
        <time>2020-08-16T14:27:38.000Z</time>
      </trkpt>
      <trkpt lat="42.578552998602390289306640625" lon="-0.1145247928798198699951171875">
        <ele>858</ele>
        <time>2020-08-16T14:27:41.000Z</time>
      </trkpt>
      <trkpt lat="42.5786426849663257598876953125" lon="-0.11457852087914943695068359375">
        <ele>858.79998779296875</ele>
        <time>2020-08-16T14:27:47.000Z</time>
      </trkpt>
      <trkpt lat="42.5786735303699970245361328125" lon="-0.1145921833813190460205078125">
        <ele>859</ele>
        <time>2020-08-16T14:27:49.000Z</time>
      </trkpt>
      <trkpt lat="42.57874234579503536224365234375" lon="-0.11464037932455539703369140625">
        <ele>859.79998779296875</ele>
        <time>2020-08-16T14:27:54.000Z</time>
      </trkpt>
      <trkpt lat="42.57875894196331501007080078125" lon="-0.11464901268482208251953125">
        <ele>859.79998779296875</ele>
        <time>2020-08-16T14:27:55.000Z</time>
      </trkpt>
      <trkpt lat="42.57886740379035472869873046875" lon="-0.1146941073238849639892578125">
        <ele>860.5999755859375</ele>
        <time>2020-08-16T14:28:02.000Z</time>
      </trkpt>
      <trkpt lat="42.5788824073970317840576171875" lon="-0.1147011481225490570068359375">
        <ele>861</ele>
        <time>2020-08-16T14:28:03.000Z</time>
      </trkpt>
      <trkpt lat="42.57897553034126758575439453125" lon="-0.11473911814391613006591796875">
        <ele>861.4000244140625</ele>
        <time>2020-08-16T14:28:09.000Z</time>
      </trkpt>
      <trkpt lat="42.57906689308583736419677734375" lon="-0.114790163934230804443359375">
        <ele>862</ele>
        <time>2020-08-16T14:28:15.000Z</time>
      </trkpt>
      <trkpt lat="42.57911064662039279937744140625" lon="-0.114810280501842498779296875">
        <ele>862.4000244140625</ele>
        <time>2020-08-16T14:28:18.000Z</time>
      </trkpt>
      <trkpt lat="42.57916563190519809722900390625" lon="-0.1148428022861480712890625">
        <ele>863</ele>
        <time>2020-08-16T14:28:22.000Z</time>
      </trkpt>
      <trkpt lat="42.5792069546878337860107421875" lon="-0.11485897935926914215087890625">
        <ele>863.5999755859375</ele>
        <time>2020-08-16T14:28:25.000Z</time>
      </trkpt>
      <trkpt lat="42.579299993813037872314453125" lon="-0.11492318473756313323974609375">
        <ele>864.5999755859375</ele>
        <time>2020-08-16T14:28:32.000Z</time>
      </trkpt>
      <trkpt lat="42.57931466214358806610107421875" lon="-0.11493206955492496490478515625">
        <ele>864.79998779296875</ele>
        <time>2020-08-16T14:28:33.000Z</time>
      </trkpt>
      <trkpt lat="42.57940669544041156768798828125" lon="-0.11498722247779369354248046875">
        <ele>865.20001220703125</ele>
        <time>2020-08-16T14:28:40.000Z</time>
      </trkpt>
      <trkpt lat="42.57943619973957538604736328125" lon="-0.11500214226543903350830078125">
        <ele>865.5999755859375</ele>
        <time>2020-08-16T14:28:42.000Z</time>
      </trkpt>
      <trkpt lat="42.57949747145175933837890625" lon="-0.1150404475629329681396484375">
        <ele>866.20001220703125</ele>
        <time>2020-08-16T14:28:46.000Z</time>
      </trkpt>
      <trkpt lat="42.57960031740367412567138671875" lon="-0.11507607065141201019287109375">
        <ele>866.79998779296875</ele>
        <time>2020-08-16T14:28:52.000Z</time>
      </trkpt>
      <trkpt lat="42.57961842231452465057373046875" lon="-0.11508327908813953399658203125">
        <ele>867</ele>
        <time>2020-08-16T14:28:53.000Z</time>
      </trkpt>
      <trkpt lat="42.57976091466844081878662109375" lon="-0.11514379642903804779052734375">
        <ele>868</ele>
        <time>2020-08-16T14:29:02.000Z</time>
      </trkpt>
      <trkpt lat="42.57987658493220806121826171875" lon="-0.11516910977661609649658203125">
        <ele>869</ele>
        <time>2020-08-16T14:29:09.000Z</time>
      </trkpt>
      <trkpt lat="42.5798932649195194244384765625" lon="-0.11517095379531383514404296875">
        <ele>869.20001220703125</ele>
        <time>2020-08-16T14:29:10.000Z</time>
      </trkpt>
      <trkpt lat="42.5799945183098316192626953125" lon="-0.11517464183270931243896484375">
        <ele>870</ele>
        <time>2020-08-16T14:29:17.000Z</time>
      </trkpt>
      <trkpt lat="42.58007154799997806549072265625" lon="-0.11514999903738498687744140625">
        <ele>871</ele>
        <time>2020-08-16T14:29:22.000Z</time>
      </trkpt>
      <trkpt lat="42.58010289631783962249755859375" lon="-0.11514044366776943206787109375">
        <ele>871.20001220703125</ele>
        <time>2020-08-16T14:29:24.000Z</time>
      </trkpt>
      <trkpt lat="42.58022795431315898895263671875" lon="-0.1150927506387233734130859375">
        <ele>872</ele>
        <time>2020-08-16T14:29:32.000Z</time>
      </trkpt>
      <trkpt lat="42.58024203591048717498779296875" lon="-0.11508847586810588836669921875">
        <ele>872.20001220703125</ele>
        <time>2020-08-16T14:29:33.000Z</time>
      </trkpt>
      <trkpt lat="42.58033993653953075408935546875" lon="-0.11505159549415111541748046875">
        <ele>873.20001220703125</ele>
        <time>2020-08-16T14:29:39.000Z</time>
      </trkpt>
      <trkpt lat="42.5803572870790958404541015625" lon="-0.1150466501712799072265625">
        <ele>873.4000244140625</ele>
        <time>2020-08-16T14:29:40.000Z</time>
      </trkpt>
      <trkpt lat="42.58047522045671939849853515625" lon="-0.1149891503155231475830078125">
        <ele>874.20001220703125</ele>
        <time>2020-08-16T14:29:47.000Z</time>
      </trkpt>
      <trkpt lat="42.58050975389778614044189453125" lon="-0.11497490108013153076171875">
        <ele>874.5999755859375</ele>
        <time>2020-08-16T14:29:49.000Z</time>
      </trkpt>
      <trkpt lat="42.58065978996455669403076171875" lon="-0.1149106957018375396728515625">
        <ele>875.20001220703125</ele>
        <time>2020-08-16T14:29:57.000Z</time>
      </trkpt>
      <trkpt lat="42.58075802586972713470458984375" lon="-0.11486082337796688079833984375">
        <ele>875.5999755859375</ele>
        <time>2020-08-16T14:30:02.000Z</time>
      </trkpt>
      <trkpt lat="42.580821476876735687255859375" lon="-0.114829726517200469970703125">
        <ele>875.5999755859375</ele>
        <time>2020-08-16T14:30:05.000Z</time>
      </trkpt>
      <trkpt lat="42.58096556179225444793701171875" lon="-0.1147983781993389129638671875">
        <ele>876.4000244140625</ele>
        <time>2020-08-16T14:30:12.000Z</time>
      </trkpt>
      <trkpt lat="42.581121213734149932861328125" lon="-0.11481120251119136810302734375">
        <ele>876.5999755859375</ele>
        <time>2020-08-16T14:30:19.000Z</time>
      </trkpt>
      <trkpt lat="42.5811425037682056427001953125" lon="-0.11481874622404575347900390625">
        <ele>876.5999755859375</ele>
        <time>2020-08-16T14:30:20.000Z</time>
      </trkpt>
      <trkpt lat="42.58128994144499301910400390625" lon="-0.11488697491586208343505859375">
        <ele>877</ele>
        <time>2020-08-16T14:30:26.000Z</time>
      </trkpt>
      <trkpt lat="42.581424303352832794189453125" lon="-0.11495989747345447540283203125">
        <ele>877</ele>
        <time>2020-08-16T14:30:32.000Z</time>
      </trkpt>
      <trkpt lat="42.5816041789948940277099609375" lon="-0.115055702626705169677734375">
        <ele>877</ele>
        <time>2020-08-16T14:30:39.000Z</time>
      </trkpt>
      <trkpt lat="42.58179151453077793121337890625" lon="-0.11518143117427825927734375">
        <ele>877.4000244140625</ele>
        <time>2020-08-16T14:30:46.000Z</time>
      </trkpt>
      <trkpt lat="42.5819711387157440185546875" lon="-0.1152744702994823455810546875">
        <ele>877.5999755859375</ele>
        <time>2020-08-16T14:30:54.000Z</time>
      </trkpt>
      <trkpt lat="42.5821929238736629486083984375" lon="-0.11531688272953033447265625">
        <ele>877.20001220703125</ele>
        <time>2020-08-16T14:31:02.000Z</time>
      </trkpt>
      <trkpt lat="42.58241244591772556304931640625" lon="-0.11533725075423717498779296875">
        <ele>877.4000244140625</ele>
        <time>2020-08-16T14:31:09.000Z</time>
      </trkpt>
      <trkpt lat="42.5826041400432586669921875" lon="-0.11537932790815830230712890625">
        <ele>877.4000244140625</ele>
        <time>2020-08-16T14:31:15.000Z</time>
      </trkpt>
      <trkpt lat="42.58280036039650440216064453125" lon="-0.11542417109012603759765625">
        <ele>878</ele>
        <time>2020-08-16T14:31:21.000Z</time>
      </trkpt>
      <trkpt lat="42.58286607451736927032470703125" lon="-0.1154343970119953155517578125">
        <ele>878.20001220703125</ele>
        <time>2020-08-16T14:31:23.000Z</time>
      </trkpt>
      <trkpt lat="42.58307662792503833770751953125" lon="-0.11548007838428020477294921875">
        <ele>879.20001220703125</ele>
        <time>2020-08-16T14:31:30.000Z</time>
      </trkpt>
      <trkpt lat="42.583104036748409271240234375" lon="-0.11548812501132488250732421875">
        <ele>879.4000244140625</ele>
        <time>2020-08-16T14:31:31.000Z</time>
      </trkpt>
      <trkpt lat="42.5832188688218593597412109375" lon="-0.11551980860531330108642578125">
        <ele>879.79998779296875</ele>
        <time>2020-08-16T14:31:35.000Z</time>
      </trkpt>
      <trkpt lat="42.5833712518215179443359375" lon="-0.115555934607982635498046875">
        <ele>880.4000244140625</ele>
        <time>2020-08-16T14:31:40.000Z</time>
      </trkpt>
      <trkpt lat="42.58345917798578739166259765625" lon="-0.1155758835375308990478515625">
        <ele>880.79998779296875</ele>
        <time>2020-08-16T14:31:43.000Z</time>
      </trkpt>
      <trkpt lat="42.583573423326015472412109375" lon="-0.11560647748410701751708984375">
        <ele>881.4000244140625</ele>
        <time>2020-08-16T14:31:47.000Z</time>
      </trkpt>
      <trkpt lat="42.583681382238864898681640625" lon="-0.11562240310013294219970703125">
        <ele>882</ele>
        <time>2020-08-16T14:31:51.000Z</time>
      </trkpt>
      <trkpt lat="42.58370778523385524749755859375" lon="-0.11562894098460674285888671875">
        <ele>882.4000244140625</ele>
        <time>2020-08-16T14:31:52.000Z</time>
      </trkpt>
      <trkpt lat="42.58386217989027500152587890625" lon="-0.11565593071281909942626953125">
        <ele>883.4000244140625</ele>
        <time>2020-08-16T14:31:58.000Z</time>
      </trkpt>
      <trkpt lat="42.58393527008593082427978515625" lon="-0.11567872948944568634033203125">
        <ele>883.5999755859375</ele>
        <time>2020-08-16T14:32:01.000Z</time>
      </trkpt>
      <trkpt lat="42.58406250737607479095458984375" lon="-0.11571024544537067413330078125">
        <ele>884.79998779296875</ele>
        <time>2020-08-16T14:32:06.000Z</time>
      </trkpt>
      <trkpt lat="42.58424523286521434783935546875" lon="-0.11573438532650470733642578125">
        <ele>885.4000244140625</ele>
        <time>2020-08-16T14:32:13.000Z</time>
      </trkpt>
      <trkpt lat="42.58440189063549041748046875" lon="-0.1157493889331817626953125">
        <ele>885.79998779296875</ele>
        <time>2020-08-16T14:32:19.000Z</time>
      </trkpt>
      <trkpt lat="42.58448126725852489471435546875" lon="-0.11576103977859020233154296875">
        <ele>886</ele>
        <time>2020-08-16T14:32:22.000Z</time>
      </trkpt>
      <trkpt lat="42.584616132080554962158203125" lon="-0.11577260680496692657470703125">
        <ele>886.79998779296875</ele>
        <time>2020-08-16T14:32:27.000Z</time>
      </trkpt>
      <trkpt lat="42.58464471437036991119384765625" lon="-0.1157780550420284271240234375">
        <ele>887</ele>
        <time>2020-08-16T14:32:28.000Z</time>
      </trkpt>
      <trkpt lat="42.5848137773573398590087890625" lon="-0.115824155509471893310546875">
        <ele>887.79998779296875</ele>
        <time>2020-08-16T14:32:35.000Z</time>
      </trkpt>
      <trkpt lat="42.58491377346217632293701171875" lon="-0.115874111652374267578125">
        <ele>888</ele>
        <time>2020-08-16T14:32:40.000Z</time>
      </trkpt>
      <trkpt lat="42.5850798189640045166015625" lon="-0.11593244969844818115234375">
        <ele>888.20001220703125</ele>
        <time>2020-08-16T14:32:48.000Z</time>
      </trkpt>
      <trkpt lat="42.58525776676833629608154296875" lon="-0.116026662290096282958984375">
        <ele>888.5999755859375</ele>
        <time>2020-08-16T14:32:54.000Z</time>
      </trkpt>
      <trkpt lat="42.58550805039703845977783203125" lon="-0.11614032089710235595703125">
        <ele>888.5999755859375</ele>
        <time>2020-08-16T14:33:01.000Z</time>
      </trkpt>
      <trkpt lat="42.5857310928404331207275390625" lon="-0.11623109690845012664794921875">
        <ele>888.4000244140625</ele>
        <time>2020-08-16T14:33:07.000Z</time>
      </trkpt>
      <trkpt lat="42.58599369786679744720458984375" lon="-0.116338469088077545166015625">
        <ele>888.79998779296875</ele>
        <time>2020-08-16T14:33:15.000Z</time>
      </trkpt>
      <trkpt lat="42.58605480194091796875" lon="-0.1163698174059391021728515625">
        <ele>889</ele>
        <time>2020-08-16T14:33:17.000Z</time>
      </trkpt>
      <trkpt lat="42.58617709390819072723388671875" lon="-0.11643528006970882415771484375">
        <ele>889.5999755859375</ele>
        <time>2020-08-16T14:33:21.000Z</time>
      </trkpt>
      <trkpt lat="42.58644011802971363067626953125" lon="-0.116541646420955657958984375">
        <ele>890</ele>
        <time>2020-08-16T14:33:29.000Z</time>
      </trkpt>
      <trkpt lat="42.58647121489048004150390625" lon="-0.11655346490442752838134765625">
        <ele>890.20001220703125</ele>
        <time>2020-08-16T14:33:30.000Z</time>
      </trkpt>
      <trkpt lat="42.58656509220600128173828125" lon="-0.1165971346199512481689453125">
        <ele>890</ele>
        <time>2020-08-16T14:33:33.000Z</time>
      </trkpt>
      <trkpt lat="42.5868071615695953369140625" lon="-0.11669444851577281951904296875">
        <ele>890.20001220703125</ele>
        <time>2020-08-16T14:33:40.000Z</time>
      </trkpt>
      <trkpt lat="42.587030790746212005615234375" lon="-0.1167879067361354827880859375">
        <ele>890.5999755859375</ele>
        <time>2020-08-16T14:33:46.000Z</time>
      </trkpt>
      <trkpt lat="42.5871687568724155426025390625" lon="-0.11685068719089031219482421875">
        <ele>891.20001220703125</ele>
        <time>2020-08-16T14:33:50.000Z</time>
      </trkpt>
      <trkpt lat="42.587270848453044891357421875" lon="-0.1169042475521564483642578125">
        <ele>891.4000244140625</ele>
        <time>2020-08-16T14:33:53.000Z</time>
      </trkpt>
      <trkpt lat="42.58748986758291721343994140625" lon="-0.1170115359127521514892578125">
        <ele>891.20001220703125</ele>
        <time>2020-08-16T14:33:59.000Z</time>
      </trkpt>
      <trkpt lat="42.58770444430410861968994140625" lon="-0.11712469160556793212890625">
        <ele>891.79998779296875</ele>
        <time>2020-08-16T14:34:05.000Z</time>
      </trkpt>
      <trkpt lat="42.58792790584266185760498046875" lon="-0.1172090135514736175537109375">
        <ele>892.20001220703125</ele>
        <time>2020-08-16T14:34:11.000Z</time>
      </trkpt>
      <trkpt lat="42.5880783610045909881591796875" lon="-0.1172750629484653472900390625">
        <ele>892.4000244140625</ele>
        <time>2020-08-16T14:34:15.000Z</time>
      </trkpt>
      <trkpt lat="42.58818841539323329925537109375" lon="-0.11731621809303760528564453125">
        <ele>892.5999755859375</ele>
        <time>2020-08-16T14:34:18.000Z</time>
      </trkpt>
      <trkpt lat="42.588400058448314666748046875" lon="-0.117409341037273406982421875">
        <ele>892.4000244140625</ele>
        <time>2020-08-16T14:34:24.000Z</time>
      </trkpt>
      <trkpt lat="42.58856995962560176849365234375" lon="-0.11748804710805416107177734375">
        <ele>892.79998779296875</ele>
        <time>2020-08-16T14:34:30.000Z</time>
      </trkpt>
      <trkpt lat="42.58868747390806674957275390625" lon="-0.11755024082958698272705078125">
        <ele>893.4000244140625</ele>
        <time>2020-08-16T14:34:36.000Z</time>
      </trkpt>
      <trkpt lat="42.58878755383193492889404296875" lon="-0.1175875402987003326416015625">
        <ele>893.20001220703125</ele>
        <time>2020-08-16T14:34:41.000Z</time>
      </trkpt>
      <trkpt lat="42.58895955048501491546630859375" lon="-0.1176499016582965850830078125">
        <ele>893.5999755859375</ele>
        <time>2020-08-16T14:34:48.000Z</time>
      </trkpt>
      <trkpt lat="42.5891442038118839263916015625" lon="-0.11775341816246509552001953125">
        <ele>894</ele>
        <time>2020-08-16T14:34:54.000Z</time>
      </trkpt>
      <trkpt lat="42.5893493928015232086181640625" lon="-0.11785752139985561370849609375">
        <ele>894.79998779296875</ele>
        <time>2020-08-16T14:35:00.000Z</time>
      </trkpt>
      <trkpt lat="42.589617110788822174072265625" lon="-0.11797034181654453277587890625">
        <ele>895.5999755859375</ele>
        <time>2020-08-16T14:35:08.000Z</time>
      </trkpt>
      <trkpt lat="42.58964837528765201568603515625" lon="-0.1179850101470947265625">
        <ele>895.79998779296875</ele>
        <time>2020-08-16T14:35:09.000Z</time>
      </trkpt>
      <trkpt lat="42.58988164365291595458984375" lon="-0.11808358132839202880859375">
        <ele>896.20001220703125</ele>
        <time>2020-08-16T14:35:16.000Z</time>
      </trkpt>
      <trkpt lat="42.5899475254118442535400390625" lon="-0.11810931377112865447998046875">
        <ele>896.79998779296875</ele>
        <time>2020-08-16T14:35:18.000Z</time>
      </trkpt>
      <trkpt lat="42.5901062786579132080078125" lon="-0.1181511394679546356201171875">
        <ele>897.79998779296875</ele>
        <time>2020-08-16T14:35:23.000Z</time>
      </trkpt>
      <trkpt lat="42.59028531610965728759765625" lon="-0.11820335872471332550048828125">
        <ele>898.4000244140625</ele>
        <time>2020-08-16T14:35:29.000Z</time>
      </trkpt>
      <trkpt lat="42.59043878875672817230224609375" lon="-0.11824677698314189910888671875">
        <ele>898.79998779296875</ele>
        <time>2020-08-16T14:35:34.000Z</time>
      </trkpt>
      <trkpt lat="42.59052780456840991973876953125" lon="-0.11827644892036914825439453125">
        <ele>899.20001220703125</ele>
        <time>2020-08-16T14:35:37.000Z</time>
      </trkpt>
      <trkpt lat="42.59066124446690082550048828125" lon="-0.1183217950165271759033203125">
        <ele>900</ele>
        <time>2020-08-16T14:35:42.000Z</time>
      </trkpt>
      <trkpt lat="42.59080239571630954742431640625" lon="-0.118391029536724090576171875">
        <ele>901</ele>
        <time>2020-08-16T14:35:48.000Z</time>
      </trkpt>
      <trkpt lat="42.5908232666552066802978515625" lon="-0.11840402148663997650146484375">
        <ele>901.20001220703125</ele>
        <time>2020-08-16T14:35:49.000Z</time>
      </trkpt>
      <trkpt lat="42.59094170294702053070068359375" lon="-0.11849085800349712371826171875">
        <ele>902.20001220703125</ele>
        <time>2020-08-16T14:35:55.000Z</time>
      </trkpt>
      <trkpt lat="42.5909811817109584808349609375" lon="-0.11851851828396320343017578125">
        <ele>902.20001220703125</ele>
        <time>2020-08-16T14:35:57.000Z</time>
      </trkpt>
      <trkpt lat="42.59106709621846675872802734375" lon="-0.118571408092975616455078125">
        <ele>903.4000244140625</ele>
        <time>2020-08-16T14:36:01.000Z</time>
      </trkpt>
      <trkpt lat="42.59111202321946620941162109375" lon="-0.11859496124088764190673828125">
        <ele>904</ele>
        <time>2020-08-16T14:36:03.000Z</time>
      </trkpt>
      <trkpt lat="42.5912068225443363189697265625" lon="-0.11861323378980159759521484375">
        <ele>904.20001220703125</ele>
        <time>2020-08-16T14:36:07.000Z</time>
      </trkpt>
      <trkpt lat="42.591302208602428436279296875" lon="-0.1186175085604190826416015625">
        <ele>905.20001220703125</ele>
        <time>2020-08-16T14:36:11.000Z</time>
      </trkpt>
      <trkpt lat="42.5913238339126110076904296875" lon="-0.1186148263514041900634765625">
        <ele>905.4000244140625</ele>
        <time>2020-08-16T14:36:12.000Z</time>
      </trkpt>
      <trkpt lat="42.59145987220108509063720703125" lon="-0.1186097972095012664794921875">
        <ele>906.20001220703125</ele>
        <time>2020-08-16T14:36:18.000Z</time>
      </trkpt>
      <trkpt lat="42.59147864766418933868408203125" lon="-0.1186114735901355743408203125">
        <ele>906.4000244140625</ele>
        <time>2020-08-16T14:36:19.000Z</time>
      </trkpt>
      <trkpt lat="42.59158157743513584136962890625" lon="-0.118608288466930389404296875">
        <ele>906.79998779296875</ele>
        <time>2020-08-16T14:36:24.000Z</time>
      </trkpt>
      <trkpt lat="42.591640166938304901123046875" lon="-0.11859898455440998077392578125">
        <ele>907.5999755859375</ele>
        <time>2020-08-16T14:36:27.000Z</time>
      </trkpt>
      <trkpt lat="42.5917546637356281280517578125" lon="-0.1185898482799530029296875">
        <ele>908.20001220703125</ele>
        <time>2020-08-16T14:36:32.000Z</time>
      </trkpt>
      <trkpt lat="42.59182088077068328857421875" lon="-0.118580125272274017333984375">
        <ele>908.79998779296875</ele>
        <time>2020-08-16T14:36:35.000Z</time>
      </trkpt>
      <trkpt lat="42.5918813981115818023681640625" lon="-0.11857635341584682464599609375">
        <ele>909</ele>
        <time>2020-08-16T14:36:38.000Z</time>
      </trkpt>
      <trkpt lat="42.59207108058035373687744140625" lon="-0.1185521297156810760498046875">
        <ele>910</ele>
        <time>2020-08-16T14:36:46.000Z</time>
      </trkpt>
      <trkpt lat="42.59209337644279003143310546875" lon="-0.11854684911668300628662109375">
        <ele>910.20001220703125</ele>
        <time>2020-08-16T14:36:47.000Z</time>
      </trkpt>
      <trkpt lat="42.59222924709320068359375" lon="-0.1185296662151813507080078125">
        <ele>911.4000244140625</ele>
        <time>2020-08-16T14:36:53.000Z</time>
      </trkpt>
      <trkpt lat="42.59225070476531982421875" lon="-0.11852539144456386566162109375">
        <ele>911.5999755859375</ele>
        <time>2020-08-16T14:36:54.000Z</time>
      </trkpt>
      <trkpt lat="42.592414319515228271484375" lon="-0.1184954680502414703369140625">
        <ele>912.5999755859375</ele>
        <time>2020-08-16T14:37:01.000Z</time>
      </trkpt>
      <trkpt lat="42.59253594093024730682373046875" lon="-0.118464790284633636474609375">
        <ele>913.5999755859375</ele>
        <time>2020-08-16T14:37:06.000Z</time>
      </trkpt>
      <trkpt lat="42.59255857206881046295166015625" lon="-0.1184602640569210052490234375">
        <ele>913.79998779296875</ele>
        <time>2020-08-16T14:37:07.000Z</time>
      </trkpt>
      <trkpt lat="42.59267910383641719818115234375" lon="-0.11842497624456882476806640625">
        <ele>914.5999755859375</ele>
        <time>2020-08-16T14:37:12.000Z</time>
      </trkpt>
      <trkpt lat="42.59270123206079006195068359375" lon="-0.11842145584523677825927734375">
        <ele>914.79998779296875</ele>
        <time>2020-08-16T14:37:13.000Z</time>
      </trkpt>
      <trkpt lat="42.5928325764834880828857421875" lon="-0.1183744333684444427490234375">
        <ele>915.5999755859375</ele>
        <time>2020-08-16T14:37:19.000Z</time>
      </trkpt>
      <trkpt lat="42.59287607856094837188720703125" lon="-0.1183610223233699798583984375">
        <ele>916</ele>
        <time>2020-08-16T14:37:21.000Z</time>
      </trkpt>
      <trkpt lat="42.59299225173890590667724609375" lon="-0.118330679833889007568359375">
        <ele>916.4000244140625</ele>
        <time>2020-08-16T14:37:26.000Z</time>
      </trkpt>
      <trkpt lat="42.5931038148701190948486328125" lon="-0.11832925491034984588623046875">
        <ele>916.5999755859375</ele>
        <time>2020-08-16T14:37:31.000Z</time>
      </trkpt>
      <trkpt lat="42.593150921165943145751953125" lon="-0.11833327822387218475341796875">
        <ele>917</ele>
        <time>2020-08-16T14:37:33.000Z</time>
      </trkpt>
      <trkpt lat="42.59328939020633697509765625" lon="-0.11836127378046512603759765625">
        <ele>917.79998779296875</ele>
        <time>2020-08-16T14:37:39.000Z</time>
      </trkpt>
      <trkpt lat="42.59331143461167812347412109375" lon="-0.11836546473205089569091796875">
        <ele>918</ele>
        <time>2020-08-16T14:37:40.000Z</time>
      </trkpt>
      <trkpt lat="42.59349583648145198822021484375" lon="-0.1184062846004962921142578125">
        <ele>919</ele>
        <time>2020-08-16T14:37:48.000Z</time>
      </trkpt>
      <trkpt lat="42.59351897053420543670654296875" lon="-0.11841081082820892333984375">
        <ele>919.20001220703125</ele>
        <time>2020-08-16T14:37:49.000Z</time>
      </trkpt>
      <trkpt lat="42.59365643374621868133544921875" lon="-0.11841190047562122344970703125">
        <ele>920.4000244140625</ele>
        <time>2020-08-16T14:37:55.000Z</time>
      </trkpt>
      <trkpt lat="42.5936972536146640777587890625" lon="-0.118382312357425689697265625">
        <ele>920.79998779296875</ele>
        <time>2020-08-16T14:37:57.000Z</time>
      </trkpt>
      <trkpt lat="42.593733631074428558349609375" lon="-0.11834065429866313934326171875">
        <ele>921.4000244140625</ele>
        <time>2020-08-16T14:37:59.000Z</time>
      </trkpt>
      <trkpt lat="42.593802027404308319091796875" lon="-0.11823621578514575958251953125">
        <ele>922.5999755859375</ele>
        <time>2020-08-16T14:38:03.000Z</time>
      </trkpt>
      <trkpt lat="42.593836225569248199462890625" lon="-0.11818625964224338531494140625">
        <ele>923</ele>
        <time>2020-08-16T14:38:05.000Z</time>
      </trkpt>
      <trkpt lat="42.59393270127475261688232421875" lon="-0.118097998201847076416015625">
        <ele>923.5999755859375</ele>
        <time>2020-08-16T14:38:10.000Z</time>
      </trkpt>
      <trkpt lat="42.593953572213649749755859375" lon="-0.11808626353740692138671875">
        <ele>923.5999755859375</ele>
        <time>2020-08-16T14:38:11.000Z</time>
      </trkpt>
      <trkpt lat="42.59409002959728240966796875" lon="-0.11804376728832721710205078125">
        <ele>924.5999755859375</ele>
        <time>2020-08-16T14:38:17.000Z</time>
      </trkpt>
      <trkpt lat="42.5941133312880992889404296875" lon="-0.11804024688899517059326171875">
        <ele>924.79998779296875</ele>
        <time>2020-08-16T14:38:18.000Z</time>
      </trkpt>
      <trkpt lat="42.594275437295436859130859375" lon="-0.118021555244922637939453125">
        <ele>925.79998779296875</ele>
        <time>2020-08-16T14:38:25.000Z</time>
      </trkpt>
      <trkpt lat="42.59429899044334888458251953125" lon="-0.11801996268332004547119140625">
        <ele>925.79998779296875</ele>
        <time>2020-08-16T14:38:26.000Z</time>
      </trkpt>
      <trkpt lat="42.59443963877856731414794921875" lon="-0.11799766682088375091552734375">
        <ele>926.4000244140625</ele>
        <time>2020-08-16T14:38:32.000Z</time>
      </trkpt>
      <trkpt lat="42.59457760490477085113525390625" lon="-0.1179714314639568328857421875">
        <ele>926.5999755859375</ele>
        <time>2020-08-16T14:38:38.000Z</time>
      </trkpt>
      <trkpt lat="42.59471230208873748779296875" lon="-0.11794821359217166900634765625">
        <ele>927</ele>
        <time>2020-08-16T14:38:43.000Z</time>
      </trkpt>
      <trkpt lat="42.59476728737354278564453125" lon="-0.11793782003223896026611328125">
        <ele>927.5999755859375</ele>
        <time>2020-08-16T14:38:45.000Z</time>
      </trkpt>
      <trkpt lat="42.59492897428572177886962890625" lon="-0.11789792217314243316650390625">
        <ele>927</ele>
        <time>2020-08-16T14:38:51.000Z</time>
      </trkpt>
      <trkpt lat="42.5950925052165985107421875" lon="-0.117874704301357269287109375">
        <ele>927.4000244140625</ele>
        <time>2020-08-16T14:38:57.000Z</time>
      </trkpt>
      <trkpt lat="42.59521060623228549957275390625" lon="-0.117939747869968414306640625">
        <ele>927.5999755859375</ele>
        <time>2020-08-16T14:39:03.000Z</time>
      </trkpt>
      <trkpt lat="42.5953287072479724884033203125" lon="-0.11810512281954288482666015625">
        <ele>927.20001220703125</ele>
        <time>2020-08-16T14:39:10.000Z</time>
      </trkpt>
      <trkpt lat="42.595473043620586395263671875" lon="-0.11830612085759639739990234375">
        <ele>926.20001220703125</ele>
        <time>2020-08-16T14:39:15.000Z</time>
      </trkpt>
      <trkpt lat="42.5955080799758434295654296875" lon="-0.118356160819530487060546875">
        <ele>925.79998779296875</ele>
        <time>2020-08-16T14:39:16.000Z</time>
      </trkpt>
      <trkpt lat="42.59572760201990604400634765625" lon="-0.11863703839480876922607421875">
        <ele>925.20001220703125</ele>
        <time>2020-08-16T14:39:21.000Z</time>
      </trkpt>
      <trkpt lat="42.59585534222424030303955078125" lon="-0.11871817521750926971435546875">
        <ele>924.79998779296875</ele>
        <time>2020-08-16T14:39:23.000Z</time>
      </trkpt>
      <trkpt lat="42.5959990918636322021484375" lon="-0.118779949843883514404296875">
        <ele>924</ele>
        <time>2020-08-16T14:39:25.000Z</time>
      </trkpt>
      <trkpt lat="42.59607042185962200164794921875" lon="-0.11880920268595218658447265625">
        <ele>923.79998779296875</ele>
        <time>2020-08-16T14:39:26.000Z</time>
      </trkpt>
      <trkpt lat="42.59614049457013607025146484375" lon="-0.11882998980581760406494140625">
        <ele>923.5999755859375</ele>
        <time>2020-08-16T14:39:27.000Z</time>
      </trkpt>
      <trkpt lat="42.5962785445153713226318359375" lon="-0.118816830217838287353515625">
        <ele>922.79998779296875</ele>
        <time>2020-08-16T14:39:29.000Z</time>
      </trkpt>
      <trkpt lat="42.59634300135076045989990234375" lon="-0.11877299286425113677978515625">
        <ele>922.4000244140625</ele>
        <time>2020-08-16T14:39:30.000Z</time>
      </trkpt>
      <trkpt lat="42.5964599289000034332275390625" lon="-0.118646509945392608642578125">
        <ele>921.4000244140625</ele>
        <time>2020-08-16T14:39:32.000Z</time>
      </trkpt>
      <trkpt lat="42.59651885367929935455322265625" lon="-0.11858037672936916351318359375">
        <ele>921</ele>
        <time>2020-08-16T14:39:33.000Z</time>
      </trkpt>
      <trkpt lat="42.5968820415437221527099609375" lon="-0.11817611753940582275390625">
        <ele>919.79998779296875</ele>
        <time>2020-08-16T14:39:39.000Z</time>
      </trkpt>
      <trkpt lat="42.597003914415836334228515625" lon="-0.118036307394504547119140625">
        <ele>919.20001220703125</ele>
        <time>2020-08-16T14:39:41.000Z</time>
      </trkpt>
      <trkpt lat="42.5971257872879505157470703125" lon="-0.11789716780185699462890625">
        <ele>918.79998779296875</ele>
        <time>2020-08-16T14:39:43.000Z</time>
      </trkpt>
      <trkpt lat="42.59718689136207103729248046875" lon="-0.1178322918713092803955078125">
        <ele>918.4000244140625</ele>
        <time>2020-08-16T14:39:44.000Z</time>
      </trkpt>
      <trkpt lat="42.59732167236506938934326171875" lon="-0.1177296973764896392822265625">
        <ele>917.79998779296875</ele>
        <time>2020-08-16T14:39:46.000Z</time>
      </trkpt>
      <trkpt lat="42.59739493019878864288330078125" lon="-0.1176954992115497589111328125">
        <ele>917.4000244140625</ele>
        <time>2020-08-16T14:39:47.000Z</time>
      </trkpt>
      <trkpt lat="42.59747103787958621978759765625" lon="-0.1176686771214008331298828125">
        <ele>917.4000244140625</ele>
        <time>2020-08-16T14:39:48.000Z</time>
      </trkpt>
      <trkpt lat="42.59770824573934078216552734375" lon="-0.11759533546864986419677734375">
        <ele>916.5999755859375</ele>
        <time>2020-08-16T14:39:51.000Z</time>
      </trkpt>
      <trkpt lat="42.59778971783816814422607421875" lon="-0.11757052503526210784912109375">
        <ele>916.20001220703125</ele>
        <time>2020-08-16T14:39:52.000Z</time>
      </trkpt>
      <trkpt lat="42.5979509018361568450927734375" lon="-0.11752526275813579559326171875">
        <ele>915</ele>
        <time>2020-08-16T14:39:54.000Z</time>
      </trkpt>
      <trkpt lat="42.598193474113941192626953125" lon="-0.117472708225250244140625">
        <ele>914.20001220703125</ele>
        <time>2020-08-16T14:39:57.000Z</time>
      </trkpt>
      <trkpt lat="42.59827100671827793121337890625" lon="-0.11747312732040882110595703125">
        <ele>914</ele>
        <time>2020-08-16T14:39:58.000Z</time>
      </trkpt>
      <trkpt lat="42.59848080575466156005859375" lon="-0.11759919114410877227783203125">
        <ele>913.4000244140625</ele>
        <time>2020-08-16T14:40:01.000Z</time>
      </trkpt>
      <trkpt lat="42.59861399419605731964111328125" lon="-0.11774302460253238677978515625">
        <ele>912.5999755859375</ele>
        <time>2020-08-16T14:40:03.000Z</time>
      </trkpt>
      <trkpt lat="42.59883024729788303375244140625" lon="-0.117979981005191802978515625">
        <ele>911</ele>
        <time>2020-08-16T14:40:06.000Z</time>
      </trkpt>
      <trkpt lat="42.59898279793560504913330078125" lon="-0.11815021745860576629638671875">
        <ele>909.79998779296875</ele>
        <time>2020-08-16T14:40:08.000Z</time>
      </trkpt>
      <trkpt lat="42.5992249511182308197021484375" lon="-0.11841910891234874725341796875">
        <ele>908.5999755859375</ele>
        <time>2020-08-16T14:40:11.000Z</time>
      </trkpt>
      <trkpt lat="42.5993121229112148284912109375" lon="-0.11850795708596706390380859375">
        <ele>907.79998779296875</ele>
        <time>2020-08-16T14:40:12.000Z</time>
      </trkpt>
      <trkpt lat="42.59940289892256259918212890625" lon="-0.11859529651701450347900390625">
        <ele>906.79998779296875</ele>
        <time>2020-08-16T14:40:13.000Z</time>
      </trkpt>
      <trkpt lat="42.59959082119166851043701171875" lon="-0.11876494623720645904541015625">
        <ele>905.4000244140625</ele>
        <time>2020-08-16T14:40:15.000Z</time>
      </trkpt>
      <trkpt lat="42.59977941401302814483642578125" lon="-0.1189199276268482208251953125">
        <ele>904</ele>
        <time>2020-08-16T14:40:17.000Z</time>
      </trkpt>
      <trkpt lat="42.59987195022404193878173828125" lon="-0.1189916767179965972900390625">
        <ele>903.5999755859375</ele>
        <time>2020-08-16T14:40:18.000Z</time>
      </trkpt>
      <trkpt lat="42.59996482171118259429931640625" lon="-0.11906133033335208892822265625">
        <ele>903</ele>
        <time>2020-08-16T14:40:19.000Z</time>
      </trkpt>
      <trkpt lat="42.600149475038051605224609375" lon="-0.11919342912733554840087890625">
        <ele>901.20001220703125</ele>
        <time>2020-08-16T14:40:21.000Z</time>
      </trkpt>
      <trkpt lat="42.6003308594226837158203125" lon="-0.1193262822926044464111328125">
        <ele>900</ele>
        <time>2020-08-16T14:40:23.000Z</time>
      </trkpt>
      <trkpt lat="42.60050327517092227935791015625" lon="-0.11946550570428371429443359375">
        <ele>898.79998779296875</ele>
        <time>2020-08-16T14:40:25.000Z</time>
      </trkpt>
      <trkpt lat="42.600580640137195587158203125" lon="-0.11954211629927158355712890625">
        <ele>898.20001220703125</ele>
        <time>2020-08-16T14:40:26.000Z</time>
      </trkpt>
      <trkpt lat="42.60064995847642421722412109375" lon="-0.11962878517806529998779296875">
        <ele>897.5999755859375</ele>
        <time>2020-08-16T14:40:27.000Z</time>
      </trkpt>
      <trkpt lat="42.60071148164570331573486328125" lon="-0.1197276078164577484130859375">
        <ele>896.79998779296875</ele>
        <time>2020-08-16T14:40:28.000Z</time>
      </trkpt>
      <trkpt lat="42.6007682271301746368408203125" lon="-0.11983414180576801300048828125">
        <ele>896.20001220703125</ele>
        <time>2020-08-16T14:40:29.000Z</time>
      </trkpt>
      <trkpt lat="42.600875683128833770751953125" lon="-0.1200565136969089508056640625">
        <ele>895</ele>
        <time>2020-08-16T14:40:31.000Z</time>
      </trkpt>
      <trkpt lat="42.60098339058458805084228515625" lon="-0.1202694140374660491943359375">
        <ele>893.5999755859375</ele>
        <time>2020-08-16T14:40:33.000Z</time>
      </trkpt>
      <trkpt lat="42.6010416448116302490234375" lon="-0.12036505155265331268310546875">
        <ele>893</ele>
        <time>2020-08-16T14:40:34.000Z</time>
      </trkpt>
      <trkpt lat="42.601105011999607086181640625" lon="-0.12044535018503665924072265625">
        <ele>892.4000244140625</ele>
        <time>2020-08-16T14:40:35.000Z</time>
      </trkpt>
      <trkpt lat="42.601254545152187347412109375" lon="-0.12053017504513263702392578125">
        <ele>892</ele>
        <time>2020-08-16T14:40:37.000Z</time>
      </trkpt>
      <trkpt lat="42.6014109514653682708740234375" lon="-0.1205507107079029083251953125">
        <ele>891</ele>
        <time>2020-08-16T14:40:39.000Z</time>
      </trkpt>
      <trkpt lat="42.60156425647437572479248046875" lon="-0.12054610066115856170654296875">
        <ele>890.5999755859375</ele>
        <time>2020-08-16T14:40:41.000Z</time>
      </trkpt>
      <trkpt lat="42.60171278379857540130615234375" lon="-0.1205175183713436126708984375">
        <ele>890</ele>
        <time>2020-08-16T14:40:43.000Z</time>
      </trkpt>
      <trkpt lat="42.6020587049424648284912109375" lon="-0.12043545953929424285888671875">
        <ele>889.79998779296875</ele>
        <time>2020-08-16T14:40:48.000Z</time>
      </trkpt>
      <trkpt lat="42.60227680206298828125" lon="-0.1203887723386287689208984375">
        <ele>889.79998779296875</ele>
        <time>2020-08-16T14:40:52.000Z</time>
      </trkpt>
      <trkpt lat="42.602412588894367218017578125" lon="-0.12039019726216793060302734375">
        <ele>889.79998779296875</ele>
        <time>2020-08-16T14:40:55.000Z</time>
      </trkpt>
      <trkpt lat="42.6025347970426082611083984375" lon="-0.12043763883411884307861328125">
        <ele>889.5999755859375</ele>
        <time>2020-08-16T14:40:58.000Z</time>
      </trkpt>
      <trkpt lat="42.6026984117925167083740234375" lon="-0.12050268240272998809814453125">
        <ele>889</ele>
        <time>2020-08-16T14:41:02.000Z</time>
      </trkpt>
      <trkpt lat="42.60284450836479663848876953125" lon="-0.1205559074878692626953125">
        <ele>888.5999755859375</ele>
        <time>2020-08-16T14:41:06.000Z</time>
      </trkpt>
      <trkpt lat="42.6028653793036937713623046875" lon="-0.12059119530022144317626953125">
        <ele>888.5999755859375</ele>
        <time>2020-08-16T14:41:08.000Z</time>
      </trkpt>
      <trkpt lat="42.6028452627360820770263671875" lon="-0.12062824331223964691162109375">
        <ele>888.5999755859375</ele>
        <time>2020-08-16T14:41:10.000Z</time>
      </trkpt>
      <trkpt lat="42.6027285866439342498779296875" lon="-0.120638720691204071044921875">
        <ele>888.4000244140625</ele>
        <time>2020-08-16T14:41:15.000Z</time>
      </trkpt>
      <trkpt lat="42.60263328440487384796142578125" lon="-0.1206224597990512847900390625">
        <ele>887.79998779296875</ele>
        <time>2020-08-16T14:41:18.000Z</time>
      </trkpt>
      <trkpt lat="42.60258198715746402740478515625" lon="-0.1206271536648273468017578125">
        <ele>887.20001220703125</ele>
        <time>2020-08-16T14:41:20.000Z</time>
      </trkpt>
      <trkpt lat="42.6025678217411041259765625" lon="-0.1206444203853607177734375">
        <ele>887</ele>
        <time>2020-08-16T14:41:21.000Z</time>
      </trkpt>
      <trkpt lat="42.6025599427521228790283203125" lon="-0.120669901371002197265625">
        <ele>886.5999755859375</ele>
        <time>2020-08-16T14:41:22.000Z</time>
      </trkpt>
      <trkpt lat="42.60252683423459529876708984375" lon="-0.120774842798709869384765625">
        <ele>885.20001220703125</ele>
        <time>2020-08-16T14:41:25.000Z</time>
      </trkpt>
      <trkpt lat="42.602517865598201751708984375" lon="-0.120828486979007720947265625">
        <ele>884.79998779296875</ele>
        <time>2020-08-16T14:41:26.000Z</time>
      </trkpt>
      <trkpt lat="42.602514512836933135986328125" lon="-0.12089227326214313507080078125">
        <ele>884.4000244140625</ele>
        <time>2020-08-16T14:41:27.000Z</time>
      </trkpt>
      <trkpt lat="42.60251577012240886688232421875" lon="-0.1209681294858455657958984375">
        <ele>884</ele>
        <time>2020-08-16T14:41:28.000Z</time>
      </trkpt>
      <trkpt lat="42.60252750478684902191162109375" lon="-0.12113333679735660552978515625">
        <ele>883</ele>
        <time>2020-08-16T14:41:30.000Z</time>
      </trkpt>
      <trkpt lat="42.60253119282424449920654296875" lon="-0.1212078519165515899658203125">
        <ele>882.4000244140625</ele>
        <time>2020-08-16T14:41:31.000Z</time>
      </trkpt>
      <trkpt lat="42.60252901352941989898681640625" lon="-0.121364258229732513427734375">
        <ele>882.20001220703125</ele>
        <time>2020-08-16T14:41:34.000Z</time>
      </trkpt>
      <trkpt lat="42.60253756307065486907958984375" lon="-0.12139786966145038604736328125">
        <ele>882</ele>
        <time>2020-08-16T14:41:35.000Z</time>
      </trkpt>
      <trkpt lat="42.60259087197482585906982421875" lon="-0.12147833593189716339111328125">
        <ele>882.20001220703125</ele>
        <time>2020-08-16T14:41:38.000Z</time>
      </trkpt>
      <trkpt lat="42.602708637714385986328125" lon="-0.121630132198333740234375">
        <ele>882.4000244140625</ele>
        <time>2020-08-16T14:41:45.000Z</time>
      </trkpt>
      <trkpt lat="42.60274208150804042816162109375" lon="-0.12168738059699535369873046875">
        <ele>882.5999755859375</ele>
        <time>2020-08-16T14:41:48.000Z</time>
      </trkpt>
      <trkpt lat="42.6027520559728145599365234375" lon="-0.12171252630650997161865234375">
        <ele>882.79998779296875</ele>
        <time>2020-08-16T14:41:50.000Z</time>
      </trkpt>
      <trkpt lat="42.60275046341121196746826171875" lon="-0.1217164658010005950927734375">
        <ele>882.4000244140625</ele>
        <time>2020-08-16T14:41:57.000Z</time>
      </trkpt>
      <trkpt lat="42.60275314562022686004638671875" lon="-0.1217333972454071044921875">
        <ele>882.4000244140625</ele>
        <time>2020-08-16T14:42:01.000Z</time>
      </trkpt>
      <trkpt lat="42.6027939654886722564697265625" lon="-0.12177304364740848541259765625">
        <ele>882.79998779296875</ele>
        <time>2020-08-16T14:42:07.000Z</time>
      </trkpt>
      <trkpt lat="42.602800168097019195556640625" lon="-0.12176902033388614654541015625">
        <ele>883</ele>
        <time>2020-08-16T14:42:16.000Z</time>
      </trkpt>
      <trkpt lat="42.6028038561344146728515625" lon="-0.1217684336006641387939453125">
        <ele>882.79998779296875</ele>
        <time>2020-08-16T14:42:26.000Z</time>
      </trkpt>
      <trkpt lat="42.6028053648769855499267578125" lon="-0.12176700867712497711181640625">
        <ele>883</ele>
        <time>2020-08-16T14:42:43.000Z</time>
      </trkpt>
      <trkpt lat="42.602805532515048980712890625" lon="-0.12176751159131526947021484375">
        <ele>882.5999755859375</ele>
        <time>2020-08-16T14:42:50.000Z</time>
      </trkpt>
      <trkpt lat="42.60280176065862178802490234375" lon="-0.12176885269582271575927734375">
        <ele>883</ele>
        <time>2020-08-16T14:43:14.000Z</time>
      </trkpt>
      <trkpt lat="42.6028020121157169342041015625" lon="-0.1217694394290447235107421875">
        <ele>883.20001220703125</ele>
        <time>2020-08-16T14:43:50.000Z</time>
      </trkpt>
      <trkpt lat="42.60280226357281208038330078125" lon="-0.1217647455632686614990234375">
        <ele>883.5999755859375</ele>
        <time>2020-08-16T14:44:35.000Z</time>
      </trkpt>
      <trkpt lat="42.60280226357281208038330078125" lon="-0.121764577925205230712890625">
        <ele>883.79998779296875</ele>
        <time>2020-08-16T14:45:18.000Z</time>
      </trkpt>
      <trkpt lat="42.602802179753780364990234375" lon="-0.12176214717328548431396484375">
        <ele>883.5999755859375</ele>
        <time>2020-08-16T14:46:07.000Z</time>
      </trkpt>
      <trkpt lat="42.60280226357281208038330078125" lon="-0.12176164425909519195556640625">
        <ele>883.20001220703125</ele>
        <time>2020-08-16T14:46:18.000Z</time>
      </trkpt>
      <trkpt lat="42.6028023473918437957763671875" lon="-0.1217556931078433990478515625">
        <ele>883.4000244140625</ele>
        <time>2020-08-16T14:48:20.000Z</time>
      </trkpt>
      <trkpt lat="42.6028020121157169342041015625" lon="-0.12175611220300197601318359375">
        <ele>883.20001220703125</ele>
        <time>2020-08-16T14:49:10.000Z</time>
      </trkpt>
      <trkpt lat="42.602802179753780364990234375" lon="-0.12175510637462139129638671875">
        <ele>883.5999755859375</ele>
        <time>2020-08-16T14:49:33.000Z</time>
      </trkpt>
      <trkpt lat="42.60280243121087551116943359375" lon="-0.12175619602203369140625">
        <ele>883.20001220703125</ele>
        <time>2020-08-16T14:50:10.000Z</time>
      </trkpt>
      <trkpt lat="42.60280226357281208038330078125" lon="-0.12175644747912883758544921875">
        <ele>883.4000244140625</ele>
        <time>2020-08-16T14:50:19.000Z</time>
      </trkpt>
      <trkpt lat="42.6028023473918437957763671875" lon="-0.12175527401268482208251953125">
        <ele>883.5999755859375</ele>
        <time>2020-08-16T14:50:57.000Z</time>
      </trkpt>
      <trkpt lat="42.602802179753780364990234375" lon="-0.12175410054624080657958984375">
        <ele>883.4000244140625</ele>
        <time>2020-08-16T14:51:21.000Z</time>
      </trkpt>
      <trkpt lat="42.60280226357281208038330078125" lon="-0.12175359763205051422119140625">
        <ele>883.4000244140625</ele>
        <time>2020-08-16T14:51:51.000Z</time>
      </trkpt>
      <trkpt lat="42.60280226357281208038330078125" lon="-0.12175393290817737579345703125">
        <ele>883.79998779296875</ele>
        <time>2020-08-16T14:52:33.000Z</time>
      </trkpt>
      <trkpt lat="42.6028023473918437957763671875" lon="-0.12175443582236766815185546875">
        <ele>883.79998779296875</ele>
        <time>2020-08-16T14:53:10.000Z</time>
      </trkpt>
      <trkpt lat="42.602802179753780364990234375" lon="-0.1217526756227016448974609375">
        <ele>883.5999755859375</ele>
        <time>2020-08-16T14:53:57.000Z</time>
      </trkpt>
      <trkpt lat="42.60280243121087551116943359375" lon="-0.12175175361335277557373046875">
        <ele>883.20001220703125</ele>
        <time>2020-08-16T14:54:29.000Z</time>
      </trkpt>
      <trkpt lat="42.602802179753780364990234375" lon="-0.1217496581375598907470703125">
        <ele>883</ele>
        <time>2020-08-16T14:55:13.000Z</time>
      </trkpt>
      <trkpt lat="42.602802179753780364990234375" lon="-0.1217494904994964599609375">
        <ele>883</ele>
        <time>2020-08-16T14:55:15.000Z</time>
      </trkpt>
      <trkpt lat="42.6028020121157169342041015625" lon="-0.12174773029983043670654296875">
        <ele>883</ele>
        <time>2020-08-16T14:55:50.000Z</time>
      </trkpt>
      <trkpt lat="42.60280243121087551116943359375" lon="-0.12174622155725955963134765625">
        <ele>883.20001220703125</ele>
        <time>2020-08-16T14:56:51.000Z</time>
      </trkpt>
      <trkpt lat="42.602802179753780364990234375" lon="-0.12174488045275211334228515625">
        <ele>883.5999755859375</ele>
        <time>2020-08-16T14:57:48.000Z</time>
      </trkpt>
      <trkpt lat="42.602802179753780364990234375" lon="-0.121742784976959228515625">
        <ele>883.5999755859375</ele>
        <time>2020-08-16T14:58:15.000Z</time>
      </trkpt>
      <trkpt lat="42.602800168097019195556640625" lon="-0.12174345552921295166015625">
        <ele>883.4000244140625</ele>
        <time>2020-08-16T14:59:11.000Z</time>
      </trkpt>
      <trkpt lat="42.60279505513608455657958984375" lon="-0.1217493228614330291748046875">
        <ele>883.20001220703125</ele>
        <time>2020-08-16T14:59:24.000Z</time>
      </trkpt>
      <trkpt lat="42.6027912832796573638916015625" lon="-0.12174773029983043670654296875">
        <ele>883.20001220703125</ele>
        <time>2020-08-16T14:59:32.000Z</time>
      </trkpt>
      <trkpt lat="42.6027922891080379486083984375" lon="-0.12174613773822784423828125">
        <ele>883.4000244140625</ele>
        <time>2020-08-16T14:59:44.000Z</time>
      </trkpt>
      <trkpt lat="42.6027929596602916717529296875" lon="-0.12174672447144985198974609375">
        <ele>883.20001220703125</ele>
        <time>2020-08-16T15:00:10.000Z</time>
      </trkpt>
      <trkpt lat="42.6027931272983551025390625" lon="-0.121748149394989013671875">
        <ele>883.20001220703125</ele>
        <time>2020-08-16T15:00:48.000Z</time>
      </trkpt>
      <trkpt lat="42.6027931272983551025390625" lon="-0.12174856849014759063720703125">
        <ele>883.5999755859375</ele>
        <time>2020-08-16T15:01:26.000Z</time>
      </trkpt>
      <trkpt lat="42.6027931272983551025390625" lon="-0.12174873612821102142333984375">
        <ele>883.20001220703125</ele>
        <time>2020-08-16T15:01:41.000Z</time>
      </trkpt>
      <trkpt lat="42.60279245674610137939453125" lon="-0.12174169532954692840576171875">
        <ele>883.5999755859375</ele>
        <time>2020-08-16T15:05:07.000Z</time>
      </trkpt>
      <trkpt lat="42.60278415866196155548095703125" lon="-0.1217228360474109649658203125">
        <ele>883.4000244140625</ele>
        <time>2020-08-16T15:05:10.000Z</time>
      </trkpt>
      <trkpt lat="42.60271735489368438720703125" lon="-0.12163910083472728729248046875">
        <ele>883.20001220703125</ele>
        <time>2020-08-16T15:05:15.000Z</time>
      </trkpt>
      <trkpt lat="42.60260227136313915252685546875" lon="-0.12147833593189716339111328125">
        <ele>883.20001220703125</ele>
        <time>2020-08-16T15:05:21.000Z</time>
      </trkpt>
      <trkpt lat="42.60255885310471057891845703125" lon="-0.12141832150518894195556640625">
        <ele>882.79998779296875</ele>
        <time>2020-08-16T15:05:23.000Z</time>
      </trkpt>
      <trkpt lat="42.60251426137983798980712890625" lon="-0.1212688721716403961181640625">
        <ele>882.5999755859375</ele>
        <time>2020-08-16T15:05:27.000Z</time>
      </trkpt>
      <trkpt lat="42.602501772344112396240234375" lon="-0.121096037328243255615234375">
        <ele>882.5999755859375</ele>
        <time>2020-08-16T15:05:32.000Z</time>
      </trkpt>
      <trkpt lat="42.6024788059294223785400390625" lon="-0.12092496268451213836669921875">
        <ele>882.79998779296875</ele>
        <time>2020-08-16T15:05:38.000Z</time>
      </trkpt>
      <trkpt lat="42.6024764589965343475341796875" lon="-0.1207656227052211761474609375">
        <ele>884.4000244140625</ele>
        <time>2020-08-16T15:05:45.000Z</time>
      </trkpt>
      <trkpt lat="42.60250152088701725006103515625" lon="-0.12066294439136981964111328125">
        <ele>885.5999755859375</ele>
        <time>2020-08-16T15:05:50.000Z</time>
      </trkpt>
      <trkpt lat="42.6025153510272502899169921875" lon="-0.1206502877175807952880859375">
        <ele>885.79998779296875</ele>
        <time>2020-08-16T15:05:51.000Z</time>
      </trkpt>
      <trkpt lat="42.60256715118885040283203125" lon="-0.12059806846082210540771484375">
        <ele>886.5999755859375</ele>
        <time>2020-08-16T15:05:55.000Z</time>
      </trkpt>
      <trkpt lat="42.6025958172976970672607421875" lon="-0.1205902732908725738525390625">
        <ele>887</ele>
        <time>2020-08-16T15:05:57.000Z</time>
      </trkpt>
      <trkpt lat="42.60263554751873016357421875" lon="-0.12059086002409458160400390625">
        <ele>887.4000244140625</ele>
        <time>2020-08-16T15:06:00.000Z</time>
      </trkpt>
      <trkpt lat="42.60266044177114963531494140625" lon="-0.1205988228321075439453125">
        <ele>887.79998779296875</ele>
        <time>2020-08-16T15:06:02.000Z</time>
      </trkpt>
      <trkpt lat="42.60271006263792514801025390625" lon="-0.12061131186783313751220703125">
        <ele>888.5999755859375</ele>
        <time>2020-08-16T15:06:06.000Z</time>
      </trkpt>
      <trkpt lat="42.60272230021655559539794921875" lon="-0.12061164714395999908447265625">
        <ele>888.79998779296875</ele>
        <time>2020-08-16T15:06:07.000Z</time>
      </trkpt>
      <trkpt lat="42.60280176065862178802490234375" lon="-0.12061365880072116851806640625">
        <ele>889.4000244140625</ele>
        <time>2020-08-16T15:06:14.000Z</time>
      </trkpt>
      <trkpt lat="42.60290770791471004486083984375" lon="-0.12059823609888553619384765625">
        <ele>889.20001220703125</ele>
        <time>2020-08-16T15:06:20.000Z</time>
      </trkpt>
      <trkpt lat="42.6030933670699596405029296875" lon="-0.1206616871058940887451171875">
        <ele>889</ele>
        <time>2020-08-16T15:06:28.000Z</time>
      </trkpt>
      <trkpt lat="42.60328195989131927490234375" lon="-0.12079755775630474090576171875">
        <ele>889</ele>
        <time>2020-08-16T15:06:36.000Z</time>
      </trkpt>
      <trkpt lat="42.6034698821604251861572265625" lon="-0.121007859706878662109375">
        <ele>888.5999755859375</ele>
        <time>2020-08-16T15:06:44.000Z</time>
      </trkpt>
      <trkpt lat="42.6036911644041538238525390625" lon="-0.1213235221803188323974609375">
        <ele>888.5999755859375</ele>
        <time>2020-08-16T15:06:55.000Z</time>
      </trkpt>
      <trkpt lat="42.6038611494004726409912109375" lon="-0.12158545665442943572998046875">
        <ele>888.4000244140625</ele>
        <time>2020-08-16T15:07:04.000Z</time>
      </trkpt>
      <trkpt lat="42.60400473140180110931396484375" lon="-0.12182517908513545989990234375">
        <ele>888.4000244140625</ele>
        <time>2020-08-16T15:07:12.000Z</time>
      </trkpt>
      <trkpt lat="42.6041092537343502044677734375" lon="-0.12207336723804473876953125">
        <ele>889.4000244140625</ele>
        <time>2020-08-16T15:07:20.000Z</time>
      </trkpt>
      <trkpt lat="42.60415443219244480133056640625" lon="-0.1221892051398754119873046875">
        <ele>889.79998779296875</ele>
        <time>2020-08-16T15:07:24.000Z</time>
      </trkpt>
      <trkpt lat="42.6042286120355129241943359375" lon="-0.1223208010196685791015625">
        <ele>890.20001220703125</ele>
        <time>2020-08-16T15:07:29.000Z</time>
      </trkpt>
      <trkpt lat="42.6043556816875934600830078125" lon="-0.1225838251411914825439453125">
        <ele>890.79998779296875</ele>
        <time>2020-08-16T15:07:38.000Z</time>
      </trkpt>
      <trkpt lat="42.60453455150127410888671875" lon="-0.12288699857890605926513671875">
        <ele>890.79998779296875</ele>
        <time>2020-08-16T15:07:48.000Z</time>
      </trkpt>
      <trkpt lat="42.60472456924617290496826171875" lon="-0.12319092638790607452392578125">
        <ele>891</ele>
        <time>2020-08-16T15:07:58.000Z</time>
      </trkpt>
      <trkpt lat="42.60493109934031963348388671875" lon="-0.12349552474915981292724609375">
        <ele>890.79998779296875</ele>
        <time>2020-08-16T15:08:08.000Z</time>
      </trkpt>
      <trkpt lat="42.6051526330411434173583984375" lon="-0.1236741431057453155517578125">
        <ele>890.79998779296875</ele>
        <time>2020-08-16T15:08:16.000Z</time>
      </trkpt>
      <trkpt lat="42.60541423223912715911865234375" lon="-0.123819820582866668701171875">
        <ele>890.20001220703125</ele>
        <time>2020-08-16T15:08:24.000Z</time>
      </trkpt>
      <trkpt lat="42.6055392064154148101806640625" lon="-0.12381202541291713714599609375">
        <ele>890.20001220703125</ele>
        <time>2020-08-16T15:08:28.000Z</time>
      </trkpt>
      <trkpt lat="42.60576509870588779449462890625" lon="-0.12372183613479137420654296875">
        <ele>890.5999755859375</ele>
        <time>2020-08-16T15:08:37.000Z</time>
      </trkpt>
      <trkpt lat="42.60595486499369144439697265625" lon="-0.12364187277853488922119140625">
        <ele>891</ele>
        <time>2020-08-16T15:08:45.000Z</time>
      </trkpt>
      <trkpt lat="42.606175057590007781982421875" lon="-0.12353206984698772430419921875">
        <ele>892.20001220703125</ele>
        <time>2020-08-16T15:08:54.000Z</time>
      </trkpt>
      <trkpt lat="42.60619877837598323822021484375" lon="-0.12352251447737216949462890625">
        <ele>892.4000244140625</ele>
        <time>2020-08-16T15:08:55.000Z</time>
      </trkpt>
      <trkpt lat="42.6063619740307331085205078125" lon="-0.123431570827960968017578125">
        <ele>893</ele>
        <time>2020-08-16T15:09:02.000Z</time>
      </trkpt>
      <trkpt lat="42.60640899650752544403076171875" lon="-0.1234065927565097808837890625">
        <ele>893.4000244140625</ele>
        <time>2020-08-16T15:09:04.000Z</time>
      </trkpt>
      <trkpt lat="42.606538832187652587890625" lon="-0.123332999646663665771484375">
        <ele>894.4000244140625</ele>
        <time>2020-08-16T15:09:10.000Z</time>
      </trkpt>
      <trkpt lat="42.60670848190784454345703125" lon="-0.1232359372079372406005859375">
        <ele>895.4000244140625</ele>
        <time>2020-08-16T15:09:18.000Z</time>
      </trkpt>
      <trkpt lat="42.6067716814577579498291015625" lon="-0.1232047565281391143798828125">
        <ele>895.4000244140625</ele>
        <time>2020-08-16T15:09:21.000Z</time>
      </trkpt>
      <trkpt lat="42.6068964041769504547119140625" lon="-0.1231380365788936614990234375">
        <ele>896</ele>
        <time>2020-08-16T15:09:27.000Z</time>
      </trkpt>
      <trkpt lat="42.60695650242269039154052734375" lon="-0.123108364641666412353515625">
        <ele>896.5999755859375</ele>
        <time>2020-08-16T15:09:30.000Z</time>
      </trkpt>
      <trkpt lat="42.60707971639931201934814453125" lon="-0.1230423152446746826171875">
        <ele>897.5999755859375</ele>
        <time>2020-08-16T15:09:36.000Z</time>
      </trkpt>
      <trkpt lat="42.6070995815098285675048828125" lon="-0.12303167022764682769775390625">
        <ele>897.79998779296875</ele>
        <time>2020-08-16T15:09:37.000Z</time>
      </trkpt>
      <trkpt lat="42.60722539387643337249755859375" lon="-0.1229831390082836151123046875">
        <ele>898.5999755859375</ele>
        <time>2020-08-16T15:09:43.000Z</time>
      </trkpt>
      <trkpt lat="42.6072880066931247711181640625" lon="-0.12296360917389392852783203125">
        <ele>899.20001220703125</ele>
        <time>2020-08-16T15:09:46.000Z</time>
      </trkpt>
      <trkpt lat="42.6073716580867767333984375" lon="-0.12294567190110683441162109375">
        <ele>899.79998779296875</ele>
        <time>2020-08-16T15:09:50.000Z</time>
      </trkpt>
      <trkpt lat="42.60745279490947723388671875" lon="-0.1229358650743961334228515625">
        <ele>900.4000244140625</ele>
        <time>2020-08-16T15:09:54.000Z</time>
      </trkpt>
      <trkpt lat="42.6075164973735809326171875" lon="-0.1229281537234783172607421875">
        <ele>901</ele>
        <time>2020-08-16T15:09:57.000Z</time>
      </trkpt>
      <trkpt lat="42.6076749153435230255126953125" lon="-0.12291331775486469268798828125">
        <ele>902</ele>
        <time>2020-08-16T15:10:04.000Z</time>
      </trkpt>
      <trkpt lat="42.6076980493962764739990234375" lon="-0.12291197665035724639892578125">
        <ele>902</ele>
        <time>2020-08-16T15:10:05.000Z</time>
      </trkpt>
      <trkpt lat="42.607880271971225738525390625" lon="-0.1229107193648815155029296875">
        <ele>903.20001220703125</ele>
        <time>2020-08-16T15:10:13.000Z</time>
      </trkpt>
      <trkpt lat="42.608017735183238983154296875" lon="-0.122911892831325531005859375">
        <ele>904.4000244140625</ele>
        <time>2020-08-16T15:10:19.000Z</time>
      </trkpt>
      <trkpt lat="42.60815377347171306610107421875" lon="-0.12291868217289447784423828125">
        <ele>905.4000244140625</ele>
        <time>2020-08-16T15:10:25.000Z</time>
      </trkpt>
      <trkpt lat="42.6082648336887359619140625" lon="-0.122931003570556640625">
        <ele>906</ele>
        <time>2020-08-16T15:10:30.000Z</time>
      </trkpt>
      <trkpt lat="42.608350999653339385986328125" lon="-0.12295438908040523529052734375">
        <ele>906.5999755859375</ele>
        <time>2020-08-16T15:10:34.000Z</time>
      </trkpt>
      <trkpt lat="42.60850824415683746337890625" lon="-0.1229985617101192474365234375">
        <ele>907.4000244140625</ele>
        <time>2020-08-16T15:10:41.000Z</time>
      </trkpt>
      <trkpt lat="42.60855208151042461395263671875" lon="-0.1230159960687160491943359375">
        <ele>907.5999755859375</ele>
        <time>2020-08-16T15:10:43.000Z</time>
      </trkpt>
      <trkpt lat="42.6087226532399654388427734375" lon="-0.12307919561862945556640625">
        <ele>908.79998779296875</ele>
        <time>2020-08-16T15:10:51.000Z</time>
      </trkpt>
      <trkpt lat="42.6088969968259334564208984375" lon="-0.1231511123478412628173828125">
        <ele>909.5999755859375</ele>
        <time>2020-08-16T15:10:59.000Z</time>
      </trkpt>
      <trkpt lat="42.60891862213611602783203125" lon="-0.12315966188907623291015625">
        <ele>909.79998779296875</ele>
        <time>2020-08-16T15:11:00.000Z</time>
      </trkpt>
      <trkpt lat="42.60908869095146656036376953125" lon="-0.12322629801928997039794921875">
        <ele>910.79998779296875</ele>
        <time>2020-08-16T15:11:08.000Z</time>
      </trkpt>
      <trkpt lat="42.6091759465634822845458984375" lon="-0.12324959971010684967041015625">
        <ele>911.4000244140625</ele>
        <time>2020-08-16T15:11:12.000Z</time>
      </trkpt>
      <trkpt lat="42.60925917886197566986083984375" lon="-0.12328840792179107666015625">
        <ele>912</ele>
        <time>2020-08-16T15:11:16.000Z</time>
      </trkpt>
      <trkpt lat="42.6094101369380950927734375" lon="-0.12337415479123592376708984375">
        <ele>913</ele>
        <time>2020-08-16T15:11:24.000Z</time>
      </trkpt>
      <trkpt lat="42.6094310916960239410400390625" lon="-0.1233834587037563323974609375">
        <ele>913.20001220703125</ele>
        <time>2020-08-16T15:11:25.000Z</time>
      </trkpt>
      <trkpt lat="42.6096154935657978057861328125" lon="-0.12349569238722324371337890625">
        <ele>914</ele>
        <time>2020-08-16T15:11:34.000Z</time>
      </trkpt>
      <trkpt lat="42.6096577383577823638916015625" lon="-0.12352435849606990814208984375">
        <ele>914.20001220703125</ele>
        <time>2020-08-16T15:11:36.000Z</time>
      </trkpt>
      <trkpt lat="42.60982210747897624969482421875" lon="-0.12361957691609859466552734375">
        <ele>915.20001220703125</ele>
        <time>2020-08-16T15:11:44.000Z</time>
      </trkpt>
      <trkpt lat="42.60984155349433422088623046875" lon="-0.123631060123443603515625">
        <ele>915.20001220703125</ele>
        <time>2020-08-16T15:11:45.000Z</time>
      </trkpt>
      <trkpt lat="42.610005922615528106689453125" lon="-0.12374346144497394561767578125">
        <ele>916.4000244140625</ele>
        <time>2020-08-16T15:11:53.000Z</time>
      </trkpt>
      <trkpt lat="42.610025703907012939453125" lon="-0.12375779449939727783203125">
        <ele>916.4000244140625</ele>
        <time>2020-08-16T15:11:54.000Z</time>
      </trkpt>
      <trkpt lat="42.61016584932804107666015625" lon="-0.12384404428303241729736328125">
        <ele>917.4000244140625</ele>
        <time>2020-08-16T15:12:01.000Z</time>
      </trkpt>
      <trkpt lat="42.61018554680049419403076171875" lon="-0.12385611422359943389892578125">
        <ele>917.5999755859375</ele>
        <time>2020-08-16T15:12:02.000Z</time>
      </trkpt>
      <trkpt lat="42.6103239320218563079833984375" lon="-0.1239406876266002655029296875">
        <ele>918.5999755859375</ele>
        <time>2020-08-16T15:12:09.000Z</time>
      </trkpt>
      <trkpt lat="42.61036709882318973541259765625" lon="-0.12396524660289287567138671875">
        <ele>918.79998779296875</ele>
        <time>2020-08-16T15:12:11.000Z</time>
      </trkpt>
      <trkpt lat="42.61055351234972476959228515625" lon="-0.12406968511641025543212890625">
        <ele>919.5999755859375</ele>
        <time>2020-08-16T15:12:20.000Z</time>
      </trkpt>
      <trkpt lat="42.61057580821216106414794921875" lon="-0.12408192269504070281982421875">
        <ele>919.5999755859375</ele>
        <time>2020-08-16T15:12:21.000Z</time>
      </trkpt>
      <trkpt lat="42.610781081020832061767578125" lon="-0.12421284802258014678955078125">
        <ele>920.4000244140625</ele>
        <time>2020-08-16T15:12:30.000Z</time>
      </trkpt>
      <trkpt lat="42.61094075627624988555908203125" lon="-0.12430672533810138702392578125">
        <ele>920.5999755859375</ele>
        <time>2020-08-16T15:12:37.000Z</time>
      </trkpt>
      <trkpt lat="42.6109877787530422210693359375" lon="-0.12432583607733249664306640625">
        <ele>920.79998779296875</ele>
        <time>2020-08-16T15:12:39.000Z</time>
      </trkpt>
      <trkpt lat="42.611207552254199981689453125" lon="-0.12436137534677982330322265625">
        <ele>921.79998779296875</ele>
        <time>2020-08-16T15:12:48.000Z</time>
      </trkpt>
      <trkpt lat="42.61123144067823886871337890625" lon="-0.12435324490070343017578125">
        <ele>921.79998779296875</ele>
        <time>2020-08-16T15:12:49.000Z</time>
      </trkpt>
      <trkpt lat="42.61140310205519199371337890625" lon="-0.124237239360809326171875">
        <ele>922.5999755859375</ele>
        <time>2020-08-16T15:12:57.000Z</time>
      </trkpt>
      <trkpt lat="42.61143713258206844329833984375" lon="-0.12419658713042736053466796875">
        <ele>922.79998779296875</ele>
        <time>2020-08-16T15:12:59.000Z</time>
      </trkpt>
      <trkpt lat="42.61150720529258251190185546875" lon="-0.124071277678012847900390625">
        <ele>923.79998779296875</ele>
        <time>2020-08-16T15:13:04.000Z</time>
      </trkpt>
      <trkpt lat="42.61151793412864208221435546875" lon="-0.1240429468452930450439453125">
        <ele>924.20001220703125</ele>
        <time>2020-08-16T15:13:05.000Z</time>
      </trkpt>
      <trkpt lat="42.611560933291912078857421875" lon="-0.12383147142827510833740234375">
        <ele>925</ele>
        <time>2020-08-16T15:13:12.000Z</time>
      </trkpt>
      <trkpt lat="42.61156554333865642547607421875" lon="-0.123770199716091156005859375">
        <ele>925.4000244140625</ele>
        <time>2020-08-16T15:13:14.000Z</time>
      </trkpt>
      <trkpt lat="42.61157409287989139556884765625" lon="-0.1236476562917232513427734375">
        <ele>926</ele>
        <time>2020-08-16T15:13:18.000Z</time>
      </trkpt>
      <trkpt lat="42.61158364824950695037841796875" lon="-0.12349803932011127471923828125">
        <ele>926.5999755859375</ele>
        <time>2020-08-16T15:13:23.000Z</time>
      </trkpt>
      <trkpt lat="42.61158297769725322723388671875" lon="-0.1234049163758754730224609375">
        <ele>927</ele>
        <time>2020-08-16T15:13:26.000Z</time>
      </trkpt>
      <trkpt lat="42.6115778647363185882568359375" lon="-0.12315471656620502471923828125">
        <ele>927.79998779296875</ele>
        <time>2020-08-16T15:13:34.000Z</time>
      </trkpt>
      <trkpt lat="42.61157811619341373443603515625" lon="-0.12302915565669536590576171875">
        <ele>928.20001220703125</ele>
        <time>2020-08-16T15:13:38.000Z</time>
      </trkpt>
      <trkpt lat="42.6115832291543483734130859375" lon="-0.122816674411296844482421875">
        <ele>929</ele>
        <time>2020-08-16T15:13:45.000Z</time>
      </trkpt>
      <trkpt lat="42.61158415116369724273681640625" lon="-0.12278591282665729522705078125">
        <ele>929.20001220703125</ele>
        <time>2020-08-16T15:13:46.000Z</time>
      </trkpt>
      <trkpt lat="42.6115802116692066192626953125" lon="-0.12265783734619617462158203125">
        <ele>930.20001220703125</ele>
        <time>2020-08-16T15:13:50.000Z</time>
      </trkpt>
      <trkpt lat="42.61156730353832244873046875" lon="-0.12249807827174663543701171875">
        <ele>930.20001220703125</ele>
        <time>2020-08-16T15:13:55.000Z</time>
      </trkpt>
      <trkpt lat="42.6115369610488414764404296875" lon="-0.12225600890815258026123046875">
        <ele>930.79998779296875</ele>
        <time>2020-08-16T15:14:03.000Z</time>
      </trkpt>
      <trkpt lat="42.61151541955769062042236328125" lon="-0.12215659953653812408447265625">
        <ele>931.20001220703125</ele>
        <time>2020-08-16T15:14:06.000Z</time>
      </trkpt>
      <trkpt lat="42.61148658581078052520751953125" lon="-0.12202735058963298797607421875">
        <ele>931.4000244140625</ele>
        <time>2020-08-16T15:14:10.000Z</time>
      </trkpt>
      <trkpt lat="42.6114568300545215606689453125" lon="-0.12182115577161312103271484375">
        <ele>931.79998779296875</ele>
        <time>2020-08-16T15:14:16.000Z</time>
      </trkpt>
      <trkpt lat="42.6114298403263092041015625" lon="-0.1216420345008373260498046875">
        <ele>932.20001220703125</ele>
        <time>2020-08-16T15:14:21.000Z</time>
      </trkpt>
      <trkpt lat="42.6114162616431713104248046875" lon="-0.1215676032006740570068359375">
        <ele>932.20001220703125</ele>
        <time>2020-08-16T15:14:23.000Z</time>
      </trkpt>
      <trkpt lat="42.6113686524331569671630859375" lon="-0.1212598197162151336669921875">
        <ele>932.79998779296875</ele>
        <time>2020-08-16T15:14:31.000Z</time>
      </trkpt>
      <trkpt lat="42.61135079897940158843994140625" lon="-0.121098048985004425048828125">
        <ele>933.20001220703125</ele>
        <time>2020-08-16T15:14:35.000Z</time>
      </trkpt>
      <trkpt lat="42.6113485358655452728271484375" lon="-0.12094055302441120147705078125">
        <ele>933.5999755859375</ele>
        <time>2020-08-16T15:14:39.000Z</time>
      </trkpt>
      <trkpt lat="42.61135063134133815765380859375" lon="-0.1207666285336017608642578125">
        <ele>934</ele>
        <time>2020-08-16T15:14:44.000Z</time>
      </trkpt>
      <trkpt lat="42.61134870350360870361328125" lon="-0.1206177659332752227783203125">
        <ele>934.4000244140625</ele>
        <time>2020-08-16T15:14:48.000Z</time>
      </trkpt>
      <trkpt lat="42.611348368227481842041015625" lon="-0.120503269135951995849609375">
        <ele>934.79998779296875</ele>
        <time>2020-08-16T15:14:51.000Z</time>
      </trkpt>
      <trkpt lat="42.6113525591790676116943359375" lon="-0.1203247345983982086181640625">
        <ele>935.4000244140625</ele>
        <time>2020-08-16T15:14:56.000Z</time>
      </trkpt>
      <trkpt lat="42.611372508108615875244140625" lon="-0.1201929710805416107177734375">
        <ele>935.5999755859375</ele>
        <time>2020-08-16T15:15:00.000Z</time>
      </trkpt>
      <trkpt lat="42.61140368878841400146484375" lon="-0.1200612075626850128173828125">
        <ele>936.4000244140625</ele>
        <time>2020-08-16T15:15:04.000Z</time>
      </trkpt>
      <trkpt lat="42.61146001517772674560546875" lon="-0.1198409311473369598388671875">
        <ele>937.20001220703125</ele>
        <time>2020-08-16T15:15:11.000Z</time>
      </trkpt>
      <trkpt lat="42.6114839874207973480224609375" lon="-0.11974579654633998870849609375">
        <ele>937.4000244140625</ele>
        <time>2020-08-16T15:15:14.000Z</time>
      </trkpt>
      <trkpt lat="42.6115329377353191375732421875" lon="-0.119557790458202362060546875">
        <ele>938.5999755859375</ele>
        <time>2020-08-16T15:15:20.000Z</time>
      </trkpt>
      <trkpt lat="42.61154123581945896148681640625" lon="-0.11952602304518222808837890625">
        <ele>938.5999755859375</ele>
        <time>2020-08-16T15:15:21.000Z</time>
      </trkpt>
      <trkpt lat="42.611610554158687591552734375" lon="-0.1193569600582122802734375">
        <ele>939.5999755859375</ele>
        <time>2020-08-16T15:15:27.000Z</time>
      </trkpt>
      <trkpt lat="42.61165841482579708099365234375" lon="-0.11928948573768138885498046875">
        <ele>940</ele>
        <time>2020-08-16T15:15:30.000Z</time>
      </trkpt>
      <trkpt lat="42.6117275655269622802734375" lon="-0.11921505443751811981201171875">
        <ele>940.5999755859375</ele>
        <time>2020-08-16T15:15:34.000Z</time>
      </trkpt>
      <trkpt lat="42.61180962435901165008544921875" lon="-0.1191703788936138153076171875">
        <ele>941.20001220703125</ele>
        <time>2020-08-16T15:15:38.000Z</time>
      </trkpt>
      <trkpt lat="42.61185337789356708526611328125" lon="-0.11916878633201122283935546875">
        <ele>941.5999755859375</ele>
        <time>2020-08-16T15:15:40.000Z</time>
      </trkpt>
      <trkpt lat="42.61198497377336025238037109375" lon="-0.119178928434848785400390625">
        <ele>942.79998779296875</ele>
        <time>2020-08-16T15:15:46.000Z</time>
      </trkpt>
      <trkpt lat="42.6120985485613346099853515625" lon="-0.119276158511638641357421875">
        <ele>943.5999755859375</ele>
        <time>2020-08-16T15:15:52.000Z</time>
      </trkpt>
      <trkpt lat="42.61214666068553924560546875" lon="-0.1193390227854251861572265625">
        <ele>944</ele>
        <time>2020-08-16T15:15:55.000Z</time>
      </trkpt>
      <trkpt lat="42.61219988577067852020263671875" lon="-0.119469277560710906982421875">
        <ele>945.20001220703125</ele>
        <time>2020-08-16T15:16:00.000Z</time>
      </trkpt>
      <trkpt lat="42.61224833317101001739501953125" lon="-0.11967438273131847381591796875">
        <ele>946.20001220703125</ele>
        <time>2020-08-16T15:16:07.000Z</time>
      </trkpt>
      <trkpt lat="42.6122765801846981048583984375" lon="-0.1198848523199558258056640625">
        <ele>947.20001220703125</ele>
        <time>2020-08-16T15:16:14.000Z</time>
      </trkpt>
      <trkpt lat="42.6122789271175861358642578125" lon="-0.11991427280008792877197265625">
        <ele>947.4000244140625</ele>
        <time>2020-08-16T15:16:15.000Z</time>
      </trkpt>
      <trkpt lat="42.61228823103010654449462890625" lon="-0.1200327090919017791748046875">
        <ele>948.4000244140625</ele>
        <time>2020-08-16T15:16:19.000Z</time>
      </trkpt>
      <trkpt lat="42.61228286661207675933837890625" lon="-0.12014846317470073699951171875">
        <ele>949</ele>
        <time>2020-08-16T15:16:23.000Z</time>
      </trkpt>
      <trkpt lat="42.61225990019738674163818359375" lon="-0.12026597745716571807861328125">
        <ele>949.5999755859375</ele>
        <time>2020-08-16T15:16:27.000Z</time>
      </trkpt>
      <trkpt lat="42.61221212334930896759033203125" lon="-0.120403356850147247314453125">
        <ele>950</ele>
        <time>2020-08-16T15:16:32.000Z</time>
      </trkpt>
      <trkpt lat="42.61216568760573863983154296875" lon="-0.1205076277256011962890625">
        <ele>950.5999755859375</ele>
        <time>2020-08-16T15:16:36.000Z</time>
      </trkpt>
      <trkpt lat="42.61212713085114955902099609375" lon="-0.12061600573360919952392578125">
        <ele>951</ele>
        <time>2020-08-16T15:16:40.000Z</time>
      </trkpt>
      <trkpt lat="42.612089999020099639892578125" lon="-0.12072346173226833343505859375">
        <ele>951.5999755859375</ele>
        <time>2020-08-16T15:16:44.000Z</time>
      </trkpt>
      <trkpt lat="42.6120807789266109466552734375" lon="-0.1207498647272586822509765625">
        <ele>951.79998779296875</ele>
        <time>2020-08-16T15:16:45.000Z</time>
      </trkpt>
      <trkpt lat="42.6120425574481487274169921875" lon="-0.1208544708788394927978515625">
        <ele>952.5999755859375</ele>
        <time>2020-08-16T15:16:49.000Z</time>
      </trkpt>
      <trkpt lat="42.6120244525372982025146484375" lon="-0.120910294353961944580078125">
        <ele>952.79998779296875</ele>
        <time>2020-08-16T15:16:51.000Z</time>
      </trkpt>
      <trkpt lat="42.61196158826351165771484375" lon="-0.12110265903174877166748046875">
        <ele>953.79998779296875</ele>
        <time>2020-08-16T15:16:58.000Z</time>
      </trkpt>
      <trkpt lat="42.6119537092745304107666015625" lon="-0.1211299002170562744140625">
        <ele>954</ele>
        <time>2020-08-16T15:16:59.000Z</time>
      </trkpt>
      <trkpt lat="42.6119047589600086212158203125" lon="-0.12129745446145534515380859375">
        <ele>955.20001220703125</ele>
        <time>2020-08-16T15:17:05.000Z</time>
      </trkpt>
      <trkpt lat="42.61188053525984287261962890625" lon="-0.121440030634403228759765625">
        <ele>955.79998779296875</ele>
        <time>2020-08-16T15:17:10.000Z</time>
      </trkpt>
      <trkpt lat="42.61187399737536907196044921875" lon="-0.1214988715946674346923828125">
        <ele>956.20001220703125</ele>
        <time>2020-08-16T15:17:12.000Z</time>
      </trkpt>
      <trkpt lat="42.611863352358341217041015625" lon="-0.12167748995125293731689453125">
        <ele>957.4000244140625</ele>
        <time>2020-08-16T15:17:18.000Z</time>
      </trkpt>
      <trkpt lat="42.61186393909156322479248046875" lon="-0.12173834256827831268310546875">
        <ele>957.5999755859375</ele>
        <time>2020-08-16T15:17:20.000Z</time>
      </trkpt>
      <trkpt lat="42.611868046224117279052734375" lon="-0.12192022986710071563720703125">
        <ele>958.4000244140625</ele>
        <time>2020-08-16T15:17:26.000Z</time>
      </trkpt>
      <trkpt lat="42.61186905205249786376953125" lon="-0.122010670602321624755859375">
        <ele>958.79998779296875</ele>
        <time>2020-08-16T15:17:29.000Z</time>
      </trkpt>
      <trkpt lat="42.611877433955669403076171875" lon="-0.12221409939229488372802734375">
        <ele>959.4000244140625</ele>
        <time>2020-08-16T15:17:36.000Z</time>
      </trkpt>
      <trkpt lat="42.61188606731593608856201171875" lon="-0.12232708744704723358154296875">
        <ele>960</ele>
        <time>2020-08-16T15:17:40.000Z</time>
      </trkpt>
      <trkpt lat="42.611888162791728973388671875" lon="-0.12241191230714321136474609375">
        <ele>960.5999755859375</ele>
        <time>2020-08-16T15:17:43.000Z</time>
      </trkpt>
      <trkpt lat="42.61190316639840602874755859375" lon="-0.12255172245204448699951171875">
        <ele>961.4000244140625</ele>
        <time>2020-08-16T15:17:48.000Z</time>
      </trkpt>
      <trkpt lat="42.61190433986485004425048828125" lon="-0.1225809752941131591796875">
        <ele>961.5999755859375</ele>
        <time>2020-08-16T15:17:49.000Z</time>
      </trkpt>
      <trkpt lat="42.6119225285947322845458984375" lon="-0.12271500192582607269287109375">
        <ele>962.20001220703125</ele>
        <time>2020-08-16T15:17:54.000Z</time>
      </trkpt>
      <trkpt lat="42.61193032376468181610107421875" lon="-0.12276780791580677032470703125">
        <ele>962.79998779296875</ele>
        <time>2020-08-16T15:17:56.000Z</time>
      </trkpt>
      <trkpt lat="42.61196829378604888916015625" lon="-0.12298624031245708465576171875">
        <ele>963.79998779296875</ele>
        <time>2020-08-16T15:18:04.000Z</time>
      </trkpt>
      <trkpt lat="42.61199972592294216156005859375" lon="-0.12318321503698825836181640625">
        <ele>965</ele>
        <time>2020-08-16T15:18:11.000Z</time>
      </trkpt>
      <trkpt lat="42.61201213113963603973388671875" lon="-0.123298466205596923828125">
        <ele>965.79998779296875</ele>
        <time>2020-08-16T15:18:15.000Z</time>
      </trkpt>
      <trkpt lat="42.61202319525182247161865234375" lon="-0.12335437349975109100341796875">
        <ele>966</ele>
        <time>2020-08-16T15:18:17.000Z</time>
      </trkpt>
      <trkpt lat="42.6120660267770290374755859375" lon="-0.12355302460491657257080078125">
        <ele>967</ele>
        <time>2020-08-16T15:18:24.000Z</time>
      </trkpt>
      <trkpt lat="42.6120734028518199920654296875" lon="-0.123581103980541229248046875">
        <ele>967.20001220703125</ele>
        <time>2020-08-16T15:18:25.000Z</time>
      </trkpt>
      <trkpt lat="42.61213936842978000640869140625" lon="-0.12380179949104785919189453125">
        <ele>968</ele>
        <time>2020-08-16T15:18:33.000Z</time>
      </trkpt>
      <trkpt lat="42.61218714527785778045654296875" lon="-0.12393607757985591888427734375">
        <ele>969</ele>
        <time>2020-08-16T15:18:38.000Z</time>
      </trkpt>
      <trkpt lat="42.6122269593179225921630859375" lon="-0.12404051609337329864501953125">
        <ele>969.5999755859375</ele>
        <time>2020-08-16T15:18:42.000Z</time>
      </trkpt>
      <trkpt lat="42.612265683710575103759765625" lon="-0.124143026769161224365234375">
        <ele>970</ele>
        <time>2020-08-16T15:18:46.000Z</time>
      </trkpt>
      <trkpt lat="42.61232444085180759429931640625" lon="-0.12426875531673431396484375">
        <ele>970.79998779296875</ele>
        <time>2020-08-16T15:18:51.000Z</time>
      </trkpt>
      <trkpt lat="42.6123543642461299896240234375" lon="-0.12431175448000431060791015625">
        <ele>971.20001220703125</ele>
        <time>2020-08-16T15:18:53.000Z</time>
      </trkpt>
      <trkpt lat="42.61247523128986358642578125" lon="-0.12443413026630878448486328125">
        <ele>972</ele>
        <time>2020-08-16T15:19:00.000Z</time>
      </trkpt>
      <trkpt lat="42.6124945096671581268310546875" lon="-0.1244479604065418243408203125">
        <ele>972.20001220703125</ele>
        <time>2020-08-16T15:19:01.000Z</time>
      </trkpt>
      <trkpt lat="42.612647898495197296142578125" lon="-0.12449867092072963714599609375">
        <ele>973.20001220703125</ele>
        <time>2020-08-16T15:19:08.000Z</time>
      </trkpt>
      <trkpt lat="42.61279650963842868804931640625" lon="-0.1244308613240718841552734375">
        <ele>974.20001220703125</ele>
        <time>2020-08-16T15:19:15.000Z</time>
      </trkpt>
      <trkpt lat="42.6128157041966915130615234375" lon="-0.12441418133676052093505859375">
        <ele>974.4000244140625</ele>
        <time>2020-08-16T15:19:16.000Z</time>
      </trkpt>
      <trkpt lat="42.612868845462799072265625" lon="-0.12436204589903354644775390625">
        <ele>975.4000244140625</ele>
        <time>2020-08-16T15:19:19.000Z</time>
      </trkpt>
      <trkpt lat="42.6129417680203914642333984375" lon="-0.1242548413574695587158203125">
        <ele>976.20001220703125</ele>
        <time>2020-08-16T15:19:24.000Z</time>
      </trkpt>
      <trkpt lat="42.6129652373492717742919921875" lon="-0.12420664541423320770263671875">
        <ele>976.4000244140625</ele>
        <time>2020-08-16T15:19:26.000Z</time>
      </trkpt>
      <trkpt lat="42.61301997117698192596435546875" lon="-0.1240157894790172576904296875">
        <ele>977.4000244140625</ele>
        <time>2020-08-16T15:19:33.000Z</time>
      </trkpt>
      <trkpt lat="42.61303723789751529693603515625" lon="-0.12379668653011322021484375">
        <ele>978.5999755859375</ele>
        <time>2020-08-16T15:19:40.000Z</time>
      </trkpt>
      <trkpt lat="42.61303757317364215850830078125" lon="-0.123707838356494903564453125">
        <ele>979.20001220703125</ele>
        <time>2020-08-16T15:19:43.000Z</time>
      </trkpt>
      <trkpt lat="42.61303958483040332794189453125" lon="-0.123524107038974761962890625">
        <ele>979.79998779296875</ele>
        <time>2020-08-16T15:19:49.000Z</time>
      </trkpt>
      <trkpt lat="42.61303271166980266571044921875" lon="-0.1234364323318004608154296875">
        <ele>980.20001220703125</ele>
        <time>2020-08-16T15:19:52.000Z</time>
      </trkpt>
      <trkpt lat="42.6130343042314052581787109375" lon="-0.12332134880125522613525390625">
        <ele>980.79998779296875</ele>
        <time>2020-08-16T15:19:56.000Z</time>
      </trkpt>
      <trkpt lat="42.61303405277431011199951171875" lon="-0.12319989502429962158203125">
        <ele>981.4000244140625</ele>
        <time>2020-08-16T15:20:00.000Z</time>
      </trkpt>
      <trkpt lat="42.6130311191082000732421875" lon="-0.12310878373682498931884765625">
        <ele>982</ele>
        <time>2020-08-16T15:20:03.000Z</time>
      </trkpt>
      <trkpt lat="42.613027095794677734375" lon="-0.12299277819693088531494140625">
        <ele>982.5999755859375</ele>
        <time>2020-08-16T15:20:07.000Z</time>
      </trkpt>
      <trkpt lat="42.613027095794677734375" lon="-0.1229351945221424102783203125">
        <ele>983</ele>
        <time>2020-08-16T15:20:09.000Z</time>
      </trkpt>
      <trkpt lat="42.61301913298666477203369140625" lon="-0.12270745821297168731689453125">
        <ele>984</ele>
        <time>2020-08-16T15:20:17.000Z</time>
      </trkpt>
      <trkpt lat="42.61301946826279163360595703125" lon="-0.12267895974218845367431640625">
        <ele>984</ele>
        <time>2020-08-16T15:20:18.000Z</time>
      </trkpt>
      <trkpt lat="42.6130098290741443634033203125" lon="-0.12253730557858943939208984375">
        <ele>985.20001220703125</ele>
        <time>2020-08-16T15:20:23.000Z</time>
      </trkpt>
      <trkpt lat="42.61300052516162395477294921875" lon="-0.1224235631525516510009765625">
        <ele>985.5999755859375</ele>
        <time>2020-08-16T15:20:27.000Z</time>
      </trkpt>
      <trkpt lat="42.61298627592623233795166015625" lon="-0.12225785292685031890869140625">
        <ele>986</ele>
        <time>2020-08-16T15:20:33.000Z</time>
      </trkpt>
      <trkpt lat="42.6129783131182193756103515625" lon="-0.12217235751450061798095703125">
        <ele>986.4000244140625</ele>
        <time>2020-08-16T15:20:36.000Z</time>
      </trkpt>
      <trkpt lat="42.61297621764242649078369140625" lon="-0.12214385904371738433837890625">
        <ele>986.79998779296875</ele>
        <time>2020-08-16T15:20:37.000Z</time>
      </trkpt>
      <trkpt lat="42.61296448297798633575439453125" lon="-0.12205651961266994476318359375">
        <ele>987.20001220703125</ele>
        <time>2020-08-16T15:20:40.000Z</time>
      </trkpt>
      <trkpt lat="42.61294872500002384185791015625" lon="-0.12191469781100749969482421875">
        <ele>988</ele>
        <time>2020-08-16T15:20:45.000Z</time>
      </trkpt>
      <trkpt lat="42.61294101364910602569580078125" lon="-0.1218606345355510711669921875">
        <ele>988.20001220703125</ele>
        <time>2020-08-16T15:20:47.000Z</time>
      </trkpt>
      <trkpt lat="42.6129025407135486602783203125" lon="-0.12165938504040241241455078125">
        <ele>989.20001220703125</ele>
        <time>2020-08-16T15:20:54.000Z</time>
      </trkpt>
      <trkpt lat="42.61288301087915897369384765625" lon="-0.12157405726611614227294921875">
        <ele>989.20001220703125</ele>
        <time>2020-08-16T15:20:57.000Z</time>
      </trkpt>
      <trkpt lat="42.6128433644771575927734375" lon="-0.12140139006078243255615234375">
        <ele>990.20001220703125</ele>
        <time>2020-08-16T15:21:03.000Z</time>
      </trkpt>
      <trkpt lat="42.61279977858066558837890625" lon="-0.1212345063686370849609375">
        <ele>991.20001220703125</ele>
        <time>2020-08-16T15:21:09.000Z</time>
      </trkpt>
      <trkpt lat="42.612792737782001495361328125" lon="-0.121207349002361297607421875">
        <ele>991.4000244140625</ele>
        <time>2020-08-16T15:21:10.000Z</time>
      </trkpt>
      <trkpt lat="42.61277035810053348541259765625" lon="-0.12100190855562686920166015625">
        <ele>992.5999755859375</ele>
        <time>2020-08-16T15:21:17.000Z</time>
      </trkpt>
      <trkpt lat="42.61276784352958202362060546875" lon="-0.1209728233516216278076171875">
        <ele>992.5999755859375</ele>
        <time>2020-08-16T15:21:18.000Z</time>
      </trkpt>
      <trkpt lat="42.61277756653726100921630859375" lon="-0.1207964681088924407958984375">
        <ele>993.5999755859375</ele>
        <time>2020-08-16T15:21:24.000Z</time>
      </trkpt>
      <trkpt lat="42.6127915643155574798583984375" lon="-0.1207404769957065582275390625">
        <ele>993.79998779296875</ele>
        <time>2020-08-16T15:21:26.000Z</time>
      </trkpt>
      <trkpt lat="42.6128636486828327178955078125" lon="-0.12051827274262905120849609375">
        <ele>994.79998779296875</ele>
        <time>2020-08-16T15:21:34.000Z</time>
      </trkpt>
      <trkpt lat="42.6128763891756534576416015625" lon="-0.12049329467117786407470703125">
        <ele>994.79998779296875</ele>
        <time>2020-08-16T15:21:35.000Z</time>
      </trkpt>
      <trkpt lat="42.6129773072898387908935546875" lon="-0.1202855072915554046630859375">
        <ele>995.79998779296875</ele>
        <time>2020-08-16T15:21:43.000Z</time>
      </trkpt>
      <trkpt lat="42.6129897125065326690673828125" lon="-0.12025885283946990966796875">
        <ele>995.79998779296875</ele>
        <time>2020-08-16T15:21:44.000Z</time>
      </trkpt>
      <trkpt lat="42.6131107471883296966552734375" lon="-0.1200736127793788909912109375">
        <ele>996.79998779296875</ele>
        <time>2020-08-16T15:21:52.000Z</time>
      </trkpt>
      <trkpt lat="42.61312793008983135223388671875" lon="-0.12005156837403774261474609375">
        <ele>996.79998779296875</ele>
        <time>2020-08-16T15:21:53.000Z</time>
      </trkpt>
      <trkpt lat="42.61330244131386280059814453125" lon="-0.11991326697170734405517578125">
        <ele>997.4000244140625</ele>
        <time>2020-08-16T15:22:01.000Z</time>
      </trkpt>
      <trkpt lat="42.61337268166244029998779296875" lon="-0.119884014129638671875">
        <ele>998</ele>
        <time>2020-08-16T15:22:04.000Z</time>
      </trkpt>
      <trkpt lat="42.61350729502737522125244140625" lon="-0.1198677532374858856201171875">
        <ele>998.4000244140625</ele>
        <time>2020-08-16T15:22:09.000Z</time>
      </trkpt>
      <trkpt lat="42.61374852620065212249755859375" lon="-0.1199039630591869354248046875">
        <ele>998</ele>
        <time>2020-08-16T15:22:17.000Z</time>
      </trkpt>
      <trkpt lat="42.61394550092518329620361328125" lon="-0.11986716650426387786865234375">
        <ele>997.5999755859375</ele>
        <time>2020-08-16T15:22:23.000Z</time>
      </trkpt>
      <trkpt lat="42.6141001470386981964111328125" lon="-0.1197074912488460540771484375">
        <ele>998.20001220703125</ele>
        <time>2020-08-16T15:22:30.000Z</time>
      </trkpt>
      <trkpt lat="42.61417868547141551971435546875" lon="-0.11947824619710445404052734375">
        <ele>998.5999755859375</ele>
        <time>2020-08-16T15:22:37.000Z</time>
      </trkpt>
      <trkpt lat="42.6141950301826000213623046875" lon="-0.11941169388592243194580078125">
        <ele>999</ele>
        <time>2020-08-16T15:22:39.000Z</time>
      </trkpt>
      <trkpt lat="42.61427692137658596038818359375" lon="-0.11919611133635044097900390625">
        <ele>1000.20001220703125</ele>
        <time>2020-08-16T15:22:46.000Z</time>
      </trkpt>
      <trkpt lat="42.6144082657992839813232421875" lon="-0.119048841297626495361328125">
        <ele>1001.20001220703125</ele>
        <time>2020-08-16T15:22:53.000Z</time>
      </trkpt>
      <trkpt lat="42.614430226385593414306640625" lon="-0.1190355978906154632568359375">
        <ele>1001.4000244140625</ele>
        <time>2020-08-16T15:22:54.000Z</time>
      </trkpt>
      <trkpt lat="42.61462426744401454925537109375" lon="-0.1189672015607357025146484375">
        <ele>1002</ele>
        <time>2020-08-16T15:23:02.000Z</time>
      </trkpt>
      <trkpt lat="42.61467196047306060791015625" lon="-0.11894951574504375457763671875">
        <ele>1002.4000244140625</ele>
        <time>2020-08-16T15:23:04.000Z</time>
      </trkpt>
      <trkpt lat="42.61481151916086673736572265625" lon="-0.1188662834465503692626953125">
        <ele>1003</ele>
        <time>2020-08-16T15:23:10.000Z</time>
      </trkpt>
      <trkpt lat="42.6149121858179569244384765625" lon="-0.1187480986118316650390625">
        <ele>1003.5999755859375</ele>
        <time>2020-08-16T15:23:15.000Z</time>
      </trkpt>
      <trkpt lat="42.61495686136186122894287109375" lon="-0.11866721324622631072998046875">
        <ele>1004</ele>
        <time>2020-08-16T15:23:18.000Z</time>
      </trkpt>
      <trkpt lat="42.61504000984132289886474609375" lon="-0.11849001981317996978759765625">
        <ele>1004.79998779296875</ele>
        <time>2020-08-16T15:23:24.000Z</time>
      </trkpt>
      <trkpt lat="42.61507353745400905609130859375" lon="-0.1184371300041675567626953125">
        <ele>1005.20001220703125</ele>
        <time>2020-08-16T15:23:26.000Z</time>
      </trkpt>
      <trkpt lat="42.61523279361426830291748046875" lon="-0.11826354078948497772216796875">
        <ele>1005.79998779296875</ele>
        <time>2020-08-16T15:23:34.000Z</time>
      </trkpt>
      <trkpt lat="42.61525609530508518218994140625" lon="-0.118245184421539306640625">
        <ele>1006</ele>
        <time>2020-08-16T15:23:35.000Z</time>
      </trkpt>
      <trkpt lat="42.615449465811252593994140625" lon="-0.1181575097143650054931640625">
        <ele>1007</ele>
        <time>2020-08-16T15:23:43.000Z</time>
      </trkpt>
      <trkpt lat="42.615649960935115814208984375" lon="-0.11821291409432888031005859375">
        <ele>1008</ele>
        <time>2020-08-16T15:23:51.000Z</time>
      </trkpt>
      <trkpt lat="42.61583880521357059478759765625" lon="-0.1182269118726253509521484375">
        <ele>1008.4000244140625</ele>
        <time>2020-08-16T15:23:58.000Z</time>
      </trkpt>
      <trkpt lat="42.6159763522446155548095703125" lon="-0.11812289245426654815673828125">
        <ele>1008.4000244140625</ele>
        <time>2020-08-16T15:24:03.000Z</time>
      </trkpt>
      <trkpt lat="42.6161443255841732025146484375" lon="-0.117861963808536529541015625">
        <ele>1008.4000244140625</ele>
        <time>2020-08-16T15:24:11.000Z</time>
      </trkpt>
      <trkpt lat="42.6162995584309101104736328125" lon="-0.11748670600354671478271484375">
        <ele>1008</ele>
        <time>2020-08-16T15:24:21.000Z</time>
      </trkpt>
      <trkpt lat="42.61644213460385799407958984375" lon="-0.11722267605364322662353515625">
        <ele>1008.20001220703125</ele>
        <time>2020-08-16T15:24:28.000Z</time>
      </trkpt>
      <trkpt lat="42.616674900054931640625" lon="-0.11701111681759357452392578125">
        <ele>1008</ele>
        <time>2020-08-16T15:24:36.000Z</time>
      </trkpt>
      <trkpt lat="42.6169241778552532196044921875" lon="-0.11688890866935253143310546875">
        <ele>1008</ele>
        <time>2020-08-16T15:24:43.000Z</time>
      </trkpt>
      <trkpt lat="42.61722282506525516510009765625" lon="-0.11673300527036190032958984375">
        <ele>1008.20001220703125</ele>
        <time>2020-08-16T15:24:52.000Z</time>
      </trkpt>
      <trkpt lat="42.61759095825254917144775390625" lon="-0.11654307134449481964111328125">
        <ele>1008.20001220703125</ele>
        <time>2020-08-16T15:25:03.000Z</time>
      </trkpt>
      <trkpt lat="42.617975436151027679443359375" lon="-0.11634106747806072235107421875">
        <ele>1008.4000244140625</ele>
        <time>2020-08-16T15:25:14.000Z</time>
      </trkpt>
      <trkpt lat="42.61836242862045764923095703125" lon="-0.11616253294050693511962890625">
        <ele>1008.5999755859375</ele>
        <time>2020-08-16T15:25:25.000Z</time>
      </trkpt>
      <trkpt lat="42.61859728954732418060302734375" lon="-0.1160922087728977203369140625">
        <ele>1009</ele>
        <time>2020-08-16T15:25:32.000Z</time>
      </trkpt>
      <trkpt lat="42.61863132007420063018798828125" lon="-0.11608223430812358856201171875">
        <ele>1009</ele>
        <time>2020-08-16T15:25:33.000Z</time>
      </trkpt>
      <trkpt lat="42.6189775764942169189453125" lon="-0.11596371419727802276611328125">
        <ele>1008.79998779296875</ele>
        <time>2020-08-16T15:25:43.000Z</time>
      </trkpt>
      <trkpt lat="42.619297765195369720458984375" lon="-0.11586832813918590545654296875">
        <ele>1009</ele>
        <time>2020-08-16T15:25:52.000Z</time>
      </trkpt>
      <trkpt lat="42.61956539936363697052001953125" lon="-0.1157874427735805511474609375">
        <ele>1008.79998779296875</ele>
        <time>2020-08-16T15:26:00.000Z</time>
      </trkpt>
      <trkpt lat="42.61988474987447261810302734375" lon="-0.115688033401966094970703125">
        <ele>1008.4000244140625</ele>
        <time>2020-08-16T15:26:09.000Z</time>
      </trkpt>
      <trkpt lat="42.62008725665509700775146484375" lon="-0.11551913805305957794189453125">
        <ele>1008</ele>
        <time>2020-08-16T15:26:15.000Z</time>
      </trkpt>
      <trkpt lat="42.6203047670423984527587890625" lon="-0.11516575701534748077392578125">
        <ele>1007.5999755859375</ele>
        <time>2020-08-16T15:26:23.000Z</time>
      </trkpt>
      <trkpt lat="42.62052445672452449798583984375" lon="-0.11484481394290924072265625">
        <ele>1007</ele>
        <time>2020-08-16T15:26:30.000Z</time>
      </trkpt>
      <trkpt lat="42.62056368403136730194091796875" lon="-0.11480164714157581329345703125">
        <ele>1007</ele>
        <time>2020-08-16T15:26:31.000Z</time>
      </trkpt>
      <trkpt lat="42.6208294741809368133544921875" lon="-0.11460634879767894744873046875">
        <ele>1006.20001220703125</ele>
        <time>2020-08-16T15:26:37.000Z</time>
      </trkpt>
      <trkpt lat="42.62101043947041034698486328125" lon="-0.11453501880168914794921875">
        <ele>1006</ele>
        <time>2020-08-16T15:26:41.000Z</time>
      </trkpt>
      <trkpt lat="42.62124060653150081634521484375" lon="-0.11447492055594921112060546875">
        <ele>1005.5999755859375</ele>
        <time>2020-08-16T15:26:46.000Z</time>
      </trkpt>
      <trkpt lat="42.62144143693149089813232421875" lon="-0.11443443596363067626953125">
        <ele>1005</ele>
        <time>2020-08-16T15:26:50.000Z</time>
      </trkpt>
      <trkpt lat="42.62169691734015941619873046875" lon="-0.1143947057425975799560546875">
        <ele>1004.4000244140625</ele>
        <time>2020-08-16T15:26:55.000Z</time>
      </trkpt>
      <trkpt lat="42.62206136249005794525146484375" lon="-0.1143251359462738037109375">
        <ele>1004</ele>
        <time>2020-08-16T15:27:02.000Z</time>
      </trkpt>
      <trkpt lat="42.62227065861225128173828125" lon="-0.1142750121653079986572265625">
        <ele>1003.79998779296875</ele>
        <time>2020-08-16T15:27:06.000Z</time>
      </trkpt>
      <trkpt lat="42.62274884618818759918212890625" lon="-0.1141295023262500762939453125">
        <ele>1003</ele>
        <time>2020-08-16T15:27:15.000Z</time>
      </trkpt>
      <trkpt lat="42.6228511892259120941162109375" lon="-0.11410050094127655029296875">
        <ele>1002.5999755859375</ele>
        <time>2020-08-16T15:27:17.000Z</time>
      </trkpt>
      <trkpt lat="42.6232193224132061004638671875" lon="-0.11398642323911190032958984375">
        <ele>1002.20001220703125</ele>
        <time>2020-08-16T15:27:25.000Z</time>
      </trkpt>
      <trkpt lat="42.62342375703155994415283203125" lon="-0.1138914562761783599853515625">
        <ele>1002.20001220703125</ele>
        <time>2020-08-16T15:27:30.000Z</time>
      </trkpt>
      <trkpt lat="42.6234962604939937591552734375" lon="-0.113838650286197662353515625">
        <ele>1002.20001220703125</ele>
        <time>2020-08-16T15:27:32.000Z</time>
      </trkpt>
      <trkpt lat="42.6236863620579242706298828125" lon="-0.113618709146976470947265625">
        <ele>1002.20001220703125</ele>
        <time>2020-08-16T15:27:39.000Z</time>
      </trkpt>
      <trkpt lat="42.62383195571601390838623046875" lon="-0.11333984322845935821533203125">
        <ele>1002</ele>
        <time>2020-08-16T15:27:46.000Z</time>
      </trkpt>
      <trkpt lat="42.6238489709794521331787109375" lon="-0.113299190998077392578125">
        <ele>1001.79998779296875</ele>
        <time>2020-08-16T15:27:47.000Z</time>
      </trkpt>
      <trkpt lat="42.6238643936812877655029296875" lon="-0.1132574491202831268310546875">
        <ele>1001.79998779296875</ele>
        <time>2020-08-16T15:27:48.000Z</time>
      </trkpt>
      <trkpt lat="42.6240015216171741485595703125" lon="-0.11290783993899822235107421875">
        <ele>1001.79998779296875</ele>
        <time>2020-08-16T15:27:57.000Z</time>
      </trkpt>
      <trkpt lat="42.624178715050220489501953125" lon="-0.112593434751033782958984375">
        <ele>1001.79998779296875</ele>
        <time>2020-08-16T15:28:07.000Z</time>
      </trkpt>
      <trkpt lat="42.62438021600246429443359375" lon="-0.112391598522663116455078125">
        <ele>1001.4000244140625</ele>
        <time>2020-08-16T15:28:14.000Z</time>
      </trkpt>
      <trkpt lat="42.62459655292332172393798828125" lon="-0.1122559793293476104736328125">
        <ele>1001.4000244140625</ele>
        <time>2020-08-16T15:28:21.000Z</time>
      </trkpt>
      <trkpt lat="42.624863348901271820068359375" lon="-0.1121121458709239959716796875">
        <ele>1001.20001220703125</ele>
        <time>2020-08-16T15:28:30.000Z</time>
      </trkpt>
      <trkpt lat="42.625139616429805755615234375" lon="-0.11203058995306491851806640625">
        <ele>1001.4000244140625</ele>
        <time>2020-08-16T15:28:38.000Z</time>
      </trkpt>
      <trkpt lat="42.6254059933125972747802734375" lon="-0.1120025105774402618408203125">
        <ele>1001</ele>
        <time>2020-08-16T15:28:45.000Z</time>
      </trkpt>
      <trkpt lat="42.6255213283002376556396484375" lon="-0.11198733933269977569580078125">
        <ele>1001</ele>
        <time>2020-08-16T15:28:48.000Z</time>
      </trkpt>
      <trkpt lat="42.6258854381740093231201171875" lon="-0.11193084530532360076904296875">
        <ele>1000.4000244140625</ele>
        <time>2020-08-16T15:28:58.000Z</time>
      </trkpt>
      <trkpt lat="42.62614988721907138824462890625" lon="-0.111890025436878204345703125">
        <ele>1000.4000244140625</ele>
        <time>2020-08-16T15:29:06.000Z</time>
      </trkpt>
      <trkpt lat="42.62650184333324432373046875" lon="-0.11182305403053760528564453125">
        <ele>1000.20001220703125</ele>
        <time>2020-08-16T15:29:16.000Z</time>
      </trkpt>
      <trkpt lat="42.6266760192811489105224609375" lon="-0.11181567795574665069580078125">
        <ele>1000</ele>
        <time>2020-08-16T15:29:21.000Z</time>
      </trkpt>
      <trkpt lat="42.6267417334020137786865234375" lon="-0.1118100620806217193603515625">
        <ele>1000</ele>
        <time>2020-08-16T15:29:23.000Z</time>
      </trkpt>
      <trkpt lat="42.62699067592620849609375" lon="-0.11170067824423313140869140625">
        <ele>999.79998779296875</ele>
        <time>2020-08-16T15:29:31.000Z</time>
      </trkpt>
      <trkpt lat="42.62715906836092472076416015625" lon="-0.11150638572871685028076171875">
        <ele>999.5999755859375</ele>
        <time>2020-08-16T15:29:38.000Z</time>
      </trkpt>
      <trkpt lat="42.62729066424071788787841796875" lon="-0.1112089119851589202880859375">
        <ele>999.5999755859375</ele>
        <time>2020-08-16T15:29:46.000Z</time>
      </trkpt>
      <trkpt lat="42.62743868865072727203369140625" lon="-0.110909007489681243896484375">
        <ele>999.79998779296875</ele>
        <time>2020-08-16T15:29:54.000Z</time>
      </trkpt>
      <trkpt lat="42.6276406086981296539306640625" lon="-0.11075972579419612884521484375">
        <ele>999.5999755859375</ele>
        <time>2020-08-16T15:30:01.000Z</time>
      </trkpt>
      <trkpt lat="42.62779559008777141571044921875" lon="-0.11074514128267765045166015625">
        <ele>999.79998779296875</ele>
        <time>2020-08-16T15:30:07.000Z</time>
      </trkpt>
      <trkpt lat="42.6281103305518627166748046875" lon="-0.1107819378376007080078125">
        <ele>1000.79998779296875</ele>
        <time>2020-08-16T15:30:18.000Z</time>
      </trkpt>
      <trkpt lat="42.62826405465602874755859375" lon="-0.11085310019552707672119140625">
        <ele>1000.79998779296875</ele>
        <time>2020-08-16T15:30:23.000Z</time>
      </trkpt>
      <trkpt lat="42.62831107713282108306884765625" lon="-0.11087623424828052520751953125">
        <ele>1001.4000244140625</ele>
        <time>2020-08-16T15:30:27.000Z</time>
      </trkpt>
      <trkpt lat="42.6283094845712184906005859375" lon="-0.11087556369602680206298828125">
        <ele>1001.4000244140625</ele>
        <time>2020-08-16T15:30:38.000Z</time>
      </trkpt>
      <trkpt lat="42.62830873019993305206298828125" lon="-0.1108753122389316558837890625">
        <ele>1001.20001220703125</ele>
        <time>2020-08-16T15:31:05.000Z</time>
      </trkpt>
      <trkpt lat="42.62830906547605991363525390625" lon="-0.11087371967732906341552734375">
        <ele>1001.4000244140625</ele>
        <time>2020-08-16T15:31:34.000Z</time>
      </trkpt>
      <trkpt lat="42.62830923311412334442138671875" lon="-0.110875479876995086669921875">
        <ele>1001.20001220703125</ele>
        <time>2020-08-16T15:32:22.000Z</time>
      </trkpt>
      <trkpt lat="42.62831493280827999114990234375" lon="-0.11088713072240352630615234375">
        <ele>1001</ele>
        <time>2020-08-16T15:32:25.000Z</time>
      </trkpt>
      <trkpt lat="42.62841685675084590911865234375" lon="-0.11099643073976039886474609375">
        <ele>1001.4000244140625</ele>
        <time>2020-08-16T15:32:32.000Z</time>
      </trkpt>
      <trkpt lat="42.62862757779657840728759765625" lon="-0.1112022064626216888427734375">
        <ele>1002.20001220703125</ele>
        <time>2020-08-16T15:32:42.000Z</time>
      </trkpt>
      <trkpt lat="42.6288543082773685455322265625" lon="-0.11143329553306102752685546875">
        <ele>1002.79998779296875</ele>
        <time>2020-08-16T15:32:52.000Z</time>
      </trkpt>
      <trkpt lat="42.62900032103061676025390625" lon="-0.111639238893985748291015625">
        <ele>1003.79998779296875</ele>
        <time>2020-08-16T15:33:00.000Z</time>
      </trkpt>
      <trkpt lat="42.62914105318486690521240234375" lon="-0.1117775402963161468505859375">
        <ele>1003.79998779296875</ele>
        <time>2020-08-16T15:33:08.000Z</time>
      </trkpt>
      <trkpt lat="42.629150860011577606201171875" lon="-0.11179941706359386444091796875">
        <ele>1003.79998779296875</ele>
        <time>2020-08-16T15:33:12.000Z</time>
      </trkpt>
      <trkpt lat="42.62914993800222873687744140625" lon="-0.11180092580616474151611328125">
        <ele>1004</ele>
        <time>2020-08-16T15:33:13.000Z</time>
      </trkpt>
      <trkpt lat="42.62915027327835559844970703125" lon="-0.111807882785797119140625">
        <ele>1004.20001220703125</ele>
        <time>2020-08-16T15:33:14.000Z</time>
      </trkpt>
      <trkpt lat="42.62915320694446563720703125" lon="-0.11184518225491046905517578125">
        <ele>1004.4000244140625</ele>
        <time>2020-08-16T15:33:18.000Z</time>
      </trkpt>
      <trkpt lat="42.62915815226733684539794921875" lon="-0.11186647228896617889404296875">
        <ele>1004.79998779296875</ele>
        <time>2020-08-16T15:33:24.000Z</time>
      </trkpt>
      <trkpt lat="42.62916804291307926177978515625" lon="-0.1118915341794490814208984375">
        <ele>1005</ele>
        <time>2020-08-16T15:33:27.000Z</time>
      </trkpt>
      <trkpt lat="42.6291801966726779937744140625" lon="-0.11194224469363689422607421875">
        <ele>1005.79998779296875</ele>
        <time>2020-08-16T15:33:33.000Z</time>
      </trkpt>
      <trkpt lat="42.6291885785758495330810546875" lon="-0.1119867525994777679443359375">
        <ele>1006.20001220703125</ele>
        <time>2020-08-16T15:33:40.000Z</time>
      </trkpt>
      <trkpt lat="42.6292036660015583038330078125" lon="-0.11205573566257953643798828125">
        <ele>1007.20001220703125</ele>
        <time>2020-08-16T15:33:48.000Z</time>
      </trkpt>
      <trkpt lat="42.62920525856316089630126953125" lon="-0.112086497247219085693359375">
        <ele>1007.79998779296875</ele>
        <time>2020-08-16T15:33:51.000Z</time>
      </trkpt>
      <trkpt lat="42.62920877896249294281005859375" lon="-0.11212580837309360504150390625">
        <ele>1008.4000244140625</ele>
        <time>2020-08-16T15:33:55.000Z</time>
      </trkpt>
      <trkpt lat="42.6292237825691699981689453125" lon="-0.11217945255339145660400390625">
        <ele>1008.5999755859375</ele>
        <time>2020-08-16T15:33:59.000Z</time>
      </trkpt>
      <trkpt lat="42.6292214356362819671630859375" lon="-0.11225271038711071014404296875">
        <ele>1009.5999755859375</ele>
        <time>2020-08-16T15:34:05.000Z</time>
      </trkpt>
      <trkpt lat="42.629218585789203643798828125" lon="-0.112271569669246673583984375">
        <ele>1009.79998779296875</ele>
        <time>2020-08-16T15:34:07.000Z</time>
      </trkpt>
      <trkpt lat="42.62922185473144054412841796875" lon="-0.1123012416064739227294921875">
        <ele>1010</ele>
        <time>2020-08-16T15:34:09.000Z</time>
      </trkpt>
      <trkpt lat="42.6292063482105731964111328125" lon="-0.11235438287258148193359375">
        <ele>1009.79998779296875</ele>
        <time>2020-08-16T15:34:17.000Z</time>
      </trkpt>
      <trkpt lat="42.6292083598673343658447265625" lon="-0.112355053424835205078125">
        <ele>1010</ele>
        <time>2020-08-16T15:34:20.000Z</time>
      </trkpt>
      <trkpt lat="42.6292452402412891387939453125" lon="-0.11235304176807403564453125">
        <ele>1010</ele>
        <time>2020-08-16T15:35:04.000Z</time>
      </trkpt>
      <trkpt lat="42.6292599923908710479736328125" lon="-0.11234926991164684295654296875">
        <ele>1010</ele>
        <time>2020-08-16T15:35:06.000Z</time>
      </trkpt>
      <trkpt lat="42.62933383695781230926513671875" lon="-0.1123324222862720489501953125">
        <ele>1049.199951171875</ele>
        <time>2020-08-18T05:15:13.000Z</time>
      </trkpt>
      <trkpt lat="42.62935579754412174224853515625" lon="-0.112328231334686279296875">
        <ele>1048.5999755859375</ele>
        <time>2020-08-18T05:15:16.000Z</time>
      </trkpt>
      <trkpt lat="42.62941530905663967132568359375" lon="-0.11231004260480403900146484375">
        <ele>1048.4000244140625</ele>
        <time>2020-08-18T05:15:19.000Z</time>
      </trkpt>
      <trkpt lat="42.62953885830938816070556640625" lon="-0.11235329322516918182373046875">
        <ele>1047.800048828125</ele>
        <time>2020-08-18T05:15:24.000Z</time>
      </trkpt>
      <trkpt lat="42.62956635095179080963134765625" lon="-0.1123629324138164520263671875">
        <ele>1047.5999755859375</ele>
        <time>2020-08-18T05:15:25.000Z</time>
      </trkpt>
      <trkpt lat="42.6296740584075450897216796875" lon="-0.11237491853535175323486328125">
        <ele>1046.800048828125</ele>
        <time>2020-08-18T05:15:30.000Z</time>
      </trkpt>
      <trkpt lat="42.62968051247298717498779296875" lon="-0.1122918538749217987060546875">
        <ele>1046.5999755859375</ele>
        <time>2020-08-18T05:15:33.000Z</time>
      </trkpt>
      <trkpt lat="42.629565261304378509521484375" lon="-0.1121748425066471099853515625">
        <ele>1046</ele>
        <time>2020-08-18T05:15:38.000Z</time>
      </trkpt>
      <trkpt lat="42.629537768661975860595703125" lon="-0.1121510379016399383544921875">
        <ele>1046</ele>
        <time>2020-08-18T05:15:39.000Z</time>
      </trkpt>
      <trkpt lat="42.62950750999152660369873046875" lon="-0.112125389277935028076171875">
        <ele>1045.800048828125</ele>
        <time>2020-08-18T05:15:40.000Z</time>
      </trkpt>
      <trkpt lat="42.629383541643619537353515625" lon="-0.1120001636445522308349609375">
        <ele>1045.199951171875</ele>
        <time>2020-08-18T05:15:44.000Z</time>
      </trkpt>
      <trkpt lat="42.62931548058986663818359375" lon="-0.11193729937076568603515625">
        <ele>1045</ele>
        <time>2020-08-18T05:15:46.000Z</time>
      </trkpt>
      <trkpt lat="42.62916703708469867706298828125" lon="-0.111808218061923980712890625">
        <ele>1045</ele>
        <time>2020-08-18T05:15:50.000Z</time>
      </trkpt>
      <trkpt lat="42.62913267128169536590576171875" lon="-0.11176756583154201507568359375">
        <ele>1044.800048828125</ele>
        <time>2020-08-18T05:15:51.000Z</time>
      </trkpt>
      <trkpt lat="42.62909662909805774688720703125" lon="-0.11172900907695293426513671875">
        <ele>1044.5999755859375</ele>
        <time>2020-08-18T05:15:52.000Z</time>
      </trkpt>
      <trkpt lat="42.62905723415315151214599609375" lon="-0.11169263161718845367431640625">
        <ele>1044.4000244140625</ele>
        <time>2020-08-18T05:15:53.000Z</time>
      </trkpt>
      <trkpt lat="42.6289525441825389862060546875" lon="-0.1115777157247066497802734375">
        <ele>1043.800048828125</ele>
        <time>2020-08-18T05:15:56.000Z</time>
      </trkpt>
      <trkpt lat="42.6288801245391368865966796875" lon="-0.11150722391903400421142578125">
        <ele>1043.5999755859375</ele>
        <time>2020-08-18T05:15:58.000Z</time>
      </trkpt>
      <trkpt lat="42.62884181924164295196533203125" lon="-0.11147201992571353912353515625">
        <ele>1043.5999755859375</ele>
        <time>2020-08-18T05:15:59.000Z</time>
      </trkpt>
      <trkpt lat="42.6286844909191131591796875" lon="-0.11131234467029571533203125">
        <ele>1043</ele>
        <time>2020-08-18T05:16:03.000Z</time>
      </trkpt>
      <trkpt lat="42.62848173268139362335205078125" lon="-0.11112048290669918060302734375">
        <ele>1042.5999755859375</ele>
        <time>2020-08-18T05:16:08.000Z</time>
      </trkpt>
      <trkpt lat="42.628454826772212982177734375" lon="-0.1110915653407573699951171875">
        <ele>1042.199951171875</ele>
        <time>2020-08-18T05:16:09.000Z</time>
      </trkpt>
      <trkpt lat="42.62828308157622814178466796875" lon="-0.11095024645328521728515625">
        <ele>1041.800048828125</ele>
        <time>2020-08-18T05:16:16.000Z</time>
      </trkpt>
      <trkpt lat="42.6280928961932659149169921875" lon="-0.11084840632975101470947265625">
        <ele>1041.4000244140625</ele>
        <time>2020-08-18T05:16:22.000Z</time>
      </trkpt>
      <trkpt lat="42.62799038551747798919677734375" lon="-0.1107894815504550933837890625">
        <ele>1040.800048828125</ele>
        <time>2020-08-18T05:16:26.000Z</time>
      </trkpt>
      <trkpt lat="42.6279141940176486968994140625" lon="-0.1107683591544628143310546875">
        <ele>1040.4000244140625</ele>
        <time>2020-08-18T05:16:28.000Z</time>
      </trkpt>
      <trkpt lat="42.627760134637355804443359375" lon="-0.110740698873996734619140625">
        <ele>1040.199951171875</ele>
        <time>2020-08-18T05:16:31.000Z</time>
      </trkpt>
      <trkpt lat="42.62772702611982822418212890625" lon="-0.11079409159719944000244140625">
        <ele>1040.199951171875</ele>
        <time>2020-08-18T05:16:32.000Z</time>
      </trkpt>
      <trkpt lat="42.6276295445859432220458984375" lon="-0.11083331890404224395751953125">
        <ele>1039.800048828125</ele>
        <time>2020-08-18T05:16:34.000Z</time>
      </trkpt>
      <trkpt lat="42.62750423513352870941162109375" lon="-0.11086600832641124725341796875">
        <ele>1039.800048828125</ele>
        <time>2020-08-18T05:16:37.000Z</time>
      </trkpt>
      <trkpt lat="42.62747053988277912139892578125" lon="-0.1108887232840061187744140625">
        <ele>1039.5999755859375</ele>
        <time>2020-08-18T05:16:38.000Z</time>
      </trkpt>
      <trkpt lat="42.62736626900732517242431640625" lon="-0.111003555357456207275390625">
        <ele>1039.4000244140625</ele>
        <time>2020-08-18T05:16:42.000Z</time>
      </trkpt>
      <trkpt lat="42.6272704638540744781494140625" lon="-0.1112015359103679656982421875">
        <ele>1039.800048828125</ele>
        <time>2020-08-18T05:16:48.000Z</time>
      </trkpt>
      <trkpt lat="42.6271893270313739776611328125" lon="-0.11139054782688617706298828125">
        <ele>1039.5999755859375</ele>
        <time>2020-08-18T05:16:54.000Z</time>
      </trkpt>
      <trkpt lat="42.627078853547573089599609375" lon="-0.111592300236225128173828125">
        <ele>1039.800048828125</ele>
        <time>2020-08-18T05:17:01.000Z</time>
      </trkpt>
      <trkpt lat="42.62694398872554302215576171875" lon="-0.11172733269631862640380859375">
        <ele>1040</ele>
        <time>2020-08-18T05:17:07.000Z</time>
      </trkpt>
      <trkpt lat="42.626805268228054046630859375" lon="-0.11181668378412723541259765625">
        <ele>1040</ele>
        <time>2020-08-18T05:17:13.000Z</time>
      </trkpt>
      <trkpt lat="42.62657552026212215423583984375" lon="-0.11188139207661151885986328125">
        <ele>1040</ele>
        <time>2020-08-18T05:17:22.000Z</time>
      </trkpt>
      <trkpt lat="42.6263561658561229705810546875" lon="-0.1119099743664264678955078125">
        <ele>1040.199951171875</ele>
        <time>2020-08-18T05:17:30.000Z</time>
      </trkpt>
      <trkpt lat="42.62632825411856174468994140625" lon="-0.111915171146392822265625">
        <ele>1040.199951171875</ele>
        <time>2020-08-18T05:17:31.000Z</time>
      </trkpt>
      <trkpt lat="42.6260411739349365234375" lon="-0.11196772567927837371826171875">
        <ele>1040.199951171875</ele>
        <time>2020-08-18T05:17:41.000Z</time>
      </trkpt>
      <trkpt lat="42.62568871490657329559326171875" lon="-0.11203008703887462615966796875">
        <ele>1040</ele>
        <time>2020-08-18T05:17:53.000Z</time>
      </trkpt>
      <trkpt lat="42.62542317621409893035888671875" lon="-0.11207551695406436920166015625">
        <ele>1040.199951171875</ele>
        <time>2020-08-18T05:18:02.000Z</time>
      </trkpt>
      <trkpt lat="42.6252363435924053192138671875" lon="-0.11209948919713497161865234375">
        <ele>1040.800048828125</ele>
        <time>2020-08-18T05:18:09.000Z</time>
      </trkpt>
      <trkpt lat="42.62496032752096652984619140625" lon="-0.1121446676552295684814453125">
        <ele>1040.5999755859375</ele>
        <time>2020-08-18T05:18:18.000Z</time>
      </trkpt>
      <trkpt lat="42.62469344772398471832275390625" lon="-0.1122767664492130279541015625">
        <ele>1040.800048828125</ele>
        <time>2020-08-18T05:18:27.000Z</time>
      </trkpt>
      <trkpt lat="42.62466453015804290771484375" lon="-0.11229445226490497589111328125">
        <ele>1040.800048828125</ele>
        <time>2020-08-18T05:18:28.000Z</time>
      </trkpt>
      <trkpt lat="42.62446110136806964874267578125" lon="-0.112439207732677459716796875">
        <ele>1041</ele>
        <time>2020-08-18T05:18:35.000Z</time>
      </trkpt>
      <trkpt lat="42.6241969875991344451904296875" lon="-0.11262260377407073974609375">
        <ele>1041</ele>
        <time>2020-08-18T05:18:44.000Z</time>
      </trkpt>
      <trkpt lat="42.62404200620949268341064453125" lon="-0.1128403656184673309326171875">
        <ele>1041.5999755859375</ele>
        <time>2020-08-18T05:18:51.000Z</time>
      </trkpt>
      <trkpt lat="42.6238798163831233978271484375" lon="-0.11317974887788295745849609375">
        <ele>1041.4000244140625</ele>
        <time>2020-08-18T05:19:00.000Z</time>
      </trkpt>
      <trkpt lat="42.62376758269965648651123046875" lon="-0.1134602911770343780517578125">
        <ele>1041.5999755859375</ele>
        <time>2020-08-18T05:19:08.000Z</time>
      </trkpt>
      <trkpt lat="42.6237390004098415374755859375" lon="-0.11352826841175556182861328125">
        <ele>1042</ele>
        <time>2020-08-18T05:19:10.000Z</time>
      </trkpt>
      <trkpt lat="42.62363967485725879669189453125" lon="-0.11368417181074619293212890625">
        <ele>1042</ele>
        <time>2020-08-18T05:19:15.000Z</time>
      </trkpt>
      <trkpt lat="42.62348142452538013458251953125" lon="-0.11388533748686313629150390625">
        <ele>1042</ele>
        <time>2020-08-18T05:19:22.000Z</time>
      </trkpt>
      <trkpt lat="42.62328042648732662200927734375" lon="-0.114010311663150787353515625">
        <ele>1042.199951171875</ele>
        <time>2020-08-18T05:19:29.000Z</time>
      </trkpt>
      <trkpt lat="42.622978426516056060791015625" lon="-0.11412472464144229888916015625">
        <ele>1041.5999755859375</ele>
        <time>2020-08-18T05:19:39.000Z</time>
      </trkpt>
      <trkpt lat="42.6227968744933605194091796875" lon="-0.11418222449719905853271484375">
        <ele>1041.800048828125</ele>
        <time>2020-08-18T05:19:45.000Z</time>
      </trkpt>
      <trkpt lat="42.62257265858352184295654296875" lon="-0.11424894444644451141357421875">
        <ele>1041.800048828125</ele>
        <time>2020-08-18T05:19:52.000Z</time>
      </trkpt>
      <trkpt lat="42.62226127088069915771484375" lon="-0.114331506192684173583984375">
        <ele>1042.4000244140625</ele>
        <time>2020-08-18T05:20:02.000Z</time>
      </trkpt>
      <trkpt lat="42.62193177826702594757080078125" lon="-0.11440551839768886566162109375">
        <ele>1043.4000244140625</ele>
        <time>2020-08-18T05:20:13.000Z</time>
      </trkpt>
      <trkpt lat="42.62172055430710315704345703125" lon="-0.1144413091242313385009765625">
        <ele>1043.5999755859375</ele>
        <time>2020-08-18T05:20:20.000Z</time>
      </trkpt>
      <trkpt lat="42.621690966188907623291015625" lon="-0.114447511732578277587890625">
        <ele>1043.5999755859375</ele>
        <time>2020-08-18T05:20:21.000Z</time>
      </trkpt>
      <trkpt lat="42.621247731149196624755859375" lon="-0.11452236212790012359619140625">
        <ele>1044.5999755859375</ele>
        <time>2020-08-18T05:20:36.000Z</time>
      </trkpt>
      <trkpt lat="42.62105486355721950531005859375" lon="-0.11457449756562709808349609375">
        <ele>1045</ele>
        <time>2020-08-18T05:20:43.000Z</time>
      </trkpt>
      <trkpt lat="42.62102519161999225616455078125" lon="-0.11458036489784717559814453125">
        <ele>1045.199951171875</ele>
        <time>2020-08-18T05:20:44.000Z</time>
      </trkpt>
      <trkpt lat="42.6208267919719219207763671875" lon="-0.114652700722217559814453125">
        <ele>1045.199951171875</ele>
        <time>2020-08-18T05:20:51.000Z</time>
      </trkpt>
      <trkpt lat="42.62061028741300106048583984375" lon="-0.114776752889156341552734375">
        <ele>1045.5999755859375</ele>
        <time>2020-08-18T05:20:59.000Z</time>
      </trkpt>
      <trkpt lat="42.62048791162669658660888671875" lon="-0.1148811914026737213134765625">
        <ele>1046</ele>
        <time>2020-08-18T05:21:04.000Z</time>
      </trkpt>
      <trkpt lat="42.6204278133809566497802734375" lon="-0.1149500906467437744140625">
        <ele>1046</ele>
        <time>2020-08-18T05:21:07.000Z</time>
      </trkpt>
      <trkpt lat="42.62040895409882068634033203125" lon="-0.11497624218463897705078125">
        <ele>1046.199951171875</ele>
        <time>2020-08-18T05:21:08.000Z</time>
      </trkpt>
      <trkpt lat="42.6202300004661083221435546875" lon="-0.115262232720851898193359375">
        <ele>1046.5999755859375</ele>
        <time>2020-08-18T05:21:18.000Z</time>
      </trkpt>
      <trkpt lat="42.6200714148581027984619140625" lon="-0.11553070507943630218505859375">
        <ele>1047.4000244140625</ele>
        <time>2020-08-18T05:21:27.000Z</time>
      </trkpt>
      <trkpt lat="42.62003394775092601776123046875" lon="-0.1155911386013031005859375">
        <ele>1047.5999755859375</ele>
        <time>2020-08-18T05:21:29.000Z</time>
      </trkpt>
      <trkpt lat="42.61992800049483776092529296875" lon="-0.11571695096790790557861328125">
        <ele>1048</ele>
        <time>2020-08-18T05:21:34.000Z</time>
      </trkpt>
      <trkpt lat="42.6196969114243984222412109375" lon="-0.11583714745938777923583984375">
        <ele>1048.199951171875</ele>
        <time>2020-08-18T05:21:43.000Z</time>
      </trkpt>
      <trkpt lat="42.61956967413425445556640625" lon="-0.11589062400162220001220703125">
        <ele>1048.5999755859375</ele>
        <time>2020-08-18T05:21:48.000Z</time>
      </trkpt>
      <trkpt lat="42.61951737105846405029296875" lon="-0.11591635644435882568359375">
        <ele>1048.800048828125</ele>
        <time>2020-08-18T05:21:50.000Z</time>
      </trkpt>
      <trkpt lat="42.61927865445613861083984375" lon="-0.11600579135119915008544921875">
        <ele>1048.800048828125</ele>
        <time>2020-08-18T05:21:58.000Z</time>
      </trkpt>
      <trkpt lat="42.61896324343979358673095703125" lon="-0.11611123569309711456298828125">
        <ele>1048.5999755859375</ele>
        <time>2020-08-18T05:22:08.000Z</time>
      </trkpt>
      <trkpt lat="42.6187447272241115570068359375" lon="-0.116190277040004730224609375">
        <ele>1048.4000244140625</ele>
        <time>2020-08-18T05:22:15.000Z</time>
      </trkpt>
      <trkpt lat="42.6184503547847270965576171875" lon="-0.11628004722297191619873046875">
        <ele>1048.4000244140625</ele>
        <time>2020-08-18T05:22:24.000Z</time>
      </trkpt>
      <trkpt lat="42.61829319410026073455810546875" lon="-0.1163275726139545440673828125">
        <ele>1048.199951171875</ele>
        <time>2020-08-18T05:22:29.000Z</time>
      </trkpt>
      <trkpt lat="42.6181646995246410369873046875" lon="-0.116379372775554656982421875">
        <ele>1048.5999755859375</ele>
        <time>2020-08-18T05:22:33.000Z</time>
      </trkpt>
      <trkpt lat="42.61797099374234676361083984375" lon="-0.11647291481494903564453125">
        <ele>1048.4000244140625</ele>
        <time>2020-08-18T05:22:39.000Z</time>
      </trkpt>
      <trkpt lat="42.6178401522338390350341796875" lon="-0.11653904803097248077392578125">
        <ele>1048.4000244140625</ele>
        <time>2020-08-18T05:22:43.000Z</time>
      </trkpt>
      <trkpt lat="42.61780503205955028533935546875" lon="-0.1165522076189517974853515625">
        <ele>1048.4000244140625</ele>
        <time>2020-08-18T05:22:44.000Z</time>
      </trkpt>
      <trkpt lat="42.61753865517675876617431640625" lon="-0.11667483486235141754150390625">
        <ele>1048.4000244140625</ele>
        <time>2020-08-18T05:22:52.000Z</time>
      </trkpt>
      <trkpt lat="42.61740488000214099884033203125" lon="-0.11673954315483570098876953125">
        <ele>1047.800048828125</ele>
        <time>2020-08-18T05:22:56.000Z</time>
      </trkpt>
      <trkpt lat="42.61723120696842670440673828125" lon="-0.11682218872010707855224609375">
        <ele>1048</ele>
        <time>2020-08-18T05:23:01.000Z</time>
      </trkpt>
      <trkpt lat="42.61688821949064731597900390625" lon="-0.11699569411575794219970703125">
        <ele>1047.800048828125</ele>
        <time>2020-08-18T05:23:11.000Z</time>
      </trkpt>
      <trkpt lat="42.616685293614864349365234375" lon="-0.1170980371534824371337890625">
        <ele>1047.5999755859375</ele>
        <time>2020-08-18T05:23:17.000Z</time>
      </trkpt>
      <trkpt lat="42.61647549457848072052001953125" lon="-0.11725972406566143035888671875">
        <ele>1047.5999755859375</ele>
        <time>2020-08-18T05:23:24.000Z</time>
      </trkpt>
      <trkpt lat="42.616312466561794281005859375" lon="-0.11749626137316226959228515625">
        <ele>1047.5999755859375</ele>
        <time>2020-08-18T05:23:31.000Z</time>
      </trkpt>
      <trkpt lat="42.6161272265017032623291015625" lon="-0.11788317002356052398681640625">
        <ele>1048.199951171875</ele>
        <time>2020-08-18T05:23:41.000Z</time>
      </trkpt>
      <trkpt lat="42.61596369557082653045654296875" lon="-0.11816429905593395233154296875">
        <ele>1048.199951171875</ele>
        <time>2020-08-18T05:23:49.000Z</time>
      </trkpt>
      <trkpt lat="42.61576336808502674102783203125" lon="-0.1183506287634372711181640625">
        <ele>1048.5999755859375</ele>
        <time>2020-08-18T05:23:57.000Z</time>
      </trkpt>
      <trkpt lat="42.61568994261324405670166015625" lon="-0.1183871738612651824951171875">
        <ele>1048.5999755859375</ele>
        <time>2020-08-18T05:24:00.000Z</time>
      </trkpt>
      <trkpt lat="42.6156337000429630279541015625" lon="-0.11836613528430461883544921875">
        <ele>1048.800048828125</ele>
        <time>2020-08-18T05:24:02.000Z</time>
      </trkpt>
      <trkpt lat="42.6155207119882106781005859375" lon="-0.11830327101051807403564453125">
        <ele>1048.4000244140625</ele>
        <time>2020-08-18T05:24:05.000Z</time>
      </trkpt>
      <trkpt lat="42.61543362401425838470458984375" lon="-0.11828181333839893341064453125">
        <ele>1048.199951171875</ele>
        <time>2020-08-18T05:24:07.000Z</time>
      </trkpt>
      <trkpt lat="42.6153386570513248443603515625" lon="-0.11829572729766368865966796875">
        <ele>1047.800048828125</ele>
        <time>2020-08-18T05:24:09.000Z</time>
      </trkpt>
      <trkpt lat="42.61519289575517177581787109375" lon="-0.1183586753904819488525390625">
        <ele>1046.800048828125</ele>
        <time>2020-08-18T05:24:12.000Z</time>
      </trkpt>
      <trkpt lat="42.61514671146869659423828125" lon="-0.118393041193485260009765625">
        <ele>1046.5999755859375</ele>
        <time>2020-08-18T05:24:13.000Z</time>
      </trkpt>
      <trkpt lat="42.615020312368869781494140625" lon="-0.11854031123220920562744140625">
        <ele>1046</ele>
        <time>2020-08-18T05:24:16.000Z</time>
      </trkpt>
      <trkpt lat="42.61494822800159454345703125" lon="-0.11865966953337192535400390625">
        <ele>1045.4000244140625</ele>
        <time>2020-08-18T05:24:18.000Z</time>
      </trkpt>
      <trkpt lat="42.614799030125141143798828125" lon="-0.11889017187058925628662109375">
        <ele>1044.4000244140625</ele>
        <time>2020-08-18T05:24:22.000Z</time>
      </trkpt>
      <trkpt lat="42.61475016362965106964111328125" lon="-0.11893828399479389190673828125">
        <ele>1044.199951171875</ele>
        <time>2020-08-18T05:24:23.000Z</time>
      </trkpt>
      <trkpt lat="42.6145792566239833831787109375" lon="-0.11903568170964717864990234375">
        <ele>1043.5999755859375</ele>
        <time>2020-08-18T05:24:26.000Z</time>
      </trkpt>
      <trkpt lat="42.6145189069211483001708984375" lon="-0.11905848048627376556396484375">
        <ele>1043.199951171875</ele>
        <time>2020-08-18T05:24:27.000Z</time>
      </trkpt>
      <trkpt lat="42.6144025661051273345947265625" lon="-0.1191073469817638397216796875">
        <ele>1042.5999755859375</ele>
        <time>2020-08-18T05:24:29.000Z</time>
      </trkpt>
      <trkpt lat="42.614295445382595062255859375" lon="-0.11920432560145854949951171875">
        <ele>1042</ele>
        <time>2020-08-18T05:24:31.000Z</time>
      </trkpt>
      <trkpt lat="42.61417843401432037353515625" lon="-0.1194427907466888427734375">
        <ele>1040.800048828125</ele>
        <time>2020-08-18T05:24:34.000Z</time>
      </trkpt>
      <trkpt lat="42.61408816091716289520263671875" lon="-0.119729451835155487060546875">
        <ele>1039.800048828125</ele>
        <time>2020-08-18T05:24:37.000Z</time>
      </trkpt>
      <trkpt lat="42.6140428148210048675537109375" lon="-0.119814611971378326416015625">
        <ele>1039.4000244140625</ele>
        <time>2020-08-18T05:24:38.000Z</time>
      </trkpt>
      <trkpt lat="42.6139274798333644866943359375" lon="-0.11993874795734882354736328125">
        <ele>1038.5999755859375</ele>
        <time>2020-08-18T05:24:40.000Z</time>
      </trkpt>
      <trkpt lat="42.61386034078896045684814453125" lon="-0.1199757121503353118896484375">
        <ele>1038.4000244140625</ele>
        <time>2020-08-18T05:24:41.000Z</time>
      </trkpt>
      <trkpt lat="42.6136565767228603363037109375" lon="-0.11999457143247127532958984375">
        <ele>1037.800048828125</ele>
        <time>2020-08-18T05:24:44.000Z</time>
      </trkpt>
      <trkpt lat="42.6134763658046722412109375" lon="-0.1199790649116039276123046875">
        <ele>1037.800048828125</ele>
        <time>2020-08-18T05:24:47.000Z</time>
      </trkpt>
      <trkpt lat="42.61336974799633026123046875" lon="-0.1199934817850589752197265625">
        <ele>1037.800048828125</ele>
        <time>2020-08-18T05:24:49.000Z</time>
      </trkpt>
      <trkpt lat="42.61327059008181095123291015625" lon="-0.12002013623714447021484375">
        <ele>1037.5999755859375</ele>
        <time>2020-08-18T05:24:51.000Z</time>
      </trkpt>
      <trkpt lat="42.61322080157697200775146484375" lon="-0.1200384087860584259033203125">
        <ele>1037.5999755859375</ele>
        <time>2020-08-18T05:24:52.000Z</time>
      </trkpt>
      <trkpt lat="42.6131734438240528106689453125" lon="-0.12006581760942935943603515625">
        <ele>1037.5999755859375</ele>
        <time>2020-08-18T05:24:53.000Z</time>
      </trkpt>
      <trkpt lat="42.6131301932036876678466796875" lon="-0.1201026141643524169921875">
        <ele>1037.5999755859375</ele>
        <time>2020-08-18T05:24:54.000Z</time>
      </trkpt>
      <trkpt lat="42.612943612039089202880859375" lon="-0.1203783787786960601806640625">
        <ele>1036.800048828125</ele>
        <time>2020-08-18T05:24:59.000Z</time>
      </trkpt>
      <trkpt lat="42.61290765367448329925537109375" lon="-0.120449624955654144287109375">
        <ele>1036.5999755859375</ele>
        <time>2020-08-18T05:25:00.000Z</time>
      </trkpt>
      <trkpt lat="42.61277295649051666259765625" lon="-0.120764784514904022216796875">
        <ele>1035.4000244140625</ele>
        <time>2020-08-18T05:25:04.000Z</time>
      </trkpt>
      <trkpt lat="42.6127362437546253204345703125" lon="-0.12100073508918285369873046875">
        <ele>1034.199951171875</ele>
        <time>2020-08-18T05:25:07.000Z</time>
      </trkpt>
      <trkpt lat="42.6127352379262447357177734375" lon="-0.1210777647793292999267578125">
        <ele>1034</ele>
        <time>2020-08-18T05:25:08.000Z</time>
      </trkpt>
      <trkpt lat="42.6127563603222370147705078125" lon="-0.12123517692089080810546875">
        <ele>1033</ele>
        <time>2020-08-18T05:25:10.000Z</time>
      </trkpt>
      <trkpt lat="42.6128165423870086669921875" lon="-0.12146660126745700836181640625">
        <ele>1032</ele>
        <time>2020-08-18T05:25:13.000Z</time>
      </trkpt>
      <trkpt lat="42.6128421910107135772705078125" lon="-0.12154689989984035491943359375">
        <ele>1031.4000244140625</ele>
        <time>2020-08-18T05:25:14.000Z</time>
      </trkpt>
      <trkpt lat="42.61290949769318103790283203125" lon="-0.12180648744106292724609375">
        <ele>1030.4000244140625</ele>
        <time>2020-08-18T05:25:17.000Z</time>
      </trkpt>
      <trkpt lat="42.61292609386146068572998046875" lon="-0.1219008676707744598388671875">
        <ele>1030</ele>
        <time>2020-08-18T05:25:18.000Z</time>
      </trkpt>
      <trkpt lat="42.61294051073491573333740234375" lon="-0.12199549935758113861083984375">
        <ele>1029.5999755859375</ele>
        <time>2020-08-18T05:25:19.000Z</time>
      </trkpt>
      <trkpt lat="42.61296180076897144317626953125" lon="-0.1221932284533977508544921875">
        <ele>1028.5999755859375</ele>
        <time>2020-08-18T05:25:21.000Z</time>
      </trkpt>
      <trkpt lat="42.61298443190753459930419921875" lon="-0.122518949210643768310546875">
        <ele>1027.199951171875</ele>
        <time>2020-08-18T05:25:24.000Z</time>
      </trkpt>
      <trkpt lat="42.61299298144876956939697265625" lon="-0.122634284198284149169921875">
        <ele>1026.800048828125</ele>
        <time>2020-08-18T05:25:25.000Z</time>
      </trkpt>
      <trkpt lat="42.61300471611320972442626953125" lon="-0.12287107296288013458251953125">
        <ele>1025.5999755859375</ele>
        <time>2020-08-18T05:25:27.000Z</time>
      </trkpt>
      <trkpt lat="42.61300639249384403228759765625" lon="-0.1231066882610321044921875">
        <ele>1024.199951171875</ele>
        <time>2020-08-18T05:25:29.000Z</time>
      </trkpt>
      <trkpt lat="42.61300823651254177093505859375" lon="-0.1232245378196239471435546875">
        <ele>1023.79998779296875</ele>
        <time>2020-08-18T05:25:30.000Z</time>
      </trkpt>
      <trkpt lat="42.61300873942673206329345703125" lon="-0.12346166186034679412841796875">
        <ele>1023</ele>
        <time>2020-08-18T05:25:32.000Z</time>
      </trkpt>
      <trkpt lat="42.613008320331573486328125" lon="-0.123675651848316192626953125">
        <ele>1021.79998779296875</ele>
        <time>2020-08-18T05:25:34.000Z</time>
      </trkpt>
      <trkpt lat="42.61299683712422847747802734375" lon="-0.12388897128403186798095703125">
        <ele>1020.5999755859375</ele>
        <time>2020-08-18T05:25:36.000Z</time>
      </trkpt>
      <trkpt lat="42.61297856457531452178955078125" lon="-0.12407655827701091766357421875">
        <ele>1019.20001220703125</ele>
        <time>2020-08-18T05:25:38.000Z</time>
      </trkpt>
      <trkpt lat="42.61295945383608341217041015625" lon="-0.1241646520793437957763671875">
        <ele>1018.5999755859375</ele>
        <time>2020-08-18T05:25:39.000Z</time>
      </trkpt>
      <trkpt lat="42.61292986571788787841796875" lon="-0.12424863874912261962890625">
        <ele>1018.20001220703125</ele>
        <time>2020-08-18T05:25:40.000Z</time>
      </trkpt>
      <trkpt lat="42.61280656792223453521728515625" lon="-0.1244556717574596405029296875">
        <ele>1017</ele>
        <time>2020-08-18T05:25:43.000Z</time>
      </trkpt>
      <trkpt lat="42.6126557774841785430908203125" lon="-0.12457787990570068359375">
        <ele>1015.5999755859375</ele>
        <time>2020-08-18T05:25:46.000Z</time>
      </trkpt>
      <trkpt lat="42.6125981099903583526611328125" lon="-0.12459372170269489288330078125">
        <ele>1015.4000244140625</ele>
        <time>2020-08-18T05:25:47.000Z</time>
      </trkpt>
      <trkpt lat="42.61247950606048107147216796875" lon="-0.12457779608666896820068359375">
        <ele>1014.5999755859375</ele>
        <time>2020-08-18T05:25:49.000Z</time>
      </trkpt>
      <trkpt lat="42.61242100037634372711181640625" lon="-0.1245470345020294189453125">
        <ele>1014</ele>
        <time>2020-08-18T05:25:50.000Z</time>
      </trkpt>
      <trkpt lat="42.61236526072025299072265625" lon="-0.12450478971004486083984375">
        <ele>1013.4000244140625</ele>
        <time>2020-08-18T05:25:51.000Z</time>
      </trkpt>
      <trkpt lat="42.61222151108086109161376953125" lon="-0.1243208907544612884521484375">
        <ele>1012.5999755859375</ele>
        <time>2020-08-18T05:25:54.000Z</time>
      </trkpt>
      <trkpt lat="42.6121840439736843109130859375" lon="-0.1242439448833465576171875">
        <ele>1012.20001220703125</ele>
        <time>2020-08-18T05:25:55.000Z</time>
      </trkpt>
      <trkpt lat="42.61212243698537349700927734375" lon="-0.1240789890289306640625">
        <ele>1011</ele>
        <time>2020-08-18T05:25:57.000Z</time>
      </trkpt>
      <trkpt lat="42.61209511198103427886962890625" lon="-0.12399441562592983245849609375">
        <ele>1010.79998779296875</ele>
        <time>2020-08-18T05:25:58.000Z</time>
      </trkpt>
      <trkpt lat="42.61206686496734619140625" lon="-0.12391177006065845489501953125">
        <ele>1010.4000244140625</ele>
        <time>2020-08-18T05:25:59.000Z</time>
      </trkpt>
      <trkpt lat="42.6120387017726898193359375" lon="-0.1238287054002285003662109375">
        <ele>1010</ele>
        <time>2020-08-18T05:26:00.000Z</time>
      </trkpt>
      <trkpt lat="42.6119654439389705657958984375" lon="-0.12356459163129329681396484375">
        <ele>1008.5999755859375</ele>
        <time>2020-08-18T05:26:03.000Z</time>
      </trkpt>
      <trkpt lat="42.61193149723112583160400390625" lon="-0.12337432242929935455322265625">
        <ele>1007.4000244140625</ele>
        <time>2020-08-18T05:26:05.000Z</time>
      </trkpt>
      <trkpt lat="42.61189989745616912841796875" lon="-0.12317148037254810333251953125">
        <ele>1006.20001220703125</ele>
        <time>2020-08-18T05:26:07.000Z</time>
      </trkpt>
      <trkpt lat="42.61186963878571987152099609375" lon="-0.12296578846871852874755859375">
        <ele>1005</ele>
        <time>2020-08-18T05:26:09.000Z</time>
      </trkpt>
      <trkpt lat="42.61184432543814182281494140625" lon="-0.1227749325335025787353515625">
        <ele>1004</ele>
        <time>2020-08-18T05:26:11.000Z</time>
      </trkpt>
      <trkpt lat="42.61183192022144794464111328125" lon="-0.12268532998859882354736328125">
        <ele>1003.4000244140625</ele>
        <time>2020-08-18T05:26:12.000Z</time>
      </trkpt>
      <trkpt lat="42.61180928908288478851318359375" lon="-0.1225254870951175689697265625">
        <ele>1002.5999755859375</ele>
        <time>2020-08-18T05:26:14.000Z</time>
      </trkpt>
      <trkpt lat="42.61179269291460514068603515625" lon="-0.122399590909481048583984375">
        <ele>1001.79998779296875</ele>
        <time>2020-08-18T05:26:16.000Z</time>
      </trkpt>
      <trkpt lat="42.61178732849657535552978515625" lon="-0.12235491536557674407958984375">
        <ele>1001.20001220703125</ele>
        <time>2020-08-18T05:26:17.000Z</time>
      </trkpt>
      <trkpt lat="42.611783556640148162841796875" lon="-0.122315101325511932373046875">
        <ele>1000.5999755859375</ele>
        <time>2020-08-18T05:26:19.000Z</time>
      </trkpt>
      <trkpt lat="42.6117833890020847320556640625" lon="-0.122306048870086669921875">
        <ele>1000.20001220703125</ele>
        <time>2020-08-18T05:26:24.000Z</time>
      </trkpt>
      <trkpt lat="42.61178330518305301666259765625" lon="-0.12230562977492809295654296875">
        <ele>1000</ele>
        <time>2020-08-18T05:26:30.000Z</time>
      </trkpt>
      <trkpt lat="42.61178313754498958587646484375" lon="-0.12230697087943553924560546875">
        <ele>1000</ele>
        <time>2020-08-18T05:26:49.000Z</time>
      </trkpt>
      <trkpt lat="42.6117833890020847320556640625" lon="-0.1223073899745941162109375">
        <ele>1000.20001220703125</ele>
        <time>2020-08-18T05:27:11.000Z</time>
      </trkpt>
      <trkpt lat="42.61178313754498958587646484375" lon="-0.1223073899745941162109375">
        <ele>1000</ele>
        <time>2020-08-18T05:27:30.000Z</time>
      </trkpt>
      <trkpt lat="42.61178347282111644744873046875" lon="-0.12230537831783294677734375">
        <ele>1000</ele>
        <time>2020-08-18T05:27:45.000Z</time>
      </trkpt>
      <trkpt lat="42.61178347282111644744873046875" lon="-0.12230529449880123138427734375">
        <ele>999.79998779296875</ele>
        <time>2020-08-18T05:27:57.000Z</time>
      </trkpt>
      <trkpt lat="42.61178364045917987823486328125" lon="-0.12227461673319339752197265625">
        <ele>1000</ele>
        <time>2020-08-18T05:28:03.000Z</time>
      </trkpt>
      <trkpt lat="42.6117790304124355316162109375" lon="-0.12212491594254970550537109375">
        <ele>999.5999755859375</ele>
        <time>2020-08-18T05:28:07.000Z</time>
      </trkpt>
      <trkpt lat="42.61176922358572483062744140625" lon="-0.12194193899631500244140625">
        <ele>998.79998779296875</ele>
        <time>2020-08-18T05:28:10.000Z</time>
      </trkpt>
      <trkpt lat="42.61176553554832935333251953125" lon="-0.1218076609075069427490234375">
        <ele>998.20001220703125</ele>
        <time>2020-08-18T05:28:12.000Z</time>
      </trkpt>
      <trkpt lat="42.61176268570125102996826171875" lon="-0.12166701257228851318359375">
        <ele>997.5999755859375</ele>
        <time>2020-08-18T05:28:14.000Z</time>
      </trkpt>
      <trkpt lat="42.61176444590091705322265625" lon="-0.12159618549048900604248046875">
        <ele>997.20001220703125</ele>
        <time>2020-08-18T05:28:15.000Z</time>
      </trkpt>
      <trkpt lat="42.6117807067930698394775390625" lon="-0.1214485801756381988525390625">
        <ele>996.4000244140625</ele>
        <time>2020-08-18T05:28:17.000Z</time>
      </trkpt>
      <trkpt lat="42.61180543340742588043212890625" lon="-0.12129485607147216796875">
        <ele>995.79998779296875</ele>
        <time>2020-08-18T05:28:19.000Z</time>
      </trkpt>
      <trkpt lat="42.611823789775371551513671875" lon="-0.12121749110519886016845703125">
        <ele>995.5999755859375</ele>
        <time>2020-08-18T05:28:20.000Z</time>
      </trkpt>
      <trkpt lat="42.61184734292328357696533203125" lon="-0.12114037759602069854736328125">
        <ele>995.20001220703125</ele>
        <time>2020-08-18T05:28:21.000Z</time>
      </trkpt>
      <trkpt lat="42.61193342506885528564453125" lon="-0.1209027506411075592041015625">
        <ele>994</ele>
        <time>2020-08-18T05:28:24.000Z</time>
      </trkpt>
      <trkpt lat="42.61199050582945346832275390625" lon="-0.1207434944808483123779296875">
        <ele>992.5999755859375</ele>
        <time>2020-08-18T05:28:26.000Z</time>
      </trkpt>
      <trkpt lat="42.61205202899873256683349609375" lon="-0.1205839030444622039794921875">
        <ele>991.4000244140625</ele>
        <time>2020-08-18T05:28:28.000Z</time>
      </trkpt>
      <trkpt lat="42.612138949334621429443359375" lon="-0.1203441806137561798095703125">
        <ele>990.4000244140625</ele>
        <time>2020-08-18T05:28:31.000Z</time>
      </trkpt>
      <trkpt lat="42.61215965263545513153076171875" lon="-0.12026497162878513336181640625">
        <ele>990.20001220703125</ele>
        <time>2020-08-18T05:28:32.000Z</time>
      </trkpt>
      <trkpt lat="42.61218161322176456451416015625" lon="-0.12010420672595500946044921875">
        <ele>989</ele>
        <time>2020-08-18T05:28:34.000Z</time>
      </trkpt>
      <trkpt lat="42.6121781766414642333984375" lon="-0.11993858031928539276123046875">
        <ele>988.20001220703125</ele>
        <time>2020-08-18T05:28:36.000Z</time>
      </trkpt>
      <trkpt lat="42.61217021383345127105712890625" lon="-0.1198506541550159454345703125">
        <ele>987.5999755859375</ele>
        <time>2020-08-18T05:28:37.000Z</time>
      </trkpt>
      <trkpt lat="42.61215814389288425445556640625" lon="-0.1197631470859050750732421875">
        <ele>987.20001220703125</ele>
        <time>2020-08-18T05:28:38.000Z</time>
      </trkpt>
      <trkpt lat="42.612126879394054412841796875" lon="-0.11959542520344257354736328125">
        <ele>986.20001220703125</ele>
        <time>2020-08-18T05:28:40.000Z</time>
      </trkpt>
      <trkpt lat="42.61210550554096698760986328125" lon="-0.11951856315135955810546875">
        <ele>985.5999755859375</ele>
        <time>2020-08-18T05:28:41.000Z</time>
      </trkpt>
      <trkpt lat="42.61203895322978496551513671875" lon="-0.11938470415771007537841796875">
        <ele>984.79998779296875</ele>
        <time>2020-08-18T05:28:43.000Z</time>
      </trkpt>
      <trkpt lat="42.61199176311492919921875" lon="-0.11933240108191967010498046875">
        <ele>984.20001220703125</ele>
        <time>2020-08-18T05:28:44.000Z</time>
      </trkpt>
      <trkpt lat="42.61193837039172649383544921875" lon="-0.1192914135754108428955078125">
        <ele>983.5999755859375</ele>
        <time>2020-08-18T05:28:45.000Z</time>
      </trkpt>
      <trkpt lat="42.6118212752044200897216796875" lon="-0.11925813741981983184814453125">
        <ele>982.5999755859375</ele>
        <time>2020-08-18T05:28:47.000Z</time>
      </trkpt>
      <trkpt lat="42.61170183308422565460205078125" lon="-0.119291245937347412109375">
        <ele>981.4000244140625</ele>
        <time>2020-08-18T05:28:49.000Z</time>
      </trkpt>
      <trkpt lat="42.6116482727229595184326171875" lon="-0.1193319819867610931396484375">
        <ele>981</ele>
        <time>2020-08-18T05:28:50.000Z</time>
      </trkpt>
      <trkpt lat="42.611560933291912078857421875" lon="-0.11945242993533611297607421875">
        <ele>980</ele>
        <time>2020-08-18T05:28:52.000Z</time>
      </trkpt>
      <trkpt lat="42.61152841150760650634765625" lon="-0.11952769942581653594970703125">
        <ele>979.4000244140625</ele>
        <time>2020-08-18T05:28:53.000Z</time>
      </trkpt>
      <trkpt lat="42.6115000806748867034912109375" lon="-0.11960984207689762115478515625">
        <ele>979</ele>
        <time>2020-08-18T05:28:54.000Z</time>
      </trkpt>
      <trkpt lat="42.611475102603435516357421875" lon="-0.11969734914600849151611328125">
        <ele>978.5999755859375</ele>
        <time>2020-08-18T05:28:55.000Z</time>
      </trkpt>
      <trkpt lat="42.61142648756504058837890625" lon="-0.119880996644496917724609375">
        <ele>977.79998779296875</ele>
        <time>2020-08-18T05:28:57.000Z</time>
      </trkpt>
      <trkpt lat="42.611404359340667724609375" lon="-0.119973532855510711669921875">
        <ele>977.20001220703125</ele>
        <time>2020-08-18T05:28:58.000Z</time>
      </trkpt>
      <trkpt lat="42.61136488057672977447509765625" lon="-0.120156593620777130126953125">
        <ele>976.4000244140625</ele>
        <time>2020-08-18T05:29:00.000Z</time>
      </trkpt>
      <trkpt lat="42.61131442151963710784912109375" lon="-0.1204352080821990966796875">
        <ele>975</ele>
        <time>2020-08-18T05:29:03.000Z</time>
      </trkpt>
      <trkpt lat="42.6113052852451801300048828125" lon="-0.12061919085681438446044921875">
        <ele>974</ele>
        <time>2020-08-18T05:29:05.000Z</time>
      </trkpt>
      <trkpt lat="42.61130687780678272247314453125" lon="-0.12070787139236927032470703125">
        <ele>973.5999755859375</ele>
        <time>2020-08-18T05:29:06.000Z</time>
      </trkpt>
      <trkpt lat="42.61130620725452899932861328125" lon="-0.1208786107599735260009765625">
        <ele>973.20001220703125</ele>
        <time>2020-08-18T05:29:08.000Z</time>
      </trkpt>
      <trkpt lat="42.61131458915770053863525390625" lon="-0.121057815849781036376953125">
        <ele>972.5999755859375</ele>
        <time>2020-08-18T05:29:10.000Z</time>
      </trkpt>
      <trkpt lat="42.61132095940411090850830078125" lon="-0.1211451552808284759521484375">
        <ele>972.4000244140625</ele>
        <time>2020-08-18T05:29:11.000Z</time>
      </trkpt>
      <trkpt lat="42.6113317720592021942138671875" lon="-0.121230818331241607666015625">
        <ele>972</ele>
        <time>2020-08-18T05:29:12.000Z</time>
      </trkpt>
      <trkpt lat="42.61137845925986766815185546875" lon="-0.12147967703640460968017578125">
        <ele>971.5999755859375</ele>
        <time>2020-08-18T05:29:15.000Z</time>
      </trkpt>
      <trkpt lat="42.61139254085719585418701171875" lon="-0.12156500481069087982177734375">
        <ele>971.5999755859375</ele>
        <time>2020-08-18T05:29:16.000Z</time>
      </trkpt>
      <trkpt lat="42.61146009899675846099853515625" lon="-0.12195895425975322723388671875">
        <ele>971</ele>
        <time>2020-08-18T05:29:21.000Z</time>
      </trkpt>
      <trkpt lat="42.61154442094266414642333984375" lon="-0.12240721844136714935302734375">
        <ele>970.5999755859375</ele>
        <time>2020-08-18T05:29:27.000Z</time>
      </trkpt>
      <trkpt lat="42.61156520806252956390380859375" lon="-0.12255348265171051025390625">
        <ele>970.20001220703125</ele>
        <time>2020-08-18T05:29:29.000Z</time>
      </trkpt>
      <trkpt lat="42.61157141067087650299072265625" lon="-0.1228745095431804656982421875">
        <ele>969.20001220703125</ele>
        <time>2020-08-18T05:29:33.000Z</time>
      </trkpt>
      <trkpt lat="42.61157107539474964141845703125" lon="-0.1232305727899074554443359375">
        <ele>968.20001220703125</ele>
        <time>2020-08-18T05:29:37.000Z</time>
      </trkpt>
      <trkpt lat="42.61156956665217876434326171875" lon="-0.12350860051810741424560546875">
        <ele>967</ele>
        <time>2020-08-18T05:29:40.000Z</time>
      </trkpt>
      <trkpt lat="42.61156789027154445648193359375" lon="-0.12360155582427978515625">
        <ele>966.5999755859375</ele>
        <time>2020-08-18T05:29:41.000Z</time>
      </trkpt>
      <trkpt lat="42.6115429960191249847412109375" lon="-0.12389324605464935302734375">
        <ele>965.79998779296875</ele>
        <time>2020-08-18T05:29:44.000Z</time>
      </trkpt>
      <trkpt lat="42.61152413673698902130126953125" lon="-0.12399072758853435516357421875">
        <ele>965.20001220703125</ele>
        <time>2020-08-18T05:29:45.000Z</time>
      </trkpt>
      <trkpt lat="42.61149513535201549530029296875" lon="-0.1240861974656581878662109375">
        <ele>964.79998779296875</ele>
        <time>2020-08-18T05:29:46.000Z</time>
      </trkpt>
      <trkpt lat="42.6114554889500141143798828125" lon="-0.12417429126799106597900390625">
        <ele>964.4000244140625</ele>
        <time>2020-08-18T05:29:47.000Z</time>
      </trkpt>
      <trkpt lat="42.611353062093257904052734375" lon="-0.124324746429920196533203125">
        <ele>963.5999755859375</ele>
        <time>2020-08-18T05:29:49.000Z</time>
      </trkpt>
      <trkpt lat="42.61129103600978851318359375" lon="-0.124386437237262725830078125">
        <ele>963.20001220703125</ele>
        <time>2020-08-18T05:29:50.000Z</time>
      </trkpt>
      <trkpt lat="42.61115063913166522979736328125" lon="-0.12446053326129913330078125">
        <ele>962.4000244140625</ele>
        <time>2020-08-18T05:29:52.000Z</time>
      </trkpt>
      <trkpt lat="42.61107352562248706817626953125" lon="-0.12447184883058071136474609375">
        <ele>962</ele>
        <time>2020-08-18T05:29:53.000Z</time>
      </trkpt>
      <trkpt lat="42.61092801578342914581298828125" lon="-0.12443639338016510009765625">
        <ele>961.20001220703125</ele>
        <time>2020-08-18T05:29:55.000Z</time>
      </trkpt>
      <trkpt lat="42.61086012236773967742919921875" lon="-0.12440009973943233489990234375">
        <ele>960.79998779296875</ele>
        <time>2020-08-18T05:29:56.000Z</time>
      </trkpt>
      <trkpt lat="42.61064822785556316375732421875" lon="-0.1242762990295886993408203125">
        <ele>959.79998779296875</ele>
        <time>2020-08-18T05:29:59.000Z</time>
      </trkpt>
      <trkpt lat="42.61045024730265140533447265625" lon="-0.124145038425922393798828125">
        <ele>959.20001220703125</ele>
        <time>2020-08-18T05:30:02.000Z</time>
      </trkpt>
      <trkpt lat="42.61024841107428073883056640625" lon="-0.1240335591137409210205078125">
        <ele>958.5999755859375</ele>
        <time>2020-08-18T05:30:05.000Z</time>
      </trkpt>
      <trkpt lat="42.61004741303622722625732421875" lon="-0.12390238232910633087158203125">
        <ele>957.79998779296875</ele>
        <time>2020-08-18T05:30:08.000Z</time>
      </trkpt>
      <trkpt lat="42.609977424144744873046875" lon="-0.12385762296617031097412109375">
        <ele>957.4000244140625</ele>
        <time>2020-08-18T05:30:09.000Z</time>
      </trkpt>
      <trkpt lat="42.609763853251934051513671875" lon="-0.12372535653412342071533203125">
        <ele>956</ele>
        <time>2020-08-18T05:30:12.000Z</time>
      </trkpt>
      <trkpt lat="42.60954969562590122222900390625" lon="-0.123592503368854522705078125">
        <ele>954.79998779296875</ele>
        <time>2020-08-18T05:30:15.000Z</time>
      </trkpt>
      <trkpt lat="42.60940611362457275390625" lon="-0.12350206263363361358642578125">
        <ele>953.79998779296875</ele>
        <time>2020-08-18T05:30:17.000Z</time>
      </trkpt>
      <trkpt lat="42.6093338616192340850830078125" lon="-0.12345680035650730133056640625">
        <ele>953.4000244140625</ele>
        <time>2020-08-18T05:30:18.000Z</time>
      </trkpt>
      <trkpt lat="42.60918608866631984710693359375" lon="-0.12337021529674530029296875">
        <ele>952.4000244140625</ele>
        <time>2020-08-18T05:30:20.000Z</time>
      </trkpt>
      <trkpt lat="42.609028927981853485107421875" lon="-0.12329511344432830810546875">
        <ele>951.5999755859375</ele>
        <time>2020-08-18T05:30:22.000Z</time>
      </trkpt>
      <trkpt lat="42.60895608924329280853271484375" lon="-0.1232718117535114288330078125">
        <ele>951.20001220703125</ele>
        <time>2020-08-18T05:30:23.000Z</time>
      </trkpt>
      <trkpt lat="42.6087342202663421630859375" lon="-0.12318782508373260498046875">
        <ele>950.20001220703125</ele>
        <time>2020-08-18T05:30:26.000Z</time>
      </trkpt>
      <trkpt lat="42.6086618006229400634765625" lon="-0.1231591589748859405517578125">
        <ele>949.5999755859375</ele>
        <time>2020-08-18T05:30:27.000Z</time>
      </trkpt>
      <trkpt lat="42.60858996771275997161865234375" lon="-0.1231308281421661376953125">
        <ele>949</ele>
        <time>2020-08-18T05:30:28.000Z</time>
      </trkpt>
      <trkpt lat="42.608381845057010650634765625" lon="-0.1230522058904170989990234375">
        <ele>947.79998779296875</ele>
        <time>2020-08-18T05:30:31.000Z</time>
      </trkpt>
      <trkpt lat="42.60824295692145824432373046875" lon="-0.1230045966804027557373046875">
        <ele>946.5999755859375</ele>
        <time>2020-08-18T05:30:33.000Z</time>
      </trkpt>
      <trkpt lat="42.60816969908773899078369140625" lon="-0.122990347445011138916015625">
        <ele>946</ele>
        <time>2020-08-18T05:30:34.000Z</time>
      </trkpt>
      <trkpt lat="42.608016394078731536865234375" lon="-0.12298003770411014556884765625">
        <ele>945.4000244140625</ele>
        <time>2020-08-18T05:30:36.000Z</time>
      </trkpt>
      <trkpt lat="42.60793668217957019805908203125" lon="-0.12297702021896839141845703125">
        <ele>945</ele>
        <time>2020-08-18T05:30:37.000Z</time>
      </trkpt>
      <trkpt lat="42.60777139104902744293212890625" lon="-0.1229744218289852142333984375">
        <ele>944.20001220703125</ele>
        <time>2020-08-18T05:30:39.000Z</time>
      </trkpt>
      <trkpt lat="42.60760408826172351837158203125" lon="-0.1229767687618732452392578125">
        <ele>943</ele>
        <time>2020-08-18T05:30:41.000Z</time>
      </trkpt>
      <trkpt lat="42.6074358634650707244873046875" lon="-0.1229878328740596771240234375">
        <ele>941.79998779296875</ele>
        <time>2020-08-18T05:30:43.000Z</time>
      </trkpt>
      <trkpt lat="42.60735246352851390838623046875" lon="-0.1229968853294849395751953125">
        <ele>941</ele>
        <time>2020-08-18T05:30:44.000Z</time>
      </trkpt>
      <trkpt lat="42.607269398868083953857421875" lon="-0.123009793460369110107421875">
        <ele>940.4000244140625</ele>
        <time>2020-08-18T05:30:45.000Z</time>
      </trkpt>
      <trkpt lat="42.60710100643336772918701171875" lon="-0.12305798940360546112060546875">
        <ele>939.20001220703125</ele>
        <time>2020-08-18T05:30:47.000Z</time>
      </trkpt>
      <trkpt lat="42.60693378746509552001953125" lon="-0.12313091196119785308837890625">
        <ele>937.79998779296875</ele>
        <time>2020-08-18T05:30:49.000Z</time>
      </trkpt>
      <trkpt lat="42.6067636348307132720947265625" lon="-0.123220346868038177490234375">
        <ele>936.4000244140625</ele>
        <time>2020-08-18T05:30:51.000Z</time>
      </trkpt>
      <trkpt lat="42.60650438256561756134033203125" lon="-0.12335320003330707550048828125">
        <ele>935.20001220703125</ele>
        <time>2020-08-18T05:30:54.000Z</time>
      </trkpt>
      <trkpt lat="42.60624705813825130462646484375" lon="-0.12348747812211513519287109375">
        <ele>933.4000244140625</ele>
        <time>2020-08-18T05:30:57.000Z</time>
      </trkpt>
      <trkpt lat="42.60603524744510650634765625" lon="-0.12360013090074062347412109375">
        <ele>932.20001220703125</ele>
        <time>2020-08-18T05:31:00.000Z</time>
      </trkpt>
      <trkpt lat="42.60598051361739635467529296875" lon="-0.1236255280673503875732421875">
        <ele>931.5999755859375</ele>
        <time>2020-08-18T05:31:01.000Z</time>
      </trkpt>
      <trkpt lat="42.60593994520604610443115234375" lon="-0.12364656664431095123291015625">
        <ele>931.20001220703125</ele>
        <time>2020-08-18T05:31:02.000Z</time>
      </trkpt>
      <trkpt lat="42.6059106923639774322509765625" lon="-0.123668275773525238037109375">
        <ele>930.5999755859375</ele>
        <time>2020-08-18T05:31:04.000Z</time>
      </trkpt>
      <trkpt lat="42.60591362603008747100830078125" lon="-0.12367255054414272308349609375">
        <ele>930.20001220703125</ele>
        <time>2020-08-18T05:31:18.000Z</time>
      </trkpt>
      <trkpt lat="42.6059130392968654632568359375" lon="-0.12367892079055309295654296875">
        <ele>930.4000244140625</ele>
        <time>2020-08-18T05:31:32.000Z</time>
      </trkpt>
      <trkpt lat="42.60591320693492889404296875" lon="-0.1236791722476482391357421875">
        <ele>930.4000244140625</ele>
        <time>2020-08-18T05:31:44.000Z</time>
      </trkpt>
      <trkpt lat="42.6059137098491191864013671875" lon="-0.12368143536150455474853515625">
        <ele>930.4000244140625</ele>
        <time>2020-08-18T05:32:13.000Z</time>
      </trkpt>
      <trkpt lat="42.6059137098491191864013671875" lon="-0.12368160299956798553466796875">
        <ele>930.4000244140625</ele>
        <time>2020-08-18T05:32:15.000Z</time>
      </trkpt>
      <trkpt lat="42.60586383752524852752685546875" lon="-0.1236956007778644561767578125">
        <ele>930.4000244140625</ele>
        <time>2020-08-18T05:32:30.000Z</time>
      </trkpt>
      <trkpt lat="42.60569938458502292633056640625" lon="-0.12377514503896236419677734375">
        <ele>930</ele>
        <time>2020-08-18T05:32:36.000Z</time>
      </trkpt>
      <trkpt lat="42.6054795272648334503173828125" lon="-0.123875141143798828125">
        <ele>929.4000244140625</ele>
        <time>2020-08-18T05:32:42.000Z</time>
      </trkpt>
      <trkpt lat="42.60543979704380035400390625" lon="-0.12388385832309722900390625">
        <ele>929.4000244140625</ele>
        <time>2020-08-18T05:32:43.000Z</time>
      </trkpt>
      <trkpt lat="42.60524558834731578826904296875" lon="-0.1238860376179218292236328125">
        <ele>929.20001220703125</ele>
        <time>2020-08-18T05:32:48.000Z</time>
      </trkpt>
      <trkpt lat="42.60504727251827716827392578125" lon="-0.12376944534480571746826171875">
        <ele>929.4000244140625</ele>
        <time>2020-08-18T05:32:54.000Z</time>
      </trkpt>
      <trkpt lat="42.6048160158097743988037109375" lon="-0.12357749976217746734619140625">
        <ele>929.79998779296875</ele>
        <time>2020-08-18T05:33:02.000Z</time>
      </trkpt>
      <trkpt lat="42.60466254316270351409912109375" lon="-0.12336342595517635345458984375">
        <ele>929.79998779296875</ele>
        <time>2020-08-18T05:33:09.000Z</time>
      </trkpt>
      <trkpt lat="42.60451233945786952972412109375" lon="-0.12310056947171688079833984375">
        <ele>929.5999755859375</ele>
        <time>2020-08-18T05:33:17.000Z</time>
      </trkpt>
      <trkpt lat="42.604344449937343597412109375" lon="-0.1228339411318302154541015625">
        <ele>929.79998779296875</ele>
        <time>2020-08-18T05:33:26.000Z</time>
      </trkpt>
      <trkpt lat="42.60416951961815357208251953125" lon="-0.12251459062099456787109375">
        <ele>929.79998779296875</ele>
        <time>2020-08-18T05:33:35.000Z</time>
      </trkpt>
      <trkpt lat="42.60402585379779338836669921875" lon="-0.1221784763038158416748046875">
        <ele>928.79998779296875</ele>
        <time>2020-08-18T05:33:42.000Z</time>
      </trkpt>
      <trkpt lat="42.60394102893769741058349609375" lon="-0.1220138557255268096923828125">
        <ele>928.4000244140625</ele>
        <time>2020-08-18T05:33:45.000Z</time>
      </trkpt>
      <trkpt lat="42.60381479747593402862548828125" lon="-0.12177765369415283203125">
        <ele>927.5999755859375</ele>
        <time>2020-08-18T05:33:49.000Z</time>
      </trkpt>
      <trkpt lat="42.60378177277743816375732421875" lon="-0.121718980371952056884765625">
        <ele>927.5999755859375</ele>
        <time>2020-08-18T05:33:50.000Z</time>
      </trkpt>
      <trkpt lat="42.6037169806659221649169921875" lon="-0.1216091774404048919677734375">
        <ele>927.20001220703125</ele>
        <time>2020-08-18T05:33:52.000Z</time>
      </trkpt>
      <trkpt lat="42.6036197505891323089599609375" lon="-0.12145511806011199951171875">
        <ele>927</ele>
        <time>2020-08-18T05:33:55.000Z</time>
      </trkpt>
      <trkpt lat="42.603418417274951934814453125" lon="-0.1211475022137165069580078125">
        <ele>927.20001220703125</ele>
        <time>2020-08-18T05:34:02.000Z</time>
      </trkpt>
      <trkpt lat="42.60320610366761684417724609375" lon="-0.1209007389843463897705078125">
        <ele>927.4000244140625</ele>
        <time>2020-08-18T05:34:10.000Z</time>
      </trkpt>
      <trkpt lat="42.602999322116374969482421875" lon="-0.12075095437467098236083984375">
        <ele>927.79998779296875</ele>
        <time>2020-08-18T05:34:17.000Z</time>
      </trkpt>
      <trkpt lat="42.60268826968967914581298828125" lon="-0.120588429272174835205078125">
        <ele>928.4000244140625</ele>
        <time>2020-08-18T05:34:27.000Z</time>
      </trkpt>
      <trkpt lat="42.602622471749782562255859375" lon="-0.12056487612426280975341796875">
        <ele>928.5999755859375</ele>
        <time>2020-08-18T05:34:29.000Z</time>
      </trkpt>
      <trkpt lat="42.6023980043828487396240234375" lon="-0.1204890199005603790283203125">
        <ele>928.79998779296875</ele>
        <time>2020-08-18T05:34:36.000Z</time>
      </trkpt>
      <trkpt lat="42.6020986028015613555908203125" lon="-0.1204695738852024078369140625">
        <ele>928.79998779296875</ele>
        <time>2020-08-18T05:34:45.000Z</time>
      </trkpt>
      <trkpt lat="42.60174497030675411224365234375" lon="-0.120531432330608367919921875">
        <ele>929.5999755859375</ele>
        <time>2020-08-18T05:34:56.000Z</time>
      </trkpt>
      <trkpt lat="42.6015601493418216705322265625" lon="-0.12057133018970489501953125">
        <ele>929.79998779296875</ele>
        <time>2020-08-18T05:35:02.000Z</time>
      </trkpt>
      <trkpt lat="42.6012801937758922576904296875" lon="-0.12058247812092304229736328125">
        <ele>930.20001220703125</ele>
        <time>2020-08-18T05:35:11.000Z</time>
      </trkpt>
      <trkpt lat="42.601092271506786346435546875" lon="-0.12053872458636760711669921875">
        <ele>930.79998779296875</ele>
        <time>2020-08-18T05:35:17.000Z</time>
      </trkpt>
      <trkpt lat="42.6010330952703952789306640625" lon="-0.1205091364681720733642578125">
        <ele>931</ele>
        <time>2020-08-18T05:35:19.000Z</time>
      </trkpt>
      <trkpt lat="42.60089890100061893463134765625" lon="-0.12035164050757884979248046875">
        <ele>931.4000244140625</ele>
        <time>2020-08-18T05:35:25.000Z</time>
      </trkpt>
      <trkpt lat="42.60083419270813465118408203125" lon="-0.1202395744621753692626953125">
        <ele>931.79998779296875</ele>
        <time>2020-08-18T05:35:29.000Z</time>
      </trkpt>
      <trkpt lat="42.60077434591948986053466796875" lon="-0.12013102881610393524169921875">
        <ele>932.4000244140625</ele>
        <time>2020-08-18T05:35:33.000Z</time>
      </trkpt>
      <trkpt lat="42.60072791017591953277587890625" lon="-0.1200481317937374114990234375">
        <ele>933</ele>
        <time>2020-08-18T05:35:36.000Z</time>
      </trkpt>
      <trkpt lat="42.60065515525639057159423828125" lon="-0.11991661973297595977783203125">
        <ele>933.79998779296875</ele>
        <time>2020-08-18T05:35:41.000Z</time>
      </trkpt>
      <trkpt lat="42.60061743669211864471435546875" lon="-0.11983548291027545928955078125">
        <ele>934.20001220703125</ele>
        <time>2020-08-18T05:35:44.000Z</time>
      </trkpt>
      <trkpt lat="42.6005445979535579681396484375" lon="-0.1197232492268085479736328125">
        <ele>935</ele>
        <time>2020-08-18T05:35:49.000Z</time>
      </trkpt>
      <trkpt lat="42.60051660239696502685546875" lon="-0.119679160416126251220703125">
        <ele>935.4000244140625</ele>
        <time>2020-08-18T05:35:51.000Z</time>
      </trkpt>
      <trkpt lat="42.60038928128778934478759765625" lon="-0.11953541077673435211181640625">
        <ele>936.20001220703125</ele>
        <time>2020-08-18T05:35:59.000Z</time>
      </trkpt>
      <trkpt lat="42.60037201456725597381591796875" lon="-0.11951990425586700439453125">
        <ele>936.4000244140625</ele>
        <time>2020-08-18T05:36:00.000Z</time>
      </trkpt>
      <trkpt lat="42.60026908479630947113037109375" lon="-0.11942175216972827911376953125">
        <ele>937.4000244140625</ele>
        <time>2020-08-18T05:36:06.000Z</time>
      </trkpt>
      <trkpt lat="42.60023119859397411346435546875" lon="-0.11939140968024730682373046875">
        <ele>937.5999755859375</ele>
        <time>2020-08-18T05:36:08.000Z</time>
      </trkpt>
      <trkpt lat="42.60008133016526699066162109375" lon="-0.11927490122616291046142578125">
        <ele>938.4000244140625</ele>
        <time>2020-08-18T05:36:16.000Z</time>
      </trkpt>
      <trkpt lat="42.5999826751649379730224609375" lon="-0.1192106120288372039794921875">
        <ele>939.4000244140625</ele>
        <time>2020-08-18T05:36:21.000Z</time>
      </trkpt>
      <trkpt lat="42.59992383420467376708984375" lon="-0.11917591094970703125">
        <ele>940</ele>
        <time>2020-08-18T05:36:24.000Z</time>
      </trkpt>
      <trkpt lat="42.59980849921703338623046875" lon="-0.11909217573702335357666015625">
        <ele>940.79998779296875</ele>
        <time>2020-08-18T05:36:30.000Z</time>
      </trkpt>
      <trkpt lat="42.59977052919566631317138671875" lon="-0.11906434781849384307861328125">
        <ele>941</ele>
        <time>2020-08-18T05:36:32.000Z</time>
      </trkpt>
      <trkpt lat="42.59967413730919361114501953125" lon="-0.1189916767179965972900390625">
        <ele>941.79998779296875</ele>
        <time>2020-08-18T05:36:37.000Z</time>
      </trkpt>
      <trkpt lat="42.5995813496410846710205078125" lon="-0.118922106921672821044921875">
        <ele>942.4000244140625</ele>
        <time>2020-08-18T05:36:42.000Z</time>
      </trkpt>
      <trkpt lat="42.5995303876698017120361328125" lon="-0.11887441389262676239013671875">
        <ele>943</ele>
        <time>2020-08-18T05:36:45.000Z</time>
      </trkpt>
      <trkpt lat="42.59943902492523193359375" lon="-0.118801407516002655029296875">
        <ele>943.79998779296875</ele>
        <time>2020-08-18T05:36:50.000Z</time>
      </trkpt>
      <trkpt lat="42.59940088726580142974853515625" lon="-0.11877014301717281341552734375">
        <ele>944</ele>
        <time>2020-08-18T05:36:52.000Z</time>
      </trkpt>
      <trkpt lat="42.59928873740136623382568359375" lon="-0.118676014244556427001953125">
        <ele>944.79998779296875</ele>
        <time>2020-08-18T05:36:58.000Z</time>
      </trkpt>
      <trkpt lat="42.5992353446781635284423828125" lon="-0.11862681247293949127197265625">
        <ele>945.4000244140625</ele>
        <time>2020-08-18T05:37:01.000Z</time>
      </trkpt>
      <trkpt lat="42.59916787035763263702392578125" lon="-0.11855422519147396087646484375">
        <ele>945.79998779296875</ele>
        <time>2020-08-18T05:37:05.000Z</time>
      </trkpt>
      <trkpt lat="42.5990998931229114532470703125" lon="-0.118486247956752777099609375">
        <ele>946.4000244140625</ele>
        <time>2020-08-18T05:37:09.000Z</time>
      </trkpt>
      <trkpt lat="42.5990066863596439361572265625" lon="-0.11837334372103214263916015625">
        <ele>947.20001220703125</ele>
        <time>2020-08-18T05:37:15.000Z</time>
      </trkpt>
      <trkpt lat="42.5989751704037189483642578125" lon="-0.11833746917545795440673828125">
        <ele>947.5999755859375</ele>
        <time>2020-08-18T05:37:17.000Z</time>
      </trkpt>
      <trkpt lat="42.59887651540338993072509765625" lon="-0.1182289235293865203857421875">
        <ele>948.20001220703125</ele>
        <time>2020-08-18T05:37:23.000Z</time>
      </trkpt>
      <trkpt lat="42.5988273136317729949951171875" lon="-0.1181767880916595458984375">
        <ele>948.79998779296875</ele>
        <time>2020-08-18T05:37:26.000Z</time>
      </trkpt>
      <trkpt lat="42.59873184375464916229248046875" lon="-0.1180641353130340576171875">
        <ele>949.5999755859375</ele>
        <time>2020-08-18T05:37:32.000Z</time>
      </trkpt>
      <trkpt lat="42.5986989028751850128173828125" lon="-0.11802566237747669219970703125">
        <ele>949.79998779296875</ele>
        <time>2020-08-18T05:37:34.000Z</time>
      </trkpt>
      <trkpt lat="42.59857879020273685455322265625" lon="-0.1179037056863307952880859375">
        <ele>950.5999755859375</ele>
        <time>2020-08-18T05:37:41.000Z</time>
      </trkpt>
      <trkpt lat="42.598544172942638397216796875" lon="-0.11787177063524723052978515625">
        <ele>951</ele>
        <time>2020-08-18T05:37:43.000Z</time>
      </trkpt>
      <trkpt lat="42.59844736196100711822509765625" lon="-0.11776850558817386627197265625">
        <ele>951.79998779296875</ele>
        <time>2020-08-18T05:37:49.000Z</time>
      </trkpt>
      <trkpt lat="42.59843210689723491668701171875" lon="-0.1177501492202281951904296875">
        <ele>952.20001220703125</ele>
        <time>2020-08-18T05:37:50.000Z</time>
      </trkpt>
      <trkpt lat="42.598299421370029449462890625" lon="-0.11761947534978389739990234375">
        <ele>953</ele>
        <time>2020-08-18T05:37:58.000Z</time>
      </trkpt>
      <trkpt lat="42.59828257374465465545654296875" lon="-0.11760422028601169586181640625">
        <ele>953.20001220703125</ele>
        <time>2020-08-18T05:37:59.000Z</time>
      </trkpt>
      <trkpt lat="42.59818484075367450714111328125" lon="-0.11755057610571384429931640625">
        <ele>954.20001220703125</ele>
        <time>2020-08-18T05:38:04.000Z</time>
      </trkpt>
      <trkpt lat="42.5981406681239604949951171875" lon="-0.11754487641155719757080078125">
        <ele>954.4000244140625</ele>
        <time>2020-08-18T05:38:06.000Z</time>
      </trkpt>
      <trkpt lat="42.5979314558207988739013671875" lon="-0.117576308548450469970703125">
        <ele>954.79998779296875</ele>
        <time>2020-08-18T05:38:15.000Z</time>
      </trkpt>
      <trkpt lat="42.59779281914234161376953125" lon="-0.1176039688289165496826171875">
        <ele>955.20001220703125</ele>
        <time>2020-08-18T05:38:21.000Z</time>
      </trkpt>
      <trkpt lat="42.5976374186575412750244140625" lon="-0.1176418550312519073486328125">
        <ele>956</ele>
        <time>2020-08-18T05:38:28.000Z</time>
      </trkpt>
      <trkpt lat="42.5975126959383487701416015625" lon="-0.11767320334911346435546875">
        <ele>956.4000244140625</ele>
        <time>2020-08-18T05:38:34.000Z</time>
      </trkpt>
      <trkpt lat="42.59749115444719791412353515625" lon="-0.11768032796680927276611328125">
        <ele>956.5999755859375</ele>
        <time>2020-08-18T05:38:35.000Z</time>
      </trkpt>
      <trkpt lat="42.5973376818001270294189453125" lon="-0.117730535566806793212890625">
        <ele>957.4000244140625</ele>
        <time>2020-08-18T05:38:42.000Z</time>
      </trkpt>
      <trkpt lat="42.59731513448059558868408203125" lon="-0.11773715727031230926513671875">
        <ele>957.5999755859375</ele>
        <time>2020-08-18T05:38:43.000Z</time>
      </trkpt>
      <trkpt lat="42.59714012034237384796142578125" lon="-0.1178415119647979736328125">
        <ele>958.4000244140625</ele>
        <time>2020-08-18T05:38:51.000Z</time>
      </trkpt>
      <trkpt lat="42.597100473940372467041015625" lon="-0.117880068719387054443359375">
        <ele>958.5999755859375</ele>
        <time>2020-08-18T05:38:53.000Z</time>
      </trkpt>
      <trkpt lat="42.596951611340045928955078125" lon="-0.1180394925177097320556640625">
        <ele>959.20001220703125</ele>
        <time>2020-08-18T05:39:01.000Z</time>
      </trkpt>
      <trkpt lat="42.5968428142368793487548828125" lon="-0.11816270649433135986328125">
        <ele>959.79998779296875</ele>
        <time>2020-08-18T05:39:07.000Z</time>
      </trkpt>
      <trkpt lat="42.59676964022219181060791015625" lon="-0.1182423345744609832763671875">
        <ele>960</ele>
        <time>2020-08-18T05:39:11.000Z</time>
      </trkpt>
      <trkpt lat="42.59664122946560382843017578125" lon="-0.1183927059173583984375">
        <ele>960.79998779296875</ele>
        <time>2020-08-18T05:39:18.000Z</time>
      </trkpt>
      <trkpt lat="42.5965839810669422149658203125" lon="-0.11845582164824008941650390625">
        <ele>961</ele>
        <time>2020-08-18T05:39:21.000Z</time>
      </trkpt>
      <trkpt lat="42.59645766578614711761474609375" lon="-0.11860468424856662750244140625">
        <ele>961.5999755859375</ele>
        <time>2020-08-18T05:39:28.000Z</time>
      </trkpt>
      <trkpt lat="42.59642078541219234466552734375" lon="-0.11864592321217060089111328125">
        <ele>961.79998779296875</ele>
        <time>2020-08-18T05:39:30.000Z</time>
      </trkpt>
      <trkpt lat="42.59629824198782444000244140625" lon="-0.11879076249897480010986328125">
        <ele>962.4000244140625</ele>
        <time>2020-08-18T05:39:37.000Z</time>
      </trkpt>
      <trkpt lat="42.59624007157981395721435546875" lon="-0.11884155683219432830810546875">
        <ele>962.79998779296875</ele>
        <time>2020-08-18T05:39:40.000Z</time>
      </trkpt>
      <trkpt lat="42.596124820411205291748046875" lon="-0.11887843720614910125732421875">
        <ele>963.5999755859375</ele>
        <time>2020-08-18T05:39:45.000Z</time>
      </trkpt>
      <trkpt lat="42.59600621648132801055908203125" lon="-0.118865780532360076904296875">
        <ele>963.79998779296875</ele>
        <time>2020-08-18T05:39:50.000Z</time>
      </trkpt>
      <trkpt lat="42.59593807160854339599609375" lon="-0.11884273029863834381103515625">
        <ele>964.20001220703125</ele>
        <time>2020-08-18T05:39:53.000Z</time>
      </trkpt>
      <trkpt lat="42.59576347656548023223876953125" lon="-0.118763186037540435791015625">
        <ele>965</ele>
        <time>2020-08-18T05:40:01.000Z</time>
      </trkpt>
      <trkpt lat="42.59560606442391872406005859375" lon="-0.11863301508128643035888671875">
        <ele>966</ele>
        <time>2020-08-18T05:40:09.000Z</time>
      </trkpt>
      <trkpt lat="42.59558913297951221466064453125" lon="-0.11861356906592845916748046875">
        <ele>966</ele>
        <time>2020-08-18T05:40:10.000Z</time>
      </trkpt>
      <trkpt lat="42.595485113561153411865234375" lon="-0.11849085800349712371826171875">
        <ele>966.79998779296875</ele>
        <time>2020-08-18T05:40:16.000Z</time>
      </trkpt>
      <trkpt lat="42.59545217268168926239013671875" lon="-0.11844542808830738067626953125">
        <ele>967</ele>
        <time>2020-08-18T05:40:18.000Z</time>
      </trkpt>
      <trkpt lat="42.595354020595550537109375" lon="-0.11830913834273815155029296875">
        <ele>967.5999755859375</ele>
        <time>2020-08-18T05:40:24.000Z</time>
      </trkpt>
      <trkpt lat="42.59529040195047855377197265625" lon="-0.1182210445404052734375">
        <ele>968</ele>
        <time>2020-08-18T05:40:28.000Z</time>
      </trkpt>
      <trkpt lat="42.5951845385134220123291015625" lon="-0.1180669851601123809814453125">
        <ele>969</ele>
        <time>2020-08-18T05:40:35.000Z</time>
      </trkpt>
      <trkpt lat="42.5951288826763629913330078125" lon="-0.11800638400018215179443359375">
        <ele>969.4000244140625</ele>
        <time>2020-08-18T05:40:38.000Z</time>
      </trkpt>
      <trkpt lat="42.59505302645266056060791015625" lon="-0.11796891689300537109375">
        <ele>969.4000244140625</ele>
        <time>2020-08-18T05:40:41.000Z</time>
      </trkpt>
      <trkpt lat="42.5948710553348064422607421875" lon="-0.11796011589467525482177734375">
        <ele>969.4000244140625</ele>
        <time>2020-08-18T05:40:47.000Z</time>
      </trkpt>
      <trkpt lat="42.59471976198256015777587890625" lon="-0.117981322109699249267578125">
        <ele>969.20001220703125</ele>
        <time>2020-08-18T05:40:52.000Z</time>
      </trkpt>
      <trkpt lat="42.59447450749576091766357421875" lon="-0.11801728047430515289306640625">
        <ele>969</ele>
        <time>2020-08-18T05:40:59.000Z</time>
      </trkpt>
      <trkpt lat="42.594211064279079437255859375" lon="-0.1180549152195453643798828125">
        <ele>968.20001220703125</ele>
        <time>2020-08-18T05:41:06.000Z</time>
      </trkpt>
      <trkpt lat="42.5939983315765857696533203125" lon="-0.11809271760284900665283203125">
        <ele>967.5999755859375</ele>
        <time>2020-08-18T05:41:10.000Z</time>
      </trkpt>
      <trkpt lat="42.5939396582543849945068359375" lon="-0.1181199587881565093994140625">
        <ele>967</ele>
        <time>2020-08-18T05:41:11.000Z</time>
      </trkpt>
      <trkpt lat="42.593796662986278533935546875" lon="-0.11826991103589534759521484375">
        <ele>965.5999755859375</ele>
        <time>2020-08-18T05:41:14.000Z</time>
      </trkpt>
      <trkpt lat="42.59375249035656452178955078125" lon="-0.11832707561552524566650390625">
        <ele>965.4000244140625</ele>
        <time>2020-08-18T05:41:15.000Z</time>
      </trkpt>
      <trkpt lat="42.593704126775264739990234375" lon="-0.11837594211101531982421875">
        <ele>964.79998779296875</ele>
        <time>2020-08-18T05:41:16.000Z</time>
      </trkpt>
      <trkpt lat="42.59364855475723743438720703125" lon="-0.118411481380462646484375">
        <ele>964.5999755859375</ele>
        <time>2020-08-18T05:41:17.000Z</time>
      </trkpt>
      <trkpt lat="42.5935859419405460357666015625" lon="-0.11842950247228145599365234375">
        <ele>964.20001220703125</ele>
        <time>2020-08-18T05:41:18.000Z</time>
      </trkpt>
      <trkpt lat="42.59337279014289379119873046875" lon="-0.11840678751468658447265625">
        <ele>963</ele>
        <time>2020-08-18T05:41:21.000Z</time>
      </trkpt>
      <trkpt lat="42.5932959280908107757568359375" lon="-0.1183911971747875213623046875">
        <ele>962.5999755859375</ele>
        <time>2020-08-18T05:41:22.000Z</time>
      </trkpt>
      <trkpt lat="42.5932184793055057525634765625" lon="-0.1183754391968250274658203125">
        <ele>961.79998779296875</ele>
        <time>2020-08-18T05:41:23.000Z</time>
      </trkpt>
      <trkpt lat="42.593062408268451690673828125" lon="-0.11835088022053241729736328125">
        <ele>961</ele>
        <time>2020-08-18T05:41:25.000Z</time>
      </trkpt>
      <trkpt lat="42.59298051707446575164794921875" lon="-0.1183512993156909942626953125">
        <ele>960.5999755859375</ele>
        <time>2020-08-18T05:41:26.000Z</time>
      </trkpt>
      <trkpt lat="42.5928144715726375579833984375" lon="-0.11838155798614025115966796875">
        <ele>959.79998779296875</ele>
        <time>2020-08-18T05:41:28.000Z</time>
      </trkpt>
      <trkpt lat="42.5926458276808261871337890625" lon="-0.11844391934573650360107421875">
        <ele>958.20001220703125</ele>
        <time>2020-08-18T05:41:30.000Z</time>
      </trkpt>
      <trkpt lat="42.5924688018858432769775390625" lon="-0.1185051910579204559326171875">
        <ele>957</ele>
        <time>2020-08-18T05:41:32.000Z</time>
      </trkpt>
      <trkpt lat="42.5922810472548007965087890625" lon="-0.11855430901050567626953125">
        <ele>955.79998779296875</ele>
        <time>2020-08-18T05:41:34.000Z</time>
      </trkpt>
      <trkpt lat="42.591985166072845458984375" lon="-0.11858758516609668731689453125">
        <ele>953.79998779296875</ele>
        <time>2020-08-18T05:41:37.000Z</time>
      </trkpt>
      <trkpt lat="42.59178039617836475372314453125" lon="-0.118607617914676666259765625">
        <ele>952.20001220703125</ele>
        <time>2020-08-18T05:41:39.000Z</time>
      </trkpt>
      <trkpt lat="42.59167662821710109710693359375" lon="-0.1186222024261951446533203125">
        <ele>951.20001220703125</ele>
        <time>2020-08-18T05:41:40.000Z</time>
      </trkpt>
      <trkpt lat="42.59157185442745685577392578125" lon="-0.1186386309564113616943359375">
        <ele>950.5999755859375</ele>
        <time>2020-08-18T05:41:41.000Z</time>
      </trkpt>
      <trkpt lat="42.59136599488556385040283203125" lon="-0.118671320378780364990234375">
        <ele>949.4000244140625</ele>
        <time>2020-08-18T05:41:43.000Z</time>
      </trkpt>
      <trkpt lat="42.59117756970226764678955078125" lon="-0.11868305504322052001953125">
        <ele>948.20001220703125</ele>
        <time>2020-08-18T05:41:45.000Z</time>
      </trkpt>
      <trkpt lat="42.591091655194759368896484375" lon="-0.1186664588749408721923828125">
        <ele>947.79998779296875</ele>
        <time>2020-08-18T05:41:46.000Z</time>
      </trkpt>
      <trkpt lat="42.5910096801817417144775390625" lon="-0.118630416691303253173828125">
        <ele>947.20001220703125</ele>
        <time>2020-08-18T05:41:47.000Z</time>
      </trkpt>
      <trkpt lat="42.59084564633667469024658203125" lon="-0.11852002702653408050537109375">
        <ele>945.5999755859375</ele>
        <time>2020-08-18T05:41:49.000Z</time>
      </trkpt>
      <trkpt lat="42.59066694416105747222900390625" lon="-0.11841575615108013153076171875">
        <ele>944.4000244140625</ele>
        <time>2020-08-18T05:41:51.000Z</time>
      </trkpt>
      <trkpt lat="42.590571306645870208740234375" lon="-0.11837434954941272735595703125">
        <ele>943.5999755859375</ele>
        <time>2020-08-18T05:41:52.000Z</time>
      </trkpt>
      <trkpt lat="42.59047332219779491424560546875" lon="-0.11833973228931427001953125">
        <ele>942.5999755859375</ele>
        <time>2020-08-18T05:41:53.000Z</time>
      </trkpt>
      <trkpt lat="42.5902771018445491790771484375" lon="-0.1182872615754604339599609375">
        <ele>941.20001220703125</ele>
        <time>2020-08-18T05:41:55.000Z</time>
      </trkpt>
      <trkpt lat="42.59008423425257205963134765625" lon="-0.1182411611080169677734375">
        <ele>940.20001220703125</ele>
        <time>2020-08-18T05:41:57.000Z</time>
      </trkpt>
      <trkpt lat="42.589898072183132171630859375" lon="-0.1181903667747974395751953125">
        <ele>939.4000244140625</ele>
        <time>2020-08-18T05:41:59.000Z</time>
      </trkpt>
      <trkpt lat="42.58980763144791126251220703125" lon="-0.118160359561443328857421875">
        <ele>939</ele>
        <time>2020-08-18T05:42:00.000Z</time>
      </trkpt>
      <trkpt lat="42.589542679488658905029296875" lon="-0.118053741753101348876953125">
        <ele>938</ele>
        <time>2020-08-18T05:42:03.000Z</time>
      </trkpt>
      <trkpt lat="42.5892855226993560791015625" lon="-0.1179281808435916900634765625">
        <ele>936.79998779296875</ele>
        <time>2020-08-18T05:42:06.000Z</time>
      </trkpt>
      <trkpt lat="42.5890406034886837005615234375" lon="-0.11780387721955776214599609375">
        <ele>936</ele>
        <time>2020-08-18T05:42:09.000Z</time>
      </trkpt>
      <trkpt lat="42.58888511918485164642333984375" lon="-0.117722488939762115478515625">
        <ele>935.20001220703125</ele>
        <time>2020-08-18T05:42:11.000Z</time>
      </trkpt>
      <trkpt lat="42.5887303054332733154296875" lon="-0.11765300296247005462646484375">
        <ele>935</ele>
        <time>2020-08-18T05:42:13.000Z</time>
      </trkpt>
      <trkpt lat="42.588445656001567840576171875" lon="-0.11751252226531505584716796875">
        <ele>934.4000244140625</ele>
        <time>2020-08-18T05:42:17.000Z</time>
      </trkpt>
      <trkpt lat="42.58831632323563098907470703125" lon="-0.1174420304596424102783203125">
        <ele>934</ele>
        <time>2020-08-18T05:42:19.000Z</time>
      </trkpt>
      <trkpt lat="42.58806888945400714874267578125" lon="-0.11730800382792949676513671875">
        <ele>933.4000244140625</ele>
        <time>2020-08-18T05:42:23.000Z</time>
      </trkpt>
      <trkpt lat="42.587824054062366485595703125" lon="-0.11719669215381145477294921875">
        <ele>932.79998779296875</ele>
        <time>2020-08-18T05:42:27.000Z</time>
      </trkpt>
      <trkpt lat="42.5875352136790752410888671875" lon="-0.117080770432949066162109375">
        <ele>932.5999755859375</ele>
        <time>2020-08-18T05:42:32.000Z</time>
      </trkpt>
      <trkpt lat="42.5871598720550537109375" lon="-0.11692713014781475067138671875">
        <ele>932.20001220703125</ele>
        <time>2020-08-18T05:42:39.000Z</time>
      </trkpt>
      <trkpt lat="42.58695711381733417510986328125" lon="-0.11684012599289417266845703125">
        <ele>932.4000244140625</ele>
        <time>2020-08-18T05:42:43.000Z</time>
      </trkpt>
      <trkpt lat="42.58690598420798778533935546875" lon="-0.11681883595883846282958984375">
        <ele>932.20001220703125</ele>
        <time>2020-08-18T05:42:44.000Z</time>
      </trkpt>
      <trkpt lat="42.586853094398975372314453125" lon="-0.11679452843964099884033203125">
        <ele>932.20001220703125</ele>
        <time>2020-08-18T05:42:45.000Z</time>
      </trkpt>
      <trkpt lat="42.58643324486911296844482421875" lon="-0.11660777963697910308837890625">
        <ele>931.20001220703125</ele>
        <time>2020-08-18T05:42:53.000Z</time>
      </trkpt>
      <trkpt lat="42.58638203144073486328125" lon="-0.116581879556179046630859375">
        <ele>931</ele>
        <time>2020-08-18T05:42:54.000Z</time>
      </trkpt>
      <trkpt lat="42.58632997982203960418701171875" lon="-0.11655983515083789825439453125">
        <ele>931</ele>
        <time>2020-08-18T05:42:55.000Z</time>
      </trkpt>
      <trkpt lat="42.586177848279476165771484375" lon="-0.1164864934980869293212890625">
        <ele>930.5999755859375</ele>
        <time>2020-08-18T05:42:58.000Z</time>
      </trkpt>
      <trkpt lat="42.58607550524175167083740234375" lon="-0.11644701473414897918701171875">
        <ele>930.4000244140625</ele>
        <time>2020-08-18T05:43:00.000Z</time>
      </trkpt>
      <trkpt lat="42.58593217469751834869384765625" lon="-0.11638532392680644989013671875">
        <ele>930.20001220703125</ele>
        <time>2020-08-18T05:43:03.000Z</time>
      </trkpt>
      <trkpt lat="42.58559488691389560699462890625" lon="-0.11622154153883457183837890625">
        <ele>929.5999755859375</ele>
        <time>2020-08-18T05:43:10.000Z</time>
      </trkpt>
      <trkpt lat="42.5852905400097370147705078125" lon="-0.11607863008975982666015625">
        <ele>929.4000244140625</ele>
        <time>2020-08-18T05:43:17.000Z</time>
      </trkpt>
      <trkpt lat="42.5851681642234325408935546875" lon="-0.11603211052715778350830078125">
        <ele>929.4000244140625</ele>
        <time>2020-08-18T05:43:20.000Z</time>
      </trkpt>
      <trkpt lat="42.585090212523937225341796875" lon="-0.11599724180996417999267578125">
        <ele>929.4000244140625</ele>
        <time>2020-08-18T05:43:22.000Z</time>
      </trkpt>
      <trkpt lat="42.58500270545482635498046875" lon="-0.1159631274640560150146484375">
        <ele>929.4000244140625</ele>
        <time>2020-08-18T05:43:24.000Z</time>
      </trkpt>
      <trkpt lat="42.5849153660237789154052734375" lon="-0.1159332878887653350830078125">
        <ele>929.4000244140625</ele>
        <time>2020-08-18T05:43:26.000Z</time>
      </trkpt>
      <trkpt lat="42.58487069047987461090087890625" lon="-0.1159165240824222564697265625">
        <ele>929.20001220703125</ele>
        <time>2020-08-18T05:43:27.000Z</time>
      </trkpt>
      <trkpt lat="42.5847282819449901580810546875" lon="-0.11586396954953670501708984375">
        <ele>928.79998779296875</ele>
        <time>2020-08-18T05:43:30.000Z</time>
      </trkpt>
      <trkpt lat="42.58456575684249401092529296875" lon="-0.11584368534386157989501953125">
        <ele>928.5999755859375</ele>
        <time>2020-08-18T05:43:33.000Z</time>
      </trkpt>
      <trkpt lat="42.5844419561326503753662109375" lon="-0.115832872688770294189453125">
        <ele>928</ele>
        <time>2020-08-18T05:43:35.000Z</time>
      </trkpt>
      <trkpt lat="42.58418865501880645751953125" lon="-0.11581317521631717681884765625">
        <ele>927</ele>
        <time>2020-08-18T05:43:39.000Z</time>
      </trkpt>
      <trkpt lat="42.58384206332266330718994140625" lon="-0.11576187796890735626220703125">
        <ele>925.5999755859375</ele>
        <time>2020-08-18T05:43:44.000Z</time>
      </trkpt>
      <trkpt lat="42.583698146045207977294921875" lon="-0.11573337949812412261962890625">
        <ele>924.5999755859375</ele>
        <time>2020-08-18T05:43:46.000Z</time>
      </trkpt>
      <trkpt lat="42.58361960761249065399169921875" lon="-0.1157180406153202056884765625">
        <ele>924.20001220703125</ele>
        <time>2020-08-18T05:43:47.000Z</time>
      </trkpt>
      <trkpt lat="42.58337535895407199859619140625" lon="-0.11566481553018093109130859375">
        <ele>923</ele>
        <time>2020-08-18T05:43:50.000Z</time>
      </trkpt>
      <trkpt lat="42.583203278481960296630859375" lon="-0.11562894098460674285888671875">
        <ele>922</ele>
        <time>2020-08-18T05:43:52.000Z</time>
      </trkpt>
      <trkpt lat="42.583117447793483734130859375" lon="-0.1156110875308513641357421875">
        <ele>921.5999755859375</ele>
        <time>2020-08-18T05:43:53.000Z</time>
      </trkpt>
      <trkpt lat="42.5828571058809757232666015625" lon="-0.11555719189345836639404296875">
        <ele>920.20001220703125</ele>
        <time>2020-08-18T05:43:56.000Z</time>
      </trkpt>
      <trkpt lat="42.5825882144272327423095703125" lon="-0.1155048049986362457275390625">
        <ele>919.4000244140625</ele>
        <time>2020-08-18T05:43:59.000Z</time>
      </trkpt>
      <trkpt lat="42.5824956782162189483642578125" lon="-0.11549332179129123687744140625">
        <ele>919</ele>
        <time>2020-08-18T05:44:00.000Z</time>
      </trkpt>
      <trkpt lat="42.5824041478335857391357421875" lon="-0.11548242531716823577880859375">
        <ele>918.4000244140625</ele>
        <time>2020-08-18T05:44:01.000Z</time>
      </trkpt>
      <trkpt lat="42.58207507431507110595703125" lon="-0.115434229373931884765625">
        <ele>917.5999755859375</ele>
        <time>2020-08-18T05:44:05.000Z</time>
      </trkpt>
      <trkpt lat="42.58193333633244037628173828125" lon="-0.115384273231029510498046875">
        <ele>917.5999755859375</ele>
        <time>2020-08-18T05:44:07.000Z</time>
      </trkpt>
      <trkpt lat="42.58180685341358184814453125" lon="-0.11531420052051544189453125">
        <ele>917.79998779296875</ele>
        <time>2020-08-18T05:44:09.000Z</time>
      </trkpt>
      <trkpt lat="42.5812652148306369781494140625" lon="-0.11501379311084747314453125">
        <ele>917.4000244140625</ele>
        <time>2020-08-18T05:44:18.000Z</time>
      </trkpt>
      <trkpt lat="42.58114962838590145111083984375" lon="-0.11495386250317096710205078125">
        <ele>917.20001220703125</ele>
        <time>2020-08-18T05:44:20.000Z</time>
      </trkpt>
      <trkpt lat="42.58096589706838130950927734375" lon="-0.1149133779108524322509765625">
        <ele>916.5999755859375</ele>
        <time>2020-08-18T05:44:23.000Z</time>
      </trkpt>
      <trkpt lat="42.5808360613882541656494140625" lon="-0.114928968250751495361328125">
        <ele>916.20001220703125</ele>
        <time>2020-08-18T05:44:25.000Z</time>
      </trkpt>
      <trkpt lat="42.5807140208780765533447265625" lon="-0.11496576480567455291748046875">
        <ele>916</ele>
        <time>2020-08-18T05:44:27.000Z</time>
      </trkpt>
      <trkpt lat="42.580364830791950225830078125" lon="-0.1151125319302082061767578125">
        <ele>915.20001220703125</ele>
        <time>2020-08-18T05:44:33.000Z</time>
      </trkpt>
      <trkpt lat="42.5802456401288509368896484375" lon="-0.11516039259731769561767578125">
        <ele>914.79998779296875</ele>
        <time>2020-08-18T05:44:35.000Z</time>
      </trkpt>
      <trkpt lat="42.58011563681066036224365234375" lon="-0.115208588540554046630859375">
        <ele>913.79998779296875</ele>
        <time>2020-08-18T05:44:37.000Z</time>
      </trkpt>
      <trkpt lat="42.57995839230716228485107421875" lon="-0.11524555273354053497314453125">
        <ele>912.5999755859375</ele>
        <time>2020-08-18T05:44:39.000Z</time>
      </trkpt>
      <trkpt lat="42.579871304333209991455078125" lon="-0.11524588800966739654541015625">
        <ele>912.20001220703125</ele>
        <time>2020-08-18T05:44:40.000Z</time>
      </trkpt>
      <trkpt lat="42.57978136651217937469482421875" lon="-0.11523197405040264129638671875">
        <ele>911.4000244140625</ele>
        <time>2020-08-18T05:44:41.000Z</time>
      </trkpt>
      <trkpt lat="42.57969059050083160400390625" lon="-0.115203559398651123046875">
        <ele>910.5999755859375</ele>
        <time>2020-08-18T05:44:42.000Z</time>
      </trkpt>
      <trkpt lat="42.57959897629916667938232421875" lon="-0.11516475118696689605712890625">
        <ele>910</ele>
        <time>2020-08-18T05:44:43.000Z</time>
      </trkpt>
      <trkpt lat="42.5794134847819805145263671875" lon="-0.11507540009915828704833984375">
        <ele>908.4000244140625</ele>
        <time>2020-08-18T05:44:45.000Z</time>
      </trkpt>
      <trkpt lat="42.5792220421135425567626953125" lon="-0.114976577460765838623046875">
        <ele>907</ele>
        <time>2020-08-18T05:44:47.000Z</time>
      </trkpt>
      <trkpt lat="42.579028420150279998779296875" lon="-0.11488010175526142120361328125">
        <ele>905.20001220703125</ele>
        <time>2020-08-18T05:44:49.000Z</time>
      </trkpt>
      <trkpt lat="42.57883203215897083282470703125" lon="-0.11478605680167675018310546875">
        <ele>903.5999755859375</ele>
        <time>2020-08-18T05:44:51.000Z</time>
      </trkpt>
      <trkpt lat="42.57864528335630893707275390625" lon="-0.11469989083707332611083984375">
        <ele>902.4000244140625</ele>
        <time>2020-08-18T05:44:53.000Z</time>
      </trkpt>
      <trkpt lat="42.5784673355519771575927734375" lon="-0.11461087502539157867431640625">
        <ele>901</ele>
        <time>2020-08-18T05:44:55.000Z</time>
      </trkpt>
      <trkpt lat="42.57838343270123004913330078125" lon="-0.11455689556896686553955078125">
        <ele>900.20001220703125</ele>
        <time>2020-08-18T05:44:56.000Z</time>
      </trkpt>
      <trkpt lat="42.5783017091453075408935546875" lon="-0.1144929416477680206298828125">
        <ele>899</ele>
        <time>2020-08-18T05:44:57.000Z</time>
      </trkpt>
      <trkpt lat="42.57821948267519474029541015625" lon="-0.1144243776798248291015625">
        <ele>898.4000244140625</ele>
        <time>2020-08-18T05:44:58.000Z</time>
      </trkpt>
      <trkpt lat="42.57813583128154277801513671875" lon="-0.114352963864803314208984375">
        <ele>898</ele>
        <time>2020-08-18T05:44:59.000Z</time>
      </trkpt>
      <trkpt lat="42.57797406055033206939697265625" lon="-0.114202760159969329833984375">
        <ele>896.5999755859375</ele>
        <time>2020-08-18T05:45:01.000Z</time>
      </trkpt>
      <trkpt lat="42.57781262509524822235107421875" lon="-0.1140515506267547607421875">
        <ele>895.20001220703125</ele>
        <time>2020-08-18T05:45:03.000Z</time>
      </trkpt>
      <trkpt lat="42.57772880606353282928466796875" lon="-0.11397787369787693023681640625">
        <ele>894.20001220703125</ele>
        <time>2020-08-18T05:45:04.000Z</time>
      </trkpt>
      <trkpt lat="42.5776438973844051361083984375" lon="-0.113907046616077423095703125">
        <ele>893</ele>
        <time>2020-08-18T05:45:05.000Z</time>
      </trkpt>
      <trkpt lat="42.5774735771119594573974609375" lon="-0.113767571747303009033203125">
        <ele>891.79998779296875</ele>
        <time>2020-08-18T05:45:07.000Z</time>
      </trkpt>
      <trkpt lat="42.57738791406154632568359375" lon="-0.1137100718915462493896484375">
        <ele>891.4000244140625</ele>
        <time>2020-08-18T05:45:08.000Z</time>
      </trkpt>
      <trkpt lat="42.57730099372565746307373046875" lon="-0.113667659461498260498046875">
        <ele>891</ele>
        <time>2020-08-18T05:45:09.000Z</time>
      </trkpt>
      <trkpt lat="42.57721197791397571563720703125" lon="-0.11363958008587360382080078125">
        <ele>890.5999755859375</ele>
        <time>2020-08-18T05:45:10.000Z</time>
      </trkpt>
      <trkpt lat="42.57694660685956478118896484375" lon="-0.11358224786818027496337890625">
        <ele>889.4000244140625</ele>
        <time>2020-08-18T05:45:13.000Z</time>
      </trkpt>
      <trkpt lat="42.5766112469136714935302734375" lon="-0.11350345797836780548095703125">
        <ele>888.4000244140625</ele>
        <time>2020-08-18T05:45:17.000Z</time>
      </trkpt>
      <trkpt lat="42.57629818283021450042724609375" lon="-0.1134301163256168365478515625">
        <ele>887.4000244140625</ele>
        <time>2020-08-18T05:45:21.000Z</time>
      </trkpt>
      <trkpt lat="42.57622458972036838531494140625" lon="-0.11341259814798831939697265625">
        <ele>887.20001220703125</ele>
        <time>2020-08-18T05:45:22.000Z</time>
      </trkpt>
      <trkpt lat="42.5758798420429229736328125" lon="-0.11333280242979526519775390625">
        <ele>886.5999755859375</ele>
        <time>2020-08-18T05:45:27.000Z</time>
      </trkpt>
      <trkpt lat="42.575624696910381317138671875" lon="-0.11327932588756084442138671875">
        <ele>886.4000244140625</ele>
        <time>2020-08-18T05:45:31.000Z</time>
      </trkpt>
      <trkpt lat="42.57538422010838985443115234375" lon="-0.113228447735309600830078125">
        <ele>886.20001220703125</ele>
        <time>2020-08-18T05:45:35.000Z</time>
      </trkpt>
      <trkpt lat="42.57491265423595905303955078125" lon="-0.11312426067888736724853515625">
        <ele>885.79998779296875</ele>
        <time>2020-08-18T05:45:44.000Z</time>
      </trkpt>
      <trkpt lat="42.57460386492311954498291015625" lon="-0.11305770836770534515380859375">
        <ele>886.20001220703125</ele>
        <time>2020-08-18T05:45:51.000Z</time>
      </trkpt>
      <trkpt lat="42.57451820187270641326904296875" lon="-0.1130411960184574127197265625">
        <ele>886.4000244140625</ele>
        <time>2020-08-18T05:45:53.000Z</time>
      </trkpt>
      <trkpt lat="42.57413950748741626739501953125" lon="-0.112960226833820343017578125">
        <ele>886.5999755859375</ele>
        <time>2020-08-18T05:46:02.000Z</time>
      </trkpt>
      <trkpt lat="42.573732398450374603271484375" lon="-0.112870037555694580078125">
        <ele>887</ele>
        <time>2020-08-18T05:46:12.000Z</time>
      </trkpt>
      <trkpt lat="42.57342629134654998779296875" lon="-0.112801976501941680908203125">
        <ele>887.20001220703125</ele>
        <time>2020-08-18T05:46:20.000Z</time>
      </trkpt>
      <trkpt lat="42.57331456057727336883544921875" lon="-0.1127776689827442169189453125">
        <ele>887.5999755859375</ele>
        <time>2020-08-18T05:46:23.000Z</time>
      </trkpt>
      <trkpt lat="42.57320308126509189605712890625" lon="-0.11275143362581729888916015625">
        <ele>887.79998779296875</ele>
        <time>2020-08-18T05:46:26.000Z</time>
      </trkpt>
      <trkpt lat="42.5729869119822978973388671875" lon="-0.11270172894001007080078125">
        <ele>888.4000244140625</ele>
        <time>2020-08-18T05:46:32.000Z</time>
      </trkpt>
      <trkpt lat="42.5726965628564357757568359375" lon="-0.11263861320912837982177734375">
        <ele>888.79998779296875</ele>
        <time>2020-08-18T05:46:40.000Z</time>
      </trkpt>
      <trkpt lat="42.57265926338732242584228515625" lon="-0.11263140477240085601806640625">
        <ele>889</ele>
        <time>2020-08-18T05:46:41.000Z</time>
      </trkpt>
      <trkpt lat="42.57233806885778903961181640625" lon="-0.1125607453286647796630859375">
        <ele>889.4000244140625</ele>
        <time>2020-08-18T05:46:50.000Z</time>
      </trkpt>
      <trkpt lat="42.572086192667484283447265625" lon="-0.1125208474695682525634765625">
        <ele>890</ele>
        <time>2020-08-18T05:46:57.000Z</time>
      </trkpt>
      <trkpt lat="42.572049982845783233642578125" lon="-0.1125141419470310211181640625">
        <ele>890</ele>
        <time>2020-08-18T05:46:58.000Z</time>
      </trkpt>
      <trkpt lat="42.571766674518585205078125" lon="-0.112447254359722137451171875">
        <ele>890.79998779296875</ele>
        <time>2020-08-18T05:47:06.000Z</time>
      </trkpt>
      <trkpt lat="42.5714503414928913116455078125" lon="-0.112377516925334930419921875">
        <ele>891</ele>
        <time>2020-08-18T05:47:15.000Z</time>
      </trkpt>
      <trkpt lat="42.5710999779403209686279296875" lon="-0.11230283416807651519775390625">
        <ele>891.79998779296875</ele>
        <time>2020-08-18T05:47:25.000Z</time>
      </trkpt>
      <trkpt lat="42.57078423164784908294677734375" lon="-0.11223125271499156951904296875">
        <ele>892</ele>
        <time>2020-08-18T05:47:34.000Z</time>
      </trkpt>
      <trkpt lat="42.5706792064011096954345703125" lon="-0.11220476590096950531005859375">
        <ele>892.4000244140625</ele>
        <time>2020-08-18T05:47:37.000Z</time>
      </trkpt>
      <trkpt lat="42.57043696939945220947265625" lon="-0.11215095408260822296142578125">
        <ele>892.79998779296875</ele>
        <time>2020-08-18T05:47:44.000Z</time>
      </trkpt>
      <trkpt lat="42.57016195915639400482177734375" lon="-0.112089850008487701416015625">
        <ele>893.20001220703125</ele>
        <time>2020-08-18T05:47:52.000Z</time>
      </trkpt>
      <trkpt lat="42.57006171159446239471435546875" lon="-0.11206378228962421417236328125">
        <ele>893.5999755859375</ele>
        <time>2020-08-18T05:47:55.000Z</time>
      </trkpt>
      <trkpt lat="42.56989222951233386993408203125" lon="-0.11202472262084484100341796875">
        <ele>893.79998779296875</ele>
        <time>2020-08-18T05:48:00.000Z</time>
      </trkpt>
      <trkpt lat="42.5695431232452392578125" lon="-0.111947357654571533203125">
        <ele>894.5999755859375</ele>
        <time>2020-08-18T05:48:10.000Z</time>
      </trkpt>
      <trkpt lat="42.56950967945158481597900390625" lon="-0.11193889193236827850341796875">
        <ele>894.79998779296875</ele>
        <time>2020-08-18T05:48:11.000Z</time>
      </trkpt>
      <trkpt lat="42.56930918432772159576416015625" lon="-0.11190134100615978240966796875">
        <ele>895.4000244140625</ele>
        <time>2020-08-18T05:48:17.000Z</time>
      </trkpt>
      <trkpt lat="42.5690544582903385162353515625" lon="-0.11184149421751499176025390625">
        <ele>896</ele>
        <time>2020-08-18T05:48:25.000Z</time>
      </trkpt>
      <trkpt lat="42.5688133947551250457763671875" lon="-0.1117842458188533782958984375">
        <ele>897.20001220703125</ele>
        <time>2020-08-18T05:48:33.000Z</time>
      </trkpt>
      <trkpt lat="42.56878347136080265045166015625" lon="-0.11178013868629932403564453125">
        <ele>897.20001220703125</ele>
        <time>2020-08-18T05:48:34.000Z</time>
      </trkpt>
      <trkpt lat="42.56859429180622100830078125" lon="-0.1117408275604248046875">
        <ele>897.79998779296875</ele>
        <time>2020-08-18T05:48:40.000Z</time>
      </trkpt>
      <trkpt lat="42.5684992410242557525634765625" lon="-0.11172951199114322662353515625">
        <ele>898.4000244140625</ele>
        <time>2020-08-18T05:48:43.000Z</time>
      </trkpt>
      <trkpt lat="42.5683453492820262908935546875" lon="-0.1116979122161865234375">
        <ele>899</ele>
        <time>2020-08-18T05:48:48.000Z</time>
      </trkpt>
      <trkpt lat="42.568225152790546417236328125" lon="-0.11166832409799098968505859375">
        <ele>899.5999755859375</ele>
        <time>2020-08-18T05:48:52.000Z</time>
      </trkpt>
      <trkpt lat="42.56810956634581089019775390625" lon="-0.11164317838847637176513671875">
        <ele>900.4000244140625</ele>
        <time>2020-08-18T05:48:56.000Z</time>
      </trkpt>
      <trkpt lat="42.56802222691476345062255859375" lon="-0.11162473820149898529052734375">
        <ele>901</ele>
        <time>2020-08-18T05:48:59.000Z</time>
      </trkpt>
      <trkpt lat="42.56785861216485500335693359375" lon="-0.11158634908497333526611328125">
        <ele>901</ele>
        <time>2020-08-18T05:49:04.000Z</time>
      </trkpt>
      <trkpt lat="42.5674568675458431243896484375" lon="-0.111495740711688995361328125">
        <ele>901</ele>
        <time>2020-08-18T05:49:15.000Z</time>
      </trkpt>
      <trkpt lat="42.56712444126605987548828125" lon="-0.11142105795443058013916015625">
        <ele>900.4000244140625</ele>
        <time>2020-08-18T05:49:23.000Z</time>
      </trkpt>
      <trkpt lat="42.56694749929010868072509765625" lon="-0.11137797497212886810302734375">
        <ele>900</ele>
        <time>2020-08-18T05:49:27.000Z</time>
      </trkpt>
      <trkpt lat="42.56685110740363597869873046875" lon="-0.1113720238208770751953125">
        <ele>899.79998779296875</ele>
        <time>2020-08-18T05:49:29.000Z</time>
      </trkpt>
      <trkpt lat="42.56680098362267017364501953125" lon="-0.1113788969814777374267578125">
        <ele>899.5999755859375</ele>
        <time>2020-08-18T05:49:30.000Z</time>
      </trkpt>
      <trkpt lat="42.5666565634310245513916015625" lon="-0.11146363802254199981689453125">
        <ele>899</ele>
        <time>2020-08-18T05:49:33.000Z</time>
      </trkpt>
      <trkpt lat="42.56661674939095973968505859375" lon="-0.1115150190889835357666015625">
        <ele>898.5999755859375</ele>
        <time>2020-08-18T05:49:34.000Z</time>
      </trkpt>
      <trkpt lat="42.56652052514255046844482421875" lon="-0.1117175258696079254150390625">
        <ele>898</ele>
        <time>2020-08-18T05:49:37.000Z</time>
      </trkpt>
      <trkpt lat="42.566465623676776885986328125" lon="-0.11187720112502574920654296875">
        <ele>897.5999755859375</ele>
        <time>2020-08-18T05:49:39.000Z</time>
      </trkpt>
      <trkpt lat="42.5663732551038265228271484375" lon="-0.112210214138031005859375">
        <ele>896.4000244140625</ele>
        <time>2020-08-18T05:49:43.000Z</time>
      </trkpt>
      <trkpt lat="42.56629505194723606109619140625" lon="-0.11246846057474613189697265625">
        <ele>895.5999755859375</ele>
        <time>2020-08-18T05:49:46.000Z</time>
      </trkpt>
      <trkpt lat="42.56627015769481658935546875" lon="-0.11255898512899875640869140625">
        <ele>895.5999755859375</ele>
        <time>2020-08-18T05:49:47.000Z</time>
      </trkpt>
      <trkpt lat="42.5661300122737884521484375" lon="-0.113025605678558349609375">
        <ele>894.20001220703125</ele>
        <time>2020-08-18T05:49:52.000Z</time>
      </trkpt>
      <trkpt lat="42.566088773310184478759765625" lon="-0.11311084963381290435791015625">
        <ele>893.5999755859375</ele>
        <time>2020-08-18T05:49:53.000Z</time>
      </trkpt>
      <trkpt lat="42.56599313579499721527099609375" lon="-0.11327161453664302825927734375">
        <ele>893</ele>
        <time>2020-08-18T05:49:55.000Z</time>
      </trkpt>
      <trkpt lat="42.5657707639038562774658203125" lon="-0.11356615461409091949462890625">
        <ele>892.20001220703125</ele>
        <time>2020-08-18T05:49:59.000Z</time>
      </trkpt>
      <trkpt lat="42.565711922943592071533203125" lon="-0.11363983154296875">
        <ele>892</ele>
        <time>2020-08-18T05:50:00.000Z</time>
      </trkpt>
      <trkpt lat="42.565472535789012908935546875" lon="-0.11393596418201923370361328125">
        <ele>890.5999755859375</ele>
        <time>2020-08-18T05:50:04.000Z</time>
      </trkpt>
      <trkpt lat="42.5652316398918628692626953125" lon="-0.11421960778534412384033203125">
        <ele>889.79998779296875</ele>
        <time>2020-08-18T05:50:08.000Z</time>
      </trkpt>
      <trkpt lat="42.5651669315993785858154296875" lon="-0.11428347788751125335693359375">
        <ele>889.5999755859375</ele>
        <time>2020-08-18T05:50:09.000Z</time>
      </trkpt>
      <trkpt lat="42.56491002626717090606689453125" lon="-0.1145200990140438079833984375">
        <ele>888.5999755859375</ele>
        <time>2020-08-18T05:50:13.000Z</time>
      </trkpt>
      <trkpt lat="42.56471137516200542449951171875" lon="-0.11469184421002864837646484375">
        <ele>888</ele>
        <time>2020-08-18T05:50:16.000Z</time>
      </trkpt>
      <trkpt lat="42.56450886838138103485107421875" lon="-0.114865601062774658203125">
        <ele>887.20001220703125</ele>
        <time>2020-08-18T05:50:19.000Z</time>
      </trkpt>
      <trkpt lat="42.5643062777817249298095703125" lon="-0.1150267012417316436767578125">
        <ele>886.4000244140625</ele>
        <time>2020-08-18T05:50:22.000Z</time>
      </trkpt>
      <trkpt lat="42.56416261196136474609375" lon="-0.11512418277561664581298828125">
        <ele>886</ele>
        <time>2020-08-18T05:50:24.000Z</time>
      </trkpt>
      <trkpt lat="42.56394593976438045501708984375" lon="-0.1152694411575794219970703125">
        <ele>884.5999755859375</ele>
        <time>2020-08-18T05:50:27.000Z</time>
      </trkpt>
      <trkpt lat="42.5637991726398468017578125" lon="-0.11537253856658935546875">
        <ele>884.20001220703125</ele>
        <time>2020-08-18T05:50:29.000Z</time>
      </trkpt>
      <trkpt lat="42.56358853541314601898193359375" lon="-0.11551092378795146942138671875">
        <ele>883.5999755859375</ele>
        <time>2020-08-18T05:50:32.000Z</time>
      </trkpt>
      <trkpt lat="42.56338753737509250640869140625" lon="-0.1156461238861083984375">
        <ele>883</ele>
        <time>2020-08-18T05:50:35.000Z</time>
      </trkpt>
      <trkpt lat="42.56318888626992702484130859375" lon="-0.11577981524169445037841796875">
        <ele>882.5999755859375</ele>
        <time>2020-08-18T05:50:38.000Z</time>
      </trkpt>
      <trkpt lat="42.562996856868267059326171875" lon="-0.1159044541418552398681640625">
        <ele>882.20001220703125</ele>
        <time>2020-08-18T05:50:41.000Z</time>
      </trkpt>
      <trkpt lat="42.56293642334640026092529296875" lon="-0.115943513810634613037109375">
        <ele>882</ele>
        <time>2020-08-18T05:50:42.000Z</time>
      </trkpt>
      <trkpt lat="42.5627485848963260650634765625" lon="-0.1160821504890918731689453125">
        <ele>881.79998779296875</ele>
        <time>2020-08-18T05:50:45.000Z</time>
      </trkpt>
      <trkpt lat="42.56262947805225849151611328125" lon="-0.1161750219762325286865234375">
        <ele>881.79998779296875</ele>
        <time>2020-08-18T05:50:47.000Z</time>
      </trkpt>
      <trkpt lat="42.56257181055843830108642578125" lon="-0.11620997451245784759521484375">
        <ele>881.79998779296875</ele>
        <time>2020-08-18T05:50:48.000Z</time>
      </trkpt>
      <trkpt lat="42.56239595822989940643310546875" lon="-0.116304270923137664794921875">
        <ele>881.4000244140625</ele>
        <time>2020-08-18T05:50:51.000Z</time>
      </trkpt>
      <trkpt lat="42.5620844028890132904052734375" lon="-0.1164110563695430755615234375">
        <ele>880.5999755859375</ele>
        <time>2020-08-18T05:50:56.000Z</time>
      </trkpt>
      <trkpt lat="42.56202061660587787628173828125" lon="-0.11643125675618648529052734375">
        <ele>880.4000244140625</ele>
        <time>2020-08-18T05:50:57.000Z</time>
      </trkpt>
      <trkpt lat="42.5617821514606475830078125" lon="-0.11650082655251026153564453125">
        <ele>880</ele>
        <time>2020-08-18T05:51:01.000Z</time>
      </trkpt>
      <trkpt lat="42.561719119548797607421875" lon="-0.116514824330806732177734375">
        <ele>879.79998779296875</ele>
        <time>2020-08-18T05:51:02.000Z</time>
      </trkpt>
      <trkpt lat="42.56165818311274051666259765625" lon="-0.11652664281427860260009765625">
        <ele>879.5999755859375</ele>
        <time>2020-08-18T05:51:03.000Z</time>
      </trkpt>
      <trkpt lat="42.56135676987469196319580078125" lon="-0.11662638746201992034912109375">
        <ele>878.79998779296875</ele>
        <time>2020-08-18T05:51:08.000Z</time>
      </trkpt>
      <trkpt lat="42.5612321309745311737060546875" lon="-0.1166645251214504241943359375">
        <ele>878.5999755859375</ele>
        <time>2020-08-18T05:51:10.000Z</time>
      </trkpt>
      <trkpt lat="42.5608824379742145538330078125" lon="-0.116775333881378173828125">
        <ele>878</ele>
        <time>2020-08-18T05:51:16.000Z</time>
      </trkpt>
      <trkpt lat="42.5608314760029315948486328125" lon="-0.1167899183928966522216796875">
        <ele>877.79998779296875</ele>
        <time>2020-08-18T05:51:17.000Z</time>
      </trkpt>
      <trkpt lat="42.56071555428206920623779296875" lon="-0.1168291456997394561767578125">
        <ele>877.5999755859375</ele>
        <time>2020-08-18T05:51:19.000Z</time>
      </trkpt>
      <trkpt lat="42.56066274829208850860595703125" lon="-0.116842053830623626708984375">
        <ele>877.4000244140625</ele>
        <time>2020-08-18T05:51:20.000Z</time>
      </trkpt>
      <trkpt lat="42.56056132726371288299560546875" lon="-0.11685789562761783599853515625">
        <ele>877.4000244140625</ele>
        <time>2020-08-18T05:51:22.000Z</time>
      </trkpt>
      <trkpt lat="42.56039519794285297393798828125" lon="-0.1169072650372982025146484375">
        <ele>877.20001220703125</ele>
        <time>2020-08-18T05:51:25.000Z</time>
      </trkpt>
      <trkpt lat="42.56011717021465301513671875" lon="-0.11700172908604145050048828125">
        <ele>876.79998779296875</ele>
        <time>2020-08-18T05:51:30.000Z</time>
      </trkpt>
      <trkpt lat="42.559895552694797515869140625" lon="-0.1170904934406280517578125">
        <ele>876.4000244140625</ele>
        <time>2020-08-18T05:51:34.000Z</time>
      </trkpt>
      <trkpt lat="42.55978616885840892791748046875" lon="-0.11714723892509937286376953125">
        <ele>876</ele>
        <time>2020-08-18T05:51:36.000Z</time>
      </trkpt>
      <trkpt lat="42.55973638035356998443603515625" lon="-0.11718143709003925323486328125">
        <ele>875.79998779296875</ele>
        <time>2020-08-18T05:51:37.000Z</time>
      </trkpt>
      <trkpt lat="42.559600509703159332275390625" lon="-0.11732853949069976806640625">
        <ele>875.5999755859375</ele>
        <time>2020-08-18T05:51:40.000Z</time>
      </trkpt>
      <trkpt lat="42.559556253254413604736328125" lon="-0.117376483976840972900390625">
        <ele>875.4000244140625</ele>
        <time>2020-08-18T05:51:41.000Z</time>
      </trkpt>
      <trkpt lat="42.559333629906177520751953125" lon="-0.117596089839935302734375">
        <ele>875.4000244140625</ele>
        <time>2020-08-18T05:51:46.000Z</time>
      </trkpt>
      <trkpt lat="42.559115029871463775634765625" lon="-0.11783556081354618072509765625">
        <ele>875.20001220703125</ele>
        <time>2020-08-18T05:51:51.000Z</time>
      </trkpt>
      <trkpt lat="42.55894261412322521209716796875" lon="-0.118007473647594451904296875">
        <ele>875</ele>
        <time>2020-08-18T05:51:55.000Z</time>
      </trkpt>
      <trkpt lat="42.558822333812713623046875" lon="-0.1181347109377384185791015625">
        <ele>875</ele>
        <time>2020-08-18T05:51:58.000Z</time>
      </trkpt>
      <trkpt lat="42.55851991474628448486328125" lon="-0.11846738867461681365966796875">
        <ele>875.20001220703125</ele>
        <time>2020-08-18T05:52:06.000Z</time>
      </trkpt>
      <trkpt lat="42.5582273863255977630615234375" lon="-0.1187851466238498687744140625">
        <ele>875.20001220703125</ele>
        <time>2020-08-18T05:52:14.000Z</time>
      </trkpt>
      <trkpt lat="42.55797014571726322174072265625" lon="-0.1190570555627346038818359375">
        <ele>875</ele>
        <time>2020-08-18T05:52:21.000Z</time>
      </trkpt>
      <trkpt lat="42.55765029229223728179931640625" lon="-0.11940347962081432342529296875">
        <ele>875</ele>
        <time>2020-08-18T05:52:30.000Z</time>
      </trkpt>
      <trkpt lat="42.55720940418541431427001953125" lon="-0.1198670826852321624755859375">
        <ele>874.79998779296875</ele>
        <time>2020-08-18T05:52:42.000Z</time>
      </trkpt>
      <trkpt lat="42.55685250274837017059326171875" lon="-0.12024141848087310791015625">
        <ele>875.20001220703125</ele>
        <time>2020-08-18T05:52:52.000Z</time>
      </trkpt>
      <trkpt lat="42.5564802624285221099853515625" lon="-0.1206358708441257476806640625">
        <ele>874.79998779296875</ele>
        <time>2020-08-18T05:53:02.000Z</time>
      </trkpt>
      <trkpt lat="42.556250430643558502197265625" lon="-0.12086763046681880950927734375">
        <ele>874.4000244140625</ele>
        <time>2020-08-18T05:53:08.000Z</time>
      </trkpt>
      <trkpt lat="42.55621195770800113677978515625" lon="-0.1209045946598052978515625">
        <ele>874.20001220703125</ele>
        <time>2020-08-18T05:53:09.000Z</time>
      </trkpt>
      <trkpt lat="42.55587500520050525665283203125" lon="-0.12116971425712108612060546875">
        <ele>873.5999755859375</ele>
        <time>2020-08-18T05:53:17.000Z</time>
      </trkpt>
      <trkpt lat="42.55566311068832874298095703125" lon="-0.12133450247347354888916015625">
        <ele>873.20001220703125</ele>
        <time>2020-08-18T05:53:22.000Z</time>
      </trkpt>
      <trkpt lat="42.5555746816098690032958984375" lon="-0.12139066122472286224365234375">
        <ele>873</ele>
        <time>2020-08-18T05:53:24.000Z</time>
      </trkpt>
      <trkpt lat="42.55532783456146717071533203125" lon="-0.12152560986578464508056640625">
        <ele>872.4000244140625</ele>
        <time>2020-08-18T05:53:30.000Z</time>
      </trkpt>
      <trkpt lat="42.55514728836715221405029296875" lon="-0.1216004602611064910888671875">
        <ele>872.20001220703125</ele>
        <time>2020-08-18T05:53:34.000Z</time>
      </trkpt>
      <trkpt lat="42.5550130940973758697509765625" lon="-0.1216406933963298797607421875">
        <ele>872</ele>
        <time>2020-08-18T05:53:37.000Z</time>
      </trkpt>
      <trkpt lat="42.5547566078603267669677734375" lon="-0.1216929964721202850341796875">
        <ele>871.79998779296875</ele>
        <time>2020-08-18T05:53:43.000Z</time>
      </trkpt>
      <trkpt lat="42.5547103397548198699951171875" lon="-0.1216913200914859771728515625">
        <ele>871.5999755859375</ele>
        <time>2020-08-18T05:53:44.000Z</time>
      </trkpt>
      <trkpt lat="42.5546644069254398345947265625" lon="-0.1216851174831390380859375">
        <ele>871.5999755859375</ele>
        <time>2020-08-18T05:53:45.000Z</time>
      </trkpt>
      <trkpt lat="42.554482519626617431640625" lon="-0.1216182298958301544189453125">
        <ele>871.4000244140625</ele>
        <time>2020-08-18T05:53:49.000Z</time>
      </trkpt>
      <trkpt lat="42.554437927901744842529296875" lon="-0.121598280966281890869140625">
        <ele>871.20001220703125</ele>
        <time>2020-08-18T05:53:50.000Z</time>
      </trkpt>
      <trkpt lat="42.55412645637989044189453125" lon="-0.12144531123340129852294921875">
        <ele>870.5999755859375</ele>
        <time>2020-08-18T05:53:57.000Z</time>
      </trkpt>
      <trkpt lat="42.55386234261095523834228515625" lon="-0.121319331228733062744140625">
        <ele>870.20001220703125</ele>
        <time>2020-08-18T05:54:03.000Z</time>
      </trkpt>
      <trkpt lat="42.55377802066504955291748046875" lon="-0.12127465568482875823974609375">
        <ele>870.20001220703125</ele>
        <time>2020-08-18T05:54:05.000Z</time>
      </trkpt>
      <trkpt lat="42.55338608287274837493896484375" lon="-0.121072567999362945556640625">
        <ele>869.4000244140625</ele>
        <time>2020-08-18T05:54:14.000Z</time>
      </trkpt>
      <trkpt lat="42.55329228937625885009765625" lon="-0.12103325687348842620849609375">
        <ele>869.4000244140625</ele>
        <time>2020-08-18T05:54:16.000Z</time>
      </trkpt>
      <trkpt lat="42.55309506319463253021240234375" lon="-0.1210118830204010009765625">
        <ele>869</ele>
        <time>2020-08-18T05:54:20.000Z</time>
      </trkpt>
      <trkpt lat="42.55296112038195133209228515625" lon="-0.12106209062039852142333984375">
        <ele>868.79998779296875</ele>
        <time>2020-08-18T05:54:23.000Z</time>
      </trkpt>
      <trkpt lat="42.55287528969347476959228515625" lon="-0.12110902927815914154052734375">
        <ele>869</ele>
        <time>2020-08-18T05:54:25.000Z</time>
      </trkpt>
      <trkpt lat="42.5526250898838043212890625" lon="-0.12122587300837039947509765625">
        <ele>869</ele>
        <time>2020-08-18T05:54:31.000Z</time>
      </trkpt>
      <trkpt lat="42.5523379258811473846435546875" lon="-0.1213909126818180084228515625">
        <ele>869</ele>
        <time>2020-08-18T05:54:38.000Z</time>
      </trkpt>
      <trkpt lat="42.55198429338634014129638671875" lon="-0.1215950958430767059326171875">
        <ele>869.20001220703125</ele>
        <time>2020-08-18T05:54:47.000Z</time>
      </trkpt>
      <trkpt lat="42.5518739037215709686279296875" lon="-0.12166961096227169036865234375">
        <ele>869</ele>
        <time>2020-08-18T05:54:50.000Z</time>
      </trkpt>
      <trkpt lat="42.5517989695072174072265625" lon="-0.12173297815024852752685546875">
        <ele>869</ele>
        <time>2020-08-18T05:54:52.000Z</time>
      </trkpt>
      <trkpt lat="42.5516556389629840850830078125" lon="-0.1219699345529079437255859375">
        <ele>869.4000244140625</ele>
        <time>2020-08-18T05:54:57.000Z</time>
      </trkpt>
      <trkpt lat="42.5516378693282604217529296875" lon="-0.1220252551138401031494140625">
        <ele>869.4000244140625</ele>
        <time>2020-08-18T05:54:58.000Z</time>
      </trkpt>
      <trkpt lat="42.55152027122676372528076171875" lon="-0.12227361090481281280517578125">
        <ele>869.79998779296875</ele>
        <time>2020-08-18T05:55:03.000Z</time>
      </trkpt>
      <trkpt lat="42.55131206475198268890380859375" lon="-0.122469328343868255615234375">
        <ele>869.79998779296875</ele>
        <time>2020-08-18T05:55:09.000Z</time>
      </trkpt>
      <trkpt lat="42.55105557851493358612060546875" lon="-0.1226421631872653961181640625">
        <ele>870.20001220703125</ele>
        <time>2020-08-18T05:55:16.000Z</time>
      </trkpt>
      <trkpt lat="42.55090269260108470916748046875" lon="-0.12275489978492259979248046875">
        <ele>870.20001220703125</ele>
        <time>2020-08-18T05:55:20.000Z</time>
      </trkpt>
      <trkpt lat="42.5507916323840618133544921875" lon="-0.12283519841730594635009765625">
        <ele>870.20001220703125</ele>
        <time>2020-08-18T05:55:23.000Z</time>
      </trkpt>
      <trkpt lat="42.55068593658506870269775390625" lon="-0.12291683815419673919677734375">
        <ele>870.20001220703125</ele>
        <time>2020-08-18T05:55:26.000Z</time>
      </trkpt>
      <trkpt lat="42.55047856830060482025146484375" lon="-0.1230206899344921112060546875">
        <ele>870.5999755859375</ele>
        <time>2020-08-18T05:55:32.000Z</time>
      </trkpt>
      <trkpt lat="42.5503621436655521392822265625" lon="-0.12304835021495819091796875">
        <ele>870.79998779296875</ele>
        <time>2020-08-18T05:55:35.000Z</time>
      </trkpt>
      <trkpt lat="42.55025602877140045166015625" lon="-0.1230545528233051300048828125">
        <ele>871</ele>
        <time>2020-08-18T05:55:38.000Z</time>
      </trkpt>
      <trkpt lat="42.549986802041530609130859375" lon="-0.12311381287872791290283203125">
        <ele>871.20001220703125</ele>
        <time>2020-08-18T05:55:45.000Z</time>
      </trkpt>
      <trkpt lat="42.54972956143319606781005859375" lon="-0.12328413315117359161376953125">
        <ele>871.4000244140625</ele>
        <time>2020-08-18T05:55:52.000Z</time>
      </trkpt>
      <trkpt lat="42.549579106271266937255859375" lon="-0.12346317060291767120361328125">
        <ele>871.5999755859375</ele>
        <time>2020-08-18T05:55:57.000Z</time>
      </trkpt>
      <trkpt lat="42.54948849789798259735107421875" lon="-0.12356358580291271209716796875">
        <ele>871.5999755859375</ele>
        <time>2020-08-18T05:56:00.000Z</time>
      </trkpt>
      <trkpt lat="42.54931029863655567169189453125" lon="-0.1237596385180950164794921875">
        <ele>871.79998779296875</ele>
        <time>2020-08-18T05:56:06.000Z</time>
      </trkpt>
      <trkpt lat="42.54913729615509510040283203125" lon="-0.12395988218486309051513671875">
        <ele>872</ele>
        <time>2020-08-18T05:56:12.000Z</time>
      </trkpt>
      <trkpt lat="42.5489150919020175933837890625" lon="-0.12414897792041301727294921875">
        <ele>872.20001220703125</ele>
        <time>2020-08-18T05:56:19.000Z</time>
      </trkpt>
      <trkpt lat="42.5487330369651317596435546875" lon="-0.1242370717227458953857421875">
        <ele>872.20001220703125</ele>
        <time>2020-08-18T05:56:24.000Z</time>
      </trkpt>
      <trkpt lat="42.54840237088501453399658203125" lon="-0.12436665594577789306640625">
        <ele>873</ele>
        <time>2020-08-18T05:56:33.000Z</time>
      </trkpt>
      <trkpt lat="42.5481623969972133636474609375" lon="-0.1245217211544513702392578125">
        <ele>872.79998779296875</ele>
        <time>2020-08-18T05:56:40.000Z</time>
      </trkpt>
      <trkpt lat="42.54810414277017116546630859375" lon="-0.12460160069167613983154296875">
        <ele>872.79998779296875</ele>
        <time>2020-08-18T05:56:42.000Z</time>
      </trkpt>
      <trkpt lat="42.5480473972856998443603515625" lon="-0.12474442832171916961669921875">
        <ele>873</ele>
        <time>2020-08-18T05:56:45.000Z</time>
      </trkpt>
      <trkpt lat="42.5480358302593231201171875" lon="-0.12479446828365325927734375">
        <ele>873</ele>
        <time>2020-08-18T05:56:46.000Z</time>
      </trkpt>
      <trkpt lat="42.54802308976650238037109375" lon="-0.12488423846662044525146484375">
        <ele>873.20001220703125</ele>
        <time>2020-08-18T05:56:48.000Z</time>
      </trkpt>
      <trkpt lat="42.54800842143595218658447265625" lon="-0.125026144087314605712890625">
        <ele>873.20001220703125</ele>
        <time>2020-08-18T05:56:51.000Z</time>
      </trkpt>
      <trkpt lat="42.54802443087100982666015625" lon="-0.12540793977677822113037109375">
        <ele>874</ele>
        <time>2020-08-18T05:56:59.000Z</time>
      </trkpt>
      <trkpt lat="42.5480333156883716583251953125" lon="-0.1256552897393703460693359375">
        <ele>874</ele>
        <time>2020-08-18T05:57:04.000Z</time>
      </trkpt>
      <trkpt lat="42.5480276159942150115966796875" lon="-0.125754363834857940673828125">
        <ele>874.20001220703125</ele>
        <time>2020-08-18T05:57:06.000Z</time>
      </trkpt>
      <trkpt lat="42.547940947115421295166015625" lon="-0.12625157833099365234375">
        <ele>874.20001220703125</ele>
        <time>2020-08-18T05:57:16.000Z</time>
      </trkpt>
      <trkpt lat="42.5478170625865459442138671875" lon="-0.1267063803970813751220703125">
        <ele>874.5999755859375</ele>
        <time>2020-08-18T05:57:25.000Z</time>
      </trkpt>
      <trkpt lat="42.5476281344890594482421875" lon="-0.127041824162006378173828125">
        <ele>874.20001220703125</ele>
        <time>2020-08-18T05:57:33.000Z</time>
      </trkpt>
      <trkpt lat="42.5474103726446628570556640625" lon="-0.1273645274341106414794921875">
        <ele>874</ele>
        <time>2020-08-18T05:57:41.000Z</time>
      </trkpt>
      <trkpt lat="42.5471595861017704010009765625" lon="-0.12772805057466030120849609375">
        <ele>874</ele>
        <time>2020-08-18T05:57:50.000Z</time>
      </trkpt>
      <trkpt lat="42.5469906069338321685791015625" lon="-0.12798503972589969635009765625">
        <ele>873.79998779296875</ele>
        <time>2020-08-18T05:57:56.000Z</time>
      </trkpt>
      <trkpt lat="42.5469280779361724853515625" lon="-0.12805712409317493438720703125">
        <ele>873.79998779296875</ele>
        <time>2020-08-18T05:57:58.000Z</time>
      </trkpt>
      <trkpt lat="42.54689346067607402801513671875" lon="-0.128087885677814483642578125">
        <ele>873.79998779296875</ele>
        <time>2020-08-18T05:57:59.000Z</time>
      </trkpt>
      <trkpt lat="42.5467166863381862640380859375" lon="-0.12822006829082965850830078125">
        <ele>874</ele>
        <time>2020-08-18T05:58:04.000Z</time>
      </trkpt>
      <trkpt lat="42.5464189611375331878662109375" lon="-0.1283609680831432342529296875">
        <ele>874.4000244140625</ele>
        <time>2020-08-18T05:58:12.000Z</time>
      </trkpt>
      <trkpt lat="42.54613473080098628997802734375" lon="-0.12850019149482250213623046875">
        <ele>874.5999755859375</ele>
        <time>2020-08-18T05:58:20.000Z</time>
      </trkpt>
      <trkpt lat="42.5458486564457416534423828125" lon="-0.1286248303949832916259765625">
        <ele>874.79998779296875</ele>
        <time>2020-08-18T05:58:28.000Z</time>
      </trkpt>
      <trkpt lat="42.5456696189939975738525390625" lon="-0.12870873324573040008544921875">
        <ele>875.20001220703125</ele>
        <time>2020-08-18T05:58:33.000Z</time>
      </trkpt>
      <trkpt lat="42.545416653156280517578125" lon="-0.1287646405398845672607421875">
        <ele>875.20001220703125</ele>
        <time>2020-08-18T05:58:40.000Z</time>
      </trkpt>
      <trkpt lat="42.54515186883509159088134765625" lon="-0.1287093199789524078369140625">
        <ele>875.20001220703125</ele>
        <time>2020-08-18T05:58:47.000Z</time>
      </trkpt>
      <trkpt lat="42.5448455102741718292236328125" lon="-0.12864234857261180877685546875">
        <ele>875</ele>
        <time>2020-08-18T05:58:55.000Z</time>
      </trkpt>
      <trkpt lat="42.5446802191436290740966796875" lon="-0.12864586897194385528564453125">
        <ele>875</ele>
        <time>2020-08-18T05:58:59.000Z</time>
      </trkpt>
      <trkpt lat="42.54458944313228130340576171875" lon="-0.1286865212023258209228515625">
        <ele>874.79998779296875</ele>
        <time>2020-08-18T05:59:01.000Z</time>
      </trkpt>
      <trkpt lat="42.54439330659806728363037109375" lon="-0.1288692466914653778076171875">
        <ele>874.5999755859375</ele>
        <time>2020-08-18T05:59:06.000Z</time>
      </trkpt>
      <trkpt lat="42.54430144093930721282958984375" lon="-0.1289993338286876678466796875">
        <ele>874.5999755859375</ele>
        <time>2020-08-18T05:59:09.000Z</time>
      </trkpt>
      <trkpt lat="42.544247545301914215087890625" lon="-0.12908290140330791473388671875">
        <ele>874.4000244140625</ele>
        <time>2020-08-18T05:59:11.000Z</time>
      </trkpt>
      <trkpt lat="42.54422105848789215087890625" lon="-0.1291307620704174041748046875">
        <ele>874.4000244140625</ele>
        <time>2020-08-18T05:59:12.000Z</time>
      </trkpt>
      <trkpt lat="42.54413296468555927276611328125" lon="-0.12928306125104427337646484375">
        <ele>874.20001220703125</ele>
        <time>2020-08-18T05:59:15.000Z</time>
      </trkpt>
      <trkpt lat="42.54410312511026859283447265625" lon="-0.12933117337524890899658203125">
        <ele>873.79998779296875</ele>
        <time>2020-08-18T05:59:16.000Z</time>
      </trkpt>
      <trkpt lat="42.5440715253353118896484375" lon="-0.12937366962432861328125">
        <ele>873.79998779296875</ele>
        <time>2020-08-18T05:59:17.000Z</time>
      </trkpt>
      <trkpt lat="42.5439851917326450347900390625" lon="-0.129509456455707550048828125">
        <ele>873.5999755859375</ele>
        <time>2020-08-18T05:59:20.000Z</time>
      </trkpt>
      <trkpt lat="42.54383289255201816558837890625" lon="-0.12976870872080326080322265625">
        <ele>873</ele>
        <time>2020-08-18T05:59:25.000Z</time>
      </trkpt>
      <trkpt lat="42.54377086646854877471923828125" lon="-0.12987566180527210235595703125">
        <ele>873</ele>
        <time>2020-08-18T05:59:27.000Z</time>
      </trkpt>
      <trkpt lat="42.54357523284852504730224609375" lon="-0.13018864206969738006591796875">
        <ele>872.5999755859375</ele>
        <time>2020-08-18T05:59:33.000Z</time>
      </trkpt>
      <trkpt lat="42.543540112674236297607421875" lon="-0.130233652889728546142578125">
        <ele>872.4000244140625</ele>
        <time>2020-08-18T05:59:34.000Z</time>
      </trkpt>
      <trkpt lat="42.5434635020792484283447265625" lon="-0.13032141141593456268310546875">
        <ele>872.20001220703125</ele>
        <time>2020-08-18T05:59:36.000Z</time>
      </trkpt>
      <trkpt lat="42.54338412545621395111083984375" lon="-0.1304007880389690399169921875">
        <ele>871.79998779296875</ele>
        <time>2020-08-18T05:59:38.000Z</time>
      </trkpt>
      <trkpt lat="42.543309442698955535888671875" lon="-0.13048284687101840972900390625">
        <ele>871.79998779296875</ele>
        <time>2020-08-18T05:59:40.000Z</time>
      </trkpt>
      <trkpt lat="42.5431325845420360565185546875" lon="-0.1306770555675029754638671875">
        <ele>871.5999755859375</ele>
        <time>2020-08-18T05:59:45.000Z</time>
      </trkpt>
      <trkpt lat="42.5428538024425506591796875" lon="-0.130980648100376129150390625">
        <ele>872</ele>
        <time>2020-08-18T05:59:54.000Z</time>
      </trkpt>
      <trkpt lat="42.54265598952770233154296875" lon="-0.13131550513207912445068359375">
        <ele>872.5999755859375</ele>
        <time>2020-08-18T06:00:02.000Z</time>
      </trkpt>
      <trkpt lat="42.54261466674506664276123046875" lon="-0.131397731602191925048828125">
        <ele>872.5999755859375</ele>
        <time>2020-08-18T06:00:04.000Z</time>
      </trkpt>
      <trkpt lat="42.54255549050867557525634765625" lon="-0.1315226219594478607177734375">
        <ele>872.5999755859375</ele>
        <time>2020-08-18T06:00:07.000Z</time>
      </trkpt>
      <trkpt lat="42.5424677319824695587158203125" lon="-0.13174516148865222930908203125">
        <ele>873</ele>
        <time>2020-08-18T06:00:12.000Z</time>
      </trkpt>
      <trkpt lat="42.542359940707683563232421875" lon="-0.13197465799748897552490234375">
        <ele>873.4000244140625</ele>
        <time>2020-08-18T06:00:18.000Z</time>
      </trkpt>
      <trkpt lat="42.54232582636177539825439453125" lon="-0.13205260969698429107666015625">
        <ele>873.5999755859375</ele>
        <time>2020-08-18T06:00:20.000Z</time>
      </trkpt>
      <trkpt lat="42.542190961539745330810546875" lon="-0.13235502876341342926025390625">
        <ele>874</ele>
        <time>2020-08-18T06:00:27.000Z</time>
      </trkpt>
      <trkpt lat="42.54207503981888294219970703125" lon="-0.132616460323333740234375">
        <ele>874.20001220703125</ele>
        <time>2020-08-18T06:00:33.000Z</time>
      </trkpt>
      <trkpt lat="42.5419752113521099090576171875" lon="-0.13284000568091869354248046875">
        <ele>874.20001220703125</ele>
        <time>2020-08-18T06:00:38.000Z</time>
      </trkpt>
      <trkpt lat="42.541954927146434783935546875" lon="-0.13288937509059906005859375">
        <ele>874.4000244140625</ele>
        <time>2020-08-18T06:00:39.000Z</time>
      </trkpt>
      <trkpt lat="42.54187203012406826019287109375" lon="-0.13308140449225902557373046875">
        <ele>874.20001220703125</ele>
        <time>2020-08-18T06:00:43.000Z</time>
      </trkpt>
      <trkpt lat="42.54183414392173290252685546875" lon="-0.13318215496838092803955078125">
        <ele>874.4000244140625</ele>
        <time>2020-08-18T06:00:45.000Z</time>
      </trkpt>
      <trkpt lat="42.5417978502810001373291015625" lon="-0.1332764513790607452392578125">
        <ele>874.4000244140625</ele>
        <time>2020-08-18T06:00:47.000Z</time>
      </trkpt>
      <trkpt lat="42.5417120195925235748291015625" lon="-0.1335413195192813873291015625">
        <ele>874.5999755859375</ele>
        <time>2020-08-18T06:00:52.000Z</time>
      </trkpt>
      <trkpt lat="42.54161420278251171112060546875" lon="-0.133858658373355865478515625">
        <ele>875</ele>
        <time>2020-08-18T06:00:58.000Z</time>
      </trkpt>
      <trkpt lat="42.5415728799998760223388671875" lon="-0.1339535415172576904296875">
        <ele>875</ele>
        <time>2020-08-18T06:01:00.000Z</time>
      </trkpt>
      <trkpt lat="42.541500627994537353515625" lon="-0.13408790342509746551513671875">
        <ele>875</ele>
        <time>2020-08-18T06:01:03.000Z</time>
      </trkpt>
      <trkpt lat="42.54147179424762725830078125" lon="-0.1341263763606548309326171875">
        <ele>875</ele>
        <time>2020-08-18T06:01:04.000Z</time>
      </trkpt>
      <trkpt lat="42.54129434935748577117919921875" lon="-0.13432695530354976654052734375">
        <ele>875.20001220703125</ele>
        <time>2020-08-18T06:01:10.000Z</time>
      </trkpt>
      <trkpt lat="42.54126585088670253753662109375" lon="-0.1343620754778385162353515625">
        <ele>875.20001220703125</ele>
        <time>2020-08-18T06:01:11.000Z</time>
      </trkpt>
      <trkpt lat="42.54109251312911510467529296875" lon="-0.1346544362604618072509765625">
        <ele>875.20001220703125</ele>
        <time>2020-08-18T06:01:18.000Z</time>
      </trkpt>
      <trkpt lat="42.54096376709640026092529296875" lon="-0.13493481092154979705810546875">
        <ele>875</ele>
        <time>2020-08-18T06:01:24.000Z</time>
      </trkpt>
      <trkpt lat="42.54083451814949512481689453125" lon="-0.1351865194737911224365234375">
        <ele>875.5999755859375</ele>
        <time>2020-08-18T06:01:30.000Z</time>
      </trkpt>
      <trkpt lat="42.54066050983965396881103515625" lon="-0.1354475319385528564453125">
        <ele>876</ele>
        <time>2020-08-18T06:01:37.000Z</time>
      </trkpt>
      <trkpt lat="42.5404520519077777862548828125" lon="-0.13580334372818470001220703125">
        <ele>876</ele>
        <time>2020-08-18T06:01:45.000Z</time>
      </trkpt>
      <trkpt lat="42.540400587022304534912109375" lon="-0.1358835585415363311767578125">
        <ele>876.20001220703125</ele>
        <time>2020-08-18T06:01:47.000Z</time>
      </trkpt>
      <trkpt lat="42.54021258093416690826416015625" lon="-0.13614834286272525787353515625">
        <ele>876.4000244140625</ele>
        <time>2020-08-18T06:01:54.000Z</time>
      </trkpt>
      <trkpt lat="42.539969421923160552978515625" lon="-0.136504657566547393798828125">
        <ele>876.79998779296875</ele>
        <time>2020-08-18T06:02:03.000Z</time>
      </trkpt>
      <trkpt lat="42.53988702781498432159423828125" lon="-0.13662837445735931396484375">
        <ele>876.79998779296875</ele>
        <time>2020-08-18T06:02:06.000Z</time>
      </trkpt>
      <trkpt lat="42.5397801585495471954345703125" lon="-0.13681202195584774017333984375">
        <ele>877</ele>
        <time>2020-08-18T06:02:10.000Z</time>
      </trkpt>
      <trkpt lat="42.53954119049012660980224609375" lon="-0.1371721923351287841796875">
        <ele>877.4000244140625</ele>
        <time>2020-08-18T06:02:19.000Z</time>
      </trkpt>
      <trkpt lat="42.53945888020098209381103515625" lon="-0.1372833363711833953857421875">
        <ele>877.5999755859375</ele>
        <time>2020-08-18T06:02:22.000Z</time>
      </trkpt>
      <trkpt lat="42.539352513849735260009765625" lon="-0.13743328861892223358154296875">
        <ele>878</ele>
        <time>2020-08-18T06:02:26.000Z</time>
      </trkpt>
      <trkpt lat="42.5391256995499134063720703125" lon="-0.13778080232441425323486328125">
        <ele>878.5999755859375</ele>
        <time>2020-08-18T06:02:35.000Z</time>
      </trkpt>
      <trkpt lat="42.5390402041375637054443359375" lon="-0.13788700103759765625">
        <ele>878.79998779296875</ele>
        <time>2020-08-18T06:02:38.000Z</time>
      </trkpt>
      <trkpt lat="42.53892059437930583953857421875" lon="-0.137995965778827667236328125">
        <ele>878.79998779296875</ele>
        <time>2020-08-18T06:02:42.000Z</time>
      </trkpt>
      <trkpt lat="42.5387481786310672760009765625" lon="-0.13823811896145343780517578125">
        <ele>879.5999755859375</ele>
        <time>2020-08-18T06:02:49.000Z</time>
      </trkpt>
      <trkpt lat="42.5385751761496067047119140625" lon="-0.1384997181594371795654296875">
        <ele>879.79998779296875</ele>
        <time>2020-08-18T06:02:56.000Z</time>
      </trkpt>
      <trkpt lat="42.53845992498099803924560546875" lon="-0.13868135400116443634033203125">
        <ele>880</ele>
        <time>2020-08-18T06:03:01.000Z</time>
      </trkpt>
      <trkpt lat="42.5384407304227352142333984375" lon="-0.13872326351702213287353515625">
        <ele>880</ele>
        <time>2020-08-18T06:03:02.000Z</time>
      </trkpt>
      <trkpt lat="42.53835883922874927520751953125" lon="-0.1389523409307003021240234375">
        <ele>880.4000244140625</ele>
        <time>2020-08-18T06:03:07.000Z</time>
      </trkpt>
      <trkpt lat="42.5382149219512939453125" lon="-0.1391256786882877349853515625">
        <ele>880.20001220703125</ele>
        <time>2020-08-18T06:03:12.000Z</time>
      </trkpt>
      <trkpt lat="42.53801551647484302520751953125" lon="-0.13921092264354228973388671875">
        <ele>880.4000244140625</ele>
        <time>2020-08-18T06:03:18.000Z</time>
      </trkpt>
      <trkpt lat="42.537804543972015380859375" lon="-0.1392396725714206695556640625">
        <ele>881</ele>
        <time>2020-08-18T06:03:25.000Z</time>
      </trkpt>
      <trkpt lat="42.53777696751058101654052734375" lon="-0.13924411498010158538818359375">
        <ele>881.20001220703125</ele>
        <time>2020-08-18T06:03:26.000Z</time>
      </trkpt>
      <trkpt lat="42.53764620982110500335693359375" lon="-0.1392983458936214447021484375">
        <ele>882</ele>
        <time>2020-08-18T06:03:31.000Z</time>
      </trkpt>
      <trkpt lat="42.5375663302838802337646484375" lon="-0.13931821100413799285888671875">
        <ele>882.4000244140625</ele>
        <time>2020-08-18T06:03:34.000Z</time>
      </trkpt>
      <trkpt lat="42.5375113449990749359130859375" lon="-0.13933581300079822540283203125">
        <ele>882.5999755859375</ele>
        <time>2020-08-18T06:03:36.000Z</time>
      </trkpt>
      <trkpt lat="42.5373199023306369781494140625" lon="-0.13941024430096149444580078125">
        <ele>883.4000244140625</ele>
        <time>2020-08-18T06:03:43.000Z</time>
      </trkpt>
      <trkpt lat="42.53729291260242462158203125" lon="-0.13942734338343143463134765625">
        <ele>883.5999755859375</ele>
        <time>2020-08-18T06:03:44.000Z</time>
      </trkpt>
      <trkpt lat="42.53718436695635318756103515625" lon="-0.13948316685855388641357421875">
        <ele>884</ele>
        <time>2020-08-18T06:03:48.000Z</time>
      </trkpt>
      <trkpt lat="42.537056542932987213134765625" lon="-0.13953387737274169921875">
        <ele>884.79998779296875</ele>
        <time>2020-08-18T06:03:53.000Z</time>
      </trkpt>
      <trkpt lat="42.5369789265096187591552734375" lon="-0.1395766250789165496826171875">
        <ele>885</ele>
        <time>2020-08-18T06:03:56.000Z</time>
      </trkpt>
      <trkpt lat="42.53685931675136089324951171875" lon="-0.13964141719043254852294921875">
        <ele>885.5999755859375</ele>
        <time>2020-08-18T06:04:01.000Z</time>
      </trkpt>
      <trkpt lat="42.53678941167891025543212890625" lon="-0.1396936364471912384033203125">
        <ele>886</ele>
        <time>2020-08-18T06:04:04.000Z</time>
      </trkpt>
      <trkpt lat="42.53672352991998195648193359375" lon="-0.13973294757306575775146484375">
        <ele>886.20001220703125</ele>
        <time>2020-08-18T06:04:07.000Z</time>
      </trkpt>
      <trkpt lat="42.5366007350385189056396484375" lon="-0.13977594673633575439453125">
        <ele>887</ele>
        <time>2020-08-18T06:04:12.000Z</time>
      </trkpt>
      <trkpt lat="42.5365112163126468658447265625" lon="-0.1398032717406749725341796875">
        <ele>887.20001220703125</ele>
        <time>2020-08-18T06:04:16.000Z</time>
      </trkpt>
      <trkpt lat="42.53645581193268299102783203125" lon="-0.13983285985887050628662109375">
        <ele>887.5999755859375</ele>
        <time>2020-08-18T06:04:19.000Z</time>
      </trkpt>
      <trkpt lat="42.536434940993785858154296875" lon="-0.13986043632030487060546875">
        <ele>888</ele>
        <time>2020-08-18T06:04:22.000Z</time>
      </trkpt>
      <trkpt lat="42.53638607449829578399658203125" lon="-0.13988750986754894256591796875">
        <ele>888</ele>
        <time>2020-08-18T06:07:35.000Z</time>
      </trkpt>
      <trkpt lat="42.53638565540313720703125" lon="-0.1398884318768978118896484375">
        <ele>888</ele>
        <time>2020-08-18T06:07:36.000Z</time>
      </trkpt>
      <trkpt lat="42.53633226267993450164794921875" lon="-0.1398870907723903656005859375">
        <ele>888.20001220703125</ele>
        <time>2020-08-18T06:07:41.000Z</time>
      </trkpt>
      <trkpt lat="42.536192871630191802978515625" lon="-0.13986923731863498687744140625">
        <ele>888.79998779296875</ele>
        <time>2020-08-18T06:07:48.000Z</time>
      </trkpt>
      <trkpt lat="42.536084242165088653564453125" lon="-0.139850042760372161865234375">
        <ele>889.4000244140625</ele>
        <time>2020-08-18T06:07:53.000Z</time>
      </trkpt>
      <trkpt lat="42.53603654913604259490966796875" lon="-0.1398463547229766845703125">
        <ele>889.4000244140625</ele>
        <time>2020-08-18T06:07:55.000Z</time>
      </trkpt>
      <trkpt lat="42.53584879450500011444091796875" lon="-0.13982229866087436676025390625">
        <ele>890.20001220703125</ele>
        <time>2020-08-18T06:08:03.000Z</time>
      </trkpt>
      <trkpt lat="42.5357793085277080535888671875" lon="-0.1398356258869171142578125">
        <ele>890.5999755859375</ele>
        <time>2020-08-18T06:08:06.000Z</time>
      </trkpt>
      <trkpt lat="42.535662464797496795654296875" lon="-0.139881558716297149658203125">
        <ele>891</ele>
        <time>2020-08-18T06:08:11.000Z</time>
      </trkpt>
      <trkpt lat="42.53554486669600009918212890625" lon="-0.13993042521178722381591796875">
        <ele>891.79998779296875</ele>
        <time>2020-08-18T06:08:16.000Z</time>
      </trkpt>
      <trkpt lat="42.53545031882822513580322265625" lon="-0.13997233472764492034912109375">
        <ele>892.4000244140625</ele>
        <time>2020-08-18T06:08:20.000Z</time>
      </trkpt>
      <trkpt lat="42.53533917479217052459716796875" lon="-0.14002413488924503326416015625">
        <ele>893.20001220703125</ele>
        <time>2020-08-18T06:08:25.000Z</time>
      </trkpt>
      <trkpt lat="42.5352948345243930816650390625" lon="-0.14004056341946125030517578125">
        <ele>893.5999755859375</ele>
        <time>2020-08-18T06:08:27.000Z</time>
      </trkpt>
      <trkpt lat="42.53513398580253124237060546875" lon="-0.140063278377056121826171875">
        <ele>893.79998779296875</ele>
        <time>2020-08-18T06:08:34.000Z</time>
      </trkpt>
      <trkpt lat="42.5348750688135623931884765625" lon="-0.14008616097271442413330078125">
        <ele>894.20001220703125</ele>
        <time>2020-08-18T06:08:43.000Z</time>
      </trkpt>
      <trkpt lat="42.5346182473003864288330078125" lon="-0.140116252005100250244140625">
        <ele>894.5999755859375</ele>
        <time>2020-08-18T06:08:52.000Z</time>
      </trkpt>
      <trkpt lat="42.53442537970840930938720703125" lon="-0.140148438513278961181640625">
        <ele>894.79998779296875</ele>
        <time>2020-08-18T06:08:59.000Z</time>
      </trkpt>
      <trkpt lat="42.5342009961605072021484375" lon="-0.14019646681845188140869140625">
        <ele>895.20001220703125</ele>
        <time>2020-08-18T06:09:07.000Z</time>
      </trkpt>
      <trkpt lat="42.53399874083697795867919921875" lon="-0.1402138173580169677734375">
        <ele>895.4000244140625</ele>
        <time>2020-08-18T06:09:14.000Z</time>
      </trkpt>
      <trkpt lat="42.53378047607839107513427734375" lon="-0.14024139381945133209228515625">
        <ele>895.79998779296875</ele>
        <time>2020-08-18T06:09:22.000Z</time>
      </trkpt>
      <trkpt lat="42.533585764467716217041015625" lon="-0.1402518711984157562255859375">
        <ele>896.20001220703125</ele>
        <time>2020-08-18T06:09:29.000Z</time>
      </trkpt>
      <trkpt lat="42.53341217525303363800048828125" lon="-0.1402324251830577850341796875">
        <ele>896.4000244140625</ele>
        <time>2020-08-18T06:09:35.000Z</time>
      </trkpt>
      <trkpt lat="42.5332469679415225982666015625" lon="-0.14021121896803379058837890625">
        <ele>896</ele>
        <time>2020-08-18T06:09:40.000Z</time>
      </trkpt>
      <trkpt lat="42.53293843008577823638916015625" lon="-0.1401522941887378692626953125">
        <ele>896.20001220703125</ele>
        <time>2020-08-18T06:09:49.000Z</time>
      </trkpt>
      <trkpt lat="42.5326907448470592498779296875" lon="-0.140059925615787506103515625">
        <ele>895.4000244140625</ele>
        <time>2020-08-18T06:09:56.000Z</time>
      </trkpt>
      <trkpt lat="42.532654367387294769287109375" lon="-0.14004408381879329681396484375">
        <ele>895.4000244140625</ele>
        <time>2020-08-18T06:09:57.000Z</time>
      </trkpt>
      <trkpt lat="42.53230802714824676513671875" lon="-0.13994090259075164794921875">
        <ele>894.5999755859375</ele>
        <time>2020-08-18T06:10:05.000Z</time>
      </trkpt>
      <trkpt lat="42.53205983899533748626708984375" lon="-0.13986856676638126373291015625">
        <ele>894</ele>
        <time>2020-08-18T06:10:10.000Z</time>
      </trkpt>
      <trkpt lat="42.5320144928991794586181640625" lon="-0.1398394815623760223388671875">
        <ele>893.79998779296875</ele>
        <time>2020-08-18T06:10:11.000Z</time>
      </trkpt>
      <trkpt lat="42.53192036412656307220458984375" lon="-0.13977770693600177764892578125">
        <ele>893.5999755859375</ele>
        <time>2020-08-18T06:10:13.000Z</time>
      </trkpt>
      <trkpt lat="42.53187409602105617523193359375" lon="-0.13974250294268131256103515625">
        <ele>893.5999755859375</ele>
        <time>2020-08-18T06:10:14.000Z</time>
      </trkpt>
      <trkpt lat="42.53182548098266124725341796875" lon="-0.139711238443851470947265625">
        <ele>893.5999755859375</ele>
        <time>2020-08-18T06:10:15.000Z</time>
      </trkpt>
      <trkpt lat="42.5317761115729808807373046875" lon="-0.1396805606782436370849609375">
        <ele>893.4000244140625</ele>
        <time>2020-08-18T06:10:16.000Z</time>
      </trkpt>
      <trkpt lat="42.531404457986354827880859375" lon="-0.13945315964519977569580078125">
        <ele>893</ele>
        <time>2020-08-18T06:10:24.000Z</time>
      </trkpt>
      <trkpt lat="42.53128736279904842376708984375" lon="-0.13936229981482028961181640625">
        <ele>893</ele>
        <time>2020-08-18T06:10:27.000Z</time>
      </trkpt>
      <trkpt lat="42.531222403049468994140625" lon="-0.13929407112300395965576171875">
        <ele>893</ele>
        <time>2020-08-18T06:10:29.000Z</time>
      </trkpt>
      <trkpt lat="42.53114000894129276275634765625" lon="-0.1391746290028095245361328125">
        <ele>892.79998779296875</ele>
        <time>2020-08-18T06:10:32.000Z</time>
      </trkpt>
      <trkpt lat="42.53105317242443561553955078125" lon="-0.13899165205657482147216796875">
        <ele>892.5999755859375</ele>
        <time>2020-08-18T06:10:36.000Z</time>
      </trkpt>
      <trkpt lat="42.5309245102107524871826171875" lon="-0.1386071741580963134765625">
        <ele>892.5999755859375</ele>
        <time>2020-08-18T06:10:44.000Z</time>
      </trkpt>
      <trkpt lat="42.5308214128017425537109375" lon="-0.13815295882523059844970703125">
        <ele>892.5999755859375</ele>
        <time>2020-08-18T06:10:53.000Z</time>
      </trkpt>
      <trkpt lat="42.530700378119945526123046875" lon="-0.1376333646476268768310546875">
        <ele>892.20001220703125</ele>
        <time>2020-08-18T06:11:03.000Z</time>
      </trkpt>
      <trkpt lat="42.5305721350014209747314453125" lon="-0.13725307770073413848876953125">
        <ele>892.20001220703125</ele>
        <time>2020-08-18T06:11:11.000Z</time>
      </trkpt>
      <trkpt lat="42.530418075621128082275390625" lon="-0.13688846491277217864990234375">
        <ele>892.20001220703125</ele>
        <time>2020-08-18T06:11:19.000Z</time>
      </trkpt>
      <trkpt lat="42.53030684776604175567626953125" lon="-0.13667791150510311126708984375">
        <ele>892</ele>
        <time>2020-08-18T06:11:24.000Z</time>
      </trkpt>
      <trkpt lat="42.53023627214133739471435546875" lon="-0.13653692789375782012939453125">
        <ele>891.79998779296875</ele>
        <time>2020-08-18T06:11:27.000Z</time>
      </trkpt>
      <trkpt lat="42.530070059001445770263671875" lon="-0.1362121291458606719970703125">
        <ele>891</ele>
        <time>2020-08-18T06:11:33.000Z</time>
      </trkpt>
      <trkpt lat="42.53003946505486965179443359375" lon="-0.136151947081089019775390625">
        <ele>890.5999755859375</ele>
        <time>2020-08-18T06:11:34.000Z</time>
      </trkpt>
      <trkpt lat="42.52994022332131862640380859375" lon="-0.13595916330814361572265625">
        <ele>890.20001220703125</ele>
        <time>2020-08-18T06:11:37.000Z</time>
      </trkpt>
      <trkpt lat="42.52981684170663356781005859375" lon="-0.135658085346221923828125">
        <ele>889</ele>
        <time>2020-08-18T06:11:41.000Z</time>
      </trkpt>
      <trkpt lat="42.52979479730129241943359375" lon="-0.1355740986764430999755859375">
        <ele>888.79998779296875</ele>
        <time>2020-08-18T06:11:42.000Z</time>
      </trkpt>
      <trkpt lat="42.52974945120513439178466796875" lon="-0.13529707677662372589111328125">
        <ele>887.79998779296875</ele>
        <time>2020-08-18T06:11:45.000Z</time>
      </trkpt>
      <trkpt lat="42.5297302566468715667724609375" lon="-0.1352012716233730316162109375">
        <ele>887.5999755859375</ele>
        <time>2020-08-18T06:11:46.000Z</time>
      </trkpt>
      <trkpt lat="42.5296380557119846343994140625" lon="-0.13492877595126628875732421875">
        <ele>886.5999755859375</ele>
        <time>2020-08-18T06:11:49.000Z</time>
      </trkpt>
      <trkpt lat="42.52957125194370746612548828125" lon="-0.13475426472723484039306640625">
        <ele>886</ele>
        <time>2020-08-18T06:11:51.000Z</time>
      </trkpt>
      <trkpt lat="42.52946899272501468658447265625" lon="-0.13449543155729770660400390625">
        <ele>885.5999755859375</ele>
        <time>2020-08-18T06:11:54.000Z</time>
      </trkpt>
      <trkpt lat="42.529319040477275848388671875" lon="-0.134153030812740325927734375">
        <ele>884.4000244140625</ele>
        <time>2020-08-18T06:11:58.000Z</time>
      </trkpt>
      <trkpt lat="42.529229186475276947021484375" lon="-0.13398380018770694732666015625">
        <ele>883.79998779296875</ele>
        <time>2020-08-18T06:12:00.000Z</time>
      </trkpt>
      <trkpt lat="42.52908661030232906341552734375" lon="-0.1337418146431446075439453125">
        <ele>883.20001220703125</ele>
        <time>2020-08-18T06:12:03.000Z</time>
      </trkpt>
      <trkpt lat="42.5288756377995014190673828125" lon="-0.133442915976047515869140625">
        <ele>881.5999755859375</ele>
        <time>2020-08-18T06:12:07.000Z</time>
      </trkpt>
      <trkpt lat="42.52861655317246913909912109375" lon="-0.13318232260644435882568359375">
        <ele>880.4000244140625</ele>
        <time>2020-08-18T06:12:11.000Z</time>
      </trkpt>
      <trkpt lat="42.52853776328265666961669921875" lon="-0.1331389881670475006103515625">
        <ele>880</ele>
        <time>2020-08-18T06:12:12.000Z</time>
      </trkpt>
      <trkpt lat="42.528456039726734161376953125" lon="-0.13310730457305908203125">
        <ele>879.20001220703125</ele>
        <time>2020-08-18T06:12:13.000Z</time>
      </trkpt>
      <trkpt lat="42.528191171586513519287109375" lon="-0.13306112028658390045166015625">
        <ele>877.5999755859375</ele>
        <time>2020-08-18T06:12:16.000Z</time>
      </trkpt>
      <trkpt lat="42.52809830009937286376953125" lon="-0.133058689534664154052734375">
        <ele>877</ele>
        <time>2020-08-18T06:12:17.000Z</time>
      </trkpt>
      <trkpt lat="42.52800417132675647735595703125" lon="-0.1330601982772350311279296875">
        <ele>876.4000244140625</ele>
        <time>2020-08-18T06:12:18.000Z</time>
      </trkpt>
      <trkpt lat="42.52771365456283092498779296875" lon="-0.133041255176067352294921875">
        <ele>874.79998779296875</ele>
        <time>2020-08-18T06:12:21.000Z</time>
      </trkpt>
      <trkpt lat="42.5276139937341213226318359375" lon="-0.13302088715136051177978515625">
        <ele>874.20001220703125</ele>
        <time>2020-08-18T06:12:22.000Z</time>
      </trkpt>
      <trkpt lat="42.5275130756199359893798828125" lon="-0.13300010003149509429931640625">
        <ele>873.20001220703125</ele>
        <time>2020-08-18T06:12:23.000Z</time>
      </trkpt>
      <trkpt lat="42.52730679698288440704345703125" lon="-0.1329807378351688385009765625">
        <ele>871.79998779296875</ele>
        <time>2020-08-18T06:12:25.000Z</time>
      </trkpt>
      <trkpt lat="42.5272022746503353118896484375" lon="-0.13299305923283100128173828125">
        <ele>871.20001220703125</ele>
        <time>2020-08-18T06:12:26.000Z</time>
      </trkpt>
      <trkpt lat="42.52709917724132537841796875" lon="-0.1330213062465190887451171875">
        <ele>870.5999755859375</ele>
        <time>2020-08-18T06:12:27.000Z</time>
      </trkpt>
      <trkpt lat="42.5268995203077793121337890625" lon="-0.13311442919075489044189453125">
        <ele>869.4000244140625</ele>
        <time>2020-08-18T06:12:29.000Z</time>
      </trkpt>
      <trkpt lat="42.5268029607832431793212890625" lon="-0.13317234814167022705078125">
        <ele>868.79998779296875</ele>
        <time>2020-08-18T06:12:30.000Z</time>
      </trkpt>
      <trkpt lat="42.52671469934284687042236328125" lon="-0.13323227874934673309326171875">
        <ele>868</ele>
        <time>2020-08-18T06:12:31.000Z</time>
      </trkpt>
      <trkpt lat="42.5266323052346706390380859375" lon="-0.1332856714725494384765625">
        <ele>867.20001220703125</ele>
        <time>2020-08-18T06:12:32.000Z</time>
      </trkpt>
      <trkpt lat="42.5265474803745746612548828125" lon="-0.133327580988407135009765625">
        <ele>866.5999755859375</ele>
        <time>2020-08-18T06:12:33.000Z</time>
      </trkpt>
      <trkpt lat="42.526367269456386566162109375" lon="-0.1333891041576862335205078125">
        <ele>865.5999755859375</ele>
        <time>2020-08-18T06:12:35.000Z</time>
      </trkpt>
      <trkpt lat="42.52617959864437580108642578125" lon="-0.1334466040134429931640625">
        <ele>864.20001220703125</ele>
        <time>2020-08-18T06:12:37.000Z</time>
      </trkpt>
      <trkpt lat="42.5260898284614086151123046875" lon="-0.133483819663524627685546875">
        <ele>863.5999755859375</ele>
        <time>2020-08-18T06:12:38.000Z</time>
      </trkpt>
      <trkpt lat="42.52600349485874176025390625" lon="-0.133530087769031524658203125">
        <ele>862.79998779296875</ele>
        <time>2020-08-18T06:12:39.000Z</time>
      </trkpt>
      <trkpt lat="42.52592177130281925201416015625" lon="-0.13359203003346920013427734375">
        <ele>862.4000244140625</ele>
        <time>2020-08-18T06:12:40.000Z</time>
      </trkpt>
      <trkpt lat="42.52577483654022216796875" lon="-0.13373888097703456878662109375">
        <ele>861.5999755859375</ele>
        <time>2020-08-18T06:12:42.000Z</time>
      </trkpt>
      <trkpt lat="42.525579370558261871337890625" lon="-0.1339842192828655242919921875">
        <ele>860.5999755859375</ele>
        <time>2020-08-18T06:12:45.000Z</time>
      </trkpt>
      <trkpt lat="42.5253327749669551849365234375" lon="-0.13429376296699047088623046875">
        <ele>859.4000244140625</ele>
        <time>2020-08-18T06:12:49.000Z</time>
      </trkpt>
      <trkpt lat="42.5252075493335723876953125" lon="-0.13441731221973896026611328125">
        <ele>859.20001220703125</ele>
        <time>2020-08-18T06:12:51.000Z</time>
      </trkpt>
      <trkpt lat="42.52507813274860382080078125" lon="-0.13449065387248992919921875">
        <ele>859.5999755859375</ele>
        <time>2020-08-18T06:12:53.000Z</time>
      </trkpt>
      <trkpt lat="42.52484436146914958953857421875" lon="-0.13447581790387630462646484375">
        <ele>860</ele>
        <time>2020-08-18T06:12:57.000Z</time>
      </trkpt>
      <trkpt lat="42.5247059762477874755859375" lon="-0.13436459004878997802734375">
        <ele>860.4000244140625</ele>
        <time>2020-08-18T06:13:00.000Z</time>
      </trkpt>
      <trkpt lat="42.52456943504512310028076171875" lon="-0.13423643074929714202880859375">
        <ele>860.20001220703125</ele>
        <time>2020-08-18T06:13:03.000Z</time>
      </trkpt>
      <trkpt lat="42.5242186523973941802978515625" lon="-0.1338440738618373870849609375">
        <ele>859.20001220703125</ele>
        <time>2020-08-18T06:13:11.000Z</time>
      </trkpt>
      <trkpt lat="42.52396501600742340087890625" lon="-0.133516006171703338623046875">
        <ele>858.4000244140625</ele>
        <time>2020-08-18T06:13:17.000Z</time>
      </trkpt>
      <trkpt lat="42.52374197356402873992919921875" lon="-0.1332720927894115447998046875">
        <ele>858</ele>
        <time>2020-08-18T06:13:22.000Z</time>
      </trkpt>
      <trkpt lat="42.5235338509082794189453125" lon="-0.1330223120748996734619140625">
        <ele>857.4000244140625</ele>
        <time>2020-08-18T06:13:27.000Z</time>
      </trkpt>
      <trkpt lat="42.52346687950193881988525390625" lon="-0.1329021155834197998046875">
        <ele>857.20001220703125</ele>
        <time>2020-08-18T06:13:29.000Z</time>
      </trkpt>
      <trkpt lat="42.52320620231330394744873046875" lon="-0.13241328299045562744140625">
        <ele>856.4000244140625</ele>
        <time>2020-08-18T06:13:37.000Z</time>
      </trkpt>
      <trkpt lat="42.5229425914585590362548828125" lon="-0.1321707107126712799072265625">
        <ele>856</ele>
        <time>2020-08-18T06:13:43.000Z</time>
      </trkpt>
      <trkpt lat="42.5226599536836147308349609375" lon="-0.13196711428463459014892578125">
        <ele>855.4000244140625</ele>
        <time>2020-08-18T06:13:49.000Z</time>
      </trkpt>
      <trkpt lat="42.5225667469203472137451171875" lon="-0.1318947784602642059326171875">
        <ele>855.20001220703125</ele>
        <time>2020-08-18T06:13:51.000Z</time>
      </trkpt>
      <trkpt lat="42.52226851880550384521484375" lon="-0.13169067911803722381591796875">
        <ele>854.4000244140625</ele>
        <time>2020-08-18T06:13:57.000Z</time>
      </trkpt>
      <trkpt lat="42.52216969616711139678955078125" lon="-0.1316205225884914398193359375">
        <ele>854.20001220703125</ele>
        <time>2020-08-18T06:13:59.000Z</time>
      </trkpt>
      <trkpt lat="42.52180374227464199066162109375" lon="-0.1313164271414279937744140625">
        <ele>854</ele>
        <time>2020-08-18T06:14:07.000Z</time>
      </trkpt>
      <trkpt lat="42.52161313779652118682861328125" lon="-0.13117770664393901824951171875">
        <ele>853.5999755859375</ele>
        <time>2020-08-18T06:14:11.000Z</time>
      </trkpt>
      <trkpt lat="42.52141968347132205963134765625" lon="-0.131065137684345245361328125">
        <ele>853.20001220703125</ele>
        <time>2020-08-18T06:14:15.000Z</time>
      </trkpt>
      <trkpt lat="42.5210871733725070953369140625" lon="-0.13087864033877849578857421875">
        <ele>852.5999755859375</ele>
        <time>2020-08-18T06:14:22.000Z</time>
      </trkpt>
      <trkpt lat="42.520895898342132568359375" lon="-0.13076305389404296875">
        <ele>852.20001220703125</ele>
        <time>2020-08-18T06:14:26.000Z</time>
      </trkpt>
      <trkpt lat="42.52046364359557628631591796875" lon="-0.13042953796684741973876953125">
        <ele>852</ele>
        <time>2020-08-18T06:14:36.000Z</time>
      </trkpt>
      <trkpt lat="42.5202379189431667327880859375" lon="-0.1302120275795459747314453125">
        <ele>851.5999755859375</ele>
        <time>2020-08-18T06:14:42.000Z</time>
      </trkpt>
      <trkpt lat="42.5201730430126190185546875" lon="-0.130131058394908905029296875">
        <ele>851.5999755859375</ele>
        <time>2020-08-18T06:14:44.000Z</time>
      </trkpt>
      <trkpt lat="42.5198852084577083587646484375" lon="-0.12977323494851589202880859375">
        <ele>851.79998779296875</ele>
        <time>2020-08-18T06:14:53.000Z</time>
      </trkpt>
      <trkpt lat="42.519819326698780059814453125" lon="-0.1297022402286529541015625">
        <ele>851.79998779296875</ele>
        <time>2020-08-18T06:14:55.000Z</time>
      </trkpt>
      <trkpt lat="42.5196434743702411651611328125" lon="-0.1295466721057891845703125">
        <ele>851.79998779296875</ele>
        <time>2020-08-18T06:15:00.000Z</time>
      </trkpt>
      <trkpt lat="42.51928380690515041351318359375" lon="-0.12923930771648883819580078125">
        <ele>851.5999755859375</ele>
        <time>2020-08-18T06:15:10.000Z</time>
      </trkpt>
      <trkpt lat="42.5189628638327121734619140625" lon="-0.1289758644998073577880859375">
        <ele>851.79998779296875</ele>
        <time>2020-08-18T06:15:19.000Z</time>
      </trkpt>
      <trkpt lat="42.5187090598046779632568359375" lon="-0.1287532411515712738037109375">
        <ele>851.4000244140625</ele>
        <time>2020-08-18T06:15:26.000Z</time>
      </trkpt>
      <trkpt lat="42.51856036484241485595703125" lon="-0.12863229028880596160888671875">
        <ele>850.79998779296875</ele>
        <time>2020-08-18T06:15:29.000Z</time>
      </trkpt>
      <trkpt lat="42.51838727854192256927490234375" lon="-0.12849180959165096282958984375">
        <ele>850</ele>
        <time>2020-08-18T06:15:32.000Z</time>
      </trkpt>
      <trkpt lat="42.518254928290843963623046875" lon="-0.12840011157095432281494140625">
        <ele>848.79998779296875</ele>
        <time>2020-08-18T06:15:34.000Z</time>
      </trkpt>
      <trkpt lat="42.5181836821138858795166015625" lon="-0.12836541049182415008544921875">
        <ele>848.20001220703125</ele>
        <time>2020-08-18T06:15:35.000Z</time>
      </trkpt>
      <trkpt lat="42.51810983754694461822509765625" lon="-0.12834110297262668609619140625">
        <ele>847.79998779296875</ele>
        <time>2020-08-18T06:15:36.000Z</time>
      </trkpt>
      <trkpt lat="42.51796332187950611114501953125" lon="-0.12830338440835475921630859375">
        <ele>846.5999755859375</ele>
        <time>2020-08-18T06:15:38.000Z</time>
      </trkpt>
      <trkpt lat="42.51781697385013103485107421875" lon="-0.12824722565710544586181640625">
        <ele>846</ele>
        <time>2020-08-18T06:15:40.000Z</time>
      </trkpt>
      <trkpt lat="42.5177508406341075897216796875" lon="-0.12820783071219921112060546875">
        <ele>845.5999755859375</ele>
        <time>2020-08-18T06:15:41.000Z</time>
      </trkpt>
      <trkpt lat="42.5175553746521472930908203125" lon="-0.12809433974325656890869140625">
        <ele>844</ele>
        <time>2020-08-18T06:15:44.000Z</time>
      </trkpt>
      <trkpt lat="42.51748085953295230865478515625" lon="-0.1280867122113704681396484375">
        <ele>843.4000244140625</ele>
        <time>2020-08-18T06:15:45.000Z</time>
      </trkpt>
      <trkpt lat="42.517407350242137908935546875" lon="-0.12809970416128635406494140625">
        <ele>842.79998779296875</ele>
        <time>2020-08-18T06:15:46.000Z</time>
      </trkpt>
      <trkpt lat="42.51726024784147739410400390625" lon="-0.128126442432403564453125">
        <ele>842</ele>
        <time>2020-08-18T06:15:48.000Z</time>
      </trkpt>
      <trkpt lat="42.5171815417706966400146484375" lon="-0.12812250293791294097900390625">
        <ele>841.4000244140625</ele>
        <time>2020-08-18T06:15:49.000Z</time>
      </trkpt>
      <trkpt lat="42.51695581711828708648681640625" lon="-0.127986967563629150390625">
        <ele>840.20001220703125</ele>
        <time>2020-08-18T06:15:52.000Z</time>
      </trkpt>
      <trkpt lat="42.5168202817440032958984375" lon="-0.1278325729072093963623046875">
        <ele>839.4000244140625</ele>
        <time>2020-08-18T06:15:54.000Z</time>
      </trkpt>
      <trkpt lat="42.516752220690250396728515625" lon="-0.12775453738868236541748046875">
        <ele>839.20001220703125</ele>
        <time>2020-08-18T06:15:55.000Z</time>
      </trkpt>
      <trkpt lat="42.51661241054534912109375" lon="-0.12760802172124385833740234375">
        <ele>838.5999755859375</ele>
        <time>2020-08-18T06:15:57.000Z</time>
      </trkpt>
      <trkpt lat="42.5164724327623844146728515625" lon="-0.12747265398502349853515625">
        <ele>838.20001220703125</ele>
        <time>2020-08-18T06:15:59.000Z</time>
      </trkpt>
      <trkpt lat="42.5161814130842685699462890625" lon="-0.1272434927523136138916015625">
        <ele>837</ele>
        <time>2020-08-18T06:16:03.000Z</time>
      </trkpt>
      <trkpt lat="42.51610522158443927764892578125" lon="-0.12719898484647274017333984375">
        <ele>836.79998779296875</ele>
        <time>2020-08-18T06:16:04.000Z</time>
      </trkpt>
      <trkpt lat="42.5160271860659122467041015625" lon="-0.12716227211058139801025390625">
        <ele>836.5999755859375</ele>
        <time>2020-08-18T06:16:05.000Z</time>
      </trkpt>
      <trkpt lat="42.51578427851200103759765625" lon="-0.12708582915365695953369140625">
        <ele>836</ele>
        <time>2020-08-18T06:16:08.000Z</time>
      </trkpt>
      <trkpt lat="42.5157026387751102447509765625" lon="-0.127064287662506103515625">
        <ele>835.5999755859375</ele>
        <time>2020-08-18T06:16:09.000Z</time>
      </trkpt>
      <trkpt lat="42.5155423767864704132080078125" lon="-0.12701022438704967498779296875">
        <ele>835.20001220703125</ele>
        <time>2020-08-18T06:16:11.000Z</time>
      </trkpt>
      <trkpt lat="42.5154679454863071441650390625" lon="-0.126964710652828216552734375">
        <ele>834.79998779296875</ele>
        <time>2020-08-18T06:16:12.000Z</time>
      </trkpt>
      <trkpt lat="42.515399046242237091064453125" lon="-0.12690293602645397186279296875">
        <ele>834.5999755859375</ele>
        <time>2020-08-18T06:16:13.000Z</time>
      </trkpt>
      <trkpt lat="42.51522461883723735809326171875" lon="-0.12665114365518093109130859375">
        <ele>833.5999755859375</ele>
        <time>2020-08-18T06:16:16.000Z</time>
      </trkpt>
      <trkpt lat="42.515160329639911651611328125" lon="-0.1265685819089412689208984375">
        <ele>833.4000244140625</ele>
        <time>2020-08-18T06:16:17.000Z</time>
      </trkpt>
      <trkpt lat="42.51501381397247314453125" lon="-0.12642768211662769317626953125">
        <ele>832.5999755859375</ele>
        <time>2020-08-18T06:16:19.000Z</time>
      </trkpt>
      <trkpt lat="42.514935024082660675048828125" lon="-0.12636783532798290252685546875">
        <ele>832.20001220703125</ele>
        <time>2020-08-18T06:16:20.000Z</time>
      </trkpt>
      <trkpt lat="42.51485464163124561309814453125" lon="-0.12631268240511417388916015625">
        <ele>831.4000244140625</ele>
        <time>2020-08-18T06:16:21.000Z</time>
      </trkpt>
      <trkpt lat="42.51452422700822353363037109375" lon="-0.12612660415470600128173828125">
        <ele>830</ele>
        <time>2020-08-18T06:16:25.000Z</time>
      </trkpt>
      <trkpt lat="42.51443588174879550933837890625" lon="-0.12610145844519138336181640625">
        <ele>829.5999755859375</ele>
        <time>2020-08-18T06:16:26.000Z</time>
      </trkpt>
      <trkpt lat="42.51425541937351226806640625" lon="-0.1260928250849246978759765625">
        <ele>829</ele>
        <time>2020-08-18T06:16:28.000Z</time>
      </trkpt>
      <trkpt lat="42.51408082433044910430908203125" lon="-0.1261214911937713623046875">
        <ele>828.20001220703125</ele>
        <time>2020-08-18T06:16:30.000Z</time>
      </trkpt>
      <trkpt lat="42.5139139406383037567138671875" lon="-0.12615510262548923492431640625">
        <ele>827.79998779296875</ele>
        <time>2020-08-18T06:16:32.000Z</time>
      </trkpt>
      <trkpt lat="42.51344346441328525543212890625" lon="-0.12624965049326419830322265625">
        <ele>826.5999755859375</ele>
        <time>2020-08-18T06:16:38.000Z</time>
      </trkpt>
      <trkpt lat="42.51291339285671710968017578125" lon="-0.1263456232845783233642578125">
        <ele>825.4000244140625</ele>
        <time>2020-08-18T06:16:45.000Z</time>
      </trkpt>
      <trkpt lat="42.512838542461395263671875" lon="-0.12636012397706508636474609375">
        <ele>825.20001220703125</ele>
        <time>2020-08-18T06:16:46.000Z</time>
      </trkpt>
      <trkpt lat="42.51246630214154720306396484375" lon="-0.1264378242194652557373046875">
        <ele>824.4000244140625</ele>
        <time>2020-08-18T06:16:51.000Z</time>
      </trkpt>
      <trkpt lat="42.5121597759425640106201171875" lon="-0.12649859301745891571044921875">
        <ele>823.4000244140625</ele>
        <time>2020-08-18T06:16:55.000Z</time>
      </trkpt>
      <trkpt lat="42.512083165347576141357421875" lon="-0.1265132613480091094970703125">
        <ele>823.4000244140625</ele>
        <time>2020-08-18T06:16:56.000Z</time>
      </trkpt>
      <trkpt lat="42.5117001123726367950439453125" lon="-0.12658526189625263214111328125">
        <ele>822.20001220703125</ele>
        <time>2020-08-18T06:17:01.000Z</time>
      </trkpt>
      <trkpt lat="42.5115529261529445648193359375" lon="-0.1266011036932468414306640625">
        <ele>822</ele>
        <time>2020-08-18T06:17:03.000Z</time>
      </trkpt>
      <trkpt lat="42.51148276962339878082275390625" lon="-0.12659431435167789459228515625">
        <ele>822</ele>
        <time>2020-08-18T06:17:04.000Z</time>
      </trkpt>
      <trkpt lat="42.51124438829720020294189453125" lon="-0.12645835988223552703857421875">
        <ele>822</ele>
        <time>2020-08-18T06:17:08.000Z</time>
      </trkpt>
      <trkpt lat="42.51115302555263042449951171875" lon="-0.12635073624551296234130859375">
        <ele>822</ele>
        <time>2020-08-18T06:17:10.000Z</time>
      </trkpt>
      <trkpt lat="42.510988824069499969482421875" lon="-0.12614269740879535675048828125">
        <ele>822.20001220703125</ele>
        <time>2020-08-18T06:17:14.000Z</time>
      </trkpt>
      <trkpt lat="42.5108283944427967071533203125" lon="-0.12595712207257747650146484375">
        <ele>821.79998779296875</ele>
        <time>2020-08-18T06:17:18.000Z</time>
      </trkpt>
      <trkpt lat="42.510732673108577728271484375" lon="-0.125893838703632354736328125">
        <ele>821.4000244140625</ele>
        <time>2020-08-18T06:17:20.000Z</time>
      </trkpt>
      <trkpt lat="42.51067877747118473052978515625" lon="-0.1258762367069721221923828125">
        <ele>821.20001220703125</ele>
        <time>2020-08-18T06:17:21.000Z</time>
      </trkpt>
      <trkpt lat="42.51056595705449581146240234375" lon="-0.12585938908159732818603515625">
        <ele>821</ele>
        <time>2020-08-18T06:17:23.000Z</time>
      </trkpt>
      <trkpt lat="42.5104512088000774383544921875" lon="-0.125858969986438751220703125">
        <ele>820.5999755859375</ele>
        <time>2020-08-18T06:17:25.000Z</time>
      </trkpt>
      <trkpt lat="42.51016379334032535552978515625" lon="-0.1258812658488750457763671875">
        <ele>820</ele>
        <time>2020-08-18T06:17:30.000Z</time>
      </trkpt>
      <trkpt lat="42.50998123548924922943115234375" lon="-0.1259000413119792938232421875">
        <ele>819.5999755859375</ele>
        <time>2020-08-18T06:17:33.000Z</time>
      </trkpt>
      <trkpt lat="42.509726844727993011474609375" lon="-0.12592233717441558837890625">
        <ele>819</ele>
        <time>2020-08-18T06:17:37.000Z</time>
      </trkpt>
      <trkpt lat="42.50953079201281070709228515625" lon="-0.12594521977007389068603515625">
        <ele>818.5999755859375</ele>
        <time>2020-08-18T06:17:40.000Z</time>
      </trkpt>
      <trkpt lat="42.509210519492626190185546875" lon="-0.12593398801982402801513671875">
        <ele>818.20001220703125</ele>
        <time>2020-08-18T06:17:45.000Z</time>
      </trkpt>
      <trkpt lat="42.50915092416107654571533203125" lon="-0.1259122788906097412109375">
        <ele>818.20001220703125</ele>
        <time>2020-08-18T06:17:46.000Z</time>
      </trkpt>
      <trkpt lat="42.5089880637824535369873046875" lon="-0.12580960057675838470458984375">
        <ele>818</ele>
        <time>2020-08-18T06:17:49.000Z</time>
      </trkpt>
      <trkpt lat="42.5088888220489025115966796875" lon="-0.125726200640201568603515625">
        <ele>818</ele>
        <time>2020-08-18T06:17:51.000Z</time>
      </trkpt>
      <trkpt lat="42.50847014598548412322998046875" lon="-0.1253436505794525146484375">
        <ele>817.4000244140625</ele>
        <time>2020-08-18T06:18:00.000Z</time>
      </trkpt>
      <trkpt lat="42.50829161144793033599853515625" lon="-0.12517475523054599761962890625">
        <ele>817</ele>
        <time>2020-08-18T06:18:04.000Z</time>
      </trkpt>
      <trkpt lat="42.50811047852039337158203125" lon="-0.12500812299549579620361328125">
        <ele>816.5999755859375</ele>
        <time>2020-08-18T06:18:08.000Z</time>
      </trkpt>
      <trkpt lat="42.5077790580689907073974609375" lon="-0.1247037760913372039794921875">
        <ele>816</ele>
        <time>2020-08-18T06:18:15.000Z</time>
      </trkpt>
      <trkpt lat="42.50767956487834453582763671875" lon="-0.124612413346767425537109375">
        <ele>815.5999755859375</ele>
        <time>2020-08-18T06:18:17.000Z</time>
      </trkpt>
      <trkpt lat="42.5074310414493083953857421875" lon="-0.124380402266979217529296875">
        <ele>814.79998779296875</ele>
        <time>2020-08-18T06:18:22.000Z</time>
      </trkpt>
      <trkpt lat="42.50698889605700969696044921875" lon="-0.1239779032766819000244140625">
        <ele>814.20001220703125</ele>
        <time>2020-08-18T06:18:31.000Z</time>
      </trkpt>
      <trkpt lat="42.5068949349224567413330078125" lon="-0.12389332987368106842041015625">
        <ele>813.79998779296875</ele>
        <time>2020-08-18T06:18:33.000Z</time>
      </trkpt>
      <trkpt lat="42.50658405013382434844970703125" lon="-0.1236109435558319091796875">
        <ele>813.5999755859375</ele>
        <time>2020-08-18T06:18:40.000Z</time>
      </trkpt>
      <trkpt lat="42.50628523528575897216796875" lon="-0.12329704128205776214599609375">
        <ele>813.4000244140625</ele>
        <time>2020-08-18T06:18:48.000Z</time>
      </trkpt>
      <trkpt lat="42.5061214528977870941162109375" lon="-0.12304541654884815216064453125">
        <ele>812.79998779296875</ele>
        <time>2020-08-18T06:18:53.000Z</time>
      </trkpt>
      <trkpt lat="42.50601910986006259918212890625" lon="-0.1228745095431804656982421875">
        <ele>812.4000244140625</ele>
        <time>2020-08-18T06:18:56.000Z</time>
      </trkpt>
      <trkpt lat="42.50587326474487781524658203125" lon="-0.12262246571481227874755859375">
        <ele>811.79998779296875</ele>
        <time>2020-08-18T06:19:00.000Z</time>
      </trkpt>
      <trkpt lat="42.50575440935790538787841796875" lon="-0.1224255748093128204345703125">
        <ele>811.20001220703125</ele>
        <time>2020-08-18T06:19:03.000Z</time>
      </trkpt>
      <trkpt lat="42.50567075796425342559814453125" lon="-0.1222907938063144683837890625">
        <ele>810.5999755859375</ele>
        <time>2020-08-18T06:19:05.000Z</time>
      </trkpt>
      <trkpt lat="42.50541728921234607696533203125" lon="-0.12186549603939056396484375">
        <ele>809.5999755859375</ele>
        <time>2020-08-18T06:19:11.000Z</time>
      </trkpt>
      <trkpt lat="42.50524730421602725982666015625" lon="-0.12156852521002292633056640625">
        <ele>808.5999755859375</ele>
        <time>2020-08-18T06:19:15.000Z</time>
      </trkpt>
      <trkpt lat="42.5050244294106960296630859375" lon="-0.12118379585444927215576171875">
        <ele>807.5999755859375</ele>
        <time>2020-08-18T06:19:20.000Z</time>
      </trkpt>
      <trkpt lat="42.50472259707748889923095703125" lon="-0.12075413949787616729736328125">
        <ele>806.4000244140625</ele>
        <time>2020-08-18T06:19:26.000Z</time>
      </trkpt>
      <trkpt lat="42.50444926321506500244140625" lon="-0.120601840317249298095703125">
        <ele>805.5999755859375</ele>
        <time>2020-08-18T06:19:30.000Z</time>
      </trkpt>
      <trkpt lat="42.50437575392425060272216796875" lon="-0.12058214284479618072509765625">
        <ele>805.4000244140625</ele>
        <time>2020-08-18T06:19:31.000Z</time>
      </trkpt>
      <trkpt lat="42.5040769390761852264404296875" lon="-0.1205094717442989349365234375">
        <ele>804.20001220703125</ele>
        <time>2020-08-18T06:19:35.000Z</time>
      </trkpt>
      <trkpt lat="42.50377896241843700408935546875" lon="-0.1204226352274417877197265625">
        <ele>803.4000244140625</ele>
        <time>2020-08-18T06:19:39.000Z</time>
      </trkpt>
      <trkpt lat="42.50370905734598636627197265625" lon="-0.12037955224514007568359375">
        <ele>803.20001220703125</ele>
        <time>2020-08-18T06:19:40.000Z</time>
      </trkpt>
      <trkpt lat="42.50358399935066699981689453125" lon="-0.120255164802074432373046875">
        <ele>802.4000244140625</ele>
        <time>2020-08-18T06:19:42.000Z</time>
      </trkpt>
      <trkpt lat="42.50352566130459308624267578125" lon="-0.120181739330291748046875">
        <ele>802.20001220703125</ele>
        <time>2020-08-18T06:19:43.000Z</time>
      </trkpt>
      <trkpt lat="42.5034674070775508880615234375" lon="-0.1201054640114307403564453125">
        <ele>802</ele>
        <time>2020-08-18T06:19:44.000Z</time>
      </trkpt>
      <trkpt lat="42.50328761525452136993408203125" lon="-0.11987253092229366302490234375">
        <ele>801.20001220703125</ele>
        <time>2020-08-18T06:19:47.000Z</time>
      </trkpt>
      <trkpt lat="42.5032162852585315704345703125" lon="-0.1198127679526805877685546875">
        <ele>801</ele>
        <time>2020-08-18T06:19:48.000Z</time>
      </trkpt>
      <trkpt lat="42.50297530554234981536865234375" lon="-0.1197490654885768890380859375">
        <ele>800.20001220703125</ele>
        <time>2020-08-18T06:19:51.000Z</time>
      </trkpt>
      <trkpt lat="42.5027452223002910614013671875" lon="-0.1196645759046077728271484375">
        <ele>799.79998779296875</ele>
        <time>2020-08-18T06:19:54.000Z</time>
      </trkpt>
      <trkpt lat="42.502597868442535400390625" lon="-0.119581930339336395263671875">
        <ele>799.4000244140625</ele>
        <time>2020-08-18T06:19:56.000Z</time>
      </trkpt>
      <trkpt lat="42.50253089703619480133056640625" lon="-0.11952417902648448944091796875">
        <ele>799</ele>
        <time>2020-08-18T06:19:57.000Z</time>
      </trkpt>
      <trkpt lat="42.50241614878177642822265625" lon="-0.1193775795400142669677734375">
        <ele>798.5999755859375</ele>
        <time>2020-08-18T06:19:59.000Z</time>
      </trkpt>
      <trkpt lat="42.50236359424889087677001953125" lon="-0.1192997954785823822021484375">
        <ele>798.4000244140625</ele>
        <time>2020-08-18T06:20:00.000Z</time>
      </trkpt>
      <trkpt lat="42.50215454958379268646240234375" lon="-0.1190181635320186614990234375">
        <ele>798</ele>
        <time>2020-08-18T06:20:04.000Z</time>
      </trkpt>
      <trkpt lat="42.50204239971935749053955078125" lon="-0.1189071871340274810791015625">
        <ele>798</ele>
        <time>2020-08-18T06:20:06.000Z</time>
      </trkpt>
      <trkpt lat="42.5019298307597637176513671875" lon="-0.11882521212100982666015625">
        <ele>798.20001220703125</ele>
        <time>2020-08-18T06:20:08.000Z</time>
      </trkpt>
      <trkpt lat="42.50182648189365863800048828125" lon="-0.11877517215907573699951171875">
        <ele>798.20001220703125</ele>
        <time>2020-08-18T06:20:10.000Z</time>
      </trkpt>
      <trkpt lat="42.5016294233500957489013671875" lon="-0.11874181218445301055908203125">
        <ele>799</ele>
        <time>2020-08-18T06:20:15.000Z</time>
      </trkpt>
      <trkpt lat="42.50150327570736408233642578125" lon="-0.11879411526024341583251953125">
        <ele>799.5999755859375</ele>
        <time>2020-08-18T06:20:21.000Z</time>
      </trkpt>
      <trkpt lat="42.5014859251677989959716796875" lon="-0.11882722377777099609375">
        <ele>800</ele>
        <time>2020-08-18T06:20:26.000Z</time>
      </trkpt>
      <trkpt lat="42.5014862604439258575439453125" lon="-0.11882814578711986541748046875">
        <ele>800</ele>
        <time>2020-08-18T06:20:27.000Z</time>
      </trkpt>
      <trkpt lat="42.50148634426295757293701171875" lon="-0.1188307441771030426025390625">
        <ele>800</ele>
        <time>2020-08-18T06:20:48.000Z</time>
      </trkpt>
      <trkpt lat="42.501449882984161376953125" lon="-0.11881909333169460296630859375">
        <ele>800.20001220703125</ele>
        <time>2020-08-18T06:20:57.000Z</time>
      </trkpt>
      <trkpt lat="42.5013332068920135498046875" lon="-0.118724294006824493408203125">
        <ele>800.4000244140625</ele>
        <time>2020-08-18T06:21:04.000Z</time>
      </trkpt>
      <trkpt lat="42.50121393240988254547119140625" lon="-0.1185186021029949188232421875">
        <ele>800</ele>
        <time>2020-08-18T06:21:10.000Z</time>
      </trkpt>
      <trkpt lat="42.50118040479719638824462890625" lon="-0.11848549358546733856201171875">
        <ele>800</ele>
        <time>2020-08-18T06:21:11.000Z</time>
      </trkpt>
      <trkpt lat="42.501021064817905426025390625" lon="-0.118379630148410797119140625">
        <ele>799.5999755859375</ele>
        <time>2020-08-18T06:21:15.000Z</time>
      </trkpt>
      <trkpt lat="42.5009776465594768524169921875" lon="-0.1183613575994968414306640625">
        <ele>799.4000244140625</ele>
        <time>2020-08-18T06:21:16.000Z</time>
      </trkpt>
      <trkpt lat="42.50071520917117595672607421875" lon="-0.1182446815073490142822265625">
        <ele>799</ele>
        <time>2020-08-18T06:21:22.000Z</time>
      </trkpt>
      <trkpt lat="42.5004532746970653533935546875" lon="-0.11805986054241657257080078125">
        <ele>798.5999755859375</ele>
        <time>2020-08-18T06:21:28.000Z</time>
      </trkpt>
      <trkpt lat="42.5003754906356334686279296875" lon="-0.1179744489490985870361328125">
        <ele>798.5999755859375</ele>
        <time>2020-08-18T06:21:30.000Z</time>
      </trkpt>
      <trkpt lat="42.5001089461147785186767578125" lon="-0.11766976676881313323974609375">
        <ele>798.79998779296875</ele>
        <time>2020-08-18T06:21:38.000Z</time>
      </trkpt>
      <trkpt lat="42.4999545514583587646484375" lon="-0.11748469434678554534912109375">
        <ele>799.5999755859375</ele>
        <time>2020-08-18T06:21:44.000Z</time>
      </trkpt>
      <trkpt lat="42.49976604245603084564208984375" lon="-0.1172626577317714691162109375">
        <ele>800.79998779296875</ele>
        <time>2020-08-18T06:21:52.000Z</time>
      </trkpt>
      <trkpt lat="42.4995621107518672943115234375" lon="-0.1170222647488117218017578125">
        <ele>801.5999755859375</ele>
        <time>2020-08-18T06:22:01.000Z</time>
      </trkpt>
      <trkpt lat="42.49949346296489238739013671875" lon="-0.1169605739414691925048828125">
        <ele>801.79998779296875</ele>
        <time>2020-08-18T06:22:04.000Z</time>
      </trkpt>
      <trkpt lat="42.49944216571748256683349609375" lon="-0.11695512570440769195556640625">
        <ele>801.79998779296875</ele>
        <time>2020-08-18T06:22:06.000Z</time>
      </trkpt>
      <trkpt lat="42.49932548962533473968505859375" lon="-0.11706090532243251800537109375">
        <ele>801.5999755859375</ele>
        <time>2020-08-18T06:22:11.000Z</time>
      </trkpt>
      <trkpt lat="42.49922222457826137542724609375" lon="-0.1172214187681674957275390625">
        <ele>800.79998779296875</ele>
        <time>2020-08-18T06:22:15.000Z</time>
      </trkpt>
      <trkpt lat="42.49916933476924896240234375" lon="-0.11730096302926540374755859375">
        <ele>800</ele>
        <time>2020-08-18T06:22:17.000Z</time>
      </trkpt>
      <trkpt lat="42.499111331999301910400390625" lon="-0.11738620698451995849609375">
        <ele>799.5999755859375</ele>
        <time>2020-08-18T06:22:19.000Z</time>
      </trkpt>
      <trkpt lat="42.49899222515523433685302734375" lon="-0.1175558567047119140625">
        <ele>798.4000244140625</ele>
        <time>2020-08-18T06:22:23.000Z</time>
      </trkpt>
      <trkpt lat="42.49886691570281982421875" lon="-0.117691643536090850830078125">
        <ele>797.20001220703125</ele>
        <time>2020-08-18T06:22:27.000Z</time>
      </trkpt>
      <trkpt lat="42.4988258443772792816162109375" lon="-0.1177032105624675750732421875">
        <ele>797</ele>
        <time>2020-08-18T06:22:28.000Z</time>
      </trkpt>
      <trkpt lat="42.4987396784126758575439453125" lon="-0.11767127551138401031494140625">
        <ele>796.4000244140625</ele>
        <time>2020-08-18T06:22:31.000Z</time>
      </trkpt>
      <trkpt lat="42.49868980608880519866943359375" lon="-0.11770999990403652191162109375">
        <ele>796.4000244140625</ele>
        <time>2020-08-18T06:22:34.000Z</time>
      </trkpt>
      <trkpt lat="42.49868410639464855194091796875" lon="-0.1177766360342502593994140625">
        <ele>796.5999755859375</ele>
        <time>2020-08-18T06:22:37.000Z</time>
      </trkpt>
      <trkpt lat="42.49868645332753658294677734375" lon="-0.11781812645494937896728515625">
        <ele>796.79998779296875</ele>
        <time>2020-08-18T06:22:39.000Z</time>
      </trkpt>
      <trkpt lat="42.49869458377361297607421875" lon="-0.1178356446325778961181640625">
        <ele>797.20001220703125</ele>
        <time>2020-08-18T06:22:40.000Z</time>
      </trkpt>
      <trkpt lat="42.4987383373081684112548828125" lon="-0.11789088137447834014892578125">
        <ele>797.5999755859375</ele>
        <time>2020-08-18T06:22:44.000Z</time>
      </trkpt>
      <trkpt lat="42.49879893846809864044189453125" lon="-0.11793497018516063690185546875">
        <ele>798.20001220703125</ele>
        <time>2020-08-18T06:22:50.000Z</time>
      </trkpt>
      <trkpt lat="42.49880866147577762603759765625" lon="-0.11795156635344028472900390625">
        <ele>798.5999755859375</ele>
        <time>2020-08-18T06:22:52.000Z</time>
      </trkpt>
      <trkpt lat="42.49881084077060222625732421875" lon="-0.11801560409367084503173828125">
        <ele>798.79998779296875</ele>
        <time>2020-08-18T06:22:55.000Z</time>
      </trkpt>
      <trkpt lat="42.4988188035786151885986328125" lon="-0.118067152798175811767578125">
        <ele>799</ele>
        <time>2020-08-18T06:22:57.000Z</time>
      </trkpt>
      <trkpt lat="42.4988583661615848541259765625" lon="-0.11813965626060962677001953125">
        <ele>799</ele>
        <time>2020-08-18T06:23:00.000Z</time>
      </trkpt>
      <trkpt lat="42.49887823127210140228271484375" lon="-0.11816203594207763671875">
        <ele>799</ele>
        <time>2020-08-18T06:23:01.000Z</time>
      </trkpt>
      <trkpt lat="42.49901376664638519287109375" lon="-0.11835691519081592559814453125">
        <ele>799.20001220703125</ele>
        <time>2020-08-18T06:23:09.000Z</time>
      </trkpt>
      <trkpt lat="42.499107308685779571533203125" lon="-0.11849840171635150909423828125">
        <ele>799.20001220703125</ele>
        <time>2020-08-18T06:23:15.000Z</time>
      </trkpt>
      <trkpt lat="42.49917411245405673980712890625" lon="-0.11870141141116619110107421875">
        <ele>799</ele>
        <time>2020-08-18T06:23:22.000Z</time>
      </trkpt>
      <trkpt lat="42.4992261640727519989013671875" lon="-0.118944235146045684814453125">
        <ele>799.20001220703125</ele>
        <time>2020-08-18T06:23:30.000Z</time>
      </trkpt>
      <trkpt lat="42.49925876967608928680419921875" lon="-0.11918202973902225494384765625">
        <ele>799.79998779296875</ele>
        <time>2020-08-18T06:23:38.000Z</time>
      </trkpt>
      <trkpt lat="42.49926530756056308746337890625" lon="-0.11923584155738353729248046875">
        <ele>800</ele>
        <time>2020-08-18T06:23:40.000Z</time>
      </trkpt>
      <trkpt lat="42.49928223900496959686279296875" lon="-0.11936140246689319610595703125">
        <ele>800.79998779296875</ele>
        <time>2020-08-18T06:23:45.000Z</time>
      </trkpt>
      <trkpt lat="42.4993016012012958526611328125" lon="-0.1194359175860881805419921875">
        <ele>801.20001220703125</ele>
        <time>2020-08-18T06:23:48.000Z</time>
      </trkpt>
      <trkpt lat="42.499323226511478424072265625" lon="-0.11959291063249111175537109375">
        <ele>801.79998779296875</ele>
        <time>2020-08-18T06:23:54.000Z</time>
      </trkpt>
      <trkpt lat="42.4993341229856014251708984375" lon="-0.11964328587055206298828125">
        <ele>802</ele>
        <time>2020-08-18T06:23:56.000Z</time>
      </trkpt>
      <trkpt lat="42.49939807690680027008056640625" lon="-0.1197872869670391082763671875">
        <ele>802.79998779296875</ele>
        <time>2020-08-18T06:24:02.000Z</time>
      </trkpt>
      <trkpt lat="42.4994256533682346343994140625" lon="-0.11983296833932399749755859375">
        <ele>803</ele>
        <time>2020-08-18T06:24:04.000Z</time>
      </trkpt>
      <trkpt lat="42.4995141662657260894775390625" lon="-0.11995132081210613250732421875">
        <ele>804</ele>
        <time>2020-08-18T06:24:10.000Z</time>
      </trkpt>
      <trkpt lat="42.49955666251480579376220703125" lon="-0.1200025342404842376708984375">
        <ele>804.5999755859375</ele>
        <time>2020-08-18T06:24:13.000Z</time>
      </trkpt>
      <trkpt lat="42.49964701943099498748779296875" lon="-0.12014896608889102935791015625">
        <ele>805.20001220703125</ele>
        <time>2020-08-18T06:24:20.000Z</time>
      </trkpt>
      <trkpt lat="42.49965858645737171173095703125" lon="-0.12017478235065937042236328125">
        <ele>805.4000244140625</ele>
        <time>2020-08-18T06:24:21.000Z</time>
      </trkpt>
      <trkpt lat="42.4997957982122898101806640625" lon="-0.12041584588587284088134765625">
        <ele>805.5999755859375</ele>
        <time>2020-08-18T06:24:31.000Z</time>
      </trkpt>
      <trkpt lat="42.49990149401128292083740234375" lon="-0.120554231107234954833984375">
        <ele>805.5999755859375</ele>
        <time>2020-08-18T06:24:37.000Z</time>
      </trkpt>
      <trkpt lat="42.49993787147104740142822265625" lon="-0.12073494493961334228515625">
        <ele>806.20001220703125</ele>
        <time>2020-08-18T06:24:43.000Z</time>
      </trkpt>
      <trkpt lat="42.4999265559017658233642578125" lon="-0.12079521082341670989990234375">
        <ele>806.5999755859375</ele>
        <time>2020-08-18T06:24:45.000Z</time>
      </trkpt>
      <trkpt lat="42.49988238327205181121826171875" lon="-0.12086193077266216278076171875">
        <ele>806.79998779296875</ele>
        <time>2020-08-18T06:24:48.000Z</time>
      </trkpt>
      <trkpt lat="42.499758414924144744873046875" lon="-0.12092831544578075408935546875">
        <ele>807.5999755859375</ele>
        <time>2020-08-18T06:24:54.000Z</time>
      </trkpt>
      <trkpt lat="42.4997371248900890350341796875" lon="-0.12093401513993740081787109375">
        <ele>807.5999755859375</ele>
        <time>2020-08-18T06:24:55.000Z</time>
      </trkpt>
      <trkpt lat="42.49961768276989459991455078125" lon="-0.12102906592190265655517578125">
        <ele>808.4000244140625</ele>
        <time>2020-08-18T06:25:01.000Z</time>
      </trkpt>
      <trkpt lat="42.4995761923491954803466796875" lon="-0.12104633264243602752685546875">
        <ele>808.5999755859375</ele>
        <time>2020-08-18T06:25:03.000Z</time>
      </trkpt>
      <trkpt lat="42.49948139302432537078857421875" lon="-0.1210479252040386199951171875">
        <ele>809.4000244140625</ele>
        <time>2020-08-18T06:25:08.000Z</time>
      </trkpt>
      <trkpt lat="42.49946295283734798431396484375" lon="-0.1210492663085460662841796875">
        <ele>810</ele>
        <time>2020-08-18T06:25:09.000Z</time>
      </trkpt>
      <trkpt lat="42.499363459646701812744140625" lon="-0.121080614626407623291015625">
        <ele>810.79998779296875</ele>
        <time>2020-08-18T06:25:15.000Z</time>
      </trkpt>
      <trkpt lat="42.4993483722209930419921875" lon="-0.12108388356864452362060546875">
        <ele>811</ele>
        <time>2020-08-18T06:25:16.000Z</time>
      </trkpt>
      <trkpt lat="42.49928374774754047393798828125" lon="-0.12109058909118175506591796875">
        <ele>812.20001220703125</ele>
        <time>2020-08-18T06:25:20.000Z</time>
      </trkpt>
      <trkpt lat="42.4992684088647365570068359375" lon="-0.121083296835422515869140625">
        <ele>812.4000244140625</ele>
        <time>2020-08-18T06:25:21.000Z</time>
      </trkpt>
      <trkpt lat="42.499203868210315704345703125" lon="-0.12107768096029758453369140625">
        <ele>813.20001220703125</ele>
        <time>2020-08-18T06:25:25.000Z</time>
      </trkpt>
      <trkpt lat="42.49915516935288906097412109375" lon="-0.12106929905712604522705078125">
        <ele>813.5999755859375</ele>
        <time>2020-08-18T06:25:28.000Z</time>
      </trkpt>
      <trkpt lat="42.49912440776824951171875" lon="-0.121066868305206298828125">
        <ele>814.20001220703125</ele>
        <time>2020-08-18T06:25:30.000Z</time>
      </trkpt>
      <trkpt lat="42.49906204640865325927734375" lon="-0.1210851408541202545166015625">
        <ele>815.4000244140625</ele>
        <time>2020-08-18T06:25:34.000Z</time>
      </trkpt>
      <trkpt lat="42.49902944080531597137451171875" lon="-0.1210868172347545623779296875">
        <ele>815.5999755859375</ele>
        <time>2020-08-18T06:25:36.000Z</time>
      </trkpt>
      <trkpt lat="42.498949728906154632568359375" lon="-0.121114812791347503662109375">
        <ele>816.5999755859375</ele>
        <time>2020-08-18T06:25:41.000Z</time>
      </trkpt>
      <trkpt lat="42.498920224606990814208984375" lon="-0.1211334206163883209228515625">
        <ele>817</ele>
        <time>2020-08-18T06:25:43.000Z</time>
      </trkpt>
      <trkpt lat="42.49881737865507602691650390625" lon="-0.12121682055294513702392578125">
        <ele>817.79998779296875</ele>
        <time>2020-08-18T06:25:50.000Z</time>
      </trkpt>
      <trkpt lat="42.49880162067711353302001953125" lon="-0.12122821994125843048095703125">
        <ele>817.79998779296875</ele>
        <time>2020-08-18T06:25:51.000Z</time>
      </trkpt>
      <trkpt lat="42.49868075363337993621826171875" lon="-0.12132930569350719451904296875">
        <ele>818.4000244140625</ele>
        <time>2020-08-18T06:25:59.000Z</time>
      </trkpt>
      <trkpt lat="42.498665414750576019287109375" lon="-0.12134523130953311920166015625">
        <ele>818.5999755859375</ele>
        <time>2020-08-18T06:26:01.000Z</time>
      </trkpt>
      <trkpt lat="42.49866667203605175018310546875" lon="-0.12134389020502567291259765625">
        <ele>819</ele>
        <time>2020-08-18T06:29:08.000Z</time>
      </trkpt>
      <trkpt lat="42.4986665882170200347900390625" lon="-0.12134338729083538055419921875">
        <ele>819</ele>
        <time>2020-08-18T06:29:10.000Z</time>
      </trkpt>
      <trkpt lat="42.49864404089748859405517578125" lon="-0.1213825307786464691162109375">
        <ele>819.20001220703125</ele>
        <time>2020-08-18T06:29:15.000Z</time>
      </trkpt>
      <trkpt lat="42.498563826084136962890625" lon="-0.12148789130151271820068359375">
        <ele>819.5999755859375</ele>
        <time>2020-08-18T06:29:23.000Z</time>
      </trkpt>
      <trkpt lat="42.49853021465241909027099609375" lon="-0.12152980081737041473388671875">
        <ele>819.5999755859375</ele>
        <time>2020-08-18T06:29:26.000Z</time>
      </trkpt>
      <trkpt lat="42.49851093627512454986572265625" lon="-0.1215885579586029052734375">
        <ele>820.20001220703125</ele>
        <time>2020-08-18T06:29:29.000Z</time>
      </trkpt>
      <trkpt lat="42.49846684746444225311279296875" lon="-0.1216769032180309295654296875">
        <ele>821</ele>
        <time>2020-08-18T06:29:34.000Z</time>
      </trkpt>
      <trkpt lat="42.49845226295292377471923828125" lon="-0.1217151246964931488037109375">
        <ele>821.20001220703125</ele>
        <time>2020-08-18T06:29:36.000Z</time>
      </trkpt>
      <trkpt lat="42.49841538257896900177001953125" lon="-0.1218271069228649139404296875">
        <ele>822</ele>
        <time>2020-08-18T06:29:42.000Z</time>
      </trkpt>
      <trkpt lat="42.4984158016741275787353515625" lon="-0.12183825485408306121826171875">
        <ele>822.20001220703125</ele>
        <time>2020-08-18T06:29:44.000Z</time>
      </trkpt>
      <trkpt lat="42.4984095990657806396484375" lon="-0.12184546329081058502197265625">
        <ele>822.20001220703125</ele>
        <time>2020-08-18T06:29:55.000Z</time>
      </trkpt>
      <trkpt lat="42.4983956851065158843994140625" lon="-0.1218663342297077178955078125">
        <ele>822.20001220703125</ele>
        <time>2020-08-18T06:29:57.000Z</time>
      </trkpt>
      <trkpt lat="42.49836735427379608154296875" lon="-0.12197387404739856719970703125">
        <ele>823</ele>
        <time>2020-08-18T06:30:03.000Z</time>
      </trkpt>
      <trkpt lat="42.498357295989990234375" lon="-0.12206741608679294586181640625">
        <ele>824</ele>
        <time>2020-08-18T06:30:08.000Z</time>
      </trkpt>
      <trkpt lat="42.49835796654224395751953125" lon="-0.1221073977649211883544921875">
        <ele>824.4000244140625</ele>
        <time>2020-08-18T06:30:10.000Z</time>
      </trkpt>
      <trkpt lat="42.49836810864508152008056640625" lon="-0.122186355292797088623046875">
        <ele>825</ele>
        <time>2020-08-18T06:30:14.000Z</time>
      </trkpt>
      <trkpt lat="42.498402893543243408203125" lon="-0.12227897532284259796142578125">
        <ele>825.79998779296875</ele>
        <time>2020-08-18T06:30:19.000Z</time>
      </trkpt>
      <trkpt lat="42.49842359684407711029052734375" lon="-0.12230982072651386260986328125">
        <ele>826.20001220703125</ele>
        <time>2020-08-18T06:30:21.000Z</time>
      </trkpt>
      <trkpt lat="42.4984847009181976318359375" lon="-0.12238609604537487030029296875">
        <ele>826.79998779296875</ele>
        <time>2020-08-18T06:30:26.000Z</time>
      </trkpt>
      <trkpt lat="42.49852694571018218994140625" lon="-0.1224522292613983154296875">
        <ele>827.5999755859375</ele>
        <time>2020-08-18T06:30:30.000Z</time>
      </trkpt>
      <trkpt lat="42.4985651671886444091796875" lon="-0.1224926300346851348876953125">
        <ele>828</ele>
        <time>2020-08-18T06:30:33.000Z</time>
      </trkpt>
      <trkpt lat="42.4986179731786251068115234375" lon="-0.12254350818693637847900390625">
        <ele>828.5999755859375</ele>
        <time>2020-08-18T06:30:37.000Z</time>
      </trkpt>
      <trkpt lat="42.4986890517175197601318359375" lon="-0.122596733272075653076171875">
        <ele>829.4000244140625</ele>
        <time>2020-08-18T06:30:42.000Z</time>
      </trkpt>
      <trkpt lat="42.49871679581701755523681640625" lon="-0.1226156763732433319091796875">
        <ele>829.79998779296875</ele>
        <time>2020-08-18T06:30:44.000Z</time>
      </trkpt>
      <trkpt lat="42.4987312965095043182373046875" lon="-0.1226210407912731170654296875">
        <ele>830</ele>
        <time>2020-08-18T06:30:45.000Z</time>
      </trkpt>
      <trkpt lat="42.49877681024372577667236328125" lon="-0.12263034470379352569580078125">
        <ele>830.4000244140625</ele>
        <time>2020-08-18T06:30:48.000Z</time>
      </trkpt>
      <trkpt lat="42.49882408417761325836181640625" lon="-0.12263872660696506500244140625">
        <ele>830.79998779296875</ele>
        <time>2020-08-18T06:30:51.000Z</time>
      </trkpt>
      <trkpt lat="42.49888694845139980316162109375" lon="-0.122641660273075103759765625">
        <ele>831.4000244140625</ele>
        <time>2020-08-18T06:30:55.000Z</time>
      </trkpt>
      <trkpt lat="42.498918883502483367919921875" lon="-0.12263017706573009490966796875">
        <ele>831.79998779296875</ele>
        <time>2020-08-18T06:30:57.000Z</time>
      </trkpt>
      <trkpt lat="42.49901133589446544647216796875" lon="-0.1225938834249973297119140625">
        <ele>832.5999755859375</ele>
        <time>2020-08-18T06:31:03.000Z</time>
      </trkpt>
      <trkpt lat="42.49902592040598392486572265625" lon="-0.1225848309695720672607421875">
        <ele>832.79998779296875</ele>
        <time>2020-08-18T06:31:04.000Z</time>
      </trkpt>
      <trkpt lat="42.49909448437392711639404296875" lon="-0.1225305162370204925537109375">
        <ele>834.20001220703125</ele>
        <time>2020-08-18T06:31:09.000Z</time>
      </trkpt>
      <trkpt lat="42.4991316162049770355224609375" lon="-0.12249673716723918914794921875">
        <ele>834.4000244140625</ele>
        <time>2020-08-18T06:31:12.000Z</time>
      </trkpt>
      <trkpt lat="42.499191127717494964599609375" lon="-0.12243705801665782928466796875">
        <ele>835.20001220703125</ele>
        <time>2020-08-18T06:31:17.000Z</time>
      </trkpt>
      <trkpt lat="42.49919942580163478851318359375" lon="-0.12242071330547332763671875">
        <ele>835.4000244140625</ele>
        <time>2020-08-18T06:31:18.000Z</time>
      </trkpt>
      <trkpt lat="42.49929648824036121368408203125" lon="-0.12229070998728275299072265625">
        <ele>836</ele>
        <time>2020-08-18T06:31:27.000Z</time>
      </trkpt>
      <trkpt lat="42.4993193708360195159912109375" lon="-0.12226824648678302764892578125">
        <ele>836.20001220703125</ele>
        <time>2020-08-18T06:31:29.000Z</time>
      </trkpt>
      <trkpt lat="42.49934225343167781829833984375" lon="-0.1222403347492218017578125">
        <ele>836.20001220703125</ele>
        <time>2020-08-18T06:31:31.000Z</time>
      </trkpt>
      <trkpt lat="42.49935440719127655029296875" lon="-0.1222287677228450775146484375">
        <ele>836.4000244140625</ele>
        <time>2020-08-18T06:31:32.000Z</time>
      </trkpt>
      <trkpt lat="42.499425821006298065185546875" lon="-0.12213899753987789154052734375">
        <ele>836.79998779296875</ele>
        <time>2020-08-18T06:31:38.000Z</time>
      </trkpt>
      <trkpt lat="42.49945423565804958343505859375" lon="-0.122118294239044189453125">
        <ele>837.20001220703125</ele>
        <time>2020-08-18T06:31:40.000Z</time>
      </trkpt>
      <trkpt lat="42.49948491342365741729736328125" lon="-0.12209884822368621826171875">
        <ele>837.4000244140625</ele>
        <time>2020-08-18T06:31:42.000Z</time>
      </trkpt>
      <trkpt lat="42.49954618513584136962890625" lon="-0.12202508747577667236328125">
        <ele>838.20001220703125</ele>
        <time>2020-08-18T06:31:47.000Z</time>
      </trkpt>
      <trkpt lat="42.4995815567672252655029296875" lon="-0.1219799928367137908935546875">
        <ele>838.5999755859375</ele>
        <time>2020-08-18T06:31:50.000Z</time>
      </trkpt>
      <trkpt lat="42.49966898001730442047119140625" lon="-0.12187882326543331146240234375">
        <ele>839.4000244140625</ele>
        <time>2020-08-18T06:31:57.000Z</time>
      </trkpt>
      <trkpt lat="42.499715499579906463623046875" lon="-0.12181445024907588958740234375">
        <ele>839.79998779296875</ele>
        <time>2020-08-18T06:32:01.000Z</time>
      </trkpt>
      <trkpt lat="42.49977325089275836944580078125" lon="-0.121735073626041412353515625">
        <ele>840.5999755859375</ele>
        <time>2020-08-18T06:32:06.000Z</time>
      </trkpt>
      <trkpt lat="42.49980711378157138824462890625" lon="-0.1216849498450756072998046875">
        <ele>841</ele>
        <time>2020-08-18T06:32:09.000Z</time>
      </trkpt>
      <trkpt lat="42.49989621341228485107421875" lon="-0.1215598918497562408447265625">
        <ele>842</ele>
        <time>2020-08-18T06:32:17.000Z</time>
      </trkpt>
      <trkpt lat="42.49998263083398342132568359375" lon="-0.12142435647547245025634765625">
        <ele>843.20001220703125</ele>
        <time>2020-08-18T06:32:25.000Z</time>
      </trkpt>
      <trkpt lat="42.5000033341348171234130859375" lon="-0.12139317579567432403564453125">
        <ele>843.5999755859375</ele>
        <time>2020-08-18T06:32:27.000Z</time>
      </trkpt>
      <trkpt lat="42.5000645220279693603515625" lon="-0.12132964096963405609130859375">
        <ele>844.4000244140625</ele>
        <time>2020-08-18T06:32:32.000Z</time>
      </trkpt>
      <trkpt lat="42.50010408461093902587890625" lon="-0.12129762209951877593994140625">
        <ele>845</ele>
        <time>2020-08-18T06:32:35.000Z</time>
      </trkpt>
      <trkpt lat="42.500150017440319061279296875" lon="-0.12127666734158992767333984375">
        <ele>845.5999755859375</ele>
        <time>2020-08-18T06:32:38.000Z</time>
      </trkpt>
      <trkpt lat="42.50019804574549198150634765625" lon="-0.12128940783441066741943359375">
        <ele>846.4000244140625</ele>
        <time>2020-08-18T06:32:41.000Z</time>
      </trkpt>
      <trkpt lat="42.500229142606258392333984375" lon="-0.12130198068916797637939453125">
        <ele>846.79998779296875</ele>
        <time>2020-08-18T06:32:43.000Z</time>
      </trkpt>
      <trkpt lat="42.5003013946115970611572265625" lon="-0.12134506367146968841552734375">
        <ele>847.5999755859375</ele>
        <time>2020-08-18T06:32:48.000Z</time>
      </trkpt>
      <trkpt lat="42.50031371600925922393798828125" lon="-0.1213563792407512664794921875">
        <ele>847.79998779296875</ele>
        <time>2020-08-18T06:32:49.000Z</time>
      </trkpt>
      <trkpt lat="42.50034556724131107330322265625" lon="-0.1214019767940044403076171875">
        <ele>848</ele>
        <time>2020-08-18T06:32:52.000Z</time>
      </trkpt>
      <trkpt lat="42.50037674792110919952392578125" lon="-0.12142159044742584228515625">
        <ele>848.20001220703125</ele>
        <time>2020-08-18T06:32:54.000Z</time>
      </trkpt>
      <trkpt lat="42.50041647814214229583740234375" lon="-0.12145511806011199951171875">
        <ele>848.4000244140625</ele>
        <time>2020-08-18T06:32:57.000Z</time>
      </trkpt>
      <trkpt lat="42.500457800924777984619140625" lon="-0.12148789130151271820068359375">
        <ele>848.79998779296875</ele>
        <time>2020-08-18T06:33:00.000Z</time>
      </trkpt>
      <trkpt lat="42.50048856250941753387451171875" lon="-0.12151001952588558197021484375">
        <ele>849</ele>
        <time>2020-08-18T06:33:02.000Z</time>
      </trkpt>
      <trkpt lat="42.50058176927268505096435546875" lon="-0.1215592212975025177001953125">
        <ele>849.4000244140625</ele>
        <time>2020-08-18T06:33:08.000Z</time>
      </trkpt>
      <trkpt lat="42.5006641633808612823486328125" lon="-0.1215930841863155364990234375">
        <ele>850</ele>
        <time>2020-08-18T06:33:13.000Z</time>
      </trkpt>
      <trkpt lat="42.50070129521191120147705078125" lon="-0.121594257652759552001953125">
        <ele>850.20001220703125</ele>
        <time>2020-08-18T06:33:16.000Z</time>
      </trkpt>
      <trkpt lat="42.50075854361057281494140625" lon="-0.12159995734691619873046875">
        <ele>850.20001220703125</ele>
        <time>2020-08-18T06:33:22.000Z</time>
      </trkpt>
      <trkpt lat="42.50080682337284088134765625" lon="-0.1216591335833072662353515625">
        <ele>850.20001220703125</ele>
        <time>2020-08-18T06:33:27.000Z</time>
      </trkpt>
      <trkpt lat="42.50082182697951793670654296875" lon="-0.12166877277195453643798828125">
        <ele>850.20001220703125</ele>
        <time>2020-08-18T06:33:28.000Z</time>
      </trkpt>
      <trkpt lat="42.50095057301223278045654296875" lon="-0.1217459701001644134521484375">
        <ele>850.5999755859375</ele>
        <time>2020-08-18T06:33:36.000Z</time>
      </trkpt>
      <trkpt lat="42.50106389634311199188232421875" lon="-0.12183490209281444549560546875">
        <ele>851.20001220703125</ele>
        <time>2020-08-18T06:33:43.000Z</time>
      </trkpt>
      <trkpt lat="42.50119884498417377471923828125" lon="-0.12194420211017131805419921875">
        <ele>851.79998779296875</ele>
        <time>2020-08-18T06:33:51.000Z</time>
      </trkpt>
      <trkpt lat="42.5012592785060405731201171875" lon="-0.122012011706829071044921875">
        <ele>852.20001220703125</ele>
        <time>2020-08-18T06:33:55.000Z</time>
      </trkpt>
      <trkpt lat="42.50129004009068012237548828125" lon="-0.1220483891665935516357421875">
        <ele>852.20001220703125</ele>
        <time>2020-08-18T06:33:57.000Z</time>
      </trkpt>
      <trkpt lat="42.50138324685394763946533203125" lon="-0.12214771471917629241943359375">
        <ele>852.5999755859375</ele>
        <time>2020-08-18T06:34:03.000Z</time>
      </trkpt>
      <trkpt lat="42.5014914572238922119140625" lon="-0.12223622761666774749755859375">
        <ele>852.79998779296875</ele>
        <time>2020-08-18T06:34:09.000Z</time>
      </trkpt>
      <trkpt lat="42.5015616975724697113037109375" lon="-0.12230546213686466217041015625">
        <ele>853.20001220703125</ele>
        <time>2020-08-18T06:34:13.000Z</time>
      </trkpt>
      <trkpt lat="42.50157770700752735137939453125" lon="-0.1223206333816051483154296875">
        <ele>853.4000244140625</ele>
        <time>2020-08-18T06:34:14.000Z</time>
      </trkpt>
      <trkpt lat="42.50159279443323612213134765625" lon="-0.1223407499492168426513671875">
        <ele>853.20001220703125</ele>
        <time>2020-08-18T06:34:15.000Z</time>
      </trkpt>
      <trkpt lat="42.501658089458942413330078125" lon="-0.122421048581600189208984375">
        <ele>853.5999755859375</ele>
        <time>2020-08-18T06:34:19.000Z</time>
      </trkpt>
      <trkpt lat="42.50177401117980480194091796875" lon="-0.12254401110112667083740234375">
        <ele>854</ele>
        <time>2020-08-18T06:34:26.000Z</time>
      </trkpt>
      <trkpt lat="42.50190393067896366119384765625" lon="-0.12267527170479297637939453125">
        <ele>854.4000244140625</ele>
        <time>2020-08-18T06:34:33.000Z</time>
      </trkpt>
      <trkpt lat="42.5019422359764575958251953125" lon="-0.12270980514585971832275390625">
        <ele>854.4000244140625</ele>
        <time>2020-08-18T06:34:35.000Z</time>
      </trkpt>
      <trkpt lat="42.5020706467330455780029296875" lon="-0.12284005992114543914794921875">
        <ele>854.79998779296875</ele>
        <time>2020-08-18T06:34:42.000Z</time>
      </trkpt>
      <trkpt lat="42.502254210412502288818359375" lon="-0.12303384952247142791748046875">
        <ele>854.5999755859375</ele>
        <time>2020-08-18T06:34:51.000Z</time>
      </trkpt>
      <trkpt lat="42.502388320863246917724609375" lon="-0.1231843046844005584716796875">
        <ele>854.5999755859375</ele>
        <time>2020-08-18T06:34:58.000Z</time>
      </trkpt>
      <trkpt lat="42.50249854288995265960693359375" lon="-0.12331212870776653289794921875">
        <ele>854.79998779296875</ele>
        <time>2020-08-18T06:35:04.000Z</time>
      </trkpt>
      <trkpt lat="42.5026493333280086517333984375" lon="-0.1235090196132659912109375">
        <ele>854.4000244140625</ele>
        <time>2020-08-18T06:35:12.000Z</time>
      </trkpt>
      <trkpt lat="42.50282694585621356964111328125" lon="-0.123786292970180511474609375">
        <ele>854.5999755859375</ele>
        <time>2020-08-18T06:35:22.000Z</time>
      </trkpt>
      <trkpt lat="42.50296943821012973785400390625" lon="-0.1240110956132411956787109375">
        <ele>854.5999755859375</ele>
        <time>2020-08-18T06:35:30.000Z</time>
      </trkpt>
      <trkpt lat="42.50312601216137409210205078125" lon="-0.1242605410516262054443359375">
        <ele>854.5999755859375</ele>
        <time>2020-08-18T06:35:39.000Z</time>
      </trkpt>
      <trkpt lat="42.5032655708491802215576171875" lon="-0.12447738088667392730712890625">
        <ele>855.20001220703125</ele>
        <time>2020-08-18T06:35:47.000Z</time>
      </trkpt>
      <trkpt lat="42.503329105675220489501953125" lon="-0.12458751909434795379638671875">
        <ele>855.5999755859375</ele>
        <time>2020-08-18T06:35:51.000Z</time>
      </trkpt>
      <trkpt lat="42.5034110806882381439208984375" lon="-0.12471131980419158935546875">
        <ele>856</ele>
        <time>2020-08-18T06:35:56.000Z</time>
      </trkpt>
      <trkpt lat="42.50350370071828365325927734375" lon="-0.124859511852264404296875">
        <ele>856.79998779296875</ele>
        <time>2020-08-18T06:36:02.000Z</time>
      </trkpt>
      <trkpt lat="42.5035532377660274505615234375" lon="-0.12493268586695194244384765625">
        <ele>857</ele>
        <time>2020-08-18T06:36:05.000Z</time>
      </trkpt>
      <trkpt lat="42.50366882421076297760009765625" lon="-0.1250994019210338592529296875">
        <ele>857.79998779296875</ele>
        <time>2020-08-18T06:36:12.000Z</time>
      </trkpt>
      <trkpt lat="42.5036846660077571868896484375" lon="-0.1251242123544216156005859375">
        <ele>858</ele>
        <time>2020-08-18T06:36:13.000Z</time>
      </trkpt>
      <trkpt lat="42.5037953071296215057373046875" lon="-0.12532479129731655120849609375">
        <ele>858.79998779296875</ele>
        <time>2020-08-18T06:36:21.000Z</time>
      </trkpt>
      <trkpt lat="42.50383478589355945587158203125" lon="-0.1254041679203510284423828125">
        <ele>859</ele>
        <time>2020-08-18T06:36:24.000Z</time>
      </trkpt>
      <trkpt lat="42.5038838200271129608154296875" lon="-0.125498212873935699462890625">
        <ele>859.5999755859375</ele>
        <time>2020-08-18T06:36:28.000Z</time>
      </trkpt>
      <trkpt lat="42.50393084250390529632568359375" lon="-0.1256090216338634490966796875">
        <ele>860</ele>
        <time>2020-08-18T06:36:32.000Z</time>
      </trkpt>
      <trkpt lat="42.50396286137402057647705078125" lon="-0.12569527141749858856201171875">
        <ele>860.4000244140625</ele>
        <time>2020-08-18T06:36:35.000Z</time>
      </trkpt>
      <trkpt lat="42.5040315091609954833984375" lon="-0.12586391530930995941162109375">
        <ele>861</ele>
        <time>2020-08-18T06:36:41.000Z</time>
      </trkpt>
      <trkpt lat="42.5040698982775211334228515625" lon="-0.12593549676239490509033203125">
        <ele>861</ele>
        <time>2020-08-18T06:36:44.000Z</time>
      </trkpt>
      <trkpt lat="42.504097558557987213134765625" lon="-0.12597958557307720184326171875">
        <ele>861.4000244140625</ele>
        <time>2020-08-18T06:36:46.000Z</time>
      </trkpt>
      <trkpt lat="42.5041683018207550048828125" lon="-0.1261012069880962371826171875">
        <ele>861.5999755859375</ele>
        <time>2020-08-18T06:36:51.000Z</time>
      </trkpt>
      <trkpt lat="42.50426058657467365264892578125" lon="-0.126216709613800048828125">
        <ele>862.20001220703125</ele>
        <time>2020-08-18T06:36:57.000Z</time>
      </trkpt>
      <trkpt lat="42.504269890487194061279296875" lon="-0.1262395083904266357421875">
        <ele>862.4000244140625</ele>
        <time>2020-08-18T06:36:58.000Z</time>
      </trkpt>
      <trkpt lat="42.504309117794036865234375" lon="-0.12630329467356204986572265625">
        <ele>862.4000244140625</ele>
        <time>2020-08-18T06:37:01.000Z</time>
      </trkpt>
      <trkpt lat="42.5043560564517974853515625" lon="-0.12636951170861721038818359375">
        <ele>862.5999755859375</ele>
        <time>2020-08-18T06:37:04.000Z</time>
      </trkpt>
      <trkpt lat="42.5044457428157329559326171875" lon="-0.12650999240577220916748046875">
        <ele>863</ele>
        <time>2020-08-18T06:37:10.000Z</time>
      </trkpt>
      <trkpt lat="42.50449595041573047637939453125" lon="-0.1265823282301425933837890625">
        <ele>863.4000244140625</ele>
        <time>2020-08-18T06:37:13.000Z</time>
      </trkpt>
      <trkpt lat="42.50456996262073516845703125" lon="-0.12670126743614673614501953125">
        <ele>863.5999755859375</ele>
        <time>2020-08-18T06:37:18.000Z</time>
      </trkpt>
      <trkpt lat="42.50468789599835872650146484375" lon="-0.12687108479440212249755859375">
        <ele>864.20001220703125</ele>
        <time>2020-08-18T06:37:25.000Z</time>
      </trkpt>
      <trkpt lat="42.5047074258327484130859375" lon="-0.12689329683780670166015625">
        <ele>864.4000244140625</ele>
        <time>2020-08-18T06:37:26.000Z</time>
      </trkpt>
      <trkpt lat="42.5047977827489376068115234375" lon="-0.12696496210992336273193359375">
        <ele>864.5999755859375</ele>
        <time>2020-08-18T06:37:31.000Z</time>
      </trkpt>
      <trkpt lat="42.50483877025544643402099609375" lon="-0.126987509429454803466796875">
        <ele>864.5999755859375</ele>
        <time>2020-08-18T06:37:33.000Z</time>
      </trkpt>
      <trkpt lat="42.50490196980535984039306640625" lon="-0.1270205341279506683349609375">
        <ele>864.5999755859375</ele>
        <time>2020-08-18T06:37:36.000Z</time>
      </trkpt>
      <trkpt lat="42.5049379281699657440185546875" lon="-0.1270476914942264556884765625">
        <ele>864.5999755859375</ele>
        <time>2020-08-18T06:37:38.000Z</time>
      </trkpt>
      <trkpt lat="42.50499517656862735748291015625" lon="-0.127105526626110076904296875">
        <ele>864.79998779296875</ele>
        <time>2020-08-18T06:37:41.000Z</time>
      </trkpt>
      <trkpt lat="42.505116127431392669677734375" lon="-0.12725749053061008453369140625">
        <ele>865.20001220703125</ele>
        <time>2020-08-18T06:37:47.000Z</time>
      </trkpt>
      <trkpt lat="42.50522919930517673492431640625" lon="-0.12734885327517986297607421875">
        <ele>865.5999755859375</ele>
        <time>2020-08-18T06:37:52.000Z</time>
      </trkpt>
      <trkpt lat="42.50535643659532070159912109375" lon="-0.12743166647851467132568359375">
        <ele>866</ele>
        <time>2020-08-18T06:37:58.000Z</time>
      </trkpt>
      <trkpt lat="42.5054777227342128753662109375" lon="-0.1274932734668254852294921875">
        <ele>866.4000244140625</ele>
        <time>2020-08-18T06:38:04.000Z</time>
      </trkpt>
      <trkpt lat="42.50559263862669467926025390625" lon="-0.12754498980939388275146484375">
        <ele>866.5999755859375</ele>
        <time>2020-08-18T06:38:09.000Z</time>
      </trkpt>
      <trkpt lat="42.50571048818528652191162109375" lon="-0.1276096142828464508056640625">
        <ele>866.79998779296875</ele>
        <time>2020-08-18T06:38:14.000Z</time>
      </trkpt>
      <trkpt lat="42.50586220063269138336181640625" lon="-0.12771983630955219268798828125">
        <ele>867</ele>
        <time>2020-08-18T06:38:20.000Z</time>
      </trkpt>
      <trkpt lat="42.506022043526172637939453125" lon="-0.12794765643775463104248046875">
        <ele>867.4000244140625</ele>
        <time>2020-08-18T06:38:27.000Z</time>
      </trkpt>
      <trkpt lat="42.50607862137258052825927734375" lon="-0.12811512686312198638916015625">
        <ele>868</ele>
        <time>2020-08-18T06:38:32.000Z</time>
      </trkpt>
      <trkpt lat="42.5061891786754131317138671875" lon="-0.12826516292989253997802734375">
        <ele>868</ele>
        <time>2020-08-18T06:38:38.000Z</time>
      </trkpt>
      <trkpt lat="42.50633594579994678497314453125" lon="-0.128361470997333526611328125">
        <ele>868</ele>
        <time>2020-08-18T06:38:45.000Z</time>
      </trkpt>
      <trkpt lat="42.50644289888441562652587890625" lon="-0.12851108796894550323486328125">
        <ele>868.4000244140625</ele>
        <time>2020-08-18T06:38:51.000Z</time>
      </trkpt>
      <trkpt lat="42.50653157941997051239013671875" lon="-0.12867721728980541229248046875">
        <ele>868.5999755859375</ele>
        <time>2020-08-18T06:38:57.000Z</time>
      </trkpt>
      <trkpt lat="42.506590671837329864501953125" lon="-0.1287902891635894775390625">
        <ele>869</ele>
        <time>2020-08-18T06:39:01.000Z</time>
      </trkpt>
      <trkpt lat="42.50663031823933124542236328125" lon="-0.12886748649179935455322265625">
        <ele>869.20001220703125</ele>
        <time>2020-08-18T06:39:04.000Z</time>
      </trkpt>
      <trkpt lat="42.50667407177388668060302734375" lon="-0.12899170629680156707763671875">
        <ele>869.5999755859375</ele>
        <time>2020-08-18T06:39:08.000Z</time>
      </trkpt>
      <trkpt lat="42.50670458190143108367919921875" lon="-0.12904317118227481842041015625">
        <ele>869.79998779296875</ele>
        <time>2020-08-18T06:39:10.000Z</time>
      </trkpt>
      <trkpt lat="42.50677498988807201385498046875" lon="-0.12917258776724338531494140625">
        <ele>870</ele>
        <time>2020-08-18T06:39:15.000Z</time>
      </trkpt>
      <trkpt lat="42.50683064572513103485107421875" lon="-0.12926780618727207183837890625">
        <ele>870.4000244140625</ele>
        <time>2020-08-18T06:39:19.000Z</time>
      </trkpt>
      <trkpt lat="42.50684489496052265167236328125" lon="-0.1292918622493743896484375">
        <ele>870.4000244140625</ele>
        <time>2020-08-18T06:39:20.000Z</time>
      </trkpt>
      <trkpt lat="42.506929971277713775634765625" lon="-0.12943980284035205841064453125">
        <ele>871.4000244140625</ele>
        <time>2020-08-18T06:39:26.000Z</time>
      </trkpt>
      <trkpt lat="42.50703767873346805572509765625" lon="-0.12961464934051036834716796875">
        <ele>871.5999755859375</ele>
        <time>2020-08-18T06:39:33.000Z</time>
      </trkpt>
      <trkpt lat="42.5072067417204380035400390625" lon="-0.1297302357852458953857421875">
        <ele>872.4000244140625</ele>
        <time>2020-08-18T06:39:41.000Z</time>
      </trkpt>
      <trkpt lat="42.50722878612577915191650390625" lon="-0.129738785326480865478515625">
        <ele>872.4000244140625</ele>
        <time>2020-08-18T06:39:42.000Z</time>
      </trkpt>
      <trkpt lat="42.5073452107608318328857421875" lon="-0.129777006804943084716796875">
        <ele>872.79998779296875</ele>
        <time>2020-08-18T06:39:47.000Z</time>
      </trkpt>
      <trkpt lat="42.50742928124964237213134765625" lon="-0.12982855550944805145263671875">
        <ele>873.79998779296875</ele>
        <time>2020-08-18T06:39:51.000Z</time>
      </trkpt>
      <trkpt lat="42.50747613608837127685546875" lon="-0.12988261878490447998046875">
        <ele>874.20001220703125</ele>
        <time>2020-08-18T06:39:54.000Z</time>
      </trkpt>
      <trkpt lat="42.5075862742960453033447265625" lon="-0.13000675477087497711181640625">
        <ele>874.79998779296875</ele>
        <time>2020-08-18T06:40:01.000Z</time>
      </trkpt>
      <trkpt lat="42.50769683159887790679931640625" lon="-0.13012292794883251190185546875">
        <ele>875.79998779296875</ele>
        <time>2020-08-18T06:40:08.000Z</time>
      </trkpt>
      <trkpt lat="42.5077116675674915313720703125" lon="-0.13013717718422412872314453125">
        <ele>876</ele>
        <time>2020-08-18T06:40:09.000Z</time>
      </trkpt>
      <trkpt lat="42.507780902087688446044921875" lon="-0.13018109835684299468994140625">
        <ele>876.5999755859375</ele>
        <time>2020-08-18T06:40:13.000Z</time>
      </trkpt>
      <trkpt lat="42.5077948160469532012939453125" lon="-0.13019735924899578094482421875">
        <ele>876.79998779296875</ele>
        <time>2020-08-18T06:40:14.000Z</time>
      </trkpt>
      <trkpt lat="42.507843933999538421630859375" lon="-0.130259804427623748779296875">
        <ele>877.20001220703125</ele>
        <time>2020-08-18T06:40:18.000Z</time>
      </trkpt>
      <trkpt lat="42.5078729353845119476318359375" lon="-0.130287297070026397705078125">
        <ele>877.5999755859375</ele>
        <time>2020-08-18T06:40:20.000Z</time>
      </trkpt>
      <trkpt lat="42.5079185329377651214599609375" lon="-0.1303352415561676025390625">
        <ele>877.79998779296875</ele>
        <time>2020-08-18T06:40:23.000Z</time>
      </trkpt>
      <trkpt lat="42.5079609453678131103515625" lon="-0.13038058765232563018798828125">
        <ele>878.20001220703125</ele>
        <time>2020-08-18T06:40:26.000Z</time>
      </trkpt>
      <trkpt lat="42.50807083211839199066162109375" lon="-0.13051134534180164337158203125">
        <ele>879.20001220703125</ele>
        <time>2020-08-18T06:40:34.000Z</time>
      </trkpt>
      <trkpt lat="42.5081673078238964080810546875" lon="-0.13059767894446849822998046875">
        <ele>880.20001220703125</ele>
        <time>2020-08-18T06:40:40.000Z</time>
      </trkpt>
      <trkpt lat="42.50818415544927120208740234375" lon="-0.13061083853244781494140625">
        <ele>880.4000244140625</ele>
        <time>2020-08-18T06:40:41.000Z</time>
      </trkpt>
      <trkpt lat="42.50831541605293750762939453125" lon="-0.13071100227534770965576171875">
        <ele>881.5999755859375</ele>
        <time>2020-08-18T06:40:49.000Z</time>
      </trkpt>
      <trkpt lat="42.5083299167454242706298828125" lon="-0.1307241618633270263671875">
        <ele>881.79998779296875</ele>
        <time>2020-08-18T06:40:50.000Z</time>
      </trkpt>
      <trkpt lat="42.5084177590906620025634765625" lon="-0.13082080520689487457275390625">
        <ele>882.79998779296875</ele>
        <time>2020-08-18T06:40:56.000Z</time>
      </trkpt>
      <trkpt lat="42.50844181515276432037353515625" lon="-0.13085416518151760101318359375">
        <ele>883</ele>
        <time>2020-08-18T06:40:58.000Z</time>
      </trkpt>
      <trkpt lat="42.50853921286761760711669921875" lon="-0.13101023621857166290283203125">
        <ele>884</ele>
        <time>2020-08-18T06:41:06.000Z</time>
      </trkpt>
      <trkpt lat="42.5085491873323917388916015625" lon="-0.13103085570037364959716796875">
        <ele>884</ele>
        <time>2020-08-18T06:41:07.000Z</time>
      </trkpt>
      <trkpt lat="42.50860241241753101348876953125" lon="-0.13118885457515716552734375">
        <ele>885</ele>
        <time>2020-08-18T06:41:14.000Z</time>
      </trkpt>
      <trkpt lat="42.5086323358118534088134765625" lon="-0.13132908381521701812744140625">
        <ele>886</ele>
        <time>2020-08-18T06:41:20.000Z</time>
      </trkpt>
      <trkpt lat="42.50863510183990001678466796875" lon="-0.13135305605828762054443359375">
        <ele>886.20001220703125</ele>
        <time>2020-08-18T06:41:21.000Z</time>
      </trkpt>
      <trkpt lat="42.5086601637303829193115234375" lon="-0.13151817955076694488525390625">
        <ele>887</ele>
        <time>2020-08-18T06:41:28.000Z</time>
      </trkpt>
      <trkpt lat="42.50866033136844635009765625" lon="-0.1315638609230518341064453125">
        <ele>887.20001220703125</ele>
        <time>2020-08-18T06:41:30.000Z</time>
      </trkpt>
      <trkpt lat="42.50867885537445545196533203125" lon="-0.1316634379327297210693359375">
        <ele>888</ele>
        <time>2020-08-18T06:41:34.000Z</time>
      </trkpt>
      <trkpt lat="42.5087054260075092315673828125" lon="-0.13173745013773441314697265625">
        <ele>888.4000244140625</ele>
        <time>2020-08-18T06:41:37.000Z</time>
      </trkpt>
      <trkpt lat="42.5087396241724491119384765625" lon="-0.13187323696911334991455078125">
        <ele>888.79998779296875</ele>
        <time>2020-08-18T06:41:42.000Z</time>
      </trkpt>
      <trkpt lat="42.5087614171206951141357421875" lon="-0.132046155631542205810546875">
        <ele>889.5999755859375</ele>
        <time>2020-08-18T06:41:48.000Z</time>
      </trkpt>
      <trkpt lat="42.5087602436542510986328125" lon="-0.13207088224589824676513671875">
        <ele>889.5999755859375</ele>
        <time>2020-08-18T06:41:49.000Z</time>
      </trkpt>
      <trkpt lat="42.50877155922353267669677734375" lon="-0.1321998797357082366943359375">
        <ele>889.79998779296875</ele>
        <time>2020-08-18T06:41:53.000Z</time>
      </trkpt>
      <trkpt lat="42.50881430692970752716064453125" lon="-0.1324751414358615875244140625">
        <ele>890.5999755859375</ele>
        <time>2020-08-18T06:42:03.000Z</time>
      </trkpt>
      <trkpt lat="42.50886828638613224029541015625" lon="-0.13258100487291812896728515625">
        <ele>890.79998779296875</ele>
        <time>2020-08-18T06:42:07.000Z</time>
      </trkpt>
      <trkpt lat="42.50891807489097118377685546875" lon="-0.13262651860713958740234375">
        <ele>890.79998779296875</ele>
        <time>2020-08-18T06:42:09.000Z</time>
      </trkpt>
      <trkpt lat="42.50899183563888072967529296875" lon="-0.13262408785521984100341796875">
        <ele>890.79998779296875</ele>
        <time>2020-08-18T06:42:11.000Z</time>
      </trkpt>
      <trkpt lat="42.50899183563888072967529296875" lon="-0.13262408785521984100341796875">
        <ele>890.79998779296875</ele>
        <time>2020-08-18T06:42:12.000Z</time>
      </trkpt>
      <trkpt lat="42.5090561248362064361572265625" lon="-0.1324944198131561279296875">
        <ele>891.20001220703125</ele>
        <time>2020-08-18T06:42:17.000Z</time>
      </trkpt>
      <trkpt lat="42.509104572236537933349609375" lon="-0.13243365101516246795654296875">
        <ele>891.79998779296875</ele>
        <time>2020-08-18T06:42:22.000Z</time>
      </trkpt>
      <trkpt lat="42.50912837684154510498046875" lon="-0.1324045658111572265625">
        <ele>892.20001220703125</ele>
        <time>2020-08-18T06:42:24.000Z</time>
      </trkpt>
      <trkpt lat="42.50923356972634792327880859375" lon="-0.13229551725089550018310546875">
        <ele>892.5999755859375</ele>
        <time>2020-08-18T06:42:31.000Z</time>
      </trkpt>
      <trkpt lat="42.50931688584387302398681640625" lon="-0.132202394306659698486328125">
        <ele>892.79998779296875</ele>
        <time>2020-08-18T06:42:36.000Z</time>
      </trkpt>
      <trkpt lat="42.50935695134103298187255859375" lon="-0.13216861523687839508056640625">
        <ele>893</ele>
        <time>2020-08-18T06:42:38.000Z</time>
      </trkpt>
      <trkpt lat="42.5094830989837646484375" lon="-0.13205059804022312164306640625">
        <ele>892.4000244140625</ele>
        <time>2020-08-18T06:42:43.000Z</time>
      </trkpt>
      <trkpt lat="42.5096341408789157867431640625" lon="-0.1318763382732868194580078125">
        <ele>891.79998779296875</ele>
        <time>2020-08-18T06:42:48.000Z</time>
      </trkpt>
      <trkpt lat="42.50970563851296901702880859375" lon="-0.13179863803088665008544921875">
        <ele>891.4000244140625</ele>
        <time>2020-08-18T06:42:50.000Z</time>
      </trkpt>
      <trkpt lat="42.50974930822849273681640625" lon="-0.13176544569432735443115234375">
        <ele>891</ele>
        <time>2020-08-18T06:42:51.000Z</time>
      </trkpt>
      <trkpt lat="42.5099124200642108917236328125" lon="-0.13174750842154026031494140625">
        <ele>890.5999755859375</ele>
        <time>2020-08-18T06:42:53.000Z</time>
      </trkpt>
      <trkpt lat="42.5100968219339847564697265625" lon="-0.13179696165025234222412109375">
        <ele>889.20001220703125</ele>
        <time>2020-08-18T06:42:57.000Z</time>
      </trkpt>
      <trkpt lat="42.510298825800418853759765625" lon="-0.13183970935642719268798828125">
        <ele>888.79998779296875</ele>
        <time>2020-08-18T06:42:59.000Z</time>
      </trkpt>
      <trkpt lat="42.510298825800418853759765625" lon="-0.13183970935642719268798828125">
        <ele>888.5999755859375</ele>
        <time>2020-08-18T06:43:00.000Z</time>
      </trkpt>
      <trkpt lat="42.5104354508221149444580078125" lon="-0.13186250813305377960205078125">
        <ele>888</ele>
        <time>2020-08-18T06:43:02.000Z</time>
      </trkpt>
      <trkpt lat="42.51070342026650905609130859375" lon="-0.1318602450191974639892578125">
        <ele>886.79998779296875</ele>
        <time>2020-08-18T06:43:05.000Z</time>
      </trkpt>
      <trkpt lat="42.51083535142242908477783203125" lon="-0.13183266855776309967041015625">
        <ele>885.5999755859375</ele>
        <time>2020-08-18T06:43:08.000Z</time>
      </trkpt>
      <trkpt lat="42.51097063533961772918701171875" lon="-0.13180769048631191253662109375">
        <ele>884.20001220703125</ele>
        <time>2020-08-18T06:43:10.000Z</time>
      </trkpt>
      <trkpt lat="42.51110977493226528167724609375" lon="-0.1318096183240413665771484375">
        <ele>883.5999755859375</ele>
        <time>2020-08-18T06:43:11.000Z</time>
      </trkpt>
      <trkpt lat="42.51110977493226528167724609375" lon="-0.1318096183240413665771484375">
        <ele>883</ele>
        <time>2020-08-18T06:43:12.000Z</time>
      </trkpt>
      <trkpt lat="42.51117012463510036468505859375" lon="-0.13182177208364009857177734375">
        <ele>882.20001220703125</ele>
        <time>2020-08-18T06:43:13.000Z</time>
      </trkpt>
      <trkpt lat="42.51122452318668365478515625" lon="-0.13184205628931522369384765625">
        <ele>881.5999755859375</ele>
        <time>2020-08-18T06:43:14.000Z</time>
      </trkpt>
      <trkpt lat="42.5113370083272457122802734375" lon="-0.131898634135723114013671875">
        <ele>880.5999755859375</ele>
        <time>2020-08-18T06:43:16.000Z</time>
      </trkpt>
      <trkpt lat="42.51145645044744014739990234375" lon="-0.13195202685892581939697265625">
        <ele>880.20001220703125</ele>
        <time>2020-08-18T06:43:17.000Z</time>
      </trkpt>
      <trkpt lat="42.51165074296295642852783203125" lon="-0.1320292241871356964111328125">
        <ele>879</ele>
        <time>2020-08-18T06:43:20.000Z</time>
      </trkpt>
      <trkpt lat="42.51172198913991451263427734375" lon="-0.13204908929765224456787109375">
        <ele>877.79998779296875</ele>
        <time>2020-08-18T06:43:22.000Z</time>
      </trkpt>
      <trkpt lat="42.51187353394925594329833984375" lon="-0.13206861913204193115234375">
        <ele>877.4000244140625</ele>
        <time>2020-08-18T06:43:23.000Z</time>
      </trkpt>
      <trkpt lat="42.51187353394925594329833984375" lon="-0.13206861913204193115234375">
        <ele>876.79998779296875</ele>
        <time>2020-08-18T06:43:24.000Z</time>
      </trkpt>
      <trkpt lat="42.51203211955726146697998046875" lon="-0.13207264244556427001953125">
        <ele>875.20001220703125</ele>
        <time>2020-08-18T06:43:26.000Z</time>
      </trkpt>
      <trkpt lat="42.51237225718796253204345703125" lon="-0.13208203017711639404296875">
        <ele>874</ele>
        <time>2020-08-18T06:43:29.000Z</time>
      </trkpt>
      <trkpt lat="42.512449286878108978271484375" lon="-0.1320939324796199798583984375">
        <ele>873.5999755859375</ele>
        <time>2020-08-18T06:43:31.000Z</time>
      </trkpt>
      <trkpt lat="42.5125171802937984466552734375" lon="-0.1321100257337093353271484375">
        <ele>873.5999755859375</ele>
        <time>2020-08-18T06:43:32.000Z</time>
      </trkpt>
      <trkpt lat="42.51263670623302459716796875" lon="-0.13215285725891590118408203125">
        <ele>873.5999755859375</ele>
        <time>2020-08-18T06:43:34.000Z</time>
      </trkpt>
      <trkpt lat="42.5127245485782623291015625" lon="-0.13219979591667652130126953125">
        <ele>873.5999755859375</ele>
        <time>2020-08-18T06:43:36.000Z</time>
      </trkpt>
      <trkpt lat="42.51283057965338230133056640625" lon="-0.1322558708488941192626953125">
        <ele>875</ele>
        <time>2020-08-18T06:43:40.000Z</time>
      </trkpt>
      <trkpt lat="42.51295194961130619049072265625" lon="-0.1323308050632476806640625">
        <ele>876.20001220703125</ele>
        <time>2020-08-18T06:43:46.000Z</time>
      </trkpt>
      <trkpt lat="42.51301229931414127349853515625" lon="-0.1323715411126613616943359375">
        <ele>876.5999755859375</ele>
        <time>2020-08-18T06:43:49.000Z</time>
      </trkpt>
      <trkpt lat="42.513107769191265106201171875" lon="-0.132446475327014923095703125">
        <ele>877.4000244140625</ele>
        <time>2020-08-18T06:43:54.000Z</time>
      </trkpt>
      <trkpt lat="42.51317960210144519805908203125" lon="-0.13250154443085193634033203125">
        <ele>878.20001220703125</ele>
        <time>2020-08-18T06:43:58.000Z</time>
      </trkpt>
      <trkpt lat="42.51321606338024139404296875" lon="-0.132524929940700531005859375">
        <ele>878.5999755859375</ele>
        <time>2020-08-18T06:44:00.000Z</time>
      </trkpt>
      <trkpt lat="42.51328638754785060882568359375" lon="-0.1325877942144870758056640625">
        <ele>879</ele>
        <time>2020-08-18T06:44:04.000Z</time>
      </trkpt>
      <trkpt lat="42.51338009722530841827392578125" lon="-0.13264487497508525848388671875">
        <ele>879.79998779296875</ele>
        <time>2020-08-18T06:44:09.000Z</time>
      </trkpt>
      <trkpt lat="42.51342795789241790771484375" lon="-0.132683850824832916259765625">
        <ele>880</ele>
        <time>2020-08-18T06:44:12.000Z</time>
      </trkpt>
      <trkpt lat="42.51354656182229518890380859375" lon="-0.1327400095760822296142578125">
        <ele>880.79998779296875</ele>
        <time>2020-08-18T06:44:17.000Z</time>
      </trkpt>
      <trkpt lat="42.51354656182229518890380859375" lon="-0.1327400095760822296142578125">
        <ele>880.79998779296875</ele>
        <time>2020-08-18T06:44:18.000Z</time>
      </trkpt>
      <trkpt lat="42.513699196279048919677734375" lon="-0.1328295283019542694091796875">
        <ele>881.79998779296875</ele>
        <time>2020-08-18T06:44:26.000Z</time>
      </trkpt>
      <trkpt lat="42.5138281099498271942138671875" lon="-0.132889710366725921630859375">
        <ele>882.5999755859375</ele>
        <time>2020-08-18T06:44:33.000Z</time>
      </trkpt>
      <trkpt lat="42.51388267613947391510009765625" lon="-0.13292415998876094818115234375">
        <ele>882.79998779296875</ele>
        <time>2020-08-18T06:44:35.000Z</time>
      </trkpt>
      <trkpt lat="42.513964064419269561767578125" lon="-0.132959447801113128662109375">
        <ele>883.20001220703125</ele>
        <time>2020-08-18T06:44:40.000Z</time>
      </trkpt>
      <trkpt lat="42.51407462172210216522216796875" lon="-0.1330169476568698883056640625">
        <ele>884</ele>
        <time>2020-08-18T06:44:45.000Z</time>
      </trkpt>
      <trkpt lat="42.51416129060089588165283203125" lon="-0.1330544985830783843994140625">
        <ele>884.20001220703125</ele>
        <time>2020-08-18T06:44:48.000Z</time>
      </trkpt>
      <trkpt lat="42.514299340546131134033203125" lon="-0.13311275281012058258056640625">
        <ele>885</ele>
        <time>2020-08-18T06:44:56.000Z</time>
      </trkpt>
      <trkpt lat="42.51431845128536224365234375" lon="-0.13311996124684810638427734375">
        <ele>885.20001220703125</ele>
        <time>2020-08-18T06:44:57.000Z</time>
      </trkpt>
      <trkpt lat="42.51444979570806026458740234375" lon="-0.13317779637873172760009765625">
        <ele>886</ele>
        <time>2020-08-18T06:45:04.000Z</time>
      </trkpt>
      <trkpt lat="42.51448684372007846832275390625" lon="-0.13319489546120166778564453125">
        <ele>886.20001220703125</ele>
        <time>2020-08-18T06:45:06.000Z</time>
      </trkpt>
      <trkpt lat="42.51460636965930461883544921875" lon="-0.13323110528290271759033203125">
        <ele>887</ele>
        <time>2020-08-18T06:45:12.000Z</time>
      </trkpt>
      <trkpt lat="42.51462556421756744384765625" lon="-0.13323814608156681060791015625">
        <ele>887.20001220703125</ele>
        <time>2020-08-18T06:45:13.000Z</time>
      </trkpt>
      <trkpt lat="42.51473528333008289337158203125" lon="-0.133284665644168853759765625">
        <ele>888.20001220703125</ele>
        <time>2020-08-18T06:45:19.000Z</time>
      </trkpt>
      <trkpt lat="42.514753639698028564453125" lon="-0.133286006748676300048828125">
        <ele>888.20001220703125</ele>
        <time>2020-08-18T06:45:20.000Z</time>
      </trkpt>
      <trkpt lat="42.51483972184360027313232421875" lon="-0.13332389295101165771484375">
        <ele>889</ele>
        <time>2020-08-18T06:45:25.000Z</time>
      </trkpt>
      <trkpt lat="42.51493644900619983673095703125" lon="-0.13335146941244602203369140625">
        <ele>889.4000244140625</ele>
        <time>2020-08-18T06:45:29.000Z</time>
      </trkpt>
      <trkpt lat="42.51499109901487827301025390625" lon="-0.133383236825466156005859375">
        <ele>889.79998779296875</ele>
        <time>2020-08-18T06:45:33.000Z</time>
      </trkpt>
      <trkpt lat="42.5150857307016849517822265625" lon="-0.13343210332095623016357421875">
        <ele>890.4000244140625</ele>
        <time>2020-08-18T06:45:38.000Z</time>
      </trkpt>
      <trkpt lat="42.515128143131732940673828125" lon="-0.13344853185117244720458984375">
        <ele>890.5999755859375</ele>
        <time>2020-08-18T06:45:40.000Z</time>
      </trkpt>
      <trkpt lat="42.51523434184491634368896484375" lon="-0.133499912917613983154296875">
        <ele>891.5999755859375</ele>
        <time>2020-08-18T06:45:46.000Z</time>
      </trkpt>
      <trkpt lat="42.51539141871035099029541015625" lon="-0.13358314521610736846923828125">
        <ele>892.5999755859375</ele>
        <time>2020-08-18T06:45:53.000Z</time>
      </trkpt>
      <trkpt lat="42.5155182369053363800048828125" lon="-0.133634023368358612060546875">
        <ele>893.5999755859375</ele>
        <time>2020-08-18T06:45:59.000Z</time>
      </trkpt>
      <trkpt lat="42.5155182369053363800048828125" lon="-0.133634023368358612060546875">
        <ele>893.79998779296875</ele>
        <time>2020-08-18T06:46:00.000Z</time>
      </trkpt>
      <trkpt lat="42.51563583500683307647705078125" lon="-0.1336958818137645721435546875">
        <ele>894.79998779296875</ele>
        <time>2020-08-18T06:46:06.000Z</time>
      </trkpt>
      <trkpt lat="42.51565662212669849395751953125" lon="-0.13370267115533351898193359375">
        <ele>895</ele>
        <time>2020-08-18T06:46:07.000Z</time>
      </trkpt>
      <trkpt lat="42.51574404537677764892578125" lon="-0.13375463895499706268310546875">
        <ele>896</ele>
        <time>2020-08-18T06:46:12.000Z</time>
      </trkpt>
      <trkpt lat="42.5157763995230197906494140625" lon="-0.1337760128080844879150390625">
        <ele>896.20001220703125</ele>
        <time>2020-08-18T06:46:14.000Z</time>
      </trkpt>
      <trkpt lat="42.515862397849559783935546875" lon="-0.13381683267652988433837890625">
        <ele>897.20001220703125</ele>
        <time>2020-08-18T06:46:19.000Z</time>
      </trkpt>
      <trkpt lat="42.5158940814435482025146484375" lon="-0.13384155929088592529296875">
        <ele>897.5999755859375</ele>
        <time>2020-08-18T06:46:21.000Z</time>
      </trkpt>
      <trkpt lat="42.51595191657543182373046875" lon="-0.13386578299105167388916015625">
        <ele>898.20001220703125</ele>
        <time>2020-08-18T06:46:24.000Z</time>
      </trkpt>
      <trkpt lat="42.51599751412868499755859375" lon="-0.13389931060373783111572265625">
        <ele>898.5999755859375</ele>
        <time>2020-08-18T06:46:27.000Z</time>
      </trkpt>
      <trkpt lat="42.516078315675258636474609375" lon="-0.133950524032115936279296875">
        <ele>899.20001220703125</ele>
        <time>2020-08-18T06:46:32.000Z</time>
      </trkpt>
      <trkpt lat="42.51615333370864391326904296875" lon="-0.13399050571024417877197265625">
        <ele>900</ele>
        <time>2020-08-18T06:46:36.000Z</time>
      </trkpt>
      <trkpt lat="42.5161871127784252166748046875" lon="-0.134004168212413787841796875">
        <ele>900.4000244140625</ele>
        <time>2020-08-18T06:46:38.000Z</time>
      </trkpt>
      <trkpt lat="42.51628794707357883453369140625" lon="-0.1340472511947154998779296875">
        <ele>901.4000244140625</ele>
        <time>2020-08-18T06:46:44.000Z</time>
      </trkpt>
      <trkpt lat="42.5163066387176513671875" lon="-0.13405253179371356964111328125">
        <ele>901.5999755859375</ele>
        <time>2020-08-18T06:46:45.000Z</time>
      </trkpt>
      <trkpt lat="42.5164130888879299163818359375" lon="-0.13409527949988842010498046875">
        <ele>902.5999755859375</ele>
        <time>2020-08-18T06:46:51.000Z</time>
      </trkpt>
      <trkpt lat="42.51643161289393901824951171875" lon="-0.13410114683210849761962890625">
        <ele>902.79998779296875</ele>
        <time>2020-08-18T06:46:52.000Z</time>
      </trkpt>
      <trkpt lat="42.51656203530728816986083984375" lon="-0.1341592334210872650146484375">
        <ele>903.79998779296875</ele>
        <time>2020-08-18T06:47:00.000Z</time>
      </trkpt>
      <trkpt lat="42.5166561640799045562744140625" lon="-0.1342185772955417633056640625">
        <ele>904.4000244140625</ele>
        <time>2020-08-18T06:47:06.000Z</time>
      </trkpt>
      <trkpt lat="42.51670788042247295379638671875" lon="-0.1342390291392803192138671875">
        <ele>904.79998779296875</ele>
        <time>2020-08-18T06:47:09.000Z</time>
      </trkpt>
      <trkpt lat="42.5167714990675449371337890625" lon="-0.1342822797596454620361328125">
        <ele>905.5999755859375</ele>
        <time>2020-08-18T06:47:13.000Z</time>
      </trkpt>
      <trkpt lat="42.5167889334261417388916015625" lon="-0.13429242186248302459716796875">
        <ele>906</ele>
        <time>2020-08-18T06:47:14.000Z</time>
      </trkpt>
      <trkpt lat="42.51692262478172779083251953125" lon="-0.1343697868287563323974609375">
        <ele>907</ele>
        <time>2020-08-18T06:47:22.000Z</time>
      </trkpt>
      <trkpt lat="42.516951374709606170654296875" lon="-0.13439300470054149627685546875">
        <ele>907.20001220703125</ele>
        <time>2020-08-18T06:47:23.000Z</time>
      </trkpt>
      <trkpt lat="42.5170350261032581329345703125" lon="-0.13448059558868408203125">
        <ele>908.20001220703125</ele>
        <time>2020-08-18T06:47:29.000Z</time>
      </trkpt>
      <trkpt lat="42.5170350261032581329345703125" lon="-0.13448059558868408203125">
        <ele>908.4000244140625</ele>
        <time>2020-08-18T06:47:30.000Z</time>
      </trkpt>
      <trkpt lat="42.51714424230158329010009765625" lon="-0.13456902466714382171630859375">
        <ele>909.4000244140625</ele>
        <time>2020-08-18T06:47:37.000Z</time>
      </trkpt>
      <trkpt lat="42.517233677208423614501953125" lon="-0.13465267606079578399658203125">
        <ele>910.4000244140625</ele>
        <time>2020-08-18T06:47:43.000Z</time>
      </trkpt>
      <trkpt lat="42.5172506086528301239013671875" lon="-0.1346614770591259002685546875">
        <ele>910.5999755859375</ele>
        <time>2020-08-18T06:47:44.000Z</time>
      </trkpt>
      <trkpt lat="42.5173599086701869964599609375" lon="-0.13469626195728778839111328125">
        <ele>911.4000244140625</ele>
        <time>2020-08-18T06:47:50.000Z</time>
      </trkpt>
      <trkpt lat="42.5173781812191009521484375" lon="-0.134702883660793304443359375">
        <ele>911.4000244140625</ele>
        <time>2020-08-18T06:47:51.000Z</time>
      </trkpt>
      <trkpt lat="42.51743257977068424224853515625" lon="-0.1347147859632968902587890625">
        <ele>912</ele>
        <time>2020-08-18T06:47:53.000Z</time>
      </trkpt>
      <trkpt lat="42.517465017735958099365234375" lon="-0.134712941944599151611328125">
        <ele>912.5999755859375</ele>
        <time>2020-08-18T06:47:56.000Z</time>
      </trkpt>
      <trkpt lat="42.51757389865815639495849609375" lon="-0.1347235031425952911376953125">
        <ele>913.5999755859375</ele>
        <time>2020-08-18T06:48:03.000Z</time>
      </trkpt>
      <trkpt lat="42.51758680678904056549072265625" lon="-0.13472559861838817596435546875">
        <ele>913.79998779296875</ele>
        <time>2020-08-18T06:48:04.000Z</time>
      </trkpt>
      <trkpt lat="42.51770817674696445465087890625" lon="-0.1347436197102069854736328125">
        <ele>914.5999755859375</ele>
        <time>2020-08-18T06:48:11.000Z</time>
      </trkpt>
      <trkpt lat="42.517811693251132965087890625" lon="-0.13474278151988983154296875">
        <ele>914.5999755859375</ele>
        <time>2020-08-18T06:48:17.000Z</time>
      </trkpt>
      <trkpt lat="42.51792543567717075347900390625" lon="-0.13473071157932281494140625">
        <ele>915.79998779296875</ele>
        <time>2020-08-18T06:48:23.000Z</time>
      </trkpt>
      <trkpt lat="42.51792543567717075347900390625" lon="-0.13473071157932281494140625">
        <ele>915.79998779296875</ele>
        <time>2020-08-18T06:48:24.000Z</time>
      </trkpt>
      <trkpt lat="42.51806843094527721405029296875" lon="-0.13468318618834018707275390625">
        <ele>916.20001220703125</ele>
        <time>2020-08-18T06:48:31.000Z</time>
      </trkpt>
      <trkpt lat="42.5181069038808345794677734375" lon="-0.13468402437865734100341796875">
        <ele>916.20001220703125</ele>
        <time>2020-08-18T06:48:33.000Z</time>
      </trkpt>
      <trkpt lat="42.51816515810787677764892578125" lon="-0.134677402675151824951171875">
        <ele>916.5999755859375</ele>
        <time>2020-08-18T06:48:36.000Z</time>
      </trkpt>
      <trkpt lat="42.51820153556764125823974609375" lon="-0.13467396609485149383544921875">
        <ele>916.79998779296875</ele>
        <time>2020-08-18T06:48:38.000Z</time>
      </trkpt>
      <trkpt lat="42.518320977687835693359375" lon="-0.13466625474393367767333984375">
        <ele>917.20001220703125</ele>
        <time>2020-08-18T06:48:44.000Z</time>
      </trkpt>
      <trkpt lat="42.51843639649450778961181640625" lon="-0.1346738822758197784423828125">
        <ele>917.79998779296875</ele>
        <time>2020-08-18T06:48:50.000Z</time>
      </trkpt>
      <trkpt lat="42.51855491660535335540771484375" lon="-0.13468922115862369537353515625">
        <ele>918.20001220703125</ele>
        <time>2020-08-18T06:48:56.000Z</time>
      </trkpt>
      <trkpt lat="42.51867058686912059783935546875" lon="-0.13470665551722049713134765625">
        <ele>918.79998779296875</ele>
        <time>2020-08-18T06:49:02.000Z</time>
      </trkpt>
      <trkpt lat="42.5187090598046779632568359375" lon="-0.1347164623439311981201171875">
        <ele>919.20001220703125</ele>
        <time>2020-08-18T06:49:04.000Z</time>
      </trkpt>
      <trkpt lat="42.5188267417252063751220703125" lon="-0.1347286999225616455078125">
        <ele>920</ele>
        <time>2020-08-18T06:49:10.000Z</time>
      </trkpt>
      <trkpt lat="42.518863789737224578857421875" lon="-0.13474253006279468536376953125">
        <ele>920.20001220703125</ele>
        <time>2020-08-18T06:49:12.000Z</time>
      </trkpt>
      <trkpt lat="42.51899697817862033843994140625" lon="-0.13480522669851779937744140625">
        <ele>921.20001220703125</ele>
        <time>2020-08-18T06:49:19.000Z</time>
      </trkpt>
      <trkpt lat="42.51910510472953319549560546875" lon="-0.134866498410701751708984375">
        <ele>922.20001220703125</ele>
        <time>2020-08-18T06:49:25.000Z</time>
      </trkpt>
      <trkpt lat="42.51912170089781284332275390625" lon="-0.13488066382706165313720703125">
        <ele>922.4000244140625</ele>
        <time>2020-08-18T06:49:26.000Z</time>
      </trkpt>
      <trkpt lat="42.51921272836625576019287109375" lon="-0.13492542318999767303466796875">
        <ele>923.4000244140625</ele>
        <time>2020-08-18T06:49:32.000Z</time>
      </trkpt>
      <trkpt lat="42.51927542500197887420654296875" lon="-0.13495928607881069183349609375">
        <ele>924</ele>
        <time>2020-08-18T06:49:36.000Z</time>
      </trkpt>
      <trkpt lat="42.5193145684897899627685546875" lon="-0.1349675841629505157470703125">
        <ele>924.20001220703125</ele>
        <time>2020-08-18T06:49:38.000Z</time>
      </trkpt>
      <trkpt lat="42.519333176314830780029296875" lon="-0.13496867381036281585693359375">
        <ele>924.4000244140625</ele>
        <time>2020-08-18T06:49:39.000Z</time>
      </trkpt>
      <trkpt lat="42.51942671835422515869140625" lon="-0.134961046278476715087890625">
        <ele>925.20001220703125</ele>
        <time>2020-08-18T06:49:44.000Z</time>
      </trkpt>
      <trkpt lat="42.51946334727108478546142578125" lon="-0.13495543040335178375244140625">
        <ele>925.5999755859375</ele>
        <time>2020-08-18T06:49:46.000Z</time>
      </trkpt>
      <trkpt lat="42.51956309191882610321044921875" lon="-0.13493045233190059661865234375">
        <ele>926.4000244140625</ele>
        <time>2020-08-18T06:49:51.000Z</time>
      </trkpt>
      <trkpt lat="42.51962159760296344757080078125" lon="-0.13490899465978145599365234375">
        <ele>926.5999755859375</ele>
        <time>2020-08-18T06:49:53.000Z</time>
      </trkpt>
      <trkpt lat="42.51974523067474365234375" lon="-0.13488837517797946929931640625">
        <ele>927.79998779296875</ele>
        <time>2020-08-18T06:49:59.000Z</time>
      </trkpt>
      <trkpt lat="42.51988713629543781280517578125" lon="-0.13490111567080020904541015625">
        <ele>929</ele>
        <time>2020-08-18T06:50:07.000Z</time>
      </trkpt>
      <trkpt lat="42.519989646971225738525390625" lon="-0.13496414758265018463134765625">
        <ele>929.79998779296875</ele>
        <time>2020-08-18T06:50:13.000Z</time>
      </trkpt>
      <trkpt lat="42.52003281377255916595458984375" lon="-0.13501234352588653564453125">
        <ele>930.20001220703125</ele>
        <time>2020-08-18T06:50:16.000Z</time>
      </trkpt>
      <trkpt lat="42.52010523341596126556396484375" lon="-0.13509322889149188995361328125">
        <ele>930.79998779296875</ele>
        <time>2020-08-18T06:50:21.000Z</time>
      </trkpt>
      <trkpt lat="42.5201628170907497406005859375" lon="-0.13515206985175609588623046875">
        <ele>931.20001220703125</ele>
        <time>2020-08-18T06:50:25.000Z</time>
      </trkpt>
      <trkpt lat="42.52022995613515377044677734375" lon="-0.1352361403405666351318359375">
        <ele>932</ele>
        <time>2020-08-18T06:50:30.000Z</time>
      </trkpt>
      <trkpt lat="42.520245797932147979736328125" lon="-0.13525064103305339813232421875">
        <ele>932.4000244140625</ele>
        <time>2020-08-18T06:50:31.000Z</time>
      </trkpt>
      <trkpt lat="42.52033288590610027313232421875" lon="-0.1353477872908115386962890625">
        <ele>933.4000244140625</ele>
        <time>2020-08-18T06:50:37.000Z</time>
      </trkpt>
      <trkpt lat="42.520363815128803253173828125" lon="-0.1353709213435649871826171875">
        <ele>933.79998779296875</ele>
        <time>2020-08-18T06:50:39.000Z</time>
      </trkpt>
      <trkpt lat="42.52051577903330326080322265625" lon="-0.13547946698963642120361328125">
        <ele>934.4000244140625</ele>
        <time>2020-08-18T06:50:47.000Z</time>
      </trkpt>
      <trkpt lat="42.52051577903330326080322265625" lon="-0.13547946698963642120361328125">
        <ele>934.5999755859375</ele>
        <time>2020-08-18T06:50:48.000Z</time>
      </trkpt>
      <trkpt lat="42.5206638872623443603515625" lon="-0.13557233847677707672119140625">
        <ele>935.4000244140625</ele>
        <time>2020-08-18T06:50:57.000Z</time>
      </trkpt>
      <trkpt lat="42.52068861387670040130615234375" lon="-0.13558608479797840118408203125">
        <ele>935.4000244140625</ele>
        <time>2020-08-18T06:50:59.000Z</time>
      </trkpt>
      <trkpt lat="42.5206878595054149627685546875" lon="-0.1355885155498981475830078125">
        <ele>935.5999755859375</ele>
        <time>2020-08-18T06:51:01.000Z</time>
      </trkpt>
      <trkpt lat="42.5206888653337955474853515625" lon="-0.1355891861021518707275390625">
        <ele>935.79998779296875</ele>
        <time>2020-08-18T06:53:57.000Z</time>
      </trkpt>
      <trkpt lat="42.5206898711621761322021484375" lon="-0.1356009207665920257568359375">
        <ele>935.4000244140625</ele>
        <time>2020-08-18T06:54:02.000Z</time>
      </trkpt>
      <trkpt lat="42.520703114569187164306640625" lon="-0.1356294192373752593994140625">
        <ele>935.20001220703125</ele>
        <time>2020-08-18T06:54:04.000Z</time>
      </trkpt>
      <trkpt lat="42.52079808153212070465087890625" lon="-0.13571231625974178314208984375">
        <ele>935.5999755859375</ele>
        <time>2020-08-18T06:54:10.000Z</time>
      </trkpt>
      <trkpt lat="42.5209155119955539703369140625" lon="-0.13582915998995304107666015625">
        <ele>936.5999755859375</ele>
        <time>2020-08-18T06:54:17.000Z</time>
      </trkpt>
      <trkpt lat="42.5210291706025600433349609375" lon="-0.13592890463769435882568359375">
        <ele>936.79998779296875</ele>
        <time>2020-08-18T06:54:24.000Z</time>
      </trkpt>
      <trkpt lat="42.52112480811774730682373046875" lon="-0.1360107958316802978515625">
        <ele>937.5999755859375</ele>
        <time>2020-08-18T06:54:30.000Z</time>
      </trkpt>
      <trkpt lat="42.52116185612976551055908203125" lon="-0.1360347680747509002685546875">
        <ele>937.79998779296875</ele>
        <time>2020-08-18T06:54:32.000Z</time>
      </trkpt>
      <trkpt lat="42.5213205255568027496337890625" lon="-0.13613543473184108734130859375">
        <ele>937.5999755859375</ele>
        <time>2020-08-18T06:54:40.000Z</time>
      </trkpt>
      <trkpt lat="42.52147550694644451141357421875" lon="-0.13623685576021671295166015625">
        <ele>938.20001220703125</ele>
        <time>2020-08-18T06:54:48.000Z</time>
      </trkpt>
      <trkpt lat="42.52155312336981296539306640625" lon="-0.13633140362799167633056640625">
        <ele>938.79998779296875</ele>
        <time>2020-08-18T06:54:53.000Z</time>
      </trkpt>
      <trkpt lat="42.52159687690436840057373046875" lon="-0.1363878138363361358642578125">
        <ele>939.4000244140625</ele>
        <time>2020-08-18T06:54:57.000Z</time>
      </trkpt>
      <trkpt lat="42.5216504372656345367431640625" lon="-0.13653256930410861968994140625">
        <ele>939.79998779296875</ele>
        <time>2020-08-18T06:55:02.000Z</time>
      </trkpt>
      <trkpt lat="42.521703578531742095947265625" lon="-0.13667221181094646453857421875">
        <ele>941</ele>
        <time>2020-08-18T06:55:08.000Z</time>
      </trkpt>
      <trkpt lat="42.52172000706195831298828125" lon="-0.1367183960974216461181640625">
        <ele>941.20001220703125</ele>
        <time>2020-08-18T06:55:10.000Z</time>
      </trkpt>
      <trkpt lat="42.521757222712039947509765625" lon="-0.13680942356586456298828125">
        <ele>941.5999755859375</ele>
        <time>2020-08-18T06:55:14.000Z</time>
      </trkpt>
      <trkpt lat="42.52179301343858242034912109375" lon="-0.1368369162082672119140625">
        <ele>941.5999755859375</ele>
        <time>2020-08-18T06:55:16.000Z</time>
      </trkpt>
      <trkpt lat="42.5218130461871623992919921875" lon="-0.13684093952178955078125">
        <ele>941.79998779296875</ele>
        <time>2020-08-18T06:55:17.000Z</time>
      </trkpt>
      <trkpt lat="42.5218790955841541290283203125" lon="-0.1368330605328083038330078125">
        <ele>941.79998779296875</ele>
        <time>2020-08-18T06:55:21.000Z</time>
      </trkpt>
      <trkpt lat="42.52192243002355098724365234375" lon="-0.1368159614503383636474609375">
        <ele>942</ele>
        <time>2020-08-18T06:55:22.000Z</time>
      </trkpt>
      <trkpt lat="42.52194372005760669708251953125" lon="-0.1368005387485027313232421875">
        <ele>942</ele>
        <time>2020-08-18T06:55:23.000Z</time>
      </trkpt>
      <trkpt lat="42.522062323987483978271484375" lon="-0.136781595647335052490234375">
        <ele>941.79998779296875</ele>
        <time>2020-08-18T06:55:28.000Z</time>
      </trkpt>
      <trkpt lat="42.52224094234406948089599609375" lon="-0.13686046935617923736572265625">
        <ele>941.79998779296875</ele>
        <time>2020-08-18T06:55:34.000Z</time>
      </trkpt>
      <trkpt lat="42.5224675051867961883544921875" lon="-0.13700522482395172119140625">
        <ele>941.20001220703125</ele>
        <time>2020-08-18T06:55:42.000Z</time>
      </trkpt>
      <trkpt lat="42.5226187147200107574462890625" lon="-0.13714746572077274322509765625">
        <ele>940.5999755859375</ele>
        <time>2020-08-18T06:55:47.000Z</time>
      </trkpt>
      <trkpt lat="42.52270312048494815826416015625" lon="-0.137259699404239654541015625">
        <ele>940</ele>
        <time>2020-08-18T06:55:50.000Z</time>
      </trkpt>
      <trkpt lat="42.52274704165756702423095703125" lon="-0.1373581029474735260009765625">
        <ele>939.5999755859375</ele>
        <time>2020-08-18T06:55:52.000Z</time>
      </trkpt>
      <trkpt lat="42.52282801084220409393310546875" lon="-0.1376105658710002899169921875">
        <ele>938.79998779296875</ele>
        <time>2020-08-18T06:55:56.000Z</time>
      </trkpt>
      <trkpt lat="42.522859610617160797119140625" lon="-0.1377654634416103363037109375">
        <ele>938.4000244140625</ele>
        <time>2020-08-18T06:55:58.000Z</time>
      </trkpt>
      <trkpt lat="42.52291551791131496429443359375" lon="-0.137988589704036712646484375">
        <ele>937.4000244140625</ele>
        <time>2020-08-18T06:56:01.000Z</time>
      </trkpt>
      <trkpt lat="42.5229462794959545135498046875" lon="-0.138046927750110626220703125">
        <ele>937</ele>
        <time>2020-08-18T06:56:02.000Z</time>
      </trkpt>
      <trkpt lat="42.5230445154011249542236328125" lon="-0.13811741955578327178955078125">
        <ele>936.4000244140625</ele>
        <time>2020-08-18T06:56:04.000Z</time>
      </trkpt>
      <trkpt lat="42.52316839993000030517578125" lon="-0.13811440207064151763916015625">
        <ele>935.79998779296875</ele>
        <time>2020-08-18T06:56:06.000Z</time>
      </trkpt>
      <trkpt lat="42.5232322700321674346923828125" lon="-0.13809395022690296173095703125">
        <ele>935.4000244140625</ele>
        <time>2020-08-18T06:56:07.000Z</time>
      </trkpt>
      <trkpt lat="42.52329437993466854095458984375" lon="-0.1380693912506103515625">
        <ele>934.5999755859375</ele>
        <time>2020-08-18T06:56:08.000Z</time>
      </trkpt>
      <trkpt lat="42.5236232019960880279541015625" lon="-0.1379803754389286041259765625">
        <ele>933.4000244140625</ele>
        <time>2020-08-18T06:56:13.000Z</time>
      </trkpt>
      <trkpt lat="42.5238076038658618927001953125" lon="-0.1379978097975254058837890625">
        <ele>933</ele>
        <time>2020-08-18T06:56:16.000Z</time>
      </trkpt>
      <trkpt lat="42.52385227940976619720458984375" lon="-0.13803594745695590972900390625">
        <ele>932.79998779296875</ele>
        <time>2020-08-18T06:56:17.000Z</time>
      </trkpt>
      <trkpt lat="42.5239148922264575958251953125" lon="-0.1381708122789859771728515625">
        <ele>932.79998779296875</ele>
        <time>2020-08-18T06:56:20.000Z</time>
      </trkpt>
      <trkpt lat="42.5239148922264575958251953125" lon="-0.1381708122789859771728515625">
        <ele>933</ele>
        <time>2020-08-18T06:56:21.000Z</time>
      </trkpt>
      <trkpt lat="42.5239809416234493255615234375" lon="-0.13834456913173198699951171875">
        <ele>934.4000244140625</ele>
        <time>2020-08-18T06:56:27.000Z</time>
      </trkpt>
      <trkpt lat="42.5240084342658519744873046875" lon="-0.13839988969266414642333984375">
        <ele>934.5999755859375</ele>
        <time>2020-08-18T06:56:28.000Z</time>
      </trkpt>
      <trkpt lat="42.524090074002742767333984375" lon="-0.138550512492656707763671875">
        <ele>935.79998779296875</ele>
        <time>2020-08-18T06:56:34.000Z</time>
      </trkpt>
      <trkpt lat="42.524173893034458160400390625" lon="-0.1386811025440692901611328125">
        <ele>937</ele>
        <time>2020-08-18T06:56:40.000Z</time>
      </trkpt>
      <trkpt lat="42.5242075882852077484130859375" lon="-0.138717480003833770751953125">
        <ele>937.20001220703125</ele>
        <time>2020-08-18T06:56:42.000Z</time>
      </trkpt>
      <trkpt lat="42.52426047809422016143798828125" lon="-0.13876366429030895233154296875">
        <ele>938</ele>
        <time>2020-08-18T06:56:45.000Z</time>
      </trkpt>
      <trkpt lat="42.524322755634784698486328125" lon="-0.13879953883588314056396484375">
        <ele>938.5999755859375</ele>
        <time>2020-08-18T06:56:49.000Z</time>
      </trkpt>
      <trkpt lat="42.52440179698169231414794921875" lon="-0.13882485218346118927001953125">
        <ele>939</ele>
        <time>2020-08-18T06:56:52.000Z</time>
      </trkpt>
      <trkpt lat="42.5244634039700031280517578125" lon="-0.13881529681384563446044921875">
        <ele>939.20001220703125</ele>
        <time>2020-08-18T06:56:55.000Z</time>
      </trkpt>
      <trkpt lat="42.5245743803679943084716796875" lon="-0.1387629099190235137939453125">
        <ele>939.79998779296875</ele>
        <time>2020-08-18T06:57:01.000Z</time>
      </trkpt>
      <trkpt lat="42.52462475560605525970458984375" lon="-0.13874840922653675079345703125">
        <ele>940.20001220703125</ele>
        <time>2020-08-18T06:57:04.000Z</time>
      </trkpt>
      <trkpt lat="42.52470991574227809906005859375" lon="-0.13877741061151027679443359375">
        <ele>941</ele>
        <time>2020-08-18T06:57:09.000Z</time>
      </trkpt>
      <trkpt lat="42.52472466789186000823974609375" lon="-0.13878629542887210845947265625">
        <ele>941.20001220703125</ele>
        <time>2020-08-18T06:57:10.000Z</time>
      </trkpt>
      <trkpt lat="42.524829022586345672607421875" lon="-0.1388846151530742645263671875">
        <ele>942</ele>
        <time>2020-08-18T06:57:17.000Z</time>
      </trkpt>
      <trkpt lat="42.524923570454120635986328125" lon="-0.1389634050428867340087890625">
        <ele>943.20001220703125</ele>
        <time>2020-08-18T06:57:23.000Z</time>
      </trkpt>
      <trkpt lat="42.52494008280336856842041015625" lon="-0.13897656463086605072021484375">
        <ele>943.4000244140625</ele>
        <time>2020-08-18T06:57:25.000Z</time>
      </trkpt>
      <trkpt lat="42.525043599307537078857421875" lon="-0.13902953825891017913818359375">
        <ele>944.20001220703125</ele>
        <time>2020-08-18T06:57:30.000Z</time>
      </trkpt>
      <trkpt lat="42.52507771365344524383544921875" lon="-0.139039345085620880126953125">
        <ele>944.79998779296875</ele>
        <time>2020-08-18T06:57:33.000Z</time>
      </trkpt>
      <trkpt lat="42.52514996565878391265869140625" lon="-0.13905468396842479705810546875">
        <ele>945.20001220703125</ele>
        <time>2020-08-18T06:57:36.000Z</time>
      </trkpt>
      <trkpt lat="42.52523076720535755157470703125" lon="-0.139097012579441070556640625">
        <ele>946</ele>
        <time>2020-08-18T06:57:41.000Z</time>
      </trkpt>
      <trkpt lat="42.5252462737262248992919921875" lon="-0.13911017216742038726806640625">
        <ele>946.4000244140625</ele>
        <time>2020-08-18T06:57:43.000Z</time>
      </trkpt>
      <trkpt lat="42.525320537388324737548828125" lon="-0.13920840807259082794189453125">
        <ele>947</ele>
        <time>2020-08-18T06:57:48.000Z</time>
      </trkpt>
      <trkpt lat="42.5253284163773059844970703125" lon="-0.1392296142876148223876953125">
        <ele>947.20001220703125</ele>
        <time>2020-08-18T06:57:49.000Z</time>
      </trkpt>
      <trkpt lat="42.52533889375627040863037109375" lon="-0.13924931176006793975830078125">
        <ele>947.4000244140625</ele>
        <time>2020-08-18T06:57:51.000Z</time>
      </trkpt>
      <trkpt lat="42.5254167616367340087890625" lon="-0.1393540017306804656982421875">
        <ele>948.20001220703125</ele>
        <time>2020-08-18T06:57:57.000Z</time>
      </trkpt>
      <trkpt lat="42.52543847076594829559326171875" lon="-0.13939280994236469268798828125">
        <ele>948.4000244140625</ele>
        <time>2020-08-18T06:57:58.000Z</time>
      </trkpt>
      <trkpt lat="42.52551793120801448822021484375" lon="-0.13949523679912090301513671875">
        <ele>949.4000244140625</ele>
        <time>2020-08-18T06:58:04.000Z</time>
      </trkpt>
      <trkpt lat="42.52553008496761322021484375" lon="-0.1395129226148128509521484375">
        <ele>949.5999755859375</ele>
        <time>2020-08-18T06:58:05.000Z</time>
      </trkpt>
      <trkpt lat="42.52559135667979717254638671875" lon="-0.13959883712232112884521484375">
        <ele>950.5999755859375</ele>
        <time>2020-08-18T06:58:10.000Z</time>
      </trkpt>
      <trkpt lat="42.525614909827709197998046875" lon="-0.139628089964389801025390625">
        <ele>950.79998779296875</ele>
        <time>2020-08-18T06:58:12.000Z</time>
      </trkpt>
      <trkpt lat="42.5256348587572574615478515625" lon="-0.13966404832899570465087890625">
        <ele>951.5999755859375</ele>
        <time>2020-08-18T06:58:15.000Z</time>
      </trkpt>
      <trkpt lat="42.52569696865975856781005859375" lon="-0.13976831920444965362548828125">
        <ele>952.4000244140625</ele>
        <time>2020-08-18T06:58:20.000Z</time>
      </trkpt>
      <trkpt lat="42.52569696865975856781005859375" lon="-0.13976831920444965362548828125">
        <ele>952.4000244140625</ele>
        <time>2020-08-18T06:58:21.000Z</time>
      </trkpt>
      <trkpt lat="42.525770477950572967529296875" lon="-0.1398652978241443634033203125">
        <ele>953.5999755859375</ele>
        <time>2020-08-18T06:58:27.000Z</time>
      </trkpt>
      <trkpt lat="42.5258625112473964691162109375" lon="-0.14000929892063140869140625">
        <ele>954.79998779296875</ele>
        <time>2020-08-18T06:58:34.000Z</time>
      </trkpt>
      <trkpt lat="42.52594356425106525421142578125" lon="-0.14009269885718822479248046875">
        <ele>956</ele>
        <time>2020-08-18T06:58:40.000Z</time>
      </trkpt>
      <trkpt lat="42.5259560532867908477783203125" lon="-0.14010594226419925689697265625">
        <ele>956.20001220703125</ele>
        <time>2020-08-18T06:58:41.000Z</time>
      </trkpt>
      <trkpt lat="42.526000477373600006103515625" lon="-0.14013779349625110626220703125">
        <ele>957</ele>
        <time>2020-08-18T06:58:45.000Z</time>
      </trkpt>
      <trkpt lat="42.5260620005428791046142578125" lon="-0.1401653699576854705810546875">
        <ele>957.5999755859375</ele>
        <time>2020-08-18T06:58:48.000Z</time>
      </trkpt>
      <trkpt lat="42.52613182179629802703857421875" lon="-0.14014969579875469207763671875">
        <ele>958.20001220703125</ele>
        <time>2020-08-18T06:58:52.000Z</time>
      </trkpt>
      <trkpt lat="42.526162080466747283935546875" lon="-0.14012538827955722808837890625">
        <ele>958.5999755859375</ele>
        <time>2020-08-18T06:58:55.000Z</time>
      </trkpt>
      <trkpt lat="42.52624866552650928497314453125" lon="-0.1400617696344852447509765625">
        <ele>959.20001220703125</ele>
        <time>2020-08-18T06:58:59.000Z</time>
      </trkpt>
      <trkpt lat="42.52629510127007961273193359375" lon="-0.1400191895663738250732421875">
        <ele>960</ele>
        <time>2020-08-18T06:59:03.000Z</time>
      </trkpt>
      <trkpt lat="42.5263627432286739349365234375" lon="-0.13998658396303653717041015625">
        <ele>960.4000244140625</ele>
        <time>2020-08-18T06:59:06.000Z</time>
      </trkpt>
      <trkpt lat="42.52645075321197509765625" lon="-0.13996043242514133453369140625">
        <ele>960.79998779296875</ele>
        <time>2020-08-18T06:59:11.000Z</time>
      </trkpt>
      <trkpt lat="42.5265615619719028472900390625" lon="-0.13994232751429080963134765625">
        <ele>961.4000244140625</ele>
        <time>2020-08-18T06:59:17.000Z</time>
      </trkpt>
      <trkpt lat="42.52657991833984851837158203125" lon="-0.13993687927722930908203125">
        <ele>961.5999755859375</ele>
        <time>2020-08-18T06:59:18.000Z</time>
      </trkpt>
      <trkpt lat="42.52672224305570125579833984375" lon="-0.139951296150684356689453125">
        <ele>962.4000244140625</ele>
        <time>2020-08-18T06:59:27.000Z</time>
      </trkpt>
      <trkpt lat="42.5267550162971019744873046875" lon="-0.13997116126120090484619140625">
        <ele>962.4000244140625</ele>
        <time>2020-08-18T06:59:28.000Z</time>
      </trkpt>
      <trkpt lat="42.52686557359993457794189453125" lon="-0.14005891978740692138671875">
        <ele>963.4000244140625</ele>
        <time>2020-08-18T06:59:35.000Z</time>
      </trkpt>
      <trkpt lat="42.526966072618961334228515625" lon="-0.14014969579875469207763671875">
        <ele>964.5999755859375</ele>
        <time>2020-08-18T06:59:43.000Z</time>
      </trkpt>
      <trkpt lat="42.52705601043999195098876953125" lon="-0.1402272284030914306640625">
        <ele>965.4000244140625</ele>
        <time>2020-08-18T06:59:49.000Z</time>
      </trkpt>
      <trkpt lat="42.5270931422710418701171875" lon="-0.14024960808455944061279296875">
        <ele>965.79998779296875</ele>
        <time>2020-08-18T06:59:51.000Z</time>
      </trkpt>
      <trkpt lat="42.5271865166723728179931640625" lon="-0.1403256319463253021240234375">
        <ele>966.79998779296875</ele>
        <time>2020-08-18T06:59:57.000Z</time>
      </trkpt>
      <trkpt lat="42.52721677534282207489013671875" lon="-0.14035220257937908172607421875">
        <ele>967</ele>
        <time>2020-08-18T06:59:58.000Z</time>
      </trkpt>
      <trkpt lat="42.527279891073703765869140625" lon="-0.14040215872228145599365234375">
        <ele>967.79998779296875</ele>
        <time>2020-08-18T07:00:02.000Z</time>
      </trkpt>
      <trkpt lat="42.527279891073703765869140625" lon="-0.14040215872228145599365234375">
        <ele>968</ele>
        <time>2020-08-18T07:00:03.000Z</time>
      </trkpt>
      <trkpt lat="42.52738189883530139923095703125" lon="-0.14043669216334819793701171875">
        <ele>969.20001220703125</ele>
        <time>2020-08-18T07:00:09.000Z</time>
      </trkpt>
      <trkpt lat="42.52743302844464778900146484375" lon="-0.140443146228790283203125">
        <ele>969.4000244140625</ele>
        <time>2020-08-18T07:00:11.000Z</time>
      </trkpt>
      <trkpt lat="42.527521289885044097900390625" lon="-0.1404332555830478668212890625">
        <ele>970.20001220703125</ele>
        <time>2020-08-18T07:00:16.000Z</time>
      </trkpt>
      <trkpt lat="42.52755439840257167816162109375" lon="-0.1404255442321300506591796875">
        <ele>970.79998779296875</ele>
        <time>2020-08-18T07:00:18.000Z</time>
      </trkpt>
      <trkpt lat="42.5275866687297821044921875" lon="-0.14043333940207958221435546875">
        <ele>971.20001220703125</ele>
        <time>2020-08-18T07:00:21.000Z</time>
      </trkpt>
      <trkpt lat="42.5276512093842029571533203125" lon="-0.1404218561947345733642578125">
        <ele>971.79998779296875</ele>
        <time>2020-08-18T07:00:25.000Z</time>
      </trkpt>
      <trkpt lat="42.5276991538703441619873046875" lon="-0.140425376594066619873046875">
        <ele>972.20001220703125</ele>
        <time>2020-08-18T07:00:27.000Z</time>
      </trkpt>
      <trkpt lat="42.52777911722660064697265625" lon="-0.1404436491429805755615234375">
        <ele>973.20001220703125</ele>
        <time>2020-08-18T07:00:32.000Z</time>
      </trkpt>
      <trkpt lat="42.52777911722660064697265625" lon="-0.1404436491429805755615234375">
        <ele>973.20001220703125</ele>
        <time>2020-08-18T07:00:33.000Z</time>
      </trkpt>
      <trkpt lat="42.52781088463962078094482421875" lon="-0.14045043848454952239990234375">
        <ele>973.5999755859375</ele>
        <time>2020-08-18T07:00:34.000Z</time>
      </trkpt>
      <trkpt lat="42.52789855934679508209228515625" lon="-0.14049737714231014251708984375">
        <ele>974.4000244140625</ele>
        <time>2020-08-18T07:00:40.000Z</time>
      </trkpt>
      <trkpt lat="42.528014481067657470703125" lon="-0.1405893266201019287109375">
        <ele>975</ele>
        <time>2020-08-18T07:00:48.000Z</time>
      </trkpt>
      <trkpt lat="42.52811498008668422698974609375" lon="-0.1407225988805294036865234375">
        <ele>975.4000244140625</ele>
        <time>2020-08-18T07:00:56.000Z</time>
      </trkpt>
      <trkpt lat="42.52812772057950496673583984375" lon="-0.14074548147618770599365234375">
        <ele>975.4000244140625</ele>
        <time>2020-08-18T07:00:57.000Z</time>
      </trkpt>
      <trkpt lat="42.5281735695898532867431640625" lon="-0.14080281369388103485107421875">
        <ele>975.4000244140625</ele>
        <time>2020-08-18T07:01:01.000Z</time>
      </trkpt>
      <trkpt lat="42.52820248715579509735107421875" lon="-0.14084690250456333160400390625">
        <ele>975.4000244140625</ele>
        <time>2020-08-18T07:01:03.000Z</time>
      </trkpt>
      <trkpt lat="42.52830457873642444610595703125" lon="-0.1411041431128978729248046875">
        <ele>975.4000244140625</ele>
        <time>2020-08-18T07:01:11.000Z</time>
      </trkpt>
      <trkpt lat="42.52834699116647243499755859375" lon="-0.1413349807262420654296875">
        <ele>975</ele>
        <time>2020-08-18T07:01:17.000Z</time>
      </trkpt>
      <trkpt lat="42.528399042785167694091796875" lon="-0.14155467040836811065673828125">
        <ele>974.5999755859375</ele>
        <time>2020-08-18T07:01:22.000Z</time>
      </trkpt>
      <trkpt lat="42.52852150239050388336181640625" lon="-0.1416747830808162689208984375">
        <ele>974.5999755859375</ele>
        <time>2020-08-18T07:01:27.000Z</time>
      </trkpt>
      <trkpt lat="42.52865217626094818115234375" lon="-0.14175700955092906951904296875">
        <ele>974.79998779296875</ele>
        <time>2020-08-18T07:01:33.000Z</time>
      </trkpt>
      <trkpt lat="42.5287686847150325775146484375" lon="-0.141843259334564208984375">
        <ele>975.4000244140625</ele>
        <time>2020-08-18T07:01:39.000Z</time>
      </trkpt>
      <trkpt lat="42.52891075797379016876220703125" lon="-0.141918696463108062744140625">
        <ele>976</ele>
        <time>2020-08-18T07:01:46.000Z</time>
      </trkpt>
      <trkpt lat="42.5289658270776271820068359375" lon="-0.14195046387612819671630859375">
        <ele>976.4000244140625</ele>
        <time>2020-08-18T07:01:49.000Z</time>
      </trkpt>
      <trkpt lat="42.5290174596011638641357421875" lon="-0.14200377278029918670654296875">
        <ele>976.79998779296875</ele>
        <time>2020-08-18T07:01:52.000Z</time>
      </trkpt>
      <trkpt lat="42.52911024726927280426025390625" lon="-0.14214157126843929290771484375">
        <ele>977.4000244140625</ele>
        <time>2020-08-18T07:01:58.000Z</time>
      </trkpt>
      <trkpt lat="42.52912349067628383636474609375" lon="-0.142171494662761688232421875">
        <ele>977.4000244140625</ele>
        <time>2020-08-18T07:01:59.000Z</time>
      </trkpt>
      <trkpt lat="42.52919859252870082855224609375" lon="-0.14232295565307140350341796875">
        <ele>977.5999755859375</ele>
        <time>2020-08-18T07:02:04.000Z</time>
      </trkpt>
      <trkpt lat="42.5292967446148395538330078125" lon="-0.14254423789680004119873046875">
        <ele>977.4000244140625</ele>
        <time>2020-08-18T07:02:11.000Z</time>
      </trkpt>
      <trkpt lat="42.52940160222351551055908203125" lon="-0.1427966170012950897216796875">
        <ele>977.4000244140625</ele>
        <time>2020-08-18T07:02:19.000Z</time>
      </trkpt>
      <trkpt lat="42.529491372406482696533203125" lon="-0.143018066883087158203125">
        <ele>977.79998779296875</ele>
        <time>2020-08-18T07:02:26.000Z</time>
      </trkpt>
      <trkpt lat="42.52959136851131916046142578125" lon="-0.1432083360850811004638671875">
        <ele>978.4000244140625</ele>
        <time>2020-08-18T07:02:32.000Z</time>
      </trkpt>
      <trkpt lat="42.52975146286189556121826171875" lon="-0.1433940790593624114990234375">
        <ele>978</ele>
        <time>2020-08-18T07:02:39.000Z</time>
      </trkpt>
      <trkpt lat="42.5298858247697353363037109375" lon="-0.1436391659080982208251953125">
        <ele>977.79998779296875</ele>
        <time>2020-08-18T07:02:45.000Z</time>
      </trkpt>
      <trkpt lat="42.52994122914969921112060546875" lon="-0.1438316144049167633056640625">
        <ele>976.5999755859375</ele>
        <time>2020-08-18T07:02:48.000Z</time>
      </trkpt>
      <trkpt lat="42.52999789081513881683349609375" lon="-0.14396379701793193817138671875">
        <ele>976.4000244140625</ele>
        <time>2020-08-18T07:02:50.000Z</time>
      </trkpt>
      <trkpt lat="42.5301409699022769927978515625" lon="-0.1442121528089046478271484375">
        <ele>975.4000244140625</ele>
        <time>2020-08-18T07:02:54.000Z</time>
      </trkpt>
      <trkpt lat="42.5301785208284854888916015625" lon="-0.14426864683628082275390625">
        <ele>975.20001220703125</ele>
        <time>2020-08-18T07:02:55.000Z</time>
      </trkpt>
      <trkpt lat="42.53021548502147197723388671875" lon="-0.14432539232075214385986328125">
        <ele>975</ele>
        <time>2020-08-18T07:02:56.000Z</time>
      </trkpt>
      <trkpt lat="42.53025881946086883544921875" lon="-0.1443804614245891571044921875">
        <ele>974.79998779296875</ele>
        <time>2020-08-18T07:02:57.000Z</time>
      </trkpt>
      <trkpt lat="42.53045017831027507781982421875" lon="-0.1445682160556316375732421875">
        <ele>974.5999755859375</ele>
        <time>2020-08-18T07:03:01.000Z</time>
      </trkpt>
      <trkpt lat="42.530536763370037078857421875" lon="-0.14466519467532634735107421875">
        <ele>974.4000244140625</ele>
        <time>2020-08-18T07:03:03.000Z</time>
      </trkpt>
      <trkpt lat="42.5305996276438236236572265625" lon="-0.14476510696113109588623046875">
        <ele>974.20001220703125</ele>
        <time>2020-08-18T07:03:05.000Z</time>
      </trkpt>
      <trkpt lat="42.53066383302211761474609375" lon="-0.14491832815110683441162109375">
        <ele>974.4000244140625</ele>
        <time>2020-08-18T07:03:09.000Z</time>
      </trkpt>
      <trkpt lat="42.5307478196918964385986328125" lon="-0.145067274570465087890625">
        <ele>975.20001220703125</ele>
        <time>2020-08-18T07:03:15.000Z</time>
      </trkpt>
      <trkpt lat="42.530822418630123138427734375" lon="-0.1451935060322284698486328125">
        <ele>976</ele>
        <time>2020-08-18T07:03:20.000Z</time>
      </trkpt>
      <trkpt lat="42.53085603006184101104736328125" lon="-0.14526969753205776214599609375">
        <ele>976.20001220703125</ele>
        <time>2020-08-18T07:03:23.000Z</time>
      </trkpt>
      <trkpt lat="42.5308748893439769744873046875" lon="-0.14532141387462615966796875">
        <ele>976.5999755859375</ele>
        <time>2020-08-18T07:03:25.000Z</time>
      </trkpt>
      <trkpt lat="42.53092710860073566436767578125" lon="-0.14544001780450344085693359375">
        <ele>977.4000244140625</ele>
        <time>2020-08-18T07:03:30.000Z</time>
      </trkpt>
      <trkpt lat="42.53094705753028392791748046875" lon="-0.145485699176788330078125">
        <ele>977.79998779296875</ele>
        <time>2020-08-18T07:03:32.000Z</time>
      </trkpt>
      <trkpt lat="42.53099181689321994781494140625" lon="-0.145548395812511444091796875">
        <ele>978.5999755859375</ele>
        <time>2020-08-18T07:03:35.000Z</time>
      </trkpt>
      <trkpt lat="42.5310659967362880706787109375" lon="-0.14558292925357818603515625">
        <ele>979.5999755859375</ele>
        <time>2020-08-18T07:03:39.000Z</time>
      </trkpt>
      <trkpt lat="42.53108628094196319580078125" lon="-0.1455854438245296478271484375">
        <ele>979.79998779296875</ele>
        <time>2020-08-18T07:03:40.000Z</time>
      </trkpt>
      <trkpt lat="42.53115341998636722564697265625" lon="-0.1456226594746112823486328125">
        <ele>980.79998779296875</ele>
        <time>2020-08-18T07:03:44.000Z</time>
      </trkpt>
      <trkpt lat="42.53116984851658344268798828125" lon="-0.14563146047294139862060546875">
        <ele>981</ele>
        <time>2020-08-18T07:03:45.000Z</time>
      </trkpt>
      <trkpt lat="42.5312356464564800262451171875" lon="-0.14563816599547863006591796875">
        <ele>981.79998779296875</ele>
        <time>2020-08-18T07:03:49.000Z</time>
      </trkpt>
      <trkpt lat="42.531248219311237335205078125" lon="-0.14565107412636280059814453125">
        <ele>982</ele>
        <time>2020-08-18T07:03:50.000Z</time>
      </trkpt>
      <trkpt lat="42.53134720958769321441650390625" lon="-0.1457306183874607086181640625">
        <ele>983.20001220703125</ele>
        <time>2020-08-18T07:03:57.000Z</time>
      </trkpt>
      <trkpt lat="42.53141082823276519775390625" lon="-0.14575995504856109619140625">
        <ele>983.79998779296875</ele>
        <time>2020-08-18T07:04:01.000Z</time>
      </trkpt>
      <trkpt lat="42.53143605776131153106689453125" lon="-0.14578987844288349151611328125">
        <ele>984.20001220703125</ele>
        <time>2020-08-18T07:04:03.000Z</time>
      </trkpt>
      <trkpt lat="42.5314938090741634368896484375" lon="-0.1458687521517276763916015625">
        <ele>985.20001220703125</ele>
        <time>2020-08-18T07:04:08.000Z</time>
      </trkpt>
      <trkpt lat="42.531510405242443084716796875" lon="-0.145879648625850677490234375">
        <ele>985.4000244140625</ele>
        <time>2020-08-18T07:04:09.000Z</time>
      </trkpt>
      <trkpt lat="42.53159564919769763946533203125" lon="-0.14596254564821720123291015625">
        <ele>986.4000244140625</ele>
        <time>2020-08-18T07:04:15.000Z</time>
      </trkpt>
      <trkpt lat="42.5316081382334232330322265625" lon="-0.1459770463407039642333984375">
        <ele>986.5999755859375</ele>
        <time>2020-08-18T07:04:16.000Z</time>
      </trkpt>
      <trkpt lat="42.5316555798053741455078125" lon="-0.14602817595005035400390625">
        <ele>987.20001220703125</ele>
        <time>2020-08-18T07:04:20.000Z</time>
      </trkpt>
      <trkpt lat="42.53169572912156581878662109375" lon="-0.14606145210564136505126953125">
        <ele>987.79998779296875</ele>
        <time>2020-08-18T07:04:23.000Z</time>
      </trkpt>
      <trkpt lat="42.53174719400703907012939453125" lon="-0.14608073048293590545654296875">
        <ele>988.4000244140625</ele>
        <time>2020-08-18T07:04:26.000Z</time>
      </trkpt>
      <trkpt lat="42.53179178573191165924072265625" lon="-0.14610235579311847686767578125">
        <ele>988.79998779296875</ele>
        <time>2020-08-18T07:04:29.000Z</time>
      </trkpt>
      <trkpt lat="42.531828582286834716796875" lon="-0.146126411855220794677734375">
        <ele>989.4000244140625</ele>
        <time>2020-08-18T07:04:32.000Z</time>
      </trkpt>
      <trkpt lat="42.53188021481037139892578125" lon="-0.14614258892834186553955078125">
        <ele>990.20001220703125</ele>
        <time>2020-08-18T07:04:36.000Z</time>
      </trkpt>
      <trkpt lat="42.5318994931876659393310546875" lon="-0.146160610020160675048828125">
        <ele>990.5999755859375</ele>
        <time>2020-08-18T07:04:38.000Z</time>
      </trkpt>
      <trkpt lat="42.531946599483489990234375" lon="-0.146177373826503753662109375">
        <ele>991.20001220703125</ele>
        <time>2020-08-18T07:04:41.000Z</time>
      </trkpt>
      <trkpt lat="42.5319621898233890533447265625" lon="-0.146178714931011199951171875">
        <ele>991.4000244140625</ele>
        <time>2020-08-18T07:04:42.000Z</time>
      </trkpt>
      <trkpt lat="42.5319756008684635162353515625" lon="-0.1461825706064701080322265625">
        <ele>991.5999755859375</ele>
        <time>2020-08-18T07:04:43.000Z</time>
      </trkpt>
      <trkpt lat="42.5320391356945037841796875" lon="-0.1462214626371860504150390625">
        <ele>992.79998779296875</ele>
        <time>2020-08-18T07:04:48.000Z</time>
      </trkpt>
      <trkpt lat="42.53205187618732452392578125" lon="-0.1462305150926113128662109375">
        <ele>993</ele>
        <time>2020-08-18T07:04:49.000Z</time>
      </trkpt>
      <trkpt lat="42.5321281515061855316162109375" lon="-0.1462643779814243316650390625">
        <ele>994</ele>
        <time>2020-08-18T07:04:54.000Z</time>
      </trkpt>
      <trkpt lat="42.5321432389318943023681640625" lon="-0.14627083204686641693115234375">
        <ele>994</ele>
        <time>2020-08-18T07:04:55.000Z</time>
      </trkpt>
      <trkpt lat="42.53222362138330936431884765625" lon="-0.14630712568759918212890625">
        <ele>995.20001220703125</ele>
        <time>2020-08-18T07:05:00.000Z</time>
      </trkpt>
      <trkpt lat="42.53228380344808101654052734375" lon="-0.146339647471904754638671875">
        <ele>996</ele>
        <time>2020-08-18T07:05:04.000Z</time>
      </trkpt>
      <trkpt lat="42.53231280483305454254150390625" lon="-0.14636001549661159515380859375">
        <ele>996.20001220703125</ele>
        <time>2020-08-18T07:05:06.000Z</time>
      </trkpt>
      <trkpt lat="42.532370053231716156005859375" lon="-0.1464015059173107147216796875">
        <ele>997.20001220703125</ele>
        <time>2020-08-18T07:05:10.000Z</time>
      </trkpt>
      <trkpt lat="42.53237986005842685699462890625" lon="-0.1464177668094635009765625">
        <ele>997.4000244140625</ele>
        <time>2020-08-18T07:05:11.000Z</time>
      </trkpt>
      <trkpt lat="42.5324158184230327606201171875" lon="-0.1464695669710636138916015625">
        <ele>997.79998779296875</ele>
        <time>2020-08-18T07:05:14.000Z</time>
      </trkpt>
      <trkpt lat="42.53245445899665355682373046875" lon="-0.146511308848857879638671875">
        <ele>998.4000244140625</ele>
        <time>2020-08-18T07:05:17.000Z</time>
      </trkpt>
      <trkpt lat="42.53246820531785488128662109375" lon="-0.146526731550693511962890625">
        <ele>998.5999755859375</ele>
        <time>2020-08-18T07:05:18.000Z</time>
      </trkpt>
      <trkpt lat="42.53254967741668224334716796875" lon="-0.146649777889251708984375">
        <ele>999.5999755859375</ele>
        <time>2020-08-18T07:05:25.000Z</time>
      </trkpt>
      <trkpt lat="42.532610781490802764892578125" lon="-0.14672781340777873992919921875">
        <ele>1000.5999755859375</ele>
        <time>2020-08-18T07:05:30.000Z</time>
      </trkpt>
      <trkpt lat="42.5326213426887989044189453125" lon="-0.146742649376392364501953125">
        <ele>1000.5999755859375</ele>
        <time>2020-08-18T07:05:31.000Z</time>
      </trkpt>
      <trkpt lat="42.532689906656742095947265625" lon="-0.14682923443615436553955078125">
        <ele>1001.79998779296875</ele>
        <time>2020-08-18T07:05:37.000Z</time>
      </trkpt>
      <trkpt lat="42.5327217578887939453125" lon="-0.14688002876937389373779296875">
        <ele>1002.20001220703125</ele>
        <time>2020-08-18T07:05:40.000Z</time>
      </trkpt>
      <trkpt lat="42.53274857997894287109375" lon="-0.146908946335315704345703125">
        <ele>1002.79998779296875</ele>
        <time>2020-08-18T07:05:42.000Z</time>
      </trkpt>
      <trkpt lat="42.53279074095189571380615234375" lon="-0.14694406650960445404052734375">
        <ele>1003.4000244140625</ele>
        <time>2020-08-18T07:05:45.000Z</time>
      </trkpt>
      <trkpt lat="42.5328486599028110504150390625" lon="-0.14700156636536121368408203125">
        <ele>1004</ele>
        <time>2020-08-18T07:05:49.000Z</time>
      </trkpt>
      <trkpt lat="42.5328620709478855133056640625" lon="-0.14701413922011852264404296875">
        <ele>1004.20001220703125</ele>
        <time>2020-08-18T07:05:50.000Z</time>
      </trkpt>
      <trkpt lat="42.53293055109679698944091796875" lon="-0.14707851223647594451904296875">
        <ele>1005</ele>
        <time>2020-08-18T07:05:55.000Z</time>
      </trkpt>
      <trkpt lat="42.5329790823161602020263671875" lon="-0.14711203984916210174560546875">
        <ele>1005.79998779296875</ele>
        <time>2020-08-18T07:05:58.000Z</time>
      </trkpt>
      <trkpt lat="42.53300699405372142791748046875" lon="-0.14713852666318416595458984375">
        <ele>1006</ele>
        <time>2020-08-18T07:06:00.000Z</time>
      </trkpt>
      <trkpt lat="42.53307522274553775787353515625" lon="-0.14719770289957523345947265625">
        <ele>1007.20001220703125</ele>
        <time>2020-08-18T07:06:05.000Z</time>
      </trkpt>
      <trkpt lat="42.5331239216029644012451171875" lon="-0.14724665321409702301025390625">
        <ele>1008</ele>
        <time>2020-08-18T07:06:09.000Z</time>
      </trkpt>
      <trkpt lat="42.53315267153084278106689453125" lon="-0.14726936817169189453125">
        <ele>1008.20001220703125</ele>
        <time>2020-08-18T07:06:11.000Z</time>
      </trkpt>
      <trkpt lat="42.533216960728168487548828125" lon="-0.14733047224581241607666015625">
        <ele>1009.20001220703125</ele>
        <time>2020-08-18T07:06:16.000Z</time>
      </trkpt>
      <trkpt lat="42.533228695392608642578125" lon="-0.147341787815093994140625">
        <ele>1009.4000244140625</ele>
        <time>2020-08-18T07:06:17.000Z</time>
      </trkpt>
      <trkpt lat="42.53325845114886760711669921875" lon="-0.1473902352154254913330078125">
        <ele>1009.79998779296875</ele>
        <time>2020-08-18T07:06:20.000Z</time>
      </trkpt>
      <trkpt lat="42.5332825072109699249267578125" lon="-0.14741915278136730194091796875">
        <ele>1010.20001220703125</ele>
        <time>2020-08-18T07:06:22.000Z</time>
      </trkpt>
      <trkpt lat="42.53329633735120296478271484375" lon="-0.14743206091225147247314453125">
        <ele>1010.4000244140625</ele>
        <time>2020-08-18T07:06:23.000Z</time>
      </trkpt>
      <trkpt lat="42.53337445668876171112060546875" lon="-0.14752157963812351226806640625">
        <ele>1011.4000244140625</ele>
        <time>2020-08-18T07:06:29.000Z</time>
      </trkpt>
      <trkpt lat="42.53346648998558521270751953125" lon="-0.14762685634195804595947265625">
        <ele>1012.5999755859375</ele>
        <time>2020-08-18T07:06:36.000Z</time>
      </trkpt>
      <trkpt lat="42.53351711668074131011962890625" lon="-0.147693492472171783447265625">
        <ele>1013.4000244140625</ele>
        <time>2020-08-18T07:06:41.000Z</time>
      </trkpt>
      <trkpt lat="42.5335275940597057342529296875" lon="-0.147711597383022308349609375">
        <ele>1013.5999755859375</ele>
        <time>2020-08-18T07:06:42.000Z</time>
      </trkpt>
      <trkpt lat="42.53358853049576282501220703125" lon="-0.147838331758975982666015625">
        <ele>1014.79998779296875</ele>
        <time>2020-08-18T07:06:49.000Z</time>
      </trkpt>
      <trkpt lat="42.53366078250110149383544921875" lon="-0.147932209074497222900390625">
        <ele>1015.5999755859375</ele>
        <time>2020-08-18T07:06:55.000Z</time>
      </trkpt>
      <trkpt lat="42.53367125988006591796875" lon="-0.14795090071856975555419921875">
        <ele>1015.79998779296875</ele>
        <time>2020-08-18T07:06:56.000Z</time>
      </trkpt>
      <trkpt lat="42.53373286686837673187255859375" lon="-0.14808182604610919952392578125">
        <ele>1016.79998779296875</ele>
        <time>2020-08-18T07:07:03.000Z</time>
      </trkpt>
      <trkpt lat="42.53374292515218257904052734375" lon="-0.148097835481166839599609375">
        <ele>1017</ele>
        <time>2020-08-18T07:07:04.000Z</time>
      </trkpt>
      <trkpt lat="42.5337798893451690673828125" lon="-0.14813773334026336669921875">
        <ele>1017.5999755859375</ele>
        <time>2020-08-18T07:07:08.000Z</time>
      </trkpt>
      <trkpt lat="42.53377997316420078277587890625" lon="-0.14814100228250026702880859375">
        <ele>1017.79998779296875</ele>
        <time>2020-08-18T07:07:09.000Z</time>
      </trkpt>
      <trkpt lat="42.53378382883965969085693359375" lon="-0.14814712107181549072265625">
        <ele>1018.20001220703125</ele>
        <time>2020-08-18T07:07:18.000Z</time>
      </trkpt>
      <trkpt lat="42.5338093936443328857421875" lon="-0.1481995917856693267822265625">
        <ele>1018.4000244140625</ele>
        <time>2020-08-18T07:07:22.000Z</time>
      </trkpt>
      <trkpt lat="42.533822469413280487060546875" lon="-0.1482351310551166534423828125">
        <ele>1018.5999755859375</ele>
        <time>2020-08-18T07:07:24.000Z</time>
      </trkpt>
      <trkpt lat="42.5338357128202915191650390625" lon="-0.148270837962627410888671875">
        <ele>1019</ele>
        <time>2020-08-18T07:07:26.000Z</time>
      </trkpt>
      <trkpt lat="42.53385758958756923675537109375" lon="-0.14829975552856922149658203125">
        <ele>1019.4000244140625</ele>
        <time>2020-08-18T07:07:28.000Z</time>
      </trkpt>
      <trkpt lat="42.53387887962162494659423828125" lon="-0.14833219349384307861328125">
        <ele>1019.5999755859375</ele>
        <time>2020-08-18T07:07:30.000Z</time>
      </trkpt>
      <trkpt lat="42.533899247646331787109375" lon="-0.1483863405883312225341796875">
        <ele>1020.4000244140625</ele>
        <time>2020-08-18T07:07:33.000Z</time>
      </trkpt>
      <trkpt lat="42.53393788821995258331298828125" lon="-0.14844107441604137420654296875">
        <ele>1020.79998779296875</ele>
        <time>2020-08-18T07:07:37.000Z</time>
      </trkpt>
      <trkpt lat="42.53394610248506069183349609375" lon="-0.14844794757664203643798828125">
        <ele>1020.79998779296875</ele>
        <time>2020-08-18T07:07:38.000Z</time>
      </trkpt>
      <trkpt lat="42.53395917825400829315185546875" lon="-0.148490779101848602294921875">
        <ele>1021.4000244140625</ele>
        <time>2020-08-18T07:07:41.000Z</time>
      </trkpt>
      <trkpt lat="42.533967308700084686279296875" lon="-0.14850494451820850372314453125">
        <ele>1021.5999755859375</ele>
        <time>2020-08-18T07:07:42.000Z</time>
      </trkpt>
      <trkpt lat="42.5339738465845584869384765625" lon="-0.14852137304842472076416015625">
        <ele>1021.5999755859375</ele>
        <time>2020-08-18T07:07:43.000Z</time>
      </trkpt>
      <trkpt lat="42.534011900424957275390625" lon="-0.14861156232655048370361328125">
        <ele>1022.4000244140625</ele>
        <time>2020-08-18T07:07:48.000Z</time>
      </trkpt>
      <trkpt lat="42.53401349298655986785888671875" lon="-0.1486332714557647705078125">
        <ele>1022.5999755859375</ele>
        <time>2020-08-18T07:07:49.000Z</time>
      </trkpt>
      <trkpt lat="42.53401231952011585235595703125" lon="-0.14865447767078876495361328125">
        <ele>1022.79998779296875</ele>
        <time>2020-08-18T07:07:50.000Z</time>
      </trkpt>
      <trkpt lat="42.5340144149959087371826171875" lon="-0.148694626986980438232421875">
        <ele>1023.20001220703125</ele>
        <time>2020-08-18T07:07:52.000Z</time>
      </trkpt>
      <trkpt lat="42.534023635089397430419921875" lon="-0.1487298309803009033203125">
        <ele>1023.5999755859375</ele>
        <time>2020-08-18T07:07:54.000Z</time>
      </trkpt>
      <trkpt lat="42.5340492837131023406982421875" lon="-0.14880116097629070281982421875">
        <ele>1024.199951171875</ele>
        <time>2020-08-18T07:07:58.000Z</time>
      </trkpt>
      <trkpt lat="42.5340600125491619110107421875" lon="-0.148837454617023468017578125">
        <ele>1024.4000244140625</ele>
        <time>2020-08-18T07:08:00.000Z</time>
      </trkpt>
      <trkpt lat="42.5340824760496616363525390625" lon="-0.148897133767604827880859375">
        <ele>1024.800048828125</ele>
        <time>2020-08-18T07:08:03.000Z</time>
      </trkpt>
      <trkpt lat="42.53409563563764095306396484375" lon="-0.14892923645675182342529296875">
        <ele>1025.4000244140625</ele>
        <time>2020-08-18T07:08:05.000Z</time>
      </trkpt>
      <trkpt lat="42.53412061370909214019775390625" lon="-0.14900065027177333831787109375">
        <ele>1026</ele>
        <time>2020-08-18T07:08:09.000Z</time>
      </trkpt>
      <trkpt lat="42.53414274193346500396728515625" lon="-0.1490263827145099639892578125">
        <ele>1026.5999755859375</ele>
        <time>2020-08-18T07:08:11.000Z</time>
      </trkpt>
      <trkpt lat="42.5341813825070858001708984375" lon="-0.149143896996974945068359375">
        <ele>1027.4000244140625</ele>
        <time>2020-08-18T07:08:17.000Z</time>
      </trkpt>
      <trkpt lat="42.5341907702386379241943359375" lon="-0.1491879858076572418212890625">
        <ele>1027.800048828125</ele>
        <time>2020-08-18T07:08:19.000Z</time>
      </trkpt>
      <trkpt lat="42.53419806249439716339111328125" lon="-0.1492340862751007080078125">
        <ele>1028.199951171875</ele>
        <time>2020-08-18T07:08:21.000Z</time>
      </trkpt>
      <trkpt lat="42.5342102162539958953857421875" lon="-0.1492770016193389892578125">
        <ele>1028.4000244140625</ele>
        <time>2020-08-18T07:08:23.000Z</time>
      </trkpt>
      <trkpt lat="42.534228824079036712646484375" lon="-0.1493422128260135650634765625">
        <ele>1028.800048828125</ele>
        <time>2020-08-18T07:08:26.000Z</time>
      </trkpt>
      <trkpt lat="42.53424097783863544464111328125" lon="-0.1494139619171619415283203125">
        <ele>1029.5999755859375</ele>
        <time>2020-08-18T07:08:29.000Z</time>
      </trkpt>
      <trkpt lat="42.53425774164497852325439453125" lon="-0.14945008791983127593994140625">
        <ele>1030</ele>
        <time>2020-08-18T07:08:31.000Z</time>
      </trkpt>
      <trkpt lat="42.53428271971642971038818359375" lon="-0.14954949729144573211669921875">
        <ele>1030.800048828125</ele>
        <time>2020-08-18T07:08:35.000Z</time>
      </trkpt>
      <trkpt lat="42.5342921912670135498046875" lon="-0.14959752559661865234375">
        <ele>1031.199951171875</ele>
        <time>2020-08-18T07:08:37.000Z</time>
      </trkpt>
      <trkpt lat="42.5342980585992336273193359375" lon="-0.1496994495391845703125">
        <ele>1031.800048828125</ele>
        <time>2020-08-18T07:08:41.000Z</time>
      </trkpt>
      <trkpt lat="42.534301914274692535400390625" lon="-0.1497237570583820343017578125">
        <ele>1032</ele>
        <time>2020-08-18T07:08:42.000Z</time>
      </trkpt>
      <trkpt lat="42.5343067757785320281982421875" lon="-0.14977077953517436981201171875">
        <ele>1032.4000244140625</ele>
        <time>2020-08-18T07:08:44.000Z</time>
      </trkpt>
      <trkpt lat="42.53430384211242198944091796875" lon="-0.14981889165937900543212890625">
        <ele>1033</ele>
        <time>2020-08-18T07:08:46.000Z</time>
      </trkpt>
      <trkpt lat="42.53429579548537731170654296875" lon="-0.14986448921263217926025390625">
        <ele>1033.4000244140625</ele>
        <time>2020-08-18T07:08:48.000Z</time>
      </trkpt>
      <trkpt lat="42.5342916883528232574462890625" lon="-0.149884521961212158203125">
        <ele>1033.5999755859375</ele>
        <time>2020-08-18T07:08:49.000Z</time>
      </trkpt>
      <trkpt lat="42.534291855990886688232421875" lon="-0.14990271069109439849853515625">
        <ele>1033.800048828125</ele>
        <time>2020-08-18T07:08:50.000Z</time>
      </trkpt>
      <trkpt lat="42.5342920236289501190185546875" lon="-0.1499400101602077484130859375">
        <ele>1033.800048828125</ele>
        <time>2020-08-18T07:08:52.000Z</time>
      </trkpt>
      <trkpt lat="42.53428741358220577239990234375" lon="-0.15001796185970306396484375">
        <ele>1034.4000244140625</ele>
        <time>2020-08-18T07:08:56.000Z</time>
      </trkpt>
      <trkpt lat="42.5342868268489837646484375" lon="-0.15003631822764873504638671875">
        <ele>1034.5999755859375</ele>
        <time>2020-08-18T07:08:57.000Z</time>
      </trkpt>
      <trkpt lat="42.534293867647647857666015625" lon="-0.15009365044534206390380859375">
        <ele>1035.199951171875</ele>
        <time>2020-08-18T07:09:02.000Z</time>
      </trkpt>
      <trkpt lat="42.53427517600357532501220703125" lon="-0.15011795796453952789306640625">
        <ele>1036.199951171875</ele>
        <time>2020-08-18T07:11:26.000Z</time>
      </trkpt>
      <trkpt lat="42.534269057214260101318359375" lon="-0.150171183049678802490234375">
        <ele>1036.199951171875</ele>
        <time>2020-08-18T07:11:31.000Z</time>
      </trkpt>
      <trkpt lat="42.53427517600357532501220703125" lon="-0.15022893436253070831298828125">
        <ele>1036.5999755859375</ele>
        <time>2020-08-18T07:11:34.000Z</time>
      </trkpt>
      <trkpt lat="42.53428213298320770263671875" lon="-0.15029498375952243804931640625">
        <ele>1037</ele>
        <time>2020-08-18T07:11:37.000Z</time>
      </trkpt>
      <trkpt lat="42.5342648662626743316650390625" lon="-0.15047368593513965606689453125">
        <ele>1038.199951171875</ele>
        <time>2020-08-18T07:11:45.000Z</time>
      </trkpt>
      <trkpt lat="42.53426947630941867828369140625" lon="-0.15051861293613910675048828125">
        <ele>1038.199951171875</ele>
        <time>2020-08-18T07:11:47.000Z</time>
      </trkpt>
      <trkpt lat="42.53426880575716495513916015625" lon="-0.150598324835300445556640625">
        <ele>1038.800048828125</ele>
        <time>2020-08-18T07:11:51.000Z</time>
      </trkpt>
      <trkpt lat="42.53425958566367626190185546875" lon="-0.15065758489072322845458984375">
        <ele>1039.4000244140625</ele>
        <time>2020-08-18T07:11:54.000Z</time>
      </trkpt>
      <trkpt lat="42.53427785821259021759033203125" lon="-0.1507188566029071807861328125">
        <ele>1040</ele>
        <time>2020-08-18T07:11:57.000Z</time>
      </trkpt>
      <trkpt lat="42.53427836112678050994873046875" lon="-0.150808207690715789794921875">
        <ele>1040.4000244140625</ele>
        <time>2020-08-18T07:12:01.000Z</time>
      </trkpt>
      <trkpt lat="42.53425707109272480010986328125" lon="-0.15089370310306549072265625">
        <ele>1041</ele>
        <time>2020-08-18T07:12:05.000Z</time>
      </trkpt>
      <trkpt lat="42.534251622855663299560546875" lon="-0.151004008948802947998046875">
        <ele>1041.5999755859375</ele>
        <time>2020-08-18T07:12:10.000Z</time>
      </trkpt>
      <trkpt lat="42.53425539471209049224853515625" lon="-0.151075087487697601318359375">
        <ele>1041.800048828125</ele>
        <time>2020-08-18T07:12:13.000Z</time>
      </trkpt>
      <trkpt lat="42.53423024900257587432861328125" lon="-0.151218585669994354248046875">
        <ele>1042.5999755859375</ele>
        <time>2020-08-18T07:12:20.000Z</time>
      </trkpt>
      <trkpt lat="42.5342239625751972198486328125" lon="-0.15123560093343257904052734375">
        <ele>1042.800048828125</ele>
        <time>2020-08-18T07:12:21.000Z</time>
      </trkpt>
      <trkpt lat="42.5342108868062496185302734375" lon="-0.15136032365262508392333984375">
        <ele>1043.800048828125</ele>
        <time>2020-08-18T07:12:27.000Z</time>
      </trkpt>
      <trkpt lat="42.53419772721827030181884765625" lon="-0.151515640318393707275390625">
        <ele>1044.800048828125</ele>
        <time>2020-08-18T07:12:34.000Z</time>
      </trkpt>
      <trkpt lat="42.5341983139514923095703125" lon="-0.1515399478375911712646484375">
        <ele>1044.800048828125</ele>
        <time>2020-08-18T07:12:35.000Z</time>
      </trkpt>
      <trkpt lat="42.5342112220823764801025390625" lon="-0.15167715959250926971435546875">
        <ele>1045.5999755859375</ele>
        <time>2020-08-18T07:12:41.000Z</time>
      </trkpt>
      <trkpt lat="42.5342112220823764801025390625" lon="-0.15172116458415985107421875">
        <ele>1045.800048828125</ele>
        <time>2020-08-18T07:12:43.000Z</time>
      </trkpt>
      <trkpt lat="42.53423259593546390533447265625" lon="-0.15180489979684352874755859375">
        <ele>1046.4000244140625</ele>
        <time>2020-08-18T07:12:47.000Z</time>
      </trkpt>
      <trkpt lat="42.53423695452511310577392578125" lon="-0.15196599997580051422119140625">
        <ele>1046.800048828125</ele>
        <time>2020-08-18T07:12:54.000Z</time>
      </trkpt>
      <trkpt lat="42.534242235124111175537109375" lon="-0.15201142989099025726318359375">
        <ele>1047.199951171875</ele>
        <time>2020-08-18T07:12:56.000Z</time>
      </trkpt>
      <trkpt lat="42.5342305004596710205078125" lon="-0.15216867439448833465576171875">
        <ele>1047.800048828125</ele>
        <time>2020-08-18T07:13:03.000Z</time>
      </trkpt>
      <trkpt lat="42.53420258872210979461669921875" lon="-0.15230647288262844085693359375">
        <ele>1048.5999755859375</ele>
        <time>2020-08-18T07:13:09.000Z</time>
      </trkpt>
      <trkpt lat="42.534185908734798431396484375" lon="-0.15234955586493015289306640625">
        <ele>1049</ele>
        <time>2020-08-18T07:13:11.000Z</time>
      </trkpt>
      <trkpt lat="42.5341404788196086883544921875" lon="-0.15243220143020153045654296875">
        <ele>1049.5999755859375</ele>
        <time>2020-08-18T07:13:15.000Z</time>
      </trkpt>
      <trkpt lat="42.5341099686920642852783203125" lon="-0.15250009484589099884033203125">
        <ele>1050</ele>
        <time>2020-08-18T07:13:18.000Z</time>
      </trkpt>
      <trkpt lat="42.53405758179724216461181640625" lon="-0.15257251448929309844970703125">
        <ele>1050.800048828125</ele>
        <time>2020-08-18T07:13:22.000Z</time>
      </trkpt>
      <trkpt lat="42.53404299728572368621826171875" lon="-0.15258894301950931549072265625">
        <ele>1051</ele>
        <time>2020-08-18T07:13:23.000Z</time>
      </trkpt>
      <trkpt lat="42.53396722488105297088623046875" lon="-0.15266706235706806182861328125">
        <ele>1051.800048828125</ele>
        <time>2020-08-18T07:13:28.000Z</time>
      </trkpt>
      <trkpt lat="42.53395314328372478485107421875" lon="-0.1526834070682525634765625">
        <ele>1052</ele>
        <time>2020-08-18T07:13:29.000Z</time>
      </trkpt>
      <trkpt lat="42.533855326473712921142578125" lon="-0.1527546532452106475830078125">
        <ele>1052.800048828125</ele>
        <time>2020-08-18T07:13:35.000Z</time>
      </trkpt>
      <trkpt lat="42.5338226370513439178466796875" lon="-0.15277820639312267303466796875">
        <ele>1053.199951171875</ele>
        <time>2020-08-18T07:13:37.000Z</time>
      </trkpt>
      <trkpt lat="42.53376714885234832763671875" lon="-0.15281089581549167633056640625">
        <ele>1053.800048828125</ele>
        <time>2020-08-18T07:13:40.000Z</time>
      </trkpt>
      <trkpt lat="42.53373001702129840850830078125" lon="-0.1528324373066425323486328125">
        <ele>1054.199951171875</ele>
        <time>2020-08-18T07:13:42.000Z</time>
      </trkpt>
      <trkpt lat="42.5336291827261447906494140625" lon="-0.15292673371732234954833984375">
        <ele>1055.199951171875</ele>
        <time>2020-08-18T07:13:48.000Z</time>
      </trkpt>
      <trkpt lat="42.533541508018970489501953125" lon="-0.1529972255229949951171875">
        <ele>1056.199951171875</ele>
        <time>2020-08-18T07:13:53.000Z</time>
      </trkpt>
      <trkpt lat="42.53352432511746883392333984375" lon="-0.15300619415938854217529296875">
        <ele>1056.4000244140625</ele>
        <time>2020-08-18T07:13:54.000Z</time>
      </trkpt>
      <trkpt lat="42.5334716029465198516845703125" lon="-0.15302128158509731292724609375">
        <ele>1056.800048828125</ele>
        <time>2020-08-18T07:13:58.000Z</time>
      </trkpt>
      <trkpt lat="42.5334565155208110809326171875" lon="-0.15304617583751678466796875">
        <ele>1057</ele>
        <time>2020-08-18T07:14:00.000Z</time>
      </trkpt>
      <trkpt lat="42.533438242971897125244140625" lon="-0.1530775241553783416748046875">
        <ele>1057.199951171875</ele>
        <time>2020-08-18T07:14:03.000Z</time>
      </trkpt>
      <trkpt lat="42.5334028713405132293701171875" lon="-0.15308481641113758087158203125">
        <ele>1057.4000244140625</ele>
        <time>2020-08-18T07:14:06.000Z</time>
      </trkpt>
      <trkpt lat="42.5333921425044536590576171875" lon="-0.15308163128793239593505859375">
        <ele>1057.4000244140625</ele>
        <time>2020-08-18T07:14:11.000Z</time>
      </trkpt>
      <trkpt lat="42.53335065208375453948974609375" lon="-0.1531076990067958831787109375">
        <ele>1057.5999755859375</ele>
        <time>2020-08-18T07:14:20.000Z</time>
      </trkpt>
      <trkpt lat="42.53327622078359127044677734375" lon="-0.15320979058742523193359375">
        <ele>1057.800048828125</ele>
        <time>2020-08-18T07:14:26.000Z</time>
      </trkpt>
      <trkpt lat="42.53323741257190704345703125" lon="-0.15332889743149280548095703125">
        <ele>1058</ele>
        <time>2020-08-18T07:14:31.000Z</time>
      </trkpt>
      <trkpt lat="42.53325208090245723724365234375" lon="-0.1533759199082851409912109375">
        <ele>1058.4000244140625</ele>
        <time>2020-08-18T07:14:33.000Z</time>
      </trkpt>
      <trkpt lat="42.53326331265270709991455078125" lon="-0.1533903367817401885986328125">
        <ele>1058.5999755859375</ele>
        <time>2020-08-18T07:14:34.000Z</time>
      </trkpt>
      <trkpt lat="42.53329248167574405670166015625" lon="-0.1534129679203033447265625">
        <ele>1058.800048828125</ele>
        <time>2020-08-18T07:14:36.000Z</time>
      </trkpt>
      <trkpt lat="42.5333277694880962371826171875" lon="-0.15344305895268917083740234375">
        <ele>1059.199951171875</ele>
        <time>2020-08-18T07:14:38.000Z</time>
      </trkpt>
      <trkpt lat="42.53337864764034748077392578125" lon="-0.153485052287578582763671875">
        <ele>1059.4000244140625</ele>
        <time>2020-08-18T07:14:41.000Z</time>
      </trkpt>
      <trkpt lat="42.53339474089443683624267578125" lon="-0.15349988825619220733642578125">
        <ele>1059.5999755859375</ele>
        <time>2020-08-18T07:14:42.000Z</time>
      </trkpt>
      <trkpt lat="42.53350404091179370880126953125" lon="-0.15360734425485134124755859375">
        <ele>1060</ele>
        <time>2020-08-18T07:14:48.000Z</time>
      </trkpt>
      <trkpt lat="42.53358785994350910186767578125" lon="-0.15368730761110782623291015625">
        <ele>1060.5999755859375</ele>
        <time>2020-08-18T07:14:53.000Z</time>
      </trkpt>
      <trkpt lat="42.5336003489792346954345703125" lon="-0.1537125371396541595458984375">
        <ele>1060.5999755859375</ele>
        <time>2020-08-18T07:14:54.000Z</time>
      </trkpt>
      <trkpt lat="42.53363706171512603759765625" lon="-0.15382259152829647064208984375">
        <ele>1060.5999755859375</ele>
        <time>2020-08-18T07:14:58.000Z</time>
      </trkpt>
      <trkpt lat="42.53364401869475841522216796875" lon="-0.15385192818939685821533203125">
        <ele>1060.5999755859375</ele>
        <time>2020-08-18T07:14:59.000Z</time>
      </trkpt>
      <trkpt lat="42.5336466170847415924072265625" lon="-0.1540541835129261016845703125">
        <ele>1060.4000244140625</ele>
        <time>2020-08-18T07:15:05.000Z</time>
      </trkpt>
      <trkpt lat="42.53363915719091892242431640625" lon="-0.15428376384079456329345703125">
        <ele>1060.4000244140625</ele>
        <time>2020-08-18T07:15:12.000Z</time>
      </trkpt>
      <trkpt lat="42.5336543284356594085693359375" lon="-0.15447135083377361297607421875">
        <ele>1060.5999755859375</ele>
        <time>2020-08-18T07:15:18.000Z</time>
      </trkpt>
      <trkpt lat="42.5336818210780620574951171875" lon="-0.15468995086848735809326171875">
        <ele>1060.5999755859375</ele>
        <time>2020-08-18T07:15:25.000Z</time>
      </trkpt>
      <trkpt lat="42.5337230600416660308837890625" lon="-0.15485893003642559051513671875">
        <ele>1060.5999755859375</ele>
        <time>2020-08-18T07:15:31.000Z</time>
      </trkpt>
      <trkpt lat="42.5337798893451690673828125" lon="-0.15502455644309520721435546875">
        <ele>1060.800048828125</ele>
        <time>2020-08-18T07:15:37.000Z</time>
      </trkpt>
      <trkpt lat="42.5338313542306423187255859375" lon="-0.1552152447402477264404296875">
        <ele>1061.199951171875</ele>
        <time>2020-08-18T07:15:43.000Z</time>
      </trkpt>
      <trkpt lat="42.53384619019925594329833984375" lon="-0.15527718700468540191650390625">
        <ele>1061.4000244140625</ele>
        <time>2020-08-18T07:15:45.000Z</time>
      </trkpt>
      <trkpt lat="42.5338544882833957672119140625" lon="-0.1554462499916553497314453125">
        <ele>1061.800048828125</ele>
        <time>2020-08-18T07:15:50.000Z</time>
      </trkpt>
      <trkpt lat="42.53384225070476531982421875" lon="-0.15562319196760654449462890625">
        <ele>1062</ele>
        <time>2020-08-18T07:15:55.000Z</time>
      </trkpt>
      <trkpt lat="42.5338464416563510894775390625" lon="-0.1558509282767772674560546875">
        <ele>1061.800048828125</ele>
        <time>2020-08-18T07:16:01.000Z</time>
      </trkpt>
      <trkpt lat="42.533862702548503875732421875" lon="-0.15603390522301197052001953125">
        <ele>1062</ele>
        <time>2020-08-18T07:16:06.000Z</time>
      </trkpt>
      <trkpt lat="42.5339074619114398956298828125" lon="-0.15619081445038318634033203125">
        <ele>1061.800048828125</ele>
        <time>2020-08-18T07:16:11.000Z</time>
      </trkpt>
      <trkpt lat="42.53395431675016880035400390625" lon="-0.1563756354153156280517578125">
        <ele>1061.4000244140625</ele>
        <time>2020-08-18T07:16:16.000Z</time>
      </trkpt>
      <trkpt lat="42.53401835449039936065673828125" lon="-0.15659247525036334991455078125">
        <ele>1061.5999755859375</ele>
        <time>2020-08-18T07:16:22.000Z</time>
      </trkpt>
      <trkpt lat="42.53406026400625705718994140625" lon="-0.15679833479225635528564453125">
        <ele>1061.800048828125</ele>
        <time>2020-08-18T07:16:28.000Z</time>
      </trkpt>
      <trkpt lat="42.53406093455851078033447265625" lon="-0.15703671611845493316650390625">
        <ele>1062</ele>
        <time>2020-08-18T07:16:34.000Z</time>
      </trkpt>
      <trkpt lat="42.53401332534849643707275390625" lon="-0.15727057121694087982177734375">
        <ele>1062</ele>
        <time>2020-08-18T07:16:40.000Z</time>
      </trkpt>
      <trkpt lat="42.5339859165251255035400390625" lon="-0.1573680527508258819580078125">
        <ele>1062.4000244140625</ele>
        <time>2020-08-18T07:16:43.000Z</time>
      </trkpt>
      <trkpt lat="42.53396169282495975494384765625" lon="-0.157466791570186614990234375">
        <ele>1062.4000244140625</ele>
        <time>2020-08-18T07:16:46.000Z</time>
      </trkpt>
      <trkpt lat="42.53393017686903476715087890625" lon="-0.15766401775181293487548828125">
        <ele>1063</ele>
        <time>2020-08-18T07:16:52.000Z</time>
      </trkpt>
      <trkpt lat="42.5339354574680328369140625" lon="-0.1577438972890377044677734375">
        <ele>1063.5999755859375</ele>
        <time>2020-08-18T07:16:55.000Z</time>
      </trkpt>
      <trkpt lat="42.53393168561160564422607421875" lon="-0.15779175795614719390869140625">
        <ele>1064.199951171875</ele>
        <time>2020-08-18T07:16:57.000Z</time>
      </trkpt>
      <trkpt lat="42.53393604420125484466552734375" lon="-0.15783634968101978302001953125">
        <ele>1064.5999755859375</ele>
        <time>2020-08-18T07:16:59.000Z</time>
      </trkpt>
      <trkpt lat="42.5339383073151111602783203125" lon="-0.15790357254445552825927734375">
        <ele>1065.5999755859375</ele>
        <time>2020-08-18T07:17:02.000Z</time>
      </trkpt>
      <trkpt lat="42.53394057042896747589111328125" lon="-0.15792402438819408416748046875">
        <ele>1066</ele>
        <time>2020-08-18T07:17:03.000Z</time>
      </trkpt>
      <trkpt lat="42.5339386425912380218505859375" lon="-0.1579718850553035736083984375">
        <ele>1066.5999755859375</ele>
        <time>2020-08-18T07:17:05.000Z</time>
      </trkpt>
      <trkpt lat="42.5339530594646930694580078125" lon="-0.15808763913810253143310546875">
        <ele>1067.800048828125</ele>
        <time>2020-08-18T07:17:10.000Z</time>
      </trkpt>
      <trkpt lat="42.53395180217921733856201171875" lon="-0.158209092915058135986328125">
        <ele>1068.800048828125</ele>
        <time>2020-08-18T07:17:15.000Z</time>
      </trkpt>
      <trkpt lat="42.533953227102756500244140625" lon="-0.158233232796192169189453125">
        <ele>1068.800048828125</ele>
        <time>2020-08-18T07:17:16.000Z</time>
      </trkpt>
      <trkpt lat="42.533945180475711822509765625" lon="-0.1583321392536163330078125">
        <ele>1069.4000244140625</ele>
        <time>2020-08-18T07:17:20.000Z</time>
      </trkpt>
      <trkpt lat="42.53393386490643024444580078125" lon="-0.1584094204008579254150390625">
        <ele>1069.800048828125</ele>
        <time>2020-08-18T07:17:23.000Z</time>
      </trkpt>
      <trkpt lat="42.533894218504428863525390625" lon="-0.15858686529099941253662109375">
        <ele>1070.5999755859375</ele>
        <time>2020-08-18T07:17:30.000Z</time>
      </trkpt>
      <trkpt lat="42.53387787379324436187744140625" lon="-0.15866666100919246673583984375">
        <ele>1070.800048828125</ele>
        <time>2020-08-18T07:17:33.000Z</time>
      </trkpt>
      <trkpt lat="42.5338564999401569366455078125" lon="-0.158746540546417236328125">
        <ele>1071.199951171875</ele>
        <time>2020-08-18T07:17:36.000Z</time>
      </trkpt>
      <trkpt lat="42.53381132148206233978271484375" lon="-0.15890353359282016754150390625">
        <ele>1071.5999755859375</ele>
        <time>2020-08-18T07:17:42.000Z</time>
      </trkpt>
      <trkpt lat="42.53379405476152896881103515625" lon="-0.15898190438747406005859375">
        <ele>1071.800048828125</ele>
        <time>2020-08-18T07:17:45.000Z</time>
      </trkpt>
      <trkpt lat="42.5337907858192920684814453125" lon="-0.159039236605167388916015625">
        <ele>1072</ele>
        <time>2020-08-18T07:17:47.000Z</time>
      </trkpt>
      <trkpt lat="42.533776871860027313232421875" lon="-0.1591490395367145538330078125">
        <ele>1072.4000244140625</ele>
        <time>2020-08-18T07:17:51.000Z</time>
      </trkpt>
      <trkpt lat="42.53377209417521953582763671875" lon="-0.15920394100248813629150390625">
        <ele>1072.5999755859375</ele>
        <time>2020-08-18T07:17:53.000Z</time>
      </trkpt>
      <trkpt lat="42.53377058543264865875244140625" lon="-0.159229338169097900390625">
        <ele>1072.800048828125</ele>
        <time>2020-08-18T07:17:54.000Z</time>
      </trkpt>
      <trkpt lat="42.53377527929842472076416015625" lon="-0.1593361236155033111572265625">
        <ele>1073.800048828125</ele>
        <time>2020-08-18T07:17:58.000Z</time>
      </trkpt>
      <trkpt lat="42.53377544693648815155029296875" lon="-0.15936076641082763671875">
        <ele>1074</ele>
        <time>2020-08-18T07:17:59.000Z</time>
      </trkpt>
      <trkpt lat="42.5337626226246356964111328125" lon="-0.15952915884554386138916015625">
        <ele>1075.199951171875</ele>
        <time>2020-08-18T07:18:06.000Z</time>
      </trkpt>
      <trkpt lat="42.5337582640349864959716796875" lon="-0.15955044887959957122802734375">
        <ele>1075.4000244140625</ele>
        <time>2020-08-18T07:18:07.000Z</time>
      </trkpt>
      <trkpt lat="42.5337381474673748016357421875" lon="-0.1597310788929462432861328125">
        <ele>1076</ele>
        <time>2020-08-18T07:18:14.000Z</time>
      </trkpt>
      <trkpt lat="42.53373353742063045501708984375" lon="-0.1597874052822589874267578125">
        <ele>1076.199951171875</ele>
        <time>2020-08-18T07:18:16.000Z</time>
      </trkpt>
      <trkpt lat="42.533723898231983184814453125" lon="-0.1599379442632198333740234375">
        <ele>1076.4000244140625</ele>
        <time>2020-08-18T07:18:21.000Z</time>
      </trkpt>
      <trkpt lat="42.53370269201695919036865234375" lon="-0.16015109606087207794189453125">
        <ele>1077</ele>
        <time>2020-08-18T07:18:28.000Z</time>
      </trkpt>
      <trkpt lat="42.53370101563632488250732421875" lon="-0.16036592423915863037109375">
        <ele>1077.199951171875</ele>
        <time>2020-08-18T07:18:35.000Z</time>
      </trkpt>
      <trkpt lat="42.53370353020727634429931640625" lon="-0.160394422709941864013671875">
        <ele>1077.199951171875</ele>
        <time>2020-08-18T07:18:36.000Z</time>
      </trkpt>
      <trkpt lat="42.53371744416654109954833984375" lon="-0.160530544817447662353515625">
        <ele>1077.4000244140625</ele>
        <time>2020-08-18T07:18:41.000Z</time>
      </trkpt>
      <trkpt lat="42.53372197039425373077392578125" lon="-0.1607342250645160675048828125">
        <ele>1077.4000244140625</ele>
        <time>2020-08-18T07:18:48.000Z</time>
      </trkpt>
      <trkpt lat="42.5337378121912479400634765625" lon="-0.1608830876648426055908203125">
        <ele>1077.5999755859375</ele>
        <time>2020-08-18T07:18:53.000Z</time>
      </trkpt>
      <trkpt lat="42.53376455046236515045166015625" lon="-0.161090791225433349609375">
        <ele>1077.800048828125</ele>
        <time>2020-08-18T07:18:59.000Z</time>
      </trkpt>
      <trkpt lat="42.53377477638423442840576171875" lon="-0.16114971600472927093505859375">
        <ele>1077.800048828125</ele>
        <time>2020-08-18T07:19:01.000Z</time>
      </trkpt>
      <trkpt lat="42.533814422786235809326171875" lon="-0.161224901676177978515625">
        <ele>1078</ele>
        <time>2020-08-18T07:19:04.000Z</time>
      </trkpt>
      <trkpt lat="42.5338259898126125335693359375" lon="-0.1612518914043903350830078125">
        <ele>1078.199951171875</ele>
        <time>2020-08-18T07:19:05.000Z</time>
      </trkpt>
      <trkpt lat="42.533886171877384185791015625" lon="-0.1613752730190753936767578125">
        <ele>1078.5999755859375</ele>
        <time>2020-08-18T07:19:10.000Z</time>
      </trkpt>
      <trkpt lat="42.53393478691577911376953125" lon="-0.16158926300704479217529296875">
        <ele>1079.199951171875</ele>
        <time>2020-08-18T07:19:17.000Z</time>
      </trkpt>
      <trkpt lat="42.53397074528038501739501953125" lon="-0.1618565618991851806640625">
        <ele>1079</ele>
        <time>2020-08-18T07:19:24.000Z</time>
      </trkpt>
      <trkpt lat="42.533976696431636810302734375" lon="-0.16212805174291133880615234375">
        <ele>1078.5999755859375</ele>
        <time>2020-08-18T07:19:30.000Z</time>
      </trkpt>
      <trkpt lat="42.53397376276552677154541015625" lon="-0.16236961819231510162353515625">
        <ele>1078.4000244140625</ele>
        <time>2020-08-18T07:19:35.000Z</time>
      </trkpt>
      <trkpt lat="42.53398616798222064971923828125" lon="-0.162603221833705902099609375">
        <ele>1078.199951171875</ele>
        <time>2020-08-18T07:19:40.000Z</time>
      </trkpt>
      <trkpt lat="42.5339822284877300262451171875" lon="-0.16276189126074314117431640625">
        <ele>1078</ele>
        <time>2020-08-18T07:19:43.000Z</time>
      </trkpt>
      <trkpt lat="42.53398516215384006500244140625" lon="-0.16282207332551479339599609375">
        <ele>1077.800048828125</ele>
        <time>2020-08-18T07:19:44.000Z</time>
      </trkpt>
      <trkpt lat="42.53397694788873195648193359375" lon="-0.16300790011882781982421875">
        <ele>1077.199951171875</ele>
        <time>2020-08-18T07:19:47.000Z</time>
      </trkpt>
      <trkpt lat="42.53396806307137012481689453125" lon="-0.1630680821835994720458984375">
        <ele>1077.199951171875</ele>
        <time>2020-08-18T07:19:48.000Z</time>
      </trkpt>
      <trkpt lat="42.53394928760826587677001953125" lon="-0.16324460506439208984375">
        <ele>1077.199951171875</ele>
        <time>2020-08-18T07:19:51.000Z</time>
      </trkpt>
      <trkpt lat="42.53394224680960178375244140625" lon="-0.16337879933416843414306640625">
        <ele>1077</ele>
        <time>2020-08-18T07:19:53.000Z</time>
      </trkpt>
      <trkpt lat="42.53395549021661281585693359375" lon="-0.1635616086423397064208984375">
        <ele>1076.5999755859375</ele>
        <time>2020-08-18T07:19:56.000Z</time>
      </trkpt>
      <trkpt lat="42.53399337641894817352294921875" lon="-0.163961090147495269775390625">
        <ele>1076.4000244140625</ele>
        <time>2020-08-18T07:20:04.000Z</time>
      </trkpt>
      <trkpt lat="42.53400242887437343597412109375" lon="-0.1641919277608394622802734375">
        <ele>1076.5999755859375</ele>
        <time>2020-08-18T07:20:10.000Z</time>
      </trkpt>
      <trkpt lat="42.53400846384465694427490234375" lon="-0.1643900759518146514892578125">
        <ele>1077</ele>
        <time>2020-08-18T07:20:16.000Z</time>
      </trkpt>
      <trkpt lat="42.53400108776986598968505859375" lon="-0.1645962707698345184326171875">
        <ele>1077.5999755859375</ele>
        <time>2020-08-18T07:20:22.000Z</time>
      </trkpt>
      <trkpt lat="42.5340026803314685821533203125" lon="-0.16472878865897655487060546875">
        <ele>1078.4000244140625</ele>
        <time>2020-08-18T07:20:26.000Z</time>
      </trkpt>
      <trkpt lat="42.5340033508837223052978515625" lon="-0.1647937484085559844970703125">
        <ele>1078.5999755859375</ele>
        <time>2020-08-18T07:20:28.000Z</time>
      </trkpt>
      <trkpt lat="42.534037716686725616455078125" lon="-0.1649855263531208038330078125">
        <ele>1079</ele>
        <time>2020-08-18T07:20:34.000Z</time>
      </trkpt>
      <trkpt lat="42.534047774970531463623046875" lon="-0.1650683395564556121826171875">
        <ele>1079.4000244140625</ele>
        <time>2020-08-18T07:20:37.000Z</time>
      </trkpt>
      <trkpt lat="42.53405682742595672607421875" lon="-0.16515157185494899749755859375">
        <ele>1080</ele>
        <time>2020-08-18T07:20:40.000Z</time>
      </trkpt>
      <trkpt lat="42.5340761058032512664794921875" lon="-0.165252573788166046142578125">
        <ele>1080.800048828125</ele>
        <time>2020-08-18T07:20:44.000Z</time>
      </trkpt>
      <trkpt lat="42.5340794585645198822021484375" lon="-0.1652805693447589874267578125">
        <ele>1080.800048828125</ele>
        <time>2020-08-18T07:20:45.000Z</time>
      </trkpt>
      <trkpt lat="42.534100748598575592041015625" lon="-0.16540956683456897735595703125">
        <ele>1081</ele>
        <time>2020-08-18T07:20:49.000Z</time>
      </trkpt>
      <trkpt lat="42.53410720266401767730712890625" lon="-0.1654891110956668853759765625">
        <ele>1081</ele>
        <time>2020-08-18T07:20:51.000Z</time>
      </trkpt>
      <trkpt lat="42.5340972281992435455322265625" lon="-0.165730006992816925048828125">
        <ele>1081.199951171875</ele>
        <time>2020-08-18T07:20:57.000Z</time>
      </trkpt>
      <trkpt lat="42.53403796814382076263427734375" lon="-0.16596905887126922607421875">
        <ele>1081</ele>
        <time>2020-08-18T07:21:04.000Z</time>
      </trkpt>
      <trkpt lat="42.53399253822863101959228515625" lon="-0.1661442406475543975830078125">
        <ele>1081</ele>
        <time>2020-08-18T07:21:09.000Z</time>
      </trkpt>
      <trkpt lat="42.53390855155885219573974609375" lon="-0.166358649730682373046875">
        <ele>1081</ele>
        <time>2020-08-18T07:21:15.000Z</time>
      </trkpt>
      <trkpt lat="42.53384761512279510498046875" lon="-0.1665423810482025146484375">
        <ele>1081.199951171875</ele>
        <time>2020-08-18T07:21:21.000Z</time>
      </trkpt>
      <trkpt lat="42.533844597637653350830078125" lon="-0.1667542755603790283203125">
        <ele>1081.199951171875</ele>
        <time>2020-08-18T07:21:27.000Z</time>
      </trkpt>
      <trkpt lat="42.5338756106793880462646484375" lon="-0.1669448800384998321533203125">
        <ele>1081.199951171875</ele>
        <time>2020-08-18T07:21:33.000Z</time>
      </trkpt>
      <trkpt lat="42.5338764488697052001953125" lon="-0.16720865853130817413330078125">
        <ele>1082.5999755859375</ele>
        <time>2020-08-18T07:21:41.000Z</time>
      </trkpt>
      <trkpt lat="42.5338471122086048126220703125" lon="-0.16746631823480129241943359375">
        <ele>1083.5999755859375</ele>
        <time>2020-08-18T07:21:49.000Z</time>
      </trkpt>
      <trkpt lat="42.53383688628673553466796875" lon="-0.16753488220274448394775390625">
        <ele>1083.5999755859375</ele>
        <time>2020-08-18T07:21:51.000Z</time>
      </trkpt>
      <trkpt lat="42.53381568007171154022216796875" lon="-0.16772414557635784149169921875">
        <ele>1084.4000244140625</ele>
        <time>2020-08-18T07:21:57.000Z</time>
      </trkpt>
      <trkpt lat="42.53377997316420078277587890625" lon="-0.1679570786654949188232421875">
        <ele>1084.800048828125</ele>
        <time>2020-08-18T07:22:04.000Z</time>
      </trkpt>
      <trkpt lat="42.533753402531147003173828125" lon="-0.16805556602776050567626953125">
        <ele>1085</ele>
        <time>2020-08-18T07:22:07.000Z</time>
      </trkpt>
      <trkpt lat="42.53372968174517154693603515625" lon="-0.16822345554828643798828125">
        <ele>1085.4000244140625</ele>
        <time>2020-08-18T07:22:12.000Z</time>
      </trkpt>
      <trkpt lat="42.5337101519107818603515625" lon="-0.1683694683015346527099609375">
        <ele>1085.4000244140625</ele>
        <time>2020-08-18T07:22:16.000Z</time>
      </trkpt>
      <trkpt lat="42.53370000980794429779052734375" lon="-0.16855579800903797149658203125">
        <ele>1085.5999755859375</ele>
        <time>2020-08-18T07:22:21.000Z</time>
      </trkpt>
      <trkpt lat="42.53370436839759349822998046875" lon="-0.1688100211322307586669921875">
        <ele>1086.199951171875</ele>
        <time>2020-08-18T07:22:28.000Z</time>
      </trkpt>
      <trkpt lat="42.53369715996086597442626953125" lon="-0.168844051659107208251953125">
        <ele>1086.199951171875</ele>
        <time>2020-08-18T07:22:29.000Z</time>
      </trkpt>
      <trkpt lat="42.5336553342640399932861328125" lon="-0.1690802536904811859130859375">
        <ele>1086.5999755859375</ele>
        <time>2020-08-18T07:22:36.000Z</time>
      </trkpt>
      <trkpt lat="42.53360294736921787261962890625" lon="-0.16924043186008930206298828125">
        <ele>1087.5999755859375</ele>
        <time>2020-08-18T07:22:41.000Z</time>
      </trkpt>
      <trkpt lat="42.533579729497432708740234375" lon="-0.16930170357227325439453125">
        <ele>1087.800048828125</ele>
        <time>2020-08-18T07:22:43.000Z</time>
      </trkpt>
      <trkpt lat="42.5335047952830791473388671875" lon="-0.16951804049313068389892578125">
        <ele>1088.4000244140625</ele>
        <time>2020-08-18T07:22:50.000Z</time>
      </trkpt>
      <trkpt lat="42.53347101621329784393310546875" lon="-0.16968484036624431610107421875">
        <ele>1088.5999755859375</ele>
        <time>2020-08-18T07:22:55.000Z</time>
      </trkpt>
      <trkpt lat="42.53346296958625316619873046875" lon="-0.16971970908343791961669921875">
        <ele>1088.800048828125</ele>
        <time>2020-08-18T07:22:56.000Z</time>
      </trkpt>
      <trkpt lat="42.53341971896588802337646484375" lon="-0.16989170573651790618896484375">
        <ele>1089</ele>
        <time>2020-08-18T07:23:01.000Z</time>
      </trkpt>
      <trkpt lat="42.533362470567226409912109375" lon="-0.17007459886372089385986328125">
        <ele>1089.800048828125</ele>
        <time>2020-08-18T07:23:07.000Z</time>
      </trkpt>
      <trkpt lat="42.53335769288241863250732421875" lon="-0.1701016724109649658203125">
        <ele>1089.800048828125</ele>
        <time>2020-08-18T07:23:08.000Z</time>
      </trkpt>
      <trkpt lat="42.53331377170979976654052734375" lon="-0.1702701486647129058837890625">
        <ele>1090.5999755859375</ele>
        <time>2020-08-18T07:23:14.000Z</time>
      </trkpt>
      <trkpt lat="42.53328845836222171783447265625" lon="-0.17035522498190402984619140625">
        <ele>1090.800048828125</ele>
        <time>2020-08-18T07:23:17.000Z</time>
      </trkpt>
      <trkpt lat="42.53324839286506175994873046875" lon="-0.170498974621295928955078125">
        <ele>1091.5999755859375</ele>
        <time>2020-08-18T07:23:22.000Z</time>
      </trkpt>
      <trkpt lat="42.5332228280603885650634765625" lon="-0.1705873198807239532470703125">
        <ele>1092</ele>
        <time>2020-08-18T07:23:25.000Z</time>
      </trkpt>
      <trkpt lat="42.53317178227007389068603515625" lon="-0.17073190771043300628662109375">
        <ele>1092.5999755859375</ele>
        <time>2020-08-18T07:23:30.000Z</time>
      </trkpt>
      <trkpt lat="42.533129118382930755615234375" lon="-0.170826204121112823486328125">
        <ele>1093.199951171875</ele>
        <time>2020-08-18T07:23:34.000Z</time>
      </trkpt>
      <trkpt lat="42.53307807259261608123779296875" lon="-0.17087724991142749786376953125">
        <ele>1093.800048828125</ele>
        <time>2020-08-18T07:23:37.000Z</time>
      </trkpt>
      <trkpt lat="42.532923258841037750244140625" lon="-0.17103709280490875244140625">
        <ele>1094.199951171875</ele>
        <time>2020-08-18T07:23:44.000Z</time>
      </trkpt>
      <trkpt lat="42.532891742885112762451171875" lon="-0.171095766127109527587890625">
        <ele>1094.4000244140625</ele>
        <time>2020-08-18T07:23:46.000Z</time>
      </trkpt>
      <trkpt lat="42.5328697822988033294677734375" lon="-0.17119123600423336029052734375">
        <ele>1094.5999755859375</ele>
        <time>2020-08-18T07:23:49.000Z</time>
      </trkpt>
      <trkpt lat="42.5328714586794376373291015625" lon="-0.17133557237684726715087890625">
        <ele>1095.5999755859375</ele>
        <time>2020-08-18T07:23:54.000Z</time>
      </trkpt>
      <trkpt lat="42.53287372179329395294189453125" lon="-0.17136608250439167022705078125">
        <ele>1095.800048828125</ele>
        <time>2020-08-18T07:23:55.000Z</time>
      </trkpt>
      <trkpt lat="42.53287573345005512237548828125" lon="-0.17153355292975902557373046875">
        <ele>1096.199951171875</ele>
        <time>2020-08-18T07:24:01.000Z</time>
      </trkpt>
      <trkpt lat="42.53287732601165771484375" lon="-0.1717071421444416046142578125">
        <ele>1096.199951171875</ele>
        <time>2020-08-18T07:24:07.000Z</time>
      </trkpt>
      <trkpt lat="42.5328858755528926849365234375" lon="-0.17189699225127696990966796875">
        <ele>1095.5999755859375</ele>
        <time>2020-08-18T07:24:11.000Z</time>
      </trkpt>
      <trkpt lat="42.53289249725639820098876953125" lon="-0.17207804135978221893310546875">
        <ele>1094.800048828125</ele>
        <time>2020-08-18T07:24:14.000Z</time>
      </trkpt>
      <trkpt lat="42.53289283253252506256103515625" lon="-0.1722098886966705322265625">
        <ele>1094.4000244140625</ele>
        <time>2020-08-18T07:24:16.000Z</time>
      </trkpt>
      <trkpt lat="42.53288067877292633056640625" lon="-0.1724071986973285675048828125">
        <ele>1094.199951171875</ele>
        <time>2020-08-18T07:24:19.000Z</time>
      </trkpt>
      <trkpt lat="42.53286450169980525970458984375" lon="-0.1725543849170207977294921875">
        <ele>1094.4000244140625</ele>
        <time>2020-08-18T07:24:22.000Z</time>
      </trkpt>
      <trkpt lat="42.53283239901065826416015625" lon="-0.1727153174579143524169921875">
        <ele>1095</ele>
        <time>2020-08-18T07:24:28.000Z</time>
      </trkpt>
      <trkpt lat="42.5328047387301921844482421875" lon="-0.172825120389461517333984375">
        <ele>1095.4000244140625</ele>
        <time>2020-08-18T07:24:33.000Z</time>
      </trkpt>
      <trkpt lat="42.532797865569591522216796875" lon="-0.1728482544422149658203125">
        <ele>1095.800048828125</ele>
        <time>2020-08-18T07:24:34.000Z</time>
      </trkpt>
      <trkpt lat="42.53274564631283283233642578125" lon="-0.173026956617832183837890625">
        <ele>1096.4000244140625</ele>
        <time>2020-08-18T07:24:41.000Z</time>
      </trkpt>
      <trkpt lat="42.53273927606642246246337890625" lon="-0.17304900102317333221435546875">
        <ele>1096.5999755859375</ele>
        <time>2020-08-18T07:24:42.000Z</time>
      </trkpt>
      <trkpt lat="42.53270256333053112030029296875" lon="-0.1732111908495426177978515625">
        <ele>1097.5999755859375</ele>
        <time>2020-08-18T07:24:49.000Z</time>
      </trkpt>
      <trkpt lat="42.53266283310949802398681640625" lon="-0.17343389801681041717529296875">
        <ele>1098.199951171875</ele>
        <time>2020-08-18T07:24:58.000Z</time>
      </trkpt>
      <trkpt lat="42.5326230190694332122802734375" lon="-0.17358426935970783233642578125">
        <ele>1098.800048828125</ele>
        <time>2020-08-18T07:25:04.000Z</time>
      </trkpt>
      <trkpt lat="42.53261472098529338836669921875" lon="-0.17360840924084186553955078125">
        <ele>1099</ele>
        <time>2020-08-18T07:25:05.000Z</time>
      </trkpt>
      <trkpt lat="42.53256560303270816802978515625" lon="-0.1737814955413341522216796875">
        <ele>1099.4000244140625</ele>
        <time>2020-08-18T07:25:12.000Z</time>
      </trkpt>
      <trkpt lat="42.5325274653732776641845703125" lon="-0.17395324073731899261474609375">
        <ele>1099.800048828125</ele>
        <time>2020-08-18T07:25:19.000Z</time>
      </trkpt>
      <trkpt lat="42.5325200892984867095947265625" lon="-0.1739779673516750335693359375">
        <ele>1099.800048828125</ele>
        <time>2020-08-18T07:25:20.000Z</time>
      </trkpt>
      <trkpt lat="42.5324657745659351348876953125" lon="-0.17414853908121585845947265625">
        <ele>1100.4000244140625</ele>
        <time>2020-08-18T07:25:27.000Z</time>
      </trkpt>
      <trkpt lat="42.53237181343138217926025390625" lon="-0.17432204447686672210693359375">
        <ele>1100.5999755859375</ele>
        <time>2020-08-18T07:25:35.000Z</time>
      </trkpt>
      <trkpt lat="42.53231096081435680389404296875" lon="-0.17439714632928371429443359375">
        <ele>1100.800048828125</ele>
        <time>2020-08-18T07:25:39.000Z</time>
      </trkpt>
      <trkpt lat="42.532257400453090667724609375" lon="-0.17447174526751041412353515625">
        <ele>1101.199951171875</ele>
        <time>2020-08-18T07:25:43.000Z</time>
      </trkpt>
      <trkpt lat="42.5322344340384006500244140625" lon="-0.174541063606739044189453125">
        <ele>1101.800048828125</ele>
        <time>2020-08-18T07:25:46.000Z</time>
      </trkpt>
      <trkpt lat="42.53222345374524593353271484375" lon="-0.1746372878551483154296875">
        <ele>1102</ele>
        <time>2020-08-18T07:25:50.000Z</time>
      </trkpt>
      <trkpt lat="42.53222043626010417938232421875" lon="-0.1747293211519718170166015625">
        <ele>1102.800048828125</ele>
        <time>2020-08-18T07:25:54.000Z</time>
      </trkpt>
      <trkpt lat="42.5322166644036769866943359375" lon="-0.17482713796198368072509765625">
        <ele>1103.199951171875</ele>
        <time>2020-08-18T07:25:58.000Z</time>
      </trkpt>
      <trkpt lat="42.53220073878765106201171875" lon="-0.17497952096164226531982421875">
        <ele>1103.4000244140625</ele>
        <time>2020-08-18T07:26:05.000Z</time>
      </trkpt>
      <trkpt lat="42.53218464553356170654296875" lon="-0.17501941882073879241943359375">
        <ele>1103.5999755859375</ele>
        <time>2020-08-18T07:26:07.000Z</time>
      </trkpt>
      <trkpt lat="42.53214776515960693359375" lon="-0.1751790940761566162109375">
        <ele>1103.4000244140625</ele>
        <time>2020-08-18T07:26:13.000Z</time>
      </trkpt>
      <trkpt lat="42.532129995524883270263671875" lon="-0.17526064999401569366455078125">
        <ele>1103</ele>
        <time>2020-08-18T07:26:16.000Z</time>
      </trkpt>
      <trkpt lat="42.5321276485919952392578125" lon="-0.1753033138811588287353515625">
        <ele>1102.800048828125</ele>
        <time>2020-08-18T07:26:18.000Z</time>
      </trkpt>
      <trkpt lat="42.5321211107075214385986328125" lon="-0.175398699939250946044921875">
        <ele>1102.800048828125</ele>
        <time>2020-08-18T07:26:22.000Z</time>
      </trkpt>
      <trkpt lat="42.5321180932223796844482421875" lon="-0.17542795278131961822509765625">
        <ele>1102.800048828125</ele>
        <time>2020-08-18T07:26:23.000Z</time>
      </trkpt>
      <trkpt lat="42.53209906630218029022216796875" lon="-0.17555527389049530029296875">
        <ele>1102.4000244140625</ele>
        <time>2020-08-18T07:26:27.000Z</time>
      </trkpt>
      <trkpt lat="42.532096803188323974609375" lon="-0.1755829341709613800048828125">
        <ele>1102.4000244140625</ele>
        <time>2020-08-18T07:26:28.000Z</time>
      </trkpt>
      <trkpt lat="42.53206118009984493255615234375" lon="-0.17574914731085300445556640625">
        <ele>1102.800048828125</ele>
        <time>2020-08-18T07:26:34.000Z</time>
      </trkpt>
      <trkpt lat="42.53203519620001316070556640625" lon="-0.17588493414223194122314453125">
        <ele>1103</ele>
        <time>2020-08-18T07:26:39.000Z</time>
      </trkpt>
      <trkpt lat="42.53200267441570758819580078125" lon="-0.17605592496693134307861328125">
        <ele>1102.800048828125</ele>
        <time>2020-08-18T07:26:45.000Z</time>
      </trkpt>
      <trkpt lat="42.53197065554559230804443359375" lon="-0.17621300183236598968505859375">
        <ele>1102.5999755859375</ele>
        <time>2020-08-18T07:26:50.000Z</time>
      </trkpt>
      <trkpt lat="42.53194148652255535125732421875" lon="-0.1763352937996387481689453125">
        <ele>1102.5999755859375</ele>
        <time>2020-08-18T07:26:54.000Z</time>
      </trkpt>
      <trkpt lat="42.5318790413439273834228515625" lon="-0.17651148140430450439453125">
        <ele>1102.5999755859375</ele>
        <time>2020-08-18T07:27:00.000Z</time>
      </trkpt>
      <trkpt lat="42.53183956257998943328857421875" lon="-0.17666813917458057403564453125">
        <ele>1102.199951171875</ele>
        <time>2020-08-18T07:27:05.000Z</time>
      </trkpt>
      <trkpt lat="42.53180201165378093719482421875" lon="-0.17682806588709354400634765625">
        <ele>1102.199951171875</ele>
        <time>2020-08-18T07:27:11.000Z</time>
      </trkpt>
      <trkpt lat="42.53174476325511932373046875" lon="-0.17699562013149261474609375">
        <ele>1102.4000244140625</ele>
        <time>2020-08-18T07:27:17.000Z</time>
      </trkpt>
      <trkpt lat="42.53165063448250293731689453125" lon="-0.17712168395519256591796875">
        <ele>1103.4000244140625</ele>
        <time>2020-08-18T07:27:23.000Z</time>
      </trkpt>
      <trkpt lat="42.531496994197368621826171875" lon="-0.177274905145168304443359375">
        <ele>1104.199951171875</ele>
        <time>2020-08-18T07:27:31.000Z</time>
      </trkpt>
      <trkpt lat="42.53143404610455036163330078125" lon="-0.1773297227919101715087890625">
        <ele>1104.5999755859375</ele>
        <time>2020-08-18T07:27:35.000Z</time>
      </trkpt>
      <trkpt lat="42.53142348490655422210693359375" lon="-0.1773454807698726654052734375">
        <ele>1104.5999755859375</ele>
        <time>2020-08-18T07:27:36.000Z</time>
      </trkpt>
      <trkpt lat="42.53135760314762592315673828125" lon="-0.17746039666235446929931640625">
        <ele>1104.5999755859375</ele>
        <time>2020-08-18T07:27:41.000Z</time>
      </trkpt>
      <trkpt lat="42.53133446909487247467041015625" lon="-0.17758578993380069732666015625">
        <ele>1105</ele>
        <time>2020-08-18T07:27:46.000Z</time>
      </trkpt>
      <trkpt lat="42.531326673924922943115234375" lon="-0.1776609756052494049072265625">
        <ele>1105.4000244140625</ele>
        <time>2020-08-18T07:27:49.000Z</time>
      </trkpt>
      <trkpt lat="42.53132558427751064300537109375" lon="-0.17768285237252712249755859375">
        <ele>1105.5999755859375</ele>
        <time>2020-08-18T07:27:50.000Z</time>
      </trkpt>
      <trkpt lat="42.5313167832791805267333984375" lon="-0.1777307130396366119384765625">
        <ele>1105.800048828125</ele>
        <time>2020-08-18T07:27:52.000Z</time>
      </trkpt>
      <trkpt lat="42.5312973372638225555419921875" lon="-0.177873037755489349365234375">
        <ele>1106.4000244140625</ele>
        <time>2020-08-18T07:27:58.000Z</time>
      </trkpt>
      <trkpt lat="42.5312869437038898468017578125" lon="-0.177917294204235076904296875">
        <ele>1106.5999755859375</ele>
        <time>2020-08-18T07:28:00.000Z</time>
      </trkpt>
      <trkpt lat="42.5312688387930393218994140625" lon="-0.17801024951040744781494140625">
        <ele>1107.5999755859375</ele>
        <time>2020-08-18T07:28:04.000Z</time>
      </trkpt>
      <trkpt lat="42.53124897368252277374267578125" lon="-0.17805618233978748321533203125">
        <ele>1107.800048828125</ele>
        <time>2020-08-18T07:28:06.000Z</time>
      </trkpt>
      <trkpt lat="42.5312014482915401458740234375" lon="-0.17818249762058258056640625">
        <ele>1107.800048828125</ele>
        <time>2020-08-18T07:28:11.000Z</time>
      </trkpt>
      <trkpt lat="42.5311410985887050628662109375" lon="-0.1783647201955318450927734375">
        <ele>1108</ele>
        <time>2020-08-18T07:28:18.000Z</time>
      </trkpt>
      <trkpt lat="42.5310824252665042877197265625" lon="-0.178530849516391754150390625">
        <ele>1108.800048828125</ele>
        <time>2020-08-18T07:28:25.000Z</time>
      </trkpt>
      <trkpt lat="42.5310757197439670562744140625" lon="-0.17855708487331867218017578125">
        <ele>1108.800048828125</ele>
        <time>2020-08-18T07:28:26.000Z</time>
      </trkpt>
      <trkpt lat="42.53105803392827510833740234375" lon="-0.17862631939351558685302734375">
        <ele>1108.5999755859375</ele>
        <time>2020-08-18T07:28:29.000Z</time>
      </trkpt>
      <trkpt lat="42.53100891597568988800048828125" lon="-0.1787147484719753265380859375">
        <ele>1108.4000244140625</ele>
        <time>2020-08-18T07:28:33.000Z</time>
      </trkpt>
      <trkpt lat="42.530983351171016693115234375" lon="-0.1787491142749786376953125">
        <ele>1108.4000244140625</ele>
        <time>2020-08-18T07:28:35.000Z</time>
      </trkpt>
      <trkpt lat="42.53083624877035617828369140625" lon="-0.1789098791778087615966796875">
        <ele>1109</ele>
        <time>2020-08-18T07:28:43.000Z</time>
      </trkpt>
      <trkpt lat="42.53072996623814105987548828125" lon="-0.17901264131069183349609375">
        <ele>1109</ele>
        <time>2020-08-18T07:28:49.000Z</time>
      </trkpt>
      <trkpt lat="42.5306831113994121551513671875" lon="-0.17905262298882007598876953125">
        <ele>1109.199951171875</ele>
        <time>2020-08-18T07:28:52.000Z</time>
      </trkpt>
      <trkpt lat="42.530632652342319488525390625" lon="-0.17910123802721500396728515625">
        <ele>1108.800048828125</ele>
        <time>2020-08-18T07:28:55.000Z</time>
      </trkpt>
      <trkpt lat="42.53061546944081783294677734375" lon="-0.17911867238581180572509765625">
        <ele>1108.800048828125</ele>
        <time>2020-08-18T07:28:56.000Z</time>
      </trkpt>
      <trkpt lat="42.53052444197237491607666015625" lon="-0.1792143099009990692138671875">
        <ele>1109</ele>
        <time>2020-08-18T07:29:01.000Z</time>
      </trkpt>
      <trkpt lat="42.530407346785068511962890625" lon="-0.17932872287929058074951171875">
        <ele>1109.4000244140625</ele>
        <time>2020-08-18T07:29:08.000Z</time>
      </trkpt>
      <trkpt lat="42.5303099490702152252197265625" lon="-0.17942813225090503692626953125">
        <ele>1109.5999755859375</ele>
        <time>2020-08-18T07:29:14.000Z</time>
      </trkpt>
      <trkpt lat="42.530212216079235076904296875" lon="-0.1795060001313686370849609375">
        <ele>1109.199951171875</ele>
        <time>2020-08-18T07:29:20.000Z</time>
      </trkpt>
      <trkpt lat="42.53014641813933849334716796875" lon="-0.1795774139463901519775390625">
        <ele>1109.5999755859375</ele>
        <time>2020-08-18T07:29:24.000Z</time>
      </trkpt>
      <trkpt lat="42.530135102570056915283203125" lon="-0.17959811724722385406494140625">
        <ele>1109.800048828125</ele>
        <time>2020-08-18T07:29:25.000Z</time>
      </trkpt>
      <trkpt lat="42.53012093715369701385498046875" lon="-0.1796213351190090179443359375">
        <ele>1109.800048828125</ele>
        <time>2020-08-18T07:29:26.000Z</time>
      </trkpt>
      <trkpt lat="42.530046589672565460205078125" lon="-0.1797252707183361053466796875">
        <ele>1109.4000244140625</ele>
        <time>2020-08-18T07:29:31.000Z</time>
      </trkpt>
      <trkpt lat="42.52994307316839694976806640625" lon="-0.17986826598644256591796875">
        <ele>1109.199951171875</ele>
        <time>2020-08-18T07:29:37.000Z</time>
      </trkpt>
      <trkpt lat="42.5298566557466983795166015625" lon="-0.17997614108026027679443359375">
        <ele>1109.4000244140625</ele>
        <time>2020-08-18T07:29:43.000Z</time>
      </trkpt>
      <trkpt lat="42.52977627329528331756591796875" lon="-0.1800974272191524505615234375">
        <ele>1110.199951171875</ele>
        <time>2020-08-18T07:29:49.000Z</time>
      </trkpt>
      <trkpt lat="42.529688514769077301025390625" lon="-0.18023463897407054901123046875">
        <ele>1110</ele>
        <time>2020-08-18T07:29:55.000Z</time>
      </trkpt>
      <trkpt lat="42.5295968167483806610107421875" lon="-0.1803710125386714935302734375">
        <ele>1110.199951171875</ele>
        <time>2020-08-18T07:30:01.000Z</time>
      </trkpt>
      <trkpt lat="42.5295193679630756378173828125" lon="-0.18047251738607883453369140625">
        <ele>1110.5999755859375</ele>
        <time>2020-08-18T07:30:06.000Z</time>
      </trkpt>
      <trkpt lat="42.5295029394328594207763671875" lon="-0.1804898679256439208984375">
        <ele>1110.800048828125</ele>
        <time>2020-08-18T07:30:07.000Z</time>
      </trkpt>
      <trkpt lat="42.529420293867588043212890625" lon="-0.18058584071695804595947265625">
        <ele>1110.4000244140625</ele>
        <time>2020-08-18T07:30:12.000Z</time>
      </trkpt>
      <trkpt lat="42.5293215550482273101806640625" lon="-0.18074157647788524627685546875">
        <ele>1110.5999755859375</ele>
        <time>2020-08-18T07:30:18.000Z</time>
      </trkpt>
      <trkpt lat="42.529237233102321624755859375" lon="-0.1808943785727024078369140625">
        <ele>1110.5999755859375</ele>
        <time>2020-08-18T07:30:25.000Z</time>
      </trkpt>
      <trkpt lat="42.52918048761785030364990234375" lon="-0.1810378767549991607666015625">
        <ele>1111</ele>
        <time>2020-08-18T07:30:31.000Z</time>
      </trkpt>
      <trkpt lat="42.529107145965099334716796875" lon="-0.1812247931957244873046875">
        <ele>1111.199951171875</ele>
        <time>2020-08-18T07:30:38.000Z</time>
      </trkpt>
      <trkpt lat="42.52907906658947467803955078125" lon="-0.18129880540072917938232421875">
        <ele>1111.800048828125</ele>
        <time>2020-08-18T07:30:41.000Z</time>
      </trkpt>
      <trkpt lat="42.52906163223087787628173828125" lon="-0.18136116676032543182373046875">
        <ele>1112.199951171875</ele>
        <time>2020-08-18T07:30:44.000Z</time>
      </trkpt>
      <trkpt lat="42.52898585982620716094970703125" lon="-0.1814566366374492645263671875">
        <ele>1112.199951171875</ele>
        <time>2020-08-18T07:30:50.000Z</time>
      </trkpt>
      <trkpt lat="42.52890639938414096832275390625" lon="-0.18153668381273746490478515625">
        <ele>1112.199951171875</ele>
        <time>2020-08-18T07:30:55.000Z</time>
      </trkpt>
      <trkpt lat="42.528836913406848907470703125" lon="-0.18164363689720630645751953125">
        <ele>1112.199951171875</ele>
        <time>2020-08-18T07:31:00.000Z</time>
      </trkpt>
      <trkpt lat="42.52878787927329540252685546875" lon="-0.1817258633673191070556640625">
        <ele>1112.5999755859375</ele>
        <time>2020-08-18T07:31:04.000Z</time>
      </trkpt>
      <trkpt lat="42.5287787429988384246826171875" lon="-0.181750170886516571044921875">
        <ele>1112.800048828125</ele>
        <time>2020-08-18T07:31:05.000Z</time>
      </trkpt>
      <trkpt lat="42.5287673436105251312255859375" lon="-0.1817691139876842498779296875">
        <ele>1113</ele>
        <time>2020-08-18T07:31:06.000Z</time>
      </trkpt>
      <trkpt lat="42.52870674245059490203857421875" lon="-0.18186072818934917449951171875">
        <ele>1112.800048828125</ele>
        <time>2020-08-18T07:31:11.000Z</time>
      </trkpt>
      <trkpt lat="42.52863499335944652557373046875" lon="-0.18197639845311641693115234375">
        <ele>1112.800048828125</ele>
        <time>2020-08-18T07:31:16.000Z</time>
      </trkpt>
      <trkpt lat="42.52852418459951877593994140625" lon="-0.18215158022940158843994140625">
        <ele>1113.4000244140625</ele>
        <time>2020-08-18T07:31:23.000Z</time>
      </trkpt>
      <trkpt lat="42.52844522707164287567138671875" lon="-0.1822944916784763336181640625">
        <ele>1113.199951171875</ele>
        <time>2020-08-18T07:31:29.000Z</time>
      </trkpt>
      <trkpt lat="42.52834062092006206512451171875" lon="-0.18239599652588367462158203125">
        <ele>1113.199951171875</ele>
        <time>2020-08-18T07:31:34.000Z</time>
      </trkpt>
      <trkpt lat="42.52828538417816162109375" lon="-0.18242843449115753173828125">
        <ele>1113.199951171875</ele>
        <time>2020-08-18T07:31:37.000Z</time>
      </trkpt>
      <trkpt lat="42.5282533653080463409423828125" lon="-0.1824480481445789337158203125">
        <ele>1113.5999755859375</ele>
        <time>2020-08-18T07:31:39.000Z</time>
      </trkpt>
      <trkpt lat="42.52820835448801517486572265625" lon="-0.18247411586344242095947265625">
        <ele>1114</ele>
        <time>2020-08-18T07:31:41.000Z</time>
      </trkpt>
      <trkpt lat="42.52811305224895477294921875" lon="-0.18251216970384120941162109375">
        <ele>1114.199951171875</ele>
        <time>2020-08-18T07:31:45.000Z</time>
      </trkpt>
      <trkpt lat="42.5280059315264225006103515625" lon="-0.1825578510761260986328125">
        <ele>1113.4000244140625</ele>
        <time>2020-08-18T07:31:50.000Z</time>
      </trkpt>
      <trkpt lat="42.5278631038963794708251953125" lon="-0.18264309503138065338134765625">
        <ele>1113.5999755859375</ele>
        <time>2020-08-18T07:31:57.000Z</time>
      </trkpt>
      <trkpt lat="42.52773754298686981201171875" lon="-0.1826840825378894805908203125">
        <ele>1113.199951171875</ele>
        <time>2020-08-18T07:32:03.000Z</time>
      </trkpt>
      <trkpt lat="42.52762849442660808563232421875" lon="-0.1826995052397251129150390625">
        <ele>1112.800048828125</ele>
        <time>2020-08-18T07:32:08.000Z</time>
      </trkpt>
      <trkpt lat="42.5275932066142559051513671875" lon="-0.18271006643772125244140625">
        <ele>1112.5999755859375</ele>
        <time>2020-08-18T07:32:10.000Z</time>
      </trkpt>
      <trkpt lat="42.52752757631242275238037109375" lon="-0.18274091184139251708984375">
        <ele>1112</ele>
        <time>2020-08-18T07:32:16.000Z</time>
      </trkpt>
      <trkpt lat="42.5275043584406375885009765625" lon="-0.182747282087802886962890625">
        <ele>1111.800048828125</ele>
        <time>2020-08-18T07:32:18.000Z</time>
      </trkpt>
      <trkpt lat="42.52747644670307636260986328125" lon="-0.18276563845574855804443359375">
        <ele>1111</ele>
        <time>2020-08-18T07:32:22.000Z</time>
      </trkpt>
      <trkpt lat="42.527472339570522308349609375" lon="-0.182772092521190643310546875">
        <ele>1110.800048828125</ele>
        <time>2020-08-18T07:32:24.000Z</time>
      </trkpt>
      <trkpt lat="42.52746890299022197723388671875" lon="-0.18277578055858612060546875">
        <ele>1110.5999755859375</ele>
        <time>2020-08-18T07:32:35.000Z</time>
      </trkpt>
      <trkpt lat="42.5274691544473171234130859375" lon="-0.1827789656817913055419921875">
        <ele>1110.5999755859375</ele>
        <time>2020-08-18T07:32:50.000Z</time>
      </trkpt>
      <trkpt lat="42.52745197154581546783447265625" lon="-0.182779133319854736328125">
        <ele>1110.5999755859375</ele>
        <time>2020-08-18T07:32:56.000Z</time>
      </trkpt>
      <trkpt lat="42.52744560129940509796142578125" lon="-0.18277854658663272857666015625">
        <ele>1110.4000244140625</ele>
        <time>2020-08-18T07:33:03.000Z</time>
      </trkpt>
      <trkpt lat="42.5274292565882205963134765625" lon="-0.18278072588145732879638671875">
        <ele>1110.5999755859375</ele>
        <time>2020-08-18T07:33:13.000Z</time>
      </trkpt>
      <trkpt lat="42.5274176895618438720703125" lon="-0.1828124932944774627685546875">
        <ele>1110.4000244140625</ele>
        <time>2020-08-18T07:33:21.000Z</time>
      </trkpt>
      <trkpt lat="42.5273987464606761932373046875" lon="-0.1829127408564090728759765625">
        <ele>1110.5999755859375</ele>
        <time>2020-08-18T07:33:26.000Z</time>
      </trkpt>
      <trkpt lat="42.5274000875651836395263671875" lon="-0.18293176777660846710205078125">
        <ele>1110.5999755859375</ele>
        <time>2020-08-18T07:33:27.000Z</time>
      </trkpt>
      <trkpt lat="42.5273967348039150238037109375" lon="-0.1829871721565723419189453125">
        <ele>1111</ele>
        <time>2020-08-18T07:33:30.000Z</time>
      </trkpt>
      <trkpt lat="42.52738391049206256866455078125" lon="-0.18303595483303070068359375">
        <ele>1111.5999755859375</ele>
        <time>2020-08-18T07:33:33.000Z</time>
      </trkpt>
      <trkpt lat="42.5273782946169376373291015625" lon="-0.18307560123503208160400390625">
        <ele>1111.800048828125</ele>
        <time>2020-08-18T07:33:35.000Z</time>
      </trkpt>
      <trkpt lat="42.527366392314434051513671875" lon="-0.1831075362861156463623046875">
        <ele>1112.199951171875</ele>
        <time>2020-08-18T07:33:37.000Z</time>
      </trkpt>
      <trkpt lat="42.5273524783551692962646484375" lon="-0.1831356994807720184326171875">
        <ele>1112.5999755859375</ele>
        <time>2020-08-18T07:33:39.000Z</time>
      </trkpt>
      <trkpt lat="42.52734166570007801055908203125" lon="-0.1831675507128238677978515625">
        <ele>1113</ele>
        <time>2020-08-18T07:33:41.000Z</time>
      </trkpt>
      <trkpt lat="42.5272996723651885986328125" lon="-0.183246843516826629638671875">
        <ele>1113.800048828125</ele>
        <time>2020-08-18T07:33:47.000Z</time>
      </trkpt>
      <trkpt lat="42.5272911228239536285400390625" lon="-0.183258242905139923095703125">
        <ele>1114</ele>
        <time>2020-08-18T07:33:48.000Z</time>
      </trkpt>
      <trkpt lat="42.5272433459758758544921875" lon="-0.183305181562900543212890625">
        <ele>1114.5999755859375</ele>
        <time>2020-08-18T07:33:52.000Z</time>
      </trkpt>
      <trkpt lat="42.527161538600921630859375" lon="-0.18338003195822238922119140625">
        <ele>1114.5999755859375</ele>
        <time>2020-08-18T07:33:58.000Z</time>
      </trkpt>
      <trkpt lat="42.52713396213948726654052734375" lon="-0.18340341746807098388671875">
        <ele>1114.800048828125</ele>
        <time>2020-08-18T07:34:00.000Z</time>
      </trkpt>
      <trkpt lat="42.52712189219892024993896484375" lon="-0.1834156550467014312744140625">
        <ele>1115</ele>
        <time>2020-08-18T07:34:01.000Z</time>
      </trkpt>
      <trkpt lat="42.52709205262362957000732421875" lon="-0.18345412798225879669189453125">
        <ele>1115.5999755859375</ele>
        <time>2020-08-18T07:34:04.000Z</time>
      </trkpt>
      <trkpt lat="42.5270597822964191436767578125" lon="-0.183501653373241424560546875">
        <ele>1115.800048828125</ele>
        <time>2020-08-18T07:34:07.000Z</time>
      </trkpt>
      <trkpt lat="42.52700865268707275390625" lon="-0.18355890177190303802490234375">
        <ele>1116</ele>
        <time>2020-08-18T07:34:11.000Z</time>
      </trkpt>
      <trkpt lat="42.52696850337088108062744140625" lon="-0.18360516987740993499755859375">
        <ele>1116.199951171875</ele>
        <time>2020-08-18T07:34:14.000Z</time>
      </trkpt>
      <trkpt lat="42.526930868625640869140625" lon="-0.18363953568041324615478515625">
        <ele>1116.5999755859375</ele>
        <time>2020-08-18T07:34:17.000Z</time>
      </trkpt>
      <trkpt lat="42.52683724276721477508544921875" lon="-0.1837063394486904144287109375">
        <ele>1117</ele>
        <time>2020-08-18T07:34:23.000Z</time>
      </trkpt>
      <trkpt lat="42.5268056429922580718994140625" lon="-0.18372016958892345428466796875">
        <ele>1117.199951171875</ele>
        <time>2020-08-18T07:34:25.000Z</time>
      </trkpt>
      <trkpt lat="42.52678108401596546173095703125" lon="-0.1837365143001079559326171875">
        <ele>1117.4000244140625</ele>
        <time>2020-08-18T07:34:27.000Z</time>
      </trkpt>
      <trkpt lat="42.52676700241863727569580078125" lon="-0.18374741077423095703125">
        <ele>1117.5999755859375</ele>
        <time>2020-08-18T07:34:28.000Z</time>
      </trkpt>
      <trkpt lat="42.52667496912181377410888671875" lon="-0.183803737163543701171875">
        <ele>1117.800048828125</ele>
        <time>2020-08-18T07:34:34.000Z</time>
      </trkpt>
      <trkpt lat="42.52662635408341884613037109375" lon="-0.183830559253692626953125">
        <ele>1118.199951171875</ele>
        <time>2020-08-18T07:34:37.000Z</time>
      </trkpt>
      <trkpt lat="42.52656097523868083953857421875" lon="-0.1838488318026065826416015625">
        <ele>1118.5999755859375</ele>
        <time>2020-08-18T07:34:41.000Z</time>
      </trkpt>
      <trkpt lat="42.5264735519886016845703125" lon="-0.18387372605502605438232421875">
        <ele>1119.199951171875</ele>
        <time>2020-08-18T07:34:46.000Z</time>
      </trkpt>
      <trkpt lat="42.5264214165508747100830078125" lon="-0.18389937467873096466064453125">
        <ele>1119.4000244140625</ele>
        <time>2020-08-18T07:34:49.000Z</time>
      </trkpt>
      <trkpt lat="42.526297867298126220703125" lon="-0.18394798971712589263916015625">
        <ele>1119.5999755859375</ele>
        <time>2020-08-18T07:34:56.000Z</time>
      </trkpt>
      <trkpt lat="42.52620407380163669586181640625" lon="-0.18402929417788982391357421875">
        <ele>1120.199951171875</ele>
        <time>2020-08-18T07:35:03.000Z</time>
      </trkpt>
      <trkpt lat="42.52618680708110332489013671875" lon="-0.18409014679491519927978515625">
        <ele>1120.199951171875</ele>
        <time>2020-08-18T07:35:08.000Z</time>
      </trkpt>
      <trkpt lat="42.526188232004642486572265625" lon="-0.18409148789942264556884765625">
        <ele>1120.199951171875</ele>
        <time>2020-08-18T07:35:09.000Z</time>
      </trkpt>
      <trkpt lat="42.52619133330881595611572265625" lon="-0.1840992830693721771240234375">
        <ele>1120.5999755859375</ele>
        <time>2020-08-18T07:35:17.000Z</time>
      </trkpt>
      <trkpt lat="42.52618831582367420196533203125" lon="-0.18410372547805309295654296875">
        <ele>1120.5999755859375</ele>
        <time>2020-08-18T07:35:25.000Z</time>
      </trkpt>
      <trkpt lat="42.52618848346173763275146484375" lon="-0.18410372547805309295654296875">
        <ele>1120.4000244140625</ele>
        <time>2020-08-18T07:35:44.000Z</time>
      </trkpt>
      <trkpt lat="42.526187896728515625" lon="-0.18410305492579936981201171875">
        <ele>1120.5999755859375</ele>
        <time>2020-08-18T07:35:56.000Z</time>
      </trkpt>
      <trkpt lat="42.52618345431983470916748046875" lon="-0.18410506658256053924560546875">
        <ele>1120.800048828125</ele>
        <time>2020-08-18T07:36:02.000Z</time>
      </trkpt>
      <trkpt lat="42.5261659361422061920166015625" lon="-0.18412292003631591796875">
        <ele>1120.800048828125</ele>
        <time>2020-08-18T07:36:04.000Z</time>
      </trkpt>
      <trkpt lat="42.526135258376598358154296875" lon="-0.1841616444289684295654296875">
        <ele>1120.800048828125</ele>
        <time>2020-08-18T07:36:08.000Z</time>
      </trkpt>
      <trkpt lat="42.52611036412417888641357421875" lon="-0.18420883454382419586181640625">
        <ele>1121.199951171875</ele>
        <time>2020-08-18T07:36:11.000Z</time>
      </trkpt>
      <trkpt lat="42.52608991228044033050537109375" lon="-0.1842414401471614837646484375">
        <ele>1121.5999755859375</ele>
        <time>2020-08-18T07:36:13.000Z</time>
      </trkpt>
      <trkpt lat="42.52605571411550045013427734375" lon="-0.18428024835884571075439453125">
        <ele>1121.800048828125</ele>
        <time>2020-08-18T07:36:16.000Z</time>
      </trkpt>
      <trkpt lat="42.52597709186375141143798828125" lon="-0.18433070741593837738037109375">
        <ele>1122.4000244140625</ele>
        <time>2020-08-18T07:36:22.000Z</time>
      </trkpt>
      <trkpt lat="42.52596552483737468719482421875" lon="-0.1843403466045856475830078125">
        <ele>1122.4000244140625</ele>
        <time>2020-08-18T07:36:23.000Z</time>
      </trkpt>
      <trkpt lat="42.52593803219497203826904296875" lon="-0.1843715272843837738037109375">
        <ele>1122.5999755859375</ele>
        <time>2020-08-18T07:36:26.000Z</time>
      </trkpt>
      <trkpt lat="42.5258926860988140106201171875" lon="-0.18441016785800457000732421875">
        <ele>1122.800048828125</ele>
        <time>2020-08-18T07:36:29.000Z</time>
      </trkpt>
      <trkpt lat="42.52579654566943645477294921875" lon="-0.18445962108671665191650390625">
        <ele>1123.199951171875</ele>
        <time>2020-08-18T07:36:35.000Z</time>
      </trkpt>
      <trkpt lat="42.5256331823766231536865234375" lon="-0.18453556112945079803466796875">
        <ele>1124</ele>
        <time>2020-08-18T07:36:44.000Z</time>
      </trkpt>
      <trkpt lat="42.525523714721202850341796875" lon="-0.18460429273545742034912109375">
        <ele>1124</ele>
        <time>2020-08-18T07:36:51.000Z</time>
      </trkpt>
      <trkpt lat="42.525480128824710845947265625" lon="-0.184641592204570770263671875">
        <ele>1124.199951171875</ele>
        <time>2020-08-18T07:36:55.000Z</time>
      </trkpt>
      <trkpt lat="42.5254662148654460906982421875" lon="-0.1846581883728504180908203125">
        <ele>1124.199951171875</ele>
        <time>2020-08-18T07:36:56.000Z</time>
      </trkpt>
      <trkpt lat="42.525354065001010894775390625" lon="-0.18472650088369846343994140625">
        <ele>1124.5999755859375</ele>
        <time>2020-08-18T07:37:02.000Z</time>
      </trkpt>
      <trkpt lat="42.5252352096140384674072265625" lon="-0.18475751392543315887451171875">
        <ele>1124.800048828125</ele>
        <time>2020-08-18T07:37:08.000Z</time>
      </trkpt>
      <trkpt lat="42.52508173696696758270263671875" lon="-0.184786431491374969482421875">
        <ele>1124.5999755859375</ele>
        <time>2020-08-18T07:37:14.000Z</time>
      </trkpt>
      <trkpt lat="42.52484905533492565155029296875" lon="-0.184780061244964599609375">
        <ele>1123.4000244140625</ele>
        <time>2020-08-18T07:37:21.000Z</time>
      </trkpt>
      <trkpt lat="42.52469055354595184326171875" lon="-0.184801518917083740234375">
        <ele>1123.800048828125</ele>
        <time>2020-08-18T07:37:28.000Z</time>
      </trkpt>
      <trkpt lat="42.52456474117934703826904296875" lon="-0.18482456915080547332763671875">
        <ele>1124</ele>
        <time>2020-08-18T07:37:35.000Z</time>
      </trkpt>
      <trkpt lat="42.5244566984474658966064453125" lon="-0.1848565042018890380859375">
        <ele>1124.199951171875</ele>
        <time>2020-08-18T07:37:42.000Z</time>
      </trkpt>
      <trkpt lat="42.5243852846324443817138671875" lon="-0.1848895289003849029541015625">
        <ele>1124.800048828125</ele>
        <time>2020-08-18T07:37:46.000Z</time>
      </trkpt>
      <trkpt lat="42.52435066737234592437744140625" lon="-0.18491190858185291290283203125">
        <ele>1125.199951171875</ele>
        <time>2020-08-18T07:37:48.000Z</time>
      </trkpt>
      <trkpt lat="42.5242327339947223663330078125" lon="-0.18500595353543758392333984375">
        <ele>1125.4000244140625</ele>
        <time>2020-08-18T07:37:55.000Z</time>
      </trkpt>
      <trkpt lat="42.52416760660707950592041015625" lon="-0.1850504614412784576416015625">
        <ele>1125.800048828125</ele>
        <time>2020-08-18T07:37:59.000Z</time>
      </trkpt>
      <trkpt lat="42.52412192523479461669921875" lon="-0.18507443368434906005859375">
        <ele>1126.4000244140625</ele>
        <time>2020-08-18T07:38:02.000Z</time>
      </trkpt>
      <trkpt lat="42.52410625107586383819580078125" lon="-0.18508507870137691497802734375">
        <ele>1126.5999755859375</ele>
        <time>2020-08-18T07:38:03.000Z</time>
      </trkpt>
      <trkpt lat="42.524091415107250213623046875" lon="-0.18509723246097564697265625">
        <ele>1126.800048828125</ele>
        <time>2020-08-18T07:38:04.000Z</time>
      </trkpt>
      <trkpt lat="42.5240466557443141937255859375" lon="-0.1851222105324268341064453125">
        <ele>1127.199951171875</ele>
        <time>2020-08-18T07:38:07.000Z</time>
      </trkpt>
      <trkpt lat="42.52395101822912693023681640625" lon="-0.18520862795412540435791015625">
        <ele>1127.5999755859375</ele>
        <time>2020-08-18T07:38:14.000Z</time>
      </trkpt>
      <trkpt lat="42.52391765825450420379638671875" lon="-0.185235030949115753173828125">
        <ele>1128</ele>
        <time>2020-08-18T07:38:16.000Z</time>
      </trkpt>
      <trkpt lat="42.52381389029324054718017578125" lon="-0.185311138629913330078125">
        <ele>1128.199951171875</ele>
        <time>2020-08-18T07:38:22.000Z</time>
      </trkpt>
      <trkpt lat="42.52369838766753673553466796875" lon="-0.18539370037615299224853515625">
        <ele>1129</ele>
        <time>2020-08-18T07:38:29.000Z</time>
      </trkpt>
      <trkpt lat="42.52368112094700336456298828125" lon="-0.185406021773815155029296875">
        <ele>1129</ele>
        <time>2020-08-18T07:38:30.000Z</time>
      </trkpt>
      <trkpt lat="42.52356343902647495269775390625" lon="-0.18551171757280826568603515625">
        <ele>1129.199951171875</ele>
        <time>2020-08-18T07:38:37.000Z</time>
      </trkpt>
      <trkpt lat="42.52340183593332767486572265625" lon="-0.18567717634141445159912109375">
        <ele>1129.5999755859375</ele>
        <time>2020-08-18T07:38:47.000Z</time>
      </trkpt>
      <trkpt lat="42.52333947457373142242431640625" lon="-0.1857488416135311126708984375">
        <ele>1130</ele>
        <time>2020-08-18T07:38:51.000Z</time>
      </trkpt>
      <trkpt lat="42.52327510155737400054931640625" lon="-0.18582318909466266632080078125">
        <ele>1130.199951171875</ele>
        <time>2020-08-18T07:38:55.000Z</time>
      </trkpt>
      <trkpt lat="42.523135878145694732666015625" lon="-0.18594070337712764739990234375">
        <ele>1130.800048828125</ele>
        <time>2020-08-18T07:39:03.000Z</time>
      </trkpt>
      <trkpt lat="42.52305851317942142486572265625" lon="-0.18598370254039764404296875">
        <ele>1131</ele>
        <time>2020-08-18T07:39:07.000Z</time>
      </trkpt>
      <trkpt lat="42.5229705870151519775390625" lon="-0.18602469004690647125244140625">
        <ele>1132</ele>
        <time>2020-08-18T07:39:12.000Z</time>
      </trkpt>
      <trkpt lat="42.52295239828526973724365234375" lon="-0.1860334910452365875244140625">
        <ele>1132.199951171875</ele>
        <time>2020-08-18T07:39:13.000Z</time>
      </trkpt>
      <trkpt lat="42.5228292681276798248291015625" lon="-0.186083279550075531005859375">
        <ele>1132.4000244140625</ele>
        <time>2020-08-18T07:39:20.000Z</time>
      </trkpt>
      <trkpt lat="42.52270597033202648162841796875" lon="-0.1861350797116756439208984375">
        <ele>1133.199951171875</ele>
        <time>2020-08-18T07:39:27.000Z</time>
      </trkpt>
      <trkpt lat="42.52250078134238719940185546875" lon="-0.18620121292769908905029296875">
        <ele>1134</ele>
        <time>2020-08-18T07:39:38.000Z</time>
      </trkpt>
      <trkpt lat="42.522395588457584381103515625" lon="-0.1862085051834583282470703125">
        <ele>1134.199951171875</ele>
        <time>2020-08-18T07:39:43.000Z</time>
      </trkpt>
      <trkpt lat="42.52232727594673633575439453125" lon="-0.18620858900249004364013671875">
        <ele>1134.4000244140625</ele>
        <time>2020-08-18T07:39:46.000Z</time>
      </trkpt>
      <trkpt lat="42.5221352465450763702392578125" lon="-0.18621328286826610565185546875">
        <ele>1134.5999755859375</ele>
        <time>2020-08-18T07:39:55.000Z</time>
      </trkpt>
      <trkpt lat="42.5219682790338993072509765625" lon="-0.1862866245210170745849609375">
        <ele>1135.199951171875</ele>
        <time>2020-08-18T07:40:03.000Z</time>
      </trkpt>
      <trkpt lat="42.521772645413875579833984375" lon="-0.186383686959743499755859375">
        <ele>1135.5999755859375</ele>
        <time>2020-08-18T07:40:13.000Z</time>
      </trkpt>
      <trkpt lat="42.5216437317430973052978515625" lon="-0.1864475570619106292724609375">
        <ele>1135.5999755859375</ele>
        <time>2020-08-18T07:40:20.000Z</time>
      </trkpt>
      <trkpt lat="42.52151506952941417694091796875" lon="-0.18649759702384471893310546875">
        <ele>1136.4000244140625</ele>
        <time>2020-08-18T07:40:27.000Z</time>
      </trkpt>
      <trkpt lat="42.52137961797416210174560546875" lon="-0.18652307800948619842529296875">
        <ele>1137</ele>
        <time>2020-08-18T07:40:34.000Z</time>
      </trkpt>
      <trkpt lat="42.52129278145730495452880859375" lon="-0.1866044662892818450927734375">
        <ele>1136.4000244140625</ele>
        <time>2020-08-18T07:40:39.000Z</time>
      </trkpt>
      <trkpt lat="42.5211743451654911041259765625" lon="-0.18666137941181659698486328125">
        <ele>1136.4000244140625</ele>
        <time>2020-08-18T07:40:43.000Z</time>
      </trkpt>
      <trkpt lat="42.5209922902286052703857421875" lon="-0.18666498363018035888671875">
        <ele>1135.800048828125</ele>
        <time>2020-08-18T07:40:48.000Z</time>
      </trkpt>
      <trkpt lat="42.52082020975649356842041015625" lon="-0.18663925118744373321533203125">
        <ele>1135.199951171875</ele>
        <time>2020-08-18T07:40:53.000Z</time>
      </trkpt>
      <trkpt lat="42.520748712122440338134765625" lon="-0.1866333000361919403076171875">
        <ele>1135</ele>
        <time>2020-08-18T07:40:55.000Z</time>
      </trkpt>
      <trkpt lat="42.5206767953932285308837890625" lon="-0.18662231974303722381591796875">
        <ele>1133.5999755859375</ele>
        <time>2020-08-18T07:40:57.000Z</time>
      </trkpt>
      <trkpt lat="42.5206080637872219085693359375" lon="-0.1866121776401996612548828125">
        <ele>1132.5999755859375</ele>
        <time>2020-08-18T07:40:59.000Z</time>
      </trkpt>
      <trkpt lat="42.52050496637821197509765625" lon="-0.1866064779460430145263671875">
        <ele>1132</ele>
        <time>2020-08-18T07:41:02.000Z</time>
      </trkpt>
      <trkpt lat="42.52040036022663116455078125" lon="-0.18656046129763126373291015625">
        <ele>1131.4000244140625</ele>
        <time>2020-08-18T07:41:05.000Z</time>
      </trkpt>
      <trkpt lat="42.52028360031545162200927734375" lon="-0.1865109242498874664306640625">
        <ele>1130.5999755859375</ele>
        <time>2020-08-18T07:41:08.000Z</time>
      </trkpt>
      <trkpt lat="42.52008193172514438629150390625" lon="-0.18644370138645172119140625">
        <ele>1130.4000244140625</ele>
        <time>2020-08-18T07:41:13.000Z</time>
      </trkpt>
      <trkpt lat="42.5200163014233112335205078125" lon="-0.18639667890965938568115234375">
        <ele>1130.4000244140625</ele>
        <time>2020-08-18T07:41:15.000Z</time>
      </trkpt>
      <trkpt lat="42.51991848461329936981201171875" lon="-0.18631135113537311553955078125">
        <ele>1130.199951171875</ele>
        <time>2020-08-18T07:41:20.000Z</time>
      </trkpt>
      <trkpt lat="42.5199019722640514373779296875" lon="-0.18630431033670902252197265625">
        <ele>1130.199951171875</ele>
        <time>2020-08-18T07:41:21.000Z</time>
      </trkpt>
      <trkpt lat="42.51986366696655750274658203125" lon="-0.18632543273270130157470703125">
        <ele>1130.5999755859375</ele>
        <time>2020-08-18T07:41:24.000Z</time>
      </trkpt>
      <trkpt lat="42.51983734779059886932373046875" lon="-0.1864539273083209991455078125">
        <ele>1131.199951171875</ele>
        <time>2020-08-18T07:41:30.000Z</time>
      </trkpt>
      <trkpt lat="42.519839443266391754150390625" lon="-0.186473540961742401123046875">
        <ele>1131.5999755859375</ele>
        <time>2020-08-18T07:41:31.000Z</time>
      </trkpt>
      <trkpt lat="42.51984380185604095458984375" lon="-0.18649541772902011871337890625">
        <ele>1131.5999755859375</ele>
        <time>2020-08-18T07:41:32.000Z</time>
      </trkpt>
      <trkpt lat="42.5198667682707309722900390625" lon="-0.18654671497642993927001953125">
        <ele>1132</ele>
        <time>2020-08-18T07:41:35.000Z</time>
      </trkpt>
      <trkpt lat="42.519882358610630035400390625" lon="-0.186584852635860443115234375">
        <ele>1132.5999755859375</ele>
        <time>2020-08-18T07:41:37.000Z</time>
      </trkpt>
      <trkpt lat="42.51989166252315044403076171875" lon="-0.18660019151866436004638671875">
        <ele>1133</ele>
        <time>2020-08-18T07:41:38.000Z</time>
      </trkpt>
      <trkpt lat="42.51992703415453433990478515625" lon="-0.18667705357074737548828125">
        <ele>1133.4000244140625</ele>
        <time>2020-08-18T07:41:42.000Z</time>
      </trkpt>
      <trkpt lat="42.519941367208957672119140625" lon="-0.186722986400127410888671875">
        <ele>1134</ele>
        <time>2020-08-18T07:41:44.000Z</time>
      </trkpt>
      <trkpt lat="42.51997631974518299102783203125" lon="-0.18678727559745311737060546875">
        <ele>1135</ele>
        <time>2020-08-18T07:41:48.000Z</time>
      </trkpt>
      <trkpt lat="42.519988976418972015380859375" lon="-0.1868234016001224517822265625">
        <ele>1135.4000244140625</ele>
        <time>2020-08-18T07:41:50.000Z</time>
      </trkpt>
      <trkpt lat="42.51999526284635066986083984375" lon="-0.186828933656215667724609375">
        <ele>1136.199951171875</ele>
        <time>2020-08-18T07:41:52.000Z</time>
      </trkpt>
      <trkpt lat="42.51999844796955585479736328125" lon="-0.1868388243019580841064453125">
        <ele>1137</ele>
        <time>2020-08-18T07:41:55.000Z</time>
      </trkpt>
      <trkpt lat="42.520019151270389556884765625" lon="-0.18689959309995174407958984375">
        <ele>1137.199951171875</ele>
        <time>2020-08-18T07:42:02.000Z</time>
      </trkpt>
      <trkpt lat="42.52002292312681674957275390625" lon="-0.18691065721213817596435546875">
        <ele>1137.4000244140625</ele>
        <time>2020-08-18T07:42:03.000Z</time>
      </trkpt>
      <trkpt lat="42.520041279494762420654296875" lon="-0.186959691345691680908203125">
        <ele>1138.4000244140625</ele>
        <time>2020-08-18T07:42:10.000Z</time>
      </trkpt>
      <trkpt lat="42.520041279494762420654296875" lon="-0.1869695819914340972900390625">
        <ele>1138.5999755859375</ele>
        <time>2020-08-18T07:42:11.000Z</time>
      </trkpt>
      <trkpt lat="42.52005242742598056793212890625" lon="-0.187025405466556549072265625">
        <ele>1139.5999755859375</ele>
        <time>2020-08-18T07:42:19.000Z</time>
      </trkpt>
      <trkpt lat="42.5200598873198032379150390625" lon="-0.1870572566986083984375">
        <ele>1140.4000244140625</ele>
        <time>2020-08-18T07:42:23.000Z</time>
      </trkpt>
      <trkpt lat="42.52006785012781620025634765625" lon="-0.187086760997772216796875">
        <ele>1140.800048828125</ele>
        <time>2020-08-18T07:42:27.000Z</time>
      </trkpt>
      <trkpt lat="42.52007388509809970855712890625" lon="-0.187123976647853851318359375">
        <ele>1141.800048828125</ele>
        <time>2020-08-18T07:42:33.000Z</time>
      </trkpt>
      <trkpt lat="42.520078159868717193603515625" lon="-0.18717183731496334075927734375">
        <ele>1142.800048828125</ele>
        <time>2020-08-18T07:42:40.000Z</time>
      </trkpt>
      <trkpt lat="42.520080171525478363037109375" lon="-0.187176279723644256591796875">
        <ele>1143.199951171875</ele>
        <time>2020-08-18T07:42:41.000Z</time>
      </trkpt>
      <trkpt lat="42.52008092589676380157470703125" lon="-0.18724643625319004058837890625">
        <ele>1144</ele>
        <time>2020-08-18T07:42:48.000Z</time>
      </trkpt>
      <trkpt lat="42.5200818479061126708984375" lon="-0.187334530055522918701171875">
        <ele>1144.800048828125</ele>
        <time>2020-08-18T07:42:57.000Z</time>
      </trkpt>
      <trkpt lat="42.52008209936320781707763671875" lon="-0.1873464323580265045166015625">
        <ele>1145</ele>
        <time>2020-08-18T07:42:58.000Z</time>
      </trkpt>
      <trkpt lat="42.5200914032757282257080078125" lon="-0.18740435130894184112548828125">
        <ele>1146</ele>
        <time>2020-08-18T07:43:05.000Z</time>
      </trkpt>
      <trkpt lat="42.52010020427405834197998046875" lon="-0.18742698244750499725341796875">
        <ele>1146</ele>
        <time>2020-08-18T07:43:08.000Z</time>
      </trkpt>
      <trkpt lat="42.52013104967772960662841796875" lon="-0.18747978843748569488525390625">
        <ele>1146.800048828125</ele>
        <time>2020-08-18T07:43:16.000Z</time>
      </trkpt>
      <trkpt lat="42.52016030251979827880859375" lon="-0.187509544193744659423828125">
        <ele>1147</ele>
        <time>2020-08-18T07:43:23.000Z</time>
      </trkpt>
      <trkpt lat="42.520161978900432586669921875" lon="-0.18750895746052265167236328125">
        <ele>1147.199951171875</ele>
        <time>2020-08-18T07:43:33.000Z</time>
      </trkpt>
      <trkpt lat="42.52016088925302028656005859375" lon="-0.1875097118318080902099609375">
        <ele>1147.199951171875</ele>
        <time>2020-08-18T07:43:37.000Z</time>
      </trkpt>
      <trkpt lat="42.520161308348178863525390625" lon="-0.18751683644950389862060546875">
        <ele>1147</ele>
        <time>2020-08-18T07:43:51.000Z</time>
      </trkpt>
      <trkpt lat="42.52017639577388763427734375" lon="-0.187531001865863800048828125">
        <ele>1147.199951171875</ele>
        <time>2020-08-18T07:43:56.000Z</time>
      </trkpt>
      <trkpt lat="42.5202399305999279022216796875" lon="-0.18760451115667819976806640625">
        <ele>1147.199951171875</ele>
        <time>2020-08-18T07:44:02.000Z</time>
      </trkpt>
      <trkpt lat="42.5202945806086063385009765625" lon="-0.18774348311126232147216796875">
        <ele>1146.5999755859375</ele>
        <time>2020-08-18T07:44:07.000Z</time>
      </trkpt>
      <trkpt lat="42.52030706964433193206787109375" lon="-0.1878337562084197998046875">
        <ele>1146.4000244140625</ele>
        <time>2020-08-18T07:44:11.000Z</time>
      </trkpt>
      <trkpt lat="42.5203455425798892974853515625" lon="-0.1879921741783618927001953125">
        <ele>1147.4000244140625</ele>
        <time>2020-08-18T07:44:17.000Z</time>
      </trkpt>
      <trkpt lat="42.520361803472042083740234375" lon="-0.18804741092026233673095703125">
        <ele>1148.199951171875</ele>
        <time>2020-08-18T07:44:19.000Z</time>
      </trkpt>
      <trkpt lat="42.520380914211273193359375" lon="-0.188132822513580322265625">
        <ele>1149.4000244140625</ele>
        <time>2020-08-18T07:44:22.000Z</time>
      </trkpt>
      <trkpt lat="42.52038233913481235504150390625" lon="-0.188155956566333770751953125">
        <ele>1149.800048828125</ele>
        <time>2020-08-18T07:44:23.000Z</time>
      </trkpt>
      <trkpt lat="42.52038694918155670166015625" lon="-0.18819660879671573638916015625">
        <ele>1150.4000244140625</ele>
        <time>2020-08-18T07:44:25.000Z</time>
      </trkpt>
      <trkpt lat="42.52038686536252498626708984375" lon="-0.1882067508995532989501953125">
        <ele>1150.800048828125</ele>
        <time>2020-08-18T07:44:27.000Z</time>
      </trkpt>
      <trkpt lat="42.520374543964862823486328125" lon="-0.1882575452327728271484375">
        <ele>1151.5999755859375</ele>
        <time>2020-08-18T07:44:34.000Z</time>
      </trkpt>
      <trkpt lat="42.52037487924098968505859375" lon="-0.18826802261173725128173828125">
        <ele>1151.5999755859375</ele>
        <time>2020-08-18T07:44:35.000Z</time>
      </trkpt>
      <trkpt lat="42.520379908382892608642578125" lon="-0.18835385330021381378173828125">
        <ele>1152.199951171875</ele>
        <time>2020-08-18T07:44:43.000Z</time>
      </trkpt>
      <trkpt lat="42.52038032747805118560791015625" lon="-0.188396684825420379638671875">
        <ele>1152.5999755859375</ele>
        <time>2020-08-18T07:44:47.000Z</time>
      </trkpt>
      <trkpt lat="42.52037865109741687774658203125" lon="-0.1884411089122295379638671875">
        <ele>1153</ele>
        <time>2020-08-18T07:44:52.000Z</time>
      </trkpt>
      <trkpt lat="42.52036943100392818450927734375" lon="-0.1885311305522918701171875">
        <ele>1153.5999755859375</ele>
        <time>2020-08-18T07:45:00.000Z</time>
      </trkpt>
      <trkpt lat="42.52035886980593204498291015625" lon="-0.18855501897633075714111328125">
        <ele>1154</ele>
        <time>2020-08-18T07:45:02.000Z</time>
      </trkpt>
      <trkpt lat="42.520332634449005126953125" lon="-0.18863514997065067291259765625">
        <ele>1155</ele>
        <time>2020-08-18T07:45:10.000Z</time>
      </trkpt>
      <trkpt lat="42.52032919786870479583740234375" lon="-0.18864152021706104278564453125">
        <ele>1155.199951171875</ele>
        <time>2020-08-18T07:45:11.000Z</time>
      </trkpt>
      <trkpt lat="42.52030371688306331634521484375" lon="-0.18870220519602298736572265625">
        <ele>1155.800048828125</ele>
        <time>2020-08-18T07:45:19.000Z</time>
      </trkpt>
      <trkpt lat="42.52029935829341411590576171875" lon="-0.1887190528213977813720703125">
        <ele>1156.199951171875</ele>
        <time>2020-08-18T07:45:21.000Z</time>
      </trkpt>
      <trkpt lat="42.52028259448707103729248046875" lon="-0.1887725293636322021484375">
        <ele>1156.800048828125</ele>
        <time>2020-08-18T07:45:29.000Z</time>
      </trkpt>
      <trkpt lat="42.52026784233748912811279296875" lon="-0.18880379386246204376220703125">
        <ele>1157.199951171875</ele>
        <time>2020-08-18T07:45:34.000Z</time>
      </trkpt>
      <trkpt lat="42.52025417983531951904296875" lon="-0.1888444460928440093994140625">
        <ele>1158</ele>
        <time>2020-08-18T07:45:39.000Z</time>
      </trkpt>
      <trkpt lat="42.5202469713985919952392578125" lon="-0.18887042999267578125">
        <ele>1158.4000244140625</ele>
        <time>2020-08-18T07:45:43.000Z</time>
      </trkpt>
      <trkpt lat="42.520226351916790008544921875" lon="-0.1889151893556118011474609375">
        <ele>1159.4000244140625</ele>
        <time>2020-08-18T07:45:50.000Z</time>
      </trkpt>
      <trkpt lat="42.52021939493715763092041015625" lon="-0.188932456076145172119140625">
        <ele>1159.5999755859375</ele>
        <time>2020-08-18T07:45:52.000Z</time>
      </trkpt>
      <trkpt lat="42.52020045183598995208740234375" lon="-0.188976712524890899658203125">
        <ele>1160.4000244140625</ele>
        <time>2020-08-18T07:45:59.000Z</time>
      </trkpt>
      <trkpt lat="42.5201980210840702056884765625" lon="-0.189001858234405517578125">
        <ele>1160.800048828125</ele>
        <time>2020-08-18T07:46:02.000Z</time>
      </trkpt>
      <trkpt lat="42.52017228864133358001708984375" lon="-0.1890596933662891387939453125">
        <ele>1161.5999755859375</ele>
        <time>2020-08-18T07:46:09.000Z</time>
      </trkpt>
      <trkpt lat="42.52015921287238597869873046875" lon="-0.18908542580902576446533203125">
        <ele>1161.800048828125</ele>
        <time>2020-08-18T07:46:12.000Z</time>
      </trkpt>
      <trkpt lat="42.5201517529785633087158203125" lon="-0.18909531645476818084716796875">
        <ele>1162</ele>
        <time>2020-08-18T07:46:16.000Z</time>
      </trkpt>
      <trkpt lat="42.5201470591127872467041015625" lon="-0.18909833393990993499755859375">
        <ele>1162</ele>
        <time>2020-08-18T07:46:23.000Z</time>
      </trkpt>
      <trkpt lat="42.52013255842030048370361328125" lon="-0.18910705111920833587646484375">
        <ele>1162.199951171875</ele>
        <time>2020-08-18T07:46:36.000Z</time>
      </trkpt>
      <trkpt lat="42.520030550658702850341796875" lon="-0.18913135863840579986572265625">
        <ele>1162.4000244140625</ele>
        <time>2020-08-18T07:46:44.000Z</time>
      </trkpt>
      <trkpt lat="42.51993390731513500213623046875" lon="-0.18915449269115924835205078125">
        <ele>1162.800048828125</ele>
        <time>2020-08-18T07:46:51.000Z</time>
      </trkpt>
      <trkpt lat="42.51988277770578861236572265625" lon="-0.1891599409282207489013671875">
        <ele>1163.199951171875</ele>
        <time>2020-08-18T07:46:55.000Z</time>
      </trkpt>
      <trkpt lat="42.51985310576856136322021484375" lon="-0.1891733519732952117919921875">
        <ele>1163.5999755859375</ele>
        <time>2020-08-18T07:46:57.000Z</time>
      </trkpt>
      <trkpt lat="42.51983768306672573089599609375" lon="-0.1891807280480861663818359375">
        <ele>1163.5999755859375</ele>
        <time>2020-08-18T07:46:58.000Z</time>
      </trkpt>
      <trkpt lat="42.5197940133512020111083984375" lon="-0.18920344300568103790283203125">
        <ele>1164.4000244140625</ele>
        <time>2020-08-18T07:47:01.000Z</time>
      </trkpt>
      <trkpt lat="42.51976643688976764678955078125" lon="-0.1892296783626079559326171875">
        <ele>1164.5999755859375</ele>
        <time>2020-08-18T07:47:03.000Z</time>
      </trkpt>
      <trkpt lat="42.5197252817451953887939453125" lon="-0.189303271472454071044921875">
        <ele>1164.800048828125</ele>
        <time>2020-08-18T07:47:08.000Z</time>
      </trkpt>
      <trkpt lat="42.519704662263393402099609375" lon="-0.18936621956527233123779296875">
        <ele>1165.4000244140625</ele>
        <time>2020-08-18T07:47:11.000Z</time>
      </trkpt>
      <trkpt lat="42.519663758575916290283203125" lon="-0.18943076021969318389892578125">
        <ele>1166</ele>
        <time>2020-08-18T07:47:15.000Z</time>
      </trkpt>
      <trkpt lat="42.5196025706827640533447265625" lon="-0.18947971053421497344970703125">
        <ele>1166.4000244140625</ele>
        <time>2020-08-18T07:47:19.000Z</time>
      </trkpt>
      <trkpt lat="42.51958538778126239776611328125" lon="-0.18949278630316257476806640625">
        <ele>1166.5999755859375</ele>
        <time>2020-08-18T07:47:20.000Z</time>
      </trkpt>
      <trkpt lat="42.5195449031889438629150390625" lon="-0.18953134305775165557861328125">
        <ele>1167.4000244140625</ele>
        <time>2020-08-18T07:47:23.000Z</time>
      </trkpt>
      <trkpt lat="42.51950341276824474334716796875" lon="-0.189554393291473388671875">
        <ele>1167.4000244140625</ele>
        <time>2020-08-18T07:47:26.000Z</time>
      </trkpt>
      <trkpt lat="42.5194657780230045318603515625" lon="-0.18959504552185535430908203125">
        <ele>1168.4000244140625</ele>
        <time>2020-08-18T07:47:31.000Z</time>
      </trkpt>
      <trkpt lat="42.51943317241966724395751953125" lon="-0.18963284790515899658203125">
        <ele>1168.4000244140625</ele>
        <time>2020-08-18T07:47:44.000Z</time>
      </trkpt>
      <trkpt lat="42.51934248022735118865966796875" lon="-0.18968741409480571746826171875">
        <ele>1168.5999755859375</ele>
        <time>2020-08-18T07:47:50.000Z</time>
      </trkpt>
      <trkpt lat="42.51929436810314655303955078125" lon="-0.1896987296640872955322265625">
        <ele>1168.800048828125</ele>
        <time>2020-08-18T07:47:53.000Z</time>
      </trkpt>
      <trkpt lat="42.51925346441566944122314453125" lon="-0.1897232048213481903076171875">
        <ele>1169.199951171875</ele>
        <time>2020-08-18T07:47:56.000Z</time>
      </trkpt>
      <trkpt lat="42.51921926625072956085205078125" lon="-0.18974558450281620025634765625">
        <ele>1169.5999755859375</ele>
        <time>2020-08-18T07:47:59.000Z</time>
      </trkpt>
      <trkpt lat="42.5191833078861236572265625" lon="-0.18977366387844085693359375">
        <ele>1170</ele>
        <time>2020-08-18T07:48:02.000Z</time>
      </trkpt>
      <trkpt lat="42.5191576592624187469482421875" lon="-0.18979436717927455902099609375">
        <ele>1170.199951171875</ele>
        <time>2020-08-18T07:48:04.000Z</time>
      </trkpt>
      <trkpt lat="42.51909554935991764068603515625" lon="-0.1898294873535633087158203125">
        <ele>1170.4000244140625</ele>
        <time>2020-08-18T07:48:08.000Z</time>
      </trkpt>
      <trkpt lat="42.51900485716760158538818359375" lon="-0.189868547022342681884765625">
        <ele>1171.199951171875</ele>
        <time>2020-08-18T07:48:13.000Z</time>
      </trkpt>
      <trkpt lat="42.51898951828479766845703125" lon="-0.1898744143545627593994140625">
        <ele>1171.5999755859375</ele>
        <time>2020-08-18T07:48:14.000Z</time>
      </trkpt>
      <trkpt lat="42.518955655395984649658203125" lon="-0.18988304771482944488525390625">
        <ele>1172.4000244140625</ele>
        <time>2020-08-18T07:48:16.000Z</time>
      </trkpt>
      <trkpt lat="42.51892053522169589996337890625" lon="-0.18990500830113887786865234375">
        <ele>1173</ele>
        <time>2020-08-18T07:48:19.000Z</time>
      </trkpt>
      <trkpt lat="42.5188787095248699188232421875" lon="-0.189924202859401702880859375">
        <ele>1173.4000244140625</ele>
        <time>2020-08-18T07:48:22.000Z</time>
      </trkpt>
      <trkpt lat="42.51885985024273395538330078125" lon="-0.189937613904476165771484375">
        <ele>1173.800048828125</ele>
        <time>2020-08-18T07:48:24.000Z</time>
      </trkpt>
      <trkpt lat="42.5188522227108478546142578125" lon="-0.18994641490280628204345703125">
        <ele>1174.4000244140625</ele>
        <time>2020-08-18T07:48:34.000Z</time>
      </trkpt>
      <trkpt lat="42.518852055072784423828125" lon="-0.1899475045502185821533203125">
        <ele>1174.5999755859375</ele>
        <time>2020-08-18T07:48:40.000Z</time>
      </trkpt>
      <trkpt lat="42.5188096426427364349365234375" lon="-0.18995094113051891326904296875">
        <ele>1174.800048828125</ele>
        <time>2020-08-18T07:48:48.000Z</time>
      </trkpt>
      <trkpt lat="42.51872406341135501861572265625" lon="-0.1899686269462108612060546875">
        <ele>1174.5999755859375</ele>
        <time>2020-08-18T07:48:55.000Z</time>
      </trkpt>
      <trkpt lat="42.5187104009091854095458984375" lon="-0.18997089006006717681884765625">
        <ele>1174.5999755859375</ele>
        <time>2020-08-18T07:48:56.000Z</time>
      </trkpt>
      <trkpt lat="42.5186550803482532501220703125" lon="-0.18998530693352222442626953125">
        <ele>1175</ele>
        <time>2020-08-18T07:49:00.000Z</time>
      </trkpt>
      <trkpt lat="42.5186265818774700164794921875" lon="-0.189983882009983062744140625">
        <ele>1175.199951171875</ele>
        <time>2020-08-18T07:49:02.000Z</time>
      </trkpt>
      <trkpt lat="42.518492303788661956787109375" lon="-0.18996384926140308380126953125">
        <ele>1175.5999755859375</ele>
        <time>2020-08-18T07:49:11.000Z</time>
      </trkpt>
      <trkpt lat="42.51847143284976482391357421875" lon="-0.18996384926140308380126953125">
        <ele>1175.5999755859375</ele>
        <time>2020-08-18T07:49:13.000Z</time>
      </trkpt>
      <trkpt lat="42.5184304453432559967041015625" lon="-0.1899527013301849365234375">
        <ele>1176</ele>
        <time>2020-08-18T07:49:16.000Z</time>
      </trkpt>
      <trkpt lat="42.5184161961078643798828125" lon="-0.18995261751115322113037109375">
        <ele>1176</ele>
        <time>2020-08-18T07:49:17.000Z</time>
      </trkpt>
      <trkpt lat="42.5183303654193878173828125" lon="-0.1899458281695842742919921875">
        <ele>1176.199951171875</ele>
        <time>2020-08-18T07:49:23.000Z</time>
      </trkpt>
      <trkpt lat="42.51826406456530094146728515625" lon="-0.18995010294020175933837890625">
        <ele>1176.800048828125</ele>
        <time>2020-08-18T07:49:27.000Z</time>
      </trkpt>
      <trkpt lat="42.51820228993892669677734375" lon="-0.1899532042443752288818359375">
        <ele>1177.199951171875</ele>
        <time>2020-08-18T07:49:30.000Z</time>
      </trkpt>
      <trkpt lat="42.51812509261071681976318359375" lon="-0.18995496444404125213623046875">
        <ele>1178</ele>
        <time>2020-08-18T07:49:34.000Z</time>
      </trkpt>
      <trkpt lat="42.518047727644443511962890625" lon="-0.18994926474988460540771484375">
        <ele>1179</ele>
        <time>2020-08-18T07:49:38.000Z</time>
      </trkpt>
      <trkpt lat="42.51802928745746612548828125" lon="-0.18994666635990142822265625">
        <ele>1179.199951171875</ele>
        <time>2020-08-18T07:49:39.000Z</time>
      </trkpt>
      <trkpt lat="42.51793599687516689300537109375" lon="-0.1899473369121551513671875">
        <ele>1180.199951171875</ele>
        <time>2020-08-18T07:49:44.000Z</time>
      </trkpt>
      <trkpt lat="42.5179204903542995452880859375" lon="-0.189945995807647705078125">
        <ele>1180.5999755859375</ele>
        <time>2020-08-18T07:49:45.000Z</time>
      </trkpt>
      <trkpt lat="42.51784496940672397613525390625" lon="-0.18992898054420948028564453125">
        <ele>1181.4000244140625</ele>
        <time>2020-08-18T07:49:50.000Z</time>
      </trkpt>
      <trkpt lat="42.5178125314414501190185546875" lon="-0.18991808407008647918701171875">
        <ele>1181.5999755859375</ele>
        <time>2020-08-18T07:49:52.000Z</time>
      </trkpt>
      <trkpt lat="42.5177706219255924224853515625" lon="-0.189899392426013946533203125">
        <ele>1181.800048828125</ele>
        <time>2020-08-18T07:49:55.000Z</time>
      </trkpt>
      <trkpt lat="42.51774656586349010467529296875" lon="-0.1898888312280178070068359375">
        <ele>1182</ele>
        <time>2020-08-18T07:49:57.000Z</time>
      </trkpt>
      <trkpt lat="42.51770784147083759307861328125" lon="-0.18986360169947147369384765625">
        <ele>1182.5999755859375</ele>
        <time>2020-08-18T07:50:00.000Z</time>
      </trkpt>
      <trkpt lat="42.51765436492860317230224609375" lon="-0.18983091227710247039794921875">
        <ele>1183.4000244140625</ele>
        <time>2020-08-18T07:50:04.000Z</time>
      </trkpt>
      <trkpt lat="42.51762720756232738494873046875" lon="-0.1898217760026454925537109375">
        <ele>1183.4000244140625</ele>
        <time>2020-08-18T07:50:09.000Z</time>
      </trkpt>
      <trkpt lat="42.5176274590194225311279296875" lon="-0.18982035107910633087158203125">
        <ele>1183.5999755859375</ele>
        <time>2020-08-18T07:50:28.000Z</time>
      </trkpt>
      <trkpt lat="42.51762720756232738494873046875" lon="-0.18981984816491603851318359375">
        <ele>1183.5999755859375</ele>
        <time>2020-08-18T07:50:29.000Z</time>
      </trkpt>
      <trkpt lat="42.5176277942955493927001953125" lon="-0.189819596707820892333984375">
        <ele>1183.4000244140625</ele>
        <time>2020-08-18T07:50:47.000Z</time>
      </trkpt>
      <trkpt lat="42.51756752841174602508544921875" lon="-0.18979168497025966644287109375">
        <ele>1183.5999755859375</ele>
        <time>2020-08-18T07:50:58.000Z</time>
      </trkpt>
      <trkpt lat="42.5175298936665058135986328125" lon="-0.18975949846208095550537109375">
        <ele>1183.5999755859375</ele>
        <time>2020-08-18T07:51:01.000Z</time>
      </trkpt>
      <trkpt lat="42.517489828169345855712890625" lon="-0.1897362805902957916259765625">
        <ele>1183.5999755859375</ele>
        <time>2020-08-18T07:51:04.000Z</time>
      </trkpt>
      <trkpt lat="42.517376840114593505859375" lon="-0.18968112766742706298828125">
        <ele>1183.800048828125</ele>
        <time>2020-08-18T07:51:12.000Z</time>
      </trkpt>
      <trkpt lat="42.5172710604965686798095703125" lon="-0.18964366056025028228759765625">
        <ele>1184.199951171875</ele>
        <time>2020-08-18T07:51:18.000Z</time>
      </trkpt>
      <trkpt lat="42.51715899445116519927978515625" lon="-0.18961901776492595672607421875">
        <ele>1184.4000244140625</ele>
        <time>2020-08-18T07:51:23.000Z</time>
      </trkpt>
      <trkpt lat="42.516931593418121337890625" lon="-0.18959588371217250823974609375">
        <ele>1183.199951171875</ele>
        <time>2020-08-18T07:51:29.000Z</time>
      </trkpt>
      <trkpt lat="42.5167714990675449371337890625" lon="-0.18957308493554592132568359375">
        <ele>1183</ele>
        <time>2020-08-18T07:51:34.000Z</time>
      </trkpt>
      <trkpt lat="42.51665188930928707122802734375" lon="-0.18957375548779964447021484375">
        <ele>1183</ele>
        <time>2020-08-18T07:51:38.000Z</time>
      </trkpt>
      <trkpt lat="42.516496069729328155517578125" lon="-0.18957291729748249053955078125">
        <ele>1182.4000244140625</ele>
        <time>2020-08-18T07:51:43.000Z</time>
      </trkpt>
      <trkpt lat="42.51635818742215633392333984375" lon="-0.18958515487611293792724609375">
        <ele>1183</ele>
        <time>2020-08-18T07:51:49.000Z</time>
      </trkpt>
      <trkpt lat="42.5162370689213275909423828125" lon="-0.1895790360867977142333984375">
        <ele>1183.5999755859375</ele>
        <time>2020-08-18T07:51:54.000Z</time>
      </trkpt>
      <trkpt lat="42.51613522879779338836669921875" lon="-0.189564786851406097412109375">
        <ele>1184.4000244140625</ele>
        <time>2020-08-18T07:51:59.000Z</time>
      </trkpt>
      <trkpt lat="42.5160074047744274139404296875" lon="-0.18956579267978668212890625">
        <ele>1184.4000244140625</ele>
        <time>2020-08-18T07:52:05.000Z</time>
      </trkpt>
      <trkpt lat="42.5158573687076568603515625" lon="-0.18956311047077178955078125">
        <ele>1184</ele>
        <time>2020-08-18T07:52:11.000Z</time>
      </trkpt>
      <trkpt lat="42.51573205925524234771728515625" lon="-0.18955062143504619598388671875">
        <ele>1184.5999755859375</ele>
        <time>2020-08-18T07:52:17.000Z</time>
      </trkpt>
      <trkpt lat="42.5157147087156772613525390625" lon="-0.18955774605274200439453125">
        <ele>1184.5999755859375</ele>
        <time>2020-08-18T07:52:18.000Z</time>
      </trkpt>
      <trkpt lat="42.5156054086983203887939453125" lon="-0.189597643911838531494140625">
        <ele>1184.5999755859375</ele>
        <time>2020-08-18T07:52:24.000Z</time>
      </trkpt>
      <trkpt lat="42.5154260359704494476318359375" lon="-0.18958666361868381500244140625">
        <ele>1183.4000244140625</ele>
        <time>2020-08-18T07:52:31.000Z</time>
      </trkpt>
      <trkpt lat="42.51536074094474315643310546875" lon="-0.18957409076392650604248046875">
        <ele>1183</ele>
        <time>2020-08-18T07:52:33.000Z</time>
      </trkpt>
      <trkpt lat="42.5152620859444141387939453125" lon="-0.18955162726342678070068359375">
        <ele>1181.800048828125</ele>
        <time>2020-08-18T07:52:36.000Z</time>
      </trkpt>
      <trkpt lat="42.5151997245848178863525390625" lon="-0.1895237155258655548095703125">
        <ele>1180.5999755859375</ele>
        <time>2020-08-18T07:52:38.000Z</time>
      </trkpt>
      <trkpt lat="42.5150062702596187591552734375" lon="-0.1894714124500751495361328125">
        <ele>1179.5999755859375</ele>
        <time>2020-08-18T07:52:44.000Z</time>
      </trkpt>
      <trkpt lat="42.51497265882790088653564453125" lon="-0.18946093507111072540283203125">
        <ele>1179.5999755859375</ele>
        <time>2020-08-18T07:52:45.000Z</time>
      </trkpt>
      <trkpt lat="42.51483486033976078033447265625" lon="-0.189423300325870513916015625">
        <ele>1178.5999755859375</ele>
        <time>2020-08-18T07:52:49.000Z</time>
      </trkpt>
      <trkpt lat="42.5147668831050395965576171875" lon="-0.18939354456961154937744140625">
        <ele>1178</ele>
        <time>2020-08-18T07:52:51.000Z</time>
      </trkpt>
      <trkpt lat="42.5146921165287494659423828125" lon="-0.18937543965876102447509765625">
        <ele>1177.4000244140625</ele>
        <time>2020-08-18T07:52:53.000Z</time>
      </trkpt>
      <trkpt lat="42.514569573104381561279296875" lon="-0.18934258259832859039306640625">
        <ele>1176.4000244140625</ele>
        <time>2020-08-18T07:52:57.000Z</time>
      </trkpt>
      <trkpt lat="42.51445256173610687255859375" lon="-0.18932078965008258819580078125">
        <ele>1176.800048828125</ele>
        <time>2020-08-18T07:53:03.000Z</time>
      </trkpt>
      <trkpt lat="42.51441827975213527679443359375" lon="-0.1893128268420696258544921875">
        <ele>1176.199951171875</ele>
        <time>2020-08-18T07:53:05.000Z</time>
      </trkpt>
      <trkpt lat="42.51427914015948772430419921875" lon="-0.18930402584373950958251953125">
        <ele>1175.5999755859375</ele>
        <time>2020-08-18T07:53:12.000Z</time>
      </trkpt>
      <trkpt lat="42.514098845422267913818359375" lon="-0.18931877799332141876220703125">
        <ele>1175</ele>
        <time>2020-08-18T07:53:18.000Z</time>
      </trkpt>
      <trkpt lat="42.5140668265521526336669921875" lon="-0.1893218792974948883056640625">
        <ele>1175</ele>
        <time>2020-08-18T07:53:19.000Z</time>
      </trkpt>
      <trkpt lat="42.51396649517118930816650390625" lon="-0.189340822398662567138671875">
        <ele>1174</ele>
        <time>2020-08-18T07:53:23.000Z</time>
      </trkpt>
      <trkpt lat="42.513818554580211639404296875" lon="-0.18933721818029880523681640625">
        <ele>1173</ele>
        <time>2020-08-18T07:53:28.000Z</time>
      </trkpt>
      <trkpt lat="42.51379567198455333709716796875" lon="-0.18933000974357128143310546875">
        <ele>1172.800048828125</ele>
        <time>2020-08-18T07:53:29.000Z</time>
      </trkpt>
      <trkpt lat="42.5137008726596832275390625" lon="-0.18930771388113498687744140625">
        <ele>1173</ele>
        <time>2020-08-18T07:53:34.000Z</time>
      </trkpt>
      <trkpt lat="42.5135759823024272918701171875" lon="-0.1892668940126895904541015625">
        <ele>1173.5999755859375</ele>
        <time>2020-08-18T07:53:41.000Z</time>
      </trkpt>
      <trkpt lat="42.51351647078990936279296875" lon="-0.1892417483031749725341796875">
        <ele>1173.800048828125</ele>
        <time>2020-08-18T07:53:44.000Z</time>
      </trkpt>
      <trkpt lat="42.513450421392917633056640625" lon="-0.189221799373626708984375">
        <ele>1174.199951171875</ele>
        <time>2020-08-18T07:53:48.000Z</time>
      </trkpt>
      <trkpt lat="42.5133114494383335113525390625" lon="-0.18921316601336002349853515625">
        <ele>1174.4000244140625</ele>
        <time>2020-08-18T07:53:55.000Z</time>
      </trkpt>
      <trkpt lat="42.51312729902565479278564453125" lon="-0.18919506110250949859619140625">
        <ele>1174</ele>
        <time>2020-08-18T07:54:03.000Z</time>
      </trkpt>
      <trkpt lat="42.51302990131080150604248046875" lon="-0.18915516324341297149658203125">
        <ele>1173.5999755859375</ele>
        <time>2020-08-18T07:54:08.000Z</time>
      </trkpt>
      <trkpt lat="42.5129691325128078460693359375" lon="-0.18914108164608478546142578125">
        <ele>1173.4000244140625</ele>
        <time>2020-08-18T07:54:13.000Z</time>
      </trkpt>
      <trkpt lat="42.51296469010412693023681640625" lon="-0.1891391538083553314208984375">
        <ele>1172.800048828125</ele>
        <time>2020-08-18T07:54:21.000Z</time>
      </trkpt>
      <trkpt lat="42.5129322521388530731201171875" lon="-0.18912884406745433807373046875">
        <ele>1172.800048828125</ele>
        <time>2020-08-18T07:54:28.000Z</time>
      </trkpt>
      <trkpt lat="42.5129161588847637176513671875" lon="-0.189122892916202545166015625">
        <ele>1172.5999755859375</ele>
        <time>2020-08-18T07:54:30.000Z</time>
      </trkpt>
      <trkpt lat="42.5128866545855998992919921875" lon="-0.189114175736904144287109375">
        <ele>1172.4000244140625</ele>
        <time>2020-08-18T07:54:35.000Z</time>
      </trkpt>
      <trkpt lat="42.51283544115722179412841796875" lon="-0.1891227252781391143798828125">
        <ele>1172.4000244140625</ele>
        <time>2020-08-18T07:54:43.000Z</time>
      </trkpt>
      <trkpt lat="42.51279369927942752838134765625" lon="-0.18909581936895847320556640625">
        <ele>1172.4000244140625</ele>
        <time>2020-08-18T07:54:48.000Z</time>
      </trkpt>
      <trkpt lat="42.51272597350180149078369140625" lon="-0.18906480632722377777099609375">
        <ele>1172.5999755859375</ele>
        <time>2020-08-18T07:54:55.000Z</time>
      </trkpt>
      <trkpt lat="42.5126630254089832305908203125" lon="-0.1890291832387447357177734375">
        <ele>1173.199951171875</ele>
        <time>2020-08-18T07:55:02.000Z</time>
      </trkpt>
      <trkpt lat="42.5125986523926258087158203125" lon="-0.18905751407146453857421875">
        <ele>1173.5999755859375</ele>
        <time>2020-08-18T07:55:10.000Z</time>
      </trkpt>
      <trkpt lat="42.51259018667042255401611328125" lon="-0.1890617050230503082275390625">
        <ele>1173.5999755859375</ele>
        <time>2020-08-18T07:55:11.000Z</time>
      </trkpt>
      <trkpt lat="42.51251642592251300811767578125" lon="-0.1890783011913299560546875">
        <ele>1174</ele>
        <time>2020-08-18T07:55:20.000Z</time>
      </trkpt>
      <trkpt lat="42.512463368475437164306640625" lon="-0.189139656722545623779296875">
        <ele>1174.199951171875</ele>
        <time>2020-08-18T07:55:28.000Z</time>
      </trkpt>
      <trkpt lat="42.51241140067577362060546875" lon="-0.18922305665910243988037109375">
        <ele>1174</ele>
        <time>2020-08-18T07:55:36.000Z</time>
      </trkpt>
      <trkpt lat="42.51237594522535800933837890625" lon="-0.18928726203739643096923828125">
        <ele>1174.199951171875</ele>
        <time>2020-08-18T07:55:44.000Z</time>
      </trkpt>
      <trkpt lat="42.5123475305736064910888671875" lon="-0.18937175162136554718017578125">
        <ele>1174.800048828125</ele>
        <time>2020-08-18T07:55:52.000Z</time>
      </trkpt>
      <trkpt lat="42.5123183615505695343017578125" lon="-0.189442746341228485107421875">
        <ele>1174.800048828125</ele>
        <time>2020-08-18T07:56:00.000Z</time>
      </trkpt>
      <trkpt lat="42.51227796077728271484375" lon="-0.1895331032574176788330078125">
        <ele>1174.5999755859375</ele>
        <time>2020-08-18T07:56:08.000Z</time>
      </trkpt>
      <trkpt lat="42.51225071959197521209716796875" lon="-0.1896450854837894439697265625">
        <ele>1174.800048828125</ele>
        <time>2020-08-18T07:56:16.000Z</time>
      </trkpt>
      <trkpt lat="42.51221082173287868499755859375" lon="-0.1897255517542362213134765625">
        <ele>1175.5999755859375</ele>
        <time>2020-08-18T07:56:24.000Z</time>
      </trkpt>
      <trkpt lat="42.5122077204287052154541015625" lon="-0.1897354423999786376953125">
        <ele>1175.5999755859375</ele>
        <time>2020-08-18T07:56:25.000Z</time>
      </trkpt>
      <trkpt lat="42.5121969915926456451416015625" lon="-0.18977123312652111053466796875">
        <ele>1176.199951171875</ele>
        <time>2020-08-18T07:56:32.000Z</time>
      </trkpt>
      <trkpt lat="42.51216329634189605712890625" lon="-0.1897993125021457672119140625">
        <ele>1176</ele>
        <time>2020-08-18T07:56:39.000Z</time>
      </trkpt>
      <trkpt lat="42.51212465576827526092529296875" lon="-0.1898358575999736785888671875">
        <ele>1176.5999755859375</ele>
        <time>2020-08-18T07:56:42.000Z</time>
      </trkpt>
      <trkpt lat="42.512030191719532012939453125" lon="-0.189925543963909149169921875">
        <ele>1176.5999755859375</ele>
        <time>2020-08-18T07:56:49.000Z</time>
      </trkpt>
      <trkpt lat="42.5119220651686191558837890625" lon="-0.1900098659098148345947265625">
        <ele>1177</ele>
        <time>2020-08-18T07:56:57.000Z</time>
      </trkpt>
      <trkpt lat="42.5118804909288883209228515625" lon="-0.1900440640747547149658203125">
        <ele>1177.5999755859375</ele>
        <time>2020-08-18T07:57:00.000Z</time>
      </trkpt>
      <trkpt lat="42.5117919780313968658447265625" lon="-0.1900946907699108123779296875">
        <ele>1178.199951171875</ele>
        <time>2020-08-18T07:57:06.000Z</time>
      </trkpt>
      <trkpt lat="42.511684857308864593505859375" lon="-0.190140120685100555419921875">
        <ele>1178.4000244140625</ele>
        <time>2020-08-18T07:57:13.000Z</time>
      </trkpt>
      <trkpt lat="42.51157932914793491363525390625" lon="-0.19018672406673431396484375">
        <ele>1178.800048828125</ele>
        <time>2020-08-18T07:57:19.000Z</time>
      </trkpt>
      <trkpt lat="42.5115613080561161041259765625" lon="-0.190195105969905853271484375">
        <ele>1178.800048828125</ele>
        <time>2020-08-18T07:57:20.000Z</time>
      </trkpt>
      <trkpt lat="42.51134212128818035125732421875" lon="-0.19026190973818302154541015625">
        <ele>1179.4000244140625</ele>
        <time>2020-08-18T07:57:32.000Z</time>
      </trkpt>
      <trkpt lat="42.5112870521843433380126953125" lon="-0.19028454087674617767333984375">
        <ele>1179.800048828125</ele>
        <time>2020-08-18T07:57:35.000Z</time>
      </trkpt>
      <trkpt lat="42.511153109371662139892578125" lon="-0.19033902324736118316650390625">
        <ele>1180.4000244140625</ele>
        <time>2020-08-18T07:57:42.000Z</time>
      </trkpt>
      <trkpt lat="42.51099242828786373138427734375" lon="-0.19042284227907657623291015625">
        <ele>1180.800048828125</ele>
        <time>2020-08-18T07:57:50.000Z</time>
      </trkpt>
      <trkpt lat="42.51097281463444232940673828125" lon="-0.1904354989528656005859375">
        <ele>1180.800048828125</ele>
        <time>2020-08-18T07:57:51.000Z</time>
      </trkpt>
      <trkpt lat="42.51090056262910366058349609375" lon="-0.1905550248920917510986328125">
        <ele>1181.199951171875</ele>
        <time>2020-08-18T07:57:57.000Z</time>
      </trkpt>
      <trkpt lat="42.51096032559871673583984375" lon="-0.19062970764935016632080078125">
        <ele>1181.5999755859375</ele>
        <time>2020-08-18T07:58:01.000Z</time>
      </trkpt>
      <trkpt lat="42.51097968779504299163818359375" lon="-0.19062903709709644317626953125">
        <ele>1181.800048828125</ele>
        <time>2020-08-18T07:58:02.000Z</time>
      </trkpt>
      <trkpt lat="42.51101723872125148773193359375" lon="-0.1906039752066135406494140625">
        <ele>1182.800048828125</ele>
        <time>2020-08-18T07:58:04.000Z</time>
      </trkpt>
      <trkpt lat="42.5110362656414508819580078125" lon="-0.1905908994376659393310546875">
        <ele>1183</ele>
        <time>2020-08-18T07:58:05.000Z</time>
      </trkpt>
      <trkpt lat="42.5110530294477939605712890625" lon="-0.190578661859035491943359375">
        <ele>1183</ele>
        <time>2020-08-18T07:58:06.000Z</time>
      </trkpt>
      <trkpt lat="42.51115612685680389404296875" lon="-0.190539099276065826416015625">
        <ele>1183.800048828125</ele>
        <time>2020-08-18T07:58:12.000Z</time>
      </trkpt>
      <trkpt lat="42.5111733935773372650146484375" lon="-0.19053348340094089508056640625">
        <ele>1184.199951171875</ele>
        <time>2020-08-18T07:58:13.000Z</time>
      </trkpt>
      <trkpt lat="42.511291913688182830810546875" lon="-0.190486125648021697998046875">
        <ele>1185.5999755859375</ele>
        <time>2020-08-18T07:58:20.000Z</time>
      </trkpt>
      <trkpt lat="42.5113101862370967864990234375" lon="-0.190480090677738189697265625">
        <ele>1186</ele>
        <time>2020-08-18T07:58:21.000Z</time>
      </trkpt>
      <trkpt lat="42.511360310018062591552734375" lon="-0.1904661767184734344482421875">
        <ele>1186.5999755859375</ele>
        <time>2020-08-18T07:58:24.000Z</time>
      </trkpt>
      <trkpt lat="42.51145041547715663909912109375" lon="-0.19043256528675556182861328125">
        <ele>1187.199951171875</ele>
        <time>2020-08-18T07:58:29.000Z</time>
      </trkpt>
      <trkpt lat="42.51150473020970821380615234375" lon="-0.19042183645069599151611328125">
        <ele>1188</ele>
        <time>2020-08-18T07:58:32.000Z</time>
      </trkpt>
      <trkpt lat="42.5115522556006908416748046875" lon="-0.1904051564633846282958984375">
        <ele>1189</ele>
        <time>2020-08-18T07:58:35.000Z</time>
      </trkpt>
      <trkpt lat="42.51160698942840099334716796875" lon="-0.19039032049477100372314453125">
        <ele>1189.199951171875</ele>
        <time>2020-08-18T07:58:38.000Z</time>
      </trkpt>
      <trkpt lat="42.51166868023574352264404296875" lon="-0.19038009457290172576904296875">
        <ele>1190</ele>
        <time>2020-08-18T07:58:42.000Z</time>
      </trkpt>
      <trkpt lat="42.511720396578311920166015625" lon="-0.1903686113655567169189453125">
        <ele>1190.5999755859375</ele>
        <time>2020-08-18T07:58:45.000Z</time>
      </trkpt>
      <trkpt lat="42.5118219852447509765625" lon="-0.190345309674739837646484375">
        <ele>1191.199951171875</ele>
        <time>2020-08-18T07:58:51.000Z</time>
      </trkpt>
      <trkpt lat="42.5118902139365673065185546875" lon="-0.19032443873584270477294921875">
        <ele>1191.5999755859375</ele>
        <time>2020-08-18T07:58:55.000Z</time>
      </trkpt>
      <trkpt lat="42.51194008626043796539306640625" lon="-0.19029677845537662506103515625">
        <ele>1192.199951171875</ele>
        <time>2020-08-18T07:58:58.000Z</time>
      </trkpt>
      <trkpt lat="42.51202239654958248138427734375" lon="-0.19023366272449493408203125">
        <ele>1193.4000244140625</ele>
        <time>2020-08-18T07:59:04.000Z</time>
      </trkpt>
      <trkpt lat="42.5120374001562595367431640625" lon="-0.1902271248400211334228515625">
        <ele>1193.4000244140625</ele>
        <time>2020-08-18T07:59:05.000Z</time>
      </trkpt>
      <trkpt lat="42.51213890500366687774658203125" lon="-0.1901805214583873748779296875">
        <ele>1193.800048828125</ele>
        <time>2020-08-18T07:59:12.000Z</time>
      </trkpt>
      <trkpt lat="42.51225004903972148895263671875" lon="-0.19009913317859172821044921875">
        <ele>1194</ele>
        <time>2020-08-18T07:59:20.000Z</time>
      </trkpt>
      <trkpt lat="42.5123113207519054412841796875" lon="-0.19005102105438709259033203125">
        <ele>1194.4000244140625</ele>
        <time>2020-08-18T07:59:24.000Z</time>
      </trkpt>
      <trkpt lat="42.51236270181834697723388671875" lon="-0.189976505935192108154296875">
        <ele>1194.800048828125</ele>
        <time>2020-08-18T07:59:28.000Z</time>
      </trkpt>
      <trkpt lat="42.5124390609562397003173828125" lon="-0.18989964388310909271240234375">
        <ele>1195.5999755859375</ele>
        <time>2020-08-18T07:59:33.000Z</time>
      </trkpt>
      <trkpt lat="42.512512989342212677001953125" lon="-0.1898462511599063873291015625">
        <ele>1196.4000244140625</ele>
        <time>2020-08-18T07:59:38.000Z</time>
      </trkpt>
      <trkpt lat="42.51252933405339717864990234375" lon="-0.189845077693462371826171875">
        <ele>1196.800048828125</ele>
        <time>2020-08-18T07:59:39.000Z</time>
      </trkpt>
      <trkpt lat="42.51263310201466083526611328125" lon="-0.18985354341566562652587890625">
        <ele>1197</ele>
        <time>2020-08-18T07:59:45.000Z</time>
      </trkpt>
      <trkpt lat="42.51270619221031665802001953125" lon="-0.1898998953402042388916015625">
        <ele>1197.5999755859375</ele>
        <time>2020-08-18T07:59:50.000Z</time>
      </trkpt>
      <trkpt lat="42.51273569650948047637939453125" lon="-0.18992344848811626434326171875">
        <ele>1197.800048828125</ele>
        <time>2020-08-18T07:59:52.000Z</time>
      </trkpt>
      <trkpt lat="42.512827813625335693359375" lon="-0.19000659696757793426513671875">
        <ele>1198.5999755859375</ele>
        <time>2020-08-18T07:59:58.000Z</time>
      </trkpt>
      <trkpt lat="42.51284918747842311859130859375" lon="-0.1900500990450382232666015625">
        <ele>1198.800048828125</ele>
        <time>2020-08-18T08:00:00.000Z</time>
      </trkpt>
      <trkpt lat="42.51290492713451385498046875" lon="-0.19020440988242626190185546875">
        <ele>1199.800048828125</ele>
        <time>2020-08-18T08:00:07.000Z</time>
      </trkpt>
      <trkpt lat="42.5129439868032932281494140625" lon="-0.1903116144239902496337890625">
        <ele>1200.800048828125</ele>
        <time>2020-08-18T08:00:12.000Z</time>
      </trkpt>
      <trkpt lat="42.51295077614486217498779296875" lon="-0.19032930023968219757080078125">
        <ele>1200.800048828125</ele>
        <time>2020-08-18T08:00:13.000Z</time>
      </trkpt>
      <trkpt lat="42.5130197592079639434814453125" lon="-0.19042217172682285308837890625">
        <ele>1201.4000244140625</ele>
        <time>2020-08-18T08:00:19.000Z</time>
      </trkpt>
      <trkpt lat="42.51304498873651027679443359375" lon="-0.19044295884668827056884765625">
        <ele>1201.5999755859375</ele>
        <time>2020-08-18T08:00:21.000Z</time>
      </trkpt>
      <trkpt lat="42.51307927072048187255859375" lon="-0.1904500834643840789794921875">
        <ele>1201.5999755859375</ele>
        <time>2020-08-18T08:00:23.000Z</time>
      </trkpt>
      <trkpt lat="42.51320558600127696990966796875" lon="-0.19045318476855754852294921875">
        <ele>1202.4000244140625</ele>
        <time>2020-08-18T08:00:30.000Z</time>
      </trkpt>
      <trkpt lat="42.51322369091212749481201171875" lon="-0.19045787863433361053466796875">
        <ele>1202.5999755859375</ele>
        <time>2020-08-18T08:00:31.000Z</time>
      </trkpt>
      <trkpt lat="42.5133164785802364349365234375" lon="-0.190451927483081817626953125">
        <ele>1203.800048828125</ele>
        <time>2020-08-18T08:00:36.000Z</time>
      </trkpt>
      <trkpt lat="42.513412199914455413818359375" lon="-0.190433822572231292724609375">
        <ele>1205</ele>
        <time>2020-08-18T08:00:41.000Z</time>
      </trkpt>
      <trkpt lat="42.5134824402630329132080078125" lon="-0.19043943844735622406005859375">
        <ele>1205.199951171875</ele>
        <time>2020-08-18T08:00:45.000Z</time>
      </trkpt>
      <trkpt lat="42.51358629204332828521728515625" lon="-0.19048319198191165924072265625">
        <ele>1206.199951171875</ele>
        <time>2020-08-18T08:00:51.000Z</time>
      </trkpt>
      <trkpt lat="42.5136202387511730194091796875" lon="-0.19051118753850460052490234375">
        <ele>1206.5999755859375</ele>
        <time>2020-08-18T08:00:53.000Z</time>
      </trkpt>
      <trkpt lat="42.51366709358990192413330078125" lon="-0.1905473135411739349365234375">
        <ele>1207.4000244140625</ele>
        <time>2020-08-18T08:00:56.000Z</time>
      </trkpt>
      <trkpt lat="42.5136955082416534423828125" lon="-0.190567262470722198486328125">
        <ele>1208.4000244140625</ele>
        <time>2020-08-18T08:00:58.000Z</time>
      </trkpt>
      <trkpt lat="42.51371151767671108245849609375" lon="-0.1905754767358303070068359375">
        <ele>1208.5999755859375</ele>
        <time>2020-08-18T08:00:59.000Z</time>
      </trkpt>
      <trkpt lat="42.51377957873046398162841796875" lon="-0.19060959108173847198486328125">
        <ele>1209.5999755859375</ele>
        <time>2020-08-18T08:01:03.000Z</time>
      </trkpt>
      <trkpt lat="42.513817884027957916259765625" lon="-0.1906277798116207122802734375">
        <ele>1210.199951171875</ele>
        <time>2020-08-18T08:01:05.000Z</time>
      </trkpt>
      <trkpt lat="42.5138666667044162750244140625" lon="-0.19065384753048419952392578125">
        <ele>1210.5999755859375</ele>
        <time>2020-08-18T08:01:08.000Z</time>
      </trkpt>
      <trkpt lat="42.513899020850658416748046875" lon="-0.19066709093749523162841796875">
        <ele>1211</ele>
        <time>2020-08-18T08:01:10.000Z</time>
      </trkpt>
      <trkpt lat="42.5139454565942287445068359375" lon="-0.1906991936266422271728515625">
        <ele>1211.800048828125</ele>
        <time>2020-08-18T08:01:13.000Z</time>
      </trkpt>
      <trkpt lat="42.513997256755828857421875" lon="-0.1907320506870746612548828125">
        <ele>1212.4000244140625</ele>
        <time>2020-08-18T08:01:16.000Z</time>
      </trkpt>
      <trkpt lat="42.5140145234763622283935546875" lon="-0.19074085168540477752685546875">
        <ele>1213</ele>
        <time>2020-08-18T08:01:17.000Z</time>
      </trkpt>
      <trkpt lat="42.51407034695148468017578125" lon="-0.190782845020294189453125">
        <ele>1214.4000244140625</ele>
        <time>2020-08-18T08:01:20.000Z</time>
      </trkpt>
      <trkpt lat="42.514107562601566314697265625" lon="-0.19080790691077709197998046875">
        <ele>1214.5999755859375</ele>
        <time>2020-08-18T08:01:22.000Z</time>
      </trkpt>
      <trkpt lat="42.51416430808603763580322265625" lon="-0.19083523191511631011962890625">
        <ele>1215.4000244140625</ele>
        <time>2020-08-18T08:01:25.000Z</time>
      </trkpt>
      <trkpt lat="42.51423421315848827362060546875" lon="-0.19087278284132480621337890625">
        <ele>1216.199951171875</ele>
        <time>2020-08-18T08:01:29.000Z</time>
      </trkpt>
      <trkpt lat="42.514261789619922637939453125" lon="-0.1908862777054309844970703125">
        <ele>1216.5999755859375</ele>
        <time>2020-08-18T08:01:31.000Z</time>
      </trkpt>
      <trkpt lat="42.51428131945431232452392578125" lon="-0.19089172594249248504638671875">
        <ele>1217</ele>
        <time>2020-08-18T08:01:34.000Z</time>
      </trkpt>
      <trkpt lat="42.51428651623427867889404296875" lon="-0.19089558161795139312744140625">
        <ele>1217.4000244140625</ele>
        <time>2020-08-18T08:01:36.000Z</time>
      </trkpt>
      <trkpt lat="42.51428651623427867889404296875" lon="-0.19089616835117340087890625">
        <ele>1217.4000244140625</ele>
        <time>2020-08-18T08:03:43.000Z</time>
      </trkpt>
      <trkpt lat="42.51431669108569622039794921875" lon="-0.1909047178924083709716796875">
        <ele>1217.800048828125</ele>
        <time>2020-08-18T08:03:49.000Z</time>
      </trkpt>
      <trkpt lat="42.5143658928573131561279296875" lon="-0.190912596881389617919921875">
        <ele>1218</ele>
        <time>2020-08-18T08:03:57.000Z</time>
      </trkpt>
      <trkpt lat="42.51437938772141933441162109375" lon="-0.1909156143665313720703125">
        <ele>1218.199951171875</ele>
        <time>2020-08-18T08:04:00.000Z</time>
      </trkpt>
      <trkpt lat="42.514376454055309295654296875" lon="-0.19092843867838382720947265625">
        <ele>1218.4000244140625</ele>
        <time>2020-08-18T08:04:05.000Z</time>
      </trkpt>
      <trkpt lat="42.51437569968402385711669921875" lon="-0.1909328810870647430419921875">
        <ele>1218.4000244140625</ele>
        <time>2020-08-18T08:04:14.000Z</time>
      </trkpt>
      <trkpt lat="42.51437569968402385711669921875" lon="-0.1909342221915721893310546875">
        <ele>1218.199951171875</ele>
        <time>2020-08-18T08:04:30.000Z</time>
      </trkpt>
      <trkpt lat="42.51440302468836307525634765625" lon="-0.19094838760793209075927734375">
        <ele>1218.4000244140625</ele>
        <time>2020-08-18T08:04:39.000Z</time>
      </trkpt>
      <trkpt lat="42.514460943639278411865234375" lon="-0.190983675420284271240234375">
        <ele>1218.800048828125</ele>
        <time>2020-08-18T08:04:44.000Z</time>
      </trkpt>
      <trkpt lat="42.51447209157049655914306640625" lon="-0.19099147059023380279541015625">
        <ele>1219</ele>
        <time>2020-08-18T08:04:45.000Z</time>
      </trkpt>
      <trkpt lat="42.51454132609069347381591796875" lon="-0.19102600403130054473876953125">
        <ele>1219.800048828125</ele>
        <time>2020-08-18T08:04:51.000Z</time>
      </trkpt>
      <trkpt lat="42.5145549885928630828857421875" lon="-0.1910280995070934295654296875">
        <ele>1220</ele>
        <time>2020-08-18T08:04:52.000Z</time>
      </trkpt>
      <trkpt lat="42.514621205627918243408203125" lon="-0.1910522393882274627685546875">
        <ele>1220.4000244140625</ele>
        <time>2020-08-18T08:04:57.000Z</time>
      </trkpt>
      <trkpt lat="42.51467124558985233306884765625" lon="-0.1910462044179439544677734375">
        <ele>1221</ele>
        <time>2020-08-18T08:05:01.000Z</time>
      </trkpt>
      <trkpt lat="42.5147182680666446685791015625" lon="-0.1910388283431529998779296875">
        <ele>1221.199951171875</ele>
        <time>2020-08-18T08:05:04.000Z</time>
      </trkpt>
      <trkpt lat="42.51482161693274974822998046875" lon="-0.1909955777227878570556640625">
        <ele>1222</ele>
        <time>2020-08-18T08:05:11.000Z</time>
      </trkpt>
      <trkpt lat="42.51491398550570011138916015625" lon="-0.19096431322395801544189453125">
        <ele>1222.199951171875</ele>
        <time>2020-08-18T08:05:17.000Z</time>
      </trkpt>
      <trkpt lat="42.515020184218883514404296875" lon="-0.19095207564532756805419921875">
        <ele>1221.800048828125</ele>
        <time>2020-08-18T08:05:21.000Z</time>
      </trkpt>
      <trkpt lat="42.51514364965260028839111328125" lon="-0.19097906537353992462158203125">
        <ele>1220.800048828125</ele>
        <time>2020-08-18T08:05:25.000Z</time>
      </trkpt>
      <trkpt lat="42.51517181284725666046142578125" lon="-0.19098862074315547943115234375">
        <ele>1220.5999755859375</ele>
        <time>2020-08-18T08:05:26.000Z</time>
      </trkpt>
      <trkpt lat="42.51530189998447895050048828125" lon="-0.19104310311377048492431640625">
        <ele>1220.800048828125</ele>
        <time>2020-08-18T08:05:31.000Z</time>
      </trkpt>
      <trkpt lat="42.51545662991702556610107421875" lon="-0.19107989966869354248046875">
        <ele>1221</ele>
        <time>2020-08-18T08:05:38.000Z</time>
      </trkpt>
      <trkpt lat="42.515568025410175323486328125" lon="-0.19110797904431819915771484375">
        <ele>1221.4000244140625</ele>
        <time>2020-08-18T08:05:43.000Z</time>
      </trkpt>
      <trkpt lat="42.51565461046993732452392578125" lon="-0.191129185259342193603515625">
        <ele>1221.5999755859375</ele>
        <time>2020-08-18T08:05:47.000Z</time>
      </trkpt>
      <trkpt lat="42.51568830572068691253662109375" lon="-0.1911441050469875335693359375">
        <ele>1221.800048828125</ele>
        <time>2020-08-18T08:05:49.000Z</time>
      </trkpt>
      <trkpt lat="42.515804059803485870361328125" lon="-0.191227085888385772705078125">
        <ele>1222</ele>
        <time>2020-08-18T08:05:55.000Z</time>
      </trkpt>
      <trkpt lat="42.5158555246889591217041015625" lon="-0.19129355438053607940673828125">
        <ele>1222.4000244140625</ele>
        <time>2020-08-18T08:05:59.000Z</time>
      </trkpt>
      <trkpt lat="42.51587891019880771636962890625" lon="-0.19133328460156917572021484375">
        <ele>1222.800048828125</ele>
        <time>2020-08-18T08:06:01.000Z</time>
      </trkpt>
      <trkpt lat="42.51593356020748615264892578125" lon="-0.19141324795782566070556640625">
        <ele>1223.199951171875</ele>
        <time>2020-08-18T08:06:05.000Z</time>
      </trkpt>
      <trkpt lat="42.51598385162651538848876953125" lon="-0.19149874337017536163330078125">
        <ele>1223.199951171875</ele>
        <time>2020-08-18T08:06:09.000Z</time>
      </trkpt>
      <trkpt lat="42.516035400331020355224609375" lon="-0.19160619936883449554443359375">
        <ele>1224.4000244140625</ele>
        <time>2020-08-18T08:06:13.000Z</time>
      </trkpt>
      <trkpt lat="42.51609566621482372283935546875" lon="-0.1916961371898651123046875">
        <ele>1224.5999755859375</ele>
        <time>2020-08-18T08:06:17.000Z</time>
      </trkpt>
      <trkpt lat="42.5161519087851047515869140625" lon="-0.191785991191864013671875">
        <ele>1225.199951171875</ele>
        <time>2020-08-18T08:06:21.000Z</time>
      </trkpt>
      <trkpt lat="42.5162082351744174957275390625" lon="-0.19186000339686870574951171875">
        <ele>1225.5999755859375</ele>
        <time>2020-08-18T08:06:25.000Z</time>
      </trkpt>
      <trkpt lat="42.516247965395450592041015625" lon="-0.1919108815491199493408203125">
        <ele>1226.4000244140625</ele>
        <time>2020-08-18T08:06:28.000Z</time>
      </trkpt>
      <trkpt lat="42.516284175217151641845703125" lon="-0.19195941276848316192626953125">
        <ele>1227.4000244140625</ele>
        <time>2020-08-18T08:06:31.000Z</time>
      </trkpt>
      <trkpt lat="42.51631678082048892974853515625" lon="-0.1920084469020366668701171875">
        <ele>1228.199951171875</ele>
        <time>2020-08-18T08:06:34.000Z</time>
      </trkpt>
      <trkpt lat="42.51632734201848506927490234375" lon="-0.19202403724193572998046875">
        <ele>1228.5999755859375</ele>
        <time>2020-08-18T08:06:35.000Z</time>
      </trkpt>
      <trkpt lat="42.516385428607463836669921875" lon="-0.19212822429835796356201171875">
        <ele>1229</ele>
        <time>2020-08-18T08:06:41.000Z</time>
      </trkpt>
      <trkpt lat="42.516406886279582977294921875" lon="-0.19216594286262989044189453125">
        <ele>1229.5999755859375</ele>
        <time>2020-08-18T08:06:43.000Z</time>
      </trkpt>
      <trkpt lat="42.51646329648792743682861328125" lon="-0.1922706328332424163818359375">
        <ele>1230.199951171875</ele>
        <time>2020-08-18T08:06:49.000Z</time>
      </trkpt>
      <trkpt lat="42.51647570170462131500244140625" lon="-0.19228362478315830230712890625">
        <ele>1230.4000244140625</ele>
        <time>2020-08-18T08:06:50.000Z</time>
      </trkpt>
      <trkpt lat="42.51656438224017620086669921875" lon="-0.19240549765527248382568359375">
        <ele>1231.199951171875</ele>
        <time>2020-08-18T08:06:58.000Z</time>
      </trkpt>
      <trkpt lat="42.51657393760979175567626953125" lon="-0.1924228481948375701904296875">
        <ele>1231.4000244140625</ele>
        <time>2020-08-18T08:06:59.000Z</time>
      </trkpt>
      <trkpt lat="42.51663831062614917755126953125" lon="-0.1925358362495899200439453125">
        <ele>1231.800048828125</ele>
        <time>2020-08-18T08:07:06.000Z</time>
      </trkpt>
      <trkpt lat="42.51666077412664890289306640625" lon="-0.19261403940618038177490234375">
        <ele>1232.4000244140625</ele>
        <time>2020-08-18T08:07:10.000Z</time>
      </trkpt>
      <trkpt lat="42.5166699104011058807373046875" lon="-0.192672125995159149169921875">
        <ele>1233</ele>
        <time>2020-08-18T08:07:13.000Z</time>
      </trkpt>
      <trkpt lat="42.5166715867817401885986328125" lon="-0.19271068274974822998046875">
        <ele>1233.5999755859375</ele>
        <time>2020-08-18T08:07:15.000Z</time>
      </trkpt>
      <trkpt lat="42.5166625343263149261474609375" lon="-0.192746222019195556640625">
        <ele>1234.5999755859375</ele>
        <time>2020-08-18T08:07:17.000Z</time>
      </trkpt>
      <trkpt lat="42.5166378915309906005859375" lon="-0.19279726780951023101806640625">
        <ele>1235.199951171875</ele>
        <time>2020-08-18T08:07:20.000Z</time>
      </trkpt>
      <trkpt lat="42.5166152603924274444580078125" lon="-0.19281771965324878692626953125">
        <ele>1235.4000244140625</ele>
        <time>2020-08-18T08:07:22.000Z</time>
      </trkpt>
      <trkpt lat="42.5165565870702266693115234375" lon="-0.19280883483588695526123046875">
        <ele>1235.199951171875</ele>
        <time>2020-08-18T08:07:26.000Z</time>
      </trkpt>
      <trkpt lat="42.51652884297072887420654296875" lon="-0.1927976869046688079833984375">
        <ele>1235</ele>
        <time>2020-08-18T08:07:28.000Z</time>
      </trkpt>
      <trkpt lat="42.5164878554642200469970703125" lon="-0.19278016872704029083251953125">
        <ele>1235.5999755859375</ele>
        <time>2020-08-18T08:07:31.000Z</time>
      </trkpt>
      <trkpt lat="42.51645005308091640472412109375" lon="-0.19275485537946224212646484375">
        <ele>1236.800048828125</ele>
        <time>2020-08-18T08:07:34.000Z</time>
      </trkpt>
      <trkpt lat="42.51634175889194011688232421875" lon="-0.19271445460617542266845703125">
        <ele>1237.5999755859375</ele>
        <time>2020-08-18T08:07:42.000Z</time>
      </trkpt>
      <trkpt lat="42.5163108296692371368408203125" lon="-0.1927138678729534149169921875">
        <ele>1237.800048828125</ele>
        <time>2020-08-18T08:07:44.000Z</time>
      </trkpt>
      <trkpt lat="42.5162516534328460693359375" lon="-0.1927675120532512664794921875">
        <ele>1238.5999755859375</ele>
        <time>2020-08-18T08:07:49.000Z</time>
      </trkpt>
      <trkpt lat="42.516234219074249267578125" lon="-0.1928224973380565643310546875">
        <ele>1238.800048828125</ele>
        <time>2020-08-18T08:07:52.000Z</time>
      </trkpt>
      <trkpt lat="42.5162273459136486053466796875" lon="-0.19292123615741729736328125">
        <ele>1239.5999755859375</ele>
        <time>2020-08-18T08:07:57.000Z</time>
      </trkpt>
      <trkpt lat="42.516232542693614959716796875" lon="-0.1929408498108386993408203125">
        <ele>1240</ele>
        <time>2020-08-18T08:07:58.000Z</time>
      </trkpt>
      <trkpt lat="42.51627453602850437164306640625" lon="-0.19302424974739551544189453125">
        <ele>1241.199951171875</ele>
        <time>2020-08-18T08:08:03.000Z</time>
      </trkpt>
      <trkpt lat="42.5162865221500396728515625" lon="-0.19303766079246997833251953125">
        <ele>1241.4000244140625</ele>
        <time>2020-08-18T08:08:04.000Z</time>
      </trkpt>
      <trkpt lat="42.51635827124118804931640625" lon="-0.1930987648665904998779296875">
        <ele>1242.199951171875</ele>
        <time>2020-08-18T08:08:09.000Z</time>
      </trkpt>
      <trkpt lat="42.516416274011135101318359375" lon="-0.1931433565914630889892578125">
        <ele>1243</ele>
        <time>2020-08-18T08:08:13.000Z</time>
      </trkpt>
      <trkpt lat="42.5164476223289966583251953125" lon="-0.1931634731590747833251953125">
        <ele>1243.199951171875</ele>
        <time>2020-08-18T08:08:15.000Z</time>
      </trkpt>
      <trkpt lat="42.51651308499276638031005859375" lon="-0.19321401603519916534423828125">
        <ele>1244</ele>
        <time>2020-08-18T08:08:20.000Z</time>
      </trkpt>
      <trkpt lat="42.5165720097720623016357421875" lon="-0.19325475208461284637451171875">
        <ele>1244.199951171875</ele>
        <time>2020-08-18T08:08:24.000Z</time>
      </trkpt>
      <trkpt lat="42.5166273303329944610595703125" lon="-0.1932893693447113037109375">
        <ele>1244.800048828125</ele>
        <time>2020-08-18T08:08:28.000Z</time>
      </trkpt>
      <trkpt lat="42.51676035113632678985595703125" lon="-0.19342071376740932464599609375">
        <ele>1245.199951171875</ele>
        <time>2020-08-18T08:08:37.000Z</time>
      </trkpt>
      <trkpt lat="42.5168033502995967864990234375" lon="-0.193470418453216552734375">
        <ele>1245.199951171875</ele>
        <time>2020-08-18T08:08:40.000Z</time>
      </trkpt>
      <trkpt lat="42.5168626941740512847900390625" lon="-0.193523727357387542724609375">
        <ele>1245.4000244140625</ele>
        <time>2020-08-18T08:08:44.000Z</time>
      </trkpt>
      <trkpt lat="42.51699797809123992919921875" lon="-0.1936160959303379058837890625">
        <ele>1246</ele>
        <time>2020-08-18T08:08:52.000Z</time>
      </trkpt>
      <trkpt lat="42.5170169211924076080322265625" lon="-0.193625651299953460693359375">
        <ele>1246.199951171875</ele>
        <time>2020-08-18T08:08:53.000Z</time>
      </trkpt>
      <trkpt lat="42.51712747849524021148681640625" lon="-0.19364316947758197784423828125">
        <ele>1247</ele>
        <time>2020-08-18T08:08:59.000Z</time>
      </trkpt>
      <trkpt lat="42.51716293394565582275390625" lon="-0.19363445229828357696533203125">
        <ele>1247.199951171875</ele>
        <time>2020-08-18T08:09:01.000Z</time>
      </trkpt>
      <trkpt lat="42.5172402150928974151611328125" lon="-0.19361299462616443634033203125">
        <ele>1248.199951171875</ele>
        <time>2020-08-18T08:09:05.000Z</time>
      </trkpt>
      <trkpt lat="42.51725949347019195556640625" lon="-0.193608887493610382080078125">
        <ele>1248.4000244140625</ele>
        <time>2020-08-18T08:09:06.000Z</time>
      </trkpt>
      <trkpt lat="42.5173790194094181060791015625" lon="-0.19357745535671710968017578125">
        <ele>1249.5999755859375</ele>
        <time>2020-08-18T08:09:13.000Z</time>
      </trkpt>
      <trkpt lat="42.51741330139338970184326171875" lon="-0.19356756471097469329833984375">
        <ele>1250</ele>
        <time>2020-08-18T08:09:15.000Z</time>
      </trkpt>
      <trkpt lat="42.51748345792293548583984375" lon="-0.19355163909494876861572265625">
        <ele>1250.5999755859375</ele>
        <time>2020-08-18T08:09:19.000Z</time>
      </trkpt>
      <trkpt lat="42.51756752841174602508544921875" lon="-0.19355046562850475311279296875">
        <ele>1251.5999755859375</ele>
        <time>2020-08-18T08:09:24.000Z</time>
      </trkpt>
      <trkpt lat="42.51767867244780063629150390625" lon="-0.193563289940357208251953125">
        <ele>1252.5999755859375</ele>
        <time>2020-08-18T08:09:31.000Z</time>
      </trkpt>
      <trkpt lat="42.5177092663943767547607421875" lon="-0.19356630742549896240234375">
        <ele>1253.199951171875</ele>
        <time>2020-08-18T08:09:33.000Z</time>
      </trkpt>
      <trkpt lat="42.517752349376678466796875" lon="-0.193577371537685394287109375">
        <ele>1253.800048828125</ele>
        <time>2020-08-18T08:09:36.000Z</time>
      </trkpt>
      <trkpt lat="42.51782015897333621978759765625" lon="-0.1936331950128078460693359375">
        <ele>1254.5999755859375</ele>
        <time>2020-08-18T08:09:41.000Z</time>
      </trkpt>
      <trkpt lat="42.5178343243896961212158203125" lon="-0.19364350475370883941650390625">
        <ele>1254.800048828125</ele>
        <time>2020-08-18T08:09:42.000Z</time>
      </trkpt>
      <trkpt lat="42.5179221667349338531494140625" lon="-0.1937150023877620697021484375">
        <ele>1255.5999755859375</ele>
        <time>2020-08-18T08:09:48.000Z</time>
      </trkpt>
      <trkpt lat="42.517965249717235565185546875" lon="-0.19375263713300228118896484375">
        <ele>1256</ele>
        <time>2020-08-18T08:09:51.000Z</time>
      </trkpt>
      <trkpt lat="42.51802526414394378662109375" lon="-0.19379907287657260894775390625">
        <ele>1257.199951171875</ele>
        <time>2020-08-18T08:09:55.000Z</time>
      </trkpt>
      <trkpt lat="42.518066503107547760009765625" lon="-0.1938370428979396820068359375">
        <ele>1258.199951171875</ele>
        <time>2020-08-18T08:09:58.000Z</time>
      </trkpt>
      <trkpt lat="42.51811386086046695709228515625" lon="-0.19389999099075794219970703125">
        <ele>1258.5999755859375</ele>
        <time>2020-08-18T08:10:02.000Z</time>
      </trkpt>
      <trkpt lat="42.518142946064472198486328125" lon="-0.193947851657867431640625">
        <ele>1259.800048828125</ele>
        <time>2020-08-18T08:10:05.000Z</time>
      </trkpt>
      <trkpt lat="42.5181803293526172637939453125" lon="-0.19400510005652904510498046875">
        <ele>1260.800048828125</ele>
        <time>2020-08-18T08:10:09.000Z</time>
      </trkpt>
      <trkpt lat="42.51819935627281665802001953125" lon="-0.19402991048991680145263671875">
        <ele>1261</ele>
        <time>2020-08-18T08:10:11.000Z</time>
      </trkpt>
      <trkpt lat="42.51824797131121158599853515625" lon="-0.19408707506954669952392578125">
        <ele>1262</ele>
        <time>2020-08-18T08:10:16.000Z</time>
      </trkpt>
      <trkpt lat="42.5183110870420932769775390625" lon="-0.1941408030688762664794921875">
        <ele>1262.4000244140625</ele>
        <time>2020-08-18T08:10:21.000Z</time>
      </trkpt>
      <trkpt lat="42.5183312036097049713134765625" lon="-0.19427449442446231842041015625">
        <ele>1261.800048828125</ele>
        <time>2020-08-18T08:10:27.000Z</time>
      </trkpt>
      <trkpt lat="42.51832491718232631683349609375" lon="-0.1943476684391498565673828125">
        <ele>1262.4000244140625</ele>
        <time>2020-08-18T08:10:33.000Z</time>
      </trkpt>
      <trkpt lat="42.5183234922587871551513671875" lon="-0.19434825517237186431884765625">
        <ele>1263.199951171875</ele>
        <time>2020-08-18T08:10:44.000Z</time>
      </trkpt>
      <trkpt lat="42.51832357607781887054443359375" lon="-0.19434817135334014892578125">
        <ele>1263.4000244140625</ele>
        <time>2020-08-18T08:10:46.000Z</time>
      </trkpt>
      <trkpt lat="42.51831821165978908538818359375" lon="-0.19434272311627864837646484375">
        <ele>1262.800048828125</ele>
        <time>2020-08-18T08:10:57.000Z</time>
      </trkpt>
      <trkpt lat="42.51826607622206211090087890625" lon="-0.19432310946285724639892578125">
        <ele>1263.4000244140625</ele>
        <time>2020-08-18T08:27:33.000Z</time>
      </trkpt>
      <trkpt lat="42.5182373262941837310791015625" lon="-0.1943111233413219451904296875">
        <ele>1262.5999755859375</ele>
        <time>2020-08-18T08:27:41.000Z</time>
      </trkpt>
      <trkpt lat="42.51813615672290325164794921875" lon="-0.194273404777050018310546875">
        <ele>1262.5999755859375</ele>
        <time>2020-08-18T08:27:48.000Z</time>
      </trkpt>
      <trkpt lat="42.51797690056264400482177734375" lon="-0.19430466927587985992431640625">
        <ele>1262.5999755859375</ele>
        <time>2020-08-18T08:27:57.000Z</time>
      </trkpt>
      <trkpt lat="42.517871372401714324951171875" lon="-0.19438312388956546783447265625">
        <ele>1262.800048828125</ele>
        <time>2020-08-18T08:28:04.000Z</time>
      </trkpt>
      <trkpt lat="42.517741285264492034912109375" lon="-0.19451354630291461944580078125">
        <ele>1262.5999755859375</ele>
        <time>2020-08-18T08:28:13.000Z</time>
      </trkpt>
      <trkpt lat="42.51761849038302898406982421875" lon="-0.1946249417960643768310546875">
        <ele>1262.5999755859375</ele>
        <time>2020-08-18T08:28:21.000Z</time>
      </trkpt>
      <trkpt lat="42.51750885508954524993896484375" lon="-0.19473734311759471893310546875">
        <ele>1263.199951171875</ele>
        <time>2020-08-18T08:28:29.000Z</time>
      </trkpt>
      <trkpt lat="42.51742570661008358001708984375" lon="-0.19484647549688816070556640625">
        <ele>1264</ele>
        <time>2020-08-18T08:28:36.000Z</time>
      </trkpt>
      <trkpt lat="42.517326883971691131591796875" lon="-0.19491436891257762908935546875">
        <ele>1264.4000244140625</ele>
        <time>2020-08-18T08:28:43.000Z</time>
      </trkpt>
      <trkpt lat="42.517313472926616668701171875" lon="-0.1949139498174190521240234375">
        <ele>1264.5999755859375</ele>
        <time>2020-08-18T08:28:44.000Z</time>
      </trkpt>
      <trkpt lat="42.517248429358005523681640625" lon="-0.19490741193294525146484375">
        <ele>1265.800048828125</ele>
        <time>2020-08-18T08:28:48.000Z</time>
      </trkpt>
      <trkpt lat="42.517206855118274688720703125" lon="-0.194898359477519989013671875">
        <ele>1266.5999755859375</ele>
        <time>2020-08-18T08:28:51.000Z</time>
      </trkpt>
      <trkpt lat="42.517162263393402099609375" lon="-0.1948710344731807708740234375">
        <ele>1266.4000244140625</ele>
        <time>2020-08-18T08:28:55.000Z</time>
      </trkpt>
      <trkpt lat="42.5171403028070926666259765625" lon="-0.19485376775264739990234375">
        <ele>1266.4000244140625</ele>
        <time>2020-08-18T08:28:57.000Z</time>
      </trkpt>
      <trkpt lat="42.5170849822461605072021484375" lon="-0.1949028857052326202392578125">
        <ele>1266.800048828125</ele>
        <time>2020-08-18T08:29:02.000Z</time>
      </trkpt>
      <trkpt lat="42.5170823000371456146240234375" lon="-0.19492174498736858367919921875">
        <ele>1267</ele>
        <time>2020-08-18T08:29:03.000Z</time>
      </trkpt>
      <trkpt lat="42.51708556897938251495361328125" lon="-0.1949618943035602569580078125">
        <ele>1267.5999755859375</ele>
        <time>2020-08-18T08:29:05.000Z</time>
      </trkpt>
      <trkpt lat="42.51709931530058383941650390625" lon="-0.1950369961559772491455078125">
        <ele>1268</ele>
        <time>2020-08-18T08:29:09.000Z</time>
      </trkpt>
      <trkpt lat="42.51712647266685962677001953125" lon="-0.1951204799115657806396484375">
        <ele>1268</ele>
        <time>2020-08-18T08:29:14.000Z</time>
      </trkpt>
      <trkpt lat="42.517141811549663543701171875" lon="-0.1951962523162364959716796875">
        <ele>1268.5999755859375</ele>
        <time>2020-08-18T08:29:18.000Z</time>
      </trkpt>
      <trkpt lat="42.51716025173664093017578125" lon="-0.19531468860805034637451171875">
        <ele>1269.199951171875</ele>
        <time>2020-08-18T08:29:24.000Z</time>
      </trkpt>
      <trkpt lat="42.51715899445116519927978515625" lon="-0.19539649598300457000732421875">
        <ele>1270</ele>
        <time>2020-08-18T08:29:28.000Z</time>
      </trkpt>
      <trkpt lat="42.51715681515634059906005859375" lon="-0.19543672911822795867919921875">
        <ele>1270.199951171875</ele>
        <time>2020-08-18T08:29:30.000Z</time>
      </trkpt>
      <trkpt lat="42.5171382911503314971923828125" lon="-0.1955814845860004425048828125">
        <ele>1270.4000244140625</ele>
        <time>2020-08-18T08:29:37.000Z</time>
      </trkpt>
      <trkpt lat="42.51712177880108356475830078125" lon="-0.19571953453123569488525390625">
        <ele>1271.199951171875</ele>
        <time>2020-08-18T08:29:44.000Z</time>
      </trkpt>
      <trkpt lat="42.51711104996502399444580078125" lon="-0.1958010904490947723388671875">
        <ele>1271.5999755859375</ele>
        <time>2020-08-18T08:29:48.000Z</time>
      </trkpt>
      <trkpt lat="42.51708607189357280731201171875" lon="-0.19593964330852031707763671875">
        <ele>1272.4000244140625</ele>
        <time>2020-08-18T08:29:55.000Z</time>
      </trkpt>
      <trkpt lat="42.5170796178281307220458984375" lon="-0.19597518257796764373779296875">
        <ele>1272.4000244140625</ele>
        <time>2020-08-18T08:29:57.000Z</time>
      </trkpt>
      <trkpt lat="42.51705019734799861907958984375" lon="-0.196120776236057281494140625">
        <ele>1273.4000244140625</ele>
        <time>2020-08-18T08:30:05.000Z</time>
      </trkpt>
      <trkpt lat="42.517038546502590179443359375" lon="-0.19617433659732341766357421875">
        <ele>1273.199951171875</ele>
        <time>2020-08-18T08:30:08.000Z</time>
      </trkpt>
      <trkpt lat="42.51701809465885162353515625" lon="-0.196281708776950836181640625">
        <ele>1274.4000244140625</ele>
        <time>2020-08-18T08:30:14.000Z</time>
      </trkpt>
      <trkpt lat="42.51701516099274158477783203125" lon="-0.19631733186542987823486328125">
        <ele>1274.5999755859375</ele>
        <time>2020-08-18T08:30:16.000Z</time>
      </trkpt>
      <trkpt lat="42.5170026719570159912109375" lon="-0.19645764492452144622802734375">
        <ele>1275.4000244140625</ele>
        <time>2020-08-18T08:30:23.000Z</time>
      </trkpt>
      <trkpt lat="42.5170018337666988372802734375" lon="-0.19647809676826000213623046875">
        <ele>1275.4000244140625</ele>
        <time>2020-08-18T08:30:24.000Z</time>
      </trkpt>
      <trkpt lat="42.5169880874454975128173828125" lon="-0.19663877785205841064453125">
        <ele>1276.199951171875</ele>
        <time>2020-08-18T08:30:32.000Z</time>
      </trkpt>
      <trkpt lat="42.51698263920843601226806640625" lon="-0.1967006362974643707275390625">
        <ele>1276.5999755859375</ele>
        <time>2020-08-18T08:30:35.000Z</time>
      </trkpt>
      <trkpt lat="42.516974173486232757568359375" lon="-0.1968003809452056884765625">
        <ele>1277.199951171875</ele>
        <time>2020-08-18T08:30:40.000Z</time>
      </trkpt>
      <trkpt lat="42.516959421336650848388671875" lon="-0.19691362045705318450927734375">
        <ele>1277.5999755859375</ele>
        <time>2020-08-18T08:30:46.000Z</time>
      </trkpt>
      <trkpt lat="42.5169491954147815704345703125" lon="-0.19695066846907138824462890625">
        <ele>1277.800048828125</ele>
        <time>2020-08-18T08:30:48.000Z</time>
      </trkpt>
      <trkpt lat="42.51692832447588443756103515625" lon="-0.19708310253918170928955078125">
        <ele>1278.199951171875</ele>
        <time>2020-08-18T08:30:55.000Z</time>
      </trkpt>
      <trkpt lat="42.5169240497052669525146484375" lon="-0.19712249748408794403076171875">
        <ele>1278.5999755859375</ele>
        <time>2020-08-18T08:30:57.000Z</time>
      </trkpt>
      <trkpt lat="42.51691038720309734344482421875" lon="-0.19725644029676914215087890625">
        <ele>1279.800048828125</ele>
        <time>2020-08-18T08:31:04.000Z</time>
      </trkpt>
      <trkpt lat="42.5169087946414947509765625" lon="-0.1972756348550319671630859375">
        <ele>1280</ele>
        <time>2020-08-18T08:31:05.000Z</time>
      </trkpt>
      <trkpt lat="42.51687585376203060150146484375" lon="-0.19746900536119937896728515625">
        <ele>1281</ele>
        <time>2020-08-18T08:31:15.000Z</time>
      </trkpt>
      <trkpt lat="42.5168578326702117919921875" lon="-0.19759221933782100677490234375">
        <ele>1281.800048828125</ele>
        <time>2020-08-18T08:31:22.000Z</time>
      </trkpt>
      <trkpt lat="42.51685657538473606109619140625" lon="-0.1976082287728786468505859375">
        <ele>1282</ele>
        <time>2020-08-18T08:31:23.000Z</time>
      </trkpt>
      <trkpt lat="42.51684417016804218292236328125" lon="-0.19773848354816436767578125">
        <ele>1282.4000244140625</ele>
        <time>2020-08-18T08:31:30.000Z</time>
      </trkpt>
      <trkpt lat="42.516839392483234405517578125" lon="-0.1978115737438201904296875">
        <ele>1283</ele>
        <time>2020-08-18T08:31:34.000Z</time>
      </trkpt>
      <trkpt lat="42.51683461479842662811279296875" lon="-0.19786329008638858795166015625">
        <ele>1283.4000244140625</ele>
        <time>2020-08-18T08:31:37.000Z</time>
      </trkpt>
      <trkpt lat="42.5168288312852382659912109375" lon="-0.1979901082813739776611328125">
        <ele>1284</ele>
        <time>2020-08-18T08:31:44.000Z</time>
      </trkpt>
      <trkpt lat="42.51682606525719165802001953125" lon="-0.19800812937319278717041015625">
        <ele>1284.199951171875</ele>
        <time>2020-08-18T08:31:45.000Z</time>
      </trkpt>
      <trkpt lat="42.5168070383369922637939453125" lon="-0.19815749488770961761474609375">
        <ele>1284.800048828125</ele>
        <time>2020-08-18T08:31:53.000Z</time>
      </trkpt>
      <trkpt lat="42.51679773442447185516357421875" lon="-0.19820979796350002288818359375">
        <ele>1285</ele>
        <time>2020-08-18T08:31:56.000Z</time>
      </trkpt>
      <trkpt lat="42.5167684815824031829833984375" lon="-0.198298059403896331787109375">
        <ele>1285.5999755859375</ele>
        <time>2020-08-18T08:32:02.000Z</time>
      </trkpt>
      <trkpt lat="42.5167262367904186248779296875" lon="-0.19836888648569583892822265625">
        <ele>1286</ele>
        <time>2020-08-18T08:32:08.000Z</time>
      </trkpt>
      <trkpt lat="42.51671827398240566253662109375" lon="-0.1983793638646602630615234375">
        <ele>1286</ele>
        <time>2020-08-18T08:32:09.000Z</time>
      </trkpt>
      <trkpt lat="42.5166601873934268951416015625" lon="-0.19851230084896087646484375">
        <ele>1287</ele>
        <time>2020-08-18T08:32:18.000Z</time>
      </trkpt>
      <trkpt lat="42.51665691845118999481201171875" lon="-0.198526717722415924072265625">
        <ele>1287</ele>
        <time>2020-08-18T08:32:19.000Z</time>
      </trkpt>
      <trkpt lat="42.5166513025760650634765625" lon="-0.19863459281623363494873046875">
        <ele>1287.4000244140625</ele>
        <time>2020-08-18T08:32:25.000Z</time>
      </trkpt>
      <trkpt lat="42.51665239222347736358642578125" lon="-0.19872486591339111328125">
        <ele>1288</ele>
        <time>2020-08-18T08:32:30.000Z</time>
      </trkpt>
      <trkpt lat="42.51665004529058933258056640625" lon="-0.19875629805028438568115234375">
        <ele>1288.4000244140625</ele>
        <time>2020-08-18T08:32:32.000Z</time>
      </trkpt>
      <trkpt lat="42.51663143746554851531982421875" lon="-0.198885463178157806396484375">
        <ele>1289.199951171875</ele>
        <time>2020-08-18T08:32:40.000Z</time>
      </trkpt>
      <trkpt lat="42.51660746522247791290283203125" lon="-0.19900842569768428802490234375">
        <ele>1289.5999755859375</ele>
        <time>2020-08-18T08:32:46.000Z</time>
      </trkpt>
      <trkpt lat="42.51659824512898921966552734375" lon="-0.19911185838282108306884765625">
        <ele>1290</ele>
        <time>2020-08-18T08:32:52.000Z</time>
      </trkpt>
      <trkpt lat="42.51659120433032512664794921875" lon="-0.19923658110201358795166015625">
        <ele>1290.199951171875</ele>
        <time>2020-08-18T08:32:57.000Z</time>
      </trkpt>
      <trkpt lat="42.516591288149356842041015625" lon="-0.19925485365092754364013671875">
        <ele>1290.199951171875</ele>
        <time>2020-08-18T08:32:58.000Z</time>
      </trkpt>
      <trkpt lat="42.51658919267356395721435546875" lon="-0.1994074881076812744140625">
        <ele>1290.4000244140625</ele>
        <time>2020-08-18T08:33:04.000Z</time>
      </trkpt>
      <trkpt lat="42.51661132089793682098388671875" lon="-0.1995538361370563507080078125">
        <ele>1290.5999755859375</ele>
        <time>2020-08-18T08:33:11.000Z</time>
      </trkpt>
      <trkpt lat="42.51663764007389545440673828125" lon="-0.1997070573270320892333984375">
        <ele>1291</ele>
        <time>2020-08-18T08:33:18.000Z</time>
      </trkpt>
      <trkpt lat="42.51664417795836925506591796875" lon="-0.1997804827988147735595703125">
        <ele>1291.4000244140625</ele>
        <time>2020-08-18T08:33:22.000Z</time>
      </trkpt>
      <trkpt lat="42.5166531465947628021240234375" lon="-0.19987083971500396728515625">
        <ele>1291.5999755859375</ele>
        <time>2020-08-18T08:33:27.000Z</time>
      </trkpt>
      <trkpt lat="42.51666613854467868804931640625" lon="-0.19997620023787021636962890625">
        <ele>1292.4000244140625</ele>
        <time>2020-08-18T08:33:32.000Z</time>
      </trkpt>
      <trkpt lat="42.51666613854467868804931640625" lon="-0.1999950595200061798095703125">
        <ele>1292.5999755859375</ele>
        <time>2020-08-18T08:33:33.000Z</time>
      </trkpt>
      <trkpt lat="42.5166699104011058807373046875" lon="-0.2001724205911159515380859375">
        <ele>1292.800048828125</ele>
        <time>2020-08-18T08:33:42.000Z</time>
      </trkpt>
      <trkpt lat="42.51666898839175701141357421875" lon="-0.2002981491386890411376953125">
        <ele>1293.199951171875</ele>
        <time>2020-08-18T08:33:49.000Z</time>
      </trkpt>
      <trkpt lat="42.51666798256337642669677734375" lon="-0.20036009140312671661376953125">
        <ele>1293.5999755859375</ele>
        <time>2020-08-18T08:33:52.000Z</time>
      </trkpt>
      <trkpt lat="42.5166722573339939117431640625" lon="-0.20043142139911651611328125">
        <ele>1293.800048828125</ele>
        <time>2020-08-18T08:33:56.000Z</time>
      </trkpt>
      <trkpt lat="42.516675107181072235107421875" lon="-0.200512222945690155029296875">
        <ele>1293.5999755859375</ele>
        <time>2020-08-18T08:34:00.000Z</time>
      </trkpt>
      <trkpt lat="42.51667250879108905792236328125" lon="-0.20055136643350124359130859375">
        <ele>1293.5999755859375</ele>
        <time>2020-08-18T08:34:02.000Z</time>
      </trkpt>
      <trkpt lat="42.51667301170527935028076171875" lon="-0.20066971890628337860107421875">
        <ele>1294.199951171875</ele>
        <time>2020-08-18T08:34:09.000Z</time>
      </trkpt>
      <trkpt lat="42.5166746042668819427490234375" lon="-0.2008022367954254150390625">
        <ele>1294.199951171875</ele>
        <time>2020-08-18T08:34:15.000Z</time>
      </trkpt>
      <trkpt lat="42.51667938195168972015380859375" lon="-0.200844146311283111572265625">
        <ele>1294.199951171875</ele>
        <time>2020-08-18T08:34:17.000Z</time>
      </trkpt>
      <trkpt lat="42.516685836017131805419921875" lon="-0.20097951404750347137451171875">
        <ele>1294.4000244140625</ele>
        <time>2020-08-18T08:34:23.000Z</time>
      </trkpt>
      <trkpt lat="42.51668441109359264373779296875" lon="-0.201134495437145233154296875">
        <ele>1294</ele>
        <time>2020-08-18T08:34:30.000Z</time>
      </trkpt>
      <trkpt lat="42.51668994314968585968017578125" lon="-0.20127204246819019317626953125">
        <ele>1294.199951171875</ele>
        <time>2020-08-18T08:34:36.000Z</time>
      </trkpt>
      <trkpt lat="42.51670352183282375335693359375" lon="-0.201434232294559478759765625">
        <ele>1294.199951171875</ele>
        <time>2020-08-18T08:34:43.000Z</time>
      </trkpt>
      <trkpt lat="42.516733445227146148681640625" lon="-0.2015789039433002471923828125">
        <ele>1294.199951171875</ele>
        <time>2020-08-18T08:34:49.000Z</time>
      </trkpt>
      <trkpt lat="42.51670427620410919189453125" lon="-0.20173539407551288604736328125">
        <ele>1294.5999755859375</ele>
        <time>2020-08-18T08:34:56.000Z</time>
      </trkpt>
      <trkpt lat="42.5166863389313220977783203125" lon="-0.20182206295430660247802734375">
        <ele>1294.5999755859375</ele>
        <time>2020-08-18T08:35:00.000Z</time>
      </trkpt>
      <trkpt lat="42.5166816450655460357666015625" lon="-0.2018402516841888427734375">
        <ele>1294.5999755859375</ele>
        <time>2020-08-18T08:35:01.000Z</time>
      </trkpt>
      <trkpt lat="42.5166685692965984344482421875" lon="-0.20197511650621891021728515625">
        <ele>1295</ele>
        <time>2020-08-18T08:35:07.000Z</time>
      </trkpt>
      <trkpt lat="42.51666848547756671905517578125" lon="-0.20211853086948394775390625">
        <ele>1295.199951171875</ele>
        <time>2020-08-18T08:35:14.000Z</time>
      </trkpt>
      <trkpt lat="42.516663707792758941650390625" lon="-0.20230938680469989776611328125">
        <ele>1295</ele>
        <time>2020-08-18T08:35:21.000Z</time>
      </trkpt>
      <trkpt lat="42.51667678356170654296875" lon="-0.2024630270898342132568359375">
        <ele>1295</ele>
        <time>2020-08-18T08:35:26.000Z</time>
      </trkpt>
      <trkpt lat="42.51668457873165607452392578125" lon="-0.20252379588782787322998046875">
        <ele>1295</ele>
        <time>2020-08-18T08:35:28.000Z</time>
      </trkpt>
      <trkpt lat="42.51667100004851818084716796875" lon="-0.20260426215827465057373046875">
        <ele>1294.800048828125</ele>
        <time>2020-08-18T08:35:31.000Z</time>
      </trkpt>
      <trkpt lat="42.516604699194431304931640625" lon="-0.20266377367079257965087890625">
        <ele>1295</ele>
        <time>2020-08-18T08:35:36.000Z</time>
      </trkpt>
      <trkpt lat="42.51657259650528430938720703125" lon="-0.20266226492822170257568359375">
        <ele>1295</ele>
        <time>2020-08-18T08:35:38.000Z</time>
      </trkpt>
      <trkpt lat="42.516498081386089324951171875" lon="-0.202620439231395721435546875">
        <ele>1294.5999755859375</ele>
        <time>2020-08-18T08:35:42.000Z</time>
      </trkpt>
      <trkpt lat="42.51636891625821590423583984375" lon="-0.2025698125362396240234375">
        <ele>1293.5999755859375</ele>
        <time>2020-08-18T08:35:47.000Z</time>
      </trkpt>
      <trkpt lat="42.5163443572819232940673828125" lon="-0.20256335847079753875732421875">
        <ele>1293.199951171875</ele>
        <time>2020-08-18T08:35:48.000Z</time>
      </trkpt>
      <trkpt lat="42.51623447053134441375732421875" lon="-0.20255464129149913787841796875">
        <ele>1292</ele>
        <time>2020-08-18T08:35:52.000Z</time>
      </trkpt>
      <trkpt lat="42.516208402812480926513671875" lon="-0.202554725110530853271484375">
        <ele>1292</ele>
        <time>2020-08-18T08:35:53.000Z</time>
      </trkpt>
      <trkpt lat="42.51610404811799526214599609375" lon="-0.20254743285477161407470703125">
        <ele>1290.5999755859375</ele>
        <time>2020-08-18T08:35:57.000Z</time>
      </trkpt>
      <trkpt lat="42.5159297883510589599609375" lon="-0.20254324190318584442138671875">
        <ele>1289.800048828125</ele>
        <time>2020-08-18T08:36:02.000Z</time>
      </trkpt>
      <trkpt lat="42.5158521719276905059814453125" lon="-0.20252220332622528076171875">
        <ele>1289.5999755859375</ele>
        <time>2020-08-18T08:36:05.000Z</time>
      </trkpt>
      <trkpt lat="42.51582719385623931884765625" lon="-0.20251750946044921875">
        <ele>1289.199951171875</ele>
        <time>2020-08-18T08:36:06.000Z</time>
      </trkpt>
      <trkpt lat="42.5157267786562442779541015625" lon="-0.2025429904460906982421875">
        <ele>1289</ele>
        <time>2020-08-18T08:36:11.000Z</time>
      </trkpt>
      <trkpt lat="42.51572568900883197784423828125" lon="-0.2025870792567729949951171875">
        <ele>1288.800048828125</ele>
        <time>2020-08-18T08:36:13.000Z</time>
      </trkpt>
      <trkpt lat="42.515740692615509033203125" lon="-0.2026377059519290924072265625">
        <ele>1289</ele>
        <time>2020-08-18T08:36:16.000Z</time>
      </trkpt>
      <trkpt lat="42.51575670205056667327880859375" lon="-0.2026608400046825408935546875">
        <ele>1289.199951171875</ele>
        <time>2020-08-18T08:36:18.000Z</time>
      </trkpt>
      <trkpt lat="42.51578955911099910736083984375" lon="-0.20269411616027355194091796875">
        <ele>1289.4000244140625</ele>
        <time>2020-08-18T08:36:22.000Z</time>
      </trkpt>
      <trkpt lat="42.515804059803485870361328125" lon="-0.20271909423172473907470703125">
        <ele>1289.4000244140625</ele>
        <time>2020-08-18T08:36:24.000Z</time>
      </trkpt>
      <trkpt lat="42.51582845114171504974365234375" lon="-0.20275211893022060394287109375">
        <ele>1289.5999755859375</ele>
        <time>2020-08-18T08:36:27.000Z</time>
      </trkpt>
      <trkpt lat="42.51586767844855785369873046875" lon="-0.202804841101169586181640625">
        <ele>1289.800048828125</ele>
        <time>2020-08-18T08:36:32.000Z</time>
      </trkpt>
      <trkpt lat="42.515941523015499114990234375" lon="-0.2028782665729522705078125">
        <ele>1289.5999755859375</ele>
        <time>2020-08-18T08:36:39.000Z</time>
      </trkpt>
      <trkpt lat="42.5159822590649127960205078125" lon="-0.20293392241001129150390625">
        <ele>1289.4000244140625</ele>
        <time>2020-08-18T08:36:43.000Z</time>
      </trkpt>
      <trkpt lat="42.5159966759383678436279296875" lon="-0.2029753290116786956787109375">
        <ele>1289.199951171875</ele>
        <time>2020-08-18T08:36:45.000Z</time>
      </trkpt>
      <trkpt lat="42.51601620577275753021240234375" lon="-0.203099884092807769775390625">
        <ele>1289.4000244140625</ele>
        <time>2020-08-18T08:36:52.000Z</time>
      </trkpt>
      <trkpt lat="42.51602140255272388458251953125" lon="-0.20313818939030170440673828125">
        <ele>1289.199951171875</ele>
        <time>2020-08-18T08:36:54.000Z</time>
      </trkpt>
      <trkpt lat="42.51603313721716403961181640625" lon="-0.2032217569649219512939453125">
        <ele>1289</ele>
        <time>2020-08-18T08:36:58.000Z</time>
      </trkpt>
      <trkpt lat="42.51610220409929752349853515625" lon="-0.2034098468720912933349609375">
        <ele>1289.199951171875</ele>
        <time>2020-08-18T08:37:06.000Z</time>
      </trkpt>
      <trkpt lat="42.51615031622350215911865234375" lon="-0.20356181077659130096435546875">
        <ele>1288.800048828125</ele>
        <time>2020-08-18T08:37:11.000Z</time>
      </trkpt>
      <trkpt lat="42.51616540364921092987060546875" lon="-0.20359684713184833526611328125">
        <ele>1288.800048828125</ele>
        <time>2020-08-18T08:37:12.000Z</time>
      </trkpt>
      <trkpt lat="42.516225166618824005126953125" lon="-0.2037367410957813262939453125">
        <ele>1288.5999755859375</ele>
        <time>2020-08-18T08:37:17.000Z</time>
      </trkpt>
      <trkpt lat="42.51626699231564998626708984375" lon="-0.20383690483868122100830078125">
        <ele>1288.5999755859375</ele>
        <time>2020-08-18T08:37:21.000Z</time>
      </trkpt>
      <trkpt lat="42.51627956517040729522705078125" lon="-0.20386406220495700836181640625">
        <ele>1288.5999755859375</ele>
        <time>2020-08-18T08:37:22.000Z</time>
      </trkpt>
      <trkpt lat="42.516299597918987274169921875" lon="-0.2039167843759059906005859375">
        <ele>1288.4000244140625</ele>
        <time>2020-08-18T08:37:24.000Z</time>
      </trkpt>
      <trkpt lat="42.51632432453334331512451171875" lon="-0.2040257491171360015869140625">
        <ele>1288.199951171875</ele>
        <time>2020-08-18T08:37:27.000Z</time>
      </trkpt>
      <trkpt lat="42.51638132147490978240966796875" lon="-0.20428030751645565032958984375">
        <ele>1287.5999755859375</ele>
        <time>2020-08-18T08:37:32.000Z</time>
      </trkpt>
      <trkpt lat="42.51641065813601016998291015625" lon="-0.20456780679523944854736328125">
        <ele>1286.5999755859375</ele>
        <time>2020-08-18T08:37:37.000Z</time>
      </trkpt>
      <trkpt lat="42.516455166041851043701171875" lon="-0.20486779510974884033203125">
        <ele>1286</ele>
        <time>2020-08-18T08:37:42.000Z</time>
      </trkpt>
      <trkpt lat="42.51647335477173328399658203125" lon="-0.2049236185848712921142578125">
        <ele>1285.800048828125</ele>
        <time>2020-08-18T08:37:43.000Z</time>
      </trkpt>
      <trkpt lat="42.51649112440645694732666015625" lon="-0.20497885532677173614501953125">
        <ele>1285.199951171875</ele>
        <time>2020-08-18T08:37:44.000Z</time>
      </trkpt>
      <trkpt lat="42.5165431760251522064208984375" lon="-0.205196030437946319580078125">
        <ele>1284.800048828125</ele>
        <time>2020-08-18T08:37:48.000Z</time>
      </trkpt>
      <trkpt lat="42.5165995024144649505615234375" lon="-0.2054553665220737457275390625">
        <ele>1284.5999755859375</ele>
        <time>2020-08-18T08:37:53.000Z</time>
      </trkpt>
      <trkpt lat="42.5166271626949310302734375" lon="-0.20554228685796260833740234375">
        <ele>1284.199951171875</ele>
        <time>2020-08-18T08:37:55.000Z</time>
      </trkpt>
      <trkpt lat="42.5166551582515239715576171875" lon="-0.2056521736085414886474609375">
        <ele>1284</ele>
        <time>2020-08-18T08:37:58.000Z</time>
      </trkpt>
      <trkpt lat="42.51666211523115634918212890625" lon="-0.20568184554576873779296875">
        <ele>1284.199951171875</ele>
        <time>2020-08-18T08:37:59.000Z</time>
      </trkpt>
      <trkpt lat="42.51668684184551239013671875" lon="-0.20577563904225826263427734375">
        <ele>1284.199951171875</ele>
        <time>2020-08-18T08:38:02.000Z</time>
      </trkpt>
      <trkpt lat="42.5167451798915863037109375" lon="-0.20599809475243091583251953125">
        <ele>1283.4000244140625</ele>
        <time>2020-08-18T08:38:08.000Z</time>
      </trkpt>
      <trkpt lat="42.51677912659943103790283203125" lon="-0.2061762101948261260986328125">
        <ele>1283.800048828125</ele>
        <time>2020-08-18T08:38:15.000Z</time>
      </trkpt>
      <trkpt lat="42.5168080441653728485107421875" lon="-0.206301100552082061767578125">
        <ele>1284</ele>
        <time>2020-08-18T08:38:20.000Z</time>
      </trkpt>
      <trkpt lat="42.51681198365986347198486328125" lon="-0.20632515661418437957763671875">
        <ele>1284</ele>
        <time>2020-08-18T08:38:21.000Z</time>
      </trkpt>
      <trkpt lat="42.51682807691395282745361328125" lon="-0.20645859651267528533935546875">
        <ele>1283.4000244140625</ele>
        <time>2020-08-18T08:38:26.000Z</time>
      </trkpt>
      <trkpt lat="42.5168335251510143280029296875" lon="-0.20648407749831676483154296875">
        <ele>1283.4000244140625</ele>
        <time>2020-08-18T08:38:27.000Z</time>
      </trkpt>
      <trkpt lat="42.5168543122708797454833984375" lon="-0.20660008303821086883544921875">
        <ele>1283.5999755859375</ele>
        <time>2020-08-18T08:38:32.000Z</time>
      </trkpt>
      <trkpt lat="42.516861520707607269287109375" lon="-0.20676017738878726959228515625">
        <ele>1283.5999755859375</ele>
        <time>2020-08-18T08:38:39.000Z</time>
      </trkpt>
      <trkpt lat="42.516856156289577484130859375" lon="-0.2067983150482177734375">
        <ele>1284</ele>
        <time>2020-08-18T08:38:41.000Z</time>
      </trkpt>
      <trkpt lat="42.51683411188423633575439453125" lon="-0.20686377771198749542236328125">
        <ele>1284</ele>
        <time>2020-08-18T08:38:44.000Z</time>
      </trkpt>
      <trkpt lat="42.51674056984484195709228515625" lon="-0.2069914340972900390625">
        <ele>1283.4000244140625</ele>
        <time>2020-08-18T08:38:51.000Z</time>
      </trkpt>
      <trkpt lat="42.5166618637740612030029296875" lon="-0.2070693857967853546142578125">
        <ele>1283.199951171875</ele>
        <time>2020-08-18T08:38:57.000Z</time>
      </trkpt>
      <trkpt lat="42.51658835448324680328369140625" lon="-0.2071223594248294830322265625">
        <ele>1283.5999755859375</ele>
        <time>2020-08-18T08:39:03.000Z</time>
      </trkpt>
      <trkpt lat="42.5165150128304958343505859375" lon="-0.20718748681247234344482421875">
        <ele>1283.5999755859375</ele>
        <time>2020-08-18T08:39:08.000Z</time>
      </trkpt>
      <trkpt lat="42.51644586212933063507080078125" lon="-0.2072454057633876800537109375">
        <ele>1284</ele>
        <time>2020-08-18T08:39:14.000Z</time>
      </trkpt>
      <trkpt lat="42.51638182438910007476806640625" lon="-0.20732495002448558807373046875">
        <ele>1283.800048828125</ele>
        <time>2020-08-18T08:39:20.000Z</time>
      </trkpt>
      <trkpt lat="42.51630060374736785888671875" lon="-0.2074177376925945281982421875">
        <ele>1283.199951171875</ele>
        <time>2020-08-18T08:39:25.000Z</time>
      </trkpt>
      <trkpt lat="42.51628157682716846466064453125" lon="-0.20743559114634990692138671875">
        <ele>1283.199951171875</ele>
        <time>2020-08-18T08:39:26.000Z</time>
      </trkpt>
      <trkpt lat="42.51621200703084468841552734375" lon="-0.20753919146955013275146484375">
        <ele>1282.5999755859375</ele>
        <time>2020-08-18T08:39:30.000Z</time>
      </trkpt>
      <trkpt lat="42.51616020686924457550048828125" lon="-0.20762233994901180267333984375">
        <ele>1282</ele>
        <time>2020-08-18T08:39:33.000Z</time>
      </trkpt>
      <trkpt lat="42.51610890962183475494384765625" lon="-0.20770884118974208831787109375">
        <ele>1282</ele>
        <time>2020-08-18T08:39:36.000Z</time>
      </trkpt>
      <trkpt lat="42.5159795768558979034423828125" lon="-0.2078913152217864990234375">
        <ele>1281.5999755859375</ele>
        <time>2020-08-18T08:39:42.000Z</time>
      </trkpt>
      <trkpt lat="42.51590958796441555023193359375" lon="-0.207988210022449493408203125">
        <ele>1281</ele>
        <time>2020-08-18T08:39:45.000Z</time>
      </trkpt>
      <trkpt lat="42.5158739648759365081787109375" lon="-0.2080423571169376373291015625">
        <ele>1280.800048828125</ele>
        <time>2020-08-18T08:39:47.000Z</time>
      </trkpt>
      <trkpt lat="42.5158139504492282867431640625" lon="-0.2081278525292873382568359375">
        <ele>1280.800048828125</ele>
        <time>2020-08-18T08:39:51.000Z</time>
      </trkpt>
      <trkpt lat="42.51573055051267147064208984375" lon="-0.2082073129713535308837890625">
        <ele>1281.199951171875</ele>
        <time>2020-08-18T08:39:56.000Z</time>
      </trkpt>
      <trkpt lat="42.515675313770771026611328125" lon="-0.20824846811592578887939453125">
        <ele>1281</ele>
        <time>2020-08-18T08:40:01.000Z</time>
      </trkpt>
      <trkpt lat="42.5156392715871334075927734375" lon="-0.2082569338381290435791015625">
        <ele>1280.800048828125</ele>
        <time>2020-08-18T08:40:04.000Z</time>
      </trkpt>
      <trkpt lat="42.51561387442052364349365234375" lon="-0.20826472900807857513427734375">
        <ele>1281</ele>
        <time>2020-08-18T08:40:06.000Z</time>
      </trkpt>
      <trkpt lat="42.51552117057144641876220703125" lon="-0.20830010063946247100830078125">
        <ele>1281.199951171875</ele>
        <time>2020-08-18T08:40:12.000Z</time>
      </trkpt>
      <trkpt lat="42.515443302690982818603515625" lon="-0.20841258578002452850341796875">
        <ele>1282</ele>
        <time>2020-08-18T08:40:19.000Z</time>
      </trkpt>
      <trkpt lat="42.51543399877846240997314453125" lon="-0.20842968486249446868896484375">
        <ele>1282.199951171875</ele>
        <time>2020-08-18T08:40:20.000Z</time>
      </trkpt>
      <trkpt lat="42.515380941331386566162109375" lon="-0.20850780420005321502685546875">
        <ele>1282.5999755859375</ele>
        <time>2020-08-18T08:40:24.000Z</time>
      </trkpt>
      <trkpt lat="42.51532872207462787628173828125" lon="-0.20857905037701129913330078125">
        <ele>1282.5999755859375</ele>
        <time>2020-08-18T08:40:28.000Z</time>
      </trkpt>
      <trkpt lat="42.51530894078314304351806640625" lon="-0.20861660130321979522705078125">
        <ele>1282.5999755859375</ele>
        <time>2020-08-18T08:40:30.000Z</time>
      </trkpt>
      <trkpt lat="42.51526418142020702362060546875" lon="-0.208747275173664093017578125">
        <ele>1282.800048828125</ele>
        <time>2020-08-18T08:40:36.000Z</time>
      </trkpt>
      <trkpt lat="42.51524322666227817535400390625" lon="-0.2088153362274169921875">
        <ele>1283</ele>
        <time>2020-08-18T08:40:39.000Z</time>
      </trkpt>
      <trkpt lat="42.51523668877780437469482421875" lon="-0.20884911529719829559326171875">
        <ele>1283.199951171875</ele>
        <time>2020-08-18T08:40:40.000Z</time>
      </trkpt>
      <trkpt lat="42.51522595994174480438232421875" lon="-0.20890745334327220916748046875">
        <ele>1283.199951171875</ele>
        <time>2020-08-18T08:40:42.000Z</time>
      </trkpt>
      <trkpt lat="42.515224032104015350341796875" lon="-0.208933353424072265625">
        <ele>1283.199951171875</ele>
        <time>2020-08-18T08:40:43.000Z</time>
      </trkpt>
      <trkpt lat="42.5151960365474224090576171875" lon="-0.20903904922306537628173828125">
        <ele>1283.800048828125</ele>
        <time>2020-08-18T08:40:48.000Z</time>
      </trkpt>
      <trkpt lat="42.51510995440185070037841796875" lon="-0.20917349494993686676025390625">
        <ele>1283.5999755859375</ele>
        <time>2020-08-18T08:40:56.000Z</time>
      </trkpt>
      <trkpt lat="42.51503384672105312347412109375" lon="-0.20923971198499202728271484375">
        <ele>1283.800048828125</ele>
        <time>2020-08-18T08:41:01.000Z</time>
      </trkpt>
      <trkpt lat="42.51493074931204319000244140625" lon="-0.209360159933567047119140625">
        <ele>1283.4000244140625</ele>
        <time>2020-08-18T08:41:07.000Z</time>
      </trkpt>
      <trkpt lat="42.51488582231104373931884765625" lon="-0.20947339944541454315185546875">
        <ele>1283.4000244140625</ele>
        <time>2020-08-18T08:41:11.000Z</time>
      </trkpt>
      <trkpt lat="42.514828406274318695068359375" lon="-0.20957901142537593841552734375">
        <ele>1283.199951171875</ele>
        <time>2020-08-18T08:41:15.000Z</time>
      </trkpt>
      <trkpt lat="42.51479814760386943817138671875" lon="-0.20962159149348735809326171875">
        <ele>1283.199951171875</ele>
        <time>2020-08-18T08:41:17.000Z</time>
      </trkpt>
      <trkpt lat="42.51474483869969844818115234375" lon="-0.209735669195652008056640625">
        <ele>1283.199951171875</ele>
        <time>2020-08-18T08:41:22.000Z</time>
      </trkpt>
      <trkpt lat="42.51467275433242321014404296875" lon="-0.209877155721187591552734375">
        <ele>1282.4000244140625</ele>
        <time>2020-08-18T08:41:28.000Z</time>
      </trkpt>
      <trkpt lat="42.51461357809603214263916015625" lon="-0.2099473960697650909423828125">
        <ele>1282</ele>
        <time>2020-08-18T08:41:31.000Z</time>
      </trkpt>
      <trkpt lat="42.51457351259887218475341796875" lon="-0.21001570858061313629150390625">
        <ele>1281.800048828125</ele>
        <time>2020-08-18T08:41:34.000Z</time>
      </trkpt>
      <trkpt lat="42.5144812278449535369873046875" lon="-0.21016272716224193572998046875">
        <ele>1281.4000244140625</ele>
        <time>2020-08-18T08:41:39.000Z</time>
      </trkpt>
      <trkpt lat="42.5143605284392833709716796875" lon="-0.210304968059062957763671875">
        <ele>1281</ele>
        <time>2020-08-18T08:41:45.000Z</time>
      </trkpt>
      <trkpt lat="42.5142706744372844696044921875" lon="-0.21037973463535308837890625">
        <ele>1281.199951171875</ele>
        <time>2020-08-18T08:41:51.000Z</time>
      </trkpt>
      <trkpt lat="42.51425634138286113739013671875" lon="-0.21038853563368320465087890625">
        <ele>1281.199951171875</ele>
        <time>2020-08-18T08:41:52.000Z</time>
      </trkpt>
      <trkpt lat="42.5141938962042331695556640625" lon="-0.21043161861598491668701171875">
        <ele>1281</ele>
        <time>2020-08-18T08:41:56.000Z</time>
      </trkpt>
      <trkpt lat="42.5141114182770252227783203125" lon="-0.21049163304269313812255859375">
        <ele>1281.5999755859375</ele>
        <time>2020-08-18T08:42:02.000Z</time>
      </trkpt>
      <trkpt lat="42.514000944793224334716796875" lon="-0.21053488366305828094482421875">
        <ele>1282.199951171875</ele>
        <time>2020-08-18T08:42:09.000Z</time>
      </trkpt>
      <trkpt lat="42.5139089114964008331298828125" lon="-0.2105907909572124481201171875">
        <ele>1283</ele>
        <time>2020-08-18T08:42:15.000Z</time>
      </trkpt>
      <trkpt lat="42.5138162076473236083984375" lon="-0.2106779627501964569091796875">
        <ele>1283</ele>
        <time>2020-08-18T08:42:21.000Z</time>
      </trkpt>
      <trkpt lat="42.51376851461827754974365234375" lon="-0.21071693859994411468505859375">
        <ele>1283.199951171875</ele>
        <time>2020-08-18T08:42:24.000Z</time>
      </trkpt>
      <trkpt lat="42.51371822319924831390380859375" lon="-0.210753567516803741455078125">
        <ele>1283.4000244140625</ele>
        <time>2020-08-18T08:42:27.000Z</time>
      </trkpt>
      <trkpt lat="42.51365753822028636932373046875" lon="-0.21084266714751720428466796875">
        <ele>1283.199951171875</ele>
        <time>2020-08-18T08:42:32.000Z</time>
      </trkpt>
      <trkpt lat="42.51359752379357814788818359375" lon="-0.2109699882566928863525390625">
        <ele>1283.4000244140625</ele>
        <time>2020-08-18T08:42:39.000Z</time>
      </trkpt>
      <trkpt lat="42.5135385990142822265625" lon="-0.21105028688907623291015625">
        <ele>1284</ele>
        <time>2020-08-18T08:42:44.000Z</time>
      </trkpt>
      <trkpt lat="42.51343089155852794647216796875" lon="-0.21115916781127452850341796875">
        <ele>1284.5999755859375</ele>
        <time>2020-08-18T08:42:50.000Z</time>
      </trkpt>
      <trkpt lat="42.51341412775218486785888671875" lon="-0.2111721597611904144287109375">
        <ele>1284.800048828125</ele>
        <time>2020-08-18T08:42:51.000Z</time>
      </trkpt>
      <trkpt lat="42.51335964538156986236572265625" lon="-0.21120225079357624053955078125">
        <ele>1285.199951171875</ele>
        <time>2020-08-18T08:42:55.000Z</time>
      </trkpt>
      <trkpt lat="42.51335059292614459991455078125" lon="-0.21121524274349212646484375">
        <ele>1285.199951171875</ele>
        <time>2020-08-18T08:42:56.000Z</time>
      </trkpt>
      <trkpt lat="42.5132943503558635711669921875" lon="-0.211308784782886505126953125">
        <ele>1285.5999755859375</ele>
        <time>2020-08-18T08:43:01.000Z</time>
      </trkpt>
      <trkpt lat="42.51318194903433322906494140625" lon="-0.211434178054332733154296875">
        <ele>1285.800048828125</ele>
        <time>2020-08-18T08:43:09.000Z</time>
      </trkpt>
      <trkpt lat="42.51313148997724056243896484375" lon="-0.2114571444690227508544921875">
        <ele>1285.800048828125</ele>
        <time>2020-08-18T08:43:12.000Z</time>
      </trkpt>
      <trkpt lat="42.51309058628976345062255859375" lon="-0.2114806137979030609130859375">
        <ele>1286</ele>
        <time>2020-08-18T08:43:15.000Z</time>
      </trkpt>
      <trkpt lat="42.51301665790379047393798828125" lon="-0.21155479364097118377685546875">
        <ele>1285.800048828125</ele>
        <time>2020-08-18T08:43:20.000Z</time>
      </trkpt>
      <trkpt lat="42.5129429809749126434326171875" lon="-0.2116368524730205535888671875">
        <ele>1286.199951171875</ele>
        <time>2020-08-18T08:43:25.000Z</time>
      </trkpt>
      <trkpt lat="42.51285354606807231903076171875" lon="-0.21171145141124725341796875">
        <ele>1286.4000244140625</ele>
        <time>2020-08-18T08:43:31.000Z</time>
      </trkpt>
      <trkpt lat="42.51275229267776012420654296875" lon="-0.2118108607828617095947265625">
        <ele>1287</ele>
        <time>2020-08-18T08:43:38.000Z</time>
      </trkpt>
      <trkpt lat="42.5127377919852733612060546875" lon="-0.21181949414312839508056640625">
        <ele>1286.800048828125</ele>
        <time>2020-08-18T08:43:39.000Z</time>
      </trkpt>
      <trkpt lat="42.5127019174396991729736328125" lon="-0.21185587160289287567138671875">
        <ele>1287.199951171875</ele>
        <time>2020-08-18T08:43:42.000Z</time>
      </trkpt>
      <trkpt lat="42.51267367042601108551025390625" lon="-0.21187347359955310821533203125">
        <ele>1287.199951171875</ele>
        <time>2020-08-18T08:43:44.000Z</time>
      </trkpt>
      <trkpt lat="42.5126030109822750091552734375" lon="-0.2119369246065616607666015625">
        <ele>1287.4000244140625</ele>
        <time>2020-08-18T08:43:49.000Z</time>
      </trkpt>
      <trkpt lat="42.5125406496226787567138671875" lon="-0.2120391838252544403076171875">
        <ele>1287.4000244140625</ele>
        <time>2020-08-18T08:43:55.000Z</time>
      </trkpt>
      <trkpt lat="42.51249857246875762939453125" lon="-0.2120666764676570892333984375">
        <ele>1287.199951171875</ele>
        <time>2020-08-18T08:43:58.000Z</time>
      </trkpt>
      <trkpt lat="42.51247300766408443450927734375" lon="-0.2120881341397762298583984375">
        <ele>1287.4000244140625</ele>
        <time>2020-08-18T08:44:00.000Z</time>
      </trkpt>
      <trkpt lat="42.51244853250682353973388671875" lon="-0.2121131122112274169921875">
        <ele>1287.4000244140625</ele>
        <time>2020-08-18T08:44:02.000Z</time>
      </trkpt>
      <trkpt lat="42.51240226440131664276123046875" lon="-0.21214974112808704376220703125">
        <ele>1287.5999755859375</ele>
        <time>2020-08-18T08:44:05.000Z</time>
      </trkpt>
      <trkpt lat="42.51237519085407257080078125" lon="-0.21214772947132587432861328125">
        <ele>1287.800048828125</ele>
        <time>2020-08-18T08:44:07.000Z</time>
      </trkpt>
      <trkpt lat="42.51234375871717929840087890625" lon="-0.21212174557149410247802734375">
        <ele>1287.5999755859375</ele>
        <time>2020-08-18T08:44:10.000Z</time>
      </trkpt>
      <trkpt lat="42.512309141457080841064453125" lon="-0.21208285354077816009521484375">
        <ele>1287.5999755859375</ele>
        <time>2020-08-18T08:44:14.000Z</time>
      </trkpt>
      <trkpt lat="42.5122603587806224822998046875" lon="-0.21205703727900981903076171875">
        <ele>1288</ele>
        <time>2020-08-18T08:44:17.000Z</time>
      </trkpt>
      <trkpt lat="42.512210905551910400390625" lon="-0.2120247669517993927001953125">
        <ele>1287.5999755859375</ele>
        <time>2020-08-18T08:44:20.000Z</time>
      </trkpt>
      <trkpt lat="42.5121456943452358245849609375" lon="-0.2119771577417850494384765625">
        <ele>1287.5999755859375</ele>
        <time>2020-08-18T08:44:24.000Z</time>
      </trkpt>
      <trkpt lat="42.51208827830851078033447265625" lon="-0.2119322307407855987548828125">
        <ele>1288</ele>
        <time>2020-08-18T08:44:27.000Z</time>
      </trkpt>
      <trkpt lat="42.512039579451084136962890625" lon="-0.211910270154476165771484375">
        <ele>1288</ele>
        <time>2020-08-18T08:44:30.000Z</time>
      </trkpt>
      <trkpt lat="42.5119673274457454681396484375" lon="-0.21190130151808261871337890625">
        <ele>1288.199951171875</ele>
        <time>2020-08-18T08:44:34.000Z</time>
      </trkpt>
      <trkpt lat="42.5119455344974994659423828125" lon="-0.2119094319641590118408203125">
        <ele>1288.199951171875</ele>
        <time>2020-08-18T08:44:35.000Z</time>
      </trkpt>
      <trkpt lat="42.5118868611752986907958984375" lon="-0.21196047775447368621826171875">
        <ele>1288.199951171875</ele>
        <time>2020-08-18T08:44:38.000Z</time>
      </trkpt>
      <trkpt lat="42.51186423003673553466796875" lon="-0.2120016328990459442138671875">
        <ele>1288.199951171875</ele>
        <time>2020-08-18T08:44:40.000Z</time>
      </trkpt>
      <trkpt lat="42.51183749176561832427978515625" lon="-0.21210866980254650115966796875">
        <ele>1288.4000244140625</ele>
        <time>2020-08-18T08:44:46.000Z</time>
      </trkpt>
      <trkpt lat="42.51180882565677165985107421875" lon="-0.2121766470372676849365234375">
        <ele>1288.800048828125</ele>
        <time>2020-08-18T08:44:50.000Z</time>
      </trkpt>
      <trkpt lat="42.51179273240268230438232421875" lon="-0.2122185565531253814697265625">
        <ele>1288.800048828125</ele>
        <time>2020-08-18T08:44:52.000Z</time>
      </trkpt>
      <trkpt lat="42.51175166107714176177978515625" lon="-0.21231771446764469146728515625">
        <ele>1289.4000244140625</ele>
        <time>2020-08-18T08:44:58.000Z</time>
      </trkpt>
      <trkpt lat="42.5117343105375766754150390625" lon="-0.21234671585261821746826171875">
        <ele>1289.800048828125</ele>
        <time>2020-08-18T08:45:00.000Z</time>
      </trkpt>
      <trkpt lat="42.51172014512121677398681640625" lon="-0.21237689070403575897216796875">
        <ele>1289.800048828125</ele>
        <time>2020-08-18T08:45:02.000Z</time>
      </trkpt>
      <trkpt lat="42.51170405186712741851806640625" lon="-0.2124307863414287567138671875">
        <ele>1290.199951171875</ele>
        <time>2020-08-18T08:45:05.000Z</time>
      </trkpt>
      <trkpt lat="42.51169432885944843292236328125" lon="-0.2124515734612941741943359375">
        <ele>1290.4000244140625</ele>
        <time>2020-08-18T08:45:06.000Z</time>
      </trkpt>
      <trkpt lat="42.51167521812021732330322265625" lon="-0.2124978415668010711669921875">
        <ele>1290.5999755859375</ele>
        <time>2020-08-18T08:45:09.000Z</time>
      </trkpt>
      <trkpt lat="42.51166700385510921478271484375" lon="-0.212513096630573272705078125">
        <ele>1290.5999755859375</ele>
        <time>2020-08-18T08:45:10.000Z</time>
      </trkpt>
      <trkpt lat="42.51165627501904964447021484375" lon="-0.2125266753137111663818359375">
        <ele>1291</ele>
        <time>2020-08-18T08:45:11.000Z</time>
      </trkpt>
      <trkpt lat="42.511645965278148651123046875" lon="-0.2125434391200542449951171875">
        <ele>1291.199951171875</ele>
        <time>2020-08-18T08:45:12.000Z</time>
      </trkpt>
      <trkpt lat="42.5116327218711376190185546875" lon="-0.21257118321955204010009765625">
        <ele>1291.4000244140625</ele>
        <time>2020-08-18T08:45:14.000Z</time>
      </trkpt>
      <trkpt lat="42.51162341795861721038818359375" lon="-0.212584175169467926025390625">
        <ele>1291.4000244140625</ele>
        <time>2020-08-18T08:45:15.000Z</time>
      </trkpt>
      <trkpt lat="42.511584945023059844970703125" lon="-0.21266472525894641876220703125">
        <ele>1292</ele>
        <time>2020-08-18T08:45:20.000Z</time>
      </trkpt>
      <trkpt lat="42.511574886739253997802734375" lon="-0.21270261146128177642822265625">
        <ele>1292.199951171875</ele>
        <time>2020-08-18T08:45:22.000Z</time>
      </trkpt>
      <trkpt lat="42.51154077239334583282470703125" lon="-0.2128042839467525482177734375">
        <ele>1293</ele>
        <time>2020-08-18T08:45:27.000Z</time>
      </trkpt>
      <trkpt lat="42.5115197338163852691650390625" lon="-0.212845690548419952392578125">
        <ele>1293.4000244140625</ele>
        <time>2020-08-18T08:45:29.000Z</time>
      </trkpt>
      <trkpt lat="42.51143868081271648406982421875" lon="-0.2129685692489147186279296875">
        <ele>1293.5999755859375</ele>
        <time>2020-08-18T08:45:36.000Z</time>
      </trkpt>
      <trkpt lat="42.51135083846747875213623046875" lon="-0.21304316818714141845703125">
        <ele>1294</ele>
        <time>2020-08-18T08:45:42.000Z</time>
      </trkpt>
      <trkpt lat="42.51123952679336071014404296875" lon="-0.21310393698513507843017578125">
        <ele>1294.4000244140625</ele>
        <time>2020-08-18T08:45:50.000Z</time>
      </trkpt>
      <trkpt lat="42.5111596472561359405517578125" lon="-0.21314081735908985137939453125">
        <ele>1294.800048828125</ele>
        <time>2020-08-18T08:45:55.000Z</time>
      </trkpt>
      <trkpt lat="42.51113760285079479217529296875" lon="-0.21316294558346271514892578125">
        <ele>1294.800048828125</ele>
        <time>2020-08-18T08:45:57.000Z</time>
      </trkpt>
      <trkpt lat="42.5110956095159053802490234375" lon="-0.2131994068622589111328125">
        <ele>1295.199951171875</ele>
        <time>2020-08-18T08:46:00.000Z</time>
      </trkpt>
      <trkpt lat="42.511082701385021209716796875" lon="-0.213209129869937896728515625">
        <ele>1295.199951171875</ele>
        <time>2020-08-18T08:46:01.000Z</time>
      </trkpt>
      <trkpt lat="42.5110077671706676483154296875" lon="-0.21325263194739818572998046875">
        <ele>1295.800048828125</ele>
        <time>2020-08-18T08:46:07.000Z</time>
      </trkpt>
      <trkpt lat="42.51095554791390895843505859375" lon="-0.21328389644622802734375">
        <ele>1296.199951171875</ele>
        <time>2020-08-18T08:46:11.000Z</time>
      </trkpt>
      <trkpt lat="42.51092738471925258636474609375" lon="-0.21330258809030055999755859375">
        <ele>1296.4000244140625</ele>
        <time>2020-08-18T08:46:13.000Z</time>
      </trkpt>
      <trkpt lat="42.5108458288013935089111328125" lon="-0.2133444137871265411376953125">
        <ele>1296.800048828125</ele>
        <time>2020-08-18T08:46:18.000Z</time>
      </trkpt>
      <trkpt lat="42.51078204251825809478759765625" lon="-0.21339830942451953887939453125">
        <ele>1297.4000244140625</ele>
        <time>2020-08-18T08:46:23.000Z</time>
      </trkpt>
      <trkpt lat="42.510755471885204315185546875" lon="-0.21342027001082897186279296875">
        <ele>1297.199951171875</ele>
        <time>2020-08-18T08:46:25.000Z</time>
      </trkpt>
      <trkpt lat="42.5107281468808650970458984375" lon="-0.21344147622585296630859375">
        <ele>1297.199951171875</ele>
        <time>2020-08-18T08:46:27.000Z</time>
      </trkpt>
      <trkpt lat="42.51068296842277050018310546875" lon="-0.21346603520214557647705078125">
        <ele>1297.5999755859375</ele>
        <time>2020-08-18T08:46:30.000Z</time>
      </trkpt>
      <trkpt lat="42.5106728263199329376220703125" lon="-0.213474333286285400390625">
        <ele>1297.800048828125</ele>
        <time>2020-08-18T08:46:31.000Z</time>
      </trkpt>
      <trkpt lat="42.51062764786183834075927734375" lon="-0.21351884119212627410888671875">
        <ele>1298</ele>
        <time>2020-08-18T08:46:35.000Z</time>
      </trkpt>
      <trkpt lat="42.51061574555933475494384765625" lon="-0.21352470852434635162353515625">
        <ele>1298</ele>
        <time>2020-08-18T08:46:36.000Z</time>
      </trkpt>
      <trkpt lat="42.5106020830571651458740234375" lon="-0.21353694610297679901123046875">
        <ele>1298.199951171875</ele>
        <time>2020-08-18T08:46:37.000Z</time>
      </trkpt>
      <trkpt lat="42.51055371947586536407470703125" lon="-0.213571228086948394775390625">
        <ele>1298.4000244140625</ele>
        <time>2020-08-18T08:46:40.000Z</time>
      </trkpt>
      <trkpt lat="42.51047140918672084808349609375" lon="-0.21364306099712848663330078125">
        <ele>1298.5999755859375</ele>
        <time>2020-08-18T08:46:47.000Z</time>
      </trkpt>
      <trkpt lat="42.51044291071593761444091796875" lon="-0.213657729327678680419921875">
        <ele>1299</ele>
        <time>2020-08-18T08:46:49.000Z</time>
      </trkpt>
      <trkpt lat="42.510426901280879974365234375" lon="-0.21366653032600879669189453125">
        <ele>1299.199951171875</ele>
        <time>2020-08-18T08:46:50.000Z</time>
      </trkpt>
      <trkpt lat="42.5103932060301303863525390625" lon="-0.2136977948248386383056640625">
        <ele>1299.4000244140625</ele>
        <time>2020-08-18T08:46:53.000Z</time>
      </trkpt>
      <trkpt lat="42.510360181331634521484375" lon="-0.21372486837208271026611328125">
        <ele>1299.4000244140625</ele>
        <time>2020-08-18T08:46:56.000Z</time>
      </trkpt>
      <trkpt lat="42.5103238038718700408935546875" lon="-0.21377298049628734588623046875">
        <ele>1299.800048828125</ele>
        <time>2020-08-18T08:47:00.000Z</time>
      </trkpt>
      <trkpt lat="42.51030259765684604644775390625" lon="-0.21380600519478321075439453125">
        <ele>1300.199951171875</ele>
        <time>2020-08-18T08:47:02.000Z</time>
      </trkpt>
      <trkpt lat="42.51027225516736507415771484375" lon="-0.21385721862316131591796875">
        <ele>1301</ele>
        <time>2020-08-18T08:47:05.000Z</time>
      </trkpt>
      <trkpt lat="42.51020302064716815948486328125" lon="-0.2140280418097972869873046875">
        <ele>1300.800048828125</ele>
        <time>2020-08-18T08:47:12.000Z</time>
      </trkpt>
      <trkpt lat="42.5101038627326488494873046875" lon="-0.21411127410829067230224609375">
        <ele>1300.800048828125</ele>
        <time>2020-08-18T08:47:18.000Z</time>
      </trkpt>
      <trkpt lat="42.51000504009425640106201171875" lon="-0.21417438983917236328125">
        <ele>1301.199951171875</ele>
        <time>2020-08-18T08:47:24.000Z</time>
      </trkpt>
      <trkpt lat="42.5099888630211353302001953125" lon="-0.21418469958007335662841796875">
        <ele>1301.5999755859375</ele>
        <time>2020-08-18T08:47:25.000Z</time>
      </trkpt>
      <trkpt lat="42.50992306508123874664306640625" lon="-0.2142359130084514617919921875">
        <ele>1302.4000244140625</ele>
        <time>2020-08-18T08:47:29.000Z</time>
      </trkpt>
      <trkpt lat="42.50989490188658237457275390625" lon="-0.214245133101940155029296875">
        <ele>1302.4000244140625</ele>
        <time>2020-08-18T08:47:31.000Z</time>
      </trkpt>
      <trkpt lat="42.5098572671413421630859375" lon="-0.21425954997539520263671875">
        <ele>1302.199951171875</ele>
        <time>2020-08-18T08:47:33.000Z</time>
      </trkpt>
      <trkpt lat="42.5097950734198093414306640625" lon="-0.21430020220577716827392578125">
        <ele>1301.800048828125</ele>
        <time>2020-08-18T08:47:37.000Z</time>
      </trkpt>
      <trkpt lat="42.5097773037850856781005859375" lon="-0.21431059576570987701416015625">
        <ele>1301.5999755859375</ele>
        <time>2020-08-18T08:47:38.000Z</time>
      </trkpt>
      <trkpt lat="42.50971837900578975677490234375" lon="-0.214371867477893829345703125">
        <ele>1301.5999755859375</ele>
        <time>2020-08-18T08:47:42.000Z</time>
      </trkpt>
      <trkpt lat="42.5097058899700641632080078125" lon="-0.21437647752463817596435546875">
        <ele>1301.5999755859375</ele>
        <time>2020-08-18T08:47:43.000Z</time>
      </trkpt>
      <trkpt lat="42.509647719562053680419921875" lon="-0.214424170553684234619140625">
        <ele>1301.4000244140625</ele>
        <time>2020-08-18T08:47:46.000Z</time>
      </trkpt>
      <trkpt lat="42.509630955755710601806640625" lon="-0.2144434489309787750244140625">
        <ele>1301</ele>
        <time>2020-08-18T08:47:47.000Z</time>
      </trkpt>
      <trkpt lat="42.5095359049737453460693359375" lon="-0.214502625167369842529296875">
        <ele>1301</ele>
        <time>2020-08-18T08:47:53.000Z</time>
      </trkpt>
      <trkpt lat="42.5095193088054656982421875" lon="-0.21450824104249477386474609375">
        <ele>1301</ele>
        <time>2020-08-18T08:47:54.000Z</time>
      </trkpt>
      <trkpt lat="42.509485781192779541015625" lon="-0.214526765048503875732421875">
        <ele>1300.800048828125</ele>
        <time>2020-08-18T08:47:56.000Z</time>
      </trkpt>
      <trkpt lat="42.50943004153668880462646484375" lon="-0.21455953828990459442138671875">
        <ele>1300.800048828125</ele>
        <time>2020-08-18T08:47:59.000Z</time>
      </trkpt>
      <trkpt lat="42.50935527496039867401123046875" lon="-0.21460530348122119903564453125">
        <ele>1300.4000244140625</ele>
        <time>2020-08-18T08:48:03.000Z</time>
      </trkpt>
      <trkpt lat="42.50934295356273651123046875" lon="-0.21462441422045230865478515625">
        <ele>1300.4000244140625</ele>
        <time>2020-08-18T08:48:04.000Z</time>
      </trkpt>
      <trkpt lat="42.50925033353269100189208984375" lon="-0.214720554649829864501953125">
        <ele>1300.5999755859375</ele>
        <time>2020-08-18T08:48:10.000Z</time>
      </trkpt>
      <trkpt lat="42.50923139043152332305908203125" lon="-0.214725248515605926513671875">
        <ele>1300.4000244140625</ele>
        <time>2020-08-18T08:48:11.000Z</time>
      </trkpt>
      <trkpt lat="42.50917456112802028656005859375" lon="-0.21475299261510372161865234375">
        <ele>1300.199951171875</ele>
        <time>2020-08-18T08:48:14.000Z</time>
      </trkpt>
      <trkpt lat="42.50909208320081233978271484375" lon="-0.21478869952261447906494140625">
        <ele>1300.199951171875</ele>
        <time>2020-08-18T08:48:19.000Z</time>
      </trkpt>
      <trkpt lat="42.5090561248362064361572265625" lon="-0.2148005180060863494873046875">
        <ele>1300</ele>
        <time>2020-08-18T08:48:21.000Z</time>
      </trkpt>
      <trkpt lat="42.5090088509023189544677734375" lon="-0.2148194611072540283203125">
        <ele>1299.800048828125</ele>
        <time>2020-08-18T08:48:23.000Z</time>
      </trkpt>
      <trkpt lat="42.50895277597010135650634765625" lon="-0.2148984186351299285888671875">
        <ele>1299.5999755859375</ele>
        <time>2020-08-18T08:48:26.000Z</time>
      </trkpt>
      <trkpt lat="42.5089428015053272247314453125" lon="-0.214951224625110626220703125">
        <ele>1299.4000244140625</ele>
        <time>2020-08-18T08:48:28.000Z</time>
      </trkpt>
      <trkpt lat="42.50890231691300868988037109375" lon="-0.215105451643466949462890625">
        <ele>1299.4000244140625</ele>
        <time>2020-08-18T08:48:35.000Z</time>
      </trkpt>
      <trkpt lat="42.50888873822987079620361328125" lon="-0.21514023654162883758544921875">
        <ele>1299.4000244140625</ele>
        <time>2020-08-18T08:48:37.000Z</time>
      </trkpt>
      <trkpt lat="42.508863173425197601318359375" lon="-0.215193964540958404541015625">
        <ele>1299.4000244140625</ele>
        <time>2020-08-18T08:48:40.000Z</time>
      </trkpt>
      <trkpt lat="42.50885454006493091583251953125" lon="-0.21520494483411312103271484375">
        <ele>1299.4000244140625</ele>
        <time>2020-08-18T08:48:41.000Z</time>
      </trkpt>
      <trkpt lat="42.50879578292369842529296875" lon="-0.215267054736614227294921875">
        <ele>1299.5999755859375</ele>
        <time>2020-08-18T08:48:45.000Z</time>
      </trkpt>
      <trkpt lat="42.5087573938071727752685546875" lon="-0.21531038917601108551025390625">
        <ele>1299.800048828125</ele>
        <time>2020-08-18T08:48:48.000Z</time>
      </trkpt>
      <trkpt lat="42.50872814096510410308837890625" lon="-0.2153383009135723114013671875">
        <ele>1299.5999755859375</ele>
        <time>2020-08-18T08:48:50.000Z</time>
      </trkpt>
      <trkpt lat="42.50864021480083465576171875" lon="-0.2154194377362728118896484375">
        <ele>1299.4000244140625</ele>
        <time>2020-08-18T08:48:56.000Z</time>
      </trkpt>
      <trkpt lat="42.50857173465192317962646484375" lon="-0.21552664227783679962158203125">
        <ele>1299.4000244140625</ele>
        <time>2020-08-18T08:49:02.000Z</time>
      </trkpt>
      <trkpt lat="42.50854474492371082305908203125" lon="-0.21555681712925434112548828125">
        <ele>1299</ele>
        <time>2020-08-18T08:49:04.000Z</time>
      </trkpt>
      <trkpt lat="42.5085072778165340423583984375" lon="-0.2156187593936920166015625">
        <ele>1299</ele>
        <time>2020-08-18T08:49:07.000Z</time>
      </trkpt>
      <trkpt lat="42.508407197892665863037109375" lon="-0.21573753096163272857666015625">
        <ele>1298.800048828125</ele>
        <time>2020-08-18T08:49:13.000Z</time>
      </trkpt>
      <trkpt lat="42.50837341882288455963134765625" lon="-0.21577139385044574737548828125">
        <ele>1298.800048828125</ele>
        <time>2020-08-18T08:49:15.000Z</time>
      </trkpt>
      <trkpt lat="42.5082937069237232208251953125" lon="-0.215835012495517730712890625">
        <ele>1299</ele>
        <time>2020-08-18T08:49:20.000Z</time>
      </trkpt>
      <trkpt lat="42.50822153873741626739501953125" lon="-0.21590935997664928436279296875">
        <ele>1298.800048828125</ele>
        <time>2020-08-18T08:49:25.000Z</time>
      </trkpt>
      <trkpt lat="42.50812414102256298065185546875" lon="-0.21600139327347278594970703125">
        <ele>1298.800048828125</ele>
        <time>2020-08-18T08:49:30.000Z</time>
      </trkpt>
      <trkpt lat="42.50801903195679187774658203125" lon="-0.21603693254292011260986328125">
        <ele>1297.4000244140625</ele>
        <time>2020-08-18T08:49:34.000Z</time>
      </trkpt>
      <trkpt lat="42.50787980854511260986328125" lon="-0.21604816429316997528076171875">
        <ele>1296.800048828125</ele>
        <time>2020-08-18T08:49:39.000Z</time>
      </trkpt>
      <trkpt lat="42.50780160538852214813232421875" lon="-0.21607280708849430084228515625">
        <ele>1296.4000244140625</ele>
        <time>2020-08-18T08:49:42.000Z</time>
      </trkpt>
      <trkpt lat="42.50777293927967548370361328125" lon="-0.21609158255159854888916015625">
        <ele>1296.199951171875</ele>
        <time>2020-08-18T08:49:43.000Z</time>
      </trkpt>
      <trkpt lat="42.5077052973210811614990234375" lon="-0.21615595556795597076416015625">
        <ele>1295.4000244140625</ele>
        <time>2020-08-18T08:49:47.000Z</time>
      </trkpt>
      <trkpt lat="42.5076741166412830352783203125" lon="-0.21620742045342922210693359375">
        <ele>1295</ele>
        <time>2020-08-18T08:49:50.000Z</time>
      </trkpt>
      <trkpt lat="42.507664225995540618896484375" lon="-0.21623793058097362518310546875">
        <ele>1294.800048828125</ele>
        <time>2020-08-18T08:49:51.000Z</time>
      </trkpt>
      <trkpt lat="42.5076432712376117706298828125" lon="-0.21628973074257373809814453125">
        <ele>1294.4000244140625</ele>
        <time>2020-08-18T08:49:53.000Z</time>
      </trkpt>
      <trkpt lat="42.5075899623334407806396484375" lon="-0.21639249287545680999755859375">
        <ele>1294.199951171875</ele>
        <time>2020-08-18T08:49:57.000Z</time>
      </trkpt>
      <trkpt lat="42.5075306184589862823486328125" lon="-0.2164611406624317169189453125">
        <ele>1293.5999755859375</ele>
        <time>2020-08-18T08:50:00.000Z</time>
      </trkpt>
      <trkpt lat="42.50746280886232852935791015625" lon="-0.21655962802469730377197265625">
        <ele>1292.800048828125</ele>
        <time>2020-08-18T08:50:04.000Z</time>
      </trkpt>
      <trkpt lat="42.5074441172182559967041015625" lon="-0.216591060161590576171875">
        <ele>1292.4000244140625</ele>
        <time>2020-08-18T08:50:05.000Z</time>
      </trkpt>
      <trkpt lat="42.50738200731575489044189453125" lon="-0.216703712940216064453125">
        <ele>1291.4000244140625</ele>
        <time>2020-08-18T08:50:09.000Z</time>
      </trkpt>
      <trkpt lat="42.50736339949071407318115234375" lon="-0.21672843955457210540771484375">
        <ele>1291.199951171875</ele>
        <time>2020-08-18T08:50:10.000Z</time>
      </trkpt>
      <trkpt lat="42.50724948942661285400390625" lon="-0.2168410085141658782958984375">
        <ele>1290.5999755859375</ele>
        <time>2020-08-18T08:50:15.000Z</time>
      </trkpt>
      <trkpt lat="42.50722476281225681304931640625" lon="-0.216854922473430633544921875">
        <ele>1290.199951171875</ele>
        <time>2020-08-18T08:50:16.000Z</time>
      </trkpt>
      <trkpt lat="42.50709283165633678436279296875" lon="-0.21689892746508121490478515625">
        <ele>1289.5999755859375</ele>
        <time>2020-08-18T08:50:21.000Z</time>
      </trkpt>
      <trkpt lat="42.50703801400959491729736328125" lon="-0.2169177867472171783447265625">
        <ele>1289</ele>
        <time>2020-08-18T08:50:23.000Z</time>
      </trkpt>
      <trkpt lat="42.506954781711101531982421875" lon="-0.2169254980981349945068359375">
        <ele>1288.4000244140625</ele>
        <time>2020-08-18T08:50:27.000Z</time>
      </trkpt>
      <trkpt lat="42.5068972818553447723388671875" lon="-0.21693463437259197235107421875">
        <ele>1288.5999755859375</ele>
        <time>2020-08-18T08:50:31.000Z</time>
      </trkpt>
      <trkpt lat="42.5068842060863971710205078125" lon="-0.2169425971806049346923828125">
        <ele>1288.800048828125</ele>
        <time>2020-08-18T08:50:32.000Z</time>
      </trkpt>
      <trkpt lat="42.50682209618389606475830078125" lon="-0.2169560082256793975830078125">
        <ele>1288.800048828125</ele>
        <time>2020-08-18T08:50:36.000Z</time>
      </trkpt>
      <trkpt lat="42.50680097378790378570556640625" lon="-0.21696388721466064453125">
        <ele>1288.800048828125</ele>
        <time>2020-08-18T08:50:37.000Z</time>
      </trkpt>
      <trkpt lat="42.5067028217017650604248046875" lon="-0.21700881421566009521484375">
        <ele>1288.4000244140625</ele>
        <time>2020-08-18T08:50:42.000Z</time>
      </trkpt>
      <trkpt lat="42.50657751224935054779052734375" lon="-0.21709808148443698883056640625">
        <ele>1288.199951171875</ele>
        <time>2020-08-18T08:50:48.000Z</time>
      </trkpt>
      <trkpt lat="42.5065043382346630096435546875" lon="-0.21716278977692127227783203125">
        <ele>1287.800048828125</ele>
        <time>2020-08-18T08:50:51.000Z</time>
      </trkpt>
      <trkpt lat="42.50646720640361309051513671875" lon="-0.217181481420993804931640625">
        <ele>1287.5999755859375</ele>
        <time>2020-08-18T08:50:53.000Z</time>
      </trkpt>
      <trkpt lat="42.5063806213438510894775390625" lon="-0.21723546087741851806640625">
        <ele>1286.800048828125</ele>
        <time>2020-08-18T08:50:58.000Z</time>
      </trkpt>
      <trkpt lat="42.50634566880762577056884765625" lon="-0.217258930206298828125">
        <ele>1286.5999755859375</ele>
        <time>2020-08-18T08:51:00.000Z</time>
      </trkpt>
      <trkpt lat="42.50629504211246967315673828125" lon="-0.217309892177581787109375">
        <ele>1286.4000244140625</ele>
        <time>2020-08-18T08:51:03.000Z</time>
      </trkpt>
      <trkpt lat="42.506207786500453948974609375" lon="-0.21740871481597423553466796875">
        <ele>1285.800048828125</ele>
        <time>2020-08-18T08:51:08.000Z</time>
      </trkpt>
      <trkpt lat="42.506190352141857147216796875" lon="-0.21742380224168300628662109375">
        <ele>1285.4000244140625</ele>
        <time>2020-08-18T08:51:09.000Z</time>
      </trkpt>
      <trkpt lat="42.50613075681030750274658203125" lon="-0.2174890972673892974853515625">
        <ele>1284.4000244140625</ele>
        <time>2020-08-18T08:51:13.000Z</time>
      </trkpt>
      <trkpt lat="42.50609957613050937652587890625" lon="-0.21752304397523403167724609375">
        <ele>1284.199951171875</ele>
        <time>2020-08-18T08:51:16.000Z</time>
      </trkpt>
      <trkpt lat="42.50608675181865692138671875" lon="-0.21755824796855449676513671875">
        <ele>1284.199951171875</ele>
        <time>2020-08-18T08:51:18.000Z</time>
      </trkpt>
      <trkpt lat="42.50607141293585300445556640625" lon="-0.21758724935352802276611328125">
        <ele>1284</ele>
        <time>2020-08-18T08:51:20.000Z</time>
      </trkpt>
      <trkpt lat="42.5060339458286762237548828125" lon="-0.21764340810477733612060546875">
        <ele>1283.199951171875</ele>
        <time>2020-08-18T08:51:23.000Z</time>
      </trkpt>
      <trkpt lat="42.50601072795689105987548828125" lon="-0.217676348984241485595703125">
        <ele>1283</ele>
        <time>2020-08-18T08:51:25.000Z</time>
      </trkpt>
      <trkpt lat="42.50599882565438747406005859375" lon="-0.2176869101822376251220703125">
        <ele>1282.800048828125</ele>
        <time>2020-08-18T08:51:26.000Z</time>
      </trkpt>
      <trkpt lat="42.50596043653786182403564453125" lon="-0.21771716885268688201904296875">
        <ele>1282.5999755859375</ele>
        <time>2020-08-18T08:51:29.000Z</time>
      </trkpt>
      <trkpt lat="42.5058971531689167022705078125" lon="-0.2177323400974273681640625">
        <ele>1282</ele>
        <time>2020-08-18T08:51:32.000Z</time>
      </trkpt>
      <trkpt lat="42.50584862194955348968505859375" lon="-0.2177284844219684600830078125">
        <ele>1281.800048828125</ele>
        <time>2020-08-18T08:51:34.000Z</time>
      </trkpt>
      <trkpt lat="42.505822218954563140869140625" lon="-0.21773125045001506805419921875">
        <ele>1281.4000244140625</ele>
        <time>2020-08-18T08:51:35.000Z</time>
      </trkpt>
      <trkpt lat="42.505714595317840576171875" lon="-0.2177294902503490447998046875">
        <ele>1280.4000244140625</ele>
        <time>2020-08-18T08:51:39.000Z</time>
      </trkpt>
      <trkpt lat="42.50568718649446964263916015625" lon="-0.2177269756793975830078125">
        <ele>1280.199951171875</ele>
        <time>2020-08-18T08:51:40.000Z</time>
      </trkpt>
      <trkpt lat="42.505553327500820159912109375" lon="-0.21773929707705974578857421875">
        <ele>1279.199951171875</ele>
        <time>2020-08-18T08:51:45.000Z</time>
      </trkpt>
      <trkpt lat="42.50552675686776638031005859375" lon="-0.21775606088340282440185546875">
        <ele>1278.800048828125</ele>
        <time>2020-08-18T08:51:46.000Z</time>
      </trkpt>
      <trkpt lat="42.50546003691852092742919921875" lon="-0.21778070367872714996337890625">
        <ele>1278.4000244140625</ele>
        <time>2020-08-18T08:51:49.000Z</time>
      </trkpt>
      <trkpt lat="42.505370937287807464599609375" lon="-0.2177787758409976959228515625">
        <ele>1277.800048828125</ele>
        <time>2020-08-18T08:51:53.000Z</time>
      </trkpt>
      <trkpt lat="42.5053449533879756927490234375" lon="-0.21778036840260028839111328125">
        <ele>1277.800048828125</ele>
        <time>2020-08-18T08:51:54.000Z</time>
      </trkpt>
      <trkpt lat="42.50518041662871837615966796875" lon="-0.2177760936319828033447265625">
        <ele>1277</ele>
        <time>2020-08-18T08:51:59.000Z</time>
      </trkpt>
      <trkpt lat="42.5051471404731273651123046875" lon="-0.2177794463932514190673828125">
        <ele>1276.5999755859375</ele>
        <time>2020-08-18T08:52:00.000Z</time>
      </trkpt>
      <trkpt lat="42.505031637847423553466796875" lon="-0.2178089506924152374267578125">
        <ele>1276.199951171875</ele>
        <time>2020-08-18T08:52:04.000Z</time>
      </trkpt>
      <trkpt lat="42.50493583269417285919189453125" lon="-0.2178501896560192108154296875">
        <ele>1276.5999755859375</ele>
        <time>2020-08-18T08:52:09.000Z</time>
      </trkpt>
      <trkpt lat="42.5048517622053623199462890625" lon="-0.21790090017020702362060546875">
        <ele>1276.5999755859375</ele>
        <time>2020-08-18T08:52:14.000Z</time>
      </trkpt>
      <trkpt lat="42.50473223626613616943359375" lon="-0.217992179095745086669921875">
        <ele>1276</ele>
        <time>2020-08-18T08:52:20.000Z</time>
      </trkpt>
      <trkpt lat="42.5046955235302448272705078125" lon="-0.21805713884532451629638671875">
        <ele>1275.5999755859375</ele>
        <time>2020-08-18T08:52:23.000Z</time>
      </trkpt>
      <trkpt lat="42.50469309277832508087158203125" lon="-0.2180835418403148651123046875">
        <ele>1275.5999755859375</ele>
        <time>2020-08-18T08:52:24.000Z</time>
      </trkpt>
      <trkpt lat="42.5047391094267368316650390625" lon="-0.2181931771337985992431640625">
        <ele>1275.4000244140625</ele>
        <time>2020-08-18T08:52:29.000Z</time>
      </trkpt>
      <trkpt lat="42.5048470683395862579345703125" lon="-0.2182377688586711883544921875">
        <ele>1276</ele>
        <time>2020-08-18T08:52:35.000Z</time>
      </trkpt>
      <trkpt lat="42.504966594278812408447265625" lon="-0.21824455820024013519287109375">
        <ele>1276</ele>
        <time>2020-08-18T08:52:41.000Z</time>
      </trkpt>
      <trkpt lat="42.50505921430885791778564453125" lon="-0.218232572078704833984375">
        <ele>1275.800048828125</ele>
        <time>2020-08-18T08:52:46.000Z</time>
      </trkpt>
      <trkpt lat="42.50516449101269245147705078125" lon="-0.21821237169206142425537109375">
        <ele>1276.199951171875</ele>
        <time>2020-08-18T08:52:52.000Z</time>
      </trkpt>
      <trkpt lat="42.5052366591989994049072265625" lon="-0.21819971501827239990234375">
        <ele>1277</ele>
        <time>2020-08-18T08:52:57.000Z</time>
      </trkpt>
      <trkpt lat="42.50526775605976581573486328125" lon="-0.21819409914314746856689453125">
        <ele>1277.199951171875</ele>
        <time>2020-08-18T08:52:59.000Z</time>
      </trkpt>
      <trkpt lat="42.50536465086042881011962890625" lon="-0.21818353794515132904052734375">
        <ele>1277.800048828125</ele>
        <time>2020-08-18T08:53:05.000Z</time>
      </trkpt>
      <trkpt lat="42.5053833425045013427734375" lon="-0.21818873472511768341064453125">
        <ele>1277.800048828125</ele>
        <time>2020-08-18T08:53:06.000Z</time>
      </trkpt>
      <trkpt lat="42.5055008567869663238525390625" lon="-0.21819896064698696136474609375">
        <ele>1278.5999755859375</ele>
        <time>2020-08-18T08:53:13.000Z</time>
      </trkpt>
      <trkpt lat="42.50553061254322528839111328125" lon="-0.21819544024765491485595703125">
        <ele>1279</ele>
        <time>2020-08-18T08:53:15.000Z</time>
      </trkpt>
      <trkpt lat="42.5055441074073314666748046875" lon="-0.2181990444660186767578125">
        <ele>1279</ele>
        <time>2020-08-18T08:53:16.000Z</time>
      </trkpt>
      <trkpt lat="42.50558760948479175567626953125" lon="-0.21820683963596820831298828125">
        <ele>1279.199951171875</ele>
        <time>2020-08-18T08:53:19.000Z</time>
      </trkpt>
      <trkpt lat="42.50567327253520488739013671875" lon="-0.21822393871843814849853515625">
        <ele>1279.800048828125</ele>
        <time>2020-08-18T08:53:26.000Z</time>
      </trkpt>
      <trkpt lat="42.5056842528283596038818359375" lon="-0.21823165006935596466064453125">
        <ele>1279.800048828125</ele>
        <time>2020-08-18T08:53:27.000Z</time>
      </trkpt>
      <trkpt lat="42.505747787654399871826171875" lon="-0.21824665367603302001953125">
        <ele>1280.199951171875</ele>
        <time>2020-08-18T08:53:32.000Z</time>
      </trkpt>
      <trkpt lat="42.5057908706367015838623046875" lon="-0.21824019961059093475341796875">
        <ele>1281</ele>
        <time>2020-08-18T08:53:35.000Z</time>
      </trkpt>
      <trkpt lat="42.50584124587476253509521484375" lon="-0.21824799478054046630859375">
        <ele>1281.199951171875</ele>
        <time>2020-08-18T08:53:38.000Z</time>
      </trkpt>
      <trkpt lat="42.50587628223001956939697265625" lon="-0.21824975498020648956298828125">
        <ele>1281.5999755859375</ele>
        <time>2020-08-18T08:53:41.000Z</time>
      </trkpt>
      <trkpt lat="42.505893968045711517333984375" lon="-0.21825629286468029022216796875">
        <ele>1282</ele>
        <time>2020-08-18T08:53:43.000Z</time>
      </trkpt>
      <trkpt lat="42.50594249926507472991943359375" lon="-0.21829350851476192474365234375">
        <ele>1282.800048828125</ele>
        <time>2020-08-18T08:53:48.000Z</time>
      </trkpt>
      <trkpt lat="42.50596940517425537109375" lon="-0.21830138750374317169189453125">
        <ele>1283.199951171875</ele>
        <time>2020-08-18T08:53:50.000Z</time>
      </trkpt>
      <trkpt lat="42.5060399807989597320556640625" lon="-0.2183336578309535980224609375">
        <ele>1283.5999755859375</ele>
        <time>2020-08-18T08:53:55.000Z</time>
      </trkpt>
      <trkpt lat="42.5060896016657352447509765625" lon="-0.21836358122527599334716796875">
        <ele>1284.199951171875</ele>
        <time>2020-08-18T08:53:59.000Z</time>
      </trkpt>
      <trkpt lat="42.50613503158092498779296875" lon="-0.21838746964931488037109375">
        <ele>1284.5999755859375</ele>
        <time>2020-08-18T08:54:02.000Z</time>
      </trkpt>
      <trkpt lat="42.50619563274085521697998046875" lon="-0.21841563284397125244140625">
        <ele>1285.199951171875</ele>
        <time>2020-08-18T08:54:06.000Z</time>
      </trkpt>
      <trkpt lat="42.50622346065938472747802734375" lon="-0.21841890178620815277099609375">
        <ele>1285.199951171875</ele>
        <time>2020-08-18T08:54:08.000Z</time>
      </trkpt>
      <trkpt lat="42.506241984665393829345703125" lon="-0.21842074580490589141845703125">
        <ele>1285.4000244140625</ele>
        <time>2020-08-18T08:54:09.000Z</time>
      </trkpt>
      <trkpt lat="42.50627324916422367095947265625" lon="-0.2184442989528179168701171875">
        <ele>1285.5999755859375</ele>
        <time>2020-08-18T08:54:14.000Z</time>
      </trkpt>
      <trkpt lat="42.50627852976322174072265625" lon="-0.21845393814146518707275390625">
        <ele>1285.5999755859375</ele>
        <time>2020-08-18T08:54:38.000Z</time>
      </trkpt>
      <trkpt lat="42.506331838667392730712890625" lon="-0.2184335701167583465576171875">
        <ele>1285.800048828125</ele>
        <time>2020-08-18T08:54:44.000Z</time>
      </trkpt>
      <trkpt lat="42.506388835608959197998046875" lon="-0.21838939748704433441162109375">
        <ele>1286.199951171875</ele>
        <time>2020-08-18T08:54:47.000Z</time>
      </trkpt>
      <trkpt lat="42.50644742511212825775146484375" lon="-0.218345224857330322265625">
        <ele>1286.4000244140625</ele>
        <time>2020-08-18T08:54:50.000Z</time>
      </trkpt>
      <trkpt lat="42.50658539123833179473876953125" lon="-0.21821991540491580963134765625">
        <ele>1287</ele>
        <time>2020-08-18T08:54:58.000Z</time>
      </trkpt>
      <trkpt lat="42.5066367723047733306884765625" lon="-0.21817700006067752838134765625">
        <ele>1287.199951171875</ele>
        <time>2020-08-18T08:55:01.000Z</time>
      </trkpt>
      <trkpt lat="42.5067021511495113372802734375" lon="-0.21811111830174922943115234375">
        <ele>1287.199951171875</ele>
        <time>2020-08-18T08:55:05.000Z</time>
      </trkpt>
      <trkpt lat="42.506797872483730316162109375" lon="-0.21804741583764553070068359375">
        <ele>1286.5999755859375</ele>
        <time>2020-08-18T08:55:09.000Z</time>
      </trkpt>
      <trkpt lat="42.50687289051711559295654296875" lon="-0.21800047717988491058349609375">
        <ele>1286</ele>
        <time>2020-08-18T08:55:12.000Z</time>
      </trkpt>
      <trkpt lat="42.50691865570843219757080078125" lon="-0.217980444431304931640625">
        <ele>1285.800048828125</ele>
        <time>2020-08-18T08:55:14.000Z</time>
      </trkpt>
      <trkpt lat="42.5070431269705295562744140625" lon="-0.2179348468780517578125">
        <ele>1285</ele>
        <time>2020-08-18T08:55:19.000Z</time>
      </trkpt>
      <trkpt lat="42.50706768594682216644287109375" lon="-0.21792889572679996490478515625">
        <ele>1284.5999755859375</ele>
        <time>2020-08-18T08:55:20.000Z</time>
      </trkpt>
      <trkpt lat="42.50717061571776866912841796875" lon="-0.21792478859424591064453125">
        <ele>1283.4000244140625</ele>
        <time>2020-08-18T08:55:24.000Z</time>
      </trkpt>
      <trkpt lat="42.50727673061192035675048828125" lon="-0.217930488288402557373046875">
        <ele>1282.4000244140625</ele>
        <time>2020-08-18T08:55:28.000Z</time>
      </trkpt>
      <trkpt lat="42.5073294527828693389892578125" lon="-0.2179232798516750335693359375">
        <ele>1282.4000244140625</ele>
        <time>2020-08-18T08:55:30.000Z</time>
      </trkpt>
      <trkpt lat="42.50743095763027667999267578125" lon="-0.2178924344480037689208984375">
        <ele>1281</ele>
        <time>2020-08-18T08:55:34.000Z</time>
      </trkpt>
      <trkpt lat="42.5074605457484722137451171875" lon="-0.21788229234516620635986328125">
        <ele>1280.4000244140625</ele>
        <time>2020-08-18T08:55:35.000Z</time>
      </trkpt>
      <trkpt lat="42.5074861943721771240234375" lon="-0.21787391044199466705322265625">
        <ele>1279.5999755859375</ele>
        <time>2020-08-18T08:55:36.000Z</time>
      </trkpt>
      <trkpt lat="42.5075688399374485015869140625" lon="-0.2178394608199596405029296875">
        <ele>1278.5999755859375</ele>
        <time>2020-08-18T08:55:39.000Z</time>
      </trkpt>
      <trkpt lat="42.507597170770168304443359375" lon="-0.21782512776553630828857421875">
        <ele>1278.199951171875</ele>
        <time>2020-08-18T08:55:40.000Z</time>
      </trkpt>
      <trkpt lat="42.50776589848101139068603515625" lon="-0.21767978556454181671142578125">
        <ele>1277.4000244140625</ele>
        <time>2020-08-18T08:55:46.000Z</time>
      </trkpt>
      <trkpt lat="42.50784619711339473724365234375" lon="-0.21761507727205753326416015625">
        <ele>1276.5999755859375</ele>
        <time>2020-08-18T08:55:49.000Z</time>
      </trkpt>
      <trkpt lat="42.50793186016380786895751953125" lon="-0.2175524644553661346435546875">
        <ele>1276</ele>
        <time>2020-08-18T08:55:52.000Z</time>
      </trkpt>
      <trkpt lat="42.5080486200749874114990234375" lon="-0.21748264320194721221923828125">
        <ele>1275.5999755859375</ele>
        <time>2020-08-18T08:55:55.000Z</time>
      </trkpt>
      <trkpt lat="42.5080962292850017547607421875" lon="-0.2174627780914306640625">
        <ele>1275.4000244140625</ele>
        <time>2020-08-18T08:55:56.000Z</time>
      </trkpt>
      <trkpt lat="42.50814559869468212127685546875" lon="-0.21744257770478725433349609375">
        <ele>1275.199951171875</ele>
        <time>2020-08-18T08:55:57.000Z</time>
      </trkpt>
      <trkpt lat="42.50827551819384098052978515625" lon="-0.2173797972500324249267578125">
        <ele>1274</ele>
        <time>2020-08-18T08:56:00.000Z</time>
      </trkpt>
      <trkpt lat="42.50839437358081340789794921875" lon="-0.21734015084803104400634765625">
        <ele>1273.4000244140625</ele>
        <time>2020-08-18T08:56:03.000Z</time>
      </trkpt>
      <trkpt lat="42.50843494199216365814208984375" lon="-0.21733277477324008941650390625">
        <ele>1273</ele>
        <time>2020-08-18T08:56:04.000Z</time>
      </trkpt>
      <trkpt lat="42.50859419815242290496826171875" lon="-0.21730544976890087127685546875">
        <ele>1272.199951171875</ele>
        <time>2020-08-18T08:56:08.000Z</time>
      </trkpt>
      <trkpt lat="42.50863753259181976318359375" lon="-0.21729388274252414703369140625">
        <ele>1272.199951171875</ele>
        <time>2020-08-18T08:56:09.000Z</time>
      </trkpt>
      <trkpt lat="42.50876720063388347625732421875" lon="-0.21728985942900180816650390625">
        <ele>1272</ele>
        <time>2020-08-18T08:56:12.000Z</time>
      </trkpt>
      <trkpt lat="42.5088777579367160797119140625" lon="-0.21728298626840114593505859375">
        <ele>1271.5999755859375</ele>
        <time>2020-08-18T08:56:15.000Z</time>
      </trkpt>
      <trkpt lat="42.50895814038813114166259765625" lon="-0.2172718383371829986572265625">
        <ele>1271.4000244140625</ele>
        <time>2020-08-18T08:56:18.000Z</time>
      </trkpt>
      <trkpt lat="42.50909023918211460113525390625" lon="-0.2172254025936126708984375">
        <ele>1272</ele>
        <time>2020-08-18T08:56:24.000Z</time>
      </trkpt>
      <trkpt lat="42.50920674763619899749755859375" lon="-0.217156670987606048583984375">
        <ele>1272.199951171875</ele>
        <time>2020-08-18T08:56:30.000Z</time>
      </trkpt>
      <trkpt lat="42.509303726255893707275390625" lon="-0.2170894481241703033447265625">
        <ele>1272.5999755859375</ele>
        <time>2020-08-18T08:56:35.000Z</time>
      </trkpt>
      <trkpt lat="42.50932157970964908599853515625" lon="-0.21707989275455474853515625">
        <ele>1272.5999755859375</ele>
        <time>2020-08-18T08:56:36.000Z</time>
      </trkpt>
      <trkpt lat="42.50939969904720783233642578125" lon="-0.21701878868043422698974609375">
        <ele>1273.4000244140625</ele>
        <time>2020-08-18T08:56:41.000Z</time>
      </trkpt>
      <trkpt lat="42.50941193662583827972412109375" lon="-0.2170054614543914794921875">
        <ele>1273.5999755859375</ele>
        <time>2020-08-18T08:56:42.000Z</time>
      </trkpt>
      <trkpt lat="42.5094943307340145111083984375" lon="-0.21696296520531177520751953125">
        <ele>1274.5999755859375</ele>
        <time>2020-08-18T08:56:47.000Z</time>
      </trkpt>
      <trkpt lat="42.5095112621784210205078125" lon="-0.21696095354855060577392578125">
        <ele>1275</ele>
        <time>2020-08-18T08:56:48.000Z</time>
      </trkpt>
      <trkpt lat="42.509657107293605804443359375" lon="-0.21692239679396152496337890625">
        <ele>1275.199951171875</ele>
        <time>2020-08-18T08:56:55.000Z</time>
      </trkpt>
      <trkpt lat="42.5097146071493625640869140625" lon="-0.21685735322535037994384765625">
        <ele>1275.4000244140625</ele>
        <time>2020-08-18T08:56:59.000Z</time>
      </trkpt>
      <trkpt lat="42.509727515280246734619140625" lon="-0.2168405055999755859375">
        <ele>1275.5999755859375</ele>
        <time>2020-08-18T08:57:00.000Z</time>
      </trkpt>
      <trkpt lat="42.509760372340679168701171875" lon="-0.21679365076124668121337890625">
        <ele>1276.5999755859375</ele>
        <time>2020-08-18T08:57:03.000Z</time>
      </trkpt>
      <trkpt lat="42.50980203039944171905517578125" lon="-0.21674335934221744537353515625">
        <ele>1277.199951171875</ele>
        <time>2020-08-18T08:57:07.000Z</time>
      </trkpt>
      <trkpt lat="42.50981410034000873565673828125" lon="-0.2167318761348724365234375">
        <ele>1277.4000244140625</ele>
        <time>2020-08-18T08:57:08.000Z</time>
      </trkpt>
      <trkpt lat="42.50984125770628452301025390625" lon="-0.216715447604656219482421875">
        <ele>1277.4000244140625</ele>
        <time>2020-08-18T08:57:10.000Z</time>
      </trkpt>
      <trkpt lat="42.5098705105483531951904296875" lon="-0.216698683798313140869140625">
        <ele>1278</ele>
        <time>2020-08-18T08:57:12.000Z</time>
      </trkpt>
      <trkpt lat="42.5099114142358303070068359375" lon="-0.21668334491550922393798828125">
        <ele>1278.5999755859375</ele>
        <time>2020-08-18T08:57:15.000Z</time>
      </trkpt>
      <trkpt lat="42.5099580176174640655517578125" lon="-0.21667697466909885406494140625">
        <ele>1278.800048828125</ele>
        <time>2020-08-18T08:57:18.000Z</time>
      </trkpt>
      <trkpt lat="42.51003923825919628143310546875" lon="-0.21665652282536029815673828125">
        <ele>1279.5999755859375</ele>
        <time>2020-08-18T08:57:23.000Z</time>
      </trkpt>
      <trkpt lat="42.5100726820528507232666015625" lon="-0.21665501408278942108154296875">
        <ele>1279.800048828125</ele>
        <time>2020-08-18T08:57:25.000Z</time>
      </trkpt>
      <trkpt lat="42.51018726266920566558837890625" lon="-0.2166353166103363037109375">
        <ele>1280.5999755859375</ele>
        <time>2020-08-18T08:57:32.000Z</time>
      </trkpt>
      <trkpt lat="42.510300837457180023193359375" lon="-0.21660958416759967803955078125">
        <ele>1281.4000244140625</ele>
        <time>2020-08-18T08:57:39.000Z</time>
      </trkpt>
      <trkpt lat="42.5103181041777133941650390625" lon="-0.21660656668245792388916015625">
        <ele>1281.5999755859375</ele>
        <time>2020-08-18T08:57:40.000Z</time>
      </trkpt>
      <trkpt lat="42.5104163400828838348388671875" lon="-0.21658862940967082977294921875">
        <ele>1282.199951171875</ele>
        <time>2020-08-18T08:57:46.000Z</time>
      </trkpt>
      <trkpt lat="42.5104823894798755645751953125" lon="-0.21657966077327728271484375">
        <ele>1282.4000244140625</ele>
        <time>2020-08-18T08:57:50.000Z</time>
      </trkpt>
      <trkpt lat="42.51054181717336177825927734375" lon="-0.21656113676726818084716796875">
        <ele>1283.4000244140625</ele>
        <time>2020-08-18T08:57:54.000Z</time>
      </trkpt>
      <trkpt lat="42.51055723987519741058349609375" lon="-0.21655443124473094940185546875">
        <ele>1283.5999755859375</ele>
        <time>2020-08-18T08:57:55.000Z</time>
      </trkpt>
      <trkpt lat="42.510601915419101715087890625" lon="-0.21653766743838787078857421875">
        <ele>1283.800048828125</ele>
        <time>2020-08-18T08:57:58.000Z</time>
      </trkpt>
      <trkpt lat="42.51063083298504352569580078125" lon="-0.216528363525867462158203125">
        <ele>1284</ele>
        <time>2020-08-18T08:58:00.000Z</time>
      </trkpt>
      <trkpt lat="42.51073325984179973602294921875" lon="-0.216466672718524932861328125">
        <ele>1284.5999755859375</ele>
        <time>2020-08-18T08:58:07.000Z</time>
      </trkpt>
      <trkpt lat="42.51081154681742191314697265625" lon="-0.2164259366691112518310546875">
        <ele>1285.5999755859375</ele>
        <time>2020-08-18T08:58:12.000Z</time>
      </trkpt>
      <trkpt lat="42.51087390817701816558837890625" lon="-0.21637807600200176239013671875">
        <ele>1285.4000244140625</ele>
        <time>2020-08-18T08:58:16.000Z</time>
      </trkpt>
      <trkpt lat="42.51092277467250823974609375" lon="-0.21633625030517578125">
        <ele>1286</ele>
        <time>2020-08-18T08:58:19.000Z</time>
      </trkpt>
      <trkpt lat="42.51102930866181850433349609375" lon="-0.2162529341876506805419921875">
        <ele>1286</ele>
        <time>2020-08-18T08:58:26.000Z</time>
      </trkpt>
      <trkpt lat="42.51111178658902645111083984375" lon="-0.21620959974825382232666015625">
        <ele>1286.800048828125</ele>
        <time>2020-08-18T08:58:31.000Z</time>
      </trkpt>
      <trkpt lat="42.51115922816097736358642578125" lon="-0.216186381876468658447265625">
        <ele>1287.5999755859375</ele>
        <time>2020-08-18T08:58:34.000Z</time>
      </trkpt>
      <trkpt lat="42.511174567043781280517578125" lon="-0.2161831967532634735107421875">
        <ele>1287.5999755859375</ele>
        <time>2020-08-18T08:58:35.000Z</time>
      </trkpt>
      <trkpt lat="42.51125830225646495819091796875" lon="-0.21618068218231201171875">
        <ele>1288</ele>
        <time>2020-08-18T08:58:40.000Z</time>
      </trkpt>
      <trkpt lat="42.51129233278334140777587890625" lon="-0.2161862142384052276611328125">
        <ele>1288.5999755859375</ele>
        <time>2020-08-18T08:58:42.000Z</time>
      </trkpt>
      <trkpt lat="42.51134790480136871337890625" lon="-0.21621488034725189208984375">
        <ele>1288.800048828125</ele>
        <time>2020-08-18T08:58:46.000Z</time>
      </trkpt>
      <trkpt lat="42.5113581307232379913330078125" lon="-0.21622401662170886993408203125">
        <ele>1288.800048828125</ele>
        <time>2020-08-18T08:58:47.000Z</time>
      </trkpt>
      <trkpt lat="42.51137472689151763916015625" lon="-0.21624840795993804931640625">
        <ele>1289</ele>
        <time>2020-08-18T08:58:49.000Z</time>
      </trkpt>
      <trkpt lat="42.51139962114393711090087890625" lon="-0.216297022998332977294921875">
        <ele>1289.5999755859375</ele>
        <time>2020-08-18T08:58:52.000Z</time>
      </trkpt>
      <trkpt lat="42.51145251095294952392578125" lon="-0.21636114455759525299072265625">
        <ele>1290</ele>
        <time>2020-08-18T08:58:57.000Z</time>
      </trkpt>
      <trkpt lat="42.51146365888416767120361328125" lon="-0.2163751423358917236328125">
        <ele>1290</ele>
        <time>2020-08-18T08:58:58.000Z</time>
      </trkpt>
      <trkpt lat="42.51147338189184665679931640625" lon="-0.21639131940901279449462890625">
        <ele>1290.199951171875</ele>
        <time>2020-08-18T08:58:59.000Z</time>
      </trkpt>
      <trkpt lat="42.51152786426246166229248046875" lon="-0.21648184396326541900634765625">
        <ele>1290.800048828125</ele>
        <time>2020-08-18T08:59:05.000Z</time>
      </trkpt>
      <trkpt lat="42.5115660019218921661376953125" lon="-0.216601453721523284912109375">
        <ele>1290.800048828125</ele>
        <time>2020-08-18T08:59:11.000Z</time>
      </trkpt>
      <trkpt lat="42.511588297784328460693359375" lon="-0.2166639827191829681396484375">
        <ele>1291.199951171875</ele>
        <time>2020-08-18T08:59:14.000Z</time>
      </trkpt>
      <trkpt lat="42.5116015411913394927978515625" lon="-0.216706059873104095458984375">
        <ele>1291.4000244140625</ele>
        <time>2020-08-18T08:59:16.000Z</time>
      </trkpt>
      <trkpt lat="42.51160682179033756256103515625" lon="-0.21672743372619152069091796875">
        <ele>1291.800048828125</ele>
        <time>2020-08-18T08:59:17.000Z</time>
      </trkpt>
      <trkpt lat="42.51161880791187286376953125" lon="-0.2167649008333683013916015625">
        <ele>1292.4000244140625</ele>
        <time>2020-08-18T08:59:19.000Z</time>
      </trkpt>
      <trkpt lat="42.51163364388048648834228515625" lon="-0.21680094301700592041015625">
        <ele>1292.4000244140625</ele>
        <time>2020-08-18T08:59:21.000Z</time>
      </trkpt>
      <trkpt lat="42.5116451270878314971923828125" lon="-0.21683522500097751617431640625">
        <ele>1292.5999755859375</ele>
        <time>2020-08-18T08:59:23.000Z</time>
      </trkpt>
      <trkpt lat="42.511676810681819915771484375" lon="-0.21689557470381259918212890625">
        <ele>1293.199951171875</ele>
        <time>2020-08-18T08:59:27.000Z</time>
      </trkpt>
      <trkpt lat="42.5117115117609500885009765625" lon="-0.21693295799195766448974609375">
        <ele>1293.800048828125</ele>
        <time>2020-08-18T08:59:30.000Z</time>
      </trkpt>
      <trkpt lat="42.5117229111492633819580078125" lon="-0.21695055998861789703369140625">
        <ele>1294</ele>
        <time>2020-08-18T08:59:31.000Z</time>
      </trkpt>
      <trkpt lat="42.51175752840936183929443359375" lon="-0.21700923331081867218017578125">
        <ele>1294.4000244140625</ele>
        <time>2020-08-18T08:59:34.000Z</time>
      </trkpt>
      <trkpt lat="42.51176767051219940185546875" lon="-0.2170210517942905426025390625">
        <ele>1294.4000244140625</ele>
        <time>2020-08-18T08:59:35.000Z</time>
      </trkpt>
      <trkpt lat="42.51184687949717044830322265625" lon="-0.21709137596189975738525390625">
        <ele>1295.199951171875</ele>
        <time>2020-08-18T08:59:41.000Z</time>
      </trkpt>
      <trkpt lat="42.5119386613368988037109375" lon="-0.21706757135689258575439453125">
        <ele>1295</ele>
        <time>2020-08-18T08:59:45.000Z</time>
      </trkpt>
      <trkpt lat="42.51197294332087039947509765625" lon="-0.21701593883335590362548828125">
        <ele>1295.4000244140625</ele>
        <time>2020-08-18T08:59:48.000Z</time>
      </trkpt>
      <trkpt lat="42.51199339516460895538330078125" lon="-0.216985680162906646728515625">
        <ele>1295.5999755859375</ele>
        <time>2020-08-18T08:59:50.000Z</time>
      </trkpt>
      <trkpt lat="42.5120353884994983673095703125" lon="-0.21686607040464878082275390625">
        <ele>1296.4000244140625</ele>
        <time>2020-08-18T08:59:56.000Z</time>
      </trkpt>
      <trkpt lat="42.51210026443004608154296875" lon="-0.216719470918178558349609375">
        <ele>1297</ele>
        <time>2020-08-18T09:00:03.000Z</time>
      </trkpt>
      <trkpt lat="42.5121527351438999176025390625" lon="-0.2165959216654300689697265625">
        <ele>1297.5999755859375</ele>
        <time>2020-08-18T09:00:09.000Z</time>
      </trkpt>
      <trkpt lat="42.51215851865708827972412109375" lon="-0.21657773293554782867431640625">
        <ele>1298</ele>
        <time>2020-08-18T09:00:10.000Z</time>
      </trkpt>
      <trkpt lat="42.51217804849147796630859375" lon="-0.2164779044687747955322265625">
        <ele>1298.199951171875</ele>
        <time>2020-08-18T09:00:15.000Z</time>
      </trkpt>
      <trkpt lat="42.51220277510583400726318359375" lon="-0.21640992723405361175537109375">
        <ele>1298.5999755859375</ele>
        <time>2020-08-18T09:00:18.000Z</time>
      </trkpt>
      <trkpt lat="42.51221115700900554656982421875" lon="-0.21638922393321990966796875">
        <ele>1298.800048828125</ele>
        <time>2020-08-18T09:00:19.000Z</time>
      </trkpt>
      <trkpt lat="42.5122264958918094635009765625" lon="-0.2163518406450748443603515625">
        <ele>1299</ele>
        <time>2020-08-18T09:00:21.000Z</time>
      </trkpt>
      <trkpt lat="42.51228139735758304595947265625" lon="-0.21626139990985393524169921875">
        <ele>1299.800048828125</ele>
        <time>2020-08-18T09:00:27.000Z</time>
      </trkpt>
      <trkpt lat="42.51229472458362579345703125" lon="-0.21624974906444549560546875">
        <ele>1300</ele>
        <time>2020-08-18T09:00:28.000Z</time>
      </trkpt>
      <trkpt lat="42.51238323748111724853515625" lon="-0.21616886369884014129638671875">
        <ele>1300.800048828125</ele>
        <time>2020-08-18T09:00:35.000Z</time>
      </trkpt>
      <trkpt lat="42.51239522360265254974365234375" lon="-0.2161593921482563018798828125">
        <ele>1301</ele>
        <time>2020-08-18T09:00:36.000Z</time>
      </trkpt>
      <trkpt lat="42.51247770152986049652099609375" lon="-0.216099210083484649658203125">
        <ele>1302</ele>
        <time>2020-08-18T09:00:42.000Z</time>
      </trkpt>
      <trkpt lat="42.51250284723937511444091796875" lon="-0.21608655340969562530517578125">
        <ele>1302.199951171875</ele>
        <time>2020-08-18T09:00:44.000Z</time>
      </trkpt>
      <trkpt lat="42.51255280338227748870849609375" lon="-0.216081105172634124755859375">
        <ele>1302.800048828125</ele>
        <time>2020-08-18T09:00:48.000Z</time>
      </trkpt>
      <trkpt lat="42.51258230768144130706787109375" lon="-0.21606962196528911590576171875">
        <ele>1302.800048828125</ele>
        <time>2020-08-18T09:00:51.000Z</time>
      </trkpt>
      <trkpt lat="42.51268289051949977874755859375" lon="-0.21604514680802822113037109375">
        <ele>1303.5999755859375</ele>
        <time>2020-08-18T09:00:58.000Z</time>
      </trkpt>
      <trkpt lat="42.51276033930480480194091796875" lon="-0.216014720499515533447265625">
        <ele>1304.199951171875</ele>
        <time>2020-08-18T09:01:03.000Z</time>
      </trkpt>
      <trkpt lat="42.5127927772700786590576171875" lon="-0.21600575186312198638916015625">
        <ele>1304.5999755859375</ele>
        <time>2020-08-18T09:01:05.000Z</time>
      </trkpt>
      <trkpt lat="42.5128910131752490997314453125" lon="-0.21601195447146892547607421875">
        <ele>1304.800048828125</ele>
        <time>2020-08-18T09:01:11.000Z</time>
      </trkpt>
      <trkpt lat="42.51293786801397800445556640625" lon="-0.21602855063974857330322265625">
        <ele>1305.199951171875</ele>
        <time>2020-08-18T09:01:14.000Z</time>
      </trkpt>
      <trkpt lat="42.51297810114920139312744140625" lon="-0.2160464040935039520263671875">
        <ele>1305.5999755859375</ele>
        <time>2020-08-18T09:01:17.000Z</time>
      </trkpt>
      <trkpt lat="42.51305806450545787811279296875" lon="-0.2160946838557720184326171875">
        <ele>1306</ele>
        <time>2020-08-18T09:01:24.000Z</time>
      </trkpt>
      <trkpt lat="42.51307114027440547943115234375" lon="-0.2161040715873241424560546875">
        <ele>1306</ele>
        <time>2020-08-18T09:01:25.000Z</time>
      </trkpt>
      <trkpt lat="42.51313366927206516265869140625" lon="-0.21616995334625244140625">
        <ele>1307.199951171875</ele>
        <time>2020-08-18T09:01:30.000Z</time>
      </trkpt>
      <trkpt lat="42.51314624212682247161865234375" lon="-0.21618177182972431182861328125">
        <ele>1307.199951171875</ele>
        <time>2020-08-18T09:01:31.000Z</time>
      </trkpt>
      <trkpt lat="42.51320860348641872406005859375" lon="-0.21622619591653347015380859375">
        <ele>1307.5999755859375</ele>
        <time>2020-08-18T09:01:36.000Z</time>
      </trkpt>
      <trkpt lat="42.5133205018937587738037109375" lon="-0.2162780798971652984619140625">
        <ele>1308.199951171875</ele>
        <time>2020-08-18T09:01:44.000Z</time>
      </trkpt>
      <trkpt lat="42.51340826041996479034423828125" lon="-0.2163161337375640869140625">
        <ele>1309</ele>
        <time>2020-08-18T09:01:50.000Z</time>
      </trkpt>
      <trkpt lat="42.513478584587574005126953125" lon="-0.21638260222971439361572265625">
        <ele>1309.199951171875</ele>
        <time>2020-08-18T09:01:55.000Z</time>
      </trkpt>
      <trkpt lat="42.513492666184902191162109375" lon="-0.216388888657093048095703125">
        <ele>1309.4000244140625</ele>
        <time>2020-08-18T09:01:59.000Z</time>
      </trkpt>
      <trkpt lat="42.5134978629648685455322265625" lon="-0.21639198996126651763916015625">
        <ele>1309.199951171875</ele>
        <time>2020-08-18T09:02:13.000Z</time>
      </trkpt>
      <trkpt lat="42.51350364647805690765380859375" lon="-0.216398946940898895263671875">
        <ele>1309.4000244140625</ele>
        <time>2020-08-18T09:02:17.000Z</time>
      </trkpt>
      <trkpt lat="42.51353122293949127197265625" lon="-0.21642233245074748992919921875">
        <ele>1309.199951171875</ele>
        <time>2020-08-18T09:02:20.000Z</time>
      </trkpt>
      <trkpt lat="42.513589896261692047119140625" lon="-0.21647245623171329498291015625">
        <ele>1310</ele>
        <time>2020-08-18T09:02:26.000Z</time>
      </trkpt>
      <trkpt lat="42.513599283993244171142578125" lon="-0.21648268215358257293701171875">
        <ele>1310</ele>
        <time>2020-08-18T09:02:27.000Z</time>
      </trkpt>
      <trkpt lat="42.51364245079457759857177734375" lon="-0.2165204845368862152099609375">
        <ele>1310.199951171875</ele>
        <time>2020-08-18T09:02:31.000Z</time>
      </trkpt>
      <trkpt lat="42.51366726122796535491943359375" lon="-0.21654001437127590179443359375">
        <ele>1310.5999755859375</ele>
        <time>2020-08-18T09:02:33.000Z</time>
      </trkpt>
      <trkpt lat="42.51369592733681201934814453125" lon="-0.21657538600265979766845703125">
        <ele>1310.800048828125</ele>
        <time>2020-08-18T09:02:36.000Z</time>
      </trkpt>
      <trkpt lat="42.51371704973280429840087890625" lon="-0.2166019566357135772705078125">
        <ele>1311</ele>
        <time>2020-08-18T09:02:38.000Z</time>
      </trkpt>
      <trkpt lat="42.51372761093080043792724609375" lon="-0.21661578677594661712646484375">
        <ele>1311.4000244140625</ele>
        <time>2020-08-18T09:02:39.000Z</time>
      </trkpt>
      <trkpt lat="42.5137489847838878631591796875" lon="-0.21664537489414215087890625">
        <ele>1312</ele>
        <time>2020-08-18T09:02:41.000Z</time>
      </trkpt>
      <trkpt lat="42.5138059817254543304443359375" lon="-0.216702036559581756591796875">
        <ele>1313</ele>
        <time>2020-08-18T09:02:46.000Z</time>
      </trkpt>
      <trkpt lat="42.513827271759510040283203125" lon="-0.21672927774488925933837890625">
        <ele>1313.199951171875</ele>
        <time>2020-08-18T09:02:48.000Z</time>
      </trkpt>
      <trkpt lat="42.51387563534080982208251953125" lon="-0.216762386262416839599609375">
        <ele>1313.800048828125</ele>
        <time>2020-08-18T09:02:53.000Z</time>
      </trkpt>
      <trkpt lat="42.51388602890074253082275390625" lon="-0.21676330827176570892333984375">
        <ele>1314</ele>
        <time>2020-08-18T09:02:54.000Z</time>
      </trkpt>
      <trkpt lat="42.51395274884998798370361328125" lon="-0.2167524956166744232177734375">
        <ele>1314.5999755859375</ele>
        <time>2020-08-18T09:03:00.000Z</time>
      </trkpt>
      <trkpt lat="42.51399583183228969573974609375" lon="-0.21670429967343807220458984375">
        <ele>1314.4000244140625</ele>
        <time>2020-08-18T09:03:05.000Z</time>
      </trkpt>
      <trkpt lat="42.514017038047313690185546875" lon="-0.216659791767597198486328125">
        <ele>1315</ele>
        <time>2020-08-18T09:03:09.000Z</time>
      </trkpt>
      <trkpt lat="42.514029443264007568359375" lon="-0.21664110012352466583251953125">
        <ele>1315.199951171875</ele>
        <time>2020-08-18T09:03:11.000Z</time>
      </trkpt>
      <trkpt lat="42.51405819319188594818115234375" lon="-0.21658142097294330596923828125">
        <ele>1315.199951171875</ele>
        <time>2020-08-18T09:03:16.000Z</time>
      </trkpt>
      <trkpt lat="42.5140889547765254974365234375" lon="-0.2164903096854686737060546875">
        <ele>1315.4000244140625</ele>
        <time>2020-08-18T09:03:22.000Z</time>
      </trkpt>
      <trkpt lat="42.51412072218954563140869140625" lon="-0.21643691696226596832275390625">
        <ele>1315.800048828125</ele>
        <time>2020-08-18T09:03:26.000Z</time>
      </trkpt>
      <trkpt lat="42.51415609382092952728271484375" lon="-0.21640657447278499603271484375">
        <ele>1316.199951171875</ele>
        <time>2020-08-18T09:03:29.000Z</time>
      </trkpt>
      <trkpt lat="42.51416958868503570556640625" lon="-0.21636868827044963836669921875">
        <ele>1317</ele>
        <time>2020-08-18T09:03:32.000Z</time>
      </trkpt>
      <trkpt lat="42.51417671330273151397705078125" lon="-0.216355025768280029296875">
        <ele>1317.199951171875</ele>
        <time>2020-08-18T09:03:33.000Z</time>
      </trkpt>
      <trkpt lat="42.51418593339622020721435546875" lon="-0.21634354256093502044677734375">
        <ele>1317.199951171875</ele>
        <time>2020-08-18T09:03:34.000Z</time>
      </trkpt>
      <trkpt lat="42.5142106600105762481689453125" lon="-0.2163082547485828399658203125">
        <ele>1317.4000244140625</ele>
        <time>2020-08-18T09:03:37.000Z</time>
      </trkpt>
      <trkpt lat="42.51425919122993946075439453125" lon="-0.2162284590303897857666015625">
        <ele>1317.5999755859375</ele>
        <time>2020-08-18T09:03:42.000Z</time>
      </trkpt>
      <trkpt lat="42.51427696086466312408447265625" lon="-0.21614388562738895416259765625">
        <ele>1317.800048828125</ele>
        <time>2020-08-18T09:03:46.000Z</time>
      </trkpt>
      <trkpt lat="42.5142783857882022857666015625" lon="-0.21611186675727367401123046875">
        <ele>1317.800048828125</ele>
        <time>2020-08-18T09:03:48.000Z</time>
      </trkpt>
      <trkpt lat="42.5143095664680004119873046875" lon="-0.2160336636006832122802734375">
        <ele>1317.800048828125</ele>
        <time>2020-08-18T09:03:54.000Z</time>
      </trkpt>
      <trkpt lat="42.51434418372809886932373046875" lon="-0.2159434743225574493408203125">
        <ele>1317.800048828125</ele>
        <time>2020-08-18T09:04:01.000Z</time>
      </trkpt>
      <trkpt lat="42.51436538994312286376953125" lon="-0.215861834585666656494140625">
        <ele>1317.800048828125</ele>
        <time>2020-08-18T09:04:05.000Z</time>
      </trkpt>
      <trkpt lat="42.5143793039023876190185546875" lon="-0.215827636420726776123046875">
        <ele>1317.800048828125</ele>
        <time>2020-08-18T09:04:07.000Z</time>
      </trkpt>
      <trkpt lat="42.514442838728427886962890625" lon="-0.2156662009656429290771484375">
        <ele>1317.5999755859375</ele>
        <time>2020-08-18T09:04:14.000Z</time>
      </trkpt>
      <trkpt lat="42.5145207904279232025146484375" lon="-0.21548959426581859588623046875">
        <ele>1317.5999755859375</ele>
        <time>2020-08-18T09:04:21.000Z</time>
      </trkpt>
      <trkpt lat="42.5145492888987064361572265625" lon="-0.21542689763009548187255859375">
        <ele>1318</ele>
        <time>2020-08-18T09:04:24.000Z</time>
      </trkpt>
      <trkpt lat="42.51457552425563335418701171875" lon="-0.21538783796131610870361328125">
        <ele>1318.5999755859375</ele>
        <time>2020-08-18T09:04:26.000Z</time>
      </trkpt>
      <trkpt lat="42.51458801329135894775390625" lon="-0.215369649231433868408203125">
        <ele>1318.800048828125</ele>
        <time>2020-08-18T09:04:27.000Z</time>
      </trkpt>
      <trkpt lat="42.51469572074711322784423828125" lon="-0.2152373827993869781494140625">
        <ele>1319</ele>
        <time>2020-08-18T09:04:35.000Z</time>
      </trkpt>
      <trkpt lat="42.51483879983425140380859375" lon="-0.215163119137287139892578125">
        <ele>1318.800048828125</ele>
        <time>2020-08-18T09:04:43.000Z</time>
      </trkpt>
      <trkpt lat="42.5148946233093738555908203125" lon="-0.21516622044146060943603515625">
        <ele>1318.800048828125</ele>
        <time>2020-08-18T09:04:46.000Z</time>
      </trkpt>
      <trkpt lat="42.51493125222623348236083984375" lon="-0.2151773683726787567138671875">
        <ele>1318.800048828125</ele>
        <time>2020-08-18T09:04:48.000Z</time>
      </trkpt>
      <trkpt lat="42.51505027525126934051513671875" lon="-0.2151988260447978973388671875">
        <ele>1318.4000244140625</ele>
        <time>2020-08-18T09:04:54.000Z</time>
      </trkpt>
      <trkpt lat="42.51518891192972660064697265625" lon="-0.2152135781943798065185546875">
        <ele>1317.800048828125</ele>
        <time>2020-08-18T09:05:00.000Z</time>
      </trkpt>
      <trkpt lat="42.5153026543557643890380859375" lon="-0.21520846523344516754150390625">
        <ele>1317.800048828125</ele>
        <time>2020-08-18T09:05:06.000Z</time>
      </trkpt>
      <trkpt lat="42.51542192883789539337158203125" lon="-0.21521768532693386077880859375">
        <ele>1318.199951171875</ele>
        <time>2020-08-18T09:05:13.000Z</time>
      </trkpt>
      <trkpt lat="42.51554816029965877532958984375" lon="-0.21522556431591510772705078125">
        <ele>1318</ele>
        <time>2020-08-18T09:05:20.000Z</time>
      </trkpt>
      <trkpt lat="42.51564874313771724700927734375" lon="-0.215193964540958404541015625">
        <ele>1318.199951171875</ele>
        <time>2020-08-18T09:05:26.000Z</time>
      </trkpt>
      <trkpt lat="42.51576818525791168212890625" lon="-0.21518222987651824951171875">
        <ele>1318.4000244140625</ele>
        <time>2020-08-18T09:05:32.000Z</time>
      </trkpt>
      <trkpt lat="42.5158578716218471527099609375" lon="-0.21521869115531444549560546875">
        <ele>1318.5999755859375</ele>
        <time>2020-08-18T09:05:38.000Z</time>
      </trkpt>
      <trkpt lat="42.51587119884788990020751953125" lon="-0.21522514522075653076171875">
        <ele>1318.5999755859375</ele>
        <time>2020-08-18T09:05:39.000Z</time>
      </trkpt>
      <trkpt lat="42.51592417247593402862548828125" lon="-0.2152585051953792572021484375">
        <ele>1319.199951171875</ele>
        <time>2020-08-18T09:05:43.000Z</time>
      </trkpt>
      <trkpt lat="42.51602056436240673065185546875" lon="-0.21527032367885112762451171875">
        <ele>1320</ele>
        <time>2020-08-18T09:05:49.000Z</time>
      </trkpt>
      <trkpt lat="42.516052164137363433837890625" lon="-0.2152578346431255340576171875">
        <ele>1320.199951171875</ele>
        <time>2020-08-18T09:05:51.000Z</time>
      </trkpt>
      <trkpt lat="42.5161143578588962554931640625" lon="-0.2152088843286037445068359375">
        <ele>1320.5999755859375</ele>
        <time>2020-08-18T09:05:55.000Z</time>
      </trkpt>
      <trkpt lat="42.51621468923985958099365234375" lon="-0.215071924030780792236328125">
        <ele>1321.199951171875</ele>
        <time>2020-08-18T09:06:03.000Z</time>
      </trkpt>
      <trkpt lat="42.51622407697141170501708984375" lon="-0.215051807463169097900390625">
        <ele>1321.199951171875</ele>
        <time>2020-08-18T09:06:04.000Z</time>
      </trkpt>
      <trkpt lat="42.51628987491130828857421875" lon="-0.214931778609752655029296875">
        <ele>1321.5999755859375</ele>
        <time>2020-08-18T09:06:10.000Z</time>
      </trkpt>
      <trkpt lat="42.51631795428693294525146484375" lon="-0.214871428906917572021484375">
        <ele>1322</ele>
        <time>2020-08-18T09:06:13.000Z</time>
      </trkpt>
      <trkpt lat="42.51633723266422748565673828125" lon="-0.2148370631039142608642578125">
        <ele>1322.4000244140625</ele>
        <time>2020-08-18T09:06:15.000Z</time>
      </trkpt>
      <trkpt lat="42.516424991190433502197265625" lon="-0.2147577702999114990234375">
        <ele>1323</ele>
        <time>2020-08-18T09:06:22.000Z</time>
      </trkpt>
      <trkpt lat="42.5165036134421825408935546875" lon="-0.21475768648087978363037109375">
        <ele>1323.199951171875</ele>
        <time>2020-08-18T09:06:27.000Z</time>
      </trkpt>
      <trkpt lat="42.5165166892111301422119140625" lon="-0.2147626318037509918212890625">
        <ele>1323.4000244140625</ele>
        <time>2020-08-18T09:06:28.000Z</time>
      </trkpt>
      <trkpt lat="42.516609728336334228515625" lon="-0.21479942835867404937744140625">
        <ele>1323.800048828125</ele>
        <time>2020-08-18T09:06:34.000Z</time>
      </trkpt>
      <trkpt lat="42.51662272028625011444091796875" lon="-0.214805044233798980712890625">
        <ele>1323.800048828125</ele>
        <time>2020-08-18T09:06:35.000Z</time>
      </trkpt>
      <trkpt lat="42.51668441109359264373779296875" lon="-0.21479791961610317230224609375">
        <ele>1324.199951171875</ele>
        <time>2020-08-18T09:06:39.000Z</time>
      </trkpt>
      <trkpt lat="42.51669966615736484527587890625" lon="-0.21479272283613681793212890625">
        <ele>1324.4000244140625</ele>
        <time>2020-08-18T09:06:40.000Z</time>
      </trkpt>
      <trkpt lat="42.51679840497672557830810546875" lon="-0.21474326960742473602294921875">
        <ele>1325</ele>
        <time>2020-08-18T09:06:47.000Z</time>
      </trkpt>
      <trkpt lat="42.5168432481586933135986328125" lon="-0.21471829153597354888916015625">
        <ele>1325.4000244140625</ele>
        <time>2020-08-18T09:06:50.000Z</time>
      </trkpt>
      <trkpt lat="42.516907118260860443115234375" lon="-0.21468979306519031524658203125">
        <ele>1326.199951171875</ele>
        <time>2020-08-18T09:06:55.000Z</time>
      </trkpt>
      <trkpt lat="42.51692019402980804443359375" lon="-0.2146875299513339996337890625">
        <ele>1326.5999755859375</ele>
        <time>2020-08-18T09:06:56.000Z</time>
      </trkpt>
      <trkpt lat="42.51703779213130474090576171875" lon="-0.21463765762746334075927734375">
        <ele>1327.199951171875</ele>
        <time>2020-08-18T09:07:04.000Z</time>
      </trkpt>
      <trkpt lat="42.5170648656785488128662109375" lon="-0.2146156132221221923828125">
        <ele>1327.199951171875</ele>
        <time>2020-08-18T09:07:06.000Z</time>
      </trkpt>
      <trkpt lat="42.51711188815534114837646484375" lon="-0.21455970592796802520751953125">
        <ele>1328</ele>
        <time>2020-08-18T09:07:10.000Z</time>
      </trkpt>
      <trkpt lat="42.5171195156872272491455078125" lon="-0.21454025991261005401611328125">
        <ele>1328.4000244140625</ele>
        <time>2020-08-18T09:07:11.000Z</time>
      </trkpt>
      <trkpt lat="42.51712596975266933441162109375" lon="-0.21452181972563266754150390625">
        <ele>1328.5999755859375</ele>
        <time>2020-08-18T09:07:12.000Z</time>
      </trkpt>
      <trkpt lat="42.51717106439173221588134765625" lon="-0.2143661677837371826171875">
        <ele>1329.199951171875</ele>
        <time>2020-08-18T09:07:20.000Z</time>
      </trkpt>
      <trkpt lat="42.51718305051326751708984375" lon="-0.21432928740978240966796875">
        <ele>1329.4000244140625</ele>
        <time>2020-08-18T09:07:22.000Z</time>
      </trkpt>
      <trkpt lat="42.51724348403513431549072265625" lon="-0.2141784131526947021484375">
        <ele>1330</ele>
        <time>2020-08-18T09:07:29.000Z</time>
      </trkpt>
      <trkpt lat="42.51727466471493244171142578125" lon="-0.21411445923149585723876953125">
        <ele>1330</ele>
        <time>2020-08-18T09:07:32.000Z</time>
      </trkpt>
      <trkpt lat="42.5172941945493221282958984375" lon="-0.2140756510198116302490234375">
        <ele>1330.199951171875</ele>
        <time>2020-08-18T09:07:34.000Z</time>
      </trkpt>
      <trkpt lat="42.5173042528331279754638671875" lon="-0.21405796520411968231201171875">
        <ele>1330.199951171875</ele>
        <time>2020-08-18T09:07:35.000Z</time>
      </trkpt>
      <trkpt lat="42.51731422729790210723876953125" lon="-0.214042626321315765380859375">
        <ele>1330.5999755859375</ele>
        <time>2020-08-18T09:07:36.000Z</time>
      </trkpt>
      <trkpt lat="42.5173907540738582611083984375" lon="-0.2139217592775821685791015625">
        <ele>1331</ele>
        <time>2020-08-18T09:07:43.000Z</time>
      </trkpt>
      <trkpt lat="42.5174480862915515899658203125" lon="-0.21383936516940593719482421875">
        <ele>1331.4000244140625</ele>
        <time>2020-08-18T09:07:48.000Z</time>
      </trkpt>
      <trkpt lat="42.5174836255609989166259765625" lon="-0.21379829384386539459228515625">
        <ele>1332</ele>
        <time>2020-08-18T09:07:51.000Z</time>
      </trkpt>
      <trkpt lat="42.51754405908286571502685546875" lon="-0.21372579038143157958984375">
        <ele>1332.4000244140625</ele>
        <time>2020-08-18T09:07:56.000Z</time>
      </trkpt>
      <trkpt lat="42.51757155172526836395263671875" lon="-0.21369720809161663055419921875">
        <ele>1332.5999755859375</ele>
        <time>2020-08-18T09:07:58.000Z</time>
      </trkpt>
      <trkpt lat="42.51763961277902126312255859375" lon="-0.21364289335906505584716796875">
        <ele>1333.4000244140625</ele>
        <time>2020-08-18T09:08:03.000Z</time>
      </trkpt>
      <trkpt lat="42.5176799297332763671875" lon="-0.2136097848415374755859375">
        <ele>1333.5999755859375</ele>
        <time>2020-08-18T09:08:06.000Z</time>
      </trkpt>
      <trkpt lat="42.517740614712238311767578125" lon="-0.21354884840548038482666015625">
        <ele>1334.4000244140625</ele>
        <time>2020-08-18T09:08:11.000Z</time>
      </trkpt>
      <trkpt lat="42.51775444485247135162353515625" lon="-0.21354247815907001495361328125">
        <ele>1334.800048828125</ele>
        <time>2020-08-18T09:08:12.000Z</time>
      </trkpt>
      <trkpt lat="42.517806999385356903076171875" lon="-0.21355681121349334716796875">
        <ele>1335</ele>
        <time>2020-08-18T09:08:16.000Z</time>
      </trkpt>
      <trkpt lat="42.51782954670488834381103515625" lon="-0.21358639933168888092041015625">
        <ele>1335.199951171875</ele>
        <time>2020-08-18T09:08:18.000Z</time>
      </trkpt>
      <trkpt lat="42.5178712047636508941650390625" lon="-0.21371279843151569366455078125">
        <ele>1335</ele>
        <time>2020-08-18T09:08:25.000Z</time>
      </trkpt>
      <trkpt lat="42.517889477312564849853515625" lon="-0.21379695273935794830322265625">
        <ele>1335.800048828125</ele>
        <time>2020-08-18T09:08:30.000Z</time>
      </trkpt>
      <trkpt lat="42.51789391972124576568603515625" lon="-0.21381623111665248870849609375">
        <ele>1335.800048828125</ele>
        <time>2020-08-18T09:08:31.000Z</time>
      </trkpt>
      <trkpt lat="42.51790682785212993621826171875" lon="-0.21391413174569606781005859375">
        <ele>1336.199951171875</ele>
        <time>2020-08-18T09:08:36.000Z</time>
      </trkpt>
      <trkpt lat="42.51791068352758884429931640625" lon="-0.21395646035671234130859375">
        <ele>1336.5999755859375</ele>
        <time>2020-08-18T09:08:38.000Z</time>
      </trkpt>
      <trkpt lat="42.51791185699403285980224609375" lon="-0.21397582255303859710693359375">
        <ele>1336.800048828125</ele>
        <time>2020-08-18T09:08:39.000Z</time>
      </trkpt>
      <trkpt lat="42.5179235078394412994384765625" lon="-0.21411160938441753387451171875">
        <ele>1337</ele>
        <time>2020-08-18T09:08:45.000Z</time>
      </trkpt>
      <trkpt lat="42.517947815358638763427734375" lon="-0.21424052305519580841064453125">
        <ele>1337.5999755859375</ele>
        <time>2020-08-18T09:08:51.000Z</time>
      </trkpt>
      <trkpt lat="42.51795544289052486419677734375" lon="-0.214261896908283233642578125">
        <ele>1337.800048828125</ele>
        <time>2020-08-18T09:08:52.000Z</time>
      </trkpt>
      <trkpt lat="42.5179789960384368896484375" lon="-0.21434378810226917266845703125">
        <ele>1338.199951171875</ele>
        <time>2020-08-18T09:08:56.000Z</time>
      </trkpt>
      <trkpt lat="42.51798695884644985198974609375" lon="-0.214388631284236907958984375">
        <ele>1338.5999755859375</ele>
        <time>2020-08-18T09:08:58.000Z</time>
      </trkpt>
      <trkpt lat="42.517997436225414276123046875" lon="-0.21448208950459957122802734375">
        <ele>1338.5999755859375</ele>
        <time>2020-08-18T09:09:02.000Z</time>
      </trkpt>
      <trkpt lat="42.51799752004444599151611328125" lon="-0.214507989585399627685546875">
        <ele>1338.5999755859375</ele>
        <time>2020-08-18T09:09:03.000Z</time>
      </trkpt>
      <trkpt lat="42.5180012919008731842041015625" lon="-0.21458166651427745819091796875">
        <ele>1338.800048828125</ele>
        <time>2020-08-18T09:09:06.000Z</time>
      </trkpt>
      <trkpt lat="42.51800690777599811553955078125" lon="-0.214641094207763671875">
        <ele>1339</ele>
        <time>2020-08-18T09:09:09.000Z</time>
      </trkpt>
      <trkpt lat="42.51801478676497936248779296875" lon="-0.21474595181643962860107421875">
        <ele>1340</ele>
        <time>2020-08-18T09:09:14.000Z</time>
      </trkpt>
      <trkpt lat="42.5180192291736602783203125" lon="-0.21481074392795562744140625">
        <ele>1340.4000244140625</ele>
        <time>2020-08-18T09:09:17.000Z</time>
      </trkpt>
      <trkpt lat="42.51804026775062084197998046875" lon="-0.21493278443813323974609375">
        <ele>1340.199951171875</ele>
        <time>2020-08-18T09:09:23.000Z</time>
      </trkpt>
      <trkpt lat="42.51804412342607975006103515625" lon="-0.214969329535961151123046875">
        <ele>1340.5999755859375</ele>
        <time>2020-08-18T09:09:25.000Z</time>
      </trkpt>
      <trkpt lat="42.51806440763175487518310546875" lon="-0.21504971198737621307373046875">
        <ele>1341</ele>
        <time>2020-08-18T09:09:29.000Z</time>
      </trkpt>
      <trkpt lat="42.51806910149753093719482421875" lon="-0.21507049910724163055419921875">
        <ele>1341.199951171875</ele>
        <time>2020-08-18T09:09:30.000Z</time>
      </trkpt>
      <trkpt lat="42.518084943294525146484375" lon="-0.21518399007618427276611328125">
        <ele>1341.4000244140625</ele>
        <time>2020-08-18T09:09:35.000Z</time>
      </trkpt>
      <trkpt lat="42.51808653585612773895263671875" lon="-0.21520326845347881317138671875">
        <ele>1341.199951171875</ele>
        <time>2020-08-18T09:09:36.000Z</time>
      </trkpt>
      <trkpt lat="42.51808963716030120849609375" lon="-0.2152397297322750091552734375">
        <ele>1341.4000244140625</ele>
        <time>2020-08-18T09:09:38.000Z</time>
      </trkpt>
      <trkpt lat="42.51809944398701190948486328125" lon="-0.21530024707317352294921875">
        <ele>1341.5999755859375</ele>
        <time>2020-08-18T09:09:41.000Z</time>
      </trkpt>
      <trkpt lat="42.51811084337532520294189453125" lon="-0.2154184319078922271728515625">
        <ele>1342</ele>
        <time>2020-08-18T09:09:47.000Z</time>
      </trkpt>
      <trkpt lat="42.518112771213054656982421875" lon="-0.21543611772358417510986328125">
        <ele>1342.199951171875</ele>
        <time>2020-08-18T09:09:48.000Z</time>
      </trkpt>
      <trkpt lat="42.51812609843909740447998046875" lon="-0.21553217433393001556396484375">
        <ele>1343</ele>
        <time>2020-08-18T09:09:53.000Z</time>
      </trkpt>
      <trkpt lat="42.51812794245779514312744140625" lon="-0.21555363200604915618896484375">
        <ele>1343.199951171875</ele>
        <time>2020-08-18T09:09:54.000Z</time>
      </trkpt>
      <trkpt lat="42.5181343965232372283935546875" lon="-0.21558850072324275970458984375">
        <ele>1343.4000244140625</ele>
        <time>2020-08-18T09:09:56.000Z</time>
      </trkpt>
      <trkpt lat="42.5181461311876773834228515625" lon="-0.21567148156464099884033203125">
        <ele>1343.800048828125</ele>
        <time>2020-08-18T09:10:00.000Z</time>
      </trkpt>
      <trkpt lat="42.5181575305759906768798828125" lon="-0.2157931029796600341796875">
        <ele>1344</ele>
        <time>2020-08-18T09:10:05.000Z</time>
      </trkpt>
      <trkpt lat="42.51815945841372013092041015625" lon="-0.2158117108047008514404296875">
        <ele>1344</ele>
        <time>2020-08-18T09:10:06.000Z</time>
      </trkpt>
      <trkpt lat="42.5181655772030353546142578125" lon="-0.21585001610219478607177734375">
        <ele>1344.5999755859375</ele>
        <time>2020-08-18T09:10:08.000Z</time>
      </trkpt>
      <trkpt lat="42.51817588694393634796142578125" lon="-0.215904414653778076171875">
        <ele>1345</ele>
        <time>2020-08-18T09:10:11.000Z</time>
      </trkpt>
      <trkpt lat="42.518177144229412078857421875" lon="-0.21592863835394382476806640625">
        <ele>1345</ele>
        <time>2020-08-18T09:10:12.000Z</time>
      </trkpt>
      <trkpt lat="42.5181783176958560943603515625" lon="-0.21598546765744686126708984375">
        <ele>1345.199951171875</ele>
        <time>2020-08-18T09:10:15.000Z</time>
      </trkpt>
      <trkpt lat="42.51818141900002956390380859375" lon="-0.21602712571620941162109375">
        <ele>1345.800048828125</ele>
        <time>2020-08-18T09:10:17.000Z</time>
      </trkpt>
      <trkpt lat="42.5181883759796619415283203125" lon="-0.21609543822705745697021484375">
        <ele>1345.800048828125</ele>
        <time>2020-08-18T09:10:20.000Z</time>
      </trkpt>
      <trkpt lat="42.518193908035755157470703125" lon="-0.2161459811031818389892578125">
        <ele>1346.199951171875</ele>
        <time>2020-08-18T09:10:22.000Z</time>
      </trkpt>
      <trkpt lat="42.518207319080829620361328125" lon="-0.21622359752655029296875">
        <ele>1347</ele>
        <time>2020-08-18T09:10:26.000Z</time>
      </trkpt>
      <trkpt lat="42.5182115100324153900146484375" lon="-0.2162462286651134490966796875">
        <ele>1347.199951171875</ele>
        <time>2020-08-18T09:10:27.000Z</time>
      </trkpt>
      <trkpt lat="42.51823891885578632354736328125" lon="-0.2163850329816341400146484375">
        <ele>1347.5999755859375</ele>
        <time>2020-08-18T09:10:34.000Z</time>
      </trkpt>
      <trkpt lat="42.51825551502406597137451171875" lon="-0.21647882647812366485595703125">
        <ele>1347.800048828125</ele>
        <time>2020-08-18T09:10:39.000Z</time>
      </trkpt>
      <trkpt lat="42.51825937069952487945556640625" lon="-0.2165012061595916748046875">
        <ele>1347.800048828125</ele>
        <time>2020-08-18T09:10:40.000Z</time>
      </trkpt>
      <trkpt lat="42.51828543841838836669921875" lon="-0.21661763079464435577392578125">
        <ele>1348.800048828125</ele>
        <time>2020-08-18T09:10:45.000Z</time>
      </trkpt>
      <trkpt lat="42.5182874500751495361328125" lon="-0.21664193831384181976318359375">
        <ele>1348.800048828125</ele>
        <time>2020-08-18T09:10:46.000Z</time>
      </trkpt>
      <trkpt lat="42.5182872824370861053466796875" lon="-0.21669709123671054840087890625">
        <ele>1349</ele>
        <time>2020-08-18T09:10:49.000Z</time>
      </trkpt>
      <trkpt lat="42.518288455903530120849609375" lon="-0.21671838127076625823974609375">
        <ele>1349</ele>
        <time>2020-08-18T09:10:50.000Z</time>
      </trkpt>
      <trkpt lat="42.51829826273024082183837890625" lon="-0.216826759278774261474609375">
        <ele>1349.4000244140625</ele>
        <time>2020-08-18T09:10:55.000Z</time>
      </trkpt>
      <trkpt lat="42.51830563880503177642822265625" lon="-0.2168852649629116058349609375">
        <ele>1350</ele>
        <time>2020-08-18T09:10:58.000Z</time>
      </trkpt>
      <trkpt lat="42.518307231366634368896484375" lon="-0.21690429188311100006103515625">
        <ele>1350</ele>
        <time>2020-08-18T09:10:59.000Z</time>
      </trkpt>
      <trkpt lat="42.5183115899562835693359375" lon="-0.2169462852180004119873046875">
        <ele>1350.199951171875</ele>
        <time>2020-08-18T09:11:01.000Z</time>
      </trkpt>
      <trkpt lat="42.51831770874559879302978515625" lon="-0.2170290984213352203369140625">
        <ele>1351</ele>
        <time>2020-08-18T09:11:05.000Z</time>
      </trkpt>
      <trkpt lat="42.51831896603107452392578125" lon="-0.21706555970013141632080078125">
        <ele>1351.199951171875</ele>
        <time>2020-08-18T09:11:07.000Z</time>
      </trkpt>
      <trkpt lat="42.51831955276429653167724609375" lon="-0.21712104789912700653076171875">
        <ele>1351.4000244140625</ele>
        <time>2020-08-18T09:11:10.000Z</time>
      </trkpt>
      <trkpt lat="42.51832902431488037109375" lon="-0.21721811033785343170166015625">
        <ele>1352</ele>
        <time>2020-08-18T09:11:14.000Z</time>
      </trkpt>
      <trkpt lat="42.51833547838032245635986328125" lon="-0.21725717000663280487060546875">
        <ele>1352.4000244140625</ele>
        <time>2020-08-18T09:11:16.000Z</time>
      </trkpt>
      <trkpt lat="42.51834788359701633453369140625" lon="-0.2173315174877643585205078125">
        <ele>1352.5999755859375</ele>
        <time>2020-08-18T09:11:20.000Z</time>
      </trkpt>
      <trkpt lat="42.5183637253940105438232421875" lon="-0.21740980446338653564453125">
        <ele>1353</ele>
        <time>2020-08-18T09:11:23.000Z</time>
      </trkpt>
      <trkpt lat="42.5183711014688014984130859375" lon="-0.2175070345401763916015625">
        <ele>1353.199951171875</ele>
        <time>2020-08-18T09:11:27.000Z</time>
      </trkpt>
      <trkpt lat="42.5183821655809879302978515625" lon="-0.21767274476587772369384765625">
        <ele>1354</ele>
        <time>2020-08-18T09:11:34.000Z</time>
      </trkpt>
      <trkpt lat="42.5183880329132080078125" lon="-0.2178622595965862274169921875">
        <ele>1355</ele>
        <time>2020-08-18T09:11:42.000Z</time>
      </trkpt>
      <trkpt lat="42.51838644035160541534423828125" lon="-0.21787843666970729827880859375">
        <ele>1355</ele>
        <time>2020-08-18T09:11:43.000Z</time>
      </trkpt>
      <trkpt lat="42.51838610507547855377197265625" lon="-0.2178944461047649383544921875">
        <ele>1355.199951171875</ele>
        <time>2020-08-18T09:11:44.000Z</time>
      </trkpt>
      <trkpt lat="42.5183922238647937774658203125" lon="-0.2179729007184505462646484375">
        <ele>1355.5999755859375</ele>
        <time>2020-08-18T09:11:48.000Z</time>
      </trkpt>
      <trkpt lat="42.518398426473140716552734375" lon="-0.21801187656819820404052734375">
        <ele>1355.800048828125</ele>
        <time>2020-08-18T09:11:50.000Z</time>
      </trkpt>
      <trkpt lat="42.51839817501604557037353515625" lon="-0.21806971170008182525634765625">
        <ele>1356</ele>
        <time>2020-08-18T09:11:53.000Z</time>
      </trkpt>
      <trkpt lat="42.5183972530066967010498046875" lon="-0.2181158959865570068359375">
        <ele>1356.199951171875</ele>
        <time>2020-08-18T09:11:55.000Z</time>
      </trkpt>
      <trkpt lat="42.518402449786663055419921875" lon="-0.2182116173207759857177734375">
        <ele>1356.5999755859375</ele>
        <time>2020-08-18T09:11:59.000Z</time>
      </trkpt>
      <trkpt lat="42.5184026174247264862060546875" lon="-0.21823500283062458038330078125">
        <ele>1356.5999755859375</ele>
        <time>2020-08-18T09:12:00.000Z</time>
      </trkpt>
      <trkpt lat="42.5184153579175472259521484375" lon="-0.2183155529201030731201171875">
        <ele>1357</ele>
        <time>2020-08-18T09:12:04.000Z</time>
      </trkpt>
      <trkpt lat="42.51841812394559383392333984375" lon="-0.21833675913512706756591796875">
        <ele>1357</ele>
        <time>2020-08-18T09:12:05.000Z</time>
      </trkpt>
      <trkpt lat="42.51843270845711231231689453125" lon="-0.21838772110641002655029296875">
        <ele>1357.4000244140625</ele>
        <time>2020-08-18T09:12:08.000Z</time>
      </trkpt>
      <trkpt lat="42.51843086443841457366943359375" lon="-0.21841890178620815277099609375">
        <ele>1357.4000244140625</ele>
        <time>2020-08-18T09:12:10.000Z</time>
      </trkpt>
      <trkpt lat="42.5184405036270618438720703125" lon="-0.2185204066336154937744140625">
        <ele>1357.5999755859375</ele>
        <time>2020-08-18T09:12:15.000Z</time>
      </trkpt>
      <trkpt lat="42.51844243146479129791259765625" lon="-0.2185395173728466033935546875">
        <ele>1357.5999755859375</ele>
        <time>2020-08-18T09:12:16.000Z</time>
      </trkpt>
      <trkpt lat="42.51844226382672786712646484375" lon="-0.2185619808733463287353515625">
        <ele>1357.800048828125</ele>
        <time>2020-08-18T09:12:17.000Z</time>
      </trkpt>
      <trkpt lat="42.518443353474140167236328125" lon="-0.21867706440389156341552734375">
        <ele>1358.800048828125</ele>
        <time>2020-08-18T09:12:22.000Z</time>
      </trkpt>
      <trkpt lat="42.51844259910285472869873046875" lon="-0.21870120428502559661865234375">
        <ele>1359</ele>
        <time>2020-08-18T09:12:23.000Z</time>
      </trkpt>
      <trkpt lat="42.51844712533056735992431640625" lon="-0.21882760338485240936279296875">
        <ele>1360</ele>
        <time>2020-08-18T09:12:28.000Z</time>
      </trkpt>
      <trkpt lat="42.51845668070018291473388671875" lon="-0.218977220356464385986328125">
        <ele>1360.4000244140625</ele>
        <time>2020-08-18T09:12:34.000Z</time>
      </trkpt>
      <trkpt lat="42.518470175564289093017578125" lon="-0.21904653869569301605224609375">
        <ele>1360.800048828125</ele>
        <time>2020-08-18T09:12:37.000Z</time>
      </trkpt>
      <trkpt lat="42.518476545810699462890625" lon="-0.21912851370871067047119140625">
        <ele>1361</ele>
        <time>2020-08-18T09:12:41.000Z</time>
      </trkpt>
      <trkpt lat="42.51848534680902957916259765625" lon="-0.2192124165594577789306640625">
        <ele>1362</ele>
        <time>2020-08-18T09:12:45.000Z</time>
      </trkpt>
      <trkpt lat="42.51848794519901275634765625" lon="-0.219260193407535552978515625">
        <ele>1362</ele>
        <time>2020-08-18T09:12:47.000Z</time>
      </trkpt>
      <trkpt lat="42.51849238760769367218017578125" lon="-0.219402350485324859619140625">
        <ele>1362.800048828125</ele>
        <time>2020-08-18T09:12:53.000Z</time>
      </trkpt>
      <trkpt lat="42.5184968300163745880126953125" lon="-0.219439901411533355712890625">
        <ele>1363</ele>
        <time>2020-08-18T09:12:55.000Z</time>
      </trkpt>
      <trkpt lat="42.5184993445873260498046875" lon="-0.2194990776479244232177734375">
        <ele>1363.5999755859375</ele>
        <time>2020-08-18T09:12:58.000Z</time>
      </trkpt>
      <trkpt lat="42.51849842257797718048095703125" lon="-0.2195342816412448883056640625">
        <ele>1364</ele>
        <time>2020-08-18T09:13:00.000Z</time>
      </trkpt>
      <trkpt lat="42.51849724911153316497802734375" lon="-0.21959303878247737884521484375">
        <ele>1364.4000244140625</ele>
        <time>2020-08-18T09:13:03.000Z</time>
      </trkpt>
      <trkpt lat="42.51849423162639141082763671875" lon="-0.21961349062621593475341796875">
        <ele>1364.4000244140625</ele>
        <time>2020-08-18T09:13:04.000Z</time>
      </trkpt>
      <trkpt lat="42.51849196851253509521484375" lon="-0.21967652253806591033935546875">
        <ele>1364.5999755859375</ele>
        <time>2020-08-18T09:13:07.000Z</time>
      </trkpt>
      <trkpt lat="42.5184859335422515869140625" lon="-0.21973905153572559356689453125">
        <ele>1364.800048828125</ele>
        <time>2020-08-18T09:13:10.000Z</time>
      </trkpt>
      <trkpt lat="42.5184861011803150177001953125" lon="-0.21980099380016326904296875">
        <ele>1365.199951171875</ele>
        <time>2020-08-18T09:13:13.000Z</time>
      </trkpt>
      <trkpt lat="42.51847855746746063232421875" lon="-0.21986293606460094451904296875">
        <ele>1365.5999755859375</ele>
        <time>2020-08-18T09:13:16.000Z</time>
      </trkpt>
      <trkpt lat="42.51846087165176868438720703125" lon="-0.21996016614139080047607421875">
        <ele>1366.199951171875</ele>
        <time>2020-08-18T09:13:21.000Z</time>
      </trkpt>
      <trkpt lat="42.51845869235694408416748046875" lon="-0.21998011507093906402587890625">
        <ele>1366.4000244140625</ele>
        <time>2020-08-18T09:13:22.000Z</time>
      </trkpt>
      <trkpt lat="42.5184633024036884307861328125" lon="-0.22010383196175098419189453125">
        <ele>1367.199951171875</ele>
        <time>2020-08-18T09:13:28.000Z</time>
      </trkpt>
      <trkpt lat="42.5184656493365764617919921875" lon="-0.22012679837644100189208984375">
        <ele>1367.4000244140625</ele>
        <time>2020-08-18T09:13:29.000Z</time>
      </trkpt>
      <trkpt lat="42.51846388913691043853759765625" lon="-0.22015328519046306610107421875">
        <ele>1367.5999755859375</ele>
        <time>2020-08-18T09:13:30.000Z</time>
      </trkpt>
      <trkpt lat="42.51847696490585803985595703125" lon="-0.220219083130359649658203125">
        <ele>1368.199951171875</ele>
        <time>2020-08-18T09:13:33.000Z</time>
      </trkpt>
      <trkpt lat="42.51847629435360431671142578125" lon="-0.22024364210665225982666015625">
        <ele>1368.4000244140625</ele>
        <time>2020-08-18T09:13:34.000Z</time>
      </trkpt>
      <trkpt lat="42.51847587525844573974609375" lon="-0.220266021788120269775390625">
        <ele>1368.800048828125</ele>
        <time>2020-08-18T09:13:35.000Z</time>
      </trkpt>
      <trkpt lat="42.5184850953519344329833984375" lon="-0.22035009227693080902099609375">
        <ele>1369.199951171875</ele>
        <time>2020-08-18T09:13:39.000Z</time>
      </trkpt>
      <trkpt lat="42.5184891186654567718505859375" lon="-0.220503397285938262939453125">
        <ele>1369.800048828125</ele>
        <time>2020-08-18T09:13:46.000Z</time>
      </trkpt>
      <trkpt lat="42.51849087886512279510498046875" lon="-0.2205226756632328033447265625">
        <ele>1370</ele>
        <time>2020-08-18T09:13:47.000Z</time>
      </trkpt>
      <trkpt lat="42.5184985063970088958740234375" lon="-0.22059987299144268035888671875">
        <ele>1370.199951171875</ele>
        <time>2020-08-18T09:13:51.000Z</time>
      </trkpt>
      <trkpt lat="42.518498003482818603515625" lon="-0.22061898373067378997802734375">
        <ele>1370.4000244140625</ele>
        <time>2020-08-18T09:13:52.000Z</time>
      </trkpt>
      <trkpt lat="42.51850797794759273529052734375" lon="-0.2206631563603878021240234375">
        <ele>1370.800048828125</ele>
        <time>2020-08-18T09:13:54.000Z</time>
      </trkpt>
      <trkpt lat="42.5185181200504302978515625" lon="-0.2207369171082973480224609375">
        <ele>1371</ele>
        <time>2020-08-18T09:13:57.000Z</time>
      </trkpt>
      <trkpt lat="42.51851803623139858245849609375" lon="-0.220757536590099334716796875">
        <ele>1371</ele>
        <time>2020-08-18T09:13:58.000Z</time>
      </trkpt>
      <trkpt lat="42.51851518638432025909423828125" lon="-0.22081210277974605560302734375">
        <ele>1371.4000244140625</ele>
        <time>2020-08-18T09:14:01.000Z</time>
      </trkpt>
      <trkpt lat="42.5185166113078594207763671875" lon="-0.22083071060478687286376953125">
        <ele>1371.800048828125</ele>
        <time>2020-08-18T09:14:02.000Z</time>
      </trkpt>
      <trkpt lat="42.51852155663073062896728515625" lon="-0.22085350938141345977783203125">
        <ele>1371.800048828125</ele>
        <time>2020-08-18T09:14:03.000Z</time>
      </trkpt>
      <trkpt lat="42.51853480003774166107177734375" lon="-0.22096641361713409423828125">
        <ele>1372</ele>
        <time>2020-08-18T09:14:08.000Z</time>
      </trkpt>
      <trkpt lat="42.51853915862739086151123046875" lon="-0.22098761983215808868408203125">
        <ele>1372.199951171875</ele>
        <time>2020-08-18T09:14:09.000Z</time>
      </trkpt>
      <trkpt lat="42.51855541951954364776611328125" lon="-0.22106087766587734222412109375">
        <ele>1372.5999755859375</ele>
        <time>2020-08-18T09:14:13.000Z</time>
      </trkpt>
      <trkpt lat="42.5185675732791423797607421875" lon="-0.2211030386388301849365234375">
        <ele>1372.800048828125</ele>
        <time>2020-08-18T09:14:15.000Z</time>
      </trkpt>
      <trkpt lat="42.51856447197496891021728515625" lon="-0.22114855237305164337158203125">
        <ele>1372.800048828125</ele>
        <time>2020-08-18T09:14:17.000Z</time>
      </trkpt>
      <trkpt lat="42.518570423126220703125" lon="-0.22121409885585308074951171875">
        <ele>1373</ele>
        <time>2020-08-18T09:14:20.000Z</time>
      </trkpt>
      <trkpt lat="42.51858576200902462005615234375" lon="-0.2212780527770519256591796875">
        <ele>1373.5999755859375</ele>
        <time>2020-08-18T09:14:23.000Z</time>
      </trkpt>
      <trkpt lat="42.5185994245111942291259765625" lon="-0.22136178798973560333251953125">
        <ele>1373.800048828125</ele>
        <time>2020-08-18T09:14:27.000Z</time>
      </trkpt>
      <trkpt lat="42.51859917305409908294677734375" lon="-0.22138291038572788238525390625">
        <ele>1374</ele>
        <time>2020-08-18T09:14:28.000Z</time>
      </trkpt>
      <trkpt lat="42.51860596239566802978515625" lon="-0.2214530669152736663818359375">
        <ele>1374.4000244140625</ele>
        <time>2020-08-18T09:14:31.000Z</time>
      </trkpt>
      <trkpt lat="42.5186151824891567230224609375" lon="-0.221576280891895294189453125">
        <ele>1375</ele>
        <time>2020-08-18T09:14:36.000Z</time>
      </trkpt>
      <trkpt lat="42.51861811615526676177978515625" lon="-0.221621207892894744873046875">
        <ele>1375</ele>
        <time>2020-08-18T09:14:38.000Z</time>
      </trkpt>
      <trkpt lat="42.51862264238297939300537109375" lon="-0.22168901748955249786376953125">
        <ele>1375.4000244140625</ele>
        <time>2020-08-18T09:14:41.000Z</time>
      </trkpt>
      <trkpt lat="42.5186295993626117706298828125" lon="-0.22173528559505939483642578125">
        <ele>1376</ele>
        <time>2020-08-18T09:14:43.000Z</time>
      </trkpt>
      <trkpt lat="42.51863823272287845611572265625" lon="-0.22180594503879547119140625">
        <ele>1376.4000244140625</ele>
        <time>2020-08-18T09:14:46.000Z</time>
      </trkpt>
      <trkpt lat="42.5186423398554325103759765625" lon="-0.221940390765666961669921875">
        <ele>1377</ele>
        <time>2020-08-18T09:14:52.000Z</time>
      </trkpt>
      <trkpt lat="42.51864611171185970306396484375" lon="-0.2219851501286029815673828125">
        <ele>1377.199951171875</ele>
        <time>2020-08-18T09:14:54.000Z</time>
      </trkpt>
      <trkpt lat="42.5186463631689548492431640625" lon="-0.22211574018001556396484375">
        <ele>1377.800048828125</ele>
        <time>2020-08-18T09:15:00.000Z</time>
      </trkpt>
      <trkpt lat="42.518653236329555511474609375" lon="-0.22224507294595241546630859375">
        <ele>1378.199951171875</ele>
        <time>2020-08-18T09:15:06.000Z</time>
      </trkpt>
      <trkpt lat="42.51865449361503124237060546875" lon="-0.22226384840905666351318359375">
        <ele>1378.4000244140625</ele>
        <time>2020-08-18T09:15:07.000Z</time>
      </trkpt>
      <trkpt lat="42.51866388134658336639404296875" lon="-0.222385637462139129638671875">
        <ele>1379.199951171875</ele>
        <time>2020-08-18T09:15:13.000Z</time>
      </trkpt>
      <trkpt lat="42.5186671502888202667236328125" lon="-0.22240466438233852386474609375">
        <ele>1379.4000244140625</ele>
        <time>2020-08-18T09:15:14.000Z</time>
      </trkpt>
      <trkpt lat="42.5186674855649471282958984375" lon="-0.22242729552090167999267578125">
        <ele>1379.5999755859375</ele>
        <time>2020-08-18T09:15:15.000Z</time>
      </trkpt>
      <trkpt lat="42.5186656415462493896484375" lon="-0.22247121669352054595947265625">
        <ele>1379.800048828125</ele>
        <time>2020-08-18T09:15:17.000Z</time>
      </trkpt>
      <trkpt lat="42.5186765380203723907470703125" lon="-0.22256576456129550933837890625">
        <ele>1379.5999755859375</ele>
        <time>2020-08-18T09:15:22.000Z</time>
      </trkpt>
      <trkpt lat="42.51867569983005523681640625" lon="-0.2225812710821628570556640625">
        <ele>1379.800048828125</ele>
        <time>2020-08-18T09:15:23.000Z</time>
      </trkpt>
      <trkpt lat="42.51867243088781833648681640625" lon="-0.22264706902205944061279296875">
        <ele>1380.5999755859375</ele>
        <time>2020-08-18T09:15:26.000Z</time>
      </trkpt>
      <trkpt lat="42.51864996738731861114501953125" lon="-0.2227123640477657318115234375">
        <ele>1381.4000244140625</ele>
        <time>2020-08-18T09:15:29.000Z</time>
      </trkpt>
      <trkpt lat="42.51864074729382991790771484375" lon="-0.22277154028415679931640625">
        <ele>1381.5999755859375</ele>
        <time>2020-08-18T09:15:32.000Z</time>
      </trkpt>
      <trkpt lat="42.5186406634747982025146484375" lon="-0.222794003784656524658203125">
        <ele>1381.800048828125</ele>
        <time>2020-08-18T09:15:33.000Z</time>
      </trkpt>
      <trkpt lat="42.51863856799900531768798828125" lon="-0.222837924957275390625">
        <ele>1382.199951171875</ele>
        <time>2020-08-18T09:15:35.000Z</time>
      </trkpt>
      <trkpt lat="42.51864929683506488800048828125" lon="-0.22298335097730159759521484375">
        <ele>1383</ele>
        <time>2020-08-18T09:15:42.000Z</time>
      </trkpt>
      <trkpt lat="42.518655918538570404052734375" lon="-0.22300162352621555328369140625">
        <ele>1383</ele>
        <time>2020-08-18T09:15:43.000Z</time>
      </trkpt>
      <trkpt lat="42.518659271299839019775390625" lon="-0.22303984500467777252197265625">
        <ele>1383.4000244140625</ele>
        <time>2020-08-18T09:15:47.000Z</time>
      </trkpt>
      <trkpt lat="42.51865633763372898101806640625" lon="-0.2230483107268810272216796875">
        <ele>1383.199951171875</ele>
        <time>2020-08-18T09:16:00.000Z</time>
      </trkpt>
      <trkpt lat="42.518656253814697265625" lon="-0.22304856218397617340087890625">
        <ele>1383.199951171875</ele>
        <time>2020-08-18T09:16:02.000Z</time>
      </trkpt>
      <trkpt lat="42.5186564214527606964111328125" lon="-0.22304956801235675811767578125">
        <ele>1383</ele>
        <time>2020-08-18T09:16:11.000Z</time>
      </trkpt>
      <trkpt lat="42.5186574272811412811279296875" lon="-0.2230831794440746307373046875">
        <ele>1383.4000244140625</ele>
        <time>2020-08-18T09:16:18.000Z</time>
      </trkpt>
      <trkpt lat="42.51866170205175876617431640625" lon="-0.223135985434055328369140625">
        <ele>1383.4000244140625</ele>
        <time>2020-08-18T09:16:21.000Z</time>
      </trkpt>
      <trkpt lat="42.51866589300334453582763671875" lon="-0.22317261435091495513916015625">
        <ele>1384</ele>
        <time>2020-08-18T09:16:23.000Z</time>
      </trkpt>
      <trkpt lat="42.51868366263806819915771484375" lon="-0.223280489444732666015625">
        <ele>1384.199951171875</ele>
        <time>2020-08-18T09:16:28.000Z</time>
      </trkpt>
      <trkpt lat="42.51869807951152324676513671875" lon="-0.22339523769915103912353515625">
        <ele>1384.800048828125</ele>
        <time>2020-08-18T09:16:34.000Z</time>
      </trkpt>
      <trkpt lat="42.518700174987316131591796875" lon="-0.2234159409999847412109375">
        <ele>1385</ele>
        <time>2020-08-18T09:16:35.000Z</time>
      </trkpt>
      <trkpt lat="42.51872238703072071075439453125" lon="-0.2235178649425506591796875">
        <ele>1385.800048828125</ele>
        <time>2020-08-18T09:16:40.000Z</time>
      </trkpt>
      <trkpt lat="42.518726326525211334228515625" lon="-0.22353672422468662261962890625">
        <ele>1386</ele>
        <time>2020-08-18T09:16:41.000Z</time>
      </trkpt>
      <trkpt lat="42.51875239424407482147216796875" lon="-0.223642252385616302490234375">
        <ele>1386.4000244140625</ele>
        <time>2020-08-18T09:16:46.000Z</time>
      </trkpt>
      <trkpt lat="42.5187844969332218170166015625" lon="-0.2237530611455440521240234375">
        <ele>1387.199951171875</ele>
        <time>2020-08-18T09:16:51.000Z</time>
      </trkpt>
      <trkpt lat="42.51879598014056682586669921875" lon="-0.22379673086106777191162109375">
        <ele>1387.199951171875</ele>
        <time>2020-08-18T09:16:53.000Z</time>
      </trkpt>
      <trkpt lat="42.5188319385051727294921875" lon="-0.22394366562366485595703125">
        <ele>1387.800048828125</ele>
        <time>2020-08-18T09:17:00.000Z</time>
      </trkpt>
      <trkpt lat="42.51884199678897857666015625" lon="-0.2240082062780857086181640625">
        <ele>1388.199951171875</ele>
        <time>2020-08-18T09:17:03.000Z</time>
      </trkpt>
      <trkpt lat="42.51885733567178249359130859375" lon="-0.22409630008041858673095703125">
        <ele>1388.5999755859375</ele>
        <time>2020-08-18T09:17:07.000Z</time>
      </trkpt>
      <trkpt lat="42.518858425319194793701171875" lon="-0.2241175062954425811767578125">
        <ele>1388.800048828125</ele>
        <time>2020-08-18T09:17:08.000Z</time>
      </trkpt>
      <trkpt lat="42.51886236481368541717529296875" lon="-0.2241617627441883087158203125">
        <ele>1389.199951171875</ele>
        <time>2020-08-18T09:17:10.000Z</time>
      </trkpt>
      <trkpt lat="42.51887292601168155670166015625" lon="-0.22420409135520458221435546875">
        <ele>1389.4000244140625</ele>
        <time>2020-08-18T09:17:12.000Z</time>
      </trkpt>
      <trkpt lat="42.518889941275119781494140625" lon="-0.2242700569331645965576171875">
        <ele>1389.5999755859375</ele>
        <time>2020-08-18T09:17:15.000Z</time>
      </trkpt>
      <trkpt lat="42.5189155898988246917724609375" lon="-0.2243734896183013916015625">
        <ele>1390.199951171875</ele>
        <time>2020-08-18T09:17:20.000Z</time>
      </trkpt>
      <trkpt lat="42.51892271451652050018310546875" lon="-0.22439293563365936279296875">
        <ele>1390.199951171875</ele>
        <time>2020-08-18T09:17:21.000Z</time>
      </trkpt>
      <trkpt lat="42.5189544819295406341552734375" lon="-0.22452302277088165283203125">
        <ele>1391</ele>
        <time>2020-08-18T09:17:27.000Z</time>
      </trkpt>
      <trkpt lat="42.51897568814456462860107421875" lon="-0.22463022731244564056396484375">
        <ele>1391.199951171875</ele>
        <time>2020-08-18T09:17:32.000Z</time>
      </trkpt>
      <trkpt lat="42.5189792923629283905029296875" lon="-0.2246754057705402374267578125">
        <ele>1391.4000244140625</ele>
        <time>2020-08-18T09:17:34.000Z</time>
      </trkpt>
      <trkpt lat="42.51899396069347858428955078125" lon="-0.224761404097080230712890625">
        <ele>1392</ele>
        <time>2020-08-18T09:17:38.000Z</time>
      </trkpt>
      <trkpt lat="42.51899932511150836944580078125" lon="-0.22478177212178707122802734375">
        <ele>1392.199951171875</ele>
        <time>2020-08-18T09:17:39.000Z</time>
      </trkpt>
      <trkpt lat="42.519004605710506439208984375" lon="-0.2248038165271282196044921875">
        <ele>1392.199951171875</ele>
        <time>2020-08-18T09:17:40.000Z</time>
      </trkpt>
      <trkpt lat="42.5190218724310398101806640625" lon="-0.22486777044832706451416015625">
        <ele>1392.199951171875</ele>
        <time>2020-08-18T09:17:43.000Z</time>
      </trkpt>
      <trkpt lat="42.5190463475883007049560546875" lon="-0.2249506674706935882568359375">
        <ele>1392.5999755859375</ele>
        <time>2020-08-18T09:17:47.000Z</time>
      </trkpt>
      <trkpt lat="42.51906805671751499176025390625" lon="-0.2250311337411403656005859375">
        <ele>1393.199951171875</ele>
        <time>2020-08-18T09:17:51.000Z</time>
      </trkpt>
      <trkpt lat="42.5190815515816211700439453125" lon="-0.22506524808704853057861328125">
        <ele>1393.199951171875</ele>
        <time>2020-08-18T09:17:53.000Z</time>
      </trkpt>
      <trkpt lat="42.5191033445298671722412109375" lon="-0.22515728138387203216552734375">
        <ele>1393.800048828125</ele>
        <time>2020-08-18T09:17:58.000Z</time>
      </trkpt>
      <trkpt lat="42.5191053561866283416748046875" lon="-0.225177817046642303466796875">
        <ele>1394</ele>
        <time>2020-08-18T09:17:59.000Z</time>
      </trkpt>
      <trkpt lat="42.51910527236759662628173828125" lon="-0.22519935853779315948486328125">
        <ele>1394.199951171875</ele>
        <time>2020-08-18T09:18:00.000Z</time>
      </trkpt>
      <trkpt lat="42.51910686492919921875" lon="-0.22527546621859073638916015625">
        <ele>1394.4000244140625</ele>
        <time>2020-08-18T09:18:04.000Z</time>
      </trkpt>
      <trkpt lat="42.5191028416156768798828125" lon="-0.225302539765834808349609375">
        <ele>1394.4000244140625</ele>
        <time>2020-08-18T09:18:05.000Z</time>
      </trkpt>
      <trkpt lat="42.51909873448312282562255859375" lon="-0.225431621074676513671875">
        <ele>1395.199951171875</ele>
        <time>2020-08-18T09:18:09.000Z</time>
      </trkpt>
      <trkpt lat="42.51909806393086910247802734375" lon="-0.2255330421030521392822265625">
        <ele>1395.4000244140625</ele>
        <time>2020-08-18T09:18:13.000Z</time>
      </trkpt>
      <trkpt lat="42.519093118607997894287109375" lon="-0.22558023221790790557861328125">
        <ele>1395.800048828125</ele>
        <time>2020-08-18T09:18:15.000Z</time>
      </trkpt>
      <trkpt lat="42.5190875865519046783447265625" lon="-0.2255994267761707305908203125">
        <ele>1396</ele>
        <time>2020-08-18T09:18:16.000Z</time>
      </trkpt>
      <trkpt lat="42.51908599399030208587646484375" lon="-0.2256689965724945068359375">
        <ele>1396.199951171875</ele>
        <time>2020-08-18T09:18:20.000Z</time>
      </trkpt>
      <trkpt lat="42.51908666454255580902099609375" lon="-0.22570788860321044921875">
        <ele>1396.4000244140625</ele>
        <time>2020-08-18T09:18:22.000Z</time>
      </trkpt>
      <trkpt lat="42.5190805457532405853271484375" lon="-0.22576496936380863189697265625">
        <ele>1396.5999755859375</ele>
        <time>2020-08-18T09:18:25.000Z</time>
      </trkpt>
      <trkpt lat="42.519074343144893646240234375" lon="-0.2257816493511199951171875">
        <ele>1396.800048828125</ele>
        <time>2020-08-18T09:18:26.000Z</time>
      </trkpt>
      <trkpt lat="42.51906570978462696075439453125" lon="-0.225807465612888336181640625">
        <ele>1397.4000244140625</ele>
        <time>2020-08-18T09:18:28.000Z</time>
      </trkpt>
      <trkpt lat="42.5190600939095020294189453125" lon="-0.2258213795721530914306640625">
        <ele>1397.5999755859375</ele>
        <time>2020-08-18T09:18:29.000Z</time>
      </trkpt>
      <trkpt lat="42.5190510414540767669677734375" lon="-0.225855410099029541015625">
        <ele>1398</ele>
        <time>2020-08-18T09:18:31.000Z</time>
      </trkpt>
      <trkpt lat="42.51904576085507869720458984375" lon="-0.22591601125895977020263671875">
        <ele>1398.4000244140625</ele>
        <time>2020-08-18T09:18:34.000Z</time>
      </trkpt>
      <trkpt lat="42.5190403126180171966552734375" lon="-0.22593478672206401824951171875">
        <ele>1398.5999755859375</ele>
        <time>2020-08-18T09:18:35.000Z</time>
      </trkpt>
      <trkpt lat="42.51899764873087406158447265625" lon="-0.22604517638683319091796875">
        <ele>1399</ele>
        <time>2020-08-18T09:18:41.000Z</time>
      </trkpt>
      <trkpt lat="42.5189461000263690948486328125" lon="-0.2261445857584476470947265625">
        <ele>1399.5999755859375</ele>
        <time>2020-08-18T09:18:47.000Z</time>
      </trkpt>
      <trkpt lat="42.51886772923171520233154296875" lon="-0.2262766845524311065673828125">
        <ele>1399.5999755859375</ele>
        <time>2020-08-18T09:18:54.000Z</time>
      </trkpt>
      <trkpt lat="42.51879530958831310272216796875" lon="-0.22636427544057369232177734375">
        <ele>1400.5999755859375</ele>
        <time>2020-08-18T09:19:00.000Z</time>
      </trkpt>
      <trkpt lat="42.51866907812654972076416015625" lon="-0.2264744974672794342041015625">
        <ele>1400.5999755859375</ele>
        <time>2020-08-18T09:19:09.000Z</time>
      </trkpt>
      <trkpt lat="42.518589533865451812744140625" lon="-0.226547420024871826171875">
        <ele>1401.199951171875</ele>
        <time>2020-08-18T09:19:15.000Z</time>
      </trkpt>
      <trkpt lat="42.51857888884842395782470703125" lon="-0.22655990906059741973876953125">
        <ele>1401.4000244140625</ele>
        <time>2020-08-18T09:19:16.000Z</time>
      </trkpt>
      <trkpt lat="42.51851568929851055145263671875" lon="-0.226640291512012481689453125">
        <ele>1401.5999755859375</ele>
        <time>2020-08-18T09:19:21.000Z</time>
      </trkpt>
      <trkpt lat="42.518490292131900787353515625" lon="-0.2266676165163516998291015625">
        <ele>1401.5999755859375</ele>
        <time>2020-08-18T09:19:23.000Z</time>
      </trkpt>
      <trkpt lat="42.5184376537799835205078125" lon="-0.22674062289297580718994140625">
        <ele>1402.199951171875</ele>
        <time>2020-08-18T09:19:27.000Z</time>
      </trkpt>
      <trkpt lat="42.5183942355215549468994140625" lon="-0.2268183231353759765625">
        <ele>1402</ele>
        <time>2020-08-18T09:19:32.000Z</time>
      </trkpt>
      <trkpt lat="42.51836062408983707427978515625" lon="-0.2268835343420505523681640625">
        <ele>1402.5999755859375</ele>
        <time>2020-08-18T09:19:36.000Z</time>
      </trkpt>
      <trkpt lat="42.51834402792155742645263671875" lon="-0.22691898979246616363525390625">
        <ele>1402.800048828125</ele>
        <time>2020-08-18T09:19:38.000Z</time>
      </trkpt>
      <trkpt lat="42.51830563880503177642822265625" lon="-0.22704186849296092987060546875">
        <ele>1403</ele>
        <time>2020-08-18T09:19:43.000Z</time>
      </trkpt>
      <trkpt lat="42.5182547606527805328369140625" lon="-0.2271698601543903350830078125">
        <ele>1403.199951171875</ele>
        <time>2020-08-18T09:19:49.000Z</time>
      </trkpt>
      <trkpt lat="42.5182212330400943756103515625" lon="-0.22725309245288372039794921875">
        <ele>1403.4000244140625</ele>
        <time>2020-08-18T09:19:53.000Z</time>
      </trkpt>
      <trkpt lat="42.5182135216891765594482421875" lon="-0.22729114629328250885009765625">
        <ele>1403.4000244140625</ele>
        <time>2020-08-18T09:19:55.000Z</time>
      </trkpt>
      <trkpt lat="42.51818485558032989501953125" lon="-0.22739005275070667266845703125">
        <ele>1403.4000244140625</ele>
        <time>2020-08-18T09:20:00.000Z</time>
      </trkpt>
      <trkpt lat="42.5181746296584606170654296875" lon="-0.2274182997643947601318359375">
        <ele>1403.5999755859375</ele>
        <time>2020-08-18T09:20:01.000Z</time>
      </trkpt>
      <trkpt lat="42.5181612186133861541748046875" lon="-0.2275084890425205230712890625">
        <ele>1403.800048828125</ele>
        <time>2020-08-18T09:20:05.000Z</time>
      </trkpt>
      <trkpt lat="42.51810983754694461822509765625" lon="-0.22766883485019207000732421875">
        <ele>1404</ele>
        <time>2020-08-18T09:20:11.000Z</time>
      </trkpt>
      <trkpt lat="42.51808200962841510772705078125" lon="-0.2277254126965999603271484375">
        <ele>1404.199951171875</ele>
        <time>2020-08-18T09:20:13.000Z</time>
      </trkpt>
      <trkpt lat="42.51807010732591152191162109375" lon="-0.22782306186854839324951171875">
        <ele>1404.199951171875</ele>
        <time>2020-08-18T09:20:16.000Z</time>
      </trkpt>
      <trkpt lat="42.5180592946708202362060546875" lon="-0.22784803993999958038330078125">
        <ele>1403.800048828125</ele>
        <time>2020-08-18T09:20:17.000Z</time>
      </trkpt>
      <trkpt lat="42.5180371664464473724365234375" lon="-0.2279274165630340576171875">
        <ele>1404</ele>
        <time>2020-08-18T09:20:20.000Z</time>
      </trkpt>
      <trkpt lat="42.518024928867816925048828125" lon="-0.2279944717884063720703125">
        <ele>1404.4000244140625</ele>
        <time>2020-08-18T09:20:23.000Z</time>
      </trkpt>
      <trkpt lat="42.5179925747215747833251953125" lon="-0.22804870270192623138427734375">
        <ele>1404.800048828125</ele>
        <time>2020-08-18T09:20:25.000Z</time>
      </trkpt>
      <trkpt lat="42.5179406069219112396240234375" lon="-0.2281554043292999267578125">
        <ele>1405.199951171875</ele>
        <time>2020-08-18T09:20:30.000Z</time>
      </trkpt>
      <trkpt lat="42.5179374217987060546875" lon="-0.228172838687896728515625">
        <ele>1405.199951171875</ele>
        <time>2020-08-18T09:20:31.000Z</time>
      </trkpt>
      <trkpt lat="42.5179038941860198974609375" lon="-0.228227488696575164794921875">
        <ele>1405.199951171875</ele>
        <time>2020-08-18T09:20:34.000Z</time>
      </trkpt>
      <trkpt lat="42.5178510881960391998291015625" lon="-0.22832010872662067413330078125">
        <ele>1405.199951171875</ele>
        <time>2020-08-18T09:20:38.000Z</time>
      </trkpt>
      <trkpt lat="42.517838180065155029296875" lon="-0.22838934324681758880615234375">
        <ele>1405.4000244140625</ele>
        <time>2020-08-18T09:20:40.000Z</time>
      </trkpt>
      <trkpt lat="42.51784563995897769927978515625" lon="-0.22843477316200733184814453125">
        <ele>1405.4000244140625</ele>
        <time>2020-08-18T09:20:42.000Z</time>
      </trkpt>
      <trkpt lat="42.51786961220204830169677734375" lon="-0.22845690138638019561767578125">
        <ele>1405.199951171875</ele>
        <time>2020-08-18T09:20:44.000Z</time>
      </trkpt>
      <trkpt lat="42.517937086522579193115234375" lon="-0.2284719049930572509765625">
        <ele>1405.5999755859375</ele>
        <time>2020-08-18T09:20:49.000Z</time>
      </trkpt>
      <trkpt lat="42.51799835823476314544677734375" lon="-0.22844181396067142486572265625">
        <ele>1406.199951171875</ele>
        <time>2020-08-18T09:20:54.000Z</time>
      </trkpt>
      <trkpt lat="42.51803071238100528717041015625" lon="-0.2284435741603374481201171875">
        <ele>1406.4000244140625</ele>
        <time>2020-08-18T09:20:56.000Z</time>
      </trkpt>
      <trkpt lat="42.51809575594961643218994140625" lon="-0.2284700609743595123291015625">
        <ele>1407.199951171875</ele>
        <time>2020-08-18T09:21:00.000Z</time>
      </trkpt>
      <trkpt lat="42.51818192191421985626220703125" lon="-0.22852999158203601837158203125">
        <ele>1407.5999755859375</ele>
        <time>2020-08-18T09:21:05.000Z</time>
      </trkpt>
      <trkpt lat="42.5181970931589603424072265625" lon="-0.22853854112327098846435546875">
        <ele>1407.800048828125</ele>
        <time>2020-08-18T09:21:06.000Z</time>
      </trkpt>
      <trkpt lat="42.5182745419442653656005859375" lon="-0.22856653667986392974853515625">
        <ele>1408.5999755859375</ele>
        <time>2020-08-18T09:21:11.000Z</time>
      </trkpt>
      <trkpt lat="42.51830513589084148406982421875" lon="-0.228576846420764923095703125">
        <ele>1408.5999755859375</ele>
        <time>2020-08-18T09:21:13.000Z</time>
      </trkpt>
      <trkpt lat="42.51842449419200420379638671875" lon="-0.22857181727886199951171875">
        <ele>1409.5999755859375</ele>
        <time>2020-08-18T09:21:20.000Z</time>
      </trkpt>
      <trkpt lat="42.518514432013034820556640625" lon="-0.22857089526951313018798828125">
        <ele>1410.4000244140625</ele>
        <time>2020-08-18T09:21:26.000Z</time>
      </trkpt>
      <trkpt lat="42.51853982917964458465576171875" lon="-0.22856318391859531402587890625">
        <ele>1410.800048828125</ele>
        <time>2020-08-18T09:21:28.000Z</time>
      </trkpt>
      <trkpt lat="42.5185866840183734893798828125" lon="-0.228572823107242584228515625">
        <ele>1411.800048828125</ele>
        <time>2020-08-18T09:21:31.000Z</time>
      </trkpt>
      <trkpt lat="42.51860319636762142181396484375" lon="-0.22857944481074810028076171875">
        <ele>1412</ele>
        <time>2020-08-18T09:21:32.000Z</time>
      </trkpt>
      <trkpt lat="42.51868701539933681488037109375" lon="-0.228630490601062774658203125">
        <ele>1412.5999755859375</ele>
        <time>2020-08-18T09:21:38.000Z</time>
      </trkpt>
      <trkpt lat="42.5187228061258792877197265625" lon="-0.228680111467838287353515625">
        <ele>1413</ele>
        <time>2020-08-18T09:21:41.000Z</time>
      </trkpt>
      <trkpt lat="42.5187593512237071990966796875" lon="-0.2287221886217594146728515625">
        <ele>1413.199951171875</ele>
        <time>2020-08-18T09:21:44.000Z</time>
      </trkpt>
      <trkpt lat="42.51882045529782772064208984375" lon="-0.22878513671457767486572265625">
        <ele>1413.800048828125</ele>
        <time>2020-08-18T09:21:49.000Z</time>
      </trkpt>
      <trkpt lat="42.51884107477962970733642578125" lon="-0.22881128825247287750244140625">
        <ele>1414.199951171875</ele>
        <time>2020-08-18T09:21:51.000Z</time>
      </trkpt>
      <trkpt lat="42.5188815593719482421875" lon="-0.22886275313794612884521484375">
        <ele>1415</ele>
        <time>2020-08-18T09:21:55.000Z</time>
      </trkpt>
      <trkpt lat="42.5189058668911457061767578125" lon="-0.228889323770999908447265625">
        <ele>1415</ele>
        <time>2020-08-18T09:21:57.000Z</time>
      </trkpt>
      <trkpt lat="42.5189756043255329132080078125" lon="-0.22896819747984409332275390625">
        <ele>1415</ele>
        <time>2020-08-18T09:22:03.000Z</time>
      </trkpt>
      <trkpt lat="42.51897602342069149017333984375" lon="-0.228969790041446685791015625">
        <ele>1415.4000244140625</ele>
        <time>2020-08-18T09:22:05.000Z</time>
      </trkpt>
      <trkpt lat="42.518975436687469482421875" lon="-0.22897959686815738677978515625">
        <ele>1416.4000244140625</ele>
        <time>2020-08-18T09:25:11.000Z</time>
      </trkpt>
      <trkpt lat="42.51898155547678470611572265625" lon="-0.2289947681128978729248046875">
        <ele>1415.800048828125</ele>
        <time>2020-08-18T09:25:17.000Z</time>
      </trkpt>
      <trkpt lat="42.51904492266476154327392578125" lon="-0.2290956862270832061767578125">
        <ele>1416.800048828125</ele>
        <time>2020-08-18T09:25:26.000Z</time>
      </trkpt>
      <trkpt lat="42.519075013697147369384765625" lon="-0.2291587181389331817626953125">
        <ele>1417.199951171875</ele>
        <time>2020-08-18T09:25:31.000Z</time>
      </trkpt>
      <trkpt lat="42.51910912804305553436279296875" lon="-0.22925443947315216064453125">
        <ele>1417.4000244140625</ele>
        <time>2020-08-18T09:25:38.000Z</time>
      </trkpt>
      <trkpt lat="42.51915170811116695404052734375" lon="-0.2293598838150501251220703125">
        <ele>1417.800048828125</ele>
        <time>2020-08-18T09:25:44.000Z</time>
      </trkpt>
      <trkpt lat="42.51916914246976375579833984375" lon="-0.22942266426980495452880859375">
        <ele>1418</ele>
        <time>2020-08-18T09:25:47.000Z</time>
      </trkpt>
      <trkpt lat="42.51917718909680843353271484375" lon="-0.22945434786379337310791015625">
        <ele>1418</ele>
        <time>2020-08-18T09:25:49.000Z</time>
      </trkpt>
      <trkpt lat="42.51918607391417026519775390625" lon="-0.22949474863708019256591796875">
        <ele>1418.199951171875</ele>
        <time>2020-08-18T09:25:51.000Z</time>
      </trkpt>
      <trkpt lat="42.51920082606375217437744140625" lon="-0.22956146858632564544677734375">
        <ele>1418.199951171875</ele>
        <time>2020-08-18T09:25:54.000Z</time>
      </trkpt>
      <trkpt lat="42.5192387960851192474365234375" lon="-0.22966708056628704071044921875">
        <ele>1418</ele>
        <time>2020-08-18T09:25:59.000Z</time>
      </trkpt>
      <trkpt lat="42.51928380690515041351318359375" lon="-0.22976581938564777374267578125">
        <ele>1418.199951171875</ele>
        <time>2020-08-18T09:26:04.000Z</time>
      </trkpt>
      <trkpt lat="42.5192890875041484832763671875" lon="-0.22978157736361026763916015625">
        <ele>1418.199951171875</ele>
        <time>2020-08-18T09:26:05.000Z</time>
      </trkpt>
      <trkpt lat="42.5193061865866184234619140625" lon="-0.229862630367279052734375">
        <ele>1418.800048828125</ele>
        <time>2020-08-18T09:26:10.000Z</time>
      </trkpt>
      <trkpt lat="42.5193189270794391632080078125" lon="-0.22989942692220211029052734375">
        <ele>1419.199951171875</ele>
        <time>2020-08-18T09:26:12.000Z</time>
      </trkpt>
      <trkpt lat="42.519335858523845672607421875" lon="-0.22994804196059703826904296875">
        <ele>1419.199951171875</ele>
        <time>2020-08-18T09:26:15.000Z</time>
      </trkpt>
      <trkpt lat="42.51935555599629878997802734375" lon="-0.2300200425088405609130859375">
        <ele>1419.199951171875</ele>
        <time>2020-08-18T09:26:18.000Z</time>
      </trkpt>
      <trkpt lat="42.51942009665071964263916015625" lon="-0.23021894507110118865966796875">
        <ele>1419.800048828125</ele>
        <time>2020-08-18T09:26:25.000Z</time>
      </trkpt>
      <trkpt lat="42.519437111914157867431640625" lon="-0.23030477575957775115966796875">
        <ele>1420.199951171875</ele>
        <time>2020-08-18T09:26:29.000Z</time>
      </trkpt>
      <trkpt lat="42.51945018768310546875" lon="-0.23035791702568531036376953125">
        <ele>1420.199951171875</ele>
        <time>2020-08-18T09:26:31.000Z</time>
      </trkpt>
      <trkpt lat="42.5194587372243404388427734375" lon="-0.23042027838528156280517578125">
        <ele>1420.800048828125</ele>
        <time>2020-08-18T09:26:33.000Z</time>
      </trkpt>
      <trkpt lat="42.51948773860931396484375" lon="-0.23054567165672779083251953125">
        <ele>1421.199951171875</ele>
        <time>2020-08-18T09:26:37.000Z</time>
      </trkpt>
      <trkpt lat="42.51951028592884540557861328125" lon="-0.23069151677191257476806640625">
        <ele>1421.5999755859375</ele>
        <time>2020-08-18T09:26:43.000Z</time>
      </trkpt>
      <trkpt lat="42.519506849348545074462890625" lon="-0.23085731081664562225341796875">
        <ele>1422.4000244140625</ele>
        <time>2020-08-18T09:26:50.000Z</time>
      </trkpt>
      <trkpt lat="42.51950793899595737457275390625" lon="-0.23087985813617706298828125">
        <ele>1422.4000244140625</ele>
        <time>2020-08-18T09:26:51.000Z</time>
      </trkpt>
      <trkpt lat="42.5195056758821010589599609375" lon="-0.23090240545570850372314453125">
        <ele>1422.5999755859375</ele>
        <time>2020-08-18T09:26:52.000Z</time>
      </trkpt>
      <trkpt lat="42.51950911246240139007568359375" lon="-0.23096107877790927886962890625">
        <ele>1422.5999755859375</ele>
        <time>2020-08-18T09:26:55.000Z</time>
      </trkpt>
      <trkpt lat="42.5195127166807651519775390625" lon="-0.231001563370227813720703125">
        <ele>1422.800048828125</ele>
        <time>2020-08-18T09:26:57.000Z</time>
      </trkpt>
      <trkpt lat="42.5195210985839366912841796875" lon="-0.23107574321329593658447265625">
        <ele>1423.4000244140625</ele>
        <time>2020-08-18T09:27:01.000Z</time>
      </trkpt>
      <trkpt lat="42.51953006722033023834228515625" lon="-0.23112989030778408050537109375">
        <ele>1423.5999755859375</ele>
        <time>2020-08-18T09:27:04.000Z</time>
      </trkpt>
      <trkpt lat="42.51953442580997943878173828125" lon="-0.23117079399526119232177734375">
        <ele>1423.800048828125</ele>
        <time>2020-08-18T09:27:06.000Z</time>
      </trkpt>
      <trkpt lat="42.5195556320250034332275390625" lon="-0.23126835934817790985107421875">
        <ele>1424</ele>
        <time>2020-08-18T09:27:11.000Z</time>
      </trkpt>
      <trkpt lat="42.519557811319828033447265625" lon="-0.2312877215445041656494140625">
        <ele>1424.199951171875</ele>
        <time>2020-08-18T09:27:12.000Z</time>
      </trkpt>
      <trkpt lat="42.519557476043701171875" lon="-0.2313286252319812774658203125">
        <ele>1424.5999755859375</ele>
        <time>2020-08-18T09:27:14.000Z</time>
      </trkpt>
      <trkpt lat="42.51956485211849212646484375" lon="-0.23136307485401630401611328125">
        <ele>1424.800048828125</ele>
        <time>2020-08-18T09:27:16.000Z</time>
      </trkpt>
      <trkpt lat="42.51956879161298274993896484375" lon="-0.23138009011745452880859375">
        <ele>1424.800048828125</ele>
        <time>2020-08-18T09:27:17.000Z</time>
      </trkpt>
      <trkpt lat="42.519575245678424835205078125" lon="-0.23141705431044101715087890625">
        <ele>1425.199951171875</ele>
        <time>2020-08-18T09:27:19.000Z</time>
      </trkpt>
      <trkpt lat="42.51958605833351612091064453125" lon="-0.2314697764813899993896484375">
        <ele>1425.199951171875</ele>
        <time>2020-08-18T09:27:22.000Z</time>
      </trkpt>
      <trkpt lat="42.5195871479809284210205078125" lon="-0.2315133623778820037841796875">
        <ele>1425.199951171875</ele>
        <time>2020-08-18T09:27:24.000Z</time>
      </trkpt>
      <trkpt lat="42.51958488486707210540771484375" lon="-0.2315348200500011444091796875">
        <ele>1425.199951171875</ele>
        <time>2020-08-18T09:27:25.000Z</time>
      </trkpt>
      <trkpt lat="42.51959142275154590606689453125" lon="-0.2315794117748737335205078125">
        <ele>1425.4000244140625</ele>
        <time>2020-08-18T09:27:27.000Z</time>
      </trkpt>
      <trkpt lat="42.51959846355020999908447265625" lon="-0.231646634638309478759765625">
        <ele>1425.800048828125</ele>
        <time>2020-08-18T09:27:30.000Z</time>
      </trkpt>
      <trkpt lat="42.51960466615855693817138671875" lon="-0.2316722832620143890380859375">
        <ele>1425.800048828125</ele>
        <time>2020-08-18T09:27:31.000Z</time>
      </trkpt>
      <trkpt lat="42.51961271278560161590576171875" lon="-0.23172198794782161712646484375">
        <ele>1426</ele>
        <time>2020-08-18T09:27:33.000Z</time>
      </trkpt>
      <trkpt lat="42.51961472444236278533935546875" lon="-0.23182977922260761260986328125">
        <ele>1426.199951171875</ele>
        <time>2020-08-18T09:27:38.000Z</time>
      </trkpt>
      <trkpt lat="42.51961925067007541656494140625" lon="-0.23187093436717987060546875">
        <ele>1426.199951171875</ele>
        <time>2020-08-18T09:27:40.000Z</time>
      </trkpt>
      <trkpt lat="42.51962696202099323272705078125" lon="-0.2319820784032344818115234375">
        <ele>1426.5999755859375</ele>
        <time>2020-08-18T09:27:45.000Z</time>
      </trkpt>
      <trkpt lat="42.5196260400116443634033203125" lon="-0.2320283465087413787841796875">
        <ele>1426.800048828125</ele>
        <time>2020-08-18T09:27:47.000Z</time>
      </trkpt>
      <trkpt lat="42.51962662674486637115478515625" lon="-0.23207352496683597564697265625">
        <ele>1426.800048828125</ele>
        <time>2020-08-18T09:27:49.000Z</time>
      </trkpt>
      <trkpt lat="42.51963148824870586395263671875" lon="-0.2320933900773525238037109375">
        <ele>1427</ele>
        <time>2020-08-18T09:27:50.000Z</time>
      </trkpt>
      <trkpt lat="42.5196377746760845184326171875" lon="-0.2321116626262664794921875">
        <ele>1427.199951171875</ele>
        <time>2020-08-18T09:27:51.000Z</time>
      </trkpt>
      <trkpt lat="42.51964355818927288055419921875" lon="-0.2321902848780155181884765625">
        <ele>1427.5999755859375</ele>
        <time>2020-08-18T09:27:55.000Z</time>
      </trkpt>
      <trkpt lat="42.51965126954019069671630859375" lon="-0.2323183603584766387939453125">
        <ele>1427.5999755859375</ele>
        <time>2020-08-18T09:28:01.000Z</time>
      </trkpt>
      <trkpt lat="42.5196401216089725494384765625" lon="-0.2324273250997066497802734375">
        <ele>1427.800048828125</ele>
        <time>2020-08-18T09:28:06.000Z</time>
      </trkpt>
      <trkpt lat="42.51963651739060878753662109375" lon="-0.23253117688000202178955078125">
        <ele>1428.199951171875</ele>
        <time>2020-08-18T09:28:11.000Z</time>
      </trkpt>
      <trkpt lat="42.51963953487575054168701171875" lon="-0.23255280219018459320068359375">
        <ele>1428.199951171875</ele>
        <time>2020-08-18T09:28:12.000Z</time>
      </trkpt>
      <trkpt lat="42.5196407921612262725830078125" lon="-0.2325735054910182952880859375">
        <ele>1428.4000244140625</ele>
        <time>2020-08-18T09:28:13.000Z</time>
      </trkpt>
      <trkpt lat="42.5196417979896068572998046875" lon="-0.23265011608600616455078125">
        <ele>1428.5999755859375</ele>
        <time>2020-08-18T09:28:17.000Z</time>
      </trkpt>
      <trkpt lat="42.5196381099522113800048828125" lon="-0.2326856553554534912109375">
        <ele>1428.5999755859375</ele>
        <time>2020-08-18T09:28:19.000Z</time>
      </trkpt>
      <trkpt lat="42.51962126232683658599853515625" lon="-0.23280970752239227294921875">
        <ele>1428.5999755859375</ele>
        <time>2020-08-18T09:28:25.000Z</time>
      </trkpt>
      <trkpt lat="42.51960969530045986175537109375" lon="-0.23292596451938152313232421875">
        <ele>1429.199951171875</ele>
        <time>2020-08-18T09:28:30.000Z</time>
      </trkpt>
      <trkpt lat="42.51960701309144496917724609375" lon="-0.23294985294342041015625">
        <ele>1429.199951171875</ele>
        <time>2020-08-18T09:28:31.000Z</time>
      </trkpt>
      <trkpt lat="42.51959812827408313751220703125" lon="-0.2330797724425792694091796875">
        <ele>1429.5999755859375</ele>
        <time>2020-08-18T09:28:37.000Z</time>
      </trkpt>
      <trkpt lat="42.51959511078894138336181640625" lon="-0.233098380267620086669921875">
        <ele>1429.800048828125</ele>
        <time>2020-08-18T09:28:38.000Z</time>
      </trkpt>
      <trkpt lat="42.51957918517291545867919921875" lon="-0.23317448794841766357421875">
        <ele>1430.4000244140625</ele>
        <time>2020-08-18T09:28:42.000Z</time>
      </trkpt>
      <trkpt lat="42.51958119682967662811279296875" lon="-0.2331912517547607421875">
        <ele>1430.5999755859375</ele>
        <time>2020-08-18T09:28:43.000Z</time>
      </trkpt>
      <trkpt lat="42.51957633532583713531494140625" lon="-0.23329116404056549072265625">
        <ele>1430.800048828125</ele>
        <time>2020-08-18T09:28:48.000Z</time>
      </trkpt>
      <trkpt lat="42.51956426538527011871337890625" lon="-0.23340675048530101776123046875">
        <ele>1430.800048828125</ele>
        <time>2020-08-18T09:28:54.000Z</time>
      </trkpt>
      <trkpt lat="42.5195613317191600799560546875" lon="-0.2334284596145153045654296875">
        <ele>1431</ele>
        <time>2020-08-18T09:28:55.000Z</time>
      </trkpt>
      <trkpt lat="42.5195438973605632781982421875" lon="-0.2335669286549091339111328125">
        <ele>1431.199951171875</ele>
        <time>2020-08-18T09:29:01.000Z</time>
      </trkpt>
      <trkpt lat="42.51951699145138263702392578125" lon="-0.2337174676358699798583984375">
        <ele>1431.4000244140625</ele>
        <time>2020-08-18T09:29:07.000Z</time>
      </trkpt>
      <trkpt lat="42.51950827427208423614501953125" lon="-0.233738422393798828125">
        <ele>1431.5999755859375</ele>
        <time>2020-08-18T09:29:08.000Z</time>
      </trkpt>
      <trkpt lat="42.5194869004189968109130859375" lon="-0.2337934076786041259765625">
        <ele>1431.800048828125</ele>
        <time>2020-08-18T09:29:11.000Z</time>
      </trkpt>
      <trkpt lat="42.51948078162968158721923828125" lon="-0.23383405990898609161376953125">
        <ele>1432</ele>
        <time>2020-08-18T09:29:13.000Z</time>
      </trkpt>
      <trkpt lat="42.519465275108814239501953125" lon="-0.23390270769596099853515625">
        <ele>1432.4000244140625</ele>
        <time>2020-08-18T09:29:16.000Z</time>
      </trkpt>
      <trkpt lat="42.51945781521499156951904296875" lon="-0.2339464612305164337158203125">
        <ele>1432.5999755859375</ele>
        <time>2020-08-18T09:29:18.000Z</time>
      </trkpt>
      <trkpt lat="42.5194516964256763458251953125" lon="-0.233965404331684112548828125">
        <ele>1432.5999755859375</ele>
        <time>2020-08-18T09:29:19.000Z</time>
      </trkpt>
      <trkpt lat="42.51940886490046977996826171875" lon="-0.2340762130916118621826171875">
        <ele>1432.4000244140625</ele>
        <time>2020-08-18T09:29:25.000Z</time>
      </trkpt>
      <trkpt lat="42.5193782709538936614990234375" lon="-0.23414419032633304595947265625">
        <ele>1432.800048828125</ele>
        <time>2020-08-18T09:29:29.000Z</time>
      </trkpt>
      <trkpt lat="42.51937047578394412994384765625" lon="-0.2341600321233272552490234375">
        <ele>1432.800048828125</ele>
        <time>2020-08-18T09:29:30.000Z</time>
      </trkpt>
      <trkpt lat="42.51933208666741847991943359375" lon="-0.2342391572892665863037109375">
        <ele>1433.199951171875</ele>
        <time>2020-08-18T09:29:35.000Z</time>
      </trkpt>
      <trkpt lat="42.519321441650390625" lon="-0.23425416089594364166259765625">
        <ele>1433.199951171875</ele>
        <time>2020-08-18T09:29:36.000Z</time>
      </trkpt>
      <trkpt lat="42.51927492208778858184814453125" lon="-0.23436270654201507568359375">
        <ele>1433.5999755859375</ele>
        <time>2020-08-18T09:29:42.000Z</time>
      </trkpt>
      <trkpt lat="42.5192691385746002197265625" lon="-0.2343779616057872772216796875">
        <ele>1433.800048828125</ele>
        <time>2020-08-18T09:29:43.000Z</time>
      </trkpt>
      <trkpt lat="42.51924659125506877899169921875" lon="-0.2344560809433460235595703125">
        <ele>1434.199951171875</ele>
        <time>2020-08-18T09:29:48.000Z</time>
      </trkpt>
      <trkpt lat="42.5192220322787761688232421875" lon="-0.23449790664017200469970703125">
        <ele>1434.4000244140625</ele>
        <time>2020-08-18T09:29:50.000Z</time>
      </trkpt>
      <trkpt lat="42.51918808557093143463134765625" lon="-0.23455674760043621063232421875">
        <ele>1434.5999755859375</ele>
        <time>2020-08-18T09:29:53.000Z</time>
      </trkpt>
      <trkpt lat="42.51910845749080181121826171875" lon="-0.23468515835702419281005859375">
        <ele>1434.5999755859375</ele>
        <time>2020-08-18T09:29:59.000Z</time>
      </trkpt>
      <trkpt lat="42.5190319307148456573486328125" lon="-0.23479831404983997344970703125">
        <ele>1435</ele>
        <time>2020-08-18T09:30:05.000Z</time>
      </trkpt>
      <trkpt lat="42.518987171351909637451171875" lon="-0.23487375117838382720947265625">
        <ele>1435.4000244140625</ele>
        <time>2020-08-18T09:30:09.000Z</time>
      </trkpt>
      <trkpt lat="42.51898105256259441375732421875" lon="-0.2348993159830570220947265625">
        <ele>1435.4000244140625</ele>
        <time>2020-08-18T09:30:10.000Z</time>
      </trkpt>
      <trkpt lat="42.51895573921501636505126953125" lon="-0.2349655330181121826171875">
        <ele>1435.5999755859375</ele>
        <time>2020-08-18T09:30:13.000Z</time>
      </trkpt>
      <trkpt lat="42.518932521343231201171875" lon="-0.23500132374465465545654296875">
        <ele>1435.4000244140625</ele>
        <time>2020-08-18T09:30:15.000Z</time>
      </trkpt>
      <trkpt lat="42.51888088881969451904296875" lon="-0.23509318940341472625732421875">
        <ele>1435.5999755859375</ele>
        <time>2020-08-18T09:30:19.000Z</time>
      </trkpt>
      <trkpt lat="42.51885465346276760101318359375" lon="-0.23513409309089183807373046875">
        <ele>1435.800048828125</ele>
        <time>2020-08-18T09:30:21.000Z</time>
      </trkpt>
      <trkpt lat="42.5187855027616024017333984375" lon="-0.23525780998170375823974609375">
        <ele>1436</ele>
        <time>2020-08-18T09:30:27.000Z</time>
      </trkpt>
      <trkpt lat="42.51873646862804889678955078125" lon="-0.23533743806183338165283203125">
        <ele>1436.199951171875</ele>
        <time>2020-08-18T09:30:32.000Z</time>
      </trkpt>
      <trkpt lat="42.5187273323535919189453125" lon="-0.23535185493528842926025390625">
        <ele>1436.199951171875</ele>
        <time>2020-08-18T09:30:33.000Z</time>
      </trkpt>
      <trkpt lat="42.51870746724307537078857421875" lon="-0.23539426736533641815185546875">
        <ele>1436.4000244140625</ele>
        <time>2020-08-18T09:30:35.000Z</time>
      </trkpt>
      <trkpt lat="42.51867033541202545166015625" lon="-0.2354592271149158477783203125">
        <ele>1436.5999755859375</ele>
        <time>2020-08-18T09:30:38.000Z</time>
      </trkpt>
      <trkpt lat="42.5185833312571048736572265625" lon="-0.23560834117233753204345703125">
        <ele>1437</ele>
        <time>2020-08-18T09:30:45.000Z</time>
      </trkpt>
      <trkpt lat="42.51848802901804447174072265625" lon="-0.23579609580338001251220703125">
        <ele>1437.199951171875</ele>
        <time>2020-08-18T09:30:51.000Z</time>
      </trkpt>
      <trkpt lat="42.51841879449784755706787109375" lon="-0.23591897450387477874755859375">
        <ele>1437.4000244140625</ele>
        <time>2020-08-18T09:30:56.000Z</time>
      </trkpt>
      <trkpt lat="42.5184076465666294097900390625" lon="-0.23594210855662822723388671875">
        <ele>1437.4000244140625</ele>
        <time>2020-08-18T09:30:57.000Z</time>
      </trkpt>
      <trkpt lat="42.518401108682155609130859375" lon="-0.2359686791896820068359375">
        <ele>1437.5999755859375</ele>
        <time>2020-08-18T09:30:58.000Z</time>
      </trkpt>
      <trkpt lat="42.5183814950287342071533203125" lon="-0.23602240718901157379150390625">
        <ele>1437.5999755859375</ele>
        <time>2020-08-18T09:31:00.000Z</time>
      </trkpt>
      <trkpt lat="42.518352828919887542724609375" lon="-0.23608845658600330352783203125">
        <ele>1437.5999755859375</ele>
        <time>2020-08-18T09:31:03.000Z</time>
      </trkpt>
      <trkpt lat="42.518331371247768402099609375" lon="-0.23613832890987396240234375">
        <ele>1437.4000244140625</ele>
        <time>2020-08-18T09:31:05.000Z</time>
      </trkpt>
      <trkpt lat="42.51824931241571903228759765625" lon="-0.2362521551549434661865234375">
        <ele>1437.5999755859375</ele>
        <time>2020-08-18T09:31:10.000Z</time>
      </trkpt>
      <trkpt lat="42.51816448755562305450439453125" lon="-0.23643412627279758453369140625">
        <ele>1438.199951171875</ele>
        <time>2020-08-18T09:31:17.000Z</time>
      </trkpt>
      <trkpt lat="42.5180889666080474853515625" lon="-0.2365565858781337738037109375">
        <ele>1438</ele>
        <time>2020-08-18T09:31:22.000Z</time>
      </trkpt>
      <trkpt lat="42.51797958277165889739990234375" lon="-0.23671098053455352783203125">
        <ele>1437.800048828125</ele>
        <time>2020-08-18T09:31:29.000Z</time>
      </trkpt>
      <trkpt lat="42.51789978705346584320068359375" lon="-0.2368305064737796783447265625">
        <ele>1437.800048828125</ele>
        <time>2020-08-18T09:31:35.000Z</time>
      </trkpt>
      <trkpt lat="42.51781336963176727294921875" lon="-0.23696570657193660736083984375">
        <ele>1437.4000244140625</ele>
        <time>2020-08-18T09:31:41.000Z</time>
      </trkpt>
      <trkpt lat="42.5176908262073993682861328125" lon="-0.237096883356571197509765625">
        <ele>1437.5999755859375</ele>
        <time>2020-08-18T09:31:47.000Z</time>
      </trkpt>
      <trkpt lat="42.5175453163683414459228515625" lon="-0.2372023276984691619873046875">
        <ele>1437.4000244140625</ele>
        <time>2020-08-18T09:31:53.000Z</time>
      </trkpt>
      <trkpt lat="42.5174157321453094482421875" lon="-0.23729503154754638671875">
        <ele>1437.199951171875</ele>
        <time>2020-08-18T09:31:59.000Z</time>
      </trkpt>
      <trkpt lat="42.5172593258321285247802734375" lon="-0.2373944409191608428955078125">
        <ele>1437</ele>
        <time>2020-08-18T09:32:06.000Z</time>
      </trkpt>
      <trkpt lat="42.5171421468257904052734375" lon="-0.23749711923301219940185546875">
        <ele>1436.5999755859375</ele>
        <time>2020-08-18T09:32:12.000Z</time>
      </trkpt>
      <trkpt lat="42.51703016459941864013671875" lon="-0.2375942654907703399658203125">
        <ele>1437.199951171875</ele>
        <time>2020-08-18T09:32:18.000Z</time>
      </trkpt>
      <trkpt lat="42.516922540962696075439453125" lon="-0.23766123689711093902587890625">
        <ele>1436.5999755859375</ele>
        <time>2020-08-18T09:32:23.000Z</time>
      </trkpt>
      <trkpt lat="42.5167694874107837677001953125" lon="-0.23772225715219974517822265625">
        <ele>1436.199951171875</ele>
        <time>2020-08-18T09:32:29.000Z</time>
      </trkpt>
      <trkpt lat="42.516628168523311614990234375" lon="-0.2377870492637157440185546875">
        <ele>1435.800048828125</ele>
        <time>2020-08-18T09:32:35.000Z</time>
      </trkpt>
      <trkpt lat="42.51653487794101238250732421875" lon="-0.23784278891980648040771484375">
        <ele>1435</ele>
        <time>2020-08-18T09:32:39.000Z</time>
      </trkpt>
      <trkpt lat="42.516518533229827880859375" lon="-0.23786223493516445159912109375">
        <ele>1435.199951171875</ele>
        <time>2020-08-18T09:32:40.000Z</time>
      </trkpt>
      <trkpt lat="42.51646279357373714447021484375" lon="-0.23790054023265838623046875">
        <ele>1435.199951171875</ele>
        <time>2020-08-18T09:32:43.000Z</time>
      </trkpt>
      <trkpt lat="42.51644334755837917327880859375" lon="-0.23791437037289142608642578125">
        <ele>1435.199951171875</ele>
        <time>2020-08-18T09:32:44.000Z</time>
      </trkpt>
      <trkpt lat="42.5163859315216541290283203125" lon="-0.23794136010110378265380859375">
        <ele>1435</ele>
        <time>2020-08-18T09:32:47.000Z</time>
      </trkpt>
      <trkpt lat="42.51634594984352588653564453125" lon="-0.23795024491846561431884765625">
        <ele>1434.800048828125</ele>
        <time>2020-08-18T09:32:49.000Z</time>
      </trkpt>
      <trkpt lat="42.51624402590095996856689453125" lon="-0.237972624599933624267578125">
        <ele>1433.800048828125</ele>
        <time>2020-08-18T09:32:54.000Z</time>
      </trkpt>
      <trkpt lat="42.51622139476239681243896484375" lon="-0.23797991685569286346435546875">
        <ele>1433.5999755859375</ele>
        <time>2020-08-18T09:32:55.000Z</time>
      </trkpt>
      <trkpt lat="42.5161398388445377349853515625" lon="-0.237990729510784149169921875">
        <ele>1433.4000244140625</ele>
        <time>2020-08-18T09:32:59.000Z</time>
      </trkpt>
      <trkpt lat="42.51605258323252201080322265625" lon="-0.23798813112080097198486328125">
        <ele>1432.5999755859375</ele>
        <time>2020-08-18T09:33:03.000Z</time>
      </trkpt>
      <trkpt lat="42.5159903056919574737548828125" lon="-0.23799198679625988006591796875">
        <ele>1431.800048828125</ele>
        <time>2020-08-18T09:33:06.000Z</time>
      </trkpt>
      <trkpt lat="42.5159634836018085479736328125" lon="-0.2379908971488475799560546875">
        <ele>1431.4000244140625</ele>
        <time>2020-08-18T09:33:07.000Z</time>
      </trkpt>
      <trkpt lat="42.51589215360581874847412109375" lon="-0.2379642426967620849609375">
        <ele>1431.199951171875</ele>
        <time>2020-08-18T09:33:10.000Z</time>
      </trkpt>
      <trkpt lat="42.5157717056572437286376953125" lon="-0.237938426434993743896484375">
        <ele>1430.4000244140625</ele>
        <time>2020-08-18T09:33:15.000Z</time>
      </trkpt>
      <trkpt lat="42.5157274492084980010986328125" lon="-0.23794119246304035186767578125">
        <ele>1430.199951171875</ele>
        <time>2020-08-18T09:33:17.000Z</time>
      </trkpt>
      <trkpt lat="42.51568562351167201995849609375" lon="-0.23798368871212005615234375">
        <ele>1430.199951171875</ele>
        <time>2020-08-18T09:33:20.000Z</time>
      </trkpt>
      <trkpt lat="42.51561320386826992034912109375" lon="-0.2381149493157863616943359375">
        <ele>1431</ele>
        <time>2020-08-18T09:33:27.000Z</time>
      </trkpt>
      <trkpt lat="42.51559895463287830352783203125" lon="-0.2381803281605243682861328125">
        <ele>1431.199951171875</ele>
        <time>2020-08-18T09:33:30.000Z</time>
      </trkpt>
      <trkpt lat="42.515597529709339141845703125" lon="-0.2382037974894046783447265625">
        <ele>1431.5999755859375</ele>
        <time>2020-08-18T09:33:31.000Z</time>
      </trkpt>
      <trkpt lat="42.51559241674840450286865234375" lon="-0.23822852410376071929931640625">
        <ele>1431.5999755859375</ele>
        <time>2020-08-18T09:33:32.000Z</time>
      </trkpt>
      <trkpt lat="42.515584118664264678955078125" lon="-0.2383114211261272430419921875">
        <ele>1432</ele>
        <time>2020-08-18T09:33:36.000Z</time>
      </trkpt>
      <trkpt lat="42.515570707619190216064453125" lon="-0.2384096570312976837158203125">
        <ele>1432.4000244140625</ele>
        <time>2020-08-18T09:33:41.000Z</time>
      </trkpt>
      <trkpt lat="42.51557313837110996246337890625" lon="-0.23843052797019481658935546875">
        <ele>1432.5999755859375</ele>
        <time>2020-08-18T09:33:42.000Z</time>
      </trkpt>
      <trkpt lat="42.51556492410600185394287109375" lon="-0.23847310803830623626708984375">
        <ele>1432.800048828125</ele>
        <time>2020-08-18T09:33:44.000Z</time>
      </trkpt>
      <trkpt lat="42.5155541114509105682373046875" lon="-0.2385102398693561553955078125">
        <ele>1433</ele>
        <time>2020-08-18T09:33:46.000Z</time>
      </trkpt>
      <trkpt lat="42.51553709618747234344482421875" lon="-0.23855005390942096710205078125">
        <ele>1433</ele>
        <time>2020-08-18T09:33:48.000Z</time>
      </trkpt>
      <trkpt lat="42.5155071727931499481201171875" lon="-0.2386054582893848419189453125">
        <ele>1433.199951171875</ele>
        <time>2020-08-18T09:33:51.000Z</time>
      </trkpt>
      <trkpt lat="42.51546484418213367462158203125" lon="-0.2386570908129215240478515625">
        <ele>1433.5999755859375</ele>
        <time>2020-08-18T09:33:55.000Z</time>
      </trkpt>
      <trkpt lat="42.5154505111277103424072265625" lon="-0.238668657839298248291015625">
        <ele>1433.5999755859375</ele>
        <time>2020-08-18T09:33:56.000Z</time>
      </trkpt>
      <trkpt lat="42.5154335796833038330078125" lon="-0.23868030868470668792724609375">
        <ele>1433.5999755859375</ele>
        <time>2020-08-18T09:33:57.000Z</time>
      </trkpt>
      <trkpt lat="42.5154226832091808319091796875" lon="-0.23868919350206851959228515625">
        <ele>1433.5999755859375</ele>
        <time>2020-08-18T09:33:58.000Z</time>
      </trkpt>
      <trkpt lat="42.5154049135744571685791015625" lon="-0.238704197108745574951171875">
        <ele>1433.800048828125</ele>
        <time>2020-08-18T09:34:02.000Z</time>
      </trkpt>
      <trkpt lat="42.51539980061352252960205078125" lon="-0.23870788514614105224609375">
        <ele>1433.800048828125</ele>
        <time>2020-08-18T09:34:14.000Z</time>
      </trkpt>
      <trkpt lat="42.5153987109661102294921875" lon="-0.23871266283094882965087890625">
        <ele>1433.800048828125</ele>
        <time>2020-08-18T09:34:32.000Z</time>
      </trkpt>
      <trkpt lat="42.51539913006126880645751953125" lon="-0.23871802724897861480712890625">
        <ele>1433.5999755859375</ele>
        <time>2020-08-18T09:34:50.000Z</time>
      </trkpt>
      <trkpt lat="42.515398375689983367919921875" lon="-0.23872171528637409210205078125">
        <ele>1433.800048828125</ele>
        <time>2020-08-18T09:35:09.000Z</time>
      </trkpt>
      <trkpt lat="42.51539510674774646759033203125" lon="-0.238722302019596099853515625">
        <ele>1433.4000244140625</ele>
        <time>2020-08-18T09:35:15.000Z</time>
      </trkpt>
      <trkpt lat="42.5153911672532558441162109375" lon="-0.2387365512549877166748046875">
        <ele>1433.5999755859375</ele>
        <time>2020-08-18T09:35:24.000Z</time>
      </trkpt>
      <trkpt lat="42.51534045673906803131103515625" lon="-0.2387536503374576568603515625">
        <ele>1433.800048828125</ele>
        <time>2020-08-18T09:35:32.000Z</time>
      </trkpt>
      <trkpt lat="42.51526250503957271575927734375" lon="-0.2387563325464725494384765625">
        <ele>1434</ele>
        <time>2020-08-18T09:35:38.000Z</time>
      </trkpt>
      <trkpt lat="42.51521154306828975677490234375" lon="-0.23878944106400012969970703125">
        <ele>1434.4000244140625</ele>
        <time>2020-08-18T09:35:43.000Z</time>
      </trkpt>
      <trkpt lat="42.515188157558441162109375" lon="-0.2388173528015613555908203125">
        <ele>1434.4000244140625</ele>
        <time>2020-08-18T09:35:45.000Z</time>
      </trkpt>
      <trkpt lat="42.515156976878643035888671875" lon="-0.23889153264462947845458984375">
        <ele>1434.5999755859375</ele>
        <time>2020-08-18T09:35:48.000Z</time>
      </trkpt>
      <trkpt lat="42.5151494331657886505126953125" lon="-0.238921456038951873779296875">
        <ele>1434.5999755859375</ele>
        <time>2020-08-18T09:35:49.000Z</time>
      </trkpt>
      <trkpt lat="42.51513116061687469482421875" lon="-0.23902229033410549163818359375">
        <ele>1434.800048828125</ele>
        <time>2020-08-18T09:35:53.000Z</time>
      </trkpt>
      <trkpt lat="42.51512487418949604034423828125" lon="-0.239068977534770965576171875">
        <ele>1434.800048828125</ele>
        <time>2020-08-18T09:35:55.000Z</time>
      </trkpt>
      <trkpt lat="42.5150956213474273681640625" lon="-0.2391824685037136077880859375">
        <ele>1435.199951171875</ele>
        <time>2020-08-18T09:36:00.000Z</time>
      </trkpt>
      <trkpt lat="42.515063099563121795654296875" lon="-0.23926603607833385467529296875">
        <ele>1435.4000244140625</ele>
        <time>2020-08-18T09:36:04.000Z</time>
      </trkpt>
      <trkpt lat="42.51504910178482532501220703125" lon="-0.23927777074277400970458984375">
        <ele>1435.199951171875</ele>
        <time>2020-08-18T09:36:05.000Z</time>
      </trkpt>
      <trkpt lat="42.51500107347965240478515625" lon="-0.23933443240821361541748046875">
        <ele>1435.199951171875</ele>
        <time>2020-08-18T09:36:08.000Z</time>
      </trkpt>
      <trkpt lat="42.51498489640653133392333984375" lon="-0.23935295641422271728515625">
        <ele>1435.199951171875</ele>
        <time>2020-08-18T09:36:09.000Z</time>
      </trkpt>
      <trkpt lat="42.51493133604526519775390625" lon="-0.23945597000420093536376953125">
        <ele>1435.4000244140625</ele>
        <time>2020-08-18T09:36:14.000Z</time>
      </trkpt>
      <trkpt lat="42.51487928442656993865966796875" lon="-0.2395720593631267547607421875">
        <ele>1435.800048828125</ele>
        <time>2020-08-18T09:36:19.000Z</time>
      </trkpt>
      <trkpt lat="42.51486185006797313690185546875" lon="-0.239616148173809051513671875">
        <ele>1436.199951171875</ele>
        <time>2020-08-18T09:36:21.000Z</time>
      </trkpt>
      <trkpt lat="42.51480619423091411590576171875" lon="-0.239737518131732940673828125">
        <ele>1436.4000244140625</ele>
        <time>2020-08-18T09:36:27.000Z</time>
      </trkpt>
      <trkpt lat="42.5147310085594654083251953125" lon="-0.2398738078773021697998046875">
        <ele>1436</ele>
        <time>2020-08-18T09:36:33.000Z</time>
      </trkpt>
      <trkpt lat="42.5147065334022045135498046875" lon="-0.23991345427930355072021484375">
        <ele>1436.4000244140625</ele>
        <time>2020-08-18T09:36:35.000Z</time>
      </trkpt>
      <trkpt lat="42.51467728056013584136962890625" lon="-0.23998050950467586517333984375">
        <ele>1437</ele>
        <time>2020-08-18T09:36:38.000Z</time>
      </trkpt>
      <trkpt lat="42.5146337784826755523681640625" lon="-0.24006365798413753509521484375">
        <ele>1437.4000244140625</ele>
        <time>2020-08-18T09:36:42.000Z</time>
      </trkpt>
      <trkpt lat="42.51461776904761791229248046875" lon="-0.24010598659515380859375">
        <ele>1437.4000244140625</ele>
        <time>2020-08-18T09:36:44.000Z</time>
      </trkpt>
      <trkpt lat="42.51458256505429744720458984375" lon="-0.24019827134907245635986328125">
        <ele>1437.800048828125</ele>
        <time>2020-08-18T09:36:49.000Z</time>
      </trkpt>
      <trkpt lat="42.51455423422157764434814453125" lon="-0.24026180617511272430419921875">
        <ele>1438.199951171875</ele>
        <time>2020-08-18T09:36:52.000Z</time>
      </trkpt>
      <trkpt lat="42.51452975906431674957275390625" lon="-0.2403244189918041229248046875">
        <ele>1438.4000244140625</ele>
        <time>2020-08-18T09:36:55.000Z</time>
      </trkpt>
      <trkpt lat="42.5145216286182403564453125" lon="-0.24034478701651096343994140625">
        <ele>1438.5999755859375</ele>
        <time>2020-08-18T09:36:56.000Z</time>
      </trkpt>
      <trkpt lat="42.51450042240321636199951171875" lon="-0.2404166199266910552978515625">
        <ele>1438.5999755859375</ele>
        <time>2020-08-18T09:36:59.000Z</time>
      </trkpt>
      <trkpt lat="42.51448282040655612945556640625" lon="-0.24046012200415134429931640625">
        <ele>1438.4000244140625</ele>
        <time>2020-08-18T09:37:01.000Z</time>
      </trkpt>
      <trkpt lat="42.51445926725864410400390625" lon="-0.24049599654972553253173828125">
        <ele>1438.5999755859375</ele>
        <time>2020-08-18T09:37:03.000Z</time>
      </trkpt>
      <trkpt lat="42.5144290924072265625" lon="-0.2405560947954654693603515625">
        <ele>1438.800048828125</ele>
        <time>2020-08-18T09:37:06.000Z</time>
      </trkpt>
      <trkpt lat="42.51440922729671001434326171875" lon="-0.24059724994003772735595703125">
        <ele>1438.800048828125</ele>
        <time>2020-08-18T09:37:08.000Z</time>
      </trkpt>
      <trkpt lat="42.51436128281056880950927734375" lon="-0.24068207480013370513916015625">
        <ele>1439.199951171875</ele>
        <time>2020-08-18T09:37:12.000Z</time>
      </trkpt>
      <trkpt lat="42.514327503740787506103515625" lon="-0.24074108339846134185791015625">
        <ele>1439.5999755859375</ele>
        <time>2020-08-18T09:37:15.000Z</time>
      </trkpt>
      <trkpt lat="42.514278553426265716552734375" lon="-0.24081098847091197967529296875">
        <ele>1440.199951171875</ele>
        <time>2020-08-18T09:37:19.000Z</time>
      </trkpt>
      <trkpt lat="42.5142220593988895416259765625" lon="-0.24086765013635158538818359375">
        <ele>1439.800048828125</ele>
        <time>2020-08-18T09:37:24.000Z</time>
      </trkpt>
      <trkpt lat="42.51413212157785892486572265625" lon="-0.2409441769123077392578125">
        <ele>1440</ele>
        <time>2020-08-18T09:37:29.000Z</time>
      </trkpt>
      <trkpt lat="42.51401133835315704345703125" lon="-0.24103470146656036376953125">
        <ele>1440.4000244140625</ele>
        <time>2020-08-18T09:37:35.000Z</time>
      </trkpt>
      <trkpt lat="42.5139744579792022705078125" lon="-0.241061858832836151123046875">
        <ele>1440.800048828125</ele>
        <time>2020-08-18T09:37:37.000Z</time>
      </trkpt>
      <trkpt lat="42.51383288763463497161865234375" lon="-0.2411641180515289306640625">
        <ele>1440.5999755859375</ele>
        <time>2020-08-18T09:37:45.000Z</time>
      </trkpt>
      <trkpt lat="42.5137167982757091522216796875" lon="-0.24124659597873687744140625">
        <ele>1441</ele>
        <time>2020-08-18T09:37:52.000Z</time>
      </trkpt>
      <trkpt lat="42.51358612440526485443115234375" lon="-0.2413304150104522705078125">
        <ele>1441.199951171875</ele>
        <time>2020-08-18T09:38:00.000Z</time>
      </trkpt>
      <trkpt lat="42.51356877386569976806640625" lon="-0.24134022183716297149658203125">
        <ele>1441.4000244140625</ele>
        <time>2020-08-18T09:38:01.000Z</time>
      </trkpt>
      <trkpt lat="42.5134648382663726806640625" lon="-0.2414214424788951873779296875">
        <ele>1441.199951171875</ele>
        <time>2020-08-18T09:38:08.000Z</time>
      </trkpt>
      <trkpt lat="42.51334774307906627655029296875" lon="-0.241497047245502471923828125">
        <ele>1441.199951171875</ele>
        <time>2020-08-18T09:38:14.000Z</time>
      </trkpt>
      <trkpt lat="42.51321162097156047821044921875" lon="-0.24156167171895503997802734375">
        <ele>1442</ele>
        <time>2020-08-18T09:38:21.000Z</time>
      </trkpt>
      <trkpt lat="42.513096034526824951171875" lon="-0.24161950685083866119384765625">
        <ele>1442</ele>
        <time>2020-08-18T09:38:27.000Z</time>
      </trkpt>
      <trkpt lat="42.51296653412282466888427734375" lon="-0.24168086238205432891845703125">
        <ele>1442</ele>
        <time>2020-08-18T09:38:34.000Z</time>
      </trkpt>
      <trkpt lat="42.51284667290747165679931640625" lon="-0.2417285554111003875732421875">
        <ele>1442</ele>
        <time>2020-08-18T09:38:40.000Z</time>
      </trkpt>
      <trkpt lat="42.51270376145839691162109375" lon="-0.2417905814945697784423828125">
        <ele>1442.5999755859375</ele>
        <time>2020-08-18T09:38:48.000Z</time>
      </trkpt>
      <trkpt lat="42.51260728575289249420166015625" lon="-0.24181614629924297332763671875">
        <ele>1442.800048828125</ele>
        <time>2020-08-18T09:38:54.000Z</time>
      </trkpt>
      <trkpt lat="42.5125986523926258087158203125" lon="-0.24182100780308246612548828125">
        <ele>1442.800048828125</ele>
        <time>2020-08-18T09:39:00.000Z</time>
      </trkpt>
      <trkpt lat="42.5125688128173351287841796875" lon="-0.24184531532227993011474609375">
        <ele>1443</ele>
        <time>2020-08-18T09:39:07.000Z</time>
      </trkpt>
      <trkpt lat="42.51254408620297908782958984375" lon="-0.24184766225516796112060546875">
        <ele>1443</ele>
        <time>2020-08-18T09:39:15.000Z</time>
      </trkpt>
      <trkpt lat="42.51244551502168178558349609375" lon="-0.24186593480408191680908203125">
        <ele>1443.199951171875</ele>
        <time>2020-08-18T09:39:21.000Z</time>
      </trkpt>
      <trkpt lat="42.51234744675457477569580078125" lon="-0.2418542839586734771728515625">
        <ele>1444</ele>
        <time>2020-08-18T09:39:27.000Z</time>
      </trkpt>
      <trkpt lat="42.51222892664372920989990234375" lon="-0.24189258925616741180419921875">
        <ele>1443.800048828125</ele>
        <time>2020-08-18T09:39:33.000Z</time>
      </trkpt>
      <trkpt lat="42.512116022408008575439453125" lon="-0.2419580519199371337890625">
        <ele>1444.4000244140625</ele>
        <time>2020-08-18T09:39:39.000Z</time>
      </trkpt>
      <trkpt lat="42.51204335130751132965087890625" lon="-0.24201429449021816253662109375">
        <ele>1444.5999755859375</ele>
        <time>2020-08-18T09:39:43.000Z</time>
      </trkpt>
      <trkpt lat="42.51202725805342197418212890625" lon="-0.24203357286751270294189453125">
        <ele>1444.5999755859375</ele>
        <time>2020-08-18T09:39:44.000Z</time>
      </trkpt>
      <trkpt lat="42.51198216341435909271240234375" lon="-0.242087133228778839111328125">
        <ele>1445</ele>
        <time>2020-08-18T09:39:47.000Z</time>
      </trkpt>
      <trkpt lat="42.511918880045413970947265625" lon="-0.24214672856032848358154296875">
        <ele>1445.4000244140625</ele>
        <time>2020-08-18T09:39:51.000Z</time>
      </trkpt>
      <trkpt lat="42.511825673282146453857421875" lon="-0.24221663363277912139892578125">
        <ele>1446</ele>
        <time>2020-08-18T09:39:57.000Z</time>
      </trkpt>
      <trkpt lat="42.51172450371086597442626953125" lon="-0.2422646619379520416259765625">
        <ele>1446.199951171875</ele>
        <time>2020-08-18T09:40:02.000Z</time>
      </trkpt>
      <trkpt lat="42.51168242655694484710693359375" lon="-0.242280922830104827880859375">
        <ele>1446.4000244140625</ele>
        <time>2020-08-18T09:40:04.000Z</time>
      </trkpt>
      <trkpt lat="42.51162291504442691802978515625" lon="-0.2423152886331081390380859375">
        <ele>1446.800048828125</ele>
        <time>2020-08-18T09:40:08.000Z</time>
      </trkpt>
      <trkpt lat="42.51160883344709873199462890625" lon="-0.24234973825514316558837890625">
        <ele>1447</ele>
        <time>2020-08-18T09:40:10.000Z</time>
      </trkpt>
      <trkpt lat="42.51156784594058990478515625" lon="-0.24244328029453754425048828125">
        <ele>1447.199951171875</ele>
        <time>2020-08-18T09:40:15.000Z</time>
      </trkpt>
      <trkpt lat="42.51151110045611858367919921875" lon="-0.24251050315797328948974609375">
        <ele>1448.199951171875</ele>
        <time>2020-08-18T09:40:19.000Z</time>
      </trkpt>
      <trkpt lat="42.51149534247815608978271484375" lon="-0.2425218187272548675537109375">
        <ele>1448.4000244140625</ele>
        <time>2020-08-18T09:40:20.000Z</time>
      </trkpt>
      <trkpt lat="42.5114761479198932647705078125" lon="-0.24253196083009243011474609375">
        <ele>1448.5999755859375</ele>
        <time>2020-08-18T09:40:21.000Z</time>
      </trkpt>
      <trkpt lat="42.51138486899435520172119140625" lon="-0.2425395883619785308837890625">
        <ele>1449.199951171875</ele>
        <time>2020-08-18T09:40:26.000Z</time>
      </trkpt>
      <trkpt lat="42.51124790869653224945068359375" lon="-0.24254268966615200042724609375">
        <ele>1449.4000244140625</ele>
        <time>2020-08-18T09:40:33.000Z</time>
      </trkpt>
      <trkpt lat="42.51122913323342800140380859375" lon="-0.2425412647426128387451171875">
        <ele>1449.5999755859375</ele>
        <time>2020-08-18T09:40:34.000Z</time>
      </trkpt>
      <trkpt lat="42.51112352125346660614013671875" lon="-0.24251519702374935150146484375">
        <ele>1449.800048828125</ele>
        <time>2020-08-18T09:40:40.000Z</time>
      </trkpt>
      <trkpt lat="42.51104079186916351318359375" lon="-0.24246742017567157745361328125">
        <ele>1450.4000244140625</ele>
        <time>2020-08-18T09:40:45.000Z</time>
      </trkpt>
      <trkpt lat="42.511009275913238525390625" lon="-0.2424504049122333526611328125">
        <ele>1450.4000244140625</ele>
        <time>2020-08-18T09:40:47.000Z</time>
      </trkpt>
      <trkpt lat="42.51091472804546356201171875" lon="-0.2423823438584804534912109375">
        <ele>1450.800048828125</ele>
        <time>2020-08-18T09:40:53.000Z</time>
      </trkpt>
      <trkpt lat="42.5108381174504756927490234375" lon="-0.242343284189701080322265625">
        <ele>1451.4000244140625</ele>
        <time>2020-08-18T09:40:57.000Z</time>
      </trkpt>
      <trkpt lat="42.51073300838470458984375" lon="-0.2422827668488025665283203125">
        <ele>1452</ele>
        <time>2020-08-18T09:41:03.000Z</time>
      </trkpt>
      <trkpt lat="42.51071532256901264190673828125" lon="-0.2422717027366161346435546875">
        <ele>1452.199951171875</ele>
        <time>2020-08-18T09:41:04.000Z</time>
      </trkpt>
      <trkpt lat="42.510591186583042144775390625" lon="-0.24217128753662109375">
        <ele>1453.199951171875</ele>
        <time>2020-08-18T09:41:12.000Z</time>
      </trkpt>
      <trkpt lat="42.51057769171893596649169921875" lon="-0.24215318262577056884765625">
        <ele>1453.5999755859375</ele>
        <time>2020-08-18T09:41:13.000Z</time>
      </trkpt>
      <trkpt lat="42.5104580819606781005859375" lon="-0.24203139357268810272216796875">
        <ele>1454.4000244140625</ele>
        <time>2020-08-18T09:41:21.000Z</time>
      </trkpt>
      <trkpt lat="42.51030779443681240081787109375" lon="-0.2419481612741947174072265625">
        <ele>1455.4000244140625</ele>
        <time>2020-08-18T09:41:30.000Z</time>
      </trkpt>
      <trkpt lat="42.51029170118272304534912109375" lon="-0.24193868972361087799072265625">
        <ele>1455.5999755859375</ele>
        <time>2020-08-18T09:41:31.000Z</time>
      </trkpt>
      <trkpt lat="42.5101742707192897796630859375" lon="-0.24183693341910839080810546875">
        <ele>1456.4000244140625</ele>
        <time>2020-08-18T09:41:39.000Z</time>
      </trkpt>
      <trkpt lat="42.5101598538458347320556640625" lon="-0.24182016961276531219482421875">
        <ele>1456.4000244140625</ele>
        <time>2020-08-18T09:41:40.000Z</time>
      </trkpt>
      <trkpt lat="42.51007519662380218505859375" lon="-0.24171556346118450164794921875">
        <ele>1457</ele>
        <time>2020-08-18T09:41:46.000Z</time>
      </trkpt>
      <trkpt lat="42.50997737981379032135009765625" lon="-0.2416095323860645294189453125">
        <ele>1457.5999755859375</ele>
        <time>2020-08-18T09:41:53.000Z</time>
      </trkpt>
      <trkpt lat="42.50985852442681789398193359375" lon="-0.24159302003681659698486328125">
        <ele>1458</ele>
        <time>2020-08-18T09:41:59.000Z</time>
      </trkpt>
      <trkpt lat="42.50977906398475170135498046875" lon="-0.24165504612028598785400390625">
        <ele>1458.4000244140625</ele>
        <time>2020-08-18T09:42:04.000Z</time>
      </trkpt>
      <trkpt lat="42.50974788330495357513427734375" lon="-0.241755209863185882568359375">
        <ele>1458.800048828125</ele>
        <time>2020-08-18T09:42:10.000Z</time>
      </trkpt>
      <trkpt lat="42.5097280181944370269775390625" lon="-0.24184196256101131439208984375">
        <ele>1459.199951171875</ele>
        <time>2020-08-18T09:42:17.000Z</time>
      </trkpt>
      <trkpt lat="42.50973028130829334259033203125" lon="-0.24188135750591754913330078125">
        <ele>1459.199951171875</ele>
        <time>2020-08-18T09:42:20.000Z</time>
      </trkpt>
      <trkpt lat="42.50972961075603961944580078125" lon="-0.2419263683259487152099609375">
        <ele>1459.5999755859375</ele>
        <time>2020-08-18T09:42:22.000Z</time>
      </trkpt>
      <trkpt lat="42.50975442118942737579345703125" lon="-0.24210917763411998748779296875">
        <ele>1459.199951171875</ele>
        <time>2020-08-18T09:42:29.000Z</time>
      </trkpt>
      <trkpt lat="42.50978308729827404022216796875" lon="-0.24222786538302898406982421875">
        <ele>1459.800048828125</ele>
        <time>2020-08-18T09:42:34.000Z</time>
      </trkpt>
      <trkpt lat="42.509824745357036590576171875" lon="-0.2423711121082305908203125">
        <ele>1460.5999755859375</ele>
        <time>2020-08-18T09:42:40.000Z</time>
      </trkpt>
      <trkpt lat="42.50985659658908843994140625" lon="-0.2424607984721660614013671875">
        <ele>1460.800048828125</ele>
        <time>2020-08-18T09:42:44.000Z</time>
      </trkpt>
      <trkpt lat="42.50986397266387939453125" lon="-0.242506228387355804443359375">
        <ele>1460.800048828125</ele>
        <time>2020-08-18T09:42:46.000Z</time>
      </trkpt>
      <trkpt lat="42.50986740924417972564697265625" lon="-0.2425291948020458221435546875">
        <ele>1461</ele>
        <time>2020-08-18T09:42:47.000Z</time>
      </trkpt>
      <trkpt lat="42.509877383708953857421875" lon="-0.2425751276314258575439453125">
        <ele>1461.4000244140625</ele>
        <time>2020-08-18T09:42:49.000Z</time>
      </trkpt>
      <trkpt lat="42.50988601706922054290771484375" lon="-0.24262499995529651641845703125">
        <ele>1461.4000244140625</ele>
        <time>2020-08-18T09:42:51.000Z</time>
      </trkpt>
      <trkpt lat="42.5099124200642108917236328125" lon="-0.2427431009709835052490234375">
        <ele>1462</ele>
        <time>2020-08-18T09:42:56.000Z</time>
      </trkpt>
      <trkpt lat="42.5099258311092853546142578125" lon="-0.24280303157866001129150390625">
        <ele>1462.199951171875</ele>
        <time>2020-08-18T09:42:59.000Z</time>
      </trkpt>
      <trkpt lat="42.50993630848824977874755859375" lon="-0.24286874569952487945556640625">
        <ele>1462.4000244140625</ele>
        <time>2020-08-18T09:43:02.000Z</time>
      </trkpt>
      <trkpt lat="42.50994980335235595703125" lon="-0.24293982423841953277587890625">
        <ele>1462.5999755859375</ele>
        <time>2020-08-18T09:43:05.000Z</time>
      </trkpt>
      <trkpt lat="42.50996262766420841217041015625" lon="-0.24300285615026950836181640625">
        <ele>1463.199951171875</ele>
        <time>2020-08-18T09:43:08.000Z</time>
      </trkpt>
      <trkpt lat="42.50996480695903301239013671875" lon="-0.24302758276462554931640625">
        <ele>1463.4000244140625</ele>
        <time>2020-08-18T09:43:09.000Z</time>
      </trkpt>
      <trkpt lat="42.50998802483081817626953125" lon="-0.243149958550930023193359375">
        <ele>1463.5999755859375</ele>
        <time>2020-08-18T09:43:13.000Z</time>
      </trkpt>
      <trkpt lat="42.510022558271884918212890625" lon="-0.2433989010751247406005859375">
        <ele>1464</ele>
        <time>2020-08-18T09:43:20.000Z</time>
      </trkpt>
      <trkpt lat="42.510027922689914703369140625" lon="-0.24346218444406986236572265625">
        <ele>1464.4000244140625</ele>
        <time>2020-08-18T09:43:22.000Z</time>
      </trkpt>
      <trkpt lat="42.5100374780595302581787109375" lon="-0.2436597459018230438232421875">
        <ele>1465</ele>
        <time>2020-08-18T09:43:29.000Z</time>
      </trkpt>
      <trkpt lat="42.510033287107944488525390625" lon="-0.24367843754589557647705078125">
        <ele>1465.199951171875</ele>
        <time>2020-08-18T09:43:30.000Z</time>
      </trkpt>
      <trkpt lat="42.51001576893031597137451171875" lon="-0.243709199130535125732421875">
        <ele>1465.5999755859375</ele>
        <time>2020-08-18T09:43:32.000Z</time>
      </trkpt>
      <trkpt lat="42.5100076384842395782470703125" lon="-0.24372705258429050445556640625">
        <ele>1465.5999755859375</ele>
        <time>2020-08-18T09:43:33.000Z</time>
      </trkpt>
      <trkpt lat="42.50997000373899936676025390625" lon="-0.243867449462413787841796875">
        <ele>1466.4000244140625</ele>
        <time>2020-08-18T09:43:39.000Z</time>
      </trkpt>
      <trkpt lat="42.50994787551462650299072265625" lon="-0.243922770023345947265625">
        <ele>1466.5999755859375</ele>
        <time>2020-08-18T09:43:42.000Z</time>
      </trkpt>
      <trkpt lat="42.5099311955273151397705078125" lon="-0.24396342225372791290283203125">
        <ele>1466.5999755859375</ele>
        <time>2020-08-18T09:43:44.000Z</time>
      </trkpt>
      <trkpt lat="42.5098760426044464111328125" lon="-0.24407037533819675445556640625">
        <ele>1467.5999755859375</ele>
        <time>2020-08-18T09:43:50.000Z</time>
      </trkpt>
      <trkpt lat="42.5098671577870845794677734375" lon="-0.244089066982269287109375">
        <ele>1468</ele>
        <time>2020-08-18T09:43:51.000Z</time>
      </trkpt>
      <trkpt lat="42.509809322655200958251953125" lon="-0.24417749606072902679443359375">
        <ele>1468.4000244140625</ele>
        <time>2020-08-18T09:43:57.000Z</time>
      </trkpt>
      <trkpt lat="42.50978543423116207122802734375" lon="-0.2441995404660701751708984375">
        <ele>1468.800048828125</ele>
        <time>2020-08-18T09:43:59.000Z</time>
      </trkpt>
      <trkpt lat="42.50975190661847591400146484375" lon="-0.24423952214419841766357421875">
        <ele>1469.4000244140625</ele>
        <time>2020-08-18T09:44:02.000Z</time>
      </trkpt>
      <trkpt lat="42.50969373621046543121337890625" lon="-0.2442746423184871673583984375">
        <ele>1470</ele>
        <time>2020-08-18T09:44:06.000Z</time>
      </trkpt>
      <trkpt lat="42.50966222025454044342041015625" lon="-0.2442843653261661529541015625">
        <ele>1470.4000244140625</ele>
        <time>2020-08-18T09:44:08.000Z</time>
      </trkpt>
      <trkpt lat="42.50961947254836559295654296875" lon="-0.24431076832115650177001953125">
        <ele>1470.800048828125</ele>
        <time>2020-08-18T09:44:11.000Z</time>
      </trkpt>
      <trkpt lat="42.50960589386522769927978515625" lon="-0.24431697092950344085693359375">
        <ele>1471</ele>
        <time>2020-08-18T09:44:12.000Z</time>
      </trkpt>
      <trkpt lat="42.50957370735704898834228515625" lon="-0.24432015605270862579345703125">
        <ele>1471.5999755859375</ele>
        <time>2020-08-18T09:44:14.000Z</time>
      </trkpt>
      <trkpt lat="42.509476728737354278564453125" lon="-0.2443487383425235748291015625">
        <ele>1472</ele>
        <time>2020-08-18T09:44:20.000Z</time>
      </trkpt>
      <trkpt lat="42.5094594620168209075927734375" lon="-0.24435183964669704437255859375">
        <ele>1472.199951171875</ele>
        <time>2020-08-18T09:44:21.000Z</time>
      </trkpt>
      <trkpt lat="42.5093883834779262542724609375" lon="-0.24437648244202136993408203125">
        <ele>1473.199951171875</ele>
        <time>2020-08-18T09:44:25.000Z</time>
      </trkpt>
      <trkpt lat="42.50937245786190032958984375" lon="-0.2443782426416873931884765625">
        <ele>1473.4000244140625</ele>
        <time>2020-08-18T09:44:26.000Z</time>
      </trkpt>
      <trkpt lat="42.50928805209696292877197265625" lon="-0.24439106695353984832763671875">
        <ele>1474.199951171875</ele>
        <time>2020-08-18T09:44:30.000Z</time>
      </trkpt>
      <trkpt lat="42.509182356297969818115234375" lon="-0.24441897869110107421875">
        <ele>1474.5999755859375</ele>
        <time>2020-08-18T09:44:35.000Z</time>
      </trkpt>
      <trkpt lat="42.509144134819507598876953125" lon="-0.24443264119327068328857421875">
        <ele>1475</ele>
        <time>2020-08-18T09:44:37.000Z</time>
      </trkpt>
      <trkpt lat="42.50905620865523815155029296875" lon="-0.24446683935821056365966796875">
        <ele>1475.5999755859375</ele>
        <time>2020-08-18T09:44:43.000Z</time>
      </trkpt>
      <trkpt lat="42.5090467371046543121337890625" lon="-0.244480334222316741943359375">
        <ele>1475.800048828125</ele>
        <time>2020-08-18T09:44:44.000Z</time>
      </trkpt>
      <trkpt lat="42.5090168975293636322021484375" lon="-0.24452467449009418487548828125">
        <ele>1476.4000244140625</ele>
        <time>2020-08-18T09:44:46.000Z</time>
      </trkpt>
      <trkpt lat="42.50899317674338817596435546875" lon="-0.24459927342832088470458984375">
        <ele>1476.5999755859375</ele>
        <time>2020-08-18T09:44:49.000Z</time>
      </trkpt>
      <trkpt lat="42.50898211263120174407958984375" lon="-0.244623832404613494873046875">
        <ele>1476.800048828125</ele>
        <time>2020-08-18T09:44:50.000Z</time>
      </trkpt>
      <trkpt lat="42.50894707627594470977783203125" lon="-0.24473791010677814483642578125">
        <ele>1478</ele>
        <time>2020-08-18T09:44:55.000Z</time>
      </trkpt>
      <trkpt lat="42.5089438073337078094482421875" lon="-0.24476003833115100860595703125">
        <ele>1478</ele>
        <time>2020-08-18T09:44:56.000Z</time>
      </trkpt>
      <trkpt lat="42.5089143030345439910888671875" lon="-0.244912840425968170166015625">
        <ele>1479</ele>
        <time>2020-08-18T09:45:03.000Z</time>
      </trkpt>
      <trkpt lat="42.5088911689817905426025390625" lon="-0.2450568415224552154541015625">
        <ele>1479.4000244140625</ele>
        <time>2020-08-18T09:45:10.000Z</time>
      </trkpt>
      <trkpt lat="42.5088556297123432159423828125" lon="-0.245189778506755828857421875">
        <ele>1480</ele>
        <time>2020-08-18T09:45:17.000Z</time>
      </trkpt>
      <trkpt lat="42.5088465772569179534912109375" lon="-0.2452077157795429229736328125">
        <ele>1480</ele>
        <time>2020-08-18T09:45:18.000Z</time>
      </trkpt>
      <trkpt lat="42.50881833024322986602783203125" lon="-0.24528005160391330718994140625">
        <ele>1480.4000244140625</ele>
        <time>2020-08-18T09:45:22.000Z</time>
      </trkpt>
      <trkpt lat="42.508802823722362518310546875" lon="-0.2453148365020751953125">
        <ele>1480.4000244140625</ele>
        <time>2020-08-18T09:45:24.000Z</time>
      </trkpt>
      <trkpt lat="42.5087563879787921905517578125" lon="-0.24537853896617889404296875">
        <ele>1480.5999755859375</ele>
        <time>2020-08-18T09:45:28.000Z</time>
      </trkpt>
      <trkpt lat="42.508700899779796600341796875" lon="-0.24545690976083278656005859375">
        <ele>1481</ele>
        <time>2020-08-18T09:45:33.000Z</time>
      </trkpt>
      <trkpt lat="42.508609704673290252685546875" lon="-0.24551273323595523834228515625">
        <ele>1481</ele>
        <time>2020-08-18T09:45:39.000Z</time>
      </trkpt>
      <trkpt lat="42.5085944496095180511474609375" lon="-0.245516002178192138671875">
        <ele>1481.199951171875</ele>
        <time>2020-08-18T09:45:40.000Z</time>
      </trkpt>
      <trkpt lat="42.50853099860250949859619140625" lon="-0.24552061222493648529052734375">
        <ele>1481.5999755859375</ele>
        <time>2020-08-18T09:45:44.000Z</time>
      </trkpt>
      <trkpt lat="42.508417256176471710205078125" lon="-0.24550384841859340667724609375">
        <ele>1482.199951171875</ele>
        <time>2020-08-18T09:45:51.000Z</time>
      </trkpt>
      <trkpt lat="42.508401162922382354736328125" lon="-0.24550284259021282196044921875">
        <ele>1482.199951171875</ele>
        <time>2020-08-18T09:45:52.000Z</time>
      </trkpt>
      <trkpt lat="42.50832295976579189300537109375" lon="-0.245505273342132568359375">
        <ele>1483</ele>
        <time>2020-08-18T09:45:57.000Z</time>
      </trkpt>
      <trkpt lat="42.50829077325761318206787109375" lon="-0.2455238811671733856201171875">
        <ele>1483.199951171875</ele>
        <time>2020-08-18T09:45:59.000Z</time>
      </trkpt>
      <trkpt lat="42.50826713629066944122314453125" lon="-0.245563946664333343505859375">
        <ele>1483.5999755859375</ele>
        <time>2020-08-18T09:46:01.000Z</time>
      </trkpt>
      <trkpt lat="42.50825020484626293182373046875" lon="-0.24565069936215877532958984375">
        <ele>1484.4000244140625</ele>
        <time>2020-08-18T09:46:05.000Z</time>
      </trkpt>
      <trkpt lat="42.5082548148930072784423828125" lon="-0.24567089974880218505859375">
        <ele>1484.4000244140625</ele>
        <time>2020-08-18T09:46:06.000Z</time>
      </trkpt>
      <trkpt lat="42.50826361589133739471435546875" lon="-0.24570710957050323486328125">
        <ele>1484.5999755859375</ele>
        <time>2020-08-18T09:46:08.000Z</time>
      </trkpt>
      <trkpt lat="42.50828926451504230499267578125" lon="-0.2457515336573123931884765625">
        <ele>1485</ele>
        <time>2020-08-18T09:46:12.000Z</time>
      </trkpt>
      <trkpt lat="42.5083272345364093780517578125" lon="-0.245824791491031646728515625">
        <ele>1485.199951171875</ele>
        <time>2020-08-18T09:46:16.000Z</time>
      </trkpt>
      <trkpt lat="42.508337460458278656005859375" lon="-0.24583761580288410186767578125">
        <ele>1485.4000244140625</ele>
        <time>2020-08-18T09:46:17.000Z</time>
      </trkpt>
      <trkpt lat="42.50838917680084705352783203125" lon="-0.2459158189594745635986328125">
        <ele>1485.4000244140625</ele>
        <time>2020-08-18T09:46:22.000Z</time>
      </trkpt>
      <trkpt lat="42.508395798504352569580078125" lon="-0.24593048729002475738525390625">
        <ele>1485.4000244140625</ele>
        <time>2020-08-18T09:46:23.000Z</time>
      </trkpt>
      <trkpt lat="42.50848439522087574005126953125" lon="-0.24601128883659839630126953125">
        <ele>1486.4000244140625</ele>
        <time>2020-08-18T09:46:31.000Z</time>
      </trkpt>
      <trkpt lat="42.5084960460662841796875" lon="-0.246022604405879974365234375">
        <ele>1486.4000244140625</ele>
        <time>2020-08-18T09:46:32.000Z</time>
      </trkpt>
      <trkpt lat="42.50856536440551280975341796875" lon="-0.24607457220554351806640625">
        <ele>1486.800048828125</ele>
        <time>2020-08-18T09:46:37.000Z</time>
      </trkpt>
      <trkpt lat="42.50858095474541187286376953125" lon="-0.2460851334035396575927734375">
        <ele>1487</ele>
        <time>2020-08-18T09:46:38.000Z</time>
      </trkpt>
      <trkpt lat="42.508637867867946624755859375" lon="-0.24613467045128345489501953125">
        <ele>1487.4000244140625</ele>
        <time>2020-08-18T09:46:42.000Z</time>
      </trkpt>
      <trkpt lat="42.50864683650434017181396484375" lon="-0.2461488358676433563232421875">
        <ele>1487.5999755859375</ele>
        <time>2020-08-18T09:46:43.000Z</time>
      </trkpt>
      <trkpt lat="42.508724369108676910400390625" lon="-0.24619334377348423004150390625">
        <ele>1487.5999755859375</ele>
        <time>2020-08-18T09:46:48.000Z</time>
      </trkpt>
      <trkpt lat="42.5088046677410602569580078125" lon="-0.246228463947772979736328125">
        <ele>1488.800048828125</ele>
        <time>2020-08-18T09:46:54.000Z</time>
      </trkpt>
      <trkpt lat="42.508918829262256622314453125" lon="-0.2462790906429290771484375">
        <ele>1489.5999755859375</ele>
        <time>2020-08-18T09:47:00.000Z</time>
      </trkpt>
      <trkpt lat="42.5089666061103343963623046875" lon="-0.2463094331324100494384765625">
        <ele>1489.800048828125</ele>
        <time>2020-08-18T09:47:03.000Z</time>
      </trkpt>
      <trkpt lat="42.509021759033203125" lon="-0.2463546954095363616943359375">
        <ele>1490.4000244140625</ele>
        <time>2020-08-18T09:47:07.000Z</time>
      </trkpt>
      <trkpt lat="42.50904749147593975067138671875" lon="-0.24637606926262378692626953125">
        <ele>1490.800048828125</ele>
        <time>2020-08-18T09:47:09.000Z</time>
      </trkpt>
      <trkpt lat="42.50906039960682392120361328125" lon="-0.24638646282255649566650390625">
        <ele>1490.800048828125</ele>
        <time>2020-08-18T09:47:10.000Z</time>
      </trkpt>
      <trkpt lat="42.5090759061276912689208984375" lon="-0.24639518000185489654541015625">
        <ele>1491</ele>
        <time>2020-08-18T09:47:11.000Z</time>
      </trkpt>
      <trkpt lat="42.50912963412702083587646484375" lon="-0.246429629623889923095703125">
        <ele>1491.199951171875</ele>
        <time>2020-08-18T09:47:15.000Z</time>
      </trkpt>
      <trkpt lat="42.50914254225790500640869140625" lon="-0.246434323489665985107421875">
        <ele>1491.4000244140625</ele>
        <time>2020-08-18T09:47:16.000Z</time>
      </trkpt>
      <trkpt lat="42.50915586948394775390625" lon="-0.246441364288330078125">
        <ele>1491.5999755859375</ele>
        <time>2020-08-18T09:47:17.000Z</time>
      </trkpt>
      <trkpt lat="42.5091947615146636962890625" lon="-0.2464775741100311279296875">
        <ele>1491.800048828125</ele>
        <time>2020-08-18T09:47:20.000Z</time>
      </trkpt>
      <trkpt lat="42.50923239625990390777587890625" lon="-0.246517471969127655029296875">
        <ele>1492</ele>
        <time>2020-08-18T09:47:23.000Z</time>
      </trkpt>
      <trkpt lat="42.5092913210391998291015625" lon="-0.246599279344081878662109375">
        <ele>1492.5999755859375</ele>
        <time>2020-08-18T09:47:28.000Z</time>
      </trkpt>
      <trkpt lat="42.509370110929012298583984375" lon="-0.2467312105000019073486328125">
        <ele>1493</ele>
        <time>2020-08-18T09:47:34.000Z</time>
      </trkpt>
      <trkpt lat="42.50942450948059558868408203125" lon="-0.24679499678313732147216796875">
        <ele>1493.800048828125</ele>
        <time>2020-08-18T09:47:38.000Z</time>
      </trkpt>
      <trkpt lat="42.50943942926824092864990234375" lon="-0.24680991657078266143798828125">
        <ele>1493.800048828125</ele>
        <time>2020-08-18T09:47:39.000Z</time>
      </trkpt>
      <trkpt lat="42.50957094132900238037109375" lon="-0.24690739810466766357421875">
        <ele>1494.800048828125</ele>
        <time>2020-08-18T09:47:47.000Z</time>
      </trkpt>
      <trkpt lat="42.5096958316862583160400390625" lon="-0.24694721214473247528076171875">
        <ele>1495</ele>
        <time>2020-08-18T09:47:54.000Z</time>
      </trkpt>
      <trkpt lat="42.50975509174168109893798828125" lon="-0.24698040448129177093505859375">
        <ele>1495.5999755859375</ele>
        <time>2020-08-18T09:47:57.000Z</time>
      </trkpt>
      <trkpt lat="42.50981912948191165924072265625" lon="-0.247038491070270538330078125">
        <ele>1496</ele>
        <time>2020-08-18T09:48:01.000Z</time>
      </trkpt>
      <trkpt lat="42.50989389605820178985595703125" lon="-0.24713362567126750946044921875">
        <ele>1496.5999755859375</ele>
        <time>2020-08-18T09:48:07.000Z</time>
      </trkpt>
      <trkpt lat="42.50990487635135650634765625" lon="-0.24715240113437175750732421875">
        <ele>1496.5999755859375</ele>
        <time>2020-08-18T09:48:08.000Z</time>
      </trkpt>
      <trkpt lat="42.509986348450183868408203125" lon="-0.24728684686124324798583984375">
        <ele>1497.5999755859375</ele>
        <time>2020-08-18T09:48:16.000Z</time>
      </trkpt>
      <trkpt lat="42.5100166909396648406982421875" lon="-0.24736379273235797882080078125">
        <ele>1498.800048828125</ele>
        <time>2020-08-18T09:48:20.000Z</time>
      </trkpt>
      <trkpt lat="42.51003974117338657379150390625" lon="-0.2474235557019710540771484375">
        <ele>1499</ele>
        <time>2020-08-18T09:48:23.000Z</time>
      </trkpt>
      <trkpt lat="42.5100986659526824951171875" lon="-0.2475663833320140838623046875">
        <ele>1499.800048828125</ele>
        <time>2020-08-18T09:48:30.000Z</time>
      </trkpt>
      <trkpt lat="42.5101075507700443267822265625" lon="-0.24758188985288143157958984375">
        <ele>1500</ele>
        <time>2020-08-18T09:48:31.000Z</time>
      </trkpt>
      <trkpt lat="42.5101400725543498992919921875" lon="-0.2476545609533786773681640625">
        <ele>1500.800048828125</ele>
        <time>2020-08-18T09:48:35.000Z</time>
      </trkpt>
      <trkpt lat="42.5101534835994243621826171875" lon="-0.24769739247858524322509765625">
        <ele>1501.800048828125</ele>
        <time>2020-08-18T09:48:37.000Z</time>
      </trkpt>
      <trkpt lat="42.51016194932162761688232421875" lon="-0.24771608412265777587890625">
        <ele>1502</ele>
        <time>2020-08-18T09:48:38.000Z</time>
      </trkpt>
      <trkpt lat="42.510187514126300811767578125" lon="-0.2477846480906009674072265625">
        <ele>1502.800048828125</ele>
        <time>2020-08-18T09:48:42.000Z</time>
      </trkpt>
      <trkpt lat="42.5102004222571849822998046875" lon="-0.2478118054568767547607421875">
        <ele>1502.800048828125</ele>
        <time>2020-08-18T09:48:44.000Z</time>
      </trkpt>
      <trkpt lat="42.5102140009403228759765625" lon="-0.247847847640514373779296875">
        <ele>1503.199951171875</ele>
        <time>2020-08-18T09:48:46.000Z</time>
      </trkpt>
      <trkpt lat="42.51022866927087306976318359375" lon="-0.2478822134435176849365234375">
        <ele>1503.4000244140625</ele>
        <time>2020-08-18T09:48:48.000Z</time>
      </trkpt>
      <trkpt lat="42.51025113277137279510498046875" lon="-0.247937701642513275146484375">
        <ele>1504.199951171875</ele>
        <time>2020-08-18T09:48:52.000Z</time>
      </trkpt>
      <trkpt lat="42.510257251560688018798828125" lon="-0.24795337580144405364990234375">
        <ele>1504.199951171875</ele>
        <time>2020-08-18T09:48:53.000Z</time>
      </trkpt>
      <trkpt lat="42.5102703273296356201171875" lon="-0.2479874901473522186279296875">
        <ele>1504.199951171875</ele>
        <time>2020-08-18T09:48:55.000Z</time>
      </trkpt>
      <trkpt lat="42.5102772004902362823486328125" lon="-0.248006097972393035888671875">
        <ele>1504.5999755859375</ele>
        <time>2020-08-18T09:48:56.000Z</time>
      </trkpt>
      <trkpt lat="42.5103132426738739013671875" lon="-0.2481212653219699859619140625">
        <ele>1505.199951171875</ele>
        <time>2020-08-18T09:49:02.000Z</time>
      </trkpt>
      <trkpt lat="42.5103201158344745635986328125" lon="-0.24814297445118427276611328125">
        <ele>1505.5999755859375</ele>
        <time>2020-08-18T09:49:03.000Z</time>
      </trkpt>
      <trkpt lat="42.51034601591527462005615234375" lon="-0.24822293780744075775146484375">
        <ele>1506.4000244140625</ele>
        <time>2020-08-18T09:49:07.000Z</time>
      </trkpt>
      <trkpt lat="42.51036546193063259124755859375" lon="-0.24827809073030948638916015625">
        <ele>1506.199951171875</ele>
        <time>2020-08-18T09:49:10.000Z</time>
      </trkpt>
      <trkpt lat="42.51039706170558929443359375" lon="-0.2484233491122722625732421875">
        <ele>1507</ele>
        <time>2020-08-18T09:49:17.000Z</time>
      </trkpt>
      <trkpt lat="42.5104098021984100341796875" lon="-0.24849392473697662353515625">
        <ele>1507.4000244140625</ele>
        <time>2020-08-18T09:49:20.000Z</time>
      </trkpt>
      <trkpt lat="42.51041709445416927337646484375" lon="-0.24858914315700531005859375">
        <ele>1508</ele>
        <time>2020-08-18T09:49:24.000Z</time>
      </trkpt>
      <trkpt lat="42.51041256822645664215087890625" lon="-0.24874965660274028778076171875">
        <ele>1508.4000244140625</ele>
        <time>2020-08-18T09:49:31.000Z</time>
      </trkpt>
      <trkpt lat="42.51041181385517120361328125" lon="-0.2487753890454769134521484375">
        <ele>1508.5999755859375</ele>
        <time>2020-08-18T09:49:32.000Z</time>
      </trkpt>
      <trkpt lat="42.5103915296494960784912109375" lon="-0.24891276843845844268798828125">
        <ele>1509.5999755859375</ele>
        <time>2020-08-18T09:49:38.000Z</time>
      </trkpt>
      <trkpt lat="42.51037803478538990020751953125" lon="-0.2490724436938762664794921875">
        <ele>1510.5999755859375</ele>
        <time>2020-08-18T09:49:45.000Z</time>
      </trkpt>
      <trkpt lat="42.5103600136935710906982421875" lon="-0.2492348849773406982421875">
        <ele>1511.4000244140625</ele>
        <time>2020-08-18T09:49:52.000Z</time>
      </trkpt>
      <trkpt lat="42.51036009751260280609130859375" lon="-0.24927914142608642578125">
        <ele>1511.800048828125</ele>
        <time>2020-08-18T09:49:54.000Z</time>
      </trkpt>
      <trkpt lat="42.510366551578044891357421875" lon="-0.2493517287075519561767578125">
        <ele>1512.199951171875</ele>
        <time>2020-08-18T09:49:57.000Z</time>
      </trkpt>
      <trkpt lat="42.51037971116602420806884765625" lon="-0.249440409243106842041015625">
        <ele>1513</ele>
        <time>2020-08-18T09:50:01.000Z</time>
      </trkpt>
      <trkpt lat="42.5103925354778766632080078125" lon="-0.249485671520233154296875">
        <ele>1513.199951171875</ele>
        <time>2020-08-18T09:50:03.000Z</time>
      </trkpt>
      <trkpt lat="42.51045447774231433868408203125" lon="-0.249593295156955718994140625">
        <ele>1513.800048828125</ele>
        <time>2020-08-18T09:50:09.000Z</time>
      </trkpt>
      <trkpt lat="42.5104683078825473785400390625" lon="-0.24960494600236415863037109375">
        <ele>1514</ele>
        <time>2020-08-18T09:50:10.000Z</time>
      </trkpt>
      <trkpt lat="42.51054382883012294769287109375" lon="-0.24963327683508396148681640625">
        <ele>1514.800048828125</ele>
        <time>2020-08-18T09:50:15.000Z</time>
      </trkpt>
      <trkpt lat="42.51057165674865245819091796875" lon="-0.249640904366970062255859375">
        <ele>1515.199951171875</ele>
        <time>2020-08-18T09:50:17.000Z</time>
      </trkpt>
      <trkpt lat="42.510602585971355438232421875" lon="-0.24964953772723674774169921875">
        <ele>1515.5999755859375</ele>
        <time>2020-08-18T09:50:19.000Z</time>
      </trkpt>
      <trkpt lat="42.5106319226324558258056640625" lon="-0.249647609889507293701171875">
        <ele>1516</ele>
        <time>2020-08-18T09:50:21.000Z</time>
      </trkpt>
      <trkpt lat="42.510662935674190521240234375" lon="-0.24964534677565097808837890625">
        <ele>1516.199951171875</ele>
        <time>2020-08-18T09:50:23.000Z</time>
      </trkpt>
      <trkpt lat="42.51077634282410144805908203125" lon="-0.2496390603482723236083984375">
        <ele>1517</ele>
        <time>2020-08-18T09:50:30.000Z</time>
      </trkpt>
      <trkpt lat="42.51085312105715274810791015625" lon="-0.2496373839676380157470703125">
        <ele>1517.4000244140625</ele>
        <time>2020-08-18T09:50:34.000Z</time>
      </trkpt>
      <trkpt lat="42.51090995036065578460693359375" lon="-0.24963495321571826934814453125">
        <ele>1518.199951171875</ele>
        <time>2020-08-18T09:50:37.000Z</time>
      </trkpt>
      <trkpt lat="42.5109489262104034423828125" lon="-0.2496372163295745849609375">
        <ele>1518.4000244140625</ele>
        <time>2020-08-18T09:50:39.000Z</time>
      </trkpt>
      <trkpt lat="42.511033751070499420166015625" lon="-0.24967703036963939666748046875">
        <ele>1519.199951171875</ele>
        <time>2020-08-18T09:50:44.000Z</time>
      </trkpt>
      <trkpt lat="42.51112637110054492950439453125" lon="-0.24970955215394496917724609375">
        <ele>1519.4000244140625</ele>
        <time>2020-08-18T09:50:49.000Z</time>
      </trkpt>
      <trkpt lat="42.51118152402341365814208984375" lon="-0.249730758368968963623046875">
        <ele>1520</ele>
        <time>2020-08-18T09:50:52.000Z</time>
      </trkpt>
      <trkpt lat="42.51127422787249088287353515625" lon="-0.2497852407395839691162109375">
        <ele>1520.4000244140625</ele>
        <time>2020-08-18T09:50:57.000Z</time>
      </trkpt>
      <trkpt lat="42.5113128684461116790771484375" lon="-0.2498003281652927398681640625">
        <ele>1520.5999755859375</ele>
        <time>2020-08-18T09:50:59.000Z</time>
      </trkpt>
      <trkpt lat="42.51145242713391780853271484375" lon="-0.249880291521549224853515625">
        <ele>1521.199951171875</ele>
        <time>2020-08-18T09:51:06.000Z</time>
      </trkpt>
      <trkpt lat="42.51155468635261058807373046875" lon="-0.2499615959823131561279296875">
        <ele>1521.199951171875</ele>
        <time>2020-08-18T09:51:12.000Z</time>
      </trkpt>
      <trkpt lat="42.51159793697297573089599609375" lon="-0.25001364760100841522216796875">
        <ele>1521.800048828125</ele>
        <time>2020-08-18T09:51:15.000Z</time>
      </trkpt>
      <trkpt lat="42.5116387568414211273193359375" lon="-0.2500762604176998138427734375">
        <ele>1522.4000244140625</ele>
        <time>2020-08-18T09:51:18.000Z</time>
      </trkpt>
      <trkpt lat="42.5116981007158756256103515625" lon="-0.25015647523105144500732421875">
        <ele>1523</ele>
        <time>2020-08-18T09:51:22.000Z</time>
      </trkpt>
      <trkpt lat="42.5117356516420841217041015625" lon="-0.25021850131452083587646484375">
        <ele>1523.800048828125</ele>
        <time>2020-08-18T09:51:25.000Z</time>
      </trkpt>
      <trkpt lat="42.51176289282739162445068359375" lon="-0.25025487877428531646728515625">
        <ele>1524</ele>
        <time>2020-08-18T09:51:27.000Z</time>
      </trkpt>
      <trkpt lat="42.51187621615827083587646484375" lon="-0.25040072388947010040283203125">
        <ele>1525</ele>
        <time>2020-08-18T09:51:35.000Z</time>
      </trkpt>
      <trkpt lat="42.51188929192721843719482421875" lon="-0.250419080257415771484375">
        <ele>1525</ele>
        <time>2020-08-18T09:51:36.000Z</time>
      </trkpt>
      <trkpt lat="42.51195609569549560546875" lon="-0.2505017258226871490478515625">
        <ele>1525.800048828125</ele>
        <time>2020-08-18T09:51:41.000Z</time>
      </trkpt>
      <trkpt lat="42.51202650368213653564453125" lon="-0.25059568695724010467529296875">
        <ele>1526.199951171875</ele>
        <time>2020-08-18T09:51:46.000Z</time>
      </trkpt>
      <trkpt lat="42.51207034103572368621826171875" lon="-0.2506457269191741943359375">
        <ele>1526.4000244140625</ele>
        <time>2020-08-18T09:51:49.000Z</time>
      </trkpt>
      <trkpt lat="42.51212649978697299957275390625" lon="-0.25070817209780216217041015625">
        <ele>1527.199951171875</ele>
        <time>2020-08-18T09:51:53.000Z</time>
      </trkpt>
      <trkpt lat="42.512171678245067596435546875" lon="-0.2507494948804378509521484375">
        <ele>1527.800048828125</ele>
        <time>2020-08-18T09:51:56.000Z</time>
      </trkpt>
      <trkpt lat="42.512266226112842559814453125" lon="-0.25082685984671115875244140625">
        <ele>1528.4000244140625</ele>
        <time>2020-08-18T09:52:02.000Z</time>
      </trkpt>
      <trkpt lat="42.51229598186910152435302734375" lon="-0.2508509159088134765625">
        <ele>1528.800048828125</ele>
        <time>2020-08-18T09:52:04.000Z</time>
      </trkpt>
      <trkpt lat="42.51237762160599231719970703125" lon="-0.25090967305004596710205078125">
        <ele>1529.4000244140625</ele>
        <time>2020-08-18T09:52:09.000Z</time>
      </trkpt>
      <trkpt lat="42.512427158653736114501953125" lon="-0.2509442903101444244384765625">
        <ele>1529.800048828125</ele>
        <time>2020-08-18T09:52:12.000Z</time>
      </trkpt>
      <trkpt lat="42.51252447254955768585205078125" lon="-0.251004137098789215087890625">
        <ele>1530.5999755859375</ele>
        <time>2020-08-18T09:52:18.000Z</time>
      </trkpt>
      <trkpt lat="42.51255515031516551971435546875" lon="-0.251020900905132293701171875">
        <ele>1531.199951171875</ele>
        <time>2020-08-18T09:52:20.000Z</time>
      </trkpt>
      <trkpt lat="42.5126519612967967987060546875" lon="-0.2510807476937770843505859375">
        <ele>1531.800048828125</ele>
        <time>2020-08-18T09:52:26.000Z</time>
      </trkpt>
      <trkpt lat="42.51274860464036464691162109375" lon="-0.2511353977024555206298828125">
        <ele>1532.800048828125</ele>
        <time>2020-08-18T09:52:32.000Z</time>
      </trkpt>
      <trkpt lat="42.5127813778817653656005859375" lon="-0.25116079486906528472900390625">
        <ele>1533.199951171875</ele>
        <time>2020-08-18T09:52:34.000Z</time>
      </trkpt>
      <trkpt lat="42.5128135643899440765380859375" lon="-0.2511860243976116180419921875">
        <ele>1533.800048828125</ele>
        <time>2020-08-18T09:52:36.000Z</time>
      </trkpt>
      <trkpt lat="42.51288204453885555267333984375" lon="-0.251247547566890716552734375">
        <ele>1534.4000244140625</ele>
        <time>2020-08-18T09:52:41.000Z</time>
      </trkpt>
      <trkpt lat="42.51296116970479488372802734375" lon="-0.25129423476755619049072265625">
        <ele>1534.800048828125</ele>
        <time>2020-08-18T09:52:46.000Z</time>
      </trkpt>
      <trkpt lat="42.51298941671848297119140625" lon="-0.25132357142865657806396484375">
        <ele>1534.800048828125</ele>
        <time>2020-08-18T09:52:48.000Z</time>
      </trkpt>
      <trkpt lat="42.51301950775086879730224609375" lon="-0.2513697557151317596435546875">
        <ele>1535.4000244140625</ele>
        <time>2020-08-18T09:52:52.000Z</time>
      </trkpt>
      <trkpt lat="42.5130204297602176666259765625" lon="-0.25136698968708515167236328125">
        <ele>1535.4000244140625</ele>
        <time>2020-08-18T09:58:26.000Z</time>
      </trkpt>
      <trkpt lat="42.513015903532505035400390625" lon="-0.25141979567706584930419921875">
        <ele>1535.5999755859375</ele>
        <time>2020-08-18T09:58:32.000Z</time>
      </trkpt>
      <trkpt lat="42.51297676004469394683837890625" lon="-0.25153563357889652252197265625">
        <ele>1535.199951171875</ele>
        <time>2020-08-18T09:58:39.000Z</time>
      </trkpt>
      <trkpt lat="42.5128988921642303466796875" lon="-0.2516564168035984039306640625">
        <ele>1535.199951171875</ele>
        <time>2020-08-18T09:58:46.000Z</time>
      </trkpt>
      <trkpt lat="42.51282018609344959259033203125" lon="-0.25172757916152477264404296875">
        <ele>1535.199951171875</ele>
        <time>2020-08-18T09:58:51.000Z</time>
      </trkpt>
      <trkpt lat="42.51267719082534313201904296875" lon="-0.2518280781805515289306640625">
        <ele>1534.5999755859375</ele>
        <time>2020-08-18T09:58:58.000Z</time>
      </trkpt>
      <trkpt lat="42.51262865960597991943359375" lon="-0.25187543593347072601318359375">
        <ele>1534.199951171875</ele>
        <time>2020-08-18T09:59:00.000Z</time>
      </trkpt>
      <trkpt lat="42.5125252269208431243896484375" lon="-0.2520071156322956085205078125">
        <ele>1533.800048828125</ele>
        <time>2020-08-18T09:59:04.000Z</time>
      </trkpt>
      <trkpt lat="42.5123750232160091400146484375" lon="-0.25220031850039958953857421875">
        <ele>1532.800048828125</ele>
        <time>2020-08-18T09:59:10.000Z</time>
      </trkpt>
      <trkpt lat="42.51232380978763103485107421875" lon="-0.252268798649311065673828125">
        <ele>1532</ele>
        <time>2020-08-18T09:59:12.000Z</time>
      </trkpt>
      <trkpt lat="42.5123019330203533172607421875" lon="-0.25230609811842441558837890625">
        <ele>1531.800048828125</ele>
        <time>2020-08-18T09:59:13.000Z</time>
      </trkpt>
      <trkpt lat="42.51218450255692005157470703125" lon="-0.25255286134779453277587890625">
        <ele>1531</ele>
        <time>2020-08-18T09:59:19.000Z</time>
      </trkpt>
      <trkpt lat="42.51211359165608882904052734375" lon="-0.2526707947254180908203125">
        <ele>1530.4000244140625</ele>
        <time>2020-08-18T09:59:22.000Z</time>
      </trkpt>
      <trkpt lat="42.5120333768427371978759765625" lon="-0.25279082357883453369140625">
        <ele>1529.199951171875</ele>
        <time>2020-08-18T09:59:25.000Z</time>
      </trkpt>
      <trkpt lat="42.51200504601001739501953125" lon="-0.25282912887632846832275390625">
        <ele>1528.199951171875</ele>
        <time>2020-08-18T09:59:26.000Z</time>
      </trkpt>
      <trkpt lat="42.51197763718664646148681640625" lon="-0.25286869145929813385009765625">
        <ele>1527.5999755859375</ele>
        <time>2020-08-18T09:59:27.000Z</time>
      </trkpt>
      <trkpt lat="42.5119512341916561126708984375" lon="-0.25290825404226779937744140625">
        <ele>1526.800048828125</ele>
        <time>2020-08-18T09:59:28.000Z</time>
      </trkpt>
      <trkpt lat="42.511900775134563446044921875" lon="-0.25298151187598705291748046875">
        <ele>1525.5999755859375</ele>
        <time>2020-08-18T09:59:30.000Z</time>
      </trkpt>
      <trkpt lat="42.51182558946311473846435546875" lon="-0.253092907369136810302734375">
        <ele>1524.5999755859375</ele>
        <time>2020-08-18T09:59:33.000Z</time>
      </trkpt>
      <trkpt lat="42.51177999190986156463623046875" lon="-0.2531665004789829254150390625">
        <ele>1524.4000244140625</ele>
        <time>2020-08-18T09:59:35.000Z</time>
      </trkpt>
      <trkpt lat="42.51169583760201930999755859375" lon="-0.25330438278615474700927734375">
        <ele>1523.5999755859375</ele>
        <time>2020-08-18T09:59:39.000Z</time>
      </trkpt>
      <trkpt lat="42.51163699664175510406494140625" lon="-0.25339993648231029510498046875">
        <ele>1522.800048828125</ele>
        <time>2020-08-18T09:59:42.000Z</time>
      </trkpt>
      <trkpt lat="42.51161637715995311737060546875" lon="-0.253434889018535614013671875">
        <ele>1522.4000244140625</ele>
        <time>2020-08-18T09:59:43.000Z</time>
      </trkpt>
      <trkpt lat="42.51155845820903778076171875" lon="-0.25354192592203617095947265625">
        <ele>1520.800048828125</ele>
        <time>2020-08-18T09:59:46.000Z</time>
      </trkpt>
      <trkpt lat="42.51152417622506618499755859375" lon="-0.25361535139381885528564453125">
        <ele>1519.5999755859375</ele>
        <time>2020-08-18T09:59:48.000Z</time>
      </trkpt>
      <trkpt lat="42.51150959171354770660400390625" lon="-0.25365474633872509002685546875">
        <ele>1519.199951171875</ele>
        <time>2020-08-18T09:59:49.000Z</time>
      </trkpt>
      <trkpt lat="42.51146064139902591705322265625" lon="-0.2537713386118412017822265625">
        <ele>1518.5999755859375</ele>
        <time>2020-08-18T09:59:52.000Z</time>
      </trkpt>
      <trkpt lat="42.51137296669185161590576171875" lon="-0.25397107936441898345947265625">
        <ele>1517.4000244140625</ele>
        <time>2020-08-18T09:59:57.000Z</time>
      </trkpt>
      <trkpt lat="42.51130775548517704010009765625" lon="-0.25411038659512996673583984375">
        <ele>1516</ele>
        <time>2020-08-18T10:00:00.000Z</time>
      </trkpt>
      <trkpt lat="42.51125411130487918853759765625" lon="-0.254256315529346466064453125">
        <ele>1515.199951171875</ele>
        <time>2020-08-18T10:00:03.000Z</time>
      </trkpt>
      <trkpt lat="42.5112350843846797943115234375" lon="-0.25430090725421905517578125">
        <ele>1515</ele>
        <time>2020-08-18T10:00:04.000Z</time>
      </trkpt>
      <trkpt lat="42.5111690349876880645751953125" lon="-0.2545027434825897216796875">
        <ele>1513.800048828125</ele>
        <time>2020-08-18T10:00:08.000Z</time>
      </trkpt>
      <trkpt lat="42.51115805469453334808349609375" lon="-0.2546105347573757171630859375">
        <ele>1513.5999755859375</ele>
        <time>2020-08-18T10:00:10.000Z</time>
      </trkpt>
      <trkpt lat="42.511204071342945098876953125" lon="-0.25484732352197170257568359375">
        <ele>1512.800048828125</ele>
        <time>2020-08-18T10:00:15.000Z</time>
      </trkpt>
      <trkpt lat="42.51124271191656589508056640625" lon="-0.25493164546787738800048828125">
        <ele>1512.800048828125</ele>
        <time>2020-08-18T10:00:18.000Z</time>
      </trkpt>
      <trkpt lat="42.51126534305512905120849609375" lon="-0.25498109869658946990966796875">
        <ele>1512.800048828125</ele>
        <time>2020-08-18T10:00:20.000Z</time>
      </trkpt>
      <trkpt lat="42.5112922489643096923828125" lon="-0.25505988858640193939208984375">
        <ele>1513</ele>
        <time>2020-08-18T10:00:23.000Z</time>
      </trkpt>
      <trkpt lat="42.51132778823375701904296875" lon="-0.2551640756428241729736328125">
        <ele>1513.4000244140625</ele>
        <time>2020-08-18T10:00:27.000Z</time>
      </trkpt>
      <trkpt lat="42.5113708712160587310791015625" lon="-0.2553632296621799468994140625">
        <ele>1513.800048828125</ele>
        <time>2020-08-18T10:00:34.000Z</time>
      </trkpt>
      <trkpt lat="42.51139140687882900238037109375" lon="-0.25549541227519512176513671875">
        <ele>1514.800048828125</ele>
        <time>2020-08-18T10:00:39.000Z</time>
      </trkpt>
      <trkpt lat="42.511398531496524810791015625" lon="-0.25556967593729496002197265625">
        <ele>1515.199951171875</ele>
        <time>2020-08-18T10:00:42.000Z</time>
      </trkpt>
      <trkpt lat="42.51141018234193325042724609375" lon="-0.2557119168341159820556640625">
        <ele>1516</ele>
        <time>2020-08-18T10:00:48.000Z</time>
      </trkpt>
      <trkpt lat="42.51141822896897792816162109375" lon="-0.25578550994396209716796875">
        <ele>1516.5999755859375</ele>
        <time>2020-08-18T10:00:51.000Z</time>
      </trkpt>
      <trkpt lat="42.5114241801202297210693359375" lon="-0.2558607794344425201416015625">
        <ele>1517.199951171875</ele>
        <time>2020-08-18T10:00:54.000Z</time>
      </trkpt>
      <trkpt lat="42.51145376823842525482177734375" lon="-0.2560056187212467193603515625">
        <ele>1517.5999755859375</ele>
        <time>2020-08-18T10:01:00.000Z</time>
      </trkpt>
      <trkpt lat="42.51146550290286540985107421875" lon="-0.25605197064578533172607421875">
        <ele>1518.4000244140625</ele>
        <time>2020-08-18T10:01:02.000Z</time>
      </trkpt>
      <trkpt lat="42.5114848650991916656494140625" lon="-0.2561692334711551666259765625">
        <ele>1519.199951171875</ele>
        <time>2020-08-18T10:01:07.000Z</time>
      </trkpt>
      <trkpt lat="42.5114965997636318206787109375" lon="-0.2562403120100498199462890625">
        <ele>1519.5999755859375</ele>
        <time>2020-08-18T10:01:10.000Z</time>
      </trkpt>
      <trkpt lat="42.5115066580474376678466796875" lon="-0.256397724151611328125">
        <ele>1519.800048828125</ele>
        <time>2020-08-18T10:01:16.000Z</time>
      </trkpt>
      <trkpt lat="42.51150540076196193695068359375" lon="-0.2565206028521060943603515625">
        <ele>1520.5999755859375</ele>
        <time>2020-08-18T10:01:21.000Z</time>
      </trkpt>
      <trkpt lat="42.511505149304866790771484375" lon="-0.25662411935627460479736328125">
        <ele>1520.800048828125</ele>
        <time>2020-08-18T10:01:25.000Z</time>
      </trkpt>
      <trkpt lat="42.51151344738900661468505859375" lon="-0.25684020482003688812255859375">
        <ele>1521.5999755859375</ele>
        <time>2020-08-18T10:01:33.000Z</time>
      </trkpt>
      <trkpt lat="42.5115180574357509613037109375" lon="-0.2568684518337249755859375">
        <ele>1521.5999755859375</ele>
        <time>2020-08-18T10:01:34.000Z</time>
      </trkpt>
      <trkpt lat="42.5115841068327426910400390625" lon="-0.25704539380967617034912109375">
        <ele>1522.199951171875</ele>
        <time>2020-08-18T10:01:41.000Z</time>
      </trkpt>
      <trkpt lat="42.5116677582263946533203125" lon="-0.257169194519519805908203125">
        <ele>1522.800048828125</ele>
        <time>2020-08-18T10:01:47.000Z</time>
      </trkpt>
      <trkpt lat="42.51171226613223552703857421875" lon="-0.2572179771959781646728515625">
        <ele>1523</ele>
        <time>2020-08-18T10:01:50.000Z</time>
      </trkpt>
      <trkpt lat="42.5117965042591094970703125" lon="-0.25731512345373630523681640625">
        <ele>1524.199951171875</ele>
        <time>2020-08-18T10:01:56.000Z</time>
      </trkpt>
      <trkpt lat="42.51185559667646884918212890625" lon="-0.2573802508413791656494140625">
        <ele>1525</ele>
        <time>2020-08-18T10:02:00.000Z</time>
      </trkpt>
      <trkpt lat="42.51191611401736736297607421875" lon="-0.257442779839038848876953125">
        <ele>1525.199951171875</ele>
        <time>2020-08-18T10:02:04.000Z</time>
      </trkpt>
      <trkpt lat="42.51205156557261943817138671875" lon="-0.2575834281742572784423828125">
        <ele>1526.199951171875</ele>
        <time>2020-08-18T10:02:13.000Z</time>
      </trkpt>
      <trkpt lat="42.5120672397315502166748046875" lon="-0.25759977288544178009033203125">
        <ele>1526.199951171875</ele>
        <time>2020-08-18T10:02:14.000Z</time>
      </trkpt>
      <trkpt lat="42.51218500547111034393310546875" lon="-0.25769415311515331268310546875">
        <ele>1527.4000244140625</ele>
        <time>2020-08-18T10:02:21.000Z</time>
      </trkpt>
      <trkpt lat="42.5122023560106754302978515625" lon="-0.25770463049411773681640625">
        <ele>1527.4000244140625</ele>
        <time>2020-08-18T10:02:22.000Z</time>
      </trkpt>
      <trkpt lat="42.5123026035726070404052734375" lon="-0.257780067622661590576171875">
        <ele>1528.199951171875</ele>
        <time>2020-08-18T10:02:28.000Z</time>
      </trkpt>
      <trkpt lat="42.5123193673789501190185546875" lon="-0.25779171846807003021240234375">
        <ele>1528.4000244140625</ele>
        <time>2020-08-18T10:02:29.000Z</time>
      </trkpt>
      <trkpt lat="42.51245121471583843231201171875" lon="-0.25790085084736347198486328125">
        <ele>1529.5999755859375</ele>
        <time>2020-08-18T10:02:37.000Z</time>
      </trkpt>
      <trkpt lat="42.51254743896424770355224609375" lon="-0.2580296806991100311279296875">
        <ele>1530.5999755859375</ele>
        <time>2020-08-18T10:02:44.000Z</time>
      </trkpt>
      <trkpt lat="42.512560598552227020263671875" lon="-0.25804921053349971771240234375">
        <ele>1530.800048828125</ele>
        <time>2020-08-18T10:02:45.000Z</time>
      </trkpt>
      <trkpt lat="42.51265003345906734466552734375" lon="-0.2581894397735595703125">
        <ele>1531.800048828125</ele>
        <time>2020-08-18T10:02:52.000Z</time>
      </trkpt>
      <trkpt lat="42.51267685554921627044677734375" lon="-0.25823042728006839752197265625">
        <ele>1532.199951171875</ele>
        <time>2020-08-18T10:02:54.000Z</time>
      </trkpt>
      <trkpt lat="42.51272857189178466796875" lon="-0.25834190659224987030029296875">
        <ele>1532.800048828125</ele>
        <time>2020-08-18T10:02:59.000Z</time>
      </trkpt>
      <trkpt lat="42.51277106814086437225341796875" lon="-0.25843092240393161773681640625">
        <ele>1533.199951171875</ele>
        <time>2020-08-18T10:03:03.000Z</time>
      </trkpt>
      <trkpt lat="42.5128175877034664154052734375" lon="-0.25855220854282379150390625">
        <ele>1533.800048828125</ele>
        <time>2020-08-18T10:03:08.000Z</time>
      </trkpt>
      <trkpt lat="42.5128487683832645416259765625" lon="-0.25862555019557476043701171875">
        <ele>1534</ele>
        <time>2020-08-18T10:03:11.000Z</time>
      </trkpt>
      <trkpt lat="42.51292370259761810302734375" lon="-0.25885395705699920654296875">
        <ele>1534.4000244140625</ele>
        <time>2020-08-18T10:03:19.000Z</time>
      </trkpt>
      <trkpt lat="42.5129962898790836334228515625" lon="-0.25910231284797191619873046875">
        <ele>1534.4000244140625</ele>
        <time>2020-08-18T10:03:27.000Z</time>
      </trkpt>
      <trkpt lat="42.513084970414638519287109375" lon="-0.2592735551297664642333984375">
        <ele>1534.5999755859375</ele>
        <time>2020-08-18T10:03:33.000Z</time>
      </trkpt>
      <trkpt lat="42.5132078491151332855224609375" lon="-0.2592983655631542205810546875">
        <ele>1534.5999755859375</ele>
        <time>2020-08-18T10:03:38.000Z</time>
      </trkpt>
      <trkpt lat="42.5132782571017742156982421875" lon="-0.2592712081968784332275390625">
        <ele>1535</ele>
        <time>2020-08-18T10:03:41.000Z</time>
      </trkpt>
      <trkpt lat="42.51338378526270389556884765625" lon="-0.259197615087032318115234375">
        <ele>1536</ele>
        <time>2020-08-18T10:03:46.000Z</time>
      </trkpt>
      <trkpt lat="42.51348185352981090545654296875" lon="-0.2591300569474697113037109375">
        <ele>1537.199951171875</ele>
        <time>2020-08-18T10:03:51.000Z</time>
      </trkpt>
      <trkpt lat="42.51354052685201168060302734375" lon="-0.259082950651645660400390625">
        <ele>1537.5999755859375</ele>
        <time>2020-08-18T10:03:54.000Z</time>
      </trkpt>
      <trkpt lat="42.5136551074683666229248046875" lon="-0.258981026709079742431640625">
        <ele>1538.199951171875</ele>
        <time>2020-08-18T10:04:00.000Z</time>
      </trkpt>
      <trkpt lat="42.51369257457554340362548828125" lon="-0.258944816887378692626953125">
        <ele>1538.4000244140625</ele>
        <time>2020-08-18T10:04:02.000Z</time>
      </trkpt>
      <trkpt lat="42.513799779117107391357421875" lon="-0.2588356845080852508544921875">
        <ele>1539.199951171875</ele>
        <time>2020-08-18T10:04:08.000Z</time>
      </trkpt>
      <trkpt lat="42.513870857656002044677734375" lon="-0.25876133702695369720458984375">
        <ele>1539.5999755859375</ele>
        <time>2020-08-18T10:04:12.000Z</time>
      </trkpt>
      <trkpt lat="42.51393849961459636688232421875" lon="-0.25868388824164867401123046875">
        <ele>1540.199951171875</ele>
        <time>2020-08-18T10:04:16.000Z</time>
      </trkpt>
      <trkpt lat="42.51399281434714794158935546875" lon="-0.25862806476652622222900390625">
        <ele>1540.800048828125</ele>
        <time>2020-08-18T10:04:19.000Z</time>
      </trkpt>
      <trkpt lat="42.5140468776226043701171875" lon="-0.25857634842395782470703125">
        <ele>1541.199951171875</ele>
        <time>2020-08-18T10:04:22.000Z</time>
      </trkpt>
      <trkpt lat="42.5141895376145839691162109375" lon="-0.25848791934549808502197265625">
        <ele>1541.199951171875</ele>
        <time>2020-08-18T10:04:29.000Z</time>
      </trkpt>
      <trkpt lat="42.51434602774679660797119140625" lon="-0.2584990672767162322998046875">
        <ele>1542.5999755859375</ele>
        <time>2020-08-18T10:04:36.000Z</time>
      </trkpt>
      <trkpt lat="42.51436597667634487152099609375" lon="-0.25851138867437839508056640625">
        <ele>1542.5999755859375</ele>
        <time>2020-08-18T10:04:37.000Z</time>
      </trkpt>
      <trkpt lat="42.5145023502409458160400390625" lon="-0.25866058655083179473876953125">
        <ele>1543</ele>
        <time>2020-08-18T10:04:45.000Z</time>
      </trkpt>
      <trkpt lat="42.51454618759453296661376953125" lon="-0.25873049162328243255615234375">
        <ele>1543.800048828125</ele>
        <time>2020-08-18T10:04:48.000Z</time>
      </trkpt>
      <trkpt lat="42.514615170657634735107421875" lon="-0.25887675583362579345703125">
        <ele>1544.800048828125</ele>
        <time>2020-08-18T10:04:54.000Z</time>
      </trkpt>
      <trkpt lat="42.514624558389186859130859375" lon="-0.258903242647647857666015625">
        <ele>1545</ele>
        <time>2020-08-18T10:04:55.000Z</time>
      </trkpt>
      <trkpt lat="42.51471181400120258331298828125" lon="-0.259058810770511627197265625">
        <ele>1545.5999755859375</ele>
        <time>2020-08-18T10:05:02.000Z</time>
      </trkpt>
      <trkpt lat="42.51474115066230297088623046875" lon="-0.25910046882927417755126953125">
        <ele>1546</ele>
        <time>2020-08-18T10:05:04.000Z</time>
      </trkpt>
      <trkpt lat="42.514833770692348480224609375" lon="-0.2592152170836925506591796875">
        <ele>1547</ele>
        <time>2020-08-18T10:05:10.000Z</time>
      </trkpt>
      <trkpt lat="42.5148486904799938201904296875" lon="-0.25923541747033596038818359375">
        <ele>1547.4000244140625</ele>
        <time>2020-08-18T10:05:11.000Z</time>
      </trkpt>
      <trkpt lat="42.5149781070649623870849609375" lon="-0.25937296450138092041015625">
        <ele>1548.199951171875</ele>
        <time>2020-08-18T10:05:19.000Z</time>
      </trkpt>
      <trkpt lat="42.5150307454168796539306640625" lon="-0.25942082516849040985107421875">
        <ele>1548.5999755859375</ele>
        <time>2020-08-18T10:05:22.000Z</time>
      </trkpt>
      <trkpt lat="42.515104003250598907470703125" lon="-0.2594743855297565460205078125">
        <ele>1549.199951171875</ele>
        <time>2020-08-18T10:05:26.000Z</time>
      </trkpt>
      <trkpt lat="42.5152369402348995208740234375" lon="-0.25954806245863437652587890625">
        <ele>1549.800048828125</ele>
        <time>2020-08-18T10:05:33.000Z</time>
      </trkpt>
      <trkpt lat="42.51528882421553134918212890625" lon="-0.25957002304494380950927734375">
        <ele>1550.4000244140625</ele>
        <time>2020-08-18T10:05:36.000Z</time>
      </trkpt>
      <trkpt lat="42.515363506972789764404296875" lon="-0.2596048079431056976318359375">
        <ele>1551</ele>
        <time>2020-08-18T10:05:40.000Z</time>
      </trkpt>
      <trkpt lat="42.5154013931751251220703125" lon="-0.25962651707231998443603515625">
        <ele>1551.4000244140625</ele>
        <time>2020-08-18T10:05:42.000Z</time>
      </trkpt>
      <trkpt lat="42.5155051611363887786865234375" lon="-0.2597057260572910308837890625">
        <ele>1552.4000244140625</ele>
        <time>2020-08-18T10:05:48.000Z</time>
      </trkpt>
      <trkpt lat="42.51552083529531955718994140625" lon="-0.2597248367965221405029296875">
        <ele>1552.4000244140625</ele>
        <time>2020-08-18T10:05:49.000Z</time>
      </trkpt>
      <trkpt lat="42.51563902013003826141357421875" lon="-0.259904377162456512451171875">
        <ele>1553.4000244140625</ele>
        <time>2020-08-18T10:05:58.000Z</time>
      </trkpt>
      <trkpt lat="42.51565326936542987823486328125" lon="-0.25992558337748050689697265625">
        <ele>1553.5999755859375</ele>
        <time>2020-08-18T10:05:59.000Z</time>
      </trkpt>
      <trkpt lat="42.51574597321450710296630859375" lon="-0.260049887001514434814453125">
        <ele>1554.4000244140625</ele>
        <time>2020-08-18T10:06:05.000Z</time>
      </trkpt>
      <trkpt lat="42.5157800875604152679443359375" lon="-0.2600852586328983306884765625">
        <ele>1554.5999755859375</ele>
        <time>2020-08-18T10:06:07.000Z</time>
      </trkpt>
      <trkpt lat="42.51588310115039348602294921875" lon="-0.26017896831035614013671875">
        <ele>1555.800048828125</ele>
        <time>2020-08-18T10:06:13.000Z</time>
      </trkpt>
      <trkpt lat="42.51589802093803882598876953125" lon="-0.260187685489654541015625">
        <ele>1555.800048828125</ele>
        <time>2020-08-18T10:06:14.000Z</time>
      </trkpt>
      <trkpt lat="42.51599038951098918914794921875" lon="-0.2602307684719562530517578125">
        <ele>1557</ele>
        <time>2020-08-18T10:06:19.000Z</time>
      </trkpt>
      <trkpt lat="42.5160077400505542755126953125" lon="-0.2602401562035083770751953125">
        <ele>1557.199951171875</ele>
        <time>2020-08-18T10:06:20.000Z</time>
      </trkpt>
      <trkpt lat="42.5161324627697467803955078125" lon="-0.2603112347424030303955078125">
        <ele>1557.800048828125</ele>
        <time>2020-08-18T10:06:27.000Z</time>
      </trkpt>
      <trkpt lat="42.5161492265760898590087890625" lon="-0.2603204548358917236328125">
        <ele>1558</ele>
        <time>2020-08-18T10:06:28.000Z</time>
      </trkpt>
      <trkpt lat="42.516237236559391021728515625" lon="-0.260398574173450469970703125">
        <ele>1559</ele>
        <time>2020-08-18T10:06:34.000Z</time>
      </trkpt>
      <trkpt lat="42.5162514857947826385498046875" lon="-0.26041290722787380218505859375">
        <ele>1559.199951171875</ele>
        <time>2020-08-18T10:06:35.000Z</time>
      </trkpt>
      <trkpt lat="42.516332454979419708251953125" lon="-0.260509885847568511962890625">
        <ele>1560.199951171875</ele>
        <time>2020-08-18T10:06:41.000Z</time>
      </trkpt>
      <trkpt lat="42.51645843498408794403076171875" lon="-0.26061776094138622283935546875">
        <ele>1561.4000244140625</ele>
        <time>2020-08-18T10:06:49.000Z</time>
      </trkpt>
      <trkpt lat="42.51657846383750438690185546875" lon="-0.26067995466291904449462890625">
        <ele>1562.4000244140625</ele>
        <time>2020-08-18T10:06:56.000Z</time>
      </trkpt>
      <trkpt lat="42.5166709162294864654541015625" lon="-0.26076310314238071441650390625">
        <ele>1563.5999755859375</ele>
        <time>2020-08-18T10:07:02.000Z</time>
      </trkpt>
      <trkpt lat="42.5167787075042724609375" lon="-0.26089922524988651275634765625">
        <ele>1564.800048828125</ele>
        <time>2020-08-18T10:07:10.000Z</time>
      </trkpt>
      <trkpt lat="42.5168766081333160400390625" lon="-0.26103987358510494232177734375">
        <ele>1565.800048828125</ele>
        <time>2020-08-18T10:07:18.000Z</time>
      </trkpt>
      <trkpt lat="42.516935952007770538330078125" lon="-0.26116468012332916259765625">
        <ele>1567</ele>
        <time>2020-08-18T10:07:24.000Z</time>
      </trkpt>
      <trkpt lat="42.51694374717772006988525390625" lon="-0.2611842937767505645751953125">
        <ele>1567</ele>
        <time>2020-08-18T10:07:25.000Z</time>
      </trkpt>
      <trkpt lat="42.51699806191027164459228515625" lon="-0.26133676059544086456298828125">
        <ele>1567.800048828125</ele>
        <time>2020-08-18T10:07:32.000Z</time>
      </trkpt>
      <trkpt lat="42.5170246325433254241943359375" lon="-0.261470116674900054931640625">
        <ele>1567.800048828125</ele>
        <time>2020-08-18T10:07:37.000Z</time>
      </trkpt>
      <trkpt lat="42.51703494228422641754150390625" lon="-0.2615182287991046905517578125">
        <ele>1568.199951171875</ele>
        <time>2020-08-18T10:07:39.000Z</time>
      </trkpt>
      <trkpt lat="42.51704416237771511077880859375" lon="-0.261572040617465972900390625">
        <ele>1569.199951171875</ele>
        <time>2020-08-18T10:07:41.000Z</time>
      </trkpt>
      <trkpt lat="42.5170980580151081085205078125" lon="-0.26171729899942874908447265625">
        <ele>1570</ele>
        <time>2020-08-18T10:07:47.000Z</time>
      </trkpt>
      <trkpt lat="42.51713217236101627349853515625" lon="-0.2617877908051013946533203125">
        <ele>1570.4000244140625</ele>
        <time>2020-08-18T10:07:50.000Z</time>
      </trkpt>
      <trkpt lat="42.5171895883977413177490234375" lon="-0.261892564594745635986328125">
        <ele>1571.199951171875</ele>
        <time>2020-08-18T10:07:55.000Z</time>
      </trkpt>
      <trkpt lat="42.5172019936144351959228515625" lon="-0.26190505363047122955322265625">
        <ele>1571.4000244140625</ele>
        <time>2020-08-18T10:07:56.000Z</time>
      </trkpt>
      <trkpt lat="42.5172616727650165557861328125" lon="-0.2619939856231212615966796875">
        <ele>1572.199951171875</ele>
        <time>2020-08-18T10:08:01.000Z</time>
      </trkpt>
      <trkpt lat="42.517312802374362945556640625" lon="-0.26205559261143207550048828125">
        <ele>1572.5999755859375</ele>
        <time>2020-08-18T10:08:05.000Z</time>
      </trkpt>
      <trkpt lat="42.51735881902277469635009765625" lon="-0.26210018433630466461181640625">
        <ele>1572.800048828125</ele>
        <time>2020-08-18T10:08:08.000Z</time>
      </trkpt>
      <trkpt lat="42.51741732470691204071044921875" lon="-0.26215751655399799346923828125">
        <ele>1573.5999755859375</ele>
        <time>2020-08-18T10:08:12.000Z</time>
      </trkpt>
      <trkpt lat="42.51743760891258716583251953125" lon="-0.2621787227690219879150390625">
        <ele>1573.800048828125</ele>
        <time>2020-08-18T10:08:14.000Z</time>
      </trkpt>
      <trkpt lat="42.5175436399877071380615234375" lon="-0.262242257595062255859375">
        <ele>1574.4000244140625</ele>
        <time>2020-08-18T10:08:20.000Z</time>
      </trkpt>
      <trkpt lat="42.51761748455464839935302734375" lon="-0.2623135037720203399658203125">
        <ele>1574.800048828125</ele>
        <time>2020-08-18T10:08:25.000Z</time>
      </trkpt>
      <trkpt lat="42.5177149660885334014892578125" lon="-0.26242003776133060455322265625">
        <ele>1575.5999755859375</ele>
        <time>2020-08-18T10:08:31.000Z</time>
      </trkpt>
      <trkpt lat="42.517745308578014373779296875" lon="-0.262460522353649139404296875">
        <ele>1575.800048828125</ele>
        <time>2020-08-18T10:08:33.000Z</time>
      </trkpt>
      <trkpt lat="42.51780272461473941802978515625" lon="-0.26258935220539569854736328125">
        <ele>1576.199951171875</ele>
        <time>2020-08-18T10:08:38.000Z</time>
      </trkpt>
      <trkpt lat="42.51790397800505161285400390625" lon="-0.262791104614734649658203125">
        <ele>1576.4000244140625</ele>
        <time>2020-08-18T10:08:45.000Z</time>
      </trkpt>
      <trkpt lat="42.5180649943649768829345703125" lon="-0.26295497082173824310302734375">
        <ele>1576.5999755859375</ele>
        <time>2020-08-18T10:08:52.000Z</time>
      </trkpt>
      <trkpt lat="42.518269009888172149658203125" lon="-0.26314456947147846221923828125">
        <ele>1576.5999755859375</ele>
        <time>2020-08-18T10:09:00.000Z</time>
      </trkpt>
      <trkpt lat="42.5183402560651302337646484375" lon="-0.2632462419569492340087890625">
        <ele>1576.5999755859375</ele>
        <time>2020-08-18T10:09:03.000Z</time>
      </trkpt>
      <trkpt lat="42.51840940676629543304443359375" lon="-0.2633441425859928131103515625">
        <ele>1576.800048828125</ele>
        <time>2020-08-18T10:09:06.000Z</time>
      </trkpt>
      <trkpt lat="42.5185824930667877197265625" lon="-0.26345796883106231689453125">
        <ele>1576.199951171875</ele>
        <time>2020-08-18T10:09:12.000Z</time>
      </trkpt>
      <trkpt lat="42.51882833428680896759033203125" lon="-0.26360641233623027801513671875">
        <ele>1576.800048828125</ele>
        <time>2020-08-18T10:09:21.000Z</time>
      </trkpt>
      <trkpt lat="42.519035451114177703857421875" lon="-0.26383624412119388580322265625">
        <ele>1577.5999755859375</ele>
        <time>2020-08-18T10:09:30.000Z</time>
      </trkpt>
      <trkpt lat="42.51909085549414157867431640625" lon="-0.2639412693679332733154296875">
        <ele>1577.5999755859375</ele>
        <time>2020-08-18T10:09:33.000Z</time>
      </trkpt>
      <trkpt lat="42.51916210167109966278076171875" lon="-0.2641327120363712310791015625">
        <ele>1578</ele>
        <time>2020-08-18T10:09:38.000Z</time>
      </trkpt>
      <trkpt lat="42.5192428193986415863037109375" lon="-0.264409147202968597412109375">
        <ele>1578.800048828125</ele>
        <time>2020-08-18T10:09:45.000Z</time>
      </trkpt>
      <trkpt lat="42.519312389194965362548828125" lon="-0.26462875306606292724609375">
        <ele>1579.4000244140625</ele>
        <time>2020-08-18T10:09:51.000Z</time>
      </trkpt>
      <trkpt lat="42.5193440727889537811279296875" lon="-0.26469312608242034912109375">
        <ele>1579.5999755859375</ele>
        <time>2020-08-18T10:09:53.000Z</time>
      </trkpt>
      <trkpt lat="42.51938941888511180877685546875" lon="-0.26483654044568538665771484375">
        <ele>1580</ele>
        <time>2020-08-18T10:09:57.000Z</time>
      </trkpt>
      <trkpt lat="42.51948363147675991058349609375" lon="-0.26514851488173007965087890625">
        <ele>1578.800048828125</ele>
        <time>2020-08-18T10:10:05.000Z</time>
      </trkpt>
      <trkpt lat="42.51960919238626956939697265625" lon="-0.2653856389224529266357421875">
        <ele>1579</ele>
        <time>2020-08-18T10:10:12.000Z</time>
      </trkpt>
      <trkpt lat="42.5197185762226581573486328125" lon="-0.26559242047369480133056640625">
        <ele>1579.4000244140625</ele>
        <time>2020-08-18T10:10:19.000Z</time>
      </trkpt>
      <trkpt lat="42.51982368528842926025390625" lon="-0.26571714319288730621337890625">
        <ele>1579.4000244140625</ele>
        <time>2020-08-18T10:10:25.000Z</time>
      </trkpt>
      <trkpt lat="42.51998403109610080718994140625" lon="-0.26582459919154644012451171875">
        <ele>1580</ele>
        <time>2020-08-18T10:10:32.000Z</time>
      </trkpt>
      <trkpt lat="42.5201676785945892333984375" lon="-0.26594446040689945220947265625">
        <ele>1580</ele>
        <time>2020-08-18T10:10:39.000Z</time>
      </trkpt>
      <trkpt lat="42.5203572772443294525146484375" lon="-0.26613213121891021728515625">
        <ele>1580</ele>
        <time>2020-08-18T10:10:47.000Z</time>
      </trkpt>
      <trkpt lat="42.5204052217304706573486328125" lon="-0.2663448639214038848876953125">
        <ele>1579.5999755859375</ele>
        <time>2020-08-18T10:10:52.000Z</time>
      </trkpt>
      <trkpt lat="42.5204410962760448455810546875" lon="-0.26657930575311183929443359375">
        <ele>1578.199951171875</ele>
        <time>2020-08-18T10:10:56.000Z</time>
      </trkpt>
      <trkpt lat="42.520458698272705078125" lon="-0.26664300821721553802490234375">
        <ele>1577.800048828125</ele>
        <time>2020-08-18T10:10:57.000Z</time>
      </trkpt>
      <trkpt lat="42.520481161773204803466796875" lon="-0.26670587249100208282470703125">
        <ele>1577.5999755859375</ele>
        <time>2020-08-18T10:10:58.000Z</time>
      </trkpt>
      <trkpt lat="42.52054662443697452545166015625" lon="-0.26680712588131427764892578125">
        <ele>1577</ele>
        <time>2020-08-18T10:11:00.000Z</time>
      </trkpt>
      <trkpt lat="42.5205886177718639373779296875" lon="-0.2668373845517635345458984375">
        <ele>1576.800048828125</ele>
        <time>2020-08-18T10:11:01.000Z</time>
      </trkpt>
      <trkpt lat="42.52073437906801700592041015625" lon="-0.2668484486639499664306640625">
        <ele>1577</ele>
        <time>2020-08-18T10:11:05.000Z</time>
      </trkpt>
      <trkpt lat="42.52088123001158237457275390625" lon="-0.26686563156545162200927734375">
        <ele>1577.800048828125</ele>
        <time>2020-08-18T10:11:11.000Z</time>
      </trkpt>
      <trkpt lat="42.52104752697050571441650390625" lon="-0.26691055856645107269287109375">
        <ele>1578</ele>
        <time>2020-08-18T10:11:17.000Z</time>
      </trkpt>
      <trkpt lat="42.5210717506706714630126953125" lon="-0.26693033985793590545654296875">
        <ele>1578.4000244140625</ele>
        <time>2020-08-18T10:11:18.000Z</time>
      </trkpt>
      <trkpt lat="42.52118817530572414398193359375" lon="-0.2670635282993316650390625">
        <ele>1578.800048828125</ele>
        <time>2020-08-18T10:11:24.000Z</time>
      </trkpt>
      <trkpt lat="42.521249614655971527099609375" lon="-0.26716620661318302154541015625">
        <ele>1578.199951171875</ele>
        <time>2020-08-18T10:11:29.000Z</time>
      </trkpt>
      <trkpt lat="42.521311305463314056396484375" lon="-0.26721951551735401153564453125">
        <ele>1578.4000244140625</ele>
        <time>2020-08-18T10:11:35.000Z</time>
      </trkpt>
      <trkpt lat="42.52136754803359508514404296875" lon="-0.26729880832135677337646484375">
        <ele>1579.4000244140625</ele>
        <time>2020-08-18T10:11:42.000Z</time>
      </trkpt>
      <trkpt lat="42.52137777395546436309814453125" lon="-0.2673097886145114898681640625">
        <ele>1579.4000244140625</ele>
        <time>2020-08-18T10:11:43.000Z</time>
      </trkpt>
      <trkpt lat="42.521452121436595916748046875" lon="-0.2674095332622528076171875">
        <ele>1579.5999755859375</ele>
        <time>2020-08-18T10:11:50.000Z</time>
      </trkpt>
      <trkpt lat="42.5215766765177249908447265625" lon="-0.26755864731967449188232421875">
        <ele>1579.4000244140625</ele>
        <time>2020-08-18T10:11:58.000Z</time>
      </trkpt>
      <trkpt lat="42.5216777622699737548828125" lon="-0.267672725021839141845703125">
        <ele>1580</ele>
        <time>2020-08-18T10:12:04.000Z</time>
      </trkpt>
      <trkpt lat="42.5217778421938419342041015625" lon="-0.26787959039211273193359375">
        <ele>1580.199951171875</ele>
        <time>2020-08-18T10:12:12.000Z</time>
      </trkpt>
      <trkpt lat="42.52182603813707828521728515625" lon="-0.2679836936295032501220703125">
        <ele>1580.199951171875</ele>
        <time>2020-08-18T10:12:16.000Z</time>
      </trkpt>
      <trkpt lat="42.521877586841583251953125" lon="-0.268046893179416656494140625">
        <ele>1580.4000244140625</ele>
        <time>2020-08-18T10:12:19.000Z</time>
      </trkpt>
      <trkpt lat="42.52199828624725341796875" lon="-0.2682398445904254913330078125">
        <ele>1580.800048828125</ele>
        <time>2020-08-18T10:12:27.000Z</time>
      </trkpt>
      <trkpt lat="42.52207011915743350982666015625" lon="-0.2685011923313140869140625">
        <ele>1580.5999755859375</ele>
        <time>2020-08-18T10:12:35.000Z</time>
      </trkpt>
      <trkpt lat="42.5221674330532550811767578125" lon="-0.268742926418781280517578125">
        <ele>1580.5999755859375</ele>
        <time>2020-08-18T10:12:43.000Z</time>
      </trkpt>
      <trkpt lat="42.5222598016262054443359375" lon="-0.26903771795332431793212890625">
        <ele>1581.199951171875</ele>
        <time>2020-08-18T10:12:52.000Z</time>
      </trkpt>
      <trkpt lat="42.52233289182186126708984375" lon="-0.269346423447132110595703125">
        <ele>1581</ele>
        <time>2020-08-18T10:13:01.000Z</time>
      </trkpt>
      <trkpt lat="42.52238251268863677978515625" lon="-0.269599221646785736083984375">
        <ele>1581</ele>
        <time>2020-08-18T10:13:08.000Z</time>
      </trkpt>
      <trkpt lat="42.5224279426038265228271484375" lon="-0.26989527046680450439453125">
        <ele>1581.800048828125</ele>
        <time>2020-08-18T10:13:16.000Z</time>
      </trkpt>
      <trkpt lat="42.52246909774839878082275390625" lon="-0.2701579593122005462646484375">
        <ele>1582.4000244140625</ele>
        <time>2020-08-18T10:13:23.000Z</time>
      </trkpt>
      <trkpt lat="42.52247412689030170440673828125" lon="-0.27019701898097991943359375">
        <ele>1582.4000244140625</ele>
        <time>2020-08-18T10:13:24.000Z</time>
      </trkpt>
      <trkpt lat="42.52251972444355487823486328125" lon="-0.2705009467899799346923828125">
        <ele>1582.199951171875</ele>
        <time>2020-08-18T10:13:32.000Z</time>
      </trkpt>
      <trkpt lat="42.5225426070392131805419921875" lon="-0.27082306332886219024658203125">
        <ele>1582.199951171875</ele>
        <time>2020-08-18T10:13:40.000Z</time>
      </trkpt>
      <trkpt lat="42.522530369460582733154296875" lon="-0.2712036855518817901611328125">
        <ele>1582</ele>
        <time>2020-08-18T10:13:49.000Z</time>
      </trkpt>
      <trkpt lat="42.52261360175907611846923828125" lon="-0.27149110101163387298583984375">
        <ele>1583.4000244140625</ele>
        <time>2020-08-18T10:13:57.000Z</time>
      </trkpt>
      <trkpt lat="42.5226368196308612823486328125" lon="-0.27174373157322406768798828125">
        <ele>1583</ele>
        <time>2020-08-18T10:14:04.000Z</time>
      </trkpt>
      <trkpt lat="42.52259734086692333221435546875" lon="-0.27201564051210880279541015625">
        <ele>1582.800048828125</ele>
        <time>2020-08-18T10:14:12.000Z</time>
      </trkpt>
      <trkpt lat="42.52256364561617374420166015625" lon="-0.27220741845667362213134765625">
        <ele>1582.4000244140625</ele>
        <time>2020-08-18T10:14:18.000Z</time>
      </trkpt>
      <trkpt lat="42.52256800420582294464111328125" lon="-0.2722567878663539886474609375">
        <ele>1582.199951171875</ele>
        <time>2020-08-18T10:14:23.000Z</time>
      </trkpt>
      <trkpt lat="42.522567920386791229248046875" lon="-0.2722564525902271270751953125">
        <ele>1582</ele>
        <time>2020-08-18T10:14:25.000Z</time>
      </trkpt>
      <trkpt lat="42.5225687585771083831787109375" lon="-0.27225427329540252685546875">
        <ele>1581.4000244140625</ele>
        <time>2020-08-18T10:22:40.000Z</time>
      </trkpt>
      <trkpt lat="42.52257588319480419158935546875" lon="-0.27226843871176242828369140625">
        <ele>1581.5999755859375</ele>
        <time>2020-08-18T10:22:47.000Z</time>
      </trkpt>
      <trkpt lat="42.52261946909129619598388671875" lon="-0.272280760109424591064453125">
        <ele>1581.5999755859375</ele>
        <time>2020-08-18T10:22:51.000Z</time>
      </trkpt>
      <trkpt lat="42.52264796756207942962646484375" lon="-0.27228084392845630645751953125">
        <ele>1581.800048828125</ele>
        <time>2020-08-18T10:22:53.000Z</time>
      </trkpt>
      <trkpt lat="42.52277721650898456573486328125" lon="-0.2722805924713611602783203125">
        <ele>1582</ele>
        <time>2020-08-18T10:23:00.000Z</time>
      </trkpt>
      <trkpt lat="42.52292809076607227325439453125" lon="-0.2722913213074207305908203125">
        <ele>1582</ele>
        <time>2020-08-18T10:23:07.000Z</time>
      </trkpt>
      <trkpt lat="42.52300855703651905059814453125" lon="-0.27228553779423236846923828125">
        <ele>1582.800048828125</ele>
        <time>2020-08-18T10:23:11.000Z</time>
      </trkpt>
      <trkpt lat="42.52311877906322479248046875" lon="-0.2722963504493236541748046875">
        <ele>1583.4000244140625</ele>
        <time>2020-08-18T10:23:17.000Z</time>
      </trkpt>
      <trkpt lat="42.523219026625156402587890625" lon="-0.27231805957853794097900390625">
        <ele>1583.5999755859375</ele>
        <time>2020-08-18T10:23:23.000Z</time>
      </trkpt>
      <trkpt lat="42.52323386259377002716064453125" lon="-0.27231923304498195648193359375">
        <ele>1583.800048828125</ele>
        <time>2020-08-18T10:23:24.000Z</time>
      </trkpt>
      <trkpt lat="42.52334383316338062286376953125" lon="-0.272320322692394256591796875">
        <ele>1584.800048828125</ele>
        <time>2020-08-18T10:23:31.000Z</time>
      </trkpt>
      <trkpt lat="42.52337501384317874908447265625" lon="-0.27232442982494831085205078125">
        <ele>1585</ele>
        <time>2020-08-18T10:23:33.000Z</time>
      </trkpt>
      <trkpt lat="42.52346771769225597381591796875" lon="-0.27233582921326160430908203125">
        <ele>1585.5999755859375</ele>
        <time>2020-08-18T10:23:39.000Z</time>
      </trkpt>
      <trkpt lat="42.52356528304517269134521484375" lon="-0.272335745394229888916015625">
        <ele>1586</ele>
        <time>2020-08-18T10:23:45.000Z</time>
      </trkpt>
      <trkpt lat="42.52361339516937732696533203125" lon="-0.2723389305174350738525390625">
        <ele>1586.4000244140625</ele>
        <time>2020-08-18T10:23:48.000Z</time>
      </trkpt>
      <trkpt lat="42.5237197615206241607666015625" lon="-0.27234144508838653564453125">
        <ele>1587</ele>
        <time>2020-08-18T10:23:54.000Z</time>
      </trkpt>
      <trkpt lat="42.52373761497437953948974609375" lon="-0.27234337292611598968505859375">
        <ele>1587</ele>
        <time>2020-08-18T10:23:55.000Z</time>
      </trkpt>
      <trkpt lat="42.52386418171226978302001953125" lon="-0.27234856970608234405517578125">
        <ele>1588</ele>
        <time>2020-08-18T10:24:02.000Z</time>
      </trkpt>
      <trkpt lat="42.52390005625784397125244140625" lon="-0.27235083281993865966796875">
        <ele>1588.199951171875</ele>
        <time>2020-08-18T10:24:04.000Z</time>
      </trkpt>
      <trkpt lat="42.52407909370958805084228515625" lon="-0.27235309593379497528076171875">
        <ele>1589.199951171875</ele>
        <time>2020-08-18T10:24:14.000Z</time>
      </trkpt>
      <trkpt lat="42.52420633099973201751708984375" lon="-0.27235762216150760650634765625">
        <ele>1590.4000244140625</ele>
        <time>2020-08-18T10:24:21.000Z</time>
      </trkpt>
      <trkpt lat="42.52429601736366748809814453125" lon="-0.2724086679518222808837890625">
        <ele>1591</ele>
        <time>2020-08-18T10:24:27.000Z</time>
      </trkpt>
      <trkpt lat="42.52434044145047664642333984375" lon="-0.27244529686868190765380859375">
        <ele>1591.4000244140625</ele>
        <time>2020-08-18T10:24:30.000Z</time>
      </trkpt>
      <trkpt lat="42.5244074128568172454833984375" lon="-0.272521488368511199951171875">
        <ele>1591.5999755859375</ele>
        <time>2020-08-18T10:24:35.000Z</time>
      </trkpt>
      <trkpt lat="42.524555437266826629638671875" lon="-0.27266255579888820648193359375">
        <ele>1592.5999755859375</ele>
        <time>2020-08-18T10:24:45.000Z</time>
      </trkpt>
      <trkpt lat="42.52469248138368129730224609375" lon="-0.27275308035314083099365234375">
        <ele>1593.4000244140625</ele>
        <time>2020-08-18T10:24:54.000Z</time>
      </trkpt>
      <trkpt lat="42.5247410126030445098876953125" lon="-0.27277889661490917205810546875">
        <ele>1593.5999755859375</ele>
        <time>2020-08-18T10:24:57.000Z</time>
      </trkpt>
      <trkpt lat="42.52479038201272487640380859375" lon="-0.2727855183184146881103515625">
        <ele>1594.4000244140625</ele>
        <time>2020-08-18T10:25:00.000Z</time>
      </trkpt>
      <trkpt lat="42.5248369015753269195556640625" lon="-0.27279599569737911224365234375">
        <ele>1594.800048828125</ele>
        <time>2020-08-18T10:25:03.000Z</time>
      </trkpt>
      <trkpt lat="42.52494678832590579986572265625" lon="-0.27282834984362125396728515625">
        <ele>1595.5999755859375</ele>
        <time>2020-08-18T10:25:10.000Z</time>
      </trkpt>
      <trkpt lat="42.5249730236828327178955078125" lon="-0.27284972369670867919921875">
        <ele>1596</ele>
        <time>2020-08-18T10:25:12.000Z</time>
      </trkpt>
      <trkpt lat="42.5250075571238994598388671875" lon="-0.27291770093142986297607421875">
        <ele>1597</ele>
        <time>2020-08-18T10:25:16.000Z</time>
      </trkpt>
      <trkpt lat="42.5250115804374217987060546875" lon="-0.27293982915580272674560546875">
        <ele>1597.199951171875</ele>
        <time>2020-08-18T10:25:17.000Z</time>
      </trkpt>
      <trkpt lat="42.52503111027181148529052734375" lon="-0.27316312305629253387451171875">
        <ele>1597.4000244140625</ele>
        <time>2020-08-18T10:25:26.000Z</time>
      </trkpt>
      <trkpt lat="42.52510235644876956939697265625" lon="-0.27336412109434604644775390625">
        <ele>1597.800048828125</ele>
        <time>2020-08-18T10:25:35.000Z</time>
      </trkpt>
      <trkpt lat="42.5251430086791515350341796875" lon="-0.27341977693140506744384765625">
        <ele>1598.199951171875</ele>
        <time>2020-08-18T10:25:38.000Z</time>
      </trkpt>
      <trkpt lat="42.5252097286283969879150390625" lon="-0.27348180301487445831298828125">
        <ele>1599.4000244140625</ele>
        <time>2020-08-18T10:25:43.000Z</time>
      </trkpt>
      <trkpt lat="42.52527971751987934112548828125" lon="-0.27353192679584026336669921875">
        <ele>1600.5999755859375</ele>
        <time>2020-08-18T10:25:48.000Z</time>
      </trkpt>
      <trkpt lat="42.5253300927579402923583984375" lon="-0.27356897480785846710205078125">
        <ele>1601.5999755859375</ele>
        <time>2020-08-18T10:25:52.000Z</time>
      </trkpt>
      <trkpt lat="42.525344006717205047607421875" lon="-0.27357995510101318359375">
        <ele>1601.800048828125</ele>
        <time>2020-08-18T10:25:53.000Z</time>
      </trkpt>
      <trkpt lat="42.525423802435398101806640625" lon="-0.2736411429941654205322265625">
        <ele>1603</ele>
        <time>2020-08-18T10:25:59.000Z</time>
      </trkpt>
      <trkpt lat="42.52546344883739948272705078125" lon="-0.27366335503756999969482421875">
        <ele>1603.5999755859375</ele>
        <time>2020-08-18T10:26:02.000Z</time>
      </trkpt>
      <trkpt lat="42.52551223151385784149169921875" lon="-0.27369755320250988006591796875">
        <ele>1604.199951171875</ele>
        <time>2020-08-18T10:26:06.000Z</time>
      </trkpt>
      <trkpt lat="42.52556436695158481597900390625" lon="-0.27372948825359344482421875">
        <ele>1604.800048828125</ele>
        <time>2020-08-18T10:26:10.000Z</time>
      </trkpt>
      <trkpt lat="42.52559286542236804962158203125" lon="-0.27374231256544589996337890625">
        <ele>1605.199951171875</ele>
        <time>2020-08-18T10:26:12.000Z</time>
      </trkpt>
      <trkpt lat="42.52567970193922519683837890625" lon="-0.27377106249332427978515625">
        <ele>1606.4000244140625</ele>
        <time>2020-08-18T10:26:18.000Z</time>
      </trkpt>
      <trkpt lat="42.52569478936493396759033203125" lon="-0.2737765945494174957275390625">
        <ele>1606.5999755859375</ele>
        <time>2020-08-18T10:26:19.000Z</time>
      </trkpt>
      <trkpt lat="42.5257686339318752288818359375" lon="-0.27379578910768032073974609375">
        <ele>1607.5999755859375</ele>
        <time>2020-08-18T10:26:24.000Z</time>
      </trkpt>
      <trkpt lat="42.525857985019683837890625" lon="-0.27380232699215412139892578125">
        <ele>1608.5999755859375</ele>
        <time>2020-08-18T10:26:30.000Z</time>
      </trkpt>
      <trkpt lat="42.52588656730949878692626953125" lon="-0.27380132116377353668212890625">
        <ele>1608.800048828125</ele>
        <time>2020-08-18T10:26:32.000Z</time>
      </trkpt>
      <trkpt lat="42.52595311962068080902099609375" lon="-0.27380132116377353668212890625">
        <ele>1610</ele>
        <time>2020-08-18T10:26:37.000Z</time>
      </trkpt>
      <trkpt lat="42.52599486149847507476806640625" lon="-0.273801572620868682861328125">
        <ele>1610.199951171875</ele>
        <time>2020-08-18T10:26:40.000Z</time>
      </trkpt>
      <trkpt lat="42.526103071868419647216796875" lon="-0.273783467710018157958984375">
        <ele>1611</ele>
        <time>2020-08-18T10:26:48.000Z</time>
      </trkpt>
      <trkpt lat="42.52615244127810001373291015625" lon="-0.2737410552799701690673828125">
        <ele>1612</ele>
        <time>2020-08-18T10:26:52.000Z</time>
      </trkpt>
      <trkpt lat="42.52618747763335704803466796875" lon="-0.2736947871744632720947265625">
        <ele>1612</ele>
        <time>2020-08-18T10:26:55.000Z</time>
      </trkpt>
      <trkpt lat="42.5261967815458774566650390625" lon="-0.2736763469874858856201171875">
        <ele>1612</ele>
        <time>2020-08-18T10:26:56.000Z</time>
      </trkpt>
      <trkpt lat="42.5262616574764251708984375" lon="-0.27352002449333667755126953125">
        <ele>1613.199951171875</ele>
        <time>2020-08-18T10:27:04.000Z</time>
      </trkpt>
      <trkpt lat="42.52627716399729251861572265625" lon="-0.2734795399010181427001953125">
        <ele>1613.199951171875</ele>
        <time>2020-08-18T10:27:06.000Z</time>
      </trkpt>
      <trkpt lat="42.52631370909512042999267578125" lon="-0.27330075390636920928955078125">
        <ele>1614.199951171875</ele>
        <time>2020-08-18T10:27:14.000Z</time>
      </trkpt>
      <trkpt lat="42.52631437964737415313720703125" lon="-0.27327954769134521484375">
        <ele>1614.4000244140625</ele>
        <time>2020-08-18T10:27:15.000Z</time>
      </trkpt>
      <trkpt lat="42.52628437243402004241943359375" lon="-0.2731352113187313079833984375">
        <ele>1615</ele>
        <time>2020-08-18T10:27:22.000Z</time>
      </trkpt>
      <trkpt lat="42.52626744098961353302001953125" lon="-0.27309782803058624267578125">
        <ele>1615.199951171875</ele>
        <time>2020-08-18T10:27:24.000Z</time>
      </trkpt>
      <trkpt lat="42.52620692364871501922607421875" lon="-0.27299833483994007110595703125">
        <ele>1616</ele>
        <time>2020-08-18T10:27:30.000Z</time>
      </trkpt>
      <trkpt lat="42.5261407904326915740966796875" lon="-0.2728706784546375274658203125">
        <ele>1616.199951171875</ele>
        <time>2020-08-18T10:27:37.000Z</time>
      </trkpt>
      <trkpt lat="42.526131570339202880859375" lon="-0.272852741181850433349609375">
        <ele>1616.4000244140625</ele>
        <time>2020-08-18T10:27:38.000Z</time>
      </trkpt>
      <trkpt lat="42.52608840353786945343017578125" lon="-0.2727871946990489959716796875">
        <ele>1617.4000244140625</ele>
        <time>2020-08-18T10:27:42.000Z</time>
      </trkpt>
      <trkpt lat="42.52603542990982532501220703125" lon="-0.27272500097751617431640625">
        <ele>1618</ele>
        <time>2020-08-18T10:27:46.000Z</time>
      </trkpt>
      <trkpt lat="42.52600810490548610687255859375" lon="-0.27269574813544750213623046875">
        <ele>1618.4000244140625</ele>
        <time>2020-08-18T10:27:48.000Z</time>
      </trkpt>
      <trkpt lat="42.5259325839579105377197265625" lon="-0.2726185508072376251220703125">
        <ele>1619.4000244140625</ele>
        <time>2020-08-18T10:27:53.000Z</time>
      </trkpt>
      <trkpt lat="42.52591908909380435943603515625" lon="-0.2726054750382900238037109375">
        <ele>1619.5999755859375</ele>
        <time>2020-08-18T10:27:54.000Z</time>
      </trkpt>
      <trkpt lat="42.52589888870716094970703125" lon="-0.272573120892047882080078125">
        <ele>1620.199951171875</ele>
        <time>2020-08-18T10:27:56.000Z</time>
      </trkpt>
      <trkpt lat="42.52589285373687744140625" lon="-0.2725535072386264801025390625">
        <ele>1620.5999755859375</ele>
        <time>2020-08-18T10:27:57.000Z</time>
      </trkpt>
      <trkpt lat="42.52588807605206966400146484375" lon="-0.2725095860660076141357421875">
        <ele>1621</ele>
        <time>2020-08-18T10:27:59.000Z</time>
      </trkpt>
      <trkpt lat="42.5258856453001499176025390625" lon="-0.2724686823785305023193359375">
        <ele>1621.800048828125</ele>
        <time>2020-08-18T10:28:01.000Z</time>
      </trkpt>
      <trkpt lat="42.52590534277260303497314453125" lon="-0.272402465343475341796875">
        <ele>1622.4000244140625</ele>
        <time>2020-08-18T10:28:05.000Z</time>
      </trkpt>
      <trkpt lat="42.5259148143231868743896484375" lon="-0.27233582921326160430908203125">
        <ele>1623</ele>
        <time>2020-08-18T10:28:09.000Z</time>
      </trkpt>
      <trkpt lat="42.52591523341834545135498046875" lon="-0.27228134684264659881591796875">
        <ele>1623</ele>
        <time>2020-08-18T10:28:12.000Z</time>
      </trkpt>
      <trkpt lat="42.5258832983672618865966796875" lon="-0.27213416062295436859130859375">
        <ele>1623.800048828125</ele>
        <time>2020-08-18T10:28:20.000Z</time>
      </trkpt>
      <trkpt lat="42.5258393771946430206298828125" lon="-0.2720368467271327972412109375">
        <ele>1624</ele>
        <time>2020-08-18T10:28:26.000Z</time>
      </trkpt>
      <trkpt lat="42.5257874093949794769287109375" lon="-0.27189628221094608306884765625">
        <ele>1625</ele>
        <time>2020-08-18T10:28:34.000Z</time>
      </trkpt>
      <trkpt lat="42.52576536498963832855224609375" lon="-0.2718785963952541351318359375">
        <ele>1625</ele>
        <time>2020-08-18T10:28:36.000Z</time>
      </trkpt>
      <trkpt lat="42.5257170014083385467529296875" lon="-0.2718088589608669281005859375">
        <ele>1625.199951171875</ele>
        <time>2020-08-18T10:28:41.000Z</time>
      </trkpt>
      <trkpt lat="42.52565053291618824005126953125" lon="-0.27166930027306079864501953125">
        <ele>1625.4000244140625</ele>
        <time>2020-08-18T10:28:48.000Z</time>
      </trkpt>
      <trkpt lat="42.52561189234256744384765625" lon="-0.2714893408119678497314453125">
        <ele>1625.4000244140625</ele>
        <time>2020-08-18T10:28:56.000Z</time>
      </trkpt>
      <trkpt lat="42.5255959667265415191650390625" lon="-0.2713072858750820159912109375">
        <ele>1624.800048828125</ele>
        <time>2020-08-18T10:29:02.000Z</time>
      </trkpt>
      <trkpt lat="42.5256023369729518890380859375" lon="-0.27113973163068294525146484375">
        <ele>1625.800048828125</ele>
        <time>2020-08-18T10:29:08.000Z</time>
      </trkpt>
      <trkpt lat="42.52560812048614025115966796875" lon="-0.27106530033051967620849609375">
        <ele>1626.4000244140625</ele>
        <time>2020-08-18T10:29:11.000Z</time>
      </trkpt>
      <trkpt lat="42.525622956454753875732421875" lon="-0.27095164172351360321044921875">
        <ele>1626.800048828125</ele>
        <time>2020-08-18T10:29:16.000Z</time>
      </trkpt>
      <trkpt lat="42.525645084679126739501953125" lon="-0.27076522819697856903076171875">
        <ele>1627.5999755859375</ele>
        <time>2020-08-18T10:29:24.000Z</time>
      </trkpt>
      <trkpt lat="42.5256499461829662322998046875" lon="-0.27074192650616168975830078125">
        <ele>1627.800048828125</ele>
        <time>2020-08-18T10:29:25.000Z</time>
      </trkpt>
      <trkpt lat="42.5257210247218608856201171875" lon="-0.27057328261435031890869140625">
        <ele>1628.5999755859375</ele>
        <time>2020-08-18T10:29:33.000Z</time>
      </trkpt>
      <trkpt lat="42.52572999335825443267822265625" lon="-0.27055115438997745513916015625">
        <ele>1628.800048828125</ele>
        <time>2020-08-18T10:29:34.000Z</time>
      </trkpt>
      <trkpt lat="42.52578581683337688446044921875" lon="-0.27034110389649868011474609375">
        <ele>1629.4000244140625</ele>
        <time>2020-08-18T10:29:43.000Z</time>
      </trkpt>
      <trkpt lat="42.52578481100499629974365234375" lon="-0.2702887170016765594482421875">
        <ele>1629.800048828125</ele>
        <time>2020-08-18T10:29:45.000Z</time>
      </trkpt>
      <trkpt lat="42.52575798891484737396240234375" lon="-0.2701328136026859283447265625">
        <ele>1630.199951171875</ele>
        <time>2020-08-18T10:29:51.000Z</time>
      </trkpt>
      <trkpt lat="42.5256569869816303253173828125" lon="-0.26993458159267902374267578125">
        <ele>1630.4000244140625</ele>
        <time>2020-08-18T10:30:00.000Z</time>
      </trkpt>
      <trkpt lat="42.5256201066076755523681640625" lon="-0.2698320709168910980224609375">
        <ele>1630.800048828125</ele>
        <time>2020-08-18T10:30:04.000Z</time>
      </trkpt>
      <trkpt lat="42.525579370558261871337890625" lon="-0.2697113715112209320068359375">
        <ele>1631.4000244140625</ele>
        <time>2020-08-18T10:30:09.000Z</time>
      </trkpt>
      <trkpt lat="42.5255334377288818359375" lon="-0.26955286972224712371826171875">
        <ele>1632</ele>
        <time>2020-08-18T10:30:16.000Z</time>
      </trkpt>
      <trkpt lat="42.52552262507379055023193359375" lon="-0.26951079256832599639892578125">
        <ele>1632.199951171875</ele>
        <time>2020-08-18T10:30:18.000Z</time>
      </trkpt>
      <trkpt lat="42.52550200559198856353759765625" lon="-0.2693576551973819732666015625">
        <ele>1633</ele>
        <time>2020-08-18T10:30:25.000Z</time>
      </trkpt>
      <trkpt lat="42.52550133503973484039306640625" lon="-0.26933602988719940185546875">
        <ele>1633.4000244140625</ele>
        <time>2020-08-18T10:30:26.000Z</time>
      </trkpt>
      <trkpt lat="42.5255094654858112335205078125" lon="-0.26924550533294677734375">
        <ele>1634.199951171875</ele>
        <time>2020-08-18T10:30:30.000Z</time>
      </trkpt>
      <trkpt lat="42.5255161710083484649658203125" lon="-0.2691289968788623809814453125">
        <ele>1635.4000244140625</ele>
        <time>2020-08-18T10:30:35.000Z</time>
      </trkpt>
      <trkpt lat="42.5255020894110202789306640625" lon="-0.26903805322945117950439453125">
        <ele>1636.5999755859375</ele>
        <time>2020-08-18T10:30:39.000Z</time>
      </trkpt>
      <trkpt lat="42.52549697645008563995361328125" lon="-0.26896613650023937225341796875">
        <ele>1637.800048828125</ele>
        <time>2020-08-18T10:30:43.000Z</time>
      </trkpt>
      <trkpt lat="42.52549412660300731658935546875" lon="-0.26878106407821178436279296875">
        <ele>1638</ele>
        <time>2020-08-18T10:30:51.000Z</time>
      </trkpt>
      <trkpt lat="42.52553100697696208953857421875" lon="-0.26859305799007415771484375">
        <ele>1639</ele>
        <time>2020-08-18T10:30:59.000Z</time>
      </trkpt>
      <trkpt lat="42.52553838305175304412841796875" lon="-0.268571935594081878662109375">
        <ele>1639</ele>
        <time>2020-08-18T10:31:00.000Z</time>
      </trkpt>
      <trkpt lat="42.5256180949509143829345703125" lon="-0.26841963641345500946044921875">
        <ele>1640.199951171875</ele>
        <time>2020-08-18T10:31:08.000Z</time>
      </trkpt>
      <trkpt lat="42.52562890760600566864013671875" lon="-0.2684031240642070770263671875">
        <ele>1640.4000244140625</ele>
        <time>2020-08-18T10:31:09.000Z</time>
      </trkpt>
      <trkpt lat="42.5256757624447345733642578125" lon="-0.26832257397472858428955078125">
        <ele>1641.4000244140625</ele>
        <time>2020-08-18T10:31:14.000Z</time>
      </trkpt>
      <trkpt lat="42.5257166661322116851806640625" lon="-0.2682385034859180450439453125">
        <ele>1642.199951171875</ele>
        <time>2020-08-18T10:31:19.000Z</time>
      </trkpt>
      <trkpt lat="42.52572412602603435516357421875" lon="-0.2682207338511943817138671875">
        <ele>1642.4000244140625</ele>
        <time>2020-08-18T10:31:20.000Z</time>
      </trkpt>
      <trkpt lat="42.52575765363872051239013671875" lon="-0.26808603666722774505615234375">
        <ele>1643.4000244140625</ele>
        <time>2020-08-18T10:31:27.000Z</time>
      </trkpt>
      <trkpt lat="42.5257900916039943695068359375" lon="-0.26792946271598339080810546875">
        <ele>1644.4000244140625</ele>
        <time>2020-08-18T10:31:35.000Z</time>
      </trkpt>
      <trkpt lat="42.5257907621562480926513671875" lon="-0.26791068725287914276123046875">
        <ele>1644.5999755859375</ele>
        <time>2020-08-18T10:31:36.000Z</time>
      </trkpt>
      <trkpt lat="42.5258142314851284027099609375" lon="-0.26781521737575531005859375">
        <ele>1645.199951171875</ele>
        <time>2020-08-18T10:31:41.000Z</time>
      </trkpt>
      <trkpt lat="42.52582185901701450347900390625" lon="-0.2677580527961254119873046875">
        <ele>1645.5999755859375</ele>
        <time>2020-08-18T10:31:44.000Z</time>
      </trkpt>
      <trkpt lat="42.525844573974609375" lon="-0.26763819158077239990234375">
        <ele>1645.800048828125</ele>
        <time>2020-08-18T10:31:50.000Z</time>
      </trkpt>
      <trkpt lat="42.52588941715657711029052734375" lon="-0.2674217708408832550048828125">
        <ele>1646</ele>
        <time>2020-08-18T10:31:59.000Z</time>
      </trkpt>
      <trkpt lat="42.52591405995190143585205078125" lon="-0.26720241643488407135009765625">
        <ele>1646</ele>
        <time>2020-08-18T10:32:08.000Z</time>
      </trkpt>
      <trkpt lat="42.5259329192340373992919921875" lon="-0.26705908589065074920654296875">
        <ele>1646.5999755859375</ele>
        <time>2020-08-18T10:32:14.000Z</time>
      </trkpt>
      <trkpt lat="42.52594272606074810028076171875" lon="-0.266962610185146331787109375">
        <ele>1647.199951171875</ele>
        <time>2020-08-18T10:32:18.000Z</time>
      </trkpt>
      <trkpt lat="42.52594758756458759307861328125" lon="-0.26691089384257793426513671875">
        <ele>1647.800048828125</ele>
        <time>2020-08-18T10:32:20.000Z</time>
      </trkpt>
      <trkpt lat="42.5259694643318653106689453125" lon="-0.26674157939851284027099609375">
        <ele>1649</ele>
        <time>2020-08-18T10:32:27.000Z</time>
      </trkpt>
      <trkpt lat="42.52597399055957794189453125" lon="-0.26671819388866424560546875">
        <ele>1649.199951171875</ele>
        <time>2020-08-18T10:32:28.000Z</time>
      </trkpt>
      <trkpt lat="42.52600978128612041473388671875" lon="-0.26653287000954151153564453125">
        <ele>1650.199951171875</ele>
        <time>2020-08-18T10:32:36.000Z</time>
      </trkpt>
      <trkpt lat="42.526015229523181915283203125" lon="-0.266509987413883209228515625">
        <ele>1650.4000244140625</ele>
        <time>2020-08-18T10:32:37.000Z</time>
      </trkpt>
      <trkpt lat="42.5260636769235134124755859375" lon="-0.26625677011907100677490234375">
        <ele>1651</ele>
        <time>2020-08-18T10:32:48.000Z</time>
      </trkpt>
      <trkpt lat="42.5260703824460506439208984375" lon="-0.26620983146131038665771484375">
        <ele>1651.199951171875</ele>
        <time>2020-08-18T10:32:50.000Z</time>
      </trkpt>
      <trkpt lat="42.52609091810882091522216796875" lon="-0.26605342514812946319580078125">
        <ele>1652.199951171875</ele>
        <time>2020-08-18T10:32:57.000Z</time>
      </trkpt>
      <trkpt lat="42.52609376795589923858642578125" lon="-0.26603045873343944549560546875">
        <ele>1652.199951171875</ele>
        <time>2020-08-18T10:32:58.000Z</time>
      </trkpt>
      <trkpt lat="42.52609594725072383880615234375" lon="-0.265889056026935577392578125">
        <ele>1653.4000244140625</ele>
        <time>2020-08-18T10:33:04.000Z</time>
      </trkpt>
      <trkpt lat="42.52609737217426300048828125" lon="-0.26586499996483325958251953125">
        <ele>1653.5999755859375</ele>
        <time>2020-08-18T10:33:05.000Z</time>
      </trkpt>
      <trkpt lat="42.52610349096357822418212890625" lon="-0.26577078737318515777587890625">
        <ele>1654.4000244140625</ele>
        <time>2020-08-18T10:33:09.000Z</time>
      </trkpt>
      <trkpt lat="42.52610768191516399383544921875" lon="-0.2656736411154270172119140625">
        <ele>1654.4000244140625</ele>
        <time>2020-08-18T10:33:13.000Z</time>
      </trkpt>
      <trkpt lat="42.5261060893535614013671875" lon="-0.2654580585658550262451171875">
        <ele>1655.5999755859375</ele>
        <time>2020-08-18T10:33:23.000Z</time>
      </trkpt>
      <trkpt lat="42.52610583789646625518798828125" lon="-0.26543534360826015472412109375">
        <ele>1655.5999755859375</ele>
        <time>2020-08-18T10:33:24.000Z</time>
      </trkpt>
      <trkpt lat="42.52607968635857105255126953125" lon="-0.2653148956596851348876953125">
        <ele>1655.5999755859375</ele>
        <time>2020-08-18T10:33:29.000Z</time>
      </trkpt>
      <trkpt lat="42.526056468486785888671875" lon="-0.2651081979274749755859375">
        <ele>1655.5999755859375</ele>
        <time>2020-08-18T10:33:36.000Z</time>
      </trkpt>
      <trkpt lat="42.52607365138828754425048828125" lon="-0.264881215989589691162109375">
        <ele>1655.199951171875</ele>
        <time>2020-08-18T10:33:44.000Z</time>
      </trkpt>
      <trkpt lat="42.52613182179629802703857421875" lon="-0.2647512964904308319091796875">
        <ele>1656</ele>
        <time>2020-08-18T10:33:50.000Z</time>
      </trkpt>
      <trkpt lat="42.5261481665074825286865234375" lon="-0.26454216800630092620849609375">
        <ele>1656.800048828125</ele>
        <time>2020-08-18T10:33:58.000Z</time>
      </trkpt>
      <trkpt lat="42.52614221535623073577880859375" lon="-0.26449321769177913665771484375">
        <ele>1657</ele>
        <time>2020-08-18T10:34:00.000Z</time>
      </trkpt>
      <trkpt lat="42.52611212432384490966796875" lon="-0.26432725600898265838623046875">
        <ele>1657.5999755859375</ele>
        <time>2020-08-18T10:34:07.000Z</time>
      </trkpt>
      <trkpt lat="42.52611002884805202484130859375" lon="-0.26430420577526092529296875">
        <ele>1658</ele>
        <time>2020-08-18T10:34:08.000Z</time>
      </trkpt>
      <trkpt lat="42.52607616595923900604248046875" lon="-0.26417302899062633514404296875">
        <ele>1658.5999755859375</ele>
        <time>2020-08-18T10:34:14.000Z</time>
      </trkpt>
      <trkpt lat="42.526056803762912750244140625" lon="-0.26410865597426891326904296875">
        <ele>1659</ele>
        <time>2020-08-18T10:34:17.000Z</time>
      </trkpt>
      <trkpt lat="42.52603794448077678680419921875" lon="-0.2640291117131710052490234375">
        <ele>1659.5999755859375</ele>
        <time>2020-08-18T10:34:21.000Z</time>
      </trkpt>
      <trkpt lat="42.5260123796761035919189453125" lon="-0.26392760686576366424560546875">
        <ele>1660.199951171875</ele>
        <time>2020-08-18T10:34:26.000Z</time>
      </trkpt>
      <trkpt lat="42.525985054671764373779296875" lon="-0.26384529657661914825439453125">
        <ele>1660.800048828125</ele>
        <time>2020-08-18T10:34:30.000Z</time>
      </trkpt>
      <trkpt lat="42.52596301026642322540283203125" lon="-0.26373884640634059906005859375">
        <ele>1661.199951171875</ele>
        <time>2020-08-18T10:34:35.000Z</time>
      </trkpt>
      <trkpt lat="42.52594524063169956207275390625" lon="-0.26365150697529315948486328125">
        <ele>1661.5999755859375</ele>
        <time>2020-08-18T10:34:39.000Z</time>
      </trkpt>
      <trkpt lat="42.5259156525135040283203125" lon="-0.263522677123546600341796875">
        <ele>1662.199951171875</ele>
        <time>2020-08-18T10:34:45.000Z</time>
      </trkpt>
      <trkpt lat="42.52588874660432338714599609375" lon="-0.2634205855429172515869140625">
        <ele>1662.800048828125</ele>
        <time>2020-08-18T10:34:50.000Z</time>
      </trkpt>
      <trkpt lat="42.52584331668913364410400390625" lon="-0.26328764855861663818359375">
        <ele>1663.5999755859375</ele>
        <time>2020-08-18T10:34:56.000Z</time>
      </trkpt>
      <trkpt lat="42.52583744935691356658935546875" lon="-0.26324339210987091064453125">
        <ele>1664</ele>
        <time>2020-08-18T10:34:58.000Z</time>
      </trkpt>
      <trkpt lat="42.52583091147243976593017578125" lon="-0.26320047676563262939453125">
        <ele>1664.5999755859375</ele>
        <time>2020-08-18T10:35:00.000Z</time>
      </trkpt>
      <trkpt lat="42.52583040855824947357177734375" lon="-0.2631144784390926361083984375">
        <ele>1666</ele>
        <time>2020-08-18T10:35:04.000Z</time>
      </trkpt>
      <trkpt lat="42.5258325040340423583984375" lon="-0.26307349093258380889892578125">
        <ele>1666.4000244140625</ele>
        <time>2020-08-18T10:35:06.000Z</time>
      </trkpt>
      <trkpt lat="42.52583912573754787445068359375" lon="-0.26301682926714420318603515625">
        <ele>1667</ele>
        <time>2020-08-18T10:35:09.000Z</time>
      </trkpt>
      <trkpt lat="42.52584247849881649017333984375" lon="-0.2629978023469448089599609375">
        <ele>1667.4000244140625</ele>
        <time>2020-08-18T10:35:13.000Z</time>
      </trkpt>
      <trkpt lat="42.52585169859230518341064453125" lon="-0.2629522047936916351318359375">
        <ele>1667.4000244140625</ele>
        <time>2020-08-18T10:35:26.000Z</time>
      </trkpt>
      <trkpt lat="42.52585203386843204498291015625" lon="-0.26289747096598148345947265625">
        <ele>1668.199951171875</ele>
        <time>2020-08-18T10:35:29.000Z</time>
      </trkpt>
      <trkpt lat="42.5258430652320384979248046875" lon="-0.26285489089787006378173828125">
        <ele>1668.5999755859375</ele>
        <time>2020-08-18T10:35:32.000Z</time>
      </trkpt>
      <trkpt lat="42.5258437357842922210693359375" lon="-0.2628546394407749176025390625">
        <ele>1668.5999755859375</ele>
        <time>2020-08-18T10:35:42.000Z</time>
      </trkpt>
      <trkpt lat="42.52584415487945079803466796875" lon="-0.2628549747169017791748046875">
        <ele>1668.5999755859375</ele>
        <time>2020-08-18T10:36:00.000Z</time>
      </trkpt>
      <trkpt lat="42.52584398724138736724853515625" lon="-0.26285623200237751007080078125">
        <ele>1668.5999755859375</ele>
        <time>2020-08-18T10:36:29.000Z</time>
      </trkpt>
      <trkpt lat="42.52584415487945079803466796875" lon="-0.26285656727850437164306640625">
        <ele>1668.800048828125</ele>
        <time>2020-08-18T10:36:42.000Z</time>
      </trkpt>
      <trkpt lat="42.5258457474410533905029296875" lon="-0.26285790838301181793212890625">
        <ele>1669</ele>
        <time>2020-08-18T10:37:41.000Z</time>
      </trkpt>
      <trkpt lat="42.52584532834589481353759765625" lon="-0.262848101556301116943359375">
        <ele>1668.800048828125</ele>
        <time>2020-08-18T10:37:48.000Z</time>
      </trkpt>
      <trkpt lat="42.52583912573754787445068359375" lon="-0.26282253675162792205810546875">
        <ele>1668.800048828125</ele>
        <time>2020-08-18T10:37:50.000Z</time>
      </trkpt>
      <trkpt lat="42.52581850625574588775634765625" lon="-0.26276059448719024658203125">
        <ele>1669.199951171875</ele>
        <time>2020-08-18T10:37:54.000Z</time>
      </trkpt>
      <trkpt lat="42.52576536498963832855224609375" lon="-0.2626833133399486541748046875">
        <ele>1669.199951171875</ele>
        <time>2020-08-18T10:37:59.000Z</time>
      </trkpt>
      <trkpt lat="42.5257532112300395965576171875" lon="-0.262667052447795867919921875">
        <ele>1669.4000244140625</ele>
        <time>2020-08-18T10:38:00.000Z</time>
      </trkpt>
      <trkpt lat="42.5257398001849651336669921875" lon="-0.2626507915556430816650390625">
        <ele>1669.199951171875</ele>
        <time>2020-08-18T10:38:01.000Z</time>
      </trkpt>
      <trkpt lat="42.52562488429248332977294921875" lon="-0.262510813772678375244140625">
        <ele>1669.800048828125</ele>
        <time>2020-08-18T10:38:10.000Z</time>
      </trkpt>
      <trkpt lat="42.5255815498530864715576171875" lon="-0.262416936457157135009765625">
        <ele>1670.4000244140625</ele>
        <time>2020-08-18T10:38:15.000Z</time>
      </trkpt>
      <trkpt lat="42.52554676495492458343505859375" lon="-0.26231274940073490142822265625">
        <ele>1670.5999755859375</ele>
        <time>2020-08-18T10:38:20.000Z</time>
      </trkpt>
      <trkpt lat="42.5254918634891510009765625" lon="-0.26211552321910858154296875">
        <ele>1671.199951171875</ele>
        <time>2020-08-18T10:38:29.000Z</time>
      </trkpt>
      <trkpt lat="42.525444589555263519287109375" lon="-0.26193338446319103240966796875">
        <ele>1671.4000244140625</ele>
        <time>2020-08-18T10:38:37.000Z</time>
      </trkpt>
      <trkpt lat="42.525405026972293853759765625" lon="-0.26175384409725666046142578125">
        <ele>1672.5999755859375</ele>
        <time>2020-08-18T10:38:45.000Z</time>
      </trkpt>
      <trkpt lat="42.52537719905376434326171875" lon="-0.26161587797105312347412109375">
        <ele>1673.800048828125</ele>
        <time>2020-08-18T10:38:51.000Z</time>
      </trkpt>
      <trkpt lat="42.52536839805543422698974609375" lon="-0.26157279498875141143798828125">
        <ele>1673.800048828125</ele>
        <time>2020-08-18T10:38:53.000Z</time>
      </trkpt>
      <trkpt lat="42.52533570863306522369384765625" lon="-0.2614501677453517913818359375">
        <ele>1674.800048828125</ele>
        <time>2020-08-18T10:38:59.000Z</time>
      </trkpt>
      <trkpt lat="42.525319196283817291259765625" lon="-0.26141253300011157989501953125">
        <ele>1675.199951171875</ele>
        <time>2020-08-18T10:39:01.000Z</time>
      </trkpt>
      <trkpt lat="42.52525515854358673095703125" lon="-0.26125076226890087127685546875">
        <ele>1675.800048828125</ele>
        <time>2020-08-18T10:39:09.000Z</time>
      </trkpt>
      <trkpt lat="42.5252343714237213134765625" lon="-0.26116442866623401641845703125">
        <ele>1676.199951171875</ele>
        <time>2020-08-18T10:39:13.000Z</time>
      </trkpt>
      <trkpt lat="42.52521316520869731903076171875" lon="-0.261059068143367767333984375">
        <ele>1676.800048828125</ele>
        <time>2020-08-18T10:39:18.000Z</time>
      </trkpt>
      <trkpt lat="42.52521366812288761138916015625" lon="-0.260921604931354522705078125">
        <ele>1677.4000244140625</ele>
        <time>2020-08-18T10:39:24.000Z</time>
      </trkpt>
      <trkpt lat="42.5252144224941730499267578125" lon="-0.26090073399245738983154296875">
        <ele>1677.5999755859375</ele>
        <time>2020-08-18T10:39:25.000Z</time>
      </trkpt>
      <trkpt lat="42.52522054128348827362060546875" lon="-0.2607467584311962127685546875">
        <ele>1678.199951171875</ele>
        <time>2020-08-18T10:39:32.000Z</time>
      </trkpt>
      <trkpt lat="42.52522104419767856597900390625" lon="-0.2606803737580776214599609375">
        <ele>1678.5999755859375</ele>
        <time>2020-08-18T10:39:35.000Z</time>
      </trkpt>
      <trkpt lat="42.52522297203540802001953125" lon="-0.26058708317577838897705078125">
        <ele>1678.800048828125</ele>
        <time>2020-08-18T10:39:39.000Z</time>
      </trkpt>
      <trkpt lat="42.52523428760468959808349609375" lon="-0.26047375984489917755126953125">
        <ele>1679.800048828125</ele>
        <time>2020-08-18T10:39:44.000Z</time>
      </trkpt>
      <trkpt lat="42.52526245079934597015380859375" lon="-0.2603960596024990081787109375">
        <ele>1680.199951171875</ele>
        <time>2020-08-18T10:39:48.000Z</time>
      </trkpt>
      <trkpt lat="42.52529664896428585052490234375" lon="-0.2603501267731189727783203125">
        <ele>1680.800048828125</ele>
        <time>2020-08-18T10:39:52.000Z</time>
      </trkpt>
      <trkpt lat="42.52529664896428585052490234375" lon="-0.26034886948764324188232421875">
        <ele>1681</ele>
        <time>2020-08-18T10:39:54.000Z</time>
      </trkpt>
      <trkpt lat="42.52533101476728916168212890625" lon="-0.26035188697278499603271484375">
        <ele>1681.199951171875</ele>
        <time>2020-08-18T10:40:00.000Z</time>
      </trkpt>
      <trkpt lat="42.52537451684474945068359375" lon="-0.260383822023868560791015625">
        <ele>1682</ele>
        <time>2020-08-18T10:40:04.000Z</time>
      </trkpt>
      <trkpt lat="42.525399662554264068603515625" lon="-0.26040636934340000152587890625">
        <ele>1682.4000244140625</ele>
        <time>2020-08-18T10:40:06.000Z</time>
      </trkpt>
      <trkpt lat="42.52543352544307708740234375" lon="-0.26044526137411594390869140625">
        <ele>1683</ele>
        <time>2020-08-18T10:40:09.000Z</time>
      </trkpt>
      <trkpt lat="42.52549379132688045501708984375" lon="-0.2605432458221912384033203125">
        <ele>1683.800048828125</ele>
        <time>2020-08-18T10:40:15.000Z</time>
      </trkpt>
      <trkpt lat="42.52550770528614521026611328125" lon="-0.260579623281955718994140625">
        <ele>1684.199951171875</ele>
        <time>2020-08-18T10:40:17.000Z</time>
      </trkpt>
      <trkpt lat="42.5255644507706165313720703125" lon="-0.2606981433928012847900390625">
        <ele>1685.4000244140625</ele>
        <time>2020-08-18T10:40:24.000Z</time>
      </trkpt>
      <trkpt lat="42.52558833919465541839599609375" lon="-0.26075522415339946746826171875">
        <ele>1686.5999755859375</ele>
        <time>2020-08-18T10:40:27.000Z</time>
      </trkpt>
      <trkpt lat="42.52562220208346843719482421875" lon="-0.26086301542818546295166015625">
        <ele>1687.5999755859375</ele>
        <time>2020-08-18T10:40:33.000Z</time>
      </trkpt>
      <trkpt lat="42.52562907524406909942626953125" lon="-0.260880030691623687744140625">
        <ele>1687.5999755859375</ele>
        <time>2020-08-18T10:40:34.000Z</time>
      </trkpt>
      <trkpt lat="42.5256794504821300506591796875" lon="-0.26099008508026599884033203125">
        <ele>1688.4000244140625</ele>
        <time>2020-08-18T10:40:40.000Z</time>
      </trkpt>
      <trkpt lat="42.52569763921201229095458984375" lon="-0.26102478615939617156982421875">
        <ele>1688.800048828125</ele>
        <time>2020-08-18T10:40:42.000Z</time>
      </trkpt>
      <trkpt lat="42.52574373967945575714111328125" lon="-0.2611091919243335723876953125">
        <ele>1690</ele>
        <time>2020-08-18T10:40:47.000Z</time>
      </trkpt>
      <trkpt lat="42.52575463615357875823974609375" lon="-0.26112386025488376617431640625">
        <ele>1690</ele>
        <time>2020-08-18T10:40:48.000Z</time>
      </trkpt>
      <trkpt lat="42.52584700472652912139892578125" lon="-0.26123114861547946929931640625">
        <ele>1691.199951171875</ele>
        <time>2020-08-18T10:40:56.000Z</time>
      </trkpt>
      <trkpt lat="42.525889836251735687255859375" lon="-0.26129099540412425994873046875">
        <ele>1692.199951171875</ele>
        <time>2020-08-18T10:41:00.000Z</time>
      </trkpt>
      <trkpt lat="42.525922693312168121337890625" lon="-0.2613351680338382720947265625">
        <ele>1692.5999755859375</ele>
        <time>2020-08-18T10:41:03.000Z</time>
      </trkpt>
      <trkpt lat="42.52596485428512096405029296875" lon="-0.2613881416618824005126953125">
        <ele>1693.199951171875</ele>
        <time>2020-08-18T10:41:07.000Z</time>
      </trkpt>
      <trkpt lat="42.52599268220365047454833984375" lon="-0.26141068898141384124755859375">
        <ele>1693.800048828125</ele>
        <time>2020-08-18T10:41:11.000Z</time>
      </trkpt>
      <trkpt lat="42.52599217928946018218994140625" lon="-0.261413119733333587646484375">
        <ele>1693.5999755859375</ele>
        <time>2020-08-18T10:42:20.000Z</time>
      </trkpt>
      <trkpt lat="42.52602252177894115447998046875" lon="-0.261435918509960174560546875">
        <ele>1694</ele>
        <time>2020-08-18T10:42:25.000Z</time>
      </trkpt>
      <trkpt lat="42.52603677101433277130126953125" lon="-0.26144564151763916015625">
        <ele>1694.199951171875</ele>
        <time>2020-08-18T10:42:26.000Z</time>
      </trkpt>
      <trkpt lat="42.52610969357192516326904296875" lon="-0.2615024708211421966552734375">
        <ele>1695.199951171875</ele>
        <time>2020-08-18T10:42:31.000Z</time>
      </trkpt>
      <trkpt lat="42.5261542014777660369873046875" lon="-0.261541195213794708251953125">
        <ele>1696.199951171875</ele>
        <time>2020-08-18T10:42:34.000Z</time>
      </trkpt>
      <trkpt lat="42.526169121265411376953125" lon="-0.26155418716371059417724609375">
        <ele>1696.4000244140625</ele>
        <time>2020-08-18T10:42:35.000Z</time>
      </trkpt>
      <trkpt lat="42.5262403674423694610595703125" lon="-0.2616245113313198089599609375">
        <ele>1697.5999755859375</ele>
        <time>2020-08-18T10:42:40.000Z</time>
      </trkpt>
      <trkpt lat="42.526284120976924896240234375" lon="-0.2616637386381626129150390625">
        <ele>1698.800048828125</ele>
        <time>2020-08-18T10:42:43.000Z</time>
      </trkpt>
      <trkpt lat="42.5262997113168239593505859375" lon="-0.26167589239776134490966796875">
        <ele>1699</ele>
        <time>2020-08-18T10:42:44.000Z</time>
      </trkpt>
      <trkpt lat="42.5263905711472034454345703125" lon="-0.26175417937338352203369140625">
        <ele>1700.199951171875</ele>
        <time>2020-08-18T10:42:50.000Z</time>
      </trkpt>
      <trkpt lat="42.5264214165508747100830078125" lon="-0.2617844380438327789306640625">
        <ele>1700.800048828125</ele>
        <time>2020-08-18T10:42:52.000Z</time>
      </trkpt>
      <trkpt lat="42.52643558196723461151123046875" lon="-0.2618001960217952728271484375">
        <ele>1701.4000244140625</ele>
        <time>2020-08-18T10:42:53.000Z</time>
      </trkpt>
      <trkpt lat="42.52647983841598033905029296875" lon="-0.261836908757686614990234375">
        <ele>1702.4000244140625</ele>
        <time>2020-08-18T10:42:56.000Z</time>
      </trkpt>
      <trkpt lat="42.52652409486472606658935546875" lon="-0.26188359595835208892822265625">
        <ele>1703.199951171875</ele>
        <time>2020-08-18T10:42:59.000Z</time>
      </trkpt>
      <trkpt lat="42.526538930833339691162109375" lon="-0.2619016170501708984375">
        <ele>1703.800048828125</ele>
        <time>2020-08-18T10:43:00.000Z</time>
      </trkpt>
      <trkpt lat="42.526580505073070526123046875" lon="-0.2619591169059276580810546875">
        <ele>1705</ele>
        <time>2020-08-18T10:43:03.000Z</time>
      </trkpt>
      <trkpt lat="42.52661646343767642974853515625" lon="-0.26200597174465656280517578125">
        <ele>1705.4000244140625</ele>
        <time>2020-08-18T10:43:06.000Z</time>
      </trkpt>
      <trkpt lat="42.5266866199672222137451171875" lon="-0.26208425872027873992919921875">
        <ele>1706.5999755859375</ele>
        <time>2020-08-18T10:43:11.000Z</time>
      </trkpt>
      <trkpt lat="42.52671050839126110076904296875" lon="-0.2620979212224483489990234375">
        <ele>1707.5999755859375</ele>
        <time>2020-08-18T10:43:14.000Z</time>
      </trkpt>
      <trkpt lat="42.526709251105785369873046875" lon="-0.26209968142211437225341796875">
        <ele>1708.800048828125</ele>
        <time>2020-08-18T10:43:19.000Z</time>
      </trkpt>
      <trkpt lat="42.5267084129154682159423828125" lon="-0.26209968142211437225341796875">
        <ele>1708.800048828125</ele>
        <time>2020-08-18T10:43:22.000Z</time>
      </trkpt>
      <trkpt lat="42.52670749090611934661865234375" lon="-0.26209951378405094146728515625">
        <ele>1708.800048828125</ele>
        <time>2020-08-18T10:43:31.000Z</time>
      </trkpt>
      <trkpt lat="42.5267064012587070465087890625" lon="-0.26210010051727294921875">
        <ele>1708.800048828125</ele>
        <time>2020-08-18T10:44:47.000Z</time>
      </trkpt>
      <trkpt lat="42.52672098577022552490234375" lon="-0.2621073089540004730224609375">
        <ele>1708.4000244140625</ele>
        <time>2020-08-18T10:44:52.000Z</time>
      </trkpt>
      <trkpt lat="42.526776976883411407470703125" lon="-0.26213287375867366790771484375">
        <ele>1709.5999755859375</ele>
        <time>2020-08-18T10:45:00.000Z</time>
      </trkpt>
      <trkpt lat="42.52679030410945415496826171875" lon="-0.2621376514434814453125">
        <ele>1709.800048828125</ele>
        <time>2020-08-18T10:45:02.000Z</time>
      </trkpt>
      <trkpt lat="42.5268329679965972900390625" lon="-0.26214343495666980743408203125">
        <ele>1710.800048828125</ele>
        <time>2020-08-18T10:45:08.000Z</time>
      </trkpt>
      <trkpt lat="42.5268592871725559234619140625" lon="-0.26214628480374813079833984375">
        <ele>1711</ele>
        <time>2020-08-18T10:45:12.000Z</time>
      </trkpt>
      <trkpt lat="42.5268690101802349090576171875" lon="-0.26213974691927433013916015625">
        <ele>1711.5999755859375</ele>
        <time>2020-08-18T10:45:20.000Z</time>
      </trkpt>
      <trkpt lat="42.526869513094425201416015625" lon="-0.262138657271862030029296875">
        <ele>1711.5999755859375</ele>
        <time>2020-08-18T10:45:40.000Z</time>
      </trkpt>
      <trkpt lat="42.5268696807324886322021484375" lon="-0.262136645615100860595703125">
        <ele>1711.5999755859375</ele>
        <time>2020-08-18T10:46:43.000Z</time>
      </trkpt>
      <trkpt lat="42.52686976455152034759521484375" lon="-0.2621364779770374298095703125">
        <ele>1711.800048828125</ele>
        <time>2020-08-18T10:46:44.000Z</time>
      </trkpt>
      <trkpt lat="42.52687362022697925567626953125" lon="-0.26213563978672027587890625">
        <ele>1711.800048828125</ele>
        <time>2020-08-18T10:46:46.000Z</time>
      </trkpt>
      <trkpt lat="42.52693480812013149261474609375" lon="-0.26212222874164581298828125">
        <ele>1712.5999755859375</ele>
        <time>2020-08-18T10:46:56.000Z</time>
      </trkpt>
      <trkpt lat="42.52695970237255096435546875" lon="-0.2621130086481571197509765625">
        <ele>1712.800048828125</ele>
        <time>2020-08-18T10:47:00.000Z</time>
      </trkpt>
      <trkpt lat="42.52699364908039569854736328125" lon="-0.26211057789623737335205078125">
        <ele>1713.4000244140625</ele>
        <time>2020-08-18T10:47:05.000Z</time>
      </trkpt>
      <trkpt lat="42.5270353071391582489013671875" lon="-0.26212097145617008209228515625">
        <ele>1714</ele>
        <time>2020-08-18T10:47:11.000Z</time>
      </trkpt>
      <trkpt lat="42.527053914964199066162109375" lon="-0.262124575674533843994140625">
        <ele>1714.5999755859375</ele>
        <time>2020-08-18T10:47:14.000Z</time>
      </trkpt>
      <trkpt lat="42.52708937041461467742919921875" lon="-0.26214544661343097686767578125">
        <ele>1715</ele>
        <time>2020-08-18T10:47:20.000Z</time>
      </trkpt>
      <trkpt lat="42.52710127271711826324462890625" lon="-0.262159444391727447509765625">
        <ele>1715.4000244140625</ele>
        <time>2020-08-18T10:47:22.000Z</time>
      </trkpt>
      <trkpt lat="42.52712608315050601959228515625" lon="-0.26220001280307769775390625">
        <ele>1716.199951171875</ele>
        <time>2020-08-18T10:47:28.000Z</time>
      </trkpt>
      <trkpt lat="42.52714184112846851348876953125" lon="-0.26223488152027130126953125">
        <ele>1716.800048828125</ele>
        <time>2020-08-18T10:47:33.000Z</time>
      </trkpt>
      <trkpt lat="42.52715508453547954559326171875" lon="-0.262267403304576873779296875">
        <ele>1717.199951171875</ele>
        <time>2020-08-18T10:47:37.000Z</time>
      </trkpt>
      <trkpt lat="42.52716296352446079254150390625" lon="-0.26230688206851482391357421875">
        <ele>1717.4000244140625</ele>
        <time>2020-08-18T10:47:41.000Z</time>
      </trkpt>
      <trkpt lat="42.52716581337153911590576171875" lon="-0.262318365275859832763671875">
        <ele>1717.4000244140625</ele>
        <time>2020-08-18T10:47:42.000Z</time>
      </trkpt>
      <trkpt lat="42.52719162963330745697021484375" lon="-0.2623574249446392059326171875">
        <ele>1718.199951171875</ele>
        <time>2020-08-18T10:47:47.000Z</time>
      </trkpt>
      <trkpt lat="42.5272022746503353118896484375" lon="-0.26239137165248394012451171875">
        <ele>1718.800048828125</ele>
        <time>2020-08-18T10:47:54.000Z</time>
      </trkpt>
      <trkpt lat="42.5272093154489994049072265625" lon="-0.26243948377668857574462890625">
        <ele>1719</ele>
        <time>2020-08-18T10:48:00.000Z</time>
      </trkpt>
      <trkpt lat="42.527215518057346343994140625" lon="-0.262476615607738494873046875">
        <ele>1719.199951171875</ele>
        <time>2020-08-18T10:48:02.000Z</time>
      </trkpt>
      <trkpt lat="42.52725650556385517120361328125" lon="-0.262596309185028076171875">
        <ele>1719.5999755859375</ele>
        <time>2020-08-18T10:48:08.000Z</time>
      </trkpt>
      <trkpt lat="42.5272808969020843505859375" lon="-0.26265054009854793548583984375">
        <ele>1720.199951171875</ele>
        <time>2020-08-18T10:48:11.000Z</time>
      </trkpt>
      <trkpt lat="42.5273296795785427093505859375" lon="-0.26276252232491970062255859375">
        <ele>1720.800048828125</ele>
        <time>2020-08-18T10:48:17.000Z</time>
      </trkpt>
      <trkpt lat="42.527361027896404266357421875" lon="-0.26285983622074127197265625">
        <ele>1721.4000244140625</ele>
        <time>2020-08-18T10:48:22.000Z</time>
      </trkpt>
      <trkpt lat="42.5273762829601764678955078125" lon="-0.26290115900337696075439453125">
        <ele>1721.800048828125</ele>
        <time>2020-08-18T10:48:24.000Z</time>
      </trkpt>
      <trkpt lat="42.52740670926868915557861328125" lon="-0.262971818447113037109375">
        <ele>1722.5999755859375</ele>
        <time>2020-08-18T10:48:28.000Z</time>
      </trkpt>
      <trkpt lat="42.5274322740733623504638671875" lon="-0.26302001439034938812255859375">
        <ele>1722.800048828125</ele>
        <time>2020-08-18T10:48:31.000Z</time>
      </trkpt>
      <trkpt lat="42.52748533152043819427490234375" lon="-0.26314440183341503143310546875">
        <ele>1723.5999755859375</ele>
        <time>2020-08-18T10:48:38.000Z</time>
      </trkpt>
      <trkpt lat="42.52749136649072170257568359375" lon="-0.2631609141826629638671875">
        <ele>1723.800048828125</ele>
        <time>2020-08-18T10:48:39.000Z</time>
      </trkpt>
      <trkpt lat="42.52753076143562793731689453125" lon="-0.26326376013457775115966796875">
        <ele>1724.800048828125</ele>
        <time>2020-08-18T10:48:45.000Z</time>
      </trkpt>
      <trkpt lat="42.527556158602237701416015625" lon="-0.26332930661737918853759765625">
        <ele>1725</ele>
        <time>2020-08-18T10:48:49.000Z</time>
      </trkpt>
      <trkpt lat="42.52759530209004878997802734375" lon="-0.26343089528381824493408203125">
        <ele>1726</ele>
        <time>2020-08-18T10:48:55.000Z</time>
      </trkpt>
      <trkpt lat="42.52760301344096660614013671875" lon="-0.26344732381403446197509765625">
        <ele>1726</ele>
        <time>2020-08-18T10:48:56.000Z</time>
      </trkpt>
      <trkpt lat="42.5276572443544864654541015625" lon="-0.26358403265476226806640625">
        <ele>1726.4000244140625</ele>
        <time>2020-08-18T10:49:04.000Z</time>
      </trkpt>
      <trkpt lat="42.5276964716613292694091796875" lon="-0.26366726495325565338134765625">
        <ele>1727.199951171875</ele>
        <time>2020-08-18T10:49:09.000Z</time>
      </trkpt>
      <trkpt lat="42.52772253938019275665283203125" lon="-0.26371554471552371978759765625">
        <ele>1727.4000244140625</ele>
        <time>2020-08-18T10:49:12.000Z</time>
      </trkpt>
      <trkpt lat="42.52778640948235988616943359375" lon="-0.26383859105408191680908203125">
        <ele>1728.199951171875</ele>
        <time>2020-08-18T10:49:19.000Z</time>
      </trkpt>
      <trkpt lat="42.52779244445264339447021484375" lon="-0.2638574503362178802490234375">
        <ele>1728.199951171875</ele>
        <time>2020-08-18T10:49:20.000Z</time>
      </trkpt>
      <trkpt lat="42.52783837728202342987060546875" lon="-0.2639714442193508148193359375">
        <ele>1729.4000244140625</ele>
        <time>2020-08-18T10:49:26.000Z</time>
      </trkpt>
      <trkpt lat="42.527845166623592376708984375" lon="-0.26399063877761363983154296875">
        <ele>1729.5999755859375</ele>
        <time>2020-08-18T10:49:27.000Z</time>
      </trkpt>
      <trkpt lat="42.5279070250689983367919921875" lon="-0.26411418803036212921142578125">
        <ele>1730.199951171875</ele>
        <time>2020-08-18T10:49:34.000Z</time>
      </trkpt>
      <trkpt lat="42.52792672254145145416259765625" lon="-0.2641477994620800018310546875">
        <ele>1730.4000244140625</ele>
        <time>2020-08-18T10:49:36.000Z</time>
      </trkpt>
      <trkpt lat="42.52797919325530529022216796875" lon="-0.26424762792885303497314453125">
        <ele>1731.199951171875</ele>
        <time>2020-08-18T10:49:41.000Z</time>
      </trkpt>
      <trkpt lat="42.52799310721457004547119140625" lon="-0.2642698399722576141357421875">
        <ele>1732</ele>
        <time>2020-08-18T10:49:42.000Z</time>
      </trkpt>
      <trkpt lat="42.5280428119003772735595703125" lon="-0.2643576823174953460693359375">
        <ele>1731.800048828125</ele>
        <time>2020-08-18T10:49:47.000Z</time>
      </trkpt>
      <trkpt lat="42.5280813686549663543701171875" lon="-0.26443672366440296173095703125">
        <ele>1733</ele>
        <time>2020-08-18T10:49:51.000Z</time>
      </trkpt>
      <trkpt lat="42.52810777164995670318603515625" lon="-0.26452423073351383209228515625">
        <ele>1734.199951171875</ele>
        <time>2020-08-18T10:49:55.000Z</time>
      </trkpt>
      <trkpt lat="42.52813928760588169097900390625" lon="-0.26467275805771350860595703125">
        <ele>1734.800048828125</ele>
        <time>2020-08-18T10:50:02.000Z</time>
      </trkpt>
      <trkpt lat="42.5281547941267490386962890625" lon="-0.26469924487173557281494140625">
        <ele>1735.199951171875</ele>
        <time>2020-08-18T10:50:05.000Z</time>
      </trkpt>
      <trkpt lat="42.5281537882983684539794921875" lon="-0.26469974778592586517333984375">
        <ele>1735.199951171875</ele>
        <time>2020-08-18T10:50:06.000Z</time>
      </trkpt>
      <trkpt lat="42.528153620660305023193359375" lon="-0.26469924487173557281494140625">
        <ele>1735.199951171875</ele>
        <time>2020-08-18T10:50:07.000Z</time>
      </trkpt>
      <trkpt lat="42.528177089989185333251953125" lon="-0.26469320990145206451416015625">
        <ele>1735.800048828125</ele>
        <time>2020-08-18T10:51:29.000Z</time>
      </trkpt>
      <trkpt lat="42.52820014022290706634521484375" lon="-0.26467761956155300140380859375">
        <ele>1735.5999755859375</ele>
        <time>2020-08-18T10:51:34.000Z</time>
      </trkpt>
      <trkpt lat="42.52820558845996856689453125" lon="-0.26466689072549343109130859375">
        <ele>1735.800048828125</ele>
        <time>2020-08-18T10:51:35.000Z</time>
      </trkpt>
      <trkpt lat="42.5282168202102184295654296875" lon="-0.26463503949344158172607421875">
        <ele>1735.800048828125</ele>
        <time>2020-08-18T10:51:37.000Z</time>
      </trkpt>
      <trkpt lat="42.5282223522663116455078125" lon="-0.26460058987140655517578125">
        <ele>1735.800048828125</ele>
        <time>2020-08-18T10:51:39.000Z</time>
      </trkpt>
      <trkpt lat="42.5282116234302520751953125" lon="-0.26456831954419612884521484375">
        <ele>1736</ele>
        <time>2020-08-18T10:51:41.000Z</time>
      </trkpt>
      <trkpt lat="42.5281982123851776123046875" lon="-0.26453395374119281768798828125">
        <ele>1736.199951171875</ele>
        <time>2020-08-18T10:51:43.000Z</time>
      </trkpt>
      <trkpt lat="42.52818304114043712615966796875" lon="-0.264477543532848358154296875">
        <ele>1737</ele>
        <time>2020-08-18T10:51:46.000Z</time>
      </trkpt>
      <trkpt lat="42.5281620025634765625" lon="-0.26441727764904499053955078125">
        <ele>1737.5999755859375</ele>
        <time>2020-08-18T10:51:49.000Z</time>
      </trkpt>
      <trkpt lat="42.52814716659486293792724609375" lon="-0.2643791399896144866943359375">
        <ele>1738</ele>
        <time>2020-08-18T10:51:51.000Z</time>
      </trkpt>
      <trkpt lat="42.528097964823246002197265625" lon="-0.264218710362911224365234375">
        <ele>1738.800048828125</ele>
        <time>2020-08-18T10:51:59.000Z</time>
      </trkpt>
      <trkpt lat="42.52804331481456756591796875" lon="-0.26405149139463901519775390625">
        <ele>1739</ele>
        <time>2020-08-18T10:52:07.000Z</time>
      </trkpt>
      <trkpt lat="42.5280112959444522857666015625" lon="-0.263919644057750701904296875">
        <ele>1739.4000244140625</ele>
        <time>2020-08-18T10:52:13.000Z</time>
      </trkpt>
      <trkpt lat="42.52800442278385162353515625" lon="-0.26387999765574932098388671875">
        <ele>1739.5999755859375</ele>
        <time>2020-08-18T10:52:15.000Z</time>
      </trkpt>
      <trkpt lat="42.5279740802943706512451171875" lon="-0.26373666711151599884033203125">
        <ele>1740</ele>
        <time>2020-08-18T10:52:22.000Z</time>
      </trkpt>
      <trkpt lat="42.52795957960188388824462890625" lon="-0.26362434960901737213134765625">
        <ele>1740.4000244140625</ele>
        <time>2020-08-18T10:52:28.000Z</time>
      </trkpt>
      <trkpt lat="42.52793468534946441650390625" lon="-0.263482443988323211669921875">
        <ele>1741</ele>
        <time>2020-08-18T10:52:35.000Z</time>
      </trkpt>
      <trkpt lat="42.5279301591217517852783203125" lon="-0.26339770294725894927978515625">
        <ele>1741.5999755859375</ele>
        <time>2020-08-18T10:52:39.000Z</time>
      </trkpt>
      <trkpt lat="42.52792890183627605438232421875" lon="-0.2633146382868289947509765625">
        <ele>1741.800048828125</ele>
        <time>2020-08-18T10:52:43.000Z</time>
      </trkpt>
      <trkpt lat="42.52794465981423854827880859375" lon="-0.26322838850319385528564453125">
        <ele>1742.4000244140625</ele>
        <time>2020-08-18T10:52:47.000Z</time>
      </trkpt>
      <trkpt lat="42.52797625958919525146484375" lon="-0.2631272189319133758544921875">
        <ele>1743.199951171875</ele>
        <time>2020-08-18T10:52:52.000Z</time>
      </trkpt>
      <trkpt lat="42.5279895029962062835693359375" lon="-0.263089835643768310546875">
        <ele>1743.5999755859375</ele>
        <time>2020-08-18T10:52:54.000Z</time>
      </trkpt>
      <trkpt lat="42.52802965231239795684814453125" lon="-0.2629907615482807159423828125">
        <ele>1744.4000244140625</ele>
        <time>2020-08-18T10:52:59.000Z</time>
      </trkpt>
      <trkpt lat="42.5280438177287578582763671875" lon="-0.262977518141269683837890625">
        <ele>1744.5999755859375</ele>
        <time>2020-08-18T10:53:00.000Z</time>
      </trkpt>
      <trkpt lat="42.52813627012073993682861328125" lon="-0.262897722423076629638671875">
        <ele>1745.4000244140625</ele>
        <time>2020-08-18T10:53:07.000Z</time>
      </trkpt>
      <trkpt lat="42.528166361153125762939453125" lon="-0.26286679320037364959716796875">
        <ele>1745.800048828125</ele>
        <time>2020-08-18T10:53:09.000Z</time>
      </trkpt>
      <trkpt lat="42.528211958706378936767578125" lon="-0.262828655540943145751953125">
        <ele>1747</ele>
        <time>2020-08-18T10:53:12.000Z</time>
      </trkpt>
      <trkpt lat="42.5282503478229045867919921875" lon="-0.26280007325112819671630859375">
        <ele>1747.4000244140625</ele>
        <time>2020-08-18T10:53:15.000Z</time>
      </trkpt>
      <trkpt lat="42.52829971723258495330810546875" lon="-0.26277341879904270172119140625">
        <ele>1748</ele>
        <time>2020-08-18T10:53:21.000Z</time>
      </trkpt>
      <trkpt lat="42.528297118842601776123046875" lon="-0.262781716883182525634765625">
        <ele>1747.800048828125</ele>
        <time>2020-08-18T10:54:54.000Z</time>
      </trkpt>
      <trkpt lat="42.52832050435245037078857421875" lon="-0.2627577446401119232177734375">
        <ele>1747.800048828125</ele>
        <time>2020-08-18T10:54:58.000Z</time>
      </trkpt>
      <trkpt lat="42.52839979715645313262939453125" lon="-0.262652970850467681884765625">
        <ele>1747.800048828125</ele>
        <time>2020-08-18T10:55:05.000Z</time>
      </trkpt>
      <trkpt lat="42.5284883938729763031005859375" lon="-0.2625331096351146697998046875">
        <ele>1748</ele>
        <time>2020-08-18T10:55:13.000Z</time>
      </trkpt>
      <trkpt lat="42.52851244993507862091064453125" lon="-0.262430347502231597900390625">
        <ele>1748.800048828125</ele>
        <time>2020-08-18T10:55:18.000Z</time>
      </trkpt>
      <trkpt lat="42.5285209156572818756103515625" lon="-0.26238701306283473968505859375">
        <ele>1749.199951171875</ele>
        <time>2020-08-18T10:55:20.000Z</time>
      </trkpt>
      <trkpt lat="42.5285520963370800018310546875" lon="-0.2622615359723567962646484375">
        <ele>1749.199951171875</ele>
        <time>2020-08-18T10:55:26.000Z</time>
      </trkpt>
      <trkpt lat="42.52863071858882904052734375" lon="-0.26208744384348392486572265625">
        <ele>1749</ele>
        <time>2020-08-18T10:55:34.000Z</time>
      </trkpt>
      <trkpt lat="42.52870137803256511688232421875" lon="-0.26198334060609340667724609375">
        <ele>1750</ele>
        <time>2020-08-18T10:55:40.000Z</time>
      </trkpt>
      <trkpt lat="42.5287292897701263427734375" lon="-0.26196138001978397369384765625">
        <ele>1750.5999755859375</ele>
        <time>2020-08-18T10:55:42.000Z</time>
      </trkpt>
      <trkpt lat="42.528806738555431365966796875" lon="-0.2619316242635250091552734375">
        <ele>1751.199951171875</ele>
        <time>2020-08-18T10:55:47.000Z</time>
      </trkpt>
      <trkpt lat="42.528840601444244384765625" lon="-0.26192299090325832366943359375">
        <ele>1751.800048828125</ele>
        <time>2020-08-18T10:55:49.000Z</time>
      </trkpt>
      <trkpt lat="42.52886733971536159515380859375" lon="-0.26190656237304210662841796875">
        <ele>1752.199951171875</ele>
        <time>2020-08-18T10:55:51.000Z</time>
      </trkpt>
      <trkpt lat="42.52894629724323749542236328125" lon="-0.26186247356235980987548828125">
        <ele>1753</ele>
        <time>2020-08-18T10:55:56.000Z</time>
      </trkpt>
      <trkpt lat="42.5289778970181941986083984375" lon="-0.261859036982059478759765625">
        <ele>1753.4000244140625</ele>
        <time>2020-08-18T10:55:58.000Z</time>
      </trkpt>
      <trkpt lat="42.52900145016610622406005859375" lon="-0.26185325346887111663818359375">
        <ele>1754.4000244140625</ele>
        <time>2020-08-18T10:56:01.000Z</time>
      </trkpt>
      <trkpt lat="42.52900086343288421630859375" lon="-0.2618548460304737091064453125">
        <ele>1754.5999755859375</ele>
        <time>2020-08-18T10:56:02.000Z</time>
      </trkpt>
      <trkpt lat="42.52900145016610622406005859375" lon="-0.2618538402020931243896484375">
        <ele>1755</ele>
        <time>2020-08-18T10:56:08.000Z</time>
      </trkpt>
      <trkpt lat="42.52904000692069530487060546875" lon="-0.2618367411196231842041015625">
        <ele>1755.4000244140625</ele>
        <time>2020-08-18T10:56:15.000Z</time>
      </trkpt>
      <trkpt lat="42.5290496461093425750732421875" lon="-0.2618370763957500457763671875">
        <ele>1755.5999755859375</ele>
        <time>2020-08-18T10:56:17.000Z</time>
      </trkpt>
      <trkpt lat="42.52905040048062801361083984375" lon="-0.2618354000151157379150390625">
        <ele>1755.5999755859375</ele>
        <time>2020-08-18T10:56:20.000Z</time>
      </trkpt>
      <trkpt lat="42.5290506519377231597900390625" lon="-0.26183397509157657623291015625">
        <ele>1755.5999755859375</ele>
        <time>2020-08-18T10:56:29.000Z</time>
      </trkpt>
      <trkpt lat="42.5290633924305438995361328125" lon="-0.2618243359029293060302734375">
        <ele>1755.800048828125</ele>
        <time>2020-08-18T10:56:32.000Z</time>
      </trkpt>
      <trkpt lat="42.52911913208663463592529296875" lon="-0.2618025429546833038330078125">
        <ele>1756.4000244140625</ele>
        <time>2020-08-18T10:56:40.000Z</time>
      </trkpt>
      <trkpt lat="42.529145367443561553955078125" lon="-0.2617955021560192108154296875">
        <ele>1756.5999755859375</ele>
        <time>2020-08-18T10:56:44.000Z</time>
      </trkpt>
      <trkpt lat="42.529167830944061279296875" lon="-0.26179256848990917205810546875">
        <ele>1757</ele>
        <time>2020-08-18T10:56:47.000Z</time>
      </trkpt>
      <trkpt lat="42.52921971492469310760498046875" lon="-0.26178427040576934814453125">
        <ele>1757.4000244140625</ele>
        <time>2020-08-18T10:56:54.000Z</time>
      </trkpt>
      <trkpt lat="42.529285848140716552734375" lon="-0.26176272891461849212646484375">
        <ele>1757.4000244140625</ele>
        <time>2020-08-18T10:57:02.000Z</time>
      </trkpt>
      <trkpt lat="42.52930395305156707763671875" lon="-0.26175535283982753753662109375">
        <ele>1757.4000244140625</ele>
        <time>2020-08-18T10:57:04.000Z</time>
      </trkpt>
      <trkpt lat="42.52935357391834259033203125" lon="-0.26174395345151424407958984375">
        <ele>1758.199951171875</ele>
        <time>2020-08-18T10:57:10.000Z</time>
      </trkpt>
      <trkpt lat="42.52937193028628826141357421875" lon="-0.26174160651862621307373046875">
        <ele>1758.4000244140625</ele>
        <time>2020-08-18T10:57:12.000Z</time>
      </trkpt>
      <trkpt lat="42.5294293463230133056640625" lon="-0.2617259323596954345703125">
        <ele>1759.199951171875</ele>
        <time>2020-08-18T10:57:19.000Z</time>
      </trkpt>
      <trkpt lat="42.52942926250398159027099609375" lon="-0.2617230825126171112060546875">
        <ele>1759.199951171875</ele>
        <time>2020-08-18T10:57:26.000Z</time>
      </trkpt>
      <trkpt lat="42.52947905100882053375244140625" lon="-0.261705480515956878662109375">
        <ele>1759</ele>
        <time>2020-08-18T10:57:32.000Z</time>
      </trkpt>
      <trkpt lat="42.52959497272968292236328125" lon="-0.26165627874433994293212890625">
        <ele>1759.5999755859375</ele>
        <time>2020-08-18T10:57:40.000Z</time>
      </trkpt>
      <trkpt lat="42.52961064688861370086669921875" lon="-0.2616540156304836273193359375">
        <ele>1759.800048828125</ele>
        <time>2020-08-18T10:57:41.000Z</time>
      </trkpt>
      <trkpt lat="42.52972849644720554351806640625" lon="-0.26166181080043315887451171875">
        <ele>1759.800048828125</ele>
        <time>2020-08-18T10:57:49.000Z</time>
      </trkpt>
      <trkpt lat="42.52983570098876953125" lon="-0.26165577583014965057373046875">
        <ele>1760.4000244140625</ele>
        <time>2020-08-18T10:57:56.000Z</time>
      </trkpt>
      <trkpt lat="42.5298512913286685943603515625" lon="-0.2616535127162933349609375">
        <ele>1760.5999755859375</ele>
        <time>2020-08-18T10:57:57.000Z</time>
      </trkpt>
      <trkpt lat="42.52997458912432193756103515625" lon="-0.261636078357696533203125">
        <ele>1760.5999755859375</ele>
        <time>2020-08-18T10:58:05.000Z</time>
      </trkpt>
      <trkpt lat="42.53009109757840633392333984375" lon="-0.2616017125546932220458984375">
        <ele>1761.5999755859375</ele>
        <time>2020-08-18T10:58:12.000Z</time>
      </trkpt>
      <trkpt lat="42.53012663684785366058349609375" lon="-0.26158570311963558197021484375">
        <ele>1761.800048828125</ele>
        <time>2020-08-18T10:58:14.000Z</time>
      </trkpt>
      <trkpt lat="42.53021431155502796173095703125" lon="-0.26152401231229305267333984375">
        <ele>1762.5999755859375</ele>
        <time>2020-08-18T10:58:20.000Z</time>
      </trkpt>
      <trkpt lat="42.53022705204784870147705078125" lon="-0.26151127181947231292724609375">
        <ele>1762.800048828125</ele>
        <time>2020-08-18T10:58:21.000Z</time>
      </trkpt>
      <trkpt lat="42.5303361006081104278564453125" lon="-0.2614045701920986175537109375">
        <ele>1764</ele>
        <time>2020-08-18T10:58:29.000Z</time>
      </trkpt>
      <trkpt lat="42.5303552113473415374755859375" lon="-0.26139191351830959320068359375">
        <ele>1764.199951171875</ele>
        <time>2020-08-18T10:58:30.000Z</time>
      </trkpt>
      <trkpt lat="42.53042838536202907562255859375" lon="-0.2613519318401813507080078125">
        <ele>1765.4000244140625</ele>
        <time>2020-08-18T10:58:34.000Z</time>
      </trkpt>
      <trkpt lat="42.530440203845500946044921875" lon="-0.26134128682315349578857421875">
        <ele>1766</ele>
        <time>2020-08-18T10:58:36.000Z</time>
      </trkpt>
      <trkpt lat="42.53044313751161098480224609375" lon="-0.261342041194438934326171875">
        <ele>1766.5999755859375</ele>
        <time>2020-08-18T10:58:39.000Z</time>
      </trkpt>
      <trkpt lat="42.53045596182346343994140625" lon="-0.2613499201834201812744140625">
        <ele>1767</ele>
        <time>2020-08-18T10:58:44.000Z</time>
      </trkpt>
      <trkpt lat="42.53049326129257678985595703125" lon="-0.26135067455470561981201171875">
        <ele>1767.5999755859375</ele>
        <time>2020-08-18T10:58:50.000Z</time>
      </trkpt>
      <trkpt lat="42.53049996681511402130126953125" lon="-0.26134782470762729644775390625">
        <ele>1767.5999755859375</ele>
        <time>2020-08-18T10:58:51.000Z</time>
      </trkpt>
      <trkpt lat="42.53053416498005390167236328125" lon="-0.26133256964385509490966796875">
        <ele>1768.199951171875</ele>
        <time>2020-08-18T10:58:59.000Z</time>
      </trkpt>
      <trkpt lat="42.53057322464883327484130859375" lon="-0.261314213275909423828125">
        <ele>1768.5999755859375</ele>
        <time>2020-08-18T10:59:06.000Z</time>
      </trkpt>
      <trkpt lat="42.53058764152228832244873046875" lon="-0.26130457408726215362548828125">
        <ele>1769</ele>
        <time>2020-08-18T10:59:08.000Z</time>
      </trkpt>
      <trkpt lat="42.53062368370592594146728515625" lon="-0.2612811885774135589599609375">
        <ele>1769.800048828125</ele>
        <time>2020-08-18T10:59:13.000Z</time>
      </trkpt>
      <trkpt lat="42.53063089214265346527099609375" lon="-0.261274985969066619873046875">
        <ele>1769.800048828125</ele>
        <time>2020-08-18T10:59:14.000Z</time>
      </trkpt>
      <trkpt lat="42.5306837819516658782958984375" lon="-0.26124640367925167083740234375">
        <ele>1770.4000244140625</ele>
        <time>2020-08-18T10:59:21.000Z</time>
      </trkpt>
      <trkpt lat="42.53076307475566864013671875" lon="-0.2611826173961162567138671875">
        <ele>1770.4000244140625</ele>
        <time>2020-08-18T10:59:30.000Z</time>
      </trkpt>
      <trkpt lat="42.5307769887149333953857421875" lon="-0.26116794906556606292724609375">
        <ele>1770.800048828125</ele>
        <time>2020-08-18T10:59:32.000Z</time>
      </trkpt>
      <trkpt lat="42.53083742223680019378662109375" lon="-0.2611155621707439422607421875">
        <ele>1771.199951171875</ele>
        <time>2020-08-18T10:59:39.000Z</time>
      </trkpt>
      <trkpt lat="42.53089441917836666107177734375" lon="-0.26106032542884349822998046875">
        <ele>1771.5999755859375</ele>
        <time>2020-08-18T10:59:46.000Z</time>
      </trkpt>
      <trkpt lat="42.5309761427342891693115234375" lon="-0.26104087941348552703857421875">
        <ele>1771.4000244140625</ele>
        <time>2020-08-18T10:59:54.000Z</time>
      </trkpt>
      <trkpt lat="42.53102199174463748931884765625" lon="-0.261041633784770965576171875">
        <ele>1771.800048828125</ele>
        <time>2020-08-18T11:00:01.000Z</time>
      </trkpt>
      <trkpt lat="42.53107580356299877166748046875" lon="-0.2610686235129833221435546875">
        <ele>1771.800048828125</ele>
        <time>2020-08-18T11:00:08.000Z</time>
      </trkpt>
      <trkpt lat="42.53112249076366424560546875" lon="-0.2611185796558856964111328125">
        <ele>1772</ele>
        <time>2020-08-18T11:00:16.000Z</time>
      </trkpt>
      <trkpt lat="42.5311213172972202301025390625" lon="-0.26112251915037631988525390625">
        <ele>1772.199951171875</ele>
        <time>2020-08-18T11:00:19.000Z</time>
      </trkpt>
      <trkpt lat="42.5311786495149135589599609375" lon="-0.26115269400179386138916015625">
        <ele>1772.199951171875</ele>
        <time>2020-08-18T11:07:32.000Z</time>
      </trkpt>
      <trkpt lat="42.5311888754367828369140625" lon="-0.26116459630429744720458984375">
        <ele>1772.199951171875</ele>
        <time>2020-08-18T11:07:34.000Z</time>
      </trkpt>
      <trkpt lat="42.5312054716050624847412109375" lon="-0.26117742061614990234375">
        <ele>1772.4000244140625</ele>
        <time>2020-08-18T11:07:36.000Z</time>
      </trkpt>
      <trkpt lat="42.53126456402242183685302734375" lon="-0.26122570037841796875">
        <ele>1772.5999755859375</ele>
        <time>2020-08-18T11:07:44.000Z</time>
      </trkpt>
      <trkpt lat="42.53132809884846210479736328125" lon="-0.26126584969460964202880859375">
        <ele>1772.5999755859375</ele>
        <time>2020-08-18T11:07:52.000Z</time>
      </trkpt>
      <trkpt lat="42.53139674663543701171875" lon="-0.26134078390896320343017578125">
        <ele>1772.4000244140625</ele>
        <time>2020-08-18T11:08:02.000Z</time>
      </trkpt>
      <trkpt lat="42.53146707080304622650146484375" lon="-0.2613955177366733551025390625">
        <ele>1772.4000244140625</ele>
        <time>2020-08-18T11:08:10.000Z</time>
      </trkpt>
      <trkpt lat="42.53156279213726520538330078125" lon="-0.261471457779407501220703125">
        <ele>1772</ele>
        <time>2020-08-18T11:08:20.000Z</time>
      </trkpt>
      <trkpt lat="42.53162431530654430389404296875" lon="-0.2615500800311565399169921875">
        <ele>1772</ele>
        <time>2020-08-18T11:08:28.000Z</time>
      </trkpt>
      <trkpt lat="42.53169204108417034149169921875" lon="-0.261663906276226043701171875">
        <ele>1770.800048828125</ele>
        <time>2020-08-18T11:08:38.000Z</time>
      </trkpt>
      <trkpt lat="42.5317529775202274322509765625" lon="-0.26177245192229747772216796875">
        <ele>1771.5999755859375</ele>
        <time>2020-08-18T11:08:47.000Z</time>
      </trkpt>
      <trkpt lat="42.5317647121846675872802734375" lon="-0.26181637309491634368896484375">
        <ele>1771.5999755859375</ele>
        <time>2020-08-18T11:08:54.000Z</time>
      </trkpt>
      <trkpt lat="42.53178725950419902801513671875" lon="-0.2618602104485034942626953125">
        <ele>1771.4000244140625</ele>
        <time>2020-08-18T11:09:00.000Z</time>
      </trkpt>
      <trkpt lat="42.53183654509484767913818359375" lon="-0.262000858783721923828125">
        <ele>1771.4000244140625</ele>
        <time>2020-08-18T11:09:07.000Z</time>
      </trkpt>
      <trkpt lat="42.53189354203641414642333984375" lon="-0.2621586062014102935791015625">
        <ele>1771</ele>
        <time>2020-08-18T11:09:15.000Z</time>
      </trkpt>
      <trkpt lat="42.531954310834407806396484375" lon="-0.262327082455158233642578125">
        <ele>1771.199951171875</ele>
        <time>2020-08-18T11:09:22.000Z</time>
      </trkpt>
      <trkpt lat="42.53200736828148365020751953125" lon="-0.26247099973261356353759765625">
        <ele>1771.4000244140625</ele>
        <time>2020-08-18T11:09:28.000Z</time>
      </trkpt>
      <trkpt lat="42.53209185786545276641845703125" lon="-0.26262204162776470184326171875">
        <ele>1771.199951171875</ele>
        <time>2020-08-18T11:09:35.000Z</time>
      </trkpt>
      <trkpt lat="42.53222093917429447174072265625" lon="-0.262773670256137847900390625">
        <ele>1771</ele>
        <time>2020-08-18T11:09:41.000Z</time>
      </trkpt>
      <trkpt lat="42.53231314010918140411376953125" lon="-0.2628965489566326141357421875">
        <ele>1770.4000244140625</ele>
        <time>2020-08-18T11:09:47.000Z</time>
      </trkpt>
      <trkpt lat="42.53243115730583667755126953125" lon="-0.26303392834961414337158203125">
        <ele>1770.199951171875</ele>
        <time>2020-08-18T11:09:53.000Z</time>
      </trkpt>
      <trkpt lat="42.5325438939034938812255859375" lon="-0.2631540410220623016357421875">
        <ele>1769.800048828125</ele>
        <time>2020-08-18T11:09:59.000Z</time>
      </trkpt>
      <trkpt lat="42.5326012261211872100830078125" lon="-0.2632113732397556304931640625">
        <ele>1769.4000244140625</ele>
        <time>2020-08-18T11:10:02.000Z</time>
      </trkpt>
      <trkpt lat="42.53272586502134799957275390625" lon="-0.263319499790668487548828125">
        <ele>1769</ele>
        <time>2020-08-18T11:10:08.000Z</time>
      </trkpt>
      <trkpt lat="42.5327614881098270416259765625" lon="-0.26334531605243682861328125">
        <ele>1768.4000244140625</ele>
        <time>2020-08-18T11:10:10.000Z</time>
      </trkpt>
      <trkpt lat="42.53287875093519687652587890625" lon="-0.2634189091622829437255859375">
        <ele>1767.800048828125</ele>
        <time>2020-08-18T11:10:17.000Z</time>
      </trkpt>
      <trkpt lat="42.53291361965239048004150390625" lon="-0.26344589889049530029296875">
        <ele>1767.4000244140625</ele>
        <time>2020-08-18T11:10:19.000Z</time>
      </trkpt>
      <trkpt lat="42.53294932655990123748779296875" lon="-0.26346811093389987945556640625">
        <ele>1767</ele>
        <time>2020-08-18T11:10:21.000Z</time>
      </trkpt>
      <trkpt lat="42.5330313853919506072998046875" lon="-0.2635184861719608306884765625">
        <ele>1766.5999755859375</ele>
        <time>2020-08-18T11:10:25.000Z</time>
      </trkpt>
      <trkpt lat="42.53305175341665744781494140625" lon="-0.2635342441499233245849609375">
        <ele>1766.199951171875</ele>
        <time>2020-08-18T11:10:26.000Z</time>
      </trkpt>
      <trkpt lat="42.5331701897084712982177734375" lon="-0.26362518779933452606201171875">
        <ele>1765.800048828125</ele>
        <time>2020-08-18T11:10:33.000Z</time>
      </trkpt>
      <trkpt lat="42.5332737900316715240478515625" lon="-0.2637000381946563720703125">
        <ele>1765.199951171875</ele>
        <time>2020-08-18T11:10:40.000Z</time>
      </trkpt>
      <trkpt lat="42.5334203056991100311279296875" lon="-0.2637756429612636566162109375">
        <ele>1766</ele>
        <time>2020-08-18T11:10:49.000Z</time>
      </trkpt>
      <trkpt lat="42.53357947804033756256103515625" lon="-0.2638410218060016632080078125">
        <ele>1765.199951171875</ele>
        <time>2020-08-18T11:10:57.000Z</time>
      </trkpt>
      <trkpt lat="42.533721216022968292236328125" lon="-0.2638950012624263763427734375">
        <ele>1765.4000244140625</ele>
        <time>2020-08-18T11:11:05.000Z</time>
      </trkpt>
      <trkpt lat="42.53383177332580089569091796875" lon="-0.26391939260065555572509765625">
        <ele>1765.5999755859375</ele>
        <time>2020-08-18T11:11:11.000Z</time>
      </trkpt>
      <trkpt lat="42.53398700617253780364990234375" lon="-0.2639808319509029388427734375">
        <ele>1765.5999755859375</ele>
        <time>2020-08-18T11:11:19.000Z</time>
      </trkpt>
      <trkpt lat="42.534124888479709625244140625" lon="-0.26402886025607585906982421875">
        <ele>1765.4000244140625</ele>
        <time>2020-08-18T11:11:26.000Z</time>
      </trkpt>
      <trkpt lat="42.53427349962294101715087890625" lon="-0.26409809477627277374267578125">
        <ele>1765.5999755859375</ele>
        <time>2020-08-18T11:11:35.000Z</time>
      </trkpt>
      <trkpt lat="42.53436787985265254974365234375" lon="-0.264112092554569244384765625">
        <ele>1765.4000244140625</ele>
        <time>2020-08-18T11:11:40.000Z</time>
      </trkpt>
      <trkpt lat="42.5344968773424625396728515625" lon="-0.26407831348478794097900390625">
        <ele>1765</ele>
        <time>2020-08-18T11:11:47.000Z</time>
      </trkpt>
      <trkpt lat="42.534618414938449859619140625" lon="-0.26406289078295230865478515625">
        <ele>1764.5999755859375</ele>
        <time>2020-08-18T11:11:53.000Z</time>
      </trkpt>
      <trkpt lat="42.53479116596281528472900390625" lon="-0.264018885791301727294921875">
        <ele>1764.4000244140625</ele>
        <time>2020-08-18T11:12:00.000Z</time>
      </trkpt>
      <trkpt lat="42.5349391065537929534912109375" lon="-0.2639513276517391204833984375">
        <ele>1764.5999755859375</ele>
        <time>2020-08-18T11:12:07.000Z</time>
      </trkpt>
      <trkpt lat="42.535075061023235321044921875" lon="-0.26385585777461528778076171875">
        <ele>1765</ele>
        <time>2020-08-18T11:12:14.000Z</time>
      </trkpt>
      <trkpt lat="42.53522132523357868194580078125" lon="-0.26372258551418781280517578125">
        <ele>1766.199951171875</ele>
        <time>2020-08-18T11:12:24.000Z</time>
      </trkpt>
      <trkpt lat="42.5352311320602893829345703125" lon="-0.26371638290584087371826171875">
        <ele>1766.199951171875</ele>
        <time>2020-08-18T11:12:25.000Z</time>
      </trkpt>
      <trkpt lat="42.53524227999150753021240234375" lon="-0.26370867155492305755615234375">
        <ele>1766.4000244140625</ele>
        <time>2020-08-18T11:12:30.000Z</time>
      </trkpt>
      <trkpt lat="42.5352569483220577239990234375" lon="-0.26370749808847904205322265625">
        <ele>1766.199951171875</ele>
        <time>2020-08-18T11:12:42.000Z</time>
      </trkpt>
      <trkpt lat="42.53530003130435943603515625" lon="-0.26370565406978130340576171875">
        <ele>1766.4000244140625</ele>
        <time>2020-08-18T11:12:52.000Z</time>
      </trkpt>
      <trkpt lat="42.53531369380652904510498046875" lon="-0.26371386833488941192626953125">
        <ele>1766.5999755859375</ele>
        <time>2020-08-18T11:13:02.000Z</time>
      </trkpt>
      <trkpt lat="42.53532911650836467742919921875" lon="-0.26367564685642719268798828125">
        <ele>1766.4000244140625</ele>
        <time>2020-08-18T11:13:10.000Z</time>
      </trkpt>
      <trkpt lat="42.53532777540385723114013671875" lon="-0.26367514394223690032958984375">
        <ele>1766.5999755859375</ele>
        <time>2020-08-18T11:13:23.000Z</time>
      </trkpt>
      <trkpt lat="42.53533196635544300079345703125" lon="-0.2636758983135223388671875">
        <ele>1766.199951171875</ele>
        <time>2020-08-18T11:13:44.000Z</time>
      </trkpt>
      <trkpt lat="42.53534554503858089447021484375" lon="-0.2636757306754589080810546875">
        <ele>1766.4000244140625</ele>
        <time>2020-08-18T11:13:51.000Z</time>
      </trkpt>
      <trkpt lat="42.53541846759617328643798828125" lon="-0.26371034793555736541748046875">
        <ele>1766.800048828125</ele>
        <time>2020-08-18T11:13:58.000Z</time>
      </trkpt>
      <trkpt lat="42.5355077348649501800537109375" lon="-0.2637545205652713775634765625">
        <ele>1766.800048828125</ele>
        <time>2020-08-18T11:14:06.000Z</time>
      </trkpt>
      <trkpt lat="42.535585351288318634033203125" lon="-0.2638071589171886444091796875">
        <ele>1766.800048828125</ele>
        <time>2020-08-18T11:14:13.000Z</time>
      </trkpt>
      <trkpt lat="42.53565902821719646453857421875" lon="-0.26385468430817127227783203125">
        <ele>1766.5999755859375</ele>
        <time>2020-08-18T11:14:19.000Z</time>
      </trkpt>
      <trkpt lat="42.535747624933719635009765625" lon="-0.2639670856297016143798828125">
        <ele>1766.5999755859375</ele>
        <time>2020-08-18T11:14:27.000Z</time>
      </trkpt>
      <trkpt lat="42.53583990968763828277587890625" lon="-0.26406222023069858551025390625">
        <ele>1766</ele>
        <time>2020-08-18T11:14:34.000Z</time>
      </trkpt>
      <trkpt lat="42.53595273010432720184326171875" lon="-0.26418526656925678253173828125">
        <ele>1765.800048828125</ele>
        <time>2020-08-18T11:14:42.000Z</time>
      </trkpt>
      <trkpt lat="42.535996735095977783203125" lon="-0.26423715054988861083984375">
        <ele>1765.199951171875</ele>
        <time>2020-08-18T11:14:45.000Z</time>
      </trkpt>
      <trkpt lat="42.53603504039347171783447265625" lon="-0.26428811252117156982421875">
        <ele>1764.800048828125</ele>
        <time>2020-08-18T11:14:48.000Z</time>
      </trkpt>
      <trkpt lat="42.53615406341850757598876953125" lon="-0.26437134481966495513916015625">
        <ele>1764.199951171875</ele>
        <time>2020-08-18T11:14:53.000Z</time>
      </trkpt>
      <trkpt lat="42.53620133735239505767822265625" lon="-0.26439808309078216552734375">
        <ele>1763.5999755859375</ele>
        <time>2020-08-18T11:14:55.000Z</time>
      </trkpt>
      <trkpt lat="42.53624391742050647735595703125" lon="-0.2644215524196624755859375">
        <ele>1762.800048828125</ele>
        <time>2020-08-18T11:14:57.000Z</time>
      </trkpt>
      <trkpt lat="42.5363224558532238006591796875" lon="-0.26447930373251438140869140625">
        <ele>1761.800048828125</ele>
        <time>2020-08-18T11:15:01.000Z</time>
      </trkpt>
      <trkpt lat="42.5363402254879474639892578125" lon="-0.26449807919561862945556640625">
        <ele>1761.5999755859375</ele>
        <time>2020-08-18T11:15:02.000Z</time>
      </trkpt>
      <trkpt lat="42.5364701449871063232421875" lon="-0.26458122767508029937744140625">
        <ele>1760.800048828125</ele>
        <time>2020-08-18T11:15:08.000Z</time>
      </trkpt>
      <trkpt lat="42.5365906767547130584716796875" lon="-0.26463621295988559722900390625">
        <ele>1760.5999755859375</ele>
        <time>2020-08-18T11:15:14.000Z</time>
      </trkpt>
      <trkpt lat="42.5367083586752414703369140625" lon="-0.26467158459126949310302734375">
        <ele>1760.800048828125</ele>
        <time>2020-08-18T11:15:20.000Z</time>
      </trkpt>
      <trkpt lat="42.53675370477139949798583984375" lon="-0.264667980372905731201171875">
        <ele>1761.800048828125</ele>
        <time>2020-08-18T11:15:22.000Z</time>
      </trkpt>
      <trkpt lat="42.536895275115966796875" lon="-0.2646540664136409759521484375">
        <ele>1762.4000244140625</ele>
        <time>2020-08-18T11:15:29.000Z</time>
      </trkpt>
      <trkpt lat="42.53701069392263889312744140625" lon="-0.26457938365638256072998046875">
        <ele>1762.199951171875</ele>
        <time>2020-08-18T11:15:35.000Z</time>
      </trkpt>
      <trkpt lat="42.53706819377839565277099609375" lon="-0.2645216323435306549072265625">
        <ele>1762.800048828125</ele>
        <time>2020-08-18T11:15:39.000Z</time>
      </trkpt>
      <trkpt lat="42.53714698366820812225341796875" lon="-0.264453403651714324951171875">
        <ele>1762.5999755859375</ele>
        <time>2020-08-18T11:15:44.000Z</time>
      </trkpt>
      <trkpt lat="42.53728042356669902801513671875" lon="-0.26433362625539302825927734375">
        <ele>1761.800048828125</ele>
        <time>2020-08-18T11:15:52.000Z</time>
      </trkpt>
      <trkpt lat="42.53729559481143951416015625" lon="-0.26432164013385772705078125">
        <ele>1761.5999755859375</ele>
        <time>2020-08-18T11:15:53.000Z</time>
      </trkpt>
      <trkpt lat="42.537399195134639739990234375" lon="-0.2642436884343624114990234375">
        <ele>1760.800048828125</ele>
        <time>2020-08-18T11:15:59.000Z</time>
      </trkpt>
      <trkpt lat="42.53741755150258541107177734375" lon="-0.264239497482776641845703125">
        <ele>1760.800048828125</ele>
        <time>2020-08-18T11:16:00.000Z</time>
      </trkpt>
      <trkpt lat="42.5374942459166049957275390625" lon="-0.26422650553286075592041015625">
        <ele>1760.199951171875</ele>
        <time>2020-08-18T11:16:05.000Z</time>
      </trkpt>
      <trkpt lat="42.5376196391880512237548828125" lon="-0.2641920559108257293701171875">
        <ele>1760.199951171875</ele>
        <time>2020-08-18T11:16:14.000Z</time>
      </trkpt>
      <trkpt lat="42.53765760920941829681396484375" lon="-0.2641692571341991424560546875">
        <ele>1759.5999755859375</ele>
        <time>2020-08-18T11:16:17.000Z</time>
      </trkpt>
      <trkpt lat="42.53771401941776275634765625" lon="-0.26415039785206317901611328125">
        <ele>1759.5999755859375</ele>
        <time>2020-08-18T11:16:21.000Z</time>
      </trkpt>
      <trkpt lat="42.53783530555665493011474609375" lon="-0.2641032077372074127197265625">
        <ele>1758.800048828125</ele>
        <time>2020-08-18T11:16:29.000Z</time>
      </trkpt>
      <trkpt lat="42.53791191615164279937744140625" lon="-0.26406993158161640167236328125">
        <ele>1758.4000244140625</ele>
        <time>2020-08-18T11:16:34.000Z</time>
      </trkpt>
      <trkpt lat="42.53792951814830303192138671875" lon="-0.26406775228679180145263671875">
        <ele>1758.4000244140625</ele>
        <time>2020-08-18T11:16:35.000Z</time>
      </trkpt>
      <trkpt lat="42.53805507905781269073486328125" lon="-0.2640676684677600860595703125">
        <ele>1758.800048828125</ele>
        <time>2020-08-18T11:16:43.000Z</time>
      </trkpt>
      <trkpt lat="42.53809799440205097198486328125" lon="-0.26406372897326946258544921875">
        <ele>1759.4000244140625</ele>
        <time>2020-08-18T11:16:46.000Z</time>
      </trkpt>
      <trkpt lat="42.53816219978034496307373046875" lon="-0.2640482224524021148681640625">
        <ele>1759.800048828125</ele>
        <time>2020-08-18T11:16:51.000Z</time>
      </trkpt>
      <trkpt lat="42.53822623752057552337646484375" lon="-0.2640740387141704559326171875">
        <ele>1759.5999755859375</ele>
        <time>2020-08-18T11:16:57.000Z</time>
      </trkpt>
      <trkpt lat="42.53829949535429477691650390625" lon="-0.264081917703151702880859375">
        <ele>1759.4000244140625</ele>
        <time>2020-08-18T11:17:04.000Z</time>
      </trkpt>
      <trkpt lat="42.53830410540103912353515625" lon="-0.26408736594021320343017578125">
        <ele>1759.4000244140625</ele>
        <time>2020-08-18T11:17:19.000Z</time>
      </trkpt>
      <trkpt lat="42.5383378006517887115478515625" lon="-0.2641092427074909210205078125">
        <ele>1759.4000244140625</ele>
        <time>2020-08-18T11:17:28.000Z</time>
      </trkpt>
      <trkpt lat="42.53834777511656284332275390625" lon="-0.264112763106822967529296875">
        <ele>1759.4000244140625</ele>
        <time>2020-08-18T11:17:39.000Z</time>
      </trkpt>
      <trkpt lat="42.5383458472788333892822265625" lon="-0.2641130983829498291015625">
        <ele>1759.4000244140625</ele>
        <time>2020-08-18T11:18:04.000Z</time>
      </trkpt>
      <trkpt lat="42.538348697125911712646484375" lon="-0.2641189657151699066162109375">
        <ele>1759.4000244140625</ele>
        <time>2020-08-18T11:18:07.000Z</time>
      </trkpt>
      <trkpt lat="42.53836621530354022979736328125" lon="-0.26413698680698871612548828125">
        <ele>1759.4000244140625</ele>
        <time>2020-08-18T11:18:10.000Z</time>
      </trkpt>
      <trkpt lat="42.53840561024844646453857421875" lon="-0.26416565291583538055419921875">
        <ele>1759.5999755859375</ele>
        <time>2020-08-18T11:18:18.000Z</time>
      </trkpt>
      <trkpt lat="42.5384729169309139251708984375" lon="-0.26418275199830532073974609375">
        <ele>1759.4000244140625</ele>
        <time>2020-08-18T11:18:27.000Z</time>
      </trkpt>
      <trkpt lat="42.53850661218166351318359375" lon="-0.264200605452060699462890625">
        <ele>1759.4000244140625</ele>
        <time>2020-08-18T11:18:35.000Z</time>
      </trkpt>
      <trkpt lat="42.5385081209242343902587890625" lon="-0.2642001025378704071044921875">
        <ele>1759.199951171875</ele>
        <time>2020-08-18T11:18:46.000Z</time>
      </trkpt>
      <trkpt lat="42.5385084562003612518310546875" lon="-0.26420035399496555328369140625">
        <ele>1759.199951171875</ele>
        <time>2020-08-18T11:18:56.000Z</time>
      </trkpt>
      <trkpt lat="42.53853075206279754638671875" lon="-0.264209993183612823486328125">
        <ele>1759.199951171875</ele>
        <time>2020-08-18T11:19:08.000Z</time>
      </trkpt>
      <trkpt lat="42.53860451281070709228515625" lon="-0.26425986550748348236083984375">
        <ele>1759</ele>
        <time>2020-08-18T11:19:16.000Z</time>
      </trkpt>
      <trkpt lat="42.5386797823011875152587890625" lon="-0.26430764235556125640869140625">
        <ele>1759.4000244140625</ele>
        <time>2020-08-18T11:19:25.000Z</time>
      </trkpt>
      <trkpt lat="42.53870241343975067138671875" lon="-0.2643244899809360504150390625">
        <ele>1759.4000244140625</ele>
        <time>2020-08-18T11:19:33.000Z</time>
      </trkpt>
      <trkpt lat="42.53877391107380390167236328125" lon="-0.264387018978595733642578125">
        <ele>1759.800048828125</ele>
        <time>2020-08-18T11:19:42.000Z</time>
      </trkpt>
      <trkpt lat="42.53883811645209789276123046875" lon="-0.26443990878760814666748046875">
        <ele>1760.199951171875</ele>
        <time>2020-08-18T11:19:50.000Z</time>
      </trkpt>
      <trkpt lat="42.53891204483807086944580078125" lon="-0.26448701508343219757080078125">
        <ele>1760.4000244140625</ele>
        <time>2020-08-18T11:19:59.000Z</time>
      </trkpt>
      <trkpt lat="42.53893014974892139434814453125" lon="-0.26450947858393192291259765625">
        <ele>1760.800048828125</ele>
        <time>2020-08-18T11:20:02.000Z</time>
      </trkpt>
      <trkpt lat="42.538956217467784881591796875" lon="-0.2645125798881053924560546875">
        <ele>1760.800048828125</ele>
        <time>2020-08-18T11:20:05.000Z</time>
      </trkpt>
      <trkpt lat="42.5390324927866458892822265625" lon="-0.2645623683929443359375">
        <ele>1761</ele>
        <time>2020-08-18T11:20:14.000Z</time>
      </trkpt>
      <trkpt lat="42.53912813030183315277099609375" lon="-0.2646212093532085418701171875">
        <ele>1761.199951171875</ele>
        <time>2020-08-18T11:20:24.000Z</time>
      </trkpt>
      <trkpt lat="42.539172135293483734130859375" lon="-0.26464241556823253631591796875">
        <ele>1761.4000244140625</ele>
        <time>2020-08-18T11:20:31.000Z</time>
      </trkpt>
      <trkpt lat="42.53917003981769084930419921875" lon="-0.26464375667273998260498046875">
        <ele>1761.800048828125</ele>
        <time>2020-08-18T11:20:45.000Z</time>
      </trkpt>
      <trkpt lat="42.53919971175491809844970703125" lon="-0.264683403074741363525390625">
        <ele>1761.5999755859375</ele>
        <time>2020-08-18T11:20:57.000Z</time>
      </trkpt>
      <trkpt lat="42.5392162241041660308837890625" lon="-0.2646979875862598419189453125">
        <ele>1761.800048828125</ele>
        <time>2020-08-18T11:20:59.000Z</time>
      </trkpt>
      <trkpt lat="42.53927229903638362884521484375" lon="-0.26475406251847743988037109375">
        <ele>1761.800048828125</ele>
        <time>2020-08-18T11:21:06.000Z</time>
      </trkpt>
      <trkpt lat="42.53933005034923553466796875" lon="-0.26481139473617076873779296875">
        <ele>1762.5999755859375</ele>
        <time>2020-08-18T11:21:14.000Z</time>
      </trkpt>
      <trkpt lat="42.539386712014675140380859375" lon="-0.2648659609258174896240234375">
        <ele>1762.800048828125</ele>
        <time>2020-08-18T11:21:21.000Z</time>
      </trkpt>
      <trkpt lat="42.5394281186163425445556640625" lon="-0.26489906944334506988525390625">
        <ele>1762.800048828125</ele>
        <time>2020-08-18T11:21:26.000Z</time>
      </trkpt>
      <trkpt lat="42.5395064055919647216796875" lon="-0.26496243663132190704345703125">
        <ele>1762.4000244140625</ele>
        <time>2020-08-18T11:21:35.000Z</time>
      </trkpt>
      <trkpt lat="42.53952677361667156219482421875" lon="-0.26498087681829929351806640625">
        <ele>1762.199951171875</ele>
        <time>2020-08-18T11:21:43.000Z</time>
      </trkpt>
      <trkpt lat="42.53954085521399974822998046875" lon="-0.26499194093048572540283203125">
        <ele>1762</ele>
        <time>2020-08-18T11:22:00.000Z</time>
      </trkpt>
      <trkpt lat="42.5396329723298549652099609375" lon="-0.2650610916316509246826171875">
        <ele>1762.5999755859375</ele>
        <time>2020-08-18T11:22:11.000Z</time>
      </trkpt>
      <trkpt lat="42.5397194735705852508544921875" lon="-0.26512655429542064666748046875">
        <ele>1763</ele>
        <time>2020-08-18T11:22:21.000Z</time>
      </trkpt>
      <trkpt lat="42.5397774763405323028564453125" lon="-0.2651831321418285369873046875">
        <ele>1763</ele>
        <time>2020-08-18T11:22:29.000Z</time>
      </trkpt>
      <trkpt lat="42.53986624069511890411376953125" lon="-0.2652310766279697418212890625">
        <ele>1763.199951171875</ele>
        <time>2020-08-18T11:22:39.000Z</time>
      </trkpt>
      <trkpt lat="42.53994855098426342010498046875" lon="-0.26527122594416141510009765625">
        <ele>1763.800048828125</ele>
        <time>2020-08-18T11:22:49.000Z</time>
      </trkpt>
      <trkpt lat="42.539969421923160552978515625" lon="-0.265277512371540069580078125">
        <ele>1763.800048828125</ele>
        <time>2020-08-18T11:22:51.000Z</time>
      </trkpt>
      <trkpt lat="42.54004041664302349090576171875" lon="-0.26528513990342617034912109375">
        <ele>1764</ele>
        <time>2020-08-18T11:22:58.000Z</time>
      </trkpt>
      <trkpt lat="42.54011535085737705230712890625" lon="-0.2653249539434909820556640625">
        <ele>1764.5999755859375</ele>
        <time>2020-08-18T11:23:06.000Z</time>
      </trkpt>
      <trkpt lat="42.54021911881864070892333984375" lon="-0.26539427228271961212158203125">
        <ele>1764.5999755859375</ele>
        <time>2020-08-18T11:23:17.000Z</time>
      </trkpt>
      <trkpt lat="42.54030528478324413299560546875" lon="-0.26542025618255138397216796875">
        <ele>1764.5999755859375</ele>
        <time>2020-08-18T11:23:25.000Z</time>
      </trkpt>
      <trkpt lat="42.540328167378902435302734375" lon="-0.26542427949607372283935546875">
        <ele>1764.800048828125</ele>
        <time>2020-08-18T11:23:27.000Z</time>
      </trkpt>
      <trkpt lat="42.540409974753856658935546875" lon="-0.2654547058045864105224609375">
        <ele>1765</ele>
        <time>2020-08-18T11:23:35.000Z</time>
      </trkpt>
      <trkpt lat="42.54051868803799152374267578125" lon="-0.265493094921112060546875">
        <ele>1765.199951171875</ele>
        <time>2020-08-18T11:23:45.000Z</time>
      </trkpt>
      <trkpt lat="42.5405797921121120452880859375" lon="-0.2655271254479885101318359375">
        <ele>1765.4000244140625</ele>
        <time>2020-08-18T11:23:54.000Z</time>
      </trkpt>
      <trkpt lat="42.54058272577822208404541015625" lon="-0.265529640018939971923828125">
        <ele>1765.199951171875</ele>
        <time>2020-08-18T11:24:14.000Z</time>
      </trkpt>
      <trkpt lat="42.54060544073581695556640625" lon="-0.2655532769858837127685546875">
        <ele>1765.4000244140625</ele>
        <time>2020-08-18T11:24:21.000Z</time>
      </trkpt>
      <trkpt lat="42.5406518764793872833251953125" lon="-0.26556752622127532958984375">
        <ele>1765.5999755859375</ele>
        <time>2020-08-18T11:24:28.000Z</time>
      </trkpt>
      <trkpt lat="42.54071163944900035858154296875" lon="-0.26558537967503070831298828125">
        <ele>1766</ele>
        <time>2020-08-18T11:24:35.000Z</time>
      </trkpt>
      <trkpt lat="42.54072756506502628326416015625" lon="-0.26558370329439640045166015625">
        <ele>1766</ele>
        <time>2020-08-18T11:24:37.000Z</time>
      </trkpt>
      <trkpt lat="42.5408072769641876220703125" lon="-0.26558227837085723876953125">
        <ele>1766.800048828125</ele>
        <time>2020-08-18T11:24:46.000Z</time>
      </trkpt>
      <trkpt lat="42.54082831554114818572998046875" lon="-0.26558772660791873931884765625">
        <ele>1767</ele>
        <time>2020-08-18T11:24:49.000Z</time>
      </trkpt>
      <trkpt lat="42.54087424837052822113037109375" lon="-0.265598036348819732666015625">
        <ele>1767.199951171875</ele>
        <time>2020-08-18T11:24:55.000Z</time>
      </trkpt>
      <trkpt lat="42.54087994806468486785888671875" lon="-0.2655936777591705322265625">
        <ele>1767.4000244140625</ele>
        <time>2020-08-18T11:25:02.000Z</time>
      </trkpt>
      <trkpt lat="42.540892772376537322998046875" lon="-0.26558898389339447021484375">
        <ele>1767.199951171875</ele>
        <time>2020-08-18T11:25:16.000Z</time>
      </trkpt>
      <trkpt lat="42.54094339907169342041015625" lon="-0.2656142972409725189208984375">
        <ele>1767.199951171875</ele>
        <time>2020-08-18T11:25:23.000Z</time>
      </trkpt>
      <trkpt lat="42.5410538725554943084716796875" lon="-0.2656018920242786407470703125">
        <ele>1767.199951171875</ele>
        <time>2020-08-18T11:25:34.000Z</time>
      </trkpt>
      <trkpt lat="42.5411210954189300537109375" lon="-0.26553676463663578033447265625">
        <ele>1767.199951171875</ele>
        <time>2020-08-18T11:25:42.000Z</time>
      </trkpt>
      <trkpt lat="42.5411574728786945343017578125" lon="-0.26547968387603759765625">
        <ele>1767.800048828125</ele>
        <time>2020-08-18T11:25:49.000Z</time>
      </trkpt>
      <trkpt lat="42.54121639765799045562744140625" lon="-0.26539594866335391998291015625">
        <ele>1767.4000244140625</ele>
        <time>2020-08-18T11:25:59.000Z</time>
      </trkpt>
      <trkpt lat="42.54126031883060932159423828125" lon="-0.2653410471975803375244140625">
        <ele>1767.199951171875</ele>
        <time>2020-08-18T11:26:06.000Z</time>
      </trkpt>
      <trkpt lat="42.54126853309571743011474609375" lon="-0.2653397060930728912353515625">
        <ele>1767.199951171875</ele>
        <time>2020-08-18T11:26:07.000Z</time>
      </trkpt>
      <trkpt lat="42.5412986241281032562255859375" lon="-0.2653120458126068115234375">
        <ele>1767.199951171875</ele>
        <time>2020-08-18T11:26:11.000Z</time>
      </trkpt>
      <trkpt lat="42.5413190759718418121337890625" lon="-0.2652857266366481781005859375">
        <ele>1767</ele>
        <time>2020-08-18T11:26:14.000Z</time>
      </trkpt>
      <trkpt lat="42.5413861311972141265869140625" lon="-0.2652235329151153564453125">
        <ele>1767</ele>
        <time>2020-08-18T11:26:23.000Z</time>
      </trkpt>
      <trkpt lat="42.54146031104028224945068359375" lon="-0.2651546336710453033447265625">
        <ele>1766.800048828125</ele>
        <time>2020-08-18T11:26:32.000Z</time>
      </trkpt>
      <trkpt lat="42.541495598852634429931640625" lon="-0.26511129923164844512939453125">
        <ele>1766.5999755859375</ele>
        <time>2020-08-18T11:26:39.000Z</time>
      </trkpt>
      <trkpt lat="42.54150507040321826934814453125" lon="-0.26510484516620635986328125">
        <ele>1767</ele>
        <time>2020-08-18T11:26:45.000Z</time>
      </trkpt>
      <trkpt lat="42.5415366701781749725341796875" lon="-0.2650688029825687408447265625">
        <ele>1766.5999755859375</ele>
        <time>2020-08-18T11:26:52.000Z</time>
      </trkpt>
      <trkpt lat="42.5415743887424468994140625" lon="-0.265034101903438568115234375">
        <ele>1766.4000244140625</ele>
        <time>2020-08-18T11:26:56.000Z</time>
      </trkpt>
      <trkpt lat="42.541598863899707794189453125" lon="-0.2650051005184650421142578125">
        <ele>1766.199951171875</ele>
        <time>2020-08-18T11:26:59.000Z</time>
      </trkpt>
      <trkpt lat="42.54165980033576488494873046875" lon="-0.26494198478758335113525390625">
        <ele>1765.199951171875</ele>
        <time>2020-08-18T11:27:06.000Z</time>
      </trkpt>
      <trkpt lat="42.54169533960521221160888671875" lon="-0.26490611024200916290283203125">
        <ele>1765</ele>
        <time>2020-08-18T11:27:10.000Z</time>
      </trkpt>
      <trkpt lat="42.54177488386631011962890625" lon="-0.26485514827072620391845703125">
        <ele>1764.199951171875</ele>
        <time>2020-08-18T11:27:18.000Z</time>
      </trkpt>
      <trkpt lat="42.54185669124126434326171875" lon="-0.26483419351279735565185546875">
        <ele>1763.5999755859375</ele>
        <time>2020-08-18T11:27:26.000Z</time>
      </trkpt>
      <trkpt lat="42.54192952997982501983642578125" lon="-0.26481290347874164581298828125">
        <ele>1763</ele>
        <time>2020-08-18T11:27:33.000Z</time>
      </trkpt>
      <trkpt lat="42.5419740378856658935546875" lon="-0.26480720378458499908447265625">
        <ele>1762.5999755859375</ele>
        <time>2020-08-18T11:27:37.000Z</time>
      </trkpt>
      <trkpt lat="42.5420667417347431182861328125" lon="-0.26477552019059658050537109375">
        <ele>1762</ele>
        <time>2020-08-18T11:27:46.000Z</time>
      </trkpt>
      <trkpt lat="42.5421264208853244781494140625" lon="-0.26474819518625736236572265625">
        <ele>1761.199951171875</ele>
        <time>2020-08-18T11:27:53.000Z</time>
      </trkpt>
      <trkpt lat="42.542168162763118743896484375" lon="-0.2647241391241550445556640625">
        <ele>1760.800048828125</ele>
        <time>2020-08-18T11:27:58.000Z</time>
      </trkpt>
      <trkpt lat="42.5422172807157039642333984375" lon="-0.2646932937204837799072265625">
        <ele>1760.5999755859375</ele>
        <time>2020-08-18T11:28:04.000Z</time>
      </trkpt>
      <trkpt lat="42.5422679074108600616455078125" lon="-0.26462179608643054962158203125">
        <ele>1759.800048828125</ele>
        <time>2020-08-18T11:28:12.000Z</time>
      </trkpt>
      <trkpt lat="42.54229866899549961090087890625" lon="-0.264544598758220672607421875">
        <ele>1759</ele>
        <time>2020-08-18T11:28:19.000Z</time>
      </trkpt>
      <trkpt lat="42.54232482053339481353759765625" lon="-0.26450335979461669921875">
        <ele>1758.5999755859375</ele>
        <time>2020-08-18T11:28:23.000Z</time>
      </trkpt>
      <trkpt lat="42.54233948886394500732421875" lon="-0.26447444222867488861083984375">
        <ele>1758.199951171875</ele>
        <time>2020-08-18T11:28:26.000Z</time>
      </trkpt>
      <trkpt lat="42.54238600842654705047607421875" lon="-0.2644081413745880126953125">
        <ele>1757.5999755859375</ele>
        <time>2020-08-18T11:28:33.000Z</time>
      </trkpt>
      <trkpt lat="42.542392797768115997314453125" lon="-0.2643995918333530426025390625">
        <ele>1757.4000244140625</ele>
        <time>2020-08-18T11:28:34.000Z</time>
      </trkpt>
      <trkpt lat="42.54241182468831539154052734375" lon="-0.26438073255121707916259765625">
        <ele>1757.199951171875</ele>
        <time>2020-08-18T11:28:39.000Z</time>
      </trkpt>
      <trkpt lat="42.54244585521519184112548828125" lon="-0.26433446444571018218994140625">
        <ele>1756.4000244140625</ele>
        <time>2020-08-18T11:28:45.000Z</time>
      </trkpt>
      <trkpt lat="42.54245926626026630401611328125" lon="-0.264317281544208526611328125">
        <ele>1756.199951171875</ele>
        <time>2020-08-18T11:28:47.000Z</time>
      </trkpt>
      <trkpt lat="42.54249639809131622314453125" lon="-0.26425818912684917449951171875">
        <ele>1755.4000244140625</ele>
        <time>2020-08-18T11:28:56.000Z</time>
      </trkpt>
      <trkpt lat="42.542503774166107177734375" lon="-0.2642520703375339508056640625">
        <ele>1755.199951171875</ele>
        <time>2020-08-18T11:28:57.000Z</time>
      </trkpt>
      <trkpt lat="42.54253855906426906585693359375" lon="-0.26418878696858882904052734375">
        <ele>1754.800048828125</ele>
        <time>2020-08-18T11:29:04.000Z</time>
      </trkpt>
      <trkpt lat="42.54256320185959339141845703125" lon="-0.26414721272885799407958984375">
        <ele>1754.199951171875</ele>
        <time>2020-08-18T11:29:09.000Z</time>
      </trkpt>
      <trkpt lat="42.542573511600494384765625" lon="-0.26411536149680614471435546875">
        <ele>1754</ele>
        <time>2020-08-18T11:29:12.000Z</time>
      </trkpt>
      <trkpt lat="42.542610727250576019287109375" lon="-0.26404931209981441497802734375">
        <ele>1753</ele>
        <time>2020-08-18T11:29:18.000Z</time>
      </trkpt>
      <trkpt lat="42.542628832161426544189453125" lon="-0.26401947252452373504638671875">
        <ele>1752.5999755859375</ele>
        <time>2020-08-18T11:29:21.000Z</time>
      </trkpt>
      <trkpt lat="42.54264785908162593841552734375" lon="-0.26396415196359157562255859375">
        <ele>1752</ele>
        <time>2020-08-18T11:29:27.000Z</time>
      </trkpt>
      <trkpt lat="42.54266805946826934814453125" lon="-0.26388972066342830657958984375">
        <ele>1751.800048828125</ele>
        <time>2020-08-18T11:29:34.000Z</time>
      </trkpt>
      <trkpt lat="42.5427108071744441986083984375" lon="-0.263762734830379486083984375">
        <ele>1750.800048828125</ele>
        <time>2020-08-18T11:29:45.000Z</time>
      </trkpt>
      <trkpt lat="42.542746178805828094482421875" lon="-0.26367162354290485382080078125">
        <ele>1749.800048828125</ele>
        <time>2020-08-18T11:29:53.000Z</time>
      </trkpt>
      <trkpt lat="42.54275699146091938018798828125" lon="-0.2636502496898174285888671875">
        <ele>1749.5999755859375</ele>
        <time>2020-08-18T11:29:55.000Z</time>
      </trkpt>
      <trkpt lat="42.54276730120182037353515625" lon="-0.26360406540334224700927734375">
        <ele>1748.800048828125</ele>
        <time>2020-08-18T11:29:59.000Z</time>
      </trkpt>
      <trkpt lat="42.54277727566659450531005859375" lon="-0.2635687775909900665283203125">
        <ele>1748.5999755859375</ele>
        <time>2020-08-18T11:30:02.000Z</time>
      </trkpt>
      <trkpt lat="42.5428248010575771331787109375" lon="-0.2634487487375736236572265625">
        <ele>1747.5999755859375</ele>
        <time>2020-08-18T11:30:11.000Z</time>
      </trkpt>
      <trkpt lat="42.5428499467670917510986328125" lon="-0.263393931090831756591796875">
        <ele>1746.5999755859375</ele>
        <time>2020-08-18T11:30:16.000Z</time>
      </trkpt>
      <trkpt lat="42.5428804568946361541748046875" lon="-0.26333995163440704345703125">
        <ele>1746.5999755859375</ele>
        <time>2020-08-18T11:30:21.000Z</time>
      </trkpt>
      <trkpt lat="42.54292286932468414306640625" lon="-0.26324917562305927276611328125">
        <ele>1746</ele>
        <time>2020-08-18T11:30:29.000Z</time>
      </trkpt>
      <trkpt lat="42.54296838305890560150146484375" lon="-0.26315412484109401702880859375">
        <ele>1745.5999755859375</ele>
        <time>2020-08-18T11:30:38.000Z</time>
      </trkpt>
      <trkpt lat="42.5429723225533962249755859375" lon="-0.26314574293792247772216796875">
        <ele>1745.5999755859375</ele>
        <time>2020-08-18T11:30:39.000Z</time>
      </trkpt>
      <trkpt lat="42.54297642968595027923583984375" lon="-0.2631295658648014068603515625">
        <ele>1745.4000244140625</ele>
        <time>2020-08-18T11:30:47.000Z</time>
      </trkpt>
      <trkpt lat="42.54297710023820400238037109375" lon="-0.26312881149351596832275390625">
        <ele>1745.4000244140625</ele>
        <time>2020-08-18T11:31:01.000Z</time>
      </trkpt>
      <trkpt lat="42.5429739989340305328369140625" lon="-0.26312939822673797607421875">
        <ele>1745.4000244140625</ele>
        <time>2020-08-18T11:31:16.000Z</time>
      </trkpt>
      <trkpt lat="42.54297525621950626373291015625" lon="-0.263133086264133453369140625">
        <ele>1745.4000244140625</ele>
        <time>2020-08-18T11:31:29.000Z</time>
      </trkpt>
      <trkpt lat="42.54300174303352832794189453125" lon="-0.2631117962300777435302734375">
        <ele>1745.4000244140625</ele>
        <time>2020-08-18T11:31:36.000Z</time>
      </trkpt>
      <trkpt lat="42.54302219487726688385009765625" lon="-0.2631054259836673736572265625">
        <ele>1745.199951171875</ele>
        <time>2020-08-18T11:31:44.000Z</time>
      </trkpt>
      <trkpt lat="42.54303828813135623931884765625" lon="-0.263102240860462188720703125">
        <ele>1745.199951171875</ele>
        <time>2020-08-18T11:32:07.000Z</time>
      </trkpt>
      <trkpt lat="42.5431272201240062713623046875" lon="-0.26310048066079616546630859375">
        <ele>1745</ele>
        <time>2020-08-18T11:32:15.000Z</time>
      </trkpt>
      <trkpt lat="42.5431808643043041229248046875" lon="-0.2631423063576221466064453125">
        <ele>1745.199951171875</ele>
        <time>2020-08-18T11:32:23.000Z</time>
      </trkpt>
      <trkpt lat="42.54320986568927764892578125" lon="-0.26317440904676914215087890625">
        <ele>1745.199951171875</ele>
        <time>2020-08-18T11:32:31.000Z</time>
      </trkpt>
      <trkpt lat="42.54332494921982288360595703125" lon="-0.2633072622120380401611328125">
        <ele>1745.4000244140625</ele>
        <time>2020-08-18T11:32:38.000Z</time>
      </trkpt>
      <trkpt lat="42.54339158535003662109375" lon="-0.26340004988014698028564453125">
        <ele>1744.5999755859375</ele>
        <time>2020-08-18T11:32:43.000Z</time>
      </trkpt>
      <trkpt lat="42.5434323213994503021240234375" lon="-0.26345369406044483184814453125">
        <ele>1744.5999755859375</ele>
        <time>2020-08-18T11:32:46.000Z</time>
      </trkpt>
      <trkpt lat="42.5435593910515308380126953125" lon="-0.263608507812023162841796875">
        <ele>1744.5999755859375</ele>
        <time>2020-08-18T11:32:55.000Z</time>
      </trkpt>
      <trkpt lat="42.54369677044451236724853515625" lon="-0.2637826837599277496337890625">
        <ele>1744.4000244140625</ele>
        <time>2020-08-18T11:33:06.000Z</time>
      </trkpt>
      <trkpt lat="42.54378251731395721435546875" lon="-0.26397169567644596099853515625">
        <ele>1744.5999755859375</ele>
        <time>2020-08-18T11:33:16.000Z</time>
      </trkpt>
      <trkpt lat="42.5438252650201320648193359375" lon="-0.264152996242046356201171875">
        <ele>1745.199951171875</ele>
        <time>2020-08-18T11:33:25.000Z</time>
      </trkpt>
      <trkpt lat="42.5438564456999301910400390625" lon="-0.26433329097926616668701171875">
        <ele>1745.5999755859375</ele>
        <time>2020-08-18T11:33:34.000Z</time>
      </trkpt>
      <trkpt lat="42.54386105574667453765869140625" lon="-0.26435508392751216888427734375">
        <ele>1745.5999755859375</ele>
        <time>2020-08-18T11:33:35.000Z</time>
      </trkpt>
      <trkpt lat="42.543906904757022857666015625" lon="-0.2644770406186580657958984375">
        <ele>1745.5999755859375</ele>
        <time>2020-08-18T11:33:41.000Z</time>
      </trkpt>
      <trkpt lat="42.54395325668156147003173828125" lon="-0.26470578275620937347412109375">
        <ele>1746.4000244140625</ele>
        <time>2020-08-18T11:33:51.000Z</time>
      </trkpt>
      <trkpt lat="42.543965913355350494384765625" lon="-0.26490258984267711639404296875">
        <ele>1746.199951171875</ele>
        <time>2020-08-18T11:33:59.000Z</time>
      </trkpt>
      <trkpt lat="42.54396867938339710235595703125" lon="-0.26504449546337127685546875">
        <ele>1745.800048828125</ele>
        <time>2020-08-18T11:34:05.000Z</time>
      </trkpt>
      <trkpt lat="42.54398980177938938140869140625" lon="-0.265203416347503662109375">
        <ele>1746</ele>
        <time>2020-08-18T11:34:12.000Z</time>
      </trkpt>
      <trkpt lat="42.5440569408237934112548828125" lon="-0.26543207466602325439453125">
        <ele>1746.5999755859375</ele>
        <time>2020-08-18T11:34:22.000Z</time>
      </trkpt>
      <trkpt lat="42.54407362081110477447509765625" lon="-0.2654729783535003662109375">
        <ele>1746.5999755859375</ele>
        <time>2020-08-18T11:34:24.000Z</time>
      </trkpt>
      <trkpt lat="42.5441305339336395263671875" lon="-0.26559275574982166290283203125">
        <ele>1746.5999755859375</ele>
        <time>2020-08-18T11:34:30.000Z</time>
      </trkpt>
      <trkpt lat="42.54420370794832706451416015625" lon="-0.2657457254827022552490234375">
        <ele>1747.199951171875</ele>
        <time>2020-08-18T11:34:38.000Z</time>
      </trkpt>
      <trkpt lat="42.54426590166985988616943359375" lon="-0.2658848650753498077392578125">
        <ele>1747.5999755859375</ele>
        <time>2020-08-18T11:34:45.000Z</time>
      </trkpt>
      <trkpt lat="42.54428836517035961151123046875" lon="-0.26594102382659912109375">
        <ele>1747.800048828125</ele>
        <time>2020-08-18T11:34:48.000Z</time>
      </trkpt>
      <trkpt lat="42.5443607009947299957275390625" lon="-0.26612333022058010101318359375">
        <ele>1748.4000244140625</ele>
        <time>2020-08-18T11:34:58.000Z</time>
      </trkpt>
      <trkpt lat="42.54441895522177219390869140625" lon="-0.2662721090018749237060546875">
        <ele>1748.199951171875</ele>
        <time>2020-08-18T11:35:06.000Z</time>
      </trkpt>
      <trkpt lat="42.5444773770868778228759765625" lon="-0.26641870848834514617919921875">
        <ele>1748.4000244140625</ele>
        <time>2020-08-18T11:35:14.000Z</time>
      </trkpt>
      <trkpt lat="42.54453060217201709747314453125" lon="-0.266526751220226287841796875">
        <ele>1748.800048828125</ele>
        <time>2020-08-18T11:35:20.000Z</time>
      </trkpt>
      <trkpt lat="42.54454837180674076080322265625" lon="-0.2665624581277370452880859375">
        <ele>1749</ele>
        <time>2020-08-18T11:35:22.000Z</time>
      </trkpt>
      <trkpt lat="42.544637136161327362060546875" lon="-0.2667096443474292755126953125">
        <ele>1749.199951171875</ele>
        <time>2020-08-18T11:35:31.000Z</time>
      </trkpt>
      <trkpt lat="42.5447083823382854461669921875" lon="-0.26683059521019458770751953125">
        <ele>1749.5999755859375</ele>
        <time>2020-08-18T11:35:38.000Z</time>
      </trkpt>
      <trkpt lat="42.5447849929332733154296875" lon="-0.26693805120885372161865234375">
        <ele>1749</ele>
        <time>2020-08-18T11:35:45.000Z</time>
      </trkpt>
      <trkpt lat="42.54487845115363597869873046875" lon="-0.26706512086093425750732421875">
        <ele>1749.800048828125</ele>
        <time>2020-08-18T11:35:53.000Z</time>
      </trkpt>
      <trkpt lat="42.54488767124712467193603515625" lon="-0.267081297934055328369140625">
        <ele>1749.800048828125</ele>
        <time>2020-08-18T11:35:54.000Z</time>
      </trkpt>
      <trkpt lat="42.5449786148965358734130859375" lon="-0.267204344272613525390625">
        <ele>1749.800048828125</ele>
        <time>2020-08-18T11:36:02.000Z</time>
      </trkpt>
      <trkpt lat="42.54506067372858524322509765625" lon="-0.267322696745395660400390625">
        <ele>1749.800048828125</ele>
        <time>2020-08-18T11:36:09.000Z</time>
      </trkpt>
      <trkpt lat="42.54516880027949810028076171875" lon="-0.26745337061583995819091796875">
        <ele>1750.199951171875</ele>
        <time>2020-08-18T11:36:17.000Z</time>
      </trkpt>
      <trkpt lat="42.545277513563632965087890625" lon="-0.26756049133837223052978515625">
        <ele>1749.800048828125</ele>
        <time>2020-08-18T11:36:25.000Z</time>
      </trkpt>
      <trkpt lat="42.545394860208034515380859375" lon="-0.267633162438869476318359375">
        <ele>1750.199951171875</ele>
        <time>2020-08-18T11:36:33.000Z</time>
      </trkpt>
      <trkpt lat="42.5455589778721332550048828125" lon="-0.26768554933369159698486328125">
        <ele>1750.5999755859375</ele>
        <time>2020-08-18T11:36:43.000Z</time>
      </trkpt>
      <trkpt lat="42.54568311385810375213623046875" lon="-0.26771320961415767669677734375">
        <ele>1750.4000244140625</ele>
        <time>2020-08-18T11:36:51.000Z</time>
      </trkpt>
      <trkpt lat="42.54580431617796421051025390625" lon="-0.2677426300942897796630859375">
        <ele>1750.5999755859375</ele>
        <time>2020-08-18T11:36:59.000Z</time>
      </trkpt>
      <trkpt lat="42.545834742486476898193359375" lon="-0.26774874888360500335693359375">
        <ele>1750.800048828125</ele>
        <time>2020-08-18T11:37:01.000Z</time>
      </trkpt>
      <trkpt lat="42.54593172110617160797119140625" lon="-0.26776693761348724365234375">
        <ele>1751.4000244140625</ele>
        <time>2020-08-18T11:37:07.000Z</time>
      </trkpt>
      <trkpt lat="42.54605510272085666656494140625" lon="-0.2677945978939533233642578125">
        <ele>1751.5999755859375</ele>
        <time>2020-08-18T11:37:15.000Z</time>
      </trkpt>
      <trkpt lat="42.546100281178951263427734375" lon="-0.267808847129344940185546875">
        <ele>1752</ele>
        <time>2020-08-18T11:37:18.000Z</time>
      </trkpt>
      <trkpt lat="42.54616490565240383148193359375" lon="-0.2678314782679080963134765625">
        <ele>1752.4000244140625</ele>
        <time>2020-08-18T11:37:22.000Z</time>
      </trkpt>
      <trkpt lat="42.546250484883785247802734375" lon="-0.26786073110997676849365234375">
        <ele>1752.199951171875</ele>
        <time>2020-08-18T11:37:27.000Z</time>
      </trkpt>
      <trkpt lat="42.5462848506867885589599609375" lon="-0.2678710408508777618408203125">
        <ele>1752</ele>
        <time>2020-08-18T11:37:29.000Z</time>
      </trkpt>
      <trkpt lat="42.54643983207643032073974609375" lon="-0.26791236363351345062255859375">
        <ele>1752.4000244140625</ele>
        <time>2020-08-18T11:37:38.000Z</time>
      </trkpt>
      <trkpt lat="42.54658265970647335052490234375" lon="-0.26795594953000545501708984375">
        <ele>1752.4000244140625</ele>
        <time>2020-08-18T11:37:47.000Z</time>
      </trkpt>
      <trkpt lat="42.54670117981731891632080078125" lon="-0.26800171472132205963134765625">
        <ele>1753</ele>
        <time>2020-08-18T11:37:55.000Z</time>
      </trkpt>
      <trkpt lat="42.54679656587541103363037109375" lon="-0.26802518405020236968994140625">
        <ele>1753.800048828125</ele>
        <time>2020-08-18T11:38:01.000Z</time>
      </trkpt>
      <trkpt lat="42.54684350453317165374755859375" lon="-0.26803608052432537078857421875">
        <ele>1754</ele>
        <time>2020-08-18T11:38:04.000Z</time>
      </trkpt>
      <trkpt lat="42.5469429977238178253173828125" lon="-0.268047563731670379638671875">
        <ele>1754.199951171875</ele>
        <time>2020-08-18T11:38:10.000Z</time>
      </trkpt>
      <trkpt lat="42.54706612788140773773193359375" lon="-0.26807539165019989013671875">
        <ele>1754.5999755859375</ele>
        <time>2020-08-18T11:38:18.000Z</time>
      </trkpt>
      <trkpt lat="42.5471428222954273223876953125" lon="-0.26810045354068279266357421875">
        <ele>1755.199951171875</ele>
        <time>2020-08-18T11:38:24.000Z</time>
      </trkpt>
      <trkpt lat="42.547153718769550323486328125" lon="-0.26811051182448863983154296875">
        <ele>1755.199951171875</ele>
        <time>2020-08-18T11:38:25.000Z</time>
      </trkpt>
      <trkpt lat="42.5471709854900836944580078125" lon="-0.2681359089910984039306640625">
        <ele>1755.199951171875</ele>
        <time>2020-08-18T11:38:30.000Z</time>
      </trkpt>
      <trkpt lat="42.5471756793558597564697265625" lon="-0.2681503258645534515380859375">
        <ele>1755</ele>
        <time>2020-08-18T11:38:37.000Z</time>
      </trkpt>
      <trkpt lat="42.54718146286904811859130859375" lon="-0.26815828867256641387939453125">
        <ele>1755.199951171875</ele>
        <time>2020-08-18T11:38:52.000Z</time>
      </trkpt>
      <trkpt lat="42.54719973541796207427978515625" lon="-0.26818091981112957000732421875">
        <ele>1755.4000244140625</ele>
        <time>2020-08-18T11:38:59.000Z</time>
      </trkpt>
      <trkpt lat="42.5471981428563594818115234375" lon="-0.26818192563951015472412109375">
        <ele>1755.199951171875</ele>
        <time>2020-08-18T11:39:15.000Z</time>
      </trkpt>
      <trkpt lat="42.54720635712146759033203125" lon="-0.26823020540177822113037109375">
        <ele>1755</ele>
        <time>2020-08-18T11:39:23.000Z</time>
      </trkpt>
      <trkpt lat="42.54723317921161651611328125" lon="-0.2683846838772296905517578125">
        <ele>1754.5999755859375</ele>
        <time>2020-08-18T11:39:29.000Z</time>
      </trkpt>
      <trkpt lat="42.5472343526780605316162109375" lon="-0.26845266111195087432861328125">
        <ele>1754.199951171875</ele>
        <time>2020-08-18T11:39:31.000Z</time>
      </trkpt>
      <trkpt lat="42.54723762162029743194580078125" lon="-0.26861174963414669036865234375">
        <ele>1753.5999755859375</ele>
        <time>2020-08-18T11:39:37.000Z</time>
      </trkpt>
      <trkpt lat="42.54723854362964630126953125" lon="-0.26875130832195281982421875">
        <ele>1753</ele>
        <time>2020-08-18T11:39:43.000Z</time>
      </trkpt>
      <trkpt lat="42.54723795689642429351806640625" lon="-0.26879330165684223175048828125">
        <ele>1752.800048828125</ele>
        <time>2020-08-18T11:39:45.000Z</time>
      </trkpt>
      <trkpt lat="42.547206021845340728759765625" lon="-0.2689677290618419647216796875">
        <ele>1752.4000244140625</ele>
        <time>2020-08-18T11:39:52.000Z</time>
      </trkpt>
      <trkpt lat="42.54716469906270503997802734375" lon="-0.26914768852293491363525390625">
        <ele>1752</ele>
        <time>2020-08-18T11:39:58.000Z</time>
      </trkpt>
      <trkpt lat="42.54714734852313995361328125" lon="-0.26920954696834087371826171875">
        <ele>1751.800048828125</ele>
        <time>2020-08-18T11:40:00.000Z</time>
      </trkpt>
      <trkpt lat="42.547067217528820037841796875" lon="-0.2694723196327686309814453125">
        <ele>1751</ele>
        <time>2020-08-18T11:40:09.000Z</time>
      </trkpt>
      <trkpt lat="42.547042407095432281494140625" lon="-0.2695901691913604736328125">
        <ele>1750.199951171875</ele>
        <time>2020-08-18T11:40:14.000Z</time>
      </trkpt>
      <trkpt lat="42.547042407095432281494140625" lon="-0.26959888637065887451171875">
        <ele>1750</ele>
        <time>2020-08-18T11:40:19.000Z</time>
      </trkpt>
      <trkpt lat="42.5470395572483539581298828125" lon="-0.26960383169353008270263671875">
        <ele>1750</ele>
        <time>2020-08-18T11:40:22.000Z</time>
      </trkpt>
      <trkpt lat="42.54703494720160961151123046875" lon="-0.26963367126882076263427734375">
        <ele>1750</ele>
        <time>2020-08-18T11:40:25.000Z</time>
      </trkpt>
      <trkpt lat="42.54703712649643421173095703125" lon="-0.26965496130287647247314453125">
        <ele>1749.800048828125</ele>
        <time>2020-08-18T11:40:27.000Z</time>
      </trkpt>
      <trkpt lat="42.5470579974353313446044921875" lon="-0.26970206759870052337646484375">
        <ele>1749</ele>
        <time>2020-08-18T11:40:32.000Z</time>
      </trkpt>
      <trkpt lat="42.54707383923232555389404296875" lon="-0.2697127126157283782958984375">
        <ele>1748.800048828125</ele>
        <time>2020-08-18T11:40:34.000Z</time>
      </trkpt>
      <trkpt lat="42.5471257232129573822021484375" lon="-0.2697137184441089630126953125">
        <ele>1748</ele>
        <time>2020-08-18T11:40:40.000Z</time>
      </trkpt>
      <trkpt lat="42.5471414811909198760986328125" lon="-0.269705839455127716064453125">
        <ele>1747.5999755859375</ele>
        <time>2020-08-18T11:40:42.000Z</time>
      </trkpt>
      <trkpt lat="42.54714977927505970001220703125" lon="-0.26969871483743190765380859375">
        <ele>1747</ele>
        <time>2020-08-18T11:40:46.000Z</time>
      </trkpt>
      <trkpt lat="42.547184564173221588134765625" lon="-0.26966786943376064300537109375">
        <ele>1746.800048828125</ele>
        <time>2020-08-18T11:40:52.000Z</time>
      </trkpt>
      <trkpt lat="42.5472011603415012359619140625" lon="-0.2696523629128932952880859375">
        <ele>1746.5999755859375</ele>
        <time>2020-08-18T11:40:53.000Z</time>
      </trkpt>
      <trkpt lat="42.54727668128907680511474609375" lon="-0.26956091634929180145263671875">
        <ele>1745.199951171875</ele>
        <time>2020-08-18T11:40:57.000Z</time>
      </trkpt>
      <trkpt lat="42.54729981534183025360107421875" lon="-0.26952755637466907501220703125">
        <ele>1744.800048828125</ele>
        <time>2020-08-18T11:40:58.000Z</time>
      </trkpt>
      <trkpt lat="42.547347508370876312255859375" lon="-0.26945781894028186798095703125">
        <ele>1743.800048828125</ele>
        <time>2020-08-18T11:41:00.000Z</time>
      </trkpt>
      <trkpt lat="42.5474506057798862457275390625" lon="-0.26932639069855213165283203125">
        <ele>1743</ele>
        <time>2020-08-18T11:41:05.000Z</time>
      </trkpt>
      <trkpt lat="42.5474666990339756011962890625" lon="-0.2693050168454647064208984375">
        <ele>1742.5999755859375</ele>
        <time>2020-08-18T11:41:06.000Z</time>
      </trkpt>
      <trkpt lat="42.547547332942485809326171875" lon="-0.26919521391391754150390625">
        <ele>1741.5999755859375</ele>
        <time>2020-08-18T11:41:10.000Z</time>
      </trkpt>
      <trkpt lat="42.54756786860525608062744140625" lon="-0.26916210539638996124267578125">
        <ele>1741.4000244140625</ele>
        <time>2020-08-18T11:41:11.000Z</time>
      </trkpt>
      <trkpt lat="42.5477059185504913330078125" lon="-0.2689464390277862548828125">
        <ele>1740.800048828125</ele>
        <time>2020-08-18T11:41:18.000Z</time>
      </trkpt>
      <trkpt lat="42.5477376021444797515869140625" lon="-0.26888885535299777984619140625">
        <ele>1740</ele>
        <time>2020-08-18T11:41:20.000Z</time>
      </trkpt>
      <trkpt lat="42.54782385192811489105224609375" lon="-0.268718786537647247314453125">
        <ele>1739.199951171875</ele>
        <time>2020-08-18T11:41:25.000Z</time>
      </trkpt>
      <trkpt lat="42.547840364277362823486328125" lon="-0.2686867676675319671630859375">
        <ele>1739</ele>
        <time>2020-08-18T11:41:26.000Z</time>
      </trkpt>
      <trkpt lat="42.547910101711750030517578125" lon="-0.2685493044555187225341796875">
        <ele>1737.4000244140625</ele>
        <time>2020-08-18T11:41:30.000Z</time>
      </trkpt>
      <trkpt lat="42.54798076115548610687255859375" lon="-0.2684205584228038787841796875">
        <ele>1736.4000244140625</ele>
        <time>2020-08-18T11:41:34.000Z</time>
      </trkpt>
      <trkpt lat="42.5480343215167522430419921875" lon="-0.268324501812458038330078125">
        <ele>1735.4000244140625</ele>
        <time>2020-08-18T11:41:37.000Z</time>
      </trkpt>
      <trkpt lat="42.54810489714145660400390625" lon="-0.26819583959877490997314453125">
        <ele>1734.199951171875</ele>
        <time>2020-08-18T11:41:41.000Z</time>
      </trkpt>
      <trkpt lat="42.5481664203107357025146484375" lon="-0.26808989234268665313720703125">
        <ele>1733</ele>
        <time>2020-08-18T11:41:45.000Z</time>
      </trkpt>
      <trkpt lat="42.54823741503059864044189453125" lon="-0.267982520163059234619140625">
        <ele>1731.800048828125</ele>
        <time>2020-08-18T11:41:49.000Z</time>
      </trkpt>
      <trkpt lat="42.548420391976833343505859375" lon="-0.26778194122016429901123046875">
        <ele>1730.5999755859375</ele>
        <time>2020-08-18T11:41:57.000Z</time>
      </trkpt>
      <trkpt lat="42.54856623709201812744140625" lon="-0.26765763759613037109375">
        <ele>1729.4000244140625</ele>
        <time>2020-08-18T11:42:02.000Z</time>
      </trkpt>
      <trkpt lat="42.5486519001424312591552734375" lon="-0.26758027262985706329345703125">
        <ele>1728.4000244140625</ele>
        <time>2020-08-18T11:42:05.000Z</time>
      </trkpt>
      <trkpt lat="42.54868031479418277740478515625" lon="-0.2675545401871204376220703125">
        <ele>1728.199951171875</ele>
        <time>2020-08-18T11:42:06.000Z</time>
      </trkpt>
      <trkpt lat="42.54884812049567699432373046875" lon="-0.26739922352135181427001953125">
        <ele>1727.4000244140625</ele>
        <time>2020-08-18T11:42:13.000Z</time>
      </trkpt>
      <trkpt lat="42.548902519047260284423828125" lon="-0.2673506923019886016845703125">
        <ele>1727</ele>
        <time>2020-08-18T11:42:16.000Z</time>
      </trkpt>
      <trkpt lat="42.54901324398815631866455078125" lon="-0.26725840754806995391845703125">
        <ele>1726.5999755859375</ele>
        <time>2020-08-18T11:42:21.000Z</time>
      </trkpt>
      <trkpt lat="42.54911969415843486785888671875" lon="-0.26718087494373321533203125">
        <ele>1725.800048828125</ele>
        <time>2020-08-18T11:42:25.000Z</time>
      </trkpt>
      <trkpt lat="42.5492302514612674713134765625" lon="-0.26711004786193370819091796875">
        <ele>1724.199951171875</ele>
        <time>2020-08-18T11:42:29.000Z</time>
      </trkpt>
      <trkpt lat="42.549321614205837249755859375" lon="-0.26705137453973293304443359375">
        <ele>1722.800048828125</ele>
        <time>2020-08-18T11:42:32.000Z</time>
      </trkpt>
      <trkpt lat="42.54938707686960697174072265625" lon="-0.26700175367295742034912109375">
        <ele>1721.199951171875</ele>
        <time>2020-08-18T11:42:34.000Z</time>
      </trkpt>
      <trkpt lat="42.5494438223540782928466796875" lon="-0.2669486962258815765380859375">
        <ele>1721.199951171875</ele>
        <time>2020-08-18T11:42:36.000Z</time>
      </trkpt>
      <trkpt lat="42.5495105423033237457275390625" lon="-0.26688541285693645477294921875">
        <ele>1722.199951171875</ele>
        <time>2020-08-18T11:42:40.000Z</time>
      </trkpt>
      <trkpt lat="42.549522109329700469970703125" lon="-0.266872085630893707275390625">
        <ele>1722.199951171875</ele>
        <time>2020-08-18T11:42:41.000Z</time>
      </trkpt>
      <trkpt lat="42.54962998442351818084716796875" lon="-0.26676186360418796539306640625">
        <ele>1722.199951171875</ele>
        <time>2020-08-18T11:42:48.000Z</time>
      </trkpt>
      <trkpt lat="42.54973308183252811431884765625" lon="-0.266662202775478363037109375">
        <ele>1721</ele>
        <time>2020-08-18T11:42:54.000Z</time>
      </trkpt>
      <trkpt lat="42.5497482530772686004638671875" lon="-0.26664401404559612274169921875">
        <ele>1720.5999755859375</ele>
        <time>2020-08-18T11:42:55.000Z</time>
      </trkpt>
      <trkpt lat="42.54977582953870296478271484375" lon="-0.26660562492907047271728515625">
        <ele>1719.800048828125</ele>
        <time>2020-08-18T11:42:57.000Z</time>
      </trkpt>
      <trkpt lat="42.5498371012508869171142578125" lon="-0.26653320528566837310791015625">
        <ele>1718.800048828125</ele>
        <time>2020-08-18T11:43:01.000Z</time>
      </trkpt>
      <trkpt lat="42.5498548708856105804443359375" lon="-0.2665198780596256256103515625">
        <ele>1718.4000244140625</ele>
        <time>2020-08-18T11:43:02.000Z</time>
      </trkpt>
      <trkpt lat="42.54989133216440677642822265625" lon="-0.26649666018784046173095703125">
        <ele>1717.4000244140625</ele>
        <time>2020-08-18T11:43:04.000Z</time>
      </trkpt>
      <trkpt lat="42.5499732233583927154541015625" lon="-0.2664434351027011871337890625">
        <ele>1716.199951171875</ele>
        <time>2020-08-18T11:43:08.000Z</time>
      </trkpt>
      <trkpt lat="42.5500325672328472137451171875" lon="-0.26640848256647586822509765625">
        <ele>1715.5999755859375</ele>
        <time>2020-08-18T11:43:11.000Z</time>
      </trkpt>
      <trkpt lat="42.550051845610141754150390625" lon="-0.2663971669971942901611328125">
        <ele>1715.199951171875</ele>
        <time>2020-08-18T11:43:12.000Z</time>
      </trkpt>
      <trkpt lat="42.550138346850872039794921875" lon="-0.2663545869290828704833984375">
        <ele>1714</ele>
        <time>2020-08-18T11:43:16.000Z</time>
      </trkpt>
      <trkpt lat="42.55020062439143657684326171875" lon="-0.2663213945925235748291015625">
        <ele>1713.4000244140625</ele>
        <time>2020-08-18T11:43:19.000Z</time>
      </trkpt>
      <trkpt lat="42.5502176396548748016357421875" lon="-0.26630756445229053497314453125">
        <ele>1713</ele>
        <time>2020-08-18T11:43:20.000Z</time>
      </trkpt>
      <trkpt lat="42.55025158636271953582763671875" lon="-0.26627671904861927032470703125">
        <ele>1711.4000244140625</ele>
        <time>2020-08-18T11:43:22.000Z</time>
      </trkpt>
      <trkpt lat="42.55030271597206592559814453125" lon="-0.266230367124080657958984375">
        <ele>1710</ele>
        <time>2020-08-18T11:43:25.000Z</time>
      </trkpt>
      <trkpt lat="42.550319731235504150390625" lon="-0.26621368713676929473876953125">
        <ele>1709.5999755859375</ele>
        <time>2020-08-18T11:43:26.000Z</time>
      </trkpt>
      <trkpt lat="42.55039122886955738067626953125" lon="-0.266147553920745849609375">
        <ele>1708.800048828125</ele>
        <time>2020-08-18T11:43:30.000Z</time>
      </trkpt>
      <trkpt lat="42.5504687614738941192626953125" lon="-0.266100279986858367919921875">
        <ele>1707.5999755859375</ele>
        <time>2020-08-18T11:43:34.000Z</time>
      </trkpt>
      <trkpt lat="42.55055031739175319671630859375" lon="-0.26610421948134899139404296875">
        <ele>1706.800048828125</ele>
        <time>2020-08-18T11:43:38.000Z</time>
      </trkpt>
      <trkpt lat="42.55056322552263736724853515625" lon="-0.266120396554470062255859375">
        <ele>1706.5999755859375</ele>
        <time>2020-08-18T11:43:39.000Z</time>
      </trkpt>
      <trkpt lat="42.55057496018707752227783203125" lon="-0.26613858528435230255126953125">
        <ele>1706.4000244140625</ele>
        <time>2020-08-18T11:43:40.000Z</time>
      </trkpt>
      <trkpt lat="42.55058015696704387664794921875" lon="-0.2662427723407745361328125">
        <ele>1705.4000244140625</ele>
        <time>2020-08-18T11:43:44.000Z</time>
      </trkpt>
      <trkpt lat="42.55056180059909820556640625" lon="-0.2663056366145610809326171875">
        <ele>1705.199951171875</ele>
        <time>2020-08-18T11:43:46.000Z</time>
      </trkpt>
      <trkpt lat="42.5505237467586994171142578125" lon="-0.26636254973709583282470703125">
        <ele>1705</ele>
        <time>2020-08-18T11:43:49.000Z</time>
      </trkpt>
      <trkpt lat="42.55044252611696720123291015625" lon="-0.2664506435394287109375">
        <ele>1705.199951171875</ele>
        <time>2020-08-18T11:43:55.000Z</time>
      </trkpt>
      <trkpt lat="42.55033507011830806732177734375" lon="-0.26654058136045932769775390625">
        <ele>1705.800048828125</ele>
        <time>2020-08-18T11:44:03.000Z</time>
      </trkpt>
      <trkpt lat="42.55024655722081661224365234375" lon="-0.26663881726562976837158203125">
        <ele>1706.199951171875</ele>
        <time>2020-08-18T11:44:11.000Z</time>
      </trkpt>
      <trkpt lat="42.550220824778079986572265625" lon="-0.26665876619517803192138671875">
        <ele>1706.4000244140625</ele>
        <time>2020-08-18T11:44:13.000Z</time>
      </trkpt>
      <trkpt lat="42.55015150643885135650634765625" lon="-0.2667314372956752777099609375">
        <ele>1706.800048828125</ele>
        <time>2020-08-18T11:44:19.000Z</time>
      </trkpt>
      <trkpt lat="42.5500553660094738006591796875" lon="-0.266838558018207550048828125">
        <ele>1707</ele>
        <time>2020-08-18T11:44:27.000Z</time>
      </trkpt>
      <trkpt lat="42.54993843846023082733154296875" lon="-0.26696403510868549346923828125">
        <ele>1707</ele>
        <time>2020-08-18T11:44:35.000Z</time>
      </trkpt>
      <trkpt lat="42.5498409569263458251953125" lon="-0.267086327075958251953125">
        <ele>1706.4000244140625</ele>
        <time>2020-08-18T11:44:42.000Z</time>
      </trkpt>
      <trkpt lat="42.549725286662578582763671875" lon="-0.267240218818187713623046875">
        <ele>1706.199951171875</ele>
        <time>2020-08-18T11:44:49.000Z</time>
      </trkpt>
      <trkpt lat="42.5495923496782779693603515625" lon="-0.26744197122752666473388671875">
        <ele>1705.4000244140625</ele>
        <time>2020-08-18T11:44:55.000Z</time>
      </trkpt>
      <trkpt lat="42.549569718539714813232421875" lon="-0.2674757502973079681396484375">
        <ele>1705.4000244140625</ele>
        <time>2020-08-18T11:44:56.000Z</time>
      </trkpt>
      <trkpt lat="42.54941540770232677459716796875" lon="-0.26771731674671173095703125">
        <ele>1704.5999755859375</ele>
        <time>2020-08-18T11:45:04.000Z</time>
      </trkpt>
      <trkpt lat="42.54938590340316295623779296875" lon="-0.2677671052515506744384765625">
        <ele>1704.4000244140625</ele>
        <time>2020-08-18T11:45:06.000Z</time>
      </trkpt>
      <trkpt lat="42.54928314127027988433837890625" lon="-0.26795578189194202423095703125">
        <ele>1704.4000244140625</ele>
        <time>2020-08-18T11:45:13.000Z</time>
      </trkpt>
      <trkpt lat="42.5492681376636028289794921875" lon="-0.26798159815371036529541015625">
        <ele>1704.4000244140625</ele>
        <time>2020-08-18T11:45:14.000Z</time>
      </trkpt>
      <trkpt lat="42.5492010824382305145263671875" lon="-0.26810296811163425445556640625">
        <ele>1703.199951171875</ele>
        <time>2020-08-18T11:45:19.000Z</time>
      </trkpt>
      <trkpt lat="42.54916009493172168731689453125" lon="-0.26817672885954380035400390625">
        <ele>1703</ele>
        <time>2020-08-18T11:45:22.000Z</time>
      </trkpt>
      <trkpt lat="42.54905481822788715362548828125" lon="-0.26840387843549251556396484375">
        <ele>1702.800048828125</ele>
        <time>2020-08-18T11:45:30.000Z</time>
      </trkpt>
      <trkpt lat="42.548995055258274078369140625" lon="-0.26856749318540096282958984375">
        <ele>1702.199951171875</ele>
        <time>2020-08-18T11:45:35.000Z</time>
      </trkpt>
      <trkpt lat="42.548958174884319305419921875" lon="-0.26867243461310863494873046875">
        <ele>1701.4000244140625</ele>
        <time>2020-08-18T11:45:38.000Z</time>
      </trkpt>
      <trkpt lat="42.54891567863523960113525390625" lon="-0.2687839977443218231201171875">
        <ele>1701</ele>
        <time>2020-08-18T11:45:41.000Z</time>
      </trkpt>
      <trkpt lat="42.54885331727564334869384765625" lon="-0.268932692706584930419921875">
        <ele>1700</ele>
        <time>2020-08-18T11:45:45.000Z</time>
      </trkpt>
      <trkpt lat="42.5488378107547760009765625" lon="-0.2689680643379688262939453125">
        <ele>1699.800048828125</ele>
        <time>2020-08-18T11:45:46.000Z</time>
      </trkpt>
      <trkpt lat="42.54876899532973766326904296875" lon="-0.26911147870123386383056640625">
        <ele>1699.199951171875</ele>
        <time>2020-08-18T11:45:51.000Z</time>
      </trkpt>
      <trkpt lat="42.548736222088336944580078125" lon="-0.26916696690022945404052734375">
        <ele>1698.5999755859375</ele>
        <time>2020-08-18T11:45:53.000Z</time>
      </trkpt>
      <trkpt lat="42.54866321571171283721923828125" lon="-0.2693254686892032623291015625">
        <ele>1697.800048828125</ele>
        <time>2020-08-18T11:45:58.000Z</time>
      </trkpt>
      <trkpt lat="42.54861317574977874755859375" lon="-0.2694206871092319488525390625">
        <ele>1697.5999755859375</ele>
        <time>2020-08-18T11:46:01.000Z</time>
      </trkpt>
      <trkpt lat="42.5485670752823352813720703125" lon="-0.2695075236260890960693359375">
        <ele>1696.4000244140625</ele>
        <time>2020-08-18T11:46:04.000Z</time>
      </trkpt>
      <trkpt lat="42.54853681661188602447509765625" lon="-0.2695740759372711181640625">
        <ele>1696.199951171875</ele>
        <time>2020-08-18T11:46:06.000Z</time>
      </trkpt>
      <trkpt lat="42.54842542111873626708984375" lon="-0.26979736983776092529296875">
        <ele>1696.4000244140625</ele>
        <time>2020-08-18T11:46:13.000Z</time>
      </trkpt>
      <trkpt lat="42.54837119020521640777587890625" lon="-0.26994028128683567047119140625">
        <ele>1695.4000244140625</ele>
        <time>2020-08-18T11:46:17.000Z</time>
      </trkpt>
      <trkpt lat="42.5483307056128978729248046875" lon="-0.2700493298470973968505859375">
        <ele>1694.5999755859375</ele>
        <time>2020-08-18T11:46:20.000Z</time>
      </trkpt>
      <trkpt lat="42.54830480553209781646728515625" lon="-0.27012200094759464263916015625">
        <ele>1694.4000244140625</ele>
        <time>2020-08-18T11:46:22.000Z</time>
      </trkpt>
      <trkpt lat="42.54823372699320316314697265625" lon="-0.2703198976814746856689453125">
        <ele>1693.199951171875</ele>
        <time>2020-08-18T11:46:27.000Z</time>
      </trkpt>
      <trkpt lat="42.5482069887220859527587890625" lon="-0.27040363289415836334228515625">
        <ele>1692.5999755859375</ele>
        <time>2020-08-18T11:46:29.000Z</time>
      </trkpt>
      <trkpt lat="42.5481189787387847900390625" lon="-0.27068920433521270751953125">
        <ele>1692</ele>
        <time>2020-08-18T11:46:36.000Z</time>
      </trkpt>
      <trkpt lat="42.5480564497411251068115234375" lon="-0.27088701725006103515625">
        <ele>1690.800048828125</ele>
        <time>2020-08-18T11:46:41.000Z</time>
      </trkpt>
      <trkpt lat="42.548028118908405303955078125" lon="-0.27098399586975574493408203125">
        <ele>1690.4000244140625</ele>
        <time>2020-08-18T11:46:44.000Z</time>
      </trkpt>
      <trkpt lat="42.5480128638446331024169921875" lon="-0.2710900269448757171630859375">
        <ele>1689.4000244140625</ele>
        <time>2020-08-18T11:46:47.000Z</time>
      </trkpt>
      <trkpt lat="42.54801571369171142578125" lon="-0.271203853189945220947265625">
        <ele>1688.199951171875</ele>
        <time>2020-08-18T11:46:50.000Z</time>
      </trkpt>
      <trkpt lat="42.54804546944797039031982421875" lon="-0.27144022285938262939453125">
        <ele>1687.199951171875</ele>
        <time>2020-08-18T11:46:56.000Z</time>
      </trkpt>
      <trkpt lat="42.54805049858987331390380859375" lon="-0.2714782766997814178466796875">
        <ele>1687</ele>
        <time>2020-08-18T11:46:57.000Z</time>
      </trkpt>
      <trkpt lat="42.54806089214980602264404296875" lon="-0.2715805359184741973876953125">
        <ele>1685.800048828125</ele>
        <time>2020-08-18T11:47:00.000Z</time>
      </trkpt>
      <trkpt lat="42.54807916469871997833251953125" lon="-0.2716663666069507598876953125">
        <ele>1685.199951171875</ele>
        <time>2020-08-18T11:47:03.000Z</time>
      </trkpt>
      <trkpt lat="42.54811227321624755859375" lon="-0.2717233635485172271728515625">
        <ele>1684.800048828125</ele>
        <time>2020-08-18T11:47:06.000Z</time>
      </trkpt>
      <trkpt lat="42.54812560044229030609130859375" lon="-0.27173602022230625152587890625">
        <ele>1684.800048828125</ele>
        <time>2020-08-18T11:47:08.000Z</time>
      </trkpt>
      <trkpt lat="42.54812576808035373687744140625" lon="-0.27173266746103763580322265625">
        <ele>1684.199951171875</ele>
        <time>2020-08-18T11:47:20.000Z</time>
      </trkpt>
      <trkpt lat="42.54813331179320812225341796875" lon="-0.2717317454516887664794921875">
        <ele>1684</ele>
        <time>2020-08-18T11:47:32.000Z</time>
      </trkpt>
      <trkpt lat="42.54818544723093509674072265625" lon="-0.27169377543032169342041015625">
        <ele>1683.800048828125</ele>
        <time>2020-08-18T11:47:36.000Z</time>
      </trkpt>
      <trkpt lat="42.5481999479234218597412109375" lon="-0.27167466469109058380126953125">
        <ele>1683.800048828125</ele>
        <time>2020-08-18T11:47:37.000Z</time>
      </trkpt>
      <trkpt lat="42.54823875613510608673095703125" lon="-0.27156804688274860382080078125">
        <ele>1682.800048828125</ele>
        <time>2020-08-18T11:47:41.000Z</time>
      </trkpt>
      <trkpt lat="42.5482425279915332794189453125" lon="-0.2715376205742359161376953125">
        <ele>1682.5999755859375</ele>
        <time>2020-08-18T11:47:42.000Z</time>
      </trkpt>
      <trkpt lat="42.54826054908335208892822265625" lon="-0.271443910896778106689453125">
        <ele>1681.5999755859375</ele>
        <time>2020-08-18T11:47:45.000Z</time>
      </trkpt>
      <trkpt lat="42.5482941605150699615478515625" lon="-0.27132363058626651763916015625">
        <ele>1680.800048828125</ele>
        <time>2020-08-18T11:47:49.000Z</time>
      </trkpt>
      <trkpt lat="42.54830069839954376220703125" lon="-0.27128708548843860626220703125">
        <ele>1680.4000244140625</ele>
        <time>2020-08-18T11:47:50.000Z</time>
      </trkpt>
      <trkpt lat="42.54833556711673736572265625" lon="-0.271118022501468658447265625">
        <ele>1679</ele>
        <time>2020-08-18T11:47:54.000Z</time>
      </trkpt>
      <trkpt lat="42.5483467988669872283935546875" lon="-0.27106739580631256103515625">
        <ele>1678.5999755859375</ele>
        <time>2020-08-18T11:47:55.000Z</time>
      </trkpt>
      <trkpt lat="42.5483722798526287078857421875" lon="-0.27097620069980621337890625">
        <ele>1677.800048828125</ele>
        <time>2020-08-18T11:47:57.000Z</time>
      </trkpt>
      <trkpt lat="42.54841335117816925048828125" lon="-0.27087159454822540283203125">
        <ele>1677.5999755859375</ele>
        <time>2020-08-18T11:48:00.000Z</time>
      </trkpt>
      <trkpt lat="42.54847311414778232574462890625" lon="-0.27071594260632991790771484375">
        <ele>1676.800048828125</ele>
        <time>2020-08-18T11:48:05.000Z</time>
      </trkpt>
      <trkpt lat="42.54850613884627819061279296875" lon="-0.270639918744564056396484375">
        <ele>1676.5999755859375</ele>
        <time>2020-08-18T11:48:07.000Z</time>
      </trkpt>
      <trkpt lat="42.54861652851104736328125" lon="-0.27042073197662830352783203125">
        <ele>1675.800048828125</ele>
        <time>2020-08-18T11:48:13.000Z</time>
      </trkpt>
      <trkpt lat="42.5486532412469387054443359375" lon="-0.27035401202738285064697265625">
        <ele>1675.4000244140625</ele>
        <time>2020-08-18T11:48:15.000Z</time>
      </trkpt>
      <trkpt lat="42.54871585406363010406494140625" lon="-0.27028846554458141326904296875">
        <ele>1674.4000244140625</ele>
        <time>2020-08-18T11:48:18.000Z</time>
      </trkpt>
      <trkpt lat="42.54874887876212596893310546875" lon="-0.27025829069316387176513671875">
        <ele>1674.4000244140625</ele>
        <time>2020-08-18T11:48:20.000Z</time>
      </trkpt>
      <trkpt lat="42.54880906082689762115478515625" lon="-0.27015754021704196929931640625">
        <ele>1673.800048828125</ele>
        <time>2020-08-18T11:48:25.000Z</time>
      </trkpt>
      <trkpt lat="42.54882750101387500762939453125" lon="-0.27008428238332271575927734375">
        <ele>1672.800048828125</ele>
        <time>2020-08-18T11:48:28.000Z</time>
      </trkpt>
      <trkpt lat="42.54886270500719547271728515625" lon="-0.27000750415027141571044921875">
        <ele>1672.4000244140625</ele>
        <time>2020-08-18T11:48:32.000Z</time>
      </trkpt>
      <trkpt lat="42.54892255179584026336669921875" lon="-0.2700080908834934234619140625">
        <ele>1671.5999755859375</ele>
        <time>2020-08-18T11:48:36.000Z</time>
      </trkpt>
      <trkpt lat="42.54893763922154903411865234375" lon="-0.2701113559305667877197265625">
        <ele>1670.800048828125</ele>
        <time>2020-08-18T11:48:40.000Z</time>
      </trkpt>
      <trkpt lat="42.54892171360552310943603515625" lon="-0.27018184773623943328857421875">
        <ele>1670.199951171875</ele>
        <time>2020-08-18T11:48:42.000Z</time>
      </trkpt>
      <trkpt lat="42.54888751544058322906494140625" lon="-0.27031931094825267791748046875">
        <ele>1669</ele>
        <time>2020-08-18T11:48:45.000Z</time>
      </trkpt>
      <trkpt lat="42.54887603223323822021484375" lon="-0.270371697843074798583984375">
        <ele>1669</ele>
        <time>2020-08-18T11:48:46.000Z</time>
      </trkpt>
      <trkpt lat="42.54883504472672939300537109375" lon="-0.27053120546042919158935546875">
        <ele>1668</ele>
        <time>2020-08-18T11:48:49.000Z</time>
      </trkpt>
      <trkpt lat="42.54877737723290920257568359375" lon="-0.27079322375357151031494140625">
        <ele>1667</ele>
        <time>2020-08-18T11:48:54.000Z</time>
      </trkpt>
      <trkpt lat="42.54874996840953826904296875" lon="-0.27100176550447940826416015625">
        <ele>1665.800048828125</ele>
        <time>2020-08-18T11:48:58.000Z</time>
      </trkpt>
      <trkpt lat="42.54875273443758487701416015625" lon="-0.27114308439195156097412109375">
        <ele>1665.5999755859375</ele>
        <time>2020-08-18T11:49:01.000Z</time>
      </trkpt>
      <trkpt lat="42.5487672351300716400146484375" lon="-0.27123905718326568603515625">
        <ele>1664.4000244140625</ele>
        <time>2020-08-18T11:49:03.000Z</time>
      </trkpt>
      <trkpt lat="42.54880453459918498992919921875" lon="-0.2713776938617229461669921875">
        <ele>1663.199951171875</ele>
        <time>2020-08-18T11:49:06.000Z</time>
      </trkpt>
      <trkpt lat="42.54881962202489376068115234375" lon="-0.27142220176756381988525390625">
        <ele>1662.800048828125</ele>
        <time>2020-08-18T11:49:07.000Z</time>
      </trkpt>
      <trkpt lat="42.548880390822887420654296875" lon="-0.2715523727238178253173828125">
        <ele>1662.199951171875</ele>
        <time>2020-08-18T11:49:10.000Z</time>
      </trkpt>
      <trkpt lat="42.54893629811704158782958984375" lon="-0.2716200985014438629150390625">
        <ele>1661.199951171875</ele>
        <time>2020-08-18T11:49:12.000Z</time>
      </trkpt>
      <trkpt lat="42.548964880406856536865234375" lon="-0.27165169827640056610107421875">
        <ele>1661</ele>
        <time>2020-08-18T11:49:13.000Z</time>
      </trkpt>
      <trkpt lat="42.54913344047963619232177734375" lon="-0.2717934362590312957763671875">
        <ele>1659.5999755859375</ele>
        <time>2020-08-18T11:49:19.000Z</time>
      </trkpt>
      <trkpt lat="42.54936511628329753875732421875" lon="-0.2719389460980892181396484375">
        <ele>1658.800048828125</ele>
        <time>2020-08-18T11:49:27.000Z</time>
      </trkpt>
      <trkpt lat="42.54944524727761745452880859375" lon="-0.27199904434382915496826171875">
        <ele>1658.199951171875</ele>
        <time>2020-08-18T11:49:30.000Z</time>
      </trkpt>
      <trkpt lat="42.54951615817844867706298828125" lon="-0.27208252809941768646240234375">
        <ele>1657.199951171875</ele>
        <time>2020-08-18T11:49:33.000Z</time>
      </trkpt>
      <trkpt lat="42.54962344653904438018798828125" lon="-0.272253938019275665283203125">
        <ele>1655.800048828125</ele>
        <time>2020-08-18T11:49:38.000Z</time>
      </trkpt>
      <trkpt lat="42.5497127138078212738037109375" lon="-0.27242484502494335174560546875">
        <ele>1654.5999755859375</ele>
        <time>2020-08-18T11:49:42.000Z</time>
      </trkpt>
      <trkpt lat="42.5497499294579029083251953125" lon="-0.2725082449615001678466796875">
        <ele>1653.800048828125</ele>
        <time>2020-08-18T11:49:44.000Z</time>
      </trkpt>
      <trkpt lat="42.54976761527359485626220703125" lon="-0.27254923246800899505615234375">
        <ele>1653.4000244140625</ele>
        <time>2020-08-18T11:49:45.000Z</time>
      </trkpt>
      <trkpt lat="42.54979871213436126708984375" lon="-0.27262534014880657196044921875">
        <ele>1652</ele>
        <time>2020-08-18T11:49:47.000Z</time>
      </trkpt>
      <trkpt lat="42.549836598336696624755859375" lon="-0.27273430489003658294677734375">
        <ele>1650.5999755859375</ele>
        <time>2020-08-18T11:49:50.000Z</time>
      </trkpt>
      <trkpt lat="42.5499101914465427398681640625" lon="-0.2729308605194091796875">
        <ele>1649.800048828125</ele>
        <time>2020-08-18T11:49:56.000Z</time>
      </trkpt>
      <trkpt lat="42.54995159804821014404296875" lon="-0.2730416692793369293212890625">
        <ele>1649.5999755859375</ele>
        <time>2020-08-18T11:50:00.000Z</time>
      </trkpt>
      <trkpt lat="42.549967356026172637939453125" lon="-0.27310453355312347412109375">
        <ele>1649</ele>
        <time>2020-08-18T11:50:02.000Z</time>
      </trkpt>
      <trkpt lat="42.55000029690563678741455078125" lon="-0.2732314355671405792236328125">
        <ele>1648.199951171875</ele>
        <time>2020-08-18T11:50:06.000Z</time>
      </trkpt>
      <trkpt lat="42.550013959407806396484375" lon="-0.27334056794643402099609375">
        <ele>1647.199951171875</ele>
        <time>2020-08-18T11:50:09.000Z</time>
      </trkpt>
      <trkpt lat="42.5500416196882724761962890625" lon="-0.2735117264091968536376953125">
        <ele>1646.199951171875</ele>
        <time>2020-08-18T11:50:13.000Z</time>
      </trkpt>
      <trkpt lat="42.55007229745388031005859375" lon="-0.27364390902221202850341796875">
        <ele>1645</ele>
        <time>2020-08-18T11:50:16.000Z</time>
      </trkpt>
      <trkpt lat="42.5501252710819244384765625" lon="-0.2737963758409023284912109375">
        <ele>1644</ele>
        <time>2020-08-18T11:50:20.000Z</time>
      </trkpt>
      <trkpt lat="42.55016676150262355804443359375" lon="-0.27391598559916019439697265625">
        <ele>1642.4000244140625</ele>
        <time>2020-08-18T11:50:23.000Z</time>
      </trkpt>
      <trkpt lat="42.5502002052962779998779296875" lon="-0.27399259619414806365966796875">
        <ele>1641.199951171875</ele>
        <time>2020-08-18T11:50:25.000Z</time>
      </trkpt>
      <trkpt lat="42.5502950884401798248291015625" lon="-0.2741380222141742706298828125">
        <ele>1640.5999755859375</ele>
        <time>2020-08-18T11:50:29.000Z</time>
      </trkpt>
      <trkpt lat="42.550385110080242156982421875" lon="-0.2742545306682586669921875">
        <ele>1640.5999755859375</ele>
        <time>2020-08-18T11:50:32.000Z</time>
      </trkpt>
      <trkpt lat="42.55046180449426174163818359375" lon="-0.27431127615272998809814453125">
        <ele>1639</ele>
        <time>2020-08-18T11:50:34.000Z</time>
      </trkpt>
      <trkpt lat="42.55054562352597713470458984375" lon="-0.27440280653536319732666015625">
        <ele>1638.800048828125</ele>
        <time>2020-08-18T11:50:38.000Z</time>
      </trkpt>
      <trkpt lat="42.5506125949323177337646484375" lon="-0.27456927113234996795654296875">
        <ele>1640</ele>
        <time>2020-08-18T11:50:44.000Z</time>
      </trkpt>
      <trkpt lat="42.5506193004548549652099609375" lon="-0.274595506489276885986328125">
        <ele>1640.199951171875</ele>
        <time>2020-08-18T11:50:45.000Z</time>
      </trkpt>
      <trkpt lat="42.55065877921879291534423828125" lon="-0.27472618035972118377685546875">
        <ele>1640.5999755859375</ele>
        <time>2020-08-18T11:50:50.000Z</time>
      </trkpt>
      <trkpt lat="42.550721727311611175537109375" lon="-0.274944864213466644287109375">
        <ele>1641.199951171875</ele>
        <time>2020-08-18T11:50:58.000Z</time>
      </trkpt>
      <trkpt lat="42.55078316666185855865478515625" lon="-0.2751404978334903717041015625">
        <ele>1641.199951171875</ele>
        <time>2020-08-18T11:51:05.000Z</time>
      </trkpt>
      <trkpt lat="42.5508382357656955718994140625" lon="-0.27527653612196445465087890625">
        <ele>1640.199951171875</ele>
        <time>2020-08-18T11:51:09.000Z</time>
      </trkpt>
      <trkpt lat="42.55088475532829761505126953125" lon="-0.27539304457604885101318359375">
        <ele>1639.5999755859375</ele>
        <time>2020-08-18T11:51:12.000Z</time>
      </trkpt>
      <trkpt lat="42.55091459490358829498291015625" lon="-0.275470577180385589599609375">
        <ele>1639</ele>
        <time>2020-08-18T11:51:14.000Z</time>
      </trkpt>
      <trkpt lat="42.5509394891560077667236328125" lon="-0.27555406093597412109375">
        <ele>1637.800048828125</ele>
        <time>2020-08-18T11:51:16.000Z</time>
      </trkpt>
      <trkpt lat="42.5509763695299625396728515625" lon="-0.27566294185817241668701171875">
        <ele>1636.800048828125</ele>
        <time>2020-08-18T11:51:19.000Z</time>
      </trkpt>
      <trkpt lat="42.5510189495980739593505859375" lon="-0.27577341534197330474853515625">
        <ele>1635.800048828125</ele>
        <time>2020-08-18T11:51:22.000Z</time>
      </trkpt>
      <trkpt lat="42.55106739699840545654296875" lon="-0.27588506229221820831298828125">
        <ele>1635.199951171875</ele>
        <time>2020-08-18T11:51:25.000Z</time>
      </trkpt>
      <trkpt lat="42.551242075860500335693359375" lon="-0.27610332705080509185791015625">
        <ele>1634.4000244140625</ele>
        <time>2020-08-18T11:51:33.000Z</time>
      </trkpt>
      <trkpt lat="42.55136302672326564788818359375" lon="-0.2762026526033878326416015625">
        <ele>1633.199951171875</ele>
        <time>2020-08-18T11:51:38.000Z</time>
      </trkpt>
      <trkpt lat="42.5514073669910430908203125" lon="-0.27625939808785915374755859375">
        <ele>1632.800048828125</ele>
        <time>2020-08-18T11:51:40.000Z</time>
      </trkpt>
      <trkpt lat="42.55146612413227558135986328125" lon="-0.2763547003269195556640625">
        <ele>1632</ele>
        <time>2020-08-18T11:51:43.000Z</time>
      </trkpt>
      <trkpt lat="42.55153032951056957244873046875" lon="-0.27644363231956958770751953125">
        <ele>1630.800048828125</ele>
        <time>2020-08-18T11:51:46.000Z</time>
      </trkpt>
      <trkpt lat="42.551557235419750213623046875" lon="-0.2764702029526233673095703125">
        <ele>1630.4000244140625</ele>
        <time>2020-08-18T11:51:47.000Z</time>
      </trkpt>
      <trkpt lat="42.55164206027984619140625" lon="-0.2765677683055400848388671875">
        <ele>1629.800048828125</ele>
        <time>2020-08-18T11:51:50.000Z</time>
      </trkpt>
      <trkpt lat="42.55174306221306324005126953125" lon="-0.2767256833612918853759765625">
        <ele>1629</ele>
        <time>2020-08-18T11:51:54.000Z</time>
      </trkpt>
      <trkpt lat="42.55184280686080455780029296875" lon="-0.2769439481198787689208984375">
        <ele>1629.199951171875</ele>
        <time>2020-08-18T11:52:00.000Z</time>
      </trkpt>
      <trkpt lat="42.5518745742738246917724609375" lon="-0.27704746462404727935791015625">
        <ele>1628.5999755859375</ele>
        <time>2020-08-18T11:52:04.000Z</time>
      </trkpt>
      <trkpt lat="42.55187951959669589996337890625" lon="-0.2770599536597728729248046875">
        <ele>1628.4000244140625</ele>
        <time>2020-08-18T11:52:05.000Z</time>
      </trkpt>
      <trkpt lat="42.551884464919567108154296875" lon="-0.2770646475255489349365234375">
        <ele>1627.5999755859375</ele>
        <time>2020-08-18T11:52:09.000Z</time>
      </trkpt>
      <trkpt lat="42.55188471637666225433349609375" lon="-0.277068503201007843017578125">
        <ele>1627.5999755859375</ele>
        <time>2020-08-18T11:52:10.000Z</time>
      </trkpt>
      <trkpt lat="42.55190349183976650238037109375" lon="-0.27714192867279052734375">
        <ele>1627</ele>
        <time>2020-08-18T11:52:17.000Z</time>
      </trkpt>
      <trkpt lat="42.55191355012357234954833984375" lon="-0.27717302553355693817138671875">
        <ele>1626.800048828125</ele>
        <time>2020-08-18T11:52:20.000Z</time>
      </trkpt>
      <trkpt lat="42.5519349239766597747802734375" lon="-0.2772410027682781219482421875">
        <ele>1625.800048828125</ele>
        <time>2020-08-18T11:52:26.000Z</time>
      </trkpt>
      <trkpt lat="42.5519438087940216064453125" lon="-0.27726656757295131683349609375">
        <ele>1625.4000244140625</ele>
        <time>2020-08-18T11:52:28.000Z</time>
      </trkpt>
      <trkpt lat="42.55195462144911289215087890625" lon="-0.277303196489810943603515625">
        <ele>1624.4000244140625</ele>
        <time>2020-08-18T11:52:31.000Z</time>
      </trkpt>
      <trkpt lat="42.55197406746447086334228515625" lon="-0.2773435972630977630615234375">
        <ele>1623.199951171875</ele>
        <time>2020-08-18T11:52:34.000Z</time>
      </trkpt>
      <trkpt lat="42.55197758786380290985107421875" lon="-0.2773570083081722259521484375">
        <ele>1623</ele>
        <time>2020-08-18T11:52:35.000Z</time>
      </trkpt>
      <trkpt lat="42.55197976715862751007080078125" lon="-0.27737134136259555816650390625">
        <ele>1622.5999755859375</ele>
        <time>2020-08-18T11:52:40.000Z</time>
      </trkpt>
      <trkpt lat="42.55199812352657318115234375" lon="-0.27748248539865016937255859375">
        <ele>1622.4000244140625</ele>
        <time>2020-08-18T11:52:44.000Z</time>
      </trkpt>
      <trkpt lat="42.5520016439259052276611328125" lon="-0.27751701883971691131591796875">
        <ele>1622.199951171875</ele>
        <time>2020-08-18T11:52:45.000Z</time>
      </trkpt>
      <trkpt lat="42.55202285014092922210693359375" lon="-0.27764040045440196990966796875">
        <ele>1621</ele>
        <time>2020-08-18T11:52:49.000Z</time>
      </trkpt>
      <trkpt lat="42.552033327519893646240234375" lon="-0.2776716649532318115234375">
        <ele>1620.800048828125</ele>
        <time>2020-08-18T11:52:50.000Z</time>
      </trkpt>
      <trkpt lat="42.55208085291087627410888671875" lon="-0.277830921113491058349609375">
        <ele>1620</ele>
        <time>2020-08-18T11:52:55.000Z</time>
      </trkpt>
      <trkpt lat="42.55210147239267826080322265625" lon="-0.27789588086307048797607421875">
        <ele>1619.4000244140625</ele>
        <time>2020-08-18T11:52:57.000Z</time>
      </trkpt>
      <trkpt lat="42.5521665997803211212158203125" lon="-0.27809168212115764617919921875">
        <ele>1618.800048828125</ele>
        <time>2020-08-18T11:53:02.000Z</time>
      </trkpt>
      <trkpt lat="42.5521852076053619384765625" lon="-0.27813308872282505035400390625">
        <ele>1618.800048828125</ele>
        <time>2020-08-18T11:53:03.000Z</time>
      </trkpt>
      <trkpt lat="42.55224178545176982879638671875" lon="-0.2782381139695644378662109375">
        <ele>1617.199951171875</ele>
        <time>2020-08-18T11:53:06.000Z</time>
      </trkpt>
      <trkpt lat="42.5522737205028533935546875" lon="-0.27830391190946102142333984375">
        <ele>1615.5999755859375</ele>
        <time>2020-08-18T11:53:08.000Z</time>
      </trkpt>
      <trkpt lat="42.552286796271800994873046875" lon="-0.2783427201211452484130859375">
        <ele>1615.4000244140625</ele>
        <time>2020-08-18T11:53:09.000Z</time>
      </trkpt>
      <trkpt lat="42.5523831881582736968994140625" lon="-0.2786843664944171905517578125">
        <ele>1614.5999755859375</ele>
        <time>2020-08-18T11:53:17.000Z</time>
      </trkpt>
      <trkpt lat="42.55248821340501308441162109375" lon="-0.2789430320262908935546875">
        <ele>1614.4000244140625</ele>
        <time>2020-08-18T11:53:24.000Z</time>
      </trkpt>
      <trkpt lat="42.552556693553924560546875" lon="-0.2790219895541667938232421875">
        <ele>1613.199951171875</ele>
        <time>2020-08-18T11:53:27.000Z</time>
      </trkpt>
      <trkpt lat="42.55260069854557514190673828125" lon="-0.279039256274700164794921875">
        <ele>1613</ele>
        <time>2020-08-18T11:53:29.000Z</time>
      </trkpt>
      <trkpt lat="42.55265937186777591705322265625" lon="-0.2790712751448154449462890625">
        <ele>1613.4000244140625</ele>
        <time>2020-08-18T11:53:34.000Z</time>
      </trkpt>
      <trkpt lat="42.5526869483292102813720703125" lon="-0.2790823392570018768310546875">
        <ele>1613</ele>
        <time>2020-08-18T11:53:40.000Z</time>
      </trkpt>
      <trkpt lat="42.5527323782444000244140625" lon="-0.279099941253662109375">
        <ele>1612.800048828125</ele>
        <time>2020-08-18T11:53:49.000Z</time>
      </trkpt>
      <trkpt lat="42.5527860224246978759765625" lon="-0.27912248857319355010986328125">
        <ele>1612.4000244140625</ele>
        <time>2020-08-18T11:53:53.000Z</time>
      </trkpt>
      <trkpt lat="42.5528047978878021240234375" lon="-0.279134809970855712890625">
        <ele>1612.199951171875</ele>
        <time>2020-08-18T11:53:54.000Z</time>
      </trkpt>
      <trkpt lat="42.55282768048346042633056640625" lon="-0.27914964593946933746337890625">
        <ele>1612.199951171875</ele>
        <time>2020-08-18T11:53:55.000Z</time>
      </trkpt>
      <trkpt lat="42.5529471226036548614501953125" lon="-0.2792087383568286895751953125">
        <ele>1611.4000244140625</ele>
        <time>2020-08-18T11:53:59.000Z</time>
      </trkpt>
      <trkpt lat="42.55298173986375331878662109375" lon="-0.27922390960156917572021484375">
        <ele>1611</ele>
        <time>2020-08-18T11:54:00.000Z</time>
      </trkpt>
      <trkpt lat="42.5530778802931308746337890625" lon="-0.2792704291641712188720703125">
        <ele>1610</ele>
        <time>2020-08-18T11:54:03.000Z</time>
      </trkpt>
      <trkpt lat="42.553108222782611846923828125" lon="-0.2792764641344547271728515625">
        <ele>1609.5999755859375</ele>
        <time>2020-08-18T11:54:04.000Z</time>
      </trkpt>
      <trkpt lat="42.55326638929545879364013671875" lon="-0.2793327905237674713134765625">
        <ele>1609.199951171875</ele>
        <time>2020-08-18T11:54:09.000Z</time>
      </trkpt>
      <trkpt lat="42.5532951392233371734619140625" lon="-0.27934963814914226531982421875">
        <ele>1609</ele>
        <time>2020-08-18T11:54:10.000Z</time>
      </trkpt>
      <trkpt lat="42.55335892550647258758544921875" lon="-0.279387272894382476806640625">
        <ele>1607.800048828125</ele>
        <time>2020-08-18T11:54:12.000Z</time>
      </trkpt>
      <trkpt lat="42.55342279560863971710205078125" lon="-0.27944049797952175140380859375">
        <ele>1607.199951171875</ele>
        <time>2020-08-18T11:54:14.000Z</time>
      </trkpt>
      <trkpt lat="42.55352036096155643463134765625" lon="-0.2795554138720035552978515625">
        <ele>1606.5999755859375</ele>
        <time>2020-08-18T11:54:18.000Z</time>
      </trkpt>
      <trkpt lat="42.55356126464903354644775390625" lon="-0.279617272317409515380859375">
        <ele>1606.199951171875</ele>
        <time>2020-08-18T11:54:20.000Z</time>
      </trkpt>
      <trkpt lat="42.55360065959393978118896484375" lon="-0.27967401780188083648681640625">
        <ele>1606</ele>
        <time>2020-08-18T11:54:22.000Z</time>
      </trkpt>
      <trkpt lat="42.5536512024700641632080078125" lon="-0.27971483767032623291015625">
        <ele>1605.800048828125</ele>
        <time>2020-08-18T11:54:24.000Z</time>
      </trkpt>
      <trkpt lat="42.5536797009408473968505859375" lon="-0.27973839081823825836181640625">
        <ele>1605.4000244140625</ele>
        <time>2020-08-18T11:54:25.000Z</time>
      </trkpt>
      <trkpt lat="42.5537296570837497711181640625" lon="-0.2797807194292545318603515625">
        <ele>1603.800048828125</ele>
        <time>2020-08-18T11:54:27.000Z</time>
      </trkpt>
      <trkpt lat="42.55375203676521778106689453125" lon="-0.2798041887581348419189453125">
        <ele>1603.4000244140625</ele>
        <time>2020-08-18T11:54:28.000Z</time>
      </trkpt>
      <trkpt lat="42.55380869843065738677978515625" lon="-0.27985540218651294708251953125">
        <ele>1602.199951171875</ele>
        <time>2020-08-18T11:54:30.000Z</time>
      </trkpt>
      <trkpt lat="42.553862594068050384521484375" lon="-0.27991424314677715301513671875">
        <ele>1601</ele>
        <time>2020-08-18T11:54:32.000Z</time>
      </trkpt>
      <trkpt lat="42.5538858957588672637939453125" lon="-0.27994827367365360260009765625">
        <ele>1600.4000244140625</ele>
        <time>2020-08-18T11:54:33.000Z</time>
      </trkpt>
      <trkpt lat="42.5539338402450084686279296875" lon="-0.27998984791338443756103515625">
        <ele>1599.800048828125</ele>
        <time>2020-08-18T11:54:35.000Z</time>
      </trkpt>
      <trkpt lat="42.5539848022162914276123046875" lon="-0.279990769922733306884765625">
        <ele>1599</ele>
        <time>2020-08-18T11:54:37.000Z</time>
      </trkpt>
      <trkpt lat="42.55403182469308376312255859375" lon="-0.2799657918512821197509765625">
        <ele>1598.4000244140625</ele>
        <time>2020-08-18T11:54:39.000Z</time>
      </trkpt>
      <trkpt lat="42.55407012999057769775390625" lon="-0.2799205295741558074951171875">
        <ele>1597.5999755859375</ele>
        <time>2020-08-18T11:54:41.000Z</time>
      </trkpt>
      <trkpt lat="42.55410608835518360137939453125" lon="-0.2798511274158954620361328125">
        <ele>1597</ele>
        <time>2020-08-18T11:54:43.000Z</time>
      </trkpt>
      <trkpt lat="42.55413592793047428131103515625" lon="-0.279780887067317962646484375">
        <ele>1596.4000244140625</ele>
        <time>2020-08-18T11:54:45.000Z</time>
      </trkpt>
      <trkpt lat="42.55414749495685100555419921875" lon="-0.27974576689302921295166015625">
        <ele>1596.199951171875</ele>
        <time>2020-08-18T11:54:46.000Z</time>
      </trkpt>
      <trkpt lat="42.5541584752500057220458984375" lon="-0.279712490737438201904296875">
        <ele>1596</ele>
        <time>2020-08-18T11:54:47.000Z</time>
      </trkpt>
      <trkpt lat="42.55417632870376110076904296875" lon="-0.279565639793872833251953125">
        <ele>1594.5999755859375</ele>
        <time>2020-08-18T11:54:51.000Z</time>
      </trkpt>
      <trkpt lat="42.5541651807725429534912109375" lon="-0.27942339889705181121826171875">
        <ele>1593.5999755859375</ele>
        <time>2020-08-18T11:54:55.000Z</time>
      </trkpt>
      <trkpt lat="42.5541539490222930908203125" lon="-0.27935852296650409698486328125">
        <ele>1593.199951171875</ele>
        <time>2020-08-18T11:54:57.000Z</time>
      </trkpt>
      <trkpt lat="42.55413047969341278076171875" lon="-0.2792744524776935577392578125">
        <ele>1592.4000244140625</ele>
        <time>2020-08-18T11:55:00.000Z</time>
      </trkpt>
      <trkpt lat="42.5541004724800586700439453125" lon="-0.27920664288103580474853515625">
        <ele>1591.800048828125</ele>
        <time>2020-08-18T11:55:02.000Z</time>
      </trkpt>
      <trkpt lat="42.55404238589107990264892578125" lon="-0.279097594320774078369140625">
        <ele>1591</ele>
        <time>2020-08-18T11:55:05.000Z</time>
      </trkpt>
      <trkpt lat="42.55400014109909534454345703125" lon="-0.27901880443096160888671875">
        <ele>1590.5999755859375</ele>
        <time>2020-08-18T11:55:07.000Z</time>
      </trkpt>
      <trkpt lat="42.5539254583418369293212890625" lon="-0.2788721211254596710205078125">
        <ele>1590.4000244140625</ele>
        <time>2020-08-18T11:55:11.000Z</time>
      </trkpt>
      <trkpt lat="42.55390257574617862701416015625" lon="-0.2788292057812213897705078125">
        <ele>1589.800048828125</ele>
        <time>2020-08-18T11:55:12.000Z</time>
      </trkpt>
      <trkpt lat="42.55383535288274288177490234375" lon="-0.27870305813848972320556640625">
        <ele>1588.800048828125</ele>
        <time>2020-08-18T11:55:15.000Z</time>
      </trkpt>
      <trkpt lat="42.55380735732614994049072265625" lon="-0.278614461421966552734375">
        <ele>1588.4000244140625</ele>
        <time>2020-08-18T11:55:17.000Z</time>
      </trkpt>
      <trkpt lat="42.55378489382565021514892578125" lon="-0.27843886055052280426025390625">
        <ele>1587.800048828125</ele>
        <time>2020-08-18T11:55:22.000Z</time>
      </trkpt>
      <trkpt lat="42.55378137342631816864013671875" lon="-0.2784023992717266082763671875">
        <ele>1587</ele>
        <time>2020-08-18T11:55:23.000Z</time>
      </trkpt>
      <trkpt lat="42.55377718247473239898681640625" lon="-0.27836929075419902801513671875">
        <ele>1586.5999755859375</ele>
        <time>2020-08-18T11:55:24.000Z</time>
      </trkpt>
      <trkpt lat="42.55373829044401645660400390625" lon="-0.2782169915735721588134765625">
        <ele>1585.800048828125</ele>
        <time>2020-08-18T11:55:28.000Z</time>
      </trkpt>
      <trkpt lat="42.553723789751529693603515625" lon="-0.2781760878860950469970703125">
        <ele>1585.5999755859375</ele>
        <time>2020-08-18T11:55:29.000Z</time>
      </trkpt>
      <trkpt lat="42.553703673183917999267578125" lon="-0.27810978703200817108154296875">
        <ele>1584.5999755859375</ele>
        <time>2020-08-18T11:55:31.000Z</time>
      </trkpt>
      <trkpt lat="42.553666792809963226318359375" lon="-0.277956314384937286376953125">
        <ele>1583.800048828125</ele>
        <time>2020-08-18T11:55:35.000Z</time>
      </trkpt>
      <trkpt lat="42.5536290742456912994384765625" lon="-0.27774902991950511932373046875">
        <ele>1583.4000244140625</ele>
        <time>2020-08-18T11:55:39.000Z</time>
      </trkpt>
      <trkpt lat="42.55362127907574176788330078125" lon="-0.27769773267209529876708984375">
        <ele>1583</ele>
        <time>2020-08-18T11:55:40.000Z</time>
      </trkpt>
      <trkpt lat="42.55361725576221942901611328125" lon="-0.2776406519114971160888671875">
        <ele>1582.199951171875</ele>
        <time>2020-08-18T11:55:41.000Z</time>
      </trkpt>
      <trkpt lat="42.55358272232115268707275390625" lon="-0.277453400194644927978515625">
        <ele>1581.4000244140625</ele>
        <time>2020-08-18T11:55:45.000Z</time>
      </trkpt>
      <trkpt lat="42.5535653717815876007080078125" lon="-0.27742196805775165557861328125">
        <ele>1581.199951171875</ele>
        <time>2020-08-18T11:55:46.000Z</time>
      </trkpt>
      <trkpt lat="42.55351717583835124969482421875" lon="-0.2773241512477397918701171875">
        <ele>1580.800048828125</ele>
        <time>2020-08-18T11:55:49.000Z</time>
      </trkpt>
      <trkpt lat="42.5535075366497039794921875" lon="-0.2772755362093448638916015625">
        <ele>1580.4000244140625</ele>
        <time>2020-08-18T11:55:50.000Z</time>
      </trkpt>
      <trkpt lat="42.5535053573548793792724609375" lon="-0.2772222273051738739013671875">
        <ele>1580</ele>
        <time>2020-08-18T11:55:51.000Z</time>
      </trkpt>
      <trkpt lat="42.5535063631832599639892578125" lon="-0.2771152742207050323486328125">
        <ele>1579.4000244140625</ele>
        <time>2020-08-18T11:55:53.000Z</time>
      </trkpt>
      <trkpt lat="42.553509883582592010498046875" lon="-0.2769421041011810302734375">
        <ele>1578.800048828125</ele>
        <time>2020-08-18T11:55:56.000Z</time>
      </trkpt>
      <trkpt lat="42.55350208841264247894287109375" lon="-0.27683590538799762725830078125">
        <ele>1578.199951171875</ele>
        <time>2020-08-18T11:55:58.000Z</time>
      </trkpt>
      <trkpt lat="42.55348968319594860076904296875" lon="-0.27678393758833408355712890625">
        <ele>1577.199951171875</ele>
        <time>2020-08-18T11:55:59.000Z</time>
      </trkpt>
      <trkpt lat="42.553448863327503204345703125" lon="-0.276609174907207489013671875">
        <ele>1575.800048828125</ele>
        <time>2020-08-18T11:56:03.000Z</time>
      </trkpt>
      <trkpt lat="42.55340821109712123870849609375" lon="-0.27632779441773891448974609375">
        <ele>1574.5999755859375</ele>
        <time>2020-08-18T11:56:09.000Z</time>
      </trkpt>
      <trkpt lat="42.55338641814887523651123046875" lon="-0.2761912532150745391845703125">
        <ele>1573.5999755859375</ele>
        <time>2020-08-18T11:56:12.000Z</time>
      </trkpt>
      <trkpt lat="42.55337635986506938934326171875" lon="-0.27614825405180454254150390625">
        <ele>1573.199951171875</ele>
        <time>2020-08-18T11:56:13.000Z</time>
      </trkpt>
      <trkpt lat="42.553367055952548980712890625" lon="-0.276106931269168853759765625">
        <ele>1573</ele>
        <time>2020-08-18T11:56:14.000Z</time>
      </trkpt>
      <trkpt lat="42.553354315459728240966796875" lon="-0.27601682581007480621337890625">
        <ele>1572.4000244140625</ele>
        <time>2020-08-18T11:56:16.000Z</time>
      </trkpt>
      <trkpt lat="42.55334450863301753997802734375" lon="-0.27597826905548572540283203125">
        <ele>1572.199951171875</ele>
        <time>2020-08-18T11:56:17.000Z</time>
      </trkpt>
      <trkpt lat="42.55332858301699161529541015625" lon="-0.2758772671222686767578125">
        <ele>1571.5999755859375</ele>
        <time>2020-08-18T11:56:19.000Z</time>
      </trkpt>
      <trkpt lat="42.55331701599061489105224609375" lon="-0.2758318372070789337158203125">
        <ele>1571.4000244140625</ele>
        <time>2020-08-18T11:56:20.000Z</time>
      </trkpt>
      <trkpt lat="42.55331508815288543701171875" lon="-0.27573175728321075439453125">
        <ele>1571.199951171875</ele>
        <time>2020-08-18T11:56:22.000Z</time>
      </trkpt>
      <trkpt lat="42.5533212907612323760986328125" lon="-0.2756424061954021453857421875">
        <ele>1570.5999755859375</ele>
        <time>2020-08-18T11:56:24.000Z</time>
      </trkpt>
      <trkpt lat="42.55332372151315212249755859375" lon="-0.27560007758438587188720703125">
        <ele>1570.199951171875</ele>
        <time>2020-08-18T11:56:25.000Z</time>
      </trkpt>
      <trkpt lat="42.55331031046807765960693359375" lon="-0.27546219527721405029296875">
        <ele>1569.4000244140625</ele>
        <time>2020-08-18T11:56:28.000Z</time>
      </trkpt>
      <trkpt lat="42.5533119030296802520751953125" lon="-0.27542062103748321533203125">
        <ele>1569.199951171875</ele>
        <time>2020-08-18T11:56:29.000Z</time>
      </trkpt>
      <trkpt lat="42.55329488776624202728271484375" lon="-0.27516270987689495086669921875">
        <ele>1568.4000244140625</ele>
        <time>2020-08-18T11:56:34.000Z</time>
      </trkpt>
      <trkpt lat="42.55329036153852939605712890625" lon="-0.27509481646120548248291015625">
        <ele>1568</ele>
        <time>2020-08-18T11:56:36.000Z</time>
      </trkpt>
      <trkpt lat="42.5532679818570613861083984375" lon="-0.27498166076838970184326171875">
        <ele>1567.199951171875</ele>
        <time>2020-08-18T11:56:40.000Z</time>
      </trkpt>
      <trkpt lat="42.553267143666744232177734375" lon="-0.2749400027096271514892578125">
        <ele>1567</ele>
        <time>2020-08-18T11:56:41.000Z</time>
      </trkpt>
      <trkpt lat="42.5532715022563934326171875" lon="-0.27471092529594898223876953125">
        <ele>1565.800048828125</ele>
        <time>2020-08-18T11:56:46.000Z</time>
      </trkpt>
      <trkpt lat="42.55327594466507434844970703125" lon="-0.2745363302528858184814453125">
        <ele>1565.199951171875</ele>
        <time>2020-08-18T11:56:50.000Z</time>
      </trkpt>
      <trkpt lat="42.55327887833118438720703125" lon="-0.2744954265654087066650390625">
        <ele>1565</ele>
        <time>2020-08-18T11:56:51.000Z</time>
      </trkpt>
      <trkpt lat="42.55328969098627567291259765625" lon="-0.27441202662885189056396484375">
        <ele>1564</ele>
        <time>2020-08-18T11:56:53.000Z</time>
      </trkpt>
      <trkpt lat="42.55329656414687633514404296875" lon="-0.2743403613567352294921875">
        <ele>1563.199951171875</ele>
        <time>2020-08-18T11:56:55.000Z</time>
      </trkpt>
      <trkpt lat="42.5533025152981281280517578125" lon="-0.27430742047727108001708984375">
        <ele>1562.5999755859375</ele>
        <time>2020-08-18T11:56:56.000Z</time>
      </trkpt>
      <trkpt lat="42.55332020111382007598876953125" lon="-0.27412938885390758514404296875">
        <ele>1563</ele>
        <time>2020-08-18T11:57:00.000Z</time>
      </trkpt>
      <trkpt lat="42.55331969819962978363037109375" lon="-0.27390785515308380126953125">
        <ele>1561.5999755859375</ele>
        <time>2020-08-18T11:57:05.000Z</time>
      </trkpt>
      <trkpt lat="42.55332137458026409149169921875" lon="-0.27380517683923244476318359375">
        <ele>1560.4000244140625</ele>
        <time>2020-08-18T11:57:07.000Z</time>
      </trkpt>
      <trkpt lat="42.5533305108547210693359375" lon="-0.27366100810468196868896484375">
        <ele>1559.5999755859375</ele>
        <time>2020-08-18T11:57:10.000Z</time>
      </trkpt>
      <trkpt lat="42.553325481712818145751953125" lon="-0.27357123792171478271484375">
        <ele>1559.4000244140625</ele>
        <time>2020-08-18T11:57:12.000Z</time>
      </trkpt>
      <trkpt lat="42.5533224642276763916015625" lon="-0.27348130010068416595458984375">
        <ele>1559</ele>
        <time>2020-08-18T11:57:14.000Z</time>
      </trkpt>
      <trkpt lat="42.553316093981266021728515625" lon="-0.27332288213074207305908203125">
        <ele>1558.4000244140625</ele>
        <time>2020-08-18T11:57:17.000Z</time>
      </trkpt>
      <trkpt lat="42.55331299267709255218505859375" lon="-0.2732766978442668914794921875">
        <ele>1558</ele>
        <time>2020-08-18T11:57:18.000Z</time>
      </trkpt>
      <trkpt lat="42.55330762825906276702880859375" lon="-0.27311333455145359039306640625">
        <ele>1557</ele>
        <time>2020-08-18T11:57:22.000Z</time>
      </trkpt>
      <trkpt lat="42.553306706249713897705078125" lon="-0.27307125739753246307373046875">
        <ele>1556.800048828125</ele>
        <time>2020-08-18T11:57:23.000Z</time>
      </trkpt>
      <trkpt lat="42.55326303653419017791748046875" lon="-0.27283455245196819305419921875">
        <ele>1556.199951171875</ele>
        <time>2020-08-18T11:57:29.000Z</time>
      </trkpt>
      <trkpt lat="42.55324191413819789886474609375" lon="-0.27280588634312152862548828125">
        <ele>1556.199951171875</ele>
        <time>2020-08-18T11:57:30.000Z</time>
      </trkpt>
      <trkpt lat="42.55322213284671306610107421875" lon="-0.27277822606265544891357421875">
        <ele>1556.199951171875</ele>
        <time>2020-08-18T11:57:31.000Z</time>
      </trkpt>
      <trkpt lat="42.55317335017025470733642578125" lon="-0.27272491715848445892333984375">
        <ele>1555.800048828125</ele>
        <time>2020-08-18T11:57:33.000Z</time>
      </trkpt>
      <trkpt lat="42.55309992469847202301025390625" lon="-0.27263087220489978790283203125">
        <ele>1555.5999755859375</ele>
        <time>2020-08-18T11:57:36.000Z</time>
      </trkpt>
      <trkpt lat="42.5530436821281909942626953125" lon="-0.27256566099822521209716796875">
        <ele>1555</ele>
        <time>2020-08-18T11:57:38.000Z</time>
      </trkpt>
      <trkpt lat="42.55293061025440692901611328125" lon="-0.2724193967878818511962890625">
        <ele>1554</ele>
        <time>2020-08-18T11:57:43.000Z</time>
      </trkpt>
      <trkpt lat="42.55290797911584377288818359375" lon="-0.2724022977054119110107421875">
        <ele>1553.800048828125</ele>
        <time>2020-08-18T11:57:44.000Z</time>
      </trkpt>
      <trkpt lat="42.5528745353221893310546875" lon="-0.2723499946296215057373046875">
        <ele>1553.4000244140625</ele>
        <time>2020-08-18T11:57:46.000Z</time>
      </trkpt>
      <trkpt lat="42.55286841653287410736083984375" lon="-0.272319316864013671875">
        <ele>1553.199951171875</ele>
        <time>2020-08-18T11:57:47.000Z</time>
      </trkpt>
      <trkpt lat="42.55286120809614658355712890625" lon="-0.27225829660892486572265625">
        <ele>1552.5999755859375</ele>
        <time>2020-08-18T11:57:49.000Z</time>
      </trkpt>
      <trkpt lat="42.552867829799652099609375" lon="-0.2722232602536678314208984375">
        <ele>1552.4000244140625</ele>
        <time>2020-08-18T11:57:50.000Z</time>
      </trkpt>
      <trkpt lat="42.5528663210570812225341796875" lon="-0.27218797244131565093994140625">
        <ele>1552.199951171875</ele>
        <time>2020-08-18T11:57:51.000Z</time>
      </trkpt>
      <trkpt lat="42.55288593471050262451171875" lon="-0.272029973566532135009765625">
        <ele>1551.800048828125</ele>
        <time>2020-08-18T11:57:55.000Z</time>
      </trkpt>
      <trkpt lat="42.55290529690682888031005859375" lon="-0.27192142792046070098876953125">
        <ele>1551.4000244140625</ele>
        <time>2020-08-18T11:57:58.000Z</time>
      </trkpt>
      <trkpt lat="42.55290806293487548828125" lon="-0.2718950249254703521728515625">
        <ele>1551.4000244140625</ele>
        <time>2020-08-18T11:57:59.000Z</time>
      </trkpt>
      <trkpt lat="42.552902698516845703125" lon="-0.27184079401195049285888671875">
        <ele>1550.4000244140625</ele>
        <time>2020-08-18T11:58:01.000Z</time>
      </trkpt>
      <trkpt lat="42.55288937129080295562744140625" lon="-0.27167919091880321502685546875">
        <ele>1550</ele>
        <time>2020-08-18T11:58:07.000Z</time>
      </trkpt>
      <trkpt lat="42.552890293300151824951171875" lon="-0.27158983983099460601806640625">
        <ele>1549.5999755859375</ele>
        <time>2020-08-18T11:58:14.000Z</time>
      </trkpt>
      <trkpt lat="42.55288593471050262451171875" lon="-0.27158983983099460601806640625">
        <ele>1549.4000244140625</ele>
        <time>2020-08-18T11:58:23.000Z</time>
      </trkpt>
      <trkpt lat="42.55288601852953433990478515625" lon="-0.271588750183582305908203125">
        <ele>1549.199951171875</ele>
        <time>2020-08-18T11:58:27.000Z</time>
      </trkpt>
      <trkpt lat="42.552886269986629486083984375" lon="-0.271587409079074859619140625">
        <ele>1549.4000244140625</ele>
        <time>2020-08-18T11:58:34.000Z</time>
      </trkpt>
      <trkpt lat="42.55288459360599517822265625" lon="-0.27158145792782306671142578125">
        <ele>1549.4000244140625</ele>
        <time>2020-08-18T11:58:43.000Z</time>
      </trkpt>
      <trkpt lat="42.55288350395858287811279296875" lon="-0.27158028446137905120849609375">
        <ele>1549.4000244140625</ele>
        <time>2020-08-18T11:58:49.000Z</time>
      </trkpt>
      <trkpt lat="42.55288115702569484710693359375" lon="-0.2715775184333324432373046875">
        <ele>1549</ele>
        <time>2020-08-18T11:59:02.000Z</time>
      </trkpt>
      <trkpt lat="42.5528693385422229766845703125" lon="-0.2715597487986087799072265625">
        <ele>1548.800048828125</ele>
        <time>2020-08-18T11:59:11.000Z</time>
      </trkpt>
      <trkpt lat="42.552855424582958221435546875" lon="-0.271502919495105743408203125">
        <ele>1548.800048828125</ele>
        <time>2020-08-18T11:59:15.000Z</time>
      </trkpt>
      <trkpt lat="42.55284293554723262786865234375" lon="-0.271474421024322509765625">
        <ele>1548.5999755859375</ele>
        <time>2020-08-18T11:59:17.000Z</time>
      </trkpt>
      <trkpt lat="42.5528230704367160797119140625" lon="-0.27143008075654506683349609375">
        <ele>1548.199951171875</ele>
        <time>2020-08-18T11:59:20.000Z</time>
      </trkpt>
      <trkpt lat="42.55281125195324420928955078125" lon="-0.27140007354319095611572265625">
        <ele>1548</ele>
        <time>2020-08-18T11:59:21.000Z</time>
      </trkpt>
      <trkpt lat="42.55279113538563251495361328125" lon="-0.2713471837341785430908203125">
        <ele>1547.4000244140625</ele>
        <time>2020-08-18T11:59:23.000Z</time>
      </trkpt>
      <trkpt lat="42.55276389420032501220703125" lon="-0.27128172107040882110595703125">
        <ele>1547</ele>
        <time>2020-08-18T11:59:26.000Z</time>
      </trkpt>
      <trkpt lat="42.55274134688079357147216796875" lon="-0.27124064974486827850341796875">
        <ele>1546.4000244140625</ele>
        <time>2020-08-18T11:59:28.000Z</time>
      </trkpt>
      <trkpt lat="42.55271972157061100006103515625" lon="-0.2711968123912811279296875">
        <ele>1545.800048828125</ele>
        <time>2020-08-18T11:59:30.000Z</time>
      </trkpt>
      <trkpt lat="42.552673704922199249267578125" lon="-0.2711014263331890106201171875">
        <ele>1544.5999755859375</ele>
        <time>2020-08-18T11:59:33.000Z</time>
      </trkpt>
      <trkpt lat="42.55266155116260051727294921875" lon="-0.27107678353786468505859375">
        <ele>1544.4000244140625</ele>
        <time>2020-08-18T11:59:34.000Z</time>
      </trkpt>
      <trkpt lat="42.55259432829916477203369140625" lon="-0.2709247358143329620361328125">
        <ele>1543.5999755859375</ele>
        <time>2020-08-18T11:59:39.000Z</time>
      </trkpt>
      <trkpt lat="42.5525709427893161773681640625" lon="-0.2708040364086627960205078125">
        <ele>1542.5999755859375</ele>
        <time>2020-08-18T11:59:44.000Z</time>
      </trkpt>
      <trkpt lat="42.55257521755993366241455078125" lon="-0.27078417129814624786376953125">
        <ele>1542.199951171875</ele>
        <time>2020-08-18T11:59:45.000Z</time>
      </trkpt>
      <trkpt lat="42.55260522477328777313232421875" lon="-0.27075449936091899871826171875">
        <ele>1541.4000244140625</ele>
        <time>2020-08-18T11:59:48.000Z</time>
      </trkpt>
      <trkpt lat="42.5526168756186962127685546875" lon="-0.2707542479038238525390625">
        <ele>1541.4000244140625</ele>
        <time>2020-08-18T11:59:49.000Z</time>
      </trkpt>
      <trkpt lat="42.5527248345315456390380859375" lon="-0.2707309462130069732666015625">
        <ele>1541.199951171875</ele>
        <time>2020-08-18T11:59:55.000Z</time>
      </trkpt>
      <trkpt lat="42.55280052311718463897705078125" lon="-0.2706866897642612457275390625">
        <ele>1540.800048828125</ele>
        <time>2020-08-18T12:00:00.000Z</time>
      </trkpt>
      <trkpt lat="42.55281753838062286376953125" lon="-0.2706764638423919677734375">
        <ele>1540.4000244140625</ele>
        <time>2020-08-18T12:00:01.000Z</time>
      </trkpt>
      <trkpt lat="42.5528663210570812225341796875" lon="-0.2706571854650974273681640625">
        <ele>1539.199951171875</ele>
        <time>2020-08-18T12:00:04.000Z</time>
      </trkpt>
      <trkpt lat="42.55288132466375827789306640625" lon="-0.2706565149128437042236328125">
        <ele>1539.199951171875</ele>
        <time>2020-08-18T12:00:05.000Z</time>
      </trkpt>
      <trkpt lat="42.55295701324939727783203125" lon="-0.2706705965101718902587890625">
        <ele>1538</ele>
        <time>2020-08-18T12:00:09.000Z</time>
      </trkpt>
      <trkpt lat="42.55298961885273456573486328125" lon="-0.27067872695624828338623046875">
        <ele>1537.4000244140625</ele>
        <time>2020-08-18T12:00:11.000Z</time>
      </trkpt>
      <trkpt lat="42.5530166923999786376953125" lon="-0.27068777941167354583740234375">
        <ele>1537</ele>
        <time>2020-08-18T12:00:13.000Z</time>
      </trkpt>
      <trkpt lat="42.55303303711116313934326171875" lon="-0.27069582603871822357177734375">
        <ele>1536.800048828125</ele>
        <time>2020-08-18T12:00:14.000Z</time>
      </trkpt>
      <trkpt lat="42.55306773819029331207275390625" lon="-0.2707193791866302490234375">
        <ele>1536.4000244140625</ele>
        <time>2020-08-18T12:00:16.000Z</time>
      </trkpt>
      <trkpt lat="42.55313127301633358001708984375" lon="-0.270751900970935821533203125">
        <ele>1535.4000244140625</ele>
        <time>2020-08-18T12:00:19.000Z</time>
      </trkpt>
      <trkpt lat="42.55318910814821720123291015625" lon="-0.27078584767878055572509765625">
        <ele>1535</ele>
        <time>2020-08-18T12:00:22.000Z</time>
      </trkpt>
      <trkpt lat="42.5533068738877773284912109375" lon="-0.27088408358395099639892578125">
        <ele>1534.4000244140625</ele>
        <time>2020-08-18T12:00:28.000Z</time>
      </trkpt>
      <trkpt lat="42.55338692106306552886962890625" lon="-0.27099899947643280029296875">
        <ele>1533.5999755859375</ele>
        <time>2020-08-18T12:00:33.000Z</time>
      </trkpt>
      <trkpt lat="42.55339966155588626861572265625" lon="-0.27101735584437847137451171875">
        <ele>1533.4000244140625</ele>
        <time>2020-08-18T12:00:34.000Z</time>
      </trkpt>
      <trkpt lat="42.5534674711525440216064453125" lon="-0.271136462688446044921875">
        <ele>1532.199951171875</ele>
        <time>2020-08-18T12:00:39.000Z</time>
      </trkpt>
      <trkpt lat="42.55349035374820232391357421875" lon="-0.2712073735892772674560546875">
        <ele>1531</ele>
        <time>2020-08-18T12:00:42.000Z</time>
      </trkpt>
      <trkpt lat="42.55349814891815185546875" lon="-0.27122891508042812347412109375">
        <ele>1530.199951171875</ele>
        <time>2020-08-18T12:00:43.000Z</time>
      </trkpt>
      <trkpt lat="42.55350460298359394073486328125" lon="-0.271247439086437225341796875">
        <ele>1530</ele>
        <time>2020-08-18T12:00:44.000Z</time>
      </trkpt>
      <trkpt lat="42.55351248197257518768310546875" lon="-0.2712640352547168731689453125">
        <ele>1529.800048828125</ele>
        <time>2020-08-18T12:00:45.000Z</time>
      </trkpt>
      <trkpt lat="42.5535345263779163360595703125" lon="-0.27133855037391185760498046875">
        <ele>1529.5999755859375</ele>
        <time>2020-08-18T12:00:48.000Z</time>
      </trkpt>
      <trkpt lat="42.5535586662590503692626953125" lon="-0.27139185927808284759521484375">
        <ele>1529.199951171875</ele>
        <time>2020-08-18T12:00:50.000Z</time>
      </trkpt>
      <trkpt lat="42.55358858965337276458740234375" lon="-0.27146696113049983978271484375">
        <ele>1528.5999755859375</ele>
        <time>2020-08-18T12:00:53.000Z</time>
      </trkpt>
      <trkpt lat="42.55360501818358898162841796875" lon="-0.2715275622904300689697265625">
        <ele>1528.199951171875</ele>
        <time>2020-08-18T12:00:55.000Z</time>
      </trkpt>
      <trkpt lat="42.55367928184568881988525390625" lon="-0.27167567051947116851806640625">
        <ele>1527.800048828125</ele>
        <time>2020-08-18T12:01:00.000Z</time>
      </trkpt>
      <trkpt lat="42.553700320422649383544921875" lon="-0.271697379648685455322265625">
        <ele>1527</ele>
        <time>2020-08-18T12:01:01.000Z</time>
      </trkpt>
      <trkpt lat="42.55376243032515048980712890625" lon="-0.27182067744433879852294921875">
        <ele>1525.800048828125</ele>
        <time>2020-08-18T12:01:05.000Z</time>
      </trkpt>
      <trkpt lat="42.5537799485027790069580078125" lon="-0.271850265562534332275390625">
        <ele>1525.5999755859375</ele>
        <time>2020-08-18T12:01:06.000Z</time>
      </trkpt>
      <trkpt lat="42.55381741560995578765869140625" lon="-0.27195478789508342742919921875">
        <ele>1524.5999755859375</ele>
        <time>2020-08-18T12:01:09.000Z</time>
      </trkpt>
      <trkpt lat="42.5538508594036102294921875" lon="-0.27204749174416065216064453125">
        <ele>1523.800048828125</ele>
        <time>2020-08-18T12:01:12.000Z</time>
      </trkpt>
      <trkpt lat="42.553857900202274322509765625" lon="-0.27208453975617885589599609375">
        <ele>1523.5999755859375</ele>
        <time>2020-08-18T12:01:13.000Z</time>
      </trkpt>
      <trkpt lat="42.5539016537368297576904296875" lon="-0.27219534851610660552978515625">
        <ele>1523.4000244140625</ele>
        <time>2020-08-18T12:01:16.000Z</time>
      </trkpt>
      <trkpt lat="42.5539180822670459747314453125" lon="-0.272232480347156524658203125">
        <ele>1523.199951171875</ele>
        <time>2020-08-18T12:01:17.000Z</time>
      </trkpt>
      <trkpt lat="42.55397331900894641876220703125" lon="-0.2723114378750324249267578125">
        <ele>1522.5999755859375</ele>
        <time>2020-08-18T12:01:20.000Z</time>
      </trkpt>
      <trkpt lat="42.55401455797255039215087890625" lon="-0.27240808121860027313232421875">
        <ele>1521.199951171875</ele>
        <time>2020-08-18T12:01:23.000Z</time>
      </trkpt>
      <trkpt lat="42.554052360355854034423828125" lon="-0.27252190746366977691650390625">
        <ele>1520.800048828125</ele>
        <time>2020-08-18T12:01:26.000Z</time>
      </trkpt>
      <trkpt lat="42.55408714525401592254638671875" lon="-0.27257144451141357421875">
        <ele>1520.5999755859375</ele>
        <time>2020-08-18T12:01:28.000Z</time>
      </trkpt>
      <trkpt lat="42.554128132760524749755859375" lon="-0.27264512144029140472412109375">
        <ele>1520</ele>
        <time>2020-08-18T12:01:30.000Z</time>
      </trkpt>
      <trkpt lat="42.554166354238986968994140625" lon="-0.2727203071117401123046875">
        <ele>1519</ele>
        <time>2020-08-18T12:01:32.000Z</time>
      </trkpt>
      <trkpt lat="42.55417968146502971649169921875" lon="-0.27275324799120426177978515625">
        <ele>1518.800048828125</ele>
        <time>2020-08-18T12:01:33.000Z</time>
      </trkpt>
      <trkpt lat="42.55421102978289127349853515625" lon="-0.27284779585897922515869140625">
        <ele>1517.5999755859375</ele>
        <time>2020-08-18T12:01:36.000Z</time>
      </trkpt>
      <trkpt lat="42.5542208366096019744873046875" lon="-0.2728736959397792816162109375">
        <ele>1517.4000244140625</ele>
        <time>2020-08-18T12:01:37.000Z</time>
      </trkpt>
      <trkpt lat="42.55423550494015216827392578125" lon="-0.27294628322124481201171875">
        <ele>1516.800048828125</ele>
        <time>2020-08-18T12:01:39.000Z</time>
      </trkpt>
      <trkpt lat="42.554258890450000762939453125" lon="-0.273017697036266326904296875">
        <ele>1516.199951171875</ele>
        <time>2020-08-18T12:01:41.000Z</time>
      </trkpt>
      <trkpt lat="42.55429820157587528228759765625" lon="-0.27308533899486064910888671875">
        <ele>1516</ele>
        <time>2020-08-18T12:01:43.000Z</time>
      </trkpt>
      <trkpt lat="42.55431882105767726898193359375" lon="-0.27311987243592739105224609375">
        <ele>1515.5999755859375</ele>
        <time>2020-08-18T12:01:44.000Z</time>
      </trkpt>
      <trkpt lat="42.5544089265167713165283203125" lon="-0.27324995957314968109130859375">
        <ele>1515</ele>
        <time>2020-08-18T12:01:48.000Z</time>
      </trkpt>
      <trkpt lat="42.55450255237519741058349609375" lon="-0.2733719162642955780029296875">
        <ele>1514.4000244140625</ele>
        <time>2020-08-18T12:01:52.000Z</time>
      </trkpt>
      <trkpt lat="42.554521076381206512451171875" lon="-0.273401923477649688720703125">
        <ele>1514</ele>
        <time>2020-08-18T12:01:53.000Z</time>
      </trkpt>
      <trkpt lat="42.55455284379422664642333984375" lon="-0.273465625941753387451171875">
        <ele>1513.199951171875</ele>
        <time>2020-08-18T12:01:55.000Z</time>
      </trkpt>
      <trkpt lat="42.5545871257781982421875" lon="-0.27357534505426883697509765625">
        <ele>1512.5999755859375</ele>
        <time>2020-08-18T12:01:58.000Z</time>
      </trkpt>
      <trkpt lat="42.55460900254547595977783203125" lon="-0.27363837696611881256103515625">
        <ele>1512</ele>
        <time>2020-08-18T12:02:00.000Z</time>
      </trkpt>
      <trkpt lat="42.55461654625833034515380859375" lon="-0.2737306617200374603271484375">
        <ele>1511.5999755859375</ele>
        <time>2020-08-18T12:02:02.000Z</time>
      </trkpt>
      <trkpt lat="42.55463884212076663970947265625" lon="-0.27375161647796630859375">
        <ele>1511.4000244140625</ele>
        <time>2020-08-18T12:02:03.000Z</time>
      </trkpt>
      <trkpt lat="42.5547193922102451324462890625" lon="-0.273770391941070556640625">
        <ele>1511</ele>
        <time>2020-08-18T12:02:06.000Z</time>
      </trkpt>
      <trkpt lat="42.5547493994235992431640625" lon="-0.273756645619869232177734375">
        <ele>1510.5999755859375</ele>
        <time>2020-08-18T12:02:07.000Z</time>
      </trkpt>
      <trkpt lat="42.55478234030306339263916015625" lon="-0.273741222918033599853515625">
        <ele>1510</ele>
        <time>2020-08-18T12:02:08.000Z</time>
      </trkpt>
      <trkpt lat="42.55489214323461055755615234375" lon="-0.27365799061954021453857421875">
        <ele>1509</ele>
        <time>2020-08-18T12:02:12.000Z</time>
      </trkpt>
      <trkpt lat="42.55502256564795970916748046875" lon="-0.27360132895410060882568359375">
        <ele>1508.199951171875</ele>
        <time>2020-08-18T12:02:17.000Z</time>
      </trkpt>
      <trkpt lat="42.55507134832441806793212890625" lon="-0.27361415326595306396484375">
        <ele>1507.5999755859375</ele>
        <time>2020-08-18T12:02:19.000Z</time>
      </trkpt>
      <trkpt lat="42.5551130063831806182861328125" lon="-0.2736478485167026519775390625">
        <ele>1507.199951171875</ele>
        <time>2020-08-18T12:02:21.000Z</time>
      </trkpt>
      <trkpt lat="42.5551733560860157012939453125" lon="-0.27372839860618114471435546875">
        <ele>1507</ele>
        <time>2020-08-18T12:02:24.000Z</time>
      </trkpt>
      <trkpt lat="42.5552169419825077056884765625" lon="-0.2737732417881488800048828125">
        <ele>1506.5999755859375</ele>
        <time>2020-08-18T12:02:26.000Z</time>
      </trkpt>
      <trkpt lat="42.555249966681003570556640625" lon="-0.27381322346627712249755859375">
        <ele>1505.4000244140625</ele>
        <time>2020-08-18T12:02:28.000Z</time>
      </trkpt>
      <trkpt lat="42.5553014315664768218994140625" lon="-0.27392302639782428741455078125">
        <ele>1504.5999755859375</ele>
        <time>2020-08-18T12:02:32.000Z</time>
      </trkpt>
      <trkpt lat="42.55532205104827880859375" lon="-0.27394004166126251220703125">
        <ele>1504.4000244140625</ele>
        <time>2020-08-18T12:02:33.000Z</time>
      </trkpt>
      <trkpt lat="42.55537393502891063690185546875" lon="-0.27394683100283145904541015625">
        <ele>1503.800048828125</ele>
        <time>2020-08-18T12:02:36.000Z</time>
      </trkpt>
      <trkpt lat="42.5553959794342517852783203125" lon="-0.2739204280078411102294921875">
        <ele>1503</ele>
        <time>2020-08-18T12:02:38.000Z</time>
      </trkpt>
      <trkpt lat="42.55540729500353336334228515625" lon="-0.27388262562453746795654296875">
        <ele>1502</ele>
        <time>2020-08-18T12:02:40.000Z</time>
      </trkpt>
      <trkpt lat="42.55540947429835796356201171875" lon="-0.2738602459430694580078125">
        <ele>1502</ele>
        <time>2020-08-18T12:02:41.000Z</time>
      </trkpt>
      <trkpt lat="42.55541349761188030242919921875" lon="-0.27383535169064998626708984375">
        <ele>1501.800048828125</ele>
        <time>2020-08-18T12:02:42.000Z</time>
      </trkpt>
      <trkpt lat="42.55541919730603694915771484375" lon="-0.273684225976467132568359375">
        <ele>1501</ele>
        <time>2020-08-18T12:02:47.000Z</time>
      </trkpt>
      <trkpt lat="42.55548524670302867889404296875" lon="-0.27351784519851207733154296875">
        <ele>1500.199951171875</ele>
        <time>2020-08-18T12:02:51.000Z</time>
      </trkpt>
      <trkpt lat="42.5555046088993549346923828125" lon="-0.2734771929681301116943359375">
        <ele>1499.800048828125</ele>
        <time>2020-08-18T12:02:52.000Z</time>
      </trkpt>
      <trkpt lat="42.555558420717716217041015625" lon="-0.27332942001521587371826171875">
        <ele>1498.4000244140625</ele>
        <time>2020-08-18T12:02:55.000Z</time>
      </trkpt>
      <trkpt lat="42.55557275377213954925537109375" lon="-0.2732840739190578460693359375">
        <ele>1498.199951171875</ele>
        <time>2020-08-18T12:02:56.000Z</time>
      </trkpt>
      <trkpt lat="42.55563142709434032440185546875" lon="-0.27316781692206859588623046875">
        <ele>1497</ele>
        <time>2020-08-18T12:02:59.000Z</time>
      </trkpt>
      <trkpt lat="42.55567752756178379058837890625" lon="-0.27309506200253963470458984375">
        <ele>1496.199951171875</ele>
        <time>2020-08-18T12:03:01.000Z</time>
      </trkpt>
      <trkpt lat="42.5558358617126941680908203125" lon="-0.27294301427900791168212890625">
        <ele>1496.199951171875</ele>
        <time>2020-08-18T12:03:07.000Z</time>
      </trkpt>
      <trkpt lat="42.55586695857346057891845703125" lon="-0.272919796407222747802734375">
        <ele>1495.800048828125</ele>
        <time>2020-08-18T12:03:08.000Z</time>
      </trkpt>
      <trkpt lat="42.55597961135208606719970703125" lon="-0.27278493158519268035888671875">
        <ele>1495.199951171875</ele>
        <time>2020-08-18T12:03:13.000Z</time>
      </trkpt>
      <trkpt lat="42.55604934878647327423095703125" lon="-0.27270982973277568817138671875">
        <ele>1494.5999755859375</ele>
        <time>2020-08-18T12:03:16.000Z</time>
      </trkpt>
      <trkpt lat="42.55609863437712192535400390625" lon="-0.2726785652339458465576171875">
        <ele>1493.800048828125</ele>
        <time>2020-08-18T12:03:18.000Z</time>
      </trkpt>
      <trkpt lat="42.5561245344579219818115234375" lon="-0.27267261408269405364990234375">
        <ele>1493.5999755859375</ele>
        <time>2020-08-18T12:03:19.000Z</time>
      </trkpt>
      <trkpt lat="42.5562744028866291046142578125" lon="-0.27265031822025775909423828125">
        <ele>1492.800048828125</ele>
        <time>2020-08-18T12:03:24.000Z</time>
      </trkpt>
      <trkpt lat="42.55630516447126865386962890625" lon="-0.27263975702226161956787109375">
        <ele>1492.5999755859375</ele>
        <time>2020-08-18T12:03:25.000Z</time>
      </trkpt>
      <trkpt lat="42.55645059049129486083984375" lon="-0.27255878783762454986572265625">
        <ele>1491.5999755859375</ele>
        <time>2020-08-18T12:03:30.000Z</time>
      </trkpt>
      <trkpt lat="42.556478083133697509765625" lon="-0.27254068292677402496337890625">
        <ele>1491.4000244140625</ele>
        <time>2020-08-18T12:03:31.000Z</time>
      </trkpt>
      <trkpt lat="42.556558549404144287109375" lon="-0.27248251251876354217529296875">
        <ele>1490.4000244140625</ele>
        <time>2020-08-18T12:03:34.000Z</time>
      </trkpt>
      <trkpt lat="42.5566049851477146148681640625" lon="-0.27243942953646183013916015625">
        <ele>1489.800048828125</ele>
        <time>2020-08-18T12:03:36.000Z</time>
      </trkpt>
      <trkpt lat="42.5566485710442066192626953125" lon="-0.272399447858333587646484375">
        <ele>1489</ele>
        <time>2020-08-18T12:03:38.000Z</time>
      </trkpt>
      <trkpt lat="42.5567655824124813079833984375" lon="-0.27229609899222850799560546875">
        <ele>1488.4000244140625</ele>
        <time>2020-08-18T12:03:42.000Z</time>
      </trkpt>
      <trkpt lat="42.5567977689206600189208984375" lon="-0.27227883227169513702392578125">
        <ele>1488</ele>
        <time>2020-08-18T12:03:43.000Z</time>
      </trkpt>
      <trkpt lat="42.5569204799830913543701171875" lon="-0.27222820557653903961181640625">
        <ele>1486.800048828125</ele>
        <time>2020-08-18T12:03:47.000Z</time>
      </trkpt>
      <trkpt lat="42.5571189634501934051513671875" lon="-0.272147655487060546875">
        <ele>1485.800048828125</ele>
        <time>2020-08-18T12:03:54.000Z</time>
      </trkpt>
      <trkpt lat="42.55714016966521739959716796875" lon="-0.27212644927203655242919921875">
        <ele>1485</ele>
        <time>2020-08-18T12:03:55.000Z</time>
      </trkpt>
      <trkpt lat="42.5572279281914234161376953125" lon="-0.27202519588172435760498046875">
        <ele>1484</ele>
        <time>2020-08-18T12:03:59.000Z</time>
      </trkpt>
      <trkpt lat="42.5573077239096164703369140625" lon="-0.271931402385234832763671875">
        <ele>1482.800048828125</ele>
        <time>2020-08-18T12:04:03.000Z</time>
      </trkpt>
      <trkpt lat="42.5573325343430042266845703125" lon="-0.27191229164600372314453125">
        <ele>1482.199951171875</ele>
        <time>2020-08-18T12:04:04.000Z</time>
      </trkpt>
      <trkpt lat="42.557382993400096893310546875" lon="-0.27188655920326709747314453125">
        <ele>1481.5999755859375</ele>
        <time>2020-08-18T12:04:06.000Z</time>
      </trkpt>
      <trkpt lat="42.55749556235969066619873046875" lon="-0.27184481732547283172607421875">
        <ele>1481</ele>
        <time>2020-08-18T12:04:10.000Z</time>
      </trkpt>
      <trkpt lat="42.55755926482379436492919921875" lon="-0.2718293108046054840087890625">
        <ele>1480.199951171875</ele>
        <time>2020-08-18T12:04:12.000Z</time>
      </trkpt>
      <trkpt lat="42.5576597638428211212158203125" lon="-0.27181011624634265899658203125">
        <ele>1479.4000244140625</ele>
        <time>2020-08-18T12:04:15.000Z</time>
      </trkpt>
      <trkpt lat="42.55769404582679271697998046875" lon="-0.2718081884086132049560546875">
        <ele>1479.199951171875</ele>
        <time>2020-08-18T12:04:16.000Z</time>
      </trkpt>
      <trkpt lat="42.5577801279723644256591796875" lon="-0.27178891003131866455078125">
        <ele>1477.800048828125</ele>
        <time>2020-08-18T12:04:19.000Z</time>
      </trkpt>
      <trkpt lat="42.5578193552792072296142578125" lon="-0.27177658863365650177001953125">
        <ele>1477.4000244140625</ele>
        <time>2020-08-18T12:04:21.000Z</time>
      </trkpt>
      <trkpt lat="42.5578830577433109283447265625" lon="-0.27176317758858203887939453125">
        <ele>1476.800048828125</ele>
        <time>2020-08-18T12:04:24.000Z</time>
      </trkpt>
      <trkpt lat="42.5579397194087505340576171875" lon="-0.27176787145435810089111328125">
        <ele>1476.199951171875</ele>
        <time>2020-08-18T12:04:26.000Z</time>
      </trkpt>
      <trkpt lat="42.55799965001642704010009765625" lon="-0.27181313373148441314697265625">
        <ele>1475.5999755859375</ele>
        <time>2020-08-18T12:04:29.000Z</time>
      </trkpt>
      <trkpt lat="42.55804105661809444427490234375" lon="-0.2718487568199634552001953125">
        <ele>1475.4000244140625</ele>
        <time>2020-08-18T12:04:31.000Z</time>
      </trkpt>
      <trkpt lat="42.558124959468841552734375" lon="-0.27194137685000896453857421875">
        <ele>1474.4000244140625</ele>
        <time>2020-08-18T12:04:35.000Z</time>
      </trkpt>
      <trkpt lat="42.558155469596385955810546875" lon="-0.2719738148152828216552734375">
        <ele>1474</ele>
        <time>2020-08-18T12:04:36.000Z</time>
      </trkpt>
      <trkpt lat="42.55820819176733493804931640625" lon="-0.27204212732613086700439453125">
        <ele>1473.4000244140625</ele>
        <time>2020-08-18T12:04:38.000Z</time>
      </trkpt>
      <trkpt lat="42.5582676194608211517333984375" lon="-0.272129885852336883544921875">
        <ele>1472</ele>
        <time>2020-08-18T12:04:41.000Z</time>
      </trkpt>
      <trkpt lat="42.55830341018736362457275390625" lon="-0.27219065465033054351806640625">
        <ele>1471.800048828125</ele>
        <time>2020-08-18T12:04:43.000Z</time>
      </trkpt>
      <trkpt lat="42.5583531148731708526611328125" lon="-0.27228537015616893768310546875">
        <ele>1470.5999755859375</ele>
        <time>2020-08-18T12:04:46.000Z</time>
      </trkpt>
      <trkpt lat="42.55837448872625827789306640625" lon="-0.27233834378421306610107421875">
        <ele>1470</ele>
        <time>2020-08-18T12:04:48.000Z</time>
      </trkpt>
      <trkpt lat="42.55839787423610687255859375" lon="-0.27243657968938350677490234375">
        <ele>1469.199951171875</ele>
        <time>2020-08-18T12:04:51.000Z</time>
      </trkpt>
      <trkpt lat="42.55841908045113086700439453125" lon="-0.27255627326667308807373046875">
        <ele>1468.800048828125</ele>
        <time>2020-08-18T12:04:54.000Z</time>
      </trkpt>
      <trkpt lat="42.55845696665346622467041015625" lon="-0.27270890772342681884765625">
        <ele>1468</ele>
        <time>2020-08-18T12:04:58.000Z</time>
      </trkpt>
      <trkpt lat="42.55846803076565265655517578125" lon="-0.27280236594378948211669921875">
        <ele>1467.5999755859375</ele>
        <time>2020-08-18T12:05:00.000Z</time>
      </trkpt>
      <trkpt lat="42.5584845431149005889892578125" lon="-0.27300302870571613311767578125">
        <ele>1466.800048828125</ele>
        <time>2020-08-18T12:05:04.000Z</time>
      </trkpt>
      <trkpt lat="42.55848546512424945831298828125" lon="-0.273105204105377197265625">
        <ele>1465.5999755859375</ele>
        <time>2020-08-18T12:05:06.000Z</time>
      </trkpt>
      <trkpt lat="42.55848395638167858123779296875" lon="-0.27315759100019931793212890625">
        <ele>1465</ele>
        <time>2020-08-18T12:05:07.000Z</time>
      </trkpt>
      <trkpt lat="42.5584838725626468658447265625" lon="-0.273260436952114105224609375">
        <ele>1463.800048828125</ele>
        <time>2020-08-18T12:05:09.000Z</time>
      </trkpt>
      <trkpt lat="42.55847825668752193450927734375" lon="-0.27340183965861797332763671875">
        <ele>1463</ele>
        <time>2020-08-18T12:05:12.000Z</time>
      </trkpt>
      <trkpt lat="42.55847624503076076507568359375" lon="-0.2734471857547760009765625">
        <ele>1462.800048828125</ele>
        <time>2020-08-18T12:05:13.000Z</time>
      </trkpt>
      <trkpt lat="42.55845956504344940185546875" lon="-0.27373678050935268402099609375">
        <ele>1461.800048828125</ele>
        <time>2020-08-18T12:05:19.000Z</time>
      </trkpt>
      <trkpt lat="42.55843718536198139190673828125" lon="-0.27395303361117839813232421875">
        <ele>1460</ele>
        <time>2020-08-18T12:05:23.000Z</time>
      </trkpt>
      <trkpt lat="42.55843500606715679168701171875" lon="-0.27414849959313869476318359375">
        <ele>1458.800048828125</ele>
        <time>2020-08-18T12:05:27.000Z</time>
      </trkpt>
      <trkpt lat="42.5584382750093936920166015625" lon="-0.274276323616504669189453125">
        <ele>1457.800048828125</ele>
        <time>2020-08-18T12:05:29.000Z</time>
      </trkpt>
      <trkpt lat="42.55843064747750759124755859375" lon="-0.27441051788628101348876953125">
        <ele>1456.5999755859375</ele>
        <time>2020-08-18T12:05:31.000Z</time>
      </trkpt>
      <trkpt lat="42.5584275461733341217041015625" lon="-0.2744756452739238739013671875">
        <ele>1456.5999755859375</ele>
        <time>2020-08-18T12:05:32.000Z</time>
      </trkpt>
      <trkpt lat="42.558414638042449951171875" lon="-0.27476607821881771087646484375">
        <ele>1455.5999755859375</ele>
        <time>2020-08-18T12:05:37.000Z</time>
      </trkpt>
      <trkpt lat="42.55841203965246677398681640625" lon="-0.27487688697874546051025390625">
        <ele>1454.5999755859375</ele>
        <time>2020-08-18T12:05:39.000Z</time>
      </trkpt>
      <trkpt lat="42.55841773934662342071533203125" lon="-0.27510906569659709930419921875">
        <ele>1453.4000244140625</ele>
        <time>2020-08-18T12:05:43.000Z</time>
      </trkpt>
      <trkpt lat="42.55841757170855998992919921875" lon="-0.275213420391082763671875">
        <ele>1452.199951171875</ele>
        <time>2020-08-18T12:05:45.000Z</time>
      </trkpt>
      <trkpt lat="42.558404244482517242431640625" lon="-0.27537577785551548004150390625">
        <ele>1451.199951171875</ele>
        <time>2020-08-18T12:05:48.000Z</time>
      </trkpt>
      <trkpt lat="42.55839309655129909515380859375" lon="-0.27549630962312221527099609375">
        <ele>1450.5999755859375</ele>
        <time>2020-08-18T12:05:50.000Z</time>
      </trkpt>
      <trkpt lat="42.558390162885189056396484375" lon="-0.27555045671761035919189453125">
        <ele>1450.199951171875</ele>
        <time>2020-08-18T12:05:51.000Z</time>
      </trkpt>
      <trkpt lat="42.55836392752826213836669921875" lon="-0.2757983095943927764892578125">
        <ele>1449.5999755859375</ele>
        <time>2020-08-18T12:05:56.000Z</time>
      </trkpt>
      <trkpt lat="42.55836258642375469207763671875" lon="-0.27584566734731197357177734375">
        <ele>1449.4000244140625</ele>
        <time>2020-08-18T12:05:57.000Z</time>
      </trkpt>
      <trkpt lat="42.558356635272502899169921875" lon="-0.27594767510890960693359375">
        <ele>1448.199951171875</ele>
        <time>2020-08-18T12:05:59.000Z</time>
      </trkpt>
      <trkpt lat="42.55835118703544139862060546875" lon="-0.27600861154496669769287109375">
        <ele>1447.800048828125</ele>
        <time>2020-08-18T12:06:00.000Z</time>
      </trkpt>
      <trkpt lat="42.55832604132592678070068359375" lon="-0.27617658488452434539794921875">
        <ele>1446.5999755859375</ele>
        <time>2020-08-18T12:06:03.000Z</time>
      </trkpt>
      <trkpt lat="42.55832218565046787261962890625" lon="-0.2762398682534694671630859375">
        <ele>1445.800048828125</ele>
        <time>2020-08-18T12:06:04.000Z</time>
      </trkpt>
      <trkpt lat="42.558316402137279510498046875" lon="-0.27628404088318347930908203125">
        <ele>1445</ele>
        <time>2020-08-18T12:06:05.000Z</time>
      </trkpt>
      <trkpt lat="42.55831564776599407196044921875" lon="-0.2763855457305908203125">
        <ele>1444.199951171875</ele>
        <time>2020-08-18T12:06:07.000Z</time>
      </trkpt>
      <trkpt lat="42.5583229400217533111572265625" lon="-0.27649124152958393096923828125">
        <ele>1443.4000244140625</ele>
        <time>2020-08-18T12:06:09.000Z</time>
      </trkpt>
      <trkpt lat="42.55832612514495849609375" lon="-0.27669609524309635162353515625">
        <ele>1443</ele>
        <time>2020-08-18T12:06:13.000Z</time>
      </trkpt>
      <trkpt lat="42.5583420507609844207763671875" lon="-0.27690513990819454193115234375">
        <ele>1441.800048828125</ele>
        <time>2020-08-18T12:06:17.000Z</time>
      </trkpt>
      <trkpt lat="42.5583435595035552978515625" lon="-0.27702801860868930816650390625">
        <ele>1440.800048828125</ele>
        <time>2020-08-18T12:06:19.000Z</time>
      </trkpt>
      <trkpt lat="42.5583403743803501129150390625" lon="-0.2771980874240398406982421875">
        <ele>1439.5999755859375</ele>
        <time>2020-08-18T12:06:22.000Z</time>
      </trkpt>
      <trkpt lat="42.5583437271416187286376953125" lon="-0.27729422785341739654541015625">
        <ele>1438.5999755859375</ele>
        <time>2020-08-18T12:06:24.000Z</time>
      </trkpt>
      <trkpt lat="42.5583407096564769744873046875" lon="-0.27733999304473400115966796875">
        <ele>1438.199951171875</ele>
        <time>2020-08-18T12:06:25.000Z</time>
      </trkpt>
      <trkpt lat="42.5583058409392833709716796875" lon="-0.2775699086487293243408203125">
        <ele>1437.4000244140625</ele>
        <time>2020-08-18T12:06:29.000Z</time>
      </trkpt>
      <trkpt lat="42.55829301662743091583251953125" lon="-0.27762833051383495330810546875">
        <ele>1437.199951171875</ele>
        <time>2020-08-18T12:06:30.000Z</time>
      </trkpt>
      <trkpt lat="42.5582686252892017364501953125" lon="-0.27773193083703517913818359375">
        <ele>1436.199951171875</ele>
        <time>2020-08-18T12:06:32.000Z</time>
      </trkpt>
      <trkpt lat="42.55824557505548000335693359375" lon="-0.277831591665744781494140625">
        <ele>1435.199951171875</ele>
        <time>2020-08-18T12:06:34.000Z</time>
      </trkpt>
      <trkpt lat="42.5582226924598217010498046875" lon="-0.27793074958026409149169921875">
        <ele>1434.199951171875</ele>
        <time>2020-08-18T12:06:36.000Z</time>
      </trkpt>
      <trkpt lat="42.55821414291858673095703125" lon="-0.27798087336122989654541015625">
        <ele>1434</ele>
        <time>2020-08-18T12:06:37.000Z</time>
      </trkpt>
      <trkpt lat="42.55819444544613361358642578125" lon="-0.278083719313144683837890625">
        <ele>1434</ele>
        <time>2020-08-18T12:06:39.000Z</time>
      </trkpt>
      <trkpt lat="42.5581579841673374176025390625" lon="-0.2782464958727359771728515625">
        <ele>1433.5999755859375</ele>
        <time>2020-08-18T12:06:42.000Z</time>
      </trkpt>
      <trkpt lat="42.55812437273561954498291015625" lon="-0.27835269458591938018798828125">
        <ele>1433.4000244140625</ele>
        <time>2020-08-18T12:06:44.000Z</time>
      </trkpt>
      <trkpt lat="42.5581103749573230743408203125" lon="-0.2784070931375026702880859375">
        <ele>1432.800048828125</ele>
        <time>2020-08-18T12:06:45.000Z</time>
      </trkpt>
      <trkpt lat="42.558070309460163116455078125" lon="-0.278565846383571624755859375">
        <ele>1431.800048828125</ele>
        <time>2020-08-18T12:06:48.000Z</time>
      </trkpt>
      <trkpt lat="42.5580134801566600799560546875" lon="-0.278782434761524200439453125">
        <ele>1430.800048828125</ele>
        <time>2020-08-18T12:06:52.000Z</time>
      </trkpt>
      <trkpt lat="42.5579856522381305694580078125" lon="-0.27889944612979888916015625">
        <ele>1430.199951171875</ele>
        <time>2020-08-18T12:06:54.000Z</time>
      </trkpt>
      <trkpt lat="42.55797450430691242218017578125" lon="-0.278957784175872802734375">
        <ele>1430</ele>
        <time>2020-08-18T12:06:55.000Z</time>
      </trkpt>
      <trkpt lat="42.55793997086584568023681640625" lon="-0.27912609279155731201171875">
        <ele>1429.5999755859375</ele>
        <time>2020-08-18T12:06:58.000Z</time>
      </trkpt>
      <trkpt lat="42.5579279847443103790283203125" lon="-0.27918719686567783355712890625">
        <ele>1429.5999755859375</ele>
        <time>2020-08-18T12:06:59.000Z</time>
      </trkpt>
      <trkpt lat="42.5579092092812061309814453125" lon="-0.2792912162840366363525390625">
        <ele>1427.5999755859375</ele>
        <time>2020-08-18T12:07:01.000Z</time>
      </trkpt>
      <trkpt lat="42.55788045935332775115966796875" lon="-0.27948810718953609466552734375">
        <ele>1426.4000244140625</ele>
        <time>2020-08-18T12:07:05.000Z</time>
      </trkpt>
      <trkpt lat="42.557867132127285003662109375" lon="-0.27964317239820957183837890625">
        <ele>1425.4000244140625</ele>
        <time>2020-08-18T12:07:08.000Z</time>
      </trkpt>
      <trkpt lat="42.55784399807453155517578125" lon="-0.27974861674010753631591796875">
        <ele>1424.4000244140625</ele>
        <time>2020-08-18T12:07:10.000Z</time>
      </trkpt>
      <trkpt lat="42.55783787928521633148193359375" lon="-0.27979874052107334136962890625">
        <ele>1424</ele>
        <time>2020-08-18T12:07:11.000Z</time>
      </trkpt>
      <trkpt lat="42.557830922305583953857421875" lon="-0.27992002665996551513671875">
        <ele>1422.5999755859375</ele>
        <time>2020-08-18T12:07:14.000Z</time>
      </trkpt>
      <trkpt lat="42.55783217959105968475341796875" lon="-0.279932431876659393310546875">
        <ele>1422.199951171875</ele>
        <time>2020-08-18T12:07:15.000Z</time>
      </trkpt>
      <trkpt lat="42.557836957275867462158203125" lon="-0.27994072996079921722412109375">
        <ele>1421.5999755859375</ele>
        <time>2020-08-18T12:07:24.000Z</time>
      </trkpt>
      <trkpt lat="42.5578354485332965850830078125" lon="-0.2799423225224018096923828125">
        <ele>1421.4000244140625</ele>
        <time>2020-08-18T12:07:47.000Z</time>
      </trkpt>
      <trkpt lat="42.55783553235232830047607421875" lon="-0.2799436636269092559814453125">
        <ele>1421.4000244140625</ele>
        <time>2020-08-18T12:08:04.000Z</time>
      </trkpt>
      <trkpt lat="42.557835616171360015869140625" lon="-0.279943831264972686767578125">
        <ele>1421.199951171875</ele>
        <time>2020-08-18T12:08:07.000Z</time>
      </trkpt>
      <trkpt lat="42.55783553235232830047607421875" lon="-0.27994726784527301788330078125">
        <ele>1421.5999755859375</ele>
        <time>2020-08-18T12:08:28.000Z</time>
      </trkpt>
      <trkpt lat="42.55783117376267910003662109375" lon="-0.27996889315545558929443359375">
        <ele>1421.800048828125</ele>
        <time>2020-08-18T12:08:53.000Z</time>
      </trkpt>
      <trkpt lat="42.5578149966895580291748046875" lon="-0.2801294066011905670166015625">
        <ele>1421</ele>
        <time>2020-08-18T12:08:59.000Z</time>
      </trkpt>
      <trkpt lat="42.557813487946987152099609375" lon="-0.28018564917147159576416015625">
        <ele>1420.800048828125</ele>
        <time>2020-08-18T12:09:01.000Z</time>
      </trkpt>
      <trkpt lat="42.55780912935733795166015625" lon="-0.28020693920552730560302734375">
        <ele>1420.5999755859375</ele>
        <time>2020-08-18T12:09:02.000Z</time>
      </trkpt>
      <trkpt lat="42.557793371379375457763671875" lon="-0.28026376850903034210205078125">
        <ele>1420.199951171875</ele>
        <time>2020-08-18T12:09:04.000Z</time>
      </trkpt>
      <trkpt lat="42.55776981823146343231201171875" lon="-0.2803337574005126953125">
        <ele>1419.800048828125</ele>
        <time>2020-08-18T12:09:08.000Z</time>
      </trkpt>
      <trkpt lat="42.5577539764344692230224609375" lon="-0.28038580901920795440673828125">
        <ele>1419.5999755859375</ele>
        <time>2020-08-18T12:09:11.000Z</time>
      </trkpt>
      <trkpt lat="42.557743079960346221923828125" lon="-0.28048857115209102630615234375">
        <ele>1418.800048828125</ele>
        <time>2020-08-18T12:09:16.000Z</time>
      </trkpt>
      <trkpt lat="42.55774299614131450653076171875" lon="-0.280515141785144805908203125">
        <ele>1418.5999755859375</ele>
        <time>2020-08-18T12:09:17.000Z</time>
      </trkpt>
      <trkpt lat="42.55771617405116558074951171875" lon="-0.2806390263140201568603515625">
        <ele>1417.800048828125</ele>
        <time>2020-08-18T12:09:21.000Z</time>
      </trkpt>
      <trkpt lat="42.55769723094999790191650390625" lon="-0.2807013876736164093017578125">
        <ele>1417.4000244140625</ele>
        <time>2020-08-18T12:09:23.000Z</time>
      </trkpt>
      <trkpt lat="42.55769873969256877899169921875" lon="-0.2807580493390560150146484375">
        <ele>1417.199951171875</ele>
        <time>2020-08-18T12:09:25.000Z</time>
      </trkpt>
      <trkpt lat="42.55769119597971439361572265625" lon="-0.28078503906726837158203125">
        <ele>1416.800048828125</ele>
        <time>2020-08-18T12:09:26.000Z</time>
      </trkpt>
      <trkpt lat="42.557678706943988800048828125" lon="-0.2808220870792865753173828125">
        <ele>1416.4000244140625</ele>
        <time>2020-08-18T12:09:27.000Z</time>
      </trkpt>
      <trkpt lat="42.5576259009540081024169921875" lon="-0.280985869467258453369140625">
        <ele>1415.4000244140625</ele>
        <time>2020-08-18T12:09:31.000Z</time>
      </trkpt>
      <trkpt lat="42.55761190317571163177490234375" lon="-0.28102467767894268035888671875">
        <ele>1415</ele>
        <time>2020-08-18T12:09:32.000Z</time>
      </trkpt>
      <trkpt lat="42.5575911998748779296875" lon="-0.28111922554671764373779296875">
        <ele>1414.4000244140625</ele>
        <time>2020-08-18T12:09:34.000Z</time>
      </trkpt>
      <trkpt lat="42.5575340352952480316162109375" lon="-0.2813105843961238861083984375">
        <ele>1413.199951171875</ele>
        <time>2020-08-18T12:09:38.000Z</time>
      </trkpt>
      <trkpt lat="42.55751651711761951446533203125" lon="-0.2813994325697422027587890625">
        <ele>1412</ele>
        <time>2020-08-18T12:09:40.000Z</time>
      </trkpt>
      <trkpt lat="42.5575040280818939208984375" lon="-0.2814530767500400543212890625">
        <ele>1411.800048828125</ele>
        <time>2020-08-18T12:09:41.000Z</time>
      </trkpt>
      <trkpt lat="42.5574911199510097503662109375" lon="-0.28151049278676509857177734375">
        <ele>1411.5999755859375</ele>
        <time>2020-08-18T12:09:42.000Z</time>
      </trkpt>
      <trkpt lat="42.55746840499341487884521484375" lon="-0.281622223556041717529296875">
        <ele>1411.199951171875</ele>
        <time>2020-08-18T12:09:44.000Z</time>
      </trkpt>
      <trkpt lat="42.55744946189224720001220703125" lon="-0.281730853021144866943359375">
        <ele>1410.199951171875</ele>
        <time>2020-08-18T12:09:46.000Z</time>
      </trkpt>
      <trkpt lat="42.55743890069425106048583984375" lon="-0.28178642503917217254638671875">
        <ele>1409.5999755859375</ele>
        <time>2020-08-18T12:09:47.000Z</time>
      </trkpt>
      <trkpt lat="42.55743085406720638275146484375" lon="-0.28183973394334316253662109375">
        <ele>1409</ele>
        <time>2020-08-18T12:09:48.000Z</time>
      </trkpt>
      <trkpt lat="42.55742062814533710479736328125" lon="-0.28189807198941707611083984375">
        <ele>1408.5999755859375</ele>
        <time>2020-08-18T12:09:49.000Z</time>
      </trkpt>
      <trkpt lat="42.5573886930942535400390625" lon="-0.2820636145770549774169921875">
        <ele>1408</ele>
        <time>2020-08-18T12:09:52.000Z</time>
      </trkpt>
      <trkpt lat="42.55737234838306903839111328125" lon="-0.28211700730025768280029296875">
        <ele>1407.4000244140625</ele>
        <time>2020-08-18T12:09:53.000Z</time>
      </trkpt>
      <trkpt lat="42.5573590211570262908935546875" lon="-0.28217299841344356536865234375">
        <ele>1406.800048828125</ele>
        <time>2020-08-18T12:09:54.000Z</time>
      </trkpt>
      <trkpt lat="42.55731551907956600189208984375" lon="-0.28242847882211208343505859375">
        <ele>1405.4000244140625</ele>
        <time>2020-08-18T12:09:59.000Z</time>
      </trkpt>
      <trkpt lat="42.55729020573198795318603515625" lon="-0.2825291454792022705078125">
        <ele>1404.199951171875</ele>
        <time>2020-08-18T12:10:01.000Z</time>
      </trkpt>
      <trkpt lat="42.55726153962314128875732421875" lon="-0.28263718821108341217041015625">
        <ele>1403.199951171875</ele>
        <time>2020-08-18T12:10:03.000Z</time>
      </trkpt>
      <trkpt lat="42.5572483800351619720458984375" lon="-0.28269301168620586395263671875">
        <ele>1402.800048828125</ele>
        <time>2020-08-18T12:10:04.000Z</time>
      </trkpt>
      <trkpt lat="42.55714662373065948486328125" lon="-0.28291882015764713287353515625">
        <ele>1402</ele>
        <time>2020-08-18T12:10:09.000Z</time>
      </trkpt>
      <trkpt lat="42.5571330450475215911865234375" lon="-0.28295955620706081390380859375">
        <ele>1401.800048828125</ele>
        <time>2020-08-18T12:10:10.000Z</time>
      </trkpt>
      <trkpt lat="42.55712449550628662109375" lon="-0.28300247155129909515380859375">
        <ele>1400.800048828125</ele>
        <time>2020-08-18T12:10:11.000Z</time>
      </trkpt>
      <trkpt lat="42.557122148573398590087890625" lon="-0.2831460535526275634765625">
        <ele>1400.5999755859375</ele>
        <time>2020-08-18T12:10:14.000Z</time>
      </trkpt>
      <trkpt lat="42.55706691183149814605712890625" lon="-0.28336398303508758544921875">
        <ele>1400</ele>
        <time>2020-08-18T12:10:19.000Z</time>
      </trkpt>
      <trkpt lat="42.55706137977540493011474609375" lon="-0.28342072851955890655517578125">
        <ele>1399.5999755859375</ele>
        <time>2020-08-18T12:10:20.000Z</time>
      </trkpt>
      <trkpt lat="42.55704939365386962890625" lon="-0.28352600522339344024658203125">
        <ele>1398.5999755859375</ele>
        <time>2020-08-18T12:10:22.000Z</time>
      </trkpt>
      <trkpt lat="42.55703791044652462005615234375" lon="-0.28364016674458980560302734375">
        <ele>1397</ele>
        <time>2020-08-18T12:10:24.000Z</time>
      </trkpt>
      <trkpt lat="42.5570230744779109954833984375" lon="-0.2837520651519298553466796875">
        <ele>1396.199951171875</ele>
        <time>2020-08-18T12:10:26.000Z</time>
      </trkpt>
      <trkpt lat="42.5570158660411834716796875" lon="-0.28380629606544971466064453125">
        <ele>1395.800048828125</ele>
        <time>2020-08-18T12:10:27.000Z</time>
      </trkpt>
      <trkpt lat="42.55701645277440547943115234375" lon="-0.28403243981301784515380859375">
        <ele>1394.800048828125</ele>
        <time>2020-08-18T12:10:31.000Z</time>
      </trkpt>
      <trkpt lat="42.55701410584151744842529296875" lon="-0.28408415615558624267578125">
        <ele>1394.5999755859375</ele>
        <time>2020-08-18T12:10:32.000Z</time>
      </trkpt>
      <trkpt lat="42.5570126809179782867431640625" lon="-0.28424835763871669769287109375">
        <ele>1393.800048828125</ele>
        <time>2020-08-18T12:10:35.000Z</time>
      </trkpt>
      <trkpt lat="42.5570130161941051483154296875" lon="-0.28430946171283721923828125">
        <ele>1393.4000244140625</ele>
        <time>2020-08-18T12:10:36.000Z</time>
      </trkpt>
      <trkpt lat="42.5570212304592132568359375" lon="-0.28453300707042217254638671875">
        <ele>1392.5999755859375</ele>
        <time>2020-08-18T12:10:40.000Z</time>
      </trkpt>
      <trkpt lat="42.55702282302081584930419921875" lon="-0.28458614833652973175048828125">
        <ele>1392.4000244140625</ele>
        <time>2020-08-18T12:10:41.000Z</time>
      </trkpt>
      <trkpt lat="42.55701075308024883270263671875" lon="-0.28484028764069080352783203125">
        <ele>1391.199951171875</ele>
        <time>2020-08-18T12:10:46.000Z</time>
      </trkpt>
      <trkpt lat="42.55699885077774524688720703125" lon="-0.28492125682532787322998046875">
        <ele>1390.199951171875</ele>
        <time>2020-08-18T12:10:48.000Z</time>
      </trkpt>
      <trkpt lat="42.55699398927390575408935546875" lon="-0.284950174391269683837890625">
        <ele>1389.5999755859375</ele>
        <time>2020-08-18T12:10:49.000Z</time>
      </trkpt>
      <trkpt lat="42.55699331872165203094482421875" lon="-0.2850235998630523681640625">
        <ele>1389.199951171875</ele>
        <time>2020-08-18T12:10:51.000Z</time>
      </trkpt>
      <trkpt lat="42.5570106692612171173095703125" lon="-0.28510339558124542236328125">
        <ele>1388.800048828125</ele>
        <time>2020-08-18T12:10:53.000Z</time>
      </trkpt>
      <trkpt lat="42.55707177333533763885498046875" lon="-0.28519920073449611663818359375">
        <ele>1388.199951171875</ele>
        <time>2020-08-18T12:10:57.000Z</time>
      </trkpt>
      <trkpt lat="42.5571043789386749267578125" lon="-0.2852712012827396392822265625">
        <ele>1387.4000244140625</ele>
        <time>2020-08-18T12:10:59.000Z</time>
      </trkpt>
      <trkpt lat="42.557115443050861358642578125" lon="-0.28530917130410671234130859375">
        <ele>1387.199951171875</ele>
        <time>2020-08-18T12:11:00.000Z</time>
      </trkpt>
      <trkpt lat="42.55712248384952545166015625" lon="-0.285476557910442352294921875">
        <ele>1386</ele>
        <time>2020-08-18T12:11:05.000Z</time>
      </trkpt>
      <trkpt lat="42.5571062229573726654052734375" lon="-0.28556347824633121490478515625">
        <ele>1384.800048828125</ele>
        <time>2020-08-18T12:11:08.000Z</time>
      </trkpt>
      <trkpt lat="42.55708887241780757904052734375" lon="-0.2856619656085968017578125">
        <ele>1384.199951171875</ele>
        <time>2020-08-18T12:11:11.000Z</time>
      </trkpt>
      <trkpt lat="42.557079233229160308837890625" lon="-0.28572541661560535430908203125">
        <ele>1384</ele>
        <time>2020-08-18T12:11:13.000Z</time>
      </trkpt>
      <trkpt lat="42.557065822184085845947265625" lon="-0.2858089841902256011962890625">
        <ele>1383</ele>
        <time>2020-08-18T12:11:16.000Z</time>
      </trkpt>
      <trkpt lat="42.5570680014789104461669921875" lon="-0.285833962261676788330078125">
        <ele>1382.5999755859375</ele>
        <time>2020-08-18T12:11:17.000Z</time>
      </trkpt>
      <trkpt lat="42.5570676662027835845947265625" lon="-0.28594334609806537628173828125">
        <ele>1381.4000244140625</ele>
        <time>2020-08-18T12:11:21.000Z</time>
      </trkpt>
      <trkpt lat="42.5570683367550373077392578125" lon="-0.28599866665899753570556640625">
        <ele>1380.199951171875</ele>
        <time>2020-08-18T12:11:23.000Z</time>
      </trkpt>
      <trkpt lat="42.55704025737941265106201171875" lon="-0.2861372195184230804443359375">
        <ele>1379.199951171875</ele>
        <time>2020-08-18T12:11:27.000Z</time>
      </trkpt>
      <trkpt lat="42.5570177100598812103271484375" lon="-0.28621408157050609588623046875">
        <ele>1379</ele>
        <time>2020-08-18T12:11:29.000Z</time>
      </trkpt>
      <trkpt lat="42.55699667148292064666748046875" lon="-0.28631365858018398284912109375">
        <ele>1377.800048828125</ele>
        <time>2020-08-18T12:11:32.000Z</time>
      </trkpt>
      <trkpt lat="42.55699331872165203094482421875" lon="-0.28634919784963130950927734375">
        <ele>1377.4000244140625</ele>
        <time>2020-08-18T12:11:33.000Z</time>
      </trkpt>
      <trkpt lat="42.55698711611330509185791015625" lon="-0.2864148281514644622802734375">
        <ele>1376.5999755859375</ele>
        <time>2020-08-18T12:11:35.000Z</time>
      </trkpt>
      <trkpt lat="42.55697521381080150604248046875" lon="-0.2865536324679851531982421875">
        <ele>1376</ele>
        <time>2020-08-18T12:11:39.000Z</time>
      </trkpt>
      <trkpt lat="42.5569687597453594207763671875" lon="-0.2865901775658130645751953125">
        <ele>1375.800048828125</ele>
        <time>2020-08-18T12:11:40.000Z</time>
      </trkpt>
      <trkpt lat="42.55695861764252185821533203125" lon="-0.286732502281665802001953125">
        <ele>1374.4000244140625</ele>
        <time>2020-08-18T12:11:44.000Z</time>
      </trkpt>
      <trkpt lat="42.55695090629160404205322265625" lon="-0.28683551587164402008056640625">
        <ele>1373.199951171875</ele>
        <time>2020-08-18T12:11:47.000Z</time>
      </trkpt>
      <trkpt lat="42.5569523312151432037353515625" lon="-0.28695588000118732452392578125">
        <ele>1372.800048828125</ele>
        <time>2020-08-18T12:11:50.000Z</time>
      </trkpt>
      <trkpt lat="42.55695660598576068878173828125" lon="-0.28713047504425048828125">
        <ele>1372.199951171875</ele>
        <time>2020-08-18T12:11:55.000Z</time>
      </trkpt>
      <trkpt lat="42.55695727653801441192626953125" lon="-0.28716710396111011505126953125">
        <ele>1371.800048828125</ele>
        <time>2020-08-18T12:11:56.000Z</time>
      </trkpt>
      <trkpt lat="42.55696691572666168212890625" lon="-0.28723868541419506072998046875">
        <ele>1371</ele>
        <time>2020-08-18T12:11:58.000Z</time>
      </trkpt>
      <trkpt lat="42.55697856657207012176513671875" lon="-0.28733256272971630096435546875">
        <ele>1370</ele>
        <time>2020-08-18T12:12:01.000Z</time>
      </trkpt>
      <trkpt lat="42.55698543973267078399658203125" lon="-0.2873774059116840362548828125">
        <ele>1369.800048828125</ele>
        <time>2020-08-18T12:12:02.000Z</time>
      </trkpt>
      <trkpt lat="42.5570281036198139190673828125" lon="-0.287548564374446868896484375">
        <ele>1368.5999755859375</ele>
        <time>2020-08-18T12:12:06.000Z</time>
      </trkpt>
      <trkpt lat="42.5570431910455226898193359375" lon="-0.28776624239981174468994140625">
        <ele>1368.4000244140625</ele>
        <time>2020-08-18T12:12:12.000Z</time>
      </trkpt>
      <trkpt lat="42.557019889354705810546875" lon="-0.287875793874263763427734375">
        <ele>1367.5999755859375</ele>
        <time>2020-08-18T12:12:15.000Z</time>
      </trkpt>
      <trkpt lat="42.55700773559510707855224609375" lon="-0.28797662816941738128662109375">
        <ele>1366.800048828125</ele>
        <time>2020-08-18T12:12:18.000Z</time>
      </trkpt>
      <trkpt lat="42.5570150278508663177490234375" lon="-0.28800420463085174560546875">
        <ele>1366.5999755859375</ele>
        <time>2020-08-18T12:12:19.000Z</time>
      </trkpt>
      <trkpt lat="42.557068169116973876953125" lon="-0.288030691444873809814453125">
        <ele>1365.800048828125</ele>
        <time>2020-08-18T12:12:22.000Z</time>
      </trkpt>
      <trkpt lat="42.55709121935069561004638671875" lon="-0.28798065148293972015380859375">
        <ele>1365.4000244140625</ele>
        <time>2020-08-18T12:12:24.000Z</time>
      </trkpt>
      <trkpt lat="42.55710060708224773406982421875" lon="-0.28794712387025356292724609375">
        <ele>1365.199951171875</ele>
        <time>2020-08-18T12:12:25.000Z</time>
      </trkpt>
      <trkpt lat="42.55711049772799015045166015625" lon="-0.28791627846658229827880859375">
        <ele>1365</ele>
        <time>2020-08-18T12:12:26.000Z</time>
      </trkpt>
      <trkpt lat="42.5571387447416782379150390625" lon="-0.2878253348171710968017578125">
        <ele>1364.4000244140625</ele>
        <time>2020-08-18T12:12:29.000Z</time>
      </trkpt>
      <trkpt lat="42.5571581907570362091064453125" lon="-0.28773891739547252655029296875">
        <ele>1363.800048828125</ele>
        <time>2020-08-18T12:12:32.000Z</time>
      </trkpt>
      <trkpt lat="42.5571907125413417816162109375" lon="-0.28761603869497776031494140625">
        <ele>1363.4000244140625</ele>
        <time>2020-08-18T12:12:36.000Z</time>
      </trkpt>
      <trkpt lat="42.55720722489058971405029296875" lon="-0.287538506090641021728515625">
        <ele>1362.5999755859375</ele>
        <time>2020-08-18T12:12:38.000Z</time>
      </trkpt>
      <trkpt lat="42.55721560679376125335693359375" lon="-0.287502966821193695068359375">
        <ele>1362.4000244140625</ele>
        <time>2020-08-18T12:12:39.000Z</time>
      </trkpt>
      <trkpt lat="42.55725282244384288787841796875" lon="-0.28733792714774608612060546875">
        <ele>1360.800048828125</ele>
        <time>2020-08-18T12:12:43.000Z</time>
      </trkpt>
      <trkpt lat="42.5572909601032733917236328125" lon="-0.2870562113821506500244140625">
        <ele>1359.800048828125</ele>
        <time>2020-08-18T12:12:49.000Z</time>
      </trkpt>
      <trkpt lat="42.5573077239096164703369140625" lon="-0.2869854681193828582763671875">
        <ele>1358.5999755859375</ele>
        <time>2020-08-18T12:12:51.000Z</time>
      </trkpt>
      <trkpt lat="42.55731971003115177154541015625" lon="-0.28690475039184093475341796875">
        <ele>1357.5999755859375</ele>
        <time>2020-08-18T12:12:53.000Z</time>
      </trkpt>
      <trkpt lat="42.55733965896070003509521484375" lon="-0.28681933879852294921875">
        <ele>1356.800048828125</ele>
        <time>2020-08-18T12:12:55.000Z</time>
      </trkpt>
      <trkpt lat="42.55735206417739391326904296875" lon="-0.28677030466496944427490234375">
        <ele>1356.5999755859375</ele>
        <time>2020-08-18T12:12:56.000Z</time>
      </trkpt>
      <trkpt lat="42.55743068642914295196533203125" lon="-0.2865358628332614898681640625">
        <ele>1356.5999755859375</ele>
        <time>2020-08-18T12:13:01.000Z</time>
      </trkpt>
      <trkpt lat="42.55751936696469783782958984375" lon="-0.2863420732319355010986328125">
        <ele>1355.5999755859375</ele>
        <time>2020-08-18T12:13:06.000Z</time>
      </trkpt>
      <trkpt lat="42.557538561522960662841796875" lon="-0.286309719085693359375">
        <ele>1354.800048828125</ele>
        <time>2020-08-18T12:13:07.000Z</time>
      </trkpt>
      <trkpt lat="42.5575531460344791412353515625" lon="-0.28627443127334117889404296875">
        <ele>1354.4000244140625</ele>
        <time>2020-08-18T12:13:08.000Z</time>
      </trkpt>
      <trkpt lat="42.55760033614933490753173828125" lon="-0.28615037910640239715576171875">
        <ele>1353.5999755859375</ele>
        <time>2020-08-18T12:13:12.000Z</time>
      </trkpt>
      <trkpt lat="42.55764023400843143463134765625" lon="-0.2860624529421329498291015625">
        <ele>1353.4000244140625</ele>
        <time>2020-08-18T12:13:14.000Z</time>
      </trkpt>
      <trkpt lat="42.557717263698577880859375" lon="-0.28586782515048980712890625">
        <ele>1352.199951171875</ele>
        <time>2020-08-18T12:13:18.000Z</time>
      </trkpt>
      <trkpt lat="42.55779311992228031158447265625" lon="-0.285715274512767791748046875">
        <ele>1351</ele>
        <time>2020-08-18T12:13:22.000Z</time>
      </trkpt>
      <trkpt lat="42.55784089677035808563232421875" lon="-0.285638161003589630126953125">
        <ele>1350.5999755859375</ele>
        <time>2020-08-18T12:13:24.000Z</time>
      </trkpt>
      <trkpt lat="42.55787509493529796600341796875" lon="-0.28556071221828460693359375">
        <ele>1350</ele>
        <time>2020-08-18T12:13:26.000Z</time>
      </trkpt>
      <trkpt lat="42.5579219497740268707275390625" lon="-0.28545317240059375762939453125">
        <ele>1349.800048828125</ele>
        <time>2020-08-18T12:13:29.000Z</time>
      </trkpt>
      <trkpt lat="42.55796779878437519073486328125" lon="-0.285290814936161041259765625">
        <ele>1349</ele>
        <time>2020-08-18T12:13:33.000Z</time>
      </trkpt>
      <trkpt lat="42.5579745881259441375732421875" lon="-0.28525318019092082977294921875">
        <ele>1348.800048828125</ele>
        <time>2020-08-18T12:13:34.000Z</time>
      </trkpt>
      <trkpt lat="42.557984478771686553955078125" lon="-0.28517849743366241455078125">
        <ele>1347.5999755859375</ele>
        <time>2020-08-18T12:13:36.000Z</time>
      </trkpt>
      <trkpt lat="42.5580232031643390655517578125" lon="-0.28508998453617095947265625">
        <ele>1347</ele>
        <time>2020-08-18T12:13:39.000Z</time>
      </trkpt>
      <trkpt lat="42.55812252871692180633544921875" lon="-0.284907929599285125732421875">
        <ele>1347.199951171875</ele>
        <time>2020-08-18T12:13:46.000Z</time>
      </trkpt>
      <trkpt lat="42.558153457939624786376953125" lon="-0.2848470769822597503662109375">
        <ele>1346.5999755859375</ele>
        <time>2020-08-18T12:13:48.000Z</time>
      </trkpt>
      <trkpt lat="42.558191679418087005615234375" lon="-0.2847672812640666961669921875">
        <ele>1345.4000244140625</ele>
        <time>2020-08-18T12:13:51.000Z</time>
      </trkpt>
      <trkpt lat="42.55822948180139064788818359375" lon="-0.284671895205974578857421875">
        <ele>1345.4000244140625</ele>
        <time>2020-08-18T12:13:54.000Z</time>
      </trkpt>
      <trkpt lat="42.55824658088386058807373046875" lon="-0.28459788300096988677978515625">
        <ele>1345</ele>
        <time>2020-08-18T12:13:56.000Z</time>
      </trkpt>
      <trkpt lat="42.558277510106563568115234375" lon="-0.2845084480941295623779296875">
        <ele>1344.4000244140625</ele>
        <time>2020-08-18T12:13:59.000Z</time>
      </trkpt>
      <trkpt lat="42.5583118759095668792724609375" lon="-0.28445991687476634979248046875">
        <ele>1343.800048828125</ele>
        <time>2020-08-18T12:14:01.000Z</time>
      </trkpt>
      <trkpt lat="42.5583943538367748260498046875" lon="-0.28432060964405536651611328125">
        <ele>1343.199951171875</ele>
        <time>2020-08-18T12:14:06.000Z</time>
      </trkpt>
      <trkpt lat="42.55841170437633991241455078125" lon="-0.28428959660232067108154296875">
        <ele>1343.4000244140625</ele>
        <time>2020-08-18T12:14:07.000Z</time>
      </trkpt>
      <trkpt lat="42.55845487117767333984375" lon="-0.2841688133776187896728515625">
        <ele>1342.199951171875</ele>
        <time>2020-08-18T12:14:11.000Z</time>
      </trkpt>
      <trkpt lat="42.558462917804718017578125" lon="-0.284140147268772125244140625">
        <ele>1342</ele>
        <time>2020-08-18T12:14:12.000Z</time>
      </trkpt>
      <trkpt lat="42.5584878958761692047119140625" lon="-0.28401081450283527374267578125">
        <ele>1341.199951171875</ele>
        <time>2020-08-18T12:14:16.000Z</time>
      </trkpt>
      <trkpt lat="42.5584989599883556365966796875" lon="-0.28391727246344089508056640625">
        <ele>1341.199951171875</ele>
        <time>2020-08-18T12:14:18.000Z</time>
      </trkpt>
      <trkpt lat="42.55851044319570064544677734375" lon="-0.2836038731038570404052734375">
        <ele>1339.4000244140625</ele>
        <time>2020-08-18T12:14:24.000Z</time>
      </trkpt>
      <trkpt lat="42.558524608612060546875" lon="-0.28342190198600292205810546875">
        <ele>1338</ele>
        <time>2020-08-18T12:14:28.000Z</time>
      </trkpt>
      <trkpt lat="42.55853726528584957122802734375" lon="-0.28337731026113033294677734375">
        <ele>1337.5999755859375</ele>
        <time>2020-08-18T12:14:29.000Z</time>
      </trkpt>
      <trkpt lat="42.5585864670574665069580078125" lon="-0.28325007297098636627197265625">
        <ele>1338.4000244140625</ele>
        <time>2020-08-18T12:14:34.000Z</time>
      </trkpt>
      <trkpt lat="42.55867145955562591552734375" lon="-0.2831133641302585601806640625">
        <ele>1337.800048828125</ele>
        <time>2020-08-18T12:14:39.000Z</time>
      </trkpt>
      <trkpt lat="42.55872937850654125213623046875" lon="-0.2830119431018829345703125">
        <ele>1337.800048828125</ele>
        <time>2020-08-18T12:14:44.000Z</time>
      </trkpt>
      <trkpt lat="42.55882996134459972381591796875" lon="-0.28282041661441326141357421875">
        <ele>1337</ele>
        <time>2020-08-18T12:14:50.000Z</time>
      </trkpt>
      <trkpt lat="42.5589398480951786041259765625" lon="-0.28265562839806079864501953125">
        <ele>1336.5999755859375</ele>
        <time>2020-08-18T12:14:55.000Z</time>
      </trkpt>
      <trkpt lat="42.558996342122554779052734375" lon="-0.282547585666179656982421875">
        <ele>1336</ele>
        <time>2020-08-18T12:14:58.000Z</time>
      </trkpt>
      <trkpt lat="42.55906281061470508575439453125" lon="-0.2824441529810428619384765625">
        <ele>1335.5999755859375</ele>
        <time>2020-08-18T12:15:01.000Z</time>
      </trkpt>
      <trkpt lat="42.55916523747146129608154296875" lon="-0.28228900395333766937255859375">
        <ele>1335</ele>
        <time>2020-08-18T12:15:05.000Z</time>
      </trkpt>
      <trkpt lat="42.55919180810451507568359375" lon="-0.28225363232195377349853515625">
        <ele>1334.800048828125</ele>
        <time>2020-08-18T12:15:06.000Z</time>
      </trkpt>
      <trkpt lat="42.55928224883973598480224609375" lon="-0.28206235729157924652099609375">
        <ele>1334.199951171875</ele>
        <time>2020-08-18T12:15:11.000Z</time>
      </trkpt>
      <trkpt lat="42.55936087109148502349853515625" lon="-0.2819549851119518280029296875">
        <ele>1333.5999755859375</ele>
        <time>2020-08-18T12:15:15.000Z</time>
      </trkpt>
      <trkpt lat="42.55938182584941387176513671875" lon="-0.28194970451295375823974609375">
        <ele>1333.199951171875</ele>
        <time>2020-08-18T12:15:16.000Z</time>
      </trkpt>
      <trkpt lat="42.5594276748597621917724609375" lon="-0.2819980680942535400390625">
        <ele>1332.4000244140625</ele>
        <time>2020-08-18T12:15:19.000Z</time>
      </trkpt>
      <trkpt lat="42.55943412892520427703857421875" lon="-0.28202463872730731964111328125">
        <ele>1332.4000244140625</ele>
        <time>2020-08-18T12:15:20.000Z</time>
      </trkpt>
      <trkpt lat="42.559401355683803558349609375" lon="-0.282129831612110137939453125">
        <ele>1332</ele>
        <time>2020-08-18T12:15:25.000Z</time>
      </trkpt>
      <trkpt lat="42.55936774425208568572998046875" lon="-0.2821890078485012054443359375">
        <ele>1331.4000244140625</ele>
        <time>2020-08-18T12:15:27.000Z</time>
      </trkpt>
      <trkpt lat="42.55932248197495937347412109375" lon="-0.28226268477737903594970703125">
        <ele>1330.5999755859375</ele>
        <time>2020-08-18T12:15:29.000Z</time>
      </trkpt>
      <trkpt lat="42.5592945702373981475830078125" lon="-0.28230392374098300933837890625">
        <ele>1330</ele>
        <time>2020-08-18T12:15:30.000Z</time>
      </trkpt>
      <trkpt lat="42.5591581128537654876708984375" lon="-0.2825236134231090545654296875">
        <ele>1329.4000244140625</ele>
        <time>2020-08-18T12:15:36.000Z</time>
      </trkpt>
      <trkpt lat="42.55908493883907794952392578125" lon="-0.2826956100761890411376953125">
        <ele>1329</ele>
        <time>2020-08-18T12:15:42.000Z</time>
      </trkpt>
      <trkpt lat="42.55900614894926548004150390625" lon="-0.2828639186918735504150390625">
        <ele>1328.5999755859375</ele>
        <time>2020-08-18T12:15:47.000Z</time>
      </trkpt>
      <trkpt lat="42.558928616344928741455078125" lon="-0.2830459736287593841552734375">
        <ele>1328.199951171875</ele>
        <time>2020-08-18T12:15:51.000Z</time>
      </trkpt>
      <trkpt lat="42.5588493235409259796142578125" lon="-0.28327236883342266082763671875">
        <ele>1328</ele>
        <time>2020-08-18T12:15:56.000Z</time>
      </trkpt>
      <trkpt lat="42.55884337238967418670654296875" lon="-0.28331595472991466522216796875">
        <ele>1327.800048828125</ele>
        <time>2020-08-18T12:15:57.000Z</time>
      </trkpt>
      <trkpt lat="42.5588342361152172088623046875" lon="-0.2834345586597919464111328125">
        <ele>1326.800048828125</ele>
        <time>2020-08-18T12:16:01.000Z</time>
      </trkpt>
      <trkpt lat="42.55882962606847286224365234375" lon="-0.28351242654025554656982421875">
        <ele>1325.199951171875</ele>
        <time>2020-08-18T12:16:04.000Z</time>
      </trkpt>
      <trkpt lat="42.558832727372646331787109375" lon="-0.28355349786579608917236328125">
        <ele>1324.4000244140625</ele>
        <time>2020-08-18T12:16:06.000Z</time>
      </trkpt>
      <trkpt lat="42.55884982645511627197265625" lon="-0.28367034159600734710693359375">
        <ele>1324.4000244140625</ele>
        <time>2020-08-18T12:16:10.000Z</time>
      </trkpt>
      <trkpt lat="42.5588540174067020416259765625" lon="-0.28370060026645660400390625">
        <ele>1324.199951171875</ele>
        <time>2020-08-18T12:16:11.000Z</time>
      </trkpt>
      <trkpt lat="42.5588674284517765045166015625" lon="-0.28382104821503162384033203125">
        <ele>1324</ele>
        <time>2020-08-18T12:16:15.000Z</time>
      </trkpt>
      <trkpt lat="42.55888008512556552886962890625" lon="-0.2839693240821361541748046875">
        <ele>1323</ele>
        <time>2020-08-18T12:16:19.000Z</time>
      </trkpt>
      <trkpt lat="42.5588778220117092132568359375" lon="-0.28403948061168193817138671875">
        <ele>1321.800048828125</ele>
        <time>2020-08-18T12:16:21.000Z</time>
      </trkpt>
      <trkpt lat="42.55887933075428009033203125" lon="-0.28415649197995662689208984375">
        <ele>1320.5999755859375</ele>
        <time>2020-08-18T12:16:24.000Z</time>
      </trkpt>
      <trkpt lat="42.55887388251721858978271484375" lon="-0.28422094881534576416015625">
        <ele>1320.5999755859375</ele>
        <time>2020-08-18T12:16:26.000Z</time>
      </trkpt>
      <trkpt lat="42.55882644094526767730712890625" lon="-0.2843656204640865325927734375">
        <ele>1320</ele>
        <time>2020-08-18T12:16:31.000Z</time>
      </trkpt>
      <trkpt lat="42.55882174707949161529541015625" lon="-0.2844045124948024749755859375">
        <ele>1319.4000244140625</ele>
        <time>2020-08-18T12:16:32.000Z</time>
      </trkpt>
      <trkpt lat="42.55880699492990970611572265625" lon="-0.28454004786908626556396484375">
        <ele>1318.5999755859375</ele>
        <time>2020-08-18T12:16:36.000Z</time>
      </trkpt>
      <trkpt lat="42.55875150673091411590576171875" lon="-0.284735597670078277587890625">
        <ele>1318.4000244140625</ele>
        <time>2020-08-18T12:16:42.000Z</time>
      </trkpt>
      <trkpt lat="42.5587075017392635345458984375" lon="-0.2849270403385162353515625">
        <ele>1317.800048828125</ele>
        <time>2020-08-18T12:16:48.000Z</time>
      </trkpt>
      <trkpt lat="42.5587199069559574127197265625" lon="-0.28498026542365550994873046875">
        <ele>1317.199951171875</ele>
        <time>2020-08-18T12:16:50.000Z</time>
      </trkpt>
      <trkpt lat="42.55874496884644031524658203125" lon="-0.28505603782832622528076171875">
        <ele>1316.800048828125</ele>
        <time>2020-08-18T12:16:53.000Z</time>
      </trkpt>
      <trkpt lat="42.5588094256818294525146484375" lon="-0.285150669515132904052734375">
        <ele>1316.199951171875</ele>
        <time>2020-08-18T12:16:59.000Z</time>
      </trkpt>
      <trkpt lat="42.55881135351955890655517578125" lon="-0.28530196286737918853759765625">
        <ele>1315.199951171875</ele>
        <time>2020-08-18T12:17:03.000Z</time>
      </trkpt>
      <trkpt lat="42.55880498327314853668212890625" lon="-0.2853446267545223236083984375">
        <ele>1315</ele>
        <time>2020-08-18T12:17:04.000Z</time>
      </trkpt>
      <trkpt lat="42.55879760719835758209228515625" lon="-0.28545753099024295806884765625">
        <ele>1313.800048828125</ele>
        <time>2020-08-18T12:17:07.000Z</time>
      </trkpt>
      <trkpt lat="42.558790147304534912109375" lon="-0.28553062118589878082275390625">
        <ele>1313.4000244140625</ele>
        <time>2020-08-18T12:17:09.000Z</time>
      </trkpt>
      <trkpt lat="42.55877413786947727203369140625" lon="-0.28560287319123744964599609375">
        <ele>1312.800048828125</ele>
        <time>2020-08-18T12:17:11.000Z</time>
      </trkpt>
      <trkpt lat="42.5587286241352558135986328125" lon="-0.28574452735483646392822265625">
        <ele>1311.4000244140625</ele>
        <time>2020-08-18T12:17:15.000Z</time>
      </trkpt>
      <trkpt lat="42.5587205775082111358642578125" lon="-0.2858441881835460662841796875">
        <ele>1310.199951171875</ele>
        <time>2020-08-18T12:17:18.000Z</time>
      </trkpt>
      <trkpt lat="42.558722756803035736083984375" lon="-0.28585952706634998321533203125">
        <ele>1310</ele>
        <time>2020-08-18T12:17:19.000Z</time>
      </trkpt>
      <trkpt lat="42.5587232597172260284423828125" lon="-0.2858679927885532379150390625">
        <ele>1309.4000244140625</ele>
        <time>2020-08-18T12:17:27.000Z</time>
      </trkpt>
      <trkpt lat="42.55872468464076519012451171875" lon="-0.2858814038336277008056640625">
        <ele>1309.4000244140625</ele>
        <time>2020-08-18T12:17:33.000Z</time>
      </trkpt>
      <trkpt lat="42.55874228663742542266845703125" lon="-0.28593630529940128326416015625">
        <ele>1309.4000244140625</ele>
        <time>2020-08-18T12:17:40.000Z</time>
      </trkpt>
      <trkpt lat="42.5587611459195613861083984375" lon="-0.2859615348279476165771484375">
        <ele>1309.5999755859375</ele>
        <time>2020-08-18T12:17:45.000Z</time>
      </trkpt>
      <trkpt lat="42.55876642651855945587158203125" lon="-0.28595860116183757781982421875">
        <ele>1309.199951171875</ele>
        <time>2020-08-18T12:17:47.000Z</time>
      </trkpt>
      <trkpt lat="42.55876374430954456329345703125" lon="-0.28596497140824794769287109375">
        <ele>1309.5999755859375</ele>
        <time>2020-08-18T12:17:52.000Z</time>
      </trkpt>
      <trkpt lat="42.55876542069017887115478515625" lon="-0.28596597723662853240966796875">
        <ele>1309.5999755859375</ele>
        <time>2020-08-18T12:18:04.000Z</time>
      </trkpt>
      <trkpt lat="42.55875787697732448577880859375" lon="-0.28596329502761363983154296875">
        <ele>1309.4000244140625</ele>
        <time>2020-08-18T12:18:17.000Z</time>
      </trkpt>
      <trkpt lat="42.5587577931582927703857421875" lon="-0.285961367189884185791015625">
        <ele>1309.199951171875</ele>
        <time>2020-08-18T12:18:22.000Z</time>
      </trkpt>
      <trkpt lat="42.55875620059669017791748046875" lon="-0.2859622053802013397216796875">
        <ele>1309.4000244140625</ele>
        <time>2020-08-18T12:18:38.000Z</time>
      </trkpt>
      <trkpt lat="42.55874932743608951568603515625" lon="-0.28595927171409130096435546875">
        <ele>1309.4000244140625</ele>
        <time>2020-08-18T12:18:46.000Z</time>
      </trkpt>
      <trkpt lat="42.55874966271221637725830078125" lon="-0.28595726005733013153076171875">
        <ele>1309.199951171875</ele>
        <time>2020-08-18T12:19:05.000Z</time>
      </trkpt>
      <trkpt lat="42.558744885027408599853515625" lon="-0.2859548293054103851318359375">
        <ele>1309.4000244140625</ele>
        <time>2020-08-18T12:19:18.000Z</time>
      </trkpt>
      <trkpt lat="42.55874295718967914581298828125" lon="-0.28595357201993465423583984375">
        <ele>1309.4000244140625</ele>
        <time>2020-08-18T12:19:19.000Z</time>
      </trkpt>
      <trkpt lat="42.55875687114894390106201171875" lon="-0.28594820760190486907958984375">
        <ele>1309.4000244140625</ele>
        <time>2020-08-18T12:19:22.000Z</time>
      </trkpt>
      <trkpt lat="42.55875837989151477813720703125" lon="-0.28596932999789714813232421875">
        <ele>1309.5999755859375</ele>
        <time>2020-08-18T12:19:32.000Z</time>
      </trkpt>
      <trkpt lat="42.55875972099602222442626953125" lon="-0.28597905300557613372802734375">
        <ele>1309.800048828125</ele>
        <time>2020-08-18T12:19:41.000Z</time>
      </trkpt>
      <trkpt lat="42.55875502713024616241455078125" lon="-0.28599028475582599639892578125">
        <ele>1309.800048828125</ele>
        <time>2020-08-18T12:19:48.000Z</time>
      </trkpt>
      <trkpt lat="42.5587715394794940948486328125" lon="-0.28602582402527332305908203125">
        <ele>1310.199951171875</ele>
        <time>2020-08-18T12:19:54.000Z</time>
      </trkpt>
      <trkpt lat="42.55877472460269927978515625" lon="-0.28602750040590763092041015625">
        <ele>1310.199951171875</ele>
        <time>2020-08-18T12:20:11.000Z</time>
      </trkpt>
      <trkpt lat="42.558775059878826141357421875" lon="-0.2860269136726856231689453125">
        <ele>1310.199951171875</ele>
        <time>2020-08-18T12:20:15.000Z</time>
      </trkpt>
      <trkpt lat="42.558775059878826141357421875" lon="-0.28603202663362026214599609375">
        <ele>1310</ele>
        <time>2020-08-18T12:20:25.000Z</time>
      </trkpt>
      <trkpt lat="42.55878536961972713470458984375" lon="-0.28611458837985992431640625">
        <ele>1309.5999755859375</ele>
        <time>2020-08-18T12:20:29.000Z</time>
      </trkpt>
      <trkpt lat="42.55880833603441715240478515625" lon="-0.28627359308302402496337890625">
        <ele>1308.800048828125</ele>
        <time>2020-08-18T12:20:33.000Z</time>
      </trkpt>
      <trkpt lat="42.55881772376596927642822265625" lon="-0.2863588370382785797119140625">
        <ele>1308.4000244140625</ele>
        <time>2020-08-18T12:20:35.000Z</time>
      </trkpt>
      <trkpt lat="42.55886198021471500396728515625" lon="-0.28665429912507534027099609375">
        <ele>1307.800048828125</ele>
        <time>2020-08-18T12:20:42.000Z</time>
      </trkpt>
      <trkpt lat="42.55887237377464771270751953125" lon="-0.286695957183837890625">
        <ele>1307.4000244140625</ele>
        <time>2020-08-18T12:20:43.000Z</time>
      </trkpt>
      <trkpt lat="42.55893540568649768829345703125" lon="-0.2868533693253993988037109375">
        <ele>1306.4000244140625</ele>
        <time>2020-08-18T12:20:47.000Z</time>
      </trkpt>
      <trkpt lat="42.5589556060731410980224609375" lon="-0.28689108788967132568359375">
        <ele>1306</ele>
        <time>2020-08-18T12:20:48.000Z</time>
      </trkpt>
      <trkpt lat="42.558991648256778717041015625" lon="-0.2869586460292339324951171875">
        <ele>1304.5999755859375</ele>
        <time>2020-08-18T12:20:50.000Z</time>
      </trkpt>
      <trkpt lat="42.55900547839701175689697265625" lon="-0.286989994347095489501953125">
        <ele>1303.4000244140625</ele>
        <time>2020-08-18T12:20:51.000Z</time>
      </trkpt>
      <trkpt lat="42.55903422832489013671875" lon="-0.2870545350015163421630859375">
        <ele>1302.199951171875</ele>
        <time>2020-08-18T12:20:53.000Z</time>
      </trkpt>
      <trkpt lat="42.55904428660869598388671875" lon="-0.2870900742709636688232421875">
        <ele>1302</ele>
        <time>2020-08-18T12:20:54.000Z</time>
      </trkpt>
      <trkpt lat="42.55908376537263393402099609375" lon="-0.287274308502674102783203125">
        <ele>1301</ele>
        <time>2020-08-18T12:20:59.000Z</time>
      </trkpt>
      <trkpt lat="42.55910321138799190521240234375" lon="-0.28733440674841403961181640625">
        <ele>1300</ele>
        <time>2020-08-18T12:21:01.000Z</time>
      </trkpt>
      <trkpt lat="42.5591141916811466217041015625" lon="-0.28736114501953125">
        <ele>1299.5999755859375</ele>
        <time>2020-08-18T12:21:02.000Z</time>
      </trkpt>
      <trkpt lat="42.55914562381803989410400390625" lon="-0.2874528430402278900146484375">
        <ele>1298.5999755859375</ele>
        <time>2020-08-18T12:21:06.000Z</time>
      </trkpt>
      <trkpt lat="42.5591591186821460723876953125" lon="-0.287478156387805938720703125">
        <ele>1297.4000244140625</ele>
        <time>2020-08-18T12:21:10.000Z</time>
      </trkpt>
      <trkpt lat="42.55916096270084381103515625" lon="-0.287489555776119232177734375">
        <ele>1297.199951171875</ele>
        <time>2020-08-18T12:21:14.000Z</time>
      </trkpt>
      <trkpt lat="42.55915869958698749542236328125" lon="-0.287526436150074005126953125">
        <ele>1297</ele>
        <time>2020-08-18T12:21:17.000Z</time>
      </trkpt>
      <trkpt lat="42.559168338775634765625" lon="-0.2875698544085025787353515625">
        <ele>1296.4000244140625</ele>
        <time>2020-08-18T12:21:20.000Z</time>
      </trkpt>
      <trkpt lat="42.55918552167713642120361328125" lon="-0.28763196431100368499755859375">
        <ele>1296</ele>
        <time>2020-08-18T12:21:24.000Z</time>
      </trkpt>
      <trkpt lat="42.55920429714024066925048828125" lon="-0.28769382275640964508056640625">
        <ele>1295.199951171875</ele>
        <time>2020-08-18T12:21:29.000Z</time>
      </trkpt>
      <trkpt lat="42.5592177920043468475341796875" lon="-0.2877364866435527801513671875">
        <ele>1294.800048828125</ele>
        <time>2020-08-18T12:21:32.000Z</time>
      </trkpt>
      <trkpt lat="42.5592318736016750335693359375" lon="-0.28778216801583766937255859375">
        <ele>1294</ele>
        <time>2020-08-18T12:21:35.000Z</time>
      </trkpt>
      <trkpt lat="42.55924419499933719635009765625" lon="-0.28780915774405002593994140625">
        <ele>1293.199951171875</ele>
        <time>2020-08-18T12:21:37.000Z</time>
      </trkpt>
      <trkpt lat="42.5592617131769657135009765625" lon="-0.287854671478271484375">
        <ele>1293</ele>
        <time>2020-08-18T12:21:40.000Z</time>
      </trkpt>
      <trkpt lat="42.559275962412357330322265625" lon="-0.2879011072218418121337890625">
        <ele>1292</ele>
        <time>2020-08-18T12:21:44.000Z</time>
      </trkpt>
      <trkpt lat="42.5592769682407379150390625" lon="-0.287901274859905242919921875">
        <ele>1291.199951171875</ele>
        <time>2020-08-18T12:21:46.000Z</time>
      </trkpt>
      <trkpt lat="42.5592791475355625152587890625" lon="-0.28791435062885284423828125">
        <ele>1291.199951171875</ele>
        <time>2020-08-18T12:21:48.000Z</time>
      </trkpt>
      <trkpt lat="42.5592952407896518707275390625" lon="-0.28797201812267303466796875">
        <ele>1291</ele>
        <time>2020-08-18T12:21:51.000Z</time>
      </trkpt>
      <trkpt lat="42.55930052138864994049072265625" lon="-0.2879943139851093292236328125">
        <ele>1291</ele>
        <time>2020-08-18T12:21:52.000Z</time>
      </trkpt>
      <trkpt lat="42.559316866099834442138671875" lon="-0.2880419231951236724853515625">
        <ele>1289.800048828125</ele>
        <time>2020-08-18T12:21:54.000Z</time>
      </trkpt>
      <trkpt lat="42.55934243090450763702392578125" lon="-0.2881250716745853424072265625">
        <ele>1288.5999755859375</ele>
        <time>2020-08-18T12:21:57.000Z</time>
      </trkpt>
      <trkpt lat="42.5593683309853076934814453125" lon="-0.288242585957050323486328125">
        <ele>1287.199951171875</ele>
        <time>2020-08-18T12:22:01.000Z</time>
      </trkpt>
      <trkpt lat="42.5593897886574268341064453125" lon="-0.28831743635237216949462890625">
        <ele>1286</ele>
        <time>2020-08-18T12:22:04.000Z</time>
      </trkpt>
      <trkpt lat="42.55941166542470455169677734375" lon="-0.28841215185821056365966796875">
        <ele>1284.800048828125</ele>
        <time>2020-08-18T12:22:08.000Z</time>
      </trkpt>
      <trkpt lat="42.55942876450717449188232421875" lon="-0.2884868346154689788818359375">
        <ele>1283.4000244140625</ele>
        <time>2020-08-18T12:22:11.000Z</time>
      </trkpt>
      <trkpt lat="42.559454329311847686767578125" lon="-0.2885840646922588348388671875">
        <ele>1282</ele>
        <time>2020-08-18T12:22:15.000Z</time>
      </trkpt>
      <trkpt lat="42.55947637371718883514404296875" lon="-0.28863108716905117034912109375">
        <ele>1281</ele>
        <time>2020-08-18T12:22:17.000Z</time>
      </trkpt>
      <trkpt lat="42.55949095822870731353759765625" lon="-0.2886982262134552001953125">
        <ele>1279.800048828125</ele>
        <time>2020-08-18T12:22:20.000Z</time>
      </trkpt>
      <trkpt lat="42.55949615500867366790771484375" lon="-0.288715660572052001953125">
        <ele>1279.5999755859375</ele>
        <time>2020-08-18T12:22:21.000Z</time>
      </trkpt>
      <trkpt lat="42.55951006896793842315673828125" lon="-0.28875547461211681365966796875">
        <ele>1278.5999755859375</ele>
        <time>2020-08-18T12:22:23.000Z</time>
      </trkpt>
      <trkpt lat="42.5595156848430633544921875" lon="-0.28876863420009613037109375">
        <ele>1278.199951171875</ele>
        <time>2020-08-18T12:22:24.000Z</time>
      </trkpt>
      <trkpt lat="42.5595289282500743865966796875" lon="-0.28879436664283275604248046875">
        <ele>1277.5999755859375</ele>
        <time>2020-08-18T12:22:29.000Z</time>
      </trkpt>
      <trkpt lat="42.55953311920166015625" lon="-0.288801155984401702880859375">
        <ele>1277.4000244140625</ele>
        <time>2020-08-18T12:22:30.000Z</time>
      </trkpt>
      <trkpt lat="42.55955600179731845855712890625" lon="-0.2888566441833972930908203125">
        <ele>1276.800048828125</ele>
        <time>2020-08-18T12:22:35.000Z</time>
      </trkpt>
      <trkpt lat="42.559567652642726898193359375" lon="-0.2888905070722103118896484375">
        <ele>1276.4000244140625</ele>
        <time>2020-08-18T12:22:38.000Z</time>
      </trkpt>
      <trkpt lat="42.55956840701401233673095703125" lon="-0.28891406022012233734130859375">
        <ele>1275.5999755859375</ele>
        <time>2020-08-18T12:22:41.000Z</time>
      </trkpt>
      <trkpt lat="42.5595755316317081451416015625" lon="-0.28895714320242404937744140625">
        <ele>1275.199951171875</ele>
        <time>2020-08-18T12:22:45.000Z</time>
      </trkpt>
      <trkpt lat="42.55958986468613147735595703125" lon="-0.2889951132237911224365234375">
        <ele>1274.5999755859375</ele>
        <time>2020-08-18T12:22:47.000Z</time>
      </trkpt>
      <trkpt lat="42.55961685441434383392333984375" lon="-0.28908873908221721649169921875">
        <ele>1273.199951171875</ele>
        <time>2020-08-18T12:22:51.000Z</time>
      </trkpt>
      <trkpt lat="42.55964904092252254486083984375" lon="-0.28918563388288021087646484375">
        <ele>1271.800048828125</ele>
        <time>2020-08-18T12:22:55.000Z</time>
      </trkpt>
      <trkpt lat="42.55967988632619380950927734375" lon="-0.28927062638103961944580078125">
        <ele>1271.199951171875</ele>
        <time>2020-08-18T12:22:58.000Z</time>
      </trkpt>
      <trkpt lat="42.559693045914173126220703125" lon="-0.289301387965679168701171875">
        <ele>1270.800048828125</ele>
        <time>2020-08-18T12:22:59.000Z</time>
      </trkpt>
      <trkpt lat="42.55972363986074924468994140625" lon="-0.2893910743296146392822265625">
        <ele>1269.199951171875</ele>
        <time>2020-08-18T12:23:02.000Z</time>
      </trkpt>
      <trkpt lat="42.5597455166280269622802734375" lon="-0.28945100493729114532470703125">
        <ele>1268.4000244140625</ele>
        <time>2020-08-18T12:23:04.000Z</time>
      </trkpt>
      <trkpt lat="42.55976445972919464111328125" lon="-0.28950816951692104339599609375">
        <ele>1268</ele>
        <time>2020-08-18T12:23:06.000Z</time>
      </trkpt>
      <trkpt lat="42.55979153327643871307373046875" lon="-0.28958930633962154388427734375">
        <ele>1267.4000244140625</ele>
        <time>2020-08-18T12:23:09.000Z</time>
      </trkpt>
      <trkpt lat="42.55981885828077793121337890625" lon="-0.289670191705226898193359375">
        <ele>1266.4000244140625</ele>
        <time>2020-08-18T12:23:12.000Z</time>
      </trkpt>
      <trkpt lat="42.5598241388797760009765625" lon="-0.28969961218535900115966796875">
        <ele>1266</ele>
        <time>2020-08-18T12:23:13.000Z</time>
      </trkpt>
      <trkpt lat="42.559833191335201263427734375" lon="-0.289750657975673675537109375">
        <ele>1265.199951171875</ele>
        <time>2020-08-18T12:23:15.000Z</time>
      </trkpt>
      <trkpt lat="42.55986127071082592010498046875" lon="-0.2898333035409450531005859375">
        <ele>1264</ele>
        <time>2020-08-18T12:23:19.000Z</time>
      </trkpt>
      <trkpt lat="42.55987501703202724456787109375" lon="-0.2898502349853515625">
        <ele>1263.5999755859375</ele>
        <time>2020-08-18T12:23:20.000Z</time>
      </trkpt>
      <trkpt lat="42.55991374142467975616455078125" lon="-0.289904884994029998779296875">
        <ele>1263</ele>
        <time>2020-08-18T12:23:23.000Z</time>
      </trkpt>
      <trkpt lat="42.559947855770587921142578125" lon="-0.28994880616664886474609375">
        <ele>1261.800048828125</ele>
        <time>2020-08-18T12:23:26.000Z</time>
      </trkpt>
      <trkpt lat="42.55997744388878345489501953125" lon="-0.2899945713579654693603515625">
        <ele>1260.800048828125</ele>
        <time>2020-08-18T12:23:29.000Z</time>
      </trkpt>
      <trkpt lat="42.559984736144542694091796875" lon="-0.290006138384342193603515625">
        <ele>1260.4000244140625</ele>
        <time>2020-08-18T12:23:30.000Z</time>
      </trkpt>
      <trkpt lat="42.56000175140798091888427734375" lon="-0.2900344692170619964599609375">
        <ele>1259.5999755859375</ele>
        <time>2020-08-18T12:23:32.000Z</time>
      </trkpt>
      <trkpt lat="42.5600351952016353607177734375" lon="-0.29008819721639156341552734375">
        <ele>1258.4000244140625</ele>
        <time>2020-08-18T12:23:35.000Z</time>
      </trkpt>
      <trkpt lat="42.56005455739796161651611328125" lon="-0.290129519999027252197265625">
        <ele>1257.800048828125</ele>
        <time>2020-08-18T12:23:37.000Z</time>
      </trkpt>
      <trkpt lat="42.5600657053291797637939453125" lon="-0.2901575155556201934814453125">
        <ele>1257.4000244140625</ele>
        <time>2020-08-18T12:23:38.000Z</time>
      </trkpt>
      <trkpt lat="42.56007693707942962646484375" lon="-0.2901886962354183197021484375">
        <ele>1256.4000244140625</ele>
        <time>2020-08-18T12:23:39.000Z</time>
      </trkpt>
      <trkpt lat="42.56009059958159923553466796875" lon="-0.29022130183875560760498046875">
        <ele>1255.5999755859375</ele>
        <time>2020-08-18T12:23:40.000Z</time>
      </trkpt>
      <trkpt lat="42.560108788311481475830078125" lon="-0.29028140008449554443359375">
        <ele>1254.5999755859375</ele>
        <time>2020-08-18T12:23:42.000Z</time>
      </trkpt>
      <trkpt lat="42.56011842750012874603271484375" lon="-0.29031417332589626312255859375">
        <ele>1254.4000244140625</ele>
        <time>2020-08-18T12:23:43.000Z</time>
      </trkpt>
      <trkpt lat="42.56013535894453525543212890625" lon="-0.2904260717332363128662109375">
        <ele>1253.4000244140625</ele>
        <time>2020-08-18T12:23:47.000Z</time>
      </trkpt>
      <trkpt lat="42.56014055572450160980224609375" lon="-0.2904532290995121002197265625">
        <ele>1253.199951171875</ele>
        <time>2020-08-18T12:23:48.000Z</time>
      </trkpt>
      <trkpt lat="42.56014667451381683349609375" lon="-0.29048315249383449554443359375">
        <ele>1252.4000244140625</ele>
        <time>2020-08-18T12:23:52.000Z</time>
      </trkpt>
      <trkpt lat="42.56014809943735599517822265625" lon="-0.29048860073089599609375">
        <ele>1252.4000244140625</ele>
        <time>2020-08-18T12:23:59.000Z</time>
      </trkpt>
      <trkpt lat="42.56016318686306476593017578125" lon="-0.290547944605350494384765625">
        <ele>1252</ele>
        <time>2020-08-18T12:24:03.000Z</time>
      </trkpt>
      <trkpt lat="42.56017676554620265960693359375" lon="-0.29059999622404575347900390625">
        <ele>1251.199951171875</ele>
        <time>2020-08-18T12:24:05.000Z</time>
      </trkpt>
      <trkpt lat="42.5602098740637302398681640625" lon="-0.290702842175960540771484375">
        <ele>1250.199951171875</ele>
        <time>2020-08-18T12:24:09.000Z</time>
      </trkpt>
      <trkpt lat="42.560220770537853240966796875" lon="-0.29072890989482402801513671875">
        <ele>1250.199951171875</ele>
        <time>2020-08-18T12:24:10.000Z</time>
      </trkpt>
      <trkpt lat="42.560265026986598968505859375" lon="-0.2908763475716114044189453125">
        <ele>1248.800048828125</ele>
        <time>2020-08-18T12:24:14.000Z</time>
      </trkpt>
      <trkpt lat="42.56028212606906890869140625" lon="-0.29096494428813457489013671875">
        <ele>1247.4000244140625</ele>
        <time>2020-08-18T12:24:16.000Z</time>
      </trkpt>
      <trkpt lat="42.56030081771314144134521484375" lon="-0.29111749492585659027099609375">
        <ele>1246.199951171875</ele>
        <time>2020-08-18T12:24:20.000Z</time>
      </trkpt>
      <trkpt lat="42.5603121332824230194091796875" lon="-0.29120366089046001434326171875">
        <ele>1246</ele>
        <time>2020-08-18T12:24:22.000Z</time>
      </trkpt>
      <trkpt lat="42.56032931618392467498779296875" lon="-0.2912920899689197540283203125">
        <ele>1244.800048828125</ele>
        <time>2020-08-18T12:24:24.000Z</time>
      </trkpt>
      <trkpt lat="42.560358904302120208740234375" lon="-0.2914379350841045379638671875">
        <ele>1243.4000244140625</ele>
        <time>2020-08-18T12:24:27.000Z</time>
      </trkpt>
      <trkpt lat="42.5603822059929370880126953125" lon="-0.2915358357131481170654296875">
        <ele>1242.800048828125</ele>
        <time>2020-08-18T12:24:29.000Z</time>
      </trkpt>
      <trkpt lat="42.5604113750159740447998046875" lon="-0.291634239256381988525390625">
        <ele>1242</ele>
        <time>2020-08-18T12:24:31.000Z</time>
      </trkpt>
      <trkpt lat="42.560431994497776031494140625" lon="-0.2918040566146373748779296875">
        <ele>1240.800048828125</ele>
        <time>2020-08-18T12:24:34.000Z</time>
      </trkpt>
      <trkpt lat="42.5604324974119663238525390625" lon="-0.29185962863266468048095703125">
        <ele>1239.800048828125</ele>
        <time>2020-08-18T12:24:35.000Z</time>
      </trkpt>
      <trkpt lat="42.56043207831680774688720703125" lon="-0.291907824575901031494140625">
        <ele>1239.4000244140625</ele>
        <time>2020-08-18T12:24:36.000Z</time>
      </trkpt>
      <trkpt lat="42.56041279993951320648193359375" lon="-0.2920588664710521697998046875">
        <ele>1238</ele>
        <time>2020-08-18T12:24:39.000Z</time>
      </trkpt>
      <trkpt lat="42.5604036636650562286376953125" lon="-0.2921322919428348541259765625">
        <ele>1237.4000244140625</ele>
        <time>2020-08-18T12:24:41.000Z</time>
      </trkpt>
      <trkpt lat="42.56040223874151706695556640625" lon="-0.2921716868877410888671875">
        <ele>1237</ele>
        <time>2020-08-18T12:24:42.000Z</time>
      </trkpt>
      <trkpt lat="42.5604288093745708465576171875" lon="-0.2922734431922435760498046875">
        <ele>1235.800048828125</ele>
        <time>2020-08-18T12:24:45.000Z</time>
      </trkpt>
      <trkpt lat="42.5604839622974395751953125" lon="-0.29230956919491291046142578125">
        <ele>1234.800048828125</ele>
        <time>2020-08-18T12:24:48.000Z</time>
      </trkpt>
      <trkpt lat="42.56050265394151210784912109375" lon="-0.2922992594540119171142578125">
        <ele>1234.4000244140625</ele>
        <time>2020-08-18T12:24:49.000Z</time>
      </trkpt>
      <trkpt lat="42.56056568585336208343505859375" lon="-0.29224385507404804229736328125">
        <ele>1233.4000244140625</ele>
        <time>2020-08-18T12:24:52.000Z</time>
      </trkpt>
      <trkpt lat="42.560623772442340850830078125" lon="-0.2922000177204608917236328125">
        <ele>1232.4000244140625</ele>
        <time>2020-08-18T12:24:54.000Z</time>
      </trkpt>
      <trkpt lat="42.5606583058834075927734375" lon="-0.29217897914350032806396484375">
        <ele>1231.800048828125</ele>
        <time>2020-08-18T12:24:55.000Z</time>
      </trkpt>
      <trkpt lat="42.5606930069625377655029296875" lon="-0.2921560965478420257568359375">
        <ele>1231.199951171875</ele>
        <time>2020-08-18T12:24:56.000Z</time>
      </trkpt>
      <trkpt lat="42.5607671029865741729736328125" lon="-0.29210823588073253631591796875">
        <ele>1230</ele>
        <time>2020-08-18T12:24:58.000Z</time>
      </trkpt>
      <trkpt lat="42.56083776243031024932861328125" lon="-0.2920702658593654632568359375">
        <ele>1229.199951171875</ele>
        <time>2020-08-18T12:25:00.000Z</time>
      </trkpt>
      <trkpt lat="42.56087900139391422271728515625" lon="-0.29204838909208774566650390625">
        <ele>1228.5999755859375</ele>
        <time>2020-08-18T12:25:01.000Z</time>
      </trkpt>
      <trkpt lat="42.56096835248172283172607421875" lon="-0.2919961698353290557861328125">
        <ele>1227.4000244140625</ele>
        <time>2020-08-18T12:25:03.000Z</time>
      </trkpt>
      <trkpt lat="42.5610581226646900177001953125" lon="-0.29195300303399562835693359375">
        <ele>1226.4000244140625</ele>
        <time>2020-08-18T12:25:05.000Z</time>
      </trkpt>
      <trkpt lat="42.56110196001827716827392578125" lon="-0.291940011084079742431640625">
        <ele>1226</ele>
        <time>2020-08-18T12:25:06.000Z</time>
      </trkpt>
      <trkpt lat="42.56114571355283260345458984375" lon="-0.2919381670653820037841796875">
        <ele>1225.800048828125</ele>
        <time>2020-08-18T12:25:07.000Z</time>
      </trkpt>
      <trkpt lat="42.5612753815948963165283203125" lon="-0.29196440242230892181396484375">
        <ele>1225.199951171875</ele>
        <time>2020-08-18T12:25:10.000Z</time>
      </trkpt>
      <trkpt lat="42.56138493306934833526611328125" lon="-0.29206716455519199371337890625">
        <ele>1223.5999755859375</ele>
        <time>2020-08-18T12:25:13.000Z</time>
      </trkpt>
      <trkpt lat="42.56145467050373554229736328125" lon="-0.2921617962419986724853515625">
        <ele>1222.800048828125</ele>
        <time>2020-08-18T12:25:15.000Z</time>
      </trkpt>
      <trkpt lat="42.5615459494292736053466796875" lon="-0.2923113293945789337158203125">
        <ele>1222.199951171875</ele>
        <time>2020-08-18T12:25:18.000Z</time>
      </trkpt>
      <trkpt lat="42.56162012927234172821044921875" lon="-0.29246144928038120269775390625">
        <ele>1220.800048828125</ele>
        <time>2020-08-18T12:25:21.000Z</time>
      </trkpt>
      <trkpt lat="42.5616408325731754302978515625" lon="-0.2925131656229496002197265625">
        <ele>1220.199951171875</ele>
        <time>2020-08-18T12:25:22.000Z</time>
      </trkpt>
      <trkpt lat="42.5616609491407871246337890625" lon="-0.29256437905132770538330078125">
        <ele>1219.5999755859375</ele>
        <time>2020-08-18T12:25:23.000Z</time>
      </trkpt>
      <trkpt lat="42.56169389002025127410888671875" lon="-0.29265741817653179168701171875">
        <ele>1218.199951171875</ele>
        <time>2020-08-18T12:25:25.000Z</time>
      </trkpt>
      <trkpt lat="42.5617155991494655609130859375" lon="-0.2927374653518199920654296875">
        <ele>1217</ele>
        <time>2020-08-18T12:25:27.000Z</time>
      </trkpt>
      <trkpt lat="42.56172113120555877685546875" lon="-0.292773507535457611083984375">
        <ele>1216.800048828125</ele>
        <time>2020-08-18T12:25:28.000Z</time>
      </trkpt>
      <trkpt lat="42.5617286749184131622314453125" lon="-0.29285808093845844268798828125">
        <ele>1216</ele>
        <time>2020-08-18T12:25:30.000Z</time>
      </trkpt>
      <trkpt lat="42.561726160347461700439453125" lon="-0.29303041286766529083251953125">
        <ele>1215</ele>
        <time>2020-08-18T12:25:34.000Z</time>
      </trkpt>
      <trkpt lat="42.56173613481223583221435546875" lon="-0.2931817062199115753173828125">
        <ele>1213.5999755859375</ele>
        <time>2020-08-18T12:25:37.000Z</time>
      </trkpt>
      <trkpt lat="42.56174082867801189422607421875" lon="-0.29327784664928913116455078125">
        <ele>1212.4000244140625</ele>
        <time>2020-08-18T12:25:39.000Z</time>
      </trkpt>
      <trkpt lat="42.56174082867801189422607421875" lon="-0.2933272160589694976806640625">
        <ele>1212</ele>
        <time>2020-08-18T12:25:40.000Z</time>
      </trkpt>
      <trkpt lat="42.5617373920977115631103515625" lon="-0.29342704452574253082275390625">
        <ele>1211.4000244140625</ele>
        <time>2020-08-18T12:25:42.000Z</time>
      </trkpt>
      <trkpt lat="42.56173160858452320098876953125" lon="-0.2935585565865039825439453125">
        <ele>1209.800048828125</ele>
        <time>2020-08-18T12:25:45.000Z</time>
      </trkpt>
      <trkpt lat="42.56173060275614261627197265625" lon="-0.293616391718387603759765625">
        <ele>1208.800048828125</ele>
        <time>2020-08-18T12:25:47.000Z</time>
      </trkpt>
      <trkpt lat="42.5617276690900325775146484375" lon="-0.29364564456045627593994140625">
        <ele>1208.4000244140625</ele>
        <time>2020-08-18T12:25:48.000Z</time>
      </trkpt>
      <trkpt lat="42.56171735934913158416748046875" lon="-0.29375159181654453277587890625">
        <ele>1207.199951171875</ele>
        <time>2020-08-18T12:25:51.000Z</time>
      </trkpt>
      <trkpt lat="42.56170813925564289093017578125" lon="-0.2938066609203815460205078125">
        <ele>1206.800048828125</ele>
        <time>2020-08-18T12:25:53.000Z</time>
      </trkpt>
      <trkpt lat="42.5617058761417865753173828125" lon="-0.29382593929767608642578125">
        <ele>1206.4000244140625</ele>
        <time>2020-08-18T12:25:57.000Z</time>
      </trkpt>
      <trkpt lat="42.5617062114179134368896484375" lon="-0.293825604021549224853515625">
        <ele>1206.199951171875</ele>
        <time>2020-08-18T12:25:59.000Z</time>
      </trkpt>
      <trkpt lat="42.56170906126499176025390625" lon="-0.29388788156211376190185546875">
        <ele>1206.199951171875</ele>
        <time>2020-08-18T12:26:09.000Z</time>
      </trkpt>
      <trkpt lat="42.56171082146465778350830078125" lon="-0.2941241674125194549560546875">
        <ele>1205.5999755859375</ele>
        <time>2020-08-18T12:26:14.000Z</time>
      </trkpt>
      <trkpt lat="42.56171434186398983001708984375" lon="-0.29418828897178173065185546875">
        <ele>1205.4000244140625</ele>
        <time>2020-08-18T12:26:15.000Z</time>
      </trkpt>
      <trkpt lat="42.5617347098886966705322265625" lon="-0.29440387152135372161865234375">
        <ele>1204.4000244140625</ele>
        <time>2020-08-18T12:26:19.000Z</time>
      </trkpt>
      <trkpt lat="42.5617424212396144866943359375" lon="-0.29445223510265350341796875">
        <ele>1204</ele>
        <time>2020-08-18T12:26:20.000Z</time>
      </trkpt>
      <trkpt lat="42.5618051178753376007080078125" lon="-0.29464066028594970703125">
        <ele>1203</ele>
        <time>2020-08-18T12:26:24.000Z</time>
      </trkpt>
      <trkpt lat="42.56186437793076038360595703125" lon="-0.29490008018910884857177734375">
        <ele>1201.5999755859375</ele>
        <time>2020-08-18T12:26:29.000Z</time>
      </trkpt>
      <trkpt lat="42.5618698261678218841552734375" lon="-0.2949496172368526458740234375">
        <ele>1201</ele>
        <time>2020-08-18T12:26:30.000Z</time>
      </trkpt>
      <trkpt lat="42.56187946535646915435791015625" lon="-0.29505707323551177978515625">
        <ele>1200.800048828125</ele>
        <time>2020-08-18T12:26:32.000Z</time>
      </trkpt>
      <trkpt lat="42.5618946366012096405029296875" lon="-0.29527726583182811737060546875">
        <ele>1200</ele>
        <time>2020-08-18T12:26:36.000Z</time>
      </trkpt>
      <trkpt lat="42.5619087181985378265380859375" lon="-0.2953717298805713653564453125">
        <ele>1199.5999755859375</ele>
        <time>2020-08-18T12:26:38.000Z</time>
      </trkpt>
      <trkpt lat="42.5619254820048809051513671875" lon="-0.29551682062447071075439453125">
        <ele>1198.800048828125</ele>
        <time>2020-08-18T12:26:41.000Z</time>
      </trkpt>
      <trkpt lat="42.56192070432007312774658203125" lon="-0.2956600673496723175048828125">
        <ele>1198.5999755859375</ele>
        <time>2020-08-18T12:26:44.000Z</time>
      </trkpt>
      <trkpt lat="42.56192439235746860504150390625" lon="-0.29576626606285572052001953125">
        <ele>1198.4000244140625</ele>
        <time>2020-08-18T12:26:46.000Z</time>
      </trkpt>
      <trkpt lat="42.5619305111467838287353515625" lon="-0.29592636041343212127685546875">
        <ele>1197.800048828125</ele>
        <time>2020-08-18T12:26:49.000Z</time>
      </trkpt>
      <trkpt lat="42.56193327717483043670654296875" lon="-0.2959792502224445343017578125">
        <ele>1197.5999755859375</ele>
        <time>2020-08-18T12:26:50.000Z</time>
      </trkpt>
      <trkpt lat="42.56193243898451328277587890625" lon="-0.29603046365082263946533203125">
        <ele>1197.4000244140625</ele>
        <time>2020-08-18T12:26:51.000Z</time>
      </trkpt>
      <trkpt lat="42.56191818974912166595458984375" lon="-0.29618049971759319305419921875">
        <ele>1196.5999755859375</ele>
        <time>2020-08-18T12:26:54.000Z</time>
      </trkpt>
      <trkpt lat="42.56190075539052486419677734375" lon="-0.296290554106235504150390625">
        <ele>1195.5999755859375</ele>
        <time>2020-08-18T12:26:56.000Z</time>
      </trkpt>
      <trkpt lat="42.5618718378245830535888671875" lon="-0.29646791517734527587890625">
        <ele>1194.4000244140625</ele>
        <time>2020-08-18T12:26:59.000Z</time>
      </trkpt>
      <trkpt lat="42.56182707846164703369140625" lon="-0.29670017771422863006591796875">
        <ele>1193.4000244140625</ele>
        <time>2020-08-18T12:27:03.000Z</time>
      </trkpt>
      <trkpt lat="42.5618181936442852020263671875" lon="-0.29675449244678020477294921875">
        <ele>1192.800048828125</ele>
        <time>2020-08-18T12:27:04.000Z</time>
      </trkpt>
      <trkpt lat="42.56176941096782684326171875" lon="-0.2970129065215587615966796875">
        <ele>1192</ele>
        <time>2020-08-18T12:27:09.000Z</time>
      </trkpt>
      <trkpt lat="42.561803273856639862060546875" lon="-0.29728288762271404266357421875">
        <ele>1191.199951171875</ele>
        <time>2020-08-18T12:27:14.000Z</time>
      </trkpt>
      <trkpt lat="42.5618071295320987701416015625" lon="-0.2973344363272190093994140625">
        <ele>1190.5999755859375</ele>
        <time>2020-08-18T12:27:15.000Z</time>
      </trkpt>
      <trkpt lat="42.56181173957884311676025390625" lon="-0.29753518290817737579345703125">
        <ele>1189</ele>
        <time>2020-08-18T12:27:19.000Z</time>
      </trkpt>
      <trkpt lat="42.5618170201778411865234375" lon="-0.29759109020233154296875">
        <ele>1188.5999755859375</ele>
        <time>2020-08-18T12:27:20.000Z</time>
      </trkpt>
      <trkpt lat="42.56183537654578685760498046875" lon="-0.2977077662944793701171875">
        <ele>1187.5999755859375</ele>
        <time>2020-08-18T12:27:22.000Z</time>
      </trkpt>
      <trkpt lat="42.5618533976376056671142578125" lon="-0.29776702634990215301513671875">
        <ele>1186.5999755859375</ele>
        <time>2020-08-18T12:27:23.000Z</time>
      </trkpt>
      <trkpt lat="42.56191299296915531158447265625" lon="-0.2979251928627490997314453125">
        <ele>1186</ele>
        <time>2020-08-18T12:27:26.000Z</time>
      </trkpt>
      <trkpt lat="42.5619352050125598907470703125" lon="-0.29797456227242946624755859375">
        <ele>1185.5999755859375</ele>
        <time>2020-08-18T12:27:27.000Z</time>
      </trkpt>
      <trkpt lat="42.5619751028716564178466796875" lon="-0.29807799495756626129150390625">
        <ele>1184.4000244140625</ele>
        <time>2020-08-18T12:27:29.000Z</time>
      </trkpt>
      <trkpt lat="42.5620203651487827301025390625" lon="-0.29818452894687652587890625">
        <ele>1183.800048828125</ele>
        <time>2020-08-18T12:27:31.000Z</time>
      </trkpt>
      <trkpt lat="42.56204492412507534027099609375" lon="-0.29823775403201580047607421875">
        <ele>1182.800048828125</ele>
        <time>2020-08-18T12:27:32.000Z</time>
      </trkpt>
      <trkpt lat="42.56209152750670909881591796875" lon="-0.29833548702299594879150390625">
        <ele>1182.199951171875</ele>
        <time>2020-08-18T12:27:34.000Z</time>
      </trkpt>
      <trkpt lat="42.5621129013597965240478515625" lon="-0.29838862828910350799560546875">
        <ele>1181.800048828125</ele>
        <time>2020-08-18T12:27:35.000Z</time>
      </trkpt>
      <trkpt lat="42.56213477812707424163818359375" lon="-0.29844026081264019012451171875">
        <ele>1181.199951171875</ele>
        <time>2020-08-18T12:27:36.000Z</time>
      </trkpt>
      <trkpt lat="42.56219848059117794036865234375" lon="-0.2986384928226470947265625">
        <ele>1180.5999755859375</ele>
        <time>2020-08-18T12:27:40.000Z</time>
      </trkpt>
      <trkpt lat="42.56221306510269641876220703125" lon="-0.29889254830777645111083984375">
        <ele>1180.5999755859375</ele>
        <time>2020-08-18T12:27:45.000Z</time>
      </trkpt>
      <trkpt lat="42.5621960498392581939697265625" lon="-0.29900436289608478546142578125">
        <ele>1179.4000244140625</ele>
        <time>2020-08-18T12:27:47.000Z</time>
      </trkpt>
      <trkpt lat="42.56217786110937595367431640625" lon="-0.29918323270976543426513671875">
        <ele>1178.5999755859375</ele>
        <time>2020-08-18T12:27:50.000Z</time>
      </trkpt>
      <trkpt lat="42.5621826387941837310791015625" lon="-0.29923939146101474761962890625">
        <ele>1178.5999755859375</ele>
        <time>2020-08-18T12:27:51.000Z</time>
      </trkpt>
      <trkpt lat="42.5621916912496089935302734375" lon="-0.29929605312645435333251953125">
        <ele>1178.4000244140625</ele>
        <time>2020-08-18T12:27:52.000Z</time>
      </trkpt>
      <trkpt lat="42.56222848780453205108642578125" lon="-0.29946235008537769317626953125">
        <ele>1178</ele>
        <time>2020-08-18T12:27:55.000Z</time>
      </trkpt>
      <trkpt lat="42.56224977783858776092529296875" lon="-0.29957030899822711944580078125">
        <ele>1177.5999755859375</ele>
        <time>2020-08-18T12:27:57.000Z</time>
      </trkpt>
      <trkpt lat="42.56226536817848682403564453125" lon="-0.29962697066366672515869140625">
        <ele>1177.199951171875</ele>
        <time>2020-08-18T12:27:58.000Z</time>
      </trkpt>
      <trkpt lat="42.5623211078345775604248046875" lon="-0.2998121269047260284423828125">
        <ele>1176</ele>
        <time>2020-08-18T12:28:01.000Z</time>
      </trkpt>
      <trkpt lat="42.5623553059995174407958984375" lon="-0.29993777163326740264892578125">
        <ele>1174.199951171875</ele>
        <time>2020-08-18T12:28:03.000Z</time>
      </trkpt>
      <trkpt lat="42.56238506175577640533447265625" lon="-0.30005679465830326080322265625">
        <ele>1172.800048828125</ele>
        <time>2020-08-18T12:28:05.000Z</time>
      </trkpt>
      <trkpt lat="42.56242613308131694793701171875" lon="-0.30029014684259891510009765625">
        <ele>1171.5999755859375</ele>
        <time>2020-08-18T12:28:09.000Z</time>
      </trkpt>
      <trkpt lat="42.5624465011060237884521484375" lon="-0.30049416236579418182373046875">
        <ele>1170.199951171875</ele>
        <time>2020-08-18T12:28:13.000Z</time>
      </trkpt>
      <trkpt lat="42.56246385164558887481689453125" lon="-0.30053271912038326263427734375">
        <ele>1169.800048828125</ele>
        <time>2020-08-18T12:28:14.000Z</time>
      </trkpt>
      <trkpt lat="42.5625118799507617950439453125" lon="-0.30058954842388629913330078125">
        <ele>1168.800048828125</ele>
        <time>2020-08-18T12:28:16.000Z</time>
      </trkpt>
      <trkpt lat="42.56256736814975738525390625" lon="-0.30059021897614002227783203125">
        <ele>1168.4000244140625</ele>
        <time>2020-08-18T12:28:18.000Z</time>
      </trkpt>
      <trkpt lat="42.5625933520495891571044921875" lon="-0.3005683422088623046875">
        <ele>1167.5999755859375</ele>
        <time>2020-08-18T12:28:19.000Z</time>
      </trkpt>
      <trkpt lat="42.5626399554312229156494140625" lon="-0.300500951707363128662109375">
        <ele>1166.199951171875</ele>
        <time>2020-08-18T12:28:21.000Z</time>
      </trkpt>
      <trkpt lat="42.5626543723046779632568359375" lon="-0.30045560561120510101318359375">
        <ele>1165.800048828125</ele>
        <time>2020-08-18T12:28:22.000Z</time>
      </trkpt>
      <trkpt lat="42.56268831901252269744873046875" lon="-0.30034647323191165924072265625">
        <ele>1165.4000244140625</ele>
        <time>2020-08-18T12:28:24.000Z</time>
      </trkpt>
      <trkpt lat="42.56270927377045154571533203125" lon="-0.3002892248332500457763671875">
        <ele>1165</ele>
        <time>2020-08-18T12:28:25.000Z</time>
      </trkpt>
      <trkpt lat="42.56278689019381999969482421875" lon="-0.30011303722858428955078125">
        <ele>1164.4000244140625</ele>
        <time>2020-08-18T12:28:28.000Z</time>
      </trkpt>
      <trkpt lat="42.56284472532570362091064453125" lon="-0.29999560676515102386474609375">
        <ele>1164</ele>
        <time>2020-08-18T12:28:30.000Z</time>
      </trkpt>
      <trkpt lat="42.562941201031208038330078125" lon="-0.29985059984028339385986328125">
        <ele>1163.4000244140625</ele>
        <time>2020-08-18T12:28:33.000Z</time>
      </trkpt>
      <trkpt lat="42.5630315579473972320556640625" lon="-0.2996880747377872467041015625">
        <ele>1163</ele>
        <time>2020-08-18T12:28:36.000Z</time>
      </trkpt>
      <trkpt lat="42.56305553019046783447265625" lon="-0.299627222120761871337890625">
        <ele>1162.4000244140625</ele>
        <time>2020-08-18T12:28:37.000Z</time>
      </trkpt>
      <trkpt lat="42.56307698786258697509765625" lon="-0.29956318438053131103515625">
        <ele>1162</ele>
        <time>2020-08-18T12:28:38.000Z</time>
      </trkpt>
      <trkpt lat="42.56309953518211841583251953125" lon="-0.29950476251542568206787109375">
        <ele>1161.199951171875</ele>
        <time>2020-08-18T12:28:39.000Z</time>
      </trkpt>
      <trkpt lat="42.56317698396742343902587890625" lon="-0.2993420697748661041259765625">
        <ele>1160.199951171875</ele>
        <time>2020-08-18T12:28:42.000Z</time>
      </trkpt>
      <trkpt lat="42.56326046772301197052001953125" lon="-0.2992626093327999114990234375">
        <ele>1160.5999755859375</ele>
        <time>2020-08-18T12:28:45.000Z</time>
      </trkpt>
      <trkpt lat="42.563287876546382904052734375" lon="-0.299251712858676910400390625">
        <ele>1160.800048828125</ele>
        <time>2020-08-18T12:28:46.000Z</time>
      </trkpt>
      <trkpt lat="42.56341150961816310882568359375" lon="-0.299169234931468963623046875">
        <ele>1161.199951171875</ele>
        <time>2020-08-18T12:28:51.000Z</time>
      </trkpt>
      <trkpt lat="42.563516534864902496337890625" lon="-0.29903554357588291168212890625">
        <ele>1161</ele>
        <time>2020-08-18T12:28:55.000Z</time>
      </trkpt>
      <trkpt lat="42.56360043771564960479736328125" lon="-0.29886857606470584869384765625">
        <ele>1160.199951171875</ele>
        <time>2020-08-18T12:28:58.000Z</time>
      </trkpt>
      <trkpt lat="42.56364301778376102447509765625" lon="-0.2987402491271495819091796875">
        <ele>1159</ele>
        <time>2020-08-18T12:29:00.000Z</time>
      </trkpt>
      <trkpt lat="42.5636622123420238494873046875" lon="-0.2986718527972698211669921875">
        <ele>1158.4000244140625</ele>
        <time>2020-08-18T12:29:01.000Z</time>
      </trkpt>
      <trkpt lat="42.56369926035404205322265625" lon="-0.29853648506104946136474609375">
        <ele>1157.800048828125</ele>
        <time>2020-08-18T12:29:03.000Z</time>
      </trkpt>
      <trkpt lat="42.56376891396939754486083984375" lon="-0.29819567687809467315673828125">
        <ele>1157.5999755859375</ele>
        <time>2020-08-18T12:29:08.000Z</time>
      </trkpt>
      <trkpt lat="42.5637964904308319091796875" lon="-0.297987051308155059814453125">
        <ele>1157.199951171875</ele>
        <time>2020-08-18T12:29:11.000Z</time>
      </trkpt>
      <trkpt lat="42.56382306106388568878173828125" lon="-0.29786107130348682403564453125">
        <ele>1157.199951171875</ele>
        <time>2020-08-18T12:29:13.000Z</time>
      </trkpt>
      <trkpt lat="42.56385876797139644622802734375" lon="-0.29773266054689884185791015625">
        <ele>1156.800048828125</ele>
        <time>2020-08-18T12:29:15.000Z</time>
      </trkpt>
      <trkpt lat="42.56392833776772022247314453125" lon="-0.297541134059429168701171875">
        <ele>1155.5999755859375</ele>
        <time>2020-08-18T12:29:18.000Z</time>
      </trkpt>
      <trkpt lat="42.56395482458174228668212890625" lon="-0.2974775992333889007568359375">
        <ele>1155.199951171875</ele>
        <time>2020-08-18T12:29:19.000Z</time>
      </trkpt>
      <trkpt lat="42.56401467137038707733154296875" lon="-0.29735648073256015777587890625">
        <ele>1154.4000244140625</ele>
        <time>2020-08-18T12:29:21.000Z</time>
      </trkpt>
      <trkpt lat="42.5640856660902500152587890625" lon="-0.297248102724552154541015625">
        <ele>1154</ele>
        <time>2020-08-18T12:29:23.000Z</time>
      </trkpt>
      <trkpt lat="42.56411978043615818023681640625" lon="-0.29720309190452098846435546875">
        <ele>1154</ele>
        <time>2020-08-18T12:29:24.000Z</time>
      </trkpt>
      <trkpt lat="42.56424718536436557769775390625" lon="-0.29699605889618396759033203125">
        <ele>1153.5999755859375</ele>
        <time>2020-08-18T12:29:28.000Z</time>
      </trkpt>
      <trkpt lat="42.5642781145870685577392578125" lon="-0.2969297580420970916748046875">
        <ele>1153.199951171875</ele>
        <time>2020-08-18T12:29:29.000Z</time>
      </trkpt>
      <trkpt lat="42.5643354468047618865966796875" lon="-0.2967917919158935546875">
        <ele>1152.800048828125</ele>
        <time>2020-08-18T12:29:31.000Z</time>
      </trkpt>
      <trkpt lat="42.5643585808575153350830078125" lon="-0.29671811498701572418212890625">
        <ele>1152.4000244140625</ele>
        <time>2020-08-18T12:29:32.000Z</time>
      </trkpt>
      <trkpt lat="42.56438313983380794525146484375" lon="-0.2966424264013767242431640625">
        <ele>1152</ele>
        <time>2020-08-18T12:29:33.000Z</time>
      </trkpt>
      <trkpt lat="42.56442840211093425750732421875" lon="-0.29649901203811168670654296875">
        <ele>1151</ele>
        <time>2020-08-18T12:29:35.000Z</time>
      </trkpt>
      <trkpt lat="42.5644879974424839019775390625" lon="-0.2963021211326122283935546875">
        <ele>1149.800048828125</ele>
        <time>2020-08-18T12:29:38.000Z</time>
      </trkpt>
      <trkpt lat="42.5645091198384761810302734375" lon="-0.29623682610690593719482421875">
        <ele>1149.5999755859375</ele>
        <time>2020-08-18T12:29:39.000Z</time>
      </trkpt>
      <trkpt lat="42.56455848924815654754638671875" lon="-0.296109504997730255126953125">
        <ele>1148.5999755859375</ele>
        <time>2020-08-18T12:29:41.000Z</time>
      </trkpt>
      <trkpt lat="42.5646532885730266571044921875" lon="-0.29587271623313426971435546875">
        <ele>1147.800048828125</ele>
        <time>2020-08-18T12:29:45.000Z</time>
      </trkpt>
      <trkpt lat="42.564671225845813751220703125" lon="-0.29581504873931407928466796875">
        <ele>1147.4000244140625</ele>
        <time>2020-08-18T12:29:46.000Z</time>
      </trkpt>
      <trkpt lat="42.56470450200140476226806640625" lon="-0.2956929244101047515869140625">
        <ele>1147.4000244140625</ele>
        <time>2020-08-18T12:29:48.000Z</time>
      </trkpt>
      <trkpt lat="42.56471489556133747100830078125" lon="-0.2956263720989227294921875">
        <ele>1147.199951171875</ele>
        <time>2020-08-18T12:29:49.000Z</time>
      </trkpt>
      <trkpt lat="42.564733922481536865234375" lon="-0.29542830772697925567626953125">
        <ele>1147</ele>
        <time>2020-08-18T12:29:52.000Z</time>
      </trkpt>
      <trkpt lat="42.5647454895079135894775390625" lon="-0.29530710540711879730224609375">
        <ele>1146.800048828125</ele>
        <time>2020-08-18T12:29:54.000Z</time>
      </trkpt>
      <trkpt lat="42.564748339354991912841796875" lon="-0.29524348676204681396484375">
        <ele>1146.199951171875</ele>
        <time>2020-08-18T12:29:55.000Z</time>
      </trkpt>
      <trkpt lat="42.56475470960140228271484375" lon="-0.295180119574069976806640625">
        <ele>1145.4000244140625</ele>
        <time>2020-08-18T12:29:56.000Z</time>
      </trkpt>
      <trkpt lat="42.5647629238665103912353515625" lon="-0.2951182611286640167236328125">
        <ele>1145</ele>
        <time>2020-08-18T12:29:57.000Z</time>
      </trkpt>
      <trkpt lat="42.56477273069322109222412109375" lon="-0.29505933634936809539794921875">
        <ele>1144.4000244140625</ele>
        <time>2020-08-18T12:29:58.000Z</time>
      </trkpt>
      <trkpt lat="42.5647942721843719482421875" lon="-0.294993706047534942626953125">
        <ele>1143.800048828125</ele>
        <time>2020-08-18T12:29:59.000Z</time>
      </trkpt>
      <trkpt lat="42.56481581367552280426025390625" lon="-0.29493411071598529815673828125">
        <ele>1144</ele>
        <time>2020-08-18T12:30:00.000Z</time>
      </trkpt>
      <trkpt lat="42.56488773040473461151123046875" lon="-0.2947678975760936737060546875">
        <ele>1144.199951171875</ele>
        <time>2020-08-18T12:30:03.000Z</time>
      </trkpt>
      <trkpt lat="42.564956881105899810791015625" lon="-0.29464208520948886871337890625">
        <ele>1143.800048828125</ele>
        <time>2020-08-18T12:30:06.000Z</time>
      </trkpt>
      <trkpt lat="42.56503458134829998016357421875" lon="-0.29435927979648113250732421875">
        <ele>1143.4000244140625</ele>
        <time>2020-08-18T12:30:12.000Z</time>
      </trkpt>
      <trkpt lat="42.565050758421421051025390625" lon="-0.2942599542438983917236328125">
        <ele>1142.800048828125</ele>
        <time>2020-08-18T12:30:14.000Z</time>
      </trkpt>
      <trkpt lat="42.56508034653961658477783203125" lon="-0.2941181324422359466552734375">
        <ele>1141.5999755859375</ele>
        <time>2020-08-18T12:30:17.000Z</time>
      </trkpt>
      <trkpt lat="42.56512929685413837432861328125" lon="-0.293866507709026336669921875">
        <ele>1140.5999755859375</ele>
        <time>2020-08-18T12:30:22.000Z</time>
      </trkpt>
      <trkpt lat="42.56515595130622386932373046875" lon="-0.29377925209701061248779296875">
        <ele>1140.199951171875</ele>
        <time>2020-08-18T12:30:24.000Z</time>
      </trkpt>
      <trkpt lat="42.565174140036106109619140625" lon="-0.29374547302722930908203125">
        <ele>1140</ele>
        <time>2020-08-18T12:30:25.000Z</time>
      </trkpt>
      <trkpt lat="42.56523574702441692352294921875" lon="-0.293661653995513916015625">
        <ele>1139.800048828125</ele>
        <time>2020-08-18T12:30:28.000Z</time>
      </trkpt>
      <trkpt lat="42.56528989411890506744384765625" lon="-0.293539278209209442138671875">
        <ele>1139.800048828125</ele>
        <time>2020-08-18T12:30:31.000Z</time>
      </trkpt>
      <trkpt lat="42.56530749611556529998779296875" lon="-0.29348119162023067474365234375">
        <ele>1139.800048828125</ele>
        <time>2020-08-18T12:30:32.000Z</time>
      </trkpt>
      <trkpt lat="42.56534286774694919586181640625" lon="-0.29339544475078582763671875">
        <ele>1139.4000244140625</ele>
        <time>2020-08-18T12:30:34.000Z</time>
      </trkpt>
      <trkpt lat="42.5653932429850101470947265625" lon="-0.293282456696033477783203125">
        <ele>1139.199951171875</ele>
        <time>2020-08-18T12:30:37.000Z</time>
      </trkpt>
      <trkpt lat="42.565510757267475128173828125" lon="-0.2930402196943759918212890625">
        <ele>1139</ele>
        <time>2020-08-18T12:30:43.000Z</time>
      </trkpt>
      <trkpt lat="42.56562852300703525543212890625" lon="-0.29278792440891265869140625">
        <ele>1138.199951171875</ele>
        <time>2020-08-18T12:30:48.000Z</time>
      </trkpt>
      <trkpt lat="42.565648891031742095947265625" lon="-0.29273620806634426116943359375">
        <ele>1137.800048828125</ele>
        <time>2020-08-18T12:30:49.000Z</time>
      </trkpt>
      <trkpt lat="42.5656839273869991302490234375" lon="-0.2926502935588359832763671875">
        <ele>1137.199951171875</ele>
        <time>2020-08-18T12:30:51.000Z</time>
      </trkpt>
      <trkpt lat="42.5657281838357448577880859375" lon="-0.29254375956952571868896484375">
        <ele>1136.4000244140625</ele>
        <time>2020-08-18T12:30:54.000Z</time>
      </trkpt>
      <trkpt lat="42.5657442770898342132568359375" lon="-0.29250629246234893798828125">
        <ele>1135.800048828125</ele>
        <time>2020-08-18T12:30:55.000Z</time>
      </trkpt>
      <trkpt lat="42.5658793933689594268798828125" lon="-0.29226581566035747528076171875">
        <ele>1135</ele>
        <time>2020-08-18T12:31:02.000Z</time>
      </trkpt>
      <trkpt lat="42.56590110249817371368408203125" lon="-0.29223832301795482635498046875">
        <ele>1135</ele>
        <time>2020-08-18T12:31:03.000Z</time>
      </trkpt>
      <trkpt lat="42.56599866785109043121337890625" lon="-0.2921443618834018707275390625">
        <ele>1134.5999755859375</ele>
        <time>2020-08-18T12:31:07.000Z</time>
      </trkpt>
      <trkpt lat="42.56606094539165496826171875" lon="-0.2920511551201343536376953125">
        <ele>1133.5999755859375</ele>
        <time>2020-08-18T12:31:10.000Z</time>
      </trkpt>
      <trkpt lat="42.5660983286798000335693359375" lon="-0.29196926392614841461181640625">
        <ele>1133</ele>
        <time>2020-08-18T12:31:12.000Z</time>
      </trkpt>
      <trkpt lat="42.56611500866711139678955078125" lon="-0.2919287793338298797607421875">
        <ele>1132.4000244140625</ele>
        <time>2020-08-18T12:31:13.000Z</time>
      </trkpt>
      <trkpt lat="42.56620720960199832916259765625" lon="-0.29169584624469280242919921875">
        <ele>1131.4000244140625</ele>
        <time>2020-08-18T12:31:18.000Z</time>
      </trkpt>
      <trkpt lat="42.56624476052820682525634765625" lon="-0.2916018851101398468017578125">
        <ele>1131</ele>
        <time>2020-08-18T12:31:20.000Z</time>
      </trkpt>
      <trkpt lat="42.56629035808145999908447265625" lon="-0.2914448082447052001953125">
        <ele>1130</ele>
        <time>2020-08-18T12:31:23.000Z</time>
      </trkpt>
      <trkpt lat="42.56630158983170986175537109375" lon="-0.2913282997906208038330078125">
        <ele>1129</ele>
        <time>2020-08-18T12:31:25.000Z</time>
      </trkpt>
      <trkpt lat="42.56629429757595062255859375" lon="-0.29117415659129619598388671875">
        <ele>1127.5999755859375</ele>
        <time>2020-08-18T12:31:28.000Z</time>
      </trkpt>
      <trkpt lat="42.566289268434047698974609375" lon="-0.29112034477293491363525390625">
        <ele>1127</ele>
        <time>2020-08-18T12:31:29.000Z</time>
      </trkpt>
      <trkpt lat="42.56630343385040760040283203125" lon="-0.291011631488800048828125">
        <ele>1126</ele>
        <time>2020-08-18T12:31:31.000Z</time>
      </trkpt>
      <trkpt lat="42.56634391844272613525390625" lon="-0.2909276448190212249755859375">
        <ele>1125.5999755859375</ele>
        <time>2020-08-18T12:31:33.000Z</time>
      </trkpt>
      <trkpt lat="42.56642572581768035888671875" lon="-0.29082463122904300689697265625">
        <ele>1125</ele>
        <time>2020-08-18T12:31:37.000Z</time>
      </trkpt>
      <trkpt lat="42.56644139997661113739013671875" lon="-0.29079504311084747314453125">
        <ele>1124.800048828125</ele>
        <time>2020-08-18T12:31:38.000Z</time>
      </trkpt>
      <trkpt lat="42.566486410796642303466796875" lon="-0.290617682039737701416015625">
        <ele>1124.199951171875</ele>
        <time>2020-08-18T12:31:43.000Z</time>
      </trkpt>
      <trkpt lat="42.56649102084338665008544921875" lon="-0.29054685495793819427490234375">
        <ele>1123.800048828125</ele>
        <time>2020-08-18T12:31:45.000Z</time>
      </trkpt>
      <trkpt lat="42.5665113888680934906005859375" lon="-0.290495641529560089111328125">
        <ele>1123.4000244140625</ele>
        <time>2020-08-18T12:31:47.000Z</time>
      </trkpt>
      <trkpt lat="42.5665291585028171539306640625" lon="-0.29047845862805843353271484375">
        <ele>1123.199951171875</ele>
        <time>2020-08-18T12:31:48.000Z</time>
      </trkpt>
      <trkpt lat="42.56660350598394870758056640625" lon="-0.2904498763382434844970703125">
        <ele>1122.800048828125</ele>
        <time>2020-08-18T12:31:51.000Z</time>
      </trkpt>
      <trkpt lat="42.56666134111583232879638671875" lon="-0.29042229987680912017822265625">
        <ele>1122.5999755859375</ele>
        <time>2020-08-18T12:31:53.000Z</time>
      </trkpt>
      <trkpt lat="42.56676812656223773956298828125" lon="-0.29030428268015384674072265625">
        <ele>1122</ele>
        <time>2020-08-18T12:31:58.000Z</time>
      </trkpt>
      <trkpt lat="42.56680852733552455902099609375" lon="-0.2901860140264034271240234375">
        <ele>1122</ele>
        <time>2020-08-18T12:32:01.000Z</time>
      </trkpt>
      <trkpt lat="42.56683937273919582366943359375" lon="-0.29010236263275146484375">
        <ele>1121</ele>
        <time>2020-08-18T12:32:03.000Z</time>
      </trkpt>
      <trkpt lat="42.56685781292617321014404296875" lon="-0.29006238095462322235107421875">
        <ele>1120.5999755859375</ele>
        <time>2020-08-18T12:32:04.000Z</time>
      </trkpt>
      <trkpt lat="42.56689150817692279815673828125" lon="-0.28998761437833309173583984375">
        <ele>1119.800048828125</ele>
        <time>2020-08-18T12:32:06.000Z</time>
      </trkpt>
      <trkpt lat="42.56697717122733592987060546875" lon="-0.289795584976673126220703125">
        <ele>1118.800048828125</ele>
        <time>2020-08-18T12:32:11.000Z</time>
      </trkpt>
      <trkpt lat="42.567099630832672119140625" lon="-0.289634652435779571533203125">
        <ele>1118.800048828125</ele>
        <time>2020-08-18T12:32:17.000Z</time>
      </trkpt>
      <trkpt lat="42.5671358406543731689453125" lon="-0.2895898930728435516357421875">
        <ele>1117.800048828125</ele>
        <time>2020-08-18T12:32:19.000Z</time>
      </trkpt>
      <trkpt lat="42.56719426251947879791259765625" lon="-0.289507918059825897216796875">
        <ele>1116.800048828125</ele>
        <time>2020-08-18T12:32:22.000Z</time>
      </trkpt>
      <trkpt lat="42.56725184619426727294921875" lon="-0.2894266135990619659423828125">
        <ele>1115.800048828125</ele>
        <time>2020-08-18T12:32:25.000Z</time>
      </trkpt>
      <trkpt lat="42.567271292209625244140625" lon="-0.28940322808921337127685546875">
        <ele>1115.5999755859375</ele>
        <time>2020-08-18T12:32:26.000Z</time>
      </trkpt>
      <trkpt lat="42.5674008764326572418212890625" lon="-0.2892324887216091156005859375">
        <ele>1116</ele>
        <time>2020-08-18T12:32:32.000Z</time>
      </trkpt>
      <trkpt lat="42.5675046443939208984375" lon="-0.28906811960041522979736328125">
        <ele>1115.5999755859375</ele>
        <time>2020-08-18T12:32:37.000Z</time>
      </trkpt>
      <trkpt lat="42.56761369295418262481689453125" lon="-0.2888408862054347991943359375">
        <ele>1115.4000244140625</ele>
        <time>2020-08-18T12:32:43.000Z</time>
      </trkpt>
      <trkpt lat="42.567767165601253509521484375" lon="-0.2886155806481838226318359375">
        <ele>1115.4000244140625</ele>
        <time>2020-08-18T12:32:50.000Z</time>
      </trkpt>
      <trkpt lat="42.5678283534944057464599609375" lon="-0.28857274912297725677490234375">
        <ele>1114.800048828125</ele>
        <time>2020-08-18T12:32:52.000Z</time>
      </trkpt>
      <trkpt lat="42.56797059439122676849365234375" lon="-0.28847920708358287811279296875">
        <ele>1114.4000244140625</ele>
        <time>2020-08-18T12:32:57.000Z</time>
      </trkpt>
      <trkpt lat="42.56808006204664707183837890625" lon="-0.28837694786489009857177734375">
        <ele>1114.199951171875</ele>
        <time>2020-08-18T12:33:03.000Z</time>
      </trkpt>
      <trkpt lat="42.56818014197051525115966796875" lon="-0.288296900689601898193359375">
        <ele>1114.5999755859375</ele>
        <time>2020-08-18T12:33:08.000Z</time>
      </trkpt>
      <trkpt lat="42.56822624243795871734619140625" lon="-0.2882491238415241241455078125">
        <ele>1113.800048828125</ele>
        <time>2020-08-18T12:33:10.000Z</time>
      </trkpt>
      <trkpt lat="42.5683155097067356109619140625" lon="-0.2881364710628986358642578125">
        <ele>1113</ele>
        <time>2020-08-18T12:33:14.000Z</time>
      </trkpt>
      <trkpt lat="42.56840653717517852783203125" lon="-0.28801434673368930816650390625">
        <ele>1112.5999755859375</ele>
        <time>2020-08-18T12:33:18.000Z</time>
      </trkpt>
      <trkpt lat="42.568449787795543670654296875" lon="-0.2879366464912891387939453125">
        <ele>1112</ele>
        <time>2020-08-18T12:33:20.000Z</time>
      </trkpt>
      <trkpt lat="42.568518184125423431396484375" lon="-0.28777764178812503814697265625">
        <ele>1111.4000244140625</ele>
        <time>2020-08-18T12:33:24.000Z</time>
      </trkpt>
      <trkpt lat="42.56855766288936138153076171875" lon="-0.2876441180706024169921875">
        <ele>1110.800048828125</ele>
        <time>2020-08-18T12:33:27.000Z</time>
      </trkpt>
      <trkpt lat="42.5685984827578067779541015625" lon="-0.287502966821193695068359375">
        <ele>1110</ele>
        <time>2020-08-18T12:33:30.000Z</time>
      </trkpt>
      <trkpt lat="42.5686320103704929351806640625" lon="-0.28736340813338756561279296875">
        <ele>1109.4000244140625</ele>
        <time>2020-08-18T12:33:33.000Z</time>
      </trkpt>
      <trkpt lat="42.56863796152174472808837890625" lon="-0.28718990273773670196533203125">
        <ele>1109</ele>
        <time>2020-08-18T12:33:36.000Z</time>
      </trkpt>
      <trkpt lat="42.5686333514750003814697265625" lon="-0.28713089413940906524658203125">
        <ele>1108.5999755859375</ele>
        <time>2020-08-18T12:33:37.000Z</time>
      </trkpt>
      <trkpt lat="42.5686259754002094268798828125" lon="-0.28700499795377254486083984375">
        <ele>1107.5999755859375</ele>
        <time>2020-08-18T12:33:39.000Z</time>
      </trkpt>
      <trkpt lat="42.56860761903226375579833984375" lon="-0.28688094578683376312255859375">
        <ele>1106.800048828125</ele>
        <time>2020-08-18T12:33:41.000Z</time>
      </trkpt>
      <trkpt lat="42.56859655492007732391357421875" lon="-0.2868178300559520721435546875">
        <ele>1106.5999755859375</ele>
        <time>2020-08-18T12:33:42.000Z</time>
      </trkpt>
      <trkpt lat="42.568580210208892822265625" lon="-0.2866921015083789825439453125">
        <ele>1105.4000244140625</ele>
        <time>2020-08-18T12:33:44.000Z</time>
      </trkpt>
      <trkpt lat="42.56857560016214847564697265625" lon="-0.28662982396781444549560546875">
        <ele>1105.199951171875</ele>
        <time>2020-08-18T12:33:45.000Z</time>
      </trkpt>
      <trkpt lat="42.56854534149169921875" lon="-0.2862351201474666595458984375">
        <ele>1105.199951171875</ele>
        <time>2020-08-18T12:33:52.000Z</time>
      </trkpt>
      <trkpt lat="42.56851977668702602386474609375" lon="-0.28601132333278656005859375">
        <ele>1105</ele>
        <time>2020-08-18T12:33:56.000Z</time>
      </trkpt>
      <trkpt lat="42.56850737147033214569091796875" lon="-0.2859092317521572113037109375">
        <ele>1104.199951171875</ele>
        <time>2020-08-18T12:33:58.000Z</time>
      </trkpt>
      <trkpt lat="42.56849044002592563629150390625" lon="-0.28578476049005985260009765625">
        <ele>1103.5999755859375</ele>
        <time>2020-08-18T12:34:01.000Z</time>
      </trkpt>
      <trkpt lat="42.56849379278719425201416015625" lon="-0.2856852672994136810302734375">
        <ele>1103</ele>
        <time>2020-08-18T12:34:03.000Z</time>
      </trkpt>
      <trkpt lat="42.5685064494609832763671875" lon="-0.2855457924306392669677734375">
        <ele>1102</ele>
        <time>2020-08-18T12:34:06.000Z</time>
      </trkpt>
      <trkpt lat="42.56851189769804477691650390625" lon="-0.28550061397254467010498046875">
        <ele>1101.199951171875</ele>
        <time>2020-08-18T12:34:07.000Z</time>
      </trkpt>
      <trkpt lat="42.56853930652141571044921875" lon="-0.28536365367472171783447265625">
        <ele>1100.4000244140625</ele>
        <time>2020-08-18T12:34:10.000Z</time>
      </trkpt>
      <trkpt lat="42.568580210208892822265625" lon="-0.285234488546848297119140625">
        <ele>1100.4000244140625</ele>
        <time>2020-08-18T12:34:13.000Z</time>
      </trkpt>
      <trkpt lat="42.5685974769294261932373046875" lon="-0.28510163538157939910888671875">
        <ele>1099</ele>
        <time>2020-08-18T12:34:16.000Z</time>
      </trkpt>
      <trkpt lat="42.56860191933810710906982421875" lon="-0.28505570255219936370849609375">
        <ele>1098.199951171875</ele>
        <time>2020-08-18T12:34:17.000Z</time>
      </trkpt>
      <trkpt lat="42.568606697022914886474609375" lon="-0.2850048243999481201171875">
        <ele>1098</ele>
        <time>2020-08-18T12:34:18.000Z</time>
      </trkpt>
      <trkpt lat="42.56861482746899127960205078125" lon="-0.284777842462062835693359375">
        <ele>1097.5999755859375</ele>
        <time>2020-08-18T12:34:23.000Z</time>
      </trkpt>
      <trkpt lat="42.568612396717071533203125" lon="-0.2846911735832691192626953125">
        <ele>1096.800048828125</ele>
        <time>2020-08-18T12:34:25.000Z</time>
      </trkpt>
      <trkpt lat="42.5686145760118961334228515625" lon="-0.284544490277767181396484375">
        <ele>1096.5999755859375</ele>
        <time>2020-08-18T12:34:28.000Z</time>
      </trkpt>
      <trkpt lat="42.56862488575279712677001953125" lon="-0.28440660797059535980224609375">
        <ele>1095.5999755859375</ele>
        <time>2020-08-18T12:34:32.000Z</time>
      </trkpt>
      <trkpt lat="42.56862379610538482666015625" lon="-0.2843723259866237640380859375">
        <ele>1095.199951171875</ele>
        <time>2020-08-18T12:34:33.000Z</time>
      </trkpt>
      <trkpt lat="42.56861968897283077239990234375" lon="-0.2843099646270275115966796875">
        <ele>1094.199951171875</ele>
        <time>2020-08-18T12:34:35.000Z</time>
      </trkpt>
      <trkpt lat="42.56862421520054340362548828125" lon="-0.284164957702159881591796875">
        <ele>1093.800048828125</ele>
        <time>2020-08-18T12:34:39.000Z</time>
      </trkpt>
      <trkpt lat="42.568650953471660614013671875" lon="-0.2839614450931549072265625">
        <ele>1093.800048828125</ele>
        <time>2020-08-18T12:34:44.000Z</time>
      </trkpt>
      <trkpt lat="42.5686786137521266937255859375" lon="-0.28383160941302776336669921875">
        <ele>1093.4000244140625</ele>
        <time>2020-08-18T12:34:47.000Z</time>
      </trkpt>
      <trkpt lat="42.5687129795551300048828125" lon="-0.28370688669383525848388671875">
        <ele>1092</ele>
        <time>2020-08-18T12:34:50.000Z</time>
      </trkpt>
      <trkpt lat="42.56875698454678058624267578125" lon="-0.283522903919219970703125">
        <ele>1091</ele>
        <time>2020-08-18T12:34:54.000Z</time>
      </trkpt>
      <trkpt lat="42.568795792758464813232421875" lon="-0.28340153396129608154296875">
        <ele>1090.199951171875</ele>
        <time>2020-08-18T12:34:57.000Z</time>
      </trkpt>
      <trkpt lat="42.56882253102958202362060546875" lon="-0.28332115150988101959228515625">
        <ele>1089.800048828125</ele>
        <time>2020-08-18T12:34:59.000Z</time>
      </trkpt>
      <trkpt lat="42.5688497722148895263671875" lon="-0.28320028446614742279052734375">
        <ele>1089.199951171875</ele>
        <time>2020-08-18T12:35:02.000Z</time>
      </trkpt>
      <trkpt lat="42.568888328969478607177734375" lon="-0.28308595530688762664794921875">
        <ele>1088.800048828125</ele>
        <time>2020-08-18T12:35:05.000Z</time>
      </trkpt>
      <trkpt lat="42.56891422905027866363525390625" lon="-0.28299459256231784820556640625">
        <ele>1087.800048828125</ele>
        <time>2020-08-18T12:35:07.000Z</time>
      </trkpt>
      <trkpt lat="42.56892730481922626495361328125" lon="-0.28295494616031646728515625">
        <ele>1087.199951171875</ele>
        <time>2020-08-18T12:35:08.000Z</time>
      </trkpt>
      <trkpt lat="42.56896887905895709991455078125" lon="-0.28277448378503322601318359375">
        <ele>1086</ele>
        <time>2020-08-18T12:35:12.000Z</time>
      </trkpt>
      <trkpt lat="42.568971477448940277099609375" lon="-0.28272788040339946746826171875">
        <ele>1085.800048828125</ele>
        <time>2020-08-18T12:35:13.000Z</time>
      </trkpt>
      <trkpt lat="42.56897374056279659271240234375" lon="-0.28259695507586002349853515625">
        <ele>1084.800048828125</ele>
        <time>2020-08-18T12:35:16.000Z</time>
      </trkpt>
      <trkpt lat="42.56897424347698688507080078125" lon="-0.282481200993061065673828125">
        <ele>1084</ele>
        <time>2020-08-18T12:35:19.000Z</time>
      </trkpt>
      <trkpt lat="42.5689786858856678009033203125" lon="-0.28244507499039173126220703125">
        <ele>1083.800048828125</ele>
        <time>2020-08-18T12:35:20.000Z</time>
      </trkpt>
      <trkpt lat="42.5690281391143798828125" lon="-0.282348096370697021484375">
        <ele>1082.5999755859375</ele>
        <time>2020-08-18T12:35:24.000Z</time>
      </trkpt>
      <trkpt lat="42.56902788765728473663330078125" lon="-0.2823120541870594024658203125">
        <ele>1081.800048828125</ele>
        <time>2020-08-18T12:37:39.000Z</time>
      </trkpt>
      <trkpt lat="42.5690286420285701751708984375" lon="-0.28231255710124969482421875">
        <ele>1081.5999755859375</ele>
        <time>2020-08-18T12:37:41.000Z</time>
      </trkpt>
      <trkpt lat="42.56905739195644855499267578125" lon="-0.282316915690898895263671875">
        <ele>1081.5999755859375</ele>
        <time>2020-08-18T12:37:46.000Z</time>
      </trkpt>
      <trkpt lat="42.5691191665828227996826171875" lon="-0.28240375220775604248046875">
        <ele>1080.800048828125</ele>
        <time>2020-08-18T12:37:52.000Z</time>
      </trkpt>
      <trkpt lat="42.56913073360919952392578125" lon="-0.2824304066598415374755859375">
        <ele>1080.5999755859375</ele>
        <time>2020-08-18T12:37:53.000Z</time>
      </trkpt>
      <trkpt lat="42.56916685961186885833740234375" lon="-0.28253425844013690948486328125">
        <ele>1079.4000244140625</ele>
        <time>2020-08-18T12:37:56.000Z</time>
      </trkpt>
      <trkpt lat="42.5691778399050235748291015625" lon="-0.2825728990137577056884765625">
        <ele>1079</ele>
        <time>2020-08-18T12:37:57.000Z</time>
      </trkpt>
      <trkpt lat="42.56921119987964630126953125" lon="-0.2826889045536518096923828125">
        <ele>1078.199951171875</ele>
        <time>2020-08-18T12:38:00.000Z</time>
      </trkpt>
      <trkpt lat="42.5692479126155376434326171875" lon="-0.282831899821758270263671875">
        <ele>1078</ele>
        <time>2020-08-18T12:38:03.000Z</time>
      </trkpt>
      <trkpt lat="42.56927423179149627685546875" lon="-0.2829802595078945159912109375">
        <ele>1077.199951171875</ele>
        <time>2020-08-18T12:38:06.000Z</time>
      </trkpt>
      <trkpt lat="42.5693079270422458648681640625" lon="-0.2831780724227428436279296875">
        <ele>1076</ele>
        <time>2020-08-18T12:38:10.000Z</time>
      </trkpt>
      <trkpt lat="42.56935696117579936981201171875" lon="-0.28337429277598857879638671875">
        <ele>1074.800048828125</ele>
        <time>2020-08-18T12:38:14.000Z</time>
      </trkpt>
      <trkpt lat="42.5693823583424091339111328125" lon="-0.28351225890219211578369140625">
        <ele>1073.4000244140625</ele>
        <time>2020-08-18T12:38:17.000Z</time>
      </trkpt>
      <trkpt lat="42.56942384876310825347900390625" lon="-0.2836503088474273681640625">
        <ele>1072.4000244140625</ele>
        <time>2020-08-18T12:38:20.000Z</time>
      </trkpt>
      <trkpt lat="42.5694497488439083099365234375" lon="-0.28372331522405147552490234375">
        <ele>1071.199951171875</ele>
        <time>2020-08-18T12:38:22.000Z</time>
      </trkpt>
      <trkpt lat="42.56952392868697643280029296875" lon="-0.28393319807946681976318359375">
        <ele>1070.199951171875</ele>
        <time>2020-08-18T12:38:27.000Z</time>
      </trkpt>
      <trkpt lat="42.56953650154173374176025390625" lon="-0.283978544175624847412109375">
        <ele>1070</ele>
        <time>2020-08-18T12:38:28.000Z</time>
      </trkpt>
      <trkpt lat="42.56955242715775966644287109375" lon="-0.2840735949575901031494140625">
        <ele>1068.800048828125</ele>
        <time>2020-08-18T12:38:30.000Z</time>
      </trkpt>
      <trkpt lat="42.5695659220218658447265625" lon="-0.28422170318663120269775390625">
        <ele>1067.4000244140625</ele>
        <time>2020-08-18T12:38:33.000Z</time>
      </trkpt>
      <trkpt lat="42.5695717893540859222412109375" lon="-0.28426528908312320709228515625">
        <ele>1066.800048828125</ele>
        <time>2020-08-18T12:38:34.000Z</time>
      </trkpt>
      <trkpt lat="42.56959140300750732421875" lon="-0.28434994630515575408935546875">
        <ele>1066.199951171875</ele>
        <time>2020-08-18T12:38:36.000Z</time>
      </trkpt>
      <trkpt lat="42.56962853483855724334716796875" lon="-0.2844128943979740142822265625">
        <ele>1065.5999755859375</ele>
        <time>2020-08-18T12:38:38.000Z</time>
      </trkpt>
      <trkpt lat="42.56965510547161102294921875" lon="-0.2844269759953022003173828125">
        <ele>1065.4000244140625</ele>
        <time>2020-08-18T12:38:39.000Z</time>
      </trkpt>
      <trkpt lat="42.5696866214275360107421875" lon="-0.2844320051372051239013671875">
        <ele>1065</ele>
        <time>2020-08-18T12:38:40.000Z</time>
      </trkpt>
      <trkpt lat="42.569742612540721893310546875" lon="-0.28439889661967754364013671875">
        <ele>1064.4000244140625</ele>
        <time>2020-08-18T12:38:42.000Z</time>
      </trkpt>
      <trkpt lat="42.5697883777320384979248046875" lon="-0.2842341922223567962646484375">
        <ele>1064.4000244140625</ele>
        <time>2020-08-18T12:38:46.000Z</time>
      </trkpt>
      <trkpt lat="42.56980975158512592315673828125" lon="-0.28410268016159534454345703125">
        <ele>1063.5999755859375</ele>
        <time>2020-08-18T12:38:49.000Z</time>
      </trkpt>
      <trkpt lat="42.5698336400091648101806640625" lon="-0.28391945175826549530029296875">
        <ele>1062.800048828125</ele>
        <time>2020-08-18T12:38:53.000Z</time>
      </trkpt>
      <trkpt lat="42.56984277628362178802490234375" lon="-0.28377092443406581878662109375">
        <ele>1061.800048828125</ele>
        <time>2020-08-18T12:38:57.000Z</time>
      </trkpt>
      <trkpt lat="42.56983204744756221771240234375" lon="-0.28368911705911159515380859375">
        <ele>1061.199951171875</ele>
        <time>2020-08-18T12:38:59.000Z</time>
      </trkpt>
      <trkpt lat="42.569825090467929840087890625" lon="-0.28352684341371059417724609375">
        <ele>1060</ele>
        <time>2020-08-18T12:39:02.000Z</time>
      </trkpt>
      <trkpt lat="42.56984797306358814239501953125" lon="-0.2834436111152172088623046875">
        <ele>1059.4000244140625</ele>
        <time>2020-08-18T12:39:04.000Z</time>
      </trkpt>
      <trkpt lat="42.5698649883270263671875" lon="-0.2834080718457698822021484375">
        <ele>1059.199951171875</ele>
        <time>2020-08-18T12:39:05.000Z</time>
      </trkpt>
      <trkpt lat="42.56992827169597148895263671875" lon="-0.28324051760137081146240234375">
        <ele>1058.800048828125</ele>
        <time>2020-08-18T12:39:09.000Z</time>
      </trkpt>
      <trkpt lat="42.569933719933032989501953125" lon="-0.2831358276307582855224609375">
        <ele>1057.800048828125</ele>
        <time>2020-08-18T12:39:11.000Z</time>
      </trkpt>
      <trkpt lat="42.56993967108428478240966796875" lon="-0.28304303996264934539794921875">
        <ele>1057.4000244140625</ele>
        <time>2020-08-18T12:39:13.000Z</time>
      </trkpt>
      <trkpt lat="42.56994352675974369049072265625" lon="-0.2829958498477935791015625">
        <ele>1056.800048828125</ele>
        <time>2020-08-18T12:39:14.000Z</time>
      </trkpt>
      <trkpt lat="42.569951824843883514404296875" lon="-0.28288328088819980621337890625">
        <ele>1055.5999755859375</ele>
        <time>2020-08-18T12:39:16.000Z</time>
      </trkpt>
      <trkpt lat="42.56995593197643756866455078125" lon="-0.28282477520406246185302734375">
        <ele>1055.199951171875</ele>
        <time>2020-08-18T12:39:17.000Z</time>
      </trkpt>
      <trkpt lat="42.56996221840381622314453125" lon="-0.2827678620815277099609375">
        <ele>1055</ele>
        <time>2020-08-18T12:39:18.000Z</time>
      </trkpt>
      <trkpt lat="42.56997453980147838592529296875" lon="-0.28271262533962726593017578125">
        <ele>1054.5999755859375</ele>
        <time>2020-08-18T12:39:19.000Z</time>
      </trkpt>
      <trkpt lat="42.57003824226558208465576171875" lon="-0.2824361063539981842041015625">
        <ele>1053.5999755859375</ele>
        <time>2020-08-18T12:39:24.000Z</time>
      </trkpt>
      <trkpt lat="42.57004947401583194732666015625" lon="-0.28238204307854175567626953125">
        <ele>1053.5999755859375</ele>
        <time>2020-08-18T12:39:25.000Z</time>
      </trkpt>
      <trkpt lat="42.57009255699813365936279296875" lon="-0.2822429873049259185791015625">
        <ele>1052.4000244140625</ele>
        <time>2020-08-18T12:39:28.000Z</time>
      </trkpt>
      <trkpt lat="42.5701042078435420989990234375" lon="-0.28213142417371273040771484375">
        <ele>1051.5999755859375</ele>
        <time>2020-08-18T12:39:30.000Z</time>
      </trkpt>
      <trkpt lat="42.5701157748699188232421875" lon="-0.282031595706939697265625">
        <ele>1051.199951171875</ele>
        <time>2020-08-18T12:39:32.000Z</time>
      </trkpt>
      <trkpt lat="42.5701189599931240081787109375" lon="-0.28192556463181972503662109375">
        <ele>1049.199951171875</ele>
        <time>2020-08-18T12:39:34.000Z</time>
      </trkpt>
      <trkpt lat="42.57011535577476024627685546875" lon="-0.2818185277283191680908203125">
        <ele>1048.199951171875</ele>
        <time>2020-08-18T12:39:36.000Z</time>
      </trkpt>
      <trkpt lat="42.57004997693002223968505859375" lon="-0.28157771565020084381103515625">
        <ele>1047.5999755859375</ele>
        <time>2020-08-18T12:39:41.000Z</time>
      </trkpt>
      <trkpt lat="42.569979317486286163330078125" lon="-0.281398259103298187255859375">
        <ele>1047.199951171875</ele>
        <time>2020-08-18T12:39:45.000Z</time>
      </trkpt>
      <trkpt lat="42.56992341019213199615478515625" lon="-0.28123187832534313201904296875">
        <ele>1046.5999755859375</ele>
        <time>2020-08-18T12:39:48.000Z</time>
      </trkpt>
      <trkpt lat="42.569881416857242584228515625" lon="-0.28112257830798625946044921875">
        <ele>1046</ele>
        <time>2020-08-18T12:39:50.000Z</time>
      </trkpt>
      <trkpt lat="42.56978594698011875152587890625" lon="-0.28092057444155216217041015625">
        <ele>1045.199951171875</ele>
        <time>2020-08-18T12:39:54.000Z</time>
      </trkpt>
      <trkpt lat="42.56976373493671417236328125" lon="-0.28088889084756374359130859375">
        <ele>1045</ele>
        <time>2020-08-18T12:39:55.000Z</time>
      </trkpt>
      <trkpt lat="42.5696673430502414703369140625" lon="-0.2808039821684360504150390625">
        <ele>1044.800048828125</ele>
        <time>2020-08-18T12:39:58.000Z</time>
      </trkpt>
      <trkpt lat="42.5696289539337158203125" lon="-0.28078830800950527191162109375">
        <ele>1044.800048828125</ele>
        <time>2020-08-18T12:39:59.000Z</time>
      </trkpt>
      <trkpt lat="42.56959249265491962432861328125" lon="-0.28077020309865474700927734375">
        <ele>1044.800048828125</ele>
        <time>2020-08-18T12:40:00.000Z</time>
      </trkpt>
      <trkpt lat="42.56943290121853351593017578125" lon="-0.28067481704056262969970703125">
        <ele>1043.800048828125</ele>
        <time>2020-08-18T12:40:05.000Z</time>
      </trkpt>
      <trkpt lat="42.569403983652591705322265625" lon="-0.28064665384590625762939453125">
        <ele>1043.5999755859375</ele>
        <time>2020-08-18T12:40:06.000Z</time>
      </trkpt>
      <trkpt lat="42.569277919828891754150390625" lon="-0.2804593183100223541259765625">
        <ele>1043</ele>
        <time>2020-08-18T12:40:13.000Z</time>
      </trkpt>
      <trkpt lat="42.5692881457507610321044921875" lon="-0.28045512735843658447265625">
        <ele>1043.199951171875</ele>
        <time>2020-08-18T12:40:17.000Z</time>
      </trkpt>
      <trkpt lat="42.569292671978473663330078125" lon="-0.2804606594145298004150390625">
        <ele>1042.800048828125</ele>
        <time>2020-08-18T12:40:20.000Z</time>
      </trkpt>
      <trkpt lat="42.569292001426219940185546875" lon="-0.28041866607964038848876953125">
        <ele>1042.4000244140625</ele>
        <time>2020-08-18T12:40:29.000Z</time>
      </trkpt>
      <trkpt lat="42.569372467696666717529296875" lon="-0.2803396247327327728271484375">
        <ele>1042</ele>
        <time>2020-08-18T12:40:34.000Z</time>
      </trkpt>
      <trkpt lat="42.56950330920517444610595703125" lon="-0.28039402328431606292724609375">
        <ele>1041.800048828125</ele>
        <time>2020-08-18T12:40:38.000Z</time>
      </trkpt>
      <trkpt lat="42.5695416145026683807373046875" lon="-0.28042620979249477386474609375">
        <ele>1041.4000244140625</ele>
        <time>2020-08-18T12:40:39.000Z</time>
      </trkpt>
      <trkpt lat="42.5696597993373870849609375" lon="-0.28053693473339080810546875">
        <ele>1040.199951171875</ele>
        <time>2020-08-18T12:40:42.000Z</time>
      </trkpt>
      <trkpt lat="42.56974554620683193206787109375" lon="-0.28060927055776119232177734375">
        <ele>1039.4000244140625</ele>
        <time>2020-08-18T12:40:44.000Z</time>
      </trkpt>
      <trkpt lat="42.56993346847593784332275390625" lon="-0.28082552365958690643310546875">
        <ele>1040</ele>
        <time>2020-08-18T12:40:50.000Z</time>
      </trkpt>
      <trkpt lat="42.57007277570664882659912109375" lon="-0.28106977231800556182861328125">
        <ele>1039.800048828125</ele>
        <time>2020-08-18T12:40:57.000Z</time>
      </trkpt>
      <trkpt lat="42.570221386849880218505859375" lon="-0.2813139371573925018310546875">
        <ele>1040.199951171875</ele>
        <time>2020-08-18T12:41:04.000Z</time>
      </trkpt>
      <trkpt lat="42.5703035295009613037109375" lon="-0.28151652775704860687255859375">
        <ele>1040.4000244140625</ele>
        <time>2020-08-18T12:41:10.000Z</time>
      </trkpt>
      <trkpt lat="42.570355497300624847412109375" lon="-0.28167997486889362335205078125">
        <ele>1039.800048828125</ele>
        <time>2020-08-18T12:41:15.000Z</time>
      </trkpt>
      <trkpt lat="42.5704374723136425018310546875" lon="-0.28195339255034923553466796875">
        <ele>1039.5999755859375</ele>
        <time>2020-08-18T12:41:21.000Z</time>
      </trkpt>
      <trkpt lat="42.570478208363056182861328125" lon="-0.28210091404616832733154296875">
        <ele>1039</ele>
        <time>2020-08-18T12:41:24.000Z</time>
      </trkpt>
      <trkpt lat="42.57050829939544200897216796875" lon="-0.28220082633197307586669921875">
        <ele>1039</ele>
        <time>2020-08-18T12:41:26.000Z</time>
      </trkpt>
      <trkpt lat="42.57058851420879364013671875" lon="-0.28249855153262615203857421875">
        <ele>1038.800048828125</ele>
        <time>2020-08-18T12:41:33.000Z</time>
      </trkpt>
      <trkpt lat="42.57068574428558349609375" lon="-0.28276409022510051727294921875">
        <ele>1039.199951171875</ele>
        <time>2020-08-18T12:41:40.000Z</time>
      </trkpt>
      <trkpt lat="42.570726983249187469482421875" lon="-0.282990150153636932373046875">
        <ele>1040</ele>
        <time>2020-08-18T12:41:46.000Z</time>
      </trkpt>
      <trkpt lat="42.57074785418808460235595703125" lon="-0.28320514596998691558837890625">
        <ele>1039.199951171875</ele>
        <time>2020-08-18T12:41:51.000Z</time>
      </trkpt>
      <trkpt lat="42.57080200128257274627685546875" lon="-0.28329047374427318572998046875">
        <ele>1038.800048828125</ele>
        <time>2020-08-18T12:41:54.000Z</time>
      </trkpt>
      <trkpt lat="42.57082714699208736419677734375" lon="-0.28329583816230297088623046875">
        <ele>1038.4000244140625</ele>
        <time>2020-08-18T12:41:55.000Z</time>
      </trkpt>
      <trkpt lat="42.57087760604918003082275390625" lon="-0.28329080902040004730224609375">
        <ele>1038</ele>
        <time>2020-08-18T12:41:57.000Z</time>
      </trkpt>
      <trkpt lat="42.570947594940662384033203125" lon="-0.2832756377756595611572265625">
        <ele>1037.199951171875</ele>
        <time>2020-08-18T12:42:00.000Z</time>
      </trkpt>
      <trkpt lat="42.57096477784216403961181640625" lon="-0.2832696028053760528564453125">
        <ele>1037.199951171875</ele>
        <time>2020-08-18T12:42:01.000Z</time>
      </trkpt>
      <trkpt lat="42.5710651092231273651123046875" lon="-0.28330019675195217132568359375">
        <ele>1035.800048828125</ele>
        <time>2020-08-18T12:42:05.000Z</time>
      </trkpt>
      <trkpt lat="42.57114909589290618896484375" lon="-0.28335534967482089996337890625">
        <ele>1034.199951171875</ele>
        <time>2020-08-18T12:42:08.000Z</time>
      </trkpt>
      <trkpt lat="42.5712320767343044281005859375" lon="-0.28343263082206249237060546875">
        <ele>1033.4000244140625</ele>
        <time>2020-08-18T12:42:11.000Z</time>
      </trkpt>
      <trkpt lat="42.5712597370147705078125" lon="-0.283458866178989410400390625">
        <ele>1033.199951171875</ele>
        <time>2020-08-18T12:42:12.000Z</time>
      </trkpt>
      <trkpt lat="42.57133542560040950775146484375" lon="-0.2835510671138763427734375">
        <ele>1032</ele>
        <time>2020-08-18T12:42:15.000Z</time>
      </trkpt>
      <trkpt lat="42.5713790953159332275390625" lon="-0.2836293540894985198974609375">
        <ele>1031</ele>
        <time>2020-08-18T12:42:17.000Z</time>
      </trkpt>
      <trkpt lat="42.57144271396100521087646484375" lon="-0.28383026830852031707763671875">
        <ele>1030</ele>
        <time>2020-08-18T12:42:21.000Z</time>
      </trkpt>
      <trkpt lat="42.57146500982344150543212890625" lon="-0.2839311026036739349365234375">
        <ele>1029.800048828125</ele>
        <time>2020-08-18T12:42:23.000Z</time>
      </trkpt>
      <trkpt lat="42.57148562930524349212646484375" lon="-0.2840303443372249603271484375">
        <ele>1028.4000244140625</ele>
        <time>2020-08-18T12:42:25.000Z</time>
      </trkpt>
      <trkpt lat="42.5714962743222713470458984375" lon="-0.284148864448070526123046875">
        <ele>1027.199951171875</ele>
        <time>2020-08-18T12:42:27.000Z</time>
      </trkpt>
      <trkpt lat="42.57150038145482540130615234375" lon="-0.2842127345502376556396484375">
        <ele>1027.199951171875</ele>
        <time>2020-08-18T12:42:28.000Z</time>
      </trkpt>
      <trkpt lat="42.5715157203376293182373046875" lon="-0.284395627677440643310546875">
        <ele>1026.4000244140625</ele>
        <time>2020-08-18T12:42:31.000Z</time>
      </trkpt>
      <trkpt lat="42.57153810001909732818603515625" lon="-0.2846398763358592987060546875">
        <ele>1025.5999755859375</ele>
        <time>2020-08-18T12:42:35.000Z</time>
      </trkpt>
      <trkpt lat="42.5715442188084125518798828125" lon="-0.28469813056290149688720703125">
        <ele>1025</ele>
        <time>2020-08-18T12:42:36.000Z</time>
      </trkpt>
      <trkpt lat="42.57154069840908050537109375" lon="-0.2847538702189922332763671875">
        <ele>1024.5999755859375</ele>
        <time>2020-08-18T12:42:37.000Z</time>
      </trkpt>
      <trkpt lat="42.571526952087879180908203125" lon="-0.284933745861053466796875">
        <ele>1024.199951171875</ele>
        <time>2020-08-18T12:42:40.000Z</time>
      </trkpt>
      <trkpt lat="42.5714837014675140380859375" lon="-0.2851555310189723968505859375">
        <ele>1023</ele>
        <time>2020-08-18T12:42:44.000Z</time>
      </trkpt>
      <trkpt lat="42.5714714638888835906982421875" lon="-0.28520724736154079437255859375">
        <ele>1022.5999755859375</ele>
        <time>2020-08-18T12:42:45.000Z</time>
      </trkpt>
      <trkpt lat="42.571461237967014312744140625" lon="-0.28526592068374156951904296875">
        <ele>1021.4000244140625</ele>
        <time>2020-08-18T12:42:46.000Z</time>
      </trkpt>
      <trkpt lat="42.5714409537613391876220703125" lon="-0.28539466671645641326904296875">
        <ele>1020.5999755859375</ele>
        <time>2020-08-18T12:42:48.000Z</time>
      </trkpt>
      <trkpt lat="42.57142745889723300933837890625" lon="-0.28552559204399585723876953125">
        <ele>1020.20001220703125</ele>
        <time>2020-08-18T12:42:50.000Z</time>
      </trkpt>
      <trkpt lat="42.5714070908725261688232421875" lon="-0.28572566807270050048828125">
        <ele>1019.79998779296875</ele>
        <time>2020-08-18T12:42:53.000Z</time>
      </trkpt>
      <trkpt lat="42.571398876607418060302734375" lon="-0.28592188842594623565673828125">
        <ele>1019.79998779296875</ele>
        <time>2020-08-18T12:42:56.000Z</time>
      </trkpt>
      <trkpt lat="42.57138337008655071258544921875" lon="-0.28610042296350002288818359375">
        <ele>1019.20001220703125</ele>
        <time>2020-08-18T12:42:59.000Z</time>
      </trkpt>
      <trkpt lat="42.57137582637369632720947265625" lon="-0.2862874232232570648193359375">
        <ele>1019</ele>
        <time>2020-08-18T12:43:02.000Z</time>
      </trkpt>
      <trkpt lat="42.57137163542211055755615234375" lon="-0.28635372407734394073486328125">
        <ele>1019.20001220703125</ele>
        <time>2020-08-18T12:43:03.000Z</time>
      </trkpt>
      <trkpt lat="42.57134783081710338592529296875" lon="-0.2864698134362697601318359375">
        <ele>1019.20001220703125</ele>
        <time>2020-08-18T12:43:05.000Z</time>
      </trkpt>
      <trkpt lat="42.57131866179406642913818359375" lon="-0.28658137656748294830322265625">
        <ele>1019.20001220703125</ele>
        <time>2020-08-18T12:43:07.000Z</time>
      </trkpt>
      <trkpt lat="42.57135570980608463287353515625" lon="-0.286719761788845062255859375">
        <ele>1018.4000244140625</ele>
        <time>2020-08-18T12:43:10.000Z</time>
      </trkpt>
      <trkpt lat="42.571449838578701019287109375" lon="-0.2867655269801616668701171875">
        <ele>1017.5999755859375</ele>
        <time>2020-08-18T12:43:14.000Z</time>
      </trkpt>
      <trkpt lat="42.57151496596634387969970703125" lon="-0.2866907604038715362548828125">
        <ele>1017.4000244140625</ele>
        <time>2020-08-18T12:43:18.000Z</time>
      </trkpt>
      <trkpt lat="42.57153223268687725067138671875" lon="-0.28666251339018344879150390625">
        <ele>1017.4000244140625</ele>
        <time>2020-08-18T12:43:19.000Z</time>
      </trkpt>
      <trkpt lat="42.57163315080106258392333984375" lon="-0.2865935303270816802978515625">
        <ele>1017.20001220703125</ele>
        <time>2020-08-18T12:43:23.000Z</time>
      </trkpt>
      <trkpt lat="42.571736164391040802001953125" lon="-0.2865202724933624267578125">
        <ele>1017.20001220703125</ele>
        <time>2020-08-18T12:43:26.000Z</time>
      </trkpt>
      <trkpt lat="42.5718188099563121795654296875" lon="-0.286460928618907928466796875">
        <ele>1016.5999755859375</ele>
        <time>2020-08-18T12:43:28.000Z</time>
      </trkpt>
      <trkpt lat="42.5719958357512950897216796875" lon="-0.286341570317745208740234375">
        <ele>1015.20001220703125</ele>
        <time>2020-08-18T12:43:32.000Z</time>
      </trkpt>
      <trkpt lat="42.5720764696598052978515625" lon="-0.28628348372876644134521484375">
        <ele>1014.5999755859375</ele>
        <time>2020-08-18T12:43:34.000Z</time>
      </trkpt>
      <trkpt lat="42.572117038071155548095703125" lon="-0.2862582542002201080322265625">
        <ele>1014.20001220703125</ele>
        <time>2020-08-18T12:43:35.000Z</time>
      </trkpt>
      <trkpt lat="42.572367154061794281005859375" lon="-0.286162532866001129150390625">
        <ele>1014.4000244140625</ele>
        <time>2020-08-18T12:43:41.000Z</time>
      </trkpt>
      <trkpt lat="42.572509981691837310791015625" lon="-0.2861549891531467437744140625">
        <ele>1013.4000244140625</ele>
        <time>2020-08-18T12:43:44.000Z</time>
      </trkpt>
      <trkpt lat="42.57255993783473968505859375" lon="-0.28615943156182765960693359375">
        <ele>1013</ele>
        <time>2020-08-18T12:43:45.000Z</time>
      </trkpt>
      <trkpt lat="42.57260821759700775146484375" lon="-0.28616060502827167510986328125">
        <ele>1012.20001220703125</ele>
        <time>2020-08-18T12:43:46.000Z</time>
      </trkpt>
      <trkpt lat="42.57265557534992694854736328125" lon="-0.286159850656986236572265625">
        <ele>1011.79998779296875</ele>
        <time>2020-08-18T12:43:47.000Z</time>
      </trkpt>
      <trkpt lat="42.57269849069416522979736328125" lon="-0.28616026975214481353759765625">
        <ele>1011.5999755859375</ele>
        <time>2020-08-18T12:43:48.000Z</time>
      </trkpt>
      <trkpt lat="42.57281851954758167266845703125" lon="-0.28621072880923748016357421875">
        <ele>1011.4000244140625</ele>
        <time>2020-08-18T12:43:51.000Z</time>
      </trkpt>
      <trkpt lat="42.5728672184050083160400390625" lon="-0.28626856394112110137939453125">
        <ele>1011.20001220703125</ele>
        <time>2020-08-18T12:43:53.000Z</time>
      </trkpt>
      <trkpt lat="42.57295128889381885528564453125" lon="-0.28639965690672397613525390625">
        <ele>1012.20001220703125</ele>
        <time>2020-08-18T12:43:57.000Z</time>
      </trkpt>
      <trkpt lat="42.5730600021779537200927734375" lon="-0.28656125999987125396728515625">
        <ele>1012</ele>
        <time>2020-08-18T12:44:01.000Z</time>
      </trkpt>
      <trkpt lat="42.57319872267544269561767578125" lon="-0.2866944484412670135498046875">
        <ele>1011</ele>
        <time>2020-08-18T12:44:05.000Z</time>
      </trkpt>
      <trkpt lat="42.57337172515690326690673828125" lon="-0.28692872263491153717041015625">
        <ele>1011.5999755859375</ele>
        <time>2020-08-18T12:44:11.000Z</time>
      </trkpt>
      <trkpt lat="42.5734703801572322845458984375" lon="-0.287193842232227325439453125">
        <ele>1011</ele>
        <time>2020-08-18T12:44:16.000Z</time>
      </trkpt>
      <trkpt lat="42.5735471583902835845947265625" lon="-0.28746197931468486785888671875">
        <ele>1011</ele>
        <time>2020-08-18T12:44:21.000Z</time>
      </trkpt>
      <trkpt lat="42.5736219249665737152099609375" lon="-0.2876154519617557525634765625">
        <ele>1010.79998779296875</ele>
        <time>2020-08-18T12:44:24.000Z</time>
      </trkpt>
      <trkpt lat="42.57368504069745540618896484375" lon="-0.28772818855941295623779296875">
        <ele>1010.4000244140625</ele>
        <time>2020-08-18T12:44:26.000Z</time>
      </trkpt>
      <trkpt lat="42.57374270819127559661865234375" lon="-0.28783815912902355194091796875">
        <ele>1010.20001220703125</ele>
        <time>2020-08-18T12:44:28.000Z</time>
      </trkpt>
      <trkpt lat="42.57377497851848602294921875" lon="-0.28788828290998935699462890625">
        <ele>1010</ele>
        <time>2020-08-18T12:44:29.000Z</time>
      </trkpt>
      <trkpt lat="42.57383641786873340606689453125" lon="-0.28799506835639476776123046875">
        <ele>1009.5999755859375</ele>
        <time>2020-08-18T12:44:31.000Z</time>
      </trkpt>
      <trkpt lat="42.57394186221063137054443359375" lon="-0.28824015520513057708740234375">
        <ele>1009.20001220703125</ele>
        <time>2020-08-18T12:44:35.000Z</time>
      </trkpt>
      <trkpt lat="42.57397253997623920440673828125" lon="-0.288373343646526336669921875">
        <ele>1009</ele>
        <time>2020-08-18T12:44:37.000Z</time>
      </trkpt>
      <trkpt lat="42.57396063767373561859130859375" lon="-0.28857056982815265655517578125">
        <ele>1008.20001220703125</ele>
        <time>2020-08-18T12:44:40.000Z</time>
      </trkpt>
      <trkpt lat="42.57393498905003070831298828125" lon="-0.28871021233499050140380859375">
        <ele>1007.79998779296875</ele>
        <time>2020-08-18T12:44:42.000Z</time>
      </trkpt>
      <trkpt lat="42.57392979227006435394287109375" lon="-0.28877827338874340057373046875">
        <ele>1007.79998779296875</ele>
        <time>2020-08-18T12:44:43.000Z</time>
      </trkpt>
      <trkpt lat="42.57393456995487213134765625" lon="-0.28892814181745052337646484375">
        <ele>1007.20001220703125</ele>
        <time>2020-08-18T12:44:45.000Z</time>
      </trkpt>
      <trkpt lat="42.573939263820648193359375" lon="-0.2890041656792163848876953125">
        <ele>1006.79998779296875</ele>
        <time>2020-08-18T12:44:46.000Z</time>
      </trkpt>
      <trkpt lat="42.5739525072276592254638671875" lon="-0.28908169828355312347412109375">
        <ele>1006.20001220703125</ele>
        <time>2020-08-18T12:44:47.000Z</time>
      </trkpt>
      <trkpt lat="42.57398628629744052886962890625" lon="-0.28923106379806995391845703125">
        <ele>1005.5999755859375</ele>
        <time>2020-08-18T12:44:49.000Z</time>
      </trkpt>
      <trkpt lat="42.5740021280944347381591796875" lon="-0.2893044054508209228515625">
        <ele>1005.4000244140625</ele>
        <time>2020-08-18T12:44:50.000Z</time>
      </trkpt>
      <trkpt lat="42.57406088523566722869873046875" lon="-0.28959467075765132904052734375">
        <ele>1004.4000244140625</ele>
        <time>2020-08-18T12:44:54.000Z</time>
      </trkpt>
      <trkpt lat="42.57407161407172679901123046875" lon="-0.28965585865080356597900390625">
        <ele>1004</ele>
        <time>2020-08-18T12:44:55.000Z</time>
      </trkpt>
      <trkpt lat="42.57408368401229381561279296875" lon="-0.28971687890589237213134765625">
        <ele>1003.4000244140625</ele>
        <time>2020-08-18T12:44:56.000Z</time>
      </trkpt>
      <trkpt lat="42.57411251775920391082763671875" lon="-0.28984243981540203094482421875">
        <ele>1002.4000244140625</ele>
        <time>2020-08-18T12:44:58.000Z</time>
      </trkpt>
      <trkpt lat="42.57412970066070556640625" lon="-0.2898983471095561981201171875">
        <ele>1001.79998779296875</ele>
        <time>2020-08-18T12:44:59.000Z</time>
      </trkpt>
      <trkpt lat="42.57415191270411014556884765625" lon="-0.28995475731790065765380859375">
        <ele>1001</ele>
        <time>2020-08-18T12:45:00.000Z</time>
      </trkpt>
      <trkpt lat="42.574173621833324432373046875" lon="-0.2900123409926891326904296875">
        <ele>1000.5999755859375</ele>
        <time>2020-08-18T12:45:01.000Z</time>
      </trkpt>
      <trkpt lat="42.57424679584801197052001953125" lon="-0.290233790874481201171875">
        <ele>999.5999755859375</ele>
        <time>2020-08-18T12:45:05.000Z</time>
      </trkpt>
      <trkpt lat="42.574278898537158966064453125" lon="-0.29036798514425754547119140625">
        <ele>998.79998779296875</ele>
        <time>2020-08-18T12:45:07.000Z</time>
      </trkpt>
      <trkpt lat="42.57429532706737518310546875" lon="-0.29043822549283504486083984375">
        <ele>998.20001220703125</ele>
        <time>2020-08-18T12:45:08.000Z</time>
      </trkpt>
      <trkpt lat="42.57434117607772350311279296875" lon="-0.29057049192488193511962890625">
        <ele>996</ele>
        <time>2020-08-18T12:45:10.000Z</time>
      </trkpt>
      <trkpt lat="42.574384845793247222900390625" lon="-0.29070359654724597930908203125">
        <ele>995.4000244140625</ele>
        <time>2020-08-18T12:45:12.000Z</time>
      </trkpt>
      <trkpt lat="42.57440303452312946319580078125" lon="-0.29077718965709209442138671875">
        <ele>994.5999755859375</ele>
        <time>2020-08-18T12:45:13.000Z</time>
      </trkpt>
      <trkpt lat="42.57443455047905445098876953125" lon="-0.29092001728713512420654296875">
        <ele>993.4000244140625</ele>
        <time>2020-08-18T12:45:15.000Z</time>
      </trkpt>
      <trkpt lat="42.57445449940860271453857421875" lon="-0.29098724015057086944580078125">
        <ele>993</ele>
        <time>2020-08-18T12:45:16.000Z</time>
      </trkpt>
      <trkpt lat="42.5744785554707050323486328125" lon="-0.2910553850233554840087890625">
        <ele>992.5999755859375</ele>
        <time>2020-08-18T12:45:17.000Z</time>
      </trkpt>
      <trkpt lat="42.5745083950459957122802734375" lon="-0.2911264635622501373291015625">
        <ele>992.20001220703125</ele>
        <time>2020-08-18T12:45:18.000Z</time>
      </trkpt>
      <trkpt lat="42.57457989268004894256591796875" lon="-0.29126903973519802093505859375">
        <ele>991.20001220703125</ele>
        <time>2020-08-18T12:45:20.000Z</time>
      </trkpt>
      <trkpt lat="42.57461828179657459259033203125" lon="-0.2913453988730907440185546875">
        <ele>990.20001220703125</ele>
        <time>2020-08-18T12:45:21.000Z</time>
      </trkpt>
      <trkpt lat="42.57465113885700702667236328125" lon="-0.29142410494387149810791015625">
        <ele>989.4000244140625</ele>
        <time>2020-08-18T12:45:22.000Z</time>
      </trkpt>
      <trkpt lat="42.57468198426067829132080078125" lon="-0.29150423593819141387939453125">
        <ele>988.5999755859375</ele>
        <time>2020-08-18T12:45:23.000Z</time>
      </trkpt>
      <trkpt lat="42.57473495788872241973876953125" lon="-0.29166500084102153778076171875">
        <ele>987.5999755859375</ele>
        <time>2020-08-18T12:45:25.000Z</time>
      </trkpt>
      <trkpt lat="42.57477586157619953155517578125" lon="-0.29183129779994487762451171875">
        <ele>985.79998779296875</ele>
        <time>2020-08-18T12:45:27.000Z</time>
      </trkpt>
      <trkpt lat="42.57478843443095684051513671875" lon="-0.29191352427005767822265625">
        <ele>985.4000244140625</ele>
        <time>2020-08-18T12:45:28.000Z</time>
      </trkpt>
      <trkpt lat="42.57480000145733356475830078125" lon="-0.29206104576587677001953125">
        <ele>984.79998779296875</ele>
        <time>2020-08-18T12:45:30.000Z</time>
      </trkpt>
      <trkpt lat="42.5748094730079174041748046875" lon="-0.2921366505324840545654296875">
        <ele>984.5999755859375</ele>
        <time>2020-08-18T12:45:31.000Z</time>
      </trkpt>
      <trkpt lat="42.57483554072678089141845703125" lon="-0.292282998561859130859375">
        <ele>984</ele>
        <time>2020-08-18T12:45:33.000Z</time>
      </trkpt>
      <trkpt lat="42.57484794594347476959228515625" lon="-0.29235734604299068450927734375">
        <ele>983</ele>
        <time>2020-08-18T12:45:34.000Z</time>
      </trkpt>
      <trkpt lat="42.5748818926513195037841796875" lon="-0.29265188612043857574462890625">
        <ele>982.4000244140625</ele>
        <time>2020-08-18T12:45:38.000Z</time>
      </trkpt>
      <trkpt lat="42.574893124401569366455078125" lon="-0.29272983781993389129638671875">
        <ele>982.4000244140625</ele>
        <time>2020-08-18T12:45:39.000Z</time>
      </trkpt>
      <trkpt lat="42.57491114549338817596435546875" lon="-0.2928896807134151458740234375">
        <ele>981.79998779296875</ele>
        <time>2020-08-18T12:45:41.000Z</time>
      </trkpt>
      <trkpt lat="42.57491231895983219146728515625" lon="-0.293052457273006439208984375">
        <ele>980.20001220703125</ele>
        <time>2020-08-18T12:45:43.000Z</time>
      </trkpt>
      <trkpt lat="42.57489480078220367431640625" lon="-0.29320458881556987762451171875">
        <ele>979.4000244140625</ele>
        <time>2020-08-18T12:45:45.000Z</time>
      </trkpt>
      <trkpt lat="42.57487728260457515716552734375" lon="-0.29335093684494495391845703125">
        <ele>979.20001220703125</ele>
        <time>2020-08-18T12:45:47.000Z</time>
      </trkpt>
      <trkpt lat="42.57488683797419071197509765625" lon="-0.29348337091505527496337890625">
        <ele>979.20001220703125</ele>
        <time>2020-08-18T12:45:49.000Z</time>
      </trkpt>
      <trkpt lat="42.574895806610584259033203125" lon="-0.29354162514209747314453125">
        <ele>979.20001220703125</ele>
        <time>2020-08-18T12:45:50.000Z</time>
      </trkpt>
      <trkpt lat="42.574891112744808197021484375" lon="-0.29365151189267635345458984375">
        <ele>978.5999755859375</ele>
        <time>2020-08-18T12:45:52.000Z</time>
      </trkpt>
      <trkpt lat="42.57487158291041851043701171875" lon="-0.293704904615879058837890625">
        <ele>978.4000244140625</ele>
        <time>2020-08-18T12:45:53.000Z</time>
      </trkpt>
      <trkpt lat="42.57484090514481067657470703125" lon="-0.2937570400536060333251953125">
        <ele>977.79998779296875</ele>
        <time>2020-08-18T12:45:54.000Z</time>
      </trkpt>
      <trkpt lat="42.5747667253017425537109375" lon="-0.29387430287897586822509765625">
        <ele>976.5999755859375</ele>
        <time>2020-08-18T12:45:56.000Z</time>
      </trkpt>
      <trkpt lat="42.574731521308422088623046875" lon="-0.2939365804195404052734375">
        <ele>976</ele>
        <time>2020-08-18T12:45:57.000Z</time>
      </trkpt>
      <trkpt lat="42.574701346457004547119140625" lon="-0.29399718157947063446044921875">
        <ele>975</ele>
        <time>2020-08-18T12:45:58.000Z</time>
      </trkpt>
      <trkpt lat="42.57464141584932804107666015625" lon="-0.2941647358238697052001953125">
        <ele>974.4000244140625</ele>
        <time>2020-08-18T12:46:01.000Z</time>
      </trkpt>
      <trkpt lat="42.57463504560291767120361328125" lon="-0.29433446936309337615966796875">
        <ele>973.79998779296875</ele>
        <time>2020-08-18T12:46:04.000Z</time>
      </trkpt>
      <trkpt lat="42.5746364705264568328857421875" lon="-0.2943883650004863739013671875">
        <ele>973.20001220703125</ele>
        <time>2020-08-18T12:46:05.000Z</time>
      </trkpt>
      <trkpt lat="42.57463940419256687164306640625" lon="-0.29444008134305477142333984375">
        <ele>972.79998779296875</ele>
        <time>2020-08-18T12:46:06.000Z</time>
      </trkpt>
      <trkpt lat="42.57464158348739147186279296875" lon="-0.2944919653236865997314453125">
        <ele>972.5999755859375</ele>
        <time>2020-08-18T12:46:07.000Z</time>
      </trkpt>
      <trkpt lat="42.5745989196002483367919921875" lon="-0.29473931528627872467041015625">
        <ele>972</ele>
        <time>2020-08-18T12:46:12.000Z</time>
      </trkpt>
      <trkpt lat="42.57457050494849681854248046875" lon="-0.2947814762592315673828125">
        <ele>971.5999755859375</ele>
        <time>2020-08-18T12:46:13.000Z</time>
      </trkpt>
      <trkpt lat="42.57450462318956851959228515625" lon="-0.29484928585588932037353515625">
        <ele>970.20001220703125</ele>
        <time>2020-08-18T12:46:15.000Z</time>
      </trkpt>
      <trkpt lat="42.574396915733814239501953125" lon="-0.29495037160813808441162109375">
        <ele>969.20001220703125</ele>
        <time>2020-08-18T12:46:18.000Z</time>
      </trkpt>
      <trkpt lat="42.5743380747735500335693359375" lon="-0.29503016732633113861083984375">
        <ele>967.5999755859375</ele>
        <time>2020-08-18T12:46:20.000Z</time>
      </trkpt>
      <trkpt lat="42.57429205812513828277587890625" lon="-0.29511415399610996246337890625">
        <ele>966.4000244140625</ele>
        <time>2020-08-18T12:46:22.000Z</time>
      </trkpt>
      <trkpt lat="42.57427395321428775787353515625" lon="-0.295158661901950836181640625">
        <ele>966</ele>
        <time>2020-08-18T12:46:23.000Z</time>
      </trkpt>
      <trkpt lat="42.57425869815051555633544921875" lon="-0.29521456919610500335693359375">
        <ele>966</ele>
        <time>2020-08-18T12:46:24.000Z</time>
      </trkpt>
      <trkpt lat="42.57422148250043392181396484375" lon="-0.29539377428591251373291015625">
        <ele>965.79998779296875</ele>
        <time>2020-08-18T12:46:27.000Z</time>
      </trkpt>
      <trkpt lat="42.57415962405502796173095703125" lon="-0.295475833117961883544921875">
        <ele>965</ele>
        <time>2020-08-18T12:46:29.000Z</time>
      </trkpt>
      <trkpt lat="42.57411788217723369598388671875" lon="-0.29550072737038135528564453125">
        <ele>965</ele>
        <time>2020-08-18T12:46:30.000Z</time>
      </trkpt>
      <trkpt lat="42.57395602762699127197265625" lon="-0.29553182423114776611328125">
        <ele>964</ele>
        <time>2020-08-18T12:46:34.000Z</time>
      </trkpt>
      <trkpt lat="42.57387765683233737945556640625" lon="-0.2955460734665393829345703125">
        <ele>963.5999755859375</ele>
        <time>2020-08-18T12:46:36.000Z</time>
      </trkpt>
      <trkpt lat="42.57379752583801746368408203125" lon="-0.29557197354733943939208984375">
        <ele>962.4000244140625</ele>
        <time>2020-08-18T12:46:38.000Z</time>
      </trkpt>
      <trkpt lat="42.573725022375583648681640625" lon="-0.29561287723481655120849609375">
        <ele>962</ele>
        <time>2020-08-18T12:46:40.000Z</time>
      </trkpt>
      <trkpt lat="42.57359585724771022796630859375" lon="-0.295706503093242645263671875">
        <ele>960.79998779296875</ele>
        <time>2020-08-18T12:46:44.000Z</time>
      </trkpt>
      <trkpt lat="42.57351689971983432769775390625" lon="-0.29574447311460971832275390625">
        <ele>958.79998779296875</ele>
        <time>2020-08-18T12:46:46.000Z</time>
      </trkpt>
      <trkpt lat="42.57338848896324634552001953125" lon="-0.2958087623119354248046875">
        <ele>958</ele>
        <time>2020-08-18T12:46:49.000Z</time>
      </trkpt>
      <trkpt lat="42.57334724999964237213134765625" lon="-0.2958226762712001800537109375">
        <ele>957.5999755859375</ele>
        <time>2020-08-18T12:46:50.000Z</time>
      </trkpt>
      <trkpt lat="42.5732056796550750732421875" lon="-0.2958270348608493804931640625">
        <ele>956.4000244140625</ele>
        <time>2020-08-18T12:46:53.000Z</time>
      </trkpt>
      <trkpt lat="42.5731579028069972991943359375" lon="-0.2958079241216182708740234375">
        <ele>955.5999755859375</ele>
        <time>2020-08-18T12:46:54.000Z</time>
      </trkpt>
      <trkpt lat="42.5731133110821247100830078125" lon="-0.29577682726085186004638671875">
        <ele>955.4000244140625</ele>
        <time>2020-08-18T12:46:55.000Z</time>
      </trkpt>
      <trkpt lat="42.57307282648980617523193359375" lon="-0.29574564658105373382568359375">
        <ele>955.20001220703125</ele>
        <time>2020-08-18T12:46:56.000Z</time>
      </trkpt>
      <trkpt lat="42.572995461523532867431640625" lon="-0.29571178369224071502685546875">
        <ele>955</ele>
        <time>2020-08-18T12:46:58.000Z</time>
      </trkpt>
      <trkpt lat="42.57293469272553920745849609375" lon="-0.29573240317404270172119140625">
        <ele>954</ele>
        <time>2020-08-18T12:47:00.000Z</time>
      </trkpt>
      <trkpt lat="42.57291524671018123626708984375" lon="-0.2957603149116039276123046875">
        <ele>953.4000244140625</ele>
        <time>2020-08-18T12:47:01.000Z</time>
      </trkpt>
      <trkpt lat="42.57290669716894626617431640625" lon="-0.29582628048956394195556640625">
        <ele>952.4000244140625</ele>
        <time>2020-08-18T12:47:03.000Z</time>
      </trkpt>
      <trkpt lat="42.57291792891919612884521484375" lon="-0.29586081393063068389892578125">
        <ele>952</ele>
        <time>2020-08-18T12:47:04.000Z</time>
      </trkpt>
      <trkpt lat="42.5729607604444026947021484375" lon="-0.2959128655493259429931640625">
        <ele>951.4000244140625</ele>
        <time>2020-08-18T12:47:06.000Z</time>
      </trkpt>
      <trkpt lat="42.57302127778530120849609375" lon="-0.29594513587653636932373046875">
        <ele>950.79998779296875</ele>
        <time>2020-08-18T12:47:08.000Z</time>
      </trkpt>
      <trkpt lat="42.57311574183404445648193359375" lon="-0.29600196518003940582275390625">
        <ele>950.4000244140625</ele>
        <time>2020-08-18T12:47:11.000Z</time>
      </trkpt>
      <trkpt lat="42.573149017989635467529296875" lon="-0.29601789079606533050537109375">
        <ele>950.20001220703125</ele>
        <time>2020-08-18T12:47:12.000Z</time>
      </trkpt>
      <trkpt lat="42.57321598939597606658935546875" lon="-0.2960499934852123260498046875">
        <ele>949.4000244140625</ele>
        <time>2020-08-18T12:47:14.000Z</time>
      </trkpt>
      <trkpt lat="42.5733625888824462890625" lon="-0.29607907868921756744384765625">
        <ele>948</ele>
        <time>2020-08-18T12:47:18.000Z</time>
      </trkpt>
      <trkpt lat="42.57340055890381336212158203125" lon="-0.29607857577502727508544921875">
        <ele>947.20001220703125</ele>
        <time>2020-08-18T12:47:19.000Z</time>
      </trkpt>
      <trkpt lat="42.573440372943878173828125" lon="-0.29607974924147129058837890625">
        <ele>946.4000244140625</ele>
        <time>2020-08-18T12:47:20.000Z</time>
      </trkpt>
      <trkpt lat="42.57356937043368816375732421875" lon="-0.2960771508514881134033203125">
        <ele>945.20001220703125</ele>
        <time>2020-08-18T12:47:23.000Z</time>
      </trkpt>
      <trkpt lat="42.57366911508142948150634765625" lon="-0.296086706221103668212890625">
        <ele>944.5999755859375</ele>
        <time>2020-08-18T12:47:25.000Z</time>
      </trkpt>
      <trkpt lat="42.5737741403281688690185546875" lon="-0.2960986085236072540283203125">
        <ele>944</ele>
        <time>2020-08-18T12:47:27.000Z</time>
      </trkpt>
      <trkpt lat="42.57382485084235668182373046875" lon="-0.296098105609416961669921875">
        <ele>943.79998779296875</ele>
        <time>2020-08-18T12:47:28.000Z</time>
      </trkpt>
      <trkpt lat="42.573976479470729827880859375" lon="-0.29611914418637752532958984375">
        <ele>943</ele>
        <time>2020-08-18T12:47:31.000Z</time>
      </trkpt>
      <trkpt lat="42.574026100337505340576171875" lon="-0.2961364947259426116943359375">
        <ele>943</ele>
        <time>2020-08-18T12:47:32.000Z</time>
      </trkpt>
      <trkpt lat="42.57407396100461483001708984375" lon="-0.296155773103237152099609375">
        <ele>942.79998779296875</ele>
        <time>2020-08-18T12:47:33.000Z</time>
      </trkpt>
      <trkpt lat="42.57420949637889862060546875" lon="-0.29622383415699005126953125">
        <ele>941.79998779296875</ele>
        <time>2020-08-18T12:47:36.000Z</time>
      </trkpt>
      <trkpt lat="42.57425785996019840240478515625" lon="-0.2962488122284412384033203125">
        <ele>940.5999755859375</ele>
        <time>2020-08-18T12:47:37.000Z</time>
      </trkpt>
      <trkpt lat="42.57436045445501804351806640625" lon="-0.29629533179104328155517578125">
        <ele>939.5999755859375</ele>
        <time>2020-08-18T12:47:39.000Z</time>
      </trkpt>
      <trkpt lat="42.57445852272212505340576171875" lon="-0.29633355326950550079345703125">
        <ele>939.20001220703125</ele>
        <time>2020-08-18T12:47:41.000Z</time>
      </trkpt>
      <trkpt lat="42.57450722157955169677734375" lon="-0.2963463775813579559326171875">
        <ele>939.20001220703125</ele>
        <time>2020-08-18T12:47:42.000Z</time>
      </trkpt>
      <trkpt lat="42.5747112371027469635009765625" lon="-0.296419970691204071044921875">
        <ele>938.79998779296875</ele>
        <time>2020-08-18T12:47:46.000Z</time>
      </trkpt>
      <trkpt lat="42.574811987578868865966796875" lon="-0.29643380083143711090087890625">
        <ele>938.79998779296875</ele>
        <time>2020-08-18T12:47:48.000Z</time>
      </trkpt>
      <trkpt lat="42.57485917769372463226318359375" lon="-0.29642768204212188720703125">
        <ele>938.4000244140625</ele>
        <time>2020-08-18T12:47:49.000Z</time>
      </trkpt>
      <trkpt lat="42.57489991374313831329345703125" lon="-0.29640329070389270782470703125">
        <ele>938.20001220703125</ele>
        <time>2020-08-18T12:47:50.000Z</time>
      </trkpt>
      <trkpt lat="42.57501038722693920135498046875" lon="-0.29626046307384967803955078125">
        <ele>938.4000244140625</ele>
        <time>2020-08-18T12:47:53.000Z</time>
      </trkpt>
      <trkpt lat="42.5750495307147502899169921875" lon="-0.2962082438170909881591796875">
        <ele>938</ele>
        <time>2020-08-18T12:47:54.000Z</time>
      </trkpt>
      <trkpt lat="42.575088925659656524658203125" lon="-0.2961606346070766448974609375">
        <ele>937.4000244140625</ele>
        <time>2020-08-18T12:47:55.000Z</time>
      </trkpt>
      <trkpt lat="42.5751930288970470428466796875" lon="-0.2960412763059139251708984375">
        <ele>936</ele>
        <time>2020-08-18T12:47:58.000Z</time>
      </trkpt>
      <trkpt lat="42.57523150183260440826416015625" lon="-0.29600582085549831390380859375">
        <ele>935.79998779296875</ele>
        <time>2020-08-18T12:47:59.000Z</time>
      </trkpt>
      <trkpt lat="42.575261928141117095947265625" lon="-0.29596273787319660186767578125">
        <ele>935.79998779296875</ele>
        <time>2020-08-18T12:48:00.000Z</time>
      </trkpt>
      <trkpt lat="42.57531062699854373931884765625" lon="-0.2958545275032520294189453125">
        <ele>935.4000244140625</ele>
        <time>2020-08-18T12:48:02.000Z</time>
      </trkpt>
      <trkpt lat="42.57533007301390171051025390625" lon="-0.29579208232462406158447265625">
        <ele>934.4000244140625</ele>
        <time>2020-08-18T12:48:03.000Z</time>
      </trkpt>
      <trkpt lat="42.57535572163760662078857421875" lon="-0.29566568322479724884033203125">
        <ele>933.20001220703125</ele>
        <time>2020-08-18T12:48:05.000Z</time>
      </trkpt>
      <trkpt lat="42.5753697194159030914306640625" lon="-0.2956091053783893585205078125">
        <ele>932.79998779296875</ele>
        <time>2020-08-18T12:48:06.000Z</time>
      </trkpt>
      <trkpt lat="42.5754183344542980194091796875" lon="-0.2954967878758907318115234375">
        <ele>932</ele>
        <time>2020-08-18T12:48:08.000Z</time>
      </trkpt>
      <trkpt lat="42.5754525326192378997802734375" lon="-0.29543702490627765655517578125">
        <ele>931.5999755859375</ele>
        <time>2020-08-18T12:48:09.000Z</time>
      </trkpt>
      <trkpt lat="42.57548622786998748779296875" lon="-0.295378603041172027587890625">
        <ele>930.79998779296875</ele>
        <time>2020-08-18T12:48:10.000Z</time>
      </trkpt>
      <trkpt lat="42.57552838884294033050537109375" lon="-0.2953221090137958526611328125">
        <ele>929.4000244140625</ele>
        <time>2020-08-18T12:48:11.000Z</time>
      </trkpt>
      <trkpt lat="42.57557231001555919647216796875" lon="-0.29526787810027599334716796875">
        <ele>928.4000244140625</ele>
        <time>2020-08-18T12:48:12.000Z</time>
      </trkpt>
      <trkpt lat="42.5756637565791606903076171875" lon="-0.29516360722482204437255859375">
        <ele>927.20001220703125</ele>
        <time>2020-08-18T12:48:14.000Z</time>
      </trkpt>
      <trkpt lat="42.57575687952339649200439453125" lon="-0.29506771825253963470458984375">
        <ele>926.4000244140625</ele>
        <time>2020-08-18T12:48:16.000Z</time>
      </trkpt>
      <trkpt lat="42.5757966935634613037109375" lon="-0.2950270660221576690673828125">
        <ele>926</ele>
        <time>2020-08-18T12:48:17.000Z</time>
      </trkpt>
      <trkpt lat="42.57589149288833141326904296875" lon="-0.2949425764381885528564453125">
        <ele>925.4000244140625</ele>
        <time>2020-08-18T12:48:20.000Z</time>
      </trkpt>
      <trkpt lat="42.5759173929691314697265625" lon="-0.29492170549929141998291015625">
        <ele>925</ele>
        <time>2020-08-18T12:48:21.000Z</time>
      </trkpt>
      <trkpt lat="42.57601705379784107208251953125" lon="-0.2949140779674053192138671875">
        <ele>923.79998779296875</ele>
        <time>2020-08-18T12:48:25.000Z</time>
      </trkpt>
      <trkpt lat="42.57612727582454681396484375" lon="-0.29498389922082424163818359375">
        <ele>923.20001220703125</ele>
        <time>2020-08-18T12:48:30.000Z</time>
      </trkpt>
      <trkpt lat="42.5762293674051761627197265625" lon="-0.295067131519317626953125">
        <ele>922.5999755859375</ele>
        <time>2020-08-18T12:48:35.000Z</time>
      </trkpt>
      <trkpt lat="42.5762478075921535491943359375" lon="-0.29508179984986782073974609375">
        <ele>922.5999755859375</ele>
        <time>2020-08-18T12:48:36.000Z</time>
      </trkpt>
      <trkpt lat="42.57630706764757633209228515625" lon="-0.29521775431931018829345703125">
        <ele>922.5999755859375</ele>
        <time>2020-08-18T12:48:41.000Z</time>
      </trkpt>
      <trkpt lat="42.576251663267612457275390625" lon="-0.2953754179179668426513671875">
        <ele>922.5999755859375</ele>
        <time>2020-08-18T12:48:46.000Z</time>
      </trkpt>
      <trkpt lat="42.5761784054338932037353515625" lon="-0.2955098636448383331298828125">
        <ele>921.4000244140625</ele>
        <time>2020-08-18T12:48:50.000Z</time>
      </trkpt>
      <trkpt lat="42.57614211179316043853759765625" lon="-0.2956255339086055755615234375">
        <ele>921</ele>
        <time>2020-08-18T12:48:53.000Z</time>
      </trkpt>
      <trkpt lat="42.576082013547420501708984375" lon="-0.2958302199840545654296875">
        <ele>920.4000244140625</ele>
        <time>2020-08-18T12:48:58.000Z</time>
      </trkpt>
      <trkpt lat="42.57605192251503467559814453125" lon="-0.29590825550258159637451171875">
        <ele>920</ele>
        <time>2020-08-18T12:49:00.000Z</time>
      </trkpt>
      <trkpt lat="42.5760171376168727874755859375" lon="-0.2959990315139293670654296875">
        <ele>919.20001220703125</ele>
        <time>2020-08-18T12:49:02.000Z</time>
      </trkpt>
      <trkpt lat="42.575911022722721099853515625" lon="-0.296227522194385528564453125">
        <ele>918.20001220703125</ele>
        <time>2020-08-18T12:49:07.000Z</time>
      </trkpt>
      <trkpt lat="42.5758263655006885528564453125" lon="-0.29646255075931549072265625">
        <ele>917</ele>
        <time>2020-08-18T12:49:12.000Z</time>
      </trkpt>
      <trkpt lat="42.57580138742923736572265625" lon="-0.29655919410288333892822265625">
        <ele>916.4000244140625</ele>
        <time>2020-08-18T12:49:14.000Z</time>
      </trkpt>
      <trkpt lat="42.57578504271805286407470703125" lon="-0.296609401702880859375">
        <ele>915.79998779296875</ele>
        <time>2020-08-18T12:49:15.000Z</time>
      </trkpt>
      <trkpt lat="42.57567465305328369140625" lon="-0.29686429537832736968994140625">
        <ele>915.5999755859375</ele>
        <time>2020-08-18T12:49:20.000Z</time>
      </trkpt>
      <trkpt lat="42.5755606591701507568359375" lon="-0.29705339111387729644775390625">
        <ele>914.4000244140625</ele>
        <time>2020-08-18T12:49:24.000Z</time>
      </trkpt>
      <trkpt lat="42.5754585675895214080810546875" lon="-0.29718062840402126312255859375">
        <ele>914.20001220703125</ele>
        <time>2020-08-18T12:49:27.000Z</time>
      </trkpt>
      <trkpt lat="42.57542478851974010467529296875" lon="-0.2972211129963397979736328125">
        <ele>914.20001220703125</ele>
        <time>2020-08-18T12:49:28.000Z</time>
      </trkpt>
      <trkpt lat="42.57527743466198444366455078125" lon="-0.29733963310718536376953125">
        <ele>913.5999755859375</ele>
        <time>2020-08-18T12:49:32.000Z</time>
      </trkpt>
      <trkpt lat="42.575203590095043182373046875" lon="-0.29738657176494598388671875">
        <ele>913</ele>
        <time>2020-08-18T12:49:34.000Z</time>
      </trkpt>
      <trkpt lat="42.5751315057277679443359375" lon="-0.2974403835833072662353515625">
        <ele>912.79998779296875</ele>
        <time>2020-08-18T12:49:36.000Z</time>
      </trkpt>
      <trkpt lat="42.575035281479358673095703125" lon="-0.29753887094557285308837890625">
        <ele>912.4000244140625</ele>
        <time>2020-08-18T12:49:39.000Z</time>
      </trkpt>
      <trkpt lat="42.57500468753278255462646484375" lon="-0.29757323674857616424560546875">
        <ele>911.79998779296875</ele>
        <time>2020-08-18T12:49:40.000Z</time>
      </trkpt>
      <trkpt lat="42.57487895898520946502685546875" lon="-0.297771133482456207275390625">
        <ele>911.5999755859375</ele>
        <time>2020-08-18T12:49:45.000Z</time>
      </trkpt>
      <trkpt lat="42.57485163398087024688720703125" lon="-0.29781497083604335784912109375">
        <ele>911.20001220703125</ele>
        <time>2020-08-18T12:49:46.000Z</time>
      </trkpt>
      <trkpt lat="42.57482497952878475189208984375" lon="-0.29786593280732631683349609375">
        <ele>910.79998779296875</ele>
        <time>2020-08-18T12:49:47.000Z</time>
      </trkpt>
      <trkpt lat="42.57474124431610107421875" lon="-0.29802686534821987152099609375">
        <ele>910</ele>
        <time>2020-08-18T12:49:50.000Z</time>
      </trkpt>
      <trkpt lat="42.57470972836017608642578125" lon="-0.298073552548885345458984375">
        <ele>909.5999755859375</ele>
        <time>2020-08-18T12:49:51.000Z</time>
      </trkpt>
      <trkpt lat="42.57461291737854480743408203125" lon="-0.29820741154253482818603515625">
        <ele>908.4000244140625</ele>
        <time>2020-08-18T12:49:54.000Z</time>
      </trkpt>
      <trkpt lat="42.5745432637631893157958984375" lon="-0.29829072766005992889404296875">
        <ele>908.20001220703125</ele>
        <time>2020-08-18T12:49:56.000Z</time>
      </trkpt>
      <trkpt lat="42.5743182934820652008056640625" lon="-0.2984663285315036773681640625">
        <ele>907.5999755859375</ele>
        <time>2020-08-18T12:50:02.000Z</time>
      </trkpt>
      <trkpt lat="42.57428233511745929718017578125" lon="-0.29849692247807979583740234375">
        <ele>907.5999755859375</ele>
        <time>2020-08-18T12:50:03.000Z</time>
      </trkpt>
      <trkpt lat="42.5741513259708881378173828125" lon="-0.2986212261021137237548828125">
        <ele>907.4000244140625</ele>
        <time>2020-08-18T12:50:07.000Z</time>
      </trkpt>
      <trkpt lat="42.5741221569478511810302734375" lon="-0.29864746145904064178466796875">
        <ele>907</ele>
        <time>2020-08-18T12:50:08.000Z</time>
      </trkpt>
      <trkpt lat="42.574094496667385101318359375" lon="-0.29867009259760379791259765625">
        <ele>906.20001220703125</ele>
        <time>2020-08-18T12:50:09.000Z</time>
      </trkpt>
      <trkpt lat="42.57398729212582111358642578125" lon="-0.298770256340503692626953125">
        <ele>907</ele>
        <time>2020-08-18T12:50:14.000Z</time>
      </trkpt>
      <trkpt lat="42.57396734319627285003662109375" lon="-0.298789031803607940673828125">
        <ele>907.5999755859375</ele>
        <time>2020-08-18T12:50:15.000Z</time>
      </trkpt>
      <trkpt lat="42.57389090023934841156005859375" lon="-0.29887444339692592620849609375">
        <ele>908.4000244140625</ele>
        <time>2020-08-18T12:50:21.000Z</time>
      </trkpt>
      <trkpt lat="42.5738834403455257415771484375" lon="-0.29888215474784374237060546875">
        <ele>908</ele>
        <time>2020-08-18T12:50:31.000Z</time>
      </trkpt>
      <trkpt lat="42.57382535375654697418212890625" lon="-0.29899028129875659942626953125">
        <ele>907.5999755859375</ele>
        <time>2020-08-18T12:50:37.000Z</time>
      </trkpt>
      <trkpt lat="42.57378361187875270843505859375" lon="-0.299197733402252197265625">
        <ele>906.79998779296875</ele>
        <time>2020-08-18T12:50:42.000Z</time>
      </trkpt>
      <trkpt lat="42.5737796723842620849609375" lon="-0.2992522157728672027587890625">
        <ele>906.20001220703125</ele>
        <time>2020-08-18T12:50:43.000Z</time>
      </trkpt>
      <trkpt lat="42.5737647525966167449951171875" lon="-0.2994557283818721771240234375">
        <ele>905</ele>
        <time>2020-08-18T12:50:46.000Z</time>
      </trkpt>
      <trkpt lat="42.5737555325031280517578125" lon="-0.29953041113913059234619140625">
        <ele>904.79998779296875</ele>
        <time>2020-08-18T12:50:47.000Z</time>
      </trkpt>
      <trkpt lat="42.57373969070613384246826171875" lon="-0.2996847219765186309814453125">
        <ele>904</ele>
        <time>2020-08-18T12:50:49.000Z</time>
      </trkpt>
      <trkpt lat="42.57373231463134288787841796875" lon="-0.299937017261981964111328125">
        <ele>902.5999755859375</ele>
        <time>2020-08-18T12:50:52.000Z</time>
      </trkpt>
      <trkpt lat="42.57373214699327945709228515625" lon="-0.30001706443727016448974609375">
        <ele>902</ele>
        <time>2020-08-18T12:50:53.000Z</time>
      </trkpt>
      <trkpt lat="42.57373466156423091888427734375" lon="-0.30009333975613117218017578125">
        <ele>900.4000244140625</ele>
        <time>2020-08-18T12:50:54.000Z</time>
      </trkpt>
      <trkpt lat="42.57375125773251056671142578125" lon="-0.30030992813408374786376953125">
        <ele>899.20001220703125</ele>
        <time>2020-08-18T12:50:57.000Z</time>
      </trkpt>
      <trkpt lat="42.57375578396022319793701171875" lon="-0.30037748627364635467529296875">
        <ele>898.4000244140625</ele>
        <time>2020-08-18T12:50:58.000Z</time>
      </trkpt>
      <trkpt lat="42.57375259883701801300048828125" lon="-0.30044722370803356170654296875">
        <ele>897.5999755859375</ele>
        <time>2020-08-18T12:50:59.000Z</time>
      </trkpt>
      <trkpt lat="42.57368755526840686798095703125" lon="-0.3007857687771320343017578125">
        <ele>897.4000244140625</ele>
        <time>2020-08-18T12:51:04.000Z</time>
      </trkpt>
      <trkpt lat="42.57366634905338287353515625" lon="-0.3008521534502506256103515625">
        <ele>897.5999755859375</ele>
        <time>2020-08-18T12:51:05.000Z</time>
      </trkpt>
      <trkpt lat="42.5736225955188274383544921875" lon="-0.30097394250333309173583984375">
        <ele>896.4000244140625</ele>
        <time>2020-08-18T12:51:07.000Z</time>
      </trkpt>
      <trkpt lat="42.57356836460530757904052734375" lon="-0.30113051645457744598388671875">
        <ele>895.5999755859375</ele>
        <time>2020-08-18T12:51:10.000Z</time>
      </trkpt>
      <trkpt lat="42.5735417939722537994384765625" lon="-0.30124719254672527313232421875">
        <ele>895.79998779296875</ele>
        <time>2020-08-18T12:51:12.000Z</time>
      </trkpt>
      <trkpt lat="42.5735146366059780120849609375" lon="-0.30147886835038661956787109375">
        <ele>895.5999755859375</ele>
        <time>2020-08-18T12:51:16.000Z</time>
      </trkpt>
      <trkpt lat="42.57349745370447635650634765625" lon="-0.3017409704625606536865234375">
        <ele>895.79998779296875</ele>
        <time>2020-08-18T12:51:21.000Z</time>
      </trkpt>
      <trkpt lat="42.5734953582286834716796875" lon="-0.301850773394107818603515625">
        <ele>895.20001220703125</ele>
        <time>2020-08-18T12:51:23.000Z</time>
      </trkpt>
      <trkpt lat="42.573496364057064056396484375" lon="-0.301992930471897125244140625">
        <ele>894</ele>
        <time>2020-08-18T12:51:25.000Z</time>
      </trkpt>
      <trkpt lat="42.57349468767642974853515625" lon="-0.30207549221813678741455078125">
        <ele>893.79998779296875</ele>
        <time>2020-08-18T12:51:26.000Z</time>
      </trkpt>
      <trkpt lat="42.57348873652517795562744140625" lon="-0.30215956270694732666015625">
        <ele>893.79998779296875</ele>
        <time>2020-08-18T12:51:27.000Z</time>
      </trkpt>
      <trkpt lat="42.5734631717205047607421875" lon="-0.3023156337440013885498046875">
        <ele>893.4000244140625</ele>
        <time>2020-08-18T12:51:29.000Z</time>
      </trkpt>
      <trkpt lat="42.57344372570514678955078125" lon="-0.3023873828351497650146484375">
        <ele>892.5999755859375</ele>
        <time>2020-08-18T12:51:30.000Z</time>
      </trkpt>
      <trkpt lat="42.5734217651188373565673828125" lon="-0.30245862901210784912109375">
        <ele>892.79998779296875</ele>
        <time>2020-08-18T12:51:31.000Z</time>
      </trkpt>
      <trkpt lat="42.573333419859409332275390625" lon="-0.30276062898337841033935546875">
        <ele>891.5999755859375</ele>
        <time>2020-08-18T12:51:35.000Z</time>
      </trkpt>
      <trkpt lat="42.573287822306156158447265625" lon="-0.30291192233562469482421875">
        <ele>891.20001220703125</ele>
        <time>2020-08-18T12:51:37.000Z</time>
      </trkpt>
      <trkpt lat="42.5732467509806156158447265625" lon="-0.30304930172860622406005859375">
        <ele>890</ele>
        <time>2020-08-18T12:51:39.000Z</time>
      </trkpt>
      <trkpt lat="42.57323057390749454498291015625" lon="-0.30311518348753452301025390625">
        <ele>889.4000244140625</ele>
        <time>2020-08-18T12:51:40.000Z</time>
      </trkpt>
      <trkpt lat="42.57321531884372234344482421875" lon="-0.30324828810989856719970703125">
        <ele>889.4000244140625</ele>
        <time>2020-08-18T12:51:42.000Z</time>
      </trkpt>
      <trkpt lat="42.5732185877859592437744140625" lon="-0.30338508076965808868408203125">
        <ele>889.79998779296875</ele>
        <time>2020-08-18T12:51:44.000Z</time>
      </trkpt>
      <trkpt lat="42.573247253894805908203125" lon="-0.3036703169345855712890625">
        <ele>889</ele>
        <time>2020-08-18T12:51:48.000Z</time>
      </trkpt>
      <trkpt lat="42.5732564739882946014404296875" lon="-0.303741395473480224609375">
        <ele>888.79998779296875</ele>
        <time>2020-08-18T12:51:49.000Z</time>
      </trkpt>
      <trkpt lat="42.5732712261378765106201171875" lon="-0.30388288199901580810546875">
        <ele>887.4000244140625</ele>
        <time>2020-08-18T12:51:51.000Z</time>
      </trkpt>
      <trkpt lat="42.573281787335872650146484375" lon="-0.3040258772671222686767578125">
        <ele>886.20001220703125</ele>
        <time>2020-08-18T12:51:53.000Z</time>
      </trkpt>
      <trkpt lat="42.57330265827476978302001953125" lon="-0.30416359193623065948486328125">
        <ele>885.5999755859375</ele>
        <time>2020-08-18T12:51:55.000Z</time>
      </trkpt>
      <trkpt lat="42.57333383895456790924072265625" lon="-0.3044369257986545562744140625">
        <ele>885.4000244140625</ele>
        <time>2020-08-18T12:51:59.000Z</time>
      </trkpt>
      <trkpt lat="42.5733221881091594696044921875" lon="-0.30456759966909885406494140625">
        <ele>885</ele>
        <time>2020-08-18T12:52:01.000Z</time>
      </trkpt>
      <trkpt lat="42.57330047897994518280029296875" lon="-0.30468544922769069671630859375">
        <ele>884.20001220703125</ele>
        <time>2020-08-18T12:52:03.000Z</time>
      </trkpt>
      <trkpt lat="42.57327952422201633453369140625" lon="-0.30480631627142429351806640625">
        <ele>883.79998779296875</ele>
        <time>2020-08-18T12:52:05.000Z</time>
      </trkpt>
      <trkpt lat="42.5732702203094959259033203125" lon="-0.30493238009512424468994140625">
        <ele>883.79998779296875</ele>
        <time>2020-08-18T12:52:07.000Z</time>
      </trkpt>
      <trkpt lat="42.57322722114622592926025390625" lon="-0.3052560053765773773193359375">
        <ele>884.20001220703125</ele>
        <time>2020-08-18T12:52:13.000Z</time>
      </trkpt>
      <trkpt lat="42.573201321065425872802734375" lon="-0.3053495474159717559814453125">
        <ele>882.79998779296875</ele>
        <time>2020-08-18T12:52:15.000Z</time>
      </trkpt>
      <trkpt lat="42.57315698079764842987060546875" lon="-0.3055973164737224578857421875">
        <ele>882.4000244140625</ele>
        <time>2020-08-18T12:52:20.000Z</time>
      </trkpt>
      <trkpt lat="42.57314608432352542877197265625" lon="-0.30570871196687221527099609375">
        <ele>881.79998779296875</ele>
        <time>2020-08-18T12:52:22.000Z</time>
      </trkpt>
      <trkpt lat="42.573131583631038665771484375" lon="-0.30581901781260967254638671875">
        <ele>880.4000244140625</ele>
        <time>2020-08-18T12:52:24.000Z</time>
      </trkpt>
      <trkpt lat="42.57309076376259326934814453125" lon="-0.30603024177253246307373046875">
        <ele>879.4000244140625</ele>
        <time>2020-08-18T12:52:28.000Z</time>
      </trkpt>
      <trkpt lat="42.5730214454233646392822265625" lon="-0.3063707984983921051025390625">
        <ele>880.5999755859375</ele>
        <time>2020-08-18T12:52:35.000Z</time>
      </trkpt>
      <trkpt lat="42.57300384342670440673828125" lon="-0.30657372437417507171630859375">
        <ele>879.5999755859375</ele>
        <time>2020-08-18T12:52:39.000Z</time>
      </trkpt>
      <trkpt lat="42.57300392724573612213134765625" lon="-0.30663080513477325439453125">
        <ele>878.79998779296875</ele>
        <time>2020-08-18T12:52:40.000Z</time>
      </trkpt>
      <trkpt lat="42.5730063579976558685302734375" lon="-0.30668972991406917572021484375">
        <ele>878.5999755859375</ele>
        <time>2020-08-18T12:52:41.000Z</time>
      </trkpt>
      <trkpt lat="42.5730127282440662384033203125" lon="-0.30674857087433338165283203125">
        <ele>878.4000244140625</ele>
        <time>2020-08-18T12:52:42.000Z</time>
      </trkpt>
      <trkpt lat="42.5730616785585880279541015625" lon="-0.306895337998867034912109375">
        <ele>877.79998779296875</ele>
        <time>2020-08-18T12:52:45.000Z</time>
      </trkpt>
      <trkpt lat="42.573091350495815277099609375" lon="-0.30704864300787448883056640625">
        <ele>877.5999755859375</ele>
        <time>2020-08-18T12:52:48.000Z</time>
      </trkpt>
      <trkpt lat="42.573090009391307830810546875" lon="-0.3071094118058681488037109375">
        <ele>877.5999755859375</ele>
        <time>2020-08-18T12:52:49.000Z</time>
      </trkpt>
      <trkpt lat="42.5730662047863006591796875" lon="-0.3074359707534313201904296875">
        <ele>876.5999755859375</ele>
        <time>2020-08-18T12:52:54.000Z</time>
      </trkpt>
      <trkpt lat="42.57306830026209354400634765625" lon="-0.30756245367228984832763671875">
        <ele>875.20001220703125</ele>
        <time>2020-08-18T12:52:56.000Z</time>
      </trkpt>
      <trkpt lat="42.57307718507945537567138671875" lon="-0.3078094683587551116943359375">
        <ele>874.20001220703125</ele>
        <time>2020-08-18T12:53:00.000Z</time>
      </trkpt>
      <trkpt lat="42.5731035880744457244873046875" lon="-0.30803762376308441162109375">
        <ele>874.4000244140625</ele>
        <time>2020-08-18T12:53:04.000Z</time>
      </trkpt>
      <trkpt lat="42.57307953201234340667724609375" lon="-0.30819579027593135833740234375">
        <ele>873.79998779296875</ele>
        <time>2020-08-18T12:53:08.000Z</time>
      </trkpt>
      <trkpt lat="42.572959922254085540771484375" lon="-0.30839259736239910125732421875">
        <ele>873.79998779296875</ele>
        <time>2020-08-18T12:53:14.000Z</time>
      </trkpt>
      <trkpt lat="42.57293402217328548431396484375" lon="-0.3084226883947849273681640625">
        <ele>873.20001220703125</ele>
        <time>2020-08-18T12:53:15.000Z</time>
      </trkpt>
      <trkpt lat="42.57279932498931884765625" lon="-0.3086027316749095916748046875">
        <ele>872.79998779296875</ele>
        <time>2020-08-18T12:53:21.000Z</time>
      </trkpt>
      <trkpt lat="42.57265674881637096405029296875" lon="-0.30884069390594959259033203125">
        <ele>872.20001220703125</ele>
        <time>2020-08-18T12:53:28.000Z</time>
      </trkpt>
      <trkpt lat="42.5726184435188770294189453125" lon="-0.30890339054167270660400390625">
        <ele>872</ele>
        <time>2020-08-18T12:53:30.000Z</time>
      </trkpt>
      <trkpt lat="42.5724357180297374725341796875" lon="-0.309206061065196990966796875">
        <ele>871.4000244140625</ele>
        <time>2020-08-18T12:53:39.000Z</time>
      </trkpt>
      <trkpt lat="42.57237075828015804290771484375" lon="-0.30931594781577587127685546875">
        <ele>870.4000244140625</ele>
        <time>2020-08-18T12:53:42.000Z</time>
      </trkpt>
      <trkpt lat="42.57234938442707061767578125" lon="-0.30935450457036495208740234375">
        <ele>870.20001220703125</ele>
        <time>2020-08-18T12:53:43.000Z</time>
      </trkpt>
      <trkpt lat="42.5722669064998626708984375" lon="-0.30950722284615039825439453125">
        <ele>869.79998779296875</ele>
        <time>2020-08-18T12:53:47.000Z</time>
      </trkpt>
      <trkpt lat="42.57218032144010066986083984375" lon="-0.3096585161983966827392578125">
        <ele>869.20001220703125</ele>
        <time>2020-08-18T12:53:51.000Z</time>
      </trkpt>
      <trkpt lat="42.57213405333459377288818359375" lon="-0.30972414650022983551025390625">
        <ele>869</ele>
        <time>2020-08-18T12:53:53.000Z</time>
      </trkpt>
      <trkpt lat="42.572039254009723663330078125" lon="-0.309890024363994598388671875">
        <ele>867.79998779296875</ele>
        <time>2020-08-18T12:53:58.000Z</time>
      </trkpt>
      <trkpt lat="42.5719975121319293975830078125" lon="-0.3099595941603183746337890625">
        <ele>867.4000244140625</ele>
        <time>2020-08-18T12:54:00.000Z</time>
      </trkpt>
      <trkpt lat="42.57185158319771289825439453125" lon="-0.31019940041005611419677734375">
        <ele>867.4000244140625</ele>
        <time>2020-08-18T12:54:07.000Z</time>
      </trkpt>
      <trkpt lat="42.5717701949179172515869140625" lon="-0.3103340975940227508544921875">
        <ele>866.79998779296875</ele>
        <time>2020-08-18T12:54:11.000Z</time>
      </trkpt>
      <trkpt lat="42.57172719575464725494384765625" lon="-0.310409702360630035400390625">
        <ele>865.79998779296875</ele>
        <time>2020-08-18T12:54:13.000Z</time>
      </trkpt>
      <trkpt lat="42.57170339114964008331298828125" lon="-0.3104484267532825469970703125">
        <ele>865.4000244140625</ele>
        <time>2020-08-18T12:54:14.000Z</time>
      </trkpt>
      <trkpt lat="42.57152594625949859619140625" lon="-0.31079065985977649688720703125">
        <ele>865.4000244140625</ele>
        <time>2020-08-18T12:54:22.000Z</time>
      </trkpt>
      <trkpt lat="42.57140264846384525299072265625" lon="-0.3110115230083465576171875">
        <ele>864.79998779296875</ele>
        <time>2020-08-18T12:54:27.000Z</time>
      </trkpt>
      <trkpt lat="42.571323104202747344970703125" lon="-0.311149656772613525390625">
        <ele>864.4000244140625</ele>
        <time>2020-08-18T12:54:30.000Z</time>
      </trkpt>
      <trkpt lat="42.57111414335668087005615234375" lon="-0.31150035560131072998046875">
        <ele>863.4000244140625</ele>
        <time>2020-08-18T12:54:38.000Z</time>
      </trkpt>
      <trkpt lat="42.57108950056135654449462890625" lon="-0.311543941497802734375">
        <ele>863.4000244140625</ele>
        <time>2020-08-18T12:54:39.000Z</time>
      </trkpt>
      <trkpt lat="42.57093694992363452911376953125" lon="-0.31179732643067836761474609375">
        <ele>862.20001220703125</ele>
        <time>2020-08-18T12:54:45.000Z</time>
      </trkpt>
      <trkpt lat="42.57087819278240203857421875" lon="-0.31188382767140865325927734375">
        <ele>862.20001220703125</ele>
        <time>2020-08-18T12:54:47.000Z</time>
      </trkpt>
      <trkpt lat="42.57067040540277957916259765625" lon="-0.3122481890022754669189453125">
        <ele>861.79998779296875</ele>
        <time>2020-08-18T12:54:55.000Z</time>
      </trkpt>
      <trkpt lat="42.5706369616091251373291015625" lon="-0.312342904508113861083984375">
        <ele>861</ele>
        <time>2020-08-18T12:54:57.000Z</time>
      </trkpt>
      <trkpt lat="42.57058340124785900115966796875" lon="-0.3125328384339809417724609375">
        <ele>860.5999755859375</ele>
        <time>2020-08-18T12:55:01.000Z</time>
      </trkpt>
      <trkpt lat="42.57057267241179943084716796875" lon="-0.31257994472980499267578125">
        <ele>860</ele>
        <time>2020-08-18T12:55:02.000Z</time>
      </trkpt>
      <trkpt lat="42.5705357082188129425048828125" lon="-0.312764346599578857421875">
        <ele>859.20001220703125</ele>
        <time>2020-08-18T12:55:06.000Z</time>
      </trkpt>
      <trkpt lat="42.57044007070362567901611328125" lon="-0.31295453198254108428955078125">
        <ele>859</ele>
        <time>2020-08-18T12:55:11.000Z</time>
      </trkpt>
      <trkpt lat="42.57039296440780162811279296875" lon="-0.3130246885120868682861328125">
        <ele>858.79998779296875</ele>
        <time>2020-08-18T12:55:13.000Z</time>
      </trkpt>
      <trkpt lat="42.57021409459412097930908203125" lon="-0.31325795687735080718994140625">
        <ele>858.4000244140625</ele>
        <time>2020-08-18T12:55:20.000Z</time>
      </trkpt>
      <trkpt lat="42.57013362832367420196533203125" lon="-0.31335719861090183258056640625">
        <ele>858</ele>
        <time>2020-08-18T12:55:23.000Z</time>
      </trkpt>
      <trkpt lat="42.56998945958912372589111328125" lon="-0.3135205619037151336669921875">
        <ele>857</ele>
        <time>2020-08-18T12:55:28.000Z</time>
      </trkpt>
      <trkpt lat="42.5699325464665889739990234375" lon="-0.313588790595531463623046875">
        <ele>856.79998779296875</ele>
        <time>2020-08-18T12:55:30.000Z</time>
      </trkpt>
      <trkpt lat="42.56965552456676959991455078125" lon="-0.3138734400272369384765625">
        <ele>856</ele>
        <time>2020-08-18T12:55:39.000Z</time>
      </trkpt>
      <trkpt lat="42.56961931474506855010986328125" lon="-0.31389296986162662506103515625">
        <ele>856</ele>
        <time>2020-08-18T12:55:40.000Z</time>
      </trkpt>
      <trkpt lat="42.56947338581085205078125" lon="-0.313976369798183441162109375">
        <ele>855</ele>
        <time>2020-08-18T12:55:44.000Z</time>
      </trkpt>
      <trkpt lat="42.56934472359716892242431640625" lon="-0.314073264598846435546875">
        <ele>856</ele>
        <time>2020-08-18T12:55:48.000Z</time>
      </trkpt>
      <trkpt lat="42.569282613694667816162109375" lon="-0.314119867980480194091796875">
        <ele>856.20001220703125</ele>
        <time>2020-08-18T12:55:50.000Z</time>
      </trkpt>
      <trkpt lat="42.5691821984946727752685546875" lon="-0.31415549106895923614501953125">
        <ele>854.5999755859375</ele>
        <time>2020-08-18T12:55:53.000Z</time>
      </trkpt>
      <trkpt lat="42.56914816796779632568359375" lon="-0.314164459705352783203125">
        <ele>854</ele>
        <time>2020-08-18T12:55:54.000Z</time>
      </trkpt>
      <trkpt lat="42.56888237781822681427001953125" lon="-0.314169824123382568359375">
        <ele>854.5999755859375</ele>
        <time>2020-08-18T12:56:02.000Z</time>
      </trkpt>
      <trkpt lat="42.56870292127132415771484375" lon="-0.3141471929848194122314453125">
        <ele>853.5999755859375</ele>
        <time>2020-08-18T12:56:07.000Z</time>
      </trkpt>
      <trkpt lat="42.56859370507299900054931640625" lon="-0.31413554213941097259521484375">
        <ele>853.4000244140625</ele>
        <time>2020-08-18T12:56:10.000Z</time>
      </trkpt>
      <trkpt lat="42.56824116222560405731201171875" lon="-0.31408332288265228271484375">
        <ele>853.20001220703125</ele>
        <time>2020-08-18T12:56:20.000Z</time>
      </trkpt>
      <trkpt lat="42.5680536590516567230224609375" lon="-0.31405658461153507232666015625">
        <ele>852.5999755859375</ele>
        <time>2020-08-18T12:56:25.000Z</time>
      </trkpt>
      <trkpt lat="42.5679041258990764617919921875" lon="-0.314038731157779693603515625">
        <ele>852.5999755859375</ele>
        <time>2020-08-18T12:56:29.000Z</time>
      </trkpt>
      <trkpt lat="42.56758972071111202239990234375" lon="-0.31397880055010318756103515625">
        <ele>851.79998779296875</ele>
        <time>2020-08-18T12:56:37.000Z</time>
      </trkpt>
      <trkpt lat="42.567549236118793487548828125" lon="-0.31397410668432712554931640625">
        <ele>851.79998779296875</ele>
        <time>2020-08-18T12:56:38.000Z</time>
      </trkpt>
      <trkpt lat="42.56750975735485553741455078125" lon="-0.31396932899951934814453125">
        <ele>851.5999755859375</ele>
        <time>2020-08-18T12:56:39.000Z</time>
      </trkpt>
      <trkpt lat="42.567434571683406829833984375" lon="-0.31395365484058856964111328125">
        <ele>850.5999755859375</ele>
        <time>2020-08-18T12:56:41.000Z</time>
      </trkpt>
      <trkpt lat="42.5672592222690582275390625" lon="-0.31392096541821956634521484375">
        <ele>850.5999755859375</ele>
        <time>2020-08-18T12:56:46.000Z</time>
      </trkpt>
      <trkpt lat="42.56706350483000278472900390625" lon="-0.31390638090670108795166015625">
        <ele>850.5999755859375</ele>
        <time>2020-08-18T12:56:52.000Z</time>
      </trkpt>
      <trkpt lat="42.56692503578960895538330078125" lon="-0.31396270729601383209228515625">
        <ele>851.20001220703125</ele>
        <time>2020-08-18T12:56:58.000Z</time>
      </trkpt>
      <trkpt lat="42.5667826272547245025634765625" lon="-0.31394493766129016876220703125">
        <ele>850.4000244140625</ele>
        <time>2020-08-18T12:57:03.000Z</time>
      </trkpt>
      <trkpt lat="42.5665787793695926666259765625" lon="-0.31387704424560070037841796875">
        <ele>850</ele>
        <time>2020-08-18T12:57:09.000Z</time>
      </trkpt>
      <trkpt lat="42.56638021208345890045166015625" lon="-0.31382155604660511016845703125">
        <ele>849.5999755859375</ele>
        <time>2020-08-18T12:57:14.000Z</time>
      </trkpt>
      <trkpt lat="42.56629672832787036895751953125" lon="-0.31379993073642253875732421875">
        <ele>849.4000244140625</ele>
        <time>2020-08-18T12:57:16.000Z</time>
      </trkpt>
      <trkpt lat="42.565979473292827606201171875" lon="-0.31373958103358745574951171875">
        <ele>848.79998779296875</ele>
        <time>2020-08-18T12:57:23.000Z</time>
      </trkpt>
      <trkpt lat="42.5658384896814823150634765625" lon="-0.31371242366731166839599609375">
        <ele>848.5999755859375</ele>
        <time>2020-08-18T12:57:26.000Z</time>
      </trkpt>
      <trkpt lat="42.565656937658786773681640625" lon="-0.31368409283459186553955078125">
        <ele>848.4000244140625</ele>
        <time>2020-08-18T12:57:30.000Z</time>
      </trkpt>
      <trkpt lat="42.56522602401673793792724609375" lon="-0.3136080689728260040283203125">
        <ele>848.20001220703125</ele>
        <time>2020-08-18T12:57:40.000Z</time>
      </trkpt>
      <trkpt lat="42.56485302932560443878173828125" lon="-0.3135386668145656585693359375">
        <ele>848.4000244140625</ele>
        <time>2020-08-18T12:57:49.000Z</time>
      </trkpt>
      <trkpt lat="42.564451955258846282958984375" lon="-0.3134630620479583740234375">
        <ele>848.4000244140625</ele>
        <time>2020-08-18T12:57:59.000Z</time>
      </trkpt>
      <trkpt lat="42.56415833719074726104736328125" lon="-0.3133747167885303497314453125">
        <ele>849.4000244140625</ele>
        <time>2020-08-18T12:58:07.000Z</time>
      </trkpt>
      <trkpt lat="42.56389631889760494232177734375" lon="-0.31327270902693271636962890625">
        <ele>849.4000244140625</ele>
        <time>2020-08-18T12:58:15.000Z</time>
      </trkpt>
      <trkpt lat="42.56380462087690830230712890625" lon="-0.3132422827184200286865234375">
        <ele>850.20001220703125</ele>
        <time>2020-08-18T12:58:18.000Z</time>
      </trkpt>
      <trkpt lat="42.5636595301330089569091796875" lon="-0.31318469904363155364990234375">
        <ele>850.5999755859375</ele>
        <time>2020-08-18T12:58:23.000Z</time>
      </trkpt>
      <trkpt lat="42.56342944689095020294189453125" lon="-0.31311932019889354705810546875">
        <ele>851</ele>
        <time>2020-08-18T12:58:31.000Z</time>
      </trkpt>
      <trkpt lat="42.56340019404888153076171875" lon="-0.3131148777902126312255859375">
        <ele>851.20001220703125</ele>
        <time>2020-08-18T12:58:32.000Z</time>
      </trkpt>
      <trkpt lat="42.5632320530712604522705078125" lon="-0.3130823560059070587158203125">
        <ele>852.4000244140625</ele>
        <time>2020-08-18T12:58:38.000Z</time>
      </trkpt>
      <trkpt lat="42.56317782215774059295654296875" lon="-0.313069112598896026611328125">
        <ele>852.5999755859375</ele>
        <time>2020-08-18T12:58:40.000Z</time>
      </trkpt>
      <trkpt lat="42.56299777887761592864990234375" lon="-0.3130287118256092071533203125">
        <ele>853.4000244140625</ele>
        <time>2020-08-18T12:58:47.000Z</time>
      </trkpt>
      <trkpt lat="42.56294564343988895416259765625" lon="-0.3130196593701839447021484375">
        <ele>854</ele>
        <time>2020-08-18T12:58:49.000Z</time>
      </trkpt>
      <trkpt lat="42.56284237839281558990478515625" lon="-0.31300348229706287384033203125">
        <ele>855</ele>
        <time>2020-08-18T12:58:53.000Z</time>
      </trkpt>
      <trkpt lat="42.56271363236010074615478515625" lon="-0.31298764050006866455078125">
        <ele>855.5999755859375</ele>
        <time>2020-08-18T12:58:58.000Z</time>
      </trkpt>
      <trkpt lat="42.562638111412525177001953125" lon="-0.31298118643462657928466796875">
        <ele>856</ele>
        <time>2020-08-18T12:59:01.000Z</time>
      </trkpt>
      <trkpt lat="42.56251162849366664886474609375" lon="-0.3129603154957294464111328125">
        <ele>857</ele>
        <time>2020-08-18T12:59:06.000Z</time>
      </trkpt>
      <trkpt lat="42.5623549707233905792236328125" lon="-0.31296224333345890045166015625">
        <ele>858.20001220703125</ele>
        <time>2020-08-18T12:59:12.000Z</time>
      </trkpt>
      <trkpt lat="42.56225396879017353057861328125" lon="-0.3129515983164310455322265625">
        <ele>858.5999755859375</ele>
        <time>2020-08-18T12:59:16.000Z</time>
      </trkpt>
      <trkpt lat="42.5621588341891765594482421875" lon="-0.3129475750029087066650390625">
        <ele>859.4000244140625</ele>
        <time>2020-08-18T12:59:20.000Z</time>
      </trkpt>
      <trkpt lat="42.5620639510452747344970703125" lon="-0.3129472397267818450927734375">
        <ele>860</ele>
        <time>2020-08-18T12:59:24.000Z</time>
      </trkpt>
      <trkpt lat="42.561992704868316650390625" lon="-0.31294363550841808319091796875">
        <ele>860.5999755859375</ele>
        <time>2020-08-18T12:59:27.000Z</time>
      </trkpt>
      <trkpt lat="42.561849541962146759033203125" lon="-0.312945060431957244873046875">
        <ele>861.4000244140625</ele>
        <time>2020-08-18T12:59:33.000Z</time>
      </trkpt>
      <trkpt lat="42.56180335767567157745361328125" lon="-0.31294296495616436004638671875">
        <ele>861.79998779296875</ele>
        <time>2020-08-18T12:59:35.000Z</time>
      </trkpt>
      <trkpt lat="42.561663798987865447998046875" lon="-0.31293860636651515960693359375">
        <ele>862.79998779296875</ele>
        <time>2020-08-18T12:59:41.000Z</time>
      </trkpt>
      <trkpt lat="42.56164074875414371490478515625" lon="-0.3129395283758640289306640625">
        <ele>863</ele>
        <time>2020-08-18T12:59:42.000Z</time>
      </trkpt>
      <trkpt lat="42.56147964857518672943115234375" lon="-0.31292636878788471221923828125">
        <ele>863.5999755859375</ele>
        <time>2020-08-18T12:59:49.000Z</time>
      </trkpt>
      <trkpt lat="42.56145668216049671173095703125" lon="-0.31292703934013843536376953125">
        <ele>864</ele>
        <time>2020-08-18T12:59:50.000Z</time>
      </trkpt>
      <trkpt lat="42.5612948276102542877197265625" lon="-0.31292058527469635009765625">
        <ele>865</ele>
        <time>2020-08-18T12:59:57.000Z</time>
      </trkpt>
      <trkpt lat="42.5612710230052471160888671875" lon="-0.31291924417018890380859375">
        <ele>865.20001220703125</ele>
        <time>2020-08-18T12:59:58.000Z</time>
      </trkpt>
      <trkpt lat="42.56115040741860866546630859375" lon="-0.312922932207584381103515625">
        <ele>866</ele>
        <time>2020-08-18T13:00:03.000Z</time>
      </trkpt>
      <trkpt lat="42.561078406870365142822265625" lon="-0.3129220940172672271728515625">
        <ele>866.79998779296875</ele>
        <time>2020-08-18T13:00:06.000Z</time>
      </trkpt>
      <trkpt lat="42.5610074959695339202880859375" lon="-0.31294212676584720611572265625">
        <ele>867.20001220703125</ele>
        <time>2020-08-18T13:00:09.000Z</time>
      </trkpt>
      <trkpt lat="42.56091646850109100341796875" lon="-0.312988646328449249267578125">
        <ele>867.79998779296875</ele>
        <time>2020-08-18T13:00:13.000Z</time>
      </trkpt>
      <trkpt lat="42.56083189509809017181396484375" lon="-0.31304975040256977081298828125">
        <ele>868.4000244140625</ele>
        <time>2020-08-18T13:00:17.000Z</time>
      </trkpt>
      <trkpt lat="42.5607548654079437255859375" lon="-0.3131235949695110321044921875">
        <ele>869</ele>
        <time>2020-08-18T13:00:21.000Z</time>
      </trkpt>
      <trkpt lat="42.56069929338991641998291015625" lon="-0.3131772391498088836669921875">
        <ele>869.5999755859375</ele>
        <time>2020-08-18T13:00:24.000Z</time>
      </trkpt>
      <trkpt lat="42.5606293044984340667724609375" lon="-0.3132630698382854461669921875">
        <ele>870.20001220703125</ele>
        <time>2020-08-18T13:00:28.000Z</time>
      </trkpt>
      <trkpt lat="42.56055680103600025177001953125" lon="-0.31335149891674518585205078125">
        <ele>870.5999755859375</ele>
        <time>2020-08-18T13:00:32.000Z</time>
      </trkpt>
      <trkpt lat="42.56046543829143047332763671875" lon="-0.31346297822892665863037109375">
        <ele>871.20001220703125</ele>
        <time>2020-08-18T13:00:37.000Z</time>
      </trkpt>
      <trkpt lat="42.5603258796036243438720703125" lon="-0.3136110864579677581787109375">
        <ele>871.79998779296875</ele>
        <time>2020-08-18T13:00:44.000Z</time>
      </trkpt>
      <trkpt lat="42.56028707139194011688232421875" lon="-0.31365375034511089324951171875">
        <ele>872</ele>
        <time>2020-08-18T13:00:46.000Z</time>
      </trkpt>
      <trkpt lat="42.56014776416122913360595703125" lon="-0.313822813332080841064453125">
        <ele>872.79998779296875</ele>
        <time>2020-08-18T13:00:53.000Z</time>
      </trkpt>
      <trkpt lat="42.56010702811181545257568359375" lon="-0.31387033872306346893310546875">
        <ele>873</ele>
        <time>2020-08-18T13:00:55.000Z</time>
      </trkpt>
      <trkpt lat="42.5599260628223419189453125" lon="-0.31407569535076618194580078125">
        <ele>874</ele>
        <time>2020-08-18T13:01:04.000Z</time>
      </trkpt>
      <trkpt lat="42.55976119078695774078369140625" lon="-0.31425992958247661590576171875">
        <ele>874.5999755859375</ele>
        <time>2020-08-18T13:01:12.000Z</time>
      </trkpt>
      <trkpt lat="42.559691034257411956787109375" lon="-0.3143218718469142913818359375">
        <ele>875</ele>
        <time>2020-08-18T13:01:15.000Z</time>
      </trkpt>
      <trkpt lat="42.55957410670816898345947265625" lon="-0.31441382132470607757568359375">
        <ele>876</ele>
        <time>2020-08-18T13:01:20.000Z</time>
      </trkpt>
      <trkpt lat="42.5595228932797908782958984375" lon="-0.3144425712525844573974609375">
        <ele>876.4000244140625</ele>
        <time>2020-08-18T13:01:22.000Z</time>
      </trkpt>
      <trkpt lat="42.559330277144908905029296875" lon="-0.3145837225019931793212890625">
        <ele>877</ele>
        <time>2020-08-18T13:01:30.000Z</time>
      </trkpt>
      <trkpt lat="42.55921485833823680877685546875" lon="-0.314696542918682098388671875">
        <ele>877.5999755859375</ele>
        <time>2020-08-18T13:01:35.000Z</time>
      </trkpt>
      <trkpt lat="42.5591517426073551177978515625" lon="-0.31477072276175022125244140625">
        <ele>877.79998779296875</ele>
        <time>2020-08-18T13:01:38.000Z</time>
      </trkpt>
      <trkpt lat="42.5590087473392486572265625" lon="-0.3150427155196666717529296875">
        <ele>878</ele>
        <time>2020-08-18T13:01:46.000Z</time>
      </trkpt>
      <trkpt lat="42.55882577039301395416259765625" lon="-0.31541897915303707122802734375">
        <ele>877.79998779296875</ele>
        <time>2020-08-18T13:01:55.000Z</time>
      </trkpt>
      <trkpt lat="42.55865494720637798309326171875" lon="-0.3156250901520252227783203125">
        <ele>876.5999755859375</ele>
        <time>2020-08-18T13:02:00.000Z</time>
      </trkpt>
      <trkpt lat="42.55861245095729827880859375" lon="-0.3156693466007709503173828125">
        <ele>876.20001220703125</ele>
        <time>2020-08-18T13:02:01.000Z</time>
      </trkpt>
      <trkpt lat="42.55841673351824283599853515625" lon="-0.3158514015376567840576171875">
        <ele>875.20001220703125</ele>
        <time>2020-08-18T13:02:05.000Z</time>
      </trkpt>
      <trkpt lat="42.55830374546349048614501953125" lon="-0.315952487289905548095703125">
        <ele>874.5999755859375</ele>
        <time>2020-08-18T13:02:07.000Z</time>
      </trkpt>
      <trkpt lat="42.5582451559603214263916015625" lon="-0.3160056285560131072998046875">
        <ele>874</ele>
        <time>2020-08-18T13:02:08.000Z</time>
      </trkpt>
      <trkpt lat="42.55806117318570613861083984375" lon="-0.31617351807653903961181640625">
        <ele>872.5999755859375</ele>
        <time>2020-08-18T13:02:11.000Z</time>
      </trkpt>
      <trkpt lat="42.557931840419769287109375" lon="-0.316288769245147705078125">
        <ele>871.5999755859375</ele>
        <time>2020-08-18T13:02:13.000Z</time>
      </trkpt>
      <trkpt lat="42.55779563449323177337646484375" lon="-0.316405780613422393798828125">
        <ele>870.79998779296875</ele>
        <time>2020-08-18T13:02:15.000Z</time>
      </trkpt>
      <trkpt lat="42.5577248074114322662353515625" lon="-0.3164649568498134613037109375">
        <ele>870.4000244140625</ele>
        <time>2020-08-18T13:02:16.000Z</time>
      </trkpt>
      <trkpt lat="42.5575045309960842132568359375" lon="-0.3166476823389530181884765625">
        <ele>869.20001220703125</ele>
        <time>2020-08-18T13:02:19.000Z</time>
      </trkpt>
      <trkpt lat="42.5572691671550273895263671875" lon="-0.3168243728578090667724609375">
        <ele>867.5999755859375</ele>
        <time>2020-08-18T13:02:22.000Z</time>
      </trkpt>
      <trkpt lat="42.55718819797039031982421875" lon="-0.31688111834228038787841796875">
        <ele>867.20001220703125</ele>
        <time>2020-08-18T13:02:23.000Z</time>
      </trkpt>
      <trkpt lat="42.55710697732865810394287109375" lon="-0.316937528550624847412109375">
        <ele>866.4000244140625</ele>
        <time>2020-08-18T13:02:24.000Z</time>
      </trkpt>
      <trkpt lat="42.55694738589227199554443359375" lon="-0.3170500136911869049072265625">
        <ele>865.4000244140625</ele>
        <time>2020-08-18T13:02:26.000Z</time>
      </trkpt>
      <trkpt lat="42.5567900575697422027587890625" lon="-0.3171532787382602691650390625">
        <ele>864.20001220703125</ele>
        <time>2020-08-18T13:02:28.000Z</time>
      </trkpt>
      <trkpt lat="42.5565627403557300567626953125" lon="-0.317297279834747314453125">
        <ele>863.79998779296875</ele>
        <time>2020-08-18T13:02:31.000Z</time>
      </trkpt>
      <trkpt lat="42.55620474927127361297607421875" lon="-0.31750188209116458892822265625">
        <ele>863.20001220703125</ele>
        <time>2020-08-18T13:02:36.000Z</time>
      </trkpt>
      <trkpt lat="42.5560717284679412841796875" lon="-0.31757882796227931976318359375">
        <ele>862.79998779296875</ele>
        <time>2020-08-18T13:02:38.000Z</time>
      </trkpt>
      <trkpt lat="42.55582773126661777496337890625" lon="-0.31772752292454242706298828125">
        <ele>862.20001220703125</ele>
        <time>2020-08-18T13:02:42.000Z</time>
      </trkpt>
      <trkpt lat="42.5556682236492633819580078125" lon="-0.3178234957158565521240234375">
        <ele>862.20001220703125</ele>
        <time>2020-08-18T13:02:45.000Z</time>
      </trkpt>
      <trkpt lat="42.5554144196212291717529296875" lon="-0.31796590425074100494384765625">
        <ele>862.5999755859375</ele>
        <time>2020-08-18T13:02:51.000Z</time>
      </trkpt>
      <trkpt lat="42.55524552427232265472412109375" lon="-0.318022482097148895263671875">
        <ele>863.20001220703125</ele>
        <time>2020-08-18T13:02:56.000Z</time>
      </trkpt>
      <trkpt lat="42.55518349818885326385498046875" lon="-0.31803295947611331939697265625">
        <ele>863.4000244140625</ele>
        <time>2020-08-18T13:02:58.000Z</time>
      </trkpt>
      <trkpt lat="42.55496305413544178009033203125" lon="-0.31801267527043819427490234375">
        <ele>864.4000244140625</ele>
        <time>2020-08-18T13:03:05.000Z</time>
      </trkpt>
      <trkpt lat="42.5549017824232578277587890625" lon="-0.3179944865405559539794921875">
        <ele>864.4000244140625</ele>
        <time>2020-08-18T13:03:07.000Z</time>
      </trkpt>
      <trkpt lat="42.55475342273712158203125" lon="-0.31794260255992412567138671875">
        <ele>865.4000244140625</ele>
        <time>2020-08-18T13:03:12.000Z</time>
      </trkpt>
      <trkpt lat="42.5546939112246036529541015625" lon="-0.31792215071618556976318359375">
        <ele>865.5999755859375</ele>
        <time>2020-08-18T13:03:14.000Z</time>
      </trkpt>
      <trkpt lat="42.55448830313980579376220703125" lon="-0.31785794533789157867431640625">
        <ele>866.4000244140625</ele>
        <time>2020-08-18T13:03:21.000Z</time>
      </trkpt>
      <trkpt lat="42.55437766201794147491455078125" lon="-0.3178462944924831390380859375">
        <ele>866.79998779296875</ele>
        <time>2020-08-18T13:03:25.000Z</time>
      </trkpt>
      <trkpt lat="42.5543257780373096466064453125" lon="-0.31783447600901126861572265625">
        <ele>867</ele>
        <time>2020-08-18T13:03:27.000Z</time>
      </trkpt>
      <trkpt lat="42.55419929511845111846923828125" lon="-0.31779893673956394195556640625">
        <ele>868</ele>
        <time>2020-08-18T13:03:32.000Z</time>
      </trkpt>
      <trkpt lat="42.55417565815150737762451171875" lon="-0.31778854317963123321533203125">
        <ele>868.20001220703125</ele>
        <time>2020-08-18T13:03:33.000Z</time>
      </trkpt>
      <trkpt lat="42.55404624156653881072998046875" lon="-0.317766666412353515625">
        <ele>869</ele>
        <time>2020-08-18T13:03:39.000Z</time>
      </trkpt>
      <trkpt lat="42.5540010631084442138671875" lon="-0.31777136027812957763671875">
        <ele>869.20001220703125</ele>
        <time>2020-08-18T13:03:41.000Z</time>
      </trkpt>
      <trkpt lat="42.55381121300160884857177734375" lon="-0.31786280684173107147216796875">
        <ele>868.5999755859375</ele>
        <time>2020-08-18T13:03:47.000Z</time>
      </trkpt>
      <trkpt lat="42.55364223383367061614990234375" lon="-0.317970849573612213134765625">
        <ele>867.79998779296875</ele>
        <time>2020-08-18T13:03:51.000Z</time>
      </trkpt>
      <trkpt lat="42.55350954830646514892578125" lon="-0.318032205104827880859375">
        <ele>867.5999755859375</ele>
        <time>2020-08-18T13:03:54.000Z</time>
      </trkpt>
      <trkpt lat="42.55346395075321197509765625" lon="-0.3180461190640926361083984375">
        <ele>867.5999755859375</ele>
        <time>2020-08-18T13:03:55.000Z</time>
      </trkpt>
      <trkpt lat="42.5533226318657398223876953125" lon="-0.31806766055524349212646484375">
        <ele>867.20001220703125</ele>
        <time>2020-08-18T13:03:58.000Z</time>
      </trkpt>
      <trkpt lat="42.55322649143636226654052734375" lon="-0.3180913813412189483642578125">
        <ele>867</ele>
        <time>2020-08-18T13:04:00.000Z</time>
      </trkpt>
      <trkpt lat="42.55317754112184047698974609375" lon="-0.31810219399631023406982421875">
        <ele>866.79998779296875</ele>
        <time>2020-08-18T13:04:01.000Z</time>
      </trkpt>
      <trkpt lat="42.5527999363839626312255859375" lon="-0.31817059032618999481201171875">
        <ele>866.20001220703125</ele>
        <time>2020-08-18T13:04:08.000Z</time>
      </trkpt>
      <trkpt lat="42.5527426041662693023681640625" lon="-0.318178720772266387939453125">
        <ele>866</ele>
        <time>2020-08-18T13:04:09.000Z</time>
      </trkpt>
      <trkpt lat="42.55234974436461925506591796875" lon="-0.3181979991495609283447265625">
        <ele>865.4000244140625</ele>
        <time>2020-08-18T13:04:16.000Z</time>
      </trkpt>
      <trkpt lat="42.5522044859826564788818359375" lon="-0.318108983337879180908203125">
        <ele>865.5999755859375</ele>
        <time>2020-08-18T13:04:20.000Z</time>
      </trkpt>
      <trkpt lat="42.55204699002206325531005859375" lon="-0.31794494949281215667724609375">
        <ele>867.20001220703125</ele>
        <time>2020-08-18T13:04:27.000Z</time>
      </trkpt>
      <trkpt lat="42.55196635611355304718017578125" lon="-0.317858196794986724853515625">
        <ele>868.20001220703125</ele>
        <time>2020-08-18T13:04:32.000Z</time>
      </trkpt>
      <trkpt lat="42.5519396178424358367919921875" lon="-0.317826680839061737060546875">
        <ele>868.5999755859375</ele>
        <time>2020-08-18T13:04:34.000Z</time>
      </trkpt>
      <trkpt lat="42.5518834590911865234375" lon="-0.317764319479465484619140625">
        <ele>869</ele>
        <time>2020-08-18T13:04:38.000Z</time>
      </trkpt>
      <trkpt lat="42.5518722273409366607666015625" lon="-0.3177584521472454071044921875">
        <ele>869.20001220703125</ele>
        <time>2020-08-18T13:04:40.000Z</time>
      </trkpt>
      <trkpt lat="42.55187281407415866851806640625" lon="-0.31775753013789653778076171875">
        <ele>869.20001220703125</ele>
        <time>2020-08-18T13:04:41.000Z</time>
      </trkpt>
      <trkpt lat="42.55187340080738067626953125" lon="-0.3177561052143573760986328125">
        <ele>869.5999755859375</ele>
        <time>2020-08-18T13:04:51.000Z</time>
      </trkpt>
      <trkpt lat="42.55187398754060268402099609375" lon="-0.3177540935575962066650390625">
        <ele>869.5999755859375</ele>
        <time>2020-08-18T13:05:04.000Z</time>
      </trkpt>
      <trkpt lat="42.55187616683542728424072265625" lon="-0.31775115989148616790771484375">
        <ele>869.20001220703125</ele>
        <time>2020-08-18T13:05:18.000Z</time>
      </trkpt>
      <trkpt lat="42.55187717266380786895751953125" lon="-0.31774898059666156768798828125">
        <ele>869.4000244140625</ele>
        <time>2020-08-18T13:05:30.000Z</time>
      </trkpt>
      <trkpt lat="42.55187683738768100738525390625" lon="-0.317748226225376129150390625">
        <ele>869.5999755859375</ele>
        <time>2020-08-18T13:05:43.000Z</time>
      </trkpt>
      <trkpt lat="42.55187700502574443817138671875" lon="-0.31774931587278842926025390625">
        <ele>869.4000244140625</ele>
        <time>2020-08-18T13:06:38.000Z</time>
      </trkpt>
      <trkpt lat="42.55187734030187129974365234375" lon="-0.3177493996918201446533203125">
        <ele>869.4000244140625</ele>
        <time>2020-08-18T13:07:36.000Z</time>
      </trkpt>
      <trkpt lat="42.5518767535686492919921875" lon="-0.31775124371051788330078125">
        <ele>869</ele>
        <time>2020-08-18T13:08:21.000Z</time>
      </trkpt>
      <trkpt lat="42.55185755901038646697998046875" lon="-0.31775484792888164520263671875">
        <ele>869</ele>
        <time>2020-08-18T13:08:27.000Z</time>
      </trkpt>
      <trkpt lat="42.551857642829418182373046875" lon="-0.31775551848113536834716796875">
        <ele>869.20001220703125</ele>
        <time>2020-08-18T13:08:34.000Z</time>
      </trkpt>
      <trkpt lat="42.55185789428651332855224609375" lon="-0.31775501556694507598876953125">
        <ele>869</ele>
        <time>2020-08-18T13:08:38.000Z</time>
      </trkpt>
      <trkpt lat="42.5518579781055450439453125" lon="-0.317755602300167083740234375">
        <ele>869.20001220703125</ele>
        <time>2020-08-18T13:08:39.000Z</time>
      </trkpt>
      <trkpt lat="42.55185739137232303619384765625" lon="-0.3177574463188648223876953125">
        <ele>868.5999755859375</ele>
        <time>2020-08-18T13:08:50.000Z</time>
      </trkpt>
      <trkpt lat="42.551824115216732025146484375" lon="-0.3177768923342227935791015625">
        <ele>869.20001220703125</ele>
        <time>2020-08-18T13:09:02.000Z</time>
      </trkpt>
      <trkpt lat="42.551751695573329925537109375" lon="-0.31786548905074596405029296875">
        <ele>868.5999755859375</ele>
        <time>2020-08-18T13:09:06.000Z</time>
      </trkpt>
      <trkpt lat="42.55166578106582164764404296875" lon="-0.318001024425029754638671875">
        <ele>867.79998779296875</ele>
        <time>2020-08-18T13:09:09.000Z</time>
      </trkpt>
      <trkpt lat="42.55163594149053096771240234375" lon="-0.31806103885173797607421875">
        <ele>867.5999755859375</ele>
        <time>2020-08-18T13:09:10.000Z</time>
      </trkpt>
      <trkpt lat="42.55154508166015148162841796875" lon="-0.31826212070882320404052734375">
        <ele>866.5999755859375</ele>
        <time>2020-08-18T13:09:13.000Z</time>
      </trkpt>
      <trkpt lat="42.55141465924680233001708984375" lon="-0.3185436688363552093505859375">
        <ele>864.79998779296875</ele>
        <time>2020-08-18T13:09:17.000Z</time>
      </trkpt>
      <trkpt lat="42.55134341306984424591064453125" lon="-0.31870300881564617156982421875">
        <ele>863.20001220703125</ele>
        <time>2020-08-18T13:09:19.000Z</time>
      </trkpt>
      <trkpt lat="42.55121986381709575653076171875" lon="-0.318959914147853851318359375">
        <ele>862</ele>
        <time>2020-08-18T13:09:22.000Z</time>
      </trkpt>
      <trkpt lat="42.55117510445415973663330078125" lon="-0.31904809176921844482421875">
        <ele>861.5999755859375</ele>
        <time>2020-08-18T13:09:23.000Z</time>
      </trkpt>
      <trkpt lat="42.551128752529621124267578125" lon="-0.31913819722831249237060546875">
        <ele>861</ele>
        <time>2020-08-18T13:09:24.000Z</time>
      </trkpt>
      <trkpt lat="42.55103462375700473785400390625" lon="-0.31932326965034008026123046875">
        <ele>859.79998779296875</ele>
        <time>2020-08-18T13:09:26.000Z</time>
      </trkpt>
      <trkpt lat="42.55094074644148349761962890625" lon="-0.31951521523296833038330078125">
        <ele>858.20001220703125</ele>
        <time>2020-08-18T13:09:28.000Z</time>
      </trkpt>
      <trkpt lat="42.55085441283881664276123046875" lon="-0.3197168000042438507080078125">
        <ele>856.79998779296875</ele>
        <time>2020-08-18T13:09:30.000Z</time>
      </trkpt>
      <trkpt lat="42.55078668706119060516357421875" lon="-0.319918803870677947998046875">
        <ele>855</ele>
        <time>2020-08-18T13:09:32.000Z</time>
      </trkpt>
      <trkpt lat="42.55072918720543384552001953125" lon="-0.32012038864195346832275390625">
        <ele>853.5999755859375</ele>
        <time>2020-08-18T13:09:34.000Z</time>
      </trkpt>
      <trkpt lat="42.55067353136837482452392578125" lon="-0.320328511297702789306640625">
        <ele>853.20001220703125</ele>
        <time>2020-08-18T13:09:36.000Z</time>
      </trkpt>
      <trkpt lat="42.550619803369045257568359375" lon="-0.3205414116382598876953125">
        <ele>852.5999755859375</ele>
        <time>2020-08-18T13:09:38.000Z</time>
      </trkpt>
      <trkpt lat="42.5505200587213039398193359375" lon="-0.32085984013974666595458984375">
        <ele>851.5999755859375</ele>
        <time>2020-08-18T13:09:41.000Z</time>
      </trkpt>
      <trkpt lat="42.550483681261539459228515625" lon="-0.32096846960484981536865234375">
        <ele>850.20001220703125</ele>
        <time>2020-08-18T13:09:42.000Z</time>
      </trkpt>
      <trkpt lat="42.55044621415436267852783203125" lon="-0.3210786916315555572509765625">
        <ele>849.5999755859375</ele>
        <time>2020-08-18T13:09:43.000Z</time>
      </trkpt>
      <trkpt lat="42.55040698684751987457275390625" lon="-0.32119142822921276092529296875">
        <ele>849</ele>
        <time>2020-08-18T13:09:44.000Z</time>
      </trkpt>
      <trkpt lat="42.55028997547924518585205078125" lon="-0.32154195941984653472900390625">
        <ele>847.79998779296875</ele>
        <time>2020-08-18T13:09:47.000Z</time>
      </trkpt>
      <trkpt lat="42.55021520890295505523681640625" lon="-0.32178126275539398193359375">
        <ele>846.4000244140625</ele>
        <time>2020-08-18T13:09:49.000Z</time>
      </trkpt>
      <trkpt lat="42.5501770712435245513916015625" lon="-0.321899950504302978515625">
        <ele>845</ele>
        <time>2020-08-18T13:09:50.000Z</time>
      </trkpt>
      <trkpt lat="42.55014002323150634765625" lon="-0.32201754860579967498779296875">
        <ele>844.20001220703125</ele>
        <time>2020-08-18T13:09:51.000Z</time>
      </trkpt>
      <trkpt lat="42.55010314285755157470703125" lon="-0.32213355414569377899169921875">
        <ele>843.79998779296875</ele>
        <time>2020-08-18T13:09:52.000Z</time>
      </trkpt>
      <trkpt lat="42.54999107681214809417724609375" lon="-0.3224726021289825439453125">
        <ele>842.4000244140625</ele>
        <time>2020-08-18T13:09:55.000Z</time>
      </trkpt>
      <trkpt lat="42.549881525337696075439453125" lon="-0.32280125655233860015869140625">
        <ele>841.4000244140625</ele>
        <time>2020-08-18T13:09:58.000Z</time>
      </trkpt>
      <trkpt lat="42.54985210485756397247314453125" lon="-0.32291256822645664215087890625">
        <ele>841.4000244140625</ele>
        <time>2020-08-18T13:09:59.000Z</time>
      </trkpt>
      <trkpt lat="42.54982955753803253173828125" lon="-0.32302505336701869964599609375">
        <ele>841</ele>
        <time>2020-08-18T13:10:00.000Z</time>
      </trkpt>
      <trkpt lat="42.54980432800948619842529296875" lon="-0.323252789676189422607421875">
        <ele>839.79998779296875</ele>
        <time>2020-08-18T13:10:02.000Z</time>
      </trkpt>
      <trkpt lat="42.5497961975634098052978515625" lon="-0.32336753793060779571533203125">
        <ele>839</ele>
        <time>2020-08-18T13:10:03.000Z</time>
      </trkpt>
      <trkpt lat="42.54979024641215801239013671875" lon="-0.3234811127185821533203125">
        <ele>838.5999755859375</ele>
        <time>2020-08-18T13:10:04.000Z</time>
      </trkpt>
      <trkpt lat="42.54980684258043766021728515625" lon="-0.32392275519669055938720703125">
        <ele>837.79998779296875</ele>
        <time>2020-08-18T13:10:08.000Z</time>
      </trkpt>
      <trkpt lat="42.549819834530353546142578125" lon="-0.3240264393389225006103515625">
        <ele>837.5999755859375</ele>
        <time>2020-08-18T13:10:09.000Z</time>
      </trkpt>
      <trkpt lat="42.549850009381771087646484375" lon="-0.32432273961603641510009765625">
        <ele>836.4000244140625</ele>
        <time>2020-08-18T13:10:12.000Z</time>
      </trkpt>
      <trkpt lat="42.54984506405889987945556640625" lon="-0.32442013733088970184326171875">
        <ele>836</ele>
        <time>2020-08-18T13:10:13.000Z</time>
      </trkpt>
      <trkpt lat="42.549750097095966339111328125" lon="-0.325070656836032867431640625">
        <ele>836.20001220703125</ele>
        <time>2020-08-18T13:10:20.000Z</time>
      </trkpt>
      <trkpt lat="42.54972587339580059051513671875" lon="-0.32524357549846172332763671875">
        <ele>835.20001220703125</ele>
        <time>2020-08-18T13:10:22.000Z</time>
      </trkpt>
      <trkpt lat="42.54967340268194675445556640625" lon="-0.32564976252615451812744140625">
        <ele>833.79998779296875</ele>
        <time>2020-08-18T13:10:27.000Z</time>
      </trkpt>
      <trkpt lat="42.549665272235870361328125" lon="-0.325724780559539794921875">
        <ele>833.5999755859375</ele>
        <time>2020-08-18T13:10:28.000Z</time>
      </trkpt>
      <trkpt lat="42.549634091556072235107421875" lon="-0.325959809124469757080078125">
        <ele>833</ele>
        <time>2020-08-18T13:10:32.000Z</time>
      </trkpt>
      <trkpt lat="42.54963216371834278106689453125" lon="-0.32598428428173065185546875">
        <ele>833</ele>
        <time>2020-08-18T13:10:33.000Z</time>
      </trkpt>
      <trkpt lat="42.5496329180896282196044921875" lon="-0.32598939724266529083251953125">
        <ele>833.4000244140625</ele>
        <time>2020-08-18T13:10:38.000Z</time>
      </trkpt>
      <trkpt lat="42.5496349297463893890380859375" lon="-0.3260015510022640228271484375">
        <ele>833.4000244140625</ele>
        <time>2020-08-18T13:10:43.000Z</time>
      </trkpt>
      <trkpt lat="42.54965362139046192169189453125" lon="-0.326046645641326904296875">
        <ele>833.4000244140625</ele>
        <time>2020-08-18T13:10:45.000Z</time>
      </trkpt>
      <trkpt lat="42.54971983842551708221435546875" lon="-0.32613038085401058197021484375">
        <ele>833.4000244140625</ele>
        <time>2020-08-18T13:10:48.000Z</time>
      </trkpt>
      <trkpt lat="42.5497713871300220489501953125" lon="-0.32619441859424114227294921875">
        <ele>833.20001220703125</ele>
        <time>2020-08-18T13:10:50.000Z</time>
      </trkpt>
      <trkpt lat="42.5499319843947887420654296875" lon="-0.3264461271464824676513671875">
        <ele>833.20001220703125</ele>
        <time>2020-08-18T13:10:57.000Z</time>
      </trkpt>
      <trkpt lat="42.54996232688426971435546875" lon="-0.3266918845474720001220703125">
        <ele>832.79998779296875</ele>
        <time>2020-08-18T13:11:02.000Z</time>
      </trkpt>
      <trkpt lat="42.54996224306523799896240234375" lon="-0.32674427144229412078857421875">
        <ele>832.79998779296875</ele>
        <time>2020-08-18T13:11:03.000Z</time>
      </trkpt>
      <trkpt lat="42.54996391944587230682373046875" lon="-0.32706496305763721466064453125">
        <ele>832</ele>
        <time>2020-08-18T13:11:09.000Z</time>
      </trkpt>
      <trkpt lat="42.54996609874069690704345703125" lon="-0.32724970020353794097900390625">
        <ele>831.79998779296875</ele>
        <time>2020-08-18T13:11:12.000Z</time>
      </trkpt>
      <trkpt lat="42.549966014921665191650390625" lon="-0.32738850452005863189697265625">
        <ele>830.79998779296875</ele>
        <time>2020-08-18T13:11:14.000Z</time>
      </trkpt>
      <trkpt lat="42.5499571301043033599853515625" lon="-0.32776870764791965484619140625">
        <ele>831.5999755859375</ele>
        <time>2020-08-18T13:11:19.000Z</time>
      </trkpt>
      <trkpt lat="42.54995654337108135223388671875" lon="-0.3279146365821361541748046875">
        <ele>829.79998779296875</ele>
        <time>2020-08-18T13:11:21.000Z</time>
      </trkpt>
      <trkpt lat="42.54996375180780887603759765625" lon="-0.32813600264489650726318359375">
        <ele>828.5999755859375</ele>
        <time>2020-08-18T13:11:24.000Z</time>
      </trkpt>
      <trkpt lat="42.5499643385410308837890625" lon="-0.3282851167023181915283203125">
        <ele>828.79998779296875</ele>
        <time>2020-08-18T13:11:26.000Z</time>
      </trkpt>
      <trkpt lat="42.54995067603886127471923828125" lon="-0.3285962529480457305908203125">
        <ele>828.5999755859375</ele>
        <time>2020-08-18T13:11:31.000Z</time>
      </trkpt>
      <trkpt lat="42.5499524362385272979736328125" lon="-0.32878358848392963409423828125">
        <ele>827.5999755859375</ele>
        <time>2020-08-18T13:11:36.000Z</time>
      </trkpt>
      <trkpt lat="42.54995696246623992919921875" lon="-0.3289834968745708465576171875">
        <ele>828</ele>
        <time>2020-08-18T13:11:42.000Z</time>
      </trkpt>
      <trkpt lat="42.54996492527425289154052734375" lon="-0.32916060648858547210693359375">
        <ele>828.79998779296875</ele>
        <time>2020-08-18T13:11:49.000Z</time>
      </trkpt>
      <trkpt lat="42.54996626637876033782958984375" lon="-0.32919698394834995269775390625">
        <ele>829</ele>
        <time>2020-08-18T13:11:51.000Z</time>
      </trkpt>
      <trkpt lat="42.549973390996456146240234375" lon="-0.3293060325086116790771484375">
        <ele>828.79998779296875</ele>
        <time>2020-08-18T13:11:54.000Z</time>
      </trkpt>
      <trkpt lat="42.54997305572032928466796875" lon="-0.32950275577604770660400390625">
        <ele>828.79998779296875</ele>
        <time>2020-08-18T13:11:59.000Z</time>
      </trkpt>
      <trkpt lat="42.5499765761196613311767578125" lon="-0.3295692242681980133056640625">
        <ele>829</ele>
        <time>2020-08-18T13:12:02.000Z</time>
      </trkpt>
      <trkpt lat="42.549978755414485931396484375" lon="-0.32963016070425510406494140625">
        <ele>829.20001220703125</ele>
        <time>2020-08-18T13:12:07.000Z</time>
      </trkpt>
      <trkpt lat="42.5499906577169895172119140625" lon="-0.3298354335129261016845703125">
        <ele>829</ele>
        <time>2020-08-18T13:12:12.000Z</time>
      </trkpt>
      <trkpt lat="42.54998822696506977081298828125" lon="-0.32999091781675815582275390625">
        <ele>829.79998779296875</ele>
        <time>2020-08-18T13:12:18.000Z</time>
      </trkpt>
      <trkpt lat="42.54998554475605487823486328125" lon="-0.3300148062407970428466796875">
        <ele>830</ele>
        <time>2020-08-18T13:12:19.000Z</time>
      </trkpt>
      <trkpt lat="42.54997330717742443084716796875" lon="-0.33005587756633758544921875">
        <ele>830.4000244140625</ele>
        <time>2020-08-18T13:12:21.000Z</time>
      </trkpt>
      <trkpt lat="42.54993625916540622711181640625" lon="-0.33010742627084255218505859375">
        <ele>831</ele>
        <time>2020-08-18T13:12:24.000Z</time>
      </trkpt>
      <trkpt lat="42.54992284812033176422119140625" lon="-0.3301224298775196075439453125">
        <ele>831</ele>
        <time>2020-08-18T13:12:25.000Z</time>
      </trkpt>
      <trkpt lat="42.54985562525689601898193359375" lon="-0.33017934300005435943603515625">
        <ele>832.4000244140625</ele>
        <time>2020-08-18T13:12:30.000Z</time>
      </trkpt>
      <trkpt lat="42.54976727999746799468994140625" lon="-0.3302751481533050537109375">
        <ele>832.5999755859375</ele>
        <time>2020-08-18T13:12:37.000Z</time>
      </trkpt>
      <trkpt lat="42.5496151484549045562744140625" lon="-0.3304124437272548675537109375">
        <ele>832.20001220703125</ele>
        <time>2020-08-18T13:12:44.000Z</time>
      </trkpt>
      <trkpt lat="42.549512051045894622802734375" lon="-0.330371372401714324951171875">
        <ele>832</ele>
        <time>2020-08-18T13:12:48.000Z</time>
      </trkpt>
      <trkpt lat="42.54942194558680057525634765625" lon="-0.33027539961040019989013671875">
        <ele>833.4000244140625</ele>
        <time>2020-08-18T13:12:53.000Z</time>
      </trkpt>
      <trkpt lat="42.54935975186526775360107421875" lon="-0.3302434645593166351318359375">
        <ele>834</ele>
        <time>2020-08-18T13:12:56.000Z</time>
      </trkpt>
      <trkpt lat="42.549289762973785400390625" lon="-0.3302431292831897735595703125">
        <ele>834.4000244140625</ele>
        <time>2020-08-18T13:12:59.000Z</time>
      </trkpt>
      <trkpt lat="42.54920150153338909149169921875" lon="-0.33025310374796390533447265625">
        <ele>834.5999755859375</ele>
        <time>2020-08-18T13:13:03.000Z</time>
      </trkpt>
      <trkpt lat="42.5490595959126949310302734375" lon="-0.3303301334381103515625">
        <ele>834.4000244140625</ele>
        <time>2020-08-18T13:13:09.000Z</time>
      </trkpt>
      <trkpt lat="42.5489063747227191925048828125" lon="-0.33037698827683925628662109375">
        <ele>833.20001220703125</ele>
        <time>2020-08-18T13:13:14.000Z</time>
      </trkpt>
      <trkpt lat="42.54886907525360584259033203125" lon="-0.3303752280771732330322265625">
        <ele>833.20001220703125</ele>
        <time>2020-08-18T13:13:15.000Z</time>
      </trkpt>
      <trkpt lat="42.548783160746097564697265625" lon="-0.33037514425814151763916015625">
        <ele>833</ele>
        <time>2020-08-18T13:13:17.000Z</time>
      </trkpt>
      <trkpt lat="42.54868827760219573974609375" lon="-0.33040431328117847442626953125">
        <ele>832.20001220703125</ele>
        <time>2020-08-18T13:13:19.000Z</time>
      </trkpt>
      <trkpt lat="42.54864268004894256591796875" lon="-0.3304349072277545928955078125">
        <ele>831.79998779296875</ele>
        <time>2020-08-18T13:13:20.000Z</time>
      </trkpt>
      <trkpt lat="42.5485043786466121673583984375" lon="-0.330559797585010528564453125">
        <ele>831.20001220703125</ele>
        <time>2020-08-18T13:13:23.000Z</time>
      </trkpt>
      <trkpt lat="42.54845685325562953948974609375" lon="-0.3306077420711517333984375">
        <ele>830.5999755859375</ele>
        <time>2020-08-18T13:13:24.000Z</time>
      </trkpt>
      <trkpt lat="42.548353336751461029052734375" lon="-0.33079893328249454498291015625">
        <ele>829.4000244140625</ele>
        <time>2020-08-18T13:13:27.000Z</time>
      </trkpt>
      <trkpt lat="42.54832559265196323394775390625" lon="-0.3308707661926746368408203125">
        <ele>829.20001220703125</ele>
        <time>2020-08-18T13:13:28.000Z</time>
      </trkpt>
      <trkpt lat="42.54826725460588932037353515625" lon="-0.3310062177479267120361328125">
        <ele>828.79998779296875</ele>
        <time>2020-08-18T13:13:30.000Z</time>
      </trkpt>
      <trkpt lat="42.5482056476175785064697265625" lon="-0.3311252407729625701904296875">
        <ele>828.20001220703125</ele>
        <time>2020-08-18T13:13:32.000Z</time>
      </trkpt>
      <trkpt lat="42.54817656241357326507568359375" lon="-0.331181399524211883544921875">
        <ele>828</ele>
        <time>2020-08-18T13:13:33.000Z</time>
      </trkpt>
      <trkpt lat="42.54798687994480133056640625" lon="-0.3315805457532405853271484375">
        <ele>827.5999755859375</ele>
        <time>2020-08-18T13:13:41.000Z</time>
      </trkpt>
      <trkpt lat="42.5478981994092464447021484375" lon="-0.33185488544404506683349609375">
        <ele>828</ele>
        <time>2020-08-18T13:13:48.000Z</time>
      </trkpt>
      <trkpt lat="42.54781865514814853668212890625" lon="-0.33213199116289615631103515625">
        <ele>828.4000244140625</ele>
        <time>2020-08-18T13:13:57.000Z</time>
      </trkpt>
      <trkpt lat="42.54778579808771610260009765625" lon="-0.332374982535839080810546875">
        <ele>829.4000244140625</ele>
        <time>2020-08-18T13:14:05.000Z</time>
      </trkpt>
      <trkpt lat="42.547778673470020294189453125" lon="-0.332401804625988006591796875">
        <ele>830</ele>
        <time>2020-08-18T13:14:06.000Z</time>
      </trkpt>
      <trkpt lat="42.547766268253326416015625" lon="-0.3324546106159687042236328125">
        <ele>830.5999755859375</ele>
        <time>2020-08-18T13:14:08.000Z</time>
      </trkpt>
      <trkpt lat="42.547719664871692657470703125" lon="-0.3326007910072803497314453125">
        <ele>831.5999755859375</ele>
        <time>2020-08-18T13:14:14.000Z</time>
      </trkpt>
      <trkpt lat="42.54771103151142597198486328125" lon="-0.33262467943131923675537109375">
        <ele>831.5999755859375</ele>
        <time>2020-08-18T13:14:15.000Z</time>
      </trkpt>
      <trkpt lat="42.5476898252964019775390625" lon="-0.33278795890510082244873046875">
        <ele>832.20001220703125</ele>
        <time>2020-08-18T13:14:21.000Z</time>
      </trkpt>
      <trkpt lat="42.5476926751434803009033203125" lon="-0.3328455425798892974853515625">
        <ele>832.79998779296875</ele>
        <time>2020-08-18T13:14:23.000Z</time>
      </trkpt>
      <trkpt lat="42.5477087683975696563720703125" lon="-0.33304394222795963287353515625">
        <ele>833.4000244140625</ele>
        <time>2020-08-18T13:14:30.000Z</time>
      </trkpt>
      <trkpt lat="42.54770784638822078704833984375" lon="-0.33309607766568660736083984375">
        <ele>833.79998779296875</ele>
        <time>2020-08-18T13:14:32.000Z</time>
      </trkpt>
      <trkpt lat="42.54768538288772106170654296875" lon="-0.3332049585878849029541015625">
        <ele>835</ele>
        <time>2020-08-18T13:14:36.000Z</time>
      </trkpt>
      <trkpt lat="42.54766761325299739837646484375" lon="-0.333472676575183868408203125">
        <ele>836.20001220703125</ele>
        <time>2020-08-18T13:14:46.000Z</time>
      </trkpt>
      <trkpt lat="42.5476574711501598358154296875" lon="-0.33367954194545745849609375">
        <ele>836.20001220703125</ele>
        <time>2020-08-18T13:14:53.000Z</time>
      </trkpt>
      <trkpt lat="42.547650597989559173583984375" lon="-0.33391012810170650482177734375">
        <ele>835.4000244140625</ele>
        <time>2020-08-18T13:14:59.000Z</time>
      </trkpt>
      <trkpt lat="42.547657303512096405029296875" lon="-0.33407525159418582916259765625">
        <ele>835</ele>
        <time>2020-08-18T13:15:03.000Z</time>
      </trkpt>
      <trkpt lat="42.5476675294339656829833984375" lon="-0.33421439118683338165283203125">
        <ele>834</ele>
        <time>2020-08-18T13:15:06.000Z</time>
      </trkpt>
      <trkpt lat="42.54766375757753849029541015625" lon="-0.33453114330768585205078125">
        <ele>834.4000244140625</ele>
        <time>2020-08-18T13:15:13.000Z</time>
      </trkpt>
      <trkpt lat="42.547591589391231536865234375" lon="-0.3345889784395694732666015625">
        <ele>834.4000244140625</ele>
        <time>2020-08-18T13:15:16.000Z</time>
      </trkpt>
      <trkpt lat="42.54743275232613086700439453125" lon="-0.3345168940722942352294921875">
        <ele>834.5999755859375</ele>
        <time>2020-08-18T13:15:22.000Z</time>
      </trkpt>
      <trkpt lat="42.54731020890176296234130859375" lon="-0.334435589611530303955078125">
        <ele>835.4000244140625</ele>
        <time>2020-08-18T13:15:27.000Z</time>
      </trkpt>
      <trkpt lat="42.54724332131445407867431640625" lon="-0.33438823185861110687255859375">
        <ele>835.5999755859375</ele>
        <time>2020-08-18T13:15:30.000Z</time>
      </trkpt>
      <trkpt lat="42.54703997634351253509521484375" lon="-0.334275662899017333984375">
        <ele>836.4000244140625</ele>
        <time>2020-08-18T13:15:39.000Z</time>
      </trkpt>
      <trkpt lat="42.5470164231956005096435546875" lon="-0.334266610443592071533203125">
        <ele>836.4000244140625</ele>
        <time>2020-08-18T13:15:40.000Z</time>
      </trkpt>
      <trkpt lat="42.5469688139855861663818359375" lon="-0.33424858935177326202392578125">
        <ele>836.4000244140625</ele>
        <time>2020-08-18T13:15:42.000Z</time>
      </trkpt>
      <trkpt lat="42.54680327139794826507568359375" lon="-0.3342262096703052520751953125">
        <ele>836.5999755859375</ele>
        <time>2020-08-18T13:15:49.000Z</time>
      </trkpt>
      <trkpt lat="42.5466459430754184722900390625" lon="-0.3342178277671337127685546875">
        <ele>837.5999755859375</ele>
        <time>2020-08-18T13:15:56.000Z</time>
      </trkpt>
      <trkpt lat="42.5466016866266727447509765625" lon="-0.33420969732105731964111328125">
        <ele>837.79998779296875</ele>
        <time>2020-08-18T13:15:58.000Z</time>
      </trkpt>
      <trkpt lat="42.54642139188945293426513671875" lon="-0.3342138044536113739013671875">
        <ele>838.5999755859375</ele>
        <time>2020-08-18T13:16:06.000Z</time>
      </trkpt>
      <trkpt lat="42.54623933695256710052490234375" lon="-0.334248505532741546630859375">
        <ele>838.79998779296875</ele>
        <time>2020-08-18T13:16:13.000Z</time>
      </trkpt>
      <trkpt lat="42.54621150903403759002685546875" lon="-0.33425152301788330078125">
        <ele>838.79998779296875</ele>
        <time>2020-08-18T13:16:14.000Z</time>
      </trkpt>
      <trkpt lat="42.5459891371428966522216796875" lon="-0.334270633757114410400390625">
        <ele>838.5999755859375</ele>
        <time>2020-08-18T13:16:21.000Z</time>
      </trkpt>
      <trkpt lat="42.5457889772951602935791015625" lon="-0.334282033145427703857421875">
        <ele>838</ele>
        <time>2020-08-18T13:16:27.000Z</time>
      </trkpt>
      <trkpt lat="42.54555948078632354736328125" lon="-0.334313549101352691650390625">
        <ele>838.20001220703125</ele>
        <time>2020-08-18T13:16:34.000Z</time>
      </trkpt>
      <trkpt lat="42.5452972948551177978515625" lon="-0.33436350524425506591796875">
        <ele>838.4000244140625</ele>
        <time>2020-08-18T13:16:42.000Z</time>
      </trkpt>
      <trkpt lat="42.545264102518558502197265625" lon="-0.334364511072635650634765625">
        <ele>837.79998779296875</ele>
        <time>2020-08-18T13:16:43.000Z</time>
      </trkpt>
      <trkpt lat="42.54503552801907062530517578125" lon="-0.33442779444158077239990234375">
        <ele>839.20001220703125</ele>
        <time>2020-08-18T13:16:50.000Z</time>
      </trkpt>
      <trkpt lat="42.54481307230889797210693359375" lon="-0.334532819688320159912109375">
        <ele>839</ele>
        <time>2020-08-18T13:16:58.000Z</time>
      </trkpt>
      <trkpt lat="42.5447268225252628326416015625" lon="-0.3346020542085170745849609375">
        <ele>839.4000244140625</ele>
        <time>2020-08-18T13:17:03.000Z</time>
      </trkpt>
      <trkpt lat="42.5445766188204288482666015625" lon="-0.3347006253898143768310546875">
        <ele>838.4000244140625</ele>
        <time>2020-08-18T13:17:10.000Z</time>
      </trkpt>
      <trkpt lat="42.54437503404915332794189453125" lon="-0.3348672576248645782470703125">
        <ele>839.4000244140625</ele>
        <time>2020-08-18T13:17:17.000Z</time>
      </trkpt>
      <trkpt lat="42.544126845896244049072265625" lon="-0.33510773442685604095458984375">
        <ele>839</ele>
        <time>2020-08-18T13:17:26.000Z</time>
      </trkpt>
      <trkpt lat="42.543950490653514862060546875" lon="-0.33532734028995037078857421875">
        <ele>838.79998779296875</ele>
        <time>2020-08-18T13:17:33.000Z</time>
      </trkpt>
      <trkpt lat="42.54369626753032207489013671875" lon="-0.33561618067324161529541015625">
        <ele>838</ele>
        <time>2020-08-18T13:17:43.000Z</time>
      </trkpt>
      <trkpt lat="42.54357472993433475494384765625" lon="-0.33576336689293384552001953125">
        <ele>839.4000244140625</ele>
        <time>2020-08-18T13:17:48.000Z</time>
      </trkpt>
      <trkpt lat="42.54347817040979862213134765625" lon="-0.33587467856705188751220703125">
        <ele>840</ele>
        <time>2020-08-18T13:17:52.000Z</time>
      </trkpt>
      <trkpt lat="42.54330198280513286590576171875" lon="-0.33607148565351963043212890625">
        <ele>839.20001220703125</ele>
        <time>2020-08-18T13:17:59.000Z</time>
      </trkpt>
      <trkpt lat="42.54315278492867946624755859375" lon="-0.3363035805523395538330078125">
        <ele>838.5999755859375</ele>
        <time>2020-08-18T13:18:06.000Z</time>
      </trkpt>
      <trkpt lat="42.5429994799196720123291015625" lon="-0.33651421777904033660888671875">
        <ele>838.79998779296875</ele>
        <time>2020-08-18T13:18:13.000Z</time>
      </trkpt>
      <trkpt lat="42.54279420711100101470947265625" lon="-0.33671655692160129547119140625">
        <ele>839</ele>
        <time>2020-08-18T13:18:21.000Z</time>
      </trkpt>
      <trkpt lat="42.5425964780151844024658203125" lon="-0.33688872121274471282958984375">
        <ele>840</ele>
        <time>2020-08-18T13:18:28.000Z</time>
      </trkpt>
      <trkpt lat="42.54235985688865184783935546875" lon="-0.3370814211666584014892578125">
        <ele>839.79998779296875</ele>
        <time>2020-08-18T13:18:36.000Z</time>
      </trkpt>
      <trkpt lat="42.5422454439103603363037109375" lon="-0.3372463770210742950439453125">
        <ele>839.20001220703125</ele>
        <time>2020-08-18T13:18:41.000Z</time>
      </trkpt>
      <trkpt lat="42.5421361438930034637451171875" lon="-0.3374438546597957611083984375">
        <ele>839.5999755859375</ele>
        <time>2020-08-18T13:18:47.000Z</time>
      </trkpt>
      <trkpt lat="42.54198652692139148712158203125" lon="-0.33764275722205638885498046875">
        <ele>840</ele>
        <time>2020-08-18T13:18:53.000Z</time>
      </trkpt>
      <trkpt lat="42.541792653501033782958984375" lon="-0.33799530006945133209228515625">
        <ele>840.5999755859375</ele>
        <time>2020-08-18T13:19:02.000Z</time>
      </trkpt>
      <trkpt lat="42.5417475588619709014892578125" lon="-0.33807073719799518585205078125">
        <ele>840.79998779296875</ele>
        <time>2020-08-18T13:19:04.000Z</time>
      </trkpt>
      <trkpt lat="42.54162509925663471221923828125" lon="-0.33825463615357875823974609375">
        <ele>840.79998779296875</ele>
        <time>2020-08-18T13:19:09.000Z</time>
      </trkpt>
      <trkpt lat="42.54149031825363636016845703125" lon="-0.3384423069655895233154296875">
        <ele>840.20001220703125</ele>
        <time>2020-08-18T13:19:15.000Z</time>
      </trkpt>
      <trkpt lat="42.5413609854876995086669921875" lon="-0.3386847116053104400634765625">
        <ele>840.5999755859375</ele>
        <time>2020-08-18T13:19:21.000Z</time>
      </trkpt>
      <trkpt lat="42.54119141958653926849365234375" lon="-0.3389572910964488983154296875">
        <ele>840.4000244140625</ele>
        <time>2020-08-18T13:19:28.000Z</time>
      </trkpt>
      <trkpt lat="42.54117004573345184326171875" lon="-0.33900196664035320281982421875">
        <ele>839.5999755859375</ele>
        <time>2020-08-18T13:19:29.000Z</time>
      </trkpt>
      <trkpt lat="42.54103995859622955322265625" lon="-0.3392902202904224395751953125">
        <ele>839.4000244140625</ele>
        <time>2020-08-18T13:19:35.000Z</time>
      </trkpt>
      <trkpt lat="42.54085547290742397308349609375" lon="-0.33964687027037143707275390625">
        <ele>838.5999755859375</ele>
        <time>2020-08-18T13:19:43.000Z</time>
      </trkpt>
      <trkpt lat="42.54070334136486053466796875" lon="-0.33991031348705291748046875">
        <ele>839.20001220703125</ele>
        <time>2020-08-18T13:19:49.000Z</time>
      </trkpt>
      <trkpt lat="42.54051516763865947723388671875" lon="-0.340282805263996124267578125">
        <ele>839</ele>
        <time>2020-08-18T13:19:57.000Z</time>
      </trkpt>
      <trkpt lat="42.5403823144733905792236328125" lon="-0.3406016528606414794921875">
        <ele>838.20001220703125</ele>
        <time>2020-08-18T13:20:04.000Z</time>
      </trkpt>
      <trkpt lat="42.54026974551379680633544921875" lon="-0.34086249768733978271484375">
        <ele>837.79998779296875</ele>
        <time>2020-08-18T13:20:10.000Z</time>
      </trkpt>
      <trkpt lat="42.54025231115520000457763671875" lon="-0.34090633504092693328857421875">
        <ele>837.5999755859375</ele>
        <time>2020-08-18T13:20:11.000Z</time>
      </trkpt>
      <trkpt lat="42.5400976650416851043701171875" lon="-0.34126206301152706146240234375">
        <ele>838.20001220703125</ele>
        <time>2020-08-18T13:20:19.000Z</time>
      </trkpt>
      <trkpt lat="42.5399744510650634765625" lon="-0.34153296612203121185302734375">
        <ele>838.20001220703125</ele>
        <time>2020-08-18T13:20:25.000Z</time>
      </trkpt>
      <trkpt lat="42.53986137919127941131591796875" lon="-0.3418032824993133544921875">
        <ele>837.5999755859375</ele>
        <time>2020-08-18T13:20:32.000Z</time>
      </trkpt>
      <trkpt lat="42.53977085463702678680419921875" lon="-0.3419962339103221893310546875">
        <ele>837.5999755859375</ele>
        <time>2020-08-18T13:20:38.000Z</time>
      </trkpt>
      <trkpt lat="42.53962509334087371826171875" lon="-0.3422339446842670440673828125">
        <ele>838</ele>
        <time>2020-08-18T13:20:46.000Z</time>
      </trkpt>
      <trkpt lat="42.5394338183104991912841796875" lon="-0.34247676841914653778076171875">
        <ele>837.79998779296875</ele>
        <time>2020-08-18T13:20:54.000Z</time>
      </trkpt>
      <trkpt lat="42.5393657572567462921142578125" lon="-0.342564694583415985107421875">
        <ele>839</ele>
        <time>2020-08-18T13:20:57.000Z</time>
      </trkpt>
      <trkpt lat="42.5392730534076690673828125" lon="-0.34270509146153926849365234375">
        <ele>839.5999755859375</ele>
        <time>2020-08-18T13:21:02.000Z</time>
      </trkpt>
      <trkpt lat="42.5391743145883083343505859375" lon="-0.3428669460117816925048828125">
        <ele>839.5999755859375</ele>
        <time>2020-08-18T13:21:08.000Z</time>
      </trkpt>
      <trkpt lat="42.53911270759999752044677734375" lon="-0.34292603842914104461669921875">
        <ele>840</ele>
        <time>2020-08-18T13:21:11.000Z</time>
      </trkpt>
      <trkpt lat="42.53905872814357280731201171875" lon="-0.3430030681192874908447265625">
        <ele>841</ele>
        <time>2020-08-18T13:21:14.000Z</time>
      </trkpt>
      <trkpt lat="42.53904112614691257476806640625" lon="-0.343029387295246124267578125">
        <ele>841.4000244140625</ele>
        <time>2020-08-18T13:21:15.000Z</time>
      </trkpt>
      <trkpt lat="42.5388812832534313201904296875" lon="-0.34323113970458507537841796875">
        <ele>842.20001220703125</ele>
        <time>2020-08-18T13:21:22.000Z</time>
      </trkpt>
      <trkpt lat="42.5386325083673000335693359375" lon="-0.34345141611993312835693359375">
        <ele>840.79998779296875</ele>
        <time>2020-08-18T13:21:30.000Z</time>
      </trkpt>
      <trkpt lat="42.538598142564296722412109375" lon="-0.3434684313833713531494140625">
        <ele>840.4000244140625</ele>
        <time>2020-08-18T13:21:31.000Z</time>
      </trkpt>
      <trkpt lat="42.53837241791188716888427734375" lon="-0.3435542620718479156494140625">
        <ele>841</ele>
        <time>2020-08-18T13:21:37.000Z</time>
      </trkpt>
      <trkpt lat="42.53814853727817535400390625" lon="-0.34365870058536529541015625">
        <ele>839.5999755859375</ele>
        <time>2020-08-18T13:21:44.000Z</time>
      </trkpt>
      <trkpt lat="42.53797461278736591339111328125" lon="-0.34372081048786640167236328125">
        <ele>840.20001220703125</ele>
        <time>2020-08-18T13:21:50.000Z</time>
      </trkpt>
      <trkpt lat="42.53788542933762073516845703125" lon="-0.3437497280538082122802734375">
        <ele>839.4000244140625</ele>
        <time>2020-08-18T13:21:53.000Z</time>
      </trkpt>
      <trkpt lat="42.53777126781642436981201171875" lon="-0.3437913022935390472412109375">
        <ele>839</ele>
        <time>2020-08-18T13:21:57.000Z</time>
      </trkpt>
      <trkpt lat="42.53758166916668415069580078125" lon="-0.34390755929052829742431640625">
        <ele>839.4000244140625</ele>
        <time>2020-08-18T13:22:04.000Z</time>
      </trkpt>
      <trkpt lat="42.5372773222625255584716796875" lon="-0.344025157392024993896484375">
        <ele>839.5999755859375</ele>
        <time>2020-08-18T13:22:13.000Z</time>
      </trkpt>
      <trkpt lat="42.53709903918206691741943359375" lon="-0.34412280656397342681884765625">
        <ele>838.4000244140625</ele>
        <time>2020-08-18T13:22:19.000Z</time>
      </trkpt>
      <trkpt lat="42.536959983408451080322265625" lon="-0.34418642520904541015625">
        <ele>838.5999755859375</ele>
        <time>2020-08-18T13:22:24.000Z</time>
      </trkpt>
      <trkpt lat="42.53672956489026546478271484375" lon="-0.3442999161779880523681640625">
        <ele>837.79998779296875</ele>
        <time>2020-08-18T13:22:32.000Z</time>
      </trkpt>
      <trkpt lat="42.53649688325822353363037109375" lon="-0.344420112669467926025390625">
        <ele>838.4000244140625</ele>
        <time>2020-08-18T13:22:40.000Z</time>
      </trkpt>
      <trkpt lat="42.53617283888161182403564453125" lon="-0.34458674490451812744140625">
        <ele>838</ele>
        <time>2020-08-18T13:22:50.000Z</time>
      </trkpt>
      <trkpt lat="42.5361102260649204254150390625" lon="-0.34462085925042629241943359375">
        <ele>837.4000244140625</ele>
        <time>2020-08-18T13:22:52.000Z</time>
      </trkpt>
      <trkpt lat="42.535894811153411865234375" lon="-0.344747342169284820556640625">
        <ele>838</ele>
        <time>2020-08-18T13:22:59.000Z</time>
      </trkpt>
      <trkpt lat="42.53566841594874858856201171875" lon="-0.34487449564039707183837890625">
        <ele>837.4000244140625</ele>
        <time>2020-08-18T13:23:06.000Z</time>
      </trkpt>
      <trkpt lat="42.53555609844624996185302734375" lon="-0.34499100409448146820068359375">
        <ele>837.20001220703125</ele>
        <time>2020-08-18T13:23:11.000Z</time>
      </trkpt>
      <trkpt lat="42.5354732014238834381103515625" lon="-0.34506845287978649139404296875">
        <ele>837.79998779296875</ele>
        <time>2020-08-18T13:23:16.000Z</time>
      </trkpt>
      <trkpt lat="42.53538544289767742156982421875" lon="-0.34519434906542301177978515625">
        <ele>837.4000244140625</ele>
        <time>2020-08-18T13:23:23.000Z</time>
      </trkpt>
      <trkpt lat="42.53527563996613025665283203125" lon="-0.34528017975389957427978515625">
        <ele>837.4000244140625</ele>
        <time>2020-08-18T13:23:29.000Z</time>
      </trkpt>
      <trkpt lat="42.53509777598083019256591796875" lon="-0.3454760648310184478759765625">
        <ele>838.20001220703125</ele>
        <time>2020-08-18T13:23:37.000Z</time>
      </trkpt>
      <trkpt lat="42.534928880631923675537109375" lon="-0.34562987275421619415283203125">
        <ele>838.20001220703125</ele>
        <time>2020-08-18T13:23:44.000Z</time>
      </trkpt>
      <trkpt lat="42.53468119539320468902587890625" lon="-0.345895327627658843994140625">
        <ele>838.20001220703125</ele>
        <time>2020-08-18T13:23:53.000Z</time>
      </trkpt>
      <trkpt lat="42.53445446491241455078125" lon="-0.34614888019859790802001953125">
        <ele>838</ele>
        <time>2020-08-18T13:24:02.000Z</time>
      </trkpt>
      <trkpt lat="42.53434382379055023193359375" lon="-0.34635608084499835968017578125">
        <ele>836.5999755859375</ele>
        <time>2020-08-18T13:24:08.000Z</time>
      </trkpt>
      <trkpt lat="42.53432362340390682220458984375" lon="-0.3463844954967498779296875">
        <ele>836.4000244140625</ele>
        <time>2020-08-18T13:24:09.000Z</time>
      </trkpt>
      <trkpt lat="42.53418062813580036163330078125" lon="-0.34650108776986598968505859375">
        <ele>835.5999755859375</ele>
        <time>2020-08-18T13:24:15.000Z</time>
      </trkpt>
      <trkpt lat="42.53408306278288364410400390625" lon="-0.34662187099456787109375">
        <ele>833.5999755859375</ele>
        <time>2020-08-18T13:24:19.000Z</time>
      </trkpt>
      <trkpt lat="42.534022964537143707275390625" lon="-0.3467095457017421722412109375">
        <ele>832.4000244140625</ele>
        <time>2020-08-18T13:24:22.000Z</time>
      </trkpt>
      <trkpt lat="42.53390000201761722564697265625" lon="-0.34687559120357036590576171875">
        <ele>831.5999755859375</ele>
        <time>2020-08-18T13:24:27.000Z</time>
      </trkpt>
      <trkpt lat="42.53386932425200939178466796875" lon="-0.346905849874019622802734375">
        <ele>831.5999755859375</ele>
        <time>2020-08-18T13:24:28.000Z</time>
      </trkpt>
      <trkpt lat="42.53373303450644016265869140625" lon="-0.34703870303928852081298828125">
        <ele>830.5999755859375</ele>
        <time>2020-08-18T13:24:33.000Z</time>
      </trkpt>
      <trkpt lat="42.53370839171111583709716796875" lon="-0.347064100205898284912109375">
        <ele>830.5999755859375</ele>
        <time>2020-08-18T13:24:34.000Z</time>
      </trkpt>
      <trkpt lat="42.5336633808910846710205078125" lon="-0.34711246378719806671142578125">
        <ele>829</ele>
        <time>2020-08-18T13:24:36.000Z</time>
      </trkpt>
      <trkpt lat="42.533623985946178436279296875" lon="-0.347153283655643463134765625">
        <ele>827.79998779296875</ele>
        <time>2020-08-18T13:24:38.000Z</time>
      </trkpt>
      <trkpt lat="42.53358802758157253265380859375" lon="-0.3471906669437885284423828125">
        <ele>826.79998779296875</ele>
        <time>2020-08-18T13:24:40.000Z</time>
      </trkpt>
      <trkpt lat="42.5335691682994365692138671875" lon="-0.34720860421657562255859375">
        <ele>826.20001220703125</ele>
        <time>2020-08-18T13:24:41.000Z</time>
      </trkpt>
      <trkpt lat="42.5335277616977691650390625" lon="-0.34724908880889415740966796875">
        <ele>825.5999755859375</ele>
        <time>2020-08-18T13:24:43.000Z</time>
      </trkpt>
      <trkpt lat="42.533480823040008544921875" lon="-0.34730524756014347076416015625">
        <ele>824.20001220703125</ele>
        <time>2020-08-18T13:24:46.000Z</time>
      </trkpt>
      <trkpt lat="42.53345039673149585723876953125" lon="-0.34733877517282962799072265625">
        <ele>823.5999755859375</ele>
        <time>2020-08-18T13:24:48.000Z</time>
      </trkpt>
      <trkpt lat="42.53343497402966022491455078125" lon="-0.34736157394945621490478515625">
        <ele>823.20001220703125</ele>
        <time>2020-08-18T13:24:49.000Z</time>
      </trkpt>
      <trkpt lat="42.53332617692649364471435546875" lon="-0.3474736399948596954345703125">
        <ele>822.5999755859375</ele>
        <time>2020-08-18T13:24:54.000Z</time>
      </trkpt>
      <trkpt lat="42.53319206647574901580810546875" lon="-0.34747607074677944183349609375">
        <ele>823</ele>
        <time>2020-08-18T13:25:00.000Z</time>
      </trkpt>
      <trkpt lat="42.53311160020530223846435546875" lon="-0.34746953286230564117431640625">
        <ele>824.5999755859375</ele>
        <time>2020-08-18T13:25:04.000Z</time>
      </trkpt>
      <trkpt lat="42.53304965794086456298828125" lon="-0.34747456200420856475830078125">
        <ele>825</ele>
        <time>2020-08-18T13:25:07.000Z</time>
      </trkpt>
      <trkpt lat="42.53301168791949748992919921875" lon="-0.3474833630025386810302734375">
        <ele>825.5999755859375</ele>
        <time>2020-08-18T13:25:09.000Z</time>
      </trkpt>
      <trkpt lat="42.53293239511549472808837890625" lon="-0.34746785648167133331298828125">
        <ele>826.4000244140625</ele>
        <time>2020-08-18T13:25:13.000Z</time>
      </trkpt>
      <trkpt lat="42.53289534710347652435302734375" lon="-0.3474546968936920166015625">
        <ele>826.5999755859375</ele>
        <time>2020-08-18T13:25:15.000Z</time>
      </trkpt>
      <trkpt lat="42.53280985169112682342529296875" lon="-0.347421504557132720947265625">
        <ele>827.5999755859375</ele>
        <time>2020-08-18T13:25:20.000Z</time>
      </trkpt>
      <trkpt lat="42.5327579677104949951171875" lon="-0.3473958559334278106689453125">
        <ele>827.79998779296875</ele>
        <time>2020-08-18T13:25:24.000Z</time>
      </trkpt>
      <trkpt lat="42.53276056610047817230224609375" lon="-0.3473951853811740875244140625">
        <ele>827.79998779296875</ele>
        <time>2020-08-18T13:25:26.000Z</time>
      </trkpt>
      <trkpt lat="42.53276274539530277252197265625" lon="-0.3473941795527935028076171875">
        <ele>828.20001220703125</ele>
        <time>2020-08-18T13:25:45.000Z</time>
      </trkpt>
      <trkpt lat="42.5327631644904613494873046875" lon="-0.34739459864795207977294921875">
        <ele>828.4000244140625</ele>
        <time>2020-08-18T13:26:04.000Z</time>
      </trkpt>
      <trkpt lat="42.53273827023804187774658203125" lon="-0.34739493392407894134521484375">
        <ele>828.4000244140625</ele>
        <time>2020-08-18T13:26:12.000Z</time>
      </trkpt>
      <trkpt lat="42.53263064660131931304931640625" lon="-0.3473888151347637176513671875">
        <ele>828.5999755859375</ele>
        <time>2020-08-18T13:26:18.000Z</time>
      </trkpt>
      <trkpt lat="42.53258655779063701629638671875" lon="-0.3473901562392711639404296875">
        <ele>829</ele>
        <time>2020-08-18T13:26:20.000Z</time>
      </trkpt>
      <trkpt lat="42.5324758328497409820556640625" lon="-0.3473983705043792724609375">
        <ele>830</ele>
        <time>2020-08-18T13:26:26.000Z</time>
      </trkpt>
      <trkpt lat="42.53245957195758819580078125" lon="-0.34739929251372814178466796875">
        <ele>830.20001220703125</ele>
        <time>2020-08-18T13:26:27.000Z</time>
      </trkpt>
      <trkpt lat="42.53230869770050048828125" lon="-0.3474042378365993499755859375">
        <ele>830.5999755859375</ele>
        <time>2020-08-18T13:26:34.000Z</time>
      </trkpt>
      <trkpt lat="42.53210292197763919830322265625" lon="-0.3473408706486225128173828125">
        <ele>830.4000244140625</ele>
        <time>2020-08-18T13:26:42.000Z</time>
      </trkpt>
      <trkpt lat="42.53189588896930217742919921875" lon="-0.34732134081423282623291015625">
        <ele>830.4000244140625</ele>
        <time>2020-08-18T13:26:49.000Z</time>
      </trkpt>
      <trkpt lat="42.53167234361171722412109375" lon="-0.347286723554134368896484375">
        <ele>829.5999755859375</ele>
        <time>2020-08-18T13:26:56.000Z</time>
      </trkpt>
      <trkpt lat="42.53147880546748638153076171875" lon="-0.347321592271327972412109375">
        <ele>829</ele>
        <time>2020-08-18T13:27:02.000Z</time>
      </trkpt>
      <trkpt lat="42.53140814602375030517578125" lon="-0.34733642823994159698486328125">
        <ele>829</ele>
        <time>2020-08-18T13:27:04.000Z</time>
      </trkpt>
      <trkpt lat="42.5311615504324436187744140625" lon="-0.3473608195781707763671875">
        <ele>828.20001220703125</ele>
        <time>2020-08-18T13:27:11.000Z</time>
      </trkpt>
      <trkpt lat="42.5308856181800365447998046875" lon="-0.34736023284494876861572265625">
        <ele>828.5999755859375</ele>
        <time>2020-08-18T13:27:19.000Z</time>
      </trkpt>
      <trkpt lat="42.53072661347687244415283203125" lon="-0.34736325033009052276611328125">
        <ele>828</ele>
        <time>2020-08-18T13:27:23.000Z</time>
      </trkpt>
      <trkpt lat="42.5306837819516658782958984375" lon="-0.3473613224923610687255859375">
        <ele>827.79998779296875</ele>
        <time>2020-08-18T13:27:24.000Z</time>
      </trkpt>
      <trkpt lat="42.530599795281887054443359375" lon="-0.3473425470292568206787109375">
        <ele>827.4000244140625</ele>
        <time>2020-08-18T13:27:26.000Z</time>
      </trkpt>
      <trkpt lat="42.53052167594432830810546875" lon="-0.3473044931888580322265625">
        <ele>827</ele>
        <time>2020-08-18T13:27:28.000Z</time>
      </trkpt>
      <trkpt lat="42.53040374256670475006103515625" lon="-0.34727809019386768341064453125">
        <ele>826.79998779296875</ele>
        <time>2020-08-18T13:27:31.000Z</time>
      </trkpt>
      <trkpt lat="42.53026041202247142791748046875" lon="-0.3473100252449512481689453125">
        <ele>825.79998779296875</ele>
        <time>2020-08-18T13:27:35.000Z</time>
      </trkpt>
      <trkpt lat="42.53018983639776706695556640625" lon="-0.347328968346118927001953125">
        <ele>825.79998779296875</ele>
        <time>2020-08-18T13:27:37.000Z</time>
      </trkpt>
      <trkpt lat="42.5301225297152996063232421875" lon="-0.3473428823053836822509765625">
        <ele>827.20001220703125</ele>
        <time>2020-08-18T13:27:39.000Z</time>
      </trkpt>
      <trkpt lat="42.5298985652625560760498046875" lon="-0.34735587425529956817626953125">
        <ele>826.4000244140625</ele>
        <time>2020-08-18T13:27:45.000Z</time>
      </trkpt>
      <trkpt lat="42.52985858358442783355712890625" lon="-0.34736224450170993804931640625">
        <ele>826.20001220703125</ele>
        <time>2020-08-18T13:27:46.000Z</time>
      </trkpt>
      <trkpt lat="42.5298177637159824371337890625" lon="-0.347373895347118377685546875">
        <ele>826</ele>
        <time>2020-08-18T13:27:47.000Z</time>
      </trkpt>
      <trkpt lat="42.52970519475638866424560546875" lon="-0.34742427058517932891845703125">
        <ele>826</ele>
        <time>2020-08-18T13:27:50.000Z</time>
      </trkpt>
      <trkpt lat="42.529665715992450714111328125" lon="-0.3474370948970317840576171875">
        <ele>825.79998779296875</ele>
        <time>2020-08-18T13:27:51.000Z</time>
      </trkpt>
      <trkpt lat="42.52947804518043994903564453125" lon="-0.347463749349117279052734375">
        <ele>825.79998779296875</ele>
        <time>2020-08-18T13:27:56.000Z</time>
      </trkpt>
      <trkpt lat="42.5292139314115047454833984375" lon="-0.34752787090837955474853515625">
        <ele>826</ele>
        <time>2020-08-18T13:28:04.000Z</time>
      </trkpt>
      <trkpt lat="42.52896842546761035919189453125" lon="-0.347567684948444366455078125">
        <ele>825.20001220703125</ele>
        <time>2020-08-18T13:28:11.000Z</time>
      </trkpt>
      <trkpt lat="42.528910003602504730224609375" lon="-0.34758755005896091461181640625">
        <ele>824</ele>
        <time>2020-08-18T13:28:13.000Z</time>
      </trkpt>
      <trkpt lat="42.52885510213673114776611328125" lon="-0.34760749898850917816162109375">
        <ele>822.79998779296875</ele>
        <time>2020-08-18T13:28:15.000Z</time>
      </trkpt>
      <trkpt lat="42.52880514599382877349853515625" lon="-0.34761487506330013275146484375">
        <ele>822.20001220703125</ele>
        <time>2020-08-18T13:28:17.000Z</time>
      </trkpt>
      <trkpt lat="42.52875141799449920654296875" lon="-0.347632728517055511474609375">
        <ele>821.79998779296875</ele>
        <time>2020-08-18T13:28:19.000Z</time>
      </trkpt>
      <trkpt lat="42.528654523193836212158203125" lon="-0.34765678457915782928466796875">
        <ele>820.5999755859375</ele>
        <time>2020-08-18T13:28:22.000Z</time>
      </trkpt>
      <trkpt lat="42.52861487679183483123779296875" lon="-0.34767220728099346160888671875">
        <ele>820.4000244140625</ele>
        <time>2020-08-18T13:28:23.000Z</time>
      </trkpt>
      <trkpt lat="42.528528459370136260986328125" lon="-0.347729288041591644287109375">
        <ele>819.5999755859375</ele>
        <time>2020-08-18T13:28:25.000Z</time>
      </trkpt>
      <trkpt lat="42.52844120375812053680419921875" lon="-0.347816459834575653076171875">
        <ele>819.20001220703125</ele>
        <time>2020-08-18T13:28:27.000Z</time>
      </trkpt>
      <trkpt lat="42.52835445106029510498046875" lon="-0.34789181314408779144287109375">
        <ele>818.79998779296875</ele>
        <time>2020-08-18T13:28:29.000Z</time>
      </trkpt>
      <trkpt lat="42.528270967304706573486328125" lon="-0.3479279391467571258544921875">
        <ele>818.4000244140625</ele>
        <time>2020-08-18T13:28:31.000Z</time>
      </trkpt>
      <trkpt lat="42.52800886519253253936767578125" lon="-0.34801988862454891204833984375">
        <ele>817.5999755859375</ele>
        <time>2020-08-18T13:28:38.000Z</time>
      </trkpt>
      <trkpt lat="42.5277658738195896148681640625" lon="-0.34811711870133876800537109375">
        <ele>818.5999755859375</ele>
        <time>2020-08-18T13:28:45.000Z</time>
      </trkpt>
      <trkpt lat="42.5276840664446353912353515625" lon="-0.3481306135654449462890625">
        <ele>819.79998779296875</ele>
        <time>2020-08-18T13:28:48.000Z</time>
      </trkpt>
      <trkpt lat="42.5275670550763607025146484375" lon="-0.34816187806427478790283203125">
        <ele>819.5999755859375</ele>
        <time>2020-08-18T13:28:52.000Z</time>
      </trkpt>
      <trkpt lat="42.52736614085733890533447265625" lon="-0.34822206012904644012451171875">
        <ele>819.79998779296875</ele>
        <time>2020-08-18T13:28:58.000Z</time>
      </trkpt>
      <trkpt lat="42.5270591117441654205322265625" lon="-0.34826447255909442901611328125">
        <ele>819</ele>
        <time>2020-08-18T13:29:06.000Z</time>
      </trkpt>
      <trkpt lat="42.52685165964066982269287109375" lon="-0.34829867072403430938720703125">
        <ele>819.4000244140625</ele>
        <time>2020-08-18T13:29:12.000Z</time>
      </trkpt>
      <trkpt lat="42.526661641895771026611328125" lon="-0.34833387471735477447509765625">
        <ele>819.4000244140625</ele>
        <time>2020-08-18T13:29:18.000Z</time>
      </trkpt>
      <trkpt lat="42.5264650024473667144775390625" lon="-0.3483718447387218475341796875">
        <ele>819.79998779296875</ele>
        <time>2020-08-18T13:29:25.000Z</time>
      </trkpt>
      <trkpt lat="42.5262725539505481719970703125" lon="-0.34840210340917110443115234375">
        <ele>819.4000244140625</ele>
        <time>2020-08-18T13:29:31.000Z</time>
      </trkpt>
      <trkpt lat="42.52605806104838848114013671875" lon="-0.34843898378312587738037109375">
        <ele>819.4000244140625</ele>
        <time>2020-08-18T13:29:38.000Z</time>
      </trkpt>
      <trkpt lat="42.52583183348178863525390625" lon="-0.3484613634645938873291015625">
        <ele>818.5999755859375</ele>
        <time>2020-08-18T13:29:45.000Z</time>
      </trkpt>
      <trkpt lat="42.52580274827778339385986328125" lon="-0.34847552888095378875732421875">
        <ele>817.5999755859375</ele>
        <time>2020-08-18T13:29:46.000Z</time>
      </trkpt>
      <trkpt lat="42.52570283599197864532470703125" lon="-0.34850536845624446868896484375">
        <ele>816.4000244140625</ele>
        <time>2020-08-18T13:29:49.000Z</time>
      </trkpt>
      <trkpt lat="42.52566880546510219573974609375" lon="-0.348503105342388153076171875">
        <ele>815.79998779296875</ele>
        <time>2020-08-18T13:29:50.000Z</time>
      </trkpt>
      <trkpt lat="42.5256018340587615966796875" lon="-0.348478965461254119873046875">
        <ele>815.4000244140625</ele>
        <time>2020-08-18T13:29:52.000Z</time>
      </trkpt>
      <trkpt lat="42.525519691407680511474609375" lon="-0.3484439291059970855712890625">
        <ele>815</ele>
        <time>2020-08-18T13:29:55.000Z</time>
      </trkpt>
      <trkpt lat="42.525488846004009246826171875" lon="-0.34843848086893558502197265625">
        <ele>814.79998779296875</ele>
        <time>2020-08-18T13:29:59.000Z</time>
      </trkpt>
      <trkpt lat="42.5254729203879833221435546875" lon="-0.3484402410686016082763671875">
        <ele>814.4000244140625</ele>
        <time>2020-08-18T13:30:14.000Z</time>
      </trkpt>
      <trkpt lat="42.525441907346248626708984375" lon="-0.3484536521136760711669921875">
        <ele>814.20001220703125</ele>
        <time>2020-08-18T13:30:23.000Z</time>
      </trkpt>
      <trkpt lat="42.52537451684474945068359375" lon="-0.34849229268729686737060546875">
        <ele>814.20001220703125</ele>
        <time>2020-08-18T13:30:28.000Z</time>
      </trkpt>
      <trkpt lat="42.5253636203706264495849609375" lon="-0.34849698655307292938232421875">
        <ele>814.20001220703125</ele>
        <time>2020-08-18T13:30:29.000Z</time>
      </trkpt>
      <trkpt lat="42.52536244690418243408203125" lon="-0.34850050695240497589111328125">
        <ele>814.79998779296875</ele>
        <time>2020-08-18T13:30:32.000Z</time>
      </trkpt>
      <trkpt lat="42.5253632850944995880126953125" lon="-0.34850268624722957611083984375">
        <ele>814.4000244140625</ele>
        <time>2020-08-18T13:30:41.000Z</time>
      </trkpt>
      <trkpt lat="42.525351047515869140625" lon="-0.3484953939914703369140625">
        <ele>814.4000244140625</ele>
        <time>2020-08-18T13:30:47.000Z</time>
      </trkpt>
      <trkpt lat="42.52532028593122959136962890625" lon="-0.34848139621317386627197265625">
        <ele>814.79998779296875</ele>
        <time>2020-08-18T13:30:59.000Z</time>
      </trkpt>
      <trkpt lat="42.52526831813156604766845703125" lon="-0.3484593518078327178955078125">
        <ele>814.20001220703125</ele>
        <time>2020-08-18T13:31:06.000Z</time>
      </trkpt>
      <trkpt lat="42.525246776640415191650390625" lon="-0.348464213311672210693359375">
        <ele>814.5999755859375</ele>
        <time>2020-08-18T13:31:12.000Z</time>
      </trkpt>
      <trkpt lat="42.52516304142773151397705078125" lon="-0.3484804742038249969482421875">
        <ele>814.79998779296875</ele>
        <time>2020-08-18T13:31:20.000Z</time>
      </trkpt>
      <trkpt lat="42.52507519908249378204345703125" lon="-0.348505116999149322509765625">
        <ele>814.5999755859375</ele>
        <time>2020-08-18T13:31:28.000Z</time>
      </trkpt>
      <trkpt lat="42.52501937560737133026123046875" lon="-0.34852380864322185516357421875">
        <ele>815</ele>
        <time>2020-08-18T13:31:35.000Z</time>
      </trkpt>
      <trkpt lat="42.52491761930286884307861328125" lon="-0.34855968318879604339599609375">
        <ele>814.79998779296875</ele>
        <time>2020-08-18T13:31:45.000Z</time>
      </trkpt>
      <trkpt lat="42.5248161144554615020751953125" lon="-0.34862573258578777313232421875">
        <ele>814.79998779296875</ele>
        <time>2020-08-18T13:31:54.000Z</time>
      </trkpt>
      <trkpt lat="42.52472332678735256195068359375" lon="-0.34868650138378143310546875">
        <ele>815</ele>
        <time>2020-08-18T13:32:02.000Z</time>
      </trkpt>
      <trkpt lat="42.52465744502842426300048828125" lon="-0.34872061572968959808349609375">
        <ele>815.5999755859375</ele>
        <time>2020-08-18T13:32:09.000Z</time>
      </trkpt>
      <trkpt lat="42.52456474117934703826904296875" lon="-0.34879873506724834442138671875">
        <ele>816</ele>
        <time>2020-08-18T13:32:18.000Z</time>
      </trkpt>
      <trkpt lat="42.524513863027095794677734375" lon="-0.34886914305388927459716796875">
        <ele>817</ele>
        <time>2020-08-18T13:32:26.000Z</time>
      </trkpt>
      <trkpt lat="42.52451076172292232513427734375" lon="-0.34887618385255336761474609375">
        <ele>817</ele>
        <time>2020-08-18T13:32:27.000Z</time>
      </trkpt>
      <trkpt lat="42.5244972668588161468505859375" lon="-0.3489106334745883941650390625">
        <ele>817.79998779296875</ele>
        <time>2020-08-18T13:32:33.000Z</time>
      </trkpt>
      <trkpt lat="42.52449475228786468505859375" lon="-0.3489102981984615325927734375">
        <ele>818</ele>
        <time>2020-08-18T13:32:46.000Z</time>
      </trkpt>
      <trkpt lat="42.52449248917400836944580078125" lon="-0.34891759045422077178955078125">
        <ele>818</ele>
        <time>2020-08-18T13:32:54.000Z</time>
      </trkpt>
      <trkpt lat="42.52447589300572872161865234375" lon="-0.34895430319011211395263671875">
        <ele>818.20001220703125</ele>
        <time>2020-08-18T13:33:01.000Z</time>
      </trkpt>
      <trkpt lat="42.5244697742164134979248046875" lon="-0.3489706479012966156005859375">
        <ele>818.20001220703125</ele>
        <time>2020-08-18T13:33:02.000Z</time>
      </trkpt>
      <trkpt lat="42.52446935512125492095947265625" lon="-0.34908883273601531982421875">
        <ele>819</ele>
        <time>2020-08-18T13:33:08.000Z</time>
      </trkpt>
      <trkpt lat="42.5244754739105701446533203125" lon="-0.34917089156806468963623046875">
        <ele>819.20001220703125</ele>
        <time>2020-08-18T13:33:12.000Z</time>
      </trkpt>
      <trkpt lat="42.52446650527417659759521484375" lon="-0.3492341749370098114013671875">
        <ele>819.79998779296875</ele>
        <time>2020-08-18T13:33:15.000Z</time>
      </trkpt>
      <trkpt lat="42.5244603864848613739013671875" lon="-0.3492767550051212310791015625">
        <ele>820.4000244140625</ele>
        <time>2020-08-18T13:33:17.000Z</time>
      </trkpt>
      <trkpt lat="42.52444236539304256439208984375" lon="-0.34938178025186061859130859375">
        <ele>821.5999755859375</ele>
        <time>2020-08-18T13:33:22.000Z</time>
      </trkpt>
      <trkpt lat="42.52443549223244190216064453125" lon="-0.34946836531162261962890625">
        <ele>822.4000244140625</ele>
        <time>2020-08-18T13:33:26.000Z</time>
      </trkpt>
      <trkpt lat="42.52443616278469562530517578125" lon="-0.34949175082147121429443359375">
        <ele>822.5999755859375</ele>
        <time>2020-08-18T13:33:27.000Z</time>
      </trkpt>
      <trkpt lat="42.524433396756649017333984375" lon="-0.34959174692630767822265625">
        <ele>823.79998779296875</ele>
        <time>2020-08-18T13:33:32.000Z</time>
      </trkpt>
      <trkpt lat="42.52442643977701663970947265625" lon="-0.34961010329425334930419921875">
        <ele>824</ele>
        <time>2020-08-18T13:33:33.000Z</time>
      </trkpt>
      <trkpt lat="42.52440112642943859100341796875" lon="-0.34965804778039455413818359375">
        <ele>824.79998779296875</ele>
        <time>2020-08-18T13:33:36.000Z</time>
      </trkpt>
      <trkpt lat="42.52436156384646892547607421875" lon="-0.34971504472196102142333984375">
        <ele>825.4000244140625</ele>
        <time>2020-08-18T13:33:40.000Z</time>
      </trkpt>
      <trkpt lat="42.52432870678603649139404296875" lon="-0.34975460730493068695068359375">
        <ele>826</ele>
        <time>2020-08-18T13:33:43.000Z</time>
      </trkpt>
      <trkpt lat="42.52428763546049594879150390625" lon="-0.34980498254299163818359375">
        <ele>826.5999755859375</ele>
        <time>2020-08-18T13:33:47.000Z</time>
      </trkpt>
      <trkpt lat="42.52424472011625766754150390625" lon="-0.3498789109289646148681640625">
        <ele>827</ele>
        <time>2020-08-18T13:33:53.000Z</time>
      </trkpt>
      <trkpt lat="42.52424136735498905181884765625" lon="-0.349904559552669525146484375">
        <ele>827.4000244140625</ele>
        <time>2020-08-18T13:33:55.000Z</time>
      </trkpt>
      <trkpt lat="42.52423969097435474395751953125" lon="-0.34994152374565601348876953125">
        <ele>827.5999755859375</ele>
        <time>2020-08-18T13:33:57.000Z</time>
      </trkpt>
      <trkpt lat="42.524247653782367706298828125" lon="-0.3499620594084262847900390625">
        <ele>827.5999755859375</ele>
        <time>2020-08-18T13:33:58.000Z</time>
      </trkpt>
      <trkpt lat="42.5242803432047367095947265625" lon="-0.35003271885216236114501953125">
        <ele>827.79998779296875</ele>
        <time>2020-08-18T13:34:01.000Z</time>
      </trkpt>
      <trkpt lat="42.52433113753795623779296875" lon="-0.35007865168154239654541015625">
        <ele>828</ele>
        <time>2020-08-18T13:34:04.000Z</time>
      </trkpt>
      <trkpt lat="42.52448427490890026092529296875" lon="-0.35020052455365657806396484375">
        <ele>827.79998779296875</ele>
        <time>2020-08-18T13:34:12.000Z</time>
      </trkpt>
      <trkpt lat="42.5245566107332706451416015625" lon="-0.3503422625362873077392578125">
        <ele>828</ele>
        <time>2020-08-18T13:34:17.000Z</time>
      </trkpt>
      <trkpt lat="42.52459558658301830291748046875" lon="-0.3504666499793529510498046875">
        <ele>827.4000244140625</ele>
        <time>2020-08-18T13:34:21.000Z</time>
      </trkpt>
      <trkpt lat="42.524602711200714111328125" lon="-0.35049640573561191558837890625">
        <ele>827.20001220703125</ele>
        <time>2020-08-18T13:34:22.000Z</time>
      </trkpt>
      <trkpt lat="42.5246229954063892364501953125" lon="-0.35058592446148395538330078125">
        <ele>827.5999755859375</ele>
        <time>2020-08-18T13:34:25.000Z</time>
      </trkpt>
      <trkpt lat="42.52462961710989475250244140625" lon="-0.35066840238869190216064453125">
        <ele>828</ele>
        <time>2020-08-18T13:34:27.000Z</time>
      </trkpt>
      <trkpt lat="42.524661384522914886474609375" lon="-0.3509323485195636749267578125">
        <ele>827.5999755859375</ele>
        <time>2020-08-18T13:34:33.000Z</time>
      </trkpt>
      <trkpt lat="42.52469860017299652099609375" lon="-0.3511187620460987091064453125">
        <ele>828.4000244140625</ele>
        <time>2020-08-18T13:34:37.000Z</time>
      </trkpt>
      <trkpt lat="42.52473589964210987091064453125" lon="-0.35125563852488994598388671875">
        <ele>829</ele>
        <time>2020-08-18T13:34:40.000Z</time>
      </trkpt>
      <trkpt lat="42.52484989352524280548095703125" lon="-0.35154841840267181396484375">
        <ele>828.79998779296875</ele>
        <time>2020-08-18T13:34:47.000Z</time>
      </trkpt>
      <trkpt lat="42.5249710120260715484619140625" lon="-0.3518037311732769012451171875">
        <ele>828.5999755859375</ele>
        <time>2020-08-18T13:34:54.000Z</time>
      </trkpt>
      <trkpt lat="42.525080479681491851806640625" lon="-0.35201084800064563751220703125">
        <ele>828.5999755859375</ele>
        <time>2020-08-18T13:35:00.000Z</time>
      </trkpt>
      <trkpt lat="42.52513856627047061920166015625" lon="-0.35210690461099147796630859375">
        <ele>829.4000244140625</ele>
        <time>2020-08-18T13:35:03.000Z</time>
      </trkpt>
      <trkpt lat="42.5252523086965084075927734375" lon="-0.3523207269608974456787109375">
        <ele>829.20001220703125</ele>
        <time>2020-08-18T13:35:09.000Z</time>
      </trkpt>
      <trkpt lat="42.52541516907513141632080078125" lon="-0.35261468030512332916259765625">
        <ele>830</ele>
        <time>2020-08-18T13:35:17.000Z</time>
      </trkpt>
      <trkpt lat="42.5254528038203716278076171875" lon="-0.35268743522465229034423828125">
        <ele>830.4000244140625</ele>
        <time>2020-08-18T13:35:19.000Z</time>
      </trkpt>
      <trkpt lat="42.52547241747379302978515625" lon="-0.35272322595119476318359375">
        <ele>830.4000244140625</ele>
        <time>2020-08-18T13:35:20.000Z</time>
      </trkpt>
      <trkpt lat="42.52557434141635894775390625" lon="-0.3529478609561920166015625">
        <ele>830.4000244140625</ele>
        <time>2020-08-18T13:35:26.000Z</time>
      </trkpt>
      <trkpt lat="42.52573234029114246368408203125" lon="-0.3533126413822174072265625">
        <ele>830.4000244140625</ele>
        <time>2020-08-18T13:35:36.000Z</time>
      </trkpt>
      <trkpt lat="42.5258517824113368988037109375" lon="-0.35355730913579463958740234375">
        <ele>831.79998779296875</ele>
        <time>2020-08-18T13:35:43.000Z</time>
      </trkpt>
      <trkpt lat="42.5259040854871273040771484375" lon="-0.35366208292543888092041015625">
        <ele>831.20001220703125</ele>
        <time>2020-08-18T13:35:46.000Z</time>
      </trkpt>
      <trkpt lat="42.5260284729301929473876953125" lon="-0.35390214063227176666259765625">
        <ele>831.4000244140625</ele>
        <time>2020-08-18T13:35:53.000Z</time>
      </trkpt>
      <trkpt lat="42.52607197500765323638916015625" lon="-0.35409257747232913970947265625">
        <ele>831.4000244140625</ele>
        <time>2020-08-18T13:35:58.000Z</time>
      </trkpt>
      <trkpt lat="42.52606376074254512786865234375" lon="-0.354334898293018341064453125">
        <ele>831.5999755859375</ele>
        <time>2020-08-18T13:36:04.000Z</time>
      </trkpt>
      <trkpt lat="42.52602939493954181671142578125" lon="-0.35460622049868106842041015625">
        <ele>832.5999755859375</ele>
        <time>2020-08-18T13:36:11.000Z</time>
      </trkpt>
      <trkpt lat="42.52605085261166095733642578125" lon="-0.35483085550367832183837890625">
        <ele>832.20001220703125</ele>
        <time>2020-08-18T13:36:17.000Z</time>
      </trkpt>
      <trkpt lat="42.526068203151226043701171875" lon="-0.35498390905559062957763671875">
        <ele>833</ele>
        <time>2020-08-18T13:36:21.000Z</time>
      </trkpt>
      <trkpt lat="42.5260951928794384002685546875" lon="-0.355140902101993560791015625">
        <ele>833.5999755859375</ele>
        <time>2020-08-18T13:36:25.000Z</time>
      </trkpt>
      <trkpt lat="42.52617783844470977783203125" lon="-0.35556041635572910308837890625">
        <ele>833.4000244140625</ele>
        <time>2020-08-18T13:36:35.000Z</time>
      </trkpt>
      <trkpt lat="42.5262541137635707855224609375" lon="-0.3558595664799213409423828125">
        <ele>833.79998779296875</ele>
        <time>2020-08-18T13:36:42.000Z</time>
      </trkpt>
      <trkpt lat="42.52631052397191524505615234375" lon="-0.35599778406322002410888671875">
        <ele>834</ele>
        <time>2020-08-18T13:36:46.000Z</time>
      </trkpt>
      <trkpt lat="42.5263218395411968231201171875" lon="-0.35603298805654048919677734375">
        <ele>834</ele>
        <time>2020-08-18T13:36:47.000Z</time>
      </trkpt>
      <trkpt lat="42.52639048732817173004150390625" lon="-0.35630556754767894744873046875">
        <ele>834.20001220703125</ele>
        <time>2020-08-18T13:36:54.000Z</time>
      </trkpt>
      <trkpt lat="42.5264655053615570068359375" lon="-0.356560461223125457763671875">
        <ele>834</ele>
        <time>2020-08-18T13:37:01.000Z</time>
      </trkpt>
      <trkpt lat="42.52654253505170345306396484375" lon="-0.3568311966955661773681640625">
        <ele>834</ele>
        <time>2020-08-18T13:37:08.000Z</time>
      </trkpt>
      <trkpt lat="42.52662803046405315399169921875" lon="-0.35726143978536128997802734375">
        <ele>834.79998779296875</ele>
        <time>2020-08-18T13:37:18.000Z</time>
      </trkpt>
      <trkpt lat="42.52669525332748889923095703125" lon="-0.35759420134127140045166015625">
        <ele>835.20001220703125</ele>
        <time>2020-08-18T13:37:26.000Z</time>
      </trkpt>
      <trkpt lat="42.52671084366738796234130859375" lon="-0.3576770983636379241943359375">
        <ele>835</ele>
        <time>2020-08-18T13:37:28.000Z</time>
      </trkpt>
      <trkpt lat="42.52675442956387996673583984375" lon="-0.35802058875560760498046875">
        <ele>835.79998779296875</ele>
        <time>2020-08-18T13:37:36.000Z</time>
      </trkpt>
      <trkpt lat="42.52673171460628509521484375" lon="-0.35834957845509052276611328125">
        <ele>835.79998779296875</ele>
        <time>2020-08-18T13:37:43.000Z</time>
      </trkpt>
      <trkpt lat="42.52675945870578289031982421875" lon="-0.358655266463756561279296875">
        <ele>835.79998779296875</ele>
        <time>2020-08-18T13:37:50.000Z</time>
      </trkpt>
      <trkpt lat="42.5268163718283176422119140625" lon="-0.35885953344404697418212890625">
        <ele>836.20001220703125</ele>
        <time>2020-08-18T13:37:55.000Z</time>
      </trkpt>
      <trkpt lat="42.52684663049876689910888671875" lon="-0.358937568962574005126953125">
        <ele>836.4000244140625</ele>
        <time>2020-08-18T13:37:57.000Z</time>
      </trkpt>
      <trkpt lat="42.52699264325201511383056640625" lon="-0.3592210449278354644775390625">
        <ele>836</ele>
        <time>2020-08-18T13:38:05.000Z</time>
      </trkpt>
      <trkpt lat="42.52716732211410999298095703125" lon="-0.35946856252849102020263671875">
        <ele>836.4000244140625</ele>
        <time>2020-08-18T13:38:13.000Z</time>
      </trkpt>
      <trkpt lat="42.5272327847778797149658203125" lon="-0.359553135931491851806640625">
        <ele>836.4000244140625</ele>
        <time>2020-08-18T13:38:17.000Z</time>
      </trkpt>
      <trkpt lat="42.52734049223363399505615234375" lon="-0.359488762915134429931640625">
        <ele>836.20001220703125</ele>
        <time>2020-08-18T13:41:13.000Z</time>
      </trkpt>
      <trkpt lat="42.5273404084146022796630859375" lon="-0.35948867909610271453857421875">
        <ele>836.4000244140625</ele>
        <time>2020-08-18T13:41:14.000Z</time>
      </trkpt>
      <trkpt lat="42.5273444317281246185302734375" lon="-0.359486751258373260498046875">
        <ele>836.79998779296875</ele>
        <time>2020-08-18T13:41:23.000Z</time>
      </trkpt>
      <trkpt lat="42.5273618660867214202880859375" lon="-0.35952153615653514862060546875">
        <ele>836</ele>
        <time>2020-08-18T13:41:32.000Z</time>
      </trkpt>
      <trkpt lat="42.5273742713034152984619140625" lon="-0.35952656529843807220458984375">
        <ele>837</ele>
        <time>2020-08-18T13:41:41.000Z</time>
      </trkpt>
      <trkpt lat="42.5274230539798736572265625" lon="-0.3594614379107952117919921875">
        <ele>835.5999755859375</ele>
        <time>2020-08-18T13:42:35.000Z</time>
      </trkpt>
      <trkpt lat="42.527350969612598419189453125" lon="-0.35916295833885669708251953125">
        <ele>835.5999755859375</ele>
        <time>2020-08-18T13:43:48.000Z</time>
      </trkpt>
      <trkpt lat="42.52739480696618556976318359375" lon="-0.359191708266735076904296875">
        <ele>835.79998779296875</ele>
        <time>2020-08-18T13:49:13.000Z</time>
      </trkpt>
      <trkpt lat="42.52762983553111553192138671875" lon="-0.35923152230679988861083984375">
        <ele>836</ele>
        <time>2020-08-18T13:53:22.000Z</time>
      </trkpt>
      <trkpt lat="42.5272599421441555023193359375" lon="-0.35910151898860931396484375">
        <ele>836</ele>
        <time>2020-08-18T13:56:19.000Z</time>
      </trkpt>
      <trkpt lat="42.52743721939623355865478515625" lon="-0.35904946736991405487060546875">
        <ele>837.20001220703125</ele>
        <time>2020-08-18T13:59:20.000Z</time>
      </trkpt>
      <trkpt lat="42.5272166915237903594970703125" lon="-0.35910931415855884552001953125">
        <ele>837.4000244140625</ele>
        <time>2020-08-18T14:02:34.000Z</time>
      </trkpt>
      <trkpt lat="42.52719196490943431854248046875" lon="-0.3592096455395221710205078125">
        <ele>838</ele>
        <time>2020-08-18T14:04:32.000Z</time>
      </trkpt>
      <trkpt lat="42.5272840820252895355224609375" lon="-0.35958859138190746307373046875">
        <ele>840.20001220703125</ele>
        <time>2020-08-18T14:43:42.000Z</time>
      </trkpt>
      <trkpt lat="42.5272750295698642730712890625" lon="-0.35959110595285892486572265625">
        <ele>840.20001220703125</ele>
        <time>2020-08-18T14:43:46.000Z</time>
      </trkpt>
      <trkpt lat="42.52724711783230304718017578125" lon="-0.359569229185581207275390625">
        <ele>840</ele>
        <time>2020-08-18T14:43:48.000Z</time>
      </trkpt>
      <trkpt lat="42.52713982947170734405517578125" lon="-0.3594168461859226226806640625">
        <ele>840.20001220703125</ele>
        <time>2020-08-18T14:43:54.000Z</time>
      </trkpt>
      <trkpt lat="42.5269578583538532257080078125" lon="-0.359179973602294921875">
        <ele>839.79998779296875</ele>
        <time>2020-08-18T14:44:02.000Z</time>
      </trkpt>
      <trkpt lat="42.5268381647765636444091796875" lon="-0.35890663973987102508544921875">
        <ele>839.5999755859375</ele>
        <time>2020-08-18T14:44:10.000Z</time>
      </trkpt>
      <trkpt lat="42.52675878815352916717529296875" lon="-0.35860908217728137969970703125">
        <ele>840</ele>
        <time>2020-08-18T14:44:18.000Z</time>
      </trkpt>
      <trkpt lat="42.52674252726137638092041015625" lon="-0.35833784379065036773681640625">
        <ele>839.79998779296875</ele>
        <time>2020-08-18T14:44:25.000Z</time>
      </trkpt>
      <trkpt lat="42.526750154793262481689453125" lon="-0.3580891527235507965087890625">
        <ele>839.5999755859375</ele>
        <time>2020-08-18T14:44:32.000Z</time>
      </trkpt>
      <trkpt lat="42.52675258554518222808837890625" lon="-0.35785404033958911895751953125">
        <ele>840</ele>
        <time>2020-08-18T14:44:38.000Z</time>
      </trkpt>
      <trkpt lat="42.5267275236546993255615234375" lon="-0.3576630167663097381591796875">
        <ele>839.20001220703125</ele>
        <time>2020-08-18T14:44:43.000Z</time>
      </trkpt>
      <trkpt lat="42.52672039903700351715087890625" lon="-0.35762219689786434173583984375">
        <ele>839</ele>
        <time>2020-08-18T14:44:44.000Z</time>
      </trkpt>
      <trkpt lat="42.5266376696527004241943359375" lon="-0.3571872599422931671142578125">
        <ele>838.5999755859375</ele>
        <time>2020-08-18T14:44:54.000Z</time>
      </trkpt>
      <trkpt lat="42.5265592150390148162841796875" lon="-0.3568372316658496856689453125">
        <ele>838.20001220703125</ele>
        <time>2020-08-18T14:45:02.000Z</time>
      </trkpt>
      <trkpt lat="42.5265513360500335693359375" lon="-0.3567956574261188507080078125">
        <ele>837.79998779296875</ele>
        <time>2020-08-18T14:45:03.000Z</time>
      </trkpt>
      <trkpt lat="42.52645569853484630584716796875" lon="-0.35648946650326251983642578125">
        <ele>838.20001220703125</ele>
        <time>2020-08-18T14:45:11.000Z</time>
      </trkpt>
      <trkpt lat="42.52644396387040615081787109375" lon="-0.35645040683448314666748046875">
        <ele>838</ele>
        <time>2020-08-18T14:45:12.000Z</time>
      </trkpt>
      <trkpt lat="42.526358552277088165283203125" lon="-0.35617045126855373382568359375">
        <ele>838</ele>
        <time>2020-08-18T14:45:19.000Z</time>
      </trkpt>
      <trkpt lat="42.526282779872417449951171875" lon="-0.355921424925327301025390625">
        <ele>837.20001220703125</ele>
        <time>2020-08-18T14:45:26.000Z</time>
      </trkpt>
      <trkpt lat="42.526263333857059478759765625" lon="-0.355851352214813232421875">
        <ele>837</ele>
        <time>2020-08-18T14:45:28.000Z</time>
      </trkpt>
      <trkpt lat="42.52621404826641082763671875" lon="-0.3556335903704166412353515625">
        <ele>836.79998779296875</ele>
        <time>2020-08-18T14:45:33.000Z</time>
      </trkpt>
      <trkpt lat="42.52614657394587993621826171875" lon="-0.35533368587493896484375">
        <ele>836.4000244140625</ele>
        <time>2020-08-18T14:45:40.000Z</time>
      </trkpt>
      <trkpt lat="42.52607147209346294403076171875" lon="-0.35493931733071804046630859375">
        <ele>836.79998779296875</ele>
        <time>2020-08-18T14:45:49.000Z</time>
      </trkpt>
      <trkpt lat="42.5260388664901256561279296875" lon="-0.3547368943691253662109375">
        <ele>836</ele>
        <time>2020-08-18T14:45:54.000Z</time>
      </trkpt>
      <trkpt lat="42.52603727392852306365966796875" lon="-0.35469372756779193878173828125">
        <ele>835.5999755859375</ele>
        <time>2020-08-18T14:45:55.000Z</time>
      </trkpt>
      <trkpt lat="42.52606476657092571258544921875" lon="-0.354412011802196502685546875">
        <ele>835.4000244140625</ele>
        <time>2020-08-18T14:46:01.000Z</time>
      </trkpt>
      <trkpt lat="42.52608404494822025299072265625" lon="-0.3540299646556377410888671875">
        <ele>835</ele>
        <time>2020-08-18T14:46:08.000Z</time>
      </trkpt>
      <trkpt lat="42.52607566304504871368408203125" lon="-0.3539749793708324432373046875">
        <ele>834.5999755859375</ele>
        <time>2020-08-18T14:46:09.000Z</time>
      </trkpt>
      <trkpt lat="42.52600089646875858306884765625" lon="-0.35377909429371356964111328125">
        <ele>833.5999755859375</ele>
        <time>2020-08-18T14:46:13.000Z</time>
      </trkpt>
      <trkpt lat="42.525868713855743408203125" lon="-0.35355814732611179351806640625">
        <ele>834.20001220703125</ele>
        <time>2020-08-18T14:46:19.000Z</time>
      </trkpt>
      <trkpt lat="42.5257357768714427947998046875" lon="-0.3532977215945720672607421875">
        <ele>834</ele>
        <time>2020-08-18T14:46:26.000Z</time>
      </trkpt>
      <trkpt lat="42.52560057677328586578369140625" lon="-0.35297476686537265777587890625">
        <ele>833.79998779296875</ele>
        <time>2020-08-18T14:46:34.000Z</time>
      </trkpt>
      <trkpt lat="42.52547484822571277618408203125" lon="-0.35271593369543552398681640625">
        <ele>833.5999755859375</ele>
        <time>2020-08-18T14:46:41.000Z</time>
      </trkpt>
      <trkpt lat="42.5253515504300594329833984375" lon="-0.35246833227574825286865234375">
        <ele>833</ele>
        <time>2020-08-18T14:46:48.000Z</time>
      </trkpt>
      <trkpt lat="42.5252231396734714508056640625" lon="-0.35224570892751216888427734375">
        <ele>833</ele>
        <time>2020-08-18T14:46:54.000Z</time>
      </trkpt>
      <trkpt lat="42.52517611719667911529541015625" lon="-0.35215753130614757537841796875">
        <ele>832.79998779296875</ele>
        <time>2020-08-18T14:46:56.000Z</time>
      </trkpt>
      <trkpt lat="42.52505776472389698028564453125" lon="-0.3519408591091632843017578125">
        <ele>831.5999755859375</ele>
        <time>2020-08-18T14:47:01.000Z</time>
      </trkpt>
      <trkpt lat="42.524938322603702545166015625" lon="-0.351726450026035308837890625">
        <ele>831.79998779296875</ele>
        <time>2020-08-18T14:47:07.000Z</time>
      </trkpt>
      <trkpt lat="42.5248469598591327667236328125" lon="-0.35151145420968532562255859375">
        <ele>831.5999755859375</ele>
        <time>2020-08-18T14:47:13.000Z</time>
      </trkpt>
      <trkpt lat="42.524761967360973358154296875" lon="-0.35127927549183368682861328125">
        <ele>832</ele>
        <time>2020-08-18T14:47:19.000Z</time>
      </trkpt>
      <trkpt lat="42.52470790408551692962646484375" lon="-0.351031087338924407958984375">
        <ele>831.79998779296875</ele>
        <time>2020-08-18T14:47:26.000Z</time>
      </trkpt>
      <trkpt lat="42.5246669165790081024169921875" lon="-0.35077384673058986663818359375">
        <ele>831</ele>
        <time>2020-08-18T14:47:32.000Z</time>
      </trkpt>
      <trkpt lat="42.52464269287884235382080078125" lon="-0.35060704685747623443603515625">
        <ele>831</ele>
        <time>2020-08-18T14:47:36.000Z</time>
      </trkpt>
      <trkpt lat="42.52461721189320087432861328125" lon="-0.3505357168614864349365234375">
        <ele>830.4000244140625</ele>
        <time>2020-08-18T14:47:38.000Z</time>
      </trkpt>
      <trkpt lat="42.5245804153382778167724609375" lon="-0.35042750649154186248779296875">
        <ele>830</ele>
        <time>2020-08-18T14:47:41.000Z</time>
      </trkpt>
      <trkpt lat="42.52447421662509441375732421875" lon="-0.3502497263252735137939453125">
        <ele>831</ele>
        <time>2020-08-18T14:47:47.000Z</time>
      </trkpt>
      <trkpt lat="42.5243251025676727294921875" lon="-0.35013950429856777191162109375">
        <ele>831.20001220703125</ele>
        <time>2020-08-18T14:47:53.000Z</time>
      </trkpt>
      <trkpt lat="42.524148412048816680908203125" lon="-0.3500579483807086944580078125">
        <ele>831</ele>
        <time>2020-08-18T14:47:59.000Z</time>
      </trkpt>
      <trkpt lat="42.5239963643252849578857421875" lon="-0.35008552484214305877685546875">
        <ele>830.4000244140625</ele>
        <time>2020-08-18T14:48:04.000Z</time>
      </trkpt>
      <trkpt lat="42.5238270498812198638916015625" lon="-0.3501219861209392547607421875">
        <ele>830.5999755859375</ele>
        <time>2020-08-18T14:48:10.000Z</time>
      </trkpt>
      <trkpt lat="42.5236714817583560943603515625" lon="-0.3501367382705211639404296875">
        <ele>830.79998779296875</ele>
        <time>2020-08-18T14:48:15.000Z</time>
      </trkpt>
      <trkpt lat="42.52364289946854114532470703125" lon="-0.35015366971492767333984375">
        <ele>830.5999755859375</ele>
        <time>2020-08-18T14:48:16.000Z</time>
      </trkpt>
      <trkpt lat="42.52340367995202541351318359375" lon="-0.35030362196266651153564453125">
        <ele>831</ele>
        <time>2020-08-18T14:48:24.000Z</time>
      </trkpt>
      <trkpt lat="42.52311534248292446136474609375" lon="-0.3504740260541439056396484375">
        <ele>830.4000244140625</ele>
        <time>2020-08-18T14:48:33.000Z</time>
      </trkpt>
      <trkpt lat="42.52284117043018341064453125" lon="-0.3506533987820148468017578125">
        <ele>830.5999755859375</ele>
        <time>2020-08-18T14:48:42.000Z</time>
      </trkpt>
      <trkpt lat="42.52262433059513568878173828125" lon="-0.35080812871456146240234375">
        <ele>830.4000244140625</ele>
        <time>2020-08-18T14:48:49.000Z</time>
      </trkpt>
      <trkpt lat="42.522364743053913116455078125" lon="-0.3510158322751522064208984375">
        <ele>830.20001220703125</ele>
        <time>2020-08-18T14:48:58.000Z</time>
      </trkpt>
      <trkpt lat="42.5220732204616069793701171875" lon="-0.35124843008816242218017578125">
        <ele>830.20001220703125</ele>
        <time>2020-08-18T14:49:08.000Z</time>
      </trkpt>
      <trkpt lat="42.5218328274786472320556640625" lon="-0.3514339216053485870361328125">
        <ele>830</ele>
        <time>2020-08-18T14:49:16.000Z</time>
      </trkpt>
      <trkpt lat="42.521579526364803314208984375" lon="-0.3516277112066745758056640625">
        <ele>830</ele>
        <time>2020-08-18T14:49:24.000Z</time>
      </trkpt>
      <trkpt lat="42.52136997878551483154296875" lon="-0.35179543308913707733154296875">
        <ele>829.79998779296875</ele>
        <time>2020-08-18T14:49:31.000Z</time>
      </trkpt>
      <trkpt lat="42.521126903593540191650390625" lon="-0.3519660048186779022216796875">
        <ele>829.79998779296875</ele>
        <time>2020-08-18T14:49:39.000Z</time>
      </trkpt>
      <trkpt lat="42.52106554806232452392578125" lon="-0.35201101563870906829833984375">
        <ele>829.79998779296875</ele>
        <time>2020-08-18T14:49:41.000Z</time>
      </trkpt>
      <trkpt lat="42.52086647786200046539306640625" lon="-0.35216691903769969940185546875">
        <ele>829.5999755859375</ele>
        <time>2020-08-18T14:49:48.000Z</time>
      </trkpt>
      <trkpt lat="42.52075977623462677001953125" lon="-0.35230840556323528289794921875">
        <ele>829.79998779296875</ele>
        <time>2020-08-18T14:49:54.000Z</time>
      </trkpt>
      <trkpt lat="42.520757429301738739013671875" lon="-0.35232952795922756195068359375">
        <ele>829.79998779296875</ele>
        <time>2020-08-18T14:49:59.000Z</time>
      </trkpt>
      <trkpt lat="42.5207443535327911376953125" lon="-0.35239272750914096832275390625">
        <ele>829.79998779296875</ele>
        <time>2020-08-18T14:50:09.000Z</time>
      </trkpt>
      <trkpt lat="42.5206593610346317291259765625" lon="-0.35261099226772785186767578125">
        <ele>830</ele>
        <time>2020-08-18T14:50:15.000Z</time>
      </trkpt>
      <trkpt lat="42.52054763026535511016845703125" lon="-0.35270503722131252288818359375">
        <ele>830.4000244140625</ele>
        <time>2020-08-18T14:50:19.000Z</time>
      </trkpt>
      <trkpt lat="42.5203726999461650848388671875" lon="-0.3526975773274898529052734375">
        <ele>830.4000244140625</ele>
        <time>2020-08-18T14:50:24.000Z</time>
      </trkpt>
      <trkpt lat="42.5202052295207977294921875" lon="-0.35257511772215366363525390625">
        <ele>830</ele>
        <time>2020-08-18T14:50:29.000Z</time>
      </trkpt>
      <trkpt lat="42.52016457729041576385498046875" lon="-0.35257126204669475555419921875">
        <ele>830</ele>
        <time>2020-08-18T14:50:30.000Z</time>
      </trkpt>
      <trkpt lat="42.52004857175052165985107421875" lon="-0.3526275046169757843017578125">
        <ele>829.79998779296875</ele>
        <time>2020-08-18T14:50:33.000Z</time>
      </trkpt>
      <trkpt lat="42.51998822204768657684326171875" lon="-0.352702774107456207275390625">
        <ele>829.79998779296875</ele>
        <time>2020-08-18T14:50:35.000Z</time>
      </trkpt>
      <trkpt lat="42.51996240578591823577880859375" lon="-0.352745018899440765380859375">
        <ele>829.79998779296875</ele>
        <time>2020-08-18T14:50:36.000Z</time>
      </trkpt>
      <trkpt lat="42.519895099103450775146484375" lon="-0.352877788245677947998046875">
        <ele>829.79998779296875</ele>
        <time>2020-08-18T14:50:39.000Z</time>
      </trkpt>
      <trkpt lat="42.51985863782465457916259765625" lon="-0.352954901754856109619140625">
        <ele>829.4000244140625</ele>
        <time>2020-08-18T14:50:43.000Z</time>
      </trkpt>
      <trkpt lat="42.51986064948141574859619140625" lon="-0.35295389592647552490234375">
        <ele>829.4000244140625</ele>
        <time>2020-08-18T14:50:45.000Z</time>
      </trkpt>
      <trkpt lat="42.51986215822398662567138671875" lon="-0.352957248687744140625">
        <ele>829.5999755859375</ele>
        <time>2020-08-18T14:51:52.000Z</time>
      </trkpt>
      <trkpt lat="42.51985612325370311737060546875" lon="-0.3529523871839046478271484375">
        <ele>829.5999755859375</ele>
        <time>2020-08-18T14:51:57.000Z</time>
      </trkpt>
      <trkpt lat="42.5198540277779102325439453125" lon="-0.3529409877955913543701171875">
        <ele>829.5999755859375</ele>
        <time>2020-08-18T14:51:58.000Z</time>
      </trkpt>
      <trkpt lat="42.51989878714084625244140625" lon="-0.35290016792714595794677734375">
        <ele>829.5999755859375</ele>
        <time>2020-08-18T14:52:02.000Z</time>
      </trkpt>
      <trkpt lat="42.51992451958358287811279296875" lon="-0.3528662212193012237548828125">
        <ele>829.79998779296875</ele>
        <time>2020-08-18T14:52:04.000Z</time>
      </trkpt>
      <trkpt lat="42.52000817097723484039306640625" lon="-0.35273504443466663360595703125">
        <ele>830</ele>
        <time>2020-08-18T14:52:10.000Z</time>
      </trkpt>
      <trkpt lat="42.5200523436069488525390625" lon="-0.35267435945570468902587890625">
        <ele>829.79998779296875</ele>
        <time>2020-08-18T14:52:15.000Z</time>
      </trkpt>
      <trkpt lat="42.5201007910072803497314453125" lon="-0.3527059592306613922119140625">
        <ele>830</ele>
        <time>2020-08-18T14:52:21.000Z</time>
      </trkpt>
      <trkpt lat="42.52020900137722492218017578125" lon="-0.35280696116387844085693359375">
        <ele>830.20001220703125</ele>
        <time>2020-08-18T14:52:28.000Z</time>
      </trkpt>
      <trkpt lat="42.5202929042279720306396484375" lon="-0.35295884124934673309326171875">
        <ele>830.79998779296875</ele>
        <time>2020-08-18T14:52:34.000Z</time>
      </trkpt>
      <trkpt lat="42.52043900080025196075439453125" lon="-0.35317408852279186248779296875">
        <ele>831</ele>
        <time>2020-08-18T14:52:43.000Z</time>
      </trkpt>
      <trkpt lat="42.520597837865352630615234375" lon="-0.35334491170942783355712890625">
        <ele>831</ele>
        <time>2020-08-18T14:52:52.000Z</time>
      </trkpt>
      <trkpt lat="42.5207482092082500457763671875" lon="-0.3535340912640094757080078125">
        <ele>831</ele>
        <time>2020-08-18T14:53:01.000Z</time>
      </trkpt>
      <trkpt lat="42.5208772905170917510986328125" lon="-0.3536014817655086517333984375">
        <ele>831.4000244140625</ele>
        <time>2020-08-18T14:53:08.000Z</time>
      </trkpt>
      <trkpt lat="42.52092967741191387176513671875" lon="-0.35360441543161869049072265625">
        <ele>831.20001220703125</ele>
        <time>2020-08-18T14:53:13.000Z</time>
      </trkpt>
      <trkpt lat="42.52095616422593593597412109375" lon="-0.35360106267035007476806640625">
        <ele>831</ele>
        <time>2020-08-18T14:53:19.000Z</time>
      </trkpt>
      <trkpt lat="42.5209671445190906524658203125" lon="-0.35360340960323810577392578125">
        <ele>831</ele>
        <time>2020-08-18T14:53:20.000Z</time>
      </trkpt>
      <trkpt lat="42.5209964811801910400390625" lon="-0.3536546230316162109375">
        <ele>831.20001220703125</ele>
        <time>2020-08-18T14:53:23.000Z</time>
      </trkpt>
      <trkpt lat="42.52100519835948944091796875" lon="-0.35379518754780292510986328125">
        <ele>831.4000244140625</ele>
        <time>2020-08-18T14:53:28.000Z</time>
      </trkpt>
      <trkpt lat="42.5209932960569858551025390625" lon="-0.35385017283260822296142578125">
        <ele>831.4000244140625</ele>
        <time>2020-08-18T14:53:32.000Z</time>
      </trkpt>
      <trkpt lat="42.5210023485124111175537109375" lon="-0.3538633324205875396728515625">
        <ele>831.4000244140625</ele>
        <time>2020-08-18T14:53:34.000Z</time>
      </trkpt>
      <trkpt lat="42.52104752697050571441650390625" lon="-0.35387263633310794830322265625">
        <ele>831.4000244140625</ele>
        <time>2020-08-18T14:53:37.000Z</time>
      </trkpt>
      <trkpt lat="42.521067894995212554931640625" lon="-0.353867523372173309326171875">
        <ele>831.4000244140625</ele>
        <time>2020-08-18T14:53:38.000Z</time>
      </trkpt>
      <trkpt lat="42.5211646221578121185302734375" lon="-0.353830642998218536376953125">
        <ele>831.5999755859375</ele>
        <time>2020-08-18T14:53:42.000Z</time>
      </trkpt>
      <trkpt lat="42.5213158316910266876220703125" lon="-0.35386383533477783203125">
        <ele>831.4000244140625</ele>
        <time>2020-08-18T14:53:48.000Z</time>
      </trkpt>
      <trkpt lat="42.52153116278350353240966796875" lon="-0.3540909849107265472412109375">
        <ele>832.20001220703125</ele>
        <time>2020-08-18T14:53:58.000Z</time>
      </trkpt>
      <trkpt lat="42.52169410698115825653076171875" lon="-0.354268848896026611328125">
        <ele>832.79998779296875</ele>
        <time>2020-08-18T14:54:05.000Z</time>
      </trkpt>
      <trkpt lat="42.5217429734766483306884765625" lon="-0.35431486554443836212158203125">
        <ele>832.5999755859375</ele>
        <time>2020-08-18T14:54:07.000Z</time>
      </trkpt>
      <trkpt lat="42.5219689495861530303955078125" lon="-0.3545714356005191802978515625">
        <ele>832.79998779296875</ele>
        <time>2020-08-18T14:54:17.000Z</time>
      </trkpt>
      <trkpt lat="42.5221748091280460357666015625" lon="-0.35481459461152553558349609375">
        <ele>833.4000244140625</ele>
        <time>2020-08-18T14:54:26.000Z</time>
      </trkpt>
      <trkpt lat="42.522338926792144775390625" lon="-0.35502581857144832611083984375">
        <ele>833.79998779296875</ele>
        <time>2020-08-18T14:54:33.000Z</time>
      </trkpt>
      <trkpt lat="42.52238309942185878753662109375" lon="-0.35508625209331512451171875">
        <ele>833.79998779296875</ele>
        <time>2020-08-18T14:54:35.000Z</time>
      </trkpt>
      <trkpt lat="42.52248452045023441314697265625" lon="-0.35532362759113311767578125">
        <ele>833.79998779296875</ele>
        <time>2020-08-18T14:54:42.000Z</time>
      </trkpt>
      <trkpt lat="42.52244965173304080963134765625" lon="-0.3554693050682544708251953125">
        <ele>834</ele>
        <time>2020-08-18T14:54:46.000Z</time>
      </trkpt>
      <trkpt lat="42.52231570892035961151123046875" lon="-0.35577423870563507080078125">
        <ele>834.4000244140625</ele>
        <time>2020-08-18T14:54:55.000Z</time>
      </trkpt>
      <trkpt lat="42.5221453048288822174072265625" lon="-0.35605796612799167633056640625">
        <ele>834.5999755859375</ele>
        <time>2020-08-18T14:55:04.000Z</time>
      </trkpt>
      <trkpt lat="42.522062323987483978271484375" lon="-0.356185622513294219970703125">
        <ele>834.79998779296875</ele>
        <time>2020-08-18T14:55:08.000Z</time>
      </trkpt>
      <trkpt lat="42.521914131939411163330078125" lon="-0.35640011541545391082763671875">
        <ele>835.4000244140625</ele>
        <time>2020-08-18T14:55:15.000Z</time>
      </trkpt>
      <trkpt lat="42.52168673090636730194091796875" lon="-0.35673606209456920623779296875">
        <ele>834.79998779296875</ele>
        <time>2020-08-18T14:55:25.000Z</time>
      </trkpt>
      <trkpt lat="42.5214827992022037506103515625" lon="-0.35704015754163265228271484375">
        <ele>835.20001220703125</ele>
        <time>2020-08-18T14:55:34.000Z</time>
      </trkpt>
      <trkpt lat="42.52131205983459949493408203125" lon="-0.35736386664211750030517578125">
        <ele>835</ele>
        <time>2020-08-18T14:55:43.000Z</time>
      </trkpt>
      <trkpt lat="42.52111458219587802886962890625" lon="-0.3577451594173908233642578125">
        <ele>834.5999755859375</ele>
        <time>2020-08-18T14:55:53.000Z</time>
      </trkpt>
      <trkpt lat="42.5209178589284420013427734375" lon="-0.3580314852297306060791015625">
        <ele>834</ele>
        <time>2020-08-18T14:56:01.000Z</time>
      </trkpt>
      <trkpt lat="42.52069096080958843231201171875" lon="-0.35838075913488864898681640625">
        <ele>834</ele>
        <time>2020-08-18T14:56:10.000Z</time>
      </trkpt>
      <trkpt lat="42.520668916404247283935546875" lon="-0.3584187291562557220458984375">
        <ele>833.79998779296875</ele>
        <time>2020-08-18T14:56:11.000Z</time>
      </trkpt>
      <trkpt lat="42.52048728056252002716064453125" lon="-0.3587211482226848602294921875">
        <ele>833.20001220703125</ele>
        <time>2020-08-18T14:56:19.000Z</time>
      </trkpt>
      <trkpt lat="42.52032232470810413360595703125" lon="-0.35903773270547389984130859375">
        <ele>833.20001220703125</ele>
        <time>2020-08-18T14:56:27.000Z</time>
      </trkpt>
      <trkpt lat="42.52013222314417362213134765625" lon="-0.35938583314418792724609375">
        <ele>833</ele>
        <time>2020-08-18T14:56:36.000Z</time>
      </trkpt>
      <trkpt lat="42.51989752985537052154541015625" lon="-0.35978757776319980621337890625">
        <ele>833.20001220703125</ele>
        <time>2020-08-18T14:56:47.000Z</time>
      </trkpt>
      <trkpt lat="42.51970927231013774871826171875" lon="-0.36007641814649105072021484375">
        <ele>833.5999755859375</ele>
        <time>2020-08-18T14:56:56.000Z</time>
      </trkpt>
      <trkpt lat="42.519563175737857818603515625" lon="-0.36039509810507297515869140625">
        <ele>833.79998779296875</ele>
        <time>2020-08-18T14:57:05.000Z</time>
      </trkpt>
      <trkpt lat="42.5194205157458782196044921875" lon="-0.3606932424008846282958984375">
        <ele>834.5999755859375</ele>
        <time>2020-08-18T14:57:13.000Z</time>
      </trkpt>
      <trkpt lat="42.51931666396558284759521484375" lon="-0.36090740002691745758056640625">
        <ele>835</ele>
        <time>2020-08-18T14:57:19.000Z</time>
      </trkpt>
      <trkpt lat="42.51927508972585201263427734375" lon="-0.36096372641623020172119140625">
        <ele>835.20001220703125</ele>
        <time>2020-08-18T14:57:21.000Z</time>
      </trkpt>
      <trkpt lat="42.5191108882427215576171875" lon="-0.36120546050369739532470703125">
        <ele>835.79998779296875</ele>
        <time>2020-08-18T14:57:29.000Z</time>
      </trkpt>
      <trkpt lat="42.51902413554489612579345703125" lon="-0.36138466559350490570068359375">
        <ele>836.20001220703125</ele>
        <time>2020-08-18T14:57:35.000Z</time>
      </trkpt>
      <trkpt lat="42.519009970128536224365234375" lon="-0.36144903860986232757568359375">
        <ele>836.20001220703125</ele>
        <time>2020-08-18T14:57:37.000Z</time>
      </trkpt>
      <trkpt lat="42.51902639865875244140625" lon="-0.36151341162621974945068359375">
        <ele>836.4000244140625</ele>
        <time>2020-08-18T14:57:39.000Z</time>
      </trkpt>
      <trkpt lat="42.51906939782202243804931640625" lon="-0.3615716658532619476318359375">
        <ele>836.5999755859375</ele>
        <time>2020-08-18T14:57:41.000Z</time>
      </trkpt>
      <trkpt lat="42.519266791641712188720703125" lon="-0.36175690591335296630859375">
        <ele>837.20001220703125</ele>
        <time>2020-08-18T14:57:49.000Z</time>
      </trkpt>
      <trkpt lat="42.51928984187543392181396484375" lon="-0.36178112961351871490478515625">
        <ele>837.4000244140625</ele>
        <time>2020-08-18T14:57:50.000Z</time>
      </trkpt>
      <trkpt lat="42.51940215937793254852294921875" lon="-0.36188657395541667938232421875">
        <ele>838.4000244140625</ele>
        <time>2020-08-18T14:57:56.000Z</time>
      </trkpt>
      <trkpt lat="42.5194198451936244964599609375" lon="-0.361903421580791473388671875">
        <ele>838.5999755859375</ele>
        <time>2020-08-18T14:57:57.000Z</time>
      </trkpt>
      <trkpt lat="42.5194912590086460113525390625" lon="-0.3619776852428913116455078125">
        <ele>839.20001220703125</ele>
        <time>2020-08-18T14:58:02.000Z</time>
      </trkpt>
      <trkpt lat="42.51953023485839366912841796875" lon="-0.362050272524356842041015625">
        <ele>839.4000244140625</ele>
        <time>2020-08-18T14:58:08.000Z</time>
      </trkpt>
      <trkpt lat="42.51952889375388622283935546875" lon="-0.3620665334165096282958984375">
        <ele>839.5999755859375</ele>
        <time>2020-08-18T14:58:12.000Z</time>
      </trkpt>
      <trkpt lat="42.519533000886440277099609375" lon="-0.362100563943386077880859375">
        <ele>839.79998779296875</ele>
        <time>2020-08-18T14:58:14.000Z</time>
      </trkpt>
      <trkpt lat="42.519457228481769561767578125" lon="-0.3621832095086574554443359375">
        <ele>839.79998779296875</ele>
        <time>2020-08-18T14:58:19.000Z</time>
      </trkpt>
      <trkpt lat="42.5193028338253498077392578125" lon="-0.3623179905116558074951171875">
        <ele>840</ele>
        <time>2020-08-18T14:58:26.000Z</time>
      </trkpt>
      <trkpt lat="42.51916629262268543243408203125" lon="-0.36243961192667484283447265625">
        <ele>839.79998779296875</ele>
        <time>2020-08-18T14:58:32.000Z</time>
      </trkpt>
      <trkpt lat="42.51898423768579959869384765625" lon="-0.3625795058906078338623046875">
        <ele>840</ele>
        <time>2020-08-18T14:58:39.000Z</time>
      </trkpt>
      <trkpt lat="42.5188150070607662200927734375" lon="-0.362709425389766693115234375">
        <ele>840.20001220703125</ele>
        <time>2020-08-18T14:58:46.000Z</time>
      </trkpt>
      <trkpt lat="42.51879245974123477935791015625" lon="-0.36274664103984832763671875">
        <ele>840.20001220703125</ele>
        <time>2020-08-18T14:58:48.000Z</time>
      </trkpt>
      <trkpt lat="42.5187985785305500030517578125" lon="-0.3627712838351726531982421875">
        <ele>840.20001220703125</ele>
        <time>2020-08-18T14:58:49.000Z</time>
      </trkpt>
      <trkpt lat="42.51887175254523754119873046875" lon="-0.36293129436671733856201171875">
        <ele>840.79998779296875</ele>
        <time>2020-08-18T14:58:54.000Z</time>
      </trkpt>
      <trkpt lat="42.5189045257866382598876953125" lon="-0.36315492354333400726318359375">
        <ele>841.5999755859375</ele>
        <time>2020-08-18T14:58:59.000Z</time>
      </trkpt>
      <trkpt lat="42.51892455853521823883056640625" lon="-0.3632695041596889495849609375">
        <ele>842</ele>
        <time>2020-08-18T14:59:02.000Z</time>
      </trkpt>
      <trkpt lat="42.5189507938921451568603515625" lon="-0.36348869092762470245361328125">
        <ele>842.79998779296875</ele>
        <time>2020-08-18T14:59:08.000Z</time>
      </trkpt>
      <trkpt lat="42.5189742632210254669189453125" lon="-0.36360369063913822174072265625">
        <ele>843.4000244140625</ele>
        <time>2020-08-18T14:59:11.000Z</time>
      </trkpt>
      <trkpt lat="42.51897870562970638275146484375" lon="-0.3637727536261081695556640625">
        <ele>844</ele>
        <time>2020-08-18T14:59:15.000Z</time>
      </trkpt>
      <trkpt lat="42.51896278001368045806884765625" lon="-0.36409470252692699432373046875">
        <ele>843.5999755859375</ele>
        <time>2020-08-18T14:59:21.000Z</time>
      </trkpt>
      <trkpt lat="42.518943250179290771484375" lon="-0.36429469473659992218017578125">
        <ele>842.79998779296875</ele>
        <time>2020-08-18T14:59:24.000Z</time>
      </trkpt>
      <trkpt lat="42.51893746666610240936279296875" lon="-0.364439785480499267578125">
        <ele>842.4000244140625</ele>
        <time>2020-08-18T14:59:26.000Z</time>
      </trkpt>
      <trkpt lat="42.51893612556159496307373046875" lon="-0.36451145075261592864990234375">
        <ele>842.20001220703125</ele>
        <time>2020-08-18T14:59:27.000Z</time>
      </trkpt>
      <trkpt lat="42.51893143169581890106201171875" lon="-0.364584289491176605224609375">
        <ele>842</ele>
        <time>2020-08-18T14:59:28.000Z</time>
      </trkpt>
      <trkpt lat="42.518945597112178802490234375" lon="-0.36464774049818515777587890625">
        <ele>841.79998779296875</ele>
        <time>2020-08-18T14:59:29.000Z</time>
      </trkpt>
      <trkpt lat="42.51895640976727008819580078125" lon="-0.36471177823841571807861328125">
        <ele>841.79998779296875</ele>
        <time>2020-08-18T14:59:30.000Z</time>
      </trkpt>
      <trkpt lat="42.51896261237561702728271484375" lon="-0.36484949290752410888671875">
        <ele>841.4000244140625</ele>
        <time>2020-08-18T14:59:32.000Z</time>
      </trkpt>
      <trkpt lat="42.5189631991088390350341796875" lon="-0.36491445265710353851318359375">
        <ele>841.4000244140625</ele>
        <time>2020-08-18T14:59:33.000Z</time>
      </trkpt>
      <trkpt lat="42.51896311528980731964111328125" lon="-0.36497329361736774444580078125">
        <ele>841.20001220703125</ele>
        <time>2020-08-18T14:59:34.000Z</time>
      </trkpt>
      <trkpt lat="42.51895473338663578033447265625" lon="-0.36518971435725688934326171875">
        <ele>841.5999755859375</ele>
        <time>2020-08-18T14:59:39.000Z</time>
      </trkpt>
      <trkpt lat="42.5189311802387237548828125" lon="-0.36538182757794857025146484375">
        <ele>842.4000244140625</ele>
        <time>2020-08-18T14:59:44.000Z</time>
      </trkpt>
      <trkpt lat="42.5189284980297088623046875" lon="-0.36542206071317195892333984375">
        <ele>842.5999755859375</ele>
        <time>2020-08-18T14:59:45.000Z</time>
      </trkpt>
      <trkpt lat="42.5188968144357204437255859375" lon="-0.3656553290784358978271484375">
        <ele>842.79998779296875</ele>
        <time>2020-08-18T14:59:51.000Z</time>
      </trkpt>
      <trkpt lat="42.51888516359031200408935546875" lon="-0.3659218735992908477783203125">
        <ele>843.20001220703125</ele>
        <time>2020-08-18T14:59:58.000Z</time>
      </trkpt>
      <trkpt lat="42.5188937969505786895751953125" lon="-0.36595431156456470489501953125">
        <ele>843.20001220703125</ele>
        <time>2020-08-18T14:59:59.000Z</time>
      </trkpt>
      <trkpt lat="42.518892623484134674072265625" lon="-0.36600954830646514892578125">
        <ele>843.20001220703125</ele>
        <time>2020-08-18T15:00:01.000Z</time>
      </trkpt>
      <trkpt lat="42.518918104469776153564453125" lon="-0.36609445698559284210205078125">
        <ele>843.20001220703125</ele>
        <time>2020-08-18T15:00:04.000Z</time>
      </trkpt>
      <trkpt lat="42.5189216248691082000732421875" lon="-0.36612563766539096832275390625">
        <ele>843.4000244140625</ele>
        <time>2020-08-18T15:00:05.000Z</time>
      </trkpt>
      <trkpt lat="42.5189420767128467559814453125" lon="-0.3662491030991077423095703125">
        <ele>843.20001220703125</ele>
        <time>2020-08-18T15:00:09.000Z</time>
      </trkpt>
      <trkpt lat="42.5189477764070034027099609375" lon="-0.366286151111125946044921875">
        <ele>843</ele>
        <time>2020-08-18T15:00:10.000Z</time>
      </trkpt>
      <trkpt lat="42.5189682282507419586181640625" lon="-0.36653257906436920166015625">
        <ele>842.4000244140625</ele>
        <time>2020-08-18T15:00:15.000Z</time>
      </trkpt>
      <trkpt lat="42.518991865217685699462890625" lon="-0.3666494227945804595947265625">
        <ele>842.4000244140625</ele>
        <time>2020-08-18T15:00:17.000Z</time>
      </trkpt>
      <trkpt lat="42.51908004283905029296875" lon="-0.366925187408924102783203125">
        <ele>841.5999755859375</ele>
        <time>2020-08-18T15:00:22.000Z</time>
      </trkpt>
      <trkpt lat="42.5191189348697662353515625" lon="-0.3670353256165981292724609375">
        <ele>841.4000244140625</ele>
        <time>2020-08-18T15:00:24.000Z</time>
      </trkpt>
      <trkpt lat="42.51917903311550617218017578125" lon="-0.367191396653652191162109375">
        <ele>841.20001220703125</ele>
        <time>2020-08-18T15:00:27.000Z</time>
      </trkpt>
      <trkpt lat="42.5192364491522312164306640625" lon="-0.36735744215548038482666015625">
        <ele>841</ele>
        <time>2020-08-18T15:00:30.000Z</time>
      </trkpt>
      <trkpt lat="42.519254386425018310546875" lon="-0.36741158924996852874755859375">
        <ele>841</ele>
        <time>2020-08-18T15:00:31.000Z</time>
      </trkpt>
      <trkpt lat="42.51929889433085918426513671875" lon="-0.3675087355077266693115234375">
        <ele>840.5999755859375</ele>
        <time>2020-08-18T15:00:33.000Z</time>
      </trkpt>
      <trkpt lat="42.519355975091457366943359375" lon="-0.36761174909770488739013671875">
        <ele>840.4000244140625</ele>
        <time>2020-08-18T15:00:35.000Z</time>
      </trkpt>
      <trkpt lat="42.519414313137531280517578125" lon="-0.36771283484995365142822265625">
        <ele>840</ele>
        <time>2020-08-18T15:00:37.000Z</time>
      </trkpt>
      <trkpt lat="42.51943652518093585968017578125" lon="-0.36776580847799777984619140625">
        <ele>840</ele>
        <time>2020-08-18T15:00:38.000Z</time>
      </trkpt>
      <trkpt lat="42.519492767751216888427734375" lon="-0.3678745217621326446533203125">
        <ele>839.79998779296875</ele>
        <time>2020-08-18T15:00:40.000Z</time>
      </trkpt>
      <trkpt lat="42.5195485912263393402099609375" lon="-0.367976613342761993408203125">
        <ele>839.4000244140625</ele>
        <time>2020-08-18T15:00:42.000Z</time>
      </trkpt>
      <trkpt lat="42.51957348547875881195068359375" lon="-0.36802933551371097564697265625">
        <ele>839.20001220703125</ele>
        <time>2020-08-18T15:00:43.000Z</time>
      </trkpt>
      <trkpt lat="42.51961983740329742431640625" lon="-0.36813561804592609405517578125">
        <ele>838.79998779296875</ele>
        <time>2020-08-18T15:00:45.000Z</time>
      </trkpt>
      <trkpt lat="42.51965939998626708984375" lon="-0.3682453371584415435791015625">
        <ele>838.4000244140625</ele>
        <time>2020-08-18T15:00:47.000Z</time>
      </trkpt>
      <trkpt lat="42.519678175449371337890625" lon="-0.368297807872295379638671875">
        <ele>838</ele>
        <time>2020-08-18T15:00:48.000Z</time>
      </trkpt>
      <trkpt lat="42.51979141496121883392333984375" lon="-0.3686173260211944580078125">
        <ele>837.20001220703125</ele>
        <time>2020-08-18T15:00:54.000Z</time>
      </trkpt>
      <trkpt lat="42.51983114518225193023681640625" lon="-0.36872235126793384552001953125">
        <ele>837</ele>
        <time>2020-08-18T15:00:56.000Z</time>
      </trkpt>
      <trkpt lat="42.5199180655181407928466796875" lon="-0.368920080363750457763671875">
        <ele>836.5999755859375</ele>
        <time>2020-08-18T15:01:00.000Z</time>
      </trkpt>
      <trkpt lat="42.520007751882076263427734375" lon="-0.36909651942551136016845703125">
        <ele>836.5999755859375</ele>
        <time>2020-08-18T15:01:04.000Z</time>
      </trkpt>
      <trkpt lat="42.52007069997489452362060546875" lon="-0.3692977689206600189208984375">
        <ele>837</ele>
        <time>2020-08-18T15:01:09.000Z</time>
      </trkpt>
      <trkpt lat="42.52015418373048305511474609375" lon="-0.36953304894268512725830078125">
        <ele>837.20001220703125</ele>
        <time>2020-08-18T15:01:15.000Z</time>
      </trkpt>
      <trkpt lat="42.52022978849709033966064453125" lon="-0.3697976656258106231689453125">
        <ele>837.79998779296875</ele>
        <time>2020-08-18T15:01:22.000Z</time>
      </trkpt>
      <trkpt lat="42.52034612931311130523681640625" lon="-0.36997896619141101837158203125">
        <ele>838</ele>
        <time>2020-08-18T15:01:28.000Z</time>
      </trkpt>
      <trkpt lat="42.52036490477621555328369140625" lon="-0.37000872194766998291015625">
        <ele>838</ele>
        <time>2020-08-18T15:01:29.000Z</time>
      </trkpt>
      <trkpt lat="42.520501278340816497802734375" lon="-0.37016420625150203704833984375">
        <ele>839</ele>
        <time>2020-08-18T15:01:35.000Z</time>
      </trkpt>
      <trkpt lat="42.5205648131668567657470703125" lon="-0.37023444660007953643798828125">
        <ele>839.20001220703125</ele>
        <time>2020-08-18T15:01:38.000Z</time>
      </trkpt>
      <trkpt lat="42.52061937935650348663330078125" lon="-0.37030871026217937469482421875">
        <ele>839.79998779296875</ele>
        <time>2020-08-18T15:01:41.000Z</time>
      </trkpt>
      <trkpt lat="42.52069850452244281768798828125" lon="-0.37039672024548053741455078125">
        <ele>840.20001220703125</ele>
        <time>2020-08-18T15:01:45.000Z</time>
      </trkpt>
      <trkpt lat="42.5207562558352947235107421875" lon="-0.37047249265015125274658203125">
        <ele>840.4000244140625</ele>
        <time>2020-08-18T15:01:48.000Z</time>
      </trkpt>
      <trkpt lat="42.52088592387735843658447265625" lon="-0.37063946016132831573486328125">
        <ele>841.20001220703125</ele>
        <time>2020-08-18T15:01:55.000Z</time>
      </trkpt>
      <trkpt lat="42.520999498665332794189453125" lon="-0.37073828279972076416015625">
        <ele>842</ele>
        <time>2020-08-18T15:02:00.000Z</time>
      </trkpt>
      <trkpt lat="42.5210392288863658905029296875" lon="-0.37079066969454288482666015625">
        <ele>842</ele>
        <time>2020-08-18T15:02:02.000Z</time>
      </trkpt>
      <trkpt lat="42.5211941264569759368896484375" lon="-0.3709999658167362213134765625">
        <ele>843</ele>
        <time>2020-08-18T15:02:10.000Z</time>
      </trkpt>
      <trkpt lat="42.5213319249451160430908203125" lon="-0.37127346731722354888916015625">
        <ele>842.5999755859375</ele>
        <time>2020-08-18T15:02:17.000Z</time>
      </trkpt>
      <trkpt lat="42.5214469246566295623779296875" lon="-0.3716037981212139129638671875">
        <ele>840.79998779296875</ele>
        <time>2020-08-18T15:02:22.000Z</time>
      </trkpt>
      <trkpt lat="42.5214888341724872589111328125" lon="-0.37182969041168689727783203125">
        <ele>839.79998779296875</ele>
        <time>2020-08-18T15:02:25.000Z</time>
      </trkpt>
      <trkpt lat="42.52150232903659343719482421875" lon="-0.371980480849742889404296875">
        <ele>839</ele>
        <time>2020-08-18T15:02:27.000Z</time>
      </trkpt>
      <trkpt lat="42.52152026630938053131103515625" lon="-0.37202448584139347076416015625">
        <ele>838.5999755859375</ele>
        <time>2020-08-18T15:02:28.000Z</time>
      </trkpt>
      <trkpt lat="42.5215508602559566497802734375" lon="-0.37213361822068691253662109375">
        <ele>837.20001220703125</ele>
        <time>2020-08-18T15:02:31.000Z</time>
      </trkpt>
      <trkpt lat="42.52158178947865962982177734375" lon="-0.372360683977603912353515625">
        <ele>836.4000244140625</ele>
        <time>2020-08-18T15:02:36.000Z</time>
      </trkpt>
      <trkpt lat="42.52162252552807331085205078125" lon="-0.37263083271682262420654296875">
        <ele>836.20001220703125</ele>
        <time>2020-08-18T15:02:42.000Z</time>
      </trkpt>
      <trkpt lat="42.52163426019251346588134765625" lon="-0.3727276436984539031982421875">
        <ele>836.20001220703125</ele>
        <time>2020-08-18T15:02:44.000Z</time>
      </trkpt>
      <trkpt lat="42.5216625072062015533447265625" lon="-0.37291481159627437591552734375">
        <ele>836</ele>
        <time>2020-08-18T15:02:48.000Z</time>
      </trkpt>
      <trkpt lat="42.521679438650608062744140625" lon="-0.37318504415452480316162109375">
        <ele>836.20001220703125</ele>
        <time>2020-08-18T15:02:54.000Z</time>
      </trkpt>
      <trkpt lat="42.52169628627598285675048828125" lon="-0.37336156703531742095947265625">
        <ele>837.20001220703125</ele>
        <time>2020-08-18T15:02:59.000Z</time>
      </trkpt>
      <trkpt lat="42.521700896322727203369140625" lon="-0.37339023314416408538818359375">
        <ele>837.4000244140625</ele>
        <time>2020-08-18T15:03:00.000Z</time>
      </trkpt>
      <trkpt lat="42.5217215158045291900634765625" lon="-0.37343096919357776641845703125">
        <ele>837.5999755859375</ele>
        <time>2020-08-18T15:03:03.000Z</time>
      </trkpt>
      <trkpt lat="42.52169695682823657989501953125" lon="-0.37349333055317401885986328125">
        <ele>837.79998779296875</ele>
        <time>2020-08-18T15:03:07.000Z</time>
      </trkpt>
      <trkpt lat="42.52165890298783779144287109375" lon="-0.37351973354816436767578125">
        <ele>837.5999755859375</ele>
        <time>2020-08-18T15:03:09.000Z</time>
      </trkpt>
      <trkpt lat="42.52160492353141307830810546875" lon="-0.37354043684899806976318359375">
        <ele>837.79998779296875</ele>
        <time>2020-08-18T15:03:11.000Z</time>
      </trkpt>
      <trkpt lat="42.52151255495846271514892578125" lon="-0.37360447458922863006591796875">
        <ele>837.79998779296875</ele>
        <time>2020-08-18T15:03:15.000Z</time>
      </trkpt>
      <trkpt lat="42.521498389542102813720703125" lon="-0.37362928502261638641357421875">
        <ele>837.5999755859375</ele>
        <time>2020-08-18T15:03:16.000Z</time>
      </trkpt>
      <trkpt lat="42.5214938633143901824951171875" lon="-0.37370321340858936309814453125">
        <ele>837.5999755859375</ele>
        <time>2020-08-18T15:03:18.000Z</time>
      </trkpt>
      <trkpt lat="42.521514482796192169189453125" lon="-0.37381921894848346710205078125">
        <ele>838</ele>
        <time>2020-08-18T15:03:21.000Z</time>
      </trkpt>
      <trkpt lat="42.5215180031955242156982421875" lon="-0.3738840110599994659423828125">
        <ele>838.20001220703125</ele>
        <time>2020-08-18T15:03:23.000Z</time>
      </trkpt>
      <trkpt lat="42.52149696461856365203857421875" lon="-0.37398216314613819122314453125">
        <ele>838.5999755859375</ele>
        <time>2020-08-18T15:03:26.000Z</time>
      </trkpt>
      <trkpt lat="42.52146762795746326446533203125" lon="-0.37407486699521541595458984375">
        <ele>839.20001220703125</ele>
        <time>2020-08-18T15:03:29.000Z</time>
      </trkpt>
      <trkpt lat="42.52146058715879917144775390625" lon="-0.37426672875881195068359375">
        <ele>839.79998779296875</ele>
        <time>2020-08-18T15:03:34.000Z</time>
      </trkpt>
      <trkpt lat="42.5214734114706516265869140625" lon="-0.37429816089570522308349609375">
        <ele>840</ele>
        <time>2020-08-18T15:03:35.000Z</time>
      </trkpt>
      <trkpt lat="42.52150467596948146820068359375" lon="-0.37446965463459491729736328125">
        <ele>841.20001220703125</ele>
        <time>2020-08-18T15:03:40.000Z</time>
      </trkpt>
      <trkpt lat="42.52152848057448863983154296875" lon="-0.37459420971572399139404296875">
        <ele>842.4000244140625</ele>
        <time>2020-08-18T15:03:44.000Z</time>
      </trkpt>
      <trkpt lat="42.52154742367565631866455078125" lon="-0.37466411478817462921142578125">
        <ele>843</ele>
        <time>2020-08-18T15:03:46.000Z</time>
      </trkpt>
      <trkpt lat="42.521580196917057037353515625" lon="-0.37478313781321048736572265625">
        <ele>843.5999755859375</ele>
        <time>2020-08-18T15:03:50.000Z</time>
      </trkpt>
      <trkpt lat="42.521609030663967132568359375" lon="-0.37485547363758087158203125">
        <ele>844.4000244140625</ele>
        <time>2020-08-18T15:03:53.000Z</time>
      </trkpt>
      <trkpt lat="42.521621771156787872314453125" lon="-0.37486880086362361907958984375">
        <ele>844.5999755859375</ele>
        <time>2020-08-18T15:03:54.000Z</time>
      </trkpt>
      <trkpt lat="42.5217265449464321136474609375" lon="-0.374973155558109283447265625">
        <ele>845.20001220703125</ele>
        <time>2020-08-18T15:04:01.000Z</time>
      </trkpt>
      <trkpt lat="42.52182067371904850006103515625" lon="-0.37513936869800090789794921875">
        <ele>845.5999755859375</ele>
        <time>2020-08-18T15:04:09.000Z</time>
      </trkpt>
      <trkpt lat="42.52183726988732814788818359375" lon="-0.3752210922539234161376953125">
        <ele>845.79998779296875</ele>
        <time>2020-08-18T15:04:12.000Z</time>
      </trkpt>
      <trkpt lat="42.52185017801821231842041015625" lon="-0.37524028681218624114990234375">
        <ele>845.79998779296875</ele>
        <time>2020-08-18T15:04:13.000Z</time>
      </trkpt>
      <trkpt lat="42.52187021076679229736328125" lon="-0.3752509318292140960693359375">
        <ele>846</ele>
        <time>2020-08-18T15:04:14.000Z</time>
      </trkpt>
      <trkpt lat="42.52191689796745777130126953125" lon="-0.375254452228546142578125">
        <ele>846.20001220703125</ele>
        <time>2020-08-18T15:04:16.000Z</time>
      </trkpt>
      <trkpt lat="42.52204430289566516876220703125" lon="-0.3752656839787960052490234375">
        <ele>846.20001220703125</ele>
        <time>2020-08-18T15:04:21.000Z</time>
      </trkpt>
      <trkpt lat="42.52222233451902866363525390625" lon="-0.3752844594419002532958984375">
        <ele>846.5999755859375</ele>
        <time>2020-08-18T15:04:28.000Z</time>
      </trkpt>
      <trkpt lat="42.52233213745057582855224609375" lon="-0.37526342086493968963623046875">
        <ele>846.79998779296875</ele>
        <time>2020-08-18T15:04:33.000Z</time>
      </trkpt>
      <trkpt lat="42.52234160900115966796875" lon="-0.3752475790679454803466796875">
        <ele>846.79998779296875</ele>
        <time>2020-08-18T15:04:34.000Z</time>
      </trkpt>
      <trkpt lat="42.52234303392469882965087890625" lon="-0.37523123435676097869873046875">
        <ele>847</ele>
        <time>2020-08-18T15:04:35.000Z</time>
      </trkpt>
      <trkpt lat="42.52234085462987422943115234375" lon="-0.37523173727095127105712890625">
        <ele>847</ele>
        <time>2020-08-18T15:04:37.000Z</time>
      </trkpt>
      <trkpt lat="42.52235325984656810760498046875" lon="-0.3752294741570949554443359375">
        <ele>798.5999755859375</ele>
        <time>2020-08-19T05:32:12.000Z</time>
      </trkpt>
      <trkpt lat="42.5223471410572528839111328125" lon="-0.37522788159549236297607421875">
        <ele>798.20001220703125</ele>
        <time>2020-08-19T05:32:14.000Z</time>
      </trkpt>
      <trkpt lat="42.5223508290946483612060546875" lon="-0.37524078972637653350830078125">
        <ele>798</ele>
        <time>2020-08-19T05:32:16.000Z</time>
      </trkpt>
      <trkpt lat="42.52237052656710147857666015625" lon="-0.3752754069864749908447265625">
        <ele>798</ele>
        <time>2020-08-19T05:32:19.000Z</time>
      </trkpt>
      <trkpt lat="42.5223850272595882415771484375" lon="-0.37528303451836109161376953125">
        <ele>798</ele>
        <time>2020-08-19T05:32:20.000Z</time>
      </trkpt>
      <trkpt lat="42.5224824249744415283203125" lon="-0.37534925155341625213623046875">
        <ele>798.79998779296875</ele>
        <time>2020-08-19T05:32:25.000Z</time>
      </trkpt>
      <trkpt lat="42.52255308441817760467529296875" lon="-0.37541530095040798187255859375">
        <ele>799.4000244140625</ele>
        <time>2020-08-19T05:32:29.000Z</time>
      </trkpt>
      <trkpt lat="42.52259717322885990142822265625" lon="-0.375461988151073455810546875">
        <ele>800.20001220703125</ele>
        <time>2020-08-19T05:32:32.000Z</time>
      </trkpt>
      <trkpt lat="42.52262768335640430450439453125" lon="-0.37549258209764957427978515625">
        <ele>800.5999755859375</ele>
        <time>2020-08-19T05:32:34.000Z</time>
      </trkpt>
      <trkpt lat="42.52269088290631771087646484375" lon="-0.37556868977844715118408203125">
        <ele>801.5999755859375</ele>
        <time>2020-08-19T05:32:39.000Z</time>
      </trkpt>
      <trkpt lat="42.52271753735840320587158203125" lon="-0.3755992837250232696533203125">
        <ele>802.20001220703125</ele>
        <time>2020-08-19T05:32:41.000Z</time>
      </trkpt>
      <trkpt lat="42.52274335362017154693603515625" lon="-0.37564714439213275909423828125">
        <ele>802.5999755859375</ele>
        <time>2020-08-19T05:32:44.000Z</time>
      </trkpt>
      <trkpt lat="42.52277419902384281158447265625" lon="-0.37569810636341571807861328125">
        <ele>803.4000244140625</ele>
        <time>2020-08-19T05:32:47.000Z</time>
      </trkpt>
      <trkpt lat="42.522807307541370391845703125" lon="-0.37574688903987407684326171875">
        <ele>803.79998779296875</ele>
        <time>2020-08-19T05:32:50.000Z</time>
      </trkpt>
      <trkpt lat="42.5228726863861083984375" lon="-0.37585518322885036468505859375">
        <ele>804.79998779296875</ele>
        <time>2020-08-19T05:32:56.000Z</time>
      </trkpt>
      <trkpt lat="42.52298626117408275604248046875" lon="-0.37603832781314849853515625">
        <ele>805.5999755859375</ele>
        <time>2020-08-19T05:33:06.000Z</time>
      </trkpt>
      <trkpt lat="42.5230123288929462432861328125" lon="-0.3760757111012935638427734375">
        <ele>806</ele>
        <time>2020-08-19T05:33:08.000Z</time>
      </trkpt>
      <trkpt lat="42.523077540099620819091796875" lon="-0.37620437331497669219970703125">
        <ele>806.5999755859375</ele>
        <time>2020-08-19T05:33:14.000Z</time>
      </trkpt>
      <trkpt lat="42.523150630295276641845703125" lon="-0.37634066306054592132568359375">
        <ele>807</ele>
        <time>2020-08-19T05:33:20.000Z</time>
      </trkpt>
      <trkpt lat="42.523186840116977691650390625" lon="-0.37640453316271305084228515625">
        <ele>807.4000244140625</ele>
        <time>2020-08-19T05:33:23.000Z</time>
      </trkpt>
      <trkpt lat="42.52331080846488475799560546875" lon="-0.37652648985385894775390625">
        <ele>808</ele>
        <time>2020-08-19T05:33:31.000Z</time>
      </trkpt>
      <trkpt lat="42.523433268070220947265625" lon="-0.37663084454834461212158203125">
        <ele>808.79998779296875</ele>
        <time>2020-08-19T05:33:39.000Z</time>
      </trkpt>
      <trkpt lat="42.5234813801944255828857421875" lon="-0.37665716372430324554443359375">
        <ele>809.20001220703125</ele>
        <time>2020-08-19T05:33:42.000Z</time>
      </trkpt>
      <trkpt lat="42.523564361035823822021484375" lon="-0.37668465636670589447021484375">
        <ele>810.20001220703125</ele>
        <time>2020-08-19T05:33:47.000Z</time>
      </trkpt>
      <trkpt lat="42.523581795394420623779296875" lon="-0.3766842372715473175048828125">
        <ele>810.4000244140625</ele>
        <time>2020-08-19T05:33:48.000Z</time>
      </trkpt>
      <trkpt lat="42.5236983038485050201416015625" lon="-0.37670619785785675048828125">
        <ele>811.4000244140625</ele>
        <time>2020-08-19T05:33:55.000Z</time>
      </trkpt>
      <trkpt lat="42.52371422946453094482421875" lon="-0.3767150826752185821533203125">
        <ele>811.5999755859375</ele>
        <time>2020-08-19T05:33:56.000Z</time>
      </trkpt>
      <trkpt lat="42.52379410900175571441650390625" lon="-0.37675137631595134735107421875">
        <ele>812.79998779296875</ele>
        <time>2020-08-19T05:34:01.000Z</time>
      </trkpt>
      <trkpt lat="42.52386049367487430572509765625" lon="-0.37676386535167694091796875">
        <ele>813.4000244140625</ele>
        <time>2020-08-19T05:34:05.000Z</time>
      </trkpt>
      <trkpt lat="42.52391296438872814178466796875" lon="-0.376778952777385711669921875">
        <ele>813.79998779296875</ele>
        <time>2020-08-19T05:34:08.000Z</time>
      </trkpt>
      <trkpt lat="42.523996196687221527099609375" lon="-0.37681750953197479248046875">
        <ele>814.79998779296875</ele>
        <time>2020-08-19T05:34:13.000Z</time>
      </trkpt>
      <trkpt lat="42.52402938902378082275390625" lon="-0.3768351115286350250244140625">
        <ele>815.20001220703125</ele>
        <time>2020-08-19T05:34:15.000Z</time>
      </trkpt>
      <trkpt lat="42.5240969471633434295654296875" lon="-0.376858077943325042724609375">
        <ele>816</ele>
        <time>2020-08-19T05:34:19.000Z</time>
      </trkpt>
      <trkpt lat="42.524130977690219879150390625" lon="-0.376864112913608551025390625">
        <ele>816.20001220703125</ele>
        <time>2020-08-19T05:34:21.000Z</time>
      </trkpt>
      <trkpt lat="42.52422795630991458892822265625" lon="-0.3769068606197834014892578125">
        <ele>817.20001220703125</ele>
        <time>2020-08-19T05:34:27.000Z</time>
      </trkpt>
      <trkpt lat="42.52425930462777614593505859375" lon="-0.37692639045417308807373046875">
        <ele>817.4000244140625</ele>
        <time>2020-08-19T05:34:29.000Z</time>
      </trkpt>
      <trkpt lat="42.52434832043945789337158203125" lon="-0.3769967146217823028564453125">
        <ele>818.20001220703125</ele>
        <time>2020-08-19T05:34:35.000Z</time>
      </trkpt>
      <trkpt lat="42.5244255177676677703857421875" lon="-0.3770389594137668609619140625">
        <ele>819</ele>
        <time>2020-08-19T05:34:40.000Z</time>
      </trkpt>
      <trkpt lat="42.52445527352392673492431640625" lon="-0.377051867544651031494140625">
        <ele>819.4000244140625</ele>
        <time>2020-08-19T05:34:42.000Z</time>
      </trkpt>
      <trkpt lat="42.5245450437068939208984375" lon="-0.3771097026765346527099609375">
        <ele>820.4000244140625</ele>
        <time>2020-08-19T05:34:48.000Z</time>
      </trkpt>
      <trkpt lat="42.5245599634945392608642578125" lon="-0.37711816839873790740966796875">
        <ele>820.5999755859375</ele>
        <time>2020-08-19T05:34:49.000Z</time>
      </trkpt>
      <trkpt lat="42.52466347999870777130126953125" lon="-0.377180613577365875244140625">
        <ele>821.79998779296875</ele>
        <time>2020-08-19T05:34:56.000Z</time>
      </trkpt>
      <trkpt lat="42.52474646084010601043701171875" lon="-0.37723652087152004241943359375">
        <ele>823</ele>
        <time>2020-08-19T05:35:02.000Z</time>
      </trkpt>
      <trkpt lat="42.52477236092090606689453125" lon="-0.37725948728621006011962890625">
        <ele>823.4000244140625</ele>
        <time>2020-08-19T05:35:04.000Z</time>
      </trkpt>
      <trkpt lat="42.52480010502040386199951171875" lon="-0.37727440707385540008544921875">
        <ele>824</ele>
        <time>2020-08-19T05:35:06.000Z</time>
      </trkpt>
      <trkpt lat="42.52487168647348880767822265625" lon="-0.3773179091513156890869140625">
        <ele>825</ele>
        <time>2020-08-19T05:35:11.000Z</time>
      </trkpt>
      <trkpt lat="42.52494192682206630706787109375" lon="-0.3773705475032329559326171875">
        <ele>826.20001220703125</ele>
        <time>2020-08-19T05:35:16.000Z</time>
      </trkpt>
      <trkpt lat="42.52497009001672267913818359375" lon="-0.37738555110991001129150390625">
        <ele>826.5999755859375</ele>
        <time>2020-08-19T05:35:18.000Z</time>
      </trkpt>
      <trkpt lat="42.525010406970977783203125" lon="-0.37740851752460002899169921875">
        <ele>827.20001220703125</ele>
        <time>2020-08-19T05:35:21.000Z</time>
      </trkpt>
      <trkpt lat="42.52506312914192676544189453125" lon="-0.3774469904601573944091796875">
        <ele>828</ele>
        <time>2020-08-19T05:35:25.000Z</time>
      </trkpt>
      <trkpt lat="42.525089867413043975830078125" lon="-0.37746216170489788055419921875">
        <ele>828.4000244140625</ele>
        <time>2020-08-19T05:35:27.000Z</time>
      </trkpt>
      <trkpt lat="42.52514862455427646636962890625" lon="-0.3775200806558132171630859375">
        <ele>829.4000244140625</ele>
        <time>2020-08-19T05:35:32.000Z</time>
      </trkpt>
      <trkpt lat="42.52515985630452632904052734375" lon="-0.37753173150122165679931640625">
        <ele>829.5999755859375</ele>
        <time>2020-08-19T05:35:33.000Z</time>
      </trkpt>
      <trkpt lat="42.5252048671245574951171875" lon="-0.3775841183960437774658203125">
        <ele>830.4000244140625</ele>
        <time>2020-08-19T05:35:37.000Z</time>
      </trkpt>
      <trkpt lat="42.5252402387559413909912109375" lon="-0.3776139579713344573974609375">
        <ele>831.20001220703125</ele>
        <time>2020-08-19T05:35:40.000Z</time>
      </trkpt>
      <trkpt lat="42.52526647411286830902099609375" lon="-0.37764036096632480621337890625">
        <ele>831.5999755859375</ele>
        <time>2020-08-19T05:35:42.000Z</time>
      </trkpt>
      <trkpt lat="42.52530503086745738983154296875" lon="-0.37767791189253330230712890625">
        <ele>832</ele>
        <time>2020-08-19T05:35:45.000Z</time>
      </trkpt>
      <trkpt lat="42.52534643746912479400634765625" lon="-0.37773859687149524688720703125">
        <ele>832.5999755859375</ele>
        <time>2020-08-19T05:35:49.000Z</time>
      </trkpt>
      <trkpt lat="42.52541877329349517822265625" lon="-0.3778248466551303863525390625">
        <ele>833.79998779296875</ele>
        <time>2020-08-19T05:35:55.000Z</time>
      </trkpt>
      <trkpt lat="42.52545808441936969757080078125" lon="-0.3778647445142269134521484375">
        <ele>834.20001220703125</ele>
        <time>2020-08-19T05:35:58.000Z</time>
      </trkpt>
      <trkpt lat="42.52552949823439121246337890625" lon="-0.3779281117022037506103515625">
        <ele>835</ele>
        <time>2020-08-19T05:36:03.000Z</time>
      </trkpt>
      <trkpt lat="42.52557660453021526336669921875" lon="-0.37796440534293651580810546875">
        <ele>835.20001220703125</ele>
        <time>2020-08-19T05:36:06.000Z</time>
      </trkpt>
      <trkpt lat="42.52561935223639011383056640625" lon="-0.37800036370754241943359375">
        <ele>835.79998779296875</ele>
        <time>2020-08-19T05:36:09.000Z</time>
      </trkpt>
      <trkpt lat="42.52568456344306468963623046875" lon="-0.37806398235261440277099609375">
        <ele>836.4000244140625</ele>
        <time>2020-08-19T05:36:14.000Z</time>
      </trkpt>
      <trkpt lat="42.525714151561260223388671875" lon="-0.37808326072990894317626953125">
        <ele>836.79998779296875</ele>
        <time>2020-08-19T05:36:16.000Z</time>
      </trkpt>
      <trkpt lat="42.5257894210517406463623046875" lon="-0.37813707254827022552490234375">
        <ele>837.79998779296875</ele>
        <time>2020-08-19T05:36:21.000Z</time>
      </trkpt>
      <trkpt lat="42.52580375410616397857666015625" lon="-0.37814880721271038055419921875">
        <ele>838</ele>
        <time>2020-08-19T05:36:22.000Z</time>
      </trkpt>
      <trkpt lat="42.5259386189281940460205078125" lon="-0.37821871228516101837158203125">
        <ele>839</ele>
        <time>2020-08-19T05:36:30.000Z</time>
      </trkpt>
      <trkpt lat="42.5260603241622447967529296875" lon="-0.3782677464187145233154296875">
        <ele>839.79998779296875</ele>
        <time>2020-08-19T05:36:37.000Z</time>
      </trkpt>
      <trkpt lat="42.52617825753986835479736328125" lon="-0.3782989270985126495361328125">
        <ele>840</ele>
        <time>2020-08-19T05:36:43.000Z</time>
      </trkpt>
      <trkpt lat="42.52628001384437084197998046875" lon="-0.378303788602352142333984375">
        <ele>840.5999755859375</ele>
        <time>2020-08-19T05:36:48.000Z</time>
      </trkpt>
      <trkpt lat="42.52640440128743648529052734375" lon="-0.37831175141036510467529296875">
        <ele>841.20001220703125</ele>
        <time>2020-08-19T05:36:54.000Z</time>
      </trkpt>
      <trkpt lat="42.5264681875705718994140625" lon="-0.3783163614571094512939453125">
        <ele>841.4000244140625</ele>
        <time>2020-08-19T05:36:57.000Z</time>
      </trkpt>
      <trkpt lat="42.5266118533909320831298828125" lon="-0.3783341310918331146240234375">
        <ele>841.79998779296875</ele>
        <time>2020-08-19T05:37:04.000Z</time>
      </trkpt>
      <trkpt lat="42.52667379565536975860595703125" lon="-0.37833421491086483001708984375">
        <ele>842.20001220703125</ele>
        <time>2020-08-19T05:37:07.000Z</time>
      </trkpt>
      <trkpt lat="42.52675451338291168212890625" lon="-0.3783451952040195465087890625">
        <ele>842.20001220703125</ele>
        <time>2020-08-19T05:37:11.000Z</time>
      </trkpt>
      <trkpt lat="42.52692290581762790679931640625" lon="-0.37835785187780857086181640625">
        <ele>843</ele>
        <time>2020-08-19T05:37:19.000Z</time>
      </trkpt>
      <trkpt lat="42.52699163742363452911376953125" lon="-0.3783475421369075775146484375">
        <ele>843.20001220703125</ele>
        <time>2020-08-19T05:37:22.000Z</time>
      </trkpt>
      <trkpt lat="42.5271519832313060760498046875" lon="-0.37831158377230167388916015625">
        <ele>843.79998779296875</ele>
        <time>2020-08-19T05:37:29.000Z</time>
      </trkpt>
      <trkpt lat="42.527333535254001617431640625" lon="-0.3782483004033565521240234375">
        <ele>843.79998779296875</ele>
        <time>2020-08-19T05:37:37.000Z</time>
      </trkpt>
      <trkpt lat="42.52749723382294178009033203125" lon="-0.37819323129951953887939453125">
        <ele>844.20001220703125</ele>
        <time>2020-08-19T05:37:44.000Z</time>
      </trkpt>
      <trkpt lat="42.527717761695384979248046875" lon="-0.37813791073858737945556640625">
        <ele>844.20001220703125</ele>
        <time>2020-08-19T05:37:53.000Z</time>
      </trkpt>
      <trkpt lat="42.52794432453811168670654296875" lon="-0.37814293988049030303955078125">
        <ele>844</ele>
        <time>2020-08-19T05:38:02.000Z</time>
      </trkpt>
      <trkpt lat="42.5280193425714969635009765625" lon="-0.37816054187715053558349609375">
        <ele>844.20001220703125</ele>
        <time>2020-08-19T05:38:05.000Z</time>
      </trkpt>
      <trkpt lat="42.528143227100372314453125" lon="-0.3782008588314056396484375">
        <ele>844.4000244140625</ele>
        <time>2020-08-19T05:38:10.000Z</time>
      </trkpt>
      <trkpt lat="42.528386972844600677490234375" lon="-0.3783026151359081268310546875">
        <ele>845</ele>
        <time>2020-08-19T05:38:20.000Z</time>
      </trkpt>
      <trkpt lat="42.5284092687070369720458984375" lon="-0.37831208668649196624755859375">
        <ele>845</ele>
        <time>2020-08-19T05:38:21.000Z</time>
      </trkpt>
      <trkpt lat="42.5285018049180507659912109375" lon="-0.37835282273590564727783203125">
        <ele>845.20001220703125</ele>
        <time>2020-08-19T05:38:25.000Z</time>
      </trkpt>
      <trkpt lat="42.52857170999050140380859375" lon="-0.378385595977306365966796875">
        <ele>845.4000244140625</ele>
        <time>2020-08-19T05:38:28.000Z</time>
      </trkpt>
      <trkpt lat="42.5287649966776371002197265625" lon="-0.37852012552320957183837890625">
        <ele>846.20001220703125</ele>
        <time>2020-08-19T05:38:37.000Z</time>
      </trkpt>
      <trkpt lat="42.52880430780351161956787109375" lon="-0.3785591013729572296142578125">
        <ele>846.4000244140625</ele>
        <time>2020-08-19T05:38:39.000Z</time>
      </trkpt>
      <trkpt lat="42.52891779877245426177978515625" lon="-0.37869128398597240447998046875">
        <ele>846.79998779296875</ele>
        <time>2020-08-19T05:38:45.000Z</time>
      </trkpt>
      <trkpt lat="42.52907085232436656951904296875" lon="-0.378885157406330108642578125">
        <ele>847.4000244140625</ele>
        <time>2020-08-19T05:38:53.000Z</time>
      </trkpt>
      <trkpt lat="42.5290905497968196868896484375" lon="-0.37890829145908355712890625">
        <ele>847.4000244140625</ele>
        <time>2020-08-19T05:38:54.000Z</time>
      </trkpt>
      <trkpt lat="42.52926883287727832794189453125" lon="-0.37907098419964313507080078125">
        <ele>848</ele>
        <time>2020-08-19T05:39:02.000Z</time>
      </trkpt>
      <trkpt lat="42.52946865744888782501220703125" lon="-0.37921045906841754913330078125">
        <ele>848.4000244140625</ele>
        <time>2020-08-19T05:39:10.000Z</time>
      </trkpt>
      <trkpt lat="42.5294952280819416046142578125" lon="-0.379225127398967742919921875">
        <ele>848.4000244140625</ele>
        <time>2020-08-19T05:39:11.000Z</time>
      </trkpt>
      <trkpt lat="42.5297429971396923065185546875" lon="-0.379317663609981536865234375">
        <ele>848.5999755859375</ele>
        <time>2020-08-19T05:39:20.000Z</time>
      </trkpt>
      <trkpt lat="42.529998980462551116943359375" lon="-0.37934440188109874725341796875">
        <ele>848.5999755859375</ele>
        <time>2020-08-19T05:39:29.000Z</time>
      </trkpt>
      <trkpt lat="42.5302824564278125762939453125" lon="-0.3793215192854404449462890625">
        <ele>848.5999755859375</ele>
        <time>2020-08-19T05:39:39.000Z</time>
      </trkpt>
      <trkpt lat="42.53052092157304286956787109375" lon="-0.3793037496507167816162109375">
        <ele>848.79998779296875</ele>
        <time>2020-08-19T05:39:48.000Z</time>
      </trkpt>
      <trkpt lat="42.53072745166718959808349609375" lon="-0.3792829625308513641357421875">
        <ele>849.20001220703125</ele>
        <time>2020-08-19T05:39:56.000Z</time>
      </trkpt>
      <trkpt lat="42.53077673725783824920654296875" lon="-0.379283130168914794921875">
        <ele>849.4000244140625</ele>
        <time>2020-08-19T05:39:58.000Z</time>
      </trkpt>
      <trkpt lat="42.53082501702010631561279296875" lon="-0.3792876563966274261474609375">
        <ele>849.79998779296875</ele>
        <time>2020-08-19T05:40:00.000Z</time>
      </trkpt>
      <trkpt lat="42.53094001673161983489990234375" lon="-0.37930391728878021240234375">
        <ele>850.4000244140625</ele>
        <time>2020-08-19T05:40:05.000Z</time>
      </trkpt>
      <trkpt lat="42.53096289932727813720703125" lon="-0.37930886261165142059326171875">
        <ele>850.79998779296875</ele>
        <time>2020-08-19T05:40:06.000Z</time>
      </trkpt>
      <trkpt lat="42.53109633922576904296875" lon="-0.37935446016490459442138671875">
        <ele>851.4000244140625</ele>
        <time>2020-08-19T05:40:12.000Z</time>
      </trkpt>
      <trkpt lat="42.5311405956745147705078125" lon="-0.37936904467642307281494140625">
        <ele>851.79998779296875</ele>
        <time>2020-08-19T05:40:14.000Z</time>
      </trkpt>
      <trkpt lat="42.5312520749866962432861328125" lon="-0.37941229529678821563720703125">
        <ele>852.79998779296875</ele>
        <time>2020-08-19T05:40:19.000Z</time>
      </trkpt>
      <trkpt lat="42.53127395175397396087646484375" lon="-0.37942034192383289337158203125">
        <ele>853</ele>
        <time>2020-08-19T05:40:20.000Z</time>
      </trkpt>
      <trkpt lat="42.53137604333460330963134765625" lon="-0.3794666938483715057373046875">
        <ele>853.79998779296875</ele>
        <time>2020-08-19T05:40:25.000Z</time>
      </trkpt>
      <trkpt lat="42.53141912631690502166748046875" lon="-0.37947851233184337615966796875">
        <ele>854.20001220703125</ele>
        <time>2020-08-19T05:40:27.000Z</time>
      </trkpt>
      <trkpt lat="42.531548626720905303955078125" lon="-0.3795018978416919708251953125">
        <ele>855</ele>
        <time>2020-08-19T05:40:33.000Z</time>
      </trkpt>
      <trkpt lat="42.53157083876430988311767578125" lon="-0.37950131110846996307373046875">
        <ele>855.20001220703125</ele>
        <time>2020-08-19T05:40:34.000Z</time>
      </trkpt>
      <trkpt lat="42.53170310519635677337646484375" lon="-0.379497706890106201171875">
        <ele>856</ele>
        <time>2020-08-19T05:40:40.000Z</time>
      </trkpt>
      <trkpt lat="42.53183604218065738677978515625" lon="-0.379481613636016845703125">
        <ele>857.20001220703125</ele>
        <time>2020-08-19T05:40:46.000Z</time>
      </trkpt>
      <trkpt lat="42.53206537105143070220947265625" lon="-0.37945487536489963531494140625">
        <ele>858.20001220703125</ele>
        <time>2020-08-19T05:40:56.000Z</time>
      </trkpt>
      <trkpt lat="42.53233216702938079833984375" lon="-0.37947113625705242156982421875">
        <ele>859</ele>
        <time>2020-08-19T05:41:07.000Z</time>
      </trkpt>
      <trkpt lat="42.53242998383939266204833984375" lon="-0.37950801663100719451904296875">
        <ele>859</ele>
        <time>2020-08-19T05:41:11.000Z</time>
      </trkpt>
      <trkpt lat="42.5325210951268672943115234375" lon="-0.3795548714697360992431640625">
        <ele>859.4000244140625</ele>
        <time>2020-08-19T05:41:15.000Z</time>
      </trkpt>
      <trkpt lat="42.5327152200043201446533203125" lon="-0.37964589893817901611328125">
        <ele>859.4000244140625</ele>
        <time>2020-08-19T05:41:23.000Z</time>
      </trkpt>
      <trkpt lat="42.53289920277893543243408203125" lon="-0.3796997107565402984619140625">
        <ele>859.4000244140625</ele>
        <time>2020-08-19T05:41:30.000Z</time>
      </trkpt>
      <trkpt lat="42.5331074930727481842041015625" lon="-0.37969996221363544464111328125">
        <ele>859.5999755859375</ele>
        <time>2020-08-19T05:41:38.000Z</time>
      </trkpt>
      <trkpt lat="42.5332067348062992095947265625" lon="-0.3796827793121337890625">
        <ele>860.20001220703125</ele>
        <time>2020-08-19T05:41:42.000Z</time>
      </trkpt>
      <trkpt lat="42.5333281047642230987548828125" lon="-0.3796385228633880615234375">
        <ele>860.4000244140625</ele>
        <time>2020-08-19T05:41:47.000Z</time>
      </trkpt>
      <trkpt lat="42.53352214582264423370361328125" lon="-0.3795712999999523162841796875">
        <ele>860.79998779296875</ele>
        <time>2020-08-19T05:41:55.000Z</time>
      </trkpt>
      <trkpt lat="42.53354662097990512847900390625" lon="-0.37956543266773223876953125">
        <ele>861</ele>
        <time>2020-08-19T05:41:56.000Z</time>
      </trkpt>
      <trkpt lat="42.5337136723101139068603515625" lon="-0.37950583733618259429931640625">
        <ele>861.20001220703125</ele>
        <time>2020-08-19T05:42:03.000Z</time>
      </trkpt>
      <trkpt lat="42.5337619520723819732666015625" lon="-0.3794891573488712310791015625">
        <ele>861.20001220703125</ele>
        <time>2020-08-19T05:42:05.000Z</time>
      </trkpt>
      <trkpt lat="42.533955238759517669677734375" lon="-0.37942721508443355560302734375">
        <ele>861.79998779296875</ele>
        <time>2020-08-19T05:42:13.000Z</time>
      </trkpt>
      <trkpt lat="42.53422639332711696624755859375" lon="-0.3793542087078094482421875">
        <ele>862.20001220703125</ele>
        <time>2020-08-19T05:42:24.000Z</time>
      </trkpt>
      <trkpt lat="42.534250952303409576416015625" lon="-0.37934926338493824005126953125">
        <ele>862.4000244140625</ele>
        <time>2020-08-19T05:42:25.000Z</time>
      </trkpt>
      <trkpt lat="42.534473575651645660400390625" lon="-0.3793020732700824737548828125">
        <ele>863</ele>
        <time>2020-08-19T05:42:34.000Z</time>
      </trkpt>
      <trkpt lat="42.534696198999881744384765625" lon="-0.37922705523669719696044921875">
        <ele>863</ele>
        <time>2020-08-19T05:42:43.000Z</time>
      </trkpt>
      <trkpt lat="42.53496265970170497894287109375" lon="-0.37915798835456371307373046875">
        <ele>863</ele>
        <time>2020-08-19T05:42:53.000Z</time>
      </trkpt>
      <trkpt lat="42.5352354906499385833740234375" lon="-0.379060171544551849365234375">
        <ele>863</ele>
        <time>2020-08-19T05:43:03.000Z</time>
      </trkpt>
      <trkpt lat="42.53551452420651912689208984375" lon="-0.3789409808814525604248046875">
        <ele>863.4000244140625</ele>
        <time>2020-08-19T05:43:13.000Z</time>
      </trkpt>
      <trkpt lat="42.5358088128268718719482421875" lon="-0.378811061382293701171875">
        <ele>864</ele>
        <time>2020-08-19T05:43:24.000Z</time>
      </trkpt>
      <trkpt lat="42.53596664406359195709228515625" lon="-0.3787310980260372161865234375">
        <ele>864.4000244140625</ele>
        <time>2020-08-19T05:43:30.000Z</time>
      </trkpt>
      <trkpt lat="42.53604409284889698028564453125" lon="-0.378694050014019012451171875">
        <ele>864.5999755859375</ele>
        <time>2020-08-19T05:43:33.000Z</time>
      </trkpt>
      <trkpt lat="42.53625783137977123260498046875" lon="-0.3785844147205352783203125">
        <ele>864.5999755859375</ele>
        <time>2020-08-19T05:43:41.000Z</time>
      </trkpt>
      <trkpt lat="42.53648933954536914825439453125" lon="-0.37844602949917316436767578125">
        <ele>864.5999755859375</ele>
        <time>2020-08-19T05:43:50.000Z</time>
      </trkpt>
      <trkpt lat="42.5366332568228244781494140625" lon="-0.378335304558277130126953125">
        <ele>865.20001220703125</ele>
        <time>2020-08-19T05:43:56.000Z</time>
      </trkpt>
      <trkpt lat="42.5367499329149723052978515625" lon="-0.37823078222572803497314453125">
        <ele>865.5999755859375</ele>
        <time>2020-08-19T05:44:01.000Z</time>
      </trkpt>
      <trkpt lat="42.53691480495035648345947265625" lon="-0.37808485329151153564453125">
        <ele>866</ele>
        <time>2020-08-19T05:44:08.000Z</time>
      </trkpt>
      <trkpt lat="42.536941207945346832275390625" lon="-0.37806884385645389556884765625">
        <ele>866</ele>
        <time>2020-08-19T05:44:09.000Z</time>
      </trkpt>
      <trkpt lat="42.53713600337505340576171875" lon="-0.37801184691488742828369140625">
        <ele>866.20001220703125</ele>
        <time>2020-08-19T05:44:16.000Z</time>
      </trkpt>
      <trkpt lat="42.5371650047600269317626953125" lon="-0.37801268510520458221435546875">
        <ele>866.4000244140625</ele>
        <time>2020-08-19T05:44:17.000Z</time>
      </trkpt>
      <trkpt lat="42.5373980216681957244873046875" lon="-0.37803967483341693878173828125">
        <ele>866.5999755859375</ele>
        <time>2020-08-19T05:44:25.000Z</time>
      </trkpt>
      <trkpt lat="42.53762952983379364013671875" lon="-0.37807806394994258880615234375">
        <ele>866.79998779296875</ele>
        <time>2020-08-19T05:44:33.000Z</time>
      </trkpt>
      <trkpt lat="42.53786019980907440185546875" lon="-0.37807957269251346588134765625">
        <ele>866.79998779296875</ele>
        <time>2020-08-19T05:44:41.000Z</time>
      </trkpt>
      <trkpt lat="42.53800897859036922454833984375" lon="-0.37794512696564197540283203125">
        <ele>867.20001220703125</ele>
        <time>2020-08-19T05:44:47.000Z</time>
      </trkpt>
      <trkpt lat="42.53821986727416515350341796875" lon="-0.37789651192724704742431640625">
        <ele>867.20001220703125</ele>
        <time>2020-08-19T05:44:54.000Z</time>
      </trkpt>
      <trkpt lat="42.53851088695228099822998046875" lon="-0.3778828494250774383544921875">
        <ele>867.20001220703125</ele>
        <time>2020-08-19T05:45:04.000Z</time>
      </trkpt>
      <trkpt lat="42.53854013979434967041015625" lon="-0.3778801672160625457763671875">
        <ele>867.4000244140625</ele>
        <time>2020-08-19T05:45:05.000Z</time>
      </trkpt>
      <trkpt lat="42.5388279743492603302001953125" lon="-0.37783515639603137969970703125">
        <ele>868</ele>
        <time>2020-08-19T05:45:15.000Z</time>
      </trkpt>
      <trkpt lat="42.53908462822437286376953125" lon="-0.37779089994728565216064453125">
        <ele>868.20001220703125</ele>
        <time>2020-08-19T05:45:24.000Z</time>
      </trkpt>
      <trkpt lat="42.53916920162737369537353515625" lon="-0.3777712024748325347900390625">
        <ele>868.5999755859375</ele>
        <time>2020-08-19T05:45:27.000Z</time>
      </trkpt>
      <trkpt lat="42.53939174115657806396484375" lon="-0.37771194241940975189208984375">
        <ele>869.20001220703125</ele>
        <time>2020-08-19T05:45:35.000Z</time>
      </trkpt>
      <trkpt lat="42.53964093513786792755126953125" lon="-0.37764438427984714508056640625">
        <ele>869.5999755859375</ele>
        <time>2020-08-19T05:45:44.000Z</time>
      </trkpt>
      <trkpt lat="42.5396960042417049407958984375" lon="-0.3776307217776775360107421875">
        <ele>869.5999755859375</ele>
        <time>2020-08-19T05:45:46.000Z</time>
      </trkpt>
      <trkpt lat="42.53992172889411449432373046875" lon="-0.37756945006549358367919921875">
        <ele>870</ele>
        <time>2020-08-19T05:45:54.000Z</time>
      </trkpt>
      <trkpt lat="42.54015089012682437896728515625" lon="-0.37747842259705066680908203125">
        <ele>870</ele>
        <time>2020-08-19T05:46:02.000Z</time>
      </trkpt>
      <trkpt lat="42.54034928977489471435546875" lon="-0.3773826174437999725341796875">
        <ele>870.79998779296875</ele>
        <time>2020-08-19T05:46:09.000Z</time>
      </trkpt>
      <trkpt lat="42.540461607277393341064453125" lon="-0.37732117809355258941650390625">
        <ele>871.20001220703125</ele>
        <time>2020-08-19T05:46:13.000Z</time>
      </trkpt>
      <trkpt lat="42.5407578237354755401611328125" lon="-0.37711481563746929168701171875">
        <ele>871.4000244140625</ele>
        <time>2020-08-19T05:46:24.000Z</time>
      </trkpt>
      <trkpt lat="42.54099712707102298736572265625" lon="-0.3769554756581783294677734375">
        <ele>871.79998779296875</ele>
        <time>2020-08-19T05:46:33.000Z</time>
      </trkpt>
      <trkpt lat="42.541073821485042572021484375" lon="-0.376900993287563323974609375">
        <ele>872</ele>
        <time>2020-08-19T05:46:36.000Z</time>
      </trkpt>
      <trkpt lat="42.54128881730139255523681640625" lon="-0.37679462693631649017333984375">
        <ele>873</ele>
        <time>2020-08-19T05:46:44.000Z</time>
      </trkpt>
      <trkpt lat="42.541317231953144073486328125" lon="-0.376784317195415496826171875">
        <ele>873</ele>
        <time>2020-08-19T05:46:45.000Z</time>
      </trkpt>
      <trkpt lat="42.54157514311373233795166015625" lon="-0.37670996971428394317626953125">
        <ele>873.20001220703125</ele>
        <time>2020-08-19T05:46:54.000Z</time>
      </trkpt>
      <trkpt lat="42.54184822551906108856201171875" lon="-0.3766986541450023651123046875">
        <ele>873.79998779296875</ele>
        <time>2020-08-19T05:47:04.000Z</time>
      </trkpt>
      <trkpt lat="42.54192483611404895782470703125" lon="-0.37670510821044445037841796875">
        <ele>874</ele>
        <time>2020-08-19T05:47:07.000Z</time>
      </trkpt>
      <trkpt lat="42.54202139563858509063720703125" lon="-0.3767536394298076629638671875">
        <ele>874.20001220703125</ele>
        <time>2020-08-19T05:47:11.000Z</time>
      </trkpt>
      <trkpt lat="42.54220135509967803955078125" lon="-0.37680250592529773712158203125">
        <ele>874.5999755859375</ele>
        <time>2020-08-19T05:47:18.000Z</time>
      </trkpt>
      <trkpt lat="42.54227243363857269287109375" lon="-0.37681994028389453887939453125">
        <ele>874.79998779296875</ele>
        <time>2020-08-19T05:47:21.000Z</time>
      </trkpt>
      <trkpt lat="42.54231593571603298187255859375" lon="-0.3768361173570156097412109375">
        <ele>875</ele>
        <time>2020-08-19T05:47:23.000Z</time>
      </trkpt>
      <trkpt lat="42.542347200214862823486328125" lon="-0.37684542126953601837158203125">
        <ele>875.20001220703125</ele>
        <time>2020-08-19T05:47:25.000Z</time>
      </trkpt>
      <trkpt lat="42.5423513911664485931396484375" lon="-0.376847349107265472412109375">
        <ele>875</ele>
        <time>2020-08-19T05:47:30.000Z</time>
      </trkpt>
      <trkpt lat="42.54235214553773403167724609375" lon="-0.3768481872975826263427734375">
        <ele>875</ele>
        <time>2020-08-19T05:47:58.000Z</time>
      </trkpt>
      <trkpt lat="42.5423520617187023162841796875" lon="-0.3768465109169483184814453125">
        <ele>875.20001220703125</ele>
        <time>2020-08-19T05:48:33.000Z</time>
      </trkpt>
      <trkpt lat="42.54238416440784931182861328125" lon="-0.37681608460843563079833984375">
        <ele>875.4000244140625</ele>
        <time>2020-08-19T05:48:39.000Z</time>
      </trkpt>
      <trkpt lat="42.54249396733939647674560546875" lon="-0.37680988200008869171142578125">
        <ele>875.20001220703125</ele>
        <time>2020-08-19T05:48:45.000Z</time>
      </trkpt>
      <trkpt lat="42.5426635332405567169189453125" lon="-0.3768441639840602874755859375">
        <ele>875.5999755859375</ele>
        <time>2020-08-19T05:48:52.000Z</time>
      </trkpt>
      <trkpt lat="42.542843408882617950439453125" lon="-0.37688699550926685333251953125">
        <ele>875.79998779296875</ele>
        <time>2020-08-19T05:48:59.000Z</time>
      </trkpt>
      <trkpt lat="42.54289512522518634796142578125" lon="-0.3768974728882312774658203125">
        <ele>876</ele>
        <time>2020-08-19T05:49:01.000Z</time>
      </trkpt>
      <trkpt lat="42.54305287264287471771240234375" lon="-0.37692907266318798065185546875">
        <ele>876.5999755859375</ele>
        <time>2020-08-19T05:49:07.000Z</time>
      </trkpt>
      <trkpt lat="42.5432995520532131195068359375" lon="-0.37695958279073238372802734375">
        <ele>877</ele>
        <time>2020-08-19T05:49:16.000Z</time>
      </trkpt>
      <trkpt lat="42.54350013099610805511474609375" lon="-0.37696712650358676910400390625">
        <ele>877.5999755859375</ele>
        <time>2020-08-19T05:49:23.000Z</time>
      </trkpt>
      <trkpt lat="42.54371940158307552337646484375" lon="-0.3769750893115997314453125">
        <ele>878.20001220703125</ele>
        <time>2020-08-19T05:49:31.000Z</time>
      </trkpt>
      <trkpt lat="42.54399717785418033599853515625" lon="-0.3769869916141033172607421875">
        <ele>878.79998779296875</ele>
        <time>2020-08-19T05:49:41.000Z</time>
      </trkpt>
      <trkpt lat="42.5442215614020824432373046875" lon="-0.376981459558010101318359375">
        <ele>879.20001220703125</ele>
        <time>2020-08-19T05:49:49.000Z</time>
      </trkpt>
      <trkpt lat="42.5444723479449748992919921875" lon="-0.37697634659707546234130859375">
        <ele>879.79998779296875</ele>
        <time>2020-08-19T05:49:58.000Z</time>
      </trkpt>
      <trkpt lat="42.54472791217267513275146484375" lon="-0.37697399966418743133544921875">
        <ele>880</ele>
        <time>2020-08-19T05:50:07.000Z</time>
      </trkpt>
      <trkpt lat="42.54478356800973415374755859375" lon="-0.37697265855967998504638671875">
        <ele>880</ele>
        <time>2020-08-19T05:50:09.000Z</time>
      </trkpt>
      <trkpt lat="42.54492689855396747589111328125" lon="-0.3769568167626857757568359375">
        <ele>880.79998779296875</ele>
        <time>2020-08-19T05:50:14.000Z</time>
      </trkpt>
      <trkpt lat="42.5451009906828403472900390625" lon="-0.3769219480454921722412109375">
        <ele>881.20001220703125</ele>
        <time>2020-08-19T05:50:20.000Z</time>
      </trkpt>
      <trkpt lat="42.5452677905559539794921875" lon="-0.37687391974031925201416015625">
        <ele>881.4000244140625</ele>
        <time>2020-08-19T05:50:26.000Z</time>
      </trkpt>
      <trkpt lat="42.5455244444310665130615234375" lon="-0.37683083675801753997802734375">
        <ele>882</ele>
        <time>2020-08-19T05:50:35.000Z</time>
      </trkpt>
      <trkpt lat="42.5455814413726329803466796875" lon="-0.37682111375033855438232421875">
        <ele>882.20001220703125</ele>
        <time>2020-08-19T05:50:37.000Z</time>
      </trkpt>
      <trkpt lat="42.5458996184170246124267578125" lon="-0.37676629610359668731689453125">
        <ele>882.79998779296875</ele>
        <time>2020-08-19T05:50:48.000Z</time>
      </trkpt>
      <trkpt lat="42.5461289472877979278564453125" lon="-0.3767207823693752288818359375">
        <ele>883.20001220703125</ele>
        <time>2020-08-19T05:50:56.000Z</time>
      </trkpt>
      <trkpt lat="42.54638501442968845367431640625" lon="-0.37667174823582172393798828125">
        <ele>883.5999755859375</ele>
        <time>2020-08-19T05:51:05.000Z</time>
      </trkpt>
      <trkpt lat="42.54662993364036083221435546875" lon="-0.37662564776837825775146484375">
        <ele>884.20001220703125</ele>
        <time>2020-08-19T05:51:14.000Z</time>
      </trkpt>
      <trkpt lat="42.54687904380261898040771484375" lon="-0.37658122368156909942626953125">
        <ele>885</ele>
        <time>2020-08-19T05:51:23.000Z</time>
      </trkpt>
      <trkpt lat="42.54713133908808231353759765625" lon="-0.37653411738574504852294921875">
        <ele>885.4000244140625</ele>
        <time>2020-08-19T05:51:32.000Z</time>
      </trkpt>
      <trkpt lat="42.5471595861017704010009765625" lon="-0.3765310160815715789794921875">
        <ele>885.4000244140625</ele>
        <time>2020-08-19T05:51:33.000Z</time>
      </trkpt>
      <trkpt lat="42.5474539585411548614501953125" lon="-0.37649807520210742950439453125">
        <ele>886</ele>
        <time>2020-08-19T05:51:43.000Z</time>
      </trkpt>
      <trkpt lat="42.54759955219924449920654296875" lon="-0.37649095058441162109375">
        <ele>886.4000244140625</ele>
        <time>2020-08-19T05:51:48.000Z</time>
      </trkpt>
      <trkpt lat="42.5477701239287853240966796875" lon="-0.37649405188858509063720703125">
        <ele>887</ele>
        <time>2020-08-19T05:51:54.000Z</time>
      </trkpt>
      <trkpt lat="42.54802585579454898834228515625" lon="-0.37651517428457736968994140625">
        <ele>887.20001220703125</ele>
        <time>2020-08-19T05:52:03.000Z</time>
      </trkpt>
      <trkpt lat="42.54811101593077182769775390625" lon="-0.37652925588190555572509765625">
        <ele>887.4000244140625</ele>
        <time>2020-08-19T05:52:06.000Z</time>
      </trkpt>
      <trkpt lat="42.54836766980588436126708984375" lon="-0.3765920363366603851318359375">
        <ele>888</ele>
        <time>2020-08-19T05:52:15.000Z</time>
      </trkpt>
      <trkpt lat="42.54861451685428619384765625" lon="-0.376689434051513671875">
        <ele>888.4000244140625</ele>
        <time>2020-08-19T05:52:24.000Z</time>
      </trkpt>
      <trkpt lat="42.54866941832005977630615234375" lon="-0.37671449594199657440185546875">
        <ele>888.5999755859375</ele>
        <time>2020-08-19T05:52:26.000Z</time>
      </trkpt>
      <trkpt lat="42.54896613769233226776123046875" lon="-0.3768686391413211822509765625">
        <ele>889.5999755859375</ele>
        <time>2020-08-19T05:52:37.000Z</time>
      </trkpt>
      <trkpt lat="42.5491730868816375732421875" lon="-0.37700635381042957305908203125">
        <ele>889.5999755859375</ele>
        <time>2020-08-19T05:52:45.000Z</time>
      </trkpt>
      <trkpt lat="42.549431584775447845458984375" lon="-0.3771747462451457977294921875">
        <ele>890.4000244140625</ele>
        <time>2020-08-19T05:52:55.000Z</time>
      </trkpt>
      <trkpt lat="42.54953183233737945556640625" lon="-0.37724456749856472015380859375">
        <ele>890.5999755859375</ele>
        <time>2020-08-19T05:52:59.000Z</time>
      </trkpt>
      <trkpt lat="42.54960693418979644775390625" lon="-0.3772941045463085174560546875">
        <ele>890.5999755859375</ele>
        <time>2020-08-19T05:53:02.000Z</time>
      </trkpt>
      <trkpt lat="42.54973174072802066802978515625" lon="-0.37738085724413394927978515625">
        <ele>890.79998779296875</ele>
        <time>2020-08-19T05:53:07.000Z</time>
      </trkpt>
      <trkpt lat="42.54983735270798206329345703125" lon="-0.37744422443211078643798828125">
        <ele>891.4000244140625</ele>
        <time>2020-08-19T05:53:11.000Z</time>
      </trkpt>
      <trkpt lat="42.54999577067792415618896484375" lon="-0.37752536125481128692626953125">
        <ele>891.79998779296875</ele>
        <time>2020-08-19T05:53:17.000Z</time>
      </trkpt>
      <trkpt lat="42.55020833574235439300537109375" lon="-0.37763147614896297454833984375">
        <ele>892.4000244140625</ele>
        <time>2020-08-19T05:53:25.000Z</time>
      </trkpt>
      <trkpt lat="42.550235576927661895751953125" lon="-0.37764362990856170654296875">
        <ele>892.4000244140625</ele>
        <time>2020-08-19T05:53:26.000Z</time>
      </trkpt>
      <trkpt lat="42.5504305399954319000244140625" lon="-0.37771512754261493682861328125">
        <ele>893</ele>
        <time>2020-08-19T05:53:33.000Z</time>
      </trkpt>
      <trkpt lat="42.550571858882904052734375" lon="-0.37775770761072635650634765625">
        <ele>893.5999755859375</ele>
        <time>2020-08-19T05:53:38.000Z</time>
      </trkpt>
      <trkpt lat="42.550711333751678466796875" lon="-0.37781101651489734649658203125">
        <ele>893.79998779296875</ele>
        <time>2020-08-19T05:53:43.000Z</time>
      </trkpt>
      <trkpt lat="42.55096153356134891510009765625" lon="-0.3778915666043758392333984375">
        <ele>894.5999755859375</ele>
        <time>2020-08-19T05:53:52.000Z</time>
      </trkpt>
      <trkpt lat="42.5510434247553348541259765625" lon="-0.37792400456964969635009765625">
        <ele>894.79998779296875</ele>
        <time>2020-08-19T05:53:55.000Z</time>
      </trkpt>
      <trkpt lat="42.5512955524027347564697265625" lon="-0.37800799123942852020263671875">
        <ele>895.4000244140625</ele>
        <time>2020-08-19T05:54:04.000Z</time>
      </trkpt>
      <trkpt lat="42.5513240508735179901123046875" lon="-0.378018133342266082763671875">
        <ele>895.5999755859375</ele>
        <time>2020-08-19T05:54:05.000Z</time>
      </trkpt>
      <trkpt lat="42.5515248812735080718994140625" lon="-0.37808158434927463531494140625">
        <ele>896.20001220703125</ele>
        <time>2020-08-19T05:54:12.000Z</time>
      </trkpt>
      <trkpt lat="42.5516965426504611968994140625" lon="-0.37813707254827022552490234375">
        <ele>896.5999755859375</ele>
        <time>2020-08-19T05:54:18.000Z</time>
      </trkpt>
      <trkpt lat="42.55180994980037212371826171875" lon="-0.3781775571405887603759765625">
        <ele>897</ele>
        <time>2020-08-19T05:54:22.000Z</time>
      </trkpt>
      <trkpt lat="42.55210113711655139923095703125" lon="-0.3782778047025203704833984375">
        <ele>897.4000244140625</ele>
        <time>2020-08-19T05:54:32.000Z</time>
      </trkpt>
      <trkpt lat="42.55216014571487903594970703125" lon="-0.3782965801656246185302734375">
        <ele>897.79998779296875</ele>
        <time>2020-08-19T05:54:34.000Z</time>
      </trkpt>
      <trkpt lat="42.55238913930952548980712890625" lon="-0.37838635034859180450439453125">
        <ele>898.4000244140625</ele>
        <time>2020-08-19T05:54:42.000Z</time>
      </trkpt>
      <trkpt lat="42.55256675183773040771484375" lon="-0.37844116799533367156982421875">
        <ele>898.79998779296875</ele>
        <time>2020-08-19T05:54:48.000Z</time>
      </trkpt>
      <trkpt lat="42.55265484564006328582763671875" lon="-0.3784690797328948974609375">
        <ele>898.79998779296875</ele>
        <time>2020-08-19T05:54:51.000Z</time>
      </trkpt>
      <trkpt lat="42.5530044548213481903076171875" lon="-0.3785978257656097412109375">
        <ele>899.20001220703125</ele>
        <time>2020-08-19T05:55:03.000Z</time>
      </trkpt>
      <trkpt lat="42.553237639367580413818359375" lon="-0.37869044579565525054931640625">
        <ele>899.4000244140625</ele>
        <time>2020-08-19T05:55:11.000Z</time>
      </trkpt>
      <trkpt lat="42.553523294627666473388671875" lon="-0.3788293339312076568603515625">
        <ele>899.5999755859375</ele>
        <time>2020-08-19T05:55:21.000Z</time>
      </trkpt>
      <trkpt lat="42.55361122079193592071533203125" lon="-0.37887283600866794586181640625">
        <ele>899.79998779296875</ele>
        <time>2020-08-19T05:55:24.000Z</time>
      </trkpt>
      <trkpt lat="42.55387173034250736236572265625" lon="-0.37902924232184886932373046875">
        <ele>899.79998779296875</ele>
        <time>2020-08-19T05:55:33.000Z</time>
      </trkpt>
      <trkpt lat="42.55417616106569766998291015625" lon="-0.3792192600667476654052734375">
        <ele>899.5999755859375</ele>
        <time>2020-08-19T05:55:43.000Z</time>
      </trkpt>
      <trkpt lat="42.554455697536468505859375" lon="-0.37939754314720630645751953125">
        <ele>899.5999755859375</ele>
        <time>2020-08-19T05:55:52.000Z</time>
      </trkpt>
      <trkpt lat="42.5547091662883758544921875" lon="-0.37954255007207393646240234375">
        <ele>899.4000244140625</ele>
        <time>2020-08-19T05:56:00.000Z</time>
      </trkpt>
      <trkpt lat="42.554962299764156341552734375" lon="-0.3797134570777416229248046875">
        <ele>898.79998779296875</ele>
        <time>2020-08-19T05:56:08.000Z</time>
      </trkpt>
      <trkpt lat="42.555308640003204345703125" lon="-0.37991805933415889739990234375">
        <ele>898.79998779296875</ele>
        <time>2020-08-19T05:56:19.000Z</time>
      </trkpt>
      <trkpt lat="42.5555649586021900177001953125" lon="-0.380082428455352783203125">
        <ele>898.5999755859375</ele>
        <time>2020-08-19T05:56:27.000Z</time>
      </trkpt>
      <trkpt lat="42.5556628592312335968017578125" lon="-0.3801409341394901275634765625">
        <ele>898.4000244140625</ele>
        <time>2020-08-19T05:56:30.000Z</time>
      </trkpt>
      <trkpt lat="42.55598464049398899078369140625" lon="-0.38034872151911258697509765625">
        <ele>898.20001220703125</ele>
        <time>2020-08-19T05:56:40.000Z</time>
      </trkpt>
      <trkpt lat="42.55637926049530506134033203125" lon="-0.38059045560657978057861328125">
        <ele>898</ele>
        <time>2020-08-19T05:56:52.000Z</time>
      </trkpt>
      <trkpt lat="42.55674169398844242095947265625" lon="-0.3808262385427951812744140625">
        <ele>897.5999755859375</ele>
        <time>2020-08-19T05:57:03.000Z</time>
      </trkpt>
      <trkpt lat="42.55696423351764678955078125" lon="-0.38096697069704532623291015625">
        <ele>897.5999755859375</ele>
        <time>2020-08-19T05:57:10.000Z</time>
      </trkpt>
      <trkpt lat="42.55718308500945568084716796875" lon="-0.38109940476715564727783203125">
        <ele>897.79998779296875</ele>
        <time>2020-08-19T05:57:17.000Z</time>
      </trkpt>
      <trkpt lat="42.55743630230426788330078125" lon="-0.381242148578166961669921875">
        <ele>897.4000244140625</ele>
        <time>2020-08-19T05:57:25.000Z</time>
      </trkpt>
      <trkpt lat="42.55750226788222789764404296875" lon="-0.381273329257965087890625">
        <ele>897.20001220703125</ele>
        <time>2020-08-19T05:57:27.000Z</time>
      </trkpt>
      <trkpt lat="42.55776965059340000152587890625" lon="-0.38132219575345516204833984375">
        <ele>896.5999755859375</ele>
        <time>2020-08-19T05:57:34.000Z</time>
      </trkpt>
      <trkpt lat="42.55804055370390415191650390625" lon="-0.38129369728267192840576171875">
        <ele>896.20001220703125</ele>
        <time>2020-08-19T05:57:40.000Z</time>
      </trkpt>
      <trkpt lat="42.558090426027774810791015625" lon="-0.38128145970404148101806640625">
        <ele>896.20001220703125</ele>
        <time>2020-08-19T05:57:41.000Z</time>
      </trkpt>
      <trkpt lat="42.55841656588017940521240234375" lon="-0.381181128323078155517578125">
        <ele>895</ele>
        <time>2020-08-19T05:57:47.000Z</time>
      </trkpt>
      <trkpt lat="42.55853642709553241729736328125" lon="-0.3811346925795078277587890625">
        <ele>894.20001220703125</ele>
        <time>2020-08-19T05:57:49.000Z</time>
      </trkpt>
      <trkpt lat="42.55866366438567638397216796875" lon="-0.381098650395870208740234375">
        <ele>893.5999755859375</ele>
        <time>2020-08-19T05:57:51.000Z</time>
      </trkpt>
      <trkpt lat="42.558729462325572967529296875" lon="-0.38108901120722293853759765625">
        <ele>893.4000244140625</ele>
        <time>2020-08-19T05:57:52.000Z</time>
      </trkpt>
      <trkpt lat="42.55886583589017391204833984375" lon="-0.38109772838652133941650390625">
        <ele>893.20001220703125</ele>
        <time>2020-08-19T05:57:54.000Z</time>
      </trkpt>
      <trkpt lat="42.5590679235756397247314453125" lon="-0.38117920048534870147705078125">
        <ele>892.4000244140625</ele>
        <time>2020-08-19T05:57:57.000Z</time>
      </trkpt>
      <trkpt lat="42.5591299496591091156005859375" lon="-0.38121909834444522857666015625">
        <ele>892.20001220703125</ele>
        <time>2020-08-19T05:57:58.000Z</time>
      </trkpt>
      <trkpt lat="42.55924670957028865814208984375" lon="-0.38131062872707843780517578125">
        <ele>891.4000244140625</ele>
        <time>2020-08-19T05:58:00.000Z</time>
      </trkpt>
      <trkpt lat="42.559446953237056732177734375" lon="-0.3814977966248989105224609375">
        <ele>891</ele>
        <time>2020-08-19T05:58:04.000Z</time>
      </trkpt>
      <trkpt lat="42.559613250195980072021484375" lon="-0.38165646605193614959716796875">
        <ele>891.79998779296875</ele>
        <time>2020-08-19T05:58:09.000Z</time>
      </trkpt>
      <trkpt lat="42.55970771424472332000732421875" lon="-0.38176744244992733001708984375">
        <ele>892.5999755859375</ele>
        <time>2020-08-19T05:58:14.000Z</time>
      </trkpt>
      <trkpt lat="42.5597408227622509002685546875" lon="-0.38181203417479991912841796875">
        <ele>893.20001220703125</ele>
        <time>2020-08-19T05:58:16.000Z</time>
      </trkpt>
      <trkpt lat="42.5598179362714290618896484375" lon="-0.381927452981472015380859375">
        <ele>893.5999755859375</ele>
        <time>2020-08-19T05:58:21.000Z</time>
      </trkpt>
      <trkpt lat="42.55984920077025890350341796875" lon="-0.38197833113372325897216796875">
        <ele>893.79998779296875</ele>
        <time>2020-08-19T05:58:23.000Z</time>
      </trkpt>
      <trkpt lat="42.559938132762908935546875" lon="-0.38221679627895355224609375">
        <ele>893.79998779296875</ele>
        <time>2020-08-19T05:58:30.000Z</time>
      </trkpt>
      <trkpt lat="42.56001717410981655120849609375" lon="-0.38254193030297756195068359375">
        <ele>893.20001220703125</ele>
        <time>2020-08-19T05:58:35.000Z</time>
      </trkpt>
      <trkpt lat="42.56003896705806255340576171875" lon="-0.38262524642050266265869140625">
        <ele>892.4000244140625</ele>
        <time>2020-08-19T05:58:36.000Z</time>
      </trkpt>
      <trkpt lat="42.56009009666740894317626953125" lon="-0.3828036971390247344970703125">
        <ele>891.4000244140625</ele>
        <time>2020-08-19T05:58:38.000Z</time>
      </trkpt>
      <trkpt lat="42.560120522975921630859375" lon="-0.382895730435848236083984375">
        <ele>890.79998779296875</ele>
        <time>2020-08-19T05:58:39.000Z</time>
      </trkpt>
      <trkpt lat="42.56015363149344921112060546875" lon="-0.3829886019229888916015625">
        <ele>890.5999755859375</ele>
        <time>2020-08-19T05:58:40.000Z</time>
      </trkpt>
      <trkpt lat="42.5601900927722454071044921875" lon="-0.38307719863951206207275390625">
        <ele>890.4000244140625</ele>
        <time>2020-08-19T05:58:41.000Z</time>
      </trkpt>
      <trkpt lat="42.5602769292891025543212890625" lon="-0.38324005901813507080078125">
        <ele>889.79998779296875</ele>
        <time>2020-08-19T05:58:43.000Z</time>
      </trkpt>
      <trkpt lat="42.560329735279083251953125" lon="-0.3833129815757274627685546875">
        <ele>889.20001220703125</ele>
        <time>2020-08-19T05:58:44.000Z</time>
      </trkpt>
      <trkpt lat="42.56051413714885711669921875" lon="-0.38352227769792079925537109375">
        <ele>888</ele>
        <time>2020-08-19T05:58:47.000Z</time>
      </trkpt>
      <trkpt lat="42.56070499308407306671142578125" lon="-0.383727215230464935302734375">
        <ele>887</ele>
        <time>2020-08-19T05:58:50.000Z</time>
      </trkpt>
      <trkpt lat="42.56076483987271785736083984375" lon="-0.38379468955099582672119140625">
        <ele>886.79998779296875</ele>
        <time>2020-08-19T05:58:51.000Z</time>
      </trkpt>
      <trkpt lat="42.56098930723965167999267578125" lon="-0.38401094265282154083251953125">
        <ele>886.79998779296875</ele>
        <time>2020-08-19T05:58:55.000Z</time>
      </trkpt>
      <trkpt lat="42.56115292198956012725830078125" lon="-0.38410817272961139678955078125">
        <ele>887.5999755859375</ele>
        <time>2020-08-19T05:58:59.000Z</time>
      </trkpt>
      <trkpt lat="42.5612056441605091094970703125" lon="-0.38412921130657196044921875">
        <ele>888</ele>
        <time>2020-08-19T05:59:01.000Z</time>
      </trkpt>
      <trkpt lat="42.56128837354481220245361328125" lon="-0.38416835479438304901123046875">
        <ele>888.79998779296875</ele>
        <time>2020-08-19T05:59:05.000Z</time>
      </trkpt>
      <trkpt lat="42.5613263435661792755126953125" lon="-0.38418645970523357391357421875">
        <ele>889.20001220703125</ele>
        <time>2020-08-19T05:59:07.000Z</time>
      </trkpt>
      <trkpt lat="42.56140136159956455230712890625" lon="-0.38421277888119220733642578125">
        <ele>890.20001220703125</ele>
        <time>2020-08-19T05:59:11.000Z</time>
      </trkpt>
      <trkpt lat="42.56149020977318286895751953125" lon="-0.38422577083110809326171875">
        <ele>891.20001220703125</ele>
        <time>2020-08-19T05:59:16.000Z</time>
      </trkpt>
      <trkpt lat="42.5615541636943817138671875" lon="-0.3842497430741786956787109375">
        <ele>892</ele>
        <time>2020-08-19T05:59:20.000Z</time>
      </trkpt>
      <trkpt lat="42.5615684129297733306884765625" lon="-0.38425938226282596588134765625">
        <ele>892.4000244140625</ele>
        <time>2020-08-19T05:59:21.000Z</time>
      </trkpt>
      <trkpt lat="42.5616327859461307525634765625" lon="-0.3842933289706707000732421875">
        <ele>893.4000244140625</ele>
        <time>2020-08-19T05:59:25.000Z</time>
      </trkpt>
      <trkpt lat="42.5616492144763469696044921875" lon="-0.38430062122642993927001953125">
        <ele>893.5999755859375</ele>
        <time>2020-08-19T05:59:26.000Z</time>
      </trkpt>
      <trkpt lat="42.561729848384857177734375" lon="-0.38433649577200412750244140625">
        <ele>894.4000244140625</ele>
        <time>2020-08-19T05:59:31.000Z</time>
      </trkpt>
      <trkpt lat="42.561778463423252105712890625" lon="-0.38435929454863071441650390625">
        <ele>895.20001220703125</ele>
        <time>2020-08-19T05:59:34.000Z</time>
      </trkpt>
      <trkpt lat="42.5618265755474567413330078125" lon="-0.384383015334606170654296875">
        <ele>895.5999755859375</ele>
        <time>2020-08-19T05:59:37.000Z</time>
      </trkpt>
      <trkpt lat="42.56191215477883815765380859375" lon="-0.3844234161078929901123046875">
        <ele>896.4000244140625</ele>
        <time>2020-08-19T05:59:42.000Z</time>
      </trkpt>
      <trkpt lat="42.561930678784847259521484375" lon="-0.384433306753635406494140625">
        <ele>896.5999755859375</ele>
        <time>2020-08-19T05:59:43.000Z</time>
      </trkpt>
      <trkpt lat="42.56210007704794406890869140625" lon="-0.3845025412738323211669921875">
        <ele>897.20001220703125</ele>
        <time>2020-08-19T05:59:52.000Z</time>
      </trkpt>
      <trkpt lat="42.5622944533824920654296875" lon="-0.38455962203443050384521484375">
        <ele>897.4000244140625</ele>
        <time>2020-08-19T06:00:01.000Z</time>
      </trkpt>
      <trkpt lat="42.56231649778783321380615234375" lon="-0.3845632262527942657470703125">
        <ele>897.4000244140625</ele>
        <time>2020-08-19T06:00:02.000Z</time>
      </trkpt>
      <trkpt lat="42.56244557909667491912841796875" lon="-0.3845897130668163299560546875">
        <ele>897.4000244140625</ele>
        <time>2020-08-19T06:00:07.000Z</time>
      </trkpt>
      <trkpt lat="42.5626671127974987030029296875" lon="-0.38463958539068698883056640625">
        <ele>896.79998779296875</ele>
        <time>2020-08-19T06:00:13.000Z</time>
      </trkpt>
      <trkpt lat="42.56280742585659027099609375" lon="-0.38467009551823139190673828125">
        <ele>896.20001220703125</ele>
        <time>2020-08-19T06:00:16.000Z</time>
      </trkpt>
      <trkpt lat="42.56305494345724582672119140625" lon="-0.38473815657198429107666015625">
        <ele>895.4000244140625</ele>
        <time>2020-08-19T06:00:21.000Z</time>
      </trkpt>
      <trkpt lat="42.5631542690098285675048828125" lon="-0.38476112298667430877685546875">
        <ele>895.20001220703125</ele>
        <time>2020-08-19T06:00:23.000Z</time>
      </trkpt>
      <trkpt lat="42.563497088849544525146484375" lon="-0.38484510965645313262939453125">
        <ele>894.5999755859375</ele>
        <time>2020-08-19T06:00:30.000Z</time>
      </trkpt>
      <trkpt lat="42.56366849876940250396728515625" lon="-0.3848876059055328369140625">
        <ele>894</ele>
        <time>2020-08-19T06:00:33.000Z</time>
      </trkpt>
      <trkpt lat="42.563796155154705047607421875" lon="-0.38489540107548236846923828125">
        <ele>893.4000244140625</ele>
        <time>2020-08-19T06:00:35.000Z</time>
      </trkpt>
      <trkpt lat="42.5638581812381744384765625" lon="-0.38488827645778656005859375">
        <ele>893.20001220703125</ele>
        <time>2020-08-19T06:00:36.000Z</time>
      </trkpt>
      <trkpt lat="42.5640253163874149322509765625" lon="-0.3848136775195598602294921875">
        <ele>893.20001220703125</ele>
        <time>2020-08-19T06:00:39.000Z</time>
      </trkpt>
      <trkpt lat="42.56407502107322216033935546875" lon="-0.38477587513625621795654296875">
        <ele>893.20001220703125</ele>
        <time>2020-08-19T06:00:40.000Z</time>
      </trkpt>
      <trkpt lat="42.56417342461645603179931640625" lon="-0.38469607941806316375732421875">
        <ele>893</ele>
        <time>2020-08-19T06:00:42.000Z</time>
      </trkpt>
      <trkpt lat="42.56422136910259723663330078125" lon="-0.3846514038741588592529296875">
        <ele>892.5999755859375</ele>
        <time>2020-08-19T06:00:43.000Z</time>
      </trkpt>
      <trkpt lat="42.56434542126953601837158203125" lon="-0.38446859456598758697509765625">
        <ele>892</ele>
        <time>2020-08-19T06:00:46.000Z</time>
      </trkpt>
      <trkpt lat="42.56438196636736392974853515625" lon="-0.38440086878836154937744140625">
        <ele>891.79998779296875</ele>
        <time>2020-08-19T06:00:47.000Z</time>
      </trkpt>
      <trkpt lat="42.56446444429457187652587890625" lon="-0.38427782244980335235595703125">
        <ele>891.4000244140625</ele>
        <time>2020-08-19T06:00:49.000Z</time>
      </trkpt>
      <trkpt lat="42.564573995769023895263671875" lon="-0.384196601808071136474609375">
        <ele>891.20001220703125</ele>
        <time>2020-08-19T06:00:51.000Z</time>
      </trkpt>
      <trkpt lat="42.5647089444100856781005859375" lon="-0.38416408002376556396484375">
        <ele>890.79998779296875</ele>
        <time>2020-08-19T06:00:53.000Z</time>
      </trkpt>
      <trkpt lat="42.5647830404341220855712890625" lon="-0.38415469229221343994140625">
        <ele>890.5999755859375</ele>
        <time>2020-08-19T06:00:54.000Z</time>
      </trkpt>
      <trkpt lat="42.56486057303845882415771484375" lon="-0.3841444663703441619873046875">
        <ele>890.4000244140625</ele>
        <time>2020-08-19T06:00:55.000Z</time>
      </trkpt>
      <trkpt lat="42.56502485834062099456787109375" lon="-0.384108088910579681396484375">
        <ele>889.5999755859375</ele>
        <time>2020-08-19T06:00:57.000Z</time>
      </trkpt>
      <trkpt lat="42.5651947595179080963134765625" lon="-0.38405234925448894500732421875">
        <ele>888</ele>
        <time>2020-08-19T06:00:59.000Z</time>
      </trkpt>
      <trkpt lat="42.5652809254825115203857421875" lon="-0.38401924073696136474609375">
        <ele>887</ele>
        <time>2020-08-19T06:01:00.000Z</time>
      </trkpt>
      <trkpt lat="42.565365247428417205810546875" lon="-0.383982025086879730224609375">
        <ele>886.79998779296875</ele>
        <time>2020-08-19T06:01:01.000Z</time>
      </trkpt>
      <trkpt lat="42.56566691212356090545654296875" lon="-0.38383827544748783111572265625">
        <ele>886</ele>
        <time>2020-08-19T06:01:05.000Z</time>
      </trkpt>
      <trkpt lat="42.56599062122404575347900390625" lon="-0.38376250304281711578369140625">
        <ele>886.5999755859375</ele>
        <time>2020-08-19T06:01:10.000Z</time>
      </trkpt>
      <trkpt lat="42.56629454903304576873779296875" lon="-0.383732579648494720458984375">
        <ele>887.4000244140625</ele>
        <time>2020-08-19T06:01:16.000Z</time>
      </trkpt>
      <trkpt lat="42.566400580108165740966796875" lon="-0.38372646085917949676513671875">
        <ele>887.79998779296875</ele>
        <time>2020-08-19T06:01:20.000Z</time>
      </trkpt>
      <trkpt lat="42.5664228759706020355224609375" lon="-0.383719839155673980712890625">
        <ele>887.79998779296875</ele>
        <time>2020-08-19T06:01:21.000Z</time>
      </trkpt>
      <trkpt lat="42.5665952078998088836669921875" lon="-0.38366745226085186004638671875">
        <ele>888.79998779296875</ele>
        <time>2020-08-19T06:01:29.000Z</time>
      </trkpt>
      <trkpt lat="42.5666807033121585845947265625" lon="-0.3836438991129398345947265625">
        <ele>888.79998779296875</ele>
        <time>2020-08-19T06:01:35.000Z</time>
      </trkpt>
      <trkpt lat="42.5667102076113224029541015625" lon="-0.38361682556569576263427734375">
        <ele>888.79998779296875</ele>
        <time>2020-08-19T06:01:38.000Z</time>
      </trkpt>
      <trkpt lat="42.56675438024103641510009765625" lon="-0.38360224105417728424072265625">
        <ele>888.79998779296875</ele>
        <time>2020-08-19T06:01:41.000Z</time>
      </trkpt>
      <trkpt lat="42.566814981400966644287109375" lon="-0.3835882432758808135986328125">
        <ele>889.20001220703125</ele>
        <time>2020-08-19T06:01:45.000Z</time>
      </trkpt>
      <trkpt lat="42.56684993393719196319580078125" lon="-0.38361531682312488555908203125">
        <ele>889.4000244140625</ele>
        <time>2020-08-19T06:01:48.000Z</time>
      </trkpt>
      <trkpt lat="42.56688111461699008941650390625" lon="-0.3836063481867313385009765625">
        <ele>889.5999755859375</ele>
        <time>2020-08-19T06:01:50.000Z</time>
      </trkpt>
      <trkpt lat="42.566932328045368194580078125" lon="-0.38358044810593128204345703125">
        <ele>889.79998779296875</ele>
        <time>2020-08-19T06:01:53.000Z</time>
      </trkpt>
      <trkpt lat="42.5669506005942821502685546875" lon="-0.38357726298272609710693359375">
        <ele>889.79998779296875</ele>
        <time>2020-08-19T06:01:54.000Z</time>
      </trkpt>
      <trkpt lat="42.56708546541631221771240234375" lon="-0.38354591466486454010009765625">
        <ele>890.20001220703125</ele>
        <time>2020-08-19T06:02:01.000Z</time>
      </trkpt>
      <trkpt lat="42.5671816058456897735595703125" lon="-0.38353434763848781585693359375">
        <ele>890.5999755859375</ele>
        <time>2020-08-19T06:02:06.000Z</time>
      </trkpt>
      <trkpt lat="42.567217983305454254150390625" lon="-0.38352839648723602294921875">
        <ele>890.79998779296875</ele>
        <time>2020-08-19T06:02:08.000Z</time>
      </trkpt>
      <trkpt lat="42.567366175353527069091796875" lon="-0.38351875729858875274658203125">
        <ele>892.20001220703125</ele>
        <time>2020-08-19T06:02:16.000Z</time>
      </trkpt>
      <trkpt lat="42.567384280264377593994140625" lon="-0.38351691327989101409912109375">
        <ele>891.5999755859375</ele>
        <time>2020-08-19T06:02:17.000Z</time>
      </trkpt>
      <trkpt lat="42.56751042790710926055908203125" lon="-0.3835017420351505279541015625">
        <ele>892.5999755859375</ele>
        <time>2020-08-19T06:02:24.000Z</time>
      </trkpt>
      <trkpt lat="42.567528784275054931640625" lon="-0.3835010714828968048095703125">
        <ele>892.79998779296875</ele>
        <time>2020-08-19T06:02:25.000Z</time>
      </trkpt>
      <trkpt lat="42.56766884587705135345458984375" lon="-0.38347802124917507171630859375">
        <ele>893.5999755859375</ele>
        <time>2020-08-19T06:02:33.000Z</time>
      </trkpt>
      <trkpt lat="42.56770488806068897247314453125" lon="-0.38347165100276470184326171875">
        <ele>893.79998779296875</ele>
        <time>2020-08-19T06:02:35.000Z</time>
      </trkpt>
      <trkpt lat="42.56779323332011699676513671875" lon="-0.38345823995769023895263671875">
        <ele>895</ele>
        <time>2020-08-19T06:02:40.000Z</time>
      </trkpt>
      <trkpt lat="42.56782759912312030792236328125" lon="-0.38345488719642162322998046875">
        <ele>895.20001220703125</ele>
        <time>2020-08-19T06:02:42.000Z</time>
      </trkpt>
      <trkpt lat="42.5678980909287929534912109375" lon="-0.38346058689057826995849609375">
        <ele>896</ele>
        <time>2020-08-19T06:02:46.000Z</time>
      </trkpt>
      <trkpt lat="42.5679674930870532989501953125" lon="-0.38347533904016017913818359375">
        <ele>896.20001220703125</ele>
        <time>2020-08-19T06:02:50.000Z</time>
      </trkpt>
      <trkpt lat="42.56802122108638286590576171875" lon="-0.38347718305885791778564453125">
        <ele>897</ele>
        <time>2020-08-19T06:02:53.000Z</time>
      </trkpt>
      <trkpt lat="42.56807620637118816375732421875" lon="-0.38348279893398284912109375">
        <ele>897.4000244140625</ele>
        <time>2020-08-19T06:02:56.000Z</time>
      </trkpt>
      <trkpt lat="42.56814636290073394775390625" lon="-0.383498556911945343017578125">
        <ele>898</ele>
        <time>2020-08-19T06:03:00.000Z</time>
      </trkpt>
      <trkpt lat="42.5682353787124156951904296875" lon="-0.383528061211109161376953125">
        <ele>898.5999755859375</ele>
        <time>2020-08-19T06:03:05.000Z</time>
      </trkpt>
      <trkpt lat="42.56830729544162750244140625" lon="-0.38355094380676746368408203125">
        <ele>899</ele>
        <time>2020-08-19T06:03:09.000Z</time>
      </trkpt>
      <trkpt lat="42.56839388050138950347900390625" lon="-0.38356435485184192657470703125">
        <ele>899.79998779296875</ele>
        <time>2020-08-19T06:03:14.000Z</time>
      </trkpt>
      <trkpt lat="42.56841198541224002838134765625" lon="-0.3835651092231273651123046875">
        <ele>900</ele>
        <time>2020-08-19T06:03:15.000Z</time>
      </trkpt>
      <trkpt lat="42.56853553466498851776123046875" lon="-0.38359184749424457550048828125">
        <ele>901</ele>
        <time>2020-08-19T06:03:22.000Z</time>
      </trkpt>
      <trkpt lat="42.56855397485196590423583984375" lon="-0.3835947811603546142578125">
        <ele>901.20001220703125</ele>
        <time>2020-08-19T06:03:23.000Z</time>
      </trkpt>
      <trkpt lat="42.5686779431998729705810546875" lon="-0.38361146114766597747802734375">
        <ele>902</ele>
        <time>2020-08-19T06:03:30.000Z</time>
      </trkpt>
      <trkpt lat="42.5688009895384311676025390625" lon="-0.383633337914943695068359375">
        <ele>903.20001220703125</ele>
        <time>2020-08-19T06:03:37.000Z</time>
      </trkpt>
      <trkpt lat="42.56893099285662174224853515625" lon="-0.38366644643247127532958984375">
        <ele>904.20001220703125</ele>
        <time>2020-08-19T06:03:44.000Z</time>
      </trkpt>
      <trkpt lat="42.56896804086863994598388671875" lon="-0.38366829045116901397705078125">
        <ele>904.5999755859375</ele>
        <time>2020-08-19T06:03:46.000Z</time>
      </trkpt>
      <trkpt lat="42.569137103855609893798828125" lon="-0.38369745947420597076416015625">
        <ele>905</ele>
        <time>2020-08-19T06:03:54.000Z</time>
      </trkpt>
      <trkpt lat="42.5693357549607753753662109375" lon="-0.38369377143681049346923828125">
        <ele>904.4000244140625</ele>
        <time>2020-08-19T06:04:00.000Z</time>
      </trkpt>
      <trkpt lat="42.56956365890800952911376953125" lon="-0.38366728462278842926025390625">
        <ele>904.20001220703125</ele>
        <time>2020-08-19T06:04:07.000Z</time>
      </trkpt>
      <trkpt lat="42.5697685964405536651611328125" lon="-0.3836418874561786651611328125">
        <ele>905</ele>
        <time>2020-08-19T06:04:16.000Z</time>
      </trkpt>
      <trkpt lat="42.56997168995440006256103515625" lon="-0.3836536221206188201904296875">
        <ele>904.4000244140625</ele>
        <time>2020-08-19T06:04:24.000Z</time>
      </trkpt>
      <trkpt lat="42.570184171199798583984375" lon="-0.3836760856211185455322265625">
        <ele>904.4000244140625</ele>
        <time>2020-08-19T06:04:32.000Z</time>
      </trkpt>
      <trkpt lat="42.57037100382149219512939453125" lon="-0.3837032429873943328857421875">
        <ele>904.20001220703125</ele>
        <time>2020-08-19T06:04:39.000Z</time>
      </trkpt>
      <trkpt lat="42.57054693996906280517578125" lon="-0.38369997404515743255615234375">
        <ele>904.4000244140625</ele>
        <time>2020-08-19T06:04:46.000Z</time>
      </trkpt>
      <trkpt lat="42.57064081728458404541015625" lon="-0.38370248861610889434814453125">
        <ele>905</ele>
        <time>2020-08-19T06:04:50.000Z</time>
      </trkpt>
      <trkpt lat="42.570725977420806884765625" lon="-0.38373936899006366729736328125">
        <ele>905.4000244140625</ele>
        <time>2020-08-19T06:04:54.000Z</time>
      </trkpt>
      <trkpt lat="42.5708936154842376708984375" lon="-0.383912287652492523193359375">
        <ele>905.5999755859375</ele>
        <time>2020-08-19T06:05:02.000Z</time>
      </trkpt>
      <trkpt lat="42.5710855610668659210205078125" lon="-0.38415896706283092498779296875">
        <ele>905</ele>
        <time>2020-08-19T06:05:09.000Z</time>
      </trkpt>
      <trkpt lat="42.5712585635483264923095703125" lon="-0.38433934561908245086669921875">
        <ele>905</ele>
        <time>2020-08-19T06:05:16.000Z</time>
      </trkpt>
      <trkpt lat="42.57143743336200714111328125" lon="-0.38452374748885631561279296875">
        <ele>906</ele>
        <time>2020-08-19T06:05:25.000Z</time>
      </trkpt>
      <trkpt lat="42.571629546582698822021484375" lon="-0.38471686653792858123779296875">
        <ele>906.79998779296875</ele>
        <time>2020-08-19T06:05:35.000Z</time>
      </trkpt>
      <trkpt lat="42.57166969589889049530029296875" lon="-0.3847580216825008392333984375">
        <ele>907</ele>
        <time>2020-08-19T06:05:37.000Z</time>
      </trkpt>
      <trkpt lat="42.57177832536399364471435546875" lon="-0.38490235805511474609375">
        <ele>907.5999755859375</ele>
        <time>2020-08-19T06:05:43.000Z</time>
      </trkpt>
      <trkpt lat="42.57190883159637451171875" lon="-0.3850641287863254547119140625">
        <ele>908</ele>
        <time>2020-08-19T06:05:50.000Z</time>
      </trkpt>
      <trkpt lat="42.57195015437901020050048828125" lon="-0.3851048648357391357421875">
        <ele>908.20001220703125</ele>
        <time>2020-08-19T06:05:52.000Z</time>
      </trkpt>
      <trkpt lat="42.5721172057092189788818359375" lon="-0.3852515481412410736083984375">
        <ele>908.5999755859375</ele>
        <time>2020-08-19T06:06:00.000Z</time>
      </trkpt>
      <trkpt lat="42.57222088985145092010498046875" lon="-0.38531566970050334930419921875">
        <ele>909.20001220703125</ele>
        <time>2020-08-19T06:06:05.000Z</time>
      </trkpt>
      <trkpt lat="42.5722990930080413818359375" lon="-0.38536679930984973907470703125">
        <ele>910</ele>
        <time>2020-08-19T06:06:09.000Z</time>
      </trkpt>
      <trkpt lat="42.5723366439342498779296875" lon="-0.38539177738130092620849609375">
        <ele>910</ele>
        <time>2020-08-19T06:06:11.000Z</time>
      </trkpt>
      <trkpt lat="42.57249330170452594757080078125" lon="-0.3854983113706111907958984375">
        <ele>911</ele>
        <time>2020-08-19T06:06:19.000Z</time>
      </trkpt>
      <trkpt lat="42.572623975574970245361328125" lon="-0.3856305778026580810546875">
        <ele>911.5999755859375</ele>
        <time>2020-08-19T06:06:26.000Z</time>
      </trkpt>
      <trkpt lat="42.57277945987880229949951171875" lon="-0.38585680536925792694091796875">
        <ele>911.79998779296875</ele>
        <time>2020-08-19T06:06:35.000Z</time>
      </trkpt>
      <trkpt lat="42.57288339547812938690185546875" lon="-0.38603651337325572967529296875">
        <ele>912</ele>
        <time>2020-08-19T06:06:42.000Z</time>
      </trkpt>
      <trkpt lat="42.572912983596324920654296875" lon="-0.38608764298260211944580078125">
        <ele>912.20001220703125</ele>
        <time>2020-08-19T06:06:44.000Z</time>
      </trkpt>
      <trkpt lat="42.5730589963495731353759765625" lon="-0.3863220848143100738525390625">
        <ele>913</ele>
        <time>2020-08-19T06:06:53.000Z</time>
      </trkpt>
      <trkpt lat="42.573076598346233367919921875" lon="-0.3863492421805858612060546875">
        <ele>913</ele>
        <time>2020-08-19T06:06:54.000Z</time>
      </trkpt>
      <trkpt lat="42.57314600050449371337890625" lon="-0.38645611144602298736572265625">
        <ele>913.20001220703125</ele>
        <time>2020-08-19T06:06:58.000Z</time>
      </trkpt>
      <trkpt lat="42.5732152350246906280517578125" lon="-0.38656138814985752105712890625">
        <ele>913.20001220703125</ele>
        <time>2020-08-19T06:07:02.000Z</time>
      </trkpt>
      <trkpt lat="42.573348172008991241455078125" lon="-0.38674662820994853973388671875">
        <ele>913.4000244140625</ele>
        <time>2020-08-19T06:07:09.000Z</time>
      </trkpt>
      <trkpt lat="42.57340776734054088592529296875" lon="-0.38692516274750232696533203125">
        <ele>914</ele>
        <time>2020-08-19T06:07:15.000Z</time>
      </trkpt>
      <trkpt lat="42.57341556251049041748046875" lon="-0.38695466704666614532470703125">
        <ele>914.20001220703125</ele>
        <time>2020-08-19T06:07:16.000Z</time>
      </trkpt>
      <trkpt lat="42.57350482977926731109619140625" lon="-0.387179218232631683349609375">
        <ele>914.79998779296875</ele>
        <time>2020-08-19T06:07:24.000Z</time>
      </trkpt>
      <trkpt lat="42.57359049282968044281005859375" lon="-0.38729153573513031005859375">
        <ele>915.20001220703125</ele>
        <time>2020-08-19T06:07:29.000Z</time>
      </trkpt>
      <trkpt lat="42.573650591075420379638671875" lon="-0.38733872584998607635498046875">
        <ele>915.4000244140625</ele>
        <time>2020-08-19T06:07:32.000Z</time>
      </trkpt>
      <trkpt lat="42.57375511340796947479248046875" lon="-0.38738415576517581939697265625">
        <ele>916</ele>
        <time>2020-08-19T06:07:37.000Z</time>
      </trkpt>
      <trkpt lat="42.57377757690846920013427734375" lon="-0.3873879276216030120849609375">
        <ele>916.20001220703125</ele>
        <time>2020-08-19T06:07:38.000Z</time>
      </trkpt>
      <trkpt lat="42.5739669241011142730712890625" lon="-0.38747794926166534423828125">
        <ele>917.20001220703125</ele>
        <time>2020-08-19T06:07:47.000Z</time>
      </trkpt>
      <trkpt lat="42.57410950027406215667724609375" lon="-0.3876293264329433441162109375">
        <ele>918.20001220703125</ele>
        <time>2020-08-19T06:07:55.000Z</time>
      </trkpt>
      <trkpt lat="42.57412710227072238922119140625" lon="-0.38764902390539646148681640625">
        <ele>918.20001220703125</ele>
        <time>2020-08-19T06:07:56.000Z</time>
      </trkpt>
      <trkpt lat="42.57427110336720943450927734375" lon="-0.3878157399594783782958984375">
        <ele>919.20001220703125</ele>
        <time>2020-08-19T06:08:04.000Z</time>
      </trkpt>
      <trkpt lat="42.5743072293698787689208984375" lon="-0.38785873912274837493896484375">
        <ele>919.20001220703125</ele>
        <time>2020-08-19T06:08:06.000Z</time>
      </trkpt>
      <trkpt lat="42.5744443573057651519775390625" lon="-0.388028137385845184326171875">
        <ele>920</ele>
        <time>2020-08-19T06:08:14.000Z</time>
      </trkpt>
      <trkpt lat="42.574476040899753570556640625" lon="-0.38807474076747894287109375">
        <ele>920.20001220703125</ele>
        <time>2020-08-19T06:08:16.000Z</time>
      </trkpt>
      <trkpt lat="42.5745814852416515350341796875" lon="-0.388251431286334991455078125">
        <ele>921</ele>
        <time>2020-08-19T06:08:23.000Z</time>
      </trkpt>
      <trkpt lat="42.57471106946468353271484375" lon="-0.3885087557137012481689453125">
        <ele>921.4000244140625</ele>
        <time>2020-08-19T06:08:32.000Z</time>
      </trkpt>
      <trkpt lat="42.57473797537386417388916015625" lon="-0.38856885395944118499755859375">
        <ele>921.4000244140625</ele>
        <time>2020-08-19T06:08:34.000Z</time>
      </trkpt>
      <trkpt lat="42.57485917769372463226318359375" lon="-0.3888567723333835601806640625">
        <ele>922.20001220703125</ele>
        <time>2020-08-19T06:08:44.000Z</time>
      </trkpt>
      <trkpt lat="42.57488365285098552703857421875" lon="-0.3889144398272037506103515625">
        <ele>922.4000244140625</ele>
        <time>2020-08-19T06:08:46.000Z</time>
      </trkpt>
      <trkpt lat="42.5749700702726840972900390625" lon="-0.38911904208362102508544921875">
        <ele>922.79998779296875</ele>
        <time>2020-08-19T06:08:53.000Z</time>
      </trkpt>
      <trkpt lat="42.57508448325097560882568359375" lon="-0.38928844034671783447265625">
        <ele>923.4000244140625</ele>
        <time>2020-08-19T06:09:00.000Z</time>
      </trkpt>
      <trkpt lat="42.57510191760957241058349609375" lon="-0.38930780254304409027099609375">
        <ele>923.4000244140625</ele>
        <time>2020-08-19T06:09:01.000Z</time>
      </trkpt>
      <trkpt lat="42.57525547407567501068115234375" lon="-0.38945331238210201263427734375">
        <ele>924.4000244140625</ele>
        <time>2020-08-19T06:09:09.000Z</time>
      </trkpt>
      <trkpt lat="42.5754290632903575897216796875" lon="-0.389542244374752044677734375">
        <ele>924.4000244140625</ele>
        <time>2020-08-19T06:09:16.000Z</time>
      </trkpt>
      <trkpt lat="42.57545479573309421539306640625" lon="-0.38954484276473522186279296875">
        <ele>924.5999755859375</ele>
        <time>2020-08-19T06:09:17.000Z</time>
      </trkpt>
      <trkpt lat="42.57564858533442020416259765625" lon="-0.38951617665588855743408203125">
        <ele>925.5999755859375</ele>
        <time>2020-08-19T06:09:25.000Z</time>
      </trkpt>
      <trkpt lat="42.5756718032062053680419921875" lon="-0.38951232098042964935302734375">
        <ele>925.5999755859375</ele>
        <time>2020-08-19T06:09:26.000Z</time>
      </trkpt>
      <trkpt lat="42.5758391059935092926025390625" lon="-0.38954283110797405242919921875">
        <ele>926.20001220703125</ele>
        <time>2020-08-19T06:09:33.000Z</time>
      </trkpt>
      <trkpt lat="42.576020658016204833984375" lon="-0.38957585580646991729736328125">
        <ele>926.4000244140625</ele>
        <time>2020-08-19T06:09:40.000Z</time>
      </trkpt>
      <trkpt lat="42.576228864490985870361328125" lon="-0.3895626962184906005859375">
        <ele>926.5999755859375</ele>
        <time>2020-08-19T06:09:48.000Z</time>
      </trkpt>
      <trkpt lat="42.576253674924373626708984375" lon="-0.38955775089561939239501953125">
        <ele>926.5999755859375</ele>
        <time>2020-08-19T06:09:49.000Z</time>
      </trkpt>
      <trkpt lat="42.57644922472536563873291015625" lon="-0.38954936899244785308837890625">
        <ele>927.4000244140625</ele>
        <time>2020-08-19T06:09:57.000Z</time>
      </trkpt>
      <trkpt lat="42.5764747895300388336181640625" lon="-0.38955439813435077667236328125">
        <ele>927.4000244140625</ele>
        <time>2020-08-19T06:09:58.000Z</time>
      </trkpt>
      <trkpt lat="42.57670772261917591094970703125" lon="-0.38960670121014118194580078125">
        <ele>927.4000244140625</ele>
        <time>2020-08-19T06:10:06.000Z</time>
      </trkpt>
      <trkpt lat="42.57692330516874790191650390625" lon="-0.38968414999544620513916015625">
        <ele>927.20001220703125</ele>
        <time>2020-08-19T06:10:14.000Z</time>
      </trkpt>
      <trkpt lat="42.57716420106589794158935546875" lon="-0.38977752439677715301513671875">
        <ele>927</ele>
        <time>2020-08-19T06:10:23.000Z</time>
      </trkpt>
      <trkpt lat="42.5774075277149677276611328125" lon="-0.3898334316909313201904296875">
        <ele>927</ele>
        <time>2020-08-19T06:10:31.000Z</time>
      </trkpt>
      <trkpt lat="42.577599473297595977783203125" lon="-0.3898523747920989990234375">
        <ele>927.20001220703125</ele>
        <time>2020-08-19T06:10:38.000Z</time>
      </trkpt>
      <trkpt lat="42.577826790511608123779296875" lon="-0.3898770175874233245849609375">
        <ele>926.5999755859375</ele>
        <time>2020-08-19T06:10:45.000Z</time>
      </trkpt>
      <trkpt lat="42.57792628370225429534912109375" lon="-0.38988967426121234893798828125">
        <ele>926.4000244140625</ele>
        <time>2020-08-19T06:10:48.000Z</time>
      </trkpt>
      <trkpt lat="42.5780656747519969940185546875" lon="-0.3898974694311618804931640625">
        <ele>926.79998779296875</ele>
        <time>2020-08-19T06:10:53.000Z</time>
      </trkpt>
      <trkpt lat="42.578280754387378692626953125" lon="-0.38992286659777164459228515625">
        <ele>927.4000244140625</ele>
        <time>2020-08-19T06:11:01.000Z</time>
      </trkpt>
      <trkpt lat="42.57830698974430561065673828125" lon="-0.3899288177490234375">
        <ele>927.4000244140625</ele>
        <time>2020-08-19T06:11:02.000Z</time>
      </trkpt>
      <trkpt lat="42.57847848348319530487060546875" lon="-0.39002076722681522369384765625">
        <ele>928</ele>
        <time>2020-08-19T06:11:09.000Z</time>
      </trkpt>
      <trkpt lat="42.57865634746849536895751953125" lon="-0.39018832147121429443359375">
        <ele>927.79998779296875</ele>
        <time>2020-08-19T06:11:16.000Z</time>
      </trkpt>
      <trkpt lat="42.57884343154728412628173828125" lon="-0.39025680162012577056884765625">
        <ele>927.5999755859375</ele>
        <time>2020-08-19T06:11:23.000Z</time>
      </trkpt>
      <trkpt lat="42.57903604768216609954833984375" lon="-0.3902967832982540130615234375">
        <ele>927.79998779296875</ele>
        <time>2020-08-19T06:11:30.000Z</time>
      </trkpt>
      <trkpt lat="42.57918977178633213043212890625" lon="-0.39029770530760288238525390625">
        <ele>928.20001220703125</ele>
        <time>2020-08-19T06:11:36.000Z</time>
      </trkpt>
      <trkpt lat="42.57921449840068817138671875" lon="-0.3903014771640300750732421875">
        <ele>928.4000244140625</ele>
        <time>2020-08-19T06:11:37.000Z</time>
      </trkpt>
      <trkpt lat="42.57940183393657207489013671875" lon="-0.39037750102579593658447265625">
        <ele>929</ele>
        <time>2020-08-19T06:11:45.000Z</time>
      </trkpt>
      <trkpt lat="42.57951783947646617889404296875" lon="-0.39046199060976505279541015625">
        <ele>929.4000244140625</ele>
        <time>2020-08-19T06:11:50.000Z</time>
      </trkpt>
      <trkpt lat="42.57957668043673038482666015625" lon="-0.3905321471393108367919921875">
        <ele>929.5999755859375</ele>
        <time>2020-08-19T06:11:53.000Z</time>
      </trkpt>
      <trkpt lat="42.57969461381435394287109375" lon="-0.390794165432453155517578125">
        <ele>929.5999755859375</ele>
        <time>2020-08-19T06:12:01.000Z</time>
      </trkpt>
      <trkpt lat="42.579792849719524383544921875" lon="-0.3910541720688343048095703125">
        <ele>930</ele>
        <time>2020-08-19T06:12:09.000Z</time>
      </trkpt>
      <trkpt lat="42.57981925271451473236083984375" lon="-0.39118744432926177978515625">
        <ele>930.4000244140625</ele>
        <time>2020-08-19T06:12:13.000Z</time>
      </trkpt>
      <trkpt lat="42.579842470586299896240234375" lon="-0.391360111534595489501953125">
        <ele>930.79998779296875</ele>
        <time>2020-08-19T06:12:18.000Z</time>
      </trkpt>
      <trkpt lat="42.57988697849214076995849609375" lon="-0.39164819754660129547119140625">
        <ele>931.20001220703125</ele>
        <time>2020-08-19T06:12:26.000Z</time>
      </trkpt>
      <trkpt lat="42.57996618747711181640625" lon="-0.391742996871471405029296875">
        <ele>931.4000244140625</ele>
        <time>2020-08-19T06:12:30.000Z</time>
      </trkpt>
      <trkpt lat="42.5799884833395481109619140625" lon="-0.39175808429718017578125">
        <ele>931.5999755859375</ele>
        <time>2020-08-19T06:12:31.000Z</time>
      </trkpt>
      <trkpt lat="42.58016576059162616729736328125" lon="-0.391849614679813385009765625">
        <ele>932.4000244140625</ele>
        <time>2020-08-19T06:12:39.000Z</time>
      </trkpt>
      <trkpt lat="42.58018688298761844635009765625" lon="-0.3918625228106975555419921875">
        <ele>932.5999755859375</ele>
        <time>2020-08-19T06:12:40.000Z</time>
      </trkpt>
      <trkpt lat="42.5803703628480434417724609375" lon="-0.3919936157763004302978515625">
        <ele>933.20001220703125</ele>
        <time>2020-08-19T06:12:49.000Z</time>
      </trkpt>
      <trkpt lat="42.58041017688810825347900390625" lon="-0.392028652131557464599609375">
        <ele>933.4000244140625</ele>
        <time>2020-08-19T06:12:51.000Z</time>
      </trkpt>
      <trkpt lat="42.58053272031247615814208984375" lon="-0.39212713949382305145263671875">
        <ele>934</ele>
        <time>2020-08-19T06:12:57.000Z</time>
      </trkpt>
      <trkpt lat="42.5806576944887638092041015625" lon="-0.392222106456756591796875">
        <ele>934.4000244140625</ele>
        <time>2020-08-19T06:13:03.000Z</time>
      </trkpt>
      <trkpt lat="42.5807247497141361236572265625" lon="-0.39226493798196315765380859375">
        <ele>934.79998779296875</ele>
        <time>2020-08-19T06:13:06.000Z</time>
      </trkpt>
      <trkpt lat="42.58092298172414302825927734375" lon="-0.39230466820299625396728515625">
        <ele>935.20001220703125</ele>
        <time>2020-08-19T06:13:14.000Z</time>
      </trkpt>
      <trkpt lat="42.58099741302430629730224609375" lon="-0.39228622801601886749267578125">
        <ele>935.5999755859375</ele>
        <time>2020-08-19T06:13:17.000Z</time>
      </trkpt>
      <trkpt lat="42.58109715767204761505126953125" lon="-0.3922661952674388885498046875">
        <ele>935.79998779296875</ele>
        <time>2020-08-19T06:13:21.000Z</time>
      </trkpt>
      <trkpt lat="42.58132380433380603790283203125" lon="-0.39226477034389972686767578125">
        <ele>936.4000244140625</ele>
        <time>2020-08-19T06:13:30.000Z</time>
      </trkpt>
      <trkpt lat="42.58159018121659755706787109375" lon="-0.39232713170349597930908203125">
        <ele>936.5999755859375</ele>
        <time>2020-08-19T06:13:40.000Z</time>
      </trkpt>
      <trkpt lat="42.5816162489354610443115234375" lon="-0.3923352621495723724365234375">
        <ele>936.79998779296875</ele>
        <time>2020-08-19T06:13:41.000Z</time>
      </trkpt>
      <trkpt lat="42.5818439014256000518798828125" lon="-0.39244330488145351409912109375">
        <ele>936.79998779296875</ele>
        <time>2020-08-19T06:13:50.000Z</time>
      </trkpt>
      <trkpt lat="42.58199536241590976715087890625" lon="-0.39254506118595600128173828125">
        <ele>936.5999755859375</ele>
        <time>2020-08-19T06:13:56.000Z</time>
      </trkpt>
      <trkpt lat="42.58222117088735103607177734375" lon="-0.39275025017559528350830078125">
        <ele>936.20001220703125</ele>
        <time>2020-08-19T06:14:05.000Z</time>
      </trkpt>
      <trkpt lat="42.58240171708166599273681640625" lon="-0.3929380886256694793701171875">
        <ele>935.79998779296875</ele>
        <time>2020-08-19T06:14:13.000Z</time>
      </trkpt>
      <trkpt lat="42.58261880837380886077880859375" lon="-0.39317202754318714141845703125">
        <ele>935.5999755859375</ele>
        <time>2020-08-19T06:14:22.000Z</time>
      </trkpt>
      <trkpt lat="42.5828188844025135040283203125" lon="-0.39338140748441219329833984375">
        <ele>935.79998779296875</ele>
        <time>2020-08-19T06:14:31.000Z</time>
      </trkpt>
      <trkpt lat="42.5829848460853099822998046875" lon="-0.3935663960874080657958984375">
        <ele>936.20001220703125</ele>
        <time>2020-08-19T06:14:39.000Z</time>
      </trkpt>
      <trkpt lat="42.583146281540393829345703125" lon="-0.3937471099197864532470703125">
        <ele>937</ele>
        <time>2020-08-19T06:14:47.000Z</time>
      </trkpt>
      <trkpt lat="42.58325817994773387908935546875" lon="-0.393888764083385467529296875">
        <ele>937.5999755859375</ele>
        <time>2020-08-19T06:14:53.000Z</time>
      </trkpt>
      <trkpt lat="42.58331282995641231536865234375" lon="-0.39395816624164581298828125">
        <ele>937.79998779296875</ele>
        <time>2020-08-19T06:14:56.000Z</time>
      </trkpt>
      <trkpt lat="42.5834378041326999664306640625" lon="-0.3941350243985652923583984375">
        <ele>938.5999755859375</ele>
        <time>2020-08-19T06:15:03.000Z</time>
      </trkpt>
      <trkpt lat="42.5834760256111621856689453125" lon="-0.39418254978954792022705078125">
        <ele>938.79998779296875</ele>
        <time>2020-08-19T06:15:05.000Z</time>
      </trkpt>
      <trkpt lat="42.58362430147826671600341796875" lon="-0.3943723998963832855224609375">
        <ele>939.79998779296875</ele>
        <time>2020-08-19T06:15:13.000Z</time>
      </trkpt>
      <trkpt lat="42.58371080271899700164794921875" lon="-0.39444758556783199310302734375">
        <ele>940.20001220703125</ele>
        <time>2020-08-19T06:15:17.000Z</time>
      </trkpt>
      <trkpt lat="42.5838562287390232086181640625" lon="-0.3945433907210826873779296875">
        <ele>940.79998779296875</ele>
        <time>2020-08-19T06:15:23.000Z</time>
      </trkpt>
      <trkpt lat="42.583961002528667449951171875" lon="-0.39459711872041225433349609375">
        <ele>940.79998779296875</ele>
        <time>2020-08-19T06:15:27.000Z</time>
      </trkpt>
      <trkpt lat="42.5842022337019443511962890625" lon="-0.39469183422625064849853515625">
        <ele>941.5999755859375</ele>
        <time>2020-08-19T06:15:36.000Z</time>
      </trkpt>
      <trkpt lat="42.58448143489658832550048828125" lon="-0.39479543454945087432861328125">
        <ele>941.79998779296875</ele>
        <time>2020-08-19T06:15:46.000Z</time>
      </trkpt>
      <trkpt lat="42.5847118534147739410400390625" lon="-0.39490641094744205474853515625">
        <ele>941.79998779296875</ele>
        <time>2020-08-19T06:15:54.000Z</time>
      </trkpt>
      <trkpt lat="42.5849405117332935333251953125" lon="-0.3949836082756519317626953125">
        <ele>941.5999755859375</ele>
        <time>2020-08-19T06:16:02.000Z</time>
      </trkpt>
      <trkpt lat="42.5851735286414623260498046875" lon="-0.3950768150389194488525390625">
        <ele>941.4000244140625</ele>
        <time>2020-08-19T06:16:10.000Z</time>
      </trkpt>
      <trkpt lat="42.5854585133492946624755859375" lon="-0.39523967541754245758056640625">
        <ele>941.4000244140625</ele>
        <time>2020-08-19T06:16:20.000Z</time>
      </trkpt>
      <trkpt lat="42.5856831483542919158935546875" lon="-0.39532248862087726593017578125">
        <ele>941.20001220703125</ele>
        <time>2020-08-19T06:16:28.000Z</time>
      </trkpt>
      <trkpt lat="42.58590987883508205413818359375" lon="-0.3954439423978328704833984375">
        <ele>940.79998779296875</ele>
        <time>2020-08-19T06:16:36.000Z</time>
      </trkpt>
      <trkpt lat="42.58612462319433689117431640625" lon="-0.39556724019348621368408203125">
        <ele>940.79998779296875</ele>
        <time>2020-08-19T06:16:44.000Z</time>
      </trkpt>
      <trkpt lat="42.58630894124507904052734375" lon="-0.39556480944156646728515625">
        <ele>941.4000244140625</ele>
        <time>2020-08-19T06:16:51.000Z</time>
      </trkpt>
      <trkpt lat="42.58647129870951175689697265625" lon="-0.3954975865781307220458984375">
        <ele>942.5999755859375</ele>
        <time>2020-08-19T06:16:58.000Z</time>
      </trkpt>
      <trkpt lat="42.58660666644573211669921875" lon="-0.395473279058933258056640625">
        <ele>943.79998779296875</ele>
        <time>2020-08-19T06:17:04.000Z</time>
      </trkpt>
      <trkpt lat="42.586652599275112152099609375" lon="-0.3954769670963287353515625">
        <ele>944</ele>
        <time>2020-08-19T06:17:06.000Z</time>
      </trkpt>
      <trkpt lat="42.58681445382535457611083984375" lon="-0.3955445252358913421630859375">
        <ele>944.4000244140625</ele>
        <time>2020-08-19T06:17:13.000Z</time>
      </trkpt>
      <trkpt lat="42.5870577804744243621826171875" lon="-0.39578265510499477386474609375">
        <ele>944.5999755859375</ele>
        <time>2020-08-19T06:17:24.000Z</time>
      </trkpt>
      <trkpt lat="42.58709675632417201995849609375" lon="-0.395833365619182586669921875">
        <ele>944.79998779296875</ele>
        <time>2020-08-19T06:17:26.000Z</time>
      </trkpt>
      <trkpt lat="42.5872170366346836090087890625" lon="-0.395985580980777740478515625">
        <ele>945</ele>
        <time>2020-08-19T06:17:32.000Z</time>
      </trkpt>
      <trkpt lat="42.5874426774680614471435546875" lon="-0.3962402231991291046142578125">
        <ele>945.79998779296875</ele>
        <time>2020-08-19T06:17:43.000Z</time>
      </trkpt>
      <trkpt lat="42.5875850021839141845703125" lon="-0.39638011716306209564208984375">
        <ele>946.20001220703125</ele>
        <time>2020-08-19T06:17:50.000Z</time>
      </trkpt>
      <trkpt lat="42.5878084637224674224853515625" lon="-0.39657675661146640777587890625">
        <ele>946.5999755859375</ele>
        <time>2020-08-19T06:18:00.000Z</time>
      </trkpt>
      <trkpt lat="42.587902843952178955078125" lon="-0.39664649404585361480712890625">
        <ele>946.5999755859375</ele>
        <time>2020-08-19T06:18:04.000Z</time>
      </trkpt>
      <trkpt lat="42.58804374374449253082275390625" lon="-0.3967092745006084442138671875">
        <ele>946.79998779296875</ele>
        <time>2020-08-19T06:18:09.000Z</time>
      </trkpt>
      <trkpt lat="42.58832001127302646636962890625" lon="-0.396816730499267578125">
        <ele>946.20001220703125</ele>
        <time>2020-08-19T06:18:18.000Z</time>
      </trkpt>
      <trkpt lat="42.5885085202753543853759765625" lon="-0.39689426310360431671142578125">
        <ele>945.5999755859375</ele>
        <time>2020-08-19T06:18:23.000Z</time>
      </trkpt>
      <trkpt lat="42.5885500945150852203369140625" lon="-0.39691270329058170318603515625">
        <ele>945.4000244140625</ele>
        <time>2020-08-19T06:18:24.000Z</time>
      </trkpt>
      <trkpt lat="42.5887740589678287506103515625" lon="-0.39702233858406543731689453125">
        <ele>944.5999755859375</ele>
        <time>2020-08-19T06:18:29.000Z</time>
      </trkpt>
      <trkpt lat="42.58891864679753780364990234375" lon="-0.39709760807454586029052734375">
        <ele>944</ele>
        <time>2020-08-19T06:18:32.000Z</time>
      </trkpt>
      <trkpt lat="42.58911076001822948455810546875" lon="-0.39722316898405551910400390625">
        <ele>943.4000244140625</ele>
        <time>2020-08-19T06:18:36.000Z</time>
      </trkpt>
      <trkpt lat="42.58923715911805629730224609375" lon="-0.39732475765049457550048828125">
        <ele>943.20001220703125</ele>
        <time>2020-08-19T06:18:39.000Z</time>
      </trkpt>
      <trkpt lat="42.58944042026996612548828125" lon="-0.3975038789212703704833984375">
        <ele>942.79998779296875</ele>
        <time>2020-08-19T06:18:45.000Z</time>
      </trkpt>
      <trkpt lat="42.589588947594165802001953125" lon="-0.397617034614086151123046875">
        <ele>943.20001220703125</ele>
        <time>2020-08-19T06:18:51.000Z</time>
      </trkpt>
      <trkpt lat="42.589776031672954559326171875" lon="-0.39774569682776927947998046875">
        <ele>943.5999755859375</ele>
        <time>2020-08-19T06:18:59.000Z</time>
      </trkpt>
      <trkpt lat="42.58998029865324497222900390625" lon="-0.39790361188352108001708984375">
        <ele>944.4000244140625</ele>
        <time>2020-08-19T06:19:08.000Z</time>
      </trkpt>
      <trkpt lat="42.59002514183521270751953125" lon="-0.39793998934328556060791015625">
        <ele>944.4000244140625</ele>
        <time>2020-08-19T06:19:10.000Z</time>
      </trkpt>
      <trkpt lat="42.59016671217978000640869140625" lon="-0.39807678200304508209228515625">
        <ele>944.79998779296875</ele>
        <time>2020-08-19T06:19:17.000Z</time>
      </trkpt>
      <trkpt lat="42.5903039239346981048583984375" lon="-0.39819899015128612518310546875">
        <ele>945.20001220703125</ele>
        <time>2020-08-19T06:19:24.000Z</time>
      </trkpt>
      <trkpt lat="42.59032295085489749908447265625" lon="-0.398218519985675811767578125">
        <ele>945.4000244140625</ele>
        <time>2020-08-19T06:19:25.000Z</time>
      </trkpt>
      <trkpt lat="42.59046242572367191314697265625" lon="-0.3983377106487751007080078125">
        <ele>946.20001220703125</ele>
        <time>2020-08-19T06:19:32.000Z</time>
      </trkpt>
      <trkpt lat="42.59052260778844356536865234375" lon="-0.3983826376497745513916015625">
        <ele>946.4000244140625</ele>
        <time>2020-08-19T06:19:35.000Z</time>
      </trkpt>
      <trkpt lat="42.5906750746071338653564453125" lon="-0.39849202148616313934326171875">
        <ele>947.4000244140625</ele>
        <time>2020-08-19T06:19:43.000Z</time>
      </trkpt>
      <trkpt lat="42.5906948558986186981201171875" lon="-0.39850358851253986358642578125">
        <ele>947.5999755859375</ele>
        <time>2020-08-19T06:19:44.000Z</time>
      </trkpt>
      <trkpt lat="42.5908313132822513580322265625" lon="-0.39858707226812839508056640625">
        <ele>948.4000244140625</ele>
        <time>2020-08-19T06:19:51.000Z</time>
      </trkpt>
      <trkpt lat="42.59085084311664104461669921875" lon="-0.3985952027142047882080078125">
        <ele>948.5999755859375</ele>
        <time>2020-08-19T06:19:52.000Z</time>
      </trkpt>
      <trkpt lat="42.59092678315937519073486328125" lon="-0.39863870479166507720947265625">
        <ele>949.5999755859375</ele>
        <time>2020-08-19T06:19:56.000Z</time>
      </trkpt>
      <trkpt lat="42.591001130640506744384765625" lon="-0.3986843861639499664306640625">
        <ele>950.4000244140625</ele>
        <time>2020-08-19T06:20:00.000Z</time>
      </trkpt>
      <trkpt lat="42.591068185865879058837890625" lon="-0.39873710833489894866943359375">
        <ele>950.79998779296875</ele>
        <time>2020-08-19T06:20:04.000Z</time>
      </trkpt>
      <trkpt lat="42.5911228358745574951171875" lon="-0.39876074530184268951416015625">
        <ele>951.4000244140625</ele>
        <time>2020-08-19T06:20:07.000Z</time>
      </trkpt>
      <trkpt lat="42.5912128575146198272705078125" lon="-0.3988215140998363494873046875">
        <ele>952</ele>
        <time>2020-08-19T06:20:12.000Z</time>
      </trkpt>
      <trkpt lat="42.59125049225986003875732421875" lon="-0.39884774945676326751708984375">
        <ele>952.20001220703125</ele>
        <time>2020-08-19T06:20:14.000Z</time>
      </trkpt>
      <trkpt lat="42.5913436152040958404541015625" lon="-0.39891664870083332061767578125">
        <ele>953</ele>
        <time>2020-08-19T06:20:19.000Z</time>
      </trkpt>
      <trkpt lat="42.591400444507598876953125" lon="-0.3989599831402301788330078125">
        <ele>953.4000244140625</ele>
        <time>2020-08-19T06:20:22.000Z</time>
      </trkpt>
      <trkpt lat="42.5915169529616832733154296875" lon="-0.399043969810009002685546875">
        <ele>954.20001220703125</ele>
        <time>2020-08-19T06:20:28.000Z</time>
      </trkpt>
      <trkpt lat="42.59157839231193065643310546875" lon="-0.39908411912620067596435546875">
        <ele>954.4000244140625</ele>
        <time>2020-08-19T06:20:31.000Z</time>
      </trkpt>
      <trkpt lat="42.591717280447483062744140625" lon="-0.39916089735925197601318359375">
        <ele>955.20001220703125</ele>
        <time>2020-08-19T06:20:38.000Z</time>
      </trkpt>
      <trkpt lat="42.59185918606817722320556640625" lon="-0.39922795258462429046630859375">
        <ele>956.20001220703125</ele>
        <time>2020-08-19T06:20:45.000Z</time>
      </trkpt>
      <trkpt lat="42.59187980554997920989990234375" lon="-0.3992374241352081298828125">
        <ele>956.4000244140625</ele>
        <time>2020-08-19T06:20:46.000Z</time>
      </trkpt>
      <trkpt lat="42.5920440070331096649169921875" lon="-0.39931998588144779205322265625">
        <ele>957.4000244140625</ele>
        <time>2020-08-19T06:20:54.000Z</time>
      </trkpt>
      <trkpt lat="42.5920642912387847900390625" lon="-0.39933289401233196258544921875">
        <ele>957.4000244140625</ele>
        <time>2020-08-19T06:20:55.000Z</time>
      </trkpt>
      <trkpt lat="42.59222798980772495269775390625" lon="-0.39944085292518138885498046875">
        <ele>958</ele>
        <time>2020-08-19T06:21:03.000Z</time>
      </trkpt>
      <trkpt lat="42.59229102171957492828369140625" lon="-0.399478487670421600341796875">
        <ele>958.4000244140625</ele>
        <time>2020-08-19T06:21:06.000Z</time>
      </trkpt>
      <trkpt lat="42.59241406805813312530517578125" lon="-0.39961234666407108306884765625">
        <ele>959.20001220703125</ele>
        <time>2020-08-19T06:21:13.000Z</time>
      </trkpt>
      <trkpt lat="42.59252403862774372100830078125" lon="-0.39978400804102420806884765625">
        <ele>959.20001220703125</ele>
        <time>2020-08-19T06:21:20.000Z</time>
      </trkpt>
      <trkpt lat="42.59255203418433666229248046875" lon="-0.3998367302119731903076171875">
        <ele>959.4000244140625</ele>
        <time>2020-08-19T06:21:22.000Z</time>
      </trkpt>
      <trkpt lat="42.592668794095516204833984375" lon="-0.40008139796555042266845703125">
        <ele>960</ele>
        <time>2020-08-19T06:21:31.000Z</time>
      </trkpt>
      <trkpt lat="42.5927554629743099212646484375" lon="-0.40024417452514171600341796875">
        <ele>960.4000244140625</ele>
        <time>2020-08-19T06:21:37.000Z</time>
      </trkpt>
      <trkpt lat="42.59282494895160198211669921875" lon="-0.400338470935821533203125">
        <ele>961</ele>
        <time>2020-08-19T06:21:41.000Z</time>
      </trkpt>
      <trkpt lat="42.59295654483139514923095703125" lon="-0.4004120640456676483154296875">
        <ele>961.4000244140625</ele>
        <time>2020-08-19T06:21:47.000Z</time>
      </trkpt>
      <trkpt lat="42.5929971970617771148681640625" lon="-0.40043226443231105804443359375">
        <ele>961.79998779296875</ele>
        <time>2020-08-19T06:21:49.000Z</time>
      </trkpt>
      <trkpt lat="42.59310104884207248687744140625" lon="-0.40044936351478099822998046875">
        <ele>962.5999755859375</ele>
        <time>2020-08-19T06:21:54.000Z</time>
      </trkpt>
      <trkpt lat="42.5931183993816375732421875" lon="-0.400450788438320159912109375">
        <ele>962.5999755859375</ele>
        <time>2020-08-19T06:21:55.000Z</time>
      </trkpt>
      <trkpt lat="42.59322459809482097625732421875" lon="-0.40047735907137393951416015625">
        <ele>963.5999755859375</ele>
        <time>2020-08-19T06:22:01.000Z</time>
      </trkpt>
      <trkpt lat="42.59324111044406890869140625" lon="-0.40048641152679920196533203125">
        <ele>963.79998779296875</ele>
        <time>2020-08-19T06:22:02.000Z</time>
      </trkpt>
      <trkpt lat="42.59328930638730525970458984375" lon="-0.40052044205367565155029296875">
        <ele>964.20001220703125</ele>
        <time>2020-08-19T06:22:05.000Z</time>
      </trkpt>
      <trkpt lat="42.59332618676126003265380859375" lon="-0.40052396245300769805908203125">
        <ele>964.5999755859375</ele>
        <time>2020-08-19T06:22:07.000Z</time>
      </trkpt>
      <trkpt lat="42.59343464858829975128173828125" lon="-0.400552041828632354736328125">
        <ele>965</ele>
        <time>2020-08-19T06:22:13.000Z</time>
      </trkpt>
      <trkpt lat="42.5935131870210170745849609375" lon="-0.4005937837064266204833984375">
        <ele>965.79998779296875</ele>
        <time>2020-08-19T06:22:18.000Z</time>
      </trkpt>
      <trkpt lat="42.5935403443872928619384765625" lon="-0.4006206057965755462646484375">
        <ele>966.20001220703125</ele>
        <time>2020-08-19T06:22:20.000Z</time>
      </trkpt>
      <trkpt lat="42.5936023704707622528076171875" lon="-0.40064868517220020294189453125">
        <ele>966.79998779296875</ele>
        <time>2020-08-19T06:22:24.000Z</time>
      </trkpt>
      <trkpt lat="42.593653500080108642578125" lon="-0.40066259913146495819091796875">
        <ele>967.4000244140625</ele>
        <time>2020-08-19T06:22:27.000Z</time>
      </trkpt>
      <trkpt lat="42.5936845131218433380126953125" lon="-0.40067844092845916748046875">
        <ele>967.79998779296875</ele>
        <time>2020-08-19T06:22:29.000Z</time>
      </trkpt>
      <trkpt lat="42.5937406718730926513671875" lon="-0.40071859024465084075927734375">
        <ele>968.79998779296875</ele>
        <time>2020-08-19T06:22:33.000Z</time>
      </trkpt>
      <trkpt lat="42.5937555916607379913330078125" lon="-0.40072529576718807220458984375">
        <ele>969</ele>
        <time>2020-08-19T06:22:34.000Z</time>
      </trkpt>
      <trkpt lat="42.5938152708113193511962890625" lon="-0.40074658580124378204345703125">
        <ele>970</ele>
        <time>2020-08-19T06:22:38.000Z</time>
      </trkpt>
      <trkpt lat="42.59385374374687671661376953125" lon="-0.40078480727970600128173828125">
        <ele>970.4000244140625</ele>
        <time>2020-08-19T06:22:41.000Z</time>
      </trkpt>
      <trkpt lat="42.5939242355525493621826171875" lon="-0.40083040483295917510986328125">
        <ele>971</ele>
        <time>2020-08-19T06:22:46.000Z</time>
      </trkpt>
      <trkpt lat="42.5939393229782581329345703125" lon="-0.40083677507936954498291015625">
        <ele>971.4000244140625</ele>
        <time>2020-08-19T06:22:47.000Z</time>
      </trkpt>
      <trkpt lat="42.59396857582032680511474609375" lon="-0.40085504762828350067138671875">
        <ele>971.79998779296875</ele>
        <time>2020-08-19T06:22:49.000Z</time>
      </trkpt>
      <trkpt lat="42.593987099826335906982421875" lon="-0.40089167654514312744140625">
        <ele>972.4000244140625</ele>
        <time>2020-08-19T06:22:51.000Z</time>
      </trkpt>
      <trkpt lat="42.59399673901498317718505859375" lon="-0.40090978145599365234375">
        <ele>972.5999755859375</ele>
        <time>2020-08-19T06:22:52.000Z</time>
      </trkpt>
      <trkpt lat="42.59404082782566547393798828125" lon="-0.40094691328704357147216796875">
        <ele>973</ele>
        <time>2020-08-19T06:22:55.000Z</time>
      </trkpt>
      <trkpt lat="42.59408877231180667877197265625" lon="-0.4009786807000637054443359375">
        <ele>973.4000244140625</ele>
        <time>2020-08-19T06:22:58.000Z</time>
      </trkpt>
      <trkpt lat="42.59410486556589603424072265625" lon="-0.4009897448122501373291015625">
        <ele>973.5999755859375</ele>
        <time>2020-08-19T06:22:59.000Z</time>
      </trkpt>
      <trkpt lat="42.594189606606960296630859375" lon="-0.40107415057718753814697265625">
        <ele>974.4000244140625</ele>
        <time>2020-08-19T06:23:05.000Z</time>
      </trkpt>
      <trkpt lat="42.594222128391265869140625" lon="-0.40113483555614948272705078125">
        <ele>975.20001220703125</ele>
        <time>2020-08-19T06:23:08.000Z</time>
      </trkpt>
      <trkpt lat="42.594266049563884735107421875" lon="-0.4011738114058971405029296875">
        <ele>975.5999755859375</ele>
        <time>2020-08-19T06:23:11.000Z</time>
      </trkpt>
      <trkpt lat="42.59433352388441562652587890625" lon="-0.40119904093444347381591796875">
        <ele>976</ele>
        <time>2020-08-19T06:23:15.000Z</time>
      </trkpt>
      <trkpt lat="42.59439387358725070953369140625" lon="-0.40127120912075042724609375">
        <ele>976.4000244140625</ele>
        <time>2020-08-19T06:23:20.000Z</time>
      </trkpt>
      <trkpt lat="42.59440728463232517242431640625" lon="-0.4012794233858585357666015625">
        <ele>976.5999755859375</ele>
        <time>2020-08-19T06:23:21.000Z</time>
      </trkpt>
      <trkpt lat="42.5944204442203044891357421875" lon="-0.4012821055948734283447265625">
        <ele>976.79998779296875</ele>
        <time>2020-08-19T06:23:22.000Z</time>
      </trkpt>
      <trkpt lat="42.59445019997656345367431640625" lon="-0.40128202177584171295166015625">
        <ele>977.20001220703125</ele>
        <time>2020-08-19T06:23:24.000Z</time>
      </trkpt>
      <trkpt lat="42.59451373480260372161865234375" lon="-0.40128671564161777496337890625">
        <ele>977.20001220703125</ele>
        <time>2020-08-19T06:23:28.000Z</time>
      </trkpt>
      <trkpt lat="42.59464700706303119659423828125" lon="-0.40131035260856151580810546875">
        <ele>977.5999755859375</ele>
        <time>2020-08-19T06:23:35.000Z</time>
      </trkpt>
      <trkpt lat="42.59476385079324245452880859375" lon="-0.4013193212449550628662109375">
        <ele>977.4000244140625</ele>
        <time>2020-08-19T06:23:41.000Z</time>
      </trkpt>
      <trkpt lat="42.59491992183029651641845703125" lon="-0.401352345943450927734375">
        <ele>977.4000244140625</ele>
        <time>2020-08-19T06:23:48.000Z</time>
      </trkpt>
      <trkpt lat="42.59507481940090656280517578125" lon="-0.40134035982191562652587890625">
        <ele>977.5999755859375</ele>
        <time>2020-08-19T06:23:55.000Z</time>
      </trkpt>
      <trkpt lat="42.5952529348433017730712890625" lon="-0.40129601955413818359375">
        <ele>976.79998779296875</ele>
        <time>2020-08-19T06:24:01.000Z</time>
      </trkpt>
      <trkpt lat="42.59551118128001689910888671875" lon="-0.40129710920155048370361328125">
        <ele>975.79998779296875</ele>
        <time>2020-08-19T06:24:07.000Z</time>
      </trkpt>
      <trkpt lat="42.5955607183277606964111328125" lon="-0.40129895322024822235107421875">
        <ele>975.79998779296875</ele>
        <time>2020-08-19T06:24:08.000Z</time>
      </trkpt>
      <trkpt lat="42.5957605428993701934814453125" lon="-0.40129727683961391448974609375">
        <ele>974.4000244140625</ele>
        <time>2020-08-19T06:24:12.000Z</time>
      </trkpt>
      <trkpt lat="42.595858611166477203369140625" lon="-0.4012998752295970916748046875">
        <ele>974</ele>
        <time>2020-08-19T06:24:14.000Z</time>
      </trkpt>
      <trkpt lat="42.596071176230907440185546875" lon="-0.40133080445230007171630859375">
        <ele>973.20001220703125</ele>
        <time>2020-08-19T06:24:18.000Z</time>
      </trkpt>
      <trkpt lat="42.59618458338081836700439453125" lon="-0.40137120522558689117431640625">
        <ele>972.5999755859375</ele>
        <time>2020-08-19T06:24:20.000Z</time>
      </trkpt>
      <trkpt lat="42.59624677710235118865966796875" lon="-0.40139417164027690887451171875">
        <ele>972</ele>
        <time>2020-08-19T06:24:21.000Z</time>
      </trkpt>
      <trkpt lat="42.59637552313506603240966796875" lon="-0.40144211612641811370849609375">
        <ele>970.5999755859375</ele>
        <time>2020-08-19T06:24:23.000Z</time>
      </trkpt>
      <trkpt lat="42.59654332883656024932861328125" lon="-0.401507914066314697265625">
        <ele>969.79998779296875</ele>
        <time>2020-08-19T06:24:26.000Z</time>
      </trkpt>
      <trkpt lat="42.59664215147495269775390625" lon="-0.40159014053642749786376953125">
        <ele>969.20001220703125</ele>
        <time>2020-08-19T06:24:28.000Z</time>
      </trkpt>
      <trkpt lat="42.59678363800048828125" lon="-0.4017494805157184600830078125">
        <ele>968.20001220703125</ele>
        <time>2020-08-19T06:24:31.000Z</time>
      </trkpt>
      <trkpt lat="42.596923448145389556884765625" lon="-0.40190429426729679107666015625">
        <ele>966.79998779296875</ele>
        <time>2020-08-19T06:24:34.000Z</time>
      </trkpt>
      <trkpt lat="42.597016654908657073974609375" lon="-0.40199942886829376220703125">
        <ele>965.5999755859375</ele>
        <time>2020-08-19T06:24:36.000Z</time>
      </trkpt>
      <trkpt lat="42.59711396880447864532470703125" lon="-0.40208433754742145538330078125">
        <ele>964</ele>
        <time>2020-08-19T06:24:38.000Z</time>
      </trkpt>
      <trkpt lat="42.59716275148093700408935546875" lon="-0.4021223075687885284423828125">
        <ele>963.5999755859375</ele>
        <time>2020-08-19T06:24:39.000Z</time>
      </trkpt>
      <trkpt lat="42.59721153415739536285400390625" lon="-0.40215432643890380859375">
        <ele>963.20001220703125</ele>
        <time>2020-08-19T06:24:40.000Z</time>
      </trkpt>
      <trkpt lat="42.59726115502417087554931640625" lon="-0.40217855013906955718994140625">
        <ele>962.79998779296875</ele>
        <time>2020-08-19T06:24:41.000Z</time>
      </trkpt>
      <trkpt lat="42.59741253219544887542724609375" lon="-0.40221937000751495361328125">
        <ele>961.79998779296875</ele>
        <time>2020-08-19T06:24:44.000Z</time>
      </trkpt>
      <trkpt lat="42.59746181778609752655029296875" lon="-0.40222615934908390045166015625">
        <ele>961.5999755859375</ele>
        <time>2020-08-19T06:24:45.000Z</time>
      </trkpt>
      <trkpt lat="42.59761403314769268035888671875" lon="-0.40225532837212085723876953125">
        <ele>961.20001220703125</ele>
        <time>2020-08-19T06:24:49.000Z</time>
      </trkpt>
      <trkpt lat="42.59773808531463146209716796875" lon="-0.4023362137377262115478515625">
        <ele>961.4000244140625</ele>
        <time>2020-08-19T06:24:55.000Z</time>
      </trkpt>
      <trkpt lat="42.59775250218808650970458984375" lon="-0.40241257287561893463134765625">
        <ele>961.5999755859375</ele>
        <time>2020-08-19T06:24:58.000Z</time>
      </trkpt>
      <trkpt lat="42.59774562902748584747314453125" lon="-0.40246252901852130889892578125">
        <ele>961.5999755859375</ele>
        <time>2020-08-19T06:25:00.000Z</time>
      </trkpt>
      <trkpt lat="42.5977232493460178375244140625" lon="-0.40261608548462390899658203125">
        <ele>962.4000244140625</ele>
        <time>2020-08-19T06:25:07.000Z</time>
      </trkpt>
      <trkpt lat="42.5977185554802417755126953125" lon="-0.4026382975280284881591796875">
        <ele>962.5999755859375</ele>
        <time>2020-08-19T06:25:08.000Z</time>
      </trkpt>
      <trkpt lat="42.59770162403583526611328125" lon="-0.40277098305523395538330078125">
        <ele>963.20001220703125</ele>
        <time>2020-08-19T06:25:14.000Z</time>
      </trkpt>
      <trkpt lat="42.59768896736204624176025390625" lon="-0.4028825461864471435546875">
        <ele>963.79998779296875</ele>
        <time>2020-08-19T06:25:19.000Z</time>
      </trkpt>
      <trkpt lat="42.5976888835430145263671875" lon="-0.40290710516273975372314453125">
        <ele>963.79998779296875</ele>
        <time>2020-08-19T06:25:20.000Z</time>
      </trkpt>
      <trkpt lat="42.597698271274566650390625" lon="-0.40309645235538482666015625">
        <ele>964.79998779296875</ele>
        <time>2020-08-19T06:25:28.000Z</time>
      </trkpt>
      <trkpt lat="42.5977654941380023956298828125" lon="-0.40327155031263828277587890625">
        <ele>964.5999755859375</ele>
        <time>2020-08-19T06:25:35.000Z</time>
      </trkpt>
      <trkpt lat="42.597824670374393463134765625" lon="-0.403437428176403045654296875">
        <ele>964.5999755859375</ele>
        <time>2020-08-19T06:25:40.000Z</time>
      </trkpt>
      <trkpt lat="42.59786431677639484405517578125" lon="-0.403562486171722412109375">
        <ele>964.4000244140625</ele>
        <time>2020-08-19T06:25:45.000Z</time>
      </trkpt>
      <trkpt lat="42.59786046110093593597412109375" lon="-0.4037209041416645050048828125">
        <ele>964.79998779296875</ele>
        <time>2020-08-19T06:25:51.000Z</time>
      </trkpt>
      <trkpt lat="42.59782576002180576324462890625" lon="-0.4038991034030914306640625">
        <ele>965.4000244140625</ele>
        <time>2020-08-19T06:25:58.000Z</time>
      </trkpt>
      <trkpt lat="42.597792148590087890625" lon="-0.40405676700174808502197265625">
        <ele>965.5999755859375</ele>
        <time>2020-08-19T06:26:05.000Z</time>
      </trkpt>
      <trkpt lat="42.5977778993546962738037109375" lon="-0.40415718220174312591552734375">
        <ele>965.79998779296875</ele>
        <time>2020-08-19T06:26:09.000Z</time>
      </trkpt>
      <trkpt lat="42.59777060709893703460693359375" lon="-0.40422976948320865631103515625">
        <ele>966.20001220703125</ele>
        <time>2020-08-19T06:26:12.000Z</time>
      </trkpt>
      <trkpt lat="42.59777312166988849639892578125" lon="-0.4043495468795299530029296875">
        <ele>967</ele>
        <time>2020-08-19T06:26:17.000Z</time>
      </trkpt>
      <trkpt lat="42.59777010418474674224853515625" lon="-0.4043971560895442962646484375">
        <ele>967.20001220703125</ele>
        <time>2020-08-19T06:26:19.000Z</time>
      </trkpt>
      <trkpt lat="42.59776591323316097259521484375" lon="-0.40455683134496212005615234375">
        <ele>968</ele>
        <time>2020-08-19T06:26:26.000Z</time>
      </trkpt>
      <trkpt lat="42.59776406921446323394775390625" lon="-0.404717512428760528564453125">
        <ele>969</ele>
        <time>2020-08-19T06:26:33.000Z</time>
      </trkpt>
      <trkpt lat="42.59774998761713504791259765625" lon="-0.40486210025846958160400390625">
        <ele>969.5999755859375</ele>
        <time>2020-08-19T06:26:40.000Z</time>
      </trkpt>
      <trkpt lat="42.5977561064064502716064453125" lon="-0.40493066422641277313232421875">
        <ele>970.20001220703125</ele>
        <time>2020-08-19T06:26:43.000Z</time>
      </trkpt>
      <trkpt lat="42.5977651588618755340576171875" lon="-0.4050033353269100189208984375">
        <ele>971</ele>
        <time>2020-08-19T06:26:46.000Z</time>
      </trkpt>
      <trkpt lat="42.5977705232799053192138671875" lon="-0.40504164062440395355224609375">
        <ele>971.20001220703125</ele>
        <time>2020-08-19T06:26:48.000Z</time>
      </trkpt>
      <trkpt lat="42.5977799110114574432373046875" lon="-0.405078940093517303466796875">
        <ele>971.20001220703125</ele>
        <time>2020-08-19T06:26:50.000Z</time>
      </trkpt>
      <trkpt lat="42.597786448895931243896484375" lon="-0.4050980508327484130859375">
        <ele>971.20001220703125</ele>
        <time>2020-08-19T06:26:51.000Z</time>
      </trkpt>
      <trkpt lat="42.597795836627483367919921875" lon="-0.40517508052289485931396484375">
        <ele>972.4000244140625</ele>
        <time>2020-08-19T06:26:54.000Z</time>
      </trkpt>
      <trkpt lat="42.5978020392358303070068359375" lon="-0.4051988013088703155517578125">
        <ele>972.4000244140625</ele>
        <time>2020-08-19T06:26:55.000Z</time>
      </trkpt>
      <trkpt lat="42.59781670756638050079345703125" lon="-0.40526895783841609954833984375">
        <ele>972.4000244140625</ele>
        <time>2020-08-19T06:26:58.000Z</time>
      </trkpt>
      <trkpt lat="42.59784285910427570343017578125" lon="-0.405336432158946990966796875">
        <ele>972.5999755859375</ele>
        <time>2020-08-19T06:27:01.000Z</time>
      </trkpt>
      <trkpt lat="42.5979418493807315826416015625" lon="-0.40551136247813701629638671875">
        <ele>972.5999755859375</ele>
        <time>2020-08-19T06:27:09.000Z</time>
      </trkpt>
      <trkpt lat="42.59798300452530384063720703125" lon="-0.4055773280560970306396484375">
        <ele>973.20001220703125</ele>
        <time>2020-08-19T06:27:12.000Z</time>
      </trkpt>
      <trkpt lat="42.598001025617122650146484375" lon="-0.40563491173088550567626953125">
        <ele>973.4000244140625</ele>
        <time>2020-08-19T06:27:14.000Z</time>
      </trkpt>
      <trkpt lat="42.5980122573673725128173828125" lon="-0.40566039271652698516845703125">
        <ele>973.4000244140625</ele>
        <time>2020-08-19T06:27:15.000Z</time>
      </trkpt>
      <trkpt lat="42.59802105836570262908935546875" lon="-0.40568486787378787994384765625">
        <ele>973.4000244140625</ele>
        <time>2020-08-19T06:27:16.000Z</time>
      </trkpt>
      <trkpt lat="42.598066739737987518310546875" lon="-0.40579282678663730621337890625">
        <ele>974</ele>
        <time>2020-08-19T06:27:21.000Z</time>
      </trkpt>
      <trkpt lat="42.5980843417346477508544921875" lon="-0.405831299722194671630859375">
        <ele>974.20001220703125</ele>
        <time>2020-08-19T06:27:23.000Z</time>
      </trkpt>
      <trkpt lat="42.5981126725673675537109375" lon="-0.40589223615825176239013671875">
        <ele>974.4000244140625</ele>
        <time>2020-08-19T06:27:26.000Z</time>
      </trkpt>
      <trkpt lat="42.59815156459808349609375" lon="-0.40602098219096660614013671875">
        <ele>975.4000244140625</ele>
        <time>2020-08-19T06:27:32.000Z</time>
      </trkpt>
      <trkpt lat="42.59819003753364086151123046875" lon="-0.4061198048293590545654296875">
        <ele>976.20001220703125</ele>
        <time>2020-08-19T06:27:37.000Z</time>
      </trkpt>
      <trkpt lat="42.59820546023547649383544921875" lon="-0.40615760721266269683837890625">
        <ele>976.4000244140625</ele>
        <time>2020-08-19T06:27:39.000Z</time>
      </trkpt>
      <trkpt lat="42.5982218049466609954833984375" lon="-0.40619750507175922393798828125">
        <ele>976.79998779296875</ele>
        <time>2020-08-19T06:27:41.000Z</time>
      </trkpt>
      <trkpt lat="42.59823848493397235870361328125" lon="-0.4062366485595703125">
        <ele>977</ele>
        <time>2020-08-19T06:27:43.000Z</time>
      </trkpt>
      <trkpt lat="42.59825524874031543731689453125" lon="-0.40631317533552646636962890625">
        <ele>977.5999755859375</ele>
        <time>2020-08-19T06:27:46.000Z</time>
      </trkpt>
      <trkpt lat="42.59829103946685791015625" lon="-0.406409986317157745361328125">
        <ele>977.5999755859375</ele>
        <time>2020-08-19T06:27:49.000Z</time>
      </trkpt>
      <trkpt lat="42.59836873970925807952880859375" lon="-0.4065697453916072845458984375">
        <ele>977.20001220703125</ele>
        <time>2020-08-19T06:27:56.000Z</time>
      </trkpt>
      <trkpt lat="42.598475106060504913330078125" lon="-0.4066777043044567108154296875">
        <ele>978.20001220703125</ele>
        <time>2020-08-19T06:28:03.000Z</time>
      </trkpt>
      <trkpt lat="42.59850502945482730865478515625" lon="-0.4067112319171428680419921875">
        <ele>978.5999755859375</ele>
        <time>2020-08-19T06:28:05.000Z</time>
      </trkpt>
      <trkpt lat="42.598552890121936798095703125" lon="-0.4067802987992763519287109375">
        <ele>979.79998779296875</ele>
        <time>2020-08-19T06:28:09.000Z</time>
      </trkpt>
      <trkpt lat="42.5985644571483135223388671875" lon="-0.40679655969142913818359375">
        <ele>980.20001220703125</ele>
        <time>2020-08-19T06:28:10.000Z</time>
      </trkpt>
      <trkpt lat="42.598655484616756439208984375" lon="-0.40692572481930255889892578125">
        <ele>980.4000244140625</ele>
        <time>2020-08-19T06:28:18.000Z</time>
      </trkpt>
      <trkpt lat="42.59866856038570404052734375" lon="-0.40694198571145534515380859375">
        <ele>980.5999755859375</ele>
        <time>2020-08-19T06:28:19.000Z</time>
      </trkpt>
      <trkpt lat="42.598693370819091796875" lon="-0.40697249583899974822998046875">
        <ele>981</ele>
        <time>2020-08-19T06:28:21.000Z</time>
      </trkpt>
      <trkpt lat="42.59872614406049251556396484375" lon="-0.40702396072447299957275390625">
        <ele>981.79998779296875</ele>
        <time>2020-08-19T06:28:24.000Z</time>
      </trkpt>
      <trkpt lat="42.59877257980406284332275390625" lon="-0.4070951230823993682861328125">
        <ele>982.20001220703125</ele>
        <time>2020-08-19T06:28:28.000Z</time>
      </trkpt>
      <trkpt lat="42.5988108851015567779541015625" lon="-0.40714658796787261962890625">
        <ele>982.4000244140625</ele>
        <time>2020-08-19T06:28:31.000Z</time>
      </trkpt>
      <trkpt lat="42.59888825006783008575439453125" lon="-0.4072600789368152618408203125">
        <ele>983</ele>
        <time>2020-08-19T06:28:37.000Z</time>
      </trkpt>
      <trkpt lat="42.59892898611724376678466796875" lon="-0.40731397457420825958251953125">
        <ele>983.20001220703125</ele>
        <time>2020-08-19T06:28:40.000Z</time>
      </trkpt>
      <trkpt lat="42.59900023229420185089111328125" lon="-0.4073995538055896759033203125">
        <ele>983.4000244140625</ele>
        <time>2020-08-19T06:28:45.000Z</time>
      </trkpt>
      <trkpt lat="42.5990653596818447113037109375" lon="-0.40750776417553424835205078125">
        <ele>983.4000244140625</ele>
        <time>2020-08-19T06:28:50.000Z</time>
      </trkpt>
      <trkpt lat="42.59915538132190704345703125" lon="-0.40766651742160320281982421875">
        <ele>983.5999755859375</ele>
        <time>2020-08-19T06:28:57.000Z</time>
      </trkpt>
      <trkpt lat="42.59922889061272144317626953125" lon="-0.4077824391424655914306640625">
        <ele>983.4000244140625</ele>
        <time>2020-08-19T06:29:02.000Z</time>
      </trkpt>
      <trkpt lat="42.5993228517472743988037109375" lon="-0.4079841077327728271484375">
        <ele>983.79998779296875</ele>
        <time>2020-08-19T06:29:10.000Z</time>
      </trkpt>
      <trkpt lat="42.59936467744410037994384765625" lon="-0.4081395082175731658935546875">
        <ele>984</ele>
        <time>2020-08-19T06:29:16.000Z</time>
      </trkpt>
      <trkpt lat="42.59935730136930942535400390625" lon="-0.40835886262357234954833984375">
        <ele>984.4000244140625</ele>
        <time>2020-08-19T06:29:24.000Z</time>
      </trkpt>
      <trkpt lat="42.59934489615261554718017578125" lon="-0.4085012711584568023681640625">
        <ele>984.79998779296875</ele>
        <time>2020-08-19T06:29:30.000Z</time>
      </trkpt>
      <trkpt lat="42.59934506379067897796630859375" lon="-0.40852633304893970489501953125">
        <ele>985</ele>
        <time>2020-08-19T06:29:31.000Z</time>
      </trkpt>
      <trkpt lat="42.5993692874908447265625" lon="-0.4086224734783172607421875">
        <ele>986</ele>
        <time>2020-08-19T06:29:35.000Z</time>
      </trkpt>
      <trkpt lat="42.5993738137185573577880859375" lon="-0.40864418260753154754638671875">
        <ele>986.4000244140625</ele>
        <time>2020-08-19T06:29:36.000Z</time>
      </trkpt>
      <trkpt lat="42.599387727677822113037109375" lon="-0.40872699581086635589599609375">
        <ele>987.5999755859375</ele>
        <time>2020-08-19T06:29:40.000Z</time>
      </trkpt>
      <trkpt lat="42.59939719922840595245361328125" lon="-0.40878986008465290069580078125">
        <ele>988</ele>
        <time>2020-08-19T06:29:43.000Z</time>
      </trkpt>
      <trkpt lat="42.59940424002707004547119140625" lon="-0.408809222280979156494140625">
        <ele>988.20001220703125</ele>
        <time>2020-08-19T06:29:44.000Z</time>
      </trkpt>
      <trkpt lat="42.599413879215717315673828125" lon="-0.40882690809667110443115234375">
        <ele>988.5999755859375</ele>
        <time>2020-08-19T06:29:45.000Z</time>
      </trkpt>
      <trkpt lat="42.59944162331521511077880859375" lon="-0.4088784568011760711669921875">
        <ele>988.79998779296875</ele>
        <time>2020-08-19T06:29:48.000Z</time>
      </trkpt>
      <trkpt lat="42.599473558366298675537109375" lon="-0.4089709930121898651123046875">
        <ele>989.4000244140625</ele>
        <time>2020-08-19T06:29:53.000Z</time>
      </trkpt>
      <trkpt lat="42.599479258060455322265625" lon="-0.4089887626469135284423828125">
        <ele>989.79998779296875</ele>
        <time>2020-08-19T06:29:54.000Z</time>
      </trkpt>
      <trkpt lat="42.59948537684977054595947265625" lon="-0.40900669991970062255859375">
        <ele>990</ele>
        <time>2020-08-19T06:29:55.000Z</time>
      </trkpt>
      <trkpt lat="42.5995002128183841705322265625" lon="-0.40904014371335506439208984375">
        <ele>990.79998779296875</ele>
        <time>2020-08-19T06:29:57.000Z</time>
      </trkpt>
      <trkpt lat="42.599505074322223663330078125" lon="-0.4090782813727855682373046875">
        <ele>991.20001220703125</ele>
        <time>2020-08-19T06:29:59.000Z</time>
      </trkpt>
      <trkpt lat="42.5995208323001861572265625" lon="-0.4091349430382251739501953125">
        <ele>991.79998779296875</ele>
        <time>2020-08-19T06:30:02.000Z</time>
      </trkpt>
      <trkpt lat="42.5995243526995182037353515625" lon="-0.40915313176810741424560546875">
        <ele>992</ele>
        <time>2020-08-19T06:30:03.000Z</time>
      </trkpt>
      <trkpt lat="42.5995253585278987884521484375" lon="-0.40917509235441684722900390625">
        <ele>992.20001220703125</ele>
        <time>2020-08-19T06:30:04.000Z</time>
      </trkpt>
      <trkpt lat="42.59952695108950138092041015625" lon="-0.40924499742686748504638671875">
        <ele>992.5999755859375</ele>
        <time>2020-08-19T06:30:07.000Z</time>
      </trkpt>
      <trkpt lat="42.59952929802238941192626953125" lon="-0.40929109789431095123291015625">
        <ele>992.79998779296875</ele>
        <time>2020-08-19T06:30:09.000Z</time>
      </trkpt>
      <trkpt lat="42.59953248314559459686279296875" lon="-0.409312136471271514892578125">
        <ele>992.79998779296875</ele>
        <time>2020-08-19T06:30:10.000Z</time>
      </trkpt>
      <trkpt lat="42.59953214786946773529052734375" lon="-0.4093354381620883941650390625">
        <ele>993.20001220703125</ele>
        <time>2020-08-19T06:30:11.000Z</time>
      </trkpt>
      <trkpt lat="42.599549330770969390869140625" lon="-0.4094430617988109588623046875">
        <ele>993.79998779296875</ele>
        <time>2020-08-19T06:30:16.000Z</time>
      </trkpt>
      <trkpt lat="42.59955234825611114501953125" lon="-0.40946695022284984588623046875">
        <ele>994</ele>
        <time>2020-08-19T06:30:17.000Z</time>
      </trkpt>
      <trkpt lat="42.5995558686554431915283203125" lon="-0.40949125774204730987548828125">
        <ele>994.20001220703125</ele>
        <time>2020-08-19T06:30:18.000Z</time>
      </trkpt>
      <trkpt lat="42.5995771586894989013671875" lon="-0.40955294854938983917236328125">
        <ele>994.5999755859375</ele>
        <time>2020-08-19T06:30:21.000Z</time>
      </trkpt>
      <trkpt lat="42.59959685616195201873779296875" lon="-0.4096117056906223297119140625">
        <ele>995.20001220703125</ele>
        <time>2020-08-19T06:30:24.000Z</time>
      </trkpt>
      <trkpt lat="42.599641196429729461669921875" lon="-0.409730561077594757080078125">
        <ele>996.20001220703125</ele>
        <time>2020-08-19T06:30:30.000Z</time>
      </trkpt>
      <trkpt lat="42.59964949451386928558349609375" lon="-0.4097481630742549896240234375">
        <ele>996.4000244140625</ele>
        <time>2020-08-19T06:30:31.000Z</time>
      </trkpt>
      <trkpt lat="42.5996738858520984649658203125" lon="-0.40982519276440143585205078125">
        <ele>997.20001220703125</ele>
        <time>2020-08-19T06:30:35.000Z</time>
      </trkpt>
      <trkpt lat="42.59968620724976062774658203125" lon="-0.4099045693874359130859375">
        <ele>998</ele>
        <time>2020-08-19T06:30:39.000Z</time>
      </trkpt>
      <trkpt lat="42.599690146744251251220703125" lon="-0.40994907729327678680419921875">
        <ele>998.20001220703125</ele>
        <time>2020-08-19T06:30:41.000Z</time>
      </trkpt>
      <trkpt lat="42.59969861246645450592041015625" lon="-0.4100368358194828033447265625">
        <ele>998.5999755859375</ele>
        <time>2020-08-19T06:30:45.000Z</time>
      </trkpt>
      <trkpt lat="42.59972124360501766204833984375" lon="-0.41017186827957630157470703125">
        <ele>999</ele>
        <time>2020-08-19T06:30:51.000Z</time>
      </trkpt>
      <trkpt lat="42.59972291998565196990966796875" lon="-0.41019332595169544219970703125">
        <ele>999.20001220703125</ele>
        <time>2020-08-19T06:30:52.000Z</time>
      </trkpt>
      <trkpt lat="42.599738426506519317626953125" lon="-0.41037403978407382965087890625">
        <ele>1000.4000244140625</ele>
        <time>2020-08-19T06:31:00.000Z</time>
      </trkpt>
      <trkpt lat="42.59978695772588253021240234375" lon="-0.4105276800692081451416015625">
        <ele>1000.4000244140625</ele>
        <time>2020-08-19T06:31:07.000Z</time>
      </trkpt>
      <trkpt lat="42.59981922805309295654296875" lon="-0.4106135107576847076416015625">
        <ele>1001.4000244140625</ele>
        <time>2020-08-19T06:31:11.000Z</time>
      </trkpt>
      <trkpt lat="42.59984663687646389007568359375" lon="-0.41070143692195415496826171875">
        <ele>1001.79998779296875</ele>
        <time>2020-08-19T06:31:15.000Z</time>
      </trkpt>
      <trkpt lat="42.59986557997763156890869140625" lon="-0.41086438111960887908935546875">
        <ele>1002.20001220703125</ele>
        <time>2020-08-19T06:31:22.000Z</time>
      </trkpt>
      <trkpt lat="42.59987027384340763092041015625" lon="-0.41105850599706172943115234375">
        <ele>1002.4000244140625</ele>
        <time>2020-08-19T06:31:30.000Z</time>
      </trkpt>
      <trkpt lat="42.5998695194721221923828125" lon="-0.4110842384397983551025390625">
        <ele>1002.79998779296875</ele>
        <time>2020-08-19T06:31:31.000Z</time>
      </trkpt>
      <trkpt lat="42.59987329132854938507080078125" lon="-0.41121524758636951446533203125">
        <ele>1003.5999755859375</ele>
        <time>2020-08-19T06:31:37.000Z</time>
      </trkpt>
      <trkpt lat="42.59987412951886653900146484375" lon="-0.41125514544546604156494140625">
        <ele>1003.79998779296875</ele>
        <time>2020-08-19T06:31:39.000Z</time>
      </trkpt>
      <trkpt lat="42.59987823665142059326171875" lon="-0.4113185964524745941162109375">
        <ele>1004.4000244140625</ele>
        <time>2020-08-19T06:31:42.000Z</time>
      </trkpt>
      <trkpt lat="42.59988737292587757110595703125" lon="-0.41137835942208766937255859375">
        <ele>1005</ele>
        <time>2020-08-19T06:31:45.000Z</time>
      </trkpt>
      <trkpt lat="42.5998931564390659332275390625" lon="-0.411552451550960540771484375">
        <ele>1005.5999755859375</ele>
        <time>2020-08-19T06:31:53.000Z</time>
      </trkpt>
      <trkpt lat="42.59988904930651187896728515625" lon="-0.411649011075496673583984375">
        <ele>1006.5999755859375</ele>
        <time>2020-08-19T06:31:57.000Z</time>
      </trkpt>
      <trkpt lat="42.599883936345577239990234375" lon="-0.411724783480167388916015625">
        <ele>1007</ele>
        <time>2020-08-19T06:32:00.000Z</time>
      </trkpt>
      <trkpt lat="42.59989206679165363311767578125" lon="-0.411845147609710693359375">
        <ele>1007.5999755859375</ele>
        <time>2020-08-19T06:32:06.000Z</time>
      </trkpt>
      <trkpt lat="42.599893994629383087158203125" lon="-0.4118661023676395416259765625">
        <ele>1007.79998779296875</ele>
        <time>2020-08-19T06:32:07.000Z</time>
      </trkpt>
      <trkpt lat="42.5999048911035060882568359375" lon="-0.41198805905878543853759765625">
        <ele>1008.4000244140625</ele>
        <time>2020-08-19T06:32:13.000Z</time>
      </trkpt>
      <trkpt lat="42.59990614838898181915283203125" lon="-0.41211940348148345947265625">
        <ele>1008.5999755859375</ele>
        <time>2020-08-19T06:32:19.000Z</time>
      </trkpt>
      <trkpt lat="42.59990648366510868072509765625" lon="-0.41214195080101490020751953125">
        <ele>1008.79998779296875</ele>
        <time>2020-08-19T06:32:20.000Z</time>
      </trkpt>
      <trkpt lat="42.5999240018427371978759765625" lon="-0.41223163716495037078857421875">
        <ele>1009.4000244140625</ele>
        <time>2020-08-19T06:32:25.000Z</time>
      </trkpt>
      <trkpt lat="42.5999390892684459686279296875" lon="-0.4123400151729583740234375">
        <ele>1010</ele>
        <time>2020-08-19T06:32:30.000Z</time>
      </trkpt>
      <trkpt lat="42.599950991570949554443359375" lon="-0.41238083504140377044677734375">
        <ele>1010.4000244140625</ele>
        <time>2020-08-19T06:32:32.000Z</time>
      </trkpt>
      <trkpt lat="42.59996700100600719451904296875" lon="-0.4124394245445728302001953125">
        <ele>1011.20001220703125</ele>
        <time>2020-08-19T06:32:35.000Z</time>
      </trkpt>
      <trkpt lat="42.60000471957027912139892578125" lon="-0.41255635209381580352783203125">
        <ele>1011.79998779296875</ele>
        <time>2020-08-19T06:32:41.000Z</time>
      </trkpt>
      <trkpt lat="42.600027434527873992919921875" lon="-0.4126114211976528167724609375">
        <ele>1012.20001220703125</ele>
        <time>2020-08-19T06:32:44.000Z</time>
      </trkpt>
      <trkpt lat="42.60006775148212909698486328125" lon="-0.41267772205173969268798828125">
        <ele>1012.79998779296875</ele>
        <time>2020-08-19T06:32:48.000Z</time>
      </trkpt>
      <trkpt lat="42.60007848031818866729736328125" lon="-0.41269331239163875579833984375">
        <ele>1013.20001220703125</ele>
        <time>2020-08-19T06:32:49.000Z</time>
      </trkpt>
      <trkpt lat="42.60009071789681911468505859375" lon="-0.41270689107477664947509765625">
        <ele>1013.4000244140625</ele>
        <time>2020-08-19T06:32:50.000Z</time>
      </trkpt>
      <trkpt lat="42.60012458078563213348388671875" lon="-0.4127490520477294921875">
        <ele>1013.79998779296875</ele>
        <time>2020-08-19T06:32:53.000Z</time>
      </trkpt>
      <trkpt lat="42.60014821775257587432861328125" lon="-0.412774197757244110107421875">
        <ele>1014.4000244140625</ele>
        <time>2020-08-19T06:32:55.000Z</time>
      </trkpt>
      <trkpt lat="42.60019465349614620208740234375" lon="-0.41285525076091289520263671875">
        <ele>1015.20001220703125</ele>
        <time>2020-08-19T06:33:00.000Z</time>
      </trkpt>
      <trkpt lat="42.60022046975791454315185546875" lon="-0.41292029432952404022216796875">
        <ele>1015.4000244140625</ele>
        <time>2020-08-19T06:33:04.000Z</time>
      </trkpt>
      <trkpt lat="42.6002203859388828277587890625" lon="-0.41292364709079265594482421875">
        <ele>1015.79998779296875</ele>
        <time>2020-08-19T06:33:06.000Z</time>
      </trkpt>
      <trkpt lat="42.600223235785961151123046875" lon="-0.41291979141533374786376953125">
        <ele>1015.79998779296875</ele>
        <time>2020-08-19T06:33:19.000Z</time>
      </trkpt>
      <trkpt lat="42.60022181086242198944091796875" lon="-0.4129222221672534942626953125">
        <ele>1016</ele>
        <time>2020-08-19T06:33:36.000Z</time>
      </trkpt>
      <trkpt lat="42.60022164322435855865478515625" lon="-0.41292297653853893280029296875">
        <ele>1015.79998779296875</ele>
        <time>2020-08-19T06:34:02.000Z</time>
      </trkpt>
      <trkpt lat="42.600221894681453704833984375" lon="-0.41292213834822177886962890625">
        <ele>1016</ele>
        <time>2020-08-19T06:34:09.000Z</time>
      </trkpt>
      <trkpt lat="42.6002223975956439971923828125" lon="-0.41292213834822177886962890625">
        <ele>1015.79998779296875</ele>
        <time>2020-08-19T06:34:36.000Z</time>
      </trkpt>
      <trkpt lat="42.60022968985140323638916015625" lon="-0.41293018497526645660400390625">
        <ele>1016</ele>
        <time>2020-08-19T06:35:08.000Z</time>
      </trkpt>
      <trkpt lat="42.6002700068056583404541015625" lon="-0.41300947777926921844482421875">
        <ele>1016.20001220703125</ele>
        <time>2020-08-19T06:35:13.000Z</time>
      </trkpt>
      <trkpt lat="42.60027696378529071807861328125" lon="-0.41307628154754638671875">
        <ele>1017</ele>
        <time>2020-08-19T06:35:17.000Z</time>
      </trkpt>
      <trkpt lat="42.600288279354572296142578125" lon="-0.41311056353151798248291015625">
        <ele>1017.79998779296875</ele>
        <time>2020-08-19T06:35:19.000Z</time>
      </trkpt>
      <trkpt lat="42.60029129683971405029296875" lon="-0.413127578794956207275390625">
        <ele>1018</ele>
        <time>2020-08-19T06:35:20.000Z</time>
      </trkpt>
      <trkpt lat="42.60029808618128299713134765625" lon="-0.41323210112750530242919921875">
        <ele>1019</ele>
        <time>2020-08-19T06:35:26.000Z</time>
      </trkpt>
      <trkpt lat="42.6003013551235198974609375" lon="-0.41324718855321407318115234375">
        <ele>1019.20001220703125</ele>
        <time>2020-08-19T06:35:27.000Z</time>
      </trkpt>
      <trkpt lat="42.60031275451183319091796875" lon="-0.41332966648042201995849609375">
        <ele>1019.5999755859375</ele>
        <time>2020-08-19T06:35:32.000Z</time>
      </trkpt>
      <trkpt lat="42.60031811892986297607421875" lon="-0.41340024210512638092041015625">
        <ele>1020</ele>
        <time>2020-08-19T06:35:36.000Z</time>
      </trkpt>
      <trkpt lat="42.600322477519512176513671875" lon="-0.413467548787593841552734375">
        <ele>1020.79998779296875</ele>
        <time>2020-08-19T06:35:40.000Z</time>
      </trkpt>
      <trkpt lat="42.6003229804337024688720703125" lon="-0.4134834744036197662353515625">
        <ele>1021</ele>
        <time>2020-08-19T06:35:41.000Z</time>
      </trkpt>
      <trkpt lat="42.60032222606241703033447265625" lon="-0.4135766811668872833251953125">
        <ele>1022</ele>
        <time>2020-08-19T06:35:46.000Z</time>
      </trkpt>
      <trkpt lat="42.60032088495790958404541015625" lon="-0.4135967977344989776611328125">
        <ele>1022.20001220703125</ele>
        <time>2020-08-19T06:35:47.000Z</time>
      </trkpt>
      <trkpt lat="42.6003145985305309295654296875" lon="-0.41367785073816776275634765625">
        <ele>1023</ele>
        <time>2020-08-19T06:35:51.000Z</time>
      </trkpt>
      <trkpt lat="42.6002820767462253570556640625" lon="-0.41376938112080097198486328125">
        <ele>1023.5999755859375</ele>
        <time>2020-08-19T06:35:56.000Z</time>
      </trkpt>
      <trkpt lat="42.600262463092803955078125" lon="-0.4138321615755558013916015625">
        <ele>1024.199951171875</ele>
        <time>2020-08-19T06:35:59.000Z</time>
      </trkpt>
      <trkpt lat="42.6002529077231884002685546875" lon="-0.4138928465545177459716796875">
        <ele>1024.800048828125</ele>
        <time>2020-08-19T06:36:02.000Z</time>
      </trkpt>
      <trkpt lat="42.600250057876110076904296875" lon="-0.41393215768039226531982421875">
        <ele>1025.199951171875</ele>
        <time>2020-08-19T06:36:04.000Z</time>
      </trkpt>
      <trkpt lat="42.60024569928646087646484375" lon="-0.41406040079891681671142578125">
        <ele>1026.4000244140625</ele>
        <time>2020-08-19T06:36:11.000Z</time>
      </trkpt>
      <trkpt lat="42.6002495549619197845458984375" lon="-0.41414824314415454864501953125">
        <ele>1027.4000244140625</ele>
        <time>2020-08-19T06:36:16.000Z</time>
      </trkpt>
      <trkpt lat="42.6002552546560764312744140625" lon="-0.414179675281047821044921875">
        <ele>1027.800048828125</ele>
        <time>2020-08-19T06:36:19.000Z</time>
      </trkpt>
      <trkpt lat="42.60025198571383953094482421875" lon="-0.4141826927661895751953125">
        <ele>1028</ele>
        <time>2020-08-19T06:36:27.000Z</time>
      </trkpt>
      <trkpt lat="42.60025148279964923858642578125" lon="-0.41419920511543750762939453125">
        <ele>1028.199951171875</ele>
        <time>2020-08-19T06:36:30.000Z</time>
      </trkpt>
      <trkpt lat="42.60025282390415668487548828125" lon="-0.41420607827603816986083984375">
        <ele>1028.4000244140625</ele>
        <time>2020-08-19T06:36:35.000Z</time>
      </trkpt>
      <trkpt lat="42.600257098674774169921875" lon="-0.41426693089306354522705078125">
        <ele>1028.5999755859375</ele>
        <time>2020-08-19T06:36:42.000Z</time>
      </trkpt>
      <trkpt lat="42.60024678893387317657470703125" lon="-0.41432661004364490509033203125">
        <ele>1029.199951171875</ele>
        <time>2020-08-19T06:36:48.000Z</time>
      </trkpt>
      <trkpt lat="42.60024025104939937591552734375" lon="-0.4143758118152618408203125">
        <ele>1029.5999755859375</ele>
        <time>2020-08-19T06:36:53.000Z</time>
      </trkpt>
      <trkpt lat="42.6002418436110019683837890625" lon="-0.41442073881626129150390625">
        <ele>1030</ele>
        <time>2020-08-19T06:36:58.000Z</time>
      </trkpt>
      <trkpt lat="42.60023505426943302154541015625" lon="-0.414456613361835479736328125">
        <ele>1030.199951171875</ele>
        <time>2020-08-19T06:37:02.000Z</time>
      </trkpt>
      <trkpt lat="42.60021627880632877349853515625" lon="-0.4145094193518161773681640625">
        <ele>1031.199951171875</ele>
        <time>2020-08-19T06:37:08.000Z</time>
      </trkpt>
      <trkpt lat="42.60019934736192226409912109375" lon="-0.41455443017184734344482421875">
        <ele>1031.4000244140625</ele>
        <time>2020-08-19T06:37:13.000Z</time>
      </trkpt>
      <trkpt lat="42.600186355412006378173828125" lon="-0.41461922228336334228515625">
        <ele>1032.199951171875</ele>
        <time>2020-08-19T06:37:21.000Z</time>
      </trkpt>
      <trkpt lat="42.60018107481300830841064453125" lon="-0.41463891975581645965576171875">
        <ele>1032.199951171875</ele>
        <time>2020-08-19T06:37:23.000Z</time>
      </trkpt>
      <trkpt lat="42.6001667417585849761962890625" lon="-0.41469356976449489593505859375">
        <ele>1033.199951171875</ele>
        <time>2020-08-19T06:37:29.000Z</time>
      </trkpt>
      <trkpt lat="42.6001660712063312530517578125" lon="-0.41469625197350978851318359375">
        <ele>1033.199951171875</ele>
        <time>2020-08-19T06:37:30.000Z</time>
      </trkpt>
      <trkpt lat="42.6001672446727752685546875" lon="-0.4146981798112392425537109375">
        <ele>1032.800048828125</ele>
        <time>2020-08-19T06:37:40.000Z</time>
      </trkpt>
      <trkpt lat="42.60015542618930339813232421875" lon="-0.41477210819721221923828125">
        <ele>1032.800048828125</ele>
        <time>2020-08-19T06:37:45.000Z</time>
      </trkpt>
      <trkpt lat="42.60013329796493053436279296875" lon="-0.41495374403893947601318359375">
        <ele>1034</ele>
        <time>2020-08-19T06:37:54.000Z</time>
      </trkpt>
      <trkpt lat="42.60012340731918811798095703125" lon="-0.41499364189803600311279296875">
        <ele>1034.199951171875</ele>
        <time>2020-08-19T06:37:56.000Z</time>
      </trkpt>
      <trkpt lat="42.60008518584072589874267578125" lon="-0.4151239804923534393310546875">
        <ele>1035.4000244140625</ele>
        <time>2020-08-19T06:38:03.000Z</time>
      </trkpt>
      <trkpt lat="42.60007378645241260528564453125" lon="-0.41516102850437164306640625">
        <ele>1035.800048828125</ele>
        <time>2020-08-19T06:38:05.000Z</time>
      </trkpt>
      <trkpt lat="42.60004587471485137939453125" lon="-0.41529756970703601837158203125">
        <ele>1036.4000244140625</ele>
        <time>2020-08-19T06:38:12.000Z</time>
      </trkpt>
      <trkpt lat="42.60004729963839054107666015625" lon="-0.41546269319951534271240234375">
        <ele>1037.4000244140625</ele>
        <time>2020-08-19T06:38:20.000Z</time>
      </trkpt>
      <trkpt lat="42.60005350224673748016357421875" lon="-0.41562245227396488189697265625">
        <ele>1038.4000244140625</ele>
        <time>2020-08-19T06:38:28.000Z</time>
      </trkpt>
      <trkpt lat="42.600053586065769195556640625" lon="-0.415642820298671722412109375">
        <ele>1038.5999755859375</ele>
        <time>2020-08-19T06:38:29.000Z</time>
      </trkpt>
      <trkpt lat="42.60004478506743907928466796875" lon="-0.41571867652237415313720703125">
        <ele>1039.4000244140625</ele>
        <time>2020-08-19T06:38:33.000Z</time>
      </trkpt>
      <trkpt lat="42.6000296138226985931396484375" lon="-0.41577382944524288177490234375">
        <ele>1040</ele>
        <time>2020-08-19T06:38:36.000Z</time>
      </trkpt>
      <trkpt lat="42.600012682378292083740234375" lon="-0.41582747362554073333740234375">
        <ele>1040.5999755859375</ele>
        <time>2020-08-19T06:38:39.000Z</time>
      </trkpt>
      <trkpt lat="42.5999944098293781280517578125" lon="-0.41589519940316677093505859375">
        <ele>1041.5999755859375</ele>
        <time>2020-08-19T06:38:43.000Z</time>
      </trkpt>
      <trkpt lat="42.59998686611652374267578125" lon="-0.4159326665103435516357421875">
        <ele>1042.199951171875</ele>
        <time>2020-08-19T06:38:45.000Z</time>
      </trkpt>
      <trkpt lat="42.59997068904340267181396484375" lon="-0.4160087741911411285400390625">
        <ele>1042.5999755859375</ele>
        <time>2020-08-19T06:38:49.000Z</time>
      </trkpt>
      <trkpt lat="42.5999602116644382476806640625" lon="-0.416086725890636444091796875">
        <ele>1043.800048828125</ele>
        <time>2020-08-19T06:38:53.000Z</time>
      </trkpt>
      <trkpt lat="42.5999595411121845245361328125" lon="-0.41612796485424041748046875">
        <ele>1044.199951171875</ele>
        <time>2020-08-19T06:38:55.000Z</time>
      </trkpt>
      <trkpt lat="42.5999499857425689697265625" lon="-0.41618638671934604644775390625">
        <ele>1044.800048828125</ele>
        <time>2020-08-19T06:38:58.000Z</time>
      </trkpt>
      <trkpt lat="42.5999360717833042144775390625" lon="-0.41630557738244533538818359375">
        <ele>1045.4000244140625</ele>
        <time>2020-08-19T06:39:04.000Z</time>
      </trkpt>
      <trkpt lat="42.5999293662607669830322265625" lon="-0.41638704948127269744873046875">
        <ele>1046</ele>
        <time>2020-08-19T06:39:08.000Z</time>
      </trkpt>
      <trkpt lat="42.59991989471018314361572265625" lon="-0.416465587913990020751953125">
        <ele>1047</ele>
        <time>2020-08-19T06:39:12.000Z</time>
      </trkpt>
      <trkpt lat="42.59991846978664398193359375" lon="-0.4164855368435382843017578125">
        <ele>1047</ele>
        <time>2020-08-19T06:39:13.000Z</time>
      </trkpt>
      <trkpt lat="42.59991570375859737396240234375" lon="-0.4165599681437015533447265625">
        <ele>1048.199951171875</ele>
        <time>2020-08-19T06:39:17.000Z</time>
      </trkpt>
      <trkpt lat="42.59990631602704524993896484375" lon="-0.4166400991380214691162109375">
        <ele>1049</ele>
        <time>2020-08-19T06:39:21.000Z</time>
      </trkpt>
      <trkpt lat="42.59990044869482517242431640625" lon="-0.41673640720546245574951171875">
        <ele>1049</ele>
        <time>2020-08-19T06:39:26.000Z</time>
      </trkpt>
      <trkpt lat="42.59990036487579345703125" lon="-0.41677379049360752105712890625">
        <ele>1049.4000244140625</ele>
        <time>2020-08-19T06:39:28.000Z</time>
      </trkpt>
      <trkpt lat="42.5999035499989986419677734375" lon="-0.4168476350605487823486328125">
        <ele>1050.199951171875</ele>
        <time>2020-08-19T06:39:32.000Z</time>
      </trkpt>
      <trkpt lat="42.59990950115025043487548828125" lon="-0.41692256927490234375">
        <ele>1050.800048828125</ele>
        <time>2020-08-19T06:39:36.000Z</time>
      </trkpt>
      <trkpt lat="42.5999166257679462432861328125" lon="-0.41698132641613483428955078125">
        <ele>1051.199951171875</ele>
        <time>2020-08-19T06:39:39.000Z</time>
      </trkpt>
      <trkpt lat="42.59992928244173526763916015625" lon="-0.41707704775035381317138671875">
        <ele>1051.5999755859375</ele>
        <time>2020-08-19T06:39:44.000Z</time>
      </trkpt>
      <trkpt lat="42.59995199739933013916015625" lon="-0.41719338856637477874755859375">
        <ele>1052.199951171875</ele>
        <time>2020-08-19T06:39:50.000Z</time>
      </trkpt>
      <trkpt lat="42.5999612174928188323974609375" lon="-0.41725038550794124603271484375">
        <ele>1052.4000244140625</ele>
        <time>2020-08-19T06:39:53.000Z</time>
      </trkpt>
      <trkpt lat="42.59997923858463764190673828125" lon="-0.4173917882144451141357421875">
        <ele>1052.800048828125</ele>
        <time>2020-08-19T06:40:01.000Z</time>
      </trkpt>
      <trkpt lat="42.59998510591685771942138671875" lon="-0.41740729473531246185302734375">
        <ele>1052.800048828125</ele>
        <time>2020-08-19T06:40:02.000Z</time>
      </trkpt>
      <trkpt lat="42.5999955832958221435546875" lon="-0.41746102273464202880859375">
        <ele>1052.800048828125</ele>
        <time>2020-08-19T06:40:05.000Z</time>
      </trkpt>
      <trkpt lat="42.60001896880567073822021484375" lon="-0.41750729084014892578125">
        <ele>1053</ele>
        <time>2020-08-19T06:40:08.000Z</time>
      </trkpt>
      <trkpt lat="42.6000738702714443206787109375" lon="-0.41765020228922367095947265625">
        <ele>1052.4000244140625</ele>
        <time>2020-08-19T06:40:14.000Z</time>
      </trkpt>
      <trkpt lat="42.6001255027949810028076171875" lon="-0.4177937842905521392822265625">
        <ele>1052.800048828125</ele>
        <time>2020-08-19T06:40:20.000Z</time>
      </trkpt>
      <trkpt lat="42.60015961714088916778564453125" lon="-0.41789478622376918792724609375">
        <ele>1053.199951171875</ele>
        <time>2020-08-19T06:40:25.000Z</time>
      </trkpt>
      <trkpt lat="42.60017923079431056976318359375" lon="-0.417951531708240509033203125">
        <ele>1053.800048828125</ele>
        <time>2020-08-19T06:40:28.000Z</time>
      </trkpt>
      <trkpt lat="42.600198090076446533203125" lon="-0.41800609789788722991943359375">
        <ele>1054.199951171875</ele>
        <time>2020-08-19T06:40:31.000Z</time>
      </trkpt>
      <trkpt lat="42.60022885166108608245849609375" lon="-0.418116152286529541015625">
        <ele>1055</ele>
        <time>2020-08-19T06:40:37.000Z</time>
      </trkpt>
      <trkpt lat="42.6002398319542407989501953125" lon="-0.4181563854217529296875">
        <ele>1055.4000244140625</ele>
        <time>2020-08-19T06:40:39.000Z</time>
      </trkpt>
      <trkpt lat="42.60027511976659297943115234375" lon="-0.4182722233235836029052734375">
        <ele>1056.4000244140625</ele>
        <time>2020-08-19T06:40:45.000Z</time>
      </trkpt>
      <trkpt lat="42.60033630765974521636962890625" lon="-0.4184391908347606658935546875">
        <ele>1057.199951171875</ele>
        <time>2020-08-19T06:40:54.000Z</time>
      </trkpt>
      <trkpt lat="42.60035189799964427947998046875" lon="-0.4184764064848423004150390625">
        <ele>1057.5999755859375</ele>
        <time>2020-08-19T06:40:56.000Z</time>
      </trkpt>
      <trkpt lat="42.60041191242635250091552734375" lon="-0.418616719543933868408203125">
        <ele>1058.199951171875</ele>
        <time>2020-08-19T06:41:03.000Z</time>
      </trkpt>
      <trkpt lat="42.60044820606708526611328125" lon="-0.41871990077197551727294921875">
        <ele>1058.5999755859375</ele>
        <time>2020-08-19T06:41:08.000Z</time>
      </trkpt>
      <trkpt lat="42.6004668138921260833740234375" lon="-0.41875787079334259033203125">
        <ele>1058.800048828125</ele>
        <time>2020-08-19T06:41:10.000Z</time>
      </trkpt>
      <trkpt lat="42.60053747333586215972900390625" lon="-0.41890229098498821258544921875">
        <ele>1059.199951171875</ele>
        <time>2020-08-19T06:41:18.000Z</time>
      </trkpt>
      <trkpt lat="42.60057653300464153289794921875" lon="-0.418980829417705535888671875">
        <ele>1059.5999755859375</ele>
        <time>2020-08-19T06:41:22.000Z</time>
      </trkpt>
      <trkpt lat="42.60062548331916332244873046875" lon="-0.41904528625309467315673828125">
        <ele>1060.199951171875</ele>
        <time>2020-08-19T06:41:27.000Z</time>
      </trkpt>
      <trkpt lat="42.60067929513752460479736328125" lon="-0.41910680942237377166748046875">
        <ele>1060.4000244140625</ele>
        <time>2020-08-19T06:41:32.000Z</time>
      </trkpt>
      <trkpt lat="42.60071500204503536224365234375" lon="-0.41914570145308971405029296875">
        <ele>1060.800048828125</ele>
        <time>2020-08-19T06:41:35.000Z</time>
      </trkpt>
      <trkpt lat="42.60075573809444904327392578125" lon="-0.419182665646076202392578125">
        <ele>1060.800048828125</ele>
        <time>2020-08-19T06:41:38.000Z</time>
      </trkpt>
      <trkpt lat="42.6007685624063014984130859375" lon="-0.41919649578630924224853515625">
        <ele>1061</ele>
        <time>2020-08-19T06:41:39.000Z</time>
      </trkpt>
      <trkpt lat="42.6008349470794200897216796875" lon="-0.419261120259761810302734375">
        <ele>1061.5999755859375</ele>
        <time>2020-08-19T06:41:44.000Z</time>
      </trkpt>
      <trkpt lat="42.6008671335875988006591796875" lon="-0.41930277831852436065673828125">
        <ele>1061.5999755859375</ele>
        <time>2020-08-19T06:41:47.000Z</time>
      </trkpt>
      <trkpt lat="42.600903846323490142822265625" lon="-0.419349968433380126953125">
        <ele>1061.800048828125</ele>
        <time>2020-08-19T06:41:50.000Z</time>
      </trkpt>
      <trkpt lat="42.600970566272735595703125" lon="-0.4195202887058258056640625">
        <ele>1062.800048828125</ele>
        <time>2020-08-19T06:41:58.000Z</time>
      </trkpt>
      <trkpt lat="42.60104156099259853363037109375" lon="-0.41967443190515041351318359375">
        <ele>1063.4000244140625</ele>
        <time>2020-08-19T06:42:06.000Z</time>
      </trkpt>
      <trkpt lat="42.60107911191880702972412109375" lon="-0.4197256453335285186767578125">
        <ele>1064</ele>
        <time>2020-08-19T06:42:09.000Z</time>
      </trkpt>
      <trkpt lat="42.60112387128174304962158203125" lon="-0.419762693345546722412109375">
        <ele>1064.800048828125</ele>
        <time>2020-08-19T06:42:12.000Z</time>
      </trkpt>
      <trkpt lat="42.60115304030478000640869140625" lon="-0.419778116047382354736328125">
        <ele>1065.199951171875</ele>
        <time>2020-08-19T06:42:14.000Z</time>
      </trkpt>
      <trkpt lat="42.60119511745870113372802734375" lon="-0.41975590400397777557373046875">
        <ele>1066</ele>
        <time>2020-08-19T06:42:17.000Z</time>
      </trkpt>
      <trkpt lat="42.60120484046638011932373046875" lon="-0.4197383858263492584228515625">
        <ele>1066.4000244140625</ele>
        <time>2020-08-19T06:42:18.000Z</time>
      </trkpt>
      <trkpt lat="42.6012178324162960052490234375" lon="-0.4196760244667530059814453125">
        <ele>1067</ele>
        <time>2020-08-19T06:42:21.000Z</time>
      </trkpt>
      <trkpt lat="42.6012188382446765899658203125" lon="-0.41965414769947528839111328125">
        <ele>1067.199951171875</ele>
        <time>2020-08-19T06:42:22.000Z</time>
      </trkpt>
      <trkpt lat="42.60122001171112060546875" lon="-0.419631265103816986083984375">
        <ele>1067.4000244140625</ele>
        <time>2020-08-19T06:42:23.000Z</time>
      </trkpt>
      <trkpt lat="42.60121238417923450469970703125" lon="-0.41953344829380512237548828125">
        <ele>1068.4000244140625</ele>
        <time>2020-08-19T06:42:28.000Z</time>
      </trkpt>
      <trkpt lat="42.60120618157088756561279296875" lon="-0.41949271224439144134521484375">
        <ele>1068.800048828125</ele>
        <time>2020-08-19T06:42:30.000Z</time>
      </trkpt>
      <trkpt lat="42.60119461454451084136962890625" lon="-0.41943185962736606597900390625">
        <ele>1069.5999755859375</ele>
        <time>2020-08-19T06:42:33.000Z</time>
      </trkpt>
      <trkpt lat="42.60116997174918651580810546875" lon="-0.41935189627110958099365234375">
        <ele>1069.800048828125</ele>
        <time>2020-08-19T06:42:37.000Z</time>
      </trkpt>
      <trkpt lat="42.601131834089756011962890625" lon="-0.41920286603271961212158203125">
        <ele>1070</ele>
        <time>2020-08-19T06:42:44.000Z</time>
      </trkpt>
      <trkpt lat="42.6011112146079540252685546875" lon="-0.419118292629718780517578125">
        <ele>1069.800048828125</ele>
        <time>2020-08-19T06:42:48.000Z</time>
      </trkpt>
      <trkpt lat="42.601105011999607086181640625" lon="-0.41909088380634784698486328125">
        <ele>1069.800048828125</ele>
        <time>2020-08-19T06:42:49.000Z</time>
      </trkpt>
      <trkpt lat="42.6010807044804096221923828125" lon="-0.41897051967680454254150390625">
        <ele>1070</ele>
        <time>2020-08-19T06:42:54.000Z</time>
      </trkpt>
      <trkpt lat="42.60104357264935970306396484375" lon="-0.41882953606545925140380859375">
        <ele>1070.800048828125</ele>
        <time>2020-08-19T06:43:00.000Z</time>
      </trkpt>
      <trkpt lat="42.60101021267473697662353515625" lon="-0.4187432862818241119384765625">
        <ele>1071.4000244140625</ele>
        <time>2020-08-19T06:43:04.000Z</time>
      </trkpt>
      <trkpt lat="42.6009851507842540740966796875" lon="-0.4186571203172206878662109375">
        <ele>1071.800048828125</ele>
        <time>2020-08-19T06:43:08.000Z</time>
      </trkpt>
      <trkpt lat="42.600970901548862457275390625" lon="-0.41854203678667545318603515625">
        <ele>1071.800048828125</ele>
        <time>2020-08-19T06:43:13.000Z</time>
      </trkpt>
      <trkpt lat="42.6009325124323368072509765625" lon="-0.41824950836598873138427734375">
        <ele>1072</ele>
        <time>2020-08-19T06:43:25.000Z</time>
      </trkpt>
      <trkpt lat="42.60091935284435749053955078125" lon="-0.41807566769421100616455078125">
        <ele>1072.4000244140625</ele>
        <time>2020-08-19T06:43:32.000Z</time>
      </trkpt>
      <trkpt lat="42.60091784410178661346435546875" lon="-0.41802554391324520111083984375">
        <ele>1072.5999755859375</ele>
        <time>2020-08-19T06:43:34.000Z</time>
      </trkpt>
      <trkpt lat="42.600907869637012481689453125" lon="-0.41788405738770961761474609375">
        <ele>1073.800048828125</ele>
        <time>2020-08-19T06:43:40.000Z</time>
      </trkpt>
      <trkpt lat="42.600886411964893341064453125" lon="-0.41770099662244319915771484375">
        <ele>1075.199951171875</ele>
        <time>2020-08-19T06:43:48.000Z</time>
      </trkpt>
      <trkpt lat="42.60088129900395870208740234375" lon="-0.41768004186451435089111328125">
        <ele>1075.4000244140625</ele>
        <time>2020-08-19T06:43:49.000Z</time>
      </trkpt>
      <trkpt lat="42.6008828915655612945556640625" lon="-0.4175178520381450653076171875">
        <ele>1075.800048828125</ele>
        <time>2020-08-19T06:43:56.000Z</time>
      </trkpt>
      <trkpt lat="42.60088951326906681060791015625" lon="-0.41745473630726337432861328125">
        <ele>1076.199951171875</ele>
        <time>2020-08-19T06:43:59.000Z</time>
      </trkpt>
      <trkpt lat="42.6008993200957775115966796875" lon="-0.41739438660442829132080078125">
        <ele>1076.5999755859375</ele>
        <time>2020-08-19T06:44:02.000Z</time>
      </trkpt>
      <trkpt lat="42.60090460069477558135986328125" lon="-0.4173314385116100311279296875">
        <ele>1077.199951171875</ele>
        <time>2020-08-19T06:44:05.000Z</time>
      </trkpt>
      <trkpt lat="42.6009127311408519744873046875" lon="-0.41721836663782596588134765625">
        <ele>1077.5999755859375</ele>
        <time>2020-08-19T06:44:10.000Z</time>
      </trkpt>
      <trkpt lat="42.60092756710946559906005859375" lon="-0.4171309433877468109130859375">
        <ele>1078.199951171875</ele>
        <time>2020-08-19T06:44:14.000Z</time>
      </trkpt>
      <trkpt lat="42.6009395532310009002685546875" lon="-0.41706673800945281982421875">
        <ele>1078.800048828125</ele>
        <time>2020-08-19T06:44:17.000Z</time>
      </trkpt>
      <trkpt lat="42.60094902478158473968505859375" lon="-0.4170223139226436614990234375">
        <ele>1079.199951171875</ele>
        <time>2020-08-19T06:44:19.000Z</time>
      </trkpt>
      <trkpt lat="42.60097928345203399658203125" lon="-0.416898764669895172119140625">
        <ele>1080.4000244140625</ele>
        <time>2020-08-19T06:44:25.000Z</time>
      </trkpt>
      <trkpt lat="42.6010086201131343841552734375" lon="-0.41670874692499637603759765625">
        <ele>1081.4000244140625</ele>
        <time>2020-08-19T06:44:34.000Z</time>
      </trkpt>
      <trkpt lat="42.601033933460712432861328125" lon="-0.41657564230263233184814453125">
        <ele>1082.4000244140625</ele>
        <time>2020-08-19T06:44:40.000Z</time>
      </trkpt>
      <trkpt lat="42.6010538823902606964111328125" lon="-0.4164915718138217926025390625">
        <ele>1083.199951171875</ele>
        <time>2020-08-19T06:44:44.000Z</time>
      </trkpt>
      <trkpt lat="42.601070143282413482666015625" lon="-0.41643180884420871734619140625">
        <ele>1083.5999755859375</ele>
        <time>2020-08-19T06:44:47.000Z</time>
      </trkpt>
      <trkpt lat="42.60111875832080841064453125" lon="-0.41629635728895664215087890625">
        <ele>1084.5999755859375</ele>
        <time>2020-08-19T06:44:54.000Z</time>
      </trkpt>
      <trkpt lat="42.60112680494785308837890625" lon="-0.4162786714732646942138671875">
        <ele>1084.800048828125</ele>
        <time>2020-08-19T06:44:55.000Z</time>
      </trkpt>
      <trkpt lat="42.60116611607372760772705078125" lon="-0.4161928407847881317138671875">
        <ele>1085.800048828125</ele>
        <time>2020-08-19T06:45:00.000Z</time>
      </trkpt>
      <trkpt lat="42.601175419986248016357421875" lon="-0.41617490351200103759765625">
        <ele>1086</ele>
        <time>2020-08-19T06:45:01.000Z</time>
      </trkpt>
      <trkpt lat="42.60120928287506103515625" lon="-0.41610382497310638427734375">
        <ele>1086.800048828125</ele>
        <time>2020-08-19T06:45:05.000Z</time>
      </trkpt>
      <trkpt lat="42.6012342609465122222900390625" lon="-0.41603333316743373870849609375">
        <ele>1087.199951171875</ele>
        <time>2020-08-19T06:45:09.000Z</time>
      </trkpt>
      <trkpt lat="42.6012473367154598236083984375" lon="-0.4159923456609249114990234375">
        <ele>1087.800048828125</ele>
        <time>2020-08-19T06:45:11.000Z</time>
      </trkpt>
      <trkpt lat="42.60125228203833103179931640625" lon="-0.41597164236009120941162109375">
        <ele>1088</ele>
        <time>2020-08-19T06:45:12.000Z</time>
      </trkpt>
      <trkpt lat="42.60126502253115177154541015625" lon="-0.41589436121284961700439453125">
        <ele>1088.800048828125</ele>
        <time>2020-08-19T06:45:16.000Z</time>
      </trkpt>
      <trkpt lat="42.6012811996042728424072265625" lon="-0.41576662100851535797119140625">
        <ele>1089.800048828125</ele>
        <time>2020-08-19T06:45:22.000Z</time>
      </trkpt>
      <trkpt lat="42.6012815348803997039794921875" lon="-0.415745079517364501953125">
        <ele>1089.800048828125</ele>
        <time>2020-08-19T06:45:23.000Z</time>
      </trkpt>
      <trkpt lat="42.60129771195352077484130859375" lon="-0.4156364500522613525390625">
        <ele>1090.4000244140625</ele>
        <time>2020-08-19T06:45:28.000Z</time>
      </trkpt>
      <trkpt lat="42.60130517184734344482421875" lon="-0.41557098738849163055419921875">
        <ele>1090.800048828125</ele>
        <time>2020-08-19T06:45:31.000Z</time>
      </trkpt>
      <trkpt lat="42.60131187736988067626953125" lon="-0.415482558310031890869140625">
        <ele>1091.4000244140625</ele>
        <time>2020-08-19T06:45:35.000Z</time>
      </trkpt>
      <trkpt lat="42.60133199393749237060546875" lon="-0.4153633676469326019287109375">
        <ele>1092</ele>
        <time>2020-08-19T06:45:40.000Z</time>
      </trkpt>
      <trkpt lat="42.60134699754416942596435546875" lon="-0.41532020084559917449951171875">
        <ele>1092.4000244140625</ele>
        <time>2020-08-19T06:45:42.000Z</time>
      </trkpt>
      <trkpt lat="42.60139594785869121551513671875" lon="-0.41522112675011157989501953125">
        <ele>1093.199951171875</ele>
        <time>2020-08-19T06:45:47.000Z</time>
      </trkpt>
      <trkpt lat="42.601423524320125579833984375" lon="-0.41516245342791080474853515625">
        <ele>1094.4000244140625</ele>
        <time>2020-08-19T06:45:50.000Z</time>
      </trkpt>
      <trkpt lat="42.6014360971748828887939453125" lon="-0.4151482880115509033203125">
        <ele>1094.5999755859375</ele>
        <time>2020-08-19T06:45:51.000Z</time>
      </trkpt>
      <trkpt lat="42.6015041582286357879638671875" lon="-0.41508919559419155120849609375">
        <ele>1095.4000244140625</ele>
        <time>2020-08-19T06:45:56.000Z</time>
      </trkpt>
      <trkpt lat="42.60153575800359249114990234375" lon="-0.41507477872073650360107421875">
        <ele>1095.5999755859375</ele>
        <time>2020-08-19T06:45:58.000Z</time>
      </trkpt>
      <trkpt lat="42.60159946046769618988037109375" lon="-0.4150726832449436187744140625">
        <ele>1096.4000244140625</ele>
        <time>2020-08-19T06:46:02.000Z</time>
      </trkpt>
      <trkpt lat="42.60163768194615840911865234375" lon="-0.41510109789669513702392578125">
        <ele>1097</ele>
        <time>2020-08-19T06:46:05.000Z</time>
      </trkpt>
      <trkpt lat="42.60164891369640827178955078125" lon="-0.415115766227245330810546875">
        <ele>1097.4000244140625</ele>
        <time>2020-08-19T06:46:06.000Z</time>
      </trkpt>
      <trkpt lat="42.60168428532779216766357421875" lon="-0.41518055833876132965087890625">
        <ele>1098.5999755859375</ele>
        <time>2020-08-19T06:46:10.000Z</time>
      </trkpt>
      <trkpt lat="42.601691745221614837646484375" lon="-0.41522246785461902618408203125">
        <ele>1099</ele>
        <time>2020-08-19T06:46:12.000Z</time>
      </trkpt>
      <trkpt lat="42.6016987860202789306640625" lon="-0.415306203067302703857421875">
        <ele>1099.5999755859375</ele>
        <time>2020-08-19T06:46:16.000Z</time>
      </trkpt>
      <trkpt lat="42.60168713517487049102783203125" lon="-0.41541541926562786102294921875">
        <ele>1100.5999755859375</ele>
        <time>2020-08-19T06:46:21.000Z</time>
      </trkpt>
      <trkpt lat="42.60168336331844329833984375" lon="-0.41543553583323955535888671875">
        <ele>1100.800048828125</ele>
        <time>2020-08-19T06:46:22.000Z</time>
      </trkpt>
      <trkpt lat="42.601635754108428955078125" lon="-0.41557182557880878448486328125">
        <ele>1101.800048828125</ele>
        <time>2020-08-19T06:46:29.000Z</time>
      </trkpt>
      <trkpt lat="42.6016228459775447845458984375" lon="-0.41561172343790531158447265625">
        <ele>1102.4000244140625</ele>
        <time>2020-08-19T06:46:31.000Z</time>
      </trkpt>
      <trkpt lat="42.601611278951168060302734375" lon="-0.41564944200217723846435546875">
        <ele>1103</ele>
        <time>2020-08-19T06:46:33.000Z</time>
      </trkpt>
      <trkpt lat="42.60160415433347225189208984375" lon="-0.41566771455109119415283203125">
        <ele>1103.4000244140625</ele>
        <time>2020-08-19T06:46:34.000Z</time>
      </trkpt>
      <trkpt lat="42.60157330892980098724365234375" lon="-0.41580366902053356170654296875">
        <ele>1103.800048828125</ele>
        <time>2020-08-19T06:46:41.000Z</time>
      </trkpt>
      <trkpt lat="42.6015700399875640869140625" lon="-0.415822528302669525146484375">
        <ele>1104</ele>
        <time>2020-08-19T06:46:42.000Z</time>
      </trkpt>
      <trkpt lat="42.60156802833080291748046875" lon="-0.41584021411836147308349609375">
        <ele>1104.5999755859375</ele>
        <time>2020-08-19T06:46:46.000Z</time>
      </trkpt>
      <trkpt lat="42.601560316979885101318359375" lon="-0.4158565588295459747314453125">
        <ele>1104.800048828125</ele>
        <time>2020-08-19T06:46:49.000Z</time>
      </trkpt>
      <trkpt lat="42.6015561260282993316650390625" lon="-0.41591196320950984954833984375">
        <ele>1105</ele>
        <time>2020-08-19T06:46:52.000Z</time>
      </trkpt>
      <trkpt lat="42.6015531085431575775146484375" lon="-0.41593291796743869781494140625">
        <ele>1105</ele>
        <time>2020-08-19T06:46:53.000Z</time>
      </trkpt>
      <trkpt lat="42.6015417091548442840576171875" lon="-0.4161224327981472015380859375">
        <ele>1105.4000244140625</ele>
        <time>2020-08-19T06:47:02.000Z</time>
      </trkpt>
      <trkpt lat="42.601546905934810638427734375" lon="-0.41622678749263286590576171875">
        <ele>1106</ele>
        <time>2020-08-19T06:47:07.000Z</time>
      </trkpt>
      <trkpt lat="42.601548917591571807861328125" lon="-0.416289903223514556884765625">
        <ele>1106.5999755859375</ele>
        <time>2020-08-19T06:47:10.000Z</time>
      </trkpt>
      <trkpt lat="42.60155134834349155426025390625" lon="-0.4163547791540622711181640625">
        <ele>1107.199951171875</ele>
        <time>2020-08-19T06:47:13.000Z</time>
      </trkpt>
      <trkpt lat="42.601567693054676055908203125" lon="-0.41648335754871368408203125">
        <ele>1108</ele>
        <time>2020-08-19T06:47:19.000Z</time>
      </trkpt>
      <trkpt lat="42.60158370248973369598388671875" lon="-0.416542701423168182373046875">
        <ele>1108.4000244140625</ele>
        <time>2020-08-19T06:47:22.000Z</time>
      </trkpt>
      <trkpt lat="42.60160935111343860626220703125" lon="-0.4166154563426971435546875">
        <ele>1108.800048828125</ele>
        <time>2020-08-19T06:47:26.000Z</time>
      </trkpt>
      <trkpt lat="42.60163164697587490081787109375" lon="-0.41668720543384552001953125">
        <ele>1109.5999755859375</ele>
        <time>2020-08-19T06:47:30.000Z</time>
      </trkpt>
      <trkpt lat="42.601649500429630279541015625" lon="-0.4167792387306690216064453125">
        <ele>1109.5999755859375</ele>
        <time>2020-08-19T06:47:35.000Z</time>
      </trkpt>
      <trkpt lat="42.60167271830141544342041015625" lon="-0.41692365892231464385986328125">
        <ele>1109.4000244140625</ele>
        <time>2020-08-19T06:47:42.000Z</time>
      </trkpt>
      <trkpt lat="42.60168696753680706024169921875" lon="-0.41704301722347736358642578125">
        <ele>1110</ele>
        <time>2020-08-19T06:47:48.000Z</time>
      </trkpt>
      <trkpt lat="42.601688392460346221923828125" lon="-0.41708425618708133697509765625">
        <ele>1110.199951171875</ele>
        <time>2020-08-19T06:47:50.000Z</time>
      </trkpt>
      <trkpt lat="42.60169501416385173797607421875" lon="-0.4172556661069393157958984375">
        <ele>1110</ele>
        <time>2020-08-19T06:47:58.000Z</time>
      </trkpt>
      <trkpt lat="42.60171513073146343231201171875" lon="-0.41742539964616298675537109375">
        <ele>1110.4000244140625</ele>
        <time>2020-08-19T06:48:06.000Z</time>
      </trkpt>
      <trkpt lat="42.60171731002628803253173828125" lon="-0.41744568385183811187744140625">
        <ele>1110.5999755859375</ele>
        <time>2020-08-19T06:48:07.000Z</time>
      </trkpt>
      <trkpt lat="42.60174111463129520416259765625" lon="-0.41757007129490375518798828125">
        <ele>1111</ele>
        <time>2020-08-19T06:48:13.000Z</time>
      </trkpt>
      <trkpt lat="42.60176374576985836029052734375" lon="-0.417674593627452850341796875">
        <ele>1111.4000244140625</ele>
        <time>2020-08-19T06:48:18.000Z</time>
      </trkpt>
      <trkpt lat="42.60178553871810436248779296875" lon="-0.4177357815206050872802734375">
        <ele>1111.5999755859375</ele>
        <time>2020-08-19T06:48:21.000Z</time>
      </trkpt>
      <trkpt lat="42.6018696092069149017333984375" lon="-0.41790735907852649688720703125">
        <ele>1112</ele>
        <time>2020-08-19T06:48:30.000Z</time>
      </trkpt>
      <trkpt lat="42.60189433582127094268798828125" lon="-0.41793577373027801513671875">
        <ele>1112.199951171875</ele>
        <time>2020-08-19T06:48:32.000Z</time>
      </trkpt>
      <trkpt lat="42.60196088813245296478271484375" lon="-0.41799210011959075927734375">
        <ele>1113.199951171875</ele>
        <time>2020-08-19T06:48:37.000Z</time>
      </trkpt>
      <trkpt lat="42.6019745506346225738525390625" lon="-0.41800173930823802947998046875">
        <ele>1113.5999755859375</ele>
        <time>2020-08-19T06:48:38.000Z</time>
      </trkpt>
      <trkpt lat="42.6020982675254344940185546875" lon="-0.4180868156254291534423828125">
        <ele>1114.5999755859375</ele>
        <time>2020-08-19T06:48:47.000Z</time>
      </trkpt>
      <trkpt lat="42.60222516953945159912109375" lon="-0.41817239485681056976318359375">
        <ele>1115.800048828125</ele>
        <time>2020-08-19T06:48:56.000Z</time>
      </trkpt>
      <trkpt lat="42.60231829248368740081787109375" lon="-0.41825403459370136260986328125">
        <ele>1116.800048828125</ele>
        <time>2020-08-19T06:49:03.000Z</time>
      </trkpt>
      <trkpt lat="42.602332793176174163818359375" lon="-0.41826576925814151763916015625">
        <ele>1117</ele>
        <time>2020-08-19T06:49:04.000Z</time>
      </trkpt>
      <trkpt lat="42.60239205323159694671630859375" lon="-0.41827348060905933380126953125">
        <ele>1118</ele>
        <time>2020-08-19T06:49:08.000Z</time>
      </trkpt>
      <trkpt lat="42.60240512900054454803466796875" lon="-0.4182650148868560791015625">
        <ele>1118</ele>
        <time>2020-08-19T06:49:09.000Z</time>
      </trkpt>
      <trkpt lat="42.6024342142045497894287109375" lon="-0.41821329854428768157958984375">
        <ele>1118.4000244140625</ele>
        <time>2020-08-19T06:49:12.000Z</time>
      </trkpt>
      <trkpt lat="42.60243915952742099761962890625" lon="-0.4181686230003833770751953125">
        <ele>1118.800048828125</ele>
        <time>2020-08-19T06:49:14.000Z</time>
      </trkpt>
      <trkpt lat="42.6024147681891918182373046875" lon="-0.41804398410022258758544921875">
        <ele>1120</ele>
        <time>2020-08-19T06:49:20.000Z</time>
      </trkpt>
      <trkpt lat="42.60240697301924228668212890625" lon="-0.41802638210356235504150390625">
        <ele>1120.199951171875</ele>
        <time>2020-08-19T06:49:21.000Z</time>
      </trkpt>
      <trkpt lat="42.60233270935714244842529296875" lon="-0.41789352893829345703125">
        <ele>1120.5999755859375</ele>
        <time>2020-08-19T06:49:29.000Z</time>
      </trkpt>
      <trkpt lat="42.60227923281490802764892578125" lon="-0.4178028367459774017333984375">
        <ele>1121.199951171875</ele>
        <time>2020-08-19T06:49:34.000Z</time>
      </trkpt>
      <trkpt lat="42.6022337190806865692138671875" lon="-0.41773821227252483367919921875">
        <ele>1121.5999755859375</ele>
        <time>2020-08-19T06:49:38.000Z</time>
      </trkpt>
      <trkpt lat="42.60217580012977123260498046875" lon="-0.41761466301977634429931640625">
        <ele>1121.4000244140625</ele>
        <time>2020-08-19T06:49:45.000Z</time>
      </trkpt>
      <trkpt lat="42.6022030413150787353515625" lon="-0.41752078570425510406494140625">
        <ele>1122</ele>
        <time>2020-08-19T06:49:50.000Z</time>
      </trkpt>
      <trkpt lat="42.60222382843494415283203125" lon="-0.41749966330826282501220703125">
        <ele>1122.199951171875</ele>
        <time>2020-08-19T06:49:52.000Z</time>
      </trkpt>
      <trkpt lat="42.60228342376649379730224609375" lon="-0.41748994030058383941650390625">
        <ele>1123.5999755859375</ele>
        <time>2020-08-19T06:49:56.000Z</time>
      </trkpt>
      <trkpt lat="42.602339498698711395263671875" lon="-0.417510978877544403076171875">
        <ele>1124.5999755859375</ele>
        <time>2020-08-19T06:50:00.000Z</time>
      </trkpt>
      <trkpt lat="42.6023775525391101837158203125" lon="-0.41753855533897876739501953125">
        <ele>1124.800048828125</ele>
        <time>2020-08-19T06:50:03.000Z</time>
      </trkpt>
      <trkpt lat="42.6024409197270870208740234375" lon="-0.4175929538905620574951171875">
        <ele>1125.5999755859375</ele>
        <time>2020-08-19T06:50:08.000Z</time>
      </trkpt>
      <trkpt lat="42.60246547870337963104248046875" lon="-0.41761466301977634429931640625">
        <ele>1126.199951171875</ele>
        <time>2020-08-19T06:50:10.000Z</time>
      </trkpt>
      <trkpt lat="42.602523230016231536865234375" lon="-0.417672581970691680908203125">
        <ele>1126.5999755859375</ele>
        <time>2020-08-19T06:50:15.000Z</time>
      </trkpt>
      <trkpt lat="42.60254745371639728546142578125" lon="-0.41769663803279399871826171875">
        <ele>1126.800048828125</ele>
        <time>2020-08-19T06:50:17.000Z</time>
      </trkpt>
      <trkpt lat="42.6026132516562938690185546875" lon="-0.417773164808750152587890625">
        <ele>1127.4000244140625</ele>
        <time>2020-08-19T06:50:23.000Z</time>
      </trkpt>
      <trkpt lat="42.6026454381644725799560546875" lon="-0.417820774018764495849609375">
        <ele>1127.5999755859375</ele>
        <time>2020-08-19T06:50:26.000Z</time>
      </trkpt>
      <trkpt lat="42.6026806421577930450439453125" lon="-0.4178906790912151336669921875">
        <ele>1128.5999755859375</ele>
        <time>2020-08-19T06:50:30.000Z</time>
      </trkpt>
      <trkpt lat="42.60276119224727153778076171875" lon="-0.418033339083194732666015625">
        <ele>1129.5999755859375</ele>
        <time>2020-08-19T06:50:38.000Z</time>
      </trkpt>
      <trkpt lat="42.60277770459651947021484375" lon="-0.41807097382843494415283203125">
        <ele>1130</ele>
        <time>2020-08-19T06:50:40.000Z</time>
      </trkpt>
      <trkpt lat="42.60283646173775196075439453125" lon="-0.418211705982685089111328125">
        <ele>1130.800048828125</ele>
        <time>2020-08-19T06:50:47.000Z</time>
      </trkpt>
      <trkpt lat="42.602904103696346282958984375" lon="-0.418384037911891937255859375">
        <ele>1132</ele>
        <time>2020-08-19T06:50:55.000Z</time>
      </trkpt>
      <trkpt lat="42.602912820875644683837890625" lon="-0.4184049926698207855224609375">
        <ele>1132.199951171875</ele>
        <time>2020-08-19T06:50:56.000Z</time>
      </trkpt>
      <trkpt lat="42.60293737985193729400634765625" lon="-0.41846391744911670684814453125">
        <ele>1133.199951171875</ele>
        <time>2020-08-19T06:50:59.000Z</time>
      </trkpt>
      <trkpt lat="42.602994628250598907470703125" lon="-0.4185981117188930511474609375">
        <ele>1134.4000244140625</ele>
        <time>2020-08-19T06:51:06.000Z</time>
      </trkpt>
      <trkpt lat="42.60300225578248500823974609375" lon="-0.4186172224581241607666015625">
        <ele>1134.5999755859375</ele>
        <time>2020-08-19T06:51:07.000Z</time>
      </trkpt>
      <trkpt lat="42.6030595041811466217041015625" lon="-0.41874823160469532012939453125">
        <ele>1135.199951171875</ele>
        <time>2020-08-19T06:51:14.000Z</time>
      </trkpt>
      <trkpt lat="42.6030658744275569915771484375" lon="-0.4187679290771484375">
        <ele>1135.4000244140625</ele>
        <time>2020-08-19T06:51:15.000Z</time>
      </trkpt>
      <trkpt lat="42.6031017489731311798095703125" lon="-0.41888603009283542633056640625">
        <ele>1136.4000244140625</ele>
        <time>2020-08-19T06:51:20.000Z</time>
      </trkpt>
      <trkpt lat="42.60312245227396488189697265625" lon="-0.418962053954601287841796875">
        <ele>1136.800048828125</ele>
        <time>2020-08-19T06:51:23.000Z</time>
      </trkpt>
      <trkpt lat="42.60314877144992351531982421875" lon="-0.41903723962604999542236328125">
        <ele>1137.5999755859375</ele>
        <time>2020-08-19T06:51:27.000Z</time>
      </trkpt>
      <trkpt lat="42.6031765155494213104248046875" lon="-0.41910664178431034088134765625">
        <ele>1138.5999755859375</ele>
        <time>2020-08-19T06:51:31.000Z</time>
      </trkpt>
      <trkpt lat="42.60319210588932037353515625" lon="-0.41914083994925022125244140625">
        <ele>1139.199951171875</ele>
        <time>2020-08-19T06:51:33.000Z</time>
      </trkpt>
      <trkpt lat="42.60323845781385898590087890625" lon="-0.41924200952053070068359375">
        <ele>1139.800048828125</ele>
        <time>2020-08-19T06:51:39.000Z</time>
      </trkpt>
      <trkpt lat="42.60325639508664608001708984375" lon="-0.4192773811519145965576171875">
        <ele>1140.199951171875</ele>
        <time>2020-08-19T06:51:41.000Z</time>
      </trkpt>
      <trkpt lat="42.603271566331386566162109375" lon="-0.419312752783298492431640625">
        <ele>1140.800048828125</ele>
        <time>2020-08-19T06:51:43.000Z</time>
      </trkpt>
      <trkpt lat="42.60331138037145137786865234375" lon="-0.4194017685949802398681640625">
        <ele>1141.800048828125</ele>
        <time>2020-08-19T06:51:48.000Z</time>
      </trkpt>
      <trkpt lat="42.6033277250826358795166015625" lon="-0.419435463845729827880859375">
        <ele>1142.199951171875</ele>
        <time>2020-08-19T06:51:50.000Z</time>
      </trkpt>
      <trkpt lat="42.6033760048449039459228515625" lon="-0.41953730396926403045654296875">
        <ele>1143.199951171875</ele>
        <time>2020-08-19T06:51:56.000Z</time>
      </trkpt>
      <trkpt lat="42.60339989326894283294677734375" lon="-0.41959161870181560516357421875">
        <ele>1143.5999755859375</ele>
        <time>2020-08-19T06:51:59.000Z</time>
      </trkpt>
      <trkpt lat="42.6034437306225299835205078125" lon="-0.41969588957726955413818359375">
        <ele>1144</ele>
        <time>2020-08-19T06:52:05.000Z</time>
      </trkpt>
      <trkpt lat="42.603470385074615478515625" lon="-0.4197648726403713226318359375">
        <ele>1145.199951171875</ele>
        <time>2020-08-19T06:52:09.000Z</time>
      </trkpt>
      <trkpt lat="42.60351103730499744415283203125" lon="-0.419864952564239501953125">
        <ele>1146</ele>
        <time>2020-08-19T06:52:15.000Z</time>
      </trkpt>
      <trkpt lat="42.60351221077144145965576171875" lon="-0.41986386291682720184326171875">
        <ele>1146</ele>
        <time>2020-08-19T06:52:25.000Z</time>
      </trkpt>
      <trkpt lat="42.60351187549531459808349609375" lon="-0.419863946735858917236328125">
        <ele>1146</ele>
        <time>2020-08-19T06:52:27.000Z</time>
      </trkpt>
      <trkpt lat="42.6035107858479022979736328125" lon="-0.41985866613686084747314453125">
        <ele>1146.5999755859375</ele>
        <time>2020-08-19T06:57:09.000Z</time>
      </trkpt>
      <trkpt lat="42.60352713055908679962158203125" lon="-0.41992035694420337677001953125">
        <ele>1146.4000244140625</ele>
        <time>2020-08-19T06:57:15.000Z</time>
      </trkpt>
      <trkpt lat="42.60357390157878398895263671875" lon="-0.4200592450797557830810546875">
        <ele>1147.4000244140625</ele>
        <time>2020-08-19T06:57:23.000Z</time>
      </trkpt>
      <trkpt lat="42.60358496569097042083740234375" lon="-0.4200961254537105560302734375">
        <ele>1147.5999755859375</ele>
        <time>2020-08-19T06:57:25.000Z</time>
      </trkpt>
      <trkpt lat="42.60363064706325531005859375" lon="-0.42024339549243450164794921875">
        <ele>1148.5999755859375</ele>
        <time>2020-08-19T06:57:33.000Z</time>
      </trkpt>
      <trkpt lat="42.603638358414173126220703125" lon="-0.42026200331747531890869140625">
        <ele>1148.800048828125</ele>
        <time>2020-08-19T06:57:34.000Z</time>
      </trkpt>
      <trkpt lat="42.60367046110332012176513671875" lon="-0.4203301481902599334716796875">
        <ele>1149.5999755859375</ele>
        <time>2020-08-19T06:57:38.000Z</time>
      </trkpt>
      <trkpt lat="42.60370365343987941741943359375" lon="-0.42038488201797008514404296875">
        <ele>1149.800048828125</ele>
        <time>2020-08-19T06:57:41.000Z</time>
      </trkpt>
      <trkpt lat="42.603761740028858184814453125" lon="-0.42044087313115596771240234375">
        <ele>1151</ele>
        <time>2020-08-19T06:57:47.000Z</time>
      </trkpt>
      <trkpt lat="42.60377347469329833984375" lon="-0.42046635411679744720458984375">
        <ele>1151.4000244140625</ele>
        <time>2020-08-19T06:57:53.000Z</time>
      </trkpt>
      <trkpt lat="42.60380574502050876617431640625" lon="-0.42050356976687908172607421875">
        <ele>1152</ele>
        <time>2020-08-19T06:57:59.000Z</time>
      </trkpt>
      <trkpt lat="42.60382032953202724456787109375" lon="-0.4205153882503509521484375">
        <ele>1152.199951171875</ele>
        <time>2020-08-19T06:58:01.000Z</time>
      </trkpt>
      <trkpt lat="42.6038785837590694427490234375" lon="-0.42056090198457241058349609375">
        <ele>1153</ele>
        <time>2020-08-19T06:58:10.000Z</time>
      </trkpt>
      <trkpt lat="42.60387900285422801971435546875" lon="-0.4205591417849063873291015625">
        <ele>1153.199951171875</ele>
        <time>2020-08-19T06:58:12.000Z</time>
      </trkpt>
      <trkpt lat="42.60392292402684688568115234375" lon="-0.4205956868827342987060546875">
        <ele>1153.5999755859375</ele>
        <time>2020-08-19T06:58:18.000Z</time>
      </trkpt>
      <trkpt lat="42.60396248660981655120849609375" lon="-0.4206208325922489166259765625">
        <ele>1153.800048828125</ele>
        <time>2020-08-19T06:58:21.000Z</time>
      </trkpt>
      <trkpt lat="42.60406424291431903839111328125" lon="-0.42067606933414936065673828125">
        <ele>1155</ele>
        <time>2020-08-19T06:58:28.000Z</time>
      </trkpt>
      <trkpt lat="42.60407991707324981689453125" lon="-0.42068294249475002288818359375">
        <ele>1155</ele>
        <time>2020-08-19T06:58:29.000Z</time>
      </trkpt>
      <trkpt lat="42.604196257889270782470703125" lon="-0.4207433760166168212890625">
        <ele>1155.5999755859375</ele>
        <time>2020-08-19T06:58:37.000Z</time>
      </trkpt>
      <trkpt lat="42.6042242534458637237548828125" lon="-0.4207603074610233306884765625">
        <ele>1156</ele>
        <time>2020-08-19T06:58:39.000Z</time>
      </trkpt>
      <trkpt lat="42.604314275085926055908203125" lon="-0.42080665938556194305419921875">
        <ele>1157.4000244140625</ele>
        <time>2020-08-19T06:58:45.000Z</time>
      </trkpt>
      <trkpt lat="42.6043442822992801666259765625" lon="-0.420826189219951629638671875">
        <ele>1158</ele>
        <time>2020-08-19T06:58:47.000Z</time>
      </trkpt>
      <trkpt lat="42.604401111602783203125" lon="-0.4208632372319698333740234375">
        <ele>1158.4000244140625</ele>
        <time>2020-08-19T06:58:51.000Z</time>
      </trkpt>
      <trkpt lat="42.6044721901416778564453125" lon="-0.42091294191777706146240234375">
        <ele>1159.199951171875</ele>
        <time>2020-08-19T06:58:56.000Z</time>
      </trkpt>
      <trkpt lat="42.60453748516738414764404296875" lon="-0.4209525883197784423828125">
        <ele>1159.5999755859375</ele>
        <time>2020-08-19T06:59:00.000Z</time>
      </trkpt>
      <trkpt lat="42.60458140634000301361083984375" lon="-0.420985110104084014892578125">
        <ele>1160.199951171875</ele>
        <time>2020-08-19T06:59:03.000Z</time>
      </trkpt>
      <trkpt lat="42.6046223938465118408203125" lon="-0.42102006264030933380126953125">
        <ele>1160.4000244140625</ele>
        <time>2020-08-19T06:59:06.000Z</time>
      </trkpt>
      <trkpt lat="42.60468785651028156280517578125" lon="-0.421080328524112701416015625">
        <ele>1161</ele>
        <time>2020-08-19T06:59:11.000Z</time>
      </trkpt>
      <trkpt lat="42.60477217845618724822998046875" lon="-0.42114428244531154632568359375">
        <ele>1161.5999755859375</ele>
        <time>2020-08-19T06:59:17.000Z</time>
      </trkpt>
      <trkpt lat="42.6048026047646999359130859375" lon="-0.42116054333746433258056640625">
        <ele>1162</ele>
        <time>2020-08-19T06:59:19.000Z</time>
      </trkpt>
      <trkpt lat="42.6048984937369823455810546875" lon="-0.421223826706409454345703125">
        <ele>1162.800048828125</ele>
        <time>2020-08-19T06:59:25.000Z</time>
      </trkpt>
      <trkpt lat="42.60493009351193904876708984375" lon="-0.42123698629438877105712890625">
        <ele>1163.199951171875</ele>
        <time>2020-08-19T06:59:27.000Z</time>
      </trkpt>
      <trkpt lat="42.60506294667720794677734375" lon="-0.42134226299822330474853515625">
        <ele>1163.5999755859375</ele>
        <time>2020-08-19T06:59:35.000Z</time>
      </trkpt>
      <trkpt lat="42.605181634426116943359375" lon="-0.42144519276916980743408203125">
        <ele>1163.5999755859375</ele>
        <time>2020-08-19T06:59:43.000Z</time>
      </trkpt>
      <trkpt lat="42.60529520921409130096435546875" lon="-0.42154812254011631011962890625">
        <ele>1163.5999755859375</ele>
        <time>2020-08-19T06:59:51.000Z</time>
      </trkpt>
      <trkpt lat="42.6054325886070728302001953125" lon="-0.4216689057648181915283203125">
        <ele>1163.5999755859375</ele>
        <time>2020-08-19T06:59:59.000Z</time>
      </trkpt>
      <trkpt lat="42.605539374053478240966796875" lon="-0.42176487855613231658935546875">
        <ele>1163.800048828125</ele>
        <time>2020-08-19T07:00:06.000Z</time>
      </trkpt>
      <trkpt lat="42.6055713929235935211181640625" lon="-0.42178398929536342620849609375">
        <ele>1164.199951171875</ele>
        <time>2020-08-19T07:00:08.000Z</time>
      </trkpt>
      <trkpt lat="42.605702318251132965087890625" lon="-0.42188524268567562103271484375">
        <ele>1163.800048828125</ele>
        <time>2020-08-19T07:00:16.000Z</time>
      </trkpt>
      <trkpt lat="42.60578957386314868927001953125" lon="-0.42195531539618968963623046875">
        <ele>1164.5999755859375</ele>
        <time>2020-08-19T07:00:22.000Z</time>
      </trkpt>
      <trkpt lat="42.60595452971756458282470703125" lon="-0.42208121158182621002197265625">
        <ele>1164.5999755859375</ele>
        <time>2020-08-19T07:00:32.000Z</time>
      </trkpt>
      <trkpt lat="42.6060042344033718109130859375" lon="-0.42212479747831821441650390625">
        <ele>1165.199951171875</ele>
        <time>2020-08-19T07:00:35.000Z</time>
      </trkpt>
      <trkpt lat="42.60606818832457065582275390625" lon="-0.42218045331537723541259765625">
        <ele>1165.5999755859375</ele>
        <time>2020-08-19T07:00:39.000Z</time>
      </trkpt>
      <trkpt lat="42.60612552054226398468017578125" lon="-0.4222284816205501556396484375">
        <ele>1166.199951171875</ele>
        <time>2020-08-19T07:00:43.000Z</time>
      </trkpt>
      <trkpt lat="42.60618955828249454498291015625" lon="-0.42226561345160007476806640625">
        <ele>1167</ele>
        <time>2020-08-19T07:00:47.000Z</time>
      </trkpt>
      <trkpt lat="42.60622023604810237884521484375" lon="-0.4222804494202136993408203125">
        <ele>1167.4000244140625</ele>
        <time>2020-08-19T07:00:49.000Z</time>
      </trkpt>
      <trkpt lat="42.60632383637130260467529296875" lon="-0.4223009012639522552490234375">
        <ele>1168.4000244140625</ele>
        <time>2020-08-19T07:00:56.000Z</time>
      </trkpt>
      <trkpt lat="42.60633909143507480621337890625" lon="-0.42229863815009593963623046875">
        <ele>1168.4000244140625</ele>
        <time>2020-08-19T07:00:57.000Z</time>
      </trkpt>
      <trkpt lat="42.606420479714870452880859375" lon="-0.42227282188832759857177734375">
        <ele>1169.4000244140625</ele>
        <time>2020-08-19T07:01:03.000Z</time>
      </trkpt>
      <trkpt lat="42.60643196292221546173095703125" lon="-0.42226527817547321319580078125">
        <ele>1169.5999755859375</ele>
        <time>2020-08-19T07:01:04.000Z</time>
      </trkpt>
      <trkpt lat="42.6065195538103580474853515625" lon="-0.422236360609531402587890625">
        <ele>1170.5999755859375</ele>
        <time>2020-08-19T07:01:10.000Z</time>
      </trkpt>
      <trkpt lat="42.606551237404346466064453125" lon="-0.422227643430233001708984375">
        <ele>1170.800048828125</ele>
        <time>2020-08-19T07:01:12.000Z</time>
      </trkpt>
      <trkpt lat="42.6066563464701175689697265625" lon="-0.42220459319651126861572265625">
        <ele>1171.5999755859375</ele>
        <time>2020-08-19T07:01:19.000Z</time>
      </trkpt>
      <trkpt lat="42.6066724397242069244384765625" lon="-0.4222046770155429840087890625">
        <ele>1171.800048828125</ele>
        <time>2020-08-19T07:01:20.000Z</time>
      </trkpt>
      <trkpt lat="42.6067626290023326873779296875" lon="-0.42220392264425754547119140625">
        <ele>1172.5999755859375</ele>
        <time>2020-08-19T07:01:26.000Z</time>
      </trkpt>
      <trkpt lat="42.6067938096821308135986328125" lon="-0.42220375500619411468505859375">
        <ele>1172.800048828125</ele>
        <time>2020-08-19T07:01:28.000Z</time>
      </trkpt>
      <trkpt lat="42.606929428875446319580078125" lon="-0.42219855822622776031494140625">
        <ele>1173.800048828125</ele>
        <time>2020-08-19T07:01:37.000Z</time>
      </trkpt>
      <trkpt lat="42.60707686655223369598388671875" lon="-0.4222051799297332763671875">
        <ele>1174.199951171875</ele>
        <time>2020-08-19T07:01:46.000Z</time>
      </trkpt>
      <trkpt lat="42.607223130762577056884765625" lon="-0.42226175777614116668701171875">
        <ele>1174.800048828125</ele>
        <time>2020-08-19T07:01:55.000Z</time>
      </trkpt>
      <trkpt lat="42.6072574965655803680419921875" lon="-0.4222797788679599761962890625">
        <ele>1174.800048828125</ele>
        <time>2020-08-19T07:01:57.000Z</time>
      </trkpt>
      <trkpt lat="42.6073718257248401641845703125" lon="-0.42230886407196521759033203125">
        <ele>1175.800048828125</ele>
        <time>2020-08-19T07:02:04.000Z</time>
      </trkpt>
      <trkpt lat="42.6074040122330188751220703125" lon="-0.422306768596172332763671875">
        <ele>1176.4000244140625</ele>
        <time>2020-08-19T07:02:06.000Z</time>
      </trkpt>
      <trkpt lat="42.60743678547441959381103515625" lon="-0.42230509221553802490234375">
        <ele>1176.800048828125</ele>
        <time>2020-08-19T07:02:08.000Z</time>
      </trkpt>
      <trkpt lat="42.6075421459972858428955078125" lon="-0.42229511775076389312744140625">
        <ele>1177.199951171875</ele>
        <time>2020-08-19T07:02:14.000Z</time>
      </trkpt>
      <trkpt lat="42.60762722231447696685791015625" lon="-0.4223015718162059783935546875">
        <ele>1178</ele>
        <time>2020-08-19T07:02:19.000Z</time>
      </trkpt>
      <trkpt lat="42.60765622369945049285888671875" lon="-0.42230308055877685546875">
        <ele>1178.5999755859375</ele>
        <time>2020-08-19T07:02:21.000Z</time>
      </trkpt>
      <trkpt lat="42.60770299471914768218994140625" lon="-0.42229344137012958526611328125">
        <ele>1179</ele>
        <time>2020-08-19T07:02:24.000Z</time>
      </trkpt>
      <trkpt lat="42.6077486760914325714111328125" lon="-0.42227164842188358306884765625">
        <ele>1179.5999755859375</ele>
        <time>2020-08-19T07:02:27.000Z</time>
      </trkpt>
      <trkpt lat="42.60781179182231426239013671875" lon="-0.42220794595777988433837890625">
        <ele>1180.199951171875</ele>
        <time>2020-08-19T07:02:32.000Z</time>
      </trkpt>
      <trkpt lat="42.60783157311379909515380859375" lon="-0.42217944748699665069580078125">
        <ele>1180.4000244140625</ele>
        <time>2020-08-19T07:02:34.000Z</time>
      </trkpt>
      <trkpt lat="42.60787314735352993011474609375" lon="-0.422057993710041046142578125">
        <ele>1181.199951171875</ele>
        <time>2020-08-19T07:02:41.000Z</time>
      </trkpt>
      <trkpt lat="42.6078707166016101837158203125" lon="-0.4219481907784938812255859375">
        <ele>1182</ele>
        <time>2020-08-19T07:02:47.000Z</time>
      </trkpt>
      <trkpt lat="42.6078613288700580596923828125" lon="-0.42188440449535846710205078125">
        <ele>1182.4000244140625</ele>
        <time>2020-08-19T07:02:50.000Z</time>
      </trkpt>
      <trkpt lat="42.60784230194985866546630859375" lon="-0.42182237841188907623291015625">
        <ele>1183.199951171875</ele>
        <time>2020-08-19T07:02:53.000Z</time>
      </trkpt>
      <trkpt lat="42.607834674417972564697265625" lon="-0.421803183853626251220703125">
        <ele>1183.4000244140625</ele>
        <time>2020-08-19T07:02:54.000Z</time>
      </trkpt>
      <trkpt lat="42.60778144933283329010009765625" lon="-0.4217379726469516754150390625">
        <ele>1184.4000244140625</ele>
        <time>2020-08-19T07:02:59.000Z</time>
      </trkpt>
      <trkpt lat="42.60776971466839313507080078125" lon="-0.42172933928668498992919921875">
        <ele>1184.5999755859375</ele>
        <time>2020-08-19T07:03:00.000Z</time>
      </trkpt>
      <trkpt lat="42.60774783790111541748046875" lon="-0.42171710170805454254150390625">
        <ele>1185.4000244140625</ele>
        <time>2020-08-19T07:03:02.000Z</time>
      </trkpt>
      <trkpt lat="42.60769461281597614288330078125" lon="-0.4217036068439483642578125">
        <ele>1185.800048828125</ele>
        <time>2020-08-19T07:03:06.000Z</time>
      </trkpt>
      <trkpt lat="42.6076544634997844696044921875" lon="-0.42169623076915740966796875">
        <ele>1186.5999755859375</ele>
        <time>2020-08-19T07:03:09.000Z</time>
      </trkpt>
      <trkpt lat="42.60758514516055583953857421875" lon="-0.4216910339891910552978515625">
        <ele>1187.5999755859375</ele>
        <time>2020-08-19T07:03:14.000Z</time>
      </trkpt>
      <trkpt lat="42.6075723208487033843994140625" lon="-0.42169488966464996337890625">
        <ele>1187.800048828125</ele>
        <time>2020-08-19T07:03:15.000Z</time>
      </trkpt>
      <trkpt lat="42.60754558257758617401123046875" lon="-0.4216933809220790863037109375">
        <ele>1188</ele>
        <time>2020-08-19T07:03:17.000Z</time>
      </trkpt>
      <trkpt lat="42.60751507245004177093505859375" lon="-0.42169933207333087921142578125">
        <ele>1188.199951171875</ele>
        <time>2020-08-19T07:03:19.000Z</time>
      </trkpt>
      <trkpt lat="42.6074306666851043701171875" lon="-0.42171827517449855804443359375">
        <ele>1188.800048828125</ele>
        <time>2020-08-19T07:03:24.000Z</time>
      </trkpt>
      <trkpt lat="42.6073865778744220733642578125" lon="-0.42172439396381378173828125">
        <ele>1188.800048828125</ele>
        <time>2020-08-19T07:03:27.000Z</time>
      </trkpt>
      <trkpt lat="42.6072871685028076171875" lon="-0.4217228852212429046630859375">
        <ele>1190</ele>
        <time>2020-08-19T07:03:33.000Z</time>
      </trkpt>
      <trkpt lat="42.607243917882442474365234375" lon="-0.42172766290605068206787109375">
        <ele>1190.4000244140625</ele>
        <time>2020-08-19T07:03:36.000Z</time>
      </trkpt>
      <trkpt lat="42.60717191733419895172119140625" lon="-0.42171207256615161895751953125">
        <ele>1191.199951171875</ele>
        <time>2020-08-19T07:03:42.000Z</time>
      </trkpt>
      <trkpt lat="42.607148699462413787841796875" lon="-0.42170117609202861785888671875">
        <ele>1191.5999755859375</ele>
        <time>2020-08-19T07:03:44.000Z</time>
      </trkpt>
      <trkpt lat="42.607121877372264862060546875" lon="-0.42168684303760528564453125">
        <ele>1192.199951171875</ele>
        <time>2020-08-19T07:03:46.000Z</time>
      </trkpt>
      <trkpt lat="42.6070712506771087646484375" lon="-0.42162104509770870208740234375">
        <ele>1192.800048828125</ele>
        <time>2020-08-19T07:03:51.000Z</time>
      </trkpt>
      <trkpt lat="42.60706429369747638702392578125" lon="-0.42155231349170207977294921875">
        <ele>1193.199951171875</ele>
        <time>2020-08-19T07:03:55.000Z</time>
      </trkpt>
      <trkpt lat="42.607082314789295196533203125" lon="-0.421498753130435943603515625">
        <ele>1193.800048828125</ele>
        <time>2020-08-19T07:03:58.000Z</time>
      </trkpt>
      <trkpt lat="42.60714844800531864166259765625" lon="-0.421436391770839691162109375">
        <ele>1194</ele>
        <time>2020-08-19T07:04:04.000Z</time>
      </trkpt>
      <trkpt lat="42.60722388513386249542236328125" lon="-0.42135014198720455169677734375">
        <ele>1195.199951171875</ele>
        <time>2020-08-19T07:04:11.000Z</time>
      </trkpt>
      <trkpt lat="42.60731172747910022735595703125" lon="-0.4212836734950542449951171875">
        <ele>1195.800048828125</ele>
        <time>2020-08-19T07:04:18.000Z</time>
      </trkpt>
      <trkpt lat="42.607419602572917938232421875" lon="-0.42121745645999908447265625">
        <ele>1195.800048828125</ele>
        <time>2020-08-19T07:04:26.000Z</time>
      </trkpt>
      <trkpt lat="42.60745011270046234130859375" lon="-0.42121150530874729156494140625">
        <ele>1196</ele>
        <time>2020-08-19T07:04:28.000Z</time>
      </trkpt>
      <trkpt lat="42.6075226999819278717041015625" lon="-0.42120446451008319854736328125">
        <ele>1196.4000244140625</ele>
        <time>2020-08-19T07:04:33.000Z</time>
      </trkpt>
      <trkpt lat="42.60759335942566394805908203125" lon="-0.421207733452320098876953125">
        <ele>1196.5999755859375</ele>
        <time>2020-08-19T07:04:39.000Z</time>
      </trkpt>
      <trkpt lat="42.60769478045403957366943359375" lon="-0.4212206415832042694091796875">
        <ele>1197</ele>
        <time>2020-08-19T07:04:45.000Z</time>
      </trkpt>
      <trkpt lat="42.60772797279059886932373046875" lon="-0.4212290234863758087158203125">
        <ele>1197.199951171875</ele>
        <time>2020-08-19T07:04:47.000Z</time>
      </trkpt>
      <trkpt lat="42.6078294776380062103271484375" lon="-0.421258695423603057861328125">
        <ele>1197</ele>
        <time>2020-08-19T07:04:53.000Z</time>
      </trkpt>
      <trkpt lat="42.60800071991980075836181640625" lon="-0.42131594382226467132568359375">
        <ele>1197.800048828125</ele>
        <time>2020-08-19T07:05:03.000Z</time>
      </trkpt>
      <trkpt lat="42.6080179028213024139404296875" lon="-0.4213208891451358795166015625">
        <ele>1198</ele>
        <time>2020-08-19T07:05:04.000Z</time>
      </trkpt>
      <trkpt lat="42.60815528221428394317626953125" lon="-0.42135986499488353729248046875">
        <ele>1198.5999755859375</ele>
        <time>2020-08-19T07:05:12.000Z</time>
      </trkpt>
      <trkpt lat="42.608249746263027191162109375" lon="-0.42139272205531597137451171875">
        <ele>1199</ele>
        <time>2020-08-19T07:05:17.000Z</time>
      </trkpt>
      <trkpt lat="42.60828469879925251007080078125" lon="-0.42140261270105838775634765625">
        <ele>1199.4000244140625</ele>
        <time>2020-08-19T07:05:19.000Z</time>
      </trkpt>
      <trkpt lat="42.60835125111043453216552734375" lon="-0.42142239399254322052001953125">
        <ele>1200</ele>
        <time>2020-08-19T07:05:23.000Z</time>
      </trkpt>
      <trkpt lat="42.6084507443010807037353515625" lon="-0.4214429296553134918212890625">
        <ele>1200.5999755859375</ele>
        <time>2020-08-19T07:05:29.000Z</time>
      </trkpt>
      <trkpt lat="42.60848318226635456085205078125" lon="-0.42144552804529666900634765625">
        <ele>1201.199951171875</ele>
        <time>2020-08-19T07:05:31.000Z</time>
      </trkpt>
      <trkpt lat="42.6085674203932285308837890625" lon="-0.42145038954913616180419921875">
        <ele>1202.199951171875</ele>
        <time>2020-08-19T07:05:36.000Z</time>
      </trkpt>
      <trkpt lat="42.60860187001526355743408203125" lon="-0.42145080864429473876953125">
        <ele>1202.199951171875</ele>
        <time>2020-08-19T07:05:38.000Z</time>
      </trkpt>
      <trkpt lat="42.60866607539355754852294921875" lon="-0.421444438397884368896484375">
        <ele>1203.4000244140625</ele>
        <time>2020-08-19T07:05:42.000Z</time>
      </trkpt>
      <trkpt lat="42.60870873928070068359375" lon="-0.42143681086599826812744140625">
        <ele>1203.800048828125</ele>
        <time>2020-08-19T07:05:45.000Z</time>
      </trkpt>
      <trkpt lat="42.60881393216550350189208984375" lon="-0.4213924705982208251953125">
        <ele>1204.199951171875</ele>
        <time>2020-08-19T07:05:52.000Z</time>
      </trkpt>
      <trkpt lat="42.608829103410243988037109375" lon="-0.42138576507568359375">
        <ele>1204.5999755859375</ele>
        <time>2020-08-19T07:05:53.000Z</time>
      </trkpt>
      <trkpt lat="42.60891728103160858154296875" lon="-0.4213312827050685882568359375">
        <ele>1205.199951171875</ele>
        <time>2020-08-19T07:05:59.000Z</time>
      </trkpt>
      <trkpt lat="42.608931027352809906005859375" lon="-0.42132147587835788726806640625">
        <ele>1205.5999755859375</ele>
        <time>2020-08-19T07:06:00.000Z</time>
      </trkpt>
      <trkpt lat="42.6090399920940399169921875" lon="-0.42125626467168331146240234375">
        <ele>1206.5999755859375</ele>
        <time>2020-08-19T07:06:07.000Z</time>
      </trkpt>
      <trkpt lat="42.6090569235384464263916015625" lon="-0.42124955914914608001708984375">
        <ele>1207</ele>
        <time>2020-08-19T07:06:08.000Z</time>
      </trkpt>
      <trkpt lat="42.609108388423919677734375" lon="-0.42121854610741138458251953125">
        <ele>1207.800048828125</ele>
        <time>2020-08-19T07:06:12.000Z</time>
      </trkpt>
      <trkpt lat="42.60914753191173076629638671875" lon="-0.42119775898754596710205078125">
        <ele>1208.199951171875</ele>
        <time>2020-08-19T07:06:15.000Z</time>
      </trkpt>
      <trkpt lat="42.6092304289340972900390625" lon="-0.421158783137798309326171875">
        <ele>1208.800048828125</ele>
        <time>2020-08-19T07:06:21.000Z</time>
      </trkpt>
      <trkpt lat="42.609258256852626800537109375" lon="-0.421150065958499908447265625">
        <ele>1209</ele>
        <time>2020-08-19T07:06:23.000Z</time>
      </trkpt>
      <trkpt lat="42.6093573309481143951416015625" lon="-0.42112357914447784423828125">
        <ele>1209.199951171875</ele>
        <time>2020-08-19T07:06:30.000Z</time>
      </trkpt>
      <trkpt lat="42.60939060710370540618896484375" lon="-0.42111008428037166595458984375">
        <ele>1209.199951171875</ele>
        <time>2020-08-19T07:06:33.000Z</time>
      </trkpt>
      <trkpt lat="42.60942011140286922454833984375" lon="-0.42110673151910305023193359375">
        <ele>1209.199951171875</ele>
        <time>2020-08-19T07:06:35.000Z</time>
      </trkpt>
      <trkpt lat="42.60949018411338329315185546875" lon="-0.421078987419605255126953125">
        <ele>1209.5999755859375</ele>
        <time>2020-08-19T07:06:40.000Z</time>
      </trkpt>
      <trkpt lat="42.6095051877200603485107421875" lon="-0.421074293553829193115234375">
        <ele>1209.5999755859375</ele>
        <time>2020-08-19T07:06:41.000Z</time>
      </trkpt>
      <trkpt lat="42.60951943695545196533203125" lon="-0.4210714437067508697509765625">
        <ele>1209.800048828125</ele>
        <time>2020-08-19T07:06:42.000Z</time>
      </trkpt>
      <trkpt lat="42.609616331756114959716796875" lon="-0.4210573621094226837158203125">
        <ele>1210.199951171875</ele>
        <time>2020-08-19T07:06:48.000Z</time>
      </trkpt>
      <trkpt lat="42.60977399535477161407470703125" lon="-0.4210271872580051422119140625">
        <ele>1210.800048828125</ele>
        <time>2020-08-19T07:06:57.000Z</time>
      </trkpt>
      <trkpt lat="42.60989360511302947998046875" lon="-0.421002544462680816650390625">
        <ele>1211.199951171875</ele>
        <time>2020-08-19T07:07:04.000Z</time>
      </trkpt>
      <trkpt lat="42.6100235246121883392333984375" lon="-0.420975051820278167724609375">
        <ele>1211.4000244140625</ele>
        <time>2020-08-19T07:07:12.000Z</time>
      </trkpt>
      <trkpt lat="42.610068619251251220703125" lon="-0.4209634847939014434814453125">
        <ele>1212</ele>
        <time>2020-08-19T07:07:15.000Z</time>
      </trkpt>
      <trkpt lat="42.6101100258529186248779296875" lon="-0.420946888625621795654296875">
        <ele>1212.199951171875</ele>
        <time>2020-08-19T07:07:18.000Z</time>
      </trkpt>
      <trkpt lat="42.61019795201718807220458984375" lon="-0.42092769406735897064208984375">
        <ele>1212</ele>
        <time>2020-08-19T07:07:24.000Z</time>
      </trkpt>
      <trkpt lat="42.61032284237444400787353515625" lon="-0.42086482979357242584228515625">
        <ele>1212</ele>
        <time>2020-08-19T07:07:32.000Z</time>
      </trkpt>
      <trkpt lat="42.61043197475373744964599609375" lon="-0.42081956751644611358642578125">
        <ele>1212.199951171875</ele>
        <time>2020-08-19T07:07:39.000Z</time>
      </trkpt>
      <trkpt lat="42.61053339578211307525634765625" lon="-0.42080163024365901947021484375">
        <ele>1212.199951171875</ele>
        <time>2020-08-19T07:07:45.000Z</time>
      </trkpt>
      <trkpt lat="42.61063364334404468536376953125" lon="-0.42079257778823375701904296875">
        <ele>1212.199951171875</ele>
        <time>2020-08-19T07:07:51.000Z</time>
      </trkpt>
      <trkpt lat="42.610754258930683135986328125" lon="-0.42081504128873348236083984375">
        <ele>1212.4000244140625</ele>
        <time>2020-08-19T07:07:58.000Z</time>
      </trkpt>
      <trkpt lat="42.6108741201460361480712890625" lon="-0.4208588786423206329345703125">
        <ele>1212.4000244140625</ele>
        <time>2020-08-19T07:08:05.000Z</time>
      </trkpt>
      <trkpt lat="42.61097294278442859649658203125" lon="-0.42089416645467281341552734375">
        <ele>1212.5999755859375</ele>
        <time>2020-08-19T07:08:11.000Z</time>
      </trkpt>
      <trkpt lat="42.610988281667232513427734375" lon="-0.420897267758846282958984375">
        <ele>1213</ele>
        <time>2020-08-19T07:08:12.000Z</time>
      </trkpt>
      <trkpt lat="42.6110186241567134857177734375" lon="-0.4209027998149394989013671875">
        <ele>1213.800048828125</ele>
        <time>2020-08-19T07:08:14.000Z</time>
      </trkpt>
      <trkpt lat="42.6111446879804134368896484375" lon="-0.42090229690074920654296875">
        <ele>1214.5999755859375</ele>
        <time>2020-08-19T07:08:22.000Z</time>
      </trkpt>
      <trkpt lat="42.61115952394902706146240234375" lon="-0.42089785449206829071044921875">
        <ele>1215</ele>
        <time>2020-08-19T07:08:23.000Z</time>
      </trkpt>
      <trkpt lat="42.61123730801045894622802734375" lon="-0.42088662274181842803955078125">
        <ele>1215.5999755859375</ele>
        <time>2020-08-19T07:08:28.000Z</time>
      </trkpt>
      <trkpt lat="42.61128365993499755859375" lon="-0.42087354697287082672119140625">
        <ele>1216.199951171875</ele>
        <time>2020-08-19T07:08:31.000Z</time>
      </trkpt>
      <trkpt lat="42.6113103143870830535888671875" lon="-0.42087337933480739593505859375">
        <ele>1216.4000244140625</ele>
        <time>2020-08-19T07:08:33.000Z</time>
      </trkpt>
      <trkpt lat="42.6113220490515232086181640625" lon="-0.42087706737220287322998046875">
        <ele>1216.5999755859375</ele>
        <time>2020-08-19T07:08:34.000Z</time>
      </trkpt>
      <trkpt lat="42.61136756278574466705322265625" lon="-0.4208828508853912353515625">
        <ele>1217.199951171875</ele>
        <time>2020-08-19T07:08:37.000Z</time>
      </trkpt>
      <trkpt lat="42.61142916977405548095703125" lon="-0.42089668102562427520751953125">
        <ele>1217.800048828125</ele>
        <time>2020-08-19T07:08:41.000Z</time>
      </trkpt>
      <trkpt lat="42.6114581711590290069580078125" lon="-0.4209061525762081146240234375">
        <ele>1218.4000244140625</ele>
        <time>2020-08-19T07:08:43.000Z</time>
      </trkpt>
      <trkpt lat="42.61156118474900722503662109375" lon="-0.4209497384727001190185546875">
        <ele>1219.4000244140625</ele>
        <time>2020-08-19T07:08:50.000Z</time>
      </trkpt>
      <trkpt lat="42.6115768589079380035400390625" lon="-0.420956276357173919677734375">
        <ele>1219.4000244140625</ele>
        <time>2020-08-19T07:08:51.000Z</time>
      </trkpt>
      <trkpt lat="42.61164533905684947967529296875" lon="-0.42098687030375003814697265625">
        <ele>1220.199951171875</ele>
        <time>2020-08-19T07:08:56.000Z</time>
      </trkpt>
      <trkpt lat="42.61165925301611423492431640625" lon="-0.420990474522113800048828125">
        <ele>1220.199951171875</ele>
        <time>2020-08-19T07:08:57.000Z</time>
      </trkpt>
      <trkpt lat="42.61171775870025157928466796875" lon="-0.421007908880710601806640625">
        <ele>1221.4000244140625</ele>
        <time>2020-08-19T07:09:01.000Z</time>
      </trkpt>
      <trkpt lat="42.61178934015333652496337890625" lon="-0.42099877260625362396240234375">
        <ele>1222.199951171875</ele>
        <time>2020-08-19T07:09:06.000Z</time>
      </trkpt>
      <trkpt lat="42.611815072596073150634765625" lon="-0.4209809191524982452392578125">
        <ele>1222.5999755859375</ele>
        <time>2020-08-19T07:09:08.000Z</time>
      </trkpt>
      <trkpt lat="42.61183711700141429901123046875" lon="-0.420937836170196533203125">
        <ele>1223.5999755859375</ele>
        <time>2020-08-19T07:09:11.000Z</time>
      </trkpt>
      <trkpt lat="42.6118407212197780609130859375" lon="-0.420920066535472869873046875">
        <ele>1223.800048828125</ele>
        <time>2020-08-19T07:09:12.000Z</time>
      </trkpt>
      <trkpt lat="42.61181934736669063568115234375" lon="-0.42083851061761379241943359375">
        <ele>1224.5999755859375</ele>
        <time>2020-08-19T07:09:17.000Z</time>
      </trkpt>
      <trkpt lat="42.6118038408458232879638671875" lon="-0.42080632410943508148193359375">
        <ele>1224.5999755859375</ele>
        <time>2020-08-19T07:09:19.000Z</time>
      </trkpt>
      <trkpt lat="42.6117357797920703887939453125" lon="-0.4207398556172847747802734375">
        <ele>1225.800048828125</ele>
        <time>2020-08-19T07:09:25.000Z</time>
      </trkpt>
      <trkpt lat="42.61171356774866580963134765625" lon="-0.42072200216352939605712890625">
        <ele>1226</ele>
        <time>2020-08-19T07:09:27.000Z</time>
      </trkpt>
      <trkpt lat="42.611668892204761505126953125" lon="-0.420683361589908599853515625">
        <ele>1226.800048828125</ele>
        <time>2020-08-19T07:09:31.000Z</time>
      </trkpt>
      <trkpt lat="42.6116013340651988983154296875" lon="-0.42062728665769100189208984375">
        <ele>1227.4000244140625</ele>
        <time>2020-08-19T07:09:37.000Z</time>
      </trkpt>
      <trkpt lat="42.61155263520777225494384765625" lon="-0.42059761472046375274658203125">
        <ele>1228</ele>
        <time>2020-08-19T07:09:41.000Z</time>
      </trkpt>
      <trkpt lat="42.6115148328244686126708984375" lon="-0.42057565413415431976318359375">
        <ele>1228.5999755859375</ele>
        <time>2020-08-19T07:09:44.000Z</time>
      </trkpt>
      <trkpt lat="42.611463367938995361328125" lon="-0.42054690420627593994140625">
        <ele>1229</ele>
        <time>2020-08-19T07:09:48.000Z</time>
      </trkpt>
      <trkpt lat="42.61138985864818096160888671875" lon="-0.4204964451491832733154296875">
        <ele>1229.5999755859375</ele>
        <time>2020-08-19T07:09:54.000Z</time>
      </trkpt>
      <trkpt lat="42.61135331355035305023193359375" lon="-0.4204672761261463165283203125">
        <ele>1230.199951171875</ele>
        <time>2020-08-19T07:09:57.000Z</time>
      </trkpt>
      <trkpt lat="42.61128290556371212005615234375" lon="-0.42040734551846981048583984375">
        <ele>1231</ele>
        <time>2020-08-19T07:10:03.000Z</time>
      </trkpt>
      <trkpt lat="42.611271254718303680419921875" lon="-0.42039661668241024017333984375">
        <ele>1231.199951171875</ele>
        <time>2020-08-19T07:10:04.000Z</time>
      </trkpt>
      <trkpt lat="42.6112107373774051666259765625" lon="-0.42035185731947422027587890625">
        <ele>1231.5999755859375</ele>
        <time>2020-08-19T07:10:09.000Z</time>
      </trkpt>
      <trkpt lat="42.611178047955036163330078125" lon="-0.42031430639326572418212890625">
        <ele>1231.800048828125</ele>
        <time>2020-08-19T07:10:12.000Z</time>
      </trkpt>
      <trkpt lat="42.61116036213934421539306640625" lon="-0.420243479311466217041015625">
        <ele>1232.4000244140625</ele>
        <time>2020-08-19T07:10:16.000Z</time>
      </trkpt>
      <trkpt lat="42.6111611165106296539306640625" lon="-0.420224033296108245849609375">
        <ele>1232.800048828125</ele>
        <time>2020-08-19T07:10:17.000Z</time>
      </trkpt>
      <trkpt lat="42.61119422502815723419189453125" lon="-0.42016544379293918609619140625">
        <ele>1233.4000244140625</ele>
        <time>2020-08-19T07:10:21.000Z</time>
      </trkpt>
      <trkpt lat="42.61122263967990875244140625" lon="-0.42015287093818187713623046875">
        <ele>1233.800048828125</ele>
        <time>2020-08-19T07:10:23.000Z</time>
      </trkpt>
      <trkpt lat="42.61124770157039165496826171875" lon="-0.420153625309467315673828125">
        <ele>1234.199951171875</ele>
        <time>2020-08-19T07:10:25.000Z</time>
      </trkpt>
      <trkpt lat="42.6112600229680538177490234375" lon="-0.42015806771814823150634765625">
        <ele>1234.5999755859375</ele>
        <time>2020-08-19T07:10:26.000Z</time>
      </trkpt>
      <trkpt lat="42.6112885214388370513916015625" lon="-0.4201789386570453643798828125">
        <ele>1235.199951171875</ele>
        <time>2020-08-19T07:10:29.000Z</time>
      </trkpt>
      <trkpt lat="42.61130168102681636810302734375" lon="-0.4201886616647243499755859375">
        <ele>1235.199951171875</ele>
        <time>2020-08-19T07:10:37.000Z</time>
      </trkpt>
      <trkpt lat="42.61130369268357753753662109375" lon="-0.42018857784569263458251953125">
        <ele>1235.5999755859375</ele>
        <time>2020-08-19T07:10:43.000Z</time>
      </trkpt>
      <trkpt lat="42.61130352504551410675048828125" lon="-0.42018857784569263458251953125">
        <ele>1235.4000244140625</ele>
        <time>2020-08-19T07:10:47.000Z</time>
      </trkpt>
      <trkpt lat="42.61130369268357753753662109375" lon="-0.42018824256956577301025390625">
        <ele>1235.4000244140625</ele>
        <time>2020-08-19T07:11:04.000Z</time>
      </trkpt>
      <trkpt lat="42.61129883117973804473876953125" lon="-0.4201893322169780731201171875">
        <ele>1235.4000244140625</ele>
        <time>2020-08-19T07:11:28.000Z</time>
      </trkpt>
      <trkpt lat="42.611301429569721221923828125" lon="-0.4201923497021198272705078125">
        <ele>1235.4000244140625</ele>
        <time>2020-08-19T07:11:43.000Z</time>
      </trkpt>
      <trkpt lat="42.6113300956785678863525390625" lon="-0.42023384012281894683837890625">
        <ele>1235.800048828125</ele>
        <time>2020-08-19T07:11:55.000Z</time>
      </trkpt>
      <trkpt lat="42.6113445125520229339599609375" lon="-0.42025110684335231781005859375">
        <ele>1236</ele>
        <time>2020-08-19T07:11:59.000Z</time>
      </trkpt>
      <trkpt lat="42.611345350742340087890625" lon="-0.4202523641288280487060546875">
        <ele>1236</ele>
        <time>2020-08-19T07:14:31.000Z</time>
      </trkpt>
      <trkpt lat="42.61134526692330837249755859375" lon="-0.420252867043018341064453125">
        <ele>1236</ele>
        <time>2020-08-19T07:14:33.000Z</time>
      </trkpt>
      <trkpt lat="42.6114015094935894012451171875" lon="-0.42029536329209804534912109375">
        <ele>1236.199951171875</ele>
        <time>2020-08-19T07:14:39.000Z</time>
      </trkpt>
      <trkpt lat="42.61152036488056182861328125" lon="-0.42035168968141078948974609375">
        <ele>1236.5999755859375</ele>
        <time>2020-08-19T07:14:48.000Z</time>
      </trkpt>
      <trkpt lat="42.6115966401994228363037109375" lon="-0.42037524282932281494140625">
        <ele>1237</ele>
        <time>2020-08-19T07:14:53.000Z</time>
      </trkpt>
      <trkpt lat="42.61167836375534534454345703125" lon="-0.420393012464046478271484375">
        <ele>1237</ele>
        <time>2020-08-19T07:14:58.000Z</time>
      </trkpt>
      <trkpt lat="42.6118075288832187652587890625" lon="-0.42042293585836887359619140625">
        <ele>1237</ele>
        <time>2020-08-19T07:15:06.000Z</time>
      </trkpt>
      <trkpt lat="42.611933089792728424072265625" lon="-0.420449674129486083984375">
        <ele>1237.5999755859375</ele>
        <time>2020-08-19T07:15:14.000Z</time>
      </trkpt>
      <trkpt lat="42.6120301522314548492431640625" lon="-0.42045881040394306182861328125">
        <ele>1237.800048828125</ele>
        <time>2020-08-19T07:15:20.000Z</time>
      </trkpt>
      <trkpt lat="42.61205856688320636749267578125" lon="-0.420466102659702301025390625">
        <ele>1238</ele>
        <time>2020-08-19T07:15:22.000Z</time>
      </trkpt>
      <trkpt lat="42.6121300645172595977783203125" lon="-0.4204716347157955169677734375">
        <ele>1239</ele>
        <time>2020-08-19T07:15:27.000Z</time>
      </trkpt>
      <trkpt lat="42.6121713034808635711669921875" lon="-0.42047222144901752471923828125">
        <ele>1239.4000244140625</ele>
        <time>2020-08-19T07:15:30.000Z</time>
      </trkpt>
      <trkpt lat="42.6121862232685089111328125" lon="-0.4204753227531909942626953125">
        <ele>1239.4000244140625</ele>
        <time>2020-08-19T07:15:31.000Z</time>
      </trkpt>
      <trkpt lat="42.612222097814083099365234375" lon="-0.420470796525478363037109375">
        <ele>1239.800048828125</ele>
        <time>2020-08-19T07:15:34.000Z</time>
      </trkpt>
      <trkpt lat="42.612275071442127227783203125" lon="-0.42045545764267444610595703125">
        <ele>1240</ele>
        <time>2020-08-19T07:15:38.000Z</time>
      </trkpt>
      <trkpt lat="42.6123050786554813385009765625" lon="-0.42045445181429386138916015625">
        <ele>1240.4000244140625</ele>
        <time>2020-08-19T07:15:40.000Z</time>
      </trkpt>
      <trkpt lat="42.612362243235111236572265625" lon="-0.42044439353048801422119140625">
        <ele>1241</ele>
        <time>2020-08-19T07:15:44.000Z</time>
      </trkpt>
      <trkpt lat="42.612388394773006439208984375" lon="-0.42043869383633136749267578125">
        <ele>1241</ele>
        <time>2020-08-19T07:15:46.000Z</time>
      </trkpt>
      <trkpt lat="42.61247833259403705596923828125" lon="-0.42041891254484653472900390625">
        <ele>1241.800048828125</ele>
        <time>2020-08-19T07:15:53.000Z</time>
      </trkpt>
      <trkpt lat="42.61248922906816005706787109375" lon="-0.4204188287258148193359375">
        <ele>1242</ele>
        <time>2020-08-19T07:15:54.000Z</time>
      </trkpt>
      <trkpt lat="42.61254974640905857086181640625" lon="-0.42041170410811901092529296875">
        <ele>1242.800048828125</ele>
        <time>2020-08-19T07:15:59.000Z</time>
      </trkpt>
      <trkpt lat="42.612573467195034027099609375" lon="-0.42040533386170864105224609375">
        <ele>1243.199951171875</ele>
        <time>2020-08-19T07:16:01.000Z</time>
      </trkpt>
      <trkpt lat="42.6126286201179027557373046875" lon="-0.4203992150723934173583984375">
        <ele>1243.5999755859375</ele>
        <time>2020-08-19T07:16:05.000Z</time>
      </trkpt>
      <trkpt lat="42.6126862876117229461669921875" lon="-0.42039561085402965545654296875">
        <ele>1244.199951171875</ele>
        <time>2020-08-19T07:16:09.000Z</time>
      </trkpt>
      <trkpt lat="42.61272928677499294281005859375" lon="-0.4203941859304904937744140625">
        <ele>1245</ele>
        <time>2020-08-19T07:16:12.000Z</time>
      </trkpt>
      <trkpt lat="42.61275677941739559173583984375" lon="-0.42039544321596622467041015625">
        <ele>1245.4000244140625</ele>
        <time>2020-08-19T07:16:14.000Z</time>
      </trkpt>
      <trkpt lat="42.61282450519502162933349609375" lon="-0.420399717986583709716796875">
        <ele>1246</ele>
        <time>2020-08-19T07:16:19.000Z</time>
      </trkpt>
      <trkpt lat="42.61286406777799129486083984375" lon="-0.4204008914530277252197265625">
        <ele>1246.199951171875</ele>
        <time>2020-08-19T07:16:22.000Z</time>
      </trkpt>
      <trkpt lat="42.6129310391843318939208984375" lon="-0.42040181346237659454345703125">
        <ele>1246.800048828125</ele>
        <time>2020-08-19T07:16:27.000Z</time>
      </trkpt>
      <trkpt lat="42.61296833865344524383544921875" lon="-0.42039929889142513275146484375">
        <ele>1247.4000244140625</ele>
        <time>2020-08-19T07:16:30.000Z</time>
      </trkpt>
      <trkpt lat="42.61299465782940387725830078125" lon="-0.42039829306304454803466796875">
        <ele>1247.800048828125</ele>
        <time>2020-08-19T07:16:32.000Z</time>
      </trkpt>
      <trkpt lat="42.613108567893505096435546875" lon="-0.42039259336888790130615234375">
        <ele>1248.4000244140625</ele>
        <time>2020-08-19T07:16:40.000Z</time>
      </trkpt>
      <trkpt lat="42.61312298476696014404296875" lon="-0.4203921742737293243408203125">
        <ele>1248.5999755859375</ele>
        <time>2020-08-19T07:16:41.000Z</time>
      </trkpt>
      <trkpt lat="42.61318442411720752716064453125" lon="-0.42039494030177593231201171875">
        <ele>1249.800048828125</ele>
        <time>2020-08-19T07:16:45.000Z</time>
      </trkpt>
      <trkpt lat="42.61319984681904315948486328125" lon="-0.4203973710536956787109375">
        <ele>1249.800048828125</ele>
        <time>2020-08-19T07:16:46.000Z</time>
      </trkpt>
      <trkpt lat="42.61325416155159473419189453125" lon="-0.4204015620052814483642578125">
        <ele>1250.5999755859375</ele>
        <time>2020-08-19T07:16:50.000Z</time>
      </trkpt>
      <trkpt lat="42.613299004733562469482421875" lon="-0.4203992150723934173583984375">
        <ele>1251</ele>
        <time>2020-08-19T07:16:53.000Z</time>
      </trkpt>
      <trkpt lat="42.6133494637906551361083984375" lon="-0.4203938506543636322021484375">
        <ele>1251.800048828125</ele>
        <time>2020-08-19T07:16:57.000Z</time>
      </trkpt>
      <trkpt lat="42.613401599228382110595703125" lon="-0.42038328945636749267578125">
        <ele>1252.4000244140625</ele>
        <time>2020-08-19T07:17:01.000Z</time>
      </trkpt>
      <trkpt lat="42.613427080214023590087890625" lon="-0.420378260314464569091796875">
        <ele>1252.800048828125</ele>
        <time>2020-08-19T07:17:03.000Z</time>
      </trkpt>
      <trkpt lat="42.6134922914206981658935546875" lon="-0.42036862112581729888916015625">
        <ele>1254</ele>
        <time>2020-08-19T07:17:08.000Z</time>
      </trkpt>
      <trkpt lat="42.61358977295458316802978515625" lon="-0.4203683696687221527099609375">
        <ele>1255</ele>
        <time>2020-08-19T07:17:15.000Z</time>
      </trkpt>
      <trkpt lat="42.61360284872353076934814453125" lon="-0.42036476545035839080810546875">
        <ele>1255.199951171875</ele>
        <time>2020-08-19T07:17:16.000Z</time>
      </trkpt>
      <trkpt lat="42.61367090977728366851806640625" lon="-0.4203532822430133819580078125">
        <ele>1256.199951171875</ele>
        <time>2020-08-19T07:17:21.000Z</time>
      </trkpt>
      <trkpt lat="42.61368247680366039276123046875" lon="-0.4203512705862522125244140625">
        <ele>1256.199951171875</ele>
        <time>2020-08-19T07:17:22.000Z</time>
      </trkpt>
      <trkpt lat="42.61374684982001781463623046875" lon="-0.42035135440528392791748046875">
        <ele>1256.800048828125</ele>
        <time>2020-08-19T07:17:27.000Z</time>
      </trkpt>
      <trkpt lat="42.61377199552953243255615234375" lon="-0.42035051621496677398681640625">
        <ele>1257.4000244140625</ele>
        <time>2020-08-19T07:17:29.000Z</time>
      </trkpt>
      <trkpt lat="42.6138362847268581390380859375" lon="-0.420352779328823089599609375">
        <ele>1257.5999755859375</ele>
        <time>2020-08-19T07:17:34.000Z</time>
      </trkpt>
      <trkpt lat="42.61390878818929195404052734375" lon="-0.42035470716655254364013671875">
        <ele>1258.199951171875</ele>
        <time>2020-08-19T07:17:39.000Z</time>
      </trkpt>
      <trkpt lat="42.6139231212437152862548828125" lon="-0.42035336606204509735107421875">
        <ele>1258.199951171875</ele>
        <time>2020-08-19T07:17:40.000Z</time>
      </trkpt>
      <trkpt lat="42.6139516197144985198974609375" lon="-0.42035303078591823577880859375">
        <ele>1258.5999755859375</ele>
        <time>2020-08-19T07:17:42.000Z</time>
      </trkpt>
      <trkpt lat="42.61401440016925334930419921875" lon="-0.420351438224315643310546875">
        <ele>1259.199951171875</ele>
        <time>2020-08-19T07:17:47.000Z</time>
      </trkpt>
      <trkpt lat="42.614028565585613250732421875" lon="-0.42035110294818878173828125">
        <ele>1259.4000244140625</ele>
        <time>2020-08-19T07:17:48.000Z</time>
      </trkpt>
      <trkpt lat="42.61412956751883029937744140625" lon="-0.42035822756588459014892578125">
        <ele>1260.199951171875</ele>
        <time>2020-08-19T07:17:55.000Z</time>
      </trkpt>
      <trkpt lat="42.61419720947742462158203125" lon="-0.42036392726004123687744140625">
        <ele>1260.199951171875</ele>
        <time>2020-08-19T07:18:00.000Z</time>
      </trkpt>
      <trkpt lat="42.61422411538660526275634765625" lon="-0.42036761529743671417236328125">
        <ele>1260.5999755859375</ele>
        <time>2020-08-19T07:18:02.000Z</time>
      </trkpt>
      <trkpt lat="42.61429318226873874664306640625" lon="-0.4203703813254833221435546875">
        <ele>1261.4000244140625</ele>
        <time>2020-08-19T07:18:07.000Z</time>
      </trkpt>
      <trkpt lat="42.6143427193164825439453125" lon="-0.4203770868480205535888671875">
        <ele>1262</ele>
        <time>2020-08-19T07:18:11.000Z</time>
      </trkpt>
      <trkpt lat="42.61436895467340946197509765625" lon="-0.42037926614284515380859375">
        <ele>1262.199951171875</ele>
        <time>2020-08-19T07:18:13.000Z</time>
      </trkpt>
      <trkpt lat="42.614379934966564178466796875" lon="-0.42037834413349628448486328125">
        <ele>1262.5999755859375</ele>
        <time>2020-08-19T07:18:14.000Z</time>
      </trkpt>
      <trkpt lat="42.61441153474152088165283203125" lon="-0.4203894920647144317626953125">
        <ele>1263.4000244140625</ele>
        <time>2020-08-19T07:18:17.000Z</time>
      </trkpt>
      <trkpt lat="42.61443902738392353057861328125" lon="-0.42039996944367885589599609375">
        <ele>1263.5999755859375</ele>
        <time>2020-08-19T07:18:19.000Z</time>
      </trkpt>
      <trkpt lat="42.61450298130512237548828125" lon="-0.42040265165269374847412109375">
        <ele>1263.800048828125</ele>
        <time>2020-08-19T07:18:24.000Z</time>
      </trkpt>
      <trkpt lat="42.61454430408775806427001953125" lon="-0.4204096086323261260986328125">
        <ele>1264.800048828125</ele>
        <time>2020-08-19T07:18:27.000Z</time>
      </trkpt>
      <trkpt lat="42.61461965739727020263671875" lon="-0.42042075656354427337646484375">
        <ele>1265.5999755859375</ele>
        <time>2020-08-19T07:18:32.000Z</time>
      </trkpt>
      <trkpt lat="42.61464656330645084381103515625" lon="-0.42042578570544719696044921875">
        <ele>1265.800048828125</ele>
        <time>2020-08-19T07:18:34.000Z</time>
      </trkpt>
      <trkpt lat="42.61472384445369243621826171875" lon="-0.42042754590511322021484375">
        <ele>1266.5999755859375</ele>
        <time>2020-08-19T07:18:40.000Z</time>
      </trkpt>
      <trkpt lat="42.6147512532770633697509765625" lon="-0.42042997665703296661376953125">
        <ele>1267</ele>
        <time>2020-08-19T07:18:42.000Z</time>
      </trkpt>
      <trkpt lat="42.614821158349514007568359375" lon="-0.42043559253215789794921875">
        <ele>1267.5999755859375</ele>
        <time>2020-08-19T07:18:47.000Z</time>
      </trkpt>
      <trkpt lat="42.614878825843334197998046875" lon="-0.42044791392982006072998046875">
        <ele>1268</ele>
        <time>2020-08-19T07:18:51.000Z</time>
      </trkpt>
      <trkpt lat="42.614921070635318756103515625" lon="-0.4204491712152957916259765625">
        <ele>1268.199951171875</ele>
        <time>2020-08-19T07:18:54.000Z</time>
      </trkpt>
      <trkpt lat="42.61498770676553249359130859375" lon="-0.4204421304166316986083984375">
        <ele>1269.199951171875</ele>
        <time>2020-08-19T07:18:59.000Z</time>
      </trkpt>
      <trkpt lat="42.61509901843965053558349609375" lon="-0.4204495064914226531982421875">
        <ele>1270</ele>
        <time>2020-08-19T07:19:07.000Z</time>
      </trkpt>
      <trkpt lat="42.6151113398373126983642578125" lon="-0.42044992558658123016357421875">
        <ele>1270.199951171875</ele>
        <time>2020-08-19T07:19:08.000Z</time>
      </trkpt>
      <trkpt lat="42.61518736369907855987548828125" lon="-0.42044891975820064544677734375">
        <ele>1271</ele>
        <time>2020-08-19T07:19:14.000Z</time>
      </trkpt>
      <trkpt lat="42.6152669079601764678955078125" lon="-0.42044238187372684478759765625">
        <ele>1272</ele>
        <time>2020-08-19T07:19:21.000Z</time>
      </trkpt>
      <trkpt lat="42.61526741087436676025390625" lon="-0.42044087313115596771240234375">
        <ele>1272</ele>
        <time>2020-08-19T07:19:22.000Z</time>
      </trkpt>
      <trkpt lat="42.61555373668670654296875" lon="-0.42047289200127124786376953125">
        <ele>1271.5999755859375</ele>
        <time>2020-08-19T07:29:59.000Z</time>
      </trkpt>
      <trkpt lat="42.6155961491167545318603515625" lon="-0.4205167293548583984375">
        <ele>1271.4000244140625</ele>
        <time>2020-08-19T07:30:04.000Z</time>
      </trkpt>
      <trkpt lat="42.61570603586733341217041015625" lon="-0.42070741765201091766357421875">
        <ele>1270.800048828125</ele>
        <time>2020-08-19T07:30:09.000Z</time>
      </trkpt>
      <trkpt lat="42.6157983206212520599365234375" lon="-0.420889556407928466796875">
        <ele>1270.5999755859375</ele>
        <time>2020-08-19T07:30:14.000Z</time>
      </trkpt>
      <trkpt lat="42.61580863036215305328369140625" lon="-0.42090858332812786102294921875">
        <ele>1270.5999755859375</ele>
        <time>2020-08-19T07:30:15.000Z</time>
      </trkpt>
      <trkpt lat="42.615869902074337005615234375" lon="-0.42099089361727237701416015625">
        <ele>1270.5999755859375</ele>
        <time>2020-08-19T07:30:21.000Z</time>
      </trkpt>
      <trkpt lat="42.61593687348067760467529296875" lon="-0.421060882508754730224609375">
        <ele>1271.4000244140625</ele>
        <time>2020-08-19T07:30:27.000Z</time>
      </trkpt>
      <trkpt lat="42.6159595884382724761962890625" lon="-0.42108594439923763275146484375">
        <ele>1271.4000244140625</ele>
        <time>2020-08-19T07:30:29.000Z</time>
      </trkpt>
      <trkpt lat="42.6160621829330921173095703125" lon="-0.4212273471057415008544921875">
        <ele>1272</ele>
        <time>2020-08-19T07:30:38.000Z</time>
      </trkpt>
      <trkpt lat="42.6160942018032073974609375" lon="-0.42128141038119792938232421875">
        <ele>1272.4000244140625</ele>
        <time>2020-08-19T07:30:41.000Z</time>
      </trkpt>
      <trkpt lat="42.61616997420787811279296875" lon="-0.42139808647334575653076171875">
        <ele>1273.5999755859375</ele>
        <time>2020-08-19T07:30:48.000Z</time>
      </trkpt>
      <trkpt lat="42.61624365113675594329833984375" lon="-0.42149364016950130462646484375">
        <ele>1274.5999755859375</ele>
        <time>2020-08-19T07:30:55.000Z</time>
      </trkpt>
      <trkpt lat="42.61634708382189273834228515625" lon="-0.42160226963460445404052734375">
        <ele>1275.5999755859375</ele>
        <time>2020-08-19T07:31:04.000Z</time>
      </trkpt>
      <trkpt lat="42.61635965667665004730224609375" lon="-0.42161266319453716278076171875">
        <ele>1275.5999755859375</ele>
        <time>2020-08-19T07:31:05.000Z</time>
      </trkpt>
      <trkpt lat="42.61642905883491039276123046875" lon="-0.42168759740889072418212890625">
        <ele>1275.5999755859375</ele>
        <time>2020-08-19T07:31:10.000Z</time>
      </trkpt>
      <trkpt lat="42.61650684289634227752685546875" lon="-0.421807877719402313232421875">
        <ele>1275.4000244140625</ele>
        <time>2020-08-19T07:31:15.000Z</time>
      </trkpt>
      <trkpt lat="42.6165687851607799530029296875" lon="-0.42190670035779476165771484375">
        <ele>1275.199951171875</ele>
        <time>2020-08-19T07:31:21.000Z</time>
      </trkpt>
      <trkpt lat="42.61665268801152706146240234375" lon="-0.42204282246530055999755859375">
        <ele>1276.199951171875</ele>
        <time>2020-08-19T07:31:29.000Z</time>
      </trkpt>
      <trkpt lat="42.6166640035808086395263671875" lon="-0.42206126265227794647216796875">
        <ele>1276.5999755859375</ele>
        <time>2020-08-19T07:31:30.000Z</time>
      </trkpt>
      <trkpt lat="42.61672644875943660736083984375" lon="-0.42216561734676361083984375">
        <ele>1277.199951171875</ele>
        <time>2020-08-19T07:31:35.000Z</time>
      </trkpt>
      <trkpt lat="42.61675058864057064056396484375" lon="-0.42220576666295528411865234375">
        <ele>1278</ele>
        <time>2020-08-19T07:31:37.000Z</time>
      </trkpt>
      <trkpt lat="42.616792581975460052490234375" lon="-0.4222794435918331146240234375">
        <ele>1279.4000244140625</ele>
        <time>2020-08-19T07:31:41.000Z</time>
      </trkpt>
      <trkpt lat="42.6168358325958251953125" lon="-0.422371812164783477783203125">
        <ele>1280.4000244140625</ele>
        <time>2020-08-19T07:31:46.000Z</time>
      </trkpt>
      <trkpt lat="42.61686575599014759063720703125" lon="-0.42242403142154216766357421875">
        <ele>1281.199951171875</ele>
        <time>2020-08-19T07:31:49.000Z</time>
      </trkpt>
      <trkpt lat="42.61687413789331912994384765625" lon="-0.42244129814207553863525390625">
        <ele>1281.5999755859375</ele>
        <time>2020-08-19T07:31:50.000Z</time>
      </trkpt>
      <trkpt lat="42.6169020496308803558349609375" lon="-0.42248505167663097381591796875">
        <ele>1282.800048828125</ele>
        <time>2020-08-19T07:31:53.000Z</time>
      </trkpt>
      <trkpt lat="42.6169271953403949737548828125" lon="-0.4225309006869792938232421875">
        <ele>1283.4000244140625</ele>
        <time>2020-08-19T07:31:56.000Z</time>
      </trkpt>
      <trkpt lat="42.6169429533183574676513671875" lon="-0.4225573875010013580322265625">
        <ele>1284</ele>
        <time>2020-08-19T07:31:58.000Z</time>
      </trkpt>
      <trkpt lat="42.6169922389090061187744140625" lon="-0.4226348362863063812255859375">
        <ele>1284.4000244140625</ele>
        <time>2020-08-19T07:32:04.000Z</time>
      </trkpt>
      <trkpt lat="42.6170398481190204620361328125" lon="-0.4226918332278728485107421875">
        <ele>1285</ele>
        <time>2020-08-19T07:32:09.000Z</time>
      </trkpt>
      <trkpt lat="42.617074213922023773193359375" lon="-0.42272846214473247528076171875">
        <ele>1285</ele>
        <time>2020-08-19T07:32:12.000Z</time>
      </trkpt>
      <trkpt lat="42.6171987690031528472900390625" lon="-0.4228651709854602813720703125">
        <ele>1284.800048828125</ele>
        <time>2020-08-19T07:32:21.000Z</time>
      </trkpt>
      <trkpt lat="42.6172909699380397796630859375" lon="-0.42302300222218036651611328125">
        <ele>1284.5999755859375</ele>
        <time>2020-08-19T07:32:26.000Z</time>
      </trkpt>
      <trkpt lat="42.6174039579927921295166015625" lon="-0.4232778958976268768310546875">
        <ele>1283.800048828125</ele>
        <time>2020-08-19T07:32:32.000Z</time>
      </trkpt>
      <trkpt lat="42.61749356053769588470458984375" lon="-0.42340588755905628204345703125">
        <ele>1284</ele>
        <time>2020-08-19T07:32:38.000Z</time>
      </trkpt>
      <trkpt lat="42.6175568439066410064697265625" lon="-0.42348526418209075927734375">
        <ele>1284.800048828125</ele>
        <time>2020-08-19T07:32:43.000Z</time>
      </trkpt>
      <trkpt lat="42.61756715364754199981689453125" lon="-0.4234951548278331756591796875">
        <ele>1285.199951171875</ele>
        <time>2020-08-19T07:32:44.000Z</time>
      </trkpt>
      <trkpt lat="42.6175855100154876708984375" lon="-0.423523820936679840087890625">
        <ele>1285.5999755859375</ele>
        <time>2020-08-19T07:32:46.000Z</time>
      </trkpt>
      <trkpt lat="42.6176027767360210418701171875" lon="-0.42354955337941646575927734375">
        <ele>1285.800048828125</ele>
        <time>2020-08-19T07:32:48.000Z</time>
      </trkpt>
      <trkpt lat="42.61764510534703731536865234375" lon="-0.423620045185089111328125">
        <ele>1286.199951171875</ele>
        <time>2020-08-19T07:32:52.000Z</time>
      </trkpt>
      <trkpt lat="42.61772967875003814697265625" lon="-0.4236964881420135498046875">
        <ele>1286.199951171875</ele>
        <time>2020-08-19T07:32:56.000Z</time>
      </trkpt>
      <trkpt lat="42.61783353053033351898193359375" lon="-0.42372054420411586761474609375">
        <ele>1287</ele>
        <time>2020-08-19T07:33:02.000Z</time>
      </trkpt>
      <trkpt lat="42.61784777976572513580322265625" lon="-0.4237204603850841522216796875">
        <ele>1287.199951171875</ele>
        <time>2020-08-19T07:33:03.000Z</time>
      </trkpt>
      <trkpt lat="42.6179207861423492431640625" lon="-0.42371400631964206695556640625">
        <ele>1287.5999755859375</ele>
        <time>2020-08-19T07:33:08.000Z</time>
      </trkpt>
      <trkpt lat="42.61798608116805553436279296875" lon="-0.4237087257206439971923828125">
        <ele>1288.199951171875</ele>
        <time>2020-08-19T07:33:12.000Z</time>
      </trkpt>
      <trkpt lat="42.61804944835603237152099609375" lon="-0.4237234778702259063720703125">
        <ele>1288.4000244140625</ele>
        <time>2020-08-19T07:33:16.000Z</time>
      </trkpt>
      <trkpt lat="42.6181217841804027557373046875" lon="-0.4237640462815761566162109375">
        <ele>1288.800048828125</ele>
        <time>2020-08-19T07:33:21.000Z</time>
      </trkpt>
      <trkpt lat="42.61817450635135173797607421875" lon="-0.42381157167255878448486328125">
        <ele>1289</ele>
        <time>2020-08-19T07:33:25.000Z</time>
      </trkpt>
      <trkpt lat="42.61821121908724308013916015625" lon="-0.42385130189359188079833984375">
        <ele>1289.800048828125</ele>
        <time>2020-08-19T07:33:28.000Z</time>
      </trkpt>
      <trkpt lat="42.61822295375168323516845703125" lon="-0.4238656349480152130126953125">
        <ele>1290</ele>
        <time>2020-08-19T07:33:29.000Z</time>
      </trkpt>
      <trkpt lat="42.61826603673398494720458984375" lon="-0.4239303432404994964599609375">
        <ele>1291.4000244140625</ele>
        <time>2020-08-19T07:33:33.000Z</time>
      </trkpt>
      <trkpt lat="42.61827458627521991729736328125" lon="-0.4239474423229694366455078125">
        <ele>1291.800048828125</ele>
        <time>2020-08-19T07:33:34.000Z</time>
      </trkpt>
      <trkpt lat="42.6183016598224639892578125" lon="-0.4240022599697113037109375">
        <ele>1292.4000244140625</ele>
        <time>2020-08-19T07:33:37.000Z</time>
      </trkpt>
      <trkpt lat="42.61831381358206272125244140625" lon="-0.4240854084491729736328125">
        <ele>1292.800048828125</ele>
        <time>2020-08-19T07:33:41.000Z</time>
      </trkpt>
      <trkpt lat="42.6183021627366542816162109375" lon="-0.424158833920955657958984375">
        <ele>1293.5999755859375</ele>
        <time>2020-08-19T07:33:45.000Z</time>
      </trkpt>
      <trkpt lat="42.618285901844501495361328125" lon="-0.42420987971127033233642578125">
        <ele>1294.199951171875</ele>
        <time>2020-08-19T07:33:48.000Z</time>
      </trkpt>
      <trkpt lat="42.61824977584183216094970703125" lon="-0.424294956028461456298828125">
        <ele>1294.800048828125</ele>
        <time>2020-08-19T07:33:53.000Z</time>
      </trkpt>
      <trkpt lat="42.61823921464383602142333984375" lon="-0.424326471984386444091796875">
        <ele>1294.800048828125</ele>
        <time>2020-08-19T07:33:55.000Z</time>
      </trkpt>
      <trkpt lat="42.61825614608824253082275390625" lon="-0.4244647733867168426513671875">
        <ele>1295.800048828125</ele>
        <time>2020-08-19T07:34:01.000Z</time>
      </trkpt>
      <trkpt lat="42.61828162707388401031494140625" lon="-0.42452587746083736419677734375">
        <ele>1296.4000244140625</ele>
        <time>2020-08-19T07:34:04.000Z</time>
      </trkpt>
      <trkpt lat="42.61830626986920833587646484375" lon="-0.4245774261653423309326171875">
        <ele>1297</ele>
        <time>2020-08-19T07:34:07.000Z</time>
      </trkpt>
      <trkpt lat="42.61832177639007568359375" lon="-0.4246119596064090728759765625">
        <ele>1297.4000244140625</ele>
        <time>2020-08-19T07:34:09.000Z</time>
      </trkpt>
      <trkpt lat="42.61837005615234375" lon="-0.4247014783322811126708984375">
        <ele>1298</ele>
        <time>2020-08-19T07:34:15.000Z</time>
      </trkpt>
      <trkpt lat="42.61839042417705059051513671875" lon="-0.42474598623812198638916015625">
        <ele>1298.4000244140625</ele>
        <time>2020-08-19T07:34:18.000Z</time>
      </trkpt>
      <trkpt lat="42.618438787758350372314453125" lon="-0.42480398900806903839111328125">
        <ele>1299</ele>
        <time>2020-08-19T07:34:23.000Z</time>
      </trkpt>
      <trkpt lat="42.61847239919006824493408203125" lon="-0.42483634315431118011474609375">
        <ele>1300</ele>
        <time>2020-08-19T07:34:26.000Z</time>
      </trkpt>
      <trkpt lat="42.61854900978505611419677734375" lon="-0.4248981177806854248046875">
        <ele>1301.199951171875</ele>
        <time>2020-08-19T07:34:32.000Z</time>
      </trkpt>
      <trkpt lat="42.61857767589390277862548828125" lon="-0.4249160550534725189208984375">
        <ele>1302</ele>
        <time>2020-08-19T07:34:34.000Z</time>
      </trkpt>
      <trkpt lat="42.61860282160341739654541015625" lon="-0.42492695152759552001953125">
        <ele>1302.199951171875</ele>
        <time>2020-08-19T07:34:36.000Z</time>
      </trkpt>
      <trkpt lat="42.61867708526551723480224609375" lon="-0.42494975030422210693359375">
        <ele>1302.4000244140625</ele>
        <time>2020-08-19T07:34:41.000Z</time>
      </trkpt>
      <trkpt lat="42.6187764108180999755859375" lon="-0.42497782967984676361083984375">
        <ele>1302.800048828125</ele>
        <time>2020-08-19T07:34:48.000Z</time>
      </trkpt>
      <trkpt lat="42.61880465783178806304931640625" lon="-0.4249837808310985565185546875">
        <ele>1303.199951171875</ele>
        <time>2020-08-19T07:34:50.000Z</time>
      </trkpt>
      <trkpt lat="42.618861906230449676513671875" lon="-0.42499626986682415008544921875">
        <ele>1303.4000244140625</ele>
        <time>2020-08-19T07:34:54.000Z</time>
      </trkpt>
      <trkpt lat="42.61895067058503627777099609375" lon="-0.425008423626422882080078125">
        <ele>1304.4000244140625</ele>
        <time>2020-08-19T07:35:00.000Z</time>
      </trkpt>
      <trkpt lat="42.6189958490431308746337890625" lon="-0.42501269839704036712646484375">
        <ele>1305</ele>
        <time>2020-08-19T07:35:03.000Z</time>
      </trkpt>
      <trkpt lat="42.61904035694897174835205078125" lon="-0.42501169256865978240966796875">
        <ele>1305.5999755859375</ele>
        <time>2020-08-19T07:35:06.000Z</time>
      </trkpt>
      <trkpt lat="42.619087882339954376220703125" lon="-0.42501688934862613677978515625">
        <ele>1305.800048828125</ele>
        <time>2020-08-19T07:35:09.000Z</time>
      </trkpt>
      <trkpt lat="42.61914814822375774383544921875" lon="-0.42502594180405139923095703125">
        <ele>1306.5999755859375</ele>
        <time>2020-08-19T07:35:13.000Z</time>
      </trkpt>
      <trkpt lat="42.61920581571757793426513671875" lon="-0.42503583244979381561279296875">
        <ele>1307</ele>
        <time>2020-08-19T07:35:17.000Z</time>
      </trkpt>
      <trkpt lat="42.61931712739169597625732421875" lon="-0.42507606558501720428466796875">
        <ele>1307.199951171875</ele>
        <time>2020-08-19T07:35:24.000Z</time>
      </trkpt>
      <trkpt lat="42.6193643175065517425537109375" lon="-0.42510556988418102264404296875">
        <ele>1307.5999755859375</ele>
        <time>2020-08-19T07:35:27.000Z</time>
      </trkpt>
      <trkpt lat="42.6194469630718231201171875" lon="-0.4251423664391040802001953125">
        <ele>1307.800048828125</ele>
        <time>2020-08-19T07:35:32.000Z</time>
      </trkpt>
      <trkpt lat="42.61953254230320453643798828125" lon="-0.42516893707215785980224609375">
        <ele>1308.800048828125</ele>
        <time>2020-08-19T07:35:37.000Z</time>
      </trkpt>
      <trkpt lat="42.61954897083342075347900390625" lon="-0.42516960762441158294677734375">
        <ele>1309</ele>
        <time>2020-08-19T07:35:38.000Z</time>
      </trkpt>
      <trkpt lat="42.61966195888817310333251953125" lon="-0.425188131630420684814453125">
        <ele>1309.5999755859375</ele>
        <time>2020-08-19T07:35:45.000Z</time>
      </trkpt>
      <trkpt lat="42.61967721395194530487060546875" lon="-0.42518771253526210784912109375">
        <ele>1309.800048828125</ele>
        <time>2020-08-19T07:35:46.000Z</time>
      </trkpt>
      <trkpt lat="42.6197321154177188873291015625" lon="-0.425190813839435577392578125">
        <ele>1310.5999755859375</ele>
        <time>2020-08-19T07:35:50.000Z</time>
      </trkpt>
      <trkpt lat="42.61979162693023681640625" lon="-0.42519324459135532379150390625">
        <ele>1311.199951171875</ele>
        <time>2020-08-19T07:35:54.000Z</time>
      </trkpt>
      <trkpt lat="42.6198662258684635162353515625" lon="-0.42519408278167247772216796875">
        <ele>1311.800048828125</ele>
        <time>2020-08-19T07:35:59.000Z</time>
      </trkpt>
      <trkpt lat="42.61991056613624095916748046875" lon="-0.4251939989626407623291015625">
        <ele>1312.199951171875</ele>
        <time>2020-08-19T07:36:02.000Z</time>
      </trkpt>
      <trkpt lat="42.61999002657830715179443359375" lon="-0.4251990281045436859130859375">
        <ele>1312.800048828125</ele>
        <time>2020-08-19T07:36:07.000Z</time>
      </trkpt>
      <trkpt lat="42.62003763578832149505615234375" lon="-0.42520497925579547882080078125">
        <ele>1313.5999755859375</ele>
        <time>2020-08-19T07:36:10.000Z</time>
      </trkpt>
      <trkpt lat="42.62007468380033969879150390625" lon="-0.425210930407047271728515625">
        <ele>1314</ele>
        <time>2020-08-19T07:36:12.000Z</time>
      </trkpt>
      <trkpt lat="42.6201502047479152679443359375" lon="-0.42522710748016834259033203125">
        <ele>1315.199951171875</ele>
        <time>2020-08-19T07:36:16.000Z</time>
      </trkpt>
      <trkpt lat="42.62020359747111797332763671875" lon="-0.42523347772657871246337890625">
        <ele>1315.800048828125</ele>
        <time>2020-08-19T07:36:19.000Z</time>
      </trkpt>
      <trkpt lat="42.62022036127746105194091796875" lon="-0.42523632757365703582763671875">
        <ele>1316.199951171875</ele>
        <time>2020-08-19T07:36:20.000Z</time>
      </trkpt>
      <trkpt lat="42.6203077845275402069091796875" lon="-0.425251163542270660400390625">
        <ele>1317.199951171875</ele>
        <time>2020-08-19T07:36:26.000Z</time>
      </trkpt>
      <trkpt lat="42.62033854611217975616455078125" lon="-0.42525175027549266815185546875">
        <ele>1317.4000244140625</ele>
        <time>2020-08-19T07:36:28.000Z</time>
      </trkpt>
      <trkpt lat="42.62045077979564666748046875" lon="-0.42526164092123508453369140625">
        <ele>1318.4000244140625</ele>
        <time>2020-08-19T07:36:35.000Z</time>
      </trkpt>
      <trkpt lat="42.620535604655742645263671875" lon="-0.42529567144811153411865234375">
        <ele>1319.4000244140625</ele>
        <time>2020-08-19T07:36:41.000Z</time>
      </trkpt>
      <trkpt lat="42.620540298521518707275390625" lon="-0.42529751546680927276611328125">
        <ele>1319.5999755859375</ele>
        <time>2020-08-19T07:36:42.000Z</time>
      </trkpt>
      <trkpt lat="42.62054306454956531524658203125" lon="-0.42529382742941379547119140625">
        <ele>1319.800048828125</ele>
        <time>2020-08-19T07:36:46.000Z</time>
      </trkpt>
      <trkpt lat="42.6205428130924701690673828125" lon="-0.42529332451522350311279296875">
        <ele>1319.5999755859375</ele>
        <time>2020-08-19T07:36:55.000Z</time>
      </trkpt>
      <trkpt lat="42.62054239399731159210205078125" lon="-0.42530388571321964263916015625">
        <ele>1319.199951171875</ele>
        <time>2020-08-19T07:40:52.000Z</time>
      </trkpt>
      <trkpt lat="42.6205686293542385101318359375" lon="-0.4253301210701465606689453125">
        <ele>1319.4000244140625</ele>
        <time>2020-08-19T07:40:57.000Z</time>
      </trkpt>
      <trkpt lat="42.62061464600265026092529296875" lon="-0.42542743496596813201904296875">
        <ele>1319.5999755859375</ele>
        <time>2020-08-19T07:41:04.000Z</time>
      </trkpt>
      <trkpt lat="42.620622105896472930908203125" lon="-0.42545945383608341217041015625">
        <ele>1320</ele>
        <time>2020-08-19T07:41:06.000Z</time>
      </trkpt>
      <trkpt lat="42.62059821747243404388427734375" lon="-0.42557160370051860809326171875">
        <ele>1320.800048828125</ele>
        <time>2020-08-19T07:41:13.000Z</time>
      </trkpt>
      <trkpt lat="42.620578519999980926513671875" lon="-0.42559750378131866455078125">
        <ele>1321.199951171875</ele>
        <time>2020-08-19T07:41:15.000Z</time>
      </trkpt>
      <trkpt lat="42.62052210979163646697998046875" lon="-0.42564435862004756927490234375">
        <ele>1322.199951171875</ele>
        <time>2020-08-19T07:41:20.000Z</time>
      </trkpt>
      <trkpt lat="42.62049905955791473388671875" lon="-0.4256583563983440399169921875">
        <ele>1322.199951171875</ele>
        <time>2020-08-19T07:41:22.000Z</time>
      </trkpt>
      <trkpt lat="42.62043795548379421234130859375" lon="-0.42568258009850978851318359375">
        <ele>1323.199951171875</ele>
        <time>2020-08-19T07:41:27.000Z</time>
      </trkpt>
      <trkpt lat="42.620378024876117706298828125" lon="-0.425712168216705322265625">
        <ele>1324.199951171875</ele>
        <time>2020-08-19T07:41:32.000Z</time>
      </trkpt>
      <trkpt lat="42.620365954935550689697265625" lon="-0.42571929283440113067626953125">
        <ele>1324.199951171875</ele>
        <time>2020-08-19T07:41:33.000Z</time>
      </trkpt>
      <trkpt lat="42.62025170959532260894775390625" lon="-0.4257859289646148681640625">
        <ele>1325.4000244140625</ele>
        <time>2020-08-19T07:41:43.000Z</time>
      </trkpt>
      <trkpt lat="42.62017979286611080169677734375" lon="-0.42587184347212314605712890625">
        <ele>1326.199951171875</ele>
        <time>2020-08-19T07:41:51.000Z</time>
      </trkpt>
      <trkpt lat="42.62015095911920070648193359375" lon="-0.42599086649715900421142578125">
        <ele>1327.4000244140625</ele>
        <time>2020-08-19T07:41:59.000Z</time>
      </trkpt>
      <trkpt lat="42.620153725147247314453125" lon="-0.426024310290813446044921875">
        <ele>1328</ele>
        <time>2020-08-19T07:42:01.000Z</time>
      </trkpt>
      <trkpt lat="42.62016755528748035430908203125" lon="-0.426073260605335235595703125">
        <ele>1328.4000244140625</ele>
        <time>2020-08-19T07:42:04.000Z</time>
      </trkpt>
      <trkpt lat="42.62019420973956584930419921875" lon="-0.42617040686309337615966796875">
        <ele>1329.4000244140625</ele>
        <time>2020-08-19T07:42:10.000Z</time>
      </trkpt>
      <trkpt lat="42.6202672161161899566650390625" lon="-0.42622111737728118896484375">
        <ele>1330</ele>
        <time>2020-08-19T07:42:17.000Z</time>
      </trkpt>
      <trkpt lat="42.62030904181301593780517578125" lon="-0.42623846791684627532958984375">
        <ele>1330.5999755859375</ele>
        <time>2020-08-19T07:42:20.000Z</time>
      </trkpt>
      <trkpt lat="42.6203750073909759521484375" lon="-0.426267720758914947509765625">
        <ele>1330.800048828125</ele>
        <time>2020-08-19T07:42:25.000Z</time>
      </trkpt>
      <trkpt lat="42.620479948818683624267578125" lon="-0.4263158328831195831298828125">
        <ele>1331.4000244140625</ele>
        <time>2020-08-19T07:42:33.000Z</time>
      </trkpt>
      <trkpt lat="42.62057005427777767181396484375" lon="-0.426332093775272369384765625">
        <ele>1332.5999755859375</ele>
        <time>2020-08-19T07:42:40.000Z</time>
      </trkpt>
      <trkpt lat="42.6205830462276935577392578125" lon="-0.4263325966894626617431640625">
        <ele>1332.5999755859375</ele>
        <time>2020-08-19T07:42:41.000Z</time>
      </trkpt>
      <trkpt lat="42.62067533098161220550537109375" lon="-0.42632429860532283782958984375">
        <ele>1333.5999755859375</ele>
        <time>2020-08-19T07:42:48.000Z</time>
      </trkpt>
      <trkpt lat="42.620687820017337799072265625" lon="-0.42631633579730987548828125">
        <ele>1333.5999755859375</ele>
        <time>2020-08-19T07:42:49.000Z</time>
      </trkpt>
      <trkpt lat="42.62076451443135738372802734375" lon="-0.4262933693826198577880859375">
        <ele>1334.4000244140625</ele>
        <time>2020-08-19T07:42:55.000Z</time>
      </trkpt>
      <trkpt lat="42.62086023576557636260986328125" lon="-0.4262839816510677337646484375">
        <ele>1334.800048828125</ele>
        <time>2020-08-19T07:43:02.000Z</time>
      </trkpt>
      <trkpt lat="42.620992921292781829833984375" lon="-0.42628280818462371826171875">
        <ele>1335.800048828125</ele>
        <time>2020-08-19T07:43:11.000Z</time>
      </trkpt>
      <trkpt lat="42.6210053265094757080078125" lon="-0.4262848198413848876953125">
        <ele>1335.800048828125</ele>
        <time>2020-08-19T07:43:12.000Z</time>
      </trkpt>
      <trkpt lat="42.62109442614018917083740234375" lon="-0.42630334384739398956298828125">
        <ele>1336.199951171875</ele>
        <time>2020-08-19T07:43:19.000Z</time>
      </trkpt>
      <trkpt lat="42.62118008919060230255126953125" lon="-0.4263409785926342010498046875">
        <ele>1336.800048828125</ele>
        <time>2020-08-19T07:43:26.000Z</time>
      </trkpt>
      <trkpt lat="42.6211912371218204498291015625" lon="-0.42634190060198307037353515625">
        <ele>1336.800048828125</ele>
        <time>2020-08-19T07:43:27.000Z</time>
      </trkpt>
      <trkpt lat="42.6213045604526996612548828125" lon="-0.4263664595782756805419921875">
        <ele>1337.4000244140625</ele>
        <time>2020-08-19T07:43:35.000Z</time>
      </trkpt>
      <trkpt lat="42.621377818286418914794921875" lon="-0.42637090198695659637451171875">
        <ele>1338</ele>
        <time>2020-08-19T07:43:40.000Z</time>
      </trkpt>
      <trkpt lat="42.621389217674732208251953125" lon="-0.426368974149227142333984375">
        <ele>1338.199951171875</ele>
        <time>2020-08-19T07:43:41.000Z</time>
      </trkpt>
      <trkpt lat="42.621425427496433258056640625" lon="-0.4263706505298614501953125">
        <ele>1339</ele>
        <time>2020-08-19T07:43:44.000Z</time>
      </trkpt>
      <trkpt lat="42.6214685104787349700927734375" lon="-0.4263711534440517425537109375">
        <ele>1339.199951171875</ele>
        <time>2020-08-19T07:43:47.000Z</time>
      </trkpt>
      <trkpt lat="42.62158376164734363555908203125" lon="-0.4263450019061565399169921875">
        <ele>1340</ele>
        <time>2020-08-19T07:43:55.000Z</time>
      </trkpt>
      <trkpt lat="42.6215980947017669677734375" lon="-0.42634307406842708587646484375">
        <ele>1340.199951171875</ele>
        <time>2020-08-19T07:43:56.000Z</time>
      </trkpt>
      <trkpt lat="42.62168803252279758453369140625" lon="-0.42631943710148334503173828125">
        <ele>1341</ele>
        <time>2020-08-19T07:44:02.000Z</time>
      </trkpt>
      <trkpt lat="42.6217340491712093353271484375" lon="-0.42632346041500568389892578125">
        <ele>1341.199951171875</ele>
        <time>2020-08-19T07:44:05.000Z</time>
      </trkpt>
      <trkpt lat="42.62175274081528186798095703125" lon="-0.4263352788984775543212890625">
        <ele>1342.199951171875</ele>
        <time>2020-08-19T07:44:09.000Z</time>
      </trkpt>
      <trkpt lat="42.6217534951865673065185546875" lon="-0.42633871547877788543701171875">
        <ele>1342.4000244140625</ele>
        <time>2020-08-19T07:44:10.000Z</time>
      </trkpt>
      <trkpt lat="42.62177042663097381591796875" lon="-0.42636729776859283447265625">
        <ele>1342.800048828125</ele>
        <time>2020-08-19T07:44:16.000Z</time>
      </trkpt>
      <trkpt lat="42.62180739082396030426025390625" lon="-0.42643041349947452545166015625">
        <ele>1343.4000244140625</ele>
        <time>2020-08-19T07:44:24.000Z</time>
      </trkpt>
      <trkpt lat="42.6218312792479991912841796875" lon="-0.426519177854061126708984375">
        <ele>1344.199951171875</ele>
        <time>2020-08-19T07:44:34.000Z</time>
      </trkpt>
      <trkpt lat="42.6218322850763797760009765625" lon="-0.42652764357626438140869140625">
        <ele>1344.199951171875</ele>
        <time>2020-08-19T07:44:35.000Z</time>
      </trkpt>
      <trkpt lat="42.62182666920125484466552734375" lon="-0.42660492472350597381591796875">
        <ele>1345.199951171875</ele>
        <time>2020-08-19T07:44:43.000Z</time>
      </trkpt>
      <trkpt lat="42.621825747191905975341796875" lon="-0.42661347426474094390869140625">
        <ele>1345.4000244140625</ele>
        <time>2020-08-19T07:44:44.000Z</time>
      </trkpt>
      <trkpt lat="42.62181174941360950469970703125" lon="-0.42666770517826080322265625">
        <ele>1346.4000244140625</ele>
        <time>2020-08-19T07:44:50.000Z</time>
      </trkpt>
      <trkpt lat="42.62180185876786708831787109375" lon="-0.4267024062573909759521484375">
        <ele>1346.800048828125</ele>
        <time>2020-08-19T07:44:54.000Z</time>
      </trkpt>
      <trkpt lat="42.621789537370204925537109375" lon="-0.42673735879361629486083984375">
        <ele>1347.4000244140625</ele>
        <time>2020-08-19T07:44:58.000Z</time>
      </trkpt>
      <trkpt lat="42.62177285738289356231689453125" lon="-0.42677708901464939117431640625">
        <ele>1348.199951171875</ele>
        <time>2020-08-19T07:45:03.000Z</time>
      </trkpt>
      <trkpt lat="42.62177017517387866973876953125" lon="-0.426784716546535491943359375">
        <ele>1348.4000244140625</ele>
        <time>2020-08-19T07:45:04.000Z</time>
      </trkpt>
      <trkpt lat="42.62176036834716796875" lon="-0.4268448986113071441650390625">
        <ele>1349</ele>
        <time>2020-08-19T07:45:11.000Z</time>
      </trkpt>
      <trkpt lat="42.62175626121461391448974609375" lon="-0.42687314562499523162841796875">
        <ele>1349.4000244140625</ele>
        <time>2020-08-19T07:45:14.000Z</time>
      </trkpt>
      <trkpt lat="42.62175743468105792999267578125" lon="-0.42694640345871448516845703125">
        <ele>1350.199951171875</ele>
        <time>2020-08-19T07:45:21.000Z</time>
      </trkpt>
      <trkpt lat="42.6217645592987537384033203125" lon="-0.42696450836956501007080078125">
        <ele>1350.5999755859375</ele>
        <time>2020-08-19T07:45:23.000Z</time>
      </trkpt>
      <trkpt lat="42.62179532088339328765869140625" lon="-0.42702309787273406982421875">
        <ele>1351.4000244140625</ele>
        <time>2020-08-19T07:45:31.000Z</time>
      </trkpt>
      <trkpt lat="42.62179582379758358001708984375" lon="-0.42702712118625640869140625">
        <ele>1351.4000244140625</ele>
        <time>2020-08-19T07:45:40.000Z</time>
      </trkpt>
      <trkpt lat="42.62181728146970272064208984375" lon="-0.42704849503934383392333984375">
        <ele>1351.5999755859375</ele>
        <time>2020-08-19T07:45:44.000Z</time>
      </trkpt>
      <trkpt lat="42.62183639220893383026123046875" lon="-0.4270651750266551971435546875">
        <ele>1351.800048828125</ele>
        <time>2020-08-19T07:45:46.000Z</time>
      </trkpt>
      <trkpt lat="42.62191903777420520782470703125" lon="-0.42710079811513423919677734375">
        <ele>1352.5999755859375</ele>
        <time>2020-08-19T07:45:53.000Z</time>
      </trkpt>
      <trkpt lat="42.62193127535283565521240234375" lon="-0.4271037317812442779541015625">
        <ele>1353</ele>
        <time>2020-08-19T07:45:54.000Z</time>
      </trkpt>
      <trkpt lat="42.62197083793580532073974609375" lon="-0.4271151311695575714111328125">
        <ele>1353.5999755859375</ele>
        <time>2020-08-19T07:45:57.000Z</time>
      </trkpt>
      <trkpt lat="42.62203135527670383453369140625" lon="-0.42715041898190975189208984375">
        <ele>1354.5999755859375</ele>
        <time>2020-08-19T07:46:02.000Z</time>
      </trkpt>
      <trkpt lat="42.6220408268272876739501953125" lon="-0.42716030962765216827392578125">
        <ele>1354.800048828125</ele>
        <time>2020-08-19T07:46:03.000Z</time>
      </trkpt>
      <trkpt lat="42.62208499945700168609619140625" lon="-0.4272316396236419677734375">
        <ele>1355.5999755859375</ele>
        <time>2020-08-19T07:46:08.000Z</time>
      </trkpt>
      <trkpt lat="42.62209321372210979461669921875" lon="-0.4272468946874141693115234375">
        <ele>1355.800048828125</ele>
        <time>2020-08-19T07:46:09.000Z</time>
      </trkpt>
      <trkpt lat="42.62211953289806842803955078125" lon="-0.4273461364209651947021484375">
        <ele>1356.800048828125</ele>
        <time>2020-08-19T07:46:15.000Z</time>
      </trkpt>
      <trkpt lat="42.6221264898777008056640625" lon="-0.42737874202430248260498046875">
        <ele>1357</ele>
        <time>2020-08-19T07:46:17.000Z</time>
      </trkpt>
      <trkpt lat="42.62212716042995452880859375" lon="-0.42746440507471561431884765625">
        <ele>1358</ele>
        <time>2020-08-19T07:46:22.000Z</time>
      </trkpt>
      <trkpt lat="42.622123472392559051513671875" lon="-0.4274832643568515777587890625">
        <ele>1358</ele>
        <time>2020-08-19T07:46:23.000Z</time>
      </trkpt>
      <trkpt lat="42.62211819179356098175048828125" lon="-0.42751721106469631195068359375">
        <ele>1358.4000244140625</ele>
        <time>2020-08-19T07:46:25.000Z</time>
      </trkpt>
      <trkpt lat="42.62210628949105739593505859375" lon="-0.42757906951010227203369140625">
        <ele>1359.199951171875</ele>
        <time>2020-08-19T07:46:29.000Z</time>
      </trkpt>
      <trkpt lat="42.62209438718855381011962890625" lon="-0.42762391269207000732421875">
        <ele>1360</ele>
        <time>2020-08-19T07:46:32.000Z</time>
      </trkpt>
      <trkpt lat="42.62208885513246059417724609375" lon="-0.42763824574649333953857421875">
        <ele>1360.199951171875</ele>
        <time>2020-08-19T07:46:33.000Z</time>
      </trkpt>
      <trkpt lat="42.62208466418087482452392578125" lon="-0.42765283025801181793212890625">
        <ele>1360.4000244140625</ele>
        <time>2020-08-19T07:46:34.000Z</time>
      </trkpt>
      <trkpt lat="42.62206278741359710693359375" lon="-0.42772851884365081787109375">
        <ele>1361.199951171875</ele>
        <time>2020-08-19T07:46:39.000Z</time>
      </trkpt>
      <trkpt lat="42.6220616139471530914306640625" lon="-0.42774234898388385772705078125">
        <ele>1361.4000244140625</ele>
        <time>2020-08-19T07:46:40.000Z</time>
      </trkpt>
      <trkpt lat="42.62204560451209545135498046875" lon="-0.42782046832144260406494140625">
        <ele>1362.5999755859375</ele>
        <time>2020-08-19T07:46:45.000Z</time>
      </trkpt>
      <trkpt lat="42.62204292230308055877685546875" lon="-0.42784058488905429840087890625">
        <ele>1362.800048828125</ele>
        <time>2020-08-19T07:46:46.000Z</time>
      </trkpt>
      <trkpt lat="42.62202163226902484893798828125" lon="-0.42791333980858325958251953125">
        <ele>1363.800048828125</ele>
        <time>2020-08-19T07:46:50.000Z</time>
      </trkpt>
      <trkpt lat="42.62201911769807338714599609375" lon="-0.4279861785471439361572265625">
        <ele>1364.800048828125</ele>
        <time>2020-08-19T07:46:54.000Z</time>
      </trkpt>
      <trkpt lat="42.6220475323498249053955078125" lon="-0.4280820675194263458251953125">
        <ele>1365.800048828125</ele>
        <time>2020-08-19T07:47:00.000Z</time>
      </trkpt>
      <trkpt lat="42.622051723301410675048828125" lon="-0.42809489183127880096435546875">
        <ele>1366</ele>
        <time>2020-08-19T07:47:01.000Z</time>
      </trkpt>
      <trkpt lat="42.622081898152828216552734375" lon="-0.428144931793212890625">
        <ele>1366.800048828125</ele>
        <time>2020-08-19T07:47:05.000Z</time>
      </trkpt>
      <trkpt lat="42.6221023499965667724609375" lon="-0.428190194070339202880859375">
        <ele>1367.199951171875</ele>
        <time>2020-08-19T07:47:08.000Z</time>
      </trkpt>
      <trkpt lat="42.62212984263896942138671875" lon="-0.42826370336115360260009765625">
        <ele>1368.199951171875</ele>
        <time>2020-08-19T07:47:13.000Z</time>
      </trkpt>
      <trkpt lat="42.6221367157995700836181640625" lon="-0.4283117316663265228271484375">
        <ele>1368.800048828125</ele>
        <time>2020-08-19T07:47:16.000Z</time>
      </trkpt>
      <trkpt lat="42.622132189571857452392578125" lon="-0.42836478911340236663818359375">
        <ele>1369.199951171875</ele>
        <time>2020-08-19T07:47:19.000Z</time>
      </trkpt>
      <trkpt lat="42.62209899723529815673828125" lon="-0.42844466865062713623046875">
        <ele>1370.4000244140625</ele>
        <time>2020-08-19T07:47:24.000Z</time>
      </trkpt>
      <trkpt lat="42.622038982808589935302734375" lon="-0.4285185970366001129150390625">
        <ele>1371.199951171875</ele>
        <time>2020-08-19T07:47:30.000Z</time>
      </trkpt>
      <trkpt lat="42.6220190338790416717529296875" lon="-0.42854181490838527679443359375">
        <ele>1371.5999755859375</ele>
        <time>2020-08-19T07:47:32.000Z</time>
      </trkpt>
      <trkpt lat="42.62200101278722286224365234375" lon="-0.42856494896113872528076171875">
        <ele>1372.199951171875</ele>
        <time>2020-08-19T07:47:34.000Z</time>
      </trkpt>
      <trkpt lat="42.621982991695404052734375" lon="-0.42865010909736156463623046875">
        <ele>1373</ele>
        <time>2020-08-19T07:47:39.000Z</time>
      </trkpt>
      <trkpt lat="42.62198475189507007598876953125" lon="-0.4286812059581279754638671875">
        <ele>1373.199951171875</ele>
        <time>2020-08-19T07:47:41.000Z</time>
      </trkpt>
      <trkpt lat="42.62199078686535358428955078125" lon="-0.42869352735579013824462890625">
        <ele>1373.4000244140625</ele>
        <time>2020-08-19T07:47:42.000Z</time>
      </trkpt>
      <trkpt lat="42.62201459147036075592041015625" lon="-0.428725965321063995361328125">
        <ele>1373.800048828125</ele>
        <time>2020-08-19T07:47:45.000Z</time>
      </trkpt>
      <trkpt lat="42.62204535305500030517578125" lon="-0.4287516139447689056396484375">
        <ele>1374.4000244140625</ele>
        <time>2020-08-19T07:47:48.000Z</time>
      </trkpt>
      <trkpt lat="42.622067146003246307373046875" lon="-0.4287700541317462921142578125">
        <ele>1374.800048828125</ele>
        <time>2020-08-19T07:47:52.000Z</time>
      </trkpt>
      <trkpt lat="42.62206773273646831512451171875" lon="-0.42877131141722202301025390625">
        <ele>1374.800048828125</ele>
        <time>2020-08-19T07:48:12.000Z</time>
      </trkpt>
      <trkpt lat="42.62206773273646831512451171875" lon="-0.4287712275981903076171875">
        <ele>1374.800048828125</ele>
        <time>2020-08-19T07:48:29.000Z</time>
      </trkpt>
      <trkpt lat="42.62206790037453174591064453125" lon="-0.42877147905528545379638671875">
        <ele>1375</ele>
        <time>2020-08-19T07:49:03.000Z</time>
      </trkpt>
      <trkpt lat="42.6220676489174365997314453125" lon="-0.42877198196947574615478515625">
        <ele>1375</ele>
        <time>2020-08-19T07:50:11.000Z</time>
      </trkpt>
      <trkpt lat="42.62207997031509876251220703125" lon="-0.4287760891020298004150390625">
        <ele>1374.800048828125</ele>
        <time>2020-08-19T07:50:14.000Z</time>
      </trkpt>
      <trkpt lat="42.62220653705298900604248046875" lon="-0.4287921823561191558837890625">
        <ele>1375</ele>
        <time>2020-08-19T07:50:22.000Z</time>
      </trkpt>
      <trkpt lat="42.62228163890540599822998046875" lon="-0.42878799140453338623046875">
        <ele>1376</ele>
        <time>2020-08-19T07:50:27.000Z</time>
      </trkpt>
      <trkpt lat="42.62232564389705657958984375" lon="-0.42879645712673664093017578125">
        <ele>1376.199951171875</ele>
        <time>2020-08-19T07:50:30.000Z</time>
      </trkpt>
      <trkpt lat="42.622352130711078643798828125" lon="-0.4288112930953502655029296875">
        <ele>1376.4000244140625</ele>
        <time>2020-08-19T07:50:32.000Z</time>
      </trkpt>
      <trkpt lat="42.6224183477461338043212890625" lon="-0.4288558848202228546142578125">
        <ele>1376.800048828125</ele>
        <time>2020-08-19T07:50:37.000Z</time>
      </trkpt>
      <trkpt lat="42.62244106270372867584228515625" lon="-0.42887893505394458770751953125">
        <ele>1377</ele>
        <time>2020-08-19T07:50:39.000Z</time>
      </trkpt>
      <trkpt lat="42.622487246990203857421875" lon="-0.428922437131404876708984375">
        <ele>1377.5999755859375</ele>
        <time>2020-08-19T07:50:43.000Z</time>
      </trkpt>
      <trkpt lat="42.6225890032947063446044921875" lon="-0.42900432832539081573486328125">
        <ele>1377.800048828125</ele>
        <time>2020-08-19T07:50:51.000Z</time>
      </trkpt>
      <trkpt lat="42.62261289171874523162841796875" lon="-0.429018996655941009521484375">
        <ele>1378</ele>
        <time>2020-08-19T07:50:53.000Z</time>
      </trkpt>
      <trkpt lat="42.62266100384294986724853515625" lon="-0.42905176989734172821044921875">
        <ele>1378.800048828125</ele>
        <time>2020-08-19T07:50:57.000Z</time>
      </trkpt>
      <trkpt lat="42.6227023266255855560302734375" lon="-0.42906736023724079132080078125">
        <ele>1379</ele>
        <time>2020-08-19T07:51:00.000Z</time>
      </trkpt>
      <trkpt lat="42.6227583177387714385986328125" lon="-0.4290930926799774169921875">
        <ele>1379.4000244140625</ele>
        <time>2020-08-19T07:51:04.000Z</time>
      </trkpt>
      <trkpt lat="42.6228364370763301849365234375" lon="-0.42911496944725513458251953125">
        <ele>1380.199951171875</ele>
        <time>2020-08-19T07:51:09.000Z</time>
      </trkpt>
      <trkpt lat="42.62286476790904998779296875" lon="-0.42912066914141178131103515625">
        <ele>1380.199951171875</ele>
        <time>2020-08-19T07:51:11.000Z</time>
      </trkpt>
      <trkpt lat="42.622934170067310333251953125" lon="-0.42913508601486682891845703125">
        <ele>1381.199951171875</ele>
        <time>2020-08-19T07:51:16.000Z</time>
      </trkpt>
      <trkpt lat="42.62295939959585666656494140625" lon="-0.429140366613864898681640625">
        <ele>1381.4000244140625</ele>
        <time>2020-08-19T07:51:18.000Z</time>
      </trkpt>
      <trkpt lat="42.62308479286730289459228515625" lon="-0.42920314706861972808837890625">
        <ele>1382.199951171875</ele>
        <time>2020-08-19T07:51:27.000Z</time>
      </trkpt>
      <trkpt lat="42.62320415116846561431884765625" lon="-0.42929383926093578338623046875">
        <ele>1382.5999755859375</ele>
        <time>2020-08-19T07:51:36.000Z</time>
      </trkpt>
      <trkpt lat="42.62324555777013301849365234375" lon="-0.4293346591293811798095703125">
        <ele>1383.199951171875</ele>
        <time>2020-08-19T07:51:40.000Z</time>
      </trkpt>
      <trkpt lat="42.62326785363256931304931640625" lon="-0.4293598048388957977294921875">
        <ele>1383.4000244140625</ele>
        <time>2020-08-19T07:51:42.000Z</time>
      </trkpt>
      <trkpt lat="42.62335016392171382904052734375" lon="-0.42944856919348239898681640625">
        <ele>1383.5999755859375</ele>
        <time>2020-08-19T07:51:49.000Z</time>
      </trkpt>
      <trkpt lat="42.62340850196778774261474609375" lon="-0.42952886782586574554443359375">
        <ele>1384.199951171875</ele>
        <time>2020-08-19T07:51:54.000Z</time>
      </trkpt>
      <trkpt lat="42.623427025973796844482421875" lon="-0.4295592941343784332275390625">
        <ele>1384.5999755859375</ele>
        <time>2020-08-19T07:51:56.000Z</time>
      </trkpt>
      <trkpt lat="42.62344638817012310028076171875" lon="-0.429590977728366851806640625">
        <ele>1385.4000244140625</ele>
        <time>2020-08-19T07:51:58.000Z</time>
      </trkpt>
      <trkpt lat="42.62349617667496204376220703125" lon="-0.429673455655574798583984375">
        <ele>1386.199951171875</ele>
        <time>2020-08-19T07:52:03.000Z</time>
      </trkpt>
      <trkpt lat="42.62352266348898410797119140625" lon="-0.42972274124622344970703125">
        <ele>1386.4000244140625</ele>
        <time>2020-08-19T07:52:06.000Z</time>
      </trkpt>
      <trkpt lat="42.6235646568238735198974609375" lon="-0.42978367768228054046630859375">
        <ele>1386.5999755859375</ele>
        <time>2020-08-19T07:52:10.000Z</time>
      </trkpt>
      <trkpt lat="42.6236303709447383880615234375" lon="-0.42988057248294353485107421875">
        <ele>1387.4000244140625</ele>
        <time>2020-08-19T07:52:16.000Z</time>
      </trkpt>
      <trkpt lat="42.62364260852336883544921875" lon="-0.429898090660572052001953125">
        <ele>1387.4000244140625</ele>
        <time>2020-08-19T07:52:17.000Z</time>
      </trkpt>
      <trkpt lat="42.62371729128062725067138671875" lon="-0.43001887388527393341064453125">
        <ele>1388.199951171875</ele>
        <time>2020-08-19T07:52:24.000Z</time>
      </trkpt>
      <trkpt lat="42.62372852303087711334228515625" lon="-0.4300345480442047119140625">
        <ele>1388.5999755859375</ele>
        <time>2020-08-19T07:52:25.000Z</time>
      </trkpt>
      <trkpt lat="42.62380345724523067474365234375" lon="-0.43018517084419727325439453125">
        <ele>1388.199951171875</ele>
        <time>2020-08-19T07:52:32.000Z</time>
      </trkpt>
      <trkpt lat="42.623822651803493499755859375" lon="-0.43022288940846920013427734375">
        <ele>1387.5999755859375</ele>
        <time>2020-08-19T07:52:36.000Z</time>
      </trkpt>
      <trkpt lat="42.6238234899938106536865234375" lon="-0.43023060075938701629638671875">
        <ele>1387.199951171875</ele>
        <time>2020-08-19T07:53:04.000Z</time>
      </trkpt>
      <trkpt lat="42.62382357381284236907958984375" lon="-0.43023110367357730865478515625">
        <ele>1387.5999755859375</ele>
        <time>2020-08-19T07:53:32.000Z</time>
      </trkpt>
      <trkpt lat="42.62383664958178997039794921875" lon="-0.43026915751397609710693359375">
        <ele>1387.4000244140625</ele>
        <time>2020-08-19T07:53:51.000Z</time>
      </trkpt>
      <trkpt lat="42.623887360095977783203125" lon="-0.43043176643550395965576171875">
        <ele>1386.199951171875</ele>
        <time>2020-08-19T07:53:55.000Z</time>
      </trkpt>
      <trkpt lat="42.62396874837577342987060546875" lon="-0.4307337664067745208740234375">
        <ele>1385.800048828125</ele>
        <time>2020-08-19T07:54:01.000Z</time>
      </trkpt>
      <trkpt lat="42.6240201294422149658203125" lon="-0.43091900646686553955078125">
        <ele>1385.4000244140625</ele>
        <time>2020-08-19T07:54:07.000Z</time>
      </trkpt>
      <trkpt lat="42.62410453520715236663818359375" lon="-0.43112955987453460693359375">
        <ele>1385.199951171875</ele>
        <time>2020-08-19T07:54:14.000Z</time>
      </trkpt>
      <trkpt lat="42.6241976581513881683349609375" lon="-0.4313810169696807861328125">
        <ele>1385</ele>
        <time>2020-08-19T07:54:21.000Z</time>
      </trkpt>
      <trkpt lat="42.624274604022502899169921875" lon="-0.431593246757984161376953125">
        <ele>1385</ele>
        <time>2020-08-19T07:54:27.000Z</time>
      </trkpt>
      <trkpt lat="42.62433755211532115936279296875" lon="-0.43178644962608814239501953125">
        <ele>1384.4000244140625</ele>
        <time>2020-08-19T07:54:33.000Z</time>
      </trkpt>
      <trkpt lat="42.62441500090062618255615234375" lon="-0.43199147097766399383544921875">
        <ele>1385</ele>
        <time>2020-08-19T07:54:41.000Z</time>
      </trkpt>
      <trkpt lat="42.62444333173334598541259765625" lon="-0.43205953203141689300537109375">
        <ele>1384.800048828125</ele>
        <time>2020-08-19T07:54:46.000Z</time>
      </trkpt>
      <trkpt lat="42.62444433756172657012939453125" lon="-0.4320617951452732086181640625">
        <ele>1385</ele>
        <time>2020-08-19T07:54:57.000Z</time>
      </trkpt>
      <trkpt lat="42.62444458901882171630859375" lon="-0.43206162750720977783203125">
        <ele>1385</ele>
        <time>2020-08-19T07:55:14.000Z</time>
      </trkpt>
      <trkpt lat="42.624444253742694854736328125" lon="-0.4320622980594635009765625">
        <ele>1385</ele>
        <time>2020-08-19T07:55:32.000Z</time>
      </trkpt>
      <trkpt lat="42.62445531785488128662109375" lon="-0.4320971667766571044921875">
        <ele>1385</ele>
        <time>2020-08-19T07:55:46.000Z</time>
      </trkpt>
      <trkpt lat="42.624461352825164794921875" lon="-0.43211602605879306793212890625">
        <ele>1385</ele>
        <time>2020-08-19T07:55:55.000Z</time>
      </trkpt>
      <trkpt lat="42.62447543442249298095703125" lon="-0.43215223588049411773681640625">
        <ele>1384.800048828125</ele>
        <time>2020-08-19T07:56:04.000Z</time>
      </trkpt>
      <trkpt lat="42.62449731118977069854736328125" lon="-0.43219967745244503021240234375">
        <ele>1385</ele>
        <time>2020-08-19T07:56:13.000Z</time>
      </trkpt>
      <trkpt lat="42.62457543052732944488525390625" lon="-0.432385168969631195068359375">
        <ele>1385</ele>
        <time>2020-08-19T07:56:20.000Z</time>
      </trkpt>
      <trkpt lat="42.62465204112231731414794921875" lon="-0.43257384561002254486083984375">
        <ele>1384</ele>
        <time>2020-08-19T07:56:24.000Z</time>
      </trkpt>
      <trkpt lat="42.62467349879443645477294921875" lon="-0.4326287470757961273193359375">
        <ele>1383.800048828125</ele>
        <time>2020-08-19T07:56:25.000Z</time>
      </trkpt>
      <trkpt lat="42.62472362257540225982666015625" lon="-0.4327598400413990020751953125">
        <ele>1383.5999755859375</ele>
        <time>2020-08-19T07:56:28.000Z</time>
      </trkpt>
      <trkpt lat="42.62480895034968852996826171875" lon="-0.43291591107845306396484375">
        <ele>1383.800048828125</ele>
        <time>2020-08-19T07:56:34.000Z</time>
      </trkpt>
      <trkpt lat="42.62488120235502719879150390625" lon="-0.433038286864757537841796875">
        <ele>1384.199951171875</ele>
        <time>2020-08-19T07:56:40.000Z</time>
      </trkpt>
      <trkpt lat="42.62494557537138462066650390625" lon="-0.4331353493034839630126953125">
        <ele>1384.5999755859375</ele>
        <time>2020-08-19T07:56:46.000Z</time>
      </trkpt>
      <trkpt lat="42.62496502138674259185791015625" lon="-0.4331688769161701202392578125">
        <ele>1384.5999755859375</ele>
        <time>2020-08-19T07:56:48.000Z</time>
      </trkpt>
      <trkpt lat="42.62504833750426769256591796875" lon="-0.43326719664037227630615234375">
        <ele>1384.5999755859375</ele>
        <time>2020-08-19T07:56:54.000Z</time>
      </trkpt>
      <trkpt lat="42.62508002109825611114501953125" lon="-0.4333033226430416107177734375">
        <ele>1384.5999755859375</ele>
        <time>2020-08-19T07:56:56.000Z</time>
      </trkpt>
      <trkpt lat="42.625168450176715850830078125" lon="-0.43340549804270267486572265625">
        <ele>1384.800048828125</ele>
        <time>2020-08-19T07:57:01.000Z</time>
      </trkpt>
      <trkpt lat="42.62531773187220096588134765625" lon="-0.4335926659405231475830078125">
        <ele>1383.800048828125</ele>
        <time>2020-08-19T07:57:09.000Z</time>
      </trkpt>
      <trkpt lat="42.62535444460809230804443359375" lon="-0.433649830520153045654296875">
        <ele>1383.800048828125</ele>
        <time>2020-08-19T07:57:14.000Z</time>
      </trkpt>
      <trkpt lat="42.625354863703250885009765625" lon="-0.43365175835788249969482421875">
        <ele>1383.5999755859375</ele>
        <time>2020-08-19T07:57:16.000Z</time>
      </trkpt>
      <trkpt lat="42.62538361363112926483154296875" lon="-0.43369702063500881195068359375">
        <ele>1383.800048828125</ele>
        <time>2020-08-19T07:57:30.000Z</time>
      </trkpt>
      <trkpt lat="42.62547514401376247406005859375" lon="-0.43382962234318256378173828125">
        <ele>1382.4000244140625</ele>
        <time>2020-08-19T07:57:36.000Z</time>
      </trkpt>
      <trkpt lat="42.6255048997700214385986328125" lon="-0.43386180885136127471923828125">
        <ele>1382</ele>
        <time>2020-08-19T07:57:38.000Z</time>
      </trkpt>
      <trkpt lat="42.62555644847452640533447265625" lon="-0.43393154628574848175048828125">
        <ele>1381.4000244140625</ele>
        <time>2020-08-19T07:57:42.000Z</time>
      </trkpt>
      <trkpt lat="42.62556667439639568328857421875" lon="-0.43394713662564754486083984375">
        <ele>1381.199951171875</ele>
        <time>2020-08-19T07:57:43.000Z</time>
      </trkpt>
      <trkpt lat="42.62565971352159976959228515625" lon="-0.43402232229709625244140625">
        <ele>1380.5999755859375</ele>
        <time>2020-08-19T07:57:49.000Z</time>
      </trkpt>
      <trkpt lat="42.6257781498134136199951171875" lon="-0.43407068587839603424072265625">
        <ele>1381</ele>
        <time>2020-08-19T07:57:55.000Z</time>
      </trkpt>
      <trkpt lat="42.62583824805915355682373046875" lon="-0.434096753597259521484375">
        <ele>1380</ele>
        <time>2020-08-19T07:57:58.000Z</time>
      </trkpt>
      <trkpt lat="42.62593497522175312042236328125" lon="-0.43413707055151462554931640625">
        <ele>1379.800048828125</ele>
        <time>2020-08-19T07:58:02.000Z</time>
      </trkpt>
      <trkpt lat="42.62607042677700519561767578125" lon="-0.43420529924333095550537109375">
        <ele>1379.199951171875</ele>
        <time>2020-08-19T07:58:08.000Z</time>
      </trkpt>
      <trkpt lat="42.6263035275042057037353515625" lon="-0.4343108274042606353759765625">
        <ele>1379.800048828125</ele>
        <time>2020-08-19T07:58:18.000Z</time>
      </trkpt>
      <trkpt lat="42.6265574991703033447265625" lon="-0.43442088179290294647216796875">
        <ele>1380.199951171875</ele>
        <time>2020-08-19T07:58:29.000Z</time>
      </trkpt>
      <trkpt lat="42.6266377978026866912841796875" lon="-0.4344549961388111114501953125">
        <ele>1380.800048828125</ele>
        <time>2020-08-19T07:58:33.000Z</time>
      </trkpt>
      <trkpt lat="42.626719772815704345703125" lon="-0.434491373598575592041015625">
        <ele>1381.4000244140625</ele>
        <time>2020-08-19T07:58:37.000Z</time>
      </trkpt>
      <trkpt lat="42.62680090963840484619140625" lon="-0.4345240630209445953369140625">
        <ele>1381.800048828125</ele>
        <time>2020-08-19T07:58:41.000Z</time>
      </trkpt>
      <trkpt lat="42.6269008219242095947265625" lon="-0.43456186540424823760986328125">
        <ele>1381.5999755859375</ele>
        <time>2020-08-19T07:58:46.000Z</time>
      </trkpt>
      <trkpt lat="42.62702059932053089141845703125" lon="-0.4346122406423091888427734375">
        <ele>1381.800048828125</ele>
        <time>2020-08-19T07:58:52.000Z</time>
      </trkpt>
      <trkpt lat="42.62713744305074214935302734375" lon="-0.434643924236297607421875">
        <ele>1381.800048828125</ele>
        <time>2020-08-19T07:58:59.000Z</time>
      </trkpt>
      <trkpt lat="42.62724372558295726776123046875" lon="-0.4346709139645099639892578125">
        <ele>1382</ele>
        <time>2020-08-19T07:59:06.000Z</time>
      </trkpt>
      <trkpt lat="42.6273619942367076873779296875" lon="-0.43474626727402210235595703125">
        <ele>1382</ele>
        <time>2020-08-19T07:59:13.000Z</time>
      </trkpt>
      <trkpt lat="42.62747892178595066070556640625" lon="-0.4347842372953891754150390625">
        <ele>1382.5999755859375</ele>
        <time>2020-08-19T07:59:20.000Z</time>
      </trkpt>
      <trkpt lat="42.6275132037699222564697265625" lon="-0.43479077517986297607421875">
        <ele>1382.800048828125</ele>
        <time>2020-08-19T07:59:22.000Z</time>
      </trkpt>
      <trkpt lat="42.6276060752570629119873046875" lon="-0.4348063655197620391845703125">
        <ele>1383.5999755859375</ele>
        <time>2020-08-19T07:59:28.000Z</time>
      </trkpt>
      <trkpt lat="42.6276218332350254058837890625" lon="-0.43480929918587207794189453125">
        <ele>1383.800048828125</ele>
        <time>2020-08-19T07:59:29.000Z</time>
      </trkpt>
      <trkpt lat="42.62772266753017902374267578125" lon="-0.43482639826834201812744140625">
        <ele>1384.800048828125</ele>
        <time>2020-08-19T07:59:36.000Z</time>
      </trkpt>
      <trkpt lat="42.6277371682226657867431640625" lon="-0.434825979173183441162109375">
        <ele>1385.199951171875</ele>
        <time>2020-08-19T07:59:37.000Z</time>
      </trkpt>
      <trkpt lat="42.6277827657759189605712890625" lon="-0.43483142741024494171142578125">
        <ele>1386</ele>
        <time>2020-08-19T07:59:40.000Z</time>
      </trkpt>
      <trkpt lat="42.627860717475414276123046875" lon="-0.434830673038959503173828125">
        <ele>1386.4000244140625</ele>
        <time>2020-08-19T07:59:45.000Z</time>
      </trkpt>
      <trkpt lat="42.6279913075268268585205078125" lon="-0.43483637273311614990234375">
        <ele>1387.199951171875</ele>
        <time>2020-08-19T07:59:53.000Z</time>
      </trkpt>
      <trkpt lat="42.6280219852924346923828125" lon="-0.43483813293278217315673828125">
        <ele>1387.4000244140625</ele>
        <time>2020-08-19T07:59:55.000Z</time>
      </trkpt>
      <trkpt lat="42.62809507548809051513671875" lon="-0.434846095740795135498046875">
        <ele>1387.800048828125</ele>
        <time>2020-08-19T08:00:01.000Z</time>
      </trkpt>
      <trkpt lat="42.6281498931348323822021484375" lon="-0.43484265916049480438232421875">
        <ele>1388.199951171875</ele>
        <time>2020-08-19T08:00:05.000Z</time>
      </trkpt>
      <trkpt lat="42.62816070578992366790771484375" lon="-0.43483863584697246551513671875">
        <ele>1388.4000244140625</ele>
        <time>2020-08-19T08:00:07.000Z</time>
      </trkpt>
      <trkpt lat="42.628163807094097137451171875" lon="-0.43484249152243137359619140625">
        <ele>1388.5999755859375</ele>
        <time>2020-08-19T08:00:14.000Z</time>
      </trkpt>
      <trkpt lat="42.6281696744263172149658203125" lon="-0.43484383262693881988525390625">
        <ele>1388.800048828125</ele>
        <time>2020-08-19T08:00:25.000Z</time>
      </trkpt>
      <trkpt lat="42.62816858477890491485595703125" lon="-0.4348449222743511199951171875">
        <ele>1388.800048828125</ele>
        <time>2020-08-19T08:00:54.000Z</time>
      </trkpt>
      <trkpt lat="42.6282021962106227874755859375" lon="-0.43485171161592006683349609375">
        <ele>1388.800048828125</ele>
        <time>2020-08-19T08:01:01.000Z</time>
      </trkpt>
      <trkpt lat="42.62821133248507976531982421875" lon="-0.43485707603394985198974609375">
        <ele>1389</ele>
        <time>2020-08-19T08:01:02.000Z</time>
      </trkpt>
      <trkpt lat="42.6282836683094501495361328125" lon="-0.4348767735064029693603515625">
        <ele>1389.199951171875</ele>
        <time>2020-08-19T08:01:09.000Z</time>
      </trkpt>
      <trkpt lat="42.6283373124897480010986328125" lon="-0.43488792143762111663818359375">
        <ele>1390.199951171875</ele>
        <time>2020-08-19T08:01:15.000Z</time>
      </trkpt>
      <trkpt lat="42.62836731970310211181640625" lon="-0.43488674797117710113525390625">
        <ele>1391.199951171875</ele>
        <time>2020-08-19T08:01:19.000Z</time>
      </trkpt>
      <trkpt lat="42.6283755339682102203369140625" lon="-0.4348866641521453857421875">
        <ele>1391.199951171875</ele>
        <time>2020-08-19T08:01:20.000Z</time>
      </trkpt>
      <trkpt lat="42.62844015844166278839111328125" lon="-0.43488465249538421630859375">
        <ele>1392</ele>
        <time>2020-08-19T08:01:28.000Z</time>
      </trkpt>
      <trkpt lat="42.62848810292780399322509765625" lon="-0.43488758616149425506591796875">
        <ele>1393.199951171875</ele>
        <time>2020-08-19T08:01:35.000Z</time>
      </trkpt>
      <trkpt lat="42.62850771658122539520263671875" lon="-0.4348858259618282318115234375">
        <ele>1393.800048828125</ele>
        <time>2020-08-19T08:01:38.000Z</time>
      </trkpt>
      <trkpt lat="42.62853118591010570526123046875" lon="-0.43488590978085994720458984375">
        <ele>1394.199951171875</ele>
        <time>2020-08-19T08:01:43.000Z</time>
      </trkpt>
      <trkpt lat="42.62856136076152324676513671875" lon="-0.43488859198987483978271484375">
        <ele>1394.800048828125</ele>
        <time>2020-08-19T08:01:48.000Z</time>
      </trkpt>
      <trkpt lat="42.62857192195951938629150390625" lon="-0.4348885081708431243896484375">
        <ele>1395.199951171875</ele>
        <time>2020-08-19T08:01:50.000Z</time>
      </trkpt>
      <trkpt lat="42.62861081399023532867431640625" lon="-0.43488322757184505462646484375">
        <ele>1396</ele>
        <time>2020-08-19T08:01:56.000Z</time>
      </trkpt>
      <trkpt lat="42.62862321920692920684814453125" lon="-0.434883646667003631591796875">
        <ele>1396.4000244140625</ele>
        <time>2020-08-19T08:01:58.000Z</time>
      </trkpt>
      <trkpt lat="42.628670744597911834716796875" lon="-0.43488121591508388519287109375">
        <ele>1397.199951171875</ele>
        <time>2020-08-19T08:02:06.000Z</time>
      </trkpt>
      <trkpt lat="42.6286779530346393585205078125" lon="-0.434881635010242462158203125">
        <ele>1397.4000244140625</ele>
        <time>2020-08-19T08:02:07.000Z</time>
      </trkpt>
      <trkpt lat="42.62872631661593914031982421875" lon="-0.434889681637287139892578125">
        <ele>1398.5999755859375</ele>
        <time>2020-08-19T08:02:15.000Z</time>
      </trkpt>
      <trkpt lat="42.628769986331462860107421875" lon="-0.43488943018019199371337890625">
        <ele>1399.5999755859375</ele>
        <time>2020-08-19T08:02:22.000Z</time>
      </trkpt>
      <trkpt lat="42.6287756860256195068359375" lon="-0.4348905198276042938232421875">
        <ele>1399.5999755859375</ele>
        <time>2020-08-19T08:02:23.000Z</time>
      </trkpt>
      <trkpt lat="42.62882706709206104278564453125" lon="-0.4348952136933803558349609375">
        <ele>1400.4000244140625</ele>
        <time>2020-08-19T08:02:32.000Z</time>
      </trkpt>
      <trkpt lat="42.62884768657386302947998046875" lon="-0.43490217067301273345947265625">
        <ele>1401</ele>
        <time>2020-08-19T08:02:37.000Z</time>
      </trkpt>
      <trkpt lat="42.6288791187107563018798828125" lon="-0.4349066130816936492919921875">
        <ele>1401.5999755859375</ele>
        <time>2020-08-19T08:02:43.000Z</time>
      </trkpt>
      <trkpt lat="42.62890434823930263519287109375" lon="-0.4349072836339473724365234375">
        <ele>1402</ele>
        <time>2020-08-19T08:02:48.000Z</time>
      </trkpt>
      <trkpt lat="42.628931589424610137939453125" lon="-0.434910468757152557373046875">
        <ele>1402.5999755859375</ele>
        <time>2020-08-19T08:02:53.000Z</time>
      </trkpt>
      <trkpt lat="42.6289652846753597259521484375" lon="-0.43491289950907230377197265625">
        <ele>1403.800048828125</ele>
        <time>2020-08-19T08:02:59.000Z</time>
      </trkpt>
      <trkpt lat="42.62899386696517467498779296875" lon="-0.4349166713654994964599609375">
        <ele>1404.800048828125</ele>
        <time>2020-08-19T08:03:05.000Z</time>
      </trkpt>
      <trkpt lat="42.6290078647434711456298828125" lon="-0.43491776101291179656982421875">
        <ele>1405</ele>
        <time>2020-08-19T08:03:08.000Z</time>
      </trkpt>
      <trkpt lat="42.62903912924230098724365234375" lon="-0.434921868145465850830078125">
        <ele>1405.5999755859375</ele>
        <time>2020-08-19T08:03:14.000Z</time>
      </trkpt>
      <trkpt lat="42.629058994352817535400390625" lon="-0.4349173419177532196044921875">
        <ele>1406</ele>
        <time>2020-08-19T08:03:18.000Z</time>
      </trkpt>
      <trkpt lat="42.62908590026199817657470703125" lon="-0.43491088785231113433837890625">
        <ele>1406.800048828125</ele>
        <time>2020-08-19T08:03:23.000Z</time>
      </trkpt>
      <trkpt lat="42.6291014067828655242919921875" lon="-0.4349134862422943115234375">
        <ele>1407</ele>
        <time>2020-08-19T08:03:27.000Z</time>
      </trkpt>
      <trkpt lat="42.62912697158753871917724609375" lon="-0.43491725809872150421142578125">
        <ele>1407.5999755859375</ele>
        <time>2020-08-19T08:03:33.000Z</time>
      </trkpt>
      <trkpt lat="42.62914675287902355194091796875" lon="-0.43491826392710208892822265625">
        <ele>1407.800048828125</ele>
        <time>2020-08-19T08:03:36.000Z</time>
      </trkpt>
      <trkpt lat="42.62917466461658477783203125" lon="-0.43492111377418041229248046875">
        <ele>1408.4000244140625</ele>
        <time>2020-08-19T08:03:41.000Z</time>
      </trkpt>
      <trkpt lat="42.62919754721224308013916015625" lon="-0.43492346070706844329833984375">
        <ele>1408.800048828125</ele>
        <time>2020-08-19T08:03:45.000Z</time>
      </trkpt>
      <trkpt lat="42.6292214356362819671630859375" lon="-0.434917844831943511962890625">
        <ele>1409.4000244140625</ele>
        <time>2020-08-19T08:03:49.000Z</time>
      </trkpt>
      <trkpt lat="42.62924306094646453857421875" lon="-0.4349237121641635894775390625">
        <ele>1409.800048828125</ele>
        <time>2020-08-19T08:03:53.000Z</time>
      </trkpt>
      <trkpt lat="42.629270218312740325927734375" lon="-0.43492815457284450531005859375">
        <ele>1410.5999755859375</ele>
        <time>2020-08-19T08:03:58.000Z</time>
      </trkpt>
      <trkpt lat="42.6292878203094005584716796875" lon="-0.43493351899087429046630859375">
        <ele>1411</ele>
        <time>2020-08-19T08:04:01.000Z</time>
      </trkpt>
      <trkpt lat="42.6293223537504673004150390625" lon="-0.43494307436048984527587890625">
        <ele>1411.5999755859375</ele>
        <time>2020-08-19T08:04:06.000Z</time>
      </trkpt>
      <trkpt lat="42.62932947836816310882568359375" lon="-0.434946678578853607177734375">
        <ele>1412</ele>
        <time>2020-08-19T08:04:14.000Z</time>
      </trkpt>
      <trkpt lat="42.62932947836816310882568359375" lon="-0.4349465109407901763916015625">
        <ele>1412</ele>
        <time>2020-08-19T08:04:17.000Z</time>
      </trkpt>
      <trkpt lat="42.62935529462993144989013671875" lon="-0.43495866470038890838623046875">
        <ele>1412.4000244140625</ele>
        <time>2020-08-19T08:04:30.000Z</time>
      </trkpt>
      <trkpt lat="42.62937976978719234466552734375" lon="-0.43501163832843303680419921875">
        <ele>1413.199951171875</ele>
        <time>2020-08-19T08:04:38.000Z</time>
      </trkpt>
      <trkpt lat="42.62938949279487133026123046875" lon="-0.4350762628018856048583984375">
        <ele>1414</ele>
        <time>2020-08-19T08:04:47.000Z</time>
      </trkpt>
      <trkpt lat="42.629401646554470062255859375" lon="-0.43511926196515560150146484375">
        <ele>1414.5999755859375</ele>
        <time>2020-08-19T08:04:54.000Z</time>
      </trkpt>
      <trkpt lat="42.62940994463860988616943359375" lon="-0.4351801984012126922607421875">
        <ele>1415</ele>
        <time>2020-08-19T08:05:01.000Z</time>
      </trkpt>
      <trkpt lat="42.629415057599544525146484375" lon="-0.4351989738643169403076171875">
        <ele>1415.4000244140625</ele>
        <time>2020-08-19T08:05:03.000Z</time>
      </trkpt>
      <trkpt lat="42.6294381916522979736328125" lon="-0.43527885340154170989990234375">
        <ele>1416.199951171875</ele>
        <time>2020-08-19T08:05:11.000Z</time>
      </trkpt>
      <trkpt lat="42.629442550241947174072265625" lon="-0.4352881573140621185302734375">
        <ele>1416.199951171875</ele>
        <time>2020-08-19T08:05:12.000Z</time>
      </trkpt>
      <trkpt lat="42.62945537455379962921142578125" lon="-0.43533350341022014617919921875">
        <ele>1416.800048828125</ele>
        <time>2020-08-19T08:05:17.000Z</time>
      </trkpt>
      <trkpt lat="42.6294728927314281463623046875" lon="-0.435397289693355560302734375">
        <ele>1417.199951171875</ele>
        <time>2020-08-19T08:05:24.000Z</time>
      </trkpt>
      <trkpt lat="42.62947968207299709320068359375" lon="-0.435410030186176300048828125">
        <ele>1417.4000244140625</ele>
        <time>2020-08-19T08:05:26.000Z</time>
      </trkpt>
      <trkpt lat="42.629479430615901947021484375" lon="-0.4354199208319187164306640625">
        <ele>1418</ele>
        <time>2020-08-19T08:05:29.000Z</time>
      </trkpt>
      <trkpt lat="42.62947775423526763916015625" lon="-0.43544146232306957244873046875">
        <ele>1418</ele>
        <time>2020-08-19T08:05:31.000Z</time>
      </trkpt>
      <trkpt lat="42.62947666458785533905029296875" lon="-0.4354765824973583221435546875">
        <ele>1418.199951171875</ele>
        <time>2020-08-19T08:05:34.000Z</time>
      </trkpt>
      <trkpt lat="42.62948580086231231689453125" lon="-0.43555025942623615264892578125">
        <ele>1418.800048828125</ele>
        <time>2020-08-19T08:05:41.000Z</time>
      </trkpt>
      <trkpt lat="42.62949711643159389495849609375" lon="-0.43560348451137542724609375">
        <ele>1419.199951171875</ele>
        <time>2020-08-19T08:05:47.000Z</time>
      </trkpt>
      <trkpt lat="42.629505582153797149658203125" lon="-0.43564128689467906951904296875">
        <ele>1419.5999755859375</ele>
        <time>2020-08-19T08:05:51.000Z</time>
      </trkpt>
      <trkpt lat="42.62951773591339588165283203125" lon="-0.43568135239183902740478515625">
        <ele>1420.199951171875</ele>
        <time>2020-08-19T08:05:55.000Z</time>
      </trkpt>
      <trkpt lat="42.62953651137650012969970703125" lon="-0.435741953551769256591796875">
        <ele>1421</ele>
        <time>2020-08-19T08:06:01.000Z</time>
      </trkpt>
      <trkpt lat="42.629541121423244476318359375" lon="-0.43576114811003208160400390625">
        <ele>1421.199951171875</ele>
        <time>2020-08-19T08:06:03.000Z</time>
      </trkpt>
      <trkpt lat="42.629553861916065216064453125" lon="-0.4358162172138690948486328125">
        <ele>1421.800048828125</ele>
        <time>2020-08-19T08:06:10.000Z</time>
      </trkpt>
      <trkpt lat="42.6295696198940277099609375" lon="-0.43584580533206462860107421875">
        <ele>1422.199951171875</ele>
        <time>2020-08-19T08:06:15.000Z</time>
      </trkpt>
      <trkpt lat="42.62958160601556301116943359375" lon="-0.43587128631770610809326171875">
        <ele>1422.5999755859375</ele>
        <time>2020-08-19T08:06:19.000Z</time>
      </trkpt>
      <trkpt lat="42.62959686107933521270751953125" lon="-0.43591202236711978912353515625">
        <ele>1423.4000244140625</ele>
        <time>2020-08-19T08:06:24.000Z</time>
      </trkpt>
      <trkpt lat="42.62961513362824916839599609375" lon="-0.43595443479716777801513671875">
        <ele>1424</ele>
        <time>2020-08-19T08:06:29.000Z</time>
      </trkpt>
      <trkpt lat="42.6296184025704860687255859375" lon="-0.43596088886260986328125">
        <ele>1424</ele>
        <time>2020-08-19T08:06:30.000Z</time>
      </trkpt>
      <trkpt lat="42.62963390909135341644287109375" lon="-0.4359892196953296661376953125">
        <ele>1424.4000244140625</ele>
        <time>2020-08-19T08:06:34.000Z</time>
      </trkpt>
      <trkpt lat="42.6296509243547916412353515625" lon="-0.4360287822782993316650390625">
        <ele>1425.4000244140625</ele>
        <time>2020-08-19T08:06:40.000Z</time>
      </trkpt>
      <trkpt lat="42.62966148555278778076171875" lon="-0.436045713722705841064453125">
        <ele>1425.5999755859375</ele>
        <time>2020-08-19T08:06:43.000Z</time>
      </trkpt>
      <trkpt lat="42.629682607948780059814453125" lon="-0.43609944172203540802001953125">
        <ele>1426.4000244140625</ele>
        <time>2020-08-19T08:06:50.000Z</time>
      </trkpt>
      <trkpt lat="42.6296985335648059844970703125" lon="-0.43612324632704257965087890625">
        <ele>1426.5999755859375</ele>
        <time>2020-08-19T08:06:55.000Z</time>
      </trkpt>
      <trkpt lat="42.6297038979828357696533203125" lon="-0.4361312091350555419921875">
        <ele>1426.5999755859375</ele>
        <time>2020-08-19T08:06:56.000Z</time>
      </trkpt>
      <trkpt lat="42.629736922681331634521484375" lon="-0.4361689276993274688720703125">
        <ele>1427.5999755859375</ele>
        <time>2020-08-19T08:07:02.000Z</time>
      </trkpt>
      <trkpt lat="42.62974538840353488922119140625" lon="-0.43618326075375080108642578125">
        <ele>1427.800048828125</ele>
        <time>2020-08-19T08:07:04.000Z</time>
      </trkpt>
      <trkpt lat="42.6297722943127155303955078125" lon="-0.436228774487972259521484375">
        <ele>1428.5999755859375</ele>
        <time>2020-08-19T08:07:10.000Z</time>
      </trkpt>
      <trkpt lat="42.6297743059694766998291015625" lon="-0.4362319596111774444580078125">
        <ele>1429</ele>
        <time>2020-08-19T08:07:13.000Z</time>
      </trkpt>
      <trkpt lat="42.62980003841221332550048828125" lon="-0.4362772218883037567138671875">
        <ele>1429.4000244140625</ele>
        <time>2020-08-19T08:07:20.000Z</time>
      </trkpt>
      <trkpt lat="42.62981076724827289581298828125" lon="-0.4362899623811244964599609375">
        <ele>1429.800048828125</ele>
        <time>2020-08-19T08:07:22.000Z</time>
      </trkpt>
      <trkpt lat="42.629840187728404998779296875" lon="-0.4363322071731090545654296875">
        <ele>1430.199951171875</ele>
        <time>2020-08-19T08:07:28.000Z</time>
      </trkpt>
      <trkpt lat="42.62985594570636749267578125" lon="-0.436354167759418487548828125">
        <ele>1430.800048828125</ele>
        <time>2020-08-19T08:07:31.000Z</time>
      </trkpt>
      <trkpt lat="42.62989743612706661224365234375" lon="-0.436408482491970062255859375">
        <ele>1431.5999755859375</ele>
        <time>2020-08-19T08:07:40.000Z</time>
      </trkpt>
      <trkpt lat="42.62990824878215789794921875" lon="-0.4364180378615856170654296875">
        <ele>1432</ele>
        <time>2020-08-19T08:07:42.000Z</time>
      </trkpt>
      <trkpt lat="42.6299587078392505645751953125" lon="-0.4364716820418834686279296875">
        <ele>1432.5999755859375</ele>
        <time>2020-08-19T08:07:51.000Z</time>
      </trkpt>
      <trkpt lat="42.629965245723724365234375" lon="-0.436478219926357269287109375">
        <ele>1432.800048828125</ele>
        <time>2020-08-19T08:07:52.000Z</time>
      </trkpt>
      <trkpt lat="42.63003892265260219573974609375" lon="-0.43654401786625385284423828125">
        <ele>1433.800048828125</ele>
        <time>2020-08-19T08:08:03.000Z</time>
      </trkpt>
      <trkpt lat="42.63009390793740749359130859375" lon="-0.43659045360982418060302734375">
        <ele>1434.5999755859375</ele>
        <time>2020-08-19T08:08:11.000Z</time>
      </trkpt>
      <trkpt lat="42.63011704199016094207763671875" lon="-0.43660403229296207427978515625">
        <ele>1435</ele>
        <time>2020-08-19T08:08:14.000Z</time>
      </trkpt>
      <trkpt lat="42.63018225319683551788330078125" lon="-0.436643846333026885986328125">
        <ele>1435.5999755859375</ele>
        <time>2020-08-19T08:08:22.000Z</time>
      </trkpt>
      <trkpt lat="42.63018996454775333404541015625" lon="-0.4366473667323589324951171875">
        <ele>1436</ele>
        <time>2020-08-19T08:08:23.000Z</time>
      </trkpt>
      <trkpt lat="42.63026339001953601837158203125" lon="-0.43667041696608066558837890625">
        <ele>1437</ele>
        <time>2020-08-19T08:08:32.000Z</time>
      </trkpt>
      <trkpt lat="42.6302711851894855499267578125" lon="-0.43667100369930267333984375">
        <ele>1437</ele>
        <time>2020-08-19T08:08:33.000Z</time>
      </trkpt>
      <trkpt lat="42.6303328759968280792236328125" lon="-0.436677038669586181640625">
        <ele>1437.800048828125</ele>
        <time>2020-08-19T08:08:41.000Z</time>
      </trkpt>
      <trkpt lat="42.6303801499307155609130859375" lon="-0.4366601072251796722412109375">
        <ele>1438.199951171875</ele>
        <time>2020-08-19T08:08:47.000Z</time>
      </trkpt>
      <trkpt lat="42.6304156892001628875732421875" lon="-0.43664560653269290924072265625">
        <ele>1438.5999755859375</ele>
        <time>2020-08-19T08:08:52.000Z</time>
      </trkpt>
      <trkpt lat="42.63049690984189510345458984375" lon="-0.43662180192768573760986328125">
        <ele>1439</ele>
        <time>2020-08-19T08:09:02.000Z</time>
      </trkpt>
      <trkpt lat="42.63055038638412952423095703125" lon="-0.4366272501647472381591796875">
        <ele>1440</ele>
        <time>2020-08-19T08:09:09.000Z</time>
      </trkpt>
      <trkpt lat="42.6305642165243625640869140625" lon="-0.4366329498589038848876953125">
        <ele>1440.4000244140625</ele>
        <time>2020-08-19T08:09:11.000Z</time>
      </trkpt>
      <trkpt lat="42.630628757178783416748046875" lon="-0.43665952049195766448974609375">
        <ele>1441</ele>
        <time>2020-08-19T08:09:19.000Z</time>
      </trkpt>
      <trkpt lat="42.6306912861764430999755859375" lon="-0.43667460791766643524169921875">
        <ele>1441.4000244140625</ele>
        <time>2020-08-19T08:09:27.000Z</time>
      </trkpt>
      <trkpt lat="42.6307228021323680877685546875" lon="-0.43668843805789947509765625">
        <ele>1442</ele>
        <time>2020-08-19T08:09:32.000Z</time>
      </trkpt>
      <trkpt lat="42.630752809345722198486328125" lon="-0.4366943053901195526123046875">
        <ele>1442.5999755859375</ele>
        <time>2020-08-19T08:09:37.000Z</time>
      </trkpt>
      <trkpt lat="42.63075306080281734466552734375" lon="-0.4366976581513881683349609375">
        <ele>1442.800048828125</ele>
        <time>2020-08-19T08:09:43.000Z</time>
      </trkpt>
      <trkpt lat="42.6307583414018154144287109375" lon="-0.43669908307492733001708984375">
        <ele>1443</ele>
        <time>2020-08-19T08:09:46.000Z</time>
      </trkpt>
      <trkpt lat="42.63081894256174564361572265625" lon="-0.43675105087459087371826171875">
        <ele>1444</ele>
        <time>2020-08-19T08:09:55.000Z</time>
      </trkpt>
      <trkpt lat="42.63085104525089263916015625" lon="-0.43679572641849517822265625">
        <ele>1444.800048828125</ele>
        <time>2020-08-19T08:10:02.000Z</time>
      </trkpt>
      <trkpt lat="42.63085951097309589385986328125" lon="-0.43680913746356964111328125">
        <ele>1445</ele>
        <time>2020-08-19T08:10:04.000Z</time>
      </trkpt>
      <trkpt lat="42.630872838199138641357421875" lon="-0.43683067895472049713134765625">
        <ele>1445.800048828125</ele>
        <time>2020-08-19T08:10:10.000Z</time>
      </trkpt>
      <trkpt lat="42.630885578691959381103515625" lon="-0.43684610165655612945556640625">
        <ele>1446</ele>
        <time>2020-08-19T08:10:13.000Z</time>
      </trkpt>
      <trkpt lat="42.63090510852634906768798828125" lon="-0.43686923570930957794189453125">
        <ele>1446.4000244140625</ele>
        <time>2020-08-19T08:10:17.000Z</time>
      </trkpt>
      <trkpt lat="42.63093612156808376312255859375" lon="-0.4368941299617290496826171875">
        <ele>1447.199951171875</ele>
        <time>2020-08-19T08:10:23.000Z</time>
      </trkpt>
      <trkpt lat="42.63095020316541194915771484375" lon="-0.43690343387424945831298828125">
        <ele>1447.5999755859375</ele>
        <time>2020-08-19T08:10:26.000Z</time>
      </trkpt>
      <trkpt lat="42.63098222203552722930908203125" lon="-0.43692874722182750701904296875">
        <ele>1448.4000244140625</ele>
        <time>2020-08-19T08:10:34.000Z</time>
      </trkpt>
      <trkpt lat="42.63098607771098613739013671875" lon="-0.43693386018276214599609375">
        <ele>1448.5999755859375</ele>
        <time>2020-08-19T08:10:35.000Z</time>
      </trkpt>
      <trkpt lat="42.63103251345455646514892578125" lon="-0.4369511269032955169677734375">
        <ele>1449.4000244140625</ele>
        <time>2020-08-19T08:10:44.000Z</time>
      </trkpt>
      <trkpt lat="42.63103771023452281951904296875" lon="-0.4369533061981201171875">
        <ele>1449.5999755859375</ele>
        <time>2020-08-19T08:10:45.000Z</time>
      </trkpt>
      <trkpt lat="42.63107509352266788482666015625" lon="-0.43696378357708454132080078125">
        <ele>1450.4000244140625</ele>
        <time>2020-08-19T08:10:52.000Z</time>
      </trkpt>
      <trkpt lat="42.63108171522617340087890625" lon="-0.4369635321199893951416015625">
        <ele>1450.4000244140625</ele>
        <time>2020-08-19T08:10:53.000Z</time>
      </trkpt>
      <trkpt lat="42.63111792504787445068359375" lon="-0.436977781355381011962890625">
        <ele>1451.4000244140625</ele>
        <time>2020-08-19T08:10:59.000Z</time>
      </trkpt>
      <trkpt lat="42.63114097528159618377685546875" lon="-0.43698105029761791229248046875">
        <ele>1452</ele>
        <time>2020-08-19T08:11:03.000Z</time>
      </trkpt>
      <trkpt lat="42.6311690546572208404541015625" lon="-0.43698540888726711273193359375">
        <ele>1452.5999755859375</ele>
        <time>2020-08-19T08:11:08.000Z</time>
      </trkpt>
      <trkpt lat="42.631197385489940643310546875" lon="-0.436989851295948028564453125">
        <ele>1453</ele>
        <time>2020-08-19T08:11:12.000Z</time>
      </trkpt>
      <trkpt lat="42.631226889789104461669921875" lon="-0.43700032867491245269775390625">
        <ele>1453.5999755859375</ele>
        <time>2020-08-19T08:11:16.000Z</time>
      </trkpt>
      <trkpt lat="42.63127055950462818145751953125" lon="-0.4370258934795856475830078125">
        <ele>1454.4000244140625</ele>
        <time>2020-08-19T08:11:23.000Z</time>
      </trkpt>
      <trkpt lat="42.63129050843417644500732421875" lon="-0.43703771196305751800537109375">
        <ele>1454.5999755859375</ele>
        <time>2020-08-19T08:11:26.000Z</time>
      </trkpt>
      <trkpt lat="42.6313420571386814117431640625" lon="-0.4370735026895999908447265625">
        <ele>1455.5999755859375</ele>
        <time>2020-08-19T08:11:34.000Z</time>
      </trkpt>
      <trkpt lat="42.6314055919647216796875" lon="-0.43710954487323760986328125">
        <ele>1456</ele>
        <time>2020-08-19T08:11:43.000Z</time>
      </trkpt>
      <trkpt lat="42.63143132440745830535888671875" lon="-0.4371258057653903961181640625">
        <ele>1456.5999755859375</ele>
        <time>2020-08-19T08:11:47.000Z</time>
      </trkpt>
      <trkpt lat="42.63147340156137943267822265625" lon="-0.437154136598110198974609375">
        <ele>1457</ele>
        <time>2020-08-19T08:11:53.000Z</time>
      </trkpt>
      <trkpt lat="42.63149854727089405059814453125" lon="-0.4371760971844196319580078125">
        <ele>1457.5999755859375</ele>
        <time>2020-08-19T08:11:57.000Z</time>
      </trkpt>
      <trkpt lat="42.63152855448424816131591796875" lon="-0.43721104972064495086669921875">
        <ele>1457.800048828125</ele>
        <time>2020-08-19T08:12:02.000Z</time>
      </trkpt>
      <trkpt lat="42.6315596513450145721435546875" lon="-0.43723502196371555328369140625">
        <ele>1458.5999755859375</ele>
        <time>2020-08-19T08:12:07.000Z</time>
      </trkpt>
      <trkpt lat="42.63157683424651622772216796875" lon="-0.43725497089326381683349609375">
        <ele>1458.800048828125</ele>
        <time>2020-08-19T08:12:10.000Z</time>
      </trkpt>
      <trkpt lat="42.6316230185329914093017578125" lon="-0.43730157427489757537841796875">
        <ele>1459.800048828125</ele>
        <time>2020-08-19T08:12:18.000Z</time>
      </trkpt>
      <trkpt lat="42.63163768686354160308837890625" lon="-0.4373195953667163848876953125">
        <ele>1460</ele>
        <time>2020-08-19T08:12:21.000Z</time>
      </trkpt>
      <trkpt lat="42.6316786743700504302978515625" lon="-0.43735572136938571929931640625">
        <ele>1460.800048828125</ele>
        <time>2020-08-19T08:12:28.000Z</time>
      </trkpt>
      <trkpt lat="42.63170222751796245574951171875" lon="-0.4373796097934246063232421875">
        <ele>1461.199951171875</ele>
        <time>2020-08-19T08:12:32.000Z</time>
      </trkpt>
      <trkpt lat="42.63174162246286869049072265625" lon="-0.43741263449192047119140625">
        <ele>1461.800048828125</ele>
        <time>2020-08-19T08:12:38.000Z</time>
      </trkpt>
      <trkpt lat="42.6317770779132843017578125" lon="-0.43742428533732891082763671875">
        <ele>1462</ele>
        <time>2020-08-19T08:12:43.000Z</time>
      </trkpt>
      <trkpt lat="42.6318261958658695220947265625" lon="-0.4374221898615360260009765625">
        <ele>1461.800048828125</ele>
        <time>2020-08-19T08:12:51.000Z</time>
      </trkpt>
      <trkpt lat="42.63185427524149417877197265625" lon="-0.4374181665480136871337890625">
        <ele>1461.800048828125</ele>
        <time>2020-08-19T08:12:58.000Z</time>
      </trkpt>
      <trkpt lat="42.63185494579374790191650390625" lon="-0.43742059729993343353271484375">
        <ele>1461.4000244140625</ele>
        <time>2020-08-19T08:13:04.000Z</time>
      </trkpt>
      <trkpt lat="42.6316407881677150726318359375" lon="-0.43734113685786724090576171875">
        <ele>1457.5999755859375</ele>
        <time>2020-08-19T08:38:29.000Z</time>
      </trkpt>
      <trkpt lat="42.6316617429256439208984375" lon="-0.4373591579496860504150390625">
        <ele>1458</ele>
        <time>2020-08-19T08:38:33.000Z</time>
      </trkpt>
      <trkpt lat="42.63170205987989902496337890625" lon="-0.43739276938140392303466796875">
        <ele>1458.4000244140625</ele>
        <time>2020-08-19T08:38:39.000Z</time>
      </trkpt>
      <trkpt lat="42.63172804377973079681396484375" lon="-0.43741355650126934051513671875">
        <ele>1459.199951171875</ele>
        <time>2020-08-19T08:38:43.000Z</time>
      </trkpt>
      <trkpt lat="42.63174614869058132171630859375" lon="-0.437428057193756103515625">
        <ele>1459.4000244140625</ele>
        <time>2020-08-19T08:38:46.000Z</time>
      </trkpt>
      <trkpt lat="42.63175151310861110687255859375" lon="-0.43742830865085124969482421875">
        <ele>1459.5999755859375</ele>
        <time>2020-08-19T08:38:51.000Z</time>
      </trkpt>
      <trkpt lat="42.6317926682531833648681640625" lon="-0.43744624592363834381103515625">
        <ele>1459.5999755859375</ele>
        <time>2020-08-19T08:39:02.000Z</time>
      </trkpt>
      <trkpt lat="42.63191060163080692291259765625" lon="-0.43742143549025058746337890625">
        <ele>1459.4000244140625</ele>
        <time>2020-08-19T08:39:08.000Z</time>
      </trkpt>
      <trkpt lat="42.632009088993072509765625" lon="-0.4373417235910892486572265625">
        <ele>1458.4000244140625</ele>
        <time>2020-08-19T08:39:13.000Z</time>
      </trkpt>
      <trkpt lat="42.632076479494571685791015625" lon="-0.43725832365453243255615234375">
        <ele>1457</ele>
        <time>2020-08-19T08:39:17.000Z</time>
      </trkpt>
      <trkpt lat="42.63218284584581851959228515625" lon="-0.43718439526855945587158203125">
        <ele>1456.4000244140625</ele>
        <time>2020-08-19T08:39:23.000Z</time>
      </trkpt>
      <trkpt lat="42.63229734264314174652099609375" lon="-0.43711532838642597198486328125">
        <ele>1455.5999755859375</ele>
        <time>2020-08-19T08:39:29.000Z</time>
      </trkpt>
      <trkpt lat="42.63232734985649585723876953125" lon="-0.43709437362849712371826171875">
        <ele>1455.199951171875</ele>
        <time>2020-08-19T08:39:30.000Z</time>
      </trkpt>
      <trkpt lat="42.6323616318404674530029296875" lon="-0.43706906028091907501220703125">
        <ele>1454.5999755859375</ele>
        <time>2020-08-19T08:39:31.000Z</time>
      </trkpt>
      <trkpt lat="42.6324300281703472137451171875" lon="-0.43701658956706523895263671875">
        <ele>1453.5999755859375</ele>
        <time>2020-08-19T08:39:33.000Z</time>
      </trkpt>
      <trkpt lat="42.6325200498104095458984375" lon="-0.43694802559912204742431640625">
        <ele>1452.5999755859375</ele>
        <time>2020-08-19T08:39:36.000Z</time>
      </trkpt>
      <trkpt lat="42.632702775299549102783203125" lon="-0.43683319352567195892333984375">
        <ele>1452.800048828125</ele>
        <time>2020-08-19T08:39:43.000Z</time>
      </trkpt>
      <trkpt lat="42.63280981220304965972900390625" lon="-0.4367667250335216522216796875">
        <ele>1451.4000244140625</ele>
        <time>2020-08-19T08:39:47.000Z</time>
      </trkpt>
      <trkpt lat="42.63287234120070934295654296875" lon="-0.4367174394428730010986328125">
        <ele>1451.4000244140625</ele>
        <time>2020-08-19T08:39:50.000Z</time>
      </trkpt>
      <trkpt lat="42.6330006681382656097412109375" lon="-0.43659263290464878082275390625">
        <ele>1451.4000244140625</ele>
        <time>2020-08-19T08:39:57.000Z</time>
      </trkpt>
      <trkpt lat="42.63320527039468288421630859375" lon="-0.436452068388462066650390625">
        <ele>1450.4000244140625</ele>
        <time>2020-08-19T08:40:04.000Z</time>
      </trkpt>
      <trkpt lat="42.633232511579990386962890625" lon="-0.43643253855407238006591796875">
        <ele>1450.4000244140625</ele>
        <time>2020-08-19T08:40:05.000Z</time>
      </trkpt>
      <trkpt lat="42.6333500258624553680419921875" lon="-0.43634888716042041778564453125">
        <ele>1451.4000244140625</ele>
        <time>2020-08-19T08:40:11.000Z</time>
      </trkpt>
      <trkpt lat="42.63343661092221736907958984375" lon="-0.4362572729587554931640625">
        <ele>1450.800048828125</ele>
        <time>2020-08-19T08:40:17.000Z</time>
      </trkpt>
      <trkpt lat="42.633532918989658355712890625" lon="-0.4361970908939838409423828125">
        <ele>1451.800048828125</ele>
        <time>2020-08-19T08:40:23.000Z</time>
      </trkpt>
      <trkpt lat="42.6335625909268856048583984375" lon="-0.436182506382465362548828125">
        <ele>1452.199951171875</ele>
        <time>2020-08-19T08:40:25.000Z</time>
      </trkpt>
      <trkpt lat="42.6336678676307201385498046875" lon="-0.4361085779964923858642578125">
        <ele>1452.5999755859375</ele>
        <time>2020-08-19T08:40:33.000Z</time>
      </trkpt>
      <trkpt lat="42.6336796022951602935791015625" lon="-0.43609860353171825408935546875">
        <ele>1452.800048828125</ele>
        <time>2020-08-19T08:40:34.000Z</time>
      </trkpt>
      <trkpt lat="42.6337312348186969757080078125" lon="-0.4360334761440753936767578125">
        <ele>1453.5999755859375</ele>
        <time>2020-08-19T08:40:39.000Z</time>
      </trkpt>
      <trkpt lat="42.63374472968280315399169921875" lon="-0.43602526187896728515625">
        <ele>1453.800048828125</ele>
        <time>2020-08-19T08:40:40.000Z</time>
      </trkpt>
      <trkpt lat="42.63375763781368732452392578125" lon="-0.436016879975795745849609375">
        <ele>1454</ele>
        <time>2020-08-19T08:40:41.000Z</time>
      </trkpt>
      <trkpt lat="42.63384749181568622589111328125" lon="-0.4359563626348972320556640625">
        <ele>1455.199951171875</ele>
        <time>2020-08-19T08:40:49.000Z</time>
      </trkpt>
      <trkpt lat="42.63390742242336273193359375" lon="-0.43592224828898906707763671875">
        <ele>1456.199951171875</ele>
        <time>2020-08-19T08:40:54.000Z</time>
      </trkpt>
      <trkpt lat="42.6339535228908061981201171875" lon="-0.4358879663050174713134765625">
        <ele>1457</ele>
        <time>2020-08-19T08:40:58.000Z</time>
      </trkpt>
      <trkpt lat="42.6339764893054962158203125" lon="-0.4358705319464206695556640625">
        <ele>1457.4000244140625</ele>
        <time>2020-08-19T08:41:00.000Z</time>
      </trkpt>
      <trkpt lat="42.63404781930148601531982421875" lon="-0.4358209110796451568603515625">
        <ele>1458.4000244140625</ele>
        <time>2020-08-19T08:41:06.000Z</time>
      </trkpt>
      <trkpt lat="42.63407128863036632537841796875" lon="-0.4358105175197124481201171875">
        <ele>1458.5999755859375</ele>
        <time>2020-08-19T08:41:08.000Z</time>
      </trkpt>
      <trkpt lat="42.6341687701642513275146484375" lon="-0.43579182587563991546630859375">
        <ele>1459.199951171875</ele>
        <time>2020-08-19T08:41:16.000Z</time>
      </trkpt>
      <trkpt lat="42.63428368605673313140869140625" lon="-0.43577380478382110595703125">
        <ele>1459.4000244140625</ele>
        <time>2020-08-19T08:41:23.000Z</time>
      </trkpt>
      <trkpt lat="42.634310424327850341796875" lon="-0.43575771152973175048828125">
        <ele>1459.4000244140625</ele>
        <time>2020-08-19T08:41:25.000Z</time>
      </trkpt>
      <trkpt lat="42.63440228998661041259765625" lon="-0.43572150170803070068359375">
        <ele>1460</ele>
        <time>2020-08-19T08:41:31.000Z</time>
      </trkpt>
      <trkpt lat="42.6344457082450389862060546875" lon="-0.43569778092205524444580078125">
        <ele>1460.4000244140625</ele>
        <time>2020-08-19T08:41:34.000Z</time>
      </trkpt>
      <trkpt lat="42.63452726416289806365966796875" lon="-0.435659475624561309814453125">
        <ele>1461.800048828125</ele>
        <time>2020-08-19T08:41:39.000Z</time>
      </trkpt>
      <trkpt lat="42.63454285450279712677001953125" lon="-0.43565352447330951690673828125">
        <ele>1462.199951171875</ele>
        <time>2020-08-19T08:41:40.000Z</time>
      </trkpt>
      <trkpt lat="42.634601779282093048095703125" lon="-0.43564028106629848480224609375">
        <ele>1462.800048828125</ele>
        <time>2020-08-19T08:41:44.000Z</time>
      </trkpt>
      <trkpt lat="42.63466154225170612335205078125" lon="-0.4356469027698040008544921875">
        <ele>1464</ele>
        <time>2020-08-19T08:41:48.000Z</time>
      </trkpt>
      <trkpt lat="42.6346747018396854400634765625" lon="-0.43565436266362667083740234375">
        <ele>1464.4000244140625</ele>
        <time>2020-08-19T08:41:49.000Z</time>
      </trkpt>
      <trkpt lat="42.63470630161464214324951171875" lon="-0.43567850254476070404052734375">
        <ele>1465</ele>
        <time>2020-08-19T08:41:52.000Z</time>
      </trkpt>
      <trkpt lat="42.63475994579493999481201171875" lon="-0.43569870293140411376953125">
        <ele>1465</ele>
        <time>2020-08-19T08:41:56.000Z</time>
      </trkpt>
      <trkpt lat="42.63486723415553569793701171875" lon="-0.43574857525527477264404296875">
        <ele>1465.5999755859375</ele>
        <time>2020-08-19T08:42:03.000Z</time>
      </trkpt>
      <trkpt lat="42.63497619889676570892333984375" lon="-0.43580758385360240936279296875">
        <ele>1466.199951171875</ele>
        <time>2020-08-19T08:42:10.000Z</time>
      </trkpt>
      <trkpt lat="42.63501961715519428253173828125" lon="-0.4358279518783092498779296875">
        <ele>1466.4000244140625</ele>
        <time>2020-08-19T08:42:13.000Z</time>
      </trkpt>
      <trkpt lat="42.635133527219295501708984375" lon="-0.43589190579950809478759765625">
        <ele>1467</ele>
        <time>2020-08-19T08:42:21.000Z</time>
      </trkpt>
      <trkpt lat="42.635208629071712493896484375" lon="-0.4359292052686214447021484375">
        <ele>1467.199951171875</ele>
        <time>2020-08-19T08:42:26.000Z</time>
      </trkpt>
      <trkpt lat="42.6352527178823947906494140625" lon="-0.4359493218362331390380859375">
        <ele>1467.199951171875</ele>
        <time>2020-08-19T08:42:29.000Z</time>
      </trkpt>
      <trkpt lat="42.635350786149501800537109375" lon="-0.4359563626348972320556640625">
        <ele>1467.199951171875</ele>
        <time>2020-08-19T08:42:35.000Z</time>
      </trkpt>
      <trkpt lat="42.6354910992085933685302734375" lon="-0.43591453693807125091552734375">
        <ele>1467</ele>
        <time>2020-08-19T08:42:43.000Z</time>
      </trkpt>
      <trkpt lat="42.6356406323611736297607421875" lon="-0.4359184764325618743896484375">
        <ele>1466.199951171875</ele>
        <time>2020-08-19T08:42:48.000Z</time>
      </trkpt>
      <trkpt lat="42.63567189686000347137451171875" lon="-0.4359359107911586761474609375">
        <ele>1465.5999755859375</ele>
        <time>2020-08-19T08:42:49.000Z</time>
      </trkpt>
      <trkpt lat="42.6357241161167621612548828125" lon="-0.43598108924925327301025390625">
        <ele>1464.199951171875</ele>
        <time>2020-08-19T08:42:51.000Z</time>
      </trkpt>
      <trkpt lat="42.6357710547745227813720703125" lon="-0.43603406287729740142822265625">
        <ele>1463.5999755859375</ele>
        <time>2020-08-19T08:42:53.000Z</time>
      </trkpt>
      <trkpt lat="42.63583685271441936492919921875" lon="-0.43612760491669178009033203125">
        <ele>1463</ele>
        <time>2020-08-19T08:42:56.000Z</time>
      </trkpt>
      <trkpt lat="42.63586275279521942138671875" lon="-0.43623874895274639129638671875">
        <ele>1463</ele>
        <time>2020-08-19T08:42:59.000Z</time>
      </trkpt>
      <trkpt lat="42.63594732619822025299072265625" lon="-0.436537563800811767578125">
        <ele>1461.800048828125</ele>
        <time>2020-08-19T08:43:07.000Z</time>
      </trkpt>
      <trkpt lat="42.6360189914703369140625" lon="-0.4366513900458812713623046875">
        <ele>1460.800048828125</ele>
        <time>2020-08-19T08:43:10.000Z</time>
      </trkpt>
      <trkpt lat="42.63610490597784519195556640625" lon="-0.4367660544812679290771484375">
        <ele>1459.5999755859375</ele>
        <time>2020-08-19T08:43:13.000Z</time>
      </trkpt>
      <trkpt lat="42.6361851207911968231201171875" lon="-0.43686504475772380828857421875">
        <ele>1458.199951171875</ele>
        <time>2020-08-19T08:43:16.000Z</time>
      </trkpt>
      <trkpt lat="42.63628662563860416412353515625" lon="-0.43700032867491245269775390625">
        <ele>1458.199951171875</ele>
        <time>2020-08-19T08:43:20.000Z</time>
      </trkpt>
      <trkpt lat="42.636376060545444488525390625" lon="-0.43713209219276905059814453125">
        <ele>1457</ele>
        <time>2020-08-19T08:43:24.000Z</time>
      </trkpt>
      <trkpt lat="42.636427022516727447509765625" lon="-0.43718774802982807159423828125">
        <ele>1456</ele>
        <time>2020-08-19T08:43:27.000Z</time>
      </trkpt>
      <trkpt lat="42.63645560480654239654541015625" lon="-0.4372059367597103118896484375">
        <ele>1455.800048828125</ele>
        <time>2020-08-19T08:43:29.000Z</time>
      </trkpt>
      <trkpt lat="42.63646381907165050506591796875" lon="-0.43722026981413364410400390625">
        <ele>1455.800048828125</ele>
        <time>2020-08-19T08:43:30.000Z</time>
      </trkpt>
      <trkpt lat="42.63647429645061492919921875" lon="-0.4372491873800754547119140625">
        <ele>1455.5999755859375</ele>
        <time>2020-08-19T08:43:32.000Z</time>
      </trkpt>
      <trkpt lat="42.6364751346409320831298828125" lon="-0.4372508637607097625732421875">
        <ele>1455</ele>
        <time>2020-08-19T08:43:35.000Z</time>
      </trkpt>
      <trkpt lat="42.63647429645061492919921875" lon="-0.43725044466555118560791015625">
        <ele>1454.800048828125</ele>
        <time>2020-08-19T08:43:39.000Z</time>
      </trkpt>
      <trkpt lat="42.636473961174488067626953125" lon="-0.43725094757974147796630859375">
        <ele>1455.5999755859375</ele>
        <time>2020-08-19T08:44:11.000Z</time>
      </trkpt>
      <trkpt lat="42.63647429645061492919921875" lon="-0.43725077994167804718017578125">
        <ele>1455.4000244140625</ele>
        <time>2020-08-19T08:44:14.000Z</time>
      </trkpt>
      <trkpt lat="42.63647421263158321380615234375" lon="-0.43724977411329746246337890625">
        <ele>1455.4000244140625</ele>
        <time>2020-08-19T08:44:25.000Z</time>
      </trkpt>
      <trkpt lat="42.636473961174488067626953125" lon="-0.437248684465885162353515625">
        <ele>1455.5999755859375</ele>
        <time>2020-08-19T08:44:44.000Z</time>
      </trkpt>
      <trkpt lat="42.63647370971739292144775390625" lon="-0.43724725954234600067138671875">
        <ele>1455.800048828125</ele>
        <time>2020-08-19T08:45:07.000Z</time>
      </trkpt>
      <trkpt lat="42.63647387735545635223388671875" lon="-0.4372471757233142852783203125">
        <ele>1455.800048828125</ele>
        <time>2020-08-19T08:45:10.000Z</time>
      </trkpt>
      <trkpt lat="42.63647404499351978302001953125" lon="-0.437246672809123992919921875">
        <ele>1455.800048828125</ele>
        <time>2020-08-19T08:45:18.000Z</time>
      </trkpt>
      <trkpt lat="42.636476643383502960205078125" lon="-0.43724793009459972381591796875">
        <ele>1455.800048828125</ele>
        <time>2020-08-19T08:45:28.000Z</time>
      </trkpt>
      <trkpt lat="42.6364798285067081451416015625" lon="-0.43725438416004180908203125">
        <ele>1455.800048828125</ele>
        <time>2020-08-19T08:45:29.000Z</time>
      </trkpt>
      <trkpt lat="42.636512182652950286865234375" lon="-0.4373098723590373992919921875">
        <ele>1455.5999755859375</ele>
        <time>2020-08-19T08:45:32.000Z</time>
      </trkpt>
      <trkpt lat="42.63666070997714996337890625" lon="-0.43752939440310001373291015625">
        <ele>1455</ele>
        <time>2020-08-19T08:45:39.000Z</time>
      </trkpt>
      <trkpt lat="42.63669113628566265106201171875" lon="-0.4375713877379894256591796875">
        <ele>1454.4000244140625</ele>
        <time>2020-08-19T08:45:40.000Z</time>
      </trkpt>
      <trkpt lat="42.63681049458682537078857421875" lon="-0.43773651123046875">
        <ele>1452.5999755859375</ele>
        <time>2020-08-19T08:45:44.000Z</time>
      </trkpt>
      <trkpt lat="42.6368429325520992279052734375" lon="-0.437779761850833892822265625">
        <ele>1451.5999755859375</ele>
        <time>2020-08-19T08:45:46.000Z</time>
      </trkpt>
      <trkpt lat="42.6368419267237186431884765625" lon="-0.437779761850833892822265625">
        <ele>1451</ele>
        <time>2020-08-19T08:45:50.000Z</time>
      </trkpt>
      <trkpt lat="42.63684351928532123565673828125" lon="-0.4377759061753749847412109375">
        <ele>1451</ele>
        <time>2020-08-19T08:46:39.000Z</time>
      </trkpt>
      <trkpt lat="42.63684787787497043609619140625" lon="-0.43778437189757823944091796875">
        <ele>1451.199951171875</ele>
        <time>2020-08-19T08:46:43.000Z</time>
      </trkpt>
      <trkpt lat="42.6369364745914936065673828125" lon="-0.43790607713162899017333984375">
        <ele>1450.5999755859375</ele>
        <time>2020-08-19T08:46:48.000Z</time>
      </trkpt>
      <trkpt lat="42.636962123215198516845703125" lon="-0.4379417002201080322265625">
        <ele>1450.4000244140625</ele>
        <time>2020-08-19T08:46:49.000Z</time>
      </trkpt>
      <trkpt lat="42.63703797943890094757080078125" lon="-0.43804965913295745849609375">
        <ele>1449</ele>
        <time>2020-08-19T08:46:52.000Z</time>
      </trkpt>
      <trkpt lat="42.6371668092906475067138671875" lon="-0.43823682703077793121337890625">
        <ele>1448.4000244140625</ele>
        <time>2020-08-19T08:46:57.000Z</time>
      </trkpt>
      <trkpt lat="42.63720788061618804931640625" lon="-0.4382957518100738525390625">
        <ele>1447.800048828125</ele>
        <time>2020-08-19T08:46:59.000Z</time>
      </trkpt>
      <trkpt lat="42.63726948760449886322021484375" lon="-0.43837822973728179931640625">
        <ele>1446.5999755859375</ele>
        <time>2020-08-19T08:47:02.000Z</time>
      </trkpt>
      <trkpt lat="42.637352049350738525390625" lon="-0.4384910501539707183837890625">
        <ele>1445.800048828125</ele>
        <time>2020-08-19T08:47:06.000Z</time>
      </trkpt>
      <trkpt lat="42.63737308792769908905029296875" lon="-0.43852063827216625213623046875">
        <ele>1445.5999755859375</ele>
        <time>2020-08-19T08:47:07.000Z</time>
      </trkpt>
      <trkpt lat="42.6375074498355388641357421875" lon="-0.43868936598300933837890625">
        <ele>1444.5999755859375</ele>
        <time>2020-08-19T08:47:13.000Z</time>
      </trkpt>
      <trkpt lat="42.637528739869594573974609375" lon="-0.43871761299669742584228515625">
        <ele>1444.4000244140625</ele>
        <time>2020-08-19T08:47:14.000Z</time>
      </trkpt>
      <trkpt lat="42.63755095191299915313720703125" lon="-0.4387451894581317901611328125">
        <ele>1444.199951171875</ele>
        <time>2020-08-19T08:47:15.000Z</time>
      </trkpt>
      <trkpt lat="42.637656815350055694580078125" lon="-0.4388591833412647247314453125">
        <ele>1443.4000244140625</ele>
        <time>2020-08-19T08:47:19.000Z</time>
      </trkpt>
      <trkpt lat="42.6376864872872829437255859375" lon="-0.4388913698494434356689453125">
        <ele>1443</ele>
        <time>2020-08-19T08:47:20.000Z</time>
      </trkpt>
      <trkpt lat="42.637740634381771087646484375" lon="-0.43894258327782154083251953125">
        <ele>1441.800048828125</ele>
        <time>2020-08-19T08:47:22.000Z</time>
      </trkpt>
      <trkpt lat="42.6378155685961246490478515625" lon="-0.43899245560169219970703125">
        <ele>1441.5999755859375</ele>
        <time>2020-08-19T08:47:25.000Z</time>
      </trkpt>
      <trkpt lat="42.6379406265914440155029296875" lon="-0.439041741192340850830078125">
        <ele>1440.5999755859375</ele>
        <time>2020-08-19T08:47:29.000Z</time>
      </trkpt>
      <trkpt lat="42.63797365128993988037109375" lon="-0.4390476085245609283447265625">
        <ele>1440.5999755859375</ele>
        <time>2020-08-19T08:47:30.000Z</time>
      </trkpt>
      <trkpt lat="42.6380412094295024871826171875" lon="-0.4390616901218891143798828125">
        <ele>1439.4000244140625</ele>
        <time>2020-08-19T08:47:32.000Z</time>
      </trkpt>
      <trkpt lat="42.63817607425153255462646484375" lon="-0.43911122716963291168212890625">
        <ele>1438.800048828125</ele>
        <time>2020-08-19T08:47:36.000Z</time>
      </trkpt>
      <trkpt lat="42.63823625631630420684814453125" lon="-0.439133942127227783203125">
        <ele>1438.4000244140625</ele>
        <time>2020-08-19T08:47:38.000Z</time>
      </trkpt>
      <trkpt lat="42.63833214528858661651611328125" lon="-0.439172498881816864013671875">
        <ele>1436.5999755859375</ele>
        <time>2020-08-19T08:47:41.000Z</time>
      </trkpt>
      <trkpt lat="42.63836416415870189666748046875" lon="-0.439185239374637603759765625">
        <ele>1436.4000244140625</ele>
        <time>2020-08-19T08:47:42.000Z</time>
      </trkpt>
      <trkpt lat="42.63846927322447299957275390625" lon="-0.43920703232288360595703125">
        <ele>1435.5999755859375</ele>
        <time>2020-08-19T08:47:45.000Z</time>
      </trkpt>
      <trkpt lat="42.63852409087121486663818359375" lon="-0.4392236284911632537841796875">
        <ele>1435.5999755859375</ele>
        <time>2020-08-19T08:47:47.000Z</time>
      </trkpt>
      <trkpt lat="42.63862886466085910797119140625" lon="-0.4392789490520954132080078125">
        <ele>1434.4000244140625</ele>
        <time>2020-08-19T08:47:51.000Z</time>
      </trkpt>
      <trkpt lat="42.63874956406652927398681640625" lon="-0.43939922936260700225830078125">
        <ele>1433.4000244140625</ele>
        <time>2020-08-19T08:47:55.000Z</time>
      </trkpt>
      <trkpt lat="42.6387776434421539306640625" lon="-0.439442731440067291259765625">
        <ele>1432.800048828125</ele>
        <time>2020-08-19T08:47:56.000Z</time>
      </trkpt>
      <trkpt lat="42.63887898065149784088134765625" lon="-0.4396470822393894195556640625">
        <ele>1432.4000244140625</ele>
        <time>2020-08-19T08:48:00.000Z</time>
      </trkpt>
      <trkpt lat="42.6389078982174396514892578125" lon="-0.43975814245641231536865234375">
        <ele>1431.800048828125</ele>
        <time>2020-08-19T08:48:02.000Z</time>
      </trkpt>
      <trkpt lat="42.6389266736805438995361328125" lon="-0.43986559845507144927978515625">
        <ele>1430.5999755859375</ele>
        <time>2020-08-19T08:48:04.000Z</time>
      </trkpt>
      <trkpt lat="42.6389400847256183624267578125" lon="-0.4399246908724308013916015625">
        <ele>1430.199951171875</ele>
        <time>2020-08-19T08:48:05.000Z</time>
      </trkpt>
      <trkpt lat="42.63895492069423198699951171875" lon="-0.4399800114333629608154296875">
        <ele>1429.5999755859375</ele>
        <time>2020-08-19T08:48:06.000Z</time>
      </trkpt>
      <trkpt lat="42.63898677192628383636474609375" lon="-0.440083779394626617431640625">
        <ele>1428.5999755859375</ele>
        <time>2020-08-19T08:48:08.000Z</time>
      </trkpt>
      <trkpt lat="42.63900487683713436126708984375" lon="-0.44013666920363903045654296875">
        <ele>1428.4000244140625</ele>
        <time>2020-08-19T08:48:09.000Z</time>
      </trkpt>
      <trkpt lat="42.63907528482377529144287109375" lon="-0.44042584486305713653564453125">
        <ele>1427.5999755859375</ele>
        <time>2020-08-19T08:48:14.000Z</time>
      </trkpt>
      <trkpt lat="42.63908584602177143096923828125" lon="-0.4404708556830883026123046875">
        <ele>1427.199951171875</ele>
        <time>2020-08-19T08:48:15.000Z</time>
      </trkpt>
      <trkpt lat="42.6391452737152576446533203125" lon="-0.44063589535653591156005859375">
        <ele>1426.5999755859375</ele>
        <time>2020-08-19T08:48:19.000Z</time>
      </trkpt>
      <trkpt lat="42.639155499637126922607421875" lon="-0.4406824149191379547119140625">
        <ele>1425.800048828125</ele>
        <time>2020-08-19T08:48:20.000Z</time>
      </trkpt>
      <trkpt lat="42.63922548852860927581787109375" lon="-0.44089456088840961456298828125">
        <ele>1425</ele>
        <time>2020-08-19T08:48:25.000Z</time>
      </trkpt>
      <trkpt lat="42.639232613146305084228515625" lon="-0.4409229755401611328125">
        <ele>1424.5999755859375</ele>
        <time>2020-08-19T08:48:26.000Z</time>
      </trkpt>
      <trkpt lat="42.63929732143878936767578125" lon="-0.441060103476047515869140625">
        <ele>1423.5999755859375</ele>
        <time>2020-08-19T08:48:31.000Z</time>
      </trkpt>
      <trkpt lat="42.63931232504546642303466796875" lon="-0.4410860873758792877197265625">
        <ele>1423.4000244140625</ele>
        <time>2020-08-19T08:48:32.000Z</time>
      </trkpt>
      <trkpt lat="42.6393685676157474517822265625" lon="-0.44119144789874553680419921875">
        <ele>1422.199951171875</ele>
        <time>2020-08-19T08:48:36.000Z</time>
      </trkpt>
      <trkpt lat="42.6394181884825229644775390625" lon="-0.44125355780124664306640625">
        <ele>1422</ele>
        <time>2020-08-19T08:48:39.000Z</time>
      </trkpt>
      <trkpt lat="42.63946118764579296112060546875" lon="-0.44132421724498271942138671875">
        <ele>1421</ele>
        <time>2020-08-19T08:48:42.000Z</time>
      </trkpt>
      <trkpt lat="42.63946554623544216156005859375" lon="-0.4413512907922267913818359375">
        <ele>1420.800048828125</ele>
        <time>2020-08-19T08:48:43.000Z</time>
      </trkpt>
      <trkpt lat="42.63946705497801303863525390625" lon="-0.4413807950913906097412109375">
        <ele>1420.800048828125</ele>
        <time>2020-08-19T08:48:44.000Z</time>
      </trkpt>
      <trkpt lat="42.6394567452371120452880859375" lon="-0.44144324027001857757568359375">
        <ele>1420.4000244140625</ele>
        <time>2020-08-19T08:48:46.000Z</time>
      </trkpt>
      <trkpt lat="42.63941877521574497222900390625" lon="-0.44148716144263744354248046875">
        <ele>1420.4000244140625</ele>
        <time>2020-08-19T08:48:48.000Z</time>
      </trkpt>
      <trkpt lat="42.63936948962509632110595703125" lon="-0.4415023326873779296875">
        <ele>1420</ele>
        <time>2020-08-19T08:48:50.000Z</time>
      </trkpt>
      <trkpt lat="42.6393192820250988006591796875" lon="-0.441483892500400543212890625">
        <ele>1419.5999755859375</ele>
        <time>2020-08-19T08:48:52.000Z</time>
      </trkpt>
      <trkpt lat="42.63927091844379901885986328125" lon="-0.4414599202573299407958984375">
        <ele>1418.5999755859375</ele>
        <time>2020-08-19T08:48:54.000Z</time>
      </trkpt>
      <trkpt lat="42.63916547410190105438232421875" lon="-0.4413990676403045654296875">
        <ele>1417.800048828125</ele>
        <time>2020-08-19T08:48:59.000Z</time>
      </trkpt>
      <trkpt lat="42.639144100248813629150390625" lon="-0.44138632714748382568359375">
        <ele>1417.4000244140625</ele>
        <time>2020-08-19T08:49:00.000Z</time>
      </trkpt>
      <trkpt lat="42.63907981105148792266845703125" lon="-0.44135925360023975372314453125">
        <ele>1415.800048828125</ele>
        <time>2020-08-19T08:49:03.000Z</time>
      </trkpt>
      <trkpt lat="42.63902231119573116302490234375" lon="-0.44132958166301250457763671875">
        <ele>1415.199951171875</ele>
        <time>2020-08-19T08:49:06.000Z</time>
      </trkpt>
      <trkpt lat="42.6388569362461566925048828125" lon="-0.44123134575784206390380859375">
        <ele>1415</ele>
        <time>2020-08-19T08:49:12.000Z</time>
      </trkpt>
      <trkpt lat="42.63882734812796115875244140625" lon="-0.44121709652245044708251953125">
        <ele>1414.4000244140625</ele>
        <time>2020-08-19T08:49:13.000Z</time>
      </trkpt>
      <trkpt lat="42.6387255080044269561767578125" lon="-0.441215001046657562255859375">
        <ele>1413.4000244140625</ele>
        <time>2020-08-19T08:49:17.000Z</time>
      </trkpt>
      <trkpt lat="42.63870815746486186981201171875" lon="-0.4412349499762058258056640625">
        <ele>1413.199951171875</ele>
        <time>2020-08-19T08:49:18.000Z</time>
      </trkpt>
      <trkpt lat="42.638687454164028167724609375" lon="-0.441341064870357513427734375">
        <ele>1413</ele>
        <time>2020-08-19T08:49:21.000Z</time>
      </trkpt>
      <trkpt lat="42.6387023739516735076904296875" lon="-0.441451705992221832275390625">
        <ele>1412.5999755859375</ele>
        <time>2020-08-19T08:49:24.000Z</time>
      </trkpt>
      <trkpt lat="42.6387137733399868011474609375" lon="-0.441486574709415435791015625">
        <ele>1412.199951171875</ele>
        <time>2020-08-19T08:49:25.000Z</time>
      </trkpt>
      <trkpt lat="42.6387302018702030181884765625" lon="-0.44151515699923038482666015625">
        <ele>1412</ele>
        <time>2020-08-19T08:49:26.000Z</time>
      </trkpt>
      <trkpt lat="42.63877051882445812225341796875" lon="-0.44155136682093143463134765625">
        <ele>1411.199951171875</ele>
        <time>2020-08-19T08:49:28.000Z</time>
      </trkpt>
      <trkpt lat="42.63879482634365558624267578125" lon="-0.441569387912750244140625">
        <ele>1410.800048828125</ele>
        <time>2020-08-19T08:49:29.000Z</time>
      </trkpt>
      <trkpt lat="42.63884779997169971466064453125" lon="-0.44160626828670501708984375">
        <ele>1410</ele>
        <time>2020-08-19T08:49:31.000Z</time>
      </trkpt>
      <trkpt lat="42.63889255933463573455810546875" lon="-0.4416584037244319915771484375">
        <ele>1409.199951171875</ele>
        <time>2020-08-19T08:49:33.000Z</time>
      </trkpt>
      <trkpt lat="42.63896464370191097259521484375" lon="-0.44174632988870143890380859375">
        <ele>1409</ele>
        <time>2020-08-19T08:49:36.000Z</time>
      </trkpt>
      <trkpt lat="42.639009654521942138671875" lon="-0.44180869124829769134521484375">
        <ele>1408.4000244140625</ele>
        <time>2020-08-19T08:49:38.000Z</time>
      </trkpt>
      <trkpt lat="42.639123313128948211669921875" lon="-0.44195897877216339111328125">
        <ele>1407.4000244140625</ele>
        <time>2020-08-19T08:49:43.000Z</time>
      </trkpt>
      <trkpt lat="42.63918709941208362579345703125" lon="-0.44204506091773509979248046875">
        <ele>1406</ele>
        <time>2020-08-19T08:49:46.000Z</time>
      </trkpt>
      <trkpt lat="42.63925968669354915618896484375" lon="-0.44213734567165374755859375">
        <ele>1405.5999755859375</ele>
        <time>2020-08-19T08:49:50.000Z</time>
      </trkpt>
      <trkpt lat="42.6392669789493083953857421875" lon="-0.4421634972095489501953125">
        <ele>1405.4000244140625</ele>
        <time>2020-08-19T08:49:51.000Z</time>
      </trkpt>
      <trkpt lat="42.63925029896199703216552734375" lon="-0.44223985634744167327880859375">
        <ele>1404.800048828125</ele>
        <time>2020-08-19T08:49:54.000Z</time>
      </trkpt>
      <trkpt lat="42.63915541581809520721435546875" lon="-0.44227103702723979949951171875">
        <ele>1403.800048828125</ele>
        <time>2020-08-19T08:49:58.000Z</time>
      </trkpt>
      <trkpt lat="42.63912289403378963470458984375" lon="-0.44226483441889286041259765625">
        <ele>1403.5999755859375</ele>
        <time>2020-08-19T08:49:59.000Z</time>
      </trkpt>
      <trkpt lat="42.63908802531659603118896484375" lon="-0.44225544668734073638916015625">
        <ele>1403.4000244140625</ele>
        <time>2020-08-19T08:50:00.000Z</time>
      </trkpt>
      <trkpt lat="42.6389923878014087677001953125" lon="-0.4422521777451038360595703125">
        <ele>1402.5999755859375</ele>
        <time>2020-08-19T08:50:03.000Z</time>
      </trkpt>
      <trkpt lat="42.63896430842578411102294921875" lon="-0.442255698144435882568359375">
        <ele>1402.4000244140625</ele>
        <time>2020-08-19T08:50:04.000Z</time>
      </trkpt>
      <trkpt lat="42.6388384960591793060302734375" lon="-0.44226181693375110626220703125">
        <ele>1401.4000244140625</ele>
        <time>2020-08-19T08:50:08.000Z</time>
      </trkpt>
      <trkpt lat="42.63880739919841289520263671875" lon="-0.442266762256622314453125">
        <ele>1400.800048828125</ele>
        <time>2020-08-19T08:50:09.000Z</time>
      </trkpt>
      <trkpt lat="42.638680748641490936279296875" lon="-0.442255698144435882568359375">
        <ele>1400.199951171875</ele>
        <time>2020-08-19T08:50:13.000Z</time>
      </trkpt>
      <trkpt lat="42.6386500708758831024169921875" lon="-0.44224404729902744293212890625">
        <ele>1400.4000244140625</ele>
        <time>2020-08-19T08:50:14.000Z</time>
      </trkpt>
      <trkpt lat="42.63862014748156070709228515625" lon="-0.44222862459719181060791015625">
        <ele>1400.4000244140625</ele>
        <time>2020-08-19T08:50:15.000Z</time>
      </trkpt>
      <trkpt lat="42.6384981907904148101806640625" lon="-0.4421740584075450897216796875">
        <ele>1399</ele>
        <time>2020-08-19T08:50:19.000Z</time>
      </trkpt>
      <trkpt lat="42.63843834400177001953125" lon="-0.44213776476681232452392578125">
        <ele>1397.800048828125</ele>
        <time>2020-08-19T08:50:21.000Z</time>
      </trkpt>
      <trkpt lat="42.63840976171195507049560546875" lon="-0.44212066568434238433837890625">
        <ele>1397.5999755859375</ele>
        <time>2020-08-19T08:50:22.000Z</time>
      </trkpt>
      <trkpt lat="42.63826056383550167083740234375" lon="-0.44202662073075771331787109375">
        <ele>1396.199951171875</ele>
        <time>2020-08-19T08:50:27.000Z</time>
      </trkpt>
      <trkpt lat="42.6381723023951053619384765625" lon="-0.44196962378919124603271484375">
        <ele>1395.800048828125</ele>
        <time>2020-08-19T08:50:30.000Z</time>
      </trkpt>
      <trkpt lat="42.63813190162181854248046875" lon="-0.44192117638885974884033203125">
        <ele>1395</ele>
        <time>2020-08-19T08:50:32.000Z</time>
      </trkpt>
      <trkpt lat="42.63810130767524242401123046875" lon="-0.44184573926031589508056640625">
        <ele>1394.199951171875</ele>
        <time>2020-08-19T08:50:34.000Z</time>
      </trkpt>
      <trkpt lat="42.638083286583423614501953125" lon="-0.44174482114613056182861328125">
        <ele>1393.800048828125</ele>
        <time>2020-08-19T08:50:36.000Z</time>
      </trkpt>
      <trkpt lat="42.63808152638375759124755859375" lon="-0.4416044242680072784423828125">
        <ele>1392.800048828125</ele>
        <time>2020-08-19T08:50:39.000Z</time>
      </trkpt>
      <trkpt lat="42.6380861364305019378662109375" lon="-0.441557653248310089111328125">
        <ele>1392.4000244140625</ele>
        <time>2020-08-19T08:50:40.000Z</time>
      </trkpt>
      <trkpt lat="42.63809971511363983154296875" lon="-0.44138054363429546356201171875">
        <ele>1391.199951171875</ele>
        <time>2020-08-19T08:50:44.000Z</time>
      </trkpt>
      <trkpt lat="42.6380856335163116455078125" lon="-0.44131256639957427978515625">
        <ele>1391</ele>
        <time>2020-08-19T08:50:46.000Z</time>
      </trkpt>
      <trkpt lat="42.6379858888685703277587890625" lon="-0.44123520143330097198486328125">
        <ele>1390</ele>
        <time>2020-08-19T08:50:51.000Z</time>
      </trkpt>
      <trkpt lat="42.63784515671432018280029296875" lon="-0.44128817506134510040283203125">
        <ele>1389.4000244140625</ele>
        <time>2020-08-19T08:50:57.000Z</time>
      </trkpt>
      <trkpt lat="42.637709788978099822998046875" lon="-0.441302172839641571044921875">
        <ele>1388.199951171875</ele>
        <time>2020-08-19T08:51:01.000Z</time>
      </trkpt>
      <trkpt lat="42.63767081312835216522216796875" lon="-0.441300161182880401611328125">
        <ele>1387.800048828125</ele>
        <time>2020-08-19T08:51:02.000Z</time>
      </trkpt>
      <trkpt lat="42.63759705238044261932373046875" lon="-0.4412879236042499542236328125">
        <ele>1387</ele>
        <time>2020-08-19T08:51:04.000Z</time>
      </trkpt>
      <trkpt lat="42.63751323334872722625732421875" lon="-0.44124844484031200408935546875">
        <ele>1385.5999755859375</ele>
        <time>2020-08-19T08:51:07.000Z</time>
      </trkpt>
      <trkpt lat="42.63740426860749721527099609375" lon="-0.44121391139924526214599609375">
        <ele>1385.199951171875</ele>
        <time>2020-08-19T08:51:12.000Z</time>
      </trkpt>
      <trkpt lat="42.63736504130065441131591796875" lon="-0.4412681423127651214599609375">
        <ele>1384.5999755859375</ele>
        <time>2020-08-19T08:51:15.000Z</time>
      </trkpt>
      <trkpt lat="42.63736571185290813446044921875" lon="-0.44129303656518459320068359375">
        <ele>1384.4000244140625</ele>
        <time>2020-08-19T08:51:16.000Z</time>
      </trkpt>
      <trkpt lat="42.6374041847884654998779296875" lon="-0.44136243872344493865966796875">
        <ele>1383.4000244140625</ele>
        <time>2020-08-19T08:51:19.000Z</time>
      </trkpt>
      <trkpt lat="42.6374269835650920867919921875" lon="-0.4413771070539951324462890625">
        <ele>1383.4000244140625</ele>
        <time>2020-08-19T08:51:20.000Z</time>
      </trkpt>
      <trkpt lat="42.63745372183620929718017578125" lon="-0.4413895122706890106201171875">
        <ele>1383</ele>
        <time>2020-08-19T08:51:21.000Z</time>
      </trkpt>
      <trkpt lat="42.63758900575339794158935546875" lon="-0.4414716549217700958251953125">
        <ele>1382.5999755859375</ele>
        <time>2020-08-19T08:51:26.000Z</time>
      </trkpt>
      <trkpt lat="42.63761448673903942108154296875" lon="-0.4414870776236057281494140625">
        <ele>1382.5999755859375</ele>
        <time>2020-08-19T08:51:27.000Z</time>
      </trkpt>
      <trkpt lat="42.6376760937273502349853515625" lon="-0.44155530631542205810546875">
        <ele>1381.5999755859375</ele>
        <time>2020-08-19T08:51:30.000Z</time>
      </trkpt>
      <trkpt lat="42.63768724165856838226318359375" lon="-0.44158749282360076904296875">
        <ele>1381.4000244140625</ele>
        <time>2020-08-19T08:51:31.000Z</time>
      </trkpt>
      <trkpt lat="42.6376764290034770965576171875" lon="-0.44170475564897060394287109375">
        <ele>1380.800048828125</ele>
        <time>2020-08-19T08:51:35.000Z</time>
      </trkpt>
      <trkpt lat="42.637641392648220062255859375" lon="-0.441762842237949371337890625">
        <ele>1380.4000244140625</ele>
        <time>2020-08-19T08:51:37.000Z</time>
      </trkpt>
      <trkpt lat="42.63759076595306396484375" lon="-0.44182612560689449310302734375">
        <ele>1379.4000244140625</ele>
        <time>2020-08-19T08:51:40.000Z</time>
      </trkpt>
      <trkpt lat="42.637572325766086578369140625" lon="-0.44184766709804534912109375">
        <ele>1379.4000244140625</ele>
        <time>2020-08-19T08:51:41.000Z</time>
      </trkpt>
      <trkpt lat="42.637492530047893524169921875" lon="-0.441934503614902496337890625">
        <ele>1379.4000244140625</ele>
        <time>2020-08-19T08:51:45.000Z</time>
      </trkpt>
      <trkpt lat="42.6374177634716033935546875" lon="-0.44206500984728336334228515625">
        <ele>1378</ele>
        <time>2020-08-19T08:51:50.000Z</time>
      </trkpt>
      <trkpt lat="42.6374078728258609771728515625" lon="-0.44208697043359279632568359375">
        <ele>1377.800048828125</ele>
        <time>2020-08-19T08:51:51.000Z</time>
      </trkpt>
      <trkpt lat="42.6373897679150104522705078125" lon="-0.44214271008968353271484375">
        <ele>1377</ele>
        <time>2020-08-19T08:51:53.000Z</time>
      </trkpt>
      <trkpt lat="42.6373599283397197723388671875" lon="-0.44228428043425083160400390625">
        <ele>1375.800048828125</ele>
        <time>2020-08-19T08:51:57.000Z</time>
      </trkpt>
      <trkpt lat="42.63735112734138965606689453125" lon="-0.44250707142055034637451171875">
        <ele>1374.800048828125</ele>
        <time>2020-08-19T08:52:02.000Z</time>
      </trkpt>
      <trkpt lat="42.63735280372202396392822265625" lon="-0.4425577819347381591796875">
        <ele>1374.4000244140625</ele>
        <time>2020-08-19T08:52:03.000Z</time>
      </trkpt>
      <trkpt lat="42.63736068271100521087646484375" lon="-0.4426662437617778778076171875">
        <ele>1373.199951171875</ele>
        <time>2020-08-19T08:52:05.000Z</time>
      </trkpt>
      <trkpt lat="42.637368142604827880859375" lon="-0.44282675720751285552978515625">
        <ele>1372.199951171875</ele>
        <time>2020-08-19T08:52:08.000Z</time>
      </trkpt>
      <trkpt lat="42.63737090863287448883056640625" lon="-0.44287629425525665283203125">
        <ele>1372.199951171875</ele>
        <time>2020-08-19T08:52:09.000Z</time>
      </trkpt>
      <trkpt lat="42.63739890418946743011474609375" lon="-0.443091206252574920654296875">
        <ele>1370.5999755859375</ele>
        <time>2020-08-19T08:52:14.000Z</time>
      </trkpt>
      <trkpt lat="42.6374095492064952850341796875" lon="-0.4431264102458953857421875">
        <ele>1370.199951171875</ele>
        <time>2020-08-19T08:52:15.000Z</time>
      </trkpt>
      <trkpt lat="42.63750300742685794830322265625" lon="-0.4433331079781055450439453125">
        <ele>1370.4000244140625</ele>
        <time>2020-08-19T08:52:21.000Z</time>
      </trkpt>
      <trkpt lat="42.637540139257907867431640625" lon="-0.4434025101363658905029296875">
        <ele>1369</ele>
        <time>2020-08-19T08:52:23.000Z</time>
      </trkpt>
      <trkpt lat="42.63755916617810726165771484375" lon="-0.44343846850097179412841796875">
        <ele>1368</ele>
        <time>2020-08-19T08:52:24.000Z</time>
      </trkpt>
      <trkpt lat="42.63759420253336429595947265625" lon="-0.44351323507726192474365234375">
        <ele>1367.4000244140625</ele>
        <time>2020-08-19T08:52:26.000Z</time>
      </trkpt>
      <trkpt lat="42.6376610063016414642333984375" lon="-0.44364147819578647613525390625">
        <ele>1367</ele>
        <time>2020-08-19T08:52:30.000Z</time>
      </trkpt>
      <trkpt lat="42.637716494500637054443359375" lon="-0.44370585121214389801025390625">
        <ele>1366.4000244140625</ele>
        <time>2020-08-19T08:52:33.000Z</time>
      </trkpt>
      <trkpt lat="42.6377612538635730743408203125" lon="-0.44373099692165851593017578125">
        <ele>1365.800048828125</ele>
        <time>2020-08-19T08:52:35.000Z</time>
      </trkpt>
      <trkpt lat="42.6378656923770904541015625" lon="-0.4437518678605556488037109375">
        <ele>1364.199951171875</ele>
        <time>2020-08-19T08:52:39.000Z</time>
      </trkpt>
      <trkpt lat="42.637978009879589080810546875" lon="-0.44374491088092327117919921875">
        <ele>1363</ele>
        <time>2020-08-19T08:52:43.000Z</time>
      </trkpt>
      <trkpt lat="42.63803659938275814056396484375" lon="-0.44373351149260997772216796875">
        <ele>1362.5999755859375</ele>
        <time>2020-08-19T08:52:45.000Z</time>
      </trkpt>
      <trkpt lat="42.638129554688930511474609375" lon="-0.44371138326823711395263671875">
        <ele>1361.5999755859375</ele>
        <time>2020-08-19T08:52:49.000Z</time>
      </trkpt>
      <trkpt lat="42.638151012361049652099609375" lon="-0.44370367191731929779052734375">
        <ele>1361.4000244140625</ele>
        <time>2020-08-19T08:52:50.000Z</time>
      </trkpt>
      <trkpt lat="42.6381987892091274261474609375" lon="-0.44369696639478206634521484375">
        <ele>1360.4000244140625</ele>
        <time>2020-08-19T08:52:52.000Z</time>
      </trkpt>
      <trkpt lat="42.638332732021808624267578125" lon="-0.4436948709189891815185546875">
        <ele>1359</ele>
        <time>2020-08-19T08:52:57.000Z</time>
      </trkpt>
      <trkpt lat="42.63849592767655849456787109375" lon="-0.44374222867190837860107421875">
        <ele>1357.800048828125</ele>
        <time>2020-08-19T08:53:02.000Z</time>
      </trkpt>
      <trkpt lat="42.6385518349707126617431640625" lon="-0.4437696374952793121337890625">
        <ele>1356.800048828125</ele>
        <time>2020-08-19T08:53:04.000Z</time>
      </trkpt>
      <trkpt lat="42.6386530883610248565673828125" lon="-0.44381783343851566314697265625">
        <ele>1355.4000244140625</ele>
        <time>2020-08-19T08:53:07.000Z</time>
      </trkpt>
      <trkpt lat="42.63874654658138751983642578125" lon="-0.4438400454819202423095703125">
        <ele>1354</ele>
        <time>2020-08-19T08:53:10.000Z</time>
      </trkpt>
      <trkpt lat="42.6388840936124324798583984375" lon="-0.44390433467924594879150390625">
        <ele>1353</ele>
        <time>2020-08-19T08:53:14.000Z</time>
      </trkpt>
      <trkpt lat="42.638981826603412628173828125" lon="-0.44396686367690563201904296875">
        <ele>1351.800048828125</ele>
        <time>2020-08-19T08:53:17.000Z</time>
      </trkpt>
      <trkpt lat="42.63908232562243938446044921875" lon="-0.4440294764935970306396484375">
        <ele>1350.5999755859375</ele>
        <time>2020-08-19T08:53:20.000Z</time>
      </trkpt>
      <trkpt lat="42.6391999237239360809326171875" lon="-0.44407934881746768951416015625">
        <ele>1349.199951171875</ele>
        <time>2020-08-19T08:53:24.000Z</time>
      </trkpt>
      <trkpt lat="42.63928919099271297454833984375" lon="-0.4441005550324916839599609375">
        <ele>1348.199951171875</ele>
        <time>2020-08-19T08:53:27.000Z</time>
      </trkpt>
      <trkpt lat="42.63931634835898876190185546875" lon="-0.4441062547266483306884765625">
        <ele>1347.800048828125</ele>
        <time>2020-08-19T08:53:28.000Z</time>
      </trkpt>
      <trkpt lat="42.63938407413661479949951171875" lon="-0.44412142597138881683349609375">
        <ele>1346.5999755859375</ele>
        <time>2020-08-19T08:53:31.000Z</time>
      </trkpt>
      <trkpt lat="42.639403603971004486083984375" lon="-0.4441293887794017791748046875">
        <ele>1346.5999755859375</ele>
        <time>2020-08-19T08:53:32.000Z</time>
      </trkpt>
      <trkpt lat="42.63945146463811397552490234375" lon="-0.4441790096461772918701171875">
        <ele>1345.5999755859375</ele>
        <time>2020-08-19T08:53:35.000Z</time>
      </trkpt>
      <trkpt lat="42.63946386985480785369873046875" lon="-0.44424212537705898284912109375">
        <ele>1345.4000244140625</ele>
        <time>2020-08-19T08:53:37.000Z</time>
      </trkpt>
      <trkpt lat="42.639428414404392242431640625" lon="-0.44435410760343074798583984375">
        <ele>1344.5999755859375</ele>
        <time>2020-08-19T08:53:41.000Z</time>
      </trkpt>
      <trkpt lat="42.63938315212726593017578125" lon="-0.44437137432396411895751953125">
        <ele>1344</ele>
        <time>2020-08-19T08:53:43.000Z</time>
      </trkpt>
      <trkpt lat="42.6393343694508075714111328125" lon="-0.4443798400461673736572265625">
        <ele>1343.199951171875</ele>
        <time>2020-08-19T08:53:45.000Z</time>
      </trkpt>
      <trkpt lat="42.63931232504546642303466796875" lon="-0.44438528828322887420654296875">
        <ele>1343.199951171875</ele>
        <time>2020-08-19T08:53:46.000Z</time>
      </trkpt>
      <trkpt lat="42.639235965907573699951171875" lon="-0.4444058239459991455078125">
        <ele>1342</ele>
        <time>2020-08-19T08:53:49.000Z</time>
      </trkpt>
      <trkpt lat="42.63918844051659107208251953125" lon="-0.4444200731813907623291015625">
        <ele>1341.5999755859375</ele>
        <time>2020-08-19T08:53:51.000Z</time>
      </trkpt>
      <trkpt lat="42.6390923000872135162353515625" lon="-0.4444502480328083038330078125">
        <ele>1340.800048828125</ele>
        <time>2020-08-19T08:53:55.000Z</time>
      </trkpt>
      <trkpt lat="42.63904653489589691162109375" lon="-0.44447799213230609893798828125">
        <ele>1340</ele>
        <time>2020-08-19T08:53:57.000Z</time>
      </trkpt>
      <trkpt lat="42.63901912607252597808837890625" lon="-0.44449576176702976226806640625">
        <ele>1339.5999755859375</ele>
        <time>2020-08-19T08:53:58.000Z</time>
      </trkpt>
      <trkpt lat="42.63893296010792255401611328125" lon="-0.44456231407821178436279296875">
        <ele>1338.4000244140625</ele>
        <time>2020-08-19T08:54:01.000Z</time>
      </trkpt>
      <trkpt lat="42.63889767229557037353515625" lon="-0.4446091689169406890869140625">
        <ele>1338.5999755859375</ele>
        <time>2020-08-19T08:54:03.000Z</time>
      </trkpt>
      <trkpt lat="42.63880706392228603363037109375" lon="-0.44471452943980693817138671875">
        <ele>1338.4000244140625</ele>
        <time>2020-08-19T08:54:09.000Z</time>
      </trkpt>
      <trkpt lat="42.63879214413464069366455078125" lon="-0.4447409324347972869873046875">
        <ele>1338.199951171875</ele>
        <time>2020-08-19T08:54:13.000Z</time>
      </trkpt>
      <trkpt lat="42.63879449106752872467041015625" lon="-0.4447419382631778717041015625">
        <ele>1338</ele>
        <time>2020-08-19T08:54:28.000Z</time>
      </trkpt>
      <trkpt lat="42.63879432342946529388427734375" lon="-0.44474311172962188720703125">
        <ele>1337.800048828125</ele>
        <time>2020-08-19T08:54:39.000Z</time>
      </trkpt>
      <trkpt lat="42.63879449106752872467041015625" lon="-0.44474537484347820281982421875">
        <ele>1337.800048828125</ele>
        <time>2020-08-19T08:55:06.000Z</time>
      </trkpt>
      <trkpt lat="42.63879440724849700927734375" lon="-0.44474604539573192596435546875">
        <ele>1337.800048828125</ele>
        <time>2020-08-19T08:55:22.000Z</time>
      </trkpt>
      <trkpt lat="42.63879038393497467041015625" lon="-0.44475509785115718841552734375">
        <ele>1338</ele>
        <time>2020-08-19T08:55:31.000Z</time>
      </trkpt>
      <trkpt lat="42.6387695968151092529296875" lon="-0.4447818361222743988037109375">
        <ele>1337.800048828125</ele>
        <time>2020-08-19T08:55:34.000Z</time>
      </trkpt>
      <trkpt lat="42.63872877694666385650634765625" lon="-0.44481125660240650177001953125">
        <ele>1337.800048828125</ele>
        <time>2020-08-19T08:55:36.000Z</time>
      </trkpt>
      <trkpt lat="42.6385924033820629119873046875" lon="-0.4448421858251094818115234375">
        <ele>1337.199951171875</ele>
        <time>2020-08-19T08:55:41.000Z</time>
      </trkpt>
      <trkpt lat="42.63849542476236820220947265625" lon="-0.4448492266237735748291015625">
        <ele>1336.4000244140625</ele>
        <time>2020-08-19T08:55:44.000Z</time>
      </trkpt>
      <trkpt lat="42.638432644307613372802734375" lon="-0.444855429232120513916015625">
        <ele>1335.199951171875</ele>
        <time>2020-08-19T08:55:46.000Z</time>
      </trkpt>
      <trkpt lat="42.63839819468557834625244140625" lon="-0.4448586143553256988525390625">
        <ele>1335</ele>
        <time>2020-08-19T08:55:47.000Z</time>
      </trkpt>
      <trkpt lat="42.6383644156157970428466796875" lon="-0.444860123097896575927734375">
        <ele>1334.199951171875</ele>
        <time>2020-08-19T08:55:48.000Z</time>
      </trkpt>
      <trkpt lat="42.63829560019075870513916015625" lon="-0.44486372731626033782958984375">
        <ele>1333.199951171875</ele>
        <time>2020-08-19T08:55:50.000Z</time>
      </trkpt>
      <trkpt lat="42.63822150416672229766845703125" lon="-0.44487428851425647735595703125">
        <ele>1332.800048828125</ele>
        <time>2020-08-19T08:55:52.000Z</time>
      </trkpt>
      <trkpt lat="42.638101391494274139404296875" lon="-0.4448897950351238250732421875">
        <ele>1331.5999755859375</ele>
        <time>2020-08-19T08:55:55.000Z</time>
      </trkpt>
      <trkpt lat="42.638022266328334808349609375" lon="-0.44490027241408824920654296875">
        <ele>1330</ele>
        <time>2020-08-19T08:55:57.000Z</time>
      </trkpt>
      <trkpt lat="42.63798412866890430450439453125" lon="-0.4449025355279445648193359375">
        <ele>1329.4000244140625</ele>
        <time>2020-08-19T08:55:58.000Z</time>
      </trkpt>
      <trkpt lat="42.6379040814936161041259765625" lon="-0.44491116888821125030517578125">
        <ele>1329</ele>
        <time>2020-08-19T08:56:00.000Z</time>
      </trkpt>
      <trkpt lat="42.6378214359283447265625" lon="-0.44491150416433811187744140625">
        <ele>1329</ele>
        <time>2020-08-19T08:56:02.000Z</time>
      </trkpt>
      <trkpt lat="42.6377391256392002105712890625" lon="-0.44492273591458797454833984375">
        <ele>1329.199951171875</ele>
        <time>2020-08-19T08:56:04.000Z</time>
      </trkpt>
      <trkpt lat="42.63751172460615634918212890625" lon="-0.44492055661976337432861328125">
        <ele>1327.5999755859375</ele>
        <time>2020-08-19T08:56:10.000Z</time>
      </trkpt>
      <trkpt lat="42.63724283315241336822509765625" lon="-0.44490245170891284942626953125">
        <ele>1327</ele>
        <time>2020-08-19T08:56:16.000Z</time>
      </trkpt>
      <trkpt lat="42.63715348206460475921630859375" lon="-0.4448944889008998870849609375">
        <ele>1326.5999755859375</ele>
        <time>2020-08-19T08:56:18.000Z</time>
      </trkpt>
      <trkpt lat="42.6370253227651119232177734375" lon="-0.4448710195720195770263671875">
        <ele>1325</ele>
        <time>2020-08-19T08:56:21.000Z</time>
      </trkpt>
      <trkpt lat="42.6369844190776348114013671875" lon="-0.44485635124146938323974609375">
        <ele>1324.4000244140625</ele>
        <time>2020-08-19T08:56:22.000Z</time>
      </trkpt>
      <trkpt lat="42.63694510795176029205322265625" lon="-0.4448403418064117431640625">
        <ele>1324</ele>
        <time>2020-08-19T08:56:23.000Z</time>
      </trkpt>
      <trkpt lat="42.63680018484592437744140625" lon="-0.44476591050624847412109375">
        <ele>1322.5999755859375</ele>
        <time>2020-08-19T08:56:27.000Z</time>
      </trkpt>
      <trkpt lat="42.6367302797734737396240234375" lon="-0.444731377065181732177734375">
        <ele>1321.5999755859375</ele>
        <time>2020-08-19T08:56:29.000Z</time>
      </trkpt>
      <trkpt lat="42.636694572865962982177734375" lon="-0.44471704401075839996337890625">
        <ele>1321.199951171875</ele>
        <time>2020-08-19T08:56:30.000Z</time>
      </trkpt>
      <trkpt lat="42.636501789093017578125" lon="-0.4446014575660228729248046875">
        <ele>1321.5999755859375</ele>
        <time>2020-08-19T08:56:36.000Z</time>
      </trkpt>
      <trkpt lat="42.6363306306302547454833984375" lon="-0.444428287446498870849609375">
        <ele>1320.800048828125</ele>
        <time>2020-08-19T08:56:42.000Z</time>
      </trkpt>
      <trkpt lat="42.63630590401589870452880859375" lon="-0.44438637793064117431640625">
        <ele>1320.5999755859375</ele>
        <time>2020-08-19T08:56:43.000Z</time>
      </trkpt>
      <trkpt lat="42.6362478174269199371337890625" lon="-0.4442366771399974822998046875">
        <ele>1319.4000244140625</ele>
        <time>2020-08-19T08:56:46.000Z</time>
      </trkpt>
      <trkpt lat="42.6362354122102260589599609375" lon="-0.44418294914066791534423828125">
        <ele>1319</ele>
        <time>2020-08-19T08:56:47.000Z</time>
      </trkpt>
      <trkpt lat="42.63622627593576908111572265625" lon="-0.4441297240555286407470703125">
        <ele>1318.800048828125</ele>
        <time>2020-08-19T08:56:48.000Z</time>
      </trkpt>
      <trkpt lat="42.6362142898142337799072265625" lon="-0.4440288059413433074951171875">
        <ele>1318.199951171875</ele>
        <time>2020-08-19T08:56:50.000Z</time>
      </trkpt>
      <trkpt lat="42.6361893117427825927734375" lon="-0.4439107887446880340576171875">
        <ele>1317</ele>
        <time>2020-08-19T08:56:53.000Z</time>
      </trkpt>
      <trkpt lat="42.63613390736281871795654296875" lon="-0.44390089809894561767578125">
        <ele>1316</ele>
        <time>2020-08-19T08:56:56.000Z</time>
      </trkpt>
      <trkpt lat="42.63609015382826328277587890625" lon="-0.4440217651426792144775390625">
        <ele>1314.800048828125</ele>
        <time>2020-08-19T08:57:01.000Z</time>
      </trkpt>
      <trkpt lat="42.6361002959311008453369140625" lon="-0.444074235856533050537109375">
        <ele>1314.4000244140625</ele>
        <time>2020-08-19T08:57:03.000Z</time>
      </trkpt>
      <trkpt lat="42.63611261732876300811767578125" lon="-0.44414053671061992645263671875">
        <ele>1313.5999755859375</ele>
        <time>2020-08-19T08:57:05.000Z</time>
      </trkpt>
      <trkpt lat="42.6361147128045558929443359375" lon="-0.4441773332655429840087890625">
        <ele>1313.199951171875</ele>
        <time>2020-08-19T08:57:06.000Z</time>
      </trkpt>
      <trkpt lat="42.6361150480806827545166015625" lon="-0.4442878067493438720703125">
        <ele>1312.4000244140625</ele>
        <time>2020-08-19T08:57:09.000Z</time>
      </trkpt>
      <trkpt lat="42.636115550994873046875" lon="-0.44443725608289241790771484375">
        <ele>1311.4000244140625</ele>
        <time>2020-08-19T08:57:13.000Z</time>
      </trkpt>
      <trkpt lat="42.63611647300422191619873046875" lon="-0.444471873342990875244140625">
        <ele>1311</ele>
        <time>2020-08-19T08:57:14.000Z</time>
      </trkpt>
      <trkpt lat="42.636123932898044586181640625" lon="-0.44454689137637615203857421875">
        <ele>1310.199951171875</ele>
        <time>2020-08-19T08:57:16.000Z</time>
      </trkpt>
      <trkpt lat="42.63615637086331844329833984375" lon="-0.4446869529783725738525390625">
        <ele>1309</ele>
        <time>2020-08-19T08:57:20.000Z</time>
      </trkpt>
      <trkpt lat="42.63616718351840972900390625" lon="-0.444720648229122161865234375">
        <ele>1308.5999755859375</ele>
        <time>2020-08-19T08:57:21.000Z</time>
      </trkpt>
      <trkpt lat="42.63620230369269847869873046875" lon="-0.44482014141976833343505859375">
        <ele>1308.199951171875</ele>
        <time>2020-08-19T08:57:24.000Z</time>
      </trkpt>
      <trkpt lat="42.63629324734210968017578125" lon="-0.4449836723506450653076171875">
        <ele>1307</ele>
        <time>2020-08-19T08:57:29.000Z</time>
      </trkpt>
      <trkpt lat="42.636416964232921600341796875" lon="-0.44512138701975345611572265625">
        <ele>1306</ele>
        <time>2020-08-19T08:57:34.000Z</time>
      </trkpt>
      <trkpt lat="42.63649969361722469329833984375" lon="-0.44520185329020023345947265625">
        <ele>1305.199951171875</ele>
        <time>2020-08-19T08:57:37.000Z</time>
      </trkpt>
      <trkpt lat="42.63652266003191471099853515625" lon="-0.44522616080939769744873046875">
        <ele>1304.5999755859375</ele>
        <time>2020-08-19T08:57:38.000Z</time>
      </trkpt>
      <trkpt lat="42.63658535666763782501220703125" lon="-0.44530428014695644378662109375">
        <ele>1303.5999755859375</ele>
        <time>2020-08-19T08:57:41.000Z</time>
      </trkpt>
      <trkpt lat="42.6366343908011913299560546875" lon="-0.445343591272830963134765625">
        <ele>1303</ele>
        <time>2020-08-19T08:57:43.000Z</time>
      </trkpt>
      <trkpt lat="42.63680286705493927001953125" lon="-0.44543218798935413360595703125">
        <ele>1302.5999755859375</ele>
        <time>2020-08-19T08:57:49.000Z</time>
      </trkpt>
      <trkpt lat="42.6368600316345691680908203125" lon="-0.4454668052494525909423828125">
        <ele>1302.4000244140625</ele>
        <time>2020-08-19T08:57:51.000Z</time>
      </trkpt>
      <trkpt lat="42.6369421742856502532958984375" lon="-0.44551315717399120330810546875">
        <ele>1301.199951171875</ele>
        <time>2020-08-19T08:57:54.000Z</time>
      </trkpt>
      <trkpt lat="42.6370243169367313385009765625" lon="-0.4455590061843395233154296875">
        <ele>1299.800048828125</ele>
        <time>2020-08-19T08:57:57.000Z</time>
      </trkpt>
      <trkpt lat="42.637082822620868682861328125" lon="-0.445591025054454803466796875">
        <ele>1299.5999755859375</ele>
        <time>2020-08-19T08:57:59.000Z</time>
      </trkpt>
      <trkpt lat="42.637285329401493072509765625" lon="-0.4456914402544498443603515625">
        <ele>1298.800048828125</ele>
        <time>2020-08-19T08:58:06.000Z</time>
      </trkpt>
      <trkpt lat="42.63743109069764614105224609375" lon="-0.4457497783005237579345703125">
        <ele>1297.5999755859375</ele>
        <time>2020-08-19T08:58:11.000Z</time>
      </trkpt>
      <trkpt lat="42.6374900154769420623779296875" lon="-0.445766709744930267333984375">
        <ele>1297</ele>
        <time>2020-08-19T08:58:13.000Z</time>
      </trkpt>
      <trkpt lat="42.63762152753770351409912109375" lon="-0.44581473805010318756103515625">
        <ele>1296.5999755859375</ele>
        <time>2020-08-19T08:58:17.000Z</time>
      </trkpt>
      <trkpt lat="42.63769445009529590606689453125" lon="-0.44584072194993495941162109375">
        <ele>1295.5999755859375</ele>
        <time>2020-08-19T08:58:19.000Z</time>
      </trkpt>
      <trkpt lat="42.6377314142882823944091796875" lon="-0.4458527080714702606201171875">
        <ele>1295</ele>
        <time>2020-08-19T08:58:20.000Z</time>
      </trkpt>
      <trkpt lat="42.6379081048071384429931640625" lon="-0.44590492732822895050048828125">
        <ele>1294</ele>
        <time>2020-08-19T08:58:25.000Z</time>
      </trkpt>
      <trkpt lat="42.63794012367725372314453125" lon="-0.4459130577743053436279296875">
        <ele>1293.5999755859375</ele>
        <time>2020-08-19T08:58:26.000Z</time>
      </trkpt>
      <trkpt lat="42.63799787499010562896728515625" lon="-0.4459368623793125152587890625">
        <ele>1293</ele>
        <time>2020-08-19T08:58:28.000Z</time>
      </trkpt>
      <trkpt lat="42.63809191994369029998779296875" lon="-0.4459683783352375030517578125">
        <ele>1292.4000244140625</ele>
        <time>2020-08-19T08:58:31.000Z</time>
      </trkpt>
      <trkpt lat="42.6382789202034473419189453125" lon="-0.446075499057769775390625">
        <ele>1291.4000244140625</ele>
        <time>2020-08-19T08:58:37.000Z</time>
      </trkpt>
      <trkpt lat="42.63837137259542942047119140625" lon="-0.4461085237562656402587890625">
        <ele>1290</ele>
        <time>2020-08-19T08:58:40.000Z</time>
      </trkpt>
      <trkpt lat="42.63848125934600830078125" lon="-0.44615940190851688385009765625">
        <ele>1289.199951171875</ele>
        <time>2020-08-19T08:58:44.000Z</time>
      </trkpt>
      <trkpt lat="42.6385015435516834259033203125" lon="-0.44617851264774799346923828125">
        <ele>1288.800048828125</ele>
        <time>2020-08-19T08:58:45.000Z</time>
      </trkpt>
      <trkpt lat="42.63851855881512165069580078125" lon="-0.44620399363338947296142578125">
        <ele>1288.5999755859375</ele>
        <time>2020-08-19T08:58:46.000Z</time>
      </trkpt>
      <trkpt lat="42.6385295391082763671875" lon="-0.44627440162003040313720703125">
        <ele>1287.5999755859375</ele>
        <time>2020-08-19T08:58:48.000Z</time>
      </trkpt>
      <trkpt lat="42.6385256834328174591064453125" lon="-0.44630306772887706756591796875">
        <ele>1287.199951171875</ele>
        <time>2020-08-19T08:58:49.000Z</time>
      </trkpt>
      <trkpt lat="42.63847866095602512359619140625" lon="-0.44637330807745456695556640625">
        <ele>1286.4000244140625</ele>
        <time>2020-08-19T08:58:53.000Z</time>
      </trkpt>
      <trkpt lat="42.63846642337739467620849609375" lon="-0.446378923952579498291015625">
        <ele>1286.4000244140625</ele>
        <time>2020-08-19T08:58:54.000Z</time>
      </trkpt>
      <trkpt lat="42.6383741386234760284423828125" lon="-0.446327961981296539306640625">
        <ele>1285.5999755859375</ele>
        <time>2020-08-19T08:58:59.000Z</time>
      </trkpt>
      <trkpt lat="42.638349831104278564453125" lon="-0.44631421566009521484375">
        <ele>1285.4000244140625</ele>
        <time>2020-08-19T08:59:00.000Z</time>
      </trkpt>
      <trkpt lat="42.63830012641847133636474609375" lon="-0.4462842084467411041259765625">
        <ele>1284.4000244140625</ele>
        <time>2020-08-19T08:59:02.000Z</time>
      </trkpt>
      <trkpt lat="42.638272382318973541259765625" lon="-0.44626819901168346405029296875">
        <ele>1284.199951171875</ele>
        <time>2020-08-19T08:59:03.000Z</time>
      </trkpt>
      <trkpt lat="42.63818143866956233978271484375" lon="-0.44622897170484066009521484375">
        <ele>1283.199951171875</ele>
        <time>2020-08-19T08:59:06.000Z</time>
      </trkpt>
      <trkpt lat="42.63814908452332019805908203125" lon="-0.44622075743973255157470703125">
        <ele>1283</ele>
        <time>2020-08-19T08:59:07.000Z</time>
      </trkpt>
      <trkpt lat="42.63802369125187397003173828125" lon="-0.44621296226978302001953125">
        <ele>1281.800048828125</ele>
        <time>2020-08-19T08:59:11.000Z</time>
      </trkpt>
      <trkpt lat="42.63793769292533397674560546875" lon="-0.44622042216360569000244140625">
        <ele>1281.4000244140625</ele>
        <time>2020-08-19T08:59:14.000Z</time>
      </trkpt>
      <trkpt lat="42.63786711730062961578369140625" lon="-0.4462282173335552215576171875">
        <ele>1280.4000244140625</ele>
        <time>2020-08-19T08:59:17.000Z</time>
      </trkpt>
      <trkpt lat="42.63780827634036540985107421875" lon="-0.4462359286844730377197265625">
        <ele>1280.4000244140625</ele>
        <time>2020-08-19T08:59:19.000Z</time>
      </trkpt>
      <trkpt lat="42.63770970515906810760498046875" lon="-0.4462614096701145172119140625">
        <ele>1279.5999755859375</ele>
        <time>2020-08-19T08:59:22.000Z</time>
      </trkpt>
      <trkpt lat="42.63763141818344593048095703125" lon="-0.44626928865909576416015625">
        <ele>1279</ele>
        <time>2020-08-19T08:59:24.000Z</time>
      </trkpt>
      <trkpt lat="42.6375533826649188995361328125" lon="-0.4462780058383941650390625">
        <ele>1278.199951171875</ele>
        <time>2020-08-19T08:59:26.000Z</time>
      </trkpt>
      <trkpt lat="42.637332938611507415771484375" lon="-0.44626551680266857147216796875">
        <ele>1277.5999755859375</ele>
        <time>2020-08-19T08:59:32.000Z</time>
      </trkpt>
      <trkpt lat="42.637237720191478729248046875" lon="-0.44625545851886272430419921875">
        <ele>1277</ele>
        <time>2020-08-19T08:59:35.000Z</time>
      </trkpt>
      <trkpt lat="42.637148536741733551025390625" lon="-0.446243472397327423095703125">
        <ele>1275.199951171875</ele>
        <time>2020-08-19T08:59:38.000Z</time>
      </trkpt>
      <trkpt lat="42.637126743793487548828125" lon="-0.44623701833188533782958984375">
        <ele>1274.5999755859375</ele>
        <time>2020-08-19T08:59:39.000Z</time>
      </trkpt>
      <trkpt lat="42.6369981653988361358642578125" lon="-0.44619225896894931793212890625">
        <ele>1274</ele>
        <time>2020-08-19T08:59:44.000Z</time>
      </trkpt>
      <trkpt lat="42.6369663141667842864990234375" lon="-0.44618345797061920166015625">
        <ele>1274</ele>
        <time>2020-08-19T08:59:45.000Z</time>
      </trkpt>
      <trkpt lat="42.6368006877601146697998046875" lon="-0.44613123871386051177978515625">
        <ele>1273.199951171875</ele>
        <time>2020-08-19T08:59:50.000Z</time>
      </trkpt>
      <trkpt lat="42.6367386616766452789306640625" lon="-0.44610391370952129364013671875">
        <ele>1272.4000244140625</ele>
        <time>2020-08-19T08:59:52.000Z</time>
      </trkpt>
      <trkpt lat="42.636673785746097564697265625" lon="-0.44607575051486492156982421875">
        <ele>1272.199951171875</ele>
        <time>2020-08-19T08:59:54.000Z</time>
      </trkpt>
      <trkpt lat="42.636530287563800811767578125" lon="-0.44604004360735416412353515625">
        <ele>1271.4000244140625</ele>
        <time>2020-08-19T08:59:58.000Z</time>
      </trkpt>
      <trkpt lat="42.6364523358643054962158203125" lon="-0.44603702612221240997314453125">
        <ele>1271</ele>
        <time>2020-08-19T09:00:00.000Z</time>
      </trkpt>
      <trkpt lat="42.6363145373761653900146484375" lon="-0.4460280574858188629150390625">
        <ele>1269.199951171875</ele>
        <time>2020-08-19T09:00:04.000Z</time>
      </trkpt>
      <trkpt lat="42.63628184795379638671875" lon="-0.4460243694484233856201171875">
        <ele>1268.4000244140625</ele>
        <time>2020-08-19T09:00:05.000Z</time>
      </trkpt>
      <trkpt lat="42.63624957762658596038818359375" lon="-0.4460186697542667388916015625">
        <ele>1268.199951171875</ele>
        <time>2020-08-19T09:00:06.000Z</time>
      </trkpt>
      <trkpt lat="42.63610658235847949981689453125" lon="-0.445995368063449859619140625">
        <ele>1267</ele>
        <time>2020-08-19T09:00:11.000Z</time>
      </trkpt>
      <trkpt lat="42.63607875443994998931884765625" lon="-0.4459915123879909515380859375">
        <ele>1266.800048828125</ele>
        <time>2020-08-19T09:00:12.000Z</time>
      </trkpt>
      <trkpt lat="42.63587071560323238372802734375" lon="-0.445941053330898284912109375">
        <ele>1265.5999755859375</ele>
        <time>2020-08-19T09:00:19.000Z</time>
      </trkpt>
      <trkpt lat="42.635838948190212249755859375" lon="-0.44593133032321929931640625">
        <ele>1265.4000244140625</ele>
        <time>2020-08-19T09:00:20.000Z</time>
      </trkpt>
      <trkpt lat="42.6356969587504863739013671875" lon="-0.4458624310791492462158203125">
        <ele>1264.5999755859375</ele>
        <time>2020-08-19T09:00:25.000Z</time>
      </trkpt>
      <trkpt lat="42.63566770590841770172119140625" lon="-0.44584415853023529052734375">
        <ele>1264.4000244140625</ele>
        <time>2020-08-19T09:00:26.000Z</time>
      </trkpt>
      <trkpt lat="42.63559159822762012481689453125" lon="-0.4458000697195529937744140625">
        <ele>1263</ele>
        <time>2020-08-19T09:00:29.000Z</time>
      </trkpt>
      <trkpt lat="42.6355517841875553131103515625" lon="-0.4457947053015232086181640625">
        <ele>1262.800048828125</ele>
        <time>2020-08-19T09:00:31.000Z</time>
      </trkpt>
      <trkpt lat="42.63553560711443424224853515625" lon="-0.44580350629985332489013671875">
        <ele>1262.800048828125</ele>
        <time>2020-08-19T09:00:32.000Z</time>
      </trkpt>
      <trkpt lat="42.635506354272365570068359375" lon="-0.44586251489818096160888671875">
        <ele>1262.199951171875</ele>
        <time>2020-08-19T09:00:35.000Z</time>
      </trkpt>
      <trkpt lat="42.63550375588238239288330078125" lon="-0.44588481076061725616455078125">
        <ele>1262</ele>
        <time>2020-08-19T09:00:36.000Z</time>
      </trkpt>
      <trkpt lat="42.63553376309573650360107421875" lon="-0.4459643550217151641845703125">
        <ele>1261</ele>
        <time>2020-08-19T09:00:40.000Z</time>
      </trkpt>
      <trkpt lat="42.6355752535164356231689453125" lon="-0.44599830172955989837646484375">
        <ele>1260.199951171875</ele>
        <time>2020-08-19T09:00:43.000Z</time>
      </trkpt>
      <trkpt lat="42.63559511862695217132568359375" lon="-0.4460102878510951995849609375">
        <ele>1259.800048828125</ele>
        <time>2020-08-19T09:00:44.000Z</time>
      </trkpt>
      <trkpt lat="42.63563585467636585235595703125" lon="-0.44603836722671985626220703125">
        <ele>1259.4000244140625</ele>
        <time>2020-08-19T09:00:46.000Z</time>
      </trkpt>
      <trkpt lat="42.6356555521488189697265625" lon="-0.44605471193790435791015625">
        <ele>1258.800048828125</ele>
        <time>2020-08-19T09:00:47.000Z</time>
      </trkpt>
      <trkpt lat="42.63572436757385730743408203125" lon="-0.44609670527279376983642578125">
        <ele>1258.4000244140625</ele>
        <time>2020-08-19T09:00:50.000Z</time>
      </trkpt>
      <trkpt lat="42.63582159765064716339111328125" lon="-0.446148253977298736572265625">
        <ele>1257.5999755859375</ele>
        <time>2020-08-19T09:00:54.000Z</time>
      </trkpt>
      <trkpt lat="42.635839618742465972900390625" lon="-0.44615328311920166015625">
        <ele>1256.199951171875</ele>
        <time>2020-08-19T09:00:56.000Z</time>
      </trkpt>
      <trkpt lat="42.63583660125732421875" lon="-0.4461480863392353057861328125">
        <ele>1255.5999755859375</ele>
        <time>2020-08-19T09:00:58.000Z</time>
      </trkpt>
      <trkpt lat="42.63583785854279994964599609375" lon="-0.4461477510631084442138671875">
        <ele>1256</ele>
        <time>2020-08-19T09:01:11.000Z</time>
      </trkpt>
      <trkpt lat="42.635838277637958526611328125" lon="-0.44614800252020359039306640625">
        <ele>1256</ele>
        <time>2020-08-19T09:01:26.000Z</time>
      </trkpt>
      <trkpt lat="42.6358384452760219573974609375" lon="-0.4461490921676158905029296875">
        <ele>1255.5999755859375</ele>
        <time>2020-08-19T09:01:43.000Z</time>
      </trkpt>
      <trkpt lat="42.63583819381892681121826171875" lon="-0.4461480863392353057861328125">
        <ele>1256.199951171875</ele>
        <time>2020-08-19T09:01:53.000Z</time>
      </trkpt>
      <trkpt lat="42.635846324265003204345703125" lon="-0.44615437276661396026611328125">
        <ele>1255.800048828125</ele>
        <time>2020-08-19T09:02:17.000Z</time>
      </trkpt>
      <trkpt lat="42.63593114912509918212890625" lon="-0.44619225896894931793212890625">
        <ele>1255.4000244140625</ele>
        <time>2020-08-19T09:02:22.000Z</time>
      </trkpt>
      <trkpt lat="42.63595956377685070037841796875" lon="-0.44620717875659465789794921875">
        <ele>1255.199951171875</ele>
        <time>2020-08-19T09:02:23.000Z</time>
      </trkpt>
      <trkpt lat="42.63608805835247039794921875" lon="-0.44627289287745952606201171875">
        <ele>1254</ele>
        <time>2020-08-19T09:02:27.000Z</time>
      </trkpt>
      <trkpt lat="42.63619744218885898590087890625" lon="-0.4463262856006622314453125">
        <ele>1253</ele>
        <time>2020-08-19T09:02:31.000Z</time>
      </trkpt>
      <trkpt lat="42.636275477707386016845703125" lon="-0.44636660255491733551025390625">
        <ele>1252.800048828125</ele>
        <time>2020-08-19T09:02:34.000Z</time>
      </trkpt>
      <trkpt lat="42.63640145771205425262451171875" lon="-0.44643583707511425018310546875">
        <ele>1252.199951171875</ele>
        <time>2020-08-19T09:02:40.000Z</time>
      </trkpt>
      <trkpt lat="42.63654244132339954376220703125" lon="-0.44648830778896808624267578125">
        <ele>1252</ele>
        <time>2020-08-19T09:02:46.000Z</time>
      </trkpt>
      <trkpt lat="42.636564485728740692138671875" lon="-0.44649870134890079498291015625">
        <ele>1252</ele>
        <time>2020-08-19T09:02:47.000Z</time>
      </trkpt>
      <trkpt lat="42.63665475882589817047119140625" lon="-0.4465792514383792877197265625">
        <ele>1251</ele>
        <time>2020-08-19T09:02:51.000Z</time>
      </trkpt>
      <trkpt lat="42.63667814433574676513671875" lon="-0.4466017149388790130615234375">
        <ele>1250.800048828125</ele>
        <time>2020-08-19T09:02:52.000Z</time>
      </trkpt>
      <trkpt lat="42.63672265224158763885498046875" lon="-0.44664672575891017913818359375">
        <ele>1249.800048828125</ele>
        <time>2020-08-19T09:02:54.000Z</time>
      </trkpt>
      <trkpt lat="42.6368104107677936553955078125" lon="-0.44673054479062557220458984375">
        <ele>1248.4000244140625</ele>
        <time>2020-08-19T09:02:58.000Z</time>
      </trkpt>
      <trkpt lat="42.63683061115443706512451171875" lon="-0.4467495717108249664306640625">
        <ele>1247.800048828125</ele>
        <time>2020-08-19T09:02:59.000Z</time>
      </trkpt>
      <trkpt lat="42.63685056008398532867431640625" lon="-0.4467670060694217681884765625">
        <ele>1247.4000244140625</ele>
        <time>2020-08-19T09:03:00.000Z</time>
      </trkpt>
      <trkpt lat="42.63689297251403331756591796875" lon="-0.44680397026240825653076171875">
        <ele>1246.4000244140625</ele>
        <time>2020-08-19T09:03:02.000Z</time>
      </trkpt>
      <trkpt lat="42.636961452662944793701171875" lon="-0.446870438754558563232421875">
        <ele>1245.4000244140625</ele>
        <time>2020-08-19T09:03:05.000Z</time>
      </trkpt>
      <trkpt lat="42.63701652176678180694580078125" lon="-0.44692014344036579132080078125">
        <ele>1244.800048828125</ele>
        <time>2020-08-19T09:03:07.000Z</time>
      </trkpt>
      <trkpt lat="42.63709967024624347686767578125" lon="-0.44699172489345073699951171875">
        <ele>1244.199951171875</ele>
        <time>2020-08-19T09:03:10.000Z</time>
      </trkpt>
      <trkpt lat="42.63720243237912654876708984375" lon="-0.4470747895538806915283203125">
        <ele>1243</ele>
        <time>2020-08-19T09:03:14.000Z</time>
      </trkpt>
      <trkpt lat="42.63723076321184635162353515625" lon="-0.4470949061214923858642578125">
        <ele>1242.800048828125</ele>
        <time>2020-08-19T09:03:15.000Z</time>
      </trkpt>
      <trkpt lat="42.6373934559524059295654296875" lon="-0.44719138182699680328369140625">
        <ele>1241.800048828125</ele>
        <time>2020-08-19T09:03:21.000Z</time>
      </trkpt>
      <trkpt lat="42.637442909181118011474609375" lon="-0.44720630161464214324951171875">
        <ele>1241.5999755859375</ele>
        <time>2020-08-19T09:03:23.000Z</time>
      </trkpt>
      <trkpt lat="42.6375116407871246337890625" lon="-0.44723412953317165374755859375">
        <ele>1240.800048828125</ele>
        <time>2020-08-19T09:03:26.000Z</time>
      </trkpt>
      <trkpt lat="42.637568973004817962646484375" lon="-0.44725776650011539459228515625">
        <ele>1240.5999755859375</ele>
        <time>2020-08-19T09:03:29.000Z</time>
      </trkpt>
      <trkpt lat="42.637666203081607818603515625" lon="-0.44730051420629024505615234375">
        <ele>1239.5999755859375</ele>
        <time>2020-08-19T09:03:34.000Z</time>
      </trkpt>
      <trkpt lat="42.6377226971089839935302734375" lon="-0.4473245702683925628662109375">
        <ele>1238.800048828125</ele>
        <time>2020-08-19T09:03:37.000Z</time>
      </trkpt>
      <trkpt lat="42.63774474151432514190673828125" lon="-0.4473321139812469482421875">
        <ele>1238.5999755859375</ele>
        <time>2020-08-19T09:03:38.000Z</time>
      </trkpt>
      <trkpt lat="42.63782537542283535003662109375" lon="-0.44736186973750591278076171875">
        <ele>1237.5999755859375</ele>
        <time>2020-08-19T09:03:42.000Z</time>
      </trkpt>
      <trkpt lat="42.6378420554101467132568359375" lon="-0.44736740179359912872314453125">
        <ele>1237.4000244140625</ele>
        <time>2020-08-19T09:03:43.000Z</time>
      </trkpt>
      <trkpt lat="42.63791489414870738983154296875" lon="-0.4474083893001079559326171875">
        <ele>1236.5999755859375</ele>
        <time>2020-08-19T09:03:47.000Z</time>
      </trkpt>
      <trkpt lat="42.63794858939945697784423828125" lon="-0.44742825441062450408935546875">
        <ele>1234.800048828125</ele>
        <time>2020-08-19T09:03:49.000Z</time>
      </trkpt>
      <trkpt lat="42.6380160637199878692626953125" lon="-0.44749732129275798797607421875">
        <ele>1233.4000244140625</ele>
        <time>2020-08-19T09:03:54.000Z</time>
      </trkpt>
      <trkpt lat="42.63802385888993740081787109375" lon="-0.44752196408808231353759765625">
        <ele>1233</ele>
        <time>2020-08-19T09:03:55.000Z</time>
      </trkpt>
      <trkpt lat="42.63802193105220794677734375" lon="-0.447606034576892852783203125">
        <ele>1232.4000244140625</ele>
        <time>2020-08-19T09:03:58.000Z</time>
      </trkpt>
      <trkpt lat="42.63801212422549724578857421875" lon="-0.447625815868377685546875">
        <ele>1232.4000244140625</ele>
        <time>2020-08-19T09:03:59.000Z</time>
      </trkpt>
      <trkpt lat="42.637880779802799224853515625" lon="-0.44775464572012424468994140625">
        <ele>1233.199951171875</ele>
        <time>2020-08-19T09:04:07.000Z</time>
      </trkpt>
      <trkpt lat="42.63775496743619441986083984375" lon="-0.44784483499825000762939453125">
        <ele>1233.800048828125</ele>
        <time>2020-08-19T09:04:14.000Z</time>
      </trkpt>
      <trkpt lat="42.63758003711700439453125" lon="-0.4479575715959072113037109375">
        <ele>1233.800048828125</ele>
        <time>2020-08-19T09:04:22.000Z</time>
      </trkpt>
      <trkpt lat="42.637409381568431854248046875" lon="-0.44811104424297809600830078125">
        <ele>1233.4000244140625</ele>
        <time>2020-08-19T09:04:30.000Z</time>
      </trkpt>
      <trkpt lat="42.63730888254940509796142578125" lon="-0.4481932707130908966064453125">
        <ele>1234.199951171875</ele>
        <time>2020-08-19T09:04:36.000Z</time>
      </trkpt>
      <trkpt lat="42.6372512988746166229248046875" lon="-0.4482318274676799774169921875">
        <ele>1234.4000244140625</ele>
        <time>2020-08-19T09:04:39.000Z</time>
      </trkpt>
      <trkpt lat="42.6372030191123485565185546875" lon="-0.4482603259384632110595703125">
        <ele>1235</ele>
        <time>2020-08-19T09:04:42.000Z</time>
      </trkpt>
      <trkpt lat="42.6371101476252079010009765625" lon="-0.44830634258687496185302734375">
        <ele>1235.800048828125</ele>
        <time>2020-08-19T09:04:48.000Z</time>
      </trkpt>
      <trkpt lat="42.63709112070500850677490234375" lon="-0.44831438921391963958740234375">
        <ele>1235.800048828125</ele>
        <time>2020-08-19T09:04:49.000Z</time>
      </trkpt>
      <trkpt lat="42.63691510073840618133544921875" lon="-0.448344312608242034912109375">
        <ele>1235.5999755859375</ele>
        <time>2020-08-19T09:04:56.000Z</time>
      </trkpt>
      <trkpt lat="42.63666607439517974853515625" lon="-0.44835470616817474365234375">
        <ele>1234.800048828125</ele>
        <time>2020-08-19T09:05:03.000Z</time>
      </trkpt>
      <trkpt lat="42.6366327144205570220947265625" lon="-0.4483542032539844512939453125">
        <ele>1234.5999755859375</ele>
        <time>2020-08-19T09:05:04.000Z</time>
      </trkpt>
      <trkpt lat="42.63650673441588878631591796875" lon="-0.44833467341959476470947265625">
        <ele>1233.5999755859375</ele>
        <time>2020-08-19T09:05:08.000Z</time>
      </trkpt>
      <trkpt lat="42.6364736258983612060546875" lon="-0.44833081774413585662841796875">
        <ele>1233.5999755859375</ele>
        <time>2020-08-19T09:05:09.000Z</time>
      </trkpt>
      <trkpt lat="42.63633389957249164581298828125" lon="-0.4483360983431339263916015625">
        <ele>1232.4000244140625</ele>
        <time>2020-08-19T09:05:13.000Z</time>
      </trkpt>
      <trkpt lat="42.6362590491771697998046875" lon="-0.4483588971197605133056640625">
        <ele>1231.5999755859375</ele>
        <time>2020-08-19T09:05:15.000Z</time>
      </trkpt>
      <trkpt lat="42.63622208498418331146240234375" lon="-0.44836970977485179901123046875">
        <ele>1230.800048828125</ele>
        <time>2020-08-19T09:05:16.000Z</time>
      </trkpt>
      <trkpt lat="42.636146061122417449951171875" lon="-0.4483951069414615631103515625">
        <ele>1229.800048828125</ele>
        <time>2020-08-19T09:05:18.000Z</time>
      </trkpt>
      <trkpt lat="42.63600482605397701263427734375" lon="-0.4484613239765167236328125">
        <ele>1229</ele>
        <time>2020-08-19T09:05:22.000Z</time>
      </trkpt>
      <trkpt lat="42.63593249022960662841796875" lon="-0.44850616715848445892333984375">
        <ele>1228.5999755859375</ele>
        <time>2020-08-19T09:05:24.000Z</time>
      </trkpt>
      <trkpt lat="42.63582712970674037933349609375" lon="-0.44856819324195384979248046875">
        <ele>1227.199951171875</ele>
        <time>2020-08-19T09:05:27.000Z</time>
      </trkpt>
      <trkpt lat="42.63570022769272327423095703125" lon="-0.448641367256641387939453125">
        <ele>1226</ele>
        <time>2020-08-19T09:05:31.000Z</time>
      </trkpt>
      <trkpt lat="42.6356423087418079376220703125" lon="-0.44867581687867641448974609375">
        <ele>1224.800048828125</ele>
        <time>2020-08-19T09:05:33.000Z</time>
      </trkpt>
      <trkpt lat="42.635555975139141082763671875" lon="-0.44872879050672054290771484375">
        <ele>1223.5999755859375</ele>
        <time>2020-08-19T09:05:36.000Z</time>
      </trkpt>
      <trkpt lat="42.63546905480325222015380859375" lon="-0.4487870447337627410888671875">
        <ele>1222.5999755859375</ele>
        <time>2020-08-19T09:05:39.000Z</time>
      </trkpt>
      <trkpt lat="42.63544038869440555572509765625" lon="-0.448806993663311004638671875">
        <ele>1222.199951171875</ele>
        <time>2020-08-19T09:05:40.000Z</time>
      </trkpt>
      <trkpt lat="42.6353348605334758758544921875" lon="-0.44886139221489429473876953125">
        <ele>1221.4000244140625</ele>
        <time>2020-08-19T09:05:44.000Z</time>
      </trkpt>
      <trkpt lat="42.635283730924129486083984375" lon="-0.44888905249536037445068359375">
        <ele>1220.800048828125</ele>
        <time>2020-08-19T09:05:46.000Z</time>
      </trkpt>
      <trkpt lat="42.63526202179491519927978515625" lon="-0.44890766032040119171142578125">
        <ele>1220.4000244140625</ele>
        <time>2020-08-19T09:05:47.000Z</time>
      </trkpt>
      <trkpt lat="42.63521709479391574859619140625" lon="-0.44894353486597537994384765625">
        <ele>1219.4000244140625</ele>
        <time>2020-08-19T09:05:49.000Z</time>
      </trkpt>
      <trkpt lat="42.63515540398657321929931640625" lon="-0.44900916516780853271484375">
        <ele>1218</ele>
        <time>2020-08-19T09:05:52.000Z</time>
      </trkpt>
      <trkpt lat="42.63513595797121524810791015625" lon="-0.449035651981830596923828125">
        <ele>1217.5999755859375</ele>
        <time>2020-08-19T09:05:53.000Z</time>
      </trkpt>
      <trkpt lat="42.63507594354450702667236328125" lon="-0.44913916848599910736083984375">
        <ele>1217</ele>
        <time>2020-08-19T09:05:56.000Z</time>
      </trkpt>
      <trkpt lat="42.6350223831832408905029296875" lon="-0.4492270946502685546875">
        <ele>1215.5999755859375</ele>
        <time>2020-08-19T09:05:59.000Z</time>
      </trkpt>
      <trkpt lat="42.63496144674718379974365234375" lon="-0.44933279044926166534423828125">
        <ele>1214.5999755859375</ele>
        <time>2020-08-19T09:06:02.000Z</time>
      </trkpt>
      <trkpt lat="42.6349152624607086181640625" lon="-0.4493992589414119720458984375">
        <ele>1212.5999755859375</ele>
        <time>2020-08-19T09:06:04.000Z</time>
      </trkpt>
      <trkpt lat="42.6348902843892574310302734375" lon="-0.44943354092538356781005859375">
        <ele>1212</ele>
        <time>2020-08-19T09:06:05.000Z</time>
      </trkpt>
      <trkpt lat="42.6348399929702281951904296875" lon="-0.4494953155517578125">
        <ele>1211.4000244140625</ele>
        <time>2020-08-19T09:06:07.000Z</time>
      </trkpt>
      <trkpt lat="42.63475860469043254852294921875" lon="-0.44954099692404270172119140625">
        <ele>1211</ele>
        <time>2020-08-19T09:06:10.000Z</time>
      </trkpt>
      <trkpt lat="42.63470814563333988189697265625" lon="-0.4495793022215366363525390625">
        <ele>1210.199951171875</ele>
        <time>2020-08-19T09:06:12.000Z</time>
      </trkpt>
      <trkpt lat="42.634669505059719085693359375" lon="-0.4496443457901477813720703125">
        <ele>1209.800048828125</ele>
        <time>2020-08-19T09:06:14.000Z</time>
      </trkpt>
      <trkpt lat="42.6346532441675662994384765625" lon="-0.44968617148697376251220703125">
        <ele>1209.199951171875</ele>
        <time>2020-08-19T09:06:15.000Z</time>
      </trkpt>
      <trkpt lat="42.6346063055098056793212890625" lon="-0.44986621476709842681884765625">
        <ele>1207.800048828125</ele>
        <time>2020-08-19T09:06:19.000Z</time>
      </trkpt>
      <trkpt lat="42.6345985941588878631591796875" lon="-0.44991130940616130828857421875">
        <ele>1207.5999755859375</ele>
        <time>2020-08-19T09:06:20.000Z</time>
      </trkpt>
      <trkpt lat="42.63458602130413055419921875" lon="-0.45001423917710781097412109375">
        <ele>1206.4000244140625</ele>
        <time>2020-08-19T09:06:22.000Z</time>
      </trkpt>
      <trkpt lat="42.63457604683935642242431640625" lon="-0.45007400214672088623046875">
        <ele>1205.800048828125</ele>
        <time>2020-08-19T09:06:23.000Z</time>
      </trkpt>
      <trkpt lat="42.63455442152917385101318359375" lon="-0.45017081312835216522216796875">
        <ele>1205</ele>
        <time>2020-08-19T09:06:25.000Z</time>
      </trkpt>
      <trkpt lat="42.63450664468109607696533203125" lon="-0.450307689607143402099609375">
        <ele>1203.4000244140625</ele>
        <time>2020-08-19T09:06:28.000Z</time>
      </trkpt>
      <trkpt lat="42.63445727527141571044921875" lon="-0.4503898322582244873046875">
        <ele>1203</ele>
        <time>2020-08-19T09:06:30.000Z</time>
      </trkpt>
      <trkpt lat="42.634355686604976654052734375" lon="-0.45058806426823139190673828125">
        <ele>1202</ele>
        <time>2020-08-19T09:06:35.000Z</time>
      </trkpt>
      <trkpt lat="42.63436339795589447021484375" lon="-0.45076743699610233306884765625">
        <ele>1201.4000244140625</ele>
        <time>2020-08-19T09:06:39.000Z</time>
      </trkpt>
      <trkpt lat="42.63439348898828029632568359375" lon="-0.4508409462869167327880859375">
        <ele>1200.5999755859375</ele>
        <time>2020-08-19T09:06:41.000Z</time>
      </trkpt>
      <trkpt lat="42.63443036936223506927490234375" lon="-0.4508875496685504913330078125">
        <ele>1199.800048828125</ele>
        <time>2020-08-19T09:06:43.000Z</time>
      </trkpt>
      <trkpt lat="42.63445015065371990203857421875" lon="-0.4509113542735576629638671875">
        <ele>1199.5999755859375</ele>
        <time>2020-08-19T09:06:44.000Z</time>
      </trkpt>
      <trkpt lat="42.6345370709896087646484375" lon="-0.450976230204105377197265625">
        <ele>1198.4000244140625</ele>
        <time>2020-08-19T09:06:47.000Z</time>
      </trkpt>
      <trkpt lat="42.63462952338159084320068359375" lon="-0.45106968842446804046630859375">
        <ele>1197.199951171875</ele>
        <time>2020-08-19T09:06:50.000Z</time>
      </trkpt>
      <trkpt lat="42.6347015239298343658447265625" lon="-0.451160632073879241943359375">
        <ele>1196.199951171875</ele>
        <time>2020-08-19T09:06:52.000Z</time>
      </trkpt>
      <trkpt lat="42.6347350515425205230712890625" lon="-0.45120178721845149993896484375">
        <ele>1195.5999755859375</ele>
        <time>2020-08-19T09:06:53.000Z</time>
      </trkpt>
      <trkpt lat="42.63483169488608837127685546875" lon="-0.45131678692996501922607421875">
        <ele>1194.4000244140625</ele>
        <time>2020-08-19T09:06:56.000Z</time>
      </trkpt>
      <trkpt lat="42.634855248034000396728515625" lon="-0.45135685242712497711181640625">
        <ele>1194</ele>
        <time>2020-08-19T09:06:57.000Z</time>
      </trkpt>
      <trkpt lat="42.63490461744368076324462890625" lon="-0.4514518193900585174560546875">
        <ele>1193</ele>
        <time>2020-08-19T09:06:59.000Z</time>
      </trkpt>
      <trkpt lat="42.63497686944901943206787109375" lon="-0.45153371058404445648193359375">
        <ele>1192.4000244140625</ele>
        <time>2020-08-19T09:07:01.000Z</time>
      </trkpt>
      <trkpt lat="42.63506253249943256378173828125" lon="-0.451608560979366302490234375">
        <ele>1191.5999755859375</ele>
        <time>2020-08-19T09:07:03.000Z</time>
      </trkpt>
      <trkpt lat="42.63517786748707294464111328125" lon="-0.45170134864747524261474609375">
        <ele>1190.5999755859375</ele>
        <time>2020-08-19T09:07:06.000Z</time>
      </trkpt>
      <trkpt lat="42.6352446712553501129150390625" lon="-0.4517542384564876556396484375">
        <ele>1189.800048828125</ele>
        <time>2020-08-19T09:07:08.000Z</time>
      </trkpt>
      <trkpt lat="42.63529412448406219482421875" lon="-0.4518135823309421539306640625">
        <ele>1189.5999755859375</ele>
        <time>2020-08-19T09:07:10.000Z</time>
      </trkpt>
      <trkpt lat="42.6353442482650279998779296875" lon="-0.45189664699137210845947265625">
        <ele>1189.4000244140625</ele>
        <time>2020-08-19T09:07:12.000Z</time>
      </trkpt>
      <trkpt lat="42.6354914344847202301025390625" lon="-0.45216369442641735076904296875">
        <ele>1188.5999755859375</ele>
        <time>2020-08-19T09:07:18.000Z</time>
      </trkpt>
      <trkpt lat="42.6355434022843837738037109375" lon="-0.45224550180137157440185546875">
        <ele>1187</ele>
        <time>2020-08-19T09:07:20.000Z</time>
      </trkpt>
      <trkpt lat="42.63557014055550098419189453125" lon="-0.45228841714560985565185546875">
        <ele>1185.5999755859375</ele>
        <time>2020-08-19T09:07:21.000Z</time>
      </trkpt>
      <trkpt lat="42.635637782514095306396484375" lon="-0.4523795284330844879150390625">
        <ele>1184</ele>
        <time>2020-08-19T09:07:23.000Z</time>
      </trkpt>
      <trkpt lat="42.63572436757385730743408203125" lon="-0.4524539597332477569580078125">
        <ele>1182.199951171875</ele>
        <time>2020-08-19T09:07:25.000Z</time>
      </trkpt>
      <trkpt lat="42.635802067816257476806640625" lon="-0.45251573435962200164794921875">
        <ele>1181.800048828125</ele>
        <time>2020-08-19T09:07:27.000Z</time>
      </trkpt>
      <trkpt lat="42.635935507714748382568359375" lon="-0.4526618309319019317626953125">
        <ele>1182.199951171875</ele>
        <time>2020-08-19T09:07:31.000Z</time>
      </trkpt>
      <trkpt lat="42.63596878387033939361572265625" lon="-0.4527027346193790435791015625">
        <ele>1182.199951171875</ele>
        <time>2020-08-19T09:07:32.000Z</time>
      </trkpt>
      <trkpt lat="42.6360754854977130889892578125" lon="-0.45280843041837215423583984375">
        <ele>1182.199951171875</ele>
        <time>2020-08-19T09:07:35.000Z</time>
      </trkpt>
      <trkpt lat="42.63618671335279941558837890625" lon="-0.4528708755970001220703125">
        <ele>1181.800048828125</ele>
        <time>2020-08-19T09:07:38.000Z</time>
      </trkpt>
      <trkpt lat="42.63631378300487995147705078125" lon="-0.45289442874491214752197265625">
        <ele>1180.5999755859375</ele>
        <time>2020-08-19T09:07:41.000Z</time>
      </trkpt>
      <trkpt lat="42.63635636307299137115478515625" lon="-0.45288654975593090057373046875">
        <ele>1180.199951171875</ele>
        <time>2020-08-19T09:07:42.000Z</time>
      </trkpt>
      <trkpt lat="42.63639860786497592926025390625" lon="-0.45287900604307651519775390625">
        <ele>1180.199951171875</ele>
        <time>2020-08-19T09:07:43.000Z</time>
      </trkpt>
      <trkpt lat="42.636440433561801910400390625" lon="-0.4528737254440784454345703125">
        <ele>1180.5999755859375</ele>
        <time>2020-08-19T09:07:44.000Z</time>
      </trkpt>
      <trkpt lat="42.63656306080520153045654296875" lon="-0.45287665911018848419189453125">
        <ele>1179.5999755859375</ele>
        <time>2020-08-19T09:07:47.000Z</time>
      </trkpt>
      <trkpt lat="42.63660597614943981170654296875" lon="-0.45288269408047199249267578125">
        <ele>1179.5999755859375</ele>
        <time>2020-08-19T09:07:48.000Z</time>
      </trkpt>
      <trkpt lat="42.63669013045728206634521484375" lon="-0.45289442874491214752197265625">
        <ele>1178</ele>
        <time>2020-08-19T09:07:50.000Z</time>
      </trkpt>
      <trkpt lat="42.6368491351604461669921875" lon="-0.45292661525309085845947265625">
        <ele>1176.5999755859375</ele>
        <time>2020-08-19T09:07:54.000Z</time>
      </trkpt>
      <trkpt lat="42.6368865184485912322998046875" lon="-0.452925860881805419921875">
        <ele>1176</ele>
        <time>2020-08-19T09:07:55.000Z</time>
      </trkpt>
      <trkpt lat="42.63696069829165935516357421875" lon="-0.45291907154023647308349609375">
        <ele>1175.4000244140625</ele>
        <time>2020-08-19T09:07:57.000Z</time>
      </trkpt>
      <trkpt lat="42.637064047157764434814453125" lon="-0.4529277049005031585693359375">
        <ele>1175.4000244140625</ele>
        <time>2020-08-19T09:08:00.000Z</time>
      </trkpt>
      <trkpt lat="42.637130431830883026123046875" lon="-0.45293784700334072113037109375">
        <ele>1174.199951171875</ele>
        <time>2020-08-19T09:08:02.000Z</time>
      </trkpt>
      <trkpt lat="42.6371976546943187713623046875" lon="-0.45294488780200481414794921875">
        <ele>1173.4000244140625</ele>
        <time>2020-08-19T09:08:04.000Z</time>
      </trkpt>
      <trkpt lat="42.63723746873438358306884765625" lon="-0.4529406130313873291015625">
        <ele>1172.800048828125</ele>
        <time>2020-08-19T09:08:05.000Z</time>
      </trkpt>
      <trkpt lat="42.63737409375607967376708984375" lon="-0.4529163055121898651123046875">
        <ele>1172.4000244140625</ele>
        <time>2020-08-19T09:08:09.000Z</time>
      </trkpt>
      <trkpt lat="42.63746411539614200592041015625" lon="-0.45289711095392704010009765625">
        <ele>1172.199951171875</ele>
        <time>2020-08-19T09:08:11.000Z</time>
      </trkpt>
      <trkpt lat="42.63751658610999584197998046875" lon="-0.45288520865142345428466796875">
        <ele>1171.5999755859375</ele>
        <time>2020-08-19T09:08:12.000Z</time>
      </trkpt>
      <trkpt lat="42.6375698111951351165771484375" lon="-0.45287691056728363037109375">
        <ele>1171</ele>
        <time>2020-08-19T09:08:13.000Z</time>
      </trkpt>
      <trkpt lat="42.63767969794571399688720703125" lon="-0.4528576321899890899658203125">
        <ele>1170.199951171875</ele>
        <time>2020-08-19T09:08:15.000Z</time>
      </trkpt>
      <trkpt lat="42.63778111897408962249755859375" lon="-0.45284329913556575775146484375">
        <ele>1169.5999755859375</ele>
        <time>2020-08-19T09:08:17.000Z</time>
      </trkpt>
      <trkpt lat="42.6378631778061389923095703125" lon="-0.45283240266144275665283203125">
        <ele>1168.5999755859375</ele>
        <time>2020-08-19T09:08:19.000Z</time>
      </trkpt>
      <trkpt lat="42.637986056506633758544921875" lon="-0.4527687840163707733154296875">
        <ele>1167.800048828125</ele>
        <time>2020-08-19T09:08:22.000Z</time>
      </trkpt>
      <trkpt lat="42.638020925223827362060546875" lon="-0.45274221338331699371337890625">
        <ele>1167.800048828125</ele>
        <time>2020-08-19T09:08:23.000Z</time>
      </trkpt>
      <trkpt lat="42.63814589940011501312255859375" lon="-0.45265085063874721527099609375">
        <ele>1168.4000244140625</ele>
        <time>2020-08-19T09:08:28.000Z</time>
      </trkpt>
      <trkpt lat="42.638260312378406524658203125" lon="-0.4526360146701335906982421875">
        <ele>1168.5999755859375</ele>
        <time>2020-08-19T09:08:33.000Z</time>
      </trkpt>
      <trkpt lat="42.638299204409122467041015625" lon="-0.452681444585323333740234375">
        <ele>1168.4000244140625</ele>
        <time>2020-08-19T09:08:35.000Z</time>
      </trkpt>
      <trkpt lat="42.63830230571329593658447265625" lon="-0.4527235217392444610595703125">
        <ele>1168.199951171875</ele>
        <time>2020-08-19T09:08:37.000Z</time>
      </trkpt>
      <trkpt lat="42.6382745616137981414794921875" lon="-0.45280474238097667694091796875">
        <ele>1168.199951171875</ele>
        <time>2020-08-19T09:08:40.000Z</time>
      </trkpt>
      <trkpt lat="42.6382604800164699554443359375" lon="-0.4528395272791385650634765625">
        <ele>1168.199951171875</ele>
        <time>2020-08-19T09:08:41.000Z</time>
      </trkpt>
      <trkpt lat="42.6381625793874263763427734375" lon="-0.45305754058063030242919921875">
        <ele>1167.4000244140625</ele>
        <time>2020-08-19T09:08:46.000Z</time>
      </trkpt>
      <trkpt lat="42.638148330152034759521484375" lon="-0.45310514979064464569091796875">
        <ele>1166.800048828125</ele>
        <time>2020-08-19T09:08:47.000Z</time>
      </trkpt>
      <trkpt lat="42.6380641758441925048828125" lon="-0.45337848365306854248046875">
        <ele>1165.5999755859375</ele>
        <time>2020-08-19T09:08:53.000Z</time>
      </trkpt>
      <trkpt lat="42.63799049891531467437744140625" lon="-0.45357755385339260101318359375">
        <ele>1164.4000244140625</ele>
        <time>2020-08-19T09:08:58.000Z</time>
      </trkpt>
      <trkpt lat="42.63797088526189327239990234375" lon="-0.45369473285973072052001953125">
        <ele>1164.199951171875</ele>
        <time>2020-08-19T09:09:01.000Z</time>
      </trkpt>
      <trkpt lat="42.6379362680017948150634765625" lon="-0.45387469232082366943359375">
        <ele>1163.5999755859375</ele>
        <time>2020-08-19T09:09:06.000Z</time>
      </trkpt>
      <trkpt lat="42.637833841145038604736328125" lon="-0.45401282608509063720703125">
        <ele>1163.5999755859375</ele>
        <time>2020-08-19T09:09:12.000Z</time>
      </trkpt>
      <trkpt lat="42.63781699351966381072998046875" lon="-0.454039312899112701416015625">
        <ele>1163.5999755859375</ele>
        <time>2020-08-19T09:09:13.000Z</time>
      </trkpt>
      <trkpt lat="42.63768472708761692047119140625" lon="-0.4542879201471805572509765625">
        <ele>1162.4000244140625</ele>
        <time>2020-08-19T09:09:20.000Z</time>
      </trkpt>
      <trkpt lat="42.63751993887126445770263671875" lon="-0.45454951934516429901123046875">
        <ele>1162.199951171875</ele>
        <time>2020-08-19T09:09:27.000Z</time>
      </trkpt>
      <trkpt lat="42.63737820088863372802734375" lon="-0.45473258011043071746826171875">
        <ele>1161.800048828125</ele>
        <time>2020-08-19T09:09:33.000Z</time>
      </trkpt>
      <trkpt lat="42.63729278929531574249267578125" lon="-0.454966686666011810302734375">
        <ele>1161.199951171875</ele>
        <time>2020-08-19T09:09:39.000Z</time>
      </trkpt>
      <trkpt lat="42.63719136826694011688232421875" lon="-0.45503701083362102508544921875">
        <ele>1161.199951171875</ele>
        <time>2020-08-19T09:09:43.000Z</time>
      </trkpt>
      <trkpt lat="42.6370873488485813140869140625" lon="-0.4550600610673427581787109375">
        <ele>1161</ele>
        <time>2020-08-19T09:09:48.000Z</time>
      </trkpt>
      <trkpt lat="42.6369472034275531768798828125" lon="-0.45516215264797210693359375">
        <ele>1161.199951171875</ele>
        <time>2020-08-19T09:09:55.000Z</time>
      </trkpt>
      <trkpt lat="42.63678920455276966094970703125" lon="-0.4552551917731761932373046875">
        <ele>1161.5999755859375</ele>
        <time>2020-08-19T09:10:03.000Z</time>
      </trkpt>
      <trkpt lat="42.63662357814610004425048828125" lon="-0.45542626641690731048583984375">
        <ele>1161.199951171875</ele>
        <time>2020-08-19T09:10:12.000Z</time>
      </trkpt>
      <trkpt lat="42.63647069223225116729736328125" lon="-0.4556099139153957366943359375">
        <ele>1161.800048828125</ele>
        <time>2020-08-19T09:10:20.000Z</time>
      </trkpt>
      <trkpt lat="42.636313699185848236083984375" lon="-0.45584150590002536773681640625">
        <ele>1160.5999755859375</ele>
        <time>2020-08-19T09:10:27.000Z</time>
      </trkpt>
      <trkpt lat="42.63629081659018993377685546875" lon="-0.4558764584362506866455078125">
        <ele>1160.4000244140625</ele>
        <time>2020-08-19T09:10:28.000Z</time>
      </trkpt>
      <trkpt lat="42.63613172806799411773681640625" lon="-0.4560725949704647064208984375">
        <ele>1160.199951171875</ele>
        <time>2020-08-19T09:10:35.000Z</time>
      </trkpt>
      <trkpt lat="42.63595394790172576904296875" lon="-0.45624735765159130096435546875">
        <ele>1160.199951171875</ele>
        <time>2020-08-19T09:10:44.000Z</time>
      </trkpt>
      <trkpt lat="42.635805420577526092529296875" lon="-0.45639119111001491546630859375">
        <ele>1160.800048828125</ele>
        <time>2020-08-19T09:10:52.000Z</time>
      </trkpt>
      <trkpt lat="42.63571581803262233734130859375" lon="-0.45649562962353229522705078125">
        <ele>1161.199951171875</ele>
        <time>2020-08-19T09:10:58.000Z</time>
      </trkpt>
      <trkpt lat="42.63568933121860027313232421875" lon="-0.45653016306459903717041015625">
        <ele>1161.5999755859375</ele>
        <time>2020-08-19T09:11:00.000Z</time>
      </trkpt>
      <trkpt lat="42.6356721483170986175537109375" lon="-0.4565439932048320770263671875">
        <ele>1161.4000244140625</ele>
        <time>2020-08-19T09:11:01.000Z</time>
      </trkpt>
      <trkpt lat="42.63564012944698333740234375" lon="-0.45657659880816936492919921875">
        <ele>1161.800048828125</ele>
        <time>2020-08-19T09:11:03.000Z</time>
      </trkpt>
      <trkpt lat="42.63554147444665431976318359375" lon="-0.456682629883289337158203125">
        <ele>1161.5999755859375</ele>
        <time>2020-08-19T09:11:08.000Z</time>
      </trkpt>
      <trkpt lat="42.635436952114105224609375" lon="-0.4568128846585750579833984375">
        <ele>1161</ele>
        <time>2020-08-19T09:11:13.000Z</time>
      </trkpt>
      <trkpt lat="42.63535070233047008514404296875" lon="-0.4569426365196704864501953125">
        <ele>1160.800048828125</ele>
        <time>2020-08-19T09:11:18.000Z</time>
      </trkpt>
      <trkpt lat="42.6352748461067676544189453125" lon="-0.45712410472333431243896484375">
        <ele>1160.199951171875</ele>
        <time>2020-08-19T09:11:22.000Z</time>
      </trkpt>
      <trkpt lat="42.6352517120540142059326171875" lon="-0.457169450819492340087890625">
        <ele>1159.800048828125</ele>
        <time>2020-08-19T09:11:23.000Z</time>
      </trkpt>
      <trkpt lat="42.63522463850677013397216796875" lon="-0.457214377820491790771484375">
        <ele>1159.4000244140625</ele>
        <time>2020-08-19T09:11:24.000Z</time>
      </trkpt>
      <trkpt lat="42.63519949279725551605224609375" lon="-0.4572589695453643798828125">
        <ele>1159</ele>
        <time>2020-08-19T09:11:25.000Z</time>
      </trkpt>
      <trkpt lat="42.63515188358724117279052734375" lon="-0.45735896565020084381103515625">
        <ele>1158.5999755859375</ele>
        <time>2020-08-19T09:11:27.000Z</time>
      </trkpt>
      <trkpt lat="42.63512606732547283172607421875" lon="-0.45741252601146697998046875">
        <ele>1158</ele>
        <time>2020-08-19T09:11:28.000Z</time>
      </trkpt>
      <trkpt lat="42.63509522192180156707763671875" lon="-0.45746147632598876953125">
        <ele>1157</ele>
        <time>2020-08-19T09:11:29.000Z</time>
      </trkpt>
      <trkpt lat="42.63503470458090305328369140625" lon="-0.45755208469927310943603515625">
        <ele>1155.5999755859375</ele>
        <time>2020-08-19T09:11:31.000Z</time>
      </trkpt>
      <trkpt lat="42.63498541899025440216064453125" lon="-0.4576393403112888336181640625">
        <ele>1154.800048828125</ele>
        <time>2020-08-19T09:11:33.000Z</time>
      </trkpt>
      <trkpt lat="42.63495750725269317626953125" lon="-0.45773179270327091217041015625">
        <ele>1154.4000244140625</ele>
        <time>2020-08-19T09:11:35.000Z</time>
      </trkpt>
      <trkpt lat="42.63494082726538181304931640625" lon="-0.4578988440334796905517578125">
        <ele>1154.199951171875</ele>
        <time>2020-08-19T09:11:38.000Z</time>
      </trkpt>
      <trkpt lat="42.6349419169127941131591796875" lon="-0.45806908048689365386962890625">
        <ele>1151.4000244140625</ele>
        <time>2020-08-19T09:11:41.000Z</time>
      </trkpt>
      <trkpt lat="42.634938396513462066650390625" lon="-0.45817838050425052642822265625">
        <ele>1149.5999755859375</ele>
        <time>2020-08-19T09:11:43.000Z</time>
      </trkpt>
      <trkpt lat="42.63492942787706851959228515625" lon="-0.4582847468554973602294921875">
        <ele>1149</ele>
        <time>2020-08-19T09:11:45.000Z</time>
      </trkpt>
      <trkpt lat="42.6349224708974361419677734375" lon="-0.45833914540708065032958984375">
        <ele>1148.4000244140625</ele>
        <time>2020-08-19T09:11:46.000Z</time>
      </trkpt>
      <trkpt lat="42.63490629382431507110595703125" lon="-0.45847509987652301788330078125">
        <ele>1147.4000244140625</ele>
        <time>2020-08-19T09:11:49.000Z</time>
      </trkpt>
      <trkpt lat="42.63491232879459857940673828125" lon="-0.45855891890823841094970703125">
        <ele>1147</ele>
        <time>2020-08-19T09:11:51.000Z</time>
      </trkpt>
      <trkpt lat="42.63491199351847171783447265625" lon="-0.45864860527217388153076171875">
        <ele>1146.199951171875</ele>
        <time>2020-08-19T09:11:53.000Z</time>
      </trkpt>
      <trkpt lat="42.634890116751194000244140625" lon="-0.45872211456298828125">
        <ele>1145.800048828125</ele>
        <time>2020-08-19T09:11:55.000Z</time>
      </trkpt>
      <trkpt lat="42.63484661467373371124267578125" lon="-0.45878740958869457244873046875">
        <ele>1145</ele>
        <time>2020-08-19T09:11:57.000Z</time>
      </trkpt>
      <trkpt lat="42.63474117033183574676513671875" lon="-0.4589167423546314239501953125">
        <ele>1144.5999755859375</ele>
        <time>2020-08-19T09:12:01.000Z</time>
      </trkpt>
      <trkpt lat="42.6346522383391857147216796875" lon="-0.45905563049018383026123046875">
        <ele>1144</ele>
        <time>2020-08-19T09:12:05.000Z</time>
      </trkpt>
      <trkpt lat="42.6346130110323429107666015625" lon="-0.45916669070720672607421875">
        <ele>1143.5999755859375</ele>
        <time>2020-08-19T09:12:08.000Z</time>
      </trkpt>
      <trkpt lat="42.63459381647408008575439453125" lon="-0.4593036510050296783447265625">
        <ele>1143</ele>
        <time>2020-08-19T09:12:11.000Z</time>
      </trkpt>
      <trkpt lat="42.63458778150379657745361328125" lon="-0.45945771038532257080078125">
        <ele>1142.199951171875</ele>
        <time>2020-08-19T09:12:14.000Z</time>
      </trkpt>
      <trkpt lat="42.63458375819027423858642578125" lon="-0.4595074988901615142822265625">
        <ele>1142</ele>
        <time>2020-08-19T09:12:15.000Z</time>
      </trkpt>
      <trkpt lat="42.63455919921398162841796875" lon="-0.45965862460434436798095703125">
        <ele>1143</ele>
        <time>2020-08-19T09:12:18.000Z</time>
      </trkpt>
      <trkpt lat="42.6345177926123142242431640625" lon="-0.4598146118223667144775390625">
        <ele>1141.5999755859375</ele>
        <time>2020-08-19T09:12:21.000Z</time>
      </trkpt>
      <trkpt lat="42.63442953117191791534423828125" lon="-0.46002860181033611297607421875">
        <ele>1140.4000244140625</ele>
        <time>2020-08-19T09:12:25.000Z</time>
      </trkpt>
      <trkpt lat="42.63437789864838123321533203125" lon="-0.4601783864200115203857421875">
        <ele>1139.5999755859375</ele>
        <time>2020-08-19T09:12:28.000Z</time>
      </trkpt>
      <trkpt lat="42.634399943053722381591796875" lon="-0.46035080216825008392333984375">
        <ele>1139.4000244140625</ele>
        <time>2020-08-19T09:12:32.000Z</time>
      </trkpt>
      <trkpt lat="42.63441997580230236053466796875" lon="-0.46038701198995113372802734375">
        <ele>1139.4000244140625</ele>
        <time>2020-08-19T09:12:33.000Z</time>
      </trkpt>
      <trkpt lat="42.63450798578560352325439453125" lon="-0.46048072166740894317626953125">
        <ele>1138.4000244140625</ele>
        <time>2020-08-19T09:12:37.000Z</time>
      </trkpt>
      <trkpt lat="42.63453246094286441802978515625" lon="-0.4604999162256717681884765625">
        <ele>1138.199951171875</ele>
        <time>2020-08-19T09:12:38.000Z</time>
      </trkpt>
      <trkpt lat="42.63464461080729961395263671875" lon="-0.4605679772794246673583984375">
        <ele>1137</ele>
        <time>2020-08-19T09:12:42.000Z</time>
      </trkpt>
      <trkpt lat="42.63472977094352245330810546875" lon="-0.4606212861835956573486328125">
        <ele>1136</ele>
        <time>2020-08-19T09:12:45.000Z</time>
      </trkpt>
      <trkpt lat="42.6347853429615497589111328125" lon="-0.46065338887274265289306640625">
        <ele>1134.5999755859375</ele>
        <time>2020-08-19T09:12:47.000Z</time>
      </trkpt>
      <trkpt lat="42.63486572541296482086181640625" lon="-0.4607104696333408355712890625">
        <ele>1133.4000244140625</ele>
        <time>2020-08-19T09:12:50.000Z</time>
      </trkpt>
      <trkpt lat="42.63491702266037464141845703125" lon="-0.4607351124286651611328125">
        <ele>1132.800048828125</ele>
        <time>2020-08-19T09:12:52.000Z</time>
      </trkpt>
      <trkpt lat="42.63494250364601612091064453125" lon="-0.4607473500072956085205078125">
        <ele>1132.199951171875</ele>
        <time>2020-08-19T09:12:53.000Z</time>
      </trkpt>
      <trkpt lat="42.63499262742698192596435546875" lon="-0.4607681371271610260009765625">
        <ele>1130.800048828125</ele>
        <time>2020-08-19T09:12:55.000Z</time>
      </trkpt>
      <trkpt lat="42.6350549049675464630126953125" lon="-0.46078012324869632720947265625">
        <ele>1129.5999755859375</ele>
        <time>2020-08-19T09:12:58.000Z</time>
      </trkpt>
      <trkpt lat="42.63517518527805805206298828125" lon="-0.46086159534752368927001953125">
        <ele>1128.5999755859375</ele>
        <time>2020-08-19T09:13:02.000Z</time>
      </trkpt>
      <trkpt lat="42.63519831933081150054931640625" lon="-0.460893027484416961669921875">
        <ele>1128.199951171875</ele>
        <time>2020-08-19T09:13:03.000Z</time>
      </trkpt>
      <trkpt lat="42.63531482778489589691162109375" lon="-0.461065359413623809814453125">
        <ele>1127.4000244140625</ele>
        <time>2020-08-19T09:13:08.000Z</time>
      </trkpt>
      <trkpt lat="42.63533762656152248382568359375" lon="-0.46110500581562519073486328125">
        <ele>1127.199951171875</ele>
        <time>2020-08-19T09:13:09.000Z</time>
      </trkpt>
      <trkpt lat="42.63538531959056854248046875" lon="-0.46118312515318393707275390625">
        <ele>1126</ele>
        <time>2020-08-19T09:13:11.000Z</time>
      </trkpt>
      <trkpt lat="42.6354666240513324737548828125" lon="-0.46125872991979122161865234375">
        <ele>1125.199951171875</ele>
        <time>2020-08-19T09:13:14.000Z</time>
      </trkpt>
      <trkpt lat="42.6354981400072574615478515625" lon="-0.46126912347972393035888671875">
        <ele>1125</ele>
        <time>2020-08-19T09:13:15.000Z</time>
      </trkpt>
      <trkpt lat="42.63560660183429718017578125" lon="-0.46125420369207859039306640625">
        <ele>1123.800048828125</ele>
        <time>2020-08-19T09:13:18.000Z</time>
      </trkpt>
      <trkpt lat="42.635771892964839935302734375" lon="-0.46119385398924350738525390625">
        <ele>1122.5999755859375</ele>
        <time>2020-08-19T09:13:22.000Z</time>
      </trkpt>
      <trkpt lat="42.6358169876039028167724609375" lon="-0.46118371188640594482421875">
        <ele>1122.4000244140625</ele>
        <time>2020-08-19T09:13:23.000Z</time>
      </trkpt>
      <trkpt lat="42.6359038241207599639892578125" lon="-0.46118178404867649078369140625">
        <ele>1122</ele>
        <time>2020-08-19T09:13:25.000Z</time>
      </trkpt>
      <trkpt lat="42.636003233492374420166015625" lon="-0.46121045015752315521240234375">
        <ele>1121.4000244140625</ele>
        <time>2020-08-19T09:13:28.000Z</time>
      </trkpt>
      <trkpt lat="42.636032402515411376953125" lon="-0.461227633059024810791015625">
        <ele>1121.199951171875</ele>
        <time>2020-08-19T09:13:29.000Z</time>
      </trkpt>
      <trkpt lat="42.63606123626232147216796875" lon="-0.46124800108373165130615234375">
        <ele>1121</ele>
        <time>2020-08-19T09:13:30.000Z</time>
      </trkpt>
      <trkpt lat="42.636203058063983917236328125" lon="-0.4613895714282989501953125">
        <ele>1120.4000244140625</ele>
        <time>2020-08-19T09:13:35.000Z</time>
      </trkpt>
      <trkpt lat="42.63624203391373157501220703125" lon="-0.46146241016685962677001953125">
        <ele>1119.800048828125</ele>
        <time>2020-08-19T09:13:37.000Z</time>
      </trkpt>
      <trkpt lat="42.63627178966999053955078125" lon="-0.46154421754181385040283203125">
        <ele>1119.199951171875</ele>
        <time>2020-08-19T09:13:39.000Z</time>
      </trkpt>
      <trkpt lat="42.63628746382892131805419921875" lon="-0.461648404598236083984375">
        <ele>1118</ele>
        <time>2020-08-19T09:13:42.000Z</time>
      </trkpt>
      <trkpt lat="42.63635049574077129364013671875" lon="-0.46181864105165004730224609375">
        <ele>1117.5999755859375</ele>
        <time>2020-08-19T09:13:49.000Z</time>
      </trkpt>
      <trkpt lat="42.636385448276996612548828125" lon="-0.4618601314723491668701171875">
        <ele>1117.199951171875</ele>
        <time>2020-08-19T09:13:51.000Z</time>
      </trkpt>
      <trkpt lat="42.63646029867231845855712890625" lon="-0.4619338922202587127685546875">
        <ele>1116</ele>
        <time>2020-08-19T09:13:55.000Z</time>
      </trkpt>
      <trkpt lat="42.63648276217281818389892578125" lon="-0.4619469679892063140869140625">
        <ele>1115.800048828125</ele>
        <time>2020-08-19T09:13:56.000Z</time>
      </trkpt>
      <trkpt lat="42.63653439469635486602783203125" lon="-0.46197362244129180908203125">
        <ele>1115</ele>
        <time>2020-08-19T09:13:58.000Z</time>
      </trkpt>
      <trkpt lat="42.63665132224559783935546875" lon="-0.4620455391705036163330078125">
        <ele>1114.199951171875</ele>
        <time>2020-08-19T09:14:02.000Z</time>
      </trkpt>
      <trkpt lat="42.6367403380572795867919921875" lon="-0.4620958305895328521728515625">
        <ele>1113.4000244140625</ele>
        <time>2020-08-19T09:14:05.000Z</time>
      </trkpt>
      <trkpt lat="42.63683647848665714263916015625" lon="-0.46211988665163516998291015625">
        <ele>1112.4000244140625</ele>
        <time>2020-08-19T09:14:08.000Z</time>
      </trkpt>
      <trkpt lat="42.63687369413673877716064453125" lon="-0.46212072484195232391357421875">
        <ele>1112</ele>
        <time>2020-08-19T09:14:09.000Z</time>
      </trkpt>
      <trkpt lat="42.63695969246327877044677734375" lon="-0.46211888082325458526611328125">
        <ele>1111</ele>
        <time>2020-08-19T09:14:11.000Z</time>
      </trkpt>
      <trkpt lat="42.63709648512303829193115234375" lon="-0.462115444242954254150390625">
        <ele>1110</ele>
        <time>2020-08-19T09:14:14.000Z</time>
      </trkpt>
      <trkpt lat="42.63714208267629146575927734375" lon="-0.46211720444262027740478515625">
        <ele>1110</ele>
        <time>2020-08-19T09:14:15.000Z</time>
      </trkpt>
      <trkpt lat="42.6373190246522426605224609375" lon="-0.4621783085167407989501953125">
        <ele>1109.5999755859375</ele>
        <time>2020-08-19T09:14:20.000Z</time>
      </trkpt>
      <trkpt lat="42.6374122314155101776123046875" lon="-0.46223153360188007354736328125">
        <ele>1109.5999755859375</ele>
        <time>2020-08-19T09:14:24.000Z</time>
      </trkpt>
      <trkpt lat="42.63743477873504161834716796875" lon="-0.4622403346002101898193359375">
        <ele>1109.5999755859375</ele>
        <time>2020-08-19T09:14:25.000Z</time>
      </trkpt>
      <trkpt lat="42.637577019631862640380859375" lon="-0.46232767403125762939453125">
        <ele>1109.800048828125</ele>
        <time>2020-08-19T09:14:31.000Z</time>
      </trkpt>
      <trkpt lat="42.6377468369901180267333984375" lon="-0.46241459436714649200439453125">
        <ele>1109.4000244140625</ele>
        <time>2020-08-19T09:14:37.000Z</time>
      </trkpt>
      <trkpt lat="42.6378286443650722503662109375" lon="-0.46252657659351825714111328125">
        <ele>1109</ele>
        <time>2020-08-19T09:14:40.000Z</time>
      </trkpt>
      <trkpt lat="42.63786929659545421600341796875" lon="-0.4626185260713100433349609375">
        <ele>1108.4000244140625</ele>
        <time>2020-08-19T09:14:42.000Z</time>
      </trkpt>
      <trkpt lat="42.63791120611131191253662109375" lon="-0.46271793544292449951171875">
        <ele>1108.4000244140625</ele>
        <time>2020-08-19T09:14:44.000Z</time>
      </trkpt>
      <trkpt lat="42.63793383724987506866455078125" lon="-0.46277417801320552825927734375">
        <ele>1108</ele>
        <time>2020-08-19T09:14:45.000Z</time>
      </trkpt>
      <trkpt lat="42.638001479208469390869140625" lon="-0.46292823739349842071533203125">
        <ele>1107.4000244140625</ele>
        <time>2020-08-19T09:14:48.000Z</time>
      </trkpt>
      <trkpt lat="42.63804933987557888031005859375" lon="-0.46302077360451221466064453125">
        <ele>1106.800048828125</ele>
        <time>2020-08-19T09:14:50.000Z</time>
      </trkpt>
      <trkpt lat="42.63817607425153255462646484375" lon="-0.46319092623889446258544921875">
        <ele>1105.800048828125</ele>
        <time>2020-08-19T09:14:54.000Z</time>
      </trkpt>
      <trkpt lat="42.6383241824805736541748046875" lon="-0.46334548853337764739990234375">
        <ele>1104.4000244140625</ele>
        <time>2020-08-19T09:14:58.000Z</time>
      </trkpt>
      <trkpt lat="42.63840020634233951568603515625" lon="-0.4634144715964794158935546875">
        <ele>1104.199951171875</ele>
        <time>2020-08-19T09:15:00.000Z</time>
      </trkpt>
      <trkpt lat="42.638608328998088836669921875" lon="-0.46357951126992702484130859375">
        <ele>1103.4000244140625</ele>
        <time>2020-08-19T09:15:05.000Z</time>
      </trkpt>
      <trkpt lat="42.63869055546820163726806640625" lon="-0.4636421240866184234619140625">
        <ele>1103</ele>
        <time>2020-08-19T09:15:07.000Z</time>
      </trkpt>
      <trkpt lat="42.63881812803447246551513671875" lon="-0.46374061144888401031494140625">
        <ele>1102.199951171875</ele>
        <time>2020-08-19T09:15:10.000Z</time>
      </trkpt>
      <trkpt lat="42.63905097730457782745361328125" lon="-0.46391176991164684295654296875">
        <ele>1101</ele>
        <time>2020-08-19T09:15:15.000Z</time>
      </trkpt>
      <trkpt lat="42.6393581740558147430419921875" lon="-0.4641510732471942901611328125">
        <ele>1099.800048828125</ele>
        <time>2020-08-19T09:15:21.000Z</time>
      </trkpt>
      <trkpt lat="42.639457248151302337646484375" lon="-0.46421502716839313507080078125">
        <ele>1099.4000244140625</ele>
        <time>2020-08-19T09:15:23.000Z</time>
      </trkpt>
      <trkpt lat="42.6395442523062229156494140625" lon="-0.46427085064351558685302734375">
        <ele>1098.5999755859375</ele>
        <time>2020-08-19T09:15:25.000Z</time>
      </trkpt>
      <trkpt lat="42.639635615050792694091796875" lon="-0.46434712596237659454345703125">
        <ele>1099</ele>
        <time>2020-08-19T09:15:28.000Z</time>
      </trkpt>
      <trkpt lat="42.6397668756544589996337890625" lon="-0.46443446539342403411865234375">
        <ele>1099.800048828125</ele>
        <time>2020-08-19T09:15:34.000Z</time>
      </trkpt>
      <trkpt lat="42.6397866569459438323974609375" lon="-0.4644481278955936431884765625">
        <ele>1100</ele>
        <time>2020-08-19T09:15:35.000Z</time>
      </trkpt>
      <trkpt lat="42.63983376324176788330078125" lon="-0.46453186310827732086181640625">
        <ele>1100.199951171875</ele>
        <time>2020-08-19T09:15:39.000Z</time>
      </trkpt>
      <trkpt lat="42.63983066193759441375732421875" lon="-0.4645788855850696563720703125">
        <ele>1099.5999755859375</ele>
        <time>2020-08-19T09:15:41.000Z</time>
      </trkpt>
      <trkpt lat="42.6398049294948577880859375" lon="-0.46461434103548526763916015625">
        <ele>1099</ele>
        <time>2020-08-19T09:15:43.000Z</time>
      </trkpt>
      <trkpt lat="42.6397869922220706939697265625" lon="-0.4646201245486736297607421875">
        <ele>1099</ele>
        <time>2020-08-19T09:15:44.000Z</time>
      </trkpt>
      <trkpt lat="42.63973318040370941162109375" lon="-0.46458349563181400299072265625">
        <ele>1098.800048828125</ele>
        <time>2020-08-19T09:15:47.000Z</time>
      </trkpt>
      <trkpt lat="42.63969160616397857666015625" lon="-0.4645346291363239288330078125">
        <ele>1098.5999755859375</ele>
        <time>2020-08-19T09:15:52.000Z</time>
      </trkpt>
      <trkpt lat="42.63969688676297664642333984375" lon="-0.46453119255602359771728515625">
        <ele>1098.4000244140625</ele>
        <time>2020-08-19T09:16:08.000Z</time>
      </trkpt>
      <trkpt lat="42.63969697058200836181640625" lon="-0.46453102491796016693115234375">
        <ele>1098.5999755859375</ele>
        <time>2020-08-19T09:16:49.000Z</time>
      </trkpt>
      <trkpt lat="42.63969697058200836181640625" lon="-0.4645316116511821746826171875">
        <ele>1098.199951171875</ele>
        <time>2020-08-19T09:16:59.000Z</time>
      </trkpt>
      <trkpt lat="42.63965397141873836517333984375" lon="-0.4644997604191303253173828125">
        <ele>1098.4000244140625</ele>
        <time>2020-08-19T09:17:07.000Z</time>
      </trkpt>
      <trkpt lat="42.63952262699604034423828125" lon="-0.464427508413791656494140625">
        <ele>1098.4000244140625</ele>
        <time>2020-08-19T09:17:12.000Z</time>
      </trkpt>
      <trkpt lat="42.63942413963377475738525390625" lon="-0.4643941484391689300537109375">
        <ele>1097.4000244140625</ele>
        <time>2020-08-19T09:17:15.000Z</time>
      </trkpt>
      <trkpt lat="42.6393283344805240631103515625" lon="-0.4643757082521915435791015625">
        <ele>1096.199951171875</ele>
        <time>2020-08-19T09:17:18.000Z</time>
      </trkpt>
      <trkpt lat="42.63925884850323200225830078125" lon="-0.46435316093266010284423828125">
        <ele>1095.5999755859375</ele>
        <time>2020-08-19T09:17:20.000Z</time>
      </trkpt>
      <trkpt lat="42.639221213757991790771484375" lon="-0.4643438570201396942138671875">
        <ele>1095.199951171875</ele>
        <time>2020-08-19T09:17:21.000Z</time>
      </trkpt>
      <trkpt lat="42.639061622321605682373046875" lon="-0.4642895422875881195068359375">
        <ele>1094</ele>
        <time>2020-08-19T09:17:25.000Z</time>
      </trkpt>
      <trkpt lat="42.63901577331125736236572265625" lon="-0.464272610843181610107421875">
        <ele>1093.5999755859375</ele>
        <time>2020-08-19T09:17:26.000Z</time>
      </trkpt>
      <trkpt lat="42.63891770504415035247802734375" lon="-0.464232377707958221435546875">
        <ele>1092.800048828125</ele>
        <time>2020-08-19T09:17:28.000Z</time>
      </trkpt>
      <trkpt lat="42.63881997205317020416259765625" lon="-0.4641970060765743255615234375">
        <ele>1091.5999755859375</ele>
        <time>2020-08-19T09:17:30.000Z</time>
      </trkpt>
      <trkpt lat="42.63872492127120494842529296875" lon="-0.46415702439844608306884765625">
        <ele>1090.4000244140625</ele>
        <time>2020-08-19T09:17:32.000Z</time>
      </trkpt>
      <trkpt lat="42.6386752165853977203369140625" lon="-0.464135818183422088623046875">
        <ele>1090</ele>
        <time>2020-08-19T09:17:33.000Z</time>
      </trkpt>
      <trkpt lat="42.6385679282248020172119140625" lon="-0.4640920646488666534423828125">
        <ele>1089.4000244140625</ele>
        <time>2020-08-19T09:17:35.000Z</time>
      </trkpt>
      <trkpt lat="42.63827950693666934967041015625" lon="-0.4639720357954502105712890625">
        <ele>1089.199951171875</ele>
        <time>2020-08-19T09:17:40.000Z</time>
      </trkpt>
      <trkpt lat="42.63816677033901214599609375" lon="-0.463933981955051422119140625">
        <ele>1088.5999755859375</ele>
        <time>2020-08-19T09:17:42.000Z</time>
      </trkpt>
      <trkpt lat="42.63805855996906757354736328125" lon="-0.46390439383685588836669921875">
        <ele>1087.199951171875</ele>
        <time>2020-08-19T09:17:44.000Z</time>
      </trkpt>
      <trkpt lat="42.63796350918710231781005859375" lon="-0.46388763003051280975341796875">
        <ele>1087.199951171875</ele>
        <time>2020-08-19T09:17:46.000Z</time>
      </trkpt>
      <trkpt lat="42.63783828355371952056884765625" lon="-0.463864244520664215087890625">
        <ele>1088.199951171875</ele>
        <time>2020-08-19T09:17:49.000Z</time>
      </trkpt>
      <trkpt lat="42.6377605833113193511962890625" lon="-0.46384446322917938232421875">
        <ele>1088</ele>
        <time>2020-08-19T09:17:51.000Z</time>
      </trkpt>
      <trkpt lat="42.63767835684120655059814453125" lon="-0.46382568776607513427734375">
        <ele>1086.5999755859375</ele>
        <time>2020-08-19T09:17:53.000Z</time>
      </trkpt>
      <trkpt lat="42.63750384561717510223388671875" lon="-0.46377346850931644439697265625">
        <ele>1086.199951171875</ele>
        <time>2020-08-19T09:17:57.000Z</time>
      </trkpt>
      <trkpt lat="42.637239731848239898681640625" lon="-0.4637078382074832916259765625">
        <ele>1086.4000244140625</ele>
        <time>2020-08-19T09:18:03.000Z</time>
      </trkpt>
      <trkpt lat="42.63720117509365081787109375" lon="-0.46370171941816806793212890625">
        <ele>1085.5999755859375</ele>
        <time>2020-08-19T09:18:04.000Z</time>
      </trkpt>
      <trkpt lat="42.63709631748497486114501953125" lon="-0.4636748135089874267578125">
        <ele>1084.5999755859375</ele>
        <time>2020-08-19T09:18:07.000Z</time>
      </trkpt>
      <trkpt lat="42.637060023844242095947265625" lon="-0.4636719636619091033935546875">
        <ele>1084.5999755859375</ele>
        <time>2020-08-19T09:18:08.000Z</time>
      </trkpt>
      <trkpt lat="42.63695784844458103179931640625" lon="-0.463661067187786102294921875">
        <ele>1083</ele>
        <time>2020-08-19T09:18:11.000Z</time>
      </trkpt>
      <trkpt lat="42.63689096085727214813232421875" lon="-0.46363734640181064605712890625">
        <ele>1081.5999755859375</ele>
        <time>2020-08-19T09:18:13.000Z</time>
      </trkpt>
      <trkpt lat="42.636828012764453887939453125" lon="-0.4636184871196746826171875">
        <ele>1079.800048828125</ele>
        <time>2020-08-19T09:18:15.000Z</time>
      </trkpt>
      <trkpt lat="42.6367386616766452789306640625" lon="-0.46358018182218074798583984375">
        <ele>1078.5999755859375</ele>
        <time>2020-08-19T09:18:18.000Z</time>
      </trkpt>
      <trkpt lat="42.636709325015544891357421875" lon="-0.4635656811296939849853515625">
        <ele>1078</ele>
        <time>2020-08-19T09:18:19.000Z</time>
      </trkpt>
      <trkpt lat="42.63668392784893512725830078125" lon="-0.463545061647891998291015625">
        <ele>1077.5999755859375</ele>
        <time>2020-08-19T09:18:20.000Z</time>
      </trkpt>
      <trkpt lat="42.636577896773815155029296875" lon="-0.4634697921574115753173828125">
        <ele>1077.199951171875</ele>
        <time>2020-08-19T09:18:24.000Z</time>
      </trkpt>
      <trkpt lat="42.6365200616419315338134765625" lon="-0.4634245298802852630615234375">
        <ele>1076.5999755859375</ele>
        <time>2020-08-19T09:18:26.000Z</time>
      </trkpt>
      <trkpt lat="42.63643666170537471771240234375" lon="-0.4633393697440624237060546875">
        <ele>1075.5999755859375</ele>
        <time>2020-08-19T09:18:29.000Z</time>
      </trkpt>
      <trkpt lat="42.6363856159150600433349609375" lon="-0.4632763378322124481201171875">
        <ele>1074.5999755859375</ele>
        <time>2020-08-19T09:18:31.000Z</time>
      </trkpt>
      <trkpt lat="42.63628251850605010986328125" lon="-0.4631955362856388092041015625">
        <ele>1073.5999755859375</ele>
        <time>2020-08-19T09:18:35.000Z</time>
      </trkpt>
      <trkpt lat="42.63625971972942352294921875" lon="-0.46318338252604007720947265625">
        <ele>1073.199951171875</ele>
        <time>2020-08-19T09:18:36.000Z</time>
      </trkpt>
      <trkpt lat="42.6361730508506298065185546875" lon="-0.46312957070767879486083984375">
        <ele>1072.199951171875</ele>
        <time>2020-08-19T09:18:40.000Z</time>
      </trkpt>
      <trkpt lat="42.636107839643955230712890625" lon="-0.46306301839649677276611328125">
        <ele>1071</ele>
        <time>2020-08-19T09:18:43.000Z</time>
      </trkpt>
      <trkpt lat="42.63606132008135318756103515625" lon="-0.4630258865654468536376953125">
        <ele>1070</ele>
        <time>2020-08-19T09:18:45.000Z</time>
      </trkpt>
      <trkpt lat="42.63601161539554595947265625" lon="-0.4629980586469173431396484375">
        <ele>1069</ele>
        <time>2020-08-19T09:18:47.000Z</time>
      </trkpt>
      <trkpt lat="42.6359505951404571533203125" lon="-0.4629859887063503265380859375">
        <ele>1068.4000244140625</ele>
        <time>2020-08-19T09:18:49.000Z</time>
      </trkpt>
      <trkpt lat="42.6358850486576557159423828125" lon="-0.4629591666162014007568359375">
        <ele>1067.800048828125</ele>
        <time>2020-08-19T09:18:51.000Z</time>
      </trkpt>
      <trkpt lat="42.63576753437519073486328125" lon="-0.46294785104691982269287109375">
        <ele>1067</ele>
        <time>2020-08-19T09:18:54.000Z</time>
      </trkpt>
      <trkpt lat="42.63572319410741329193115234375" lon="-0.46294768340885639190673828125">
        <ele>1066.5999755859375</ele>
        <time>2020-08-19T09:18:55.000Z</time>
      </trkpt>
      <trkpt lat="42.63568438589572906494140625" lon="-0.462946593761444091796875">
        <ele>1065.800048828125</ele>
        <time>2020-08-19T09:18:56.000Z</time>
      </trkpt>
      <trkpt lat="42.6355268061161041259765625" lon="-0.46296226792037487030029296875">
        <ele>1064.5999755859375</ele>
        <time>2020-08-19T09:19:00.000Z</time>
      </trkpt>
      <trkpt lat="42.63545346446335315704345703125" lon="-0.4629692249000072479248046875">
        <ele>1063.199951171875</ele>
        <time>2020-08-19T09:19:02.000Z</time>
      </trkpt>
      <trkpt lat="42.635384984314441680908203125" lon="-0.46298271976411342620849609375">
        <ele>1062</ele>
        <time>2020-08-19T09:19:04.000Z</time>
      </trkpt>
      <trkpt lat="42.6352825574576854705810546875" lon="-0.46300417743623256683349609375">
        <ele>1061.4000244140625</ele>
        <time>2020-08-19T09:19:07.000Z</time>
      </trkpt>
      <trkpt lat="42.6352074556052684783935546875" lon="-0.46301406808197498321533203125">
        <ele>1061.199951171875</ele>
        <time>2020-08-19T09:19:09.000Z</time>
      </trkpt>
      <trkpt lat="42.6350827328860759735107421875" lon="-0.463024713099002838134765625">
        <ele>1060.199951171875</ele>
        <time>2020-08-19T09:19:12.000Z</time>
      </trkpt>
      <trkpt lat="42.63503931462764739990234375" lon="-0.4630275629460811614990234375">
        <ele>1060</ele>
        <time>2020-08-19T09:19:13.000Z</time>
      </trkpt>
      <trkpt lat="42.634916938841342926025390625" lon="-0.46302261762320995330810546875">
        <ele>1058</ele>
        <time>2020-08-19T09:19:16.000Z</time>
      </trkpt>
      <trkpt lat="42.63479632325470447540283203125" lon="-0.463008619844913482666015625">
        <ele>1057.199951171875</ele>
        <time>2020-08-19T09:19:19.000Z</time>
      </trkpt>
      <trkpt lat="42.63472323305904865264892578125" lon="-0.46299579553306102752685546875">
        <ele>1057</ele>
        <time>2020-08-19T09:19:21.000Z</time>
      </trkpt>
      <trkpt lat="42.63460370711982250213623046875" lon="-0.46295019797980785369873046875">
        <ele>1056.4000244140625</ele>
        <time>2020-08-19T09:19:24.000Z</time>
      </trkpt>
      <trkpt lat="42.6345623843371868133544921875" lon="-0.462930165231227874755859375">
        <ele>1056</ele>
        <time>2020-08-19T09:19:25.000Z</time>
      </trkpt>
      <trkpt lat="42.634442858397960662841796875" lon="-0.46287274919450283050537109375">
        <ele>1054.4000244140625</ele>
        <time>2020-08-19T09:19:28.000Z</time>
      </trkpt>
      <trkpt lat="42.63436515815556049346923828125" lon="-0.46284039504826068878173828125">
        <ele>1053.4000244140625</ele>
        <time>2020-08-19T09:19:30.000Z</time>
      </trkpt>
      <trkpt lat="42.63428351841866970062255859375" lon="-0.46280770562589168548583984375">
        <ele>1053.4000244140625</ele>
        <time>2020-08-19T09:19:32.000Z</time>
      </trkpt>
      <trkpt lat="42.6340274512767791748046875" lon="-0.4626909457147121429443359375">
        <ele>1052.199951171875</ele>
        <time>2020-08-19T09:19:39.000Z</time>
      </trkpt>
      <trkpt lat="42.63382569886744022369384765625" lon="-0.46260452829301357269287109375">
        <ele>1051</ele>
        <time>2020-08-19T09:19:45.000Z</time>
      </trkpt>
      <trkpt lat="42.63379133306443691253662109375" lon="-0.462590865790843963623046875">
        <ele>1050.4000244140625</ele>
        <time>2020-08-19T09:19:46.000Z</time>
      </trkpt>
      <trkpt lat="42.63375378213822841644287109375" lon="-0.462576784193515777587890625">
        <ele>1050</ele>
        <time>2020-08-19T09:19:47.000Z</time>
      </trkpt>
      <trkpt lat="42.633482627570629119873046875" lon="-0.4624488763511180877685546875">
        <ele>1049.5999755859375</ele>
        <time>2020-08-19T09:19:54.000Z</time>
      </trkpt>
      <trkpt lat="42.63340291567146778106689453125" lon="-0.4624049551784992218017578125">
        <ele>1049.5999755859375</ele>
        <time>2020-08-19T09:19:56.000Z</time>
      </trkpt>
      <trkpt lat="42.63336150906980037689208984375" lon="-0.46238710172474384307861328125">
        <ele>1048.5999755859375</ele>
        <time>2020-08-19T09:19:57.000Z</time>
      </trkpt>
      <trkpt lat="42.6333208568394184112548828125" lon="-0.462368912994861602783203125">
        <ele>1047.5999755859375</ele>
        <time>2020-08-19T09:19:58.000Z</time>
      </trkpt>
      <trkpt lat="42.63324349187314510345458984375" lon="-0.46234066598117351531982421875">
        <ele>1046.199951171875</ele>
        <time>2020-08-19T09:20:00.000Z</time>
      </trkpt>
      <trkpt lat="42.63320468366146087646484375" lon="-0.462329685688018798828125">
        <ele>1046.199951171875</ele>
        <time>2020-08-19T09:20:01.000Z</time>
      </trkpt>
      <trkpt lat="42.6329691521823406219482421875" lon="-0.46226422302424907684326171875">
        <ele>1046</ele>
        <time>2020-08-19T09:20:07.000Z</time>
      </trkpt>
      <trkpt lat="42.63292531482875347137451171875" lon="-0.462255589663982391357421875">
        <ele>1045.800048828125</ele>
        <time>2020-08-19T09:20:08.000Z</time>
      </trkpt>
      <trkpt lat="42.63283914886415004730224609375" lon="-0.46223958022892475128173828125">
        <ele>1045.199951171875</ele>
        <time>2020-08-19T09:20:10.000Z</time>
      </trkpt>
      <trkpt lat="42.63267670758068561553955078125" lon="-0.462215356528759002685546875">
        <ele>1044.199951171875</ele>
        <time>2020-08-19T09:20:14.000Z</time>
      </trkpt>
      <trkpt lat="42.63261099345982074737548828125" lon="-0.46220404095947742462158203125">
        <ele>1044</ele>
        <time>2020-08-19T09:20:16.000Z</time>
      </trkpt>
      <trkpt lat="42.6324005238711833953857421875" lon="-0.46210999600589275360107421875">
        <ele>1043.800048828125</ele>
        <time>2020-08-19T09:20:23.000Z</time>
      </trkpt>
      <trkpt lat="42.63226381503045558929443359375" lon="-0.46201075427234172821044921875">
        <ele>1043.199951171875</ele>
        <time>2020-08-19T09:20:27.000Z</time>
      </trkpt>
      <trkpt lat="42.63213389553129673004150390625" lon="-0.4618911445140838623046875">
        <ele>1042.199951171875</ele>
        <time>2020-08-19T09:20:31.000Z</time>
      </trkpt>
      <trkpt lat="42.6321021281182765960693359375" lon="-0.4618608020246028900146484375">
        <ele>1042</ele>
        <time>2020-08-19T09:20:32.000Z</time>
      </trkpt>
      <trkpt lat="42.63189249671995639801025390625" lon="-0.46169408597052097320556640625">
        <ele>1040.800048828125</ele>
        <time>2020-08-19T09:20:38.000Z</time>
      </trkpt>
      <trkpt lat="42.63173625804483890533447265625" lon="-0.46160825528204441070556640625">
        <ele>1039.5999755859375</ele>
        <time>2020-08-19T09:20:42.000Z</time>
      </trkpt>
      <trkpt lat="42.631574571132659912109375" lon="-0.461547486484050750732421875">
        <ele>1039.199951171875</ele>
        <time>2020-08-19T09:20:46.000Z</time>
      </trkpt>
      <trkpt lat="42.63144389726221561431884765625" lon="-0.461499877274036407470703125">
        <ele>1038.5999755859375</ele>
        <time>2020-08-19T09:20:49.000Z</time>
      </trkpt>
      <trkpt lat="42.63136259280145168304443359375" lon="-0.4614581353962421417236328125">
        <ele>1036.800048828125</ele>
        <time>2020-08-19T09:20:51.000Z</time>
      </trkpt>
      <trkpt lat="42.63132353313267230987548828125" lon="-0.4614393599331378936767578125">
        <ele>1035.5999755859375</ele>
        <time>2020-08-19T09:20:52.000Z</time>
      </trkpt>
      <trkpt lat="42.63128296472132205963134765625" lon="-0.46141983009874820709228515625">
        <ele>1034.800048828125</ele>
        <time>2020-08-19T09:20:53.000Z</time>
      </trkpt>
      <trkpt lat="42.6312421448528766632080078125" lon="-0.46140055172145366668701171875">
        <ele>1034</ele>
        <time>2020-08-19T09:20:54.000Z</time>
      </trkpt>
      <trkpt lat="42.6309387199580669403076171875" lon="-0.46125487424433231353759765625">
        <ele>1034</ele>
        <time>2020-08-19T09:21:01.000Z</time>
      </trkpt>
      <trkpt lat="42.6307325251400470733642578125" lon="-0.4611761681735515594482421875">
        <ele>1035</ele>
        <time>2020-08-19T09:21:06.000Z</time>
      </trkpt>
      <trkpt lat="42.630699835717678070068359375" lon="-0.4611624218523502349853515625">
        <ele>1034.800048828125</ele>
        <time>2020-08-19T09:21:07.000Z</time>
      </trkpt>
      <trkpt lat="42.63063848018646240234375" lon="-0.46113702468574047088623046875">
        <ele>1033.5999755859375</ele>
        <time>2020-08-19T09:21:09.000Z</time>
      </trkpt>
      <trkpt lat="42.63052918016910552978515625" lon="-0.46105354093015193939208984375">
        <ele>1033</ele>
        <time>2020-08-19T09:21:13.000Z</time>
      </trkpt>
      <trkpt lat="42.63035559095442295074462890625" lon="-0.4609404690563678741455078125">
        <ele>1034.199951171875</ele>
        <time>2020-08-19T09:21:19.000Z</time>
      </trkpt>
      <trkpt lat="42.63015543110668659210205078125" lon="-0.460774339735507965087890625">
        <ele>1032.5999755859375</ele>
        <time>2020-08-19T09:21:26.000Z</time>
      </trkpt>
      <trkpt lat="42.63005468063056468963623046875" lon="-0.460741817951202392578125">
        <ele>1031.4000244140625</ele>
        <time>2020-08-19T09:21:29.000Z</time>
      </trkpt>
      <trkpt lat="42.62998142279684543609619140625" lon="-0.4607443325221538543701171875">
        <ele>1030.800048828125</ele>
        <time>2020-08-19T09:21:31.000Z</time>
      </trkpt>
      <trkpt lat="42.62994571588933467864990234375" lon="-0.46075380407273769378662109375">
        <ele>1030.4000244140625</ele>
        <time>2020-08-19T09:21:32.000Z</time>
      </trkpt>
      <trkpt lat="42.62980909086763858795166015625" lon="-0.46079738996922969818115234375">
        <ele>1030.800048828125</ele>
        <time>2020-08-19T09:21:36.000Z</time>
      </trkpt>
      <trkpt lat="42.62961111031472682952880859375" lon="-0.4608030058443546295166015625">
        <ele>1029.199951171875</ele>
        <time>2020-08-19T09:21:41.000Z</time>
      </trkpt>
      <trkpt lat="42.629569955170154571533203125" lon="-0.46080015599727630615234375">
        <ele>1028</ele>
        <time>2020-08-19T09:21:42.000Z</time>
      </trkpt>
      <trkpt lat="42.6295030675828456878662109375" lon="-0.4607941210269927978515625">
        <ele>1027</ele>
        <time>2020-08-19T09:21:44.000Z</time>
      </trkpt>
      <trkpt lat="42.62941933237016201019287109375" lon="-0.46079789288341999053955078125">
        <ele>1026.4000244140625</ele>
        <time>2020-08-19T09:21:46.000Z</time>
      </trkpt>
      <trkpt lat="42.6293233595788478851318359375" lon="-0.460815913975238800048828125">
        <ele>1025.5999755859375</ele>
        <time>2020-08-19T09:21:48.000Z</time>
      </trkpt>
      <trkpt lat="42.629278600215911865234375" lon="-0.4608211107552051544189453125">
        <ele>1025.4000244140625</ele>
        <time>2020-08-19T09:21:49.000Z</time>
      </trkpt>
      <trkpt lat="42.62923576869070529937744140625" lon="-0.46082102693617343902587890625">
        <ele>1025.199951171875</ele>
        <time>2020-08-19T09:21:50.000Z</time>
      </trkpt>
      <trkpt lat="42.628990598022937774658203125" lon="-0.46089000999927520751953125">
        <ele>1026</ele>
        <time>2020-08-19T09:21:56.000Z</time>
      </trkpt>
      <trkpt lat="42.628768980503082275390625" lon="-0.460954718291759490966796875">
        <ele>1025.5999755859375</ele>
        <time>2020-08-19T09:22:02.000Z</time>
      </trkpt>
      <trkpt lat="42.62866328470408916473388671875" lon="-0.4609609209001064300537109375">
        <ele>1024.5999755859375</ele>
        <time>2020-08-19T09:22:05.000Z</time>
      </trkpt>
      <trkpt lat="42.628589607775211334228515625" lon="-0.46097558923065662384033203125">
        <ele>1024.199951171875</ele>
        <time>2020-08-19T09:22:07.000Z</time>
      </trkpt>
      <trkpt lat="42.628395818173885345458984375" lon="-0.46097743324935436248779296875">
        <ele>1024.199951171875</ele>
        <time>2020-08-19T09:22:12.000Z</time>
      </trkpt>
      <trkpt lat="42.6283513940870761871337890625" lon="-0.460981540381908416748046875">
        <ele>1024.199951171875</ele>
        <time>2020-08-19T09:22:13.000Z</time>
      </trkpt>
      <trkpt lat="42.62830319814383983612060546875" lon="-0.4609894193708896636962890625">
        <ele>1023.79998779296875</ele>
        <time>2020-08-19T09:22:14.000Z</time>
      </trkpt>
      <trkpt lat="42.6282089017331600189208984375" lon="-0.461027137935161590576171875">
        <ele>1022.20001220703125</ele>
        <time>2020-08-19T09:22:16.000Z</time>
      </trkpt>
      <trkpt lat="42.6281616277992725372314453125" lon="-0.46104834415018558502197265625">
        <ele>1021.4000244140625</ele>
        <time>2020-08-19T09:22:17.000Z</time>
      </trkpt>
      <trkpt lat="42.62811376713216304779052734375" lon="-0.4610762558877468109130859375">
        <ele>1021</ele>
        <time>2020-08-19T09:22:18.000Z</time>
      </trkpt>
      <trkpt lat="42.6278436183929443359375" lon="-0.4612381942570209503173828125">
        <ele>1021.5999755859375</ele>
        <time>2020-08-19T09:22:24.000Z</time>
      </trkpt>
      <trkpt lat="42.627483196556568145751953125" lon="-0.46148370020091533660888671875">
        <ele>1021.4000244140625</ele>
        <time>2020-08-19T09:22:33.000Z</time>
      </trkpt>
      <trkpt lat="42.62736995704472064971923828125" lon="-0.4615654237568378448486328125">
        <ele>1020.20001220703125</ele>
        <time>2020-08-19T09:22:36.000Z</time>
      </trkpt>
      <trkpt lat="42.6272885687649250030517578125" lon="-0.46161747537553310394287109375">
        <ele>1018.79998779296875</ele>
        <time>2020-08-19T09:22:38.000Z</time>
      </trkpt>
      <trkpt lat="42.62720600701868534088134765625" lon="-0.46167321503162384033203125">
        <ele>1018.20001220703125</ele>
        <time>2020-08-19T09:22:40.000Z</time>
      </trkpt>
      <trkpt lat="42.6271303184330463409423828125" lon="-0.46173624694347381591796875">
        <ele>1017.5999755859375</ele>
        <time>2020-08-19T09:22:42.000Z</time>
      </trkpt>
      <trkpt lat="42.62707223184406757354736328125" lon="-0.4618162102997303009033203125">
        <ele>1017.20001220703125</ele>
        <time>2020-08-19T09:22:44.000Z</time>
      </trkpt>
      <trkpt lat="42.627052702009677886962890625" lon="-0.46186507679522037506103515625">
        <ele>1017.20001220703125</ele>
        <time>2020-08-19T09:22:45.000Z</time>
      </trkpt>
      <trkpt lat="42.62704725377261638641357421875" lon="-0.46195560134947299957275390625">
        <ele>1016.5999755859375</ele>
        <time>2020-08-19T09:22:47.000Z</time>
      </trkpt>
      <trkpt lat="42.627059407532215118408203125" lon="-0.46199482865631580352783203125">
        <ele>1016.79998779296875</ele>
        <time>2020-08-19T09:22:48.000Z</time>
      </trkpt>
      <trkpt lat="42.6270939409732818603515625" lon="-0.46207529492676258087158203125">
        <ele>1016.4000244140625</ele>
        <time>2020-08-19T09:22:50.000Z</time>
      </trkpt>
      <trkpt lat="42.62719360180199146270751953125" lon="-0.4623201303184032440185546875">
        <ele>1016</ele>
        <time>2020-08-19T09:22:55.000Z</time>
      </trkpt>
      <trkpt lat="42.6272868923842906951904296875" lon="-0.4625360481441020965576171875">
        <ele>1016.20001220703125</ele>
        <time>2020-08-19T09:23:00.000Z</time>
      </trkpt>
      <trkpt lat="42.62735520489513874053955078125" lon="-0.46271014027297496795654296875">
        <ele>1016.79998779296875</ele>
        <time>2020-08-19T09:23:07.000Z</time>
      </trkpt>
      <trkpt lat="42.62742041610181331634521484375" lon="-0.46287811361253261566162109375">
        <ele>1016.5999755859375</ele>
        <time>2020-08-19T09:23:14.000Z</time>
      </trkpt>
      <trkpt lat="42.62741890735924243927001953125" lon="-0.4629843123257160186767578125">
        <ele>1016.20001220703125</ele>
        <time>2020-08-19T09:23:18.000Z</time>
      </trkpt>
      <trkpt lat="42.62740331701934337615966796875" lon="-0.463005602359771728515625">
        <ele>1016</ele>
        <time>2020-08-19T09:23:19.000Z</time>
      </trkpt>
      <trkpt lat="42.627384625375270843505859375" lon="-0.46302882023155689239501953125">
        <ele>1015.79998779296875</ele>
        <time>2020-08-19T09:23:20.000Z</time>
      </trkpt>
      <trkpt lat="42.62726719491183757781982421875" lon="-0.4631425626575946807861328125">
        <ele>1015.5999755859375</ele>
        <time>2020-08-19T09:23:25.000Z</time>
      </trkpt>
      <trkpt lat="42.62705496512353420257568359375" lon="-0.4632756672799587249755859375">
        <ele>1015.5999755859375</ele>
        <time>2020-08-19T09:23:32.000Z</time>
      </trkpt>
      <trkpt lat="42.62702110223472118377685546875" lon="-0.46329704113304615020751953125">
        <ele>1015</ele>
        <time>2020-08-19T09:23:33.000Z</time>
      </trkpt>
      <trkpt lat="42.626916579902172088623046875" lon="-0.46335085295140743255615234375">
        <ele>1014</ele>
        <time>2020-08-19T09:23:36.000Z</time>
      </trkpt>
      <trkpt lat="42.6268118061125278472900390625" lon="-0.4633930139243602752685546875">
        <ele>1012.5999755859375</ele>
        <time>2020-08-19T09:23:39.000Z</time>
      </trkpt>
      <trkpt lat="42.6266921125352382659912109375" lon="-0.46339075081050395965576171875">
        <ele>1011.4000244140625</ele>
        <time>2020-08-19T09:23:42.000Z</time>
      </trkpt>
      <trkpt lat="42.62665179558098316192626953125" lon="-0.4633779264986515045166015625">
        <ele>1011.20001220703125</ele>
        <time>2020-08-19T09:23:43.000Z</time>
      </trkpt>
      <trkpt lat="42.6264931261539459228515625" lon="-0.46333023346960544586181640625">
        <ele>1010.20001220703125</ele>
        <time>2020-08-19T09:23:47.000Z</time>
      </trkpt>
      <trkpt lat="42.62641039676964282989501953125" lon="-0.46332101337611675262451171875">
        <ele>1009.5999755859375</ele>
        <time>2020-08-19T09:23:49.000Z</time>
      </trkpt>
      <trkpt lat="42.62637200765311717987060546875" lon="-0.4633234441280364990234375">
        <ele>1009.20001220703125</ele>
        <time>2020-08-19T09:23:50.000Z</time>
      </trkpt>
      <trkpt lat="42.6263001747429370880126953125" lon="-0.46333911828696727752685546875">
        <ele>1008</ele>
        <time>2020-08-19T09:23:52.000Z</time>
      </trkpt>
      <trkpt lat="42.62623236514627933502197265625" lon="-0.46337029896676540374755859375">
        <ele>1006.79998779296875</ele>
        <time>2020-08-19T09:23:54.000Z</time>
      </trkpt>
      <trkpt lat="42.62616363354027271270751953125" lon="-0.46341128647327423095703125">
        <ele>1007</ele>
        <time>2020-08-19T09:23:56.000Z</time>
      </trkpt>
      <trkpt lat="42.626006305217742919921875" lon="-0.46354942023754119873046875">
        <ele>1007.5999755859375</ele>
        <time>2020-08-19T09:24:01.000Z</time>
      </trkpt>
      <trkpt lat="42.62597403489053249359130859375" lon="-0.46359275467693805694580078125">
        <ele>1007.4000244140625</ele>
        <time>2020-08-19T09:24:02.000Z</time>
      </trkpt>
      <trkpt lat="42.62581796385347843170166015625" lon="-0.4638545215129852294921875">
        <ele>1005.20001220703125</ele>
        <time>2020-08-19T09:24:07.000Z</time>
      </trkpt>
      <trkpt lat="42.62579231522977352142333984375" lon="-0.46390372328460216522216796875">
        <ele>1004.79998779296875</ele>
        <time>2020-08-19T09:24:08.000Z</time>
      </trkpt>
      <trkpt lat="42.6257704384624958038330078125" lon="-0.4639542661607265472412109375">
        <ele>1004.5999755859375</ele>
        <time>2020-08-19T09:24:09.000Z</time>
      </trkpt>
      <trkpt lat="42.62572559528052806854248046875" lon="-0.46412684954702854156494140625">
        <ele>1004</ele>
        <time>2020-08-19T09:24:12.000Z</time>
      </trkpt>
      <trkpt lat="42.62571369297802448272705078125" lon="-0.4641882888972759246826171875">
        <ele>1003.79998779296875</ele>
        <time>2020-08-19T09:24:13.000Z</time>
      </trkpt>
      <trkpt lat="42.62567077763378620147705078125" lon="-0.46441183425486087799072265625">
        <ele>1003.20001220703125</ele>
        <time>2020-08-19T09:24:17.000Z</time>
      </trkpt>
      <trkpt lat="42.6256329752504825592041015625" lon="-0.46450965106487274169921875">
        <ele>1003.79998779296875</ele>
        <time>2020-08-19T09:24:19.000Z</time>
      </trkpt>
      <trkpt lat="42.6255618967115879058837890625" lon="-0.46464485116302967071533203125">
        <ele>1003</ele>
        <time>2020-08-19T09:24:22.000Z</time>
      </trkpt>
      <trkpt lat="42.6254284568130970001220703125" lon="-0.4648635350167751312255859375">
        <ele>1002</ele>
        <time>2020-08-19T09:24:27.000Z</time>
      </trkpt>
      <trkpt lat="42.62539987452328205108642578125" lon="-0.464905612170696258544921875">
        <ele>1002.5999755859375</ele>
        <time>2020-08-19T09:24:28.000Z</time>
      </trkpt>
      <trkpt lat="42.62533248402178287506103515625" lon="-0.4649768583476543426513671875">
        <ele>1001.79998779296875</ele>
        <time>2020-08-19T09:24:30.000Z</time>
      </trkpt>
      <trkpt lat="42.62526157312095165252685546875" lon="-0.46504131518304347991943359375">
        <ele>1001.20001220703125</ele>
        <time>2020-08-19T09:24:32.000Z</time>
      </trkpt>
      <trkpt lat="42.62505219317972660064697265625" lon="-0.4652144014835357666015625">
        <ele>1000.79998779296875</ele>
        <time>2020-08-19T09:24:38.000Z</time>
      </trkpt>
      <trkpt lat="42.625018246471881866455078125" lon="-0.4652484320104122161865234375">
        <ele>1000.5999755859375</ele>
        <time>2020-08-19T09:24:39.000Z</time>
      </trkpt>
      <trkpt lat="42.62489628978073596954345703125" lon="-0.46541221439838409423828125">
        <ele>1000.20001220703125</ele>
        <time>2020-08-19T09:24:43.000Z</time>
      </trkpt>
      <trkpt lat="42.624824456870555877685546875" lon="-0.46554774977266788482666015625">
        <ele>999.5999755859375</ele>
        <time>2020-08-19T09:24:46.000Z</time>
      </trkpt>
      <trkpt lat="42.624778859317302703857421875" lon="-0.46564548276364803314208984375">
        <ele>998.20001220703125</ele>
        <time>2020-08-19T09:24:48.000Z</time>
      </trkpt>
      <trkpt lat="42.624713815748691558837890625" lon="-0.46578646637499332427978515625">
        <ele>998.20001220703125</ele>
        <time>2020-08-19T09:24:51.000Z</time>
      </trkpt>
      <trkpt lat="42.62461197562515735626220703125" lon="-0.46594806946814060211181640625">
        <ele>996.4000244140625</ele>
        <time>2020-08-19T09:24:55.000Z</time>
      </trkpt>
      <trkpt lat="42.62458347715437412261962890625" lon="-0.4659833572804927825927734375">
        <ele>995.4000244140625</ele>
        <time>2020-08-19T09:24:56.000Z</time>
      </trkpt>
      <trkpt lat="42.624525725841522216796875" lon="-0.466052256524562835693359375">
        <ele>995.4000244140625</ele>
        <time>2020-08-19T09:24:58.000Z</time>
      </trkpt>
      <trkpt lat="42.624267898499965667724609375" lon="-0.466322489082813262939453125">
        <ele>995.20001220703125</ele>
        <time>2020-08-19T09:25:07.000Z</time>
      </trkpt>
      <trkpt lat="42.62420679442584514617919921875" lon="-0.4663870297372341156005859375">
        <ele>993.20001220703125</ele>
        <time>2020-08-19T09:25:09.000Z</time>
      </trkpt>
      <trkpt lat="42.6241413317620754241943359375" lon="-0.4664550907909870147705078125">
        <ele>992.20001220703125</ele>
        <time>2020-08-19T09:25:11.000Z</time>
      </trkpt>
      <trkpt lat="42.62411199510097503662109375" lon="-0.46649808995425701141357421875">
        <ele>992</ele>
        <time>2020-08-19T09:25:12.000Z</time>
      </trkpt>
      <trkpt lat="42.62406078167259693145751953125" lon="-0.4666029475629329681396484375">
        <ele>991</ele>
        <time>2020-08-19T09:25:14.000Z</time>
      </trkpt>
      <trkpt lat="42.62399842031300067901611328125" lon="-0.4667813144624233245849609375">
        <ele>990.5999755859375</ele>
        <time>2020-08-19T09:25:17.000Z</time>
      </trkpt>
      <trkpt lat="42.62398383580148220062255859375" lon="-0.46684543602168560028076171875">
        <ele>990.5999755859375</ele>
        <time>2020-08-19T09:25:18.000Z</time>
      </trkpt>
      <trkpt lat="42.62388157658278942108154296875" lon="-0.4673489369451999664306640625">
        <ele>990.4000244140625</ele>
        <time>2020-08-19T09:25:26.000Z</time>
      </trkpt>
      <trkpt lat="42.62385047972202301025390625" lon="-0.4676396213471889495849609375">
        <ele>990</ele>
        <time>2020-08-19T09:25:31.000Z</time>
      </trkpt>
      <trkpt lat="42.623841762542724609375" lon="-0.467815808951854705810546875">
        <ele>989</ele>
        <time>2020-08-19T09:25:34.000Z</time>
      </trkpt>
      <trkpt lat="42.62384402565658092498779296875" lon="-0.46787372790277004241943359375">
        <ele>988.79998779296875</ele>
        <time>2020-08-19T09:25:35.000Z</time>
      </trkpt>
      <trkpt lat="42.62384536676108837127685546875" lon="-0.46828762628138065338134765625">
        <ele>988.5999755859375</ele>
        <time>2020-08-19T09:25:43.000Z</time>
      </trkpt>
      <trkpt lat="42.62383044697344303131103515625" lon="-0.46845459379255771636962890625">
        <ele>988</ele>
        <time>2020-08-19T09:25:47.000Z</time>
      </trkpt>
      <trkpt lat="42.62382206507027149200439453125" lon="-0.468620471656322479248046875">
        <ele>988</ele>
        <time>2020-08-19T09:25:51.000Z</time>
      </trkpt>
      <trkpt lat="42.6238157786428928375244140625" lon="-0.468921549618244171142578125">
        <ele>988</ele>
        <time>2020-08-19T09:25:58.000Z</time>
      </trkpt>
      <trkpt lat="42.62380681000649929046630859375" lon="-0.46923293732106685638427734375">
        <ele>988.20001220703125</ele>
        <time>2020-08-19T09:26:05.000Z</time>
      </trkpt>
      <trkpt lat="42.623801529407501220703125" lon="-0.46948104165494441986083984375">
        <ele>988.20001220703125</ele>
        <time>2020-08-19T09:26:11.000Z</time>
      </trkpt>
      <trkpt lat="42.62379423715174198150634765625" lon="-0.46973149292171001434326171875">
        <ele>988.4000244140625</ele>
        <time>2020-08-19T09:26:17.000Z</time>
      </trkpt>
      <trkpt lat="42.62380748055875301361083984375" lon="-0.47009275294840335845947265625">
        <ele>988.5999755859375</ele>
        <time>2020-08-19T09:26:25.000Z</time>
      </trkpt>
      <trkpt lat="42.62382307089865207672119140625" lon="-0.47042015008628368377685546875">
        <ele>987.4000244140625</ele>
        <time>2020-08-19T09:26:32.000Z</time>
      </trkpt>
      <trkpt lat="42.623846121132373809814453125" lon="-0.470768250524997711181640625">
        <ele>987.4000244140625</ele>
        <time>2020-08-19T09:26:39.000Z</time>
      </trkpt>
      <trkpt lat="42.62385173700749874114990234375" lon="-0.47107796184718608856201171875">
        <ele>987.20001220703125</ele>
        <time>2020-08-19T09:26:45.000Z</time>
      </trkpt>
      <trkpt lat="42.6238630525767803192138671875" lon="-0.47141424380242824554443359375">
        <ele>987.20001220703125</ele>
        <time>2020-08-19T09:26:52.000Z</time>
      </trkpt>
      <trkpt lat="42.623842768371105194091796875" lon="-0.4716662876307964324951171875">
        <ele>986.5999755859375</ele>
        <time>2020-08-19T09:26:58.000Z</time>
      </trkpt>
      <trkpt lat="42.6238095760345458984375" lon="-0.4719070158898830413818359375">
        <ele>987</ele>
        <time>2020-08-19T09:27:04.000Z</time>
      </trkpt>
      <trkpt lat="42.62375802733004093170166015625" lon="-0.47221940942108631134033203125">
        <ele>987.5999755859375</ele>
        <time>2020-08-19T09:27:12.000Z</time>
      </trkpt>
      <trkpt lat="42.62367990799248218536376953125" lon="-0.4725175537168979644775390625">
        <ele>988</ele>
        <time>2020-08-19T09:27:20.000Z</time>
      </trkpt>
      <trkpt lat="42.62361335568130016326904296875" lon="-0.47283497639000415802001953125">
        <ele>988.20001220703125</ele>
        <time>2020-08-19T09:27:28.000Z</time>
      </trkpt>
      <trkpt lat="42.62358896434307098388671875" lon="-0.47309079207479953765869140625">
        <ele>988.20001220703125</ele>
        <time>2020-08-19T09:27:34.000Z</time>
      </trkpt>
      <trkpt lat="42.6235901378095149993896484375" lon="-0.473388098180294036865234375">
        <ele>988.4000244140625</ele>
        <time>2020-08-19T09:27:41.000Z</time>
      </trkpt>
      <trkpt lat="42.6236240006983280181884765625" lon="-0.47349027357995510101318359375">
        <ele>988.5999755859375</ele>
        <time>2020-08-19T09:27:44.000Z</time>
      </trkpt>
      <trkpt lat="42.62363950721919536590576171875" lon="-0.47352128662168979644775390625">
        <ele>988.79998779296875</ele>
        <time>2020-08-19T09:27:45.000Z</time>
      </trkpt>
      <trkpt lat="42.623656690120697021484375" lon="-0.473551042377948760986328125">
        <ele>989.20001220703125</ele>
        <time>2020-08-19T09:27:46.000Z</time>
      </trkpt>
      <trkpt lat="42.623744197189807891845703125" lon="-0.47380342148244380950927734375">
        <ele>989.20001220703125</ele>
        <time>2020-08-19T09:27:53.000Z</time>
      </trkpt>
      <trkpt lat="42.623666413128376007080078125" lon="-0.47397441230714321136474609375">
        <ele>989.5999755859375</ele>
        <time>2020-08-19T09:27:58.000Z</time>
      </trkpt>
      <trkpt lat="42.62361402623355388641357421875" lon="-0.4740148968994617462158203125">
        <ele>989.79998779296875</ele>
        <time>2020-08-19T09:28:00.000Z</time>
      </trkpt>
      <trkpt lat="42.62352995574474334716796875" lon="-0.474051944911479949951171875">
        <ele>989.79998779296875</ele>
        <time>2020-08-19T09:28:03.000Z</time>
      </trkpt>
      <trkpt lat="42.6233896426856517791748046875" lon="-0.4741754941642284393310546875">
        <ele>989.20001220703125</ele>
        <time>2020-08-19T09:28:09.000Z</time>
      </trkpt>
      <trkpt lat="42.62324019335210323333740234375" lon="-0.474300384521484375">
        <ele>989.5999755859375</ele>
        <time>2020-08-19T09:28:15.000Z</time>
      </trkpt>
      <trkpt lat="42.6231106929481029510498046875" lon="-0.47449023462831974029541015625">
        <ele>990</ele>
        <time>2020-08-19T09:28:21.000Z</time>
      </trkpt>
      <trkpt lat="42.623002231121063232421875" lon="-0.47483053989708423614501953125">
        <ele>989.79998779296875</ele>
        <time>2020-08-19T09:28:28.000Z</time>
      </trkpt>
      <trkpt lat="42.622954286634922027587890625" lon="-0.4749830067157745361328125">
        <ele>988.4000244140625</ele>
        <time>2020-08-19T09:28:31.000Z</time>
      </trkpt>
      <trkpt lat="42.622883878648281097412109375" lon="-0.475193224847316741943359375">
        <ele>988</ele>
        <time>2020-08-19T09:28:35.000Z</time>
      </trkpt>
      <trkpt lat="42.62273526750504970550537109375" lon="-0.4755437560379505157470703125">
        <ele>987.5999755859375</ele>
        <time>2020-08-19T09:28:42.000Z</time>
      </trkpt>
      <trkpt lat="42.62269042432308197021484375" lon="-0.47572472132742404937744140625">
        <ele>987.5999755859375</ele>
        <time>2020-08-19T09:28:45.000Z</time>
      </trkpt>
      <trkpt lat="42.62267223559319972991943359375" lon="-0.47584910877048969268798828125">
        <ele>987.4000244140625</ele>
        <time>2020-08-19T09:28:47.000Z</time>
      </trkpt>
      <trkpt lat="42.62266871519386768341064453125" lon="-0.47590769827365875244140625">
        <ele>986.79998779296875</ele>
        <time>2020-08-19T09:28:48.000Z</time>
      </trkpt>
      <trkpt lat="42.622669972479343414306640625" lon="-0.4759638570249080657958984375">
        <ele>986.4000244140625</ele>
        <time>2020-08-19T09:28:49.000Z</time>
      </trkpt>
      <trkpt lat="42.62268447317183017730712890625" lon="-0.4760728217661380767822265625">
        <ele>986.20001220703125</ele>
        <time>2020-08-19T09:28:51.000Z</time>
      </trkpt>
      <trkpt lat="42.62269989587366580963134765625" lon="-0.476195700466632843017578125">
        <ele>986</ele>
        <time>2020-08-19T09:28:53.000Z</time>
      </trkpt>
      <trkpt lat="42.6227036677300930023193359375" lon="-0.47625638544559478759765625">
        <ele>985</ele>
        <time>2020-08-19T09:28:54.000Z</time>
      </trkpt>
      <trkpt lat="42.62269788421690464019775390625" lon="-0.4763169027864933013916015625">
        <ele>983.79998779296875</ele>
        <time>2020-08-19T09:28:55.000Z</time>
      </trkpt>
      <trkpt lat="42.62266703881323337554931640625" lon="-0.4764332436025142669677734375">
        <ele>982.5999755859375</ele>
        <time>2020-08-19T09:28:57.000Z</time>
      </trkpt>
      <trkpt lat="42.62264524586498737335205078125" lon="-0.476488061249256134033203125">
        <ele>982.4000244140625</ele>
        <time>2020-08-19T09:28:58.000Z</time>
      </trkpt>
      <trkpt lat="42.62252136133611202239990234375" lon="-0.47677346505224704742431640625">
        <ele>981.4000244140625</ele>
        <time>2020-08-19T09:29:03.000Z</time>
      </trkpt>
      <trkpt lat="42.62250057421624660491943359375" lon="-0.476830713450908660888671875">
        <ele>981.4000244140625</ele>
        <time>2020-08-19T09:29:04.000Z</time>
      </trkpt>
      <trkpt lat="42.622443996369838714599609375" lon="-0.4770407639443874359130859375">
        <ele>980.20001220703125</ele>
        <time>2020-08-19T09:29:08.000Z</time>
      </trkpt>
      <trkpt lat="42.622432596981525421142578125" lon="-0.4770883731544017791748046875">
        <ele>979.79998779296875</ele>
        <time>2020-08-19T09:29:09.000Z</time>
      </trkpt>
      <trkpt lat="42.62242354452610015869140625" lon="-0.47713271342217922210693359375">
        <ele>979.5999755859375</ele>
        <time>2020-08-19T09:29:10.000Z</time>
      </trkpt>
      <trkpt lat="42.62240502052009105682373046875" lon="-0.4772208072245121002197265625">
        <ele>979</ele>
        <time>2020-08-19T09:29:12.000Z</time>
      </trkpt>
      <trkpt lat="42.6223640330135822296142578125" lon="-0.4773809015750885009765625">
        <ele>978.20001220703125</ele>
        <time>2020-08-19T09:29:16.000Z</time>
      </trkpt>
      <trkpt lat="42.6223546452820301055908203125" lon="-0.4774224758148193359375">
        <ele>977.79998779296875</ele>
        <time>2020-08-19T09:29:17.000Z</time>
      </trkpt>
      <trkpt lat="42.6222694851458072662353515625" lon="-0.477786920964717864990234375">
        <ele>976.5999755859375</ele>
        <time>2020-08-19T09:29:25.000Z</time>
      </trkpt>
      <trkpt lat="42.62220586650073528289794921875" lon="-0.47812630422413349151611328125">
        <ele>975.5999755859375</ele>
        <time>2020-08-19T09:29:31.000Z</time>
      </trkpt>
      <trkpt lat="42.62219664640724658966064453125" lon="-0.47817978076636791229248046875">
        <ele>975.4000244140625</ele>
        <time>2020-08-19T09:29:32.000Z</time>
      </trkpt>
      <trkpt lat="42.62217032723128795623779296875" lon="-0.47835311852395534515380859375">
        <ele>974.5999755859375</ele>
        <time>2020-08-19T09:29:35.000Z</time>
      </trkpt>
      <trkpt lat="42.62211835943162441253662109375" lon="-0.4785840399563312530517578125">
        <ele>974.20001220703125</ele>
        <time>2020-08-19T09:29:39.000Z</time>
      </trkpt>
      <trkpt lat="42.622106373310089111328125" lon="-0.4786386899650096893310546875">
        <ele>974</ele>
        <time>2020-08-19T09:29:40.000Z</time>
      </trkpt>
      <trkpt lat="42.62209589593112468719482421875" lon="-0.47869459725916385650634765625">
        <ele>973.20001220703125</ele>
        <time>2020-08-19T09:29:41.000Z</time>
      </trkpt>
      <trkpt lat="42.62206119485199451446533203125" lon="-0.478871874511241912841796875">
        <ele>972</ele>
        <time>2020-08-19T09:29:44.000Z</time>
      </trkpt>
      <trkpt lat="42.6220482029020786285400390625" lon="-0.478932224214076995849609375">
        <ele>972</ele>
        <time>2020-08-19T09:29:45.000Z</time>
      </trkpt>
      <trkpt lat="42.62201584875583648681640625" lon="-0.47912710346281528472900390625">
        <ele>970.20001220703125</ele>
        <time>2020-08-19T09:29:48.000Z</time>
      </trkpt>
      <trkpt lat="42.62200721539556980133056640625" lon="-0.47919432632625102996826171875">
        <ele>968.79998779296875</ele>
        <time>2020-08-19T09:29:49.000Z</time>
      </trkpt>
      <trkpt lat="42.6219707541167736053466796875" lon="-0.47939448617398738861083984375">
        <ele>968.4000244140625</ele>
        <time>2020-08-19T09:29:52.000Z</time>
      </trkpt>
      <trkpt lat="42.62189858593046665191650390625" lon="-0.479848198592662811279296875">
        <ele>968.20001220703125</ele>
        <time>2020-08-19T09:29:59.000Z</time>
      </trkpt>
      <trkpt lat="42.62185399420559406280517578125" lon="-0.4800327681005001068115234375">
        <ele>967.5999755859375</ele>
        <time>2020-08-19T09:30:02.000Z</time>
      </trkpt>
      <trkpt lat="42.621841169893741607666015625" lon="-0.48009328544139862060546875">
        <ele>967.4000244140625</ele>
        <time>2020-08-19T09:30:03.000Z</time>
      </trkpt>
      <trkpt lat="42.6218165270984172821044921875" lon="-0.4802808724343776702880859375">
        <ele>966.79998779296875</ele>
        <time>2020-08-19T09:30:06.000Z</time>
      </trkpt>
      <trkpt lat="42.6218140125274658203125" lon="-0.48034130595624446868896484375">
        <ele>966.5999755859375</ele>
        <time>2020-08-19T09:30:07.000Z</time>
      </trkpt>
      <trkpt lat="42.62180906720459461212158203125" lon="-0.4804005660116672515869140625">
        <ele>965.79998779296875</ele>
        <time>2020-08-19T09:30:08.000Z</time>
      </trkpt>
      <trkpt lat="42.62180328369140625" lon="-0.48045613802969455718994140625">
        <ele>965.4000244140625</ele>
        <time>2020-08-19T09:30:09.000Z</time>
      </trkpt>
      <trkpt lat="42.62179247103631496429443359375" lon="-0.48061220906674861907958984375">
        <ele>964.79998779296875</ele>
        <time>2020-08-19T09:30:12.000Z</time>
      </trkpt>
      <trkpt lat="42.62178911827504634857177734375" lon="-0.48093122430145740509033203125">
        <ele>964.20001220703125</ele>
        <time>2020-08-19T09:30:19.000Z</time>
      </trkpt>
      <trkpt lat="42.62178995646536350250244140625" lon="-0.48097615130245685577392578125">
        <ele>963.5999755859375</ele>
        <time>2020-08-19T09:30:20.000Z</time>
      </trkpt>
      <trkpt lat="42.62179129756987094879150390625" lon="-0.4810171388089656829833984375">
        <ele>962.79998779296875</ele>
        <time>2020-08-19T09:30:21.000Z</time>
      </trkpt>
      <trkpt lat="42.62179465033113956451416015625" lon="-0.4810801707208156585693359375">
        <ele>962</ele>
        <time>2020-08-19T09:30:24.000Z</time>
      </trkpt>
      <trkpt lat="42.62179448269307613372802734375" lon="-0.48108025453984737396240234375">
        <ele>962</ele>
        <time>2020-08-19T09:30:30.000Z</time>
      </trkpt>
      <trkpt lat="42.621791549026966094970703125" lon="-0.48108176328241825103759765625">
        <ele>962</ele>
        <time>2020-08-19T09:30:36.000Z</time>
      </trkpt>
      <trkpt lat="42.6217912137508392333984375" lon="-0.4810823500156402587890625">
        <ele>962</ele>
        <time>2020-08-19T09:30:42.000Z</time>
      </trkpt>
      <trkpt lat="42.62179582379758358001708984375" lon="-0.48110070638358592987060546875">
        <ele>962.20001220703125</ele>
        <time>2020-08-19T09:30:55.000Z</time>
      </trkpt>
      <trkpt lat="42.62180051766335964202880859375" lon="-0.481119565665721893310546875">
        <ele>962.20001220703125</ele>
        <time>2020-08-19T09:31:04.000Z</time>
      </trkpt>
      <trkpt lat="42.621800936758518218994140625" lon="-0.4811187274754047393798828125">
        <ele>962.20001220703125</ele>
        <time>2020-08-19T09:31:22.000Z</time>
      </trkpt>
      <trkpt lat="42.621786184608936309814453125" lon="-0.48115485347807407379150390625">
        <ele>961.79998779296875</ele>
        <time>2020-08-19T09:31:40.000Z</time>
      </trkpt>
      <trkpt lat="42.62177235446870326995849609375" lon="-0.4811950027942657470703125">
        <ele>961.5999755859375</ele>
        <time>2020-08-19T09:31:42.000Z</time>
      </trkpt>
      <trkpt lat="42.62170563451945781707763671875" lon="-0.48131176270544528961181640625">
        <ele>961</ele>
        <time>2020-08-19T09:31:46.000Z</time>
      </trkpt>
      <trkpt lat="42.62160069309175014495849609375" lon="-0.4815562628209590911865234375">
        <ele>961.4000244140625</ele>
        <time>2020-08-19T09:31:52.000Z</time>
      </trkpt>
      <trkpt lat="42.62152642942965030670166015625" lon="-0.481759272515773773193359375">
        <ele>960.20001220703125</ele>
        <time>2020-08-19T09:31:56.000Z</time>
      </trkpt>
      <trkpt lat="42.621495835483074188232421875" lon="-0.4818798042833805084228515625">
        <ele>958.79998779296875</ele>
        <time>2020-08-19T09:31:58.000Z</time>
      </trkpt>
      <trkpt lat="42.62148519046604633331298828125" lon="-0.48194627277553081512451171875">
        <ele>958.4000244140625</ele>
        <time>2020-08-19T09:31:59.000Z</time>
      </trkpt>
      <trkpt lat="42.62146926485002040863037109375" lon="-0.482085160911083221435546875">
        <ele>957.20001220703125</ele>
        <time>2020-08-19T09:32:01.000Z</time>
      </trkpt>
      <trkpt lat="42.62144177220761775970458984375" lon="-0.48237794078886508941650390625">
        <ele>956.4000244140625</ele>
        <time>2020-08-19T09:32:05.000Z</time>
      </trkpt>
      <trkpt lat="42.6214363239705562591552734375" lon="-0.4824542999267578125">
        <ele>956.20001220703125</ele>
        <time>2020-08-19T09:32:06.000Z</time>
      </trkpt>
      <trkpt lat="42.6214326359331607818603515625" lon="-0.48253099434077739715576171875">
        <ele>955.4000244140625</ele>
        <time>2020-08-19T09:32:07.000Z</time>
      </trkpt>
      <trkpt lat="42.6214286126196384429931640625" lon="-0.4826063476502895355224609375">
        <ele>954.4000244140625</ele>
        <time>2020-08-19T09:32:08.000Z</time>
      </trkpt>
      <trkpt lat="42.621399275958538055419921875" lon="-0.482983700931072235107421875">
        <ele>952.4000244140625</ele>
        <time>2020-08-19T09:32:13.000Z</time>
      </trkpt>
      <trkpt lat="42.62139148078858852386474609375" lon="-0.48319794237613677978515625">
        <ele>951.20001220703125</ele>
        <time>2020-08-19T09:32:16.000Z</time>
      </trkpt>
      <trkpt lat="42.62136809527873992919921875" lon="-0.48339718021452426910400390625">
        <ele>952.4000244140625</ele>
        <time>2020-08-19T09:32:19.000Z</time>
      </trkpt>
      <trkpt lat="42.62132844887673854827880859375" lon="-0.48366456292569637298583984375">
        <ele>951.4000244140625</ele>
        <time>2020-08-19T09:32:24.000Z</time>
      </trkpt>
      <trkpt lat="42.62132124044001102447509765625" lon="-0.4837167821824550628662109375">
        <ele>951.4000244140625</ele>
        <time>2020-08-19T09:32:25.000Z</time>
      </trkpt>
      <trkpt lat="42.621289975941181182861328125" lon="-0.4840086400508880615234375">
        <ele>951.5999755859375</ele>
        <time>2020-08-19T09:32:31.000Z</time>
      </trkpt>
      <trkpt lat="42.62125276029109954833984375" lon="-0.4842475242912769317626953125">
        <ele>951.5999755859375</ele>
        <time>2020-08-19T09:32:37.000Z</time>
      </trkpt>
      <trkpt lat="42.62119618244469165802001953125" lon="-0.48456679098308086395263671875">
        <ele>951.20001220703125</ele>
        <time>2020-08-19T09:32:45.000Z</time>
      </trkpt>
      <trkpt lat="42.62117925100028514862060546875" lon="-0.4846501909196376800537109375">
        <ele>950.5999755859375</ele>
        <time>2020-08-19T09:32:47.000Z</time>
      </trkpt>
      <trkpt lat="42.62112828902900218963623046875" lon="-0.4848892427980899810791015625">
        <ele>950</ele>
        <time>2020-08-19T09:32:53.000Z</time>
      </trkpt>
      <trkpt lat="42.621075399219989776611328125" lon="-0.48522225581109523773193359375">
        <ele>950</ele>
        <time>2020-08-19T09:33:01.000Z</time>
      </trkpt>
      <trkpt lat="42.62105067260563373565673828125" lon="-0.48556909896433353424072265625">
        <ele>950</ele>
        <time>2020-08-19T09:33:09.000Z</time>
      </trkpt>
      <trkpt lat="42.62097422964870929718017578125" lon="-0.48589934594929218292236328125">
        <ele>950.4000244140625</ele>
        <time>2020-08-19T09:33:17.000Z</time>
      </trkpt>
      <trkpt lat="42.62088001705706119537353515625" lon="-0.48629430122673511505126953125">
        <ele>950.79998779296875</ele>
        <time>2020-08-19T09:33:26.000Z</time>
      </trkpt>
      <trkpt lat="42.620860822498798370361328125" lon="-0.48675329424440860748291015625">
        <ele>950.79998779296875</ele>
        <time>2020-08-19T09:33:36.000Z</time>
      </trkpt>
      <trkpt lat="42.6208690367639064788818359375" lon="-0.48708446323871612548828125">
        <ele>950.79998779296875</ele>
        <time>2020-08-19T09:33:43.000Z</time>
      </trkpt>
      <trkpt lat="42.62088940478861331939697265625" lon="-0.487563572824001312255859375">
        <ele>950.79998779296875</ele>
        <time>2020-08-19T09:33:53.000Z</time>
      </trkpt>
      <trkpt lat="42.620919160544872283935546875" lon="-0.48795291222631931304931640625">
        <ele>950.79998779296875</ele>
        <time>2020-08-19T09:34:01.000Z</time>
      </trkpt>
      <trkpt lat="42.6209334097802639007568359375" lon="-0.48815290443599224090576171875">
        <ele>950.79998779296875</ele>
        <time>2020-08-19T09:34:05.000Z</time>
      </trkpt>
      <trkpt lat="42.62095897458493709564208984375" lon="-0.4883975721895694732666015625">
        <ele>950.79998779296875</ele>
        <time>2020-08-19T09:34:10.000Z</time>
      </trkpt>
      <trkpt lat="42.6210168935358524322509765625" lon="-0.4889621771872043609619140625">
        <ele>951</ele>
        <time>2020-08-19T09:34:21.000Z</time>
      </trkpt>
      <trkpt lat="42.62111756019294261932373046875" lon="-0.489459224045276641845703125">
        <ele>950.20001220703125</ele>
        <time>2020-08-19T09:34:29.000Z</time>
      </trkpt>
      <trkpt lat="42.62120313942432403564453125" lon="-0.489787124097347259521484375">
        <ele>949</ele>
        <time>2020-08-19T09:34:33.000Z</time>
      </trkpt>
      <trkpt lat="42.6212800852954387664794921875" lon="-0.49005207605659961700439453125">
        <ele>948</ele>
        <time>2020-08-19T09:34:36.000Z</time>
      </trkpt>
      <trkpt lat="42.62144546024501323699951171875" lon="-0.49050503410398960113525390625">
        <ele>947</ele>
        <time>2020-08-19T09:34:41.000Z</time>
      </trkpt>
      <trkpt lat="42.62152072973549365997314453125" lon="-0.4906878434121608734130859375">
        <ele>946.5999755859375</ele>
        <time>2020-08-19T09:34:43.000Z</time>
      </trkpt>
      <trkpt lat="42.62159365229308605194091796875" lon="-0.4908749274909496307373046875">
        <ele>945.79998779296875</ele>
        <time>2020-08-19T09:34:45.000Z</time>
      </trkpt>
      <trkpt lat="42.62173421680927276611328125" lon="-0.4912598244845867156982421875">
        <ele>944.79998779296875</ele>
        <time>2020-08-19T09:34:49.000Z</time>
      </trkpt>
      <trkpt lat="42.62183086015284061431884765625" lon="-0.49156844615936279296875">
        <ele>944.20001220703125</ele>
        <time>2020-08-19T09:34:52.000Z</time>
      </trkpt>
      <trkpt lat="42.621860615909099578857421875" lon="-0.49167363904416561126708984375">
        <ele>943.79998779296875</ele>
        <time>2020-08-19T09:34:53.000Z</time>
      </trkpt>
      <trkpt lat="42.6219134218990802764892578125" lon="-0.4918814264237880706787109375">
        <ele>942.4000244140625</ele>
        <time>2020-08-19T09:34:55.000Z</time>
      </trkpt>
      <trkpt lat="42.62195692397654056549072265625" lon="-0.4920765571296215057373046875">
        <ele>941.4000244140625</ele>
        <time>2020-08-19T09:34:57.000Z</time>
      </trkpt>
      <trkpt lat="42.62198056094348430633544921875" lon="-0.4921654053032398223876953125">
        <ele>940.79998779296875</ele>
        <time>2020-08-19T09:34:58.000Z</time>
      </trkpt>
      <trkpt lat="42.62202817015349864959716796875" lon="-0.49235357902944087982177734375">
        <ele>940</ele>
        <time>2020-08-19T09:35:00.000Z</time>
      </trkpt>
      <trkpt lat="42.6220887713134288787841796875" lon="-0.492551811039447784423828125">
        <ele>938.79998779296875</ele>
        <time>2020-08-19T09:35:02.000Z</time>
      </trkpt>
      <trkpt lat="42.62213244102895259857177734375" lon="-0.49265046603977680206298828125">
        <ele>938</ele>
        <time>2020-08-19T09:35:03.000Z</time>
      </trkpt>
      <trkpt lat="42.6221886835992336273193359375" lon="-0.49274467863142490386962890625">
        <ele>937.20001220703125</ele>
        <time>2020-08-19T09:35:04.000Z</time>
      </trkpt>
      <trkpt lat="42.6223321817815303802490234375" lon="-0.4929100535809993743896484375">
        <ele>936.4000244140625</ele>
        <time>2020-08-19T09:35:06.000Z</time>
      </trkpt>
      <trkpt lat="42.6224113069474697113037109375" lon="-0.49299077130854129791259765625">
        <ele>935.79998779296875</ele>
        <time>2020-08-19T09:35:07.000Z</time>
      </trkpt>
      <trkpt lat="42.622572742402553558349609375" lon="-0.4931638576090335845947265625">
        <ele>934</ele>
        <time>2020-08-19T09:35:09.000Z</time>
      </trkpt>
      <trkpt lat="42.6227217726409435272216796875" lon="-0.4933613352477550506591796875">
        <ele>933</ele>
        <time>2020-08-19T09:35:11.000Z</time>
      </trkpt>
      <trkpt lat="42.62278103269636631011962890625" lon="-0.4934706352651119232177734375">
        <ele>932.20001220703125</ele>
        <time>2020-08-19T09:35:12.000Z</time>
      </trkpt>
      <trkpt lat="42.6228283904492855072021484375" lon="-0.4935801029205322265625">
        <ele>931.4000244140625</ele>
        <time>2020-08-19T09:35:13.000Z</time>
      </trkpt>
      <trkpt lat="42.62286535464227199554443359375" lon="-0.49368596635758876800537109375">
        <ele>931</ele>
        <time>2020-08-19T09:35:14.000Z</time>
      </trkpt>
      <trkpt lat="42.6228614151477813720703125" lon="-0.4939953424036502838134765625">
        <ele>930.20001220703125</ele>
        <time>2020-08-19T09:35:17.000Z</time>
      </trkpt>
      <trkpt lat="42.6228290610015392303466796875" lon="-0.49409718252718448638916015625">
        <ele>930</ele>
        <time>2020-08-19T09:35:18.000Z</time>
      </trkpt>
      <trkpt lat="42.6228024065494537353515625" lon="-0.4942045547068119049072265625">
        <ele>929.5999755859375</ele>
        <time>2020-08-19T09:35:19.000Z</time>
      </trkpt>
      <trkpt lat="42.6227894984185695648193359375" lon="-0.49431460909545421600341796875">
        <ele>929</ele>
        <time>2020-08-19T09:35:20.000Z</time>
      </trkpt>
      <trkpt lat="42.622794024646282196044921875" lon="-0.49442139454185962677001953125">
        <ele>928.79998779296875</ele>
        <time>2020-08-19T09:35:21.000Z</time>
      </trkpt>
      <trkpt lat="42.62286703102290630340576171875" lon="-0.49461451359093189239501953125">
        <ele>927.79998779296875</ele>
        <time>2020-08-19T09:35:23.000Z</time>
      </trkpt>
      <trkpt lat="42.62298437766730785369873046875" lon="-0.4947775416076183319091796875">
        <ele>927.20001220703125</ele>
        <time>2020-08-19T09:35:25.000Z</time>
      </trkpt>
      <trkpt lat="42.62304715812206268310546875" lon="-0.49485507421195507049560546875">
        <ele>926.79998779296875</ele>
        <time>2020-08-19T09:35:26.000Z</time>
      </trkpt>
      <trkpt lat="42.62317582033574581146240234375" lon="-0.49501148052513599395751953125">
        <ele>926.4000244140625</ele>
        <time>2020-08-19T09:35:28.000Z</time>
      </trkpt>
      <trkpt lat="42.62330465018749237060546875" lon="-0.4951761849224567413330078125">
        <ele>925.5999755859375</ele>
        <time>2020-08-19T09:35:30.000Z</time>
      </trkpt>
      <trkpt lat="42.62350380420684814453125" lon="-0.4954283125698566436767578125">
        <ele>924.4000244140625</ele>
        <time>2020-08-19T09:35:33.000Z</time>
      </trkpt>
      <trkpt lat="42.623642273247241973876953125" lon="-0.49559150822460651397705078125">
        <ele>923.79998779296875</ele>
        <time>2020-08-19T09:35:35.000Z</time>
      </trkpt>
      <trkpt lat="42.623779736459255218505859375" lon="-0.4957552067935466766357421875">
        <ele>923.20001220703125</ele>
        <time>2020-08-19T09:35:37.000Z</time>
      </trkpt>
      <trkpt lat="42.623989619314670562744140625" lon="-0.4960043169558048248291015625">
        <ele>922.20001220703125</ele>
        <time>2020-08-19T09:35:40.000Z</time>
      </trkpt>
      <trkpt lat="42.62421182356774806976318359375" lon="-0.49625937826931476593017578125">
        <ele>921</ele>
        <time>2020-08-19T09:35:43.000Z</time>
      </trkpt>
      <trkpt lat="42.624433524906635284423828125" lon="-0.49652692861855030059814453125">
        <ele>919.79998779296875</ele>
        <time>2020-08-19T09:35:46.000Z</time>
      </trkpt>
      <trkpt lat="42.6246328465640544891357421875" lon="-0.496812164783477783203125">
        <ele>918.79998779296875</ele>
        <time>2020-08-19T09:35:49.000Z</time>
      </trkpt>
      <trkpt lat="42.6246767677366733551025390625" lon="-0.4969226382672786712646484375">
        <ele>918.4000244140625</ele>
        <time>2020-08-19T09:35:50.000Z</time>
      </trkpt>
      <trkpt lat="42.624718509614467620849609375" lon="-0.49715842120349407196044921875">
        <ele>918.20001220703125</ele>
        <time>2020-08-19T09:35:52.000Z</time>
      </trkpt>
      <trkpt lat="42.62473250739276409149169921875" lon="-0.49739428795874118804931640625">
        <ele>918</ele>
        <time>2020-08-19T09:35:54.000Z</time>
      </trkpt>
      <trkpt lat="42.62474424205720424652099609375" lon="-0.49751247279345989227294921875">
        <ele>917.5999755859375</ele>
        <time>2020-08-19T09:35:55.000Z</time>
      </trkpt>
      <trkpt lat="42.62480123899877071380615234375" lon="-0.49773593433201313018798828125">
        <ele>917.20001220703125</ele>
        <time>2020-08-19T09:35:57.000Z</time>
      </trkpt>
      <trkpt lat="42.62489578686654567718505859375" lon="-0.49793609417974948883056640625">
        <ele>916.5999755859375</ele>
        <time>2020-08-19T09:35:59.000Z</time>
      </trkpt>
      <trkpt lat="42.62494524009525775909423828125" lon="-0.4980320669710636138916015625">
        <ele>916.4000244140625</ele>
        <time>2020-08-19T09:36:00.000Z</time>
      </trkpt>
      <trkpt lat="42.62509661726653575897216796875" lon="-0.49831445328891277313232421875">
        <ele>915.5999755859375</ele>
        <time>2020-08-19T09:36:03.000Z</time>
      </trkpt>
      <trkpt lat="42.62514858506619930267333984375" lon="-0.4984075762331485748291015625">
        <ele>915.4000244140625</ele>
        <time>2020-08-19T09:36:04.000Z</time>
      </trkpt>
      <trkpt lat="42.625346481800079345703125" lon="-0.4987713508307933807373046875">
        <ele>914.20001220703125</ele>
        <time>2020-08-19T09:36:08.000Z</time>
      </trkpt>
      <trkpt lat="42.6253955997526645660400390625" lon="-0.49886011518537998199462890625">
        <ele>914</ele>
        <time>2020-08-19T09:36:09.000Z</time>
      </trkpt>
      <trkpt lat="42.62543692253530025482177734375" lon="-0.49895700998604297637939453125">
        <ele>913.5999755859375</ele>
        <time>2020-08-19T09:36:10.000Z</time>
      </trkpt>
      <trkpt lat="42.6254800893366336822509765625" lon="-0.499172843992710113525390625">
        <ele>912.79998779296875</ele>
        <time>2020-08-19T09:36:12.000Z</time>
      </trkpt>
      <trkpt lat="42.6254871301352977752685546875" lon="-0.4993976466357707977294921875">
        <ele>912.20001220703125</ele>
        <time>2020-08-19T09:36:14.000Z</time>
      </trkpt>
      <trkpt lat="42.62549324892461299896240234375" lon="-0.4996179230511188507080078125">
        <ele>911.79998779296875</ele>
        <time>2020-08-19T09:36:16.000Z</time>
      </trkpt>
      <trkpt lat="42.6254945062100887298583984375" lon="-0.4998308233916759490966796875">
        <ele>911.5999755859375</ele>
        <time>2020-08-19T09:36:18.000Z</time>
      </trkpt>
      <trkpt lat="42.62551889754831790924072265625" lon="-0.50037623383104801177978515625">
        <ele>910.4000244140625</ele>
        <time>2020-08-19T09:36:23.000Z</time>
      </trkpt>
      <trkpt lat="42.6255230046808719635009765625" lon="-0.50049441866576671600341796875">
        <ele>910</ele>
        <time>2020-08-19T09:36:24.000Z</time>
      </trkpt>
      <trkpt lat="42.625536583364009857177734375" lon="-0.5007317103445529937744140625">
        <ele>909.5999755859375</ele>
        <time>2020-08-19T09:36:26.000Z</time>
      </trkpt>
      <trkpt lat="42.62556063942611217498779296875" lon="-0.501104034483432769775390625">
        <ele>907.79998779296875</ele>
        <time>2020-08-19T09:36:29.000Z</time>
      </trkpt>
      <trkpt lat="42.62557539157569408416748046875" lon="-0.50135808996856212615966796875">
        <ele>907.20001220703125</ele>
        <time>2020-08-19T09:36:31.000Z</time>
      </trkpt>
      <trkpt lat="42.625582516193389892578125" lon="-0.50148465670645236968994140625">
        <ele>906.5999755859375</ele>
        <time>2020-08-19T09:36:32.000Z</time>
      </trkpt>
      <trkpt lat="42.62561939656734466552734375" lon="-0.50185547210276126861572265625">
        <ele>905.5999755859375</ele>
        <time>2020-08-19T09:36:35.000Z</time>
      </trkpt>
      <trkpt lat="42.6256480626761913299560546875" lon="-0.50196846015751361846923828125">
        <ele>905.4000244140625</ele>
        <time>2020-08-19T09:36:36.000Z</time>
      </trkpt>
      <trkpt lat="42.62577806599438190460205078125" lon="-0.50224556587636470794677734375">
        <ele>905.20001220703125</ele>
        <time>2020-08-19T09:36:39.000Z</time>
      </trkpt>
      <trkpt lat="42.62587814591825008392333984375" lon="-0.5023562908172607421875">
        <ele>905</ele>
        <time>2020-08-19T09:36:41.000Z</time>
      </trkpt>
      <trkpt lat="42.62592114508152008056640625" lon="-0.5024090968072414398193359375">
        <ele>904.79998779296875</ele>
        <time>2020-08-19T09:36:42.000Z</time>
      </trkpt>
      <trkpt lat="42.6259593665599822998046875" lon="-0.5024677701294422149658203125">
        <ele>904.79998779296875</ele>
        <time>2020-08-19T09:36:43.000Z</time>
      </trkpt>
      <trkpt lat="42.6260279305279254913330078125" lon="-0.502597354352474212646484375">
        <ele>904.4000244140625</ele>
        <time>2020-08-19T09:36:45.000Z</time>
      </trkpt>
      <trkpt lat="42.626164890825748443603515625" lon="-0.5029599554836750030517578125">
        <ele>904.20001220703125</ele>
        <time>2020-08-19T09:36:50.000Z</time>
      </trkpt>
      <trkpt lat="42.626190371811389923095703125" lon="-0.50320395268499851226806640625">
        <ele>903.5999755859375</ele>
        <time>2020-08-19T09:36:53.000Z</time>
      </trkpt>
      <trkpt lat="42.62619179673492908477783203125" lon="-0.5032875202596187591552734375">
        <ele>903.4000244140625</ele>
        <time>2020-08-19T09:36:54.000Z</time>
      </trkpt>
      <trkpt lat="42.62619414366781711578369140625" lon="-0.50337175838649272918701171875">
        <ele>903.20001220703125</ele>
        <time>2020-08-19T09:36:55.000Z</time>
      </trkpt>
      <trkpt lat="42.62621610425412654876708984375" lon="-0.50370234064757823944091796875">
        <ele>902.5999755859375</ele>
        <time>2020-08-19T09:36:59.000Z</time>
      </trkpt>
      <trkpt lat="42.6262475363910198211669921875" lon="-0.5040831305086612701416015625">
        <ele>902.20001220703125</ele>
        <time>2020-08-19T09:37:04.000Z</time>
      </trkpt>
      <trkpt lat="42.62633060105144977569580078125" lon="-0.504554696381092071533203125">
        <ele>901.5999755859375</ele>
        <time>2020-08-19T09:37:11.000Z</time>
      </trkpt>
      <trkpt lat="42.62645490467548370361328125" lon="-0.50492023117840290069580078125">
        <ele>902</ele>
        <time>2020-08-19T09:37:18.000Z</time>
      </trkpt>
      <trkpt lat="42.62657082639634609222412109375" lon="-0.50523773767054080963134765625">
        <ele>902.4000244140625</ele>
        <time>2020-08-19T09:37:25.000Z</time>
      </trkpt>
      <trkpt lat="42.62670594267547130584716796875" lon="-0.50560905598104000091552734375">
        <ele>903.79998779296875</ele>
        <time>2020-08-19T09:37:34.000Z</time>
      </trkpt>
      <trkpt lat="42.6268242113292217254638671875" lon="-0.50590208731591701507568359375">
        <ele>904.5999755859375</ele>
        <time>2020-08-19T09:37:42.000Z</time>
      </trkpt>
      <trkpt lat="42.626878358423709869384765625" lon="-0.50620886497199535369873046875">
        <ele>903.5999755859375</ele>
        <time>2020-08-19T09:37:47.000Z</time>
      </trkpt>
      <trkpt lat="42.6268614269793033599853515625" lon="-0.50643031485378742218017578125">
        <ele>902.79998779296875</ele>
        <time>2020-08-19T09:37:50.000Z</time>
      </trkpt>
      <trkpt lat="42.62683854438364505767822265625" lon="-0.506580770015716552734375">
        <ele>902.4000244140625</ele>
        <time>2020-08-19T09:37:52.000Z</time>
      </trkpt>
      <trkpt lat="42.6267839781939983367919921875" lon="-0.50688411109149456024169921875">
        <ele>901.79998779296875</ele>
        <time>2020-08-19T09:37:56.000Z</time>
      </trkpt>
      <trkpt lat="42.62676964513957500457763671875" lon="-0.50695921294391155242919921875">
        <ele>901.5999755859375</ele>
        <time>2020-08-19T09:37:57.000Z</time>
      </trkpt>
      <trkpt lat="42.62674651108682155609130859375" lon="-0.5071100033819675445556640625">
        <ele>901.4000244140625</ele>
        <time>2020-08-19T09:37:59.000Z</time>
      </trkpt>
      <trkpt lat="42.626657746732234954833984375" lon="-0.50773152150213718414306640625">
        <ele>900.79998779296875</ele>
        <time>2020-08-19T09:38:07.000Z</time>
      </trkpt>
      <trkpt lat="42.6266401447355747222900390625" lon="-0.50788725726306438446044921875">
        <ele>900.5999755859375</ele>
        <time>2020-08-19T09:38:09.000Z</time>
      </trkpt>
      <trkpt lat="42.62660955078899860382080078125" lon="-0.50812102854251861572265625">
        <ele>900.20001220703125</ele>
        <time>2020-08-19T09:38:12.000Z</time>
      </trkpt>
      <trkpt lat="42.62659546919167041778564453125" lon="-0.50819747149944305419921875">
        <ele>899.79998779296875</ele>
        <time>2020-08-19T09:38:13.000Z</time>
      </trkpt>
      <trkpt lat="42.62655003927648067474365234375" lon="-0.50842336378991603851318359375">
        <ele>899.5999755859375</ele>
        <time>2020-08-19T09:38:16.000Z</time>
      </trkpt>
      <trkpt lat="42.62650712393224239349365234375" lon="-0.50855898298323154449462890625">
        <ele>899.79998779296875</ele>
        <time>2020-08-19T09:38:18.000Z</time>
      </trkpt>
      <trkpt lat="42.6264792121946811676025390625" lon="-0.5086180754005908966064453125">
        <ele>899.79998779296875</ele>
        <time>2020-08-19T09:38:19.000Z</time>
      </trkpt>
      <trkpt lat="42.62633898295462131500244140625" lon="-0.50888671539723873138427734375">
        <ele>899.79998779296875</ele>
        <time>2020-08-19T09:38:24.000Z</time>
      </trkpt>
      <trkpt lat="42.62631450779736042022705078125" lon="-0.5089442990720272064208984375">
        <ele>899.79998779296875</ele>
        <time>2020-08-19T09:38:25.000Z</time>
      </trkpt>
      <trkpt lat="42.62624837458133697509765625" lon="-0.509127192199230194091796875">
        <ele>899.5999755859375</ele>
        <time>2020-08-19T09:38:28.000Z</time>
      </trkpt>
      <trkpt lat="42.62618576176464557647705078125" lon="-0.50938409753143787384033203125">
        <ele>899.5999755859375</ele>
        <time>2020-08-19T09:38:32.000Z</time>
      </trkpt>
      <trkpt lat="42.62615676037967205047607421875" lon="-0.50952591933310031890869140625">
        <ele>899.5999755859375</ele>
        <time>2020-08-19T09:38:34.000Z</time>
      </trkpt>
      <trkpt lat="42.6261498034000396728515625" lon="-0.5097613669931888580322265625">
        <ele>899</ele>
        <time>2020-08-19T09:38:37.000Z</time>
      </trkpt>
      <trkpt lat="42.62615944258868694305419921875" lon="-0.5098425038158893585205078125">
        <ele>899</ele>
        <time>2020-08-19T09:38:38.000Z</time>
      </trkpt>
      <trkpt lat="42.626174949109554290771484375" lon="-0.5099259875714778900146484375">
        <ele>898.79998779296875</ele>
        <time>2020-08-19T09:38:39.000Z</time>
      </trkpt>
      <trkpt lat="42.62621090747416019439697265625" lon="-0.51009689457714557647705078125">
        <ele>898.4000244140625</ele>
        <time>2020-08-19T09:38:41.000Z</time>
      </trkpt>
      <trkpt lat="42.6262602768838405609130859375" lon="-0.5102743394672870635986328125">
        <ele>897.5999755859375</ele>
        <time>2020-08-19T09:38:43.000Z</time>
      </trkpt>
      <trkpt lat="42.62635809369385242462158203125" lon="-0.51053158007562160491943359375">
        <ele>897</ele>
        <time>2020-08-19T09:38:46.000Z</time>
      </trkpt>
      <trkpt lat="42.62639145366847515106201171875" lon="-0.5106203444302082061767578125">
        <ele>896.5999755859375</ele>
        <time>2020-08-19T09:38:47.000Z</time>
      </trkpt>
      <trkpt lat="42.62644124217331409454345703125" lon="-0.5108060874044895172119140625">
        <ele>896.20001220703125</ele>
        <time>2020-08-19T09:38:49.000Z</time>
      </trkpt>
      <trkpt lat="42.62645415030419826507568359375" lon="-0.51090423949062824249267578125">
        <ele>896</ele>
        <time>2020-08-19T09:38:50.000Z</time>
      </trkpt>
      <trkpt lat="42.62641710229218006134033203125" lon="-0.511271618306636810302734375">
        <ele>895.79998779296875</ele>
        <time>2020-08-19T09:38:54.000Z</time>
      </trkpt>
      <trkpt lat="42.6263947226107120513916015625" lon="-0.51135250367224216461181640625">
        <ele>895.79998779296875</ele>
        <time>2020-08-19T09:38:55.000Z</time>
      </trkpt>
      <trkpt lat="42.62635054998099803924560546875" lon="-0.51150153391063213348388671875">
        <ele>895.5999755859375</ele>
        <time>2020-08-19T09:38:57.000Z</time>
      </trkpt>
      <trkpt lat="42.62630092911422252655029296875" lon="-0.51170605234801769256591796875">
        <ele>895.5999755859375</ele>
        <time>2020-08-19T09:39:00.000Z</time>
      </trkpt>
      <trkpt lat="42.62622616253793239593505859375" lon="-0.5121267400681972503662109375">
        <ele>896.4000244140625</ele>
        <time>2020-08-19T09:39:07.000Z</time>
      </trkpt>
      <trkpt lat="42.626140080392360687255859375" lon="-0.51251607947051525115966796875">
        <ele>896.20001220703125</ele>
        <time>2020-08-19T09:39:14.000Z</time>
      </trkpt>
      <trkpt lat="42.62607377953827381134033203125" lon="-0.51292243413627147674560546875">
        <ele>895.79998779296875</ele>
        <time>2020-08-19T09:39:21.000Z</time>
      </trkpt>
      <trkpt lat="42.62605668045580387115478515625" lon="-0.5133116059005260467529296875">
        <ele>896</ele>
        <time>2020-08-19T09:39:28.000Z</time>
      </trkpt>
      <trkpt lat="42.626098506152629852294921875" lon="-0.51369608379900455474853515625">
        <ele>895.79998779296875</ele>
        <time>2020-08-19T09:39:35.000Z</time>
      </trkpt>
      <trkpt lat="42.6262163557112216949462890625" lon="-0.51404695026576519012451171875">
        <ele>895.20001220703125</ele>
        <time>2020-08-19T09:39:41.000Z</time>
      </trkpt>
      <trkpt lat="42.626268826425075531005859375" lon="-0.514169745147228240966796875">
        <ele>895</ele>
        <time>2020-08-19T09:39:43.000Z</time>
      </trkpt>
      <trkpt lat="42.6264088042080402374267578125" lon="-0.51440871320664882659912109375">
        <ele>894.4000244140625</ele>
        <time>2020-08-19T09:39:47.000Z</time>
      </trkpt>
      <trkpt lat="42.62655070982873439788818359375" lon="-0.5145608447492122650146484375">
        <ele>893.79998779296875</ele>
        <time>2020-08-19T09:39:50.000Z</time>
      </trkpt>
      <trkpt lat="42.62670476920902729034423828125" lon="-0.51468850113451480865478515625">
        <ele>893.5999755859375</ele>
        <time>2020-08-19T09:39:53.000Z</time>
      </trkpt>
      <trkpt lat="42.626807950437068939208984375" lon="-0.51477500237524509429931640625">
        <ele>893.5999755859375</ele>
        <time>2020-08-19T09:39:55.000Z</time>
      </trkpt>
      <trkpt lat="42.6270000636577606201171875" lon="-0.51497675478458404541015625">
        <ele>893</ele>
        <time>2020-08-19T09:39:59.000Z</time>
      </trkpt>
      <trkpt lat="42.62710927985608577728271484375" lon="-0.5151517689228057861328125">
        <ele>893</ele>
        <time>2020-08-19T09:40:02.000Z</time>
      </trkpt>
      <trkpt lat="42.627140544354915618896484375" lon="-0.51521639339625835418701171875">
        <ele>893</ele>
        <time>2020-08-19T09:40:03.000Z</time>
      </trkpt>
      <trkpt lat="42.6271958649158477783203125" lon="-0.5153467319905757904052734375">
        <ele>893</ele>
        <time>2020-08-19T09:40:05.000Z</time>
      </trkpt>
      <trkpt lat="42.62727926485240459442138671875" lon="-0.51560581661760807037353515625">
        <ele>892.79998779296875</ele>
        <time>2020-08-19T09:40:09.000Z</time>
      </trkpt>
      <trkpt lat="42.62729820795357227325439453125" lon="-0.515741519629955291748046875">
        <ele>892.79998779296875</ele>
        <time>2020-08-19T09:40:11.000Z</time>
      </trkpt>
      <trkpt lat="42.62729980051517486572265625" lon="-0.51599322818219661712646484375">
        <ele>893</ele>
        <time>2020-08-19T09:40:15.000Z</time>
      </trkpt>
      <trkpt lat="42.62729787267744541168212890625" lon="-0.5160511471331119537353515625">
        <ele>893</ele>
        <time>2020-08-19T09:40:16.000Z</time>
      </trkpt>
      <trkpt lat="42.6273019798099994659423828125" lon="-0.5165741778910160064697265625">
        <ele>892.5999755859375</ele>
        <time>2020-08-19T09:40:25.000Z</time>
      </trkpt>
      <trkpt lat="42.62736073695123195648193359375" lon="-0.51678322255611419677734375">
        <ele>892.4000244140625</ele>
        <time>2020-08-19T09:40:29.000Z</time>
      </trkpt>
      <trkpt lat="42.6274119503796100616455078125" lon="-0.5168822966516017913818359375">
        <ele>892.20001220703125</ele>
        <time>2020-08-19T09:40:31.000Z</time>
      </trkpt>
      <trkpt lat="42.6275018043816089630126953125" lon="-0.51700718700885772705078125">
        <ele>892.4000244140625</ele>
        <time>2020-08-19T09:40:34.000Z</time>
      </trkpt>
      <trkpt lat="42.6275896467268466949462890625" lon="-0.51712252199649810791015625">
        <ele>892.4000244140625</ele>
        <time>2020-08-19T09:40:37.000Z</time>
      </trkpt>
      <trkpt lat="42.62772090733051300048828125" lon="-0.51733382977545261383056640625">
        <ele>892.4000244140625</ele>
        <time>2020-08-19T09:40:42.000Z</time>
      </trkpt>
      <trkpt lat="42.627739012241363525390625" lon="-0.51738428883254528045654296875">
        <ele>892.4000244140625</ele>
        <time>2020-08-19T09:40:43.000Z</time>
      </trkpt>
      <trkpt lat="42.62779173441231250762939453125" lon="-0.51762267015874385833740234375">
        <ele>892</ele>
        <time>2020-08-19T09:40:47.000Z</time>
      </trkpt>
      <trkpt lat="42.62780330143868923187255859375" lon="-0.51775946281850337982177734375">
        <ele>891.5999755859375</ele>
        <time>2020-08-19T09:40:49.000Z</time>
      </trkpt>
      <trkpt lat="42.627805732190608978271484375" lon="-0.51790765486657619476318359375">
        <ele>891.20001220703125</ele>
        <time>2020-08-19T09:40:51.000Z</time>
      </trkpt>
      <trkpt lat="42.627800367772579193115234375" lon="-0.51797940395772457122802734375">
        <ele>891</ele>
        <time>2020-08-19T09:40:52.000Z</time>
      </trkpt>
      <trkpt lat="42.62779173441231250762939453125" lon="-0.51812541671097278594970703125">
        <ele>890.4000244140625</ele>
        <time>2020-08-19T09:40:54.000Z</time>
      </trkpt>
      <trkpt lat="42.62778528034687042236328125" lon="-0.5182049609720706939697265625">
        <ele>890.4000244140625</ele>
        <time>2020-08-19T09:40:55.000Z</time>
      </trkpt>
      <trkpt lat="42.6277649961411952972412109375" lon="-0.51855188794434070587158203125">
        <ele>889.4000244140625</ele>
        <time>2020-08-19T09:40:59.000Z</time>
      </trkpt>
      <trkpt lat="42.6277576200664043426513671875" lon="-0.51864542998373508453369140625">
        <ele>889.20001220703125</ele>
        <time>2020-08-19T09:41:00.000Z</time>
      </trkpt>
      <trkpt lat="42.62772199697792530059814453125" lon="-0.51903300918638706207275390625">
        <ele>887.79998779296875</ele>
        <time>2020-08-19T09:41:04.000Z</time>
      </trkpt>
      <trkpt lat="42.6277063228189945220947265625" lon="-0.51924012601375579833984375">
        <ele>887</ele>
        <time>2020-08-19T09:41:06.000Z</time>
      </trkpt>
      <trkpt lat="42.62769810855388641357421875" lon="-0.51934146322309970855712890625">
        <ele>886.5999755859375</ele>
        <time>2020-08-19T09:41:07.000Z</time>
      </trkpt>
      <trkpt lat="42.62770883738994598388671875" lon="-0.5196674354374408721923828125">
        <ele>885.79998779296875</ele>
        <time>2020-08-19T09:41:10.000Z</time>
      </trkpt>
      <trkpt lat="42.62771646492183208465576171875" lon="-0.51977782510221004486083984375">
        <ele>885.5999755859375</ele>
        <time>2020-08-19T09:41:11.000Z</time>
      </trkpt>
      <trkpt lat="42.62770875357091426849365234375" lon="-0.52030404098331928253173828125">
        <ele>884.79998779296875</ele>
        <time>2020-08-19T09:41:16.000Z</time>
      </trkpt>
      <trkpt lat="42.62770020402967929840087890625" lon="-0.5203983373939990997314453125">
        <ele>884.5999755859375</ele>
        <time>2020-08-19T09:41:17.000Z</time>
      </trkpt>
      <trkpt lat="42.62767623178660869598388671875" lon="-0.52057997323572635650634765625">
        <ele>884.5999755859375</ele>
        <time>2020-08-19T09:41:19.000Z</time>
      </trkpt>
      <trkpt lat="42.6276161335408687591552734375" lon="-0.5207336135208606719970703125">
        <ele>884.5999755859375</ele>
        <time>2020-08-19T09:41:21.000Z</time>
      </trkpt>
      <trkpt lat="42.62753658927977085113525390625" lon="-0.5208647064864635467529296875">
        <ele>884.4000244140625</ele>
        <time>2020-08-19T09:41:23.000Z</time>
      </trkpt>
      <trkpt lat="42.62738839723169803619384765625" lon="-0.52111675031483173370361328125">
        <ele>884</ele>
        <time>2020-08-19T09:41:27.000Z</time>
      </trkpt>
      <trkpt lat="42.62722612358629703521728515625" lon="-0.52144758403301239013671875">
        <ele>883.79998779296875</ele>
        <time>2020-08-19T09:41:32.000Z</time>
      </trkpt>
      <trkpt lat="42.627164013683795928955078125" lon="-0.5215848796069622039794921875">
        <ele>883.4000244140625</ele>
        <time>2020-08-19T09:41:34.000Z</time>
      </trkpt>
      <trkpt lat="42.627055384218692779541015625" lon="-0.52188050933182239532470703125">
        <ele>882.5999755859375</ele>
        <time>2020-08-19T09:41:38.000Z</time>
      </trkpt>
      <trkpt lat="42.62700282968580722808837890625" lon="-0.52203624509274959564208984375">
        <ele>882.20001220703125</ele>
        <time>2020-08-19T09:41:40.000Z</time>
      </trkpt>
      <trkpt lat="42.6269475929439067840576171875" lon="-0.52219835110008716583251953125">
        <ele>881.5999755859375</ele>
        <time>2020-08-19T09:41:42.000Z</time>
      </trkpt>
      <trkpt lat="42.6268403045833110809326171875" lon="-0.522541590034961700439453125">
        <ele>880.4000244140625</ele>
        <time>2020-08-19T09:41:46.000Z</time>
      </trkpt>
      <trkpt lat="42.626811303198337554931640625" lon="-0.5226322822272777557373046875">
        <ele>880</ele>
        <time>2020-08-19T09:41:47.000Z</time>
      </trkpt>
      <trkpt lat="42.6267226226627826690673828125" lon="-0.52290863357484340667724609375">
        <ele>879.20001220703125</ele>
        <time>2020-08-19T09:41:50.000Z</time>
      </trkpt>
      <trkpt lat="42.62663955800235271453857421875" lon="-0.52320317365229129791259765625">
        <ele>878.20001220703125</ele>
        <time>2020-08-19T09:41:53.000Z</time>
      </trkpt>
      <trkpt lat="42.62661625631153583526611328125" lon="-0.5233045108616352081298828125">
        <ele>878</ele>
        <time>2020-08-19T09:41:54.000Z</time>
      </trkpt>
      <trkpt lat="42.6265378855168819427490234375" lon="-0.523827709257602691650390625">
        <ele>877.4000244140625</ele>
        <time>2020-08-19T09:41:59.000Z</time>
      </trkpt>
      <trkpt lat="42.6265227980911731719970703125" lon="-0.52403113804757595062255859375">
        <ele>876.79998779296875</ele>
        <time>2020-08-19T09:42:01.000Z</time>
      </trkpt>
      <trkpt lat="42.62646965682506561279296875" lon="-0.52462591789662837982177734375">
        <ele>875.79998779296875</ele>
        <time>2020-08-19T09:42:07.000Z</time>
      </trkpt>
      <trkpt lat="42.626449875533580780029296875" lon="-0.52472130395472049713134765625">
        <ele>875.5999755859375</ele>
        <time>2020-08-19T09:42:08.000Z</time>
      </trkpt>
      <trkpt lat="42.62634761631488800048828125" lon="-0.52507921122014522552490234375">
        <ele>875.20001220703125</ele>
        <time>2020-08-19T09:42:12.000Z</time>
      </trkpt>
      <trkpt lat="42.62626740150153636932373046875" lon="-0.5254254676401615142822265625">
        <ele>874.5999755859375</ele>
        <time>2020-08-19T09:42:16.000Z</time>
      </trkpt>
      <trkpt lat="42.62623840011656284332275390625" lon="-0.52559117786586284637451171875">
        <ele>874.5999755859375</ele>
        <time>2020-08-19T09:42:18.000Z</time>
      </trkpt>
      <trkpt lat="42.62612759135663509368896484375" lon="-0.5262292921543121337890625">
        <ele>874</ele>
        <time>2020-08-19T09:42:26.000Z</time>
      </trkpt>
      <trkpt lat="42.62612138874828815460205078125" lon="-0.5263863690197467803955078125">
        <ele>873.5999755859375</ele>
        <time>2020-08-19T09:42:28.000Z</time>
      </trkpt>
      <trkpt lat="42.62614267878234386444091796875" lon="-0.5267897062003612518310546875">
        <ele>873</ele>
        <time>2020-08-19T09:42:33.000Z</time>
      </trkpt>
      <trkpt lat="42.6261704228818416595458984375" lon="-0.5270307697355747222900390625">
        <ele>872.5999755859375</ele>
        <time>2020-08-19T09:42:36.000Z</time>
      </trkpt>
      <trkpt lat="42.62619833461940288543701171875" lon="-0.527264960110187530517578125">
        <ele>872.4000244140625</ele>
        <time>2020-08-19T09:42:39.000Z</time>
      </trkpt>
      <trkpt lat="42.62623270042240619659423828125" lon="-0.5274823866784572601318359375">
        <ele>872</ele>
        <time>2020-08-19T09:42:42.000Z</time>
      </trkpt>
      <trkpt lat="42.626323141157627105712890625" lon="-0.52793978713452816009521484375">
        <ele>871.79998779296875</ele>
        <time>2020-08-19T09:42:49.000Z</time>
      </trkpt>
      <trkpt lat="42.62633529491722583770751953125" lon="-0.5279990471899509429931640625">
        <ele>871.5999755859375</ele>
        <time>2020-08-19T09:42:50.000Z</time>
      </trkpt>
      <trkpt lat="42.62639480642974376678466796875" lon="-0.52827489562332630157470703125">
        <ele>871.5999755859375</ele>
        <time>2020-08-19T09:42:55.000Z</time>
      </trkpt>
      <trkpt lat="42.6264024339616298675537109375" lon="-0.52838453091681003570556640625">
        <ele>871.5999755859375</ele>
        <time>2020-08-19T09:42:57.000Z</time>
      </trkpt>
      <trkpt lat="42.62640251778066158294677734375" lon="-0.52843901328742504119873046875">
        <ele>871.5999755859375</ele>
        <time>2020-08-19T09:42:58.000Z</time>
      </trkpt>
      <trkpt lat="42.6263923756778240203857421875" lon="-0.528602711856365203857421875">
        <ele>871.5999755859375</ele>
        <time>2020-08-19T09:43:01.000Z</time>
      </trkpt>
      <trkpt lat="42.62639430351555347442626953125" lon="-0.5287182144820690155029296875">
        <ele>871.20001220703125</ele>
        <time>2020-08-19T09:43:03.000Z</time>
      </trkpt>
      <trkpt lat="42.6263913698494434356689453125" lon="-0.528907477855682373046875">
        <ele>870.5999755859375</ele>
        <time>2020-08-19T09:43:06.000Z</time>
      </trkpt>
      <trkpt lat="42.626395560801029205322265625" lon="-0.5291745252907276153564453125">
        <ele>869.79998779296875</ele>
        <time>2020-08-19T09:43:10.000Z</time>
      </trkpt>
      <trkpt lat="42.626402266323566436767578125" lon="-0.5293046124279499053955078125">
        <ele>869.5999755859375</ele>
        <time>2020-08-19T09:43:12.000Z</time>
      </trkpt>
      <trkpt lat="42.62641794048249721527099609375" lon="-0.52961750887334346771240234375">
        <ele>868.79998779296875</ele>
        <time>2020-08-19T09:43:17.000Z</time>
      </trkpt>
      <trkpt lat="42.62640050612390041351318359375" lon="-0.5299808643758296966552734375">
        <ele>868.4000244140625</ele>
        <time>2020-08-19T09:43:23.000Z</time>
      </trkpt>
      <trkpt lat="42.6263960637152194976806640625" lon="-0.53010684438049793243408203125">
        <ele>868.4000244140625</ele>
        <time>2020-08-19T09:43:25.000Z</time>
      </trkpt>
      <trkpt lat="42.62641710229218006134033203125" lon="-0.53036198951303958892822265625">
        <ele>868</ele>
        <time>2020-08-19T09:43:29.000Z</time>
      </trkpt>
      <trkpt lat="42.6264362968504428863525390625" lon="-0.5304940044879913330078125">
        <ele>867.79998779296875</ele>
        <time>2020-08-19T09:43:31.000Z</time>
      </trkpt>
      <trkpt lat="42.6264671422541141510009765625" lon="-0.53063155151903629302978515625">
        <ele>867.5999755859375</ele>
        <time>2020-08-19T09:43:33.000Z</time>
      </trkpt>
      <trkpt lat="42.626484744250774383544921875" lon="-0.5307040549814701080322265625">
        <ele>867.20001220703125</ele>
        <time>2020-08-19T09:43:34.000Z</time>
      </trkpt>
      <trkpt lat="42.6265415735542774200439453125" lon="-0.531018041074275970458984375">
        <ele>866.4000244140625</ele>
        <time>2020-08-19T09:43:38.000Z</time>
      </trkpt>
      <trkpt lat="42.62654819525778293609619140625" lon="-0.53110420703887939453125">
        <ele>866.20001220703125</ele>
        <time>2020-08-19T09:43:39.000Z</time>
      </trkpt>
      <trkpt lat="42.62655875645577907562255859375" lon="-0.53145113401114940643310546875">
        <ele>865.4000244140625</ele>
        <time>2020-08-19T09:43:43.000Z</time>
      </trkpt>
      <trkpt lat="42.62657250277698040008544921875" lon="-0.53180434741079807281494140625">
        <ele>864.5999755859375</ele>
        <time>2020-08-19T09:43:47.000Z</time>
      </trkpt>
      <trkpt lat="42.62657786719501018524169921875" lon="-0.5318941175937652587890625">
        <ele>864.4000244140625</ele>
        <time>2020-08-19T09:43:48.000Z</time>
      </trkpt>
      <trkpt lat="42.6266086287796497344970703125" lon="-0.532260574400424957275390625">
        <ele>863.4000244140625</ele>
        <time>2020-08-19T09:43:52.000Z</time>
      </trkpt>
      <trkpt lat="42.626621536910533905029296875" lon="-0.5325380153954029083251953125">
        <ele>862.4000244140625</ele>
        <time>2020-08-19T09:43:55.000Z</time>
      </trkpt>
      <trkpt lat="42.62661759741604328155517578125" lon="-0.53262837231159210205078125">
        <ele>862</ele>
        <time>2020-08-19T09:43:56.000Z</time>
      </trkpt>
      <trkpt lat="42.62656294740736484527587890625" lon="-0.53286700509488582611083984375">
        <ele>861.79998779296875</ele>
        <time>2020-08-19T09:43:59.000Z</time>
      </trkpt>
      <trkpt lat="42.6264917850494384765625" lon="-0.53306967951357364654541015625">
        <ele>861.79998779296875</ele>
        <time>2020-08-19T09:44:02.000Z</time>
      </trkpt>
      <trkpt lat="42.62643738649785518646240234375" lon="-0.5331891216337680816650390625">
        <ele>861.79998779296875</ele>
        <time>2020-08-19T09:44:04.000Z</time>
      </trkpt>
      <trkpt lat="42.62641492299735546112060546875" lon="-0.53324620239436626434326171875">
        <ele>861.5999755859375</ele>
        <time>2020-08-19T09:44:05.000Z</time>
      </trkpt>
      <trkpt lat="42.62638307176530361175537109375" lon="-0.5333651416003704071044921875">
        <ele>861.5999755859375</ele>
        <time>2020-08-19T09:44:07.000Z</time>
      </trkpt>
      <trkpt lat="42.62637401930987834930419921875" lon="-0.5334270000457763671875">
        <ele>861.4000244140625</ele>
        <time>2020-08-19T09:44:08.000Z</time>
      </trkpt>
      <trkpt lat="42.62636773288249969482421875" lon="-0.53348936140537261962890625">
        <ele>861.4000244140625</ele>
        <time>2020-08-19T09:44:09.000Z</time>
      </trkpt>
      <trkpt lat="42.6263643801212310791015625" lon="-0.53354979492723941802978515625">
        <ele>861.20001220703125</ele>
        <time>2020-08-19T09:44:10.000Z</time>
      </trkpt>
      <trkpt lat="42.6263632066547870635986328125" lon="-0.533806197345256805419921875">
        <ele>860.79998779296875</ele>
        <time>2020-08-19T09:44:14.000Z</time>
      </trkpt>
      <trkpt lat="42.62637116946280002593994140625" lon="-0.53429913707077503204345703125">
        <ele>860.20001220703125</ele>
        <time>2020-08-19T09:44:21.000Z</time>
      </trkpt>
      <trkpt lat="42.6263712532818317413330078125" lon="-0.53437239490449428558349609375">
        <ele>860</ele>
        <time>2020-08-19T09:44:22.000Z</time>
      </trkpt>
      <trkpt lat="42.62638357467949390411376953125" lon="-0.53490833379328250885009765625">
        <ele>859.20001220703125</ele>
        <time>2020-08-19T09:44:29.000Z</time>
      </trkpt>
      <trkpt lat="42.62639522552490234375" lon="-0.535068511962890625">
        <ele>858.5999755859375</ele>
        <time>2020-08-19T09:44:31.000Z</time>
      </trkpt>
      <trkpt lat="42.62640402652323246002197265625" lon="-0.53532508201897144317626953125">
        <ele>858</ele>
        <time>2020-08-19T09:44:34.000Z</time>
      </trkpt>
      <trkpt lat="42.626394890248775482177734375" lon="-0.5354961566627025604248046875">
        <ele>857.4000244140625</ele>
        <time>2020-08-19T09:44:36.000Z</time>
      </trkpt>
      <trkpt lat="42.62638357467949390411376953125" lon="-0.5355839990079402923583984375">
        <ele>857</ele>
        <time>2020-08-19T09:44:37.000Z</time>
      </trkpt>
      <trkpt lat="42.626367397606372833251953125" lon="-0.535672008991241455078125">
        <ele>856.79998779296875</ele>
        <time>2020-08-19T09:44:38.000Z</time>
      </trkpt>
      <trkpt lat="42.62630729936063289642333984375" lon="-0.53592690266668796539306640625">
        <ele>856</ele>
        <time>2020-08-19T09:44:41.000Z</time>
      </trkpt>
      <trkpt lat="42.62626773677766323089599609375" lon="-0.5361841432750225067138671875">
        <ele>855.5999755859375</ele>
        <time>2020-08-19T09:44:44.000Z</time>
      </trkpt>
      <trkpt lat="42.626213841140270233154296875" lon="-0.536420345306396484375">
        <ele>855.5999755859375</ele>
        <time>2020-08-19T09:44:47.000Z</time>
      </trkpt>
      <trkpt lat="42.62612306512892246246337890625" lon="-0.53680331446230411529541015625">
        <ele>856</ele>
        <time>2020-08-19T09:44:53.000Z</time>
      </trkpt>
      <trkpt lat="42.6260269246995449066162109375" lon="-0.5371400155127048492431640625">
        <ele>856.5999755859375</ele>
        <time>2020-08-19T09:45:00.000Z</time>
      </trkpt>
      <trkpt lat="42.6259300298988819122314453125" lon="-0.5373562686145305633544921875">
        <ele>857</ele>
        <time>2020-08-19T09:45:05.000Z</time>
      </trkpt>
      <trkpt lat="42.6259085722267627716064453125" lon="-0.53739440627396106719970703125">
        <ele>857.20001220703125</ele>
        <time>2020-08-19T09:45:06.000Z</time>
      </trkpt>
      <trkpt lat="42.62578108347952365875244140625" lon="-0.53765508346259593963623046875">
        <ele>857.79998779296875</ele>
        <time>2020-08-19T09:45:13.000Z</time>
      </trkpt>
      <trkpt lat="42.625711262226104736328125" lon="-0.5377995036542415618896484375">
        <ele>858</ele>
        <time>2020-08-19T09:45:17.000Z</time>
      </trkpt>
      <trkpt lat="42.6256296224892139434814453125" lon="-0.5379912815988063812255859375">
        <ele>858.4000244140625</ele>
        <time>2020-08-19T09:45:22.000Z</time>
      </trkpt>
      <trkpt lat="42.6255582086741924285888671875" lon="-0.53829747252166271209716796875">
        <ele>858.79998779296875</ele>
        <time>2020-08-19T09:45:29.000Z</time>
      </trkpt>
      <trkpt lat="42.625545971095561981201171875" lon="-0.5387325771152973175048828125">
        <ele>858</ele>
        <time>2020-08-19T09:45:37.000Z</time>
      </trkpt>
      <trkpt lat="42.62556566856801509857177734375" lon="-0.53930682130157947540283203125">
        <ele>857.20001220703125</ele>
        <time>2020-08-19T09:45:47.000Z</time>
      </trkpt>
      <trkpt lat="42.62555527500808238983154296875" lon="-0.53965215571224689483642578125">
        <ele>857.20001220703125</ele>
        <time>2020-08-19T09:45:53.000Z</time>
      </trkpt>
      <trkpt lat="42.62554228305816650390625" lon="-0.5397645570337772369384765625">
        <ele>857.4000244140625</ele>
        <time>2020-08-19T09:45:55.000Z</time>
      </trkpt>
      <trkpt lat="42.62545854784548282623291015625" lon="-0.54012992419302463531494140625">
        <ele>857.20001220703125</ele>
        <time>2020-08-19T09:46:02.000Z</time>
      </trkpt>
      <trkpt lat="42.62537665665149688720703125" lon="-0.54052077233791351318359375">
        <ele>857</ele>
        <time>2020-08-19T09:46:10.000Z</time>
      </trkpt>
      <trkpt lat="42.62540909461677074432373046875" lon="-0.540830902755260467529296875">
        <ele>857.20001220703125</ele>
        <time>2020-08-19T09:46:16.000Z</time>
      </trkpt>
      <trkpt lat="42.625480256974697113037109375" lon="-0.54146029986441135406494140625">
        <ele>857.20001220703125</ele>
        <time>2020-08-19T09:46:28.000Z</time>
      </trkpt>
      <trkpt lat="42.62548201717436313629150390625" lon="-0.54182005114853382110595703125">
        <ele>857.20001220703125</ele>
        <time>2020-08-19T09:46:35.000Z</time>
      </trkpt>
      <trkpt lat="42.6254147104918956756591796875" lon="-0.54205357097089290618896484375">
        <ele>857.4000244140625</ele>
        <time>2020-08-19T09:46:40.000Z</time>
      </trkpt>
      <trkpt lat="42.6252671889960765838623046875" lon="-0.54242312908172607421875">
        <ele>857.4000244140625</ele>
        <time>2020-08-19T09:46:48.000Z</time>
      </trkpt>
      <trkpt lat="42.62515830807387828826904296875" lon="-0.54269394837319850921630859375">
        <ele>857.5999755859375</ele>
        <time>2020-08-19T09:46:54.000Z</time>
      </trkpt>
      <trkpt lat="42.6251008920371532440185546875" lon="-0.54282839410006999969482421875">
        <ele>857.5999755859375</ele>
        <time>2020-08-19T09:46:57.000Z</time>
      </trkpt>
      <trkpt lat="42.624953202903270721435546875" lon="-0.54318663664162158966064453125">
        <ele>857.20001220703125</ele>
        <time>2020-08-19T09:47:04.000Z</time>
      </trkpt>
      <trkpt lat="42.6249050907790660858154296875" lon="-0.5432993732392787933349609375">
        <ele>857</ele>
        <time>2020-08-19T09:47:06.000Z</time>
      </trkpt>
      <trkpt lat="42.62488455511629581451416015625" lon="-0.54335913620889186859130859375">
        <ele>856.5999755859375</ele>
        <time>2020-08-19T09:47:07.000Z</time>
      </trkpt>
      <trkpt lat="42.62486913241446018218994140625" lon="-0.54341646842658519744873046875">
        <ele>856.4000244140625</ele>
        <time>2020-08-19T09:47:08.000Z</time>
      </trkpt>
      <trkpt lat="42.62486829422414302825927734375" lon="-0.543473549187183380126953125">
        <ele>856.4000244140625</ele>
        <time>2020-08-19T09:47:09.000Z</time>
      </trkpt>
      <trkpt lat="42.6249801926314830780029296875" lon="-0.54361210204660892486572265625">
        <ele>855.4000244140625</ele>
        <time>2020-08-19T09:47:12.000Z</time>
      </trkpt>
      <trkpt lat="42.625037021934986114501953125" lon="-0.543653927743434906005859375">
        <ele>855</ele>
        <time>2020-08-19T09:47:13.000Z</time>
      </trkpt>
      <trkpt lat="42.6251605711877346038818359375" lon="-0.54374202154576778411865234375">
        <ele>854.20001220703125</ele>
        <time>2020-08-19T09:47:15.000Z</time>
      </trkpt>
      <trkpt lat="42.62528386898338794708251953125" lon="-0.54382131434977054595947265625">
        <ele>853</ele>
        <time>2020-08-19T09:47:17.000Z</time>
      </trkpt>
      <trkpt lat="42.6253416202962398529052734375" lon="-0.5438673309981822967529296875">
        <ele>852.5999755859375</ele>
        <time>2020-08-19T09:47:18.000Z</time>
      </trkpt>
      <trkpt lat="42.62545100413262844085693359375" lon="-0.54398216307163238525390625">
        <ele>852</ele>
        <time>2020-08-19T09:47:20.000Z</time>
      </trkpt>
      <trkpt lat="42.6254980266094207763671875" lon="-0.54404309950768947601318359375">
        <ele>851.5999755859375</ele>
        <time>2020-08-19T09:47:21.000Z</time>
      </trkpt>
      <trkpt lat="42.6256597973406314849853515625" lon="-0.5442934669554233551025390625">
        <ele>850.79998779296875</ele>
        <time>2020-08-19T09:47:25.000Z</time>
      </trkpt>
      <trkpt lat="42.62576716952025890350341796875" lon="-0.544465295970439910888671875">
        <ele>850.20001220703125</ele>
        <time>2020-08-19T09:47:28.000Z</time>
      </trkpt>
      <trkpt lat="42.6258592866361141204833984375" lon="-0.5446290783584117889404296875">
        <ele>850</ele>
        <time>2020-08-19T09:47:31.000Z</time>
      </trkpt>
      <trkpt lat="42.62591955251991748809814453125" lon="-0.5447377078235149383544921875">
        <ele>850</ele>
        <time>2020-08-19T09:47:33.000Z</time>
      </trkpt>
      <trkpt lat="42.6260371506214141845703125" lon="-0.544930994510650634765625">
        <ele>849.79998779296875</ele>
        <time>2020-08-19T09:47:37.000Z</time>
      </trkpt>
      <trkpt lat="42.62606330215930938720703125" lon="-0.54497734643518924713134765625">
        <ele>849.79998779296875</ele>
        <time>2020-08-19T09:47:38.000Z</time>
      </trkpt>
      <trkpt lat="42.6261167787015438079833984375" lon="-0.5450642667710781097412109375">
        <ele>849.79998779296875</ele>
        <time>2020-08-19T09:47:40.000Z</time>
      </trkpt>
      <trkpt lat="42.62614435516297817230224609375" lon="-0.54510475136339664459228515625">
        <ele>849.79998779296875</ele>
        <time>2020-08-19T09:47:41.000Z</time>
      </trkpt>
      <trkpt lat="42.62630009092390537261962890625" lon="-0.54535386152565479278564453125">
        <ele>849.5999755859375</ele>
        <time>2020-08-19T09:47:47.000Z</time>
      </trkpt>
      <trkpt lat="42.6264788769185543060302734375" lon="-0.5456774868071079254150390625">
        <ele>849.4000244140625</ele>
        <time>2020-08-19T09:47:55.000Z</time>
      </trkpt>
      <trkpt lat="42.62653629295527935028076171875" lon="-0.54583649151027202606201171875">
        <ele>848.79998779296875</ele>
        <time>2020-08-19T09:47:58.000Z</time>
      </trkpt>
      <trkpt lat="42.62660217471420764923095703125" lon="-0.54601368494331836700439453125">
        <ele>848.5999755859375</ele>
        <time>2020-08-19T09:48:01.000Z</time>
      </trkpt>
      <trkpt lat="42.62662380002439022064208984375" lon="-0.54607504047453403472900390625">
        <ele>848.5999755859375</ele>
        <time>2020-08-19T09:48:02.000Z</time>
      </trkpt>
      <trkpt lat="42.62670627795159816741943359375" lon="-0.5463346280157566070556640625">
        <ele>847.79998779296875</ele>
        <time>2020-08-19T09:48:06.000Z</time>
      </trkpt>
      <trkpt lat="42.62672957964241504669189453125" lon="-0.5464016832411289215087890625">
        <ele>847.5999755859375</ele>
        <time>2020-08-19T09:48:07.000Z</time>
      </trkpt>
      <trkpt lat="42.62691431678831577301025390625" lon="-0.54679320193827152252197265625">
        <ele>847</ele>
        <time>2020-08-19T09:48:13.000Z</time>
      </trkpt>
      <trkpt lat="42.62694834731519222259521484375" lon="-0.54685237817466259002685546875">
        <ele>846.79998779296875</ele>
        <time>2020-08-19T09:48:14.000Z</time>
      </trkpt>
      <trkpt lat="42.627043984830379486083984375" lon="-0.5470051802694797515869140625">
        <ele>846.4000244140625</ele>
        <time>2020-08-19T09:48:17.000Z</time>
      </trkpt>
      <trkpt lat="42.62708044610917568206787109375" lon="-0.5470417253673076629638671875">
        <ele>846.4000244140625</ele>
        <time>2020-08-19T09:48:18.000Z</time>
      </trkpt>
      <trkpt lat="42.627235092222690582275390625" lon="-0.54714155383408069610595703125">
        <ele>846.5999755859375</ele>
        <time>2020-08-19T09:48:22.000Z</time>
      </trkpt>
      <trkpt lat="42.62726987712085247039794921875" lon="-0.5471594072878360748291015625">
        <ele>846.5999755859375</ele>
        <time>2020-08-19T09:48:23.000Z</time>
      </trkpt>
      <trkpt lat="42.6274324022233486175537109375" lon="-0.5471853911876678466796875">
        <ele>846.5999755859375</ele>
        <time>2020-08-19T09:48:28.000Z</time>
      </trkpt>
      <trkpt lat="42.62758947908878326416015625" lon="-0.5472314916551113128662109375">
        <ele>847.4000244140625</ele>
        <time>2020-08-19T09:48:34.000Z</time>
      </trkpt>
      <trkpt lat="42.62762761674821376800537109375" lon="-0.5472643487155437469482421875">
        <ele>847.79998779296875</ele>
        <time>2020-08-19T09:48:37.000Z</time>
      </trkpt>
      <trkpt lat="42.6276459731161594390869140625" lon="-0.547278933227062225341796875">
        <ele>848.20001220703125</ele>
        <time>2020-08-19T09:48:40.000Z</time>
      </trkpt>
      <trkpt lat="42.62764371000230312347412109375" lon="-0.54728052578866481781005859375">
        <ele>848.79998779296875</ele>
        <time>2020-08-19T09:48:52.000Z</time>
      </trkpt>
      <trkpt lat="42.62767589651048183441162109375" lon="-0.5473106168210506439208984375">
        <ele>849</ele>
        <time>2020-08-19T09:48:57.000Z</time>
      </trkpt>
      <trkpt lat="42.6276972703635692596435546875" lon="-0.5473250336945056915283203125">
        <ele>849.20001220703125</ele>
        <time>2020-08-19T09:48:59.000Z</time>
      </trkpt>
      <trkpt lat="42.627725265920162200927734375" lon="-0.5473454855382442474365234375">
        <ele>849.4000244140625</ele>
        <time>2020-08-19T09:49:02.000Z</time>
      </trkpt>
      <trkpt lat="42.6277432031929492950439453125" lon="-0.54735529236495494842529296875">
        <ele>849.79998779296875</ele>
        <time>2020-08-19T09:49:04.000Z</time>
      </trkpt>
      <trkpt lat="42.62777128256857395172119140625" lon="-0.54735378362238407135009765625">
        <ele>850.20001220703125</ele>
        <time>2020-08-19T09:49:10.000Z</time>
      </trkpt>
      <trkpt lat="42.62777999974787235260009765625" lon="-0.54736032150685787200927734375">
        <ele>850.4000244140625</ele>
        <time>2020-08-19T09:49:23.000Z</time>
      </trkpt>
      <trkpt lat="42.62785208411514759063720703125" lon="-0.547443889081478118896484375">
        <ele>851.20001220703125</ele>
        <time>2020-08-19T09:49:30.000Z</time>
      </trkpt>
      <trkpt lat="42.62787572108209133148193359375" lon="-0.54747113026678562164306640625">
        <ele>851.4000244140625</ele>
        <time>2020-08-19T09:49:32.000Z</time>
      </trkpt>
      <trkpt lat="42.627929784357547760009765625" lon="-0.5475422926247119903564453125">
        <ele>851.79998779296875</ele>
        <time>2020-08-19T09:49:37.000Z</time>
      </trkpt>
      <trkpt lat="42.62797705829143524169921875" lon="-0.54757338948547840118408203125">
        <ele>852.20001220703125</ele>
        <time>2020-08-19T09:49:41.000Z</time>
      </trkpt>
      <trkpt lat="42.62798250652849674224853515625" lon="-0.5475915782153606414794921875">
        <ele>852.4000244140625</ele>
        <time>2020-08-19T09:49:42.000Z</time>
      </trkpt>
      <trkpt lat="42.62798703275620937347412109375" lon="-0.547615550458431243896484375">
        <ele>852.5999755859375</ele>
        <time>2020-08-19T09:49:43.000Z</time>
      </trkpt>
      <trkpt lat="42.62806196697056293487548828125" lon="-0.5477025546133518218994140625">
        <ele>852.79998779296875</ele>
        <time>2020-08-19T09:49:48.000Z</time>
      </trkpt>
      <trkpt lat="42.6280831731855869293212890625" lon="-0.5477137863636016845703125">
        <ele>853.20001220703125</ele>
        <time>2020-08-19T09:49:49.000Z</time>
      </trkpt>
      <trkpt lat="42.62817696668207645416259765625" lon="-0.54779802449047565460205078125">
        <ele>853.5999755859375</ele>
        <time>2020-08-19T09:49:54.000Z</time>
      </trkpt>
      <trkpt lat="42.62826749123632907867431640625" lon="-0.54791620932519435882568359375">
        <ele>854.5999755859375</ele>
        <time>2020-08-19T09:50:00.000Z</time>
      </trkpt>
      <trkpt lat="42.62828148901462554931640625" lon="-0.54793800227344036102294921875">
        <ele>854.79998779296875</ele>
        <time>2020-08-19T09:50:01.000Z</time>
      </trkpt>
      <trkpt lat="42.62835533358156681060791015625" lon="-0.54803472943603992462158203125">
        <ele>855.79998779296875</ele>
        <time>2020-08-19T09:50:06.000Z</time>
      </trkpt>
      <trkpt lat="42.62836773879826068878173828125" lon="-0.5480556003749370574951171875">
        <ele>856</ele>
        <time>2020-08-19T09:50:07.000Z</time>
      </trkpt>
      <trkpt lat="42.6284389011561870574951171875" lon="-0.54817722178995609283447265625">
        <ele>857.20001220703125</ele>
        <time>2020-08-19T09:50:13.000Z</time>
      </trkpt>
      <trkpt lat="42.62846094556152820587158203125" lon="-0.5482198856770992279052734375">
        <ele>857.5999755859375</ele>
        <time>2020-08-19T09:50:15.000Z</time>
      </trkpt>
      <trkpt lat="42.6285015977919101715087890625" lon="-0.54830647073686122894287109375">
        <ele>858.4000244140625</ele>
        <time>2020-08-19T09:50:19.000Z</time>
      </trkpt>
      <trkpt lat="42.6285637915134429931640625" lon="-0.54846522398293018341064453125">
        <ele>859.4000244140625</ele>
        <time>2020-08-19T09:50:26.000Z</time>
      </trkpt>
      <trkpt lat="42.628573514521121978759765625" lon="-0.54848802275955677032470703125">
        <ele>859.79998779296875</ele>
        <time>2020-08-19T09:50:27.000Z</time>
      </trkpt>
      <trkpt lat="42.62867510318756103515625" lon="-0.5486336164176464080810546875">
        <ele>860.79998779296875</ele>
        <time>2020-08-19T09:50:34.000Z</time>
      </trkpt>
      <trkpt lat="42.62868943624198436737060546875" lon="-0.54865130223333835601806640625">
        <ele>860.79998779296875</ele>
        <time>2020-08-19T09:50:35.000Z</time>
      </trkpt>
      <trkpt lat="42.628799490630626678466796875" lon="-0.54876361973583698272705078125">
        <ele>861.79998779296875</ele>
        <time>2020-08-19T09:50:42.000Z</time>
      </trkpt>
      <trkpt lat="42.62881658971309661865234375" lon="-0.5487764440476894378662109375">
        <ele>861.79998779296875</ele>
        <time>2020-08-19T09:50:43.000Z</time>
      </trkpt>
      <trkpt lat="42.62892781756818294525146484375" lon="-0.548860765993595123291015625">
        <ele>863.20001220703125</ele>
        <time>2020-08-19T09:50:50.000Z</time>
      </trkpt>
      <trkpt lat="42.6290326751768589019775390625" lon="-0.54890678264200687408447265625">
        <ele>864.4000244140625</ele>
        <time>2020-08-19T09:50:56.000Z</time>
      </trkpt>
      <trkpt lat="42.6290678791701793670654296875" lon="-0.54892170242965221405029296875">
        <ele>864.5999755859375</ele>
        <time>2020-08-19T09:50:58.000Z</time>
      </trkpt>
      <trkpt lat="42.62915597297251224517822265625" lon="-0.54891432635486125946044921875">
        <ele>865.4000244140625</ele>
        <time>2020-08-19T09:51:03.000Z</time>
      </trkpt>
      <trkpt lat="42.6292053423821926116943359375" lon="-0.54889722727239131927490234375">
        <ele>866</ele>
        <time>2020-08-19T09:51:06.000Z</time>
      </trkpt>
      <trkpt lat="42.62924037873744964599609375" lon="-0.5488884262740612030029296875">
        <ele>866.79998779296875</ele>
        <time>2020-08-19T09:51:08.000Z</time>
      </trkpt>
      <trkpt lat="42.6293416321277618408203125" lon="-0.5488803796470165252685546875">
        <ele>867.4000244140625</ele>
        <time>2020-08-19T09:51:14.000Z</time>
      </trkpt>
      <trkpt lat="42.6293887384235858917236328125" lon="-0.548888258635997772216796875">
        <ele>868.20001220703125</ele>
        <time>2020-08-19T09:51:17.000Z</time>
      </trkpt>
      <trkpt lat="42.62946526519954204559326171875" lon="-0.54889471270143985748291015625">
        <ele>869.20001220703125</ele>
        <time>2020-08-19T09:51:22.000Z</time>
      </trkpt>
      <trkpt lat="42.62955151498317718505859375" lon="-0.54891633801162242889404296875">
        <ele>870.20001220703125</ele>
        <time>2020-08-19T09:51:28.000Z</time>
      </trkpt>
      <trkpt lat="42.6295667700469493865966796875" lon="-0.54892019368708133697509765625">
        <ele>870.5999755859375</ele>
        <time>2020-08-19T09:51:29.000Z</time>
      </trkpt>
      <trkpt lat="42.629627622663974761962890625" lon="-0.5489410646259784698486328125">
        <ele>871.4000244140625</ele>
        <time>2020-08-19T09:51:33.000Z</time>
      </trkpt>
      <trkpt lat="42.62966676615178585052490234375" lon="-0.5489695630967617034912109375">
        <ele>872.4000244140625</ele>
        <time>2020-08-19T09:51:36.000Z</time>
      </trkpt>
      <trkpt lat="42.6296930015087127685546875" lon="-0.54898691363632678985595703125">
        <ele>872.79998779296875</ele>
        <time>2020-08-19T09:51:38.000Z</time>
      </trkpt>
      <trkpt lat="42.6297303847968578338623046875" lon="-0.5490480177104473114013671875">
        <ele>873.5999755859375</ele>
        <time>2020-08-19T09:51:42.000Z</time>
      </trkpt>
      <trkpt lat="42.62974522076547145843505859375" lon="-0.54908012039959430694580078125">
        <ele>874</ele>
        <time>2020-08-19T09:51:44.000Z</time>
      </trkpt>
      <trkpt lat="42.629769109189510345458984375" lon="-0.5491247959434986114501953125">
        <ele>874.5999755859375</ele>
        <time>2020-08-19T09:51:47.000Z</time>
      </trkpt>
      <trkpt lat="42.629795931279659271240234375" lon="-0.5491643585264682769775390625">
        <ele>876</ele>
        <time>2020-08-19T09:51:51.000Z</time>
      </trkpt>
      <trkpt lat="42.629798948764801025390625" lon="-0.54916360415518283843994140625">
        <ele>876.5999755859375</ele>
        <time>2020-08-19T09:52:03.000Z</time>
      </trkpt>
      <trkpt lat="42.62983356602489948272705078125" lon="-0.54915773682296276092529296875">
        <ele>877</ele>
        <time>2020-08-19T09:52:10.000Z</time>
      </trkpt>
      <trkpt lat="42.62984060682356357574462890625" lon="-0.54915505461394786834716796875">
        <ele>877.20001220703125</ele>
        <time>2020-08-19T09:52:11.000Z</time>
      </trkpt>
      <trkpt lat="42.62988754548132419586181640625" lon="-0.5491546355187892913818359375">
        <ele>878.20001220703125</ele>
        <time>2020-08-19T09:52:19.000Z</time>
      </trkpt>
      <trkpt lat="42.62989207170903682708740234375" lon="-0.54915606044232845306396484375">
        <ele>878.4000244140625</ele>
        <time>2020-08-19T09:52:20.000Z</time>
      </trkpt>
      <trkpt lat="42.6299317181110382080078125" lon="-0.5491734109818935394287109375">
        <ele>879.20001220703125</ele>
        <time>2020-08-19T09:52:26.000Z</time>
      </trkpt>
      <trkpt lat="42.62994571588933467864990234375" lon="-0.54918522946536540985107421875">
        <ele>879.4000244140625</ele>
        <time>2020-08-19T09:52:28.000Z</time>
      </trkpt>
      <trkpt lat="42.62999734841287136077880859375" lon="-0.54924205876886844635009765625">
        <ele>880.5999755859375</ele>
        <time>2020-08-19T09:52:36.000Z</time>
      </trkpt>
      <trkpt lat="42.63003540225327014923095703125" lon="-0.54927458055317401885986328125">
        <ele>881.5999755859375</ele>
        <time>2020-08-19T09:52:42.000Z</time>
      </trkpt>
      <trkpt lat="42.63005174696445465087890625" lon="-0.5492884106934070587158203125">
        <ele>882.20001220703125</ele>
        <time>2020-08-19T09:52:45.000Z</time>
      </trkpt>
      <trkpt lat="42.63007991015911102294921875" lon="-0.54932286031544208526611328125">
        <ele>882.79998779296875</ele>
        <time>2020-08-19T09:52:50.000Z</time>
      </trkpt>
      <trkpt lat="42.63008594512939453125" lon="-0.54932906292378902435302734375">
        <ele>883.20001220703125</ele>
        <time>2020-08-19T09:52:51.000Z</time>
      </trkpt>
      <trkpt lat="42.6301142759621143341064453125" lon="-0.549351274967193603515625">
        <ele>883.79998779296875</ele>
        <time>2020-08-19T09:52:55.000Z</time>
      </trkpt>
      <trkpt lat="42.6301615498960018157958984375" lon="-0.5493901669979095458984375">
        <ele>884.4000244140625</ele>
        <time>2020-08-19T09:53:01.000Z</time>
      </trkpt>
      <trkpt lat="42.63021494261920452117919921875" lon="-0.5494262091815471649169921875">
        <ele>885</ele>
        <time>2020-08-19T09:53:10.000Z</time>
      </trkpt>
      <trkpt lat="42.63021938502788543701171875" lon="-0.54942646063864231109619140625">
        <ele>885.4000244140625</ele>
        <time>2020-08-19T09:53:24.000Z</time>
      </trkpt>
      <trkpt lat="42.630247212946414947509765625" lon="-0.54942461661994457244873046875">
        <ele>885.79998779296875</ele>
        <time>2020-08-19T09:53:34.000Z</time>
      </trkpt>
      <trkpt lat="42.630279064178466796875" lon="-0.54943970404565334320068359375">
        <ele>886.20001220703125</ele>
        <time>2020-08-19T09:53:38.000Z</time>
      </trkpt>
      <trkpt lat="42.6303177885711193084716796875" lon="-0.54946769960224628448486328125">
        <ele>887</ele>
        <time>2020-08-19T09:53:44.000Z</time>
      </trkpt>
      <trkpt lat="42.63034486211836338043212890625" lon="-0.54948647506535053253173828125">
        <ele>887.4000244140625</ele>
        <time>2020-08-19T09:53:48.000Z</time>
      </trkpt>
      <trkpt lat="42.6303863525390625" lon="-0.5495120398700237274169921875">
        <ele>888</ele>
        <time>2020-08-19T09:53:54.000Z</time>
      </trkpt>
      <trkpt lat="42.63040806166827678680419921875" lon="-0.5495271272957324981689453125">
        <ele>888.5999755859375</ele>
        <time>2020-08-19T09:53:57.000Z</time>
      </trkpt>
      <trkpt lat="42.63044737279415130615234375" lon="-0.54956207983195781707763671875">
        <ele>889</ele>
        <time>2020-08-19T09:54:03.000Z</time>
      </trkpt>
      <trkpt lat="42.63047276996076107025146484375" lon="-0.5495851300656795501708984375">
        <ele>889.79998779296875</ele>
        <time>2020-08-19T09:54:07.000Z</time>
      </trkpt>
      <trkpt lat="42.63052641414105892181396484375" lon="-0.54963751696050167083740234375">
        <ele>890.5999755859375</ele>
        <time>2020-08-19T09:54:14.000Z</time>
      </trkpt>
      <trkpt lat="42.63053379021584987640380859375" lon="-0.54964807815849781036376953125">
        <ele>890.79998779296875</ele>
        <time>2020-08-19T09:54:15.000Z</time>
      </trkpt>
      <trkpt lat="42.630601264536380767822265625" lon="-0.54972150363028049468994140625">
        <ele>891.5999755859375</ele>
        <time>2020-08-19T09:54:23.000Z</time>
      </trkpt>
      <trkpt lat="42.63063923455774784088134765625" lon="-0.5497500859200954437255859375">
        <ele>892</ele>
        <time>2020-08-19T09:54:27.000Z</time>
      </trkpt>
      <trkpt lat="42.63070729561150074005126953125" lon="-0.54977967403829097747802734375">
        <ele>892.5999755859375</ele>
        <time>2020-08-19T09:54:34.000Z</time>
      </trkpt>
      <trkpt lat="42.6307496242225170135498046875" lon="-0.54976844228804111480712890625">
        <ele>892.79998779296875</ele>
        <time>2020-08-19T09:54:38.000Z</time>
      </trkpt>
      <trkpt lat="42.63076697476208209991455078125" lon="-0.5497752316296100616455078125">
        <ele>893</ele>
        <time>2020-08-19T09:54:40.000Z</time>
      </trkpt>
      <trkpt lat="42.63077435083687305450439453125" lon="-0.54978185333311557769775390625">
        <ele>893.20001220703125</ele>
        <time>2020-08-19T09:54:41.000Z</time>
      </trkpt>
      <trkpt lat="42.6308146677911281585693359375" lon="-0.549806915223598480224609375">
        <ele>893.79998779296875</ele>
        <time>2020-08-19T09:54:46.000Z</time>
      </trkpt>
      <trkpt lat="42.63084626756608486175537109375" lon="-0.54982795380055904388427734375">
        <ele>894.20001220703125</ele>
        <time>2020-08-19T09:54:50.000Z</time>
      </trkpt>
      <trkpt lat="42.63085372745990753173828125" lon="-0.54983331821858882904052734375">
        <ele>894.4000244140625</ele>
        <time>2020-08-19T09:54:51.000Z</time>
      </trkpt>
      <trkpt lat="42.63090829364955425262451171875" lon="-0.54991311393678188323974609375">
        <ele>895.20001220703125</ele>
        <time>2020-08-19T09:54:58.000Z</time>
      </trkpt>
      <trkpt lat="42.63092589564621448516845703125" lon="-0.5499395169317722320556640625">
        <ele>895.4000244140625</ele>
        <time>2020-08-19T09:55:00.000Z</time>
      </trkpt>
      <trkpt lat="42.63096076436340808868408203125" lon="-0.549961812794208526611328125">
        <ele>896</ele>
        <time>2020-08-19T09:55:05.000Z</time>
      </trkpt>
      <trkpt lat="42.630962692201137542724609375" lon="-0.54996944032609462738037109375">
        <ele>896.20001220703125</ele>
        <time>2020-08-19T09:55:15.000Z</time>
      </trkpt>
      <trkpt lat="42.630963027477264404296875" lon="-0.5499710328876972198486328125">
        <ele>896</ele>
        <time>2020-08-19T09:55:29.000Z</time>
      </trkpt>
      <trkpt lat="42.6309628598392009735107421875" lon="-0.54997161962091922760009765625">
        <ele>896.20001220703125</ele>
        <time>2020-08-19T09:55:44.000Z</time>
      </trkpt>
      <trkpt lat="42.63096244074404239654541015625" lon="-0.5499733798205852508544921875">
        <ele>896.4000244140625</ele>
        <time>2020-08-19T09:56:03.000Z</time>
      </trkpt>
      <trkpt lat="42.63097970746457576751708984375" lon="-0.549993999302387237548828125">
        <ele>896.5999755859375</ele>
        <time>2020-08-19T09:56:14.000Z</time>
      </trkpt>
      <trkpt lat="42.6309863291680812835693359375" lon="-0.5500028841197490692138671875">
        <ele>896.79998779296875</ele>
        <time>2020-08-19T09:56:15.000Z</time>
      </trkpt>
      <trkpt lat="42.6310252211987972259521484375" lon="-0.55002710781991481781005859375">
        <ele>897</ele>
        <time>2020-08-19T09:56:22.000Z</time>
      </trkpt>
      <trkpt lat="42.6310403086245059967041015625" lon="-0.55004638619720935821533203125">
        <ele>897</ele>
        <time>2020-08-19T09:56:29.000Z</time>
      </trkpt>
      <trkpt lat="42.63111717067658901214599609375" lon="-0.5500840209424495697021484375">
        <ele>897.79998779296875</ele>
        <time>2020-08-19T09:56:37.000Z</time>
      </trkpt>
      <trkpt lat="42.63113309629261493682861328125" lon="-0.55009667761623859405517578125">
        <ele>898</ele>
        <time>2020-08-19T09:56:39.000Z</time>
      </trkpt>
      <trkpt lat="42.63117366470396518707275390625" lon="-0.550124756991863250732421875">
        <ele>898.5999755859375</ele>
        <time>2020-08-19T09:56:44.000Z</time>
      </trkpt>
      <trkpt lat="42.63117852620780467987060546875" lon="-0.5501170456409454345703125">
        <ele>899</ele>
        <time>2020-08-19T09:56:57.000Z</time>
      </trkpt>
      <trkpt lat="42.631178610026836395263671875" lon="-0.5501170456409454345703125">
        <ele>899</ele>
        <time>2020-08-19T09:56:58.000Z</time>
      </trkpt>
      <trkpt lat="42.63121507130563259124755859375" lon="-0.5501302890479564666748046875">
        <ele>899</ele>
        <time>2020-08-19T09:57:09.000Z</time>
      </trkpt>
      <trkpt lat="42.6312270574271678924560546875" lon="-0.5501358211040496826171875">
        <ele>899.20001220703125</ele>
        <time>2020-08-19T09:57:19.000Z</time>
      </trkpt>
      <trkpt lat="42.6313157379627227783203125" lon="-0.55017831735312938690185546875">
        <ele>900.20001220703125</ele>
        <time>2020-08-19T09:57:27.000Z</time>
      </trkpt>
      <trkpt lat="42.6313256286084651947021484375" lon="-0.55018485523760318756103515625">
        <ele>900.4000244140625</ele>
        <time>2020-08-19T09:57:28.000Z</time>
      </trkpt>
      <trkpt lat="42.6314111240208148956298828125" lon="-0.55025492794811725616455078125">
        <ele>901.4000244140625</ele>
        <time>2020-08-19T09:57:38.000Z</time>
      </trkpt>
      <trkpt lat="42.63143886812031269073486328125" lon="-0.55027605034410953521728515625">
        <ele>902.5999755859375</ele>
        <time>2020-08-19T09:57:42.000Z</time>
      </trkpt>
      <trkpt lat="42.63148899190127849578857421875" lon="-0.550303794443607330322265625">
        <ele>902.79998779296875</ele>
        <time>2020-08-19T09:57:47.000Z</time>
      </trkpt>
      <trkpt lat="42.63156560249626636505126953125" lon="-0.550338663160800933837890625">
        <ele>903.4000244140625</ele>
        <time>2020-08-19T09:57:54.000Z</time>
      </trkpt>
      <trkpt lat="42.6315759122371673583984375" lon="-0.5503435246646404266357421875">
        <ele>904</ele>
        <time>2020-08-19T09:57:55.000Z</time>
      </trkpt>
      <trkpt lat="42.63165310956537723541259765625" lon="-0.55041016079485416412353515625">
        <ele>904.79998779296875</ele>
        <time>2020-08-19T09:58:03.000Z</time>
      </trkpt>
      <trkpt lat="42.63166132383048534393310546875" lon="-0.55041854269802570343017578125">
        <ele>905</ele>
        <time>2020-08-19T09:58:04.000Z</time>
      </trkpt>
      <trkpt lat="42.63172435574233531951904296875" lon="-0.5504223145544528961181640625">
        <ele>905.5999755859375</ele>
        <time>2020-08-19T09:58:12.000Z</time>
      </trkpt>
      <trkpt lat="42.6317313127219676971435546875" lon="-0.55037579499185085296630859375">
        <ele>906</ele>
        <time>2020-08-19T09:58:16.000Z</time>
      </trkpt>
      <trkpt lat="42.631730139255523681640625" lon="-0.55035735480487346649169921875">
        <ele>906.4000244140625</ele>
        <time>2020-08-19T09:58:18.000Z</time>
      </trkpt>
      <trkpt lat="42.631715051829814910888671875" lon="-0.55031997151672840118408203125">
        <ele>907</ele>
        <time>2020-08-19T09:58:25.000Z</time>
      </trkpt>
      <trkpt lat="42.6316786743700504302978515625" lon="-0.5502699315547943115234375">
        <ele>908.20001220703125</ele>
        <time>2020-08-19T09:58:32.000Z</time>
      </trkpt>
      <trkpt lat="42.63167456723749637603759765625" lon="-0.550260208547115325927734375">
        <ele>908.4000244140625</ele>
        <time>2020-08-19T09:58:33.000Z</time>
      </trkpt>
      <trkpt lat="42.6316354237496852874755859375" lon="-0.55021050386130809783935546875">
        <ele>909.20001220703125</ele>
        <time>2020-08-19T09:58:39.000Z</time>
      </trkpt>
      <trkpt lat="42.63162695802748203277587890625" lon="-0.55017806589603424072265625">
        <ele>909.4000244140625</ele>
        <time>2020-08-19T09:58:42.000Z</time>
      </trkpt>
      <trkpt lat="42.631617486476898193359375" lon="-0.55015602149069309234619140625">
        <ele>909.79998779296875</ele>
        <time>2020-08-19T09:58:45.000Z</time>
      </trkpt>
      <trkpt lat="42.63161304406821727752685546875" lon="-0.55015233345329761505126953125">
        <ele>910.20001220703125</ele>
        <time>2020-08-19T09:58:48.000Z</time>
      </trkpt>
      <trkpt lat="42.63161254115402698516845703125" lon="-0.55015451274812221527099609375">
        <ele>910.4000244140625</ele>
        <time>2020-08-19T09:58:52.000Z</time>
      </trkpt>
      <trkpt lat="42.631612457334995269775390625" lon="-0.55015400983393192291259765625">
        <ele>910.4000244140625</ele>
        <time>2020-08-19T09:59:03.000Z</time>
      </trkpt>
      <trkpt lat="42.631631232798099517822265625" lon="-0.55015685968101024627685546875">
        <ele>910.5999755859375</ele>
        <time>2020-08-19T09:59:18.000Z</time>
      </trkpt>
      <trkpt lat="42.631692923605442047119140625" lon="-0.55018904618918895721435546875">
        <ele>911.79998779296875</ele>
        <time>2020-08-19T09:59:25.000Z</time>
      </trkpt>
      <trkpt lat="42.63171396218240261077880859375" lon="-0.550195835530757904052734375">
        <ele>912</ele>
        <time>2020-08-19T09:59:27.000Z</time>
      </trkpt>
      <trkpt lat="42.6317598111927509307861328125" lon="-0.55020497180521488189697265625">
        <ele>912.4000244140625</ele>
        <time>2020-08-19T09:59:32.000Z</time>
      </trkpt>
      <trkpt lat="42.63178847730159759521484375" lon="-0.5501886270940303802490234375">
        <ele>912.4000244140625</ele>
        <time>2020-08-19T09:59:34.000Z</time>
      </trkpt>
      <trkpt lat="42.6318315602838993072509765625" lon="-0.55016457103192806243896484375">
        <ele>912.79998779296875</ele>
        <time>2020-08-19T09:59:39.000Z</time>
      </trkpt>
      <trkpt lat="42.631842792034149169921875" lon="-0.550162307918071746826171875">
        <ele>913</ele>
        <time>2020-08-19T09:59:40.000Z</time>
      </trkpt>
      <trkpt lat="42.631859891116619110107421875" lon="-0.5501331388950347900390625">
        <ele>913.5999755859375</ele>
        <time>2020-08-19T09:59:45.000Z</time>
      </trkpt>
      <trkpt lat="42.63185578398406505584716796875" lon="-0.5501152016222476959228515625">
        <ele>914</ele>
        <time>2020-08-19T09:59:48.000Z</time>
      </trkpt>
      <trkpt lat="42.63187229633331298828125" lon="-0.55005610920488834381103515625">
        <ele>914</ele>
        <time>2020-08-19T09:59:53.000Z</time>
      </trkpt>
      <trkpt lat="42.63187573291361331939697265625" lon="-0.54989785887300968170166015625">
        <ele>914.79998779296875</ele>
        <time>2020-08-19T10:00:04.000Z</time>
      </trkpt>
      <trkpt lat="42.63186768628656864166259765625" lon="-0.54987723939120769500732421875">
        <ele>914.4000244140625</ele>
        <time>2020-08-19T10:00:08.000Z</time>
      </trkpt>
      <trkpt lat="42.631873972713947296142578125" lon="-0.5497822724282741546630859375">
        <ele>913.79998779296875</ele>
        <time>2020-08-19T10:02:11.000Z</time>
      </trkpt>
      <trkpt lat="42.63187807984650135040283203125" lon="-0.54978252388536930084228515625">
        <ele>913.79998779296875</ele>
        <time>2020-08-19T10:02:13.000Z</time>
      </trkpt>
      <trkpt lat="42.6319113560020923614501953125" lon="-0.54979325272142887115478515625">
        <ele>914</ele>
        <time>2020-08-19T10:02:18.000Z</time>
      </trkpt>
      <trkpt lat="42.631922252476215362548828125" lon="-0.54978889413177967071533203125">
        <ele>914</ele>
        <time>2020-08-19T10:02:19.000Z</time>
      </trkpt>
      <trkpt lat="42.63197530992329120635986328125" lon="-0.5497805960476398468017578125">
        <ele>914</ele>
        <time>2020-08-19T10:02:23.000Z</time>
      </trkpt>
      <trkpt lat="42.63202208094298839569091796875" lon="-0.54977363906800746917724609375">
        <ele>914</ele>
        <time>2020-08-19T10:02:26.000Z</time>
      </trkpt>
      <trkpt lat="42.6321349851787090301513671875" lon="-0.54973625577986240386962890625">
        <ele>914</ele>
        <time>2020-08-19T10:02:32.000Z</time>
      </trkpt>
      <trkpt lat="42.632274627685546875" lon="-0.54967892356216907501220703125">
        <ele>913.79998779296875</ele>
        <time>2020-08-19T10:02:38.000Z</time>
      </trkpt>
      <trkpt lat="42.63246313668787479400634765625" lon="-0.5496746487915515899658203125">
        <ele>913.20001220703125</ele>
        <time>2020-08-19T10:02:44.000Z</time>
      </trkpt>
      <trkpt lat="42.632669247686862945556640625" lon="-0.54957381449639797210693359375">
        <ele>912.79998779296875</ele>
        <time>2020-08-19T10:02:50.000Z</time>
      </trkpt>
      <trkpt lat="42.63294995762407779693603515625" lon="-0.54941422306001186370849609375">
        <ele>911.5999755859375</ele>
        <time>2020-08-19T10:02:57.000Z</time>
      </trkpt>
      <trkpt lat="42.6331559009850025177001953125" lon="-0.5494411289691925048828125">
        <ele>910.5999755859375</ele>
        <time>2020-08-19T10:03:01.000Z</time>
      </trkpt>
      <trkpt lat="42.63321717269718647003173828125" lon="-0.54945210926234722137451171875">
        <ele>910.4000244140625</ele>
        <time>2020-08-19T10:03:02.000Z</time>
      </trkpt>
      <trkpt lat="42.63342864811420440673828125" lon="-0.5494865588843822479248046875">
        <ele>909.20001220703125</ele>
        <time>2020-08-19T10:03:05.000Z</time>
      </trkpt>
      <trkpt lat="42.63350701890885829925537109375" lon="-0.54950173012912273406982421875">
        <ele>908.5999755859375</ele>
        <time>2020-08-19T10:03:06.000Z</time>
      </trkpt>
      <trkpt lat="42.63358882628381252288818359375" lon="-0.549520589411258697509765625">
        <ele>907.79998779296875</ele>
        <time>2020-08-19T10:03:07.000Z</time>
      </trkpt>
      <trkpt lat="42.633764259517192840576171875" lon="-0.54956643842160701751708984375">
        <ele>906.79998779296875</ele>
        <time>2020-08-19T10:03:09.000Z</time>
      </trkpt>
      <trkpt lat="42.63395167887210845947265625" lon="-0.5496186576783657073974609375">
        <ele>905.5999755859375</ele>
        <time>2020-08-19T10:03:11.000Z</time>
      </trkpt>
      <trkpt lat="42.63414655812084674835205078125" lon="-0.5496709607541561126708984375">
        <ele>904.4000244140625</ele>
        <time>2020-08-19T10:03:13.000Z</time>
      </trkpt>
      <trkpt lat="42.6343452930450439453125" lon="-0.549730472266674041748046875">
        <ele>903</ele>
        <time>2020-08-19T10:03:15.000Z</time>
      </trkpt>
      <trkpt lat="42.63464880175888538360595703125" lon="-0.54983474314212799072265625">
        <ele>901.20001220703125</ele>
        <time>2020-08-19T10:03:18.000Z</time>
      </trkpt>
      <trkpt lat="42.634749971330165863037109375" lon="-0.5498724617063999176025390625">
        <ele>900.4000244140625</ele>
        <time>2020-08-19T10:03:19.000Z</time>
      </trkpt>
      <trkpt lat="42.6348503865301609039306640625" lon="-0.54991445504128932952880859375">
        <ele>900</ele>
        <time>2020-08-19T10:03:20.000Z</time>
      </trkpt>
      <trkpt lat="42.635146267712116241455078125" lon="-0.5500595457851886749267578125">
        <ele>898.79998779296875</ele>
        <time>2020-08-19T10:03:23.000Z</time>
      </trkpt>
      <trkpt lat="42.635344080626964569091796875" lon="-0.5501396767795085906982421875">
        <ele>898.4000244140625</ele>
        <time>2020-08-19T10:03:25.000Z</time>
      </trkpt>
      <trkpt lat="42.6356315799057483673095703125" lon="-0.55022726766765117645263671875">
        <ele>898.20001220703125</ele>
        <time>2020-08-19T10:03:28.000Z</time>
      </trkpt>
      <trkpt lat="42.63572034426033496856689453125" lon="-0.550271607935428619384765625">
        <ele>898.20001220703125</ele>
        <time>2020-08-19T10:03:29.000Z</time>
      </trkpt>
      <trkpt lat="42.63596207834780216217041015625" lon="-0.55044653825461864471435546875">
        <ele>897.5999755859375</ele>
        <time>2020-08-19T10:03:32.000Z</time>
      </trkpt>
      <trkpt lat="42.63611714355647563934326171875" lon="-0.55056740529835224151611328125">
        <ele>897</ele>
        <time>2020-08-19T10:03:34.000Z</time>
      </trkpt>
      <trkpt lat="42.63634446077048778533935546875" lon="-0.55074007250368595123291015625">
        <ele>896.4000244140625</ele>
        <time>2020-08-19T10:03:37.000Z</time>
      </trkpt>
      <trkpt lat="42.6364808343350887298583984375" lon="-0.550830177962779998779296875">
        <ele>895.5999755859375</ele>
        <time>2020-08-19T10:03:39.000Z</time>
      </trkpt>
      <trkpt lat="42.6365468837320804595947265625" lon="-0.550857670605182647705078125">
        <ele>895.20001220703125</ele>
        <time>2020-08-19T10:03:40.000Z</time>
      </trkpt>
      <trkpt lat="42.6366739533841609954833984375" lon="-0.5508803017437458038330078125">
        <ele>894.20001220703125</ele>
        <time>2020-08-19T10:03:42.000Z</time>
      </trkpt>
      <trkpt lat="42.63679155148565769195556640625" lon="-0.55086605250835418701171875">
        <ele>892.79998779296875</ele>
        <time>2020-08-19T10:03:44.000Z</time>
      </trkpt>
      <trkpt lat="42.6368446089327335357666015625" lon="-0.55085104890167713165283203125">
        <ele>892.20001220703125</ele>
        <time>2020-08-19T10:03:45.000Z</time>
      </trkpt>
      <trkpt lat="42.636893056333065032958984375" lon="-0.55083478800952434539794921875">
        <ele>891.79998779296875</ele>
        <time>2020-08-19T10:03:46.000Z</time>
      </trkpt>
      <trkpt lat="42.6369706727564334869384765625" lon="-0.5508005060255527496337890625">
        <ele>890.79998779296875</ele>
        <time>2020-08-19T10:03:48.000Z</time>
      </trkpt>
      <trkpt lat="42.6369941420853137969970703125" lon="-0.55078550241887569427490234375">
        <ele>890.4000244140625</ele>
        <time>2020-08-19T10:03:49.000Z</time>
      </trkpt>
      <trkpt lat="42.6370075531303882598876953125" lon="-0.55077192373573780059814453125">
        <ele>889.5999755859375</ele>
        <time>2020-08-19T10:03:51.000Z</time>
      </trkpt>
      <trkpt lat="42.63700646348297595977783203125" lon="-0.55077091790735721588134765625">
        <ele>889.4000244140625</ele>
        <time>2020-08-19T10:03:52.000Z</time>
      </trkpt>
      <trkpt lat="42.6370075531303882598876953125" lon="-0.55076186545193195343017578125">
        <ele>889</ele>
        <time>2020-08-19T10:03:58.000Z</time>
      </trkpt>
      <trkpt lat="42.6370125822722911834716796875" lon="-0.55074870586395263671875">
        <ele>889</ele>
        <time>2020-08-19T10:04:01.000Z</time>
      </trkpt>
      <trkpt lat="42.6370115764439105987548828125" lon="-0.5507468618452548980712890625">
        <ele>888.79998779296875</ele>
        <time>2020-08-19T10:04:11.000Z</time>
      </trkpt>
      <trkpt lat="42.63701182790100574493408203125" lon="-0.5507468618452548980712890625">
        <ele>888.5999755859375</ele>
        <time>2020-08-19T10:04:15.000Z</time>
      </trkpt>
      <trkpt lat="42.6370038650929927825927734375" lon="-0.55067989043891429901123046875">
        <ele>888.5999755859375</ele>
        <time>2020-08-19T10:04:22.000Z</time>
      </trkpt>
      <trkpt lat="42.6370102353394031524658203125" lon="-0.5506147630512714385986328125">
        <ele>888.5999755859375</ele>
        <time>2020-08-19T10:04:24.000Z</time>
      </trkpt>
      <trkpt lat="42.63703890144824981689453125" lon="-0.5505587719380855560302734375">
        <ele>888.20001220703125</ele>
        <time>2020-08-19T10:04:26.000Z</time>
      </trkpt>
      <trkpt lat="42.63711961917579174041748046875" lon="-0.55059405975043773651123046875">
        <ele>888.20001220703125</ele>
        <time>2020-08-19T10:04:30.000Z</time>
      </trkpt>
      <trkpt lat="42.63717762194573879241943359375" lon="-0.55065038613975048065185546875">
        <ele>888.4000244140625</ele>
        <time>2020-08-19T10:04:33.000Z</time>
      </trkpt>
      <trkpt lat="42.63726462610065937042236328125" lon="-0.55073085241019725799560546875">
        <ele>888.5999755859375</ele>
        <time>2020-08-19T10:04:37.000Z</time>
      </trkpt>
      <trkpt lat="42.63753251172602176666259765625" lon="-0.5509570799767971038818359375">
        <ele>888.79998779296875</ele>
        <time>2020-08-19T10:04:48.000Z</time>
      </trkpt>
      <trkpt lat="42.63772630132734775543212890625" lon="-0.5511337704956531524658203125">
        <ele>888.5999755859375</ele>
        <time>2020-08-19T10:04:55.000Z</time>
      </trkpt>
      <trkpt lat="42.638045065104961395263671875" lon="-0.551288835704326629638671875">
        <ele>889.5999755859375</ele>
        <time>2020-08-19T10:05:05.000Z</time>
      </trkpt>
      <trkpt lat="42.63820926658809185028076171875" lon="-0.55133468471467494964599609375">
        <ele>889.79998779296875</ele>
        <time>2020-08-19T10:05:10.000Z</time>
      </trkpt>
      <trkpt lat="42.63840925879776477813720703125" lon="-0.5513647757470607757568359375">
        <ele>890.20001220703125</ele>
        <time>2020-08-19T10:05:16.000Z</time>
      </trkpt>
      <trkpt lat="42.63878845609724521636962890625" lon="-0.55135848931968212127685546875">
        <ele>891.4000244140625</ele>
        <time>2020-08-19T10:05:27.000Z</time>
      </trkpt>
      <trkpt lat="42.6391303539276123046875" lon="-0.551309622824192047119140625">
        <ele>892.5999755859375</ele>
        <time>2020-08-19T10:05:37.000Z</time>
      </trkpt>
      <trkpt lat="42.63943319208920001983642578125" lon="-0.5512578226625919342041015625">
        <ele>893.20001220703125</ele>
        <time>2020-08-19T10:05:46.000Z</time>
      </trkpt>
      <trkpt lat="42.63965464197099208831787109375" lon="-0.551205687224864959716796875">
        <ele>893.5999755859375</ele>
        <time>2020-08-19T10:05:53.000Z</time>
      </trkpt>
      <trkpt lat="42.63972119428217411041259765625" lon="-0.551189593970775604248046875">
        <ele>894</ele>
        <time>2020-08-19T10:05:55.000Z</time>
      </trkpt>
      <trkpt lat="42.63995354063808917999267578125" lon="-0.55112580768764019012451171875">
        <ele>894.79998779296875</ele>
        <time>2020-08-19T10:06:02.000Z</time>
      </trkpt>
      <trkpt lat="42.64008320868015289306640625" lon="-0.55109077133238315582275390625">
        <ele>895</ele>
        <time>2020-08-19T10:06:06.000Z</time>
      </trkpt>
      <trkpt lat="42.6404387690126895904541015625" lon="-0.55101382546126842498779296875">
        <ele>895.5999755859375</ele>
        <time>2020-08-19T10:06:17.000Z</time>
      </trkpt>
      <trkpt lat="42.64053675346076488494873046875" lon="-0.55099287070333957672119140625">
        <ele>896</ele>
        <time>2020-08-19T10:06:20.000Z</time>
      </trkpt>
      <trkpt lat="42.64073724858462810516357421875" lon="-0.55096638388931751251220703125">
        <ele>896.5999755859375</ele>
        <time>2020-08-19T10:06:26.000Z</time>
      </trkpt>
      <trkpt lat="42.64107470400631427764892578125" lon="-0.5509342812001705169677734375">
        <ele>897</ele>
        <time>2020-08-19T10:06:36.000Z</time>
      </trkpt>
      <trkpt lat="42.64110856689512729644775390625" lon="-0.550931431353092193603515625">
        <ele>897.20001220703125</ele>
        <time>2020-08-19T10:06:37.000Z</time>
      </trkpt>
      <trkpt lat="42.6414150930941104888916015625" lon="-0.55090620182454586029052734375">
        <ele>897.79998779296875</ele>
        <time>2020-08-19T10:06:46.000Z</time>
      </trkpt>
      <trkpt lat="42.6415813900530338287353515625" lon="-0.5509000830352306365966796875">
        <ele>898.20001220703125</ele>
        <time>2020-08-19T10:06:51.000Z</time>
      </trkpt>
      <trkpt lat="42.641825638711452484130859375" lon="-0.55089983157813549041748046875">
        <ele>898.4000244140625</ele>
        <time>2020-08-19T10:06:58.000Z</time>
      </trkpt>
      <trkpt lat="42.64216921292245388031005859375" lon="-0.55090905167162418365478515625">
        <ele>899.4000244140625</ele>
        <time>2020-08-19T10:07:08.000Z</time>
      </trkpt>
      <trkpt lat="42.64223827980458736419677734375" lon="-0.55091299116611480712890625">
        <ele>899.4000244140625</ele>
        <time>2020-08-19T10:07:10.000Z</time>
      </trkpt>
      <trkpt lat="42.64260926283895969390869140625" lon="-0.5509262345731258392333984375">
        <ele>900.4000244140625</ele>
        <time>2020-08-19T10:07:21.000Z</time>
      </trkpt>
      <trkpt lat="42.6427102647721767425537109375" lon="-0.5509362928569316864013671875">
        <ele>900.5999755859375</ele>
        <time>2020-08-19T10:07:24.000Z</time>
      </trkpt>
      <trkpt lat="42.6428373344242572784423828125" lon="-0.55093302391469478607177734375">
        <ele>901.20001220703125</ele>
        <time>2020-08-19T10:07:28.000Z</time>
      </trkpt>
      <trkpt lat="42.64295795001089572906494140625" lon="-0.550922043621540069580078125">
        <ele>901.5999755859375</ele>
        <time>2020-08-19T10:07:32.000Z</time>
      </trkpt>
      <trkpt lat="42.64311066828668117523193359375" lon="-0.55091475136578083038330078125">
        <ele>902.5999755859375</ele>
        <time>2020-08-19T10:07:37.000Z</time>
      </trkpt>
      <trkpt lat="42.64337293803691864013671875" lon="-0.55092615075409412384033203125">
        <ele>903.5999755859375</ele>
        <time>2020-08-19T10:07:46.000Z</time>
      </trkpt>
      <trkpt lat="42.64340101741254329681396484375" lon="-0.55092480964958667755126953125">
        <ele>903.79998779296875</ele>
        <time>2020-08-19T10:07:47.000Z</time>
      </trkpt>
      <trkpt lat="42.643483243882656097412109375" lon="-0.55091793648898601531982421875">
        <ele>904</ele>
        <time>2020-08-19T10:07:50.000Z</time>
      </trkpt>
      <trkpt lat="42.64356245286762714385986328125" lon="-0.550922714173793792724609375">
        <ele>904.79998779296875</ele>
        <time>2020-08-19T10:07:53.000Z</time>
      </trkpt>
      <trkpt lat="42.64364023692905902862548828125" lon="-0.55091994814574718475341796875">
        <ele>905.20001220703125</ele>
        <time>2020-08-19T10:07:56.000Z</time>
      </trkpt>
      <trkpt lat="42.64374165795743465423583984375" lon="-0.5509191937744617462158203125">
        <ele>906</ele>
        <time>2020-08-19T10:08:00.000Z</time>
      </trkpt>
      <trkpt lat="42.64389454387128353118896484375" lon="-0.5509326048195362091064453125">
        <ele>907.20001220703125</ele>
        <time>2020-08-19T10:08:06.000Z</time>
      </trkpt>
      <trkpt lat="42.64397366903722286224365234375" lon="-0.5509423278272151947021484375">
        <ele>907.5999755859375</ele>
        <time>2020-08-19T10:08:09.000Z</time>
      </trkpt>
      <trkpt lat="42.64407827518880367279052734375" lon="-0.5509550683200359344482421875">
        <ele>908.4000244140625</ele>
        <time>2020-08-19T10:08:13.000Z</time>
      </trkpt>
      <trkpt lat="42.64424306340515613555908203125" lon="-0.55098247714340686798095703125">
        <ele>909.4000244140625</ele>
        <time>2020-08-19T10:08:19.000Z</time>
      </trkpt>
      <trkpt lat="42.644462250173091888427734375" lon="-0.55104886181652545928955078125">
        <ele>910.79998779296875</ele>
        <time>2020-08-19T10:08:27.000Z</time>
      </trkpt>
      <trkpt lat="42.644516564905643463134765625" lon="-0.551067888736724853515625">
        <ele>911.20001220703125</ele>
        <time>2020-08-19T10:08:29.000Z</time>
      </trkpt>
      <trkpt lat="42.6446776650846004486083984375" lon="-0.551123209297657012939453125">
        <ele>911.79998779296875</ele>
        <time>2020-08-19T10:08:35.000Z</time>
      </trkpt>
      <trkpt lat="42.64475570060312747955322265625" lon="-0.55114977993071079254150390625">
        <ele>912.5999755859375</ele>
        <time>2020-08-19T10:08:38.000Z</time>
      </trkpt>
      <trkpt lat="42.64480632729828357696533203125" lon="-0.55116989649832248687744140625">
        <ele>913</ele>
        <time>2020-08-19T10:08:40.000Z</time>
      </trkpt>
      <trkpt lat="42.6449767313897609710693359375" lon="-0.55124013684689998626708984375">
        <ele>914</ele>
        <time>2020-08-19T10:08:47.000Z</time>
      </trkpt>
      <trkpt lat="42.64518267475068569183349609375" lon="-0.5513356067240238189697265625">
        <ele>915</ele>
        <time>2020-08-19T10:08:55.000Z</time>
      </trkpt>
      <trkpt lat="42.6453857682645320892333984375" lon="-0.55144767276942729949951171875">
        <ele>916.20001220703125</ele>
        <time>2020-08-19T10:09:03.000Z</time>
      </trkpt>
      <trkpt lat="42.64548878185451030731201171875" lon="-0.5515099503099918365478515625">
        <ele>916.5999755859375</ele>
        <time>2020-08-19T10:09:07.000Z</time>
      </trkpt>
      <trkpt lat="42.64562104828655719757080078125" lon="-0.5515884049236774444580078125">
        <ele>917</ele>
        <time>2020-08-19T10:09:12.000Z</time>
      </trkpt>
      <trkpt lat="42.64578692615032196044921875" lon="-0.551691167056560516357421875">
        <ele>917.4000244140625</ele>
        <time>2020-08-19T10:09:18.000Z</time>
      </trkpt>
      <trkpt lat="42.64617475681006908416748046875" lon="-0.55193382315337657928466796875">
        <ele>918.20001220703125</ele>
        <time>2020-08-19T10:09:31.000Z</time>
      </trkpt>
      <trkpt lat="42.64629830606281757354736328125" lon="-0.55201361887156963348388671875">
        <ele>918.4000244140625</ele>
        <time>2020-08-19T10:09:35.000Z</time>
      </trkpt>
      <trkpt lat="42.64641917310655117034912109375" lon="-0.55210053920745849609375">
        <ele>918.79998779296875</ele>
        <time>2020-08-19T10:09:39.000Z</time>
      </trkpt>
      <trkpt lat="42.64671438373625278472900390625" lon="-0.5523236654698848724365234375">
        <ele>918.79998779296875</ele>
        <time>2020-08-19T10:09:48.000Z</time>
      </trkpt>
      <trkpt lat="42.64704949222505092620849609375" lon="-0.5526368133723735809326171875">
        <ele>918.4000244140625</ele>
        <time>2020-08-19T10:09:58.000Z</time>
      </trkpt>
      <trkpt lat="42.64737471006810665130615234375" lon="-0.55302548222243785858154296875">
        <ele>917.5999755859375</ele>
        <time>2020-08-19T10:10:07.000Z</time>
      </trkpt>
      <trkpt lat="42.6476208865642547607421875" lon="-0.5534508638083934783935546875">
        <ele>916.79998779296875</ele>
        <time>2020-08-19T10:10:14.000Z</time>
      </trkpt>
      <trkpt lat="42.64765282161533832550048828125" lon="-0.5535221099853515625">
        <ele>916.4000244140625</ele>
        <time>2020-08-19T10:10:15.000Z</time>
      </trkpt>
      <trkpt lat="42.64781735837459564208984375" lon="-0.55399443022906780242919921875">
        <ele>915.5999755859375</ele>
        <time>2020-08-19T10:10:21.000Z</time>
      </trkpt>
      <trkpt lat="42.64786823652684688568115234375" lon="-0.55416382849216461181640625">
        <ele>915.4000244140625</ele>
        <time>2020-08-19T10:10:23.000Z</time>
      </trkpt>
      <trkpt lat="42.64803327620029449462890625" lon="-0.55474494583904743194580078125">
        <ele>914.20001220703125</ele>
        <time>2020-08-19T10:10:30.000Z</time>
      </trkpt>
      <trkpt lat="42.64808029867708683013916015625" lon="-0.5549016036093235015869140625">
        <ele>914.20001220703125</ele>
        <time>2020-08-19T10:10:32.000Z</time>
      </trkpt>
      <trkpt lat="42.6482879184186458587646484375" lon="-0.5554561503231525421142578125">
        <ele>913.4000244140625</ele>
        <time>2020-08-19T10:10:40.000Z</time>
      </trkpt>
      <trkpt lat="42.64847491867840290069580078125" lon="-0.55579419247806072235107421875">
        <ele>913.5999755859375</ele>
        <time>2020-08-19T10:10:47.000Z</time>
      </trkpt>
      <trkpt lat="42.6487673632800579071044921875" lon="-0.55622317828238010406494140625">
        <ele>915</ele>
        <time>2020-08-19T10:10:59.000Z</time>
      </trkpt>
      <trkpt lat="42.6489137113094329833984375" lon="-0.5564056523144245147705078125">
        <ele>915.5999755859375</ele>
        <time>2020-08-19T10:11:05.000Z</time>
      </trkpt>
      <trkpt lat="42.649009935557842254638671875" lon="-0.55652425624430179595947265625">
        <ele>916</ele>
        <time>2020-08-19T10:11:09.000Z</time>
      </trkpt>
      <trkpt lat="42.64922744594514369964599609375" lon="-0.5568039603531360626220703125">
        <ele>916.79998779296875</ele>
        <time>2020-08-19T10:11:18.000Z</time>
      </trkpt>
      <trkpt lat="42.64927455224096775054931640625" lon="-0.556874535977840423583984375">
        <ele>917</ele>
        <time>2020-08-19T10:11:20.000Z</time>
      </trkpt>
      <trkpt lat="42.64947253279387950897216796875" lon="-0.55712691508233547210693359375">
        <ele>917.5999755859375</ele>
        <time>2020-08-19T10:11:28.000Z</time>
      </trkpt>
      <trkpt lat="42.64952114783227443695068359375" lon="-0.557189695537090301513671875">
        <ele>917.79998779296875</ele>
        <time>2020-08-19T10:11:30.000Z</time>
      </trkpt>
      <trkpt lat="42.64971460215747356414794921875" lon="-0.5574287474155426025390625">
        <ele>918.20001220703125</ele>
        <time>2020-08-19T10:11:38.000Z</time>
      </trkpt>
      <trkpt lat="42.6498385705053806304931640625" lon="-0.557561852037906646728515625">
        <ele>919</ele>
        <time>2020-08-19T10:11:43.000Z</time>
      </trkpt>
      <trkpt lat="42.6499609462916851043701171875" lon="-0.55768481455743312835693359375">
        <ele>919</ele>
        <time>2020-08-19T10:11:48.000Z</time>
      </trkpt>
      <trkpt lat="42.65010570175945758819580078125" lon="-0.55783702991902828216552734375">
        <ele>919.4000244140625</ele>
        <time>2020-08-19T10:11:56.000Z</time>
      </trkpt>
      <trkpt lat="42.6501580886542797088623046875" lon="-0.557934679090976715087890625">
        <ele>919.4000244140625</ele>
        <time>2020-08-19T10:12:01.000Z</time>
      </trkpt>
      <trkpt lat="42.65013034455478191375732421875" lon="-0.5581234395503997802734375">
        <ele>919.79998779296875</ele>
        <time>2020-08-19T10:12:07.000Z</time>
      </trkpt>
      <trkpt lat="42.65013939701020717620849609375" lon="-0.55820918641984462738037109375">
        <ele>920.20001220703125</ele>
        <time>2020-08-19T10:12:10.000Z</time>
      </trkpt>
      <trkpt lat="42.65017091296613216400146484375" lon="-0.55828143842518329620361328125">
        <ele>920.79998779296875</ele>
        <time>2020-08-19T10:12:13.000Z</time>
      </trkpt>
      <trkpt lat="42.65019505284726619720458984375" lon="-0.55831915698945522308349609375">
        <ele>921.4000244140625</ele>
        <time>2020-08-19T10:12:15.000Z</time>
      </trkpt>
      <trkpt lat="42.65023997984826564788818359375" lon="-0.55839191190898418426513671875">
        <ele>922.4000244140625</ele>
        <time>2020-08-19T10:12:19.000Z</time>
      </trkpt>
      <trkpt lat="42.65029412694275379180908203125" lon="-0.558509342372417449951171875">
        <ele>923.5999755859375</ele>
        <time>2020-08-19T10:12:25.000Z</time>
      </trkpt>
      <trkpt lat="42.65030401758849620819091796875" lon="-0.5585282854735851287841796875">
        <ele>924</ele>
        <time>2020-08-19T10:12:26.000Z</time>
      </trkpt>
      <trkpt lat="42.6503210328519344329833984375" lon="-0.558590479195117950439453125">
        <ele>924.5999755859375</ele>
        <time>2020-08-19T10:12:29.000Z</time>
      </trkpt>
      <trkpt lat="42.65033863484859466552734375" lon="-0.55865325964987277984619140625">
        <ele>925.4000244140625</ele>
        <time>2020-08-19T10:12:32.000Z</time>
      </trkpt>
      <trkpt lat="42.65034735202789306640625" lon="-0.5586724542081356048583984375">
        <ele>925.79998779296875</ele>
        <time>2020-08-19T10:12:33.000Z</time>
      </trkpt>
      <trkpt lat="42.65039772726595401763916015625" lon="-0.55876255966722965240478515625">
        <ele>926.79998779296875</ele>
        <time>2020-08-19T10:12:38.000Z</time>
      </trkpt>
      <trkpt lat="42.65040812082588672637939453125" lon="-0.558781586587429046630859375">
        <ele>927</ele>
        <time>2020-08-19T10:12:39.000Z</time>
      </trkpt>
      <trkpt lat="42.65045405365526676177978515625" lon="-0.5588773079216480255126953125">
        <ele>927.79998779296875</ele>
        <time>2020-08-19T10:12:44.000Z</time>
      </trkpt>
      <trkpt lat="42.65049411915242671966552734375" lon="-0.5589450336992740631103515625">
        <ele>928.79998779296875</ele>
        <time>2020-08-19T10:12:48.000Z</time>
      </trkpt>
      <trkpt lat="42.65054692514240741729736328125" lon="-0.55905441753566265106201171875">
        <ele>929.79998779296875</ele>
        <time>2020-08-19T10:12:54.000Z</time>
      </trkpt>
      <trkpt lat="42.6505805365741252899169921875" lon="-0.55910311639308929443359375">
        <ele>930.5999755859375</ele>
        <time>2020-08-19T10:12:57.000Z</time>
      </trkpt>
      <trkpt lat="42.6505993120372295379638671875" lon="-0.559139661490917205810546875">
        <ele>931</ele>
        <time>2020-08-19T10:12:59.000Z</time>
      </trkpt>
      <trkpt lat="42.65064842998981475830078125" lon="-0.559232532978057861328125">
        <ele>932.20001220703125</ele>
        <time>2020-08-19T10:13:04.000Z</time>
      </trkpt>
      <trkpt lat="42.65065848827362060546875" lon="-0.55925105698406696319580078125">
        <ele>932.4000244140625</ele>
        <time>2020-08-19T10:13:05.000Z</time>
      </trkpt>
      <trkpt lat="42.6507159881293773651123046875" lon="-0.55934443138539791107177734375">
        <ele>933.20001220703125</ele>
        <time>2020-08-19T10:13:10.000Z</time>
      </trkpt>
      <trkpt lat="42.65076376497745513916015625" lon="-0.559444762766361236572265625">
        <ele>933.79998779296875</ele>
        <time>2020-08-19T10:13:15.000Z</time>
      </trkpt>
      <trkpt lat="42.65078111551702022552490234375" lon="-0.55948390625417232513427734375">
        <ele>934.4000244140625</ele>
        <time>2020-08-19T10:13:17.000Z</time>
      </trkpt>
      <trkpt lat="42.65083090402185916900634765625" lon="-0.55960200726985931396484375">
        <ele>935.4000244140625</ele>
        <time>2020-08-19T10:13:23.000Z</time>
      </trkpt>
      <trkpt lat="42.6508487574756145477294921875" lon="-0.559636540710926055908203125">
        <ele>936</ele>
        <time>2020-08-19T10:13:25.000Z</time>
      </trkpt>
      <trkpt lat="42.6508782617747783660888671875" lon="-0.5597201921045780181884765625">
        <ele>936.79998779296875</ele>
        <time>2020-08-19T10:13:29.000Z</time>
      </trkpt>
      <trkpt lat="42.6508725620806217193603515625" lon="-0.5597691424190998077392578125">
        <ele>937.20001220703125</ele>
        <time>2020-08-19T10:13:31.000Z</time>
      </trkpt>
      <trkpt lat="42.6508618332445621490478515625" lon="-0.559859834611415863037109375">
        <ele>937.79998779296875</ele>
        <time>2020-08-19T10:13:35.000Z</time>
      </trkpt>
      <trkpt lat="42.6508386991918087005615234375" lon="-0.55995815433561801910400390625">
        <ele>939.20001220703125</ele>
        <time>2020-08-19T10:13:40.000Z</time>
      </trkpt>
      <trkpt lat="42.65082973055541515350341796875" lon="-0.56004381738603115081787109375">
        <ele>940.20001220703125</ele>
        <time>2020-08-19T10:13:44.000Z</time>
      </trkpt>
      <trkpt lat="42.65083492733538150787353515625" lon="-0.5601057596504688262939453125">
        <ele>940.79998779296875</ele>
        <time>2020-08-19T10:13:47.000Z</time>
      </trkpt>
      <trkpt lat="42.650854289531707763671875" lon="-0.56016803719103336334228515625">
        <ele>941.20001220703125</ele>
        <time>2020-08-19T10:13:50.000Z</time>
      </trkpt>
      <trkpt lat="42.6508940197527408599853515625" lon="-0.56022218428552150726318359375">
        <ele>941.5999755859375</ele>
        <time>2020-08-19T10:13:53.000Z</time>
      </trkpt>
      <trkpt lat="42.650938443839550018310546875" lon="-0.56026258505880832672119140625">
        <ele>942.4000244140625</ele>
        <time>2020-08-19T10:13:56.000Z</time>
      </trkpt>
      <trkpt lat="42.65100105665624141693115234375" lon="-0.56030516512691974639892578125">
        <ele>943.20001220703125</ele>
        <time>2020-08-19T10:14:00.000Z</time>
      </trkpt>
      <trkpt lat="42.6510334946215152740478515625" lon="-0.56032486259937286376953125">
        <ele>943.5999755859375</ele>
        <time>2020-08-19T10:14:02.000Z</time>
      </trkpt>
      <trkpt lat="42.65110985375940799713134765625" lon="-0.56037993170320987701416015625">
        <ele>944.5999755859375</ele>
        <time>2020-08-19T10:14:07.000Z</time>
      </trkpt>
      <trkpt lat="42.6511384360492229461669921875" lon="-0.560404323041439056396484375">
        <ele>944.79998779296875</ele>
        <time>2020-08-19T10:14:09.000Z</time>
      </trkpt>
      <trkpt lat="42.65121496282517910003662109375" lon="-0.560445897281169891357421875">
        <ele>945.5999755859375</ele>
        <time>2020-08-19T10:14:14.000Z</time>
      </trkpt>
      <trkpt lat="42.6512323133647441864013671875" lon="-0.560452938079833984375">
        <ele>945.79998779296875</ele>
        <time>2020-08-19T10:14:15.000Z</time>
      </trkpt>
      <trkpt lat="42.65132677741348743438720703125" lon="-0.56052259169518947601318359375">
        <ele>946.5999755859375</ele>
        <time>2020-08-19T10:14:21.000Z</time>
      </trkpt>
      <trkpt lat="42.6513436250388622283935546875" lon="-0.5605302192270755767822265625">
        <ele>946.79998779296875</ele>
        <time>2020-08-19T10:14:22.000Z</time>
      </trkpt>
      <trkpt lat="42.65142451040446758270263671875" lon="-0.56058503687381744384765625">
        <ele>947.5999755859375</ele>
        <time>2020-08-19T10:14:28.000Z</time>
      </trkpt>
      <trkpt lat="42.6514256000518798828125" lon="-0.56058545596897602081298828125">
        <ele>947.79998779296875</ele>
        <time>2020-08-19T10:14:29.000Z</time>
      </trkpt>
      <trkpt lat="42.6514269411563873291015625" lon="-0.5605855397880077362060546875">
        <ele>947.79998779296875</ele>
        <time>2020-08-19T10:14:31.000Z</time>
      </trkpt>
      <trkpt lat="42.6514247618615627288818359375" lon="-0.56060205213725566864013671875">
        <ele>948.79998779296875</ele>
        <time>2020-08-19T10:17:21.000Z</time>
      </trkpt>
      <trkpt lat="42.65144638717174530029296875" lon="-0.56060942821204662322998046875">
        <ele>948.5999755859375</ele>
        <time>2020-08-19T10:17:25.000Z</time>
      </trkpt>
      <trkpt lat="42.65150941908359527587890625" lon="-0.56067212484776973724365234375">
        <ele>948.79998779296875</ele>
        <time>2020-08-19T10:17:30.000Z</time>
      </trkpt>
      <trkpt lat="42.65152492560446262359619140625" lon="-0.5606847815215587615966796875">
        <ele>949</ele>
        <time>2020-08-19T10:17:31.000Z</time>
      </trkpt>
      <trkpt lat="42.65155577100813388824462890625" lon="-0.5607092566788196563720703125">
        <ele>949.4000244140625</ele>
        <time>2020-08-19T10:17:33.000Z</time>
      </trkpt>
      <trkpt lat="42.65163414180278778076171875" lon="-0.56077589280903339385986328125">
        <ele>949.79998779296875</ele>
        <time>2020-08-19T10:17:38.000Z</time>
      </trkpt>
      <trkpt lat="42.65173212625086307525634765625" lon="-0.5608400143682956695556640625">
        <ele>950.79998779296875</ele>
        <time>2020-08-19T10:17:44.000Z</time>
      </trkpt>
      <trkpt lat="42.65180069021880626678466796875" lon="-0.5608738772571086883544921875">
        <ele>951.5999755859375</ele>
        <time>2020-08-19T10:17:48.000Z</time>
      </trkpt>
      <trkpt lat="42.65183522365987300872802734375" lon="-0.560888461768627166748046875">
        <ele>952</ele>
        <time>2020-08-19T10:17:50.000Z</time>
      </trkpt>
      <trkpt lat="42.65195223502814769744873046875" lon="-0.56094353087246417999267578125">
        <ele>953</ele>
        <time>2020-08-19T10:17:57.000Z</time>
      </trkpt>
      <trkpt lat="42.65198593027889728546142578125" lon="-0.56095727719366550445556640625">
        <ele>953</ele>
        <time>2020-08-19T10:17:59.000Z</time>
      </trkpt>
      <trkpt lat="42.65207243151962757110595703125" lon="-0.56099214591085910797119140625">
        <ele>953.79998779296875</ele>
        <time>2020-08-19T10:18:04.000Z</time>
      </trkpt>
      <trkpt lat="42.652125321328639984130859375" lon="-0.5610153637826442718505859375">
        <ele>954</ele>
        <time>2020-08-19T10:18:07.000Z</time>
      </trkpt>
      <trkpt lat="42.65221358276903629302978515625" lon="-0.5610524117946624755859375">
        <ele>954.79998779296875</ele>
        <time>2020-08-19T10:18:12.000Z</time>
      </trkpt>
      <trkpt lat="42.65226622112095355987548828125" lon="-0.56107495911419391632080078125">
        <ele>955.20001220703125</ele>
        <time>2020-08-19T10:18:15.000Z</time>
      </trkpt>
      <trkpt lat="42.6523514650762081146240234375" lon="-0.56112273596227169036865234375">
        <ele>956.20001220703125</ele>
        <time>2020-08-19T10:18:20.000Z</time>
      </trkpt>
      <trkpt lat="42.652367390692234039306640625" lon="-0.56113530881702899932861328125">
        <ele>956.4000244140625</ele>
        <time>2020-08-19T10:18:21.000Z</time>
      </trkpt>
      <trkpt lat="42.6524906046688556671142578125" lon="-0.56119314394891262054443359375">
        <ele>957.20001220703125</ele>
        <time>2020-08-19T10:18:28.000Z</time>
      </trkpt>
      <trkpt lat="42.65250829048454761505126953125" lon="-0.5612001009285449981689453125">
        <ele>957.4000244140625</ele>
        <time>2020-08-19T10:18:29.000Z</time>
      </trkpt>
      <trkpt lat="42.6526149921119213104248046875" lon="-0.5612468719482421875">
        <ele>958.5999755859375</ele>
        <time>2020-08-19T10:18:35.000Z</time>
      </trkpt>
      <trkpt lat="42.65264726243913173675537109375" lon="-0.56127159856259822845458984375">
        <ele>958.79998779296875</ele>
        <time>2020-08-19T10:18:37.000Z</time>
      </trkpt>
      <trkpt lat="42.6527519524097442626953125" lon="-0.561322309076786041259765625">
        <ele>959.5999755859375</ele>
        <time>2020-08-19T10:18:43.000Z</time>
      </trkpt>
      <trkpt lat="42.6527688838541507720947265625" lon="-0.56133580394089221954345703125">
        <ele>959.79998779296875</ele>
        <time>2020-08-19T10:18:44.000Z</time>
      </trkpt>
      <trkpt lat="42.65285831876099109649658203125" lon="-0.56138299405574798583984375">
        <ele>960.79998779296875</ele>
        <time>2020-08-19T10:18:49.000Z</time>
      </trkpt>
      <trkpt lat="42.65289301984012126922607421875" lon="-0.56140244007110595703125">
        <ele>961.20001220703125</ele>
        <time>2020-08-19T10:18:51.000Z</time>
      </trkpt>
      <trkpt lat="42.65296359546482563018798828125" lon="-0.5614381469786167144775390625">
        <ele>961.79998779296875</ele>
        <time>2020-08-19T10:18:55.000Z</time>
      </trkpt>
      <trkpt lat="42.6530508510768413543701171875" lon="-0.56148081086575984954833984375">
        <ele>963.20001220703125</ele>
        <time>2020-08-19T10:19:00.000Z</time>
      </trkpt>
      <trkpt lat="42.6531738974153995513916015625" lon="-0.56155356578528881072998046875">
        <ele>964.4000244140625</ele>
        <time>2020-08-19T10:19:07.000Z</time>
      </trkpt>
      <trkpt lat="42.65319116413593292236328125" lon="-0.56156345643103122711181640625">
        <ele>964.4000244140625</ele>
        <time>2020-08-19T10:19:08.000Z</time>
      </trkpt>
      <trkpt lat="42.65327540226280689239501953125" lon="-0.5616185255348682403564453125">
        <ele>965.4000244140625</ele>
        <time>2020-08-19T10:19:13.000Z</time>
      </trkpt>
      <trkpt lat="42.65335754491388797760009765625" lon="-0.56167895905673503875732421875">
        <ele>966.20001220703125</ele>
        <time>2020-08-19T10:19:18.000Z</time>
      </trkpt>
      <trkpt lat="42.6534129492938518524169921875" lon="-0.56169547140598297119140625">
        <ele>966.79998779296875</ele>
        <time>2020-08-19T10:19:21.000Z</time>
      </trkpt>
      <trkpt lat="42.65348075889050960540771484375" lon="-0.561736039817333221435546875">
        <ele>967.4000244140625</ele>
        <time>2020-08-19T10:19:25.000Z</time>
      </trkpt>
      <trkpt lat="42.65353306196630001068115234375" lon="-0.561764873564243316650390625">
        <ele>967.79998779296875</ele>
        <time>2020-08-19T10:19:28.000Z</time>
      </trkpt>
      <trkpt lat="42.653624676167964935302734375" lon="-0.561802089214324951171875">
        <ele>968.79998779296875</ele>
        <time>2020-08-19T10:19:33.000Z</time>
      </trkpt>
      <trkpt lat="42.6537301205098628997802734375" lon="-0.561852715909481048583984375">
        <ele>970.20001220703125</ele>
        <time>2020-08-19T10:19:39.000Z</time>
      </trkpt>
      <trkpt lat="42.65382039360702037811279296875" lon="-0.56188062764704227447509765625">
        <ele>971</ele>
        <time>2020-08-19T10:19:44.000Z</time>
      </trkpt>
      <trkpt lat="42.6538390852510929107666015625" lon="-0.56188599206507205963134765625">
        <ele>971.20001220703125</ele>
        <time>2020-08-19T10:19:45.000Z</time>
      </trkpt>
      <trkpt lat="42.65396422706544399261474609375" lon="-0.56193578056991100311279296875">
        <ele>972.5999755859375</ele>
        <time>2020-08-19T10:19:52.000Z</time>
      </trkpt>
      <trkpt lat="42.65399943105876445770263671875" lon="-0.561952292919158935546875">
        <ele>973</ele>
        <time>2020-08-19T10:19:54.000Z</time>
      </trkpt>
      <trkpt lat="42.65405240468680858612060546875" lon="-0.561969392001628875732421875">
        <ele>973.5999755859375</ele>
        <time>2020-08-19T10:19:57.000Z</time>
      </trkpt>
      <trkpt lat="42.654151730239391326904296875" lon="-0.562035106122493743896484375">
        <ele>974.5999755859375</ele>
        <time>2020-08-19T10:20:03.000Z</time>
      </trkpt>
      <trkpt lat="42.6541673205792903900146484375" lon="-0.5620493553578853607177734375">
        <ele>974.79998779296875</ele>
        <time>2020-08-19T10:20:04.000Z</time>
      </trkpt>
      <trkpt lat="42.65425826422870159149169921875" lon="-0.56214113719761371612548828125">
        <ele>975.79998779296875</ele>
        <time>2020-08-19T10:20:10.000Z</time>
      </trkpt>
      <trkpt lat="42.6542896963655948638916015625" lon="-0.56216678582131862640380859375">
        <ele>976</ele>
        <time>2020-08-19T10:20:12.000Z</time>
      </trkpt>
      <trkpt lat="42.65435012988746166229248046875" lon="-0.56222512386739253997802734375">
        <ele>977</ele>
        <time>2020-08-19T10:20:16.000Z</time>
      </trkpt>
      <trkpt lat="42.6544238068163394927978515625" lon="-0.5623024888336658477783203125">
        <ele>978.20001220703125</ele>
        <time>2020-08-19T10:20:21.000Z</time>
      </trkpt>
      <trkpt lat="42.65452153980731964111328125" lon="-0.56238169781863689422607421875">
        <ele>979.20001220703125</ele>
        <time>2020-08-19T10:20:27.000Z</time>
      </trkpt>
      <trkpt lat="42.65462153591215610504150390625" lon="-0.562441460788249969482421875">
        <ele>980.20001220703125</ele>
        <time>2020-08-19T10:20:33.000Z</time>
      </trkpt>
      <trkpt lat="42.65467199496924877166748046875" lon="-0.562468953430652618408203125">
        <ele>981</ele>
        <time>2020-08-19T10:20:36.000Z</time>
      </trkpt>
      <trkpt lat="42.6547061093151569366455078125" lon="-0.5624801851809024810791015625">
        <ele>981.4000244140625</ele>
        <time>2020-08-19T10:20:38.000Z</time>
      </trkpt>
      <trkpt lat="42.654808200895786285400390625" lon="-0.5625321529805660247802734375">
        <ele>982.20001220703125</ele>
        <time>2020-08-19T10:20:44.000Z</time>
      </trkpt>
      <trkpt lat="42.65482605434954166412353515625" lon="-0.56253726594150066375732421875">
        <ele>982.4000244140625</ele>
        <time>2020-08-19T10:20:45.000Z</time>
      </trkpt>
      <trkpt lat="42.65489227138459682464599609375" lon="-0.56257314048707485198974609375">
        <ele>983.4000244140625</ele>
        <time>2020-08-19T10:20:49.000Z</time>
      </trkpt>
      <trkpt lat="42.6549424789845943450927734375" lon="-0.562599040567874908447265625">
        <ele>984.20001220703125</ele>
        <time>2020-08-19T10:20:52.000Z</time>
      </trkpt>
      <trkpt lat="42.65497826971113681793212890625" lon="-0.56260365061461925506591796875">
        <ele>984.5999755859375</ele>
        <time>2020-08-19T10:20:54.000Z</time>
      </trkpt>
      <trkpt lat="42.6550661958754062652587890625" lon="-0.56263265199959278106689453125">
        <ele>985.5999755859375</ele>
        <time>2020-08-19T10:20:59.000Z</time>
      </trkpt>
      <trkpt lat="42.655083797872066497802734375" lon="-0.562641285359859466552734375">
        <ele>985.79998779296875</ele>
        <time>2020-08-19T10:21:00.000Z</time>
      </trkpt>
      <trkpt lat="42.6551530323922634124755859375" lon="-0.56267523206770420074462890625">
        <ele>986.79998779296875</ele>
        <time>2020-08-19T10:21:04.000Z</time>
      </trkpt>
      <trkpt lat="42.655254118144512176513671875" lon="-0.5627346597611904144287109375">
        <ele>987.79998779296875</ele>
        <time>2020-08-19T10:21:10.000Z</time>
      </trkpt>
      <trkpt lat="42.655306756496429443359375" lon="-0.5627517588436603546142578125">
        <ele>988.4000244140625</ele>
        <time>2020-08-19T10:21:13.000Z</time>
      </trkpt>
      <trkpt lat="42.65534154139459133148193359375" lon="-0.5627655051648616790771484375">
        <ele>988.79998779296875</ele>
        <time>2020-08-19T10:21:15.000Z</time>
      </trkpt>
      <trkpt lat="42.65542804263532161712646484375" lon="-0.562795512378215789794921875">
        <ele>989.79998779296875</ele>
        <time>2020-08-19T10:21:20.000Z</time>
      </trkpt>
      <trkpt lat="42.65554773621261119842529296875" lon="-0.562853515148162841796875">
        <ele>991</ele>
        <time>2020-08-19T10:21:27.000Z</time>
      </trkpt>
      <trkpt lat="42.65556466765701770782470703125" lon="-0.5628629028797149658203125">
        <ele>991.20001220703125</ele>
        <time>2020-08-19T10:21:28.000Z</time>
      </trkpt>
      <trkpt lat="42.65563490800559520721435546875" lon="-0.56288905441761016845703125">
        <ele>992</ele>
        <time>2020-08-19T10:21:32.000Z</time>
      </trkpt>
      <trkpt lat="42.6557025499641895294189453125" lon="-0.56291730143129825592041015625">
        <ele>992.79998779296875</ele>
        <time>2020-08-19T10:21:36.000Z</time>
      </trkpt>
      <trkpt lat="42.655736245214939117431640625" lon="-0.56293331086635589599609375">
        <ele>993.20001220703125</ele>
        <time>2020-08-19T10:21:38.000Z</time>
      </trkpt>
      <trkpt lat="42.65581947751343250274658203125" lon="-0.56297890841960906982421875">
        <ele>994.20001220703125</ele>
        <time>2020-08-19T10:21:43.000Z</time>
      </trkpt>
      <trkpt lat="42.65592257492244243621826171875" lon="-0.56301536969840526580810546875">
        <ele>995.20001220703125</ele>
        <time>2020-08-19T10:21:49.000Z</time>
      </trkpt>
      <trkpt lat="42.65593933872878551483154296875" lon="-0.56302660144865512847900390625">
        <ele>995.4000244140625</ele>
        <time>2020-08-19T10:21:50.000Z</time>
      </trkpt>
      <trkpt lat="42.65602734871208667755126953125" lon="-0.56305895559489727020263671875">
        <ele>996.5999755859375</ele>
        <time>2020-08-19T10:21:55.000Z</time>
      </trkpt>
      <trkpt lat="42.6560428552329540252685546875" lon="-0.5630689300596714019775390625">
        <ele>996.79998779296875</ele>
        <time>2020-08-19T10:21:56.000Z</time>
      </trkpt>
      <trkpt lat="42.65612550079822540283203125" lon="-0.56309885345399379730224609375">
        <ele>997.79998779296875</ele>
        <time>2020-08-19T10:22:01.000Z</time>
      </trkpt>
      <trkpt lat="42.65617621131241321563720703125" lon="-0.563124082982540130615234375">
        <ele>998.5999755859375</ele>
        <time>2020-08-19T10:22:04.000Z</time>
      </trkpt>
      <trkpt lat="42.65621040947735309600830078125" lon="-0.56314176879823207855224609375">
        <ele>998.79998779296875</ele>
        <time>2020-08-19T10:22:06.000Z</time>
      </trkpt>
      <trkpt lat="42.656293809413909912109375" lon="-0.56317579932510852813720703125">
        <ele>1000</ele>
        <time>2020-08-19T10:22:11.000Z</time>
      </trkpt>
      <trkpt lat="42.65639112330973148345947265625" lon="-0.5632301978766918182373046875">
        <ele>1001.20001220703125</ele>
        <time>2020-08-19T10:22:17.000Z</time>
      </trkpt>
      <trkpt lat="42.65642481856048107147216796875" lon="-0.56324536912143230438232421875">
        <ele>1001.4000244140625</ele>
        <time>2020-08-19T10:22:19.000Z</time>
      </trkpt>
      <trkpt lat="42.6564820669591426849365234375" lon="-0.5632985942065715789794921875">
        <ele>1002.20001220703125</ele>
        <time>2020-08-19T10:22:23.000Z</time>
      </trkpt>
      <trkpt lat="42.65651643276214599609375" lon="-0.56331225670874118804931640625">
        <ele>1002.5999755859375</ele>
        <time>2020-08-19T10:22:25.000Z</time>
      </trkpt>
      <trkpt lat="42.6565326936542987823486328125" lon="-0.56332491338253021240234375">
        <ele>1002.5999755859375</ele>
        <time>2020-08-19T10:22:26.000Z</time>
      </trkpt>
      <trkpt lat="42.65656311996281147003173828125" lon="-0.56335969828069210052490234375">
        <ele>1003.20001220703125</ele>
        <time>2020-08-19T10:22:28.000Z</time>
      </trkpt>
      <trkpt lat="42.65657879412174224853515625" lon="-0.5633752048015594482421875">
        <ele>1003.4000244140625</ele>
        <time>2020-08-19T10:22:29.000Z</time>
      </trkpt>
      <trkpt lat="42.65660972334444522857666015625" lon="-0.56340479291975498199462890625">
        <ele>1003.5999755859375</ele>
        <time>2020-08-19T10:22:31.000Z</time>
      </trkpt>
      <trkpt lat="42.65670846216380596160888671875" lon="-0.5635259114205837249755859375">
        <ele>1004.4000244140625</ele>
        <time>2020-08-19T10:22:38.000Z</time>
      </trkpt>
      <trkpt lat="42.65672237612307071685791015625" lon="-0.563543178141117095947265625">
        <ele>1004.5999755859375</ele>
        <time>2020-08-19T10:22:39.000Z</time>
      </trkpt>
      <trkpt lat="42.65680787153542041778564453125" lon="-0.56368072517216205596923828125">
        <ele>1005.5999755859375</ele>
        <time>2020-08-19T10:22:46.000Z</time>
      </trkpt>
      <trkpt lat="42.65682698227465152740478515625" lon="-0.56372531689703464508056640625">
        <ele>1005.79998779296875</ele>
        <time>2020-08-19T10:22:48.000Z</time>
      </trkpt>
      <trkpt lat="42.656887583434581756591796875" lon="-0.56383042596280574798583984375">
        <ele>1006.5999755859375</ele>
        <time>2020-08-19T10:22:53.000Z</time>
      </trkpt>
      <trkpt lat="42.6569335162639617919921875" lon="-0.5639196932315826416015625">
        <ele>1007</ele>
        <time>2020-08-19T10:22:57.000Z</time>
      </trkpt>
      <trkpt lat="42.65698858536779880523681640625" lon="-0.56403636932373046875">
        <ele>1007.79998779296875</ele>
        <time>2020-08-19T10:23:02.000Z</time>
      </trkpt>
      <trkpt lat="42.65703233890235424041748046875" lon="-0.5641280673444271087646484375">
        <ele>1008.79998779296875</ele>
        <time>2020-08-19T10:23:06.000Z</time>
      </trkpt>
      <trkpt lat="42.657039798796176910400390625" lon="-0.56415371596813201904296875">
        <ele>1009</ele>
        <time>2020-08-19T10:23:07.000Z</time>
      </trkpt>
      <trkpt lat="42.65706469304859638214111328125" lon="-0.56426368653774261474609375">
        <ele>1009.5999755859375</ele>
        <time>2020-08-19T10:23:11.000Z</time>
      </trkpt>
      <trkpt lat="42.6570614241063594818115234375" lon="-0.56448035873472690582275390625">
        <ele>1009.20001220703125</ele>
        <time>2020-08-19T10:23:18.000Z</time>
      </trkpt>
      <trkpt lat="42.656967379152774810791015625" lon="-0.5647325702011585235595703125">
        <ele>1009.5999755859375</ele>
        <time>2020-08-19T10:23:25.000Z</time>
      </trkpt>
      <trkpt lat="42.65676654875278472900390625" lon="-0.56506373919546604156494140625">
        <ele>1008.5999755859375</ele>
        <time>2020-08-19T10:23:32.000Z</time>
      </trkpt>
      <trkpt lat="42.656546942889690399169921875" lon="-0.56541678495705127716064453125">
        <ele>1008</ele>
        <time>2020-08-19T10:23:38.000Z</time>
      </trkpt>
      <trkpt lat="42.65646882355213165283203125" lon="-0.56554041802883148193359375">
        <ele>1007.5999755859375</ele>
        <time>2020-08-19T10:23:40.000Z</time>
      </trkpt>
      <trkpt lat="42.65631702728569507598876953125" lon="-0.56580821983516216278076171875">
        <ele>1006.79998779296875</ele>
        <time>2020-08-19T10:23:44.000Z</time>
      </trkpt>
      <trkpt lat="42.65620051883161067962646484375" lon="-0.5660064518451690673828125">
        <ele>1005.5999755859375</ele>
        <time>2020-08-19T10:23:47.000Z</time>
      </trkpt>
      <trkpt lat="42.65612340532243251800537109375" lon="-0.56614869274199008941650390625">
        <ele>1005.20001220703125</ele>
        <time>2020-08-19T10:23:49.000Z</time>
      </trkpt>
      <trkpt lat="42.65604008920490741729736328125" lon="-0.56629680097103118896484375">
        <ele>1004.5999755859375</ele>
        <time>2020-08-19T10:23:51.000Z</time>
      </trkpt>
      <trkpt lat="42.6558302901685237884521484375" lon="-0.5666097812354564666748046875">
        <ele>1003.5999755859375</ele>
        <time>2020-08-19T10:23:55.000Z</time>
      </trkpt>
      <trkpt lat="42.65570112504065036773681640625" lon="-0.56676526553928852081298828125">
        <ele>1002.5999755859375</ele>
        <time>2020-08-19T10:23:57.000Z</time>
      </trkpt>
      <trkpt lat="42.65562837012112140655517578125" lon="-0.5668270401656627655029296875">
        <ele>1002.20001220703125</ele>
        <time>2020-08-19T10:23:58.000Z</time>
      </trkpt>
      <trkpt lat="42.655551843345165252685546875" lon="-0.56686702184379100799560546875">
        <ele>1002</ele>
        <time>2020-08-19T10:23:59.000Z</time>
      </trkpt>
      <trkpt lat="42.65534690581262111663818359375" lon="-0.56684472598135471343994140625">
        <ele>1001.79998779296875</ele>
        <time>2020-08-19T10:24:02.000Z</time>
      </trkpt>
      <trkpt lat="42.65525436960160732269287109375" lon="-0.5667928420007228851318359375">
        <ele>1002.20001220703125</ele>
        <time>2020-08-19T10:24:04.000Z</time>
      </trkpt>
      <trkpt lat="42.65519150532782077789306640625" lon="-0.5667573027312755584716796875">
        <ele>1002.79998779296875</ele>
        <time>2020-08-19T10:24:06.000Z</time>
      </trkpt>
      <trkpt lat="42.6551168225705623626708984375" lon="-0.566735006868839263916015625">
        <ele>1003.5999755859375</ele>
        <time>2020-08-19T10:24:09.000Z</time>
      </trkpt>
      <trkpt lat="42.6550211012363433837890625" lon="-0.56671933270990848541259765625">
        <ele>1004.79998779296875</ele>
        <time>2020-08-19T10:24:13.000Z</time>
      </trkpt>
      <trkpt lat="42.65499738045036792755126953125" lon="-0.56671950034797191619873046875">
        <ele>1005</ele>
        <time>2020-08-19T10:24:14.000Z</time>
      </trkpt>
      <trkpt lat="42.654925882816314697265625" lon="-0.56672419421374797821044921875">
        <ele>1005.79998779296875</ele>
        <time>2020-08-19T10:24:17.000Z</time>
      </trkpt>
      <trkpt lat="42.6548358611762523651123046875" lon="-0.56673358194530010223388671875">
        <ele>1006.79998779296875</ele>
        <time>2020-08-19T10:24:21.000Z</time>
      </trkpt>
      <trkpt lat="42.654737792909145355224609375" lon="-0.56674447841942310333251953125">
        <ele>1008</ele>
        <time>2020-08-19T10:24:26.000Z</time>
      </trkpt>
      <trkpt lat="42.6547178439795970916748046875" lon="-0.56674866937100887298583984375">
        <ele>1008.20001220703125</ele>
        <time>2020-08-19T10:24:27.000Z</time>
      </trkpt>
      <trkpt lat="42.6546390540897846221923828125" lon="-0.5667619965970516204833984375">
        <ele>1009.4000244140625</ele>
        <time>2020-08-19T10:24:31.000Z</time>
      </trkpt>
      <trkpt lat="42.65451039187610149383544921875" lon="-0.56680130772292613983154296875">
        <ele>1010.5999755859375</ele>
        <time>2020-08-19T10:24:38.000Z</time>
      </trkpt>
      <trkpt lat="42.65440545044839382171630859375" lon="-0.5668431334197521209716796875">
        <ele>1011.79998779296875</ele>
        <time>2020-08-19T10:24:44.000Z</time>
      </trkpt>
      <trkpt lat="42.65437108464539051055908203125" lon="-0.56685796938836574554443359375">
        <ele>1012</ele>
        <time>2020-08-19T10:24:46.000Z</time>
      </trkpt>
      <trkpt lat="42.65430335886776447296142578125" lon="-0.56688915006816387176513671875">
        <ele>1012.79998779296875</ele>
        <time>2020-08-19T10:24:50.000Z</time>
      </trkpt>
      <trkpt lat="42.65425558201968669891357421875" lon="-0.56692016310989856719970703125">
        <ele>1013.20001220703125</ele>
        <time>2020-08-19T10:24:53.000Z</time>
      </trkpt>
      <trkpt lat="42.65420713461935520172119140625" lon="-0.56694447062909603118896484375">
        <ele>1013.79998779296875</ele>
        <time>2020-08-19T10:24:56.000Z</time>
      </trkpt>
      <trkpt lat="42.65409448184072971343994140625" lon="-0.56700264103710651397705078125">
        <ele>1015</ele>
        <time>2020-08-19T10:25:03.000Z</time>
      </trkpt>
      <trkpt lat="42.6540630497038364410400390625" lon="-0.5670208297669887542724609375">
        <ele>1015.4000244140625</ele>
        <time>2020-08-19T10:25:05.000Z</time>
      </trkpt>
      <trkpt lat="42.65400127507746219635009765625" lon="-0.5670593865215778350830078125">
        <ele>1016.20001220703125</ele>
        <time>2020-08-19T10:25:09.000Z</time>
      </trkpt>
      <trkpt lat="42.65395416878163814544677734375" lon="-0.56708646006882190704345703125">
        <ele>1016.5999755859375</ele>
        <time>2020-08-19T10:25:12.000Z</time>
      </trkpt>
      <trkpt lat="42.6538994349539279937744140625" lon="-0.56713691912591457366943359375">
        <ele>1017.4000244140625</ele>
        <time>2020-08-19T10:25:16.000Z</time>
      </trkpt>
      <trkpt lat="42.65384872443974018096923828125" lon="-0.56719860993325710296630859375">
        <ele>1018</ele>
        <time>2020-08-19T10:25:20.000Z</time>
      </trkpt>
      <trkpt lat="42.653810419142246246337890625" lon="-0.56724093854427337646484375">
        <ele>1018.5999755859375</ele>
        <time>2020-08-19T10:25:23.000Z</time>
      </trkpt>
      <trkpt lat="42.6537830941379070281982421875" lon="-0.567302294075489044189453125">
        <ele>1019</ele>
        <time>2020-08-19T10:25:26.000Z</time>
      </trkpt>
      <trkpt lat="42.653761804103851318359375" lon="-0.567341856658458709716796875">
        <ele>1019.5999755859375</ele>
        <time>2020-08-19T10:25:28.000Z</time>
      </trkpt>
      <trkpt lat="42.65371620655059814453125" lon="-0.56744872592389583587646484375">
        <ele>1020.5999755859375</ele>
        <time>2020-08-19T10:25:33.000Z</time>
      </trkpt>
      <trkpt lat="42.6537103392183780670166015625" lon="-0.5674721114337444305419921875">
        <ele>1020.5999755859375</ele>
        <time>2020-08-19T10:25:34.000Z</time>
      </trkpt>
      <trkpt lat="42.6536811701953411102294921875" lon="-0.56758736260235309600830078125">
        <ele>1022</ele>
        <time>2020-08-19T10:25:39.000Z</time>
      </trkpt>
      <trkpt lat="42.65366968698799610137939453125" lon="-0.5676602013409137725830078125">
        <ele>1022.79998779296875</ele>
        <time>2020-08-19T10:25:42.000Z</time>
      </trkpt>
      <trkpt lat="42.65365946106612682342529296875" lon="-0.56770672090351581573486328125">
        <ele>1023</ele>
        <time>2020-08-19T10:25:44.000Z</time>
      </trkpt>
      <trkpt lat="42.6536577008664608001708984375" lon="-0.567803196609020233154296875">
        <ele>1023.5999755859375</ele>
        <time>2020-08-19T10:25:48.000Z</time>
      </trkpt>
      <trkpt lat="42.653656862676143646240234375" lon="-0.56785357184708118438720703125">
        <ele>1024</ele>
        <time>2020-08-19T10:25:50.000Z</time>
      </trkpt>
      <trkpt lat="42.6536463014781475067138671875" lon="-0.56797846220433712005615234375">
        <ele>1025.199951171875</ele>
        <time>2020-08-19T10:25:55.000Z</time>
      </trkpt>
      <trkpt lat="42.65363599173724651336669921875" lon="-0.5680538155138492584228515625">
        <ele>1025.800048828125</ele>
        <time>2020-08-19T10:25:58.000Z</time>
      </trkpt>
      <trkpt lat="42.65363532118499279022216796875" lon="-0.568129755556583404541015625">
        <ele>1026.199951171875</ele>
        <time>2020-08-19T10:26:01.000Z</time>
      </trkpt>
      <trkpt lat="42.65362241305410861968994140625" lon="-0.5682278238236904144287109375">
        <ele>1027.199951171875</ele>
        <time>2020-08-19T10:26:05.000Z</time>
      </trkpt>
      <trkpt lat="42.653617300093173980712890625" lon="-0.568300075829029083251953125">
        <ele>1027.800048828125</ele>
        <time>2020-08-19T10:26:08.000Z</time>
      </trkpt>
      <trkpt lat="42.6536117680370807647705078125" lon="-0.56834810413420200347900390625">
        <ele>1028.199951171875</ele>
        <time>2020-08-19T10:26:10.000Z</time>
      </trkpt>
      <trkpt lat="42.65362023375928401947021484375" lon="-0.56846578605473041534423828125">
        <ele>1029.4000244140625</ele>
        <time>2020-08-19T10:26:15.000Z</time>
      </trkpt>
      <trkpt lat="42.6536343991756439208984375" lon="-0.568507947027683258056640625">
        <ele>1030</ele>
        <time>2020-08-19T10:26:17.000Z</time>
      </trkpt>
      <trkpt lat="42.65366717241704463958740234375" lon="-0.56856385432183742523193359375">
        <ele>1030.800048828125</ele>
        <time>2020-08-19T10:26:20.000Z</time>
      </trkpt>
      <trkpt lat="42.653724253177642822265625" lon="-0.5686080269515514373779296875">
        <ele>1031.4000244140625</ele>
        <time>2020-08-19T10:26:24.000Z</time>
      </trkpt>
      <trkpt lat="42.6537416875362396240234375" lon="-0.568607859313488006591796875">
        <ele>1031.800048828125</ele>
        <time>2020-08-19T10:26:25.000Z</time>
      </trkpt>
      <trkpt lat="42.6538142748177051544189453125" lon="-0.568571984767913818359375">
        <ele>1032.5999755859375</ele>
        <time>2020-08-19T10:26:29.000Z</time>
      </trkpt>
      <trkpt lat="42.65384922735393047332763671875" lon="-0.56854826398193836212158203125">
        <ele>1033.199951171875</ele>
        <time>2020-08-19T10:26:31.000Z</time>
      </trkpt>
      <trkpt lat="42.65393371693789958953857421875" lon="-0.5684561468660831451416015625">
        <ele>1034</ele>
        <time>2020-08-19T10:26:36.000Z</time>
      </trkpt>
      <trkpt lat="42.653965987265110015869140625" lon="-0.56841683574020862579345703125">
        <ele>1034.199951171875</ele>
        <time>2020-08-19T10:26:38.000Z</time>
      </trkpt>
      <trkpt lat="42.6541099883615970611572265625" lon="-0.5682514607906341552734375">
        <ele>1035.199951171875</ele>
        <time>2020-08-19T10:26:46.000Z</time>
      </trkpt>
      <trkpt lat="42.654128931462764739990234375" lon="-0.56823193095624446868896484375">
        <ele>1035.4000244140625</ele>
        <time>2020-08-19T10:26:47.000Z</time>
      </trkpt>
      <trkpt lat="42.65427771024405956268310546875" lon="-0.56804417632520198822021484375">
        <ele>1036.199951171875</ele>
        <time>2020-08-19T10:26:55.000Z</time>
      </trkpt>
      <trkpt lat="42.65431693755090236663818359375" lon="-0.5679966509342193603515625">
        <ele>1036.4000244140625</ele>
        <time>2020-08-19T10:26:57.000Z</time>
      </trkpt>
      <trkpt lat="42.65448943711817264556884765625" lon="-0.567772686481475830078125">
        <ele>1037.199951171875</ele>
        <time>2020-08-19T10:27:06.000Z</time>
      </trkpt>
      <trkpt lat="42.65453134663403034210205078125" lon="-0.5677265860140323638916015625">
        <ele>1037.4000244140625</ele>
        <time>2020-08-19T10:27:08.000Z</time>
      </trkpt>
      <trkpt lat="42.65462622977793216705322265625" lon="-0.56767956353724002838134765625">
        <ele>1037.800048828125</ele>
        <time>2020-08-19T10:27:12.000Z</time>
      </trkpt>
      <trkpt lat="42.65469630248844623565673828125" lon="-0.56768392212688922882080078125">
        <ele>1038.5999755859375</ele>
        <time>2020-08-19T10:27:15.000Z</time>
      </trkpt>
      <trkpt lat="42.6547501981258392333984375" lon="-0.5677410028874874114990234375">
        <ele>1039.199951171875</ele>
        <time>2020-08-19T10:27:18.000Z</time>
      </trkpt>
      <trkpt lat="42.65476687811315059661865234375" lon="-0.56780076585710048675537109375">
        <ele>1039.5999755859375</ele>
        <time>2020-08-19T10:27:20.000Z</time>
      </trkpt>
      <trkpt lat="42.65475665219128131866455078125" lon="-0.567898415029048919677734375">
        <ele>1040</ele>
        <time>2020-08-19T10:27:23.000Z</time>
      </trkpt>
      <trkpt lat="42.654691524803638458251953125" lon="-0.56804023683071136474609375">
        <ele>1040.5999755859375</ele>
        <time>2020-08-19T10:27:28.000Z</time>
      </trkpt>
      <trkpt lat="42.6546611823141574859619140625" lon="-0.56808910332620143890380859375">
        <ele>1041</ele>
        <time>2020-08-19T10:27:30.000Z</time>
      </trkpt>
      <trkpt lat="42.654592953622341156005859375" lon="-0.56817568838596343994140625">
        <ele>1041.800048828125</ele>
        <time>2020-08-19T10:27:34.000Z</time>
      </trkpt>
      <trkpt lat="42.6545438356697559356689453125" lon="-0.568238385021686553955078125">
        <ele>1042.4000244140625</ele>
        <time>2020-08-19T10:27:37.000Z</time>
      </trkpt>
      <trkpt lat="42.65451726503670215606689453125" lon="-0.5682836472988128662109375">
        <ele>1042.800048828125</ele>
        <time>2020-08-19T10:27:39.000Z</time>
      </trkpt>
      <trkpt lat="42.6544476114213466644287109375" lon="-0.56838012300431728363037109375">
        <ele>1043.800048828125</ele>
        <time>2020-08-19T10:27:44.000Z</time>
      </trkpt>
      <trkpt lat="42.65443646349012851715087890625" lon="-0.56840409524738788604736328125">
        <ele>1044.199951171875</ele>
        <time>2020-08-19T10:27:45.000Z</time>
      </trkpt>
      <trkpt lat="42.65438483096659183502197265625" lon="-0.56855119764804840087890625">
        <ele>1045.4000244140625</ele>
        <time>2020-08-19T10:27:51.000Z</time>
      </trkpt>
      <trkpt lat="42.65437594614923000335693359375" lon="-0.56857441551983356475830078125">
        <ele>1045.5999755859375</ele>
        <time>2020-08-19T10:27:52.000Z</time>
      </trkpt>
      <trkpt lat="42.65434828586876392364501953125" lon="-0.56866661645472049713134765625">
        <ele>1046.5999755859375</ele>
        <time>2020-08-19T10:27:56.000Z</time>
      </trkpt>
      <trkpt lat="42.654324732720851898193359375" lon="-0.5687612481415271759033203125">
        <ele>1047.5999755859375</ele>
        <time>2020-08-19T10:28:00.000Z</time>
      </trkpt>
      <trkpt lat="42.65431878156960010528564453125" lon="-0.568784885108470916748046875">
        <ele>1047.800048828125</ele>
        <time>2020-08-19T10:28:01.000Z</time>
      </trkpt>
      <trkpt lat="42.654281817376613616943359375" lon="-0.568956546485424041748046875">
        <ele>1049</ele>
        <time>2020-08-19T10:28:08.000Z</time>
      </trkpt>
      <trkpt lat="42.6542756147682666778564453125" lon="-0.56898093782365322113037109375">
        <ele>1049</ele>
        <time>2020-08-19T10:28:09.000Z</time>
      </trkpt>
      <trkpt lat="42.6542541570961475372314453125" lon="-0.56908085010945796966552734375">
        <ele>1050</ele>
        <time>2020-08-19T10:28:13.000Z</time>
      </trkpt>
      <trkpt lat="42.6542209647595882415771484375" lon="-0.569198615849018096923828125">
        <ele>1050.800048828125</ele>
        <time>2020-08-19T10:28:18.000Z</time>
      </trkpt>
      <trkpt lat="42.6542166061699390411376953125" lon="-0.5692235939204692840576171875">
        <ele>1051</ele>
        <time>2020-08-19T10:28:19.000Z</time>
      </trkpt>
      <trkpt lat="42.65416690148413181304931640625" lon="-0.56938645429909229278564453125">
        <ele>1052.4000244140625</ele>
        <time>2020-08-19T10:28:26.000Z</time>
      </trkpt>
      <trkpt lat="42.6541565917432308197021484375" lon="-0.56940824724733829498291015625">
        <ele>1052.5999755859375</ele>
        <time>2020-08-19T10:28:27.000Z</time>
      </trkpt>
      <trkpt lat="42.6541083119809627532958984375" lon="-0.56954755447804927825927734375">
        <ele>1053.4000244140625</ele>
        <time>2020-08-19T10:28:33.000Z</time>
      </trkpt>
      <trkpt lat="42.65407537110149860382080078125" lon="-0.56963791139423847198486328125">
        <ele>1053.5999755859375</ele>
        <time>2020-08-19T10:28:37.000Z</time>
      </trkpt>
      <trkpt lat="42.654024995863437652587890625" lon="-0.56971770711243152618408203125">
        <ele>1054.199951171875</ele>
        <time>2020-08-19T10:28:41.000Z</time>
      </trkpt>
      <trkpt lat="42.6539879478514194488525390625" lon="-0.5698126740753650665283203125">
        <ele>1054.800048828125</ele>
        <time>2020-08-19T10:28:45.000Z</time>
      </trkpt>
      <trkpt lat="42.65394595451653003692626953125" lon="-0.569900013506412506103515625">
        <ele>1055.4000244140625</ele>
        <time>2020-08-19T10:28:49.000Z</time>
      </trkpt>
      <trkpt lat="42.65388476662337779998779296875" lon="-0.5700337886810302734375">
        <ele>1056.4000244140625</ele>
        <time>2020-08-19T10:28:55.000Z</time>
      </trkpt>
      <trkpt lat="42.653849311172962188720703125" lon="-0.57015624828636646270751953125">
        <ele>1057.4000244140625</ele>
        <time>2020-08-19T10:29:00.000Z</time>
      </trkpt>
      <trkpt lat="42.65383313409984111785888671875" lon="-0.57023026049137115478515625">
        <ele>1058</ele>
        <time>2020-08-19T10:29:03.000Z</time>
      </trkpt>
      <trkpt lat="42.6538213156163692474365234375" lon="-0.57030846364796161651611328125">
        <ele>1058.5999755859375</ele>
        <time>2020-08-19T10:29:06.000Z</time>
      </trkpt>
      <trkpt lat="42.653806395828723907470703125" lon="-0.57043268345296382904052734375">
        <ele>1059.5999755859375</ele>
        <time>2020-08-19T10:29:11.000Z</time>
      </trkpt>
      <trkpt lat="42.65380614437162876129150390625" lon="-0.57045866735279560089111328125">
        <ele>1059.5999755859375</ele>
        <time>2020-08-19T10:29:12.000Z</time>
      </trkpt>
      <trkpt lat="42.65379994176328182220458984375" lon="-0.57064197957515716552734375">
        <ele>1060.5999755859375</ele>
        <time>2020-08-19T10:29:19.000Z</time>
      </trkpt>
      <trkpt lat="42.6538058929145336151123046875" lon="-0.5706917680799961090087890625">
        <ele>1061.199951171875</ele>
        <time>2020-08-19T10:29:21.000Z</time>
      </trkpt>
      <trkpt lat="42.65380916185677051544189453125" lon="-0.57076544500887393951416015625">
        <ele>1062</ele>
        <time>2020-08-19T10:29:24.000Z</time>
      </trkpt>
      <trkpt lat="42.6538092456758022308349609375" lon="-0.57091154158115386962890625">
        <ele>1063</ele>
        <time>2020-08-19T10:29:30.000Z</time>
      </trkpt>
      <trkpt lat="42.6538092456758022308349609375" lon="-0.57093702256679534912109375">
        <ele>1063.199951171875</ele>
        <time>2020-08-19T10:29:31.000Z</time>
      </trkpt>
      <trkpt lat="42.65381033532321453094482421875" lon="-0.57108798064291477203369140625">
        <ele>1064.199951171875</ele>
        <time>2020-08-19T10:29:37.000Z</time>
      </trkpt>
      <trkpt lat="42.65382274053990840911865234375" lon="-0.5711849592626094818115234375">
        <ele>1065.199951171875</ele>
        <time>2020-08-19T10:29:41.000Z</time>
      </trkpt>
      <trkpt lat="42.65382743440568447113037109375" lon="-0.57120868004858493804931640625">
        <ele>1065.199951171875</ele>
        <time>2020-08-19T10:29:42.000Z</time>
      </trkpt>
      <trkpt lat="42.6538581959903240203857421875" lon="-0.57137598283588886260986328125">
        <ele>1066.4000244140625</ele>
        <time>2020-08-19T10:29:49.000Z</time>
      </trkpt>
      <trkpt lat="42.6538843475282192230224609375" lon="-0.5714957602322101593017578125">
        <ele>1067.4000244140625</ele>
        <time>2020-08-19T10:29:54.000Z</time>
      </trkpt>
      <trkpt lat="42.6539329625666141510009765625" lon="-0.57160313241183757781982421875">
        <ele>1068.4000244140625</ele>
        <time>2020-08-19T10:29:59.000Z</time>
      </trkpt>
      <trkpt lat="42.65394226647913455963134765625" lon="-0.5716248415410518646240234375">
        <ele>1068.5999755859375</ele>
        <time>2020-08-19T10:30:00.000Z</time>
      </trkpt>
      <trkpt lat="42.653993479907512664794921875" lon="-0.57172668166458606719970703125">
        <ele>1069.800048828125</ele>
        <time>2020-08-19T10:30:05.000Z</time>
      </trkpt>
      <trkpt lat="42.65404787845909595489501953125" lon="-0.57182927615940570831298828125">
        <ele>1070.800048828125</ele>
        <time>2020-08-19T10:30:10.000Z</time>
      </trkpt>
      <trkpt lat="42.654115855693817138671875" lon="-0.5719497241079807281494140625">
        <ele>1072</ele>
        <time>2020-08-19T10:30:16.000Z</time>
      </trkpt>
      <trkpt lat="42.65415281988680362701416015625" lon="-0.57200797833502292633056640625">
        <ele>1072.800048828125</ele>
        <time>2020-08-19T10:30:19.000Z</time>
      </trkpt>
      <trkpt lat="42.65416438691318035125732421875" lon="-0.57202775962650775909423828125">
        <ele>1073</ele>
        <time>2020-08-19T10:30:20.000Z</time>
      </trkpt>
      <trkpt lat="42.65424233861267566680908203125" lon="-0.57213404215872287750244140625">
        <ele>1074.4000244140625</ele>
        <time>2020-08-19T10:30:26.000Z</time>
      </trkpt>
      <trkpt lat="42.6543014310300350189208984375" lon="-0.57222741656005382537841796875">
        <ele>1075.4000244140625</ele>
        <time>2020-08-19T10:30:31.000Z</time>
      </trkpt>
      <trkpt lat="42.6543631218373775482177734375" lon="-0.57234258390963077545166015625">
        <ele>1076.5999755859375</ele>
        <time>2020-08-19T10:30:37.000Z</time>
      </trkpt>
      <trkpt lat="42.6543976552784442901611328125" lon="-0.5723943002521991729736328125">
        <ele>1077.5999755859375</ele>
        <time>2020-08-19T10:30:40.000Z</time>
      </trkpt>
      <trkpt lat="42.65447594225406646728515625" lon="-0.57252497412264347076416015625">
        <ele>1078.5999755859375</ele>
        <time>2020-08-19T10:30:47.000Z</time>
      </trkpt>
      <trkpt lat="42.65448608435690402984619140625" lon="-0.57254408486187458038330078125">
        <ele>1078.800048828125</ele>
        <time>2020-08-19T10:30:48.000Z</time>
      </trkpt>
      <trkpt lat="42.6545391418039798736572265625" lon="-0.5726395547389984130859375">
        <ele>1079.800048828125</ele>
        <time>2020-08-19T10:30:53.000Z</time>
      </trkpt>
      <trkpt lat="42.6545678079128265380859375" lon="-0.57272781617939472198486328125">
        <ele>1080.4000244140625</ele>
        <time>2020-08-19T10:30:57.000Z</time>
      </trkpt>
      <trkpt lat="42.65458566136658191680908203125" lon="-0.57279872708022594451904296875">
        <ele>1081</ele>
        <time>2020-08-19T10:31:00.000Z</time>
      </trkpt>
      <trkpt lat="42.65458616428077220916748046875" lon="-0.57292412035167217254638671875">
        <ele>1082.199951171875</ele>
        <time>2020-08-19T10:31:05.000Z</time>
      </trkpt>
      <trkpt lat="42.65457945875823497772216796875" lon="-0.57310097850859165191650390625">
        <ele>1083.199951171875</ele>
        <time>2020-08-19T10:31:12.000Z</time>
      </trkpt>
      <trkpt lat="42.65457141213119029998779296875" lon="-0.573150180280208587646484375">
        <ele>1083.800048828125</ele>
        <time>2020-08-19T10:31:14.000Z</time>
      </trkpt>
      <trkpt lat="42.6545585878193378448486328125" lon="-0.5731972865760326385498046875">
        <ele>1084.4000244140625</ele>
        <time>2020-08-19T10:31:16.000Z</time>
      </trkpt>
      <trkpt lat="42.65450318343937397003173828125" lon="-0.57329929433763027191162109375">
        <ele>1085.199951171875</ele>
        <time>2020-08-19T10:31:21.000Z</time>
      </trkpt>
      <trkpt lat="42.65447468496859073638916015625" lon="-0.57333433069288730621337890625">
        <ele>1085.5999755859375</ele>
        <time>2020-08-19T10:31:23.000Z</time>
      </trkpt>
      <trkpt lat="42.65441349707543849945068359375" lon="-0.57339954189956188201904296875">
        <ele>1086</ele>
        <time>2020-08-19T10:31:27.000Z</time>
      </trkpt>
      <trkpt lat="42.65436555258929729461669921875" lon="-0.57344815693795680999755859375">
        <ele>1086.4000244140625</ele>
        <time>2020-08-19T10:31:30.000Z</time>
      </trkpt>
      <trkpt lat="42.6543483696877956390380859375" lon="-0.57346290908753871917724609375">
        <ele>1086.5999755859375</ele>
        <time>2020-08-19T10:31:31.000Z</time>
      </trkpt>
      <trkpt lat="42.65425357036292552947998046875" lon="-0.5735220015048980712890625">
        <ele>1087.4000244140625</ele>
        <time>2020-08-19T10:31:36.000Z</time>
      </trkpt>
      <trkpt lat="42.6542323641479015350341796875" lon="-0.5735273659229278564453125">
        <ele>1087.5999755859375</ele>
        <time>2020-08-19T10:31:37.000Z</time>
      </trkpt>
      <trkpt lat="42.6541109941899776458740234375" lon="-0.5735550262033939361572265625">
        <ele>1088.800048828125</ele>
        <time>2020-08-19T10:31:43.000Z</time>
      </trkpt>
      <trkpt lat="42.65407361090183258056640625" lon="-0.5735634081065654754638671875">
        <ele>1089</ele>
        <time>2020-08-19T10:31:45.000Z</time>
      </trkpt>
      <trkpt lat="42.6539534144103527069091796875" lon="-0.57354756630957126617431640625">
        <ele>1089.800048828125</ele>
        <time>2020-08-19T10:31:51.000Z</time>
      </trkpt>
      <trkpt lat="42.65393354929983615875244140625" lon="-0.5735466443002223968505859375">
        <ele>1090</ele>
        <time>2020-08-19T10:31:52.000Z</time>
      </trkpt>
      <trkpt lat="42.65381368808448314666748046875" lon="-0.5735355801880359649658203125">
        <ele>1090.800048828125</ele>
        <time>2020-08-19T10:31:58.000Z</time>
      </trkpt>
      <trkpt lat="42.65375283546745777130126953125" lon="-0.57353876531124114990234375">
        <ele>1091.199951171875</ele>
        <time>2020-08-19T10:32:01.000Z</time>
      </trkpt>
      <trkpt lat="42.65366951934993267059326171875" lon="-0.57353247888386249542236328125">
        <ele>1092</ele>
        <time>2020-08-19T10:32:05.000Z</time>
      </trkpt>
      <trkpt lat="42.65354664064943790435791015625" lon="-0.573547817766666412353515625">
        <ele>1093</ele>
        <time>2020-08-19T10:32:11.000Z</time>
      </trkpt>
      <trkpt lat="42.653436250984668731689453125" lon="-0.573566257953643798828125">
        <ele>1093.800048828125</ele>
        <time>2020-08-19T10:32:16.000Z</time>
      </trkpt>
      <trkpt lat="42.65335737727582454681396484375" lon="-0.573605485260486602783203125">
        <ele>1094.800048828125</ele>
        <time>2020-08-19T10:32:20.000Z</time>
      </trkpt>
      <trkpt lat="42.65333860181272029876708984375" lon="-0.5736170522868633270263671875">
        <ele>1095</ele>
        <time>2020-08-19T10:32:21.000Z</time>
      </trkpt>
      <trkpt lat="42.6532615721225738525390625" lon="-0.57365250773727893829345703125">
        <ele>1096.199951171875</ele>
        <time>2020-08-19T10:32:25.000Z</time>
      </trkpt>
      <trkpt lat="42.653210274875164031982421875" lon="-0.573692657053470611572265625">
        <ele>1096.800048828125</ele>
        <time>2020-08-19T10:32:28.000Z</time>
      </trkpt>
      <trkpt lat="42.65317884273827075958251953125" lon="-0.57371285744011402130126953125">
        <ele>1097.199951171875</ele>
        <time>2020-08-19T10:32:30.000Z</time>
      </trkpt>
      <trkpt lat="42.65307909809052944183349609375" lon="-0.57377354241907596588134765625">
        <ele>1098.199951171875</ele>
        <time>2020-08-19T10:32:36.000Z</time>
      </trkpt>
      <trkpt lat="42.6529938541352748870849609375" lon="-0.57382115162909030914306640625">
        <ele>1099.199951171875</ele>
        <time>2020-08-19T10:32:41.000Z</time>
      </trkpt>
      <trkpt lat="42.65294012613594532012939453125" lon="-0.57384327985346317291259765625">
        <ele>1099.800048828125</ele>
        <time>2020-08-19T10:32:44.000Z</time>
      </trkpt>
      <trkpt lat="42.65290425159037113189697265625" lon="-0.57385970838367938995361328125">
        <ele>1100.4000244140625</ele>
        <time>2020-08-19T10:32:46.000Z</time>
      </trkpt>
      <trkpt lat="42.65279260464012622833251953125" lon="-0.5739006958901882171630859375">
        <ele>1101.5999755859375</ele>
        <time>2020-08-19T10:32:52.000Z</time>
      </trkpt>
      <trkpt lat="42.65269855968654155731201171875" lon="-0.5739162862300872802734375">
        <ele>1102.800048828125</ele>
        <time>2020-08-19T10:32:57.000Z</time>
      </trkpt>
      <trkpt lat="42.652583979070186614990234375" lon="-0.5739000253379344940185546875">
        <ele>1103.800048828125</ele>
        <time>2020-08-19T10:33:03.000Z</time>
      </trkpt>
      <trkpt lat="42.6524453423917293548583984375" lon="-0.5738882906734943389892578125">
        <ele>1105</ele>
        <time>2020-08-19T10:33:10.000Z</time>
      </trkpt>
      <trkpt lat="42.6524051092565059661865234375" lon="-0.5738819204270839691162109375">
        <ele>1105.4000244140625</ele>
        <time>2020-08-19T10:33:12.000Z</time>
      </trkpt>
      <trkpt lat="42.6523320190608501434326171875" lon="-0.57384562678635120391845703125">
        <ele>1106.199951171875</ele>
        <time>2020-08-19T10:33:16.000Z</time>
      </trkpt>
      <trkpt lat="42.65229404903948307037353515625" lon="-0.5738296173512935638427734375">
        <ele>1106.4000244140625</ele>
        <time>2020-08-19T10:33:18.000Z</time>
      </trkpt>
      <trkpt lat="42.652202434837818145751953125" lon="-0.57378091849386692047119140625">
        <ele>1107.4000244140625</ele>
        <time>2020-08-19T10:33:23.000Z</time>
      </trkpt>
      <trkpt lat="42.65213043428957462310791015625" lon="-0.573725514113903045654296875">
        <ele>1108.199951171875</ele>
        <time>2020-08-19T10:33:27.000Z</time>
      </trkpt>
      <trkpt lat="42.6521120779216289520263671875" lon="-0.57371176779270172119140625">
        <ele>1108.4000244140625</ele>
        <time>2020-08-19T10:33:28.000Z</time>
      </trkpt>
      <trkpt lat="42.6520068012177944183349609375" lon="-0.573627948760986328125">
        <ele>1109.4000244140625</ele>
        <time>2020-08-19T10:33:34.000Z</time>
      </trkpt>
      <trkpt lat="42.65197352506220340728759765625" lon="-0.573597438633441925048828125">
        <ele>1109.800048828125</ele>
        <time>2020-08-19T10:33:36.000Z</time>
      </trkpt>
      <trkpt lat="42.65192138962447643280029296875" lon="-0.5735515058040618896484375">
        <ele>1110.4000244140625</ele>
        <time>2020-08-19T10:33:39.000Z</time>
      </trkpt>
      <trkpt lat="42.651803456246852874755859375" lon="-0.57343105785548686981201171875">
        <ele>1111.4000244140625</ele>
        <time>2020-08-19T10:33:46.000Z</time>
      </trkpt>
      <trkpt lat="42.65178862027823925018310546875" lon="-0.57341664098203182220458984375">
        <ele>1111.5999755859375</ele>
        <time>2020-08-19T10:33:47.000Z</time>
      </trkpt>
      <trkpt lat="42.65170647762715816497802734375" lon="-0.57334204204380512237548828125">
        <ele>1112.4000244140625</ele>
        <time>2020-08-19T10:33:52.000Z</time>
      </trkpt>
      <trkpt lat="42.6516879536211490631103515625" lon="-0.57333148084580898284912109375">
        <ele>1112.5999755859375</ele>
        <time>2020-08-19T10:33:53.000Z</time>
      </trkpt>
      <trkpt lat="42.6515421085059642791748046875" lon="-0.5732519365847110748291015625">
        <ele>1113.5999755859375</ele>
        <time>2020-08-19T10:34:01.000Z</time>
      </trkpt>
      <trkpt lat="42.651523165404796600341796875" lon="-0.5732452310621738433837890625">
        <ele>1113.800048828125</ele>
        <time>2020-08-19T10:34:02.000Z</time>
      </trkpt>
      <trkpt lat="42.65143155120313167572021484375" lon="-0.57320709340274333953857421875">
        <ele>1114.800048828125</ele>
        <time>2020-08-19T10:34:07.000Z</time>
      </trkpt>
      <trkpt lat="42.65139400027692317962646484375" lon="-0.5732090212404727935791015625">
        <ele>1115.199951171875</ele>
        <time>2020-08-19T10:34:09.000Z</time>
      </trkpt>
      <trkpt lat="42.65131638385355472564697265625" lon="-0.573210529983043670654296875">
        <ele>1116</ele>
        <time>2020-08-19T10:34:13.000Z</time>
      </trkpt>
      <trkpt lat="42.65123960562050342559814453125" lon="-0.5732060037553310394287109375">
        <ele>1117</ele>
        <time>2020-08-19T10:34:17.000Z</time>
      </trkpt>
      <trkpt lat="42.65118227340281009674072265625" lon="-0.57320541702210903167724609375">
        <ele>1117.800048828125</ele>
        <time>2020-08-19T10:34:20.000Z</time>
      </trkpt>
      <trkpt lat="42.65114421956241130828857421875" lon="-0.57320491410791873931884765625">
        <ele>1118.199951171875</ele>
        <time>2020-08-19T10:34:22.000Z</time>
      </trkpt>
      <trkpt lat="42.65106978826224803924560546875" lon="-0.5732117034494876861572265625">
        <ele>1119.199951171875</ele>
        <time>2020-08-19T10:34:26.000Z</time>
      </trkpt>
      <trkpt lat="42.65101396478712558746337890625" lon="-0.57320994324982166290283203125">
        <ele>1120</ele>
        <time>2020-08-19T10:34:29.000Z</time>
      </trkpt>
      <trkpt lat="42.65099577605724334716796875" lon="-0.57321396656334400177001953125">
        <ele>1120</ele>
        <time>2020-08-19T10:34:30.000Z</time>
      </trkpt>
      <trkpt lat="42.65095998533070087432861328125" lon="-0.57322737760841846466064453125">
        <ele>1120.199951171875</ele>
        <time>2020-08-19T10:34:32.000Z</time>
      </trkpt>
      <trkpt lat="42.6508708856999874114990234375" lon="-0.57326040230691432952880859375">
        <ele>1121.199951171875</ele>
        <time>2020-08-19T10:34:37.000Z</time>
      </trkpt>
      <trkpt lat="42.65085269697010517120361328125" lon="-0.573264174163341522216796875">
        <ele>1121.199951171875</ele>
        <time>2020-08-19T10:34:38.000Z</time>
      </trkpt>
      <trkpt lat="42.6507659442722797393798828125" lon="-0.57334941811859607696533203125">
        <ele>1122.199951171875</ele>
        <time>2020-08-19T10:34:44.000Z</time>
      </trkpt>
      <trkpt lat="42.65069696120917797088623046875" lon="-0.5735037289559841156005859375">
        <ele>1123.199951171875</ele>
        <time>2020-08-19T10:34:51.000Z</time>
      </trkpt>
      <trkpt lat="42.6506271399557590484619140625" lon="-0.57367555797100067138671875">
        <ele>1123.5999755859375</ele>
        <time>2020-08-19T10:34:59.000Z</time>
      </trkpt>
      <trkpt lat="42.6506137289106845855712890625" lon="-0.57380908168852329254150390625">
        <ele>1124.199951171875</ele>
        <time>2020-08-19T10:35:06.000Z</time>
      </trkpt>
      <trkpt lat="42.6506142318248748779296875" lon="-0.57383221574127674102783203125">
        <ele>1124.199951171875</ele>
        <time>2020-08-19T10:35:07.000Z</time>
      </trkpt>
      <trkpt lat="42.6506351865828037261962890625" lon="-0.5739161185920238494873046875">
        <ele>1124</ele>
        <time>2020-08-19T10:35:12.000Z</time>
      </trkpt>
      <trkpt lat="42.65063527040183544158935546875" lon="-0.57391469366848468780517578125">
        <ele>1123.5999755859375</ele>
        <time>2020-08-19T10:35:26.000Z</time>
      </trkpt>
      <trkpt lat="42.65063543803989887237548828125" lon="-0.5739131011068820953369140625">
        <ele>1123</ele>
        <time>2020-08-19T10:36:10.000Z</time>
      </trkpt>
      <trkpt lat="42.650635354220867156982421875" lon="-0.57391150854527950286865234375">
        <ele>1122.5999755859375</ele>
        <time>2020-08-19T10:36:32.000Z</time>
      </trkpt>
      <trkpt lat="42.65064013190567493438720703125" lon="-0.57396800257265567779541015625">
        <ele>1122.5999755859375</ele>
        <time>2020-08-19T10:36:37.000Z</time>
      </trkpt>
      <trkpt lat="42.6506893336772918701171875" lon="-0.5741363950073719024658203125">
        <ele>1122.5999755859375</ele>
        <time>2020-08-19T10:36:42.000Z</time>
      </trkpt>
      <trkpt lat="42.65071188099682331085205078125" lon="-0.5741829983890056610107421875">
        <ele>1122.4000244140625</ele>
        <time>2020-08-19T10:36:43.000Z</time>
      </trkpt>
      <trkpt lat="42.650807686150074005126953125" lon="-0.574324317276477813720703125">
        <ele>1121.4000244140625</ele>
        <time>2020-08-19T10:36:46.000Z</time>
      </trkpt>
      <trkpt lat="42.6508477516472339630126953125" lon="-0.574369914829730987548828125">
        <ele>1121.199951171875</ele>
        <time>2020-08-19T10:36:47.000Z</time>
      </trkpt>
      <trkpt lat="42.650941796600818634033203125" lon="-0.57445901446044445037841796875">
        <ele>1120.199951171875</ele>
        <time>2020-08-19T10:36:49.000Z</time>
      </trkpt>
      <trkpt lat="42.65105017460882663726806640625" lon="-0.5745541490614414215087890625">
        <ele>1119.199951171875</ele>
        <time>2020-08-19T10:36:51.000Z</time>
      </trkpt>
      <trkpt lat="42.6511062495410442352294921875" lon="-0.57460670359432697296142578125">
        <ele>1118.199951171875</ele>
        <time>2020-08-19T10:36:52.000Z</time>
      </trkpt>
      <trkpt lat="42.651163749396800994873046875" lon="-0.5746627785265445709228515625">
        <ele>1117.5999755859375</ele>
        <time>2020-08-19T10:36:53.000Z</time>
      </trkpt>
      <trkpt lat="42.65127447433769702911376953125" lon="-0.57478733360767364501953125">
        <ele>1116.199951171875</ele>
        <time>2020-08-19T10:36:55.000Z</time>
      </trkpt>
      <trkpt lat="42.65136860311031341552734375" lon="-0.5749423988163471221923828125">
        <ele>1114.5999755859375</ele>
        <time>2020-08-19T10:36:57.000Z</time>
      </trkpt>
      <trkpt lat="42.651446051895618438720703125" lon="-0.57512663304805755615234375">
        <ele>1113</ele>
        <time>2020-08-19T10:36:59.000Z</time>
      </trkpt>
      <trkpt lat="42.6515317149460315704345703125" lon="-0.575317405164241790771484375">
        <ele>1111.5999755859375</ele>
        <time>2020-08-19T10:37:01.000Z</time>
      </trkpt>
      <trkpt lat="42.65158041380345821380615234375" lon="-0.5754131264984607696533203125">
        <ele>1110.5999755859375</ele>
        <time>2020-08-19T10:37:02.000Z</time>
      </trkpt>
      <trkpt lat="42.65167898498475551605224609375" lon="-0.575607754290103912353515625">
        <ele>1108.800048828125</ele>
        <time>2020-08-19T10:37:04.000Z</time>
      </trkpt>
      <trkpt lat="42.65177428722381591796875" lon="-0.5758040584623813629150390625">
        <ele>1107</ele>
        <time>2020-08-19T10:37:06.000Z</time>
      </trkpt>
      <trkpt lat="42.651853747665882110595703125" lon="-0.57600907981395721435546875">
        <ele>1105.199951171875</ele>
        <time>2020-08-19T10:37:08.000Z</time>
      </trkpt>
      <trkpt lat="42.65188098885118961334228515625" lon="-0.57611611671745777130126953125">
        <ele>1104.199951171875</ele>
        <time>2020-08-19T10:37:09.000Z</time>
      </trkpt>
      <trkpt lat="42.65191568993031978607177734375" lon="-0.57634360156953334808349609375">
        <ele>1102.5999755859375</ele>
        <time>2020-08-19T10:37:11.000Z</time>
      </trkpt>
      <trkpt lat="42.65193563885986804962158203125" lon="-0.5765770375728607177734375">
        <ele>1100.800048828125</ele>
        <time>2020-08-19T10:37:13.000Z</time>
      </trkpt>
      <trkpt lat="42.6519446074962615966796875" lon="-0.5766958929598331451416015625">
        <ele>1100</ele>
        <time>2020-08-19T10:37:14.000Z</time>
      </trkpt>
      <trkpt lat="42.65195340849459171295166015625" lon="-0.5768162570893764495849609375">
        <ele>1099.199951171875</ele>
        <time>2020-08-19T10:37:15.000Z</time>
      </trkpt>
      <trkpt lat="42.6519638858735561370849609375" lon="-0.57693636976182460784912109375">
        <ele>1097.5999755859375</ele>
        <time>2020-08-19T10:37:16.000Z</time>
      </trkpt>
      <trkpt lat="42.65197637490928173065185546875" lon="-0.57705505751073360443115234375">
        <ele>1096.5999755859375</ele>
        <time>2020-08-19T10:37:17.000Z</time>
      </trkpt>
      <trkpt lat="42.65201057307422161102294921875" lon="-0.5772816203534603118896484375">
        <ele>1094.800048828125</ele>
        <time>2020-08-19T10:37:19.000Z</time>
      </trkpt>
      <trkpt lat="42.65203806571662425994873046875" lon="-0.5773855559527873992919921875">
        <ele>1093.800048828125</ele>
        <time>2020-08-19T10:37:20.000Z</time>
      </trkpt>
      <trkpt lat="42.65207536518573760986328125" lon="-0.57748219929635524749755859375">
        <ele>1093</ele>
        <time>2020-08-19T10:37:21.000Z</time>
      </trkpt>
      <trkpt lat="42.65212154947221279144287109375" lon="-0.5775702930986881256103515625">
        <ele>1092</ele>
        <time>2020-08-19T10:37:22.000Z</time>
      </trkpt>
      <trkpt lat="42.6521754451096057891845703125" lon="-0.57764816097915172576904296875">
        <ele>1091</ele>
        <time>2020-08-19T10:37:23.000Z</time>
      </trkpt>
      <trkpt lat="42.652238309383392333984375" lon="-0.577715970575809478759765625">
        <ele>1089.4000244140625</ele>
        <time>2020-08-19T10:37:24.000Z</time>
      </trkpt>
      <trkpt lat="42.6523088850080966949462890625" lon="-0.5777733027935028076171875">
        <ele>1088.199951171875</ele>
        <time>2020-08-19T10:37:25.000Z</time>
      </trkpt>
      <trkpt lat="42.65238423831760883331298828125" lon="-0.57782015763223171234130859375">
        <ele>1087.199951171875</ele>
        <time>2020-08-19T10:37:26.000Z</time>
      </trkpt>
      <trkpt lat="42.65246403403580188751220703125" lon="-0.57786173187196254730224609375">
        <ele>1086.199951171875</ele>
        <time>2020-08-19T10:37:27.000Z</time>
      </trkpt>
      <trkpt lat="42.65254936181008815765380859375" lon="-0.57790003716945648193359375">
        <ele>1085</ele>
        <time>2020-08-19T10:37:28.000Z</time>
      </trkpt>
      <trkpt lat="42.65263753943145275115966796875" lon="-0.57793415151536464691162109375">
        <ele>1084</ele>
        <time>2020-08-19T10:37:29.000Z</time>
      </trkpt>
      <trkpt lat="42.652725465595722198486328125" lon="-0.577966086566448211669921875">
        <ele>1082.800048828125</ele>
        <time>2020-08-19T10:37:30.000Z</time>
      </trkpt>
      <trkpt lat="42.65281037427484989166259765625" lon="-0.57799953036010265350341796875">
        <ele>1081.5999755859375</ele>
        <time>2020-08-19T10:37:31.000Z</time>
      </trkpt>
      <trkpt lat="42.65289016999304294586181640625" lon="-0.57803741656243801116943359375">
        <ele>1080</ele>
        <time>2020-08-19T10:37:32.000Z</time>
      </trkpt>
      <trkpt lat="42.65296451747417449951171875" lon="-0.57808117009699344635009765625">
        <ele>1078.5999755859375</ele>
        <time>2020-08-19T10:37:33.000Z</time>
      </trkpt>
      <trkpt lat="42.653032578527927398681640625" lon="-0.57813330553472042083740234375">
        <ele>1077.800048828125</ele>
        <time>2020-08-19T10:37:34.000Z</time>
      </trkpt>
      <trkpt lat="42.6530930958688259124755859375" lon="-0.57819449342787265777587890625">
        <ele>1077</ele>
        <time>2020-08-19T10:37:35.000Z</time>
      </trkpt>
      <trkpt lat="42.65314430929720401763916015625" lon="-0.5782656557857990264892578125">
        <ele>1075.800048828125</ele>
        <time>2020-08-19T10:37:36.000Z</time>
      </trkpt>
      <trkpt lat="42.65318705700337886810302734375" lon="-0.57834419421851634979248046875">
        <ele>1074.5999755859375</ele>
        <time>2020-08-19T10:37:37.000Z</time>
      </trkpt>
      <trkpt lat="42.6532248593866825103759765625" lon="-0.5784282647073268890380859375">
        <ele>1073.4000244140625</ele>
        <time>2020-08-19T10:37:38.000Z</time>
      </trkpt>
      <trkpt lat="42.653283365070819854736328125" lon="-0.5786128342151641845703125">
        <ele>1071.199951171875</ele>
        <time>2020-08-19T10:37:40.000Z</time>
      </trkpt>
      <trkpt lat="42.65331865288317203521728515625" lon="-0.57880905456840991973876953125">
        <ele>1069.199951171875</ele>
        <time>2020-08-19T10:37:42.000Z</time>
      </trkpt>
      <trkpt lat="42.65334815718233585357666015625" lon="-0.57900971733033657073974609375">
        <ele>1067.5999755859375</ele>
        <time>2020-08-19T10:37:44.000Z</time>
      </trkpt>
      <trkpt lat="42.653361149132251739501953125" lon="-0.57911113835871219635009765625">
        <ele>1066.4000244140625</ele>
        <time>2020-08-19T10:37:45.000Z</time>
      </trkpt>
      <trkpt lat="42.653387971222400665283203125" lon="-0.57931196875870227813720703125">
        <ele>1064.800048828125</ele>
        <time>2020-08-19T10:37:47.000Z</time>
      </trkpt>
      <trkpt lat="42.6534156315028667449951171875" lon="-0.5795091949403285980224609375">
        <ele>1063.4000244140625</ele>
        <time>2020-08-19T10:37:49.000Z</time>
      </trkpt>
      <trkpt lat="42.6534535177052021026611328125" lon="-0.579708181321620941162109375">
        <ele>1062.4000244140625</ele>
        <time>2020-08-19T10:37:51.000Z</time>
      </trkpt>
      <trkpt lat="42.6535219140350818634033203125" lon="-0.5798897333443164825439453125">
        <ele>1060.800048828125</ele>
        <time>2020-08-19T10:37:53.000Z</time>
      </trkpt>
      <trkpt lat="42.6536188088357448577880859375" lon="-0.580051504075527191162109375">
        <ele>1059.199951171875</ele>
        <time>2020-08-19T10:37:55.000Z</time>
      </trkpt>
      <trkpt lat="42.653675973415374755859375" lon="-0.580119900405406951904296875">
        <ele>1057.800048828125</ele>
        <time>2020-08-19T10:37:56.000Z</time>
      </trkpt>
      <trkpt lat="42.653737328946590423583984375" lon="-0.5801851116120815277099609375">
        <ele>1057</ele>
        <time>2020-08-19T10:37:57.000Z</time>
      </trkpt>
      <trkpt lat="42.65380128286778926849365234375" lon="-0.58025090955197811126708984375">
        <ele>1056.199951171875</ele>
        <time>2020-08-19T10:37:58.000Z</time>
      </trkpt>
      <trkpt lat="42.6539356447756290435791015625" lon="-0.5803802423179149627685546875">
        <ele>1054.800048828125</ele>
        <time>2020-08-19T10:38:00.000Z</time>
      </trkpt>
      <trkpt lat="42.65407495200634002685546875" lon="-0.58051628060638904571533203125">
        <ele>1053</ele>
        <time>2020-08-19T10:38:02.000Z</time>
      </trkpt>
      <trkpt lat="42.65422037802636623382568359375" lon="-0.58065961115062236785888671875">
        <ele>1051.4000244140625</ele>
        <time>2020-08-19T10:38:04.000Z</time>
      </trkpt>
      <trkpt lat="42.65437326394021511077880859375" lon="-0.58080495335161685943603515625">
        <ele>1049.5999755859375</ele>
        <time>2020-08-19T10:38:06.000Z</time>
      </trkpt>
      <trkpt lat="42.6544471085071563720703125" lon="-0.58087863028049468994140625">
        <ele>1048.5999755859375</ele>
        <time>2020-08-19T10:38:07.000Z</time>
      </trkpt>
      <trkpt lat="42.6545166783034801483154296875" lon="-0.58095666579902172088623046875">
        <ele>1047.800048828125</ele>
        <time>2020-08-19T10:38:08.000Z</time>
      </trkpt>
      <trkpt lat="42.65464098192751407623291015625" lon="-0.58113385923206806182861328125">
        <ele>1045.800048828125</ele>
        <time>2020-08-19T10:38:10.000Z</time>
      </trkpt>
      <trkpt lat="42.65469864942133426666259765625" lon="-0.58123041875660419464111328125">
        <ele>1044.5999755859375</ele>
        <time>2020-08-19T10:38:11.000Z</time>
      </trkpt>
      <trkpt lat="42.6547555625438690185546875" lon="-0.58133183978497982025146484375">
        <ele>1043.4000244140625</ele>
        <time>2020-08-19T10:38:12.000Z</time>
      </trkpt>
      <trkpt lat="42.65487022697925567626953125" lon="-0.58153116144239902496337890625">
        <ele>1041.800048828125</ele>
        <time>2020-08-19T10:38:14.000Z</time>
      </trkpt>
      <trkpt lat="42.65499553643167018890380859375" lon="-0.58169762603938579559326171875">
        <ele>1039.4000244140625</ele>
        <time>2020-08-19T10:38:16.000Z</time>
      </trkpt>
      <trkpt lat="42.65506443567574024200439453125" lon="-0.581763088703155517578125">
        <ele>1038</ele>
        <time>2020-08-19T10:38:17.000Z</time>
      </trkpt>
      <trkpt lat="42.65513752587139606475830078125" lon="-0.58181312866508960723876953125">
        <ele>1037</ele>
        <time>2020-08-19T10:38:18.000Z</time>
      </trkpt>
      <trkpt lat="42.65521581284701824188232421875" lon="-0.58184632100164890289306640625">
        <ele>1036</ele>
        <time>2020-08-19T10:38:19.000Z</time>
      </trkpt>
      <trkpt lat="42.6553000509738922119140625" lon="-0.5818624980747699737548828125">
        <ele>1034.800048828125</ele>
        <time>2020-08-19T10:38:20.000Z</time>
      </trkpt>
      <trkpt lat="42.65538730658590793609619140625" lon="-0.5818601511418819427490234375">
        <ele>1033.4000244140625</ele>
        <time>2020-08-19T10:38:21.000Z</time>
      </trkpt>
      <trkpt lat="42.65547581948339939117431640625" lon="-0.5818370170891284942626953125">
        <ele>1032.4000244140625</ele>
        <time>2020-08-19T10:38:22.000Z</time>
      </trkpt>
      <trkpt lat="42.65565879642963409423828125" lon="-0.5817401222884654998779296875">
        <ele>1030.800048828125</ele>
        <time>2020-08-19T10:38:24.000Z</time>
      </trkpt>
      <trkpt lat="42.65575191937386989593505859375" lon="-0.58167331852018833160400390625">
        <ele>1030</ele>
        <time>2020-08-19T10:38:25.000Z</time>
      </trkpt>
      <trkpt lat="42.6558443717658519744873046875" lon="-0.58159721083939075469970703125">
        <ele>1029</ele>
        <time>2020-08-19T10:38:26.000Z</time>
      </trkpt>
      <trkpt lat="42.65593648888170719146728515625" lon="-0.5815174989402294158935546875">
        <ele>1027.800048828125</ele>
        <time>2020-08-19T10:38:27.000Z</time>
      </trkpt>
      <trkpt lat="42.656025588512420654296875" lon="-0.58143652975559234619140625">
        <ele>1026.4000244140625</ele>
        <time>2020-08-19T10:38:28.000Z</time>
      </trkpt>
      <trkpt lat="42.65610949136316776275634765625" lon="-0.58135069906711578369140625">
        <ele>1025.199951171875</ele>
        <time>2020-08-19T10:38:29.000Z</time>
      </trkpt>
      <trkpt lat="42.65618694014847278594970703125" lon="-0.58125858195126056671142578125">
        <ele>1024.199951171875</ele>
        <time>2020-08-19T10:38:30.000Z</time>
      </trkpt>
      <trkpt lat="42.6562570966780185699462890625" lon="-0.58115749619901180267333984375">
        <ele>1023.4000244140625</ele>
        <time>2020-08-19T10:38:31.000Z</time>
      </trkpt>
      <trkpt lat="42.65632021240890026092529296875" lon="-0.58105708099901676177978515625">
        <ele>1022.20001220703125</ele>
        <time>2020-08-19T10:38:32.000Z</time>
      </trkpt>
      <trkpt lat="42.6563823223114013671875" lon="-0.5809696577489376068115234375">
        <ele>1021.4000244140625</ele>
        <time>2020-08-19T10:38:33.000Z</time>
      </trkpt>
      <trkpt lat="42.6564508862793445587158203125" lon="-0.580903775990009307861328125">
        <ele>1020.79998779296875</ele>
        <time>2020-08-19T10:38:34.000Z</time>
      </trkpt>
      <trkpt lat="42.65667594037950038909912109375" lon="-0.5808429233729839324951171875">
        <ele>1019.79998779296875</ele>
        <time>2020-08-19T10:38:37.000Z</time>
      </trkpt>
      <trkpt lat="42.65674735419452190399169921875" lon="-0.58084510266780853271484375">
        <ele>1019.79998779296875</ele>
        <time>2020-08-19T10:38:38.000Z</time>
      </trkpt>
      <trkpt lat="42.656815834343433380126953125" lon="-0.58084552176296710968017578125">
        <ele>1019.5999755859375</ele>
        <time>2020-08-19T10:38:39.000Z</time>
      </trkpt>
      <trkpt lat="42.65688163228332996368408203125" lon="-0.5808489583432674407958984375">
        <ele>1019.20001220703125</ele>
        <time>2020-08-19T10:38:40.000Z</time>
      </trkpt>
      <trkpt lat="42.6569967158138751983642578125" lon="-0.5809019319713115692138671875">
        <ele>1019</ele>
        <time>2020-08-19T10:38:42.000Z</time>
      </trkpt>
      <trkpt lat="42.65706117264926433563232421875" lon="-0.5810196138918399810791015625">
        <ele>1018.5999755859375</ele>
        <time>2020-08-19T10:38:44.000Z</time>
      </trkpt>
      <trkpt lat="42.6570708118379116058349609375" lon="-0.58108516037464141845703125">
        <ele>1018.5999755859375</ele>
        <time>2020-08-19T10:38:45.000Z</time>
      </trkpt>
      <trkpt lat="42.6570258848369121551513671875" lon="-0.5813099630177021026611328125">
        <ele>1018.20001220703125</ele>
        <time>2020-08-19T10:38:49.000Z</time>
      </trkpt>
      <trkpt lat="42.65696771442890167236328125" lon="-0.58141347952187061309814453125">
        <ele>1018</ele>
        <time>2020-08-19T10:38:51.000Z</time>
      </trkpt>
      <trkpt lat="42.6569008268415927886962890625" lon="-0.58152629993855953216552734375">
        <ele>1017.5999755859375</ele>
        <time>2020-08-19T10:38:53.000Z</time>
      </trkpt>
      <trkpt lat="42.6568297483026981353759765625" lon="-0.58165051974356174468994140625">
        <ele>1017.20001220703125</ele>
        <time>2020-08-19T10:38:55.000Z</time>
      </trkpt>
      <trkpt lat="42.6567610166966915130615234375" lon="-0.581778846681118011474609375">
        <ele>1016.4000244140625</ele>
        <time>2020-08-19T10:38:57.000Z</time>
      </trkpt>
      <trkpt lat="42.6566892676055431365966796875" lon="-0.58198596350848674774169921875">
        <ele>1015.20001220703125</ele>
        <time>2020-08-19T10:39:00.000Z</time>
      </trkpt>
      <trkpt lat="42.65664157457649707794189453125" lon="-0.58220288716256618499755859375">
        <ele>1014.20001220703125</ele>
        <time>2020-08-19T10:39:03.000Z</time>
      </trkpt>
      <trkpt lat="42.656611315906047821044921875" lon="-0.58243540115654468536376953125">
        <ele>1013.20001220703125</ele>
        <time>2020-08-19T10:39:06.000Z</time>
      </trkpt>
      <trkpt lat="42.65659782104194164276123046875" lon="-0.58268534950911998748779296875">
        <ele>1012</ele>
        <time>2020-08-19T10:39:09.000Z</time>
      </trkpt>
      <trkpt lat="42.65659580938518047332763671875" lon="-0.58286153711378574371337890625">
        <ele>1011</ele>
        <time>2020-08-19T10:39:11.000Z</time>
      </trkpt>
      <trkpt lat="42.65659379772841930389404296875" lon="-0.582952983677387237548828125">
        <ele>1010.5999755859375</ele>
        <time>2020-08-19T10:39:12.000Z</time>
      </trkpt>
      <trkpt lat="42.65657518990337848663330078125" lon="-0.58313746936619281768798828125">
        <ele>1010</ele>
        <time>2020-08-19T10:39:14.000Z</time>
      </trkpt>
      <trkpt lat="42.6565231382846832275390625" lon="-0.583396218717098236083984375">
        <ele>1009</ele>
        <time>2020-08-19T10:39:17.000Z</time>
      </trkpt>
      <trkpt lat="42.6565052010118961334228515625" lon="-0.5834791995584964752197265625">
        <ele>1008.5999755859375</ele>
        <time>2020-08-19T10:39:18.000Z</time>
      </trkpt>
      <trkpt lat="42.65644711442291736602783203125" lon="-0.58383199386298656463623046875">
        <ele>1007.5999755859375</ele>
        <time>2020-08-19T10:39:22.000Z</time>
      </trkpt>
      <trkpt lat="42.6564212143421173095703125" lon="-0.58402544818818569183349609375">
        <ele>1006.79998779296875</ele>
        <time>2020-08-19T10:39:24.000Z</time>
      </trkpt>
      <trkpt lat="42.65640805475413799285888671875" lon="-0.58412544429302215576171875">
        <ele>1006.4000244140625</ele>
        <time>2020-08-19T10:39:25.000Z</time>
      </trkpt>
      <trkpt lat="42.6563608646392822265625" lon="-0.584421493113040924072265625">
        <ele>1005.4000244140625</ele>
        <time>2020-08-19T10:39:28.000Z</time>
      </trkpt>
      <trkpt lat="42.65635340474545955657958984375" lon="-0.5845209024846553802490234375">
        <ele>1005.20001220703125</ele>
        <time>2020-08-19T10:39:29.000Z</time>
      </trkpt>
      <trkpt lat="42.65635491348803043365478515625" lon="-0.58462223969399929046630859375">
        <ele>1004.79998779296875</ele>
        <time>2020-08-19T10:39:30.000Z</time>
      </trkpt>
      <trkpt lat="42.656367234885692596435546875" lon="-0.5847237445414066314697265625">
        <ele>1004.20001220703125</ele>
        <time>2020-08-19T10:39:31.000Z</time>
      </trkpt>
      <trkpt lat="42.65643261373043060302734375" lon="-0.5849148519337177276611328125">
        <ele>1003</ele>
        <time>2020-08-19T10:39:33.000Z</time>
      </trkpt>
      <trkpt lat="42.65654199756681919097900390625" lon="-0.58507771231234073638916015625">
        <ele>1001.79998779296875</ele>
        <time>2020-08-19T10:39:35.000Z</time>
      </trkpt>
      <trkpt lat="42.6566004194319248199462890625" lon="-0.58515281416475772857666015625">
        <ele>1001</ele>
        <time>2020-08-19T10:39:36.000Z</time>
      </trkpt>
      <trkpt lat="42.65665800310671329498291015625" lon="-0.58522942475974559783935546875">
        <ele>1000.4000244140625</ele>
        <time>2020-08-19T10:39:37.000Z</time>
      </trkpt>
      <trkpt lat="42.65677752904593944549560546875" lon="-0.58540217578411102294921875">
        <ele>999</ele>
        <time>2020-08-19T10:39:39.000Z</time>
      </trkpt>
      <trkpt lat="42.656905688345432281494140625" lon="-0.58558565564453601837158203125">
        <ele>997.20001220703125</ele>
        <time>2020-08-19T10:39:41.000Z</time>
      </trkpt>
      <trkpt lat="42.65697148628532886505126953125" lon="-0.58568053878843784332275390625">
        <ele>996.4000244140625</ele>
        <time>2020-08-19T10:39:42.000Z</time>
      </trkpt>
      <trkpt lat="42.657038457691669464111328125" lon="-0.58577902615070343017578125">
        <ele>995.5999755859375</ele>
        <time>2020-08-19T10:39:43.000Z</time>
      </trkpt>
      <trkpt lat="42.6571829617023468017578125" lon="-0.58598362840712070465087890625">
        <ele>994.20001220703125</ele>
        <time>2020-08-19T10:39:45.000Z</time>
      </trkpt>
      <trkpt lat="42.657259404659271240234375" lon="-0.58608756400644779205322265625">
        <ele>993</ele>
        <time>2020-08-19T10:39:46.000Z</time>
      </trkpt>
      <trkpt lat="42.6573340035974979400634765625" lon="-0.5861892364919185638427734375">
        <ele>991.79998779296875</ele>
        <time>2020-08-19T10:39:47.000Z</time>
      </trkpt>
      <trkpt lat="42.65740348957479000091552734375" lon="-0.58629007078707218170166015625">
        <ele>990.5999755859375</ele>
        <time>2020-08-19T10:39:48.000Z</time>
      </trkpt>
      <trkpt lat="42.65746970660984516143798828125" lon="-0.58638981543481349945068359375">
        <ele>989.4000244140625</ele>
        <time>2020-08-19T10:39:49.000Z</time>
      </trkpt>
      <trkpt lat="42.65758931636810302734375" lon="-0.5865816771984100341796875">
        <ele>987.79998779296875</ele>
        <time>2020-08-19T10:39:51.000Z</time>
      </trkpt>
      <trkpt lat="42.6576454751193523406982421875" lon="-0.586671195924282073974609375">
        <ele>987.20001220703125</ele>
        <time>2020-08-19T10:39:52.000Z</time>
      </trkpt>
      <trkpt lat="42.6576994545757770538330078125" lon="-0.5867551825940608978271484375">
        <ele>986.5999755859375</ele>
        <time>2020-08-19T10:39:53.000Z</time>
      </trkpt>
      <trkpt lat="42.65775351785123348236083984375" lon="-0.5868286080658435821533203125">
        <ele>986.4000244140625</ele>
        <time>2020-08-19T10:39:54.000Z</time>
      </trkpt>
      <trkpt lat="42.65786667354404926300048828125" lon="-0.58692022226750850677490234375">
        <ele>986</ele>
        <time>2020-08-19T10:39:56.000Z</time>
      </trkpt>
      <trkpt lat="42.6579874567687511444091796875" lon="-0.5869650654494762420654296875">
        <ele>985.5999755859375</ele>
        <time>2020-08-19T10:39:58.000Z</time>
      </trkpt>
      <trkpt lat="42.65804571099579334259033203125" lon="-0.58698065578937530517578125">
        <ele>985.5999755859375</ele>
        <time>2020-08-19T10:39:59.000Z</time>
      </trkpt>
      <trkpt lat="42.65815366990864276885986328125" lon="-0.58699917979538440704345703125">
        <ele>984.5999755859375</ele>
        <time>2020-08-19T10:40:01.000Z</time>
      </trkpt>
      <trkpt lat="42.658202536404132843017578125" lon="-0.58699733577668666839599609375">
        <ele>984.20001220703125</ele>
        <time>2020-08-19T10:40:02.000Z</time>
      </trkpt>
      <trkpt lat="42.6583267562091350555419921875" lon="-0.5869419313967227935791015625">
        <ele>983</ele>
        <time>2020-08-19T10:40:05.000Z</time>
      </trkpt>
      <trkpt lat="42.65835952945053577423095703125" lon="-0.58691452257335186004638671875">
        <ele>982.79998779296875</ele>
        <time>2020-08-19T10:40:06.000Z</time>
      </trkpt>
      <trkpt lat="42.658505626022815704345703125" lon="-0.58679533191025257110595703125">
        <ele>982</ele>
        <time>2020-08-19T10:40:10.000Z</time>
      </trkpt>
      <trkpt lat="42.65854041092097759246826171875" lon="-0.5867625586688518524169921875">
        <ele>981.79998779296875</ele>
        <time>2020-08-19T10:40:11.000Z</time>
      </trkpt>
      <trkpt lat="42.6586707495152950286865234375" lon="-0.58663037605583667755126953125">
        <ele>981.79998779296875</ele>
        <time>2020-08-19T10:40:16.000Z</time>
      </trkpt>
      <trkpt lat="42.65868256799876689910888671875" lon="-0.58661847375333309173583984375">
        <ele>982.20001220703125</ele>
        <time>2020-08-19T10:40:18.000Z</time>
      </trkpt>
      <trkpt lat="42.65868089161813259124755859375" lon="-0.586617551743984222412109375">
        <ele>981.5999755859375</ele>
        <time>2020-08-19T10:41:26.000Z</time>
      </trkpt>
      <trkpt lat="42.6587009243667125701904296875" lon="-0.5866111814975738525390625">
        <ele>981.79998779296875</ele>
        <time>2020-08-19T10:41:31.000Z</time>
      </trkpt>
      <trkpt lat="42.65871156938374042510986328125" lon="-0.58660254813730716705322265625">
        <ele>981.79998779296875</ele>
        <time>2020-08-19T10:41:32.000Z</time>
      </trkpt>
      <trkpt lat="42.65882288105785846710205078125" lon="-0.5865077488124370574951171875">
        <ele>982</ele>
        <time>2020-08-19T10:41:40.000Z</time>
      </trkpt>
      <trkpt lat="42.65892145223915576934814453125" lon="-0.5864175595343112945556640625">
        <ele>983</ele>
        <time>2020-08-19T10:41:46.000Z</time>
      </trkpt>
      <trkpt lat="42.65895330347120761871337890625" lon="-0.58638445101678371429443359375">
        <ele>983.20001220703125</ele>
        <time>2020-08-19T10:41:48.000Z</time>
      </trkpt>
      <trkpt lat="42.65901382081210613250732421875" lon="-0.5863092653453350067138671875">
        <ele>983.4000244140625</ele>
        <time>2020-08-19T10:41:52.000Z</time>
      </trkpt>
      <trkpt lat="42.6591153256595134735107421875" lon="-0.58610416017472743988037109375">
        <ele>984.20001220703125</ele>
        <time>2020-08-19T10:42:00.000Z</time>
      </trkpt>
      <trkpt lat="42.659129239618778228759765625" lon="-0.58601363562047481536865234375">
        <ele>984.4000244140625</ele>
        <time>2020-08-19T10:42:03.000Z</time>
      </trkpt>
      <trkpt lat="42.6591414771974086761474609375" lon="-0.58590148575603961944580078125">
        <ele>985</ele>
        <time>2020-08-19T10:42:07.000Z</time>
      </trkpt>
      <trkpt lat="42.65914541669189929962158203125" lon="-0.58584750629961490631103515625">
        <ele>985.5999755859375</ele>
        <time>2020-08-19T10:42:09.000Z</time>
      </trkpt>
      <trkpt lat="42.65917777083814144134521484375" lon="-0.5857597477734088897705078125">
        <ele>986.5999755859375</ele>
        <time>2020-08-19T10:42:13.000Z</time>
      </trkpt>
      <trkpt lat="42.65919503755867481231689453125" lon="-0.5857429839670658111572265625">
        <ele>986.79998779296875</ele>
        <time>2020-08-19T10:42:14.000Z</time>
      </trkpt>
      <trkpt lat="42.659257985651493072509765625" lon="-0.58574105612933635711669921875">
        <ele>987</ele>
        <time>2020-08-19T10:42:17.000Z</time>
      </trkpt>
      <trkpt lat="42.659308947622776031494140625" lon="-0.58579285629093647003173828125">
        <ele>987.5999755859375</ele>
        <time>2020-08-19T10:42:20.000Z</time>
      </trkpt>
      <trkpt lat="42.65932478941977024078369140625" lon="-0.58581381104886531829833984375">
        <ele>987.79998779296875</ele>
        <time>2020-08-19T10:42:21.000Z</time>
      </trkpt>
      <trkpt lat="42.6593543775379657745361328125" lon="-0.58585655875504016876220703125">
        <ele>988.4000244140625</ele>
        <time>2020-08-19T10:42:23.000Z</time>
      </trkpt>
      <trkpt lat="42.65937591902911663055419921875" lon="-0.58593199588358402252197265625">
        <ele>988.79998779296875</ele>
        <time>2020-08-19T10:42:26.000Z</time>
      </trkpt>
      <trkpt lat="42.65937809832394123077392578125" lon="-0.58598765172064304351806640625">
        <ele>989.20001220703125</ele>
        <time>2020-08-19T10:42:28.000Z</time>
      </trkpt>
      <trkpt lat="42.659362256526947021484375" lon="-0.58610332198441028594970703125">
        <ele>990</ele>
        <time>2020-08-19T10:42:32.000Z</time>
      </trkpt>
      <trkpt lat="42.6593356020748615264892578125" lon="-0.586185716092586517333984375">
        <ele>990.20001220703125</ele>
        <time>2020-08-19T10:42:35.000Z</time>
      </trkpt>
      <trkpt lat="42.659287489950656890869140625" lon="-0.586421079933643341064453125">
        <ele>990.79998779296875</ele>
        <time>2020-08-19T10:42:43.000Z</time>
      </trkpt>
      <trkpt lat="42.6592829637229442596435546875" lon="-0.58644957840442657470703125">
        <ele>991</ele>
        <time>2020-08-19T10:42:44.000Z</time>
      </trkpt>
      <trkpt lat="42.659268714487552642822265625" lon="-0.58665267191827297210693359375">
        <ele>992.20001220703125</ele>
        <time>2020-08-19T10:42:51.000Z</time>
      </trkpt>
      <trkpt lat="42.65927013941109180450439453125" lon="-0.58671134524047374725341796875">
        <ele>992.4000244140625</ele>
        <time>2020-08-19T10:42:53.000Z</time>
      </trkpt>
      <trkpt lat="42.659281454980373382568359375" lon="-0.58688183315098285675048828125">
        <ele>993.4000244140625</ele>
        <time>2020-08-19T10:42:59.000Z</time>
      </trkpt>
      <trkpt lat="42.65928992070257663726806640625" lon="-0.586995072662830352783203125">
        <ele>994.4000244140625</ele>
        <time>2020-08-19T10:43:03.000Z</time>
      </trkpt>
      <trkpt lat="42.6592893339693546295166015625" lon="-0.58702382259070873260498046875">
        <ele>994.5999755859375</ele>
        <time>2020-08-19T10:43:04.000Z</time>
      </trkpt>
      <trkpt lat="42.65927709639072418212890625" lon="-0.58724460192024707794189453125">
        <ele>995.5999755859375</ele>
        <time>2020-08-19T10:43:12.000Z</time>
      </trkpt>
      <trkpt lat="42.65923392958939075469970703125" lon="-0.58739933185279369354248046875">
        <ele>996.5999755859375</ele>
        <time>2020-08-19T10:43:18.000Z</time>
      </trkpt>
      <trkpt lat="42.659217417240142822265625" lon="-0.58744895271956920623779296875">
        <ele>996.79998779296875</ele>
        <time>2020-08-19T10:43:20.000Z</time>
      </trkpt>
      <trkpt lat="42.6591731607913970947265625" lon="-0.5875714123249053955078125">
        <ele>997.79998779296875</ele>
        <time>2020-08-19T10:43:25.000Z</time>
      </trkpt>
      <trkpt lat="42.659157402813434600830078125" lon="-0.58762178756296634674072265625">
        <ele>998.20001220703125</ele>
        <time>2020-08-19T10:43:27.000Z</time>
      </trkpt>
      <trkpt lat="42.6591302454471588134765625" lon="-0.5876969732344150543212890625">
        <ele>999</ele>
        <time>2020-08-19T10:43:30.000Z</time>
      </trkpt>
      <trkpt lat="42.6590828038752079010009765625" lon="-0.58782127685844898223876953125">
        <ele>1000.20001220703125</ele>
        <time>2020-08-19T10:43:35.000Z</time>
      </trkpt>
      <trkpt lat="42.65907861292362213134765625" lon="-0.58784826658666133880615234375">
        <ele>1000.4000244140625</ele>
        <time>2020-08-19T10:43:36.000Z</time>
      </trkpt>
      <trkpt lat="42.65906293876469135284423828125" lon="-0.58804876171052455902099609375">
        <ele>1001.20001220703125</ele>
        <time>2020-08-19T10:43:43.000Z</time>
      </trkpt>
      <trkpt lat="42.65905774198472499847412109375" lon="-0.58810693211853504180908203125">
        <ele>1001.5999755859375</ele>
        <time>2020-08-19T10:43:45.000Z</time>
      </trkpt>
      <trkpt lat="42.65911138616502285003662109375" lon="-0.58830776251852512359619140625">
        <ele>1001.5999755859375</ele>
        <time>2020-08-19T10:43:50.000Z</time>
      </trkpt>
      <trkpt lat="42.659141980111598968505859375" lon="-0.58835486881434917449951171875">
        <ele>1001.20001220703125</ele>
        <time>2020-08-19T10:43:51.000Z</time>
      </trkpt>
      <trkpt lat="42.6592608354985713958740234375" lon="-0.588503144681453704833984375">
        <ele>1000.4000244140625</ele>
        <time>2020-08-19T10:43:54.000Z</time>
      </trkpt>
      <trkpt lat="42.65930886380374431610107421875" lon="-0.5885519273579120635986328125">
        <ele>1000.20001220703125</ele>
        <time>2020-08-19T10:43:55.000Z</time>
      </trkpt>
      <trkpt lat="42.6595364324748516082763671875" lon="-0.588753931224346160888671875">
        <ele>999</ele>
        <time>2020-08-19T10:43:59.000Z</time>
      </trkpt>
      <trkpt lat="42.6597409509122371673583984375" lon="-0.58889734558761119842529296875">
        <ele>997.5999755859375</ele>
        <time>2020-08-19T10:44:02.000Z</time>
      </trkpt>
      <trkpt lat="42.65996952541172504425048828125" lon="-0.589033551514148712158203125">
        <ele>996.5999755859375</ele>
        <time>2020-08-19T10:44:05.000Z</time>
      </trkpt>
      <trkpt lat="42.66004848293960094451904296875" lon="-0.5890783108770847320556640625">
        <ele>996.4000244140625</ele>
        <time>2020-08-19T10:44:06.000Z</time>
      </trkpt>
      <trkpt lat="42.66029356978833675384521484375" lon="-0.58921434916555881500244140625">
        <ele>995.20001220703125</ele>
        <time>2020-08-19T10:44:09.000Z</time>
      </trkpt>
      <trkpt lat="42.66046799719333648681640625" lon="-0.589289031922817230224609375">
        <ele>993.79998779296875</ele>
        <time>2020-08-19T10:44:11.000Z</time>
      </trkpt>
      <trkpt lat="42.6605573482811450958251953125" lon="-0.58932113461196422576904296875">
        <ele>993.4000244140625</ele>
        <time>2020-08-19T10:44:12.000Z</time>
      </trkpt>
      <trkpt lat="42.6607404090464115142822265625" lon="-0.58938584290444850921630859375">
        <ele>992.5999755859375</ele>
        <time>2020-08-19T10:44:14.000Z</time>
      </trkpt>
      <trkpt lat="42.66101743094623088836669921875" lon="-0.58950017206370830535888671875">
        <ele>991.20001220703125</ele>
        <time>2020-08-19T10:44:17.000Z</time>
      </trkpt>
      <trkpt lat="42.66110242344439029693603515625" lon="-0.58955515734851360321044921875">
        <ele>990.79998779296875</ele>
        <time>2020-08-19T10:44:18.000Z</time>
      </trkpt>
      <trkpt lat="42.66118255443871021270751953125" lon="-0.58961651287972927093505859375">
        <ele>990.20001220703125</ele>
        <time>2020-08-19T10:44:19.000Z</time>
      </trkpt>
      <trkpt lat="42.66147424466907978057861328125" lon="-0.58987450785934925079345703125">
        <ele>989.4000244140625</ele>
        <time>2020-08-19T10:44:23.000Z</time>
      </trkpt>
      <trkpt lat="42.66155370511114597320556640625" lon="-0.590050108730792999267578125">
        <ele>989.20001220703125</ele>
        <time>2020-08-19T10:44:25.000Z</time>
      </trkpt>
      <trkpt lat="42.661563344299793243408203125" lon="-0.590238533914089202880859375">
        <ele>989.5999755859375</ele>
        <time>2020-08-19T10:44:27.000Z</time>
      </trkpt>
      <trkpt lat="42.6615628413856029510498046875" lon="-0.59032402932643890380859375">
        <ele>990</ele>
        <time>2020-08-19T10:44:28.000Z</time>
      </trkpt>
      <trkpt lat="42.66156208701431751251220703125" lon="-0.5904710479080677032470703125">
        <ele>990.4000244140625</ele>
        <time>2020-08-19T10:44:30.000Z</time>
      </trkpt>
      <trkpt lat="42.66157650388777256011962890625" lon="-0.5906738899648189544677734375">
        <ele>990.79998779296875</ele>
        <time>2020-08-19T10:44:33.000Z</time>
      </trkpt>
      <trkpt lat="42.66166535206139087677001953125" lon="-0.59082786552608013153076171875">
        <ele>991</ele>
        <time>2020-08-19T10:44:36.000Z</time>
      </trkpt>
      <trkpt lat="42.66173508949577808380126953125" lon="-0.59088838286697864532470703125">
        <ele>991</ele>
        <time>2020-08-19T10:44:38.000Z</time>
      </trkpt>
      <trkpt lat="42.6618109457194805145263671875" lon="-0.590958036482334136962890625">
        <ele>991.20001220703125</ele>
        <time>2020-08-19T10:44:41.000Z</time>
      </trkpt>
      <trkpt lat="42.6618511788547039031982421875" lon="-0.5910024605691432952880859375">
        <ele>991.5999755859375</ele>
        <time>2020-08-19T10:44:43.000Z</time>
      </trkpt>
      <trkpt lat="42.66191630624234676361083984375" lon="-0.59107848443090915679931640625">
        <ele>992.20001220703125</ele>
        <time>2020-08-19T10:44:47.000Z</time>
      </trkpt>
      <trkpt lat="42.661950923502445220947265625" lon="-0.5911151133477687835693359375">
        <ele>992.5999755859375</ele>
        <time>2020-08-19T10:44:49.000Z</time>
      </trkpt>
      <trkpt lat="42.6620466448366641998291015625" lon="-0.59121762402355670928955078125">
        <ele>993.20001220703125</ele>
        <time>2020-08-19T10:44:54.000Z</time>
      </trkpt>
      <trkpt lat="42.66210171394050121307373046875" lon="-0.59128048829734325408935546875">
        <ele>993.5999755859375</ele>
        <time>2020-08-19T10:44:57.000Z</time>
      </trkpt>
      <trkpt lat="42.66218285076320171356201171875" lon="-0.59139079414308071136474609375">
        <ele>994.79998779296875</ele>
        <time>2020-08-19T10:45:02.000Z</time>
      </trkpt>
      <trkpt lat="42.6622900553047657012939453125" lon="-0.59150814078748226165771484375">
        <ele>995.79998779296875</ele>
        <time>2020-08-19T10:45:08.000Z</time>
      </trkpt>
      <trkpt lat="42.662308327853679656982421875" lon="-0.591529347002506256103515625">
        <ele>996</ele>
        <time>2020-08-19T10:45:09.000Z</time>
      </trkpt>
      <trkpt lat="42.6623946614563465118408203125" lon="-0.59163504280149936676025390625">
        <ele>997.20001220703125</ele>
        <time>2020-08-19T10:45:14.000Z</time>
      </trkpt>
      <trkpt lat="42.6624449528753757476806640625" lon="-0.5916968174278736114501953125">
        <ele>997.5999755859375</ele>
        <time>2020-08-19T10:45:17.000Z</time>
      </trkpt>
      <trkpt lat="42.662533633410930633544921875" lon="-0.591796897351741790771484375">
        <ele>998.20001220703125</ele>
        <time>2020-08-19T10:45:22.000Z</time>
      </trkpt>
      <trkpt lat="42.6626042090356349945068359375" lon="-0.59188415296375751495361328125">
        <ele>999</ele>
        <time>2020-08-19T10:45:26.000Z</time>
      </trkpt>
      <trkpt lat="42.66263932920992374420166015625" lon="-0.59192321263253688812255859375">
        <ele>999.20001220703125</ele>
        <time>2020-08-19T10:45:28.000Z</time>
      </trkpt>
      <trkpt lat="42.6626987569034099578857421875" lon="-0.5920170061290264129638671875">
        <ele>1000.20001220703125</ele>
        <time>2020-08-19T10:45:32.000Z</time>
      </trkpt>
      <trkpt lat="42.6627128385007381439208984375" lon="-0.59204089455306529998779296875">
        <ele>1000.4000244140625</ele>
        <time>2020-08-19T10:45:33.000Z</time>
      </trkpt>
      <trkpt lat="42.662801854312419891357421875" lon="-0.59221473522484302520751953125">
        <ele>1001.4000244140625</ele>
        <time>2020-08-19T10:45:40.000Z</time>
      </trkpt>
      <trkpt lat="42.6628570072352886199951171875" lon="-0.59233702719211578369140625">
        <ele>1002.4000244140625</ele>
        <time>2020-08-19T10:45:45.000Z</time>
      </trkpt>
      <trkpt lat="42.66290956176817417144775390625" lon="-0.59242076240479946136474609375">
        <ele>1003.20001220703125</ele>
        <time>2020-08-19T10:45:49.000Z</time>
      </trkpt>
      <trkpt lat="42.66293521039187908172607421875" lon="-0.59245772659778594970703125">
        <ele>1003.4000244140625</ele>
        <time>2020-08-19T10:45:51.000Z</time>
      </trkpt>
      <trkpt lat="42.6630145870149135589599609375" lon="-0.5925283022224903106689453125">
        <ele>1004.4000244140625</ele>
        <time>2020-08-19T10:45:56.000Z</time>
      </trkpt>
      <trkpt lat="42.6630328595638275146484375" lon="-0.59253819286823272705078125">
        <ele>1004.5999755859375</ele>
        <time>2020-08-19T10:45:57.000Z</time>
      </trkpt>
      <trkpt lat="42.66315699554979801177978515625" lon="-0.59261052869260311126708984375">
        <ele>1005.79998779296875</ele>
        <time>2020-08-19T10:46:04.000Z</time>
      </trkpt>
      <trkpt lat="42.6632278226315975189208984375" lon="-0.59264958836138248443603515625">
        <ele>1006.5999755859375</ele>
        <time>2020-08-19T10:46:08.000Z</time>
      </trkpt>
      <trkpt lat="42.66326143406331539154052734375" lon="-0.5926721356809139251708984375">
        <ele>1007</ele>
        <time>2020-08-19T10:46:10.000Z</time>
      </trkpt>
      <trkpt lat="42.66338012181222438812255859375" lon="-0.5927529372274875640869140625">
        <ele>1008.20001220703125</ele>
        <time>2020-08-19T10:46:17.000Z</time>
      </trkpt>
      <trkpt lat="42.66339738853275775909423828125" lon="-0.59276374988257884979248046875">
        <ele>1008.20001220703125</ele>
        <time>2020-08-19T10:46:18.000Z</time>
      </trkpt>
      <trkpt lat="42.6634886674582958221435546875" lon="-0.59281446039676666259765625">
        <ele>1009.4000244140625</ele>
        <time>2020-08-19T10:46:23.000Z</time>
      </trkpt>
      <trkpt lat="42.66352546401321887969970703125" lon="-0.5928364209830760955810546875">
        <ele>1009.5999755859375</ele>
        <time>2020-08-19T10:46:25.000Z</time>
      </trkpt>
      <trkpt lat="42.66357961110770702362060546875" lon="-0.592871792614459991455078125">
        <ele>1010.20001220703125</ele>
        <time>2020-08-19T10:46:28.000Z</time>
      </trkpt>
      <trkpt lat="42.66359687782824039459228515625" lon="-0.59288428165018558502197265625">
        <ele>1010.4000244140625</ele>
        <time>2020-08-19T10:46:29.000Z</time>
      </trkpt>
      <trkpt lat="42.66368505544960498809814453125" lon="-0.5929832719266414642333984375">
        <ele>1011.4000244140625</ele>
        <time>2020-08-19T10:46:35.000Z</time>
      </trkpt>
      <trkpt lat="42.66371615231037139892578125" lon="-0.5930137820541858673095703125">
        <ele>1011.79998779296875</ele>
        <time>2020-08-19T10:46:37.000Z</time>
      </trkpt>
      <trkpt lat="42.66376443207263946533203125" lon="-0.59305854141712188720703125">
        <ele>1012.5999755859375</ele>
        <time>2020-08-19T10:46:40.000Z</time>
      </trkpt>
      <trkpt lat="42.6638252846896648406982421875" lon="-0.59312316589057445526123046875">
        <ele>1013.20001220703125</ele>
        <time>2020-08-19T10:46:44.000Z</time>
      </trkpt>
      <trkpt lat="42.66385621391236782073974609375" lon="-0.59315484948456287384033203125">
        <ele>1013.5999755859375</ele>
        <time>2020-08-19T10:46:46.000Z</time>
      </trkpt>
      <trkpt lat="42.66395260579884052276611328125" lon="-0.5932387523353099822998046875">
        <ele>1014.5999755859375</ele>
        <time>2020-08-19T10:46:52.000Z</time>
      </trkpt>
      <trkpt lat="42.6639878936111927032470703125" lon="-0.59326238930225372314453125">
        <ele>1015</ele>
        <time>2020-08-19T10:46:54.000Z</time>
      </trkpt>
      <trkpt lat="42.6640435494482517242431640625" lon="-0.59329298324882984161376953125">
        <ele>1015.79998779296875</ele>
        <time>2020-08-19T10:46:57.000Z</time>
      </trkpt>
      <trkpt lat="42.66415477730333805084228515625" lon="-0.59334930963814258575439453125">
        <ele>1016.5999755859375</ele>
        <time>2020-08-19T10:47:03.000Z</time>
      </trkpt>
      <trkpt lat="42.6641733013093471527099609375" lon="-0.59335601516067981719970703125">
        <ele>1016.79998779296875</ele>
        <time>2020-08-19T10:47:04.000Z</time>
      </trkpt>
      <trkpt lat="42.66428067348897457122802734375" lon="-0.5934100784361362457275390625">
        <ele>1018</ele>
        <time>2020-08-19T10:47:10.000Z</time>
      </trkpt>
      <trkpt lat="42.664336077868938446044921875" lon="-0.593431033194065093994140625">
        <ele>1018.4000244140625</ele>
        <time>2020-08-19T10:47:13.000Z</time>
      </trkpt>
      <trkpt lat="42.66439215280115604400634765625" lon="-0.5934503115713596343994140625">
        <ele>1019</ele>
        <time>2020-08-19T10:47:16.000Z</time>
      </trkpt>
      <trkpt lat="42.6645082421600818634033203125" lon="-0.59348694048821926116943359375">
        <ele>1020</ele>
        <time>2020-08-19T10:47:22.000Z</time>
      </trkpt>
      <trkpt lat="42.66452760435640811920166015625" lon="-0.5934959091246128082275390625">
        <ele>1020.20001220703125</ele>
        <time>2020-08-19T10:47:23.000Z</time>
      </trkpt>
      <trkpt lat="42.66466724686324596405029296875" lon="-0.59353890828788280487060546875">
        <ele>1021.20001220703125</ele>
        <time>2020-08-19T10:47:30.000Z</time>
      </trkpt>
      <trkpt lat="42.6648207195103168487548828125" lon="-0.59360847808420658111572265625">
        <ele>1022.4000244140625</ele>
        <time>2020-08-19T10:47:38.000Z</time>
      </trkpt>
      <trkpt lat="42.6648596115410327911376953125" lon="-0.59362582862377166748046875">
        <ele>1023</ele>
        <time>2020-08-19T10:47:40.000Z</time>
      </trkpt>
      <trkpt lat="42.66494049690663814544677734375" lon="-0.59366396628320217132568359375">
        <ele>1023.4000244140625</ele>
        <time>2020-08-19T10:47:44.000Z</time>
      </trkpt>
      <trkpt lat="42.66503755934536457061767578125" lon="-0.59370906092226505279541015625">
        <ele>1024.5999755859375</ele>
        <time>2020-08-19T10:47:49.000Z</time>
      </trkpt>
      <trkpt lat="42.66519010998308658599853515625" lon="-0.5937450192868709564208984375">
        <ele>1025.4000244140625</ele>
        <time>2020-08-19T10:47:56.000Z</time>
      </trkpt>
      <trkpt lat="42.66526185907423496246337890625" lon="-0.593752898275852203369140625">
        <ele>1025.5999755859375</ele>
        <time>2020-08-19T10:47:59.000Z</time>
      </trkpt>
      <trkpt lat="42.665341235697269439697265625" lon="-0.5937646329402923583984375">
        <ele>1025.800048828125</ele>
        <time>2020-08-19T10:48:02.000Z</time>
      </trkpt>
      <trkpt lat="42.665629573166370391845703125" lon="-0.59379656799137592315673828125">
        <ele>1026</ele>
        <time>2020-08-19T10:48:12.000Z</time>
      </trkpt>
      <trkpt lat="42.6658389531075954437255859375" lon="-0.59383931569755077362060546875">
        <ele>1025.800048828125</ele>
        <time>2020-08-19T10:48:20.000Z</time>
      </trkpt>
      <trkpt lat="42.6660773344337940216064453125" lon="-0.59394769370555877685546875">
        <ele>1025.4000244140625</ele>
        <time>2020-08-19T10:48:29.000Z</time>
      </trkpt>
      <trkpt lat="42.666245810687541961669921875" lon="-0.594027154147624969482421875">
        <ele>1025.4000244140625</ele>
        <time>2020-08-19T10:48:36.000Z</time>
      </trkpt>
      <trkpt lat="42.666430883109569549560546875" lon="-0.59412430040538311004638671875">
        <ele>1026</ele>
        <time>2020-08-19T10:48:45.000Z</time>
      </trkpt>
      <trkpt lat="42.6665078289806842803955078125" lon="-0.594149194657802581787109375">
        <ele>1026.800048828125</ele>
        <time>2020-08-19T10:48:49.000Z</time>
      </trkpt>
      <trkpt lat="42.66658552922308444976806640625" lon="-0.5941455066204071044921875">
        <ele>1027.5999755859375</ele>
        <time>2020-08-19T10:48:53.000Z</time>
      </trkpt>
      <trkpt lat="42.666605226695537567138671875" lon="-0.5941423214972019195556640625">
        <ele>1027.800048828125</ele>
        <time>2020-08-19T10:48:54.000Z</time>
      </trkpt>
      <trkpt lat="42.6667208969593048095703125" lon="-0.5941041000187397003173828125">
        <ele>1029</ele>
        <time>2020-08-19T10:49:00.000Z</time>
      </trkpt>
      <trkpt lat="42.666760794818401336669921875" lon="-0.59408985078334808349609375">
        <ele>1029.199951171875</ele>
        <time>2020-08-19T10:49:02.000Z</time>
      </trkpt>
      <trkpt lat="42.6668390817940235137939453125" lon="-0.59406244195997714996337890625">
        <ele>1030</ele>
        <time>2020-08-19T10:49:06.000Z</time>
      </trkpt>
      <trkpt lat="42.6669399999082088470458984375" lon="-0.59403142891824245452880859375">
        <ele>1031.199951171875</ele>
        <time>2020-08-19T10:49:11.000Z</time>
      </trkpt>
      <trkpt lat="42.66698115505278110504150390625" lon="-0.594020783901214599609375">
        <ele>1031.800048828125</ele>
        <time>2020-08-19T10:49:13.000Z</time>
      </trkpt>
      <trkpt lat="42.66704477369785308837890625" lon="-0.594008378684520721435546875">
        <ele>1032.199951171875</ele>
        <time>2020-08-19T10:49:16.000Z</time>
      </trkpt>
      <trkpt lat="42.6671321131289005279541015625" lon="-0.5940006673336029052734375">
        <ele>1033.4000244140625</ele>
        <time>2020-08-19T10:49:20.000Z</time>
      </trkpt>
      <trkpt lat="42.66722037456929683685302734375" lon="-0.59400611557066440582275390625">
        <ele>1033.800048828125</ele>
        <time>2020-08-19T10:49:24.000Z</time>
      </trkpt>
      <trkpt lat="42.66725935041904449462890625" lon="-0.59403360821306705474853515625">
        <ele>1034.800048828125</ele>
        <time>2020-08-19T10:49:26.000Z</time>
      </trkpt>
      <trkpt lat="42.66729514114558696746826171875" lon="-0.59410820715129375457763671875">
        <ele>1035.5999755859375</ele>
        <time>2020-08-19T10:49:29.000Z</time>
      </trkpt>
      <trkpt lat="42.6672695763409137725830078125" lon="-0.59424047358334064483642578125">
        <ele>1036.5999755859375</ele>
        <time>2020-08-19T10:49:34.000Z</time>
      </trkpt>
      <trkpt lat="42.66712163574993610382080078125" lon="-0.59436880052089691162109375">
        <ele>1037.5999755859375</ele>
        <time>2020-08-19T10:49:42.000Z</time>
      </trkpt>
      <trkpt lat="42.667100094258785247802734375" lon="-0.5943803675472736358642578125">
        <ele>1038</ele>
        <time>2020-08-19T10:49:43.000Z</time>
      </trkpt>
      <trkpt lat="42.666990123689174652099609375" lon="-0.59448237530887126922607421875">
        <ele>1038.5999755859375</ele>
        <time>2020-08-19T10:49:49.000Z</time>
      </trkpt>
      <trkpt lat="42.66687269322574138641357421875" lon="-0.59458882547914981842041015625">
        <ele>1039.199951171875</ele>
        <time>2020-08-19T10:49:55.000Z</time>
      </trkpt>
      <trkpt lat="42.66685240902006626129150390625" lon="-0.59460617601871490478515625">
        <ele>1039.199951171875</ele>
        <time>2020-08-19T10:49:56.000Z</time>
      </trkpt>
      <trkpt lat="42.6668125949800014495849609375" lon="-0.594644732773303985595703125">
        <ele>1039.5999755859375</ele>
        <time>2020-08-19T10:49:58.000Z</time>
      </trkpt>
      <trkpt lat="42.666761465370655059814453125" lon="-0.5947129614651203155517578125">
        <ele>1040</ele>
        <time>2020-08-19T10:50:01.000Z</time>
      </trkpt>
      <trkpt lat="42.66672668047249317169189453125" lon="-0.5947944335639476776123046875">
        <ele>1040.4000244140625</ele>
        <time>2020-08-19T10:50:04.000Z</time>
      </trkpt>
      <trkpt lat="42.6667452044785022735595703125" lon="-0.594910271465778350830078125">
        <ele>1041</ele>
        <time>2020-08-19T10:50:08.000Z</time>
      </trkpt>
      <trkpt lat="42.66676439903676509857177734375" lon="-0.59493030421435832977294921875">
        <ele>1041.199951171875</ele>
        <time>2020-08-19T10:50:09.000Z</time>
      </trkpt>
      <trkpt lat="42.66682743094861507415771484375" lon="-0.5949453078210353851318359375">
        <ele>1041.800048828125</ele>
        <time>2020-08-19T10:50:12.000Z</time>
      </trkpt>
      <trkpt lat="42.666888535022735595703125" lon="-0.59491454623639583587646484375">
        <ele>1042.4000244140625</ele>
        <time>2020-08-19T10:50:15.000Z</time>
      </trkpt>
      <trkpt lat="42.66696162521839141845703125" lon="-0.594866685569286346435546875">
        <ele>1043</ele>
        <time>2020-08-19T10:50:19.000Z</time>
      </trkpt>
      <trkpt lat="42.6670248247683048248291015625" lon="-0.59480742551386356353759765625">
        <ele>1043.5999755859375</ele>
        <time>2020-08-19T10:50:23.000Z</time>
      </trkpt>
      <trkpt lat="42.667090035974979400634765625" lon="-0.59475478716194629669189453125">
        <ele>1044.5999755859375</ele>
        <time>2020-08-19T10:50:27.000Z</time>
      </trkpt>
      <trkpt lat="42.6671059615910053253173828125" lon="-0.5947428010404109954833984375">
        <ele>1044.800048828125</ele>
        <time>2020-08-19T10:50:28.000Z</time>
      </trkpt>
      <trkpt lat="42.6671642996370792388916015625" lon="-0.59468328952789306640625">
        <ele>1045.800048828125</ele>
        <time>2020-08-19T10:50:32.000Z</time>
      </trkpt>
      <trkpt lat="42.66722473315894603729248046875" lon="-0.59462654404342174530029296875">
        <ele>1047</ele>
        <time>2020-08-19T10:50:36.000Z</time>
      </trkpt>
      <trkpt lat="42.667267061769962310791015625" lon="-0.594582371413707733154296875">
        <ele>1047.5999755859375</ele>
        <time>2020-08-19T10:50:39.000Z</time>
      </trkpt>
      <trkpt lat="42.66731022857129573822021484375" lon="-0.59454046189785003662109375">
        <ele>1048</ele>
        <time>2020-08-19T10:50:42.000Z</time>
      </trkpt>
      <trkpt lat="42.6674113981425762176513671875" lon="-0.59444130398333072662353515625">
        <ele>1049</ele>
        <time>2020-08-19T10:50:49.000Z</time>
      </trkpt>
      <trkpt lat="42.66748440451920032501220703125" lon="-0.5943679623305797576904296875">
        <ele>1050</ele>
        <time>2020-08-19T10:50:54.000Z</time>
      </trkpt>
      <trkpt lat="42.6675294153392314910888671875" lon="-0.59432563371956348419189453125">
        <ele>1050.800048828125</ele>
        <time>2020-08-19T10:50:57.000Z</time>
      </trkpt>
      <trkpt lat="42.6675750128924846649169921875" lon="-0.5942903459072113037109375">
        <ele>1051.199951171875</ele>
        <time>2020-08-19T10:51:00.000Z</time>
      </trkpt>
      <trkpt lat="42.66766612417995929718017578125" lon="-0.59421365149319171905517578125">
        <ele>1052.4000244140625</ele>
        <time>2020-08-19T10:51:06.000Z</time>
      </trkpt>
      <trkpt lat="42.66768054105341434478759765625" lon="-0.59419873170554637908935546875">
        <ele>1052.5999755859375</ele>
        <time>2020-08-19T10:51:07.000Z</time>
      </trkpt>
      <trkpt lat="42.66773954965174198150634765625" lon="-0.5941530503332614898681640625">
        <ele>1053.4000244140625</ele>
        <time>2020-08-19T10:51:11.000Z</time>
      </trkpt>
      <trkpt lat="42.66776100732386112213134765625" lon="-0.5941396392881870269775390625">
        <ele>1054</ele>
        <time>2020-08-19T10:51:14.000Z</time>
      </trkpt>
      <trkpt lat="42.667796127498149871826171875" lon="-0.5941325984895229339599609375">
        <ele>1055.199951171875</ele>
        <time>2020-08-19T10:55:16.000Z</time>
      </trkpt>
      <trkpt lat="42.6678469218313694000244140625" lon="-0.59414324350655078887939453125">
        <ele>1055.5999755859375</ele>
        <time>2020-08-19T10:55:22.000Z</time>
      </trkpt>
      <trkpt lat="42.66795211471617221832275390625" lon="-0.59413435868918895721435546875">
        <ele>1056.199951171875</ele>
        <time>2020-08-19T10:55:28.000Z</time>
      </trkpt>
      <trkpt lat="42.6680236123502254486083984375" lon="-0.59413603506982326507568359375">
        <ele>1057</ele>
        <time>2020-08-19T10:55:32.000Z</time>
      </trkpt>
      <trkpt lat="42.6680591516196727752685546875" lon="-0.59413276612758636474609375">
        <ele>1057.4000244140625</ele>
        <time>2020-08-19T10:55:34.000Z</time>
      </trkpt>
      <trkpt lat="42.66816266812384128570556640625" lon="-0.5941025912761688232421875">
        <ele>1058.4000244140625</ele>
        <time>2020-08-19T10:55:40.000Z</time>
      </trkpt>
      <trkpt lat="42.66819703392684459686279296875" lon="-0.5940930359065532684326171875">
        <ele>1058.800048828125</ele>
        <time>2020-08-19T10:55:42.000Z</time>
      </trkpt>
      <trkpt lat="42.6682475768029689788818359375" lon="-0.59407065622508525848388671875">
        <ele>1059.5999755859375</ele>
        <time>2020-08-19T10:55:45.000Z</time>
      </trkpt>
      <trkpt lat="42.6683297194540500640869140625" lon="-0.5940400622785091400146484375">
        <ele>1060.5999755859375</ele>
        <time>2020-08-19T10:55:50.000Z</time>
      </trkpt>
      <trkpt lat="42.6683464832603931427001953125" lon="-0.594037212431430816650390625">
        <ele>1060.800048828125</ele>
        <time>2020-08-19T10:55:51.000Z</time>
      </trkpt>
      <trkpt lat="42.668430469930171966552734375" lon="-0.59401080943644046783447265625">
        <ele>1061.4000244140625</ele>
        <time>2020-08-19T10:55:56.000Z</time>
      </trkpt>
      <trkpt lat="42.66848118044435977935791015625" lon="-0.594001002609729766845703125">
        <ele>1062</ele>
        <time>2020-08-19T10:55:59.000Z</time>
      </trkpt>
      <trkpt lat="42.66853214241564273834228515625" lon="-0.593992285430431365966796875">
        <ele>1062.5999755859375</ele>
        <time>2020-08-19T10:56:02.000Z</time>
      </trkpt>
      <trkpt lat="42.668655104935169219970703125" lon="-0.5939792096614837646484375">
        <ele>1063.800048828125</ele>
        <time>2020-08-19T10:56:09.000Z</time>
      </trkpt>
      <trkpt lat="42.6686894707381725311279296875" lon="-0.5939760245382785797119140625">
        <ele>1064.199951171875</ele>
        <time>2020-08-19T10:56:11.000Z</time>
      </trkpt>
      <trkpt lat="42.66875828616321086883544921875" lon="-0.5939711630344390869140625">
        <ele>1064.800048828125</ele>
        <time>2020-08-19T10:56:15.000Z</time>
      </trkpt>
      <trkpt lat="42.66884529031813144683837890625" lon="-0.5939595960080623626708984375">
        <ele>1066</ele>
        <time>2020-08-19T10:56:20.000Z</time>
      </trkpt>
      <trkpt lat="42.66889759339392185211181640625" lon="-0.593962110579013824462890625">
        <ele>1066.4000244140625</ele>
        <time>2020-08-19T10:56:23.000Z</time>
      </trkpt>
      <trkpt lat="42.6689499802887439727783203125" lon="-0.59396244585514068603515625">
        <ele>1067</ele>
        <time>2020-08-19T10:56:26.000Z</time>
      </trkpt>
      <trkpt lat="42.66903907991945743560791015625" lon="-0.59396244585514068603515625">
        <ele>1068.199951171875</ele>
        <time>2020-08-19T10:56:31.000Z</time>
      </trkpt>
      <trkpt lat="42.6690941490232944488525390625" lon="-0.593961775302886962890625">
        <ele>1068.4000244140625</ele>
        <time>2020-08-19T10:56:34.000Z</time>
      </trkpt>
      <trkpt lat="42.66918173991143703460693359375" lon="-0.5939800478518009185791015625">
        <ele>1069.199951171875</ele>
        <time>2020-08-19T10:56:39.000Z</time>
      </trkpt>
      <trkpt lat="42.66920168884098529815673828125" lon="-0.5940152518451213836669921875">
        <ele>1069.5999755859375</ele>
        <time>2020-08-19T10:56:41.000Z</time>
      </trkpt>
      <trkpt lat="42.6692024432122707366943359375" lon="-0.5940896831452846527099609375">
        <ele>1070.4000244140625</ele>
        <time>2020-08-19T10:56:44.000Z</time>
      </trkpt>
      <trkpt lat="42.6691840030252933502197265625" lon="-0.59413402341306209564208984375">
        <ele>1070.5999755859375</ele>
        <time>2020-08-19T10:56:46.000Z</time>
      </trkpt>
      <trkpt lat="42.66911468468606472015380859375" lon="-0.59417526237666606903076171875">
        <ele>1071.4000244140625</ele>
        <time>2020-08-19T10:56:50.000Z</time>
      </trkpt>
      <trkpt lat="42.6690946519374847412109375" lon="-0.594174675643444061279296875">
        <ele>1071.5999755859375</ele>
        <time>2020-08-19T10:56:51.000Z</time>
      </trkpt>
      <trkpt lat="42.66905517317354679107666015625" lon="-0.59417576529085636138916015625">
        <ele>1071.800048828125</ele>
        <time>2020-08-19T10:56:53.000Z</time>
      </trkpt>
      <trkpt lat="42.66895710490643978118896484375" lon="-0.5941684730350971221923828125">
        <ele>1072.5999755859375</ele>
        <time>2020-08-19T10:56:58.000Z</time>
      </trkpt>
      <trkpt lat="42.6689208112657070159912109375" lon="-0.59417408891022205352783203125">
        <ele>1072.800048828125</ele>
        <time>2020-08-19T10:57:00.000Z</time>
      </trkpt>
      <trkpt lat="42.66880430281162261962890625" lon="-0.59423041529953479766845703125">
        <ele>1073.5999755859375</ele>
        <time>2020-08-19T10:57:07.000Z</time>
      </trkpt>
      <trkpt lat="42.6687702722847461700439453125" lon="-0.5942429043352603912353515625">
        <ele>1074.199951171875</ele>
        <time>2020-08-19T10:57:09.000Z</time>
      </trkpt>
      <trkpt lat="42.66872660256922245025634765625" lon="-0.59427768923342227935791015625">
        <ele>1074.800048828125</ele>
        <time>2020-08-19T10:57:12.000Z</time>
      </trkpt>
      <trkpt lat="42.6686693541705608367919921875" lon="-0.59433015994727611541748046875">
        <ele>1075.5999755859375</ele>
        <time>2020-08-19T10:57:16.000Z</time>
      </trkpt>
      <trkpt lat="42.6686234213411808013916015625" lon="-0.5943669565021991729736328125">
        <ele>1076.199951171875</ele>
        <time>2020-08-19T10:57:19.000Z</time>
      </trkpt>
      <trkpt lat="42.66855544410645961761474609375" lon="-0.59443929232656955718994140625">
        <ele>1077</ele>
        <time>2020-08-19T10:57:24.000Z</time>
      </trkpt>
      <trkpt lat="42.66851839609444141387939453125" lon="-0.59449025429785251617431640625">
        <ele>1077.199951171875</ele>
        <time>2020-08-19T10:57:27.000Z</time>
      </trkpt>
      <trkpt lat="42.6684561185538768768310546875" lon="-0.594573318958282470703125">
        <ele>1078.4000244140625</ele>
        <time>2020-08-19T10:57:32.000Z</time>
      </trkpt>
      <trkpt lat="42.6684455573558807373046875" lon="-0.59459536336362361907958984375">
        <ele>1078.5999755859375</ele>
        <time>2020-08-19T10:57:33.000Z</time>
      </trkpt>
      <trkpt lat="42.6683865487575531005859375" lon="-0.59474959038197994232177734375">
        <ele>1079.4000244140625</ele>
        <time>2020-08-19T10:57:40.000Z</time>
      </trkpt>
      <trkpt lat="42.66832561232149600982666015625" lon="-0.59491404332220554351806640625">
        <ele>1080.5999755859375</ele>
        <time>2020-08-19T10:57:47.000Z</time>
      </trkpt>
      <trkpt lat="42.66831773333251476287841796875" lon="-0.5949375964701175689697265625">
        <ele>1080.800048828125</ele>
        <time>2020-08-19T10:57:48.000Z</time>
      </trkpt>
      <trkpt lat="42.66826727427542209625244140625" lon="-0.59505083598196506500244140625">
        <ele>1081.5999755859375</ele>
        <time>2020-08-19T10:57:53.000Z</time>
      </trkpt>
      <trkpt lat="42.668227292597293853759765625" lon="-0.59513918124139308929443359375">
        <ele>1082.199951171875</ele>
        <time>2020-08-19T10:57:57.000Z</time>
      </trkpt>
      <trkpt lat="42.66819485463201999664306640625" lon="-0.59520305134356021881103515625">
        <ele>1082.5999755859375</ele>
        <time>2020-08-19T10:58:00.000Z</time>
      </trkpt>
      <trkpt lat="42.66815244220197200775146484375" lon="-0.59528854675590991973876953125">
        <ele>1083.5999755859375</ele>
        <time>2020-08-19T10:58:04.000Z</time>
      </trkpt>
      <trkpt lat="42.66812930814921855926513671875" lon="-0.595329701900482177734375">
        <ele>1084.199951171875</ele>
        <time>2020-08-19T10:58:06.000Z</time>
      </trkpt>
      <trkpt lat="42.66806401312351226806640625" lon="-0.59545601718127727508544921875">
        <ele>1084.800048828125</ele>
        <time>2020-08-19T10:58:12.000Z</time>
      </trkpt>
      <trkpt lat="42.66801816411316394805908203125" lon="-0.595536567270755767822265625">
        <ele>1085.199951171875</ele>
        <time>2020-08-19T10:58:16.000Z</time>
      </trkpt>
      <trkpt lat="42.66797005198895931243896484375" lon="-0.59561208821833133697509765625">
        <ele>1086</ele>
        <time>2020-08-19T10:58:20.000Z</time>
      </trkpt>
      <trkpt lat="42.66788640059530735015869140625" lon="-0.59571082703769207000732421875">
        <ele>1087</ele>
        <time>2020-08-19T10:58:26.000Z</time>
      </trkpt>
      <trkpt lat="42.66780694015324115753173828125" lon="-0.59579967521131038665771484375">
        <ele>1088</ele>
        <time>2020-08-19T10:58:32.000Z</time>
      </trkpt>
      <trkpt lat="42.66778497956693172454833984375" lon="-0.59584200382232666015625">
        <ele>1088.4000244140625</ele>
        <time>2020-08-19T10:58:34.000Z</time>
      </trkpt>
      <trkpt lat="42.66778045333921909332275390625" lon="-0.59586706571280956268310546875">
        <ele>1088.4000244140625</ele>
        <time>2020-08-19T10:58:35.000Z</time>
      </trkpt>
      <trkpt lat="42.66778774559497833251953125" lon="-0.595913417637348175048828125">
        <ele>1089</ele>
        <time>2020-08-19T10:58:37.000Z</time>
      </trkpt>
      <trkpt lat="42.66780258156359195709228515625" lon="-0.5959256552159786224365234375">
        <ele>1089.199951171875</ele>
        <time>2020-08-19T10:58:38.000Z</time>
      </trkpt>
      <trkpt lat="42.66788237728178501129150390625" lon="-0.59591115452349185943603515625">
        <ele>1090.199951171875</ele>
        <time>2020-08-19T10:58:42.000Z</time>
      </trkpt>
      <trkpt lat="42.66789930872619152069091796875" lon="-0.59590277262032032012939453125">
        <ele>1090.199951171875</ele>
        <time>2020-08-19T10:58:43.000Z</time>
      </trkpt>
      <trkpt lat="42.66803811304271221160888671875" lon="-0.59582817368209362030029296875">
        <ele>1091</ele>
        <time>2020-08-19T10:58:51.000Z</time>
      </trkpt>
      <trkpt lat="42.66807549633085727691650390625" lon="-0.59582054615020751953125">
        <ele>1091.199951171875</ele>
        <time>2020-08-19T10:58:53.000Z</time>
      </trkpt>
      <trkpt lat="42.66814758069813251495361328125" lon="-0.595812499523162841796875">
        <ele>1092.4000244140625</ele>
        <time>2020-08-19T10:58:57.000Z</time>
      </trkpt>
      <trkpt lat="42.66816593706607818603515625" lon="-0.5958150140941143035888671875">
        <ele>1092.5999755859375</ele>
        <time>2020-08-19T10:58:58.000Z</time>
      </trkpt>
      <trkpt lat="42.66823676414787769317626953125" lon="-0.59583940543234348297119140625">
        <ele>1093.4000244140625</ele>
        <time>2020-08-19T10:59:02.000Z</time>
      </trkpt>
      <trkpt lat="42.66827096231281757354736328125" lon="-0.595846362411975860595703125">
        <ele>1094</ele>
        <time>2020-08-19T10:59:04.000Z</time>
      </trkpt>
      <trkpt lat="42.668359391391277313232421875" lon="-0.59583689086139202117919921875">
        <ele>1094.5999755859375</ele>
        <time>2020-08-19T10:59:09.000Z</time>
      </trkpt>
      <trkpt lat="42.6684061624109745025634765625" lon="-0.59581073932349681854248046875">
        <ele>1095.199951171875</ele>
        <time>2020-08-19T10:59:12.000Z</time>
      </trkpt>
      <trkpt lat="42.66846357844769954681396484375" lon="-0.5957586877048015594482421875">
        <ele>1095.5999755859375</ele>
        <time>2020-08-19T10:59:16.000Z</time>
      </trkpt>
      <trkpt lat="42.66853884793817996978759765625" lon="-0.595726333558559417724609375">
        <ele>1096.4000244140625</ele>
        <time>2020-08-19T10:59:20.000Z</time>
      </trkpt>
      <trkpt lat="42.6685593836009502410888671875" lon="-0.59572708792984485626220703125">
        <ele>1096.5999755859375</ele>
        <time>2020-08-19T10:59:21.000Z</time>
      </trkpt>
      <trkpt lat="42.6685949228703975677490234375" lon="-0.59575055725872516632080078125">
        <ele>1096.800048828125</ele>
        <time>2020-08-19T10:59:23.000Z</time>
      </trkpt>
      <trkpt lat="42.6686063222587108612060546875" lon="-0.59577419422566890716552734375">
        <ele>1097</ele>
        <time>2020-08-19T10:59:24.000Z</time>
      </trkpt>
      <trkpt lat="42.6686123572289943695068359375" lon="-0.59586321003735065460205078125">
        <ele>1097.5999755859375</ele>
        <time>2020-08-19T10:59:27.000Z</time>
      </trkpt>
      <trkpt lat="42.6685922406613826751708984375" lon="-0.59592154808342456817626953125">
        <ele>1098</ele>
        <time>2020-08-19T10:59:29.000Z</time>
      </trkpt>
      <trkpt lat="42.66855745576322078704833984375" lon="-0.5959682352840900421142578125">
        <ele>1098.4000244140625</ele>
        <time>2020-08-19T10:59:31.000Z</time>
      </trkpt>
      <trkpt lat="42.66853817738592624664306640625" lon="-0.59598860330879688262939453125">
        <ele>1098.5999755859375</ele>
        <time>2020-08-19T10:59:32.000Z</time>
      </trkpt>
      <trkpt lat="42.66849853098392486572265625" lon="-0.5960235558450222015380859375">
        <ele>1098.5999755859375</ele>
        <time>2020-08-19T10:59:34.000Z</time>
      </trkpt>
      <trkpt lat="42.6684789173305034637451171875" lon="-0.596040152013301849365234375">
        <ele>1098.800048828125</ele>
        <time>2020-08-19T10:59:35.000Z</time>
      </trkpt>
      <trkpt lat="42.6683085970580577850341796875" lon="-0.596134699881076812744140625">
        <ele>1099.800048828125</ele>
        <time>2020-08-19T10:59:43.000Z</time>
      </trkpt>
      <trkpt lat="42.66826442442834377288818359375" lon="-0.59615515172481536865234375">
        <ele>1100.199951171875</ele>
        <time>2020-08-19T10:59:45.000Z</time>
      </trkpt>
      <trkpt lat="42.66822184436023235321044921875" lon="-0.59617501683533191680908203125">
        <ele>1100.800048828125</ele>
        <time>2020-08-19T10:59:47.000Z</time>
      </trkpt>
      <trkpt lat="42.66811975277960300445556640625" lon="-0.59623067267239093780517578125">
        <ele>1101.800048828125</ele>
        <time>2020-08-19T10:59:52.000Z</time>
      </trkpt>
      <trkpt lat="42.668063342571258544921875" lon="-0.596268475055694580078125">
        <ele>1102.5999755859375</ele>
        <time>2020-08-19T10:59:55.000Z</time>
      </trkpt>
      <trkpt lat="42.66799922101199626922607421875" lon="-0.5963202752172946929931640625">
        <ele>1103</ele>
        <time>2020-08-19T10:59:59.000Z</time>
      </trkpt>
      <trkpt lat="42.6679324172437191009521484375" lon="-0.59638037346303462982177734375">
        <ele>1103.5999755859375</ele>
        <time>2020-08-19T11:00:03.000Z</time>
      </trkpt>
      <trkpt lat="42.667897045612335205078125" lon="-0.59641054831445217132568359375">
        <ele>1104</ele>
        <time>2020-08-19T11:00:05.000Z</time>
      </trkpt>
      <trkpt lat="42.66777290962636470794677734375" lon="-0.59646452777087688446044921875">
        <ele>1105.199951171875</ele>
        <time>2020-08-19T11:00:11.000Z</time>
      </trkpt>
      <trkpt lat="42.66762572340667247772216796875" lon="-0.5965425632894039154052734375">
        <ele>1106.4000244140625</ele>
        <time>2020-08-19T11:00:18.000Z</time>
      </trkpt>
      <trkpt lat="42.6676051877439022064208984375" lon="-0.596654713153839111328125">
        <ele>1107</ele>
        <time>2020-08-19T11:00:22.000Z</time>
      </trkpt>
      <trkpt lat="42.6676167547702789306640625" lon="-0.59667692519724369049072265625">
        <ele>1107.5999755859375</ele>
        <time>2020-08-19T11:00:23.000Z</time>
      </trkpt>
      <trkpt lat="42.667680792510509490966796875" lon="-0.5966917611658573150634765625">
        <ele>1108.199951171875</ele>
        <time>2020-08-19T11:00:26.000Z</time>
      </trkpt>
      <trkpt lat="42.6677040942013263702392578125" lon="-0.596689917147159576416015625">
        <ele>1108.5999755859375</ele>
        <time>2020-08-19T11:00:27.000Z</time>
      </trkpt>
      <trkpt lat="42.667778022587299346923828125" lon="-0.5966904200613498687744140625">
        <ele>1109.5999755859375</ele>
        <time>2020-08-19T11:00:31.000Z</time>
      </trkpt>
      <trkpt lat="42.6678113825619220733642578125" lon="-0.59669570066034793853759765625">
        <ele>1110</ele>
        <time>2020-08-19T11:00:33.000Z</time>
      </trkpt>
      <trkpt lat="42.6678452454507350921630859375" lon="-0.5967034958302974700927734375">
        <ele>1110.5999755859375</ele>
        <time>2020-08-19T11:00:35.000Z</time>
      </trkpt>
      <trkpt lat="42.66790852881968021392822265625" lon="-0.59670357964932918548583984375">
        <ele>1111.5999755859375</ele>
        <time>2020-08-19T11:00:39.000Z</time>
      </trkpt>
      <trkpt lat="42.667924873530864715576171875" lon="-0.59670634567737579345703125">
        <ele>1111.800048828125</ele>
        <time>2020-08-19T11:00:40.000Z</time>
      </trkpt>
      <trkpt lat="42.66804414801299571990966796875" lon="-0.59671129100024700164794921875">
        <ele>1112.800048828125</ele>
        <time>2020-08-19T11:00:47.000Z</time>
      </trkpt>
      <trkpt lat="42.6680564694106578826904296875" lon="-0.5967098660767078399658203125">
        <ele>1113</ele>
        <time>2020-08-19T11:00:48.000Z</time>
      </trkpt>
      <trkpt lat="42.66814288683235645294189453125" lon="-0.5966991372406482696533203125">
        <ele>1113.5999755859375</ele>
        <time>2020-08-19T11:00:54.000Z</time>
      </trkpt>
      <trkpt lat="42.66815747134387493133544921875" lon="-0.59669804759323596954345703125">
        <ele>1113.800048828125</ele>
        <time>2020-08-19T11:00:55.000Z</time>
      </trkpt>
      <trkpt lat="42.66821631230413913726806640625" lon="-0.59669704176485538482666015625">
        <ele>1114.800048828125</ele>
        <time>2020-08-19T11:00:59.000Z</time>
      </trkpt>
      <trkpt lat="42.66827750019729137420654296875" lon="-0.59669167734682559967041015625">
        <ele>1115.4000244140625</ele>
        <time>2020-08-19T11:01:03.000Z</time>
      </trkpt>
      <trkpt lat="42.6683065854012966156005859375" lon="-0.59668488800525665283203125">
        <ele>1115.800048828125</ele>
        <time>2020-08-19T11:01:05.000Z</time>
      </trkpt>
      <trkpt lat="42.66831672750413417816162109375" lon="-0.59668061323463916778564453125">
        <ele>1116.199951171875</ele>
        <time>2020-08-19T11:01:07.000Z</time>
      </trkpt>
      <trkpt lat="42.66831815242767333984375" lon="-0.59667491354048252105712890625">
        <ele>1116.199951171875</ele>
        <time>2020-08-19T11:02:17.000Z</time>
      </trkpt>
      <trkpt lat="42.66831882297992706298828125" lon="-0.59667524881660938262939453125">
        <ele>1116.199951171875</ele>
        <time>2020-08-19T11:02:18.000Z</time>
      </trkpt>
      <trkpt lat="42.66835260204970836639404296875" lon="-0.59667642228305339813232421875">
        <ele>1116.5999755859375</ele>
        <time>2020-08-19T11:02:21.000Z</time>
      </trkpt>
      <trkpt lat="42.6683689467608928680419921875" lon="-0.5966713093221187591552734375">
        <ele>1116.800048828125</ele>
        <time>2020-08-19T11:02:22.000Z</time>
      </trkpt>
      <trkpt lat="42.66849517822265625" lon="-0.59664675034582614898681640625">
        <ele>1117.5999755859375</ele>
        <time>2020-08-19T11:02:29.000Z</time>
      </trkpt>
      <trkpt lat="42.668533064424991607666015625" lon="-0.5966454930603504180908203125">
        <ele>1117.5999755859375</ele>
        <time>2020-08-19T11:02:31.000Z</time>
      </trkpt>
      <trkpt lat="42.668605148792266845703125" lon="-0.59668329544365406036376953125">
        <ele>1118.800048828125</ele>
        <time>2020-08-19T11:02:35.000Z</time>
      </trkpt>
      <trkpt lat="42.6686199009418487548828125" lon="-0.59670240618288516998291015625">
        <ele>1119</ele>
        <time>2020-08-19T11:02:36.000Z</time>
      </trkpt>
      <trkpt lat="42.66864026896655559539794921875" lon="-0.5968040786683559417724609375">
        <ele>1119.800048828125</ele>
        <time>2020-08-19T11:02:40.000Z</time>
      </trkpt>
      <trkpt lat="42.668637000024318695068359375" lon="-0.59683249332010746002197265625">
        <ele>1120</ele>
        <time>2020-08-19T11:02:41.000Z</time>
      </trkpt>
      <trkpt lat="42.6685945875942707061767578125" lon="-0.5969237722456455230712890625">
        <ele>1121</ele>
        <time>2020-08-19T11:02:45.000Z</time>
      </trkpt>
      <trkpt lat="42.66856969334185123443603515625" lon="-0.596964843571186065673828125">
        <ele>1121.199951171875</ele>
        <time>2020-08-19T11:02:47.000Z</time>
      </trkpt>
      <trkpt lat="42.66850121319293975830078125" lon="-0.597071461379528045654296875">
        <ele>1122</ele>
        <time>2020-08-19T11:02:52.000Z</time>
      </trkpt>
      <trkpt lat="42.668431140482425689697265625" lon="-0.5971876345574855804443359375">
        <ele>1122.4000244140625</ele>
        <time>2020-08-19T11:02:57.000Z</time>
      </trkpt>
      <trkpt lat="42.66838990151882171630859375" lon="-0.59725577943027019500732421875">
        <ele>1122.800048828125</ele>
        <time>2020-08-19T11:03:00.000Z</time>
      </trkpt>
      <trkpt lat="42.66832091845571994781494140625" lon="-0.5973750539124011993408203125">
        <ele>1124</ele>
        <time>2020-08-19T11:03:05.000Z</time>
      </trkpt>
      <trkpt lat="42.66830432228744029998779296875" lon="-0.5973963439464569091796875">
        <ele>1124.199951171875</ele>
        <time>2020-08-19T11:03:06.000Z</time>
      </trkpt>
      <trkpt lat="42.66818949021399021148681640625" lon="-0.59750564396381378173828125">
        <ele>1125</ele>
        <time>2020-08-19T11:03:12.000Z</time>
      </trkpt>
      <trkpt lat="42.66812109388411045074462890625" lon="-0.5975289456546306610107421875">
        <ele>1125.4000244140625</ele>
        <time>2020-08-19T11:03:15.000Z</time>
      </trkpt>
      <trkpt lat="42.6680028252303600311279296875" lon="-0.597545206546783447265625">
        <ele>1126.199951171875</ele>
        <time>2020-08-19T11:03:20.000Z</time>
      </trkpt>
      <trkpt lat="42.66788204200565814971923828125" lon="-0.597548224031925201416015625">
        <ele>1127.4000244140625</ele>
        <time>2020-08-19T11:03:25.000Z</time>
      </trkpt>
      <trkpt lat="42.6676906831562519073486328125" lon="-0.597539506852626800537109375">
        <ele>1128.4000244140625</ele>
        <time>2020-08-19T11:03:33.000Z</time>
      </trkpt>
      <trkpt lat="42.66761985607445240020751953125" lon="-0.59754042886197566986083984375">
        <ele>1129</ele>
        <time>2020-08-19T11:03:36.000Z</time>
      </trkpt>
      <trkpt lat="42.6675290800631046295166015625" lon="-0.597553253173828125">
        <ele>1129.4000244140625</ele>
        <time>2020-08-19T11:03:40.000Z</time>
      </trkpt>
      <trkpt lat="42.66744534485042095184326171875" lon="-0.59760027565062046051025390625">
        <ele>1129.5999755859375</ele>
        <time>2020-08-19T11:03:44.000Z</time>
      </trkpt>
      <trkpt lat="42.66738080419600009918212890625" lon="-0.59769465588033199310302734375">
        <ele>1130.4000244140625</ele>
        <time>2020-08-19T11:03:48.000Z</time>
      </trkpt>
      <trkpt lat="42.66735456883907318115234375" lon="-0.597747378051280975341796875">
        <ele>1130.800048828125</ele>
        <time>2020-08-19T11:03:50.000Z</time>
      </trkpt>
      <trkpt lat="42.66731374897062778472900390625" lon="-0.5978260003030300140380859375">
        <ele>1131.800048828125</ele>
        <time>2020-08-19T11:03:53.000Z</time>
      </trkpt>
      <trkpt lat="42.6672276668250560760498046875" lon="-0.59800964780151844024658203125">
        <ele>1132.5999755859375</ele>
        <time>2020-08-19T11:04:00.000Z</time>
      </trkpt>
      <trkpt lat="42.66714946366846561431884765625" lon="-0.5981585942208766937255859375">
        <ele>1133.800048828125</ele>
        <time>2020-08-19T11:04:06.000Z</time>
      </trkpt>
      <trkpt lat="42.6671364717185497283935546875" lon="-0.59818248264491558074951171875">
        <ele>1133.800048828125</ele>
        <time>2020-08-19T11:04:07.000Z</time>
      </trkpt>
      <trkpt lat="42.6670764572918415069580078125" lon="-0.598307289183139801025390625">
        <ele>1134.800048828125</ele>
        <time>2020-08-19T11:04:12.000Z</time>
      </trkpt>
      <trkpt lat="42.6670288480818271636962890625" lon="-0.59840552508831024169921875">
        <ele>1135.199951171875</ele>
        <time>2020-08-19T11:04:16.000Z</time>
      </trkpt>
      <trkpt lat="42.666986100375652313232421875" lon="-0.59847048483788967132568359375">
        <ele>1135.800048828125</ele>
        <time>2020-08-19T11:04:19.000Z</time>
      </trkpt>
      <trkpt lat="42.66692499630153179168701171875" lon="-0.59859219007194042205810546875">
        <ele>1136.5999755859375</ele>
        <time>2020-08-19T11:04:24.000Z</time>
      </trkpt>
      <trkpt lat="42.66689884476363658905029296875" lon="-0.59864348731935024261474609375">
        <ele>1136.800048828125</ele>
        <time>2020-08-19T11:04:26.000Z</time>
      </trkpt>
      <trkpt lat="42.66681737266480922698974609375" lon="-0.5987895838916301727294921875">
        <ele>1137.800048828125</ele>
        <time>2020-08-19T11:04:32.000Z</time>
      </trkpt>
      <trkpt lat="42.6666999422013759613037109375" lon="-0.5988905020058155059814453125">
        <ele>1138.800048828125</ele>
        <time>2020-08-19T11:04:38.000Z</time>
      </trkpt>
      <trkpt lat="42.666676975786685943603515625" lon="-0.598900057375431060791015625">
        <ele>1138.800048828125</ele>
        <time>2020-08-19T11:04:39.000Z</time>
      </trkpt>
      <trkpt lat="42.66658586449921131134033203125" lon="-0.5989278852939605712890625">
        <ele>1140</ele>
        <time>2020-08-19T11:04:43.000Z</time>
      </trkpt>
      <trkpt lat="42.666539847850799560546875" lon="-0.5989297293126583099365234375">
        <ele>1140.199951171875</ele>
        <time>2020-08-19T11:04:45.000Z</time>
      </trkpt>
      <trkpt lat="42.6663995347917079925537109375" lon="-0.59891154058277606964111328125">
        <ele>1141</ele>
        <time>2020-08-19T11:04:51.000Z</time>
      </trkpt>
      <trkpt lat="42.66633088700473308563232421875" lon="-0.59888421557843685150146484375">
        <ele>1141.5999755859375</ele>
        <time>2020-08-19T11:04:54.000Z</time>
      </trkpt>
      <trkpt lat="42.66628612764179706573486328125" lon="-0.59886242263019084930419921875">
        <ele>1142.199951171875</ele>
        <time>2020-08-19T11:04:56.000Z</time>
      </trkpt>
      <trkpt lat="42.6661282964050769805908203125" lon="-0.598790086805820465087890625">
        <ele>1143</ele>
        <time>2020-08-19T11:05:03.000Z</time>
      </trkpt>
      <trkpt lat="42.6660629175603389739990234375" lon="-0.598760582506656646728515625">
        <ele>1143.199951171875</ele>
        <time>2020-08-19T11:05:06.000Z</time>
      </trkpt>
      <trkpt lat="42.66595403663814067840576171875" lon="-0.598703920841217041015625">
        <ele>1144.199951171875</ele>
        <time>2020-08-19T11:05:11.000Z</time>
      </trkpt>
      <trkpt lat="42.6659321598708629608154296875" lon="-0.59869344346225261688232421875">
        <ele>1144.4000244140625</ele>
        <time>2020-08-19T11:05:12.000Z</time>
      </trkpt>
      <trkpt lat="42.66584523953497409820556640625" lon="-0.59865337796509265899658203125">
        <ele>1145.199951171875</ele>
        <time>2020-08-19T11:05:16.000Z</time>
      </trkpt>
      <trkpt lat="42.6657390408217906951904296875" lon="-0.5986041761934757232666015625">
        <ele>1146.199951171875</ele>
        <time>2020-08-19T11:05:21.000Z</time>
      </trkpt>
      <trkpt lat="42.66571816988289356231689453125" lon="-0.59859202243387699127197265625">
        <ele>1146.4000244140625</ele>
        <time>2020-08-19T11:05:22.000Z</time>
      </trkpt>
      <trkpt lat="42.66556830145418643951416015625" lon="-0.59852094389498233795166015625">
        <ele>1147.4000244140625</ele>
        <time>2020-08-19T11:05:29.000Z</time>
      </trkpt>
      <trkpt lat="42.6654634438455104827880859375" lon="-0.59853837825357913970947265625">
        <ele>1148</ele>
        <time>2020-08-19T11:05:34.000Z</time>
      </trkpt>
      <trkpt lat="42.66545162536203861236572265625" lon="-0.59856167994439601898193359375">
        <ele>1148.199951171875</ele>
        <time>2020-08-19T11:05:35.000Z</time>
      </trkpt>
      <trkpt lat="42.66544860787689685821533203125" lon="-0.59858900494873523712158203125">
        <ele>1148.5999755859375</ele>
        <time>2020-08-19T11:05:36.000Z</time>
      </trkpt>
      <trkpt lat="42.66547434031963348388671875" lon="-0.59862948954105377197265625">
        <ele>1149</ele>
        <time>2020-08-19T11:05:38.000Z</time>
      </trkpt>
      <trkpt lat="42.66554097644984722137451171875" lon="-0.59865538962185382843017578125">
        <ele>1149.5999755859375</ele>
        <time>2020-08-19T11:05:41.000Z</time>
      </trkpt>
      <trkpt lat="42.66562479548156261444091796875" lon="-0.5986940301954746246337890625">
        <ele>1150.800048828125</ele>
        <time>2020-08-19T11:05:45.000Z</time>
      </trkpt>
      <trkpt lat="42.665784470736980438232421875" lon="-0.5988278053700923919677734375">
        <ele>1152</ele>
        <time>2020-08-19T11:05:54.000Z</time>
      </trkpt>
      <trkpt lat="42.665879689157009124755859375" lon="-0.59894305653870105743408203125">
        <ele>1153</ele>
        <time>2020-08-19T11:06:00.000Z</time>
      </trkpt>
      <trkpt lat="42.66592402942478656768798828125" lon="-0.59900105930864810943603515625">
        <ele>1153.5999755859375</ele>
        <time>2020-08-19T11:06:03.000Z</time>
      </trkpt>
      <trkpt lat="42.6659559644758701324462890625" lon="-0.5990340001881122589111328125">
        <ele>1154</ele>
        <time>2020-08-19T11:06:05.000Z</time>
      </trkpt>
      <trkpt lat="42.66602997668087482452392578125" lon="-0.59912863187491893768310546875">
        <ele>1155</ele>
        <time>2020-08-19T11:06:10.000Z</time>
      </trkpt>
      <trkpt lat="42.66604565083980560302734375" lon="-0.59914606623351573944091796875">
        <ele>1155.199951171875</ele>
        <time>2020-08-19T11:06:11.000Z</time>
      </trkpt>
      <trkpt lat="42.66613743267953395843505859375" lon="-0.599257461726665496826171875">
        <ele>1156.199951171875</ele>
        <time>2020-08-19T11:06:17.000Z</time>
      </trkpt>
      <trkpt lat="42.66615319065749645233154296875" lon="-0.5992738902568817138671875">
        <ele>1156.4000244140625</ele>
        <time>2020-08-19T11:06:18.000Z</time>
      </trkpt>
      <trkpt lat="42.66621605493128299713134765625" lon="-0.5993421189486980438232421875">
        <ele>1157.4000244140625</ele>
        <time>2020-08-19T11:06:22.000Z</time>
      </trkpt>
      <trkpt lat="42.66626718454062938690185546875" lon="-0.5993903987109661102294921875">
        <ele>1158.4000244140625</ele>
        <time>2020-08-19T11:06:25.000Z</time>
      </trkpt>
      <trkpt lat="42.6662841998040676116943359375" lon="-0.59940640814602375030517578125">
        <ele>1158.5999755859375</ele>
        <time>2020-08-19T11:06:26.000Z</time>
      </trkpt>
      <trkpt lat="42.6664099283516407012939453125" lon="-0.59951503761112689971923828125">
        <ele>1159.4000244140625</ele>
        <time>2020-08-19T11:06:33.000Z</time>
      </trkpt>
      <trkpt lat="42.666428871452808380126953125" lon="-0.5995285324752330780029296875">
        <ele>1159.800048828125</ele>
        <time>2020-08-19T11:06:34.000Z</time>
      </trkpt>
      <trkpt lat="42.66653154976665973663330078125" lon="-0.5996304564177989959716796875">
        <ele>1160.5999755859375</ele>
        <time>2020-08-19T11:06:40.000Z</time>
      </trkpt>
      <trkpt lat="42.666549570858478546142578125" lon="-0.59964596293866634368896484375">
        <ele>1160.5999755859375</ele>
        <time>2020-08-19T11:06:41.000Z</time>
      </trkpt>
      <trkpt lat="42.66664118506014347076416015625" lon="-0.599722154438495635986328125">
        <ele>1161.800048828125</ele>
        <time>2020-08-19T11:06:46.000Z</time>
      </trkpt>
      <trkpt lat="42.66667135991156101226806640625" lon="-0.5997632257640361785888671875">
        <ele>1162</ele>
        <time>2020-08-19T11:06:48.000Z</time>
      </trkpt>
      <trkpt lat="42.6667262613773345947265625" lon="-0.59985634870827198028564453125">
        <ele>1162.800048828125</ele>
        <time>2020-08-19T11:06:52.000Z</time>
      </trkpt>
      <trkpt lat="42.6667710207402706146240234375" lon="-0.5999630503356456756591796875">
        <ele>1163.4000244140625</ele>
        <time>2020-08-19T11:06:56.000Z</time>
      </trkpt>
      <trkpt lat="42.6668112538754940032958984375" lon="-0.6000388227403163909912109375">
        <ele>1163.800048828125</ele>
        <time>2020-08-19T11:06:59.000Z</time>
      </trkpt>
      <trkpt lat="42.66684369184076786041259765625" lon="-0.600116439163684844970703125">
        <ele>1164.199951171875</ele>
        <time>2020-08-19T11:07:02.000Z</time>
      </trkpt>
      <trkpt lat="42.66690102405846118927001953125" lon="-0.6002046167850494384765625">
        <ele>1164.800048828125</ele>
        <time>2020-08-19T11:07:06.000Z</time>
      </trkpt>
      <trkpt lat="42.66698802821338176727294921875" lon="-0.60028709471225738525390625">
        <ele>1165.800048828125</ele>
        <time>2020-08-19T11:07:11.000Z</time>
      </trkpt>
      <trkpt lat="42.6670078933238983154296875" lon="-0.60029773972928524017333984375">
        <ele>1165.800048828125</ele>
        <time>2020-08-19T11:07:12.000Z</time>
      </trkpt>
      <trkpt lat="42.66708676703274250030517578125" lon="-0.6003415770828723907470703125">
        <ele>1166.800048828125</ele>
        <time>2020-08-19T11:07:16.000Z</time>
      </trkpt>
      <trkpt lat="42.6671632938086986541748046875" lon="-0.6003950536251068115234375">
        <ele>1167</ele>
        <time>2020-08-19T11:07:20.000Z</time>
      </trkpt>
      <trkpt lat="42.66733470372855663299560546875" lon="-0.600528828799724578857421875">
        <ele>1168</ele>
        <time>2020-08-19T11:07:29.000Z</time>
      </trkpt>
      <trkpt lat="42.66738784499466419219970703125" lon="-0.60055891983211040496826171875">
        <ele>1168.199951171875</ele>
        <time>2020-08-19T11:07:33.000Z</time>
      </trkpt>
      <trkpt lat="42.6673932932317256927490234375" lon="-0.600565709173679351806640625">
        <ele>1168.5999755859375</ele>
        <time>2020-08-19T11:10:44.000Z</time>
      </trkpt>
      <trkpt lat="42.66741357743740081787109375" lon="-0.6006044335663318634033203125">
        <ele>1168.5999755859375</ele>
        <time>2020-08-19T11:10:49.000Z</time>
      </trkpt>
      <trkpt lat="42.6674905233085155487060546875" lon="-0.60068582184612751007080078125">
        <ele>1169.4000244140625</ele>
        <time>2020-08-19T11:10:55.000Z</time>
      </trkpt>
      <trkpt lat="42.66752463765442371368408203125" lon="-0.600708536803722381591796875">
        <ele>1169.5999755859375</ele>
        <time>2020-08-19T11:10:57.000Z</time>
      </trkpt>
      <trkpt lat="42.66755975782871246337890625" lon="-0.60073443688452243804931640625">
        <ele>1169.800048828125</ele>
        <time>2020-08-19T11:10:59.000Z</time>
      </trkpt>
      <trkpt lat="42.66767106950283050537109375" lon="-0.60082278214395046234130859375">
        <ele>1170</ele>
        <time>2020-08-19T11:11:05.000Z</time>
      </trkpt>
      <trkpt lat="42.66772999428212642669677734375" lon="-0.60086552985012531280517578125">
        <ele>1170.199951171875</ele>
        <time>2020-08-19T11:11:08.000Z</time>
      </trkpt>
      <trkpt lat="42.66783694736659526824951171875" lon="-0.60092370025813579559326171875">
        <ele>1170.5999755859375</ele>
        <time>2020-08-19T11:11:13.000Z</time>
      </trkpt>
      <trkpt lat="42.66786008141934871673583984375" lon="-0.6009350158274173736572265625">
        <ele>1170.5999755859375</ele>
        <time>2020-08-19T11:11:14.000Z</time>
      </trkpt>
      <trkpt lat="42.66801531426608562469482421875" lon="-0.6010010652244091033935546875">
        <ele>1171</ele>
        <time>2020-08-19T11:11:21.000Z</time>
      </trkpt>
      <trkpt lat="42.66818739473819732666015625" lon="-0.60105512849986553192138671875">
        <ele>1171.5999755859375</ele>
        <time>2020-08-19T11:11:28.000Z</time>
      </trkpt>
      <trkpt lat="42.668360732495784759521484375" lon="-0.6011138856410980224609375">
        <ele>1171.800048828125</ele>
        <time>2020-08-19T11:11:35.000Z</time>
      </trkpt>
      <trkpt lat="42.66859869472682476043701171875" lon="-0.60120399110019207000732421875">
        <ele>1172.199951171875</ele>
        <time>2020-08-19T11:11:44.000Z</time>
      </trkpt>
      <trkpt lat="42.66875107772648334503173828125" lon="-0.60133491642773151397705078125">
        <ele>1172.800048828125</ele>
        <time>2020-08-19T11:11:51.000Z</time>
      </trkpt>
      <trkpt lat="42.6687702722847461700439453125" lon="-0.6013574637472629547119140625">
        <ele>1172.800048828125</ele>
        <time>2020-08-19T11:11:52.000Z</time>
      </trkpt>
      <trkpt lat="42.66888736747205257415771484375" lon="-0.60158193111419677734375">
        <ele>1173.199951171875</ele>
        <time>2020-08-19T11:12:00.000Z</time>
      </trkpt>
      <trkpt lat="42.66892055980861186981201171875" lon="-0.60168159194290637969970703125">
        <ele>1173.5999755859375</ele>
        <time>2020-08-19T11:12:03.000Z</time>
      </trkpt>
      <trkpt lat="42.66894914209842681884765625" lon="-0.601822994649410247802734375">
        <ele>1174</ele>
        <time>2020-08-19T11:12:07.000Z</time>
      </trkpt>
      <trkpt lat="42.66895852982997894287109375" lon="-0.60196406207978725433349609375">
        <ele>1174.5999755859375</ele>
        <time>2020-08-19T11:12:11.000Z</time>
      </trkpt>
      <trkpt lat="42.66895643435418605804443359375" lon="-0.6021483801305294036865234375">
        <ele>1175.4000244140625</ele>
        <time>2020-08-19T11:12:16.000Z</time>
      </trkpt>
      <trkpt lat="42.66894671134650707244873046875" lon="-0.60233152471482753753662109375">
        <ele>1175.800048828125</ele>
        <time>2020-08-19T11:12:21.000Z</time>
      </trkpt>
      <trkpt lat="42.6689382456243038177490234375" lon="-0.6025406531989574432373046875">
        <ele>1176.5999755859375</ele>
        <time>2020-08-19T11:12:27.000Z</time>
      </trkpt>
      <trkpt lat="42.66893304884433746337890625" lon="-0.602606199681758880615234375">
        <ele>1176.800048828125</ele>
        <time>2020-08-19T11:12:29.000Z</time>
      </trkpt>
      <trkpt lat="42.66893547959625720977783203125" lon="-0.60281918384134769439697265625">
        <ele>1177.5999755859375</ele>
        <time>2020-08-19T11:12:35.000Z</time>
      </trkpt>
      <trkpt lat="42.66894117929041385650634765625" lon="-0.6028890050947666168212890625">
        <ele>1177.800048828125</ele>
        <time>2020-08-19T11:12:37.000Z</time>
      </trkpt>
      <trkpt lat="42.66895090229809284210205078125" lon="-0.60306360013782978057861328125">
        <ele>1178.5999755859375</ele>
        <time>2020-08-19T11:12:42.000Z</time>
      </trkpt>
      <trkpt lat="42.66897118650376796722412109375" lon="-0.60334590263664722442626953125">
        <ele>1179</ele>
        <time>2020-08-19T11:12:50.000Z</time>
      </trkpt>
      <trkpt lat="42.6689737848937511444091796875" lon="-0.603382699191570281982421875">
        <ele>1179.199951171875</ele>
        <time>2020-08-19T11:12:51.000Z</time>
      </trkpt>
      <trkpt lat="42.66899608075618743896484375" lon="-0.60362644493579864501953125">
        <ele>1180</ele>
        <time>2020-08-19T11:12:58.000Z</time>
      </trkpt>
      <trkpt lat="42.66900253482162952423095703125" lon="-0.60369643382728099822998046875">
        <ele>1180.4000244140625</ele>
        <time>2020-08-19T11:13:00.000Z</time>
      </trkpt>
      <trkpt lat="42.66904511488974094390869140625" lon="-0.60395099222660064697265625">
        <ele>1181</ele>
        <time>2020-08-19T11:13:07.000Z</time>
      </trkpt>
      <trkpt lat="42.66916447319090366363525390625" lon="-0.6042036227881908416748046875">
        <ele>1181.4000244140625</ele>
        <time>2020-08-19T11:13:14.000Z</time>
      </trkpt>
      <trkpt lat="42.66939849592745304107666015625" lon="-0.60459514148533344268798828125">
        <ele>1181</ele>
        <time>2020-08-19T11:13:26.000Z</time>
      </trkpt>
      <trkpt lat="42.66955305822193622589111328125" lon="-0.60488414950668811798095703125">
        <ele>1179.800048828125</ele>
        <time>2020-08-19T11:13:34.000Z</time>
      </trkpt>
      <trkpt lat="42.669579125940799713134765625" lon="-0.604927651584148406982421875">
        <ele>1179.5999755859375</ele>
        <time>2020-08-19T11:13:35.000Z</time>
      </trkpt>
      <trkpt lat="42.66976243816316127777099609375" lon="-0.6051685474812984466552734375">
        <ele>1178.800048828125</ele>
        <time>2020-08-19T11:13:40.000Z</time>
      </trkpt>
      <trkpt lat="42.6698113046586513519287109375" lon="-0.6052203476428985595703125">
        <ele>1178.4000244140625</ele>
        <time>2020-08-19T11:13:41.000Z</time>
      </trkpt>
      <trkpt lat="42.6699920184910297393798828125" lon="-0.60535571537911891937255859375">
        <ele>1177.4000244140625</ele>
        <time>2020-08-19T11:13:44.000Z</time>
      </trkpt>
      <trkpt lat="42.67013492994010448455810546875" lon="-0.60542394407093524932861328125">
        <ele>1176.4000244140625</ele>
        <time>2020-08-19T11:13:46.000Z</time>
      </trkpt>
      <trkpt lat="42.67037163488566875457763671875" lon="-0.605507679283618927001953125">
        <ele>1175</ele>
        <time>2020-08-19T11:13:49.000Z</time>
      </trkpt>
      <trkpt lat="42.67045344226062297821044921875" lon="-0.6055158935487270355224609375">
        <ele>1174.4000244140625</ele>
        <time>2020-08-19T11:13:50.000Z</time>
      </trkpt>
      <trkpt lat="42.670620493590831756591796875" lon="-0.605474822223186492919921875">
        <ele>1173.5999755859375</ele>
        <time>2020-08-19T11:13:52.000Z</time>
      </trkpt>
      <trkpt lat="42.670791484415531158447265625" lon="-0.60540500096976757049560546875">
        <ele>1172.4000244140625</ele>
        <time>2020-08-19T11:13:54.000Z</time>
      </trkpt>
      <trkpt lat="42.67097345553338527679443359375" lon="-0.60539066791534423828125">
        <ele>1171.5999755859375</ele>
        <time>2020-08-19T11:13:56.000Z</time>
      </trkpt>
      <trkpt lat="42.67106347717344760894775390625" lon="-0.605409443378448486328125">
        <ele>1171</ele>
        <time>2020-08-19T11:13:57.000Z</time>
      </trkpt>
      <trkpt lat="42.671232707798480987548828125" lon="-0.60550642199814319610595703125">
        <ele>1170</ele>
        <time>2020-08-19T11:13:59.000Z</time>
      </trkpt>
      <trkpt lat="42.6713029481470584869384765625" lon="-0.60558688826858997344970703125">
        <ele>1169.4000244140625</ele>
        <time>2020-08-19T11:14:00.000Z</time>
      </trkpt>
      <trkpt lat="42.67141350544989109039306640625" lon="-0.6057747267186641693115234375">
        <ele>1168.5999755859375</ele>
        <time>2020-08-19T11:14:02.000Z</time>
      </trkpt>
      <trkpt lat="42.671464383602142333984375" lon="-0.60586717911064624786376953125">
        <ele>1168.199951171875</ele>
        <time>2020-08-19T11:14:03.000Z</time>
      </trkpt>
      <trkpt lat="42.67170201055705547332763671875" lon="-0.60629348270595073699951171875">
        <ele>1167.199951171875</ele>
        <time>2020-08-19T11:14:08.000Z</time>
      </trkpt>
      <trkpt lat="42.67173335887491703033447265625" lon="-0.60638283379375934600830078125">
        <ele>1167.199951171875</ele>
        <time>2020-08-19T11:14:09.000Z</time>
      </trkpt>
      <trkpt lat="42.67176018096506595611572265625" lon="-0.60657109133899211883544921875">
        <ele>1167</ele>
        <time>2020-08-19T11:14:11.000Z</time>
      </trkpt>
      <trkpt lat="42.67175565473735332489013671875" lon="-0.6067641265690326690673828125">
        <ele>1166.4000244140625</ele>
        <time>2020-08-19T11:14:13.000Z</time>
      </trkpt>
      <trkpt lat="42.67174676991999149322509765625" lon="-0.60695615597069263458251953125">
        <ele>1166.199951171875</ele>
        <time>2020-08-19T11:14:15.000Z</time>
      </trkpt>
      <trkpt lat="42.6717207022011280059814453125" lon="-0.60723996721208095550537109375">
        <ele>1165.800048828125</ele>
        <time>2020-08-19T11:14:18.000Z</time>
      </trkpt>
      <trkpt lat="42.67161198891699314117431640625" lon="-0.607588402926921844482421875">
        <ele>1165.199951171875</ele>
        <time>2020-08-19T11:14:22.000Z</time>
      </trkpt>
      <trkpt lat="42.6715822331607341766357421875" lon="-0.60767029412090778350830078125">
        <ele>1165</ele>
        <time>2020-08-19T11:14:23.000Z</time>
      </trkpt>
      <trkpt lat="42.67152096144855022430419921875" lon="-0.60792066156864166259765625">
        <ele>1164.800048828125</ele>
        <time>2020-08-19T11:14:26.000Z</time>
      </trkpt>
      <trkpt lat="42.67151735723018646240234375" lon="-0.6080083362758159637451171875">
        <ele>1164.5999755859375</ele>
        <time>2020-08-19T11:14:27.000Z</time>
      </trkpt>
      <trkpt lat="42.67153889872133731842041015625" lon="-0.60818477533757686614990234375">
        <ele>1164.199951171875</ele>
        <time>2020-08-19T11:14:29.000Z</time>
      </trkpt>
      <trkpt lat="42.67159086652100086212158203125" lon="-0.6083533354103565216064453125">
        <ele>1163.4000244140625</ele>
        <time>2020-08-19T11:14:31.000Z</time>
      </trkpt>
      <trkpt lat="42.67171642743051052093505859375" lon="-0.60857646167278289794921875">
        <ele>1163</ele>
        <time>2020-08-19T11:14:34.000Z</time>
      </trkpt>
      <trkpt lat="42.6717696525156497955322265625" lon="-0.60863924212753772735595703125">
        <ele>1162.5999755859375</ele>
        <time>2020-08-19T11:14:35.000Z</time>
      </trkpt>
      <trkpt lat="42.67196218483150005340576171875" lon="-0.60879346914589405059814453125">
        <ele>1161.800048828125</ele>
        <time>2020-08-19T11:14:38.000Z</time>
      </trkpt>
      <trkpt lat="42.67203636467456817626953125" lon="-0.60882565565407276153564453125">
        <ele>1161.5999755859375</ele>
        <time>2020-08-19T11:14:39.000Z</time>
      </trkpt>
      <trkpt lat="42.6722816191613674163818359375" lon="-0.6088404916226863861083984375">
        <ele>1160.4000244140625</ele>
        <time>2020-08-19T11:14:42.000Z</time>
      </trkpt>
      <trkpt lat="42.6723657734692096710205078125" lon="-0.6088260747492313385009765625">
        <ele>1160</ele>
        <time>2020-08-19T11:14:43.000Z</time>
      </trkpt>
      <trkpt lat="42.672534249722957611083984375" lon="-0.608816854655742645263671875">
        <ele>1159.199951171875</ele>
        <time>2020-08-19T11:14:45.000Z</time>
      </trkpt>
      <trkpt lat="42.672616057097911834716796875" lon="-0.60884040780365467071533203125">
        <ele>1158.800048828125</ele>
        <time>2020-08-19T11:14:46.000Z</time>
      </trkpt>
      <trkpt lat="42.67283298075199127197265625" lon="-0.609029419720172882080078125">
        <ele>1157.800048828125</ele>
        <time>2020-08-19T11:14:49.000Z</time>
      </trkpt>
      <trkpt lat="42.67300103791058063507080078125" lon="-0.609320104122161865234375">
        <ele>1156.5999755859375</ele>
        <time>2020-08-19T11:14:52.000Z</time>
      </trkpt>
      <trkpt lat="42.67307429574429988861083984375" lon="-0.609554462134838104248046875">
        <ele>1155.4000244140625</ele>
        <time>2020-08-19T11:14:54.000Z</time>
      </trkpt>
      <trkpt lat="42.67309986054897308349609375" lon="-0.6096808612346649169921875">
        <ele>1155</ele>
        <time>2020-08-19T11:14:55.000Z</time>
      </trkpt>
      <trkpt lat="42.6731248386204242706298828125" lon="-0.60980935581028461456298828125">
        <ele>1154.5999755859375</ele>
        <time>2020-08-19T11:14:56.000Z</time>
      </trkpt>
      <trkpt lat="42.6731489785015583038330078125" lon="-0.60993944294750690460205078125">
        <ele>1154.199951171875</ele>
        <time>2020-08-19T11:14:57.000Z</time>
      </trkpt>
      <trkpt lat="42.6731835119426250457763671875" lon="-0.6102090887725353240966796875">
        <ele>1153</ele>
        <time>2020-08-19T11:14:59.000Z</time>
      </trkpt>
      <trkpt lat="42.67320002429187297821044921875" lon="-0.6104820035398006439208984375">
        <ele>1151.4000244140625</ele>
        <time>2020-08-19T11:15:01.000Z</time>
      </trkpt>
      <trkpt lat="42.67322801984846591949462890625" lon="-0.6107237376272678375244140625">
        <ele>1149.5999755859375</ele>
        <time>2020-08-19T11:15:03.000Z</time>
      </trkpt>
      <trkpt lat="42.67326137982308864593505859375" lon="-0.61082926578819751739501953125">
        <ele>1148.800048828125</ele>
        <time>2020-08-19T11:15:04.000Z</time>
      </trkpt>
      <trkpt lat="42.6733099110424518585205078125" lon="-0.6109208799898624420166015625">
        <ele>1148.4000244140625</ele>
        <time>2020-08-19T11:15:05.000Z</time>
      </trkpt>
      <trkpt lat="42.673430778086185455322265625" lon="-0.611051805317401885986328125">
        <ele>1147.5999755859375</ele>
        <time>2020-08-19T11:15:07.000Z</time>
      </trkpt>
      <trkpt lat="42.67349389381706714630126953125" lon="-0.61110435985028743743896484375">
        <ele>1147.199951171875</ele>
        <time>2020-08-19T11:15:08.000Z</time>
      </trkpt>
      <trkpt lat="42.67355994321405887603759765625" lon="-0.6111599318683147430419921875">
        <ele>1146.199951171875</ele>
        <time>2020-08-19T11:15:09.000Z</time>
      </trkpt>
      <trkpt lat="42.6736907847225666046142578125" lon="-0.61127685941755771636962890625">
        <ele>1144.800048828125</ele>
        <time>2020-08-19T11:15:11.000Z</time>
      </trkpt>
      <trkpt lat="42.67374836839735507965087890625" lon="-0.6113416515290737152099609375">
        <ele>1144.199951171875</ele>
        <time>2020-08-19T11:15:12.000Z</time>
      </trkpt>
      <trkpt lat="42.67379815690219402313232421875" lon="-0.61141231097280979156494140625">
        <ele>1143.5999755859375</ele>
        <time>2020-08-19T11:15:13.000Z</time>
      </trkpt>
      <trkpt lat="42.67394115217030048370361328125" lon="-0.61166209168732166290283203125">
        <ele>1142</ele>
        <time>2020-08-19T11:15:16.000Z</time>
      </trkpt>
      <trkpt lat="42.67405883409082889556884765625" lon="-0.61184481717646121978759765625">
        <ele>1140.800048828125</ele>
        <time>2020-08-19T11:15:17.000Z</time>
      </trkpt>
      <trkpt lat="42.6741236262023448944091796875" lon="-0.61193869449198246002197265625">
        <ele>1139.5999755859375</ele>
        <time>2020-08-19T11:15:19.000Z</time>
      </trkpt>
      <trkpt lat="42.674255557358264923095703125" lon="-0.6121322326362133026123046875">
        <ele>1138.4000244140625</ele>
        <time>2020-08-19T11:15:21.000Z</time>
      </trkpt>
      <trkpt lat="42.67438271082937717437744140625" lon="-0.6123310513794422149658203125">
        <ele>1137</ele>
        <time>2020-08-19T11:15:23.000Z</time>
      </trkpt>
      <trkpt lat="42.6744374446570873260498046875" lon="-0.61243624426424503326416015625">
        <ele>1136.199951171875</ele>
        <time>2020-08-19T11:15:24.000Z</time>
      </trkpt>
      <trkpt lat="42.674479186534881591796875" lon="-0.61255015432834625244140625">
        <ele>1135</ele>
        <time>2020-08-19T11:15:25.000Z</time>
      </trkpt>
      <trkpt lat="42.6745014823973178863525390625" lon="-0.61279951594769954681396484375">
        <ele>1133.199951171875</ele>
        <time>2020-08-19T11:15:27.000Z</time>
      </trkpt>
      <trkpt lat="42.6744434796273708343505859375" lon="-0.61305977404117584228515625">
        <ele>1131.4000244140625</ele>
        <time>2020-08-19T11:15:29.000Z</time>
      </trkpt>
      <trkpt lat="42.67440048046410083770751953125" lon="-0.61318810097873210906982421875">
        <ele>1130.800048828125</ele>
        <time>2020-08-19T11:15:30.000Z</time>
      </trkpt>
      <trkpt lat="42.67434935085475444793701171875" lon="-0.613312907516956329345703125">
        <ele>1129.800048828125</ele>
        <time>2020-08-19T11:15:31.000Z</time>
      </trkpt>
      <trkpt lat="42.67421834170818328857421875" lon="-0.61354014091193675994873046875">
        <ele>1127.800048828125</ele>
        <time>2020-08-19T11:15:33.000Z</time>
      </trkpt>
      <trkpt lat="42.6741454191505908966064453125" lon="-0.6136460043489933013916015625">
        <ele>1127.199951171875</ele>
        <time>2020-08-19T11:15:34.000Z</time>
      </trkpt>
      <trkpt lat="42.674072496592998504638671875" lon="-0.6137516163289546966552734375">
        <ele>1126.800048828125</ele>
        <time>2020-08-19T11:15:35.000Z</time>
      </trkpt>
      <trkpt lat="42.67385582439601421356201171875" lon="-0.61406157910823822021484375">
        <ele>1125.4000244140625</ele>
        <time>2020-08-19T11:15:38.000Z</time>
      </trkpt>
      <trkpt lat="42.67371618188917636871337890625" lon="-0.61425603926181793212890625">
        <ele>1124.199951171875</ele>
        <time>2020-08-19T11:15:40.000Z</time>
      </trkpt>
      <trkpt lat="42.67364828847348690032958984375" lon="-0.6143490783870220184326171875">
        <ele>1123.199951171875</ele>
        <time>2020-08-19T11:15:41.000Z</time>
      </trkpt>
      <trkpt lat="42.673583664000034332275390625" lon="-0.61444203369319438934326171875">
        <ele>1122.800048828125</ele>
        <time>2020-08-19T11:15:42.000Z</time>
      </trkpt>
      <trkpt lat="42.67347528599202632904052734375" lon="-0.614637918770313262939453125">
        <ele>1121.5999755859375</ele>
        <time>2020-08-19T11:15:44.000Z</time>
      </trkpt>
      <trkpt lat="42.6734410040080547332763671875" lon="-0.6147475540637969970703125">
        <ele>1120.800048828125</ele>
        <time>2020-08-19T11:15:45.000Z</time>
      </trkpt>
      <trkpt lat="42.67342147417366504669189453125" lon="-0.61486624181270599365234375">
        <ele>1120.199951171875</ele>
        <time>2020-08-19T11:15:46.000Z</time>
      </trkpt>
      <trkpt lat="42.67339892685413360595703125" lon="-0.61512415297329425811767578125">
        <ele>1118.4000244140625</ele>
        <time>2020-08-19T11:15:48.000Z</time>
      </trkpt>
      <trkpt lat="42.6733893714845180511474609375" lon="-0.6152600236237049102783203125">
        <ele>1116.800048828125</ele>
        <time>2020-08-19T11:15:49.000Z</time>
      </trkpt>
      <trkpt lat="42.67336782999336719512939453125" lon="-0.61552447266876697540283203125">
        <ele>1115.4000244140625</ele>
        <time>2020-08-19T11:15:51.000Z</time>
      </trkpt>
      <trkpt lat="42.67332793213427066802978515625" lon="-0.61576478183269500732421875">
        <ele>1113.800048828125</ele>
        <time>2020-08-19T11:15:53.000Z</time>
      </trkpt>
      <trkpt lat="42.6732891239225864410400390625" lon="-0.61586880125105381011962890625">
        <ele>1113</ele>
        <time>2020-08-19T11:15:54.000Z</time>
      </trkpt>
      <trkpt lat="42.67323405481874942779541015625" lon="-0.61596368439495563507080078125">
        <ele>1111.800048828125</ele>
        <time>2020-08-19T11:15:55.000Z</time>
      </trkpt>
      <trkpt lat="42.67309424467384815216064453125" lon="-0.6161377765238285064697265625">
        <ele>1109.800048828125</ele>
        <time>2020-08-19T11:15:57.000Z</time>
      </trkpt>
      <trkpt lat="42.67301947809755802154541015625" lon="-0.61622335575520992279052734375">
        <ele>1108.800048828125</ele>
        <time>2020-08-19T11:15:58.000Z</time>
      </trkpt>
      <trkpt lat="42.672945968806743621826171875" lon="-0.61630650423467159271240234375">
        <ele>1107.800048828125</ele>
        <time>2020-08-19T11:15:59.000Z</time>
      </trkpt>
      <trkpt lat="42.67287723720073699951171875" lon="-0.616386719048023223876953125">
        <ele>1106.5999755859375</ele>
        <time>2020-08-19T11:16:00.000Z</time>
      </trkpt>
      <trkpt lat="42.6727694459259510040283203125" lon="-0.61654019169509410858154296875">
        <ele>1104.5999755859375</ele>
        <time>2020-08-19T11:16:02.000Z</time>
      </trkpt>
      <trkpt lat="42.6727382652461528778076171875" lon="-0.61669810675084590911865234375">
        <ele>1103.4000244140625</ele>
        <time>2020-08-19T11:16:04.000Z</time>
      </trkpt>
      <trkpt lat="42.67280347645282745361328125" lon="-0.61682752333581447601318359375">
        <ele>1101.800048828125</ele>
        <time>2020-08-19T11:16:06.000Z</time>
      </trkpt>
      <trkpt lat="42.6729203201830387115478515625" lon="-0.6169109232723712921142578125">
        <ele>1100.800048828125</ele>
        <time>2020-08-19T11:16:08.000Z</time>
      </trkpt>
      <trkpt lat="42.6729892194271087646484375" lon="-0.6169421039521694183349609375">
        <ele>1099.800048828125</ele>
        <time>2020-08-19T11:16:09.000Z</time>
      </trkpt>
      <trkpt lat="42.67306633293628692626953125" lon="-0.6169682554900646209716796875">
        <ele>1099.199951171875</ele>
        <time>2020-08-19T11:16:10.000Z</time>
      </trkpt>
      <trkpt lat="42.67324344255030155181884765625" lon="-0.6169964186847209930419921875">
        <ele>1097.800048828125</ele>
        <time>2020-08-19T11:16:12.000Z</time>
      </trkpt>
      <trkpt lat="42.6733414269983768463134765625" lon="-0.616997592151165008544921875">
        <ele>1096.5999755859375</ele>
        <time>2020-08-19T11:16:13.000Z</time>
      </trkpt>
      <trkpt lat="42.67354954965412616729736328125" lon="-0.6169900484383106231689453125">
        <ele>1094.800048828125</ele>
        <time>2020-08-19T11:16:15.000Z</time>
      </trkpt>
      <trkpt lat="42.67377485521137714385986328125" lon="-0.616974793374538421630859375">
        <ele>1093.199951171875</ele>
        <time>2020-08-19T11:16:17.000Z</time>
      </trkpt>
      <trkpt lat="42.67389337532222270965576171875" lon="-0.61696800403296947479248046875">
        <ele>1092</ele>
        <time>2020-08-19T11:16:18.000Z</time>
      </trkpt>
      <trkpt lat="42.67413385212421417236328125" lon="-0.61695610173046588897705078125">
        <ele>1089.5999755859375</ele>
        <time>2020-08-19T11:16:20.000Z</time>
      </trkpt>
      <trkpt lat="42.67425362952053546905517578125" lon="-0.6169514916837215423583984375">
        <ele>1088</ele>
        <time>2020-08-19T11:16:21.000Z</time>
      </trkpt>
      <trkpt lat="42.67437097616493701934814453125" lon="-0.6169471330940723419189453125">
        <ele>1087</ele>
        <time>2020-08-19T11:16:22.000Z</time>
      </trkpt>
      <trkpt lat="42.67448253929615020751953125" lon="-0.61694453470408916473388671875">
        <ele>1086</ele>
        <time>2020-08-19T11:16:23.000Z</time>
      </trkpt>
      <trkpt lat="42.67458873800933361053466796875" lon="-0.61694872565567493438720703125">
        <ele>1085</ele>
        <time>2020-08-19T11:16:24.000Z</time>
      </trkpt>
      <trkpt lat="42.674691416323184967041015625" lon="-0.61696481890976428985595703125">
        <ele>1083.800048828125</ele>
        <time>2020-08-19T11:16:25.000Z</time>
      </trkpt>
      <trkpt lat="42.674887888133525848388671875" lon="-0.617017708718776702880859375">
        <ele>1081.800048828125</ele>
        <time>2020-08-19T11:16:27.000Z</time>
      </trkpt>
      <trkpt lat="42.6749819330871105194091796875" lon="-0.6170282699167728424072265625">
        <ele>1081</ele>
        <time>2020-08-19T11:16:28.000Z</time>
      </trkpt>
      <trkpt lat="42.6750731281936168670654296875" lon="-0.61701611615717411041259765625">
        <ele>1079.800048828125</ele>
        <time>2020-08-19T11:16:29.000Z</time>
      </trkpt>
      <trkpt lat="42.675246298313140869140625" lon="-0.6169280223548412322998046875">
        <ele>1078.199951171875</ele>
        <time>2020-08-19T11:16:31.000Z</time>
      </trkpt>
      <trkpt lat="42.6754073984920978546142578125" lon="-0.61677329242229461669921875">
        <ele>1077.199951171875</ele>
        <time>2020-08-19T11:16:33.000Z</time>
      </trkpt>
      <trkpt lat="42.67557327635586261749267578125" lon="-0.61660422943532466888427734375">
        <ele>1075.5999755859375</ele>
        <time>2020-08-19T11:16:35.000Z</time>
      </trkpt>
      <trkpt lat="42.67565189860761165618896484375" lon="-0.616529546678066253662109375">
        <ele>1074.4000244140625</ele>
        <time>2020-08-19T11:16:36.000Z</time>
      </trkpt>
      <trkpt lat="42.67572297714650630950927734375" lon="-0.616465173661708831787109375">
        <ele>1073</ele>
        <time>2020-08-19T11:16:37.000Z</time>
      </trkpt>
      <trkpt lat="42.67579145729541778564453125" lon="-0.6164116971194744110107421875">
        <ele>1072.199951171875</ele>
        <time>2020-08-19T11:16:38.000Z</time>
      </trkpt>
      <trkpt lat="42.67586597241461277008056640625" lon="-0.61636635102331638336181640625">
        <ele>1071.199951171875</ele>
        <time>2020-08-19T11:16:39.000Z</time>
      </trkpt>
      <trkpt lat="42.67603076063096523284912109375" lon="-0.61627381481230258941650390625">
        <ele>1069.800048828125</ele>
        <time>2020-08-19T11:16:41.000Z</time>
      </trkpt>
      <trkpt lat="42.67611592076718807220458984375" lon="-0.616227798163890838623046875">
        <ele>1068.5999755859375</ele>
        <time>2020-08-19T11:16:42.000Z</time>
      </trkpt>
      <trkpt lat="42.6761979795992374420166015625" lon="-0.6161917559802532196044921875">
        <ele>1067.800048828125</ele>
        <time>2020-08-19T11:16:43.000Z</time>
      </trkpt>
      <trkpt lat="42.67627484165132045745849609375" lon="-0.6161753274500370025634765625">
        <ele>1067</ele>
        <time>2020-08-19T11:16:44.000Z</time>
      </trkpt>
      <trkpt lat="42.67634139396250247955322265625" lon="-0.61618731357157230377197265625">
        <ele>1066</ele>
        <time>2020-08-19T11:16:45.000Z</time>
      </trkpt>
      <trkpt lat="42.67639302648603916168212890625" lon="-0.6162329949438571929931640625">
        <ele>1065.4000244140625</ele>
        <time>2020-08-19T11:16:46.000Z</time>
      </trkpt>
      <trkpt lat="42.67642873339354991912841796875" lon="-0.61630583368241786956787109375">
        <ele>1064.800048828125</ele>
        <time>2020-08-19T11:16:47.000Z</time>
      </trkpt>
      <trkpt lat="42.67646376974880695343017578125" lon="-0.61649643816053867340087890625">
        <ele>1063.800048828125</ele>
        <time>2020-08-19T11:16:49.000Z</time>
      </trkpt>
      <trkpt lat="42.67648841254413127899169921875" lon="-0.61671688221395015716552734375">
        <ele>1062.800048828125</ele>
        <time>2020-08-19T11:16:51.000Z</time>
      </trkpt>
      <trkpt lat="42.6765168271958827972412109375" lon="-0.616962052881717681884765625">
        <ele>1060.800048828125</ele>
        <time>2020-08-19T11:16:53.000Z</time>
      </trkpt>
      <trkpt lat="42.67653468064963817596435546875" lon="-0.6170913018286228179931640625">
        <ele>1060</ele>
        <time>2020-08-19T11:16:54.000Z</time>
      </trkpt>
      <trkpt lat="42.676552198827266693115234375" lon="-0.61722482554614543914794921875">
        <ele>1058.800048828125</ele>
        <time>2020-08-19T11:16:55.000Z</time>
      </trkpt>
      <trkpt lat="42.67656527459621429443359375" lon="-0.6173608638346195220947265625">
        <ele>1057.5999755859375</ele>
        <time>2020-08-19T11:16:56.000Z</time>
      </trkpt>
      <trkpt lat="42.6765734888613224029541015625" lon="-0.61749489046633243560791015625">
        <ele>1056.5999755859375</ele>
        <time>2020-08-19T11:16:57.000Z</time>
      </trkpt>
      <trkpt lat="42.67657935619354248046875" lon="-0.61762346886098384857177734375">
        <ele>1055.5999755859375</ele>
        <time>2020-08-19T11:16:58.000Z</time>
      </trkpt>
      <trkpt lat="42.6765855588018894195556640625" lon="-0.61774366535246372222900390625">
        <ele>1054.5999755859375</ele>
        <time>2020-08-19T11:16:59.000Z</time>
      </trkpt>
      <trkpt lat="42.6765962876379489898681640625" lon="-0.61785363592207431793212890625">
        <ele>1053.800048828125</ele>
        <time>2020-08-19T11:17:00.000Z</time>
      </trkpt>
      <trkpt lat="42.67661615274846553802490234375" lon="-0.61795254237949848175048828125">
        <ele>1052.5999755859375</ele>
        <time>2020-08-19T11:17:01.000Z</time>
      </trkpt>
      <trkpt lat="42.6766482554376125335693359375" lon="-0.6180391274392604827880859375">
        <ele>1052</ele>
        <time>2020-08-19T11:17:02.000Z</time>
      </trkpt>
      <trkpt lat="42.67669536173343658447265625" lon="-0.61810928396880626678466796875">
        <ele>1051.199951171875</ele>
        <time>2020-08-19T11:17:03.000Z</time>
      </trkpt>
      <trkpt lat="42.67681899480521678924560546875" lon="-0.6181665323674678802490234375">
        <ele>1049.800048828125</ele>
        <time>2020-08-19T11:17:05.000Z</time>
      </trkpt>
      <trkpt lat="42.67693265341222286224365234375" lon="-0.61809587292373180389404296875">
        <ele>1048.199951171875</ele>
        <time>2020-08-19T11:17:07.000Z</time>
      </trkpt>
      <trkpt lat="42.677015550434589385986328125" lon="-0.617922954261302947998046875">
        <ele>1047</ele>
        <time>2020-08-19T11:17:09.000Z</time>
      </trkpt>
      <trkpt lat="42.67704899422824382781982421875" lon="-0.6178165040910243988037109375">
        <ele>1046.5999755859375</ele>
        <time>2020-08-19T11:17:10.000Z</time>
      </trkpt>
      <trkpt lat="42.67708118073642253875732421875" lon="-0.61770158819854259490966796875">
        <ele>1046.199951171875</ele>
        <time>2020-08-19T11:17:11.000Z</time>
      </trkpt>
      <trkpt lat="42.67711303196847438812255859375" lon="-0.6175811402499675750732421875">
        <ele>1045.5999755859375</ele>
        <time>2020-08-19T11:17:12.000Z</time>
      </trkpt>
      <trkpt lat="42.67717589624226093292236328125" lon="-0.6173373945057392120361328125">
        <ele>1044.4000244140625</ele>
        <time>2020-08-19T11:17:14.000Z</time>
      </trkpt>
      <trkpt lat="42.677201963961124420166015625" lon="-0.6172146834433078765869140625">
        <ele>1043.199951171875</ele>
        <time>2020-08-19T11:17:15.000Z</time>
      </trkpt>
      <trkpt lat="42.6772199012339115142822265625" lon="-0.6170916371047496795654296875">
        <ele>1042.4000244140625</ele>
        <time>2020-08-19T11:17:16.000Z</time>
      </trkpt>
      <trkpt lat="42.67723985016345977783203125" lon="-0.61684881336987018585205078125">
        <ele>1040.800048828125</ele>
        <time>2020-08-19T11:17:17.000Z</time>
      </trkpt>
      <trkpt lat="42.6772450469434261322021484375" lon="-0.61672903597354888916015625">
        <ele>1039.4000244140625</ele>
        <time>2020-08-19T11:17:19.000Z</time>
      </trkpt>
      <trkpt lat="42.67724328674376010894775390625" lon="-0.6164963543415069580078125">
        <ele>1038.199951171875</ele>
        <time>2020-08-19T11:17:21.000Z</time>
      </trkpt>
      <trkpt lat="42.677236832678318023681640625" lon="-0.61625964939594268798828125">
        <ele>1036.800048828125</ele>
        <time>2020-08-19T11:17:23.000Z</time>
      </trkpt>
      <trkpt lat="42.67723171971738338470458984375" lon="-0.6160281412303447723388671875">
        <ele>1034.800048828125</ele>
        <time>2020-08-19T11:17:25.000Z</time>
      </trkpt>
      <trkpt lat="42.67723716795444488525390625" lon="-0.6159262172877788543701171875">
        <ele>1034</ele>
        <time>2020-08-19T11:17:26.000Z</time>
      </trkpt>
      <trkpt lat="42.6772561110556125640869140625" lon="-0.61583829112350940704345703125">
        <ele>1032.800048828125</ele>
        <time>2020-08-19T11:17:27.000Z</time>
      </trkpt>
      <trkpt lat="42.67739566974341869354248046875" lon="-0.61564215458929538726806640625">
        <ele>1031.5999755859375</ele>
        <time>2020-08-19T11:17:29.000Z</time>
      </trkpt>
      <trkpt lat="42.67739566974341869354248046875" lon="-0.61564215458929538726806640625">
        <ele>1031</ele>
        <time>2020-08-19T11:17:30.000Z</time>
      </trkpt>
      <trkpt lat="42.67745099030435085296630859375" lon="-0.615600161254405975341796875">
        <ele>1030.4000244140625</ele>
        <time>2020-08-19T11:17:31.000Z</time>
      </trkpt>
      <trkpt lat="42.677559368312358856201171875" lon="-0.61559705995023250579833984375">
        <ele>1029.800048828125</ele>
        <time>2020-08-19T11:17:33.000Z</time>
      </trkpt>
      <trkpt lat="42.67765517346560955047607421875" lon="-0.61574139632284641265869140625">
        <ele>1029.5999755859375</ele>
        <time>2020-08-19T11:17:36.000Z</time>
      </trkpt>
      <trkpt lat="42.67767629586160182952880859375" lon="-0.61579294502735137939453125">
        <ele>1029.4000244140625</ele>
        <time>2020-08-19T11:17:37.000Z</time>
      </trkpt>
      <trkpt lat="42.67777855508029460906982421875" lon="-0.61602202244102954864501953125">
        <ele>1029.800048828125</ele>
        <time>2020-08-19T11:17:42.000Z</time>
      </trkpt>
      <trkpt lat="42.67783873714506626129150390625" lon="-0.61614640988409519195556640625">
        <ele>1029.4000244140625</ele>
        <time>2020-08-19T11:17:45.000Z</time>
      </trkpt>
      <trkpt lat="42.67788064666092395782470703125" lon="-0.61626861803233623504638671875">
        <ele>1029</ele>
        <time>2020-08-19T11:17:48.000Z</time>
      </trkpt>
      <trkpt lat="42.67789456062018871307373046875" lon="-0.61629124917089939117431640625">
        <ele>1028.800048828125</ele>
        <time>2020-08-19T11:17:51.000Z</time>
      </trkpt>
      <trkpt lat="42.67789355479180812835693359375" lon="-0.616289488971233367919921875">
        <ele>1028.4000244140625</ele>
        <time>2020-08-19T11:17:57.000Z</time>
      </trkpt>
      <trkpt lat="42.6778934709727764129638671875" lon="-0.61628856696188449859619140625">
        <ele>1028.4000244140625</ele>
        <time>2020-08-19T11:18:08.000Z</time>
      </trkpt>
      <trkpt lat="42.67789355479180812835693359375" lon="-0.616288818418979644775390625">
        <ele>1028.4000244140625</ele>
        <time>2020-08-19T11:18:12.000Z</time>
      </trkpt>
      <trkpt lat="42.67789355479180812835693359375" lon="-0.61628915369510650634765625">
        <ele>1028.5999755859375</ele>
        <time>2020-08-19T11:18:15.000Z</time>
      </trkpt>
      <trkpt lat="42.67789355479180812835693359375" lon="-0.6162889860570430755615234375">
        <ele>1028.5999755859375</ele>
        <time>2020-08-19T11:19:04.000Z</time>
      </trkpt>
      <trkpt lat="42.67790629528462886810302734375" lon="-0.61635009013116359710693359375">
        <ele>1028.5999755859375</ele>
        <time>2020-08-19T11:19:10.000Z</time>
      </trkpt>
      <trkpt lat="42.67796211875975131988525390625" lon="-0.61651286669075489044189453125">
        <ele>1028.4000244140625</ele>
        <time>2020-08-19T11:19:16.000Z</time>
      </trkpt>
      <trkpt lat="42.67804183065891265869140625" lon="-0.6167546845972537994384765625">
        <ele>1028.4000244140625</ele>
        <time>2020-08-19T11:19:21.000Z</time>
      </trkpt>
      <trkpt lat="42.67808449454605579376220703125" lon="-0.61691553331911563873291015625">
        <ele>1028.199951171875</ele>
        <time>2020-08-19T11:19:24.000Z</time>
      </trkpt>
      <trkpt lat="42.67814819701015949249267578125" lon="-0.61712407507002353668212890625">
        <ele>1027.800048828125</ele>
        <time>2020-08-19T11:19:28.000Z</time>
      </trkpt>
      <trkpt lat="42.6782079599797725677490234375" lon="-0.61730529181659221649169921875">
        <ele>1027.5999755859375</ele>
        <time>2020-08-19T11:19:32.000Z</time>
      </trkpt>
      <trkpt lat="42.67830896191298961639404296875" lon="-0.617613829672336578369140625">
        <ele>1028.199951171875</ele>
        <time>2020-08-19T11:19:40.000Z</time>
      </trkpt>
      <trkpt lat="42.67841155640780925750732421875" lon="-0.61795740388333797454833984375">
        <ele>1028</ele>
        <time>2020-08-19T11:19:47.000Z</time>
      </trkpt>
      <trkpt lat="42.67850426025688648223876953125" lon="-0.6183003075420856475830078125">
        <ele>1027.800048828125</ele>
        <time>2020-08-19T11:19:56.000Z</time>
      </trkpt>
      <trkpt lat="42.67864440567791461944580078125" lon="-0.61842025257647037506103515625">
        <ele>1027.800048828125</ele>
        <time>2020-08-19T11:20:01.000Z</time>
      </trkpt>
      <trkpt lat="42.67875135876238346099853515625" lon="-0.61836023814976215362548828125">
        <ele>1027.5999755859375</ele>
        <time>2020-08-19T11:20:04.000Z</time>
      </trkpt>
      <trkpt lat="42.67895353026688098907470703125" lon="-0.618101656436920166015625">
        <ele>1027.199951171875</ele>
        <time>2020-08-19T11:20:10.000Z</time>
      </trkpt>
      <trkpt lat="42.67902754247188568115234375" lon="-0.61800710856914520263671875">
        <ele>1027</ele>
        <time>2020-08-19T11:20:12.000Z</time>
      </trkpt>
      <trkpt lat="42.67915234901010990142822265625" lon="-0.617871992290019989013671875">
        <ele>1026.5999755859375</ele>
        <time>2020-08-19T11:20:16.000Z</time>
      </trkpt>
      <trkpt lat="42.67928545363247394561767578125" lon="-0.61765984632074832916259765625">
        <ele>1026</ele>
        <time>2020-08-19T11:20:21.000Z</time>
      </trkpt>
      <trkpt lat="42.6793515868484973907470703125" lon="-0.6174738518893718719482421875">
        <ele>1025.5999755859375</ele>
        <time>2020-08-19T11:20:23.000Z</time>
      </trkpt>
      <trkpt lat="42.67939441837370395660400390625" lon="-0.61733446083962917327880859375">
        <ele>1024.800048828125</ele>
        <time>2020-08-19T11:20:26.000Z</time>
      </trkpt>
      <trkpt lat="42.6795675046741962432861328125" lon="-0.61713044531643390655517578125">
        <ele>1023.79998779296875</ele>
        <time>2020-08-19T11:20:29.000Z</time>
      </trkpt>
      <trkpt lat="42.6795675046741962432861328125" lon="-0.61713044531643390655517578125">
        <ele>1023.4000244140625</ele>
        <time>2020-08-19T11:20:30.000Z</time>
      </trkpt>
      <trkpt lat="42.6796291954815387725830078125" lon="-0.61711569316685199737548828125">
        <ele>1023</ele>
        <time>2020-08-19T11:20:31.000Z</time>
      </trkpt>
      <trkpt lat="42.67973958514630794525146484375" lon="-0.61714486218988895416259765625">
        <ele>1022.79998779296875</ele>
        <time>2020-08-19T11:20:33.000Z</time>
      </trkpt>
      <trkpt lat="42.67981066368520259857177734375" lon="-0.61730177141726016998291015625">
        <ele>1023.4000244140625</ele>
        <time>2020-08-19T11:20:36.000Z</time>
      </trkpt>
      <trkpt lat="42.67987017519772052764892578125" lon="-0.6175472773611545562744140625">
        <ele>1024</ele>
        <time>2020-08-19T11:20:41.000Z</time>
      </trkpt>
      <trkpt lat="42.6798784732818603515625" lon="-0.61758608557283878326416015625">
        <ele>1024.4000244140625</ele>
        <time>2020-08-19T11:20:43.000Z</time>
      </trkpt>
      <trkpt lat="42.67993907444179058074951171875" lon="-0.61785162426531314849853515625">
        <ele>1025.4000244140625</ele>
        <time>2020-08-19T11:20:50.000Z</time>
      </trkpt>
      <trkpt lat="42.6799597777426242828369140625" lon="-0.6179180927574634552001953125">
        <ele>1025.5999755859375</ele>
        <time>2020-08-19T11:20:52.000Z</time>
      </trkpt>
      <trkpt lat="42.67997511662542819976806640625" lon="-0.6180766783654689788818359375">
        <ele>1026.4000244140625</ele>
        <time>2020-08-19T11:20:57.000Z</time>
      </trkpt>
      <trkpt lat="42.6799752004444599151611328125" lon="-0.61810542829334735870361328125">
        <ele>1026.5999755859375</ele>
        <time>2020-08-19T11:20:58.000Z</time>
      </trkpt>
      <trkpt lat="42.67996053211390972137451171875" lon="-0.61833375133574008941650390625">
        <ele>1027.800048828125</ele>
        <time>2020-08-19T11:21:06.000Z</time>
      </trkpt>
      <trkpt lat="42.6799604482948780059814453125" lon="-0.61841388233006000518798828125">
        <ele>1028.199951171875</ele>
        <time>2020-08-19T11:21:09.000Z</time>
      </trkpt>
      <trkpt lat="42.67996137030422687530517578125" lon="-0.6184679456055164337158203125">
        <ele>1028.800048828125</ele>
        <time>2020-08-19T11:21:11.000Z</time>
      </trkpt>
      <trkpt lat="42.679955922067165374755859375" lon="-0.618524439632892608642578125">
        <ele>1029.199951171875</ele>
        <time>2020-08-19T11:21:13.000Z</time>
      </trkpt>
      <trkpt lat="42.67995826900005340576171875" lon="-0.6186067499220371246337890625">
        <ele>1029.800048828125</ele>
        <time>2020-08-19T11:21:16.000Z</time>
      </trkpt>
      <trkpt lat="42.67995919100940227508544921875" lon="-0.6187123619019985198974609375">
        <ele>1030.5999755859375</ele>
        <time>2020-08-19T11:21:20.000Z</time>
      </trkpt>
      <trkpt lat="42.67995349131524562835693359375" lon="-0.61878536827862262725830078125">
        <ele>1031</ele>
        <time>2020-08-19T11:21:23.000Z</time>
      </trkpt>
      <trkpt lat="42.67995868809521198272705078125" lon="-0.61886097304522991180419921875">
        <ele>1031.800048828125</ele>
        <time>2020-08-19T11:21:26.000Z</time>
      </trkpt>
      <trkpt lat="42.6799607835710048675537109375" lon="-0.61890925280749797821044921875">
        <ele>1032.199951171875</ele>
        <time>2020-08-19T11:21:28.000Z</time>
      </trkpt>
      <trkpt lat="42.679958604276180267333984375" lon="-0.6190131045877933502197265625">
        <ele>1032.800048828125</ele>
        <time>2020-08-19T11:21:32.000Z</time>
      </trkpt>
      <trkpt lat="42.6799574308097362518310546875" lon="-0.61908996663987636566162109375">
        <ele>1033.199951171875</ele>
        <time>2020-08-19T11:21:35.000Z</time>
      </trkpt>
      <trkpt lat="42.67995583824813365936279296875" lon="-0.619190298020839691162109375">
        <ele>1034</ele>
        <time>2020-08-19T11:21:39.000Z</time>
      </trkpt>
      <trkpt lat="42.67995198257267475128173828125" lon="-0.61926581896841526031494140625">
        <ele>1034.5999755859375</ele>
        <time>2020-08-19T11:21:42.000Z</time>
      </trkpt>
      <trkpt lat="42.6799517311155796051025390625" lon="-0.61939381062984466552734375">
        <ele>1035.5999755859375</ele>
        <time>2020-08-19T11:21:47.000Z</time>
      </trkpt>
      <trkpt lat="42.6799522340297698974609375" lon="-0.61941736377775669097900390625">
        <ele>1035.800048828125</ele>
        <time>2020-08-19T11:21:48.000Z</time>
      </trkpt>
      <trkpt lat="42.67994091846048831939697265625" lon="-0.6195689924061298370361328125">
        <ele>1037</ele>
        <time>2020-08-19T11:21:54.000Z</time>
      </trkpt>
      <trkpt lat="42.6799399964511394500732421875" lon="-0.6195938028395175933837890625">
        <ele>1037</ele>
        <time>2020-08-19T11:21:55.000Z</time>
      </trkpt>
      <trkpt lat="42.6799218915402889251708984375" lon="-0.6197694875299930572509765625">
        <ele>1038</ele>
        <time>2020-08-19T11:22:02.000Z</time>
      </trkpt>
      <trkpt lat="42.679917030036449432373046875" lon="-0.61979153193533420562744140625">
        <ele>1038.199951171875</ele>
        <time>2020-08-19T11:22:03.000Z</time>
      </trkpt>
      <trkpt lat="42.67987906001508235931396484375" lon="-0.61989194713532924652099609375">
        <ele>1038.800048828125</ele>
        <time>2020-08-19T11:22:10.000Z</time>
      </trkpt>
      <trkpt lat="42.679878138005733489990234375" lon="-0.61989731155335903167724609375">
        <ele>1039</ele>
        <time>2020-08-19T11:22:13.000Z</time>
      </trkpt>
      <trkpt lat="42.67987956292927265167236328125" lon="-0.61989731155335903167724609375">
        <ele>1039.199951171875</ele>
        <time>2020-08-19T11:22:15.000Z</time>
      </trkpt>
      <trkpt lat="42.67999238334596157073974609375" lon="-0.6204423867166042327880859375">
        <ele>1071.5999755859375</ele>
        <time>2020-08-20T05:17:27.000Z</time>
      </trkpt>
      <trkpt lat="42.6800047047436237335205078125" lon="-0.6204470805823802947998046875">
        <ele>1071</ele>
        <time>2020-08-20T05:17:29.000Z</time>
      </trkpt>
      <trkpt lat="42.680047787725925445556640625" lon="-0.62047096900641918182373046875">
        <ele>1070.4000244140625</ele>
        <time>2020-08-20T05:17:32.000Z</time>
      </trkpt>
      <trkpt lat="42.68018935807049274444580078125" lon="-0.62054037116467952728271484375">
        <ele>1070.5999755859375</ele>
        <time>2020-08-20T05:17:38.000Z</time>
      </trkpt>
      <trkpt lat="42.6803074590861797332763671875" lon="-0.62058798037469387054443359375">
        <ele>1069.800048828125</ele>
        <time>2020-08-20T05:17:42.000Z</time>
      </trkpt>
      <trkpt lat="42.68038298003375530242919921875" lon="-0.62061865814030170440673828125">
        <ele>1069.4000244140625</ele>
        <time>2020-08-20T05:17:44.000Z</time>
      </trkpt>
      <trkpt lat="42.680519856512546539306640625" lon="-0.620662830770015716552734375">
        <ele>1069</ele>
        <time>2020-08-20T05:17:47.000Z</time>
      </trkpt>
      <trkpt lat="42.68056922592222690582275390625" lon="-0.62067381106317043304443359375">
        <ele>1068.800048828125</ele>
        <time>2020-08-20T05:17:48.000Z</time>
      </trkpt>
      <trkpt lat="42.6807865686714649200439453125" lon="-0.62076584435999393463134765625">
        <ele>1068.199951171875</ele>
        <time>2020-08-20T05:17:53.000Z</time>
      </trkpt>
      <trkpt lat="42.68088757060468196868896484375" lon="-0.62082535587251186370849609375">
        <ele>1067.800048828125</ele>
        <time>2020-08-20T05:17:56.000Z</time>
      </trkpt>
      <trkpt lat="42.68101749010384082794189453125" lon="-0.6209131143987178802490234375">
        <ele>1067</ele>
        <time>2020-08-20T05:18:00.000Z</time>
      </trkpt>
      <trkpt lat="42.68111765384674072265625" lon="-0.62097304500639438629150390625">
        <ele>1066.5999755859375</ele>
        <time>2020-08-20T05:18:03.000Z</time>
      </trkpt>
      <trkpt lat="42.6812365092337131500244140625" lon="-0.62103255651891231536865234375">
        <ele>1066.5999755859375</ele>
        <time>2020-08-20T05:18:07.000Z</time>
      </trkpt>
      <trkpt lat="42.68139551393687725067138671875" lon="-0.62112375162541866302490234375">
        <ele>1066.800048828125</ele>
        <time>2020-08-20T05:18:14.000Z</time>
      </trkpt>
      <trkpt lat="42.68156248144805431365966796875" lon="-0.62122332863509654998779296875">
        <ele>1067</ele>
        <time>2020-08-20T05:18:22.000Z</time>
      </trkpt>
      <trkpt lat="42.6817216537892818450927734375" lon="-0.6213523261249065399169921875">
        <ele>1067</ele>
        <time>2020-08-20T05:18:30.000Z</time>
      </trkpt>
      <trkpt lat="42.6819027028977870941162109375" lon="-0.62146355397999286651611328125">
        <ele>1066.5999755859375</ele>
        <time>2020-08-20T05:18:36.000Z</time>
      </trkpt>
      <trkpt lat="42.68206237815320491790771484375" lon="-0.62154938466846942901611328125">
        <ele>1065.800048828125</ele>
        <time>2020-08-20T05:18:40.000Z</time>
      </trkpt>
      <trkpt lat="42.68215223215520381927490234375" lon="-0.6215925514698028564453125">
        <ele>1065.199951171875</ele>
        <time>2020-08-20T05:18:42.000Z</time>
      </trkpt>
      <trkpt lat="42.68224895931780338287353515625" lon="-0.621631443500518798828125">
        <ele>1064.800048828125</ele>
        <time>2020-08-20T05:18:44.000Z</time>
      </trkpt>
      <trkpt lat="42.6824049465358257293701171875" lon="-0.62165482901036739349365234375">
        <ele>1063.800048828125</ele>
        <time>2020-08-20T05:18:47.000Z</time>
      </trkpt>
      <trkpt lat="42.682459764182567596435546875" lon="-0.6216490454971790313720703125">
        <ele>1063.4000244140625</ele>
        <time>2020-08-20T05:18:48.000Z</time>
      </trkpt>
      <trkpt lat="42.68261776305735111236572265625" lon="-0.62162213958799839019775390625">
        <ele>1062.5999755859375</ele>
        <time>2020-08-20T05:18:51.000Z</time>
      </trkpt>
      <trkpt lat="42.68285446800291538238525390625" lon="-0.62159179709851741790771484375">
        <ele>1062</ele>
        <time>2020-08-20T05:18:56.000Z</time>
      </trkpt>
      <trkpt lat="42.6830832101404666900634765625" lon="-0.6215228140354156494140625">
        <ele>1061.5999755859375</ele>
        <time>2020-08-20T05:19:02.000Z</time>
      </trkpt>
      <trkpt lat="42.6832870580255985260009765625" lon="-0.6214458681643009185791015625">
        <ele>1062</ele>
        <time>2020-08-20T05:19:09.000Z</time>
      </trkpt>
      <trkpt lat="42.68333676271140575408935546875" lon="-0.621417872607707977294921875">
        <ele>1062.199951171875</ele>
        <time>2020-08-20T05:19:11.000Z</time>
      </trkpt>
      <trkpt lat="42.6834774948656558990478515625" lon="-0.62131083570420742034912109375">
        <ele>1062.4000244140625</ele>
        <time>2020-08-20T05:19:17.000Z</time>
      </trkpt>
      <trkpt lat="42.68360473215579986572265625" lon="-0.62115468084812164306640625">
        <ele>1062.800048828125</ele>
        <time>2020-08-20T05:19:24.000Z</time>
      </trkpt>
      <trkpt lat="42.683700621128082275390625" lon="-0.6209875456988811492919921875">
        <ele>1062.4000244140625</ele>
        <time>2020-08-20T05:19:30.000Z</time>
      </trkpt>
      <trkpt lat="42.6838402636349201202392578125" lon="-0.62091219238936901092529296875">
        <ele>1062</ele>
        <time>2020-08-20T05:19:35.000Z</time>
      </trkpt>
      <trkpt lat="42.68393070437014102935791015625" lon="-0.62096483074128627777099609375">
        <ele>1061.5999755859375</ele>
        <time>2020-08-20T05:19:38.000Z</time>
      </trkpt>
      <trkpt lat="42.68395367078483104705810546875" lon="-0.620996765792369842529296875">
        <ele>1061.5999755859375</ele>
        <time>2020-08-20T05:19:39.000Z</time>
      </trkpt>
      <trkpt lat="42.68402340821921825408935546875" lon="-0.62118208967149257659912109375">
        <ele>1061.5999755859375</ele>
        <time>2020-08-20T05:19:44.000Z</time>
      </trkpt>
      <trkpt lat="42.6841208897531032562255859375" lon="-0.621415190398693084716796875">
        <ele>1061.800048828125</ele>
        <time>2020-08-20T05:19:52.000Z</time>
      </trkpt>
      <trkpt lat="42.6842469535768032073974609375" lon="-0.6215259991586208343505859375">
        <ele>1061.800048828125</ele>
        <time>2020-08-20T05:19:58.000Z</time>
      </trkpt>
      <trkpt lat="42.68440763466060161590576171875" lon="-0.62154703773558139801025390625">
        <ele>1062.5999755859375</ele>
        <time>2020-08-20T05:20:05.000Z</time>
      </trkpt>
      <trkpt lat="42.684489525854587554931640625" lon="-0.62153228558599948883056640625">
        <ele>1062.800048828125</ele>
        <time>2020-08-20T05:20:09.000Z</time>
      </trkpt>
      <trkpt lat="42.6845455169677734375" lon="-0.62151082791388034820556640625">
        <ele>1063.199951171875</ele>
        <time>2020-08-20T05:20:12.000Z</time>
      </trkpt>
      <trkpt lat="42.684581391513347625732421875" lon="-0.62149674631655216217041015625">
        <ele>1063.5999755859375</ele>
        <time>2020-08-20T05:20:14.000Z</time>
      </trkpt>
      <trkpt lat="42.68461701460182666778564453125" lon="-0.62148048542439937591552734375">
        <ele>1063.800048828125</ele>
        <time>2020-08-20T05:20:16.000Z</time>
      </trkpt>
      <trkpt lat="42.68472514115273952484130859375" lon="-0.62143455259501934051513671875">
        <ele>1064.4000244140625</ele>
        <time>2020-08-20T05:20:22.000Z</time>
      </trkpt>
      <trkpt lat="42.68478331156075000762939453125" lon="-0.62142021954059600830078125">
        <ele>1065</ele>
        <time>2020-08-20T05:20:25.000Z</time>
      </trkpt>
      <trkpt lat="42.68489076755940914154052734375" lon="-0.62136900611221790313720703125">
        <ele>1065.5999755859375</ele>
        <time>2020-08-20T05:20:31.000Z</time>
      </trkpt>
      <trkpt lat="42.68497441895306110382080078125" lon="-0.62133380211889743804931640625">
        <ele>1066</ele>
        <time>2020-08-20T05:20:36.000Z</time>
      </trkpt>
      <trkpt lat="42.68502605147659778594970703125" lon="-0.62131620012223720550537109375">
        <ele>1066.199951171875</ele>
        <time>2020-08-20T05:20:39.000Z</time>
      </trkpt>
      <trkpt lat="42.68513333983719348907470703125" lon="-0.62128636054694652557373046875">
        <ele>1067</ele>
        <time>2020-08-20T05:20:45.000Z</time>
      </trkpt>
      <trkpt lat="42.68517189659178256988525390625" lon="-0.621281079947948455810546875">
        <ele>1067.4000244140625</ele>
        <time>2020-08-20T05:20:47.000Z</time>
      </trkpt>
      <trkpt lat="42.68536333926022052764892578125" lon="-0.62124260701239109039306640625">
        <ele>1068</ele>
        <time>2020-08-20T05:20:57.000Z</time>
      </trkpt>
      <trkpt lat="42.6854391954839229583740234375" lon="-0.621238164603710174560546875">
        <ele>1068.199951171875</ele>
        <time>2020-08-20T05:21:01.000Z</time>
      </trkpt>
      <trkpt lat="42.68553952686488628387451171875" lon="-0.62122886069118976593017578125">
        <ele>1068.4000244140625</ele>
        <time>2020-08-20T05:21:06.000Z</time>
      </trkpt>
      <trkpt lat="42.6857013814151287078857421875" lon="-0.6212027929723262786865234375">
        <ele>1069</ele>
        <time>2020-08-20T05:21:14.000Z</time>
      </trkpt>
      <trkpt lat="42.6857404410839080810546875" lon="-0.62119114212691783905029296875">
        <ele>1069.199951171875</ele>
        <time>2020-08-20T05:21:16.000Z</time>
      </trkpt>
      <trkpt lat="42.68590338528156280517578125" lon="-0.62117001973092555999755859375">
        <ele>1070</ele>
        <time>2020-08-20T05:21:24.000Z</time>
      </trkpt>
      <trkpt lat="42.68592392094433307647705078125" lon="-0.62117052264511585235595703125">
        <ele>1070</ele>
        <time>2020-08-20T05:21:25.000Z</time>
      </trkpt>
      <trkpt lat="42.68605015240609645843505859375" lon="-0.621154010295867919921875">
        <ele>1070.4000244140625</ele>
        <time>2020-08-20T05:21:31.000Z</time>
      </trkpt>
      <trkpt lat="42.6860916428267955780029296875" lon="-0.621148981153964996337890625">
        <ele>1070.5999755859375</ele>
        <time>2020-08-20T05:21:33.000Z</time>
      </trkpt>
      <trkpt lat="42.68625685013830661773681640625" lon="-0.62112643383443355560302734375">
        <ele>1071</ele>
        <time>2020-08-20T05:21:41.000Z</time>
      </trkpt>
      <trkpt lat="42.6864205487072467803955078125" lon="-0.6211082451045513153076171875">
        <ele>1071.199951171875</ele>
        <time>2020-08-20T05:21:49.000Z</time>
      </trkpt>
      <trkpt lat="42.686640322208404541015625" lon="-0.62111335806548595428466796875">
        <ele>1071.199951171875</ele>
        <time>2020-08-20T05:21:58.000Z</time>
      </trkpt>
      <trkpt lat="42.68692589364945888519287109375" lon="-0.62113598920404911041259765625">
        <ele>1070.5999755859375</ele>
        <time>2020-08-20T05:22:06.000Z</time>
      </trkpt>
      <trkpt lat="42.68712823279201984405517578125" lon="-0.62105820514261722564697265625">
        <ele>1069.800048828125</ele>
        <time>2020-08-20T05:22:11.000Z</time>
      </trkpt>
      <trkpt lat="42.68716997466981410980224609375" lon="-0.62102995812892913818359375">
        <ele>1069.5999755859375</ele>
        <time>2020-08-20T05:22:12.000Z</time>
      </trkpt>
      <trkpt lat="42.68725882284343242645263671875" lon="-0.620973967015743255615234375">
        <ele>1069.199951171875</ele>
        <time>2020-08-20T05:22:14.000Z</time>
      </trkpt>
      <trkpt lat="42.68742193467915058135986328125" lon="-0.6208624877035617828369140625">
        <ele>1068.4000244140625</ele>
        <time>2020-08-20T05:22:18.000Z</time>
      </trkpt>
      <trkpt lat="42.68750600516796112060546875" lon="-0.6208142079412937164306640625">
        <ele>1068.199951171875</ele>
        <time>2020-08-20T05:22:20.000Z</time>
      </trkpt>
      <trkpt lat="42.687622345983982086181640625" lon="-0.6207840330898761749267578125">
        <ele>1067.5999755859375</ele>
        <time>2020-08-20T05:22:23.000Z</time>
      </trkpt>
      <trkpt lat="42.68769510090351104736328125" lon="-0.620825774967670440673828125">
        <ele>1067.199951171875</ele>
        <time>2020-08-20T05:22:25.000Z</time>
      </trkpt>
      <trkpt lat="42.68772670067846775054931640625" lon="-0.62086810357868671417236328125">
        <ele>1067.199951171875</ele>
        <time>2020-08-20T05:22:26.000Z</time>
      </trkpt>
      <trkpt lat="42.68780381418764591217041015625" lon="-0.62101143412292003631591796875">
        <ele>1066.5999755859375</ele>
        <time>2020-08-20T05:22:29.000Z</time>
      </trkpt>
      <trkpt lat="42.68789383582770824432373046875" lon="-0.62118963338434696197509765625">
        <ele>1066.199951171875</ele>
        <time>2020-08-20T05:22:33.000Z</time>
      </trkpt>
      <trkpt lat="42.68803833983838558197021484375" lon="-0.6214710138738155364990234375">
        <ele>1066.4000244140625</ele>
        <time>2020-08-20T05:22:41.000Z</time>
      </trkpt>
      <trkpt lat="42.6881160400807857513427734375" lon="-0.6216057948768138885498046875">
        <ele>1066.800048828125</ele>
        <time>2020-08-20T05:22:47.000Z</time>
      </trkpt>
      <trkpt lat="42.688218466937541961669921875" lon="-0.621726997196674346923828125">
        <ele>1067.5999755859375</ele>
        <time>2020-08-20T05:22:54.000Z</time>
      </trkpt>
      <trkpt lat="42.6882923953235149383544921875" lon="-0.62175792641937732696533203125">
        <ele>1068.199951171875</ele>
        <time>2020-08-20T05:22:58.000Z</time>
      </trkpt>
      <trkpt lat="42.6883259229362010955810546875" lon="-0.62177267856895923614501953125">
        <ele>1068.4000244140625</ele>
        <time>2020-08-20T05:23:00.000Z</time>
      </trkpt>
      <trkpt lat="42.68842793069779872894287109375" lon="-0.6217673979699611663818359375">
        <ele>1069.199951171875</ele>
        <time>2020-08-20T05:23:06.000Z</time>
      </trkpt>
      <trkpt lat="42.68847822211682796478271484375" lon="-0.62175004743039608001708984375">
        <ele>1069.800048828125</ele>
        <time>2020-08-20T05:23:09.000Z</time>
      </trkpt>
      <trkpt lat="42.68852650187909603118896484375" lon="-0.6217412464320659637451171875">
        <ele>1070.4000244140625</ele>
        <time>2020-08-20T05:23:12.000Z</time>
      </trkpt>
      <trkpt lat="42.688557766377925872802734375" lon="-0.62172942794859409332275390625">
        <ele>1070.5999755859375</ele>
        <time>2020-08-20T05:23:14.000Z</time>
      </trkpt>
      <trkpt lat="42.68864728510379791259765625" lon="-0.62167813070118427276611328125">
        <ele>1071.4000244140625</ele>
        <time>2020-08-20T05:23:20.000Z</time>
      </trkpt>
      <trkpt lat="42.68867947161197662353515625" lon="-0.62167259864509105682373046875">
        <ele>1071.5999755859375</ele>
        <time>2020-08-20T05:23:22.000Z</time>
      </trkpt>
      <trkpt lat="42.68878634087741374969482421875" lon="-0.62165918760001659393310546875">
        <ele>1072.5999755859375</ele>
        <time>2020-08-20T05:23:29.000Z</time>
      </trkpt>
      <trkpt lat="42.6888154260814189910888671875" lon="-0.62164560891687870025634765625">
        <ele>1073</ele>
        <time>2020-08-20T05:23:31.000Z</time>
      </trkpt>
      <trkpt lat="42.68888893537223339080810546875" lon="-0.6216222234070301055908203125">
        <ele>1073.5999755859375</ele>
        <time>2020-08-20T05:23:36.000Z</time>
      </trkpt>
      <trkpt lat="42.6889322698116302490234375" lon="-0.62160319648683071136474609375">
        <ele>1074</ele>
        <time>2020-08-20T05:23:39.000Z</time>
      </trkpt>
      <trkpt lat="42.68901742994785308837890625" lon="-0.6215558387339115142822265625">
        <ele>1074.800048828125</ele>
        <time>2020-08-20T05:23:45.000Z</time>
      </trkpt>
      <trkpt lat="42.68903243355453014373779296875" lon="-0.6215565092861652374267578125">
        <ele>1074.800048828125</ele>
        <time>2020-08-20T05:23:46.000Z</time>
      </trkpt>
      <trkpt lat="42.6891403086483478546142578125" lon="-0.621530525386333465576171875">
        <ele>1075.800048828125</ele>
        <time>2020-08-20T05:23:53.000Z</time>
      </trkpt>
      <trkpt lat="42.68924265168607234954833984375" lon="-0.6214986741542816162109375">
        <ele>1077</ele>
        <time>2020-08-20T05:24:00.000Z</time>
      </trkpt>
      <trkpt lat="42.68934541381895542144775390625" lon="-0.62147294171154499053955078125">
        <ele>1077.800048828125</ele>
        <time>2020-08-20T05:24:07.000Z</time>
      </trkpt>
      <trkpt lat="42.6893880777060985565185546875" lon="-0.62145047821104526519775390625">
        <ele>1078.199951171875</ele>
        <time>2020-08-20T05:24:10.000Z</time>
      </trkpt>
      <trkpt lat="42.68946477212011814117431640625" lon="-0.62144025228917598724365234375">
        <ele>1078.800048828125</ele>
        <time>2020-08-20T05:24:15.000Z</time>
      </trkpt>
      <trkpt lat="42.68952495418488979339599609375" lon="-0.621419884264469146728515625">
        <ele>1079.199951171875</ele>
        <time>2020-08-20T05:24:19.000Z</time>
      </trkpt>
      <trkpt lat="42.6896140538156032562255859375" lon="-0.6213922239840030670166015625">
        <ele>1080</ele>
        <time>2020-08-20T05:24:25.000Z</time>
      </trkpt>
      <trkpt lat="42.6896432228386402130126953125" lon="-0.62138090841472148895263671875">
        <ele>1080.199951171875</ele>
        <time>2020-08-20T05:24:27.000Z</time>
      </trkpt>
      <trkpt lat="42.68974841572344303131103515625" lon="-0.6213489733636379241943359375">
        <ele>1081.199951171875</ele>
        <time>2020-08-20T05:24:34.000Z</time>
      </trkpt>
      <trkpt lat="42.6897635869681835174560546875" lon="-0.62134243547916412353515625">
        <ele>1081.4000244140625</ele>
        <time>2020-08-20T05:24:35.000Z</time>
      </trkpt>
      <trkpt lat="42.68987062387168407440185546875" lon="-0.6213136017322540283203125">
        <ele>1082.199951171875</ele>
        <time>2020-08-20T05:24:42.000Z</time>
      </trkpt>
      <trkpt lat="42.68988537602126598358154296875" lon="-0.621308572590351104736328125">
        <ele>1082.4000244140625</ele>
        <time>2020-08-20T05:24:43.000Z</time>
      </trkpt>
      <trkpt lat="42.68997824750840663909912109375" lon="-0.6212802417576313018798828125">
        <ele>1083.199951171875</ele>
        <time>2020-08-20T05:24:49.000Z</time>
      </trkpt>
      <trkpt lat="42.69000976346433162689208984375" lon="-0.6212755478918552398681640625">
        <ele>1083.4000244140625</ele>
        <time>2020-08-20T05:24:51.000Z</time>
      </trkpt>
      <trkpt lat="42.69009995274245738983154296875" lon="-0.6212463788688182830810546875">
        <ele>1084</ele>
        <time>2020-08-20T05:24:57.000Z</time>
      </trkpt>
      <trkpt lat="42.6901461370289325714111328125" lon="-0.62123590148985385894775390625">
        <ele>1084.5999755859375</ele>
        <time>2020-08-20T05:25:00.000Z</time>
      </trkpt>
      <trkpt lat="42.69022266380488872528076171875" lon="-0.6212088279426097869873046875">
        <ele>1085.4000244140625</ele>
        <time>2020-08-20T05:25:05.000Z</time>
      </trkpt>
      <trkpt lat="42.6902520842850208282470703125" lon="-0.62119332142174243927001953125">
        <ele>1085.800048828125</ele>
        <time>2020-08-20T05:25:07.000Z</time>
      </trkpt>
      <trkpt lat="42.69035995937883853912353515625" lon="-0.62115292064845561981201171875">
        <ele>1086.5999755859375</ele>
        <time>2020-08-20T05:25:14.000Z</time>
      </trkpt>
      <trkpt lat="42.69039181061089038848876953125" lon="-0.6211459636688232421875">
        <ele>1086.800048828125</ele>
        <time>2020-08-20T05:25:16.000Z</time>
      </trkpt>
      <trkpt lat="42.69046758301556110382080078125" lon="-0.6211209855973720550537109375">
        <ele>1087.5999755859375</ele>
        <time>2020-08-20T05:25:21.000Z</time>
      </trkpt>
      <trkpt lat="42.6905109174549579620361328125" lon="-0.62109977938234806060791015625">
        <ele>1088</ele>
        <time>2020-08-20T05:25:24.000Z</time>
      </trkpt>
      <trkpt lat="42.69060320220887660980224609375" lon="-0.62107278965413570404052734375">
        <ele>1089.199951171875</ele>
        <time>2020-08-20T05:25:30.000Z</time>
      </trkpt>
      <trkpt lat="42.69061896018683910369873046875" lon="-0.6210730411112308502197265625">
        <ele>1089.199951171875</ele>
        <time>2020-08-20T05:25:31.000Z</time>
      </trkpt>
      <trkpt lat="42.69072289578616619110107421875" lon="-0.62111302278935909271240234375">
        <ele>1089.800048828125</ele>
        <time>2020-08-20T05:25:38.000Z</time>
      </trkpt>
      <trkpt lat="42.69077452830970287322998046875" lon="-0.6211525015532970428466796875">
        <ele>1090.4000244140625</ele>
        <time>2020-08-20T05:25:42.000Z</time>
      </trkpt>
      <trkpt lat="42.690784670412540435791015625" lon="-0.621166415512561798095703125">
        <ele>1090.5999755859375</ele>
        <time>2020-08-20T05:25:43.000Z</time>
      </trkpt>
      <trkpt lat="42.69078995101153850555419921875" lon="-0.6211840175092220306396484375">
        <ele>1090.800048828125</ele>
        <time>2020-08-20T05:25:44.000Z</time>
      </trkpt>
      <trkpt lat="42.69081450998783111572265625" lon="-0.621281079947948455810546875">
        <ele>1091.199951171875</ele>
        <time>2020-08-20T05:25:49.000Z</time>
      </trkpt>
      <trkpt lat="42.69081652164459228515625" lon="-0.6213013641536235809326171875">
        <ele>1091.4000244140625</ele>
        <time>2020-08-20T05:25:50.000Z</time>
      </trkpt>
      <trkpt lat="42.69081459380686283111572265625" lon="-0.62134218402206897735595703125">
        <ele>1091.800048828125</ele>
        <time>2020-08-20T05:25:52.000Z</time>
      </trkpt>
      <trkpt lat="42.690770924091339111328125" lon="-0.62142717652022838592529296875">
        <ele>1092.4000244140625</ele>
        <time>2020-08-20T05:25:58.000Z</time>
      </trkpt>
      <trkpt lat="42.69071987830102443695068359375" lon="-0.6214790605008602142333984375">
        <ele>1092.5999755859375</ele>
        <time>2020-08-20T05:26:03.000Z</time>
      </trkpt>
      <trkpt lat="42.69068249501287937164306640625" lon="-0.62151669524610042572021484375">
        <ele>1093</ele>
        <time>2020-08-20T05:26:06.000Z</time>
      </trkpt>
      <trkpt lat="42.69064544700086116790771484375" lon="-0.6215576827526092529296875">
        <ele>1093</ele>
        <time>2020-08-20T05:26:09.000Z</time>
      </trkpt>
      <trkpt lat="42.69062298350036144256591796875" lon="-0.62159649096429347991943359375">
        <ele>1093</ele>
        <time>2020-08-20T05:26:11.000Z</time>
      </trkpt>
      <trkpt lat="42.69059456884860992431640625" lon="-0.621631443500518798828125">
        <ele>1093</ele>
        <time>2020-08-20T05:26:13.000Z</time>
      </trkpt>
      <trkpt lat="42.6904240809381008148193359375" lon="-0.6217856705188751220703125">
        <ele>1093.4000244140625</ele>
        <time>2020-08-20T05:26:23.000Z</time>
      </trkpt>
      <trkpt lat="42.69029944203794002532958984375" lon="-0.62188834883272647857666015625">
        <ele>1093.5999755859375</ele>
        <time>2020-08-20T05:26:31.000Z</time>
      </trkpt>
      <trkpt lat="42.69025099463760852813720703125" lon="-0.6219251453876495361328125">
        <ele>1094</ele>
        <time>2020-08-20T05:26:34.000Z</time>
      </trkpt>
      <trkpt lat="42.6901903934776782989501953125" lon="-0.62197602353990077972412109375">
        <ele>1094.199951171875</ele>
        <time>2020-08-20T05:26:38.000Z</time>
      </trkpt>
      <trkpt lat="42.69010012038052082061767578125" lon="-0.622048191726207733154296875">
        <ele>1094.4000244140625</ele>
        <time>2020-08-20T05:26:44.000Z</time>
      </trkpt>
      <trkpt lat="42.68997707404196262359619140625" lon="-0.622144751250743865966796875">
        <ele>1095.199951171875</ele>
        <time>2020-08-20T05:26:52.000Z</time>
      </trkpt>
      <trkpt lat="42.6898360066115856170654296875" lon="-0.62225933186709880828857421875">
        <ele>1095.4000244140625</ele>
        <time>2020-08-20T05:27:01.000Z</time>
      </trkpt>
      <trkpt lat="42.68969736993312835693359375" lon="-0.622370056807994842529296875">
        <ele>1096.199951171875</ele>
        <time>2020-08-20T05:27:10.000Z</time>
      </trkpt>
      <trkpt lat="42.68963526003062725067138671875" lon="-0.62242068350315093994140625">
        <ele>1096.4000244140625</ele>
        <time>2020-08-20T05:27:14.000Z</time>
      </trkpt>
      <trkpt lat="42.68953551538288593292236328125" lon="-0.622489750385284423828125">
        <ele>1096.4000244140625</ele>
        <time>2020-08-20T05:27:20.000Z</time>
      </trkpt>
      <trkpt lat="42.68935731612145900726318359375" lon="-0.62261137180030345916748046875">
        <ele>1096.4000244140625</ele>
        <time>2020-08-20T05:27:29.000Z</time>
      </trkpt>
      <trkpt lat="42.6891879178583621978759765625" lon="-0.6227205879986286163330078125">
        <ele>1096.199951171875</ele>
        <time>2020-08-20T05:27:35.000Z</time>
      </trkpt>
      <trkpt lat="42.68902480602264404296875" lon="-0.622816644608974456787109375">
        <ele>1095.5999755859375</ele>
        <time>2020-08-20T05:27:40.000Z</time>
      </trkpt>
      <trkpt lat="42.68895096145570278167724609375" lon="-0.62286668457090854644775390625">
        <ele>1095.199951171875</ele>
        <time>2020-08-20T05:27:42.000Z</time>
      </trkpt>
      <trkpt lat="42.688752226531505584716796875" lon="-0.6230189837515354156494140625">
        <ele>1094.800048828125</ele>
        <time>2020-08-20T05:27:47.000Z</time>
      </trkpt>
      <trkpt lat="42.68863379023969173431396484375" lon="-0.6231152079999446868896484375">
        <ele>1094.5999755859375</ele>
        <time>2020-08-20T05:27:50.000Z</time>
      </trkpt>
      <trkpt lat="42.6884521543979644775390625" lon="-0.623335652053356170654296875">
        <ele>1094</ele>
        <time>2020-08-20T05:27:56.000Z</time>
      </trkpt>
      <trkpt lat="42.688362635672092437744140625" lon="-0.623498260974884033203125">
        <ele>1094</ele>
        <time>2020-08-20T05:28:02.000Z</time>
      </trkpt>
      <trkpt lat="42.6882840134203433990478515625" lon="-0.6236734427511692047119140625">
        <ele>1095</ele>
        <time>2020-08-20T05:28:10.000Z</time>
      </trkpt>
      <trkpt lat="42.688211090862751007080078125" lon="-0.623845271766185760498046875">
        <ele>1096</ele>
        <time>2020-08-20T05:28:18.000Z</time>
      </trkpt>
      <trkpt lat="42.68820212222635746002197265625" lon="-0.62386781908571720123291015625">
        <ele>1096</ele>
        <time>2020-08-20T05:28:19.000Z</time>
      </trkpt>
      <trkpt lat="42.688146047294139862060546875" lon="-0.62399648129940032958984375">
        <ele>1096.5999755859375</ele>
        <time>2020-08-20T05:28:25.000Z</time>
      </trkpt>
      <trkpt lat="42.688100449740886688232421875" lon="-0.624079965054988861083984375">
        <ele>1097</ele>
        <time>2020-08-20T05:28:29.000Z</time>
      </trkpt>
      <trkpt lat="42.688054181635379791259765625" lon="-0.62418960034847259521484375">
        <ele>1098</ele>
        <time>2020-08-20T05:28:34.000Z</time>
      </trkpt>
      <trkpt lat="42.688042782247066497802734375" lon="-0.624231509864330291748046875">
        <ele>1098.4000244140625</ele>
        <time>2020-08-20T05:28:36.000Z</time>
      </trkpt>
      <trkpt lat="42.6880095899105072021484375" lon="-0.6243235431611537933349609375">
        <ele>1099</ele>
        <time>2020-08-20T05:28:41.000Z</time>
      </trkpt>
      <trkpt lat="42.687977068126201629638671875" lon="-0.62441666610538959503173828125">
        <ele>1099.4000244140625</ele>
        <time>2020-08-20T05:28:46.000Z</time>
      </trkpt>
      <trkpt lat="42.68796659074723720550537109375" lon="-0.6244770996272563934326171875">
        <ele>1100</ele>
        <time>2020-08-20T05:28:49.000Z</time>
      </trkpt>
      <trkpt lat="42.68796063959598541259765625" lon="-0.62453652732074260711669921875">
        <ele>1100.4000244140625</ele>
        <time>2020-08-20T05:28:52.000Z</time>
      </trkpt>
      <trkpt lat="42.68794722855091094970703125" lon="-0.62463945709168910980224609375">
        <ele>1101.4000244140625</ele>
        <time>2020-08-20T05:28:57.000Z</time>
      </trkpt>
      <trkpt lat="42.68794144503772258758544921875" lon="-0.6246829591691493988037109375">
        <ele>1101.800048828125</ele>
        <time>2020-08-20T05:28:59.000Z</time>
      </trkpt>
      <trkpt lat="42.687921412289142608642578125" lon="-0.62478915788233280181884765625">
        <ele>1102.199951171875</ele>
        <time>2020-08-20T05:29:04.000Z</time>
      </trkpt>
      <trkpt lat="42.6879054866731166839599609375" lon="-0.624873228371143341064453125">
        <ele>1102.800048828125</ele>
        <time>2020-08-20T05:29:08.000Z</time>
      </trkpt>
      <trkpt lat="42.68789785914123058319091796875" lon="-0.62495646066963672637939453125">
        <ele>1103.5999755859375</ele>
        <time>2020-08-20T05:29:12.000Z</time>
      </trkpt>
      <trkpt lat="42.687895260751247406005859375" lon="-0.6249989569187164306640625">
        <ele>1103.800048828125</ele>
        <time>2020-08-20T05:29:14.000Z</time>
      </trkpt>
      <trkpt lat="42.68788411282002925872802734375" lon="-0.625145472586154937744140625">
        <ele>1105.199951171875</ele>
        <time>2020-08-20T05:29:21.000Z</time>
      </trkpt>
      <trkpt lat="42.68790205009281635284423828125" lon="-0.6252644956111907958984375">
        <ele>1106.199951171875</ele>
        <time>2020-08-20T05:29:27.000Z</time>
      </trkpt>
      <trkpt lat="42.68790691159665584564208984375" lon="-0.62536650337278842926025390625">
        <ele>1106.800048828125</ele>
        <time>2020-08-20T05:29:32.000Z</time>
      </trkpt>
      <trkpt lat="42.6879051513969898223876953125" lon="-0.6254289485514163970947265625">
        <ele>1107.4000244140625</ele>
        <time>2020-08-20T05:29:35.000Z</time>
      </trkpt>
      <trkpt lat="42.68791227601468563079833984375" lon="-0.625557191669940948486328125">
        <ele>1108.199951171875</ele>
        <time>2020-08-20T05:29:41.000Z</time>
      </trkpt>
      <trkpt lat="42.687912024557590484619140625" lon="-0.62557973898947238922119140625">
        <ele>1108.5999755859375</ele>
        <time>2020-08-20T05:29:42.000Z</time>
      </trkpt>
      <trkpt lat="42.6879306323826313018798828125" lon="-0.6257508136332035064697265625">
        <ele>1109.5999755859375</ele>
        <time>2020-08-20T05:29:50.000Z</time>
      </trkpt>
      <trkpt lat="42.6879316382110118865966796875" lon="-0.62577168457210063934326171875">
        <ele>1109.800048828125</ele>
        <time>2020-08-20T05:29:51.000Z</time>
      </trkpt>
      <trkpt lat="42.6879344880580902099609375" lon="-0.62596832402050495147705078125">
        <ele>1110.800048828125</ele>
        <time>2020-08-20T05:30:00.000Z</time>
      </trkpt>
      <trkpt lat="42.6879567839205265045166015625" lon="-0.6260726787149906158447265625">
        <ele>1112.199951171875</ele>
        <time>2020-08-20T05:30:05.000Z</time>
      </trkpt>
      <trkpt lat="42.68798871897161006927490234375" lon="-0.62612238340079784393310546875">
        <ele>1112.800048828125</ele>
        <time>2020-08-20T05:30:08.000Z</time>
      </trkpt>
      <trkpt lat="42.68802157603204250335693359375" lon="-0.62613512389361858367919921875">
        <ele>1113</ele>
        <time>2020-08-20T05:30:10.000Z</time>
      </trkpt>
      <trkpt lat="42.68805359490215778350830078125" lon="-0.6261202879250049591064453125">
        <ele>1113.199951171875</ele>
        <time>2020-08-20T05:30:12.000Z</time>
      </trkpt>
      <trkpt lat="42.6880654133856296539306640625" lon="-0.62610411085188388824462890625">
        <ele>1113.4000244140625</ele>
        <time>2020-08-20T05:30:13.000Z</time>
      </trkpt>
      <trkpt lat="42.68807823769748210906982421875" lon="-0.62603873200714588165283203125">
        <ele>1113.800048828125</ele>
        <time>2020-08-20T05:30:16.000Z</time>
      </trkpt>
      <trkpt lat="42.6880798302590847015380859375" lon="-0.6259670667350292205810546875">
        <ele>1114.4000244140625</ele>
        <time>2020-08-20T05:30:19.000Z</time>
      </trkpt>
      <trkpt lat="42.68809340894222259521484375" lon="-0.625824071466922760009765625">
        <ele>1115.4000244140625</ele>
        <time>2020-08-20T05:30:25.000Z</time>
      </trkpt>
      <trkpt lat="42.68809718079864978790283203125" lon="-0.62573446892201900482177734375">
        <ele>1115.800048828125</ele>
        <time>2020-08-20T05:30:29.000Z</time>
      </trkpt>
      <trkpt lat="42.68812551163136959075927734375" lon="-0.62562164850533008575439453125">
        <ele>1116.5999755859375</ele>
        <time>2020-08-20T05:30:34.000Z</time>
      </trkpt>
      <trkpt lat="42.68816222436726093292236328125" lon="-0.62551385723054409027099609375">
        <ele>1117.4000244140625</ele>
        <time>2020-08-20T05:30:39.000Z</time>
      </trkpt>
      <trkpt lat="42.6881955005228519439697265625" lon="-0.62545694410800933837890625">
        <ele>1117.5999755859375</ele>
        <time>2020-08-20T05:30:42.000Z</time>
      </trkpt>
      <trkpt lat="42.688263393938541412353515625" lon="-0.6253816746175289154052734375">
        <ele>1118.4000244140625</ele>
        <time>2020-08-20T05:30:47.000Z</time>
      </trkpt>
      <trkpt lat="42.68830555491149425506591796875" lon="-0.6253364123404026031494140625">
        <ele>1118.5999755859375</ele>
        <time>2020-08-20T05:30:50.000Z</time>
      </trkpt>
      <trkpt lat="42.68836699426174163818359375" lon="-0.62524781562387943267822265625">
        <ele>1119.5999755859375</ele>
        <time>2020-08-20T05:30:55.000Z</time>
      </trkpt>
      <trkpt lat="42.68839792348444461822509765625" lon="-0.6252296268939971923828125">
        <ele>1119.800048828125</ele>
        <time>2020-08-20T05:30:57.000Z</time>
      </trkpt>
      <trkpt lat="42.68841519020497798919677734375" lon="-0.62522769905626773834228515625">
        <ele>1120</ele>
        <time>2020-08-20T05:30:58.000Z</time>
      </trkpt>
      <trkpt lat="42.68844519741833209991455078125" lon="-0.625209510326385498046875">
        <ele>1120.199951171875</ele>
        <time>2020-08-20T05:31:00.000Z</time>
      </trkpt>
      <trkpt lat="42.68846950493752956390380859375" lon="-0.6251650862395763397216796875">
        <ele>1120.5999755859375</ele>
        <time>2020-08-20T05:31:03.000Z</time>
      </trkpt>
      <trkpt lat="42.68849297426640987396240234375" lon="-0.62515385448932647705078125">
        <ele>1120.800048828125</ele>
        <time>2020-08-20T05:31:05.000Z</time>
      </trkpt>
      <trkpt lat="42.68855852074921131134033203125" lon="-0.62512225471436977386474609375">
        <ele>1121</ele>
        <time>2020-08-20T05:31:10.000Z</time>
      </trkpt>
      <trkpt lat="42.688592970371246337890625" lon="-0.625095851719379425048828125">
        <ele>1121.199951171875</ele>
        <time>2020-08-20T05:31:13.000Z</time>
      </trkpt>
      <trkpt lat="42.6886893622577190399169921875" lon="-0.6250252760946750640869140625">
        <ele>1121.800048828125</ele>
        <time>2020-08-20T05:31:21.000Z</time>
      </trkpt>
      <trkpt lat="42.68874929286539554595947265625" lon="-0.62496769241988658905029296875">
        <ele>1122.199951171875</ele>
        <time>2020-08-20T05:31:26.000Z</time>
      </trkpt>
      <trkpt lat="42.6888043619692325592041015625" lon="-0.62492729164659976959228515625">
        <ele>1122.5999755859375</ele>
        <time>2020-08-20T05:31:30.000Z</time>
      </trkpt>
      <trkpt lat="42.68886026926338672637939453125" lon="-0.6249025650322437286376953125">
        <ele>1123</ele>
        <time>2020-08-20T05:31:34.000Z</time>
      </trkpt>
      <trkpt lat="42.6888692378997802734375" lon="-0.62488957308232784271240234375">
        <ele>1123</ele>
        <time>2020-08-20T05:31:35.000Z</time>
      </trkpt>
      <trkpt lat="42.68888960592448711395263671875" lon="-0.62483743764460086822509765625">
        <ele>1123.5999755859375</ele>
        <time>2020-08-20T05:31:39.000Z</time>
      </trkpt>
      <trkpt lat="42.68890921957790851593017578125" lon="-0.6248288042843341827392578125">
        <ele>1123.5999755859375</ele>
        <time>2020-08-20T05:31:41.000Z</time>
      </trkpt>
      <trkpt lat="42.6889193616807460784912109375" lon="-0.62482855282723903656005859375">
        <ele>1123.5999755859375</ele>
        <time>2020-08-20T05:31:42.000Z</time>
      </trkpt>
      <trkpt lat="42.6889364607632160186767578125" lon="-0.62482033856213092803955078125">
        <ele>1123.800048828125</ele>
        <time>2020-08-20T05:31:44.000Z</time>
      </trkpt>
      <trkpt lat="42.6889522187411785125732421875" lon="-0.62478027306497097015380859375">
        <ele>1124</ele>
        <time>2020-08-20T05:31:48.000Z</time>
      </trkpt>
      <trkpt lat="42.68897719681262969970703125" lon="-0.62475009821355342864990234375">
        <ele>1124</ele>
        <time>2020-08-20T05:31:52.000Z</time>
      </trkpt>
      <trkpt lat="42.68900427035987377166748046875" lon="-0.62472780235111713409423828125">
        <ele>1124</ele>
        <time>2020-08-20T05:31:55.000Z</time>
      </trkpt>
      <trkpt lat="42.6890658773481845855712890625" lon="-0.624667704105377197265625">
        <ele>1124.800048828125</ele>
        <time>2020-08-20T05:32:00.000Z</time>
      </trkpt>
      <trkpt lat="42.6890796236693859100341796875" lon="-0.6246581487357616424560546875">
        <ele>1124.800048828125</ele>
        <time>2020-08-20T05:32:01.000Z</time>
      </trkpt>
      <trkpt lat="42.689115665853023529052734375" lon="-0.62461380846798419952392578125">
        <ele>1124.800048828125</ele>
        <time>2020-08-20T05:32:04.000Z</time>
      </trkpt>
      <trkpt lat="42.68915916793048381805419921875" lon="-0.62457810156047344207763671875">
        <ele>1124.800048828125</ele>
        <time>2020-08-20T05:32:07.000Z</time>
      </trkpt>
      <trkpt lat="42.689251787960529327392578125" lon="-0.624511800706386566162109375">
        <ele>1125.5999755859375</ele>
        <time>2020-08-20T05:32:13.000Z</time>
      </trkpt>
      <trkpt lat="42.68928238190710544586181640625" lon="-0.62449009157717227935791015625">
        <ele>1125.800048828125</ele>
        <time>2020-08-20T05:32:15.000Z</time>
      </trkpt>
      <trkpt lat="42.689380533993244171142578125" lon="-0.62444214709103107452392578125">
        <ele>1126</ele>
        <time>2020-08-20T05:32:21.000Z</time>
      </trkpt>
      <trkpt lat="42.68950852565467357635498046875" lon="-0.624380372464656829833984375">
        <ele>1126.800048828125</ele>
        <time>2020-08-20T05:32:29.000Z</time>
      </trkpt>
      <trkpt lat="42.68952495418488979339599609375" lon="-0.6243728287518024444580078125">
        <ele>1127</ele>
        <time>2020-08-20T05:32:30.000Z</time>
      </trkpt>
      <trkpt lat="42.68965939991176128387451171875" lon="-0.62430468387901782989501953125">
        <ele>1127.800048828125</ele>
        <time>2020-08-20T05:32:38.000Z</time>
      </trkpt>
      <trkpt lat="42.68970985896885395050048828125" lon="-0.62428490258753299713134765625">
        <ele>1128</ele>
        <time>2020-08-20T05:32:41.000Z</time>
      </trkpt>
      <trkpt lat="42.689794935286045074462890625" lon="-0.62425757758319377899169921875">
        <ele>1128.4000244140625</ele>
        <time>2020-08-20T05:32:46.000Z</time>
      </trkpt>
      <trkpt lat="42.6898943446576595306396484375" lon="-0.62420158647000789642333984375">
        <ele>1129.4000244140625</ele>
        <time>2020-08-20T05:32:52.000Z</time>
      </trkpt>
      <trkpt lat="42.6899265311658382415771484375" lon="-0.62418079935014247894287109375">
        <ele>1129.5999755859375</ele>
        <time>2020-08-20T05:32:54.000Z</time>
      </trkpt>
      <trkpt lat="42.69005703739821910858154296875" lon="-0.62411315739154815673828125">
        <ele>1130.4000244140625</ele>
        <time>2020-08-20T05:33:02.000Z</time>
      </trkpt>
      <trkpt lat="42.69016801379621028900146484375" lon="-0.62405356205999851226806640625">
        <ele>1131.5999755859375</ele>
        <time>2020-08-20T05:33:09.000Z</time>
      </trkpt>
      <trkpt lat="42.69019902683794498443603515625" lon="-0.62403612770140171051025390625">
        <ele>1131.800048828125</ele>
        <time>2020-08-20T05:33:11.000Z</time>
      </trkpt>
      <trkpt lat="42.69029692746698856353759765625" lon="-0.62399203889071941375732421875">
        <ele>1132.5999755859375</ele>
        <time>2020-08-20T05:33:17.000Z</time>
      </trkpt>
      <trkpt lat="42.69033171236515045166015625" lon="-0.62398374080657958984375">
        <ele>1133</ele>
        <time>2020-08-20T05:33:19.000Z</time>
      </trkpt>
      <trkpt lat="42.69042550586163997650146484375" lon="-0.6239248998463153839111328125">
        <ele>1133.4000244140625</ele>
        <time>2020-08-20T05:33:25.000Z</time>
      </trkpt>
      <trkpt lat="42.690443359315395355224609375" lon="-0.6239222176373004913330078125">
        <ele>1133.800048828125</ele>
        <time>2020-08-20T05:33:26.000Z</time>
      </trkpt>
      <trkpt lat="42.69062197767198085784912109375" lon="-0.62388944439589977264404296875">
        <ele>1134.800048828125</ele>
        <time>2020-08-20T05:33:36.000Z</time>
      </trkpt>
      <trkpt lat="42.69074619747698307037353515625" lon="-0.62386035919189453125">
        <ele>1136</ele>
        <time>2020-08-20T05:33:43.000Z</time>
      </trkpt>
      <trkpt lat="42.69078257493674755096435546875" lon="-0.623858682811260223388671875">
        <ele>1136.199951171875</ele>
        <time>2020-08-20T05:33:45.000Z</time>
      </trkpt>
      <trkpt lat="42.69090562127530574798583984375" lon="-0.62384854070842266082763671875">
        <ele>1137.199951171875</ele>
        <time>2020-08-20T05:33:52.000Z</time>
      </trkpt>
      <trkpt lat="42.690922804176807403564453125" lon="-0.6238482892513275146484375">
        <ele>1137.4000244140625</ele>
        <time>2020-08-20T05:33:53.000Z</time>
      </trkpt>
      <trkpt lat="42.69102548249065876007080078125" lon="-0.62383412383496761322021484375">
        <ele>1138.199951171875</ele>
        <time>2020-08-20T05:33:59.000Z</time>
      </trkpt>
      <trkpt lat="42.69104258157312870025634765625" lon="-0.62383278273046016693115234375">
        <ele>1138.199951171875</ele>
        <time>2020-08-20T05:34:00.000Z</time>
      </trkpt>
      <trkpt lat="42.6911450922489166259765625" lon="-0.6238134205341339111328125">
        <ele>1139.199951171875</ele>
        <time>2020-08-20T05:34:06.000Z</time>
      </trkpt>
      <trkpt lat="42.6911787874996662139892578125" lon="-0.6238186173141002655029296875">
        <ele>1139.4000244140625</ele>
        <time>2020-08-20T05:34:08.000Z</time>
      </trkpt>
      <trkpt lat="42.691196389496326446533203125" lon="-0.623815096914768218994140625">
        <ele>1139.5999755859375</ele>
        <time>2020-08-20T05:34:09.000Z</time>
      </trkpt>
      <trkpt lat="42.69128247164189815521240234375" lon="-0.62381048686802387237548828125">
        <ele>1140.199951171875</ele>
        <time>2020-08-20T05:34:14.000Z</time>
      </trkpt>
      <trkpt lat="42.6913159154355525970458984375" lon="-0.62379389069974422454833984375">
        <ele>1140.5999755859375</ele>
        <time>2020-08-20T05:34:16.000Z</time>
      </trkpt>
      <trkpt lat="42.69140325486660003662109375" lon="-0.62376187182962894439697265625">
        <ele>1141.4000244140625</ele>
        <time>2020-08-20T05:34:21.000Z</time>
      </trkpt>
      <trkpt lat="42.69148849882185459136962890625" lon="-0.62374074943363666534423828125">
        <ele>1142</ele>
        <time>2020-08-20T05:34:26.000Z</time>
      </trkpt>
      <trkpt lat="42.691539712250232696533203125" lon="-0.62375214882194995880126953125">
        <ele>1142.4000244140625</ele>
        <time>2020-08-20T05:34:29.000Z</time>
      </trkpt>
      <trkpt lat="42.691581286489963531494140625" lon="-0.6237961538136005401611328125">
        <ele>1143.199951171875</ele>
        <time>2020-08-20T05:34:32.000Z</time>
      </trkpt>
      <trkpt lat="42.691597379744052886962890625" lon="-0.6238643825054168701171875">
        <ele>1143.5999755859375</ele>
        <time>2020-08-20T05:34:35.000Z</time>
      </trkpt>
      <trkpt lat="42.6915804482996463775634765625" lon="-0.62392950989305973052978515625">
        <ele>1144.199951171875</ele>
        <time>2020-08-20T05:34:38.000Z</time>
      </trkpt>
      <trkpt lat="42.69156712107360363006591796875" lon="-0.62394677661359310150146484375">
        <ele>1144.4000244140625</ele>
        <time>2020-08-20T05:34:39.000Z</time>
      </trkpt>
      <trkpt lat="42.6915375329554080963134765625" lon="-0.62397561036050319671630859375">
        <ele>1144.800048828125</ele>
        <time>2020-08-20T05:34:41.000Z</time>
      </trkpt>
      <trkpt lat="42.69144893623888492584228515625" lon="-0.62402690760791301727294921875">
        <ele>1145.4000244140625</ele>
        <time>2020-08-20T05:34:46.000Z</time>
      </trkpt>
      <trkpt lat="42.69136880524456501007080078125" lon="-0.62404132448136806488037109375">
        <ele>1145.800048828125</ele>
        <time>2020-08-20T05:34:50.000Z</time>
      </trkpt>
      <trkpt lat="42.6912724971771240234375" lon="-0.62405590899288654327392578125">
        <ele>1146.4000244140625</ele>
        <time>2020-08-20T05:34:55.000Z</time>
      </trkpt>
      <trkpt lat="42.69121591933071613311767578125" lon="-0.624070577323436737060546875">
        <ele>1147.199951171875</ele>
        <time>2020-08-20T05:34:58.000Z</time>
      </trkpt>
      <trkpt lat="42.6910651288926601409912109375" lon="-0.6241324357688426971435546875">
        <ele>1148</ele>
        <time>2020-08-20T05:35:06.000Z</time>
      </trkpt>
      <trkpt lat="42.69102640450000762939453125" lon="-0.624145008623600006103515625">
        <ele>1148.199951171875</ele>
        <time>2020-08-20T05:35:08.000Z</time>
      </trkpt>
      <trkpt lat="42.69087561406195163726806640625" lon="-0.62422103248536586761474609375">
        <ele>1149.199951171875</ele>
        <time>2020-08-20T05:35:16.000Z</time>
      </trkpt>
      <trkpt lat="42.69085784442722797393798828125" lon="-0.62423444353044033050537109375">
        <ele>1149.4000244140625</ele>
        <time>2020-08-20T05:35:17.000Z</time>
      </trkpt>
      <trkpt lat="42.6906822435557842254638671875" lon="-0.6243503652513027191162109375">
        <ele>1150.4000244140625</ele>
        <time>2020-08-20T05:35:27.000Z</time>
      </trkpt>
      <trkpt lat="42.6905657351016998291015625" lon="-0.624444074928760528564453125">
        <ele>1151.199951171875</ele>
        <time>2020-08-20T05:35:34.000Z</time>
      </trkpt>
      <trkpt lat="42.6905317045748233795166015625" lon="-0.62447265721857547760009765625">
        <ele>1151.4000244140625</ele>
        <time>2020-08-20T05:35:36.000Z</time>
      </trkpt>
      <trkpt lat="42.690401785075664520263671875" lon="-0.62460827641189098358154296875">
        <ele>1152.5999755859375</ele>
        <time>2020-08-20T05:35:44.000Z</time>
      </trkpt>
      <trkpt lat="42.6902765594422817230224609375" lon="-0.62474104575812816619873046875">
        <ele>1153.800048828125</ele>
        <time>2020-08-20T05:35:52.000Z</time>
      </trkpt>
      <trkpt lat="42.69023322500288486480712890625" lon="-0.624793432652950286865234375">
        <ele>1154.199951171875</ele>
        <time>2020-08-20T05:35:55.000Z</time>
      </trkpt>
      <trkpt lat="42.69010766409337520599365234375" lon="-0.6249253638088703155517578125">
        <ele>1154.800048828125</ele>
        <time>2020-08-20T05:36:03.000Z</time>
      </trkpt>
      <trkpt lat="42.690018899738788604736328125" lon="-0.6250356696546077728271484375">
        <ele>1155.800048828125</ele>
        <time>2020-08-20T05:36:09.000Z</time>
      </trkpt>
      <trkpt lat="42.6899714581668376922607421875" lon="-0.625085122883319854736328125">
        <ele>1156.4000244140625</ele>
        <time>2020-08-20T05:36:12.000Z</time>
      </trkpt>
      <trkpt lat="42.68989794887602329254150390625" lon="-0.625179000198841094970703125">
        <ele>1157.199951171875</ele>
        <time>2020-08-20T05:36:17.000Z</time>
      </trkpt>
      <trkpt lat="42.68984212540090084075927734375" lon="-0.6252582930028438568115234375">
        <ele>1157.5999755859375</ele>
        <time>2020-08-20T05:36:21.000Z</time>
      </trkpt>
      <trkpt lat="42.68975009210407733917236328125" lon="-0.62539684586226940155029296875">
        <ele>1158.199951171875</ele>
        <time>2020-08-20T05:36:28.000Z</time>
      </trkpt>
      <trkpt lat="42.68972695805132389068603515625" lon="-0.62543925829231739044189453125">
        <ele>1158.199951171875</ele>
        <time>2020-08-20T05:36:30.000Z</time>
      </trkpt>
      <trkpt lat="42.689658813178539276123046875" lon="-0.62559507787227630615234375">
        <ele>1159.4000244140625</ele>
        <time>2020-08-20T05:36:37.000Z</time>
      </trkpt>
      <trkpt lat="42.68962151370942592620849609375" lon="-0.625687278807163238525390625">
        <ele>1159.800048828125</ele>
        <time>2020-08-20T05:36:41.000Z</time>
      </trkpt>
      <trkpt lat="42.68959150649607181549072265625" lon="-0.62581124715507030487060546875">
        <ele>1160.4000244140625</ele>
        <time>2020-08-20T05:36:46.000Z</time>
      </trkpt>
      <trkpt lat="42.689573653042316436767578125" lon="-0.625912584364414215087890625">
        <ele>1161</ele>
        <time>2020-08-20T05:36:50.000Z</time>
      </trkpt>
      <trkpt lat="42.68955881707370281219482421875" lon="-0.6260116584599018096923828125">
        <ele>1161.5999755859375</ele>
        <time>2020-08-20T05:36:54.000Z</time>
      </trkpt>
      <trkpt lat="42.6895563863217830657958984375" lon="-0.62611006200313568115234375">
        <ele>1162.199951171875</ele>
        <time>2020-08-20T05:36:58.000Z</time>
      </trkpt>
      <trkpt lat="42.689548842608928680419921875" lon="-0.626186840236186981201171875">
        <ele>1162.800048828125</ele>
        <time>2020-08-20T05:37:01.000Z</time>
      </trkpt>
      <trkpt lat="42.6895697973668575286865234375" lon="-0.62631701119244098663330078125">
        <ele>1163.4000244140625</ele>
        <time>2020-08-20T05:37:06.000Z</time>
      </trkpt>
      <trkpt lat="42.689591757953166961669921875" lon="-0.62638909555971622467041015625">
        <ele>1163.800048828125</ele>
        <time>2020-08-20T05:37:09.000Z</time>
      </trkpt>
      <trkpt lat="42.68964179791510105133056640625" lon="-0.62658908776938915252685546875">
        <ele>1165</ele>
        <time>2020-08-20T05:37:17.000Z</time>
      </trkpt>
      <trkpt lat="42.6896509341895580291748046875" lon="-0.6266124732792377471923828125">
        <ele>1165.199951171875</ele>
        <time>2020-08-20T05:37:18.000Z</time>
      </trkpt>
      <trkpt lat="42.6896911673247814178466796875" lon="-0.626782961189746856689453125">
        <ele>1166.199951171875</ele>
        <time>2020-08-20T05:37:25.000Z</time>
      </trkpt>
      <trkpt lat="42.689695023000240325927734375" lon="-0.6268072687089443206787109375">
        <ele>1166.4000244140625</ele>
        <time>2020-08-20T05:37:26.000Z</time>
      </trkpt>
      <trkpt lat="42.68972410820424556732177734375" lon="-0.62698052264750003814697265625">
        <ele>1167.4000244140625</ele>
        <time>2020-08-20T05:37:33.000Z</time>
      </trkpt>
      <trkpt lat="42.68972762860357761383056640625" lon="-0.6270060874521732330322265625">
        <ele>1167.5999755859375</ele>
        <time>2020-08-20T05:37:34.000Z</time>
      </trkpt>
      <trkpt lat="42.68977071158587932586669921875" lon="-0.62723130919039249420166015625">
        <ele>1168.800048828125</ele>
        <time>2020-08-20T05:37:43.000Z</time>
      </trkpt>
      <trkpt lat="42.68979661166667938232421875" lon="-0.62743901275098323822021484375">
        <ele>1169.800048828125</ele>
        <time>2020-08-20T05:37:51.000Z</time>
      </trkpt>
      <trkpt lat="42.68982904963195323944091796875" lon="-0.6276126019656658172607421875">
        <ele>1171</ele>
        <time>2020-08-20T05:37:58.000Z</time>
      </trkpt>
      <trkpt lat="42.68989375792443752288818359375" lon="-0.62779423780739307403564453125">
        <ele>1172</ele>
        <time>2020-08-20T05:38:06.000Z</time>
      </trkpt>
      <trkpt lat="42.68990633077919483184814453125" lon="-0.62781393527984619140625">
        <ele>1172.199951171875</ele>
        <time>2020-08-20T05:38:07.000Z</time>
      </trkpt>
      <trkpt lat="42.69000154919922351837158203125" lon="-0.62794209457933902740478515625">
        <ele>1173.199951171875</ele>
        <time>2020-08-20T05:38:14.000Z</time>
      </trkpt>
      <trkpt lat="42.69001479260623455047607421875" lon="-0.62796137295663356781005859375">
        <ele>1173.4000244140625</ele>
        <time>2020-08-20T05:38:15.000Z</time>
      </trkpt>
      <trkpt lat="42.690107412636280059814453125" lon="-0.6280917115509510040283203125">
        <ele>1174.4000244140625</ele>
        <time>2020-08-20T05:38:22.000Z</time>
      </trkpt>
      <trkpt lat="42.69011923111975193023681640625" lon="-0.6281104870140552520751953125">
        <ele>1174.5999755859375</ele>
        <time>2020-08-20T05:38:23.000Z</time>
      </trkpt>
      <trkpt lat="42.69018645398318767547607421875" lon="-0.62823143787682056427001953125">
        <ele>1175.800048828125</ele>
        <time>2020-08-20T05:38:29.000Z</time>
      </trkpt>
      <trkpt lat="42.69021964631974697113037109375" lon="-0.62829413451254367828369140625">
        <ele>1176.4000244140625</ele>
        <time>2020-08-20T05:38:32.000Z</time>
      </trkpt>
      <trkpt lat="42.69027580507099628448486328125" lon="-0.6284273229539394378662109375">
        <ele>1177</ele>
        <time>2020-08-20T05:38:38.000Z</time>
      </trkpt>
      <trkpt lat="42.6902948319911956787109375" lon="-0.62849856913089752197265625">
        <ele>1177.5999755859375</ele>
        <time>2020-08-20T05:38:41.000Z</time>
      </trkpt>
      <trkpt lat="42.69030899740755558013916015625" lon="-0.628569982945919036865234375">
        <ele>1178.199951171875</ele>
        <time>2020-08-20T05:38:44.000Z</time>
      </trkpt>
      <trkpt lat="42.69035006873309612274169921875" lon="-0.62876402400434017181396484375">
        <ele>1179.4000244140625</ele>
        <time>2020-08-20T05:38:52.000Z</time>
      </trkpt>
      <trkpt lat="42.69038829021155834197998046875" lon="-0.6288692168891429901123046875">
        <ele>1180.4000244140625</ele>
        <time>2020-08-20T05:38:57.000Z</time>
      </trkpt>
      <trkpt lat="42.6904267631471157073974609375" lon="-0.62891372479498386383056640625">
        <ele>1181</ele>
        <time>2020-08-20T05:39:00.000Z</time>
      </trkpt>
      <trkpt lat="42.69049742259085178375244140625" lon="-0.628914646804332733154296875">
        <ele>1181.5999755859375</ele>
        <time>2020-08-20T05:39:04.000Z</time>
      </trkpt>
      <trkpt lat="42.69053044728934764862060546875" lon="-0.62890249304473400115966796875">
        <ele>1182.199951171875</ele>
        <time>2020-08-20T05:39:06.000Z</time>
      </trkpt>
      <trkpt lat="42.69056665711104869842529296875" lon="-0.62888790853321552276611328125">
        <ele>1182.800048828125</ele>
        <time>2020-08-20T05:39:08.000Z</time>
      </trkpt>
      <trkpt lat="42.69061242230236530303955078125" lon="-0.6288232840597629547119140625">
        <ele>1183.4000244140625</ele>
        <time>2020-08-20T05:39:12.000Z</time>
      </trkpt>
      <trkpt lat="42.69062080420553684234619140625" lon="-0.62877617776393890380859375">
        <ele>1183.800048828125</ele>
        <time>2020-08-20T05:39:14.000Z</time>
      </trkpt>
      <trkpt lat="42.6906242407858371734619140625" lon="-0.62863108702003955841064453125">
        <ele>1184.5999755859375</ele>
        <time>2020-08-20T05:39:20.000Z</time>
      </trkpt>
      <trkpt lat="42.69062667153775691986083984375" lon="-0.62855347059667110443115234375">
        <ele>1185</ele>
        <time>2020-08-20T05:39:23.000Z</time>
      </trkpt>
      <trkpt lat="42.6906151883304119110107421875" lon="-0.62840611673891544342041015625">
        <ele>1185.800048828125</ele>
        <time>2020-08-20T05:39:29.000Z</time>
      </trkpt>
      <trkpt lat="42.69061200320720672607421875" lon="-0.6283565796911716461181640625">
        <ele>1186</ele>
        <time>2020-08-20T05:39:31.000Z</time>
      </trkpt>
      <trkpt lat="42.69060253165662288665771484375" lon="-0.62818885780870914459228515625">
        <ele>1187.199951171875</ele>
        <time>2020-08-20T05:39:38.000Z</time>
      </trkpt>
      <trkpt lat="42.69060035236179828643798828125" lon="-0.6281637959182262420654296875">
        <ele>1187.199951171875</ele>
        <time>2020-08-20T05:39:39.000Z</time>
      </trkpt>
      <trkpt lat="42.6905910484492778778076171875" lon="-0.62801979482173919677734375">
        <ele>1188.199951171875</ele>
        <time>2020-08-20T05:39:45.000Z</time>
      </trkpt>
      <trkpt lat="42.6905789785087108612060546875" lon="-0.627949722111225128173828125">
        <ele>1188.5999755859375</ele>
        <time>2020-08-20T05:39:48.000Z</time>
      </trkpt>
      <trkpt lat="42.69055324606597423553466796875" lon="-0.62786179594695568084716796875">
        <ele>1189.4000244140625</ele>
        <time>2020-08-20T05:39:52.000Z</time>
      </trkpt>
      <trkpt lat="42.6905162818729877471923828125" lon="-0.6277262605726718902587890625">
        <ele>1190.199951171875</ele>
        <time>2020-08-20T05:39:58.000Z</time>
      </trkpt>
      <trkpt lat="42.69049935042858123779296875" lon="-0.62768175266683101654052734375">
        <ele>1190.4000244140625</ele>
        <time>2020-08-20T05:40:00.000Z</time>
      </trkpt>
      <trkpt lat="42.69045182503759860992431640625" lon="-0.62755350954830646514892578125">
        <ele>1191.5999755859375</ele>
        <time>2020-08-20T05:40:06.000Z</time>
      </trkpt>
      <trkpt lat="42.69044495187699794769287109375" lon="-0.6275314651429653167724609375">
        <ele>1191.5999755859375</ele>
        <time>2020-08-20T05:40:07.000Z</time>
      </trkpt>
      <trkpt lat="42.690402455627918243408203125" lon="-0.6273983605206012725830078125">
        <ele>1192.800048828125</ele>
        <time>2020-08-20T05:40:13.000Z</time>
      </trkpt>
      <trkpt lat="42.690381668508052825927734375" lon="-0.62733239494264125823974609375">
        <ele>1193.4000244140625</ele>
        <time>2020-08-20T05:40:16.000Z</time>
      </trkpt>
      <trkpt lat="42.69036113284528255462646484375" lon="-0.627265758812427520751953125">
        <ele>1194</ele>
        <time>2020-08-20T05:40:19.000Z</time>
      </trkpt>
      <trkpt lat="42.69034956581890583038330078125" lon="-0.6271448917686939239501953125">
        <ele>1194.800048828125</ele>
        <time>2020-08-20T05:40:24.000Z</time>
      </trkpt>
      <trkpt lat="42.6903479732573032379150390625" lon="-0.6270956061780452728271484375">
        <ele>1195</ele>
        <time>2020-08-20T05:40:26.000Z</time>
      </trkpt>
      <trkpt lat="42.69035828299820423126220703125" lon="-0.62692386098206043243408203125">
        <ele>1195.800048828125</ele>
        <time>2020-08-20T05:40:33.000Z</time>
      </trkpt>
      <trkpt lat="42.6903640665113925933837890625" lon="-0.62687407247722148895263671875">
        <ele>1196.199951171875</ele>
        <time>2020-08-20T05:40:35.000Z</time>
      </trkpt>
      <trkpt lat="42.69040924496948719024658203125" lon="-0.62668950296938419342041015625">
        <ele>1197.199951171875</ele>
        <time>2020-08-20T05:40:43.000Z</time>
      </trkpt>
      <trkpt lat="42.6904143579304218292236328125" lon="-0.62666586600244045257568359375">
        <ele>1197.4000244140625</ele>
        <time>2020-08-20T05:40:44.000Z</time>
      </trkpt>
      <trkpt lat="42.690469510853290557861328125" lon="-0.62648749910295009613037109375">
        <ele>1198.4000244140625</ele>
        <time>2020-08-20T05:40:52.000Z</time>
      </trkpt>
      <trkpt lat="42.6905548386275768280029296875" lon="-0.626333691179752349853515625">
        <ele>1199.4000244140625</ele>
        <time>2020-08-20T05:41:00.000Z</time>
      </trkpt>
      <trkpt lat="42.6905789785087108612060546875" lon="-0.62629940919578075408935546875">
        <ele>1199.800048828125</ele>
        <time>2020-08-20T05:41:02.000Z</time>
      </trkpt>
      <trkpt lat="42.69064628519117832183837890625" lon="-0.6262889318168163299560546875">
        <ele>1200.4000244140625</ele>
        <time>2020-08-20T05:41:06.000Z</time>
      </trkpt>
      <trkpt lat="42.69070646725594997406005859375" lon="-0.6263224594295024871826171875">
        <ele>1201</ele>
        <time>2020-08-20T05:41:10.000Z</time>
      </trkpt>
      <trkpt lat="42.69073261879384517669677734375" lon="-0.62635221518576145172119140625">
        <ele>1201.4000244140625</ele>
        <time>2020-08-20T05:41:12.000Z</time>
      </trkpt>
      <trkpt lat="42.69076547585427761077880859375" lon="-0.62640510499477386474609375">
        <ele>1202</ele>
        <time>2020-08-20T05:41:15.000Z</time>
      </trkpt>
      <trkpt lat="42.6907697506248950958251953125" lon="-0.62642681412398815155029296875">
        <ele>1202.4000244140625</ele>
        <time>2020-08-20T05:41:16.000Z</time>
      </trkpt>
      <trkpt lat="42.69077033735811710357666015625" lon="-0.62644810415804386138916015625">
        <ele>1202.4000244140625</ele>
        <time>2020-08-20T05:41:17.000Z</time>
      </trkpt>
      <trkpt lat="42.69076799042522907257080078125" lon="-0.62661356292665004730224609375">
        <ele>1203.4000244140625</ele>
        <time>2020-08-20T05:41:24.000Z</time>
      </trkpt>
      <trkpt lat="42.69076329655945301055908203125" lon="-0.6266889162361621856689453125">
        <ele>1203.800048828125</ele>
        <time>2020-08-20T05:41:27.000Z</time>
      </trkpt>
      <trkpt lat="42.69076623022556304931640625" lon="-0.62681623734533786773681640625">
        <ele>1204.5999755859375</ele>
        <time>2020-08-20T05:41:32.000Z</time>
      </trkpt>
      <trkpt lat="42.69078073091804981231689453125" lon="-0.62691749073565006256103515625">
        <ele>1205</ele>
        <time>2020-08-20T05:41:36.000Z</time>
      </trkpt>
      <trkpt lat="42.6908596046268939971923828125" lon="-0.6271194107830524444580078125">
        <ele>1205.800048828125</ele>
        <time>2020-08-20T05:41:45.000Z</time>
      </trkpt>
      <trkpt lat="42.69087125547230243682861328125" lon="-0.62713994644582271575927734375">
        <ele>1206.199951171875</ele>
        <time>2020-08-20T05:41:46.000Z</time>
      </trkpt>
      <trkpt lat="42.6909394003450870513916015625" lon="-0.6272820197045803070068359375">
        <ele>1207</ele>
        <time>2020-08-20T05:41:53.000Z</time>
      </trkpt>
      <trkpt lat="42.6909387297928333282470703125" lon="-0.6272843666374683380126953125">
        <ele>1207</ele>
        <time>2020-08-20T05:41:54.000Z</time>
      </trkpt>
      <trkpt lat="42.690947949886322021484375" lon="-0.62732736580073833465576171875">
        <ele>1207.5999755859375</ele>
        <time>2020-08-20T05:45:50.000Z</time>
      </trkpt>
      <trkpt lat="42.690947949886322021484375" lon="-0.6273276172578334808349609375">
        <ele>1207.5999755859375</ele>
        <time>2020-08-20T05:45:52.000Z</time>
      </trkpt>
      <trkpt lat="42.69095532596111297607421875" lon="-0.62737162224948406219482421875">
        <ele>1207.4000244140625</ele>
        <time>2020-08-20T05:45:55.000Z</time>
      </trkpt>
      <trkpt lat="42.691017352044582366943359375" lon="-0.6274590454995632171630859375">
        <ele>1207.5999755859375</ele>
        <time>2020-08-20T05:46:01.000Z</time>
      </trkpt>
      <trkpt lat="42.691028751432895660400390625" lon="-0.62747857533395290374755859375">
        <ele>1207.5999755859375</ele>
        <time>2020-08-20T05:46:02.000Z</time>
      </trkpt>
      <trkpt lat="42.69113369286060333251953125" lon="-0.627651996910572052001953125">
        <ele>1208.800048828125</ele>
        <time>2020-08-20T05:46:11.000Z</time>
      </trkpt>
      <trkpt lat="42.6911707408726215362548828125" lon="-0.62771025113761425018310546875">
        <ele>1209</ele>
        <time>2020-08-20T05:46:14.000Z</time>
      </trkpt>
      <trkpt lat="42.69125833176076412200927734375" lon="-0.6278529949486255645751953125">
        <ele>1209.800048828125</ele>
        <time>2020-08-20T05:46:21.000Z</time>
      </trkpt>
      <trkpt lat="42.691319771111011505126953125" lon="-0.627924241125583648681640625">
        <ele>1210.199951171875</ele>
        <time>2020-08-20T05:46:25.000Z</time>
      </trkpt>
      <trkpt lat="42.6914081163704395294189453125" lon="-0.62803697772324085235595703125">
        <ele>1211</ele>
        <time>2020-08-20T05:46:31.000Z</time>
      </trkpt>
      <trkpt lat="42.69146385602653026580810546875" lon="-0.62811392359435558319091796875">
        <ele>1211.4000244140625</ele>
        <time>2020-08-20T05:46:35.000Z</time>
      </trkpt>
      <trkpt lat="42.6915361918509006500244140625" lon="-0.62820713035762310028076171875">
        <ele>1211.800048828125</ele>
        <time>2020-08-20T05:46:40.000Z</time>
      </trkpt>
      <trkpt lat="42.69162227399647235870361328125" lon="-0.62837309204041957855224609375">
        <ele>1212.5999755859375</ele>
        <time>2020-08-20T05:46:48.000Z</time>
      </trkpt>
      <trkpt lat="42.691640295088291168212890625" lon="-0.6284165941178798675537109375">
        <ele>1212.5999755859375</ele>
        <time>2020-08-20T05:46:50.000Z</time>
      </trkpt>
      <trkpt lat="42.691668458282947540283203125" lon="-0.628563947975635528564453125">
        <ele>1213.5999755859375</ele>
        <time>2020-08-20T05:46:56.000Z</time>
      </trkpt>
      <trkpt lat="42.691666781902313232421875" lon="-0.62861482612788677215576171875">
        <ele>1213.800048828125</ele>
        <time>2020-08-20T05:46:58.000Z</time>
      </trkpt>
      <trkpt lat="42.6916451565921306610107421875" lon="-0.62878900207579135894775390625">
        <ele>1215</ele>
        <time>2020-08-20T05:47:05.000Z</time>
      </trkpt>
      <trkpt lat="42.69162713550031185150146484375" lon="-0.629007853567600250244140625">
        <ele>1216</ele>
        <time>2020-08-20T05:47:14.000Z</time>
      </trkpt>
      <trkpt lat="42.69162897951900959014892578125" lon="-0.62903123907744884490966796875">
        <ele>1216.199951171875</ele>
        <time>2020-08-20T05:47:15.000Z</time>
      </trkpt>
      <trkpt lat="42.69164641387760639190673828125" lon="-0.629235170781612396240234375">
        <ele>1217</ele>
        <time>2020-08-20T05:47:23.000Z</time>
      </trkpt>
      <trkpt lat="42.6916508562862873077392578125" lon="-0.6292581371963024139404296875">
        <ele>1217.199951171875</ele>
        <time>2020-08-20T05:47:24.000Z</time>
      </trkpt>
      <trkpt lat="42.691653035581111907958984375" lon="-0.629305578768253326416015625">
        <ele>1217.4000244140625</ele>
        <time>2020-08-20T05:47:26.000Z</time>
      </trkpt>
      <trkpt lat="42.69164071418344974517822265625" lon="-0.6293912418186664581298828125">
        <ele>1208</ele>
        <time>2020-08-20T05:47:29.000Z</time>
      </trkpt>
      <trkpt lat="42.69158304668962955474853515625" lon="-0.62957438640296459197998046875">
        <ele>1218.199951171875</ele>
        <time>2020-08-20T05:47:36.000Z</time>
      </trkpt>
      <trkpt lat="42.691571228206157684326171875" lon="-0.62959735281765460968017578125">
        <ele>1218.4000244140625</ele>
        <time>2020-08-20T05:47:37.000Z</time>
      </trkpt>
      <trkpt lat="42.69147927872836589813232421875" lon="-0.629752837121486663818359375">
        <ele>1219.199951171875</ele>
        <time>2020-08-20T05:47:44.000Z</time>
      </trkpt>
      <trkpt lat="42.691462598741054534912109375" lon="-0.6297711096704006195068359375">
        <ele>1219.5999755859375</ele>
        <time>2020-08-20T05:47:45.000Z</time>
      </trkpt>
      <trkpt lat="42.691396214067935943603515625" lon="-0.629841350018978118896484375">
        <ele>1220.199951171875</ele>
        <time>2020-08-20T05:47:49.000Z</time>
      </trkpt>
      <trkpt lat="42.69131851382553577423095703125" lon="-0.62994293868541717529296875">
        <ele>1220.800048828125</ele>
        <time>2020-08-20T05:47:54.000Z</time>
      </trkpt>
      <trkpt lat="42.69125497899949550628662109375" lon="-0.63001443631947040557861328125">
        <ele>1221.4000244140625</ele>
        <time>2020-08-20T05:47:58.000Z</time>
      </trkpt>
      <trkpt lat="42.69116026349365711212158203125" lon="-0.63013128004968166351318359375">
        <ele>1222.199951171875</ele>
        <time>2020-08-20T05:48:04.000Z</time>
      </trkpt>
      <trkpt lat="42.6911263167858123779296875" lon="-0.63016564585268497467041015625">
        <ele>1222.4000244140625</ele>
        <time>2020-08-20T05:48:06.000Z</time>
      </trkpt>
      <trkpt lat="42.69100938923656940460205078125" lon="-0.63029305078089237213134765625">
        <ele>1223</ele>
        <time>2020-08-20T05:48:13.000Z</time>
      </trkpt>
      <trkpt lat="42.6909276656806468963623046875" lon="-0.630386509001255035400390625">
        <ele>1223.5999755859375</ele>
        <time>2020-08-20T05:48:18.000Z</time>
      </trkpt>
      <trkpt lat="42.6908756978809833526611328125" lon="-0.6304371356964111328125">
        <ele>1224</ele>
        <time>2020-08-20T05:48:21.000Z</time>
      </trkpt>
      <trkpt lat="42.69077067263424396514892578125" lon="-0.63054266385734081268310546875">
        <ele>1224.5999755859375</ele>
        <time>2020-08-20T05:48:27.000Z</time>
      </trkpt>
      <trkpt lat="42.69072524271905422210693359375" lon="-0.63060502521693706512451171875">
        <ele>1225</ele>
        <time>2020-08-20T05:48:30.000Z</time>
      </trkpt>
      <trkpt lat="42.69065215252339839935302734375" lon="-0.6307226233184337615966796875">
        <ele>1225.5999755859375</ele>
        <time>2020-08-20T05:48:35.000Z</time>
      </trkpt>
      <trkpt lat="42.69062784500420093536376953125" lon="-0.6308118067681789398193359375">
        <ele>1225.800048828125</ele>
        <time>2020-08-20T05:48:38.000Z</time>
      </trkpt>
      <trkpt lat="42.69059414975345134735107421875" lon="-0.63102780841290950775146484375">
        <ele>1226.4000244140625</ele>
        <time>2020-08-20T05:48:45.000Z</time>
      </trkpt>
      <trkpt lat="42.69059482030570507049560546875" lon="-0.63106033019721508026123046875">
        <ele>1226.5999755859375</ele>
        <time>2020-08-20T05:48:46.000Z</time>
      </trkpt>
      <trkpt lat="42.6906032860279083251953125" lon="-0.631279684603214263916015625">
        <ele>1227.5999755859375</ele>
        <time>2020-08-20T05:48:53.000Z</time>
      </trkpt>
      <trkpt lat="42.69063689745962619781494140625" lon="-0.6315111927688121795654296875">
        <ele>1229</ele>
        <time>2020-08-20T05:49:01.000Z</time>
      </trkpt>
      <trkpt lat="42.69064125604927539825439453125" lon="-0.63153793103992938995361328125">
        <ele>1229.199951171875</ele>
        <time>2020-08-20T05:49:02.000Z</time>
      </trkpt>
      <trkpt lat="42.69066640175879001617431640625" lon="-0.63173658214509487152099609375">
        <ele>1230</ele>
        <time>2020-08-20T05:49:09.000Z</time>
      </trkpt>
      <trkpt lat="42.6906738616526126861572265625" lon="-0.631822831928730010986328125">
        <ele>1230.4000244140625</ele>
        <time>2020-08-20T05:49:12.000Z</time>
      </trkpt>
      <trkpt lat="42.6906772144138813018798828125" lon="-0.63193892128765583038330078125">
        <ele>1231</ele>
        <time>2020-08-20T05:49:16.000Z</time>
      </trkpt>
      <trkpt lat="42.6906698383390903472900390625" lon="-0.632029362022876739501953125">
        <ele>1231.5999755859375</ele>
        <time>2020-08-20T05:49:19.000Z</time>
      </trkpt>
      <trkpt lat="42.69064527936279773712158203125" lon="-0.63217327930033206939697265625">
        <ele>1232</ele>
        <time>2020-08-20T05:49:24.000Z</time>
      </trkpt>
      <trkpt lat="42.690638490021228790283203125" lon="-0.63220144249498844146728515625">
        <ele>1232.199951171875</ele>
        <time>2020-08-20T05:49:25.000Z</time>
      </trkpt>
      <trkpt lat="42.69058425910770893096923828125" lon="-0.632396824657917022705078125">
        <ele>1233.199951171875</ele>
        <time>2020-08-20T05:49:32.000Z</time>
      </trkpt>
      <trkpt lat="42.69053648225963115692138671875" lon="-0.632583908736705780029296875">
        <ele>1234</ele>
        <time>2020-08-20T05:49:39.000Z</time>
      </trkpt>
      <trkpt lat="42.69053195603191852569580078125" lon="-0.63261182047426700592041015625">
        <ele>1234.199951171875</ele>
        <time>2020-08-20T05:49:40.000Z</time>
      </trkpt>
      <trkpt lat="42.69049725495278835296630859375" lon="-0.63277577050030231475830078125">
        <ele>1235.4000244140625</ele>
        <time>2020-08-20T05:49:46.000Z</time>
      </trkpt>
      <trkpt lat="42.690477557480335235595703125" lon="-0.63286109827458858489990234375">
        <ele>1235.800048828125</ele>
        <time>2020-08-20T05:49:49.000Z</time>
      </trkpt>
      <trkpt lat="42.6904504001140594482421875" lon="-0.63299470581114292144775390625">
        <ele>1236.4000244140625</ele>
        <time>2020-08-20T05:49:54.000Z</time>
      </trkpt>
      <trkpt lat="42.6904143579304218292236328125" lon="-0.633125044405460357666015625">
        <ele>1237</ele>
        <time>2020-08-20T05:49:59.000Z</time>
      </trkpt>
      <trkpt lat="42.6903939060866832733154296875" lon="-0.63320509158074855804443359375">
        <ele>1237.4000244140625</ele>
        <time>2020-08-20T05:50:02.000Z</time>
      </trkpt>
      <trkpt lat="42.69035677425563335418701171875" lon="-0.63332931138575077056884765625">
        <ele>1238.5999755859375</ele>
        <time>2020-08-20T05:50:07.000Z</time>
      </trkpt>
      <trkpt lat="42.69034068100154399871826171875" lon="-0.633378513157367706298828125">
        <ele>1239</ele>
        <time>2020-08-20T05:50:09.000Z</time>
      </trkpt>
      <trkpt lat="42.69029893912374973297119140625" lon="-0.63349954783916473388671875">
        <ele>1239.800048828125</ele>
        <time>2020-08-20T05:50:14.000Z</time>
      </trkpt>
      <trkpt lat="42.690277062356472015380859375" lon="-0.63357657752931118011474609375">
        <ele>1240.4000244140625</ele>
        <time>2020-08-20T05:50:17.000Z</time>
      </trkpt>
      <trkpt lat="42.69025661051273345947265625" lon="-0.63365134410560131072998046875">
        <ele>1240.800048828125</ele>
        <time>2020-08-20T05:50:20.000Z</time>
      </trkpt>
      <trkpt lat="42.690208666026592254638671875" lon="-0.63378612510859966278076171875">
        <ele>1242</ele>
        <time>2020-08-20T05:50:26.000Z</time>
      </trkpt>
      <trkpt lat="42.690211348235607147216796875" lon="-0.63384496606886386871337890625">
        <ele>1242.4000244140625</ele>
        <time>2020-08-20T05:50:29.000Z</time>
      </trkpt>
      <trkpt lat="42.6902276091277599334716796875" lon="-0.63386541791260242462158203125">
        <ele>1242.4000244140625</ele>
        <time>2020-08-20T05:50:31.000Z</time>
      </trkpt>
      <trkpt lat="42.69022333435714244842529296875" lon="-0.63386843539774417877197265625">
        <ele>1242.5999755859375</ele>
        <time>2020-08-20T05:50:40.000Z</time>
      </trkpt>
      <trkpt lat="42.690224088728427886962890625" lon="-0.63386793248355388641357421875">
        <ele>1242.4000244140625</ele>
        <time>2020-08-20T05:50:54.000Z</time>
      </trkpt>
      <trkpt lat="42.69022333435714244842529296875" lon="-0.633866004645824432373046875">
        <ele>1242.5999755859375</ele>
        <time>2020-08-20T05:52:02.000Z</time>
      </trkpt>
      <trkpt lat="42.69024613313376903533935546875" lon="-0.633910596370697021484375">
        <ele>1242.5999755859375</ele>
        <time>2020-08-20T05:52:07.000Z</time>
      </trkpt>
      <trkpt lat="42.69036792218685150146484375" lon="-0.63393414951860904693603515625">
        <ele>1242.199951171875</ele>
        <time>2020-08-20T05:52:11.000Z</time>
      </trkpt>
      <trkpt lat="42.69049465656280517578125" lon="-0.63390187919139862060546875">
        <ele>1241.5999755859375</ele>
        <time>2020-08-20T05:52:14.000Z</time>
      </trkpt>
      <trkpt lat="42.69058040343225002288818359375" lon="-0.63386742956936359405517578125">
        <ele>1241.199951171875</ele>
        <time>2020-08-20T05:52:16.000Z</time>
      </trkpt>
      <trkpt lat="42.69062248058617115020751953125" lon="-0.6338480673730373382568359375">
        <ele>1241.199951171875</ele>
        <time>2020-08-20T05:52:17.000Z</time>
      </trkpt>
      <trkpt lat="42.69082029350101947784423828125" lon="-0.63373549841344356536865234375">
        <ele>1241</ele>
        <time>2020-08-20T05:52:22.000Z</time>
      </trkpt>
      <trkpt lat="42.69091148860752582550048828125" lon="-0.6336137093603610992431640625">
        <ele>1241</ele>
        <time>2020-08-20T05:52:25.000Z</time>
      </trkpt>
      <trkpt lat="42.6910436712205410003662109375" lon="-0.63351689837872982025146484375">
        <ele>1240.4000244140625</ele>
        <time>2020-08-20T05:52:29.000Z</time>
      </trkpt>
      <trkpt lat="42.691068984568119049072265625" lon="-0.63354958780109882354736328125">
        <ele>1240.199951171875</ele>
        <time>2020-08-20T05:52:30.000Z</time>
      </trkpt>
      <trkpt lat="42.6910520531237125396728515625" lon="-0.63365737907588481903076171875">
        <ele>1239.800048828125</ele>
        <time>2020-08-20T05:52:32.000Z</time>
      </trkpt>
      <trkpt lat="42.69095473922789096832275390625" lon="-0.63380531966686248779296875">
        <ele>1238.800048828125</ele>
        <time>2020-08-20T05:52:35.000Z</time>
      </trkpt>
      <trkpt lat="42.69091350026428699493408203125" lon="-0.63386022113263607025146484375">
        <ele>1238.199951171875</ele>
        <time>2020-08-20T05:52:36.000Z</time>
      </trkpt>
      <trkpt lat="42.690867483615875244140625" lon="-0.63392610289156436920166015625">
        <ele>1237</ele>
        <time>2020-08-20T05:52:37.000Z</time>
      </trkpt>
      <trkpt lat="42.690776623785495758056640625" lon="-0.63406004570424556732177734375">
        <ele>1235.5999755859375</ele>
        <time>2020-08-20T05:52:39.000Z</time>
      </trkpt>
      <trkpt lat="42.6907442696392536163330078125" lon="-0.6341179646551609039306640625">
        <ele>1235</ele>
        <time>2020-08-20T05:52:40.000Z</time>
      </trkpt>
      <trkpt lat="42.69072406925261020660400390625" lon="-0.63417554832994937896728515625">
        <ele>1234.199951171875</ele>
        <time>2020-08-20T05:52:41.000Z</time>
      </trkpt>
      <trkpt lat="42.6907348819077014923095703125" lon="-0.6342815794050693511962890625">
        <ele>1233</ele>
        <time>2020-08-20T05:52:43.000Z</time>
      </trkpt>
      <trkpt lat="42.6908076368272304534912109375" lon="-0.63432835042476654052734375">
        <ele>1231.199951171875</ele>
        <time>2020-08-20T05:52:45.000Z</time>
      </trkpt>
      <trkpt lat="42.6908535696566104888916015625" lon="-0.634317956864833831787109375">
        <ele>1230.5999755859375</ele>
        <time>2020-08-20T05:52:46.000Z</time>
      </trkpt>
      <trkpt lat="42.69089925102889537811279296875" lon="-0.6342896260321140289306640625">
        <ele>1230.199951171875</ele>
        <time>2020-08-20T05:52:47.000Z</time>
      </trkpt>
      <trkpt lat="42.6909776218235492706298828125" lon="-0.634211339056491851806640625">
        <ele>1229.199951171875</ele>
        <time>2020-08-20T05:52:49.000Z</time>
      </trkpt>
      <trkpt lat="42.69101140089333057403564453125" lon="-0.6341721117496490478515625">
        <ele>1228.800048828125</ele>
        <time>2020-08-20T05:52:50.000Z</time>
      </trkpt>
      <trkpt lat="42.69111399538815021514892578125" lon="-0.63403422944247722625732421875">
        <ele>1227.5999755859375</ele>
        <time>2020-08-20T05:52:53.000Z</time>
      </trkpt>
      <trkpt lat="42.691207788884639739990234375" lon="-0.63388980925083160400390625">
        <ele>1227.199951171875</ele>
        <time>2020-08-20T05:52:56.000Z</time>
      </trkpt>
      <trkpt lat="42.69132169894874095916748046875" lon="-0.63367464579641819000244140625">
        <ele>1226.800048828125</ele>
        <time>2020-08-20T05:53:00.000Z</time>
      </trkpt>
      <trkpt lat="42.69136260263621807098388671875" lon="-0.63355059362947940826416015625">
        <ele>1226.4000244140625</ele>
        <time>2020-08-20T05:53:02.000Z</time>
      </trkpt>
      <trkpt lat="42.6914168335497379302978515625" lon="-0.63341916538774967193603515625">
        <ele>1226</ele>
        <time>2020-08-20T05:53:04.000Z</time>
      </trkpt>
      <trkpt lat="42.6915040053427219390869140625" lon="-0.633307434618473052978515625">
        <ele>1225.5999755859375</ele>
        <time>2020-08-20T05:53:06.000Z</time>
      </trkpt>
      <trkpt lat="42.69161053933203220367431640625" lon="-0.6332226097583770751953125">
        <ele>1225.199951171875</ele>
        <time>2020-08-20T05:53:08.000Z</time>
      </trkpt>
      <trkpt lat="42.69172268919646739959716796875" lon="-0.63313074409961700439453125">
        <ele>1224.4000244140625</ele>
        <time>2020-08-20T05:53:10.000Z</time>
      </trkpt>
      <trkpt lat="42.6917779259383678436279296875" lon="-0.6330879963934421539306640625">
        <ele>1224</ele>
        <time>2020-08-20T05:53:11.000Z</time>
      </trkpt>
      <trkpt lat="42.6918972842395305633544921875" lon="-0.63304265029728412628173828125">
        <ele>1223</ele>
        <time>2020-08-20T05:53:13.000Z</time>
      </trkpt>
      <trkpt lat="42.69196291454136371612548828125" lon="-0.63304130919277667999267578125">
        <ele>1222.5999755859375</ele>
        <time>2020-08-20T05:53:14.000Z</time>
      </trkpt>
      <trkpt lat="42.6921018026769161224365234375" lon="-0.63306427560746669769287109375">
        <ele>1221.800048828125</ele>
        <time>2020-08-20T05:53:16.000Z</time>
      </trkpt>
      <trkpt lat="42.692238427698612213134765625" lon="-0.6330816261470317840576171875">
        <ele>1221</ele>
        <time>2020-08-20T05:53:18.000Z</time>
      </trkpt>
      <trkpt lat="42.6923090033233165740966796875" lon="-0.63306637108325958251953125">
        <ele>1220.5999755859375</ele>
        <time>2020-08-20T05:53:19.000Z</time>
      </trkpt>
      <trkpt lat="42.692439258098602294921875" lon="-0.63299395143985748291015625">
        <ele>1220</ele>
        <time>2020-08-20T05:53:21.000Z</time>
      </trkpt>
      <trkpt lat="42.6925054751336574554443359375" lon="-0.63295614905655384063720703125">
        <ele>1219.5999755859375</ele>
        <time>2020-08-20T05:53:22.000Z</time>
      </trkpt>
      <trkpt lat="42.69265442155301570892333984375" lon="-0.63294391147792339324951171875">
        <ele>1218</ele>
        <time>2020-08-20T05:53:24.000Z</time>
      </trkpt>
      <trkpt lat="42.692733295261859893798828125" lon="-0.63296503387391567230224609375">
        <ele>1217.199951171875</ele>
        <time>2020-08-20T05:53:25.000Z</time>
      </trkpt>
      <trkpt lat="42.69281200133264064788818359375" lon="-0.6329921074211597442626953125">
        <ele>1216.800048828125</ele>
        <time>2020-08-20T05:53:26.000Z</time>
      </trkpt>
      <trkpt lat="42.692888192832469940185546875" lon="-0.63302873633801937103271484375">
        <ele>1216.4000244140625</ele>
        <time>2020-08-20T05:53:27.000Z</time>
      </trkpt>
      <trkpt lat="42.69302942790091037750244140625" lon="-0.63313032500445842742919921875">
        <ele>1215</ele>
        <time>2020-08-20T05:53:29.000Z</time>
      </trkpt>
      <trkpt lat="42.69315515644848346710205078125" lon="-0.63326812349259853363037109375">
        <ele>1213.800048828125</ele>
        <time>2020-08-20T05:53:31.000Z</time>
      </trkpt>
      <trkpt lat="42.69327719695866107940673828125" lon="-0.63341933302581310272216796875">
        <ele>1212.5999755859375</ele>
        <time>2020-08-20T05:53:33.000Z</time>
      </trkpt>
      <trkpt lat="42.69338733516633510589599609375" lon="-0.633584372699260711669921875">
        <ele>1210.800048828125</ele>
        <time>2020-08-20T05:53:35.000Z</time>
      </trkpt>
      <trkpt lat="42.69347450695931911468505859375" lon="-0.63377506099641323089599609375">
        <ele>1209</ele>
        <time>2020-08-20T05:53:37.000Z</time>
      </trkpt>
      <trkpt lat="42.69354231655597686767578125" lon="-0.6339701078832149505615234375">
        <ele>1207.800048828125</ele>
        <time>2020-08-20T05:53:39.000Z</time>
      </trkpt>
      <trkpt lat="42.6936175860464572906494140625" lon="-0.63416951335966587066650390625">
        <ele>1206.4000244140625</ele>
        <time>2020-08-20T05:53:41.000Z</time>
      </trkpt>
      <trkpt lat="42.69369520246982574462890625" lon="-0.634366571903228759765625">
        <ele>1205</ele>
        <time>2020-08-20T05:53:43.000Z</time>
      </trkpt>
      <trkpt lat="42.69382721744477748870849609375" lon="-0.6346205435693264007568359375">
        <ele>1204</ele>
        <time>2020-08-20T05:53:46.000Z</time>
      </trkpt>
      <trkpt lat="42.6938734017312526702880859375" lon="-0.63468600623309612274169921875">
        <ele>1203.199951171875</ele>
        <time>2020-08-20T05:53:47.000Z</time>
      </trkpt>
      <trkpt lat="42.6939193345606327056884765625" lon="-0.63474283553659915924072265625">
        <ele>1202.4000244140625</ele>
        <time>2020-08-20T05:53:48.000Z</time>
      </trkpt>
      <trkpt lat="42.6939575560390949249267578125" lon="-0.63479480333626270294189453125">
        <ele>1201.800048828125</ele>
        <time>2020-08-20T05:53:49.000Z</time>
      </trkpt>
      <trkpt lat="42.69398110918700695037841796875" lon="-0.6348461844027042388916015625">
        <ele>1201</ele>
        <time>2020-08-20T05:53:50.000Z</time>
      </trkpt>
      <trkpt lat="42.69398278556764125823974609375" lon="-0.63489404506981372833251953125">
        <ele>1200.5999755859375</ele>
        <time>2020-08-20T05:53:51.000Z</time>
      </trkpt>
      <trkpt lat="42.6939344219863414764404296875" lon="-0.6349457614123821258544921875">
        <ele>1200.199951171875</ele>
        <time>2020-08-20T05:53:53.000Z</time>
      </trkpt>
      <trkpt lat="42.69390433095395565032958984375" lon="-0.63494257628917694091796875">
        <ele>1200</ele>
        <time>2020-08-20T05:53:54.000Z</time>
      </trkpt>
      <trkpt lat="42.693807184696197509765625" lon="-0.63484928570687770843505859375">
        <ele>1199</ele>
        <time>2020-08-20T05:53:57.000Z</time>
      </trkpt>
      <trkpt lat="42.6937721483409404754638671875" lon="-0.63480167649686336517333984375">
        <ele>1198.5999755859375</ele>
        <time>2020-08-20T05:53:58.000Z</time>
      </trkpt>
      <trkpt lat="42.69369260407984256744384765625" lon="-0.634696818888187408447265625">
        <ele>1197.4000244140625</ele>
        <time>2020-08-20T05:54:00.000Z</time>
      </trkpt>
      <trkpt lat="42.69359403289854526519775390625" lon="-0.634588189423084259033203125">
        <ele>1196.5999755859375</ele>
        <time>2020-08-20T05:54:02.000Z</time>
      </trkpt>
      <trkpt lat="42.69354424439370632171630859375" lon="-0.634531863033771514892578125">
        <ele>1196</ele>
        <time>2020-08-20T05:54:03.000Z</time>
      </trkpt>
      <trkpt lat="42.6933885924518108367919921875" lon="-0.63436246477067470550537109375">
        <ele>1194.800048828125</ele>
        <time>2020-08-20T05:54:06.000Z</time>
      </trkpt>
      <trkpt lat="42.693333439528942108154296875" lon="-0.63431116752326488494873046875">
        <ele>1194.4000244140625</ele>
        <time>2020-08-20T05:54:07.000Z</time>
      </trkpt>
      <trkpt lat="42.69321382977068424224853515625" lon="-0.63421879895031452178955078125">
        <ele>1193.800048828125</ele>
        <time>2020-08-20T05:54:09.000Z</time>
      </trkpt>
      <trkpt lat="42.693148367106914520263671875" lon="-0.63417621888220310211181640625">
        <ele>1193.5999755859375</ele>
        <time>2020-08-20T05:54:10.000Z</time>
      </trkpt>
      <trkpt lat="42.69301568157970905303955078125" lon="-0.634095333516597747802734375">
        <ele>1192.800048828125</ele>
        <time>2020-08-20T05:54:12.000Z</time>
      </trkpt>
      <trkpt lat="42.692947201430797576904296875" lon="-0.63407211564481258392333984375">
        <ele>1192.4000244140625</ele>
        <time>2020-08-20T05:54:13.000Z</time>
      </trkpt>
      <trkpt lat="42.69279859028756618499755859375" lon="-0.6340700201690196990966796875">
        <ele>1191.800048828125</ele>
        <time>2020-08-20T05:54:15.000Z</time>
      </trkpt>
      <trkpt lat="42.6927237398922443389892578125" lon="-0.63408133573830127716064453125">
        <ele>1191.5999755859375</ele>
        <time>2020-08-20T05:54:16.000Z</time>
      </trkpt>
      <trkpt lat="42.69265123642981052398681640625" lon="-0.634096674621105194091796875">
        <ele>1191.199951171875</ele>
        <time>2020-08-20T05:54:17.000Z</time>
      </trkpt>
      <trkpt lat="42.69251192919909954071044921875" lon="-0.63411553390324115753173828125">
        <ele>1190.4000244140625</ele>
        <time>2020-08-20T05:54:19.000Z</time>
      </trkpt>
      <trkpt lat="42.6924419403076171875" lon="-0.63411117531359195709228515625">
        <ele>1190.199951171875</ele>
        <time>2020-08-20T05:54:20.000Z</time>
      </trkpt>
      <trkpt lat="42.6922352425754070281982421875" lon="-0.6340794079005718231201171875">
        <ele>1189</ele>
        <time>2020-08-20T05:54:23.000Z</time>
      </trkpt>
      <trkpt lat="42.69217011518776416778564453125" lon="-0.6340924836695194244384765625">
        <ele>1188.5999755859375</ele>
        <time>2020-08-20T05:54:24.000Z</time>
      </trkpt>
      <trkpt lat="42.6921075023710727691650390625" lon="-0.6341283582150936126708984375">
        <ele>1188</ele>
        <time>2020-08-20T05:54:25.000Z</time>
      </trkpt>
      <trkpt lat="42.69198973663151264190673828125" lon="-0.634248554706573486328125">
        <ele>1187.4000244140625</ele>
        <time>2020-08-20T05:54:27.000Z</time>
      </trkpt>
      <trkpt lat="42.69192888401448726654052734375" lon="-0.63431317918002605438232421875">
        <ele>1187</ele>
        <time>2020-08-20T05:54:28.000Z</time>
      </trkpt>
      <trkpt lat="42.691806256771087646484375" lon="-0.63443756662309169769287109375">
        <ele>1185.4000244140625</ele>
        <time>2020-08-20T05:54:30.000Z</time>
      </trkpt>
      <trkpt lat="42.69175219349563121795654296875" lon="-0.634505711495876312255859375">
        <ele>1184.800048828125</ele>
        <time>2020-08-20T05:54:31.000Z</time>
      </trkpt>
      <trkpt lat="42.6917075179517269134521484375" lon="-0.6345816515386104583740234375">
        <ele>1184.199951171875</ele>
        <time>2020-08-20T05:54:32.000Z</time>
      </trkpt>
      <trkpt lat="42.6916371099650859832763671875" lon="-0.63483604229986667633056640625">
        <ele>1183.199951171875</ele>
        <time>2020-08-20T05:54:35.000Z</time>
      </trkpt>
      <trkpt lat="42.69162462092936038970947265625" lon="-0.6349316798150539398193359375">
        <ele>1182.800048828125</ele>
        <time>2020-08-20T05:54:36.000Z</time>
      </trkpt>
      <trkpt lat="42.69160752184689044952392578125" lon="-0.6350277364253997802734375">
        <ele>1181.800048828125</ele>
        <time>2020-08-20T05:54:37.000Z</time>
      </trkpt>
      <trkpt lat="42.69154717214405536651611328125" lon="-0.63519713468849658966064453125">
        <ele>1180.800048828125</ele>
        <time>2020-08-20T05:54:39.000Z</time>
      </trkpt>
      <trkpt lat="42.6915033347904682159423828125" lon="-0.6352716498076915740966796875">
        <ele>1180.4000244140625</ele>
        <time>2020-08-20T05:54:40.000Z</time>
      </trkpt>
      <trkpt lat="42.6913320086896419525146484375" lon="-0.635463930666446685791015625">
        <ele>1179.5999755859375</ele>
        <time>2020-08-20T05:54:43.000Z</time>
      </trkpt>
      <trkpt lat="42.69127853214740753173828125" lon="-0.63552570529282093048095703125">
        <ele>1179</ele>
        <time>2020-08-20T05:54:44.000Z</time>
      </trkpt>
      <trkpt lat="42.69123427569866180419921875" lon="-0.6355928443372249603271484375">
        <ele>1178</ele>
        <time>2020-08-20T05:54:45.000Z</time>
      </trkpt>
      <trkpt lat="42.6912005804479122161865234375" lon="-0.63566702418029308319091796875">
        <ele>1177.199951171875</ele>
        <time>2020-08-20T05:54:46.000Z</time>
      </trkpt>
      <trkpt lat="42.6911754347383975982666015625" lon="-0.63574866391718387603759765625">
        <ele>1176.5999755859375</ele>
        <time>2020-08-20T05:54:47.000Z</time>
      </trkpt>
      <trkpt lat="42.6911569945514202117919921875" lon="-0.63583709299564361572265625">
        <ele>1176.199951171875</ele>
        <time>2020-08-20T05:54:48.000Z</time>
      </trkpt>
      <trkpt lat="42.69114282913506031036376953125" lon="-0.6359267793595790863037109375">
        <ele>1175.5999755859375</ele>
        <time>2020-08-20T05:54:49.000Z</time>
      </trkpt>
      <trkpt lat="42.6911254785954952239990234375" lon="-0.63609248958528041839599609375">
        <ele>1174.5999755859375</ele>
        <time>2020-08-20T05:54:51.000Z</time>
      </trkpt>
      <trkpt lat="42.69111969508230686187744140625" lon="-0.6362508237361907958984375">
        <ele>1173</ele>
        <time>2020-08-20T05:54:53.000Z</time>
      </trkpt>
      <trkpt lat="42.69115573726594448089599609375" lon="-0.63638937659561634063720703125">
        <ele>1172</ele>
        <time>2020-08-20T05:54:55.000Z</time>
      </trkpt>
      <trkpt lat="42.691192366182804107666015625" lon="-0.63643522560596466064453125">
        <ele>1171.4000244140625</ele>
        <time>2020-08-20T05:54:56.000Z</time>
      </trkpt>
      <trkpt lat="42.6912766881287097930908203125" lon="-0.63645802438259124755859375">
        <ele>1169.800048828125</ele>
        <time>2020-08-20T05:54:58.000Z</time>
      </trkpt>
      <trkpt lat="42.69135170616209506988525390625" lon="-0.63638736493885517120361328125">
        <ele>1169</ele>
        <time>2020-08-20T05:55:00.000Z</time>
      </trkpt>
      <trkpt lat="42.6913819648325443267822265625" lon="-0.63632383011281490325927734375">
        <ele>1168.199951171875</ele>
        <time>2020-08-20T05:55:01.000Z</time>
      </trkpt>
      <trkpt lat="42.69140769727528095245361328125" lon="-0.636246465146541595458984375">
        <ele>1167.5999755859375</ele>
        <time>2020-08-20T05:55:02.000Z</time>
      </trkpt>
      <trkpt lat="42.6914320886135101318359375" lon="-0.63616390340030193328857421875">
        <ele>1167.199951171875</ele>
        <time>2020-08-20T05:55:03.000Z</time>
      </trkpt>
      <trkpt lat="42.6914574019610881805419921875" lon="-0.636083185672760009765625">
        <ele>1166.5999755859375</ele>
        <time>2020-08-20T05:55:04.000Z</time>
      </trkpt>
      <trkpt lat="42.69151389598846435546875" lon="-0.63593566417694091796875">
        <ele>1165.800048828125</ele>
        <time>2020-08-20T05:55:06.000Z</time>
      </trkpt>
      <trkpt lat="42.6915428973734378814697265625" lon="-0.6358624063432216644287109375">
        <ele>1165.4000244140625</ele>
        <time>2020-08-20T05:55:07.000Z</time>
      </trkpt>
      <trkpt lat="42.691679187119007110595703125" lon="-0.63554045744240283966064453125">
        <ele>1164.199951171875</ele>
        <time>2020-08-20T05:55:11.000Z</time>
      </trkpt>
      <trkpt lat="42.69171967171132564544677734375" lon="-0.63546082936227321624755859375">
        <ele>1163.800048828125</ele>
        <time>2020-08-20T05:55:12.000Z</time>
      </trkpt>
      <trkpt lat="42.69180466420948505401611328125" lon="-0.63531783409416675567626953125">
        <ele>1162.800048828125</ele>
        <time>2020-08-20T05:55:14.000Z</time>
      </trkpt>
      <trkpt lat="42.691852860152721405029296875" lon="-0.63525413163006305694580078125">
        <ele>1162.5999755859375</ele>
        <time>2020-08-20T05:55:15.000Z</time>
      </trkpt>
      <trkpt lat="42.6919640041887760162353515625" lon="-0.63516117632389068603515625">
        <ele>1162</ele>
        <time>2020-08-20T05:55:17.000Z</time>
      </trkpt>
      <trkpt lat="42.6920907385647296905517578125" lon="-0.6351133994758129119873046875">
        <ele>1160.5999755859375</ele>
        <time>2020-08-20T05:55:19.000Z</time>
      </trkpt>
      <trkpt lat="42.69230774603784084320068359375" lon="-0.6350701488554477691650390625">
        <ele>1159</ele>
        <time>2020-08-20T05:55:22.000Z</time>
      </trkpt>
      <trkpt lat="42.6924575306475162506103515625" lon="-0.6350781954824924468994140625">
        <ele>1157.5999755859375</ele>
        <time>2020-08-20T05:55:24.000Z</time>
      </trkpt>
      <trkpt lat="42.69259641878306865692138671875" lon="-0.63509956933557987213134765625">
        <ele>1156</ele>
        <time>2020-08-20T05:55:26.000Z</time>
      </trkpt>
      <trkpt lat="42.69266389310359954833984375" lon="-0.6351149082183837890625">
        <ele>1155.5999755859375</ele>
        <time>2020-08-20T05:55:27.000Z</time>
      </trkpt>
      <trkpt lat="42.69278987310826778411865234375" lon="-0.635180287063121795654296875">
        <ele>1154.199951171875</ele>
        <time>2020-08-20T05:55:29.000Z</time>
      </trkpt>
      <trkpt lat="42.69284762442111968994140625" lon="-0.6352310813963413238525390625">
        <ele>1153.5999755859375</ele>
        <time>2020-08-20T05:55:30.000Z</time>
      </trkpt>
      <trkpt lat="42.69290537573397159576416015625" lon="-0.6352837197482585906982421875">
        <ele>1152.800048828125</ele>
        <time>2020-08-20T05:55:31.000Z</time>
      </trkpt>
      <trkpt lat="42.69302272237837314605712890625" lon="-0.63537172973155975341796875">
        <ele>1151.4000244140625</ele>
        <time>2020-08-20T05:55:33.000Z</time>
      </trkpt>
      <trkpt lat="42.6931542344391345977783203125" lon="-0.635428391396999359130859375">
        <ele>1150.800048828125</ele>
        <time>2020-08-20T05:55:35.000Z</time>
      </trkpt>
      <trkpt lat="42.6932973973453044891357421875" lon="-0.6355013139545917510986328125">
        <ele>1150.199951171875</ele>
        <time>2020-08-20T05:55:37.000Z</time>
      </trkpt>
      <trkpt lat="42.6934278197586536407470703125" lon="-0.63560181297361850738525390625">
        <ele>1149.4000244140625</ele>
        <time>2020-08-20T05:55:39.000Z</time>
      </trkpt>
      <trkpt lat="42.69355430267751216888427734375" lon="-0.63571915961802005767822265625">
        <ele>1147.199951171875</ele>
        <time>2020-08-20T05:55:41.000Z</time>
      </trkpt>
      <trkpt lat="42.6936105452477931976318359375" lon="-0.635783113539218902587890625">
        <ele>1146.4000244140625</ele>
        <time>2020-08-20T05:55:42.000Z</time>
      </trkpt>
      <trkpt lat="42.6936608366668224334716796875" lon="-0.63585092313587665557861328125">
        <ele>1146</ele>
        <time>2020-08-20T05:55:43.000Z</time>
      </trkpt>
      <trkpt lat="42.69370651803910732269287109375" lon="-0.6359200738370418548583984375">
        <ele>1146</ele>
        <time>2020-08-20T05:55:44.000Z</time>
      </trkpt>
      <trkpt lat="42.69374549388885498046875" lon="-0.6359901465475559234619140625">
        <ele>1146</ele>
        <time>2020-08-20T05:55:45.000Z</time>
      </trkpt>
      <trkpt lat="42.69388706423342227935791015625" lon="-0.63623498193919658660888671875">
        <ele>1145.800048828125</ele>
        <time>2020-08-20T05:55:49.000Z</time>
      </trkpt>
      <trkpt lat="42.6940338313579559326171875" lon="-0.636348724365234375">
        <ele>1145.5999755859375</ele>
        <time>2020-08-20T05:55:53.000Z</time>
      </trkpt>
      <trkpt lat="42.6942023076117038726806640625" lon="-0.63637915067374706268310546875">
        <ele>1145.4000244140625</ele>
        <time>2020-08-20T05:55:57.000Z</time>
      </trkpt>
      <trkpt lat="42.69424815662205219268798828125" lon="-0.636376552283763885498046875">
        <ele>1145.5999755859375</ele>
        <time>2020-08-20T05:55:58.000Z</time>
      </trkpt>
      <trkpt lat="42.69440003670752048492431640625" lon="-0.63634662888944149017333984375">
        <ele>1145.199951171875</ele>
        <time>2020-08-20T05:56:01.000Z</time>
      </trkpt>
      <trkpt lat="42.69457287155091762542724609375" lon="-0.636328272521495819091796875">
        <ele>1144.199951171875</ele>
        <time>2020-08-20T05:56:04.000Z</time>
      </trkpt>
      <trkpt lat="42.69463263452053070068359375" lon="-0.6363331340253353118896484375">
        <ele>1144</ele>
        <time>2020-08-20T05:56:05.000Z</time>
      </trkpt>
      <trkpt lat="42.6949503086507320404052734375" lon="-0.63638501800596714019775390625">
        <ele>1142.5999755859375</ele>
        <time>2020-08-20T05:56:10.000Z</time>
      </trkpt>
      <trkpt lat="42.6952041126787662506103515625" lon="-0.63637412153184413909912109375">
        <ele>1141.5999755859375</ele>
        <time>2020-08-20T05:56:14.000Z</time>
      </trkpt>
      <trkpt lat="42.69526219926774501800537109375" lon="-0.6363581120967864990234375">
        <ele>1141.4000244140625</ele>
        <time>2020-08-20T05:56:15.000Z</time>
      </trkpt>
      <trkpt lat="42.69546680152416229248046875" lon="-0.63622492365539073944091796875">
        <ele>1140.4000244140625</ele>
        <time>2020-08-20T05:56:19.000Z</time>
      </trkpt>
      <trkpt lat="42.695552967488765716552734375" lon="-0.63613205216825008392333984375">
        <ele>1139.4000244140625</ele>
        <time>2020-08-20T05:56:21.000Z</time>
      </trkpt>
      <trkpt lat="42.6956520415842533111572265625" lon="-0.635954104363918304443359375">
        <ele>1138.800048828125</ele>
        <time>2020-08-20T05:56:24.000Z</time>
      </trkpt>
      <trkpt lat="42.6956785283982753753662109375" lon="-0.635887049138545989990234375">
        <ele>1138.800048828125</ele>
        <time>2020-08-20T05:56:25.000Z</time>
      </trkpt>
      <trkpt lat="42.69572253338992595672607421875" lon="-0.6357450596988201141357421875">
        <ele>1138.199951171875</ele>
        <time>2020-08-20T05:56:27.000Z</time>
      </trkpt>
      <trkpt lat="42.6957680471241474151611328125" lon="-0.63559980131685733795166015625">
        <ele>1137.5999755859375</ele>
        <time>2020-08-20T05:56:29.000Z</time>
      </trkpt>
      <trkpt lat="42.6957906782627105712890625" lon="-0.63553643412888050079345703125">
        <ele>1137.199951171875</ele>
        <time>2020-08-20T05:56:30.000Z</time>
      </trkpt>
      <trkpt lat="42.695814482867717742919921875" lon="-0.6354796886444091796875">
        <ele>1136.5999755859375</ele>
        <time>2020-08-20T05:56:31.000Z</time>
      </trkpt>
      <trkpt lat="42.69586854614317417144775390625" lon="-0.6353843025863170623779296875">
        <ele>1136</ele>
        <time>2020-08-20T05:56:33.000Z</time>
      </trkpt>
      <trkpt lat="42.695899643003940582275390625" lon="-0.635349266231060028076171875">
        <ele>1135.800048828125</ele>
        <time>2020-08-20T05:56:34.000Z</time>
      </trkpt>
      <trkpt lat="42.69597508013248443603515625" lon="-0.63530995510518550872802734375">
        <ele>1134.800048828125</ele>
        <time>2020-08-20T05:56:36.000Z</time>
      </trkpt>
      <trkpt lat="42.69605227746069431304931640625" lon="-0.63531347550451755523681640625">
        <ele>1134.4000244140625</ele>
        <time>2020-08-20T05:56:38.000Z</time>
      </trkpt>
      <trkpt lat="42.6960982941091060638427734375" lon="-0.6353303231298923492431640625">
        <ele>1134.199951171875</ele>
        <time>2020-08-20T05:56:39.000Z</time>
      </trkpt>
      <trkpt lat="42.6961505971848964691162109375" lon="-0.63534968532621860504150390625">
        <ele>1134</ele>
        <time>2020-08-20T05:56:40.000Z</time>
      </trkpt>
      <trkpt lat="42.69626903347671031951904296875" lon="-0.63538371585309505462646484375">
        <ele>1133.199951171875</ele>
        <time>2020-08-20T05:56:42.000Z</time>
      </trkpt>
      <trkpt lat="42.696329466998577117919921875" lon="-0.63540534116327762603759765625">
        <ele>1132.5999755859375</ele>
        <time>2020-08-20T05:56:43.000Z</time>
      </trkpt>
      <trkpt lat="42.696522586047649383544921875" lon="-0.6354822032153606414794921875">
        <ele>1131.5999755859375</ele>
        <time>2020-08-20T05:56:46.000Z</time>
      </trkpt>
      <trkpt lat="42.696661055088043212890625" lon="-0.63554967753589153289794921875">
        <ele>1130.5999755859375</ele>
        <time>2020-08-20T05:56:48.000Z</time>
      </trkpt>
      <trkpt lat="42.696725763380527496337890625" lon="-0.63558454625308513641357421875">
        <ele>1130.199951171875</ele>
        <time>2020-08-20T05:56:49.000Z</time>
      </trkpt>
      <trkpt lat="42.69691896624863147735595703125" lon="-0.63570826314389705657958984375">
        <ele>1129.4000244140625</ele>
        <time>2020-08-20T05:56:52.000Z</time>
      </trkpt>
      <trkpt lat="42.6969844289124011993408203125" lon="-0.63576073385775089263916015625">
        <ele>1129</ele>
        <time>2020-08-20T05:56:53.000Z</time>
      </trkpt>
      <trkpt lat="42.6970484666526317596435546875" lon="-0.63581303693354129791259765625">
        <ele>1128.4000244140625</ele>
        <time>2020-08-20T05:56:54.000Z</time>
      </trkpt>
      <trkpt lat="42.69711376167833805084228515625" lon="-0.63586735166609287261962890625">
        <ele>1127.800048828125</ele>
        <time>2020-08-20T05:56:55.000Z</time>
      </trkpt>
      <trkpt lat="42.6973093114793300628662109375" lon="-0.63602241687476634979248046875">
        <ele>1126.4000244140625</ele>
        <time>2020-08-20T05:56:58.000Z</time>
      </trkpt>
      <trkpt lat="42.697370834648609161376953125" lon="-0.636072792112827301025390625">
        <ele>1126</ele>
        <time>2020-08-20T05:56:59.000Z</time>
      </trkpt>
      <trkpt lat="42.697422802448272705078125" lon="-0.63612274825572967529296875">
        <ele>1125.199951171875</ele>
        <time>2020-08-20T05:57:00.000Z</time>
      </trkpt>
      <trkpt lat="42.69745968282222747802734375" lon="-0.63617530278861522674560546875">
        <ele>1124.5999755859375</ele>
        <time>2020-08-20T05:57:01.000Z</time>
      </trkpt>
      <trkpt lat="42.6974809728562831878662109375" lon="-0.63624001108109951019287109375">
        <ele>1124</ele>
        <time>2020-08-20T05:57:02.000Z</time>
      </trkpt>
      <trkpt lat="42.69748809747397899627685546875" lon="-0.63647403381764888763427734375">
        <ele>1123</ele>
        <time>2020-08-20T05:57:05.000Z</time>
      </trkpt>
      <trkpt lat="42.697478123009204864501953125" lon="-0.63663144595921039581298828125">
        <ele>1122.4000244140625</ele>
        <time>2020-08-20T05:57:07.000Z</time>
      </trkpt>
      <trkpt lat="42.6974970661103725433349609375" lon="-0.63678718172013759613037109375">
        <ele>1122</ele>
        <time>2020-08-20T05:57:09.000Z</time>
      </trkpt>
      <trkpt lat="42.69763763062655925750732421875" lon="-0.63708591274917125701904296875">
        <ele>1120.4000244140625</ele>
        <time>2020-08-20T05:57:13.000Z</time>
      </trkpt>
      <trkpt lat="42.69772262312471866607666015625" lon="-0.63720225356519222259521484375">
        <ele>1120</ele>
        <time>2020-08-20T05:57:15.000Z</time>
      </trkpt>
      <trkpt lat="42.69780828617513179779052734375" lon="-0.63728674314916133880615234375">
        <ele>1119.5999755859375</ele>
        <time>2020-08-20T05:57:17.000Z</time>
      </trkpt>
      <trkpt lat="42.697838209569454193115234375" lon="-0.63732446171343326568603515625">
        <ele>1119.4000244140625</ele>
        <time>2020-08-20T05:57:18.000Z</time>
      </trkpt>
      <trkpt lat="42.6978601701557636260986328125" lon="-0.63740325160324573516845703125">
        <ele>1118.800048828125</ele>
        <time>2020-08-20T05:57:20.000Z</time>
      </trkpt>
      <trkpt lat="42.69783510826528072357177734375" lon="-0.6374663673341274261474609375">
        <ele>1118.199951171875</ele>
        <time>2020-08-20T05:57:22.000Z</time>
      </trkpt>
      <trkpt lat="42.6977877505123615264892578125" lon="-0.63748992048203945159912109375">
        <ele>1118</ele>
        <time>2020-08-20T05:57:24.000Z</time>
      </trkpt>
      <trkpt lat="42.6977310888469219207763671875" lon="-0.63746251165866851806640625">
        <ele>1117</ele>
        <time>2020-08-20T05:57:26.000Z</time>
      </trkpt>
      <trkpt lat="42.697680294513702392578125" lon="-0.63743543811142444610595703125">
        <ele>1116.4000244140625</ele>
        <time>2020-08-20T05:57:28.000Z</time>
      </trkpt>
      <trkpt lat="42.69766143523156642913818359375" lon="-0.637425966560840606689453125">
        <ele>1116</ele>
        <time>2020-08-20T05:57:29.000Z</time>
      </trkpt>
      <trkpt lat="42.69760628230869770050048828125" lon="-0.63737425021827220916748046875">
        <ele>1115.4000244140625</ele>
        <time>2020-08-20T05:57:32.000Z</time>
      </trkpt>
      <trkpt lat="42.69755632616579532623291015625" lon="-0.63733041286468505859375">
        <ele>1115</ele>
        <time>2020-08-20T05:57:34.000Z</time>
      </trkpt>
      <trkpt lat="42.697526402771472930908203125" lon="-0.63730426132678985595703125">
        <ele>1115</ele>
        <time>2020-08-20T05:57:35.000Z</time>
      </trkpt>
      <trkpt lat="42.69736136309802532196044921875" lon="-0.637137629091739654541015625">
        <ele>1114.199951171875</ele>
        <time>2020-08-20T05:57:40.000Z</time>
      </trkpt>
      <trkpt lat="42.69732833839952945709228515625" lon="-0.63710032962262630462646484375">
        <ele>1113.800048828125</ele>
        <time>2020-08-20T05:57:41.000Z</time>
      </trkpt>
      <trkpt lat="42.6972382329404354095458984375" lon="-0.63695699907839298248291015625">
        <ele>1113.5999755859375</ele>
        <time>2020-08-20T05:57:44.000Z</time>
      </trkpt>
      <trkpt lat="42.697184085845947265625" lon="-0.63685859553515911102294921875">
        <ele>1113</ele>
        <time>2020-08-20T05:57:46.000Z</time>
      </trkpt>
      <trkpt lat="42.697164304554462432861328125" lon="-0.63679405488073825836181640625">
        <ele>1112.800048828125</ele>
        <time>2020-08-20T05:57:47.000Z</time>
      </trkpt>
      <trkpt lat="42.6971483789384365081787109375" lon="-0.63672398217022418975830078125">
        <ele>1112.5999755859375</ele>
        <time>2020-08-20T05:57:48.000Z</time>
      </trkpt>
      <trkpt lat="42.6971275918185710906982421875" lon="-0.63657713122665882110595703125">
        <ele>1111.5999755859375</ele>
        <time>2020-08-20T05:57:50.000Z</time>
      </trkpt>
      <trkpt lat="42.69711141474545001983642578125" lon="-0.63650370575487613677978515625">
        <ele>1111.4000244140625</ele>
        <time>2020-08-20T05:57:51.000Z</time>
      </trkpt>
      <trkpt lat="42.69708660431206226348876953125" lon="-0.6364333815872669219970703125">
        <ele>1111.199951171875</ele>
        <time>2020-08-20T05:57:52.000Z</time>
      </trkpt>
      <trkpt lat="42.69696414470672607421875" lon="-0.636270940303802490234375">
        <ele>1110.800048828125</ele>
        <time>2020-08-20T05:57:55.000Z</time>
      </trkpt>
      <trkpt lat="42.69690974615514278411865234375" lon="-0.63623280264437198638916015625">
        <ele>1110.5999755859375</ele>
        <time>2020-08-20T05:57:56.000Z</time>
      </trkpt>
      <trkpt lat="42.69685341976583003997802734375" lon="-0.63619843684136867523193359375">
        <ele>1110.199951171875</ele>
        <time>2020-08-20T05:57:57.000Z</time>
      </trkpt>
      <trkpt lat="42.69674931652843952178955078125" lon="-0.6361343152821063995361328125">
        <ele>1109.4000244140625</ele>
        <time>2020-08-20T05:57:59.000Z</time>
      </trkpt>
      <trkpt lat="42.69670254550874233245849609375" lon="-0.636117719113826751708984375">
        <ele>1109.199951171875</ele>
        <time>2020-08-20T05:58:00.000Z</time>
      </trkpt>
      <trkpt lat="42.69662509672343730926513671875" lon="-0.63614244572818279266357421875">
        <ele>1108.199951171875</ele>
        <time>2020-08-20T05:58:02.000Z</time>
      </trkpt>
      <trkpt lat="42.6966059021651744842529296875" lon="-0.63618670217692852020263671875">
        <ele>1107.5999755859375</ele>
        <time>2020-08-20T05:58:03.000Z</time>
      </trkpt>
      <trkpt lat="42.6966069079935550689697265625" lon="-0.6362409330904483795166015625">
        <ele>1107.199951171875</ele>
        <time>2020-08-20T05:58:04.000Z</time>
      </trkpt>
      <trkpt lat="42.6966625638306140899658203125" lon="-0.6363555975258350372314453125">
        <ele>1106</ele>
        <time>2020-08-20T05:58:06.000Z</time>
      </trkpt>
      <trkpt lat="42.696706987917423248291015625" lon="-0.63642089255154132843017578125">
        <ele>1105.4000244140625</ele>
        <time>2020-08-20T05:58:07.000Z</time>
      </trkpt>
      <trkpt lat="42.69675300456583499908447265625" lon="-0.6364984251558780670166015625">
        <ele>1104.800048828125</ele>
        <time>2020-08-20T05:58:08.000Z</time>
      </trkpt>
      <trkpt lat="42.696794830262660980224609375" lon="-0.63658987171947956085205078125">
        <ele>1104</ele>
        <time>2020-08-20T05:58:09.000Z</time>
      </trkpt>
      <trkpt lat="42.69683078862726688385009765625" lon="-0.63668190501630306243896484375">
        <ele>1102.800048828125</ele>
        <time>2020-08-20T05:58:10.000Z</time>
      </trkpt>
      <trkpt lat="42.696893401443958282470703125" lon="-0.63687418587505817413330078125">
        <ele>1101.4000244140625</ele>
        <time>2020-08-20T05:58:12.000Z</time>
      </trkpt>
      <trkpt lat="42.696941681206226348876953125" lon="-0.6370764411985874176025390625">
        <ele>1099.800048828125</ele>
        <time>2020-08-20T05:58:14.000Z</time>
      </trkpt>
      <trkpt lat="42.6969628036022186279296875" lon="-0.63717417418956756591796875">
        <ele>1099.4000244140625</ele>
        <time>2020-08-20T05:58:15.000Z</time>
      </trkpt>
      <trkpt lat="42.69698166288435459136962890625" lon="-0.63726562075316905975341796875">
        <ele>1099</ele>
        <time>2020-08-20T05:58:16.000Z</time>
      </trkpt>
      <trkpt lat="42.69706933759152889251708984375" lon="-0.6376145593822002410888671875">
        <ele>1098</ele>
        <time>2020-08-20T05:58:20.000Z</time>
      </trkpt>
      <trkpt lat="42.69710705615580081939697265625" lon="-0.63769846223294734954833984375">
        <ele>1097.199951171875</ele>
        <time>2020-08-20T05:58:21.000Z</time>
      </trkpt>
      <trkpt lat="42.697199173271656036376953125" lon="-0.637857802212238311767578125">
        <ele>1096</ele>
        <time>2020-08-20T05:58:23.000Z</time>
      </trkpt>
      <trkpt lat="42.6972497999668121337890625" lon="-0.63792946748435497283935546875">
        <ele>1095.5999755859375</ele>
        <time>2020-08-20T05:58:24.000Z</time>
      </trkpt>
      <trkpt lat="42.69730570726096630096435546875" lon="-0.63798847608268260955810546875">
        <ele>1095.199951171875</ele>
        <time>2020-08-20T05:58:25.000Z</time>
      </trkpt>
      <trkpt lat="42.69736186601221561431884765625" lon="-0.63804111443459987640380859375">
        <ele>1094.800048828125</ele>
        <time>2020-08-20T05:58:26.000Z</time>
      </trkpt>
      <trkpt lat="42.69747720099985599517822265625" lon="-0.6381295435130596160888671875">
        <ele>1093.800048828125</ele>
        <time>2020-08-20T05:58:28.000Z</time>
      </trkpt>
      <trkpt lat="42.69752916879951953887939453125" lon="-0.638164915144443511962890625">
        <ele>1093.4000244140625</ele>
        <time>2020-08-20T05:58:29.000Z</time>
      </trkpt>
      <trkpt lat="42.6976415701210498809814453125" lon="-0.638323165476322174072265625">
        <ele>1092.800048828125</ele>
        <time>2020-08-20T05:58:32.000Z</time>
      </trkpt>
      <trkpt lat="42.6976467669010162353515625" lon="-0.6383927352726459503173828125">
        <ele>1092.199951171875</ele>
        <time>2020-08-20T05:58:33.000Z</time>
      </trkpt>
      <trkpt lat="42.69763411022722721099853515625" lon="-0.638461299240589141845703125">
        <ele>1091.800048828125</ele>
        <time>2020-08-20T05:58:34.000Z</time>
      </trkpt>
      <trkpt lat="42.69752749241888523101806640625" lon="-0.6385897099971771240234375">
        <ele>1091.199951171875</ele>
        <time>2020-08-20T05:58:37.000Z</time>
      </trkpt>
      <trkpt lat="42.69727553240954875946044921875" lon="-0.63874326646327972412109375">
        <ele>1090.5999755859375</ele>
        <time>2020-08-20T05:58:42.000Z</time>
      </trkpt>
      <trkpt lat="42.69709490239620208740234375" lon="-0.638822726905345916748046875">
        <ele>1089.800048828125</ele>
        <time>2020-08-20T05:58:45.000Z</time>
      </trkpt>
      <trkpt lat="42.69696389324963092803955078125" lon="-0.63886203803122043609619140625">
        <ele>1089.199951171875</ele>
        <time>2020-08-20T05:58:47.000Z</time>
      </trkpt>
      <trkpt lat="42.69682575948536396026611328125" lon="-0.6388876028358936309814453125">
        <ele>1088.800048828125</ele>
        <time>2020-08-20T05:58:49.000Z</time>
      </trkpt>
      <trkpt lat="42.6966072432696819305419921875" lon="-0.6389114074409008026123046875">
        <ele>1087.5999755859375</ele>
        <time>2020-08-20T05:58:52.000Z</time>
      </trkpt>
      <trkpt lat="42.69653457216918468475341796875" lon="-0.6389147602021694183349609375">
        <ele>1087.199951171875</ele>
        <time>2020-08-20T05:58:53.000Z</time>
      </trkpt>
      <trkpt lat="42.69634723663330078125" lon="-0.6389214657247066497802734375">
        <ele>1086.4000244140625</ele>
        <time>2020-08-20T05:58:56.000Z</time>
      </trkpt>
      <trkpt lat="42.69629267044365406036376953125" lon="-0.63893328420817852020263671875">
        <ele>1085.800048828125</ele>
        <time>2020-08-20T05:58:57.000Z</time>
      </trkpt>
      <trkpt lat="42.69624338485300540924072265625" lon="-0.63895759172737598419189453125">
        <ele>1085.5999755859375</ele>
        <time>2020-08-20T05:58:58.000Z</time>
      </trkpt>
      <trkpt lat="42.6961995474994182586669921875" lon="-0.638996064662933349609375">
        <ele>1085.199951171875</ele>
        <time>2020-08-20T05:58:59.000Z</time>
      </trkpt>
      <trkpt lat="42.69611748866736888885498046875" lon="-0.63911877572536468505859375">
        <ele>1084.5999755859375</ele>
        <time>2020-08-20T05:59:01.000Z</time>
      </trkpt>
      <trkpt lat="42.6960754953324794769287109375" lon="-0.63919479958713054656982421875">
        <ele>1084.199951171875</ele>
        <time>2020-08-20T05:59:02.000Z</time>
      </trkpt>
      <trkpt lat="42.69597667269408702850341796875" lon="-0.6393650360405445098876953125">
        <ele>1083</ele>
        <time>2020-08-20T05:59:04.000Z</time>
      </trkpt>
      <trkpt lat="42.6959189213812351226806640625" lon="-0.6394515372812747955322265625">
        <ele>1082.4000244140625</ele>
        <time>2020-08-20T05:59:05.000Z</time>
      </trkpt>
      <trkpt lat="42.69579671323299407958984375" lon="-0.63961791805922985076904296875">
        <ele>1081.5999755859375</ele>
        <time>2020-08-20T05:59:07.000Z</time>
      </trkpt>
      <trkpt lat="42.69567140378057956695556640625" lon="-0.63979511149227619171142578125">
        <ele>1080</ele>
        <time>2020-08-20T05:59:09.000Z</time>
      </trkpt>
      <trkpt lat="42.695545256137847900390625" lon="-0.63997783698141574859619140625">
        <ele>1079.199951171875</ele>
        <time>2020-08-20T05:59:11.000Z</time>
      </trkpt>
      <trkpt lat="42.69548113457858562469482421875" lon="-0.6400714628398418426513671875">
        <ele>1078.4000244140625</ele>
        <time>2020-08-20T05:59:12.000Z</time>
      </trkpt>
      <trkpt lat="42.695418857038021087646484375" lon="-0.64016307704150676727294921875">
        <ele>1077.4000244140625</ele>
        <time>2020-08-20T05:59:13.000Z</time>
      </trkpt>
      <trkpt lat="42.695302851498126983642578125" lon="-0.64034496434032917022705078125">
        <ele>1076.199951171875</ele>
        <time>2020-08-20T05:59:15.000Z</time>
      </trkpt>
      <trkpt lat="42.695202939212322235107421875" lon="-0.64052299596369266510009765625">
        <ele>1074.199951171875</ele>
        <time>2020-08-20T05:59:17.000Z</time>
      </trkpt>
      <trkpt lat="42.69514250569045543670654296875" lon="-0.640707649290561676025390625">
        <ele>1073.199951171875</ele>
        <time>2020-08-20T05:59:19.000Z</time>
      </trkpt>
      <trkpt lat="42.69513010047376155853271484375" lon="-0.6408060528337955474853515625">
        <ele>1072.5999755859375</ele>
        <time>2020-08-20T05:59:20.000Z</time>
      </trkpt>
      <trkpt lat="42.695142589509487152099609375" lon="-0.64102574251592159271240234375">
        <ele>1072</ele>
        <time>2020-08-20T05:59:22.000Z</time>
      </trkpt>
      <trkpt lat="42.69515541382133960723876953125" lon="-0.6411440111696720123291015625">
        <ele>1071.199951171875</ele>
        <time>2020-08-20T05:59:23.000Z</time>
      </trkpt>
      <trkpt lat="42.69516396336257457733154296875" lon="-0.64126454293727874755859375">
        <ele>1070.5999755859375</ele>
        <time>2020-08-20T05:59:24.000Z</time>
      </trkpt>
      <trkpt lat="42.6951699145138263702392578125" lon="-0.64151340164244174957275390625">
        <ele>1069.4000244140625</ele>
        <time>2020-08-20T05:59:26.000Z</time>
      </trkpt>
      <trkpt lat="42.69516781903803348541259765625" lon="-0.64176879823207855224609375">
        <ele>1068</ele>
        <time>2020-08-20T05:59:28.000Z</time>
      </trkpt>
      <trkpt lat="42.69516614265739917755126953125" lon="-0.64202436245977878570556640625">
        <ele>1067</ele>
        <time>2020-08-20T05:59:30.000Z</time>
      </trkpt>
      <trkpt lat="42.69517385400831699371337890625" lon="-0.64229174517095088958740234375">
        <ele>1066</ele>
        <time>2020-08-20T05:59:32.000Z</time>
      </trkpt>
      <trkpt lat="42.69519028253853321075439453125" lon="-0.64256600104272365570068359375">
        <ele>1064.199951171875</ele>
        <time>2020-08-20T05:59:34.000Z</time>
      </trkpt>
      <trkpt lat="42.69521475769579410552978515625" lon="-0.6428348086774349212646484375">
        <ele>1063</ele>
        <time>2020-08-20T05:59:36.000Z</time>
      </trkpt>
      <trkpt lat="42.695217691361904144287109375" lon="-0.64296749420464038848876953125">
        <ele>1062.4000244140625</ele>
        <time>2020-08-20T05:59:37.000Z</time>
      </trkpt>
      <trkpt lat="42.69521274603903293609619140625" lon="-0.64309825189411640167236328125">
        <ele>1061.800048828125</ele>
        <time>2020-08-20T05:59:38.000Z</time>
      </trkpt>
      <trkpt lat="42.6952067948877811431884765625" lon="-0.64322699792683124542236328125">
        <ele>1061.199951171875</ele>
        <time>2020-08-20T05:59:39.000Z</time>
      </trkpt>
      <trkpt lat="42.6952074654400348663330078125" lon="-0.64347200095653533935546875">
        <ele>1060.4000244140625</ele>
        <time>2020-08-20T05:59:41.000Z</time>
      </trkpt>
      <trkpt lat="42.69524543546140193939208984375" lon="-0.64385195262730121612548828125">
        <ele>1058.800048828125</ele>
        <time>2020-08-20T05:59:44.000Z</time>
      </trkpt>
      <trkpt lat="42.695293463766574859619140625" lon="-0.64411581493914127349853515625">
        <ele>1057.5999755859375</ele>
        <time>2020-08-20T05:59:46.000Z</time>
      </trkpt>
      <trkpt lat="42.695322297513484954833984375" lon="-0.6442406214773654937744140625">
        <ele>1056.5999755859375</ele>
        <time>2020-08-20T05:59:47.000Z</time>
      </trkpt>
      <trkpt lat="42.69537485204637050628662109375" lon="-0.64448344521224498748779296875">
        <ele>1054.4000244140625</ele>
        <time>2020-08-20T05:59:49.000Z</time>
      </trkpt>
      <trkpt lat="42.69538943655788898468017578125" lon="-0.6446090899407863616943359375">
        <ele>1053.800048828125</ele>
        <time>2020-08-20T05:59:50.000Z</time>
      </trkpt>
      <trkpt lat="42.69539345987141132354736328125" lon="-0.64473330974578857421875">
        <ele>1053.4000244140625</ele>
        <time>2020-08-20T05:59:51.000Z</time>
      </trkpt>
      <trkpt lat="42.69538859836757183074951171875" lon="-0.64485191367566585540771484375">
        <ele>1053</ele>
        <time>2020-08-20T05:59:52.000Z</time>
      </trkpt>
      <trkpt lat="42.69538021646440029144287109375" lon="-0.6449628062546253204345703125">
        <ele>1052.199951171875</ele>
        <time>2020-08-20T05:59:53.000Z</time>
      </trkpt>
      <trkpt lat="42.69537870772182941436767578125" lon="-0.64507101662456989288330078125">
        <ele>1051.800048828125</ele>
        <time>2020-08-20T05:59:54.000Z</time>
      </trkpt>
      <trkpt lat="42.69541542045772075653076171875" lon="-0.6452818214893341064453125">
        <ele>1051</ele>
        <time>2020-08-20T05:59:56.000Z</time>
      </trkpt>
      <trkpt lat="42.6954996585845947265625" lon="-0.645466558635234832763671875">
        <ele>1049.800048828125</ele>
        <time>2020-08-20T05:59:58.000Z</time>
      </trkpt>
      <trkpt lat="42.69555305130779743194580078125" lon="-0.64554627053439617156982421875">
        <ele>1049.199951171875</ele>
        <time>2020-08-20T05:59:59.000Z</time>
      </trkpt>
      <trkpt lat="42.69561474211513996124267578125" lon="-0.645609386265277862548828125">
        <ele>1048.4000244140625</ele>
        <time>2020-08-20T06:00:00.000Z</time>
      </trkpt>
      <trkpt lat="42.6957630179822444915771484375" lon="-0.645686499774456024169921875">
        <ele>1046.5999755859375</ele>
        <time>2020-08-20T06:00:02.000Z</time>
      </trkpt>
      <trkpt lat="42.6960932649672031402587890625" lon="-0.6457242183387279510498046875">
        <ele>1045.5999755859375</ele>
        <time>2020-08-20T06:00:06.000Z</time>
      </trkpt>
      <trkpt lat="42.6963168941438198089599609375" lon="-0.64573352225124835968017578125">
        <ele>1044</ele>
        <time>2020-08-20T06:00:09.000Z</time>
      </trkpt>
      <trkpt lat="42.69637917168438434600830078125" lon="-0.6457339413464069366455078125">
        <ele>1043.4000244140625</ele>
        <time>2020-08-20T06:00:10.000Z</time>
      </trkpt>
      <trkpt lat="42.6964436285197734832763671875" lon="-0.64572882838547229766845703125">
        <ele>1043</ele>
        <time>2020-08-20T06:00:11.000Z</time>
      </trkpt>
      <trkpt lat="42.69657011143863201141357421875" lon="-0.64571675844490528106689453125">
        <ele>1042.4000244140625</ele>
        <time>2020-08-20T06:00:13.000Z</time>
      </trkpt>
      <trkpt lat="42.69669433124363422393798828125" lon="-0.64568256027996540069580078125">
        <ele>1041.800048828125</ele>
        <time>2020-08-20T06:00:15.000Z</time>
      </trkpt>
      <trkpt lat="42.6967591233551502227783203125" lon="-0.64565741457045078277587890625">
        <ele>1041.4000244140625</ele>
        <time>2020-08-20T06:00:16.000Z</time>
      </trkpt>
      <trkpt lat="42.6968238316476345062255859375" lon="-0.645624808967113494873046875">
        <ele>1040.800048828125</ele>
        <time>2020-08-20T06:00:17.000Z</time>
      </trkpt>
      <trkpt lat="42.6969482190907001495361328125" lon="-0.645540989935398101806640625">
        <ele>1040</ele>
        <time>2020-08-20T06:00:19.000Z</time>
      </trkpt>
      <trkpt lat="42.6970092393457889556884765625" lon="-0.64550486393272876739501953125">
        <ele>1039.800048828125</ele>
        <time>2020-08-20T06:00:20.000Z</time>
      </trkpt>
      <trkpt lat="42.6971366442739963531494140625" lon="-0.6454824842512607574462890625">
        <ele>1039</ele>
        <time>2020-08-20T06:00:22.000Z</time>
      </trkpt>
      <trkpt lat="42.6971912942826747894287109375" lon="-0.645498745143413543701171875">
        <ele>1038.4000244140625</ele>
        <time>2020-08-20T06:00:23.000Z</time>
      </trkpt>
      <trkpt lat="42.69728324376046657562255859375" lon="-0.64557711593806743621826171875">
        <ele>1037.5999755859375</ele>
        <time>2020-08-20T06:00:25.000Z</time>
      </trkpt>
      <trkpt lat="42.6973168551921844482421875" lon="-0.64563226886093616485595703125">
        <ele>1037.199951171875</ele>
        <time>2020-08-20T06:00:26.000Z</time>
      </trkpt>
      <trkpt lat="42.69734300673007965087890625" lon="-0.6457644514739513397216796875">
        <ele>1036.4000244140625</ele>
        <time>2020-08-20T06:00:28.000Z</time>
      </trkpt>
      <trkpt lat="42.6973016001284122467041015625" lon="-0.6459014117717742919921875">
        <ele>1035.800048828125</ele>
        <time>2020-08-20T06:00:30.000Z</time>
      </trkpt>
      <trkpt lat="42.6972707547247409820556640625" lon="-0.6459602527320384979248046875">
        <ele>1035.800048828125</ele>
        <time>2020-08-20T06:00:31.000Z</time>
      </trkpt>
      <trkpt lat="42.69720495678484439849853515625" lon="-0.6460658647119998931884765625">
        <ele>1035.800048828125</ele>
        <time>2020-08-20T06:00:33.000Z</time>
      </trkpt>
      <trkpt lat="42.69706464372575283050537109375" lon="-0.64629427157342433929443359375">
        <ele>1035.199951171875</ele>
        <time>2020-08-20T06:00:37.000Z</time>
      </trkpt>
      <trkpt lat="42.697027511894702911376953125" lon="-0.6463493406772613525390625">
        <ele>1035</ele>
        <time>2020-08-20T06:00:38.000Z</time>
      </trkpt>
      <trkpt lat="42.6968439482152462005615234375" lon="-0.6466475687921047210693359375">
        <ele>1033.800048828125</ele>
        <time>2020-08-20T06:00:43.000Z</time>
      </trkpt>
      <trkpt lat="42.69680564291775226593017578125" lon="-0.6467156298458576202392578125">
        <ele>1033.4000244140625</ele>
        <time>2020-08-20T06:00:44.000Z</time>
      </trkpt>
      <trkpt lat="42.69672199152410030364990234375" lon="-0.6468535959720611572265625">
        <ele>1032.4000244140625</ele>
        <time>2020-08-20T06:00:46.000Z</time>
      </trkpt>
      <trkpt lat="42.6966719515621662139892578125" lon="-0.64691855572164058685302734375">
        <ele>1031.800048828125</ele>
        <time>2020-08-20T06:00:47.000Z</time>
      </trkpt>
      <trkpt lat="42.6966193132102489471435546875" lon="-0.64697639085352420806884765625">
        <ele>1031.199951171875</ele>
        <time>2020-08-20T06:00:48.000Z</time>
      </trkpt>
      <trkpt lat="42.696566171944141387939453125" lon="-0.647029615938663482666015625">
        <ele>1030.800048828125</ele>
        <time>2020-08-20T06:00:49.000Z</time>
      </trkpt>
      <trkpt lat="42.69645477645099163055419921875" lon="-0.6471209786832332611083984375">
        <ele>1030.199951171875</ele>
        <time>2020-08-20T06:00:51.000Z</time>
      </trkpt>
      <trkpt lat="42.6963966898620128631591796875" lon="-0.64715643413364887237548828125">
        <ele>1029.5999755859375</ele>
        <time>2020-08-20T06:00:52.000Z</time>
      </trkpt>
      <trkpt lat="42.696337513625621795654296875" lon="-0.64718593843281269073486328125">
        <ele>1029</ele>
        <time>2020-08-20T06:00:53.000Z</time>
      </trkpt>
      <trkpt lat="42.69627657718956470489501953125" lon="-0.6472135148942470550537109375">
        <ele>1028.5999755859375</ele>
        <time>2020-08-20T06:00:54.000Z</time>
      </trkpt>
      <trkpt lat="42.69614464603364467620849609375" lon="-0.64726657234132289886474609375">
        <ele>1027.5999755859375</ele>
        <time>2020-08-20T06:00:56.000Z</time>
      </trkpt>
      <trkpt lat="42.69593157805502414703369140625" lon="-0.6473352201282978057861328125">
        <ele>1026.199951171875</ele>
        <time>2020-08-20T06:00:59.000Z</time>
      </trkpt>
      <trkpt lat="42.69586251117289066314697265625" lon="-0.64735776744782924652099609375">
        <ele>1025.800048828125</ele>
        <time>2020-08-20T06:01:00.000Z</time>
      </trkpt>
      <trkpt lat="42.695793695747852325439453125" lon="-0.64738760702311992645263671875">
        <ele>1025.199951171875</ele>
        <time>2020-08-20T06:01:01.000Z</time>
      </trkpt>
      <trkpt lat="42.69572588615119457244873046875" lon="-0.64742557704448699951171875">
        <ele>1024.5999755859375</ele>
        <time>2020-08-20T06:01:02.000Z</time>
      </trkpt>
      <trkpt lat="42.69560401327908039093017578125" lon="-0.6475199572741985321044921875">
        <ele>1023.20001220703125</ele>
        <time>2020-08-20T06:01:04.000Z</time>
      </trkpt>
      <trkpt lat="42.69548155367374420166015625" lon="-0.64774568192660808563232421875">
        <ele>1021.79998779296875</ele>
        <time>2020-08-20T06:01:07.000Z</time>
      </trkpt>
      <trkpt lat="42.69546219147741794586181640625" lon="-0.64783486537635326385498046875">
        <ele>1020.79998779296875</ele>
        <time>2020-08-20T06:01:08.000Z</time>
      </trkpt>
      <trkpt lat="42.69545204937458038330078125" lon="-0.64792974852025508880615234375">
        <ele>1019.5999755859375</ele>
        <time>2020-08-20T06:01:09.000Z</time>
      </trkpt>
      <trkpt lat="42.69545263610780239105224609375" lon="-0.6480285711586475372314453125">
        <ele>1019.20001220703125</ele>
        <time>2020-08-20T06:01:10.000Z</time>
      </trkpt>
      <trkpt lat="42.69545984454452991485595703125" lon="-0.64813275821506977081298828125">
        <ele>1018.4000244140625</ele>
        <time>2020-08-20T06:01:11.000Z</time>
      </trkpt>
      <trkpt lat="42.69552539102733135223388671875" lon="-0.64841120503842830657958984375">
        <ele>1017</ele>
        <time>2020-08-20T06:01:14.000Z</time>
      </trkpt>
      <trkpt lat="42.69555556587874889373779296875" lon="-0.648496784269809722900390625">
        <ele>1016.79998779296875</ele>
        <time>2020-08-20T06:01:15.000Z</time>
      </trkpt>
      <trkpt lat="42.695619352161884307861328125" lon="-0.64866232685744762420654296875">
        <ele>1015.5999755859375</ele>
        <time>2020-08-20T06:01:17.000Z</time>
      </trkpt>
      <trkpt lat="42.6957418955862522125244140625" lon="-0.64889601431787014007568359375">
        <ele>1014.4000244140625</ele>
        <time>2020-08-20T06:01:20.000Z</time>
      </trkpt>
      <trkpt lat="42.6957895047962665557861328125" lon="-0.64895753748714923858642578125">
        <ele>1014</ele>
        <time>2020-08-20T06:01:21.000Z</time>
      </trkpt>
      <trkpt lat="42.69590777345001697540283203125" lon="-0.64903582446277141571044921875">
        <ele>1013.4000244140625</ele>
        <time>2020-08-20T06:01:23.000Z</time>
      </trkpt>
      <trkpt lat="42.69597331993281841278076171875" lon="-0.649054348468780517578125">
        <ele>1013.20001220703125</ele>
        <time>2020-08-20T06:01:24.000Z</time>
      </trkpt>
      <trkpt lat="42.69603953696787357330322265625" lon="-0.64906977117061614990234375">
        <ele>1012.79998779296875</ele>
        <time>2020-08-20T06:01:25.000Z</time>
      </trkpt>
      <trkpt lat="42.6961049996316432952880859375" lon="-0.64909148029983043670654296875">
        <ele>1012.4000244140625</ele>
        <time>2020-08-20T06:01:26.000Z</time>
      </trkpt>
      <trkpt lat="42.6961676962673664093017578125" lon="-0.64912609755992889404296875">
        <ele>1012</ele>
        <time>2020-08-20T06:01:27.000Z</time>
      </trkpt>
      <trkpt lat="42.6962806843221187591552734375" lon="-0.6492271833121776580810546875">
        <ele>1010.5999755859375</ele>
        <time>2020-08-20T06:01:29.000Z</time>
      </trkpt>
      <trkpt lat="42.69636475481092929840087890625" lon="-0.6493614614009857177734375">
        <ele>1009.5999755859375</ele>
        <time>2020-08-20T06:01:31.000Z</time>
      </trkpt>
      <trkpt lat="42.69639794714748859405517578125" lon="-0.64944268204271793365478515625">
        <ele>1009.20001220703125</ele>
        <time>2020-08-20T06:01:32.000Z</time>
      </trkpt>
      <trkpt lat="42.69643985666334629058837890625" lon="-0.64961635507643222808837890625">
        <ele>1008</ele>
        <time>2020-08-20T06:01:34.000Z</time>
      </trkpt>
      <trkpt lat="42.69644756801426410675048828125" lon="-0.64970470033586025238037109375">
        <ele>1007.5999755859375</ele>
        <time>2020-08-20T06:01:35.000Z</time>
      </trkpt>
      <trkpt lat="42.69644622690975666046142578125" lon="-0.64988918602466583251953125">
        <ele>1006.5999755859375</ele>
        <time>2020-08-20T06:01:37.000Z</time>
      </trkpt>
      <trkpt lat="42.696440778672695159912109375" lon="-0.6499810516834259033203125">
        <ele>1006.4000244140625</ele>
        <time>2020-08-20T06:01:38.000Z</time>
      </trkpt>
      <trkpt lat="42.6964375935494899749755859375" lon="-0.65007048659026622772216796875">
        <ele>1005.79998779296875</ele>
        <time>2020-08-20T06:01:39.000Z</time>
      </trkpt>
      <trkpt lat="42.69644052721560001373291015625" lon="-0.65015933476388454437255859375">
        <ele>1005.4000244140625</ele>
        <time>2020-08-20T06:01:40.000Z</time>
      </trkpt>
      <trkpt lat="42.69648310728371143341064453125" lon="-0.65042537637054920196533203125">
        <ele>1004.20001220703125</ele>
        <time>2020-08-20T06:01:43.000Z</time>
      </trkpt>
      <trkpt lat="42.6965059898793697357177734375" lon="-0.6505112908780574798583984375">
        <ele>1003.79998779296875</ele>
        <time>2020-08-20T06:01:44.000Z</time>
      </trkpt>
      <trkpt lat="42.6965281181037425994873046875" lon="-0.65059603191912174224853515625">
        <ele>1003.20001220703125</ele>
        <time>2020-08-20T06:01:45.000Z</time>
      </trkpt>
      <trkpt lat="42.69655016250908374786376953125" lon="-0.65067968331277370452880859375">
        <ele>1002.79998779296875</ele>
        <time>2020-08-20T06:01:46.000Z</time>
      </trkpt>
      <trkpt lat="42.69661587662994861602783203125" lon="-0.65094270743429660797119140625">
        <ele>1001.5999755859375</ele>
        <time>2020-08-20T06:01:49.000Z</time>
      </trkpt>
      <trkpt lat="42.69666851498186588287353515625" lon="-0.651214532554149627685546875">
        <ele>1000.4000244140625</ele>
        <time>2020-08-20T06:01:52.000Z</time>
      </trkpt>
      <trkpt lat="42.696704305708408355712890625" lon="-0.65138719975948333740234375">
        <ele>999.5999755859375</ele>
        <time>2020-08-20T06:01:54.000Z</time>
      </trkpt>
      <trkpt lat="42.696731798350811004638671875" lon="-0.651457943022251129150390625">
        <ele>999</ele>
        <time>2020-08-20T06:01:55.000Z</time>
      </trkpt>
      <trkpt lat="42.69677010364830493927001953125" lon="-0.65152072347700595855712890625">
        <ele>998.4000244140625</ele>
        <time>2020-08-20T06:01:56.000Z</time>
      </trkpt>
      <trkpt lat="42.696817629039287567138671875" lon="-0.65157889388501644134521484375">
        <ele>997.4000244140625</ele>
        <time>2020-08-20T06:01:57.000Z</time>
      </trkpt>
      <trkpt lat="42.69686934538185596466064453125" lon="-0.65163739956915378570556640625">
        <ele>997</ele>
        <time>2020-08-20T06:01:58.000Z</time>
      </trkpt>
      <trkpt lat="42.69697629846632480621337890625" lon="-0.65175139345228672027587890625">
        <ele>996</ele>
        <time>2020-08-20T06:02:00.000Z</time>
      </trkpt>
      <trkpt lat="42.6970270089805126190185546875" lon="-0.6518128328025341033935546875">
        <ele>995.4000244140625</ele>
        <time>2020-08-20T06:02:01.000Z</time>
      </trkpt>
      <trkpt lat="42.69706145860254764556884765625" lon="-0.65189003013074398040771484375">
        <ele>994.79998779296875</ele>
        <time>2020-08-20T06:02:02.000Z</time>
      </trkpt>
      <trkpt lat="42.69707771949470043182373046875" lon="-0.65204962156713008880615234375">
        <ele>993.5999755859375</ele>
        <time>2020-08-20T06:02:04.000Z</time>
      </trkpt>
      <trkpt lat="42.6970236562192440032958984375" lon="-0.6521833129227161407470703125">
        <ele>992.4000244140625</ele>
        <time>2020-08-20T06:02:06.000Z</time>
      </trkpt>
      <trkpt lat="42.6969830878078937530517578125" lon="-0.65224274061620235443115234375">
        <ele>991.79998779296875</ele>
        <time>2020-08-20T06:02:07.000Z</time>
      </trkpt>
      <trkpt lat="42.6968731172382831573486328125" lon="-0.65236964263021945953369140625">
        <ele>991.20001220703125</ele>
        <time>2020-08-20T06:02:09.000Z</time>
      </trkpt>
      <trkpt lat="42.69681461155414581298828125" lon="-0.65242781303822994232177734375">
        <ele>990.5999755859375</ele>
        <time>2020-08-20T06:02:10.000Z</time>
      </trkpt>
      <trkpt lat="42.69677194766700267791748046875" lon="-0.65246838144958019256591796875">
        <ele>990.20001220703125</ele>
        <time>2020-08-20T06:02:11.000Z</time>
      </trkpt>
      <trkpt lat="42.69673439674079418182373046875" lon="-0.65253007225692272186279296875">
        <ele>990</ele>
        <time>2020-08-20T06:02:12.000Z</time>
      </trkpt>
      <trkpt lat="42.6966783218085765838623046875" lon="-0.65270190127193927764892578125">
        <ele>989.4000244140625</ele>
        <time>2020-08-20T06:02:14.000Z</time>
      </trkpt>
      <trkpt lat="42.69665912725031375885009765625" lon="-0.6528957746922969818115234375">
        <ele>988.79998779296875</ele>
        <time>2020-08-20T06:02:16.000Z</time>
      </trkpt>
      <trkpt lat="42.696654684841632843017578125" lon="-0.65299493260681629180908203125">
        <ele>988.20001220703125</ele>
        <time>2020-08-20T06:02:17.000Z</time>
      </trkpt>
      <trkpt lat="42.69665191881358623504638671875" lon="-0.65309165976941585540771484375">
        <ele>987.79998779296875</ele>
        <time>2020-08-20T06:02:18.000Z</time>
      </trkpt>
      <trkpt lat="42.69664295017719268798828125" lon="-0.65336843021214008331298828125">
        <ele>986.4000244140625</ele>
        <time>2020-08-20T06:02:21.000Z</time>
      </trkpt>
      <trkpt lat="42.6966313831508159637451171875" lon="-0.6536529958248138427734375">
        <ele>985.20001220703125</ele>
        <time>2020-08-20T06:02:24.000Z</time>
      </trkpt>
      <trkpt lat="42.69662660546600818634033203125" lon="-0.653750561177730560302734375">
        <ele>985</ele>
        <time>2020-08-20T06:02:25.000Z</time>
      </trkpt>
      <trkpt lat="42.69661654718220233917236328125" lon="-0.65405004657804965972900390625">
        <ele>984.20001220703125</ele>
        <time>2020-08-20T06:02:28.000Z</time>
      </trkpt>
      <trkpt lat="42.696609087288379669189453125" lon="-0.65435263328254222869873046875">
        <ele>982.79998779296875</ele>
        <time>2020-08-20T06:02:31.000Z</time>
      </trkpt>
      <trkpt lat="42.69660539925098419189453125" lon="-0.65465949475765228271484375">
        <ele>982</ele>
        <time>2020-08-20T06:02:34.000Z</time>
      </trkpt>
      <trkpt lat="42.69660648889839649200439453125" lon="-0.6547575630247592926025390625">
        <ele>981.5999755859375</ele>
        <time>2020-08-20T06:02:35.000Z</time>
      </trkpt>
      <trkpt lat="42.69661302678287029266357421875" lon="-0.654850266873836517333984375">
        <ele>981</ele>
        <time>2020-08-20T06:02:36.000Z</time>
      </trkpt>
      <trkpt lat="42.69662727601826190948486328125" lon="-0.65493685193359851837158203125">
        <ele>980.20001220703125</ele>
        <time>2020-08-20T06:02:37.000Z</time>
      </trkpt>
      <trkpt lat="42.69668393768370151519775390625" lon="-0.65509803593158721923828125">
        <ele>979</ele>
        <time>2020-08-20T06:02:39.000Z</time>
      </trkpt>
      <trkpt lat="42.696840427815914154052734375" lon="-0.6552945077419281005859375">
        <ele>977.5999755859375</ele>
        <time>2020-08-20T06:02:42.000Z</time>
      </trkpt>
      <trkpt lat="42.69695903174579143524169921875" lon="-0.65540355630218982696533203125">
        <ele>976.5999755859375</ele>
        <time>2020-08-20T06:02:44.000Z</time>
      </trkpt>
      <trkpt lat="42.697127424180507659912109375" lon="-0.6555518321692943572998046875">
        <ele>975.20001220703125</ele>
        <time>2020-08-20T06:02:47.000Z</time>
      </trkpt>
      <trkpt lat="42.6972278393805027008056640625" lon="-0.6557127647101879119873046875">
        <ele>974.20001220703125</ele>
        <time>2020-08-20T06:02:50.000Z</time>
      </trkpt>
      <trkpt lat="42.6971859298646450042724609375" lon="-0.6558907963335514068603515625">
        <ele>973.20001220703125</ele>
        <time>2020-08-20T06:02:53.000Z</time>
      </trkpt>
      <trkpt lat="42.6970370672643184661865234375" lon="-0.65603722818195819854736328125">
        <ele>972.5999755859375</ele>
        <time>2020-08-20T06:02:57.000Z</time>
      </trkpt>
      <trkpt lat="42.69694335758686065673828125" lon="-0.6560772098600864410400390625">
        <ele>972.4000244140625</ele>
        <time>2020-08-20T06:02:59.000Z</time>
      </trkpt>
      <trkpt lat="42.69689449109137058258056640625" lon="-0.6560933031141757965087890625">
        <ele>972.4000244140625</ele>
        <time>2020-08-20T06:03:00.000Z</time>
      </trkpt>
      <trkpt lat="42.6967909745872020721435546875" lon="-0.6561181135475635528564453125">
        <ele>972.20001220703125</ele>
        <time>2020-08-20T06:03:02.000Z</time>
      </trkpt>
      <trkpt lat="42.6965867914259433746337890625" lon="-0.65617066808044910430908203125">
        <ele>971.79998779296875</ele>
        <time>2020-08-20T06:03:06.000Z</time>
      </trkpt>
      <trkpt lat="42.69653809256851673126220703125" lon="-0.65620101056993007659912109375">
        <ele>971.5999755859375</ele>
        <time>2020-08-20T06:03:07.000Z</time>
      </trkpt>
      <trkpt lat="42.69645829685032367706298828125" lon="-0.65629941411316394805908203125">
        <ele>971.20001220703125</ele>
        <time>2020-08-20T06:03:09.000Z</time>
      </trkpt>
      <trkpt lat="42.6964295469224452972412109375" lon="-0.65637015737593173980712890625">
        <ele>970.79998779296875</ele>
        <time>2020-08-20T06:03:10.000Z</time>
      </trkpt>
      <trkpt lat="42.69639023579657077789306640625" lon="-0.65653695724904537200927734375">
        <ele>970</ele>
        <time>2020-08-20T06:03:12.000Z</time>
      </trkpt>
      <trkpt lat="42.6963752321898937225341796875" lon="-0.65662630833685398101806640625">
        <ele>969.5999755859375</ele>
        <time>2020-08-20T06:03:13.000Z</time>
      </trkpt>
      <trkpt lat="42.696354277431964874267578125" lon="-0.65680836327373981475830078125">
        <ele>969</ele>
        <time>2020-08-20T06:03:15.000Z</time>
      </trkpt>
      <trkpt lat="42.696346230804920196533203125" lon="-0.6568993069231510162353515625">
        <ele>968.79998779296875</ele>
        <time>2020-08-20T06:03:16.000Z</time>
      </trkpt>
      <trkpt lat="42.69630725495517253875732421875" lon="-0.6573613174259662628173828125">
        <ele>967.79998779296875</ele>
        <time>2020-08-20T06:03:21.000Z</time>
      </trkpt>
      <trkpt lat="42.696281187236309051513671875" lon="-0.65772651694715023040771484375">
        <ele>967</ele>
        <time>2020-08-20T06:03:25.000Z</time>
      </trkpt>
      <trkpt lat="42.69626517780125141143798828125" lon="-0.65791225992143154144287109375">
        <ele>966.79998779296875</ele>
        <time>2020-08-20T06:03:27.000Z</time>
      </trkpt>
      <trkpt lat="42.6962287165224552154541015625" lon="-0.6584643758833408355712890625">
        <ele>965.5999755859375</ele>
        <time>2020-08-20T06:03:33.000Z</time>
      </trkpt>
      <trkpt lat="42.69623869098722934722900390625" lon="-0.6587349437177181243896484375">
        <ele>965.20001220703125</ele>
        <time>2020-08-20T06:03:36.000Z</time>
      </trkpt>
      <trkpt lat="42.69628755748271942138671875" lon="-0.65888263285160064697265625">
        <ele>964.79998779296875</ele>
        <time>2020-08-20T06:03:38.000Z</time>
      </trkpt>
      <trkpt lat="42.6963262818753719329833984375" lon="-0.6589397974312305450439453125">
        <ele>964.5999755859375</ele>
        <time>2020-08-20T06:03:39.000Z</time>
      </trkpt>
      <trkpt lat="42.69642359577119350433349609375" lon="-0.65900928340852260589599609375">
        <ele>964.4000244140625</ele>
        <time>2020-08-20T06:03:41.000Z</time>
      </trkpt>
      <trkpt lat="42.6965391822159290313720703125" lon="-0.65902344882488250732421875">
        <ele>964</ele>
        <time>2020-08-20T06:03:43.000Z</time>
      </trkpt>
      <trkpt lat="42.69667102955281734466552734375" lon="-0.6590185873210430145263671875">
        <ele>963.5999755859375</ele>
        <time>2020-08-20T06:03:45.000Z</time>
      </trkpt>
      <trkpt lat="42.696873284876346588134765625" lon="-0.65901800058782100677490234375">
        <ele>962.20001220703125</ele>
        <time>2020-08-20T06:03:48.000Z</time>
      </trkpt>
      <trkpt lat="42.6969884522259235382080078125" lon="-0.65903560258448123931884765625">
        <ele>961.5999755859375</ele>
        <time>2020-08-20T06:03:50.000Z</time>
      </trkpt>
      <trkpt lat="42.69703547470271587371826171875" lon="-0.65906460396945476531982421875">
        <ele>961</ele>
        <time>2020-08-20T06:03:51.000Z</time>
      </trkpt>
      <trkpt lat="42.6971071399748325347900390625" lon="-0.65915621817111968994140625">
        <ele>960</ele>
        <time>2020-08-20T06:03:53.000Z</time>
      </trkpt>
      <trkpt lat="42.69712734036147594451904296875" lon="-0.65921732224524021148681640625">
        <ele>959.5999755859375</ele>
        <time>2020-08-20T06:03:54.000Z</time>
      </trkpt>
      <trkpt lat="42.69712700508534908294677734375" lon="-0.6593595631420612335205078125">
        <ele>958.5999755859375</ele>
        <time>2020-08-20T06:03:56.000Z</time>
      </trkpt>
      <trkpt lat="42.69702239893376827239990234375" lon="-0.65953935496509075164794921875">
        <ele>957.5999755859375</ele>
        <time>2020-08-20T06:03:59.000Z</time>
      </trkpt>
      <trkpt lat="42.69697395153343677520751953125" lon="-0.65958713181316852569580078125">
        <ele>957.5999755859375</ele>
        <time>2020-08-20T06:04:00.000Z</time>
      </trkpt>
      <trkpt lat="42.6968704350292682647705078125" lon="-0.65966558642685413360595703125">
        <ele>957.4000244140625</ele>
        <time>2020-08-20T06:04:02.000Z</time>
      </trkpt>
      <trkpt lat="42.69676096737384796142578125" lon="-0.65973750315606594085693359375">
        <ele>957</ele>
        <time>2020-08-20T06:04:04.000Z</time>
      </trkpt>
      <trkpt lat="42.69655317999422550201416015625" lon="-0.6598604656755924224853515625">
        <ele>956.4000244140625</ele>
        <time>2020-08-20T06:04:08.000Z</time>
      </trkpt>
      <trkpt lat="42.6964097656309604644775390625" lon="-0.6599416024982929229736328125">
        <ele>956.20001220703125</ele>
        <time>2020-08-20T06:04:11.000Z</time>
      </trkpt>
      <trkpt lat="42.69613140262663364410400390625" lon="-0.66009205766022205352783203125">
        <ele>956</ele>
        <time>2020-08-20T06:04:18.000Z</time>
      </trkpt>
      <trkpt lat="42.6958760060369968414306640625" lon="-0.6602239049971103668212890625">
        <ele>956.5999755859375</ele>
        <time>2020-08-20T06:04:26.000Z</time>
      </trkpt>
      <trkpt lat="42.695628069341182708740234375" lon="-0.66038659773766994476318359375">
        <ele>956.79998779296875</ele>
        <time>2020-08-20T06:04:34.000Z</time>
      </trkpt>
      <trkpt lat="42.695503346621990203857421875" lon="-0.66059446893632411956787109375">
        <ele>956.79998779296875</ele>
        <time>2020-08-20T06:04:40.000Z</time>
      </trkpt>
      <trkpt lat="42.6953865028917789459228515625" lon="-0.66090996377170085906982421875">
        <ele>957.79998779296875</ele>
        <time>2020-08-20T06:04:49.000Z</time>
      </trkpt>
      <trkpt lat="42.6953476108610630035400390625" lon="-0.6610034219920635223388671875">
        <ele>958</ele>
        <time>2020-08-20T06:04:52.000Z</time>
      </trkpt>
      <trkpt lat="42.69529656507074832916259765625" lon="-0.661179609596729278564453125">
        <ele>958.4000244140625</ele>
        <time>2020-08-20T06:04:57.000Z</time>
      </trkpt>
      <trkpt lat="42.695250213146209716796875" lon="-0.6613938510417938232421875">
        <ele>958.79998779296875</ele>
        <time>2020-08-20T06:05:03.000Z</time>
      </trkpt>
      <trkpt lat="42.6952319405972957611083984375" lon="-0.6615049950778484344482421875">
        <ele>959.20001220703125</ele>
        <time>2020-08-20T06:05:06.000Z</time>
      </trkpt>
      <trkpt lat="42.69520453177392482757568359375" lon="-0.6616511754691600799560546875">
        <ele>959.4000244140625</ele>
        <time>2020-08-20T06:05:10.000Z</time>
      </trkpt>
      <trkpt lat="42.6951497979462146759033203125" lon="-0.66192618571221828460693359375">
        <ele>959.79998779296875</ele>
        <time>2020-08-20T06:05:18.000Z</time>
      </trkpt>
      <trkpt lat="42.69512607716023921966552734375" lon="-0.66203230060636997222900390625">
        <ele>960.20001220703125</ele>
        <time>2020-08-20T06:05:21.000Z</time>
      </trkpt>
      <trkpt lat="42.69507997669279575347900390625" lon="-0.662243105471134185791015625">
        <ele>961.20001220703125</ele>
        <time>2020-08-20T06:05:27.000Z</time>
      </trkpt>
      <trkpt lat="42.69503069110214710235595703125" lon="-0.66249498166143894195556640625">
        <ele>961.4000244140625</ele>
        <time>2020-08-20T06:05:34.000Z</time>
      </trkpt>
      <trkpt lat="42.69502230919897556304931640625" lon="-0.66253119148313999176025390625">
        <ele>961.5999755859375</ele>
        <time>2020-08-20T06:05:35.000Z</time>
      </trkpt>
      <trkpt lat="42.69494553096592426300048828125" lon="-0.66282455809414386749267578125">
        <ele>961.79998779296875</ele>
        <time>2020-08-20T06:05:43.000Z</time>
      </trkpt>
      <trkpt lat="42.6947987638413906097412109375" lon="-0.66321867518126964569091796875">
        <ele>962.4000244140625</ele>
        <time>2020-08-20T06:05:54.000Z</time>
      </trkpt>
      <trkpt lat="42.69467177800834178924560546875" lon="-0.66350231878459453582763671875">
        <ele>962.20001220703125</ele>
        <time>2020-08-20T06:06:02.000Z</time>
      </trkpt>
      <trkpt lat="42.694515287876129150390625" lon="-0.66386274062097072601318359375">
        <ele>961.5999755859375</ele>
        <time>2020-08-20T06:06:11.000Z</time>
      </trkpt>
      <trkpt lat="42.6943838596343994140625" lon="-0.66420505754649639129638671875">
        <ele>961.20001220703125</ele>
        <time>2020-08-20T06:06:18.000Z</time>
      </trkpt>
      <trkpt lat="42.694337926805019378662109375" lon="-0.6643119268119335174560546875">
        <ele>960.79998779296875</ele>
        <time>2020-08-20T06:06:20.000Z</time>
      </trkpt>
      <trkpt lat="42.69419618882238864898681640625" lon="-0.66456899978220462799072265625">
        <ele>960.4000244140625</ele>
        <time>2020-08-20T06:06:25.000Z</time>
      </trkpt>
      <trkpt lat="42.6940182410180568695068359375" lon="-0.6648860871791839599609375">
        <ele>960.20001220703125</ele>
        <time>2020-08-20T06:06:32.000Z</time>
      </trkpt>
      <trkpt lat="42.693907432258129119873046875" lon="-0.66512882709503173828125">
        <ele>960.79998779296875</ele>
        <time>2020-08-20T06:06:39.000Z</time>
      </trkpt>
      <trkpt lat="42.69384213723242282867431640625" lon="-0.66531700082123279571533203125">
        <ele>961</ele>
        <time>2020-08-20T06:06:45.000Z</time>
      </trkpt>
      <trkpt lat="42.69381598569452762603759765625" lon="-0.66549704410135746002197265625">
        <ele>962</ele>
        <time>2020-08-20T06:06:51.000Z</time>
      </trkpt>
      <trkpt lat="42.69381187856197357177734375" lon="-0.665524788200855255126953125">
        <ele>962.20001220703125</ele>
        <time>2020-08-20T06:06:52.000Z</time>
      </trkpt>
      <trkpt lat="42.69382394850254058837890625" lon="-0.66566082648932933807373046875">
        <ele>962.79998779296875</ele>
        <time>2020-08-20T06:06:57.000Z</time>
      </trkpt>
      <trkpt lat="42.69384548999369144439697265625" lon="-0.6657350063323974609375">
        <ele>963.20001220703125</ele>
        <time>2020-08-20T06:07:00.000Z</time>
      </trkpt>
      <trkpt lat="42.69386912696063518524169921875" lon="-0.6658122874796390533447265625">
        <ele>963.79998779296875</ele>
        <time>2020-08-20T06:07:03.000Z</time>
      </trkpt>
      <trkpt lat="42.693906761705875396728515625" lon="-0.66588982008397579193115234375">
        <ele>964.4000244140625</ele>
        <time>2020-08-20T06:07:06.000Z</time>
      </trkpt>
      <trkpt lat="42.69399133510887622833251953125" lon="-0.66603398881852626800537109375">
        <ele>964.4000244140625</ele>
        <time>2020-08-20T06:07:12.000Z</time>
      </trkpt>
      <trkpt lat="42.69401748664677143096923828125" lon="-0.66608570516109466552734375">
        <ele>964.5999755859375</ele>
        <time>2020-08-20T06:07:15.000Z</time>
      </trkpt>
      <trkpt lat="42.69400038756430149078369140625" lon="-0.666134990751743316650390625">
        <ele>964.5999755859375</ele>
        <time>2020-08-20T06:07:17.000Z</time>
      </trkpt>
      <trkpt lat="42.69394607283174991607666015625" lon="-0.66626197658479213714599609375">
        <ele>964</ele>
        <time>2020-08-20T06:07:22.000Z</time>
      </trkpt>
      <trkpt lat="42.69392729736864566802978515625" lon="-0.66631847061216831207275390625">
        <ele>963.4000244140625</ele>
        <time>2020-08-20T06:07:24.000Z</time>
      </trkpt>
      <trkpt lat="42.6939193345606327056884765625" lon="-0.6663493998348712921142578125">
        <ele>963.20001220703125</ele>
        <time>2020-08-20T06:07:25.000Z</time>
      </trkpt>
      <trkpt lat="42.693912126123905181884765625" lon="-0.66644721664488315582275390625">
        <ele>962.5999755859375</ele>
        <time>2020-08-20T06:07:30.000Z</time>
      </trkpt>
      <trkpt lat="42.6939116232097148895263671875" lon="-0.66644704900681972503662109375">
        <ele>962.4000244140625</ele>
        <time>2020-08-20T06:07:31.000Z</time>
      </trkpt>
      <trkpt lat="42.6939119584858417510986328125" lon="-0.66646750085055828094482421875">
        <ele>962.20001220703125</ele>
        <time>2020-08-20T06:07:35.000Z</time>
      </trkpt>
      <trkpt lat="42.69392159767448902130126953125" lon="-0.6665110029280185699462890625">
        <ele>962.20001220703125</ele>
        <time>2020-08-20T06:07:37.000Z</time>
      </trkpt>
      <trkpt lat="42.6939850486814975738525390625" lon="-0.66662373952567577362060546875">
        <ele>962.4000244140625</ele>
        <time>2020-08-20T06:07:43.000Z</time>
      </trkpt>
      <trkpt lat="42.693961076438426971435546875" lon="-0.66675030626356601715087890625">
        <ele>962.4000244140625</ele>
        <time>2020-08-20T06:07:48.000Z</time>
      </trkpt>
      <trkpt lat="42.69394909031689167022705078125" lon="-0.66699639894068241119384765625">
        <ele>962.20001220703125</ele>
        <time>2020-08-20T06:07:55.000Z</time>
      </trkpt>
      <trkpt lat="42.69405822269618511199951171875" lon="-0.66715733148157596588134765625">
        <ele>961.79998779296875</ele>
        <time>2020-08-20T06:08:00.000Z</time>
      </trkpt>
      <trkpt lat="42.69408412277698516845703125" lon="-0.66718943417072296142578125">
        <ele>961.4000244140625</ele>
        <time>2020-08-20T06:08:01.000Z</time>
      </trkpt>
      <trkpt lat="42.694252431392669677734375" lon="-0.66738364286720752716064453125">
        <ele>961</ele>
        <time>2020-08-20T06:08:07.000Z</time>
      </trkpt>
      <trkpt lat="42.6944390125572681427001953125" lon="-0.66757894121110439300537109375">
        <ele>960.5999755859375</ele>
        <time>2020-08-20T06:08:12.000Z</time>
      </trkpt>
      <trkpt lat="42.69450179301202297210693359375" lon="-0.667673908174037933349609375">
        <ele>959.79998779296875</ele>
        <time>2020-08-20T06:08:14.000Z</time>
      </trkpt>
      <trkpt lat="42.694515623152256011962890625" lon="-0.66772763617336750030517578125">
        <ele>959.4000244140625</ele>
        <time>2020-08-20T06:08:15.000Z</time>
      </trkpt>
      <trkpt lat="42.69451134838163852691650390625" lon="-0.6677816994488239288330078125">
        <ele>959</ele>
        <time>2020-08-20T06:08:16.000Z</time>
      </trkpt>
      <trkpt lat="42.69445535726845264434814453125" lon="-0.667852275073528289794921875">
        <ele>958.4000244140625</ele>
        <time>2020-08-20T06:08:18.000Z</time>
      </trkpt>
      <trkpt lat="42.69440867006778717041015625" lon="-0.6678661890327930450439453125">
        <ele>957.79998779296875</ele>
        <time>2020-08-20T06:08:19.000Z</time>
      </trkpt>
      <trkpt lat="42.694290988147258758544921875" lon="-0.6678752414882183074951171875">
        <ele>957</ele>
        <time>2020-08-20T06:08:21.000Z</time>
      </trkpt>
      <trkpt lat="42.69414673559367656707763671875" lon="-0.66788814961910247802734375">
        <ele>955.79998779296875</ele>
        <time>2020-08-20T06:08:23.000Z</time>
      </trkpt>
      <trkpt lat="42.6939961127936840057373046875" lon="-0.66790332086384296417236328125">
        <ele>954.20001220703125</ele>
        <time>2020-08-20T06:08:25.000Z</time>
      </trkpt>
      <trkpt lat="42.6939236931502819061279296875" lon="-0.66790499724447727203369140625">
        <ele>953.5999755859375</ele>
        <time>2020-08-20T06:08:26.000Z</time>
      </trkpt>
      <trkpt lat="42.69385219551622867584228515625" lon="-0.6678950227797031402587890625">
        <ele>952.79998779296875</ele>
        <time>2020-08-20T06:08:27.000Z</time>
      </trkpt>
      <trkpt lat="42.69377977587282657623291015625" lon="-0.66786945797502994537353515625">
        <ele>952.20001220703125</ele>
        <time>2020-08-20T06:08:28.000Z</time>
      </trkpt>
      <trkpt lat="42.6937044225633144378662109375" lon="-0.6678306497633457183837890625">
        <ele>951</ele>
        <time>2020-08-20T06:08:29.000Z</time>
      </trkpt>
      <trkpt lat="42.69362789578735828399658203125" lon="-0.6677873991429805755615234375">
        <ele>950.4000244140625</ele>
        <time>2020-08-20T06:08:30.000Z</time>
      </trkpt>
      <trkpt lat="42.69355027936398983001708984375" lon="-0.66774607636034488677978515625">
        <ele>949.79998779296875</ele>
        <time>2020-08-20T06:08:31.000Z</time>
      </trkpt>
      <trkpt lat="42.69347081892192363739013671875" lon="-0.6677062623202800750732421875">
        <ele>948.79998779296875</ele>
        <time>2020-08-20T06:08:32.000Z</time>
      </trkpt>
      <trkpt lat="42.69338850863277912139892578125" lon="-0.66766745410859584808349609375">
        <ele>948.20001220703125</ele>
        <time>2020-08-20T06:08:33.000Z</time>
      </trkpt>
      <trkpt lat="42.693302594125270843505859375" lon="-0.66762889735400676727294921875">
        <ele>947.5999755859375</ele>
        <time>2020-08-20T06:08:34.000Z</time>
      </trkpt>
      <trkpt lat="42.69313068129122257232666015625" lon="-0.6675480119884014129638671875">
        <ele>946</ele>
        <time>2020-08-20T06:08:36.000Z</time>
      </trkpt>
      <trkpt lat="42.69297301769256591796875" lon="-0.66747265867888927459716796875">
        <ele>944.5999755859375</ele>
        <time>2020-08-20T06:08:38.000Z</time>
      </trkpt>
      <trkpt lat="42.69281141459941864013671875" lon="-0.667409710586071014404296875">
        <ele>943.20001220703125</ele>
        <time>2020-08-20T06:08:40.000Z</time>
      </trkpt>
      <trkpt lat="42.692637741565704345703125" lon="-0.667365454137325286865234375">
        <ele>942.20001220703125</ele>
        <time>2020-08-20T06:08:42.000Z</time>
      </trkpt>
      <trkpt lat="42.69255702383816242218017578125" lon="-0.66734843887388706207275390625">
        <ele>941.5999755859375</ele>
        <time>2020-08-20T06:08:43.000Z</time>
      </trkpt>
      <trkpt lat="42.69248359836637973785400390625" lon="-0.66733368672430515289306640625">
        <ele>941</ele>
        <time>2020-08-20T06:08:44.000Z</time>
      </trkpt>
      <trkpt lat="42.6923408545553684234619140625" lon="-0.66730770282447338104248046875">
        <ele>939.5999755859375</ele>
        <time>2020-08-20T06:08:46.000Z</time>
      </trkpt>
      <trkpt lat="42.6921938359737396240234375" lon="-0.66726160235702991485595703125">
        <ele>938.4000244140625</ele>
        <time>2020-08-20T06:08:48.000Z</time>
      </trkpt>
      <trkpt lat="42.69212418235838413238525390625" lon="-0.667223967611789703369140625">
        <ele>937.79998779296875</ele>
        <time>2020-08-20T06:08:49.000Z</time>
      </trkpt>
      <trkpt lat="42.69206299446523189544677734375" lon="-0.66717199981212615966796875">
        <ele>937.20001220703125</ele>
        <time>2020-08-20T06:08:50.000Z</time>
      </trkpt>
      <trkpt lat="42.69201052375137805938720703125" lon="-0.6671091355383396148681640625">
        <ele>936.5999755859375</ele>
        <time>2020-08-20T06:08:51.000Z</time>
      </trkpt>
      <trkpt lat="42.691964842379093170166015625" lon="-0.6670393981039524078369140625">
        <ele>935.79998779296875</ele>
        <time>2020-08-20T06:08:52.000Z</time>
      </trkpt>
      <trkpt lat="42.69192268140614032745361328125" lon="-0.6669703312218189239501953125">
        <ele>934.79998779296875</ele>
        <time>2020-08-20T06:08:53.000Z</time>
      </trkpt>
      <trkpt lat="42.6918798498809337615966796875" lon="-0.66691224463284015655517578125">
        <ele>934.4000244140625</ele>
        <time>2020-08-20T06:08:54.000Z</time>
      </trkpt>
      <trkpt lat="42.69183668307960033416748046875" lon="-0.66687134094536304473876953125">
        <ele>933.5999755859375</ele>
        <time>2020-08-20T06:08:55.000Z</time>
      </trkpt>
      <trkpt lat="42.69178773276507854461669921875" lon="-0.6668667308986186981201171875">
        <ele>932.79998779296875</ele>
        <time>2020-08-20T06:08:56.000Z</time>
      </trkpt>
      <trkpt lat="42.6917423866689205169677734375" lon="-0.66689514555037021636962890625">
        <ele>932</ele>
        <time>2020-08-20T06:08:57.000Z</time>
      </trkpt>
      <trkpt lat="42.69171531312167644500732421875" lon="-0.66694711335003376007080078125">
        <ele>931</ele>
        <time>2020-08-20T06:08:58.000Z</time>
      </trkpt>
      <trkpt lat="42.69170634448528289794921875" lon="-0.6670212931931018829345703125">
        <ele>930.20001220703125</ele>
        <time>2020-08-20T06:08:59.000Z</time>
      </trkpt>
      <trkpt lat="42.6917138881981372833251953125" lon="-0.66710452549159526824951171875">
        <ele>929.5999755859375</ele>
        <time>2020-08-20T06:09:00.000Z</time>
      </trkpt>
      <trkpt lat="42.69177482463419437408447265625" lon="-0.66728440113365650177001953125">
        <ele>928</ele>
        <time>2020-08-20T06:09:02.000Z</time>
      </trkpt>
      <trkpt lat="42.69181740470230579376220703125" lon="-0.667378865182399749755859375">
        <ele>927.4000244140625</ele>
        <time>2020-08-20T06:09:03.000Z</time>
      </trkpt>
      <trkpt lat="42.6918620802462100982666015625" lon="-0.66747852601110935211181640625">
        <ele>926.5999755859375</ele>
        <time>2020-08-20T06:09:04.000Z</time>
      </trkpt>
      <trkpt lat="42.69195981323719024658203125" lon="-0.6676881574094295501708984375">
        <ele>925.20001220703125</ele>
        <time>2020-08-20T06:09:06.000Z</time>
      </trkpt>
      <trkpt lat="42.692013792693614959716796875" lon="-0.6677907519042491912841796875">
        <ele>924.20001220703125</ele>
        <time>2020-08-20T06:09:07.000Z</time>
      </trkpt>
      <trkpt lat="42.6920689456164836883544921875" lon="-0.6678883172571659088134765625">
        <ele>923.5999755859375</ele>
        <time>2020-08-20T06:09:08.000Z</time>
      </trkpt>
      <trkpt lat="42.69212334416806697845458984375" lon="-0.66798328422009944915771484375">
        <ele>922.4000244140625</ele>
        <time>2020-08-20T06:09:09.000Z</time>
      </trkpt>
      <trkpt lat="42.692172043025493621826171875" lon="-0.6680790893733501434326171875">
        <ele>921.79998779296875</ele>
        <time>2020-08-20T06:09:10.000Z</time>
      </trkpt>
      <trkpt lat="42.6922107674181461334228515625" lon="-0.668174140155315399169921875">
        <ele>921</ele>
        <time>2020-08-20T06:09:11.000Z</time>
      </trkpt>
      <trkpt lat="42.69223717041313648223876953125" lon="-0.66826634109020233154296875">
        <ele>920.20001220703125</ele>
        <time>2020-08-20T06:09:12.000Z</time>
      </trkpt>
      <trkpt lat="42.69224454648792743682861328125" lon="-0.66835711710155010223388671875">
        <ele>919.4000244140625</ele>
        <time>2020-08-20T06:09:13.000Z</time>
      </trkpt>
      <trkpt lat="42.69219609908759593963623046875" lon="-0.6685313768684864044189453125">
        <ele>918.4000244140625</ele>
        <time>2020-08-20T06:09:15.000Z</time>
      </trkpt>
      <trkpt lat="42.69214932806789875030517578125" lon="-0.66860589198768138885498046875">
        <ele>918.20001220703125</ele>
        <time>2020-08-20T06:09:16.000Z</time>
      </trkpt>
      <trkpt lat="42.6920974440872669219970703125" lon="-0.668676383793354034423828125">
        <ele>918</ele>
        <time>2020-08-20T06:09:17.000Z</time>
      </trkpt>
      <trkpt lat="42.69199602305889129638671875" lon="-0.668822564184665679931640625">
        <ele>917.20001220703125</ele>
        <time>2020-08-20T06:09:19.000Z</time>
      </trkpt>
      <trkpt lat="42.69194598309695720672607421875" lon="-0.668897666037082672119140625">
        <ele>916.79998779296875</ele>
        <time>2020-08-20T06:09:20.000Z</time>
      </trkpt>
      <trkpt lat="42.691796533763408660888671875" lon="-0.66911215893924236297607421875">
        <ele>916</ele>
        <time>2020-08-20T06:09:23.000Z</time>
      </trkpt>
      <trkpt lat="42.691615484654903411865234375" lon="-0.669381134212017059326171875">
        <ele>915.5999755859375</ele>
        <time>2020-08-20T06:09:27.000Z</time>
      </trkpt>
      <trkpt lat="42.69142328761518001556396484375" lon="-0.66966511309146881103515625">
        <ele>915.20001220703125</ele>
        <time>2020-08-20T06:09:32.000Z</time>
      </trkpt>
      <trkpt lat="42.69139881245791912078857421875" lon="-0.66970660351216793060302734375">
        <ele>915.20001220703125</ele>
        <time>2020-08-20T06:09:33.000Z</time>
      </trkpt>
      <trkpt lat="42.69136369228363037109375" lon="-0.66976427100598812103271484375">
        <ele>915</ele>
        <time>2020-08-20T06:09:35.000Z</time>
      </trkpt>
      <trkpt lat="42.6913296617567539215087890625" lon="-0.66980064846575260162353515625">
        <ele>914.79998779296875</ele>
        <time>2020-08-20T06:09:37.000Z</time>
      </trkpt>
      <trkpt lat="42.691307365894317626953125" lon="-0.669803917407989501953125">
        <ele>914.5999755859375</ele>
        <time>2020-08-20T06:09:38.000Z</time>
      </trkpt>
      <trkpt lat="42.69122648052871227264404296875" lon="-0.66976125352084636688232421875">
        <ele>914.4000244140625</ele>
        <time>2020-08-20T06:09:41.000Z</time>
      </trkpt>
      <trkpt lat="42.6911630295217037200927734375" lon="-0.6697175838053226470947265625">
        <ele>914.4000244140625</ele>
        <time>2020-08-20T06:09:43.000Z</time>
      </trkpt>
      <trkpt lat="42.69109547138214111328125" lon="-0.66966779530048370361328125">
        <ele>914</ele>
        <time>2020-08-20T06:09:45.000Z</time>
      </trkpt>
      <trkpt lat="42.690983153879642486572265625" lon="-0.66958171315491199493408203125">
        <ele>913.79998779296875</ele>
        <time>2020-08-20T06:09:48.000Z</time>
      </trkpt>
      <trkpt lat="42.69081526435911655426025390625" lon="-0.66944517195224761962890625">
        <ele>913</ele>
        <time>2020-08-20T06:09:52.000Z</time>
      </trkpt>
      <trkpt lat="42.6906678266823291778564453125" lon="-0.669343583285808563232421875">
        <ele>912.4000244140625</ele>
        <time>2020-08-20T06:09:55.000Z</time>
      </trkpt>
      <trkpt lat="42.69044461660087108612060546875" lon="-0.6691972352564334869384765625">
        <ele>911.79998779296875</ele>
        <time>2020-08-20T06:09:59.000Z</time>
      </trkpt>
      <trkpt lat="42.69025736488401889801025390625" lon="-0.669088102877140045166015625">
        <ele>911</ele>
        <time>2020-08-20T06:10:02.000Z</time>
      </trkpt>
      <trkpt lat="42.69019223749637603759765625" lon="-0.669051222503185272216796875">
        <ele>910.79998779296875</ele>
        <time>2020-08-20T06:10:03.000Z</time>
      </trkpt>
      <trkpt lat="42.6899255253374576568603515625" lon="-0.6689088977873325347900390625">
        <ele>909.79998779296875</ele>
        <time>2020-08-20T06:10:07.000Z</time>
      </trkpt>
      <trkpt lat="42.68980088643729686737060546875" lon="-0.66883974708616733551025390625">
        <ele>909.20001220703125</ele>
        <time>2020-08-20T06:10:09.000Z</time>
      </trkpt>
      <trkpt lat="42.68961179070174694061279296875" lon="-0.6687385775148868560791015625">
        <ele>908.5999755859375</ele>
        <time>2020-08-20T06:10:12.000Z</time>
      </trkpt>
      <trkpt lat="42.68923661671578884124755859375" lon="-0.66855191253125667572021484375">
        <ele>907.5999755859375</ele>
        <time>2020-08-20T06:10:18.000Z</time>
      </trkpt>
      <trkpt lat="42.68911390565335750579833984375" lon="-0.66849860362708568572998046875">
        <ele>907.5999755859375</ele>
        <time>2020-08-20T06:10:20.000Z</time>
      </trkpt>
      <trkpt lat="42.68882255069911479949951171875" lon="-0.668390057981014251708984375">
        <ele>907</ele>
        <time>2020-08-20T06:10:25.000Z</time>
      </trkpt>
      <trkpt lat="42.6884610392153263092041015625" lon="-0.668356530368328094482421875">
        <ele>906.79998779296875</ele>
        <time>2020-08-20T06:10:32.000Z</time>
      </trkpt>
      <trkpt lat="42.6882722787559032440185546875" lon="-0.668394081294536590576171875">
        <ele>906.79998779296875</ele>
        <time>2020-08-20T06:10:36.000Z</time>
      </trkpt>
      <trkpt lat="42.6880932413041591644287109375" lon="-0.66845602355897426605224609375">
        <ele>906.5999755859375</ele>
        <time>2020-08-20T06:10:40.000Z</time>
      </trkpt>
      <trkpt lat="42.68778629601001739501953125" lon="-0.6686346419155597686767578125">
        <ele>905.5999755859375</ele>
        <time>2020-08-20T06:10:47.000Z</time>
      </trkpt>
      <trkpt lat="42.687739692628383636474609375" lon="-0.66866707988083362579345703125">
        <ele>905.5999755859375</ele>
        <time>2020-08-20T06:10:48.000Z</time>
      </trkpt>
      <trkpt lat="42.6873837970197200775146484375" lon="-0.668927840888500213623046875">
        <ele>904.5999755859375</ele>
        <time>2020-08-20T06:10:55.000Z</time>
      </trkpt>
      <trkpt lat="42.68711331300437450408935546875" lon="-0.6691402383148670196533203125">
        <ele>903.4000244140625</ele>
        <time>2020-08-20T06:11:00.000Z</time>
      </trkpt>
      <trkpt lat="42.68693913705646991729736328125" lon="-0.66927175037562847137451171875">
        <ele>903</ele>
        <time>2020-08-20T06:11:03.000Z</time>
      </trkpt>
      <trkpt lat="42.68669740296900272369384765625" lon="-0.66945749334990978240966796875">
        <ele>902.5999755859375</ele>
        <time>2020-08-20T06:11:07.000Z</time>
      </trkpt>
      <trkpt lat="42.6864453591406345367431640625" lon="-0.6696523725986480712890625">
        <ele>901.4000244140625</ele>
        <time>2020-08-20T06:11:11.000Z</time>
      </trkpt>
      <trkpt lat="42.68638224340975284576416015625" lon="-0.66970375366508960723876953125">
        <ele>901.20001220703125</ele>
        <time>2020-08-20T06:11:12.000Z</time>
      </trkpt>
      <trkpt lat="42.686127685010433197021484375" lon="-0.66991313360631465911865234375">
        <ele>900.20001220703125</ele>
        <time>2020-08-20T06:11:16.000Z</time>
      </trkpt>
      <trkpt lat="42.68588201142847537994384765625" lon="-0.67014615051448345184326171875">
        <ele>899.79998779296875</ele>
        <time>2020-08-20T06:11:20.000Z</time>
      </trkpt>
      <trkpt lat="42.68564195372164249420166015625" lon="-0.6704060733318328857421875">
        <ele>899.4000244140625</ele>
        <time>2020-08-20T06:11:24.000Z</time>
      </trkpt>
      <trkpt lat="42.68536233343183994293212890625" lon="-0.67076054401695728302001953125">
        <ele>898.20001220703125</ele>
        <time>2020-08-20T06:11:29.000Z</time>
      </trkpt>
      <trkpt lat="42.68509310670197010040283203125" lon="-0.67115717567503452301025390625">
        <ele>897.20001220703125</ele>
        <time>2020-08-20T06:11:34.000Z</time>
      </trkpt>
      <trkpt lat="42.68492127768695354461669921875" lon="-0.6714038550853729248046875">
        <ele>896.4000244140625</ele>
        <time>2020-08-20T06:11:37.000Z</time>
      </trkpt>
      <trkpt lat="42.6848635263741016387939453125" lon="-0.67148901522159576416015625">
        <ele>896</ele>
        <time>2020-08-20T06:11:38.000Z</time>
      </trkpt>
      <trkpt lat="42.68468700349330902099609375" lon="-0.67174642346799373626708984375">
        <ele>895</ele>
        <time>2020-08-20T06:11:41.000Z</time>
      </trkpt>
      <trkpt lat="42.68450872041285037994384765625" lon="-0.67200307734310626983642578125">
        <ele>894.20001220703125</ele>
        <time>2020-08-20T06:11:44.000Z</time>
      </trkpt>
      <trkpt lat="42.6842794753611087799072265625" lon="-0.672336928546428680419921875">
        <ele>893.79998779296875</ele>
        <time>2020-08-20T06:11:48.000Z</time>
      </trkpt>
      <trkpt lat="42.68390589393675327301025390625" lon="-0.67287429235875606536865234375">
        <ele>893.5999755859375</ele>
        <time>2020-08-20T06:11:55.000Z</time>
      </trkpt>
      <trkpt lat="42.683805562555789947509765625" lon="-0.67302055656909942626953125">
        <ele>893.4000244140625</ele>
        <time>2020-08-20T06:11:57.000Z</time>
      </trkpt>
      <trkpt lat="42.6835965178906917572021484375" lon="-0.67341643385589122772216796875">
        <ele>893.4000244140625</ele>
        <time>2020-08-20T06:12:02.000Z</time>
      </trkpt>
      <trkpt lat="42.68356173299252986907958984375" lon="-0.67350058816373348236083984375">
        <ele>893.20001220703125</ele>
        <time>2020-08-20T06:12:03.000Z</time>
      </trkpt>
      <trkpt lat="42.68328378908336162567138671875" lon="-0.674197040498256683349609375">
        <ele>892.4000244140625</ele>
        <time>2020-08-20T06:12:11.000Z</time>
      </trkpt>
      <trkpt lat="42.6832474954426288604736328125" lon="-0.67428748123347759246826171875">
        <ele>892.20001220703125</ele>
        <time>2020-08-20T06:12:12.000Z</time>
      </trkpt>
      <trkpt lat="42.68317348323762416839599609375" lon="-0.6744707934558391571044921875">
        <ele>891.5999755859375</ele>
        <time>2020-08-20T06:12:14.000Z</time>
      </trkpt>
      <trkpt lat="42.6830610819160938262939453125" lon="-0.67475100047886371612548828125">
        <ele>891.20001220703125</ele>
        <time>2020-08-20T06:12:17.000Z</time>
      </trkpt>
      <trkpt lat="42.68286905251443386077880859375" lon="-0.67523011006414890289306640625">
        <ele>890.20001220703125</ele>
        <time>2020-08-20T06:12:22.000Z</time>
      </trkpt>
      <trkpt lat="42.68274868838489055633544921875" lon="-0.67553588189184665679931640625">
        <ele>889.4000244140625</ele>
        <time>2020-08-20T06:12:25.000Z</time>
      </trkpt>
      <trkpt lat="42.68270677886903285980224609375" lon="-0.67564132623374462127685546875">
        <ele>889</ele>
        <time>2020-08-20T06:12:26.000Z</time>
      </trkpt>
      <trkpt lat="42.6825766079127788543701171875" lon="-0.6759654544293880462646484375">
        <ele>887.79998779296875</ele>
        <time>2020-08-20T06:12:29.000Z</time>
      </trkpt>
      <trkpt lat="42.68244073726236820220947265625" lon="-0.67630282603204250335693359375">
        <ele>886.5999755859375</ele>
        <time>2020-08-20T06:12:32.000Z</time>
      </trkpt>
      <trkpt lat="42.68234652467072010040283203125" lon="-0.67653693258762359619140625">
        <ele>885.79998779296875</ele>
        <time>2020-08-20T06:12:34.000Z</time>
      </trkpt>
      <trkpt lat="42.682299502193927764892578125" lon="-0.67665788345038890838623046875">
        <ele>885.4000244140625</ele>
        <time>2020-08-20T06:12:35.000Z</time>
      </trkpt>
      <trkpt lat="42.6821518130600452423095703125" lon="-0.67702710628509521484375">
        <ele>884</ele>
        <time>2020-08-20T06:12:38.000Z</time>
      </trkpt>
      <trkpt lat="42.68205332569777965545654296875" lon="-0.67727847956120967864990234375">
        <ele>883.20001220703125</ele>
        <time>2020-08-20T06:12:40.000Z</time>
      </trkpt>
      <trkpt lat="42.68195383250713348388671875" lon="-0.67752960138022899627685546875">
        <ele>882.5999755859375</ele>
        <time>2020-08-20T06:12:42.000Z</time>
      </trkpt>
      <trkpt lat="42.68190245144069194793701171875" lon="-0.67765281535685062408447265625">
        <ele>882.20001220703125</ele>
        <time>2020-08-20T06:12:43.000Z</time>
      </trkpt>
      <trkpt lat="42.68175400793552398681640625" lon="-0.67801977507770061492919921875">
        <ele>881.20001220703125</ele>
        <time>2020-08-20T06:12:46.000Z</time>
      </trkpt>
      <trkpt lat="42.681559883058071136474609375" lon="-0.6784941069781780242919921875">
        <ele>879.79998779296875</ele>
        <time>2020-08-20T06:12:50.000Z</time>
      </trkpt>
      <trkpt lat="42.68151286058127880096435546875" lon="-0.6786117888987064361572265625">
        <ele>879.4000244140625</ele>
        <time>2020-08-20T06:12:51.000Z</time>
      </trkpt>
      <trkpt lat="42.6814185641705989837646484375" lon="-0.678846649825572967529296875">
        <ele>878.5999755859375</ele>
        <time>2020-08-20T06:12:53.000Z</time>
      </trkpt>
      <trkpt lat="42.681276910006999969482421875" lon="-0.67920145578682422637939453125">
        <ele>877.5999755859375</ele>
        <time>2020-08-20T06:12:56.000Z</time>
      </trkpt>
      <trkpt lat="42.68113081343472003936767578125" lon="-0.67956338636577129364013671875">
        <ele>876.4000244140625</ele>
        <time>2020-08-20T06:12:59.000Z</time>
      </trkpt>
      <trkpt lat="42.68103039823472499847412109375" lon="-0.679805539548397064208984375">
        <ele>875.4000244140625</ele>
        <time>2020-08-20T06:13:01.000Z</time>
      </trkpt>
      <trkpt lat="42.6809327490627765655517578125" lon="-0.68004903383553028106689453125">
        <ele>874.79998779296875</ele>
        <time>2020-08-20T06:13:03.000Z</time>
      </trkpt>
      <trkpt lat="42.6808373630046844482421875" lon="-0.68028800189495086669921875">
        <ele>874.4000244140625</ele>
        <time>2020-08-20T06:13:05.000Z</time>
      </trkpt>
      <trkpt lat="42.6806185953319072723388671875" lon="-0.6808353401720523834228515625">
        <ele>873.79998779296875</ele>
        <time>2020-08-20T06:13:10.000Z</time>
      </trkpt>
      <trkpt lat="42.680370323359966278076171875" lon="-0.68137739785015583038330078125">
        <ele>874</ele>
        <time>2020-08-20T06:13:16.000Z</time>
      </trkpt>
      <trkpt lat="42.6800117455422878265380859375" lon="-0.68190864287316799163818359375">
        <ele>873.4000244140625</ele>
        <time>2020-08-20T06:13:23.000Z</time>
      </trkpt>
      <trkpt lat="42.67974528484046459197998046875" lon="-0.682184658944606781005859375">
        <ele>872</ele>
        <time>2020-08-20T06:13:27.000Z</time>
      </trkpt>
      <trkpt lat="42.67959709279239177703857421875" lon="-0.68232622928917407989501953125">
        <ele>871.20001220703125</ele>
        <time>2020-08-20T06:13:29.000Z</time>
      </trkpt>
      <trkpt lat="42.6795230805873870849609375" lon="-0.68240351043641567230224609375">
        <ele>870.5999755859375</ele>
        <time>2020-08-20T06:13:30.000Z</time>
      </trkpt>
      <trkpt lat="42.6794545166194438934326171875" lon="-0.68248816765844821929931640625">
        <ele>870</ele>
        <time>2020-08-20T06:13:31.000Z</time>
      </trkpt>
      <trkpt lat="42.6793921552598476409912109375" lon="-0.6825814582407474517822265625">
        <ele>869.4000244140625</ele>
        <time>2020-08-20T06:13:32.000Z</time>
      </trkpt>
      <trkpt lat="42.67933742143213748931884765625" lon="-0.6826813705265522003173828125">
        <ele>869</ele>
        <time>2020-08-20T06:13:33.000Z</time>
      </trkpt>
      <trkpt lat="42.679254524409770965576171875" lon="-0.68289376795291900634765625">
        <ele>868.4000244140625</ele>
        <time>2020-08-20T06:13:35.000Z</time>
      </trkpt>
      <trkpt lat="42.6792204938828945159912109375" lon="-0.6830035708844661712646484375">
        <ele>868.20001220703125</ele>
        <time>2020-08-20T06:13:36.000Z</time>
      </trkpt>
      <trkpt lat="42.67918713390827178955078125" lon="-0.68310943432152271270751953125">
        <ele>868.20001220703125</ele>
        <time>2020-08-20T06:13:37.000Z</time>
      </trkpt>
      <trkpt lat="42.6789774186909198760986328125" lon="-0.68357680924236774444580078125">
        <ele>868.5999755859375</ele>
        <time>2020-08-20T06:13:42.000Z</time>
      </trkpt>
      <trkpt lat="42.67871280200779438018798828125" lon="-0.68402540870010852813720703125">
        <ele>868.20001220703125</ele>
        <time>2020-08-20T06:13:48.000Z</time>
      </trkpt>
      <trkpt lat="42.6784322597086429595947265625" lon="-0.68449077196419239044189453125">
        <ele>867.79998779296875</ele>
        <time>2020-08-20T06:13:55.000Z</time>
      </trkpt>
      <trkpt lat="42.67822447232902050018310546875" lon="-0.68488706834614276885986328125">
        <ele>867.79998779296875</ele>
        <time>2020-08-20T06:14:02.000Z</time>
      </trkpt>
      <trkpt lat="42.6780989952385425567626953125" lon="-0.6853273697197437286376953125">
        <ele>867.79998779296875</ele>
        <time>2020-08-20T06:14:10.000Z</time>
      </trkpt>
      <trkpt lat="42.6779769547283649444580078125" lon="-0.68581259809434413909912109375">
        <ele>868.5999755859375</ele>
        <time>2020-08-20T06:14:19.000Z</time>
      </trkpt>
      <trkpt lat="42.67780588008463382720947265625" lon="-0.68646102212369441986083984375">
        <ele>868.5999755859375</ele>
        <time>2020-08-20T06:14:31.000Z</time>
      </trkpt>
      <trkpt lat="42.67766942270100116729736328125" lon="-0.68688464350998401641845703125">
        <ele>869</ele>
        <time>2020-08-20T06:14:39.000Z</time>
      </trkpt>
      <trkpt lat="42.677488625049591064453125" lon="-0.68734816275537014007568359375">
        <ele>868.4000244140625</ele>
        <time>2020-08-20T06:14:47.000Z</time>
      </trkpt>
      <trkpt lat="42.6774629764258861541748046875" lon="-0.6874181516468524932861328125">
        <ele>868</ele>
        <time>2020-08-20T06:14:48.000Z</time>
      </trkpt>
      <trkpt lat="42.6773553527891635894775390625" lon="-0.6877380050718784332275390625">
        <ele>867.20001220703125</ele>
        <time>2020-08-20T06:14:52.000Z</time>
      </trkpt>
      <trkpt lat="42.677329368889331817626953125" lon="-0.68782710470259189605712890625">
        <ele>866.5999755859375</ele>
        <time>2020-08-20T06:14:53.000Z</time>
      </trkpt>
      <trkpt lat="42.67727882601320743560791015625" lon="-0.68801435641944408416748046875">
        <ele>865.79998779296875</ele>
        <time>2020-08-20T06:14:55.000Z</time>
      </trkpt>
      <trkpt lat="42.6772098429501056671142578125" lon="-0.68831090815365314483642578125">
        <ele>864.79998779296875</ele>
        <time>2020-08-20T06:14:58.000Z</time>
      </trkpt>
      <trkpt lat="42.67714488320052623748779296875" lon="-0.68861718289554119110107421875">
        <ele>863.5999755859375</ele>
        <time>2020-08-20T06:15:01.000Z</time>
      </trkpt>
      <trkpt lat="42.67705938778817653656005859375" lon="-0.68903057835996150970458984375">
        <ele>862.5999755859375</ele>
        <time>2020-08-20T06:15:05.000Z</time>
      </trkpt>
      <trkpt lat="42.67697406001389026641845703125" lon="-0.68944430910050868988037109375">
        <ele>861.4000244140625</ele>
        <time>2020-08-20T06:15:09.000Z</time>
      </trkpt>
      <trkpt lat="42.6769312284886837005615234375" lon="-0.6896509230136871337890625">
        <ele>860.5999755859375</ele>
        <time>2020-08-20T06:15:11.000Z</time>
      </trkpt>
      <trkpt lat="42.67688873223960399627685546875" lon="-0.68985569290816783905029296875">
        <ele>860</ele>
        <time>2020-08-20T06:15:13.000Z</time>
      </trkpt>
      <trkpt lat="42.67680323682725429534912109375" lon="-0.69028333760797977447509765625">
        <ele>858.5999755859375</ele>
        <time>2020-08-20T06:15:17.000Z</time>
      </trkpt>
      <trkpt lat="42.67673869617283344268798828125" lon="-0.6906156800687313079833984375">
        <ele>857.4000244140625</ele>
        <time>2020-08-20T06:15:20.000Z</time>
      </trkpt>
      <trkpt lat="42.67669443972408771514892578125" lon="-0.69084157235920429229736328125">
        <ele>856.79998779296875</ele>
        <time>2020-08-20T06:15:22.000Z</time>
      </trkpt>
      <trkpt lat="42.67667398788034915924072265625" lon="-0.690956823527812957763671875">
        <ele>856.4000244140625</ele>
        <time>2020-08-20T06:15:23.000Z</time>
      </trkpt>
      <trkpt lat="42.676636688411235809326171875" lon="-0.691192187368869781494140625">
        <ele>855.20001220703125</ele>
        <time>2020-08-20T06:15:25.000Z</time>
      </trkpt>
      <trkpt lat="42.67660575918853282928466796875" lon="-0.6915598176419734954833984375">
        <ele>854</ele>
        <time>2020-08-20T06:15:28.000Z</time>
      </trkpt>
      <trkpt lat="42.6766009815037250518798828125" lon="-0.6916852109134197235107421875">
        <ele>853.5999755859375</ele>
        <time>2020-08-20T06:15:29.000Z</time>
      </trkpt>
      <trkpt lat="42.6765996403992176055908203125" lon="-0.6918112747371196746826171875">
        <ele>853</ele>
        <time>2020-08-20T06:15:30.000Z</time>
      </trkpt>
      <trkpt lat="42.6766076870262622833251953125" lon="-0.6921924836933612823486328125">
        <ele>851.4000244140625</ele>
        <time>2020-08-20T06:15:33.000Z</time>
      </trkpt>
      <trkpt lat="42.67662168480455875396728515625" lon="-0.69256774149835109710693359375">
        <ele>850.20001220703125</ele>
        <time>2020-08-20T06:15:36.000Z</time>
      </trkpt>
      <trkpt lat="42.676630653440952301025390625" lon="-0.69305263459682464599609375">
        <ele>849.20001220703125</ele>
        <time>2020-08-20T06:15:40.000Z</time>
      </trkpt>
      <trkpt lat="42.6766147278249263763427734375" lon="-0.693507604300975799560546875">
        <ele>848.20001220703125</ele>
        <time>2020-08-20T06:15:44.000Z</time>
      </trkpt>
      <trkpt lat="42.67660626210272312164306640625" lon="-0.69361723959445953369140625">
        <ele>848</ele>
        <time>2020-08-20T06:15:45.000Z</time>
      </trkpt>
      <trkpt lat="42.67653266899287700653076171875" lon="-0.6942537613213062286376953125">
        <ele>846.79998779296875</ele>
        <time>2020-08-20T06:15:51.000Z</time>
      </trkpt>
      <trkpt lat="42.67651892267167568206787109375" lon="-0.6943587027490139007568359375">
        <ele>846.5999755859375</ele>
        <time>2020-08-20T06:15:52.000Z</time>
      </trkpt>
      <trkpt lat="42.67646091990172863006591796875" lon="-0.694785676896572113037109375">
        <ele>845.5999755859375</ele>
        <time>2020-08-20T06:15:56.000Z</time>
      </trkpt>
      <trkpt lat="42.67645840533077716827392578125" lon="-0.69500570185482501983642578125">
        <ele>845.20001220703125</ele>
        <time>2020-08-20T06:15:58.000Z</time>
      </trkpt>
      <trkpt lat="42.67647651024162769317626953125" lon="-0.69522346369922161102294921875">
        <ele>844.79998779296875</ele>
        <time>2020-08-20T06:16:00.000Z</time>
      </trkpt>
      <trkpt lat="42.67651121132075786590576171875" lon="-0.6957638449966907501220703125">
        <ele>843.4000244140625</ele>
        <time>2020-08-20T06:16:05.000Z</time>
      </trkpt>
      <trkpt lat="42.6765297353267669677734375" lon="-0.69630422629415988922119140625">
        <ele>842.20001220703125</ele>
        <time>2020-08-20T06:16:10.000Z</time>
      </trkpt>
      <trkpt lat="42.67654038034379482269287109375" lon="-0.6966315396130084991455078125">
        <ele>841.20001220703125</ele>
        <time>2020-08-20T06:16:13.000Z</time>
      </trkpt>
      <trkpt lat="42.6765443198382854461669921875" lon="-0.69685324095189571380615234375">
        <ele>841</ele>
        <time>2020-08-20T06:16:15.000Z</time>
      </trkpt>
      <trkpt lat="42.676546163856983184814453125" lon="-0.69707720540463924407958984375">
        <ele>840.4000244140625</ele>
        <time>2020-08-20T06:16:17.000Z</time>
      </trkpt>
      <trkpt lat="42.67655798234045505523681640625" lon="-0.69752463139593601226806640625">
        <ele>839.20001220703125</ele>
        <time>2020-08-20T06:16:21.000Z</time>
      </trkpt>
      <trkpt lat="42.6765684597194194793701171875" lon="-0.698080100119113922119140625">
        <ele>838</ele>
        <time>2020-08-20T06:16:26.000Z</time>
      </trkpt>
      <trkpt lat="42.6765929348766803741455078125" lon="-0.69852626882493495941162109375">
        <ele>836.79998779296875</ele>
        <time>2020-08-20T06:16:30.000Z</time>
      </trkpt>
      <trkpt lat="42.67664314247667789459228515625" lon="-0.69907545112073421478271484375">
        <ele>835.5999755859375</ele>
        <time>2020-08-20T06:16:35.000Z</time>
      </trkpt>
      <trkpt lat="42.67671740613877773284912109375" lon="-0.69970585405826568603515625">
        <ele>834.5999755859375</ele>
        <time>2020-08-20T06:16:41.000Z</time>
      </trkpt>
      <trkpt lat="42.67679301090538501739501953125" lon="-0.70046718232333660125732421875">
        <ele>834</ele>
        <time>2020-08-20T06:16:49.000Z</time>
      </trkpt>
      <trkpt lat="42.67680273391306400299072265625" lon="-0.70072048343718051910400390625">
        <ele>833.5999755859375</ele>
        <time>2020-08-20T06:16:52.000Z</time>
      </trkpt>
      <trkpt lat="42.676783539354801177978515625" lon="-0.70096112787723541259765625">
        <ele>833.5999755859375</ele>
        <time>2020-08-20T06:16:55.000Z</time>
      </trkpt>
      <trkpt lat="42.67676937393844127655029296875" lon="-0.70103832520544528961181640625">
        <ele>833.5999755859375</ele>
        <time>2020-08-20T06:16:56.000Z</time>
      </trkpt>
      <trkpt lat="42.67669536173343658447265625" lon="-0.7013116590678691864013671875">
        <ele>833.20001220703125</ele>
        <time>2020-08-20T06:17:00.000Z</time>
      </trkpt>
      <trkpt lat="42.67656066454946994781494140625" lon="-0.7016355358064174652099609375">
        <ele>833</ele>
        <time>2020-08-20T06:17:06.000Z</time>
      </trkpt>
      <trkpt lat="42.6764799468219280242919921875" lon="-0.70177056826651096343994140625">
        <ele>832.79998779296875</ele>
        <time>2020-08-20T06:17:10.000Z</time>
      </trkpt>
      <trkpt lat="42.67646393738687038421630859375" lon="-0.70179806090891361236572265625">
        <ele>832.79998779296875</ele>
        <time>2020-08-20T06:17:11.000Z</time>
      </trkpt>
      <trkpt lat="42.6763981394469738006591796875" lon="-0.70190794765949249267578125">
        <ele>832.79998779296875</ele>
        <time>2020-08-20T06:17:17.000Z</time>
      </trkpt>
      <trkpt lat="42.67635765485465526580810546875" lon="-0.701974332332611083984375">
        <ele>832.5999755859375</ele>
        <time>2020-08-20T06:17:24.000Z</time>
      </trkpt>
      <trkpt lat="42.67628020606935024261474609375" lon="-0.70206862874329090118408203125">
        <ele>832.5999755859375</ele>
        <time>2020-08-20T06:17:34.000Z</time>
      </trkpt>
      <trkpt lat="42.67615850083529949188232421875" lon="-0.70219771005213260650634765625">
        <ele>832.4000244140625</ele>
        <time>2020-08-20T06:17:40.000Z</time>
      </trkpt>
      <trkpt lat="42.67601064406335353851318359375" lon="-0.70233534090220928192138671875">
        <ele>832.20001220703125</ele>
        <time>2020-08-20T06:17:45.000Z</time>
      </trkpt>
      <trkpt lat="42.67597652971744537353515625" lon="-0.702360235154628753662109375">
        <ele>832.20001220703125</ele>
        <time>2020-08-20T06:17:46.000Z</time>
      </trkpt>
      <trkpt lat="42.67579640261828899383544921875" lon="-0.70249007083475589752197265625">
        <ele>831.5999755859375</ele>
        <time>2020-08-20T06:17:51.000Z</time>
      </trkpt>
      <trkpt lat="42.6757586002349853515625" lon="-0.70251538418233394622802734375">
        <ele>831.5999755859375</ele>
        <time>2020-08-20T06:17:52.000Z</time>
      </trkpt>
      <trkpt lat="42.67558936960995197296142578125" lon="-0.70267765782773494720458984375">
        <ele>831.4000244140625</ele>
        <time>2020-08-20T06:17:58.000Z</time>
      </trkpt>
      <trkpt lat="42.67555416561663150787353515625" lon="-0.7027563638985157012939453125">
        <ele>831.4000244140625</ele>
        <time>2020-08-20T06:18:00.000Z</time>
      </trkpt>
      <trkpt lat="42.67550253309309482574462890625" lon="-0.7029997743666172027587890625">
        <ele>831.4000244140625</ele>
        <time>2020-08-20T06:18:05.000Z</time>
      </trkpt>
      <trkpt lat="42.67550303600728511810302734375" lon="-0.70338291116058826446533203125">
        <ele>830.4000244140625</ele>
        <time>2020-08-20T06:18:11.000Z</time>
      </trkpt>
      <trkpt lat="42.67550756223499774932861328125" lon="-0.70345281623303890228271484375">
        <ele>830.20001220703125</ele>
        <time>2020-08-20T06:18:12.000Z</time>
      </trkpt>
      <trkpt lat="42.6755297742784023284912109375" lon="-0.70384911261498928070068359375">
        <ele>829.20001220703125</ele>
        <time>2020-08-20T06:18:17.000Z</time>
      </trkpt>
      <trkpt lat="42.67556489445269107818603515625" lon="-0.70421523414552211761474609375">
        <ele>827.79998779296875</ele>
        <time>2020-08-20T06:18:21.000Z</time>
      </trkpt>
      <trkpt lat="42.6755924709141254425048828125" lon="-0.7045122049748897552490234375">
        <ele>827</ele>
        <time>2020-08-20T06:18:24.000Z</time>
      </trkpt>
      <trkpt lat="42.67560076899826526641845703125" lon="-0.70461605675518512725830078125">
        <ele>826.5999755859375</ele>
        <time>2020-08-20T06:18:25.000Z</time>
      </trkpt>
      <trkpt lat="42.67563262023031711578369140625" lon="-0.70502735674381256103515625">
        <ele>825.4000244140625</ele>
        <time>2020-08-20T06:18:29.000Z</time>
      </trkpt>
      <trkpt lat="42.67566061578691005706787109375" lon="-0.7053145207464694976806640625">
        <ele>825</ele>
        <time>2020-08-20T06:18:32.000Z</time>
      </trkpt>
      <trkpt lat="42.67572306096553802490234375" lon="-0.70587937720119953155517578125">
        <ele>824.79998779296875</ele>
        <time>2020-08-20T06:18:39.000Z</time>
      </trkpt>
      <trkpt lat="42.67577695660293102264404296875" lon="-0.70624197833240032196044921875">
        <ele>825.20001220703125</ele>
        <time>2020-08-20T06:18:45.000Z</time>
      </trkpt>
      <trkpt lat="42.67583437263965606689453125" lon="-0.70680172182619571685791015625">
        <ele>825.79998779296875</ele>
        <time>2020-08-20T06:18:55.000Z</time>
      </trkpt>
      <trkpt lat="42.6757835783064365386962890625" lon="-0.7072416879236698150634765625">
        <ele>825.5999755859375</ele>
        <time>2020-08-20T06:19:02.000Z</time>
      </trkpt>
      <trkpt lat="42.67565240152180194854736328125" lon="-0.70761392824351787567138671875">
        <ele>824.5999755859375</ele>
        <time>2020-08-20T06:19:07.000Z</time>
      </trkpt>
      <trkpt lat="42.67559641040861606597900390625" lon="-0.7077692449092864990234375">
        <ele>824.4000244140625</ele>
        <time>2020-08-20T06:19:09.000Z</time>
      </trkpt>
      <trkpt lat="42.67551979981362819671630859375" lon="-0.70802204310894012451171875">
        <ele>823.5999755859375</ele>
        <time>2020-08-20T06:19:12.000Z</time>
      </trkpt>
      <trkpt lat="42.67547101713716983795166015625" lon="-0.708297304809093475341796875">
        <ele>822.79998779296875</ele>
        <time>2020-08-20T06:19:15.000Z</time>
      </trkpt>
      <trkpt lat="42.67545861192047595977783203125" lon="-0.7083920203149318695068359375">
        <ele>822.5999755859375</ele>
        <time>2020-08-20T06:19:16.000Z</time>
      </trkpt>
      <trkpt lat="42.67541368491947650909423828125" lon="-0.7087926752865314483642578125">
        <ele>821.4000244140625</ele>
        <time>2020-08-20T06:19:20.000Z</time>
      </trkpt>
      <trkpt lat="42.67539809457957744598388671875" lon="-0.70889568887650966644287109375">
        <ele>821</ele>
        <time>2020-08-20T06:19:21.000Z</time>
      </trkpt>
      <trkpt lat="42.6753644831478595733642578125" lon="-0.70910221897065639495849609375">
        <ele>820.4000244140625</ele>
        <time>2020-08-20T06:19:23.000Z</time>
      </trkpt>
      <trkpt lat="42.6753007806837558746337890625" lon="-0.7094018720090389251708984375">
        <ele>819.20001220703125</ele>
        <time>2020-08-20T06:19:26.000Z</time>
      </trkpt>
      <trkpt lat="42.6752726174890995025634765625" lon="-0.70949331857264041900634765625">
        <ele>819.20001220703125</ele>
        <time>2020-08-20T06:19:27.000Z</time>
      </trkpt>
      <trkpt lat="42.6752414368093013763427734375" lon="-0.70957646705210208892822265625">
        <ele>819</ele>
        <time>2020-08-20T06:19:28.000Z</time>
      </trkpt>
      <trkpt lat="42.67508511431515216827392578125" lon="-0.70990470238029956817626953125">
        <ele>819.20001220703125</ele>
        <time>2020-08-20T06:19:33.000Z</time>
      </trkpt>
      <trkpt lat="42.6749678514897823333740234375" lon="-0.710115842521190643310546875">
        <ele>819.79998779296875</ele>
        <time>2020-08-20T06:19:37.000Z</time>
      </trkpt>
      <trkpt lat="42.67492284066975116729736328125" lon="-0.71019999682903289794921875">
        <ele>819.79998779296875</ele>
        <time>2020-08-20T06:19:39.000Z</time>
      </trkpt>
      <trkpt lat="42.6748334057629108428955078125" lon="-0.710317008197307586669921875">
        <ele>820.20001220703125</ele>
        <time>2020-08-20T06:19:42.000Z</time>
      </trkpt>
      <trkpt lat="42.67475805245339870452880859375" lon="-0.710391439497470855712890625">
        <ele>820.4000244140625</ele>
        <time>2020-08-20T06:19:44.000Z</time>
      </trkpt>
      <trkpt lat="42.67450475133955478668212890625" lon="-0.7106038369238376617431640625">
        <ele>820</ele>
        <time>2020-08-20T06:19:50.000Z</time>
      </trkpt>
      <trkpt lat="42.67437013797461986541748046875" lon="-0.7107151485979557037353515625">
        <ele>819.5999755859375</ele>
        <time>2020-08-20T06:19:53.000Z</time>
      </trkpt>
      <trkpt lat="42.67428950406610965728759765625" lon="-0.710824616253376007080078125">
        <ele>819.20001220703125</ele>
        <time>2020-08-20T06:19:55.000Z</time>
      </trkpt>
      <trkpt lat="42.6742463372647762298583984375" lon="-0.7109655998647212982177734375">
        <ele>818.4000244140625</ele>
        <time>2020-08-20T06:19:57.000Z</time>
      </trkpt>
      <trkpt lat="42.67424491234123706817626953125" lon="-0.71104380302131175994873046875">
        <ele>818</ele>
        <time>2020-08-20T06:19:58.000Z</time>
      </trkpt>
      <trkpt lat="42.6742659509181976318359375" lon="-0.71120046079158782958984375">
        <ele>817.5999755859375</ele>
        <time>2020-08-20T06:20:00.000Z</time>
      </trkpt>
      <trkpt lat="42.674296461045742034912109375" lon="-0.71135343052446842193603515625">
        <ele>817.4000244140625</ele>
        <time>2020-08-20T06:20:02.000Z</time>
      </trkpt>
      <trkpt lat="42.67432772554457187652587890625" lon="-0.71149894036352634429931640625">
        <ele>817.20001220703125</ele>
        <time>2020-08-20T06:20:04.000Z</time>
      </trkpt>
      <trkpt lat="42.67437617294490337371826171875" lon="-0.71169557981193065643310546875">
        <ele>817.20001220703125</ele>
        <time>2020-08-20T06:20:07.000Z</time>
      </trkpt>
      <trkpt lat="42.6744361035525798797607421875" lon="-0.71187880821526050567626953125">
        <ele>817.4000244140625</ele>
        <time>2020-08-20T06:20:10.000Z</time>
      </trkpt>
      <trkpt lat="42.6744840480387210845947265625" lon="-0.7119955681264400482177734375">
        <ele>817.4000244140625</ele>
        <time>2020-08-20T06:20:12.000Z</time>
      </trkpt>
      <trkpt lat="42.67459209077060222625732421875" lon="-0.71227024309337139129638671875">
        <ele>817.5999755859375</ele>
        <time>2020-08-20T06:20:17.000Z</time>
      </trkpt>
      <trkpt lat="42.67461254261434078216552734375" lon="-0.71232170797884464263916015625">
        <ele>817.5999755859375</ele>
        <time>2020-08-20T06:20:18.000Z</time>
      </trkpt>
      <trkpt lat="42.67470088787376880645751953125" lon="-0.712509714066982269287109375">
        <ele>818</ele>
        <time>2020-08-20T06:20:22.000Z</time>
      </trkpt>
      <trkpt lat="42.6747210882604122161865234375" lon="-0.71255807764828205108642578125">
        <ele>818.20001220703125</ele>
        <time>2020-08-20T06:20:23.000Z</time>
      </trkpt>
      <trkpt lat="42.6747831143438816070556640625" lon="-0.7127532921731472015380859375">
        <ele>818.5999755859375</ele>
        <time>2020-08-20T06:20:27.000Z</time>
      </trkpt>
      <trkpt lat="42.67480515874922275543212890625" lon="-0.712857730686664581298828125">
        <ele>818.5999755859375</ele>
        <time>2020-08-20T06:20:29.000Z</time>
      </trkpt>
      <trkpt lat="42.67482929863035678863525390625" lon="-0.71301363408565521240234375">
        <ele>819</ele>
        <time>2020-08-20T06:20:32.000Z</time>
      </trkpt>
      <trkpt lat="42.674865759909152984619140625" lon="-0.7132082618772983551025390625">
        <ele>819.4000244140625</ele>
        <time>2020-08-20T06:20:36.000Z</time>
      </trkpt>
      <trkpt lat="42.67498813569545745849609375" lon="-0.71343851275742053985595703125">
        <ele>819.4000244140625</ele>
        <time>2020-08-20T06:20:41.000Z</time>
      </trkpt>
      <trkpt lat="42.6750278659164905548095703125" lon="-0.7134828530251979827880859375">
        <ele>819.20001220703125</ele>
        <time>2020-08-20T06:20:42.000Z</time>
      </trkpt>
      <trkpt lat="42.6752994395792484283447265625" lon="-0.71374897845089435577392578125">
        <ele>817.5999755859375</ele>
        <time>2020-08-20T06:20:48.000Z</time>
      </trkpt>
      <trkpt lat="42.6753993518650531768798828125" lon="-0.713847465813159942626953125">
        <ele>816.79998779296875</ele>
        <time>2020-08-20T06:20:50.000Z</time>
      </trkpt>
      <trkpt lat="42.675445117056369781494140625" lon="-0.71391041390597820281982421875">
        <ele>816.4000244140625</ele>
        <time>2020-08-20T06:20:51.000Z</time>
      </trkpt>
      <trkpt lat="42.675528936088085174560546875" lon="-0.7140578515827655792236328125">
        <ele>815.79998779296875</ele>
        <time>2020-08-20T06:20:53.000Z</time>
      </trkpt>
      <trkpt lat="42.67556673847138881683349609375" lon="-0.7141386531293392181396484375">
        <ele>815.4000244140625</ele>
        <time>2020-08-20T06:20:54.000Z</time>
      </trkpt>
      <trkpt lat="42.67569355666637420654296875" lon="-0.71439555846154689788818359375">
        <ele>814</ele>
        <time>2020-08-20T06:20:57.000Z</time>
      </trkpt>
      <trkpt lat="42.67574309371411800384521484375" lon="-0.71447786875069141387939453125">
        <ele>813.20001220703125</ele>
        <time>2020-08-20T06:20:58.000Z</time>
      </trkpt>
      <trkpt lat="42.6758030243217945098876953125" lon="-0.71454651653766632080078125">
        <ele>812.79998779296875</ele>
        <time>2020-08-20T06:20:59.000Z</time>
      </trkpt>
      <trkpt lat="42.6760149188339710235595703125" lon="-0.71470166556537151336669921875">
        <ele>811.4000244140625</ele>
        <time>2020-08-20T06:21:02.000Z</time>
      </trkpt>
      <trkpt lat="42.6760802976787090301513671875" lon="-0.71475681848824024200439453125">
        <ele>811</ele>
        <time>2020-08-20T06:21:03.000Z</time>
      </trkpt>
      <trkpt lat="42.67616990022361278533935546875" lon="-0.7149081118404865264892578125">
        <ele>810.20001220703125</ele>
        <time>2020-08-20T06:21:05.000Z</time>
      </trkpt>
      <trkpt lat="42.676191441714763641357421875" lon="-0.71499654091894626617431640625">
        <ele>810</ele>
        <time>2020-08-20T06:21:06.000Z</time>
      </trkpt>
      <trkpt lat="42.67622220329940319061279296875" lon="-0.7152658514678478240966796875">
        <ele>809.4000244140625</ele>
        <time>2020-08-20T06:21:09.000Z</time>
      </trkpt>
      <trkpt lat="42.67623192630708217620849609375" lon="-0.71535260416567325592041015625">
        <ele>809.4000244140625</ele>
        <time>2020-08-20T06:21:10.000Z</time>
      </trkpt>
      <trkpt lat="42.676241733133792877197265625" lon="-0.7154385186731815338134765625">
        <ele>809.20001220703125</ele>
        <time>2020-08-20T06:21:11.000Z</time>
      </trkpt>
      <trkpt lat="42.67627752386033535003662109375" lon="-0.71603338234126567840576171875">
        <ele>808.79998779296875</ele>
        <time>2020-08-20T06:21:18.000Z</time>
      </trkpt>
      <trkpt lat="42.6762814633548259735107421875" lon="-0.71655037812888622283935546875">
        <ele>809.20001220703125</ele>
        <time>2020-08-20T06:21:26.000Z</time>
      </trkpt>
      <trkpt lat="42.676327228546142578125" lon="-0.71696586906909942626953125">
        <ele>809.79998779296875</ele>
        <time>2020-08-20T06:21:33.000Z</time>
      </trkpt>
      <trkpt lat="42.6764232851564884185791015625" lon="-0.71759509854018688201904296875">
        <ele>810.4000244140625</ele>
        <time>2020-08-20T06:21:43.000Z</time>
      </trkpt>
      <trkpt lat="42.676575668156147003173828125" lon="-0.7181869447231292724609375">
        <ele>810.5999755859375</ele>
        <time>2020-08-20T06:21:53.000Z</time>
      </trkpt>
      <trkpt lat="42.67665990628302097320556640625" lon="-0.718534626066684722900390625">
        <ele>810.79998779296875</ele>
        <time>2020-08-20T06:21:59.000Z</time>
      </trkpt>
      <trkpt lat="42.6767072640359401702880859375" lon="-0.71878080256283283233642578125">
        <ele>810.79998779296875</ele>
        <time>2020-08-20T06:22:03.000Z</time>
      </trkpt>
      <trkpt lat="42.67678546719253063201904296875" lon="-0.719374828040599822998046875">
        <ele>810.5999755859375</ele>
        <time>2020-08-20T06:22:12.000Z</time>
      </trkpt>
      <trkpt lat="42.6768403686583042144775390625" lon="-0.71988285519182682037353515625">
        <ele>810.20001220703125</ele>
        <time>2020-08-20T06:22:20.000Z</time>
      </trkpt>
      <trkpt lat="42.676885463297367095947265625" lon="-0.7203268446028232574462890625">
        <ele>810</ele>
        <time>2020-08-20T06:22:27.000Z</time>
      </trkpt>
      <trkpt lat="42.67690750770270824432373046875" lon="-0.72052373550832271575927734375">
        <ele>809.5999755859375</ele>
        <time>2020-08-20T06:22:30.000Z</time>
      </trkpt>
      <trkpt lat="42.67693667672574520111083984375" lon="-0.721138380467891693115234375">
        <ele>809.4000244140625</ele>
        <time>2020-08-20T06:22:39.000Z</time>
      </trkpt>
      <trkpt lat="42.67691169865429401397705078125" lon="-0.721498467028141021728515625">
        <ele>809</ele>
        <time>2020-08-20T06:22:44.000Z</time>
      </trkpt>
      <trkpt lat="42.6768765784800052642822265625" lon="-0.72179812006652355194091796875">
        <ele>808.4000244140625</ele>
        <time>2020-08-20T06:22:48.000Z</time>
      </trkpt>
      <trkpt lat="42.67684296704828739166259765625" lon="-0.7220278680324554443359375">
        <ele>807.79998779296875</ele>
        <time>2020-08-20T06:22:51.000Z</time>
      </trkpt>
      <trkpt lat="42.6767629198729991912841796875" lon="-0.72263144887983798980712890625">
        <ele>806.79998779296875</ele>
        <time>2020-08-20T06:22:59.000Z</time>
      </trkpt>
      <trkpt lat="42.67674498260021209716796875" lon="-0.7227736897766590118408203125">
        <ele>806.79998779296875</ele>
        <time>2020-08-20T06:23:01.000Z</time>
      </trkpt>
      <trkpt lat="42.676689326763153076171875" lon="-0.7231652922928333282470703125">
        <ele>806.5999755859375</ele>
        <time>2020-08-20T06:23:07.000Z</time>
      </trkpt>
      <trkpt lat="42.67656217329204082489013671875" lon="-0.72382587008178234100341796875">
        <ele>805.79998779296875</ele>
        <time>2020-08-20T06:23:17.000Z</time>
      </trkpt>
      <trkpt lat="42.676465697586536407470703125" lon="-0.7242438755929470062255859375">
        <ele>804.5999755859375</ele>
        <time>2020-08-20T06:23:22.000Z</time>
      </trkpt>
      <trkpt lat="42.6764383725821971893310546875" lon="-0.7243390940129756927490234375">
        <ele>804.20001220703125</ele>
        <time>2020-08-20T06:23:23.000Z</time>
      </trkpt>
      <trkpt lat="42.67637659795582294464111328125" lon="-0.72454176843166351318359375">
        <ele>803.20001220703125</ele>
        <time>2020-08-20T06:23:25.000Z</time>
      </trkpt>
      <trkpt lat="42.676306776702404022216796875" lon="-0.72475726716220378875732421875">
        <ele>802.20001220703125</ele>
        <time>2020-08-20T06:23:27.000Z</time>
      </trkpt>
      <trkpt lat="42.67623293213546276092529296875" lon="-0.72497854940593242645263671875">
        <ele>801</ele>
        <time>2020-08-20T06:23:29.000Z</time>
      </trkpt>
      <trkpt lat="42.67615648917853832244873046875" lon="-0.72519865818321704864501953125">
        <ele>800.20001220703125</ele>
        <time>2020-08-20T06:23:31.000Z</time>
      </trkpt>
      <trkpt lat="42.67597108148038387298583984375" lon="-0.72573057375848293304443359375">
        <ele>799</ele>
        <time>2020-08-20T06:23:36.000Z</time>
      </trkpt>
      <trkpt lat="42.6759101450443267822265625" lon="-0.72594565339386463165283203125">
        <ele>798.4000244140625</ele>
        <time>2020-08-20T06:23:38.000Z</time>
      </trkpt>
      <trkpt lat="42.6758536510169506072998046875" lon="-0.72616576217114925384521484375">
        <ele>798</ele>
        <time>2020-08-20T06:23:40.000Z</time>
      </trkpt>
      <trkpt lat="42.67576706595718860626220703125" lon="-0.72649776935577392578125">
        <ele>796.79998779296875</ele>
        <time>2020-08-20T06:23:43.000Z</time>
      </trkpt>
      <trkpt lat="42.6756558381021022796630859375" lon="-0.72692918591201305389404296875">
        <ele>796</ele>
        <time>2020-08-20T06:23:47.000Z</time>
      </trkpt>
      <trkpt lat="42.67560345120728015899658203125" lon="-0.72713546454906463623046875">
        <ele>795.5999755859375</ele>
        <time>2020-08-20T06:23:49.000Z</time>
      </trkpt>
      <trkpt lat="42.6754281856119632720947265625" lon="-0.72783510200679302215576171875">
        <ele>794.5999755859375</ele>
        <time>2020-08-20T06:23:56.000Z</time>
      </trkpt>
      <trkpt lat="42.67529767937958240509033203125" lon="-0.72833818383514881134033203125">
        <ele>793.4000244140625</ele>
        <time>2020-08-20T06:24:01.000Z</time>
      </trkpt>
      <trkpt lat="42.6751861162483692169189453125" lon="-0.728743113577365875244140625">
        <ele>792.4000244140625</ele>
        <time>2020-08-20T06:24:05.000Z</time>
      </trkpt>
      <trkpt lat="42.67513389699161052703857421875" lon="-0.7289484702050685882568359375">
        <ele>791.79998779296875</ele>
        <time>2020-08-20T06:24:07.000Z</time>
      </trkpt>
      <trkpt lat="42.6750489883124828338623046875" lon="-0.72925432585179805755615234375">
        <ele>791.20001220703125</ele>
        <time>2020-08-20T06:24:10.000Z</time>
      </trkpt>
      <trkpt lat="42.6749641634523868560791015625" lon="-0.72955942712724208831787109375">
        <ele>790</ele>
        <time>2020-08-20T06:24:13.000Z</time>
      </trkpt>
      <trkpt lat="42.6748595573008060455322265625" lon="-0.72995404712855815887451171875">
        <ele>789.79998779296875</ele>
        <time>2020-08-20T06:24:17.000Z</time>
      </trkpt>
      <trkpt lat="42.67476911656558513641357421875" lon="-0.73033726774156093597412109375">
        <ele>789.20001220703125</ele>
        <time>2020-08-20T06:24:21.000Z</time>
      </trkpt>
      <trkpt lat="42.674664594233036041259765625" lon="-0.730829536914825439453125">
        <ele>788.5999755859375</ele>
        <time>2020-08-20T06:24:26.000Z</time>
      </trkpt>
      <trkpt lat="42.67465461976826190948486328125" lon="-0.73103916831314563751220703125">
        <ele>788</ele>
        <time>2020-08-20T06:24:28.000Z</time>
      </trkpt>
      <trkpt lat="42.67465897835791110992431640625" lon="-0.73121401481330394744873046875">
        <ele>787.20001220703125</ele>
        <time>2020-08-20T06:24:30.000Z</time>
      </trkpt>
      <trkpt lat="42.674666941165924072265625" lon="-0.73128350079059600830078125">
        <ele>786.79998779296875</ele>
        <time>2020-08-20T06:24:31.000Z</time>
      </trkpt>
      <trkpt lat="42.67472217790782451629638671875" lon="-0.73146983049809932708740234375">
        <ele>785.79998779296875</ele>
        <time>2020-08-20T06:24:34.000Z</time>
      </trkpt>
      <trkpt lat="42.67475344240665435791015625" lon="-0.73151844553649425506591796875">
        <ele>785.5999755859375</ele>
        <time>2020-08-20T06:24:35.000Z</time>
      </trkpt>
      <trkpt lat="42.67483449541032314300537109375" lon="-0.73157183825969696044921875">
        <ele>784.5999755859375</ele>
        <time>2020-08-20T06:24:37.000Z</time>
      </trkpt>
      <trkpt lat="42.6748806796967983245849609375" lon="-0.73157183825969696044921875">
        <ele>784.20001220703125</ele>
        <time>2020-08-20T06:24:38.000Z</time>
      </trkpt>
      <trkpt lat="42.67501370050013065338134765625" lon="-0.731517858803272247314453125">
        <ele>784</ele>
        <time>2020-08-20T06:24:41.000Z</time>
      </trkpt>
      <trkpt lat="42.675341852009296417236328125" lon="-0.73139623738825321197509765625">
        <ele>783.4000244140625</ele>
        <time>2020-08-20T06:24:48.000Z</time>
      </trkpt>
      <trkpt lat="42.6753896288573741912841796875" lon="-0.73138316161930561065673828125">
        <ele>783.20001220703125</ele>
        <time>2020-08-20T06:24:49.000Z</time>
      </trkpt>
      <trkpt lat="42.6756712608039379119873046875" lon="-0.731280148029327392578125">
        <ele>782.4000244140625</ele>
        <time>2020-08-20T06:24:55.000Z</time>
      </trkpt>
      <trkpt lat="42.67584568820893764495849609375" lon="-0.73122172616422176361083984375">
        <ele>782.4000244140625</ele>
        <time>2020-08-20T06:24:59.000Z</time>
      </trkpt>
      <trkpt lat="42.6759825646877288818359375" lon="-0.7311663217842578887939453125">
        <ele>782.20001220703125</ele>
        <time>2020-08-20T06:25:02.000Z</time>
      </trkpt>
      <trkpt lat="42.67629395239055156707763671875" lon="-0.7310312055051326751708984375">
        <ele>782.4000244140625</ele>
        <time>2020-08-20T06:25:09.000Z</time>
      </trkpt>
      <trkpt lat="42.67672461457550525665283203125" lon="-0.7308411039412021636962890625">
        <ele>782.5999755859375</ele>
        <time>2020-08-20T06:25:19.000Z</time>
      </trkpt>
      <trkpt lat="42.67705184407532215118408203125" lon="-0.7307235896587371826171875">
        <ele>783.4000244140625</ele>
        <time>2020-08-20T06:25:27.000Z</time>
      </trkpt>
      <trkpt lat="42.67725326120853424072265625" lon="-0.7306697778403759002685546875">
        <ele>783.79998779296875</ele>
        <time>2020-08-20T06:25:32.000Z</time>
      </trkpt>
      <trkpt lat="42.67745576798915863037109375" lon="-0.73064991272985935211181640625">
        <ele>784.4000244140625</ele>
        <time>2020-08-20T06:25:37.000Z</time>
      </trkpt>
      <trkpt lat="42.67785818316042423248291015625" lon="-0.73069215752184391021728515625">
        <ele>784.79998779296875</ele>
        <time>2020-08-20T06:25:47.000Z</time>
      </trkpt>
      <trkpt lat="42.6778968237340450286865234375" lon="-0.7307016290724277496337890625">
        <ele>785</ele>
        <time>2020-08-20T06:25:48.000Z</time>
      </trkpt>
      <trkpt lat="42.6782434992492198944091796875" lon="-0.73082576505839824676513671875">
        <ele>785.79998779296875</ele>
        <time>2020-08-20T06:25:57.000Z</time>
      </trkpt>
      <trkpt lat="42.67858958803117275238037109375" lon="-0.731049813330173492431640625">
        <ele>786</ele>
        <time>2020-08-20T06:26:06.000Z</time>
      </trkpt>
      <trkpt lat="42.67880626022815704345703125" lon="-0.73123413138091564178466796875">
        <ele>786.20001220703125</ele>
        <time>2020-08-20T06:26:12.000Z</time>
      </trkpt>
      <trkpt lat="42.6789472438395023345947265625" lon="-0.7313805632293224334716796875">
        <ele>786.4000244140625</ele>
        <time>2020-08-20T06:26:16.000Z</time>
      </trkpt>
      <trkpt lat="42.67938519828021526336669921875" lon="-0.73185103945434093475341796875">
        <ele>786.4000244140625</ele>
        <time>2020-08-20T06:26:28.000Z</time>
      </trkpt>
      <trkpt lat="42.67978392541408538818359375" lon="-0.73226787149906158447265625">
        <ele>786.5999755859375</ele>
        <time>2020-08-20T06:26:39.000Z</time>
      </trkpt>
      <trkpt lat="42.6801756955683231353759765625" lon="-0.732601471245288848876953125">
        <ele>786.5999755859375</ele>
        <time>2020-08-20T06:26:49.000Z</time>
      </trkpt>
      <trkpt lat="42.68060057424008846282958984375" lon="-0.732862651348114013671875">
        <ele>787</ele>
        <time>2020-08-20T06:26:59.000Z</time>
      </trkpt>
      <trkpt lat="42.68113450147211551666259765625" lon="-0.7331179641187191009521484375">
        <ele>787</ele>
        <time>2020-08-20T06:27:11.000Z</time>
      </trkpt>
      <trkpt lat="42.68158771097660064697265625" lon="-0.7333285175263881683349609375">
        <ele>787.5999755859375</ele>
        <time>2020-08-20T06:27:21.000Z</time>
      </trkpt>
      <trkpt lat="42.68198023550212383270263671875" lon="-0.73350328020751476287841796875">
        <ele>787.5999755859375</ele>
        <time>2020-08-20T06:27:30.000Z</time>
      </trkpt>
      <trkpt lat="42.68223839811980724334716796875" lon="-0.73362096212804317474365234375">
        <ele>788</ele>
        <time>2020-08-20T06:27:36.000Z</time>
      </trkpt>
      <trkpt lat="42.68245163373649120330810546875" lon="-0.7337224669754505157470703125">
        <ele>788.20001220703125</ele>
        <time>2020-08-20T06:27:41.000Z</time>
      </trkpt>
      <trkpt lat="42.68300450406968593597412109375" lon="-0.73397635482251644134521484375">
        <ele>788.79998779296875</ele>
        <time>2020-08-20T06:27:54.000Z</time>
      </trkpt>
      <trkpt lat="42.68317549489438533782958984375" lon="-0.73405799455940723419189453125">
        <ele>789</ele>
        <time>2020-08-20T06:27:58.000Z</time>
      </trkpt>
      <trkpt lat="42.6833873055875301361083984375" lon="-0.7341563142836093902587890625">
        <ele>789.4000244140625</ele>
        <time>2020-08-20T06:28:03.000Z</time>
      </trkpt>
      <trkpt lat="42.683809585869312286376953125" lon="-0.73434482328593730926513671875">
        <ele>790.4000244140625</ele>
        <time>2020-08-20T06:28:13.000Z</time>
      </trkpt>
      <trkpt lat="42.6839809119701385498046875" lon="-0.7344218529760837554931640625">
        <ele>790.4000244140625</ele>
        <time>2020-08-20T06:28:17.000Z</time>
      </trkpt>
      <trkpt lat="42.6845175214111804962158203125" lon="-0.734670460224151611328125">
        <ele>790.79998779296875</ele>
        <time>2020-08-20T06:28:29.000Z</time>
      </trkpt>
      <trkpt lat="42.68456219695508480072021484375" lon="-0.7346914149820804595947265625">
        <ele>790.79998779296875</ele>
        <time>2020-08-20T06:28:30.000Z</time>
      </trkpt>
      <trkpt lat="42.68490954302251338958740234375" lon="-0.734849162399768829345703125">
        <ele>790.5999755859375</ele>
        <time>2020-08-20T06:28:38.000Z</time>
      </trkpt>
      <trkpt lat="42.685274071991443634033203125" lon="-0.7350193150341510772705078125">
        <ele>790.20001220703125</ele>
        <time>2020-08-20T06:28:46.000Z</time>
      </trkpt>
      <trkpt lat="42.685494013130664825439453125" lon="-0.73511461727321147918701171875">
        <ele>790</ele>
        <time>2020-08-20T06:28:51.000Z</time>
      </trkpt>
      <trkpt lat="42.6856809295713901519775390625" lon="-0.73519441299140453338623046875">
        <ele>790</ele>
        <time>2020-08-20T06:28:55.000Z</time>
      </trkpt>
      <trkpt lat="42.68615006469190120697021484375" lon="-0.7353975065052509307861328125">
        <ele>790</ele>
        <time>2020-08-20T06:29:05.000Z</time>
      </trkpt>
      <trkpt lat="42.68650352954864501953125" lon="-0.73553086258471012115478515625">
        <ele>790.4000244140625</ele>
        <time>2020-08-20T06:29:13.000Z</time>
      </trkpt>
      <trkpt lat="42.68680301494896411895751953125" lon="-0.73561753146350383758544921875">
        <ele>790.5999755859375</ele>
        <time>2020-08-20T06:29:20.000Z</time>
      </trkpt>
      <trkpt lat="42.68718204461038112640380859375" lon="-0.735675953328609466552734375">
        <ele>791.5999755859375</ele>
        <time>2020-08-20T06:29:29.000Z</time>
      </trkpt>
      <trkpt lat="42.68739326857030391693115234375" lon="-0.73569238185882568359375">
        <ele>792</ele>
        <time>2020-08-20T06:29:34.000Z</time>
      </trkpt>
      <trkpt lat="42.68768579699099063873291015625" lon="-0.7357016019523143768310546875">
        <ele>792.4000244140625</ele>
        <time>2020-08-20T06:29:41.000Z</time>
      </trkpt>
      <trkpt lat="42.68809919245541095733642578125" lon="-0.7357240654528141021728515625">
        <ele>793</ele>
        <time>2020-08-20T06:29:51.000Z</time>
      </trkpt>
      <trkpt lat="42.6881817542016506195068359375" lon="-0.7357317768037319183349609375">
        <ele>793.20001220703125</ele>
        <time>2020-08-20T06:29:53.000Z</time>
      </trkpt>
      <trkpt lat="42.6885904558002948760986328125" lon="-0.735756419599056243896484375">
        <ele>793.5999755859375</ele>
        <time>2020-08-20T06:30:03.000Z</time>
      </trkpt>
      <trkpt lat="42.6888375543057918548583984375" lon="-0.73576890863478183746337890625">
        <ele>794.20001220703125</ele>
        <time>2020-08-20T06:30:09.000Z</time>
      </trkpt>
      <trkpt lat="42.68904014490544795989990234375" lon="-0.73577963747084140777587890625">
        <ele>794.4000244140625</ele>
        <time>2020-08-20T06:30:14.000Z</time>
      </trkpt>
      <trkpt lat="42.6893176697194576263427734375" lon="-0.7358010113239288330078125">
        <ele>795.5999755859375</ele>
        <time>2020-08-20T06:30:21.000Z</time>
      </trkpt>
      <trkpt lat="42.68939268775284290313720703125" lon="-0.7358045317232608795166015625">
        <ele>795.5999755859375</ele>
        <time>2020-08-20T06:30:23.000Z</time>
      </trkpt>
      <trkpt lat="42.68961480818688869476318359375" lon="-0.73582313954830169677734375">
        <ele>796.5999755859375</ele>
        <time>2020-08-20T06:30:29.000Z</time>
      </trkpt>
      <trkpt lat="42.6897235214710235595703125" lon="-0.73584384284913539886474609375">
        <ele>796.79998779296875</ele>
        <time>2020-08-20T06:30:32.000Z</time>
      </trkpt>
      <trkpt lat="42.68997422419488430023193359375" lon="-0.7359131611883640289306640625">
        <ele>797.5999755859375</ele>
        <time>2020-08-20T06:30:39.000Z</time>
      </trkpt>
      <trkpt lat="42.69001009874045848846435546875" lon="-0.73592749424278736114501953125">
        <ele>797.79998779296875</ele>
        <time>2020-08-20T06:30:40.000Z</time>
      </trkpt>
      <trkpt lat="42.6902235858142375946044921875" lon="-0.736030004918575286865234375">
        <ele>798.5999755859375</ele>
        <time>2020-08-20T06:30:46.000Z</time>
      </trkpt>
      <trkpt lat="42.690293490886688232421875" lon="-0.7360717467963695526123046875">
        <ele>798.79998779296875</ele>
        <time>2020-08-20T06:30:48.000Z</time>
      </trkpt>
      <trkpt lat="42.69064192660152912139892578125" lon="-0.736317001283168792724609375">
        <ele>799.5999755859375</ele>
        <time>2020-08-20T06:30:58.000Z</time>
      </trkpt>
      <trkpt lat="42.6908795535564422607421875" lon="-0.73654599487781524658203125">
        <ele>799.79998779296875</ele>
        <time>2020-08-20T06:31:05.000Z</time>
      </trkpt>
      <trkpt lat="42.6909846626222133636474609375" lon="-0.73665102012455463409423828125">
        <ele>799.79998779296875</ele>
        <time>2020-08-20T06:31:08.000Z</time>
      </trkpt>
      <trkpt lat="42.691322453320026397705078125" lon="-0.7369873858988285064697265625">
        <ele>800.4000244140625</ele>
        <time>2020-08-20T06:31:18.000Z</time>
      </trkpt>
      <trkpt lat="42.69172134809195995330810546875" lon="-0.7373749651014804840087890625">
        <ele>801.20001220703125</ele>
        <time>2020-08-20T06:31:30.000Z</time>
      </trkpt>
      <trkpt lat="42.6920089311897754669189453125" lon="-0.7376391626894474029541015625">
        <ele>801.79998779296875</ele>
        <time>2020-08-20T06:31:39.000Z</time>
      </trkpt>
      <trkpt lat="42.6921401917934417724609375" lon="-0.73775692842900753021240234375">
        <ele>802.20001220703125</ele>
        <time>2020-08-20T06:31:43.000Z</time>
      </trkpt>
      <trkpt lat="42.692306824028491973876953125" lon="-0.737894140183925628662109375">
        <ele>803</ele>
        <time>2020-08-20T06:31:48.000Z</time>
      </trkpt>
      <trkpt lat="42.69241939298808574676513671875" lon="-0.73797829449176788330078125">
        <ele>803.4000244140625</ele>
        <time>2020-08-20T06:31:53.000Z</time>
      </trkpt>
      <trkpt lat="42.69245157949626445770263671875" lon="-0.737991034984588623046875">
        <ele>803.5999755859375</ele>
        <time>2020-08-20T06:31:58.000Z</time>
      </trkpt>
      <trkpt lat="42.692461051046848297119140625" lon="-0.73799463920295238494873046875">
        <ele>803.5999755859375</ele>
        <time>2020-08-20T06:32:06.000Z</time>
      </trkpt>
      <trkpt lat="42.6924639008939266204833984375" lon="-0.73799229227006435394287109375">
        <ele>803.5999755859375</ele>
        <time>2020-08-20T06:32:17.000Z</time>
      </trkpt>
      <trkpt lat="42.6924625597894191741943359375" lon="-0.7379923760890960693359375">
        <ele>803.79998779296875</ele>
        <time>2020-08-20T06:32:26.000Z</time>
      </trkpt>
      <trkpt lat="42.69246214069426059722900390625" lon="-0.7379938848316669464111328125">
        <ele>803.5999755859375</ele>
        <time>2020-08-20T06:32:45.000Z</time>
      </trkpt>
      <trkpt lat="42.692462392151355743408203125" lon="-0.737994723021984100341796875">
        <ele>803.79998779296875</ele>
        <time>2020-08-20T06:33:08.000Z</time>
      </trkpt>
      <trkpt lat="42.692465744912624359130859375" lon="-0.7379932142794132232666015625">
        <ele>803.79998779296875</ele>
        <time>2020-08-20T06:33:26.000Z</time>
      </trkpt>
      <trkpt lat="42.69246633164584636688232421875" lon="-0.7379962317645549774169921875">
        <ele>803.5999755859375</ele>
        <time>2020-08-20T06:33:43.000Z</time>
      </trkpt>
      <trkpt lat="42.69247169606387615203857421875" lon="-0.73800335638225078582763671875">
        <ele>803.5999755859375</ele>
        <time>2020-08-20T06:33:44.000Z</time>
      </trkpt>
      <trkpt lat="42.6925121806561946868896484375" lon="-0.73802447877824306488037109375">
        <ele>803.79998779296875</ele>
        <time>2020-08-20T06:33:47.000Z</time>
      </trkpt>
      <trkpt lat="42.69254629500210285186767578125" lon="-0.7380505464971065521240234375">
        <ele>803.79998779296875</ele>
        <time>2020-08-20T06:33:49.000Z</time>
      </trkpt>
      <trkpt lat="42.69266615621745586395263671875" lon="-0.73812858201563358306884765625">
        <ele>804</ele>
        <time>2020-08-20T06:33:54.000Z</time>
      </trkpt>
      <trkpt lat="42.69291459582746028900146484375" lon="-0.73829521425068378448486328125">
        <ele>804.5999755859375</ele>
        <time>2020-08-20T06:34:02.000Z</time>
      </trkpt>
      <trkpt lat="42.693154402077198028564453125" lon="-0.73844206519424915313720703125">
        <ele>805</ele>
        <time>2020-08-20T06:34:09.000Z</time>
      </trkpt>
      <trkpt lat="42.6934734173119068145751953125" lon="-0.73866334743797779083251953125">
        <ele>804.79998779296875</ele>
        <time>2020-08-20T06:34:18.000Z</time>
      </trkpt>
      <trkpt lat="42.6937778480350971221923828125" lon="-0.73895285837352275848388671875">
        <ele>804</ele>
        <time>2020-08-20T06:34:26.000Z</time>
      </trkpt>
      <trkpt lat="42.6939694583415985107421875" lon="-0.7391723804175853729248046875">
        <ele>803.5999755859375</ele>
        <time>2020-08-20T06:34:31.000Z</time>
      </trkpt>
      <trkpt lat="42.694086469709873199462890625" lon="-0.73931948281824588775634765625">
        <ele>803</ele>
        <time>2020-08-20T06:34:34.000Z</time>
      </trkpt>
      <trkpt lat="42.69420825876295566558837890625" lon="-0.73947764933109283447265625">
        <ele>802.5999755859375</ele>
        <time>2020-08-20T06:34:37.000Z</time>
      </trkpt>
      <trkpt lat="42.694419063627719879150390625" lon="-0.7397628016769886016845703125">
        <ele>801.5999755859375</ele>
        <time>2020-08-20T06:34:42.000Z</time>
      </trkpt>
      <trkpt lat="42.69446223042905330657958984375" lon="-0.739818625152111053466796875">
        <ele>801.4000244140625</ele>
        <time>2020-08-20T06:34:43.000Z</time>
      </trkpt>
      <trkpt lat="42.69462316296994686126708984375" lon="-0.74004761874675750732421875">
        <ele>800.5999755859375</ele>
        <time>2020-08-20T06:34:47.000Z</time>
      </trkpt>
      <trkpt lat="42.69470077939331531524658203125" lon="-0.74015733785927295684814453125">
        <ele>800</ele>
        <time>2020-08-20T06:34:49.000Z</time>
      </trkpt>
      <trkpt lat="42.69483455456793308258056640625" lon="-0.740390606224536895751953125">
        <ele>799.4000244140625</ele>
        <time>2020-08-20T06:34:53.000Z</time>
      </trkpt>
      <trkpt lat="42.69492625258862972259521484375" lon="-0.74055648408830165863037109375">
        <ele>799.4000244140625</ele>
        <time>2020-08-20T06:34:56.000Z</time>
      </trkpt>
      <trkpt lat="42.6951823197305202484130859375" lon="-0.7409677840769290924072265625">
        <ele>799.20001220703125</ele>
        <time>2020-08-20T06:35:04.000Z</time>
      </trkpt>
      <trkpt lat="42.69543595612049102783203125" lon="-0.74136751703917980194091796875">
        <ele>799.4000244140625</ele>
        <time>2020-08-20T06:35:12.000Z</time>
      </trkpt>
      <trkpt lat="42.69573544152081012725830078125" lon="-0.74177068658173084259033203125">
        <ele>799.79998779296875</ele>
        <time>2020-08-20T06:35:21.000Z</time>
      </trkpt>
      <trkpt lat="42.69606518559157848358154296875" lon="-0.7421177811920642852783203125">
        <ele>800.4000244140625</ele>
        <time>2020-08-20T06:35:30.000Z</time>
      </trkpt>
      <trkpt lat="42.69617490470409393310546875" lon="-0.74222129769623279571533203125">
        <ele>801</ele>
        <time>2020-08-20T06:35:33.000Z</time>
      </trkpt>
      <trkpt lat="42.69632033072412014007568359375" lon="-0.74235641397535800933837890625">
        <ele>801.4000244140625</ele>
        <time>2020-08-20T06:35:37.000Z</time>
      </trkpt>
      <trkpt lat="42.6964223384857177734375" lon="-0.742462612688541412353515625">
        <ele>801.5999755859375</ele>
        <time>2020-08-20T06:35:40.000Z</time>
      </trkpt>
      <trkpt lat="42.69659223966300487518310546875" lon="-0.74264056049287319183349609375">
        <ele>802</ele>
        <time>2020-08-20T06:35:45.000Z</time>
      </trkpt>
      <trkpt lat="42.6967825926840305328369140625" lon="-0.74286754243075847625732421875">
        <ele>802.79998779296875</ele>
        <time>2020-08-20T06:35:51.000Z</time>
      </trkpt>
      <trkpt lat="42.69684755243360996246337890625" lon="-0.7429383695125579833984375">
        <ele>803</ele>
        <time>2020-08-20T06:35:53.000Z</time>
      </trkpt>
      <trkpt lat="42.6969968341290950775146484375" lon="-0.74314917437732219696044921875">
        <ele>804.20001220703125</ele>
        <time>2020-08-20T06:35:58.000Z</time>
      </trkpt>
      <trkpt lat="42.69709683023393154144287109375" lon="-0.74333257041871547698974609375">
        <ele>804.20001220703125</ele>
        <time>2020-08-20T06:36:02.000Z</time>
      </trkpt>
      <trkpt lat="42.69721451215445995330810546875" lon="-0.74356273747980594635009765625">
        <ele>804.79998779296875</ele>
        <time>2020-08-20T06:36:07.000Z</time>
      </trkpt>
      <trkpt lat="42.697374187409877777099609375" lon="-0.74389013461768627166748046875">
        <ele>805.20001220703125</ele>
        <time>2020-08-20T06:36:14.000Z</time>
      </trkpt>
      <trkpt lat="42.69741810858249664306640625" lon="-0.743986777961254119873046875">
        <ele>805.5999755859375</ele>
        <time>2020-08-20T06:36:16.000Z</time>
      </trkpt>
      <trkpt lat="42.69759379327297210693359375" lon="-0.7443507201969623565673828125">
        <ele>806.20001220703125</ele>
        <time>2020-08-20T06:36:24.000Z</time>
      </trkpt>
      <trkpt lat="42.6976439170539379119873046875" lon="-0.7444432564079761505126953125">
        <ele>806.4000244140625</ele>
        <time>2020-08-20T06:36:26.000Z</time>
      </trkpt>
      <trkpt lat="42.69783225841820240020751953125" lon="-0.744826979935169219970703125">
        <ele>807.20001220703125</ele>
        <time>2020-08-20T06:36:34.000Z</time>
      </trkpt>
      <trkpt lat="42.69802722148597240447998046875" lon="-0.7451560534536838531494140625">
        <ele>807.5999755859375</ele>
        <time>2020-08-20T06:36:41.000Z</time>
      </trkpt>
      <trkpt lat="42.69823945127427577972412109375" lon="-0.74548856355249881744384765625">
        <ele>807.5999755859375</ele>
        <time>2020-08-20T06:36:48.000Z</time>
      </trkpt>
      <trkpt lat="42.6985250227153301239013671875" lon="-0.74587111361324787139892578125">
        <ele>807.4000244140625</ele>
        <time>2020-08-20T06:36:56.000Z</time>
      </trkpt>
      <trkpt lat="42.698933891952037811279296875" lon="-0.74630563147366046905517578125">
        <ele>806.5999755859375</ele>
        <time>2020-08-20T06:37:06.000Z</time>
      </trkpt>
      <trkpt lat="42.69916581921279430389404296875" lon="-0.746477879583835601806640625">
        <ele>805.79998779296875</ele>
        <time>2020-08-20T06:37:11.000Z</time>
      </trkpt>
      <trkpt lat="42.6993189565837383270263671875" lon="-0.7465662248432636260986328125">
        <ele>805.4000244140625</ele>
        <time>2020-08-20T06:37:14.000Z</time>
      </trkpt>
      <trkpt lat="42.69968935288488864898681640625" lon="-0.74671567417681217193603515625">
        <ele>805</ele>
        <time>2020-08-20T06:37:21.000Z</time>
      </trkpt>
      <trkpt lat="42.69973796792328357696533203125" lon="-0.74673059396445751190185546875">
        <ele>804.79998779296875</ele>
        <time>2020-08-20T06:37:22.000Z</time>
      </trkpt>
      <trkpt lat="42.69998288713395595550537109375" lon="-0.74678239412605762481689453125">
        <ele>804.5999755859375</ele>
        <time>2020-08-20T06:37:27.000Z</time>
      </trkpt>
      <trkpt lat="42.70031229592859745025634765625" lon="-0.74682346545159816741943359375">
        <ele>804.5999755859375</ele>
        <time>2020-08-20T06:37:34.000Z</time>
      </trkpt>
      <trkpt lat="42.70061605609953403472900390625" lon="-0.74686042964458465576171875">
        <ele>804.79998779296875</ele>
        <time>2020-08-20T06:37:41.000Z</time>
      </trkpt>
      <trkpt lat="42.7008883841335773468017578125" lon="-0.74688733555376529693603515625">
        <ele>805.20001220703125</ele>
        <time>2020-08-20T06:37:48.000Z</time>
      </trkpt>
      <trkpt lat="42.701017968356609344482421875" lon="-0.74688649736344814300537109375">
        <ele>805.79998779296875</ele>
        <time>2020-08-20T06:37:51.000Z</time>
      </trkpt>
      <trkpt lat="42.701225839555263519287109375" lon="-0.746895968914031982421875">
        <ele>806.4000244140625</ele>
        <time>2020-08-20T06:37:56.000Z</time>
      </trkpt>
      <trkpt lat="42.70140864886343479156494140625" lon="-0.7469356991350650787353515625">
        <ele>807.20001220703125</ele>
        <time>2020-08-20T06:38:01.000Z</time>
      </trkpt>
      <trkpt lat="42.7015867643058300018310546875" lon="-0.74696864001452922821044921875">
        <ele>807.5999755859375</ele>
        <time>2020-08-20T06:38:06.000Z</time>
      </trkpt>
      <trkpt lat="42.70172900520265102386474609375" lon="-0.7469940371811389923095703125">
        <ele>808.20001220703125</ele>
        <time>2020-08-20T06:38:10.000Z</time>
      </trkpt>
      <trkpt lat="42.70200393162667751312255859375" lon="-0.7470520399510860443115234375">
        <ele>809.20001220703125</ele>
        <time>2020-08-20T06:38:18.000Z</time>
      </trkpt>
      <trkpt lat="42.7020397223532199859619140625" lon="-0.74706134386360645294189453125">
        <ele>809.4000244140625</ele>
        <time>2020-08-20T06:38:19.000Z</time>
      </trkpt>
      <trkpt lat="42.7022898383438587188720703125" lon="-0.7471351884305477142333984375">
        <ele>810.4000244140625</ele>
        <time>2020-08-20T06:38:26.000Z</time>
      </trkpt>
      <trkpt lat="42.70236267708241939544677734375" lon="-0.74716008268296718597412109375">
        <ele>810.5999755859375</ele>
        <time>2020-08-20T06:38:28.000Z</time>
      </trkpt>
      <trkpt lat="42.7026517689228057861328125" lon="-0.7472672872245311737060546875">
        <ele>811.79998779296875</ele>
        <time>2020-08-20T06:38:36.000Z</time>
      </trkpt>
      <trkpt lat="42.70268739201128482818603515625" lon="-0.747282542288303375244140625">
        <ele>812</ele>
        <time>2020-08-20T06:38:37.000Z</time>
      </trkpt>
      <trkpt lat="42.70286425016820430755615234375" lon="-0.74734331108629703521728515625">
        <ele>812.79998779296875</ele>
        <time>2020-08-20T06:38:42.000Z</time>
      </trkpt>
      <trkpt lat="42.703072540462017059326171875" lon="-0.7474069297313690185546875">
        <ele>813.79998779296875</ele>
        <time>2020-08-20T06:38:48.000Z</time>
      </trkpt>
      <trkpt lat="42.70310841500759124755859375" lon="-0.74741170741617679595947265625">
        <ele>814</ele>
        <time>2020-08-20T06:38:49.000Z</time>
      </trkpt>
      <trkpt lat="42.70336045883595943450927734375" lon="-0.7474406249821186065673828125">
        <ele>815</ele>
        <time>2020-08-20T06:38:56.000Z</time>
      </trkpt>
      <trkpt lat="42.70343204028904438018798828125" lon="-0.74744045734405517578125">
        <ele>815.20001220703125</ele>
        <time>2020-08-20T06:38:58.000Z</time>
      </trkpt>
      <trkpt lat="42.70365416072309017181396484375" lon="-0.747447498142719268798828125">
        <ele>816.20001220703125</ele>
        <time>2020-08-20T06:39:04.000Z</time>
      </trkpt>
      <trkpt lat="42.7037663944065570831298828125" lon="-0.74744758196175098419189453125">
        <ele>816.5999755859375</ele>
        <time>2020-08-20T06:39:07.000Z</time>
      </trkpt>
      <trkpt lat="42.70404190756380558013916015625" lon="-0.74747004546225070953369140625">
        <ele>817</ele>
        <time>2020-08-20T06:39:14.000Z</time>
      </trkpt>
      <trkpt lat="42.7041194401681423187255859375" lon="-0.74748982675373554229736328125">
        <ele>817.20001220703125</ele>
        <time>2020-08-20T06:39:16.000Z</time>
      </trkpt>
      <trkpt lat="42.704518921673297882080078125" lon="-0.747629888355731964111328125">
        <ele>817.79998779296875</ele>
        <time>2020-08-20T06:39:26.000Z</time>
      </trkpt>
      <trkpt lat="42.704840116202831268310546875" lon="-0.747849829494953155517578125">
        <ele>818.20001220703125</ele>
        <time>2020-08-20T06:39:35.000Z</time>
      </trkpt>
      <trkpt lat="42.7049039863049983978271484375" lon="-0.747910179197788238525390625">
        <ele>818.4000244140625</ele>
        <time>2020-08-20T06:39:37.000Z</time>
      </trkpt>
      <trkpt lat="42.7051245979964733123779296875" lon="-0.74813925661146640777587890625">
        <ele>819.5999755859375</ele>
        <time>2020-08-20T06:39:44.000Z</time>
      </trkpt>
      <trkpt lat="42.705329619348049163818359375" lon="-0.7483622990548610687255859375">
        <ele>820.79998779296875</ele>
        <time>2020-08-20T06:39:51.000Z</time>
      </trkpt>
      <trkpt lat="42.7054193057119846343994140625" lon="-0.74845542199909687042236328125">
        <ele>821.20001220703125</ele>
        <time>2020-08-20T06:39:54.000Z</time>
      </trkpt>
      <trkpt lat="42.70556665956974029541015625" lon="-0.7486053742468357086181640625">
        <ele>822</ele>
        <time>2020-08-20T06:39:59.000Z</time>
      </trkpt>
      <trkpt lat="42.70571895875036716461181640625" lon="-0.7487451843917369842529296875">
        <ele>822.79998779296875</ele>
        <time>2020-08-20T06:40:04.000Z</time>
      </trkpt>
      <trkpt lat="42.7057495526969432830810546875" lon="-0.74877242557704448699951171875">
        <ele>823</ele>
        <time>2020-08-20T06:40:05.000Z</time>
      </trkpt>
      <trkpt lat="42.70593521185219287872314453125" lon="-0.748932771384716033935546875">
        <ele>824.4000244140625</ele>
        <time>2020-08-20T06:40:11.000Z</time>
      </trkpt>
      <trkpt lat="42.70599941723048686981201171875" lon="-0.74897937476634979248046875">
        <ele>824.79998779296875</ele>
        <time>2020-08-20T06:40:13.000Z</time>
      </trkpt>
      <trkpt lat="42.70618549548089504241943359375" lon="-0.749119184911251068115234375">
        <ele>825.4000244140625</ele>
        <time>2020-08-20T06:40:19.000Z</time>
      </trkpt>
      <trkpt lat="42.7063129842281341552734375" lon="-0.74920711107552051544189453125">
        <ele>826</ele>
        <time>2020-08-20T06:40:23.000Z</time>
      </trkpt>
      <trkpt lat="42.70651104860007762908935546875" lon="-0.749329738318920135498046875">
        <ele>826.5999755859375</ele>
        <time>2020-08-20T06:40:29.000Z</time>
      </trkpt>
      <trkpt lat="42.70664867945015430450439453125" lon="-0.74940810911357402801513671875">
        <ele>827</ele>
        <time>2020-08-20T06:40:33.000Z</time>
      </trkpt>
      <trkpt lat="42.7069240249693393707275390625" lon="-0.7495716400444507598876953125">
        <ele>827.5999755859375</ele>
        <time>2020-08-20T06:40:41.000Z</time>
      </trkpt>
      <trkpt lat="42.706995271146297454833984375" lon="-0.749610699713230133056640625">
        <ele>827.5999755859375</ele>
        <time>2020-08-20T06:40:43.000Z</time>
      </trkpt>
      <trkpt lat="42.7073934115469455718994140625" lon="-0.74983994476497173309326171875">
        <ele>828.20001220703125</ele>
        <time>2020-08-20T06:40:54.000Z</time>
      </trkpt>
      <trkpt lat="42.7075043879449367523193359375" lon="-0.7498924992978572845458984375">
        <ele>828.5999755859375</ele>
        <time>2020-08-20T06:40:57.000Z</time>
      </trkpt>
      <trkpt lat="42.70772877149283885955810546875" lon="-0.7499981112778186798095703125">
        <ele>829</ele>
        <time>2020-08-20T06:41:03.000Z</time>
      </trkpt>
      <trkpt lat="42.7081122435629367828369140625" lon="-0.75013197027146816253662109375">
        <ele>829.4000244140625</ele>
        <time>2020-08-20T06:41:13.000Z</time>
      </trkpt>
      <trkpt lat="42.70826571621000766754150390625" lon="-0.75016885064542293548583984375">
        <ele>829.79998779296875</ele>
        <time>2020-08-20T06:41:17.000Z</time>
      </trkpt>
      <trkpt lat="42.70854081027209758758544921875" lon="-0.75022794306278228759765625">
        <ele>830</ele>
        <time>2020-08-20T06:41:24.000Z</time>
      </trkpt>
      <trkpt lat="42.70891003310680389404296875" lon="-0.7502515800297260284423828125">
        <ele>830.5999755859375</ele>
        <time>2020-08-20T06:41:33.000Z</time>
      </trkpt>
      <trkpt lat="42.70899041555821895599365234375" lon="-0.75025199912488460540771484375">
        <ele>830.79998779296875</ele>
        <time>2020-08-20T06:41:35.000Z</time>
      </trkpt>
      <trkpt lat="42.70943180657923221588134765625" lon="-0.7502264343202114105224609375">
        <ele>831.5999755859375</ele>
        <time>2020-08-20T06:41:46.000Z</time>
      </trkpt>
      <trkpt lat="42.709702961146831512451171875" lon="-0.75017823837697505950927734375">
        <ele>832</ele>
        <time>2020-08-20T06:41:53.000Z</time>
      </trkpt>
      <trkpt lat="42.709779404103755950927734375" lon="-0.7501627318561077117919921875">
        <ele>832.20001220703125</ele>
        <time>2020-08-20T06:41:55.000Z</time>
      </trkpt>
      <trkpt lat="42.71012331359088420867919921875" lon="-0.75007639825344085693359375">
        <ele>832.5999755859375</ele>
        <time>2020-08-20T06:42:04.000Z</time>
      </trkpt>
      <trkpt lat="42.71031525917351245880126953125" lon="-0.75002468191087245941162109375">
        <ele>833.20001220703125</ele>
        <time>2020-08-20T06:42:09.000Z</time>
      </trkpt>
      <trkpt lat="42.71070040762424468994140625" lon="-0.74992024339735507965087890625">
        <ele>833.79998779296875</ele>
        <time>2020-08-20T06:42:19.000Z</time>
      </trkpt>
      <trkpt lat="42.71085304208099842071533203125" lon="-0.74988084845244884490966796875">
        <ele>834.20001220703125</ele>
        <time>2020-08-20T06:42:23.000Z</time>
      </trkpt>
      <trkpt lat="42.71115764044225215911865234375" lon="-0.74979987926781177520751953125">
        <ele>835</ele>
        <time>2020-08-20T06:42:31.000Z</time>
      </trkpt>
      <trkpt lat="42.71127297542989253997802734375" lon="-0.74976299889385700225830078125">
        <ele>835.20001220703125</ele>
        <time>2020-08-20T06:42:34.000Z</time>
      </trkpt>
      <trkpt lat="42.71153851412236690521240234375" lon="-0.74969627894461154937744140625">
        <ele>835.79998779296875</ele>
        <time>2020-08-20T06:42:41.000Z</time>
      </trkpt>
      <trkpt lat="42.71179919131100177764892578125" lon="-0.74963785707950592041015625">
        <ele>836.20001220703125</ele>
        <time>2020-08-20T06:42:48.000Z</time>
      </trkpt>
      <trkpt lat="42.7119831740856170654296875" lon="-0.74960961006581783294677734375">
        <ele>836.79998779296875</ele>
        <time>2020-08-20T06:42:53.000Z</time>
      </trkpt>
      <trkpt lat="42.71221141330897808074951171875" lon="-0.74958547018468379974365234375">
        <ele>837.4000244140625</ele>
        <time>2020-08-20T06:42:59.000Z</time>
      </trkpt>
      <trkpt lat="42.71239229477941989898681640625" lon="-0.74957775883376598358154296875">
        <ele>837.79998779296875</ele>
        <time>2020-08-20T06:43:04.000Z</time>
      </trkpt>
      <trkpt lat="42.71261642687022686004638671875" lon="-0.74952880851924419403076171875">
        <ele>838</ele>
        <time>2020-08-20T06:43:10.000Z</time>
      </trkpt>
      <trkpt lat="42.7128124795854091644287109375" lon="-0.7495367713272571563720703125">
        <ele>838.5999755859375</ele>
        <time>2020-08-20T06:43:15.000Z</time>
      </trkpt>
      <trkpt lat="42.71293510682880878448486328125" lon="-0.74954942800104618072509765625">
        <ele>838.4000244140625</ele>
        <time>2020-08-20T06:43:18.000Z</time>
      </trkpt>
      <trkpt lat="42.71336308680474758148193359375" lon="-0.7496182434260845184326171875">
        <ele>838.5999755859375</ele>
        <time>2020-08-20T06:43:28.000Z</time>
      </trkpt>
      <trkpt lat="42.7139168791472911834716796875" lon="-0.74977607466280460357666015625">
        <ele>838</ele>
        <time>2020-08-20T06:43:40.000Z</time>
      </trkpt>
      <trkpt lat="42.71447553299367427825927734375" lon="-0.74994270689785480499267578125">
        <ele>838.20001220703125</ele>
        <time>2020-08-20T06:43:52.000Z</time>
      </trkpt>
      <trkpt lat="42.71487685851752758026123046875" lon="-0.75005670078098773956298828125">
        <ele>838.20001220703125</ele>
        <time>2020-08-20T06:44:01.000Z</time>
      </trkpt>
      <trkpt lat="42.71526644937694072723388671875" lon="-0.750176645815372467041015625">
        <ele>838.5999755859375</ele>
        <time>2020-08-20T06:44:10.000Z</time>
      </trkpt>
      <trkpt lat="42.71569225005805492401123046875" lon="-0.75029625557363033294677734375">
        <ele>838.5999755859375</ele>
        <time>2020-08-20T06:44:20.000Z</time>
      </trkpt>
      <trkpt lat="42.71616180427372455596923828125" lon="-0.75043589808046817779541015625">
        <ele>839.20001220703125</ele>
        <time>2020-08-20T06:44:31.000Z</time>
      </trkpt>
      <trkpt lat="42.71661979146301746368408203125" lon="-0.75055927969515323638916015625">
        <ele>839.4000244140625</ele>
        <time>2020-08-20T06:44:42.000Z</time>
      </trkpt>
      <trkpt lat="42.71674552001059055328369140625" lon="-0.750603117048740386962890625">
        <ele>839.5999755859375</ele>
        <time>2020-08-20T06:44:45.000Z</time>
      </trkpt>
      <trkpt lat="42.71699898876249790191650390625" lon="-0.75066321529448032379150390625">
        <ele>840.20001220703125</ele>
        <time>2020-08-20T06:44:51.000Z</time>
      </trkpt>
      <trkpt lat="42.7174282260239124298095703125" lon="-0.7507501356303691864013671875">
        <ele>840.4000244140625</ele>
        <time>2020-08-20T06:45:01.000Z</time>
      </trkpt>
      <trkpt lat="42.71786056458950042724609375" lon="-0.7507816515862941741943359375">
        <ele>840</ele>
        <time>2020-08-20T06:45:10.000Z</time>
      </trkpt>
      <trkpt lat="42.71838703192770481109619140625" lon="-0.75079883448779582977294921875">
        <ele>838.5999755859375</ele>
        <time>2020-08-20T06:45:20.000Z</time>
      </trkpt>
      <trkpt lat="42.71868023090064525604248046875" lon="-0.75081258080899715423583984375">
        <ele>837.4000244140625</ele>
        <time>2020-08-20T06:45:25.000Z</time>
      </trkpt>
      <trkpt lat="42.71899321116507053375244140625" lon="-0.75082213617861270904541015625">
        <ele>836.5999755859375</ele>
        <time>2020-08-20T06:45:30.000Z</time>
      </trkpt>
      <trkpt lat="42.71905691362917423248291015625" lon="-0.750824399292469024658203125">
        <ele>836.4000244140625</ele>
        <time>2020-08-20T06:45:31.000Z</time>
      </trkpt>
      <trkpt lat="42.719379030168056488037109375" lon="-0.75083336792886257171630859375">
        <ele>835.20001220703125</ele>
        <time>2020-08-20T06:45:36.000Z</time>
      </trkpt>
      <trkpt lat="42.71957089193165302276611328125" lon="-0.75084107927978038787841796875">
        <ele>834.79998779296875</ele>
        <time>2020-08-20T06:45:39.000Z</time>
      </trkpt>
      <trkpt lat="42.71987758576869964599609375" lon="-0.75084828771650791168212890625">
        <ele>834.20001220703125</ele>
        <time>2020-08-20T06:45:44.000Z</time>
      </trkpt>
      <trkpt lat="42.7201637439429759979248046875" lon="-0.75085750780999660491943359375">
        <ele>833.5999755859375</ele>
        <time>2020-08-20T06:45:49.000Z</time>
      </trkpt>
      <trkpt lat="42.72066674195230007171630859375" lon="-0.75089983642101287841796875">
        <ele>833.5999755859375</ele>
        <time>2020-08-20T06:45:59.000Z</time>
      </trkpt>
      <trkpt lat="42.7210974879562854766845703125" lon="-0.750940740108489990234375">
        <ele>833.79998779296875</ele>
        <time>2020-08-20T06:46:08.000Z</time>
      </trkpt>
      <trkpt lat="42.7215303294360637664794921875" lon="-0.75102514587342739105224609375">
        <ele>834.5999755859375</ele>
        <time>2020-08-20T06:46:18.000Z</time>
      </trkpt>
      <trkpt lat="42.7219789288938045501708984375" lon="-0.751183815300464630126953125">
        <ele>834.79998779296875</ele>
        <time>2020-08-20T06:46:29.000Z</time>
      </trkpt>
      <trkpt lat="42.722143046557903289794921875" lon="-0.75124676339328289031982421875">
        <ele>835.4000244140625</ele>
        <time>2020-08-20T06:46:33.000Z</time>
      </trkpt>
      <trkpt lat="42.72247220389544963836669921875" lon="-0.75137232430279254913330078125">
        <ele>835.79998779296875</ele>
        <time>2020-08-20T06:46:41.000Z</time>
      </trkpt>
      <trkpt lat="42.72271377034485340118408203125" lon="-0.75147508643567562103271484375">
        <ele>836.4000244140625</ele>
        <time>2020-08-20T06:46:47.000Z</time>
      </trkpt>
      <trkpt lat="42.72283396683633327484130859375" lon="-0.7515269704163074493408203125">
        <ele>836.5999755859375</ele>
        <time>2020-08-20T06:46:50.000Z</time>
      </trkpt>
      <trkpt lat="42.72323428653180599212646484375" lon="-0.75167809613049030303955078125">
        <ele>837</ele>
        <time>2020-08-20T06:47:00.000Z</time>
      </trkpt>
      <trkpt lat="42.72343377582728862762451171875" lon="-0.751758478581905364990234375">
        <ele>837.4000244140625</ele>
        <time>2020-08-20T06:47:05.000Z</time>
      </trkpt>
      <trkpt lat="42.72363343276083469390869140625" lon="-0.751831233501434326171875">
        <ele>837.5999755859375</ele>
        <time>2020-08-20T06:47:10.000Z</time>
      </trkpt>
      <trkpt lat="42.7240931801497936248779296875" lon="-0.7519423775374889373779296875">
        <ele>837.79998779296875</ele>
        <time>2020-08-20T06:47:21.000Z</time>
      </trkpt>
      <trkpt lat="42.7246604673564434051513671875" lon="-0.75195754878222942352294921875">
        <ele>838</ele>
        <time>2020-08-20T06:47:34.000Z</time>
      </trkpt>
      <trkpt lat="42.7251291833817958831787109375" lon="-0.7519514299929141998291015625">
        <ele>837.5999755859375</ele>
        <time>2020-08-20T06:47:44.000Z</time>
      </trkpt>
      <trkpt lat="42.72559060715138912200927734375" lon="-0.7520660944283008575439453125">
        <ele>837.20001220703125</ele>
        <time>2020-08-20T06:47:54.000Z</time>
      </trkpt>
      <trkpt lat="42.7259306609630584716796875" lon="-0.75224739499390125274658203125">
        <ele>837.20001220703125</ele>
        <time>2020-08-20T06:48:02.000Z</time>
      </trkpt>
      <trkpt lat="42.72627792321145534515380859375" lon="-0.75250891037285327911376953125">
        <ele>837.5999755859375</ele>
        <time>2020-08-20T06:48:11.000Z</time>
      </trkpt>
      <trkpt lat="42.72665091790258884429931640625" lon="-0.75281032361090183258056640625">
        <ele>838.5999755859375</ele>
        <time>2020-08-20T06:48:21.000Z</time>
      </trkpt>
      <trkpt lat="42.7267247624695301055908203125" lon="-0.75286589562892913818359375">
        <ele>838.5999755859375</ele>
        <time>2020-08-20T06:48:23.000Z</time>
      </trkpt>
      <trkpt lat="42.7269685082137584686279296875" lon="-0.7530420832335948944091796875">
        <ele>839.5999755859375</ele>
        <time>2020-08-20T06:48:30.000Z</time>
      </trkpt>
      <trkpt lat="42.7270399220287799835205078125" lon="-0.753084830939769744873046875">
        <ele>839.79998779296875</ele>
        <time>2020-08-20T06:48:32.000Z</time>
      </trkpt>
      <trkpt lat="42.72717948071658611297607421875" lon="-0.75316923670470714569091796875">
        <ele>840.5999755859375</ele>
        <time>2020-08-20T06:48:36.000Z</time>
      </trkpt>
      <trkpt lat="42.7273141779005527496337890625" lon="-0.75323092751204967498779296875">
        <ele>841.4000244140625</ele>
        <time>2020-08-20T06:48:40.000Z</time>
      </trkpt>
      <trkpt lat="42.72738031111657619476318359375" lon="-0.75325724668800830841064453125">
        <ele>841.79998779296875</ele>
        <time>2020-08-20T06:48:42.000Z</time>
      </trkpt>
      <trkpt lat="42.72753797471523284912109375" lon="-0.75331625528633594512939453125">
        <ele>842.79998779296875</ele>
        <time>2020-08-20T06:48:47.000Z</time>
      </trkpt>
      <trkpt lat="42.72763193584978580474853515625" lon="-0.75334173627197742462158203125">
        <ele>843.5999755859375</ele>
        <time>2020-08-20T06:48:50.000Z</time>
      </trkpt>
      <trkpt lat="42.72769278846681118011474609375" lon="-0.75335732661187648773193359375">
        <ele>844</ele>
        <time>2020-08-20T06:48:52.000Z</time>
      </trkpt>
      <trkpt lat="42.7279320918023586273193359375" lon="-0.7534058578312397003173828125">
        <ele>845.20001220703125</ele>
        <time>2020-08-20T06:49:00.000Z</time>
      </trkpt>
      <trkpt lat="42.72796235047280788421630859375" lon="-0.75340795330703258514404296875">
        <ele>845.4000244140625</ele>
        <time>2020-08-20T06:49:01.000Z</time>
      </trkpt>
      <trkpt lat="42.72808338515460491180419921875" lon="-0.753417424857616424560546875">
        <ele>846.20001220703125</ele>
        <time>2020-08-20T06:49:05.000Z</time>
      </trkpt>
      <trkpt lat="42.72826443426311016082763671875" lon="-0.7534276507794857025146484375">
        <ele>846.79998779296875</ele>
        <time>2020-08-20T06:49:11.000Z</time>
      </trkpt>
      <trkpt lat="42.72838815115392208099365234375" lon="-0.753424800932407379150390625">
        <ele>847.4000244140625</ele>
        <time>2020-08-20T06:49:15.000Z</time>
      </trkpt>
      <trkpt lat="42.72864027880132198333740234375" lon="-0.7534092105925083160400390625">
        <ele>848.20001220703125</ele>
        <time>2020-08-20T06:49:23.000Z</time>
      </trkpt>
      <trkpt lat="42.7288410253822803497314453125" lon="-0.7533882558345794677734375">
        <ele>848.4000244140625</ele>
        <time>2020-08-20T06:49:29.000Z</time>
      </trkpt>
      <trkpt lat="42.72898326627910137176513671875" lon="-0.7533693127334117889404296875">
        <ele>848.79998779296875</ele>
        <time>2020-08-20T06:49:33.000Z</time>
      </trkpt>
      <trkpt lat="42.72924528457224369049072265625" lon="-0.75331541709601879119873046875">
        <ele>849</ele>
        <time>2020-08-20T06:49:40.000Z</time>
      </trkpt>
      <trkpt lat="42.7295508049428462982177734375" lon="-0.75325548648834228515625">
        <ele>849.20001220703125</ele>
        <time>2020-08-20T06:49:48.000Z</time>
      </trkpt>
      <trkpt lat="42.7298574149608612060546875" lon="-0.7531815581023693084716796875">
        <ele>848.5999755859375</ele>
        <time>2020-08-20T06:49:56.000Z</time>
      </trkpt>
      <trkpt lat="42.73019067943096160888671875" lon="-0.7530980743467807769775390625">
        <ele>848.79998779296875</ele>
        <time>2020-08-20T06:50:04.000Z</time>
      </trkpt>
      <trkpt lat="42.7305043302476406097412109375" lon="-0.75302842073142528533935546875">
        <ele>848.5999755859375</ele>
        <time>2020-08-20T06:50:12.000Z</time>
      </trkpt>
      <trkpt lat="42.73078168742358684539794921875" lon="-0.75295600108802318572998046875">
        <ele>848</ele>
        <time>2020-08-20T06:50:20.000Z</time>
      </trkpt>
      <trkpt lat="42.73110288195312023162841796875" lon="-0.75287419371306896209716796875">
        <ele>848</ele>
        <time>2020-08-20T06:50:29.000Z</time>
      </trkpt>
      <trkpt lat="42.731420807540416717529296875" lon="-0.75279942713677883148193359375">
        <ele>847.79998779296875</ele>
        <time>2020-08-20T06:50:38.000Z</time>
      </trkpt>
      <trkpt lat="42.731594145298004150390625" lon="-0.75272650457918643951416015625">
        <ele>847.5999755859375</ele>
        <time>2020-08-20T06:50:44.000Z</time>
      </trkpt>
      <trkpt lat="42.73159858770668506622314453125" lon="-0.75272164307534694671630859375">
        <ele>847.4000244140625</ele>
        <time>2020-08-20T06:50:46.000Z</time>
      </trkpt>
      <trkpt lat="42.73159976117312908172607421875" lon="-0.75272566638886928558349609375">
        <ele>847.4000244140625</ele>
        <time>2020-08-20T06:50:49.000Z</time>
      </trkpt>
      <trkpt lat="42.73160244338214397430419921875" lon="-0.7527262531220912933349609375">
        <ele>847.79998779296875</ele>
        <time>2020-08-20T06:51:06.000Z</time>
      </trkpt>
      <trkpt lat="42.73160076700150966644287109375" lon="-0.752726085484027862548828125">
        <ele>847.79998779296875</ele>
        <time>2020-08-20T06:51:08.000Z</time>
      </trkpt>
      <trkpt lat="42.73159825243055820465087890625" lon="-0.7527202181518077850341796875">
        <ele>847.4000244140625</ele>
        <time>2020-08-20T06:56:08.000Z</time>
      </trkpt>
      <trkpt lat="42.7316047064960002899169921875" lon="-0.7527235709130764007568359375">
        <ele>847.4000244140625</ele>
        <time>2020-08-20T06:56:10.000Z</time>
      </trkpt>
      <trkpt lat="42.731629349291324615478515625" lon="-0.7527312822639942169189453125">
        <ele>847.4000244140625</ele>
        <time>2020-08-20T06:56:12.000Z</time>
      </trkpt>
      <trkpt lat="42.73176203481853008270263671875" lon="-0.752694904804229736328125">
        <ele>847.4000244140625</ele>
        <time>2020-08-20T06:56:18.000Z</time>
      </trkpt>
      <trkpt lat="42.731987424194812774658203125" lon="-0.75264863669872283935546875">
        <ele>847</ele>
        <time>2020-08-20T06:56:26.000Z</time>
      </trkpt>
      <trkpt lat="42.73218012414872646331787109375" lon="-0.7526260055601596832275390625">
        <ele>846.79998779296875</ele>
        <time>2020-08-20T06:56:33.000Z</time>
      </trkpt>
      <trkpt lat="42.73226394318044185638427734375" lon="-0.75272700749337673187255859375">
        <ele>847</ele>
        <time>2020-08-20T06:56:38.000Z</time>
      </trkpt>
      <trkpt lat="42.73232010193169116973876953125" lon="-0.75286447070538997650146484375">
        <ele>847.4000244140625</ele>
        <time>2020-08-20T06:56:44.000Z</time>
      </trkpt>
      <trkpt lat="42.7323332615196704864501953125" lon="-0.75287972576916217803955078125">
        <ele>847.79998779296875</ele>
        <time>2020-08-20T06:56:45.000Z</time>
      </trkpt>
      <trkpt lat="42.73230769671499729156494140625" lon="-0.75289883650839328765869140625">
        <ele>847.4000244140625</ele>
        <time>2020-08-20T07:23:20.000Z</time>
      </trkpt>
      <trkpt lat="42.7322960458695888519287109375" lon="-0.75289531610906124114990234375">
        <ele>847.4000244140625</ele>
        <time>2020-08-20T07:23:22.000Z</time>
      </trkpt>
      <trkpt lat="42.732259668409824371337890625" lon="-0.752777047455310821533203125">
        <ele>847</ele>
        <time>2020-08-20T07:23:27.000Z</time>
      </trkpt>
      <trkpt lat="42.7322635240852832794189453125" lon="-0.7526989281177520751953125">
        <ele>846.79998779296875</ele>
        <time>2020-08-20T07:23:30.000Z</time>
      </trkpt>
      <trkpt lat="42.7322635240852832794189453125" lon="-0.7526989281177520751953125">
        <ele>846.5999755859375</ele>
        <time>2020-08-20T07:23:31.000Z</time>
      </trkpt>
      <trkpt lat="42.73225572891533374786376953125" lon="-0.752660371363162994384765625">
        <ele>846.5999755859375</ele>
        <time>2020-08-20T07:23:32.000Z</time>
      </trkpt>
      <trkpt lat="42.7322933636605739593505859375" lon="-0.75258166529238224029541015625">
        <ele>846.4000244140625</ele>
        <time>2020-08-20T07:23:37.000Z</time>
      </trkpt>
      <trkpt lat="42.73234055377542972564697265625" lon="-0.7525700144469738006591796875">
        <ele>846.4000244140625</ele>
        <time>2020-08-20T07:23:38.000Z</time>
      </trkpt>
      <trkpt lat="42.73259586654603481292724609375" lon="-0.75251913629472255706787109375">
        <ele>846</ele>
        <time>2020-08-20T07:23:48.000Z</time>
      </trkpt>
      <trkpt lat="42.73278814740478992462158203125" lon="-0.7524667493999004364013671875">
        <ele>846.4000244140625</ele>
        <time>2020-08-20T07:23:55.000Z</time>
      </trkpt>
      <trkpt lat="42.73294639773666858673095703125" lon="-0.75240732170641422271728515625">
        <ele>846.4000244140625</ele>
        <time>2020-08-20T07:24:02.000Z</time>
      </trkpt>
      <trkpt lat="42.73300188593566417694091796875" lon="-0.75239759869873523712158203125">
        <ele>846.5999755859375</ele>
        <time>2020-08-20T07:24:03.000Z</time>
      </trkpt>
      <trkpt lat="42.73321411572396755218505859375" lon="-0.752362310886383056640625">
        <ele>847</ele>
        <time>2020-08-20T07:24:11.000Z</time>
      </trkpt>
      <trkpt lat="42.73342466913163661956787109375" lon="-0.75231428258121013641357421875">
        <ele>847.5999755859375</ele>
        <time>2020-08-20T07:24:19.000Z</time>
      </trkpt>
      <trkpt lat="42.7334778942167758941650390625" lon="-0.75230263173580169677734375">
        <ele>847.79998779296875</ele>
        <time>2020-08-20T07:24:21.000Z</time>
      </trkpt>
      <trkpt lat="42.73365735076367855072021484375" lon="-0.752250663936138153076171875">
        <ele>848.4000244140625</ele>
        <time>2020-08-20T07:24:28.000Z</time>
      </trkpt>
      <trkpt lat="42.73373161442577838897705078125" lon="-0.75223213993012905120849609375">
        <ele>848.5999755859375</ele>
        <time>2020-08-20T07:24:31.000Z</time>
      </trkpt>
      <trkpt lat="42.7338762022554874420166015625" lon="-0.7521985284984111785888671875">
        <ele>849</ele>
        <time>2020-08-20T07:24:38.000Z</time>
      </trkpt>
      <trkpt lat="42.73399648256599903106689453125" lon="-0.75216793455183506011962890625">
        <ele>849.79998779296875</ele>
        <time>2020-08-20T07:24:42.000Z</time>
      </trkpt>
      <trkpt lat="42.7341434173285961151123046875" lon="-0.752138681709766387939453125">
        <ele>850.20001220703125</ele>
        <time>2020-08-20T07:24:48.000Z</time>
      </trkpt>
      <trkpt lat="42.7342701517045497894287109375" lon="-0.752111189067363739013671875">
        <ele>850.79998779296875</ele>
        <time>2020-08-20T07:24:53.000Z</time>
      </trkpt>
      <trkpt lat="42.7343727461993694305419921875" lon="-0.75208495371043682098388671875">
        <ele>851</ele>
        <time>2020-08-20T07:24:57.000Z</time>
      </trkpt>
      <trkpt lat="42.7347418852150440216064453125" lon="-0.7520013861358165740966796875">
        <ele>851.79998779296875</ele>
        <time>2020-08-20T07:25:11.000Z</time>
      </trkpt>
      <trkpt lat="42.734795697033405303955078125" lon="-0.75199560262262821197509765625">
        <ele>851.79998779296875</ele>
        <time>2020-08-20T07:25:14.000Z</time>
      </trkpt>
      <trkpt lat="42.7349581383168697357177734375" lon="-0.7519504241645336151123046875">
        <ele>852</ele>
        <time>2020-08-20T07:25:19.000Z</time>
      </trkpt>
      <trkpt lat="42.735198698937892913818359375" lon="-0.7518917508423328399658203125">
        <ele>852.4000244140625</ele>
        <time>2020-08-20T07:25:28.000Z</time>
      </trkpt>
      <trkpt lat="42.7354463003575801849365234375" lon="-0.7518401183187961578369140625">
        <ele>852.79998779296875</ele>
        <time>2020-08-20T07:25:38.000Z</time>
      </trkpt>
      <trkpt lat="42.73550145328044891357421875" lon="-0.7518270425498485565185546875">
        <ele>852.79998779296875</ele>
        <time>2020-08-20T07:25:39.000Z</time>
      </trkpt>
      <trkpt lat="42.73566104471683502197265625" lon="-0.75179175473749637603759765625">
        <ele>853</ele>
        <time>2020-08-20T07:25:45.000Z</time>
      </trkpt>
      <trkpt lat="42.7357125096023082733154296875" lon="-0.751800723373889923095703125">
        <ele>853</ele>
        <time>2020-08-20T07:25:47.000Z</time>
      </trkpt>
      <trkpt lat="42.73573388345539569854736328125" lon="-0.751986466348171234130859375">
        <ele>853.20001220703125</ele>
        <time>2020-08-20T07:25:52.000Z</time>
      </trkpt>
      <trkpt lat="42.73573958314955234527587890625" lon="-0.752018652856349945068359375">
        <ele>853.4000244140625</ele>
        <time>2020-08-20T07:25:53.000Z</time>
      </trkpt>
      <trkpt lat="42.735756933689117431640625" lon="-0.75215108692646026611328125">
        <ele>854</ele>
        <time>2020-08-20T07:25:57.000Z</time>
      </trkpt>
      <trkpt lat="42.73577277548611164093017578125" lon="-0.75233892537653446197509765625">
        <ele>854.4000244140625</ele>
        <time>2020-08-20T07:26:05.000Z</time>
      </trkpt>
      <trkpt lat="42.73579238913953304290771484375" lon="-0.7524680905044078826904296875">
        <ele>854.79998779296875</ele>
        <time>2020-08-20T07:26:08.000Z</time>
      </trkpt>
      <trkpt lat="42.7358026988804340362548828125" lon="-0.75261418707668781280517578125">
        <ele>855.5999755859375</ele>
        <time>2020-08-20T07:26:12.000Z</time>
      </trkpt>
      <trkpt lat="42.73580362088978290557861328125" lon="-0.752700269222259521484375">
        <ele>856</ele>
        <time>2020-08-20T07:26:15.000Z</time>
      </trkpt>
      <trkpt lat="42.7357963286340236663818359375" lon="-0.7528144307434558868408203125">
        <ele>856.5999755859375</ele>
        <time>2020-08-20T07:26:19.000Z</time>
      </trkpt>
      <trkpt lat="42.7357752062380313873291015625" lon="-0.7528888620436191558837890625">
        <ele>857</ele>
        <time>2020-08-20T07:26:22.000Z</time>
      </trkpt>
      <trkpt lat="42.73573421873152256011962890625" lon="-0.75301869772374629974365234375">
        <ele>857.5999755859375</ele>
        <time>2020-08-20T07:26:27.000Z</time>
      </trkpt>
      <trkpt lat="42.73567504249513149261474609375" lon="-0.75314023531973361968994140625">
        <ele>858</ele>
        <time>2020-08-20T07:26:32.000Z</time>
      </trkpt>
      <trkpt lat="42.73563715629279613494873046875" lon="-0.75321617536246776580810546875">
        <ele>858.20001220703125</ele>
        <time>2020-08-20T07:26:35.000Z</time>
      </trkpt>
      <trkpt lat="42.73553774692118167877197265625" lon="-0.7534088753163814544677734375">
        <ele>859</ele>
        <time>2020-08-20T07:26:44.000Z</time>
      </trkpt>
      <trkpt lat="42.73541629314422607421875" lon="-0.75362537987530231475830078125">
        <ele>859.79998779296875</ele>
        <time>2020-08-20T07:26:52.000Z</time>
      </trkpt>
      <trkpt lat="42.7353774011135101318359375" lon="-0.7536992244422435760498046875">
        <ele>860.20001220703125</ele>
        <time>2020-08-20T07:26:55.000Z</time>
      </trkpt>
      <trkpt lat="42.7353021316230297088623046875" lon="-0.75384766794741153717041015625">
        <ele>860.5999755859375</ele>
        <time>2020-08-20T07:27:01.000Z</time>
      </trkpt>
      <trkpt lat="42.73523616604506969451904296875" lon="-0.754006169736385345458984375">
        <ele>861.20001220703125</ele>
        <time>2020-08-20T07:27:07.000Z</time>
      </trkpt>
      <trkpt lat="42.73517598398029804229736328125" lon="-0.75416634790599346160888671875">
        <ele>861.79998779296875</ele>
        <time>2020-08-20T07:27:13.000Z</time>
      </trkpt>
      <trkpt lat="42.7351468987762928009033203125" lon="-0.75434974394738674163818359375">
        <ele>862.20001220703125</ele>
        <time>2020-08-20T07:27:19.000Z</time>
      </trkpt>
      <trkpt lat="42.73513977415859699249267578125" lon="-0.75441353023052215576171875">
        <ele>862.4000244140625</ele>
        <time>2020-08-20T07:27:22.000Z</time>
      </trkpt>
      <trkpt lat="42.7351123653352260589599609375" lon="-0.7547335512936115264892578125">
        <ele>863.4000244140625</ele>
        <time>2020-08-20T07:27:31.000Z</time>
      </trkpt>
      <trkpt lat="42.73510758765041828155517578125" lon="-0.7548260875046253204345703125">
        <ele>863.5999755859375</ele>
        <time>2020-08-20T07:27:34.000Z</time>
      </trkpt>
      <trkpt lat="42.7351304702460765838623046875" lon="-0.7550245709717273712158203125">
        <ele>864.4000244140625</ele>
        <time>2020-08-20T07:27:41.000Z</time>
      </trkpt>
      <trkpt lat="42.73513541556894779205322265625" lon="-0.7550520636141300201416015625">
        <ele>864.5999755859375</ele>
        <time>2020-08-20T07:27:42.000Z</time>
      </trkpt>
      <trkpt lat="42.7351807616651058197021484375" lon="-0.755237638950347900390625">
        <ele>865.20001220703125</ele>
        <time>2020-08-20T07:27:49.000Z</time>
      </trkpt>
      <trkpt lat="42.7351955138146877288818359375" lon="-0.7552894391119480133056640625">
        <ele>865.79998779296875</ele>
        <time>2020-08-20T07:27:52.000Z</time>
      </trkpt>
      <trkpt lat="42.73520783521234989166259765625" lon="-0.7553943805396556854248046875">
        <ele>866.4000244140625</ele>
        <time>2020-08-20T07:27:56.000Z</time>
      </trkpt>
      <trkpt lat="42.73521722294390201568603515625" lon="-0.75544609688222408294677734375">
        <ele>866.5999755859375</ele>
        <time>2020-08-20T07:27:57.000Z</time>
      </trkpt>
      <trkpt lat="42.73524723015725612640380859375" lon="-0.75560116209089756011962890625">
        <ele>867.4000244140625</ele>
        <time>2020-08-20T07:28:03.000Z</time>
      </trkpt>
      <trkpt lat="42.73525360040366649627685546875" lon="-0.75562714599072933197021484375">
        <ele>867.5999755859375</ele>
        <time>2020-08-20T07:28:04.000Z</time>
      </trkpt>
      <trkpt lat="42.73531529121100902557373046875" lon="-0.7558295689523220062255859375">
        <ele>868.79998779296875</ele>
        <time>2020-08-20T07:28:12.000Z</time>
      </trkpt>
      <trkpt lat="42.735345549881458282470703125" lon="-0.75595689006149768829345703125">
        <ele>869.5999755859375</ele>
        <time>2020-08-20T07:28:17.000Z</time>
      </trkpt>
      <trkpt lat="42.73535502143204212188720703125" lon="-0.755980275571346282958984375">
        <ele>869.79998779296875</ele>
        <time>2020-08-20T07:28:18.000Z</time>
      </trkpt>
      <trkpt lat="42.73536306805908679962158203125" lon="-0.75600466690957546234130859375">
        <ele>870</ele>
        <time>2020-08-20T07:28:19.000Z</time>
      </trkpt>
      <trkpt lat="42.7353983558714389801025390625" lon="-0.75616274960339069366455078125">
        <ele>870.79998779296875</ele>
        <time>2020-08-20T07:28:25.000Z</time>
      </trkpt>
      <trkpt lat="42.735442109405994415283203125" lon="-0.7563274540007114410400390625">
        <ele>871.79998779296875</ele>
        <time>2020-08-20T07:28:31.000Z</time>
      </trkpt>
      <trkpt lat="42.735442109405994415283203125" lon="-0.7563274540007114410400390625">
        <ele>872</ele>
        <time>2020-08-20T07:28:32.000Z</time>
      </trkpt>
      <trkpt lat="42.735522575676441192626953125" lon="-0.75660011731088161468505859375">
        <ele>872.79998779296875</ele>
        <time>2020-08-20T07:28:41.000Z</time>
      </trkpt>
      <trkpt lat="42.73554042913019657135009765625" lon="-0.75665594078600406646728515625">
        <ele>873</ele>
        <time>2020-08-20T07:28:43.000Z</time>
      </trkpt>
      <trkpt lat="42.7356018684804439544677734375" lon="-0.75681653805077075958251953125">
        <ele>874</ele>
        <time>2020-08-20T07:28:50.000Z</time>
      </trkpt>
      <trkpt lat="42.735621146857738494873046875" lon="-0.7568716071546077728271484375">
        <ele>874</ele>
        <time>2020-08-20T07:28:51.000Z</time>
      </trkpt>
      <trkpt lat="42.7356984280049800872802734375" lon="-0.75708509422838687896728515625">
        <ele>874.79998779296875</ele>
        <time>2020-08-20T07:28:59.000Z</time>
      </trkpt>
      <trkpt lat="42.73571695201098918914794921875" lon="-0.7571378163993358612060546875">
        <ele>875</ele>
        <time>2020-08-20T07:29:01.000Z</time>
      </trkpt>
      <trkpt lat="42.73580077104270458221435546875" lon="-0.7573533989489078521728515625">
        <ele>875.5999755859375</ele>
        <time>2020-08-20T07:29:10.000Z</time>
      </trkpt>
      <trkpt lat="42.73588274605572223663330078125" lon="-0.7575817219913005828857421875">
        <ele>876</ele>
        <time>2020-08-20T07:29:17.000Z</time>
      </trkpt>
      <trkpt lat="42.73590269498527050018310546875" lon="-0.75763897038996219635009765625">
        <ele>876</ele>
        <time>2020-08-20T07:29:19.000Z</time>
      </trkpt>
      <trkpt lat="42.7359881065785884857177734375" lon="-0.75788640417158603668212890625">
        <ele>876.79998779296875</ele>
        <time>2020-08-20T07:29:28.000Z</time>
      </trkpt>
      <trkpt lat="42.73601241409778594970703125" lon="-0.75794239528477191925048828125">
        <ele>877</ele>
        <time>2020-08-20T07:29:30.000Z</time>
      </trkpt>
      <trkpt lat="42.736108638346195220947265625" lon="-0.7581905834376811981201171875">
        <ele>877.5999755859375</ele>
        <time>2020-08-20T07:29:39.000Z</time>
      </trkpt>
      <trkpt lat="42.7362043596804141998291015625" lon="-0.7584534399211406707763671875">
        <ele>878</ele>
        <time>2020-08-20T07:29:48.000Z</time>
      </trkpt>
      <trkpt lat="42.73621383123099803924560546875" lon="-0.75848319567739963531494140625">
        <ele>878</ele>
        <time>2020-08-20T07:29:49.000Z</time>
      </trkpt>
      <trkpt lat="42.7362985722720623016357421875" lon="-0.75871554203331470489501953125">
        <ele>878.5999755859375</ele>
        <time>2020-08-20T07:29:58.000Z</time>
      </trkpt>
      <trkpt lat="42.73640007711946964263916015625" lon="-0.7589798234403133392333984375">
        <ele>878.5999755859375</ele>
        <time>2020-08-20T07:30:06.000Z</time>
      </trkpt>
      <trkpt lat="42.73648205213248729705810546875" lon="-0.7592569291591644287109375">
        <ele>878.79998779296875</ele>
        <time>2020-08-20T07:30:15.000Z</time>
      </trkpt>
      <trkpt lat="42.73659621365368366241455078125" lon="-0.75958826579153537750244140625">
        <ele>878.79998779296875</ele>
        <time>2020-08-20T07:30:26.000Z</time>
      </trkpt>
      <trkpt lat="42.7366908453404903411865234375" lon="-0.759875513613224029541015625">
        <ele>878.5999755859375</ele>
        <time>2020-08-20T07:30:34.000Z</time>
      </trkpt>
      <trkpt lat="42.73676603101193904876708984375" lon="-0.76008648611605167388916015625">
        <ele>878.79998779296875</ele>
        <time>2020-08-20T07:30:41.000Z</time>
      </trkpt>
      <trkpt lat="42.73678983561694622039794921875" lon="-0.76014633290469646453857421875">
        <ele>879</ele>
        <time>2020-08-20T07:30:44.000Z</time>
      </trkpt>
      <trkpt lat="42.7368869818747043609619140625" lon="-0.76045445166528224945068359375">
        <ele>879.5999755859375</ele>
        <time>2020-08-20T07:30:53.000Z</time>
      </trkpt>
      <trkpt lat="42.73690416477620601654052734375" lon="-0.76051287353038787841796875">
        <ele>880</ele>
        <time>2020-08-20T07:30:56.000Z</time>
      </trkpt>
      <trkpt lat="42.736963592469692230224609375" lon="-0.7607128657400608062744140625">
        <ele>880.20001220703125</ele>
        <time>2020-08-20T07:31:02.000Z</time>
      </trkpt>
      <trkpt lat="42.73701111786067485809326171875" lon="-0.76086114160716533660888671875">
        <ele>881</ele>
        <time>2020-08-20T07:31:08.000Z</time>
      </trkpt>
      <trkpt lat="42.73703299462795257568359375" lon="-0.7609227485954761505126953125">
        <ele>881</ele>
        <time>2020-08-20T07:31:09.000Z</time>
      </trkpt>
      <trkpt lat="42.7370965294539928436279296875" lon="-0.76112709939479827880859375">
        <ele>881.79998779296875</ele>
        <time>2020-08-20T07:31:16.000Z</time>
      </trkpt>
      <trkpt lat="42.7371154725551605224609375" lon="-0.7611822523176670074462890625">
        <ele>882</ele>
        <time>2020-08-20T07:31:18.000Z</time>
      </trkpt>
      <trkpt lat="42.73716383613646030426025390625" lon="-0.7613193802535533905029296875">
        <ele>882.79998779296875</ele>
        <time>2020-08-20T07:31:23.000Z</time>
      </trkpt>
      <trkpt lat="42.7371816895902156829833984375" lon="-0.76137478463351726531982421875">
        <ele>883</ele>
        <time>2020-08-20T07:31:26.000Z</time>
      </trkpt>
      <trkpt lat="42.73725855164229869842529296875" lon="-0.761597156524658203125">
        <ele>884.20001220703125</ele>
        <time>2020-08-20T07:31:33.000Z</time>
      </trkpt>
      <trkpt lat="42.73734773509204387664794921875" lon="-0.761811733245849609375">
        <ele>885.20001220703125</ele>
        <time>2020-08-20T07:31:41.000Z</time>
      </trkpt>
      <trkpt lat="42.73735980503261089324951171875" lon="-0.7618380524218082427978515625">
        <ele>885.4000244140625</ele>
        <time>2020-08-20T07:31:42.000Z</time>
      </trkpt>
      <trkpt lat="42.73742032237350940704345703125" lon="-0.76199471019208431243896484375">
        <ele>886.20001220703125</ele>
        <time>2020-08-20T07:31:48.000Z</time>
      </trkpt>
      <trkpt lat="42.7374418638646602630615234375" lon="-0.76204868964850902557373046875">
        <ele>886.5999755859375</ele>
        <time>2020-08-20T07:31:50.000Z</time>
      </trkpt>
      <trkpt lat="42.73746944032609462738037109375" lon="-0.76212898828089237213134765625">
        <ele>887.20001220703125</ele>
        <time>2020-08-20T07:31:53.000Z</time>
      </trkpt>
      <trkpt lat="42.73753850720822811126708984375" lon="-0.76227567158639430999755859375">
        <ele>887.5999755859375</ele>
        <time>2020-08-20T07:31:59.000Z</time>
      </trkpt>
      <trkpt lat="42.737587876617908477783203125" lon="-0.76240927912294864654541015625">
        <ele>888</ele>
        <time>2020-08-20T07:32:04.000Z</time>
      </trkpt>
      <trkpt lat="42.737640850245952606201171875" lon="-0.76256233267486095428466796875">
        <ele>888.79998779296875</ele>
        <time>2020-08-20T07:32:10.000Z</time>
      </trkpt>
      <trkpt lat="42.73766071535646915435791015625" lon="-0.76261103153228759765625">
        <ele>889</ele>
        <time>2020-08-20T07:32:12.000Z</time>
      </trkpt>
      <trkpt lat="42.73771025240421295166015625" lon="-0.7627711258828639984130859375">
        <ele>890.20001220703125</ele>
        <time>2020-08-20T07:32:18.000Z</time>
      </trkpt>
      <trkpt lat="42.73776448331773281097412109375" lon="-0.7629977725446224212646484375">
        <ele>891.20001220703125</ele>
        <time>2020-08-20T07:32:26.000Z</time>
      </trkpt>
      <trkpt lat="42.73780840449035167694091796875" lon="-0.76322550885379314422607421875">
        <ele>892.20001220703125</ele>
        <time>2020-08-20T07:32:34.000Z</time>
      </trkpt>
      <trkpt lat="42.73781779222190380096435546875" lon="-0.76331234537065029144287109375">
        <ele>892.5999755859375</ele>
        <time>2020-08-20T07:32:37.000Z</time>
      </trkpt>
      <trkpt lat="42.73782516829669475555419921875" lon="-0.7633987627923488616943359375">
        <ele>893.20001220703125</ele>
        <time>2020-08-20T07:32:40.000Z</time>
      </trkpt>
      <trkpt lat="42.73785752244293689727783203125" lon="-0.7635100744664669036865234375">
        <ele>894</ele>
        <time>2020-08-20T07:32:44.000Z</time>
      </trkpt>
      <trkpt lat="42.73786271922290325164794921875" lon="-0.7635898701846599578857421875">
        <ele>894.4000244140625</ele>
        <time>2020-08-20T07:32:47.000Z</time>
      </trkpt>
      <trkpt lat="42.7379018627107143402099609375" lon="-0.7637518085539340972900390625">
        <ele>895.4000244140625</ele>
        <time>2020-08-20T07:32:53.000Z</time>
      </trkpt>
      <trkpt lat="42.7379420958459377288818359375" lon="-0.76385482214391231536865234375">
        <ele>896.4000244140625</ele>
        <time>2020-08-20T07:32:57.000Z</time>
      </trkpt>
      <trkpt lat="42.73799800314009189605712890625" lon="-0.7639804668724536895751953125">
        <ele>897.20001220703125</ele>
        <time>2020-08-20T07:33:02.000Z</time>
      </trkpt>
      <trkpt lat="42.73802164010703563690185546875" lon="-0.7640267349779605865478515625">
        <ele>897.5999755859375</ele>
        <time>2020-08-20T07:33:04.000Z</time>
      </trkpt>
      <trkpt lat="42.73808232508599758148193359375" lon="-0.76413511298596858978271484375">
        <ele>898.5999755859375</ele>
        <time>2020-08-20T07:33:09.000Z</time>
      </trkpt>
      <trkpt lat="42.738122642040252685546875" lon="-0.7642002403736114501953125">
        <ele>899.20001220703125</ele>
        <time>2020-08-20T07:33:12.000Z</time>
      </trkpt>
      <trkpt lat="42.73815072141587734222412109375" lon="-0.7642351090908050537109375">
        <ele>899.5999755859375</ele>
        <time>2020-08-20T07:33:14.000Z</time>
      </trkpt>
      <trkpt lat="42.7382156811654567718505859375" lon="-0.7643450796604156494140625">
        <ele>900.5999755859375</ele>
        <time>2020-08-20T07:33:19.000Z</time>
      </trkpt>
      <trkpt lat="42.7382250688970088958740234375" lon="-0.76436989009380340576171875">
        <ele>900.79998779296875</ele>
        <time>2020-08-20T07:33:20.000Z</time>
      </trkpt>
      <trkpt lat="42.7382602728903293609619140625" lon="-0.76450131833553314208984375">
        <ele>901.5999755859375</ele>
        <time>2020-08-20T07:33:25.000Z</time>
      </trkpt>
      <trkpt lat="42.73828089237213134765625" lon="-0.76458019204437732696533203125">
        <ele>902</ele>
        <time>2020-08-20T07:33:28.000Z</time>
      </trkpt>
      <trkpt lat="42.73829556070268154144287109375" lon="-0.76466384343802928924560546875">
        <ele>902.5999755859375</ele>
        <time>2020-08-20T07:33:31.000Z</time>
      </trkpt>
      <trkpt lat="42.73832447826862335205078125" lon="-0.76481203548610210418701171875">
        <ele>903.4000244140625</ele>
        <time>2020-08-20T07:33:36.000Z</time>
      </trkpt>
      <trkpt lat="42.73832942359149456024169921875" lon="-0.7649376802146434783935546875">
        <ele>903.79998779296875</ele>
        <time>2020-08-20T07:33:40.000Z</time>
      </trkpt>
      <trkpt lat="42.73834015242755413055419921875" lon="-0.76502962969243526458740234375">
        <ele>904.20001220703125</ele>
        <time>2020-08-20T07:33:43.000Z</time>
      </trkpt>
      <trkpt lat="42.73836202919483184814453125" lon="-0.7651901431381702423095703125">
        <ele>904.79998779296875</ele>
        <time>2020-08-20T07:33:48.000Z</time>
      </trkpt>
      <trkpt lat="42.73837854154407978057861328125" lon="-0.76535694301128387451171875">
        <ele>905.4000244140625</ele>
        <time>2020-08-20T07:33:53.000Z</time>
      </trkpt>
      <trkpt lat="42.73838440887629985809326171875" lon="-0.76545543037354946136474609375">
        <ele>906</ele>
        <time>2020-08-20T07:33:56.000Z</time>
      </trkpt>
      <trkpt lat="42.73839849047362804412841796875" lon="-0.765591971576213836669921875">
        <ele>906.20001220703125</ele>
        <time>2020-08-20T07:34:00.000Z</time>
      </trkpt>
      <trkpt lat="42.7384118176996707916259765625" lon="-0.76590855605900287628173828125">
        <ele>906.79998779296875</ele>
        <time>2020-08-20T07:34:09.000Z</time>
      </trkpt>
      <trkpt lat="42.73841709829866886138916015625" lon="-0.76611089520156383514404296875">
        <ele>907.79998779296875</ele>
        <time>2020-08-20T07:34:15.000Z</time>
      </trkpt>
      <trkpt lat="42.7384148351848125457763671875" lon="-0.76617543585598468780517578125">
        <ele>908</ele>
        <time>2020-08-20T07:34:17.000Z</time>
      </trkpt>
      <trkpt lat="42.73841978050768375396728515625" lon="-0.76637928374111652374267578125">
        <ele>908.79998779296875</ele>
        <time>2020-08-20T07:34:23.000Z</time>
      </trkpt>
      <trkpt lat="42.73842028342187404632568359375" lon="-0.76648414134979248046875">
        <ele>909</ele>
        <time>2020-08-20T07:34:26.000Z</time>
      </trkpt>
      <trkpt lat="42.73841156624257564544677734375" lon="-0.76669980771839618682861328125">
        <ele>909.79998779296875</ele>
        <time>2020-08-20T07:34:32.000Z</time>
      </trkpt>
      <trkpt lat="42.73841307498514652252197265625" lon="-0.766770131886005401611328125">
        <ele>910</ele>
        <time>2020-08-20T07:34:34.000Z</time>
      </trkpt>
      <trkpt lat="42.73841910995543003082275390625" lon="-0.76705067418515682220458984375">
        <ele>911</ele>
        <time>2020-08-20T07:34:42.000Z</time>
      </trkpt>
      <trkpt lat="42.73842933587729930877685546875" lon="-0.767156369984149932861328125">
        <ele>911.20001220703125</ele>
        <time>2020-08-20T07:34:45.000Z</time>
      </trkpt>
      <trkpt lat="42.73845582269132137298583984375" lon="-0.7673572003841400146484375">
        <ele>912</ele>
        <time>2020-08-20T07:34:51.000Z</time>
      </trkpt>
      <trkpt lat="42.738471329212188720703125" lon="-0.76746021397411823272705078125">
        <ele>912.20001220703125</ele>
        <time>2020-08-20T07:34:54.000Z</time>
      </trkpt>
      <trkpt lat="42.7385372109711170196533203125" lon="-0.767774619162082672119140625">
        <ele>913.20001220703125</ele>
        <time>2020-08-20T07:35:03.000Z</time>
      </trkpt>
      <trkpt lat="42.73858255706727504730224609375" lon="-0.768012665212154388427734375">
        <ele>914.20001220703125</ele>
        <time>2020-08-20T07:35:10.000Z</time>
      </trkpt>
      <trkpt lat="42.73859529756009578704833984375" lon="-0.76808114536106586456298828125">
        <ele>914.5999755859375</ele>
        <time>2020-08-20T07:35:12.000Z</time>
      </trkpt>
      <trkpt lat="42.73861155845224857330322265625" lon="-0.76821609400212764739990234375">
        <ele>915.4000244140625</ele>
        <time>2020-08-20T07:35:16.000Z</time>
      </trkpt>
      <trkpt lat="42.73861683905124664306640625" lon="-0.768315754830837249755859375">
        <ele>915.5999755859375</ele>
        <time>2020-08-20T07:35:19.000Z</time>
      </trkpt>
      <trkpt lat="42.73862748406827449798583984375" lon="-0.7684768550097942352294921875">
        <ele>916.4000244140625</ele>
        <time>2020-08-20T07:35:24.000Z</time>
      </trkpt>
      <trkpt lat="42.73863603360950946807861328125" lon="-0.768535025417804718017578125">
        <ele>916.79998779296875</ele>
        <time>2020-08-20T07:35:26.000Z</time>
      </trkpt>
      <trkpt lat="42.73864240385591983795166015625" lon="-0.76871640980243682861328125">
        <ele>917.20001220703125</ele>
        <time>2020-08-20T07:35:32.000Z</time>
      </trkpt>
      <trkpt lat="42.73864902555942535400390625" lon="-0.76880685053765773773193359375">
        <ele>918</ele>
        <time>2020-08-20T07:35:35.000Z</time>
      </trkpt>
      <trkpt lat="42.7386545576155185699462890625" lon="-0.7688986323773860931396484375">
        <ele>918.4000244140625</ele>
        <time>2020-08-20T07:35:38.000Z</time>
      </trkpt>
      <trkpt lat="42.73865975439548492431640625" lon="-0.76908479444682598114013671875">
        <ele>919.4000244140625</ele>
        <time>2020-08-20T07:35:44.000Z</time>
      </trkpt>
      <trkpt lat="42.73865933530032634735107421875" lon="-0.76911647804081439971923828125">
        <ele>919.4000244140625</ele>
        <time>2020-08-20T07:35:45.000Z</time>
      </trkpt>
      <trkpt lat="42.73866905830800533294677734375" lon="-0.76929920352995395660400390625">
        <ele>920.5999755859375</ele>
        <time>2020-08-20T07:35:51.000Z</time>
      </trkpt>
      <trkpt lat="42.73867056705057621002197265625" lon="-0.769421160221099853515625">
        <ele>921</ele>
        <time>2020-08-20T07:35:55.000Z</time>
      </trkpt>
      <trkpt lat="42.738676853477954864501953125" lon="-0.76951344497501850128173828125">
        <ele>921.5999755859375</ele>
        <time>2020-08-20T07:35:58.000Z</time>
      </trkpt>
      <trkpt lat="42.738680206239223480224609375" lon="-0.7696395926177501678466796875">
        <ele>922.20001220703125</ele>
        <time>2020-08-20T07:36:02.000Z</time>
      </trkpt>
      <trkpt lat="42.73868347518146038055419921875" lon="-0.76973238028585910797119140625">
        <ele>922.5999755859375</ele>
        <time>2020-08-20T07:36:05.000Z</time>
      </trkpt>
      <trkpt lat="42.73870132863521575927734375" lon="-0.7698887027800083160400390625">
        <ele>923.4000244140625</ele>
        <time>2020-08-20T07:36:10.000Z</time>
      </trkpt>
      <trkpt lat="42.73871566168963909149169921875" lon="-0.770012252032756805419921875">
        <ele>923.4000244140625</ele>
        <time>2020-08-20T07:36:14.000Z</time>
      </trkpt>
      <trkpt lat="42.73874097503721714019775390625" lon="-0.77013085596263408660888671875">
        <ele>924</ele>
        <time>2020-08-20T07:36:18.000Z</time>
      </trkpt>
      <trkpt lat="42.73878975771367549896240234375" lon="-0.770303271710872650146484375">
        <ele>924.5999755859375</ele>
        <time>2020-08-20T07:36:24.000Z</time>
      </trkpt>
      <trkpt lat="42.7388000674545764923095703125" lon="-0.77033319510519504547119140625">
        <ele>924.5999755859375</ele>
        <time>2020-08-20T07:36:25.000Z</time>
      </trkpt>
      <trkpt lat="42.73892252705991268157958984375" lon="-0.77063418924808502197265625">
        <ele>925.4000244140625</ele>
        <time>2020-08-20T07:36:35.000Z</time>
      </trkpt>
      <trkpt lat="42.73895840160548686981201171875" lon="-0.77072161249816417694091796875">
        <ele>925.5999755859375</ele>
        <time>2020-08-20T07:36:38.000Z</time>
      </trkpt>
      <trkpt lat="42.7390136383473873138427734375" lon="-0.77083057723939418792724609375">
        <ele>926</ele>
        <time>2020-08-20T07:36:42.000Z</time>
      </trkpt>
      <trkpt lat="42.7390842139720916748046875" lon="-0.7709672860801219940185546875">
        <ele>926.5999755859375</ele>
        <time>2020-08-20T07:36:47.000Z</time>
      </trkpt>
      <trkpt lat="42.73910793475806713104248046875" lon="-0.77102336101233959197998046875">
        <ele>927</ele>
        <time>2020-08-20T07:36:49.000Z</time>
      </trkpt>
      <trkpt lat="42.73916535079479217529296875" lon="-0.771161578595638275146484375">
        <ele>927.79998779296875</ele>
        <time>2020-08-20T07:36:54.000Z</time>
      </trkpt>
      <trkpt lat="42.73918949067592620849609375" lon="-0.77121547423303127288818359375">
        <ele>928.20001220703125</ele>
        <time>2020-08-20T07:36:56.000Z</time>
      </trkpt>
      <trkpt lat="42.739226035773754119873046875" lon="-0.7713330723345279693603515625">
        <ele>928.79998779296875</ele>
        <time>2020-08-20T07:37:00.000Z</time>
      </trkpt>
      <trkpt lat="42.73927272297441959381103515625" lon="-0.77144329436123371124267578125">
        <ele>929.5999755859375</ele>
        <time>2020-08-20T07:37:04.000Z</time>
      </trkpt>
      <trkpt lat="42.73930105380713939666748046875" lon="-0.7715302146971225738525390625">
        <ele>930</ele>
        <time>2020-08-20T07:37:07.000Z</time>
      </trkpt>
      <trkpt lat="42.7393470704555511474609375" lon="-0.77164404094219207763671875">
        <ele>930.4000244140625</ele>
        <time>2020-08-20T07:37:11.000Z</time>
      </trkpt>
      <trkpt lat="42.7393676899373531341552734375" lon="-0.77170296572148799896240234375">
        <ele>930.79998779296875</ele>
        <time>2020-08-20T07:37:13.000Z</time>
      </trkpt>
      <trkpt lat="42.73943088948726654052734375" lon="-0.77187663875520229339599609375">
        <ele>931.79998779296875</ele>
        <time>2020-08-20T07:37:19.000Z</time>
      </trkpt>
      <trkpt lat="42.7394404448568820953369140625" lon="-0.77190664596855640411376953125">
        <ele>932</ele>
        <time>2020-08-20T07:37:20.000Z</time>
      </trkpt>
      <trkpt lat="42.73949819616973400115966796875" lon="-0.77204427681863307952880859375">
        <ele>933</ele>
        <time>2020-08-20T07:37:27.000Z</time>
      </trkpt>
      <trkpt lat="42.7394813485443592071533203125" lon="-0.77203354798257350921630859375">
        <ele>933.20001220703125</ele>
        <time>2020-08-20T07:37:43.000Z</time>
      </trkpt>
      <trkpt lat="42.73951043374836444854736328125" lon="-0.7721179537475109100341796875">
        <ele>933</ele>
        <time>2020-08-20T07:37:48.000Z</time>
      </trkpt>
      <trkpt lat="42.73957162164151668548583984375" lon="-0.77227595262229442596435546875">
        <ele>933.79998779296875</ele>
        <time>2020-08-20T07:37:54.000Z</time>
      </trkpt>
      <trkpt lat="42.73959106765687465667724609375" lon="-0.77233127318322658538818359375">
        <ele>934</ele>
        <time>2020-08-20T07:37:56.000Z</time>
      </trkpt>
      <trkpt lat="42.7396583743393421173095703125" lon="-0.7725326903164386749267578125">
        <ele>935</ele>
        <time>2020-08-20T07:38:03.000Z</time>
      </trkpt>
      <trkpt lat="42.7396898902952671051025390625" lon="-0.7726258970797061920166015625">
        <ele>935.4000244140625</ele>
        <time>2020-08-20T07:38:06.000Z</time>
      </trkpt>
      <trkpt lat="42.73971520364284515380859375" lon="-0.7727492786943912506103515625">
        <ele>936</ele>
        <time>2020-08-20T07:38:10.000Z</time>
      </trkpt>
      <trkpt lat="42.739734984934329986572265625" lon="-0.7728450000286102294921875">
        <ele>936.20001220703125</ele>
        <time>2020-08-20T07:38:13.000Z</time>
      </trkpt>
      <trkpt lat="42.73976541124284267425537109375" lon="-0.7730755023658275604248046875">
        <ele>936.79998779296875</ele>
        <time>2020-08-20T07:38:20.000Z</time>
      </trkpt>
      <trkpt lat="42.73977546952664852142333984375" lon="-0.7731449045240879058837890625">
        <ele>937</ele>
        <time>2020-08-20T07:38:22.000Z</time>
      </trkpt>
      <trkpt lat="42.73981712758541107177734375" lon="-0.77349501661956310272216796875">
        <ele>937.79998779296875</ele>
        <time>2020-08-20T07:38:32.000Z</time>
      </trkpt>
      <trkpt lat="42.7398561872541904449462890625" lon="-0.77371780760586261749267578125">
        <ele>938.5999755859375</ele>
        <time>2020-08-20T07:38:39.000Z</time>
      </trkpt>
      <trkpt lat="42.73987303487956523895263671875" lon="-0.77381788752973079681396484375">
        <ele>939</ele>
        <time>2020-08-20T07:38:42.000Z</time>
      </trkpt>
      <trkpt lat="42.73991360329091548919677734375" lon="-0.77400413341820240020751953125">
        <ele>940</ele>
        <time>2020-08-20T07:38:48.000Z</time>
      </trkpt>
      <trkpt lat="42.7399192191660404205322265625" lon="-0.77403347007930278778076171875">
        <ele>940</ele>
        <time>2020-08-20T07:38:49.000Z</time>
      </trkpt>
      <trkpt lat="42.739994823932647705078125" lon="-0.77419750392436981201171875">
        <ele>940.5999755859375</ele>
        <time>2020-08-20T07:38:55.000Z</time>
      </trkpt>
      <trkpt lat="42.740021646022796630859375" lon="-0.774251483380794525146484375">
        <ele>941</ele>
        <time>2020-08-20T07:38:57.000Z</time>
      </trkpt>
      <trkpt lat="42.74013069458305835723876953125" lon="-0.774433873593807220458984375">
        <ele>942</ele>
        <time>2020-08-20T07:39:04.000Z</time>
      </trkpt>
      <trkpt lat="42.74014561437070369720458984375" lon="-0.774458684027194976806640625">
        <ele>942.20001220703125</ele>
        <time>2020-08-20T07:39:05.000Z</time>
      </trkpt>
      <trkpt lat="42.74024385027587413787841796875" lon="-0.77460260130465030670166015625">
        <ele>943</ele>
        <time>2020-08-20T07:39:11.000Z</time>
      </trkpt>
      <trkpt lat="42.7403306029736995697021484375" lon="-0.7747253961861133575439453125">
        <ele>943.20001220703125</ele>
        <time>2020-08-20T07:39:16.000Z</time>
      </trkpt>
      <trkpt lat="42.74044384248554706573486328125" lon="-0.77490988187491893768310546875">
        <ele>943.5999755859375</ele>
        <time>2020-08-20T07:39:23.000Z</time>
      </trkpt>
      <trkpt lat="42.74051743559539318084716796875" lon="-0.77500618994235992431640625">
        <ele>944</ele>
        <time>2020-08-20T07:39:27.000Z</time>
      </trkpt>
      <trkpt lat="42.74060276336967945098876953125" lon="-0.775131918489933013916015625">
        <ele>944.4000244140625</ele>
        <time>2020-08-20T07:39:32.000Z</time>
      </trkpt>
      <trkpt lat="42.7406725846230983734130859375" lon="-0.7752283103764057159423828125">
        <ele>945</ele>
        <time>2020-08-20T07:39:36.000Z</time>
      </trkpt>
      <trkpt lat="42.7407466806471347808837890625" lon="-0.77532143332064151763916015625">
        <ele>945.5999755859375</ele>
        <time>2020-08-20T07:39:40.000Z</time>
      </trkpt>
      <trkpt lat="42.740778028964996337890625" lon="-0.77537323348224163055419921875">
        <ele>946</ele>
        <time>2020-08-20T07:39:42.000Z</time>
      </trkpt>
      <trkpt lat="42.74087802506983280181884765625" lon="-0.77550935558974742889404296875">
        <ele>947.20001220703125</ele>
        <time>2020-08-20T07:39:48.000Z</time>
      </trkpt>
      <trkpt lat="42.74097584187984466552734375" lon="-0.7756179012358188629150390625">
        <ele>948</ele>
        <time>2020-08-20T07:39:54.000Z</time>
      </trkpt>
      <trkpt lat="42.740994952619075775146484375" lon="-0.77562804333865642547607421875">
        <ele>948.20001220703125</ele>
        <time>2020-08-20T07:39:55.000Z</time>
      </trkpt>
      <trkpt lat="42.7410950325429439544677734375" lon="-0.77567674219608306884765625">
        <ele>949.4000244140625</ele>
        <time>2020-08-20T07:40:00.000Z</time>
      </trkpt>
      <trkpt lat="42.74115446023643016815185546875" lon="-0.7756997086107730865478515625">
        <ele>950.20001220703125</ele>
        <time>2020-08-20T07:40:03.000Z</time>
      </trkpt>
      <trkpt lat="42.741195447742938995361328125" lon="-0.77570700086653232574462890625">
        <ele>950.4000244140625</ele>
        <time>2020-08-20T07:40:05.000Z</time>
      </trkpt>
      <trkpt lat="42.7413354255259037017822265625" lon="-0.77574404887855052947998046875">
        <ele>951.5999755859375</ele>
        <time>2020-08-20T07:40:12.000Z</time>
      </trkpt>
      <trkpt lat="42.7414742298424243927001953125" lon="-0.77576600946485996246337890625">
        <ele>952.5999755859375</ele>
        <time>2020-08-20T07:40:19.000Z</time>
      </trkpt>
      <trkpt lat="42.7414940111339092254638671875" lon="-0.7757681049406528472900390625">
        <ele>952.79998779296875</ele>
        <time>2020-08-20T07:40:20.000Z</time>
      </trkpt>
      <trkpt lat="42.74159434251487255096435546875" lon="-0.77579283155500888824462890625">
        <ele>953.79998779296875</ele>
        <time>2020-08-20T07:40:25.000Z</time>
      </trkpt>
      <trkpt lat="42.74165578186511993408203125" lon="-0.7758033089339733123779296875">
        <ele>954.4000244140625</ele>
        <time>2020-08-20T07:40:28.000Z</time>
      </trkpt>
      <trkpt lat="42.74171470664441585540771484375" lon="-0.77582099474966526031494140625">
        <ele>954.79998779296875</ele>
        <time>2020-08-20T07:40:31.000Z</time>
      </trkpt>
      <trkpt lat="42.74182853288948535919189453125" lon="-0.77587480656802654266357421875">
        <ele>955.5999755859375</ele>
        <time>2020-08-20T07:40:37.000Z</time>
      </trkpt>
      <trkpt lat="42.741870023310184478759765625" lon="-0.77588184736669063568115234375">
        <ele>955.79998779296875</ele>
        <time>2020-08-20T07:40:39.000Z</time>
      </trkpt>
      <trkpt lat="42.7419649064540863037109375" lon="-0.77592677436769008636474609375">
        <ele>956.5999755859375</ele>
        <time>2020-08-20T07:40:44.000Z</time>
      </trkpt>
      <trkpt lat="42.7420051395893096923828125" lon="-0.7759474776685237884521484375">
        <ele>957</ele>
        <time>2020-08-20T07:40:46.000Z</time>
      </trkpt>
      <trkpt lat="42.74211175739765167236328125" lon="-0.7759992778301239013671875">
        <ele>957.79998779296875</ele>
        <time>2020-08-20T07:40:51.000Z</time>
      </trkpt>
      <trkpt lat="42.7421555109322071075439453125" lon="-0.77602316625416278839111328125">
        <ele>958.20001220703125</ele>
        <time>2020-08-20T07:40:53.000Z</time>
      </trkpt>
      <trkpt lat="42.742320634424686431884765625" lon="-0.776116289198398590087890625">
        <ele>959.20001220703125</ele>
        <time>2020-08-20T07:41:01.000Z</time>
      </trkpt>
      <trkpt lat="42.7423405833542346954345703125" lon="-0.7761285267770290374755859375">
        <ele>959.4000244140625</ele>
        <time>2020-08-20T07:41:02.000Z</time>
      </trkpt>
      <trkpt lat="42.7425189502537250518798828125" lon="-0.776204131543636322021484375">
        <ele>960.20001220703125</ele>
        <time>2020-08-20T07:41:10.000Z</time>
      </trkpt>
      <trkpt lat="42.74263420142233371734619140625" lon="-0.7762321271002292633056640625">
        <ele>961.20001220703125</ele>
        <time>2020-08-20T07:41:15.000Z</time>
      </trkpt>
      <trkpt lat="42.7426567487418651580810546875" lon="-0.77623405493795871734619140625">
        <ele>961.20001220703125</ele>
        <time>2020-08-20T07:41:16.000Z</time>
      </trkpt>
      <trkpt lat="42.742790021002292633056640625" lon="-0.77626288868486881256103515625">
        <ele>962.4000244140625</ele>
        <time>2020-08-20T07:41:22.000Z</time>
      </trkpt>
      <trkpt lat="42.7428116463124752044677734375" lon="-0.7762648165225982666015625">
        <ele>962.5999755859375</ele>
        <time>2020-08-20T07:41:23.000Z</time>
      </trkpt>
      <trkpt lat="42.74303200654685497283935546875" lon="-0.7763223163783550262451171875">
        <ele>963.4000244140625</ele>
        <time>2020-08-20T07:41:32.000Z</time>
      </trkpt>
      <trkpt lat="42.74310962297022342681884765625" lon="-0.77635265886783599853515625">
        <ele>964.20001220703125</ele>
        <time>2020-08-20T07:41:36.000Z</time>
      </trkpt>
      <trkpt lat="42.74312990717589855194091796875" lon="-0.77636414207518100738525390625">
        <ele>964.4000244140625</ele>
        <time>2020-08-20T07:41:37.000Z</time>
      </trkpt>
      <trkpt lat="42.74331162683665752410888671875" lon="-0.77651987783610820770263671875">
        <ele>965.20001220703125</ele>
        <time>2020-08-20T07:41:46.000Z</time>
      </trkpt>
      <trkpt lat="42.74336912669241428375244140625" lon="-0.77658056281507015228271484375">
        <ele>965.5999755859375</ele>
        <time>2020-08-20T07:41:49.000Z</time>
      </trkpt>
      <trkpt lat="42.74343182332813739776611328125" lon="-0.7766331173479557037353515625">
        <ele>966</ele>
        <time>2020-08-20T07:41:52.000Z</time>
      </trkpt>
      <trkpt lat="42.74353022687137126922607421875" lon="-0.77672070823609828948974609375">
        <ele>966.79998779296875</ele>
        <time>2020-08-20T07:41:57.000Z</time>
      </trkpt>
      <trkpt lat="42.7436106093227863311767578125" lon="-0.776786170899868011474609375">
        <ele>967.4000244140625</ele>
        <time>2020-08-20T07:42:01.000Z</time>
      </trkpt>
      <trkpt lat="42.74372041225433349609375" lon="-0.7768550701439380645751953125">
        <ele>967.79998779296875</ele>
        <time>2020-08-20T07:42:06.000Z</time>
      </trkpt>
      <trkpt lat="42.74378855712711811065673828125" lon="-0.77688884921371936798095703125">
        <ele>968.4000244140625</ele>
        <time>2020-08-20T07:42:09.000Z</time>
      </trkpt>
      <trkpt lat="42.7439046464860439300537109375" lon="-0.7769375480711460113525390625">
        <ele>968.5999755859375</ele>
        <time>2020-08-20T07:42:14.000Z</time>
      </trkpt>
      <trkpt lat="42.743997685611248016357421875" lon="-0.77697032131254673004150390625">
        <ele>969.20001220703125</ele>
        <time>2020-08-20T07:42:18.000Z</time>
      </trkpt>
      <trkpt lat="42.7441376633942127227783203125" lon="-0.77701742760837078094482421875">
        <ele>969.79998779296875</ele>
        <time>2020-08-20T07:42:24.000Z</time>
      </trkpt>
      <trkpt lat="42.74420790374279022216796875" lon="-0.77703570015728473663330078125">
        <ele>970</ele>
        <time>2020-08-20T07:42:27.000Z</time>
      </trkpt>
      <trkpt lat="42.74437160231173038482666015625" lon="-0.7770183496177196502685546875">
        <ele>970.5999755859375</ele>
        <time>2020-08-20T07:42:34.000Z</time>
      </trkpt>
      <trkpt lat="42.74449221789836883544921875" lon="-0.7769794575870037078857421875">
        <ele>970.79998779296875</ele>
        <time>2020-08-20T07:42:39.000Z</time>
      </trkpt>
      <trkpt lat="42.7445872686803340911865234375" lon="-0.77695724554359912872314453125">
        <ele>971.4000244140625</ele>
        <time>2020-08-20T07:42:43.000Z</time>
      </trkpt>
      <trkpt lat="42.7447522245347499847412109375" lon="-0.77693603932857513427734375">
        <ele>972.20001220703125</ele>
        <time>2020-08-20T07:42:50.000Z</time>
      </trkpt>
      <trkpt lat="42.74489144794642925262451171875" lon="-0.77694500796496868133544921875">
        <ele>973.20001220703125</ele>
        <time>2020-08-20T07:42:56.000Z</time>
      </trkpt>
      <trkpt lat="42.74495850317180156707763671875" lon="-0.77694416977465152740478515625">
        <ele>973.5999755859375</ele>
        <time>2020-08-20T07:42:59.000Z</time>
      </trkpt>
      <trkpt lat="42.7450636960566043853759765625" lon="-0.776953138411045074462890625">
        <ele>974.20001220703125</ele>
        <time>2020-08-20T07:43:04.000Z</time>
      </trkpt>
      <trkpt lat="42.7451277337968349456787109375" lon="-0.776953138411045074462890625">
        <ele>974.79998779296875</ele>
        <time>2020-08-20T07:43:07.000Z</time>
      </trkpt>
      <trkpt lat="42.7451931126415729522705078125" lon="-0.77695858664810657501220703125">
        <ele>975.4000244140625</ele>
        <time>2020-08-20T07:43:10.000Z</time>
      </trkpt>
      <trkpt lat="42.74532211013138294219970703125" lon="-0.77696663327515125274658203125">
        <ele>976.4000244140625</ele>
        <time>2020-08-20T07:43:16.000Z</time>
      </trkpt>
      <trkpt lat="42.7453644387423992156982421875" lon="-0.7769667170941829681396484375">
        <ele>976.79998779296875</ele>
        <time>2020-08-20T07:43:18.000Z</time>
      </trkpt>
      <trkpt lat="42.74544767104089260101318359375" lon="-0.77696076594293117523193359375">
        <ele>977.5999755859375</ele>
        <time>2020-08-20T07:43:22.000Z</time>
      </trkpt>
      <trkpt lat="42.745507769286632537841796875" lon="-0.7769626937806606292724609375">
        <ele>978</ele>
        <time>2020-08-20T07:43:25.000Z</time>
      </trkpt>
      <trkpt lat="42.74556803517043590545654296875" lon="-0.776967890560626983642578125">
        <ele>978.5999755859375</ele>
        <time>2020-08-20T07:43:28.000Z</time>
      </trkpt>
      <trkpt lat="42.745670042932033538818359375" lon="-0.7769675552845001220703125">
        <ele>979.5999755859375</ele>
        <time>2020-08-20T07:43:33.000Z</time>
      </trkpt>
      <trkpt lat="42.74568974040448665618896484375" lon="-0.77696956694126129150390625">
        <ele>979.5999755859375</ele>
        <time>2020-08-20T07:43:34.000Z</time>
      </trkpt>
      <trkpt lat="42.74578948505222797393798828125" lon="-0.77696747146546840667724609375">
        <ele>980.5999755859375</ele>
        <time>2020-08-20T07:43:39.000Z</time>
      </trkpt>
      <trkpt lat="42.745831310749053955078125" lon="-0.77696797437965869903564453125">
        <ele>981</ele>
        <time>2020-08-20T07:43:41.000Z</time>
      </trkpt>
      <trkpt lat="42.745947651565074920654296875" lon="-0.77695255167782306671142578125">
        <ele>981.5999755859375</ele>
        <time>2020-08-20T07:43:47.000Z</time>
      </trkpt>
      <trkpt lat="42.74600506760179996490478515625" lon="-0.77695020474493503570556640625">
        <ele>982.20001220703125</ele>
        <time>2020-08-20T07:43:50.000Z</time>
      </trkpt>
      <trkpt lat="42.74604479782283306121826171875" lon="-0.77694215811789035797119140625">
        <ele>982.5999755859375</ele>
        <time>2020-08-20T07:43:52.000Z</time>
      </trkpt>
      <trkpt lat="42.7461573667824268341064453125" lon="-0.7768857479095458984375">
        <ele>983.79998779296875</ele>
        <time>2020-08-20T07:43:58.000Z</time>
      </trkpt>
      <trkpt lat="42.74626675061881542205810546875" lon="-0.7768134959042072296142578125">
        <ele>984.79998779296875</ele>
        <time>2020-08-20T07:44:04.000Z</time>
      </trkpt>
      <trkpt lat="42.7463068999350070953369140625" lon="-0.7767886854708194732666015625">
        <ele>985.20001220703125</ele>
        <time>2020-08-20T07:44:06.000Z</time>
      </trkpt>
      <trkpt lat="42.74636171758174896240234375" lon="-0.776745937764644622802734375">
        <ele>985.79998779296875</ele>
        <time>2020-08-20T07:44:09.000Z</time>
      </trkpt>
      <trkpt lat="42.746432125568389892578125" lon="-0.776688940823078155517578125">
        <ele>986.4000244140625</ele>
        <time>2020-08-20T07:44:13.000Z</time>
      </trkpt>
      <trkpt lat="42.74649624712765216827392578125" lon="-0.77663026750087738037109375">
        <ele>986.79998779296875</ele>
        <time>2020-08-20T07:44:17.000Z</time>
      </trkpt>
      <trkpt lat="42.74652994237840175628662109375" lon="-0.77660503797233104705810546875">
        <ele>987.20001220703125</ele>
        <time>2020-08-20T07:44:19.000Z</time>
      </trkpt>
      <trkpt lat="42.7465442754328250885009765625" lon="-0.77658542431890964508056640625">
        <ele>987.5999755859375</ele>
        <time>2020-08-20T07:44:21.000Z</time>
      </trkpt>
      <trkpt lat="42.7465506456792354583740234375" lon="-0.77659280039370059967041015625">
        <ele>988</ele>
        <time>2020-08-20T07:47:32.000Z</time>
      </trkpt>
      <trkpt lat="42.7465506456792354583740234375" lon="-0.7765932194888591766357421875">
        <ele>988</ele>
        <time>2020-08-20T07:47:33.000Z</time>
      </trkpt>
      <trkpt lat="42.7465506456792354583740234375" lon="-0.7765932194888591766357421875">
        <ele>988</ele>
        <time>2020-08-20T07:47:34.000Z</time>
      </trkpt>
      <trkpt lat="42.74658224545419216156005859375" lon="-0.77657067216932773590087890625">
        <ele>988.20001220703125</ele>
        <time>2020-08-20T07:47:37.000Z</time>
      </trkpt>
      <trkpt lat="42.746619880199432373046875" lon="-0.77653898857533931732177734375">
        <ele>988.4000244140625</ele>
        <time>2020-08-20T07:47:40.000Z</time>
      </trkpt>
      <trkpt lat="42.7466327883303165435791015625" lon="-0.77652675099670886993408203125">
        <ele>988.5999755859375</ele>
        <time>2020-08-20T07:47:41.000Z</time>
      </trkpt>
      <trkpt lat="42.74665416218340396881103515625" lon="-0.7764959894120693206787109375">
        <ele>988.5999755859375</ele>
        <time>2020-08-20T07:47:43.000Z</time>
      </trkpt>
      <trkpt lat="42.74668182246387004852294921875" lon="-0.77646908350288867950439453125">
        <ele>989.20001220703125</ele>
        <time>2020-08-20T07:47:45.000Z</time>
      </trkpt>
      <trkpt lat="42.74673948995769023895263671875" lon="-0.77641845680773258209228515625">
        <ele>989.5999755859375</ele>
        <time>2020-08-20T07:47:49.000Z</time>
      </trkpt>
      <trkpt lat="42.7467970736324787139892578125" lon="-0.77636741101741790771484375">
        <ele>990.20001220703125</ele>
        <time>2020-08-20T07:47:53.000Z</time>
      </trkpt>
      <trkpt lat="42.74682699702680110931396484375" lon="-0.776332207024097442626953125">
        <ele>990.4000244140625</ele>
        <time>2020-08-20T07:47:55.000Z</time>
      </trkpt>
      <trkpt lat="42.7468587644398212432861328125" lon="-0.77629490755498409271240234375">
        <ele>990.5999755859375</ele>
        <time>2020-08-20T07:47:57.000Z</time>
      </trkpt>
      <trkpt lat="42.7469298429787158966064453125" lon="-0.7762418501079082489013671875">
        <ele>991.20001220703125</ele>
        <time>2020-08-20T07:48:01.000Z</time>
      </trkpt>
      <trkpt lat="42.7469967305660247802734375" lon="-0.7761912234127521514892578125">
        <ele>991.5999755859375</ele>
        <time>2020-08-20T07:48:05.000Z</time>
      </trkpt>
      <trkpt lat="42.7470492012798786163330078125" lon="-0.77615342102944850921630859375">
        <ele>992.20001220703125</ele>
        <time>2020-08-20T07:48:08.000Z</time>
      </trkpt>
      <trkpt lat="42.74713218212127685546875" lon="-0.776083432137966156005859375">
        <ele>992.79998779296875</ele>
        <time>2020-08-20T07:48:13.000Z</time>
      </trkpt>
      <trkpt lat="42.74716562591493129730224609375" lon="-0.7760574482381343841552734375">
        <ele>993.20001220703125</ele>
        <time>2020-08-20T07:48:15.000Z</time>
      </trkpt>
      <trkpt lat="42.74725162424147129058837890625" lon="-0.77599282376468181610107421875">
        <ele>994.20001220703125</ele>
        <time>2020-08-20T07:48:20.000Z</time>
      </trkpt>
      <trkpt lat="42.74726956151425838470458984375" lon="-0.775980167090892791748046875">
        <ele>994.20001220703125</ele>
        <time>2020-08-20T07:48:21.000Z</time>
      </trkpt>
      <trkpt lat="42.747390680015087127685546875" lon="-0.77589760534465312957763671875">
        <ele>995.4000244140625</ele>
        <time>2020-08-20T07:48:28.000Z</time>
      </trkpt>
      <trkpt lat="42.74751079268753528594970703125" lon="-0.77581487596035003662109375">
        <ele>996.4000244140625</ele>
        <time>2020-08-20T07:48:35.000Z</time>
      </trkpt>
      <trkpt lat="42.74752839468419551849365234375" lon="-0.7758002914488315582275390625">
        <ele>996.4000244140625</ele>
        <time>2020-08-20T07:48:36.000Z</time>
      </trkpt>
      <trkpt lat="42.74764423258602619171142578125" lon="-0.77573801390826702117919921875">
        <ele>997.5999755859375</ele>
        <time>2020-08-20T07:48:42.000Z</time>
      </trkpt>
      <trkpt lat="42.7477516047656536102294921875" lon="-0.7756774127483367919921875">
        <ele>998.20001220703125</ele>
        <time>2020-08-20T07:48:48.000Z</time>
      </trkpt>
      <trkpt lat="42.7477891556918621063232421875" lon="-0.77565939165651798248291015625">
        <ele>998.5999755859375</ele>
        <time>2020-08-20T07:48:50.000Z</time>
      </trkpt>
      <trkpt lat="42.7478883974254131317138671875" lon="-0.775628127157688140869140625">
        <ele>999.4000244140625</ele>
        <time>2020-08-20T07:48:55.000Z</time>
      </trkpt>
      <trkpt lat="42.74794581346213817596435546875" lon="-0.77559853903949260711669921875">
        <ele>999.5999755859375</ele>
        <time>2020-08-20T07:48:58.000Z</time>
      </trkpt>
      <trkpt lat="42.74802963249385356903076171875" lon="-0.77558093704283237457275390625">
        <ele>1000.20001220703125</ele>
        <time>2020-08-20T07:49:02.000Z</time>
      </trkpt>
      <trkpt lat="42.7480937540531158447265625" lon="-0.7755835354328155517578125">
        <ele>1000.79998779296875</ele>
        <time>2020-08-20T07:49:05.000Z</time>
      </trkpt>
      <trkpt lat="42.74817757308483123779296875" lon="-0.7756225951015949249267578125">
        <ele>1001.4000244140625</ele>
        <time>2020-08-20T07:49:09.000Z</time>
      </trkpt>
      <trkpt lat="42.74819592945277690887451171875" lon="-0.77564061619341373443603515625">
        <ele>1001.4000244140625</ele>
        <time>2020-08-20T07:49:10.000Z</time>
      </trkpt>
      <trkpt lat="42.748242951929569244384765625" lon="-0.77570331282913684844970703125">
        <ele>1001.79998779296875</ele>
        <time>2020-08-20T07:49:13.000Z</time>
      </trkpt>
      <trkpt lat="42.7482766471803188323974609375" lon="-0.7758214138448238372802734375">
        <ele>1002.5999755859375</ele>
        <time>2020-08-20T07:49:17.000Z</time>
      </trkpt>
      <trkpt lat="42.7482890523970127105712890625" lon="-0.775879584252834320068359375">
        <ele>1002.79998779296875</ele>
        <time>2020-08-20T07:49:19.000Z</time>
      </trkpt>
      <trkpt lat="42.74827103130519390106201171875" lon="-0.77602266333997249603271484375">
        <ele>1003.79998779296875</ele>
        <time>2020-08-20T07:49:24.000Z</time>
      </trkpt>
      <trkpt lat="42.7482525072991847991943359375" lon="-0.77607580460608005523681640625">
        <ele>1004</ele>
        <time>2020-08-20T07:49:26.000Z</time>
      </trkpt>
      <trkpt lat="42.74817983619868755340576171875" lon="-0.77618367969989776611328125">
        <ele>1004.5999755859375</ele>
        <time>2020-08-20T07:49:31.000Z</time>
      </trkpt>
      <trkpt lat="42.7481291256844997406005859375" lon="-0.77623891644179821014404296875">
        <ele>1005</ele>
        <time>2020-08-20T07:49:34.000Z</time>
      </trkpt>
      <trkpt lat="42.74806517176330089569091796875" lon="-0.77631301246583461761474609375">
        <ele>1005.5999755859375</ele>
        <time>2020-08-20T07:49:38.000Z</time>
      </trkpt>
      <trkpt lat="42.7480033971369266510009765625" lon="-0.776384510099887847900390625">
        <ele>1006.20001220703125</ele>
        <time>2020-08-20T07:49:42.000Z</time>
      </trkpt>
      <trkpt lat="42.74792385287582874298095703125" lon="-0.7764641381800174713134765625">
        <ele>1007.4000244140625</ele>
        <time>2020-08-20T07:49:47.000Z</time>
      </trkpt>
      <trkpt lat="42.7479152195155620574951171875" lon="-0.77648333273828029632568359375">
        <ele>1007.5999755859375</ele>
        <time>2020-08-20T07:49:48.000Z</time>
      </trkpt>
      <trkpt lat="42.74787523783743381500244140625" lon="-0.77659397386014461517333984375">
        <ele>1008.4000244140625</ele>
        <time>2020-08-20T07:49:53.000Z</time>
      </trkpt>
      <trkpt lat="42.747862748801708221435546875" lon="-0.7766431756317615509033203125">
        <ele>1008.79998779296875</ele>
        <time>2020-08-20T07:49:55.000Z</time>
      </trkpt>
      <trkpt lat="42.74786241352558135986328125" lon="-0.776719115674495697021484375">
        <ele>1009.4000244140625</ele>
        <time>2020-08-20T07:49:58.000Z</time>
      </trkpt>
      <trkpt lat="42.7478662692010402679443359375" lon="-0.77674417756497859954833984375">
        <ele>1009.79998779296875</ele>
        <time>2020-08-20T07:49:59.000Z</time>
      </trkpt>
      <trkpt lat="42.747881524264812469482421875" lon="-0.77679011039435863494873046875">
        <ele>1010.20001220703125</ele>
        <time>2020-08-20T07:50:01.000Z</time>
      </trkpt>
      <trkpt lat="42.747904323041439056396484375" lon="-0.77683269046247005462646484375">
        <ele>1010.5999755859375</ele>
        <time>2020-08-20T07:50:03.000Z</time>
      </trkpt>
      <trkpt lat="42.7479638345539569854736328125" lon="-0.77693142928183078765869140625">
        <ele>1011.5999755859375</ele>
        <time>2020-08-20T07:50:08.000Z</time>
      </trkpt>
      <trkpt lat="42.747990824282169342041015625" lon="-0.77696956694126129150390625">
        <ele>1011.79998779296875</ele>
        <time>2020-08-20T07:50:10.000Z</time>
      </trkpt>
      <trkpt lat="42.74805293418467044830322265625" lon="-0.77708330936729907989501953125">
        <ele>1012.5999755859375</ele>
        <time>2020-08-20T07:50:15.000Z</time>
      </trkpt>
      <trkpt lat="42.748082689940929412841796875" lon="-0.77719227410852909088134765625">
        <ele>1013.20001220703125</ele>
        <time>2020-08-20T07:50:19.000Z</time>
      </trkpt>
      <trkpt lat="42.7480959333479404449462890625" lon="-0.777277685701847076416015625">
        <ele>1013.5999755859375</ele>
        <time>2020-08-20T07:50:22.000Z</time>
      </trkpt>
      <trkpt lat="42.748084031045436859130859375" lon="-0.77739159576594829559326171875">
        <ele>1014.4000244140625</ele>
        <time>2020-08-20T07:50:26.000Z</time>
      </trkpt>
      <trkpt lat="42.7480667643249034881591796875" lon="-0.7774458266794681549072265625">
        <ele>1014.79998779296875</ele>
        <time>2020-08-20T07:50:28.000Z</time>
      </trkpt>
      <trkpt lat="42.74797967635095119476318359375" lon="-0.77757172286510467529296875">
        <ele>1015.20001220703125</ele>
        <time>2020-08-20T07:50:34.000Z</time>
      </trkpt>
      <trkpt lat="42.74792544543743133544921875" lon="-0.77762025408446788787841796875">
        <ele>1015.5999755859375</ele>
        <time>2020-08-20T07:50:37.000Z</time>
      </trkpt>
      <trkpt lat="42.7478438057005405426025390625" lon="-0.7776540331542491912841796875">
        <ele>1016.20001220703125</ele>
        <time>2020-08-20T07:50:41.000Z</time>
      </trkpt>
      <trkpt lat="42.7477609924972057342529296875" lon="-0.77766886912286281585693359375">
        <ele>1016.79998779296875</ele>
        <time>2020-08-20T07:50:45.000Z</time>
      </trkpt>
      <trkpt lat="42.7476324141025543212890625" lon="-0.77767364680767059326171875">
        <ele>1017.5999755859375</ele>
        <time>2020-08-20T07:50:51.000Z</time>
      </trkpt>
      <trkpt lat="42.7476109564304351806640625" lon="-0.7776744849979877471923828125">
        <ele>1017.79998779296875</ele>
        <time>2020-08-20T07:50:52.000Z</time>
      </trkpt>
      <trkpt lat="42.74743669666349887847900390625" lon="-0.77768479473888874053955078125">
        <ele>1018.5999755859375</ele>
        <time>2020-08-20T07:51:00.000Z</time>
      </trkpt>
      <trkpt lat="42.747414149343967437744140625" lon="-0.777686722576618194580078125">
        <ele>1018.79998779296875</ele>
        <time>2020-08-20T07:51:01.000Z</time>
      </trkpt>
      <trkpt lat="42.74728842079639434814453125" lon="-0.77773307450115680694580078125">
        <ele>1019.5999755859375</ele>
        <time>2020-08-20T07:51:07.000Z</time>
      </trkpt>
      <trkpt lat="42.747251205146312713623046875" lon="-0.7777633331716060638427734375">
        <ele>1020</ele>
        <time>2020-08-20T07:51:09.000Z</time>
      </trkpt>
      <trkpt lat="42.7471373789012432098388671875" lon="-0.77788780443370342254638671875">
        <ele>1021</ele>
        <time>2020-08-20T07:51:16.000Z</time>
      </trkpt>
      <trkpt lat="42.74705749936401844024658203125" lon="-0.77804454602301120758056640625">
        <ele>1022</ele>
        <time>2020-08-20T07:51:23.000Z</time>
      </trkpt>
      <trkpt lat="42.7470378018915653228759765625" lon="-0.77809064649045467376708984375">
        <ele>1022.5999755859375</ele>
        <time>2020-08-20T07:51:25.000Z</time>
      </trkpt>
      <trkpt lat="42.74701123125851154327392578125" lon="-0.778196342289447784423828125">
        <ele>1023.20001220703125</ele>
        <time>2020-08-20T07:51:29.000Z</time>
      </trkpt>
      <trkpt lat="42.746999748051166534423828125" lon="-0.77830371446907520294189453125">
        <ele>1024.199951171875</ele>
        <time>2020-08-20T07:51:33.000Z</time>
      </trkpt>
      <trkpt lat="42.74700150825083255767822265625" lon="-0.77833120711147785186767578125">
        <ele>1024.4000244140625</ele>
        <time>2020-08-20T07:51:34.000Z</time>
      </trkpt>
      <trkpt lat="42.74705783464014530181884765625" lon="-0.77847856096923351287841796875">
        <ele>1025.4000244140625</ele>
        <time>2020-08-20T07:51:40.000Z</time>
      </trkpt>
      <trkpt lat="42.74707007221877574920654296875" lon="-0.7785016112029552459716796875">
        <ele>1025.5999755859375</ele>
        <time>2020-08-20T07:51:41.000Z</time>
      </trkpt>
      <trkpt lat="42.7471160888671875" lon="-0.77860093675553798675537109375">
        <ele>1026.4000244140625</ele>
        <time>2020-08-20T07:51:45.000Z</time>
      </trkpt>
      <trkpt lat="42.74718540720641613006591796875" lon="-0.778747536242008209228515625">
        <ele>1027.5999755859375</ele>
        <time>2020-08-20T07:51:51.000Z</time>
      </trkpt>
      <trkpt lat="42.747196890413761138916015625" lon="-0.77877293340861797332763671875">
        <ele>1027.5999755859375</ele>
        <time>2020-08-20T07:51:52.000Z</time>
      </trkpt>
      <trkpt lat="42.747259251773357391357421875" lon="-0.7789280824363231658935546875">
        <ele>1028.800048828125</ele>
        <time>2020-08-20T07:51:58.000Z</time>
      </trkpt>
      <trkpt lat="42.7472926117479801177978515625" lon="-0.7789984904229640960693359375">
        <ele>1029.4000244140625</ele>
        <time>2020-08-20T07:52:01.000Z</time>
      </trkpt>
      <trkpt lat="42.7473284862935543060302734375" lon="-0.77906864695250988006591796875">
        <ele>1029.800048828125</ele>
        <time>2020-08-20T07:52:04.000Z</time>
      </trkpt>
      <trkpt lat="42.74739176966249942779541015625" lon="-0.779208205640316009521484375">
        <ele>1030.800048828125</ele>
        <time>2020-08-20T07:52:10.000Z</time>
      </trkpt>
      <trkpt lat="42.747399397194385528564453125" lon="-0.77923343516886234283447265625">
        <ele>1031</ele>
        <time>2020-08-20T07:52:11.000Z</time>
      </trkpt>
      <trkpt lat="42.7474066056311130523681640625" lon="-0.77925874851644039154052734375">
        <ele>1031</ele>
        <time>2020-08-20T07:52:12.000Z</time>
      </trkpt>
      <trkpt lat="42.747461758553981781005859375" lon="-0.7794145680963993072509765625">
        <ele>1031.800048828125</ele>
        <time>2020-08-20T07:52:18.000Z</time>
      </trkpt>
      <trkpt lat="42.7474954538047313690185546875" lon="-0.77948908321559429168701171875">
        <ele>1032.199951171875</ele>
        <time>2020-08-20T07:52:21.000Z</time>
      </trkpt>
      <trkpt lat="42.7475182525813579559326171875" lon="-0.7795681245625019073486328125">
        <ele>1032.800048828125</ele>
        <time>2020-08-20T07:52:24.000Z</time>
      </trkpt>
      <trkpt lat="42.74755270220339298248291015625" lon="-0.77967616729438304901123046875">
        <ele>1033.4000244140625</ele>
        <time>2020-08-20T07:52:28.000Z</time>
      </trkpt>
      <trkpt lat="42.7475729025900363922119140625" lon="-0.779726542532444000244140625">
        <ele>1033.800048828125</ele>
        <time>2020-08-20T07:52:30.000Z</time>
      </trkpt>
      <trkpt lat="42.74763266555964946746826171875" lon="-0.7799379341304302215576171875">
        <ele>1035</ele>
        <time>2020-08-20T07:52:38.000Z</time>
      </trkpt>
      <trkpt lat="42.74768345989286899566650390625" lon="-0.78015628270804882049560546875">
        <ele>1036.199951171875</ele>
        <time>2020-08-20T07:52:46.000Z</time>
      </trkpt>
      <trkpt lat="42.74768580682575702667236328125" lon="-0.78018494881689548492431640625">
        <ele>1036.4000244140625</ele>
        <time>2020-08-20T07:52:47.000Z</time>
      </trkpt>
      <trkpt lat="42.74770039133727550506591796875" lon="-0.78033096157014369964599609375">
        <ele>1037.199951171875</ele>
        <time>2020-08-20T07:52:52.000Z</time>
      </trkpt>
      <trkpt lat="42.74769150651991367340087890625" lon="-0.780419893562793731689453125">
        <ele>1037.4000244140625</ele>
        <time>2020-08-20T07:52:55.000Z</time>
      </trkpt>
      <trkpt lat="42.7476292289793491363525390625" lon="-0.7805786468088626861572265625">
        <ele>1038.199951171875</ele>
        <time>2020-08-20T07:53:01.000Z</time>
      </trkpt>
      <trkpt lat="42.74761565029621124267578125" lon="-0.7806017808616161346435546875">
        <ele>1038.199951171875</ele>
        <time>2020-08-20T07:53:02.000Z</time>
      </trkpt>
      <trkpt lat="42.74749721400439739227294921875" lon="-0.78068082220852375030517578125">
        <ele>1038.5999755859375</ele>
        <time>2020-08-20T07:53:08.000Z</time>
      </trkpt>
      <trkpt lat="42.74736352264881134033203125" lon="-0.78068442642688751220703125">
        <ele>1039.199951171875</ele>
        <time>2020-08-20T07:53:14.000Z</time>
      </trkpt>
      <trkpt lat="42.7473194338381290435791015625" lon="-0.78068266622722148895263671875">
        <ele>1039.4000244140625</ele>
        <time>2020-08-20T07:53:16.000Z</time>
      </trkpt>
      <trkpt lat="42.74718976579606533050537109375" lon="-0.78065014444291591644287109375">
        <ele>1040.199951171875</ele>
        <time>2020-08-20T07:53:22.000Z</time>
      </trkpt>
      <trkpt lat="42.747127152979373931884765625" lon="-0.7806376554071903228759765625">
        <ele>1040.800048828125</ele>
        <time>2020-08-20T07:53:25.000Z</time>
      </trkpt>
      <trkpt lat="42.747026570141315460205078125" lon="-0.78059717081487178802490234375">
        <ele>1041.4000244140625</ele>
        <time>2020-08-20T07:53:30.000Z</time>
      </trkpt>
      <trkpt lat="42.74697066284716129302978515625" lon="-0.78056280501186847686767578125">
        <ele>1041.800048828125</ele>
        <time>2020-08-20T07:53:33.000Z</time>
      </trkpt>
      <trkpt lat="42.74688801728188991546630859375" lon="-0.7805343903601169586181640625">
        <ele>1042.4000244140625</ele>
        <time>2020-08-20T07:53:37.000Z</time>
      </trkpt>
      <trkpt lat="42.74682884104549884796142578125" lon="-0.7805068977177143096923828125">
        <ele>1043</ele>
        <time>2020-08-20T07:53:40.000Z</time>
      </trkpt>
      <trkpt lat="42.746791541576385498046875" lon="-0.78048267401754856109619140625">
        <ele>1043.5999755859375</ele>
        <time>2020-08-20T07:53:42.000Z</time>
      </trkpt>
      <trkpt lat="42.74667243473231792449951171875" lon="-0.78043162822723388671875">
        <ele>1044.5999755859375</ele>
        <time>2020-08-20T07:53:48.000Z</time>
      </trkpt>
      <trkpt lat="42.74665273725986480712890625" lon="-0.78042031265795230865478515625">
        <ele>1044.800048828125</ele>
        <time>2020-08-20T07:53:49.000Z</time>
      </trkpt>
      <trkpt lat="42.74652726016938686370849609375" lon="-0.7803808338940143585205078125">
        <ele>1045.5999755859375</ele>
        <time>2020-08-20T07:53:55.000Z</time>
      </trkpt>
      <trkpt lat="42.746463306248188018798828125" lon="-0.7803664170205593109130859375">
        <ele>1046.199951171875</ele>
        <time>2020-08-20T07:53:58.000Z</time>
      </trkpt>
      <trkpt lat="42.746358029544353485107421875" lon="-0.7803496532142162322998046875">
        <ele>1046.5999755859375</ele>
        <time>2020-08-20T07:54:03.000Z</time>
      </trkpt>
      <trkpt lat="42.746278233826160430908203125" lon="-0.780318640172481536865234375">
        <ele>1047</ele>
        <time>2020-08-20T07:54:07.000Z</time>
      </trkpt>
      <trkpt lat="42.74618091993033885955810546875" lon="-0.7802641578018665313720703125">
        <ele>1047.5999755859375</ele>
        <time>2020-08-20T07:54:12.000Z</time>
      </trkpt>
      <trkpt lat="42.74615024216473102569580078125" lon="-0.78022719360888004302978515625">
        <ele>1047.800048828125</ele>
        <time>2020-08-20T07:54:14.000Z</time>
      </trkpt>
      <trkpt lat="42.74604379199445247650146484375" lon="-0.78002720139920711517333984375">
        <ele>1048.5999755859375</ele>
        <time>2020-08-20T07:54:23.000Z</time>
      </trkpt>
      <trkpt lat="42.74597304873168468475341796875" lon="-0.7798598147928714752197265625">
        <ele>1049.800048828125</ele>
        <time>2020-08-20T07:54:30.000Z</time>
      </trkpt>
      <trkpt lat="42.7459466457366943359375" lon="-0.77982016839087009429931640625">
        <ele>1050.4000244140625</ele>
        <time>2020-08-20T07:54:32.000Z</time>
      </trkpt>
      <trkpt lat="42.74590599350631237030029296875" lon="-0.779762081801891326904296875">
        <ele>1051</ele>
        <time>2020-08-20T07:54:35.000Z</time>
      </trkpt>
      <trkpt lat="42.74580725468695163726806640625" lon="-0.7797008939087390899658203125">
        <ele>1052.199951171875</ele>
        <time>2020-08-20T07:54:41.000Z</time>
      </trkpt>
      <trkpt lat="42.7457536943256855010986328125" lon="-0.7797136344015598297119140625">
        <ele>1053.199951171875</ele>
        <time>2020-08-20T07:54:44.000Z</time>
      </trkpt>
      <trkpt lat="42.745737098157405853271484375" lon="-0.7797220163047313690185546875">
        <ele>1053.4000244140625</ele>
        <time>2020-08-20T07:54:45.000Z</time>
      </trkpt>
      <trkpt lat="42.7456926740705966949462890625" lon="-0.7797582261264324188232421875">
        <ele>1054</ele>
        <time>2020-08-20T07:54:48.000Z</time>
      </trkpt>
      <trkpt lat="42.7456400357186794281005859375" lon="-0.7798229344189167022705078125">
        <ele>1054.5999755859375</ele>
        <time>2020-08-20T07:54:52.000Z</time>
      </trkpt>
      <trkpt lat="42.74561405181884765625" lon="-0.77985554002225399017333984375">
        <ele>1054.800048828125</ele>
        <time>2020-08-20T07:54:54.000Z</time>
      </trkpt>
      <trkpt lat="42.74557138793170452117919921875" lon="-0.77992863021790981292724609375">
        <ele>1055.5999755859375</ele>
        <time>2020-08-20T07:54:58.000Z</time>
      </trkpt>
      <trkpt lat="42.7455411292612552642822265625" lon="-0.779987387359142303466796875">
        <ele>1056.199951171875</ele>
        <time>2020-08-20T07:55:01.000Z</time>
      </trkpt>
      <trkpt lat="42.74549276567995548248291015625" lon="-0.78005771152675151824951171875">
        <ele>1056.800048828125</ele>
        <time>2020-08-20T07:55:05.000Z</time>
      </trkpt>
      <trkpt lat="42.7454402111470699310302734375" lon="-0.7801561988890171051025390625">
        <ele>1057.5999755859375</ele>
        <time>2020-08-20T07:55:10.000Z</time>
      </trkpt>
      <trkpt lat="42.74542286060750484466552734375" lon="-0.7801984436810016632080078125">
        <ele>1057.800048828125</ele>
        <time>2020-08-20T07:55:12.000Z</time>
      </trkpt>
      <trkpt lat="42.74535278789699077606201171875" lon="-0.780315287411212921142578125">
        <ele>1058.800048828125</ele>
        <time>2020-08-20T07:55:18.000Z</time>
      </trkpt>
      <trkpt lat="42.74529512040317058563232421875" lon="-0.78041578643023967742919921875">
        <ele>1060</ele>
        <time>2020-08-20T07:55:23.000Z</time>
      </trkpt>
      <trkpt lat="42.7452370338141918182373046875" lon="-0.7805139385163784027099609375">
        <ele>1060.4000244140625</ele>
        <time>2020-08-20T07:55:28.000Z</time>
      </trkpt>
      <trkpt lat="42.74518766440451145172119140625" lon="-0.7805833406746387481689453125">
        <ele>1060.800048828125</ele>
        <time>2020-08-20T07:55:32.000Z</time>
      </trkpt>
      <trkpt lat="42.74516402743756771087646484375" lon="-0.78062365762889385223388671875">
        <ele>1061.4000244140625</ele>
        <time>2020-08-20T07:55:36.000Z</time>
      </trkpt>
      <trkpt lat="42.74513200856745243072509765625" lon="-0.78064712695777416229248046875">
        <ele>1061</ele>
        <time>2020-08-20T07:58:12.000Z</time>
      </trkpt>
      <trkpt lat="42.74509781040251255035400390625" lon="-0.78067612834274768829345703125">
        <ele>1061</ele>
        <time>2020-08-20T07:58:17.000Z</time>
      </trkpt>
      <trkpt lat="42.74501667357981204986572265625" lon="-0.78074184246361255645751953125">
        <ele>1061.199951171875</ele>
        <time>2020-08-20T07:58:23.000Z</time>
      </trkpt>
      <trkpt lat="42.7449835650622844696044921875" lon="-0.78076162375509738922119140625">
        <ele>1061.4000244140625</ele>
        <time>2020-08-20T07:58:25.000Z</time>
      </trkpt>
      <trkpt lat="42.74485138244926929473876953125" lon="-0.7808017730712890625">
        <ele>1062</ele>
        <time>2020-08-20T07:58:32.000Z</time>
      </trkpt>
      <trkpt lat="42.74481274187564849853515625" lon="-0.780802108347415924072265625">
        <ele>1062.4000244140625</ele>
        <time>2020-08-20T07:58:34.000Z</time>
      </trkpt>
      <trkpt lat="42.74472020566463470458984375" lon="-0.78080780804157257080078125">
        <ele>1063.4000244140625</ele>
        <time>2020-08-20T07:58:39.000Z</time>
      </trkpt>
      <trkpt lat="42.744685001671314239501953125" lon="-0.780809819698333740234375">
        <ele>1063.800048828125</ele>
        <time>2020-08-20T07:58:41.000Z</time>
      </trkpt>
      <trkpt lat="42.74461618624627590179443359375" lon="-0.78080772422254085540771484375">
        <ele>1064.5999755859375</ele>
        <time>2020-08-20T07:58:45.000Z</time>
      </trkpt>
      <trkpt lat="42.74454879574477672576904296875" lon="-0.78084074892103672027587890625">
        <ele>1065.199951171875</ele>
        <time>2020-08-20T07:58:49.000Z</time>
      </trkpt>
      <trkpt lat="42.74452666752040386199951171875" lon="-0.780876539647579193115234375">
        <ele>1065.800048828125</ele>
        <time>2020-08-20T07:58:51.000Z</time>
      </trkpt>
      <trkpt lat="42.74451912380754947662353515625" lon="-0.7809457741677761077880859375">
        <ele>1066.4000244140625</ele>
        <time>2020-08-20T07:58:54.000Z</time>
      </trkpt>
      <trkpt lat="42.74452834390103816986083984375" lon="-0.78101945109665393829345703125">
        <ele>1066.800048828125</ele>
        <time>2020-08-20T07:58:57.000Z</time>
      </trkpt>
      <trkpt lat="42.74455902166664600372314453125" lon="-0.781113244593143463134765625">
        <ele>1067.5999755859375</ele>
        <time>2020-08-20T07:59:01.000Z</time>
      </trkpt>
      <trkpt lat="42.74457142688333988189697265625" lon="-0.7811620272696018218994140625">
        <ele>1067.800048828125</ele>
        <time>2020-08-20T07:59:03.000Z</time>
      </trkpt>
      <trkpt lat="42.74461786262691020965576171875" lon="-0.781295299530029296875">
        <ele>1068.800048828125</ele>
        <time>2020-08-20T07:59:09.000Z</time>
      </trkpt>
      <trkpt lat="42.744672261178493499755859375" lon="-0.7814342714846134185791015625">
        <ele>1070</ele>
        <time>2020-08-20T07:59:15.000Z</time>
      </trkpt>
      <trkpt lat="42.7446828223764896392822265625" lon="-0.78148397617042064666748046875">
        <ele>1070.4000244140625</ele>
        <time>2020-08-20T07:59:17.000Z</time>
      </trkpt>
      <trkpt lat="42.74470000527799129486083984375" lon="-0.7815568149089813232421875">
        <ele>1071</ele>
        <time>2020-08-20T07:59:20.000Z</time>
      </trkpt>
      <trkpt lat="42.744735963642597198486328125" lon="-0.7816183380782604217529296875">
        <ele>1071.4000244140625</ele>
        <time>2020-08-20T07:59:23.000Z</time>
      </trkpt>
      <trkpt lat="42.74476236663758754730224609375" lon="-0.781686566770076751708984375">
        <ele>1072.199951171875</ele>
        <time>2020-08-20T07:59:26.000Z</time>
      </trkpt>
      <trkpt lat="42.74478516541421413421630859375" lon="-0.78180969692766666412353515625">
        <ele>1073</ele>
        <time>2020-08-20T07:59:31.000Z</time>
      </trkpt>
      <trkpt lat="42.74479002691805362701416015625" lon="-0.78185831196606159210205078125">
        <ele>1073.4000244140625</ele>
        <time>2020-08-20T07:59:33.000Z</time>
      </trkpt>
      <trkpt lat="42.7447944693267345428466796875" lon="-0.78201346099376678466796875">
        <ele>1074.5999755859375</ele>
        <time>2020-08-20T07:59:39.000Z</time>
      </trkpt>
      <trkpt lat="42.7447907812893390655517578125" lon="-0.7820391096174716949462890625">
        <ele>1074.800048828125</ele>
        <time>2020-08-20T07:59:40.000Z</time>
      </trkpt>
      <trkpt lat="42.744754068553447723388671875" lon="-0.78223985619843006134033203125">
        <ele>1075.5999755859375</ele>
        <time>2020-08-20T07:59:48.000Z</time>
      </trkpt>
      <trkpt lat="42.74462322704493999481201171875" lon="-0.7824488170444965362548828125">
        <ele>1076.800048828125</ele>
        <time>2020-08-20T07:59:58.000Z</time>
      </trkpt>
      <trkpt lat="42.744516693055629730224609375" lon="-0.78251637518405914306640625">
        <ele>1077.4000244140625</ele>
        <time>2020-08-20T08:00:04.000Z</time>
      </trkpt>
      <trkpt lat="42.74439641274511814117431640625" lon="-0.78256323002278804779052734375">
        <ele>1077.800048828125</ele>
        <time>2020-08-20T08:00:10.000Z</time>
      </trkpt>
      <trkpt lat="42.744356095790863037109375" lon="-0.78258435241878032684326171875">
        <ele>1078</ele>
        <time>2020-08-20T08:00:12.000Z</time>
      </trkpt>
      <trkpt lat="42.74422802031040191650390625" lon="-0.78268376179039478302001953125">
        <ele>1078.800048828125</ele>
        <time>2020-08-20T08:00:19.000Z</time>
      </trkpt>
      <trkpt lat="42.74421050213277339935302734375" lon="-0.78270052559673786163330078125">
        <ele>1079</ele>
        <time>2020-08-20T08:00:20.000Z</time>
      </trkpt>
      <trkpt lat="42.7441577799618244171142578125" lon="-0.78275199048221111297607421875">
        <ele>1080</ele>
        <time>2020-08-20T08:00:23.000Z</time>
      </trkpt>
      <trkpt lat="42.74403699673712253570556640625" lon="-0.78286263160407543182373046875">
        <ele>1081</ele>
        <time>2020-08-20T08:00:30.000Z</time>
      </trkpt>
      <trkpt lat="42.74391193874180316925048828125" lon="-0.78295248560607433319091796875">
        <ele>1082</ele>
        <time>2020-08-20T08:00:37.000Z</time>
      </trkpt>
      <trkpt lat="42.74387254379689693450927734375" lon="-0.78297126106917858123779296875">
        <ele>1082.5999755859375</ele>
        <time>2020-08-20T08:00:39.000Z</time>
      </trkpt>
      <trkpt lat="42.7438295446336269378662109375" lon="-0.78298031352460384368896484375">
        <ele>1083.199951171875</ele>
        <time>2020-08-20T08:00:41.000Z</time>
      </trkpt>
      <trkpt lat="42.74369769729673862457275390625" lon="-0.7829882763326168060302734375">
        <ele>1084</ele>
        <time>2020-08-20T08:00:47.000Z</time>
      </trkpt>
      <trkpt lat="42.7436766587197780609130859375" lon="-0.78298131935298442840576171875">
        <ele>1084</ele>
        <time>2020-08-20T08:00:48.000Z</time>
      </trkpt>
      <trkpt lat="42.743514887988567352294921875" lon="-0.782900266349315643310546875">
        <ele>1085.199951171875</ele>
        <time>2020-08-20T08:00:56.000Z</time>
      </trkpt>
      <trkpt lat="42.7433651871979236602783203125" lon="-0.7828290201723575592041015625">
        <ele>1086</ele>
        <time>2020-08-20T08:01:03.000Z</time>
      </trkpt>
      <trkpt lat="42.7433444000780582427978515625" lon="-0.782816112041473388671875">
        <ele>1086.199951171875</ele>
        <time>2020-08-20T08:01:04.000Z</time>
      </trkpt>
      <trkpt lat="42.7431772649288177490234375" lon="-0.78271008096635341644287109375">
        <ele>1087.199951171875</ele>
        <time>2020-08-20T08:01:12.000Z</time>
      </trkpt>
      <trkpt lat="42.74315639398992061614990234375" lon="-0.78269985504448413848876953125">
        <ele>1087.199951171875</ele>
        <time>2020-08-20T08:01:13.000Z</time>
      </trkpt>
      <trkpt lat="42.743011973798274993896484375" lon="-0.782614611089229583740234375">
        <ele>1088.4000244140625</ele>
        <time>2020-08-20T08:01:20.000Z</time>
      </trkpt>
      <trkpt lat="42.74299227632582187652587890625" lon="-0.78260044567286968231201171875">
        <ele>1088.5999755859375</ele>
        <time>2020-08-20T08:01:21.000Z</time>
      </trkpt>
      <trkpt lat="42.74284793995320796966552734375" lon="-0.78250690363347530364990234375">
        <ele>1089.5999755859375</ele>
        <time>2020-08-20T08:01:28.000Z</time>
      </trkpt>
      <trkpt lat="42.74280686862766742706298828125" lon="-0.78248175792396068572998046875">
        <ele>1089.800048828125</ele>
        <time>2020-08-20T08:01:30.000Z</time>
      </trkpt>
      <trkpt lat="42.74270259775221347808837890625" lon="-0.7824233360588550567626953125">
        <ele>1090.5999755859375</ele>
        <time>2020-08-20T08:01:35.000Z</time>
      </trkpt>
      <trkpt lat="42.7426207065582275390625" lon="-0.7823686860501766204833984375">
        <ele>1091</ele>
        <time>2020-08-20T08:01:39.000Z</time>
      </trkpt>
      <trkpt lat="42.742560021579265594482421875" lon="-0.7823274470865726470947265625">
        <ele>1091.800048828125</ele>
        <time>2020-08-20T08:01:42.000Z</time>
      </trkpt>
      <trkpt lat="42.74243940599262714385986328125" lon="-0.7822496630251407623291015625">
        <ele>1092.4000244140625</ele>
        <time>2020-08-20T08:01:48.000Z</time>
      </trkpt>
      <trkpt lat="42.74239984340965747833251953125" lon="-0.78222258947789669036865234375">
        <ele>1093</ele>
        <time>2020-08-20T08:01:50.000Z</time>
      </trkpt>
      <trkpt lat="42.742339074611663818359375" lon="-0.78217841684818267822265625">
        <ele>1093.5999755859375</ele>
        <time>2020-08-20T08:01:53.000Z</time>
      </trkpt>
      <trkpt lat="42.7422353066504001617431640625" lon="-0.782113373279571533203125">
        <ele>1094.199951171875</ele>
        <time>2020-08-20T08:01:58.000Z</time>
      </trkpt>
      <trkpt lat="42.74210178293287754058837890625" lon="-0.78206065110862255096435546875">
        <ele>1095.199951171875</ele>
        <time>2020-08-20T08:02:04.000Z</time>
      </trkpt>
      <trkpt lat="42.74207814596593379974365234375" lon="-0.7820639200508594512939453125">
        <ele>1095.4000244140625</ele>
        <time>2020-08-20T08:02:05.000Z</time>
      </trkpt>
      <trkpt lat="42.74196800775825977325439453125" lon="-0.78215201385319232940673828125">
        <ele>1096.4000244140625</ele>
        <time>2020-08-20T08:02:11.000Z</time>
      </trkpt>
      <trkpt lat="42.74192802608013153076171875" lon="-0.7823123596608638763427734375">
        <ele>1096.800048828125</ele>
        <time>2020-08-20T08:02:17.000Z</time>
      </trkpt>
      <trkpt lat="42.74190933443605899810791015625" lon="-0.78247438184916973114013671875">
        <ele>1097</ele>
        <time>2020-08-20T08:02:25.000Z</time>
      </trkpt>
      <trkpt lat="42.741897515952587127685546875" lon="-0.782628692686557769775390625">
        <ele>1096.800048828125</ele>
        <time>2020-08-20T08:02:33.000Z</time>
      </trkpt>
      <trkpt lat="42.74187027476727962493896484375" lon="-0.78279037959873676300048828125">
        <ele>1096.5999755859375</ele>
        <time>2020-08-20T08:02:40.000Z</time>
      </trkpt>
      <trkpt lat="42.741797268390655517578125" lon="-0.78304418362677097320556640625">
        <ele>1096.199951171875</ele>
        <time>2020-08-20T08:02:48.000Z</time>
      </trkpt>
      <trkpt lat="42.7417209930717945098876953125" lon="-0.78333419747650623321533203125">
        <ele>1095.4000244140625</ele>
        <time>2020-08-20T08:02:54.000Z</time>
      </trkpt>
      <trkpt lat="42.74166407994925975799560546875" lon="-0.78351809643208980560302734375">
        <ele>1095</ele>
        <time>2020-08-20T08:02:57.000Z</time>
      </trkpt>
      <trkpt lat="42.7415845356881618499755859375" lon="-0.78371523879468441009521484375">
        <ele>1094.800048828125</ele>
        <time>2020-08-20T08:03:00.000Z</time>
      </trkpt>
      <trkpt lat="42.7414266206324100494384765625" lon="-0.78391648828983306884765625">
        <ele>1094.199951171875</ele>
        <time>2020-08-20T08:03:04.000Z</time>
      </trkpt>
      <trkpt lat="42.7413853816688060760498046875" lon="-0.7839538715779781341552734375">
        <ele>1094.199951171875</ele>
        <time>2020-08-20T08:03:05.000Z</time>
      </trkpt>
      <trkpt lat="42.74124884046614170074462890625" lon="-0.78402671031653881072998046875">
        <ele>1093.4000244140625</ele>
        <time>2020-08-20T08:03:08.000Z</time>
      </trkpt>
      <trkpt lat="42.74098346941173076629638671875" lon="-0.784138776361942291259765625">
        <ele>1092.800048828125</ele>
        <time>2020-08-20T08:03:14.000Z</time>
      </trkpt>
      <trkpt lat="42.74089562706649303436279296875" lon="-0.78418026678264141082763671875">
        <ele>1092.5999755859375</ele>
        <time>2020-08-20T08:03:16.000Z</time>
      </trkpt>
      <trkpt lat="42.7406531386077404022216796875" lon="-0.78429576940834522247314453125">
        <ele>1092.5999755859375</ele>
        <time>2020-08-20T08:03:22.000Z</time>
      </trkpt>
      <trkpt lat="42.74061374366283416748046875" lon="-0.7843409478664398193359375">
        <ele>1092.5999755859375</ele>
        <time>2020-08-20T08:03:24.000Z</time>
      </trkpt>
      <trkpt lat="42.74061516858637332916259765625" lon="-0.78439869917929172515869140625">
        <ele>1092.5999755859375</ele>
        <time>2020-08-20T08:03:26.000Z</time>
      </trkpt>
      <trkpt lat="42.7406859956681728363037109375" lon="-0.784444548189640045166015625">
        <ele>1092.5999755859375</ele>
        <time>2020-08-20T08:03:30.000Z</time>
      </trkpt>
      <trkpt lat="42.740707285702228546142578125" lon="-0.78444714657962322235107421875">
        <ele>1092.5999755859375</ele>
        <time>2020-08-20T08:03:31.000Z</time>
      </trkpt>
      <trkpt lat="42.74085321463644504547119140625" lon="-0.7844537682831287384033203125">
        <ele>1093</ele>
        <time>2020-08-20T08:03:38.000Z</time>
      </trkpt>
      <trkpt lat="42.74091222323477268218994140625" lon="-0.784461311995983123779296875">
        <ele>1093.5999755859375</ele>
        <time>2020-08-20T08:03:41.000Z</time>
      </trkpt>
      <trkpt lat="42.74096955545246601104736328125" lon="-0.7844762317836284637451171875">
        <ele>1094.800048828125</ele>
        <time>2020-08-20T08:03:44.000Z</time>
      </trkpt>
      <trkpt lat="42.74102680385112762451171875" lon="-0.78448251821100711822509765625">
        <ele>1096</ele>
        <time>2020-08-20T08:03:47.000Z</time>
      </trkpt>
      <trkpt lat="42.7410457469522953033447265625" lon="-0.7844832725822925567626953125">
        <ele>1096.199951171875</ele>
        <time>2020-08-20T08:03:48.000Z</time>
      </trkpt>
      <trkpt lat="42.74111154489219188690185546875" lon="-0.78447296284139156341552734375">
        <ele>1097.199951171875</ele>
        <time>2020-08-20T08:03:52.000Z</time>
      </trkpt>
      <trkpt lat="42.74115328676998615264892578125" lon="-0.7844561152160167694091796875">
        <ele>1098.199951171875</ele>
        <time>2020-08-20T08:03:55.000Z</time>
      </trkpt>
      <trkpt lat="42.741226293146610260009765625" lon="-0.7843853719532489776611328125">
        <ele>1099.199951171875</ele>
        <time>2020-08-20T08:04:02.000Z</time>
      </trkpt>
      <trkpt lat="42.741244733333587646484375" lon="-0.78436173498630523681640625">
        <ele>1099.5999755859375</ele>
        <time>2020-08-20T08:04:04.000Z</time>
      </trkpt>
      <trkpt lat="42.7412573061883449554443359375" lon="-0.7843525148928165435791015625">
        <ele>1099.5999755859375</ele>
        <time>2020-08-20T08:04:05.000Z</time>
      </trkpt>
      <trkpt lat="42.741325534880161285400390625" lon="-0.78430473804473876953125">
        <ele>1100.199951171875</ele>
        <time>2020-08-20T08:04:10.000Z</time>
      </trkpt>
      <trkpt lat="42.74139904417097568511962890625" lon="-0.78425838612020015716552734375">
        <ele>1100.5999755859375</ele>
        <time>2020-08-20T08:04:15.000Z</time>
      </trkpt>
      <trkpt lat="42.74150147102773189544677734375" lon="-0.7842009700834751129150390625">
        <ele>1101.199951171875</ele>
        <time>2020-08-20T08:04:22.000Z</time>
      </trkpt>
      <trkpt lat="42.74162015877664089202880859375" lon="-0.78412947244942188262939453125">
        <ele>1101.800048828125</ele>
        <time>2020-08-20T08:04:30.000Z</time>
      </trkpt>
      <trkpt lat="42.7417152933776378631591796875" lon="-0.78409376554191112518310546875">
        <ele>1102.4000244140625</ele>
        <time>2020-08-20T08:04:36.000Z</time>
      </trkpt>
      <trkpt lat="42.74176307022571563720703125" lon="-0.78406803309917449951171875">
        <ele>1102.800048828125</ele>
        <time>2020-08-20T08:04:39.000Z</time>
      </trkpt>
      <trkpt lat="42.7418601326644420623779296875" lon="-0.78402235172688961029052734375">
        <ele>1103.4000244140625</ele>
        <time>2020-08-20T08:04:45.000Z</time>
      </trkpt>
      <trkpt lat="42.74193950928747653961181640625" lon="-0.78399569727480411529541015625">
        <ele>1104.199951171875</ele>
        <time>2020-08-20T08:04:50.000Z</time>
      </trkpt>
      <trkpt lat="42.74195560254156589508056640625" lon="-0.7839904166758060455322265625">
        <ele>1104.4000244140625</ele>
        <time>2020-08-20T08:04:51.000Z</time>
      </trkpt>
      <trkpt lat="42.74204763583838939666748046875" lon="-0.783958733081817626953125">
        <ele>1105.5999755859375</ele>
        <time>2020-08-20T08:04:57.000Z</time>
      </trkpt>
      <trkpt lat="42.74209407158195972442626953125" lon="-0.7839441485702991485595703125">
        <ele>1106.199951171875</ele>
        <time>2020-08-20T08:05:00.000Z</time>
      </trkpt>
      <trkpt lat="42.7421250008046627044677734375" lon="-0.78393937088549137115478515625">
        <ele>1106.800048828125</ele>
        <time>2020-08-20T08:05:02.000Z</time>
      </trkpt>
      <trkpt lat="42.7421880327165126800537109375" lon="-0.78392009250819683074951171875">
        <ele>1107.800048828125</ele>
        <time>2020-08-20T08:05:06.000Z</time>
      </trkpt>
      <trkpt lat="42.7422517351806163787841796875" lon="-0.78388564288616180419921875">
        <ele>1109</ele>
        <time>2020-08-20T08:05:10.000Z</time>
      </trkpt>
      <trkpt lat="42.74226665496826171875" lon="-0.78387491405010223388671875">
        <ele>1109</ele>
        <time>2020-08-20T08:05:11.000Z</time>
      </trkpt>
      <trkpt lat="42.74233295582234859466552734375" lon="-0.7838553003966808319091796875">
        <ele>1110.199951171875</ele>
        <time>2020-08-20T08:05:15.000Z</time>
      </trkpt>
      <trkpt lat="42.74238224141299724578857421875" lon="-0.78384582884609699249267578125">
        <ele>1111.199951171875</ele>
        <time>2020-08-20T08:05:18.000Z</time>
      </trkpt>
      <trkpt lat="42.7423979155719280242919921875" lon="-0.78384197317063808441162109375">
        <ele>1111.5999755859375</ele>
        <time>2020-08-20T08:05:19.000Z</time>
      </trkpt>
      <trkpt lat="42.7424596063792705535888671875" lon="-0.78383870422840118408203125">
        <ele>1112.4000244140625</ele>
        <time>2020-08-20T08:05:23.000Z</time>
      </trkpt>
      <trkpt lat="42.74251786060631275177001953125" lon="-0.7838271372020244598388671875">
        <ele>1112.800048828125</ele>
        <time>2020-08-20T08:05:27.000Z</time>
      </trkpt>
      <trkpt lat="42.7425769530236721038818359375" lon="-0.783820934593677520751953125">
        <ele>1113.5999755859375</ele>
        <time>2020-08-20T08:05:31.000Z</time>
      </trkpt>
      <trkpt lat="42.742647193372249603271484375" lon="-0.78380811028182506561279296875">
        <ele>1114.800048828125</ele>
        <time>2020-08-20T08:05:36.000Z</time>
      </trkpt>
      <trkpt lat="42.74267577566206455230712890625" lon="-0.78379872255027294158935546875">
        <ele>1115.199951171875</ele>
        <time>2020-08-20T08:05:38.000Z</time>
      </trkpt>
      <trkpt lat="42.74273361079394817352294921875" lon="-0.783787071704864501953125">
        <ele>1116</ele>
        <time>2020-08-20T08:05:42.000Z</time>
      </trkpt>
      <trkpt lat="42.7427955530583858489990234375" lon="-0.783784389495849609375">
        <ele>1116.5999755859375</ele>
        <time>2020-08-20T08:05:46.000Z</time>
      </trkpt>
      <trkpt lat="42.7428438328206539154052734375" lon="-0.78377760015428066253662109375">
        <ele>1117</ele>
        <time>2020-08-20T08:05:49.000Z</time>
      </trkpt>
      <trkpt lat="42.7429011650383472442626953125" lon="-0.78375077806413173675537109375">
        <ele>1118.199951171875</ele>
        <time>2020-08-20T08:05:53.000Z</time>
      </trkpt>
      <trkpt lat="42.74293192662298679351806640625" lon="-0.7837399654090404510498046875">
        <ele>1118.4000244140625</ele>
        <time>2020-08-20T08:05:55.000Z</time>
      </trkpt>
      <trkpt lat="42.74297676980495452880859375" lon="-0.78374139033257961273193359375">
        <ele>1119.4000244140625</ele>
        <time>2020-08-20T08:05:58.000Z</time>
      </trkpt>
      <trkpt lat="42.74301457218825817108154296875" lon="-0.78374750912189483642578125">
        <ele>1119.4000244140625</ele>
        <time>2020-08-20T08:06:01.000Z</time>
      </trkpt>
      <trkpt lat="42.74306603707373142242431640625" lon="-0.7837201841175556182861328125">
        <ele>1120.199951171875</ele>
        <time>2020-08-20T08:06:05.000Z</time>
      </trkpt>
      <trkpt lat="42.74309973232448101043701171875" lon="-0.78370383940637111663818359375">
        <ele>1120.4000244140625</ele>
        <time>2020-08-20T08:06:08.000Z</time>
      </trkpt>
      <trkpt lat="42.7431786060333251953125" lon="-0.783676765859127044677734375">
        <ele>1120.5999755859375</ele>
        <time>2020-08-20T08:06:16.000Z</time>
      </trkpt>
      <trkpt lat="42.74326854385435581207275390625" lon="-0.7836390472948551177978515625">
        <ele>1120.4000244140625</ele>
        <time>2020-08-20T08:06:24.000Z</time>
      </trkpt>
      <trkpt lat="42.74337499402463436126708984375" lon="-0.7836382091045379638671875">
        <ele>1120.800048828125</ele>
        <time>2020-08-20T08:06:32.000Z</time>
      </trkpt>
      <trkpt lat="42.74349418468773365020751953125" lon="-0.78366360627114772796630859375">
        <ele>1120.199951171875</ele>
        <time>2020-08-20T08:06:40.000Z</time>
      </trkpt>
      <trkpt lat="42.743602730333805084228515625" lon="-0.78369612805545330047607421875">
        <ele>1120.199951171875</ele>
        <time>2020-08-20T08:06:47.000Z</time>
      </trkpt>
      <trkpt lat="42.74371932260692119598388671875" lon="-0.7837329246103763580322265625">
        <ele>1120.4000244140625</ele>
        <time>2020-08-20T08:06:54.000Z</time>
      </trkpt>
      <trkpt lat="42.743834741413593292236328125" lon="-0.783773325383663177490234375">
        <ele>1120.4000244140625</ele>
        <time>2020-08-20T08:07:01.000Z</time>
      </trkpt>
      <trkpt lat="42.743964157998561859130859375" lon="-0.783783383667469024658203125">
        <ele>1120.5999755859375</ele>
        <time>2020-08-20T08:07:09.000Z</time>
      </trkpt>
      <trkpt lat="42.74400271475315093994140625" lon="-0.783781372010707855224609375">
        <ele>1120.800048828125</ele>
        <time>2020-08-20T08:07:12.000Z</time>
      </trkpt>
      <trkpt lat="42.7440588735044002532958984375" lon="-0.78376167453825473785400390625">
        <ele>1121.199951171875</ele>
        <time>2020-08-20T08:07:16.000Z</time>
      </trkpt>
      <trkpt lat="42.74419742636382579803466796875" lon="-0.7836608402431011199951171875">
        <ele>1121.800048828125</ele>
        <time>2020-08-20T08:07:26.000Z</time>
      </trkpt>
      <trkpt lat="42.74422558955848217010498046875" lon="-0.7836380414664745330810546875">
        <ele>1122</ele>
        <time>2020-08-20T08:07:28.000Z</time>
      </trkpt>
      <trkpt lat="42.74431116878986358642578125" lon="-0.7835776917636394500732421875">
        <ele>1122.199951171875</ele>
        <time>2020-08-20T08:07:34.000Z</time>
      </trkpt>
      <trkpt lat="42.74438937194645404815673828125" lon="-0.783537961542606353759765625">
        <ele>1122.800048828125</ele>
        <time>2020-08-20T08:07:39.000Z</time>
      </trkpt>
      <trkpt lat="42.7444325387477874755859375" lon="-0.78351055271923542022705078125">
        <ele>1123.199951171875</ele>
        <time>2020-08-20T08:07:42.000Z</time>
      </trkpt>
      <trkpt lat="42.7445242367684841156005859375" lon="-0.78347652219235897064208984375">
        <ele>1123.800048828125</ele>
        <time>2020-08-20T08:07:48.000Z</time>
      </trkpt>
      <trkpt lat="42.74459757842123508453369140625" lon="-0.78345741145312786102294921875">
        <ele>1124.800048828125</ele>
        <time>2020-08-20T08:07:53.000Z</time>
      </trkpt>
      <trkpt lat="42.74462657980620861053466796875" lon="-0.78344483859837055206298828125">
        <ele>1125</ele>
        <time>2020-08-20T08:07:55.000Z</time>
      </trkpt>
      <trkpt lat="42.74470218457281589508056640625" lon="-0.78341164626181125640869140625">
        <ele>1125.5999755859375</ele>
        <time>2020-08-20T08:08:00.000Z</time>
      </trkpt>
      <trkpt lat="42.74471760727465152740478515625" lon="-0.783405862748622894287109375">
        <ele>1126</ele>
        <time>2020-08-20T08:08:01.000Z</time>
      </trkpt>
      <trkpt lat="42.74482673965394496917724609375" lon="-0.78337795101106166839599609375">
        <ele>1127</ele>
        <time>2020-08-20T08:08:08.000Z</time>
      </trkpt>
      <trkpt lat="42.74484224617481231689453125" lon="-0.7833768613636493682861328125">
        <ele>1127.199951171875</ele>
        <time>2020-08-20T08:08:09.000Z</time>
      </trkpt>
      <trkpt lat="42.74492003023624420166015625" lon="-0.78336688689887523651123046875">
        <ele>1128.199951171875</ele>
        <time>2020-08-20T08:08:14.000Z</time>
      </trkpt>
      <trkpt lat="42.74497644044458866119384765625" lon="-0.7833688147366046905517578125">
        <ele>1129.4000244140625</ele>
        <time>2020-08-20T08:08:18.000Z</time>
      </trkpt>
      <trkpt lat="42.7450467646121978759765625" lon="-0.78339655883610248565673828125">
        <ele>1130.4000244140625</ele>
        <time>2020-08-20T08:08:23.000Z</time>
      </trkpt>
      <trkpt lat="42.74511926807463169097900390625" lon="-0.78341198153793811798095703125">
        <ele>1130.800048828125</ele>
        <time>2020-08-20T08:08:28.000Z</time>
      </trkpt>
      <trkpt lat="42.7451662905514240264892578125" lon="-0.78341684304177761077880859375">
        <ele>1131.4000244140625</ele>
        <time>2020-08-20T08:08:31.000Z</time>
      </trkpt>
      <trkpt lat="42.74524130858480930328369140625" lon="-0.783434025943279266357421875">
        <ele>1132.4000244140625</ele>
        <time>2020-08-20T08:08:36.000Z</time>
      </trkpt>
      <trkpt lat="42.7452559769153594970703125" lon="-0.783442072570323944091796875">
        <ele>1132.5999755859375</ele>
        <time>2020-08-20T08:08:37.000Z</time>
      </trkpt>
      <trkpt lat="42.74542856030166149139404296875" lon="-0.78351818025112152099609375">
        <ele>1133.4000244140625</ele>
        <time>2020-08-20T08:08:48.000Z</time>
      </trkpt>
      <trkpt lat="42.7454449050128459930419921875" lon="-0.78352279029786586761474609375">
        <ele>1133.4000244140625</ele>
        <time>2020-08-20T08:08:49.000Z</time>
      </trkpt>
      <trkpt lat="42.74556644260883331298828125" lon="-0.78358112834393978118896484375">
        <ele>1134</ele>
        <time>2020-08-20T08:08:57.000Z</time>
      </trkpt>
      <trkpt lat="42.74563693441450595855712890625" lon="-0.7836122252047061920166015625">
        <ele>1134.4000244140625</ele>
        <time>2020-08-20T08:09:02.000Z</time>
      </trkpt>
      <trkpt lat="42.7456789277493953704833984375" lon="-0.783643908798694610595703125">
        <ele>1134.5999755859375</ele>
        <time>2020-08-20T08:09:05.000Z</time>
      </trkpt>
      <trkpt lat="42.745796777307987213134765625" lon="-0.78374993987381458282470703125">
        <ele>1135.5999755859375</ele>
        <time>2020-08-20T08:09:14.000Z</time>
      </trkpt>
      <trkpt lat="42.745923511683940887451171875" lon="-0.78390031121671199798583984375">
        <ele>1136.199951171875</ele>
        <time>2020-08-20T08:09:24.000Z</time>
      </trkpt>
      <trkpt lat="42.74593365378677845001220703125" lon="-0.783918164670467376708984375">
        <ele>1136.4000244140625</ele>
        <time>2020-08-20T08:09:25.000Z</time>
      </trkpt>
      <trkpt lat="42.7459935843944549560546875" lon="-0.78402687795460224151611328125">
        <ele>1136.800048828125</ele>
        <time>2020-08-20T08:09:31.000Z</time>
      </trkpt>
      <trkpt lat="42.7460688538849353790283203125" lon="-0.78418797813355922698974609375">
        <ele>1137.4000244140625</ele>
        <time>2020-08-20T08:09:39.000Z</time>
      </trkpt>
      <trkpt lat="42.74607815779745578765869140625" lon="-0.7842086814343929290771484375">
        <ele>1137.5999755859375</ele>
        <time>2020-08-20T08:09:40.000Z</time>
      </trkpt>
      <trkpt lat="42.74616600014269351959228515625" lon="-0.7843555323779582977294921875">
        <ele>1138.4000244140625</ele>
        <time>2020-08-20T08:09:48.000Z</time>
      </trkpt>
      <trkpt lat="42.74617798626422882080078125" lon="-0.78437254764139652252197265625">
        <ele>1138.5999755859375</ele>
        <time>2020-08-20T08:09:49.000Z</time>
      </trkpt>
      <trkpt lat="42.746306397020816802978515625" lon="-0.78449316322803497314453125">
        <ele>1139.199951171875</ele>
        <time>2020-08-20T08:09:59.000Z</time>
      </trkpt>
      <trkpt lat="42.746319137513637542724609375" lon="-0.784500874578952789306640625">
        <ele>1139.4000244140625</ele>
        <time>2020-08-20T08:10:00.000Z</time>
      </trkpt>
      <trkpt lat="42.74641326628625392913818359375" lon="-0.78459114767611026763916015625">
        <ele>1140</ele>
        <time>2020-08-20T08:10:08.000Z</time>
      </trkpt>
      <trkpt lat="42.7464540861546993255615234375" lon="-0.78462459146976470947265625">
        <ele>1140.4000244140625</ele>
        <time>2020-08-20T08:10:11.000Z</time>
      </trkpt>
      <trkpt lat="42.7465362288057804107666015625" lon="-0.7846841029822826385498046875">
        <ele>1140.5999755859375</ele>
        <time>2020-08-20T08:10:16.000Z</time>
      </trkpt>
      <trkpt lat="42.74667763151228427886962890625" lon="-0.784870684146881103515625">
        <ele>1141</ele>
        <time>2020-08-20T08:10:26.000Z</time>
      </trkpt>
      <trkpt lat="42.74670260958373546600341796875" lon="-0.78491183929145336151123046875">
        <ele>1141.199951171875</ele>
        <time>2020-08-20T08:10:28.000Z</time>
      </trkpt>
      <trkpt lat="42.7468064613640308380126953125" lon="-0.78510412015020847320556640625">
        <ele>1141.199951171875</ele>
        <time>2020-08-20T08:10:37.000Z</time>
      </trkpt>
      <trkpt lat="42.74685147218406200408935546875" lon="-0.7851917110383510589599609375">
        <ele>1141.4000244140625</ele>
        <time>2020-08-20T08:10:41.000Z</time>
      </trkpt>
      <trkpt lat="42.74689338169991970062255859375" lon="-0.78528349287807941436767578125">
        <ele>1141.800048828125</ele>
        <time>2020-08-20T08:10:45.000Z</time>
      </trkpt>
      <trkpt lat="42.74696647189557552337646484375" lon="-0.785383991897106170654296875">
        <ele>1142.199951171875</ele>
        <time>2020-08-20T08:10:50.000Z</time>
      </trkpt>
      <trkpt lat="42.74700150825083255767822265625" lon="-0.7853977382183074951171875">
        <ele>1142.4000244140625</ele>
        <time>2020-08-20T08:10:52.000Z</time>
      </trkpt>
      <trkpt lat="42.74705498479306697845458984375" lon="-0.78539304435253143310546875">
        <ele>1142.5999755859375</ele>
        <time>2020-08-20T08:10:58.000Z</time>
      </trkpt>
      <trkpt lat="42.74708180688321590423583984375" lon="-0.7853811420500278472900390625">
        <ele>1142.199951171875</ele>
        <time>2020-08-20T08:11:16.000Z</time>
      </trkpt>
      <trkpt lat="42.74716059677302837371826171875" lon="-0.78528550453484058380126953125">
        <ele>1141.5999755859375</ele>
        <time>2020-08-20T08:11:24.000Z</time>
      </trkpt>
      <trkpt lat="42.74725581519305706024169921875" lon="-0.78511199913918972015380859375">
        <ele>1140.5999755859375</ele>
        <time>2020-08-20T08:11:32.000Z</time>
      </trkpt>
      <trkpt lat="42.7473009936511516571044921875" lon="-0.7850351370871067047119140625">
        <ele>1139.4000244140625</ele>
        <time>2020-08-20T08:11:35.000Z</time>
      </trkpt>
      <trkpt lat="42.74733401834964752197265625" lon="-0.7849898748099803924560546875">
        <ele>1138.4000244140625</ele>
        <time>2020-08-20T08:11:37.000Z</time>
      </trkpt>
      <trkpt lat="42.74739126674830913543701171875" lon="-0.78493447043001651763916015625">
        <ele>1137.4000244140625</ele>
        <time>2020-08-20T08:11:40.000Z</time>
      </trkpt>
      <trkpt lat="42.7474106289446353912353515625" lon="-0.784918963909149169921875">
        <ele>1137</ele>
        <time>2020-08-20T08:11:41.000Z</time>
      </trkpt>
      <trkpt lat="42.74748279713094234466552734375" lon="-0.78485836274921894073486328125">
        <ele>1135.4000244140625</ele>
        <time>2020-08-20T08:11:45.000Z</time>
      </trkpt>
      <trkpt lat="42.74754113517701625823974609375" lon="-0.7847997732460498809814453125">
        <ele>1133.800048828125</ele>
        <time>2020-08-20T08:11:48.000Z</time>
      </trkpt>
      <trkpt lat="42.74758706800639629364013671875" lon="-0.78476079739630222320556640625">
        <ele>1132.4000244140625</ele>
        <time>2020-08-20T08:11:50.000Z</time>
      </trkpt>
      <trkpt lat="42.74767491035163402557373046875" lon="-0.78467060811817646026611328125">
        <ele>1130.800048828125</ele>
        <time>2020-08-20T08:11:54.000Z</time>
      </trkpt>
      <trkpt lat="42.74769603274762630462646484375" lon="-0.78464546240866184234619140625">
        <ele>1130.4000244140625</ele>
        <time>2020-08-20T08:11:55.000Z</time>
      </trkpt>
      <trkpt lat="42.74771732278168201446533203125" lon="-0.78462165780365467071533203125">
        <ele>1129.800048828125</ele>
        <time>2020-08-20T08:11:56.000Z</time>
      </trkpt>
      <trkpt lat="42.74775772355496883392333984375" lon="-0.78456868417561054229736328125">
        <ele>1128.4000244140625</ele>
        <time>2020-08-20T08:11:58.000Z</time>
      </trkpt>
      <trkpt lat="42.7478344179689884185791015625" lon="-0.784453265368938446044921875">
        <ele>1127.5999755859375</ele>
        <time>2020-08-20T08:12:02.000Z</time>
      </trkpt>
      <trkpt lat="42.74786819703876972198486328125" lon="-0.7844004593789577484130859375">
        <ele>1127.4000244140625</ele>
        <time>2020-08-20T08:12:04.000Z</time>
      </trkpt>
      <trkpt lat="42.74792117066681385040283203125" lon="-0.78431588597595691680908203125">
        <ele>1126</ele>
        <time>2020-08-20T08:12:07.000Z</time>
      </trkpt>
      <trkpt lat="42.74797414429485797882080078125" lon="-0.7842321507632732391357421875">
        <ele>1124.5999755859375</ele>
        <time>2020-08-20T08:12:10.000Z</time>
      </trkpt>
      <trkpt lat="42.7480694465339183807373046875" lon="-0.78408588655292987823486328125">
        <ele>1123.199951171875</ele>
        <time>2020-08-20T08:12:15.000Z</time>
      </trkpt>
      <trkpt lat="42.74812116287648677825927734375" lon="-0.783998966217041015625">
        <ele>1122</ele>
        <time>2020-08-20T08:12:18.000Z</time>
      </trkpt>
      <trkpt lat="42.74815603159368038177490234375" lon="-0.78394507057964801788330078125">
        <ele>1121.4000244140625</ele>
        <time>2020-08-20T08:12:20.000Z</time>
      </trkpt>
      <trkpt lat="42.748175226151943206787109375" lon="-0.78391648828983306884765625">
        <ele>1121</ele>
        <time>2020-08-20T08:12:21.000Z</time>
      </trkpt>
      <trkpt lat="42.74823146872222423553466796875" lon="-0.783827304840087890625">
        <ele>1119.4000244140625</ele>
        <time>2020-08-20T08:12:24.000Z</time>
      </trkpt>
      <trkpt lat="42.7482769824564456939697265625" lon="-0.78373334370553493499755859375">
        <ele>1118.4000244140625</ele>
        <time>2020-08-20T08:12:27.000Z</time>
      </trkpt>
      <trkpt lat="42.748305313289165496826171875" lon="-0.78366712667047977447509765625">
        <ele>1118.199951171875</ele>
        <time>2020-08-20T08:12:29.000Z</time>
      </trkpt>
      <trkpt lat="42.7483539283275604248046875" lon="-0.7835590839385986328125">
        <ele>1117</ele>
        <time>2020-08-20T08:12:32.000Z</time>
      </trkpt>
      <trkpt lat="42.74836574681103229522705078125" lon="-0.78353226184844970703125">
        <ele>1116.800048828125</ele>
        <time>2020-08-20T08:12:33.000Z</time>
      </trkpt>
      <trkpt lat="42.74845182895660400390625" lon="-0.78335247002542018890380859375">
        <ele>1116.4000244140625</ele>
        <time>2020-08-20T08:12:38.000Z</time>
      </trkpt>
      <trkpt lat="42.74853405542671680450439453125" lon="-0.783183909952640533447265625">
        <ele>1115.800048828125</ele>
        <time>2020-08-20T08:12:41.000Z</time>
      </trkpt>
      <trkpt lat="42.748626172542572021484375" lon="-0.78300713561475276947021484375">
        <ele>1114.800048828125</ele>
        <time>2020-08-20T08:12:44.000Z</time>
      </trkpt>
      <trkpt lat="42.7488043718039989471435546875" lon="-0.7827307842671871185302734375">
        <ele>1113.800048828125</ele>
        <time>2020-08-20T08:12:49.000Z</time>
      </trkpt>
      <trkpt lat="42.74887100793421268463134765625" lon="-0.782641433179378509521484375">
        <ele>1113.5999755859375</ele>
        <time>2020-08-20T08:12:51.000Z</time>
      </trkpt>
      <trkpt lat="42.74898760020732879638671875" lon="-0.78250606544315814971923828125">
        <ele>1113.800048828125</ele>
        <time>2020-08-20T08:12:56.000Z</time>
      </trkpt>
      <trkpt lat="42.749047614634037017822265625" lon="-0.78242694027721881866455078125">
        <ele>1114.5999755859375</ele>
        <time>2020-08-20T08:13:00.000Z</time>
      </trkpt>
      <trkpt lat="42.7490866743028163909912109375" lon="-0.78237296082079410552978515625">
        <ele>1114.800048828125</ele>
        <time>2020-08-20T08:13:03.000Z</time>
      </trkpt>
      <trkpt lat="42.74918616749346256256103515625" lon="-0.78222979791462421417236328125">
        <ele>1115.4000244140625</ele>
        <time>2020-08-20T08:13:11.000Z</time>
      </trkpt>
      <trkpt lat="42.749230004847049713134765625" lon="-0.7821789197623729705810546875">
        <ele>1115.5999755859375</ele>
        <time>2020-08-20T08:13:14.000Z</time>
      </trkpt>
      <trkpt lat="42.74930007755756378173828125" lon="-0.782092921435832977294921875">
        <ele>1116</ele>
        <time>2020-08-20T08:13:19.000Z</time>
      </trkpt>
      <trkpt lat="42.74935045279562473297119140625" lon="-0.78202645294368267059326171875">
        <ele>1116.800048828125</ele>
        <time>2020-08-20T08:13:23.000Z</time>
      </trkpt>
      <trkpt lat="42.7494041807949542999267578125" lon="-0.78196979127824306488037109375">
        <ele>1117.800048828125</ele>
        <time>2020-08-20T08:13:27.000Z</time>
      </trkpt>
      <trkpt lat="42.749429829418659210205078125" lon="-0.78194179572165012359619140625">
        <ele>1118.4000244140625</ele>
        <time>2020-08-20T08:13:29.000Z</time>
      </trkpt>
      <trkpt lat="42.74950484745204448699951171875" lon="-0.78184791840612888336181640625">
        <ele>1119</ele>
        <time>2020-08-20T08:13:35.000Z</time>
      </trkpt>
      <trkpt lat="42.74954960681498050689697265625" lon="-0.78180014155805110931396484375">
        <ele>1119.5999755859375</ele>
        <time>2020-08-20T08:13:38.000Z</time>
      </trkpt>
      <trkpt lat="42.749578021466732025146484375" lon="-0.78177667222917079925537109375">
        <ele>1120.4000244140625</ele>
        <time>2020-08-20T08:13:40.000Z</time>
      </trkpt>
      <trkpt lat="42.749604843556880950927734375" lon="-0.78175940550863742828369140625">
        <ele>1121.5999755859375</ele>
        <time>2020-08-20T08:13:42.000Z</time>
      </trkpt>
      <trkpt lat="42.74964063428342342376708984375" lon="-0.7817393727600574493408203125">
        <ele>1122.4000244140625</ele>
        <time>2020-08-20T08:13:45.000Z</time>
      </trkpt>
      <trkpt lat="42.74967826902866363525390625" lon="-0.7817155681550502777099609375">
        <ele>1122.5999755859375</ele>
        <time>2020-08-20T08:13:48.000Z</time>
      </trkpt>
      <trkpt lat="42.74975697509944438934326171875" lon="-0.78167977742850780487060546875">
        <ele>1123</ele>
        <time>2020-08-20T08:13:54.000Z</time>
      </trkpt>
      <trkpt lat="42.74990223348140716552734375" lon="-0.7816522009670734405517578125">
        <ele>1123.5999755859375</ele>
        <time>2020-08-20T08:14:03.000Z</time>
      </trkpt>
      <trkpt lat="42.74993567727506160736083984375" lon="-0.7816506922245025634765625">
        <ele>1123.5999755859375</ele>
        <time>2020-08-20T08:14:05.000Z</time>
      </trkpt>
      <trkpt lat="42.7500344999134540557861328125" lon="-0.78163518570363521575927734375">
        <ele>1123.800048828125</ele>
        <time>2020-08-20T08:14:10.000Z</time>
      </trkpt>
      <trkpt lat="42.7502209134399890899658203125" lon="-0.78162881545722484588623046875">
        <ele>1123</ele>
        <time>2020-08-20T08:14:17.000Z</time>
      </trkpt>
      <trkpt lat="42.75035544298589229583740234375" lon="-0.7816397957503795623779296875">
        <ele>1122.4000244140625</ele>
        <time>2020-08-20T08:14:22.000Z</time>
      </trkpt>
      <trkpt lat="42.75037832558155059814453125" lon="-0.7816401310265064239501953125">
        <ele>1122.4000244140625</ele>
        <time>2020-08-20T08:14:23.000Z</time>
      </trkpt>
      <trkpt lat="42.750542946159839630126953125" lon="-0.78165806829929351806640625">
        <ele>1123</ele>
        <time>2020-08-20T08:14:31.000Z</time>
      </trkpt>
      <trkpt lat="42.7506203949451446533203125" lon="-0.78167223371565341949462890625">
        <ele>1123.4000244140625</ele>
        <time>2020-08-20T08:14:35.000Z</time>
      </trkpt>
      <trkpt lat="42.75071234442293643951416015625" lon="-0.7816931046545505523681640625">
        <ele>1123.800048828125</ele>
        <time>2020-08-20T08:14:40.000Z</time>
      </trkpt>
      <trkpt lat="42.75076766498386859893798828125" lon="-0.78169603832066059112548828125">
        <ele>1124.5999755859375</ele>
        <time>2020-08-20T08:14:43.000Z</time>
      </trkpt>
      <trkpt lat="42.75087495334446430206298828125" lon="-0.78166854567825794219970703125">
        <ele>1125.199951171875</ele>
        <time>2020-08-20T08:14:49.000Z</time>
      </trkpt>
      <trkpt lat="42.75091015733778476715087890625" lon="-0.78165404498577117919921875">
        <ele>1125.5999755859375</ele>
        <time>2020-08-20T08:14:51.000Z</time>
      </trkpt>
      <trkpt lat="42.75102264247834682464599609375" lon="-0.78158288262784481048583984375">
        <ele>1126.199951171875</ele>
        <time>2020-08-20T08:14:58.000Z</time>
      </trkpt>
      <trkpt lat="42.75108248926699161529541015625" lon="-0.7815271429717540740966796875">
        <ele>1126.800048828125</ele>
        <time>2020-08-20T08:15:02.000Z</time>
      </trkpt>
      <trkpt lat="42.75112054310739040374755859375" lon="-0.78147660009562969207763671875">
        <ele>1126.800048828125</ele>
        <time>2020-08-20T08:15:05.000Z</time>
      </trkpt>
      <trkpt lat="42.751201093196868896484375" lon="-0.78139294870197772979736328125">
        <ele>1127.800048828125</ele>
        <time>2020-08-20T08:15:11.000Z</time>
      </trkpt>
      <trkpt lat="42.75122498162090778350830078125" lon="-0.78136361204087734222412109375">
        <ele>1128.199951171875</ele>
        <time>2020-08-20T08:15:13.000Z</time>
      </trkpt>
      <trkpt lat="42.7512649632990360260009765625" lon="-0.78129990957677364349365234375">
        <ele>1129</ele>
        <time>2020-08-20T08:15:17.000Z</time>
      </trkpt>
      <trkpt lat="42.7513112314045429229736328125" lon="-0.78120703808963298797607421875">
        <ele>1129.199951171875</ele>
        <time>2020-08-20T08:15:22.000Z</time>
      </trkpt>
      <trkpt lat="42.75135322473943233489990234375" lon="-0.7811134122312068939208984375">
        <ele>1129.800048828125</ele>
        <time>2020-08-20T08:15:27.000Z</time>
      </trkpt>
      <trkpt lat="42.75138591416180133819580078125" lon="-0.78103403560817241668701171875">
        <ele>1130.800048828125</ele>
        <time>2020-08-20T08:15:31.000Z</time>
      </trkpt>
      <trkpt lat="42.75141927413642406463623046875" lon="-0.78095708973705768585205078125">
        <ele>1132.199951171875</ele>
        <time>2020-08-20T08:15:35.000Z</time>
      </trkpt>
      <trkpt lat="42.75146286003291606903076171875" lon="-0.780861116945743560791015625">
        <ele>1133.5999755859375</ele>
        <time>2020-08-20T08:15:40.000Z</time>
      </trkpt>
      <trkpt lat="42.7514986507594585418701171875" lon="-0.7807841710746288299560546875">
        <ele>1134.5999755859375</ele>
        <time>2020-08-20T08:15:44.000Z</time>
      </trkpt>
      <trkpt lat="42.7515251375734806060791015625" lon="-0.78069909475743770599365234375">
        <ele>1135.4000244140625</ele>
        <time>2020-08-20T08:15:48.000Z</time>
      </trkpt>
      <trkpt lat="42.751532010734081268310546875" lon="-0.7806782238185405731201171875">
        <ele>1135.800048828125</ele>
        <time>2020-08-20T08:15:49.000Z</time>
      </trkpt>
      <trkpt lat="42.75156361050903797149658203125" lon="-0.7805709354579448699951171875">
        <ele>1136.800048828125</ele>
        <time>2020-08-20T08:15:54.000Z</time>
      </trkpt>
      <trkpt lat="42.75159445591270923614501953125" lon="-0.78049373812973499298095703125">
        <ele>1138.199951171875</ele>
        <time>2020-08-20T08:15:58.000Z</time>
      </trkpt>
      <trkpt lat="42.75162630714476108551025390625" lon="-0.7803821749985218048095703125">
        <ele>1139.4000244140625</ele>
        <time>2020-08-20T08:16:04.000Z</time>
      </trkpt>
      <trkpt lat="42.751632593572139739990234375" lon="-0.78036834485828876495361328125">
        <ele>1139.5999755859375</ele>
        <time>2020-08-20T08:16:05.000Z</time>
      </trkpt>
      <trkpt lat="42.7516501955687999725341796875" lon="-0.780353508889675140380859375">
        <ele>1139.5999755859375</ele>
        <time>2020-08-20T08:16:07.000Z</time>
      </trkpt>
      <trkpt lat="42.75171884335577487945556640625" lon="-0.7803659141063690185546875">
        <ele>1139.800048828125</ele>
        <time>2020-08-20T08:16:13.000Z</time>
      </trkpt>
      <trkpt lat="42.751737870275974273681640625" lon="-0.78041553497314453125">
        <ele>1140.199951171875</ele>
        <time>2020-08-20T08:16:16.000Z</time>
      </trkpt>
      <trkpt lat="42.75173795409500598907470703125" lon="-0.78043674118816852569580078125">
        <ele>1140.4000244140625</ele>
        <time>2020-08-20T08:16:17.000Z</time>
      </trkpt>
      <trkpt lat="42.7517377026379108428955078125" lon="-0.7804584503173828125">
        <ele>1140.800048828125</ele>
        <time>2020-08-20T08:16:18.000Z</time>
      </trkpt>
      <trkpt lat="42.75171398185193538665771484375" lon="-0.7805887050926685333251953125">
        <ele>1141.5999755859375</ele>
        <time>2020-08-20T08:16:24.000Z</time>
      </trkpt>
      <trkpt lat="42.7517108805477619171142578125" lon="-0.780630446970462799072265625">
        <ele>1142</ele>
        <time>2020-08-20T08:16:26.000Z</time>
      </trkpt>
      <trkpt lat="42.751709036529064178466796875" lon="-0.780688785016536712646484375">
        <ele>1142.800048828125</ele>
        <time>2020-08-20T08:16:29.000Z</time>
      </trkpt>
      <trkpt lat="42.75169939734041690826416015625" lon="-0.78079062514007091522216796875">
        <ele>1143.4000244140625</ele>
        <time>2020-08-20T08:16:34.000Z</time>
      </trkpt>
      <trkpt lat="42.75169168598949909210205078125" lon="-0.78087218105792999267578125">
        <ele>1144.199951171875</ele>
        <time>2020-08-20T08:16:38.000Z</time>
      </trkpt>
      <trkpt lat="42.75169017724692821502685546875" lon="-0.78097100369632244110107421875">
        <ele>1145.199951171875</ele>
        <time>2020-08-20T08:16:43.000Z</time>
      </trkpt>
      <trkpt lat="42.75168984197080135345458984375" lon="-0.7809910364449024200439453125">
        <ele>1145.4000244140625</ele>
        <time>2020-08-20T08:16:44.000Z</time>
      </trkpt>
      <trkpt lat="42.75168933905661106109619140625" lon="-0.78107007779181003570556640625">
        <ele>1146.199951171875</ele>
        <time>2020-08-20T08:16:48.000Z</time>
      </trkpt>
      <trkpt lat="42.7516890875995159149169921875" lon="-0.78117049299180507659912109375">
        <ele>1146.5999755859375</ele>
        <time>2020-08-20T08:16:53.000Z</time>
      </trkpt>
      <trkpt lat="42.7516984753310680389404296875" lon="-0.78124844469130039215087890625">
        <ele>1147.4000244140625</ele>
        <time>2020-08-20T08:16:57.000Z</time>
      </trkpt>
      <trkpt lat="42.75170627050101757049560546875" lon="-0.7813073694705963134765625">
        <ele>1148.199951171875</ele>
        <time>2020-08-20T08:17:00.000Z</time>
      </trkpt>
      <trkpt lat="42.75170593522489070892333984375" lon="-0.7813289947807788848876953125">
        <ele>1148.5999755859375</ele>
        <time>2020-08-20T08:17:01.000Z</time>
      </trkpt>
      <trkpt lat="42.75170643813908100128173828125" lon="-0.78139261342585086822509765625">
        <ele>1149.5999755859375</ele>
        <time>2020-08-20T08:17:04.000Z</time>
      </trkpt>
      <trkpt lat="42.7517011575400829315185546875" lon="-0.78145178966224193572998046875">
        <ele>1150</ele>
        <time>2020-08-20T08:17:07.000Z</time>
      </trkpt>
      <trkpt lat="42.75170191191136837005615234375" lon="-0.7815120555460453033447265625">
        <ele>1151</ele>
        <time>2020-08-20T08:17:10.000Z</time>
      </trkpt>
      <trkpt lat="42.751714400947093963623046875" lon="-0.78160081990063190460205078125">
        <ele>1151.800048828125</ele>
        <time>2020-08-20T08:17:15.000Z</time>
      </trkpt>
      <trkpt lat="42.75171515531837940216064453125" lon="-0.7816045917570590972900390625">
        <ele>1152</ele>
        <time>2020-08-20T08:17:16.000Z</time>
      </trkpt>
      <trkpt lat="42.75171272456645965576171875" lon="-0.78160584904253482818603515625">
        <ele>1152.199951171875</ele>
        <time>2020-08-20T08:17:22.000Z</time>
      </trkpt>
      <trkpt lat="42.751713730394840240478515625" lon="-0.78161389566957950592041015625">
        <ele>1152.4000244140625</ele>
        <time>2020-08-20T08:17:35.000Z</time>
      </trkpt>
      <trkpt lat="42.7517145685851573944091796875" lon="-0.78162848018109798431396484375">
        <ele>1152.199951171875</ele>
        <time>2020-08-20T08:17:36.000Z</time>
      </trkpt>
      <trkpt lat="42.75173560716211795806884765625" lon="-0.78169050626456737518310546875">
        <ele>1152.800048828125</ele>
        <time>2020-08-20T08:17:42.000Z</time>
      </trkpt>
      <trkpt lat="42.75173560716211795806884765625" lon="-0.78169050626456737518310546875">
        <ele>1152.800048828125</ele>
        <time>2020-08-20T08:17:43.000Z</time>
      </trkpt>
      <trkpt lat="42.7517350204288959503173828125" lon="-0.78169469721615314483642578125">
        <ele>1153.199951171875</ele>
        <time>2020-08-20T08:20:31.000Z</time>
      </trkpt>
      <trkpt lat="42.7517397142946720123291015625" lon="-0.7817043364048004150390625">
        <ele>1153.199951171875</ele>
        <time>2020-08-20T08:20:34.000Z</time>
      </trkpt>
      <trkpt lat="42.75176209397614002227783203125" lon="-0.781737864017486572265625">
        <ele>1153.199951171875</ele>
        <time>2020-08-20T08:20:37.000Z</time>
      </trkpt>
      <trkpt lat="42.75177131406962871551513671875" lon="-0.78175219707190990447998046875">
        <ele>1153.199951171875</ele>
        <time>2020-08-20T08:20:38.000Z</time>
      </trkpt>
      <trkpt lat="42.75184683501720428466796875" lon="-0.7818305678665637969970703125">
        <ele>1154</ele>
        <time>2020-08-20T08:20:44.000Z</time>
      </trkpt>
      <trkpt lat="42.7518744952976703643798828125" lon="-0.7818573899567127227783203125">
        <ele>1154.4000244140625</ele>
        <time>2020-08-20T08:20:46.000Z</time>
      </trkpt>
      <trkpt lat="42.75191766209900379180908203125" lon="-0.78189368359744548797607421875">
        <ele>1155.4000244140625</ele>
        <time>2020-08-20T08:20:49.000Z</time>
      </trkpt>
      <trkpt lat="42.75194733403623104095458984375" lon="-0.78190323896706104278564453125">
        <ele>1156.199951171875</ele>
        <time>2020-08-20T08:20:51.000Z</time>
      </trkpt>
      <trkpt lat="42.75197516195476055145263671875" lon="-0.7819068431854248046875">
        <ele>1156.5999755859375</ele>
        <time>2020-08-20T08:20:53.000Z</time>
      </trkpt>
      <trkpt lat="42.75203995406627655029296875" lon="-0.7819033227860927581787109375">
        <ele>1157.4000244140625</ele>
        <time>2020-08-20T08:20:58.000Z</time>
      </trkpt>
      <trkpt lat="42.7520676143467426300048828125" lon="-0.78189812600612640380859375">
        <ele>1158</ele>
        <time>2020-08-20T08:21:00.000Z</time>
      </trkpt>
      <trkpt lat="42.75209552608430385589599609375" lon="-0.78188764862716197967529296875">
        <ele>1158.5999755859375</ele>
        <time>2020-08-20T08:21:02.000Z</time>
      </trkpt>
      <trkpt lat="42.75215604342520236968994140625" lon="-0.7818424701690673828125">
        <ele>1159.5999755859375</ele>
        <time>2020-08-20T08:21:07.000Z</time>
      </trkpt>
      <trkpt lat="42.752181105315685272216796875" lon="-0.781783126294612884521484375">
        <ele>1160.4000244140625</ele>
        <time>2020-08-20T08:21:11.000Z</time>
      </trkpt>
      <trkpt lat="42.7521732263267040252685546875" lon="-0.781750269234180450439453125">
        <ele>1160.800048828125</ele>
        <time>2020-08-20T08:21:13.000Z</time>
      </trkpt>
      <trkpt lat="42.7521336637437343597412109375" lon="-0.7816957868635654449462890625">
        <ele>1161.5999755859375</ele>
        <time>2020-08-20T08:21:18.000Z</time>
      </trkpt>
      <trkpt lat="42.75213207118213176727294921875" lon="-0.7816971279680728912353515625">
        <ele>1161.800048828125</ele>
        <time>2020-08-20T08:21:19.000Z</time>
      </trkpt>
      <trkpt lat="42.75212570093572139739990234375" lon="-0.78167927451431751251220703125">
        <ele>1162</ele>
        <time>2020-08-20T08:21:28.000Z</time>
      </trkpt>
      <trkpt lat="42.75210357271134853363037109375" lon="-0.78161188401281833648681640625">
        <ele>1162.4000244140625</ele>
        <time>2020-08-20T08:21:36.000Z</time>
      </trkpt>
      <trkpt lat="42.75209284387528896331787109375" lon="-0.781582631170749664306640625">
        <ele>1163</ele>
        <time>2020-08-20T08:21:39.000Z</time>
      </trkpt>
      <trkpt lat="42.75208747945725917816162109375" lon="-0.78152529895305633544921875">
        <ele>1163.4000244140625</ele>
        <time>2020-08-20T08:21:44.000Z</time>
      </trkpt>
      <trkpt lat="42.7520877309143543243408203125" lon="-0.7814895920455455780029296875">
        <ele>1163.800048828125</ele>
        <time>2020-08-20T08:21:47.000Z</time>
      </trkpt>
      <trkpt lat="42.752091586589813232421875" lon="-0.781433098018169403076171875">
        <ele>1164.5999755859375</ele>
        <time>2020-08-20T08:21:52.000Z</time>
      </trkpt>
      <trkpt lat="42.75209720246493816375732421875" lon="-0.78141272999346256256103515625">
        <ele>1165</ele>
        <time>2020-08-20T08:21:54.000Z</time>
      </trkpt>
      <trkpt lat="42.7521225996315479278564453125" lon="-0.78135238029062747955322265625">
        <ele>1166.199951171875</ele>
        <time>2020-08-20T08:22:01.000Z</time>
      </trkpt>
      <trkpt lat="42.7521277964115142822265625" lon="-0.78133712522685527801513671875">
        <ele>1166.4000244140625</ele>
        <time>2020-08-20T08:22:03.000Z</time>
      </trkpt>
      <trkpt lat="42.75213743560016155242919921875" lon="-0.78132572583854198455810546875">
        <ele>1166.199951171875</ele>
        <time>2020-08-20T08:22:11.000Z</time>
      </trkpt>
      <trkpt lat="42.7522002160549163818359375" lon="-0.7812845706939697265625">
        <ele>1167</ele>
        <time>2020-08-20T08:22:17.000Z</time>
      </trkpt>
      <trkpt lat="42.75222645141184329986572265625" lon="-0.781281553208827972412109375">
        <ele>1167.4000244140625</ele>
        <time>2020-08-20T08:22:19.000Z</time>
      </trkpt>
      <trkpt lat="42.75231798179447650909423828125" lon="-0.78129773028194904327392578125">
        <ele>1168.199951171875</ele>
        <time>2020-08-20T08:22:25.000Z</time>
      </trkpt>
      <trkpt lat="42.752349078655242919921875" lon="-0.78129773028194904327392578125">
        <ele>1168.4000244140625</ele>
        <time>2020-08-20T08:22:27.000Z</time>
      </trkpt>
      <trkpt lat="42.75244337506592273712158203125" lon="-0.781292952597141265869140625">
        <ele>1169.199951171875</ele>
        <time>2020-08-20T08:22:33.000Z</time>
      </trkpt>
      <trkpt lat="42.75247522629797458648681640625" lon="-0.78129286877810955047607421875">
        <ele>1169.4000244140625</ele>
        <time>2020-08-20T08:22:35.000Z</time>
      </trkpt>
      <trkpt lat="42.75258444249629974365234375" lon="-0.7813046872615814208984375">
        <ele>1170.199951171875</ele>
        <time>2020-08-20T08:22:42.000Z</time>
      </trkpt>
      <trkpt lat="42.752633057534694671630859375" lon="-0.7813132368028163909912109375">
        <ele>1170.4000244140625</ele>
        <time>2020-08-20T08:22:45.000Z</time>
      </trkpt>
      <trkpt lat="42.75274378247559070587158203125" lon="-0.7813236303627490997314453125">
        <ele>1171</ele>
        <time>2020-08-20T08:22:52.000Z</time>
      </trkpt>
      <trkpt lat="42.7527589537203311920166015625" lon="-0.7813253067433834075927734375">
        <ele>1171.4000244140625</ele>
        <time>2020-08-20T08:22:53.000Z</time>
      </trkpt>
      <trkpt lat="42.7528840117156505584716796875" lon="-0.781336538493633270263671875">
        <ele>1172.4000244140625</ele>
        <time>2020-08-20T08:23:01.000Z</time>
      </trkpt>
      <trkpt lat="42.75293086655437946319580078125" lon="-0.7813407294452190399169921875">
        <ele>1173</ele>
        <time>2020-08-20T08:23:04.000Z</time>
      </trkpt>
      <trkpt lat="42.752958945930004119873046875" lon="-0.78134332783520221710205078125">
        <ele>1173.4000244140625</ele>
        <time>2020-08-20T08:23:06.000Z</time>
      </trkpt>
      <trkpt lat="42.75305307470262050628662109375" lon="-0.7813249714672565460205078125">
        <ele>1174.4000244140625</ele>
        <time>2020-08-20T08:23:13.000Z</time>
      </trkpt>
      <trkpt lat="42.753094732761383056640625" lon="-0.78131784684956073760986328125">
        <ele>1175.5999755859375</ele>
        <time>2020-08-20T08:23:16.000Z</time>
      </trkpt>
      <trkpt lat="42.75315650738775730133056640625" lon="-0.7812787033617496490478515625">
        <ele>1176.5999755859375</ele>
        <time>2020-08-20T08:23:21.000Z</time>
      </trkpt>
      <trkpt lat="42.75316891260445117950439453125" lon="-0.78127291984856128692626953125">
        <ele>1176.800048828125</ele>
        <time>2020-08-20T08:23:22.000Z</time>
      </trkpt>
      <trkpt lat="42.75321786291897296905517578125" lon="-0.78125095926225185394287109375">
        <ele>1178.199951171875</ele>
        <time>2020-08-20T08:23:26.000Z</time>
      </trkpt>
      <trkpt lat="42.7532578445971012115478515625" lon="-0.7812203653156757354736328125">
        <ele>1178.4000244140625</ele>
        <time>2020-08-20T08:23:29.000Z</time>
      </trkpt>
      <trkpt lat="42.75330922566354274749755859375" lon="-0.7811680622398853302001953125">
        <ele>1179.199951171875</ele>
        <time>2020-08-20T08:23:33.000Z</time>
      </trkpt>
      <trkpt lat="42.753360606729984283447265625" lon="-0.78111181966960430145263671875">
        <ele>1180.5999755859375</ele>
        <time>2020-08-20T08:23:37.000Z</time>
      </trkpt>
      <trkpt lat="42.753372676670551300048828125" lon="-0.781095810234546661376953125">
        <ele>1180.800048828125</ele>
        <time>2020-08-20T08:23:38.000Z</time>
      </trkpt>
      <trkpt lat="42.75342925451695919036865234375" lon="-0.78102900646626949310302734375">
        <ele>1181.5999755859375</ele>
        <time>2020-08-20T08:23:43.000Z</time>
      </trkpt>
      <trkpt lat="42.7534777857363224029541015625" lon="-0.78097402118146419525146484375">
        <ele>1182.800048828125</ele>
        <time>2020-08-20T08:23:47.000Z</time>
      </trkpt>
      <trkpt lat="42.75348591618239879608154296875" lon="-0.78096262179315090179443359375">
        <ele>1183.4000244140625</ele>
        <time>2020-08-20T08:23:48.000Z</time>
      </trkpt>
      <trkpt lat="42.753489352762699127197265625" lon="-0.7809595204889774322509765625">
        <ele>1184</ele>
        <time>2020-08-20T08:23:50.000Z</time>
      </trkpt>
      <trkpt lat="42.75348843075335025787353515625" lon="-0.78095910139381885528564453125">
        <ele>1184.4000244140625</ele>
        <time>2020-08-20T08:23:51.000Z</time>
      </trkpt>
      <trkpt lat="42.75348700582981109619140625" lon="-0.78096211887896060943603515625">
        <ele>1184.5999755859375</ele>
        <time>2020-08-20T08:23:59.000Z</time>
      </trkpt>
      <trkpt lat="42.7535139955580234527587890625" lon="-0.78093655407428741455078125">
        <ele>1185.199951171875</ele>
        <time>2020-08-20T08:24:09.000Z</time>
      </trkpt>
      <trkpt lat="42.7535310946404933929443359375" lon="-0.78092188574373722076416015625">
        <ele>1185.4000244140625</ele>
        <time>2020-08-20T08:24:24.000Z</time>
      </trkpt>
      <trkpt lat="42.75356872938573360443115234375" lon="-0.7808928005397319793701171875">
        <ele>1186.199951171875</ele>
        <time>2020-08-20T08:24:32.000Z</time>
      </trkpt>
      <trkpt lat="42.7535733394324779510498046875" lon="-0.78088835813105106353759765625">
        <ele>1186.5999755859375</ele>
        <time>2020-08-20T08:24:33.000Z</time>
      </trkpt>
      <trkpt lat="42.753606028854846954345703125" lon="-0.78085633926093578338623046875">
        <ele>1187.199951171875</ele>
        <time>2020-08-20T08:24:40.000Z</time>
      </trkpt>
      <trkpt lat="42.7536271512508392333984375" lon="-0.78083354048430919647216796875">
        <ele>1187.800048828125</ele>
        <time>2020-08-20T08:24:44.000Z</time>
      </trkpt>
      <trkpt lat="42.753642238676548004150390625" lon="-0.780818201601505279541015625">
        <ele>1188.4000244140625</ele>
        <time>2020-08-20T08:24:47.000Z</time>
      </trkpt>
      <trkpt lat="42.753653638064861297607421875" lon="-0.7807979173958301544189453125">
        <ele>1188.800048828125</ele>
        <time>2020-08-20T08:24:52.000Z</time>
      </trkpt>
      <trkpt lat="42.75365523062646389007568359375" lon="-0.7807969115674495697021484375">
        <ele>1189.199951171875</ele>
        <time>2020-08-20T08:24:57.000Z</time>
      </trkpt>
      <trkpt lat="42.75367383845150470733642578125" lon="-0.7807714305818080902099609375">
        <ele>1189.4000244140625</ele>
        <time>2020-08-20T08:25:01.000Z</time>
      </trkpt>
      <trkpt lat="42.753695882856845855712890625" lon="-0.7807278446853160858154296875">
        <ele>1190.199951171875</ele>
        <time>2020-08-20T08:25:07.000Z</time>
      </trkpt>
      <trkpt lat="42.75370786897838115692138671875" lon="-0.7807060517370700836181640625">
        <ele>1190.5999755859375</ele>
        <time>2020-08-20T08:25:10.000Z</time>
      </trkpt>
      <trkpt lat="42.7537285722792148590087890625" lon="-0.78067244030535221099853515625">
        <ele>1191.4000244140625</ele>
        <time>2020-08-20T08:25:15.000Z</time>
      </trkpt>
      <trkpt lat="42.7537537179887294769287109375" lon="-0.7806366495788097381591796875">
        <ele>1192</ele>
        <time>2020-08-20T08:25:20.000Z</time>
      </trkpt>
      <trkpt lat="42.75377358309924602508544921875" lon="-0.78060421161353588104248046875">
        <ele>1192.4000244140625</ele>
        <time>2020-08-20T08:25:24.000Z</time>
      </trkpt>
      <trkpt lat="42.75379939936101436614990234375" lon="-0.7805685885250568389892578125">
        <ele>1193.4000244140625</ele>
        <time>2020-08-20T08:25:29.000Z</time>
      </trkpt>
      <trkpt lat="42.75381046347320079803466796875" lon="-0.78055299818515777587890625">
        <ele>1193.4000244140625</ele>
        <time>2020-08-20T08:25:31.000Z</time>
      </trkpt>
      <trkpt lat="42.75383896194398403167724609375" lon="-0.780474878847599029541015625">
        <ele>1194.199951171875</ele>
        <time>2020-08-20T08:25:40.000Z</time>
      </trkpt>
      <trkpt lat="42.7538418956100940704345703125" lon="-0.78046850860118865966796875">
        <ele>1194.4000244140625</ele>
        <time>2020-08-20T08:25:41.000Z</time>
      </trkpt>
      <trkpt lat="42.75384650565683841705322265625" lon="-0.78046180307865142822265625">
        <ele>1194.5999755859375</ele>
        <time>2020-08-20T08:25:42.000Z</time>
      </trkpt>
      <trkpt lat="42.7538603357970714569091796875" lon="-0.7804378308355808258056640625">
        <ele>1195.4000244140625</ele>
        <time>2020-08-20T08:25:45.000Z</time>
      </trkpt>
      <trkpt lat="42.7538900077342987060546875" lon="-0.780388377606868743896484375">
        <ele>1196.199951171875</ele>
        <time>2020-08-20T08:25:51.000Z</time>
      </trkpt>
      <trkpt lat="42.753897719085216522216796875" lon="-0.78037505038082599639892578125">
        <ele>1196.4000244140625</ele>
        <time>2020-08-20T08:25:53.000Z</time>
      </trkpt>
      <trkpt lat="42.75393166579306125640869140625" lon="-0.78032291494309902191162109375">
        <ele>1197.800048828125</ele>
        <time>2020-08-20T08:26:01.000Z</time>
      </trkpt>
      <trkpt lat="42.753969468176364898681640625" lon="-0.780279077589511871337890625">
        <ele>1198.5999755859375</ele>
        <time>2020-08-20T08:26:09.000Z</time>
      </trkpt>
      <trkpt lat="42.7539813704788684844970703125" lon="-0.78026860021054744720458984375">
        <ele>1198.800048828125</ele>
        <time>2020-08-20T08:26:11.000Z</time>
      </trkpt>
      <trkpt lat="42.75401883758604526519775390625" lon="-0.78023917973041534423828125">
        <ele>1199.4000244140625</ele>
        <time>2020-08-20T08:26:18.000Z</time>
      </trkpt>
      <trkpt lat="42.754020430147647857666015625" lon="-0.7802390120923519134521484375">
        <ele>1199.800048828125</ele>
        <time>2020-08-20T08:26:22.000Z</time>
      </trkpt>
      <trkpt lat="42.75403493084013462066650390625" lon="-0.78023188747465610504150390625">
        <ele>1199.5999755859375</ele>
        <time>2020-08-20T08:26:29.000Z</time>
      </trkpt>
      <trkpt lat="42.7541339211165904998779296875" lon="-0.78020053915679454803466796875">
        <ele>1200.199951171875</ele>
        <time>2020-08-20T08:26:39.000Z</time>
      </trkpt>
      <trkpt lat="42.75421950034797191619873046875" lon="-0.78017958439886569976806640625">
        <ele>1200.4000244140625</ele>
        <time>2020-08-20T08:26:48.000Z</time>
      </trkpt>
      <trkpt lat="42.75433567352592945098876953125" lon="-0.78015225939452648162841796875">
        <ele>1200.4000244140625</ele>
        <time>2020-08-20T08:26:56.000Z</time>
      </trkpt>
      <trkpt lat="42.75441764853894710540771484375" lon="-0.78013951890170574188232421875">
        <ele>1200.199951171875</ele>
        <time>2020-08-20T08:27:03.000Z</time>
      </trkpt>
      <trkpt lat="42.754481099545955657958984375" lon="-0.78015267848968505859375">
        <ele>1200.4000244140625</ele>
        <time>2020-08-20T08:27:08.000Z</time>
      </trkpt>
      <trkpt lat="42.75449811480939388275146484375" lon="-0.78015066683292388916015625">
        <ele>1200.4000244140625</ele>
        <time>2020-08-20T08:27:09.000Z</time>
      </trkpt>
      <trkpt lat="42.75459936819970607757568359375" lon="-0.78013725578784942626953125">
        <ele>1199.800048828125</ele>
        <time>2020-08-20T08:27:15.000Z</time>
      </trkpt>
      <trkpt lat="42.75472224690020084381103515625" lon="-0.7801230065524578094482421875">
        <ele>1200</ele>
        <time>2020-08-20T08:27:23.000Z</time>
      </trkpt>
      <trkpt lat="42.7548685111105442047119140625" lon="-0.7800884731113910675048828125">
        <ele>1200.800048828125</ele>
        <time>2020-08-20T08:27:32.000Z</time>
      </trkpt>
      <trkpt lat="42.75489860214293003082275390625" lon="-0.7800693623721599578857421875">
        <ele>1201.5999755859375</ele>
        <time>2020-08-20T08:27:34.000Z</time>
      </trkpt>
      <trkpt lat="42.75498367846012115478515625" lon="-0.7800023071467876434326171875">
        <ele>1202.5999755859375</ele>
        <time>2020-08-20T08:27:40.000Z</time>
      </trkpt>
      <trkpt lat="42.75500706396996974945068359375" lon="-0.77997489832341670989990234375">
        <ele>1203</ele>
        <time>2020-08-20T08:27:42.000Z</time>
      </trkpt>
      <trkpt lat="42.75505651719868183135986328125" lon="-0.77992804348468780517578125">
        <ele>1203.5999755859375</ele>
        <time>2020-08-20T08:27:46.000Z</time>
      </trkpt>
      <trkpt lat="42.75510680861771106719970703125" lon="-0.779859311878681182861328125">
        <ele>1204.5999755859375</ele>
        <time>2020-08-20T08:27:51.000Z</time>
      </trkpt>
      <trkpt lat="42.7551266737282276153564453125" lon="-0.7798321545124053955078125">
        <ele>1204.800048828125</ele>
        <time>2020-08-20T08:27:56.000Z</time>
      </trkpt>
      <trkpt lat="42.75512994267046451568603515625" lon="-0.77983416616916656494140625">
        <ele>1205</ele>
        <time>2020-08-20T08:28:15.000Z</time>
      </trkpt>
      <trkpt lat="42.75516615249216556549072265625" lon="-0.7798242755234241485595703125">
        <ele>1205.199951171875</ele>
        <time>2020-08-20T08:28:21.000Z</time>
      </trkpt>
      <trkpt lat="42.75519481860101222991943359375" lon="-0.779822431504726409912109375">
        <ele>1205.4000244140625</ele>
        <time>2020-08-20T08:28:25.000Z</time>
      </trkpt>
      <trkpt lat="42.7552316151559352874755859375" lon="-0.77980876900255680084228515625">
        <ele>1206</ele>
        <time>2020-08-20T08:28:31.000Z</time>
      </trkpt>
      <trkpt lat="42.75525600649416446685791015625" lon="-0.7798021472990512847900390625">
        <ele>1206.4000244140625</ele>
        <time>2020-08-20T08:28:35.000Z</time>
      </trkpt>
      <trkpt lat="42.75529749691486358642578125" lon="-0.77980709262192249298095703125">
        <ele>1207.4000244140625</ele>
        <time>2020-08-20T08:28:42.000Z</time>
      </trkpt>
      <trkpt lat="42.75530529208481311798095703125" lon="-0.77981941401958465576171875">
        <ele>1207.5999755859375</ele>
        <time>2020-08-20T08:28:44.000Z</time>
      </trkpt>
      <trkpt lat="42.75531149469316005706787109375" lon="-0.77983391471207141876220703125">
        <ele>1208.199951171875</ele>
        <time>2020-08-20T08:28:50.000Z</time>
      </trkpt>
      <trkpt lat="42.75531887076795101165771484375" lon="-0.77983978204429149627685546875">
        <ele>1208.199951171875</ele>
        <time>2020-08-20T08:28:58.000Z</time>
      </trkpt>
      <trkpt lat="42.755334042012691497802734375" lon="-0.77986895106732845306396484375">
        <ele>1208</ele>
        <time>2020-08-20T08:29:05.000Z</time>
      </trkpt>
      <trkpt lat="42.7553754486143589019775390625" lon="-0.7799091003835201263427734375">
        <ele>1207</ele>
        <time>2020-08-20T08:29:14.000Z</time>
      </trkpt>
      <trkpt lat="42.755407802760601043701171875" lon="-0.77993684448301792144775390625">
        <ele>1206.4000244140625</ele>
        <time>2020-08-20T08:29:19.000Z</time>
      </trkpt>
      <trkpt lat="42.75543035008013248443603515625" lon="-0.77994958497583866119384765625">
        <ele>1205.800048828125</ele>
        <time>2020-08-20T08:29:22.000Z</time>
      </trkpt>
      <trkpt lat="42.7554555796086788177490234375" lon="-0.7799637503921985626220703125">
        <ele>1205.4000244140625</ele>
        <time>2020-08-20T08:29:25.000Z</time>
      </trkpt>
      <trkpt lat="42.755485586822032928466796875" lon="-0.77997724525630474090576171875">
        <ele>1204.5999755859375</ele>
        <time>2020-08-20T08:29:29.000Z</time>
      </trkpt>
      <trkpt lat="42.75555389933288097381591796875" lon="-0.77998529188334941864013671875">
        <ele>1204.199951171875</ele>
        <time>2020-08-20T08:29:37.000Z</time>
      </trkpt>
      <trkpt lat="42.75563319213688373565673828125" lon="-0.779978334903717041015625">
        <ele>1204.4000244140625</ele>
        <time>2020-08-20T08:29:45.000Z</time>
      </trkpt>
      <trkpt lat="42.75570276193320751190185546875" lon="-0.7799862138926982879638671875">
        <ele>1204.199951171875</ele>
        <time>2020-08-20T08:29:52.000Z</time>
      </trkpt>
      <trkpt lat="42.755710221827030181884765625" lon="-0.77998705208301544189453125">
        <ele>1204</ele>
        <time>2020-08-20T08:29:53.000Z</time>
      </trkpt>
      <trkpt lat="42.75572799146175384521484375" lon="-0.779985375702381134033203125">
        <ele>1204</ele>
        <time>2020-08-20T08:30:00.000Z</time>
      </trkpt>
      <trkpt lat="42.7557298354804515838623046875" lon="-0.77998478896915912628173828125">
        <ele>1204.199951171875</ele>
        <time>2020-08-20T08:30:17.000Z</time>
      </trkpt>
      <trkpt lat="42.75573427788913249969482421875" lon="-0.7799842022359371185302734375">
        <ele>1204.199951171875</ele>
        <time>2020-08-20T08:30:19.000Z</time>
      </trkpt>
      <trkpt lat="42.7557526342570781707763671875" lon="-0.7799838669598102569580078125">
        <ele>1204.199951171875</ele>
        <time>2020-08-20T08:30:22.000Z</time>
      </trkpt>
      <trkpt lat="42.75580099783837795257568359375" lon="-0.77999518252909183502197265625">
        <ele>1204.4000244140625</ele>
        <time>2020-08-20T08:30:27.000Z</time>
      </trkpt>
      <trkpt lat="42.75581055320799350738525390625" lon="-0.77999685890972614288330078125">
        <ele>1204.5999755859375</ele>
        <time>2020-08-20T08:30:28.000Z</time>
      </trkpt>
      <trkpt lat="42.7558756805956363677978515625" lon="-0.78001613728702068328857421875">
        <ele>1204.5999755859375</ele>
        <time>2020-08-20T08:30:36.000Z</time>
      </trkpt>
      <trkpt lat="42.7558954618871212005615234375" lon="-0.78003474511206150054931640625">
        <ele>1204.4000244140625</ele>
        <time>2020-08-20T08:30:42.000Z</time>
      </trkpt>
      <trkpt lat="42.7559102140367031097412109375" lon="-0.7800448872148990631103515625">
        <ele>1204.4000244140625</ele>
        <time>2020-08-20T08:30:44.000Z</time>
      </trkpt>
      <trkpt lat="42.75594449602067470550537109375" lon="-0.78005435876548290252685546875">
        <ele>1204.199951171875</ele>
        <time>2020-08-20T08:30:46.000Z</time>
      </trkpt>
      <trkpt lat="42.7560577355325222015380859375" lon="-0.78012241981923580169677734375">
        <ele>1203.199951171875</ele>
        <time>2020-08-20T08:30:53.000Z</time>
      </trkpt>
      <trkpt lat="42.756074331700801849365234375" lon="-0.7801300473511219024658203125">
        <ele>1202.5999755859375</ele>
        <time>2020-08-20T08:30:54.000Z</time>
      </trkpt>
      <trkpt lat="42.75612353347241878509521484375" lon="-0.78014236874878406524658203125">
        <ele>1201.5999755859375</ele>
        <time>2020-08-20T08:30:57.000Z</time>
      </trkpt>
      <trkpt lat="42.756130993366241455078125" lon="-0.78014337457716464996337890625">
        <ele>1201.4000244140625</ele>
        <time>2020-08-20T08:30:58.000Z</time>
      </trkpt>
      <trkpt lat="42.7561656944453716278076171875" lon="-0.78019467182457447052001953125">
        <ele>1201.199951171875</ele>
        <time>2020-08-20T08:31:05.000Z</time>
      </trkpt>
      <trkpt lat="42.75621288456022739410400390625" lon="-0.78026792965829372406005859375">
        <ele>1201.199951171875</ele>
        <time>2020-08-20T08:31:12.000Z</time>
      </trkpt>
      <trkpt lat="42.756245322525501251220703125" lon="-0.7803174667060375213623046875">
        <ele>1201</ele>
        <time>2020-08-20T08:31:16.000Z</time>
      </trkpt>
      <trkpt lat="42.75626569055020809173583984375" lon="-0.78033448196947574615478515625">
        <ele>1200.800048828125</ele>
        <time>2020-08-20T08:31:18.000Z</time>
      </trkpt>
      <trkpt lat="42.75627725757658481597900390625" lon="-0.7803399302065372467041015625">
        <ele>1200.5999755859375</ele>
        <time>2020-08-20T08:31:19.000Z</time>
      </trkpt>
      <trkpt lat="42.75628966279327869415283203125" lon="-0.78034487552940845489501953125">
        <ele>1200.4000244140625</ele>
        <time>2020-08-20T08:31:20.000Z</time>
      </trkpt>
      <trkpt lat="42.75631673634052276611328125" lon="-0.7803617231547832489013671875">
        <ele>1200</ele>
        <time>2020-08-20T08:31:23.000Z</time>
      </trkpt>
      <trkpt lat="42.7563725598156452178955078125" lon="-0.78037437982857227325439453125">
        <ele>1199.4000244140625</ele>
        <time>2020-08-20T08:31:29.000Z</time>
      </trkpt>
      <trkpt lat="42.7564453147351741790771484375" lon="-0.7803915627300739288330078125">
        <ele>1198.199951171875</ele>
        <time>2020-08-20T08:31:37.000Z</time>
      </trkpt>
      <trkpt lat="42.75645461864769458770751953125" lon="-0.78038804233074188232421875">
        <ele>1198</ele>
        <time>2020-08-20T08:31:38.000Z</time>
      </trkpt>
      <trkpt lat="42.75651119649410247802734375" lon="-0.78041746281087398529052734375">
        <ele>1197.199951171875</ele>
        <time>2020-08-20T08:31:44.000Z</time>
      </trkpt>
      <trkpt lat="42.75654028169810771942138671875" lon="-0.78045216389000415802001953125">
        <ele>1197</ele>
        <time>2020-08-20T08:31:48.000Z</time>
      </trkpt>
      <trkpt lat="42.756557464599609375" lon="-0.78046607784926891326904296875">
        <ele>1196.800048828125</ele>
        <time>2020-08-20T08:31:50.000Z</time>
      </trkpt>
      <trkpt lat="42.75657582096755504608154296875" lon="-0.78048552386462688446044921875">
        <ele>1196.800048828125</ele>
        <time>2020-08-20T08:31:52.000Z</time>
      </trkpt>
      <trkpt lat="42.75663533248007297515869140625" lon="-0.7805152796208858489990234375">
        <ele>1196.5999755859375</ele>
        <time>2020-08-20T08:31:58.000Z</time>
      </trkpt>
      <trkpt lat="42.75664723478257656097412109375" lon="-0.78051972202956676483154296875">
        <ele>1196.5999755859375</ele>
        <time>2020-08-20T08:31:59.000Z</time>
      </trkpt>
      <trkpt lat="42.75668688118457794189453125" lon="-0.7805142737925052642822265625">
        <ele>1196.4000244140625</ele>
        <time>2020-08-20T08:32:03.000Z</time>
      </trkpt>
      <trkpt lat="42.75671797804534435272216796875" lon="-0.78051486052572727203369140625">
        <ele>1196</ele>
        <time>2020-08-20T08:32:07.000Z</time>
      </trkpt>
      <trkpt lat="42.75673155672848224639892578125" lon="-0.7805213145911693572998046875">
        <ele>1195.800048828125</ele>
        <time>2020-08-20T08:32:09.000Z</time>
      </trkpt>
      <trkpt lat="42.75676709599792957305908203125" lon="-0.780582837760448455810546875">
        <ele>1195</ele>
        <time>2020-08-20T08:32:15.000Z</time>
      </trkpt>
      <trkpt lat="42.75678251869976520538330078125" lon="-0.7806031219661235809326171875">
        <ele>1195</ele>
        <time>2020-08-20T08:32:17.000Z</time>
      </trkpt>
      <trkpt lat="42.7568077482283115386962890625" lon="-0.78061929903924465179443359375">
        <ele>1194.5999755859375</ele>
        <time>2020-08-20T08:32:21.000Z</time>
      </trkpt>
      <trkpt lat="42.75687924586236476898193359375" lon="-0.7806775532662868499755859375">
        <ele>1195.4000244140625</ele>
        <time>2020-08-20T08:32:31.000Z</time>
      </trkpt>
      <trkpt lat="42.75693523697555065155029296875" lon="-0.7807119190692901611328125">
        <ele>1195.800048828125</ele>
        <time>2020-08-20T08:32:37.000Z</time>
      </trkpt>
      <trkpt lat="42.75693892501294612884521484375" lon="-0.78072155825793743133544921875">
        <ele>1195.800048828125</ele>
        <time>2020-08-20T08:32:38.000Z</time>
      </trkpt>
      <trkpt lat="42.75695283897221088409423828125" lon="-0.78076489269733428955078125">
        <ele>1195.5999755859375</ele>
        <time>2020-08-20T08:32:43.000Z</time>
      </trkpt>
      <trkpt lat="42.756972871720790863037109375" lon="-0.78080722130835056304931640625">
        <ele>1195.800048828125</ele>
        <time>2020-08-20T08:32:50.000Z</time>
      </trkpt>
      <trkpt lat="42.7569825947284698486328125" lon="-0.78087327070534229278564453125">
        <ele>1195.5999755859375</ele>
        <time>2020-08-20T08:32:58.000Z</time>
      </trkpt>
      <trkpt lat="42.757003046572208404541015625" lon="-0.780976116657257080078125">
        <ele>1196</ele>
        <time>2020-08-20T08:33:07.000Z</time>
      </trkpt>
      <trkpt lat="42.757013104856014251708984375" lon="-0.781009979546070098876953125">
        <ele>1196.5999755859375</ele>
        <time>2020-08-20T08:33:11.000Z</time>
      </trkpt>
      <trkpt lat="42.75701486505568027496337890625" lon="-0.7810470275580883026123046875">
        <ele>1197.5999755859375</ele>
        <time>2020-08-20T08:33:16.000Z</time>
      </trkpt>
      <trkpt lat="42.75701067410409450531005859375" lon="-0.78105566091835498809814453125">
        <ele>1197.800048828125</ele>
        <time>2020-08-20T08:33:17.000Z</time>
      </trkpt>
      <trkpt lat="42.75698569603264331817626953125" lon="-0.78113411553204059600830078125">
        <ele>1198.5999755859375</ele>
        <time>2020-08-20T08:33:25.000Z</time>
      </trkpt>
      <trkpt lat="42.756981588900089263916015625" lon="-0.78115574084222316741943359375">
        <ele>1198.5999755859375</ele>
        <time>2020-08-20T08:33:27.000Z</time>
      </trkpt>
      <trkpt lat="42.7569329738616943359375" lon="-0.7812203653156757354736328125">
        <ele>1199.199951171875</ele>
        <time>2020-08-20T08:33:35.000Z</time>
      </trkpt>
      <trkpt lat="42.7569063194096088409423828125" lon="-0.78127342276275157928466796875">
        <ele>1199.4000244140625</ele>
        <time>2020-08-20T08:33:40.000Z</time>
      </trkpt>
      <trkpt lat="42.75689349509775638580322265625" lon="-0.78130812384188175201416015625">
        <ele>1199.800048828125</ele>
        <time>2020-08-20T08:33:43.000Z</time>
      </trkpt>
      <trkpt lat="42.75685493834316730499267578125" lon="-0.78142262063920497894287109375">
        <ele>1200</ele>
        <time>2020-08-20T08:33:51.000Z</time>
      </trkpt>
      <trkpt lat="42.75684320367872714996337890625" lon="-0.781469307839870452880859375">
        <ele>1200.5999755859375</ele>
        <time>2020-08-20T08:33:54.000Z</time>
      </trkpt>
      <trkpt lat="42.7568382583558559417724609375" lon="-0.781546421349048614501953125">
        <ele>1201.4000244140625</ele>
        <time>2020-08-20T08:34:00.000Z</time>
      </trkpt>
      <trkpt lat="42.756838090717792510986328125" lon="-0.78155857510864734649658203125">
        <ele>1201.4000244140625</ele>
        <time>2020-08-20T08:34:01.000Z</time>
      </trkpt>
      <trkpt lat="42.75683281011879444122314453125" lon="-0.78160651959478855133056640625">
        <ele>1201.800048828125</ele>
        <time>2020-08-20T08:34:07.000Z</time>
      </trkpt>
      <trkpt lat="42.75683146901428699493408203125" lon="-0.7816082797944545745849609375">
        <ele>1201.800048828125</ele>
        <time>2020-08-20T08:34:20.000Z</time>
      </trkpt>
      <trkpt lat="42.7568305470049381256103515625" lon="-0.78165899030864238739013671875">
        <ele>1201.5999755859375</ele>
        <time>2020-08-20T08:34:29.000Z</time>
      </trkpt>
      <trkpt lat="42.7568590454757213592529296875" lon="-0.78174347989261150360107421875">
        <ele>1200.800048828125</ele>
        <time>2020-08-20T08:34:37.000Z</time>
      </trkpt>
      <trkpt lat="42.756885029375553131103515625" lon="-0.781771056354045867919921875">
        <ele>1200.199951171875</ele>
        <time>2020-08-20T08:34:43.000Z</time>
      </trkpt>
      <trkpt lat="42.75688536465167999267578125" lon="-0.781773068010807037353515625">
        <ele>1200.199951171875</ele>
        <time>2020-08-20T08:34:44.000Z</time>
      </trkpt>
      <trkpt lat="42.75692501105368137359619140625" lon="-0.78178958036005496978759765625">
        <ele>1199.800048828125</ele>
        <time>2020-08-20T08:34:50.000Z</time>
      </trkpt>
      <trkpt lat="42.75697253644466400146484375" lon="-0.7818030752241611480712890625">
        <ele>1199.4000244140625</ele>
        <time>2020-08-20T08:34:56.000Z</time>
      </trkpt>
      <trkpt lat="42.75698200799524784088134765625" lon="-0.781809277832508087158203125">
        <ele>1198.800048828125</ele>
        <time>2020-08-20T08:34:57.000Z</time>
      </trkpt>
      <trkpt lat="42.7569975145161151885986328125" lon="-0.781818665564060211181640625">
        <ele>1198.4000244140625</ele>
        <time>2020-08-20T08:34:59.000Z</time>
      </trkpt>
      <trkpt lat="42.75701620616018772125244140625" lon="-0.781831406056880950927734375">
        <ele>1198.199951171875</ele>
        <time>2020-08-20T08:35:02.000Z</time>
      </trkpt>
      <trkpt lat="42.75702090002596378326416015625" lon="-0.7818362675607204437255859375">
        <ele>1197.800048828125</ele>
        <time>2020-08-20T08:35:05.000Z</time>
      </trkpt>
      <trkpt lat="42.75704587809741497039794921875" lon="-0.78184716403484344482421875">
        <ele>1197.5999755859375</ele>
        <time>2020-08-20T08:35:08.000Z</time>
      </trkpt>
      <trkpt lat="42.757077477872371673583984375" lon="-0.78187356702983379364013671875">
        <ele>1197.199951171875</ele>
        <time>2020-08-20T08:35:14.000Z</time>
      </trkpt>
      <trkpt lat="42.7570853568613529205322265625" lon="-0.7818788476288318634033203125">
        <ele>1197</ele>
        <time>2020-08-20T08:35:15.000Z</time>
      </trkpt>
      <trkpt lat="42.75709323585033416748046875" lon="-0.7818848825991153717041015625">
        <ele>1196.5999755859375</ele>
        <time>2020-08-20T08:35:16.000Z</time>
      </trkpt>
      <trkpt lat="42.75711628608405590057373046875" lon="-0.78190558589994907379150390625">
        <ele>1196.199951171875</ele>
        <time>2020-08-20T08:35:19.000Z</time>
      </trkpt>
      <trkpt lat="42.75714218616485595703125" lon="-0.7819227688014507293701171875">
        <ele>1196</ele>
        <time>2020-08-20T08:35:22.000Z</time>
      </trkpt>
      <trkpt lat="42.75715836323797702789306640625" lon="-0.7819281332194805145263671875">
        <ele>1195.800048828125</ele>
        <time>2020-08-20T08:35:24.000Z</time>
      </trkpt>
      <trkpt lat="42.75717127136886119842529296875" lon="-0.78193693421781063079833984375">
        <ele>1195.5999755859375</ele>
        <time>2020-08-20T08:35:26.000Z</time>
      </trkpt>
      <trkpt lat="42.75720831938087940216064453125" lon="-0.78196576796472072601318359375">
        <ele>1194.5999755859375</ele>
        <time>2020-08-20T08:35:31.000Z</time>
      </trkpt>
      <trkpt lat="42.757217623293399810791015625" lon="-0.7819725573062896728515625">
        <ele>1194.4000244140625</ele>
        <time>2020-08-20T08:35:32.000Z</time>
      </trkpt>
      <trkpt lat="42.75725827552378177642822265625" lon="-0.7820153050124645233154296875">
        <ele>1193.4000244140625</ele>
        <time>2020-08-20T08:35:37.000Z</time>
      </trkpt>
      <trkpt lat="42.757269255816936492919921875" lon="-0.78202276490628719329833984375">
        <ele>1193.199951171875</ele>
        <time>2020-08-20T08:35:38.000Z</time>
      </trkpt>
      <trkpt lat="42.75731124915182590484619140625" lon="-0.78204162418842315673828125">
        <ele>1192.4000244140625</ele>
        <time>2020-08-20T08:35:43.000Z</time>
      </trkpt>
      <trkpt lat="42.757325582206249237060546875" lon="-0.78205042518675327301025390625">
        <ele>1192.199951171875</ele>
        <time>2020-08-20T08:35:45.000Z</time>
      </trkpt>
      <trkpt lat="42.75737428106367588043212890625" lon="-0.78205042518675327301025390625">
        <ele>1191.800048828125</ele>
        <time>2020-08-20T08:35:50.000Z</time>
      </trkpt>
      <trkpt lat="42.7574068866670131683349609375" lon="-0.7820441387593746185302734375">
        <ele>1191</ele>
        <time>2020-08-20T08:35:54.000Z</time>
      </trkpt>
      <trkpt lat="42.7574192918837070465087890625" lon="-0.7820518501102924346923828125">
        <ele>1190.5999755859375</ele>
        <time>2020-08-20T08:36:07.000Z</time>
      </trkpt>
      <trkpt lat="42.757464386522769927978515625" lon="-0.7820635847747325897216796875">
        <ele>1190</ele>
        <time>2020-08-20T08:36:11.000Z</time>
      </trkpt>
      <trkpt lat="42.7574816532433032989501953125" lon="-0.782068111002445220947265625">
        <ele>1189.5999755859375</ele>
        <time>2020-08-20T08:36:14.000Z</time>
      </trkpt>
      <trkpt lat="42.7575212158262729644775390625" lon="-0.78206953592598438262939453125">
        <ele>1189</ele>
        <time>2020-08-20T08:36:18.000Z</time>
      </trkpt>
      <trkpt lat="42.75754108093678951263427734375" lon="-0.78206266276538372039794921875">
        <ele>1188.800048828125</ele>
        <time>2020-08-20T08:36:21.000Z</time>
      </trkpt>
      <trkpt lat="42.75758734904229640960693359375" lon="-0.78208110295236110687255859375">
        <ele>1188.5999755859375</ele>
        <time>2020-08-20T08:36:26.000Z</time>
      </trkpt>
      <trkpt lat="42.75762188248336315155029296875" lon="-0.78211228363215923309326171875">
        <ele>1187.800048828125</ele>
        <time>2020-08-20T08:36:30.000Z</time>
      </trkpt>
      <trkpt lat="42.75762909092009067535400390625" lon="-0.7821209169924259185791015625">
        <ele>1187.5999755859375</ele>
        <time>2020-08-20T08:36:31.000Z</time>
      </trkpt>
      <trkpt lat="42.75764820165932178497314453125" lon="-0.7821469008922576904296875">
        <ele>1187.199951171875</ele>
        <time>2020-08-20T08:36:34.000Z</time>
      </trkpt>
      <trkpt lat="42.75766161270439624786376953125" lon="-0.78215251676738262176513671875">
        <ele>1186.5999755859375</ele>
        <time>2020-08-20T08:36:36.000Z</time>
      </trkpt>
      <trkpt lat="42.7576751075685024261474609375" lon="-0.7821520976722240447998046875">
        <ele>1186.4000244140625</ele>
        <time>2020-08-20T08:36:38.000Z</time>
      </trkpt>
      <trkpt lat="42.75769195519387722015380859375" lon="-0.7821608148515224456787109375">
        <ele>1186</ele>
        <time>2020-08-20T08:36:40.000Z</time>
      </trkpt>
      <trkpt lat="42.7577210403978824615478515625" lon="-0.78215201385319232940673828125">
        <ele>1185.800048828125</ele>
        <time>2020-08-20T08:36:44.000Z</time>
      </trkpt>
      <trkpt lat="42.757735289633274078369140625" lon="-0.782155282795429229736328125">
        <ele>1185.199951171875</ele>
        <time>2020-08-20T08:36:46.000Z</time>
      </trkpt>
      <trkpt lat="42.75775984860956668853759765625" lon="-0.78216710127890110015869140625">
        <ele>1184.199951171875</ele>
        <time>2020-08-20T08:36:50.000Z</time>
      </trkpt>
      <trkpt lat="42.75776370428502559661865234375" lon="-0.78216508962213993072509765625">
        <ele>1184</ele>
        <time>2020-08-20T08:36:51.000Z</time>
      </trkpt>
      <trkpt lat="42.7577850781381130218505859375" lon="-0.78217045404016971588134765625">
        <ele>1183.4000244140625</ele>
        <time>2020-08-20T08:36:55.000Z</time>
      </trkpt>
      <trkpt lat="42.75779153220355510711669921875" lon="-0.7821765728294849395751953125">
        <ele>1183.4000244140625</ele>
        <time>2020-08-20T08:36:56.000Z</time>
      </trkpt>
      <trkpt lat="42.75780041702091693878173828125" lon="-0.78218688257038593292236328125">
        <ele>1182.800048828125</ele>
        <time>2020-08-20T08:36:58.000Z</time>
      </trkpt>
      <trkpt lat="42.75782707147300243377685546875" lon="-0.782222338020801544189453125">
        <ele>1182.199951171875</ele>
        <time>2020-08-20T08:37:03.000Z</time>
      </trkpt>
      <trkpt lat="42.7578665502369403839111328125" lon="-0.78224086202681064605712890625">
        <ele>1182.199951171875</ele>
        <time>2020-08-20T08:37:10.000Z</time>
      </trkpt>
      <trkpt lat="42.75786596350371837615966796875" lon="-0.78226885758340358734130859375">
        <ele>1181.5999755859375</ele>
        <time>2020-08-20T08:37:15.000Z</time>
      </trkpt>
      <trkpt lat="42.7578645385801792144775390625" lon="-0.78227656893432140350341796875">
        <ele>1181.199951171875</ele>
        <time>2020-08-20T08:37:17.000Z</time>
      </trkpt>
      <trkpt lat="42.75787199847400188446044921875" lon="-0.78231361694633960723876953125">
        <ele>1180.4000244140625</ele>
        <time>2020-08-20T08:37:23.000Z</time>
      </trkpt>
      <trkpt lat="42.757876105606555938720703125" lon="-0.78232350759208202362060546875">
        <ele>1180.199951171875</ele>
        <time>2020-08-20T08:37:24.000Z</time>
      </trkpt>
      <trkpt lat="42.7578876726329326629638671875" lon="-0.782354772090911865234375">
        <ele>1179.800048828125</ele>
        <time>2020-08-20T08:37:27.000Z</time>
      </trkpt>
      <trkpt lat="42.75789915584027767181396484375" lon="-0.78238117508590221405029296875">
        <ele>1179</ele>
        <time>2020-08-20T08:37:29.000Z</time>
      </trkpt>
      <trkpt lat="42.7579079568386077880859375" lon="-0.78240632079541683197021484375">
        <ele>1178.5999755859375</ele>
        <time>2020-08-20T08:37:31.000Z</time>
      </trkpt>
      <trkpt lat="42.7579128183424472808837890625" lon="-0.782417468726634979248046875">
        <ele>1178.4000244140625</ele>
        <time>2020-08-20T08:37:32.000Z</time>
      </trkpt>
      <trkpt lat="42.7579369582235813140869140625" lon="-0.78247672878205776214599609375">
        <ele>1178.199951171875</ele>
        <time>2020-08-20T08:37:37.000Z</time>
      </trkpt>
      <trkpt lat="42.75794341228902339935302734375" lon="-0.78248159028589725494384765625">
        <ele>1178.199951171875</ele>
        <time>2020-08-20T08:37:38.000Z</time>
      </trkpt>
      <trkpt lat="42.757966630160808563232421875" lon="-0.78249894082546234130859375">
        <ele>1178.199951171875</ele>
        <time>2020-08-20T08:37:41.000Z</time>
      </trkpt>
      <trkpt lat="42.7579818852245807647705078125" lon="-0.78251277096569538116455078125">
        <ele>1178.199951171875</ele>
        <time>2020-08-20T08:37:43.000Z</time>
      </trkpt>
      <trkpt lat="42.7580040134489536285400390625" lon="-0.78251327387988567352294921875">
        <ele>1178.199951171875</ele>
        <time>2020-08-20T08:37:45.000Z</time>
      </trkpt>
      <trkpt lat="42.75804902426898479461669921875" lon="-0.78251696191728115081787109375">
        <ele>1178.199951171875</ele>
        <time>2020-08-20T08:37:52.000Z</time>
      </trkpt>
      <trkpt lat="42.75805036537349224090576171875" lon="-0.7825224101543426513671875">
        <ele>1178.199951171875</ele>
        <time>2020-08-20T08:38:02.000Z</time>
      </trkpt>
      <trkpt lat="42.75805078446865081787109375" lon="-0.78252173960208892822265625">
        <ele>1178</ele>
        <time>2020-08-20T08:38:09.000Z</time>
      </trkpt>
      <trkpt lat="42.75804785080254077911376953125" lon="-0.7825188897550106048583984375">
        <ele>1178</ele>
        <time>2020-08-20T08:38:14.000Z</time>
      </trkpt>
      <trkpt lat="42.7580539695918560028076171875" lon="-0.78252651728689670562744140625">
        <ele>1177.5999755859375</ele>
        <time>2020-08-20T08:38:25.000Z</time>
      </trkpt>
      <trkpt lat="42.75805606506764888763427734375" lon="-0.7825255952775478363037109375">
        <ele>1177.4000244140625</ele>
        <time>2020-08-20T08:38:41.000Z</time>
      </trkpt>
      <trkpt lat="42.7580814622342586517333984375" lon="-0.7825249247252941131591796875">
        <ele>1177.800048828125</ele>
        <time>2020-08-20T08:39:07.000Z</time>
      </trkpt>
      <trkpt lat="42.7581689693033695220947265625" lon="-0.7825597934424877166748046875">
        <ele>1177.800048828125</ele>
        <time>2020-08-20T08:39:16.000Z</time>
      </trkpt>
      <trkpt lat="42.75820341892540454864501953125" lon="-0.7825641520321369171142578125">
        <ele>1177.4000244140625</ele>
        <time>2020-08-20T08:39:22.000Z</time>
      </trkpt>
      <trkpt lat="42.75825991295278072357177734375" lon="-0.7826457917690277099609375">
        <ele>1177.4000244140625</ele>
        <time>2020-08-20T08:39:30.000Z</time>
      </trkpt>
      <trkpt lat="42.7582876570522785186767578125" lon="-0.78274696134030818939208984375">
        <ele>1177.199951171875</ele>
        <time>2020-08-20T08:39:38.000Z</time>
      </trkpt>
      <trkpt lat="42.758297212421894073486328125" lon="-0.78282214701175689697265625">
        <ele>1177</ele>
        <time>2020-08-20T08:39:43.000Z</time>
      </trkpt>
      <trkpt lat="42.7582888305187225341796875" lon="-0.7828496396541595458984375">
        <ele>1176.800048828125</ele>
        <time>2020-08-20T08:39:45.000Z</time>
      </trkpt>
      <trkpt lat="42.758287489414215087890625" lon="-0.7828561775386333465576171875">
        <ele>1176.5999755859375</ele>
        <time>2020-08-20T08:39:46.000Z</time>
      </trkpt>
      <trkpt lat="42.75827416218817234039306640625" lon="-0.78286313451826572418212890625">
        <ele>1176</ele>
        <time>2020-08-20T08:39:54.000Z</time>
      </trkpt>
      <trkpt lat="42.7582754194736480712890625" lon="-0.78285927884280681610107421875">
        <ele>1175.5999755859375</ele>
        <time>2020-08-20T08:40:05.000Z</time>
      </trkpt>
      <trkpt lat="42.7582896687090396881103515625" lon="-0.782876126468181610107421875">
        <ele>1175.5999755859375</ele>
        <time>2020-08-20T08:40:13.000Z</time>
      </trkpt>
      <trkpt lat="42.758294530212879180908203125" lon="-0.78288140706717967987060546875">
        <ele>1175.5999755859375</ele>
        <time>2020-08-20T08:40:14.000Z</time>
      </trkpt>
      <trkpt lat="42.75828673504292964935302734375" lon="-0.7829403318464756011962890625">
        <ele>1175</ele>
        <time>2020-08-20T08:40:22.000Z</time>
      </trkpt>
      <trkpt lat="42.758276760578155517578125" lon="-0.783009566366672515869140625">
        <ele>1174.199951171875</ele>
        <time>2020-08-20T08:40:29.000Z</time>
      </trkpt>
      <trkpt lat="42.7582769282162189483642578125" lon="-0.78301317058503627777099609375">
        <ele>1174.199951171875</ele>
        <time>2020-08-20T08:40:30.000Z</time>
      </trkpt>
      <trkpt lat="42.758273072540760040283203125" lon="-0.78304552473127841949462890625">
        <ele>1173.800048828125</ele>
        <time>2020-08-20T08:40:41.000Z</time>
      </trkpt>
      <trkpt lat="42.7582423947751522064208984375" lon="-0.78311576507985591888427734375">
        <ele>1173.199951171875</ele>
        <time>2020-08-20T08:40:47.000Z</time>
      </trkpt>
      <trkpt lat="42.75822915136814117431640625" lon="-0.78314074315130710601806640625">
        <ele>1172.800048828125</ele>
        <time>2020-08-20T08:40:49.000Z</time>
      </trkpt>
      <trkpt lat="42.75816804729402065277099609375" lon="-0.78322003595530986785888671875">
        <ele>1172.199951171875</ele>
        <time>2020-08-20T08:40:55.000Z</time>
      </trkpt>
      <trkpt lat="42.7581528760492801666259765625" lon="-0.78324727714061737060546875">
        <ele>1171.4000244140625</ele>
        <time>2020-08-20T08:40:57.000Z</time>
      </trkpt>
      <trkpt lat="42.75813736952841281890869140625" lon="-0.78328407369554042816162109375">
        <ele>1170.800048828125</ele>
        <time>2020-08-20T08:41:01.000Z</time>
      </trkpt>
      <trkpt lat="42.75811406783759593963623046875" lon="-0.78333151526749134063720703125">
        <ele>1170.800048828125</ele>
        <time>2020-08-20T08:41:05.000Z</time>
      </trkpt>
      <trkpt lat="42.758066542446613311767578125" lon="-0.78341902233660221099853515625">
        <ele>1170.199951171875</ele>
        <time>2020-08-20T08:41:14.000Z</time>
      </trkpt>
      <trkpt lat="42.7580281533300876617431640625" lon="-0.78350418247282505035400390625">
        <ele>1170.199951171875</ele>
        <time>2020-08-20T08:41:24.000Z</time>
      </trkpt>
      <trkpt lat="42.75801767595112323760986328125" lon="-0.78352128155529499053955078125">
        <ele>1169.800048828125</ele>
        <time>2020-08-20T08:41:26.000Z</time>
      </trkpt>
      <trkpt lat="42.7579855732619762420654296875" lon="-0.783588588237762451171875">
        <ele>1169</ele>
        <time>2020-08-20T08:41:32.000Z</time>
      </trkpt>
      <trkpt lat="42.7579805441200733184814453125" lon="-0.78360132873058319091796875">
        <ele>1168.800048828125</ele>
        <time>2020-08-20T08:41:33.000Z</time>
      </trkpt>
      <trkpt lat="42.75796202011406421661376953125" lon="-0.783679448068141937255859375">
        <ele>1167.5999755859375</ele>
        <time>2020-08-20T08:41:39.000Z</time>
      </trkpt>
      <trkpt lat="42.757909297943115234375" lon="-0.7837845571339130401611328125">
        <ele>1166.800048828125</ele>
        <time>2020-08-20T08:41:49.000Z</time>
      </trkpt>
      <trkpt lat="42.75787669233977794647216796875" lon="-0.7838554680347442626953125">
        <ele>1166.5999755859375</ele>
        <time>2020-08-20T08:41:56.000Z</time>
      </trkpt>
      <trkpt lat="42.75785858742892742156982421875" lon="-0.78387357294559478759765625">
        <ele>1166.5999755859375</ele>
        <time>2020-08-20T08:41:58.000Z</time>
      </trkpt>
      <trkpt lat="42.75784517638385295867919921875" lon="-0.7838868163526058197021484375">
        <ele>1166.4000244140625</ele>
        <time>2020-08-20T08:42:00.000Z</time>
      </trkpt>
      <trkpt lat="42.7578253112733364105224609375" lon="-0.7838951982557773590087890625">
        <ele>1165.800048828125</ele>
        <time>2020-08-20T08:42:02.000Z</time>
      </trkpt>
      <trkpt lat="42.75776621885597705841064453125" lon="-0.78393551521003246307373046875">
        <ele>1165.199951171875</ele>
        <time>2020-08-20T08:42:07.000Z</time>
      </trkpt>
      <trkpt lat="42.757761441171169281005859375" lon="-0.7839458249509334564208984375">
        <ele>1165.199951171875</ele>
        <time>2020-08-20T08:42:08.000Z</time>
      </trkpt>
      <trkpt lat="42.75771508924663066864013671875" lon="-0.78402134589850902557373046875">
        <ele>1164.199951171875</ele>
        <time>2020-08-20T08:42:15.000Z</time>
      </trkpt>
      <trkpt lat="42.7577049471437931060791015625" lon="-0.784031488001346588134765625">
        <ele>1164.199951171875</ele>
        <time>2020-08-20T08:42:16.000Z</time>
      </trkpt>
      <trkpt lat="42.75764719583094120025634765625" lon="-0.78409745357930660247802734375">
        <ele>1163.800048828125</ele>
        <time>2020-08-20T08:42:23.000Z</time>
      </trkpt>
      <trkpt lat="42.7575896121561527252197265625" lon="-0.7841795124113559722900390625">
        <ele>1163.800048828125</ele>
        <time>2020-08-20T08:42:31.000Z</time>
      </trkpt>
      <trkpt lat="42.75757930241525173187255859375" lon="-0.78420256264507770538330078125">
        <ele>1163.800048828125</ele>
        <time>2020-08-20T08:42:33.000Z</time>
      </trkpt>
      <trkpt lat="42.75756890885531902313232421875" lon="-0.78423525206744670867919921875">
        <ele>1163.800048828125</ele>
        <time>2020-08-20T08:42:36.000Z</time>
      </trkpt>
      <trkpt lat="42.75756186805665493011474609375" lon="-0.7842458970844745635986328125">
        <ele>1163.800048828125</ele>
        <time>2020-08-20T08:42:37.000Z</time>
      </trkpt>
      <trkpt lat="42.75752431713044643402099609375" lon="-0.784307420253753662109375">
        <ele>1163.5999755859375</ele>
        <time>2020-08-20T08:42:42.000Z</time>
      </trkpt>
      <trkpt lat="42.7574819885194301605224609375" lon="-0.7843870483338832855224609375">
        <ele>1163.4000244140625</ele>
        <time>2020-08-20T08:42:48.000Z</time>
      </trkpt>
      <trkpt lat="42.75746765546500682830810546875" lon="-0.78440372832119464874267578125">
        <ele>1163.800048828125</ele>
        <time>2020-08-20T08:42:50.000Z</time>
      </trkpt>
      <trkpt lat="42.75740495882928371429443359375" lon="-0.78445452265441417694091796875">
        <ele>1164.5999755859375</ele>
        <time>2020-08-20T08:42:57.000Z</time>
      </trkpt>
      <trkpt lat="42.75733170099556446075439453125" lon="-0.78449257649481296539306640625">
        <ele>1164.5999755859375</ele>
        <time>2020-08-20T08:43:04.000Z</time>
      </trkpt>
      <trkpt lat="42.75725944899022579193115234375" lon="-0.784531719982624053955078125">
        <ele>1164.199951171875</ele>
        <time>2020-08-20T08:43:11.000Z</time>
      </trkpt>
      <trkpt lat="42.75721586309373378753662109375" lon="-0.78454052098095417022705078125">
        <ele>1164.4000244140625</ele>
        <time>2020-08-20T08:43:16.000Z</time>
      </trkpt>
      <trkpt lat="42.75713221170008182525634765625" lon="-0.78455150127410888671875">
        <ele>1164.4000244140625</ele>
        <time>2020-08-20T08:43:23.000Z</time>
      </trkpt>
      <trkpt lat="42.75704386644065380096435546875" lon="-0.78459382988512516021728515625">
        <ele>1164.5999755859375</ele>
        <time>2020-08-20T08:43:31.000Z</time>
      </trkpt>
      <trkpt lat="42.75700916536152362823486328125" lon="-0.7846676744520664215087890625">
        <ele>1164</ele>
        <time>2020-08-20T08:43:37.000Z</time>
      </trkpt>
      <trkpt lat="42.75700296275317668914794921875" lon="-0.78467815183103084564208984375">
        <ele>1164</ele>
        <time>2020-08-20T08:43:38.000Z</time>
      </trkpt>
      <trkpt lat="42.75696046650409698486328125" lon="-0.78474705107510089874267578125">
        <ele>1164</ele>
        <time>2020-08-20T08:43:45.000Z</time>
      </trkpt>
      <trkpt lat="42.7569589577615261077880859375" lon="-0.78475995920598506927490234375">
        <ele>1164</ele>
        <time>2020-08-20T08:43:46.000Z</time>
      </trkpt>
      <trkpt lat="42.75695418007671833038330078125" lon="-0.78481963835656642913818359375">
        <ele>1164.199951171875</ele>
        <time>2020-08-20T08:43:51.000Z</time>
      </trkpt>
      <trkpt lat="42.75693942792713642120361328125" lon="-0.78489557839930057525634765625">
        <ele>1164.5999755859375</ele>
        <time>2020-08-20T08:43:58.000Z</time>
      </trkpt>
      <trkpt lat="42.75694060139358043670654296875" lon="-0.7849318720400333404541015625">
        <ele>1164.5999755859375</ele>
        <time>2020-08-20T08:44:01.000Z</time>
      </trkpt>
      <trkpt lat="42.75694730691611766815185546875" lon="-0.78497906215488910675048828125">
        <ele>1164.5999755859375</ele>
        <time>2020-08-20T08:44:05.000Z</time>
      </trkpt>
      <trkpt lat="42.7569532580673694610595703125" lon="-0.78506690450012683868408203125">
        <ele>1164.800048828125</ele>
        <time>2020-08-20T08:44:13.000Z</time>
      </trkpt>
      <trkpt lat="42.7569492347538471221923828125" lon="-0.78513714484870433807373046875">
        <ele>1165.199951171875</ele>
        <time>2020-08-20T08:44:20.000Z</time>
      </trkpt>
      <trkpt lat="42.75695166550576686859130859375" lon="-0.7851536571979522705078125">
        <ele>1165.5999755859375</ele>
        <time>2020-08-20T08:44:23.000Z</time>
      </trkpt>
      <trkpt lat="42.75694906711578369140625" lon="-0.7851595245301723480224609375">
        <ele>1166.199951171875</ele>
        <time>2020-08-20T08:44:28.000Z</time>
      </trkpt>
      <trkpt lat="42.7569485642015933990478515625" lon="-0.78516195528209209442138671875">
        <ele>1165.800048828125</ele>
        <time>2020-08-20T08:44:47.000Z</time>
      </trkpt>
      <trkpt lat="42.7569482289254665374755859375" lon="-0.78516430221498012542724609375">
        <ele>1165.5999755859375</ele>
        <time>2020-08-20T08:45:01.000Z</time>
      </trkpt>
      <trkpt lat="42.7569665014743804931640625" lon="-0.785208642482757568359375">
        <ele>1165.5999755859375</ele>
        <time>2020-08-20T08:45:09.000Z</time>
      </trkpt>
      <trkpt lat="42.75697547011077404022216796875" lon="-0.7853137515485286712646484375">
        <ele>1165.4000244140625</ele>
        <time>2020-08-20T08:45:17.000Z</time>
      </trkpt>
      <trkpt lat="42.75699424557387828826904296875" lon="-0.78541844151914119720458984375">
        <ele>1165.199951171875</ele>
        <time>2020-08-20T08:45:25.000Z</time>
      </trkpt>
      <trkpt lat="42.7570255100727081298828125" lon="-0.7854766957461833953857421875">
        <ele>1165</ele>
        <time>2020-08-20T08:45:30.000Z</time>
      </trkpt>
      <trkpt lat="42.75703246705234050750732421875" lon="-0.7855031825602054595947265625">
        <ele>1164.800048828125</ele>
        <time>2020-08-20T08:45:32.000Z</time>
      </trkpt>
      <trkpt lat="42.75705174542963504791259765625" lon="-0.785530172288417816162109375">
        <ele>1164.800048828125</ele>
        <time>2020-08-20T08:45:35.000Z</time>
      </trkpt>
      <trkpt lat="42.75710606016218662261962890625" lon="-0.78557945787906646728515625">
        <ele>1164.199951171875</ele>
        <time>2020-08-20T08:45:41.000Z</time>
      </trkpt>
      <trkpt lat="42.75710857473313808441162109375" lon="-0.7855927012860774993896484375">
        <ele>1164</ele>
        <time>2020-08-20T08:45:42.000Z</time>
      </trkpt>
      <trkpt lat="42.75712869130074977874755859375" lon="-0.7856205292046070098876953125">
        <ele>1164</ele>
        <time>2020-08-20T08:45:45.000Z</time>
      </trkpt>
      <trkpt lat="42.757155597209930419921875" lon="-0.78564651310443878173828125">
        <ele>1164</ele>
        <time>2020-08-20T08:45:49.000Z</time>
      </trkpt>
      <trkpt lat="42.7571892924606800079345703125" lon="-0.78569504432380199432373046875">
        <ele>1163</ele>
        <time>2020-08-20T08:45:55.000Z</time>
      </trkpt>
      <trkpt lat="42.7572079002857208251953125" lon="-0.78571599908173084259033203125">
        <ele>1163</ele>
        <time>2020-08-20T08:45:57.000Z</time>
      </trkpt>
      <trkpt lat="42.757243774831295013427734375" lon="-0.785782970488071441650390625">
        <ele>1162.199951171875</ele>
        <time>2020-08-20T08:46:03.000Z</time>
      </trkpt>
      <trkpt lat="42.75726917199790477752685546875" lon="-0.7858186773955821990966796875">
        <ele>1162.199951171875</ele>
        <time>2020-08-20T08:46:09.000Z</time>
      </trkpt>
      <trkpt lat="42.7572814933955669403076171875" lon="-0.78585329465568065643310546875">
        <ele>1162</ele>
        <time>2020-08-20T08:46:13.000Z</time>
      </trkpt>
      <trkpt lat="42.75728777982294559478759765625" lon="-0.78588229604065418243408203125">
        <ele>1161.4000244140625</ele>
        <time>2020-08-20T08:46:16.000Z</time>
      </trkpt>
      <trkpt lat="42.75730320252478122711181640625" lon="-0.785900652408599853515625">
        <ele>1160.800048828125</ele>
        <time>2020-08-20T08:46:19.000Z</time>
      </trkpt>
      <trkpt lat="42.75733195245265960693359375" lon="-0.78591615892946720123291015625">
        <ele>1160.199951171875</ele>
        <time>2020-08-20T08:46:23.000Z</time>
      </trkpt>
      <trkpt lat="42.75736975483596324920654296875" lon="-0.785959325730800628662109375">
        <ele>1159.5999755859375</ele>
        <time>2020-08-20T08:46:29.000Z</time>
      </trkpt>
      <trkpt lat="42.757381908595561981201171875" lon="-0.7859772630035877227783203125">
        <ele>1159.199951171875</ele>
        <time>2020-08-20T08:46:31.000Z</time>
      </trkpt>
      <trkpt lat="42.7574065513908863067626953125" lon="-0.78600165434181690216064453125">
        <ele>1158.5999755859375</ele>
        <time>2020-08-20T08:46:34.000Z</time>
      </trkpt>
      <trkpt lat="42.75743295438587665557861328125" lon="-0.7860161550343036651611328125">
        <ele>1158.199951171875</ele>
        <time>2020-08-20T08:46:37.000Z</time>
      </trkpt>
      <trkpt lat="42.757479138672351837158203125" lon="-0.78604750335216522216796875">
        <ele>1157.5999755859375</ele>
        <time>2020-08-20T08:46:42.000Z</time>
      </trkpt>
      <trkpt lat="42.75749749504029750823974609375" lon="-0.78604993410408496856689453125">
        <ele>1157</ele>
        <time>2020-08-20T08:46:44.000Z</time>
      </trkpt>
      <trkpt lat="42.75752364657819271087646484375" lon="-0.78605848364531993865966796875">
        <ele>1156.5999755859375</ele>
        <time>2020-08-20T08:46:47.000Z</time>
      </trkpt>
      <trkpt lat="42.75755482725799083709716796875" lon="-0.7860731519758701324462890625">
        <ele>1156.199951171875</ele>
        <time>2020-08-20T08:46:51.000Z</time>
      </trkpt>
      <trkpt lat="42.75757695548236370086669921875" lon="-0.78608195297420024871826171875">
        <ele>1155.5999755859375</ele>
        <time>2020-08-20T08:46:57.000Z</time>
      </trkpt>
      <trkpt lat="42.75758248753845691680908203125" lon="-0.78608572483062744140625">
        <ele>1155.4000244140625</ele>
        <time>2020-08-20T08:46:58.000Z</time>
      </trkpt>
      <trkpt lat="42.7576372213661670684814453125" lon="-0.78611095435917377471923828125">
        <ele>1155</ele>
        <time>2020-08-20T08:47:04.000Z</time>
      </trkpt>
      <trkpt lat="42.75765725411474704742431640625" lon="-0.78613408841192722320556640625">
        <ele>1154.5999755859375</ele>
        <time>2020-08-20T08:47:06.000Z</time>
      </trkpt>
      <trkpt lat="42.75767854414880275726318359375" lon="-0.78614565543830394744873046875">
        <ele>1154.4000244140625</ele>
        <time>2020-08-20T08:47:08.000Z</time>
      </trkpt>
      <trkpt lat="42.757686674594879150390625" lon="-0.78614800237119197845458984375">
        <ele>1154.4000244140625</ele>
        <time>2020-08-20T08:47:09.000Z</time>
      </trkpt>
      <trkpt lat="42.75774635374546051025390625" lon="-0.7861621677875518798828125">
        <ele>1153.4000244140625</ele>
        <time>2020-08-20T08:47:17.000Z</time>
      </trkpt>
      <trkpt lat="42.75775649584829807281494140625" lon="-0.78616552054882049560546875">
        <ele>1153.4000244140625</ele>
        <time>2020-08-20T08:47:18.000Z</time>
      </trkpt>
      <trkpt lat="42.75780200958251953125" lon="-0.78617499209940433502197265625">
        <ele>1152.199951171875</ele>
        <time>2020-08-20T08:47:23.000Z</time>
      </trkpt>
      <trkpt lat="42.75785892270505428314208984375" lon="-0.78619661740958690643310546875">
        <ele>1151.4000244140625</ele>
        <time>2020-08-20T08:47:29.000Z</time>
      </trkpt>
      <trkpt lat="42.7578665502369403839111328125" lon="-0.78619728796184062957763671875">
        <ele>1151.199951171875</ele>
        <time>2020-08-20T08:47:30.000Z</time>
      </trkpt>
      <trkpt lat="42.757933102548122406005859375" lon="-0.78621924854815006256103515625">
        <ele>1150.199951171875</ele>
        <time>2020-08-20T08:47:36.000Z</time>
      </trkpt>
      <trkpt lat="42.7579426579177379608154296875" lon="-0.78621874563395977020263671875">
        <ele>1149.800048828125</ele>
        <time>2020-08-20T08:47:37.000Z</time>
      </trkpt>
      <trkpt lat="42.75799605064094066619873046875" lon="-0.7862169854342937469482421875">
        <ele>1149.5999755859375</ele>
        <time>2020-08-20T08:47:42.000Z</time>
      </trkpt>
      <trkpt lat="42.75800711475312709808349609375" lon="-0.78621572814881801605224609375">
        <ele>1149.4000244140625</ele>
        <time>2020-08-20T08:47:43.000Z</time>
      </trkpt>
      <trkpt lat="42.7580576576292514801025390625" lon="-0.78621941618621349334716796875">
        <ele>1149</ele>
        <time>2020-08-20T08:47:48.000Z</time>
      </trkpt>
      <trkpt lat="42.75807534344494342803955078125" lon="-0.7862267084419727325439453125">
        <ele>1148.5999755859375</ele>
        <time>2020-08-20T08:47:50.000Z</time>
      </trkpt>
      <trkpt lat="42.75808372534811496734619140625" lon="-0.78622645698487758636474609375">
        <ele>1148.5999755859375</ele>
        <time>2020-08-20T08:47:51.000Z</time>
      </trkpt>
      <trkpt lat="42.75811876170337200164794921875" lon="-0.78623249195516109466552734375">
        <ele>1148.199951171875</ele>
        <time>2020-08-20T08:47:57.000Z</time>
      </trkpt>
      <trkpt lat="42.75815245695412158966064453125" lon="-0.7862521894276142120361328125">
        <ele>1147.800048828125</ele>
        <time>2020-08-20T08:48:03.000Z</time>
      </trkpt>
      <trkpt lat="42.7581776864826679229736328125" lon="-0.78625948168337345123291015625">
        <ele>1147.4000244140625</ele>
        <time>2020-08-20T08:48:06.000Z</time>
      </trkpt>
      <trkpt lat="42.75823594070971012115478515625" lon="-0.78626551665365695953369140625">
        <ele>1147</ele>
        <time>2020-08-20T08:48:14.000Z</time>
      </trkpt>
      <trkpt lat="42.75829084217548370361328125" lon="-0.7862949371337890625">
        <ele>1147.4000244140625</ele>
        <time>2020-08-20T08:48:23.000Z</time>
      </trkpt>
      <trkpt lat="42.7583563886582851409912109375" lon="-0.78632737509906291961669921875">
        <ele>1147.5999755859375</ele>
        <time>2020-08-20T08:48:31.000Z</time>
      </trkpt>
      <trkpt lat="42.75840424932539463043212890625" lon="-0.78637749888002872467041015625">
        <ele>1147.800048828125</ele>
        <time>2020-08-20T08:48:38.000Z</time>
      </trkpt>
      <trkpt lat="42.75841296650469303131103515625" lon="-0.786383450031280517578125">
        <ele>1147.800048828125</ele>
        <time>2020-08-20T08:48:39.000Z</time>
      </trkpt>
      <trkpt lat="42.7584418840706348419189453125" lon="-0.78642527572810649871826171875">
        <ele>1148</ele>
        <time>2020-08-20T08:48:44.000Z</time>
      </trkpt>
      <trkpt lat="42.7584739029407501220703125" lon="-0.7864952646195888519287109375">
        <ele>1148</ele>
        <time>2020-08-20T08:48:52.000Z</time>
      </trkpt>
      <trkpt lat="42.75849678553640842437744140625" lon="-0.78656382858753204345703125">
        <ele>1148</ele>
        <time>2020-08-20T08:48:59.000Z</time>
      </trkpt>
      <trkpt lat="42.75850097648799419403076171875" lon="-0.7866263575851917266845703125">
        <ele>1148.199951171875</ele>
        <time>2020-08-20T08:49:05.000Z</time>
      </trkpt>
      <trkpt lat="42.75848924182355403900146484375" lon="-0.7867081649601459503173828125">
        <ele>1148.4000244140625</ele>
        <time>2020-08-20T08:49:12.000Z</time>
      </trkpt>
      <trkpt lat="42.75848773308098316192626953125" lon="-0.78673289157450199127197265625">
        <ele>1148.5999755859375</ele>
        <time>2020-08-20T08:49:14.000Z</time>
      </trkpt>
      <trkpt lat="42.75848387740552425384521484375" lon="-0.78676407225430011749267578125">
        <ele>1149.199951171875</ele>
        <time>2020-08-20T08:49:20.000Z</time>
      </trkpt>
      <trkpt lat="42.7584824524819850921630859375" lon="-0.7867795787751674652099609375">
        <ele>1149.199951171875</ele>
        <time>2020-08-20T08:49:25.000Z</time>
      </trkpt>
      <trkpt lat="42.7584837935864925384521484375" lon="-0.78681201674044132232666015625">
        <ele>1149.199951171875</ele>
        <time>2020-08-20T08:49:28.000Z</time>
      </trkpt>
      <trkpt lat="42.75848186574876308441162109375" lon="-0.78687186352908611297607421875">
        <ele>1149.5999755859375</ele>
        <time>2020-08-20T08:49:34.000Z</time>
      </trkpt>
      <trkpt lat="42.75848127901554107666015625" lon="-0.78688292764127254486083984375">
        <ele>1149.5999755859375</ele>
        <time>2020-08-20T08:49:35.000Z</time>
      </trkpt>
      <trkpt lat="42.75847457349300384521484375" lon="-0.7869317941367626190185546875">
        <ele>1150.800048828125</ele>
        <time>2020-08-20T08:49:41.000Z</time>
      </trkpt>
      <trkpt lat="42.75847180746495723724365234375" lon="-0.78693757764995098114013671875">
        <ele>1151</ele>
        <time>2020-08-20T08:49:42.000Z</time>
      </trkpt>
      <trkpt lat="42.75845286436378955841064453125" lon="-0.78696540556848049163818359375">
        <ele>1151.800048828125</ele>
        <time>2020-08-20T08:49:47.000Z</time>
      </trkpt>
      <trkpt lat="42.7584455721080303192138671875" lon="-0.78698669560253620147705078125">
        <ele>1152.199951171875</ele>
        <time>2020-08-20T08:49:50.000Z</time>
      </trkpt>
      <trkpt lat="42.7583993040025234222412109375" lon="-0.787066407501697540283203125">
        <ele>1152.5999755859375</ele>
        <time>2020-08-20T08:49:59.000Z</time>
      </trkpt>
      <trkpt lat="42.758381702005863189697265625" lon="-0.7870927266776561737060546875">
        <ele>1152.800048828125</ele>
        <time>2020-08-20T08:50:02.000Z</time>
      </trkpt>
      <trkpt lat="42.7583617530763149261474609375" lon="-0.78713136725127696990966796875">
        <ele>1153</ele>
        <time>2020-08-20T08:50:07.000Z</time>
      </trkpt>
      <trkpt lat="42.75832747109234333038330078125" lon="-0.78718886710703372955322265625">
        <ele>1153.800048828125</ele>
        <time>2020-08-20T08:50:14.000Z</time>
      </trkpt>
      <trkpt lat="42.758325040340423583984375" lon="-0.787205211818218231201171875">
        <ele>1154</ele>
        <time>2020-08-20T08:50:16.000Z</time>
      </trkpt>
      <trkpt lat="42.75832864455878734588623046875" lon="-0.7872858457267284393310546875">
        <ele>1154.800048828125</ele>
        <time>2020-08-20T08:50:24.000Z</time>
      </trkpt>
      <trkpt lat="42.758329398930072784423828125" lon="-0.78729179687798023223876953125">
        <ele>1155.199951171875</ele>
        <time>2020-08-20T08:50:25.000Z</time>
      </trkpt>
      <trkpt lat="42.75832730345427989959716796875" lon="-0.78731459565460681915283203125">
        <ele>1156</ele>
        <time>2020-08-20T08:50:29.000Z</time>
      </trkpt>
      <trkpt lat="42.75831204839050769805908203125" lon="-0.7873619534075260162353515625">
        <ele>1156.5999755859375</ele>
        <time>2020-08-20T08:50:35.000Z</time>
      </trkpt>
      <trkpt lat="42.75830919854342937469482421875" lon="-0.78736849129199981689453125">
        <ele>1156.800048828125</ele>
        <time>2020-08-20T08:50:36.000Z</time>
      </trkpt>
      <trkpt lat="42.75829645805060863494873046875" lon="-0.78740780241787433624267578125">
        <ele>1157.5999755859375</ele>
        <time>2020-08-20T08:50:41.000Z</time>
      </trkpt>
      <trkpt lat="42.75829277001321315765380859375" lon="-0.7874281704425811767578125">
        <ele>1157.800048828125</ele>
        <time>2020-08-20T08:50:43.000Z</time>
      </trkpt>
      <trkpt lat="42.75827717967331409454345703125" lon="-0.78747133724391460418701171875">
        <ele>1158.5999755859375</ele>
        <time>2020-08-20T08:50:48.000Z</time>
      </trkpt>
      <trkpt lat="42.75827365927398204803466796875" lon="-0.78748055733740329742431640625">
        <ele>1158.800048828125</ele>
        <time>2020-08-20T08:50:49.000Z</time>
      </trkpt>
      <trkpt lat="42.75826209224760532379150390625" lon="-0.7875671423971652984619140625">
        <ele>1159.4000244140625</ele>
        <time>2020-08-20T08:50:57.000Z</time>
      </trkpt>
      <trkpt lat="42.75825999677181243896484375" lon="-0.78759170137345790863037109375">
        <ele>1159.5999755859375</ele>
        <time>2020-08-20T08:51:00.000Z</time>
      </trkpt>
      <trkpt lat="42.7582591585814952850341796875" lon="-0.78761701472103595733642578125">
        <ele>1159.800048828125</ele>
        <time>2020-08-20T08:51:02.000Z</time>
      </trkpt>
      <trkpt lat="42.75825941003859043121337890625" lon="-0.78762992285192012786865234375">
        <ele>1160</ele>
        <time>2020-08-20T08:51:03.000Z</time>
      </trkpt>
      <trkpt lat="42.75825890712440013885498046875" lon="-0.7877009175717830657958984375">
        <ele>1160.5999755859375</ele>
        <time>2020-08-20T08:51:09.000Z</time>
      </trkpt>
      <trkpt lat="42.75826058350503444671630859375" lon="-0.78771692700684070587158203125">
        <ele>1161</ele>
        <time>2020-08-20T08:51:11.000Z</time>
      </trkpt>
      <trkpt lat="42.758261673152446746826171875" lon="-0.7877629436552524566650390625">
        <ele>1161.4000244140625</ele>
        <time>2020-08-20T08:51:18.000Z</time>
      </trkpt>
      <trkpt lat="42.75826108641922473907470703125" lon="-0.7878135703504085540771484375">
        <ele>1161.5999755859375</ele>
        <time>2020-08-20T08:51:23.000Z</time>
      </trkpt>
      <trkpt lat="42.75826846249401569366455078125" lon="-0.7878350280225276947021484375">
        <ele>1161.5999755859375</ele>
        <time>2020-08-20T08:51:25.000Z</time>
      </trkpt>
      <trkpt lat="42.75827315635979175567626953125" lon="-0.78784592449665069580078125">
        <ele>1161.800048828125</ele>
        <time>2020-08-20T08:51:27.000Z</time>
      </trkpt>
      <trkpt lat="42.7582754194736480712890625" lon="-0.78785204328596591949462890625">
        <ele>1162</ele>
        <time>2020-08-20T08:51:32.000Z</time>
      </trkpt>
      <trkpt lat="42.7583198435604572296142578125" lon="-0.7879195176064968109130859375">
        <ele>1161.800048828125</ele>
        <time>2020-08-20T08:51:40.000Z</time>
      </trkpt>
      <trkpt lat="42.758393771946430206298828125" lon="-0.78795547597110271453857421875">
        <ele>1161.800048828125</ele>
        <time>2020-08-20T08:51:47.000Z</time>
      </trkpt>
      <trkpt lat="42.7584479190409183502197265625" lon="-0.7879646122455596923828125">
        <ele>1160.5999755859375</ele>
        <time>2020-08-20T08:51:52.000Z</time>
      </trkpt>
      <trkpt lat="42.75845940224826335906982421875" lon="-0.78796871937811374664306640625">
        <ele>1160.4000244140625</ele>
        <time>2020-08-20T08:51:53.000Z</time>
      </trkpt>
      <trkpt lat="42.75852151215076446533203125" lon="-0.78798531554639339447021484375">
        <ele>1159.4000244140625</ele>
        <time>2020-08-20T08:52:00.000Z</time>
      </trkpt>
      <trkpt lat="42.75856786407530307769775390625" lon="-0.7880083657801151275634765625">
        <ele>1158.4000244140625</ele>
        <time>2020-08-20T08:52:06.000Z</time>
      </trkpt>
      <trkpt lat="42.75858814828097820281982421875" lon="-0.78802764415740966796875">
        <ele>1157.800048828125</ele>
        <time>2020-08-20T08:52:10.000Z</time>
      </trkpt>
      <trkpt lat="42.75860088877379894256591796875" lon="-0.7880573160946369171142578125">
        <ele>1157.199951171875</ele>
        <time>2020-08-20T08:52:15.000Z</time>
      </trkpt>
      <trkpt lat="42.75861513800919055938720703125" lon="-0.78806879930198192596435546875">
        <ele>1157.199951171875</ele>
        <time>2020-08-20T08:52:17.000Z</time>
      </trkpt>
      <trkpt lat="42.75867146439850330352783203125" lon="-0.7880851440131664276123046875">
        <ele>1156.199951171875</ele>
        <time>2020-08-20T08:52:24.000Z</time>
      </trkpt>
      <trkpt lat="42.75868034921586513519287109375" lon="-0.788086988031864166259765625">
        <ele>1156</ele>
        <time>2020-08-20T08:52:25.000Z</time>
      </trkpt>
      <trkpt lat="42.7587178163230419158935546875" lon="-0.78808707185089588165283203125">
        <ele>1155.5999755859375</ele>
        <time>2020-08-20T08:52:28.000Z</time>
      </trkpt>
      <trkpt lat="42.75876224040985107421875" lon="-0.78809997998178005218505859375">
        <ele>1155.199951171875</ele>
        <time>2020-08-20T08:52:32.000Z</time>
      </trkpt>
      <trkpt lat="42.75879886932671070098876953125" lon="-0.7881126366555690765380859375">
        <ele>1154.5999755859375</ele>
        <time>2020-08-20T08:52:36.000Z</time>
      </trkpt>
      <trkpt lat="42.7588475681841373443603515625" lon="-0.78813166357576847076416015625">
        <ele>1154</ele>
        <time>2020-08-20T08:52:41.000Z</time>
      </trkpt>
      <trkpt lat="42.75888369418680667877197265625" lon="-0.78814323060214519500732421875">
        <ele>1153.800048828125</ele>
        <time>2020-08-20T08:52:44.000Z</time>
      </trkpt>
      <trkpt lat="42.75889576412737369537353515625" lon="-0.78814825974404811859130859375">
        <ele>1153.800048828125</ele>
        <time>2020-08-20T08:52:45.000Z</time>
      </trkpt>
      <trkpt lat="42.75895603001117706298828125" lon="-0.78818564303219318389892578125">
        <ele>1153.4000244140625</ele>
        <time>2020-08-20T08:52:51.000Z</time>
      </trkpt>
      <trkpt lat="42.7589649148285388946533203125" lon="-0.7881897501647472381591796875">
        <ele>1153</ele>
        <time>2020-08-20T08:52:52.000Z</time>
      </trkpt>
      <trkpt lat="42.7590031363070011138916015625" lon="-0.78820911236107349395751953125">
        <ele>1152</ele>
        <time>2020-08-20T08:52:57.000Z</time>
      </trkpt>
      <trkpt lat="42.7590088360011577606201171875" lon="-0.78821070492267608642578125">
        <ele>1151.800048828125</ele>
        <time>2020-08-20T08:52:58.000Z</time>
      </trkpt>
      <trkpt lat="42.75908301584422588348388671875" lon="-0.78823526389896869659423828125">
        <ele>1150.5999755859375</ele>
        <time>2020-08-20T08:53:06.000Z</time>
      </trkpt>
      <trkpt lat="42.75914118625223636627197265625" lon="-0.78826979734003543853759765625">
        <ele>1149.5999755859375</ele>
        <time>2020-08-20T08:53:12.000Z</time>
      </trkpt>
      <trkpt lat="42.7591553516685962677001953125" lon="-0.78827432356774806976318359375">
        <ele>1149.199951171875</ele>
        <time>2020-08-20T08:53:14.000Z</time>
      </trkpt>
      <trkpt lat="42.75916884653270244598388671875" lon="-0.78829251229763031005859375">
        <ele>1148.5999755859375</ele>
        <time>2020-08-20T08:53:23.000Z</time>
      </trkpt>
      <trkpt lat="42.75919047184288501739501953125" lon="-0.788311623036861419677734375">
        <ele>1148.199951171875</ele>
        <time>2020-08-20T08:53:27.000Z</time>
      </trkpt>
      <trkpt lat="42.75922022759914398193359375" lon="-0.78834439627826213836669921875">
        <ele>1147.4000244140625</ele>
        <time>2020-08-20T08:53:32.000Z</time>
      </trkpt>
      <trkpt lat="42.7592361532151699066162109375" lon="-0.78835688531398773193359375">
        <ele>1147</ele>
        <time>2020-08-20T08:53:34.000Z</time>
      </trkpt>
      <trkpt lat="42.759258784353733062744140625" lon="-0.78837155364453792572021484375">
        <ele>1146.4000244140625</ele>
        <time>2020-08-20T08:53:37.000Z</time>
      </trkpt>
      <trkpt lat="42.75929708965122699737548828125" lon="-0.788379348814487457275390625">
        <ele>1145.5999755859375</ele>
        <time>2020-08-20T08:53:41.000Z</time>
      </trkpt>
      <trkpt lat="42.7593119256198406219482421875" lon="-0.7883838750422000885009765625">
        <ele>1145.199951171875</ele>
        <time>2020-08-20T08:53:43.000Z</time>
      </trkpt>
      <trkpt lat="42.75935173965990543365478515625" lon="-0.78839720226824283599853515625">
        <ele>1145</ele>
        <time>2020-08-20T08:53:48.000Z</time>
      </trkpt>
      <trkpt lat="42.75941242463886737823486328125" lon="-0.78840089030563831329345703125">
        <ele>1144</ele>
        <time>2020-08-20T08:53:54.000Z</time>
      </trkpt>
      <trkpt lat="42.75943170301616191864013671875" lon="-0.78840290196239948272705078125">
        <ele>1144</ele>
        <time>2020-08-20T08:53:56.000Z</time>
      </trkpt>
      <trkpt lat="42.75950722396373748779296875" lon="-0.7884137146174907684326171875">
        <ele>1143.199951171875</ele>
        <time>2020-08-20T08:54:04.000Z</time>
      </trkpt>
      <trkpt lat="42.7595218084752559661865234375" lon="-0.7884070090949535369873046875">
        <ele>1143</ele>
        <time>2020-08-20T08:54:06.000Z</time>
      </trkpt>
      <trkpt lat="42.75958945043385028839111328125" lon="-0.7883892394602298736572265625">
        <ele>1142.4000244140625</ele>
        <time>2020-08-20T08:54:15.000Z</time>
      </trkpt>
      <trkpt lat="42.75961375795304775238037109375" lon="-0.7883775047957897186279296875">
        <ele>1142.199951171875</ele>
        <time>2020-08-20T08:54:18.000Z</time>
      </trkpt>
      <trkpt lat="42.75966438464820384979248046875" lon="-0.78837105073034763336181640625">
        <ele>1142</ele>
        <time>2020-08-20T08:54:24.000Z</time>
      </trkpt>
      <trkpt lat="42.75970713235437870025634765625" lon="-0.78836350701749324798583984375">
        <ele>1141</ele>
        <time>2020-08-20T08:54:29.000Z</time>
      </trkpt>
      <trkpt lat="42.75972859002649784088134765625" lon="-0.7883627526462078094482421875">
        <ele>1140.800048828125</ele>
        <time>2020-08-20T08:54:31.000Z</time>
      </trkpt>
      <trkpt lat="42.75976915843784809112548828125" lon="-0.7883597351610660552978515625">
        <ele>1140</ele>
        <time>2020-08-20T08:54:36.000Z</time>
      </trkpt>
      <trkpt lat="42.75979958474636077880859375" lon="-0.78835428692400455474853515625">
        <ele>1139.199951171875</ele>
        <time>2020-08-20T08:54:39.000Z</time>
      </trkpt>
      <trkpt lat="42.759809307754039764404296875" lon="-0.78834925778210163116455078125">
        <ele>1138.800048828125</ele>
        <time>2020-08-20T08:54:42.000Z</time>
      </trkpt>
      <trkpt lat="42.75981559418141841888427734375" lon="-0.788370631635189056396484375">
        <ele>1138.5999755859375</ele>
        <time>2020-08-20T08:54:47.000Z</time>
      </trkpt>
      <trkpt lat="42.7598661370575428009033203125" lon="-0.78836585395038127899169921875">
        <ele>1138</ele>
        <time>2020-08-20T08:54:54.000Z</time>
      </trkpt>
      <trkpt lat="42.75987510569393634796142578125" lon="-0.78836568631231784820556640625">
        <ele>1137.800048828125</ele>
        <time>2020-08-20T08:54:55.000Z</time>
      </trkpt>
      <trkpt lat="42.75991919450461864471435546875" lon="-0.788343809545040130615234375">
        <ele>1137</ele>
        <time>2020-08-20T08:55:01.000Z</time>
      </trkpt>
      <trkpt lat="42.7599281631410121917724609375" lon="-0.7883392833173274993896484375">
        <ele>1136.800048828125</ele>
        <time>2020-08-20T08:55:02.000Z</time>
      </trkpt>
      <trkpt lat="42.75997971184551715850830078125" lon="-0.788323692977428436279296875">
        <ele>1136</ele>
        <time>2020-08-20T08:55:07.000Z</time>
      </trkpt>
      <trkpt lat="42.75999077595770359039306640625" lon="-0.78831941820681095123291015625">
        <ele>1136</ele>
        <time>2020-08-20T08:55:08.000Z</time>
      </trkpt>
      <trkpt lat="42.76000033132731914520263671875" lon="-0.7883161492645740509033203125">
        <ele>1135.800048828125</ele>
        <time>2020-08-20T08:55:09.000Z</time>
      </trkpt>
      <trkpt lat="42.76005439460277557373046875" lon="-0.78829385340213775634765625">
        <ele>1135</ele>
        <time>2020-08-20T08:55:15.000Z</time>
      </trkpt>
      <trkpt lat="42.76010024361312389373779296875" lon="-0.7882735691964626312255859375">
        <ele>1134.5999755859375</ele>
        <time>2020-08-20T08:55:19.000Z</time>
      </trkpt>
      <trkpt lat="42.76011667214334011077880859375" lon="-0.7882568053901195526123046875">
        <ele>1134.4000244140625</ele>
        <time>2020-08-20T08:55:21.000Z</time>
      </trkpt>
      <trkpt lat="42.76017249561846256256103515625" lon="-0.7882262952625751495361328125">
        <ele>1134.199951171875</ele>
        <time>2020-08-20T08:55:27.000Z</time>
      </trkpt>
      <trkpt lat="42.76020971126854419708251953125" lon="-0.78822269104421138763427734375">
        <ele>1134</ele>
        <time>2020-08-20T08:55:33.000Z</time>
      </trkpt>
      <trkpt lat="42.760251872241497039794921875" lon="-0.78822034411132335662841796875">
        <ele>1133.4000244140625</ele>
        <time>2020-08-20T08:55:41.000Z</time>
      </trkpt>
      <trkpt lat="42.7602587454020977020263671875" lon="-0.7882194221019744873046875">
        <ele>1133.199951171875</ele>
        <time>2020-08-20T08:55:42.000Z</time>
      </trkpt>
      <trkpt lat="42.760342061519622802734375" lon="-0.78818916343152523040771484375">
        <ele>1133.199951171875</ele>
        <time>2020-08-20T08:55:52.000Z</time>
      </trkpt>
      <trkpt lat="42.7604220248758792877197265625" lon="-0.78813585452735424041748046875">
        <ele>1133.199951171875</ele>
        <time>2020-08-20T08:56:02.000Z</time>
      </trkpt>
      <trkpt lat="42.76051430962979793548583984375" lon="-0.7881169952452182769775390625">
        <ele>1133</ele>
        <time>2020-08-20T08:56:11.000Z</time>
      </trkpt>
      <trkpt lat="42.76055789552628993988037109375" lon="-0.78812755644321441650390625">
        <ele>1133</ele>
        <time>2020-08-20T08:56:16.000Z</time>
      </trkpt>
      <trkpt lat="42.76057382114231586456298828125" lon="-0.7881441526114940643310546875">
        <ele>1133.199951171875</ele>
        <time>2020-08-20T08:56:18.000Z</time>
      </trkpt>
      <trkpt lat="42.76059125550091266632080078125" lon="-0.788154713809490203857421875">
        <ele>1133.199951171875</ele>
        <time>2020-08-20T08:56:20.000Z</time>
      </trkpt>
      <trkpt lat="42.76062930934131145477294921875" lon="-0.7881724834442138671875">
        <ele>1133.199951171875</ele>
        <time>2020-08-20T08:56:24.000Z</time>
      </trkpt>
      <trkpt lat="42.76069317944347858428955078125" lon="-0.7882229425013065338134765625">
        <ele>1133.4000244140625</ele>
        <time>2020-08-20T08:56:33.000Z</time>
      </trkpt>
      <trkpt lat="42.7607060037553310394287109375" lon="-0.78831086866557598114013671875">
        <ele>1133.800048828125</ele>
        <time>2020-08-20T08:56:40.000Z</time>
      </trkpt>
      <trkpt lat="42.76072519831359386444091796875" lon="-0.78838362358510494232177734375">
        <ele>1134.4000244140625</ele>
        <time>2020-08-20T08:56:48.000Z</time>
      </trkpt>
      <trkpt lat="42.76072553358972072601318359375" lon="-0.78839452005922794342041015625">
        <ele>1134.4000244140625</ele>
        <time>2020-08-20T08:56:49.000Z</time>
      </trkpt>
      <trkpt lat="42.76072628796100616455078125" lon="-0.78846241347491741180419921875">
        <ele>1135.800048828125</ele>
        <time>2020-08-20T08:56:58.000Z</time>
      </trkpt>
      <trkpt lat="42.76071933098137378692626953125" lon="-0.7885015569627285003662109375">
        <ele>1136.800048828125</ele>
        <time>2020-08-20T08:57:06.000Z</time>
      </trkpt>
      <trkpt lat="42.76071488857269287109375" lon="-0.7885853759944438934326171875">
        <ele>1137.199951171875</ele>
        <time>2020-08-20T08:57:14.000Z</time>
      </trkpt>
      <trkpt lat="42.7607190795242786407470703125" lon="-0.7886531017720699310302734375">
        <ele>1137.4000244140625</ele>
        <time>2020-08-20T08:57:21.000Z</time>
      </trkpt>
      <trkpt lat="42.7606825344264507293701171875" lon="-0.788724683225154876708984375">
        <ele>1137.800048828125</ele>
        <time>2020-08-20T08:57:29.000Z</time>
      </trkpt>
      <trkpt lat="42.7606788463890552520751953125" lon="-0.7887318916618824005126953125">
        <ele>1138</ele>
        <time>2020-08-20T08:57:30.000Z</time>
      </trkpt>
      <trkpt lat="42.7606563828885555267333984375" lon="-0.7887825183570384979248046875">
        <ele>1139.199951171875</ele>
        <time>2020-08-20T08:57:38.000Z</time>
      </trkpt>
      <trkpt lat="42.76065076701343059539794921875" lon="-0.78880422748625278472900390625">
        <ele>1139.4000244140625</ele>
        <time>2020-08-20T08:57:45.000Z</time>
      </trkpt>
      <trkpt lat="42.7606355957686901092529296875" lon="-0.78883741982281208038330078125">
        <ele>1140.199951171875</ele>
        <time>2020-08-20T08:57:51.000Z</time>
      </trkpt>
      <trkpt lat="42.760634087026119232177734375" lon="-0.78884362243115901947021484375">
        <ele>1140.199951171875</ele>
        <time>2020-08-20T08:57:52.000Z</time>
      </trkpt>
      <trkpt lat="42.76062436401844024658203125" lon="-0.788899026811122894287109375">
        <ele>1140.800048828125</ele>
        <time>2020-08-20T08:58:00.000Z</time>
      </trkpt>
      <trkpt lat="42.76061640121042728424072265625" lon="-0.78893247060477733612060546875">
        <ele>1141.199951171875</ele>
        <time>2020-08-20T08:58:05.000Z</time>
      </trkpt>
      <trkpt lat="42.76061656884849071502685546875" lon="-0.78895795159041881561279296875">
        <ele>1141.4000244140625</ele>
        <time>2020-08-20T08:58:08.000Z</time>
      </trkpt>
      <trkpt lat="42.76060634292662143707275390625" lon="-0.789038836956024169921875">
        <ele>1142.4000244140625</ele>
        <time>2020-08-20T08:58:17.000Z</time>
      </trkpt>
      <trkpt lat="42.76060198433697223663330078125" lon="-0.78905635513365268707275390625">
        <ele>1142.4000244140625</ele>
        <time>2020-08-20T08:58:19.000Z</time>
      </trkpt>
      <trkpt lat="42.7605526149272918701171875" lon="-0.7891583628952503204345703125">
        <ele>1142.199951171875</ele>
        <time>2020-08-20T08:58:28.000Z</time>
      </trkpt>
      <trkpt lat="42.76052470318973064422607421875" lon="-0.7892666570842266082763671875">
        <ele>1142.199951171875</ele>
        <time>2020-08-20T08:58:36.000Z</time>
      </trkpt>
      <trkpt lat="42.760515399277210235595703125" lon="-0.78937746584415435791015625">
        <ele>1142</ele>
        <time>2020-08-20T08:58:44.000Z</time>
      </trkpt>
      <trkpt lat="42.7605199255049228668212890625" lon="-0.78943035565316677093505859375">
        <ele>1142</ele>
        <time>2020-08-20T08:58:48.000Z</time>
      </trkpt>
      <trkpt lat="42.760524451732635498046875" lon="-0.7894694991409778594970703125">
        <ele>1142</ele>
        <time>2020-08-20T08:58:51.000Z</time>
      </trkpt>
      <trkpt lat="42.760518081486225128173828125" lon="-0.78951501287519931793212890625">
        <ele>1142.5999755859375</ele>
        <time>2020-08-20T08:58:59.000Z</time>
      </trkpt>
      <trkpt lat="42.76052218861877918243408203125" lon="-0.78957854770123958587646484375">
        <ele>1143</ele>
        <time>2020-08-20T08:59:06.000Z</time>
      </trkpt>
      <trkpt lat="42.76051548309624195098876953125" lon="-0.789590366184711456298828125">
        <ele>1143</ele>
        <time>2020-08-20T08:59:07.000Z</time>
      </trkpt>
      <trkpt lat="42.760490588843822479248046875" lon="-0.789634287357330322265625">
        <ele>1142.800048828125</ele>
        <time>2020-08-20T08:59:11.000Z</time>
      </trkpt>
      <trkpt lat="42.76044658385217189788818359375" lon="-0.7897182740271091461181640625">
        <ele>1142.4000244140625</ele>
        <time>2020-08-20T08:59:19.000Z</time>
      </trkpt>
      <trkpt lat="42.76043015532195568084716796875" lon="-0.7897762767970561981201171875">
        <ele>1143.199951171875</ele>
        <time>2020-08-20T08:59:26.000Z</time>
      </trkpt>
      <trkpt lat="42.760427556931972503662109375" lon="-0.78977703116834163665771484375">
        <ele>1143.4000244140625</ele>
        <time>2020-08-20T08:59:33.000Z</time>
      </trkpt>
      <trkpt lat="42.760427556931972503662109375" lon="-0.789778120815753936767578125">
        <ele>1143.4000244140625</ele>
        <time>2020-08-20T08:59:46.000Z</time>
      </trkpt>
      <trkpt lat="42.760427556931972503662109375" lon="-0.7897782884538173675537109375">
        <ele>1143.5999755859375</ele>
        <time>2020-08-20T08:59:53.000Z</time>
      </trkpt>
      <trkpt lat="42.7604082785546779632568359375" lon="-0.78981977887451648712158203125">
        <ele>1143.800048828125</ele>
        <time>2020-08-20T09:00:06.000Z</time>
      </trkpt>
      <trkpt lat="42.76039260439574718475341796875" lon="-0.789869315922260284423828125">
        <ele>1144.4000244140625</ele>
        <time>2020-08-20T09:00:11.000Z</time>
      </trkpt>
      <trkpt lat="42.76037634350359439849853515625" lon="-0.78991399146616458892822265625">
        <ele>1144.800048828125</ele>
        <time>2020-08-20T09:00:16.000Z</time>
      </trkpt>
      <trkpt lat="42.76034348644316196441650390625" lon="-0.7899704016745090484619140625">
        <ele>1145.4000244140625</ele>
        <time>2020-08-20T09:00:23.000Z</time>
      </trkpt>
      <trkpt lat="42.7603378705680370330810546875" lon="-0.78998741693794727325439453125">
        <ele>1145.5999755859375</ele>
        <time>2020-08-20T09:00:25.000Z</time>
      </trkpt>
      <trkpt lat="42.76033409871160984039306640625" lon="-0.7900391332805156707763671875">
        <ele>1146.4000244140625</ele>
        <time>2020-08-20T09:00:32.000Z</time>
      </trkpt>
      <trkpt lat="42.76033870875835418701171875" lon="-0.79007307998836040496826171875">
        <ele>1146.800048828125</ele>
        <time>2020-08-20T09:00:44.000Z</time>
      </trkpt>
      <trkpt lat="42.760335691273212432861328125" lon="-0.790156312286853790283203125">
        <ele>1147.199951171875</ele>
        <time>2020-08-20T09:00:52.000Z</time>
      </trkpt>
      <trkpt lat="42.76033359579741954803466796875" lon="-0.790178775787353515625">
        <ele>1147.4000244140625</ele>
        <time>2020-08-20T09:00:54.000Z</time>
      </trkpt>
      <trkpt lat="42.76034030131995677947998046875" lon="-0.79023552127182483673095703125">
        <ele>1147.4000244140625</ele>
        <time>2020-08-20T09:00:59.000Z</time>
      </trkpt>
      <trkpt lat="42.760342061519622802734375" lon="-0.79024809412658214569091796875">
        <ele>1147.5999755859375</ele>
        <time>2020-08-20T09:01:00.000Z</time>
      </trkpt>
      <trkpt lat="42.7603529579937458038330078125" lon="-0.79029972665011882781982421875">
        <ele>1147.5999755859375</ele>
        <time>2020-08-20T09:01:06.000Z</time>
      </trkpt>
      <trkpt lat="42.76039101183414459228515625" lon="-0.79038941301405429840087890625">
        <ele>1147.199951171875</ele>
        <time>2020-08-20T09:01:14.000Z</time>
      </trkpt>
      <trkpt lat="42.760410793125629425048828125" lon="-0.7904240302741527557373046875">
        <ele>1146.5999755859375</ele>
        <time>2020-08-20T09:01:17.000Z</time>
      </trkpt>
      <trkpt lat="42.7604280598461627960205078125" lon="-0.79043735750019550323486328125">
        <ele>1146.4000244140625</ele>
        <time>2020-08-20T09:01:19.000Z</time>
      </trkpt>
      <trkpt lat="42.76044909842312335968017578125" lon="-0.7904468290507793426513671875">
        <ele>1146.199951171875</ele>
        <time>2020-08-20T09:01:21.000Z</time>
      </trkpt>
      <trkpt lat="42.76047122664749622344970703125" lon="-0.79045009799301624298095703125">
        <ele>1146</ele>
        <time>2020-08-20T09:01:23.000Z</time>
      </trkpt>
      <trkpt lat="42.76053291745483875274658203125" lon="-0.79046904109418392181396484375">
        <ele>1145.5999755859375</ele>
        <time>2020-08-20T09:01:30.000Z</time>
      </trkpt>
      <trkpt lat="42.7605660259723663330078125" lon="-0.7904709689319133758544921875">
        <ele>1145.199951171875</ele>
        <time>2020-08-20T09:01:34.000Z</time>
      </trkpt>
      <trkpt lat="42.7605977095663547515869140625" lon="-0.7904702983796596527099609375">
        <ele>1145</ele>
        <time>2020-08-20T09:01:37.000Z</time>
      </trkpt>
      <trkpt lat="42.7606577239930629730224609375" lon="-0.7904773391783237457275390625">
        <ele>1145</ele>
        <time>2020-08-20T09:01:45.000Z</time>
      </trkpt>
      <trkpt lat="42.7606627531349658966064453125" lon="-0.7904790155589580535888671875">
        <ele>1144.800048828125</ele>
        <time>2020-08-20T09:01:54.000Z</time>
      </trkpt>
      <trkpt lat="42.76067373342812061309814453125" lon="-0.79048278741538524627685546875">
        <ele>1144.5999755859375</ele>
        <time>2020-08-20T09:01:56.000Z</time>
      </trkpt>
      <trkpt lat="42.76068471372127532958984375" lon="-0.79048496671020984649658203125">
        <ele>1144.4000244140625</ele>
        <time>2020-08-20T09:01:58.000Z</time>
      </trkpt>
      <trkpt lat="42.76072955690324306488037109375" lon="-0.79048387706279754638671875">
        <ele>1144.199951171875</ele>
        <time>2020-08-20T09:02:03.000Z</time>
      </trkpt>
      <trkpt lat="42.76076761074364185333251953125" lon="-0.7904813624918460845947265625">
        <ele>1143.5999755859375</ele>
        <time>2020-08-20T09:02:09.000Z</time>
      </trkpt>
      <trkpt lat="42.76078521274030208587646484375" lon="-0.79048111103475093841552734375">
        <ele>1143.4000244140625</ele>
        <time>2020-08-20T09:02:11.000Z</time>
      </trkpt>
      <trkpt lat="42.7608377672731876373291015625" lon="-0.790492594242095947265625">
        <ele>1143</ele>
        <time>2020-08-20T09:02:17.000Z</time>
      </trkpt>
      <trkpt lat="42.7608850412070751190185546875" lon="-0.79051413573324680328369140625">
        <ele>1142.4000244140625</ele>
        <time>2020-08-20T09:02:23.000Z</time>
      </trkpt>
      <trkpt lat="42.76089350692927837371826171875" lon="-0.7905180752277374267578125">
        <ele>1142.4000244140625</ele>
        <time>2020-08-20T09:02:24.000Z</time>
      </trkpt>
      <trkpt lat="42.76090867817401885986328125" lon="-0.79052402637898921966552734375">
        <ele>1142</ele>
        <time>2020-08-20T09:02:26.000Z</time>
      </trkpt>
      <trkpt lat="42.7609581314027309417724609375" lon="-0.7905343361198902130126953125">
        <ele>1141.4000244140625</ele>
        <time>2020-08-20T09:02:32.000Z</time>
      </trkpt>
      <trkpt lat="42.76100012473762035369873046875" lon="-0.79053006134927272796630859375">
        <ele>1141</ele>
        <time>2020-08-20T09:02:39.000Z</time>
      </trkpt>
      <trkpt lat="42.761035747826099395751953125" lon="-0.7905370183289051055908203125">
        <ele>1141</ele>
        <time>2020-08-20T09:02:42.000Z</time>
      </trkpt>
      <trkpt lat="42.76109299622476100921630859375" lon="-0.7905524410307407379150390625">
        <ele>1140.5999755859375</ele>
        <time>2020-08-20T09:02:48.000Z</time>
      </trkpt>
      <trkpt lat="42.76115284301340579986572265625" lon="-0.79057632945477962493896484375">
        <ele>1140.4000244140625</ele>
        <time>2020-08-20T09:02:56.000Z</time>
      </trkpt>
      <trkpt lat="42.76117346249520778656005859375" lon="-0.7905797660350799560546875">
        <ele>1140.4000244140625</ele>
        <time>2020-08-20T09:02:58.000Z</time>
      </trkpt>
      <trkpt lat="42.7612206526100635528564453125" lon="-0.79059376381337642669677734375">
        <ele>1140</ele>
        <time>2020-08-20T09:03:02.000Z</time>
      </trkpt>
      <trkpt lat="42.7612303756177425384521484375" lon="-0.790591500699520111083984375">
        <ele>1140</ele>
        <time>2020-08-20T09:03:03.000Z</time>
      </trkpt>
      <trkpt lat="42.7612917311489582061767578125" lon="-0.7905889861285686492919921875">
        <ele>1139.800048828125</ele>
        <time>2020-08-20T09:03:10.000Z</time>
      </trkpt>
      <trkpt lat="42.7613792382180690765380859375" lon="-0.79060633666813373565673828125">
        <ele>1139.5999755859375</ele>
        <time>2020-08-20T09:03:19.000Z</time>
      </trkpt>
      <trkpt lat="42.76141963899135589599609375" lon="-0.7906067557632923126220703125">
        <ele>1139.5999755859375</ele>
        <time>2020-08-20T09:03:26.000Z</time>
      </trkpt>
      <trkpt lat="42.7614472992718219757080078125" lon="-0.79061538912355899810791015625">
        <ele>1139</ele>
        <time>2020-08-20T09:03:32.000Z</time>
      </trkpt>
      <trkpt lat="42.7614498138427734375" lon="-0.79061924479901790618896484375">
        <ele>1138.800048828125</ele>
        <time>2020-08-20T09:03:33.000Z</time>
      </trkpt>
      <trkpt lat="42.7614828385412693023681640625" lon="-0.79065159894526004791259765625">
        <ele>1137.800048828125</ele>
        <time>2020-08-20T09:03:38.000Z</time>
      </trkpt>
      <trkpt lat="42.761492393910884857177734375" lon="-0.79065813682973384857177734375">
        <ele>1137.5999755859375</ele>
        <time>2020-08-20T09:03:39.000Z</time>
      </trkpt>
      <trkpt lat="42.7615411765873432159423828125" lon="-0.79065059311687946319580078125">
        <ele>1137.199951171875</ele>
        <time>2020-08-20T09:03:46.000Z</time>
      </trkpt>
      <trkpt lat="42.76155064813792705535888671875" lon="-0.79065009020268917083740234375">
        <ele>1136.800048828125</ele>
        <time>2020-08-20T09:03:48.000Z</time>
      </trkpt>
      <trkpt lat="42.76158702559769153594970703125" lon="-0.79066450707614421844482421875">
        <ele>1136.199951171875</ele>
        <time>2020-08-20T09:03:53.000Z</time>
      </trkpt>
      <trkpt lat="42.761612422764301300048828125" lon="-0.79067523591220378875732421875">
        <ele>1135.5999755859375</ele>
        <time>2020-08-20T09:03:56.000Z</time>
      </trkpt>
      <trkpt lat="42.7616377361118793487548828125" lon="-0.7906852103769779205322265625">
        <ele>1135.199951171875</ele>
        <time>2020-08-20T09:04:00.000Z</time>
      </trkpt>
      <trkpt lat="42.761676125228404998779296875" lon="-0.7906878925859928131103515625">
        <ele>1134.5999755859375</ele>
        <time>2020-08-20T09:04:07.000Z</time>
      </trkpt>
      <trkpt lat="42.761680148541927337646484375" lon="-0.79069518484175205230712890625">
        <ele>1134.4000244140625</ele>
        <time>2020-08-20T09:04:08.000Z</time>
      </trkpt>
      <trkpt lat="42.7617061324417591094970703125" lon="-0.79071178101003170013427734375">
        <ele>1133.5999755859375</ele>
        <time>2020-08-20T09:04:11.000Z</time>
      </trkpt>
      <trkpt lat="42.76174812577664852142333984375" lon="-0.7907298021018505096435546875">
        <ele>1133.199951171875</ele>
        <time>2020-08-20T09:04:16.000Z</time>
      </trkpt>
      <trkpt lat="42.76181383989751338958740234375" lon="-0.790713541209697723388671875">
        <ele>1132.5999755859375</ele>
        <time>2020-08-20T09:04:23.000Z</time>
      </trkpt>
      <trkpt lat="42.76182171888649463653564453125" lon="-0.79070893116295337677001953125">
        <ele>1132.4000244140625</ele>
        <time>2020-08-20T09:04:24.000Z</time>
      </trkpt>
      <trkpt lat="42.76185692287981510162353515625" lon="-0.79068328253924846649169921875">
        <ele>1131.5999755859375</ele>
        <time>2020-08-20T09:04:30.000Z</time>
      </trkpt>
      <trkpt lat="42.7618627063930034637451171875" lon="-0.79067967832088470458984375">
        <ele>1131.4000244140625</ele>
        <time>2020-08-20T09:04:31.000Z</time>
      </trkpt>
      <trkpt lat="42.76186798699200153350830078125" lon="-0.79067104496061801910400390625">
        <ele>1130.5999755859375</ele>
        <time>2020-08-20T09:04:38.000Z</time>
      </trkpt>
      <trkpt lat="42.76187251321971416473388671875" lon="-0.7906724698841571807861328125">
        <ele>1130.800048828125</ele>
        <time>2020-08-20T09:04:53.000Z</time>
      </trkpt>
      <trkpt lat="42.76187351904809474945068359375" lon="-0.79067255370318889617919921875">
        <ele>1130.800048828125</ele>
        <time>2020-08-20T09:04:56.000Z</time>
      </trkpt>
      <trkpt lat="42.76188810355961322784423828125" lon="-0.79067875631153583526611328125">
        <ele>1130.800048828125</ele>
        <time>2020-08-20T09:05:06.000Z</time>
      </trkpt>
      <trkpt lat="42.761892378330230712890625" lon="-0.79067640937864780426025390625">
        <ele>1130.5999755859375</ele>
        <time>2020-08-20T09:05:13.000Z</time>
      </trkpt>
      <trkpt lat="42.7618975751101970672607421875" lon="-0.79067355953156948089599609375">
        <ele>1130.5999755859375</ele>
        <time>2020-08-20T09:05:15.000Z</time>
      </trkpt>
      <trkpt lat="42.76193889789283275604248046875" lon="-0.7906763255596160888671875">
        <ele>1130.5999755859375</ele>
        <time>2020-08-20T09:05:20.000Z</time>
      </trkpt>
      <trkpt lat="42.7619931288063526153564453125" lon="-0.79067640937864780426025390625">
        <ele>1129.800048828125</ele>
        <time>2020-08-20T09:05:27.000Z</time>
      </trkpt>
      <trkpt lat="42.76201718486845493316650390625" lon="-0.7906763255596160888671875">
        <ele>1129.5999755859375</ele>
        <time>2020-08-20T09:05:34.000Z</time>
      </trkpt>
      <trkpt lat="42.7620229683816432952880859375" lon="-0.79067305661737918853759765625">
        <ele>1129.4000244140625</ele>
        <time>2020-08-20T09:05:35.000Z</time>
      </trkpt>
      <trkpt lat="42.7620813064277172088623046875" lon="-0.79063835553824901580810546875">
        <ele>1129</ele>
        <time>2020-08-20T09:05:41.000Z</time>
      </trkpt>
      <trkpt lat="42.76212363503873348236083984375" lon="-0.79062511213123798370361328125">
        <ele>1128.4000244140625</ele>
        <time>2020-08-20T09:05:45.000Z</time>
      </trkpt>
      <trkpt lat="42.76216126978397369384765625" lon="-0.79061907716095447540283203125">
        <ele>1127.5999755859375</ele>
        <time>2020-08-20T09:05:49.000Z</time>
      </trkpt>
      <trkpt lat="42.762175016105175018310546875" lon="-0.79062343575060367584228515625">
        <ele>1127.199951171875</ele>
        <time>2020-08-20T09:05:51.000Z</time>
      </trkpt>
      <trkpt lat="42.76223444379866123199462890625" lon="-0.79061262309551239013671875">
        <ele>1127</ele>
        <time>2020-08-20T09:05:57.000Z</time>
      </trkpt>
      <trkpt lat="42.7622556500136852264404296875" lon="-0.7906231842935085296630859375">
        <ele>1126.199951171875</ele>
        <time>2020-08-20T09:06:01.000Z</time>
      </trkpt>
      <trkpt lat="42.76226160116493701934814453125" lon="-0.79063651151955127716064453125">
        <ele>1126</ele>
        <time>2020-08-20T09:06:03.000Z</time>
      </trkpt>
      <trkpt lat="42.76230275630950927734375" lon="-0.7906895689666271209716796875">
        <ele>1126.5999755859375</ele>
        <time>2020-08-20T09:06:12.000Z</time>
      </trkpt>
      <trkpt lat="42.76231491006910800933837890625" lon="-0.7907036505639553070068359375">
        <ele>1127.5999755859375</ele>
        <time>2020-08-20T09:06:17.000Z</time>
      </trkpt>
      <trkpt lat="42.762315161526203155517578125" lon="-0.7907100208103656768798828125">
        <ele>1127.5999755859375</ele>
        <time>2020-08-20T09:06:18.000Z</time>
      </trkpt>
      <trkpt lat="42.7623250521719455718994140625" lon="-0.79073726199567317962646484375">
        <ele>1128.199951171875</ele>
        <time>2020-08-20T09:06:23.000Z</time>
      </trkpt>
      <trkpt lat="42.76232681237161159515380859375" lon="-0.79073424451053142547607421875">
        <ele>1128.5999755859375</ele>
        <time>2020-08-20T09:06:26.000Z</time>
      </trkpt>
      <trkpt lat="42.762334607541561126708984375" lon="-0.790757127106189727783203125">
        <ele>1129.199951171875</ele>
        <time>2020-08-20T09:06:31.000Z</time>
      </trkpt>
      <trkpt lat="42.7623394690454006195068359375" lon="-0.79080213792622089385986328125">
        <ele>1129.5999755859375</ele>
        <time>2020-08-20T09:06:37.000Z</time>
      </trkpt>
      <trkpt lat="42.7623538859188556671142578125" lon="-0.79081521369516849517822265625">
        <ele>1130</ele>
        <time>2020-08-20T09:06:40.000Z</time>
      </trkpt>
      <trkpt lat="42.76235212571918964385986328125" lon="-0.7908481545746326446533203125">
        <ele>1130.5999755859375</ele>
        <time>2020-08-20T09:06:44.000Z</time>
      </trkpt>
      <trkpt lat="42.76234743185341358184814453125" lon="-0.7908793352544307708740234375">
        <ele>1130.800048828125</ele>
        <time>2020-08-20T09:06:47.000Z</time>
      </trkpt>
      <trkpt lat="42.762337960302829742431640625" lon="-0.79095066525042057037353515625">
        <ele>1131.4000244140625</ele>
        <time>2020-08-20T09:06:53.000Z</time>
      </trkpt>
      <trkpt lat="42.76233016513288021087646484375" lon="-0.79099173657596111297607421875">
        <ele>1131.800048828125</ele>
        <time>2020-08-20T09:06:57.000Z</time>
      </trkpt>
      <trkpt lat="42.7623282372951507568359375" lon="-0.79102325253188610076904296875">
        <ele>1132.199951171875</ele>
        <time>2020-08-20T09:07:00.000Z</time>
      </trkpt>
      <trkpt lat="42.76232664473354816436767578125" lon="-0.7910717837512493133544921875">
        <ele>1133</ele>
        <time>2020-08-20T09:07:07.000Z</time>
      </trkpt>
      <trkpt lat="42.76232681237161159515380859375" lon="-0.79107354395091533660888671875">
        <ele>1133</ele>
        <time>2020-08-20T09:07:08.000Z</time>
      </trkpt>
      <trkpt lat="42.76232815347611904144287109375" lon="-0.79107798635959625244140625">
        <ele>1132.800048828125</ele>
        <time>2020-08-20T09:07:26.000Z</time>
      </trkpt>
      <trkpt lat="42.7623263932764530181884765625" lon="-0.79113758169114589691162109375">
        <ele>1132.5999755859375</ele>
        <time>2020-08-20T09:07:36.000Z</time>
      </trkpt>
      <trkpt lat="42.76230275630950927734375" lon="-0.79122827388346195220947265625">
        <ele>1134</ele>
        <time>2020-08-20T09:07:45.000Z</time>
      </trkpt>
      <trkpt lat="42.76229496113955974578857421875" lon="-0.79124704934656620025634765625">
        <ele>1134</ele>
        <time>2020-08-20T09:07:47.000Z</time>
      </trkpt>
      <trkpt lat="42.7622767724096775054931640625" lon="-0.79131527803838253021240234375">
        <ele>1134.4000244140625</ele>
        <time>2020-08-20T09:07:53.000Z</time>
      </trkpt>
      <trkpt lat="42.7622710727155208587646484375" lon="-0.7913963310420513153076171875">
        <ele>1135.199951171875</ele>
        <time>2020-08-20T09:08:01.000Z</time>
      </trkpt>
      <trkpt lat="42.7622710727155208587646484375" lon="-0.79139524139463901519775390625">
        <ele>1135.4000244140625</ele>
        <time>2020-08-20T09:08:02.000Z</time>
      </trkpt>
      <trkpt lat="42.76228129863739013671875" lon="-0.79146162606775760650634765625">
        <ele>1135.199951171875</ele>
        <time>2020-08-20T09:08:09.000Z</time>
      </trkpt>
      <trkpt lat="42.762278616428375244140625" lon="-0.79155533574521541595458984375">
        <ele>1136.199951171875</ele>
        <time>2020-08-20T09:08:18.000Z</time>
      </trkpt>
      <trkpt lat="42.7622787840664386749267578125" lon="-0.79156556166708469390869140625">
        <ele>1136.199951171875</ele>
        <time>2020-08-20T09:08:19.000Z</time>
      </trkpt>
      <trkpt lat="42.76227258145809173583984375" lon="-0.79161736182868480682373046875">
        <ele>1137.5999755859375</ele>
        <time>2020-08-20T09:08:26.000Z</time>
      </trkpt>
      <trkpt lat="42.7622707374393939971923828125" lon="-0.79163161106407642364501953125">
        <ele>1137.800048828125</ele>
        <time>2020-08-20T09:08:28.000Z</time>
      </trkpt>
      <trkpt lat="42.7622740902006626129150390625" lon="-0.79167838208377361297607421875">
        <ele>1138.4000244140625</ele>
        <time>2020-08-20T09:08:34.000Z</time>
      </trkpt>
      <trkpt lat="42.76227115653455257415771484375" lon="-0.79170000739395618438720703125">
        <ele>1138.5999755859375</ele>
        <time>2020-08-20T09:08:36.000Z</time>
      </trkpt>
      <trkpt lat="42.7622486092150211334228515625" lon="-0.79176454804837703704833984375">
        <ele>1139.5999755859375</ele>
        <time>2020-08-20T09:08:44.000Z</time>
      </trkpt>
      <trkpt lat="42.76221432723104953765869140625" lon="-0.79185524024069309234619140625">
        <ele>1140.800048828125</ele>
        <time>2020-08-20T09:08:53.000Z</time>
      </trkpt>
      <trkpt lat="42.7622050233185291290283203125" lon="-0.79194224439561367034912109375">
        <ele>1142</ele>
        <time>2020-08-20T09:09:01.000Z</time>
      </trkpt>
      <trkpt lat="42.7621805481612682342529296875" lon="-0.79200896434485912322998046875">
        <ele>1142.4000244140625</ele>
        <time>2020-08-20T09:09:09.000Z</time>
      </trkpt>
      <trkpt lat="42.76216872967779636383056640625" lon="-0.792076773941516876220703125">
        <ele>1143</ele>
        <time>2020-08-20T09:09:15.000Z</time>
      </trkpt>
      <trkpt lat="42.7621711604297161102294921875" lon="-0.79209647141396999359130859375">
        <ele>1143.199951171875</ele>
        <time>2020-08-20T09:09:17.000Z</time>
      </trkpt>
      <trkpt lat="42.76217845268547534942626953125" lon="-0.79216159880161285400390625">
        <ele>1144</ele>
        <time>2020-08-20T09:09:24.000Z</time>
      </trkpt>
      <trkpt lat="42.76217845268547534942626953125" lon="-0.79216805286705493927001953125">
        <ele>1144</ele>
        <time>2020-08-20T09:09:25.000Z</time>
      </trkpt>
      <trkpt lat="42.7621768601238727569580078125" lon="-0.7922066934406757354736328125">
        <ele>1144.5999755859375</ele>
        <time>2020-08-20T09:09:32.000Z</time>
      </trkpt>
      <trkpt lat="42.7621423266828060150146484375" lon="-0.792255140841007232666015625">
        <ele>1144.800048828125</ele>
        <time>2020-08-20T09:09:38.000Z</time>
      </trkpt>
      <trkpt lat="42.7621295861899852752685546875" lon="-0.7922781072556972503662109375">
        <ele>1145</ele>
        <time>2020-08-20T09:09:42.000Z</time>
      </trkpt>
      <trkpt lat="42.76212765835225582122802734375" lon="-0.79228472895920276641845703125">
        <ele>1145.199951171875</ele>
        <time>2020-08-20T09:09:45.000Z</time>
      </trkpt>
      <trkpt lat="42.7620873413980007171630859375" lon="-0.792351029813289642333984375">
        <ele>1145.800048828125</ele>
        <time>2020-08-20T09:09:54.000Z</time>
      </trkpt>
      <trkpt lat="42.7620749361813068389892578125" lon="-0.792363099753856658935546875">
        <ele>1146</ele>
        <time>2020-08-20T09:09:56.000Z</time>
      </trkpt>
      <trkpt lat="42.76206596754491329193115234375" lon="-0.792370475828647613525390625">
        <ele>1146.199951171875</ele>
        <time>2020-08-20T09:10:00.000Z</time>
      </trkpt>
      <trkpt lat="42.76203327812254428863525390625" lon="-0.79241950996220111846923828125">
        <ele>1146.4000244140625</ele>
        <time>2020-08-20T09:10:08.000Z</time>
      </trkpt>
      <trkpt lat="42.76200025342404842376708984375" lon="-0.79246225766837596893310546875">
        <ele>1147</ele>
        <time>2020-08-20T09:10:15.000Z</time>
      </trkpt>
      <trkpt lat="42.7619897760450839996337890625" lon="-0.79247407615184783935546875">
        <ele>1147.4000244140625</ele>
        <time>2020-08-20T09:10:17.000Z</time>
      </trkpt>
      <trkpt lat="42.761965803802013397216796875" lon="-0.79252679832279682159423828125">
        <ele>1148</ele>
        <time>2020-08-20T09:10:24.000Z</time>
      </trkpt>
      <trkpt lat="42.76193998754024505615234375" lon="-0.79258111305534839630126953125">
        <ele>1149.199951171875</ele>
        <time>2020-08-20T09:10:31.000Z</time>
      </trkpt>
      <trkpt lat="42.76192791759967803955078125" lon="-0.792597122490406036376953125">
        <ele>1149.4000244140625</ele>
        <time>2020-08-20T09:10:33.000Z</time>
      </trkpt>
      <trkpt lat="42.76189279742538928985595703125" lon="-0.792663507163524627685546875">
        <ele>1150.4000244140625</ele>
        <time>2020-08-20T09:10:41.000Z</time>
      </trkpt>
      <trkpt lat="42.76188776828348636627197265625" lon="-0.792670547962188720703125">
        <ele>1150.4000244140625</ele>
        <time>2020-08-20T09:10:42.000Z</time>
      </trkpt>
      <trkpt lat="42.76187620125710964202880859375" lon="-0.7926915027201175689697265625">
        <ele>1150.800048828125</ele>
        <time>2020-08-20T09:10:45.000Z</time>
      </trkpt>
      <trkpt lat="42.76186211965978145599365234375" lon="-0.79272259958088397979736328125">
        <ele>1151.4000244140625</ele>
        <time>2020-08-20T09:10:49.000Z</time>
      </trkpt>
      <trkpt lat="42.76185407303273677825927734375" lon="-0.79273584298789501190185546875">
        <ele>1151.5999755859375</ele>
        <time>2020-08-20T09:10:51.000Z</time>
      </trkpt>
      <trkpt lat="42.76182465255260467529296875" lon="-0.79282519407570362091064453125">
        <ele>1152.199951171875</ele>
        <time>2020-08-20T09:11:00.000Z</time>
      </trkpt>
      <trkpt lat="42.76181400753557682037353515625" lon="-0.79284262843430042266845703125">
        <ele>1152.4000244140625</ele>
        <time>2020-08-20T09:11:02.000Z</time>
      </trkpt>
      <trkpt lat="42.76177327148616313934326171875" lon="-0.792923010885715484619140625">
        <ele>1153</ele>
        <time>2020-08-20T09:11:10.000Z</time>
      </trkpt>
      <trkpt lat="42.7617581002414226531982421875" lon="-0.7930177263915538787841796875">
        <ele>1153.5999755859375</ele>
        <time>2020-08-20T09:11:18.000Z</time>
      </trkpt>
      <trkpt lat="42.76175684295594692230224609375" lon="-0.79302920959889888763427734375">
        <ele>1153.5999755859375</ele>
        <time>2020-08-20T09:11:19.000Z</time>
      </trkpt>
      <trkpt lat="42.76175650767982006072998046875" lon="-0.79312157817184925079345703125">
        <ele>1154</ele>
        <time>2020-08-20T09:11:27.000Z</time>
      </trkpt>
      <trkpt lat="42.76175466366112232208251953125" lon="-0.79313163645565509796142578125">
        <ele>1154</ele>
        <time>2020-08-20T09:11:28.000Z</time>
      </trkpt>
      <trkpt lat="42.76174594648182392120361328125" lon="-0.7932564429938793182373046875">
        <ele>1153.800048828125</ele>
        <time>2020-08-20T09:11:37.000Z</time>
      </trkpt>
      <trkpt lat="42.76176421903073787689208984375" lon="-0.79335392452776432037353515625">
        <ele>1153.800048828125</ele>
        <time>2020-08-20T09:11:46.000Z</time>
      </trkpt>
      <trkpt lat="42.761765979230403900146484375" lon="-0.7933617196977138519287109375">
        <ele>1153.800048828125</ele>
        <time>2020-08-20T09:11:53.000Z</time>
      </trkpt>
      <trkpt lat="42.761774696409702301025390625" lon="-0.793385021388530731201171875">
        <ele>1153.800048828125</ele>
        <time>2020-08-20T09:12:03.000Z</time>
      </trkpt>
      <trkpt lat="42.76180453598499298095703125" lon="-0.7934891246259212493896484375">
        <ele>1153.800048828125</ele>
        <time>2020-08-20T09:12:11.000Z</time>
      </trkpt>
      <trkpt lat="42.76184284128248691558837890625" lon="-0.79358316957950592041015625">
        <ele>1154.199951171875</ele>
        <time>2020-08-20T09:12:20.000Z</time>
      </trkpt>
      <trkpt lat="42.761847786605358123779296875" lon="-0.79358895309269428253173828125">
        <ele>1154.4000244140625</ele>
        <time>2020-08-20T09:12:21.000Z</time>
      </trkpt>
      <trkpt lat="42.761853151023387908935546875" lon="-0.7935957424342632293701171875">
        <ele>1154.4000244140625</ele>
        <time>2020-08-20T09:12:22.000Z</time>
      </trkpt>
      <trkpt lat="42.76188877411186695098876953125" lon="-0.793663300573825836181640625">
        <ele>1155</ele>
        <time>2020-08-20T09:12:31.000Z</time>
      </trkpt>
      <trkpt lat="42.76189438998699188232421875" lon="-0.79368115402758121490478515625">
        <ele>1155.5999755859375</ele>
        <time>2020-08-20T09:12:33.000Z</time>
      </trkpt>
      <trkpt lat="42.76191006414592266082763671875" lon="-0.79376027919352054595947265625">
        <ele>1156.199951171875</ele>
        <time>2020-08-20T09:12:40.000Z</time>
      </trkpt>
      <trkpt lat="42.7618992514908313751220703125" lon="-0.7938066311180591583251953125">
        <ele>1156.5999755859375</ele>
        <time>2020-08-20T09:12:44.000Z</time>
      </trkpt>
      <trkpt lat="42.761892378330230712890625" lon="-0.793845690786838531494140625">
        <ele>1156.5999755859375</ele>
        <time>2020-08-20T09:12:47.000Z</time>
      </trkpt>
      <trkpt lat="42.76190956123173236846923828125" lon="-0.7939162664115428924560546875">
        <ele>1157</ele>
        <time>2020-08-20T09:12:54.000Z</time>
      </trkpt>
      <trkpt lat="42.76190939359366893768310546875" lon="-0.79392758198082447052001953125">
        <ele>1157</ele>
        <time>2020-08-20T09:12:55.000Z</time>
      </trkpt>
      <trkpt lat="42.76190905831754207611083984375" lon="-0.79394820146262645721435546875">
        <ele>1157.199951171875</ele>
        <time>2020-08-20T09:12:57.000Z</time>
      </trkpt>
      <trkpt lat="42.76190419681370258331298828125" lon="-0.79396999441087245941162109375">
        <ele>1157.199951171875</ele>
        <time>2020-08-20T09:12:59.000Z</time>
      </trkpt>
      <trkpt lat="42.7618855051696300506591796875" lon="-0.794058926403522491455078125">
        <ele>1157.4000244140625</ele>
        <time>2020-08-20T09:13:06.000Z</time>
      </trkpt>
      <trkpt lat="42.76188273914158344268798828125" lon="-0.79408340156078338623046875">
        <ele>1157.800048828125</ele>
        <time>2020-08-20T09:13:08.000Z</time>
      </trkpt>
      <trkpt lat="42.761886008083820343017578125" lon="-0.7941405661404132843017578125">
        <ele>1157.5999755859375</ele>
        <time>2020-08-20T09:13:13.000Z</time>
      </trkpt>
      <trkpt lat="42.761884666979312896728515625" lon="-0.7941600121557712554931640625">
        <ele>1157.800048828125</ele>
        <time>2020-08-20T09:13:15.000Z</time>
      </trkpt>
      <trkpt lat="42.76187553070485591888427734375" lon="-0.79420384950935840606689453125">
        <ele>1158.199951171875</ele>
        <time>2020-08-20T09:13:20.000Z</time>
      </trkpt>
      <trkpt lat="42.76187184266746044158935546875" lon="-0.794239975512027740478515625">
        <ele>1158.4000244140625</ele>
        <time>2020-08-20T09:13:23.000Z</time>
      </trkpt>
      <trkpt lat="42.76186798699200153350830078125" lon="-0.79427040182054042816162109375">
        <ele>1158.800048828125</ele>
        <time>2020-08-20T09:13:26.000Z</time>
      </trkpt>
      <trkpt lat="42.7618412487208843231201171875" lon="-0.794328153133392333984375">
        <ele>1159.4000244140625</ele>
        <time>2020-08-20T09:13:31.000Z</time>
      </trkpt>
      <trkpt lat="42.76181702502071857452392578125" lon="-0.794368721544742584228515625">
        <ele>1159.4000244140625</ele>
        <time>2020-08-20T09:13:36.000Z</time>
      </trkpt>
      <trkpt lat="42.761804871261119842529296875" lon="-0.7943933643400669097900390625">
        <ele>1159.800048828125</ele>
        <time>2020-08-20T09:13:39.000Z</time>
      </trkpt>
      <trkpt lat="42.761772684752941131591796875" lon="-0.79447139985859394073486328125">
        <ele>1160.4000244140625</ele>
        <time>2020-08-20T09:13:47.000Z</time>
      </trkpt>
      <trkpt lat="42.76177025400102138519287109375" lon="-0.794533677399158477783203125">
        <ele>1160.800048828125</ele>
        <time>2020-08-20T09:13:52.000Z</time>
      </trkpt>
      <trkpt lat="42.7617802284657955169677734375" lon="-0.79455521889030933380126953125">
        <ele>1160.800048828125</ele>
        <time>2020-08-20T09:13:54.000Z</time>
      </trkpt>
      <trkpt lat="42.7617953158915042877197265625" lon="-0.794571898877620697021484375">
        <ele>1160.800048828125</ele>
        <time>2020-08-20T09:13:56.000Z</time>
      </trkpt>
      <trkpt lat="42.7618184499442577362060546875" lon="-0.79461037181317806243896484375">
        <ele>1160.800048828125</ele>
        <time>2020-08-20T09:14:00.000Z</time>
      </trkpt>
      <trkpt lat="42.76182490400969982147216796875" lon="-0.79461774788796901702880859375">
        <ele>1160.800048828125</ele>
        <time>2020-08-20T09:14:01.000Z</time>
      </trkpt>
      <trkpt lat="42.76183127425611019134521484375" lon="-0.79462177120149135589599609375">
        <ele>1161</ele>
        <time>2020-08-20T09:14:08.000Z</time>
      </trkpt>
      <trkpt lat="42.761888690292835235595703125" lon="-0.79460668377578258514404296875">
        <ele>1160.4000244140625</ele>
        <time>2020-08-20T09:14:15.000Z</time>
      </trkpt>
      <trkpt lat="42.76191844604909420013427734375" lon="-0.7945861481130123138427734375">
        <ele>1159.5999755859375</ele>
        <time>2020-08-20T09:14:19.000Z</time>
      </trkpt>
      <trkpt lat="42.76193286292254924774169921875" lon="-0.7945864833891391754150390625">
        <ele>1159.4000244140625</ele>
        <time>2020-08-20T09:14:21.000Z</time>
      </trkpt>
      <trkpt lat="42.761940322816371917724609375" lon="-0.7945884950459003448486328125">
        <ele>1159.4000244140625</ele>
        <time>2020-08-20T09:14:22.000Z</time>
      </trkpt>
      <trkpt lat="42.761985920369625091552734375" lon="-0.7945884950459003448486328125">
        <ele>1158.199951171875</ele>
        <time>2020-08-20T09:14:29.000Z</time>
      </trkpt>
      <trkpt lat="42.761991284787654876708984375" lon="-0.79458908177912235260009765625">
        <ele>1158</ele>
        <time>2020-08-20T09:14:30.000Z</time>
      </trkpt>
      <trkpt lat="42.7620278298854827880859375" lon="-0.79460031352937221527099609375">
        <ele>1157.199951171875</ele>
        <time>2020-08-20T09:14:37.000Z</time>
      </trkpt>
      <trkpt lat="42.76203663088381290435791015625" lon="-0.79460282810032367706298828125">
        <ele>1157</ele>
        <time>2020-08-20T09:14:38.000Z</time>
      </trkpt>
      <trkpt lat="42.76210226118564605712890625" lon="-0.79462411813437938690185546875">
        <ele>1155.800048828125</ele>
        <time>2020-08-20T09:14:46.000Z</time>
      </trkpt>
      <trkpt lat="42.76212246157228946685791015625" lon="-0.7946267165243625640869140625">
        <ele>1155.4000244140625</ele>
        <time>2020-08-20T09:14:48.000Z</time>
      </trkpt>
      <trkpt lat="42.7621550671756267547607421875" lon="-0.79464926384389400482177734375">
        <ele>1154.800048828125</ele>
        <time>2020-08-20T09:14:53.000Z</time>
      </trkpt>
      <trkpt lat="42.76219203136861324310302734375" lon="-0.794687904417514801025390625">
        <ele>1154.199951171875</ele>
        <time>2020-08-20T09:15:01.000Z</time>
      </trkpt>
      <trkpt lat="42.7622010000050067901611328125" lon="-0.79471514560282230377197265625">
        <ele>1153.800048828125</ele>
        <time>2020-08-20T09:15:04.000Z</time>
      </trkpt>
      <trkpt lat="42.76221348904073238372802734375" lon="-0.79476200044155120849609375">
        <ele>1152.800048828125</ele>
        <time>2020-08-20T09:15:09.000Z</time>
      </trkpt>
      <trkpt lat="42.7622154168784618377685546875" lon="-0.79476979561150074005126953125">
        <ele>1152.5999755859375</ele>
        <time>2020-08-20T09:15:10.000Z</time>
      </trkpt>
      <trkpt lat="42.76222773827612400054931640625" lon="-0.794790498912334442138671875">
        <ele>1151.5999755859375</ele>
        <time>2020-08-20T09:15:14.000Z</time>
      </trkpt>
      <trkpt lat="42.762229330837726593017578125" lon="-0.79478940926492214202880859375">
        <ele>1151.4000244140625</ele>
        <time>2020-08-20T09:15:17.000Z</time>
      </trkpt>
      <trkpt lat="42.7622422389686107635498046875" lon="-0.79484590329229831695556640625">
        <ele>1151.199951171875</ele>
        <time>2020-08-20T09:15:27.000Z</time>
      </trkpt>
      <trkpt lat="42.76224802248179912567138671875" lon="-0.79487473703920841217041015625">
        <ele>1150.4000244140625</ele>
        <time>2020-08-20T09:15:30.000Z</time>
      </trkpt>
      <trkpt lat="42.7622620202600955963134765625" lon="-0.794920586049556732177734375">
        <ele>1149.800048828125</ele>
        <time>2020-08-20T09:15:35.000Z</time>
      </trkpt>
      <trkpt lat="42.76226981543004512786865234375" lon="-0.794946737587451934814453125">
        <ele>1149.199951171875</ele>
        <time>2020-08-20T09:15:37.000Z</time>
      </trkpt>
      <trkpt lat="42.7622878365218639373779296875" lon="-0.79498789273202419281005859375">
        <ele>1148.4000244140625</ele>
        <time>2020-08-20T09:15:41.000Z</time>
      </trkpt>
      <trkpt lat="42.76229077018797397613525390625" lon="-0.794997699558734893798828125">
        <ele>1148</ele>
        <time>2020-08-20T09:15:42.000Z</time>
      </trkpt>
      <trkpt lat="42.76232060976326465606689453125" lon="-0.79508109949529170989990234375">
        <ele>1147.199951171875</ele>
        <time>2020-08-20T09:15:49.000Z</time>
      </trkpt>
      <trkpt lat="42.7623237110674381256103515625" lon="-0.795096270740032196044921875">
        <ele>1146.800048828125</ele>
        <time>2020-08-20T09:15:50.000Z</time>
      </trkpt>
      <trkpt lat="42.7623371221125125885009765625" lon="-0.7951567880809307098388671875">
        <ele>1145.800048828125</ele>
        <time>2020-08-20T09:15:54.000Z</time>
      </trkpt>
      <trkpt lat="42.76235279627144336700439453125" lon="-0.79518989659845829010009765625">
        <ele>1145.199951171875</ele>
        <time>2020-08-20T09:15:57.000Z</time>
      </trkpt>
      <trkpt lat="42.7624132297933101654052734375" lon="-0.79529441893100738525390625">
        <ele>1144.800048828125</ele>
        <time>2020-08-20T09:16:06.000Z</time>
      </trkpt>
      <trkpt lat="42.76243778876960277557373046875" lon="-0.79532082192599773406982421875">
        <ele>1144.4000244140625</ele>
        <time>2020-08-20T09:16:09.000Z</time>
      </trkpt>
      <trkpt lat="42.76246377266943454742431640625" lon="-0.79531277529895305633544921875">
        <ele>1144.199951171875</ele>
        <time>2020-08-20T09:16:12.000Z</time>
      </trkpt>
      <trkpt lat="42.762476094067096710205078125" lon="-0.79528997652232646942138671875">
        <ele>1144</ele>
        <time>2020-08-20T09:16:19.000Z</time>
      </trkpt>
      <trkpt lat="42.76250316761434078216552734375" lon="-0.79526030458509922027587890625">
        <ele>1143.800048828125</ele>
        <time>2020-08-20T09:16:26.000Z</time>
      </trkpt>
      <trkpt lat="42.7625104598701000213623046875" lon="-0.7952583767473697662353515625">
        <ele>1143.5999755859375</ele>
        <time>2020-08-20T09:16:27.000Z</time>
      </trkpt>
      <trkpt lat="42.7625463344156742095947265625" lon="-0.7952657528221607208251953125">
        <ele>1142.5999755859375</ele>
        <time>2020-08-20T09:16:32.000Z</time>
      </trkpt>
      <trkpt lat="42.762552537024021148681640625" lon="-0.7952701114118099212646484375">
        <ele>1142.5999755859375</ele>
        <time>2020-08-20T09:16:33.000Z</time>
      </trkpt>
      <trkpt lat="42.76258816011250019073486328125" lon="-0.79528234899044036865234375">
        <ele>1141.5999755859375</ele>
        <time>2020-08-20T09:16:40.000Z</time>
      </trkpt>
      <trkpt lat="42.76259084232151508331298828125" lon="-0.79528377391397953033447265625">
        <ele>1141.4000244140625</ele>
        <time>2020-08-20T09:16:42.000Z</time>
      </trkpt>
      <trkpt lat="42.76259184814989566802978515625" lon="-0.79528142698109149932861328125">
        <ele>1141.199951171875</ele>
        <time>2020-08-20T09:16:50.000Z</time>
      </trkpt>
      <trkpt lat="42.7625902555882930755615234375" lon="-0.79528226517140865325927734375">
        <ele>1141.199951171875</ele>
        <time>2020-08-20T09:17:05.000Z</time>
      </trkpt>
      <trkpt lat="42.76260115206241607666015625" lon="-0.79527589492499828338623046875">
        <ele>1140.800048828125</ele>
        <time>2020-08-20T09:17:16.000Z</time>
      </trkpt>
      <trkpt lat="42.7626073546707630157470703125" lon="-0.79526868648827075958251953125">
        <ele>1140.5999755859375</ele>
        <time>2020-08-20T09:17:21.000Z</time>
      </trkpt>
      <trkpt lat="42.76262185536324977874755859375" lon="-0.79526089131832122802734375">
        <ele>1140</ele>
        <time>2020-08-20T09:17:25.000Z</time>
      </trkpt>
      <trkpt lat="42.76264180429279804229736328125" lon="-0.79526231624186038970947265625">
        <ele>1139.199951171875</ele>
        <time>2020-08-20T09:17:30.000Z</time>
      </trkpt>
      <trkpt lat="42.762655131518840789794921875" lon="-0.7952736318111419677734375">
        <ele>1138.800048828125</ele>
        <time>2020-08-20T09:17:33.000Z</time>
      </trkpt>
      <trkpt lat="42.7626784332096576690673828125" lon="-0.7952922396361827850341796875">
        <ele>1138</ele>
        <time>2020-08-20T09:17:38.000Z</time>
      </trkpt>
      <trkpt lat="42.762698046863079071044921875" lon="-0.79529718495905399322509765625">
        <ele>1137.5999755859375</ele>
        <time>2020-08-20T09:17:41.000Z</time>
      </trkpt>
      <trkpt lat="42.762721516191959381103515625" lon="-0.79531277529895305633544921875">
        <ele>1137</ele>
        <time>2020-08-20T09:17:46.000Z</time>
      </trkpt>
      <trkpt lat="42.7627505175769329071044921875" lon="-0.7953147031366825103759765625">
        <ele>1136.5999755859375</ele>
        <time>2020-08-20T09:17:50.000Z</time>
      </trkpt>
      <trkpt lat="42.7627803571522235870361328125" lon="-0.7953085005283355712890625">
        <ele>1136</ele>
        <time>2020-08-20T09:17:55.000Z</time>
      </trkpt>
      <trkpt lat="42.7628110349178314208984375" lon="-0.7953022979199886322021484375">
        <ele>1135.5999755859375</ele>
        <time>2020-08-20T09:17:59.000Z</time>
      </trkpt>
      <trkpt lat="42.7628715522587299346923828125" lon="-0.79527254216372966766357421875">
        <ele>1135</ele>
        <time>2020-08-20T09:18:08.000Z</time>
      </trkpt>
      <trkpt lat="42.76288286782801151275634765625" lon="-0.79526835121214389801025390625">
        <ele>1135</ele>
        <time>2020-08-20T09:18:10.000Z</time>
      </trkpt>
      <trkpt lat="42.7629111148416996002197265625" lon="-0.7952597178518772125244140625">
        <ele>1134.199951171875</ele>
        <time>2020-08-20T09:18:17.000Z</time>
      </trkpt>
      <trkpt lat="42.76291421614587306976318359375" lon="-0.79526164568960666656494140625">
        <ele>1134</ele>
        <time>2020-08-20T09:18:25.000Z</time>
      </trkpt>
      <trkpt lat="42.76291270740330219268798828125" lon="-0.7952607236802577972412109375">
        <ele>1133.800048828125</ele>
        <time>2020-08-20T09:18:31.000Z</time>
      </trkpt>
      <trkpt lat="42.76291362941265106201171875" lon="-0.79525980167090892791748046875">
        <ele>1133.800048828125</ele>
        <time>2020-08-20T09:18:34.000Z</time>
      </trkpt>
      <trkpt lat="42.7629231847822666168212890625" lon="-0.7952600531280040740966796875">
        <ele>1134</ele>
        <time>2020-08-20T09:18:43.000Z</time>
      </trkpt>
      <trkpt lat="42.76292528025805950164794921875" lon="-0.79526047222316265106201171875">
        <ele>1134</ele>
        <time>2020-08-20T09:18:44.000Z</time>
      </trkpt>
      <trkpt lat="42.76292662136256694793701171875" lon="-0.79525418579578399658203125">
        <ele>1133.800048828125</ele>
        <time>2020-08-20T09:18:56.000Z</time>
      </trkpt>
      <trkpt lat="42.7629268728196620941162109375" lon="-0.79525376670062541961669921875">
        <ele>1134.199951171875</ele>
        <time>2020-08-20T09:19:09.000Z</time>
      </trkpt>
      <trkpt lat="42.76292712427675724029541015625" lon="-0.79525418579578399658203125">
        <ele>1133.800048828125</ele>
        <time>2020-08-20T09:19:32.000Z</time>
      </trkpt>
      <trkpt lat="42.7629268728196620941162109375" lon="-0.7952573709189891815185546875">
        <ele>1133.800048828125</ele>
        <time>2020-08-20T09:19:42.000Z</time>
      </trkpt>
      <trkpt lat="42.76293064467608928680419921875" lon="-0.79525225795805454254150390625">
        <ele>1134</ele>
        <time>2020-08-20T09:19:52.000Z</time>
      </trkpt>
      <trkpt lat="42.76293508708477020263671875" lon="-0.7952493242919445037841796875">
        <ele>1134.800048828125</ele>
        <time>2020-08-20T09:19:56.000Z</time>
      </trkpt>
      <trkpt lat="42.76294237934052944183349609375" lon="-0.79524789936840534210205078125">
        <ele>1135</ele>
        <time>2020-08-20T09:20:00.000Z</time>
      </trkpt>
      <trkpt lat="42.7629463188350200653076171875" lon="-0.795245803892612457275390625">
        <ele>1134</ele>
        <time>2020-08-20T09:20:08.000Z</time>
      </trkpt>
      <trkpt lat="42.76294908486306667327880859375" lon="-0.7952483184635639190673828125">
        <ele>1134.199951171875</ele>
        <time>2020-08-20T09:20:18.000Z</time>
      </trkpt>
      <trkpt lat="42.76295545510947704315185546875" lon="-0.7952466420829296112060546875">
        <ele>1134.199951171875</ele>
        <time>2020-08-20T09:20:32.000Z</time>
      </trkpt>
      <trkpt lat="42.76301228441298007965087890625" lon="-0.79528226517140865325927734375">
        <ele>1133.800048828125</ele>
        <time>2020-08-20T09:20:44.000Z</time>
      </trkpt>
      <trkpt lat="42.763030640780925750732421875" lon="-0.79529517330229282379150390625">
        <ele>1133.5999755859375</ele>
        <time>2020-08-20T09:20:47.000Z</time>
      </trkpt>
      <trkpt lat="42.76305922307074069976806640625" lon="-0.7953458838164806365966796875">
        <ele>1133.800048828125</ele>
        <time>2020-08-20T09:20:56.000Z</time>
      </trkpt>
      <trkpt lat="42.7630492486059665679931640625" lon="-0.7954598776996135711669921875">
        <ele>1133.800048828125</ele>
        <time>2020-08-20T09:21:05.000Z</time>
      </trkpt>
      <trkpt lat="42.7630254440009593963623046875" lon="-0.79557848162949085235595703125">
        <ele>1134.199951171875</ele>
        <time>2020-08-20T09:21:11.000Z</time>
      </trkpt>
      <trkpt lat="42.7629992924630641937255859375" lon="-0.79578886739909648895263671875">
        <ele>1134.199951171875</ele>
        <time>2020-08-20T09:21:20.000Z</time>
      </trkpt>
      <trkpt lat="42.76298680342733860015869140625" lon="-0.795846618711948394775390625">
        <ele>1133.800048828125</ele>
        <time>2020-08-20T09:21:23.000Z</time>
      </trkpt>
      <trkpt lat="42.76296484284102916717529296875" lon="-0.79589179717004299163818359375">
        <ele>1133.5999755859375</ele>
        <time>2020-08-20T09:21:26.000Z</time>
      </trkpt>
      <trkpt lat="42.76295780204236507415771484375" lon="-0.79596153460443019866943359375">
        <ele>1134</ele>
        <time>2020-08-20T09:21:31.000Z</time>
      </trkpt>
      <trkpt lat="42.7629560418426990509033203125" lon="-0.7959715090692043304443359375">
        <ele>1134</ele>
        <time>2020-08-20T09:21:32.000Z</time>
      </trkpt>
      <trkpt lat="42.762930393218994140625" lon="-0.79603529535233974456787109375">
        <ele>1134.5999755859375</ele>
        <time>2020-08-20T09:21:38.000Z</time>
      </trkpt>
      <trkpt lat="42.7629265375435352325439453125" lon="-0.79606412909924983978271484375">
        <ele>1134.800048828125</ele>
        <time>2020-08-20T09:21:41.000Z</time>
      </trkpt>
      <trkpt lat="42.76289761997759342193603515625" lon="-0.79608256928622722625732421875">
        <ele>1134.4000244140625</ele>
        <time>2020-08-20T09:21:45.000Z</time>
      </trkpt>
      <trkpt lat="42.76284699328243732452392578125" lon="-0.79611877910792827606201171875">
        <ele>1133.800048828125</ele>
        <time>2020-08-20T09:21:53.000Z</time>
      </trkpt>
      <trkpt lat="42.7628413774073123931884765625" lon="-0.79611928202211856842041015625">
        <ele>1133.5999755859375</ele>
        <time>2020-08-20T09:21:54.000Z</time>
      </trkpt>
      <trkpt lat="42.7628346718847751617431640625" lon="-0.7961210422217845916748046875">
        <ele>1133.5999755859375</ele>
        <time>2020-08-20T09:21:55.000Z</time>
      </trkpt>
      <trkpt lat="42.76279284618794918060302734375" lon="-0.79614744521677494049072265625">
        <ele>1132.800048828125</ele>
        <time>2020-08-20T09:22:01.000Z</time>
      </trkpt>
      <trkpt lat="42.76278681121766567230224609375" lon="-0.7961535640060901641845703125">
        <ele>1132.5999755859375</ele>
        <time>2020-08-20T09:22:02.000Z</time>
      </trkpt>
      <trkpt lat="42.7627753280103206634521484375" lon="-0.79617728479206562042236328125">
        <ele>1132.199951171875</ele>
        <time>2020-08-20T09:22:07.000Z</time>
      </trkpt>
      <trkpt lat="42.7627508528530597686767578125" lon="-0.79621634446084499359130859375">
        <ele>1131.5999755859375</ele>
        <time>2020-08-20T09:22:11.000Z</time>
      </trkpt>
      <trkpt lat="42.76273501105606555938720703125" lon="-0.79623931087553501129150390625">
        <ele>1130.800048828125</ele>
        <time>2020-08-20T09:22:15.000Z</time>
      </trkpt>
      <trkpt lat="42.76273216120898723602294921875" lon="-0.79624651931226253509521484375">
        <ele>1130.4000244140625</ele>
        <time>2020-08-20T09:22:16.000Z</time>
      </trkpt>
      <trkpt lat="42.7627096138894557952880859375" lon="-0.79629261977970600128173828125">
        <ele>1129.4000244140625</ele>
        <time>2020-08-20T09:22:23.000Z</time>
      </trkpt>
      <trkpt lat="42.76270978152751922607421875" lon="-0.79630100168287754058837890625">
        <ele>1129.199951171875</ele>
        <time>2020-08-20T09:22:24.000Z</time>
      </trkpt>
      <trkpt lat="42.762722186744213104248046875" lon="-0.79635866917669773101806640625">
        <ele>1128.4000244140625</ele>
        <time>2020-08-20T09:22:29.000Z</time>
      </trkpt>
      <trkpt lat="42.762723527848720550537109375" lon="-0.79639689065515995025634765625">
        <ele>1128</ele>
        <time>2020-08-20T09:22:32.000Z</time>
      </trkpt>
      <trkpt lat="42.76273149065673351287841796875" lon="-0.796454139053821563720703125">
        <ele>1127.199951171875</ele>
        <time>2020-08-20T09:22:36.000Z</time>
      </trkpt>
      <trkpt lat="42.76274867355823516845703125" lon="-0.796541310846805572509765625">
        <ele>1127</ele>
        <time>2020-08-20T09:22:42.000Z</time>
      </trkpt>
      <trkpt lat="42.7627521939575672149658203125" lon="-0.79665924422442913055419921875">
        <ele>1127.4000244140625</ele>
        <time>2020-08-20T09:22:50.000Z</time>
      </trkpt>
      <trkpt lat="42.7627441473305225372314453125" lon="-0.7966967113316059112548828125">
        <ele>1127.800048828125</ele>
        <time>2020-08-20T09:22:53.000Z</time>
      </trkpt>
      <trkpt lat="42.76271757669746875762939453125" lon="-0.79673032276332378387451171875">
        <ele>1128.199951171875</ele>
        <time>2020-08-20T09:22:57.000Z</time>
      </trkpt>
      <trkpt lat="42.76271774433553218841552734375" lon="-0.79681523144245147705078125">
        <ele>1128.800048828125</ele>
        <time>2020-08-20T09:23:04.000Z</time>
      </trkpt>
      <trkpt lat="42.7627166546881198883056640625" lon="-0.7968883216381072998046875">
        <ele>1128.800048828125</ele>
        <time>2020-08-20T09:23:11.000Z</time>
      </trkpt>
      <trkpt lat="42.76271489448845386505126953125" lon="-0.79694171436131000518798828125">
        <ele>1127.800048828125</ele>
        <time>2020-08-20T09:23:17.000Z</time>
      </trkpt>
      <trkpt lat="42.76272143237292766571044921875" lon="-0.79697608016431331634521484375">
        <ele>1127.199951171875</ele>
        <time>2020-08-20T09:23:20.000Z</time>
      </trkpt>
      <trkpt lat="42.7627233602106571197509765625" lon="-0.796999968588352203369140625">
        <ele>1126.5999755859375</ele>
        <time>2020-08-20T09:23:24.000Z</time>
      </trkpt>
      <trkpt lat="42.76271338574588298797607421875" lon="-0.7970559597015380859375">
        <ele>1126.199951171875</ele>
        <time>2020-08-20T09:23:30.000Z</time>
      </trkpt>
      <trkpt lat="42.762704081833362579345703125" lon="-0.79707247205078601837158203125">
        <ele>1125.800048828125</ele>
        <time>2020-08-20T09:23:32.000Z</time>
      </trkpt>
      <trkpt lat="42.76268186978995800018310546875" lon="-0.7971248589456081390380859375">
        <ele>1125</ele>
        <time>2020-08-20T09:23:38.000Z</time>
      </trkpt>
      <trkpt lat="42.76267281733453273773193359375" lon="-0.79715411178767681121826171875">
        <ele>1124.800048828125</ele>
        <time>2020-08-20T09:23:41.000Z</time>
      </trkpt>
      <trkpt lat="42.762661166489124298095703125" lon="-0.7971976138651371002197265625">
        <ele>1124</ele>
        <time>2020-08-20T09:23:46.000Z</time>
      </trkpt>
      <trkpt lat="42.76265789754688739776611328125" lon="-0.79721630550920963287353515625">
        <ele>1123.800048828125</ele>
        <time>2020-08-20T09:23:48.000Z</time>
      </trkpt>
      <trkpt lat="42.76263811625540256500244140625" lon="-0.7972683571279048919677734375">
        <ele>1122.800048828125</ele>
        <time>2020-08-20T09:23:54.000Z</time>
      </trkpt>
      <trkpt lat="42.76261816732585430145263671875" lon="-0.79730951227247714996337890625">
        <ele>1122.199951171875</ele>
        <time>2020-08-20T09:23:59.000Z</time>
      </trkpt>
      <trkpt lat="42.76261431165039539337158203125" lon="-0.79732711426913738250732421875">
        <ele>1121.800048828125</ele>
        <time>2020-08-20T09:24:01.000Z</time>
      </trkpt>
      <trkpt lat="42.76259318925440311431884765625" lon="-0.7973994500935077667236328125">
        <ele>1120.800048828125</ele>
        <time>2020-08-20T09:24:08.000Z</time>
      </trkpt>
      <trkpt lat="42.7625892497599124908447265625" lon="-0.7974085025489330291748046875">
        <ele>1120.800048828125</ele>
        <time>2020-08-20T09:24:09.000Z</time>
      </trkpt>
      <trkpt lat="42.7625533752143383026123046875" lon="-0.797498188912868499755859375">
        <ele>1120</ele>
        <time>2020-08-20T09:24:17.000Z</time>
      </trkpt>
      <trkpt lat="42.762536443769931793212890625" lon="-0.79752677120268344879150390625">
        <ele>1119.800048828125</ele>
        <time>2020-08-20T09:24:20.000Z</time>
      </trkpt>
      <trkpt lat="42.76251121424138545989990234375" lon="-0.79758075065910816192626953125">
        <ele>1119.199951171875</ele>
        <time>2020-08-20T09:24:25.000Z</time>
      </trkpt>
      <trkpt lat="42.762493193149566650390625" lon="-0.79761712811887264251708984375">
        <ele>1118.5999755859375</ele>
        <time>2020-08-20T09:24:29.000Z</time>
      </trkpt>
      <trkpt lat="42.76247047819197177886962890625" lon="-0.79766817390918731689453125">
        <ele>1118</ele>
        <time>2020-08-20T09:24:34.000Z</time>
      </trkpt>
      <trkpt lat="42.76245254091918468475341796875" lon="-0.7977169565856456756591796875">
        <ele>1117.5999755859375</ele>
        <time>2020-08-20T09:24:38.000Z</time>
      </trkpt>
      <trkpt lat="42.76244801469147205352783203125" lon="-0.79773061908781528472900390625">
        <ele>1117.4000244140625</ele>
        <time>2020-08-20T09:24:39.000Z</time>
      </trkpt>
      <trkpt lat="42.7624353580176830291748046875" lon="-0.79776766709983348846435546875">
        <ele>1117</ele>
        <time>2020-08-20T09:24:42.000Z</time>
      </trkpt>
      <trkpt lat="42.76241616345942020416259765625" lon="-0.797830112278461456298828125">
        <ele>1116.4000244140625</ele>
        <time>2020-08-20T09:24:47.000Z</time>
      </trkpt>
      <trkpt lat="42.76240861974656581878662109375" lon="-0.79785861074924468994140625">
        <ele>1116</ele>
        <time>2020-08-20T09:24:49.000Z</time>
      </trkpt>
      <trkpt lat="42.76237978599965572357177734375" lon="-0.79795508645474910736083984375">
        <ele>1115.5999755859375</ele>
        <time>2020-08-20T09:24:57.000Z</time>
      </trkpt>
      <trkpt lat="42.7623605914413928985595703125" lon="-0.798003785312175750732421875">
        <ele>1115.199951171875</ele>
        <time>2020-08-20T09:25:02.000Z</time>
      </trkpt>
      <trkpt lat="42.76235095225274562835693359375" lon="-0.79801962710916996002197265625">
        <ele>1114.800048828125</ele>
        <time>2020-08-20T09:25:04.000Z</time>
      </trkpt>
      <trkpt lat="42.76231960393488407135009765625" lon="-0.79807092435657978057861328125">
        <ele>1114</ele>
        <time>2020-08-20T09:25:10.000Z</time>
      </trkpt>
      <trkpt lat="42.7623066119849681854248046875" lon="-0.79808735288679599761962890625">
        <ele>1113.5999755859375</ele>
        <time>2020-08-20T09:25:12.000Z</time>
      </trkpt>
      <trkpt lat="42.762272246181964874267578125" lon="-0.79815524630248546600341796875">
        <ele>1113.199951171875</ele>
        <time>2020-08-20T09:25:18.000Z</time>
      </trkpt>
      <trkpt lat="42.7622657082974910736083984375" lon="-0.79816563986241817474365234375">
        <ele>1113</ele>
        <time>2020-08-20T09:25:19.000Z</time>
      </trkpt>
      <trkpt lat="42.76224785484373569488525390625" lon="-0.79819363541901111602783203125">
        <ele>1112.5999755859375</ele>
        <time>2020-08-20T09:25:22.000Z</time>
      </trkpt>
      <trkpt lat="42.76223427616059780120849609375" lon="-0.79821442253887653350830078125">
        <ele>1112.4000244140625</ele>
        <time>2020-08-20T09:25:24.000Z</time>
      </trkpt>
      <trkpt lat="42.7622207812964916229248046875" lon="-0.79823470674455165863037109375">
        <ele>1112</ele>
        <time>2020-08-20T09:25:26.000Z</time>
      </trkpt>
      <trkpt lat="42.7621795423328876495361328125" lon="-0.7982889376580715179443359375">
        <ele>1112.4000244140625</ele>
        <time>2020-08-20T09:25:32.000Z</time>
      </trkpt>
      <trkpt lat="42.7621711604297161102294921875" lon="-0.7982953079044818878173828125">
        <ele>1112.4000244140625</ele>
        <time>2020-08-20T09:25:33.000Z</time>
      </trkpt>
      <trkpt lat="42.76212665252387523651123046875" lon="-0.79833998344838619232177734375">
        <ele>1112.199951171875</ele>
        <time>2020-08-20T09:25:38.000Z</time>
      </trkpt>
      <trkpt lat="42.762117348611354827880859375" lon="-0.7983516342937946319580078125">
        <ele>1112.199951171875</ele>
        <time>2020-08-20T09:25:39.000Z</time>
      </trkpt>
      <trkpt lat="42.762069068849086761474609375" lon="-0.79841743223369121551513671875">
        <ele>1111.5999755859375</ele>
        <time>2020-08-20T09:25:46.000Z</time>
      </trkpt>
      <trkpt lat="42.76206127367913722991943359375" lon="-0.79842614941298961639404296875">
        <ele>1111.5999755859375</ele>
        <time>2020-08-20T09:25:47.000Z</time>
      </trkpt>
      <trkpt lat="42.76202439330518245697021484375" lon="-0.798463784158229827880859375">
        <ele>1111.4000244140625</ele>
        <time>2020-08-20T09:25:52.000Z</time>
      </trkpt>
      <trkpt lat="42.76200880296528339385986328125" lon="-0.79847820103168487548828125">
        <ele>1111</ele>
        <time>2020-08-20T09:25:54.000Z</time>
      </trkpt>
      <trkpt lat="42.76198516599833965301513671875" lon="-0.7985085435211658477783203125">
        <ele>1110.800048828125</ele>
        <time>2020-08-20T09:25:58.000Z</time>
      </trkpt>
      <trkpt lat="42.76195080019533634185791015625" lon="-0.798555314540863037109375">
        <ele>1110.4000244140625</ele>
        <time>2020-08-20T09:26:04.000Z</time>
      </trkpt>
      <trkpt lat="42.7619388140738010406494140625" lon="-0.79857484437525272369384765625">
        <ele>1110</ele>
        <time>2020-08-20T09:26:06.000Z</time>
      </trkpt>
      <trkpt lat="42.76191224344074726104736328125" lon="-0.79862815327942371368408203125">
        <ele>1108.800048828125</ele>
        <time>2020-08-20T09:26:11.000Z</time>
      </trkpt>
      <trkpt lat="42.76190017350018024444580078125" lon="-0.79864642582833766937255859375">
        <ele>1108.4000244140625</ele>
        <time>2020-08-20T09:26:13.000Z</time>
      </trkpt>
      <trkpt lat="42.7618868462741374969482421875" lon="-0.79866327345371246337890625">
        <ele>1107.800048828125</ele>
        <time>2020-08-20T09:26:15.000Z</time>
      </trkpt>
      <trkpt lat="42.76186128146946430206298828125" lon="-0.79870509915053844451904296875">
        <ele>1107.5999755859375</ele>
        <time>2020-08-20T09:26:19.000Z</time>
      </trkpt>
      <trkpt lat="42.76185541413724422454833984375" lon="-0.79871566034853458404541015625">
        <ele>1107.800048828125</ele>
        <time>2020-08-20T09:26:20.000Z</time>
      </trkpt>
      <trkpt lat="42.76180076412856578826904296875" lon="-0.79882898367941379547119140625">
        <ele>1107.5999755859375</ele>
        <time>2020-08-20T09:26:30.000Z</time>
      </trkpt>
      <trkpt lat="42.76174963451921939849853515625" lon="-0.7989269681274890899658203125">
        <ele>1107.800048828125</ele>
        <time>2020-08-20T09:26:39.000Z</time>
      </trkpt>
      <trkpt lat="42.761725746095180511474609375" lon="-0.79896326176822185516357421875">
        <ele>1107.4000244140625</ele>
        <time>2020-08-20T09:26:46.000Z</time>
      </trkpt>
      <trkpt lat="42.76169431395828723907470703125" lon="-0.79900257289409637451171875">
        <ele>1106.5999755859375</ele>
        <time>2020-08-20T09:26:52.000Z</time>
      </trkpt>
      <trkpt lat="42.76167268864810466766357421875" lon="-0.79902880825102329254150390625">
        <ele>1106.199951171875</ele>
        <time>2020-08-20T09:26:55.000Z</time>
      </trkpt>
      <trkpt lat="42.7616119198501110076904296875" lon="-0.79907809384167194366455078125">
        <ele>1106.4000244140625</ele>
        <time>2020-08-20T09:27:03.000Z</time>
      </trkpt>
      <trkpt lat="42.76155031286180019378662109375" lon="-0.79916442744433879852294921875">
        <ele>1106.4000244140625</ele>
        <time>2020-08-20T09:27:11.000Z</time>
      </trkpt>
      <trkpt lat="42.76154712773859500885009765625" lon="-0.7991655170917510986328125">
        <ele>1106.5999755859375</ele>
        <time>2020-08-20T09:27:19.000Z</time>
      </trkpt>
      <trkpt lat="42.7615472115576267242431640625" lon="-0.7991663552820682525634765625">
        <ele>1105.5999755859375</ele>
        <time>2020-08-20T09:27:27.000Z</time>
      </trkpt>
      <trkpt lat="42.76154696010053157806396484375" lon="-0.79916710965335369110107421875">
        <ele>1106.4000244140625</ele>
        <time>2020-08-20T09:27:36.000Z</time>
      </trkpt>
      <trkpt lat="42.76154696010053157806396484375" lon="-0.7991673611104488372802734375">
        <ele>1106.5999755859375</ele>
        <time>2020-08-20T09:27:39.000Z</time>
      </trkpt>
      <trkpt lat="42.76154704391956329345703125" lon="-0.79916962422430515289306640625">
        <ele>1105.4000244140625</ele>
        <time>2020-08-20T09:28:03.000Z</time>
      </trkpt>
      <trkpt lat="42.7615398354828357696533203125" lon="-0.799181945621967315673828125">
        <ele>1105.800048828125</ele>
        <time>2020-08-20T09:28:08.000Z</time>
      </trkpt>
      <trkpt lat="42.76149532757699489593505859375" lon="-0.79925847239792346954345703125">
        <ele>1106</ele>
        <time>2020-08-20T09:28:15.000Z</time>
      </trkpt>
      <trkpt lat="42.76144377887248992919921875" lon="-0.79932846128940582275390625">
        <ele>1106.4000244140625</ele>
        <time>2020-08-20T09:28:22.000Z</time>
      </trkpt>
      <trkpt lat="42.76142810471355915069580078125" lon="-0.7993490807712078094482421875">
        <ele>1106.4000244140625</ele>
        <time>2020-08-20T09:28:24.000Z</time>
      </trkpt>
      <trkpt lat="42.76142022572457790374755859375" lon="-0.7993601448833942413330078125">
        <ele>1106.4000244140625</ele>
        <time>2020-08-20T09:28:25.000Z</time>
      </trkpt>
      <trkpt lat="42.7613778971135616302490234375" lon="-0.799422003328800201416015625">
        <ele>1106.800048828125</ele>
        <time>2020-08-20T09:28:31.000Z</time>
      </trkpt>
      <trkpt lat="42.7613390050828456878662109375" lon="-0.79948562197387218475341796875">
        <ele>1107.5999755859375</ele>
        <time>2020-08-20T09:28:37.000Z</time>
      </trkpt>
      <trkpt lat="42.76132131926715373992919921875" lon="-0.79950707964599132537841796875">
        <ele>1107.800048828125</ele>
        <time>2020-08-20T09:28:39.000Z</time>
      </trkpt>
      <trkpt lat="42.76125728152692317962646484375" lon="-0.79960011877119541168212890625">
        <ele>1106.800048828125</ele>
        <time>2020-08-20T09:28:47.000Z</time>
      </trkpt>
      <trkpt lat="42.76122962124645709991455078125" lon="-0.79964621923863887786865234375">
        <ele>1106.5999755859375</ele>
        <time>2020-08-20T09:28:51.000Z</time>
      </trkpt>
      <trkpt lat="42.7612038888037204742431640625" lon="-0.79969047568738460540771484375">
        <ele>1106.800048828125</ele>
        <time>2020-08-20T09:28:55.000Z</time>
      </trkpt>
      <trkpt lat="42.76114898733794689178466796875" lon="-0.799763314425945281982421875">
        <ele>1106.800048828125</ele>
        <time>2020-08-20T09:29:02.000Z</time>
      </trkpt>
      <trkpt lat="42.76108779944479465484619140625" lon="-0.79985459335148334503173828125">
        <ele>1107</ele>
        <time>2020-08-20T09:29:10.000Z</time>
      </trkpt>
      <trkpt lat="42.761017978191375732421875" lon="-0.7999602891504764556884765625">
        <ele>1106.4000244140625</ele>
        <time>2020-08-20T09:29:19.000Z</time>
      </trkpt>
      <trkpt lat="42.76094463653862476348876953125" lon="-0.800088532269001007080078125">
        <ele>1106</ele>
        <time>2020-08-20T09:29:29.000Z</time>
      </trkpt>
      <trkpt lat="42.76087674312293529510498046875" lon="-0.8002008497714996337890625">
        <ele>1106.800048828125</ele>
        <time>2020-08-20T09:29:38.000Z</time>
      </trkpt>
      <trkpt lat="42.7608639188110828399658203125" lon="-0.80023563466966152191162109375">
        <ele>1106.800048828125</ele>
        <time>2020-08-20T09:29:41.000Z</time>
      </trkpt>
      <trkpt lat="42.76085226796567440032958984375" lon="-0.80025575123727321624755859375">
        <ele>1107</ele>
        <time>2020-08-20T09:29:45.000Z</time>
      </trkpt>
      <trkpt lat="42.76084220968186855316162109375" lon="-0.8002731017768383026123046875">
        <ele>1107.199951171875</ele>
        <time>2020-08-20T09:29:53.000Z</time>
      </trkpt>
      <trkpt lat="42.760797701776027679443359375" lon="-0.800356753170490264892578125">
        <ele>1106.800048828125</ele>
        <time>2020-08-20T09:30:02.000Z</time>
      </trkpt>
      <trkpt lat="42.76076459325850009918212890625" lon="-0.800466723740100860595703125">
        <ele>1105.5999755859375</ele>
        <time>2020-08-20T09:30:11.000Z</time>
      </trkpt>
      <trkpt lat="42.7607656829059123992919921875" lon="-0.8004668913781642913818359375">
        <ele>1105.4000244140625</ele>
        <time>2020-08-20T09:30:15.000Z</time>
      </trkpt>
      <trkpt lat="42.760751433670520782470703125" lon="-0.80048591829836368560791015625">
        <ele>1105.4000244140625</ele>
        <time>2020-08-20T09:30:19.000Z</time>
      </trkpt>
      <trkpt lat="42.7607438899576663970947265625" lon="-0.8004960604012012481689453125">
        <ele>1104.800048828125</ele>
        <time>2020-08-20T09:30:25.000Z</time>
      </trkpt>
      <trkpt lat="42.7607445605099201202392578125" lon="-0.8004970662295818328857421875">
        <ele>1104.5999755859375</ele>
        <time>2020-08-20T09:30:43.000Z</time>
      </trkpt>
      <trkpt lat="42.76074464432895183563232421875" lon="-0.8004980720579624176025390625">
        <ele>1104.5999755859375</ele>
        <time>2020-08-20T09:31:09.000Z</time>
      </trkpt>
      <trkpt lat="42.76074464432895183563232421875" lon="-0.8004987426102161407470703125">
        <ele>1104.4000244140625</ele>
        <time>2020-08-20T09:31:45.000Z</time>
      </trkpt>
      <trkpt lat="42.76074464432895183563232421875" lon="-0.80049924552440643310546875">
        <ele>1104.5999755859375</ele>
        <time>2020-08-20T09:31:53.000Z</time>
      </trkpt>
      <trkpt lat="42.76074464432895183563232421875" lon="-0.8004994131624698638916015625">
        <ele>1104.5999755859375</ele>
        <time>2020-08-20T09:31:59.000Z</time>
      </trkpt>
      <trkpt lat="42.76074447669088840484619140625" lon="-0.80049966461956501007080078125">
        <ele>1104.5999755859375</ele>
        <time>2020-08-20T09:32:15.000Z</time>
      </trkpt>
      <trkpt lat="42.760725952684879302978515625" lon="-0.8005312643945217132568359375">
        <ele>1104.4000244140625</ele>
        <time>2020-08-20T09:32:26.000Z</time>
      </trkpt>
      <trkpt lat="42.7606775052845478057861328125" lon="-0.8005855791270732879638671875">
        <ele>1104</ele>
        <time>2020-08-20T09:32:35.000Z</time>
      </trkpt>
      <trkpt lat="42.76064489968121051788330078125" lon="-0.800629667937755584716796875">
        <ele>1103.199951171875</ele>
        <time>2020-08-20T09:32:41.000Z</time>
      </trkpt>
      <trkpt lat="42.7606392838060855865478515625" lon="-0.80063511617481708526611328125">
        <ele>1102.5999755859375</ele>
        <time>2020-08-20T09:32:43.000Z</time>
      </trkpt>
      <trkpt lat="42.76062930934131145477294921875" lon="-0.80064366571605205535888671875">
        <ele>1102.4000244140625</ele>
        <time>2020-08-20T09:32:47.000Z</time>
      </trkpt>
      <trkpt lat="42.7606074325740337371826171875" lon="-0.80066696740686893463134765625">
        <ele>1102.199951171875</ele>
        <time>2020-08-20T09:32:50.000Z</time>
      </trkpt>
      <trkpt lat="42.76060014031827449798583984375" lon="-0.8006761036813259124755859375">
        <ele>1102</ele>
        <time>2020-08-20T09:32:51.000Z</time>
      </trkpt>
      <trkpt lat="42.76053727604448795318603515625" lon="-0.80072899349033832550048828125">
        <ele>1100.800048828125</ele>
        <time>2020-08-20T09:32:58.000Z</time>
      </trkpt>
      <trkpt lat="42.7605085261166095733642578125" lon="-0.80075095407664775848388671875">
        <ele>1100.199951171875</ele>
        <time>2020-08-20T09:33:01.000Z</time>
      </trkpt>
      <trkpt lat="42.76047206483781337738037109375" lon="-0.80076620914041996002197265625">
        <ele>1099.800048828125</ele>
        <time>2020-08-20T09:33:05.000Z</time>
      </trkpt>
      <trkpt lat="42.7604562230408191680908203125" lon="-0.800774507224559783935546875">
        <ele>1099.5999755859375</ele>
        <time>2020-08-20T09:33:07.000Z</time>
      </trkpt>
      <trkpt lat="42.7604337595403194427490234375" lon="-0.80078716389834880828857421875">
        <ele>1099</ele>
        <time>2020-08-20T09:33:11.000Z</time>
      </trkpt>
      <trkpt lat="42.7604029141366481781005859375" lon="-0.80081180669367313385009765625">
        <ele>1098.5999755859375</ele>
        <time>2020-08-20T09:33:15.000Z</time>
      </trkpt>
      <trkpt lat="42.7603606693446636199951171875" lon="-0.80084918998181819915771484375">
        <ele>1098.199951171875</ele>
        <time>2020-08-20T09:33:21.000Z</time>
      </trkpt>
      <trkpt lat="42.760344408452510833740234375" lon="-0.80086478032171726226806640625">
        <ele>1097.5999755859375</ele>
        <time>2020-08-20T09:33:25.000Z</time>
      </trkpt>
      <trkpt lat="42.76033066213130950927734375" lon="-0.800879113376140594482421875">
        <ele>1097.4000244140625</ele>
        <time>2020-08-20T09:33:27.000Z</time>
      </trkpt>
      <trkpt lat="42.76028581894934177398681640625" lon="-0.80094315111637115478515625">
        <ele>1096.199951171875</ele>
        <time>2020-08-20T09:33:34.000Z</time>
      </trkpt>
      <trkpt lat="42.760277688503265380859375" lon="-0.80095044337213039398193359375">
        <ele>1096.199951171875</ele>
        <time>2020-08-20T09:33:35.000Z</time>
      </trkpt>
      <trkpt lat="42.76023955084383487701416015625" lon="-0.8010028302669525146484375">
        <ele>1095.199951171875</ele>
        <time>2020-08-20T09:33:41.000Z</time>
      </trkpt>
      <trkpt lat="42.7602232061326503753662109375" lon="-0.80103543587028980255126953125">
        <ele>1095.199951171875</ele>
        <time>2020-08-20T09:33:44.000Z</time>
      </trkpt>
      <trkpt lat="42.76019361801445484161376953125" lon="-0.8010806143283843994140625">
        <ele>1094.199951171875</ele>
        <time>2020-08-20T09:33:49.000Z</time>
      </trkpt>
      <trkpt lat="42.76016612537205219268798828125" lon="-0.80112948082387447357177734375">
        <ele>1093.199951171875</ele>
        <time>2020-08-20T09:33:54.000Z</time>
      </trkpt>
      <trkpt lat="42.7601598389446735382080078125" lon="-0.80113886855542659759521484375">
        <ele>1093.199951171875</ele>
        <time>2020-08-20T09:33:55.000Z</time>
      </trkpt>
      <trkpt lat="42.76012354530394077301025390625" lon="-0.80121329985558986663818359375">
        <ele>1091.800048828125</ele>
        <time>2020-08-20T09:34:02.000Z</time>
      </trkpt>
      <trkpt lat="42.7601175941526889801025390625" lon="-0.8012252859771251678466796875">
        <ele>1092</ele>
        <time>2020-08-20T09:34:03.000Z</time>
      </trkpt>
      <trkpt lat="42.7600649558007717132568359375" lon="-0.80130315385758876800537109375">
        <ele>1091</ele>
        <time>2020-08-20T09:34:11.000Z</time>
      </trkpt>
      <trkpt lat="42.7600537240505218505859375" lon="-0.80132276751101016998291015625">
        <ele>1090.800048828125</ele>
        <time>2020-08-20T09:34:13.000Z</time>
      </trkpt>
      <trkpt lat="42.75998826138675212860107421875" lon="-0.801430977880954742431640625">
        <ele>1090</ele>
        <time>2020-08-20T09:34:23.000Z</time>
      </trkpt>
      <trkpt lat="42.7599526382982730865478515625" lon="-0.80150499008595943450927734375">
        <ele>1088.800048828125</ele>
        <time>2020-08-20T09:34:29.000Z</time>
      </trkpt>
      <trkpt lat="42.759934365749359130859375" lon="-0.8015354163944721221923828125">
        <ele>1088.199951171875</ele>
        <time>2020-08-20T09:34:32.000Z</time>
      </trkpt>
      <trkpt lat="42.7599087171256542205810546875" lon="-0.80157238058745861053466796875">
        <ele>1087.800048828125</ele>
        <time>2020-08-20T09:34:36.000Z</time>
      </trkpt>
      <trkpt lat="42.759886421263217926025390625" lon="-0.80160557292401790618896484375">
        <ele>1087.199951171875</ele>
        <time>2020-08-20T09:34:40.000Z</time>
      </trkpt>
      <trkpt lat="42.759873680770397186279296875" lon="-0.80163910053670406341552734375">
        <ele>1086.800048828125</ele>
        <time>2020-08-20T09:34:43.000Z</time>
      </trkpt>
      <trkpt lat="42.75985314510762691497802734375" lon="-0.80168922431766986846923828125">
        <ele>1086.199951171875</ele>
        <time>2020-08-20T09:34:48.000Z</time>
      </trkpt>
      <trkpt lat="42.75984652340412139892578125" lon="-0.80171353183686733245849609375">
        <ele>1085.5999755859375</ele>
        <time>2020-08-20T09:34:50.000Z</time>
      </trkpt>
      <trkpt lat="42.75983420200645923614501953125" lon="-0.80174152739346027374267578125">
        <ele>1084.800048828125</ele>
        <time>2020-08-20T09:34:54.000Z</time>
      </trkpt>
      <trkpt lat="42.7598292566835880279541015625" lon="-0.80175317823886871337890625">
        <ele>1084.5999755859375</ele>
        <time>2020-08-20T09:34:55.000Z</time>
      </trkpt>
      <trkpt lat="42.759785167872905731201171875" lon="-0.80182165838778018951416015625">
        <ele>1083.5999755859375</ele>
        <time>2020-08-20T09:35:02.000Z</time>
      </trkpt>
      <trkpt lat="42.7597491256892681121826171875" lon="-0.8018602989614009857177734375">
        <ele>1082.5999755859375</ele>
        <time>2020-08-20T09:35:07.000Z</time>
      </trkpt>
      <trkpt lat="42.75974116288125514984130859375" lon="-0.80187010578811168670654296875">
        <ele>1082.4000244140625</ele>
        <time>2020-08-20T09:35:08.000Z</time>
      </trkpt>
      <trkpt lat="42.7596917934715747833251953125" lon="-0.80194353125989437103271484375">
        <ele>1081.4000244140625</ele>
        <time>2020-08-20T09:35:15.000Z</time>
      </trkpt>
      <trkpt lat="42.75968919508159160614013671875" lon="-0.80195208080112934112548828125">
        <ele>1081.4000244140625</ele>
        <time>2020-08-20T09:35:16.000Z</time>
      </trkpt>
      <trkpt lat="42.7596763707697391510009765625" lon="-0.801987536251544952392578125">
        <ele>1080.4000244140625</ele>
        <time>2020-08-20T09:35:24.000Z</time>
      </trkpt>
      <trkpt lat="42.75962297804653644561767578125" lon="-0.8020721934735774993896484375">
        <ele>1079.5999755859375</ele>
        <time>2020-08-20T09:35:34.000Z</time>
      </trkpt>
      <trkpt lat="42.75961057282984256744384765625" lon="-0.80209088511765003204345703125">
        <ele>1079.4000244140625</ele>
        <time>2020-08-20T09:35:37.000Z</time>
      </trkpt>
      <trkpt lat="42.75958475656807422637939453125" lon="-0.80213899724185466766357421875">
        <ele>1079.199951171875</ele>
        <time>2020-08-20T09:35:42.000Z</time>
      </trkpt>
      <trkpt lat="42.75953195057809352874755859375" lon="-0.80220622010529041290283203125">
        <ele>1078.4000244140625</ele>
        <time>2020-08-20T09:35:49.000Z</time>
      </trkpt>
      <trkpt lat="42.75952692143619060516357421875" lon="-0.802216865122318267822265625">
        <ele>1078</ele>
        <time>2020-08-20T09:35:50.000Z</time>
      </trkpt>
      <trkpt lat="42.7594926394522190093994140625" lon="-0.80228291451930999755859375">
        <ele>1077.199951171875</ele>
        <time>2020-08-20T09:35:56.000Z</time>
      </trkpt>
      <trkpt lat="42.759476043283939361572265625" lon="-0.80231602303683757781982421875">
        <ele>1076.5999755859375</ele>
        <time>2020-08-20T09:35:59.000Z</time>
      </trkpt>
      <trkpt lat="42.75946154259145259857177734375" lon="-0.8023519814014434814453125">
        <ele>1076</ele>
        <time>2020-08-20T09:36:02.000Z</time>
      </trkpt>
      <trkpt lat="42.75944293476641178131103515625" lon="-0.80239766277372837066650390625">
        <ele>1075.5999755859375</ele>
        <time>2020-08-20T09:36:06.000Z</time>
      </trkpt>
      <trkpt lat="42.75942198000848293304443359375" lon="-0.802441500127315521240234375">
        <ele>1075</ele>
        <time>2020-08-20T09:36:10.000Z</time>
      </trkpt>
      <trkpt lat="42.759413681924343109130859375" lon="-0.80245616845786571502685546875">
        <ele>1074.5999755859375</ele>
        <time>2020-08-20T09:36:14.000Z</time>
      </trkpt>
      <trkpt lat="42.75937269441783428192138671875" lon="-0.8025318570435047149658203125">
        <ele>1074</ele>
        <time>2020-08-20T09:36:21.000Z</time>
      </trkpt>
      <trkpt lat="42.759321816265583038330078125" lon="-0.80261575989425182342529296875">
        <ele>1073</ele>
        <time>2020-08-20T09:36:29.000Z</time>
      </trkpt>
      <trkpt lat="42.7593179605901241302490234375" lon="-0.8026267401874065399169921875">
        <ele>1072.5999755859375</ele>
        <time>2020-08-20T09:36:30.000Z</time>
      </trkpt>
      <trkpt lat="42.75930798612534999847412109375" lon="-0.80267761833965778350830078125">
        <ele>1072</ele>
        <time>2020-08-20T09:36:34.000Z</time>
      </trkpt>
      <trkpt lat="42.759301029145717620849609375" lon="-0.80270142294466495513916015625">
        <ele>1071.5999755859375</ele>
        <time>2020-08-20T09:36:36.000Z</time>
      </trkpt>
      <trkpt lat="42.75929759256541728973388671875" lon="-0.80271315760910511016845703125">
        <ele>1071.4000244140625</ele>
        <time>2020-08-20T09:36:37.000Z</time>
      </trkpt>
      <trkpt lat="42.75924302637577056884765625" lon="-0.8028280735015869140625">
        <ele>1070.800048828125</ele>
        <time>2020-08-20T09:36:46.000Z</time>
      </trkpt>
      <trkpt lat="42.759236991405487060546875" lon="-0.80284089781343936920166015625">
        <ele>1070.4000244140625</ele>
        <time>2020-08-20T09:36:47.000Z</time>
      </trkpt>
      <trkpt lat="42.75917789898812770843505859375" lon="-0.80295505933463573455810546875">
        <ele>1069.5999755859375</ele>
        <time>2020-08-20T09:36:56.000Z</time>
      </trkpt>
      <trkpt lat="42.75917354039847850799560546875" lon="-0.80296997912228107452392578125">
        <ele>1069.4000244140625</ele>
        <time>2020-08-20T09:36:57.000Z</time>
      </trkpt>
      <trkpt lat="42.759135067462921142578125" lon="-0.803090594708919525146484375">
        <ele>1068.800048828125</ele>
        <time>2020-08-20T09:37:05.000Z</time>
      </trkpt>
      <trkpt lat="42.75911503471434116363525390625" lon="-0.80314817838370800018310546875">
        <ele>1068.199951171875</ele>
        <time>2020-08-20T09:37:09.000Z</time>
      </trkpt>
      <trkpt lat="42.75910698808729648590087890625" lon="-0.8032030798494815826416015625">
        <ele>1067.4000244140625</ele>
        <time>2020-08-20T09:37:14.000Z</time>
      </trkpt>
      <trkpt lat="42.7591001987457275390625" lon="-0.80324448645114898681640625">
        <ele>1067.199951171875</ele>
        <time>2020-08-20T09:37:18.000Z</time>
      </trkpt>
      <trkpt lat="42.7590983547270298004150390625" lon="-0.8032510243356227874755859375">
        <ele>1067</ele>
        <time>2020-08-20T09:37:20.000Z</time>
      </trkpt>
      <trkpt lat="42.7590876258909702301025390625" lon="-0.80327457748353481292724609375">
        <ele>1066.199951171875</ele>
        <time>2020-08-20T09:37:31.000Z</time>
      </trkpt>
      <trkpt lat="42.759087793529033660888671875" lon="-0.8032805286347866058349609375">
        <ele>1066.199951171875</ele>
        <time>2020-08-20T09:37:32.000Z</time>
      </trkpt>
      <trkpt lat="42.7591053955256938934326171875" lon="-0.80332553945481777191162109375">
        <ele>1065.5999755859375</ele>
        <time>2020-08-20T09:37:38.000Z</time>
      </trkpt>
      <trkpt lat="42.75912056677043437957763671875" lon="-0.80340131185948848724365234375">
        <ele>1065</ele>
        <time>2020-08-20T09:37:44.000Z</time>
      </trkpt>
      <trkpt lat="42.75912056677043437957763671875" lon="-0.803422518074512481689453125">
        <ele>1064.4000244140625</ele>
        <time>2020-08-20T09:37:46.000Z</time>
      </trkpt>
      <trkpt lat="42.7591188065707683563232421875" lon="-0.80343282781541347503662109375">
        <ele>1064.199951171875</ele>
        <time>2020-08-20T09:37:47.000Z</time>
      </trkpt>
      <trkpt lat="42.7591141127049922943115234375" lon="-0.80344908870756626129150390625">
        <ele>1064</ele>
        <time>2020-08-20T09:37:51.000Z</time>
      </trkpt>
      <trkpt lat="42.75911386124789714813232421875" lon="-0.8034498430788516998291015625">
        <ele>1063.800048828125</ele>
        <time>2020-08-20T09:37:52.000Z</time>
      </trkpt>
      <trkpt lat="42.759114615619182586669921875" lon="-0.8034521900117397308349609375">
        <ele>1063.5999755859375</ele>
        <time>2020-08-20T09:38:09.000Z</time>
      </trkpt>
      <trkpt lat="42.75911469943821430206298828125" lon="-0.80345227383077144622802734375">
        <ele>1063.4000244140625</ele>
        <time>2020-08-20T09:38:34.000Z</time>
      </trkpt>
      <trkpt lat="42.75911562144756317138671875" lon="-0.803464092314243316650390625">
        <ele>1063.5999755859375</ele>
        <time>2020-08-20T09:38:53.000Z</time>
      </trkpt>
      <trkpt lat="42.759113274514675140380859375" lon="-0.80349468626081943511962890625">
        <ele>1063.5999755859375</ele>
        <time>2020-08-20T09:38:55.000Z</time>
      </trkpt>
      <trkpt lat="42.759107239544391632080078125" lon="-0.803526453673839569091796875">
        <ele>1063.199951171875</ele>
        <time>2020-08-20T09:38:57.000Z</time>
      </trkpt>
      <trkpt lat="42.75909910909831523895263671875" lon="-0.80356660299003124237060546875">
        <ele>1063</ele>
        <time>2020-08-20T09:39:00.000Z</time>
      </trkpt>
      <trkpt lat="42.75909894146025180816650390625" lon="-0.8036313951015472412109375">
        <ele>1062.4000244140625</ele>
        <time>2020-08-20T09:39:04.000Z</time>
      </trkpt>
      <trkpt lat="42.75909340940415859222412109375" lon="-0.80369266681373119354248046875">
        <ele>1061.800048828125</ele>
        <time>2020-08-20T09:39:08.000Z</time>
      </trkpt>
      <trkpt lat="42.7590881288051605224609375" lon="-0.80374245531857013702392578125">
        <ele>1061.800048828125</ele>
        <time>2020-08-20T09:39:12.000Z</time>
      </trkpt>
      <trkpt lat="42.7590827643871307373046875" lon="-0.80380414612591266632080078125">
        <ele>1060.5999755859375</ele>
        <time>2020-08-20T09:39:17.000Z</time>
      </trkpt>
      <trkpt lat="42.75908217765390872955322265625" lon="-0.803842954337596893310546875">
        <ele>1059.800048828125</ele>
        <time>2020-08-20T09:39:20.000Z</time>
      </trkpt>
      <trkpt lat="42.759083099663257598876953125" lon="-0.80386416055262088775634765625">
        <ele>1059.5999755859375</ele>
        <time>2020-08-20T09:39:22.000Z</time>
      </trkpt>
      <trkpt lat="42.7590846084058284759521484375" lon="-0.80389802344143390655517578125">
        <ele>1059.5999755859375</ele>
        <time>2020-08-20T09:39:25.000Z</time>
      </trkpt>
      <trkpt lat="42.75908485986292362213134765625" lon="-0.8039118535816669464111328125">
        <ele>1059.5999755859375</ele>
        <time>2020-08-20T09:39:26.000Z</time>
      </trkpt>
      <trkpt lat="42.75909148156642913818359375" lon="-0.803999193012714385986328125">
        <ele>1058.800048828125</ele>
        <time>2020-08-20T09:39:33.000Z</time>
      </trkpt>
      <trkpt lat="42.75909290648996829986572265625" lon="-0.80401134677231311798095703125">
        <ele>1058.5999755859375</ele>
        <time>2020-08-20T09:39:34.000Z</time>
      </trkpt>
      <trkpt lat="42.759097851812839508056640625" lon="-0.8040912263095378875732421875">
        <ele>1058.4000244140625</ele>
        <time>2020-08-20T09:39:41.000Z</time>
      </trkpt>
      <trkpt lat="42.75910279713571071624755859375" lon="-0.8041307888925075531005859375">
        <ele>1057.5999755859375</ele>
        <time>2020-08-20T09:39:44.000Z</time>
      </trkpt>
      <trkpt lat="42.75910883210599422454833984375" lon="-0.80418594181537628173828125">
        <ele>1057.199951171875</ele>
        <time>2020-08-20T09:39:49.000Z</time>
      </trkpt>
      <trkpt lat="42.75911067612469196319580078125" lon="-0.80419776029884815216064453125">
        <ele>1057.199951171875</ele>
        <time>2020-08-20T09:39:50.000Z</time>
      </trkpt>
      <trkpt lat="42.759114615619182586669921875" lon="-0.8042471297085285186767578125">
        <ele>1056.5999755859375</ele>
        <time>2020-08-20T09:39:54.000Z</time>
      </trkpt>
      <trkpt lat="42.75911536999046802520751953125" lon="-0.80426028929650783538818359375">
        <ele>1056.4000244140625</ele>
        <time>2020-08-20T09:39:55.000Z</time>
      </trkpt>
      <trkpt lat="42.75912425480782985687255859375" lon="-0.80434620380401611328125">
        <ele>1055.4000244140625</ele>
        <time>2020-08-20T09:40:01.000Z</time>
      </trkpt>
      <trkpt lat="42.75912324897944927215576171875" lon="-0.80436221323907375335693359375">
        <ele>1055.199951171875</ele>
        <time>2020-08-20T09:40:02.000Z</time>
      </trkpt>
      <trkpt lat="42.759122662246227264404296875" lon="-0.80449414439499378204345703125">
        <ele>1055.199951171875</ele>
        <time>2020-08-20T09:40:10.000Z</time>
      </trkpt>
      <trkpt lat="42.7591345645487308502197265625" lon="-0.804565809667110443115234375">
        <ele>1054.4000244140625</ele>
        <time>2020-08-20T09:40:16.000Z</time>
      </trkpt>
      <trkpt lat="42.759130038321018218994140625" lon="-0.8046856708824634552001953125">
        <ele>1053.4000244140625</ele>
        <time>2020-08-20T09:40:24.000Z</time>
      </trkpt>
      <trkpt lat="42.75911252014338970184326171875" lon="-0.8047818951308727264404296875">
        <ele>1053.5999755859375</ele>
        <time>2020-08-20T09:40:31.000Z</time>
      </trkpt>
      <trkpt lat="42.75909022428095340728759765625" lon="-0.80488457344472408294677734375">
        <ele>1053.4000244140625</ele>
        <time>2020-08-20T09:40:39.000Z</time>
      </trkpt>
      <trkpt lat="42.7590520866215229034423828125" lon="-0.804976858198642730712890625">
        <ele>1052.4000244140625</ele>
        <time>2020-08-20T09:40:47.000Z</time>
      </trkpt>
      <trkpt lat="42.75904127396643161773681640625" lon="-0.80500225536525249481201171875">
        <ele>1052.4000244140625</ele>
        <time>2020-08-20T09:40:49.000Z</time>
      </trkpt>
      <trkpt lat="42.7590353228151798248291015625" lon="-0.80501616932451725006103515625">
        <ele>1052.199951171875</ele>
        <time>2020-08-20T09:40:50.000Z</time>
      </trkpt>
      <trkpt lat="42.75902249850332736968994140625" lon="-0.80505589954555034637451171875">
        <ele>1052</ele>
        <time>2020-08-20T09:40:53.000Z</time>
      </trkpt>
      <trkpt lat="42.75900422595441341400146484375" lon="-0.8051027543842792510986328125">
        <ele>1051.4000244140625</ele>
        <time>2020-08-20T09:40:57.000Z</time>
      </trkpt>
      <trkpt lat="42.75899081490933895111083984375" lon="-0.80515824258327484130859375">
        <ele>1051</ele>
        <time>2020-08-20T09:41:01.000Z</time>
      </trkpt>
      <trkpt lat="42.75898276828229427337646484375" lon="-0.8052031695842742919921875">
        <ele>1050.4000244140625</ele>
        <time>2020-08-20T09:41:04.000Z</time>
      </trkpt>
      <trkpt lat="42.7589726261794567108154296875" lon="-0.8052667044103145599365234375">
        <ele>1050.4000244140625</ele>
        <time>2020-08-20T09:41:08.000Z</time>
      </trkpt>
      <trkpt lat="42.75895913131535053253173828125" lon="-0.80530584789812564849853515625">
        <ele>1050.199951171875</ele>
        <time>2020-08-20T09:41:14.000Z</time>
      </trkpt>
      <trkpt lat="42.75898075662553310394287109375" lon="-0.80540525726974010467529296875">
        <ele>1049.800048828125</ele>
        <time>2020-08-20T09:41:21.000Z</time>
      </trkpt>
      <trkpt lat="42.75899416767060756683349609375" lon="-0.80548354424536228179931640625">
        <ele>1049.5999755859375</ele>
        <time>2020-08-20T09:41:28.000Z</time>
      </trkpt>
      <trkpt lat="42.75899282656610012054443359375" lon="-0.80548689700663089752197265625">
        <ele>1049.4000244140625</ele>
        <time>2020-08-20T09:41:33.000Z</time>
      </trkpt>
      <trkpt lat="42.7589937485754489898681640625" lon="-0.80548840574920177459716796875">
        <ele>1049.4000244140625</ele>
        <time>2020-08-20T09:41:36.000Z</time>
      </trkpt>
      <trkpt lat="42.75899115018546581268310546875" lon="-0.80550332553684711456298828125">
        <ele>1049.4000244140625</ele>
        <time>2020-08-20T09:41:37.000Z</time>
      </trkpt>
      <trkpt lat="42.758974134922027587890625" lon="-0.80561916343867778778076171875">
        <ele>1049.4000244140625</ele>
        <time>2020-08-20T09:41:43.000Z</time>
      </trkpt>
      <trkpt lat="42.758958376944065093994140625" lon="-0.80571706406772136688232421875">
        <ele>1049.4000244140625</ele>
        <time>2020-08-20T09:41:48.000Z</time>
      </trkpt>
      <trkpt lat="42.75892057456076145172119140625" lon="-0.80590951256453990936279296875">
        <ele>1048.800048828125</ele>
        <time>2020-08-20T09:41:55.000Z</time>
      </trkpt>
      <trkpt lat="42.75890867225825786590576171875" lon="-0.805967934429645538330078125">
        <ele>1048.4000244140625</ele>
        <time>2020-08-20T09:41:57.000Z</time>
      </trkpt>
      <trkpt lat="42.75888687931001186370849609375" lon="-0.8061561919748783111572265625">
        <ele>1048.5999755859375</ele>
        <time>2020-08-20T09:42:03.000Z</time>
      </trkpt>
      <trkpt lat="42.75887648575007915496826171875" lon="-0.80635777674615383148193359375">
        <ele>1048.4000244140625</ele>
        <time>2020-08-20T09:42:09.000Z</time>
      </trkpt>
      <trkpt lat="42.75892510078847408294677734375" lon="-0.80652742646634578704833984375">
        <ele>1047.4000244140625</ele>
        <time>2020-08-20T09:42:14.000Z</time>
      </trkpt>
      <trkpt lat="42.758932895958423614501953125" lon="-0.80654234625399112701416015625">
        <ele>1047</ele>
        <time>2020-08-20T09:42:15.000Z</time>
      </trkpt>
      <trkpt lat="42.75893482379615306854248046875" lon="-0.80655324272811412811279296875">
        <ele>1047.199951171875</ele>
        <time>2020-08-20T09:42:20.000Z</time>
      </trkpt>
      <trkpt lat="42.7589582093060016632080078125" lon="-0.80663203261792659759521484375">
        <ele>1046.800048828125</ele>
        <time>2020-08-20T09:42:27.000Z</time>
      </trkpt>
      <trkpt lat="42.7589897252619266510009765625" lon="-0.8067181147634983062744140625">
        <ele>1046.800048828125</ele>
        <time>2020-08-20T09:42:36.000Z</time>
      </trkpt>
      <trkpt lat="42.75900724343955516815185546875" lon="-0.80675440840423107147216796875">
        <ele>1046.199951171875</ele>
        <time>2020-08-20T09:42:41.000Z</time>
      </trkpt>
      <trkpt lat="42.75900699198246002197265625" lon="-0.80675507895648479461669921875">
        <ele>1046</ele>
        <time>2020-08-20T09:42:42.000Z</time>
      </trkpt>
      <trkpt lat="42.759030126035213470458984375" lon="-0.8068084716796875">
        <ele>1045.199951171875</ele>
        <time>2020-08-20T09:42:48.000Z</time>
      </trkpt>
      <trkpt lat="42.75906910188496112823486328125" lon="-0.80688365735113620758056640625">
        <ele>1044.199951171875</ele>
        <time>2020-08-20T09:42:56.000Z</time>
      </trkpt>
      <trkpt lat="42.75906893424689769744873046875" lon="-0.80688516609370708465576171875">
        <ele>1044</ele>
        <time>2020-08-20T09:42:57.000Z</time>
      </trkpt>
      <trkpt lat="42.75909910909831523895263671875" lon="-0.80693378113210201263427734375">
        <ele>1043.800048828125</ele>
        <time>2020-08-20T09:43:03.000Z</time>
      </trkpt>
      <trkpt lat="42.75912710465490818023681640625" lon="-0.80698340199887752532958984375">
        <ele>1043</ele>
        <time>2020-08-20T09:43:08.000Z</time>
      </trkpt>
      <trkpt lat="42.75913548655807971954345703125" lon="-0.80699882470071315765380859375">
        <ele>1042.800048828125</ele>
        <time>2020-08-20T09:43:10.000Z</time>
      </trkpt>
      <trkpt lat="42.7591647394001483917236328125" lon="-0.80706219188868999481201171875">
        <ele>1041.800048828125</ele>
        <time>2020-08-20T09:43:17.000Z</time>
      </trkpt>
      <trkpt lat="42.75918175466358661651611328125" lon="-0.80709203146398067474365234375">
        <ele>1041.199951171875</ele>
        <time>2020-08-20T09:43:20.000Z</time>
      </trkpt>
      <trkpt lat="42.75920740328729152679443359375" lon="-0.8071410655975341796875">
        <ele>1040.5999755859375</ele>
        <time>2020-08-20T09:43:25.000Z</time>
      </trkpt>
      <trkpt lat="42.7592160366475582122802734375" lon="-0.807159841060638427734375">
        <ele>1040.4000244140625</ele>
        <time>2020-08-20T09:43:27.000Z</time>
      </trkpt>
      <trkpt lat="42.75924344547092914581298828125" lon="-0.80721004866063594818115234375">
        <ele>1039.5999755859375</ele>
        <time>2020-08-20T09:43:32.000Z</time>
      </trkpt>
      <trkpt lat="42.75925383903086185455322265625" lon="-0.807246677577495574951171875">
        <ele>1039.199951171875</ele>
        <time>2020-08-20T09:43:36.000Z</time>
      </trkpt>
      <trkpt lat="42.75925568304955959320068359375" lon="-0.80726671032607555389404296875">
        <ele>1038.4000244140625</ele>
        <time>2020-08-20T09:43:38.000Z</time>
      </trkpt>
      <trkpt lat="42.75926674716174602508544921875" lon="-0.8073199354112148284912109375">
        <ele>1037.199951171875</ele>
        <time>2020-08-20T09:43:42.000Z</time>
      </trkpt>
      <trkpt lat="42.75927144102752208709716796875" lon="-0.8073326759040355682373046875">
        <ele>1037</ele>
        <time>2020-08-20T09:43:43.000Z</time>
      </trkpt>
      <trkpt lat="42.7593239955604076385498046875" lon="-0.80743351019918918609619140625">
        <ele>1036</ele>
        <time>2020-08-20T09:43:51.000Z</time>
      </trkpt>
      <trkpt lat="42.7593283541500568389892578125" lon="-0.8074483461678028106689453125">
        <ele>1036</ele>
        <time>2020-08-20T09:43:52.000Z</time>
      </trkpt>
      <trkpt lat="42.7593571878969669342041015625" lon="-0.80753291957080364227294921875">
        <ele>1034.800048828125</ele>
        <time>2020-08-20T09:43:58.000Z</time>
      </trkpt>
      <trkpt lat="42.75936917401850223541259765625" lon="-0.80756175331771373748779296875">
        <ele>1034.5999755859375</ele>
        <time>2020-08-20T09:44:00.000Z</time>
      </trkpt>
      <trkpt lat="42.75940395891666412353515625" lon="-0.80767792649567127227783203125">
        <ele>1033.800048828125</ele>
        <time>2020-08-20T09:44:08.000Z</time>
      </trkpt>
      <trkpt lat="42.75941158644855022430419921875" lon="-0.80770659260451793670654296875">
        <ele>1033.199951171875</ele>
        <time>2020-08-20T09:44:10.000Z</time>
      </trkpt>
      <trkpt lat="42.7594359777867794036865234375" lon="-0.8078429661691188812255859375">
        <ele>1033</ele>
        <time>2020-08-20T09:44:19.000Z</time>
      </trkpt>
      <trkpt lat="42.75943371467292308807373046875" lon="-0.80787473358213901519775390625">
        <ele>1032.4000244140625</ele>
        <time>2020-08-20T09:44:21.000Z</time>
      </trkpt>
      <trkpt lat="42.75942315347492694854736328125" lon="-0.80794463865458965301513671875">
        <ele>1031.5999755859375</ele>
        <time>2020-08-20T09:44:25.000Z</time>
      </trkpt>
      <trkpt lat="42.7594208903610706329345703125" lon="-0.807962156832218170166015625">
        <ele>1031.4000244140625</ele>
        <time>2020-08-20T09:44:26.000Z</time>
      </trkpt>
      <trkpt lat="42.7594098262488842010498046875" lon="-0.80804186873137950897216796875">
        <ele>1030.199951171875</ele>
        <time>2020-08-20T09:44:31.000Z</time>
      </trkpt>
      <trkpt lat="42.7594031207263469696044921875" lon="-0.80807958729565143585205078125">
        <ele>1029.4000244140625</ele>
        <time>2020-08-20T09:44:34.000Z</time>
      </trkpt>
      <trkpt lat="42.7594021148979663848876953125" lon="-0.8081500791013240814208984375">
        <ele>1029.199951171875</ele>
        <time>2020-08-20T09:44:39.000Z</time>
      </trkpt>
      <trkpt lat="42.7594135142862796783447265625" lon="-0.808198191225528717041015625">
        <ele>1028</ele>
        <time>2020-08-20T09:44:43.000Z</time>
      </trkpt>
      <trkpt lat="42.75941544212400913238525390625" lon="-0.8082018792629241943359375">
        <ele>1027</ele>
        <time>2020-08-20T09:44:51.000Z</time>
      </trkpt>
      <trkpt lat="42.75941736996173858642578125" lon="-0.80822937190532684326171875">
        <ele>1027</ele>
        <time>2020-08-20T09:44:54.000Z</time>
      </trkpt>
      <trkpt lat="42.75941309519112110137939453125" lon="-0.808272622525691986083984375">
        <ele>1027</ele>
        <time>2020-08-20T09:44:58.000Z</time>
      </trkpt>
      <trkpt lat="42.7594104968011379241943359375" lon="-0.80830170772969722747802734375">
        <ele>1026.4000244140625</ele>
        <time>2020-08-20T09:45:01.000Z</time>
      </trkpt>
      <trkpt lat="42.7594071440398693084716796875" lon="-0.80832333303987979888916015625">
        <ele>1026.4000244140625</ele>
        <time>2020-08-20T09:45:03.000Z</time>
      </trkpt>
      <trkpt lat="42.7594037912786006927490234375" lon="-0.80833188258111476898193359375">
        <ele>1026.199951171875</ele>
        <time>2020-08-20T09:45:04.000Z</time>
      </trkpt>
      <trkpt lat="42.759378142654895782470703125" lon="-0.808383263647556304931640625">
        <ele>1025.4000244140625</ele>
        <time>2020-08-20T09:45:10.000Z</time>
      </trkpt>
      <trkpt lat="42.75937655009329319000244140625" lon="-0.80839633941650390625">
        <ele>1025</ele>
        <time>2020-08-20T09:45:12.000Z</time>
      </trkpt>
      <trkpt lat="42.75936615653336048126220703125" lon="-0.8084300346672534942626953125">
        <ele>1024.5999755859375</ele>
        <time>2020-08-20T09:45:17.000Z</time>
      </trkpt>
      <trkpt lat="42.75935693643987178802490234375" lon="-0.8084635622799396514892578125">
        <ele>1023.5999755859375</ele>
        <time>2020-08-20T09:45:22.000Z</time>
      </trkpt>
      <trkpt lat="42.75935157202184200286865234375" lon="-0.80847479403018951416015625">
        <ele>1023.20001220703125</ele>
        <time>2020-08-20T09:45:24.000Z</time>
      </trkpt>
      <trkpt lat="42.75933648459613323211669921875" lon="-0.80853422172367572784423828125">
        <ele>1022.5999755859375</ele>
        <time>2020-08-20T09:45:30.000Z</time>
      </trkpt>
      <trkpt lat="42.759319134056568145751953125" lon="-0.80862709321081638336181640625">
        <ele>1021.5999755859375</ele>
        <time>2020-08-20T09:45:38.000Z</time>
      </trkpt>
      <trkpt lat="42.759291641414165496826171875" lon="-0.80869951285421848297119140625">
        <ele>1020.5999755859375</ele>
        <time>2020-08-20T09:45:46.000Z</time>
      </trkpt>
      <trkpt lat="42.7592854388058185577392578125" lon="-0.8087096549570560455322265625">
        <ele>1020.4000244140625</ele>
        <time>2020-08-20T09:45:47.000Z</time>
      </trkpt>
      <trkpt lat="42.75924998335540294647216796875" lon="-0.8087944798171520233154296875">
        <ele>1019.79998779296875</ele>
        <time>2020-08-20T09:45:54.000Z</time>
      </trkpt>
      <trkpt lat="42.7592455409467220306396484375" lon="-0.80880596302449703216552734375">
        <ele>1019.5999755859375</ele>
        <time>2020-08-20T09:45:55.000Z</time>
      </trkpt>
      <trkpt lat="42.75919876992702484130859375" lon="-0.80883689224720001220703125">
        <ele>1018.79998779296875</ele>
        <time>2020-08-20T09:46:01.000Z</time>
      </trkpt>
      <trkpt lat="42.7591915614902973175048828125" lon="-0.80884150229394435882568359375">
        <ele>1018.5999755859375</ele>
        <time>2020-08-20T09:46:02.000Z</time>
      </trkpt>
      <trkpt lat="42.75917219929397106170654296875" lon="-0.80886094830930233001708984375">
        <ele>1018.4000244140625</ele>
        <time>2020-08-20T09:46:06.000Z</time>
      </trkpt>
      <trkpt lat="42.759136073291301727294921875" lon="-0.808945186436176300048828125">
        <ele>1017.4000244140625</ele>
        <time>2020-08-20T09:46:13.000Z</time>
      </trkpt>
      <trkpt lat="42.75909977965056896209716796875" lon="-0.80905742011964321136474609375">
        <ele>1016.5999755859375</ele>
        <time>2020-08-20T09:46:21.000Z</time>
      </trkpt>
      <trkpt lat="42.75909575633704662322998046875" lon="-0.80907150171697139739990234375">
        <ele>1016.4000244140625</ele>
        <time>2020-08-20T09:46:22.000Z</time>
      </trkpt>
      <trkpt lat="42.7590557746589183807373046875" lon="-0.80917761661112308502197265625">
        <ele>1016.4000244140625</ele>
        <time>2020-08-20T09:46:30.000Z</time>
      </trkpt>
      <trkpt lat="42.75902534835040569305419921875" lon="-0.80923981033265590667724609375">
        <ele>1015.79998779296875</ele>
        <time>2020-08-20T09:46:36.000Z</time>
      </trkpt>
      <trkpt lat="42.7590219117701053619384765625" lon="-0.8092467673122882843017578125">
        <ele>1015.79998779296875</ele>
        <time>2020-08-20T09:46:37.000Z</time>
      </trkpt>
      <trkpt lat="42.75901461951434612274169921875" lon="-0.80926747061312198638916015625">
        <ele>1015.4000244140625</ele>
        <time>2020-08-20T09:46:42.000Z</time>
      </trkpt>
      <trkpt lat="42.75900020264089107513427734375" lon="-0.80932631157338619232177734375">
        <ele>1014.5999755859375</ele>
        <time>2020-08-20T09:46:49.000Z</time>
      </trkpt>
      <trkpt lat="42.75898897089064121246337890625" lon="-0.80935330130159854888916015625">
        <ele>1014.20001220703125</ele>
        <time>2020-08-20T09:46:52.000Z</time>
      </trkpt>
      <trkpt lat="42.7589709497988224029541015625" lon="-0.80940778367221355438232421875">
        <ele>1013.79998779296875</ele>
        <time>2020-08-20T09:46:58.000Z</time>
      </trkpt>
      <trkpt lat="42.7589701116085052490234375" lon="-0.809418596327304840087890625">
        <ele>1013.79998779296875</ele>
        <time>2020-08-20T09:46:59.000Z</time>
      </trkpt>
      <trkpt lat="42.75897120125591754913330078125" lon="-0.80948338843882083892822265625">
        <ele>1013.5999755859375</ele>
        <time>2020-08-20T09:47:04.000Z</time>
      </trkpt>
      <trkpt lat="42.758974470198154449462890625" lon="-0.80948690883815288543701171875">
        <ele>1013.4000244140625</ele>
        <time>2020-08-20T09:47:12.000Z</time>
      </trkpt>
      <trkpt lat="42.75896944105625152587890625" lon="-0.8095099590718746185302734375">
        <ele>1013.4000244140625</ele>
        <time>2020-08-20T09:47:17.000Z</time>
      </trkpt>
      <trkpt lat="42.7589672617614269256591796875" lon="-0.80952177755534648895263671875">
        <ele>1013.4000244140625</ele>
        <time>2020-08-20T09:47:19.000Z</time>
      </trkpt>
      <trkpt lat="42.75896483100950717926025390625" lon="-0.80953267402946949005126953125">
        <ele>1013</ele>
        <time>2020-08-20T09:47:26.000Z</time>
      </trkpt>
      <trkpt lat="42.758960723876953125" lon="-0.809538625180721282958984375">
        <ele>1012.4000244140625</ele>
        <time>2020-08-20T09:47:31.000Z</time>
      </trkpt>
      <trkpt lat="42.758960388600826263427734375" lon="-0.80954365432262420654296875">
        <ele>1012.4000244140625</ele>
        <time>2020-08-20T09:47:34.000Z</time>
      </trkpt>
      <trkpt lat="42.75895929895341396331787109375" lon="-0.8095568977296352386474609375">
        <ele>1012</ele>
        <time>2020-08-20T09:47:40.000Z</time>
      </trkpt>
      <trkpt lat="42.75895862840116024017333984375" lon="-0.809574164450168609619140625">
        <ele>1011.4000244140625</ele>
        <time>2020-08-20T09:47:46.000Z</time>
      </trkpt>
      <trkpt lat="42.75895879603922367095947265625" lon="-0.8095750026404857635498046875">
        <ele>1011.4000244140625</ele>
        <time>2020-08-20T09:47:47.000Z</time>
      </trkpt>
      <trkpt lat="42.758954353630542755126953125" lon="-0.80962168984115123748779296875">
        <ele>1011</ele>
        <time>2020-08-20T09:47:54.000Z</time>
      </trkpt>
      <trkpt lat="42.75895695202052593231201171875" lon="-0.80965538509190082550048828125">
        <ele>1010.5999755859375</ele>
        <time>2020-08-20T09:48:00.000Z</time>
      </trkpt>
      <trkpt lat="42.75896332226693630218505859375" lon="-0.80970165319740772247314453125">
        <ele>1010.5999755859375</ele>
        <time>2020-08-20T09:48:04.000Z</time>
      </trkpt>
      <trkpt lat="42.75896667502820491790771484375" lon="-0.809722356498241424560546875">
        <ele>1010.20001220703125</ele>
        <time>2020-08-20T09:48:06.000Z</time>
      </trkpt>
      <trkpt lat="42.75896944105625152587890625" lon="-0.80974155105650424957275390625">
        <ele>1010</ele>
        <time>2020-08-20T09:48:08.000Z</time>
      </trkpt>
      <trkpt lat="42.75897656567394733428955078125" lon="-0.809759907424449920654296875">
        <ele>1009.79998779296875</ele>
        <time>2020-08-20T09:48:10.000Z</time>
      </trkpt>
      <trkpt lat="42.75898058898746967315673828125" lon="-0.8097768388688564300537109375">
        <ele>1009.4000244140625</ele>
        <time>2020-08-20T09:48:12.000Z</time>
      </trkpt>
      <trkpt lat="42.75898687541484832763671875" lon="-0.80979737453162670135498046875">
        <ele>1009</ele>
        <time>2020-08-20T09:48:14.000Z</time>
      </trkpt>
      <trkpt lat="42.75900154374539852142333984375" lon="-0.80985018052160739898681640625">
        <ele>1008.79998779296875</ele>
        <time>2020-08-20T09:48:21.000Z</time>
      </trkpt>
      <trkpt lat="42.75899064727127552032470703125" lon="-0.8099050819873809814453125">
        <ele>1008.4000244140625</ele>
        <time>2020-08-20T09:48:27.000Z</time>
      </trkpt>
      <trkpt lat="42.75898897089064121246337890625" lon="-0.80991254188120365142822265625">
        <ele>1008.20001220703125</ele>
        <time>2020-08-20T09:48:28.000Z</time>
      </trkpt>
      <trkpt lat="42.75895343162119388580322265625" lon="-0.80996207892894744873046875">
        <ele>1007.20001220703125</ele>
        <time>2020-08-20T09:48:35.000Z</time>
      </trkpt>
      <trkpt lat="42.7589424513280391693115234375" lon="-0.80996886827051639556884765625">
        <ele>1006.79998779296875</ele>
        <time>2020-08-20T09:48:37.000Z</time>
      </trkpt>
      <trkpt lat="42.7589057385921478271484375" lon="-0.8099924214184284210205078125">
        <ele>1006.20001220703125</ele>
        <time>2020-08-20T09:48:42.000Z</time>
      </trkpt>
      <trkpt lat="42.7588988654315471649169921875" lon="-0.8100111968815326690673828125">
        <ele>1006</ele>
        <time>2020-08-20T09:48:44.000Z</time>
      </trkpt>
      <trkpt lat="42.7589042298495769500732421875" lon="-0.8100594766438007354736328125">
        <ele>1005.4000244140625</ele>
        <time>2020-08-20T09:48:50.000Z</time>
      </trkpt>
      <trkpt lat="42.7589075826108455657958984375" lon="-0.81010130234062671661376953125">
        <ele>1005</ele>
        <time>2020-08-20T09:48:55.000Z</time>
      </trkpt>
      <trkpt lat="42.75890917517244815826416015625" lon="-0.81011823378503322601318359375">
        <ele>1004.5999755859375</ele>
        <time>2020-08-20T09:48:58.000Z</time>
      </trkpt>
      <trkpt lat="42.75891822762787342071533203125" lon="-0.81014824099838733673095703125">
        <ele>1004.20001220703125</ele>
        <time>2020-08-20T09:49:02.000Z</time>
      </trkpt>
      <trkpt lat="42.75892526842653751373291015625" lon="-0.81017690710723400115966796875">
        <ele>1003.5999755859375</ele>
        <time>2020-08-20T09:49:06.000Z</time>
      </trkpt>
      <trkpt lat="42.75892845354974269866943359375" lon="-0.810192413628101348876953125">
        <ele>1003.20001220703125</ele>
        <time>2020-08-20T09:49:09.000Z</time>
      </trkpt>
      <trkpt lat="42.7589307166635990142822265625" lon="-0.8102237619459629058837890625">
        <ele>1002.5999755859375</ele>
        <time>2020-08-20T09:49:13.000Z</time>
      </trkpt>
      <trkpt lat="42.75892845354974269866943359375" lon="-0.8102318085730075836181640625">
        <ele>1002.20001220703125</ele>
        <time>2020-08-20T09:49:16.000Z</time>
      </trkpt>
      <trkpt lat="42.75891152210533618927001953125" lon="-0.8102509193122386932373046875">
        <ele>1002</ele>
        <time>2020-08-20T09:49:20.000Z</time>
      </trkpt>
      <trkpt lat="42.758884616196155548095703125" lon="-0.8102807588875293731689453125">
        <ele>1001.20001220703125</ele>
        <time>2020-08-20T09:49:27.000Z</time>
      </trkpt>
      <trkpt lat="42.75887581519782543182373046875" lon="-0.81030732952058315277099609375">
        <ele>1000.20001220703125</ele>
        <time>2020-08-20T09:49:31.000Z</time>
      </trkpt>
      <trkpt lat="42.75888495147228240966796875" lon="-0.810361392796039581298828125">
        <ele>999.20001220703125</ele>
        <time>2020-08-20T09:49:38.000Z</time>
      </trkpt>
      <trkpt lat="42.75888537056744098663330078125" lon="-0.81037337891757488250732421875">
        <ele>999</ele>
        <time>2020-08-20T09:49:39.000Z</time>
      </trkpt>
      <trkpt lat="42.7588834427297115325927734375" lon="-0.81040573306381702423095703125">
        <ele>999</ele>
        <time>2020-08-20T09:49:42.000Z</time>
      </trkpt>
      <trkpt lat="42.75889576412737369537353515625" lon="-0.81042434088885784149169921875">
        <ele>998.5999755859375</ele>
        <time>2020-08-20T09:49:45.000Z</time>
      </trkpt>
      <trkpt lat="42.75891973637044429779052734375" lon="-0.81045920960605144500732421875">
        <ele>998</ele>
        <time>2020-08-20T09:49:50.000Z</time>
      </trkpt>
      <trkpt lat="42.75893096812069416046142578125" lon="-0.8104871213436126708984375">
        <ele>997.5999755859375</ele>
        <time>2020-08-20T09:49:53.000Z</time>
      </trkpt>
      <trkpt lat="42.7589458040893077850341796875" lon="-0.8105228282511234283447265625">
        <ele>997</ele>
        <time>2020-08-20T09:49:57.000Z</time>
      </trkpt>
      <trkpt lat="42.7589625678956508636474609375" lon="-0.8105570264160633087158203125">
        <ele>996.4000244140625</ele>
        <time>2020-08-20T09:50:01.000Z</time>
      </trkpt>
      <trkpt lat="42.75897773914039134979248046875" lon="-0.81057772971689701080322265625">
        <ele>996</ele>
        <time>2020-08-20T09:50:04.000Z</time>
      </trkpt>
      <trkpt lat="42.75899366475641727447509765625" lon="-0.8105925656855106353759765625">
        <ele>995.5999755859375</ele>
        <time>2020-08-20T09:50:08.000Z</time>
      </trkpt>
      <trkpt lat="42.7590296231210231781005859375" lon="-0.81063036806881427764892578125">
        <ele>994.79998779296875</ele>
        <time>2020-08-20T09:50:16.000Z</time>
      </trkpt>
      <trkpt lat="42.75905854068696498870849609375" lon="-0.81067546270787715911865234375">
        <ele>993.79998779296875</ele>
        <time>2020-08-20T09:50:22.000Z</time>
      </trkpt>
      <trkpt lat="42.75906843133270740509033203125" lon="-0.810692310333251953125">
        <ele>993.4000244140625</ele>
        <time>2020-08-20T09:50:24.000Z</time>
      </trkpt>
      <trkpt lat="42.75907270610332489013671875" lon="-0.81070102751255035400390625">
        <ele>993.20001220703125</ele>
        <time>2020-08-20T09:50:25.000Z</time>
      </trkpt>
      <trkpt lat="42.7590839378535747528076171875" lon="-0.8107273466885089874267578125">
        <ele>992.5999755859375</ele>
        <time>2020-08-20T09:50:28.000Z</time>
      </trkpt>
      <trkpt lat="42.75908033363521099090576171875" lon="-0.810742266476154327392578125">
        <ele>992.20001220703125</ele>
        <time>2020-08-20T09:50:30.000Z</time>
      </trkpt>
      <trkpt lat="42.759048230946063995361328125" lon="-0.81077889539301395416259765625">
        <ele>991.5999755859375</ele>
        <time>2020-08-20T09:50:35.000Z</time>
      </trkpt>
      <trkpt lat="42.75902442634105682373046875" lon="-0.8107823319733142852783203125">
        <ele>991.20001220703125</ele>
        <time>2020-08-20T09:50:38.000Z</time>
      </trkpt>
      <trkpt lat="42.7589756436645984649658203125" lon="-0.8107875287532806396484375">
        <ele>990.5999755859375</ele>
        <time>2020-08-20T09:50:46.000Z</time>
      </trkpt>
      <trkpt lat="42.75897539220750331878662109375" lon="-0.81078727729618549346923828125">
        <ele>990.4000244140625</ele>
        <time>2020-08-20T09:50:47.000Z</time>
      </trkpt>
      <trkpt lat="42.75894421152770519256591796875" lon="-0.81080605275928974151611328125">
        <ele>990.20001220703125</ele>
        <time>2020-08-20T09:50:56.000Z</time>
      </trkpt>
      <trkpt lat="42.75890984572470188140869140625" lon="-0.81081728450953960418701171875">
        <ele>989.20001220703125</ele>
        <time>2020-08-20T09:51:01.000Z</time>
      </trkpt>
      <trkpt lat="42.7588923275470733642578125" lon="-0.81080739386379718780517578125">
        <ele>988.79998779296875</ele>
        <time>2020-08-20T09:51:05.000Z</time>
      </trkpt>
      <trkpt lat="42.75885276496410369873046875" lon="-0.8107786439359188079833984375">
        <ele>988.4000244140625</ele>
        <time>2020-08-20T09:51:11.000Z</time>
      </trkpt>
      <trkpt lat="42.75884480215609073638916015625" lon="-0.8107799850404262542724609375">
        <ele>988.20001220703125</ele>
        <time>2020-08-20T09:51:12.000Z</time>
      </trkpt>
      <trkpt lat="42.75883801281452178955078125" lon="-0.81078493036329746246337890625">
        <ele>988</ele>
        <time>2020-08-20T09:51:13.000Z</time>
      </trkpt>
      <trkpt lat="42.7588284574449062347412109375" lon="-0.8108614571392536163330078125">
        <ele>987.20001220703125</ele>
        <time>2020-08-20T09:51:20.000Z</time>
      </trkpt>
      <trkpt lat="42.7588294632732868194580078125" lon="-0.81087310798466205596923828125">
        <ele>987</ele>
        <time>2020-08-20T09:51:21.000Z</time>
      </trkpt>
      <trkpt lat="42.75884262286126613616943359375" lon="-0.8109291829168796539306640625">
        <ele>986</ele>
        <time>2020-08-20T09:51:26.000Z</time>
      </trkpt>
      <trkpt lat="42.75886374525725841522216796875" lon="-0.81096514128148555755615234375">
        <ele>985.4000244140625</ele>
        <time>2020-08-20T09:51:30.000Z</time>
      </trkpt>
      <trkpt lat="42.758908085525035858154296875" lon="-0.81103554926812648773193359375">
        <ele>985</ele>
        <time>2020-08-20T09:51:37.000Z</time>
      </trkpt>
      <trkpt lat="42.7589189819991588592529296875" lon="-0.8110559172928333282470703125">
        <ele>984.5999755859375</ele>
        <time>2020-08-20T09:51:39.000Z</time>
      </trkpt>
      <trkpt lat="42.75894203223288059234619140625" lon="-0.81109791062772274017333984375">
        <ele>984</ele>
        <time>2020-08-20T09:51:43.000Z</time>
      </trkpt>
      <trkpt lat="42.7589639090001583099365234375" lon="-0.81112883985042572021484375">
        <ele>983.5999755859375</ele>
        <time>2020-08-20T09:51:47.000Z</time>
      </trkpt>
      <trkpt lat="42.75897882878780364990234375" lon="-0.81116496585309505462646484375">
        <ele>983</ele>
        <time>2020-08-20T09:51:51.000Z</time>
      </trkpt>
      <trkpt lat="42.7589860372245311737060546875" lon="-0.811195559799671173095703125">
        <ele>982.5999755859375</ele>
        <time>2020-08-20T09:51:54.000Z</time>
      </trkpt>
      <trkpt lat="42.75896382518112659454345703125" lon="-0.81122062169015407562255859375">
        <ele>982</ele>
        <time>2020-08-20T09:51:58.000Z</time>
      </trkpt>
      <trkpt lat="42.7589545212686061859130859375" lon="-0.81121928058564662933349609375">
        <ele>982</ele>
        <time>2020-08-20T09:51:59.000Z</time>
      </trkpt>
      <trkpt lat="42.758944965898990631103515625" lon="-0.81121441908180713653564453125">
        <ele>981.79998779296875</ele>
        <time>2020-08-20T09:52:00.000Z</time>
      </trkpt>
      <trkpt lat="42.7588941715657711029052734375" lon="-0.811173431575298309326171875">
        <ele>980.79998779296875</ele>
        <time>2020-08-20T09:52:06.000Z</time>
      </trkpt>
      <trkpt lat="42.758888639509677886962890625" lon="-0.81116647459566593170166015625">
        <ele>980.4000244140625</ele>
        <time>2020-08-20T09:52:10.000Z</time>
      </trkpt>
      <trkpt lat="42.75885452516376972198486328125" lon="-0.81112137995660305023193359375">
        <ele>980</ele>
        <time>2020-08-20T09:52:19.000Z</time>
      </trkpt>
      <trkpt lat="42.75879987515509128570556640625" lon="-0.8110260777175426483154296875">
        <ele>980</ele>
        <time>2020-08-20T09:52:27.000Z</time>
      </trkpt>
      <trkpt lat="42.7587845362722873687744140625" lon="-0.81100353039801120758056640625">
        <ele>980</ele>
        <time>2020-08-20T09:52:29.000Z</time>
      </trkpt>
      <trkpt lat="42.758747823536396026611328125" lon="-0.81096178852021694183349609375">
        <ele>979.4000244140625</ele>
        <time>2020-08-20T09:52:34.000Z</time>
      </trkpt>
      <trkpt lat="42.75873298756778240203857421875" lon="-0.8109479583799839019775390625">
        <ele>979</ele>
        <time>2020-08-20T09:52:36.000Z</time>
      </trkpt>
      <trkpt lat="42.758723683655261993408203125" lon="-0.81094636581838130950927734375">
        <ele>978.79998779296875</ele>
        <time>2020-08-20T09:52:37.000Z</time>
      </trkpt>
      <trkpt lat="42.75870784185826778411865234375" lon="-0.810969583690166473388671875">
        <ele>978.5999755859375</ele>
        <time>2020-08-20T09:52:40.000Z</time>
      </trkpt>
      <trkpt lat="42.75870792567729949951171875" lon="-0.81098022870719432830810546875">
        <ele>978.5999755859375</ele>
        <time>2020-08-20T09:52:41.000Z</time>
      </trkpt>
      <trkpt lat="42.75871471501886844635009765625" lon="-0.81101140938699245452880859375">
        <ele>977.79998779296875</ele>
        <time>2020-08-20T09:52:44.000Z</time>
      </trkpt>
      <trkpt lat="42.75872108526527881622314453125" lon="-0.81104493699967861175537109375">
        <ele>977.5999755859375</ele>
        <time>2020-08-20T09:52:47.000Z</time>
      </trkpt>
      <trkpt lat="42.7587325684726238250732421875" lon="-0.81112104468047618865966796875">
        <ele>976.79998779296875</ele>
        <time>2020-08-20T09:52:53.000Z</time>
      </trkpt>
      <trkpt lat="42.75873608887195587158203125" lon="-0.81113160587847232818603515625">
        <ele>976.5999755859375</ele>
        <time>2020-08-20T09:52:54.000Z</time>
      </trkpt>
      <trkpt lat="42.75875612162053585052490234375" lon="-0.811201594769954681396484375">
        <ele>975.79998779296875</ele>
        <time>2020-08-20T09:53:00.000Z</time>
      </trkpt>
      <trkpt lat="42.75875980965793132781982421875" lon="-0.8112232200801372528076171875">
        <ele>975.5999755859375</ele>
        <time>2020-08-20T09:53:02.000Z</time>
      </trkpt>
      <trkpt lat="42.75875863619148731231689453125" lon="-0.81123411655426025390625">
        <ele>975.5999755859375</ele>
        <time>2020-08-20T09:53:03.000Z</time>
      </trkpt>
      <trkpt lat="42.7587536908686161041259765625" lon="-0.811290778219699859619140625">
        <ele>974.79998779296875</ele>
        <time>2020-08-20T09:53:10.000Z</time>
      </trkpt>
      <trkpt lat="42.75875084102153778076171875" lon="-0.8113056980073451995849609375">
        <ele>974.5999755859375</ele>
        <time>2020-08-20T09:53:12.000Z</time>
      </trkpt>
      <trkpt lat="42.75874354876577854156494140625" lon="-0.811347775161266326904296875">
        <ele>974</ele>
        <time>2020-08-20T09:53:17.000Z</time>
      </trkpt>
      <trkpt lat="42.7587449736893177032470703125" lon="-0.8113781176507472991943359375">
        <ele>973.4000244140625</ele>
        <time>2020-08-20T09:53:20.000Z</time>
      </trkpt>
      <trkpt lat="42.7587473206222057342529296875" lon="-0.81141843460500240325927734375">
        <ele>972.5999755859375</ele>
        <time>2020-08-20T09:53:24.000Z</time>
      </trkpt>
      <trkpt lat="42.7587443031370639801025390625" lon="-0.81142882816493511199951171875">
        <ele>972.20001220703125</ele>
        <time>2020-08-20T09:53:25.000Z</time>
      </trkpt>
      <trkpt lat="42.75871622376143932342529296875" lon="-0.81142933107912540435791015625">
        <ele>971.79998779296875</ele>
        <time>2020-08-20T09:53:30.000Z</time>
      </trkpt>
      <trkpt lat="42.75870499201118946075439453125" lon="-0.81139831803739070892333984375">
        <ele>971.20001220703125</ele>
        <time>2020-08-20T09:53:33.000Z</time>
      </trkpt>
      <trkpt lat="42.758681774139404296875" lon="-0.81135121174156665802001953125">
        <ele>970.20001220703125</ele>
        <time>2020-08-20T09:53:38.000Z</time>
      </trkpt>
      <trkpt lat="42.75866727344691753387451171875" lon="-0.81134517677128314971923828125">
        <ele>970.20001220703125</ele>
        <time>2020-08-20T09:53:40.000Z</time>
      </trkpt>
      <trkpt lat="42.75864682160317897796630859375" lon="-0.8113714121282100677490234375">
        <ele>969.5999755859375</ele>
        <time>2020-08-20T09:53:44.000Z</time>
      </trkpt>
      <trkpt lat="42.75865067727863788604736328125" lon="-0.8114079572260379791259765625">
        <ele>969.4000244140625</ele>
        <time>2020-08-20T09:53:47.000Z</time>
      </trkpt>
      <trkpt lat="42.75865285657346248626708984375" lon="-0.81143938936293125152587890625">
        <ele>968.79998779296875</ele>
        <time>2020-08-20T09:53:50.000Z</time>
      </trkpt>
      <trkpt lat="42.75865805335342884063720703125" lon="-0.81149806268513202667236328125">
        <ele>968.20001220703125</ele>
        <time>2020-08-20T09:53:54.000Z</time>
      </trkpt>
      <trkpt lat="42.75866207666695117950439453125" lon="-0.8115412294864654541015625">
        <ele>968.20001220703125</ele>
        <time>2020-08-20T09:53:58.000Z</time>
      </trkpt>
      <trkpt lat="42.7586772479116916656494140625" lon="-0.81163636408746242523193359375">
        <ele>967.20001220703125</ele>
        <time>2020-08-20T09:54:05.000Z</time>
      </trkpt>
      <trkpt lat="42.758683450520038604736328125" lon="-0.81164843402802944183349609375">
        <ele>967</ele>
        <time>2020-08-20T09:54:06.000Z</time>
      </trkpt>
      <trkpt lat="42.75870432145893573760986328125" lon="-0.81169654615223407745361328125">
        <ele>966.4000244140625</ele>
        <time>2020-08-20T09:54:12.000Z</time>
      </trkpt>
      <trkpt lat="42.75870717130601406097412109375" lon="-0.81170392222702503204345703125">
        <ele>966.20001220703125</ele>
        <time>2020-08-20T09:54:13.000Z</time>
      </trkpt>
      <trkpt lat="42.75870851241052150726318359375" lon="-0.8117083646357059478759765625">
        <ele>965.4000244140625</ele>
        <time>2020-08-20T09:54:19.000Z</time>
      </trkpt>
      <trkpt lat="42.7587087638676166534423828125" lon="-0.8117070235311985015869140625">
        <ele>965.79998779296875</ele>
        <time>2020-08-20T09:54:41.000Z</time>
      </trkpt>
      <trkpt lat="42.75871454738080501556396484375" lon="-0.8117263019084930419921875">
        <ele>965.79998779296875</ele>
        <time>2020-08-20T09:54:49.000Z</time>
      </trkpt>
      <trkpt lat="42.75872544385492801666259765625" lon="-0.8117489330470561981201171875">
        <ele>965.4000244140625</ele>
        <time>2020-08-20T09:54:55.000Z</time>
      </trkpt>
      <trkpt lat="42.7587260305881500244140625" lon="-0.8117531239986419677734375">
        <ele>965.4000244140625</ele>
        <time>2020-08-20T09:54:57.000Z</time>
      </trkpt>
      <trkpt lat="42.7587365917861461639404296875" lon="-0.811770223081111907958984375">
        <ele>965</ele>
        <time>2020-08-20T09:55:02.000Z</time>
      </trkpt>
      <trkpt lat="42.75875025428831577301025390625" lon="-0.81179528497159481048583984375">
        <ele>964.5999755859375</ele>
        <time>2020-08-20T09:55:10.000Z</time>
      </trkpt>
      <trkpt lat="42.75875260122120380401611328125" lon="-0.81180131994187831878662109375">
        <ele>964.4000244140625</ele>
        <time>2020-08-20T09:55:13.000Z</time>
      </trkpt>
      <trkpt lat="42.7587677724659442901611328125" lon="-0.8118200115859508514404296875">
        <ele>964</ele>
        <time>2020-08-20T09:55:17.000Z</time>
      </trkpt>
      <trkpt lat="42.75879568420350551605224609375" lon="-0.81184708513319492340087890625">
        <ele>963.5999755859375</ele>
        <time>2020-08-20T09:55:26.000Z</time>
      </trkpt>
      <trkpt lat="42.75881261564791202545166015625" lon="-0.81185278482735157012939453125">
        <ele>963.20001220703125</ele>
        <time>2020-08-20T09:55:31.000Z</time>
      </trkpt>
      <trkpt lat="42.7588145434856414794921875" lon="-0.81185161136090755462646484375">
        <ele>962.79998779296875</ele>
        <time>2020-08-20T09:55:35.000Z</time>
      </trkpt>
      <trkpt lat="42.7588212490081787109375" lon="-0.8118548803031444549560546875">
        <ele>962.20001220703125</ele>
        <time>2020-08-20T09:55:45.000Z</time>
      </trkpt>
      <trkpt lat="42.75882451795041561126708984375" lon="-0.81185630522668361663818359375">
        <ele>962.20001220703125</ele>
        <time>2020-08-20T09:55:47.000Z</time>
      </trkpt>
      <trkpt lat="42.75885100476443767547607421875" lon="-0.811891257762908935546875">
        <ele>961.20001220703125</ele>
        <time>2020-08-20T09:55:55.000Z</time>
      </trkpt>
      <trkpt lat="42.75885703973472118377685546875" lon="-0.81190827302634716033935546875">
        <ele>961.20001220703125</ele>
        <time>2020-08-20T09:55:57.000Z</time>
      </trkpt>
      <trkpt lat="42.75885754264891147613525390625" lon="-0.81192101351916790008544921875">
        <ele>961</ele>
        <time>2020-08-20T09:56:02.000Z</time>
      </trkpt>
      <trkpt lat="42.75886123068630695343017578125" lon="-0.8119943551719188690185546875">
        <ele>960.20001220703125</ele>
        <time>2020-08-20T09:56:10.000Z</time>
      </trkpt>
      <trkpt lat="42.75882954709231853485107421875" lon="-0.81200768239796161651611328125">
        <ele>959.4000244140625</ele>
        <time>2020-08-20T09:56:16.000Z</time>
      </trkpt>
      <trkpt lat="42.75882636196911334991455078125" lon="-0.81200298853218555450439453125">
        <ele>959</ele>
        <time>2020-08-20T09:56:18.000Z</time>
      </trkpt>
      <trkpt lat="42.758820243179798126220703125" lon="-0.81199997104704380035400390625">
        <ele>959</ele>
        <time>2020-08-20T09:56:22.000Z</time>
      </trkpt>
      <trkpt lat="42.7588183991611003875732421875" lon="-0.81200055778026580810546875">
        <ele>958.79998779296875</ele>
        <time>2020-08-20T09:56:36.000Z</time>
      </trkpt>
      <trkpt lat="42.7588177286088466644287109375" lon="-0.81198580563068389892578125">
        <ele>959</ele>
        <time>2020-08-20T09:56:48.000Z</time>
      </trkpt>
      <trkpt lat="42.7587882243096828460693359375" lon="-0.81195764243602752685546875">
        <ele>958.20001220703125</ele>
        <time>2020-08-20T09:56:55.000Z</time>
      </trkpt>
      <trkpt lat="42.75878436863422393798828125" lon="-0.8119635097682476043701171875">
        <ele>958.20001220703125</ele>
        <time>2020-08-20T09:56:56.000Z</time>
      </trkpt>
      <trkpt lat="42.7587899006903171539306640625" lon="-0.812026374042034149169921875">
        <ele>957.4000244140625</ele>
        <time>2020-08-20T09:57:03.000Z</time>
      </trkpt>
      <trkpt lat="42.7587909065186977386474609375" lon="-0.81203483976423740386962890625">
        <ele>957.20001220703125</ele>
        <time>2020-08-20T09:57:04.000Z</time>
      </trkpt>
      <trkpt lat="42.75879451073706150054931640625" lon="-0.81209845840930938720703125">
        <ele>956.20001220703125</ele>
        <time>2020-08-20T09:57:10.000Z</time>
      </trkpt>
      <trkpt lat="42.7587949298322200775146484375" lon="-0.812111198902130126953125">
        <ele>956</ele>
        <time>2020-08-20T09:57:11.000Z</time>
      </trkpt>
      <trkpt lat="42.75880222208797931671142578125" lon="-0.81218638457357883453369140625">
        <ele>955</ele>
        <time>2020-08-20T09:57:17.000Z</time>
      </trkpt>
      <trkpt lat="42.75880255736410617828369140625" lon="-0.81220717169344425201416015625">
        <ele>954.4000244140625</ele>
        <time>2020-08-20T09:57:19.000Z</time>
      </trkpt>
      <trkpt lat="42.75880808942019939422607421875" lon="-0.81227020360529422760009765625">
        <ele>954.20001220703125</ele>
        <time>2020-08-20T09:57:26.000Z</time>
      </trkpt>
      <trkpt lat="42.758813202381134033203125" lon="-0.81229451112449169158935546875">
        <ele>953.79998779296875</ele>
        <time>2020-08-20T09:57:29.000Z</time>
      </trkpt>
      <trkpt lat="42.75881663896143436431884765625" lon="-0.81233658827841281890869140625">
        <ele>952.79998779296875</ele>
        <time>2020-08-20T09:57:34.000Z</time>
      </trkpt>
      <trkpt lat="42.75881923735141754150390625" lon="-0.81234580837190151214599609375">
        <ele>952.5999755859375</ele>
        <time>2020-08-20T09:57:35.000Z</time>
      </trkpt>
      <trkpt lat="42.75881714187562465667724609375" lon="-0.81239392049610614776611328125">
        <ele>951.5999755859375</ele>
        <time>2020-08-20T09:57:41.000Z</time>
      </trkpt>
      <trkpt lat="42.75878931395709514617919921875" lon="-0.81234882585704326629638671875">
        <ele>951.20001220703125</ele>
        <time>2020-08-20T09:57:48.000Z</time>
      </trkpt>
      <trkpt lat="42.75874706916511058807373046875" lon="-0.81230339594185352325439453125">
        <ele>950.5999755859375</ele>
        <time>2020-08-20T09:57:56.000Z</time>
      </trkpt>
      <trkpt lat="42.75870499201118946075439453125" lon="-0.81227037124335765838623046875">
        <ele>949.79998779296875</ele>
        <time>2020-08-20T09:58:04.000Z</time>
      </trkpt>
      <trkpt lat="42.75870314799249172210693359375" lon="-0.8122699521481990814208984375">
        <ele>949.5999755859375</ele>
        <time>2020-08-20T09:58:05.000Z</time>
      </trkpt>
      <trkpt lat="42.75869719684123992919921875" lon="-0.8122930862009525299072265625">
        <ele>949.20001220703125</ele>
        <time>2020-08-20T09:58:11.000Z</time>
      </trkpt>
      <trkpt lat="42.7586993761360645294189453125" lon="-0.8123517595231533050537109375">
        <ele>948.79998779296875</ele>
        <time>2020-08-20T09:58:20.000Z</time>
      </trkpt>
      <trkpt lat="42.75870046578347682952880859375" lon="-0.812359638512134552001953125">
        <ele>948.5999755859375</ele>
        <time>2020-08-20T09:58:21.000Z</time>
      </trkpt>
      <trkpt lat="42.75870884768664836883544921875" lon="-0.81240314058959484100341796875">
        <ele>947.79998779296875</ele>
        <time>2020-08-20T09:58:26.000Z</time>
      </trkpt>
      <trkpt lat="42.7587094344198703765869140625" lon="-0.8124154619872570037841796875">
        <ele>947.79998779296875</ele>
        <time>2020-08-20T09:58:27.000Z</time>
      </trkpt>
      <trkpt lat="42.75871060788631439208984375" lon="-0.81243583001196384429931640625">
        <ele>947.5999755859375</ele>
        <time>2020-08-20T09:58:29.000Z</time>
      </trkpt>
      <trkpt lat="42.75872192345559597015380859375" lon="-0.8124902285635471343994140625">
        <ele>946.79998779296875</ele>
        <time>2020-08-20T09:58:35.000Z</time>
      </trkpt>
      <trkpt lat="42.75872326456010341644287109375" lon="-0.8125173859298229217529296875">
        <ele>946.4000244140625</ele>
        <time>2020-08-20T09:58:38.000Z</time>
      </trkpt>
      <trkpt lat="42.75873474776744842529296875" lon="-0.81256792880594730377197265625">
        <ele>946.20001220703125</ele>
        <time>2020-08-20T09:58:42.000Z</time>
      </trkpt>
      <trkpt lat="42.75872946716845035552978515625" lon="-0.81261402927339076995849609375">
        <ele>945.4000244140625</ele>
        <time>2020-08-20T09:58:46.000Z</time>
      </trkpt>
      <trkpt lat="42.75873114354908466339111328125" lon="-0.81262593157589435577392578125">
        <ele>945.20001220703125</ele>
        <time>2020-08-20T09:58:47.000Z</time>
      </trkpt>
      <trkpt lat="42.75873147882521152496337890625" lon="-0.812644623219966888427734375">
        <ele>945.20001220703125</ele>
        <time>2020-08-20T09:58:49.000Z</time>
      </trkpt>
      <trkpt lat="42.75873533450067043304443359375" lon="-0.81267773173749446868896484375">
        <ele>944.5999755859375</ele>
        <time>2020-08-20T09:58:56.000Z</time>
      </trkpt>
      <trkpt lat="42.75874623097479343414306640625" lon="-0.81270572729408740997314453125">
        <ele>944.4000244140625</ele>
        <time>2020-08-20T09:58:59.000Z</time>
      </trkpt>
      <trkpt lat="42.7587657608091831207275390625" lon="-0.81275166012346744537353515625">
        <ele>943.4000244140625</ele>
        <time>2020-08-20T09:59:04.000Z</time>
      </trkpt>
      <trkpt lat="42.7587714605033397674560546875" lon="-0.81276339478790760040283203125">
        <ele>943.20001220703125</ele>
        <time>2020-08-20T09:59:05.000Z</time>
      </trkpt>
      <trkpt lat="42.7587823569774627685546875" lon="-0.812829695641994476318359375">
        <ele>942.79998779296875</ele>
        <time>2020-08-20T09:59:11.000Z</time>
      </trkpt>
      <trkpt lat="42.7587798424065113067626953125" lon="-0.81285643391311168670654296875">
        <ele>942.20001220703125</ele>
        <time>2020-08-20T09:59:13.000Z</time>
      </trkpt>
      <trkpt lat="42.758760564029216766357421875" lon="-0.81290639005601406097412109375">
        <ele>941.5999755859375</ele>
        <time>2020-08-20T09:59:18.000Z</time>
      </trkpt>
      <trkpt lat="42.75873047299683094024658203125" lon="-0.81292189657688140869140625">
        <ele>941.20001220703125</ele>
        <time>2020-08-20T09:59:23.000Z</time>
      </trkpt>
      <trkpt lat="42.75870566256344318389892578125" lon="-0.8129354752600193023681640625">
        <ele>940.79998779296875</ele>
        <time>2020-08-20T09:59:27.000Z</time>
      </trkpt>
      <trkpt lat="42.75869786739349365234375" lon="-0.8129413425922393798828125">
        <ele>940.4000244140625</ele>
        <time>2020-08-20T09:59:28.000Z</time>
      </trkpt>
      <trkpt lat="42.75869543664157390594482421875" lon="-0.812969841063022613525390625">
        <ele>939.79998779296875</ele>
        <time>2020-08-20T09:59:31.000Z</time>
      </trkpt>
      <trkpt lat="42.7587040700018405914306640625" lon="-0.81298568286001682281494140625">
        <ele>939.4000244140625</ele>
        <time>2020-08-20T09:59:33.000Z</time>
      </trkpt>
      <trkpt lat="42.75870599783957004547119140625" lon="-0.8129923045635223388671875">
        <ele>939.20001220703125</ele>
        <time>2020-08-20T09:59:34.000Z</time>
      </trkpt>
      <trkpt lat="42.75871337391436100006103515625" lon="-0.813031531870365142822265625">
        <ele>939</ele>
        <time>2020-08-20T09:59:40.000Z</time>
      </trkpt>
      <trkpt lat="42.75869526900351047515869140625" lon="-0.81307771615684032440185546875">
        <ele>938.20001220703125</ele>
        <time>2020-08-20T09:59:46.000Z</time>
      </trkpt>
      <trkpt lat="42.75869409553706645965576171875" lon="-0.8130813203752040863037109375">
        <ele>938</ele>
        <time>2020-08-20T09:59:47.000Z</time>
      </trkpt>
      <trkpt lat="42.75867481715977191925048828125" lon="-0.81311627291142940521240234375">
        <ele>937.79998779296875</ele>
        <time>2020-08-20T09:59:54.000Z</time>
      </trkpt>
      <trkpt lat="42.75865252129733562469482421875" lon="-0.81315851770341396331787109375">
        <ele>937</ele>
        <time>2020-08-20T10:00:01.000Z</time>
      </trkpt>
      <trkpt lat="42.75865050964057445526123046875" lon="-0.81316790543496608734130859375">
        <ele>936.79998779296875</ele>
        <time>2020-08-20T10:00:02.000Z</time>
      </trkpt>
      <trkpt lat="42.75865972973406314849853515625" lon="-0.81321853213012218475341796875">
        <ele>936</ele>
        <time>2020-08-20T10:00:08.000Z</time>
      </trkpt>
      <trkpt lat="42.75868068449199199676513671875" lon="-0.813253819942474365234375">
        <ele>935.20001220703125</ele>
        <time>2020-08-20T10:00:15.000Z</time>
      </trkpt>
      <trkpt lat="42.75868512690067291259765625" lon="-0.81326412968337535858154296875">
        <ele>935</ele>
        <time>2020-08-20T10:00:17.000Z</time>
      </trkpt>
      <trkpt lat="42.7586953528225421905517578125" lon="-0.8132932148873805999755859375">
        <ele>934.20001220703125</ele>
        <time>2020-08-20T10:00:21.000Z</time>
      </trkpt>
      <trkpt lat="42.758708260953426361083984375" lon="-0.81332498230040073394775390625">
        <ele>933.79998779296875</ele>
        <time>2020-08-20T10:00:26.000Z</time>
      </trkpt>
      <trkpt lat="42.7587080933153629302978515625" lon="-0.813328921794891357421875">
        <ele>933.5999755859375</ele>
        <time>2020-08-20T10:00:28.000Z</time>
      </trkpt>
      <trkpt lat="42.75869376026093959808349609375" lon="-0.8133649639785289764404296875">
        <ele>933.5999755859375</ele>
        <time>2020-08-20T10:00:35.000Z</time>
      </trkpt>
      <trkpt lat="42.758662998676300048828125" lon="-0.813390277326107025146484375">
        <ele>933</ele>
        <time>2020-08-20T10:00:39.000Z</time>
      </trkpt>
      <trkpt lat="42.75865537114441394805908203125" lon="-0.81340695731341838836669921875">
        <ele>932.5999755859375</ele>
        <time>2020-08-20T10:00:41.000Z</time>
      </trkpt>
      <trkpt lat="42.75864330120384693145751953125" lon="-0.813447944819927215576171875">
        <ele>932</ele>
        <time>2020-08-20T10:00:45.000Z</time>
      </trkpt>
      <trkpt lat="42.7586407028138637542724609375" lon="-0.8134662173688411712646484375">
        <ele>931.20001220703125</ele>
        <time>2020-08-20T10:00:49.000Z</time>
      </trkpt>
      <trkpt lat="42.75863592512905597686767578125" lon="-0.81347535364329814910888671875">
        <ele>931</ele>
        <time>2020-08-20T10:00:51.000Z</time>
      </trkpt>
      <trkpt lat="42.75862452574074268341064453125" lon="-0.8135151676833629608154296875">
        <ele>930.4000244140625</ele>
        <time>2020-08-20T10:00:57.000Z</time>
      </trkpt>
      <trkpt lat="42.75861647911369800567626953125" lon="-0.8135299198329448699951171875">
        <ele>929.79998779296875</ele>
        <time>2020-08-20T10:00:59.000Z</time>
      </trkpt>
      <trkpt lat="42.75862276554107666015625" lon="-0.8135743439197540283203125">
        <ele>929</ele>
        <time>2020-08-20T10:01:05.000Z</time>
      </trkpt>
      <trkpt lat="42.75862469337880611419677734375" lon="-0.81357576884329319000244140625">
        <ele>928.79998779296875</ele>
        <time>2020-08-20T10:01:06.000Z</time>
      </trkpt>
      <trkpt lat="42.75865218602120876312255859375" lon="-0.81360611133277416229248046875">
        <ele>928.5999755859375</ele>
        <time>2020-08-20T10:01:11.000Z</time>
      </trkpt>
      <trkpt lat="42.75868554599583148956298828125" lon="-0.81365221180021762847900390625">
        <ele>927.5999755859375</ele>
        <time>2020-08-20T10:01:17.000Z</time>
      </trkpt>
      <trkpt lat="42.758687473833560943603515625" lon="-0.81365908496081829071044921875">
        <ele>927.4000244140625</ele>
        <time>2020-08-20T10:01:18.000Z</time>
      </trkpt>
      <trkpt lat="42.75867666117846965789794921875" lon="-0.81367953680455684661865234375">
        <ele>927.20001220703125</ele>
        <time>2020-08-20T10:01:21.000Z</time>
      </trkpt>
      <trkpt lat="42.75866140611469745635986328125" lon="-0.8136791177093982696533203125">
        <ele>926.79998779296875</ele>
        <time>2020-08-20T10:01:24.000Z</time>
      </trkpt>
      <trkpt lat="42.75863952934741973876953125" lon="-0.81367048434913158416748046875">
        <ele>926.5999755859375</ele>
        <time>2020-08-20T10:01:28.000Z</time>
      </trkpt>
      <trkpt lat="42.7586393617093563079833984375" lon="-0.81366595812141895294189453125">
        <ele>926</ele>
        <time>2020-08-20T10:01:31.000Z</time>
      </trkpt>
      <trkpt lat="42.75864011608064174652099609375" lon="-0.8136653713881969451904296875">
        <ele>926.20001220703125</ele>
        <time>2020-08-20T10:01:47.000Z</time>
      </trkpt>
      <trkpt lat="42.758642546832561492919921875" lon="-0.81365506164729595184326171875">
        <ele>926</ele>
        <time>2020-08-20T10:02:04.000Z</time>
      </trkpt>
      <trkpt lat="42.75864313356578350067138671875" lon="-0.81365413963794708251953125">
        <ele>925.5999755859375</ele>
        <time>2020-08-20T10:02:20.000Z</time>
      </trkpt>
      <trkpt lat="42.75864313356578350067138671875" lon="-0.81365405581891536712646484375">
        <ele>925.5999755859375</ele>
        <time>2020-08-20T10:02:23.000Z</time>
      </trkpt>
      <trkpt lat="42.75864330120384693145751953125" lon="-0.81365288235247135162353515625">
        <ele>926.4000244140625</ele>
        <time>2020-08-20T10:03:27.000Z</time>
      </trkpt>
      <trkpt lat="42.758641205728054046630859375" lon="-0.81366126425564289093017578125">
        <ele>926.79998779296875</ele>
        <time>2020-08-20T10:04:07.000Z</time>
      </trkpt>
      <trkpt lat="42.75864179246127605438232421875" lon="-0.8136616833508014678955078125">
        <ele>926.79998779296875</ele>
        <time>2020-08-20T10:04:11.000Z</time>
      </trkpt>
      <trkpt lat="42.7586296387016773223876953125" lon="-0.81365891732275485992431640625">
        <ele>927</ele>
        <time>2020-08-20T10:04:16.000Z</time>
      </trkpt>
      <trkpt lat="42.75857892818748950958251953125" lon="-0.8136633597314357757568359375">
        <ele>926.5999755859375</ele>
        <time>2020-08-20T10:04:23.000Z</time>
      </trkpt>
      <trkpt lat="42.758527882397174835205078125" lon="-0.813639052212238311767578125">
        <ele>926.20001220703125</ele>
        <time>2020-08-20T10:04:31.000Z</time>
      </trkpt>
      <trkpt lat="42.758497707545757293701171875" lon="-0.813664533197879791259765625">
        <ele>927.4000244140625</ele>
        <time>2020-08-20T10:04:39.000Z</time>
      </trkpt>
      <trkpt lat="42.758493013679981231689453125" lon="-0.81366964615881443023681640625">
        <ele>927.5999755859375</ele>
        <time>2020-08-20T10:04:41.000Z</time>
      </trkpt>
      <trkpt lat="42.758482955396175384521484375" lon="-0.81369529478251934051513671875">
        <ele>928</ele>
        <time>2020-08-20T10:04:50.000Z</time>
      </trkpt>
      <trkpt lat="42.7584739029407501220703125" lon="-0.81370803527534008026123046875">
        <ele>928.20001220703125</ele>
        <time>2020-08-20T10:04:52.000Z</time>
      </trkpt>
      <trkpt lat="42.75846426375210285186767578125" lon="-0.8137243799865245819091796875">
        <ele>928.5999755859375</ele>
        <time>2020-08-20T10:04:55.000Z</time>
      </trkpt>
      <trkpt lat="42.75844632647931575775146484375" lon="-0.81375061534345149993896484375">
        <ele>928.79998779296875</ele>
        <time>2020-08-20T10:04:59.000Z</time>
      </trkpt>
      <trkpt lat="42.75844096206128597259521484375" lon="-0.8138105459511280059814453125">
        <ele>929.79998779296875</ele>
        <time>2020-08-20T10:05:06.000Z</time>
      </trkpt>
      <trkpt lat="42.75844733230769634246826171875" lon="-0.8138487674295902252197265625">
        <ele>930</ele>
        <time>2020-08-20T10:05:11.000Z</time>
      </trkpt>
      <trkpt lat="42.758464850485324859619140625" lon="-0.81388489343225955963134765625">
        <ele>930</ele>
        <time>2020-08-20T10:05:14.000Z</time>
      </trkpt>
      <trkpt lat="42.75850273668766021728515625" lon="-0.81397826783359050750732421875">
        <ele>930</ele>
        <time>2020-08-20T10:05:23.000Z</time>
      </trkpt>
      <trkpt lat="42.7585208415985107421875" lon="-0.81401045434176921844482421875">
        <ele>930.5999755859375</ele>
        <time>2020-08-20T10:05:31.000Z</time>
      </trkpt>
      <trkpt lat="42.758567444980144500732421875" lon="-0.81410164944827556610107421875">
        <ele>930.4000244140625</ele>
        <time>2020-08-20T10:05:40.000Z</time>
      </trkpt>
      <trkpt lat="42.75858295150101184844970703125" lon="-0.8141324110329151153564453125">
        <ele>930.4000244140625</ele>
        <time>2020-08-20T10:05:43.000Z</time>
      </trkpt>
      <trkpt lat="42.7585991285741329193115234375" lon="-0.81416082568466663360595703125">
        <ele>930.5999755859375</ele>
        <time>2020-08-20T10:05:46.000Z</time>
      </trkpt>
      <trkpt lat="42.75862586684525012969970703125" lon="-0.8142480812966823577880859375">
        <ele>930.4000244140625</ele>
        <time>2020-08-20T10:05:53.000Z</time>
      </trkpt>
      <trkpt lat="42.75862737558782100677490234375" lon="-0.81429108045995235443115234375">
        <ele>930.4000244140625</ele>
        <time>2020-08-20T10:05:56.000Z</time>
      </trkpt>
      <trkpt lat="42.75864355266094207763671875" lon="-0.81434740684926509857177734375">
        <ele>930.5999755859375</ele>
        <time>2020-08-20T10:06:00.000Z</time>
      </trkpt>
      <trkpt lat="42.758655287325382232666015625" lon="-0.8143855445086956024169921875">
        <ele>930.79998779296875</ele>
        <time>2020-08-20T10:06:03.000Z</time>
      </trkpt>
      <trkpt lat="42.7586638368666172027587890625" lon="-0.8144192397594451904296875">
        <ele>931</ele>
        <time>2020-08-20T10:06:06.000Z</time>
      </trkpt>
      <trkpt lat="42.7586604841053485870361328125" lon="-0.81442737020552158355712890625">
        <ele>931</ele>
        <time>2020-08-20T10:06:07.000Z</time>
      </trkpt>
      <trkpt lat="42.75864380411803722381591796875" lon="-0.8144723810255527496337890625">
        <ele>931.5999755859375</ele>
        <time>2020-08-20T10:06:13.000Z</time>
      </trkpt>
      <trkpt lat="42.75864330120384693145751953125" lon="-0.81447489559650421142578125">
        <ele>931.79998779296875</ele>
        <time>2020-08-20T10:06:14.000Z</time>
      </trkpt>
      <trkpt lat="42.75865553878247737884521484375" lon="-0.8145045675337314605712890625">
        <ele>931.5999755859375</ele>
        <time>2020-08-20T10:06:23.000Z</time>
      </trkpt>
      <trkpt lat="42.758688144385814666748046875" lon="-0.814618058502674102783203125">
        <ele>931.4000244140625</ele>
        <time>2020-08-20T10:06:32.000Z</time>
      </trkpt>
      <trkpt lat="42.75869208388030529022216796875" lon="-0.814636833965778350830078125">
        <ele>931.20001220703125</ele>
        <time>2020-08-20T10:06:33.000Z</time>
      </trkpt>
      <trkpt lat="42.75870314799249172210693359375" lon="-0.8146981894969940185546875">
        <ele>931.20001220703125</ele>
        <time>2020-08-20T10:06:37.000Z</time>
      </trkpt>
      <trkpt lat="42.7587023936212062835693359375" lon="-0.8147598803043365478515625">
        <ele>931.4000244140625</ele>
        <time>2020-08-20T10:06:42.000Z</time>
      </trkpt>
      <trkpt lat="42.75869007222354412078857421875" lon="-0.8147898875176906585693359375">
        <ele>931</ele>
        <time>2020-08-20T10:06:45.000Z</time>
      </trkpt>
      <trkpt lat="42.75866643525660037994384765625" lon="-0.8148509077727794647216796875">
        <ele>930.79998779296875</ele>
        <time>2020-08-20T10:06:49.000Z</time>
      </trkpt>
      <trkpt lat="42.75864581577479839324951171875" lon="-0.8149449527263641357421875">
        <ele>932</ele>
        <time>2020-08-20T10:06:56.000Z</time>
      </trkpt>
      <trkpt lat="42.75863642804324626922607421875" lon="-0.8149675838649272918701171875">
        <ele>932.4000244140625</ele>
        <time>2020-08-20T10:06:58.000Z</time>
      </trkpt>
      <trkpt lat="42.75866140611469745635986328125" lon="-0.81502701155841350555419921875">
        <ele>933</ele>
        <time>2020-08-20T10:07:04.000Z</time>
      </trkpt>
      <trkpt lat="42.758668363094329833984375" lon="-0.81511988304555416107177734375">
        <ele>933</ele>
        <time>2020-08-20T10:07:12.000Z</time>
      </trkpt>
      <trkpt lat="42.75866777636110782623291015625" lon="-0.8152579329907894134521484375">
        <ele>932.79998779296875</ele>
        <time>2020-08-20T10:07:21.000Z</time>
      </trkpt>
      <trkpt lat="42.7586966939270496368408203125" lon="-0.81537720747292041778564453125">
        <ele>932.5999755859375</ele>
        <time>2020-08-20T10:07:28.000Z</time>
      </trkpt>
      <trkpt lat="42.7586857974529266357421875" lon="-0.815469659864902496337890625">
        <ele>932</ele>
        <time>2020-08-20T10:07:34.000Z</time>
      </trkpt>
      <trkpt lat="42.758654616773128509521484375" lon="-0.81552791409194469451904296875">
        <ele>931.4000244140625</ele>
        <time>2020-08-20T10:07:37.000Z</time>
      </trkpt>
      <trkpt lat="42.758620418608188629150390625" lon="-0.81557317636907100677490234375">
        <ele>931</ele>
        <time>2020-08-20T10:07:40.000Z</time>
      </trkpt>
      <trkpt lat="42.7586122043430805206298828125" lon="-0.81560519523918628692626953125">
        <ele>930.5999755859375</ele>
        <time>2020-08-20T10:07:43.000Z</time>
      </trkpt>
      <trkpt lat="42.758615724742412567138671875" lon="-0.8156374655663967132568359375">
        <ele>929.79998779296875</ele>
        <time>2020-08-20T10:07:46.000Z</time>
      </trkpt>
      <trkpt lat="42.75863206945359706878662109375" lon="-0.8156595937907695770263671875">
        <ele>929.5999755859375</ele>
        <time>2020-08-20T10:07:48.000Z</time>
      </trkpt>
      <trkpt lat="42.7586467377841472625732421875" lon="-0.8156823925673961639404296875">
        <ele>929.20001220703125</ele>
        <time>2020-08-20T10:07:50.000Z</time>
      </trkpt>
      <trkpt lat="42.75866056792438030242919921875" lon="-0.815705694258213043212890625">
        <ele>928.79998779296875</ele>
        <time>2020-08-20T10:07:52.000Z</time>
      </trkpt>
      <trkpt lat="42.75866903364658355712890625" lon="-0.81574785523116588592529296875">
        <ele>928.4000244140625</ele>
        <time>2020-08-20T10:07:56.000Z</time>
      </trkpt>
      <trkpt lat="42.7586643397808074951171875" lon="-0.8157779462635517120361328125">
        <ele>928</ele>
        <time>2020-08-20T10:07:58.000Z</time>
      </trkpt>
      <trkpt lat="42.75864698924124240875244140625" lon="-0.81581859849393367767333984375">
        <ele>927</ele>
        <time>2020-08-20T10:08:02.000Z</time>
      </trkpt>
      <trkpt lat="42.758646905422210693359375" lon="-0.8158322609961032867431640625">
        <ele>926.79998779296875</ele>
        <time>2020-08-20T10:08:04.000Z</time>
      </trkpt>
      <trkpt lat="42.7586490847170352935791015625" lon="-0.81585824489593505859375">
        <ele>926</ele>
        <time>2020-08-20T10:08:08.000Z</time>
      </trkpt>
      <trkpt lat="42.7586534433066844940185546875" lon="-0.81585162319242954254150390625">
        <ele>925.4000244140625</ele>
        <time>2020-08-20T10:08:11.000Z</time>
      </trkpt>
      <trkpt lat="42.75864749215543270111083984375" lon="-0.81589378416538238525390625">
        <ele>925.20001220703125</ele>
        <time>2020-08-20T10:08:16.000Z</time>
      </trkpt>
      <trkpt lat="42.75864346884191036224365234375" lon="-0.81590828485786914825439453125">
        <ele>924.79998779296875</ele>
        <time>2020-08-20T10:08:18.000Z</time>
      </trkpt>
      <trkpt lat="42.75864162482321262359619140625" lon="-0.81594617106020450592041015625">
        <ele>924</ele>
        <time>2020-08-20T10:08:22.000Z</time>
      </trkpt>
      <trkpt lat="42.758657634258270263671875" lon="-0.815993361175060272216796875">
        <ele>923</ele>
        <time>2020-08-20T10:08:27.000Z</time>
      </trkpt>
      <trkpt lat="42.758662663400173187255859375" lon="-0.81599981524050235748291015625">
        <ele>922.79998779296875</ele>
        <time>2020-08-20T10:08:28.000Z</time>
      </trkpt>
      <trkpt lat="42.75869543664157390594482421875" lon="-0.81603862345218658447265625">
        <ele>922</ele>
        <time>2020-08-20T10:08:36.000Z</time>
      </trkpt>
      <trkpt lat="42.7587017230689525604248046875" lon="-0.81604063510894775390625">
        <ele>921.79998779296875</ele>
        <time>2020-08-20T10:08:37.000Z</time>
      </trkpt>
      <trkpt lat="42.75872779078781604766845703125" lon="-0.8160639367997646331787109375">
        <ele>921</ele>
        <time>2020-08-20T10:08:42.000Z</time>
      </trkpt>
      <trkpt lat="42.75873566977679729461669921875" lon="-0.816075839102268218994140625">
        <ele>920.5999755859375</ele>
        <time>2020-08-20T10:08:44.000Z</time>
      </trkpt>
      <trkpt lat="42.75872745551168918609619140625" lon="-0.81611028872430324554443359375">
        <ele>919.79998779296875</ele>
        <time>2020-08-20T10:08:48.000Z</time>
      </trkpt>
      <trkpt lat="42.75872460566461086273193359375" lon="-0.81613996066153049468994140625">
        <ele>919.4000244140625</ele>
        <time>2020-08-20T10:08:51.000Z</time>
      </trkpt>
      <trkpt lat="42.75872343219816684722900390625" lon="-0.8161571435630321502685546875">
        <ele>918.79998779296875</ele>
        <time>2020-08-20T10:08:54.000Z</time>
      </trkpt>
      <trkpt lat="42.75873533450067043304443359375" lon="-0.81616678275167942047119140625">
        <ele>918.4000244140625</ele>
        <time>2020-08-20T10:08:57.000Z</time>
      </trkpt>
      <trkpt lat="42.75874405167996883392333984375" lon="-0.81617784686386585235595703125">
        <ele>917.79998779296875</ele>
        <time>2020-08-20T10:09:06.000Z</time>
      </trkpt>
      <trkpt lat="42.7587412856519222259521484375" lon="-0.8161916770040988922119140625">
        <ele>917.4000244140625</ele>
        <time>2020-08-20T10:09:14.000Z</time>
      </trkpt>
      <trkpt lat="42.75873416103422641754150390625" lon="-0.8162077702581882476806640625">
        <ele>916.79998779296875</ele>
        <time>2020-08-20T10:09:18.000Z</time>
      </trkpt>
      <trkpt lat="42.75873474776744842529296875" lon="-0.816230736672878265380859375">
        <ele>916.4000244140625</ele>
        <time>2020-08-20T10:09:22.000Z</time>
      </trkpt>
      <trkpt lat="42.7587523497641086578369140625" lon="-0.81625143997371196746826171875">
        <ele>915.79998779296875</ele>
        <time>2020-08-20T10:09:27.000Z</time>
      </trkpt>
      <trkpt lat="42.75875478051602840423583984375" lon="-0.81625127233564853668212890625">
        <ele>915.79998779296875</ele>
        <time>2020-08-20T10:09:28.000Z</time>
      </trkpt>
      <trkpt lat="42.75878495536744594573974609375" lon="-0.81623769365251064300537109375">
        <ele>914.79998779296875</ele>
        <time>2020-08-20T10:09:33.000Z</time>
      </trkpt>
      <trkpt lat="42.75880121625959873199462890625" lon="-0.81623115576803684234619140625">
        <ele>914.5999755859375</ele>
        <time>2020-08-20T10:09:35.000Z</time>
      </trkpt>
      <trkpt lat="42.75883440859615802764892578125" lon="-0.81624238751828670501708984375">
        <ele>913.79998779296875</ele>
        <time>2020-08-20T10:09:39.000Z</time>
      </trkpt>
      <trkpt lat="42.75883533060550689697265625" lon="-0.81626317463815212249755859375">
        <ele>913.4000244140625</ele>
        <time>2020-08-20T10:09:42.000Z</time>
      </trkpt>
      <trkpt lat="42.75883625261485576629638671875" lon="-0.816303156316280364990234375">
        <ele>912.79998779296875</ele>
        <time>2020-08-20T10:09:48.000Z</time>
      </trkpt>
      <trkpt lat="42.75883289985358715057373046875" lon="-0.8163120411336421966552734375">
        <ele>912.5999755859375</ele>
        <time>2020-08-20T10:09:50.000Z</time>
      </trkpt>
      <trkpt lat="42.75882837362587451934814453125" lon="-0.81633894704282283782958984375">
        <ele>911.5999755859375</ele>
        <time>2020-08-20T10:09:55.000Z</time>
      </trkpt>
      <trkpt lat="42.7588210813701152801513671875" lon="-0.81636023707687854766845703125">
        <ele>911.20001220703125</ele>
        <time>2020-08-20T10:09:59.000Z</time>
      </trkpt>
      <trkpt lat="42.75883533060550689697265625" lon="-0.816392004489898681640625">
        <ele>910.79998779296875</ele>
        <time>2020-08-20T10:10:05.000Z</time>
      </trkpt>
      <trkpt lat="42.75884044356644153594970703125" lon="-0.816388316452503204345703125">
        <ele>910.5999755859375</ele>
        <time>2020-08-20T10:10:06.000Z</time>
      </trkpt>
      <trkpt lat="42.75885620154440402984619140625" lon="-0.8163656853139400482177734375">
        <ele>910.20001220703125</ele>
        <time>2020-08-20T10:10:11.000Z</time>
      </trkpt>
      <trkpt lat="42.75887195952236652374267578125" lon="-0.81636560149490833282470703125">
        <ele>910</ele>
        <time>2020-08-20T10:10:13.000Z</time>
      </trkpt>
      <trkpt lat="42.7588988654315471649169921875" lon="-0.81638404168188571929931640625">
        <ele>909.79998779296875</ele>
        <time>2020-08-20T10:10:17.000Z</time>
      </trkpt>
      <trkpt lat="42.75888319127261638641357421875" lon="-0.8164421282708644866943359375">
        <ele>909.79998779296875</ele>
        <time>2020-08-20T10:10:23.000Z</time>
      </trkpt>
      <trkpt lat="42.75887095369398593902587890625" lon="-0.81647221930325031280517578125">
        <ele>909.5999755859375</ele>
        <time>2020-08-20T10:10:26.000Z</time>
      </trkpt>
      <trkpt lat="42.7588562853634357452392578125" lon="-0.81652804277837276458740234375">
        <ele>909.5999755859375</ele>
        <time>2020-08-20T10:10:31.000Z</time>
      </trkpt>
      <trkpt lat="42.7588432095944881439208984375" lon="-0.816613622009754180908203125">
        <ele>909.5999755859375</ele>
        <time>2020-08-20T10:10:38.000Z</time>
      </trkpt>
      <trkpt lat="42.75883859954774379730224609375" lon="-0.8166265301406383514404296875">
        <ele>909.5999755859375</ele>
        <time>2020-08-20T10:10:39.000Z</time>
      </trkpt>
      <trkpt lat="42.75880850851535797119140625" lon="-0.8167163841426372528076171875">
        <ele>909.5999755859375</ele>
        <time>2020-08-20T10:10:47.000Z</time>
      </trkpt>
      <trkpt lat="42.75878277607262134552001953125" lon="-0.816799700260162353515625">
        <ele>908.79998779296875</ele>
        <time>2020-08-20T10:10:55.000Z</time>
      </trkpt>
      <trkpt lat="42.75877892039716243743896484375" lon="-0.81683213822543621063232421875">
        <ele>908.5999755859375</ele>
        <time>2020-08-20T10:10:58.000Z</time>
      </trkpt>
      <trkpt lat="42.75876265950500965118408203125" lon="-0.816886536777019500732421875">
        <ele>908.5999755859375</ele>
        <time>2020-08-20T10:11:03.000Z</time>
      </trkpt>
      <trkpt lat="42.7587597258388996124267578125" lon="-0.81694462336599826812744140625">
        <ele>908.5999755859375</ele>
        <time>2020-08-20T10:11:09.000Z</time>
      </trkpt>
      <trkpt lat="42.7587582170963287353515625" lon="-0.81701486371457576751708984375">
        <ele>909</ele>
        <time>2020-08-20T10:11:18.000Z</time>
      </trkpt>
      <trkpt lat="42.75875888764858245849609375" lon="-0.81702969968318939208984375">
        <ele>909.20001220703125</ele>
        <time>2020-08-20T10:11:24.000Z</time>
      </trkpt>
      <trkpt lat="42.758763916790485382080078125" lon="-0.81704067997634410858154296875">
        <ele>909.4000244140625</ele>
        <time>2020-08-20T10:11:25.000Z</time>
      </trkpt>
      <trkpt lat="42.75876584462821483612060546875" lon="-0.81706599332392215728759765625">
        <ele>909.4000244140625</ele>
        <time>2020-08-20T10:11:30.000Z</time>
      </trkpt>
      <trkpt lat="42.75876819156110286712646484375" lon="-0.8170707710087299346923828125">
        <ele>909.4000244140625</ele>
        <time>2020-08-20T10:11:44.000Z</time>
      </trkpt>
      <trkpt lat="42.7587704546749591827392578125" lon="-0.8170707710087299346923828125">
        <ele>909.4000244140625</ele>
        <time>2020-08-20T10:11:57.000Z</time>
      </trkpt>
      <trkpt lat="42.75877053849399089813232421875" lon="-0.81707454286515712738037109375">
        <ele>909.4000244140625</ele>
        <time>2020-08-20T10:12:12.000Z</time>
      </trkpt>
      <trkpt lat="42.7587796747684478759765625" lon="-0.817099101841449737548828125">
        <ele>910</ele>
        <time>2020-08-20T10:12:20.000Z</time>
      </trkpt>
      <trkpt lat="42.75879484601318836212158203125" lon="-0.81712399609386920928955078125">
        <ele>910</ele>
        <time>2020-08-20T10:12:24.000Z</time>
      </trkpt>
      <trkpt lat="42.7588073350489139556884765625" lon="-0.81715115346014499664306640625">
        <ele>910.20001220703125</ele>
        <time>2020-08-20T10:12:27.000Z</time>
      </trkpt>
      <trkpt lat="42.758837006986141204833984375" lon="-0.81722005270421504974365234375">
        <ele>910.5999755859375</ele>
        <time>2020-08-20T10:12:35.000Z</time>
      </trkpt>
      <trkpt lat="42.75884094648063182830810546875" lon="-0.817253328859806060791015625">
        <ele>911</ele>
        <time>2020-08-20T10:12:38.000Z</time>
      </trkpt>
      <trkpt lat="42.7588520944118499755859375" lon="-0.8173026144504547119140625">
        <ele>911.5999755859375</ele>
        <time>2020-08-20T10:12:42.000Z</time>
      </trkpt>
      <trkpt lat="42.75886441580951213836669921875" lon="-0.8174335397779941558837890625">
        <ele>911.5999755859375</ele>
        <time>2020-08-20T10:12:52.000Z</time>
      </trkpt>
      <trkpt lat="42.7588646672666072845458984375" lon="-0.817503444850444793701171875">
        <ele>912</ele>
        <time>2020-08-20T10:12:57.000Z</time>
      </trkpt>
      <trkpt lat="42.7588735520839691162109375" lon="-0.8175629563629627227783203125">
        <ele>912.5999755859375</ele>
        <time>2020-08-20T10:13:02.000Z</time>
      </trkpt>
      <trkpt lat="42.75887497700750827789306640625" lon="-0.81759807653725147247314453125">
        <ele>913.20001220703125</ele>
        <time>2020-08-20T10:13:05.000Z</time>
      </trkpt>
      <trkpt lat="42.75887698866426944732666015625" lon="-0.81767368130385875701904296875">
        <ele>913.20001220703125</ele>
        <time>2020-08-20T10:13:11.000Z</time>
      </trkpt>
      <trkpt lat="42.7588753961026668548583984375" lon="-0.817727744579315185546875">
        <ele>913.20001220703125</ele>
        <time>2020-08-20T10:13:19.000Z</time>
      </trkpt>
      <trkpt lat="42.758872546255588531494140625" lon="-0.8178070373833179473876953125">
        <ele>913</ele>
        <time>2020-08-20T10:13:24.000Z</time>
      </trkpt>
      <trkpt lat="42.75886391289532184600830078125" lon="-0.81803821027278900146484375">
        <ele>912.5999755859375</ele>
        <time>2020-08-20T10:13:31.000Z</time>
      </trkpt>
      <trkpt lat="42.75885838083922863006591796875" lon="-0.81812672317028045654296875">
        <ele>912.20001220703125</ele>
        <time>2020-08-20T10:13:34.000Z</time>
      </trkpt>
      <trkpt lat="42.75885486043989658355712890625" lon="-0.81827960908412933349609375">
        <ele>911.4000244140625</ele>
        <time>2020-08-20T10:13:39.000Z</time>
      </trkpt>
      <trkpt lat="42.75885502807796001434326171875" lon="-0.81830643117427825927734375">
        <ele>910.79998779296875</ele>
        <time>2020-08-20T10:13:40.000Z</time>
      </trkpt>
      <trkpt lat="42.75886508636176586151123046875" lon="-0.81849209032952785491943359375">
        <ele>910</ele>
        <time>2020-08-20T10:13:47.000Z</time>
      </trkpt>
      <trkpt lat="42.7588593028485774993896484375" lon="-0.81866324879229068756103515625">
        <ele>908.79998779296875</ele>
        <time>2020-08-20T10:13:53.000Z</time>
      </trkpt>
      <trkpt lat="42.7588522620499134063720703125" lon="-0.818742625415325164794921875">
        <ele>907.5999755859375</ele>
        <time>2020-08-20T10:13:56.000Z</time>
      </trkpt>
      <trkpt lat="42.7588395215570926666259765625" lon="-0.81883122213184833526611328125">
        <ele>907</ele>
        <time>2020-08-20T10:14:00.000Z</time>
      </trkpt>
      <trkpt lat="42.75884295813739299774169921875" lon="-0.81884957849979400634765625">
        <ele>906.79998779296875</ele>
        <time>2020-08-20T10:14:01.000Z</time>
      </trkpt>
      <trkpt lat="42.7588572911918163299560546875" lon="-0.81886994652450084686279296875">
        <ele>906.4000244140625</ele>
        <time>2020-08-20T10:14:03.000Z</time>
      </trkpt>
      <trkpt lat="42.7588616497814655303955078125" lon="-0.8188752271234989166259765625">
        <ele>906.20001220703125</ele>
        <time>2020-08-20T10:14:04.000Z</time>
      </trkpt>
      <trkpt lat="42.75887447409331798553466796875" lon="-0.8189198188483715057373046875">
        <ele>906</ele>
        <time>2020-08-20T10:14:10.000Z</time>
      </trkpt>
      <trkpt lat="42.7588737197220325469970703125" lon="-0.81893096677958965301513671875">
        <ele>906.20001220703125</ele>
        <time>2020-08-20T10:14:22.000Z</time>
      </trkpt>
      <trkpt lat="42.75885569863021373748779296875" lon="-0.81898964010179042816162109375">
        <ele>906</ele>
        <time>2020-08-20T10:14:28.000Z</time>
      </trkpt>
      <trkpt lat="42.75881865061819553375244140625" lon="-0.81908251158893108367919921875">
        <ele>905.79998779296875</ele>
        <time>2020-08-20T10:14:36.000Z</time>
      </trkpt>
      <trkpt lat="42.75881010107696056365966796875" lon="-0.8191238343715667724609375">
        <ele>905.20001220703125</ele>
        <time>2020-08-20T10:14:40.000Z</time>
      </trkpt>
      <trkpt lat="42.75879669003188610076904296875" lon="-0.81917672418057918548583984375">
        <ele>904.20001220703125</ele>
        <time>2020-08-20T10:14:45.000Z</time>
      </trkpt>
      <trkpt lat="42.75879400782287120819091796875" lon="-0.81921461038291454315185546875">
        <ele>904.20001220703125</ele>
        <time>2020-08-20T10:14:48.000Z</time>
      </trkpt>
      <trkpt lat="42.75878034532070159912109375" lon="-0.81924897618591785430908203125">
        <ele>903.79998779296875</ele>
        <time>2020-08-20T10:14:52.000Z</time>
      </trkpt>
      <trkpt lat="42.75877288542687892913818359375" lon="-0.81928317435085773468017578125">
        <ele>903.4000244140625</ele>
        <time>2020-08-20T10:14:55.000Z</time>
      </trkpt>
      <trkpt lat="42.758771963417530059814453125" lon="-0.81930580548942089080810546875">
        <ele>903.20001220703125</ele>
        <time>2020-08-20T10:14:58.000Z</time>
      </trkpt>
      <trkpt lat="42.758772633969783782958984375" lon="-0.819312594830989837646484375">
        <ele>903.20001220703125</ele>
        <time>2020-08-20T10:14:59.000Z</time>
      </trkpt>
      <trkpt lat="42.75877690874040126800537109375" lon="-0.819399096071720123291015625">
        <ele>903</ele>
        <time>2020-08-20T10:15:06.000Z</time>
      </trkpt>
      <trkpt lat="42.7587716281414031982421875" lon="-0.81942088901996612548828125">
        <ele>902.79998779296875</ele>
        <time>2020-08-20T10:15:08.000Z</time>
      </trkpt>
      <trkpt lat="42.758759222924709320068359375" lon="-0.81945667974650859832763671875">
        <ele>902.4000244140625</ele>
        <time>2020-08-20T10:15:11.000Z</time>
      </trkpt>
      <trkpt lat="42.7587168104946613311767578125" lon="-0.8195565082132816314697265625">
        <ele>901.4000244140625</ele>
        <time>2020-08-20T10:15:18.000Z</time>
      </trkpt>
      <trkpt lat="42.758698202669620513916015625" lon="-0.81961174495518207550048828125">
        <ele>901.20001220703125</ele>
        <time>2020-08-20T10:15:22.000Z</time>
      </trkpt>
      <trkpt lat="42.7586604841053485870361328125" lon="-0.8197053708136081695556640625">
        <ele>900.79998779296875</ele>
        <time>2020-08-20T10:15:29.000Z</time>
      </trkpt>
      <trkpt lat="42.7586236037313938140869140625" lon="-0.81982850097119808197021484375">
        <ele>900.4000244140625</ele>
        <time>2020-08-20T10:15:37.000Z</time>
      </trkpt>
      <trkpt lat="42.75856954045593738555908203125" lon="-0.81992514431476593017578125">
        <ele>900.20001220703125</ele>
        <time>2020-08-20T10:15:46.000Z</time>
      </trkpt>
      <trkpt lat="42.7585629187524318695068359375" lon="-0.819997899234294891357421875">
        <ele>899.4000244140625</ele>
        <time>2020-08-20T10:15:51.000Z</time>
      </trkpt>
      <trkpt lat="42.75856652297079563140869140625" lon="-0.82005129195749759674072265625">
        <ele>899.20001220703125</ele>
        <time>2020-08-20T10:15:54.000Z</time>
      </trkpt>
      <trkpt lat="42.7585515193641185760498046875" lon="-0.82017517648637294769287109375">
        <ele>899.20001220703125</ele>
        <time>2020-08-20T10:16:03.000Z</time>
      </trkpt>
      <trkpt lat="42.75854338891804218292236328125" lon="-0.82020082511007785797119140625">
        <ele>899.5999755859375</ele>
        <time>2020-08-20T10:16:05.000Z</time>
      </trkpt>
      <trkpt lat="42.75853852741420269012451171875" lon="-0.82022999413311481475830078125">
        <ele>900.20001220703125</ele>
        <time>2020-08-20T10:16:11.000Z</time>
      </trkpt>
      <trkpt lat="42.75851623155176639556884765625" lon="-0.8203122206032276153564453125">
        <ele>900</ele>
        <time>2020-08-20T10:16:16.000Z</time>
      </trkpt>
      <trkpt lat="42.75845856405794620513916015625" lon="-0.82047097384929656982421875">
        <ele>900.4000244140625</ele>
        <time>2020-08-20T10:16:23.000Z</time>
      </trkpt>
      <trkpt lat="42.75836535729467868804931640625" lon="-0.82065713591873645782470703125">
        <ele>899.5999755859375</ele>
        <time>2020-08-20T10:16:29.000Z</time>
      </trkpt>
      <trkpt lat="42.7582752518355846405029296875" lon="-0.8207869715988636016845703125">
        <ele>898.79998779296875</ele>
        <time>2020-08-20T10:16:34.000Z</time>
      </trkpt>
      <trkpt lat="42.758265696465969085693359375" lon="-0.82081790082156658172607421875">
        <ele>898.5999755859375</ele>
        <time>2020-08-20T10:16:35.000Z</time>
      </trkpt>
      <trkpt lat="42.7582363598048686981201171875" lon="-0.820956118404865264892578125">
        <ele>898.5999755859375</ele>
        <time>2020-08-20T10:16:39.000Z</time>
      </trkpt>
      <trkpt lat="42.75815011002123355865478515625" lon="-0.82134076394140720367431640625">
        <ele>897.5999755859375</ele>
        <time>2020-08-20T10:16:48.000Z</time>
      </trkpt>
      <trkpt lat="42.75814072228968143463134765625" lon="-0.82138619385659694671630859375">
        <ele>897.20001220703125</ele>
        <time>2020-08-20T10:16:49.000Z</time>
      </trkpt>
      <trkpt lat="42.75810015387833118438720703125" lon="-0.82161284051835536956787109375">
        <ele>896</ele>
        <time>2020-08-20T10:16:54.000Z</time>
      </trkpt>
      <trkpt lat="42.75802555494010448455810546875" lon="-0.82184468396008014678955078125">
        <ele>895</ele>
        <time>2020-08-20T10:17:00.000Z</time>
      </trkpt>
      <trkpt lat="42.758014909923076629638671875" lon="-0.8218779601156711578369140625">
        <ele>895</ele>
        <time>2020-08-20T10:17:01.000Z</time>
      </trkpt>
      <trkpt lat="42.75796285830438137054443359375" lon="-0.82207635976374149322509765625">
        <ele>894.20001220703125</ele>
        <time>2020-08-20T10:17:07.000Z</time>
      </trkpt>
      <trkpt lat="42.757954560220241546630859375" lon="-0.82210485823452472686767578125">
        <ele>894</ele>
        <time>2020-08-20T10:17:08.000Z</time>
      </trkpt>
      <trkpt lat="42.7579279057681560516357421875" lon="-0.8222226239740848541259765625">
        <ele>893.79998779296875</ele>
        <time>2020-08-20T10:17:12.000Z</time>
      </trkpt>
      <trkpt lat="42.75791306979954242706298828125" lon="-0.822282470762729644775390625">
        <ele>894</ele>
        <time>2020-08-20T10:17:14.000Z</time>
      </trkpt>
      <trkpt lat="42.7578799612820148468017578125" lon="-0.822494365274906158447265625">
        <ele>894</ele>
        <time>2020-08-20T10:17:21.000Z</time>
      </trkpt>
      <trkpt lat="42.7578152529895305633544921875" lon="-0.8227526955306529998779296875">
        <ele>893.5999755859375</ele>
        <time>2020-08-20T10:17:29.000Z</time>
      </trkpt>
      <trkpt lat="42.75772497989237308502197265625" lon="-0.82301429472863674163818359375">
        <ele>893.20001220703125</ele>
        <time>2020-08-20T10:17:36.000Z</time>
      </trkpt>
      <trkpt lat="42.75758064351975917816162109375" lon="-0.8233052305877208709716796875">
        <ele>892.20001220703125</ele>
        <time>2020-08-20T10:17:43.000Z</time>
      </trkpt>
      <trkpt lat="42.75756421498954296112060546875" lon="-0.8233521692454814910888671875">
        <ele>892</ele>
        <time>2020-08-20T10:17:44.000Z</time>
      </trkpt>
      <trkpt lat="42.7575111575424671173095703125" lon="-0.823541097342967987060546875">
        <ele>890.79998779296875</ele>
        <time>2020-08-20T10:17:48.000Z</time>
      </trkpt>
      <trkpt lat="42.75749766267836093902587890625" lon="-0.82359096966683864593505859375">
        <ele>890.5999755859375</ele>
        <time>2020-08-20T10:17:49.000Z</time>
      </trkpt>
      <trkpt lat="42.757379896938800811767578125" lon="-0.82392808981239795684814453125">
        <ele>890.20001220703125</ele>
        <time>2020-08-20T10:17:56.000Z</time>
      </trkpt>
      <trkpt lat="42.7572372369468212127685546875" lon="-0.8242926187813282012939453125">
        <ele>890</ele>
        <time>2020-08-20T10:18:04.000Z</time>
      </trkpt>
      <trkpt lat="42.75721929967403411865234375" lon="-0.8243355341255664825439453125">
        <ele>889.5999755859375</ele>
        <time>2020-08-20T10:18:05.000Z</time>
      </trkpt>
      <trkpt lat="42.7571322955191135406494140625" lon="-0.82458623684942722320556640625">
        <ele>888.5999755859375</ele>
        <time>2020-08-20T10:18:11.000Z</time>
      </trkpt>
      <trkpt lat="42.7571168728172779083251953125" lon="-0.82462730817496776580810546875">
        <ele>888.20001220703125</ele>
        <time>2020-08-20T10:18:12.000Z</time>
      </trkpt>
      <trkpt lat="42.75707303546369075775146484375" lon="-0.8247794397175312042236328125">
        <ele>887.4000244140625</ele>
        <time>2020-08-20T10:18:16.000Z</time>
      </trkpt>
      <trkpt lat="42.757066078484058380126953125" lon="-0.8248411305248737335205078125">
        <ele>887.4000244140625</ele>
        <time>2020-08-20T10:18:18.000Z</time>
      </trkpt>
      <trkpt lat="42.7570441178977489471435546875" lon="-0.82502092234790325164794921875">
        <ele>888</ele>
        <time>2020-08-20T10:18:24.000Z</time>
      </trkpt>
      <trkpt lat="42.75704436935484409332275390625" lon="-0.82510725595057010650634765625">
        <ele>888.5999755859375</ele>
        <time>2020-08-20T10:18:27.000Z</time>
      </trkpt>
      <trkpt lat="42.757031880319118499755859375" lon="-0.82518487237393856048583984375">
        <ele>888.79998779296875</ele>
        <time>2020-08-20T10:18:30.000Z</time>
      </trkpt>
      <trkpt lat="42.7570120990276336669921875" lon="-0.82536323927342891693115234375">
        <ele>889.79998779296875</ele>
        <time>2020-08-20T10:18:37.000Z</time>
      </trkpt>
      <trkpt lat="42.7570089139044284820556640625" lon="-0.82539106719195842742919921875">
        <ele>889.79998779296875</ele>
        <time>2020-08-20T10:18:38.000Z</time>
      </trkpt>
      <trkpt lat="42.7569825947284698486328125" lon="-0.82552559673786163330078125">
        <ele>890</ele>
        <time>2020-08-20T10:18:43.000Z</time>
      </trkpt>
      <trkpt lat="42.75697387754917144775390625" lon="-0.82554998807609081268310546875">
        <ele>890</ele>
        <time>2020-08-20T10:18:44.000Z</time>
      </trkpt>
      <trkpt lat="42.75693096220493316650390625" lon="-0.82566498778760433197021484375">
        <ele>890.20001220703125</ele>
        <time>2020-08-20T10:18:49.000Z</time>
      </trkpt>
      <trkpt lat="42.7568976022303104400634765625" lon="-0.825757943093776702880859375">
        <ele>891</ele>
        <time>2020-08-20T10:18:53.000Z</time>
      </trkpt>
      <trkpt lat="42.75686231441795825958251953125" lon="-0.8258506469428539276123046875">
        <ele>891.5999755859375</ele>
        <time>2020-08-20T10:18:57.000Z</time>
      </trkpt>
      <trkpt lat="42.7568459697067737579345703125" lon="-0.82592365331947803497314453125">
        <ele>892</ele>
        <time>2020-08-20T10:19:00.000Z</time>
      </trkpt>
      <trkpt lat="42.75683348067104816436767578125" lon="-0.82600328139960765838623046875">
        <ele>892.20001220703125</ele>
        <time>2020-08-20T10:19:04.000Z</time>
      </trkpt>
      <trkpt lat="42.75680062361061573028564453125" lon="-0.82613923586905002593994140625">
        <ele>892.79998779296875</ele>
        <time>2020-08-20T10:19:10.000Z</time>
      </trkpt>
      <trkpt lat="42.7567889727652072906494140625" lon="-0.82623411901295185089111328125">
        <ele>893</ele>
        <time>2020-08-20T10:19:14.000Z</time>
      </trkpt>
      <trkpt lat="42.75678335689008235931396484375" lon="-0.82635347731411457061767578125">
        <ele>893.79998779296875</ele>
        <time>2020-08-20T10:19:19.000Z</time>
      </trkpt>
      <trkpt lat="42.7567782439291477203369140625" lon="-0.8263763599097728729248046875">
        <ele>894.4000244140625</ele>
        <time>2020-08-20T10:19:20.000Z</time>
      </trkpt>
      <trkpt lat="42.75677044875919818878173828125" lon="-0.82649781368672847747802734375">
        <ele>895.4000244140625</ele>
        <time>2020-08-20T10:19:25.000Z</time>
      </trkpt>
      <trkpt lat="42.75677061639726161956787109375" lon="-0.82654575817286968231201171875">
        <ele>895.5999755859375</ele>
        <time>2020-08-20T10:19:27.000Z</time>
      </trkpt>
      <trkpt lat="42.756766341626644134521484375" lon="-0.82673929631710052490234375">
        <ele>896.20001220703125</ele>
        <time>2020-08-20T10:19:35.000Z</time>
      </trkpt>
      <trkpt lat="42.7567644976079463958740234375" lon="-0.82692026160657405853271484375">
        <ele>896.5999755859375</ele>
        <time>2020-08-20T10:19:42.000Z</time>
      </trkpt>
      <trkpt lat="42.7567725442349910736083984375" lon="-0.82697373814880847930908203125">
        <ele>896.79998779296875</ele>
        <time>2020-08-20T10:19:44.000Z</time>
      </trkpt>
      <trkpt lat="42.75678570382297039031982421875" lon="-0.8272111974656581878662109375">
        <ele>897.20001220703125</ele>
        <time>2020-08-20T10:19:53.000Z</time>
      </trkpt>
      <trkpt lat="42.7567953430116176605224609375" lon="-0.8272755704820156097412109375">
        <ele>897.5999755859375</ele>
        <time>2020-08-20T10:19:56.000Z</time>
      </trkpt>
      <trkpt lat="42.7568013779819011688232421875" lon="-0.82732946611940860748291015625">
        <ele>897.79998779296875</ele>
        <time>2020-08-20T10:19:59.000Z</time>
      </trkpt>
      <trkpt lat="42.7568084187805652618408203125" lon="-0.82735092379152774810791015625">
        <ele>897.79998779296875</ele>
        <time>2020-08-20T10:20:01.000Z</time>
      </trkpt>
      <trkpt lat="42.75680816732347011566162109375" lon="-0.82735125906765460968017578125">
        <ele>897.4000244140625</ele>
        <time>2020-08-20T10:20:11.000Z</time>
      </trkpt>
      <trkpt lat="42.75684102438390254974365234375" lon="-0.82744848914444446563720703125">
        <ele>897</ele>
        <time>2020-08-20T10:20:16.000Z</time>
      </trkpt>
      <trkpt lat="42.75689785368740558624267578125" lon="-0.82764345221221446990966796875">
        <ele>897.5999755859375</ele>
        <time>2020-08-20T10:20:23.000Z</time>
      </trkpt>
      <trkpt lat="42.75698770768940448760986328125" lon="-0.8278535865247249603271484375">
        <ele>898.20001220703125</ele>
        <time>2020-08-20T10:20:31.000Z</time>
      </trkpt>
      <trkpt lat="42.75712483562529087066650390625" lon="-0.82802717573940753936767578125">
        <ele>898</ele>
        <time>2020-08-20T10:20:38.000Z</time>
      </trkpt>
      <trkpt lat="42.75726087391376495361328125" lon="-0.828095488250255584716796875">
        <ele>897.5999755859375</ele>
        <time>2020-08-20T10:20:44.000Z</time>
      </trkpt>
      <trkpt lat="42.75737193413078784942626953125" lon="-0.828094147145748138427734375">
        <ele>898.20001220703125</ele>
        <time>2020-08-20T10:20:50.000Z</time>
      </trkpt>
      <trkpt lat="42.75750336237251758575439453125" lon="-0.8281065523624420166015625">
        <ele>898.79998779296875</ele>
        <time>2020-08-20T10:20:57.000Z</time>
      </trkpt>
      <trkpt lat="42.7575517259538173675537109375" lon="-0.828117616474628448486328125">
        <ele>899</ele>
        <time>2020-08-20T10:21:03.000Z</time>
      </trkpt>
      <trkpt lat="42.75755298323929309844970703125" lon="-0.8281184546649456024169921875">
        <ele>899</ele>
        <time>2020-08-20T10:21:04.000Z</time>
      </trkpt>
      <trkpt lat="42.7575577609241008758544921875" lon="-0.82814234308898448944091796875">
        <ele>898.79998779296875</ele>
        <time>2020-08-20T10:21:36.000Z</time>
      </trkpt>
      <trkpt lat="42.75754644535481929779052734375" lon="-0.82814787514507770538330078125">
        <ele>899</ele>
        <time>2020-08-20T10:21:39.000Z</time>
      </trkpt>
      <trkpt lat="42.7575021050870418548583984375" lon="-0.8281333744525909423828125">
        <ele>899</ele>
        <time>2020-08-20T10:21:42.000Z</time>
      </trkpt>
      <trkpt lat="42.757357768714427947998046875" lon="-0.8281117491424083709716796875">
        <ele>898.4000244140625</ele>
        <time>2020-08-20T10:21:48.000Z</time>
      </trkpt>
      <trkpt lat="42.7572456188499927520751953125" lon="-0.828100182116031646728515625">
        <ele>897.79998779296875</ele>
        <time>2020-08-20T10:21:53.000Z</time>
      </trkpt>
      <trkpt lat="42.7571517415344715118408203125" lon="-0.8282176963984966278076171875">
        <ele>897.20001220703125</ele>
        <time>2020-08-20T10:21:58.000Z</time>
      </trkpt>
      <trkpt lat="42.75709315203130245208740234375" lon="-0.82826522178947925567626953125">
        <ele>896.5999755859375</ele>
        <time>2020-08-20T10:22:01.000Z</time>
      </trkpt>
      <trkpt lat="42.75705627165734767913818359375" lon="-0.82828718237578868865966796875">
        <ele>896</ele>
        <time>2020-08-20T10:22:03.000Z</time>
      </trkpt>
      <trkpt lat="42.7570374123752117156982421875" lon="-0.8283001743257045745849609375">
        <ele>895.5999755859375</ele>
        <time>2020-08-20T10:22:04.000Z</time>
      </trkpt>
      <trkpt lat="42.756964825093746185302734375" lon="-0.82835189066827297210693359375">
        <ele>894.4000244140625</ele>
        <time>2020-08-20T10:22:09.000Z</time>
      </trkpt>
      <trkpt lat="42.75691009126603603363037109375" lon="-0.828379802405834197998046875">
        <ele>893.4000244140625</ele>
        <time>2020-08-20T10:22:14.000Z</time>
      </trkpt>
      <trkpt lat="42.7569096721708774566650390625" lon="-0.82838156260550022125244140625">
        <ele>893.4000244140625</ele>
        <time>2020-08-20T10:22:15.000Z</time>
      </trkpt>
      <trkpt lat="42.75690011680126190185546875" lon="-0.8283870108425617218017578125">
        <ele>893.4000244140625</ele>
        <time>2020-08-20T10:22:21.000Z</time>
      </trkpt>
      <trkpt lat="42.75687958113849163055419921875" lon="-0.82841156981885433197021484375">
        <ele>893.20001220703125</ele>
        <time>2020-08-20T10:22:23.000Z</time>
      </trkpt>
      <trkpt lat="42.75683800689876079559326171875" lon="-0.82845347933471202850341796875">
        <ele>893</ele>
        <time>2020-08-20T10:22:26.000Z</time>
      </trkpt>
      <trkpt lat="42.7568030543625354766845703125" lon="-0.82848834805190563201904296875">
        <ele>892.79998779296875</ele>
        <time>2020-08-20T10:22:28.000Z</time>
      </trkpt>
      <trkpt lat="42.75678100995719432830810546875" lon="-0.8285090513527393341064453125">
        <ele>892.4000244140625</ele>
        <time>2020-08-20T10:22:29.000Z</time>
      </trkpt>
      <trkpt lat="42.756684534251689910888671875" lon="-0.8285603486001491546630859375">
        <ele>891.79998779296875</ele>
        <time>2020-08-20T10:22:34.000Z</time>
      </trkpt>
      <trkpt lat="42.75667154230177402496337890625" lon="-0.82856898196041584014892578125">
        <ele>891.79998779296875</ele>
        <time>2020-08-20T10:22:35.000Z</time>
      </trkpt>
      <trkpt lat="42.7566199935972690582275390625" lon="-0.82861139439046382904052734375">
        <ele>891.79998779296875</ele>
        <time>2020-08-20T10:22:39.000Z</time>
      </trkpt>
      <trkpt lat="42.7565566264092922210693359375" lon="-0.8286488614976406097412109375">
        <ele>891.4000244140625</ele>
        <time>2020-08-20T10:22:43.000Z</time>
      </trkpt>
      <trkpt lat="42.7565247751772403717041015625" lon="-0.82866973243653774261474609375">
        <ele>891</ele>
        <time>2020-08-20T10:22:45.000Z</time>
      </trkpt>
      <trkpt lat="42.7564724721014499664306640625" lon="-0.8286857418715953826904296875">
        <ele>890.4000244140625</ele>
        <time>2020-08-20T10:22:50.000Z</time>
      </trkpt>
      <trkpt lat="42.7564644254744052886962890625" lon="-0.82869638688862323760986328125">
        <ele>890.20001220703125</ele>
        <time>2020-08-20T10:22:51.000Z</time>
      </trkpt>
      <trkpt lat="42.756394185125827789306640625" lon="-0.82873980514705181121826171875">
        <ele>890.20001220703125</ele>
        <time>2020-08-20T10:22:56.000Z</time>
      </trkpt>
      <trkpt lat="42.7563789300620555877685546875" lon="-0.8287437446415424346923828125">
        <ele>890.20001220703125</ele>
        <time>2020-08-20T10:22:57.000Z</time>
      </trkpt>
      <trkpt lat="42.7562756650149822235107421875" lon="-0.8287598378956317901611328125">
        <ele>890</ele>
        <time>2020-08-20T10:23:03.000Z</time>
      </trkpt>
      <trkpt lat="42.756179608404636383056640625" lon="-0.82880551926791667938232421875">
        <ele>890.4000244140625</ele>
        <time>2020-08-20T10:23:08.000Z</time>
      </trkpt>
      <trkpt lat="42.756034433841705322265625" lon="-0.82884474657475948333740234375">
        <ele>890.20001220703125</ele>
        <time>2020-08-20T10:23:15.000Z</time>
      </trkpt>
      <trkpt lat="42.75596193037927150726318359375" lon="-0.828843824565410614013671875">
        <ele>889.79998779296875</ele>
        <time>2020-08-20T10:23:19.000Z</time>
      </trkpt>
      <trkpt lat="42.7559338510036468505859375" lon="-0.82882027141749858856201171875">
        <ele>890</ele>
        <time>2020-08-20T10:23:21.000Z</time>
      </trkpt>
      <trkpt lat="42.75590426288545131683349609375" lon="-0.82876729778945446014404296875">
        <ele>890.20001220703125</ele>
        <time>2020-08-20T10:23:26.000Z</time>
      </trkpt>
      <trkpt lat="42.7558723278343677520751953125" lon="-0.82873946987092494964599609375">
        <ele>890</ele>
        <time>2020-08-20T10:23:32.000Z</time>
      </trkpt>
      <trkpt lat="42.75588666088879108428955078125" lon="-0.82879428751766681671142578125">
        <ele>891.79998779296875</ele>
        <time>2020-08-20T10:57:12.000Z</time>
      </trkpt>
      <trkpt lat="42.7558974735438823699951171875" lon="-0.828814320266246795654296875">
        <ele>892.5999755859375</ele>
        <time>2020-08-20T10:57:16.000Z</time>
      </trkpt>
      <trkpt lat="42.75590677745640277862548828125" lon="-0.82882940769195556640625">
        <ele>892.5999755859375</ele>
        <time>2020-08-20T10:57:17.000Z</time>
      </trkpt>
      <trkpt lat="42.7559353597462177276611328125" lon="-0.82887073047459125518798828125">
        <ele>892.5999755859375</ele>
        <time>2020-08-20T10:57:20.000Z</time>
      </trkpt>
      <trkpt lat="42.75596804916858673095703125" lon="-0.8288709819316864013671875">
        <ele>892</ele>
        <time>2020-08-20T10:57:23.000Z</time>
      </trkpt>
      <trkpt lat="42.75599093176424503326416015625" lon="-0.828855894505977630615234375">
        <ele>891.5999755859375</ele>
        <time>2020-08-20T10:57:27.000Z</time>
      </trkpt>
      <trkpt lat="42.756011970341205596923828125" lon="-0.82884340547025203704833984375">
        <ele>892</ele>
        <time>2020-08-20T10:57:33.000Z</time>
      </trkpt>
      <trkpt lat="42.75609679520130157470703125" lon="-0.82883921451866626739501953125">
        <ele>892.20001220703125</ele>
        <time>2020-08-20T10:57:40.000Z</time>
      </trkpt>
      <trkpt lat="42.75614867918193340301513671875" lon="-0.82883586175739765167236328125">
        <ele>892.79998779296875</ele>
        <time>2020-08-20T10:57:44.000Z</time>
      </trkpt>
      <trkpt lat="42.7561710588634014129638671875" lon="-0.8288144879043102264404296875">
        <ele>893</ele>
        <time>2020-08-20T10:57:46.000Z</time>
      </trkpt>
      <trkpt lat="42.7561993896961212158203125" lon="-0.82880049012601375579833984375">
        <ele>893</ele>
        <time>2020-08-20T10:57:48.000Z</time>
      </trkpt>
      <trkpt lat="42.75622311048209667205810546875" lon="-0.82878489978611469268798828125">
        <ele>893</ele>
        <time>2020-08-20T10:57:49.000Z</time>
      </trkpt>
      <trkpt lat="42.75626267306506633758544921875" lon="-0.82876863889396190643310546875">
        <ele>892.79998779296875</ele>
        <time>2020-08-20T10:57:51.000Z</time>
      </trkpt>
      <trkpt lat="42.75630609132349491119384765625" lon="-0.8287296630442142486572265625">
        <ele>893</ele>
        <time>2020-08-20T10:57:54.000Z</time>
      </trkpt>
      <trkpt lat="42.75638588704168796539306640625" lon="-0.8287152461707592010498046875">
        <ele>893.20001220703125</ele>
        <time>2020-08-20T10:57:58.000Z</time>
      </trkpt>
      <trkpt lat="42.75652863085269927978515625" lon="-0.82866721786558628082275390625">
        <ele>893.20001220703125</ele>
        <time>2020-08-20T10:58:04.000Z</time>
      </trkpt>
      <trkpt lat="42.7566052414476871490478515625" lon="-0.82862681709229946136474609375">
        <ele>893.4000244140625</ele>
        <time>2020-08-20T10:58:08.000Z</time>
      </trkpt>
      <trkpt lat="42.756655029952526092529296875" lon="-0.8286012522876262664794921875">
        <ele>893.5999755859375</ele>
        <time>2020-08-20T10:58:11.000Z</time>
      </trkpt>
      <trkpt lat="42.7567353285849094390869140625" lon="-0.82854886539280414581298828125">
        <ele>894.4000244140625</ele>
        <time>2020-08-20T10:58:16.000Z</time>
      </trkpt>
      <trkpt lat="42.75676944293081760406494140625" lon="-0.828537382185459136962890625">
        <ele>894.4000244140625</ele>
        <time>2020-08-20T10:58:18.000Z</time>
      </trkpt>
      <trkpt lat="42.756863571703433990478515625" lon="-0.82846370525658130645751953125">
        <ele>894.5999755859375</ele>
        <time>2020-08-20T10:58:25.000Z</time>
      </trkpt>
      <trkpt lat="42.7569395117461681365966796875" lon="-0.8283893577754497528076171875">
        <ele>895</ele>
        <time>2020-08-20T10:58:31.000Z</time>
      </trkpt>
      <trkpt lat="42.75695149786770343780517578125" lon="-0.828379131853580474853515625">
        <ele>895.4000244140625</ele>
        <time>2020-08-20T10:58:32.000Z</time>
      </trkpt>
      <trkpt lat="42.75700681842863559722900390625" lon="-0.82833060063421726226806640625">
        <ele>895.5999755859375</ele>
        <time>2020-08-20T10:58:36.000Z</time>
      </trkpt>
      <trkpt lat="42.75708854198455810546875" lon="-0.82824862562119960784912109375">
        <ele>896.20001220703125</ele>
        <time>2020-08-20T10:58:42.000Z</time>
      </trkpt>
      <trkpt lat="42.757096923887729644775390625" lon="-0.82823471166193485260009765625">
        <ele>896.4000244140625</ele>
        <time>2020-08-20T10:58:43.000Z</time>
      </trkpt>
      <trkpt lat="42.75713774375617504119873046875" lon="-0.8281620405614376068115234375">
        <ele>897.4000244140625</ele>
        <time>2020-08-20T10:58:48.000Z</time>
      </trkpt>
      <trkpt lat="42.75714729912579059600830078125" lon="-0.82814837805926799774169921875">
        <ele>897.5999755859375</ele>
        <time>2020-08-20T10:58:49.000Z</time>
      </trkpt>
      <trkpt lat="42.757186107337474822998046875" lon="-0.82810076884925365447998046875">
        <ele>898</ele>
        <time>2020-08-20T10:58:53.000Z</time>
      </trkpt>
      <trkpt lat="42.75719960220158100128173828125" lon="-0.82809439860284328460693359375">
        <ele>898.20001220703125</ele>
        <time>2020-08-20T10:58:54.000Z</time>
      </trkpt>
      <trkpt lat="42.757253162562847137451171875" lon="-0.828084759414196014404296875">
        <ele>898.5999755859375</ele>
        <time>2020-08-20T10:58:57.000Z</time>
      </trkpt>
      <trkpt lat="42.75730856694281101226806640625" lon="-0.8281000144779682159423828125">
        <ele>898.79998779296875</ele>
        <time>2020-08-20T10:59:00.000Z</time>
      </trkpt>
      <trkpt lat="42.75743077509105205535888671875" lon="-0.82813194952905178070068359375">
        <ele>899.20001220703125</ele>
        <time>2020-08-20T10:59:07.000Z</time>
      </trkpt>
      <trkpt lat="42.7575007639825344085693359375" lon="-0.82815290428698062896728515625">
        <ele>899.4000244140625</ele>
        <time>2020-08-20T10:59:11.000Z</time>
      </trkpt>
      <trkpt lat="42.757554240524768829345703125" lon="-0.82816329784691333770751953125">
        <ele>899.79998779296875</ele>
        <time>2020-08-20T10:59:14.000Z</time>
      </trkpt>
      <trkpt lat="42.7576285041868686676025390625" lon="-0.82817151211202144622802734375">
        <ele>900</ele>
        <time>2020-08-20T10:59:18.000Z</time>
      </trkpt>
      <trkpt lat="42.75766789913177490234375" lon="-0.82817754708230495452880859375">
        <ele>900</ele>
        <time>2020-08-20T10:59:20.000Z</time>
      </trkpt>
      <trkpt lat="42.757706455886363983154296875" lon="-0.82819573581218719482421875">
        <ele>900.20001220703125</ele>
        <time>2020-08-20T10:59:22.000Z</time>
      </trkpt>
      <trkpt lat="42.75776353664696216583251953125" lon="-0.82823018543422222137451171875">
        <ele>900.4000244140625</ele>
        <time>2020-08-20T10:59:25.000Z</time>
      </trkpt>
      <trkpt lat="42.75782958604395389556884765625" lon="-0.82825876772403717041015625">
        <ele>900.79998779296875</ele>
        <time>2020-08-20T10:59:28.000Z</time>
      </trkpt>
      <trkpt lat="42.75801599957048892974853515625" lon="-0.82837854512035846710205078125">
        <ele>900.5999755859375</ele>
        <time>2020-08-20T10:59:36.000Z</time>
      </trkpt>
      <trkpt lat="42.7581629343330860137939453125" lon="-0.82843973301351070404052734375">
        <ele>900.4000244140625</ele>
        <time>2020-08-20T10:59:41.000Z</time>
      </trkpt>
      <trkpt lat="42.75839502923190593719482421875" lon="-0.8285727538168430328369140625">
        <ele>899.5999755859375</ele>
        <time>2020-08-20T10:59:48.000Z</time>
      </trkpt>
      <trkpt lat="42.75848085992038249969482421875" lon="-0.8286032639443874359130859375">
        <ele>899.5999755859375</ele>
        <time>2020-08-20T10:59:50.000Z</time>
      </trkpt>
      <trkpt lat="42.7586222626268863677978515625" lon="-0.82860535942018032073974609375">
        <ele>899.20001220703125</ele>
        <time>2020-08-20T10:59:53.000Z</time>
      </trkpt>
      <trkpt lat="42.7587044052779674530029296875" lon="-0.82858926616609096527099609375">
        <ele>899.20001220703125</ele>
        <time>2020-08-20T10:59:55.000Z</time>
      </trkpt>
      <trkpt lat="42.75884815491735935211181640625" lon="-0.82855607382953166961669921875">
        <ele>899.5999755859375</ele>
        <time>2020-08-20T10:59:59.000Z</time>
      </trkpt>
      <trkpt lat="42.759005986154079437255859375" lon="-0.8285231329500675201416015625">
        <ele>900</ele>
        <time>2020-08-20T11:00:05.000Z</time>
      </trkpt>
      <trkpt lat="42.75918829254806041717529296875" lon="-0.8285365439951419830322265625">
        <ele>900</ele>
        <time>2020-08-20T11:00:12.000Z</time>
      </trkpt>
      <trkpt lat="42.75937805883586406707763671875" lon="-0.8286215364933013916015625">
        <ele>899.5999755859375</ele>
        <time>2020-08-20T11:00:19.000Z</time>
      </trkpt>
      <trkpt lat="42.75967880152165889739990234375" lon="-0.828776098787784576416015625">
        <ele>899.20001220703125</ele>
        <time>2020-08-20T11:00:29.000Z</time>
      </trkpt>
      <trkpt lat="42.75994182564318180084228515625" lon="-0.82899880595505237579345703125">
        <ele>899.20001220703125</ele>
        <time>2020-08-20T11:00:37.000Z</time>
      </trkpt>
      <trkpt lat="42.76011616922914981842041015625" lon="-0.8291172422468662261962890625">
        <ele>899.20001220703125</ele>
        <time>2020-08-20T11:00:41.000Z</time>
      </trkpt>
      <trkpt lat="42.76022471487522125244140625" lon="-0.82914163358509540557861328125">
        <ele>899.4000244140625</ele>
        <time>2020-08-20T11:00:43.000Z</time>
      </trkpt>
      <trkpt lat="42.76068027131259441375732421875" lon="-0.82916141487658023834228515625">
        <ele>898.4000244140625</ele>
        <time>2020-08-20T11:00:50.000Z</time>
      </trkpt>
      <trkpt lat="42.76096642948687076568603515625" lon="-0.8291517756879329681396484375">
        <ele>897.5999755859375</ele>
        <time>2020-08-20T11:00:54.000Z</time>
      </trkpt>
      <trkpt lat="42.7613289467990398406982421875" lon="-0.82912470214068889617919921875">
        <ele>896.5999755859375</ele>
        <time>2020-08-20T11:00:59.000Z</time>
      </trkpt>
      <trkpt lat="42.7617678232491016387939453125" lon="-0.82915085367858409881591796875">
        <ele>895.4000244140625</ele>
        <time>2020-08-20T11:01:05.000Z</time>
      </trkpt>
      <trkpt lat="42.761912159621715545654296875" lon="-0.8291162364184856414794921875">
        <ele>894.5999755859375</ele>
        <time>2020-08-20T11:01:07.000Z</time>
      </trkpt>
      <trkpt lat="42.76204903610050678253173828125" lon="-0.82903384231030941009521484375">
        <ele>894.4000244140625</ele>
        <time>2020-08-20T11:01:09.000Z</time>
      </trkpt>
      <trkpt lat="42.7621198631823062896728515625" lon="-0.82899126224219799041748046875">
        <ele>894.20001220703125</ele>
        <time>2020-08-20T11:01:10.000Z</time>
      </trkpt>
      <trkpt lat="42.76219354011118412017822265625" lon="-0.828952454030513763427734375">
        <ele>894</ele>
        <time>2020-08-20T11:01:11.000Z</time>
      </trkpt>
      <trkpt lat="42.76235179044306278228759765625" lon="-0.82889503799378871917724609375">
        <ele>893.5999755859375</ele>
        <time>2020-08-20T11:01:13.000Z</time>
      </trkpt>
      <trkpt lat="42.7625159919261932373046875" lon="-0.828909538686275482177734375">
        <ele>893.20001220703125</ele>
        <time>2020-08-20T11:01:15.000Z</time>
      </trkpt>
      <trkpt lat="42.76273802854120731353759765625" lon="-0.82903660833835601806640625">
        <ele>892.79998779296875</ele>
        <time>2020-08-20T11:01:18.000Z</time>
      </trkpt>
      <trkpt lat="42.76280902326107025146484375" lon="-0.82908798940479755401611328125">
        <ele>892.4000244140625</ele>
        <time>2020-08-20T11:01:19.000Z</time>
      </trkpt>
      <trkpt lat="42.76288270018994808197021484375" lon="-0.82913316786289215087890625">
        <ele>892</ele>
        <time>2020-08-20T11:01:20.000Z</time>
      </trkpt>
      <trkpt lat="42.76312351226806640625" lon="-0.82920022308826446533203125">
        <ele>891.20001220703125</ele>
        <time>2020-08-20T11:01:23.000Z</time>
      </trkpt>
      <trkpt lat="42.76320640929043292999267578125" lon="-0.829209275543689727783203125">
        <ele>890.79998779296875</ele>
        <time>2020-08-20T11:01:24.000Z</time>
      </trkpt>
      <trkpt lat="42.76368342339992523193359375" lon="-0.82931161858141422271728515625">
        <ele>890</ele>
        <time>2020-08-20T11:01:30.000Z</time>
      </trkpt>
      <trkpt lat="42.7639779634773731231689453125" lon="-0.82946483977138996124267578125">
        <ele>890.4000244140625</ele>
        <time>2020-08-20T11:01:34.000Z</time>
      </trkpt>
      <trkpt lat="42.76405549608170986175537109375" lon="-0.82947892136871814727783203125">
        <ele>890.5999755859375</ele>
        <time>2020-08-20T11:01:35.000Z</time>
      </trkpt>
      <trkpt lat="42.76429555378854274749755859375" lon="-0.8294181525707244873046875">
        <ele>890.5999755859375</ele>
        <time>2020-08-20T11:01:38.000Z</time>
      </trkpt>
      <trkpt lat="42.76452085934579372406005859375" lon="-0.82926853559911251068115234375">
        <ele>890</ele>
        <time>2020-08-20T11:01:41.000Z</time>
      </trkpt>
      <trkpt lat="42.764597050845623016357421875" lon="-0.8292198367416858673095703125">
        <ele>889.5999755859375</ele>
        <time>2020-08-20T11:01:42.000Z</time>
      </trkpt>
      <trkpt lat="42.7646780200302600860595703125" lon="-0.829180441796779632568359375">
        <ele>889.20001220703125</ele>
        <time>2020-08-20T11:01:43.000Z</time>
      </trkpt>
      <trkpt lat="42.76485211215913295745849609375" lon="-0.829148590564727783203125">
        <ele>888.5999755859375</ele>
        <time>2020-08-20T11:01:45.000Z</time>
      </trkpt>
      <trkpt lat="42.7651101909577846527099609375" lon="-0.829240120947360992431640625">
        <ele>888</ele>
        <time>2020-08-20T11:01:48.000Z</time>
      </trkpt>
      <trkpt lat="42.765191495418548583984375" lon="-0.8292858861386775970458984375">
        <ele>887.5999755859375</ele>
        <time>2020-08-20T11:01:49.000Z</time>
      </trkpt>
      <trkpt lat="42.7654327265918254852294921875" lon="-0.82939292304217815399169921875">
        <ele>886</ele>
        <time>2020-08-20T11:01:52.000Z</time>
      </trkpt>
      <trkpt lat="42.76559315621852874755859375" lon="-0.82943349145352840423583984375">
        <ele>885.4000244140625</ele>
        <time>2020-08-20T11:01:54.000Z</time>
      </trkpt>
      <trkpt lat="42.7659802325069904327392578125" lon="-0.829446651041507720947265625">
        <ele>885.20001220703125</ele>
        <time>2020-08-20T11:01:59.000Z</time>
      </trkpt>
      <trkpt lat="42.7661933004856109619140625" lon="-0.82942008040845394134521484375">
        <ele>885.5999755859375</ele>
        <time>2020-08-20T11:02:02.000Z</time>
      </trkpt>
      <trkpt lat="42.76632263325154781341552734375" lon="-0.82937498576939105987548828125">
        <ele>885.5999755859375</ele>
        <time>2020-08-20T11:02:04.000Z</time>
      </trkpt>
      <trkpt lat="42.7666688896715641021728515625" lon="-0.82919058389961719512939453125">
        <ele>885.4000244140625</ele>
        <time>2020-08-20T11:02:10.000Z</time>
      </trkpt>
      <trkpt lat="42.76683761738240718841552734375" lon="-0.82912889309227466583251953125">
        <ele>885.5999755859375</ele>
        <time>2020-08-20T11:02:13.000Z</time>
      </trkpt>
      <trkpt lat="42.76699368841946125030517578125" lon="-0.82905865274369716644287109375">
        <ele>885.5999755859375</ele>
        <time>2020-08-20T11:02:16.000Z</time>
      </trkpt>
      <trkpt lat="42.767385542392730712890625" lon="-0.82893694750964641571044921875">
        <ele>885.4000244140625</ele>
        <time>2020-08-20T11:02:24.000Z</time>
      </trkpt>
      <trkpt lat="42.76771344244480133056640625" lon="-0.828839801251888275146484375">
        <ele>885.4000244140625</ele>
        <time>2020-08-20T11:02:31.000Z</time>
      </trkpt>
      <trkpt lat="42.76798325590789318084716796875" lon="-0.82873578183352947235107421875">
        <ele>885.79998779296875</ele>
        <time>2020-08-20T11:02:37.000Z</time>
      </trkpt>
      <trkpt lat="42.76806640438735485076904296875" lon="-0.8286859095096588134765625">
        <ele>886</ele>
        <time>2020-08-20T11:02:39.000Z</time>
      </trkpt>
      <trkpt lat="42.76838206686079502105712890625" lon="-0.8284949697554111480712890625">
        <ele>885.79998779296875</ele>
        <time>2020-08-20T11:02:47.000Z</time>
      </trkpt>
      <trkpt lat="42.76864861138164997100830078125" lon="-0.82835574634373188018798828125">
        <ele>885.79998779296875</ele>
        <time>2020-08-20T11:02:55.000Z</time>
      </trkpt>
      <trkpt lat="42.76883854530751705169677734375" lon="-0.8283269964158535003662109375">
        <ele>886</ele>
        <time>2020-08-20T11:03:01.000Z</time>
      </trkpt>
      <trkpt lat="42.76910416781902313232421875" lon="-0.82834736444056034088134765625">
        <ele>885.79998779296875</ele>
        <time>2020-08-20T11:03:10.000Z</time>
      </trkpt>
      <trkpt lat="42.76914683170616626739501953125" lon="-0.8283548243343830108642578125">
        <ele>885.79998779296875</ele>
        <time>2020-08-20T11:03:14.000Z</time>
      </trkpt>
      <trkpt lat="42.76915119029581546783447265625" lon="-0.8283514715731143951416015625">
        <ele>885.4000244140625</ele>
        <time>2020-08-20T11:03:30.000Z</time>
      </trkpt>
      <trkpt lat="42.76915102265775203704833984375" lon="-0.82834468223154544830322265625">
        <ele>885.4000244140625</ele>
        <time>2020-08-20T11:03:45.000Z</time>
      </trkpt>
      <trkpt lat="42.76914750225841999053955078125" lon="-0.82834191620349884033203125">
        <ele>885.5999755859375</ele>
        <time>2020-08-20T11:03:54.000Z</time>
      </trkpt>
      <trkpt lat="42.7691472508013248443603515625" lon="-0.828343592584133148193359375">
        <ele>885.4000244140625</ele>
        <time>2020-08-20T11:04:03.000Z</time>
      </trkpt>
      <trkpt lat="42.76914465241134166717529296875" lon="-0.82834325730800628662109375">
        <ele>885</ele>
        <time>2020-08-20T11:04:15.000Z</time>
      </trkpt>
      <trkpt lat="42.769138701260089874267578125" lon="-0.82834350876510143280029296875">
        <ele>885</ele>
        <time>2020-08-20T11:04:25.000Z</time>
      </trkpt>
      <trkpt lat="42.76912805624306201934814453125" lon="-0.8283417485654354095458984375">
        <ele>884.79998779296875</ele>
        <time>2020-08-20T11:04:35.000Z</time>
      </trkpt>
      <trkpt lat="42.7691221050918102264404296875" lon="-0.82834401167929172515869140625">
        <ele>884.5999755859375</ele>
        <time>2020-08-20T11:04:46.000Z</time>
      </trkpt>
      <trkpt lat="42.7691301517188549041748046875" lon="-0.828350968658924102783203125">
        <ele>885</ele>
        <time>2020-08-20T11:04:55.000Z</time>
      </trkpt>
      <trkpt lat="42.7692032419145107269287109375" lon="-0.8283709175884723663330078125">
        <ele>885</ele>
        <time>2020-08-20T11:05:00.000Z</time>
      </trkpt>
      <trkpt lat="42.7693695388734340667724609375" lon="-0.8283927105367183685302734375">
        <ele>885.20001220703125</ele>
        <time>2020-08-20T11:05:06.000Z</time>
      </trkpt>
      <trkpt lat="42.76956760324537754058837890625" lon="-0.82841433584690093994140625">
        <ele>885.4000244140625</ele>
        <time>2020-08-20T11:05:14.000Z</time>
      </trkpt>
      <trkpt lat="42.76974647305905818939208984375" lon="-0.82843218930065631866455078125">
        <ele>885.20001220703125</ele>
        <time>2020-08-20T11:05:21.000Z</time>
      </trkpt>
      <trkpt lat="42.77002240531146526336669921875" lon="-0.82846001721918582916259765625">
        <ele>885.4000244140625</ele>
        <time>2020-08-20T11:05:30.000Z</time>
      </trkpt>
      <trkpt lat="42.770088873803615570068359375" lon="-0.82846529781818389892578125">
        <ele>885.4000244140625</ele>
        <time>2020-08-20T11:05:32.000Z</time>
      </trkpt>
      <trkpt lat="42.7702835015952587127685546875" lon="-0.82846554927527904510498046875">
        <ele>885.79998779296875</ele>
        <time>2020-08-20T11:05:38.000Z</time>
      </trkpt>
      <trkpt lat="42.770398668944835662841796875" lon="-0.82841710187494754791259765625">
        <ele>886.4000244140625</ele>
        <time>2020-08-20T11:05:42.000Z</time>
      </trkpt>
      <trkpt lat="42.7704870142042636871337890625" lon="-0.8283933810889720916748046875">
        <ele>887</ele>
        <time>2020-08-20T11:05:45.000Z</time>
      </trkpt>
      <trkpt lat="42.77063311077654361724853515625" lon="-0.8283457718789577484130859375">
        <ele>887.5999755859375</ele>
        <time>2020-08-20T11:05:50.000Z</time>
      </trkpt>
      <trkpt lat="42.77066110633313655853271484375" lon="-0.82834057509899139404296875">
        <ele>887.5999755859375</ele>
        <time>2020-08-20T11:05:51.000Z</time>
      </trkpt>
      <trkpt lat="42.7708737552165985107421875" lon="-0.8282911218702793121337890625">
        <ele>888.4000244140625</ele>
        <time>2020-08-20T11:05:59.000Z</time>
      </trkpt>
      <trkpt lat="42.7709004096686840057373046875" lon="-0.82828500308096408843994140625">
        <ele>888.4000244140625</ele>
        <time>2020-08-20T11:06:00.000Z</time>
      </trkpt>
      <trkpt lat="42.77107919566333293914794921875" lon="-0.82820721901953220367431640625">
        <ele>889.20001220703125</ele>
        <time>2020-08-20T11:06:07.000Z</time>
      </trkpt>
      <trkpt lat="42.7712142281234264373779296875" lon="-0.8281308598816394805908203125">
        <ele>889.4000244140625</ele>
        <time>2020-08-20T11:06:12.000Z</time>
      </trkpt>
      <trkpt lat="42.7713355980813503265380859375" lon="-0.82807235419750213623046875">
        <ele>889.5999755859375</ele>
        <time>2020-08-20T11:06:16.000Z</time>
      </trkpt>
      <trkpt lat="42.77161714620888233184814453125" lon="-0.8279179595410823822021484375">
        <ele>889.79998779296875</ele>
        <time>2020-08-20T11:06:25.000Z</time>
      </trkpt>
      <trkpt lat="42.77186642400920391082763671875" lon="-0.827721320092678070068359375">
        <ele>889.5999755859375</ele>
        <time>2020-08-20T11:06:33.000Z</time>
      </trkpt>
      <trkpt lat="42.77209742926061153411865234375" lon="-0.82746139727532863616943359375">
        <ele>888.79998779296875</ele>
        <time>2020-08-20T11:06:40.000Z</time>
      </trkpt>
      <trkpt lat="42.77213296853005886077880859375" lon="-0.827431976795196533203125">
        <ele>888.79998779296875</ele>
        <time>2020-08-20T11:06:41.000Z</time>
      </trkpt>
      <trkpt lat="42.7723665721714496612548828125" lon="-0.8273101039230823516845703125">
        <ele>889</ele>
        <time>2020-08-20T11:06:48.000Z</time>
      </trkpt>
      <trkpt lat="42.7726575918495655059814453125" lon="-0.82725905813276767730712890625">
        <ele>889.5999755859375</ele>
        <time>2020-08-20T11:06:57.000Z</time>
      </trkpt>
      <trkpt lat="42.77285146526992321014404296875" lon="-0.8272782526910305023193359375">
        <ele>890.4000244140625</ele>
        <time>2020-08-20T11:07:04.000Z</time>
      </trkpt>
      <trkpt lat="42.77287594042718410491943359375" lon="-0.82728437148034572601318359375">
        <ele>890.5999755859375</ele>
        <time>2020-08-20T11:07:05.000Z</time>
      </trkpt>
      <trkpt lat="42.77297191321849822998046875" lon="-0.82729929126799106597900390625">
        <ele>891.4000244140625</ele>
        <time>2020-08-20T11:07:09.000Z</time>
      </trkpt>
      <trkpt lat="42.7730642817914485931396484375" lon="-0.8273141272366046905517578125">
        <ele>892.20001220703125</ele>
        <time>2020-08-20T11:07:13.000Z</time>
      </trkpt>
      <trkpt lat="42.7731107175350189208984375" lon="-0.8273191563785076141357421875">
        <ele>892.4000244140625</ele>
        <time>2020-08-20T11:07:15.000Z</time>
      </trkpt>
      <trkpt lat="42.77321867644786834716796875" lon="-0.8273617364466190338134765625">
        <ele>893.4000244140625</ele>
        <time>2020-08-20T11:07:20.000Z</time>
      </trkpt>
      <trkpt lat="42.77337717823684215545654296875" lon="-0.82741294987499713897705078125">
        <ele>894.20001220703125</ele>
        <time>2020-08-20T11:07:27.000Z</time>
      </trkpt>
      <trkpt lat="42.77339863590896129608154296875" lon="-0.8274157159030437469482421875">
        <ele>894.4000244140625</ele>
        <time>2020-08-20T11:07:28.000Z</time>
      </trkpt>
      <trkpt lat="42.773628048598766326904296875" lon="-0.8274301327764987945556640625">
        <ele>895.4000244140625</ele>
        <time>2020-08-20T11:07:38.000Z</time>
      </trkpt>
      <trkpt lat="42.77365026064217090606689453125" lon="-0.827431641519069671630859375">
        <ele>895.4000244140625</ele>
        <time>2020-08-20T11:07:39.000Z</time>
      </trkpt>
      <trkpt lat="42.77374329976737499237060546875" lon="-0.82743340171873569488525390625">
        <ele>896</ele>
        <time>2020-08-20T11:07:44.000Z</time>
      </trkpt>
      <trkpt lat="42.77376291342079639434814453125" lon="-0.827431976795196533203125">
        <ele>896.20001220703125</ele>
        <time>2020-08-20T11:07:45.000Z</time>
      </trkpt>
      <trkpt lat="42.773797698318958282470703125" lon="-0.8274217508733272552490234375">
        <ele>896.4000244140625</ele>
        <time>2020-08-20T11:07:47.000Z</time>
      </trkpt>
      <trkpt lat="42.77385964058339595794677734375" lon="-0.8274150453507900238037109375">
        <ele>896.79998779296875</ele>
        <time>2020-08-20T11:07:50.000Z</time>
      </trkpt>
      <trkpt lat="42.77396525256335735321044921875" lon="-0.8273959346115589141845703125">
        <ele>897.4000244140625</ele>
        <time>2020-08-20T11:07:55.000Z</time>
      </trkpt>
      <trkpt lat="42.7739889733493328094482421875" lon="-0.827394425868988037109375">
        <ele>897.5999755859375</ele>
        <time>2020-08-20T11:07:56.000Z</time>
      </trkpt>
      <trkpt lat="42.774145714938640594482421875" lon="-0.827385373413562774658203125">
        <ele>898.4000244140625</ele>
        <time>2020-08-20T11:08:02.000Z</time>
      </trkpt>
      <trkpt lat="42.77420732192695140838623046875" lon="-0.8273791708052158355712890625">
        <ele>898.5999755859375</ele>
        <time>2020-08-20T11:08:04.000Z</time>
      </trkpt>
      <trkpt lat="42.77437479235231876373291015625" lon="-0.82737640477716922760009765625">
        <ele>899</ele>
        <time>2020-08-20T11:08:10.000Z</time>
      </trkpt>
      <trkpt lat="42.77445727027952671051025390625" lon="-0.82737657241523265838623046875">
        <ele>899.4000244140625</ele>
        <time>2020-08-20T11:08:13.000Z</time>
      </trkpt>
      <trkpt lat="42.77461946010589599609375" lon="-0.82736835815012454986572265625">
        <ele>900.20001220703125</ele>
        <time>2020-08-20T11:08:19.000Z</time>
      </trkpt>
      <trkpt lat="42.774786092340946197509765625" lon="-0.82735595293343067169189453125">
        <ele>900.4000244140625</ele>
        <time>2020-08-20T11:08:25.000Z</time>
      </trkpt>
      <trkpt lat="42.77490134350955486297607421875" lon="-0.8273375965654850006103515625">
        <ele>900.79998779296875</ele>
        <time>2020-08-20T11:08:29.000Z</time>
      </trkpt>
      <trkpt lat="42.77510921470820903778076171875" lon="-0.82728110253810882568359375">
        <ele>901.4000244140625</ele>
        <time>2020-08-20T11:08:37.000Z</time>
      </trkpt>
      <trkpt lat="42.77539906091988086700439453125" lon="-0.82710952498018741607666015625">
        <ele>901.79998779296875</ele>
        <time>2020-08-20T11:08:47.000Z</time>
      </trkpt>
      <trkpt lat="42.77561129070818424224853515625" lon="-0.8269687928259372711181640625">
        <ele>901.5999755859375</ele>
        <time>2020-08-20T11:08:54.000Z</time>
      </trkpt>
      <trkpt lat="42.77581044472754001617431640625" lon="-0.826847255229949951171875">
        <ele>901.5999755859375</ele>
        <time>2020-08-20T11:09:00.000Z</time>
      </trkpt>
      <trkpt lat="42.7760780788958072662353515625" lon="-0.8266774378716945648193359375">
        <ele>901.5999755859375</ele>
        <time>2020-08-20T11:09:08.000Z</time>
      </trkpt>
      <trkpt lat="42.77626256458461284637451171875" lon="-0.82657442428171634674072265625">
        <ele>901.5999755859375</ele>
        <time>2020-08-20T11:09:14.000Z</time>
      </trkpt>
      <trkpt lat="42.77642064727842807769775390625" lon="-0.8264866657555103302001953125">
        <ele>901.5999755859375</ele>
        <time>2020-08-20T11:09:19.000Z</time>
      </trkpt>
      <trkpt lat="42.7766795642673969268798828125" lon="-0.82638029940426349639892578125">
        <ele>901.5999755859375</ele>
        <time>2020-08-20T11:09:26.000Z</time>
      </trkpt>
      <trkpt lat="42.77686203829944133758544921875" lon="-0.82635171711444854736328125">
        <ele>901.79998779296875</ele>
        <time>2020-08-20T11:09:31.000Z</time>
      </trkpt>
      <trkpt lat="42.77705582790076732635498046875" lon="-0.82624518312513828277587890625">
        <ele>901.79998779296875</ele>
        <time>2020-08-20T11:09:36.000Z</time>
      </trkpt>
      <trkpt lat="42.77717719785869121551513671875" lon="-0.8261510543525218963623046875">
        <ele>901.79998779296875</ele>
        <time>2020-08-20T11:09:39.000Z</time>
      </trkpt>
      <trkpt lat="42.7773786149919033050537109375" lon="-0.82601686008274555206298828125">
        <ele>901.5999755859375</ele>
        <time>2020-08-20T11:09:44.000Z</time>
      </trkpt>
      <trkpt lat="42.777574248611927032470703125" lon="-0.8258975856006145477294921875">
        <ele>901.4000244140625</ele>
        <time>2020-08-20T11:09:49.000Z</time>
      </trkpt>
      <trkpt lat="42.77779879979789257049560546875" lon="-0.8257068134844303131103515625">
        <ele>901.4000244140625</ele>
        <time>2020-08-20T11:09:55.000Z</time>
      </trkpt>
      <trkpt lat="42.777861915528774261474609375" lon="-0.82562408410012722015380859375">
        <ele>901.4000244140625</ele>
        <time>2020-08-20T11:09:57.000Z</time>
      </trkpt>
      <trkpt lat="42.778109014034271240234375" lon="-0.825232565402984619140625">
        <ele>901.20001220703125</ele>
        <time>2020-08-20T11:10:06.000Z</time>
      </trkpt>
      <trkpt lat="42.7782684378325939178466796875" lon="-0.82498219795525074005126953125">
        <ele>902.5999755859375</ele>
        <time>2020-08-20T11:10:14.000Z</time>
      </trkpt>
      <trkpt lat="42.778371535241603851318359375" lon="-0.82487809471786022186279296875">
        <ele>903.79998779296875</ele>
        <time>2020-08-20T11:10:19.000Z</time>
      </trkpt>
      <trkpt lat="42.77842157520353794097900390625" lon="-0.82484909333288669586181640625">
        <ele>904.20001220703125</ele>
        <time>2020-08-20T11:10:21.000Z</time>
      </trkpt>
      <trkpt lat="42.7785510756075382232666015625" lon="-0.824808776378631591796875">
        <ele>905</ele>
        <time>2020-08-20T11:10:26.000Z</time>
      </trkpt>
      <trkpt lat="42.77857898734509944915771484375" lon="-0.82480131648480892181396484375">
        <ele>905.20001220703125</ele>
        <time>2020-08-20T11:10:27.000Z</time>
      </trkpt>
      <trkpt lat="42.778689377009868621826171875" lon="-0.82478664815425872802734375">
        <ele>905.79998779296875</ele>
        <time>2020-08-20T11:10:31.000Z</time>
      </trkpt>
      <trkpt lat="42.77878887020051479339599609375" lon="-0.82475923933088779449462890625">
        <ele>906.20001220703125</ele>
        <time>2020-08-20T11:10:35.000Z</time>
      </trkpt>
      <trkpt lat="42.77885206975042819976806640625" lon="-0.82474247552454471588134765625">
        <ele>906.79998779296875</ele>
        <time>2020-08-20T11:10:38.000Z</time>
      </trkpt>
      <trkpt lat="42.7789232321083545684814453125" lon="-0.82472738809883594512939453125">
        <ele>907.20001220703125</ele>
        <time>2020-08-20T11:10:41.000Z</time>
      </trkpt>
      <trkpt lat="42.7790271677076816558837890625" lon="-0.82468883134424686431884765625">
        <ele>908</ele>
        <time>2020-08-20T11:10:46.000Z</time>
      </trkpt>
      <trkpt lat="42.77917041443288326263427734375" lon="-0.82463778555393218994140625">
        <ele>908.79998779296875</ele>
        <time>2020-08-20T11:10:52.000Z</time>
      </trkpt>
      <trkpt lat="42.779196985065937042236328125" lon="-0.82462529651820659637451171875">
        <ele>909</ele>
        <time>2020-08-20T11:10:53.000Z</time>
      </trkpt>
      <trkpt lat="42.7793839015066623687744140625" lon="-0.82460836507380008697509765625">
        <ele>909.5999755859375</ele>
        <time>2020-08-20T11:11:00.000Z</time>
      </trkpt>
      <trkpt lat="42.77946554124355316162109375" lon="-0.82463418133556842803955078125">
        <ele>909.79998779296875</ele>
        <time>2020-08-20T11:11:03.000Z</time>
      </trkpt>
      <trkpt lat="42.77954692952334880828857421875" lon="-0.82466301508247852325439453125">
        <ele>909.79998779296875</ele>
        <time>2020-08-20T11:11:06.000Z</time>
      </trkpt>
      <trkpt lat="42.77971842326223850250244140625" lon="-0.8247432298958301544189453125">
        <ele>909.5999755859375</ele>
        <time>2020-08-20T11:11:12.000Z</time>
      </trkpt>
      <trkpt lat="42.7799558825790882110595703125" lon="-0.82487457431852817535400390625">
        <ele>910.5999755859375</ele>
        <time>2020-08-20T11:11:20.000Z</time>
      </trkpt>
      <trkpt lat="42.7800135500729084014892578125" lon="-0.82490541972219944000244140625">
        <ele>910.79998779296875</ele>
        <time>2020-08-20T11:11:22.000Z</time>
      </trkpt>
      <trkpt lat="42.7801929228007793426513671875" lon="-0.8250124566256999969482421875">
        <ele>910.79998779296875</ele>
        <time>2020-08-20T11:11:28.000Z</time>
      </trkpt>
      <trkpt lat="42.780287303030490875244140625" lon="-0.82506584934890270233154296875">
        <ele>910.79998779296875</ele>
        <time>2020-08-20T11:11:31.000Z</time>
      </trkpt>
      <trkpt lat="42.78054890222847461700439453125" lon="-0.82518101669847965240478515625">
        <ele>911</ele>
        <time>2020-08-20T11:11:38.000Z</time>
      </trkpt>
      <trkpt lat="42.78091954998672008514404296875" lon="-0.82522477023303508758544921875">
        <ele>910.20001220703125</ele>
        <time>2020-08-20T11:11:46.000Z</time>
      </trkpt>
      <trkpt lat="42.781284414231777191162109375" lon="-0.825283862650394439697265625">
        <ele>909.79998779296875</ele>
        <time>2020-08-20T11:11:53.000Z</time>
      </trkpt>
      <trkpt lat="42.781340070068836212158203125" lon="-0.8252860419452190399169921875">
        <ele>909.5999755859375</ele>
        <time>2020-08-20T11:11:54.000Z</time>
      </trkpt>
      <trkpt lat="42.78151483274996280670166015625" lon="-0.825261063873767852783203125">
        <ele>909.20001220703125</ele>
        <time>2020-08-20T11:11:57.000Z</time>
      </trkpt>
      <trkpt lat="42.78157384134829044342041015625" lon="-0.82524555735290050506591796875">
        <ele>909</ele>
        <time>2020-08-20T11:11:58.000Z</time>
      </trkpt>
      <trkpt lat="42.7818252146244049072265625" lon="-0.825196690857410430908203125">
        <ele>908.5999755859375</ele>
        <time>2020-08-20T11:12:02.000Z</time>
      </trkpt>
      <trkpt lat="42.78195722959935665130615234375" lon="-0.825197696685791015625">
        <ele>908.4000244140625</ele>
        <time>2020-08-20T11:12:04.000Z</time>
      </trkpt>
      <trkpt lat="42.782091088593006134033203125" lon="-0.82519568502902984619140625">
        <ele>908.20001220703125</ele>
        <time>2020-08-20T11:12:06.000Z</time>
      </trkpt>
      <trkpt lat="42.78246383182704448699951171875" lon="-0.8251894824206829071044921875">
        <ele>908</ele>
        <time>2020-08-20T11:12:12.000Z</time>
      </trkpt>
      <trkpt lat="42.7827426977455615997314453125" lon="-0.82520733587443828582763671875">
        <ele>908.79998779296875</ele>
        <time>2020-08-20T11:12:18.000Z</time>
      </trkpt>
      <trkpt lat="42.78290153481066226959228515625" lon="-0.82521722652018070220947265625">
        <ele>909.20001220703125</ele>
        <time>2020-08-20T11:12:23.000Z</time>
      </trkpt>
      <trkpt lat="42.78296372853219509124755859375" lon="-0.82522124983370304107666015625">
        <ele>909.4000244140625</ele>
        <time>2020-08-20T11:12:25.000Z</time>
      </trkpt>
      <trkpt lat="42.7831346355378627777099609375" lon="-0.8252553641796112060546875">
        <ele>909.79998779296875</ele>
        <time>2020-08-20T11:12:31.000Z</time>
      </trkpt>
      <trkpt lat="42.7831644751131534576416015625" lon="-0.82526005804538726806640625">
        <ele>910.20001220703125</ele>
        <time>2020-08-20T11:12:32.000Z</time>
      </trkpt>
      <trkpt lat="42.7833086438477039337158203125" lon="-0.82530892454087734222412109375">
        <ele>911.4000244140625</ele>
        <time>2020-08-20T11:12:37.000Z</time>
      </trkpt>
      <trkpt lat="42.783390618860721588134765625" lon="-0.825360976159572601318359375">
        <ele>911.79998779296875</ele>
        <time>2020-08-20T11:12:40.000Z</time>
      </trkpt>
      <trkpt lat="42.78357426635921001434326171875" lon="-0.82546834833920001983642578125">
        <ele>912.5999755859375</ele>
        <time>2020-08-20T11:12:47.000Z</time>
      </trkpt>
      <trkpt lat="42.78368054889142513275146484375" lon="-0.8255250938236713409423828125">
        <ele>913.20001220703125</ele>
        <time>2020-08-20T11:12:51.000Z</time>
      </trkpt>
      <trkpt lat="42.7837847359478473663330078125" lon="-0.8255891315639019012451171875">
        <ele>913.5999755859375</ele>
        <time>2020-08-20T11:12:55.000Z</time>
      </trkpt>
      <trkpt lat="42.78391457162797451019287109375" lon="-0.82565442658960819244384765625">
        <ele>914.5999755859375</ele>
        <time>2020-08-20T11:13:00.000Z</time>
      </trkpt>
      <trkpt lat="42.78394374065101146697998046875" lon="-0.82566641271114349365234375">
        <ele>915</ele>
        <time>2020-08-20T11:13:01.000Z</time>
      </trkpt>
      <trkpt lat="42.784050442278385162353515625" lon="-0.825717709958553314208984375">
        <ele>915.79998779296875</ele>
        <time>2020-08-20T11:13:05.000Z</time>
      </trkpt>
      <trkpt lat="42.78412847779691219329833984375" lon="-0.82576297223567962646484375">
        <ele>916.4000244140625</ele>
        <time>2020-08-20T11:13:08.000Z</time>
      </trkpt>
      <trkpt lat="42.78418581001460552215576171875" lon="-0.82580010406672954559326171875">
        <ele>917</ele>
        <time>2020-08-20T11:13:11.000Z</time>
      </trkpt>
      <trkpt lat="42.78424322605133056640625" lon="-0.82583363167941570281982421875">
        <ele>917.20001220703125</ele>
        <time>2020-08-20T11:13:14.000Z</time>
      </trkpt>
      <trkpt lat="42.78435629792511463165283203125" lon="-0.82588476128876209259033203125">
        <ele>917.79998779296875</ele>
        <time>2020-08-20T11:13:20.000Z</time>
      </trkpt>
      <trkpt lat="42.7843889035284519195556640625" lon="-0.825903117656707763671875">
        <ele>918</ele>
        <time>2020-08-20T11:13:23.000Z</time>
      </trkpt>
      <trkpt lat="42.7844618260860443115234375" lon="-0.82592868246138095855712890625">
        <ele>918.20001220703125</ele>
        <time>2020-08-20T11:13:28.000Z</time>
      </trkpt>
      <trkpt lat="42.7845833636820316314697265625" lon="-0.82600445486605167388916015625">
        <ele>918.79998779296875</ele>
        <time>2020-08-20T11:13:35.000Z</time>
      </trkpt>
      <trkpt lat="42.78466768562793731689453125" lon="-0.8260461129248142242431640625">
        <ele>919</ele>
        <time>2020-08-20T11:13:40.000Z</time>
      </trkpt>
      <trkpt lat="42.78469928540289402008056640625" lon="-0.826069749891757965087890625">
        <ele>919.4000244140625</ele>
        <time>2020-08-20T11:13:42.000Z</time>
      </trkpt>
      <trkpt lat="42.78477455489337444305419921875" lon="-0.82611576654016971588134765625">
        <ele>919.79998779296875</ele>
        <time>2020-08-20T11:13:48.000Z</time>
      </trkpt>
      <trkpt lat="42.78490698896348476409912109375" lon="-0.826127417385578155517578125">
        <ele>920</ele>
        <time>2020-08-20T11:13:54.000Z</time>
      </trkpt>
      <trkpt lat="42.78503707610070705413818359375" lon="-0.82612481899559497833251953125">
        <ele>920.79998779296875</ele>
        <time>2020-08-20T11:13:59.000Z</time>
      </trkpt>
      <trkpt lat="42.78506037779152393341064453125" lon="-0.826120041310787200927734375">
        <ele>921</ele>
        <time>2020-08-20T11:14:00.000Z</time>
      </trkpt>
      <trkpt lat="42.78520890511572360992431640625" lon="-0.8261121623218059539794921875">
        <ele>922</ele>
        <time>2020-08-20T11:14:06.000Z</time>
      </trkpt>
      <trkpt lat="42.78523405082523822784423828125" lon="-0.82611207850277423858642578125">
        <ele>922</ele>
        <time>2020-08-20T11:14:07.000Z</time>
      </trkpt>
      <trkpt lat="42.7855221368372440338134765625" lon="-0.8260762877762317657470703125">
        <ele>922.20001220703125</ele>
        <time>2020-08-20T11:14:18.000Z</time>
      </trkpt>
      <trkpt lat="42.7856525592505931854248046875" lon="-0.82605457864701747894287109375">
        <ele>923</ele>
        <time>2020-08-20T11:14:23.000Z</time>
      </trkpt>
      <trkpt lat="42.78578071855008602142333984375" lon="-0.8260171115398406982421875">
        <ele>924.20001220703125</ele>
        <time>2020-08-20T11:14:28.000Z</time>
      </trkpt>
      <trkpt lat="42.78596813790500164031982421875" lon="-0.82588844932615756988525390625">
        <ele>925</ele>
        <time>2020-08-20T11:14:36.000Z</time>
      </trkpt>
      <trkpt lat="42.78603921644389629364013671875" lon="-0.8258400857448577880859375">
        <ele>925.20001220703125</ele>
        <time>2020-08-20T11:14:39.000Z</time>
      </trkpt>
      <trkpt lat="42.786162681877613067626953125" lon="-0.82576037384569644927978515625">
        <ele>926</ele>
        <time>2020-08-20T11:14:44.000Z</time>
      </trkpt>
      <trkpt lat="42.78626401908695697784423828125" lon="-0.8257306180894374847412109375">
        <ele>926.4000244140625</ele>
        <time>2020-08-20T11:14:48.000Z</time>
      </trkpt>
      <trkpt lat="42.7863730676472187042236328125" lon="-0.82570270635187625885009765625">
        <ele>926.5999755859375</ele>
        <time>2020-08-20T11:14:52.000Z</time>
      </trkpt>
      <trkpt lat="42.78651329688727855682373046875" lon="-0.8256806619465351104736328125">
        <ele>927.20001220703125</ele>
        <time>2020-08-20T11:14:57.000Z</time>
      </trkpt>
      <trkpt lat="42.78662569820880889892578125" lon="-0.825643949210643768310546875">
        <ele>927.5999755859375</ele>
        <time>2020-08-20T11:15:01.000Z</time>
      </trkpt>
      <trkpt lat="42.78682476840913295745849609375" lon="-0.8256179653108119964599609375">
        <ele>928.20001220703125</ele>
        <time>2020-08-20T11:15:08.000Z</time>
      </trkpt>
      <trkpt lat="42.78685209341347217559814453125" lon="-0.825627185404300689697265625">
        <ele>928.4000244140625</ele>
        <time>2020-08-20T11:15:09.000Z</time>
      </trkpt>
      <trkpt lat="42.7870543487370014190673828125" lon="-0.825650990009307861328125">
        <ele>929.20001220703125</ele>
        <time>2020-08-20T11:15:16.000Z</time>
      </trkpt>
      <trkpt lat="42.78714914806187152862548828125" lon="-0.82565367221832275390625">
        <ele>929.20001220703125</ele>
        <time>2020-08-20T11:15:19.000Z</time>
      </trkpt>
      <trkpt lat="42.7872286923229694366455078125" lon="-0.82565140910446643829345703125">
        <ele>929.5999755859375</ele>
        <time>2020-08-20T11:15:22.000Z</time>
      </trkpt>
      <trkpt lat="42.78747235424816608428955078125" lon="-0.82563883624970912933349609375">
        <ele>930.20001220703125</ele>
        <time>2020-08-20T11:15:30.000Z</time>
      </trkpt>
      <trkpt lat="42.787619791924953460693359375" lon="-0.825742185115814208984375">
        <ele>930.20001220703125</ele>
        <time>2020-08-20T11:15:36.000Z</time>
      </trkpt>
      <trkpt lat="42.7877751924097537994384765625" lon="-0.8260846696794033050537109375">
        <ele>929.4000244140625</ele>
        <time>2020-08-20T11:15:45.000Z</time>
      </trkpt>
      <trkpt lat="42.78794442303478717803955078125" lon="-0.826318524777889251708984375">
        <ele>929</ele>
        <time>2020-08-20T11:15:52.000Z</time>
      </trkpt>
      <trkpt lat="42.788152880966663360595703125" lon="-0.8265533857047557830810546875">
        <ele>928.5999755859375</ele>
        <time>2020-08-20T11:16:00.000Z</time>
      </trkpt>
      <trkpt lat="42.788306437432765960693359375" lon="-0.82675212062895298004150390625">
        <ele>928.4000244140625</ele>
        <time>2020-08-20T11:16:06.000Z</time>
      </trkpt>
      <trkpt lat="42.7884843014180660247802734375" lon="-0.827003158628940582275390625">
        <ele>928.79998779296875</ele>
        <time>2020-08-20T11:16:13.000Z</time>
      </trkpt>
      <trkpt lat="42.7887357585132122039794921875" lon="-0.8272474072873592376708984375">
        <ele>930</ele>
        <time>2020-08-20T11:16:21.000Z</time>
      </trkpt>
      <trkpt lat="42.78898411430418491363525390625" lon="-0.82728504203259944915771484375">
        <ele>930</ele>
        <time>2020-08-20T11:16:27.000Z</time>
      </trkpt>
      <trkpt lat="42.78925426304340362548828125" lon="-0.827325694262981414794921875">
        <ele>929.20001220703125</ele>
        <time>2020-08-20T11:16:33.000Z</time>
      </trkpt>
      <trkpt lat="42.7893493138253688812255859375" lon="-0.82736601121723651885986328125">
        <ele>929.20001220703125</ele>
        <time>2020-08-20T11:16:35.000Z</time>
      </trkpt>
      <trkpt lat="42.789536900818347930908203125" lon="-0.827472545206546783447265625">
        <ele>928.5999755859375</ele>
        <time>2020-08-20T11:16:39.000Z</time>
      </trkpt>
      <trkpt lat="42.7896741963922977447509765625" lon="-0.82752250134944915771484375">
        <ele>928.20001220703125</ele>
        <time>2020-08-20T11:16:42.000Z</time>
      </trkpt>
      <trkpt lat="42.7897596918046474456787109375" lon="-0.827534236013889312744140625">
        <ele>928.20001220703125</ele>
        <time>2020-08-20T11:16:44.000Z</time>
      </trkpt>
      <trkpt lat="42.78999044559895992279052734375" lon="-0.82756809890270233154296875">
        <ele>928.4000244140625</ele>
        <time>2020-08-20T11:16:50.000Z</time>
      </trkpt>
      <trkpt lat="42.7901938743889331817626953125" lon="-0.82758712582290172576904296875">
        <ele>929</ele>
        <time>2020-08-20T11:16:56.000Z</time>
      </trkpt>
      <trkpt lat="42.79045178554952144622802734375" lon="-0.8275726251304149627685546875">
        <ele>929.4000244140625</ele>
        <time>2020-08-20T11:17:04.000Z</time>
      </trkpt>
      <trkpt lat="42.790625877678394317626953125" lon="-0.82746391184628009796142578125">
        <ele>929.4000244140625</ele>
        <time>2020-08-20T11:17:10.000Z</time>
      </trkpt>
      <trkpt lat="42.7907420508563518524169921875" lon="-0.82739836536347866058349609375">
        <ele>929.4000244140625</ele>
        <time>2020-08-20T11:17:13.000Z</time>
      </trkpt>
      <trkpt lat="42.79084322042763233184814453125" lon="-0.82737908698618412017822265625">
        <ele>929</ele>
        <time>2020-08-20T11:17:15.000Z</time>
      </trkpt>
      <trkpt lat="42.79094967059791088104248046875" lon="-0.82739920355379581451416015625">
        <ele>928.4000244140625</ele>
        <time>2020-08-20T11:17:17.000Z</time>
      </trkpt>
      <trkpt lat="42.79105310328304767608642578125" lon="-0.82744278945028781890869140625">
        <ele>927.5999755859375</ele>
        <time>2020-08-20T11:17:19.000Z</time>
      </trkpt>
      <trkpt lat="42.7914209850132465362548828125" lon="-0.8276559412479400634765625">
        <ele>927.20001220703125</ele>
        <time>2020-08-20T11:17:27.000Z</time>
      </trkpt>
      <trkpt lat="42.79169398359954357147216796875" lon="-0.82785249687731266021728515625">
        <ele>926.79998779296875</ele>
        <time>2020-08-20T11:17:34.000Z</time>
      </trkpt>
      <trkpt lat="42.79194460250437259674072265625" lon="-0.82809674553573131561279296875">
        <ele>927.20001220703125</ele>
        <time>2020-08-20T11:17:41.000Z</time>
      </trkpt>
      <trkpt lat="42.7920472808182239532470703125" lon="-0.82821073941886425018310546875">
        <ele>927</ele>
        <time>2020-08-20T11:17:44.000Z</time>
      </trkpt>
      <trkpt lat="42.79220201075077056884765625" lon="-0.8283239789307117462158203125">
        <ele>927</ele>
        <time>2020-08-20T11:17:48.000Z</time>
      </trkpt>
      <trkpt lat="42.79235581867396831512451171875" lon="-0.828434787690639495849609375">
        <ele>926.79998779296875</ele>
        <time>2020-08-20T11:17:52.000Z</time>
      </trkpt>
      <trkpt lat="42.7924358658492565155029296875" lon="-0.8284835703670978546142578125">
        <ele>926.79998779296875</ele>
        <time>2020-08-20T11:17:54.000Z</time>
      </trkpt>
      <trkpt lat="42.7927577309310436248779296875" lon="-0.82865514792501926422119140625">
        <ele>926.79998779296875</ele>
        <time>2020-08-20T11:18:02.000Z</time>
      </trkpt>
      <trkpt lat="42.79308537952601909637451171875" lon="-0.828842818737030029296875">
        <ele>927</ele>
        <time>2020-08-20T11:18:10.000Z</time>
      </trkpt>
      <trkpt lat="42.7931620739400386810302734375" lon="-0.82888481207191944122314453125">
        <ele>927.20001220703125</ele>
        <time>2020-08-20T11:18:12.000Z</time>
      </trkpt>
      <trkpt lat="42.79345669783651828765869140625" lon="-0.82903794944286346435546875">
        <ele>927.79998779296875</ele>
        <time>2020-08-20T11:18:20.000Z</time>
      </trkpt>
      <trkpt lat="42.79365710914134979248046875" lon="-0.829137861728668212890625">
        <ele>928.4000244140625</ele>
        <time>2020-08-20T11:18:26.000Z</time>
      </trkpt>
      <trkpt lat="42.79378543607890605926513671875" lon="-0.82920248620212078094482421875">
        <ele>928.5999755859375</ele>
        <time>2020-08-20T11:18:30.000Z</time>
      </trkpt>
      <trkpt lat="42.7939731068909168243408203125" lon="-0.8293029852211475372314453125">
        <ele>929.4000244140625</ele>
        <time>2020-08-20T11:18:36.000Z</time>
      </trkpt>
      <trkpt lat="42.79419480822980403900146484375" lon="-0.8294287137687206268310546875">
        <ele>930.4000244140625</ele>
        <time>2020-08-20T11:18:43.000Z</time>
      </trkpt>
      <trkpt lat="42.79422841966152191162109375" lon="-0.8294491656124591827392578125">
        <ele>930.5999755859375</ele>
        <time>2020-08-20T11:18:44.000Z</time>
      </trkpt>
      <trkpt lat="42.794539891183376312255859375" lon="-0.829643793404102325439453125">
        <ele>931.20001220703125</ele>
        <time>2020-08-20T11:18:53.000Z</time>
      </trkpt>
      <trkpt lat="42.79461222700774669647216796875" lon="-0.82969366572797298431396484375">
        <ele>931.5999755859375</ele>
        <time>2020-08-20T11:18:55.000Z</time>
      </trkpt>
      <trkpt lat="42.79482747428119182586669921875" lon="-0.8298518322408199310302734375">
        <ele>932</ele>
        <time>2020-08-20T11:19:01.000Z</time>
      </trkpt>
      <trkpt lat="42.79500835575163364410400390625" lon="-0.82998837344348430633544921875">
        <ele>932.5999755859375</ele>
        <time>2020-08-20T11:19:06.000Z</time>
      </trkpt>
      <trkpt lat="42.79522025026381015777587890625" lon="-0.83014276809990406036376953125">
        <ele>932.5999755859375</ele>
        <time>2020-08-20T11:19:12.000Z</time>
      </trkpt>
      <trkpt lat="42.7955033071339130401611328125" lon="-0.83035130985081195831298828125">
        <ele>933.20001220703125</ele>
        <time>2020-08-20T11:19:20.000Z</time>
      </trkpt>
      <trkpt lat="42.795537672936916351318359375" lon="-0.83038047887384891510009765625">
        <ele>933.4000244140625</ele>
        <time>2020-08-20T11:19:21.000Z</time>
      </trkpt>
      <trkpt lat="42.795573212206363677978515625" lon="-0.83040855824947357177734375">
        <ele>933.5999755859375</ele>
        <time>2020-08-20T11:19:22.000Z</time>
      </trkpt>
      <trkpt lat="42.79577060602605342864990234375" lon="-0.8305451832711696624755859375">
        <ele>934.5999755859375</ele>
        <time>2020-08-20T11:19:28.000Z</time>
      </trkpt>
      <trkpt lat="42.7958020381629467010498046875" lon="-0.83056504838168621063232421875">
        <ele>934.79998779296875</ele>
        <time>2020-08-20T11:19:29.000Z</time>
      </trkpt>
      <trkpt lat="42.79595953412353992462158203125" lon="-0.8306725881993770599365234375">
        <ele>935.5999755859375</ele>
        <time>2020-08-20T11:19:34.000Z</time>
      </trkpt>
      <trkpt lat="42.79605458490550518035888671875" lon="-0.8307393081486225128173828125">
        <ele>936</ele>
        <time>2020-08-20T11:19:37.000Z</time>
      </trkpt>
      <trkpt lat="42.79621132649481296539306640625" lon="-0.83087601698935031890869140625">
        <ele>936.79998779296875</ele>
        <time>2020-08-20T11:19:42.000Z</time>
      </trkpt>
      <trkpt lat="42.79630201868712902069091796875" lon="-0.83096084184944629669189453125">
        <ele>937.20001220703125</ele>
        <time>2020-08-20T11:19:45.000Z</time>
      </trkpt>
      <trkpt lat="42.7964226342737674713134765625" lon="-0.83105765283107757568359375">
        <ele>937.5999755859375</ele>
        <time>2020-08-20T11:19:49.000Z</time>
      </trkpt>
      <trkpt lat="42.79647552408277988433837890625" lon="-0.83110869862139225006103515625">
        <ele>938</ele>
        <time>2020-08-20T11:19:51.000Z</time>
      </trkpt>
      <trkpt lat="42.7966791205108165740966796875" lon="-0.83127759397029876708984375">
        <ele>938.79998779296875</ele>
        <time>2020-08-20T11:19:58.000Z</time>
      </trkpt>
      <trkpt lat="42.796709127724170684814453125" lon="-0.83130114711821079254150390625">
        <ele>938.79998779296875</ele>
        <time>2020-08-20T11:19:59.000Z</time>
      </trkpt>
      <trkpt lat="42.79689294286072254180908203125" lon="-0.83142469637095928192138671875">
        <ele>939.79998779296875</ele>
        <time>2020-08-20T11:20:05.000Z</time>
      </trkpt>
      <trkpt lat="42.79701146297156810760498046875" lon="-0.83150960505008697509765625">
        <ele>940.5999755859375</ele>
        <time>2020-08-20T11:20:09.000Z</time>
      </trkpt>
      <trkpt lat="42.797104753553867340087890625" lon="-0.83156132139265537261962890625">
        <ele>940.79998779296875</ele>
        <time>2020-08-20T11:20:12.000Z</time>
      </trkpt>
      <trkpt lat="42.79729024507105350494384765625" lon="-0.8316616527736186981201171875">
        <ele>941.5999755859375</ele>
        <time>2020-08-20T11:20:18.000Z</time>
      </trkpt>
      <trkpt lat="42.79735260643064975738525390625" lon="-0.83169333636760711669921875">
        <ele>942</ele>
        <time>2020-08-20T11:20:20.000Z</time>
      </trkpt>
      <trkpt lat="42.79749141074717044830322265625" lon="-0.8317639119923114776611328125">
        <ele>943</ele>
        <time>2020-08-20T11:20:25.000Z</time>
      </trkpt>
      <trkpt lat="42.79754606075584888458251953125" lon="-0.8317877165973186492919921875">
        <ele>943.20001220703125</ele>
        <time>2020-08-20T11:20:27.000Z</time>
      </trkpt>
      <trkpt lat="42.797654606401920318603515625" lon="-0.83183507435023784637451171875">
        <ele>944</ele>
        <time>2020-08-20T11:20:31.000Z</time>
      </trkpt>
      <trkpt lat="42.797780670225620269775390625" lon="-0.83188779652118682861328125">
        <ele>945.20001220703125</ele>
        <time>2020-08-20T11:20:36.000Z</time>
      </trkpt>
      <trkpt lat="42.7978069894015789031982421875" lon="-0.83189047873020172119140625">
        <ele>945.4000244140625</ele>
        <time>2020-08-20T11:20:37.000Z</time>
      </trkpt>
      <trkpt lat="42.79791302047669887542724609375" lon="-0.83190799690783023834228515625">
        <ele>946.20001220703125</ele>
        <time>2020-08-20T11:20:41.000Z</time>
      </trkpt>
      <trkpt lat="42.7979815006256103515625" lon="-0.83192341960966587066650390625">
        <ele>946.79998779296875</ele>
        <time>2020-08-20T11:20:44.000Z</time>
      </trkpt>
      <trkpt lat="42.7980579435825347900390625" lon="-0.831926353275775909423828125">
        <ele>947.4000244140625</ele>
        <time>2020-08-20T11:20:47.000Z</time>
      </trkpt>
      <trkpt lat="42.79808350838720798492431640625" lon="-0.83192157559096813201904296875">
        <ele>947.5999755859375</ele>
        <time>2020-08-20T11:20:48.000Z</time>
      </trkpt>
      <trkpt lat="42.7981117554008960723876953125" lon="-0.83191738463938236236572265625">
        <ele>947.79998779296875</ele>
        <time>2020-08-20T11:20:49.000Z</time>
      </trkpt>
      <trkpt lat="42.7982696704566478729248046875" lon="-0.83189542405307292938232421875">
        <ele>948.5999755859375</ele>
        <time>2020-08-20T11:20:55.000Z</time>
      </trkpt>
      <trkpt lat="42.79829330742359161376953125" lon="-0.831892155110836029052734375">
        <ele>948.79998779296875</ele>
        <time>2020-08-20T11:20:56.000Z</time>
      </trkpt>
      <trkpt lat="42.79846756719052791595458984375" lon="-0.83187413401901721954345703125">
        <ele>949.4000244140625</ele>
        <time>2020-08-20T11:21:03.000Z</time>
      </trkpt>
      <trkpt lat="42.798592038452625274658203125" lon="-0.8318792469799518585205078125">
        <ele>949.5999755859375</ele>
        <time>2020-08-20T11:21:08.000Z</time>
      </trkpt>
      <trkpt lat="42.798684574663639068603515625" lon="-0.831890814006328582763671875">
        <ele>950.4000244140625</ele>
        <time>2020-08-20T11:21:12.000Z</time>
      </trkpt>
      <trkpt lat="42.7987343631684780120849609375" lon="-0.83188712596893310546875">
        <ele>950.79998779296875</ele>
        <time>2020-08-20T11:21:14.000Z</time>
      </trkpt>
      <trkpt lat="42.79886285774409770965576171875" lon="-0.831877402961254119873046875">
        <ele>951.4000244140625</ele>
        <time>2020-08-20T11:21:19.000Z</time>
      </trkpt>
      <trkpt lat="42.79899604618549346923828125" lon="-0.83183222450315952301025390625">
        <ele>951.79998779296875</ele>
        <time>2020-08-20T11:21:24.000Z</time>
      </trkpt>
      <trkpt lat="42.79902228154242038726806640625" lon="-0.8318195678293704986572265625">
        <ele>951.79998779296875</ele>
        <time>2020-08-20T11:21:25.000Z</time>
      </trkpt>
      <trkpt lat="42.7991320006549358367919921875" lon="-0.8317692764103412628173828125">
        <ele>952.5999755859375</ele>
        <time>2020-08-20T11:21:29.000Z</time>
      </trkpt>
      <trkpt lat="42.79926829040050506591796875" lon="-0.8317283727228641510009765625">
        <ele>953.4000244140625</ele>
        <time>2020-08-20T11:21:34.000Z</time>
      </trkpt>
      <trkpt lat="42.799294777214527130126953125" lon="-0.8317186497151851654052734375">
        <ele>953.79998779296875</ele>
        <time>2020-08-20T11:21:35.000Z</time>
      </trkpt>
      <trkpt lat="42.79947792179882526397705078125" lon="-0.83164036273956298828125">
        <ele>954.4000244140625</ele>
        <time>2020-08-20T11:21:42.000Z</time>
      </trkpt>
      <trkpt lat="42.79958370141685009002685546875" lon="-0.83160750567913055419921875">
        <ele>954.79998779296875</ele>
        <time>2020-08-20T11:21:46.000Z</time>
      </trkpt>
      <trkpt lat="42.79960884712636470794677734375" lon="-0.83160054869949817657470703125">
        <ele>955</ele>
        <time>2020-08-20T11:21:47.000Z</time>
      </trkpt>
      <trkpt lat="42.799715213477611541748046875" lon="-0.83158177323639392852783203125">
        <ele>955.79998779296875</ele>
        <time>2020-08-20T11:21:51.000Z</time>
      </trkpt>
      <trkpt lat="42.79977279715240001678466796875" lon="-0.83156718872487545013427734375">
        <ele>955.5999755859375</ele>
        <time>2020-08-20T11:21:53.000Z</time>
      </trkpt>
      <trkpt lat="42.79995870776474475860595703125" lon="-0.831574313342571258544921875">
        <ele>955.5999755859375</ele>
        <time>2020-08-20T11:21:59.000Z</time>
      </trkpt>
      <trkpt lat="42.8002682514488697052001953125" lon="-0.8315915800631046295166015625">
        <ele>956.20001220703125</ele>
        <time>2020-08-20T11:22:09.000Z</time>
      </trkpt>
      <trkpt lat="42.80035282485187053680419921875" lon="-0.831610523164272308349609375">
        <ele>956.4000244140625</ele>
        <time>2020-08-20T11:22:12.000Z</time>
      </trkpt>
      <trkpt lat="42.8004419244825839996337890625" lon="-0.83162485621869564056396484375">
        <ele>957</ele>
        <time>2020-08-20T11:22:15.000Z</time>
      </trkpt>
      <trkpt lat="42.8005850873887538909912109375" lon="-0.8316586352884769439697265625">
        <ele>957.4000244140625</ele>
        <time>2020-08-20T11:22:20.000Z</time>
      </trkpt>
      <trkpt lat="42.8006977401673793792724609375" lon="-0.83169174380600452423095703125">
        <ele>957.79998779296875</ele>
        <time>2020-08-20T11:22:24.000Z</time>
      </trkpt>
      <trkpt lat="42.800886668264865875244140625" lon="-0.831793248653411865234375">
        <ele>958.5999755859375</ele>
        <time>2020-08-20T11:22:31.000Z</time>
      </trkpt>
      <trkpt lat="42.80113602988421916961669921875" lon="-0.83198561333119869232177734375">
        <ele>959.4000244140625</ele>
        <time>2020-08-20T11:22:41.000Z</time>
      </trkpt>
      <trkpt lat="42.8011597506701946258544921875" lon="-0.8320059813559055328369140625">
        <ele>959.5999755859375</ele>
        <time>2020-08-20T11:22:42.000Z</time>
      </trkpt>
      <trkpt lat="42.80136443674564361572265625" lon="-0.83218962885439395904541015625">
        <ele>959.4000244140625</ele>
        <time>2020-08-20T11:22:50.000Z</time>
      </trkpt>
      <trkpt lat="42.801563926041126251220703125" lon="-0.832394063472747802734375">
        <ele>960.4000244140625</ele>
        <time>2020-08-20T11:22:58.000Z</time>
      </trkpt>
      <trkpt lat="42.80161614529788494110107421875" lon="-0.8324475400149822235107421875">
        <ele>960.79998779296875</ele>
        <time>2020-08-20T11:23:00.000Z</time>
      </trkpt>
      <trkpt lat="42.8018775768578052520751953125" lon="-0.83271735347807407379150390625">
        <ele>960.5999755859375</ele>
        <time>2020-08-20T11:23:10.000Z</time>
      </trkpt>
      <trkpt lat="42.8021447919309139251708984375" lon="-0.8330094628036022186279296875">
        <ele>959.79998779296875</ele>
        <time>2020-08-20T11:23:20.000Z</time>
      </trkpt>
      <trkpt lat="42.802306897938251495361328125" lon="-0.8330848999321460723876953125">
        <ele>960.4000244140625</ele>
        <time>2020-08-20T11:23:25.000Z</time>
      </trkpt>
      <trkpt lat="42.80245148576796054840087890625" lon="-0.8330275677144527435302734375">
        <ele>960.79998779296875</ele>
        <time>2020-08-20T11:23:29.000Z</time>
      </trkpt>
      <trkpt lat="42.802752815186977386474609375" lon="-0.8328143320977687835693359375">
        <ele>961</ele>
        <time>2020-08-20T11:23:37.000Z</time>
      </trkpt>
      <trkpt lat="42.80299362726509571075439453125" lon="-0.83262414671480655670166015625">
        <ele>960.5999755859375</ele>
        <time>2020-08-20T11:23:43.000Z</time>
      </trkpt>
      <trkpt lat="42.803275175392627716064453125" lon="-0.83244460634887218475341796875">
        <ele>959.4000244140625</ele>
        <time>2020-08-20T11:23:49.000Z</time>
      </trkpt>
      <trkpt lat="42.80339109711349010467529296875" lon="-0.8324190415441989898681640625">
        <ele>958.79998779296875</ele>
        <time>2020-08-20T11:23:51.000Z</time>
      </trkpt>
      <trkpt lat="42.80350978486239910125732421875" lon="-0.83242599852383136749267578125">
        <ele>958.5999755859375</ele>
        <time>2020-08-20T11:23:53.000Z</time>
      </trkpt>
      <trkpt lat="42.80366853810846805572509765625" lon="-0.83249573595821857452392578125">
        <ele>958.20001220703125</ele>
        <time>2020-08-20T11:23:56.000Z</time>
      </trkpt>
      <trkpt lat="42.80376945622265338897705078125" lon="-0.83255407400429248809814453125">
        <ele>958</ele>
        <time>2020-08-20T11:23:58.000Z</time>
      </trkpt>
      <trkpt lat="42.80396291054785251617431640625" lon="-0.8326889388263225555419921875">
        <ele>958</ele>
        <time>2020-08-20T11:24:02.000Z</time>
      </trkpt>
      <trkpt lat="42.80401638709008693695068359375" lon="-0.83271467126905918121337890625">
        <ele>957.79998779296875</ele>
        <time>2020-08-20T11:24:03.000Z</time>
      </trkpt>
      <trkpt lat="42.80407170765101909637451171875" lon="-0.832735709846019744873046875">
        <ele>957.79998779296875</ele>
        <time>2020-08-20T11:24:04.000Z</time>
      </trkpt>
      <trkpt lat="42.8044592030346393585205078125" lon="-0.8328458480536937713623046875">
        <ele>957.20001220703125</ele>
        <time>2020-08-20T11:24:11.000Z</time>
      </trkpt>
      <trkpt lat="42.80451276339590549468994140625" lon="-0.83286051638424396514892578125">
        <ele>957.4000244140625</ele>
        <time>2020-08-20T11:24:12.000Z</time>
      </trkpt>
      <trkpt lat="42.8047673217952251434326171875" lon="-0.8329400606453418731689453125">
        <ele>957.20001220703125</ele>
        <time>2020-08-20T11:24:17.000Z</time>
      </trkpt>
      <trkpt lat="42.804866731166839599609375" lon="-0.832970403134822845458984375">
        <ele>957.20001220703125</ele>
        <time>2020-08-20T11:24:19.000Z</time>
      </trkpt>
      <trkpt lat="42.8050171025097370147705078125" lon="-0.8329506218433380126953125">
        <ele>957</ele>
        <time>2020-08-20T11:24:22.000Z</time>
      </trkpt>
      <trkpt lat="42.80511106364428997039794921875" lon="-0.83290192298591136932373046875">
        <ele>956.79998779296875</ele>
        <time>2020-08-20T11:24:24.000Z</time>
      </trkpt>
      <trkpt lat="42.80527509748935699462890625" lon="-0.83280402235686779022216796875">
        <ele>956.5999755859375</ele>
        <time>2020-08-20T11:24:28.000Z</time>
      </trkpt>
      <trkpt lat="42.8053134866058826446533203125" lon="-0.83278390578925609588623046875">
        <ele>956.5999755859375</ele>
        <time>2020-08-20T11:24:29.000Z</time>
      </trkpt>
      <trkpt lat="42.805465869605541229248046875" lon="-0.832700170576572418212890625">
        <ele>957</ele>
        <time>2020-08-20T11:24:33.000Z</time>
      </trkpt>
      <trkpt lat="42.805497385561466217041015625" lon="-0.83268038928508758544921875">
        <ele>957</ele>
        <time>2020-08-20T11:24:35.000Z</time>
      </trkpt>
      <trkpt lat="42.805557735264301300048828125" lon="-0.8326805569231510162353515625">
        <ele>956.4000244140625</ele>
        <time>2020-08-20T11:25:53.000Z</time>
      </trkpt>
      <trkpt lat="42.80567206442356109619140625" lon="-0.83267611451447010040283203125">
        <ele>956</ele>
        <time>2020-08-20T11:25:58.000Z</time>
      </trkpt>
      <trkpt lat="42.8058819472789764404296875" lon="-0.8327043615281581878662109375">
        <ele>957</ele>
        <time>2020-08-20T11:26:05.000Z</time>
      </trkpt>
      <trkpt lat="42.80604078434407711029052734375" lon="-0.83270293660461902618408203125">
        <ele>957.4000244140625</ele>
        <time>2020-08-20T11:26:10.000Z</time>
      </trkpt>
      <trkpt lat="42.806139774620532989501953125" lon="-0.832693465054035186767578125">
        <ele>957.79998779296875</ele>
        <time>2020-08-20T11:26:13.000Z</time>
      </trkpt>
      <trkpt lat="42.80641495250165462493896484375" lon="-0.83270561881363391876220703125">
        <ele>958.4000244140625</ele>
        <time>2020-08-20T11:26:21.000Z</time>
      </trkpt>
      <trkpt lat="42.80666473321616649627685546875" lon="-0.83279907703399658203125">
        <ele>958.4000244140625</ele>
        <time>2020-08-20T11:26:28.000Z</time>
      </trkpt>
      <trkpt lat="42.8067028708755970001220703125" lon="-0.83280083723366260528564453125">
        <ele>958.4000244140625</ele>
        <time>2020-08-20T11:26:29.000Z</time>
      </trkpt>
      <trkpt lat="42.80683941207826137542724609375" lon="-0.8327482827007770538330078125">
        <ele>958.4000244140625</ele>
        <time>2020-08-20T11:26:33.000Z</time>
      </trkpt>
      <trkpt lat="42.8071082197129726409912109375" lon="-0.8325467817485332489013671875">
        <ele>958.79998779296875</ele>
        <time>2020-08-20T11:26:41.000Z</time>
      </trkpt>
      <trkpt lat="42.807368226349353790283203125" lon="-0.83234720863401889801025390625">
        <ele>959</ele>
        <time>2020-08-20T11:26:49.000Z</time>
      </trkpt>
      <trkpt lat="42.80752035789191722869873046875" lon="-0.832220055162906646728515625">
        <ele>959.20001220703125</ele>
        <time>2020-08-20T11:26:54.000Z</time>
      </trkpt>
      <trkpt lat="42.8076996468007564544677734375" lon="-0.83208887837827205657958984375">
        <ele>959.4000244140625</ele>
        <time>2020-08-20T11:26:59.000Z</time>
      </trkpt>
      <trkpt lat="42.8078183345496654510498046875" lon="-0.83201243542134761810302734375">
        <ele>959.4000244140625</ele>
        <time>2020-08-20T11:27:02.000Z</time>
      </trkpt>
      <trkpt lat="42.807924449443817138671875" lon="-0.83195325918495655059814453125">
        <ele>959.5999755859375</ele>
        <time>2020-08-20T11:27:05.000Z</time>
      </trkpt>
      <trkpt lat="42.80815319158136844635009765625" lon="-0.83182635717093944549560546875">
        <ele>960</ele>
        <time>2020-08-20T11:27:11.000Z</time>
      </trkpt>
      <trkpt lat="42.808234579861164093017578125" lon="-0.8318279497325420379638671875">
        <ele>960.20001220703125</ele>
        <time>2020-08-20T11:27:13.000Z</time>
      </trkpt>
      <trkpt lat="42.8083292953670024871826171875" lon="-0.83190196193754673004150390625">
        <ele>960.20001220703125</ele>
        <time>2020-08-20T11:27:16.000Z</time>
      </trkpt>
      <trkpt lat="42.80844454653561115264892578125" lon="-0.8320103399455547332763671875">
        <ele>961</ele>
        <time>2020-08-20T11:27:20.000Z</time>
      </trkpt>
      <trkpt lat="42.80847354792058467864990234375" lon="-0.83204160444438457489013671875">
        <ele>961.20001220703125</ele>
        <time>2020-08-20T11:27:21.000Z</time>
      </trkpt>
      <trkpt lat="42.80857094563543796539306640625" lon="-0.832238160073757171630859375">
        <ele>962</ele>
        <time>2020-08-20T11:27:26.000Z</time>
      </trkpt>
      <trkpt lat="42.80859441496431827545166015625" lon="-0.83227613009512424468994140625">
        <ele>962.20001220703125</ele>
        <time>2020-08-20T11:27:27.000Z</time>
      </trkpt>
      <trkpt lat="42.80875149182975292205810546875" lon="-0.83245131187140941619873046875">
        <ele>962.79998779296875</ele>
        <time>2020-08-20T11:27:33.000Z</time>
      </trkpt>
      <trkpt lat="42.80881293118000030517578125" lon="-0.83249590359628200531005859375">
        <ele>963</ele>
        <time>2020-08-20T11:27:35.000Z</time>
      </trkpt>
      <trkpt lat="42.8089468739926815032958984375" lon="-0.83254435099661350250244140625">
        <ele>963.5999755859375</ele>
        <time>2020-08-20T11:27:39.000Z</time>
      </trkpt>
      <trkpt lat="42.80914778821170330047607421875" lon="-0.832499675452709197998046875">
        <ele>963.79998779296875</ele>
        <time>2020-08-20T11:27:45.000Z</time>
      </trkpt>
      <trkpt lat="42.80932548455893993377685546875" lon="-0.832512415945529937744140625">
        <ele>963.4000244140625</ele>
        <time>2020-08-20T11:27:50.000Z</time>
      </trkpt>
      <trkpt lat="42.809510640799999237060546875" lon="-0.83265013061463832855224609375">
        <ele>963.4000244140625</ele>
        <time>2020-08-20T11:27:56.000Z</time>
      </trkpt>
      <trkpt lat="42.809708453714847564697265625" lon="-0.8328207023441791534423828125">
        <ele>963</ele>
        <time>2020-08-20T11:28:03.000Z</time>
      </trkpt>
      <trkpt lat="42.80976519919931888580322265625" lon="-0.8328669704496860504150390625">
        <ele>963.5999755859375</ele>
        <time>2020-08-20T11:28:05.000Z</time>
      </trkpt>
      <trkpt lat="42.8098836354911327362060546875" lon="-0.83294752053916454315185546875">
        <ele>964.79998779296875</ele>
        <time>2020-08-20T11:28:09.000Z</time>
      </trkpt>
      <trkpt lat="42.8099419735372066497802734375" lon="-0.83298641256988048553466796875">
        <ele>965.4000244140625</ele>
        <time>2020-08-20T11:28:11.000Z</time>
      </trkpt>
      <trkpt lat="42.81006745062768459320068359375" lon="-0.83303838036954402923583984375">
        <ele>966</ele>
        <time>2020-08-20T11:28:15.000Z</time>
      </trkpt>
      <trkpt lat="42.81013282947242259979248046875" lon="-0.83305916748940944671630859375">
        <ele>966.20001220703125</ele>
        <time>2020-08-20T11:28:17.000Z</time>
      </trkpt>
      <trkpt lat="42.81032846309244632720947265625" lon="-0.83310660906136035919189453125">
        <ele>966.79998779296875</ele>
        <time>2020-08-20T11:28:23.000Z</time>
      </trkpt>
      <trkpt lat="42.81051881611347198486328125" lon="-0.833091102540493011474609375">
        <ele>966.79998779296875</ele>
        <time>2020-08-20T11:28:29.000Z</time>
      </trkpt>
      <trkpt lat="42.81069559045135974884033203125" lon="-0.83298213779926300048828125">
        <ele>967.4000244140625</ele>
        <time>2020-08-20T11:28:35.000Z</time>
      </trkpt>
      <trkpt lat="42.810749821364879608154296875" lon="-0.83293260075151920318603515625">
        <ele>968</ele>
        <time>2020-08-20T11:28:37.000Z</time>
      </trkpt>
      <trkpt lat="42.8108874522149562835693359375" lon="-0.83280871622264385223388671875">
        <ele>968.5999755859375</ele>
        <time>2020-08-20T11:28:42.000Z</time>
      </trkpt>
      <trkpt lat="42.8109377436339855194091796875" lon="-0.83275842480361461639404296875">
        <ele>969</ele>
        <time>2020-08-20T11:28:44.000Z</time>
      </trkpt>
      <trkpt lat="42.81104863621294498443603515625" lon="-0.83261157386004924774169921875">
        <ele>969.5999755859375</ele>
        <time>2020-08-20T11:28:49.000Z</time>
      </trkpt>
      <trkpt lat="42.8110681660473346710205078125" lon="-0.832579135894775390625">
        <ele>969.79998779296875</ele>
        <time>2020-08-20T11:28:50.000Z</time>
      </trkpt>
      <trkpt lat="42.8111674077808856964111328125" lon="-0.8325162716209888458251953125">
        <ele>970.79998779296875</ele>
        <time>2020-08-20T11:28:54.000Z</time>
      </trkpt>
      <trkpt lat="42.8112327866256237030029296875" lon="-0.83249858580529689788818359375">
        <ele>971</ele>
        <time>2020-08-20T11:28:56.000Z</time>
      </trkpt>
      <trkpt lat="42.81143621541559696197509765625" lon="-0.8324505575001239776611328125">
        <ele>971.4000244140625</ele>
        <time>2020-08-20T11:29:02.000Z</time>
      </trkpt>
      <trkpt lat="42.81152640469372272491455078125" lon="-0.8324287645518779754638671875">
        <ele>972</ele>
        <time>2020-08-20T11:29:05.000Z</time>
      </trkpt>
      <trkpt lat="42.8116079606115818023681640625" lon="-0.8323900401592254638671875">
        <ele>973</ele>
        <time>2020-08-20T11:29:08.000Z</time>
      </trkpt>
      <trkpt lat="42.81163268722593784332275390625" lon="-0.83237838931381702423095703125">
        <ele>973.4000244140625</ele>
        <time>2020-08-20T11:29:09.000Z</time>
      </trkpt>
      <trkpt lat="42.81174592673778533935546875" lon="-0.83229549229145050048828125">
        <ele>974.20001220703125</ele>
        <time>2020-08-20T11:29:14.000Z</time>
      </trkpt>
      <trkpt lat="42.8117598406970500946044921875" lon="-0.8322916366159915924072265625">
        <ele>974.5999755859375</ele>
        <time>2020-08-20T11:29:15.000Z</time>
      </trkpt>
      <trkpt lat="42.81183217652142047882080078125" lon="-0.83225081674754619598388671875">
        <ele>975.4000244140625</ele>
        <time>2020-08-20T11:29:19.000Z</time>
      </trkpt>
      <trkpt lat="42.81185179017484188079833984375" lon="-0.83223539404571056365966796875">
        <ele>975.5999755859375</ele>
        <time>2020-08-20T11:29:20.000Z</time>
      </trkpt>
      <trkpt lat="42.8119127266108989715576171875" lon="-0.83217722363770008087158203125">
        <ele>976.20001220703125</ele>
        <time>2020-08-20T11:29:23.000Z</time>
      </trkpt>
      <trkpt lat="42.8119831345975399017333984375" lon="-0.8321271836757659912109375">
        <ele>977</ele>
        <time>2020-08-20T11:29:26.000Z</time>
      </trkpt>
      <trkpt lat="42.8120671212673187255859375" lon="-0.8320762217044830322265625">
        <ele>977.4000244140625</ele>
        <time>2020-08-20T11:29:29.000Z</time>
      </trkpt>
      <trkpt lat="42.8121480904519557952880859375" lon="-0.832030288875102996826171875">
        <ele>977.79998779296875</ele>
        <time>2020-08-20T11:29:32.000Z</time>
      </trkpt>
      <trkpt lat="42.8123251162469387054443359375" lon="-0.83197002299129962921142578125">
        <ele>978.20001220703125</ele>
        <time>2020-08-20T11:29:38.000Z</time>
      </trkpt>
      <trkpt lat="42.812354452908039093017578125" lon="-0.8319600485265254974365234375">
        <ele>978.5999755859375</ele>
        <time>2020-08-20T11:29:39.000Z</time>
      </trkpt>
      <trkpt lat="42.81246199272572994232177734375" lon="-0.83187513984739780426025390625">
        <ele>979.20001220703125</ele>
        <time>2020-08-20T11:29:43.000Z</time>
      </trkpt>
      <trkpt lat="42.8124877251684665679931640625" lon="-0.83184395916759967803955078125">
        <ele>979.4000244140625</ele>
        <time>2020-08-20T11:29:44.000Z</time>
      </trkpt>
      <trkpt lat="42.8125631622970104217529296875" lon="-0.8317501656711101531982421875">
        <ele>980</ele>
        <time>2020-08-20T11:29:47.000Z</time>
      </trkpt>
      <trkpt lat="42.8126520104706287384033203125" lon="-0.83163206465542316436767578125">
        <ele>981</ele>
        <time>2020-08-20T11:29:51.000Z</time>
      </trkpt>
      <trkpt lat="42.812675647437572479248046875" lon="-0.8316076733171939849853515625">
        <ele>981.20001220703125</ele>
        <time>2020-08-20T11:29:52.000Z</time>
      </trkpt>
      <trkpt lat="42.81292199157178401947021484375" lon="-0.83136686123907566070556640625">
        <ele>981.4000244140625</ele>
        <time>2020-08-20T11:30:01.000Z</time>
      </trkpt>
      <trkpt lat="42.8131448663771152496337890625" lon="-0.831271223723888397216796875">
        <ele>981.5999755859375</ele>
        <time>2020-08-20T11:30:08.000Z</time>
      </trkpt>
      <trkpt lat="42.813208401203155517578125" lon="-0.8312536217272281646728515625">
        <ele>981.79998779296875</ele>
        <time>2020-08-20T11:30:10.000Z</time>
      </trkpt>
      <trkpt lat="42.813381068408489227294921875" lon="-0.831208527088165283203125">
        <ele>981.79998779296875</ele>
        <time>2020-08-20T11:30:15.000Z</time>
      </trkpt>
      <trkpt lat="42.8135797195136547088623046875" lon="-0.83113409578800201416015625">
        <ele>981.20001220703125</ele>
        <time>2020-08-20T11:30:21.000Z</time>
      </trkpt>
      <trkpt lat="42.81368692405521869659423828125" lon="-0.83104046992957592010498046875">
        <ele>981</ele>
        <time>2020-08-20T11:30:25.000Z</time>
      </trkpt>
      <trkpt lat="42.81385841779410839080810546875" lon="-0.8308543078601360321044921875">
        <ele>981.79998779296875</ele>
        <time>2020-08-20T11:30:31.000Z</time>
      </trkpt>
      <trkpt lat="42.81404349021613597869873046875" lon="-0.830735452473163604736328125">
        <ele>982.4000244140625</ele>
        <time>2020-08-20T11:30:37.000Z</time>
      </trkpt>
      <trkpt lat="42.81425253488123416900634765625" lon="-0.83068993873894214630126953125">
        <ele>981.79998779296875</ele>
        <time>2020-08-20T11:30:43.000Z</time>
      </trkpt>
      <trkpt lat="42.8144578076899051666259765625" lon="-0.83075162954628467559814453125">
        <ele>980.79998779296875</ele>
        <time>2020-08-20T11:30:49.000Z</time>
      </trkpt>
      <trkpt lat="42.81449192203581333160400390625" lon="-0.830768644809722900390625">
        <ele>980.79998779296875</ele>
        <time>2020-08-20T11:30:50.000Z</time>
      </trkpt>
      <trkpt lat="42.81465369276702404022216796875" lon="-0.83086629398167133331298828125">
        <ele>981.5999755859375</ele>
        <time>2020-08-20T11:30:55.000Z</time>
      </trkpt>
      <trkpt lat="42.81478260643780231475830078125" lon="-0.8309558965265750885009765625">
        <ele>982.79998779296875</ele>
        <time>2020-08-20T11:30:59.000Z</time>
      </trkpt>
      <trkpt lat="42.81505267135798931121826171875" lon="-0.83115178160369396209716796875">
        <ele>983.4000244140625</ele>
        <time>2020-08-20T11:31:07.000Z</time>
      </trkpt>
      <trkpt lat="42.81515073962509632110595703125" lon="-0.831224955618381500244140625">
        <ele>983.5999755859375</ele>
        <time>2020-08-20T11:31:10.000Z</time>
      </trkpt>
      <trkpt lat="42.81533447094261646270751953125" lon="-0.83136602304875850677490234375">
        <ele>985</ele>
        <time>2020-08-20T11:31:16.000Z</time>
      </trkpt>
      <trkpt lat="42.8155957348644733428955078125" lon="-0.8315451443195343017578125">
        <ele>985.79998779296875</ele>
        <time>2020-08-20T11:31:24.000Z</time>
      </trkpt>
      <trkpt lat="42.81569011509418487548828125" lon="-0.83159275352954864501953125">
        <ele>986</ele>
        <time>2020-08-20T11:31:27.000Z</time>
      </trkpt>
      <trkpt lat="42.8158622793853282928466796875" lon="-0.83164773881435394287109375">
        <ele>986.4000244140625</ele>
        <time>2020-08-20T11:31:32.000Z</time>
      </trkpt>
      <trkpt lat="42.81606721691787242889404296875" lon="-0.831631980836391448974609375">
        <ele>986.5999755859375</ele>
        <time>2020-08-20T11:31:38.000Z</time>
      </trkpt>
      <trkpt lat="42.81629688106477260589599609375" lon="-0.8315060846507549285888671875">
        <ele>986.79998779296875</ele>
        <time>2020-08-20T11:31:45.000Z</time>
      </trkpt>
      <trkpt lat="42.81647742725908756256103515625" lon="-0.83128698170185089111328125">
        <ele>988</ele>
        <time>2020-08-20T11:31:52.000Z</time>
      </trkpt>
      <trkpt lat="42.81660801731050014495849609375" lon="-0.83107936196029186248779296875">
        <ele>988.79998779296875</ele>
        <time>2020-08-20T11:31:58.000Z</time>
      </trkpt>
      <trkpt lat="42.8166837058961391448974609375" lon="-0.831018425524234771728515625">
        <ele>989.20001220703125</ele>
        <time>2020-08-20T11:32:01.000Z</time>
      </trkpt>
      <trkpt lat="42.81674598343670368194580078125" lon="-0.8309911005198955535888671875">
        <ele>990</ele>
        <time>2020-08-20T11:32:03.000Z</time>
      </trkpt>
      <trkpt lat="42.81681152991950511932373046875" lon="-0.83096888847649097442626953125">
        <ele>990.4000244140625</ele>
        <time>2020-08-20T11:32:05.000Z</time>
      </trkpt>
      <trkpt lat="42.81690205447375774383544921875" lon="-0.83095916546881198883056640625">
        <ele>991.20001220703125</ele>
        <time>2020-08-20T11:32:08.000Z</time>
      </trkpt>
      <trkpt lat="42.81693063676357269287109375" lon="-0.83095346577465534210205078125">
        <ele>991.5999755859375</ele>
        <time>2020-08-20T11:32:09.000Z</time>
      </trkpt>
      <trkpt lat="42.8170786611735820770263671875" lon="-0.83092379383742809295654296875">
        <ele>992.5999755859375</ele>
        <time>2020-08-20T11:32:14.000Z</time>
      </trkpt>
      <trkpt lat="42.81734369695186614990234375" lon="-0.8308600075542926788330078125">
        <ele>992.79998779296875</ele>
        <time>2020-08-20T11:32:22.000Z</time>
      </trkpt>
      <trkpt lat="42.81760714016854763031005859375" lon="-0.83073955960571765899658203125">
        <ele>993.20001220703125</ele>
        <time>2020-08-20T11:32:31.000Z</time>
      </trkpt>
      <trkpt lat="42.81770755536854267120361328125" lon="-0.83056974224746227264404296875">
        <ele>993.5999755859375</ele>
        <time>2020-08-20T11:32:36.000Z</time>
      </trkpt>
      <trkpt lat="42.81774024479091167449951171875" lon="-0.8304922096431255340576171875">
        <ele>994.4000244140625</ele>
        <time>2020-08-20T11:32:38.000Z</time>
      </trkpt>
      <trkpt lat="42.8177669830620288848876953125" lon="-0.8304164372384548187255859375">
        <ele>994.79998779296875</ele>
        <time>2020-08-20T11:32:40.000Z</time>
      </trkpt>
      <trkpt lat="42.81784283928573131561279296875" lon="-0.83027889020740985870361328125">
        <ele>995</ele>
        <time>2020-08-20T11:32:45.000Z</time>
      </trkpt>
      <trkpt lat="42.81792380847036838531494140625" lon="-0.83024494349956512451171875">
        <ele>996</ele>
        <time>2020-08-20T11:32:48.000Z</time>
      </trkpt>
      <trkpt lat="42.8179919533431529998779296875" lon="-0.83022038452327251434326171875">
        <ele>996.20001220703125</ele>
        <time>2020-08-20T11:32:50.000Z</time>
      </trkpt>
      <trkpt lat="42.8181968070566654205322265625" lon="-0.8302042074501514434814453125">
        <ele>994.4000244140625</ele>
        <time>2020-08-20T11:32:56.000Z</time>
      </trkpt>
      <trkpt lat="42.8182615153491497039794921875" lon="-0.83021602593362331390380859375">
        <ele>994.20001220703125</ele>
        <time>2020-08-20T11:32:58.000Z</time>
      </trkpt>
      <trkpt lat="42.81842052005231380462646484375" lon="-0.830237232148647308349609375">
        <ele>993.4000244140625</ele>
        <time>2020-08-20T11:33:03.000Z</time>
      </trkpt>
      <trkpt lat="42.818452455103397369384765625" lon="-0.83024586550891399383544921875">
        <ele>993.20001220703125</ele>
        <time>2020-08-20T11:33:04.000Z</time>
      </trkpt>
      <trkpt lat="42.81867868266999721527099609375" lon="-0.8302658982574939727783203125">
        <ele>992.4000244140625</ele>
        <time>2020-08-20T11:33:11.000Z</time>
      </trkpt>
      <trkpt lat="42.8189132921397686004638671875" lon="-0.83026229403913021087646484375">
        <ele>992.5999755859375</ele>
        <time>2020-08-20T11:33:18.000Z</time>
      </trkpt>
      <trkpt lat="42.81916013918817043304443359375" lon="-0.8303622901439666748046875">
        <ele>992.79998779296875</ele>
        <time>2020-08-20T11:33:26.000Z</time>
      </trkpt>
      <trkpt lat="42.81942131929099559783935546875" lon="-0.83050084300339221954345703125">
        <ele>993.4000244140625</ele>
        <time>2020-08-20T11:33:34.000Z</time>
      </trkpt>
      <trkpt lat="42.81973513774573802947998046875" lon="-0.830683149397373199462890625">
        <ele>994</ele>
        <time>2020-08-20T11:33:43.000Z</time>
      </trkpt>
      <trkpt lat="42.8198064677417278289794921875" lon="-0.83071676082909107208251953125">
        <ele>994.20001220703125</ele>
        <time>2020-08-20T11:33:45.000Z</time>
      </trkpt>
      <trkpt lat="42.819958515465259552001953125" lon="-0.830736458301544189453125">
        <ele>995</ele>
        <time>2020-08-20T11:33:49.000Z</time>
      </trkpt>
      <trkpt lat="42.81999967060983180999755859375" lon="-0.83072774112224578857421875">
        <ele>995</ele>
        <time>2020-08-20T11:33:50.000Z</time>
      </trkpt>
      <trkpt lat="42.8200398199260234832763671875" lon="-0.83071491681039333343505859375">
        <ele>995.20001220703125</ele>
        <time>2020-08-20T11:33:51.000Z</time>
      </trkpt>
      <trkpt lat="42.8202129900455474853515625" lon="-0.83064459264278411865234375">
        <ele>995.20001220703125</ele>
        <time>2020-08-20T11:33:55.000Z</time>
      </trkpt>
      <trkpt lat="42.8205252997577190399169921875" lon="-0.8304803073406219482421875">
        <ele>995</ele>
        <time>2020-08-20T11:34:02.000Z</time>
      </trkpt>
      <trkpt lat="42.82074666582047939300537109375" lon="-0.83032834343612194061279296875">
        <ele>995.20001220703125</ele>
        <time>2020-08-20T11:34:08.000Z</time>
      </trkpt>
      <trkpt lat="42.8210449777543544769287109375" lon="-0.83010613918304443359375">
        <ele>995.4000244140625</ele>
        <time>2020-08-20T11:34:17.000Z</time>
      </trkpt>
      <trkpt lat="42.82122275792062282562255859375" lon="-0.82997982390224933624267578125">
        <ele>996</ele>
        <time>2020-08-20T11:34:23.000Z</time>
      </trkpt>
      <trkpt lat="42.82125226221978664398193359375" lon="-0.82996171899139881134033203125">
        <ele>996.20001220703125</ele>
        <time>2020-08-20T11:34:24.000Z</time>
      </trkpt>
      <trkpt lat="42.82145082950592041015625" lon="-0.82982090301811695098876953125">
        <ele>996.79998779296875</ele>
        <time>2020-08-20T11:34:30.000Z</time>
      </trkpt>
      <trkpt lat="42.82155702821910381317138671875" lon="-0.82984101958572864532470703125">
        <ele>997</ele>
        <time>2020-08-20T11:34:34.000Z</time>
      </trkpt>
      <trkpt lat="42.8215773962438106536865234375" lon="-0.8298471383750438690185546875">
        <ele>997.20001220703125</ele>
        <time>2020-08-20T11:34:37.000Z</time>
      </trkpt>
      <trkpt lat="42.821577899158000946044921875" lon="-0.829846300184726715087890625">
        <ele>997.20001220703125</ele>
        <time>2020-08-20T11:34:38.000Z</time>
      </trkpt>
      <trkpt lat="42.821581922471523284912109375" lon="-0.8298434503376483917236328125">
        <ele>997.4000244140625</ele>
        <time>2020-08-20T11:34:41.000Z</time>
      </trkpt>
      <trkpt lat="42.8216283582150936126708984375" lon="-0.82988594658672809600830078125">
        <ele>997.5999755859375</ele>
        <time>2020-08-20T11:34:44.000Z</time>
      </trkpt>
      <trkpt lat="42.8217507340013980865478515625" lon="-0.83001536317169666290283203125">
        <ele>998</ele>
        <time>2020-08-20T11:34:50.000Z</time>
      </trkpt>
      <trkpt lat="42.82177202403545379638671875" lon="-0.83004050888121128082275390625">
        <ele>998.20001220703125</ele>
        <time>2020-08-20T11:34:51.000Z</time>
      </trkpt>
      <trkpt lat="42.82179306261241436004638671875" lon="-0.83006783388555049896240234375">
        <ele>998.4000244140625</ele>
        <time>2020-08-20T11:34:52.000Z</time>
      </trkpt>
      <trkpt lat="42.821862883865833282470703125" lon="-0.8302588574588298797607421875">
        <ele>998.79998779296875</ele>
        <time>2020-08-20T11:34:57.000Z</time>
      </trkpt>
      <trkpt lat="42.8218902088701725006103515625" lon="-0.83041526377201080322265625">
        <ele>999.4000244140625</ele>
        <time>2020-08-20T11:35:01.000Z</time>
      </trkpt>
      <trkpt lat="42.8218965791165828704833984375" lon="-0.8305366337299346923828125">
        <ele>999.79998779296875</ele>
        <time>2020-08-20T11:35:04.000Z</time>
      </trkpt>
      <trkpt lat="42.8219063021242618560791015625" lon="-0.8306895196437835693359375">
        <ele>1000.4000244140625</ele>
        <time>2020-08-20T11:35:08.000Z</time>
      </trkpt>
      <trkpt lat="42.82196003012359142303466796875" lon="-0.8308730833232402801513671875">
        <ele>1001</ele>
        <time>2020-08-20T11:35:13.000Z</time>
      </trkpt>
      <trkpt lat="42.82199523411691188812255859375" lon="-0.8309401385486125946044921875">
        <ele>1001.5999755859375</ele>
        <time>2020-08-20T11:35:15.000Z</time>
      </trkpt>
      <trkpt lat="42.82208391465246677398681640625" lon="-0.8310296572744846343994140625">
        <ele>1002.20001220703125</ele>
        <time>2020-08-20T11:35:19.000Z</time>
      </trkpt>
      <trkpt lat="42.822151891887187957763671875" lon="-0.8310903422534465789794921875">
        <ele>1002.5999755859375</ele>
        <time>2020-08-20T11:35:22.000Z</time>
      </trkpt>
      <trkpt lat="42.822256498038768768310546875" lon="-0.8311771787703037261962890625">
        <ele>1003.79998779296875</ele>
        <time>2020-08-20T11:35:27.000Z</time>
      </trkpt>
      <trkpt lat="42.82239052467048168182373046875" lon="-0.8313019014894962310791015625">
        <ele>1004.5999755859375</ele>
        <time>2020-08-20T11:35:34.000Z</time>
      </trkpt>
      <trkpt lat="42.82260862179100513458251953125" lon="-0.83152695558965206146240234375">
        <ele>1004.20001220703125</ele>
        <time>2020-08-20T11:35:44.000Z</time>
      </trkpt>
      <trkpt lat="42.82265036366879940032958984375" lon="-0.83154807798564434051513671875">
        <ele>1004</ele>
        <time>2020-08-20T11:35:47.000Z</time>
      </trkpt>
      <trkpt lat="42.822652794420719146728515625" lon="-0.83154019899666309356689453125">
        <ele>1005.4000244140625</ele>
        <time>2020-08-20T11:37:43.000Z</time>
      </trkpt>
      <trkpt lat="42.82268757931888103485107421875" lon="-0.83157020621001720428466796875">
        <ele>1005.79998779296875</ele>
        <time>2020-08-20T11:37:48.000Z</time>
      </trkpt>
      <trkpt lat="42.82284851185977458953857421875" lon="-0.83157842047512531280517578125">
        <ele>1006</ele>
        <time>2020-08-20T11:37:55.000Z</time>
      </trkpt>
      <trkpt lat="42.822998464107513427734375" lon="-0.83154204301536083221435546875">
        <ele>1006.5999755859375</ele>
        <time>2020-08-20T11:38:01.000Z</time>
      </trkpt>
      <trkpt lat="42.82302319072186946868896484375" lon="-0.83153642714023590087890625">
        <ele>1006.5999755859375</ele>
        <time>2020-08-20T11:38:02.000Z</time>
      </trkpt>
      <trkpt lat="42.82323827035725116729736328125" lon="-0.8314903266727924346923828125">
        <ele>1007</ele>
        <time>2020-08-20T11:38:11.000Z</time>
      </trkpt>
      <trkpt lat="42.82333315350115299224853515625" lon="-0.8314799331128597259521484375">
        <ele>1007.5999755859375</ele>
        <time>2020-08-20T11:38:15.000Z</time>
      </trkpt>
      <trkpt lat="42.8233738057315349578857421875" lon="-0.8314638398587703704833984375">
        <ele>1007.79998779296875</ele>
        <time>2020-08-20T11:38:17.000Z</time>
      </trkpt>
      <trkpt lat="42.8234857879579067230224609375" lon="-0.83143240772187709808349609375">
        <ele>1008.79998779296875</ele>
        <time>2020-08-20T11:38:22.000Z</time>
      </trkpt>
      <trkpt lat="42.82353364862501621246337890625" lon="-0.83142913877964019775390625">
        <ele>1009.4000244140625</ele>
        <time>2020-08-20T11:38:24.000Z</time>
      </trkpt>
      <trkpt lat="42.82363607548177242279052734375" lon="-0.83144213072955608367919921875">
        <ele>1009.5999755859375</ele>
        <time>2020-08-20T11:38:28.000Z</time>
      </trkpt>
      <trkpt lat="42.823657952249050140380859375" lon="-0.83144246600568294525146484375">
        <ele>1009.79998779296875</ele>
        <time>2020-08-20T11:38:29.000Z</time>
      </trkpt>
      <trkpt lat="42.8236802481114864349365234375" lon="-0.8314427174627780914306640625">
        <ele>1010</ele>
        <time>2020-08-20T11:38:30.000Z</time>
      </trkpt>
      <trkpt lat="42.8237825073301792144775390625" lon="-0.8314856328070163726806640625">
        <ele>1010.79998779296875</ele>
        <time>2020-08-20T11:38:35.000Z</time>
      </trkpt>
      <trkpt lat="42.823802791535854339599609375" lon="-0.831502564251422882080078125">
        <ele>1011</ele>
        <time>2020-08-20T11:38:36.000Z</time>
      </trkpt>
      <trkpt lat="42.82392592169344425201416015625" lon="-0.83161261864006519317626953125">
        <ele>1011.4000244140625</ele>
        <time>2020-08-20T11:38:41.000Z</time>
      </trkpt>
      <trkpt lat="42.8240068070590496063232421875" lon="-0.83167732693254947662353515625">
        <ele>1011.79998779296875</ele>
        <time>2020-08-20T11:38:45.000Z</time>
      </trkpt>
      <trkpt lat="42.82404410652816295623779296875" lon="-0.83171303384006023406982421875">
        <ele>1012</ele>
        <time>2020-08-20T11:38:47.000Z</time>
      </trkpt>
      <trkpt lat="42.82413932494819164276123046875" lon="-0.831798948347568511962890625">
        <ele>1012.79998779296875</ele>
        <time>2020-08-20T11:38:52.000Z</time>
      </trkpt>
      <trkpt lat="42.82422448508441448211669921875" lon="-0.8318765647709369659423828125">
        <ele>1013.79998779296875</ele>
        <time>2020-08-20T11:38:56.000Z</time>
      </trkpt>
      <trkpt lat="42.824284918606281280517578125" lon="-0.83193347789347171783447265625">
        <ele>1014.4000244140625</ele>
        <time>2020-08-20T11:38:59.000Z</time>
      </trkpt>
      <trkpt lat="42.82432154752314090728759765625" lon="-0.83197505213320255279541015625">
        <ele>1014.79998779296875</ele>
        <time>2020-08-20T11:39:01.000Z</time>
      </trkpt>
      <trkpt lat="42.82439882867038249969482421875" lon="-0.83205518312752246856689453125">
        <ele>1015.79998779296875</ele>
        <time>2020-08-20T11:39:05.000Z</time>
      </trkpt>
      <trkpt lat="42.82451282255351543426513671875" lon="-0.8321384154260158538818359375">
        <ele>1016.5999755859375</ele>
        <time>2020-08-20T11:39:11.000Z</time>
      </trkpt>
      <trkpt lat="42.8245502896606922149658203125" lon="-0.83217747509479522705078125">
        <ele>1017</ele>
        <time>2020-08-20T11:39:13.000Z</time>
      </trkpt>
      <trkpt lat="42.824632935225963592529296875" lon="-0.83225551061332225799560546875">
        <ele>1017.4000244140625</ele>
        <time>2020-08-20T11:39:17.000Z</time>
      </trkpt>
      <trkpt lat="42.82473586499691009521484375" lon="-0.83233547396957874298095703125">
        <ele>1018</ele>
        <time>2020-08-20T11:39:22.000Z</time>
      </trkpt>
      <trkpt lat="42.82477567903697490692138671875" lon="-0.83236464299261569976806640625">
        <ele>1018.20001220703125</ele>
        <time>2020-08-20T11:39:24.000Z</time>
      </trkpt>
      <trkpt lat="42.82487399876117706298828125" lon="-0.832443349063396453857421875">
        <ele>1019.20001220703125</ele>
        <time>2020-08-20T11:39:29.000Z</time>
      </trkpt>
      <trkpt lat="42.82492361962795257568359375" lon="-0.83249263465404510498046875">
        <ele>1019.5999755859375</ele>
        <time>2020-08-20T11:39:32.000Z</time>
      </trkpt>
      <trkpt lat="42.82496108673512935638427734375" lon="-0.83251803182065486907958984375">
        <ele>1020.20001220703125</ele>
        <time>2020-08-20T11:39:34.000Z</time>
      </trkpt>
      <trkpt lat="42.82504792325198650360107421875" lon="-0.8325950615108013153076171875">
        <ele>1021</ele>
        <time>2020-08-20T11:39:39.000Z</time>
      </trkpt>
      <trkpt lat="42.825182117521762847900390625" lon="-0.83268516696989536285400390625">
        <ele>1021.4000244140625</ele>
        <time>2020-08-20T11:39:46.000Z</time>
      </trkpt>
      <trkpt lat="42.82520248554646968841552734375" lon="-0.83269204013049602508544921875">
        <ele>1021.5999755859375</ele>
        <time>2020-08-20T11:39:47.000Z</time>
      </trkpt>
      <trkpt lat="42.8253968618810176849365234375" lon="-0.83279496990144252777099609375">
        <ele>1022.4000244140625</ele>
        <time>2020-08-20T11:39:56.000Z</time>
      </trkpt>
      <trkpt lat="42.82541706226766109466552734375" lon="-0.8328056149184703826904296875">
        <ele>1022.5999755859375</ele>
        <time>2020-08-20T11:39:57.000Z</time>
      </trkpt>
      <trkpt lat="42.825505994260311126708984375" lon="-0.8328592590987682342529296875">
        <ele>1023</ele>
        <time>2020-08-20T11:40:01.000Z</time>
      </trkpt>
      <trkpt lat="42.8255903162062168121337890625" lon="-0.8328887633979320526123046875">
        <ele>1023.5999755859375</ele>
        <time>2020-08-20T11:40:05.000Z</time>
      </trkpt>
      <trkpt lat="42.82563381828367710113525390625" lon="-0.832908041775226593017578125">
        <ele>1024.199951171875</ele>
        <time>2020-08-20T11:40:07.000Z</time>
      </trkpt>
      <trkpt lat="42.825723253190517425537109375" lon="-0.83294433541595935821533203125">
        <ele>1024.800048828125</ele>
        <time>2020-08-20T11:40:11.000Z</time>
      </trkpt>
      <trkpt lat="42.825760133564472198486328125" lon="-0.8329595066606998443603515625">
        <ele>1025.4000244140625</ele>
        <time>2020-08-20T11:40:13.000Z</time>
      </trkpt>
      <trkpt lat="42.8257760591804981231689453125" lon="-0.8329662121832370758056640625">
        <ele>1025.800048828125</ele>
        <time>2020-08-20T11:40:14.000Z</time>
      </trkpt>
      <trkpt lat="42.82584152184426784515380859375" lon="-0.83300225436687469482421875">
        <ele>1026.800048828125</ele>
        <time>2020-08-20T11:40:18.000Z</time>
      </trkpt>
      <trkpt lat="42.8258598782122135162353515625" lon="-0.83301457576453685760498046875">
        <ele>1027</ele>
        <time>2020-08-20T11:40:19.000Z</time>
      </trkpt>
      <trkpt lat="42.8260057233273983001708984375" lon="-0.83308716304600238800048828125">
        <ele>1028</ele>
        <time>2020-08-20T11:40:26.000Z</time>
      </trkpt>
      <trkpt lat="42.8261726908385753631591796875" lon="-0.83317257463932037353515625">
        <ele>1029.199951171875</ele>
        <time>2020-08-20T11:40:34.000Z</time>
      </trkpt>
      <trkpt lat="42.82626807689666748046875" lon="-0.8332106284797191619873046875">
        <ele>1029.4000244140625</ele>
        <time>2020-08-20T11:40:39.000Z</time>
      </trkpt>
      <trkpt lat="42.82632649876177310943603515625" lon="-0.83323837257921695709228515625">
        <ele>1030.199951171875</ele>
        <time>2020-08-20T11:40:43.000Z</time>
      </trkpt>
      <trkpt lat="42.82633756287395954132080078125" lon="-0.83324574865400791168212890625">
        <ele>1030.4000244140625</ele>
        <time>2020-08-20T11:40:44.000Z</time>
      </trkpt>
      <trkpt lat="42.82638735137879848480224609375" lon="-0.8332625962793827056884765625">
        <ele>1031.4000244140625</ele>
        <time>2020-08-20T11:40:47.000Z</time>
      </trkpt>
      <trkpt lat="42.82643194310367107391357421875" lon="-0.833280868828296661376953125">
        <ele>1031.800048828125</ele>
        <time>2020-08-20T11:40:49.000Z</time>
      </trkpt>
      <trkpt lat="42.8265374712646007537841796875" lon="-0.83332168869674205780029296875">
        <ele>1032.5999755859375</ele>
        <time>2020-08-20T11:40:54.000Z</time>
      </trkpt>
      <trkpt lat="42.8265569172799587249755859375" lon="-0.83333090879023075103759765625">
        <ele>1032.800048828125</ele>
        <time>2020-08-20T11:40:55.000Z</time>
      </trkpt>
      <trkpt lat="42.826682813465595245361328125" lon="-0.8333705551922321319580078125">
        <ele>1033.800048828125</ele>
        <time>2020-08-20T11:41:01.000Z</time>
      </trkpt>
      <trkpt lat="42.8268429078161716461181640625" lon="-0.83342202007770538330078125">
        <ele>1034.800048828125</ele>
        <time>2020-08-20T11:41:08.000Z</time>
      </trkpt>
      <trkpt lat="42.826863862574100494384765625" lon="-0.83343140780925750732421875">
        <ele>1035</ele>
        <time>2020-08-20T11:41:09.000Z</time>
      </trkpt>
      <trkpt lat="42.82694122754037380218505859375" lon="-0.83347490988671779632568359375">
        <ele>1036</ele>
        <time>2020-08-20T11:41:13.000Z</time>
      </trkpt>
      <trkpt lat="42.8269587457180023193359375" lon="-0.8334736526012420654296875">
        <ele>1036.5999755859375</ele>
        <time>2020-08-20T11:41:15.000Z</time>
      </trkpt>
      <trkpt lat="42.82699906267225742340087890625" lon="-0.8335004746913909912109375">
        <ele>1037</ele>
        <time>2020-08-20T11:41:18.000Z</time>
      </trkpt>
      <trkpt lat="42.82706779427826404571533203125" lon="-0.8335720561444759368896484375">
        <ele>1037.4000244140625</ele>
        <time>2020-08-20T11:41:22.000Z</time>
      </trkpt>
      <trkpt lat="42.8271040879189968109130859375" lon="-0.833617150783538818359375">
        <ele>1038</ele>
        <time>2020-08-20T11:41:24.000Z</time>
      </trkpt>
      <trkpt lat="42.8271196782588958740234375" lon="-0.83364137448370456695556640625">
        <ele>1038</ele>
        <time>2020-08-20T11:41:25.000Z</time>
      </trkpt>
      <trkpt lat="42.8271518647670745849609375" lon="-0.8336870558559894561767578125">
        <ele>1038.199951171875</ele>
        <time>2020-08-20T11:41:27.000Z</time>
      </trkpt>
      <trkpt lat="42.82723325304687023162841796875" lon="-0.83384119905531406402587890625">
        <ele>1039.199951171875</ele>
        <time>2020-08-20T11:41:33.000Z</time>
      </trkpt>
      <trkpt lat="42.82727658748626708984375" lon="-0.83390758372843265533447265625">
        <ele>1039.5999755859375</ele>
        <time>2020-08-20T11:41:36.000Z</time>
      </trkpt>
      <trkpt lat="42.827336601912975311279296875" lon="-0.8340260200202465057373046875">
        <ele>1040</ele>
        <time>2020-08-20T11:41:41.000Z</time>
      </trkpt>
      <trkpt lat="42.827358059585094451904296875" lon="-0.83406801335513591766357421875">
        <ele>1040.199951171875</ele>
        <time>2020-08-20T11:41:43.000Z</time>
      </trkpt>
      <trkpt lat="42.82737004570662975311279296875" lon="-0.83409248851239681243896484375">
        <ele>1040.5999755859375</ele>
        <time>2020-08-20T11:41:47.000Z</time>
      </trkpt>
      <trkpt lat="42.82736979424953460693359375" lon="-0.83409684710204601287841796875">
        <ele>1040.800048828125</ele>
        <time>2020-08-20T11:41:59.000Z</time>
      </trkpt>
      <trkpt lat="42.82737541012465953826904296875" lon="-0.83410791121423244476318359375">
        <ele>1041.199951171875</ele>
        <time>2020-08-20T11:42:09.000Z</time>
      </trkpt>
      <trkpt lat="42.827389575541019439697265625" lon="-0.8341410197317600250244140625">
        <ele>1041.199951171875</ele>
        <time>2020-08-20T11:42:11.000Z</time>
      </trkpt>
      <trkpt lat="42.8274162299931049346923828125" lon="-0.8341817557811737060546875">
        <ele>1041.4000244140625</ele>
        <time>2020-08-20T11:42:13.000Z</time>
      </trkpt>
      <trkpt lat="42.8274306468665599822998046875" lon="-0.83420312963426113128662109375">
        <ele>1041.4000244140625</ele>
        <time>2020-08-20T11:42:14.000Z</time>
      </trkpt>
      <trkpt lat="42.82749476842582225799560546875" lon="-0.83428309299051761627197265625">
        <ele>1042</ele>
        <time>2020-08-20T11:42:18.000Z</time>
      </trkpt>
      <trkpt lat="42.82753743231296539306640625" lon="-0.834345035254955291748046875">
        <ele>1042.199951171875</ele>
        <time>2020-08-20T11:42:21.000Z</time>
      </trkpt>
      <trkpt lat="42.8275704570114612579345703125" lon="-0.83438132889568805694580078125">
        <ele>1042.199951171875</ele>
        <time>2020-08-20T11:42:23.000Z</time>
      </trkpt>
      <trkpt lat="42.8276559524238109588623046875" lon="-0.83448543213307857513427734375">
        <ele>1042.800048828125</ele>
        <time>2020-08-20T11:42:28.000Z</time>
      </trkpt>
      <trkpt lat="42.82769040204584598541259765625" lon="-0.83453287370502948760986328125">
        <ele>1043.199951171875</ele>
        <time>2020-08-20T11:42:30.000Z</time>
      </trkpt>
      <trkpt lat="42.82772476784884929656982421875" lon="-0.8345792256295680999755859375">
        <ele>1043.800048828125</ele>
        <time>2020-08-20T11:42:32.000Z</time>
      </trkpt>
      <trkpt lat="42.8277795016765594482421875" lon="-0.8346600271761417388916015625">
        <ele>1044.4000244140625</ele>
        <time>2020-08-20T11:42:36.000Z</time>
      </trkpt>
      <trkpt lat="42.82782711088657379150390625" lon="-0.8347262442111968994140625">
        <ele>1044.800048828125</ele>
        <time>2020-08-20T11:42:39.000Z</time>
      </trkpt>
      <trkpt lat="42.82786156050860881805419921875" lon="-0.83476354368031024932861328125">
        <ele>1045.199951171875</ele>
        <time>2020-08-20T11:42:41.000Z</time>
      </trkpt>
      <trkpt lat="42.82794621773064136505126953125" lon="-0.83487703464925289154052734375">
        <ele>1046</ele>
        <time>2020-08-20T11:42:46.000Z</time>
      </trkpt>
      <trkpt lat="42.827978320419788360595703125" lon="-0.83490888588130474090576171875">
        <ele>1046.4000244140625</ele>
        <time>2020-08-20T11:42:48.000Z</time>
      </trkpt>
      <trkpt lat="42.82804277725517749786376953125" lon="-0.83498708903789520263671875">
        <ele>1047</ele>
        <time>2020-08-20T11:42:52.000Z</time>
      </trkpt>
      <trkpt lat="42.8280814178287982940673828125" lon="-0.83502371795475482940673828125">
        <ele>1047.4000244140625</ele>
        <time>2020-08-20T11:42:54.000Z</time>
      </trkpt>
      <trkpt lat="42.8281796537339687347412109375" lon="-0.83513637073338031768798828125">
        <ele>1047.5999755859375</ele>
        <time>2020-08-20T11:42:59.000Z</time>
      </trkpt>
      <trkpt lat="42.82823455519974231719970703125" lon="-0.8351850695908069610595703125">
        <ele>1048.199951171875</ele>
        <time>2020-08-20T11:43:02.000Z</time>
      </trkpt>
      <trkpt lat="42.8282520733773708343505859375" lon="-0.8352065272629261016845703125">
        <ele>1048.4000244140625</ele>
        <time>2020-08-20T11:43:03.000Z</time>
      </trkpt>
      <trkpt lat="42.8282842598855495452880859375" lon="-0.83525069989264011383056640625">
        <ele>1048.5999755859375</ele>
        <time>2020-08-20T11:43:05.000Z</time>
      </trkpt>
      <trkpt lat="42.828319631516933441162109375" lon="-0.835291184484958648681640625">
        <ele>1049.199951171875</ele>
        <time>2020-08-20T11:43:07.000Z</time>
      </trkpt>
      <trkpt lat="42.82839766703546047210693359375" lon="-0.83537793718278408050537109375">
        <ele>1049.800048828125</ele>
        <time>2020-08-20T11:43:11.000Z</time>
      </trkpt>
      <trkpt lat="42.82852356322109699249267578125" lon="-0.83547667600214481353759765625">
        <ele>1050</ele>
        <time>2020-08-20T11:43:17.000Z</time>
      </trkpt>
      <trkpt lat="42.8286614455282688140869140625" lon="-0.83557759411633014678955078125">
        <ele>1050.199951171875</ele>
        <time>2020-08-20T11:43:23.000Z</time>
      </trkpt>
      <trkpt lat="42.8287248127162456512451171875" lon="-0.8356113731861114501953125">
        <ele>1050.4000244140625</ele>
        <time>2020-08-20T11:43:25.000Z</time>
      </trkpt>
      <trkpt lat="42.8288518823683261871337890625" lon="-0.8356933481991291046142578125">
        <ele>1050.800048828125</ele>
        <time>2020-08-20T11:43:29.000Z</time>
      </trkpt>
      <trkpt lat="42.8290131501853466033935546875" lon="-0.83579502068459987640380859375">
        <ele>1051</ele>
        <time>2020-08-20T11:43:34.000Z</time>
      </trkpt>
      <trkpt lat="42.82917751930654048919677734375" lon="-0.83589929156005382537841796875">
        <ele>1051.4000244140625</ele>
        <time>2020-08-20T11:43:40.000Z</time>
      </trkpt>
      <trkpt lat="42.829294614493846893310546875" lon="-0.83601412363350391387939453125">
        <ele>1051.199951171875</ele>
        <time>2020-08-20T11:43:45.000Z</time>
      </trkpt>
      <trkpt lat="42.8294158168137073516845703125" lon="-0.8361610583961009979248046875">
        <ele>1051.4000244140625</ele>
        <time>2020-08-20T11:43:50.000Z</time>
      </trkpt>
      <trkpt lat="42.829515896737575531005859375" lon="-0.83628284744918346405029296875">
        <ele>1051.4000244140625</ele>
        <time>2020-08-20T11:43:54.000Z</time>
      </trkpt>
      <trkpt lat="42.82961924560368061065673828125" lon="-0.8364026248455047607421875">
        <ele>1051.5999755859375</ele>
        <time>2020-08-20T11:43:58.000Z</time>
      </trkpt>
      <trkpt lat="42.82974732108414173126220703125" lon="-0.83662181161344051361083984375">
        <ele>1051.4000244140625</ele>
        <time>2020-08-20T11:44:04.000Z</time>
      </trkpt>
      <trkpt lat="42.82993390224874019622802734375" lon="-0.83681325428187847137451171875">
        <ele>1051.5999755859375</ele>
        <time>2020-08-20T11:44:10.000Z</time>
      </trkpt>
      <trkpt lat="42.83000171184539794921875" lon="-0.83687259815633296966552734375">
        <ele>1051.800048828125</ele>
        <time>2020-08-20T11:44:12.000Z</time>
      </trkpt>
      <trkpt lat="42.83012702129781246185302734375" lon="-0.83699212409555912017822265625">
        <ele>1051.5999755859375</ele>
        <time>2020-08-20T11:44:16.000Z</time>
      </trkpt>
      <trkpt lat="42.83029499463737010955810546875" lon="-0.83715439774096012115478515625">
        <ele>1051</ele>
        <time>2020-08-20T11:44:22.000Z</time>
      </trkpt>
      <trkpt lat="42.83049113117158412933349609375" lon="-0.83728314377367496490478515625">
        <ele>1051.199951171875</ele>
        <time>2020-08-20T11:44:28.000Z</time>
      </trkpt>
      <trkpt lat="42.83066262491047382354736328125" lon="-0.83738137967884540557861328125">
        <ele>1051</ele>
        <time>2020-08-20T11:44:33.000Z</time>
      </trkpt>
      <trkpt lat="42.83069715835154056549072265625" lon="-0.83739143796265125274658203125">
        <ele>1051</ele>
        <time>2020-08-20T11:44:34.000Z</time>
      </trkpt>
      <trkpt lat="42.83089882694184780120849609375" lon="-0.83746469579637050628662109375">
        <ele>1051.199951171875</ele>
        <time>2020-08-20T11:44:40.000Z</time>
      </trkpt>
      <trkpt lat="42.83108993433415889739990234375" lon="-0.83744265139102935791015625">
        <ele>1051.5999755859375</ele>
        <time>2020-08-20T11:44:46.000Z</time>
      </trkpt>
      <trkpt lat="42.83125095069408416748046875" lon="-0.83738288842141628265380859375">
        <ele>1052.199951171875</ele>
        <time>2020-08-20T11:44:52.000Z</time>
      </trkpt>
      <trkpt lat="42.83127534203231334686279296875" lon="-0.837372578680515289306640625">
        <ele>1052.199951171875</ele>
        <time>2020-08-20T11:44:53.000Z</time>
      </trkpt>
      <trkpt lat="42.83143644221127033233642578125" lon="-0.8372877538204193115234375">
        <ele>1053.199951171875</ele>
        <time>2020-08-20T11:45:00.000Z</time>
      </trkpt>
      <trkpt lat="42.8314563073217868804931640625" lon="-0.8372755162417888641357421875">
        <ele>1053.4000244140625</ele>
        <time>2020-08-20T11:45:01.000Z</time>
      </trkpt>
      <trkpt lat="42.831566445529460906982421875" lon="-0.8372044377028942108154296875">
        <ele>1054.199951171875</ele>
        <time>2020-08-20T11:45:06.000Z</time>
      </trkpt>
      <trkpt lat="42.83158731646835803985595703125" lon="-0.83718474023044109344482421875">
        <ele>1054.4000244140625</ele>
        <time>2020-08-20T11:45:07.000Z</time>
      </trkpt>
      <trkpt lat="42.831679098308086395263671875" lon="-0.83707359619438648223876953125">
        <ele>1055.199951171875</ele>
        <time>2020-08-20T11:45:12.000Z</time>
      </trkpt>
      <trkpt lat="42.831717990338802337646484375" lon="-0.8370364643633365631103515625">
        <ele>1055.4000244140625</ele>
        <time>2020-08-20T11:45:14.000Z</time>
      </trkpt>
      <trkpt lat="42.83181530423462390899658203125" lon="-0.8369221352040767669677734375">
        <ele>1056.4000244140625</ele>
        <time>2020-08-20T11:45:19.000Z</time>
      </trkpt>
      <trkpt lat="42.8318532742559909820556640625" lon="-0.83687427453696727752685546875">
        <ele>1056.5999755859375</ele>
        <time>2020-08-20T11:45:21.000Z</time>
      </trkpt>
      <trkpt lat="42.83198310993611812591552734375" lon="-0.83669976331293582916259765625">
        <ele>1057.4000244140625</ele>
        <time>2020-08-20T11:45:28.000Z</time>
      </trkpt>
      <trkpt lat="42.83212208189070224761962890625" lon="-0.83651125431060791015625">
        <ele>1058.5999755859375</ele>
        <time>2020-08-20T11:45:35.000Z</time>
      </trkpt>
      <trkpt lat="42.83224605023860931396484375" lon="-0.836364738643169403076171875">
        <ele>1059.5999755859375</ele>
        <time>2020-08-20T11:45:41.000Z</time>
      </trkpt>
      <trkpt lat="42.83226725645363330841064453125" lon="-0.8363377489149570465087890625">
        <ele>1059.5999755859375</ele>
        <time>2020-08-20T11:45:42.000Z</time>
      </trkpt>
      <trkpt lat="42.832452915608882904052734375" lon="-0.8361510001122951507568359375">
        <ele>1060</ele>
        <time>2020-08-20T11:45:50.000Z</time>
      </trkpt>
      <trkpt lat="42.83256950788199901580810546875" lon="-0.8360410295426845550537109375">
        <ele>1060.5999755859375</ele>
        <time>2020-08-20T11:45:55.000Z</time>
      </trkpt>
      <trkpt lat="42.832639999687671661376953125" lon="-0.83597623743116855621337890625">
        <ele>1061.199951171875</ele>
        <time>2020-08-20T11:45:58.000Z</time>
      </trkpt>
      <trkpt lat="42.83268819563090801239013671875" lon="-0.83593566901981830596923828125">
        <ele>1061.800048828125</ele>
        <time>2020-08-20T11:46:00.000Z</time>
      </trkpt>
      <trkpt lat="42.8327809832990169525146484375" lon="-0.8358556218445301055908203125">
        <ele>1062.5999755859375</ele>
        <time>2020-08-20T11:46:04.000Z</time>
      </trkpt>
      <trkpt lat="42.83285197801887989044189453125" lon="-0.8357999660074710845947265625">
        <ele>1063.4000244140625</ele>
        <time>2020-08-20T11:46:07.000Z</time>
      </trkpt>
      <trkpt lat="42.8328745253384113311767578125" lon="-0.8357808552682399749755859375">
        <ele>1063.5999755859375</ele>
        <time>2020-08-20T11:46:08.000Z</time>
      </trkpt>
      <trkpt lat="42.83298273570835590362548828125" lon="-0.8356782607734203338623046875">
        <ele>1064.800048828125</ele>
        <time>2020-08-20T11:46:13.000Z</time>
      </trkpt>
      <trkpt lat="42.83304124139249324798583984375" lon="-0.83562201820313930511474609375">
        <ele>1065.5999755859375</ele>
        <time>2020-08-20T11:46:16.000Z</time>
      </trkpt>
      <trkpt lat="42.8330512158572673797607421875" lon="-0.83561145700514316558837890625">
        <ele>1066</ele>
        <time>2020-08-20T11:46:17.000Z</time>
      </trkpt>
      <trkpt lat="42.83305247314274311065673828125" lon="-0.83561095409095287322998046875">
        <ele>1066.199951171875</ele>
        <time>2020-08-20T11:46:18.000Z</time>
      </trkpt>
      <trkpt lat="42.83303805626928806304931640625" lon="-0.83561263047158718109130859375">
        <ele>1066.199951171875</ele>
        <time>2020-08-20T11:47:31.000Z</time>
      </trkpt>
      <trkpt lat="42.83309102989733219146728515625" lon="-0.83557742647826671600341796875">
        <ele>1066.5999755859375</ele>
        <time>2020-08-20T11:47:37.000Z</time>
      </trkpt>
      <trkpt lat="42.83314232714474201202392578125" lon="-0.8355133049190044403076171875">
        <ele>1066.800048828125</ele>
        <time>2020-08-20T11:47:40.000Z</time>
      </trkpt>
      <trkpt lat="42.8332087956368923187255859375" lon="-0.83545790053904056549072265625">
        <ele>1067</ele>
        <time>2020-08-20T11:47:43.000Z</time>
      </trkpt>
      <trkpt lat="42.83337634988129138946533203125" lon="-0.83539989776909351348876953125">
        <ele>1067.4000244140625</ele>
        <time>2020-08-20T11:47:49.000Z</time>
      </trkpt>
      <trkpt lat="42.833516411483287811279296875" lon="-0.83545035682618618011474609375">
        <ele>1067.199951171875</ele>
        <time>2020-08-20T11:47:53.000Z</time>
      </trkpt>
      <trkpt lat="42.8335548005998134613037109375" lon="-0.83547315560281276702880859375">
        <ele>1067</ele>
        <time>2020-08-20T11:47:54.000Z</time>
      </trkpt>
      <trkpt lat="42.83372906036674976348876953125" lon="-0.835577510297298431396484375">
        <ele>1066.5999755859375</ele>
        <time>2020-08-20T11:47:58.000Z</time>
      </trkpt>
      <trkpt lat="42.8337690420448780059814453125" lon="-0.8356232754886150360107421875">
        <ele>1066.4000244140625</ele>
        <time>2020-08-20T11:47:59.000Z</time>
      </trkpt>
      <trkpt lat="42.83386518247425556182861328125" lon="-0.8358214236795902252197265625">
        <ele>1065.800048828125</ele>
        <time>2020-08-20T11:48:02.000Z</time>
      </trkpt>
      <trkpt lat="42.83389753662049770355224609375" lon="-0.8358951844274997711181640625">
        <ele>1065.4000244140625</ele>
        <time>2020-08-20T11:48:03.000Z</time>
      </trkpt>
      <trkpt lat="42.8340639173984527587890625" lon="-0.83604480139911174774169921875">
        <ele>1064.4000244140625</ele>
        <time>2020-08-20T11:48:06.000Z</time>
      </trkpt>
      <trkpt lat="42.8342696093022823333740234375" lon="-0.83598746918141841888427734375">
        <ele>1063</ele>
        <time>2020-08-20T11:48:09.000Z</time>
      </trkpt>
      <trkpt lat="42.83438645303249359130859375" lon="-0.83586157299578189849853515625">
        <ele>1062.199951171875</ele>
        <time>2020-08-20T11:48:11.000Z</time>
      </trkpt>
      <trkpt lat="42.8344436176121234893798828125" lon="-0.835792757570743560791015625">
        <ele>1061.800048828125</ele>
        <time>2020-08-20T11:48:12.000Z</time>
      </trkpt>
      <trkpt lat="42.83455920405685901641845703125" lon="-0.83565068431198596954345703125">
        <ele>1061.4000244140625</ele>
        <time>2020-08-20T11:48:14.000Z</time>
      </trkpt>
      <trkpt lat="42.83468074165284633636474609375" lon="-0.8355148136615753173828125">
        <ele>1060.800048828125</ele>
        <time>2020-08-20T11:48:16.000Z</time>
      </trkpt>
      <trkpt lat="42.83488039858639240264892578125" lon="-0.83533309400081634521484375">
        <ele>1059.4000244140625</ele>
        <time>2020-08-20T11:48:19.000Z</time>
      </trkpt>
      <trkpt lat="42.83495097421109676361083984375" lon="-0.8352799527347087860107421875">
        <ele>1059</ele>
        <time>2020-08-20T11:48:20.000Z</time>
      </trkpt>
      <trkpt lat="42.8350236453115940093994140625" lon="-0.83522605709731578826904296875">
        <ele>1058.4000244140625</ele>
        <time>2020-08-20T11:48:21.000Z</time>
      </trkpt>
      <trkpt lat="42.83516831696033477783203125" lon="-0.8350937068462371826171875">
        <ele>1057.5999755859375</ele>
        <time>2020-08-20T11:48:23.000Z</time>
      </trkpt>
      <trkpt lat="42.83523377962410449981689453125" lon="-0.8350147493183612823486328125">
        <ele>1057.199951171875</ele>
        <time>2020-08-20T11:48:24.000Z</time>
      </trkpt>
      <trkpt lat="42.83561666496098041534423828125" lon="-0.83457645960152149200439453125">
        <ele>1056.4000244140625</ele>
        <time>2020-08-20T11:48:30.000Z</time>
      </trkpt>
      <trkpt lat="42.835687659680843353271484375" lon="-0.834523737430572509765625">
        <ele>1056.5999755859375</ele>
        <time>2020-08-20T11:48:31.000Z</time>
      </trkpt>
      <trkpt lat="42.8359758295118808746337890625" lon="-0.83442986011505126953125">
        <ele>1056.800048828125</ele>
        <time>2020-08-20T11:48:35.000Z</time>
      </trkpt>
      <trkpt lat="42.83642627298831939697265625" lon="-0.83437713794410228729248046875">
        <ele>1057</ele>
        <time>2020-08-20T11:48:42.000Z</time>
      </trkpt>
      <trkpt lat="42.83648268319666385650634765625" lon="-0.83436724729835987091064453125">
        <ele>1057</ele>
        <time>2020-08-20T11:48:43.000Z</time>
      </trkpt>
      <trkpt lat="42.8366956673562526702880859375" lon="-0.83432324230670928955078125">
        <ele>1057</ele>
        <time>2020-08-20T11:48:47.000Z</time>
      </trkpt>
      <trkpt lat="42.83686137758195400238037109375" lon="-0.8342932350933551788330078125">
        <ele>1057</ele>
        <time>2020-08-20T11:48:51.000Z</time>
      </trkpt>
      <trkpt lat="42.8369749523699283599853515625" lon="-0.83430639468133449554443359375">
        <ele>1057</ele>
        <time>2020-08-20T11:48:55.000Z</time>
      </trkpt>
      <trkpt lat="42.8371553309261798858642578125" lon="-0.834327600896358489990234375">
        <ele>1057.4000244140625</ele>
        <time>2020-08-20T11:49:01.000Z</time>
      </trkpt>
      <trkpt lat="42.83732883632183074951171875" lon="-0.83438434638082981109619140625">
        <ele>1058</ele>
        <time>2020-08-20T11:49:07.000Z</time>
      </trkpt>
      <trkpt lat="42.83747442997992038726806640625" lon="-0.83441670052707195281982421875">
        <ele>1059.199951171875</ele>
        <time>2020-08-20T11:49:12.000Z</time>
      </trkpt>
      <trkpt lat="42.8375549800693988800048828125" lon="-0.8344437740743160247802734375">
        <ele>1059.800048828125</ele>
        <time>2020-08-20T11:49:15.000Z</time>
      </trkpt>
      <trkpt lat="42.8376307524740695953369140625" lon="-0.83447420038282871246337890625">
        <ele>1060.4000244140625</ele>
        <time>2020-08-20T11:49:18.000Z</time>
      </trkpt>
      <trkpt lat="42.8378030844032764434814453125" lon="-0.83451460115611553192138671875">
        <ele>1061.199951171875</ele>
        <time>2020-08-20T11:49:25.000Z</time>
      </trkpt>
      <trkpt lat="42.83792537637054920196533203125" lon="-0.83452440798282623291015625">
        <ele>1061.4000244140625</ele>
        <time>2020-08-20T11:49:30.000Z</time>
      </trkpt>
      <trkpt lat="42.8379933536052703857421875" lon="-0.8345165289938449859619140625">
        <ele>1061.800048828125</ele>
        <time>2020-08-20T11:49:33.000Z</time>
      </trkpt>
      <trkpt lat="42.83814045600593090057373046875" lon="-0.83444754593074321746826171875">
        <ele>1062.4000244140625</ele>
        <time>2020-08-20T11:49:40.000Z</time>
      </trkpt>
      <trkpt lat="42.8382570482790470123291015625" lon="-0.83436339162290096282958984375">
        <ele>1063.5999755859375</ele>
        <time>2020-08-20T11:49:46.000Z</time>
      </trkpt>
      <trkpt lat="42.8382935933768749237060546875" lon="-0.8343284390866756439208984375">
        <ele>1064</ele>
        <time>2020-08-20T11:49:48.000Z</time>
      </trkpt>
      <trkpt lat="42.8383629955351352691650390625" lon="-0.834247805178165435791015625">
        <ele>1064.5999755859375</ele>
        <time>2020-08-20T11:49:52.000Z</time>
      </trkpt>
      <trkpt lat="42.83841722644865512847900390625" lon="-0.8341936580836772918701171875">
        <ele>1065.5999755859375</ele>
        <time>2020-08-20T11:49:55.000Z</time>
      </trkpt>
      <trkpt lat="42.8384317271411418914794921875" lon="-0.8341705240309238433837890625">
        <ele>1065.800048828125</ele>
        <time>2020-08-20T11:49:56.000Z</time>
      </trkpt>
      <trkpt lat="42.83849953673779964447021484375" lon="-0.8339981921017169952392578125">
        <ele>1066.800048828125</ele>
        <time>2020-08-20T11:50:02.000Z</time>
      </trkpt>
      <trkpt lat="42.838506996631622314453125" lon="-0.83396759815514087677001953125">
        <ele>1066.5999755859375</ele>
        <time>2020-08-20T11:50:03.000Z</time>
      </trkpt>
      <trkpt lat="42.8385551087558269500732421875" lon="-0.83366065286099910736083984375">
        <ele>1067.4000244140625</ele>
        <time>2020-08-20T11:50:12.000Z</time>
      </trkpt>
      <trkpt lat="42.83856131136417388916015625" lon="-0.8335854671895503997802734375">
        <ele>1067.5999755859375</ele>
        <time>2020-08-20T11:50:14.000Z</time>
      </trkpt>
      <trkpt lat="42.83855033107101917266845703125" lon="-0.83337063901126384735107421875">
        <ele>1067.4000244140625</ele>
        <time>2020-08-20T11:50:20.000Z</time>
      </trkpt>
      <trkpt lat="42.8384753130376338958740234375" lon="-0.83313074894249439239501953125">
        <ele>1068.5999755859375</ele>
        <time>2020-08-20T11:50:27.000Z</time>
      </trkpt>
      <trkpt lat="42.83844958059489727020263671875" lon="-0.832996554672718048095703125">
        <ele>1068.800048828125</ele>
        <time>2020-08-20T11:50:31.000Z</time>
      </trkpt>
      <trkpt lat="42.8384411148726940155029296875" lon="-0.8329613506793975830078125">
        <ele>1069</ele>
        <time>2020-08-20T11:50:32.000Z</time>
      </trkpt>
      <trkpt lat="42.83841990865767002105712890625" lon="-0.83289287053048610687255859375">
        <ele>1069.5999755859375</ele>
        <time>2020-08-20T11:50:34.000Z</time>
      </trkpt>
      <trkpt lat="42.8384085930883884429931640625" lon="-0.832812488079071044921875">
        <ele>1070.4000244140625</ele>
        <time>2020-08-20T11:50:36.000Z</time>
      </trkpt>
      <trkpt lat="42.8384116105735301971435546875" lon="-0.83269405178725719451904296875">
        <ele>1070.800048828125</ele>
        <time>2020-08-20T11:50:39.000Z</time>
      </trkpt>
      <trkpt lat="42.83842577598989009857177734375" lon="-0.83259849809110164642333984375">
        <ele>1071.4000244140625</ele>
        <time>2020-08-20T11:50:42.000Z</time>
      </trkpt>
      <trkpt lat="42.838490903377532958984375" lon="-0.83242951892316341400146484375">
        <ele>1071.4000244140625</ele>
        <time>2020-08-20T11:50:47.000Z</time>
      </trkpt>
      <trkpt lat="42.838546894490718841552734375" lon="-0.83234285004436969757080078125">
        <ele>1072</ele>
        <time>2020-08-20T11:50:50.000Z</time>
      </trkpt>
      <trkpt lat="42.83861235715448856353759765625" lon="-0.83222298882901668548583984375">
        <ele>1072.800048828125</ele>
        <time>2020-08-20T11:50:54.000Z</time>
      </trkpt>
      <trkpt lat="42.8386469744145870208740234375" lon="-0.83216448314487934112548828125">
        <ele>1073</ele>
        <time>2020-08-20T11:50:56.000Z</time>
      </trkpt>
      <trkpt lat="42.83871914260089397430419921875" lon="-0.83204604685306549072265625">
        <ele>1074</ele>
        <time>2020-08-20T11:51:00.000Z</time>
      </trkpt>
      <trkpt lat="42.83882056362926959991455078125" lon="-0.83187027834355831146240234375">
        <ele>1075</ele>
        <time>2020-08-20T11:51:06.000Z</time>
      </trkpt>
      <trkpt lat="42.8388732858002185821533203125" lon="-0.8317863754928112030029296875">
        <ele>1075.4000244140625</ele>
        <time>2020-08-20T11:51:09.000Z</time>
      </trkpt>
      <trkpt lat="42.83892164938151836395263671875" lon="-0.83169643767178058624267578125">
        <ele>1076.4000244140625</ele>
        <time>2020-08-20T11:51:12.000Z</time>
      </trkpt>
      <trkpt lat="42.8389731980860233306884765625" lon="-0.83161228336393833160400390625">
        <ele>1077.4000244140625</ele>
        <time>2020-08-20T11:51:15.000Z</time>
      </trkpt>
      <trkpt lat="42.839027009904384613037109375" lon="-0.83152309991419315338134765625">
        <ele>1078.5999755859375</ele>
        <time>2020-08-20T11:51:18.000Z</time>
      </trkpt>
      <trkpt lat="42.83915550448000431060791015625" lon="-0.8313159830868244171142578125">
        <ele>1079.800048828125</ele>
        <time>2020-08-20T11:51:25.000Z</time>
      </trkpt>
      <trkpt lat="42.83919540233910083770751953125" lon="-0.8312596566975116729736328125">
        <ele>1079.5999755859375</ele>
        <time>2020-08-20T11:51:27.000Z</time>
      </trkpt>
      <trkpt lat="42.83933152444660663604736328125" lon="-0.83105765283107757568359375">
        <ele>1080.5999755859375</ele>
        <time>2020-08-20T11:51:34.000Z</time>
      </trkpt>
      <trkpt lat="42.83935314975678920745849609375" lon="-0.83102907054126262664794921875">
        <ele>1081</ele>
        <time>2020-08-20T11:51:35.000Z</time>
      </trkpt>
      <trkpt lat="42.83939170651137828826904296875" lon="-0.83097324706614017486572265625">
        <ele>1081.800048828125</ele>
        <time>2020-08-20T11:51:37.000Z</time>
      </trkpt>
      <trkpt lat="42.8395136632025241851806640625" lon="-0.83080862648785114288330078125">
        <ele>1082.4000244140625</ele>
        <time>2020-08-20T11:51:43.000Z</time>
      </trkpt>
      <trkpt lat="42.8397051058709621429443359375" lon="-0.8305864222347736358642578125">
        <ele>1082.5999755859375</ele>
        <time>2020-08-20T11:51:52.000Z</time>
      </trkpt>
      <trkpt lat="42.83972899429500102996826171875" lon="-0.83056756295263767242431640625">
        <ele>1082.800048828125</ele>
        <time>2020-08-20T11:51:53.000Z</time>
      </trkpt>
      <trkpt lat="42.83987500704824924468994140625" lon="-0.83050486631691455841064453125">
        <ele>1083.800048828125</ele>
        <time>2020-08-20T11:51:59.000Z</time>
      </trkpt>
      <trkpt lat="42.8400558046996593475341796875" lon="-0.83046312443912029266357421875">
        <ele>1084.5999755859375</ele>
        <time>2020-08-20T11:52:06.000Z</time>
      </trkpt>
      <trkpt lat="42.84015613608062267303466796875" lon="-0.83045625127851963043212890625">
        <ele>1085.800048828125</ele>
        <time>2020-08-20T11:52:10.000Z</time>
      </trkpt>
      <trkpt lat="42.84020693041384220123291015625" lon="-0.8304422535002231597900390625">
        <ele>1087</ele>
        <time>2020-08-20T11:52:12.000Z</time>
      </trkpt>
      <trkpt lat="42.8402329981327056884765625" lon="-0.830431692302227020263671875">
        <ele>1087.199951171875</ele>
        <time>2020-08-20T11:52:13.000Z</time>
      </trkpt>
      <trkpt lat="42.840453945100307464599609375" lon="-0.8303596079349517822265625">
        <ele>1087.800048828125</ele>
        <time>2020-08-20T11:52:22.000Z</time>
      </trkpt>
      <trkpt lat="42.84053265117108821868896484375" lon="-0.83034259267151355743408203125">
        <ele>1089</ele>
        <time>2020-08-20T11:52:25.000Z</time>
      </trkpt>
      <trkpt lat="42.84063423983752727508544921875" lon="-0.83030998706817626953125">
        <ele>1090.199951171875</ele>
        <time>2020-08-20T11:52:29.000Z</time>
      </trkpt>
      <trkpt lat="42.8406814299523830413818359375" lon="-0.83028023131191730499267578125">
        <ele>1090.4000244140625</ele>
        <time>2020-08-20T11:52:31.000Z</time>
      </trkpt>
      <trkpt lat="42.840883098542690277099609375" lon="-0.83010270260274410247802734375">
        <ele>1091</ele>
        <time>2020-08-20T11:52:40.000Z</time>
      </trkpt>
      <trkpt lat="42.840905226767063140869140625" lon="-0.83007822744548320770263671875">
        <ele>1091.199951171875</ele>
        <time>2020-08-20T11:52:41.000Z</time>
      </trkpt>
      <trkpt lat="42.84105442464351654052734375" lon="-0.82988007925450801849365234375">
        <ele>1092.5999755859375</ele>
        <time>2020-08-20T11:52:48.000Z</time>
      </trkpt>
      <trkpt lat="42.84117805771529674530029296875" lon="-0.82975518889725208282470703125">
        <ele>1093.4000244140625</ele>
        <time>2020-08-20T11:52:53.000Z</time>
      </trkpt>
      <trkpt lat="42.84120253287255764007568359375" lon="-0.82973188720643520355224609375">
        <ele>1093.4000244140625</ele>
        <time>2020-08-20T11:52:54.000Z</time>
      </trkpt>
      <trkpt lat="42.84139866940677165985107421875" lon="-0.82954094745218753814697265625">
        <ele>1094.4000244140625</ele>
        <time>2020-08-20T11:53:02.000Z</time>
      </trkpt>
      <trkpt lat="42.84144929610192775726318359375" lon="-0.82949752919375896453857421875">
        <ele>1094.800048828125</ele>
        <time>2020-08-20T11:53:04.000Z</time>
      </trkpt>
      <trkpt lat="42.8415216319262981414794921875" lon="-0.82943516783416271209716796875">
        <ele>1095.5999755859375</ele>
        <time>2020-08-20T11:53:07.000Z</time>
      </trkpt>
      <trkpt lat="42.8416440077126026153564453125" lon="-0.82933089695870876312255859375">
        <ele>1096.5999755859375</ele>
        <time>2020-08-20T11:53:12.000Z</time>
      </trkpt>
      <trkpt lat="42.8418683074414730072021484375" lon="-0.82914465107023715972900390625">
        <ele>1097.199951171875</ele>
        <time>2020-08-20T11:53:21.000Z</time>
      </trkpt>
      <trkpt lat="42.8418951295316219329833984375" lon="-0.82912780344486236572265625">
        <ele>1097.5999755859375</ele>
        <time>2020-08-20T11:53:22.000Z</time>
      </trkpt>
      <trkpt lat="42.8419759310781955718994140625" lon="-0.82907625474035739898681640625">
        <ele>1098.5999755859375</ele>
        <time>2020-08-20T11:53:25.000Z</time>
      </trkpt>
      <trkpt lat="42.8420812077820301055908203125" lon="-0.82900081761181354522705078125">
        <ele>1099.800048828125</ele>
        <time>2020-08-20T11:53:29.000Z</time>
      </trkpt>
      <trkpt lat="42.8421100415289402008056640625" lon="-0.82898790948092937469482421875">
        <ele>1099.800048828125</ele>
        <time>2020-08-20T11:53:30.000Z</time>
      </trkpt>
      <trkpt lat="42.84229092299938201904296875" lon="-0.8289264701306819915771484375">
        <ele>1101</ele>
        <time>2020-08-20T11:53:36.000Z</time>
      </trkpt>
      <trkpt lat="42.84236895851790904998779296875" lon="-0.828881375491619110107421875">
        <ele>1101.4000244140625</ele>
        <time>2020-08-20T11:53:39.000Z</time>
      </trkpt>
      <trkpt lat="42.842433750629425048828125" lon="-0.8288066089153289794921875">
        <ele>1102</ele>
        <time>2020-08-20T11:53:42.000Z</time>
      </trkpt>
      <trkpt lat="42.8424711339175701141357421875" lon="-0.82874835468828678131103515625">
        <ele>1101.800048828125</ele>
        <time>2020-08-20T11:53:44.000Z</time>
      </trkpt>
      <trkpt lat="42.84254028461873531341552734375" lon="-0.82863427698612213134765625">
        <ele>1101.5999755859375</ele>
        <time>2020-08-20T11:53:48.000Z</time>
      </trkpt>
      <trkpt lat="42.84260935150086879730224609375" lon="-0.82854249514639377593994140625">
        <ele>1102.800048828125</ele>
        <time>2020-08-20T11:53:52.000Z</time>
      </trkpt>
      <trkpt lat="42.8426679410040378570556640625" lon="-0.82848968915641307830810546875">
        <ele>1103.5999755859375</ele>
        <time>2020-08-20T11:53:55.000Z</time>
      </trkpt>
      <trkpt lat="42.842688225209712982177734375" lon="-0.82847527228295803070068359375">
        <ele>1103.800048828125</ele>
        <time>2020-08-20T11:53:56.000Z</time>
      </trkpt>
      <trkpt lat="42.84278235398232936859130859375" lon="-0.82844384014606475830078125">
        <ele>1105</ele>
        <time>2020-08-20T11:54:00.000Z</time>
      </trkpt>
      <trkpt lat="42.842837758362293243408203125" lon="-0.8284430019557476043701171875">
        <ele>1105.199951171875</ele>
        <time>2020-08-20T11:54:02.000Z</time>
      </trkpt>
      <trkpt lat="42.8429358266294002532958984375" lon="-0.82844090647995471954345703125">
        <ele>1106</ele>
        <time>2020-08-20T11:54:06.000Z</time>
      </trkpt>
      <trkpt lat="42.84300430677831172943115234375" lon="-0.82843889482319355010986328125">
        <ele>1106.5999755859375</ele>
        <time>2020-08-20T11:54:09.000Z</time>
      </trkpt>
      <trkpt lat="42.8430488146841526031494140625" lon="-0.82843269221484661102294921875">
        <ele>1107</ele>
        <time>2020-08-20T11:54:11.000Z</time>
      </trkpt>
      <trkpt lat="42.84316021017730236053466796875" lon="-0.8284168504178524017333984375">
        <ele>1107.199951171875</ele>
        <time>2020-08-20T11:54:16.000Z</time>
      </trkpt>
      <trkpt lat="42.84322433173656463623046875" lon="-0.82839690148830413818359375">
        <ele>1108</ele>
        <time>2020-08-20T11:54:19.000Z</time>
      </trkpt>
      <trkpt lat="42.84326313994824886322021484375" lon="-0.82838474772870540618896484375">
        <ele>1108.199951171875</ele>
        <time>2020-08-20T11:54:21.000Z</time>
      </trkpt>
      <trkpt lat="42.84339289180934429168701171875" lon="-0.8283399045467376708984375">
        <ele>1109.199951171875</ele>
        <time>2020-08-20T11:54:27.000Z</time>
      </trkpt>
      <trkpt lat="42.843460701406002044677734375" lon="-0.8283197879791259765625">
        <ele>1110.5999755859375</ele>
        <time>2020-08-20T11:54:30.000Z</time>
      </trkpt>
      <trkpt lat="42.84352549351751804351806640625" lon="-0.82829120568931102752685546875">
        <ele>1111.800048828125</ele>
        <time>2020-08-20T11:54:33.000Z</time>
      </trkpt>
      <trkpt lat="42.8436248190701007843017578125" lon="-0.828227587044239044189453125">
        <ele>1112.800048828125</ele>
        <time>2020-08-20T11:54:38.000Z</time>
      </trkpt>
      <trkpt lat="42.8437160141766071319580078125" lon="-0.8281114138662815093994140625">
        <ele>1113.199951171875</ele>
        <time>2020-08-20T11:54:44.000Z</time>
      </trkpt>
      <trkpt lat="42.84386596642434597015380859375" lon="-0.8278730325400829315185546875">
        <ele>1113.4000244140625</ele>
        <time>2020-08-20T11:54:53.000Z</time>
      </trkpt>
      <trkpt lat="42.84399873577058315277099609375" lon="-0.82778795622289180755615234375">
        <ele>1113.199951171875</ele>
        <time>2020-08-20T11:54:59.000Z</time>
      </trkpt>
      <trkpt lat="42.8440938703715801239013671875" lon="-0.827710926532745361328125">
        <ele>1114</ele>
        <time>2020-08-20T11:55:04.000Z</time>
      </trkpt>
      <trkpt lat="42.8441116400063037872314453125" lon="-0.82769206725060939788818359375">
        <ele>1114.199951171875</ele>
        <time>2020-08-20T11:55:05.000Z</time>
      </trkpt>
      <trkpt lat="42.844209037721157073974609375" lon="-0.8276333101093769073486328125">
        <ele>1115.199951171875</ele>
        <time>2020-08-20T11:55:09.000Z</time>
      </trkpt>
      <trkpt lat="42.84431976266205310821533203125" lon="-0.827560722827911376953125">
        <ele>1115.800048828125</ele>
        <time>2020-08-20T11:55:14.000Z</time>
      </trkpt>
      <trkpt lat="42.84438530914485454559326171875" lon="-0.82752048969268798828125">
        <ele>1116.199951171875</ele>
        <time>2020-08-20T11:55:17.000Z</time>
      </trkpt>
      <trkpt lat="42.844403497874736785888671875" lon="-0.82750783301889896392822265625">
        <ele>1116.4000244140625</ele>
        <time>2020-08-20T11:55:18.000Z</time>
      </trkpt>
      <trkpt lat="42.84442353062331676483154296875" lon="-0.82749760709702968597412109375">
        <ele>1116.4000244140625</ele>
        <time>2020-08-20T11:55:19.000Z</time>
      </trkpt>
      <trkpt lat="42.84449041821062564849853515625" lon="-0.82749660126864910125732421875">
        <ele>1117</ele>
        <time>2020-08-20T11:55:22.000Z</time>
      </trkpt>
      <trkpt lat="42.84451606683433055877685546875" lon="-0.8275008760392665863037109375">
        <ele>1117.199951171875</ele>
        <time>2020-08-20T11:55:23.000Z</time>
      </trkpt>
      <trkpt lat="42.84460608847439289093017578125" lon="-0.82750330679118633270263671875">
        <ele>1118.199951171875</ele>
        <time>2020-08-20T11:55:27.000Z</time>
      </trkpt>
      <trkpt lat="42.8446279652416706085205078125" lon="-0.82750230096280574798583984375">
        <ele>1118.4000244140625</ele>
        <time>2020-08-20T11:55:28.000Z</time>
      </trkpt>
      <trkpt lat="42.8446484170854091644287109375" lon="-0.827501378953456878662109375">
        <ele>1118.4000244140625</ele>
        <time>2020-08-20T11:55:29.000Z</time>
      </trkpt>
      <trkpt lat="42.84469795413315296173095703125" lon="-0.82748872227966785430908203125">
        <ele>1118.800048828125</ele>
        <time>2020-08-20T11:55:31.000Z</time>
      </trkpt>
      <trkpt lat="42.844746820628643035888671875" lon="-0.82748536951839923858642578125">
        <ele>1119.4000244140625</ele>
        <time>2020-08-20T11:55:33.000Z</time>
      </trkpt>
      <trkpt lat="42.84477188251912593841552734375" lon="-0.8274824358522891998291015625">
        <ele>1119.5999755859375</ele>
        <time>2020-08-20T11:55:34.000Z</time>
      </trkpt>
      <trkpt lat="42.84483499825000762939453125" lon="-0.82746885716915130615234375">
        <ele>1120.199951171875</ele>
        <time>2020-08-20T11:55:37.000Z</time>
      </trkpt>
      <trkpt lat="42.8448437154293060302734375" lon="-0.82745988853275775909423828125">
        <ele>1120.4000244140625</ele>
        <time>2020-08-20T11:55:38.000Z</time>
      </trkpt>
      <trkpt lat="42.84512199461460113525390625" lon="-0.827420912683010101318359375">
        <ele>1125.800048828125</ele>
        <time>2020-08-20T12:13:04.000Z</time>
      </trkpt>
      <trkpt lat="42.84512861631810665130615234375" lon="-0.82742451690137386322021484375">
        <ele>1125.5999755859375</ele>
        <time>2020-08-20T12:13:06.000Z</time>
      </trkpt>
      <trkpt lat="42.84513942897319793701171875" lon="-0.82742401398718357086181640625">
        <ele>1125.5999755859375</ele>
        <time>2020-08-20T12:13:07.000Z</time>
      </trkpt>
      <trkpt lat="42.8452100045979022979736328125" lon="-0.82739585079252719879150390625">
        <ele>1125.800048828125</ele>
        <time>2020-08-20T12:13:12.000Z</time>
      </trkpt>
      <trkpt lat="42.84522584639489650726318359375" lon="-0.8273862116038799285888671875">
        <ele>1125.800048828125</ele>
        <time>2020-08-20T12:13:13.000Z</time>
      </trkpt>
      <trkpt lat="42.84529172815382480621337890625" lon="-0.82734572701156139373779296875">
        <ele>1126.800048828125</ele>
        <time>2020-08-20T12:13:17.000Z</time>
      </trkpt>
      <trkpt lat="42.8453399240970611572265625" lon="-0.82730591297149658203125">
        <ele>1127.5999755859375</ele>
        <time>2020-08-20T12:13:20.000Z</time>
      </trkpt>
      <trkpt lat="42.84535358659923076629638671875" lon="-0.8272903226315975189208984375">
        <ele>1127.800048828125</ele>
        <time>2020-08-20T12:13:21.000Z</time>
      </trkpt>
      <trkpt lat="42.84543505869805812835693359375" lon="-0.82719753496348857879638671875">
        <ele>1128.800048828125</ele>
        <time>2020-08-20T12:13:27.000Z</time>
      </trkpt>
      <trkpt lat="42.84544914029538631439208984375" lon="-0.8271820284426212310791015625">
        <ele>1129</ele>
        <time>2020-08-20T12:13:28.000Z</time>
      </trkpt>
      <trkpt lat="42.84550580196082592010498046875" lon="-0.82708555273711681365966796875">
        <ele>1130</ele>
        <time>2020-08-20T12:13:33.000Z</time>
      </trkpt>
      <trkpt lat="42.84552793018519878387451171875" lon="-0.827044062316417694091796875">
        <ele>1130.5999755859375</ele>
        <time>2020-08-20T12:13:35.000Z</time>
      </trkpt>
      <trkpt lat="42.8456093184649944305419921875" lon="-0.8268869854509830474853515625">
        <ele>1130.5999755859375</ele>
        <time>2020-08-20T12:13:42.000Z</time>
      </trkpt>
      <trkpt lat="42.84564326517283916473388671875" lon="-0.826813392341136932373046875">
        <ele>1131</ele>
        <time>2020-08-20T12:13:45.000Z</time>
      </trkpt>
      <trkpt lat="42.84568115137517452239990234375" lon="-0.82674600183963775634765625">
        <ele>1131.5999755859375</ele>
        <time>2020-08-20T12:13:48.000Z</time>
      </trkpt>
      <trkpt lat="42.8457082249224185943603515625" lon="-0.8267032541334629058837890625">
        <ele>1132</ele>
        <time>2020-08-20T12:13:50.000Z</time>
      </trkpt>
      <trkpt lat="42.84579933620989322662353515625" lon="-0.826605856418609619140625">
        <ele>1133.199951171875</ele>
        <time>2020-08-20T12:13:56.000Z</time>
      </trkpt>
      <trkpt lat="42.84586186520755290985107421875" lon="-0.82654357887804508209228515625">
        <ele>1134.199951171875</ele>
        <time>2020-08-20T12:14:00.000Z</time>
      </trkpt>
      <trkpt lat="42.845935039222240447998046875" lon="-0.826526395976543426513671875">
        <ele>1135.4000244140625</ele>
        <time>2020-08-20T12:14:04.000Z</time>
      </trkpt>
      <trkpt lat="42.84595473669469356536865234375" lon="-0.826520361006259918212890625">
        <ele>1135.5999755859375</ele>
        <time>2020-08-20T12:14:05.000Z</time>
      </trkpt>
      <trkpt lat="42.846014164388179779052734375" lon="-0.8264960534870624542236328125">
        <ele>1136</ele>
        <time>2020-08-20T12:14:08.000Z</time>
      </trkpt>
      <trkpt lat="42.8460963070392608642578125" lon="-0.82646613009274005889892578125">
        <ele>1136.4000244140625</ele>
        <time>2020-08-20T12:14:12.000Z</time>
      </trkpt>
      <trkpt lat="42.846178449690341949462890625" lon="-0.82644802518188953399658203125">
        <ele>1137.5999755859375</ele>
        <time>2020-08-20T12:14:16.000Z</time>
      </trkpt>
      <trkpt lat="42.846238799393177032470703125" lon="-0.82643226720392704010009765625">
        <ele>1138.800048828125</ele>
        <time>2020-08-20T12:14:19.000Z</time>
      </trkpt>
      <trkpt lat="42.846340723335742950439453125" lon="-0.82642388530075550079345703125">
        <ele>1140</ele>
        <time>2020-08-20T12:14:24.000Z</time>
      </trkpt>
      <trkpt lat="42.84640216268599033355712890625" lon="-0.82641818560659885406494140625">
        <ele>1141.199951171875</ele>
        <time>2020-08-20T12:14:27.000Z</time>
      </trkpt>
      <trkpt lat="42.84648195840418338775634765625" lon="-0.8264256455004215240478515625">
        <ele>1142.5999755859375</ele>
        <time>2020-08-20T12:14:31.000Z</time>
      </trkpt>
      <trkpt lat="42.8465018235146999359130859375" lon="-0.82642606459558010101318359375">
        <ele>1143</ele>
        <time>2020-08-20T12:14:32.000Z</time>
      </trkpt>
      <trkpt lat="42.846562676131725311279296875" lon="-0.826428495347499847412109375">
        <ele>1143.800048828125</ele>
        <time>2020-08-20T12:14:35.000Z</time>
      </trkpt>
      <trkpt lat="42.846684046089649200439453125" lon="-0.826428495347499847412109375">
        <ele>1144.4000244140625</ele>
        <time>2020-08-20T12:14:41.000Z</time>
      </trkpt>
      <trkpt lat="42.84676593728363513946533203125" lon="-0.8264296688139438629150390625">
        <ele>1144.800048828125</ele>
        <time>2020-08-20T12:14:45.000Z</time>
      </trkpt>
      <trkpt lat="42.84682787954807281494140625" lon="-0.826436541974544525146484375">
        <ele>1144.800048828125</ele>
        <time>2020-08-20T12:14:48.000Z</time>
      </trkpt>
      <trkpt lat="42.84698001109063625335693359375" lon="-0.82642254419624805450439453125">
        <ele>1145.4000244140625</ele>
        <time>2020-08-20T12:14:55.000Z</time>
      </trkpt>
      <trkpt lat="42.84705176018178462982177734375" lon="-0.8264226280152797698974609375">
        <ele>1146</ele>
        <time>2020-08-20T12:14:58.000Z</time>
      </trkpt>
      <trkpt lat="42.84714966081082820892333984375" lon="-0.8264152519404888153076171875">
        <ele>1146.5999755859375</ele>
        <time>2020-08-20T12:15:02.000Z</time>
      </trkpt>
      <trkpt lat="42.84735686145722866058349609375" lon="-0.826409719884395599365234375">
        <ele>1146.5999755859375</ele>
        <time>2020-08-20T12:15:10.000Z</time>
      </trkpt>
      <trkpt lat="42.84747035242617130279541015625" lon="-0.82641516812145709991455078125">
        <ele>1147</ele>
        <time>2020-08-20T12:15:14.000Z</time>
      </trkpt>
      <trkpt lat="42.84752801991999149322509765625" lon="-0.826418101787567138671875">
        <ele>1147.199951171875</ele>
        <time>2020-08-20T12:15:16.000Z</time>
      </trkpt>
      <trkpt lat="42.84772566519677639007568359375" lon="-0.8264209516346454620361328125">
        <ele>1147.4000244140625</ele>
        <time>2020-08-20T12:15:23.000Z</time>
      </trkpt>
      <trkpt lat="42.8478920459747314453125" lon="-0.826442576944828033447265625">
        <ele>1148</ele>
        <time>2020-08-20T12:15:30.000Z</time>
      </trkpt>
      <trkpt lat="42.84798617474734783172607421875" lon="-0.82646009512245655059814453125">
        <ele>1148.199951171875</ele>
        <time>2020-08-20T12:15:34.000Z</time>
      </trkpt>
      <trkpt lat="42.8480538167059421539306640625" lon="-0.826482139527797698974609375">
        <ele>1149.4000244140625</ele>
        <time>2020-08-20T12:15:37.000Z</time>
      </trkpt>
      <trkpt lat="42.84810100682079792022705078125" lon="-0.8265004120767116546630859375">
        <ele>1150</ele>
        <time>2020-08-20T12:15:39.000Z</time>
      </trkpt>
      <trkpt lat="42.84826881252229213714599609375" lon="-0.82656151615083217620849609375">
        <ele>1149.800048828125</ele>
        <time>2020-08-20T12:15:47.000Z</time>
      </trkpt>
      <trkpt lat="42.8483220376074314117431640625" lon="-0.82658708095550537109375">
        <ele>1150.5999755859375</ele>
        <time>2020-08-20T12:15:50.000Z</time>
      </trkpt>
      <trkpt lat="42.84837819635868072509765625" lon="-0.826615579426288604736328125">
        <ele>1152</ele>
        <time>2020-08-20T12:15:53.000Z</time>
      </trkpt>
      <trkpt lat="42.8485335968434810638427734375" lon="-0.82669101655483245849609375">
        <ele>1153.800048828125</ele>
        <time>2020-08-20T12:16:01.000Z</time>
      </trkpt>
      <trkpt lat="42.84855413250625133514404296875" lon="-0.82669998519122600555419921875">
        <ele>1154.199951171875</ele>
        <time>2020-08-20T12:16:02.000Z</time>
      </trkpt>
      <trkpt lat="42.84859436564147472381591796875" lon="-0.82671356387436389923095703125">
        <ele>1155.199951171875</ele>
        <time>2020-08-20T12:16:04.000Z</time>
      </trkpt>
      <trkpt lat="42.84870140254497528076171875" lon="-0.82673686556518077850341796875">
        <ele>1156.199951171875</ele>
        <time>2020-08-20T12:16:09.000Z</time>
      </trkpt>
      <trkpt lat="42.84873920492827892303466796875" lon="-0.82675279118120670318603515625">
        <ele>1156.800048828125</ele>
        <time>2020-08-20T12:16:11.000Z</time>
      </trkpt>
      <trkpt lat="42.84877290017902851104736328125" lon="-0.82676921971142292022705078125">
        <ele>1157.5999755859375</ele>
        <time>2020-08-20T12:16:13.000Z</time>
      </trkpt>
      <trkpt lat="42.848805002868175506591796875" lon="-0.82678598351776599884033203125">
        <ele>1158.800048828125</ele>
        <time>2020-08-20T12:16:15.000Z</time>
      </trkpt>
      <trkpt lat="42.84887180663645267486572265625" lon="-0.82679771818220615386962890625">
        <ele>1160</ele>
        <time>2020-08-20T12:16:19.000Z</time>
      </trkpt>
      <trkpt lat="42.84898999147117137908935546875" lon="-0.82678615115582942962646484375">
        <ele>1160.199951171875</ele>
        <time>2020-08-20T12:16:26.000Z</time>
      </trkpt>
      <trkpt lat="42.84910314716398715972900390625" lon="-0.8267136476933956146240234375">
        <ele>1160.4000244140625</ele>
        <time>2020-08-20T12:16:33.000Z</time>
      </trkpt>
      <trkpt lat="42.8492427058517932891845703125" lon="-0.826555900275707244873046875">
        <ele>1159.5999755859375</ele>
        <time>2020-08-20T12:16:42.000Z</time>
      </trkpt>
      <trkpt lat="42.84926810301840305328369140625" lon="-0.82652597688138484954833984375">
        <ele>1159</ele>
        <time>2020-08-20T12:16:44.000Z</time>
      </trkpt>
      <trkpt lat="42.84935778938233852386474609375" lon="-0.82641952671110630035400390625">
        <ele>1158.5999755859375</ele>
        <time>2020-08-20T12:16:51.000Z</time>
      </trkpt>
      <trkpt lat="42.849445380270481109619140625" lon="-0.82635398022830486297607421875">
        <ele>1160.800048828125</ele>
        <time>2020-08-20T12:16:57.000Z</time>
      </trkpt>
      <trkpt lat="42.849470190703868865966796875" lon="-0.82632833160459995269775390625">
        <ele>1161.800048828125</ele>
        <time>2020-08-20T12:16:59.000Z</time>
      </trkpt>
      <trkpt lat="42.8495260141789913177490234375" lon="-0.82628256641328334808349609375">
        <ele>1163.199951171875</ele>
        <time>2020-08-20T12:17:03.000Z</time>
      </trkpt>
      <trkpt lat="42.8495860286056995391845703125" lon="-0.8262355439364910125732421875">
        <ele>1164.199951171875</ele>
        <time>2020-08-20T12:17:07.000Z</time>
      </trkpt>
      <trkpt lat="42.8497016988694667816162109375" lon="-0.82620142959058284759521484375">
        <ele>1165.199951171875</ele>
        <time>2020-08-20T12:17:14.000Z</time>
      </trkpt>
      <trkpt lat="42.84971795976161956787109375" lon="-0.82620075903832912445068359375">
        <ele>1165.4000244140625</ele>
        <time>2020-08-20T12:17:15.000Z</time>
      </trkpt>
      <trkpt lat="42.84980772994458675384521484375" lon="-0.82619740627706050872802734375">
        <ele>1164.800048828125</ele>
        <time>2020-08-20T12:17:20.000Z</time>
      </trkpt>
      <trkpt lat="42.84984360449016094207763671875" lon="-0.82619480788707733154296875">
        <ele>1164.199951171875</ele>
        <time>2020-08-20T12:17:22.000Z</time>
      </trkpt>
      <trkpt lat="42.84995323978364467620849609375" lon="-0.8261721767485141754150390625">
        <ele>1165.199951171875</ele>
        <time>2020-08-20T12:17:28.000Z</time>
      </trkpt>
      <trkpt lat="42.8499720990657806396484375" lon="-0.82616421394050121307373046875">
        <ele>1165.5999755859375</ele>
        <time>2020-08-20T12:17:29.000Z</time>
      </trkpt>
      <trkpt lat="42.85004342906177043914794921875" lon="-0.826124064624309539794921875">
        <ele>1166.800048828125</ele>
        <time>2020-08-20T12:17:33.000Z</time>
      </trkpt>
      <trkpt lat="42.85011090338230133056640625" lon="-0.82606731913983821868896484375">
        <ele>1167.4000244140625</ele>
        <time>2020-08-20T12:17:37.000Z</time>
      </trkpt>
      <trkpt lat="42.85017150454223155975341796875" lon="-0.8259669877588748931884765625">
        <ele>1167.800048828125</ele>
        <time>2020-08-20T12:17:42.000Z</time>
      </trkpt>
      <trkpt lat="42.85019866190850734710693359375" lon="-0.8259297721087932586669921875">
        <ele>1168.4000244140625</ele>
        <time>2020-08-20T12:17:44.000Z</time>
      </trkpt>
      <trkpt lat="42.85030544735491275787353515625" lon="-0.82577747292816638946533203125">
        <ele>1168.4000244140625</ele>
        <time>2020-08-20T12:17:52.000Z</time>
      </trkpt>
      <trkpt lat="42.8504025936126708984375" lon="-0.825681500136852264404296875">
        <ele>1168</ele>
        <time>2020-08-20T12:17:58.000Z</time>
      </trkpt>
      <trkpt lat="42.85052756778895854949951171875" lon="-0.825562812387943267822265625">
        <ele>1168.4000244140625</ele>
        <time>2020-08-20T12:18:05.000Z</time>
      </trkpt>
      <trkpt lat="42.85065044648945331573486328125" lon="-0.82545342855155467987060546875">
        <ele>1169</ele>
        <time>2020-08-20T12:18:11.000Z</time>
      </trkpt>
      <trkpt lat="42.8508178330957889556884765625" lon="-0.8253353275358676910400390625">
        <ele>1169.800048828125</ele>
        <time>2020-08-20T12:18:19.000Z</time>
      </trkpt>
      <trkpt lat="42.8509096987545490264892578125" lon="-0.8253336511552333831787109375">
        <ele>1170</ele>
        <time>2020-08-20T12:18:23.000Z</time>
      </trkpt>
      <trkpt lat="42.85095487721264362335205078125" lon="-0.8253309689462184906005859375">
        <ele>1170.5999755859375</ele>
        <time>2020-08-20T12:18:25.000Z</time>
      </trkpt>
      <trkpt lat="42.8510183282196521759033203125" lon="-0.8253411948680877685546875">
        <ele>1171.199951171875</ele>
        <time>2020-08-20T12:18:28.000Z</time>
      </trkpt>
      <trkpt lat="42.8511168994009494781494140625" lon="-0.8253733813762664794921875">
        <ele>1172.199951171875</ele>
        <time>2020-08-20T12:18:33.000Z</time>
      </trkpt>
      <trkpt lat="42.8511336632072925567626953125" lon="-0.82538117654621601104736328125">
        <ele>1172.4000244140625</ele>
        <time>2020-08-20T12:18:34.000Z</time>
      </trkpt>
      <trkpt lat="42.851206250488758087158203125" lon="-0.82543213851749897003173828125">
        <ele>1172.5999755859375</ele>
        <time>2020-08-20T12:18:38.000Z</time>
      </trkpt>
      <trkpt lat="42.851295433938503265380859375" lon="-0.82549919374287128448486328125">
        <ele>1173.4000244140625</ele>
        <time>2020-08-20T12:18:43.000Z</time>
      </trkpt>
      <trkpt lat="42.85135720856487751007080078125" lon="-0.825565494596958160400390625">
        <ele>1174.4000244140625</ele>
        <time>2020-08-20T12:18:47.000Z</time>
      </trkpt>
      <trkpt lat="42.8513723798096179962158203125" lon="-0.82558318041265010833740234375">
        <ele>1174.4000244140625</ele>
        <time>2020-08-20T12:18:48.000Z</time>
      </trkpt>
      <trkpt lat="42.851538844406604766845703125" lon="-0.825740508735179901123046875">
        <ele>1175.4000244140625</ele>
        <time>2020-08-20T12:18:58.000Z</time>
      </trkpt>
      <trkpt lat="42.85157748498022556304931640625" lon="-0.82577059976756572723388671875">
        <ele>1175.4000244140625</ele>
        <time>2020-08-20T12:19:00.000Z</time>
      </trkpt>
      <trkpt lat="42.85165828652679920196533203125" lon="-0.82581200636923313140869140625">
        <ele>1176</ele>
        <time>2020-08-20T12:19:04.000Z</time>
      </trkpt>
      <trkpt lat="42.85171830095350742340087890625" lon="-0.825829021632671356201171875">
        <ele>1176.5999755859375</ele>
        <time>2020-08-20T12:19:07.000Z</time>
      </trkpt>
      <trkpt lat="42.85178015939891338348388671875" lon="-0.82582893781363964080810546875">
        <ele>1177.4000244140625</ele>
        <time>2020-08-20T12:19:10.000Z</time>
      </trkpt>
      <trkpt lat="42.85183916799724102020263671875" lon="-0.82583446986973285675048828125">
        <ele>1177.5999755859375</ele>
        <time>2020-08-20T12:19:13.000Z</time>
      </trkpt>
      <trkpt lat="42.8518789820373058319091796875" lon="-0.82582407630980014801025390625">
        <ele>1177.800048828125</ele>
        <time>2020-08-20T12:19:15.000Z</time>
      </trkpt>
      <trkpt lat="42.8519426845014095306396484375" lon="-0.82580781541764736175537109375">
        <ele>1178.5999755859375</ele>
        <time>2020-08-20T12:19:18.000Z</time>
      </trkpt>
      <trkpt lat="42.85204485990107059478759765625" lon="-0.82577168941497802734375">
        <ele>1179.800048828125</ele>
        <time>2020-08-20T12:19:23.000Z</time>
      </trkpt>
      <trkpt lat="42.8520829975605010986328125" lon="-0.8257530815899372100830078125">
        <ele>1180.199951171875</ele>
        <time>2020-08-20T12:19:25.000Z</time>
      </trkpt>
      <trkpt lat="42.852121554315090179443359375" lon="-0.8257413469254970550537109375">
        <ele>1180.800048828125</ele>
        <time>2020-08-20T12:19:27.000Z</time>
      </trkpt>
      <trkpt lat="42.8521995060145854949951171875" lon="-0.82570857368409633636474609375">
        <ele>1181.800048828125</ele>
        <time>2020-08-20T12:19:31.000Z</time>
      </trkpt>
      <trkpt lat="42.85230218432843685150146484375" lon="-0.8256913907825946807861328125">
        <ele>1183</ele>
        <time>2020-08-20T12:19:36.000Z</time>
      </trkpt>
      <trkpt lat="42.85240729339420795440673828125" lon="-0.82568879239261150360107421875">
        <ele>1183.199951171875</ele>
        <time>2020-08-20T12:19:41.000Z</time>
      </trkpt>
      <trkpt lat="42.8525139950215816497802734375" lon="-0.8257081545889377593994140625">
        <ele>1184.199951171875</ele>
        <time>2020-08-20T12:19:46.000Z</time>
      </trkpt>
      <trkpt lat="42.85253603942692279815673828125" lon="-0.82571578212082386016845703125">
        <ele>1184.199951171875</ele>
        <time>2020-08-20T12:19:47.000Z</time>
      </trkpt>
      <trkpt lat="42.8527741692960262298583984375" lon="-0.82583949901163578033447265625">
        <ele>1184.800048828125</ele>
        <time>2020-08-20T12:19:58.000Z</time>
      </trkpt>
      <trkpt lat="42.85286016762256622314453125" lon="-0.82590512931346893310546875">
        <ele>1185.199951171875</ele>
        <time>2020-08-20T12:20:02.000Z</time>
      </trkpt>
      <trkpt lat="42.85299888812005519866943359375" lon="-0.8259894512593746185302734375">
        <ele>1185.5999755859375</ele>
        <time>2020-08-20T12:20:08.000Z</time>
      </trkpt>
      <trkpt lat="42.85309846512973308563232421875" lon="-0.82603127695620059967041015625">
        <ele>1186</ele>
        <time>2020-08-20T12:20:12.000Z</time>
      </trkpt>
      <trkpt lat="42.85321044735610485076904296875" lon="-0.82605491392314434051513671875">
        <ele>1187.199951171875</ele>
        <time>2020-08-20T12:20:17.000Z</time>
      </trkpt>
      <trkpt lat="42.85333517007529735565185546875" lon="-0.826094560325145721435546875">
        <ele>1188</ele>
        <time>2020-08-20T12:20:23.000Z</time>
      </trkpt>
      <trkpt lat="42.8534447215497493743896484375" lon="-0.82613219507038593292236328125">
        <ele>1188</ele>
        <time>2020-08-20T12:20:28.000Z</time>
      </trkpt>
      <trkpt lat="42.8535077534615993499755859375" lon="-0.82617360167205333709716796875">
        <ele>1188.5999755859375</ele>
        <time>2020-08-20T12:20:31.000Z</time>
      </trkpt>
      <trkpt lat="42.8535711206495761871337890625" lon="-0.8262375555932521820068359375">
        <ele>1188.800048828125</ele>
        <time>2020-08-20T12:20:36.000Z</time>
      </trkpt>
      <trkpt lat="42.85356449894607067108154296875" lon="-0.8262539841234683990478515625">
        <ele>1188.800048828125</ele>
        <time>2020-08-20T12:22:29.000Z</time>
      </trkpt>
      <trkpt lat="42.8536194004118442535400390625" lon="-0.82631953060626983642578125">
        <ele>1188.199951171875</ele>
        <time>2020-08-20T12:22:37.000Z</time>
      </trkpt>
      <trkpt lat="42.85374085418879985809326171875" lon="-0.826444588601589202880859375">
        <ele>1188.199951171875</ele>
        <time>2020-08-20T12:22:43.000Z</time>
      </trkpt>
      <trkpt lat="42.8539295308291912078857421875" lon="-0.82656419835984706878662109375">
        <ele>1188.4000244140625</ele>
        <time>2020-08-20T12:22:51.000Z</time>
      </trkpt>
      <trkpt lat="42.8541697561740875244140625" lon="-0.82657760940492153167724609375">
        <ele>1188.4000244140625</ele>
        <time>2020-08-20T12:22:59.000Z</time>
      </trkpt>
      <trkpt lat="42.85441844724118709564208984375" lon="-0.82651935517787933349609375">
        <ele>1188.5999755859375</ele>
        <time>2020-08-20T12:23:06.000Z</time>
      </trkpt>
      <trkpt lat="42.85457820631563663482666015625" lon="-0.8264588378369808197021484375">
        <ele>1188.199951171875</ele>
        <time>2020-08-20T12:23:10.000Z</time>
      </trkpt>
      <trkpt lat="42.8547035157680511474609375" lon="-0.82644668407738208770751953125">
        <ele>1188.5999755859375</ele>
        <time>2020-08-20T12:23:13.000Z</time>
      </trkpt>
      <trkpt lat="42.85490023903548717498779296875" lon="-0.8264382183551788330078125">
        <ele>1188.800048828125</ele>
        <time>2020-08-20T12:23:18.000Z</time>
      </trkpt>
      <trkpt lat="42.85509712994098663330078125" lon="-0.82644534297287464141845703125">
        <ele>1189.199951171875</ele>
        <time>2020-08-20T12:23:24.000Z</time>
      </trkpt>
      <trkpt lat="42.85512621514499187469482421875" lon="-0.82644986920058727264404296875">
        <ele>1189.4000244140625</ele>
        <time>2020-08-20T12:23:25.000Z</time>
      </trkpt>
      <trkpt lat="42.855268456041812896728515625" lon="-0.8264739252626895904541015625">
        <ele>1190</ele>
        <time>2020-08-20T12:23:30.000Z</time>
      </trkpt>
      <trkpt lat="42.8553511016070842742919921875" lon="-0.826503932476043701171875">
        <ele>1190.5999755859375</ele>
        <time>2020-08-20T12:23:33.000Z</time>
      </trkpt>
      <trkpt lat="42.85545830614864826202392578125" lon="-0.8265577442944049835205078125">
        <ele>1191.4000244140625</ele>
        <time>2020-08-20T12:23:37.000Z</time>
      </trkpt>
      <trkpt lat="42.8556250222027301788330078125" lon="-0.82661113701760768890380859375">
        <ele>1191.5999755859375</ele>
        <time>2020-08-20T12:23:43.000Z</time>
      </trkpt>
      <trkpt lat="42.8556528501212596893310546875" lon="-0.8266125619411468505859375">
        <ele>1191.800048828125</ele>
        <time>2020-08-20T12:23:44.000Z</time>
      </trkpt>
      <trkpt lat="42.8558117710053920745849609375" lon="-0.8266311697661876678466796875">
        <ele>1192.5999755859375</ele>
        <time>2020-08-20T12:23:50.000Z</time>
      </trkpt>
      <trkpt lat="42.8558915667235851287841796875" lon="-0.826653800904750823974609375">
        <ele>1193</ele>
        <time>2020-08-20T12:23:53.000Z</time>
      </trkpt>
      <trkpt lat="42.856087200343608856201171875" lon="-0.82672798074781894683837890625">
        <ele>1193.5999755859375</ele>
        <time>2020-08-20T12:24:00.000Z</time>
      </trkpt>
      <trkpt lat="42.85611511208117008209228515625" lon="-0.82673787139356136322021484375">
        <ele>1193.5999755859375</ele>
        <time>2020-08-20T12:24:01.000Z</time>
      </trkpt>
      <trkpt lat="42.856262885034084320068359375" lon="-0.82672814838588237762451171875">
        <ele>1193.5999755859375</ele>
        <time>2020-08-20T12:24:06.000Z</time>
      </trkpt>
      <trkpt lat="42.85634092055261135101318359375" lon="-0.82669914700090885162353515625">
        <ele>1193.4000244140625</ele>
        <time>2020-08-20T12:24:08.000Z</time>
      </trkpt>
      <trkpt lat="42.85646346397697925567626953125" lon="-0.826628319919109344482421875">
        <ele>1193.4000244140625</ele>
        <time>2020-08-20T12:24:11.000Z</time>
      </trkpt>
      <trkpt lat="42.85671173594892024993896484375" lon="-0.826457329094409942626953125">
        <ele>1192.5999755859375</ele>
        <time>2020-08-20T12:24:16.000Z</time>
      </trkpt>
      <trkpt lat="42.8571247123181819915771484375" lon="-0.82618114538490772247314453125">
        <ele>1191.800048828125</ele>
        <time>2020-08-20T12:24:23.000Z</time>
      </trkpt>
      <trkpt lat="42.85741983912885189056396484375" lon="-0.82600814290344715118408203125">
        <ele>1193</ele>
        <time>2020-08-20T12:24:29.000Z</time>
      </trkpt>
      <trkpt lat="42.8575012274086475372314453125" lon="-0.8259579353034496307373046875">
        <ele>1193.4000244140625</ele>
        <time>2020-08-20T12:24:31.000Z</time>
      </trkpt>
      <trkpt lat="42.8575994633138179779052734375" lon="-0.8258881978690624237060546875">
        <ele>1193.800048828125</ele>
        <time>2020-08-20T12:24:34.000Z</time>
      </trkpt>
      <trkpt lat="42.85771387629210948944091796875" lon="-0.82581150345504283905029296875">
        <ele>1194.800048828125</ele>
        <time>2020-08-20T12:24:38.000Z</time>
      </trkpt>
      <trkpt lat="42.85780507139861583709716796875" lon="-0.8257623016834259033203125">
        <ele>1195.199951171875</ele>
        <time>2020-08-20T12:24:41.000Z</time>
      </trkpt>
      <trkpt lat="42.85798628814518451690673828125" lon="-0.82567068748176097869873046875">
        <ele>1194.4000244140625</ele>
        <time>2020-08-20T12:24:47.000Z</time>
      </trkpt>
      <trkpt lat="42.8581939078867435455322265625" lon="-0.82549835555255413055419921875">
        <ele>1194</ele>
        <time>2020-08-20T12:24:55.000Z</time>
      </trkpt>
      <trkpt lat="42.85821410827338695526123046875" lon="-0.8254697732627391815185546875">
        <ele>1193.800048828125</ele>
        <time>2020-08-20T12:24:56.000Z</time>
      </trkpt>
      <trkpt lat="42.85829558037221431732177734375" lon="-0.825375057756900787353515625">
        <ele>1195.5999755859375</ele>
        <time>2020-08-20T12:25:00.000Z</time>
      </trkpt>
      <trkpt lat="42.85831418819725513458251953125" lon="-0.825349576771259307861328125">
        <ele>1196.199951171875</ele>
        <time>2020-08-20T12:25:01.000Z</time>
      </trkpt>
      <trkpt lat="42.85835257731378078460693359375" lon="-0.82530121318995952606201171875">
        <ele>1196.5999755859375</ele>
        <time>2020-08-20T12:25:03.000Z</time>
      </trkpt>
      <trkpt lat="42.85844896920025348663330078125" lon="-0.82514941692352294921875">
        <ele>1196.4000244140625</ele>
        <time>2020-08-20T12:25:09.000Z</time>
      </trkpt>
      <trkpt lat="42.85849473439157009124755859375" lon="-0.825035758316516876220703125">
        <ele>1197.800048828125</ele>
        <time>2020-08-20T12:25:13.000Z</time>
      </trkpt>
      <trkpt lat="42.85852625034749507904052734375" lon="-0.8249511010944843292236328125">
        <ele>1198.800048828125</ele>
        <time>2020-08-20T12:25:16.000Z</time>
      </trkpt>
      <trkpt lat="42.85855290479958057403564453125" lon="-0.82489904947578907012939453125">
        <ele>1199.199951171875</ele>
        <time>2020-08-20T12:25:18.000Z</time>
      </trkpt>
      <trkpt lat="42.8586907871067523956298828125" lon="-0.8246728219091892242431640625">
        <ele>1199.5999755859375</ele>
        <time>2020-08-20T12:25:27.000Z</time>
      </trkpt>
      <trkpt lat="42.85870545543730258941650390625" lon="-0.82464625127613544464111328125">
        <ele>1200.199951171875</ele>
        <time>2020-08-20T12:25:28.000Z</time>
      </trkpt>
      <trkpt lat="42.8587286733090877532958984375" lon="-0.82458816468715667724609375">
        <ele>1201.4000244140625</ele>
        <time>2020-08-20T12:25:30.000Z</time>
      </trkpt>
      <trkpt lat="42.85876831971108913421630859375" lon="-0.824482552707195281982421875">
        <ele>1202.4000244140625</ele>
        <time>2020-08-20T12:25:34.000Z</time>
      </trkpt>
      <trkpt lat="42.85878424532711505889892578125" lon="-0.82442731596529483795166015625">
        <ele>1202.5999755859375</ele>
        <time>2020-08-20T12:25:36.000Z</time>
      </trkpt>
      <trkpt lat="42.85881458781659603118896484375" lon="-0.82431114278733730316162109375">
        <ele>1204</ele>
        <time>2020-08-20T12:25:40.000Z</time>
      </trkpt>
      <trkpt lat="42.8588339500129222869873046875" lon="-0.82425598986446857452392578125">
        <ele>1204.800048828125</ele>
        <time>2020-08-20T12:25:42.000Z</time>
      </trkpt>
      <trkpt lat="42.85884241573512554168701171875" lon="-0.82422673702239990234375">
        <ele>1205.199951171875</ele>
        <time>2020-08-20T12:25:43.000Z</time>
      </trkpt>
      <trkpt lat="42.8589199483394622802734375" lon="-0.82403135485947132110595703125">
        <ele>1205.4000244140625</ele>
        <time>2020-08-20T12:25:50.000Z</time>
      </trkpt>
      <trkpt lat="42.85898960195481777191162109375" lon="-0.82383521832525730133056640625">
        <ele>1206.199951171875</ele>
        <time>2020-08-20T12:25:57.000Z</time>
      </trkpt>
      <trkpt lat="42.85904894582927227020263671875" lon="-0.8236857689917087554931640625">
        <ele>1207.4000244140625</ele>
        <time>2020-08-20T12:26:02.000Z</time>
      </trkpt>
      <trkpt lat="42.85907694138586521148681640625" lon="-0.8235928975045680999755859375">
        <ele>1207.5999755859375</ele>
        <time>2020-08-20T12:26:05.000Z</time>
      </trkpt>
      <trkpt lat="42.85912178456783294677734375" lon="-0.82341176457703113555908203125">
        <ele>1208.4000244140625</ele>
        <time>2020-08-20T12:26:11.000Z</time>
      </trkpt>
      <trkpt lat="42.859130837023258209228515625" lon="-0.82338477484881877899169921875">
        <ele>1209</ele>
        <time>2020-08-20T12:26:12.000Z</time>
      </trkpt>
      <trkpt lat="42.85914734937250614166259765625" lon="-0.8233268558979034423828125">
        <ele>1209.800048828125</ele>
        <time>2020-08-20T12:26:14.000Z</time>
      </trkpt>
      <trkpt lat="42.8591735847294330596923828125" lon="-0.8232705295085906982421875">
        <ele>1211</ele>
        <time>2020-08-20T12:26:16.000Z</time>
      </trkpt>
      <trkpt lat="42.85923284478485584259033203125" lon="-0.8232007920742034912109375">
        <ele>1212</ele>
        <time>2020-08-20T12:26:19.000Z</time>
      </trkpt>
      <trkpt lat="42.8592557273805141448974609375" lon="-0.82318134605884552001953125">
        <ele>1212</ele>
        <time>2020-08-20T12:26:20.000Z</time>
      </trkpt>
      <trkpt lat="42.859457395970821380615234375" lon="-0.82303223200142383575439453125">
        <ele>1213.199951171875</ele>
        <time>2020-08-20T12:26:29.000Z</time>
      </trkpt>
      <trkpt lat="42.85957164131104946136474609375" lon="-0.82293097861111164093017578125">
        <ele>1213.5999755859375</ele>
        <time>2020-08-20T12:26:35.000Z</time>
      </trkpt>
      <trkpt lat="42.85966183058917522430419921875" lon="-0.82283475436270236968994140625">
        <ele>1214.199951171875</ele>
        <time>2020-08-20T12:26:40.000Z</time>
      </trkpt>
      <trkpt lat="42.8597070090472698211669921875" lon="-0.8227718062698841094970703125">
        <ele>1214.800048828125</ele>
        <time>2020-08-20T12:26:43.000Z</time>
      </trkpt>
      <trkpt lat="42.85974129103124141693115234375" lon="-0.82273936830461025238037109375">
        <ele>1215.4000244140625</ele>
        <time>2020-08-20T12:26:45.000Z</time>
      </trkpt>
      <trkpt lat="42.8597730584442615509033203125" lon="-0.82270684652030467987060546875">
        <ele>1215.800048828125</ele>
        <time>2020-08-20T12:26:47.000Z</time>
      </trkpt>
      <trkpt lat="42.85978672094643115997314453125" lon="-0.8226873166859149932861328125">
        <ele>1216.199951171875</ele>
        <time>2020-08-20T12:26:48.000Z</time>
      </trkpt>
      <trkpt lat="42.8598025627434253692626953125" lon="-0.82267306745052337646484375">
        <ele>1216.4000244140625</ele>
        <time>2020-08-20T12:26:49.000Z</time>
      </trkpt>
      <trkpt lat="42.85988152027130126953125" lon="-0.82258589565753936767578125">
        <ele>1217.4000244140625</ele>
        <time>2020-08-20T12:26:54.000Z</time>
      </trkpt>
      <trkpt lat="42.85991546697914600372314453125" lon="-0.82256401889026165008544921875">
        <ele>1218.199951171875</ele>
        <time>2020-08-20T12:26:56.000Z</time>
      </trkpt>
      <trkpt lat="42.859948910772800445556640625" lon="-0.82254272885620594024658203125">
        <ele>1218.800048828125</ele>
        <time>2020-08-20T12:26:58.000Z</time>
      </trkpt>
      <trkpt lat="42.85999886691570281982421875" lon="-0.8225154876708984375">
        <ele>1220</ele>
        <time>2020-08-20T12:27:01.000Z</time>
      </trkpt>
      <trkpt lat="42.86001621745526790618896484375" lon="-0.82250366918742656707763671875">
        <ele>1220.4000244140625</ele>
        <time>2020-08-20T12:27:02.000Z</time>
      </trkpt>
      <trkpt lat="42.86013029515743255615234375" lon="-0.8224417269229888916015625">
        <ele>1220.800048828125</ele>
        <time>2020-08-20T12:27:08.000Z</time>
      </trkpt>
      <trkpt lat="42.8601495735347270965576171875" lon="-0.82243761979043483734130859375">
        <ele>1221.199951171875</ele>
        <time>2020-08-20T12:27:09.000Z</time>
      </trkpt>
      <trkpt lat="42.86020749248564243316650390625" lon="-0.8224315010011196136474609375">
        <ele>1222.4000244140625</ele>
        <time>2020-08-20T12:27:12.000Z</time>
      </trkpt>
      <trkpt lat="42.86028561182320117950439453125" lon="-0.82243569195270538330078125">
        <ele>1223.5999755859375</ele>
        <time>2020-08-20T12:27:16.000Z</time>
      </trkpt>
      <trkpt lat="42.86030522547662258148193359375" lon="-0.82243979908525943756103515625">
        <ele>1223.800048828125</ele>
        <time>2020-08-20T12:27:17.000Z</time>
      </trkpt>
      <trkpt lat="42.86047630012035369873046875" lon="-0.82249679602682590484619140625">
        <ele>1223.800048828125</ele>
        <time>2020-08-20T12:27:26.000Z</time>
      </trkpt>
      <trkpt lat="42.86054846830666065216064453125" lon="-0.82251993007957935333251953125">
        <ele>1224.5999755859375</ele>
        <time>2020-08-20T12:27:30.000Z</time>
      </trkpt>
      <trkpt lat="42.86064217798411846160888671875" lon="-0.82254725508391857147216796875">
        <ele>1225.4000244140625</ele>
        <time>2020-08-20T12:27:35.000Z</time>
      </trkpt>
      <trkpt lat="42.860700599849224090576171875" lon="-0.8225441537797451019287109375">
        <ele>1225.800048828125</ele>
        <time>2020-08-20T12:27:38.000Z</time>
      </trkpt>
      <trkpt lat="42.86075952462852001190185546875" lon="-0.82252345047891139984130859375">
        <ele>1226.199951171875</ele>
        <time>2020-08-20T12:27:41.000Z</time>
      </trkpt>
      <trkpt lat="42.86086144857108592987060546875" lon="-0.82249059341847896575927734375">
        <ele>1226.800048828125</ele>
        <time>2020-08-20T12:27:46.000Z</time>
      </trkpt>
      <trkpt lat="42.86092313937842845916748046875" lon="-0.8224781043827533721923828125">
        <ele>1227.199951171875</ele>
        <time>2020-08-20T12:27:49.000Z</time>
      </trkpt>
      <trkpt lat="42.86106982268393039703369140625" lon="-0.82246460951864719390869140625">
        <ele>1227.800048828125</ele>
        <time>2020-08-20T12:27:56.000Z</time>
      </trkpt>
      <trkpt lat="42.86109111271798610687255859375" lon="-0.822460837662220001220703125">
        <ele>1228.199951171875</ele>
        <time>2020-08-20T12:27:57.000Z</time>
      </trkpt>
      <trkpt lat="42.861133106052875518798828125" lon="-0.82245823927223682403564453125">
        <ele>1229.199951171875</ele>
        <time>2020-08-20T12:27:59.000Z</time>
      </trkpt>
      <trkpt lat="42.86124567501246929168701171875" lon="-0.822436027228832244873046875">
        <ele>1229.199951171875</ele>
        <time>2020-08-20T12:28:04.000Z</time>
      </trkpt>
      <trkpt lat="42.8614873252809047698974609375" lon="-0.822322033345699310302734375">
        <ele>1229.5999755859375</ele>
        <time>2020-08-20T12:28:14.000Z</time>
      </trkpt>
      <trkpt lat="42.86170969717204570770263671875" lon="-0.8221753500401973724365234375">
        <ele>1229</ele>
        <time>2020-08-20T12:28:23.000Z</time>
      </trkpt>
      <trkpt lat="42.8618702106177806854248046875" lon="-0.82215850241482257843017578125">
        <ele>1228.800048828125</ele>
        <time>2020-08-20T12:28:29.000Z</time>
      </trkpt>
      <trkpt lat="42.86201915703713893890380859375" lon="-0.8221847377717494964599609375">
        <ele>1227.800048828125</ele>
        <time>2020-08-20T12:28:34.000Z</time>
      </trkpt>
      <trkpt lat="42.86209476180374622344970703125" lon="-0.8221904374659061431884765625">
        <ele>1227.5999755859375</ele>
        <time>2020-08-20T12:28:36.000Z</time>
      </trkpt>
      <trkpt lat="42.86228050477802753448486328125" lon="-0.82210334949195384979248046875">
        <ele>1227</ele>
        <time>2020-08-20T12:28:40.000Z</time>
      </trkpt>
      <trkpt lat="42.862326018512248992919921875" lon="-0.8220653794705867767333984375">
        <ele>1226.5999755859375</ele>
        <time>2020-08-20T12:28:41.000Z</time>
      </trkpt>
      <trkpt lat="42.86237253807485103607177734375" lon="-0.82202925346791744232177734375">
        <ele>1226.199951171875</ele>
        <time>2020-08-20T12:28:42.000Z</time>
      </trkpt>
      <trkpt lat="42.8625394217669963836669921875" lon="-0.8219956420361995697021484375">
        <ele>1225.4000244140625</ele>
        <time>2020-08-20T12:28:45.000Z</time>
      </trkpt>
      <trkpt lat="42.86260186694562435150146484375" lon="-0.82200922071933746337890625">
        <ele>1225.199951171875</ele>
        <time>2020-08-20T12:28:46.000Z</time>
      </trkpt>
      <trkpt lat="42.86266623996198177337646484375" lon="-0.822015590965747833251953125">
        <ele>1225</ele>
        <time>2020-08-20T12:28:47.000Z</time>
      </trkpt>
      <trkpt lat="42.86273128353059291839599609375" lon="-0.82200109027326107025146484375">
        <ele>1224.4000244140625</ele>
        <time>2020-08-20T12:28:48.000Z</time>
      </trkpt>
      <trkpt lat="42.862792052328586578369140625" lon="-0.82196295261383056640625">
        <ele>1224</ele>
        <time>2020-08-20T12:28:49.000Z</time>
      </trkpt>
      <trkpt lat="42.86286883056163787841796875" lon="-0.82183177582919597625732421875">
        <ele>1223.4000244140625</ele>
        <time>2020-08-20T12:28:51.000Z</time>
      </trkpt>
      <trkpt lat="42.86287746392190456390380859375" lon="-0.82175499759614467620849609375">
        <ele>1223.199951171875</ele>
        <time>2020-08-20T12:28:52.000Z</time>
      </trkpt>
      <trkpt lat="42.86286841146647930145263671875" lon="-0.82161736674606800079345703125">
        <ele>1223</ele>
        <time>2020-08-20T12:28:54.000Z</time>
      </trkpt>
      <trkpt lat="42.86286237649619579315185546875" lon="-0.821509659290313720703125">
        <ele>1223.4000244140625</ele>
        <time>2020-08-20T12:28:56.000Z</time>
      </trkpt>
      <trkpt lat="42.8628904558718204498291015625" lon="-0.82137479446828365325927734375">
        <ele>1223.4000244140625</ele>
        <time>2020-08-20T12:29:00.000Z</time>
      </trkpt>
      <trkpt lat="42.8629249893128871917724609375" lon="-0.8212043903768062591552734375">
        <ele>1223.4000244140625</ele>
        <time>2020-08-20T12:29:06.000Z</time>
      </trkpt>
      <trkpt lat="42.86300721578299999237060546875" lon="-0.8209847845137119293212890625">
        <ele>1223.5999755859375</ele>
        <time>2020-08-20T12:29:14.000Z</time>
      </trkpt>
      <trkpt lat="42.8630852513015270233154296875" lon="-0.8207500912249088287353515625">
        <ele>1223</ele>
        <time>2020-08-20T12:29:22.000Z</time>
      </trkpt>
      <trkpt lat="42.86315792240202426910400390625" lon="-0.82049184478819370269775390625">
        <ele>1222.5999755859375</ele>
        <time>2020-08-20T12:29:30.000Z</time>
      </trkpt>
      <trkpt lat="42.8631865046918392181396484375" lon="-0.82039226777851581573486328125">
        <ele>1222</ele>
        <time>2020-08-20T12:29:33.000Z</time>
      </trkpt>
      <trkpt lat="42.86323000676929950714111328125" lon="-0.82025111652910709381103515625">
        <ele>1222</ele>
        <time>2020-08-20T12:29:37.000Z</time>
      </trkpt>
      <trkpt lat="42.863311059772968292236328125" lon="-0.819998569786548614501953125">
        <ele>1221.800048828125</ele>
        <time>2020-08-20T12:29:44.000Z</time>
      </trkpt>
      <trkpt lat="42.8634222038090229034423828125" lon="-0.81976295448839664459228515625">
        <ele>1222</ele>
        <time>2020-08-20T12:29:51.000Z</time>
      </trkpt>
      <trkpt lat="42.8635673783719539642333984375" lon="-0.8195464499294757843017578125">
        <ele>1221.800048828125</ele>
        <time>2020-08-20T12:29:58.000Z</time>
      </trkpt>
      <trkpt lat="42.86374214105308055877685546875" lon="-0.8192859403789043426513671875">
        <ele>1222.4000244140625</ele>
        <time>2020-08-20T12:30:07.000Z</time>
      </trkpt>
      <trkpt lat="42.86393760703504085540771484375" lon="-0.818977989256381988525390625">
        <ele>1222.5999755859375</ele>
        <time>2020-08-20T12:30:17.000Z</time>
      </trkpt>
      <trkpt lat="42.864036262035369873046875" lon="-0.81877489574253559112548828125">
        <ele>1223.199951171875</ele>
        <time>2020-08-20T12:30:23.000Z</time>
      </trkpt>
      <trkpt lat="42.86407926119863986968994140625" lon="-0.818666853010654449462890625">
        <ele>1223.4000244140625</ele>
        <time>2020-08-20T12:30:26.000Z</time>
      </trkpt>
      <trkpt lat="42.8641584701836109161376953125" lon="-0.818357728421688079833984375">
        <ele>1223.4000244140625</ele>
        <time>2020-08-20T12:30:34.000Z</time>
      </trkpt>
      <trkpt lat="42.86418839357793331146240234375" lon="-0.81807031296193599700927734375">
        <ele>1223.800048828125</ele>
        <time>2020-08-20T12:30:41.000Z</time>
      </trkpt>
      <trkpt lat="42.8642146289348602294921875" lon="-0.81787920556962490081787109375">
        <ele>1223.5999755859375</ele>
        <time>2020-08-20T12:30:47.000Z</time>
      </trkpt>
      <trkpt lat="42.864224351942539215087890625" lon="-0.81778147257864475250244140625">
        <ele>1223.4000244140625</ele>
        <time>2020-08-20T12:30:52.000Z</time>
      </trkpt>
      <trkpt lat="42.86422627978026866912841796875" lon="-0.81778599880635738372802734375">
        <ele>1223.800048828125</ele>
        <time>2020-08-20T12:31:05.000Z</time>
      </trkpt>
      <trkpt lat="42.86422611214220523834228515625" lon="-0.8177862502634525299072265625">
        <ele>1224.199951171875</ele>
        <time>2020-08-20T12:31:09.000Z</time>
      </trkpt>
      <trkpt lat="42.86422594450414180755615234375" lon="-0.817787759006023406982421875">
        <ele>1224.800048828125</ele>
        <time>2020-08-20T12:31:34.000Z</time>
      </trkpt>
      <trkpt lat="42.86422627978026866912841796875" lon="-0.817788429558277130126953125">
        <ele>1225.199951171875</ele>
        <time>2020-08-20T12:31:45.000Z</time>
      </trkpt>
      <trkpt lat="42.86422627978026866912841796875" lon="-0.81778851337730884552001953125">
        <ele>1226.199951171875</ele>
        <time>2020-08-20T12:31:51.000Z</time>
      </trkpt>
      <trkpt lat="42.86422745324671268463134765625" lon="-0.81776454113423824310302734375">
        <ele>1227</ele>
        <time>2020-08-20T12:31:57.000Z</time>
      </trkpt>
      <trkpt lat="42.86422695033252239227294921875" lon="-0.81775481812655925750732421875">
        <ele>1226.4000244140625</ele>
        <time>2020-08-20T12:32:05.000Z</time>
      </trkpt>
      <trkpt lat="42.8642265312373638153076171875" lon="-0.8177554048597812652587890625">
        <ele>1226.4000244140625</ele>
        <time>2020-08-20T12:32:19.000Z</time>
      </trkpt>
      <trkpt lat="42.8642261959612369537353515625" lon="-0.8177554048597812652587890625">
        <ele>1227.4000244140625</ele>
        <time>2020-08-20T12:32:24.000Z</time>
      </trkpt>
      <trkpt lat="42.86422627978026866912841796875" lon="-0.8177557401359081268310546875">
        <ele>1226.5999755859375</ele>
        <time>2020-08-20T12:32:29.000Z</time>
      </trkpt>
      <trkpt lat="42.86422602832317352294921875" lon="-0.81775632686913013458251953125">
        <ele>1226.4000244140625</ele>
        <time>2020-08-20T12:32:44.000Z</time>
      </trkpt>
      <trkpt lat="42.86422611214220523834228515625" lon="-0.81775724887847900390625">
        <ele>1225.5999755859375</ele>
        <time>2020-08-20T12:32:56.000Z</time>
      </trkpt>
      <trkpt lat="42.86422602832317352294921875" lon="-0.81775791943073272705078125">
        <ele>1226.5999755859375</ele>
        <time>2020-08-20T12:33:18.000Z</time>
      </trkpt>
      <trkpt lat="42.86422602832317352294921875" lon="-0.81775800324976444244384765625">
        <ele>1226.800048828125</ele>
        <time>2020-08-20T12:33:19.000Z</time>
      </trkpt>
      <trkpt lat="42.86422611214220523834228515625" lon="-0.8177584223449230194091796875">
        <ele>1225.5999755859375</ele>
        <time>2020-08-20T12:33:32.000Z</time>
      </trkpt>
      <trkpt lat="42.86422611214220523834228515625" lon="-0.817759595811367034912109375">
        <ele>1224.800048828125</ele>
        <time>2020-08-20T12:34:07.000Z</time>
      </trkpt>
      <trkpt lat="42.86422611214220523834228515625" lon="-0.81776001490652561187744140625">
        <ele>1224.5999755859375</ele>
        <time>2020-08-20T12:34:32.000Z</time>
      </trkpt>
      <trkpt lat="42.8642339073121547698974609375" lon="-0.81774509511888027191162109375">
        <ele>1223.800048828125</ele>
        <time>2020-08-20T12:34:41.000Z</time>
      </trkpt>
      <trkpt lat="42.86426936276257038116455078125" lon="-0.81771366298198699951171875">
        <ele>1223.800048828125</ele>
        <time>2020-08-20T12:34:44.000Z</time>
      </trkpt>
      <trkpt lat="42.864304818212985992431640625" lon="-0.81770653836429119110107421875">
        <ele>1223.800048828125</ele>
        <time>2020-08-20T12:34:46.000Z</time>
      </trkpt>
      <trkpt lat="42.86434362642467021942138671875" lon="-0.81769966520369052886962890625">
        <ele>1224</ele>
        <time>2020-08-20T12:34:48.000Z</time>
      </trkpt>
      <trkpt lat="42.86442241631448268890380859375" lon="-0.81764451228082180023193359375">
        <ele>1224.5999755859375</ele>
        <time>2020-08-20T12:34:53.000Z</time>
      </trkpt>
      <trkpt lat="42.86448645405471324920654296875" lon="-0.81752129830420017242431640625">
        <ele>1225.5999755859375</ele>
        <time>2020-08-20T12:34:59.000Z</time>
      </trkpt>
      <trkpt lat="42.86449869163334369659423828125" lon="-0.817500092089176177978515625">
        <ele>1225.800048828125</ele>
        <time>2020-08-20T12:35:00.000Z</time>
      </trkpt>
      <trkpt lat="42.86455753259360790252685546875" lon="-0.817386768758296966552734375">
        <ele>1226.800048828125</ele>
        <time>2020-08-20T12:35:05.000Z</time>
      </trkpt>
      <trkpt lat="42.86459558643400669097900390625" lon="-0.81732650287449359893798828125">
        <ele>1227.199951171875</ele>
        <time>2020-08-20T12:35:08.000Z</time>
      </trkpt>
      <trkpt lat="42.86463062278926372528076171875" lon="-0.81726380623877048492431640625">
        <ele>1228</ele>
        <time>2020-08-20T12:35:11.000Z</time>
      </trkpt>
      <trkpt lat="42.86469130776822566986083984375" lon="-0.8171512372791767120361328125">
        <ele>1228</ele>
        <time>2020-08-20T12:35:16.000Z</time>
      </trkpt>
      <trkpt lat="42.86480211652815341949462890625" lon="-0.81695250235497951507568359375">
        <ele>1228.4000244140625</ele>
        <time>2020-08-20T12:35:25.000Z</time>
      </trkpt>
      <trkpt lat="42.86494041793048381805419921875" lon="-0.816739015281200408935546875">
        <ele>1228.5999755859375</ele>
        <time>2020-08-20T12:35:35.000Z</time>
      </trkpt>
      <trkpt lat="42.8649790585041046142578125" lon="-0.81671529449522495269775390625">
        <ele>1229</ele>
        <time>2020-08-20T12:35:37.000Z</time>
      </trkpt>
      <trkpt lat="42.8650620393455028533935546875" lon="-0.8167066611349582672119140625">
        <ele>1229.800048828125</ele>
        <time>2020-08-20T12:35:41.000Z</time>
      </trkpt>
      <trkpt lat="42.865082323551177978515625" lon="-0.81671646796166896820068359375">
        <ele>1230.199951171875</ele>
        <time>2020-08-20T12:35:42.000Z</time>
      </trkpt>
      <trkpt lat="42.8651525638997554779052734375" lon="-0.81682627089321613311767578125">
        <ele>1230.5999755859375</ele>
        <time>2020-08-20T12:35:47.000Z</time>
      </trkpt>
      <trkpt lat="42.86516337655484676361083984375" lon="-0.81696926616132259368896484375">
        <ele>1231.4000244140625</ele>
        <time>2020-08-20T12:35:52.000Z</time>
      </trkpt>
      <trkpt lat="42.865159101784229278564453125" lon="-0.81699809990823268890380859375">
        <ele>1231.800048828125</ele>
        <time>2020-08-20T12:35:53.000Z</time>
      </trkpt>
      <trkpt lat="42.86515097133815288543701171875" lon="-0.81705509684979915618896484375">
        <ele>1232.5999755859375</ele>
        <time>2020-08-20T12:35:55.000Z</time>
      </trkpt>
      <trkpt lat="42.86511057056486606597900390625" lon="-0.81715702079236507415771484375">
        <ele>1233.5999755859375</ele>
        <time>2020-08-20T12:35:59.000Z</time>
      </trkpt>
      <trkpt lat="42.8651012666523456573486328125" lon="-0.81718216650187969207763671875">
        <ele>1234</ele>
        <time>2020-08-20T12:36:00.000Z</time>
      </trkpt>
      <trkpt lat="42.865071594715118408203125" lon="-0.81733320839703083038330078125">
        <ele>1234.5999755859375</ele>
        <time>2020-08-20T12:36:06.000Z</time>
      </trkpt>
      <trkpt lat="42.86506421864032745361328125" lon="-0.81735801883041858673095703125">
        <ele>1235</ele>
        <time>2020-08-20T12:36:07.000Z</time>
      </trkpt>
      <trkpt lat="42.8650231473147869110107421875" lon="-0.817561782896518707275390625">
        <ele>1235.5999755859375</ele>
        <time>2020-08-20T12:36:15.000Z</time>
      </trkpt>
      <trkpt lat="42.8649963252246379852294921875" lon="-0.81778482533991336822509765625">
        <ele>1235.5999755859375</ele>
        <time>2020-08-20T12:36:23.000Z</time>
      </trkpt>
      <trkpt lat="42.86498718895018100738525390625" lon="-0.81784165464341640472412109375">
        <ele>1235.5999755859375</ele>
        <time>2020-08-20T12:36:25.000Z</time>
      </trkpt>
      <trkpt lat="42.864976711571216583251953125" lon="-0.81798800267279148101806640625">
        <ele>1236.199951171875</ele>
        <time>2020-08-20T12:36:30.000Z</time>
      </trkpt>
      <trkpt lat="42.86496589891612529754638671875" lon="-0.8181372843682765960693359375">
        <ele>1236.800048828125</ele>
        <time>2020-08-20T12:36:35.000Z</time>
      </trkpt>
      <trkpt lat="42.8649627976119518280029296875" lon="-0.81825320608913898468017578125">
        <ele>1237.199951171875</ele>
        <time>2020-08-20T12:36:39.000Z</time>
      </trkpt>
      <trkpt lat="42.86495969630777835845947265625" lon="-0.818339623510837554931640625">
        <ele>1237.800048828125</ele>
        <time>2020-08-20T12:36:42.000Z</time>
      </trkpt>
      <trkpt lat="42.8649507276713848114013671875" lon="-0.81848270259797573089599609375">
        <ele>1239</ele>
        <time>2020-08-20T12:36:47.000Z</time>
      </trkpt>
      <trkpt lat="42.86494142375886440277099609375" lon="-0.8185946010053157806396484375">
        <ele>1239.5999755859375</ele>
        <time>2020-08-20T12:36:51.000Z</time>
      </trkpt>
      <trkpt lat="42.864937819540500640869140625" lon="-0.81865050829946994781494140625">
        <ele>1240.4000244140625</ele>
        <time>2020-08-20T12:36:53.000Z</time>
      </trkpt>
      <trkpt lat="42.86493069492280483245849609375" lon="-0.81876106560230255126953125">
        <ele>1241.5999755859375</ele>
        <time>2020-08-20T12:36:57.000Z</time>
      </trkpt>
      <trkpt lat="42.86493002437055110931396484375" lon="-0.81884329207241535186767578125">
        <ele>1242</ele>
        <time>2020-08-20T12:37:00.000Z</time>
      </trkpt>
      <trkpt lat="42.86492533050477504730224609375" lon="-0.8189003728330135345458984375">
        <ele>1242.5999755859375</ele>
        <time>2020-08-20T12:37:02.000Z</time>
      </trkpt>
      <trkpt lat="42.864916026592254638671875" lon="-0.81901512108743190765380859375">
        <ele>1243.800048828125</ele>
        <time>2020-08-20T12:37:06.000Z</time>
      </trkpt>
      <trkpt lat="42.864917702972888946533203125" lon="-0.81910044886171817779541015625">
        <ele>1244.4000244140625</ele>
        <time>2020-08-20T12:37:09.000Z</time>
      </trkpt>
      <trkpt lat="42.86491803824901580810546875" lon="-0.819157697260379791259765625">
        <ele>1244.800048828125</ele>
        <time>2020-08-20T12:37:11.000Z</time>
      </trkpt>
      <trkpt lat="42.864914350211620330810546875" lon="-0.8193625509738922119140625">
        <ele>1246</ele>
        <time>2020-08-20T12:37:18.000Z</time>
      </trkpt>
      <trkpt lat="42.86492164246737957000732421875" lon="-0.81953245215117931365966796875">
        <ele>1247.199951171875</ele>
        <time>2020-08-20T12:37:24.000Z</time>
      </trkpt>
      <trkpt lat="42.8649262525141239166259765625" lon="-0.81961811520159244537353515625">
        <ele>1248</ele>
        <time>2020-08-20T12:37:27.000Z</time>
      </trkpt>
      <trkpt lat="42.86492566578090190887451171875" lon="-0.8198498748242855072021484375">
        <ele>1248.4000244140625</ele>
        <time>2020-08-20T12:37:35.000Z</time>
      </trkpt>
      <trkpt lat="42.86493413150310516357421875" lon="-0.82004559226334095001220703125">
        <ele>1249.5999755859375</ele>
        <time>2020-08-20T12:37:42.000Z</time>
      </trkpt>
      <trkpt lat="42.864931784570217132568359375" lon="-0.82009923644363880157470703125">
        <ele>1250</ele>
        <time>2020-08-20T12:37:44.000Z</time>
      </trkpt>
      <trkpt lat="42.8649245761334896087646484375" lon="-0.82020166330039501190185546875">
        <ele>1250.5999755859375</ele>
        <time>2020-08-20T12:37:48.000Z</time>
      </trkpt>
      <trkpt lat="42.8648977540433406829833984375" lon="-0.82035027444362640380859375">
        <ele>1251.800048828125</ele>
        <time>2020-08-20T12:37:54.000Z</time>
      </trkpt>
      <trkpt lat="42.864868752658367156982421875" lon="-0.82047625444829463958740234375">
        <ele>1252.5999755859375</ele>
        <time>2020-08-20T12:37:59.000Z</time>
      </trkpt>
      <trkpt lat="42.86485827527940273284912109375" lon="-0.820525623857975006103515625">
        <ele>1253</ele>
        <time>2020-08-20T12:38:01.000Z</time>
      </trkpt>
      <trkpt lat="42.86483698524534702301025390625" lon="-0.820673145353794097900390625">
        <ele>1254</ele>
        <time>2020-08-20T12:38:07.000Z</time>
      </trkpt>
      <trkpt lat="42.8648353926837444305419921875" lon="-0.82069837488234043121337890625">
        <ele>1254.199951171875</ele>
        <time>2020-08-20T12:38:08.000Z</time>
      </trkpt>
      <trkpt lat="42.86481888033449649810791015625" lon="-0.82079526968300342559814453125">
        <ele>1255.199951171875</ele>
        <time>2020-08-20T12:38:12.000Z</time>
      </trkpt>
      <trkpt lat="42.8648119233548641204833984375" lon="-0.82086861133575439453125">
        <ele>1255.4000244140625</ele>
        <time>2020-08-20T12:38:15.000Z</time>
      </trkpt>
      <trkpt lat="42.8647995181381702423095703125" lon="-0.820994675159454345703125">
        <ele>1256</ele>
        <time>2020-08-20T12:38:20.000Z</time>
      </trkpt>
      <trkpt lat="42.86478853784501552581787109375" lon="-0.821068100631237030029296875">
        <ele>1256.800048828125</ele>
        <time>2020-08-20T12:38:23.000Z</time>
      </trkpt>
      <trkpt lat="42.86478199996054172515869140625" lon="-0.82113909535109996795654296875">
        <ele>1257.199951171875</ele>
        <time>2020-08-20T12:38:26.000Z</time>
      </trkpt>
      <trkpt lat="42.86476247012615203857421875" lon="-0.8212816715240478515625">
        <ele>1258.4000244140625</ele>
        <time>2020-08-20T12:38:32.000Z</time>
      </trkpt>
      <trkpt lat="42.8647448681294918060302734375" lon="-0.82142852246761322021484375">
        <ele>1259.5999755859375</ele>
        <time>2020-08-20T12:38:38.000Z</time>
      </trkpt>
      <trkpt lat="42.86473640240728855133056640625" lon="-0.821477808058261871337890625">
        <ele>1260</ele>
        <time>2020-08-20T12:38:40.000Z</time>
      </trkpt>
      <trkpt lat="42.86472081206738948822021484375" lon="-0.82157562486827373504638671875">
        <ele>1260.5999755859375</ele>
        <time>2020-08-20T12:38:44.000Z</time>
      </trkpt>
      <trkpt lat="42.8647224046289920806884765625" lon="-0.82165039144456386566162109375">
        <ele>1261.199951171875</ele>
        <time>2020-08-20T12:38:47.000Z</time>
      </trkpt>
      <trkpt lat="42.864727266132831573486328125" lon="-0.821701101958751678466796875">
        <ele>1261.5999755859375</ele>
        <time>2020-08-20T12:38:49.000Z</time>
      </trkpt>
      <trkpt lat="42.8647264279425144195556640625" lon="-0.8217254094779491424560546875">
        <ele>1261.5999755859375</ele>
        <time>2020-08-20T12:38:50.000Z</time>
      </trkpt>
      <trkpt lat="42.8647411800920963287353515625" lon="-0.82190184853971004486083984375">
        <ele>1262.800048828125</ele>
        <time>2020-08-20T12:38:57.000Z</time>
      </trkpt>
      <trkpt lat="42.86474511958658695220947265625" lon="-0.8219267427921295166015625">
        <ele>1263</ele>
        <time>2020-08-20T12:38:58.000Z</time>
      </trkpt>
      <trkpt lat="42.86476624198257923126220703125" lon="-0.822022967040538787841796875">
        <ele>1264</ele>
        <time>2020-08-20T12:39:02.000Z</time>
      </trkpt>
      <trkpt lat="42.86479759030044078826904296875" lon="-0.822138302028179168701171875">
        <ele>1265</ele>
        <time>2020-08-20T12:39:07.000Z</time>
      </trkpt>
      <trkpt lat="42.8648471273481845855712890625" lon="-0.8222719095647335052490234375">
        <ele>1266.199951171875</ele>
        <time>2020-08-20T12:39:13.000Z</time>
      </trkpt>
      <trkpt lat="42.864858694374561309814453125" lon="-0.82231658510863780975341796875">
        <ele>1266.5999755859375</ele>
        <time>2020-08-20T12:39:15.000Z</time>
      </trkpt>
      <trkpt lat="42.86490068770945072174072265625" lon="-0.822427980601787567138671875">
        <ele>1267.5999755859375</ele>
        <time>2020-08-20T12:39:20.000Z</time>
      </trkpt>
      <trkpt lat="42.86492952145636081695556640625" lon="-0.82249377854168415069580078125">
        <ele>1268</ele>
        <time>2020-08-20T12:39:23.000Z</time>
      </trkpt>
      <trkpt lat="42.864953912794589996337890625" lon="-0.82258949987590312957763671875">
        <ele>1268.5999755859375</ele>
        <time>2020-08-20T12:39:27.000Z</time>
      </trkpt>
      <trkpt lat="42.864985428750514984130859375" lon="-0.8226806111633777618408203125">
        <ele>1269.199951171875</ele>
        <time>2020-08-20T12:39:31.000Z</time>
      </trkpt>
      <trkpt lat="42.86502792499959468841552734375" lon="-0.8228204213082790374755859375">
        <ele>1269.800048828125</ele>
        <time>2020-08-20T12:39:37.000Z</time>
      </trkpt>
      <trkpt lat="42.86504552699625492095947265625" lon="-0.82286761142313480377197265625">
        <ele>1270</ele>
        <time>2020-08-20T12:39:39.000Z</time>
      </trkpt>
      <trkpt lat="42.86509296856820583343505859375" lon="-0.8230661787092685699462890625">
        <ele>1270.5999755859375</ele>
        <time>2020-08-20T12:39:47.000Z</time>
      </trkpt>
      <trkpt lat="42.8651153482496738433837890625" lon="-0.8231681026518344879150390625">
        <ele>1270.800048828125</ele>
        <time>2020-08-20T12:39:51.000Z</time>
      </trkpt>
      <trkpt lat="42.865135632455348968505859375" lon="-0.8232710324227809906005859375">
        <ele>1271.199951171875</ele>
        <time>2020-08-20T12:39:55.000Z</time>
      </trkpt>
      <trkpt lat="42.8651817329227924346923828125" lon="-0.8234663307666778564453125">
        <ele>1271.4000244140625</ele>
        <time>2020-08-20T12:40:03.000Z</time>
      </trkpt>
      <trkpt lat="42.8652313537895679473876953125" lon="-0.8236029557883739471435546875">
        <ele>1271.800048828125</ele>
        <time>2020-08-20T12:40:09.000Z</time>
      </trkpt>
      <trkpt lat="42.86532414145767688751220703125" lon="-0.82388408482074737548828125">
        <ele>1272.800048828125</ele>
        <time>2020-08-20T12:40:21.000Z</time>
      </trkpt>
      <trkpt lat="42.86534258164465427398681640625" lon="-0.8239281736314296722412109375">
        <ele>1272.800048828125</ele>
        <time>2020-08-20T12:40:23.000Z</time>
      </trkpt>
      <trkpt lat="42.86539488472044467926025390625" lon="-0.824062116444110870361328125">
        <ele>1273.800048828125</ele>
        <time>2020-08-20T12:40:29.000Z</time>
      </trkpt>
      <trkpt lat="42.86543495021760463714599609375" lon="-0.8241538144648075103759765625">
        <ele>1273.800048828125</ele>
        <time>2020-08-20T12:40:33.000Z</time>
      </trkpt>
      <trkpt lat="42.86547099240124225616455078125" lon="-0.8242468535900115966796875">
        <ele>1274.199951171875</ele>
        <time>2020-08-20T12:40:37.000Z</time>
      </trkpt>
      <trkpt lat="42.8655274026095867156982421875" lon="-0.82440870814025402069091796875">
        <ele>1275</ele>
        <time>2020-08-20T12:40:44.000Z</time>
      </trkpt>
      <trkpt lat="42.865550704300403594970703125" lon="-0.8245051838457584381103515625">
        <ele>1276.4000244140625</ele>
        <time>2020-08-20T12:40:48.000Z</time>
      </trkpt>
      <trkpt lat="42.86556386388838291168212890625" lon="-0.82455421797931194305419921875">
        <ele>1277.5999755859375</ele>
        <time>2020-08-20T12:40:50.000Z</time>
      </trkpt>
      <trkpt lat="42.8655786998569965362548828125" lon="-0.82460132427513599395751953125">
        <ele>1278</ele>
        <time>2020-08-20T12:40:52.000Z</time>
      </trkpt>
      <trkpt lat="42.86558867432177066802978515625" lon="-0.8246505260467529296875">
        <ele>1278.800048828125</ele>
        <time>2020-08-20T12:40:54.000Z</time>
      </trkpt>
      <trkpt lat="42.8655978105962276458740234375" lon="-0.8247271366417407989501953125">
        <ele>1280</ele>
        <time>2020-08-20T12:40:57.000Z</time>
      </trkpt>
      <trkpt lat="42.86560275591909885406494140625" lon="-0.82480550743639469146728515625">
        <ele>1281.4000244140625</ele>
        <time>2020-08-20T12:41:00.000Z</time>
      </trkpt>
      <trkpt lat="42.865607701241970062255859375" lon="-0.8249080181121826171875">
        <ele>1282.800048828125</ele>
        <time>2020-08-20T12:41:04.000Z</time>
      </trkpt>
      <trkpt lat="42.86562211811542510986328125" lon="-0.82500918768346309661865234375">
        <ele>1283.5999755859375</ele>
        <time>2020-08-20T12:41:08.000Z</time>
      </trkpt>
      <trkpt lat="42.86563326604664325714111328125" lon="-0.8251073397696018218994140625">
        <ele>1284.800048828125</ele>
        <time>2020-08-20T12:41:12.000Z</time>
      </trkpt>
      <trkpt lat="42.8656266443431377410888671875" lon="-0.82520213909447193145751953125">
        <ele>1285.800048828125</ele>
        <time>2020-08-20T12:41:16.000Z</time>
      </trkpt>
      <trkpt lat="42.86563779227435588836669921875" lon="-0.82529895007610321044921875">
        <ele>1287.4000244140625</ele>
        <time>2020-08-20T12:41:20.000Z</time>
      </trkpt>
      <trkpt lat="42.86564483307301998138427734375" lon="-0.8253706991672515869140625">
        <ele>1288.4000244140625</ele>
        <time>2020-08-20T12:41:23.000Z</time>
      </trkpt>
      <trkpt lat="42.86564894020557403564453125" lon="-0.82539425231516361236572265625">
        <ele>1288.800048828125</ele>
        <time>2020-08-20T12:41:24.000Z</time>
      </trkpt>
      <trkpt lat="42.8656655363738536834716796875" lon="-0.8254892192780971527099609375">
        <ele>1289.800048828125</ele>
        <time>2020-08-20T12:41:28.000Z</time>
      </trkpt>
      <trkpt lat="42.8656936995685100555419921875" lon="-0.825578235089778900146484375">
        <ele>1290.5999755859375</ele>
        <time>2020-08-20T12:41:32.000Z</time>
      </trkpt>
      <trkpt lat="42.86570266820490360260009765625" lon="-0.82560002803802490234375">
        <ele>1290.800048828125</ele>
        <time>2020-08-20T12:41:33.000Z</time>
      </trkpt>
      <trkpt lat="42.86573636345565319061279296875" lon="-0.8256561867892742156982421875">
        <ele>1291.4000244140625</ele>
        <time>2020-08-20T12:41:36.000Z</time>
      </trkpt>
      <trkpt lat="42.86578112281858921051025390625" lon="-0.825697593390941619873046875">
        <ele>1291.800048828125</ele>
        <time>2020-08-20T12:41:39.000Z</time>
      </trkpt>
      <trkpt lat="42.865796126425266265869140625" lon="-0.82571092061698436737060546875">
        <ele>1292</ele>
        <time>2020-08-20T12:41:40.000Z</time>
      </trkpt>
      <trkpt lat="42.8658502735197544097900390625" lon="-0.82573338411748409271240234375">
        <ele>1292.5999755859375</ele>
        <time>2020-08-20T12:41:43.000Z</time>
      </trkpt>
      <trkpt lat="42.8658695518970489501953125" lon="-0.82573656924068927764892578125">
        <ele>1293</ele>
        <time>2020-08-20T12:41:44.000Z</time>
      </trkpt>
      <trkpt lat="42.8659258782863616943359375" lon="-0.82574880681931972503662109375">
        <ele>1293.800048828125</ele>
        <time>2020-08-20T12:41:47.000Z</time>
      </trkpt>
      <trkpt lat="42.86594331264495849609375" lon="-0.82575987093150615692138671875">
        <ele>1294.199951171875</ele>
        <time>2020-08-20T12:41:48.000Z</time>
      </trkpt>
      <trkpt lat="42.8660122118890285491943359375" lon="-0.825809575617313385009765625">
        <ele>1295.4000244140625</ele>
        <time>2020-08-20T12:41:52.000Z</time>
      </trkpt>
      <trkpt lat="42.86603786051273345947265625" lon="-0.82584838382899761199951171875">
        <ele>1295.800048828125</ele>
        <time>2020-08-20T12:41:54.000Z</time>
      </trkpt>
      <trkpt lat="42.86607750691473484039306640625" lon="-0.82598618231713771820068359375">
        <ele>1296.4000244140625</ele>
        <time>2020-08-20T12:42:00.000Z</time>
      </trkpt>
      <trkpt lat="42.86607767455279827117919921875" lon="-0.8260350488126277923583984375">
        <ele>1296.4000244140625</ele>
        <time>2020-08-20T12:42:02.000Z</time>
      </trkpt>
      <trkpt lat="42.86602444946765899658203125" lon="-0.82619891501963138580322265625">
        <ele>1296.4000244140625</ele>
        <time>2020-08-20T12:42:09.000Z</time>
      </trkpt>
      <trkpt lat="42.86594934761524200439453125" lon="-0.82637376151978969573974609375">
        <ele>1297.5999755859375</ele>
        <time>2020-08-20T12:42:17.000Z</time>
      </trkpt>
      <trkpt lat="42.86589478142559528350830078125" lon="-0.826508291065692901611328125">
        <ele>1298.4000244140625</ele>
        <time>2020-08-20T12:42:23.000Z</time>
      </trkpt>
      <trkpt lat="42.86588572897017002105712890625" lon="-0.82653067074716091156005859375">
        <ele>1298.5999755859375</ele>
        <time>2020-08-20T12:42:24.000Z</time>
      </trkpt>
      <trkpt lat="42.86586485803127288818359375" lon="-0.82665237598121166229248046875">
        <ele>1299.4000244140625</ele>
        <time>2020-08-20T12:42:29.000Z</time>
      </trkpt>
      <trkpt lat="42.8658606670796871185302734375" lon="-0.826727561652660369873046875">
        <ele>1299.5999755859375</ele>
        <time>2020-08-20T12:42:32.000Z</time>
      </trkpt>
      <trkpt lat="42.86589075811207294464111328125" lon="-0.82687164656817913055419921875">
        <ele>1300.199951171875</ele>
        <time>2020-08-20T12:42:38.000Z</time>
      </trkpt>
      <trkpt lat="42.8659203462302684783935546875" lon="-0.826938115060329437255859375">
        <ele>1300.800048828125</ele>
        <time>2020-08-20T12:42:41.000Z</time>
      </trkpt>
      <trkpt lat="42.86596803925931453704833984375" lon="-0.8269798569381237030029296875">
        <ele>1301.4000244140625</ele>
        <time>2020-08-20T12:42:44.000Z</time>
      </trkpt>
      <trkpt lat="42.8661017306149005889892578125" lon="-0.827012546360492706298828125">
        <ele>1301.4000244140625</ele>
        <time>2020-08-20T12:42:51.000Z</time>
      </trkpt>
      <trkpt lat="42.86614112555980682373046875" lon="-0.8270113728940486907958984375">
        <ele>1302.199951171875</ele>
        <time>2020-08-20T12:42:53.000Z</time>
      </trkpt>
      <trkpt lat="42.86628068424761295318603515625" lon="-0.8269704692065715789794921875">
        <ele>1302.4000244140625</ele>
        <time>2020-08-20T12:43:00.000Z</time>
      </trkpt>
      <trkpt lat="42.86637707613408565521240234375" lon="-0.82694306038320064544677734375">
        <ele>1303.4000244140625</ele>
        <time>2020-08-20T12:43:05.000Z</time>
      </trkpt>
      <trkpt lat="42.86645351909101009368896484375" lon="-0.82691674120724201202392578125">
        <ele>1304.199951171875</ele>
        <time>2020-08-20T12:43:09.000Z</time>
      </trkpt>
      <trkpt lat="42.86650858819484710693359375" lon="-0.82690165378153324127197265625">
        <ele>1304.5999755859375</ele>
        <time>2020-08-20T12:43:12.000Z</time>
      </trkpt>
      <trkpt lat="42.86659852601587772369384765625" lon="-0.82686812616884708404541015625">
        <ele>1305.800048828125</ele>
        <time>2020-08-20T12:43:17.000Z</time>
      </trkpt>
      <trkpt lat="42.8666499070823192596435546875" lon="-0.82685153000056743621826171875">
        <ele>1307</ele>
        <time>2020-08-20T12:43:20.000Z</time>
      </trkpt>
      <trkpt lat="42.866710089147090911865234375" lon="-0.826841890811920166015625">
        <ele>1307</ele>
        <time>2020-08-20T12:43:24.000Z</time>
      </trkpt>
      <trkpt lat="42.86676901392638683319091796875" lon="-0.8269034139811992645263671875">
        <ele>1306.199951171875</ele>
        <time>2020-08-20T12:49:56.000Z</time>
      </trkpt>
      <trkpt lat="42.86676943302154541015625" lon="-0.8269027434289455413818359375">
        <ele>1306.199951171875</ele>
        <time>2020-08-20T12:49:57.000Z</time>
      </trkpt>
      <trkpt lat="42.86681863479316234588623046875" lon="-0.8268266357481479644775390625">
        <ele>1306.5999755859375</ele>
        <time>2020-08-20T12:50:05.000Z</time>
      </trkpt>
      <trkpt lat="42.866831459105014801025390625" lon="-0.82682001404464244842529296875">
        <ele>1306.5999755859375</ele>
        <time>2020-08-20T12:50:06.000Z</time>
      </trkpt>
      <trkpt lat="42.8669129312038421630859375" lon="-0.826796628534793853759765625">
        <ele>1306.5999755859375</ele>
        <time>2020-08-20T12:50:10.000Z</time>
      </trkpt>
      <trkpt lat="42.86706422455608844757080078125" lon="-0.82675798796117305755615234375">
        <ele>1306.4000244140625</ele>
        <time>2020-08-20T12:50:14.000Z</time>
      </trkpt>
      <trkpt lat="42.86710881628096103668212890625" lon="-0.82674197852611541748046875">
        <ele>1306.199951171875</ele>
        <time>2020-08-20T12:50:15.000Z</time>
      </trkpt>
      <trkpt lat="42.86725617013871669769287109375" lon="-0.82668967545032501220703125">
        <ele>1304.800048828125</ele>
        <time>2020-08-20T12:50:18.000Z</time>
      </trkpt>
      <trkpt lat="42.8673506341874599456787109375" lon="-0.826642401516437530517578125">
        <ele>1303.800048828125</ele>
        <time>2020-08-20T12:50:20.000Z</time>
      </trkpt>
      <trkpt lat="42.86739162169396877288818359375" lon="-0.82660920917987823486328125">
        <ele>1303.5999755859375</ele>
        <time>2020-08-20T12:50:21.000Z</time>
      </trkpt>
      <trkpt lat="42.867488600313663482666015625" lon="-0.82644249312579631805419921875">
        <ele>1302.5999755859375</ele>
        <time>2020-08-20T12:50:24.000Z</time>
      </trkpt>
      <trkpt lat="42.8675162605941295623779296875" lon="-0.82636990584433078765869140625">
        <ele>1302.4000244140625</ele>
        <time>2020-08-20T12:50:25.000Z</time>
      </trkpt>
      <trkpt lat="42.8675970621407032012939453125" lon="-0.8261128328740596771240234375">
        <ele>1301.4000244140625</ele>
        <time>2020-08-20T12:50:28.000Z</time>
      </trkpt>
      <trkpt lat="42.8676269017159938812255859375" lon="-0.82601970992982387542724609375">
        <ele>1300.800048828125</ele>
        <time>2020-08-20T12:50:29.000Z</time>
      </trkpt>
      <trkpt lat="42.8676651231944561004638671875" lon="-0.8259257487952709197998046875">
        <ele>1300.5999755859375</ele>
        <time>2020-08-20T12:50:30.000Z</time>
      </trkpt>
      <trkpt lat="42.8677130676805973052978515625" lon="-0.82584084011614322662353515625">
        <ele>1300</ele>
        <time>2020-08-20T12:50:31.000Z</time>
      </trkpt>
      <trkpt lat="42.86776863969862461090087890625" lon="-0.8257681690156459808349609375">
        <ele>1299</ele>
        <time>2020-08-20T12:50:32.000Z</time>
      </trkpt>
      <trkpt lat="42.8678310848772525787353515625" lon="-0.82570505328476428985595703125">
        <ele>1298.199951171875</ele>
        <time>2020-08-20T12:50:33.000Z</time>
      </trkpt>
      <trkpt lat="42.867966704070568084716796875" lon="-0.82560069859027862548828125">
        <ele>1297</ele>
        <time>2020-08-20T12:50:35.000Z</time>
      </trkpt>
      <trkpt lat="42.86803417839109897613525390625" lon="-0.82555518485605716705322265625">
        <ele>1296.5999755859375</ele>
        <time>2020-08-20T12:50:36.000Z</time>
      </trkpt>
      <trkpt lat="42.8681603260338306427001953125" lon="-0.82545644603669643402099609375">
        <ele>1295.800048828125</ele>
        <time>2020-08-20T12:50:38.000Z</time>
      </trkpt>
      <trkpt lat="42.8682558797299861907958984375" lon="-0.82531428895890712738037109375">
        <ele>1294.5999755859375</ele>
        <time>2020-08-20T12:50:40.000Z</time>
      </trkpt>
      <trkpt lat="42.868310026824474334716796875" lon="-0.82502427510917186737060546875">
        <ele>1293.199951171875</ele>
        <time>2020-08-20T12:50:43.000Z</time>
      </trkpt>
      <trkpt lat="42.8683202527463436126708984375" lon="-0.8249158971011638641357421875">
        <ele>1292.199951171875</ele>
        <time>2020-08-20T12:50:44.000Z</time>
      </trkpt>
      <trkpt lat="42.8683371841907501220703125" lon="-0.8248047530651092529296875">
        <ele>1291.5999755859375</ele>
        <time>2020-08-20T12:50:45.000Z</time>
      </trkpt>
      <trkpt lat="42.86840097047388553619384765625" lon="-0.82458958961069583892822265625">
        <ele>1291</ele>
        <time>2020-08-20T12:50:47.000Z</time>
      </trkpt>
      <trkpt lat="42.86852049641311168670654296875" lon="-0.82431868650019168853759765625">
        <ele>1289.800048828125</ele>
        <time>2020-08-20T12:50:50.000Z</time>
      </trkpt>
      <trkpt lat="42.86856441758573055267333984375" lon="-0.8242379687726497650146484375">
        <ele>1289.4000244140625</ele>
        <time>2020-08-20T12:50:51.000Z</time>
      </trkpt>
      <trkpt lat="42.86861035041511058807373046875" lon="-0.82416563294827938079833984375">
        <ele>1288.800048828125</ele>
        <time>2020-08-20T12:50:52.000Z</time>
      </trkpt>
      <trkpt lat="42.86871462129056453704833984375" lon="-0.82406303845345973968505859375">
        <ele>1288</ele>
        <time>2020-08-20T12:50:54.000Z</time>
      </trkpt>
      <trkpt lat="42.86882199347019195556640625" lon="-0.82402515225112438201904296875">
        <ele>1287.5999755859375</ele>
        <time>2020-08-20T12:50:56.000Z</time>
      </trkpt>
      <trkpt lat="42.86887161433696746826171875" lon="-0.8240260742604732513427734375">
        <ele>1286.5999755859375</ele>
        <time>2020-08-20T12:50:57.000Z</time>
      </trkpt>
      <trkpt lat="42.86892048083245754241943359375" lon="-0.824041329324245452880859375">
        <ele>1286</ele>
        <time>2020-08-20T12:50:58.000Z</time>
      </trkpt>
      <trkpt lat="42.86901519633829593658447265625" lon="-0.82409891299903392791748046875">
        <ele>1284.800048828125</ele>
        <time>2020-08-20T12:51:00.000Z</time>
      </trkpt>
      <trkpt lat="42.86905827932059764862060546875" lon="-0.824136547744274139404296875">
        <ele>1284.5999755859375</ele>
        <time>2020-08-20T12:51:01.000Z</time>
      </trkpt>
      <trkpt lat="42.86910337395966053009033203125" lon="-0.8241816423833370208740234375">
        <ele>1284.4000244140625</ele>
        <time>2020-08-20T12:51:02.000Z</time>
      </trkpt>
      <trkpt lat="42.86919993348419666290283203125" lon="-0.824271999299526214599609375">
        <ele>1283.4000244140625</ele>
        <time>2020-08-20T12:51:04.000Z</time>
      </trkpt>
      <trkpt lat="42.86930789239704608917236328125" lon="-0.82436562515795230865478515625">
        <ele>1282.199951171875</ele>
        <time>2020-08-20T12:51:06.000Z</time>
      </trkpt>
      <trkpt lat="42.869364805519580841064453125" lon="-0.8244160003960132598876953125">
        <ele>1281.800048828125</ele>
        <time>2020-08-20T12:51:07.000Z</time>
      </trkpt>
      <trkpt lat="42.8694736026227474212646484375" lon="-0.82452186383306980133056640625">
        <ele>1281</ele>
        <time>2020-08-20T12:51:09.000Z</time>
      </trkpt>
      <trkpt lat="42.86966881714761257171630859375" lon="-0.8247566409409046173095703125">
        <ele>1280.199951171875</ele>
        <time>2020-08-20T12:51:13.000Z</time>
      </trkpt>
      <trkpt lat="42.869722545146942138671875" lon="-0.8248236961662769317626953125">
        <ele>1279.5999755859375</ele>
        <time>2020-08-20T12:51:14.000Z</time>
      </trkpt>
      <trkpt lat="42.869835197925567626953125" lon="-0.82495504058897495269775390625">
        <ele>1278.4000244140625</ele>
        <time>2020-08-20T12:51:16.000Z</time>
      </trkpt>
      <trkpt lat="42.86999939940869808197021484375" lon="-0.825161151587963104248046875">
        <ele>1276.800048828125</ele>
        <time>2020-08-20T12:51:19.000Z</time>
      </trkpt>
      <trkpt lat="42.8700563125312328338623046875" lon="-0.82521848380565643310546875">
        <ele>1276</ele>
        <time>2020-08-20T12:51:20.000Z</time>
      </trkpt>
      <trkpt lat="42.8701176680624485015869140625" lon="-0.82526483573019504547119140625">
        <ele>1275.4000244140625</ele>
        <time>2020-08-20T12:51:21.000Z</time>
      </trkpt>
      <trkpt lat="42.87025429308414459228515625" lon="-0.82530925981700420379638671875">
        <ele>1274.199951171875</ele>
        <time>2020-08-20T12:51:23.000Z</time>
      </trkpt>
      <trkpt lat="42.870327048003673553466796875" lon="-0.82531495951116085052490234375">
        <ele>1273.4000244140625</ele>
        <time>2020-08-20T12:51:24.000Z</time>
      </trkpt>
      <trkpt lat="42.87040047347545623779296875" lon="-0.82531772553920745849609375">
        <ele>1273</ele>
        <time>2020-08-20T12:51:25.000Z</time>
      </trkpt>
      <trkpt lat="42.87054531276226043701171875" lon="-0.8253296278417110443115234375">
        <ele>1271.5999755859375</ele>
        <time>2020-08-20T12:51:27.000Z</time>
      </trkpt>
      <trkpt lat="42.8706142120063304901123046875" lon="-0.82535301335155963897705078125">
        <ele>1270.800048828125</ele>
        <time>2020-08-20T12:51:28.000Z</time>
      </trkpt>
      <trkpt lat="42.87067598663270473480224609375" lon="-0.825393162667751312255859375">
        <ele>1270</ele>
        <time>2020-08-20T12:51:29.000Z</time>
      </trkpt>
      <trkpt lat="42.8707798384130001068115234375" lon="-0.82551578991115093231201171875">
        <ele>1269</ele>
        <time>2020-08-20T12:51:31.000Z</time>
      </trkpt>
      <trkpt lat="42.87083222530782222747802734375" lon="-0.82557161338627338409423828125">
        <ele>1268.4000244140625</ele>
        <time>2020-08-20T12:51:32.000Z</time>
      </trkpt>
      <trkpt lat="42.87094898521900177001953125" lon="-0.8256052248179912567138671875">
        <ele>1267.5999755859375</ele>
        <time>2020-08-20T12:51:34.000Z</time>
      </trkpt>
      <trkpt lat="42.8710524179041385650634765625" lon="-0.8255235850811004638671875">
        <ele>1266.5999755859375</ele>
        <time>2020-08-20T12:51:36.000Z</time>
      </trkpt>
      <trkpt lat="42.871100194752216339111328125" lon="-0.825455524027347564697265625">
        <ele>1265.5999755859375</ele>
        <time>2020-08-20T12:51:37.000Z</time>
      </trkpt>
      <trkpt lat="42.8711473010480403900146484375" lon="-0.82538117654621601104736328125">
        <ele>1264.800048828125</ele>
        <time>2020-08-20T12:51:38.000Z</time>
      </trkpt>
      <trkpt lat="42.8712384961545467376708984375" lon="-0.82522309385240077972412109375">
        <ele>1263.5999755859375</ele>
        <time>2020-08-20T12:51:40.000Z</time>
      </trkpt>
      <trkpt lat="42.8712857700884342193603515625" lon="-0.825145728886127471923828125">
        <ele>1263.199951171875</ele>
        <time>2020-08-20T12:51:41.000Z</time>
      </trkpt>
      <trkpt lat="42.8713397495448589324951171875" lon="-0.82507926039397716522216796875">
        <ele>1262.800048828125</ele>
        <time>2020-08-20T12:51:42.000Z</time>
      </trkpt>
      <trkpt lat="42.8714051283895969390869140625" lon="-0.82502896897494792938232421875">
        <ele>1262.5999755859375</ele>
        <time>2020-08-20T12:51:43.000Z</time>
      </trkpt>
      <trkpt lat="42.871560864150524139404296875" lon="-0.8249752409756183624267578125">
        <ele>1261.5999755859375</ele>
        <time>2020-08-20T12:51:45.000Z</time>
      </trkpt>
      <trkpt lat="42.87164501845836639404296875" lon="-0.82497633062303066253662109375">
        <ele>1260.5999755859375</ele>
        <time>2020-08-20T12:51:46.000Z</time>
      </trkpt>
      <trkpt lat="42.87172825075685977935791015625" lon="-0.82498571835458278656005859375">
        <ele>1259.800048828125</ele>
        <time>2020-08-20T12:51:47.000Z</time>
      </trkpt>
      <trkpt lat="42.871812321245670318603515625" lon="-0.8249977044761180877685546875">
        <ele>1258.5999755859375</ele>
        <time>2020-08-20T12:51:48.000Z</time>
      </trkpt>
      <trkpt lat="42.871899493038654327392578125" lon="-0.8250084333121776580810546875">
        <ele>1258.199951171875</ele>
        <time>2020-08-20T12:51:49.000Z</time>
      </trkpt>
      <trkpt lat="42.8719844855368137359619140625" lon="-0.82500784657895565032958984375">
        <ele>1257.5999755859375</ele>
        <time>2020-08-20T12:51:50.000Z</time>
      </trkpt>
      <trkpt lat="42.8720646165311336517333984375" lon="-0.82498823292553424835205078125">
        <ele>1257.199951171875</ele>
        <time>2020-08-20T12:51:51.000Z</time>
      </trkpt>
      <trkpt lat="42.87214080803096294403076171875" lon="-0.8249514363706111907958984375">
        <ele>1256.5999755859375</ele>
        <time>2020-08-20T12:51:52.000Z</time>
      </trkpt>
      <trkpt lat="42.8722164966166019439697265625" lon="-0.82490659318864345550537109375">
        <ele>1255.800048828125</ele>
        <time>2020-08-20T12:51:53.000Z</time>
      </trkpt>
      <trkpt lat="42.87229587323963642120361328125" lon="-0.82487071864306926727294921875">
        <ele>1255</ele>
        <time>2020-08-20T12:51:54.000Z</time>
      </trkpt>
      <trkpt lat="42.87237726151943206787109375" lon="-0.824849344789981842041015625">
        <ele>1254.4000244140625</ele>
        <time>2020-08-20T12:51:55.000Z</time>
      </trkpt>
      <trkpt lat="42.87246217019855976104736328125" lon="-0.8248458243906497955322265625">
        <ele>1253</ele>
        <time>2020-08-20T12:51:56.000Z</time>
      </trkpt>
      <trkpt lat="42.8726379387080669403076171875" lon="-0.82486082799732685089111328125">
        <ele>1251.800048828125</ele>
        <time>2020-08-20T12:51:58.000Z</time>
      </trkpt>
      <trkpt lat="42.87281446158885955810546875" lon="-0.82488312385976314544677734375">
        <ele>1250.800048828125</ele>
        <time>2020-08-20T12:52:00.000Z</time>
      </trkpt>
      <trkpt lat="42.872901298105716705322265625" lon="-0.82489402033388614654541015625">
        <ele>1250.5999755859375</ele>
        <time>2020-08-20T12:52:01.000Z</time>
      </trkpt>
      <trkpt lat="42.87306617014110088348388671875" lon="-0.8248884044587612152099609375">
        <ele>1250.199951171875</ele>
        <time>2020-08-20T12:52:03.000Z</time>
      </trkpt>
      <trkpt lat="42.8731437027454376220703125" lon="-0.82485646940767765045166015625">
        <ele>1249.5999755859375</ele>
        <time>2020-08-20T12:52:04.000Z</time>
      </trkpt>
      <trkpt lat="42.8733068145811557769775390625" lon="-0.824776589870452880859375">
        <ele>1248.4000244140625</ele>
        <time>2020-08-20T12:52:06.000Z</time>
      </trkpt>
      <trkpt lat="42.8735696710646152496337890625" lon="-0.82468631677329540252685546875">
        <ele>1246.5999755859375</ele>
        <time>2020-08-20T12:52:09.000Z</time>
      </trkpt>
      <trkpt lat="42.8737527318298816680908203125" lon="-0.8246661163866519927978515625">
        <ele>1245</ele>
        <time>2020-08-20T12:52:11.000Z</time>
      </trkpt>
      <trkpt lat="42.874021120369434356689453125" lon="-0.82465463317930698394775390625">
        <ele>1243.5999755859375</ele>
        <time>2020-08-20T12:52:14.000Z</time>
      </trkpt>
      <trkpt lat="42.874196805059909820556640625" lon="-0.8246302418410778045654296875">
        <ele>1242.4000244140625</ele>
        <time>2020-08-20T12:52:16.000Z</time>
      </trkpt>
      <trkpt lat="42.87436938844621181488037109375" lon="-0.824594534933567047119140625">
        <ele>1241</ele>
        <time>2020-08-20T12:52:18.000Z</time>
      </trkpt>
      <trkpt lat="42.874449603259563446044921875" lon="-0.824563689529895782470703125">
        <ele>1240.199951171875</ele>
        <time>2020-08-20T12:52:19.000Z</time>
      </trkpt>
      <trkpt lat="42.87452076561748981475830078125" lon="-0.8245175890624523162841796875">
        <ele>1239.199951171875</ele>
        <time>2020-08-20T12:52:20.000Z</time>
      </trkpt>
      <trkpt lat="42.87465789355337619781494140625" lon="-0.8244082890450954437255859375">
        <ele>1238.199951171875</ele>
        <time>2020-08-20T12:52:22.000Z</time>
      </trkpt>
      <trkpt lat="42.8747307322919368743896484375" lon="-0.82435556687414646148681640625">
        <ele>1237.199951171875</ele>
        <time>2020-08-20T12:52:23.000Z</time>
      </trkpt>
      <trkpt lat="42.8748068399727344512939453125" lon="-0.82430946640670299530029296875">
        <ele>1236.199951171875</ele>
        <time>2020-08-20T12:52:24.000Z</time>
      </trkpt>
      <trkpt lat="42.874967269599437713623046875" lon="-0.82423411309719085693359375">
        <ele>1235.199951171875</ele>
        <time>2020-08-20T12:52:26.000Z</time>
      </trkpt>
      <trkpt lat="42.87504999898374080657958984375" lon="-0.82419899292290210723876953125">
        <ele>1234.800048828125</ele>
        <time>2020-08-20T12:52:27.000Z</time>
      </trkpt>
      <trkpt lat="42.875210009515285491943359375" lon="-0.82413017749786376953125">
        <ele>1234</ele>
        <time>2020-08-20T12:52:29.000Z</time>
      </trkpt>
      <trkpt lat="42.8752802498638629913330078125" lon="-0.82408935762941837310791015625">
        <ele>1233.4000244140625</ele>
        <time>2020-08-20T12:52:30.000Z</time>
      </trkpt>
      <trkpt lat="42.87534244358539581298828125" lon="-0.82403571344912052154541015625">
        <ele>1232.800048828125</ele>
        <time>2020-08-20T12:52:31.000Z</time>
      </trkpt>
      <trkpt lat="42.87549491040408611297607421875" lon="-0.8238322846591472625732421875">
        <ele>1231.5999755859375</ele>
        <time>2020-08-20T12:52:34.000Z</time>
      </trkpt>
      <trkpt lat="42.87554553709924221038818359375" lon="-0.8237726055085659027099609375">
        <ele>1231.199951171875</ele>
        <time>2020-08-20T12:52:35.000Z</time>
      </trkpt>
      <trkpt lat="42.8755990974605083465576171875" lon="-0.8237233199179172515869140625">
        <ele>1230.4000244140625</ele>
        <time>2020-08-20T12:52:36.000Z</time>
      </trkpt>
      <trkpt lat="42.87571652792394161224365234375" lon="-0.82366674207150936126708984375">
        <ele>1229</ele>
        <time>2020-08-20T12:52:38.000Z</time>
      </trkpt>
      <trkpt lat="42.87577687762677669525146484375" lon="-0.82366422750055789947509765625">
        <ele>1228.5999755859375</ele>
        <time>2020-08-20T12:52:39.000Z</time>
      </trkpt>
      <trkpt lat="42.87588559091091156005859375" lon="-0.8237045444548130035400390625">
        <ele>1227.800048828125</ele>
        <time>2020-08-20T12:52:41.000Z</time>
      </trkpt>
      <trkpt lat="42.87592825479805469512939453125" lon="-0.82374620251357555389404296875">
        <ele>1227.5999755859375</ele>
        <time>2020-08-20T12:52:42.000Z</time>
      </trkpt>
      <trkpt lat="42.8760029375553131103515625" lon="-0.823944769799709320068359375">
        <ele>1227</ele>
        <time>2020-08-20T12:52:45.000Z</time>
      </trkpt>
      <trkpt lat="42.87600805051624774932861328125" lon="-0.82402414642274379730224609375">
        <ele>1226.800048828125</ele>
        <time>2020-08-20T12:52:46.000Z</time>
      </trkpt>
      <trkpt lat="42.8759876824915409088134765625" lon="-0.82417854107916355133056640625">
        <ele>1225.800048828125</ele>
        <time>2020-08-20T12:52:48.000Z</time>
      </trkpt>
      <trkpt lat="42.875972427427768707275390625" lon="-0.824251882731914520263671875">
        <ele>1225.4000244140625</ele>
        <time>2020-08-20T12:52:49.000Z</time>
      </trkpt>
      <trkpt lat="42.8759360499680042266845703125" lon="-0.82447341643273830413818359375">
        <ele>1224.5999755859375</ele>
        <time>2020-08-20T12:52:52.000Z</time>
      </trkpt>
      <trkpt lat="42.8758934698998928070068359375" lon="-0.8246543817222118377685546875">
        <ele>1224.199951171875</ele>
        <time>2020-08-20T12:52:54.000Z</time>
      </trkpt>
      <trkpt lat="42.8758203797042369842529296875" lon="-0.8247596584260463714599609375">
        <ele>1223.800048828125</ele>
        <time>2020-08-20T12:52:56.000Z</time>
      </trkpt>
      <trkpt lat="42.8757680766284465789794921875" lon="-0.82484791986644268035888671875">
        <ele>1223.4000244140625</ele>
        <time>2020-08-20T12:52:58.000Z</time>
      </trkpt>
      <trkpt lat="42.87571669556200504302978515625" lon="-0.82492603920400142669677734375">
        <ele>1222.800048828125</ele>
        <time>2020-08-20T12:53:00.000Z</time>
      </trkpt>
      <trkpt lat="42.875613681972026824951171875" lon="-0.8250238560140132904052734375">
        <ele>1222.4000244140625</ele>
        <time>2020-08-20T12:53:04.000Z</time>
      </trkpt>
      <trkpt lat="42.875582166016101837158203125" lon="-0.825050510466098785400390625">
        <ele>1222</ele>
        <time>2020-08-20T12:53:05.000Z</time>
      </trkpt>
      <trkpt lat="42.87554687820374965667724609375" lon="-0.825075991451740264892578125">
        <ele>1221.800048828125</ele>
        <time>2020-08-20T12:53:06.000Z</time>
      </trkpt>
      <trkpt lat="42.8754509054124355316162109375" lon="-0.82511848770081996917724609375">
        <ele>1221.199951171875</ele>
        <time>2020-08-20T12:53:08.000Z</time>
      </trkpt>
      <trkpt lat="42.87539432756602764129638671875" lon="-0.82513877190649509429931640625">
        <ele>1221</ele>
        <time>2020-08-20T12:53:09.000Z</time>
      </trkpt>
      <trkpt lat="42.87528167478740215301513671875" lon="-0.82517414353787899017333984375">
        <ele>1220.4000244140625</ele>
        <time>2020-08-20T12:53:11.000Z</time>
      </trkpt>
      <trkpt lat="42.87522601895034313201904296875" lon="-0.8252022229135036468505859375">
        <ele>1219.800048828125</ele>
        <time>2020-08-20T12:53:12.000Z</time>
      </trkpt>
      <trkpt lat="42.87517555989325046539306640625" lon="-0.82524203695356845855712890625">
        <ele>1219.4000244140625</ele>
        <time>2020-08-20T12:53:13.000Z</time>
      </trkpt>
      <trkpt lat="42.87509475834667682647705078125" lon="-0.8253601379692554473876953125">
        <ele>1218.5999755859375</ele>
        <time>2020-08-20T12:53:15.000Z</time>
      </trkpt>
      <trkpt lat="42.8750587999820709228515625" lon="-0.82543331198394298553466796875">
        <ele>1218.199951171875</ele>
        <time>2020-08-20T12:53:16.000Z</time>
      </trkpt>
      <trkpt lat="42.8749396093189716339111328125" lon="-0.82567043602466583251953125">
        <ele>1217.4000244140625</ele>
        <time>2020-08-20T12:53:19.000Z</time>
      </trkpt>
      <trkpt lat="42.874852605164051055908203125" lon="-0.82584536634385585784912109375">
        <ele>1216.5999755859375</ele>
        <time>2020-08-20T12:53:21.000Z</time>
      </trkpt>
      <trkpt lat="42.87480575032532215118408203125" lon="-0.8259324543178081512451171875">
        <ele>1216</ele>
        <time>2020-08-20T12:53:22.000Z</time>
      </trkpt>
      <trkpt lat="42.87463241256773471832275390625" lon="-0.82617527805268764495849609375">
        <ele>1214.800048828125</ele>
        <time>2020-08-20T12:53:25.000Z</time>
      </trkpt>
      <trkpt lat="42.8745630942285060882568359375" lon="-0.8262523077428340911865234375">
        <ele>1214.5999755859375</ele>
        <time>2020-08-20T12:53:26.000Z</time>
      </trkpt>
      <trkpt lat="42.87433049641549587249755859375" lon="-0.8264923654496669769287109375">
        <ele>1213.199951171875</ele>
        <time>2020-08-20T12:53:29.000Z</time>
      </trkpt>
      <trkpt lat="42.8742489404976367950439453125" lon="-0.826576687395572662353515625">
        <ele>1212.199951171875</ele>
        <time>2020-08-20T12:53:30.000Z</time>
      </trkpt>
      <trkpt lat="42.8741674683988094329833984375" lon="-0.82666528411209583282470703125">
        <ele>1211.5999755859375</ele>
        <time>2020-08-20T12:53:31.000Z</time>
      </trkpt>
      <trkpt lat="42.8740015067160129547119140625" lon="-0.8268507756292819976806640625">
        <ele>1210.4000244140625</ele>
        <time>2020-08-20T12:53:33.000Z</time>
      </trkpt>
      <trkpt lat="42.87382590584456920623779296875" lon="-0.82704666070640087127685546875">
        <ele>1209.4000244140625</ele>
        <time>2020-08-20T12:53:35.000Z</time>
      </trkpt>
      <trkpt lat="42.873738147318363189697265625" lon="-0.8271552063524723052978515625">
        <ele>1208.5999755859375</ele>
        <time>2020-08-20T12:53:36.000Z</time>
      </trkpt>
      <trkpt lat="42.8736518137156963348388671875" lon="-0.827267356216907501220703125">
        <ele>1207.199951171875</ele>
        <time>2020-08-20T12:53:37.000Z</time>
      </trkpt>
      <trkpt lat="42.87356874905526638031005859375" lon="-0.827378332614898681640625">
        <ele>1206</ele>
        <time>2020-08-20T12:53:38.000Z</time>
      </trkpt>
      <trkpt lat="42.87340588867664337158203125" lon="-0.82759492099285125732421875">
        <ele>1204</ele>
        <time>2020-08-20T12:53:40.000Z</time>
      </trkpt>
      <trkpt lat="42.87323783151805400848388671875" lon="-0.8278110064566135406494140625">
        <ele>1202.4000244140625</ele>
        <time>2020-08-20T12:53:42.000Z</time>
      </trkpt>
      <trkpt lat="42.87305862642824649810791015625" lon="-0.8280202187597751617431640625">
        <ele>1200.800048828125</ele>
        <time>2020-08-20T12:53:44.000Z</time>
      </trkpt>
      <trkpt lat="42.872965671122074127197265625" lon="-0.82812071777880191802978515625">
        <ele>1199.5999755859375</ele>
        <time>2020-08-20T12:53:45.000Z</time>
      </trkpt>
      <trkpt lat="42.872871793806552886962890625" lon="-0.8282163552939891815185546875">
        <ele>1198.5999755859375</ele>
        <time>2020-08-20T12:53:46.000Z</time>
      </trkpt>
      <trkpt lat="42.87268429063260555267333984375" lon="-0.82838206551969051361083984375">
        <ele>1196.800048828125</ele>
        <time>2020-08-20T12:53:48.000Z</time>
      </trkpt>
      <trkpt lat="42.872495949268341064453125" lon="-0.82853972911834716796875">
        <ele>1194.800048828125</ele>
        <time>2020-08-20T12:53:50.000Z</time>
      </trkpt>
      <trkpt lat="42.87232252769172191619873046875" lon="-0.8287051878869533538818359375">
        <ele>1193.4000244140625</ele>
        <time>2020-08-20T12:53:52.000Z</time>
      </trkpt>
      <trkpt lat="42.8722465038299560546875" lon="-0.82879864610731601715087890625">
        <ele>1192.800048828125</ele>
        <time>2020-08-20T12:53:53.000Z</time>
      </trkpt>
      <trkpt lat="42.87217634730041027069091796875" lon="-0.8288951218128204345703125">
        <ele>1192.4000244140625</ele>
        <time>2020-08-20T12:53:54.000Z</time>
      </trkpt>
      <trkpt lat="42.8720498643815517425537109375" lon="-0.82910793833434581756591796875">
        <ele>1190.800048828125</ele>
        <time>2020-08-20T12:53:56.000Z</time>
      </trkpt>
      <trkpt lat="42.871993370354175567626953125" lon="-0.8292285539209842681884765625">
        <ele>1190.199951171875</ele>
        <time>2020-08-20T12:53:57.000Z</time>
      </trkpt>
      <trkpt lat="42.87193712778389453887939453125" lon="-0.82935352809727191925048828125">
        <ele>1189.5999755859375</ele>
        <time>2020-08-20T12:53:58.000Z</time>
      </trkpt>
      <trkpt lat="42.87181927822530269622802734375" lon="-0.82961319945752620697021484375">
        <ele>1188</ele>
        <time>2020-08-20T12:54:00.000Z</time>
      </trkpt>
      <trkpt lat="42.87169958464801311492919921875" lon="-0.82988577894866466522216796875">
        <ele>1186.5999755859375</ele>
        <time>2020-08-20T12:54:02.000Z</time>
      </trkpt>
      <trkpt lat="42.87158760242164134979248046875" lon="-0.83015768788754940032958984375">
        <ele>1184.5999755859375</ele>
        <time>2020-08-20T12:54:04.000Z</time>
      </trkpt>
      <trkpt lat="42.87149137817323207855224609375" lon="-0.83042599260807037353515625">
        <ele>1182.800048828125</ele>
        <time>2020-08-20T12:54:06.000Z</time>
      </trkpt>
      <trkpt lat="42.8714044578373432159423828125" lon="-0.8307015895843505859375">
        <ele>1181</ele>
        <time>2020-08-20T12:54:08.000Z</time>
      </trkpt>
      <trkpt lat="42.8713602013885974884033203125" lon="-0.8309968002140522003173828125">
        <ele>1179.5999755859375</ele>
        <time>2020-08-20T12:54:10.000Z</time>
      </trkpt>
      <trkpt lat="42.8713477961719036102294921875" lon="-0.831154547631740570068359375">
        <ele>1178.5999755859375</ele>
        <time>2020-08-20T12:54:11.000Z</time>
      </trkpt>
      <trkpt lat="42.87132994271814823150634765625" lon="-0.83146509714424610137939453125">
        <ele>1177</ele>
        <time>2020-08-20T12:54:13.000Z</time>
      </trkpt>
      <trkpt lat="42.87131502293050289154052734375" lon="-0.83177053369581699371337890625">
        <ele>1175.199951171875</ele>
        <time>2020-08-20T12:54:15.000Z</time>
      </trkpt>
      <trkpt lat="42.87130613811314105987548828125" lon="-0.83191956393420696258544921875">
        <ele>1174.199951171875</ele>
        <time>2020-08-20T12:54:16.000Z</time>
      </trkpt>
      <trkpt lat="42.871300689876079559326171875" lon="-0.8320673368871212005615234375">
        <ele>1173.199951171875</ele>
        <time>2020-08-20T12:54:17.000Z</time>
      </trkpt>
      <trkpt lat="42.87129775620996952056884765625" lon="-0.83235391415655612945556640625">
        <ele>1172</ele>
        <time>2020-08-20T12:54:19.000Z</time>
      </trkpt>
      <trkpt lat="42.87130714394152164459228515625" lon="-0.83249389193952083587646484375">
        <ele>1171.199951171875</ele>
        <time>2020-08-20T12:54:20.000Z</time>
      </trkpt>
      <trkpt lat="42.87132860161364078521728515625" lon="-0.83263345062732696533203125">
        <ele>1170.4000244140625</ele>
        <time>2020-08-20T12:54:21.000Z</time>
      </trkpt>
      <trkpt lat="42.8713826648890972137451171875" lon="-0.832916758954524993896484375">
        <ele>1168.5999755859375</ele>
        <time>2020-08-20T12:54:23.000Z</time>
      </trkpt>
      <trkpt lat="42.87141895852982997894287109375" lon="-0.833060927689075469970703125">
        <ele>1167.800048828125</ele>
        <time>2020-08-20T12:54:24.000Z</time>
      </trkpt>
      <trkpt lat="42.8714577667415142059326171875" lon="-0.833199732005596160888671875">
        <ele>1167.4000244140625</ele>
        <time>2020-08-20T12:54:25.000Z</time>
      </trkpt>
      <trkpt lat="42.8715620376169681549072265625" lon="-0.83347457461059093475341796875">
        <ele>1165.5999755859375</ele>
        <time>2020-08-20T12:54:27.000Z</time>
      </trkpt>
      <trkpt lat="42.87161945365369319915771484375" lon="-0.83361589349806308746337890625">
        <ele>1164.4000244140625</ele>
        <time>2020-08-20T12:54:28.000Z</time>
      </trkpt>
      <trkpt lat="42.8717296756803989410400390625" lon="-0.8338905684649944305419921875">
        <ele>1162.199951171875</ele>
        <time>2020-08-20T12:54:30.000Z</time>
      </trkpt>
      <trkpt lat="42.8717839904129505157470703125" lon="-0.83402476273477077484130859375">
        <ele>1161.199951171875</ele>
        <time>2020-08-20T12:54:31.000Z</time>
      </trkpt>
      <trkpt lat="42.871837131679058074951171875" lon="-0.8341562747955322265625">
        <ele>1159.800048828125</ele>
        <time>2020-08-20T12:54:32.000Z</time>
      </trkpt>
      <trkpt lat="42.87188868038356304168701171875" lon="-0.834282673895359039306640625">
        <ele>1159</ele>
        <time>2020-08-20T12:54:33.000Z</time>
      </trkpt>
      <trkpt lat="42.87193980999290943145751953125" lon="-0.83440396003425121307373046875">
        <ele>1158.4000244140625</ele>
        <time>2020-08-20T12:54:34.000Z</time>
      </trkpt>
      <trkpt lat="42.87204198539257049560546875" lon="-0.83461669273674488067626953125">
        <ele>1157.199951171875</ele>
        <time>2020-08-20T12:54:36.000Z</time>
      </trkpt>
      <trkpt lat="42.87208414636552333831787109375" lon="-0.834721885621547698974609375">
        <ele>1156.199951171875</ele>
        <time>2020-08-20T12:54:37.000Z</time>
      </trkpt>
      <trkpt lat="42.87211180664598941802978515625" lon="-0.8348216302692890167236328125">
        <ele>1155</ele>
        <time>2020-08-20T12:54:38.000Z</time>
      </trkpt>
      <trkpt lat="42.872112058103084564208984375" lon="-0.8350160904228687286376953125">
        <ele>1153.5999755859375</ele>
        <time>2020-08-20T12:54:40.000Z</time>
      </trkpt>
      <trkpt lat="42.8720994852483272552490234375" lon="-0.8352269791066646575927734375">
        <ele>1152.5999755859375</ele>
        <time>2020-08-20T12:54:42.000Z</time>
      </trkpt>
      <trkpt lat="42.8720988146960735321044921875" lon="-0.83544884808361530303955078125">
        <ele>1151.5999755859375</ele>
        <time>2020-08-20T12:54:44.000Z</time>
      </trkpt>
      <trkpt lat="42.87210593931376934051513671875" lon="-0.835569798946380615234375">
        <ele>1150.800048828125</ele>
        <time>2020-08-20T12:54:45.000Z</time>
      </trkpt>
      <trkpt lat="42.872114069759845733642578125" lon="-0.83569745533168315887451171875">
        <ele>1150.199951171875</ele>
        <time>2020-08-20T12:54:46.000Z</time>
      </trkpt>
      <trkpt lat="42.87214457988739013671875" lon="-0.83596475422382354736328125">
        <ele>1149.199951171875</ele>
        <time>2020-08-20T12:54:48.000Z</time>
      </trkpt>
      <trkpt lat="42.872194536030292510986328125" lon="-0.8362509123980998992919921875">
        <ele>1148</ele>
        <time>2020-08-20T12:54:50.000Z</time>
      </trkpt>
      <trkpt lat="42.87224407307803630828857421875" lon="-0.83653715439140796661376953125">
        <ele>1145.800048828125</ele>
        <time>2020-08-20T12:54:52.000Z</time>
      </trkpt>
      <trkpt lat="42.8722741641104221343994140625" lon="-0.83667562343180179595947265625">
        <ele>1145.199951171875</ele>
        <time>2020-08-20T12:54:53.000Z</time>
      </trkpt>
      <trkpt lat="42.87231691181659698486328125" lon="-0.83680319599807262420654296875">
        <ele>1144.5999755859375</ele>
        <time>2020-08-20T12:54:54.000Z</time>
      </trkpt>
      <trkpt lat="42.87236980162560939788818359375" lon="-0.83692791871726512908935546875">
        <ele>1144</ele>
        <time>2020-08-20T12:54:55.000Z</time>
      </trkpt>
      <trkpt lat="42.87242109887301921844482421875" lon="-0.83705582655966281890869140625">
        <ele>1143.199951171875</ele>
        <time>2020-08-20T12:54:56.000Z</time>
      </trkpt>
      <trkpt lat="42.87246309220790863037109375" lon="-0.83718641661107540130615234375">
        <ele>1142.4000244140625</ele>
        <time>2020-08-20T12:54:57.000Z</time>
      </trkpt>
      <trkpt lat="42.8724890761077404022216796875" lon="-0.8373226225376129150390625">
        <ele>1141.4000244140625</ele>
        <time>2020-08-20T12:54:58.000Z</time>
      </trkpt>
      <trkpt lat="42.8725058399140834808349609375" lon="-0.83745413459837436676025390625">
        <ele>1140.4000244140625</ele>
        <time>2020-08-20T12:54:59.000Z</time>
      </trkpt>
      <trkpt lat="42.87252268753945827484130859375" lon="-0.83758413791656494140625">
        <ele>1139.4000244140625</ele>
        <time>2020-08-20T12:55:00.000Z</time>
      </trkpt>
      <trkpt lat="42.87257708609104156494140625" lon="-0.83784087561070919036865234375">
        <ele>1138</ele>
        <time>2020-08-20T12:55:02.000Z</time>
      </trkpt>
      <trkpt lat="42.87261002697050571441650390625" lon="-0.83797196857631206512451171875">
        <ele>1137.4000244140625</ele>
        <time>2020-08-20T12:55:03.000Z</time>
      </trkpt>
      <trkpt lat="42.87263986654579639434814453125" lon="-0.838100127875804901123046875">
        <ele>1136.800048828125</ele>
        <time>2020-08-20T12:55:04.000Z</time>
      </trkpt>
      <trkpt lat="42.8726979531347751617431640625" lon="-0.83836876787245273590087890625">
        <ele>1135.5999755859375</ele>
        <time>2020-08-20T12:55:06.000Z</time>
      </trkpt>
      <trkpt lat="42.8727391920983791351318359375" lon="-0.83863363601267337799072265625">
        <ele>1134</ele>
        <time>2020-08-20T12:55:08.000Z</time>
      </trkpt>
      <trkpt lat="42.8727572970092296600341796875" lon="-0.83876472897827625274658203125">
        <ele>1132.800048828125</ele>
        <time>2020-08-20T12:55:09.000Z</time>
      </trkpt>
      <trkpt lat="42.8727789223194122314453125" lon="-0.83889431320130825042724609375">
        <ele>1131.5999755859375</ele>
        <time>2020-08-20T12:55:10.000Z</time>
      </trkpt>
      <trkpt lat="42.872807420790195465087890625" lon="-0.83902113139629364013671875">
        <ele>1130.800048828125</ele>
        <time>2020-08-20T12:55:11.000Z</time>
      </trkpt>
      <trkpt lat="42.87284304387867450714111328125" lon="-0.8391470275819301605224609375">
        <ele>1130</ele>
        <time>2020-08-20T12:55:12.000Z</time>
      </trkpt>
      <trkpt lat="42.872879505157470703125" lon="-0.83927367813885211944580078125">
        <ele>1129</ele>
        <time>2020-08-20T12:55:13.000Z</time>
      </trkpt>
      <trkpt lat="42.87291429005563259124755859375" lon="-0.83940376527607440948486328125">
        <ele>1128.199951171875</ele>
        <time>2020-08-20T12:55:14.000Z</time>
      </trkpt>
      <trkpt lat="42.87296977825462818145751953125" lon="-0.8396717347204685211181640625">
        <ele>1126.4000244140625</ele>
        <time>2020-08-20T12:55:16.000Z</time>
      </trkpt>
      <trkpt lat="42.8730040602385997772216796875" lon="-0.839958898723125457763671875">
        <ele>1124.800048828125</ele>
        <time>2020-08-20T12:55:18.000Z</time>
      </trkpt>
      <trkpt lat="42.87302761338651180267333984375" lon="-0.840252935886383056640625">
        <ele>1123.4000244140625</ele>
        <time>2020-08-20T12:55:20.000Z</time>
      </trkpt>
      <trkpt lat="42.87303700111806392669677734375" lon="-0.84039576351642608642578125">
        <ele>1122.199951171875</ele>
        <time>2020-08-20T12:55:21.000Z</time>
      </trkpt>
      <trkpt lat="42.87304370664060115814208984375" lon="-0.84053800441324710845947265625">
        <ele>1121.199951171875</ele>
        <time>2020-08-20T12:55:22.000Z</time>
      </trkpt>
      <trkpt lat="42.87304270081222057342529296875" lon="-0.84082114510238170623779296875">
        <ele>1119.5999755859375</ele>
        <time>2020-08-20T12:55:24.000Z</time>
      </trkpt>
      <trkpt lat="42.87302308715879917144775390625" lon="-0.84110294468700885772705078125">
        <ele>1118.4000244140625</ele>
        <time>2020-08-20T12:55:26.000Z</time>
      </trkpt>
      <trkpt lat="42.87300598807632923126220703125" lon="-0.8413876779377460479736328125">
        <ele>1116.800048828125</ele>
        <time>2020-08-20T12:55:28.000Z</time>
      </trkpt>
      <trkpt lat="42.87300665862858295440673828125" lon="-0.84153109230101108551025390625">
        <ele>1116</ele>
        <time>2020-08-20T12:55:29.000Z</time>
      </trkpt>
      <trkpt lat="42.8730194829404354095458984375" lon="-0.84167542867362499237060546875">
        <ele>1115.4000244140625</ele>
        <time>2020-08-20T12:55:30.000Z</time>
      </trkpt>
      <trkpt lat="42.87306667305529117584228515625" lon="-0.84195949137210845947265625">
        <ele>1113.5999755859375</ele>
        <time>2020-08-20T12:55:32.000Z</time>
      </trkpt>
      <trkpt lat="42.8731193952262401580810546875" lon="-0.8422471582889556884765625">
        <ele>1112.199951171875</ele>
        <time>2020-08-20T12:55:34.000Z</time>
      </trkpt>
      <trkpt lat="42.87314747460186481475830078125" lon="-0.84239141084253787994384765625">
        <ele>1111.5999755859375</ele>
        <time>2020-08-20T12:55:35.000Z</time>
      </trkpt>
      <trkpt lat="42.8731740452349185943603515625" lon="-0.8425339870154857635498046875">
        <ele>1111.199951171875</ele>
        <time>2020-08-20T12:55:36.000Z</time>
      </trkpt>
      <trkpt lat="42.87322257645428180694580078125" lon="-0.84281100891530513763427734375">
        <ele>1110</ele>
        <time>2020-08-20T12:55:38.000Z</time>
      </trkpt>
      <trkpt lat="42.8732746280729770660400390625" lon="-0.84307386539876461029052734375">
        <ele>1109</ele>
        <time>2020-08-20T12:55:40.000Z</time>
      </trkpt>
      <trkpt lat="42.87329952232539653778076171875" lon="-0.84320194087922573089599609375">
        <ele>1108.800048828125</ele>
        <time>2020-08-20T12:55:41.000Z</time>
      </trkpt>
      <trkpt lat="42.873369343578815460205078125" lon="-0.84357258863747119903564453125">
        <ele>1108</ele>
        <time>2020-08-20T12:55:44.000Z</time>
      </trkpt>
      <trkpt lat="42.873437069356441497802734375" lon="-0.8439287357032299041748046875">
        <ele>1107.199951171875</ele>
        <time>2020-08-20T12:55:47.000Z</time>
      </trkpt>
      <trkpt lat="42.87350605241954326629638671875" lon="-0.84427767433226108551025390625">
        <ele>1106.800048828125</ele>
        <time>2020-08-20T12:55:50.000Z</time>
      </trkpt>
      <trkpt lat="42.87363312207162380218505859375" lon="-0.8448215760290622711181640625">
        <ele>1106</ele>
        <time>2020-08-20T12:55:55.000Z</time>
      </trkpt>
      <trkpt lat="42.87365742959082126617431640625" lon="-0.84492039866745471954345703125">
        <ele>1105.800048828125</ele>
        <time>2020-08-20T12:55:56.000Z</time>
      </trkpt>
      <trkpt lat="42.87376253865659236907958984375" lon="-0.84536732174456119537353515625">
        <ele>1105</ele>
        <time>2020-08-20T12:56:01.000Z</time>
      </trkpt>
      <trkpt lat="42.873784415423870086669921875" lon="-0.84544837474822998046875">
        <ele>1104.5999755859375</ele>
        <time>2020-08-20T12:56:02.000Z</time>
      </trkpt>
      <trkpt lat="42.8738717548549175262451171875" lon="-0.84582162089645862579345703125">
        <ele>1104</ele>
        <time>2020-08-20T12:56:07.000Z</time>
      </trkpt>
      <trkpt lat="42.87395574152469635009765625" lon="-0.8461724035441875457763671875">
        <ele>1103.5999755859375</ele>
        <time>2020-08-20T12:56:13.000Z</time>
      </trkpt>
      <trkpt lat="42.87397962994873523712158203125" lon="-0.84627893753349781036376953125">
        <ele>1103.199951171875</ele>
        <time>2020-08-20T12:56:15.000Z</time>
      </trkpt>
      <trkpt lat="42.87407417781651020050048828125" lon="-0.8466572128236293792724609375">
        <ele>1102.5999755859375</ele>
        <time>2020-08-20T12:56:22.000Z</time>
      </trkpt>
      <trkpt lat="42.87415967322885990142822265625" lon="-0.84698938764631748199462890625">
        <ele>1101.5999755859375</ele>
        <time>2020-08-20T12:56:28.000Z</time>
      </trkpt>
      <trkpt lat="42.8742187656462192535400390625" lon="-0.8472090773284435272216796875">
        <ele>1100.800048828125</ele>
        <time>2020-08-20T12:56:32.000Z</time>
      </trkpt>
      <trkpt lat="42.87424533627927303314208984375" lon="-0.84732298739254474639892578125">
        <ele>1100.4000244140625</ele>
        <time>2020-08-20T12:56:34.000Z</time>
      </trkpt>
      <trkpt lat="42.87436000071465969085693359375" lon="-0.84780000150203704833984375">
        <ele>1099.5999755859375</ele>
        <time>2020-08-20T12:56:42.000Z</time>
      </trkpt>
      <trkpt lat="42.87437642924487590789794921875" lon="-0.847860015928745269775390625">
        <ele>1099.4000244140625</ele>
        <time>2020-08-20T12:56:43.000Z</time>
      </trkpt>
      <trkpt lat="42.87446142174303531646728515625" lon="-0.84822437725961208343505859375">
        <ele>1099.800048828125</ele>
        <time>2020-08-20T12:56:49.000Z</time>
      </trkpt>
      <trkpt lat="42.8745932690799236297607421875" lon="-0.848737098276615142822265625">
        <ele>1100.4000244140625</ele>
        <time>2020-08-20T12:56:57.000Z</time>
      </trkpt>
      <trkpt lat="42.87473022937774658203125" lon="-0.849336571991443634033203125">
        <ele>1099.800048828125</ele>
        <time>2020-08-20T12:57:06.000Z</time>
      </trkpt>
      <trkpt lat="42.874872051179409027099609375" lon="-0.8498983271420001983642578125">
        <ele>1099.4000244140625</ele>
        <time>2020-08-20T12:57:15.000Z</time>
      </trkpt>
      <trkpt lat="42.875022590160369873046875" lon="-0.8504988066852092742919921875">
        <ele>1099.199951171875</ele>
        <time>2020-08-20T12:57:25.000Z</time>
      </trkpt>
      <trkpt lat="42.87515603005886077880859375" lon="-0.851049162447452545166015625">
        <ele>1099.199951171875</ele>
        <time>2020-08-20T12:57:34.000Z</time>
      </trkpt>
      <trkpt lat="42.87521981634199619293212890625" lon="-0.85135904140770435333251953125">
        <ele>1098.800048828125</ele>
        <time>2020-08-20T12:57:39.000Z</time>
      </trkpt>
      <trkpt lat="42.87526222877204418182373046875" lon="-0.85154780186712741851806640625">
        <ele>1098.199951171875</ele>
        <time>2020-08-20T12:57:42.000Z</time>
      </trkpt>
      <trkpt lat="42.875287123024463653564453125" lon="-0.85167847573757171630859375">
        <ele>1097.5999755859375</ele>
        <time>2020-08-20T12:57:44.000Z</time>
      </trkpt>
      <trkpt lat="42.8753610514104366302490234375" lon="-0.85201718844473361968994140625">
        <ele>1096.800048828125</ele>
        <time>2020-08-20T12:57:49.000Z</time>
      </trkpt>
      <trkpt lat="42.875374294817447662353515625" lon="-0.852089859545230865478515625">
        <ele>1096.5999755859375</ele>
        <time>2020-08-20T12:57:50.000Z</time>
      </trkpt>
      <trkpt lat="42.87542802281677722930908203125" lon="-0.852449946105480194091796875">
        <ele>1095.4000244140625</ele>
        <time>2020-08-20T12:57:55.000Z</time>
      </trkpt>
      <trkpt lat="42.87544981576502323150634765625" lon="-0.85259906016290187835693359375">
        <ele>1094.5999755859375</ele>
        <time>2020-08-20T12:57:57.000Z</time>
      </trkpt>
      <trkpt lat="42.875474207103252410888671875" lon="-0.85275194607675075531005859375">
        <ele>1094.199951171875</ele>
        <time>2020-08-20T12:57:59.000Z</time>
      </trkpt>
      <trkpt lat="42.8755387477576732635498046875" lon="-0.85322719998657703399658203125">
        <ele>1093.5999755859375</ele>
        <time>2020-08-20T12:58:05.000Z</time>
      </trkpt>
      <trkpt lat="42.8755509853363037109375" lon="-0.8533127792179584503173828125">
        <ele>1093.199951171875</ele>
        <time>2020-08-20T12:58:06.000Z</time>
      </trkpt>
      <trkpt lat="42.875615023076534271240234375" lon="-0.85376649163663387298583984375">
        <ele>1092.199951171875</ele>
        <time>2020-08-20T12:58:11.000Z</time>
      </trkpt>
      <trkpt lat="42.87563656456768512725830078125" lon="-0.8539487980306148529052734375">
        <ele>1091.800048828125</ele>
        <time>2020-08-20T12:58:13.000Z</time>
      </trkpt>
      <trkpt lat="42.875636480748653411865234375" lon="-0.854216180741786956787109375">
        <ele>1091.4000244140625</ele>
        <time>2020-08-20T12:58:16.000Z</time>
      </trkpt>
      <trkpt lat="42.87562139332294464111328125" lon="-0.85438038222491741180419921875">
        <ele>1091.199951171875</ele>
        <time>2020-08-20T12:58:18.000Z</time>
      </trkpt>
      <trkpt lat="42.87559918127954006195068359375" lon="-0.85460334084928035736083984375">
        <ele>1091.199951171875</ele>
        <time>2020-08-20T12:58:21.000Z</time>
      </trkpt>
      <trkpt lat="42.8755764663219451904296875" lon="-0.854796878993511199951171875">
        <ele>1091.199951171875</ele>
        <time>2020-08-20T12:58:24.000Z</time>
      </trkpt>
      <trkpt lat="42.8755414299666881561279296875" lon="-0.85508228279650211334228515625">
        <ele>1091.199951171875</ele>
        <time>2020-08-20T12:58:29.000Z</time>
      </trkpt>
      <trkpt lat="42.87553958594799041748046875" lon="-0.85524556227028369903564453125">
        <ele>1091.4000244140625</ele>
        <time>2020-08-20T12:58:32.000Z</time>
      </trkpt>
      <trkpt lat="42.87555878050625324249267578125" lon="-0.85568209178745746612548828125">
        <ele>1091.199951171875</ele>
        <time>2020-08-20T12:58:40.000Z</time>
      </trkpt>
      <trkpt lat="42.87561980076134204864501953125" lon="-0.856212079524993896484375">
        <ele>1090.800048828125</ele>
        <time>2020-08-20T12:58:49.000Z</time>
      </trkpt>
      <trkpt lat="42.87564218044281005859375" lon="-0.85638172924518585205078125">
        <ele>1090.4000244140625</ele>
        <time>2020-08-20T12:58:52.000Z</time>
      </trkpt>
      <trkpt lat="42.8756524063646793365478515625" lon="-0.8564358763396739959716796875">
        <ele>1090.199951171875</ele>
        <time>2020-08-20T12:58:53.000Z</time>
      </trkpt>
      <trkpt lat="42.87570546381175518035888671875" lon="-0.8566479384899139404296875">
        <ele>1089.5999755859375</ele>
        <time>2020-08-20T12:58:57.000Z</time>
      </trkpt>
      <trkpt lat="42.8757352195680141448974609375" lon="-0.8567507006227970123291015625">
        <ele>1089.199951171875</ele>
        <time>2020-08-20T12:58:59.000Z</time>
      </trkpt>
      <trkpt lat="42.87581090815365314483642578125" lon="-0.85698229260742664337158203125">
        <ele>1089</ele>
        <time>2020-08-20T12:59:04.000Z</time>
      </trkpt>
      <trkpt lat="42.8759385645389556884765625" lon="-0.8573069237172603607177734375">
        <ele>1088.4000244140625</ele>
        <time>2020-08-20T12:59:10.000Z</time>
      </trkpt>
      <trkpt lat="42.8759595192968845367431640625" lon="-0.85736702196300029754638671875">
        <ele>1088.199951171875</ele>
        <time>2020-08-20T12:59:11.000Z</time>
      </trkpt>
      <trkpt lat="42.87603319622576236724853515625" lon="-0.85754153318703174591064453125">
        <ele>1087.4000244140625</ele>
        <time>2020-08-20T12:59:14.000Z</time>
      </trkpt>
      <trkpt lat="42.87610477767884731292724609375" lon="-0.85772777907550334930419921875">
        <ele>1086.4000244140625</ele>
        <time>2020-08-20T12:59:17.000Z</time>
      </trkpt>
      <trkpt lat="42.876131348311901092529296875" lon="-0.8577913977205753326416015625">
        <ele>1086.199951171875</ele>
        <time>2020-08-20T12:59:18.000Z</time>
      </trkpt>
      <trkpt lat="42.8762632794678211212158203125" lon="-0.85813011042773723602294921875">
        <ele>1084.800048828125</ele>
        <time>2020-08-20T12:59:23.000Z</time>
      </trkpt>
      <trkpt lat="42.87633511237800121307373046875" lon="-0.85834644734859466552734375">
        <ele>1083.800048828125</ele>
        <time>2020-08-20T12:59:26.000Z</time>
      </trkpt>
      <trkpt lat="42.87635372020304203033447265625" lon="-0.85842314176261425018310546875">
        <ele>1083.5999755859375</ele>
        <time>2020-08-20T12:59:27.000Z</time>
      </trkpt>
      <trkpt lat="42.8763937018811702728271484375" lon="-0.85866294801235198974609375">
        <ele>1082.4000244140625</ele>
        <time>2020-08-20T12:59:30.000Z</time>
      </trkpt>
      <trkpt lat="42.87641557864844799041748046875" lon="-0.8588260598480701446533203125">
        <ele>1081.800048828125</ele>
        <time>2020-08-20T12:59:32.000Z</time>
      </trkpt>
      <trkpt lat="42.87644893862307071685791015625" lon="-0.85907399654388427734375">
        <ele>1081.4000244140625</ele>
        <time>2020-08-20T12:59:35.000Z</time>
      </trkpt>
      <trkpt lat="42.87649252451956272125244140625" lon="-0.859398208558559417724609375">
        <ele>1080.199951171875</ele>
        <time>2020-08-20T12:59:39.000Z</time>
      </trkpt>
      <trkpt lat="42.8765033371746540069580078125" lon="-0.85947741754353046417236328125">
        <ele>1079.800048828125</ele>
        <time>2020-08-20T12:59:40.000Z</time>
      </trkpt>
      <trkpt lat="42.876537032425403594970703125" lon="-0.85970758460462093353271484375">
        <ele>1079.199951171875</ele>
        <time>2020-08-20T12:59:43.000Z</time>
      </trkpt>
      <trkpt lat="42.8765891678631305694580078125" lon="-0.86015584878623485565185546875">
        <ele>1078.5999755859375</ele>
        <time>2020-08-20T12:59:49.000Z</time>
      </trkpt>
      <trkpt lat="42.87663795053958892822265625" lon="-0.86056723259389400482177734375">
        <ele>1078.199951171875</ele>
        <time>2020-08-20T12:59:55.000Z</time>
      </trkpt>
      <trkpt lat="42.87664691917598247528076171875" lon="-0.86063344962894916534423828125">
        <ele>1078</ele>
        <time>2020-08-20T12:59:56.000Z</time>
      </trkpt>
      <trkpt lat="42.8767185844480991363525390625" lon="-0.861167795956134796142578125">
        <ele>1077.199951171875</ele>
        <time>2020-08-20T13:00:04.000Z</time>
      </trkpt>
      <trkpt lat="42.87677080370485782623291015625" lon="-0.86159267462790012359619140625">
        <ele>1076.199951171875</ele>
        <time>2020-08-20T13:00:10.000Z</time>
      </trkpt>
      <trkpt lat="42.87678052671253681182861328125" lon="-0.8616645075380802154541015625">
        <ele>1076</ele>
        <time>2020-08-20T13:00:11.000Z</time>
      </trkpt>
      <trkpt lat="42.87682838737964630126953125" lon="-0.8621654100716114044189453125">
        <ele>1075</ele>
        <time>2020-08-20T13:00:18.000Z</time>
      </trkpt>
      <trkpt lat="42.8768312372267246246337890625" lon="-0.86230513639748096466064453125">
        <ele>1074.5999755859375</ele>
        <time>2020-08-20T13:00:20.000Z</time>
      </trkpt>
      <trkpt lat="42.87683266215026378631591796875" lon="-0.862518288195133209228515625">
        <ele>1074</ele>
        <time>2020-08-20T13:00:23.000Z</time>
      </trkpt>
      <trkpt lat="42.87683601491153240203857421875" lon="-0.86310024373233318328857421875">
        <ele>1073.800048828125</ele>
        <time>2020-08-20T13:00:31.000Z</time>
      </trkpt>
      <trkpt lat="42.8768419660627841949462890625" lon="-0.86347893811762332916259765625">
        <ele>1073.199951171875</ele>
        <time>2020-08-20T13:00:36.000Z</time>
      </trkpt>
      <trkpt lat="42.876841463148593902587890625" lon="-0.8635594882071018218994140625">
        <ele>1073</ele>
        <time>2020-08-20T13:00:37.000Z</time>
      </trkpt>
      <trkpt lat="42.87684188224375247955322265625" lon="-0.863974057137966156005859375">
        <ele>1072.199951171875</ele>
        <time>2020-08-20T13:00:42.000Z</time>
      </trkpt>
      <trkpt lat="42.876841463148593902587890625" lon="-0.86430857889354228973388671875">
        <ele>1071.4000244140625</ele>
        <time>2020-08-20T13:00:46.000Z</time>
      </trkpt>
      <trkpt lat="42.87684355862438678741455078125" lon="-0.86471510119736194610595703125">
        <ele>1071</ele>
        <time>2020-08-20T13:00:51.000Z</time>
      </trkpt>
      <trkpt lat="42.8768409602344036102294921875" lon="-0.86494107730686664581298828125">
        <ele>1070.5999755859375</ele>
        <time>2020-08-20T13:00:54.000Z</time>
      </trkpt>
      <trkpt lat="42.87684070877730846405029296875" lon="-0.86559771560132503509521484375">
        <ele>1070.199951171875</ele>
        <time>2020-08-20T13:01:03.000Z</time>
      </trkpt>
      <trkpt lat="42.87687943316996097564697265625" lon="-0.86635896004736423492431640625">
        <ele>1069.199951171875</ele>
        <time>2020-08-20T13:01:13.000Z</time>
      </trkpt>
      <trkpt lat="42.87688731215894222259521484375" lon="-0.8664338104426860809326171875">
        <ele>1069.199951171875</ele>
        <time>2020-08-20T13:01:14.000Z</time>
      </trkpt>
      <trkpt lat="42.8769049979746341705322265625" lon="-0.86658242158591747283935546875">
        <ele>1069.199951171875</ele>
        <time>2020-08-20T13:01:16.000Z</time>
      </trkpt>
      <trkpt lat="42.876995019614696502685546875" lon="-0.86716429330408573150634765625">
        <ele>1069</ele>
        <time>2020-08-20T13:01:24.000Z</time>
      </trkpt>
      <trkpt lat="42.87703835405409336090087890625" lon="-0.8673816360533237457275390625">
        <ele>1068.199951171875</ele>
        <time>2020-08-20T13:01:27.000Z</time>
      </trkpt>
      <trkpt lat="42.8771333210170269012451171875" lon="-0.8678362704813480377197265625">
        <ele>1067.199951171875</ele>
        <time>2020-08-20T13:01:33.000Z</time>
      </trkpt>
      <trkpt lat="42.87720733322203159332275390625" lon="-0.868171043694019317626953125">
        <ele>1066</ele>
        <time>2020-08-20T13:01:37.000Z</time>
      </trkpt>
      <trkpt lat="42.87727774120867252349853515625" lon="-0.86849366314709186553955078125">
        <ele>1065.4000244140625</ele>
        <time>2020-08-20T13:01:41.000Z</time>
      </trkpt>
      <trkpt lat="42.87729299627244472503662109375" lon="-0.868569351732730865478515625">
        <ele>1065</ele>
        <time>2020-08-20T13:01:42.000Z</time>
      </trkpt>
      <trkpt lat="42.87738888524472713470458984375" lon="-0.86901300586760044097900390625">
        <ele>1063.800048828125</ele>
        <time>2020-08-20T13:01:48.000Z</time>
      </trkpt>
      <trkpt lat="42.87743582390248775482177734375" lon="-0.8692387305200099945068359375">
        <ele>1063.4000244140625</ele>
        <time>2020-08-20T13:01:51.000Z</time>
      </trkpt>
      <trkpt lat="42.8775101713836193084716796875" lon="-0.86960493586957454681396484375">
        <ele>1062.800048828125</ele>
        <time>2020-08-20T13:01:56.000Z</time>
      </trkpt>
      <trkpt lat="42.877564318478107452392578125" lon="-0.869907774031162261962890625">
        <ele>1062.199951171875</ele>
        <time>2020-08-20T13:02:00.000Z</time>
      </trkpt>
      <trkpt lat="42.87759591825306415557861328125" lon="-0.87005856446921825408935546875">
        <ele>1061.800048828125</ele>
        <time>2020-08-20T13:02:02.000Z</time>
      </trkpt>
      <trkpt lat="42.87773405201733112335205078125" lon="-0.8707912266254425048828125">
        <ele>1060.800048828125</ele>
        <time>2020-08-20T13:02:12.000Z</time>
      </trkpt>
      <trkpt lat="42.87774880416691303253173828125" lon="-0.87086238898336887359619140625">
        <ele>1060.5999755859375</ele>
        <time>2020-08-20T13:02:13.000Z</time>
      </trkpt>
      <trkpt lat="42.87777914665639400482177734375" lon="-0.87122976779937744140625">
        <ele>1060.4000244140625</ele>
        <time>2020-08-20T13:02:18.000Z</time>
      </trkpt>
      <trkpt lat="42.8777539171278476715087890625" lon="-0.8718947879970073699951171875">
        <ele>1060</ele>
        <time>2020-08-20T13:02:27.000Z</time>
      </trkpt>
      <trkpt lat="42.87774545140564441680908203125" lon="-0.8720429800450801849365234375">
        <ele>1059.800048828125</ele>
        <time>2020-08-20T13:02:29.000Z</time>
      </trkpt>
      <trkpt lat="42.877707146108150482177734375" lon="-0.8726494945585727691650390625">
        <ele>1058.800048828125</ele>
        <time>2020-08-20T13:02:37.000Z</time>
      </trkpt>
      <trkpt lat="42.8776942379772663116455078125" lon="-0.8728015422821044921875">
        <ele>1058.5999755859375</ele>
        <time>2020-08-20T13:02:39.000Z</time>
      </trkpt>
      <trkpt lat="42.87763170897960662841796875" lon="-0.87354250252246856689453125">
        <ele>1057.800048828125</ele>
        <time>2020-08-20T13:02:49.000Z</time>
      </trkpt>
      <trkpt lat="42.87761368788778781890869140625" lon="-0.873759090900421142578125">
        <ele>1057.5999755859375</ele>
        <time>2020-08-20T13:02:52.000Z</time>
      </trkpt>
      <trkpt lat="42.8775913082063198089599609375" lon="-0.87397299706935882568359375">
        <ele>1057</ele>
        <time>2020-08-20T13:02:55.000Z</time>
      </trkpt>
      <trkpt lat="42.87756155245006084442138671875" lon="-0.87433367036283016204833984375">
        <ele>1056.800048828125</ele>
        <time>2020-08-20T13:03:00.000Z</time>
      </trkpt>
      <trkpt lat="42.87748946808278560638427734375" lon="-0.8750021271407604217529296875">
        <ele>1056.4000244140625</ele>
        <time>2020-08-20T13:03:09.000Z</time>
      </trkpt>
      <trkpt lat="42.877474464476108551025390625" lon="-0.8751540072262287139892578125">
        <ele>1056.199951171875</ele>
        <time>2020-08-20T13:03:11.000Z</time>
      </trkpt>
      <trkpt lat="42.8774176351726055145263671875" lon="-0.8755828253924846649169921875">
        <ele>1056.199951171875</ele>
        <time>2020-08-20T13:03:17.000Z</time>
      </trkpt>
      <trkpt lat="42.87729484029114246368408203125" lon="-0.87621406652033329010009765625">
        <ele>1055.800048828125</ele>
        <time>2020-08-20T13:03:26.000Z</time>
      </trkpt>
      <trkpt lat="42.87712502293288707733154296875" lon="-0.876731313765048980712890625">
        <ele>1055.199951171875</ele>
        <time>2020-08-20T13:03:34.000Z</time>
      </trkpt>
      <trkpt lat="42.8769881464540958404541015625" lon="-0.87717748247087001800537109375">
        <ele>1056</ele>
        <time>2020-08-20T13:03:41.000Z</time>
      </trkpt>
      <trkpt lat="42.8768392838537693023681640625" lon="-0.87761702947318553924560546875">
        <ele>1055.800048828125</ele>
        <time>2020-08-20T13:03:48.000Z</time>
      </trkpt>
      <trkpt lat="42.876686565577983856201171875" lon="-0.878110639750957489013671875">
        <ele>1055.199951171875</ele>
        <time>2020-08-20T13:03:57.000Z</time>
      </trkpt>
      <trkpt lat="42.87662998773157596588134765625" lon="-0.87840777821838855743408203125">
        <ele>1054.4000244140625</ele>
        <time>2020-08-20T13:04:03.000Z</time>
      </trkpt>
      <trkpt lat="42.87661288864910602569580078125" lon="-0.87848992086946964263916015625">
        <ele>1054.5999755859375</ele>
        <time>2020-08-20T13:04:05.000Z</time>
      </trkpt>
      <trkpt lat="42.876587994396686553955078125" lon="-0.87873936630785465240478515625">
        <ele>1055.5999755859375</ele>
        <time>2020-08-20T13:04:11.000Z</time>
      </trkpt>
      <trkpt lat="42.87658539600670337677001953125" lon="-0.87882645428180694580078125">
        <ele>1055.5999755859375</ele>
        <time>2020-08-20T13:04:13.000Z</time>
      </trkpt>
      <trkpt lat="42.87656628526747226715087890625" lon="-0.8793144486844539642333984375">
        <ele>1055.800048828125</ele>
        <time>2020-08-20T13:04:25.000Z</time>
      </trkpt>
      <trkpt lat="42.8765459172427654266357421875" lon="-0.8797063864767551422119140625">
        <ele>1055.199951171875</ele>
        <time>2020-08-20T13:04:34.000Z</time>
      </trkpt>
      <trkpt lat="42.87652554921805858612060546875" lon="-0.88000721298158168792724609375">
        <ele>1056</ele>
        <time>2020-08-20T13:04:42.000Z</time>
      </trkpt>
      <trkpt lat="42.87652722559869289398193359375" lon="-0.88011768646538257598876953125">
        <ele>1056.4000244140625</ele>
        <time>2020-08-20T13:04:46.000Z</time>
      </trkpt>
      <trkpt lat="42.8765259683132171630859375" lon="-0.88012397289276123046875">
        <ele>1056.4000244140625</ele>
        <time>2020-08-20T13:04:47.000Z</time>
      </trkpt>
      <trkpt lat="42.8765264712274074554443359375" lon="-0.88012858293950557708740234375">
        <ele>1057</ele>
        <time>2020-08-20T13:04:56.000Z</time>
      </trkpt>
      <trkpt lat="42.87652638740837574005126953125" lon="-0.88012891821563243865966796875">
        <ele>1057.800048828125</ele>
        <time>2020-08-20T13:05:07.000Z</time>
      </trkpt>
      <trkpt lat="42.87652621977031230926513671875" lon="-0.88012808002531528472900390625">
        <ele>1057.5999755859375</ele>
        <time>2020-08-20T13:05:33.000Z</time>
      </trkpt>
      <trkpt lat="42.87652655504643917083740234375" lon="-0.88012824766337871551513671875">
        <ele>1057.800048828125</ele>
        <time>2020-08-20T13:05:37.000Z</time>
      </trkpt>
      <trkpt lat="42.87652689032256603240966796875" lon="-0.88012908585369586944580078125">
        <ele>1057.5999755859375</ele>
        <time>2020-08-20T13:05:50.000Z</time>
      </trkpt>
      <trkpt lat="42.876526303589344024658203125" lon="-0.8801306784152984619140625">
        <ele>1057.4000244140625</ele>
        <time>2020-08-20T13:06:10.000Z</time>
      </trkpt>
      <trkpt lat="42.876526303589344024658203125" lon="-0.88013025932013988494873046875">
        <ele>1057.800048828125</ele>
        <time>2020-08-20T13:06:51.000Z</time>
      </trkpt>
      <trkpt lat="42.876529656350612640380859375" lon="-0.88013947941362857818603515625">
        <ele>1058</ele>
        <time>2020-08-20T13:07:13.000Z</time>
      </trkpt>
      <trkpt lat="42.87652923725545406341552734375" lon="-0.8801402337849140167236328125">
        <ele>1058</ele>
        <time>2020-08-20T13:07:40.000Z</time>
      </trkpt>
      <trkpt lat="42.87652923725545406341552734375" lon="-0.88014014996588230133056640625">
        <ele>1057.4000244140625</ele>
        <time>2020-08-20T13:07:48.000Z</time>
      </trkpt>
      <trkpt lat="42.87652932107448577880859375" lon="-0.8801402337849140167236328125">
        <ele>1057.199951171875</ele>
        <time>2020-08-20T13:07:50.000Z</time>
      </trkpt>
      <trkpt lat="42.87652940489351749420166015625" lon="-0.880140401422977447509765625">
        <ele>1057.199951171875</ele>
        <time>2020-08-20T13:08:20.000Z</time>
      </trkpt>
      <trkpt lat="42.87652797996997833251953125" lon="-0.88014685548841953277587890625">
        <ele>1057</ele>
        <time>2020-08-20T13:08:26.000Z</time>
      </trkpt>
      <trkpt lat="42.87652186118066310882568359375" lon="-0.88018004782497882843017578125">
        <ele>1057.4000244140625</ele>
        <time>2020-08-20T13:08:28.000Z</time>
      </trkpt>
      <trkpt lat="42.8765206038951873779296875" lon="-0.88026168756186962127685546875">
        <ele>1057</ele>
        <time>2020-08-20T13:08:33.000Z</time>
      </trkpt>
      <trkpt lat="42.876520939171314239501953125" lon="-0.88029504753649234771728515625">
        <ele>1057.199951171875</ele>
        <time>2020-08-20T13:08:35.000Z</time>
      </trkpt>
      <trkpt lat="42.876517586410045623779296875" lon="-0.88035087101161479949951171875">
        <ele>1057.4000244140625</ele>
        <time>2020-08-20T13:08:38.000Z</time>
      </trkpt>
      <trkpt lat="42.876508869230747222900390625" lon="-0.8804144896566867828369140625">
        <ele>1057</ele>
        <time>2020-08-20T13:08:41.000Z</time>
      </trkpt>
      <trkpt lat="42.876497469842433929443359375" lon="-0.88051012717187404632568359375">
        <ele>1057.199951171875</ele>
        <time>2020-08-20T13:08:45.000Z</time>
      </trkpt>
      <trkpt lat="42.8764916025102138519287109375" lon="-0.88058455847203731536865234375">
        <ele>1057.4000244140625</ele>
        <time>2020-08-20T13:08:48.000Z</time>
      </trkpt>
      <trkpt lat="42.87647902965545654296875" lon="-0.88079695589840412139892578125">
        <ele>1058</ele>
        <time>2020-08-20T13:08:57.000Z</time>
      </trkpt>
      <trkpt lat="42.87647039629518985748291015625" lon="-0.88101253844797611236572265625">
        <ele>1057.4000244140625</ele>
        <time>2020-08-20T13:09:06.000Z</time>
      </trkpt>
      <trkpt lat="42.8764527104794979095458984375" lon="-0.8811738900840282440185546875">
        <ele>1057.5999755859375</ele>
        <time>2020-08-20T13:09:14.000Z</time>
      </trkpt>
      <trkpt lat="42.87645757198333740234375" lon="-0.881169699132442474365234375">
        <ele>1057</ele>
        <time>2020-08-20T13:09:22.000Z</time>
      </trkpt>
      <trkpt lat="42.876457907259464263916015625" lon="-0.8811695314943790435791015625">
        <ele>1056.5999755859375</ele>
        <time>2020-08-20T13:09:27.000Z</time>
      </trkpt>
      <trkpt lat="42.87645765580236911773681640625" lon="-0.88117078877985477447509765625">
        <ele>1056.5999755859375</ele>
        <time>2020-08-20T13:09:50.000Z</time>
      </trkpt>
      <trkpt lat="42.87645765580236911773681640625" lon="-0.881170369684696197509765625">
        <ele>1057.800048828125</ele>
        <time>2020-08-20T13:10:12.000Z</time>
      </trkpt>
      <trkpt lat="42.87645757198333740234375" lon="-0.881170369684696197509765625">
        <ele>1058.199951171875</ele>
        <time>2020-08-20T13:10:15.000Z</time>
      </trkpt>
      <trkpt lat="42.87645765580236911773681640625" lon="-0.8811708725988864898681640625">
        <ele>1058</ele>
        <time>2020-08-20T13:10:34.000Z</time>
      </trkpt>
      <trkpt lat="42.87645715288817882537841796875" lon="-0.881171040236949920654296875">
        <ele>1058</ele>
        <time>2020-08-20T13:10:55.000Z</time>
      </trkpt>
      <trkpt lat="42.87643418647348880767822265625" lon="-0.8812432922422885894775390625">
        <ele>1057.800048828125</ele>
        <time>2020-08-20T13:11:01.000Z</time>
      </trkpt>
      <trkpt lat="42.876390181481838226318359375" lon="-0.88146566413342952728271484375">
        <ele>1058.5999755859375</ele>
        <time>2020-08-20T13:11:08.000Z</time>
      </trkpt>
      <trkpt lat="42.8762867487967014312744140625" lon="-0.88174176402390003204345703125">
        <ele>1059.5999755859375</ele>
        <time>2020-08-20T13:11:16.000Z</time>
      </trkpt>
      <trkpt lat="42.8761600144207477569580078125" lon="-0.88212515227496623992919921875">
        <ele>1060.800048828125</ele>
        <time>2020-08-20T13:11:27.000Z</time>
      </trkpt>
      <trkpt lat="42.8761331923305988311767578125" lon="-0.88223445229232311248779296875">
        <ele>1060.800048828125</ele>
        <time>2020-08-20T13:11:30.000Z</time>
      </trkpt>
      <trkpt lat="42.876087762415409088134765625" lon="-0.88241122663021087646484375">
        <ele>1061.4000244140625</ele>
        <time>2020-08-20T13:11:35.000Z</time>
      </trkpt>
      <trkpt lat="42.87605197168886661529541015625" lon="-0.882588922977447509765625">
        <ele>1062</ele>
        <time>2020-08-20T13:11:40.000Z</time>
      </trkpt>
      <trkpt lat="42.876040823757648468017578125" lon="-0.8826594986021518707275390625">
        <ele>1062.800048828125</ele>
        <time>2020-08-20T13:11:42.000Z</time>
      </trkpt>
      <trkpt lat="42.876034118235111236572265625" lon="-0.882695205509662628173828125">
        <ele>1063.199951171875</ele>
        <time>2020-08-20T13:11:43.000Z</time>
      </trkpt>
      <trkpt lat="42.8759860061109066009521484375" lon="-0.88289880193769931793212890625">
        <ele>1063.4000244140625</ele>
        <time>2020-08-20T13:11:49.000Z</time>
      </trkpt>
      <trkpt lat="42.87594133056700229644775390625" lon="-0.8830913342535495758056640625">
        <ele>1063.800048828125</ele>
        <time>2020-08-20T13:11:55.000Z</time>
      </trkpt>
      <trkpt lat="42.8759015165269374847412109375" lon="-0.8832200802862644195556640625">
        <ele>1064.4000244140625</ele>
        <time>2020-08-20T13:11:59.000Z</time>
      </trkpt>
      <trkpt lat="42.87587796337902545928955078125" lon="-0.88328487239778041839599609375">
        <ele>1064.5999755859375</ele>
        <time>2020-08-20T13:12:01.000Z</time>
      </trkpt>
      <trkpt lat="42.87580135278403759002685546875" lon="-0.8835137821733951568603515625">
        <ele>1065</ele>
        <time>2020-08-20T13:12:08.000Z</time>
      </trkpt>
      <trkpt lat="42.87575257010757923126220703125" lon="-0.88362702168524265289306640625">
        <ele>1065.5999755859375</ele>
        <time>2020-08-20T13:12:12.000Z</time>
      </trkpt>
      <trkpt lat="42.8757171146571636199951171875" lon="-0.883684940636157989501953125">
        <ele>1066</ele>
        <time>2020-08-20T13:12:15.000Z</time>
      </trkpt>
      <trkpt lat="42.8757043741643428802490234375" lon="-0.88372123427689075469970703125">
        <ele>1066.5999755859375</ele>
        <time>2020-08-20T13:12:17.000Z</time>
      </trkpt>
      <trkpt lat="42.87567579187452793121337890625" lon="-0.8838007785379886627197265625">
        <ele>1067</ele>
        <time>2020-08-20T13:12:21.000Z</time>
      </trkpt>
      <trkpt lat="42.87564779631793498992919921875" lon="-0.883901529014110565185546875">
        <ele>1067.5999755859375</ele>
        <time>2020-08-20T13:12:25.000Z</time>
      </trkpt>
      <trkpt lat="42.87563304416835308074951171875" lon="-0.88395760394632816314697265625">
        <ele>1068</ele>
        <time>2020-08-20T13:12:27.000Z</time>
      </trkpt>
      <trkpt lat="42.8755836747586727142333984375" lon="-0.8841514773666858673095703125">
        <ele>1068.800048828125</ele>
        <time>2020-08-20T13:12:33.000Z</time>
      </trkpt>
      <trkpt lat="42.8755595348775386810302734375" lon="-0.88425130583345890045166015625">
        <ele>1069.4000244140625</ele>
        <time>2020-08-20T13:12:36.000Z</time>
      </trkpt>
      <trkpt lat="42.87553824484348297119140625" lon="-0.88431634940207004547119140625">
        <ele>1069.5999755859375</ele>
        <time>2020-08-20T13:12:38.000Z</time>
      </trkpt>
      <trkpt lat="42.8754760511219501495361328125" lon="-0.88459052145481109619140625">
        <ele>1070.5999755859375</ele>
        <time>2020-08-20T13:12:46.000Z</time>
      </trkpt>
      <trkpt lat="42.87549725733697414398193359375" lon="-0.8848535455763339996337890625">
        <ele>1071</ele>
        <time>2020-08-20T13:12:53.000Z</time>
      </trkpt>
      <trkpt lat="42.87558895535767078399658203125" lon="-0.8851512707769870758056640625">
        <ele>1071.800048828125</ele>
        <time>2020-08-20T13:13:01.000Z</time>
      </trkpt>
      <trkpt lat="42.8756944835186004638671875" lon="-0.8854577131569385528564453125">
        <ele>1071.199951171875</ele>
        <time>2020-08-20T13:13:07.000Z</time>
      </trkpt>
      <trkpt lat="42.87585231475532054901123046875" lon="-0.885898768901824951171875">
        <ele>1069.5999755859375</ele>
        <time>2020-08-20T13:13:13.000Z</time>
      </trkpt>
      <trkpt lat="42.8759372234344482421875" lon="-0.88605944998562335968017578125">
        <ele>1069.4000244140625</ele>
        <time>2020-08-20T13:13:15.000Z</time>
      </trkpt>
      <trkpt lat="42.87605985067784786224365234375" lon="-0.8862037025392055511474609375">
        <ele>1068.800048828125</ele>
        <time>2020-08-20T13:13:17.000Z</time>
      </trkpt>
      <trkpt lat="42.8761382214725017547607421875" lon="-0.88625944219529628753662109375">
        <ele>1068.5999755859375</ele>
        <time>2020-08-20T13:13:18.000Z</time>
      </trkpt>
      <trkpt lat="42.87631516344845294952392578125" lon="-0.8863461948931217193603515625">
        <ele>1067</ele>
        <time>2020-08-20T13:13:20.000Z</time>
      </trkpt>
      <trkpt lat="42.87650358863174915313720703125" lon="-0.8864249847829341888427734375">
        <ele>1065.199951171875</ele>
        <time>2020-08-20T13:13:22.000Z</time>
      </trkpt>
      <trkpt lat="42.87659629248082637786865234375" lon="-0.8864692412316799163818359375">
        <ele>1064</ele>
        <time>2020-08-20T13:13:23.000Z</time>
      </trkpt>
      <trkpt lat="42.87668765522539615631103515625" lon="-0.8865252323448657989501953125">
        <ele>1063</ele>
        <time>2020-08-20T13:13:24.000Z</time>
      </trkpt>
      <trkpt lat="42.876865603029727935791015625" lon="-0.8866811357438564300537109375">
        <ele>1061.4000244140625</ele>
        <time>2020-08-20T13:13:26.000Z</time>
      </trkpt>
      <trkpt lat="42.8770409524440765380859375" lon="-0.8868662081658840179443359375">
        <ele>1060.199951171875</ele>
        <time>2020-08-20T13:13:28.000Z</time>
      </trkpt>
      <trkpt lat="42.8771289624273777008056640625" lon="-0.8869667910039424896240234375">
        <ele>1059.199951171875</ele>
        <time>2020-08-20T13:13:29.000Z</time>
      </trkpt>
      <trkpt lat="42.8773113526403903961181640625" lon="-0.88716804049909114837646484375">
        <ele>1057.5999755859375</ele>
        <time>2020-08-20T13:13:31.000Z</time>
      </trkpt>
      <trkpt lat="42.877499274909496307373046875" lon="-0.88737666606903076171875">
        <ele>1056.4000244140625</ele>
        <time>2020-08-20T13:13:33.000Z</time>
      </trkpt>
      <trkpt lat="42.87768845446407794952392578125" lon="-0.8875917457044124603271484375">
        <ele>1054.4000244140625</ele>
        <time>2020-08-20T13:13:35.000Z</time>
      </trkpt>
      <trkpt lat="42.87778350524604320526123046875" lon="-0.887700878083705902099609375">
        <ele>1053.199951171875</ele>
        <time>2020-08-20T13:13:36.000Z</time>
      </trkpt>
      <trkpt lat="42.8778803162276744842529296875" lon="-0.88780892081558704376220703125">
        <ele>1052</ele>
        <time>2020-08-20T13:13:37.000Z</time>
      </trkpt>
      <trkpt lat="42.8779765404760837554931640625" lon="-0.8879196457564830780029296875">
        <ele>1051</ele>
        <time>2020-08-20T13:13:38.000Z</time>
      </trkpt>
      <trkpt lat="42.87807318381965160369873046875" lon="-0.88802970014512538909912109375">
        <ele>1050</ele>
        <time>2020-08-20T13:13:39.000Z</time>
      </trkpt>
      <trkpt lat="42.87816957570612430572509765625" lon="-0.8881405927240848541259765625">
        <ele>1048.4000244140625</ele>
        <time>2020-08-20T13:13:40.000Z</time>
      </trkpt>
      <trkpt lat="42.8782652132213115692138671875" lon="-0.88825349695980548858642578125">
        <ele>1047.199951171875</ele>
        <time>2020-08-20T13:13:41.000Z</time>
      </trkpt>
      <trkpt lat="42.87835582159459590911865234375" lon="-0.8883705921471118927001953125">
        <ele>1046.199951171875</ele>
        <time>2020-08-20T13:13:42.000Z</time>
      </trkpt>
      <trkpt lat="42.8784398920834064483642578125" lon="-0.88849581778049468994140625">
        <ele>1045.4000244140625</ele>
        <time>2020-08-20T13:13:43.000Z</time>
      </trkpt>
      <trkpt lat="42.87851876579225063323974609375" lon="-0.88862850330770015716552734375">
        <ele>1044.5999755859375</ele>
        <time>2020-08-20T13:13:44.000Z</time>
      </trkpt>
      <trkpt lat="42.87866645492613315582275390625" lon="-0.8889130689203739166259765625">
        <ele>1042.800048828125</ele>
        <time>2020-08-20T13:13:46.000Z</time>
      </trkpt>
      <trkpt lat="42.8787356056272983551025390625" lon="-0.88906050659716129302978515625">
        <ele>1041.5999755859375</ele>
        <time>2020-08-20T13:13:47.000Z</time>
      </trkpt>
      <trkpt lat="42.87880291230976581573486328125" lon="-0.8892050944268703460693359375">
        <ele>1040.5999755859375</ele>
        <time>2020-08-20T13:13:48.000Z</time>
      </trkpt>
      <trkpt lat="42.878867872059345245361328125" lon="-0.8893492631614208221435546875">
        <ele>1039.4000244140625</ele>
        <time>2020-08-20T13:13:49.000Z</time>
      </trkpt>
      <trkpt lat="42.878933586180210113525390625" lon="-0.8894974552094936370849609375">
        <ele>1038.4000244140625</ele>
        <time>2020-08-20T13:13:50.000Z</time>
      </trkpt>
      <trkpt lat="42.87907205522060394287109375" lon="-0.88979660533368587493896484375">
        <ele>1036.199951171875</ele>
        <time>2020-08-20T13:13:52.000Z</time>
      </trkpt>
      <trkpt lat="42.87914120592176914215087890625" lon="-0.8899403549730777740478515625">
        <ele>1035.199951171875</ele>
        <time>2020-08-20T13:13:53.000Z</time>
      </trkpt>
      <trkpt lat="42.87928260862827301025390625" lon="-0.8902179636061191558837890625">
        <ele>1033.4000244140625</ele>
        <time>2020-08-20T13:13:55.000Z</time>
      </trkpt>
      <trkpt lat="42.87935611791908740997314453125" lon="-0.89034729637205600738525390625">
        <ele>1031.4000244140625</ele>
        <time>2020-08-20T13:13:56.000Z</time>
      </trkpt>
      <trkpt lat="42.87943415343761444091796875" lon="-0.8904637210071086883544921875">
        <ele>1030.199951171875</ele>
        <time>2020-08-20T13:13:57.000Z</time>
      </trkpt>
      <trkpt lat="42.87951705045998096466064453125" lon="-0.89057176373898983001708984375">
        <ele>1029</ele>
        <time>2020-08-20T13:13:58.000Z</time>
      </trkpt>
      <trkpt lat="42.8796051442623138427734375" lon="-0.89067402295768260955810546875">
        <ele>1028</ele>
        <time>2020-08-20T13:13:59.000Z</time>
      </trkpt>
      <trkpt lat="42.87978208623826503753662109375" lon="-0.8908630348742008209228515625">
        <ele>1026</ele>
        <time>2020-08-20T13:14:01.000Z</time>
      </trkpt>
      <trkpt lat="42.87995341233909130096435546875" lon="-0.891039557754993438720703125">
        <ele>1024.4000244140625</ele>
        <time>2020-08-20T13:14:03.000Z</time>
      </trkpt>
      <trkpt lat="42.88003974594175815582275390625" lon="-0.891126058995723724365234375">
        <ele>1022.5999755859375</ele>
        <time>2020-08-20T13:14:04.000Z</time>
      </trkpt>
      <trkpt lat="42.880121804773807525634765625" lon="-0.89121649973094463348388671875">
        <ele>1022</ele>
        <time>2020-08-20T13:14:05.000Z</time>
      </trkpt>
      <trkpt lat="42.8802756965160369873046875" lon="-0.89141967706382274627685546875">
        <ele>1021.20001220703125</ele>
        <time>2020-08-20T13:14:07.000Z</time>
      </trkpt>
      <trkpt lat="42.8804773651063442230224609375" lon="-0.89177506975829601287841796875">
        <ele>1019.79998779296875</ele>
        <time>2020-08-20T13:14:10.000Z</time>
      </trkpt>
      <trkpt lat="42.88054048083722591400146484375" lon="-0.89189744554460048675537109375">
        <ele>1018.79998779296875</ele>
        <time>2020-08-20T13:14:11.000Z</time>
      </trkpt>
      <trkpt lat="42.88059999234974384307861328125" lon="-0.89202049188315868377685546875">
        <ele>1017.5999755859375</ele>
        <time>2020-08-20T13:14:12.000Z</time>
      </trkpt>
      <trkpt lat="42.88071599788963794708251953125" lon="-0.89225837029516696929931640625">
        <ele>1016.4000244140625</ele>
        <time>2020-08-20T13:14:14.000Z</time>
      </trkpt>
      <trkpt lat="42.880840636789798736572265625" lon="-0.89247127063572406768798828125">
        <ele>1014.4000244140625</ele>
        <time>2020-08-20T13:14:16.000Z</time>
      </trkpt>
      <trkpt lat="42.88091003894805908203125" lon="-0.89257084764540195465087890625">
        <ele>1013.5999755859375</ele>
        <time>2020-08-20T13:14:17.000Z</time>
      </trkpt>
      <trkpt lat="42.880982458591461181640625" lon="-0.8926661498844623565673828125">
        <ele>1012.79998779296875</ele>
        <time>2020-08-20T13:14:18.000Z</time>
      </trkpt>
      <trkpt lat="42.881134338676929473876953125" lon="-0.8928304351866245269775390625">
        <ele>1011.4000244140625</ele>
        <time>2020-08-20T13:14:20.000Z</time>
      </trkpt>
      <trkpt lat="42.8812166489660739898681640625" lon="-0.89288986288011074066162109375">
        <ele>1010.4000244140625</ele>
        <time>2020-08-20T13:14:21.000Z</time>
      </trkpt>
      <trkpt lat="42.881304323673248291015625" lon="-0.89293227531015872955322265625">
        <ele>1009.5999755859375</ele>
        <time>2020-08-20T13:14:22.000Z</time>
      </trkpt>
      <trkpt lat="42.881483696401119232177734375" lon="-0.89299564249813556671142578125">
        <ele>1008.20001220703125</ele>
        <time>2020-08-20T13:14:24.000Z</time>
      </trkpt>
      <trkpt lat="42.881574220955371856689453125" lon="-0.893027074635028839111328125">
        <ele>1007.5999755859375</ele>
        <time>2020-08-20T13:14:25.000Z</time>
      </trkpt>
      <trkpt lat="42.88166197948157787322998046875" lon="-0.8930503763258457183837890625">
        <ele>1007.20001220703125</ele>
        <time>2020-08-20T13:14:26.000Z</time>
      </trkpt>
      <trkpt lat="42.881747893989086151123046875" lon="-0.89306051842868328094482421875">
        <ele>1006.5999755859375</ele>
        <time>2020-08-20T13:14:27.000Z</time>
      </trkpt>
      <trkpt lat="42.88183582015335559844970703125" lon="-0.8930607698857784271240234375">
        <ele>1006</ele>
        <time>2020-08-20T13:14:28.000Z</time>
      </trkpt>
      <trkpt lat="42.8819240815937519073486328125" lon="-0.8930456824600696563720703125">
        <ele>1005.5999755859375</ele>
        <time>2020-08-20T13:14:29.000Z</time>
      </trkpt>
      <trkpt lat="42.8821031190454959869384765625" lon="-0.892975442111492156982421875">
        <ele>1004.5999755859375</ele>
        <time>2020-08-20T13:14:31.000Z</time>
      </trkpt>
      <trkpt lat="42.8821912966668605804443359375" lon="-0.892919786274433135986328125">
        <ele>1004</ele>
        <time>2020-08-20T13:14:32.000Z</time>
      </trkpt>
      <trkpt lat="42.882360778748989105224609375" lon="-0.89278198778629302978515625">
        <ele>1003.20001220703125</ele>
        <time>2020-08-20T13:14:34.000Z</time>
      </trkpt>
      <trkpt lat="42.8824451006948947906494140625" lon="-0.89270127005875110626220703125">
        <ele>1002.5999755859375</ele>
        <time>2020-08-20T13:14:35.000Z</time>
      </trkpt>
      <trkpt lat="42.88260913453996181488037109375" lon="-0.892524830996990203857421875">
        <ele>1000.4000244140625</ele>
        <time>2020-08-20T13:14:37.000Z</time>
      </trkpt>
      <trkpt lat="42.8826858289539813995361328125" lon="-0.89243120513856410980224609375">
        <ele>999.4000244140625</ele>
        <time>2020-08-20T13:14:38.000Z</time>
      </trkpt>
      <trkpt lat="42.88275782950222492218017578125" lon="-0.892333053052425384521484375">
        <ele>998.79998779296875</ele>
        <time>2020-08-20T13:14:39.000Z</time>
      </trkpt>
      <trkpt lat="42.882825471460819244384765625" lon="-0.89222903363406658172607421875">
        <ele>998</ele>
        <time>2020-08-20T13:14:40.000Z</time>
      </trkpt>
      <trkpt lat="42.8829651139676570892333984375" lon="-0.892019569873809814453125">
        <ele>996.79998779296875</ele>
        <time>2020-08-20T13:14:42.000Z</time>
      </trkpt>
      <trkpt lat="42.8831134736537933349609375" lon="-0.891811363399028778076171875">
        <ele>995</ele>
        <time>2020-08-20T13:14:44.000Z</time>
      </trkpt>
      <trkpt lat="42.88319192826747894287109375" lon="-0.89170902036130428314208984375">
        <ele>994.20001220703125</ele>
        <time>2020-08-20T13:14:45.000Z</time>
      </trkpt>
      <trkpt lat="42.883274070918560028076171875" lon="-0.89161396957933902740478515625">
        <ele>993.5999755859375</ele>
        <time>2020-08-20T13:14:46.000Z</time>
      </trkpt>
      <trkpt lat="42.8834328241646289825439453125" lon="-0.89143996126949787139892578125">
        <ele>991.79998779296875</ele>
        <time>2020-08-20T13:14:48.000Z</time>
      </trkpt>
      <trkpt lat="42.88349929265677928924560546875" lon="-0.8913528732955455780029296875">
        <ele>990.5999755859375</ele>
        <time>2020-08-20T13:14:49.000Z</time>
      </trkpt>
      <trkpt lat="42.88359216414391994476318359375" lon="-0.891161262989044189453125">
        <ele>989.20001220703125</ele>
        <time>2020-08-20T13:14:51.000Z</time>
      </trkpt>
      <trkpt lat="42.88361546583473682403564453125" lon="-0.89105288498103618621826171875">
        <ele>988.5999755859375</ele>
        <time>2020-08-20T13:14:52.000Z</time>
      </trkpt>
      <trkpt lat="42.8836303018033504486083984375" lon="-0.8909448422491550445556640625">
        <ele>988</ele>
        <time>2020-08-20T13:14:53.000Z</time>
      </trkpt>
      <trkpt lat="42.88364329375326633453369140625" lon="-0.8908439241349697113037109375">
        <ele>987.5999755859375</ele>
        <time>2020-08-20T13:14:54.000Z</time>
      </trkpt>
      <trkpt lat="42.88365972228348255157470703125" lon="-0.8907513879239559173583984375">
        <ele>987.4000244140625</ele>
        <time>2020-08-20T13:14:55.000Z</time>
      </trkpt>
      <trkpt lat="42.8836869634687900543212890625" lon="-0.8906717598438262939453125">
        <ele>987</ele>
        <time>2020-08-20T13:14:56.000Z</time>
      </trkpt>
      <trkpt lat="42.88378260098397731781005859375" lon="-0.890581570565700531005859375">
        <ele>986</ele>
        <time>2020-08-20T13:14:58.000Z</time>
      </trkpt>
      <trkpt lat="42.88383842445909976959228515625" lon="-0.890586264431476593017578125">
        <ele>985.5999755859375</ele>
        <time>2020-08-20T13:14:59.000Z</time>
      </trkpt>
      <trkpt lat="42.8838827647268772125244140625" lon="-0.89062574319541454315185546875">
        <ele>985</ele>
        <time>2020-08-20T13:15:00.000Z</time>
      </trkpt>
      <trkpt lat="42.8839075751602649688720703125" lon="-0.89068843983113765716552734375">
        <ele>984.5999755859375</ele>
        <time>2020-08-20T13:15:01.000Z</time>
      </trkpt>
      <trkpt lat="42.88390849716961383819580078125" lon="-0.890765301883220672607421875">
        <ele>984.20001220703125</ele>
        <time>2020-08-20T13:15:02.000Z</time>
      </trkpt>
      <trkpt lat="42.88386776112020015716552734375" lon="-0.8909324370324611663818359375">
        <ele>983.4000244140625</ele>
        <time>2020-08-20T13:15:04.000Z</time>
      </trkpt>
      <trkpt lat="42.8838123567402362823486328125" lon="-0.89111633598804473876953125">
        <ele>982.5999755859375</ele>
        <time>2020-08-20T13:15:06.000Z</time>
      </trkpt>
      <trkpt lat="42.8837798349559307098388671875" lon="-0.89120996184647083282470703125">
        <ele>982.20001220703125</ele>
        <time>2020-08-20T13:15:07.000Z</time>
      </trkpt>
      <trkpt lat="42.88366793654859066009521484375" lon="-0.89147969149053096771240234375">
        <ele>980.79998779296875</ele>
        <time>2020-08-20T13:15:10.000Z</time>
      </trkpt>
      <trkpt lat="42.88362233899533748626708984375" lon="-0.8915687911212444305419921875">
        <ele>980.20001220703125</ele>
        <time>2020-08-20T13:15:11.000Z</time>
      </trkpt>
      <trkpt lat="42.88352913223206996917724609375" lon="-0.8917649276554584503173828125">
        <ele>979.5999755859375</ele>
        <time>2020-08-20T13:15:13.000Z</time>
      </trkpt>
      <trkpt lat="42.88344782777130603790283203125" lon="-0.89198512025177478790283203125">
        <ele>978.79998779296875</ele>
        <time>2020-08-20T13:15:15.000Z</time>
      </trkpt>
      <trkpt lat="42.8834113664925098419189453125" lon="-0.89210296981036663055419921875">
        <ele>978.5999755859375</ele>
        <time>2020-08-20T13:15:16.000Z</time>
      </trkpt>
      <trkpt lat="42.8833473287522792816162109375" lon="-0.89236062951385974884033203125">
        <ele>977.20001220703125</ele>
        <time>2020-08-20T13:15:18.000Z</time>
      </trkpt>
      <trkpt lat="42.8833253681659698486328125" lon="-0.89249758981168270111083984375">
        <ele>976.5999755859375</ele>
        <time>2020-08-20T13:15:19.000Z</time>
      </trkpt>
      <trkpt lat="42.8833087719976902008056640625" lon="-0.89263723231852054595947265625">
        <ele>976.20001220703125</ele>
        <time>2020-08-20T13:15:20.000Z</time>
      </trkpt>
      <trkpt lat="42.8832879848778247833251953125" lon="-0.89291207492351531982421875">
        <ele>974.20001220703125</ele>
        <time>2020-08-20T13:15:22.000Z</time>
      </trkpt>
      <trkpt lat="42.88326258771121501922607421875" lon="-0.8931784518063068389892578125">
        <ele>972.79998779296875</ele>
        <time>2020-08-20T13:15:24.000Z</time>
      </trkpt>
      <trkpt lat="42.883203327655792236328125" lon="-0.8934346027672290802001953125">
        <ele>971.5999755859375</ele>
        <time>2020-08-20T13:15:26.000Z</time>
      </trkpt>
      <trkpt lat="42.883109115064144134521484375" lon="-0.8936786837875843048095703125">
        <ele>970.20001220703125</ele>
        <time>2020-08-20T13:15:28.000Z</time>
      </trkpt>
      <trkpt lat="42.883064188063144683837890625" lon="-0.89379980228841304779052734375">
        <ele>969.4000244140625</ele>
        <time>2020-08-20T13:15:29.000Z</time>
      </trkpt>
      <trkpt lat="42.88303342647850513458251953125" lon="-0.89392234571278095245361328125">
        <ele>968.79998779296875</ele>
        <time>2020-08-20T13:15:30.000Z</time>
      </trkpt>
      <trkpt lat="42.88301481865346431732177734375" lon="-0.89405008591711521148681640625">
        <ele>968.20001220703125</ele>
        <time>2020-08-20T13:15:31.000Z</time>
      </trkpt>
      <trkpt lat="42.8830019943416118621826171875" lon="-0.8941802568733692169189453125">
        <ele>967.20001220703125</ele>
        <time>2020-08-20T13:15:32.000Z</time>
      </trkpt>
      <trkpt lat="42.8829580731689929962158203125" lon="-0.89452567510306835174560546875">
        <ele>965.79998779296875</ele>
        <time>2020-08-20T13:15:35.000Z</time>
      </trkpt>
      <trkpt lat="42.88287987001240253448486328125" lon="-0.89469985105097293853759765625">
        <ele>964.20001220703125</ele>
        <time>2020-08-20T13:15:37.000Z</time>
      </trkpt>
      <trkpt lat="42.8828199394047260284423828125" lon="-0.89477394707500934600830078125">
        <ele>963.5999755859375</ele>
        <time>2020-08-20T13:15:38.000Z</time>
      </trkpt>
      <trkpt lat="42.8827515430748462677001953125" lon="-0.89484351687133312225341796875">
        <ele>963</ele>
        <time>2020-08-20T13:15:39.000Z</time>
      </trkpt>
      <trkpt lat="42.88261332549154758453369140625" lon="-0.89498902671039104461669921875">
        <ele>961.4000244140625</ele>
        <time>2020-08-20T13:15:41.000Z</time>
      </trkpt>
      <trkpt lat="42.882538139820098876953125" lon="-0.895056836307048797607421875">
        <ele>960.4000244140625</ele>
        <time>2020-08-20T13:15:42.000Z</time>
      </trkpt>
      <trkpt lat="42.88245976902544498443603515625" lon="-0.89510746300220489501953125">
        <ele>959.79998779296875</ele>
        <time>2020-08-20T13:15:43.000Z</time>
      </trkpt>
      <trkpt lat="42.8822918795049190521240234375" lon="-0.89512950740754604339599609375">
        <ele>958.79998779296875</ele>
        <time>2020-08-20T13:15:45.000Z</time>
      </trkpt>
      <trkpt lat="42.88220495916903018951416015625" lon="-0.89510972611606121063232421875">
        <ele>958</ele>
        <time>2020-08-20T13:15:46.000Z</time>
      </trkpt>
      <trkpt lat="42.88211770355701446533203125" lon="-0.895082652568817138671875">
        <ele>957.20001220703125</ele>
        <time>2020-08-20T13:15:47.000Z</time>
      </trkpt>
      <trkpt lat="42.8820293582975864410400390625" lon="-0.89505541138350963592529296875">
        <ele>956</ele>
        <time>2020-08-20T13:15:48.000Z</time>
      </trkpt>
      <trkpt lat="42.8819401748478412628173828125" lon="-0.89502892456948757171630859375">
        <ele>955</ele>
        <time>2020-08-20T13:15:49.000Z</time>
      </trkpt>
      <trkpt lat="42.881755270063877105712890625" lon="-0.894967652857303619384765625">
        <ele>953.4000244140625</ele>
        <time>2020-08-20T13:15:51.000Z</time>
      </trkpt>
      <trkpt lat="42.88165963254868984222412109375" lon="-0.89492716826498508453369140625">
        <ele>952.4000244140625</ele>
        <time>2020-08-20T13:15:52.000Z</time>
      </trkpt>
      <trkpt lat="42.88156391121447086334228515625" lon="-0.8948746137320995330810546875">
        <ele>951.5999755859375</ele>
        <time>2020-08-20T13:15:53.000Z</time>
      </trkpt>
      <trkpt lat="42.8813678584992885589599609375" lon="-0.89474712498486042022705078125">
        <ele>950.20001220703125</ele>
        <time>2020-08-20T13:15:55.000Z</time>
      </trkpt>
      <trkpt lat="42.8812662698328495025634765625" lon="-0.8946870267391204833984375">
        <ele>949.4000244140625</ele>
        <time>2020-08-20T13:15:56.000Z</time>
      </trkpt>
      <trkpt lat="42.881161831319332122802734375" lon="-0.894633717834949493408203125">
        <ele>948.5999755859375</ele>
        <time>2020-08-20T13:15:57.000Z</time>
      </trkpt>
      <trkpt lat="42.88105563260614871978759765625" lon="-0.89458803646266460418701171875">
        <ele>947.4000244140625</ele>
        <time>2020-08-20T13:15:58.000Z</time>
      </trkpt>
      <trkpt lat="42.88084231317043304443359375" lon="-0.89451779611408710479736328125">
        <ele>946.20001220703125</ele>
        <time>2020-08-20T13:16:00.000Z</time>
      </trkpt>
      <trkpt lat="42.8806272335350513458251953125" lon="-0.89444939978420734405517578125">
        <ele>944.79998779296875</ele>
        <time>2020-08-20T13:16:02.000Z</time>
      </trkpt>
      <trkpt lat="42.88041944615542888641357421875" lon="-0.89434429071843624114990234375">
        <ele>943.5999755859375</ele>
        <time>2020-08-20T13:16:04.000Z</time>
      </trkpt>
      <trkpt lat="42.8802306018769741058349609375" lon="-0.89420414529740810394287109375">
        <ele>942.4000244140625</ele>
        <time>2020-08-20T13:16:06.000Z</time>
      </trkpt>
      <trkpt lat="42.8801370598375797271728515625" lon="-0.89412803761661052703857421875">
        <ele>941.20001220703125</ele>
        <time>2020-08-20T13:16:07.000Z</time>
      </trkpt>
      <trkpt lat="42.8799503110349178314208984375" lon="-0.8939841203391551971435546875">
        <ele>939.20001220703125</ele>
        <time>2020-08-20T13:16:09.000Z</time>
      </trkpt>
      <trkpt lat="42.87985836155712604522705078125" lon="-0.89392326772212982177734375">
        <ele>938.20001220703125</ele>
        <time>2020-08-20T13:16:10.000Z</time>
      </trkpt>
      <trkpt lat="42.87968183867633342742919921875" lon="-0.893810279667377471923828125">
        <ele>936.4000244140625</ele>
        <time>2020-08-20T13:16:12.000Z</time>
      </trkpt>
      <trkpt lat="42.87950984202325344085693359375" lon="-0.89370894245803356170654296875">
        <ele>935</ele>
        <time>2020-08-20T13:16:14.000Z</time>
      </trkpt>
      <trkpt lat="42.87934270687401294708251953125" lon="-0.89362864382565021514892578125">
        <ele>933.79998779296875</ele>
        <time>2020-08-20T13:16:16.000Z</time>
      </trkpt>
      <trkpt lat="42.87918764166533946990966796875" lon="-0.89361037127673625946044921875">
        <ele>933.20001220703125</ele>
        <time>2020-08-20T13:16:18.000Z</time>
      </trkpt>
      <trkpt lat="42.87911941297352313995361328125" lon="-0.89363601990044116973876953125">
        <ele>932.5999755859375</ele>
        <time>2020-08-20T13:16:19.000Z</time>
      </trkpt>
      <trkpt lat="42.8790675289928913116455078125" lon="-0.89368647895753383636474609375">
        <ele>932</ele>
        <time>2020-08-20T13:16:20.000Z</time>
      </trkpt>
      <trkpt lat="42.87903274409472942352294921875" lon="-0.893841125071048736572265625">
        <ele>931.20001220703125</ele>
        <time>2020-08-20T13:16:22.000Z</time>
      </trkpt>
      <trkpt lat="42.8790943510830402374267578125" lon="-0.8939827792346477508544921875">
        <ele>930.4000244140625</ele>
        <time>2020-08-20T13:16:24.000Z</time>
      </trkpt>
      <trkpt lat="42.879153192043304443359375" lon="-0.894019491970539093017578125">
        <ele>930</ele>
        <time>2020-08-20T13:16:25.000Z</time>
      </trkpt>
      <trkpt lat="42.8792867995798587799072265625" lon="-0.89403097517788410186767578125">
        <ele>929</ele>
        <time>2020-08-20T13:16:27.000Z</time>
      </trkpt>
      <trkpt lat="42.879432141780853271484375" lon="-0.89404488913714885711669921875">
        <ele>927.79998779296875</ele>
        <time>2020-08-20T13:16:29.000Z</time>
      </trkpt>
      <trkpt lat="42.8795070759952068328857421875" lon="-0.8940746448934078216552734375">
        <ele>927.20001220703125</ele>
        <time>2020-08-20T13:16:30.000Z</time>
      </trkpt>
      <trkpt lat="42.87964646704494953155517578125" lon="-0.8941665105521678924560546875">
        <ele>926.4000244140625</ele>
        <time>2020-08-20T13:16:32.000Z</time>
      </trkpt>
      <trkpt lat="42.8797796554863452911376953125" lon="-0.89428679086267948150634765625">
        <ele>925.5999755859375</ele>
        <time>2020-08-20T13:16:34.000Z</time>
      </trkpt>
      <trkpt lat="42.8798453696072101593017578125" lon="-0.89435233734548091888427734375">
        <ele>924.4000244140625</ele>
        <time>2020-08-20T13:16:35.000Z</time>
      </trkpt>
      <trkpt lat="42.87991351447999477386474609375" lon="-0.894421823322772979736328125">
        <ele>923</ele>
        <time>2020-08-20T13:16:36.000Z</time>
      </trkpt>
      <trkpt lat="42.8799808211624622344970703125" lon="-0.89449851773679256439208984375">
        <ele>921.79998779296875</ele>
        <time>2020-08-20T13:16:37.000Z</time>
      </trkpt>
      <trkpt lat="42.88011501543223857879638671875" lon="-0.89465953409671783447265625">
        <ele>920.20001220703125</ele>
        <time>2020-08-20T13:16:39.000Z</time>
      </trkpt>
      <trkpt lat="42.880244515836238861083984375" lon="-0.894849635660648345947265625">
        <ele>918.5999755859375</ele>
        <time>2020-08-20T13:16:41.000Z</time>
      </trkpt>
      <trkpt lat="42.88030595518648624420166015625" lon="-0.89495264925062656402587890625">
        <ele>917.4000244140625</ele>
        <time>2020-08-20T13:16:42.000Z</time>
      </trkpt>
      <trkpt lat="42.8803616948425769805908203125" lon="-0.8950598537921905517578125">
        <ele>916.5999755859375</ele>
        <time>2020-08-20T13:16:43.000Z</time>
      </trkpt>
      <trkpt lat="42.8804079629480838775634765625" lon="-0.89517208747565746307373046875">
        <ele>915.5999755859375</ele>
        <time>2020-08-20T13:16:44.000Z</time>
      </trkpt>
      <trkpt lat="42.88050276227295398712158203125" lon="-0.89550920762121677398681640625">
        <ele>914.20001220703125</ele>
        <time>2020-08-20T13:16:47.000Z</time>
      </trkpt>
      <trkpt lat="42.88053377531468868255615234375" lon="-0.89561901055276393890380859375">
        <ele>913.5999755859375</ele>
        <time>2020-08-20T13:16:48.000Z</time>
      </trkpt>
      <trkpt lat="42.88056604564189910888671875" lon="-0.8957188390195369720458984375">
        <ele>912.79998779296875</ele>
        <time>2020-08-20T13:16:49.000Z</time>
      </trkpt>
      <trkpt lat="42.88060535676777362823486328125" lon="-0.8957993052899837493896484375">
        <ele>911.5999755859375</ele>
        <time>2020-08-20T13:16:50.000Z</time>
      </trkpt>
      <trkpt lat="42.88065715692937374114990234375" lon="-0.895854793488979339599609375">
        <ele>910.79998779296875</ele>
        <time>2020-08-20T13:16:51.000Z</time>
      </trkpt>
      <trkpt lat="42.88071197457611560821533203125" lon="-0.89587935246527194976806640625">
        <ele>909.79998779296875</ele>
        <time>2020-08-20T13:16:52.000Z</time>
      </trkpt>
      <trkpt lat="42.8808240406215190887451171875" lon="-0.89585714042186737060546875">
        <ele>908.79998779296875</ele>
        <time>2020-08-20T13:16:54.000Z</time>
      </trkpt>
      <trkpt lat="42.8810245357453823089599609375" lon="-0.89581824839115142822265625">
        <ele>907.20001220703125</ele>
        <time>2020-08-20T13:16:57.000Z</time>
      </trkpt>
      <trkpt lat="42.88110114634037017822265625" lon="-0.89582017622888088226318359375">
        <ele>906.5999755859375</ele>
        <time>2020-08-20T13:16:58.000Z</time>
      </trkpt>
      <trkpt lat="42.881180606782436370849609375" lon="-0.8958345092833042144775390625">
        <ele>906.20001220703125</ele>
        <time>2020-08-20T13:16:59.000Z</time>
      </trkpt>
      <trkpt lat="42.88134413771331310272216796875" lon="-0.89590718038380146026611328125">
        <ele>905.4000244140625</ele>
        <time>2020-08-20T13:17:01.000Z</time>
      </trkpt>
      <trkpt lat="42.881427370011806488037109375" lon="-0.89595562778413295745849609375">
        <ele>905</ele>
        <time>2020-08-20T13:17:02.000Z</time>
      </trkpt>
      <trkpt lat="42.88151420652866363525390625" lon="-0.8960071764886379241943359375">
        <ele>904</ele>
        <time>2020-08-20T13:17:03.000Z</time>
      </trkpt>
      <trkpt lat="42.88169500418007373809814453125" lon="-0.89611941017210483551025390625">
        <ele>902.5999755859375</ele>
        <time>2020-08-20T13:17:05.000Z</time>
      </trkpt>
      <trkpt lat="42.88187689147889614105224609375" lon="-0.89623759500682353973388671875">
        <ele>901</ele>
        <time>2020-08-20T13:17:07.000Z</time>
      </trkpt>
      <trkpt lat="42.8819663263857364654541015625" lon="-0.89629744179546833038330078125">
        <ele>900</ele>
        <time>2020-08-20T13:17:08.000Z</time>
      </trkpt>
      <trkpt lat="42.88214561529457569122314453125" lon="-0.89642082341015338897705078125">
        <ele>898.79998779296875</ele>
        <time>2020-08-20T13:17:10.000Z</time>
      </trkpt>
      <trkpt lat="42.8823247365653514862060546875" lon="-0.89654101990163326263427734375">
        <ele>897.5999755859375</ele>
        <time>2020-08-20T13:17:12.000Z</time>
      </trkpt>
      <trkpt lat="42.8824885189533233642578125" lon="-0.89666071347892284393310546875">
        <ele>896</ele>
        <time>2020-08-20T13:17:14.000Z</time>
      </trkpt>
      <trkpt lat="42.88256160914897918701171875" lon="-0.8967193029820919036865234375">
        <ele>895.4000244140625</ele>
        <time>2020-08-20T13:17:15.000Z</time>
      </trkpt>
      <trkpt lat="42.88262841291725635528564453125" lon="-0.896782837808132171630859375">
        <ele>894.20001220703125</ele>
        <time>2020-08-20T13:17:16.000Z</time>
      </trkpt>
      <trkpt lat="42.882740311324596405029296875" lon="-0.89692893438041210174560546875">
        <ele>892.79998779296875</ele>
        <time>2020-08-20T13:17:18.000Z</time>
      </trkpt>
      <trkpt lat="42.882784903049468994140625" lon="-0.89700512588024139404296875">
        <ele>891.5999755859375</ele>
        <time>2020-08-20T13:17:19.000Z</time>
      </trkpt>
      <trkpt lat="42.8828229568898677825927734375" lon="-0.897079892456531524658203125">
        <ele>890.5999755859375</ele>
        <time>2020-08-20T13:17:20.000Z</time>
      </trkpt>
      <trkpt lat="42.882875762879848480224609375" lon="-0.89723152108490467071533203125">
        <ele>889.20001220703125</ele>
        <time>2020-08-20T13:17:22.000Z</time>
      </trkpt>
      <trkpt lat="42.8828910179436206817626953125" lon="-0.8972986601293087005615234375">
        <ele>888.79998779296875</ele>
        <time>2020-08-20T13:17:23.000Z</time>
      </trkpt>
      <trkpt lat="42.88290359079837799072265625" lon="-0.89739949442446231842041015625">
        <ele>887.79998779296875</ele>
        <time>2020-08-20T13:17:25.000Z</time>
      </trkpt>
      <trkpt lat="42.88290300406515598297119140625" lon="-0.89746705256402492523193359375">
        <ele>887.79998779296875</ele>
        <time>2020-08-20T13:17:27.000Z</time>
      </trkpt>
      <trkpt lat="42.8828289918601512908935546875" lon="-0.8976067788898944854736328125">
        <ele>887.5999755859375</ele>
        <time>2020-08-20T13:17:31.000Z</time>
      </trkpt>
      <trkpt lat="42.882716171443462371826171875" lon="-0.8976855687797069549560546875">
        <ele>887</ele>
        <time>2020-08-20T13:17:34.000Z</time>
      </trkpt>
      <trkpt lat="42.882678620517253875732421875" lon="-0.89771968312561511993408203125">
        <ele>886.79998779296875</ele>
        <time>2020-08-20T13:17:35.000Z</time>
      </trkpt>
      <trkpt lat="42.88263947702944278717041015625" lon="-0.897754132747650146484375">
        <ele>886.79998779296875</ele>
        <time>2020-08-20T13:17:36.000Z</time>
      </trkpt>
      <trkpt lat="42.88229875266551971435546875" lon="-0.8980585634708404541015625">
        <ele>886.4000244140625</ele>
        <time>2020-08-20T13:17:44.000Z</time>
      </trkpt>
      <trkpt lat="42.882110662758350372314453125" lon="-0.898231901228427886962890625">
        <ele>886</ele>
        <time>2020-08-20T13:17:48.000Z</time>
      </trkpt>
      <trkpt lat="42.88196674548089504241943359375" lon="-0.898367352783679962158203125">
        <ele>885.4000244140625</ele>
        <time>2020-08-20T13:17:51.000Z</time>
      </trkpt>
      <trkpt lat="42.8818704374134540557861328125" lon="-0.8984613977372646331787109375">
        <ele>885</ele>
        <time>2020-08-20T13:17:53.000Z</time>
      </trkpt>
      <trkpt lat="42.88154882378876209259033203125" lon="-0.8988208137452602386474609375">
        <ele>883.79998779296875</ele>
        <time>2020-08-20T13:18:00.000Z</time>
      </trkpt>
      <trkpt lat="42.881192676723003387451171875" lon="-0.89925684034824371337890625">
        <ele>883.5999755859375</ele>
        <time>2020-08-20T13:18:08.000Z</time>
      </trkpt>
      <trkpt lat="42.88110391236841678619384765625" lon="-0.89937058277428150177001953125">
        <ele>882.5999755859375</ele>
        <time>2020-08-20T13:18:10.000Z</time>
      </trkpt>
      <trkpt lat="42.88084658794105052947998046875" lon="-0.89973486028611660003662109375">
        <ele>882</ele>
        <time>2020-08-20T13:18:16.000Z</time>
      </trkpt>
      <trkpt lat="42.88058884441852569580078125" lon="-0.90011690743267536163330078125">
        <ele>881</ele>
        <time>2020-08-20T13:18:22.000Z</time>
      </trkpt>
      <trkpt lat="42.88055003620684146881103515625" lon="-0.9001786820590496063232421875">
        <ele>880.4000244140625</ele>
        <time>2020-08-20T13:18:23.000Z</time>
      </trkpt>
      <trkpt lat="42.880231440067291259765625" lon="-0.9006520919501781463623046875">
        <ele>880.79998779296875</ele>
        <time>2020-08-20T13:18:31.000Z</time>
      </trkpt>
      <trkpt lat="42.87994779646396636962890625" lon="-0.90096515603363513946533203125">
        <ele>880</ele>
        <time>2020-08-20T13:18:37.000Z</time>
      </trkpt>
      <trkpt lat="42.87958594970405101776123046875" lon="-0.90130059979856014251708984375">
        <ele>879.4000244140625</ele>
        <time>2020-08-20T13:18:45.000Z</time>
      </trkpt>
      <trkpt lat="42.87949374876916408538818359375" lon="-0.90138039551675319671630859375">
        <ele>879.20001220703125</ele>
        <time>2020-08-20T13:18:47.000Z</time>
      </trkpt>
      <trkpt lat="42.87916400469839572906494140625" lon="-0.90162782929837703704833984375">
        <ele>879.4000244140625</ele>
        <time>2020-08-20T13:18:54.000Z</time>
      </trkpt>
      <trkpt lat="42.87872512824833393096923828125" lon="-0.90190577320754528045654296875">
        <ele>878.5999755859375</ele>
        <time>2020-08-20T13:19:03.000Z</time>
      </trkpt>
      <trkpt lat="42.87836839444935321807861328125" lon="-0.90211381204426288604736328125">
        <ele>878.20001220703125</ele>
        <time>2020-08-20T13:19:10.000Z</time>
      </trkpt>
      <trkpt lat="42.8782586753368377685546875" lon="-0.9021789394319057464599609375">
        <ele>877.79998779296875</ele>
        <time>2020-08-20T13:19:12.000Z</time>
      </trkpt>
      <trkpt lat="42.8780985809862613677978515625" lon="-0.90228664688766002655029296875">
        <ele>877.20001220703125</ele>
        <time>2020-08-20T13:19:15.000Z</time>
      </trkpt>
      <trkpt lat="42.87789749912917613983154296875" lon="-0.90246367268264293670654296875">
        <ele>876.5999755859375</ele>
        <time>2020-08-20T13:19:19.000Z</time>
      </trkpt>
      <trkpt lat="42.877755425870418548583984375" lon="-0.90260951779782772064208984375">
        <ele>876.20001220703125</ele>
        <time>2020-08-20T13:19:22.000Z</time>
      </trkpt>
      <trkpt lat="42.8775130212306976318359375" lon="-0.90286751277744770050048828125">
        <ele>876</ele>
        <time>2020-08-20T13:19:27.000Z</time>
      </trkpt>
      <trkpt lat="42.87718587554991245269775390625" lon="-0.9032417647540569305419921875">
        <ele>875.20001220703125</ele>
        <time>2020-08-20T13:19:34.000Z</time>
      </trkpt>
      <trkpt lat="42.87708831019699573516845703125" lon="-0.90333086438477039337158203125">
        <ele>875</ele>
        <time>2020-08-20T13:19:36.000Z</time>
      </trkpt>
      <trkpt lat="42.87687356583774089813232421875" lon="-0.903491713106632232666015625">
        <ele>874</ele>
        <time>2020-08-20T13:19:40.000Z</time>
      </trkpt>
      <trkpt lat="42.87670022808015346527099609375" lon="-0.9035973250865936279296875">
        <ele>873.20001220703125</ele>
        <time>2020-08-20T13:19:43.000Z</time>
      </trkpt>
      <trkpt lat="42.8766438178718090057373046875" lon="-0.903633534908294677734375">
        <ele>873</ele>
        <time>2020-08-20T13:19:44.000Z</time>
      </trkpt>
      <trkpt lat="42.87639529444277286529541015625" lon="-0.90385825373232364654541015625">
        <ele>872.4000244140625</ele>
        <time>2020-08-20T13:19:49.000Z</time>
      </trkpt>
      <trkpt lat="42.8763517923653125762939453125" lon="-0.9039066173136234283447265625">
        <ele>872</ele>
        <time>2020-08-20T13:19:50.000Z</time>
      </trkpt>
      <trkpt lat="42.8761580027639865875244140625" lon="-0.904164277017116546630859375">
        <ele>870.79998779296875</ele>
        <time>2020-08-20T13:19:55.000Z</time>
      </trkpt>
      <trkpt lat="42.87611936219036579132080078125" lon="-0.9042231179773807525634765625">
        <ele>870.4000244140625</ele>
        <time>2020-08-20T13:19:56.000Z</time>
      </trkpt>
      <trkpt lat="42.8758301027119159698486328125" lon="-0.90463391505181789398193359375">
        <ele>869.79998779296875</ele>
        <time>2020-08-20T13:20:03.000Z</time>
      </trkpt>
      <trkpt lat="42.87570496089756488800048828125" lon="-0.9048246033489704132080078125">
        <ele>869.20001220703125</ele>
        <time>2020-08-20T13:20:06.000Z</time>
      </trkpt>
      <trkpt lat="42.87545375525951385498046875" lon="-0.905199944972991943359375">
        <ele>869</ele>
        <time>2020-08-20T13:20:12.000Z</time>
      </trkpt>
      <trkpt lat="42.87532727234065532684326171875" lon="-0.90536917559802532196044921875">
        <ele>868.5999755859375</ele>
        <time>2020-08-20T13:20:15.000Z</time>
      </trkpt>
      <trkpt lat="42.874982021749019622802734375" lon="-0.90587913058698177337646484375">
        <ele>868.20001220703125</ele>
        <time>2020-08-20T13:20:24.000Z</time>
      </trkpt>
      <trkpt lat="42.87483274005353450775146484375" lon="-0.9060979820787906646728515625">
        <ele>867.5999755859375</ele>
        <time>2020-08-20T13:20:28.000Z</time>
      </trkpt>
      <trkpt lat="42.87467859685420989990234375" lon="-0.9063252992928028106689453125">
        <ele>867.20001220703125</ele>
        <time>2020-08-20T13:20:32.000Z</time>
      </trkpt>
      <trkpt lat="42.87452093325555324554443359375" lon="-0.90654909610748291015625">
        <ele>866.5999755859375</ele>
        <time>2020-08-20T13:20:36.000Z</time>
      </trkpt>
      <trkpt lat="42.8743733279407024383544921875" lon="-0.906767360866069793701171875">
        <ele>866</ele>
        <time>2020-08-20T13:20:40.000Z</time>
      </trkpt>
      <trkpt lat="42.87422236986458301544189453125" lon="-0.90699107386171817779541015625">
        <ele>865.4000244140625</ele>
        <time>2020-08-20T13:20:44.000Z</time>
      </trkpt>
      <trkpt lat="42.874105609953403472900390625" lon="-0.907160975039005279541015625">
        <ele>864.20001220703125</ele>
        <time>2020-08-20T13:20:47.000Z</time>
      </trkpt>
      <trkpt lat="42.8739958070218563079833984375" lon="-0.9073267690837383270263671875">
        <ele>863.4000244140625</ele>
        <time>2020-08-20T13:20:50.000Z</time>
      </trkpt>
      <trkpt lat="42.87388323806226253509521484375" lon="-0.9074811637401580810546875">
        <ele>863.20001220703125</ele>
        <time>2020-08-20T13:20:53.000Z</time>
      </trkpt>
      <trkpt lat="42.87371090613305568695068359375" lon="-0.90763740241527557373046875">
        <ele>862.79998779296875</ele>
        <time>2020-08-20T13:20:57.000Z</time>
      </trkpt>
      <trkpt lat="42.873424328863620758056640625" lon="-0.90773957781493663787841796875">
        <ele>862.79998779296875</ele>
        <time>2020-08-20T13:21:03.000Z</time>
      </trkpt>
      <trkpt lat="42.8730124421417713165283203125" lon="-0.9077837504446506500244140625">
        <ele>862.4000244140625</ele>
        <time>2020-08-20T13:21:11.000Z</time>
      </trkpt>
      <trkpt lat="42.8729111887514591217041015625" lon="-0.90780847705900669097900390625">
        <ele>862.20001220703125</ele>
        <time>2020-08-20T13:21:13.000Z</time>
      </trkpt>
      <trkpt lat="42.87277515046298503875732421875" lon="-0.907885842025279998779296875">
        <ele>862</ele>
        <time>2020-08-20T13:21:16.000Z</time>
      </trkpt>
      <trkpt lat="42.87273391149938106536865234375" lon="-0.907923392951488494873046875">
        <ele>862.20001220703125</ele>
        <time>2020-08-20T13:21:17.000Z</time>
      </trkpt>
      <trkpt lat="42.87250064313411712646484375" lon="-0.908187925815582275390625">
        <ele>862.5999755859375</ele>
        <time>2020-08-20T13:21:23.000Z</time>
      </trkpt>
      <trkpt lat="42.8722022473812103271484375" lon="-0.9084056876599788665771484375">
        <ele>862.79998779296875</ele>
        <time>2020-08-20T13:21:29.000Z</time>
      </trkpt>
      <trkpt lat="42.87168784998357295989990234375" lon="-0.9086708910763263702392578125">
        <ele>862.20001220703125</ele>
        <time>2020-08-20T13:21:38.000Z</time>
      </trkpt>
      <trkpt lat="42.871515937149524688720703125" lon="-0.90864230878651142120361328125">
        <ele>861.79998779296875</ele>
        <time>2020-08-20T13:21:41.000Z</time>
      </trkpt>
      <trkpt lat="42.87142817862331867218017578125" lon="-0.9085421450436115264892578125">
        <ele>861.4000244140625</ele>
        <time>2020-08-20T13:21:43.000Z</time>
      </trkpt>
      <trkpt lat="42.87138325162231922149658203125" lon="-0.9084945358335971832275390625">
        <ele>861.4000244140625</ele>
        <time>2020-08-20T13:21:44.000Z</time>
      </trkpt>
      <trkpt lat="42.8713332116603851318359375" lon="-0.90846109203994274139404296875">
        <ele>861.20001220703125</ele>
        <time>2020-08-20T13:21:45.000Z</time>
      </trkpt>
      <trkpt lat="42.87111603654921054840087890625" lon="-0.90844810009002685546875">
        <ele>861.79998779296875</ele>
        <time>2020-08-20T13:21:49.000Z</time>
      </trkpt>
      <trkpt lat="42.870908081531524658203125" lon="-0.90850803069770336151123046875">
        <ele>862</ele>
        <time>2020-08-20T13:21:53.000Z</time>
      </trkpt>
      <trkpt lat="42.87086659111082553863525390625" lon="-0.9085257165133953094482421875">
        <ele>861.79998779296875</ele>
        <time>2020-08-20T13:21:54.000Z</time>
      </trkpt>
      <trkpt lat="42.870693504810333251953125" lon="-0.90864851139485836029052734375">
        <ele>861.4000244140625</ele>
        <time>2020-08-20T13:21:58.000Z</time>
      </trkpt>
      <trkpt lat="42.8704405389726161956787109375" lon="-0.90891488827764987945556640625">
        <ele>861.20001220703125</ele>
        <time>2020-08-20T13:22:04.000Z</time>
      </trkpt>
      <trkpt lat="42.87020743824541568756103515625" lon="-0.9091548621654510498046875">
        <ele>860.79998779296875</ele>
        <time>2020-08-20T13:22:09.000Z</time>
      </trkpt>
      <trkpt lat="42.87016636691987514495849609375" lon="-0.90921244584023952484130859375">
        <ele>860.5999755859375</ele>
        <time>2020-08-20T13:22:10.000Z</time>
      </trkpt>
      <trkpt lat="42.86998498253524303436279296875" lon="-0.90950933285057544708251953125">
        <ele>859.4000244140625</ele>
        <time>2020-08-20T13:22:15.000Z</time>
      </trkpt>
      <trkpt lat="42.8699523769319057464599609375" lon="-0.90956834144890308380126953125">
        <ele>859.20001220703125</ele>
        <time>2020-08-20T13:22:16.000Z</time>
      </trkpt>
      <trkpt lat="42.869815416634082794189453125" lon="-0.90982206165790557861328125">
        <ele>858.20001220703125</ele>
        <time>2020-08-20T13:22:20.000Z</time>
      </trkpt>
      <trkpt lat="42.86975380964577198028564453125" lon="-0.9099648892879486083984375">
        <ele>857.79998779296875</ele>
        <time>2020-08-20T13:22:22.000Z</time>
      </trkpt>
      <trkpt lat="42.86971055902540683746337890625" lon="-0.91013059951364994049072265625">
        <ele>857.20001220703125</ele>
        <time>2020-08-20T13:22:24.000Z</time>
      </trkpt>
      <trkpt lat="42.86965708248317241668701171875" lon="-0.9102922864258289337158203125">
        <ele>856.20001220703125</ele>
        <time>2020-08-20T13:22:26.000Z</time>
      </trkpt>
      <trkpt lat="42.869592793285846710205078125" lon="-0.91045212931931018829345703125">
        <ele>855</ele>
        <time>2020-08-20T13:22:28.000Z</time>
      </trkpt>
      <trkpt lat="42.8695617802441120147705078125" lon="-0.9105335175991058349609375">
        <ele>854.5999755859375</ele>
        <time>2020-08-20T13:22:29.000Z</time>
      </trkpt>
      <trkpt lat="42.869531102478504180908203125" lon="-0.91061624698340892791748046875">
        <ele>854</ele>
        <time>2020-08-20T13:22:30.000Z</time>
      </trkpt>
      <trkpt lat="42.86943881772458553314208984375" lon="-0.91087323613464832305908203125">
        <ele>852.79998779296875</ele>
        <time>2020-08-20T13:22:33.000Z</time>
      </trkpt>
      <trkpt lat="42.869374863803386688232421875" lon="-0.91105076484382152557373046875">
        <ele>851.5999755859375</ele>
        <time>2020-08-20T13:22:35.000Z</time>
      </trkpt>
      <trkpt lat="42.86934175528585910797119140625" lon="-0.91114179231226444244384765625">
        <ele>850.5999755859375</ele>
        <time>2020-08-20T13:22:36.000Z</time>
      </trkpt>
      <trkpt lat="42.86928693763911724090576171875" lon="-0.91133189387619495391845703125">
        <ele>849.5999755859375</ele>
        <time>2020-08-20T13:22:38.000Z</time>
      </trkpt>
      <trkpt lat="42.86924854852259159088134765625" lon="-0.9116320498287677764892578125">
        <ele>848.20001220703125</ele>
        <time>2020-08-20T13:22:41.000Z</time>
      </trkpt>
      <trkpt lat="42.8692275099456310272216796875" lon="-0.9118325449526309967041015625">
        <ele>847.20001220703125</ele>
        <time>2020-08-20T13:22:43.000Z</time>
      </trkpt>
      <trkpt lat="42.86919213831424713134765625" lon="-0.91223915107548236846923828125">
        <ele>845.79998779296875</ele>
        <time>2020-08-20T13:22:47.000Z</time>
      </trkpt>
      <trkpt lat="42.869162969291210174560546875" lon="-0.9125346131622791290283203125">
        <ele>844.5999755859375</ele>
        <time>2020-08-20T13:22:50.000Z</time>
      </trkpt>
      <trkpt lat="42.86915567703545093536376953125" lon="-0.9126328490674495697021484375">
        <ele>844.20001220703125</ele>
        <time>2020-08-20T13:22:51.000Z</time>
      </trkpt>
      <trkpt lat="42.86914427764713764190673828125" lon="-0.91283150017261505126953125">
        <ele>843.4000244140625</ele>
        <time>2020-08-20T13:22:53.000Z</time>
      </trkpt>
      <trkpt lat="42.8691242448985576629638671875" lon="-0.91313484124839305877685546875">
        <ele>842.4000244140625</ele>
        <time>2020-08-20T13:22:56.000Z</time>
      </trkpt>
      <trkpt lat="42.8691014461219310760498046875" lon="-0.9134358353912830352783203125">
        <ele>841.79998779296875</ele>
        <time>2020-08-20T13:22:59.000Z</time>
      </trkpt>
      <trkpt lat="42.869085855782032012939453125" lon="-0.91363188810646533966064453125">
        <ele>841.20001220703125</ele>
        <time>2020-08-20T13:23:01.000Z</time>
      </trkpt>
      <trkpt lat="42.86904972977936267852783203125" lon="-0.914202444255352020263671875">
        <ele>840</ele>
        <time>2020-08-20T13:23:07.000Z</time>
      </trkpt>
      <trkpt lat="42.8690162859857082366943359375" lon="-0.9145626984536647796630859375">
        <ele>838.5999755859375</ele>
        <time>2020-08-20T13:23:11.000Z</time>
      </trkpt>
      <trkpt lat="42.86900228820741176605224609375" lon="-0.9146480262279510498046875">
        <ele>838.5999755859375</ele>
        <time>2020-08-20T13:23:12.000Z</time>
      </trkpt>
      <trkpt lat="42.86898099817335605621337890625" lon="-0.91473008506000041961669921875">
        <ele>838.20001220703125</ele>
        <time>2020-08-20T13:23:13.000Z</time>
      </trkpt>
      <trkpt lat="42.86890623159706592559814453125" lon="-0.91486888937652111053466796875">
        <ele>837.79998779296875</ele>
        <time>2020-08-20T13:23:15.000Z</time>
      </trkpt>
      <trkpt lat="42.86884956993162631988525390625" lon="-0.91491029597818851470947265625">
        <ele>837.5999755859375</ele>
        <time>2020-08-20T13:23:16.000Z</time>
      </trkpt>
      <trkpt lat="42.8687256015837192535400390625" lon="-0.91493778862059116363525390625">
        <ele>837</ele>
        <time>2020-08-20T13:23:18.000Z</time>
      </trkpt>
      <trkpt lat="42.86866617389023303985595703125" lon="-0.91494667343795299530029296875">
        <ele>836.4000244140625</ele>
        <time>2020-08-20T13:23:19.000Z</time>
      </trkpt>
      <trkpt lat="42.8686112724244594573974609375" lon="-0.91496343724429607391357421875">
        <ele>836.20001220703125</ele>
        <time>2020-08-20T13:23:20.000Z</time>
      </trkpt>
      <trkpt lat="42.8684900701045989990234375" lon="-0.915077514946460723876953125">
        <ele>835.5999755859375</ele>
        <time>2020-08-20T13:23:23.000Z</time>
      </trkpt>
      <trkpt lat="42.868438772857189178466796875" lon="-0.9151804447174072265625">
        <ele>835.79998779296875</ele>
        <time>2020-08-20T13:23:25.000Z</time>
      </trkpt>
      <trkpt lat="42.86834212951362133026123046875" lon="-0.9153874777257442474365234375">
        <ele>835.5999755859375</ele>
        <time>2020-08-20T13:23:29.000Z</time>
      </trkpt>
      <trkpt lat="42.86829686723649501800537109375" lon="-0.91548630036413669586181640625">
        <ele>835.5999755859375</ele>
        <time>2020-08-20T13:23:31.000Z</time>
      </trkpt>
      <trkpt lat="42.868209443986415863037109375" lon="-0.9156825207173824310302734375">
        <ele>835.79998779296875</ele>
        <time>2020-08-20T13:23:35.000Z</time>
      </trkpt>
      <trkpt lat="42.8681858070194721221923828125" lon="-0.9157267771661281585693359375">
        <ele>836</ele>
        <time>2020-08-20T13:23:36.000Z</time>
      </trkpt>
      <trkpt lat="42.86798036657273769378662109375" lon="-0.9160617180168628692626953125">
        <ele>837</ele>
        <time>2020-08-20T13:23:44.000Z</time>
      </trkpt>
      <trkpt lat="42.8678857348859310150146484375" lon="-0.91616707853972911834716796875">
        <ele>836.79998779296875</ele>
        <time>2020-08-20T13:23:47.000Z</time>
      </trkpt>
      <trkpt lat="42.86770996637642383575439453125" lon="-0.9163078106939792633056640625">
        <ele>837</ele>
        <time>2020-08-20T13:23:52.000Z</time>
      </trkpt>
      <trkpt lat="42.8674227185547351837158203125" lon="-0.9164962358772754669189453125">
        <ele>838</ele>
        <time>2020-08-20T13:23:59.000Z</time>
      </trkpt>
      <trkpt lat="42.86724678240716457366943359375" lon="-0.91660561971366405487060546875">
        <ele>839.20001220703125</ele>
        <time>2020-08-20T13:24:03.000Z</time>
      </trkpt>
      <trkpt lat="42.86711786873638629913330078125" lon="-0.91668591834604740142822265625">
        <ele>839.79998779296875</ele>
        <time>2020-08-20T13:24:06.000Z</time>
      </trkpt>
      <trkpt lat="42.866913937032222747802734375" lon="-0.91684232465922832489013671875">
        <ele>839.79998779296875</ele>
        <time>2020-08-20T13:24:11.000Z</time>
      </trkpt>
      <trkpt lat="42.86658025346696376800537109375" lon="-0.9170276485383510589599609375">
        <ele>839.4000244140625</ele>
        <time>2020-08-20T13:24:19.000Z</time>
      </trkpt>
      <trkpt lat="42.86624983884394168853759765625" lon="-0.91723174788057804107666015625">
        <ele>839.20001220703125</ele>
        <time>2020-08-20T13:24:27.000Z</time>
      </trkpt>
      <trkpt lat="42.8660143911838531494140625" lon="-0.9174313209950923919677734375">
        <ele>839</ele>
        <time>2020-08-20T13:24:33.000Z</time>
      </trkpt>
      <trkpt lat="42.86594373174011707305908203125" lon="-0.91751606203615665435791015625">
        <ele>838.79998779296875</ele>
        <time>2020-08-20T13:24:35.000Z</time>
      </trkpt>
      <trkpt lat="42.86580861546099185943603515625" lon="-0.91768361628055572509765625">
        <ele>838.5999755859375</ele>
        <time>2020-08-20T13:24:39.000Z</time>
      </trkpt>
      <trkpt lat="42.8656437434256076812744140625" lon="-0.9178836084902286529541015625">
        <ele>838.5999755859375</ele>
        <time>2020-08-20T13:24:44.000Z</time>
      </trkpt>
      <trkpt lat="42.8652803041040897369384765625" lon="-0.9182731993496417999267578125">
        <ele>838.5999755859375</ele>
        <time>2020-08-20T13:24:54.000Z</time>
      </trkpt>
      <trkpt lat="42.8650151006877422332763671875" lon="-0.91863940469920635223388671875">
        <ele>838.79998779296875</ele>
        <time>2020-08-20T13:25:02.000Z</time>
      </trkpt>
      <trkpt lat="42.86483581177890300750732421875" lon="-0.91892338357865810394287109375">
        <ele>839</ele>
        <time>2020-08-20T13:25:08.000Z</time>
      </trkpt>
      <trkpt lat="42.86460564471781253814697265625" lon="-0.9192129783332347869873046875">
        <ele>839.20001220703125</ele>
        <time>2020-08-20T13:25:15.000Z</time>
      </trkpt>
      <trkpt lat="42.864265926182270050048828125" lon="-0.91957331635057926177978515625">
        <ele>840.4000244140625</ele>
        <time>2020-08-20T13:25:24.000Z</time>
      </trkpt>
      <trkpt lat="42.8640215098857879638671875" lon="-0.91984287835657596588134765625">
        <ele>841.4000244140625</ele>
        <time>2020-08-20T13:25:30.000Z</time>
      </trkpt>
      <trkpt lat="42.86379461176693439483642578125" lon="-0.92014227993786334991455078125">
        <ele>840.5999755859375</ele>
        <time>2020-08-20T13:25:36.000Z</time>
      </trkpt>
      <trkpt lat="42.8637115471065044403076171875" lon="-0.9203522466123104095458984375">
        <ele>841.4000244140625</ele>
        <time>2020-08-20T13:25:40.000Z</time>
      </trkpt>
      <trkpt lat="42.86368296481668949127197265625" lon="-0.92046297155320644378662109375">
        <ele>841.5999755859375</ele>
        <time>2020-08-20T13:25:42.000Z</time>
      </trkpt>
      <trkpt lat="42.8636693023145198822021484375" lon="-0.92051879502832889556884765625">
        <ele>841.79998779296875</ele>
        <time>2020-08-20T13:25:43.000Z</time>
      </trkpt>
      <trkpt lat="42.86355857737362384796142578125" lon="-0.9210355393588542938232421875">
        <ele>841.79998779296875</ele>
        <time>2020-08-20T13:25:52.000Z</time>
      </trkpt>
      <trkpt lat="42.8634530492126941680908203125" lon="-0.92133234255015850067138671875">
        <ele>842</ele>
        <time>2020-08-20T13:25:58.000Z</time>
      </trkpt>
      <trkpt lat="42.8632968105375766754150390625" lon="-0.92146192677319049835205078125">
        <ele>842.79998779296875</ele>
        <time>2020-08-20T13:26:03.000Z</time>
      </trkpt>
      <trkpt lat="42.86322615109384059906005859375" lon="-0.92149260453879833221435546875">
        <ele>843</ele>
        <time>2020-08-20T13:26:05.000Z</time>
      </trkpt>
      <trkpt lat="42.8629915416240692138671875" lon="-0.92157843522727489471435546875">
        <ele>842.20001220703125</ele>
        <time>2020-08-20T13:26:12.000Z</time>
      </trkpt>
      <trkpt lat="42.86292792297899723052978515625" lon="-0.92161263339221477508544921875">
        <ele>842</ele>
        <time>2020-08-20T13:26:14.000Z</time>
      </trkpt>
      <trkpt lat="42.86279683001339435577392578125" lon="-0.921743810176849365234375">
        <ele>841.4000244140625</ele>
        <time>2020-08-20T13:26:19.000Z</time>
      </trkpt>
      <trkpt lat="42.86265366710722446441650390625" lon="-0.92189862392842769622802734375">
        <ele>842.5999755859375</ele>
        <time>2020-08-20T13:26:27.000Z</time>
      </trkpt>
      <trkpt lat="42.8626487217843532562255859375" lon="-0.92190348543226718902587890625">
        <ele>842.5999755859375</ele>
        <time>2020-08-20T13:26:29.000Z</time>
      </trkpt>
      <trkpt lat="42.86264796741306781768798828125" lon="-0.9219062514603137969970703125">
        <ele>844.20001220703125</ele>
        <time>2020-08-20T13:27:29.000Z</time>
      </trkpt>
      <trkpt lat="42.86262902431190013885498046875" lon="-0.9219250269234180450439453125">
        <ele>844</ele>
        <time>2020-08-20T13:27:32.000Z</time>
      </trkpt>
      <trkpt lat="42.8625421039760112762451171875" lon="-0.92202234081923961639404296875">
        <ele>844.4000244140625</ele>
        <time>2020-08-20T13:27:38.000Z</time>
      </trkpt>
      <trkpt lat="42.8624066524207592010498046875" lon="-0.9221392683684825897216796875">
        <ele>845.5999755859375</ele>
        <time>2020-08-20T13:27:45.000Z</time>
      </trkpt>
      <trkpt lat="42.8623530082404613494873046875" lon="-0.9221955947577953338623046875">
        <ele>846.4000244140625</ele>
        <time>2020-08-20T13:27:48.000Z</time>
      </trkpt>
      <trkpt lat="42.86231570877134799957275390625" lon="-0.9222348220646381378173828125">
        <ele>846.79998779296875</ele>
        <time>2020-08-20T13:27:50.000Z</time>
      </trkpt>
      <trkpt lat="42.8621950931847095489501953125" lon="-0.9223561920225620269775390625">
        <ele>848</ele>
        <time>2020-08-20T13:27:56.000Z</time>
      </trkpt>
      <trkpt lat="42.86215662024915218353271484375" lon="-0.92239835299551486968994140625">
        <ele>848</ele>
        <time>2020-08-20T13:27:58.000Z</time>
      </trkpt>
      <trkpt lat="42.86208587698638439178466796875" lon="-0.92249306850135326385498046875">
        <ele>848.5999755859375</ele>
        <time>2020-08-20T13:28:02.000Z</time>
      </trkpt>
      <trkpt lat="42.862006835639476776123046875" lon="-0.9225617162883281707763671875">
        <ele>848.5999755859375</ele>
        <time>2020-08-20T13:28:06.000Z</time>
      </trkpt>
      <trkpt lat="42.86194992251694202423095703125" lon="-0.9226173721253871917724609375">
        <ele>848</ele>
        <time>2020-08-20T13:28:12.000Z</time>
      </trkpt>
      <trkpt lat="42.861949838697910308837890625" lon="-0.922615192830562591552734375">
        <ele>847.5999755859375</ele>
        <time>2020-08-20T13:28:14.000Z</time>
      </trkpt>
      <trkpt lat="42.8618735633790493011474609375" lon="-0.92263539321720600128173828125">
        <ele>829.4000244140625</ele>
        <time>2020-08-21T05:10:32.000Z</time>
      </trkpt>
      <trkpt lat="42.86186040379106998443603515625" lon="-0.92263086698949337005615234375">
        <ele>829.79998779296875</ele>
        <time>2020-08-21T05:10:33.000Z</time>
      </trkpt>
      <trkpt lat="42.8618086874485015869140625" lon="-0.92263556085526943206787109375">
        <ele>829.20001220703125</ele>
        <time>2020-08-21T05:10:36.000Z</time>
      </trkpt>
      <trkpt lat="42.8617924265563488006591796875" lon="-0.9226411767303943634033203125">
        <ele>829.5999755859375</ele>
        <time>2020-08-21T05:10:37.000Z</time>
      </trkpt>
      <trkpt lat="42.8617166541516780853271484375" lon="-0.9226529113948345184326171875">
        <ele>829.5999755859375</ele>
        <time>2020-08-21T05:10:41.000Z</time>
      </trkpt>
      <trkpt lat="42.8615775145590305328369140625" lon="-0.9226383268833160400390625">
        <ele>829.79998779296875</ele>
        <time>2020-08-21T05:10:49.000Z</time>
      </trkpt>
      <trkpt lat="42.86146326921880245208740234375" lon="-0.92261661775410175323486328125">
        <ele>829.5999755859375</ele>
        <time>2020-08-21T05:10:54.000Z</time>
      </trkpt>
      <trkpt lat="42.8612972237169742584228515625" lon="-0.92260085977613925933837890625">
        <ele>829</ele>
        <time>2020-08-21T05:11:00.000Z</time>
      </trkpt>
      <trkpt lat="42.86112941801548004150390625" lon="-0.9226294420659542083740234375">
        <ele>828</ele>
        <time>2020-08-21T05:11:05.000Z</time>
      </trkpt>
      <trkpt lat="42.86100930534303188323974609375" lon="-0.9226302802562713623046875">
        <ele>827.4000244140625</ele>
        <time>2020-08-21T05:11:09.000Z</time>
      </trkpt>
      <trkpt lat="42.8609391488134860992431640625" lon="-0.9227226488292217254638671875">
        <ele>826.79998779296875</ele>
        <time>2020-08-21T05:11:12.000Z</time>
      </trkpt>
      <trkpt lat="42.86091593094170093536376953125" lon="-0.9227615408599376678466796875">
        <ele>826.5999755859375</ele>
        <time>2020-08-21T05:11:13.000Z</time>
      </trkpt>
      <trkpt lat="42.86084066145122051239013671875" lon="-0.92294736765325069427490234375">
        <ele>826</ele>
        <time>2020-08-21T05:11:17.000Z</time>
      </trkpt>
      <trkpt lat="42.86081425845623016357421875" lon="-0.92298273928463459014892578125">
        <ele>825.5999755859375</ele>
        <time>2020-08-21T05:11:18.000Z</time>
      </trkpt>
      <trkpt lat="42.86071962676942348480224609375" lon="-0.92307410202920436859130859375">
        <ele>825</ele>
        <time>2020-08-21T05:11:21.000Z</time>
      </trkpt>
      <trkpt lat="42.86067905835807323455810546875" lon="-0.92309924773871898651123046875">
        <ele>824.5999755859375</ele>
        <time>2020-08-21T05:11:22.000Z</time>
      </trkpt>
      <trkpt lat="42.8605907969176769256591796875" lon="-0.92322329990565776824951171875">
        <ele>823.20001220703125</ele>
        <time>2020-08-21T05:11:25.000Z</time>
      </trkpt>
      <trkpt lat="42.8605686686933040618896484375" lon="-0.9232782013714313507080078125">
        <ele>823</ele>
        <time>2020-08-21T05:11:26.000Z</time>
      </trkpt>
      <trkpt lat="42.86050312221050262451171875" lon="-0.92343770898878574371337890625">
        <ele>822.20001220703125</ele>
        <time>2020-08-21T05:11:29.000Z</time>
      </trkpt>
      <trkpt lat="42.86043933592736721038818359375" lon="-0.923577435314655303955078125">
        <ele>821.20001220703125</ele>
        <time>2020-08-21T05:11:32.000Z</time>
      </trkpt>
      <trkpt lat="42.8603698499500751495361328125" lon="-0.9237573109567165374755859375">
        <ele>819.79998779296875</ele>
        <time>2020-08-21T05:11:36.000Z</time>
      </trkpt>
      <trkpt lat="42.86034327931702136993408203125" lon="-0.9238987974822521209716796875">
        <ele>819.20001220703125</ele>
        <time>2020-08-21T05:11:39.000Z</time>
      </trkpt>
      <trkpt lat="42.86033355630934238433837890625" lon="-0.92400482855737209320068359375">
        <ele>818.79998779296875</ele>
        <time>2020-08-21T05:11:41.000Z</time>
      </trkpt>
      <trkpt lat="42.860330455005168914794921875" lon="-0.924103818833827972412109375">
        <ele>818.20001220703125</ele>
        <time>2020-08-21T05:11:43.000Z</time>
      </trkpt>
      <trkpt lat="42.8603262640535831451416015625" lon="-0.924215801060199737548828125">
        <ele>817.5999755859375</ele>
        <time>2020-08-21T05:11:45.000Z</time>
      </trkpt>
      <trkpt lat="42.86032986827194690704345703125" lon="-0.92444948852062225341796875">
        <ele>816.5999755859375</ele>
        <time>2020-08-21T05:11:49.000Z</time>
      </trkpt>
      <trkpt lat="42.86033607088029384613037109375" lon="-0.92467236332595348358154296875">
        <ele>815.20001220703125</ele>
        <time>2020-08-21T05:11:53.000Z</time>
      </trkpt>
      <trkpt lat="42.8603336401283740997314453125" lon="-0.92472265474498271942138671875">
        <ele>815</ele>
        <time>2020-08-21T05:11:54.000Z</time>
      </trkpt>
      <trkpt lat="42.8603269346058368682861328125" lon="-0.9248885326087474822998046875">
        <ele>814.20001220703125</ele>
        <time>2020-08-21T05:11:57.000Z</time>
      </trkpt>
      <trkpt lat="42.8603173792362213134765625" lon="-0.92499724589288234710693359375">
        <ele>813.79998779296875</ele>
        <time>2020-08-21T05:11:59.000Z</time>
      </trkpt>
      <trkpt lat="42.86030606366693973541259765625" lon="-0.92510201968252658843994140625">
        <ele>813</ele>
        <time>2020-08-21T05:12:01.000Z</time>
      </trkpt>
      <trkpt lat="42.8602964244782924652099609375" lon="-0.92515767551958560943603515625">
        <ele>812.79998779296875</ele>
        <time>2020-08-21T05:12:02.000Z</time>
      </trkpt>
      <trkpt lat="42.8602632321417331695556640625" lon="-0.925278961658477783203125">
        <ele>812.5999755859375</ele>
        <time>2020-08-21T05:12:04.000Z</time>
      </trkpt>
      <trkpt lat="42.8602219931781291961669921875" lon="-0.925402678549289703369140625">
        <ele>812</ele>
        <time>2020-08-21T05:12:06.000Z</time>
      </trkpt>
      <trkpt lat="42.8601525910198688507080078125" lon="-0.92558397911489009857177734375">
        <ele>811</ele>
        <time>2020-08-21T05:12:09.000Z</time>
      </trkpt>
      <trkpt lat="42.8601294569671154022216796875" lon="-0.92563795857131481170654296875">
        <ele>810.5999755859375</ele>
        <time>2020-08-21T05:12:10.000Z</time>
      </trkpt>
      <trkpt lat="42.86008561961352825164794921875" lon="-0.92575966380536556243896484375">
        <ele>809.79998779296875</ele>
        <time>2020-08-21T05:12:12.000Z</time>
      </trkpt>
      <trkpt lat="42.86001026630401611328125" lon="-0.92594892717897891998291015625">
        <ele>808.79998779296875</ele>
        <time>2020-08-21T05:12:15.000Z</time>
      </trkpt>
      <trkpt lat="42.8599847853183746337890625" lon="-0.92600843869149684906005859375">
        <ele>808.4000244140625</ele>
        <time>2020-08-21T05:12:16.000Z</time>
      </trkpt>
      <trkpt lat="42.85990993492305278778076171875" lon="-0.92619217000901699066162109375">
        <ele>807.20001220703125</ele>
        <time>2020-08-21T05:12:19.000Z</time>
      </trkpt>
      <trkpt lat="42.8598327375948429107666015625" lon="-0.92637665569782257080078125">
        <ele>806</ele>
        <time>2020-08-21T05:12:22.000Z</time>
      </trkpt>
      <trkpt lat="42.8597482480108737945556640625" lon="-0.92655007727444171905517578125">
        <ele>804.79998779296875</ele>
        <time>2020-08-21T05:12:25.000Z</time>
      </trkpt>
      <trkpt lat="42.85965495742857456207275390625" lon="-0.92673045583069324493408203125">
        <ele>803.79998779296875</ele>
        <time>2020-08-21T05:12:28.000Z</time>
      </trkpt>
      <trkpt lat="42.859621345996856689453125" lon="-0.92678829096257686614990234375">
        <ele>803.4000244140625</ele>
        <time>2020-08-21T05:12:29.000Z</time>
      </trkpt>
      <trkpt lat="42.8595514409244060516357421875" lon="-0.92689859680831432342529296875">
        <ele>802.5999755859375</ele>
        <time>2020-08-21T05:12:31.000Z</time>
      </trkpt>
      <trkpt lat="42.8594793565571308135986328125" lon="-0.926998592913150787353515625">
        <ele>801.5999755859375</ele>
        <time>2020-08-21T05:12:33.000Z</time>
      </trkpt>
      <trkpt lat="42.85937097854912281036376953125" lon="-0.92713706195354461669921875">
        <ele>800.5999755859375</ele>
        <time>2020-08-21T05:12:36.000Z</time>
      </trkpt>
      <trkpt lat="42.8593328408896923065185546875" lon="-0.92718131840229034423828125">
        <ele>800.20001220703125</ele>
        <time>2020-08-21T05:12:37.000Z</time>
      </trkpt>
      <trkpt lat="42.85910376347601413726806640625" lon="-0.927419029176235198974609375">
        <ele>799.20001220703125</ele>
        <time>2020-08-21T05:12:43.000Z</time>
      </trkpt>
      <trkpt lat="42.8590659610927104949951171875" lon="-0.92745490372180938720703125">
        <ele>799.20001220703125</ele>
        <time>2020-08-21T05:12:44.000Z</time>
      </trkpt>
      <trkpt lat="42.85898859612643718719482421875" lon="-0.92752288095653057098388671875">
        <ele>799.20001220703125</ele>
        <time>2020-08-21T05:12:46.000Z</time>
      </trkpt>
      <trkpt lat="42.85890896804630756378173828125" lon="-0.92758306302130222320556640625">
        <ele>799</ele>
        <time>2020-08-21T05:12:48.000Z</time>
      </trkpt>
      <trkpt lat="42.858782820403575897216796875" lon="-0.92766721732914447784423828125">
        <ele>798.79998779296875</ele>
        <time>2020-08-21T05:12:51.000Z</time>
      </trkpt>
      <trkpt lat="42.8584497235715389251708984375" lon="-0.92784759588539600372314453125">
        <ele>798.4000244140625</ele>
        <time>2020-08-21T05:12:59.000Z</time>
      </trkpt>
      <trkpt lat="42.85836800001561641693115234375" lon="-0.9278905950486660003662109375">
        <ele>798.20001220703125</ele>
        <time>2020-08-21T05:13:01.000Z</time>
      </trkpt>
      <trkpt lat="42.85807413049042224884033203125" lon="-0.92802881263196468353271484375">
        <ele>797.79998779296875</ele>
        <time>2020-08-21T05:13:08.000Z</time>
      </trkpt>
      <trkpt lat="42.8578707017004489898681640625" lon="-0.928131826221942901611328125">
        <ele>797</ele>
        <time>2020-08-21T05:13:13.000Z</time>
      </trkpt>
      <trkpt lat="42.85784237086772918701171875" lon="-0.9281477518379688262939453125">
        <ele>797</ele>
        <time>2020-08-21T05:13:14.000Z</time>
      </trkpt>
      <trkpt lat="42.85778612829744815826416015625" lon="-0.9281878173351287841796875">
        <ele>796.79998779296875</ele>
        <time>2020-08-21T05:13:18.000Z</time>
      </trkpt>
      <trkpt lat="42.85778277553617954254150390625" lon="-0.92818572185933589935302734375">
        <ele>796.79998779296875</ele>
        <time>2020-08-21T05:13:26.000Z</time>
      </trkpt>
      <trkpt lat="42.85778596065938472747802734375" lon="-0.92817616648972034454345703125">
        <ele>796.5999755859375</ele>
        <time>2020-08-21T05:14:11.000Z</time>
      </trkpt>
      <trkpt lat="42.85778596065938472747802734375" lon="-0.92817616648972034454345703125">
        <ele>796.5999755859375</ele>
        <time>2020-08-21T05:14:12.000Z</time>
      </trkpt>
      <trkpt lat="42.85777799785137176513671875" lon="-0.92816166579723358154296875">
        <ele>796.5999755859375</ele>
        <time>2020-08-21T05:14:26.000Z</time>
      </trkpt>
      <trkpt lat="42.8577842004597187042236328125" lon="-0.92812470160424709320068359375">
        <ele>796.5999755859375</ele>
        <time>2020-08-21T05:14:28.000Z</time>
      </trkpt>
      <trkpt lat="42.85786491818726062774658203125" lon="-0.9280552156269550323486328125">
        <ele>796.5999755859375</ele>
        <time>2020-08-21T05:14:33.000Z</time>
      </trkpt>
      <trkpt lat="42.8578844480216503143310546875" lon="-0.9280441515147686004638671875">
        <ele>796.5999755859375</ele>
        <time>2020-08-21T05:14:34.000Z</time>
      </trkpt>
      <trkpt lat="42.85805837251245975494384765625" lon="-0.92796410433948040008544921875">
        <ele>796.79998779296875</ele>
        <time>2020-08-21T05:14:42.000Z</time>
      </trkpt>
      <trkpt lat="42.8582482226192951202392578125" lon="-0.927883051335811614990234375">
        <ele>797.20001220703125</ele>
        <time>2020-08-21T05:14:50.000Z</time>
      </trkpt>
      <trkpt lat="42.8584540821611881256103515625" lon="-0.9277883358299732208251953125">
        <ele>797.5999755859375</ele>
        <time>2020-08-21T05:14:59.000Z</time>
      </trkpt>
      <trkpt lat="42.8586356341838836669921875" lon="-0.9276907704770565032958984375">
        <ele>797.79998779296875</ele>
        <time>2020-08-21T05:15:07.000Z</time>
      </trkpt>
      <trkpt lat="42.85883151926100254058837890625" lon="-0.927570573985576629638671875">
        <ele>797.79998779296875</ele>
        <time>2020-08-21T05:15:16.000Z</time>
      </trkpt>
      <trkpt lat="42.85887770354747772216796875" lon="-0.92753847129642963409423828125">
        <ele>798</ele>
        <time>2020-08-21T05:15:19.000Z</time>
      </trkpt>
      <trkpt lat="42.858935706317424774169921875" lon="-0.927486754953861236572265625">
        <ele>798</ele>
        <time>2020-08-21T05:15:23.000Z</time>
      </trkpt>
      <trkpt lat="42.8589821420609951019287109375" lon="-0.9273839928209781646728515625">
        <ele>798</ele>
        <time>2020-08-21T05:15:28.000Z</time>
      </trkpt>
      <trkpt lat="42.8590299189090728759765625" lon="-0.92712976969778537750244140625">
        <ele>798.20001220703125</ele>
        <time>2020-08-21T05:15:37.000Z</time>
      </trkpt>
      <trkpt lat="42.85903419367969036102294921875" lon="-0.92707864008843898773193359375">
        <ele>798.20001220703125</ele>
        <time>2020-08-21T05:15:39.000Z</time>
      </trkpt>
      <trkpt lat="42.8590411506593227386474609375" lon="-0.9270329587161540985107421875">
        <ele>798.4000244140625</ele>
        <time>2020-08-21T05:15:41.000Z</time>
      </trkpt>
      <trkpt lat="42.85904475487768650054931640625" lon="-0.9269781410694122314453125">
        <ele>798.4000244140625</ele>
        <time>2020-08-21T05:15:46.000Z</time>
      </trkpt>
      <trkpt lat="42.8590481914579868316650390625" lon="-0.92697353102266788482666015625">
        <ele>798.20001220703125</ele>
        <time>2020-08-21T05:16:05.000Z</time>
      </trkpt>
      <trkpt lat="42.859047688543796539306640625" lon="-0.9269746206700801849365234375">
        <ele>798.20001220703125</ele>
        <time>2020-08-21T05:16:27.000Z</time>
      </trkpt>
      <trkpt lat="42.85906353034079074859619140625" lon="-0.926977135241031646728515625">
        <ele>798</ele>
        <time>2020-08-21T05:16:34.000Z</time>
      </trkpt>
      <trkpt lat="42.859071828424930572509765625" lon="-0.9270130097866058349609375">
        <ele>798</ele>
        <time>2020-08-21T05:16:42.000Z</time>
      </trkpt>
      <trkpt lat="42.85906855948269367218017578125" lon="-0.92702466063201427459716796875">
        <ele>798</ele>
        <time>2020-08-21T05:16:52.000Z</time>
      </trkpt>
      <trkpt lat="42.8590642847120761871337890625" lon="-0.92703019268810749053955078125">
        <ele>798</ele>
        <time>2020-08-21T05:17:00.000Z</time>
      </trkpt>
      <trkpt lat="42.85907593555748462677001953125" lon="-0.92702516354620456695556640625">
        <ele>798.20001220703125</ele>
        <time>2020-08-21T05:17:08.000Z</time>
      </trkpt>
      <trkpt lat="42.85905732773244380950927734375" lon="-0.927070677280426025390625">
        <ele>797.5999755859375</ele>
        <time>2020-08-21T05:17:16.000Z</time>
      </trkpt>
      <trkpt lat="42.8590367920696735382080078125" lon="-0.92717318795621395111083984375">
        <ele>797.79998779296875</ele>
        <time>2020-08-21T05:17:20.000Z</time>
      </trkpt>
      <trkpt lat="42.8590149991214275360107421875" lon="-0.9273092262446880340576171875">
        <ele>797.79998779296875</ele>
        <time>2020-08-21T05:17:25.000Z</time>
      </trkpt>
      <trkpt lat="42.85899697802960872650146484375" lon="-0.92739162035286426544189453125">
        <ele>797.79998779296875</ele>
        <time>2020-08-21T05:17:28.000Z</time>
      </trkpt>
      <trkpt lat="42.85903419367969036102294921875" lon="-0.92743755318224430084228515625">
        <ele>797.79998779296875</ele>
        <time>2020-08-21T05:17:31.000Z</time>
      </trkpt>
      <trkpt lat="42.85910510458052158355712890625" lon="-0.92737066559493541717529296875">
        <ele>797.79998779296875</ele>
        <time>2020-08-21T05:17:35.000Z</time>
      </trkpt>
      <trkpt lat="42.85912304185330867767333984375" lon="-0.92734895646572113037109375">
        <ele>797.79998779296875</ele>
        <time>2020-08-21T05:17:36.000Z</time>
      </trkpt>
      <trkpt lat="42.8593113832175731658935546875" lon="-0.92715307138860225677490234375">
        <ele>798.4000244140625</ele>
        <time>2020-08-21T05:17:45.000Z</time>
      </trkpt>
      <trkpt lat="42.85947424359619617462158203125" lon="-0.9269662387669086456298828125">
        <ele>799</ele>
        <time>2020-08-21T05:17:54.000Z</time>
      </trkpt>
      <trkpt lat="42.85948983393609523773193359375" lon="-0.92694452963769435882568359375">
        <ele>799</ele>
        <time>2020-08-21T05:17:55.000Z</time>
      </trkpt>
      <trkpt lat="42.85961128771305084228515625" lon="-0.92677471227943897247314453125">
        <ele>799.79998779296875</ele>
        <time>2020-08-21T05:18:03.000Z</time>
      </trkpt>
      <trkpt lat="42.85966224968433380126953125" lon="-0.92668804340064525604248046875">
        <ele>800.20001220703125</ele>
        <time>2020-08-21T05:18:07.000Z</time>
      </trkpt>
      <trkpt lat="42.8597184084355831146240234375" lon="-0.92657907865941524505615234375">
        <ele>801.20001220703125</ele>
        <time>2020-08-21T05:18:12.000Z</time>
      </trkpt>
      <trkpt lat="42.85980247892439365386962890625" lon="-0.92640473507344722747802734375">
        <ele>802.20001220703125</ele>
        <time>2020-08-21T05:18:20.000Z</time>
      </trkpt>
      <trkpt lat="42.8598132915794849395751953125" lon="-0.92638411559164524078369140625">
        <ele>802.4000244140625</ele>
        <time>2020-08-21T05:18:21.000Z</time>
      </trkpt>
      <trkpt lat="42.8598686121404170989990234375" lon="-0.92627515085041522979736328125">
        <ele>803.4000244140625</ele>
        <time>2020-08-21T05:18:26.000Z</time>
      </trkpt>
      <trkpt lat="42.85991764627397060394287109375" lon="-0.92616048641502857208251953125">
        <ele>804</ele>
        <time>2020-08-21T05:18:31.000Z</time>
      </trkpt>
      <trkpt lat="42.85994178615510463714599609375" lon="-0.92608856968581676483154296875">
        <ele>804.5999755859375</ele>
        <time>2020-08-21T05:18:34.000Z</time>
      </trkpt>
      <trkpt lat="42.8600020520389080047607421875" lon="-0.92595295049250125885009765625">
        <ele>805.79998779296875</ele>
        <time>2020-08-21T05:18:40.000Z</time>
      </trkpt>
      <trkpt lat="42.86008578725159168243408203125" lon="-0.9257723204791545867919921875">
        <ele>806.79998779296875</ele>
        <time>2020-08-21T05:18:48.000Z</time>
      </trkpt>
      <trkpt lat="42.8601616434752941131591796875" lon="-0.92558112926781177520751953125">
        <ele>807.79998779296875</ele>
        <time>2020-08-21T05:18:56.000Z</time>
      </trkpt>
      <trkpt lat="42.860207743942737579345703125" lon="-0.9254588373005390167236328125">
        <ele>808.5999755859375</ele>
        <time>2020-08-21T05:19:01.000Z</time>
      </trkpt>
      <trkpt lat="42.860229201614856719970703125" lon="-0.9254115633666515350341796875">
        <ele>809</ele>
        <time>2020-08-21T05:19:03.000Z</time>
      </trkpt>
      <trkpt lat="42.8602890484035015106201171875" lon="-0.9252345375716686248779296875">
        <ele>810</ele>
        <time>2020-08-21T05:19:10.000Z</time>
      </trkpt>
      <trkpt lat="42.86029667593538761138916015625" lon="-0.9252083860337734222412109375">
        <ele>810</ele>
        <time>2020-08-21T05:19:11.000Z</time>
      </trkpt>
      <trkpt lat="42.8603336401283740997314453125" lon="-0.92499691061675548553466796875">
        <ele>811</ele>
        <time>2020-08-21T05:19:19.000Z</time>
      </trkpt>
      <trkpt lat="42.86033757962286472320556640625" lon="-0.92496992088854312896728515625">
        <ele>811.20001220703125</ele>
        <time>2020-08-21T05:19:20.000Z</time>
      </trkpt>
      <trkpt lat="42.86034478805959224700927734375" lon="-0.9247862733900547027587890625">
        <ele>812.20001220703125</ele>
        <time>2020-08-21T05:19:27.000Z</time>
      </trkpt>
      <trkpt lat="42.8603467158973217010498046875" lon="-0.92476087622344493865966796875">
        <ele>812.4000244140625</ele>
        <time>2020-08-21T05:19:28.000Z</time>
      </trkpt>
      <trkpt lat="42.860354594886302947998046875" lon="-0.9245706908404827117919921875">
        <ele>813.4000244140625</ele>
        <time>2020-08-21T05:19:35.000Z</time>
      </trkpt>
      <trkpt lat="42.86035635508596897125244140625" lon="-0.924489386379718780517578125">
        <ele>814</ele>
        <time>2020-08-21T05:19:38.000Z</time>
      </trkpt>
      <trkpt lat="42.8603561036288738250732421875" lon="-0.9244070760905742645263671875">
        <ele>814.5999755859375</ele>
        <time>2020-08-21T05:19:41.000Z</time>
      </trkpt>
      <trkpt lat="42.8603597916662693023681640625" lon="-0.924273468554019927978515625">
        <ele>815.4000244140625</ele>
        <time>2020-08-21T05:19:46.000Z</time>
      </trkpt>
      <trkpt lat="42.86036976613104343414306640625" lon="-0.92421990819275379180908203125">
        <ele>815.5999755859375</ele>
        <time>2020-08-21T05:19:48.000Z</time>
      </trkpt>
      <trkpt lat="42.86037412472069263458251953125" lon="-0.9241271205246448516845703125">
        <ele>816.20001220703125</ele>
        <time>2020-08-21T05:19:52.000Z</time>
      </trkpt>
      <trkpt lat="42.86037714220583438873291015625" lon="-0.9240479953587055206298828125">
        <ele>816.5999755859375</ele>
        <time>2020-08-21T05:19:55.000Z</time>
      </trkpt>
      <trkpt lat="42.86038720048964023590087890625" lon="-0.923975408077239990234375">
        <ele>817.20001220703125</ele>
        <time>2020-08-21T05:19:58.000Z</time>
      </trkpt>
      <trkpt lat="42.86041997373104095458984375" lon="-0.9238133020699024200439453125">
        <ele>817.79998779296875</ele>
        <time>2020-08-21T05:20:05.000Z</time>
      </trkpt>
      <trkpt lat="42.8604541718959808349609375" lon="-0.923663266003131866455078125">
        <ele>818.4000244140625</ele>
        <time>2020-08-21T05:20:11.000Z</time>
      </trkpt>
      <trkpt lat="42.86048376001417636871337890625" lon="-0.92359646223485469818115234375">
        <ele>818.79998779296875</ele>
        <time>2020-08-21T05:20:14.000Z</time>
      </trkpt>
      <trkpt lat="42.86050203256309032440185546875" lon="-0.92352102510631084442138671875">
        <ele>819.20001220703125</ele>
        <time>2020-08-21T05:20:17.000Z</time>
      </trkpt>
      <trkpt lat="42.8605220653116703033447265625" lon="-0.923434607684612274169921875">
        <ele>820</ele>
        <time>2020-08-21T05:20:20.000Z</time>
      </trkpt>
      <trkpt lat="42.8605451993644237518310546875" lon="-0.92330996878445148468017578125">
        <ele>820.4000244140625</ele>
        <time>2020-08-21T05:20:24.000Z</time>
      </trkpt>
      <trkpt lat="42.860605716705322265625" lon="-0.9231450967490673065185546875">
        <ele>821</ele>
        <time>2020-08-21T05:20:30.000Z</time>
      </trkpt>
      <trkpt lat="42.86063295789062976837158203125" lon="-0.92310704290866851806640625">
        <ele>821.20001220703125</ele>
        <time>2020-08-21T05:20:32.000Z</time>
      </trkpt>
      <trkpt lat="42.86068475805222988128662109375" lon="-0.92306354083120822906494140625">
        <ele>821.79998779296875</ele>
        <time>2020-08-21T05:20:35.000Z</time>
      </trkpt>
      <trkpt lat="42.86077964119613170623779296875" lon="-0.92293806374073028564453125">
        <ele>822.20001220703125</ele>
        <time>2020-08-21T05:20:41.000Z</time>
      </trkpt>
      <trkpt lat="42.86080998368561267852783203125" lon="-0.92289757914841175079345703125">
        <ele>822.5999755859375</ele>
        <time>2020-08-21T05:20:43.000Z</time>
      </trkpt>
      <trkpt lat="42.86088575609028339385986328125" lon="-0.9227555058896541595458984375">
        <ele>823.5999755859375</ele>
        <time>2020-08-21T05:20:49.000Z</time>
      </trkpt>
      <trkpt lat="42.860897071659564971923828125" lon="-0.92272977344691753387451171875">
        <ele>823.5999755859375</ele>
        <time>2020-08-21T05:20:50.000Z</time>
      </trkpt>
      <trkpt lat="42.860973514616489410400390625" lon="-0.92260203324258327484130859375">
        <ele>824</ele>
        <time>2020-08-21T05:20:56.000Z</time>
      </trkpt>
      <trkpt lat="42.8610632009804248809814453125" lon="-0.922484435141086578369140625">
        <ele>824.5999755859375</ele>
        <time>2020-08-21T05:21:02.000Z</time>
      </trkpt>
      <trkpt lat="42.86108323372900485992431640625" lon="-0.92247580178081989288330078125">
        <ele>824.79998779296875</ele>
        <time>2020-08-21T05:21:03.000Z</time>
      </trkpt>
      <trkpt lat="42.86117157898843288421630859375" lon="-0.92248971574008464813232421875">
        <ele>825.4000244140625</ele>
        <time>2020-08-21T05:21:08.000Z</time>
      </trkpt>
      <trkpt lat="42.86119303666055202484130859375" lon="-0.92249491252005100250244140625">
        <ele>825.5999755859375</ele>
        <time>2020-08-21T05:21:10.000Z</time>
      </trkpt>
      <trkpt lat="42.86123343743383884429931640625" lon="-0.922507233917713165283203125">
        <ele>826.20001220703125</ele>
        <time>2020-08-21T05:21:13.000Z</time>
      </trkpt>
      <trkpt lat="42.8612697310745716094970703125" lon="-0.92252391390502452850341796875">
        <ele>826.4000244140625</ele>
        <time>2020-08-21T05:21:15.000Z</time>
      </trkpt>
      <trkpt lat="42.86133552901446819305419921875" lon="-0.9225415997207164764404296875">
        <ele>826.79998779296875</ele>
        <time>2020-08-21T05:21:19.000Z</time>
      </trkpt>
      <trkpt lat="42.8614366985857486724853515625" lon="-0.9225560165941715240478515625">
        <ele>827.4000244140625</ele>
        <time>2020-08-21T05:21:24.000Z</time>
      </trkpt>
      <trkpt lat="42.8614921867847442626953125" lon="-0.92256884090602397918701171875">
        <ele>827.5999755859375</ele>
        <time>2020-08-21T05:21:27.000Z</time>
      </trkpt>
      <trkpt lat="42.8615560568869113922119140625" lon="-0.9225969202816486358642578125">
        <ele>827.79998779296875</ele>
        <time>2020-08-21T05:21:31.000Z</time>
      </trkpt>
      <trkpt lat="42.8616314940154552459716796875" lon="-0.92261494137346744537353515625">
        <ele>828</ele>
        <time>2020-08-21T05:21:34.000Z</time>
      </trkpt>
      <trkpt lat="42.861823774874210357666015625" lon="-0.92259365133941173553466796875">
        <ele>827.79998779296875</ele>
        <time>2020-08-21T05:21:39.000Z</time>
      </trkpt>
      <trkpt lat="42.8619962744414806365966796875" lon="-0.92251938767731189727783203125">
        <ele>827.79998779296875</ele>
        <time>2020-08-21T05:21:44.000Z</time>
      </trkpt>
      <trkpt lat="42.862123511731624603271484375" lon="-0.922384522855281829833984375">
        <ele>827</ele>
        <time>2020-08-21T05:21:48.000Z</time>
      </trkpt>
      <trkpt lat="42.862157709896564483642578125" lon="-0.922341607511043548583984375">
        <ele>826.79998779296875</ele>
        <time>2020-08-21T05:21:49.000Z</time>
      </trkpt>
      <trkpt lat="42.86224161274731159210205078125" lon="-0.92226457782089710235595703125">
        <ele>826.4000244140625</ele>
        <time>2020-08-21T05:21:51.000Z</time>
      </trkpt>
      <trkpt lat="42.86231520585715770721435546875" lon="-0.92217958532273769378662109375">
        <ele>826</ele>
        <time>2020-08-21T05:21:53.000Z</time>
      </trkpt>
      <trkpt lat="42.86239969544112682342529296875" lon="-0.92208235524594783782958984375">
        <ele>825.79998779296875</ele>
        <time>2020-08-21T05:21:55.000Z</time>
      </trkpt>
      <trkpt lat="42.86256431601941585540771484375" lon="-0.92190784402191638946533203125">
        <ele>824.5999755859375</ele>
        <time>2020-08-21T05:21:59.000Z</time>
      </trkpt>
      <trkpt lat="42.8626799024641513824462890625" lon="-0.921791084110736846923828125">
        <ele>823.5999755859375</ele>
        <time>2020-08-21T05:22:02.000Z</time>
      </trkpt>
      <trkpt lat="42.8627850115299224853515625" lon="-0.9217121265828609466552734375">
        <ele>822.5999755859375</ele>
        <time>2020-08-21T05:22:05.000Z</time>
      </trkpt>
      <trkpt lat="42.862824238836765289306640625" lon="-0.92169745825231075286865234375">
        <ele>822.5999755859375</ele>
        <time>2020-08-21T05:22:06.000Z</time>
      </trkpt>
      <trkpt lat="42.863064967095851898193359375" lon="-0.921606682240962982177734375">
        <ele>821.20001220703125</ele>
        <time>2020-08-21T05:22:11.000Z</time>
      </trkpt>
      <trkpt lat="42.8632280789315700531005859375" lon="-0.92154197394847869873046875">
        <ele>820.5999755859375</ele>
        <time>2020-08-21T05:22:14.000Z</time>
      </trkpt>
      <trkpt lat="42.86333813332021236419677734375" lon="-0.92151691205799579620361328125">
        <ele>820.20001220703125</ele>
        <time>2020-08-21T05:22:16.000Z</time>
      </trkpt>
      <trkpt lat="42.863389514386653900146484375" lon="-0.92149713076651096343994140625">
        <ele>819.79998779296875</ele>
        <time>2020-08-21T05:22:17.000Z</time>
      </trkpt>
      <trkpt lat="42.8634872473776340484619140625" lon="-0.92142471112310886383056640625">
        <ele>819</ele>
        <time>2020-08-21T05:22:19.000Z</time>
      </trkpt>
      <trkpt lat="42.863564193248748779296875" lon="-0.9213124774396419525146484375">
        <ele>818.4000244140625</ele>
        <time>2020-08-21T05:22:21.000Z</time>
      </trkpt>
      <trkpt lat="42.86358942277729511260986328125" lon="-0.9212457574903964996337890625">
        <ele>818</ele>
        <time>2020-08-21T05:22:22.000Z</time>
      </trkpt>
      <trkpt lat="42.863617502152919769287109375" lon="-0.9211086295545101165771484375">
        <ele>817.20001220703125</ele>
        <time>2020-08-21T05:22:24.000Z</time>
      </trkpt>
      <trkpt lat="42.86362714134156703948974609375" lon="-0.92103914357721805572509765625">
        <ele>817</ele>
        <time>2020-08-21T05:22:25.000Z</time>
      </trkpt>
      <trkpt lat="42.8636357747018337249755859375" lon="-0.92097141779959201812744140625">
        <ele>816.5999755859375</ele>
        <time>2020-08-21T05:22:26.000Z</time>
      </trkpt>
      <trkpt lat="42.863682210445404052734375" lon="-0.9207170270383358001708984375">
        <ele>815.5999755859375</ele>
        <time>2020-08-21T05:22:30.000Z</time>
      </trkpt>
      <trkpt lat="42.8637055121362209320068359375" lon="-0.9206695854663848876953125">
        <ele>815.20001220703125</ele>
        <time>2020-08-21T05:22:31.000Z</time>
      </trkpt>
      <trkpt lat="42.86381472833454608917236328125" lon="-0.920619629323482513427734375">
        <ele>814.4000244140625</ele>
        <time>2020-08-21T05:22:34.000Z</time>
      </trkpt>
      <trkpt lat="42.8638872317969799041748046875" lon="-0.9207364730536937713623046875">
        <ele>813.79998779296875</ele>
        <time>2020-08-21T05:22:37.000Z</time>
      </trkpt>
      <trkpt lat="42.86386854015290737152099609375" lon="-0.92091475613415241241455078125">
        <ele>813.20001220703125</ele>
        <time>2020-08-21T05:22:40.000Z</time>
      </trkpt>
      <trkpt lat="42.86385160870850086212158203125" lon="-0.92097594402730464935302734375">
        <ele>813</ele>
        <time>2020-08-21T05:22:41.000Z</time>
      </trkpt>
      <trkpt lat="42.8638096153736114501953125" lon="-0.92116788960993289947509765625">
        <ele>812</ele>
        <time>2020-08-21T05:22:44.000Z</time>
      </trkpt>
      <trkpt lat="42.86376695148646831512451171875" lon="-0.92138162814080715179443359375">
        <ele>811</ele>
        <time>2020-08-21T05:22:47.000Z</time>
      </trkpt>
      <trkpt lat="42.86375286988914012908935546875" lon="-0.92144985683262348175048828125">
        <ele>810.79998779296875</ele>
        <time>2020-08-21T05:22:48.000Z</time>
      </trkpt>
      <trkpt lat="42.86370442248880863189697265625" lon="-0.92171774245798587799072265625">
        <ele>809.5999755859375</ele>
        <time>2020-08-21T05:22:52.000Z</time>
      </trkpt>
      <trkpt lat="42.8636833839118480682373046875" lon="-0.9218435548245906829833984375">
        <ele>808.79998779296875</ele>
        <time>2020-08-21T05:22:54.000Z</time>
      </trkpt>
      <trkpt lat="42.863682545721530914306640625" lon="-0.92190432362258434295654296875">
        <ele>808.5999755859375</ele>
        <time>2020-08-21T05:22:55.000Z</time>
      </trkpt>
      <trkpt lat="42.86369017325341701507568359375" lon="-0.9219696186482906341552734375">
        <ele>808.20001220703125</ele>
        <time>2020-08-21T05:22:56.000Z</time>
      </trkpt>
      <trkpt lat="42.8637076914310455322265625" lon="-0.92203575186431407928466796875">
        <ele>808</ele>
        <time>2020-08-21T05:22:57.000Z</time>
      </trkpt>
      <trkpt lat="42.86376795731484889984130859375" lon="-0.922155864536762237548828125">
        <ele>807</ele>
        <time>2020-08-21T05:22:59.000Z</time>
      </trkpt>
      <trkpt lat="42.86380500532686710357666015625" lon="-0.9222126938402652740478515625">
        <ele>806.79998779296875</ele>
        <time>2020-08-21T05:23:00.000Z</time>
      </trkpt>
      <trkpt lat="42.86384339444339275360107421875" lon="-0.9222706966102123260498046875">
        <ele>806.4000244140625</ele>
        <time>2020-08-21T05:23:01.000Z</time>
      </trkpt>
      <trkpt lat="42.8639274649322032928466796875" lon="-0.922387875616550445556640625">
        <ele>806</ele>
        <time>2020-08-21T05:23:03.000Z</time>
      </trkpt>
      <trkpt lat="42.8641557879745960235595703125" lon="-0.92272457666695117950439453125">
        <ele>805.20001220703125</ele>
        <time>2020-08-21T05:23:09.000Z</time>
      </trkpt>
      <trkpt lat="42.8642835281789302825927734375" lon="-0.92293806374073028564453125">
        <ele>805.4000244140625</ele>
        <time>2020-08-21T05:23:14.000Z</time>
      </trkpt>
      <trkpt lat="42.8644292056560516357421875" lon="-0.92312254942953586578369140625">
        <ele>806.4000244140625</ele>
        <time>2020-08-21T05:23:22.000Z</time>
      </trkpt>
      <trkpt lat="42.864528112113475799560546875" lon="-0.92319698072969913482666015625">
        <ele>807.20001220703125</ele>
        <time>2020-08-21T05:23:27.000Z</time>
      </trkpt>
      <trkpt lat="42.864568345248699188232421875" lon="-0.92322128824889659881591796875">
        <ele>807.5999755859375</ele>
        <time>2020-08-21T05:23:29.000Z</time>
      </trkpt>
      <trkpt lat="42.86458871327340602874755859375" lon="-0.92323034070432186126708984375">
        <ele>807.5999755859375</ele>
        <time>2020-08-21T05:23:30.000Z</time>
      </trkpt>
      <trkpt lat="42.86466968245804309844970703125" lon="-0.92327359132468700408935546875">
        <ele>808.20001220703125</ele>
        <time>2020-08-21T05:23:34.000Z</time>
      </trkpt>
      <trkpt lat="42.864729948341846466064453125" lon="-0.92330259270966053009033203125">
        <ele>808.20001220703125</ele>
        <time>2020-08-21T05:23:37.000Z</time>
      </trkpt>
      <trkpt lat="42.86491828970611095428466796875" lon="-0.92345849610865116119384765625">
        <ele>808.5999755859375</ele>
        <time>2020-08-21T05:23:46.000Z</time>
      </trkpt>
      <trkpt lat="42.865049801766872406005859375" lon="-0.9236423112452030181884765625">
        <ele>808.5999755859375</ele>
        <time>2020-08-21T05:23:53.000Z</time>
      </trkpt>
      <trkpt lat="42.8651673160493373870849609375" lon="-0.923914723098278045654296875">
        <ele>808.4000244140625</ele>
        <time>2020-08-21T05:24:01.000Z</time>
      </trkpt>
      <trkpt lat="42.86523261107504367828369140625" lon="-0.924083702266216278076171875">
        <ele>808.4000244140625</ele>
        <time>2020-08-21T05:24:06.000Z</time>
      </trkpt>
      <trkpt lat="42.865371666848659515380859375" lon="-0.9244204871356487274169921875">
        <ele>808</ele>
        <time>2020-08-21T05:24:15.000Z</time>
      </trkpt>
      <trkpt lat="42.8655170090496540069580078125" lon="-0.924773700535297393798828125">
        <ele>807.4000244140625</ele>
        <time>2020-08-21T05:24:24.000Z</time>
      </trkpt>
      <trkpt lat="42.8655890934169292449951171875" lon="-0.92493857257068157196044921875">
        <ele>807.20001220703125</ele>
        <time>2020-08-21T05:24:28.000Z</time>
      </trkpt>
      <trkpt lat="42.86569914780557155609130859375" lon="-0.92520545236766338348388671875">
        <ele>806.79998779296875</ele>
        <time>2020-08-21T05:24:34.000Z</time>
      </trkpt>
      <trkpt lat="42.865837700664997100830078125" lon="-0.9255366213619709014892578125">
        <ele>806</ele>
        <time>2020-08-21T05:24:41.000Z</time>
      </trkpt>
      <trkpt lat="42.86590131931006908416748046875" lon="-0.92568338848650455474853515625">
        <ele>805.79998779296875</ele>
        <time>2020-08-21T05:24:44.000Z</time>
      </trkpt>
      <trkpt lat="42.86611824296414852142333984375" lon="-0.92613668181002140045166015625">
        <ele>805</ele>
        <time>2020-08-21T05:24:53.000Z</time>
      </trkpt>
      <trkpt lat="42.86618211306631565093994140625" lon="-0.92621304094791412353515625">
        <ele>804.79998779296875</ele>
        <time>2020-08-21T05:24:55.000Z</time>
      </trkpt>
      <trkpt lat="42.8663149662315845489501953125" lon="-0.92631136067211627960205078125">
        <ele>804.79998779296875</ele>
        <time>2020-08-21T05:24:59.000Z</time>
      </trkpt>
      <trkpt lat="42.866348326206207275390625" lon="-0.92632435262203216552734375">
        <ele>805</ele>
        <time>2020-08-21T05:25:00.000Z</time>
      </trkpt>
      <trkpt lat="42.86649878136813640594482421875" lon="-0.9263774938881397247314453125">
        <ele>805.20001220703125</ele>
        <time>2020-08-21T05:25:05.000Z</time>
      </trkpt>
      <trkpt lat="42.8666742146015167236328125" lon="-0.92641345225274562835693359375">
        <ele>805.20001220703125</ele>
        <time>2020-08-21T05:25:11.000Z</time>
      </trkpt>
      <trkpt lat="42.86690287292003631591796875" lon="-0.92645737342536449432373046875">
        <ele>805.79998779296875</ele>
        <time>2020-08-21T05:25:19.000Z</time>
      </trkpt>
      <trkpt lat="42.86713731475174427032470703125" lon="-0.926489643752574920654296875">
        <ele>805.79998779296875</ele>
        <time>2020-08-21T05:25:27.000Z</time>
      </trkpt>
      <trkpt lat="42.86733345128595829010009765625" lon="-0.92649324797093868255615234375">
        <ele>805.5999755859375</ele>
        <time>2020-08-21T05:25:34.000Z</time>
      </trkpt>
      <trkpt lat="42.86748818121850490570068359375" lon="-0.92645770870149135589599609375">
        <ele>805.5999755859375</ele>
        <time>2020-08-21T05:25:40.000Z</time>
      </trkpt>
      <trkpt lat="42.8676604293286800384521484375" lon="-0.92642904259264469146728515625">
        <ele>805.5999755859375</ele>
        <time>2020-08-21T05:25:46.000Z</time>
      </trkpt>
      <trkpt lat="42.867849357426166534423828125" lon="-0.92640054412186145782470703125">
        <ele>805.4000244140625</ele>
        <time>2020-08-21T05:25:53.000Z</time>
      </trkpt>
      <trkpt lat="42.86801389418542385101318359375" lon="-0.926368273794651031494140625">
        <ele>805.4000244140625</ele>
        <time>2020-08-21T05:25:59.000Z</time>
      </trkpt>
      <trkpt lat="42.86819628439843654632568359375" lon="-0.9263251908123493194580078125">
        <ele>805.5999755859375</ele>
        <time>2020-08-21T05:26:05.000Z</time>
      </trkpt>
      <trkpt lat="42.86837138235569000244140625" lon="-0.92627900652587413787841796875">
        <ele>805.20001220703125</ele>
        <time>2020-08-21T05:26:11.000Z</time>
      </trkpt>
      <trkpt lat="42.86857112310826778411865234375" lon="-0.9262185730040073394775390625">
        <ele>805.4000244140625</ele>
        <time>2020-08-21T05:26:18.000Z</time>
      </trkpt>
      <trkpt lat="42.86872635595500469207763671875" lon="-0.9261535294353961944580078125">
        <ele>806</ele>
        <time>2020-08-21T05:26:24.000Z</time>
      </trkpt>
      <trkpt lat="42.86888326518237590789794921875" lon="-0.9260251186788082122802734375">
        <ele>806.4000244140625</ele>
        <time>2020-08-21T05:26:31.000Z</time>
      </trkpt>
      <trkpt lat="42.86902089603245258331298828125" lon="-0.92588941566646099090576171875">
        <ele>806.5999755859375</ele>
        <time>2020-08-21T05:26:37.000Z</time>
      </trkpt>
      <trkpt lat="42.86918467842042446136474609375" lon="-0.92576620168983936309814453125">
        <ele>807</ele>
        <time>2020-08-21T05:26:43.000Z</time>
      </trkpt>
      <trkpt lat="42.86935701034963130950927734375" lon="-0.9256211109459400177001953125">
        <ele>807.20001220703125</ele>
        <time>2020-08-21T05:26:50.000Z</time>
      </trkpt>
      <trkpt lat="42.8694953955709934234619140625" lon="-0.92550493776798248291015625">
        <ele>807.79998779296875</ele>
        <time>2020-08-21T05:26:56.000Z</time>
      </trkpt>
      <trkpt lat="42.86956362426280975341796875" lon="-0.92546596191823482513427734375">
        <ele>808</ele>
        <time>2020-08-21T05:26:59.000Z</time>
      </trkpt>
      <trkpt lat="42.8696073777973651885986328125" lon="-0.92544257640838623046875">
        <ele>808</ele>
        <time>2020-08-21T05:27:01.000Z</time>
      </trkpt>
      <trkpt lat="42.86973084323108196258544921875" lon="-0.92538851313292980194091796875">
        <ele>808.4000244140625</ele>
        <time>2020-08-21T05:27:06.000Z</time>
      </trkpt>
      <trkpt lat="42.86992060951888561248779296875" lon="-0.92535565607249736785888671875">
        <ele>808.79998779296875</ele>
        <time>2020-08-21T05:27:13.000Z</time>
      </trkpt>
      <trkpt lat="42.87005052901804447174072265625" lon="-0.92538289725780487060546875">
        <ele>809.20001220703125</ele>
        <time>2020-08-21T05:27:18.000Z</time>
      </trkpt>
      <trkpt lat="42.87016251124441623687744140625" lon="-0.92544534243643283843994140625">
        <ele>809.20001220703125</ele>
        <time>2020-08-21T05:27:23.000Z</time>
      </trkpt>
      <trkpt lat="42.8702333383262157440185546875" lon="-0.92549915425479412078857421875">
        <ele>809.20001220703125</ele>
        <time>2020-08-21T05:27:26.000Z</time>
      </trkpt>
      <trkpt lat="42.87030986510217189788818359375" lon="-0.9255621023476123809814453125">
        <ele>809.4000244140625</ele>
        <time>2020-08-21T05:27:29.000Z</time>
      </trkpt>
      <trkpt lat="42.87044364027678966522216796875" lon="-0.92571993358433246612548828125">
        <ele>809.4000244140625</ele>
        <time>2020-08-21T05:27:35.000Z</time>
      </trkpt>
      <trkpt lat="42.8705702908337116241455078125" lon="-0.92587885446846485137939453125">
        <ele>809.79998779296875</ele>
        <time>2020-08-21T05:27:41.000Z</time>
      </trkpt>
      <trkpt lat="42.87066190503537654876708984375" lon="-0.92601933516561985015869140625">
        <ele>809.5999755859375</ele>
        <time>2020-08-21T05:27:46.000Z</time>
      </trkpt>
      <trkpt lat="42.87078059278428554534912109375" lon="-0.926182530820369720458984375">
        <ele>810</ele>
        <time>2020-08-21T05:27:52.000Z</time>
      </trkpt>
      <trkpt lat="42.87089860998094081878662109375" lon="-0.9263500012457370758056640625">
        <ele>810.5999755859375</ele>
        <time>2020-08-21T05:27:58.000Z</time>
      </trkpt>
      <trkpt lat="42.87104579620063304901123046875" lon="-0.92654286883771419525146484375">
        <ele>810.79998779296875</ele>
        <time>2020-08-21T05:28:05.000Z</time>
      </trkpt>
      <trkpt lat="42.87106373347342014312744140625" lon="-0.9265709482133388519287109375">
        <ele>811</ele>
        <time>2020-08-21T05:28:06.000Z</time>
      </trkpt>
      <trkpt lat="42.87120823748409748077392578125" lon="-0.926753170788288116455078125">
        <ele>811.5999755859375</ele>
        <time>2020-08-21T05:28:13.000Z</time>
      </trkpt>
      <trkpt lat="42.87131753750145435333251953125" lon="-0.92686951160430908203125">
        <ele>812</ele>
        <time>2020-08-21T05:28:18.000Z</time>
      </trkpt>
      <trkpt lat="42.871464304625988006591796875" lon="-0.926997922360897064208984375">
        <ele>812</ele>
        <time>2020-08-21T05:28:24.000Z</time>
      </trkpt>
      <trkpt lat="42.8715419210493564605712890625" lon="-0.9270570985972881317138671875">
        <ele>812.20001220703125</ele>
        <time>2020-08-21T05:28:27.000Z</time>
      </trkpt>
      <trkpt lat="42.8715969063341617584228515625" lon="-0.92709372751414775848388671875">
        <ele>812.5999755859375</ele>
        <time>2020-08-21T05:28:29.000Z</time>
      </trkpt>
      <trkpt lat="42.871838472783565521240234375" lon="-0.92725373804569244384765625">
        <ele>813</ele>
        <time>2020-08-21T05:28:38.000Z</time>
      </trkpt>
      <trkpt lat="42.8718902729451656341552734375" lon="-0.92728818766772747039794921875">
        <ele>813.20001220703125</ele>
        <time>2020-08-21T05:28:40.000Z</time>
      </trkpt>
      <trkpt lat="42.87207962013781070709228515625" lon="-0.9273863397538661956787109375">
        <ele>813.4000244140625</ele>
        <time>2020-08-21T05:28:47.000Z</time>
      </trkpt>
      <trkpt lat="42.87222261540591716766357421875" lon="-0.9274362958967685699462890625">
        <ele>813.79998779296875</ele>
        <time>2020-08-21T05:28:52.000Z</time>
      </trkpt>
      <trkpt lat="42.87239377386868000030517578125" lon="-0.92748499475419521331787109375">
        <ele>814</ele>
        <time>2020-08-21T05:28:58.000Z</time>
      </trkpt>
      <trkpt lat="42.8724811971187591552734375" lon="-0.92750444076955318450927734375">
        <ele>814.20001220703125</ele>
        <time>2020-08-21T05:29:01.000Z</time>
      </trkpt>
      <trkpt lat="42.87253542803227901458740234375" lon="-0.9275214560329914093017578125">
        <ele>814.4000244140625</ele>
        <time>2020-08-21T05:29:03.000Z</time>
      </trkpt>
      <trkpt lat="42.87269887514412403106689453125" lon="-0.9275590069591999053955078125">
        <ele>814.79998779296875</ele>
        <time>2020-08-21T05:29:09.000Z</time>
      </trkpt>
      <trkpt lat="42.87286533974111080169677734375" lon="-0.92759974300861358642578125">
        <ele>815.20001220703125</ele>
        <time>2020-08-21T05:29:15.000Z</time>
      </trkpt>
      <trkpt lat="42.87289115600287914276123046875" lon="-0.9276059456169605255126953125">
        <ele>815.20001220703125</ele>
        <time>2020-08-21T05:29:16.000Z</time>
      </trkpt>
      <trkpt lat="42.8730255179107189178466796875" lon="-0.92762212269008159637451171875">
        <ele>815.5999755859375</ele>
        <time>2020-08-21T05:29:21.000Z</time>
      </trkpt>
      <trkpt lat="42.873194999992847442626953125" lon="-0.9276433289051055908203125">
        <ele>816</ele>
        <time>2020-08-21T05:29:27.000Z</time>
      </trkpt>
      <trkpt lat="42.8732786513864994049072265625" lon="-0.9276525489985942840576171875">
        <ele>816.4000244140625</ele>
        <time>2020-08-21T05:29:30.000Z</time>
      </trkpt>
      <trkpt lat="42.8733805753290653228759765625" lon="-0.9276688098907470703125">
        <ele>816.4000244140625</ele>
        <time>2020-08-21T05:29:34.000Z</time>
      </trkpt>
      <trkpt lat="42.8735136799514293670654296875" lon="-0.9276783652603626251220703125">
        <ele>816.79998779296875</ele>
        <time>2020-08-21T05:29:39.000Z</time>
      </trkpt>
      <trkpt lat="42.873659692704677581787109375" lon="-0.92768264003098011016845703125">
        <ele>817.20001220703125</ele>
        <time>2020-08-21T05:29:44.000Z</time>
      </trkpt>
      <trkpt lat="42.87369095720350742340087890625" lon="-0.92767861671745777130126953125">
        <ele>817.4000244140625</ele>
        <time>2020-08-21T05:29:45.000Z</time>
      </trkpt>
      <trkpt lat="42.87385859526693820953369140625" lon="-0.9276689775288105010986328125">
        <ele>817.79998779296875</ele>
        <time>2020-08-21T05:29:51.000Z</time>
      </trkpt>
      <trkpt lat="42.87397627718746662139892578125" lon="-0.9276647865772247314453125">
        <ele>818.5999755859375</ele>
        <time>2020-08-21T05:29:56.000Z</time>
      </trkpt>
      <trkpt lat="42.87404852919280529022216796875" lon="-0.92765875160694122314453125">
        <ele>818.79998779296875</ele>
        <time>2020-08-21T05:29:59.000Z</time>
      </trkpt>
      <trkpt lat="42.8741495311260223388671875" lon="-0.92766118235886096954345703125">
        <ele>819</ele>
        <time>2020-08-21T05:30:04.000Z</time>
      </trkpt>
      <trkpt lat="42.8742529638111591339111328125" lon="-0.9276626072824001312255859375">
        <ele>819.20001220703125</ele>
        <time>2020-08-21T05:30:08.000Z</time>
      </trkpt>
      <trkpt lat="42.8743508644402027130126953125" lon="-0.92766704969108104705810546875">
        <ele>819.5999755859375</ele>
        <time>2020-08-21T05:30:12.000Z</time>
      </trkpt>
      <trkpt lat="42.87438782863318920135498046875" lon="-0.92767626978456974029541015625">
        <ele>819.5999755859375</ele>
        <time>2020-08-21T05:30:14.000Z</time>
      </trkpt>
      <trkpt lat="42.87450651638209819793701171875" lon="-0.9276994876563549041748046875">
        <ele>820.20001220703125</ele>
        <time>2020-08-21T05:30:20.000Z</time>
      </trkpt>
      <trkpt lat="42.8746569715440273284912109375" lon="-0.927766375243663787841796875">
        <ele>820.20001220703125</ele>
        <time>2020-08-21T05:30:26.000Z</time>
      </trkpt>
      <trkpt lat="42.87481798790395259857177734375" lon="-0.927899144589900970458984375">
        <ele>820.5999755859375</ele>
        <time>2020-08-21T05:30:32.000Z</time>
      </trkpt>
      <trkpt lat="42.874937094748020172119140625" lon="-0.9280206821858882904052734375">
        <ele>820.79998779296875</ele>
        <time>2020-08-21T05:30:37.000Z</time>
      </trkpt>
      <trkpt lat="42.87498679943382740020751953125" lon="-0.92806854285299777984619140625">
        <ele>821</ele>
        <time>2020-08-21T05:30:39.000Z</time>
      </trkpt>
      <trkpt lat="42.87513012997806072235107421875" lon="-0.92816962860524654388427734375">
        <ele>821</ele>
        <time>2020-08-21T05:30:44.000Z</time>
      </trkpt>
      <trkpt lat="42.87528066895902156829833984375" lon="-0.9282946027815341949462890625">
        <ele>821</ele>
        <time>2020-08-21T05:30:50.000Z</time>
      </trkpt>
      <trkpt lat="42.87545911967754364013671875" lon="-0.9284796752035617828369140625">
        <ele>821.5999755859375</ele>
        <time>2020-08-21T05:30:58.000Z</time>
      </trkpt>
      <trkpt lat="42.87554604001343250274658203125" lon="-0.92851839959621429443359375">
        <ele>821.79998779296875</ele>
        <time>2020-08-21T05:31:01.000Z</time>
      </trkpt>
      <trkpt lat="42.87564150989055633544921875" lon="-0.92854446731507778167724609375">
        <ele>821.79998779296875</ele>
        <time>2020-08-21T05:31:04.000Z</time>
      </trkpt>
      <trkpt lat="42.875851057469844818115234375" lon="-0.92859241180121898651123046875">
        <ele>822.4000244140625</ele>
        <time>2020-08-21T05:31:11.000Z</time>
      </trkpt>
      <trkpt lat="42.87606127560138702392578125" lon="-0.92862627469003200531005859375">
        <ele>822.79998779296875</ele>
        <time>2020-08-21T05:31:18.000Z</time>
      </trkpt>
      <trkpt lat="42.87611852400004863739013671875" lon="-0.92863901518285274505615234375">
        <ele>823.20001220703125</ele>
        <time>2020-08-21T05:31:20.000Z</time>
      </trkpt>
      <trkpt lat="42.876257412135601043701171875" lon="-0.9286781586706638336181640625">
        <ele>823.4000244140625</ele>
        <time>2020-08-21T05:31:25.000Z</time>
      </trkpt>
      <trkpt lat="42.87643837742507457733154296875" lon="-0.92876658774912357330322265625">
        <ele>824</ele>
        <time>2020-08-21T05:31:32.000Z</time>
      </trkpt>
      <trkpt lat="42.87662194110453128814697265625" lon="-0.928873457014560699462890625">
        <ele>824.20001220703125</ele>
        <time>2020-08-21T05:31:39.000Z</time>
      </trkpt>
      <trkpt lat="42.8768000565469264984130859375" lon="-0.92901435680687427520751953125">
        <ele>824.20001220703125</ele>
        <time>2020-08-21T05:31:46.000Z</time>
      </trkpt>
      <trkpt lat="42.87694414146244525909423828125" lon="-0.92914762906730175018310546875">
        <ele>824.4000244140625</ele>
        <time>2020-08-21T05:31:52.000Z</time>
      </trkpt>
      <trkpt lat="42.877021841704845428466796875" lon="-0.92921183444559574127197265625">
        <ele>824.5999755859375</ele>
        <time>2020-08-21T05:31:55.000Z</time>
      </trkpt>
      <trkpt lat="42.87709929049015045166015625" lon="-0.929277129471302032470703125">
        <ele>824.79998779296875</ele>
        <time>2020-08-21T05:31:58.000Z</time>
      </trkpt>
      <trkpt lat="42.877275310456752777099609375" lon="-0.92940545640885829925537109375">
        <ele>825.20001220703125</ele>
        <time>2020-08-21T05:32:05.000Z</time>
      </trkpt>
      <trkpt lat="42.87741872482001781463623046875" lon="-0.9295364655554294586181640625">
        <ele>825.5999755859375</ele>
        <time>2020-08-21T05:32:11.000Z</time>
      </trkpt>
      <trkpt lat="42.87760086357593536376953125" lon="-0.92965833842754364013671875">
        <ele>826</ele>
        <time>2020-08-21T05:32:18.000Z</time>
      </trkpt>
      <trkpt lat="42.8776245005428791046142578125" lon="-0.92967719770967960357666015625">
        <ele>826</ele>
        <time>2020-08-21T05:32:19.000Z</time>
      </trkpt>
      <trkpt lat="42.8777475468814373016357421875" lon="-0.9297694824635982513427734375">
        <ele>826</ele>
        <time>2020-08-21T05:32:24.000Z</time>
      </trkpt>
      <trkpt lat="42.8779078088700771331787109375" lon="-0.929871238768100738525390625">
        <ele>826.20001220703125</ele>
        <time>2020-08-21T05:32:30.000Z</time>
      </trkpt>
      <trkpt lat="42.8780935518443584442138671875" lon="-0.92997157014906406402587890625">
        <ele>826.79998779296875</ele>
        <time>2020-08-21T05:32:37.000Z</time>
      </trkpt>
      <trkpt lat="42.87820310331881046295166015625" lon="-0.9299974702298641204833984375">
        <ele>827.20001220703125</ele>
        <time>2020-08-21T05:32:41.000Z</time>
      </trkpt>
      <trkpt lat="42.87836437113583087921142578125" lon="-0.9300242923200130462646484375">
        <ele>827.5999755859375</ele>
        <time>2020-08-21T05:32:47.000Z</time>
      </trkpt>
      <trkpt lat="42.8785295784473419189453125" lon="-0.93006469309329986572265625">
        <ele>828.20001220703125</ele>
        <time>2020-08-21T05:32:53.000Z</time>
      </trkpt>
      <trkpt lat="42.87864281795918941497802734375" lon="-0.93011020682752132415771484375">
        <ele>828.5999755859375</ele>
        <time>2020-08-21T05:32:57.000Z</time>
      </trkpt>
      <trkpt lat="42.87885907106101512908935546875" lon="-0.93022470362484455108642578125">
        <ele>829</ele>
        <time>2020-08-21T05:33:05.000Z</time>
      </trkpt>
      <trkpt lat="42.87896133027970790863037109375" lon="-0.930298380553722381591796875">
        <ele>829.5999755859375</ele>
        <time>2020-08-21T05:33:09.000Z</time>
      </trkpt>
      <trkpt lat="42.87908404134213924407958984375" lon="-0.93039502389729022979736328125">
        <ele>829.79998779296875</ele>
        <time>2020-08-21T05:33:14.000Z</time>
      </trkpt>
      <trkpt lat="42.8792368434369564056396484375" lon="-0.93058445490896701812744140625">
        <ele>830.20001220703125</ele>
        <time>2020-08-21T05:33:21.000Z</time>
      </trkpt>
      <trkpt lat="42.879336588084697723388671875" lon="-0.93071940355002880096435546875">
        <ele>830.20001220703125</ele>
        <time>2020-08-21T05:33:26.000Z</time>
      </trkpt>
      <trkpt lat="42.8794423677027225494384765625" lon="-0.9309077449142932891845703125">
        <ele>830</ele>
        <time>2020-08-21T05:33:32.000Z</time>
      </trkpt>
      <trkpt lat="42.8795221634209156036376953125" lon="-0.93108988367021083831787109375">
        <ele>830.5999755859375</ele>
        <time>2020-08-21T05:33:37.000Z</time>
      </trkpt>
      <trkpt lat="42.8795516677200794219970703125" lon="-0.93116716481745243072509765625">
        <ele>830.5999755859375</ele>
        <time>2020-08-21T05:33:39.000Z</time>
      </trkpt>
      <trkpt lat="42.8796445392072200775146484375" lon="-0.93138660304248332977294921875">
        <ele>830.5999755859375</ele>
        <time>2020-08-21T05:33:45.000Z</time>
      </trkpt>
      <trkpt lat="42.87978275679051876068115234375" lon="-0.93171735294163227081298828125">
        <ele>830</ele>
        <time>2020-08-21T05:33:53.000Z</time>
      </trkpt>
      <trkpt lat="42.87987126968801021575927734375" lon="-0.931935198605060577392578125">
        <ele>830</ele>
        <time>2020-08-21T05:33:59.000Z</time>
      </trkpt>
      <trkpt lat="42.88002423942089080810546875" lon="-0.9323390386998653411865234375">
        <ele>830.5999755859375</ele>
        <time>2020-08-21T05:34:10.000Z</time>
      </trkpt>
      <trkpt lat="42.8801648877561092376708984375" lon="-0.93268923461437225341796875">
        <ele>831.4000244140625</ele>
        <time>2020-08-21T05:34:20.000Z</time>
      </trkpt>
      <trkpt lat="42.880265302956104278564453125" lon="-0.93291780911386013031005859375">
        <ele>832</ele>
        <time>2020-08-21T05:34:27.000Z</time>
      </trkpt>
      <trkpt lat="42.88030545227229595184326171875" lon="-0.93297245912253856658935546875">
        <ele>832</ele>
        <time>2020-08-21T05:34:29.000Z</time>
      </trkpt>
      <trkpt lat="42.8804683126509189605712890625" lon="-0.9331343136727809906005859375">
        <ele>832.5999755859375</ele>
        <time>2020-08-21T05:34:36.000Z</time>
      </trkpt>
      <trkpt lat="42.88065254688262939453125" lon="-0.93325249850749969482421875">
        <ele>833</ele>
        <time>2020-08-21T05:34:43.000Z</time>
      </trkpt>
      <trkpt lat="42.88067962042987346649169921875" lon="-0.9332650713622570037841796875">
        <ele>833</ele>
        <time>2020-08-21T05:34:44.000Z</time>
      </trkpt>
      <trkpt lat="42.88083300925791263580322265625" lon="-0.9333619661629199981689453125">
        <ele>833.5999755859375</ele>
        <time>2020-08-21T05:34:50.000Z</time>
      </trkpt>
      <trkpt lat="42.8809542953968048095703125" lon="-0.93346179462969303131103515625">
        <ele>834.20001220703125</ele>
        <time>2020-08-21T05:34:55.000Z</time>
      </trkpt>
      <trkpt lat="42.88100299425423145294189453125" lon="-0.9335051290690898895263671875">
        <ele>834.5999755859375</ele>
        <time>2020-08-21T05:34:57.000Z</time>
      </trkpt>
      <trkpt lat="42.88117029704153537750244140625" lon="-0.9336472861468791961669921875">
        <ele>834.4000244140625</ele>
        <time>2020-08-21T05:35:04.000Z</time>
      </trkpt>
      <trkpt lat="42.88131572306156158447265625" lon="-0.93377150595188140869140625">
        <ele>835</ele>
        <time>2020-08-21T05:35:10.000Z</time>
      </trkpt>
      <trkpt lat="42.8814154677093029022216796875" lon="-0.93385507352650165557861328125">
        <ele>835</ele>
        <time>2020-08-21T05:35:14.000Z</time>
      </trkpt>
      <trkpt lat="42.88143818266689777374267578125" lon="-0.93388415873050689697265625">
        <ele>835</ele>
        <time>2020-08-21T05:35:15.000Z</time>
      </trkpt>
      <trkpt lat="42.8815328143537044525146484375" lon="-0.93398901633918285369873046875">
        <ele>835.20001220703125</ele>
        <time>2020-08-21T05:35:19.000Z</time>
      </trkpt>
      <trkpt lat="42.8815546073019504547119140625" lon="-0.93402405269443988800048828125">
        <ele>835.4000244140625</ele>
        <time>2020-08-21T05:35:20.000Z</time>
      </trkpt>
      <trkpt lat="42.8816592134535312652587890625" lon="-0.9341565705835819244384765625">
        <ele>835.5999755859375</ele>
        <time>2020-08-21T05:35:25.000Z</time>
      </trkpt>
      <trkpt lat="42.88176457397639751434326171875" lon="-0.9343215264379978179931640625">
        <ele>835.79998779296875</ele>
        <time>2020-08-21T05:35:30.000Z</time>
      </trkpt>
      <trkpt lat="42.8818644024431705474853515625" lon="-0.93448153696954250335693359375">
        <ele>836.4000244140625</ele>
        <time>2020-08-21T05:35:35.000Z</time>
      </trkpt>
      <trkpt lat="42.8818828426301479339599609375" lon="-0.9345106221735477447509765625">
        <ele>836.4000244140625</ele>
        <time>2020-08-21T05:35:36.000Z</time>
      </trkpt>
      <trkpt lat="42.882023490965366363525390625" lon="-0.9346868097782135009765625">
        <ele>837.20001220703125</ele>
        <time>2020-08-21T05:35:42.000Z</time>
      </trkpt>
      <trkpt lat="42.8821302764117717742919921875" lon="-0.9347925893962383270263671875">
        <ele>837.5999755859375</ele>
        <time>2020-08-21T05:35:46.000Z</time>
      </trkpt>
      <trkpt lat="42.88218333385884761810302734375" lon="-0.93484313227236270904541015625">
        <ele>837.79998779296875</ele>
        <time>2020-08-21T05:35:48.000Z</time>
      </trkpt>
      <trkpt lat="42.8823830746114253997802734375" lon="-0.93497590161859989166259765625">
        <ele>838</ele>
        <time>2020-08-21T05:35:55.000Z</time>
      </trkpt>
      <trkpt lat="42.88257108069956302642822265625" lon="-0.93508369289338588714599609375">
        <ele>838.4000244140625</ele>
        <time>2020-08-21T05:36:01.000Z</time>
      </trkpt>
      <trkpt lat="42.8827502019703388214111328125" lon="-0.93518980778753757476806640625">
        <ele>838.4000244140625</ele>
        <time>2020-08-21T05:36:07.000Z</time>
      </trkpt>
      <trkpt lat="42.88292664103209972381591796875" lon="-0.93529592268168926239013671875">
        <ele>838.4000244140625</ele>
        <time>2020-08-21T05:36:13.000Z</time>
      </trkpt>
      <trkpt lat="42.88310400210320949554443359375" lon="-0.93542047776281833648681640625">
        <ele>838.79998779296875</ele>
        <time>2020-08-21T05:36:19.000Z</time>
      </trkpt>
      <trkpt lat="42.8831334225833415985107421875" lon="-0.93544310890138149261474609375">
        <ele>838.79998779296875</ele>
        <time>2020-08-21T05:36:20.000Z</time>
      </trkpt>
      <trkpt lat="42.88329142145812511444091796875" lon="-0.93553547747433185577392578125">
        <ele>839.20001220703125</ele>
        <time>2020-08-21T05:36:25.000Z</time>
      </trkpt>
      <trkpt lat="42.88348537869751453399658203125" lon="-0.9356307797133922576904296875">
        <ele>839</ele>
        <time>2020-08-21T05:36:31.000Z</time>
      </trkpt>
      <trkpt lat="42.8836591355502605438232421875" lon="-0.93574871309101581573486328125">
        <ele>838.79998779296875</ele>
        <time>2020-08-21T05:36:37.000Z</time>
      </trkpt>
      <trkpt lat="42.883809842169284820556640625" lon="-0.9359261579811573028564453125">
        <ele>839.20001220703125</ele>
        <time>2020-08-21T05:36:43.000Z</time>
      </trkpt>
      <trkpt lat="42.88399969227612018585205078125" lon="-0.93614769168198108673095703125">
        <ele>839.4000244140625</ele>
        <time>2020-08-21T05:36:51.000Z</time>
      </trkpt>
      <trkpt lat="42.88411670364439487457275390625" lon="-0.9363646991550922393798828125">
        <ele>839.79998779296875</ele>
        <time>2020-08-21T05:36:57.000Z</time>
      </trkpt>
      <trkpt lat="42.8841875307261943817138671875" lon="-0.9365558065474033355712890625">
        <ele>839.79998779296875</ele>
        <time>2020-08-21T05:37:02.000Z</time>
      </trkpt>
      <trkpt lat="42.88422248326241970062255859375" lon="-0.93663669191300868988037109375">
        <ele>840</ele>
        <time>2020-08-21T05:37:04.000Z</time>
      </trkpt>
      <trkpt lat="42.88425953127443790435791015625" lon="-0.93671279959380626678466796875">
        <ele>840.4000244140625</ele>
        <time>2020-08-21T05:37:06.000Z</time>
      </trkpt>
      <trkpt lat="42.88429641164839267730712890625" lon="-0.93678228557109832763671875">
        <ele>840.79998779296875</ele>
        <time>2020-08-21T05:37:08.000Z</time>
      </trkpt>
      <trkpt lat="42.88437587209045886993408203125" lon="-0.93697716481983661651611328125">
        <ele>840.5999755859375</ele>
        <time>2020-08-21T05:37:13.000Z</time>
      </trkpt>
      <trkpt lat="42.884506545960903167724609375" lon="-0.937236249446868896484375">
        <ele>841</ele>
        <time>2020-08-21T05:37:20.000Z</time>
      </trkpt>
      <trkpt lat="42.88461660034954547882080078125" lon="-0.93753322027623653411865234375">
        <ele>841.4000244140625</ele>
        <time>2020-08-21T05:37:27.000Z</time>
      </trkpt>
      <trkpt lat="42.88473017513751983642578125" lon="-0.937757603824138641357421875">
        <ele>841.4000244140625</ele>
        <time>2020-08-21T05:37:33.000Z</time>
      </trkpt>
      <trkpt lat="42.88482673466205596923828125" lon="-0.9379696659743785858154296875">
        <ele>841.5999755859375</ele>
        <time>2020-08-21T05:37:39.000Z</time>
      </trkpt>
      <trkpt lat="42.8848463483154773712158203125" lon="-0.9379978291690349578857421875">
        <ele>841.5999755859375</ele>
        <time>2020-08-21T05:37:40.000Z</time>
      </trkpt>
      <trkpt lat="42.884939052164554595947265625" lon="-0.93815113417804241180419921875">
        <ele>842</ele>
        <time>2020-08-21T05:37:45.000Z</time>
      </trkpt>
      <trkpt lat="42.8850552253425121307373046875" lon="-0.938294045627117156982421875">
        <ele>842.5999755859375</ele>
        <time>2020-08-21T05:37:50.000Z</time>
      </trkpt>
      <trkpt lat="42.8851477615535259246826171875" lon="-0.93840963207185268402099609375">
        <ele>843</ele>
        <time>2020-08-21T05:37:54.000Z</time>
      </trkpt>
      <trkpt lat="42.88520350120961666107177734375" lon="-0.93845388852059841156005859375">
        <ele>843.20001220703125</ele>
        <time>2020-08-21T05:37:56.000Z</time>
      </trkpt>
      <trkpt lat="42.88540282286703586578369140625" lon="-0.93861079774796962738037109375">
        <ele>843.5999755859375</ele>
        <time>2020-08-21T05:38:03.000Z</time>
      </trkpt>
      <trkpt lat="42.88551279343664646148681640625" lon="-0.93875664286315441131591796875">
        <ele>844.20001220703125</ele>
        <time>2020-08-21T05:38:08.000Z</time>
      </trkpt>
      <trkpt lat="42.88553810678422451019287109375" lon="-0.9387786872684955596923828125">
        <ele>844.20001220703125</ele>
        <time>2020-08-21T05:38:09.000Z</time>
      </trkpt>
      <trkpt lat="42.885681353509426116943359375" lon="-0.938882119953632354736328125">
        <ele>844.4000244140625</ele>
        <time>2020-08-21T05:38:14.000Z</time>
      </trkpt>
      <trkpt lat="42.885857708752155303955078125" lon="-0.9390425495803356170654296875">
        <ele>845.20001220703125</ele>
        <time>2020-08-21T05:38:21.000Z</time>
      </trkpt>
      <trkpt lat="42.88589157164096832275390625" lon="-0.939102061092853546142578125">
        <ele>845.4000244140625</ele>
        <time>2020-08-21T05:38:23.000Z</time>
      </trkpt>
      <trkpt lat="42.8859655000269412994384765625" lon="-0.93927430920302867889404296875">
        <ele>846.20001220703125</ele>
        <time>2020-08-21T05:38:28.000Z</time>
      </trkpt>
      <trkpt lat="42.88601092994213104248046875" lon="-0.9395067393779754638671875">
        <ele>846.20001220703125</ele>
        <time>2020-08-21T05:38:34.000Z</time>
      </trkpt>
      <trkpt lat="42.8860504925251007080078125" lon="-0.93970681540668010711669921875">
        <ele>846.5999755859375</ele>
        <time>2020-08-21T05:38:39.000Z</time>
      </trkpt>
      <trkpt lat="42.886086367070674896240234375" lon="-0.93994385562837123870849609375">
        <ele>847</ele>
        <time>2020-08-21T05:38:45.000Z</time>
      </trkpt>
      <trkpt lat="42.8861331380903720855712890625" lon="-0.94008676707744598388671875">
        <ele>847.20001220703125</ele>
        <time>2020-08-21T05:38:49.000Z</time>
      </trkpt>
      <trkpt lat="42.88618795573711395263671875" lon="-0.94021526165306568145751953125">
        <ele>847.79998779296875</ele>
        <time>2020-08-21T05:38:53.000Z</time>
      </trkpt>
      <trkpt lat="42.88625526241958141326904296875" lon="-0.94033294357359409332275390625">
        <ele>848.20001220703125</ele>
        <time>2020-08-21T05:38:57.000Z</time>
      </trkpt>
      <trkpt lat="42.88637998513877391815185546875" lon="-0.94048616476356983184814453125">
        <ele>848.4000244140625</ele>
        <time>2020-08-21T05:39:03.000Z</time>
      </trkpt>
      <trkpt lat="42.88646162487566471099853515625" lon="-0.940555147826671600341796875">
        <ele>848.5999755859375</ele>
        <time>2020-08-21T05:39:06.000Z</time>
      </trkpt>
      <trkpt lat="42.8865448571741580963134765625" lon="-0.94061273150146007537841796875">
        <ele>849</ele>
        <time>2020-08-21T05:39:09.000Z</time>
      </trkpt>
      <trkpt lat="42.88675582967698574066162109375" lon="-0.94069160521030426025390625">
        <ele>849.79998779296875</ele>
        <time>2020-08-21T05:39:16.000Z</time>
      </trkpt>
      <trkpt lat="42.88696135394275188446044921875" lon="-0.94073695130646228790283203125">
        <ele>849.79998779296875</ele>
        <time>2020-08-21T05:39:23.000Z</time>
      </trkpt>
      <trkpt lat="42.88709663785994052886962890625" lon="-0.94073678366839885711669921875">
        <ele>850.4000244140625</ele>
        <time>2020-08-21T05:39:28.000Z</time>
      </trkpt>
      <trkpt lat="42.887160591781139373779296875" lon="-0.94072538428008556365966796875">
        <ele>850.5999755859375</ele>
        <time>2020-08-21T05:39:31.000Z</time>
      </trkpt>
      <trkpt lat="42.88718649186193943023681640625" lon="-0.94072379171848297119140625">
        <ele>850.79998779296875</ele>
        <time>2020-08-21T05:39:32.000Z</time>
      </trkpt>
      <trkpt lat="42.8872948698699474334716796875" lon="-0.94071012921631336212158203125">
        <ele>850.79998779296875</ele>
        <time>2020-08-21T05:39:36.000Z</time>
      </trkpt>
      <trkpt lat="42.88749461062252521514892578125" lon="-0.94066486693918704986572265625">
        <ele>851.4000244140625</ele>
        <time>2020-08-21T05:39:42.000Z</time>
      </trkpt>
      <trkpt lat="42.88753149099647998809814453125" lon="-0.9406478516757488250732421875">
        <ele>851.4000244140625</ele>
        <time>2020-08-21T05:39:43.000Z</time>
      </trkpt>
      <trkpt lat="42.8876737318933010101318359375" lon="-0.94053737819194793701171875">
        <ele>851.4000244140625</ele>
        <time>2020-08-21T05:39:48.000Z</time>
      </trkpt>
      <trkpt lat="42.88779795169830322265625" lon="-0.94032690860331058502197265625">
        <ele>851.79998779296875</ele>
        <time>2020-08-21T05:39:54.000Z</time>
      </trkpt>
      <trkpt lat="42.887883447110652923583984375" lon="-0.940036810934543609619140625">
        <ele>852.20001220703125</ele>
        <time>2020-08-21T05:40:01.000Z</time>
      </trkpt>
      <trkpt lat="42.887896858155727386474609375" lon="-0.93999649398028850555419921875">
        <ele>852.4000244140625</ele>
        <time>2020-08-21T05:40:02.000Z</time>
      </trkpt>
      <trkpt lat="42.88800783455371856689453125" lon="-0.93973564915359020233154296875">
        <ele>852.79998779296875</ele>
        <time>2020-08-21T05:40:09.000Z</time>
      </trkpt>
      <trkpt lat="42.888115458190441131591796875" lon="-0.9395481459796428680419921875">
        <ele>853</ele>
        <time>2020-08-21T05:40:15.000Z</time>
      </trkpt>
      <trkpt lat="42.8882430307567119598388671875" lon="-0.939352847635746002197265625">
        <ele>852.79998779296875</ele>
        <time>2020-08-21T05:40:21.000Z</time>
      </trkpt>
      <trkpt lat="42.88838711567223072052001953125" lon="-0.93912544660270214080810546875">
        <ele>853</ele>
        <time>2020-08-21T05:40:28.000Z</time>
      </trkpt>
      <trkpt lat="42.88851602934300899505615234375" lon="-0.93890726566314697265625">
        <ele>844.4000244140625</ele>
        <time>2020-08-21T05:40:35.000Z</time>
      </trkpt>
      <trkpt lat="42.88861929439008235931396484375" lon="-0.93874557875096797943115234375">
        <ele>853.5999755859375</ele>
        <time>2020-08-21T05:40:40.000Z</time>
      </trkpt>
      <trkpt lat="42.888706214725971221923828125" lon="-0.93862504698336124420166015625">
        <ele>854.20001220703125</ele>
        <time>2020-08-21T05:40:44.000Z</time>
      </trkpt>
      <trkpt lat="42.8887405805289745330810546875" lon="-0.9385728277266025543212890625">
        <ele>854.4000244140625</ele>
        <time>2020-08-21T05:40:46.000Z</time>
      </trkpt>
      <trkpt lat="42.88879799656569957733154296875" lon="-0.93846210278570652008056640625">
        <ele>854.20001220703125</ele>
        <time>2020-08-21T05:40:51.000Z</time>
      </trkpt>
      <trkpt lat="42.8888009302318096160888671875" lon="-0.93844517134130001068115234375">
        <ele>854.20001220703125</ele>
        <time>2020-08-21T05:40:52.000Z</time>
      </trkpt>
      <trkpt lat="42.88882699795067310333251953125" lon="-0.93839387409389019012451171875">
        <ele>854.4000244140625</ele>
        <time>2020-08-21T05:40:56.000Z</time>
      </trkpt>
      <trkpt lat="42.8888086415827274322509765625" lon="-0.93839353881776332855224609375">
        <ele>854.5999755859375</ele>
        <time>2020-08-21T05:41:02.000Z</time>
      </trkpt>
      <trkpt lat="42.88879397325217723846435546875" lon="-0.93840091489255428314208984375">
        <ele>854.4000244140625</ele>
        <time>2020-08-21T05:41:12.000Z</time>
      </trkpt>
      <trkpt lat="42.88879900239408016204833984375" lon="-0.93839873559772968292236328125">
        <ele>854.20001220703125</ele>
        <time>2020-08-21T05:41:24.000Z</time>
      </trkpt>
      <trkpt lat="42.888789363205432891845703125" lon="-0.9384015016257762908935546875">
        <ele>854.4000244140625</ele>
        <time>2020-08-21T05:41:33.000Z</time>
      </trkpt>
      <trkpt lat="42.88878927938640117645263671875" lon="-0.9384061954915523529052734375">
        <ele>854.4000244140625</ele>
        <time>2020-08-21T05:41:48.000Z</time>
      </trkpt>
      <trkpt lat="42.88878927938640117645263671875" lon="-0.93840678222477436065673828125">
        <ele>854.5999755859375</ele>
        <time>2020-08-21T05:42:01.000Z</time>
      </trkpt>
      <trkpt lat="42.88879229687154293060302734375" lon="-0.93840845860540866851806640625">
        <ele>854.20001220703125</ele>
        <time>2020-08-21T05:42:22.000Z</time>
      </trkpt>
      <trkpt lat="42.8887955658137798309326171875" lon="-0.938412062823772430419921875">
        <ele>854.20001220703125</ele>
        <time>2020-08-21T05:42:30.000Z</time>
      </trkpt>
      <trkpt lat="42.888796068727970123291015625" lon="-0.93841130845248699188232421875">
        <ele>854.4000244140625</ele>
        <time>2020-08-21T05:42:39.000Z</time>
      </trkpt>
      <trkpt lat="42.88879883475601673126220703125" lon="-0.93841373920440673828125">
        <ele>854.4000244140625</ele>
        <time>2020-08-21T05:43:13.000Z</time>
      </trkpt>
      <trkpt lat="42.88879497908055782318115234375" lon="-0.93840979970991611480712890625">
        <ele>853.79998779296875</ele>
        <time>2020-08-21T05:43:44.000Z</time>
      </trkpt>
      <trkpt lat="42.88879833184182643890380859375" lon="-0.9384159184992313385009765625">
        <ele>854</ele>
        <time>2020-08-21T05:43:52.000Z</time>
      </trkpt>
      <trkpt lat="42.88879799656569957733154296875" lon="-0.938418097794055938720703125">
        <ele>854</ele>
        <time>2020-08-21T05:44:01.000Z</time>
      </trkpt>
      <trkpt lat="42.88881056942045688629150390625" lon="-0.9384196065366268157958984375">
        <ele>854</ele>
        <time>2020-08-21T05:44:18.000Z</time>
      </trkpt>
      <trkpt lat="42.88895943202078342437744140625" lon="-0.93836017884314060211181640625">
        <ele>854.20001220703125</ele>
        <time>2020-08-21T05:44:25.000Z</time>
      </trkpt>
      <trkpt lat="42.88905984722077846527099609375" lon="-0.9383139945566654205322265625">
        <ele>854.4000244140625</ele>
        <time>2020-08-21T05:44:30.000Z</time>
      </trkpt>
      <trkpt lat="42.889093793928623199462890625" lon="-0.9383116476237773895263671875">
        <ele>854.5999755859375</ele>
        <time>2020-08-21T05:44:32.000Z</time>
      </trkpt>
      <trkpt lat="42.889235951006412506103515625" lon="-0.938312150537967681884765625">
        <ele>854.5999755859375</ele>
        <time>2020-08-21T05:44:38.000Z</time>
      </trkpt>
      <trkpt lat="42.88933745585381984710693359375" lon="-0.9383572451770305633544921875">
        <ele>854.5999755859375</ele>
        <time>2020-08-21T05:44:42.000Z</time>
      </trkpt>
      <trkpt lat="42.88936696015298366546630859375" lon="-0.9383719973266124725341796875">
        <ele>854.5999755859375</ele>
        <time>2020-08-21T05:44:43.000Z</time>
      </trkpt>
      <trkpt lat="42.88956276141107082366943359375" lon="-0.93848406337201595306396484375">
        <ele>854.5999755859375</ele>
        <time>2020-08-21T05:44:49.000Z</time>
      </trkpt>
      <trkpt lat="42.8896314091980457305908203125" lon="-0.93854256905615329742431640625">
        <ele>854</ele>
        <time>2020-08-21T05:44:51.000Z</time>
      </trkpt>
      <trkpt lat="42.88974984548985958099365234375" lon="-0.9387195110321044921875">
        <ele>853.79998779296875</ele>
        <time>2020-08-21T05:44:55.000Z</time>
      </trkpt>
      <trkpt lat="42.889809943735599517822265625" lon="-0.9389081038534641265869140625">
        <ele>853.20001220703125</ele>
        <time>2020-08-21T05:44:58.000Z</time>
      </trkpt>
      <trkpt lat="42.88982913829386234283447265625" lon="-0.9389778412878513336181640625">
        <ele>853</ele>
        <time>2020-08-21T05:44:59.000Z</time>
      </trkpt>
      <trkpt lat="42.889845483005046844482421875" lon="-0.93904741108417510986328125">
        <ele>853</ele>
        <time>2020-08-21T05:45:00.000Z</time>
      </trkpt>
      <trkpt lat="42.88986819796264171600341796875" lon="-0.93911002390086650848388671875">
        <ele>852.79998779296875</ele>
        <time>2020-08-21T05:45:01.000Z</time>
      </trkpt>
      <trkpt lat="42.8899566270411014556884765625" lon="-0.93926575966179370880126953125">
        <ele>852.4000244140625</ele>
        <time>2020-08-21T05:45:04.000Z</time>
      </trkpt>
      <trkpt lat="42.89008260704576969146728515625" lon="-0.93945468775928020477294921875">
        <ele>852.4000244140625</ele>
        <time>2020-08-21T05:45:09.000Z</time>
      </trkpt>
      <trkpt lat="42.89014421403408050537109375" lon="-0.939531214535236358642578125">
        <ele>852.4000244140625</ele>
        <time>2020-08-21T05:45:12.000Z</time>
      </trkpt>
      <trkpt lat="42.89019609801471233367919921875" lon="-0.93957974575459957122802734375">
        <ele>852.5999755859375</ele>
        <time>2020-08-21T05:45:14.000Z</time>
      </trkpt>
      <trkpt lat="42.8903353214263916015625" lon="-0.9396554343402385711669921875">
        <ele>853</ele>
        <time>2020-08-21T05:45:19.000Z</time>
      </trkpt>
      <trkpt lat="42.8904786519706249237060546875" lon="-0.93967814929783344268798828125">
        <ele>853.4000244140625</ele>
        <time>2020-08-21T05:45:23.000Z</time>
      </trkpt>
      <trkpt lat="42.89051125757396221160888671875" lon="-0.9396785683929920196533203125">
        <ele>853.5999755859375</ele>
        <time>2020-08-21T05:45:24.000Z</time>
      </trkpt>
      <trkpt lat="42.89065240882337093353271484375" lon="-0.93964981846511363983154296875">
        <ele>854</ele>
        <time>2020-08-21T05:45:29.000Z</time>
      </trkpt>
      <trkpt lat="42.8908115811645984649658203125" lon="-0.93959516845643520355224609375">
        <ele>854.4000244140625</ele>
        <time>2020-08-21T05:45:35.000Z</time>
      </trkpt>
      <trkpt lat="42.89083781652152538299560546875" lon="-0.9395856969058513641357421875">
        <ele>854.5999755859375</ele>
        <time>2020-08-21T05:45:36.000Z</time>
      </trkpt>
      <trkpt lat="42.8910268284380435943603515625" lon="-0.93948536552488803863525390625">
        <ele>855.20001220703125</ele>
        <time>2020-08-21T05:45:44.000Z</time>
      </trkpt>
      <trkpt lat="42.8912414051592350006103515625" lon="-0.93937866389751434326171875">
        <ele>855.5999755859375</ele>
        <time>2020-08-21T05:45:53.000Z</time>
      </trkpt>
      <trkpt lat="42.89142538793385028839111328125" lon="-0.9393305517733097076416015625">
        <ele>856</ele>
        <time>2020-08-21T05:46:00.000Z</time>
      </trkpt>
      <trkpt lat="42.8915726579725742340087890625" lon="-0.9393362514674663543701171875">
        <ele>856</ele>
        <time>2020-08-21T05:46:05.000Z</time>
      </trkpt>
      <trkpt lat="42.89177776314318180084228515625" lon="-0.93937422148883342742919921875">
        <ele>856.5999755859375</ele>
        <time>2020-08-21T05:46:12.000Z</time>
      </trkpt>
      <trkpt lat="42.8918341733515262603759765625" lon="-0.9393798373639583587646484375">
        <ele>856.5999755859375</ele>
        <time>2020-08-21T05:46:14.000Z</time>
      </trkpt>
      <trkpt lat="42.8919754922389984130859375" lon="-0.93941059894859790802001953125">
        <ele>856.79998779296875</ele>
        <time>2020-08-21T05:46:19.000Z</time>
      </trkpt>
      <trkpt lat="42.89215545170009136199951171875" lon="-0.93948603607714176177978515625">
        <ele>857.20001220703125</ele>
        <time>2020-08-21T05:46:26.000Z</time>
      </trkpt>
      <trkpt lat="42.89234630763530731201171875" lon="-0.93954303301870822906494140625">
        <ele>857.5999755859375</ele>
        <time>2020-08-21T05:46:33.000Z</time>
      </trkpt>
      <trkpt lat="42.8923724591732025146484375" lon="-0.93955677933990955352783203125">
        <ele>857.79998779296875</ele>
        <time>2020-08-21T05:46:34.000Z</time>
      </trkpt>
      <trkpt lat="42.8926113434135913848876953125" lon="-0.93971016816794872283935546875">
        <ele>858.4000244140625</ele>
        <time>2020-08-21T05:46:43.000Z</time>
      </trkpt>
      <trkpt lat="42.89282047189772129058837890625" lon="-0.939851738512516021728515625">
        <ele>858.79998779296875</ele>
        <time>2020-08-21T05:46:51.000Z</time>
      </trkpt>
      <trkpt lat="42.89284762926399707794189453125" lon="-0.93986808322370052337646484375">
        <ele>859</ele>
        <time>2020-08-21T05:46:52.000Z</time>
      </trkpt>
      <trkpt lat="42.8929731063544750213623046875" lon="-0.93996749259531497955322265625">
        <ele>859.20001220703125</ele>
        <time>2020-08-21T05:46:57.000Z</time>
      </trkpt>
      <trkpt lat="42.8931494615972042083740234375" lon="-0.9401311911642551422119140625">
        <ele>859.4000244140625</ele>
        <time>2020-08-21T05:47:04.000Z</time>
      </trkpt>
      <trkpt lat="42.8933033533394336700439453125" lon="-0.9402314387261867523193359375">
        <ele>859.79998779296875</ele>
        <time>2020-08-21T05:47:10.000Z</time>
      </trkpt>
      <trkpt lat="42.89337719790637493133544921875" lon="-0.9402891062200069427490234375">
        <ele>860.20001220703125</ele>
        <time>2020-08-21T05:47:13.000Z</time>
      </trkpt>
      <trkpt lat="42.89342832751572132110595703125" lon="-0.94032548367977142333984375">
        <ele>860.5999755859375</ele>
        <time>2020-08-21T05:47:15.000Z</time>
      </trkpt>
      <trkpt lat="42.8935595043003559112548828125" lon="-0.94047543592751026153564453125">
        <ele>860.5999755859375</ele>
        <time>2020-08-21T05:47:21.000Z</time>
      </trkpt>
      <trkpt lat="42.8936356119811534881591796875" lon="-0.940701998770236968994140625">
        <ele>860.5999755859375</ele>
        <time>2020-08-21T05:47:27.000Z</time>
      </trkpt>
      <trkpt lat="42.89364860393106937408447265625" lon="-0.94100617803633213043212890625">
        <ele>861</ele>
        <time>2020-08-21T05:47:34.000Z</time>
      </trkpt>
      <trkpt lat="42.8936089575290679931640625" lon="-0.9411879815161228179931640625">
        <ele>861.20001220703125</ele>
        <time>2020-08-21T05:47:39.000Z</time>
      </trkpt>
      <trkpt lat="42.89360334165394306182861328125" lon="-0.94122494570910930633544921875">
        <ele>861.4000244140625</ele>
        <time>2020-08-21T05:47:40.000Z</time>
      </trkpt>
      <trkpt lat="42.893543243408203125" lon="-0.941438265144824981689453125">
        <ele>861.5999755859375</ele>
        <time>2020-08-21T05:47:46.000Z</time>
      </trkpt>
      <trkpt lat="42.89344727061688899993896484375" lon="-0.9417673386633396148681640625">
        <ele>861.79998779296875</ele>
        <time>2020-08-21T05:47:55.000Z</time>
      </trkpt>
      <trkpt lat="42.893351800739765167236328125" lon="-0.9421187080442905426025390625">
        <ele>862.20001220703125</ele>
        <time>2020-08-21T05:48:04.000Z</time>
      </trkpt>
      <trkpt lat="42.89334048517048358917236328125" lon="-0.94215583987534046173095703125">
        <ele>862.20001220703125</ele>
        <time>2020-08-21T05:48:05.000Z</time>
      </trkpt>
      <trkpt lat="42.893249206244945526123046875" lon="-0.9424861706793308258056640625">
        <ele>862.4000244140625</ele>
        <time>2020-08-21T05:48:14.000Z</time>
      </trkpt>
      <trkpt lat="42.89317854680120944976806640625" lon="-0.94285153783857822418212890625">
        <ele>862.5999755859375</ele>
        <time>2020-08-21T05:48:23.000Z</time>
      </trkpt>
      <trkpt lat="42.8932148404419422149658203125" lon="-0.94315999187529087066650390625">
        <ele>862.79998779296875</ele>
        <time>2020-08-21T05:48:30.000Z</time>
      </trkpt>
      <trkpt lat="42.8932748548686504364013671875" lon="-0.94337021000683307647705078125">
        <ele>863.20001220703125</ele>
        <time>2020-08-21T05:48:35.000Z</time>
      </trkpt>
      <trkpt lat="42.89331248961389064788818359375" lon="-0.9434859640896320343017578125">
        <ele>863.4000244140625</ele>
        <time>2020-08-21T05:48:38.000Z</time>
      </trkpt>
      <trkpt lat="42.8934220410883426666259765625" lon="-0.94381176866590976715087890625">
        <ele>864</ele>
        <time>2020-08-21T05:48:47.000Z</time>
      </trkpt>
      <trkpt lat="42.89345229975879192352294921875" lon="-0.9438782371580600738525390625">
        <ele>864.20001220703125</ele>
        <time>2020-08-21T05:48:49.000Z</time>
      </trkpt>
      <trkpt lat="42.8935243003070354461669921875" lon="-0.94405668787658214569091796875">
        <ele>864.5999755859375</ele>
        <time>2020-08-21T05:48:54.000Z</time>
      </trkpt>
      <trkpt lat="42.8936205245554447174072265625" lon="-0.94430026598274707794189453125">
        <ele>864.79998779296875</ele>
        <time>2020-08-21T05:49:01.000Z</time>
      </trkpt>
      <trkpt lat="42.89369822479784488677978515625" lon="-0.9445125795900821685791015625">
        <ele>865.4000244140625</ele>
        <time>2020-08-21T05:49:07.000Z</time>
      </trkpt>
      <trkpt lat="42.893765866756439208984375" lon="-0.94477518461644649505615234375">
        <ele>866</ele>
        <time>2020-08-21T05:49:14.000Z</time>
      </trkpt>
      <trkpt lat="42.8937838040292263031005859375" lon="-0.9450547210872173309326171875">
        <ele>866.20001220703125</ele>
        <time>2020-08-21T05:49:21.000Z</time>
      </trkpt>
      <trkpt lat="42.8937744162976741790771484375" lon="-0.94533626921474933624267578125">
        <ele>866.4000244140625</ele>
        <time>2020-08-21T05:49:28.000Z</time>
      </trkpt>
      <trkpt lat="42.8937817923724651336669921875" lon="-0.9456072561442852020263671875">
        <ele>866.79998779296875</ele>
        <time>2020-08-21T05:49:35.000Z</time>
      </trkpt>
      <trkpt lat="42.8937690518796443939208984375" lon="-0.9460347332060337066650390625">
        <ele>867.4000244140625</ele>
        <time>2020-08-21T05:49:45.000Z</time>
      </trkpt>
      <trkpt lat="42.89376947097480297088623046875" lon="-0.94607840292155742645263671875">
        <ele>867.5999755859375</ele>
        <time>2020-08-21T05:49:46.000Z</time>
      </trkpt>
      <trkpt lat="42.89378824643790721893310546875" lon="-0.94653639011085033416748046875">
        <ele>868.20001220703125</ele>
        <time>2020-08-21T05:49:57.000Z</time>
      </trkpt>
      <trkpt lat="42.8938763402402400970458984375" lon="-0.9467968158423900604248046875">
        <ele>868.5999755859375</ele>
        <time>2020-08-21T05:50:04.000Z</time>
      </trkpt>
      <trkpt lat="42.8938907571136951446533203125" lon="-0.94683252274990081787109375">
        <ele>868.79998779296875</ele>
        <time>2020-08-21T05:50:05.000Z</time>
      </trkpt>
      <trkpt lat="42.89402964524924755096435546875" lon="-0.94711625017225742340087890625">
        <ele>869</ele>
        <time>2020-08-21T05:50:13.000Z</time>
      </trkpt>
      <trkpt lat="42.894146405160427093505859375" lon="-0.94735949300229549407958984375">
        <ele>869.4000244140625</ele>
        <time>2020-08-21T05:50:20.000Z</time>
      </trkpt>
      <trkpt lat="42.89428554475307464599609375" lon="-0.94763726927340030670166015625">
        <ele>869.4000244140625</ele>
        <time>2020-08-21T05:50:28.000Z</time>
      </trkpt>
      <trkpt lat="42.89430490694940090179443359375" lon="-0.94767029397189617156982421875">
        <ele>869.4000244140625</ele>
        <time>2020-08-21T05:50:29.000Z</time>
      </trkpt>
      <trkpt lat="42.8944044001400470733642578125" lon="-0.9478341601788997650146484375">
        <ele>869.5999755859375</ele>
        <time>2020-08-21T05:50:34.000Z</time>
      </trkpt>
      <trkpt lat="42.89452166296541690826416015625" lon="-0.94804345630109310150146484375">
        <ele>870</ele>
        <time>2020-08-21T05:50:40.000Z</time>
      </trkpt>
      <trkpt lat="42.89462291635572910308837890625" lon="-0.9482653252780437469482421875">
        <ele>870.4000244140625</ele>
        <time>2020-08-21T05:50:46.000Z</time>
      </trkpt>
      <trkpt lat="42.89472852833569049835205078125" lon="-0.94854519702494144439697265625">
        <ele>870.5999755859375</ele>
        <time>2020-08-21T05:50:53.000Z</time>
      </trkpt>
      <trkpt lat="42.89482609368860721588134765625" lon="-0.9488220512866973876953125">
        <ele>870.20001220703125</ele>
        <time>2020-08-21T05:51:00.000Z</time>
      </trkpt>
      <trkpt lat="42.8949173726141452789306640625" lon="-0.94911751337349414825439453125">
        <ele>870.4000244140625</ele>
        <time>2020-08-21T05:51:07.000Z</time>
      </trkpt>
      <trkpt lat="42.89499490521848201751708984375" lon="-0.94936662353575229644775390625">
        <ele>870.4000244140625</ele>
        <time>2020-08-21T05:51:13.000Z</time>
      </trkpt>
      <trkpt lat="42.89509967900812625885009765625" lon="-0.94968236982822418212890625">
        <ele>870.5999755859375</ele>
        <time>2020-08-21T05:51:21.000Z</time>
      </trkpt>
      <trkpt lat="42.895209901034832000732421875" lon="-0.94998772256076335906982421875">
        <ele>871</ele>
        <time>2020-08-21T05:51:29.000Z</time>
      </trkpt>
      <trkpt lat="42.895297743380069732666015625" lon="-0.9502196498215198516845703125">
        <ele>871.4000244140625</ele>
        <time>2020-08-21T05:51:35.000Z</time>
      </trkpt>
      <trkpt lat="42.895330600440502166748046875" lon="-0.9502907283604145050048828125">
        <ele>871.4000244140625</ele>
        <time>2020-08-21T05:51:37.000Z</time>
      </trkpt>
      <trkpt lat="42.89535867981612682342529296875" lon="-0.95036691986024379730224609375">
        <ele>871.4000244140625</ele>
        <time>2020-08-21T05:51:39.000Z</time>
      </trkpt>
      <trkpt lat="42.89545808918774127960205078125" lon="-0.95062558539211750030517578125">
        <ele>871.79998779296875</ele>
        <time>2020-08-21T05:51:46.000Z</time>
      </trkpt>
      <trkpt lat="42.89552229456603527069091796875" lon="-0.95077042467892169952392578125">
        <ele>872</ele>
        <time>2020-08-21T05:51:50.000Z</time>
      </trkpt>
      <trkpt lat="42.8956067003309726715087890625" lon="-0.95095700584352016448974609375">
        <ele>872.5999755859375</ele>
        <time>2020-08-21T05:51:55.000Z</time>
      </trkpt>
      <trkpt lat="42.89571189321577548980712890625" lon="-0.9511714987456798553466796875">
        <ele>872.5999755859375</ele>
        <time>2020-08-21T05:52:01.000Z</time>
      </trkpt>
      <trkpt lat="42.89580769836902618408203125" lon="-0.95136218704283237457275390625">
        <ele>872.79998779296875</ele>
        <time>2020-08-21T05:52:06.000Z</time>
      </trkpt>
      <trkpt lat="42.89597324095666408538818359375" lon="-0.95164951868355274200439453125">
        <ele>873</ele>
        <time>2020-08-21T05:52:14.000Z</time>
      </trkpt>
      <trkpt lat="42.89599838666617870330810546875" lon="-0.95167701132595539093017578125">
        <ele>873</ele>
        <time>2020-08-21T05:52:15.000Z</time>
      </trkpt>
      <trkpt lat="42.896166779100894927978515625" lon="-0.95185118727385997772216796875">
        <ele>873.79998779296875</ele>
        <time>2020-08-21T05:52:22.000Z</time>
      </trkpt>
      <trkpt lat="42.8963018953800201416015625" lon="-0.95194925554096698760986328125">
        <ele>874.20001220703125</ele>
        <time>2020-08-21T05:52:27.000Z</time>
      </trkpt>
      <trkpt lat="42.89632930420339107513427734375" lon="-0.9519701264798641204833984375">
        <ele>874.20001220703125</ele>
        <time>2020-08-21T05:52:28.000Z</time>
      </trkpt>
      <trkpt lat="42.89647531695663928985595703125" lon="-0.95209778286516666412353515625">
        <ele>874.5999755859375</ele>
        <time>2020-08-21T05:52:34.000Z</time>
      </trkpt>
      <trkpt lat="42.896599285304546356201171875" lon="-0.95222183503210544586181640625">
        <ele>875.20001220703125</ele>
        <time>2020-08-21T05:52:39.000Z</time>
      </trkpt>
      <trkpt lat="42.89662552066147327423095703125" lon="-0.952245555818080902099609375">
        <ele>875.4000244140625</ele>
        <time>2020-08-21T05:52:40.000Z</time>
      </trkpt>
      <trkpt lat="42.89675912819802761077880859375" lon="-0.95235678367316722869873046875">
        <ele>875.5999755859375</ele>
        <time>2020-08-21T05:52:45.000Z</time>
      </trkpt>
      <trkpt lat="42.89690740406513214111328125" lon="-0.95250296406447887420654296875">
        <ele>876.20001220703125</ele>
        <time>2020-08-21T05:52:51.000Z</time>
      </trkpt>
      <trkpt lat="42.896930873394012451171875" lon="-0.952529199421405792236328125">
        <ele>876.4000244140625</ele>
        <time>2020-08-21T05:52:52.000Z</time>
      </trkpt>
      <trkpt lat="42.897086441516876220703125" lon="-0.95278610475361347198486328125">
        <ele>876.79998779296875</ele>
        <time>2020-08-21T05:53:00.000Z</time>
      </trkpt>
      <trkpt lat="42.8971575200557708740234375" lon="-0.952975116670131683349609375">
        <ele>877.5999755859375</ele>
        <time>2020-08-21T05:53:05.000Z</time>
      </trkpt>
      <trkpt lat="42.8971878625452518463134765625" lon="-0.9530926309525966644287109375">
        <ele>877.79998779296875</ele>
        <time>2020-08-21T05:53:08.000Z</time>
      </trkpt>
      <trkpt lat="42.897243686020374298095703125" lon="-0.95338046550750732421875">
        <ele>878.4000244140625</ele>
        <time>2020-08-21T05:53:15.000Z</time>
      </trkpt>
      <trkpt lat="42.89725064300000667572021484375" lon="-0.953420363366603851318359375">
        <ele>878.5999755859375</ele>
        <time>2020-08-21T05:53:16.000Z</time>
      </trkpt>
      <trkpt lat="42.89731903932988643646240234375" lon="-0.9536548890173435211181640625">
        <ele>879</ele>
        <time>2020-08-21T05:53:22.000Z</time>
      </trkpt>
      <trkpt lat="42.897473014891147613525390625" lon="-0.9538806974887847900390625">
        <ele>879.5999755859375</ele>
        <time>2020-08-21T05:53:29.000Z</time>
      </trkpt>
      <trkpt lat="42.8976805508136749267578125" lon="-0.9540577232837677001953125">
        <ele>879.5999755859375</ele>
        <time>2020-08-21T05:53:36.000Z</time>
      </trkpt>
      <trkpt lat="42.89777015335857868194580078125" lon="-0.95413257367908954620361328125">
        <ele>879.5999755859375</ele>
        <time>2020-08-21T05:53:39.000Z</time>
      </trkpt>
      <trkpt lat="42.897918261587619781494140625" lon="-0.954216308891773223876953125">
        <ele>879.5999755859375</ele>
        <time>2020-08-21T05:53:44.000Z</time>
      </trkpt>
      <trkpt lat="42.8981821238994598388671875" lon="-0.95436240546405315399169921875">
        <ele>880.20001220703125</ele>
        <time>2020-08-21T05:53:53.000Z</time>
      </trkpt>
      <trkpt lat="42.89841472171247005462646484375" lon="-0.95449182204902172088623046875">
        <ele>880.79998779296875</ele>
        <time>2020-08-21T05:54:01.000Z</time>
      </trkpt>
      <trkpt lat="42.898625694215297698974609375" lon="-0.95461872406303882598876953125">
        <ele>881.4000244140625</ele>
        <time>2020-08-21T05:54:08.000Z</time>
      </trkpt>
      <trkpt lat="42.89877950213849544525146484375" lon="-0.954772867262363433837890625">
        <ele>881.5999755859375</ele>
        <time>2020-08-21T05:54:14.000Z</time>
      </trkpt>
      <trkpt lat="42.8988025523722171783447265625" lon="-0.95480698160827159881591796875">
        <ele>882</ele>
        <time>2020-08-21T05:54:15.000Z</time>
      </trkpt>
      <trkpt lat="42.8989430330693721771240234375" lon="-0.95503061078488826751708984375">
        <ele>882.20001220703125</ele>
        <time>2020-08-21T05:54:21.000Z</time>
      </trkpt>
      <trkpt lat="42.89912181906402111053466796875" lon="-0.9553651325404644012451171875">
        <ele>883</ele>
        <time>2020-08-21T05:54:30.000Z</time>
      </trkpt>
      <trkpt lat="42.899234555661678314208984375" lon="-0.95575078390538692474365234375">
        <ele>883.5999755859375</ele>
        <time>2020-08-21T05:54:39.000Z</time>
      </trkpt>
      <trkpt lat="42.89931661449372768402099609375" lon="-0.95614423044025897979736328125">
        <ele>883.4000244140625</ele>
        <time>2020-08-21T05:54:48.000Z</time>
      </trkpt>
      <trkpt lat="42.89939582347869873046875" lon="-0.9565406106412410736083984375">
        <ele>883.79998779296875</ele>
        <time>2020-08-21T05:54:57.000Z</time>
      </trkpt>
      <trkpt lat="42.8994727693498134613037109375" lon="-0.9569023735821247100830078125">
        <ele>884</ele>
        <time>2020-08-21T05:55:06.000Z</time>
      </trkpt>
      <trkpt lat="42.89948006160557270050048828125" lon="-0.95694176852703094482421875">
        <ele>884</ele>
        <time>2020-08-21T05:55:07.000Z</time>
      </trkpt>
      <trkpt lat="42.8995589353144168853759765625" lon="-0.957315601408481597900390625">
        <ele>884.20001220703125</ele>
        <time>2020-08-21T05:55:16.000Z</time>
      </trkpt>
      <trkpt lat="42.89962909184396266937255859375" lon="-0.9577181003987789154052734375">
        <ele>884.5999755859375</ele>
        <time>2020-08-21T05:55:25.000Z</time>
      </trkpt>
      <trkpt lat="42.899744845926761627197265625" lon="-0.9580724872648715972900390625">
        <ele>885.20001220703125</ele>
        <time>2020-08-21T05:55:33.000Z</time>
      </trkpt>
      <trkpt lat="42.89978952147066593170166015625" lon="-0.9581516124308109283447265625">
        <ele>885.20001220703125</ele>
        <time>2020-08-21T05:55:35.000Z</time>
      </trkpt>
      <trkpt lat="42.8999230451881885528564453125" lon="-0.95831933431327342987060546875">
        <ele>885.5999755859375</ele>
        <time>2020-08-21T05:55:40.000Z</time>
      </trkpt>
      <trkpt lat="42.900100238621234893798828125" lon="-0.95847540535032749176025390625">
        <ele>886.4000244140625</ele>
        <time>2020-08-21T05:55:46.000Z</time>
      </trkpt>
      <trkpt lat="42.9001594148576259613037109375" lon="-0.95851890742778778076171875">
        <ele>886.4000244140625</ele>
        <time>2020-08-21T05:55:48.000Z</time>
      </trkpt>
      <trkpt lat="42.90041506290435791015625" lon="-0.95872183330357074737548828125">
        <ele>887.4000244140625</ele>
        <time>2020-08-21T05:55:58.000Z</time>
      </trkpt>
      <trkpt lat="42.900439538061618804931640625" lon="-0.95873742364346981048583984375">
        <ele>887.5999755859375</ele>
        <time>2020-08-21T05:55:59.000Z</time>
      </trkpt>
      <trkpt lat="42.90070281364023685455322265625" lon="-0.95893305726349353790283203125">
        <ele>888</ele>
        <time>2020-08-21T05:56:09.000Z</time>
      </trkpt>
      <trkpt lat="42.90075444616377353668212890625" lon="-0.95896591432392597198486328125">
        <ele>888.4000244140625</ele>
        <time>2020-08-21T05:56:11.000Z</time>
      </trkpt>
      <trkpt lat="42.90093197487294673919677734375" lon="-0.95904923044145107269287109375">
        <ele>889.4000244140625</ele>
        <time>2020-08-21T05:56:18.000Z</time>
      </trkpt>
      <trkpt lat="42.90098343975841999053955078125" lon="-0.95907278358936309814453125">
        <ele>889.5999755859375</ele>
        <time>2020-08-21T05:56:20.000Z</time>
      </trkpt>
      <trkpt lat="42.9011152870953083038330078125" lon="-0.95913221128284931182861328125">
        <ele>890</ele>
        <time>2020-08-21T05:56:25.000Z</time>
      </trkpt>
      <trkpt lat="42.9012507386505603790283203125" lon="-0.95919339917600154876708984375">
        <ele>890.5999755859375</ele>
        <time>2020-08-21T05:56:30.000Z</time>
      </trkpt>
      <trkpt lat="42.90133531205356121063232421875" lon="-0.959222652018070220947265625">
        <ele>890.5999755859375</ele>
        <time>2020-08-21T05:56:33.000Z</time>
      </trkpt>
      <trkpt lat="42.9015187919139862060546875" lon="-0.95930521376430988311767578125">
        <ele>891.4000244140625</ele>
        <time>2020-08-21T05:56:40.000Z</time>
      </trkpt>
      <trkpt lat="42.9016228951513767242431640625" lon="-0.95935919322073459625244140625">
        <ele>891.5999755859375</ele>
        <time>2020-08-21T05:56:44.000Z</time>
      </trkpt>
      <trkpt lat="42.90172439999878406524658203125" lon="-0.95941451378166675567626953125">
        <ele>892.20001220703125</ele>
        <time>2020-08-21T05:56:48.000Z</time>
      </trkpt>
      <trkpt lat="42.90188767947256565093994140625" lon="-0.9595026075839996337890625">
        <ele>892.5999755859375</ele>
        <time>2020-08-21T05:56:54.000Z</time>
      </trkpt>
      <trkpt lat="42.90191601030528545379638671875" lon="-0.95951962284743785858154296875">
        <ele>892.79998779296875</ele>
        <time>2020-08-21T05:56:55.000Z</time>
      </trkpt>
      <trkpt lat="42.902114577591419219970703125" lon="-0.959688015282154083251953125">
        <ele>893.5999755859375</ele>
        <time>2020-08-21T05:57:03.000Z</time>
      </trkpt>
      <trkpt lat="42.90219814516603946685791015625" lon="-0.95977778546512126922607421875">
        <ele>893.79998779296875</ele>
        <time>2020-08-21T05:57:07.000Z</time>
      </trkpt>
      <trkpt lat="42.90230744518339633941650390625" lon="-0.95989177934825420379638671875">
        <ele>894.4000244140625</ele>
        <time>2020-08-21T05:57:12.000Z</time>
      </trkpt>
      <trkpt lat="42.9024656116962432861328125" lon="-0.9600620158016681671142578125">
        <ele>894.79998779296875</ele>
        <time>2020-08-21T05:57:19.000Z</time>
      </trkpt>
      <trkpt lat="42.90251053869724273681640625" lon="-0.96010836772620677947998046875">
        <ele>894.79998779296875</ele>
        <time>2020-08-21T05:57:21.000Z</time>
      </trkpt>
      <trkpt lat="42.90268798358738422393798828125" lon="-0.96030517481267452239990234375">
        <ele>895.79998779296875</ele>
        <time>2020-08-21T05:57:29.000Z</time>
      </trkpt>
      <trkpt lat="42.902877666056156158447265625" lon="-0.960505418479442596435546875">
        <ele>896.4000244140625</ele>
        <time>2020-08-21T05:57:37.000Z</time>
      </trkpt>
      <trkpt lat="42.90299358777701854705810546875" lon="-0.960642211139202117919921875">
        <ele>896.79998779296875</ele>
        <time>2020-08-21T05:57:42.000Z</time>
      </trkpt>
      <trkpt lat="42.90306835435330867767333984375" lon="-0.96071806736290454864501953125">
        <ele>897.20001220703125</ele>
        <time>2020-08-21T05:57:45.000Z</time>
      </trkpt>
      <trkpt lat="42.9033629782497882843017578125" lon="-0.96094630658626556396484375">
        <ele>897.79998779296875</ele>
        <time>2020-08-21T05:57:56.000Z</time>
      </trkpt>
      <trkpt lat="42.90355484001338481903076171875" lon="-0.96111000515520572662353515625">
        <ele>898</ele>
        <time>2020-08-21T05:58:03.000Z</time>
      </trkpt>
      <trkpt lat="42.90358132682740688323974609375" lon="-0.96113531850278377532958984375">
        <ele>898.20001220703125</ele>
        <time>2020-08-21T05:58:04.000Z</time>
      </trkpt>
      <trkpt lat="42.9037404991686344146728515625" lon="-0.96133195795118808746337890625">
        <ele>898</ele>
        <time>2020-08-21T05:58:11.000Z</time>
      </trkpt>
      <trkpt lat="42.903907634317874908447265625" lon="-0.96166689880192279815673828125">
        <ele>898.4000244140625</ele>
        <time>2020-08-21T05:58:20.000Z</time>
      </trkpt>
      <trkpt lat="42.9040549881756305694580078125" lon="-0.9619744308292865753173828125">
        <ele>898.20001220703125</ele>
        <time>2020-08-21T05:58:28.000Z</time>
      </trkpt>
      <trkpt lat="42.90422203950583934783935546875" lon="-0.9622151590883731842041015625">
        <ele>898.5999755859375</ele>
        <time>2020-08-21T05:58:36.000Z</time>
      </trkpt>
      <trkpt lat="42.90438272058963775634765625" lon="-0.96235605888068675994873046875">
        <ele>898.5999755859375</ele>
        <time>2020-08-21T05:58:42.000Z</time>
      </trkpt>
      <trkpt lat="42.904660664498805999755859375" lon="-0.9626117907464504241943359375">
        <ele>898.20001220703125</ele>
        <time>2020-08-21T05:58:52.000Z</time>
      </trkpt>
      <trkpt lat="42.90481044910848140716552734375" lon="-0.96283080987632274627685546875">
        <ele>897.79998779296875</ele>
        <time>2020-08-21T05:58:59.000Z</time>
      </trkpt>
      <trkpt lat="42.90495671331882476806640625" lon="-0.96311696805059909820556640625">
        <ele>898.20001220703125</ele>
        <time>2020-08-21T05:59:07.000Z</time>
      </trkpt>
      <trkpt lat="42.905065007507801055908203125" lon="-0.9633745439350605010986328125">
        <ele>898.20001220703125</ele>
        <time>2020-08-21T05:59:14.000Z</time>
      </trkpt>
      <trkpt lat="42.9052148759365081787109375" lon="-0.96366874873638153076171875">
        <ele>898.4000244140625</ele>
        <time>2020-08-21T05:59:22.000Z</time>
      </trkpt>
      <trkpt lat="42.90532417595386505126953125" lon="-0.96387838013470172882080078125">
        <ele>898.4000244140625</ele>
        <time>2020-08-21T05:59:28.000Z</time>
      </trkpt>
      <trkpt lat="42.90540154092013835906982421875" lon="-0.964010059833526611328125">
        <ele>898.5999755859375</ele>
        <time>2020-08-21T05:59:33.000Z</time>
      </trkpt>
      <trkpt lat="42.90543741546571254730224609375" lon="-0.96419387497007846832275390625">
        <ele>898.5999755859375</ele>
        <time>2020-08-21T05:59:38.000Z</time>
      </trkpt>
      <trkpt lat="42.90545484982430934906005859375" lon="-0.96444767899811267852783203125">
        <ele>898.79998779296875</ele>
        <time>2020-08-21T05:59:44.000Z</time>
      </trkpt>
      <trkpt lat="42.90547848679125308990478515625" lon="-0.96460559405386447906494140625">
        <ele>898.79998779296875</ele>
        <time>2020-08-21T05:59:48.000Z</time>
      </trkpt>
      <trkpt lat="42.905514948070049285888671875" lon="-0.96489761956036090850830078125">
        <ele>899</ele>
        <time>2020-08-21T05:59:54.000Z</time>
      </trkpt>
      <trkpt lat="42.90558108128607273101806640625" lon="-0.96510649658739566802978515625">
        <ele>898.79998779296875</ele>
        <time>2020-08-21T05:59:59.000Z</time>
      </trkpt>
      <trkpt lat="42.905641682446002960205078125" lon="-0.96535661257803440093994140625">
        <ele>899.20001220703125</ele>
        <time>2020-08-21T06:00:05.000Z</time>
      </trkpt>
      <trkpt lat="42.9056599549949169158935546875" lon="-0.96542987041175365447998046875">
        <ele>899.4000244140625</ele>
        <time>2020-08-21T06:00:07.000Z</time>
      </trkpt>
      <trkpt lat="42.90568216703832149505615234375" lon="-0.9655494801700115203857421875">
        <ele>899.5999755859375</ele>
        <time>2020-08-21T06:00:10.000Z</time>
      </trkpt>
      <trkpt lat="42.905705384910106658935546875" lon="-0.9658059664070606231689453125">
        <ele>900</ele>
        <time>2020-08-21T06:00:16.000Z</time>
      </trkpt>
      <trkpt lat="42.905728854238986968994140625" lon="-0.966064296662807464599609375">
        <ele>900.4000244140625</ele>
        <time>2020-08-21T06:00:22.000Z</time>
      </trkpt>
      <trkpt lat="42.90575274266302585601806640625" lon="-0.9662341140210628509521484375">
        <ele>900.5999755859375</ele>
        <time>2020-08-21T06:00:26.000Z</time>
      </trkpt>
      <trkpt lat="42.90579046122729778289794921875" lon="-0.9664356149733066558837890625">
        <ele>901</ele>
        <time>2020-08-21T06:00:31.000Z</time>
      </trkpt>
      <trkpt lat="42.9058540798723697662353515625" lon="-0.96675328910350799560546875">
        <ele>901.20001220703125</ele>
        <time>2020-08-21T06:00:38.000Z</time>
      </trkpt>
      <trkpt lat="42.90587863884866237640380859375" lon="-0.96683735959231853485107421875">
        <ele>901.4000244140625</ele>
        <time>2020-08-21T06:00:40.000Z</time>
      </trkpt>
      <trkpt lat="42.90594401769340038299560546875" lon="-0.9669737331569194793701171875">
        <ele>901.79998779296875</ele>
        <time>2020-08-21T06:00:44.000Z</time>
      </trkpt>
      <trkpt lat="42.9060941375792026519775390625" lon="-0.96718914806842803955078125">
        <ele>902.4000244140625</ele>
        <time>2020-08-21T06:00:51.000Z</time>
      </trkpt>
      <trkpt lat="42.906119115650653839111328125" lon="-0.96721521578729152679443359375">
        <ele>902.4000244140625</ele>
        <time>2020-08-21T06:00:52.000Z</time>
      </trkpt>
      <trkpt lat="42.90630050003528594970703125" lon="-0.96735519357025623321533203125">
        <ele>903</ele>
        <time>2020-08-21T06:00:59.000Z</time>
      </trkpt>
      <trkpt lat="42.90649923495948314666748046875" lon="-0.96742727793753147125244140625">
        <ele>903.5999755859375</ele>
        <time>2020-08-21T06:01:06.000Z</time>
      </trkpt>
      <trkpt lat="42.90670827962458133697509765625" lon="-0.967393331229686737060546875">
        <ele>904.20001220703125</ele>
        <time>2020-08-21T06:01:13.000Z</time>
      </trkpt>
      <trkpt lat="42.90679159574210643768310546875" lon="-0.9673452191054821014404296875">
        <ele>904.5999755859375</ele>
        <time>2020-08-21T06:01:16.000Z</time>
      </trkpt>
      <trkpt lat="42.90690961293876171112060546875" lon="-0.9672795049846172332763671875">
        <ele>904.79998779296875</ele>
        <time>2020-08-21T06:01:20.000Z</time>
      </trkpt>
      <trkpt lat="42.907092757523059844970703125" lon="-0.9671661816537380218505859375">
        <ele>904.79998779296875</ele>
        <time>2020-08-21T06:01:26.000Z</time>
      </trkpt>
      <trkpt lat="42.90729987435042858123779296875" lon="-0.9669827856123447418212890625">
        <ele>905.4000244140625</ele>
        <time>2020-08-21T06:01:33.000Z</time>
      </trkpt>
      <trkpt lat="42.90738570503890514373779296875" lon="-0.96689653582870960235595703125">
        <ele>905.5999755859375</ele>
        <time>2020-08-21T06:01:36.000Z</time>
      </trkpt>
      <trkpt lat="42.907479666173458099365234375" lon="-0.96683501265943050384521484375">
        <ele>905.79998779296875</ele>
        <time>2020-08-21T06:01:39.000Z</time>
      </trkpt>
      <trkpt lat="42.907595671713352203369140625" lon="-0.96674649976193904876708984375">
        <ele>906</ele>
        <time>2020-08-21T06:01:44.000Z</time>
      </trkpt>
      <trkpt lat="42.90774042718112468719482421875" lon="-0.9666830487549304962158203125">
        <ele>906.4000244140625</ele>
        <time>2020-08-21T06:01:50.000Z</time>
      </trkpt>
      <trkpt lat="42.90786967612802982330322265625" lon="-0.96664206124842166900634765625">
        <ele>906.5999755859375</ele>
        <time>2020-08-21T06:01:54.000Z</time>
      </trkpt>
      <trkpt lat="42.90793773718178272247314453125" lon="-0.96662613563239574432373046875">
        <ele>906.79998779296875</ele>
        <time>2020-08-21T06:01:56.000Z</time>
      </trkpt>
      <trkpt lat="42.908147871494293212890625" lon="-0.96665144897997379302978515625">
        <ele>907.20001220703125</ele>
        <time>2020-08-21T06:02:02.000Z</time>
      </trkpt>
      <trkpt lat="42.90838331915438175201416015625" lon="-0.96676896326243877410888671875">
        <ele>907.4000244140625</ele>
        <time>2020-08-21T06:02:09.000Z</time>
      </trkpt>
      <trkpt lat="42.90841701440513134002685546875" lon="-0.96677918918430805206298828125">
        <ele>907.4000244140625</ele>
        <time>2020-08-21T06:02:10.000Z</time>
      </trkpt>
      <trkpt lat="42.90860979817807674407958984375" lon="-0.9668500162661075592041015625">
        <ele>907.79998779296875</ele>
        <time>2020-08-21T06:02:16.000Z</time>
      </trkpt>
      <trkpt lat="42.90882152505218982696533203125" lon="-0.96689636819064617156982421875">
        <ele>908</ele>
        <time>2020-08-21T06:02:23.000Z</time>
      </trkpt>
      <trkpt lat="42.90890500880777835845947265625" lon="-0.96689402125775814056396484375">
        <ele>908.4000244140625</ele>
        <time>2020-08-21T06:02:26.000Z</time>
      </trkpt>
      <trkpt lat="42.90897122584283351898193359375" lon="-0.96686854027211666107177734375">
        <ele>908.5999755859375</ele>
        <time>2020-08-21T06:02:28.000Z</time>
      </trkpt>
      <trkpt lat="42.90927113033831119537353515625" lon="-0.966767035424709320068359375">
        <ele>909.20001220703125</ele>
        <time>2020-08-21T06:02:37.000Z</time>
      </trkpt>
      <trkpt lat="42.90940255858004093170166015625" lon="-0.96673979423940181732177734375">
        <ele>909.4000244140625</ele>
        <time>2020-08-21T06:02:41.000Z</time>
      </trkpt>
      <trkpt lat="42.9095266945660114288330078125" lon="-0.9667252935469150543212890625">
        <ele>910.20001220703125</ele>
        <time>2020-08-21T06:02:45.000Z</time>
      </trkpt>
      <trkpt lat="42.9096329770982265472412109375" lon="-0.966740883886814117431640625">
        <ele>910.5999755859375</ele>
        <time>2020-08-21T06:02:49.000Z</time>
      </trkpt>
      <trkpt lat="42.90968854911625385284423828125" lon="-0.9667527861893177032470703125">
        <ele>910.79998779296875</ele>
        <time>2020-08-21T06:02:51.000Z</time>
      </trkpt>
      <trkpt lat="42.90982550941407680511474609375" lon="-0.966793857514858245849609375">
        <ele>911.4000244140625</ele>
        <time>2020-08-21T06:02:56.000Z</time>
      </trkpt>
      <trkpt lat="42.909901030361652374267578125" lon="-0.9668171592056751251220703125">
        <ele>911.5999755859375</ele>
        <time>2020-08-21T06:02:59.000Z</time>
      </trkpt>
      <trkpt lat="42.91001125238835811614990234375" lon="-0.9668419696390628814697265625">
        <ele>912.20001220703125</ele>
        <time>2020-08-21T06:03:03.000Z</time>
      </trkpt>
      <trkpt lat="42.91012021712958812713623046875" lon="-0.9668899141252040863037109375">
        <ele>912.79998779296875</ele>
        <time>2020-08-21T06:03:07.000Z</time>
      </trkpt>
      <trkpt lat="42.910143435001373291015625" lon="-0.966910533607006072998046875">
        <ele>912.79998779296875</ele>
        <time>2020-08-21T06:03:08.000Z</time>
      </trkpt>
      <trkpt lat="42.91028567589819431304931640625" lon="-0.96704162657260894775390625">
        <ele>913</ele>
        <time>2020-08-21T06:03:13.000Z</time>
      </trkpt>
      <trkpt lat="42.910432778298854827880859375" lon="-0.9672191552817821502685546875">
        <ele>913.5999755859375</ele>
        <time>2020-08-21T06:03:19.000Z</time>
      </trkpt>
      <trkpt lat="42.910507209599018096923828125" lon="-0.96730356104671955108642578125">
        <ele>913.79998779296875</ele>
        <time>2020-08-21T06:03:22.000Z</time>
      </trkpt>
      <trkpt lat="42.91060351766645908355712890625" lon="-0.96741713583469390869140625">
        <ele>914.20001220703125</ele>
        <time>2020-08-21T06:03:26.000Z</time>
      </trkpt>
      <trkpt lat="42.91073662228882312774658203125" lon="-0.9675165452063083648681640625">
        <ele>915</ele>
        <time>2020-08-21T06:03:31.000Z</time>
      </trkpt>
      <trkpt lat="42.91082664392888545989990234375" lon="-0.9675537608563899993896484375">
        <ele>915</ele>
        <time>2020-08-21T06:03:34.000Z</time>
      </trkpt>
      <trkpt lat="42.91101045906543731689453125" lon="-0.96763716079294681549072265625">
        <ele>915.5999755859375</ele>
        <time>2020-08-21T06:03:41.000Z</time>
      </trkpt>
      <trkpt lat="42.91109637357294559478759765625" lon="-0.96766666509211063385009765625">
        <ele>916</ele>
        <time>2020-08-21T06:03:44.000Z</time>
      </trkpt>
      <trkpt lat="42.9112060926854610443115234375" lon="-0.96771812997758388519287109375">
        <ele>916.20001220703125</ele>
        <time>2020-08-21T06:03:48.000Z</time>
      </trkpt>
      <trkpt lat="42.91135218925774097442626953125" lon="-0.9677794016897678375244140625">
        <ele>916.79998779296875</ele>
        <time>2020-08-21T06:03:53.000Z</time>
      </trkpt>
      <trkpt lat="42.91141052730381488800048828125" lon="-0.96781318075954914093017578125">
        <ele>917</ele>
        <time>2020-08-21T06:03:55.000Z</time>
      </trkpt>
      <trkpt lat="42.91151496581733226776123046875" lon="-0.967906974256038665771484375">
        <ele>917.4000244140625</ele>
        <time>2020-08-21T06:03:59.000Z</time>
      </trkpt>
      <trkpt lat="42.9116067476570606231689453125" lon="-0.96803479827940464019775390625">
        <ele>918</ele>
        <time>2020-08-21T06:04:03.000Z</time>
      </trkpt>
      <trkpt lat="42.911657877266407012939453125" lon="-0.96815667115151882171630859375">
        <ele>918.20001220703125</ele>
        <time>2020-08-21T06:04:06.000Z</time>
      </trkpt>
      <trkpt lat="42.91178561747074127197265625" lon="-0.96852279268205165863037109375">
        <ele>918.5999755859375</ele>
        <time>2020-08-21T06:04:15.000Z</time>
      </trkpt>
      <trkpt lat="42.9118488170206546783447265625" lon="-0.968668051064014434814453125">
        <ele>919.20001220703125</ele>
        <time>2020-08-21T06:04:19.000Z</time>
      </trkpt>
      <trkpt lat="42.91196800768375396728515625" lon="-0.96890836022794246673583984375">
        <ele>919.79998779296875</ele>
        <time>2020-08-21T06:04:26.000Z</time>
      </trkpt>
      <trkpt lat="42.91212282143533229827880859375" lon="-0.96918831579387187957763671875">
        <ele>920.20001220703125</ele>
        <time>2020-08-21T06:04:34.000Z</time>
      </trkpt>
      <trkpt lat="42.91214394383132457733154296875" lon="-0.96922502852976322174072265625">
        <ele>920.4000244140625</ele>
        <time>2020-08-21T06:04:35.000Z</time>
      </trkpt>
      <trkpt lat="42.91225642897188663482666015625" lon="-0.969431139528751373291015625">
        <ele>920.79998779296875</ele>
        <time>2020-08-21T06:04:41.000Z</time>
      </trkpt>
      <trkpt lat="42.91234712116420269012451171875" lon="-0.96959232352674007415771484375">
        <ele>921.4000244140625</ele>
        <time>2020-08-21T06:04:46.000Z</time>
      </trkpt>
      <trkpt lat="42.91238467209041118621826171875" lon="-0.96965610980987548828125">
        <ele>921.5999755859375</ele>
        <time>2020-08-21T06:04:48.000Z</time>
      </trkpt>
      <trkpt lat="42.91252448223531246185302734375" lon="-0.96988401375710964202880859375">
        <ele>922.4000244140625</ele>
        <time>2020-08-21T06:04:55.000Z</time>
      </trkpt>
      <trkpt lat="42.912621796131134033203125" lon="-0.970048047602176666259765625">
        <ele>922.5999755859375</ele>
        <time>2020-08-21T06:05:00.000Z</time>
      </trkpt>
      <trkpt lat="42.91264316998422145843505859375" lon="-0.9700793959200382232666015625">
        <ele>922.79998779296875</ele>
        <time>2020-08-21T06:05:01.000Z</time>
      </trkpt>
      <trkpt lat="42.91281097568571567535400390625" lon="-0.97032691352069377899169921875">
        <ele>923.4000244140625</ele>
        <time>2020-08-21T06:05:09.000Z</time>
      </trkpt>
      <trkpt lat="42.9128620214760303497314453125" lon="-0.97043453715741634368896484375">
        <ele>923.79998779296875</ele>
        <time>2020-08-21T06:05:12.000Z</time>
      </trkpt>
      <trkpt lat="42.91289797984063625335693359375" lon="-0.97050712443888187408447265625">
        <ele>923.79998779296875</ele>
        <time>2020-08-21T06:05:14.000Z</time>
      </trkpt>
      <trkpt lat="42.9130403883755207061767578125" lon="-0.970729328691959381103515625">
        <ele>924.79998779296875</ele>
        <time>2020-08-21T06:05:21.000Z</time>
      </trkpt>
      <trkpt lat="42.91308456100523471832275390625" lon="-0.9707945398986339569091796875">
        <ele>925</ele>
        <time>2020-08-21T06:05:23.000Z</time>
      </trkpt>
      <trkpt lat="42.91318036615848541259765625" lon="-0.97091062925755977630615234375">
        <ele>925.20001220703125</ele>
        <time>2020-08-21T06:05:27.000Z</time>
      </trkpt>
      <trkpt lat="42.91331824846565723419189453125" lon="-0.97107231616973876953125">
        <ele>926</ele>
        <time>2020-08-21T06:05:33.000Z</time>
      </trkpt>
      <trkpt lat="42.9133381135761737823486328125" lon="-0.9711026586592197418212890625">
        <ele>926.20001220703125</ele>
        <time>2020-08-21T06:05:34.000Z</time>
      </trkpt>
      <trkpt lat="42.913477420806884765625" lon="-0.97129753790795803070068359375">
        <ele>926.79998779296875</ele>
        <time>2020-08-21T06:05:41.000Z</time>
      </trkpt>
      <trkpt lat="42.91356199420988559722900390625" lon="-0.97145578823983669281005859375">
        <ele>927.20001220703125</ele>
        <time>2020-08-21T06:05:46.000Z</time>
      </trkpt>
      <trkpt lat="42.913576997816562652587890625" lon="-0.971489064395427703857421875">
        <ele>927.20001220703125</ele>
        <time>2020-08-21T06:05:47.000Z</time>
      </trkpt>
      <trkpt lat="42.91367783211171627044677734375" lon="-0.971627533435821533203125">
        <ele>927.79998779296875</ele>
        <time>2020-08-21T06:05:52.000Z</time>
      </trkpt>
      <trkpt lat="42.91382418014109134674072265625" lon="-0.9718308784067630767822265625">
        <ele>928.20001220703125</ele>
        <time>2020-08-21T06:05:59.000Z</time>
      </trkpt>
      <trkpt lat="42.913843877613544464111328125" lon="-0.97186063416302204132080078125">
        <ele>928.4000244140625</ele>
        <time>2020-08-21T06:06:00.000Z</time>
      </trkpt>
      <trkpt lat="42.9140123538672924041748046875" lon="-0.9719143621623516082763671875">
        <ele>928.79998779296875</ele>
        <time>2020-08-21T06:06:05.000Z</time>
      </trkpt>
      <trkpt lat="42.9141695983707904815673828125" lon="-0.971954762935638427734375">
        <ele>929.5999755859375</ele>
        <time>2020-08-21T06:06:10.000Z</time>
      </trkpt>
      <trkpt lat="42.91419834829866886138916015625" lon="-0.97195920534431934356689453125">
        <ele>929.79998779296875</ele>
        <time>2020-08-21T06:06:11.000Z</time>
      </trkpt>
      <trkpt lat="42.9143315367400646209716796875" lon="-0.971968173980712890625">
        <ele>930.20001220703125</ele>
        <time>2020-08-21T06:06:16.000Z</time>
      </trkpt>
      <trkpt lat="42.9144497215747833251953125" lon="-0.971967838704586029052734375">
        <ele>930.79998779296875</ele>
        <time>2020-08-21T06:06:21.000Z</time>
      </trkpt>
      <trkpt lat="42.91447226889431476593017578125" lon="-0.97196624614298343658447265625">
        <ele>930.79998779296875</ele>
        <time>2020-08-21T06:06:22.000Z</time>
      </trkpt>
      <trkpt lat="42.91457838378846645355224609375" lon="-0.97196708433330059051513671875">
        <ele>931.4000244140625</ele>
        <time>2020-08-21T06:06:27.000Z</time>
      </trkpt>
      <trkpt lat="42.91469321586191654205322265625" lon="-0.9719545952975749969482421875">
        <ele>931.79998779296875</ele>
        <time>2020-08-21T06:06:31.000Z</time>
      </trkpt>
      <trkpt lat="42.91490326635539531707763671875" lon="-0.9719539247453212738037109375">
        <ele>932.5999755859375</ele>
        <time>2020-08-21T06:06:38.000Z</time>
      </trkpt>
      <trkpt lat="42.9150000773370265960693359375" lon="-0.97195141017436981201171875">
        <ele>932.79998779296875</ele>
        <time>2020-08-21T06:06:41.000Z</time>
      </trkpt>
      <trkpt lat="42.9151194356381893157958984375" lon="-0.97196054644882678985595703125">
        <ele>933.20001220703125</ele>
        <time>2020-08-21T06:06:45.000Z</time>
      </trkpt>
      <trkpt lat="42.9153402149677276611328125" lon="-0.97199692390859127044677734375">
        <ele>933.79998779296875</ele>
        <time>2020-08-21T06:06:52.000Z</time>
      </trkpt>
      <trkpt lat="42.9154044203460216522216796875" lon="-0.97199826501309871673583984375">
        <ele>934</ele>
        <time>2020-08-21T06:06:54.000Z</time>
      </trkpt>
      <trkpt lat="42.9155226051807403564453125" lon="-0.97201578319072723388671875">
        <ele>934.20001220703125</ele>
        <time>2020-08-21T06:06:58.000Z</time>
      </trkpt>
      <trkpt lat="42.91567406617105007171630859375" lon="-0.9720333851873874664306640625">
        <ele>935</ele>
        <time>2020-08-21T06:07:03.000Z</time>
      </trkpt>
      <trkpt lat="42.9157316498458385467529296875" lon="-0.97204252146184444427490234375">
        <ele>935</ele>
        <time>2020-08-21T06:07:05.000Z</time>
      </trkpt>
      <trkpt lat="42.9159076698124408721923828125" lon="-0.97204285673797130584716796875">
        <ele>935.79998779296875</ele>
        <time>2020-08-21T06:07:11.000Z</time>
      </trkpt>
      <trkpt lat="42.91601814329624176025390625" lon="-0.97205727361142635345458984375">
        <ele>936.20001220703125</ele>
        <time>2020-08-21T06:07:15.000Z</time>
      </trkpt>
      <trkpt lat="42.9160987772047519683837890625" lon="-0.97207169048488140106201171875">
        <ele>936.5999755859375</ele>
        <time>2020-08-21T06:07:18.000Z</time>
      </trkpt>
      <trkpt lat="42.9162486456334590911865234375" lon="-0.97212181426584720611572265625">
        <ele>937</ele>
        <time>2020-08-21T06:07:24.000Z</time>
      </trkpt>
      <trkpt lat="42.91637747548520565032958984375" lon="-0.97216238267719745635986328125">
        <ele>937.4000244140625</ele>
        <time>2020-08-21T06:07:29.000Z</time>
      </trkpt>
      <trkpt lat="42.9164571873843669891357421875" lon="-0.97220261581242084503173828125">
        <ele>937.5999755859375</ele>
        <time>2020-08-21T06:07:32.000Z</time>
      </trkpt>
      <trkpt lat="42.91660931892693042755126953125" lon="-0.972303114831447601318359375">
        <ele>938</ele>
        <time>2020-08-21T06:07:38.000Z</time>
      </trkpt>
      <trkpt lat="42.91666078381240367889404296875" lon="-0.97233228385448455810546875">
        <ele>938.20001220703125</ele>
        <time>2020-08-21T06:07:40.000Z</time>
      </trkpt>
      <trkpt lat="42.91682188399136066436767578125" lon="-0.97244066186249256134033203125">
        <ele>938.5999755859375</ele>
        <time>2020-08-21T06:07:46.000Z</time>
      </trkpt>
      <trkpt lat="42.91698533110320568084716796875" lon="-0.97259019501507282257080078125">
        <ele>939.20001220703125</ele>
        <time>2020-08-21T06:07:53.000Z</time>
      </trkpt>
      <trkpt lat="42.917007543146610260009765625" lon="-0.9726157598197460174560546875">
        <ele>939.4000244140625</ele>
        <time>2020-08-21T06:07:54.000Z</time>
      </trkpt>
      <trkpt lat="42.9171399772167205810546875" lon="-0.97280343063175678253173828125">
        <ele>939.4000244140625</ele>
        <time>2020-08-21T06:08:01.000Z</time>
      </trkpt>
      <trkpt lat="42.9173275642096996307373046875" lon="-0.97302186302840709686279296875">
        <ele>940.4000244140625</ele>
        <time>2020-08-21T06:08:10.000Z</time>
      </trkpt>
      <trkpt lat="42.91736452840268611907958984375" lon="-0.97307450138032436370849609375">
        <ele>940.5999755859375</ele>
        <time>2020-08-21T06:08:12.000Z</time>
      </trkpt>
      <trkpt lat="42.91747030802071094512939453125" lon="-0.97323660738766193389892578125">
        <ele>940.79998779296875</ele>
        <time>2020-08-21T06:08:18.000Z</time>
      </trkpt>
      <trkpt lat="42.9175387881696224212646484375" lon="-0.97340575419366359710693359375">
        <ele>941.4000244140625</ele>
        <time>2020-08-21T06:08:23.000Z</time>
      </trkpt>
      <trkpt lat="42.91756619699299335479736328125" lon="-0.9734690375626087188720703125">
        <ele>941.5999755859375</ele>
        <time>2020-08-21T06:08:25.000Z</time>
      </trkpt>
      <trkpt lat="42.91763844899833202362060546875" lon="-0.973622091114521026611328125">
        <ele>942</ele>
        <time>2020-08-21T06:08:30.000Z</time>
      </trkpt>
      <trkpt lat="42.9177104495465755462646484375" lon="-0.97378495149314403533935546875">
        <ele>942</ele>
        <time>2020-08-21T06:08:35.000Z</time>
      </trkpt>
      <trkpt lat="42.91784095577895641326904296875" lon="-0.9739919006824493408203125">
        <ele>942.4000244140625</ele>
        <time>2020-08-21T06:08:42.000Z</time>
      </trkpt>
      <trkpt lat="42.91788303293287754058837890625" lon="-0.97404445521533489227294921875">
        <ele>942.79998779296875</ele>
        <time>2020-08-21T06:08:44.000Z</time>
      </trkpt>
      <trkpt lat="42.91802686639130115509033203125" lon="-0.97418493591248989105224609375">
        <ele>943.20001220703125</ele>
        <time>2020-08-21T06:08:50.000Z</time>
      </trkpt>
      <trkpt lat="42.9181932471692562103271484375" lon="-0.97437285818159580230712890625">
        <ele>943.5999755859375</ele>
        <time>2020-08-21T06:08:57.000Z</time>
      </trkpt>
      <trkpt lat="42.918283939361572265625" lon="-0.97453915514051914215087890625">
        <ele>944</ele>
        <time>2020-08-21T06:09:02.000Z</time>
      </trkpt>
      <trkpt lat="42.91830447502434253692626953125" lon="-0.97473814152181148529052734375">
        <ele>944.5999755859375</ele>
        <time>2020-08-21T06:09:07.000Z</time>
      </trkpt>
      <trkpt lat="42.9183058999478816986083984375" lon="-0.97487770020961761474609375">
        <ele>945</ele>
        <time>2020-08-21T06:09:11.000Z</time>
      </trkpt>
      <trkpt lat="42.91829592548310756683349609375" lon="-0.97503863275051116943359375">
        <ele>945.4000244140625</ele>
        <time>2020-08-21T06:09:15.000Z</time>
      </trkpt>
      <trkpt lat="42.91828989051282405853271484375" lon="-0.975299142301082611083984375">
        <ele>946.20001220703125</ele>
        <time>2020-08-21T06:09:22.000Z</time>
      </trkpt>
      <trkpt lat="42.91829039342701435089111328125" lon="-0.97533476538956165313720703125">
        <ele>946.4000244140625</ele>
        <time>2020-08-21T06:09:23.000Z</time>
      </trkpt>
      <trkpt lat="42.9183255136013031005859375" lon="-0.975616984069347381591796875">
        <ele>947.20001220703125</ele>
        <time>2020-08-21T06:09:30.000Z</time>
      </trkpt>
      <trkpt lat="42.9183308780193328857421875" lon="-0.975656211376190185546875">
        <ele>947.20001220703125</ele>
        <time>2020-08-21T06:09:31.000Z</time>
      </trkpt>
      <trkpt lat="42.91834185831248760223388671875" lon="-0.97586450167000293731689453125">
        <ele>947.5999755859375</ele>
        <time>2020-08-21T06:09:36.000Z</time>
      </trkpt>
      <trkpt lat="42.9183675907552242279052734375" lon="-0.97602300345897674560546875">
        <ele>948.4000244140625</ele>
        <time>2020-08-21T06:09:40.000Z</time>
      </trkpt>
      <trkpt lat="42.91838343255221843719482421875" lon="-0.97610707394778728485107421875">
        <ele>948.5999755859375</ele>
        <time>2020-08-21T06:09:42.000Z</time>
      </trkpt>
      <trkpt lat="42.91844244115054607391357421875" lon="-0.97632232122123241424560546875">
        <ele>948.79998779296875</ele>
        <time>2020-08-21T06:09:48.000Z</time>
      </trkpt>
      <trkpt lat="42.91847915388643741607666015625" lon="-0.9763762168586254119873046875">
        <ele>949.4000244140625</ele>
        <time>2020-08-21T06:09:50.000Z</time>
      </trkpt>
      <trkpt lat="42.918540425598621368408203125" lon="-0.9764426015317440032958984375">
        <ele>949.79998779296875</ele>
        <time>2020-08-21T06:09:53.000Z</time>
      </trkpt>
      <trkpt lat="42.91862868703901767730712890625" lon="-0.97652046941220760345458984375">
        <ele>950.4000244140625</ele>
        <time>2020-08-21T06:09:57.000Z</time>
      </trkpt>
      <trkpt lat="42.91869138367474079132080078125" lon="-0.97656439058482646942138671875">
        <ele>950.79998779296875</ele>
        <time>2020-08-21T06:10:00.000Z</time>
      </trkpt>
      <trkpt lat="42.91877813637256622314453125" lon="-0.97661753185093402862548828125">
        <ele>951.5999755859375</ele>
        <time>2020-08-21T06:10:04.000Z</time>
      </trkpt>
      <trkpt lat="42.918891124427318572998046875" lon="-0.9766591899096965789794921875">
        <ele>952.4000244140625</ele>
        <time>2020-08-21T06:10:09.000Z</time>
      </trkpt>
      <trkpt lat="42.9189134202897548675537109375" lon="-0.9766712598502635955810546875">
        <ele>952.5999755859375</ele>
        <time>2020-08-21T06:10:10.000Z</time>
      </trkpt>
      <trkpt lat="42.919057421386241912841796875" lon="-0.97674317657947540283203125">
        <ele>953.5999755859375</ele>
        <time>2020-08-21T06:10:17.000Z</time>
      </trkpt>
      <trkpt lat="42.91917971335351467132568359375" lon="-0.9767725132405757904052734375">
        <ele>954.20001220703125</ele>
        <time>2020-08-21T06:10:23.000Z</time>
      </trkpt>
      <trkpt lat="42.91923134587705135345458984375" lon="-0.976773686707019805908203125">
        <ele>954.5999755859375</ele>
        <time>2020-08-21T06:10:25.000Z</time>
      </trkpt>
      <trkpt lat="42.91925297118723392486572265625" lon="-0.97678768448531627655029296875">
        <ele>955</ele>
        <time>2020-08-21T06:10:26.000Z</time>
      </trkpt>
      <trkpt lat="42.919277362525463104248046875" lon="-0.976799838244915008544921875">
        <ele>955</ele>
        <time>2020-08-21T06:10:27.000Z</time>
      </trkpt>
      <trkpt lat="42.91939445771276950836181640625" lon="-0.976836383342742919921875">
        <ele>955.79998779296875</ele>
        <time>2020-08-21T06:10:32.000Z</time>
      </trkpt>
      <trkpt lat="42.91951037943363189697265625" lon="-0.97685272805392742156982421875">
        <ele>956.5999755859375</ele>
        <time>2020-08-21T06:10:37.000Z</time>
      </trkpt>
      <trkpt lat="42.91953125037252902984619140625" lon="-0.9768627025187015533447265625">
        <ele>956.79998779296875</ele>
        <time>2020-08-21T06:10:38.000Z</time>
      </trkpt>
      <trkpt lat="42.91963367722928524017333984375" lon="-0.97689748741686344146728515625">
        <ele>957.4000244140625</ele>
        <time>2020-08-21T06:10:43.000Z</time>
      </trkpt>
      <trkpt lat="42.91972897946834564208984375" lon="-0.9768908657133579254150390625">
        <ele>958</ele>
        <time>2020-08-21T06:10:47.000Z</time>
      </trkpt>
      <trkpt lat="42.919794358313083648681640625" lon="-0.97689078189432621002197265625">
        <ele>958.4000244140625</ele>
        <time>2020-08-21T06:10:50.000Z</time>
      </trkpt>
      <trkpt lat="42.9198545403778553009033203125" lon="-0.97689061425626277923583984375">
        <ele>959</ele>
        <time>2020-08-21T06:10:53.000Z</time>
      </trkpt>
      <trkpt lat="42.9199169017374515533447265625" lon="-0.97687368281185626983642578125">
        <ele>959.4000244140625</ele>
        <time>2020-08-21T06:10:56.000Z</time>
      </trkpt>
      <trkpt lat="42.9200104437768459320068359375" lon="-0.9768606908619403839111328125">
        <ele>960</ele>
        <time>2020-08-21T06:11:01.000Z</time>
      </trkpt>
      <trkpt lat="42.92002779431641101837158203125" lon="-0.976858176290988922119140625">
        <ele>960.20001220703125</ele>
        <time>2020-08-21T06:11:02.000Z</time>
      </trkpt>
      <trkpt lat="42.92014312930405139923095703125" lon="-0.97685390152037143707275390625">
        <ele>961.20001220703125</ele>
        <time>2020-08-21T06:11:07.000Z</time>
      </trkpt>
      <trkpt lat="42.92016693390905857086181640625" lon="-0.97685440443456172943115234375">
        <ele>961.20001220703125</ele>
        <time>2020-08-21T06:11:08.000Z</time>
      </trkpt>
      <trkpt lat="42.9203390143811702728271484375" lon="-0.97686580382287502288818359375">
        <ele>962.20001220703125</ele>
        <time>2020-08-21T06:11:15.000Z</time>
      </trkpt>
      <trkpt lat="42.92045258916914463043212890625" lon="-0.9768727608025074005126953125">
        <ele>962.79998779296875</ele>
        <time>2020-08-21T06:11:20.000Z</time>
      </trkpt>
      <trkpt lat="42.92056540958583354949951171875" lon="-0.97688667476177215576171875">
        <ele>963.20001220703125</ele>
        <time>2020-08-21T06:11:25.000Z</time>
      </trkpt>
      <trkpt lat="42.92058737017214298248291015625" lon="-0.9768908657133579254150390625">
        <ele>963.4000244140625</ele>
        <time>2020-08-21T06:11:26.000Z</time>
      </trkpt>
      <trkpt lat="42.92072650976479053497314453125" lon="-0.97702438943088054656982421875">
        <ele>964.20001220703125</ele>
        <time>2020-08-21T06:11:34.000Z</time>
      </trkpt>
      <trkpt lat="42.92092180810868740081787109375" lon="-0.97704718820750713348388671875">
        <ele>965.4000244140625</ele>
        <time>2020-08-21T06:11:42.000Z</time>
      </trkpt>
      <trkpt lat="42.92108207009732723236083984375" lon="-0.977071411907672882080078125">
        <ele>966.20001220703125</ele>
        <time>2020-08-21T06:11:49.000Z</time>
      </trkpt>
      <trkpt lat="42.92110319249331951141357421875" lon="-0.977075099945068359375">
        <ele>966.4000244140625</ele>
        <time>2020-08-21T06:11:50.000Z</time>
      </trkpt>
      <trkpt lat="42.9212486185133457183837890625" lon="-0.977090857923030853271484375">
        <ele>967.20001220703125</ele>
        <time>2020-08-21T06:11:56.000Z</time>
      </trkpt>
      <trkpt lat="42.92129832319915294647216796875" lon="-0.977097563445568084716796875">
        <ele>967.5999755859375</ele>
        <time>2020-08-21T06:11:58.000Z</time>
      </trkpt>
      <trkpt lat="42.92142405174672603607177734375" lon="-0.97711306996643543243408203125">
        <ele>968.20001220703125</ele>
        <time>2020-08-21T06:12:04.000Z</time>
      </trkpt>
      <trkpt lat="42.9214918613433837890625" lon="-0.97709982655942440032958984375">
        <ele>968.5999755859375</ele>
        <time>2020-08-21T06:12:07.000Z</time>
      </trkpt>
      <trkpt lat="42.92156503535807132720947265625" lon="-0.977095551788806915283203125">
        <ele>969.20001220703125</ele>
        <time>2020-08-21T06:12:10.000Z</time>
      </trkpt>
      <trkpt lat="42.92167567647993564605712890625" lon="-0.9770715795457363128662109375">
        <ele>969.5999755859375</ele>
        <time>2020-08-21T06:12:15.000Z</time>
      </trkpt>
      <trkpt lat="42.92169931344687938690185546875" lon="-0.9770658798515796661376953125">
        <ele>969.5999755859375</ele>
        <time>2020-08-21T06:12:16.000Z</time>
      </trkpt>
      <trkpt lat="42.92184180580079555511474609375" lon="-0.97705640830099582672119140625">
        <ele>970.20001220703125</ele>
        <time>2020-08-21T06:12:22.000Z</time>
      </trkpt>
      <trkpt lat="42.921940125524997711181640625" lon="-0.977027826011180877685546875">
        <ele>970.5999755859375</ele>
        <time>2020-08-21T06:12:26.000Z</time>
      </trkpt>
      <trkpt lat="42.9219835437834262847900390625" lon="-0.97703042440116405487060546875">
        <ele>970.79998779296875</ele>
        <time>2020-08-21T06:12:28.000Z</time>
      </trkpt>
      <trkpt lat="42.922039367258548736572265625" lon="-0.97703159786760807037353515625">
        <ele>971</ele>
        <time>2020-08-21T06:12:31.000Z</time>
      </trkpt>
      <trkpt lat="42.9220804385840892791748046875" lon="-0.9770665504038333892822265625">
        <ele>971.4000244140625</ele>
        <time>2020-08-21T06:12:34.000Z</time>
      </trkpt>
      <trkpt lat="42.922125868499279022216796875" lon="-0.977167300879955291748046875">
        <ele>971.20001220703125</ele>
        <time>2020-08-21T06:12:40.000Z</time>
      </trkpt>
      <trkpt lat="42.92211505584418773651123046875" lon="-0.9772482700645923614501953125">
        <ele>971.20001220703125</ele>
        <time>2020-08-21T06:12:43.000Z</time>
      </trkpt>
      <trkpt lat="42.92209041304886341094970703125" lon="-0.977281965315341949462890625">
        <ele>971.4000244140625</ele>
        <time>2020-08-21T06:12:45.000Z</time>
      </trkpt>
      <trkpt lat="42.92207750491797924041748046875" lon="-0.9772958792746067047119140625">
        <ele>971.5999755859375</ele>
        <time>2020-08-21T06:12:46.000Z</time>
      </trkpt>
      <trkpt lat="42.92201288044452667236328125" lon="-0.9773133136332035064697265625">
        <ele>972.20001220703125</ele>
        <time>2020-08-21T06:12:51.000Z</time>
      </trkpt>
      <trkpt lat="42.9219295643270015716552734375" lon="-0.9773146547377109527587890625">
        <ele>972.4000244140625</ele>
        <time>2020-08-21T06:12:57.000Z</time>
      </trkpt>
      <trkpt lat="42.9219007305800914764404296875" lon="-0.977323539555072784423828125">
        <ele>972.5999755859375</ele>
        <time>2020-08-21T06:12:59.000Z</time>
      </trkpt>
      <trkpt lat="42.9217887483537197113037109375" lon="-0.97735061310231685638427734375">
        <ele>973.4000244140625</ele>
        <time>2020-08-21T06:13:06.000Z</time>
      </trkpt>
      <trkpt lat="42.921661846339702606201171875" lon="-0.9773944504559040069580078125">
        <ele>974.4000244140625</ele>
        <time>2020-08-21T06:13:13.000Z</time>
      </trkpt>
      <trkpt lat="42.92164449580013751983642578125" lon="-0.97740442492067813873291015625">
        <ele>974.5999755859375</ele>
        <time>2020-08-21T06:13:14.000Z</time>
      </trkpt>
      <trkpt lat="42.92156587354838848114013671875" lon="-0.97743920981884002685546875">
        <ele>975.20001220703125</ele>
        <time>2020-08-21T06:13:19.000Z</time>
      </trkpt>
      <trkpt lat="42.92157425545156002044677734375" lon="-0.977446250617504119873046875">
        <ele>975.4000244140625</ele>
        <time>2020-08-21T06:13:24.000Z</time>
      </trkpt>
      <trkpt lat="42.921574003994464874267578125" lon="-0.97744549624621868133544921875">
        <ele>975.4000244140625</ele>
        <time>2020-08-21T06:13:25.000Z</time>
      </trkpt>
      <trkpt lat="42.921574003994464874267578125" lon="-0.97744381986558437347412109375">
        <ele>975.5999755859375</ele>
        <time>2020-08-21T06:13:33.000Z</time>
      </trkpt>
      <trkpt lat="42.9215654544532299041748046875" lon="-0.9774484299123287200927734375">
        <ele>975.5999755859375</ele>
        <time>2020-08-21T06:13:44.000Z</time>
      </trkpt>
      <trkpt lat="42.92155933566391468048095703125" lon="-0.97745220176875591278076171875">
        <ele>975.5999755859375</ele>
        <time>2020-08-21T06:13:45.000Z</time>
      </trkpt>
      <trkpt lat="42.92150435037910938262939453125" lon="-0.9774705581367015838623046875">
        <ele>975.79998779296875</ele>
        <time>2020-08-21T06:13:49.000Z</time>
      </trkpt>
      <trkpt lat="42.92142287828028202056884765625" lon="-0.9775064326822757720947265625">
        <ele>976.20001220703125</ele>
        <time>2020-08-21T06:13:54.000Z</time>
      </trkpt>
      <trkpt lat="42.9214048571884632110595703125" lon="-0.97751154564321041107177734375">
        <ele>976.4000244140625</ele>
        <time>2020-08-21T06:13:55.000Z</time>
      </trkpt>
      <trkpt lat="42.92131994850933551788330078125" lon="-0.9775325842201709747314453125">
        <ele>977.20001220703125</ele>
        <time>2020-08-21T06:14:00.000Z</time>
      </trkpt>
      <trkpt lat="42.92121115140616893768310546875" lon="-0.97755814902484416961669921875">
        <ele>978.20001220703125</ele>
        <time>2020-08-21T06:14:06.000Z</time>
      </trkpt>
      <trkpt lat="42.92117066681385040283203125" lon="-0.9775550477206707000732421875">
        <ele>978.20001220703125</ele>
        <time>2020-08-21T06:14:08.000Z</time>
      </trkpt>
      <trkpt lat="42.92108491994440555572509765625" lon="-0.97755320370197296142578125">
        <ele>978.79998779296875</ele>
        <time>2020-08-21T06:14:12.000Z</time>
      </trkpt>
      <trkpt lat="42.9210280068218708038330078125" lon="-0.9775557182729244232177734375">
        <ele>979.4000244140625</ele>
        <time>2020-08-21T06:14:15.000Z</time>
      </trkpt>
      <trkpt lat="42.9209701716899871826171875" lon="-0.97756250761449337005615234375">
        <ele>979.79998779296875</ele>
        <time>2020-08-21T06:14:18.000Z</time>
      </trkpt>
      <trkpt lat="42.92093002237379550933837890625" lon="-0.9775671176612377166748046875">
        <ele>980.4000244140625</ele>
        <time>2020-08-21T06:14:20.000Z</time>
      </trkpt>
      <trkpt lat="42.92083463631570339202880859375" lon="-0.97756418399512767791748046875">
        <ele>981</ele>
        <time>2020-08-21T06:14:25.000Z</time>
      </trkpt>
      <trkpt lat="42.920780070126056671142578125" lon="-0.97756686620414257049560546875">
        <ele>981.5999755859375</ele>
        <time>2020-08-21T06:14:28.000Z</time>
      </trkpt>
      <trkpt lat="42.9207034595310688018798828125" lon="-0.977565944194793701171875">
        <ele>982.20001220703125</ele>
        <time>2020-08-21T06:14:32.000Z</time>
      </trkpt>
      <trkpt lat="42.9206649027764797210693359375" lon="-0.977576673030853271484375">
        <ele>982.4000244140625</ele>
        <time>2020-08-21T06:14:34.000Z</time>
      </trkpt>
      <trkpt lat="42.92055048979818820953369140625" lon="-0.97759100608527660369873046875">
        <ele>983.4000244140625</ele>
        <time>2020-08-21T06:14:40.000Z</time>
      </trkpt>
      <trkpt lat="42.9205302894115447998046875" lon="-0.97760072909295558929443359375">
        <ele>983.5999755859375</ele>
        <time>2020-08-21T06:14:41.000Z</time>
      </trkpt>
      <trkpt lat="42.92042727582156658172607421875" lon="-0.97770164720714092254638671875">
        <ele>984.20001220703125</ele>
        <time>2020-08-21T06:14:47.000Z</time>
      </trkpt>
      <trkpt lat="42.92040179483592510223388671875" lon="-0.97774506546556949615478515625">
        <ele>984.5999755859375</ele>
        <time>2020-08-21T06:14:49.000Z</time>
      </trkpt>
      <trkpt lat="42.92037094943225383758544921875" lon="-0.977867357432842254638671875">
        <ele>985.5999755859375</ele>
        <time>2020-08-21T06:14:54.000Z</time>
      </trkpt>
      <trkpt lat="42.9203785769641399383544921875" lon="-0.9779240190982818603515625">
        <ele>986.20001220703125</ele>
        <time>2020-08-21T06:14:56.000Z</time>
      </trkpt>
      <trkpt lat="42.92038402520120143890380859375" lon="-0.97795545123517513275146484375">
        <ele>986.5999755859375</ele>
        <time>2020-08-21T06:14:57.000Z</time>
      </trkpt>
      <trkpt lat="42.92039391584694385528564453125" lon="-0.9780230931937694549560546875">
        <ele>987.20001220703125</ele>
        <time>2020-08-21T06:14:59.000Z</time>
      </trkpt>
      <trkpt lat="42.92041160166263580322265625" lon="-0.97810431383550167083740234375">
        <ele>987.79998779296875</ele>
        <time>2020-08-21T06:15:02.000Z</time>
      </trkpt>
      <trkpt lat="42.9204583726823329925537109375" lon="-0.97820087336003780364990234375">
        <ele>988.4000244140625</ele>
        <time>2020-08-21T06:15:06.000Z</time>
      </trkpt>
      <trkpt lat="42.9204954206943511962890625" lon="-0.97828871570527553558349609375">
        <ele>989</ele>
        <time>2020-08-21T06:15:10.000Z</time>
      </trkpt>
      <trkpt lat="42.92051914148032665252685546875" lon="-0.9783880412578582763671875">
        <ele>989.4000244140625</ele>
        <time>2020-08-21T06:15:14.000Z</time>
      </trkpt>
      <trkpt lat="42.9205579496920108795166015625" lon="-0.97850002348423004150390625">
        <ele>989.79998779296875</ele>
        <time>2020-08-21T06:15:19.000Z</time>
      </trkpt>
      <trkpt lat="42.920577563345432281494140625" lon="-0.9785444475710391998291015625">
        <ele>990.20001220703125</ele>
        <time>2020-08-21T06:15:21.000Z</time>
      </trkpt>
      <trkpt lat="42.920614443719387054443359375" lon="-0.97863815724849700927734375">
        <ele>991</ele>
        <time>2020-08-21T06:15:25.000Z</time>
      </trkpt>
      <trkpt lat="42.92065274901688098907470703125" lon="-0.9787271730601787567138671875">
        <ele>991.5999755859375</ele>
        <time>2020-08-21T06:15:29.000Z</time>
      </trkpt>
      <trkpt lat="42.9206870310008525848388671875" lon="-0.9787902049720287322998046875">
        <ele>992</ele>
        <time>2020-08-21T06:15:32.000Z</time>
      </trkpt>
      <trkpt lat="42.92071494273841381072998046875" lon="-0.978830270469188690185546875">
        <ele>992.20001220703125</ele>
        <time>2020-08-21T06:15:34.000Z</time>
      </trkpt>
      <trkpt lat="42.9207225702702999114990234375" lon="-0.97885734401643276214599609375">
        <ele>992.20001220703125</ele>
        <time>2020-08-21T06:15:35.000Z</time>
      </trkpt>
      <trkpt lat="42.9207564331591129302978515625" lon="-0.9789923764765262603759765625">
        <ele>993.20001220703125</ele>
        <time>2020-08-21T06:15:40.000Z</time>
      </trkpt>
      <trkpt lat="42.920767329633235931396484375" lon="-0.9790476970374584197998046875">
        <ele>993.4000244140625</ele>
        <time>2020-08-21T06:15:42.000Z</time>
      </trkpt>
      <trkpt lat="42.92080060578882694244384765625" lon="-0.97917166538536548614501953125">
        <ele>994.20001220703125</ele>
        <time>2020-08-21T06:15:47.000Z</time>
      </trkpt>
      <trkpt lat="42.92081116698682308197021484375" lon="-0.9791928716003894805908203125">
        <ele>994.4000244140625</ele>
        <time>2020-08-21T06:15:48.000Z</time>
      </trkpt>
      <trkpt lat="42.92085844092071056365966796875" lon="-0.97932723350822925567626953125">
        <ele>995.20001220703125</ele>
        <time>2020-08-21T06:15:54.000Z</time>
      </trkpt>
      <trkpt lat="42.920867912471294403076171875" lon="-0.97954030148684978485107421875">
        <ele>996.20001220703125</ele>
        <time>2020-08-21T06:16:01.000Z</time>
      </trkpt>
      <trkpt lat="42.9208680801093578338623046875" lon="-0.9795697219669818878173828125">
        <ele>996.4000244140625</ele>
        <time>2020-08-21T06:16:02.000Z</time>
      </trkpt>
      <trkpt lat="42.92086531408131122589111328125" lon="-0.9797393716871738433837890625">
        <ele>997.4000244140625</ele>
        <time>2020-08-21T06:16:08.000Z</time>
      </trkpt>
      <trkpt lat="42.92086313478648662567138671875" lon="-0.97977013327181339263916015625">
        <ele>997.5999755859375</ele>
        <time>2020-08-21T06:16:09.000Z</time>
      </trkpt>
      <trkpt lat="42.92086212895810604095458984375" lon="-0.9799839556217193603515625">
        <ele>998.5999755859375</ele>
        <time>2020-08-21T06:16:17.000Z</time>
      </trkpt>
      <trkpt lat="42.92083497159183025360107421875" lon="-0.98011362366378307342529296875">
        <ele>999.4000244140625</ele>
        <time>2020-08-21T06:16:23.000Z</time>
      </trkpt>
      <trkpt lat="42.92083580978214740753173828125" lon="-0.98013239912688732147216796875">
        <ele>999.5999755859375</ele>
        <time>2020-08-21T06:16:24.000Z</time>
      </trkpt>
      <trkpt lat="42.92086497880518436431884765625" lon="-0.98022309131920337677001953125">
        <ele>1000.5999755859375</ele>
        <time>2020-08-21T06:16:29.000Z</time>
      </trkpt>
      <trkpt lat="42.92087755165994167327880859375" lon="-0.9802436269819736480712890625">
        <ele>1000.5999755859375</ele>
        <time>2020-08-21T06:16:30.000Z</time>
      </trkpt>
      <trkpt lat="42.92090252973139286041259765625" lon="-0.98032903857529163360595703125">
        <ele>1001</ele>
        <time>2020-08-21T06:16:33.000Z</time>
      </trkpt>
      <trkpt lat="42.9209156893193721771240234375" lon="-0.980355776846408843994140625">
        <ele>1001.20001220703125</ele>
        <time>2020-08-21T06:16:34.000Z</time>
      </trkpt>
      <trkpt lat="42.92096053250133991241455078125" lon="-0.9804310463368892669677734375">
        <ele>1001.5999755859375</ele>
        <time>2020-08-21T06:16:37.000Z</time>
      </trkpt>
      <trkpt lat="42.92097427882254123687744140625" lon="-0.98045644350349903106689453125">
        <ele>1001.5999755859375</ele>
        <time>2020-08-21T06:16:38.000Z</time>
      </trkpt>
      <trkpt lat="42.9210065491497516632080078125" lon="-0.98052752204239368438720703125">
        <ele>1002.20001220703125</ele>
        <time>2020-08-21T06:16:41.000Z</time>
      </trkpt>
      <trkpt lat="42.9210370592772960662841796875" lon="-0.98059038631618022918701171875">
        <ele>1002.79998779296875</ele>
        <time>2020-08-21T06:16:44.000Z</time>
      </trkpt>
      <trkpt lat="42.92105876840651035308837890625" lon="-0.9806523285806179046630859375">
        <ele>1003.20001220703125</ele>
        <time>2020-08-21T06:16:47.000Z</time>
      </trkpt>
      <trkpt lat="42.9210695810616016387939453125" lon="-0.98080194555222988128662109375">
        <ele>1004.20001220703125</ele>
        <time>2020-08-21T06:16:53.000Z</time>
      </trkpt>
      <trkpt lat="42.92104384861886501312255859375" lon="-0.9809678234159946441650390625">
        <ele>1005</ele>
        <time>2020-08-21T06:16:59.000Z</time>
      </trkpt>
      <trkpt lat="42.92103932239115238189697265625" lon="-0.9809959866106510162353515625">
        <ele>1005.20001220703125</ele>
        <time>2020-08-21T06:17:00.000Z</time>
      </trkpt>
      <trkpt lat="42.92106262408196926116943359375" lon="-0.9811582602560520172119140625">
        <ele>1006.20001220703125</ele>
        <time>2020-08-21T06:17:06.000Z</time>
      </trkpt>
      <trkpt lat="42.92106865905225276947021484375" lon="-0.981187261641025543212890625">
        <ele>1006.20001220703125</ele>
        <time>2020-08-21T06:17:07.000Z</time>
      </trkpt>
      <trkpt lat="42.9210695810616016387939453125" lon="-0.98131190054118633270263671875">
        <ele>1007</ele>
        <time>2020-08-21T06:17:11.000Z</time>
      </trkpt>
      <trkpt lat="42.92106564156711101531982421875" lon="-0.9813802130520343780517578125">
        <ele>1007.4000244140625</ele>
        <time>2020-08-21T06:17:14.000Z</time>
      </trkpt>
      <trkpt lat="42.9210732690989971160888671875" lon="-0.9814596734941005706787109375">
        <ele>1007.5999755859375</ele>
        <time>2020-08-21T06:17:17.000Z</time>
      </trkpt>
      <trkpt lat="42.9211456887423992156982421875" lon="-0.9816615097224712371826171875">
        <ele>1008.5999755859375</ele>
        <time>2020-08-21T06:17:24.000Z</time>
      </trkpt>
      <trkpt lat="42.92126647196710109710693359375" lon="-0.9817617572844028472900390625">
        <ele>1009.79998779296875</ele>
        <time>2020-08-21T06:17:31.000Z</time>
      </trkpt>
      <trkpt lat="42.92140846140682697296142578125" lon="-0.9818239510059356689453125">
        <ele>1011</ele>
        <time>2020-08-21T06:17:38.000Z</time>
      </trkpt>
      <trkpt lat="42.92141969315707683563232421875" lon="-0.98184532485902309417724609375">
        <ele>1011.20001220703125</ele>
        <time>2020-08-21T06:17:39.000Z</time>
      </trkpt>
      <trkpt lat="42.92145690880715847015380859375" lon="-0.98195496015250682830810546875">
        <ele>1011.5999755859375</ele>
        <time>2020-08-21T06:17:43.000Z</time>
      </trkpt>
      <trkpt lat="42.921464703977108001708984375" lon="-0.98208588548004627227783203125">
        <ele>1012</ele>
        <time>2020-08-21T06:17:47.000Z</time>
      </trkpt>
      <trkpt lat="42.9214635305106639862060546875" lon="-0.9821174852550029754638671875">
        <ele>1012.20001220703125</ele>
        <time>2020-08-21T06:17:48.000Z</time>
      </trkpt>
      <trkpt lat="42.92144425213336944580078125" lon="-0.98223022185266017913818359375">
        <ele>1013</ele>
        <time>2020-08-21T06:17:52.000Z</time>
      </trkpt>
      <trkpt lat="42.921426482498645782470703125" lon="-0.9823122806847095489501953125">
        <ele>1013.5999755859375</ele>
        <time>2020-08-21T06:17:55.000Z</time>
      </trkpt>
      <trkpt lat="42.92138298042118549346923828125" lon="-0.98240875639021396636962890625">
        <ele>1014.20001220703125</ele>
        <time>2020-08-21T06:17:58.000Z</time>
      </trkpt>
      <trkpt lat="42.92133453302085399627685546875" lon="-0.982520990073680877685546875">
        <ele>1014.79998779296875</ele>
        <time>2020-08-21T06:18:02.000Z</time>
      </trkpt>
      <trkpt lat="42.92130385525524616241455078125" lon="-0.98261344246566295623779296875">
        <ele>1015.4000244140625</ele>
        <time>2020-08-21T06:18:06.000Z</time>
      </trkpt>
      <trkpt lat="42.9213027656078338623046875" lon="-0.98265987820923328399658203125">
        <ele>1015.5999755859375</ele>
        <time>2020-08-21T06:18:08.000Z</time>
      </trkpt>
      <trkpt lat="42.921305783092975616455078125" lon="-0.98275576718151569366455078125">
        <ele>1016.4000244140625</ele>
        <time>2020-08-21T06:18:12.000Z</time>
      </trkpt>
      <trkpt lat="42.92131416499614715576171875" lon="-0.98280471749603748321533203125">
        <ele>1016.79998779296875</ele>
        <time>2020-08-21T06:18:14.000Z</time>
      </trkpt>
      <trkpt lat="42.921332605183124542236328125" lon="-0.9829201363027095794677734375">
        <ele>1017.79998779296875</ele>
        <time>2020-08-21T06:18:18.000Z</time>
      </trkpt>
      <trkpt lat="42.92133905924856662750244140625" lon="-0.98294855095446109771728515625">
        <ele>1018</ele>
        <time>2020-08-21T06:18:19.000Z</time>
      </trkpt>
      <trkpt lat="42.92140175588428974151611328125" lon="-0.983095653355121612548828125">
        <ele>1018.79998779296875</ele>
        <time>2020-08-21T06:18:25.000Z</time>
      </trkpt>
      <trkpt lat="42.92140963487327098846435546875" lon="-0.98312607966363430023193359375">
        <ele>1019</ele>
        <time>2020-08-21T06:18:26.000Z</time>
      </trkpt>
      <trkpt lat="42.9214574955403804779052734375" lon="-0.98331701941788196563720703125">
        <ele>1020</ele>
        <time>2020-08-21T06:18:33.000Z</time>
      </trkpt>
      <trkpt lat="42.92146177031099796295166015625" lon="-0.983340404927730560302734375">
        <ele>1020.20001220703125</ele>
        <time>2020-08-21T06:18:34.000Z</time>
      </trkpt>
      <trkpt lat="42.92151038534939289093017578125" lon="-0.98350913263857364654541015625">
        <ele>1021</ele>
        <time>2020-08-21T06:18:41.000Z</time>
      </trkpt>
      <trkpt lat="42.92152128182351589202880859375" lon="-0.9836517088115215301513671875">
        <ele>1022</ele>
        <time>2020-08-21T06:18:47.000Z</time>
      </trkpt>
      <trkpt lat="42.92152681387960910797119140625" lon="-0.98367677070200443267822265625">
        <ele>1022.20001220703125</ele>
        <time>2020-08-21T06:18:48.000Z</time>
      </trkpt>
      <trkpt lat="42.92157475836575031280517578125" lon="-0.98382848314940929412841796875">
        <ele>1023.20001220703125</ele>
        <time>2020-08-21T06:18:54.000Z</time>
      </trkpt>
      <trkpt lat="42.92159889824688434600830078125" lon="-0.9838682971894741058349609375">
        <ele>1023.4000244140625</ele>
        <time>2020-08-21T06:18:56.000Z</time>
      </trkpt>
      <trkpt lat="42.92166545055806636810302734375" lon="-0.98397131077945232391357421875">
        <ele>1024.199951171875</ele>
        <time>2020-08-21T06:19:01.000Z</time>
      </trkpt>
      <trkpt lat="42.92169663123786449432373046875" lon="-0.98399880342185497283935546875">
        <ele>1024.4000244140625</ele>
        <time>2020-08-21T06:19:03.000Z</time>
      </trkpt>
      <trkpt lat="42.92176083661615848541259765625" lon="-0.98405085504055023193359375">
        <ele>1025.199951171875</ele>
        <time>2020-08-21T06:19:07.000Z</time>
      </trkpt>
      <trkpt lat="42.92182604782283306121826171875" lon="-0.98407373763620853424072265625">
        <ele>1025.800048828125</ele>
        <time>2020-08-21T06:19:11.000Z</time>
      </trkpt>
      <trkpt lat="42.92187751270830631256103515625" lon="-0.9840801917016506195068359375">
        <ele>1026.4000244140625</ele>
        <time>2020-08-21T06:19:14.000Z</time>
      </trkpt>
      <trkpt lat="42.92196451686322689056396484375" lon="-0.98410106264054775238037109375">
        <ele>1027</ele>
        <time>2020-08-21T06:19:19.000Z</time>
      </trkpt>
      <trkpt lat="42.92203836143016815185546875" lon="-0.9840868972241878509521484375">
        <ele>1027.5999755859375</ele>
        <time>2020-08-21T06:19:23.000Z</time>
      </trkpt>
      <trkpt lat="42.92207230813801288604736328125" lon="-0.98408312536776065826416015625">
        <ele>1028</ele>
        <time>2020-08-21T06:19:25.000Z</time>
      </trkpt>
      <trkpt lat="42.9221733100712299346923828125" lon="-0.98405797965824604034423828125">
        <ele>1028.5999755859375</ele>
        <time>2020-08-21T06:19:31.000Z</time>
      </trkpt>
      <trkpt lat="42.92219049297273159027099609375" lon="-0.98405630327761173248291015625">
        <ele>1028.5999755859375</ele>
        <time>2020-08-21T06:19:32.000Z</time>
      </trkpt>
      <trkpt lat="42.9223268665373325347900390625" lon="-0.984024368226528167724609375">
        <ele>1029.800048828125</ele>
        <time>2020-08-21T06:19:40.000Z</time>
      </trkpt>
      <trkpt lat="42.92243541218340396881103515625" lon="-0.9840131364762783050537109375">
        <ele>1030.5999755859375</ele>
        <time>2020-08-21T06:19:46.000Z</time>
      </trkpt>
      <trkpt lat="42.9224519245326519012451171875" lon="-0.9840138070285320281982421875">
        <ele>1030.800048828125</ele>
        <time>2020-08-21T06:19:47.000Z</time>
      </trkpt>
      <trkpt lat="42.92246575467288494110107421875" lon="-0.98400928080081939697265625">
        <ele>1030.800048828125</ele>
        <time>2020-08-21T06:19:48.000Z</time>
      </trkpt>
      <trkpt lat="42.922508753836154937744140625" lon="-0.9840181656181812286376953125">
        <ele>1031.199951171875</ele>
        <time>2020-08-21T06:19:51.000Z</time>
      </trkpt>
      <trkpt lat="42.92257371358573436737060546875" lon="-0.98412537015974521636962890625">
        <ele>1031.800048828125</ele>
        <time>2020-08-21T06:19:55.000Z</time>
      </trkpt>
      <trkpt lat="42.92259768582880496978759765625" lon="-0.98418152891099452972412109375">
        <ele>1032</ele>
        <time>2020-08-21T06:19:57.000Z</time>
      </trkpt>
      <trkpt lat="42.922610677778720855712890625" lon="-0.9842712990939617156982421875">
        <ele>1032.5999755859375</ele>
        <time>2020-08-21T06:20:00.000Z</time>
      </trkpt>
      <trkpt lat="42.92261310853064060211181640625" lon="-0.9842994622886180877685546875">
        <ele>1032.800048828125</ele>
        <time>2020-08-21T06:20:01.000Z</time>
      </trkpt>
      <trkpt lat="42.92261361144483089447021484375" lon="-0.98433005623519420623779296875">
        <ele>1033</ele>
        <time>2020-08-21T06:20:02.000Z</time>
      </trkpt>
      <trkpt lat="42.922594584524631500244140625" lon="-0.9844761528074741363525390625">
        <ele>1034.199951171875</ele>
        <time>2020-08-21T06:20:07.000Z</time>
      </trkpt>
      <trkpt lat="42.92258863337337970733642578125" lon="-0.98450356163084506988525390625">
        <ele>1034.199951171875</ele>
        <time>2020-08-21T06:20:08.000Z</time>
      </trkpt>
      <trkpt lat="42.9225287027657032012939453125" lon="-0.9846860356628894805908203125">
        <ele>1035.199951171875</ele>
        <time>2020-08-21T06:20:15.000Z</time>
      </trkpt>
      <trkpt lat="42.92251906357705593109130859375" lon="-0.98473590798676013946533203125">
        <ele>1035.5999755859375</ele>
        <time>2020-08-21T06:20:17.000Z</time>
      </trkpt>
      <trkpt lat="42.92253633029758930206298828125" lon="-0.98487605340778827667236328125">
        <ele>1036.4000244140625</ele>
        <time>2020-08-21T06:20:23.000Z</time>
      </trkpt>
      <trkpt lat="42.92254353873431682586669921875" lon="-0.9849031269550323486328125">
        <ele>1036.4000244140625</ele>
        <time>2020-08-21T06:20:24.000Z</time>
      </trkpt>
      <trkpt lat="42.922589220106601715087890625" lon="-0.985058359801769256591796875">
        <ele>1037.4000244140625</ele>
        <time>2020-08-21T06:20:29.000Z</time>
      </trkpt>
      <trkpt lat="42.92264076881110668182373046875" lon="-0.98515148274600505828857421875">
        <ele>1038</ele>
        <time>2020-08-21T06:20:33.000Z</time>
      </trkpt>
      <trkpt lat="42.92266658507287502288818359375" lon="-0.9851943142712116241455078125">
        <ele>1038.4000244140625</ele>
        <time>2020-08-21T06:20:35.000Z</time>
      </trkpt>
      <trkpt lat="42.922756858170032501220703125" lon="-0.9853036142885684967041015625">
        <ele>1039.4000244140625</ele>
        <time>2020-08-21T06:20:41.000Z</time>
      </trkpt>
      <trkpt lat="42.9227741248905658721923828125" lon="-0.985318534076213836669921875">
        <ele>1039.5999755859375</ele>
        <time>2020-08-21T06:20:42.000Z</time>
      </trkpt>
      <trkpt lat="42.92288149707019329071044921875" lon="-0.98542012274265289306640625">
        <ele>1040.5999755859375</ele>
        <time>2020-08-21T06:20:49.000Z</time>
      </trkpt>
      <trkpt lat="42.92289574630558490753173828125" lon="-0.98543680272996425628662109375">
        <ele>1040.800048828125</ele>
        <time>2020-08-21T06:20:50.000Z</time>
      </trkpt>
      <trkpt lat="42.92296699248254299163818359375" lon="-0.98550553433597087860107421875">
        <ele>1041.5999755859375</ele>
        <time>2020-08-21T06:20:55.000Z</time>
      </trkpt>
      <trkpt lat="42.92298258282244205474853515625" lon="-0.98551492206752300262451171875">
        <ele>1041.800048828125</ele>
        <time>2020-08-21T06:20:56.000Z</time>
      </trkpt>
      <trkpt lat="42.92307796888053417205810546875" lon="-0.9855976514518260955810546875">
        <ele>1042.800048828125</ele>
        <time>2020-08-21T06:21:02.000Z</time>
      </trkpt>
      <trkpt lat="42.92318089865148067474365234375" lon="-0.985728241503238677978515625">
        <ele>1043.800048828125</ele>
        <time>2020-08-21T06:21:09.000Z</time>
      </trkpt>
      <trkpt lat="42.9232768714427947998046875" lon="-0.98592177964746952056884765625">
        <ele>1044.800048828125</ele>
        <time>2020-08-21T06:21:17.000Z</time>
      </trkpt>
      <trkpt lat="42.92334719561040401458740234375" lon="-0.98608170635998249053955078125">
        <ele>1046</ele>
        <time>2020-08-21T06:21:24.000Z</time>
      </trkpt>
      <trkpt lat="42.92336697690188884735107421875" lon="-0.9861263819038867950439453125">
        <ele>1046.4000244140625</ele>
        <time>2020-08-21T06:21:26.000Z</time>
      </trkpt>
      <trkpt lat="42.92346403934061527252197265625" lon="-0.98623685538768768310546875">
        <ele>1047.199951171875</ele>
        <time>2020-08-21T06:21:32.000Z</time>
      </trkpt>
      <trkpt lat="42.92348247952759265899658203125" lon="-0.98624900914728641510009765625">
        <ele>1047.4000244140625</ele>
        <time>2020-08-21T06:21:33.000Z</time>
      </trkpt>
      <trkpt lat="42.92356831021606922149658203125" lon="-0.98629376851022243499755859375">
        <ele>1048.199951171875</ele>
        <time>2020-08-21T06:21:37.000Z</time>
      </trkpt>
      <trkpt lat="42.9235881753265857696533203125" lon="-0.98630282096564769744873046875">
        <ele>1048.4000244140625</ele>
        <time>2020-08-21T06:21:38.000Z</time>
      </trkpt>
      <trkpt lat="42.9236443340778350830078125" lon="-0.98633081652224063873291015625">
        <ele>1048.800048828125</ele>
        <time>2020-08-21T06:21:41.000Z</time>
      </trkpt>
      <trkpt lat="42.92371046729385852813720703125" lon="-0.98639510571956634521484375">
        <ele>1049.4000244140625</ele>
        <time>2020-08-21T06:21:45.000Z</time>
      </trkpt>
      <trkpt lat="42.92374969460070133209228515625" lon="-0.986427627503871917724609375">
        <ele>1049.800048828125</ele>
        <time>2020-08-21T06:21:47.000Z</time>
      </trkpt>
      <trkpt lat="42.9238557256758213043212890625" lon="-0.986562073230743408203125">
        <ele>1050.4000244140625</ele>
        <time>2020-08-21T06:21:53.000Z</time>
      </trkpt>
      <trkpt lat="42.9239291511476039886474609375" lon="-0.986715964972972869873046875">
        <ele>1051.5999755859375</ele>
        <time>2020-08-21T06:21:59.000Z</time>
      </trkpt>
      <trkpt lat="42.9239596612751483917236328125" lon="-0.98686206154525279998779296875">
        <ele>1052.5999755859375</ele>
        <time>2020-08-21T06:22:04.000Z</time>
      </trkpt>
      <trkpt lat="42.92396930046379566192626953125" lon="-0.98689072765409946441650390625">
        <ele>1052.800048828125</ele>
        <time>2020-08-21T06:22:05.000Z</time>
      </trkpt>
      <trkpt lat="42.92400735430419445037841796875" lon="-0.98704847507178783416748046875">
        <ele>1053.800048828125</ele>
        <time>2020-08-21T06:22:11.000Z</time>
      </trkpt>
      <trkpt lat="42.92401607148349285125732421875" lon="-0.98706993274390697479248046875">
        <ele>1054</ele>
        <time>2020-08-21T06:22:12.000Z</time>
      </trkpt>
      <trkpt lat="42.92407843284308910369873046875" lon="-0.987172611057758331298828125">
        <ele>1054.800048828125</ele>
        <time>2020-08-21T06:22:17.000Z</time>
      </trkpt>
      <trkpt lat="42.924107350409030914306640625" lon="-0.987204127013683319091796875">
        <ele>1055.199951171875</ele>
        <time>2020-08-21T06:22:19.000Z</time>
      </trkpt>
      <trkpt lat="42.92415923438966274261474609375" lon="-0.98724092356860637664794921875">
        <ele>1055.5999755859375</ele>
        <time>2020-08-21T06:22:22.000Z</time>
      </trkpt>
      <trkpt lat="42.92418052442371845245361328125" lon="-0.9872455336153507232666015625">
        <ele>1055.800048828125</ele>
        <time>2020-08-21T06:22:23.000Z</time>
      </trkpt>
      <trkpt lat="42.9242174886167049407958984375" lon="-0.9872757084667682647705078125">
        <ele>1056</ele>
        <time>2020-08-21T06:22:25.000Z</time>
      </trkpt>
      <trkpt lat="42.92423534207046031951904296875" lon="-0.98729020915925502777099609375">
        <ele>1056.4000244140625</ele>
        <time>2020-08-21T06:22:26.000Z</time>
      </trkpt>
      <trkpt lat="42.92434212751686573028564453125" lon="-0.98736246116459369659423828125">
        <ele>1057</ele>
        <time>2020-08-21T06:22:31.000Z</time>
      </trkpt>
      <trkpt lat="42.9244062490761280059814453125" lon="-0.9873974137008190155029296875">
        <ele>1057.5999755859375</ele>
        <time>2020-08-21T06:22:34.000Z</time>
      </trkpt>
      <trkpt lat="42.9244489967823028564453125" lon="-0.9874218888580799102783203125">
        <ele>1058</ele>
        <time>2020-08-21T06:22:36.000Z</time>
      </trkpt>
      <trkpt lat="42.924468778073787689208984375" lon="-0.9874326176941394805908203125">
        <ele>1058.199951171875</ele>
        <time>2020-08-21T06:22:37.000Z</time>
      </trkpt>
      <trkpt lat="42.92455025017261505126953125" lon="-0.98748953081667423248291015625">
        <ele>1058.800048828125</ele>
        <time>2020-08-21T06:22:41.000Z</time>
      </trkpt>
      <trkpt lat="42.92461194097995758056640625" lon="-0.9875244833528995513916015625">
        <ele>1059.199951171875</ele>
        <time>2020-08-21T06:22:44.000Z</time>
      </trkpt>
      <trkpt lat="42.92465175502002239227294921875" lon="-0.9875370562076568603515625">
        <ele>1059.5999755859375</ele>
        <time>2020-08-21T06:22:46.000Z</time>
      </trkpt>
      <trkpt lat="42.92474932037293910980224609375" lon="-0.9875878505408763885498046875">
        <ele>1060.199951171875</ele>
        <time>2020-08-21T06:22:51.000Z</time>
      </trkpt>
      <trkpt lat="42.92476826347410678863525390625" lon="-0.987599752843379974365234375">
        <ele>1060.4000244140625</ele>
        <time>2020-08-21T06:22:52.000Z</time>
      </trkpt>
      <trkpt lat="42.92485644109547138214111328125" lon="-0.98762917332351207733154296875">
        <ele>1061.4000244140625</ele>
        <time>2020-08-21T06:22:57.000Z</time>
      </trkpt>
      <trkpt lat="42.92487655766308307647705078125" lon="-0.98763403482735157012939453125">
        <ele>1061.5999755859375</ele>
        <time>2020-08-21T06:22:58.000Z</time>
      </trkpt>
      <trkpt lat="42.92489633895456790924072265625" lon="-0.9876381419599056243896484375">
        <ele>1061.800048828125</ele>
        <time>2020-08-21T06:22:59.000Z</time>
      </trkpt>
      <trkpt lat="42.92502642609179019927978515625" lon="-0.9876716695725917816162109375">
        <ele>1062.800048828125</ele>
        <time>2020-08-21T06:23:05.000Z</time>
      </trkpt>
      <trkpt lat="42.9251249134540557861328125" lon="-0.98774534650146961212158203125">
        <ele>1063.5999755859375</ele>
        <time>2020-08-21T06:23:10.000Z</time>
      </trkpt>
      <trkpt lat="42.925171516835689544677734375" lon="-0.9878044389188289642333984375">
        <ele>1064</ele>
        <time>2020-08-21T06:23:12.000Z</time>
      </trkpt>
      <trkpt lat="42.92523547075688838958740234375" lon="-0.98796553909778594970703125">
        <ele>1064.5999755859375</ele>
        <time>2020-08-21T06:23:17.000Z</time>
      </trkpt>
      <trkpt lat="42.9252078942954540252685546875" lon="-0.988155305385589599609375">
        <ele>1065</ele>
        <time>2020-08-21T06:23:22.000Z</time>
      </trkpt>
      <trkpt lat="42.92517847381532192230224609375" lon="-0.98820936866104602813720703125">
        <ele>1065.199951171875</ele>
        <time>2020-08-21T06:23:23.000Z</time>
      </trkpt>
      <trkpt lat="42.92512432672083377838134765625" lon="-0.98828547634184360504150390625">
        <ele>1065.800048828125</ele>
        <time>2020-08-21T06:23:25.000Z</time>
      </trkpt>
      <trkpt lat="42.92501620016992092132568359375" lon="-0.9883734025061130523681640625">
        <ele>1066.199951171875</ele>
        <time>2020-08-21T06:23:29.000Z</time>
      </trkpt>
      <trkpt lat="42.9249933175742626190185546875" lon="-0.9883760847151279449462890625">
        <ele>1066.4000244140625</ele>
        <time>2020-08-21T06:23:30.000Z</time>
      </trkpt>
      <trkpt lat="42.92489080689847469329833984375" lon="-0.988395027816295623779296875">
        <ele>1067.4000244140625</ele>
        <time>2020-08-21T06:23:35.000Z</time>
      </trkpt>
      <trkpt lat="42.92482811026275157928466796875" lon="-0.98839025013148784637451171875">
        <ele>1068</ele>
        <time>2020-08-21T06:23:38.000Z</time>
      </trkpt>
      <trkpt lat="42.924748398363590240478515625" lon="-0.98838337697088718414306640625">
        <ele>1068.4000244140625</ele>
        <time>2020-08-21T06:23:42.000Z</time>
      </trkpt>
      <trkpt lat="42.92466701008379459381103515625" lon="-0.988374240696430206298828125">
        <ele>1069</ele>
        <time>2020-08-21T06:23:46.000Z</time>
      </trkpt>
      <trkpt lat="42.9246469773352146148681640625" lon="-0.9883740730583667755126953125">
        <ele>1069.199951171875</ele>
        <time>2020-08-21T06:23:47.000Z</time>
      </trkpt>
      <trkpt lat="42.92457028292119503021240234375" lon="-0.9883666969835758209228515625">
        <ele>1069.5999755859375</ele>
        <time>2020-08-21T06:23:51.000Z</time>
      </trkpt>
      <trkpt lat="42.9245510883629322052001953125" lon="-0.9883646853268146514892578125">
        <ele>1069.5999755859375</ele>
        <time>2020-08-21T06:23:52.000Z</time>
      </trkpt>
      <trkpt lat="42.92448914609849452972412109375" lon="-0.98835923708975315093994140625">
        <ele>1070.199951171875</ele>
        <time>2020-08-21T06:23:55.000Z</time>
      </trkpt>
      <trkpt lat="42.92443223297595977783203125" lon="-0.98835588432848453521728515625">
        <ele>1070.4000244140625</ele>
        <time>2020-08-21T06:23:58.000Z</time>
      </trkpt>
      <trkpt lat="42.92441613972187042236328125" lon="-0.98834733478724956512451171875">
        <ele>1070.5999755859375</ele>
        <time>2020-08-21T06:23:59.000Z</time>
      </trkpt>
      <trkpt lat="42.92436107061803340911865234375" lon="-0.9883444011211395263671875">
        <ele>1071.199951171875</ele>
        <time>2020-08-21T06:24:02.000Z</time>
      </trkpt>
      <trkpt lat="42.92430072091519832611083984375" lon="-0.98834364674985408782958984375">
        <ele>1071.800048828125</ele>
        <time>2020-08-21T06:24:05.000Z</time>
      </trkpt>
      <trkpt lat="42.92423634789884090423583984375" lon="-0.98834565840661525726318359375">
        <ele>1072.4000244140625</ele>
        <time>2020-08-21T06:24:08.000Z</time>
      </trkpt>
      <trkpt lat="42.924111373722553253173828125" lon="-0.98830542527139186859130859375">
        <ele>1073.4000244140625</ele>
        <time>2020-08-21T06:24:14.000Z</time>
      </trkpt>
      <trkpt lat="42.92402160353958606719970703125" lon="-0.988289751112461090087890625">
        <ele>1074</ele>
        <time>2020-08-21T06:24:19.000Z</time>
      </trkpt>
      <trkpt lat="42.92397365905344486236572265625" lon="-0.98829419352114200592041015625">
        <ele>1074.4000244140625</ele>
        <time>2020-08-21T06:24:21.000Z</time>
      </trkpt>
      <trkpt lat="42.923931665718555450439453125" lon="-0.9882936067879199981689453125">
        <ele>1074.800048828125</ele>
        <time>2020-08-21T06:24:23.000Z</time>
      </trkpt>
      <trkpt lat="42.9238483496010303497314453125" lon="-0.98828212358057498931884765625">
        <ele>1075.4000244140625</ele>
        <time>2020-08-21T06:24:27.000Z</time>
      </trkpt>
      <trkpt lat="42.92381725274026393890380859375" lon="-0.98828933201730251312255859375">
        <ele>1075.800048828125</ele>
        <time>2020-08-21T06:24:29.000Z</time>
      </trkpt>
      <trkpt lat="42.923817001283168792724609375" lon="-0.9882929362356662750244140625">
        <ele>1076</ele>
        <time>2020-08-21T06:24:31.000Z</time>
      </trkpt>
      <trkpt lat="42.9237812943756580352783203125" lon="-0.98818237893283367156982421875">
        <ele>1076.4000244140625</ele>
        <time>2020-08-21T06:27:40.000Z</time>
      </trkpt>
      <trkpt lat="42.923760004341602325439453125" lon="-0.9881782718002796173095703125">
        <ele>1076.4000244140625</ele>
        <time>2020-08-21T06:27:44.000Z</time>
      </trkpt>
      <trkpt lat="42.92365011759102344512939453125" lon="-0.9881511144340038299560546875">
        <ele>1076.5999755859375</ele>
        <time>2020-08-21T06:27:51.000Z</time>
      </trkpt>
      <trkpt lat="42.92358758859336376190185546875" lon="-0.98811130039393901824951171875">
        <ele>1077.4000244140625</ele>
        <time>2020-08-21T06:27:55.000Z</time>
      </trkpt>
      <trkpt lat="42.92356856167316436767578125" lon="-0.988104678690433502197265625">
        <ele>1077.5999755859375</ele>
        <time>2020-08-21T06:27:56.000Z</time>
      </trkpt>
      <trkpt lat="42.92347460053861141204833984375" lon="-0.9880823828279972076416015625">
        <ele>1078.4000244140625</ele>
        <time>2020-08-21T06:28:01.000Z</time>
      </trkpt>
      <trkpt lat="42.9234565794467926025390625" lon="-0.9880783595144748687744140625">
        <ele>1078.5999755859375</ele>
        <time>2020-08-21T06:28:02.000Z</time>
      </trkpt>
      <trkpt lat="42.92339916341006755828857421875" lon="-0.98804759792983531951904296875">
        <ele>1078.800048828125</ele>
        <time>2020-08-21T06:28:05.000Z</time>
      </trkpt>
      <trkpt lat="42.92336245067417621612548828125" lon="-0.9880213625729084014892578125">
        <ele>1079.199951171875</ele>
        <time>2020-08-21T06:28:07.000Z</time>
      </trkpt>
      <trkpt lat="42.923346273601055145263671875" lon="-0.988014154136180877685546875">
        <ele>1079.4000244140625</ele>
        <time>2020-08-21T06:28:08.000Z</time>
      </trkpt>
      <trkpt lat="42.92325608432292938232421875" lon="-0.98796017467975616455078125">
        <ele>1080</ele>
        <time>2020-08-21T06:28:14.000Z</time>
      </trkpt>
      <trkpt lat="42.92323554866015911102294921875" lon="-0.98796285688877105712890625">
        <ele>1080</ele>
        <time>2020-08-21T06:28:15.000Z</time>
      </trkpt>
      <trkpt lat="42.9231935553252696990966796875" lon="-0.98796746693551540374755859375">
        <ele>1080.4000244140625</ele>
        <time>2020-08-21T06:28:17.000Z</time>
      </trkpt>
      <trkpt lat="42.9231561720371246337890625" lon="-0.98797886632382869720458984375">
        <ele>1080.800048828125</ele>
        <time>2020-08-21T06:28:19.000Z</time>
      </trkpt>
      <trkpt lat="42.9231070540845394134521484375" lon="-0.98799227736890316009521484375">
        <ele>1081.4000244140625</ele>
        <time>2020-08-21T06:28:22.000Z</time>
      </trkpt>
      <trkpt lat="42.92307905852794647216796875" lon="-0.98800367675721645355224609375">
        <ele>1081.5999755859375</ele>
        <time>2020-08-21T06:28:24.000Z</time>
      </trkpt>
      <trkpt lat="42.92299314402043819427490234375" lon="-0.98806679248809814453125">
        <ele>1082.5999755859375</ele>
        <time>2020-08-21T06:28:30.000Z</time>
      </trkpt>
      <trkpt lat="42.922972105443477630615234375" lon="-0.9880927763879299163818359375">
        <ele>1083</ele>
        <time>2020-08-21T06:28:32.000Z</time>
      </trkpt>
      <trkpt lat="42.92293262667953968048095703125" lon="-0.98813183605670928955078125">
        <ele>1083.199951171875</ele>
        <time>2020-08-21T06:28:35.000Z</time>
      </trkpt>
      <trkpt lat="42.92286716401576995849609375" lon="-0.988177768886089324951171875">
        <ele>1083.4000244140625</ele>
        <time>2020-08-21T06:28:38.000Z</time>
      </trkpt>
      <trkpt lat="42.922783009707927703857421875" lon="-0.9882185049355030059814453125">
        <ele>1084.4000244140625</ele>
        <time>2020-08-21T06:28:42.000Z</time>
      </trkpt>
      <trkpt lat="42.92275995947420597076416015625" lon="-0.98822479136288166046142578125">
        <ele>1084.4000244140625</ele>
        <time>2020-08-21T06:28:43.000Z</time>
      </trkpt>
      <trkpt lat="42.9226919822394847869873046875" lon="-0.988250859081745147705078125">
        <ele>1085</ele>
        <time>2020-08-21T06:28:46.000Z</time>
      </trkpt>
      <trkpt lat="42.92265133000910282135009765625" lon="-0.98825362510979175567626953125">
        <ele>1085.199951171875</ele>
        <time>2020-08-21T06:28:48.000Z</time>
      </trkpt>
      <trkpt lat="42.9226090013980865478515625" lon="-0.98824691958725452423095703125">
        <ele>1085.5999755859375</ele>
        <time>2020-08-21T06:28:50.000Z</time>
      </trkpt>
      <trkpt lat="42.9225005395710468292236328125" lon="-0.98822596482932567596435546875">
        <ele>1086.5999755859375</ele>
        <time>2020-08-21T06:28:55.000Z</time>
      </trkpt>
      <trkpt lat="42.92235628701746463775634765625" lon="-0.98816377110779285430908203125">
        <ele>1087.800048828125</ele>
        <time>2020-08-21T06:29:02.000Z</time>
      </trkpt>
      <trkpt lat="42.922242544591426849365234375" lon="-0.98813988268375396728515625">
        <ele>1088.800048828125</ele>
        <time>2020-08-21T06:29:08.000Z</time>
      </trkpt>
      <trkpt lat="42.922208011150360107421875" lon="-0.98813317716121673583984375">
        <ele>1089</ele>
        <time>2020-08-21T06:29:10.000Z</time>
      </trkpt>
      <trkpt lat="42.92211907915771007537841796875" lon="-0.988122113049030303955078125">
        <ele>1089.4000244140625</ele>
        <time>2020-08-21T06:29:15.000Z</time>
      </trkpt>
      <trkpt lat="42.92210198007524013519287109375" lon="-0.9881219454109668731689453125">
        <ele>1089.5999755859375</ele>
        <time>2020-08-21T06:29:16.000Z</time>
      </trkpt>
      <trkpt lat="42.92200709693133831024169921875" lon="-0.9881075285375118255615234375">
        <ele>1090.199951171875</ele>
        <time>2020-08-21T06:29:21.000Z</time>
      </trkpt>
      <trkpt lat="42.9219540394842624664306640625" lon="-0.9881008230149745941162109375">
        <ele>1090.5999755859375</ele>
        <time>2020-08-21T06:29:24.000Z</time>
      </trkpt>
      <trkpt lat="42.9219169914722442626953125" lon="-0.98810409195721149444580078125">
        <ele>1091.199951171875</ele>
        <time>2020-08-21T06:29:26.000Z</time>
      </trkpt>
      <trkpt lat="42.9218702204525470733642578125" lon="-0.98809294402599334716796875">
        <ele>1091.800048828125</ele>
        <time>2020-08-21T06:29:29.000Z</time>
      </trkpt>
      <trkpt lat="42.92179428040981292724609375" lon="-0.9880552254617214202880859375">
        <ele>1092.199951171875</ele>
        <time>2020-08-21T06:29:33.000Z</time>
      </trkpt>
      <trkpt lat="42.9217448271811008453369140625" lon="-0.98802194930613040924072265625">
        <ele>1092.800048828125</ele>
        <time>2020-08-21T06:29:36.000Z</time>
      </trkpt>
      <trkpt lat="42.92167215608060359954833984375" lon="-0.98799177445471286773681640625">
        <ele>1093.4000244140625</ele>
        <time>2020-08-21T06:29:40.000Z</time>
      </trkpt>
      <trkpt lat="42.92160225100815296173095703125" lon="-0.98795489408075809478759765625">
        <ele>1094</ele>
        <time>2020-08-21T06:29:43.000Z</time>
      </trkpt>
      <trkpt lat="42.921569310128688812255859375" lon="-0.987941734492778778076171875">
        <ele>1094.199951171875</ele>
        <time>2020-08-21T06:29:45.000Z</time>
      </trkpt>
      <trkpt lat="42.921447269618511199951171875" lon="-0.987966544926166534423828125">
        <ele>1094.800048828125</ele>
        <time>2020-08-21T06:29:50.000Z</time>
      </trkpt>
      <trkpt lat="42.921424806118011474609375" lon="-0.98797333426773548126220703125">
        <ele>1095</ele>
        <time>2020-08-21T06:29:51.000Z</time>
      </trkpt>
      <trkpt lat="42.9213854111731052398681640625" lon="-0.98799730651080608367919921875">
        <ele>1095.199951171875</ele>
        <time>2020-08-21T06:29:53.000Z</time>
      </trkpt>
      <trkpt lat="42.921316511929035186767578125" lon="-0.98805279470980167388916015625">
        <ele>1095.800048828125</ele>
        <time>2020-08-21T06:29:57.000Z</time>
      </trkpt>
      <trkpt lat="42.9212791286408901214599609375" lon="-0.988080538809299468994140625">
        <ele>1096</ele>
        <time>2020-08-21T06:29:59.000Z</time>
      </trkpt>
      <trkpt lat="42.921181730926036834716796875" lon="-0.9881447441875934600830078125">
        <ele>1096.5999755859375</ele>
        <time>2020-08-21T06:30:04.000Z</time>
      </trkpt>
      <trkpt lat="42.92114317417144775390625" lon="-0.98816335201263427734375">
        <ele>1097</ele>
        <time>2020-08-21T06:30:06.000Z</time>
      </trkpt>
      <trkpt lat="42.9210441000759601593017578125" lon="-0.9882359392940998077392578125">
        <ele>1098</ele>
        <time>2020-08-21T06:30:11.000Z</time>
      </trkpt>
      <trkpt lat="42.92093991301953792572021484375" lon="-0.9883519448339939117431640625">
        <ele>1099</ele>
        <time>2020-08-21T06:30:18.000Z</time>
      </trkpt>
      <trkpt lat="42.92092415504157543182373046875" lon="-0.98837097175419330596923828125">
        <ele>1099</ele>
        <time>2020-08-21T06:30:19.000Z</time>
      </trkpt>
      <trkpt lat="42.9208352230489253997802734375" lon="-0.98852503113448619842529296875">
        <ele>1100.199951171875</ele>
        <time>2020-08-21T06:30:26.000Z</time>
      </trkpt>
      <trkpt lat="42.92074763216078281402587890625" lon="-0.9886671043932437896728515625">
        <ele>1101</ele>
        <time>2020-08-21T06:30:33.000Z</time>
      </trkpt>
      <trkpt lat="42.92071728967130184173583984375" lon="-0.98870423622429370880126953125">
        <ele>1101.199951171875</ele>
        <time>2020-08-21T06:30:35.000Z</time>
      </trkpt>
      <trkpt lat="42.92065878398716449737548828125" lon="-0.98878554068505764007568359375">
        <ele>1101.5999755859375</ele>
        <time>2020-08-21T06:30:39.000Z</time>
      </trkpt>
      <trkpt lat="42.92059709317982196807861328125" lon="-0.98889970220625400543212890625">
        <ele>1102.199951171875</ele>
        <time>2020-08-21T06:30:44.000Z</time>
      </trkpt>
      <trkpt lat="42.92054696939885616302490234375" lon="-0.9889934957027435302734375">
        <ele>1102.800048828125</ele>
        <time>2020-08-21T06:30:48.000Z</time>
      </trkpt>
      <trkpt lat="42.92052852921187877655029296875" lon="-0.98903842270374298095703125">
        <ele>1103.4000244140625</ele>
        <time>2020-08-21T06:30:50.000Z</time>
      </trkpt>
      <trkpt lat="42.92049466632306575775146484375" lon="-0.98913942463696002960205078125">
        <ele>1103.5999755859375</ele>
        <time>2020-08-21T06:30:54.000Z</time>
      </trkpt>
      <trkpt lat="42.92046030052006244659423828125" lon="-0.9892752952873706817626953125">
        <ele>1104.199951171875</ele>
        <time>2020-08-21T06:30:59.000Z</time>
      </trkpt>
      <trkpt lat="42.92045057751238346099853515625" lon="-0.98933346569538116455078125">
        <ele>1104.5999755859375</ele>
        <time>2020-08-21T06:31:01.000Z</time>
      </trkpt>
      <trkpt lat="42.92042643763124942779541015625" lon="-0.9894660674035549163818359375">
        <ele>1105.5999755859375</ele>
        <time>2020-08-21T06:31:06.000Z</time>
      </trkpt>
      <trkpt lat="42.92037597857415676116943359375" lon="-0.98961819894611835479736328125">
        <ele>1106</ele>
        <time>2020-08-21T06:31:13.000Z</time>
      </trkpt>
      <trkpt lat="42.92037597857415676116943359375" lon="-0.98961819894611835479736328125">
        <ele>1106.199951171875</ele>
        <time>2020-08-21T06:31:14.000Z</time>
      </trkpt>
      <trkpt lat="42.920353598892688751220703125" lon="-0.9896876849234104156494140625">
        <ele>1106.5999755859375</ele>
        <time>2020-08-21T06:39:54.000Z</time>
      </trkpt>
      <trkpt lat="42.920356951653957366943359375" lon="-0.9896908700466156005859375">
        <ele>1106.5999755859375</ele>
        <time>2020-08-21T06:39:56.000Z</time>
      </trkpt>
      <trkpt lat="42.92041101492941379547119140625" lon="-0.98971392028033733367919921875">
        <ele>1106.4000244140625</ele>
        <time>2020-08-21T06:40:01.000Z</time>
      </trkpt>
      <trkpt lat="42.92042157612740993499755859375" lon="-0.98972582258284091949462890625">
        <ele>1106.4000244140625</ele>
        <time>2020-08-21T06:40:02.000Z</time>
      </trkpt>
      <trkpt lat="42.920531295239925384521484375" lon="-0.98977762274444103240966796875">
        <ele>1106.800048828125</ele>
        <time>2020-08-21T06:40:08.000Z</time>
      </trkpt>
      <trkpt lat="42.9206340573728084564208984375" lon="-0.9898569993674755096435546875">
        <ele>1106.800048828125</ele>
        <time>2020-08-21T06:40:13.000Z</time>
      </trkpt>
      <trkpt lat="42.9208211414515972137451171875" lon="-0.98991340957581996917724609375">
        <ele>1106.800048828125</ele>
        <time>2020-08-21T06:40:21.000Z</time>
      </trkpt>
      <trkpt lat="42.920963466167449951171875" lon="-0.98992682062089443206787109375">
        <ele>1106.199951171875</ele>
        <time>2020-08-21T06:40:25.000Z</time>
      </trkpt>
      <trkpt lat="42.92104938067495822906494140625" lon="-0.98993771709501743316650390625">
        <ele>1106</ele>
        <time>2020-08-21T06:40:27.000Z</time>
      </trkpt>
      <trkpt lat="42.92123780585825443267822265625" lon="-0.9899481944739818572998046875">
        <ele>1105.4000244140625</ele>
        <time>2020-08-21T06:40:31.000Z</time>
      </trkpt>
      <trkpt lat="42.921290695667266845703125" lon="-0.9899532236158847808837890625">
        <ele>1105.199951171875</ele>
        <time>2020-08-21T06:40:32.000Z</time>
      </trkpt>
      <trkpt lat="42.9213448427617549896240234375" lon="-0.98996378481388092041015625">
        <ele>1105.199951171875</ele>
        <time>2020-08-21T06:40:33.000Z</time>
      </trkpt>
      <trkpt lat="42.921501584351062774658203125" lon="-0.9899884276092052459716796875">
        <ele>1104.4000244140625</ele>
        <time>2020-08-21T06:40:36.000Z</time>
      </trkpt>
      <trkpt lat="42.9215523786842823028564453125" lon="-0.9900020062923431396484375">
        <ele>1104.199951171875</ele>
        <time>2020-08-21T06:40:37.000Z</time>
      </trkpt>
      <trkpt lat="42.9217810370028018951416015625" lon="-0.9900725819170475006103515625">
        <ele>1103</ele>
        <time>2020-08-21T06:40:41.000Z</time>
      </trkpt>
      <trkpt lat="42.92190467007458209991455078125" lon="-0.99012597464025020599365234375">
        <ele>1102.199951171875</ele>
        <time>2020-08-21T06:40:43.000Z</time>
      </trkpt>
      <trkpt lat="42.921966947615146636962890625" lon="-0.990156233310699462890625">
        <ele>1101.800048828125</ele>
        <time>2020-08-21T06:40:44.000Z</time>
      </trkpt>
      <trkpt lat="42.92216350324451923370361328125" lon="-0.99025882780551910400390625">
        <ele>1100</ele>
        <time>2020-08-21T06:40:47.000Z</time>
      </trkpt>
      <trkpt lat="42.9223013855516910552978515625" lon="-0.99032026715576648712158203125">
        <ele>1099</ele>
        <time>2020-08-21T06:40:49.000Z</time>
      </trkpt>
      <trkpt lat="42.92243272997438907623291015625" lon="-0.990385226905345916748046875">
        <ele>1097.199951171875</ele>
        <time>2020-08-21T06:40:51.000Z</time>
      </trkpt>
      <trkpt lat="42.9225709475576877593994140625" lon="-0.9904360212385654449462890625">
        <ele>1096.4000244140625</ele>
        <time>2020-08-21T06:40:53.000Z</time>
      </trkpt>
      <trkpt lat="42.9226460494101047515869140625" lon="-0.99043895490467548370361328125">
        <ele>1096</ele>
        <time>2020-08-21T06:40:54.000Z</time>
      </trkpt>
      <trkpt lat="42.922793738543987274169921875" lon="-0.9903921000659465789794921875">
        <ele>1094.800048828125</ele>
        <time>2020-08-21T06:40:56.000Z</time>
      </trkpt>
      <trkpt lat="42.92286791838705539703369140625" lon="-0.99034599959850311279296875">
        <ele>1094.199951171875</ele>
        <time>2020-08-21T06:40:57.000Z</time>
      </trkpt>
      <trkpt lat="42.92293933220207691192626953125" lon="-0.99029629491269588470458984375">
        <ele>1093.5999755859375</ele>
        <time>2020-08-21T06:40:58.000Z</time>
      </trkpt>
      <trkpt lat="42.923080734908580780029296875" lon="-0.9902224503457546234130859375">
        <ele>1092</ele>
        <time>2020-08-21T06:41:00.000Z</time>
      </trkpt>
      <trkpt lat="42.92315575294196605682373046875" lon="-0.99020208232104778289794921875">
        <ele>1091.4000244140625</ele>
        <time>2020-08-21T06:41:01.000Z</time>
      </trkpt>
      <trkpt lat="42.92323403991758823394775390625" lon="-0.99019085057079792022705078125">
        <ele>1090.5999755859375</ele>
        <time>2020-08-21T06:41:02.000Z</time>
      </trkpt>
      <trkpt lat="42.92339899577200412750244140625" lon="-0.990181379020214080810546875">
        <ele>1089.5999755859375</ele>
        <time>2020-08-21T06:41:04.000Z</time>
      </trkpt>
      <trkpt lat="42.923483736813068389892578125" lon="-0.990177690982818603515625">
        <ele>1089.4000244140625</ele>
        <time>2020-08-21T06:41:05.000Z</time>
      </trkpt>
      <trkpt lat="42.92363938875496387481689453125" lon="-0.99017190746963024139404296875">
        <ele>1088.199951171875</ele>
        <time>2020-08-21T06:41:07.000Z</time>
      </trkpt>
      <trkpt lat="42.9238044284284114837646484375" lon="-0.99016637541353702545166015625">
        <ele>1086.800048828125</ele>
        <time>2020-08-21T06:41:09.000Z</time>
      </trkpt>
      <trkpt lat="42.92389017529785633087158203125" lon="-0.99018129520118236541748046875">
        <ele>1086.199951171875</ele>
        <time>2020-08-21T06:41:10.000Z</time>
      </trkpt>
      <trkpt lat="42.92406267486512660980224609375" lon="-0.99023192189633846282958984375">
        <ele>1085.5999755859375</ele>
        <time>2020-08-21T06:41:12.000Z</time>
      </trkpt>
      <trkpt lat="42.92414448224008083343505859375" lon="-0.99026955664157867431640625">
        <ele>1085</ele>
        <time>2020-08-21T06:41:13.000Z</time>
      </trkpt>
      <trkpt lat="42.92422494851052761077880859375" lon="-0.99031724967062473297119140625">
        <ele>1084.199951171875</ele>
        <time>2020-08-21T06:41:14.000Z</time>
      </trkpt>
      <trkpt lat="42.924385629594326019287109375" lon="-0.9904142282903194427490234375">
        <ele>1082.800048828125</ele>
        <time>2020-08-21T06:41:16.000Z</time>
      </trkpt>
      <trkpt lat="42.92454262264072895050048828125" lon="-0.99049075506627559661865234375">
        <ele>1081.4000244140625</ele>
        <time>2020-08-21T06:41:18.000Z</time>
      </trkpt>
      <trkpt lat="42.92468612082302570343017578125" lon="-0.99056770093739032745361328125">
        <ele>1080.4000244140625</ele>
        <time>2020-08-21T06:41:20.000Z</time>
      </trkpt>
      <trkpt lat="42.92475401423871517181396484375" lon="-0.9906137175858020782470703125">
        <ele>1079.800048828125</ele>
        <time>2020-08-21T06:41:21.000Z</time>
      </trkpt>
      <trkpt lat="42.924863062798976898193359375" lon="-0.99073835648596286773681640625">
        <ele>1079</ele>
        <time>2020-08-21T06:41:23.000Z</time>
      </trkpt>
      <trkpt lat="42.92494612745940685272216796875" lon="-0.99100540392100811004638671875">
        <ele>1077.800048828125</ele>
        <time>2020-08-21T06:41:26.000Z</time>
      </trkpt>
      <trkpt lat="42.92496263980865478515625" lon="-0.99120640195906162261962890625">
        <ele>1077.199951171875</ele>
        <time>2020-08-21T06:41:28.000Z</time>
      </trkpt>
      <trkpt lat="42.9249715246260166168212890625" lon="-0.9913028776645660400390625">
        <ele>1076.5999755859375</ele>
        <time>2020-08-21T06:41:29.000Z</time>
      </trkpt>
      <trkpt lat="42.92498988099396228790283203125" lon="-0.99150178022682666778564453125">
        <ele>1075.4000244140625</ele>
        <time>2020-08-21T06:41:31.000Z</time>
      </trkpt>
      <trkpt lat="42.92499708943068981170654296875" lon="-0.99160286597907543182373046875">
        <ele>1074.5999755859375</ele>
        <time>2020-08-21T06:41:32.000Z</time>
      </trkpt>
      <trkpt lat="42.92500027455389499664306640625" lon="-0.991698838770389556884765625">
        <ele>1074.199951171875</ele>
        <time>2020-08-21T06:41:33.000Z</time>
      </trkpt>
      <trkpt lat="42.92502525262534618377685546875" lon="-0.99190226756036281585693359375">
        <ele>1073.199951171875</ele>
        <time>2020-08-21T06:41:35.000Z</time>
      </trkpt>
      <trkpt lat="42.92506682686507701873779296875" lon="-0.9921036846935749053955078125">
        <ele>1072</ele>
        <time>2020-08-21T06:41:37.000Z</time>
      </trkpt>
      <trkpt lat="42.92511108331382274627685546875" lon="-0.9923060238361358642578125">
        <ele>1070.800048828125</ele>
        <time>2020-08-21T06:41:39.000Z</time>
      </trkpt>
      <trkpt lat="42.9251210577785968780517578125" lon="-0.99241071380674839019775390625">
        <ele>1070.199951171875</ele>
        <time>2020-08-21T06:41:40.000Z</time>
      </trkpt>
      <trkpt lat="42.92512684129178524017333984375" lon="-0.9925143979489803314208984375">
        <ele>1069.5999755859375</ele>
        <time>2020-08-21T06:41:41.000Z</time>
      </trkpt>
      <trkpt lat="42.92513371445238590240478515625" lon="-0.99272486753761768341064453125">
        <ele>1068.5999755859375</ele>
        <time>2020-08-21T06:41:43.000Z</time>
      </trkpt>
      <trkpt lat="42.925132624804973602294921875" lon="-0.9929401986300945281982421875">
        <ele>1067.199951171875</ele>
        <time>2020-08-21T06:41:45.000Z</time>
      </trkpt>
      <trkpt lat="42.925122566521167755126953125" lon="-0.99315821193158626556396484375">
        <ele>1065.800048828125</ele>
        <time>2020-08-21T06:41:47.000Z</time>
      </trkpt>
      <trkpt lat="42.925109826028347015380859375" lon="-0.99326550029218196868896484375">
        <ele>1065.199951171875</ele>
        <time>2020-08-21T06:41:48.000Z</time>
      </trkpt>
      <trkpt lat="42.92508912272751331329345703125" lon="-0.9933683462440967559814453125">
        <ele>1064.5999755859375</ele>
        <time>2020-08-21T06:41:49.000Z</time>
      </trkpt>
      <trkpt lat="42.92502944357693195343017578125" lon="-0.99357378669083118438720703125">
        <ele>1063.800048828125</ele>
        <time>2020-08-21T06:41:51.000Z</time>
      </trkpt>
      <trkpt lat="42.9249961674213409423828125" lon="-0.9936793148517608642578125">
        <ele>1063.4000244140625</ele>
        <time>2020-08-21T06:41:52.000Z</time>
      </trkpt>
      <trkpt lat="42.92489047162234783172607421875" lon="-0.993998162448406219482421875">
        <ele>1061.5999755859375</ele>
        <time>2020-08-21T06:41:55.000Z</time>
      </trkpt>
      <trkpt lat="42.9248325526714324951171875" lon="-0.99422958679497241973876953125">
        <ele>1060.4000244140625</ele>
        <time>2020-08-21T06:41:57.000Z</time>
      </trkpt>
      <trkpt lat="42.92478896677494049072265625" lon="-0.99446729756891727447509765625">
        <ele>1059.4000244140625</ele>
        <time>2020-08-21T06:41:59.000Z</time>
      </trkpt>
      <trkpt lat="42.9247619770467281341552734375" lon="-0.994710624217987060546875">
        <ele>1058</ele>
        <time>2020-08-21T06:42:01.000Z</time>
      </trkpt>
      <trkpt lat="42.924746386706829071044921875" lon="-0.99495931528508663177490234375">
        <ele>1056.800048828125</ele>
        <time>2020-08-21T06:42:03.000Z</time>
      </trkpt>
      <trkpt lat="42.92473037727177143096923828125" lon="-0.99520943127572536468505859375">
        <ele>1055.800048828125</ele>
        <time>2020-08-21T06:42:05.000Z</time>
      </trkpt>
      <trkpt lat="42.924718894064426422119140625" lon="-0.99546574987471103668212890625">
        <ele>1054.800048828125</ele>
        <time>2020-08-21T06:42:07.000Z</time>
      </trkpt>
      <trkpt lat="42.92471746914088726043701171875" lon="-0.99559298716485500335693359375">
        <ele>1054.199951171875</ele>
        <time>2020-08-21T06:42:08.000Z</time>
      </trkpt>
      <trkpt lat="42.92472249828279018402099609375" lon="-0.9957216493785381317138671875">
        <ele>1053.4000244140625</ele>
        <time>2020-08-21T06:42:09.000Z</time>
      </trkpt>
      <trkpt lat="42.9247539304196834564208984375" lon="-0.9959804825484752655029296875">
        <ele>1051.800048828125</ele>
        <time>2020-08-21T06:42:11.000Z</time>
      </trkpt>
      <trkpt lat="42.9247743822634220123291015625" lon="-0.9961082227528095245361328125">
        <ele>1051.199951171875</ele>
        <time>2020-08-21T06:42:12.000Z</time>
      </trkpt>
      <trkpt lat="42.92480296455323696136474609375" lon="-0.99623621441423892974853515625">
        <ele>1050.4000244140625</ele>
        <time>2020-08-21T06:42:13.000Z</time>
      </trkpt>
      <trkpt lat="42.9248535074293613433837890625" lon="-0.99650393240153789520263671875">
        <ele>1049.199951171875</ele>
        <time>2020-08-21T06:42:15.000Z</time>
      </trkpt>
      <trkpt lat="42.924867756664752960205078125" lon="-0.99663670174777507781982421875">
        <ele>1048.5999755859375</ele>
        <time>2020-08-21T06:42:16.000Z</time>
      </trkpt>
      <trkpt lat="42.9248759709298610687255859375" lon="-0.99676427431404590606689453125">
        <ele>1047.800048828125</ele>
        <time>2020-08-21T06:42:17.000Z</time>
      </trkpt>
      <trkpt lat="42.92490296065807342529296875" lon="-0.99700734950602054595947265625">
        <ele>1046.5999755859375</ele>
        <time>2020-08-21T06:42:19.000Z</time>
      </trkpt>
      <trkpt lat="42.9249245859682559967041015625" lon="-0.997119247913360595703125">
        <ele>1046.199951171875</ele>
        <time>2020-08-21T06:42:20.000Z</time>
      </trkpt>
      <trkpt lat="42.92495300062000751495361328125" lon="-0.99722293205559253692626953125">
        <ele>1045.800048828125</ele>
        <time>2020-08-21T06:42:21.000Z</time>
      </trkpt>
      <trkpt lat="42.92498745024204254150390625" lon="-0.99731731228530406951904296875">
        <ele>1045.199951171875</ele>
        <time>2020-08-21T06:42:22.000Z</time>
      </trkpt>
      <trkpt lat="42.92509113438427448272705078125" lon="-0.997456200420856475830078125">
        <ele>1043.5999755859375</ele>
        <time>2020-08-21T06:42:24.000Z</time>
      </trkpt>
      <trkpt lat="42.92523329146206378936767578125" lon="-0.997508503496646881103515625">
        <ele>1042.5999755859375</ele>
        <time>2020-08-21T06:42:26.000Z</time>
      </trkpt>
      <trkpt lat="42.92530571110546588897705078125" lon="-0.9975170530378818511962890625">
        <ele>1042</ele>
        <time>2020-08-21T06:42:27.000Z</time>
      </trkpt>
      <trkpt lat="42.92544468306005001068115234375" lon="-0.99750339053571224212646484375">
        <ele>1041.199951171875</ele>
        <time>2020-08-21T06:42:29.000Z</time>
      </trkpt>
      <trkpt lat="42.92550955899059772491455078125" lon="-0.9974907338619232177734375">
        <ele>1040.800048828125</ele>
        <time>2020-08-21T06:42:30.000Z</time>
      </trkpt>
      <trkpt lat="42.925576530396938323974609375" lon="-0.99747522734105587005615234375">
        <ele>1040.5999755859375</ele>
        <time>2020-08-21T06:42:31.000Z</time>
      </trkpt>
      <trkpt lat="42.9256454296410083770751953125" lon="-0.9974506683647632598876953125">
        <ele>1040.199951171875</ele>
        <time>2020-08-21T06:42:32.000Z</time>
      </trkpt>
      <trkpt lat="42.92585891671478748321533203125" lon="-0.9973769076168537139892578125">
        <ele>1038.800048828125</ele>
        <time>2020-08-21T06:42:35.000Z</time>
      </trkpt>
      <trkpt lat="42.92593292891979217529296875" lon="-0.9973527677357196807861328125">
        <ele>1038.199951171875</ele>
        <time>2020-08-21T06:42:36.000Z</time>
      </trkpt>
      <trkpt lat="42.92600476182997226715087890625" lon="-0.99731965921819210052490234375">
        <ele>1037.5999755859375</ele>
        <time>2020-08-21T06:42:37.000Z</time>
      </trkpt>
      <trkpt lat="42.9261977970600128173828125" lon="-0.9971596486866474151611328125">
        <ele>1036.4000244140625</ele>
        <time>2020-08-21T06:42:40.000Z</time>
      </trkpt>
      <trkpt lat="42.92630885727703571319580078125" lon="-0.9969745762646198272705078125">
        <ele>1035.199951171875</ele>
        <time>2020-08-21T06:42:42.000Z</time>
      </trkpt>
      <trkpt lat="42.926360405981540679931640625" lon="-0.99687449634075164794921875">
        <ele>1034.5999755859375</ele>
        <time>2020-08-21T06:42:43.000Z</time>
      </trkpt>
      <trkpt lat="42.9264101944863796234130859375" lon="-0.996771566569805145263671875">
        <ele>1033.800048828125</ele>
        <time>2020-08-21T06:42:44.000Z</time>
      </trkpt>
      <trkpt lat="42.9264467395842075347900390625" lon="-0.996664948761463165283203125">
        <ele>1033.199951171875</ele>
        <time>2020-08-21T06:42:45.000Z</time>
      </trkpt>
      <trkpt lat="42.92647800408303737640380859375" lon="-0.99655573256313800811767578125">
        <ele>1032.5999755859375</ele>
        <time>2020-08-21T06:42:46.000Z</time>
      </trkpt>
      <trkpt lat="42.92650097049772739410400390625" lon="-0.99644140340387821197509765625">
        <ele>1032</ele>
        <time>2020-08-21T06:42:47.000Z</time>
      </trkpt>
      <trkpt lat="42.9265275411307811737060546875" lon="-0.9963221289217472076416015625">
        <ele>1031.5999755859375</ele>
        <time>2020-08-21T06:42:48.000Z</time>
      </trkpt>
      <trkpt lat="42.926605157554149627685546875" lon="-0.99596112035214900970458984375">
        <ele>1029.800048828125</ele>
        <time>2020-08-21T06:42:51.000Z</time>
      </trkpt>
      <trkpt lat="42.92662954889237880706787109375" lon="-0.995839498937129974365234375">
        <ele>1029.4000244140625</ele>
        <time>2020-08-21T06:42:52.000Z</time>
      </trkpt>
      <trkpt lat="42.92665234766900539398193359375" lon="-0.9957204759120941162109375">
        <ele>1028.800048828125</ele>
        <time>2020-08-21T06:42:53.000Z</time>
      </trkpt>
      <trkpt lat="42.92669123969972133636474609375" lon="-0.99547530524432659149169921875">
        <ele>1027.800048828125</ele>
        <time>2020-08-21T06:42:55.000Z</time>
      </trkpt>
      <trkpt lat="42.92673490941524505615234375" lon="-0.99522359669208526611328125">
        <ele>1026.800048828125</ele>
        <time>2020-08-21T06:42:57.000Z</time>
      </trkpt>
      <trkpt lat="42.9267719574272632598876953125" lon="-0.99498680792748928070068359375">
        <ele>1025.5999755859375</ele>
        <time>2020-08-21T06:42:59.000Z</time>
      </trkpt>
      <trkpt lat="42.926803641021251678466796875" lon="-0.99475915543735027313232421875">
        <ele>1024.4000244140625</ele>
        <time>2020-08-21T06:43:01.000Z</time>
      </trkpt>
      <trkpt lat="42.926822416484355926513671875" lon="-0.9946504421532154083251953125">
        <ele>1024</ele>
        <time>2020-08-21T06:43:02.000Z</time>
      </trkpt>
      <trkpt lat="42.92688368819653987884521484375" lon="-0.9944464266300201416015625">
        <ele>1023</ele>
        <time>2020-08-21T06:43:04.000Z</time>
      </trkpt>
      <trkpt lat="42.926924340426921844482421875" lon="-0.99437140859663486480712890625">
        <ele>1022.5999755859375</ele>
        <time>2020-08-21T06:43:05.000Z</time>
      </trkpt>
      <trkpt lat="42.92703892104327678680419921875" lon="-0.9942906908690929412841796875">
        <ele>1021.4000244140625</ele>
        <time>2020-08-21T06:43:07.000Z</time>
      </trkpt>
      <trkpt lat="42.92709038592875003814697265625" lon="-0.994317345321178436279296875">
        <ele>1020.79998779296875</ele>
        <time>2020-08-21T06:43:08.000Z</time>
      </trkpt>
      <trkpt lat="42.9271622188389301300048828125" lon="-0.99442572332918643951416015625">
        <ele>1020.20001220703125</ele>
        <time>2020-08-21T06:43:10.000Z</time>
      </trkpt>
      <trkpt lat="42.92718191631138324737548828125" lon="-0.9945059381425380706787109375">
        <ele>1019.79998779296875</ele>
        <time>2020-08-21T06:43:11.000Z</time>
      </trkpt>
      <trkpt lat="42.92719222605228424072265625" lon="-0.994592271745204925537109375">
        <ele>1019.4000244140625</ele>
        <time>2020-08-21T06:43:12.000Z</time>
      </trkpt>
      <trkpt lat="42.9272611252963542938232421875" lon="-0.9947811998426914215087890625">
        <ele>1018.5999755859375</ele>
        <time>2020-08-21T06:43:14.000Z</time>
      </trkpt>
      <trkpt lat="42.92728451080620288848876953125" lon="-0.99487490952014923095703125">
        <ele>1018</ele>
        <time>2020-08-21T06:43:15.000Z</time>
      </trkpt>
      <trkpt lat="42.92734670452773571014404296875" lon="-0.99507666192948818206787109375">
        <ele>1016.79998779296875</ele>
        <time>2020-08-21T06:43:17.000Z</time>
      </trkpt>
      <trkpt lat="42.92737620882689952850341796875" lon="-0.99517397582530975341796875">
        <ele>1016.20001220703125</ele>
        <time>2020-08-21T06:43:18.000Z</time>
      </trkpt>
      <trkpt lat="42.9274592734873294830322265625" lon="-0.99537120200693607330322265625">
        <ele>1015.4000244140625</ele>
        <time>2020-08-21T06:43:20.000Z</time>
      </trkpt>
      <trkpt lat="42.92756865732371807098388671875" lon="-0.99559835158288478851318359375">
        <ele>1013.79998779296875</ele>
        <time>2020-08-21T06:43:22.000Z</time>
      </trkpt>
      <trkpt lat="42.92762112803757190704345703125" lon="-0.9957196377217769622802734375">
        <ele>1012.79998779296875</ele>
        <time>2020-08-21T06:43:23.000Z</time>
      </trkpt>
      <trkpt lat="42.9276668094098567962646484375" lon="-0.99584679119288921356201171875">
        <ele>1012.20001220703125</ele>
        <time>2020-08-21T06:43:24.000Z</time>
      </trkpt>
      <trkpt lat="42.92773939669132232666015625" lon="-0.99608768709003925323486328125">
        <ele>1010.5999755859375</ele>
        <time>2020-08-21T06:43:26.000Z</time>
      </trkpt>
      <trkpt lat="42.9277922026813030242919921875" lon="-0.99634467624127864837646484375">
        <ele>1008.79998779296875</ele>
        <time>2020-08-21T06:43:28.000Z</time>
      </trkpt>
      <trkpt lat="42.92781860567629337310791015625" lon="-0.9966265596449375152587890625">
        <ele>1007.20001220703125</ele>
        <time>2020-08-21T06:43:30.000Z</time>
      </trkpt>
      <trkpt lat="42.927824892103672027587890625" lon="-0.99677533842623233795166015625">
        <ele>1006.4000244140625</ele>
        <time>2020-08-21T06:43:31.000Z</time>
      </trkpt>
      <trkpt lat="42.92783335782587528228759765625" lon="-0.99692487157881259918212890625">
        <ele>1005.5999755859375</ele>
        <time>2020-08-21T06:43:32.000Z</time>
      </trkpt>
      <trkpt lat="42.927851714193820953369140625" lon="-0.99722477607429027557373046875">
        <ele>1004.20001220703125</ele>
        <time>2020-08-21T06:43:34.000Z</time>
      </trkpt>
      <trkpt lat="42.927868478000164031982421875" lon="-0.997534655034542083740234375">
        <ele>1002.4000244140625</ele>
        <time>2020-08-21T06:43:36.000Z</time>
      </trkpt>
      <trkpt lat="42.927891947329044342041015625" lon="-0.99785174243152141571044921875">
        <ele>1001</ele>
        <time>2020-08-21T06:43:38.000Z</time>
      </trkpt>
      <trkpt lat="42.92790225706994533538818359375" lon="-0.9980011917650699615478515625">
        <ele>999.79998779296875</ele>
        <time>2020-08-21T06:43:39.000Z</time>
      </trkpt>
      <trkpt lat="42.92790946550667285919189453125" lon="-0.9981530718505382537841796875">
        <ele>998.79998779296875</ele>
        <time>2020-08-21T06:43:40.000Z</time>
      </trkpt>
      <trkpt lat="42.92790167033672332763671875" lon="-0.9984558261930942535400390625">
        <ele>997</ele>
        <time>2020-08-21T06:43:42.000Z</time>
      </trkpt>
      <trkpt lat="42.92787744663655757904052734375" lon="-0.9985906071960926055908203125">
        <ele>996.20001220703125</ele>
        <time>2020-08-21T06:43:43.000Z</time>
      </trkpt>
      <trkpt lat="42.92784400284290313720703125" lon="-0.99871742539107799530029296875">
        <ele>995.5999755859375</ele>
        <time>2020-08-21T06:43:44.000Z</time>
      </trkpt>
      <trkpt lat="42.92774342000484466552734375" lon="-0.998948514461517333984375">
        <ele>994.5999755859375</ele>
        <time>2020-08-21T06:43:46.000Z</time>
      </trkpt>
      <trkpt lat="42.9275850020349025726318359375" lon="-0.99927985109388828277587890625">
        <ele>993.20001220703125</ele>
        <time>2020-08-21T06:43:49.000Z</time>
      </trkpt>
      <trkpt lat="42.9275511391460895538330078125" lon="-0.99938864819705486297607421875">
        <ele>992.5999755859375</ele>
        <time>2020-08-21T06:43:50.000Z</time>
      </trkpt>
      <trkpt lat="42.92752473615109920501708984375" lon="-0.99949878640472888946533203125">
        <ele>992.20001220703125</ele>
        <time>2020-08-21T06:43:51.000Z</time>
      </trkpt>
      <trkpt lat="42.9275048710405826568603515625" lon="-0.99960976280272006988525390625">
        <ele>991.5999755859375</ele>
        <time>2020-08-21T06:43:52.000Z</time>
      </trkpt>
      <trkpt lat="42.9274710081517696380615234375" lon="-0.99982752464711666107177734375">
        <ele>990.5999755859375</ele>
        <time>2020-08-21T06:43:54.000Z</time>
      </trkpt>
      <trkpt lat="42.927449382841587066650390625" lon="-0.9999340586364269256591796875">
        <ele>989.5999755859375</ele>
        <time>2020-08-21T06:43:55.000Z</time>
      </trkpt>
      <trkpt lat="42.92742012999951839447021484375" lon="-1.0000386647880077362060546875">
        <ele>989</ele>
        <time>2020-08-21T06:43:56.000Z</time>
      </trkpt>
      <trkpt lat="42.92734033428132534027099609375" lon="-1.00023530423641204833984375">
        <ele>987.79998779296875</ele>
        <time>2020-08-21T06:43:58.000Z</time>
      </trkpt>
      <trkpt lat="42.927242182195186614990234375" lon="-1.0004170238971710205078125">
        <ele>986.79998779296875</ele>
        <time>2020-08-21T06:44:00.000Z</time>
      </trkpt>
      <trkpt lat="42.92718308977782726287841796875" lon="-1.00050218403339385986328125">
        <ele>986.5999755859375</ele>
        <time>2020-08-21T06:44:01.000Z</time>
      </trkpt>
      <trkpt lat="42.92704579420387744903564453125" lon="-1.00065599195659160614013671875">
        <ele>985.4000244140625</ele>
        <time>2020-08-21T06:44:03.000Z</time>
      </trkpt>
      <trkpt lat="42.92697236873209476470947265625" lon="-1.00072472356259822845458984375">
        <ele>984.79998779296875</ele>
        <time>2020-08-21T06:44:04.000Z</time>
      </trkpt>
      <trkpt lat="42.92690045200288295745849609375" lon="-1.00078926421701908111572265625">
        <ele>983.79998779296875</ele>
        <time>2020-08-21T06:44:05.000Z</time>
      </trkpt>
      <trkpt lat="42.926759384572505950927734375" lon="-1.00090585649013519287109375">
        <ele>982.20001220703125</ele>
        <time>2020-08-21T06:44:07.000Z</time>
      </trkpt>
      <trkpt lat="42.926550842821598052978515625" lon="-1.001072488725185394287109375">
        <ele>980.79998779296875</ele>
        <time>2020-08-21T06:44:10.000Z</time>
      </trkpt>
      <trkpt lat="42.92648185975849628448486328125" lon="-1.00113241933286190032958984375">
        <ele>979.79998779296875</ele>
        <time>2020-08-21T06:44:11.000Z</time>
      </trkpt>
      <trkpt lat="42.92641396634280681610107421875" lon="-1.00119411014020442962646484375">
        <ele>979.20001220703125</ele>
        <time>2020-08-21T06:44:12.000Z</time>
      </trkpt>
      <trkpt lat="42.92635194025933742523193359375" lon="-1.00126166827976703643798828125">
        <ele>978.79998779296875</ele>
        <time>2020-08-21T06:44:13.000Z</time>
      </trkpt>
      <trkpt lat="42.9262509383261203765869140625" lon="-1.0014200024306774139404296875">
        <ele>977.79998779296875</ele>
        <time>2020-08-21T06:44:15.000Z</time>
      </trkpt>
      <trkpt lat="42.9261956177651882171630859375" lon="-1.0016087628901004791259765625">
        <ele>976.4000244140625</ele>
        <time>2020-08-21T06:44:17.000Z</time>
      </trkpt>
      <trkpt lat="42.92618497274816036224365234375" lon="-1.00171261467039585113525390625">
        <ele>975.79998779296875</ele>
        <time>2020-08-21T06:44:18.000Z</time>
      </trkpt>
      <trkpt lat="42.92618212290108203887939453125" lon="-1.0018225014209747314453125">
        <ele>975</ele>
        <time>2020-08-21T06:44:19.000Z</time>
      </trkpt>
      <trkpt lat="42.92619016952812671661376953125" lon="-1.0020550154149532318115234375">
        <ele>974</ele>
        <time>2020-08-21T06:44:21.000Z</time>
      </trkpt>
      <trkpt lat="42.9262063466012477874755859375" lon="-1.0022980906069278717041015625">
        <ele>973</ele>
        <time>2020-08-21T06:44:23.000Z</time>
      </trkpt>
      <trkpt lat="42.9262133873999118804931640625" lon="-1.00241904146969318389892578125">
        <ele>972.4000244140625</ele>
        <time>2020-08-21T06:44:24.000Z</time>
      </trkpt>
      <trkpt lat="42.9262273013591766357421875" lon="-1.00265557877719402313232421875">
        <ele>971.4000244140625</ele>
        <time>2020-08-21T06:44:26.000Z</time>
      </trkpt>
      <trkpt lat="42.9262388683855533599853515625" lon="-1.00288935005664825439453125">
        <ele>969.5999755859375</ele>
        <time>2020-08-21T06:44:28.000Z</time>
      </trkpt>
      <trkpt lat="42.926235683262348175048828125" lon="-1.00300979800522327423095703125">
        <ele>969</ele>
        <time>2020-08-21T06:44:29.000Z</time>
      </trkpt>
      <trkpt lat="42.92622352950274944305419921875" lon="-1.0031312517821788787841796875">
        <ele>968</ele>
        <time>2020-08-21T06:44:30.000Z</time>
      </trkpt>
      <trkpt lat="42.9261738248169422149658203125" lon="-1.003377176821231842041015625">
        <ele>966.79998779296875</ele>
        <time>2020-08-21T06:44:32.000Z</time>
      </trkpt>
      <trkpt lat="42.9261414706707000732421875" lon="-1.003497205674648284912109375">
        <ele>966</ele>
        <time>2020-08-21T06:44:33.000Z</time>
      </trkpt>
      <trkpt lat="42.92611372657120227813720703125" lon="-1.00360608659684658050537109375">
        <ele>965.20001220703125</ele>
        <time>2020-08-21T06:44:34.000Z</time>
      </trkpt>
      <trkpt lat="42.926051616668701171875" lon="-1.00383591838181018829345703125">
        <ele>963.79998779296875</ele>
        <time>2020-08-21T06:44:36.000Z</time>
      </trkpt>
      <trkpt lat="42.92598112486302852630615234375" lon="-1.00408301688730716705322265625">
        <ele>962.5999755859375</ele>
        <time>2020-08-21T06:44:38.000Z</time>
      </trkpt>
      <trkpt lat="42.9258935339748859405517578125" lon="-1.00431553088128566741943359375">
        <ele>961.20001220703125</ele>
        <time>2020-08-21T06:44:40.000Z</time>
      </trkpt>
      <trkpt lat="42.9257808811962604522705078125" lon="-1.00451787002384662628173828125">
        <ele>959.5999755859375</ele>
        <time>2020-08-21T06:44:42.000Z</time>
      </trkpt>
      <trkpt lat="42.92564132250845432281494140625" lon="-1.00468215532600879669189453125">
        <ele>958</ele>
        <time>2020-08-21T06:44:44.000Z</time>
      </trkpt>
      <trkpt lat="42.92556219734251499176025390625" lon="-1.0047549940645694732666015625">
        <ele>957.4000244140625</ele>
        <time>2020-08-21T06:44:45.000Z</time>
      </trkpt>
      <trkpt lat="42.9254804737865924835205078125" lon="-1.00482330657541751861572265625">
        <ele>956.79998779296875</ele>
        <time>2020-08-21T06:44:46.000Z</time>
      </trkpt>
      <trkpt lat="42.9253225587308406829833984375" lon="-1.00493998266756534576416015625">
        <ele>955.4000244140625</ele>
        <time>2020-08-21T06:44:48.000Z</time>
      </trkpt>
      <trkpt lat="42.92525005526840686798095703125" lon="-1.00498205982148647308349609375">
        <ele>955</ele>
        <time>2020-08-21T06:44:49.000Z</time>
      </trkpt>
      <trkpt lat="42.9251834191381931304931640625" lon="-1.00500888191163539886474609375">
        <ele>954.5999755859375</ele>
        <time>2020-08-21T06:44:50.000Z</time>
      </trkpt>
      <trkpt lat="42.92512013576924800872802734375" lon="-1.005021035671234130859375">
        <ele>953.4000244140625</ele>
        <time>2020-08-21T06:44:51.000Z</time>
      </trkpt>
      <trkpt lat="42.92498904280364513397216796875" lon="-1.00501726381480693817138671875">
        <ele>952.4000244140625</ele>
        <time>2020-08-21T06:44:53.000Z</time>
      </trkpt>
      <trkpt lat="42.92491964064538478851318359375" lon="-1.005006618797779083251953125">
        <ele>951.79998779296875</ele>
        <time>2020-08-21T06:44:54.000Z</time>
      </trkpt>
      <trkpt lat="42.92477446608245372772216796875" lon="-1.00498407147824764251708984375">
        <ele>951</ele>
        <time>2020-08-21T06:44:56.000Z</time>
      </trkpt>
      <trkpt lat="42.92453926987946033477783203125" lon="-1.00494383834302425384521484375">
        <ele>949.5999755859375</ele>
        <time>2020-08-21T06:44:59.000Z</time>
      </trkpt>
      <trkpt lat="42.924455367028713226318359375" lon="-1.0049313493072986602783203125">
        <ele>949</ele>
        <time>2020-08-21T06:45:00.000Z</time>
      </trkpt>
      <trkpt lat="42.92437188327312469482421875" lon="-1.00492137484252452850341796875">
        <ele>948.4000244140625</ele>
        <time>2020-08-21T06:45:01.000Z</time>
      </trkpt>
      <trkpt lat="42.924292087554931640625" lon="-1.00491886027157306671142578125">
        <ele>948</ele>
        <time>2020-08-21T06:45:02.000Z</time>
      </trkpt>
      <trkpt lat="42.9241447336971759796142578125" lon="-1.0049444250762462615966796875">
        <ele>947</ele>
        <time>2020-08-21T06:45:04.000Z</time>
      </trkpt>
      <trkpt lat="42.92402797378599643707275390625" lon="-1.00503587163984775543212890625">
        <ele>945.5999755859375</ele>
        <time>2020-08-21T06:45:06.000Z</time>
      </trkpt>
      <trkpt lat="42.92398841120302677154541015625" lon="-1.00511164404451847076416015625">
        <ele>944.79998779296875</ele>
        <time>2020-08-21T06:45:07.000Z</time>
      </trkpt>
      <trkpt lat="42.923953123390674591064453125" lon="-1.00519764237105846405029296875">
        <ele>944.20001220703125</ele>
        <time>2020-08-21T06:45:08.000Z</time>
      </trkpt>
      <trkpt lat="42.92391951195895671844482421875" lon="-1.00529135204851627349853515625">
        <ele>943.79998779296875</ele>
        <time>2020-08-21T06:45:09.000Z</time>
      </trkpt>
      <trkpt lat="42.92385815642774105072021484375" lon="-1.0055033303797245025634765625">
        <ele>943</ele>
        <time>2020-08-21T06:45:11.000Z</time>
      </trkpt>
      <trkpt lat="42.92380518279969692230224609375" lon="-1.00573978386819362640380859375">
        <ele>941.5999755859375</ele>
        <time>2020-08-21T06:45:13.000Z</time>
      </trkpt>
      <trkpt lat="42.92374290525913238525390625" lon="-1.0059826076030731201171875">
        <ele>939.79998779296875</ele>
        <time>2020-08-21T06:45:15.000Z</time>
      </trkpt>
      <trkpt lat="42.923709042370319366455078125" lon="-1.00609869696199893951416015625">
        <ele>939.4000244140625</ele>
        <time>2020-08-21T06:45:16.000Z</time>
      </trkpt>
      <trkpt lat="42.92367207817733287811279296875" lon="-1.0062087513506412506103515625">
        <ele>938.5999755859375</ele>
        <time>2020-08-21T06:45:17.000Z</time>
      </trkpt>
      <trkpt lat="42.9235875047743320465087890625" lon="-1.0064117610454559326171875">
        <ele>937.4000244140625</ele>
        <time>2020-08-21T06:45:19.000Z</time>
      </trkpt>
      <trkpt lat="42.9235472716391086578369140625" lon="-1.0065058059990406036376953125">
        <ele>937</ele>
        <time>2020-08-21T06:45:20.000Z</time>
      </trkpt>
      <trkpt lat="42.92351651005446910858154296875" lon="-1.00659708492457866668701171875">
        <ele>936.5999755859375</ele>
        <time>2020-08-21T06:45:21.000Z</time>
      </trkpt>
      <trkpt lat="42.9234996624290943145751953125" lon="-1.0066885314881801605224609375">
        <ele>936</ele>
        <time>2020-08-21T06:45:22.000Z</time>
      </trkpt>
      <trkpt lat="42.9235010035336017608642578125" lon="-1.00677561946213245391845703125">
        <ele>935.20001220703125</ele>
        <time>2020-08-21T06:45:23.000Z</time>
      </trkpt>
      <trkpt lat="42.9235234670341014862060546875" lon="-1.0068518109619617462158203125">
        <ele>934.20001220703125</ele>
        <time>2020-08-21T06:45:24.000Z</time>
      </trkpt>
      <trkpt lat="42.92361550033092498779296875" lon="-1.00694107823073863983154296875">
        <ele>932.79998779296875</ele>
        <time>2020-08-21T06:45:26.000Z</time>
      </trkpt>
      <trkpt lat="42.92374013923108577728271484375" lon="-1.00694476626813411712646484375">
        <ele>931.5999755859375</ele>
        <time>2020-08-21T06:45:28.000Z</time>
      </trkpt>
      <trkpt lat="42.92380618862807750701904296875" lon="-1.00692481733858585357666015625">
        <ele>931.20001220703125</ele>
        <time>2020-08-21T06:45:29.000Z</time>
      </trkpt>
      <trkpt lat="42.92387274093925952911376953125" lon="-1.00689849816262722015380859375">
        <ele>930.79998779296875</ele>
        <time>2020-08-21T06:45:30.000Z</time>
      </trkpt>
      <trkpt lat="42.9239412210881710052490234375" lon="-1.0068725980818271636962890625">
        <ele>930.4000244140625</ele>
        <time>2020-08-21T06:45:31.000Z</time>
      </trkpt>
      <trkpt lat="42.924152277410030364990234375" lon="-1.006797663867473602294921875">
        <ele>929</ele>
        <time>2020-08-21T06:45:34.000Z</time>
      </trkpt>
      <trkpt lat="42.92428513057529926300048828125" lon="-1.00675298832356929779052734375">
        <ele>927.5999755859375</ele>
        <time>2020-08-21T06:45:36.000Z</time>
      </trkpt>
      <trkpt lat="42.92441739700734615325927734375" lon="-1.0066952370107173919677734375">
        <ele>926.5999755859375</ele>
        <time>2020-08-21T06:45:38.000Z</time>
      </trkpt>
      <trkpt lat="42.92462526820600032806396484375" lon="-1.00660529918968677520751953125">
        <ele>925.4000244140625</ele>
        <time>2020-08-21T06:45:41.000Z</time>
      </trkpt>
      <trkpt lat="42.92476038448512554168701171875" lon="-1.006552912294864654541015625">
        <ele>924.5999755859375</ele>
        <time>2020-08-21T06:45:43.000Z</time>
      </trkpt>
      <trkpt lat="42.924827523529529571533203125" lon="-1.00652852095663547515869140625">
        <ele>924.20001220703125</ele>
        <time>2020-08-21T06:45:44.000Z</time>
      </trkpt>
      <trkpt lat="42.92504000477492809295654296875" lon="-1.006441600620746612548828125">
        <ele>922.5999755859375</ele>
        <time>2020-08-21T06:45:47.000Z</time>
      </trkpt>
      <trkpt lat="42.92526162229478359222412109375" lon="-1.0063458792865276336669921875">
        <ele>921.4000244140625</ele>
        <time>2020-08-21T06:45:50.000Z</time>
      </trkpt>
      <trkpt lat="42.92546882294118404388427734375" lon="-1.00625862367451190948486328125">
        <ele>920.4000244140625</ele>
        <time>2020-08-21T06:45:53.000Z</time>
      </trkpt>
      <trkpt lat="42.92557879351079463958740234375" lon="-1.00620430894196033477783203125">
        <ele>919</ele>
        <time>2020-08-21T06:45:55.000Z</time>
      </trkpt>
      <trkpt lat="42.9257134906947612762451171875" lon="-1.00613373331725597381591796875">
        <ele>917.5999755859375</ele>
        <time>2020-08-21T06:45:59.000Z</time>
      </trkpt>
      <trkpt lat="42.92573352344334125518798828125" lon="-1.00612753070890903472900390625">
        <ele>916.5999755859375</ele>
        <time>2020-08-21T06:46:03.000Z</time>
      </trkpt>
      <trkpt lat="42.92573318816721439361572265625" lon="-1.00612786598503589630126953125">
        <ele>916.5999755859375</ele>
        <time>2020-08-21T06:46:04.000Z</time>
      </trkpt>
      <trkpt lat="42.92573251761496067047119140625" lon="-1.00612719543278217315673828125">
        <ele>916.20001220703125</ele>
        <time>2020-08-21T06:46:23.000Z</time>
      </trkpt>
      <trkpt lat="42.925732769072055816650390625" lon="-1.00612736307084560394287109375">
        <ele>916.20001220703125</ele>
        <time>2020-08-21T06:46:36.000Z</time>
      </trkpt>
      <trkpt lat="42.925732433795928955078125" lon="-1.00612652488052845001220703125">
        <ele>916</ele>
        <time>2020-08-21T06:46:59.000Z</time>
      </trkpt>
      <trkpt lat="42.925763614475727081298828125" lon="-1.0061232559382915496826171875">
        <ele>916</ele>
        <time>2020-08-21T06:47:21.000Z</time>
      </trkpt>
      <trkpt lat="42.9258975572884082794189453125" lon="-1.00605695508420467376708984375">
        <ele>915.5999755859375</ele>
        <time>2020-08-21T06:47:26.000Z</time>
      </trkpt>
      <trkpt lat="42.9259351082146167755126953125" lon="-1.00603801198303699493408203125">
        <ele>915.4000244140625</ele>
        <time>2020-08-21T06:47:27.000Z</time>
      </trkpt>
      <trkpt lat="42.9261647723615169525146484375" lon="-1.0059463977813720703125">
        <ele>914.20001220703125</ele>
        <time>2020-08-21T06:47:32.000Z</time>
      </trkpt>
      <trkpt lat="42.92640290223062038421630859375" lon="-1.00588344968855381011962890625">
        <ele>913.20001220703125</ele>
        <time>2020-08-21T06:47:36.000Z</time>
      </trkpt>
      <trkpt lat="42.92653868906199932098388671875" lon="-1.0058538615703582763671875">
        <ele>912.5999755859375</ele>
        <time>2020-08-21T06:47:38.000Z</time>
      </trkpt>
      <trkpt lat="42.9266110248863697052001953125" lon="-1.00583785213530063629150390625">
        <ele>912</ele>
        <time>2020-08-21T06:47:39.000Z</time>
      </trkpt>
      <trkpt lat="42.92684010230004787445068359375" lon="-1.005777753889560699462890625">
        <ele>910.79998779296875</ele>
        <time>2020-08-21T06:47:42.000Z</time>
      </trkpt>
      <trkpt lat="42.92700178921222686767578125" lon="-1.00572578608989715576171875">
        <ele>910.20001220703125</ele>
        <time>2020-08-21T06:47:44.000Z</time>
      </trkpt>
      <trkpt lat="42.9270834289491176605224609375" lon="-1.0056951083242893218994140625">
        <ele>909.4000244140625</ele>
        <time>2020-08-21T06:47:45.000Z</time>
      </trkpt>
      <trkpt lat="42.9272560961544513702392578125" lon="-1.00562931038439273834228515625">
        <ele>907.79998779296875</ele>
        <time>2020-08-21T06:47:47.000Z</time>
      </trkpt>
      <trkpt lat="42.92752658016979694366455078125" lon="-1.00550944916903972625732421875">
        <ele>906.4000244140625</ele>
        <time>2020-08-21T06:47:50.000Z</time>
      </trkpt>
      <trkpt lat="42.927796728909015655517578125" lon="-1.005361340939998626708984375">
        <ele>904.79998779296875</ele>
        <time>2020-08-21T06:47:53.000Z</time>
      </trkpt>
      <trkpt lat="42.92797501198947429656982421875" lon="-1.00524357520043849945068359375">
        <ele>903.5999755859375</ele>
        <time>2020-08-21T06:47:55.000Z</time>
      </trkpt>
      <trkpt lat="42.92806251905858516693115234375" lon="-1.005178280174732208251953125">
        <ele>903</ele>
        <time>2020-08-21T06:47:56.000Z</time>
      </trkpt>
      <trkpt lat="42.92814952321350574493408203125" lon="-1.00510753691196441650390625">
        <ele>902.4000244140625</ele>
        <time>2020-08-21T06:47:57.000Z</time>
      </trkpt>
      <trkpt lat="42.92831582017242908477783203125" lon="-1.00496797822415828704833984375">
        <ele>901.20001220703125</ele>
        <time>2020-08-21T06:47:59.000Z</time>
      </trkpt>
      <trkpt lat="42.92847608216106891632080078125" lon="-1.00485616363584995269775390625">
        <ele>900.20001220703125</ele>
        <time>2020-08-21T06:48:01.000Z</time>
      </trkpt>
      <trkpt lat="42.92855470441281795501708984375" lon="-1.00482632406055927276611328125">
        <ele>899.5999755859375</ele>
        <time>2020-08-21T06:48:02.000Z</time>
      </trkpt>
      <trkpt lat="42.92869853787124156951904296875" lon="-1.0048455186188220977783203125">
        <ele>899.20001220703125</ele>
        <time>2020-08-21T06:48:04.000Z</time>
      </trkpt>
      <trkpt lat="42.9288131184875965118408203125" lon="-1.00494869984686374664306640625">
        <ele>899</ele>
        <time>2020-08-21T06:48:06.000Z</time>
      </trkpt>
      <trkpt lat="42.92885812930762767791748046875" lon="-1.0050170123577117919921875">
        <ele>898.79998779296875</ele>
        <time>2020-08-21T06:48:07.000Z</time>
      </trkpt>
      <trkpt lat="42.928952090442180633544921875" lon="-1.005303673446178436279296875">
        <ele>898.5999755859375</ele>
        <time>2020-08-21T06:48:11.000Z</time>
      </trkpt>
      <trkpt lat="42.9288882203400135040283203125" lon="-1.00549670867621898651123046875">
        <ele>898.79998779296875</ele>
        <time>2020-08-21T06:48:14.000Z</time>
      </trkpt>
      <trkpt lat="42.92881898581981658935546875" lon="-1.00558253936469554901123046875">
        <ele>898.5999755859375</ele>
        <time>2020-08-21T06:48:16.000Z</time>
      </trkpt>
      <trkpt lat="42.92878277599811553955078125" lon="-1.00562863983213901519775390625">
        <ele>898.4000244140625</ele>
        <time>2020-08-21T06:48:18.000Z</time>
      </trkpt>
      <trkpt lat="42.92877531610429286956787109375" lon="-1.00563232786953449249267578125">
        <ele>898</ele>
        <time>2020-08-21T06:48:23.000Z</time>
      </trkpt>
      <trkpt lat="42.9287712089717388153076171875" lon="-1.00563199259340763092041015625">
        <ele>898</ele>
        <time>2020-08-21T06:48:24.000Z</time>
      </trkpt>
      <trkpt lat="42.92878839187324047088623046875" lon="-1.00558974780142307281494140625">
        <ele>898.20001220703125</ele>
        <time>2020-08-21T06:48:28.000Z</time>
      </trkpt>
      <trkpt lat="42.92879861779510974884033203125" lon="-1.0055804438889026641845703125">
        <ele>898</ele>
        <time>2020-08-21T06:48:29.000Z</time>
      </trkpt>
      <trkpt lat="42.92889953590929508209228515625" lon="-1.00549804978072643280029296875">
        <ele>898.20001220703125</ele>
        <time>2020-08-21T06:48:35.000Z</time>
      </trkpt>
      <trkpt lat="42.92905292473733425140380859375" lon="-1.00537399761378765106201171875">
        <ele>898.79998779296875</ele>
        <time>2020-08-21T06:48:43.000Z</time>
      </trkpt>
      <trkpt lat="42.92919860221445560455322265625" lon="-1.00525296293199062347412109375">
        <ele>899.20001220703125</ele>
        <time>2020-08-21T06:48:51.000Z</time>
      </trkpt>
      <trkpt lat="42.92931251227855682373046875" lon="-1.00513511337339878082275390625">
        <ele>899.79998779296875</ele>
        <time>2020-08-21T06:48:58.000Z</time>
      </trkpt>
      <trkpt lat="42.9293314553797245025634765625" lon="-1.00512069649994373321533203125">
        <ele>900</ele>
        <time>2020-08-21T06:48:59.000Z</time>
      </trkpt>
      <trkpt lat="42.9294732771813869476318359375" lon="-1.00499220192432403564453125">
        <ele>901.20001220703125</ele>
        <time>2020-08-21T06:49:07.000Z</time>
      </trkpt>
      <trkpt lat="42.929603196680545806884765625" lon="-1.00487577728927135467529296875">
        <ele>902.20001220703125</ele>
        <time>2020-08-21T06:49:14.000Z</time>
      </trkpt>
      <trkpt lat="42.9297079704701900482177734375" lon="-1.0047694109380245208740234375">
        <ele>902.5999755859375</ele>
        <time>2020-08-21T06:49:20.000Z</time>
      </trkpt>
      <trkpt lat="42.9297877661883831024169921875" lon="-1.00467779673635959625244140625">
        <ele>903.20001220703125</ele>
        <time>2020-08-21T06:49:25.000Z</time>
      </trkpt>
      <trkpt lat="42.92983462102711200714111328125" lon="-1.0046182014048099517822265625">
        <ele>903.4000244140625</ele>
        <time>2020-08-21T06:49:28.000Z</time>
      </trkpt>
      <trkpt lat="42.92993218638002872467041015625" lon="-1.00447990000247955322265625">
        <ele>904.20001220703125</ele>
        <time>2020-08-21T06:49:35.000Z</time>
      </trkpt>
      <trkpt lat="42.9299473576247692108154296875" lon="-1.00445953197777271270751953125">
        <ele>904.20001220703125</ele>
        <time>2020-08-21T06:49:36.000Z</time>
      </trkpt>
      <trkpt lat="42.9301111400127410888671875" lon="-1.00427647121250629425048828125">
        <ele>905.20001220703125</ele>
        <time>2020-08-21T06:49:46.000Z</time>
      </trkpt>
      <trkpt lat="42.930236198008060455322265625" lon="-1.00412542931735515594482421875">
        <ele>906.5999755859375</ele>
        <time>2020-08-21T06:49:54.000Z</time>
      </trkpt>
      <trkpt lat="42.93034357018768787384033203125" lon="-1.00398796610534191131591796875">
        <ele>907.20001220703125</ele>
        <time>2020-08-21T06:50:01.000Z</time>
      </trkpt>
      <trkpt lat="42.93041297234594821929931640625" lon="-1.0039164684712886810302734375">
        <ele>907.5999755859375</ele>
        <time>2020-08-21T06:50:05.000Z</time>
      </trkpt>
      <trkpt lat="42.93048958294093608856201171875" lon="-1.003815717995166778564453125">
        <ele>908</ele>
        <time>2020-08-21T06:50:10.000Z</time>
      </trkpt>
      <trkpt lat="42.930592261254787445068359375" lon="-1.00371002219617366790771484375">
        <ele>908.5999755859375</ele>
        <time>2020-08-21T06:50:16.000Z</time>
      </trkpt>
      <trkpt lat="42.93066442944109439849853515625" lon="-1.00365914404392242431640625">
        <ele>909.20001220703125</ele>
        <time>2020-08-21T06:50:20.000Z</time>
      </trkpt>
      <trkpt lat="42.93071555905044078826904296875" lon="-1.00362360477447509765625">
        <ele>909.79998779296875</ele>
        <time>2020-08-21T06:50:23.000Z</time>
      </trkpt>
      <trkpt lat="42.93078881688416004180908203125" lon="-1.0035949386656284332275390625">
        <ele>910.4000244140625</ele>
        <time>2020-08-21T06:50:27.000Z</time>
      </trkpt>
      <trkpt lat="42.93086106888949871063232421875" lon="-1.00356853567063808441162109375">
        <ele>910.79998779296875</ele>
        <time>2020-08-21T06:50:31.000Z</time>
      </trkpt>
      <trkpt lat="42.93093466199934482574462890625" lon="-1.00356920622289180755615234375">
        <ele>911.5999755859375</ele>
        <time>2020-08-21T06:50:35.000Z</time>
      </trkpt>
      <trkpt lat="42.9309877194464206695556640625" lon="-1.00355462171137332916259765625">
        <ele>911.79998779296875</ele>
        <time>2020-08-21T06:50:38.000Z</time>
      </trkpt>
      <trkpt lat="42.93104044161736965179443359375" lon="-1.003541462123394012451171875">
        <ele>912.4000244140625</ele>
        <time>2020-08-21T06:50:41.000Z</time>
      </trkpt>
      <trkpt lat="42.93109416961669921875" lon="-1.00352327339351177215576171875">
        <ele>913</ele>
        <time>2020-08-21T06:50:44.000Z</time>
      </trkpt>
      <trkpt lat="42.93116902001202106475830078125" lon="-1.003495864570140838623046875">
        <ele>913.4000244140625</ele>
        <time>2020-08-21T06:50:49.000Z</time>
      </trkpt>
      <trkpt lat="42.931276224553585052490234375" lon="-1.00343978963792324066162109375">
        <ele>914</ele>
        <time>2020-08-21T06:50:55.000Z</time>
      </trkpt>
      <trkpt lat="42.9312938265502452850341796875" lon="-1.00342654623091220855712890625">
        <ele>914.20001220703125</ele>
        <time>2020-08-21T06:50:56.000Z</time>
      </trkpt>
      <trkpt lat="42.9313823394477367401123046875" lon="-1.00335739552974700927734375">
        <ele>915</ele>
        <time>2020-08-21T06:51:01.000Z</time>
      </trkpt>
      <trkpt lat="42.9314698465168476104736328125" lon="-1.0032841376960277557373046875">
        <ele>915.5999755859375</ele>
        <time>2020-08-21T06:51:06.000Z</time>
      </trkpt>
      <trkpt lat="42.93154167942702770233154296875" lon="-1.00318171083927154541015625">
        <ele>916.20001220703125</ele>
        <time>2020-08-21T06:51:11.000Z</time>
      </trkpt>
      <trkpt lat="42.93159716762602329254150390625" lon="-1.00309814326465129852294921875">
        <ele>916.5999755859375</ele>
        <time>2020-08-21T06:51:15.000Z</time>
      </trkpt>
      <trkpt lat="42.93165567331016063690185546875" lon="-1.00302052684128284454345703125">
        <ele>917.20001220703125</ele>
        <time>2020-08-21T06:51:19.000Z</time>
      </trkpt>
      <trkpt lat="42.93172155506908893585205078125" lon="-1.0029257275164127349853515625">
        <ele>917.5999755859375</ele>
        <time>2020-08-21T06:51:24.000Z</time>
      </trkpt>
      <trkpt lat="42.93179447762668132781982421875" lon="-1.00284433923661708831787109375">
        <ele>918.20001220703125</ele>
        <time>2020-08-21T06:51:29.000Z</time>
      </trkpt>
      <trkpt lat="42.931845188140869140625" lon="-1.0027661360800266265869140625">
        <ele>918.79998779296875</ele>
        <time>2020-08-21T06:51:33.000Z</time>
      </trkpt>
      <trkpt lat="42.93191023170948028564453125" lon="-1.0026645474135875701904296875">
        <ele>919.4000244140625</ele>
        <time>2020-08-21T06:51:38.000Z</time>
      </trkpt>
      <trkpt lat="42.93193898163735866546630859375" lon="-1.0026229731738567352294921875">
        <ele>919.5999755859375</ele>
        <time>2020-08-21T06:51:40.000Z</time>
      </trkpt>
      <trkpt lat="42.93204836547374725341796875" lon="-1.0024394094944000244140625">
        <ele>920.4000244140625</ele>
        <time>2020-08-21T06:51:48.000Z</time>
      </trkpt>
      <trkpt lat="42.93207921087741851806640625" lon="-1.00239825434982776641845703125">
        <ele>920.5999755859375</ele>
        <time>2020-08-21T06:51:50.000Z</time>
      </trkpt>
      <trkpt lat="42.9321672208607196807861328125" lon="-1.00228493101894855499267578125">
        <ele>921.20001220703125</ele>
        <time>2020-08-21T06:51:56.000Z</time>
      </trkpt>
      <trkpt lat="42.9322372935712337493896484375" lon="-1.0022001899778842926025390625">
        <ele>921.5999755859375</ele>
        <time>2020-08-21T06:52:01.000Z</time>
      </trkpt>
      <trkpt lat="42.93228616006672382354736328125" lon="-1.00215735845267772674560546875">
        <ele>921.79998779296875</ele>
        <time>2020-08-21T06:52:04.000Z</time>
      </trkpt>
      <trkpt lat="42.93236888945102691650390625" lon="-1.00207789801061153411865234375">
        <ele>922.4000244140625</ele>
        <time>2020-08-21T06:52:09.000Z</time>
      </trkpt>
      <trkpt lat="42.93237551115453243255615234375" lon="-1.00205727852880954742431640625">
        <ele>922.5999755859375</ele>
        <time>2020-08-21T06:52:10.000Z</time>
      </trkpt>
      <trkpt lat="42.932379283010959625244140625" lon="-1.002043448388576507568359375">
        <ele>922.5999755859375</ele>
        <time>2020-08-21T06:52:11.000Z</time>
      </trkpt>
      <trkpt lat="42.9323868267238140106201171875" lon="-1.0020281933248043060302734375">
        <ele>923</ele>
        <time>2020-08-21T06:52:17.000Z</time>
      </trkpt>
      <trkpt lat="42.932385988533496856689453125" lon="-1.00202676840126514434814453125">
        <ele>922.79998779296875</ele>
        <time>2020-08-21T06:52:28.000Z</time>
      </trkpt>
      <trkpt lat="42.93238607235252857208251953125" lon="-1.00202567875385284423828125">
        <ele>922.79998779296875</ele>
        <time>2020-08-21T06:52:53.000Z</time>
      </trkpt>
      <trkpt lat="42.9323861561715602874755859375" lon="-1.0020251758396625518798828125">
        <ele>922.79998779296875</ele>
        <time>2020-08-21T06:53:20.000Z</time>
      </trkpt>
      <trkpt lat="42.93238556943833827972412109375" lon="-1.0020265169441699981689453125">
        <ele>922.79998779296875</ele>
        <time>2020-08-21T06:53:41.000Z</time>
      </trkpt>
      <trkpt lat="42.93238623999059200286865234375" lon="-1.002028696238994598388671875">
        <ele>922.79998779296875</ele>
        <time>2020-08-21T06:54:07.000Z</time>
      </trkpt>
      <trkpt lat="42.93238623999059200286865234375" lon="-1.0020288638770580291748046875">
        <ele>923</ele>
        <time>2020-08-21T06:54:33.000Z</time>
      </trkpt>
      <trkpt lat="42.9323861561715602874755859375" lon="-1.00203037261962890625">
        <ele>923</ele>
        <time>2020-08-21T06:54:55.000Z</time>
      </trkpt>
      <trkpt lat="42.9323891736567020416259765625" lon="-1.0020315460860729217529296875">
        <ele>922.5999755859375</ele>
        <time>2020-08-21T06:55:04.000Z</time>
      </trkpt>
      <trkpt lat="42.932407446205615997314453125" lon="-1.0020335577428340911865234375">
        <ele>922.79998779296875</ele>
        <time>2020-08-21T06:55:06.000Z</time>
      </trkpt>
      <trkpt lat="42.9324183426797389984130859375" lon="-1.00202794186770915985107421875">
        <ele>922.79998779296875</ele>
        <time>2020-08-21T06:55:07.000Z</time>
      </trkpt>
      <trkpt lat="42.9324850626289844512939453125" lon="-1.0019705258309841156005859375">
        <ele>923.4000244140625</ele>
        <time>2020-08-21T06:55:12.000Z</time>
      </trkpt>
      <trkpt lat="42.9325802810490131378173828125" lon="-1.00190958939492702484130859375">
        <ele>923.79998779296875</ele>
        <time>2020-08-21T06:55:18.000Z</time>
      </trkpt>
      <trkpt lat="42.93262847699224948883056640625" lon="-1.00188243202865123748779296875">
        <ele>924.4000244140625</ele>
        <time>2020-08-21T06:55:21.000Z</time>
      </trkpt>
      <trkpt lat="42.93268899433314800262451171875" lon="-1.00183431990444660186767578125">
        <ele>924.79998779296875</ele>
        <time>2020-08-21T06:55:25.000Z</time>
      </trkpt>
      <trkpt lat="42.9327633418142795562744140625" lon="-1.00176961161196231842041015625">
        <ele>925.79998779296875</ele>
        <time>2020-08-21T06:55:30.000Z</time>
      </trkpt>
      <trkpt lat="42.93277801014482975006103515625" lon="-1.00175703875720500946044921875">
        <ele>926</ele>
        <time>2020-08-21T06:55:31.000Z</time>
      </trkpt>
      <trkpt lat="42.93287104927003383636474609375" lon="-1.00169710814952850341796875">
        <ele>927</ele>
        <time>2020-08-21T06:55:37.000Z</time>
      </trkpt>
      <trkpt lat="42.93288479559123516082763671875" lon="-1.00168093107640743255615234375">
        <ele>927</ele>
        <time>2020-08-21T06:55:38.000Z</time>
      </trkpt>
      <trkpt lat="42.9330111108720302581787109375" lon="-1.00154615007340908050537109375">
        <ele>928.20001220703125</ele>
        <time>2020-08-21T06:55:47.000Z</time>
      </trkpt>
      <trkpt lat="42.93310574255883693695068359375" lon="-1.00143131799995899200439453125">
        <ele>929</ele>
        <time>2020-08-21T06:55:54.000Z</time>
      </trkpt>
      <trkpt lat="42.9331190697848796844482421875" lon="-1.0014148056507110595703125">
        <ele>929.20001220703125</ele>
        <time>2020-08-21T06:55:55.000Z</time>
      </trkpt>
      <trkpt lat="42.9332085885107517242431640625" lon="-1.00129066966474056243896484375">
        <ele>930.20001220703125</ele>
        <time>2020-08-21T06:56:02.000Z</time>
      </trkpt>
      <trkpt lat="42.93322057463228702545166015625" lon="-1.0012731514871120452880859375">
        <ele>930.5999755859375</ele>
        <time>2020-08-21T06:56:03.000Z</time>
      </trkpt>
      <trkpt lat="42.93329215608537197113037109375" lon="-1.00113275460898876190185546875">
        <ele>931.4000244140625</ele>
        <time>2020-08-21T06:56:10.000Z</time>
      </trkpt>
      <trkpt lat="42.9333110153675079345703125" lon="-1.0010914318263530731201171875">
        <ele>931.5999755859375</ele>
        <time>2020-08-21T06:56:12.000Z</time>
      </trkpt>
      <trkpt lat="42.9333753883838653564453125" lon="-1.0009392164647579193115234375">
        <ele>932.79998779296875</ele>
        <time>2020-08-21T06:56:19.000Z</time>
      </trkpt>
      <trkpt lat="42.93340430594980716705322265625" lon="-1.00086964666843414306640625">
        <ele>933.20001220703125</ele>
        <time>2020-08-21T06:56:22.000Z</time>
      </trkpt>
      <trkpt lat="42.93346247635781764984130859375" lon="-1.0007321834564208984375">
        <ele>933.79998779296875</ele>
        <time>2020-08-21T06:56:28.000Z</time>
      </trkpt>
      <trkpt lat="42.9334825091063976287841796875" lon="-1.0006879270076751708984375">
        <ele>934</ele>
        <time>2020-08-21T06:56:30.000Z</time>
      </trkpt>
      <trkpt lat="42.93354503810405731201171875" lon="-1.00050394423305988311767578125">
        <ele>934.79998779296875</ele>
        <time>2020-08-21T06:56:38.000Z</time>
      </trkpt>
      <trkpt lat="42.93355484493076801300048828125" lon="-1.00048265419900417327880859375">
        <ele>935</ele>
        <time>2020-08-21T06:56:39.000Z</time>
      </trkpt>
      <trkpt lat="42.93359340168535709381103515625" lon="-1.00039699114859104156494140625">
        <ele>935.79998779296875</ele>
        <time>2020-08-21T06:56:43.000Z</time>
      </trkpt>
      <trkpt lat="42.93363581411540508270263671875" lon="-1.0003152675926685333251953125">
        <ele>936.4000244140625</ele>
        <time>2020-08-21T06:56:47.000Z</time>
      </trkpt>
      <trkpt lat="42.9336695931851863861083984375" lon="-1.00022247992455959320068359375">
        <ele>937</ele>
        <time>2020-08-21T06:56:51.000Z</time>
      </trkpt>
      <trkpt lat="42.93372181244194507598876953125" lon="-1.00011452101171016693115234375">
        <ele>937.5999755859375</ele>
        <time>2020-08-21T06:56:56.000Z</time>
      </trkpt>
      <trkpt lat="42.93374980799853801727294921875" lon="-1.0000468790531158447265625">
        <ele>938</ele>
        <time>2020-08-21T06:56:59.000Z</time>
      </trkpt>
      <trkpt lat="42.933772020041942596435546875" lon="-1.00000555627048015594482421875">
        <ele>938.20001220703125</ele>
        <time>2020-08-21T06:57:01.000Z</time>
      </trkpt>
      <trkpt lat="42.93379305861890316009521484375" lon="-0.99996213801205158233642578125">
        <ele>938.5999755859375</ele>
        <time>2020-08-21T06:57:03.000Z</time>
      </trkpt>
      <trkpt lat="42.9338643886148929595947265625" lon="-0.999845378100872039794921875">
        <ele>939</ele>
        <time>2020-08-21T06:57:09.000Z</time>
      </trkpt>
      <trkpt lat="42.93388257734477519989013671875" lon="-0.99980053491890430450439453125">
        <ele>939.5999755859375</ele>
        <time>2020-08-21T06:57:11.000Z</time>
      </trkpt>
      <trkpt lat="42.93393664062023162841796875" lon="-0.99973213858902454376220703125">
        <ele>940</ele>
        <time>2020-08-21T06:57:15.000Z</time>
      </trkpt>
      <trkpt lat="42.933955751359462738037109375" lon="-0.99969349801540374755859375">
        <ele>940.4000244140625</ele>
        <time>2020-08-21T06:57:17.000Z</time>
      </trkpt>
      <trkpt lat="42.93403797782957553863525390625" lon="-0.99960087798535823822021484375">
        <ele>941.20001220703125</ele>
        <time>2020-08-21T06:57:23.000Z</time>
      </trkpt>
      <trkpt lat="42.93417644686996936798095703125" lon="-0.999509431421756744384765625">
        <ele>942.20001220703125</ele>
        <time>2020-08-21T06:57:31.000Z</time>
      </trkpt>
      <trkpt lat="42.93421349488198757171630859375" lon="-0.99949962459504604339599609375">
        <ele>942.4000244140625</ele>
        <time>2020-08-21T06:57:33.000Z</time>
      </trkpt>
      <trkpt lat="42.93433939106762409210205078125" lon="-0.99946777336299419403076171875">
        <ele>943.4000244140625</ele>
        <time>2020-08-21T06:57:40.000Z</time>
      </trkpt>
      <trkpt lat="42.93435850180685520172119140625" lon="-0.9994693659245967864990234375">
        <ele>943.4000244140625</ele>
        <time>2020-08-21T06:57:41.000Z</time>
      </trkpt>
      <trkpt lat="42.9344923608005046844482421875" lon="-0.99948571063578128814697265625">
        <ele>944.4000244140625</ele>
        <time>2020-08-21T06:57:48.000Z</time>
      </trkpt>
      <trkpt lat="42.9345104657113552093505859375" lon="-0.9994876384735107421875">
        <ele>944.4000244140625</ele>
        <time>2020-08-21T06:57:49.000Z</time>
      </trkpt>
      <trkpt lat="42.934598140418529510498046875" lon="-0.99948017857968807220458984375">
        <ele>945.20001220703125</ele>
        <time>2020-08-21T06:57:54.000Z</time>
      </trkpt>
      <trkpt lat="42.93461800552904605865478515625" lon="-0.9994817711412906646728515625">
        <ele>945.4000244140625</ele>
        <time>2020-08-21T06:57:55.000Z</time>
      </trkpt>
      <trkpt lat="42.93475680984556674957275390625" lon="-0.9994609840214252471923828125">
        <ele>946</ele>
        <time>2020-08-21T06:58:02.000Z</time>
      </trkpt>
      <trkpt lat="42.93480978347361087799072265625" lon="-0.999436676502227783203125">
        <ele>946.5999755859375</ele>
        <time>2020-08-21T06:58:05.000Z</time>
      </trkpt>
      <trkpt lat="42.9348718933761119842529296875" lon="-0.999393425881862640380859375">
        <ele>947</ele>
        <time>2020-08-21T06:58:09.000Z</time>
      </trkpt>
      <trkpt lat="42.93493014760315418243408203125" lon="-0.99935688078403472900390625">
        <ele>947.5999755859375</ele>
        <time>2020-08-21T06:58:13.000Z</time>
      </trkpt>
      <trkpt lat="42.9349873960018157958984375" lon="-0.99931958131492137908935546875">
        <ele>947.79998779296875</ele>
        <time>2020-08-21T06:58:17.000Z</time>
      </trkpt>
      <trkpt lat="42.93508454225957393646240234375" lon="-0.999231822788715362548828125">
        <ele>948.5999755859375</ele>
        <time>2020-08-21T06:58:24.000Z</time>
      </trkpt>
      <trkpt lat="42.93510030023753643035888671875" lon="-0.9992199204862117767333984375">
        <ele>948.5999755859375</ele>
        <time>2020-08-21T06:58:25.000Z</time>
      </trkpt>
      <trkpt lat="42.9351904056966304779052734375" lon="-0.99914490245282649993896484375">
        <ele>949.5999755859375</ele>
        <time>2020-08-21T06:58:31.000Z</time>
      </trkpt>
      <trkpt lat="42.93522284366190433502197265625" lon="-0.99911749362945556640625">
        <ele>949.79998779296875</ele>
        <time>2020-08-21T06:58:33.000Z</time>
      </trkpt>
      <trkpt lat="42.9353339038789272308349609375" lon="-0.99902638234198093414306640625">
        <ele>950.79998779296875</ele>
        <time>2020-08-21T06:58:40.000Z</time>
      </trkpt>
      <trkpt lat="42.93535041622817516326904296875" lon="-0.99901397712528705596923828125">
        <ele>950.79998779296875</ele>
        <time>2020-08-21T06:58:41.000Z</time>
      </trkpt>
      <trkpt lat="42.9354395158588886260986328125" lon="-0.99892110563814640045166015625">
        <ele>951.79998779296875</ele>
        <time>2020-08-21T06:58:47.000Z</time>
      </trkpt>
      <trkpt lat="42.9354542680084705352783203125" lon="-0.99890761077404022216796875">
        <ele>951.79998779296875</ele>
        <time>2020-08-21T06:58:48.000Z</time>
      </trkpt>
      <trkpt lat="42.93557756580412387847900390625" lon="-0.998845584690570831298828125">
        <ele>952.79998779296875</ele>
        <time>2020-08-21T06:58:55.000Z</time>
      </trkpt>
      <trkpt lat="42.935614697635173797607421875" lon="-0.998824797570705413818359375">
        <ele>953</ele>
        <time>2020-08-21T06:58:57.000Z</time>
      </trkpt>
      <trkpt lat="42.93571217916905879974365234375" lon="-0.998792611062526702880859375">
        <ele>953.79998779296875</ele>
        <time>2020-08-21T06:59:02.000Z</time>
      </trkpt>
      <trkpt lat="42.93575274758040904998779296875" lon="-0.99879018031060695648193359375">
        <ele>954.20001220703125</ele>
        <time>2020-08-21T06:59:04.000Z</time>
      </trkpt>
      <trkpt lat="42.9358884505927562713623046875" lon="-0.9988095425069332122802734375">
        <ele>955.4000244140625</ele>
        <time>2020-08-21T06:59:11.000Z</time>
      </trkpt>
      <trkpt lat="42.935926504433155059814453125" lon="-0.99881113506853580474853515625">
        <ele>955.5999755859375</ele>
        <time>2020-08-21T06:59:13.000Z</time>
      </trkpt>
      <trkpt lat="42.93604108504951000213623046875" lon="-0.99882018752396106719970703125">
        <ele>956.4000244140625</ele>
        <time>2020-08-21T06:59:19.000Z</time>
      </trkpt>
      <trkpt lat="42.9360953159630298614501953125" lon="-0.998835861682891845703125">
        <ele>956.79998779296875</ele>
        <time>2020-08-21T06:59:22.000Z</time>
      </trkpt>
      <trkpt lat="42.93614954687654972076416015625" lon="-0.9988494403660297393798828125">
        <ele>957.4000244140625</ele>
        <time>2020-08-21T06:59:25.000Z</time>
      </trkpt>
      <trkpt lat="42.936241328716278076171875" lon="-0.998848266899585723876953125">
        <ele>958.20001220703125</ele>
        <time>2020-08-21T06:59:30.000Z</time>
      </trkpt>
      <trkpt lat="42.936261110007762908935546875" lon="-0.99884566850960254669189453125">
        <ele>958.4000244140625</ele>
        <time>2020-08-21T06:59:31.000Z</time>
      </trkpt>
      <trkpt lat="42.93640293180942535400390625" lon="-0.9988336823880672454833984375">
        <ele>959.20001220703125</ele>
        <time>2020-08-21T06:59:38.000Z</time>
      </trkpt>
      <trkpt lat="42.93643922545015811920166015625" lon="-0.9988103806972503662109375">
        <ele>959.5999755859375</ele>
        <time>2020-08-21T06:59:40.000Z</time>
      </trkpt>
      <trkpt lat="42.9365093819797039031982421875" lon="-0.9987218677997589111328125">
        <ele>960.4000244140625</ele>
        <time>2020-08-21T06:59:45.000Z</time>
      </trkpt>
      <trkpt lat="42.936524637043476104736328125" lon="-0.998675264418125152587890625">
        <ele>960.79998779296875</ele>
        <time>2020-08-21T06:59:47.000Z</time>
      </trkpt>
      <trkpt lat="42.93653461150825023651123046875" lon="-0.99857074208557605743408203125">
        <ele>961.20001220703125</ele>
        <time>2020-08-21T06:59:51.000Z</time>
      </trkpt>
      <trkpt lat="42.9364698193967342376708984375" lon="-0.9983780421316623687744140625">
        <ele>961.5999755859375</ele>
        <time>2020-08-21T06:59:59.000Z</time>
      </trkpt>
      <trkpt lat="42.9364332742989063262939453125" lon="-0.9983062930405139923095703125">
        <ele>961.79998779296875</ele>
        <time>2020-08-21T07:00:02.000Z</time>
      </trkpt>
      <trkpt lat="42.93636647053062915802001953125" lon="-0.99823839962482452392578125">
        <ele>962.4000244140625</ele>
        <time>2020-08-21T07:00:06.000Z</time>
      </trkpt>
      <trkpt lat="42.9362909495830535888671875" lon="-0.9981503896415233612060546875">
        <ele>963</ele>
        <time>2020-08-21T07:00:11.000Z</time>
      </trkpt>
      <trkpt lat="42.9362357966601848602294921875" lon="-0.9981104917824268341064453125">
        <ele>963.4000244140625</ele>
        <time>2020-08-21T07:00:14.000Z</time>
      </trkpt>
      <trkpt lat="42.93613898567855358123779296875" lon="-0.9980551712214946746826171875">
        <ele>964</ele>
        <time>2020-08-21T07:00:19.000Z</time>
      </trkpt>
      <trkpt lat="42.93606908060610294342041015625" lon="-0.99798618815839290618896484375">
        <ele>964.5999755859375</ele>
        <time>2020-08-21T07:00:23.000Z</time>
      </trkpt>
      <trkpt lat="42.93601937592029571533203125" lon="-0.99788845516741275787353515625">
        <ele>965.20001220703125</ele>
        <time>2020-08-21T07:00:27.000Z</time>
      </trkpt>
      <trkpt lat="42.93599314056336879730224609375" lon="-0.99784067831933498382568359375">
        <ele>965.79998779296875</ele>
        <time>2020-08-21T07:00:30.000Z</time>
      </trkpt>
      <trkpt lat="42.9359897039830684661865234375" lon="-0.99783615209162235260009765625">
        <ele>966</ele>
        <time>2020-08-21T07:00:39.000Z</time>
      </trkpt>
      <trkpt lat="42.93599146418273448944091796875" lon="-0.99783472716808319091796875">
        <ele>966.20001220703125</ele>
        <time>2020-08-21T07:00:41.000Z</time>
      </trkpt>
      <trkpt lat="42.93598207645118236541748046875" lon="-0.9978313744068145751953125">
        <ele>966</ele>
        <time>2020-08-21T07:00:47.000Z</time>
      </trkpt>
      <trkpt lat="42.93598341755568981170654296875" lon="-0.99782508797943592071533203125">
        <ele>966.20001220703125</ele>
        <time>2020-08-21T07:00:58.000Z</time>
      </trkpt>
      <trkpt lat="42.9359823279082775115966796875" lon="-0.99781536497175693511962890625">
        <ele>966</ele>
        <time>2020-08-21T07:01:10.000Z</time>
      </trkpt>
      <trkpt lat="42.9359843395650386810302734375" lon="-0.9977990202605724334716796875">
        <ele>966</ele>
        <time>2020-08-21T07:01:11.000Z</time>
      </trkpt>
      <trkpt lat="42.93600738979876041412353515625" lon="-0.99766667000949382781982421875">
        <ele>966.20001220703125</ele>
        <time>2020-08-21T07:01:17.000Z</time>
      </trkpt>
      <trkpt lat="42.9361093975603580474853515625" lon="-0.997560136020183563232421875">
        <ele>967</ele>
        <time>2020-08-21T07:01:23.000Z</time>
      </trkpt>
      <trkpt lat="42.93620084412395954132080078125" lon="-0.99752820096909999847412109375">
        <ele>967.20001220703125</ele>
        <time>2020-08-21T07:01:27.000Z</time>
      </trkpt>
      <trkpt lat="42.93629522435367107391357421875" lon="-0.99752468056976795196533203125">
        <ele>967.79998779296875</ele>
        <time>2020-08-21T07:01:31.000Z</time>
      </trkpt>
      <trkpt lat="42.936386168003082275390625" lon="-0.997529961168766021728515625">
        <ele>968.4000244140625</ele>
        <time>2020-08-21T07:01:35.000Z</time>
      </trkpt>
      <trkpt lat="42.93650091625750064849853515625" lon="-0.997571535408496856689453125">
        <ele>969</ele>
        <time>2020-08-21T07:01:40.000Z</time>
      </trkpt>
      <trkpt lat="42.936611808836460113525390625" lon="-0.99762978963553905487060546875">
        <ele>969.4000244140625</ele>
        <time>2020-08-21T07:01:45.000Z</time>
      </trkpt>
      <trkpt lat="42.93667995370924472808837890625" lon="-0.9976865351200103759765625">
        <ele>969.79998779296875</ele>
        <time>2020-08-21T07:01:49.000Z</time>
      </trkpt>
      <trkpt lat="42.9367739148437976837158203125" lon="-0.99774059839546680450439453125">
        <ele>970.20001220703125</ele>
        <time>2020-08-21T07:01:54.000Z</time>
      </trkpt>
      <trkpt lat="42.9368131421506404876708984375" lon="-0.9977616369724273681640625">
        <ele>970.5999755859375</ele>
        <time>2020-08-21T07:01:56.000Z</time>
      </trkpt>
      <trkpt lat="42.93691028840839862823486328125" lon="-0.99783062003552913665771484375">
        <ele>971.20001220703125</ele>
        <time>2020-08-21T07:02:02.000Z</time>
      </trkpt>
      <trkpt lat="42.93693828396499156951904296875" lon="-0.9978409297764301300048828125">
        <ele>971.79998779296875</ele>
        <time>2020-08-21T07:02:06.000Z</time>
      </trkpt>
      <trkpt lat="42.93693861924111843109130859375" lon="-0.9978409297764301300048828125">
        <ele>971.79998779296875</ele>
        <time>2020-08-21T07:02:07.000Z</time>
      </trkpt>
      <trkpt lat="42.93694532476365566253662109375" lon="-0.99784319289028644561767578125">
        <ele>971.79998779296875</ele>
        <time>2020-08-21T07:02:22.000Z</time>
      </trkpt>
      <trkpt lat="42.9369534552097320556640625" lon="-0.99784906022250652313232421875">
        <ele>971.79998779296875</ele>
        <time>2020-08-21T07:02:23.000Z</time>
      </trkpt>
      <trkpt lat="42.93698924593627452850341796875" lon="-0.99786347709596157073974609375">
        <ele>971.79998779296875</ele>
        <time>2020-08-21T07:02:26.000Z</time>
      </trkpt>
      <trkpt lat="42.937042303383350372314453125" lon="-0.9978999383747577667236328125">
        <ele>972</ele>
        <time>2020-08-21T07:02:30.000Z</time>
      </trkpt>
      <trkpt lat="42.93710240162909030914306640625" lon="-0.9979478828608989715576171875">
        <ele>972.79998779296875</ele>
        <time>2020-08-21T07:02:35.000Z</time>
      </trkpt>
      <trkpt lat="42.937160320580005645751953125" lon="-0.99797328002750873565673828125">
        <ele>973.20001220703125</ele>
        <time>2020-08-21T07:02:39.000Z</time>
      </trkpt>
      <trkpt lat="42.93716543354094028472900390625" lon="-0.99797747097909450531005859375">
        <ele>973.4000244140625</ele>
        <time>2020-08-21T07:02:44.000Z</time>
      </trkpt>
      <trkpt lat="42.93716560117900371551513671875" lon="-0.9979788959026336669921875">
        <ele>973.4000244140625</ele>
        <time>2020-08-21T07:02:57.000Z</time>
      </trkpt>
      <trkpt lat="42.93716476298868656158447265625" lon="-0.9979787282645702362060546875">
        <ele>973.4000244140625</ele>
        <time>2020-08-21T07:03:13.000Z</time>
      </trkpt>
      <trkpt lat="42.9371913336217403411865234375" lon="-0.99798166193068027496337890625">
        <ele>973.5999755859375</ele>
        <time>2020-08-21T07:03:22.000Z</time>
      </trkpt>
      <trkpt lat="42.93723567388951778411865234375" lon="-0.99799708463251590728759765625">
        <ele>973.79998779296875</ele>
        <time>2020-08-21T07:03:25.000Z</time>
      </trkpt>
      <trkpt lat="42.93730205856263637542724609375" lon="-0.99802491255104541778564453125">
        <ele>974.20001220703125</ele>
        <time>2020-08-21T07:03:29.000Z</time>
      </trkpt>
      <trkpt lat="42.9374277032911777496337890625" lon="-0.9980739466845989227294921875">
        <ele>974.79998779296875</ele>
        <time>2020-08-21T07:03:36.000Z</time>
      </trkpt>
      <trkpt lat="42.93746449984610080718994140625" lon="-0.99808392114937305450439453125">
        <ele>975</ele>
        <time>2020-08-21T07:03:38.000Z</time>
      </trkpt>
      <trkpt lat="42.93755787424743175506591796875" lon="-0.99811728112399578094482421875">
        <ele>976</ele>
        <time>2020-08-21T07:03:43.000Z</time>
      </trkpt>
      <trkpt lat="42.937637083232402801513671875" lon="-0.99813689477741718292236328125">
        <ele>976.79998779296875</ele>
        <time>2020-08-21T07:03:47.000Z</time>
      </trkpt>
      <trkpt lat="42.93767698109149932861328125" lon="-0.99814712069928646087646484375">
        <ele>977</ele>
        <time>2020-08-21T07:03:49.000Z</time>
      </trkpt>
      <trkpt lat="42.93781050480902194976806640625" lon="-0.9981926344335079193115234375">
        <ele>978</ele>
        <time>2020-08-21T07:03:56.000Z</time>
      </trkpt>
      <trkpt lat="42.93782894499599933624267578125" lon="-0.99820193834602832794189453125">
        <ele>978.20001220703125</ele>
        <time>2020-08-21T07:03:57.000Z</time>
      </trkpt>
      <trkpt lat="42.93794528581202030181884765625" lon="-0.9982459433376789093017578125">
        <ele>979</ele>
        <time>2020-08-21T07:04:03.000Z</time>
      </trkpt>
      <trkpt lat="42.93798384256660938262939453125" lon="-0.99825876764953136444091796875">
        <ele>979.4000244140625</ele>
        <time>2020-08-21T07:04:05.000Z</time>
      </trkpt>
      <trkpt lat="42.93806950561702251434326171875" lon="-0.998315848410129547119140625">
        <ele>980.20001220703125</ele>
        <time>2020-08-21T07:04:10.000Z</time>
      </trkpt>
      <trkpt lat="42.9381257481873035430908203125" lon="-0.99834476597607135772705078125">
        <ele>981</ele>
        <time>2020-08-21T07:04:13.000Z</time>
      </trkpt>
      <trkpt lat="42.93815885670483112335205078125" lon="-0.99836739711463451385498046875">
        <ele>981.20001220703125</ele>
        <time>2020-08-21T07:04:15.000Z</time>
      </trkpt>
      <trkpt lat="42.93826849199831485748291015625" lon="-0.99845875985920429229736328125">
        <ele>982.4000244140625</ele>
        <time>2020-08-21T07:04:22.000Z</time>
      </trkpt>
      <trkpt lat="42.93828408233821392059326171875" lon="-0.99847376346588134765625">
        <ele>982.5999755859375</ele>
        <time>2020-08-21T07:04:23.000Z</time>
      </trkpt>
      <trkpt lat="42.93840360827744007110595703125" lon="-0.99851290695369243621826171875">
        <ele>983.5999755859375</ele>
        <time>2020-08-21T07:04:29.000Z</time>
      </trkpt>
      <trkpt lat="42.93844551779329776763916015625" lon="-0.9985168464481830596923828125">
        <ele>983.5999755859375</ele>
        <time>2020-08-21T07:04:31.000Z</time>
      </trkpt>
      <trkpt lat="42.93851894326508045196533203125" lon="-0.99847066216170787811279296875">
        <ele>983.79998779296875</ele>
        <time>2020-08-21T07:04:35.000Z</time>
      </trkpt>
      <trkpt lat="42.9385565780103206634521484375" lon="-0.9983176924288272857666015625">
        <ele>984.4000244140625</ele>
        <time>2020-08-21T07:04:41.000Z</time>
      </trkpt>
      <trkpt lat="42.93851626105606555938720703125" lon="-0.998147539794445037841796875">
        <ele>984.79998779296875</ele>
        <time>2020-08-21T07:04:46.000Z</time>
      </trkpt>
      <trkpt lat="42.93848524801433086395263671875" lon="-0.9980860166251659393310546875">
        <ele>985</ele>
        <time>2020-08-21T07:04:48.000Z</time>
      </trkpt>
      <trkpt lat="42.938381396234035491943359375" lon="-0.997906811535358428955078125">
        <ele>986</ele>
        <time>2020-08-21T07:04:55.000Z</time>
      </trkpt>
      <trkpt lat="42.93835365213453769683837890625" lon="-0.99786196835339069366455078125">
        <ele>986.20001220703125</ele>
        <time>2020-08-21T07:04:57.000Z</time>
      </trkpt>
      <trkpt lat="42.9382838308811187744140625" lon="-0.99772475659847259521484375">
        <ele>987</ele>
        <time>2020-08-21T07:05:03.000Z</time>
      </trkpt>
      <trkpt lat="42.93822574429214000701904296875" lon="-0.9976203180849552154541015625">
        <ele>987.79998779296875</ele>
        <time>2020-08-21T07:05:08.000Z</time>
      </trkpt>
      <trkpt lat="42.9381985031068325042724609375" lon="-0.997578240931034088134765625">
        <ele>988.20001220703125</ele>
        <time>2020-08-21T07:05:10.000Z</time>
      </trkpt>
      <trkpt lat="42.9381187073886394500732421875" lon="-0.9974486567080020904541015625">
        <ele>989.20001220703125</ele>
        <time>2020-08-21T07:05:16.000Z</time>
      </trkpt>
      <trkpt lat="42.93809146620333194732666015625" lon="-0.99740565754473209381103515625">
        <ele>989.5999755859375</ele>
        <time>2020-08-21T07:05:18.000Z</time>
      </trkpt>
      <trkpt lat="42.93803513981401920318603515625" lon="-0.9972977824509143829345703125">
        <ele>990.4000244140625</ele>
        <time>2020-08-21T07:05:23.000Z</time>
      </trkpt>
      <trkpt lat="42.93799775652587413787841796875" lon="-0.9972357563674449920654296875">
        <ele>991</ele>
        <time>2020-08-21T07:05:26.000Z</time>
      </trkpt>
      <trkpt lat="42.9379631392657756805419921875" lon="-0.99717557430267333984375">
        <ele>991.4000244140625</ele>
        <time>2020-08-21T07:05:29.000Z</time>
      </trkpt>
      <trkpt lat="42.9379138536751270294189453125" lon="-0.9970642626285552978515625">
        <ele>992.4000244140625</ele>
        <time>2020-08-21T07:05:34.000Z</time>
      </trkpt>
      <trkpt lat="42.93790387921035289764404296875" lon="-0.99703987129032611846923828125">
        <ele>992.5999755859375</ele>
        <time>2020-08-21T07:05:35.000Z</time>
      </trkpt>
      <trkpt lat="42.9378608800470829010009765625" lon="-0.99688480608165264129638671875">
        <ele>993.79998779296875</ele>
        <time>2020-08-21T07:05:41.000Z</time>
      </trkpt>
      <trkpt lat="42.9378521628677845001220703125" lon="-0.9968304075300693511962890625">
        <ele>994</ele>
        <time>2020-08-21T07:05:43.000Z</time>
      </trkpt>
      <trkpt lat="42.937846966087818145751953125" lon="-0.996689088642597198486328125">
        <ele>994.79998779296875</ele>
        <time>2020-08-21T07:05:48.000Z</time>
      </trkpt>
      <trkpt lat="42.9378524981439113616943359375" lon="-0.99660627543926239013671875">
        <ele>995</ele>
        <time>2020-08-21T07:05:51.000Z</time>
      </trkpt>
      <trkpt lat="42.9378588683903217315673828125" lon="-0.99647358991205692291259765625">
        <ele>995.79998779296875</ele>
        <time>2020-08-21T07:05:56.000Z</time>
      </trkpt>
      <trkpt lat="42.9378370754420757293701171875" lon="-0.99635289050638675689697265625">
        <ele>996.5999755859375</ele>
        <time>2020-08-21T07:06:01.000Z</time>
      </trkpt>
      <trkpt lat="42.93782106600701808929443359375" lon="-0.99630586802959442138671875">
        <ele>997</ele>
        <time>2020-08-21T07:06:03.000Z</time>
      </trkpt>
      <trkpt lat="42.93777127750217914581298828125" lon="-0.9961920417845249176025390625">
        <ele>998</ele>
        <time>2020-08-21T07:06:08.000Z</time>
      </trkpt>
      <trkpt lat="42.93775878846645355224609375" lon="-0.99616966210305690765380859375">
        <ele>998.20001220703125</ele>
        <time>2020-08-21T07:06:09.000Z</time>
      </trkpt>
      <trkpt lat="42.9376657493412494659423828125" lon="-0.9960646368563175201416015625">
        <ele>999.20001220703125</ele>
        <time>2020-08-21T07:06:15.000Z</time>
      </trkpt>
      <trkpt lat="42.937650494277477264404296875" lon="-0.99604661576449871063232421875">
        <ele>999.20001220703125</ele>
        <time>2020-08-21T07:06:16.000Z</time>
      </trkpt>
      <trkpt lat="42.9375614784657955169677734375" lon="-0.99592826329171657562255859375">
        <ele>1000.20001220703125</ele>
        <time>2020-08-21T07:06:22.000Z</time>
      </trkpt>
      <trkpt lat="42.93750397861003875732421875" lon="-0.99580907262861728668212890625">
        <ele>1000.79998779296875</ele>
        <time>2020-08-21T07:06:27.000Z</time>
      </trkpt>
      <trkpt lat="42.9374739713966846466064453125" lon="-0.99570664577186107635498046875">
        <ele>1001.20001220703125</ele>
        <time>2020-08-21T07:06:31.000Z</time>
      </trkpt>
      <trkpt lat="42.93746642768383026123046875" lon="-0.99559617228806018829345703125">
        <ele>1001.5999755859375</ele>
        <time>2020-08-21T07:06:35.000Z</time>
      </trkpt>
      <trkpt lat="42.937486208975315093994140625" lon="-0.9954571165144443511962890625">
        <ele>1002.4000244140625</ele>
        <time>2020-08-21T07:06:40.000Z</time>
      </trkpt>
      <trkpt lat="42.9375212453305721282958984375" lon="-0.995354019105434417724609375">
        <ele>1003</ele>
        <time>2020-08-21T07:06:44.000Z</time>
      </trkpt>
      <trkpt lat="42.93756810016930103302001953125" lon="-0.99525980651378631591796875">
        <ele>1003.5999755859375</ele>
        <time>2020-08-21T07:06:48.000Z</time>
      </trkpt>
      <trkpt lat="42.93764839880168437957763671875" lon="-0.99516819231212139129638671875">
        <ele>1004.20001220703125</ele>
        <time>2020-08-21T07:06:53.000Z</time>
      </trkpt>
      <trkpt lat="42.93768377043306827545166015625" lon="-0.9951382689177989959716796875">
        <ele>1004.5999755859375</ele>
        <time>2020-08-21T07:06:55.000Z</time>
      </trkpt>
      <trkpt lat="42.93775870464742183685302734375" lon="-0.9950970299541950225830078125">
        <ele>1005.5999755859375</ele>
        <time>2020-08-21T07:06:59.000Z</time>
      </trkpt>
      <trkpt lat="42.93779642321169376373291015625" lon="-0.99508143961429595947265625">
        <ele>1006</ele>
        <time>2020-08-21T07:07:01.000Z</time>
      </trkpt>
      <trkpt lat="42.93789164163172245025634765625" lon="-0.99503718316555023193359375">
        <ele>1006.5999755859375</ele>
        <time>2020-08-21T07:07:06.000Z</time>
      </trkpt>
      <trkpt lat="42.93798811733722686767578125" lon="-0.9950024820864200592041015625">
        <ele>1007.20001220703125</ele>
        <time>2020-08-21T07:07:11.000Z</time>
      </trkpt>
      <trkpt lat="42.93802675791084766387939453125" lon="-0.99499368108808994293212890625">
        <ele>1007.79998779296875</ele>
        <time>2020-08-21T07:07:13.000Z</time>
      </trkpt>
      <trkpt lat="42.93813689611852169036865234375" lon="-0.99495378322899341583251953125">
        <ele>1008.79998779296875</ele>
        <time>2020-08-21T07:07:19.000Z</time>
      </trkpt>
      <trkpt lat="42.9381550848484039306640625" lon="-0.99494674243032932281494140625">
        <ele>1009</ele>
        <time>2020-08-21T07:07:20.000Z</time>
      </trkpt>
      <trkpt lat="42.93827452696859836578369140625" lon="-0.99492327310144901275634765625">
        <ele>1010</ele>
        <time>2020-08-21T07:07:26.000Z</time>
      </trkpt>
      <trkpt lat="42.9383133351802825927734375" lon="-0.99490298889577388763427734375">
        <ele>1010.20001220703125</ele>
        <time>2020-08-21T07:07:28.000Z</time>
      </trkpt>
      <trkpt lat="42.9383929632604122161865234375" lon="-0.994871556758880615234375">
        <ele>1011.20001220703125</ele>
        <time>2020-08-21T07:07:32.000Z</time>
      </trkpt>
      <trkpt lat="42.9384613595902919769287109375" lon="-0.9948506020009517669677734375">
        <ele>1012</ele>
        <time>2020-08-21T07:07:36.000Z</time>
      </trkpt>
      <trkpt lat="42.93848072178661823272705078125" lon="-0.99484448321163654327392578125">
        <ele>1012.20001220703125</ele>
        <time>2020-08-21T07:07:37.000Z</time>
      </trkpt>
      <trkpt lat="42.9385659657418727874755859375" lon="-0.99478346295654773712158203125">
        <ele>1012.79998779296875</ele>
        <time>2020-08-21T07:07:42.000Z</time>
      </trkpt>
      <trkpt lat="42.9386229626834392547607421875" lon="-0.994762592017650604248046875">
        <ele>1013.20001220703125</ele>
        <time>2020-08-21T07:07:45.000Z</time>
      </trkpt>
      <trkpt lat="42.93870300985872745513916015625" lon="-0.99472931586205959320068359375">
        <ele>1014</ele>
        <time>2020-08-21T07:07:49.000Z</time>
      </trkpt>
      <trkpt lat="42.93874315917491912841796875" lon="-0.99471456371247768402099609375">
        <ele>1014.20001220703125</ele>
        <time>2020-08-21T07:07:51.000Z</time>
      </trkpt>
      <trkpt lat="42.93885706923902034759521484375" lon="-0.9946558065712451934814453125">
        <ele>1015.20001220703125</ele>
        <time>2020-08-21T07:07:57.000Z</time>
      </trkpt>
      <trkpt lat="42.93887735344469547271728515625" lon="-0.9946449100971221923828125">
        <ele>1015.4000244140625</ele>
        <time>2020-08-21T07:07:58.000Z</time>
      </trkpt>
      <trkpt lat="42.93903158046305179595947265625" lon="-0.99455614574253559112548828125">
        <ele>1016.4000244140625</ele>
        <time>2020-08-21T07:08:06.000Z</time>
      </trkpt>
      <trkpt lat="42.93908840976655483245849609375" lon="-0.9945294074714183807373046875">
        <ele>1017.20001220703125</ele>
        <time>2020-08-21T07:08:09.000Z</time>
      </trkpt>
      <trkpt lat="42.93914557434618473052978515625" lon="-0.9945035912096500396728515625">
        <ele>1017.5999755859375</ele>
        <time>2020-08-21T07:08:12.000Z</time>
      </trkpt>
      <trkpt lat="42.9392562992870807647705078125" lon="-0.99443628452718257904052734375">
        <ele>1018.79998779296875</ele>
        <time>2020-08-21T07:08:18.000Z</time>
      </trkpt>
      <trkpt lat="42.9392935149371623992919921875" lon="-0.994421280920505523681640625">
        <ele>1019.20001220703125</ele>
        <time>2020-08-21T07:08:20.000Z</time>
      </trkpt>
      <trkpt lat="42.93938227929174900054931640625" lon="-0.9943721629679203033447265625">
        <ele>1020</ele>
        <time>2020-08-21T07:08:25.000Z</time>
      </trkpt>
      <trkpt lat="42.9394373483955860137939453125" lon="-0.99435397423803806304931640625">
        <ele>1020.5999755859375</ele>
        <time>2020-08-21T07:08:28.000Z</time>
      </trkpt>
      <trkpt lat="42.939494512975215911865234375" lon="-0.994338132441043853759765625">
        <ele>1021</ele>
        <time>2020-08-21T07:08:31.000Z</time>
      </trkpt>
      <trkpt lat="42.939609847962856292724609375" lon="-0.994326062500476837158203125">
        <ele>1022.20001220703125</ele>
        <time>2020-08-21T07:08:37.000Z</time>
      </trkpt>
      <trkpt lat="42.93962904252111911773681640625" lon="-0.9943262301385402679443359375">
        <ele>1022.4000244140625</ele>
        <time>2020-08-21T07:08:38.000Z</time>
      </trkpt>
      <trkpt lat="42.9396502487361431121826171875" lon="-0.9943292476236820220947265625">
        <ele>1022.4000244140625</ele>
        <time>2020-08-21T07:08:39.000Z</time>
      </trkpt>
      <trkpt lat="42.9397551901638507843017578125" lon="-0.9943463467061519622802734375">
        <ele>1023.20001220703125</ele>
        <time>2020-08-21T07:08:44.000Z</time>
      </trkpt>
      <trkpt lat="42.93979592621326446533203125" lon="-0.99435724318027496337890625">
        <ele>1023.5999755859375</ele>
        <time>2020-08-21T07:08:46.000Z</time>
      </trkpt>
      <trkpt lat="42.93987664394080638885498046875" lon="-0.9943698160350322723388671875">
        <ele>1024.199951171875</ele>
        <time>2020-08-21T07:08:50.000Z</time>
      </trkpt>
      <trkpt lat="42.9399898834526538848876953125" lon="-0.9943820536136627197265625">
        <ele>1025.199951171875</ele>
        <time>2020-08-21T07:08:56.000Z</time>
      </trkpt>
      <trkpt lat="42.94012441299855709075927734375" lon="-0.99441080354154109954833984375">
        <ele>1026.4000244140625</ele>
        <time>2020-08-21T07:09:03.000Z</time>
      </trkpt>
      <trkpt lat="42.9401441104710102081298828125" lon="-0.99441281519830226898193359375">
        <ele>1026.5999755859375</ele>
        <time>2020-08-21T07:09:04.000Z</time>
      </trkpt>
      <trkpt lat="42.9402835853397846221923828125" lon="-0.99444868974387645721435546875">
        <ele>1027.5999755859375</ele>
        <time>2020-08-21T07:09:11.000Z</time>
      </trkpt>
      <trkpt lat="42.94030286371707916259765625" lon="-0.99445539526641368865966796875">
        <ele>1027.800048828125</ele>
        <time>2020-08-21T07:09:12.000Z</time>
      </trkpt>
      <trkpt lat="42.94039833359420299530029296875" lon="-0.9944848157465457916259765625">
        <ele>1028.800048828125</ele>
        <time>2020-08-21T07:09:17.000Z</time>
      </trkpt>
      <trkpt lat="42.94047611765563488006591796875" lon="-0.99448506720364093780517578125">
        <ele>1029.4000244140625</ele>
        <time>2020-08-21T07:09:21.000Z</time>
      </trkpt>
      <trkpt lat="42.94055557809770107269287109375" lon="-0.99448691122233867645263671875">
        <ele>1030</ele>
        <time>2020-08-21T07:09:25.000Z</time>
      </trkpt>
      <trkpt lat="42.9406346194446086883544921875" lon="-0.99449428729712963104248046875">
        <ele>1030.800048828125</ele>
        <time>2020-08-21T07:09:29.000Z</time>
      </trkpt>
      <trkpt lat="42.940676026046276092529296875" lon="-0.99449914880096912384033203125">
        <ele>1031</ele>
        <time>2020-08-21T07:09:31.000Z</time>
      </trkpt>
      <trkpt lat="42.94079496525228023529052734375" lon="-0.9944824688136577606201171875">
        <ele>1031.800048828125</ele>
        <time>2020-08-21T07:09:37.000Z</time>
      </trkpt>
      <trkpt lat="42.9408565722405910491943359375" lon="-0.99447417072951793670654296875">
        <ele>1032.199951171875</ele>
        <time>2020-08-21T07:09:40.000Z</time>
      </trkpt>
      <trkpt lat="42.940936870872974395751953125" lon="-0.9944678843021392822265625">
        <ele>1033</ele>
        <time>2020-08-21T07:09:44.000Z</time>
      </trkpt>
      <trkpt lat="42.94099495746195316314697265625" lon="-0.994452796876430511474609375">
        <ele>1033.4000244140625</ele>
        <time>2020-08-21T07:09:47.000Z</time>
      </trkpt>
      <trkpt lat="42.94109545648097991943359375" lon="-0.99443494342267513275146484375">
        <ele>1034.199951171875</ele>
        <time>2020-08-21T07:09:52.000Z</time>
      </trkpt>
      <trkpt lat="42.9411147348582744598388671875" lon="-0.9944311715662479400634765625">
        <ele>1034.4000244140625</ele>
        <time>2020-08-21T07:09:53.000Z</time>
      </trkpt>
      <trkpt lat="42.94127860106527805328369140625" lon="-0.9943926148116588592529296875">
        <ele>1035.4000244140625</ele>
        <time>2020-08-21T07:10:01.000Z</time>
      </trkpt>
      <trkpt lat="42.94129972346127033233642578125" lon="-0.99438607692718505859375">
        <ele>1035.4000244140625</ele>
        <time>2020-08-21T07:10:02.000Z</time>
      </trkpt>
      <trkpt lat="42.9414443112909793853759765625" lon="-0.994347520172595977783203125">
        <ele>1036.4000244140625</ele>
        <time>2020-08-21T07:10:09.000Z</time>
      </trkpt>
      <trkpt lat="42.94146551750600337982177734375" lon="-0.99434408359229564666748046875">
        <ele>1036.5999755859375</ele>
        <time>2020-08-21T07:10:10.000Z</time>
      </trkpt>
      <trkpt lat="42.941599376499652862548828125" lon="-0.99429127760231494903564453125">
        <ele>1037.4000244140625</ele>
        <time>2020-08-21T07:10:17.000Z</time>
      </trkpt>
      <trkpt lat="42.941675819456577301025390625" lon="-0.994267724454402923583984375">
        <ele>1038.4000244140625</ele>
        <time>2020-08-21T07:10:21.000Z</time>
      </trkpt>
      <trkpt lat="42.941716723144054412841796875" lon="-0.99425800144672393798828125">
        <ele>1038.800048828125</ele>
        <time>2020-08-21T07:10:23.000Z</time>
      </trkpt>
      <trkpt lat="42.94183918274939060211181640625" lon="-0.99423662759363651275634765625">
        <ele>1039.4000244140625</ele>
        <time>2020-08-21T07:10:29.000Z</time>
      </trkpt>
      <trkpt lat="42.941989637911319732666015625" lon="-0.9942819736897945404052734375">
        <ele>1040.5999755859375</ele>
        <time>2020-08-21T07:10:36.000Z</time>
      </trkpt>
      <trkpt lat="42.942083515226840972900390625" lon="-0.99434114992618560791015625">
        <ele>1041</ele>
        <time>2020-08-21T07:10:41.000Z</time>
      </trkpt>
      <trkpt lat="42.9421591199934482574462890625" lon="-0.9943835623562335968017578125">
        <ele>1041.5999755859375</ele>
        <time>2020-08-21T07:10:45.000Z</time>
      </trkpt>
      <trkpt lat="42.94223631732165813446044921875" lon="-0.994436033070087432861328125">
        <ele>1042.199951171875</ele>
        <time>2020-08-21T07:10:49.000Z</time>
      </trkpt>
      <trkpt lat="42.9422915540635585784912109375" lon="-0.99448305554687976837158203125">
        <ele>1042.5999755859375</ele>
        <time>2020-08-21T07:10:52.000Z</time>
      </trkpt>
      <trkpt lat="42.94234394095838069915771484375" lon="-0.99452764727175235748291015625">
        <ele>1043.199951171875</ele>
        <time>2020-08-21T07:10:55.000Z</time>
      </trkpt>
      <trkpt lat="42.942359112203121185302734375" lon="-0.99454474635422229766845703125">
        <ele>1043.199951171875</ele>
        <time>2020-08-21T07:10:56.000Z</time>
      </trkpt>
      <trkpt lat="42.94240278191864490509033203125" lon="-0.99461205303668975830078125">
        <ele>1043.800048828125</ele>
        <time>2020-08-21T07:10:59.000Z</time>
      </trkpt>
      <trkpt lat="42.942473106086254119873046875" lon="-0.99471825174987316131591796875">
        <ele>1045</ele>
        <time>2020-08-21T07:11:04.000Z</time>
      </trkpt>
      <trkpt lat="42.9425336234271526336669921875" lon="-0.9948509372770786285400390625">
        <ele>1046</ele>
        <time>2020-08-21T07:11:09.000Z</time>
      </trkpt>
      <trkpt lat="42.94255700893700122833251953125" lon="-0.9948997199535369873046875">
        <ele>1046.4000244140625</ele>
        <time>2020-08-21T07:11:11.000Z</time>
      </trkpt>
      <trkpt lat="42.94264443218708038330078125" lon="-0.99507381208240985870361328125">
        <ele>1047.199951171875</ele>
        <time>2020-08-21T07:11:18.000Z</time>
      </trkpt>
      <trkpt lat="42.94270134530961513519287109375" lon="-0.995152853429317474365234375">
        <ele>1047.5999755859375</ele>
        <time>2020-08-21T07:11:22.000Z</time>
      </trkpt>
      <trkpt lat="42.9427807219326496124267578125" lon="-0.9952321462333202362060546875">
        <ele>1048.4000244140625</ele>
        <time>2020-08-21T07:11:27.000Z</time>
      </trkpt>
      <trkpt lat="42.9428165964782238006591796875" lon="-0.99524614401161670684814453125">
        <ele>1048.5999755859375</ele>
        <time>2020-08-21T07:11:29.000Z</time>
      </trkpt>
      <trkpt lat="42.942868731915950775146484375" lon="-0.9952710382640361785888671875">
        <ele>1049.4000244140625</ele>
        <time>2020-08-21T07:11:32.000Z</time>
      </trkpt>
      <trkpt lat="42.94291944243013858795166015625" lon="-0.995286963880062103271484375">
        <ele>1050</ele>
        <time>2020-08-21T07:11:36.000Z</time>
      </trkpt>
      <trkpt lat="42.9429728351533412933349609375" lon="-0.99528688006103038787841796875">
        <ele>1050.4000244140625</ele>
        <time>2020-08-21T07:11:39.000Z</time>
      </trkpt>
      <trkpt lat="42.9430486075580120086669921875" lon="-0.9952606447041034698486328125">
        <ele>1051</ele>
        <time>2020-08-21T07:11:43.000Z</time>
      </trkpt>
      <trkpt lat="42.94308389537036418914794921875" lon="-0.99523155950009822845458984375">
        <ele>1051.5999755859375</ele>
        <time>2020-08-21T07:11:45.000Z</time>
      </trkpt>
      <trkpt lat="42.9431867413222789764404296875" lon="-0.99516936577856540679931640625">
        <ele>1052.4000244140625</ele>
        <time>2020-08-21T07:11:51.000Z</time>
      </trkpt>
      <trkpt lat="42.94320342130959033966064453125" lon="-0.995158888399600982666015625">
        <ele>1052.5999755859375</ele>
        <time>2020-08-21T07:11:52.000Z</time>
      </trkpt>
      <trkpt lat="42.9432963766157627105712890625" lon="-0.99512393586337566375732421875">
        <ele>1053.5999755859375</ele>
        <time>2020-08-21T07:11:57.000Z</time>
      </trkpt>
      <trkpt lat="42.94331573881208896636962890625" lon="-0.9951168112456798553466796875">
        <ele>1053.5999755859375</ele>
        <time>2020-08-21T07:11:58.000Z</time>
      </trkpt>
      <trkpt lat="42.943423949182033538818359375" lon="-0.99508856423199176788330078125">
        <ele>1054.5999755859375</ele>
        <time>2020-08-21T07:12:04.000Z</time>
      </trkpt>
      <trkpt lat="42.94346024282276630401611328125" lon="-0.9950893186032772064208984375">
        <ele>1055</ele>
        <time>2020-08-21T07:12:06.000Z</time>
      </trkpt>
      <trkpt lat="42.943567447364330291748046875" lon="-0.99509879015386104583740234375">
        <ele>1055.800048828125</ele>
        <time>2020-08-21T07:12:12.000Z</time>
      </trkpt>
      <trkpt lat="42.94358680956065654754638671875" lon="-0.9951037354767322540283203125">
        <ele>1056</ele>
        <time>2020-08-21T07:12:13.000Z</time>
      </trkpt>
      <trkpt lat="42.94371102936565876007080078125" lon="-0.99515126086771488189697265625">
        <ele>1056.800048828125</ele>
        <time>2020-08-21T07:12:19.000Z</time>
      </trkpt>
      <trkpt lat="42.94375327415764331817626953125" lon="-0.99516995251178741455078125">
        <ele>1057.199951171875</ele>
        <time>2020-08-21T07:12:21.000Z</time>
      </trkpt>
      <trkpt lat="42.943850420415401458740234375" lon="-0.995204150676727294921875">
        <ele>1058</ele>
        <time>2020-08-21T07:12:26.000Z</time>
      </trkpt>
      <trkpt lat="42.943907082080841064453125" lon="-0.9952190704643726348876953125">
        <ele>1058.5999755859375</ele>
        <time>2020-08-21T07:12:29.000Z</time>
      </trkpt>
      <trkpt lat="42.94395846314728260040283203125" lon="-0.9952398575842380523681640625">
        <ele>1059</ele>
        <time>2020-08-21T07:12:32.000Z</time>
      </trkpt>
      <trkpt lat="42.94396332465112209320068359375" lon="-0.995242707431316375732421875">
        <ele>1059.199951171875</ele>
        <time>2020-08-21T07:12:33.000Z</time>
      </trkpt>
      <trkpt lat="42.94396542012691497802734375" lon="-0.99524631164968013763427734375">
        <ele>1059.4000244140625</ele>
        <time>2020-08-21T07:14:33.000Z</time>
      </trkpt>
      <trkpt lat="42.943971455097198486328125" lon="-0.99525620229542255401611328125">
        <ele>1059.199951171875</ele>
        <time>2020-08-21T07:14:36.000Z</time>
      </trkpt>
      <trkpt lat="42.94399651698768138885498046875" lon="-0.9952671825885772705078125">
        <ele>1059.199951171875</ele>
        <time>2020-08-21T07:14:38.000Z</time>
      </trkpt>
      <trkpt lat="42.944028116762638092041015625" lon="-0.9952779114246368408203125">
        <ele>1059.4000244140625</ele>
        <time>2020-08-21T07:14:40.000Z</time>
      </trkpt>
      <trkpt lat="42.94404379092156887054443359375" lon="-0.99528771825134754180908203125">
        <ele>1059.4000244140625</ele>
        <time>2020-08-21T07:14:41.000Z</time>
      </trkpt>
      <trkpt lat="42.94411084614694118499755859375" lon="-0.9953208267688751220703125">
        <ele>1059.800048828125</ele>
        <time>2020-08-21T07:14:45.000Z</time>
      </trkpt>
      <trkpt lat="42.94415996409952640533447265625" lon="-0.995349995791912078857421875">
        <ele>1060.4000244140625</ele>
        <time>2020-08-21T07:14:48.000Z</time>
      </trkpt>
      <trkpt lat="42.94428954832255840301513671875" lon="-0.9954393468797206878662109375">
        <ele>1061.4000244140625</ele>
        <time>2020-08-21T07:14:56.000Z</time>
      </trkpt>
      <trkpt lat="42.94430379755795001983642578125" lon="-0.9954537637531757354736328125">
        <ele>1061.5999755859375</ele>
        <time>2020-08-21T07:14:57.000Z</time>
      </trkpt>
      <trkpt lat="42.9443970881402492523193359375" lon="-0.995552502572536468505859375">
        <ele>1062.199951171875</ele>
        <time>2020-08-21T07:15:04.000Z</time>
      </trkpt>
      <trkpt lat="42.94442751444876194000244140625" lon="-0.9956056438386440277099609375">
        <ele>1062.800048828125</ele>
        <time>2020-08-21T07:15:07.000Z</time>
      </trkpt>
      <trkpt lat="42.94448568485677242279052734375" lon="-0.9956802427768707275390625">
        <ele>1063.800048828125</ele>
        <time>2020-08-21T07:15:12.000Z</time>
      </trkpt>
      <trkpt lat="42.94449607841670513153076171875" lon="-0.9956975094974040985107421875">
        <ele>1063.800048828125</ele>
        <time>2020-08-21T07:15:13.000Z</time>
      </trkpt>
      <trkpt lat="42.944554500281810760498046875" lon="-0.9958027862012386322021484375">
        <ele>1064.800048828125</ele>
        <time>2020-08-21T07:15:19.000Z</time>
      </trkpt>
      <trkpt lat="42.944610826671123504638671875" lon="-0.995912253856658935546875">
        <ele>1065.5999755859375</ele>
        <time>2020-08-21T07:15:25.000Z</time>
      </trkpt>
      <trkpt lat="42.94463186524808406829833984375" lon="-0.9959519840776920318603515625">
        <ele>1065.800048828125</ele>
        <time>2020-08-21T07:15:27.000Z</time>
      </trkpt>
      <trkpt lat="42.94469506479799747467041015625" lon="-0.99604301154613494873046875">
        <ele>1066.5999755859375</ele>
        <time>2020-08-21T07:15:32.000Z</time>
      </trkpt>
      <trkpt lat="42.9447206296026706695556640625" lon="-0.99607645533978939056396484375">
        <ele>1067</ele>
        <time>2020-08-21T07:15:34.000Z</time>
      </trkpt>
      <trkpt lat="42.9447870142757892608642578125" lon="-0.99616312421858310699462890625">
        <ele>1067.800048828125</ele>
        <time>2020-08-21T07:15:39.000Z</time>
      </trkpt>
      <trkpt lat="42.9448121599853038787841796875" lon="-0.99620402790606021881103515625">
        <ele>1068</ele>
        <time>2020-08-21T07:15:41.000Z</time>
      </trkpt>
      <trkpt lat="42.9448265768587589263916015625" lon="-0.99622028879821300506591796875">
        <ele>1068.199951171875</ele>
        <time>2020-08-21T07:15:42.000Z</time>
      </trkpt>
      <trkpt lat="42.944856248795986175537109375" lon="-0.9962460212409496307373046875">
        <ele>1068.5999755859375</ele>
        <time>2020-08-21T07:15:44.000Z</time>
      </trkpt>
      <trkpt lat="42.9449228011071681976318359375" lon="-0.99627711810171604156494140625">
        <ele>1069.199951171875</ele>
        <time>2020-08-21T07:15:48.000Z</time>
      </trkpt>
      <trkpt lat="42.94503117911517620086669921875" lon="-0.9963586740195751190185546875">
        <ele>1070</ele>
        <time>2020-08-21T07:15:55.000Z</time>
      </trkpt>
      <trkpt lat="42.94504609890282154083251953125" lon="-0.99637535400688648223876953125">
        <ele>1070.199951171875</ele>
        <time>2020-08-21T07:15:56.000Z</time>
      </trkpt>
      <trkpt lat="42.94512488879263401031494140625" lon="-0.99650527350604534149169921875">
        <ele>1071.4000244140625</ele>
        <time>2020-08-21T07:16:02.000Z</time>
      </trkpt>
      <trkpt lat="42.94512975029647350311279296875" lon="-0.99652907811105251312255859375">
        <ele>1071</ele>
        <time>2020-08-21T07:16:03.000Z</time>
      </trkpt>
      <trkpt lat="42.94511214829981327056884765625" lon="-0.99663301371037960052490234375">
        <ele>1072</ele>
        <time>2020-08-21T07:16:07.000Z</time>
      </trkpt>
      <trkpt lat="42.94510477222502231597900390625" lon="-0.99665866233408451080322265625">
        <ele>1072.199951171875</ele>
        <time>2020-08-21T07:16:08.000Z</time>
      </trkpt>
      <trkpt lat="42.94509354047477245330810546875" lon="-0.99668146111071109771728515625">
        <ele>1072.5999755859375</ele>
        <time>2020-08-21T07:16:09.000Z</time>
      </trkpt>
      <trkpt lat="42.945010475814342498779296875" lon="-0.9967358596622943878173828125">
        <ele>1072.5999755859375</ele>
        <time>2020-08-21T07:16:14.000Z</time>
      </trkpt>
      <trkpt lat="42.944891117513179779052734375" lon="-0.996695794165134429931640625">
        <ele>1073</ele>
        <time>2020-08-21T07:16:20.000Z</time>
      </trkpt>
      <trkpt lat="42.94479363597929477691650390625" lon="-0.9965940378606319427490234375">
        <ele>1073.4000244140625</ele>
        <time>2020-08-21T07:16:26.000Z</time>
      </trkpt>
      <trkpt lat="42.94477569870650768280029296875" lon="-0.9965782798826694488525390625">
        <ele>1073.5999755859375</ele>
        <time>2020-08-21T07:16:27.000Z</time>
      </trkpt>
      <trkpt lat="42.94462583027780055999755859375" lon="-0.996406115591526031494140625">
        <ele>1074.4000244140625</ele>
        <time>2020-08-21T07:16:36.000Z</time>
      </trkpt>
      <trkpt lat="42.94460780918598175048828125" lon="-0.99638842977583408355712890625">
        <ele>1074.5999755859375</ele>
        <time>2020-08-21T07:16:37.000Z</time>
      </trkpt>
      <trkpt lat="42.94447964988648891448974609375" lon="-0.99627074785530567169189453125">
        <ele>1075.5999755859375</ele>
        <time>2020-08-21T07:16:44.000Z</time>
      </trkpt>
      <trkpt lat="42.94442550279200077056884765625" lon="-0.99622028879821300506591796875">
        <ele>1075.800048828125</ele>
        <time>2020-08-21T07:16:47.000Z</time>
      </trkpt>
      <trkpt lat="42.9443313740193843841552734375" lon="-0.99614216946065425872802734375">
        <ele>1076.4000244140625</ele>
        <time>2020-08-21T07:16:52.000Z</time>
      </trkpt>
      <trkpt lat="42.944255433976650238037109375" lon="-0.99607796408236026763916015625">
        <ele>1077.199951171875</ele>
        <time>2020-08-21T07:16:56.000Z</time>
      </trkpt>
      <trkpt lat="42.9441945813596248626708984375" lon="-0.9960425086319446563720703125">
        <ele>1077.5999755859375</ele>
        <time>2020-08-21T07:16:59.000Z</time>
      </trkpt>
      <trkpt lat="42.94408075511455535888671875" lon="-0.995958857238292694091796875">
        <ele>1078.5999755859375</ele>
        <time>2020-08-21T07:17:05.000Z</time>
      </trkpt>
      <trkpt lat="42.9439313896000385284423828125" lon="-0.99590060301125049591064453125">
        <ele>1079.5999755859375</ele>
        <time>2020-08-21T07:17:12.000Z</time>
      </trkpt>
      <trkpt lat="42.94386743567883968353271484375" lon="-0.99589071236550807952880859375">
        <ele>1080.199951171875</ele>
        <time>2020-08-21T07:17:15.000Z</time>
      </trkpt>
      <trkpt lat="42.943780682981014251708984375" lon="-0.99588685669004917144775390625">
        <ele>1080.800048828125</ele>
        <time>2020-08-21T07:17:19.000Z</time>
      </trkpt>
      <trkpt lat="42.94369543902575969696044921875" lon="-0.99589289166033267974853515625">
        <ele>1081.4000244140625</ele>
        <time>2020-08-21T07:17:23.000Z</time>
      </trkpt>
      <trkpt lat="42.94363408349454402923583984375" lon="-0.995915941894054412841796875">
        <ele>1082</ele>
        <time>2020-08-21T07:17:26.000Z</time>
      </trkpt>
      <trkpt lat="42.94352813623845577239990234375" lon="-0.99593714810907840728759765625">
        <ele>1082.800048828125</ele>
        <time>2020-08-21T07:17:31.000Z</time>
      </trkpt>
      <trkpt lat="42.94348723255097866058349609375" lon="-0.99594737403094768524169921875">
        <ele>1083</ele>
        <time>2020-08-21T07:17:33.000Z</time>
      </trkpt>
      <trkpt lat="42.9433666169643402099609375" lon="-0.99596916697919368743896484375">
        <ele>1084</ele>
        <time>2020-08-21T07:17:39.000Z</time>
      </trkpt>
      <trkpt lat="42.94323946349322795867919921875" lon="-0.99600604735314846038818359375">
        <ele>1085.199951171875</ele>
        <time>2020-08-21T07:17:45.000Z</time>
      </trkpt>
      <trkpt lat="42.94319520704448223114013671875" lon="-0.99601560272276401519775390625">
        <ele>1085.199951171875</ele>
        <time>2020-08-21T07:17:47.000Z</time>
      </trkpt>
      <trkpt lat="42.94309127144515514373779296875" lon="-0.99605164490640163421630859375">
        <ele>1086</ele>
        <time>2020-08-21T07:17:52.000Z</time>
      </trkpt>
      <trkpt lat="42.94300653040409088134765625" lon="-0.99608282558619976043701171875">
        <ele>1086.5999755859375</ele>
        <time>2020-08-21T07:17:56.000Z</time>
      </trkpt>
      <trkpt lat="42.942925058305263519287109375" lon="-0.99611568264663219451904296875">
        <ele>1087</ele>
        <time>2020-08-21T07:18:00.000Z</time>
      </trkpt>
      <trkpt lat="42.94279689900577068328857421875" lon="-0.996143259108066558837890625">
        <ele>1088.199951171875</ele>
        <time>2020-08-21T07:18:06.000Z</time>
      </trkpt>
      <trkpt lat="42.9426871798932552337646484375" lon="-0.9961615316569805145263671875">
        <ele>1089.199951171875</ele>
        <time>2020-08-21T07:18:11.000Z</time>
      </trkpt>
      <trkpt lat="42.942642755806446075439453125" lon="-0.9961665607988834381103515625">
        <ele>1089.5999755859375</ele>
        <time>2020-08-21T07:18:13.000Z</time>
      </trkpt>
      <trkpt lat="42.94251300394535064697265625" lon="-0.99616027437150478363037109375">
        <ele>1090.199951171875</ele>
        <time>2020-08-21T07:18:19.000Z</time>
      </trkpt>
      <trkpt lat="42.9424280114471912384033203125" lon="-0.9961501322686672210693359375">
        <ele>1091</ele>
        <time>2020-08-21T07:18:23.000Z</time>
      </trkpt>
      <trkpt lat="42.94236321933567523956298828125" lon="-0.99615792743861675262451171875">
        <ele>1091.199951171875</ele>
        <time>2020-08-21T07:18:26.000Z</time>
      </trkpt>
      <trkpt lat="42.94227504171431064605712890625" lon="-0.99615968763828277587890625">
        <ele>1092</ele>
        <time>2020-08-21T07:18:30.000Z</time>
      </trkpt>
      <trkpt lat="42.94223262928426265716552734375" lon="-0.99616228602826595306396484375">
        <ele>1092.4000244140625</ele>
        <time>2020-08-21T07:18:32.000Z</time>
      </trkpt>
      <trkpt lat="42.9421262629330158233642578125" lon="-0.99616195075213909149169921875">
        <ele>1093.199951171875</ele>
        <time>2020-08-21T07:18:37.000Z</time>
      </trkpt>
      <trkpt lat="42.94206214137375354766845703125" lon="-0.996160022914409637451171875">
        <ele>1093.5999755859375</ele>
        <time>2020-08-21T07:18:40.000Z</time>
      </trkpt>
      <trkpt lat="42.94197781942784786224365234375" lon="-0.9961290098726749420166015625">
        <ele>1094</ele>
        <time>2020-08-21T07:18:44.000Z</time>
      </trkpt>
      <trkpt lat="42.94184789992868900299072265625" lon="-0.996086597442626953125">
        <ele>1094.5999755859375</ele>
        <time>2020-08-21T07:18:50.000Z</time>
      </trkpt>
      <trkpt lat="42.94180297292768955230712890625" lon="-0.99607846699655055999755859375">
        <ele>1094.800048828125</ele>
        <time>2020-08-21T07:18:52.000Z</time>
      </trkpt>
      <trkpt lat="42.94165142811834812164306640625" lon="-0.99614501930773258209228515625">
        <ele>1095</ele>
        <time>2020-08-21T07:18:59.000Z</time>
      </trkpt>
      <trkpt lat="42.94162611477077007293701171875" lon="-0.99629756994545459747314453125">
        <ele>1095.4000244140625</ele>
        <time>2020-08-21T07:19:04.000Z</time>
      </trkpt>
      <trkpt lat="42.94163550250232219696044921875" lon="-0.996326319873332977294921875">
        <ele>1095.5999755859375</ele>
        <time>2020-08-21T07:19:05.000Z</time>
      </trkpt>
      <trkpt lat="42.94170155189931392669677734375" lon="-0.9964146651327610015869140625">
        <ele>1095.800048828125</ele>
        <time>2020-08-21T07:19:09.000Z</time>
      </trkpt>
      <trkpt lat="42.94186525046825408935546875" lon="-0.99653008393943309783935546875">
        <ele>1096.4000244140625</ele>
        <time>2020-08-21T07:19:17.000Z</time>
      </trkpt>
      <trkpt lat="42.9419039748609066009521484375" lon="-0.99656294099986553192138671875">
        <ele>1096.800048828125</ele>
        <time>2020-08-21T07:19:19.000Z</time>
      </trkpt>
      <trkpt lat="42.9420075751841068267822265625" lon="-0.99666469730436801910400390625">
        <ele>1097.4000244140625</ele>
        <time>2020-08-21T07:19:25.000Z</time>
      </trkpt>
      <trkpt lat="42.94202241115272045135498046875" lon="-0.996684730052947998046875">
        <ele>1097.800048828125</ele>
        <time>2020-08-21T07:19:26.000Z</time>
      </trkpt>
      <trkpt lat="42.942121736705303192138671875" lon="-0.99679612554609775543212890625">
        <ele>1098.5999755859375</ele>
        <time>2020-08-21T07:19:32.000Z</time>
      </trkpt>
      <trkpt lat="42.94221653603017330169677734375" lon="-0.99695186130702495574951171875">
        <ele>1099.800048828125</ele>
        <time>2020-08-21T07:19:39.000Z</time>
      </trkpt>
      <trkpt lat="42.9422291927039623260498046875" lon="-0.996974743902683258056640625">
        <ele>1099.800048828125</ele>
        <time>2020-08-21T07:19:40.000Z</time>
      </trkpt>
      <trkpt lat="42.94233061373233795166015625" lon="-0.99712436087429523468017578125">
        <ele>1100.800048828125</ele>
        <time>2020-08-21T07:19:47.000Z</time>
      </trkpt>
      <trkpt lat="42.94237394817173480987548828125" lon="-0.997192002832889556884765625">
        <ele>1101.4000244140625</ele>
        <time>2020-08-21T07:19:50.000Z</time>
      </trkpt>
      <trkpt lat="42.94241921044886112213134765625" lon="-0.99725344218313694000244140625">
        <ele>1102</ele>
        <time>2020-08-21T07:19:53.000Z</time>
      </trkpt>
      <trkpt lat="42.94244402088224887847900390625" lon="-0.99730289541184902191162109375">
        <ele>1102.4000244140625</ele>
        <time>2020-08-21T07:19:55.000Z</time>
      </trkpt>
      <trkpt lat="42.94250738807022571563720703125" lon="-0.99738637916743755340576171875">
        <ele>1103</ele>
        <time>2020-08-21T07:19:59.000Z</time>
      </trkpt>
      <trkpt lat="42.94255080632865428924560546875" lon="-0.99745343439280986785888671875">
        <ele>1103.4000244140625</ele>
        <time>2020-08-21T07:20:02.000Z</time>
      </trkpt>
      <trkpt lat="42.942616604268550872802734375" lon="-0.99756591953337192535400390625">
        <ele>1104.199951171875</ele>
        <time>2020-08-21T07:20:07.000Z</time>
      </trkpt>
      <trkpt lat="42.94265323318541049957275390625" lon="-0.997639931738376617431640625">
        <ele>1104.5999755859375</ele>
        <time>2020-08-21T07:20:10.000Z</time>
      </trkpt>
      <trkpt lat="42.94270855374634265899658203125" lon="-0.99773003719747066497802734375">
        <ele>1105.199951171875</ele>
        <time>2020-08-21T07:20:14.000Z</time>
      </trkpt>
      <trkpt lat="42.94275800697505474090576171875" lon="-0.99785752594470977783203125">
        <ele>1106.4000244140625</ele>
        <time>2020-08-21T07:20:19.000Z</time>
      </trkpt>
      <trkpt lat="42.94281718321144580841064453125" lon="-0.99800479598343372344970703125">
        <ele>1107.199951171875</ele>
        <time>2020-08-21T07:20:25.000Z</time>
      </trkpt>
      <trkpt lat="42.94282522983849048614501953125" lon="-0.998031534254550933837890625">
        <ele>1107.199951171875</ele>
        <time>2020-08-21T07:20:26.000Z</time>
      </trkpt>
      <trkpt lat="42.9428672231733798980712890625" lon="-0.9981644712388515472412109375">
        <ele>1108.199951171875</ele>
        <time>2020-08-21T07:20:31.000Z</time>
      </trkpt>
      <trkpt lat="42.942900918424129486083984375" lon="-0.99826865829527378082275390625">
        <ele>1109</ele>
        <time>2020-08-21T07:20:35.000Z</time>
      </trkpt>
      <trkpt lat="42.94292279519140720367431640625" lon="-0.99831693805754184722900390625">
        <ele>1109.4000244140625</ele>
        <time>2020-08-21T07:20:37.000Z</time>
      </trkpt>
      <trkpt lat="42.9429684765636920928955078125" lon="-0.998472087085247039794921875">
        <ele>1110.199951171875</ele>
        <time>2020-08-21T07:20:43.000Z</time>
      </trkpt>
      <trkpt lat="42.9429765231907367706298828125" lon="-0.99849564023315906524658203125">
        <ele>1110.4000244140625</ele>
        <time>2020-08-21T07:20:44.000Z</time>
      </trkpt>
      <trkpt lat="42.94300057925283908843994140625" lon="-0.99862270988523960113525390625">
        <ele>1111.4000244140625</ele>
        <time>2020-08-21T07:20:49.000Z</time>
      </trkpt>
      <trkpt lat="42.943014241755008697509765625" lon="-0.9986937046051025390625">
        <ele>1111.800048828125</ele>
        <time>2020-08-21T07:20:52.000Z</time>
      </trkpt>
      <trkpt lat="42.9430338554084300994873046875" lon="-0.99876285530626773834228515625">
        <ele>1112.5999755859375</ele>
        <time>2020-08-21T07:20:55.000Z</time>
      </trkpt>
      <trkpt lat="42.94304274022579193115234375" lon="-0.9988601692020893096923828125">
        <ele>1113</ele>
        <time>2020-08-21T07:20:59.000Z</time>
      </trkpt>
      <trkpt lat="42.943058498203754425048828125" lon="-0.99900819361209869384765625">
        <ele>1113.5999755859375</ele>
        <time>2020-08-21T07:21:05.000Z</time>
      </trkpt>
      <trkpt lat="42.94306227006018161773681640625" lon="-0.99905722774565219879150390625">
        <ele>1114</ele>
        <time>2020-08-21T07:21:07.000Z</time>
      </trkpt>
      <trkpt lat="42.943073250353336334228515625" lon="-0.999156720936298370361328125">
        <ele>1114.5999755859375</ele>
        <time>2020-08-21T07:21:11.000Z</time>
      </trkpt>
      <trkpt lat="42.943067885935306549072265625" lon="-0.99930767901241779327392578125">
        <ele>1115.5999755859375</ele>
        <time>2020-08-21T07:21:17.000Z</time>
      </trkpt>
      <trkpt lat="42.943069227039813995361328125" lon="-0.9993334114551544189453125">
        <ele>1115.800048828125</ele>
        <time>2020-08-21T07:21:18.000Z</time>
      </trkpt>
      <trkpt lat="42.943071238696575164794921875" lon="-0.99950633011758327484130859375">
        <ele>1116.800048828125</ele>
        <time>2020-08-21T07:21:25.000Z</time>
      </trkpt>
      <trkpt lat="42.943071909248828887939453125" lon="-0.9996552765369415283203125">
        <ele>1117.800048828125</ele>
        <time>2020-08-21T07:21:31.000Z</time>
      </trkpt>
      <trkpt lat="42.94307115487754344940185546875" lon="-0.999681092798709869384765625">
        <ele>1118</ele>
        <time>2020-08-21T07:21:32.000Z</time>
      </trkpt>
      <trkpt lat="42.9430660419166088104248046875" lon="-0.999839343130588531494140625">
        <ele>1118.800048828125</ele>
        <time>2020-08-21T07:21:38.000Z</time>
      </trkpt>
      <trkpt lat="42.94306009076535701751708984375" lon="-0.9998918138444423675537109375">
        <ele>1119.199951171875</ele>
        <time>2020-08-21T07:21:40.000Z</time>
      </trkpt>
      <trkpt lat="42.9430341906845569610595703125" lon="-1.00001712329685688018798828125">
        <ele>1120</ele>
        <time>2020-08-21T07:21:45.000Z</time>
      </trkpt>
      <trkpt lat="42.94301516376435756683349609375" lon="-1.00008736364543437957763671875">
        <ele>1120.4000244140625</ele>
        <time>2020-08-21T07:21:48.000Z</time>
      </trkpt>
      <trkpt lat="42.94299420900642871856689453125" lon="-1.000159867107868194580078125">
        <ele>1121</ele>
        <time>2020-08-21T07:21:51.000Z</time>
      </trkpt>
      <trkpt lat="42.94295380823314189910888671875" lon="-1.00031375885009765625">
        <ele>1121.800048828125</ele>
        <time>2020-08-21T07:21:57.000Z</time>
      </trkpt>
      <trkpt lat="42.94293989427387714385986328125" lon="-1.00036748684942722320556640625">
        <ele>1122</ele>
        <time>2020-08-21T07:21:59.000Z</time>
      </trkpt>
      <trkpt lat="42.94288977049291133880615234375" lon="-1.00060670636594295501708984375">
        <ele>1123.199951171875</ele>
        <time>2020-08-21T07:22:08.000Z</time>
      </trkpt>
      <trkpt lat="42.94287786819040775299072265625" lon="-1.000794880092144012451171875">
        <ele>1124.199951171875</ele>
        <time>2020-08-21T07:22:15.000Z</time>
      </trkpt>
      <trkpt lat="42.9428786225616931915283203125" lon="-1.0008486919105052947998046875">
        <ele>1124.5999755859375</ele>
        <time>2020-08-21T07:22:17.000Z</time>
      </trkpt>
      <trkpt lat="42.9428851604461669921875" lon="-1.00095556117594242095947265625">
        <ele>1125.4000244140625</ele>
        <time>2020-08-21T07:22:21.000Z</time>
      </trkpt>
      <trkpt lat="42.94290167279541492462158203125" lon="-1.0011135600507259368896484375">
        <ele>1126.199951171875</ele>
        <time>2020-08-21T07:22:27.000Z</time>
      </trkpt>
      <trkpt lat="42.9429077915847301483154296875" lon="-1.00116527639329433441162109375">
        <ele>1126.4000244140625</ele>
        <time>2020-08-21T07:22:29.000Z</time>
      </trkpt>
      <trkpt lat="42.94292732141911983489990234375" lon="-1.0013182461261749267578125">
        <ele>1127.5999755859375</ele>
        <time>2020-08-21T07:22:35.000Z</time>
      </trkpt>
      <trkpt lat="42.9429294168949127197265625" lon="-1.0013938508927822113037109375">
        <ele>1128.4000244140625</ele>
        <time>2020-08-21T07:22:38.000Z</time>
      </trkpt>
      <trkpt lat="42.94293184764683246612548828125" lon="-1.0014448128640651702880859375">
        <ele>1128.5999755859375</ele>
        <time>2020-08-21T07:22:40.000Z</time>
      </trkpt>
      <trkpt lat="42.94292606413364410400390625" lon="-1.0016007162630558013916015625">
        <ele>1129.4000244140625</ele>
        <time>2020-08-21T07:22:46.000Z</time>
      </trkpt>
      <trkpt lat="42.942923046648502349853515625" lon="-1.00165360607206821441650390625">
        <ele>1129.5999755859375</ele>
        <time>2020-08-21T07:22:48.000Z</time>
      </trkpt>
      <trkpt lat="42.9429047740995883941650390625" lon="-1.00180464796721935272216796875">
        <ele>1130.800048828125</ele>
        <time>2020-08-21T07:22:54.000Z</time>
      </trkpt>
      <trkpt lat="42.94289697892963886260986328125" lon="-1.001826860010623931884765625">
        <ele>1131</ele>
        <time>2020-08-21T07:22:55.000Z</time>
      </trkpt>
      <trkpt lat="42.94286780990660190582275390625" lon="-1.00197563879191875457763671875">
        <ele>1132</ele>
        <time>2020-08-21T07:23:01.000Z</time>
      </trkpt>
      <trkpt lat="42.94286227785050868988037109375" lon="-1.00199961103498935699462890625">
        <ele>1132.199951171875</ele>
        <time>2020-08-21T07:23:02.000Z</time>
      </trkpt>
      <trkpt lat="42.9428085498511791229248046875" lon="-1.00213690660893917083740234375">
        <ele>1133.199951171875</ele>
        <time>2020-08-21T07:23:08.000Z</time>
      </trkpt>
      <trkpt lat="42.9427917860448360443115234375" lon="-1.00218283943831920623779296875">
        <ele>1133.5999755859375</ele>
        <time>2020-08-21T07:23:10.000Z</time>
      </trkpt>
      <trkpt lat="42.942730598151683807373046875" lon="-1.00228426046669483184814453125">
        <ele>1134</ele>
        <time>2020-08-21T07:23:15.000Z</time>
      </trkpt>
      <trkpt lat="42.9427197016775608062744140625" lon="-1.002305634319782257080078125">
        <ele>1134.199951171875</ele>
        <time>2020-08-21T07:23:16.000Z</time>
      </trkpt>
      <trkpt lat="42.94263797812163829803466796875" lon="-1.0024177841842174530029296875">
        <ele>1135</ele>
        <time>2020-08-21T07:23:22.000Z</time>
      </trkpt>
      <trkpt lat="42.94262431561946868896484375" lon="-1.00243781693279743194580078125">
        <ele>1135.199951171875</ele>
        <time>2020-08-21T07:23:23.000Z</time>
      </trkpt>
      <trkpt lat="42.94253186322748661041259765625" lon="-1.00261232815682888031005859375">
        <ele>1136.199951171875</ele>
        <time>2020-08-21T07:23:31.000Z</time>
      </trkpt>
      <trkpt lat="42.942435555160045623779296875" lon="-1.00275901146233081817626953125">
        <ele>1137.199951171875</ele>
        <time>2020-08-21T07:23:38.000Z</time>
      </trkpt>
      <trkpt lat="42.94234192930161952972412109375" lon="-1.00289697758853435516357421875">
        <ele>1138.199951171875</ele>
        <time>2020-08-21T07:23:45.000Z</time>
      </trkpt>
      <trkpt lat="42.94233405031263828277587890625" lon="-1.0029217042028903961181640625">
        <ele>1138.4000244140625</ele>
        <time>2020-08-21T07:23:46.000Z</time>
      </trkpt>
      <trkpt lat="42.9422610439360141754150390625" lon="-1.00308188237249851226806640625">
        <ele>1139.199951171875</ele>
        <time>2020-08-21T07:23:53.000Z</time>
      </trkpt>
      <trkpt lat="42.9422516562044620513916015625" lon="-1.00310686044394969940185546875">
        <ele>1139.4000244140625</ele>
        <time>2020-08-21T07:23:54.000Z</time>
      </trkpt>
      <trkpt lat="42.9421919770538806915283203125" lon="-1.00327952764928340911865234375">
        <ele>1140</ele>
        <time>2020-08-21T07:24:01.000Z</time>
      </trkpt>
      <trkpt lat="42.94218518771231174468994140625" lon="-1.0033052600920200347900390625">
        <ele>1140.199951171875</ele>
        <time>2020-08-21T07:24:02.000Z</time>
      </trkpt>
      <trkpt lat="42.94214378111064434051513671875" lon="-1.0034269653260707855224609375">
        <ele>1141.4000244140625</ele>
        <time>2020-08-21T07:24:07.000Z</time>
      </trkpt>
      <trkpt lat="42.9421074874699115753173828125" lon="-1.00352360866963863372802734375">
        <ele>1141.800048828125</ele>
        <time>2020-08-21T07:24:11.000Z</time>
      </trkpt>
      <trkpt lat="42.94206767342984676361083984375" lon="-1.003616563975811004638671875">
        <ele>1142.4000244140625</ele>
        <time>2020-08-21T07:24:15.000Z</time>
      </trkpt>
      <trkpt lat="42.9420042224228382110595703125" lon="-1.00375494919717311859130859375">
        <ele>1143.4000244140625</ele>
        <time>2020-08-21T07:24:21.000Z</time>
      </trkpt>
      <trkpt lat="42.9419906437397003173828125" lon="-1.003775484859943389892578125">
        <ele>1143.5999755859375</ele>
        <time>2020-08-21T07:24:22.000Z</time>
      </trkpt>
      <trkpt lat="42.94188209809362888336181640625" lon="-1.003901548683643341064453125">
        <ele>1144.199951171875</ele>
        <time>2020-08-21T07:24:29.000Z</time>
      </trkpt>
      <trkpt lat="42.94183976948261260986328125" lon="-1.00395192392170429229736328125">
        <ele>1144.5999755859375</ele>
        <time>2020-08-21T07:24:32.000Z</time>
      </trkpt>
      <trkpt lat="42.941776402294635772705078125" lon="-1.004014872014522552490234375">
        <ele>1145.199951171875</ele>
        <time>2020-08-21T07:24:36.000Z</time>
      </trkpt>
      <trkpt lat="42.94174413196742534637451171875" lon="-1.00404948927462100982666015625">
        <ele>1145.800048828125</ele>
        <time>2020-08-21T07:24:38.000Z</time>
      </trkpt>
      <trkpt lat="42.9416406154632568359375" lon="-1.0041404329240322113037109375">
        <ele>1146.800048828125</ele>
        <time>2020-08-21T07:24:44.000Z</time>
      </trkpt>
      <trkpt lat="42.9416055791079998016357421875" lon="-1.004178486764430999755859375">
        <ele>1147</ele>
        <time>2020-08-21T07:24:46.000Z</time>
      </trkpt>
      <trkpt lat="42.941512875258922576904296875" lon="-1.0042457096278667449951171875">
        <ele>1147.5999755859375</ele>
        <time>2020-08-21T07:24:51.000Z</time>
      </trkpt>
      <trkpt lat="42.9414946027100086212158203125" lon="-1.00426356308162212371826171875">
        <ele>1147.800048828125</ele>
        <time>2020-08-21T07:24:52.000Z</time>
      </trkpt>
      <trkpt lat="42.941391170024871826171875" lon="-1.0043714381754398345947265625">
        <ele>1148.5999755859375</ele>
        <time>2020-08-21T07:24:58.000Z</time>
      </trkpt>
      <trkpt lat="42.9413551278412342071533203125" lon="-1.004413180053234100341796875">
        <ele>1149</ele>
        <time>2020-08-21T07:25:00.000Z</time>
      </trkpt>
      <trkpt lat="42.94127675704658031463623046875" lon="-1.00452474318444728851318359375">
        <ele>1149.800048828125</ele>
        <time>2020-08-21T07:25:05.000Z</time>
      </trkpt>
      <trkpt lat="42.94124297797679901123046875" lon="-1.0045917145907878875732421875">
        <ele>1150.199951171875</ele>
        <time>2020-08-21T07:25:08.000Z</time>
      </trkpt>
      <trkpt lat="42.94120383448898792266845703125" lon="-1.00469456054270267486572265625">
        <ele>1150.800048828125</ele>
        <time>2020-08-21T07:25:12.000Z</time>
      </trkpt>
      <trkpt lat="42.94118128716945648193359375" lon="-1.0047757811844348907470703125">
        <ele>1151.5999755859375</ele>
        <time>2020-08-21T07:25:15.000Z</time>
      </trkpt>
      <trkpt lat="42.94116695411503314971923828125" lon="-1.00482967682182788848876953125">
        <ele>1152</ele>
        <time>2020-08-21T07:25:17.000Z</time>
      </trkpt>
      <trkpt lat="42.941141389310359954833984375" lon="-1.0049407370388507843017578125">
        <ele>1153</ele>
        <time>2020-08-21T07:25:21.000Z</time>
      </trkpt>
      <trkpt lat="42.9411107115447521209716796875" lon="-1.0050518810749053955078125">
        <ele>1153.5999755859375</ele>
        <time>2020-08-21T07:25:25.000Z</time>
      </trkpt>
      <trkpt lat="42.94109545648097991943359375" lon="-1.00510929711163043975830078125">
        <ele>1154</ele>
        <time>2020-08-21T07:25:27.000Z</time>
      </trkpt>
      <trkpt lat="42.941046841442584991455078125" lon="-1.005278863012790679931640625">
        <ele>1154.800048828125</ele>
        <time>2020-08-21T07:25:33.000Z</time>
      </trkpt>
      <trkpt lat="42.9410372860729694366455078125" lon="-1.005306355655193328857421875">
        <ele>1155</ele>
        <time>2020-08-21T07:25:34.000Z</time>
      </trkpt>
      <trkpt lat="42.9409591667354106903076171875" lon="-1.00548346526920795440673828125">
        <ele>1156.199951171875</ele>
        <time>2020-08-21T07:25:41.000Z</time>
      </trkpt>
      <trkpt lat="42.9409239627420902252197265625" lon="-1.00555890239775180816650390625">
        <ele>1156.5999755859375</ele>
        <time>2020-08-21T07:25:44.000Z</time>
      </trkpt>
      <trkpt lat="42.9408709891140460968017578125" lon="-1.0056521929800510406494140625">
        <ele>1157.199951171875</ele>
        <time>2020-08-21T07:25:48.000Z</time>
      </trkpt>
      <trkpt lat="42.940790355205535888671875" lon="-1.00579309277236461639404296875">
        <ele>1158.4000244140625</ele>
        <time>2020-08-21T07:25:54.000Z</time>
      </trkpt>
      <trkpt lat="42.94076546095311641693115234375" lon="-1.00584086962044239044189453125">
        <ele>1158.5999755859375</ele>
        <time>2020-08-21T07:25:56.000Z</time>
      </trkpt>
      <trkpt lat="42.94071902520954608917236328125" lon="-1.00594027899205684661865234375">
        <ele>1159.5999755859375</ele>
        <time>2020-08-21T07:26:00.000Z</time>
      </trkpt>
      <trkpt lat="42.94069035910069942474365234375" lon="-1.00598520599305629730224609375">
        <ele>1160</ele>
        <time>2020-08-21T07:26:02.000Z</time>
      </trkpt>
      <trkpt lat="42.94063118286430835723876953125" lon="-1.0060763172805309295654296875">
        <ele>1160.5999755859375</ele>
        <time>2020-08-21T07:26:06.000Z</time>
      </trkpt>
      <trkpt lat="42.94056261889636516571044921875" lon="-1.00618503056466579437255859375">
        <ele>1161.5999755859375</ele>
        <time>2020-08-21T07:26:11.000Z</time>
      </trkpt>
      <trkpt lat="42.9405477829277515411376953125" lon="-1.006204895675182342529296875">
        <ele>1161.800048828125</ele>
        <time>2020-08-21T07:26:12.000Z</time>
      </trkpt>
      <trkpt lat="42.9404602758586406707763671875" lon="-1.0063286125659942626953125">
        <ele>1162.5999755859375</ele>
        <time>2020-08-21T07:26:18.000Z</time>
      </trkpt>
      <trkpt lat="42.94044560752809047698974609375" lon="-1.00634805858135223388671875">
        <ele>1162.800048828125</ele>
        <time>2020-08-21T07:26:19.000Z</time>
      </trkpt>
      <trkpt lat="42.94043160974979400634765625" lon="-1.00636976771056652069091796875">
        <ele>1162.800048828125</ele>
        <time>2020-08-21T07:26:20.000Z</time>
      </trkpt>
      <trkpt lat="42.94031652621924877166748046875" lon="-1.0064940713346004486083984375">
        <ele>1163.5999755859375</ele>
        <time>2020-08-21T07:26:27.000Z</time>
      </trkpt>
      <trkpt lat="42.940297834575176239013671875" lon="-1.00650630891323089599609375">
        <ele>1164</ele>
        <time>2020-08-21T07:26:28.000Z</time>
      </trkpt>
      <trkpt lat="42.940205968916416168212890625" lon="-1.00657579489052295684814453125">
        <ele>1164.800048828125</ele>
        <time>2020-08-21T07:26:33.000Z</time>
      </trkpt>
      <trkpt lat="42.94013782404363155364990234375" lon="-1.006638742983341217041015625">
        <ele>1165</ele>
        <time>2020-08-21T07:26:37.000Z</time>
      </trkpt>
      <trkpt lat="42.94000891037285327911376953125" lon="-1.00674376823008060455322265625">
        <ele>1166</ele>
        <time>2020-08-21T07:26:44.000Z</time>
      </trkpt>
      <trkpt lat="42.9399908892810344696044921875" lon="-1.00675701163709163665771484375">
        <ele>1166.199951171875</ele>
        <time>2020-08-21T07:26:45.000Z</time>
      </trkpt>
      <trkpt lat="42.93986373580992221832275390625" lon="-1.00685591809451580047607421875">
        <ele>1167.199951171875</ele>
        <time>2020-08-21T07:26:52.000Z</time>
      </trkpt>
      <trkpt lat="42.9398239217698574066162109375" lon="-1.0068786330521106719970703125">
        <ele>1167.4000244140625</ele>
        <time>2020-08-21T07:26:54.000Z</time>
      </trkpt>
      <trkpt lat="42.9397551901638507843017578125" lon="-1.00691710598766803741455078125">
        <ele>1168.199951171875</ele>
        <time>2020-08-21T07:26:58.000Z</time>
      </trkpt>
      <trkpt lat="42.93970146216452121734619140625" lon="-1.0069540701806545257568359375">
        <ele>1168.5999755859375</ele>
        <time>2020-08-21T07:27:01.000Z</time>
      </trkpt>
      <trkpt lat="42.93961160816252231597900390625" lon="-1.007022969424724578857421875">
        <ele>1169.199951171875</ele>
        <time>2020-08-21T07:27:06.000Z</time>
      </trkpt>
      <trkpt lat="42.9395526833832263946533203125" lon="-1.00706077180802822113037109375">
        <ele>1169.800048828125</ele>
        <time>2020-08-21T07:27:09.000Z</time>
      </trkpt>
      <trkpt lat="42.9394631646573543548583984375" lon="-1.00709647871553897857666015625">
        <ele>1170.199951171875</ele>
        <time>2020-08-21T07:27:13.000Z</time>
      </trkpt>
      <trkpt lat="42.93938797898590564727783203125" lon="-1.0071505419909954071044921875">
        <ele>1170.5999755859375</ele>
        <time>2020-08-21T07:27:17.000Z</time>
      </trkpt>
      <trkpt lat="42.93928706087172031402587890625" lon="-1.00719722919166088104248046875">
        <ele>1171.199951171875</ele>
        <time>2020-08-21T07:27:21.000Z</time>
      </trkpt>
      <trkpt lat="42.93922235257923603057861328125" lon="-1.007268726825714111328125">
        <ele>1171.4000244140625</ele>
        <time>2020-08-21T07:27:24.000Z</time>
      </trkpt>
      <trkpt lat="42.9392063431441783905029296875" lon="-1.0073714889585971832275390625">
        <ele>1172.4000244140625</ele>
        <time>2020-08-21T07:27:27.000Z</time>
      </trkpt>
      <trkpt lat="42.93921346776187419891357421875" lon="-1.0074392147362232208251953125">
        <ele>1172.800048828125</ele>
        <time>2020-08-21T07:27:29.000Z</time>
      </trkpt>
      <trkpt lat="42.93925470672547817230224609375" lon="-1.00752345286309719085693359375">
        <ele>1173.4000244140625</ele>
        <time>2020-08-21T07:27:32.000Z</time>
      </trkpt>
      <trkpt lat="42.9393018968403339385986328125" lon="-1.00755639374256134033203125">
        <ele>1173.800048828125</ele>
        <time>2020-08-21T07:27:34.000Z</time>
      </trkpt>
      <trkpt lat="42.9393969476222991943359375" lon="-1.00755178369581699371337890625">
        <ele>1174.5999755859375</ele>
        <time>2020-08-21T07:27:37.000Z</time>
      </trkpt>
      <trkpt lat="42.9394527710974216461181640625" lon="-1.00752378813922405242919921875">
        <ele>1175</ele>
        <time>2020-08-21T07:27:39.000Z</time>
      </trkpt>
      <trkpt lat="42.93955712579190731048583984375" lon="-1.0074703954160213470458984375">
        <ele>1175.5999755859375</ele>
        <time>2020-08-21T07:27:43.000Z</time>
      </trkpt>
      <trkpt lat="42.93962351046502590179443359375" lon="-1.00743569433689117431640625">
        <ele>1176</ele>
        <time>2020-08-21T07:27:46.000Z</time>
      </trkpt>
      <trkpt lat="42.93970615603029727935791015625" lon="-1.00739621557295322418212890625">
        <ele>1176.800048828125</ele>
        <time>2020-08-21T07:27:50.000Z</time>
      </trkpt>
      <trkpt lat="42.939762063324451446533203125" lon="-1.0073812119662761688232421875">
        <ele>1177.4000244140625</ele>
        <time>2020-08-21T07:27:53.000Z</time>
      </trkpt>
      <trkpt lat="42.93982551433145999908447265625" lon="-1.0073693096637725830078125">
        <ele>1177.800048828125</ele>
        <time>2020-08-21T07:27:56.000Z</time>
      </trkpt>
      <trkpt lat="42.93991587124764919281005859375" lon="-1.0073443315923213958740234375">
        <ele>1178.4000244140625</ele>
        <time>2020-08-21T07:28:00.000Z</time>
      </trkpt>
      <trkpt lat="42.94000455178320407867431640625" lon="-1.0073044337332248687744140625">
        <ele>1178.800048828125</ele>
        <time>2020-08-21T07:28:04.000Z</time>
      </trkpt>
      <trkpt lat="42.940051071345806121826171875" lon="-1.007280461490154266357421875">
        <ele>1179.4000244140625</ele>
        <time>2020-08-21T07:28:06.000Z</time>
      </trkpt>
      <trkpt lat="42.94016447849571704864501953125" lon="-1.00723193027079105377197265625">
        <ele>1179.800048828125</ele>
        <time>2020-08-21T07:28:11.000Z</time>
      </trkpt>
      <trkpt lat="42.940241508185863494873046875" lon="-1.00716738961637020111083984375">
        <ele>1180.800048828125</ele>
        <time>2020-08-21T07:28:15.000Z</time>
      </trkpt>
      <trkpt lat="42.940261624753475189208984375" lon="-1.00715112872421741485595703125">
        <ele>1181</ele>
        <time>2020-08-21T07:28:16.000Z</time>
      </trkpt>
      <trkpt lat="42.9403995908796787261962890625" lon="-1.0070445947349071502685546875">
        <ele>1182.199951171875</ele>
        <time>2020-08-21T07:28:23.000Z</time>
      </trkpt>
      <trkpt lat="42.94041845016181468963623046875" lon="-1.00703093223273754119873046875">
        <ele>1182.199951171875</ele>
        <time>2020-08-21T07:28:24.000Z</time>
      </trkpt>
      <trkpt lat="42.940534539520740509033203125" lon="-1.0069443471729755401611328125">
        <ele>1183.199951171875</ele>
        <time>2020-08-21T07:28:30.000Z</time>
      </trkpt>
      <trkpt lat="42.9405729286372661590576171875" lon="-1.00691668689250946044921875">
        <ele>1183.800048828125</ele>
        <time>2020-08-21T07:28:32.000Z</time>
      </trkpt>
      <trkpt lat="42.94064140878617763519287109375" lon="-1.006898917257785797119140625">
        <ele>1184.199951171875</ele>
        <time>2020-08-21T07:28:35.000Z</time>
      </trkpt>
      <trkpt lat="42.94073025695979595184326171875" lon="-1.006860695779323577880859375">
        <ele>1184.800048828125</ele>
        <time>2020-08-21T07:28:39.000Z</time>
      </trkpt>
      <trkpt lat="42.9407730884850025177001953125" lon="-1.00684803910553455352783203125">
        <ele>1185.199951171875</ele>
        <time>2020-08-21T07:28:41.000Z</time>
      </trkpt>
      <trkpt lat="42.94085112400352954864501953125" lon="-1.006828509271144866943359375">
        <ele>1186</ele>
        <time>2020-08-21T07:28:45.000Z</time>
      </trkpt>
      <trkpt lat="42.94087258167564868927001953125" lon="-1.00682741962373256683349609375">
        <ele>1186.4000244140625</ele>
        <time>2020-08-21T07:28:46.000Z</time>
      </trkpt>
      <trkpt lat="42.940998561680316925048828125" lon="-1.00679422728717327117919921875">
        <ele>1187.5999755859375</ele>
        <time>2020-08-21T07:28:52.000Z</time>
      </trkpt>
      <trkpt lat="42.94107575900852680206298828125" lon="-1.00678215734660625457763671875">
        <ele>1188.5999755859375</ele>
        <time>2020-08-21T07:28:56.000Z</time>
      </trkpt>
      <trkpt lat="42.94112185947597026824951171875" lon="-1.00678752176463603973388671875">
        <ele>1188.800048828125</ele>
        <time>2020-08-21T07:28:58.000Z</time>
      </trkpt>
      <trkpt lat="42.9412235319614410400390625" lon="-1.006776876747608184814453125">
        <ele>1189.5999755859375</ele>
        <time>2020-08-21T07:29:03.000Z</time>
      </trkpt>
      <trkpt lat="42.94125982560217380523681640625" lon="-1.006766818463802337646484375">
        <ele>1189.800048828125</ele>
        <time>2020-08-21T07:29:05.000Z</time>
      </trkpt>
      <trkpt lat="42.94134917668998241424560546875" lon="-1.00674100220203399658203125">
        <ele>1190.800048828125</ele>
        <time>2020-08-21T07:29:10.000Z</time>
      </trkpt>
      <trkpt lat="42.9413866437971591949462890625" lon="-1.00673672743141651153564453125">
        <ele>1191</ele>
        <time>2020-08-21T07:29:12.000Z</time>
      </trkpt>
      <trkpt lat="42.9414422996342182159423828125" lon="-1.00673655979335308074951171875">
        <ele>1191.800048828125</ele>
        <time>2020-08-21T07:29:15.000Z</time>
      </trkpt>
      <trkpt lat="42.9415502585470676422119140625" lon="-1.00675038993358612060546875">
        <ele>1192.800048828125</ele>
        <time>2020-08-21T07:29:21.000Z</time>
      </trkpt>
      <trkpt lat="42.94156677089631557464599609375" lon="-1.0067549161612987518310546875">
        <ele>1193.199951171875</ele>
        <time>2020-08-21T07:29:22.000Z</time>
      </trkpt>
      <trkpt lat="42.9416419565677642822265625" lon="-1.0067626275122165679931640625">
        <ele>1194</ele>
        <time>2020-08-21T07:29:26.000Z</time>
      </trkpt>
      <trkpt lat="42.9417329840362071990966796875" lon="-1.00676924921572208404541015625">
        <ele>1194.800048828125</ele>
        <time>2020-08-21T07:29:31.000Z</time>
      </trkpt>
      <trkpt lat="42.94175125658512115478515625" lon="-1.00676975212991237640380859375">
        <ele>1195.199951171875</ele>
        <time>2020-08-21T07:29:32.000Z</time>
      </trkpt>
      <trkpt lat="42.9418486542999744415283203125" lon="-1.00677377544343471527099609375">
        <ele>1196.199951171875</ele>
        <time>2020-08-21T07:29:37.000Z</time>
      </trkpt>
      <trkpt lat="42.94192518107593059539794921875" lon="-1.00677360780537128448486328125">
        <ele>1196.800048828125</ele>
        <time>2020-08-21T07:29:41.000Z</time>
      </trkpt>
      <trkpt lat="42.941962815821170806884765625" lon="-1.00676740519702434539794921875">
        <ele>1197.199951171875</ele>
        <time>2020-08-21T07:29:43.000Z</time>
      </trkpt>
      <trkpt lat="42.9421386681497097015380859375" lon="-1.00675986148416996002197265625">
        <ele>1198.4000244140625</ele>
        <time>2020-08-21T07:29:52.000Z</time>
      </trkpt>
      <trkpt lat="42.94215920381247997283935546875" lon="-1.0067572630941867828369140625">
        <ele>1198.5999755859375</ele>
        <time>2020-08-21T07:29:53.000Z</time>
      </trkpt>
      <trkpt lat="42.94227370060980319976806640625" lon="-1.00673002190887928009033203125">
        <ele>1199.4000244140625</ele>
        <time>2020-08-21T07:29:59.000Z</time>
      </trkpt>
      <trkpt lat="42.94235341250896453857421875" lon="-1.00670479238033294677734375">
        <ele>1200.199951171875</ele>
        <time>2020-08-21T07:30:03.000Z</time>
      </trkpt>
      <trkpt lat="42.9423894546926021575927734375" lon="-1.00668333470821380615234375">
        <ele>1200.4000244140625</ele>
        <time>2020-08-21T07:30:05.000Z</time>
      </trkpt>
      <trkpt lat="42.9425054602324962615966796875" lon="-1.0066325403749942779541015625">
        <ele>1201.199951171875</ele>
        <time>2020-08-21T07:30:11.000Z</time>
      </trkpt>
      <trkpt lat="42.94254326261579990386962890625" lon="-1.006623990833759307861328125">
        <ele>1201.5999755859375</ele>
        <time>2020-08-21T07:30:13.000Z</time>
      </trkpt>
      <trkpt lat="42.94262037612497806549072265625" lon="-1.00659792311489582061767578125">
        <ele>1202.4000244140625</ele>
        <time>2020-08-21T07:30:17.000Z</time>
      </trkpt>
      <trkpt lat="42.94269698671996593475341796875" lon="-1.00658618845045566558837890625">
        <ele>1203</ele>
        <time>2020-08-21T07:30:21.000Z</time>
      </trkpt>
      <trkpt lat="42.94275331310927867889404296875" lon="-1.00657512433826923370361328125">
        <ele>1203.4000244140625</ele>
        <time>2020-08-21T07:30:24.000Z</time>
      </trkpt>
      <trkpt lat="42.94282925315201282501220703125" lon="-1.0065738670527935028076171875">
        <ele>1204.4000244140625</ele>
        <time>2020-08-21T07:30:28.000Z</time>
      </trkpt>
      <trkpt lat="42.94284618459641933441162109375" lon="-1.006574369966983795166015625">
        <ele>1204.4000244140625</ele>
        <time>2020-08-21T07:30:29.000Z</time>
      </trkpt>
      <trkpt lat="42.94294618070125579833984375" lon="-1.00658618845045566558837890625">
        <ele>1205.5999755859375</ele>
        <time>2020-08-21T07:30:35.000Z</time>
      </trkpt>
      <trkpt lat="42.94305388815701007843017578125" lon="-1.00660513155162334442138671875">
        <ele>1206.800048828125</ele>
        <time>2020-08-21T07:30:41.000Z</time>
      </trkpt>
      <trkpt lat="42.9430710710585117340087890625" lon="-1.006615273654460906982421875">
        <ele>1207</ele>
        <time>2020-08-21T07:30:42.000Z</time>
      </trkpt>
      <trkpt lat="42.943156398832798004150390625" lon="-1.00665441714227199554443359375">
        <ele>1207.800048828125</ele>
        <time>2020-08-21T07:30:47.000Z</time>
      </trkpt>
      <trkpt lat="42.9432048462331295013427734375" lon="-1.00668601691722869873046875">
        <ele>1208.199951171875</ele>
        <time>2020-08-21T07:30:50.000Z</time>
      </trkpt>
      <trkpt lat="42.9432527907192707061767578125" lon="-1.0067177005112171173095703125">
        <ele>1208.800048828125</ele>
        <time>2020-08-21T07:30:53.000Z</time>
      </trkpt>
      <trkpt lat="42.94326880015432834625244140625" lon="-1.0067257471382617950439453125">
        <ele>1208.800048828125</ele>
        <time>2020-08-21T07:30:54.000Z</time>
      </trkpt>
      <trkpt lat="42.94329411350190639495849609375" lon="-1.00675449706614017486572265625">
        <ele>1209.4000244140625</ele>
        <time>2020-08-21T07:34:41.000Z</time>
      </trkpt>
      <trkpt lat="42.9432941973209381103515625" lon="-1.0067545808851718902587890625">
        <ele>1209.4000244140625</ele>
        <time>2020-08-21T07:34:42.000Z</time>
      </trkpt>
      <trkpt lat="42.9433060996234416961669921875" lon="-1.00675575435161590576171875">
        <ele>1209.4000244140625</ele>
        <time>2020-08-21T07:34:44.000Z</time>
      </trkpt>
      <trkpt lat="42.943343482911586761474609375" lon="-1.0067783854901790618896484375">
        <ele>1209.5999755859375</ele>
        <time>2020-08-21T07:34:47.000Z</time>
      </trkpt>
      <trkpt lat="42.94348262250423431396484375" lon="-1.0068937204778194427490234375">
        <ele>1210.199951171875</ele>
        <time>2020-08-21T07:34:56.000Z</time>
      </trkpt>
      <trkpt lat="42.94354942627251148223876953125" lon="-1.00694191642105579376220703125">
        <ele>1210.800048828125</ele>
        <time>2020-08-21T07:35:00.000Z</time>
      </trkpt>
      <trkpt lat="42.94363626278936862945556640625" lon="-1.007001511752605438232421875">
        <ele>1211.199951171875</ele>
        <time>2020-08-21T07:35:05.000Z</time>
      </trkpt>
      <trkpt lat="42.943723686039447784423828125" lon="-1.00705389864742755889892578125">
        <ele>1211.5999755859375</ele>
        <time>2020-08-21T07:35:10.000Z</time>
      </trkpt>
      <trkpt lat="42.94374070130288600921630859375" lon="-1.007070243358612060546875">
        <ele>1211.800048828125</ele>
        <time>2020-08-21T07:35:11.000Z</time>
      </trkpt>
      <trkpt lat="42.94381295330822467803955078125" lon="-1.00712330080568790435791015625">
        <ele>1212.5999755859375</ele>
        <time>2020-08-21T07:35:15.000Z</time>
      </trkpt>
      <trkpt lat="42.94389040209352970123291015625" lon="-1.00715138018131256103515625">
        <ele>1212.800048828125</ele>
        <time>2020-08-21T07:35:19.000Z</time>
      </trkpt>
      <trkpt lat="42.9440291225910186767578125" lon="-1.0072056949138641357421875">
        <ele>1213.5999755859375</ele>
        <time>2020-08-21T07:35:26.000Z</time>
      </trkpt>
      <trkpt lat="42.94411017559468746185302734375" lon="-1.00722874514758586883544921875">
        <ele>1214.199951171875</ele>
        <time>2020-08-21T07:35:30.000Z</time>
      </trkpt>
      <trkpt lat="42.944173626601696014404296875" lon="-1.00724115036427974700927734375">
        <ele>1214.800048828125</ele>
        <time>2020-08-21T07:35:33.000Z</time>
      </trkpt>
      <trkpt lat="42.94433766044676303863525390625" lon="-1.00728993304073810577392578125">
        <ele>1215.800048828125</ele>
        <time>2020-08-21T07:35:41.000Z</time>
      </trkpt>
      <trkpt lat="42.944478057324886322021484375" lon="-1.00733377039432525634765625">
        <ele>1217</ele>
        <time>2020-08-21T07:35:48.000Z</time>
      </trkpt>
      <trkpt lat="42.94451904483139514923095703125" lon="-1.0073436610400676727294921875">
        <ele>1217.199951171875</ele>
        <time>2020-08-21T07:35:50.000Z</time>
      </trkpt>
      <trkpt lat="42.944641001522541046142578125" lon="-1.007378362119197845458984375">
        <ele>1217.800048828125</ele>
        <time>2020-08-21T07:35:56.000Z</time>
      </trkpt>
      <trkpt lat="42.9446622915565967559814453125" lon="-1.0073842294514179229736328125">
        <ele>1218</ele>
        <time>2020-08-21T07:35:57.000Z</time>
      </trkpt>
      <trkpt lat="42.944803945720195770263671875" lon="-1.0074284859001636505126953125">
        <ele>1219</ele>
        <time>2020-08-21T07:36:04.000Z</time>
      </trkpt>
      <trkpt lat="42.94484510086476802825927734375" lon="-1.0074402205646038055419921875">
        <ele>1219.4000244140625</ele>
        <time>2020-08-21T07:36:06.000Z</time>
      </trkpt>
      <trkpt lat="42.944944761693477630615234375" lon="-1.00748070515692234039306640625">
        <ele>1220.199951171875</ele>
        <time>2020-08-21T07:36:11.000Z</time>
      </trkpt>
      <trkpt lat="42.9449834860861301422119140625" lon="-1.00749679841101169586181640625">
        <ele>1220.4000244140625</ele>
        <time>2020-08-21T07:36:13.000Z</time>
      </trkpt>
      <trkpt lat="42.94508432038128376007080078125" lon="-1.007523201406002044677734375">
        <ele>1221.199951171875</ele>
        <time>2020-08-21T07:36:18.000Z</time>
      </trkpt>
      <trkpt lat="42.9451454244554042816162109375" lon="-1.007543317973613739013671875">
        <ele>1221.800048828125</ele>
        <time>2020-08-21T07:36:21.000Z</time>
      </trkpt>
      <trkpt lat="42.94522731564939022064208984375" lon="-1.00757173262536525726318359375">
        <ele>1222</ele>
        <time>2020-08-21T07:36:25.000Z</time>
      </trkpt>
      <trkpt lat="42.945393025875091552734375" lon="-1.00762001238763332366943359375">
        <ele>1223.199951171875</ele>
        <time>2020-08-21T07:36:33.000Z</time>
      </trkpt>
      <trkpt lat="42.945413477718830108642578125" lon="-1.007626466453075408935546875">
        <ele>1223.199951171875</ele>
        <time>2020-08-21T07:36:34.000Z</time>
      </trkpt>
      <trkpt lat="42.94549553655087947845458984375" lon="-1.00765219889581203460693359375">
        <ele>1224</ele>
        <time>2020-08-21T07:36:38.000Z</time>
      </trkpt>
      <trkpt lat="42.945534847676753997802734375" lon="-1.0076643526554107666015625">
        <ele>1224.199951171875</ele>
        <time>2020-08-21T07:36:40.000Z</time>
      </trkpt>
      <trkpt lat="42.9456124641001224517822265625" lon="-1.00768983364105224609375">
        <ele>1224.800048828125</ele>
        <time>2020-08-21T07:36:44.000Z</time>
      </trkpt>
      <trkpt lat="42.94565194286406040191650390625" lon="-1.0077024064958095550537109375">
        <ele>1225.199951171875</ele>
        <time>2020-08-21T07:36:46.000Z</time>
      </trkpt>
      <trkpt lat="42.94576996006071567535400390625" lon="-1.00774825550615787506103515625">
        <ele>1226.4000244140625</ele>
        <time>2020-08-21T07:36:52.000Z</time>
      </trkpt>
      <trkpt lat="42.9459202475845813751220703125" lon="-1.00783257745206356048583984375">
        <ele>1227.199951171875</ele>
        <time>2020-08-21T07:37:00.000Z</time>
      </trkpt>
      <trkpt lat="42.94593877159059047698974609375" lon="-1.0078413784503936767578125">
        <ele>1227.4000244140625</ele>
        <time>2020-08-21T07:37:01.000Z</time>
      </trkpt>
      <trkpt lat="42.94602208770811557769775390625" lon="-1.00791136734187602996826171875">
        <ele>1228.4000244140625</ele>
        <time>2020-08-21T07:37:06.000Z</time>
      </trkpt>
      <trkpt lat="42.94605175964534282684326171875" lon="-1.00795143283903598785400390625">
        <ele>1228.800048828125</ele>
        <time>2020-08-21T07:37:08.000Z</time>
      </trkpt>
      <trkpt lat="42.94612568803131580352783203125" lon="-1.00804631598293781280517578125">
        <ele>1229.5999755859375</ele>
        <time>2020-08-21T07:37:13.000Z</time>
      </trkpt>
      <trkpt lat="42.94616273604333400726318359375" lon="-1.00810918025672435760498046875">
        <ele>1230</ele>
        <time>2020-08-21T07:37:16.000Z</time>
      </trkpt>
      <trkpt lat="42.94618017040193080902099609375" lon="-1.00815947167575359344482421875">
        <ele>1230.4000244140625</ele>
        <time>2020-08-21T07:37:18.000Z</time>
      </trkpt>
      <trkpt lat="42.9462119378149509429931640625" lon="-1.00825569592416286468505859375">
        <ele>1231.199951171875</ele>
        <time>2020-08-21T07:37:22.000Z</time>
      </trkpt>
      <trkpt lat="42.9462183080613613128662109375" lon="-1.00828067399561405181884765625">
        <ele>1231.4000244140625</ele>
        <time>2020-08-21T07:37:23.000Z</time>
      </trkpt>
      <trkpt lat="42.9462526738643646240234375" lon="-1.008432805538177490234375">
        <ele>1232.4000244140625</ele>
        <time>2020-08-21T07:37:29.000Z</time>
      </trkpt>
      <trkpt lat="42.94625845737755298614501953125" lon="-1.00845786742866039276123046875">
        <ele>1233</ele>
        <time>2020-08-21T07:37:30.000Z</time>
      </trkpt>
      <trkpt lat="42.94628075323998928070068359375" lon="-1.00857605226337909698486328125">
        <ele>1233.5999755859375</ele>
        <time>2020-08-21T07:37:34.000Z</time>
      </trkpt>
      <trkpt lat="42.94629198499023914337158203125" lon="-1.00866422988474369049072265625">
        <ele>1233.800048828125</ele>
        <time>2020-08-21T07:37:37.000Z</time>
      </trkpt>
      <trkpt lat="42.9463014565408229827880859375" lon="-1.00881158374249935150146484375">
        <ele>1234.4000244140625</ele>
        <time>2020-08-21T07:37:42.000Z</time>
      </trkpt>
      <trkpt lat="42.946308664977550506591796875" lon="-1.0089328698813915252685546875">
        <ele>1234.800048828125</ele>
        <time>2020-08-21T07:37:46.000Z</time>
      </trkpt>
      <trkpt lat="42.94632308185100555419921875" lon="-1.0091437585651874542236328125">
        <ele>1235.800048828125</ele>
        <time>2020-08-21T07:37:53.000Z</time>
      </trkpt>
      <trkpt lat="42.94632710516452789306640625" lon="-1.009173095226287841796875">
        <ele>1236</ele>
        <time>2020-08-21T07:37:54.000Z</time>
      </trkpt>
      <trkpt lat="42.9463597945868968963623046875" lon="-1.0093033500015735626220703125">
        <ele>1236.800048828125</ele>
        <time>2020-08-21T07:37:59.000Z</time>
      </trkpt>
      <trkpt lat="42.94638033024966716766357421875" lon="-1.00934500806033611297607421875">
        <ele>1237.199951171875</ele>
        <time>2020-08-21T07:38:01.000Z</time>
      </trkpt>
      <trkpt lat="42.94640514068305492401123046875" lon="-1.009381301701068878173828125">
        <ele>1238</ele>
        <time>2020-08-21T07:38:03.000Z</time>
      </trkpt>
      <trkpt lat="42.94648024253547191619873046875" lon="-1.0094632767140865325927734375">
        <ele>1239.199951171875</ele>
        <time>2020-08-21T07:38:08.000Z</time>
      </trkpt>
      <trkpt lat="42.9464962519705295562744140625" lon="-1.00947685539722442626953125">
        <ele>1239.199951171875</ele>
        <time>2020-08-21T07:38:09.000Z</time>
      </trkpt>
      <trkpt lat="42.9466065578162670135498046875" lon="-1.009537540376186370849609375">
        <ele>1240.199951171875</ele>
        <time>2020-08-21T07:38:15.000Z</time>
      </trkpt>
      <trkpt lat="42.94666615314781665802001953125" lon="-1.0095454193651676177978515625">
        <ele>1240.800048828125</ele>
        <time>2020-08-21T07:38:18.000Z</time>
      </trkpt>
      <trkpt lat="42.94676573015749454498291015625" lon="-1.00953645072877407073974609375">
        <ele>1241.4000244140625</ele>
        <time>2020-08-21T07:38:23.000Z</time>
      </trkpt>
      <trkpt lat="42.94682867825031280517578125" lon="-1.0095249675214290618896484375">
        <ele>1241.4000244140625</ele>
        <time>2020-08-21T07:38:26.000Z</time>
      </trkpt>
      <trkpt lat="42.946953736245632171630859375" lon="-1.0095078684389591217041015625">
        <ele>1242.199951171875</ele>
        <time>2020-08-21T07:38:32.000Z</time>
      </trkpt>
      <trkpt lat="42.9470440931618213653564453125" lon="-1.00948163308203220367431640625">
        <ele>1242.4000244140625</ele>
        <time>2020-08-21T07:38:36.000Z</time>
      </trkpt>
      <trkpt lat="42.94717677868902683258056640625" lon="-1.0094294138252735137939453125">
        <ele>1243.4000244140625</ele>
        <time>2020-08-21T07:38:42.000Z</time>
      </trkpt>
      <trkpt lat="42.94734634459018707275390625" lon="-1.0093301720917224884033203125">
        <ele>1244.199951171875</ele>
        <time>2020-08-21T07:38:50.000Z</time>
      </trkpt>
      <trkpt lat="42.9473642818629741668701171875" lon="-1.00931751541793346405029296875">
        <ele>1244.4000244140625</ele>
        <time>2020-08-21T07:38:51.000Z</time>
      </trkpt>
      <trkpt lat="42.94746343977749347686767578125" lon="-1.0092624463140964508056640625">
        <ele>1245.199951171875</ele>
        <time>2020-08-21T07:38:56.000Z</time>
      </trkpt>
      <trkpt lat="42.94758237898349761962890625" lon="-1.0091977380216121673583984375">
        <ele>1246.4000244140625</ele>
        <time>2020-08-21T07:39:03.000Z</time>
      </trkpt>
      <trkpt lat="42.94765672646462917327880859375" lon="-1.00914694368839263916015625">
        <ele>1247.199951171875</ele>
        <time>2020-08-21T07:39:08.000Z</time>
      </trkpt>
      <trkpt lat="42.94767231680452823638916015625" lon="-1.00913696922361850738525390625">
        <ele>1247.199951171875</ele>
        <time>2020-08-21T07:39:09.000Z</time>
      </trkpt>
      <trkpt lat="42.94770014472305774688720703125" lon="-1.009109057486057281494140625">
        <ele>1247.4000244140625</ele>
        <time>2020-08-21T07:39:11.000Z</time>
      </trkpt>
      <trkpt lat="42.94771137647330760955810546875" lon="-1.0090993344783782958984375">
        <ele>1247.4000244140625</ele>
        <time>2020-08-21T07:39:12.000Z</time>
      </trkpt>
      <trkpt lat="42.94772361405193805694580078125" lon="-1.0090850852429866790771484375">
        <ele>1247.5999755859375</ele>
        <time>2020-08-21T07:39:13.000Z</time>
      </trkpt>
      <trkpt lat="42.94777709059417247772216796875" lon="-1.00904275663197040557861328125">
        <ele>1248</ele>
        <time>2020-08-21T07:39:16.000Z</time>
      </trkpt>
      <trkpt lat="42.9478145577013492584228515625" lon="-1.009011827409267425537109375">
        <ele>1248.199951171875</ele>
        <time>2020-08-21T07:39:18.000Z</time>
      </trkpt>
      <trkpt lat="42.9478313215076923370361328125" lon="-1.0090019367635250091552734375">
        <ele>1248.4000244140625</ele>
        <time>2020-08-21T07:39:19.000Z</time>
      </trkpt>
      <trkpt lat="42.94789376668632030487060546875" lon="-1.00896715186536312103271484375">
        <ele>1249</ele>
        <time>2020-08-21T07:39:22.000Z</time>
      </trkpt>
      <trkpt lat="42.94795663096010684967041015625" lon="-1.00892876274883747100830078125">
        <ele>1249.4000244140625</ele>
        <time>2020-08-21T07:39:25.000Z</time>
      </trkpt>
      <trkpt lat="42.94802838005125522613525390625" lon="-1.00889707915484905242919921875">
        <ele>1249.800048828125</ele>
        <time>2020-08-21T07:39:28.000Z</time>
      </trkpt>
      <trkpt lat="42.948112450540065765380859375" lon="-1.0088671557605266571044921875">
        <ele>1250</ele>
        <time>2020-08-21T07:39:32.000Z</time>
      </trkpt>
      <trkpt lat="42.94815813191235065460205078125" lon="-1.008848883211612701416015625">
        <ele>1250.199951171875</ele>
        <time>2020-08-21T07:39:34.000Z</time>
      </trkpt>
      <trkpt lat="42.94828754849731922149658203125" lon="-1.00880471058189868927001953125">
        <ele>1251.199951171875</ele>
        <time>2020-08-21T07:39:40.000Z</time>
      </trkpt>
      <trkpt lat="42.94830766506493091583251953125" lon="-1.00879884324967861175537109375">
        <ele>1251.4000244140625</ele>
        <time>2020-08-21T07:39:41.000Z</time>
      </trkpt>
      <trkpt lat="42.9484257660806179046630859375" lon="-1.00877168588340282440185546875">
        <ele>1252</ele>
        <time>2020-08-21T07:39:47.000Z</time>
      </trkpt>
      <trkpt lat="42.94847295619547367095947265625" lon="-1.00876615382730960845947265625">
        <ele>1252.4000244140625</ele>
        <time>2020-08-21T07:39:49.000Z</time>
      </trkpt>
      <trkpt lat="42.94858275912702083587646484375" lon="-1.0087426006793975830078125">
        <ele>1253.4000244140625</ele>
        <time>2020-08-21T07:39:54.000Z</time>
      </trkpt>
      <trkpt lat="42.94868082739412784576416015625" lon="-1.00873229093849658966064453125">
        <ele>1254</ele>
        <time>2020-08-21T07:39:59.000Z</time>
      </trkpt>
      <trkpt lat="42.9487281851470470428466796875" lon="-1.00873120129108428955078125">
        <ele>1254.4000244140625</ele>
        <time>2020-08-21T07:40:01.000Z</time>
      </trkpt>
      <trkpt lat="42.9488911293447017669677734375" lon="-1.008755676448345184326171875">
        <ele>1255.199951171875</ele>
        <time>2020-08-21T07:40:08.000Z</time>
      </trkpt>
      <trkpt lat="42.94906220398843288421630859375" lon="-1.00880387239158153533935546875">
        <ele>1256.199951171875</ele>
        <time>2020-08-21T07:40:15.000Z</time>
      </trkpt>
      <trkpt lat="42.94908751733601093292236328125" lon="-1.0088114999234676361083984375">
        <ele>1256.199951171875</ele>
        <time>2020-08-21T07:40:16.000Z</time>
      </trkpt>
      <trkpt lat="42.94922615401446819305419921875" lon="-1.00887092761695384979248046875">
        <ele>1256.800048828125</ele>
        <time>2020-08-21T07:40:22.000Z</time>
      </trkpt>
      <trkpt lat="42.94924694113433361053466796875" lon="-1.008884422481060028076171875">
        <ele>1257</ele>
        <time>2020-08-21T07:40:23.000Z</time>
      </trkpt>
      <trkpt lat="42.949349619448184967041015625" lon="-1.0089932195842266082763671875">
        <ele>1257.800048828125</ele>
        <time>2020-08-21T07:40:29.000Z</time>
      </trkpt>
      <trkpt lat="42.9493829794228076934814453125" lon="-1.009036637842655181884765625">
        <ele>1258</ele>
        <time>2020-08-21T07:40:31.000Z</time>
      </trkpt>
      <trkpt lat="42.94944458641111850738525390625" lon="-1.00912741385400295257568359375">
        <ele>1258.800048828125</ele>
        <time>2020-08-21T07:40:35.000Z</time>
      </trkpt>
      <trkpt lat="42.94946067966520786285400390625" lon="-1.0091476142406463623046875">
        <ele>1259</ele>
        <time>2020-08-21T07:40:36.000Z</time>
      </trkpt>
      <trkpt lat="42.94955405406653881072998046875" lon="-1.00927409715950489044189453125">
        <ele>1260.199951171875</ele>
        <time>2020-08-21T07:40:42.000Z</time>
      </trkpt>
      <trkpt lat="42.9495841450989246368408203125" lon="-1.0093191079795360565185546875">
        <ele>1260.4000244140625</ele>
        <time>2020-08-21T07:40:44.000Z</time>
      </trkpt>
      <trkpt lat="42.94966042041778564453125" lon="-1.00944860838353633880615234375">
        <ele>1261.199951171875</ele>
        <time>2020-08-21T07:40:50.000Z</time>
      </trkpt>
      <trkpt lat="42.9496719874441623687744140625" lon="-1.00947358645498752593994140625">
        <ele>1261.4000244140625</ele>
        <time>2020-08-21T07:40:51.000Z</time>
      </trkpt>
      <trkpt lat="42.94971146620810031890869140625" lon="-1.0095434077084064483642578125">
        <ele>1262.4000244140625</ele>
        <time>2020-08-21T07:40:54.000Z</time>
      </trkpt>
      <trkpt lat="42.94976192526519298553466796875" lon="-1.009640134871006011962890625">
        <ele>1262.4000244140625</ele>
        <time>2020-08-21T07:40:58.000Z</time>
      </trkpt>
      <trkpt lat="42.949869297444820404052734375" lon="-1.0098260454833507537841796875">
        <ele>1263.199951171875</ele>
        <time>2020-08-21T07:41:06.000Z</time>
      </trkpt>
      <trkpt lat="42.9498832114040851593017578125" lon="-1.0098508559167385101318359375">
        <ele>1263.4000244140625</ele>
        <time>2020-08-21T07:41:07.000Z</time>
      </trkpt>
      <trkpt lat="42.94992671348154544830322265625" lon="-1.00994414649903774261474609375">
        <ele>1264.199951171875</ele>
        <time>2020-08-21T07:41:11.000Z</time>
      </trkpt>
      <trkpt lat="42.94994515366852283477783203125" lon="-1.0099876485764980316162109375">
        <ele>1264.5999755859375</ele>
        <time>2020-08-21T07:41:13.000Z</time>
      </trkpt>
      <trkpt lat="42.95000600628554821014404296875" lon="-1.0100959427654743194580078125">
        <ele>1265</ele>
        <time>2020-08-21T07:41:18.000Z</time>
      </trkpt>
      <trkpt lat="42.9500163160264492034912109375" lon="-1.0101234354078769683837890625">
        <ele>1265.199951171875</ele>
        <time>2020-08-21T07:41:19.000Z</time>
      </trkpt>
      <trkpt lat="42.950061745941638946533203125" lon="-1.010230891406536102294921875">
        <ele>1266</ele>
        <time>2020-08-21T07:41:23.000Z</time>
      </trkpt>
      <trkpt lat="42.95006744563579559326171875" lon="-1.01026467047631740570068359375">
        <ele>1266.199951171875</ele>
        <time>2020-08-21T07:41:24.000Z</time>
      </trkpt>
      <trkpt lat="42.95011379756033420562744140625" lon="-1.01044437848031520843505859375">
        <ele>1266.800048828125</ele>
        <time>2020-08-21T07:41:30.000Z</time>
      </trkpt>
      <trkpt lat="42.950132153928279876708984375" lon="-1.01053792051970958709716796875">
        <ele>1267.199951171875</ele>
        <time>2020-08-21T07:41:33.000Z</time>
      </trkpt>
      <trkpt lat="42.95016643591225147247314453125" lon="-1.0106779821217060089111328125">
        <ele>1268.199951171875</ele>
        <time>2020-08-21T07:41:38.000Z</time>
      </trkpt>
      <trkpt lat="42.95017900876700878143310546875" lon="-1.010734140872955322265625">
        <ele>1268.5999755859375</ele>
        <time>2020-08-21T07:41:40.000Z</time>
      </trkpt>
      <trkpt lat="42.95021136291325092315673828125" lon="-1.01083413697779178619384765625">
        <ele>1269.199951171875</ele>
        <time>2020-08-21T07:41:44.000Z</time>
      </trkpt>
      <trkpt lat="42.95024271123111248016357421875" lon="-1.01093036122620105743408203125">
        <ele>1269.800048828125</ele>
        <time>2020-08-21T07:41:48.000Z</time>
      </trkpt>
      <trkpt lat="42.95026056468486785888671875" lon="-1.01097394712269306182861328125">
        <ele>1270.199951171875</ele>
        <time>2020-08-21T07:41:50.000Z</time>
      </trkpt>
      <trkpt lat="42.9502771608531475067138671875" lon="-1.011048965156078338623046875">
        <ele>1270.5999755859375</ele>
        <time>2020-08-21T07:41:53.000Z</time>
      </trkpt>
      <trkpt lat="42.9502992890775203704833984375" lon="-1.01112096570432186126708984375">
        <ele>1271.199951171875</ele>
        <time>2020-08-21T07:41:56.000Z</time>
      </trkpt>
      <trkpt lat="42.95033239759504795074462890625" lon="-1.011191122233867645263671875">
        <ele>1271.5999755859375</ele>
        <time>2020-08-21T07:41:59.000Z</time>
      </trkpt>
      <trkpt lat="42.95038738287985324859619140625" lon="-1.0113106481730937957763671875">
        <ele>1272.4000244140625</ele>
        <time>2020-08-21T07:42:04.000Z</time>
      </trkpt>
      <trkpt lat="42.95043214224278926849365234375" lon="-1.01136554963886737823486328125">
        <ele>1272.4000244140625</ele>
        <time>2020-08-21T07:42:07.000Z</time>
      </trkpt>
      <trkpt lat="42.9504454694688320159912109375" lon="-1.0113874264061450958251953125">
        <ele>1272.5999755859375</ele>
        <time>2020-08-21T07:42:08.000Z</time>
      </trkpt>
      <trkpt lat="42.950492911040782928466796875" lon="-1.01148239336907863616943359375">
        <ele>1273</ele>
        <time>2020-08-21T07:42:12.000Z</time>
      </trkpt>
      <trkpt lat="42.95050255022943019866943359375" lon="-1.01150703616440296173095703125">
        <ele>1273.199951171875</ele>
        <time>2020-08-21T07:42:13.000Z</time>
      </trkpt>
      <trkpt lat="42.950599528849124908447265625" lon="-1.0116311721503734588623046875">
        <ele>1274.199951171875</ele>
        <time>2020-08-21T07:42:19.000Z</time>
      </trkpt>
      <trkpt lat="42.95063179917633533477783203125" lon="-1.011667549610137939453125">
        <ele>1274.4000244140625</ele>
        <time>2020-08-21T07:42:21.000Z</time>
      </trkpt>
      <trkpt lat="42.95070053078234195709228515625" lon="-1.01173753850162029266357421875">
        <ele>1275.199951171875</ele>
        <time>2020-08-21T07:42:25.000Z</time>
      </trkpt>
      <trkpt lat="42.950750403106212615966796875" lon="-1.01178984157741069793701171875">
        <ele>1275.800048828125</ele>
        <time>2020-08-21T07:42:28.000Z</time>
      </trkpt>
      <trkpt lat="42.95083581469953060150146484375" lon="-1.0118688829243183135986328125">
        <ele>1276.199951171875</ele>
        <time>2020-08-21T07:42:33.000Z</time>
      </trkpt>
      <trkpt lat="42.9508866928517818450927734375" lon="-1.0119168274104595184326171875">
        <ele>1276.800048828125</ele>
        <time>2020-08-21T07:42:36.000Z</time>
      </trkpt>
      <trkpt lat="42.95093488879501819610595703125" lon="-1.0119704715907573699951171875">
        <ele>1277.4000244140625</ele>
        <time>2020-08-21T07:42:39.000Z</time>
      </trkpt>
      <trkpt lat="42.951021976768970489501953125" lon="-1.01204850710928440093994140625">
        <ele>1278.199951171875</ele>
        <time>2020-08-21T07:42:44.000Z</time>
      </trkpt>
      <trkpt lat="42.951059527695178985595703125" lon="-1.01207331754267215728759765625">
        <ele>1278.5999755859375</ele>
        <time>2020-08-21T07:42:46.000Z</time>
      </trkpt>
      <trkpt lat="42.9511425085365772247314453125" lon="-1.0121454857289791107177734375">
        <ele>1279.5999755859375</ele>
        <time>2020-08-21T07:42:51.000Z</time>
      </trkpt>
      <trkpt lat="42.95116002671420574188232421875" lon="-1.01215797476470470428466796875">
        <ele>1279.5999755859375</ele>
        <time>2020-08-21T07:42:52.000Z</time>
      </trkpt>
      <trkpt lat="42.9512132517993450164794921875" lon="-1.0121924243867397308349609375">
        <ele>1280</ele>
        <time>2020-08-21T07:42:55.000Z</time>
      </trkpt>
      <trkpt lat="42.95127871446311473846435546875" lon="-1.0122091881930828094482421875">
        <ele>1280.199951171875</ele>
        <time>2020-08-21T07:42:58.000Z</time>
      </trkpt>
      <trkpt lat="42.95132095925509929656982421875" lon="-1.0122276283800601959228515625">
        <ele>1280.5999755859375</ele>
        <time>2020-08-21T07:43:00.000Z</time>
      </trkpt>
      <trkpt lat="42.951421625912189483642578125" lon="-1.01227984763681888580322265625">
        <ele>1281</ele>
        <time>2020-08-21T07:43:05.000Z</time>
      </trkpt>
      <trkpt lat="42.951528914272785186767578125" lon="-1.01232745684683322906494140625">
        <ele>1281.4000244140625</ele>
        <time>2020-08-21T07:43:10.000Z</time>
      </trkpt>
      <trkpt lat="42.95161306858062744140625" lon="-1.01234707050025463104248046875">
        <ele>1282.199951171875</ele>
        <time>2020-08-21T07:43:14.000Z</time>
      </trkpt>
      <trkpt lat="42.9516787827014923095703125" lon="-1.01235754787921905517578125">
        <ele>1282.5999755859375</ele>
        <time>2020-08-21T07:43:17.000Z</time>
      </trkpt>
      <trkpt lat="42.9518115520477294921875" lon="-1.01237766444683074951171875">
        <ele>1283.4000244140625</ele>
        <time>2020-08-21T07:43:23.000Z</time>
      </trkpt>
      <trkpt lat="42.9518559761345386505126953125" lon="-1.0123731382191181182861328125">
        <ele>1283.5999755859375</ele>
        <time>2020-08-21T07:43:25.000Z</time>
      </trkpt>
      <trkpt lat="42.95197072438895702362060546875" lon="-1.012380681931972503662109375">
        <ele>1284.4000244140625</ele>
        <time>2020-08-21T07:43:31.000Z</time>
      </trkpt>
      <trkpt lat="42.951990254223346710205078125" lon="-1.0123862139880657196044921875">
        <ele>1284.5999755859375</ele>
        <time>2020-08-21T07:43:32.000Z</time>
      </trkpt>
      <trkpt lat="42.95210131444036960601806640625" lon="-1.0123818553984165191650390625">
        <ele>1285.5999755859375</ele>
        <time>2020-08-21T07:43:38.000Z</time>
      </trkpt>
      <trkpt lat="42.952192090451717376708984375" lon="-1.01237137801945209503173828125">
        <ele>1286.5999755859375</ele>
        <time>2020-08-21T07:43:43.000Z</time>
      </trkpt>
      <trkpt lat="42.9522086866199970245361328125" lon="-1.0123689472675323486328125">
        <ele>1286.5999755859375</ele>
        <time>2020-08-21T07:43:44.000Z</time>
      </trkpt>
      <trkpt lat="42.95229057781398296356201171875" lon="-1.012356542050838470458984375">
        <ele>1287.5999755859375</ele>
        <time>2020-08-21T07:43:49.000Z</time>
      </trkpt>
      <trkpt lat="42.95232159085571765899658203125" lon="-1.0123469866812229156494140625">
        <ele>1287.800048828125</ele>
        <time>2020-08-21T07:43:51.000Z</time>
      </trkpt>
      <trkpt lat="42.95240490697324275970458984375" lon="-1.0123443044722080230712890625">
        <ele>1288.5999755859375</ele>
        <time>2020-08-21T07:43:56.000Z</time>
      </trkpt>
      <trkpt lat="42.95244061388075351715087890625" lon="-1.0123298875987529754638671875">
        <ele>1288.5999755859375</ele>
        <time>2020-08-21T07:43:58.000Z</time>
      </trkpt>
      <trkpt lat="42.952500879764556884765625" lon="-1.0123261995613574981689453125">
        <ele>1288.5999755859375</ele>
        <time>2020-08-21T07:44:01.000Z</time>
      </trkpt>
      <trkpt lat="42.95253750868141651153564453125" lon="-1.01231086067855358123779296875">
        <ele>1289</ele>
        <time>2020-08-21T07:44:03.000Z</time>
      </trkpt>
      <trkpt lat="42.95257422141730785369873046875" lon="-1.01230046711862087249755859375">
        <ele>1289.4000244140625</ele>
        <time>2020-08-21T07:44:05.000Z</time>
      </trkpt>
      <trkpt lat="42.95265217311680316925048828125" lon="-1.0122591443359851837158203125">
        <ele>1289.800048828125</ele>
        <time>2020-08-21T07:44:09.000Z</time>
      </trkpt>
      <trkpt lat="42.95274739153683185577392578125" lon="-1.01221731863915920257568359375">
        <ele>1290.199951171875</ele>
        <time>2020-08-21T07:44:14.000Z</time>
      </trkpt>
      <trkpt lat="42.9527846910059452056884765625" lon="-1.0122055001556873321533203125">
        <ele>1290.5999755859375</ele>
        <time>2020-08-21T07:44:16.000Z</time>
      </trkpt>
      <trkpt lat="42.9528993554413318634033203125" lon="-1.0121639259159564971923828125">
        <ele>1291.199951171875</ele>
        <time>2020-08-21T07:44:22.000Z</time>
      </trkpt>
      <trkpt lat="42.9529201425611972808837890625" lon="-1.012155711650848388671875">
        <ele>1291.4000244140625</ele>
        <time>2020-08-21T07:44:23.000Z</time>
      </trkpt>
      <trkpt lat="42.953001447021961212158203125" lon="-1.0121293924748897552490234375">
        <ele>1292.199951171875</ele>
        <time>2020-08-21T07:44:27.000Z</time>
      </trkpt>
      <trkpt lat="42.95306590385735034942626953125" lon="-1.0121196694672107696533203125">
        <ele>1292.4000244140625</ele>
        <time>2020-08-21T07:44:30.000Z</time>
      </trkpt>
      <trkpt lat="42.95318945311009883880615234375" lon="-1.01209611631929874420166015625">
        <ele>1293</ele>
        <time>2020-08-21T07:44:36.000Z</time>
      </trkpt>
      <trkpt lat="42.9532317817211151123046875" lon="-1.01209175772964954376220703125">
        <ele>1293.4000244140625</ele>
        <time>2020-08-21T07:44:38.000Z</time>
      </trkpt>
      <trkpt lat="42.953360863029956817626953125" lon="-1.0120586492121219635009765625">
        <ele>1294.199951171875</ele>
        <time>2020-08-21T07:44:44.000Z</time>
      </trkpt>
      <trkpt lat="42.9534015990793704986572265625" lon="-1.01203677244484424591064453125">
        <ele>1294.5999755859375</ele>
        <time>2020-08-21T07:44:46.000Z</time>
      </trkpt>
      <trkpt lat="42.9535055346786975860595703125" lon="-1.01201556622982025146484375">
        <ele>1295.199951171875</ele>
        <time>2020-08-21T07:44:51.000Z</time>
      </trkpt>
      <trkpt lat="42.9535467736423015594482421875" lon="-1.0120160691440105438232421875">
        <ele>1295.199951171875</ele>
        <time>2020-08-21T07:44:53.000Z</time>
      </trkpt>
      <trkpt lat="42.95368515886366367340087890625" lon="-1.01206359453499317169189453125">
        <ele>1296</ele>
        <time>2020-08-21T07:45:00.000Z</time>
      </trkpt>
      <trkpt lat="42.95370175503194332122802734375" lon="-1.01207952015101909637451171875">
        <ele>1296.199951171875</ele>
        <time>2020-08-21T07:45:01.000Z</time>
      </trkpt>
      <trkpt lat="42.95373343862593173980712890625" lon="-1.0121186636388301849365234375">
        <ele>1296.5999755859375</ele>
        <time>2020-08-21T07:45:06.000Z</time>
      </trkpt>
      <trkpt lat="42.95373511500656604766845703125" lon="-1.01211874745786190032958984375">
        <ele>1296.199951171875</ele>
        <time>2020-08-21T07:46:34.000Z</time>
      </trkpt>
      <trkpt lat="42.9537372104823589324951171875" lon="-1.01212947629392147064208984375">
        <ele>1296</ele>
        <time>2020-08-21T07:46:36.000Z</time>
      </trkpt>
      <trkpt lat="42.953753806650638580322265625" lon="-1.0121525265276432037353515625">
        <ele>1296</ele>
        <time>2020-08-21T07:46:38.000Z</time>
      </trkpt>
      <trkpt lat="42.953805439174175262451171875" lon="-1.0121897421777248382568359375">
        <ele>1296.199951171875</ele>
        <time>2020-08-21T07:46:42.000Z</time>
      </trkpt>
      <trkpt lat="42.95385933481156826019287109375" lon="-1.01224615238606929779052734375">
        <ele>1296.5999755859375</ele>
        <time>2020-08-21T07:46:46.000Z</time>
      </trkpt>
      <trkpt lat="42.953924126923084259033203125" lon="-1.01231999695301055908203125">
        <ele>1297</ele>
        <time>2020-08-21T07:46:51.000Z</time>
      </trkpt>
      <trkpt lat="42.95397584326565265655517578125" lon="-1.01237322203814983367919921875">
        <ele>1297.800048828125</ele>
        <time>2020-08-21T07:46:55.000Z</time>
      </trkpt>
      <trkpt lat="42.95400266535580158233642578125" lon="-1.01239778101444244384765625">
        <ele>1298</ele>
        <time>2020-08-21T07:46:57.000Z</time>
      </trkpt>
      <trkpt lat="42.95407709665596485137939453125" lon="-1.01248738355934619903564453125">
        <ele>1298.800048828125</ele>
        <time>2020-08-21T07:47:03.000Z</time>
      </trkpt>
      <trkpt lat="42.9540902562439441680908203125" lon="-1.0125025548040866851806640625">
        <ele>1299</ele>
        <time>2020-08-21T07:47:04.000Z</time>
      </trkpt>
      <trkpt lat="42.954192347824573516845703125" lon="-1.0126074962317943572998046875">
        <ele>1300</ele>
        <time>2020-08-21T07:47:11.000Z</time>
      </trkpt>
      <trkpt lat="42.9542215168476104736328125" lon="-1.0126400180160999298095703125">
        <ele>1300.4000244140625</ele>
        <time>2020-08-21T07:47:13.000Z</time>
      </trkpt>
      <trkpt lat="42.9542832076549530029296875" lon="-1.0126950033009052276611328125">
        <ele>1301.199951171875</ele>
        <time>2020-08-21T07:47:17.000Z</time>
      </trkpt>
      <trkpt lat="42.9543769173324108123779296875" lon="-1.01277706213295459747314453125">
        <ele>1301.800048828125</ele>
        <time>2020-08-21T07:47:23.000Z</time>
      </trkpt>
      <trkpt lat="42.95440851710736751556396484375" lon="-1.012803129851818084716796875">
        <ele>1302.199951171875</ele>
        <time>2020-08-21T07:47:25.000Z</time>
      </trkpt>
      <trkpt lat="42.9544785059988498687744140625" lon="-1.01288057863712310791015625">
        <ele>1303</ele>
        <time>2020-08-21T07:47:30.000Z</time>
      </trkpt>
      <trkpt lat="42.95457263477146625518798828125" lon="-1.01296599023044109344482421875">
        <ele>1304.199951171875</ele>
        <time>2020-08-21T07:47:36.000Z</time>
      </trkpt>
      <trkpt lat="42.95459006913006305694580078125" lon="-1.012978814542293548583984375">
        <ele>1304.5999755859375</ele>
        <time>2020-08-21T07:47:37.000Z</time>
      </trkpt>
      <trkpt lat="42.95471529476344585418701171875" lon="-1.01312357001006603240966796875">
        <ele>1305.199951171875</ele>
        <time>2020-08-21T07:47:46.000Z</time>
      </trkpt>
      <trkpt lat="42.9547779075801372528076171875" lon="-1.01324996910989284515380859375">
        <ele>1306.4000244140625</ele>
        <time>2020-08-21T07:47:52.000Z</time>
      </trkpt>
      <trkpt lat="42.95484521426260471343994140625" lon="-1.01340319029986858367919921875">
        <ele>1307.4000244140625</ele>
        <time>2020-08-21T07:47:59.000Z</time>
      </trkpt>
      <trkpt lat="42.9548774845898151397705078125" lon="-1.013467647135257720947265625">
        <ele>1307.800048828125</ele>
        <time>2020-08-21T07:48:02.000Z</time>
      </trkpt>
      <trkpt lat="42.95491964556276798248291015625" lon="-1.0135499574244022369384765625">
        <ele>1308.4000244140625</ele>
        <time>2020-08-21T07:48:06.000Z</time>
      </trkpt>
      <trkpt lat="42.95496591366827487945556640625" lon="-1.0136314295232295989990234375">
        <ele>1308.800048828125</ele>
        <time>2020-08-21T07:48:10.000Z</time>
      </trkpt>
      <trkpt lat="42.95504386536777019500732421875" lon="-1.01374701596796512603759765625">
        <ele>1309.5999755859375</ele>
        <time>2020-08-21T07:48:16.000Z</time>
      </trkpt>
      <trkpt lat="42.95505694113671779632568359375" lon="-1.01376528851687908172607421875">
        <ele>1310</ele>
        <time>2020-08-21T07:48:17.000Z</time>
      </trkpt>
      <trkpt lat="42.9551012814044952392578125" lon="-1.0138141550123691558837890625">
        <ele>1310.5999755859375</ele>
        <time>2020-08-21T07:48:20.000Z</time>
      </trkpt>
      <trkpt lat="42.95518032275140285491943359375" lon="-1.01389118470251560211181640625">
        <ele>1311.199951171875</ele>
        <time>2020-08-21T07:48:25.000Z</time>
      </trkpt>
      <trkpt lat="42.9552238248288631439208984375" lon="-1.01394030265510082244873046875">
        <ele>1311.800048828125</ele>
        <time>2020-08-21T07:48:28.000Z</time>
      </trkpt>
      <trkpt lat="42.9552865214645862579345703125" lon="-1.01399713195860385894775390625">
        <ele>1312.4000244140625</ele>
        <time>2020-08-21T07:48:32.000Z</time>
      </trkpt>
      <trkpt lat="42.955302111804485321044921875" lon="-1.01401205174624919891357421875">
        <ele>1312.4000244140625</ele>
        <time>2020-08-21T07:48:33.000Z</time>
      </trkpt>
      <trkpt lat="42.95536891557276248931884765625" lon="-1.01406284607946872711181640625">
        <ele>1312.5999755859375</ele>
        <time>2020-08-21T07:48:37.000Z</time>
      </trkpt>
      <trkpt lat="42.95541484840214252471923828125" lon="-1.01411112584173679351806640625">
        <ele>1313.199951171875</ele>
        <time>2020-08-21T07:48:40.000Z</time>
      </trkpt>
      <trkpt lat="42.95547720976173877716064453125" lon="-1.014172732830047607421875">
        <ele>1313.800048828125</ele>
        <time>2020-08-21T07:48:44.000Z</time>
      </trkpt>
      <trkpt lat="42.95554476790130138397216796875" lon="-1.0142215155065059661865234375">
        <ele>1314.5999755859375</ele>
        <time>2020-08-21T07:48:48.000Z</time>
      </trkpt>
      <trkpt lat="42.95556069351732730865478515625" lon="-1.0142345912754535675048828125">
        <ele>1314.800048828125</ele>
        <time>2020-08-21T07:48:49.000Z</time>
      </trkpt>
      <trkpt lat="42.95568533241748809814453125" lon="-1.0143537819385528564453125">
        <ele>1315.800048828125</ele>
        <time>2020-08-21T07:48:57.000Z</time>
      </trkpt>
      <trkpt lat="42.95571676455438137054443359375" lon="-1.014381945133209228515625">
        <ele>1316.4000244140625</ele>
        <time>2020-08-21T07:48:59.000Z</time>
      </trkpt>
      <trkpt lat="42.95574760995805263519287109375" lon="-1.014408431947231292724609375">
        <ele>1316.800048828125</ele>
        <time>2020-08-21T07:49:01.000Z</time>
      </trkpt>
      <trkpt lat="42.955834865570068359375" lon="-1.01449350826442241668701171875">
        <ele>1317.800048828125</ele>
        <time>2020-08-21T07:49:07.000Z</time>
      </trkpt>
      <trkpt lat="42.95584819279611110687255859375" lon="-1.014511026442050933837890625">
        <ele>1318</ele>
        <time>2020-08-21T07:49:08.000Z</time>
      </trkpt>
      <trkpt lat="42.9559178464114665985107421875" lon="-1.01460197009146213531494140625">
        <ele>1319</ele>
        <time>2020-08-21T07:49:13.000Z</time>
      </trkpt>
      <trkpt lat="42.95594475232064723968505859375" lon="-1.0146372579038143157958984375">
        <ele>1319.199951171875</ele>
        <time>2020-08-21T07:49:15.000Z</time>
      </trkpt>
      <trkpt lat="42.9560239613056182861328125" lon="-1.014747060835361480712890625">
        <ele>1320.199951171875</ele>
        <time>2020-08-21T07:49:21.000Z</time>
      </trkpt>
      <trkpt lat="42.9560641944408416748046875" lon="-1.0148012079298496246337890625">
        <ele>1321</ele>
        <time>2020-08-21T07:49:24.000Z</time>
      </trkpt>
      <trkpt lat="42.95610333792865276336669921875" lon="-1.0148592106997966766357421875">
        <ele>1321.4000244140625</ele>
        <time>2020-08-21T07:49:27.000Z</time>
      </trkpt>
      <trkpt lat="42.9561766795814037322998046875" lon="-1.01496440358459949493408203125">
        <ele>1322.199951171875</ele>
        <time>2020-08-21T07:49:33.000Z</time>
      </trkpt>
      <trkpt lat="42.956189922988414764404296875" lon="-1.0149814188480377197265625">
        <ele>1322.4000244140625</ele>
        <time>2020-08-21T07:49:34.000Z</time>
      </trkpt>
      <trkpt lat="42.95628053136169910430908203125" lon="-1.0150882042944431304931640625">
        <ele>1323.199951171875</ele>
        <time>2020-08-21T07:49:41.000Z</time>
      </trkpt>
      <trkpt lat="42.956296540796756744384765625" lon="-1.01512156426906585693359375">
        <ele>1323.5999755859375</ele>
        <time>2020-08-21T07:49:43.000Z</time>
      </trkpt>
      <trkpt lat="42.95631590299308300018310546875" lon="-1.0151525773108005523681640625">
        <ele>1323.5999755859375</ele>
        <time>2020-08-21T07:49:47.000Z</time>
      </trkpt>
      <trkpt lat="42.956324703991413116455078125" lon="-1.0151706822216510772705078125">
        <ele>1323.800048828125</ele>
        <time>2020-08-21T07:49:54.000Z</time>
      </trkpt>
      <trkpt lat="42.956325709819793701171875" lon="-1.01516992785036563873291015625">
        <ele>1324</ele>
        <time>2020-08-21T07:50:09.000Z</time>
      </trkpt>
      <trkpt lat="42.95631699264049530029296875" lon="-1.01518996059894561767578125">
        <ele>1323.800048828125</ele>
        <time>2020-08-21T07:50:22.000Z</time>
      </trkpt>
      <trkpt lat="42.956315986812114715576171875" lon="-1.01519507355988025665283203125">
        <ele>1323.800048828125</ele>
        <time>2020-08-21T07:50:31.000Z</time>
      </trkpt>
      <trkpt lat="42.95633484609425067901611328125" lon="-1.01523631252348423004150390625">
        <ele>1323.4000244140625</ele>
        <time>2020-08-21T07:50:38.000Z</time>
      </trkpt>
      <trkpt lat="42.95636594295501708984375" lon="-1.01527922786772251129150390625">
        <ele>1323.5999755859375</ele>
        <time>2020-08-21T07:50:43.000Z</time>
      </trkpt>
      <trkpt lat="42.95636535622179508209228515625" lon="-1.01527989841997623443603515625">
        <ele>1323.5999755859375</ele>
        <time>2020-08-21T07:50:45.000Z</time>
      </trkpt>
      <trkpt lat="42.9563369415700435638427734375" lon="-1.01531594060361385345458984375">
        <ele>1320.199951171875</ele>
        <time>2020-08-21T08:19:29.000Z</time>
      </trkpt>
      <trkpt lat="42.95632562600076198577880859375" lon="-1.0153265856206417083740234375">
        <ele>1320.4000244140625</ele>
        <time>2020-08-21T08:19:32.000Z</time>
      </trkpt>
      <trkpt lat="42.9563097842037677764892578125" lon="-1.0153681598603725433349609375">
        <ele>1320.4000244140625</ele>
        <time>2020-08-21T08:19:34.000Z</time>
      </trkpt>
      <trkpt lat="42.95628623105585575103759765625" lon="-1.01559220813214778900146484375">
        <ele>1319.5999755859375</ele>
        <time>2020-08-21T08:19:40.000Z</time>
      </trkpt>
      <trkpt lat="42.95628136955201625823974609375" lon="-1.0156734287738800048828125">
        <ele>1318.800048828125</ele>
        <time>2020-08-21T08:19:42.000Z</time>
      </trkpt>
      <trkpt lat="42.95627332292497158050537109375" lon="-1.0157993249595165252685546875">
        <ele>1317.800048828125</ele>
        <time>2020-08-21T08:19:45.000Z</time>
      </trkpt>
      <trkpt lat="42.956273742020130157470703125" lon="-1.01584249176084995269775390625">
        <ele>1317.5999755859375</ele>
        <time>2020-08-21T08:19:46.000Z</time>
      </trkpt>
      <trkpt lat="42.9562950320541858673095703125" lon="-1.015996299684047698974609375">
        <ele>1316.5999755859375</ele>
        <time>2020-08-21T08:19:50.000Z</time>
      </trkpt>
      <trkpt lat="42.95630358159542083740234375" lon="-1.016012392938137054443359375">
        <ele>1316.4000244140625</ele>
        <time>2020-08-21T08:19:51.000Z</time>
      </trkpt>
      <trkpt lat="42.95633249916136264801025390625" lon="-1.01601532660424709320068359375">
        <ele>1316</ele>
        <time>2020-08-21T08:19:55.000Z</time>
      </trkpt>
      <trkpt lat="42.95633467845618724822998046875" lon="-1.01601541042327880859375">
        <ele>1315.800048828125</ele>
        <time>2020-08-21T08:20:05.000Z</time>
      </trkpt>
      <trkpt lat="42.95633534900844097137451171875" lon="-1.01601582951843738555908203125">
        <ele>1315.5999755859375</ele>
        <time>2020-08-21T08:20:15.000Z</time>
      </trkpt>
      <trkpt lat="42.956336103379726409912109375" lon="-1.0160155780613422393798828125">
        <ele>1316</ele>
        <time>2020-08-21T08:20:41.000Z</time>
      </trkpt>
      <trkpt lat="42.95633484609425067901611328125" lon="-1.01601247675716876983642578125">
        <ele>1316</ele>
        <time>2020-08-21T08:20:48.000Z</time>
      </trkpt>
      <trkpt lat="42.95633534900844097137451171875" lon="-1.01601214148104190826416015625">
        <ele>1315.800048828125</ele>
        <time>2020-08-21T08:20:52.000Z</time>
      </trkpt>
      <trkpt lat="42.956328727304935455322265625" lon="-1.01601650007069110870361328125">
        <ele>1315.5999755859375</ele>
        <time>2020-08-21T08:21:15.000Z</time>
      </trkpt>
      <trkpt lat="42.95632998459041118621826171875" lon="-1.01602370850741863250732421875">
        <ele>1315.5999755859375</ele>
        <time>2020-08-21T08:21:22.000Z</time>
      </trkpt>
      <trkpt lat="42.95631338842213153839111328125" lon="-1.01606561802327632904052734375">
        <ele>1315.5999755859375</ele>
        <time>2020-08-21T08:21:30.000Z</time>
      </trkpt>
      <trkpt lat="42.95633752830326557159423828125" lon="-1.0162080265581607818603515625">
        <ele>1315.199951171875</ele>
        <time>2020-08-21T08:21:36.000Z</time>
      </trkpt>
      <trkpt lat="42.956347502768039703369140625" lon="-1.016232669353485107421875">
        <ele>1315</ele>
        <time>2020-08-21T08:21:37.000Z</time>
      </trkpt>
      <trkpt lat="42.95635596849024295806884765625" lon="-1.01626284420490264892578125">
        <ele>1314.5999755859375</ele>
        <time>2020-08-21T08:21:41.000Z</time>
      </trkpt>
      <trkpt lat="42.9563540406525135040283203125" lon="-1.016275919973850250244140625">
        <ele>1314.4000244140625</ele>
        <time>2020-08-21T08:21:47.000Z</time>
      </trkpt>
      <trkpt lat="42.956352867186069488525390625" lon="-1.01631288416683673858642578125">
        <ele>1314.199951171875</ele>
        <time>2020-08-21T08:21:53.000Z</time>
      </trkpt>
      <trkpt lat="42.9563526995480060577392578125" lon="-1.01631372235715389251708984375">
        <ele>1314.199951171875</ele>
        <time>2020-08-21T08:21:54.000Z</time>
      </trkpt>
      <trkpt lat="42.95635479502379894256591796875" lon="-1.0163907520473003387451171875">
        <ele>1314.199951171875</ele>
        <time>2020-08-21T08:22:00.000Z</time>
      </trkpt>
      <trkpt lat="42.9563664458692073822021484375" lon="-1.01647918112576007843017578125">
        <ele>1314</ele>
        <time>2020-08-21T08:22:03.000Z</time>
      </trkpt>
      <trkpt lat="42.956380359828472137451171875" lon="-1.016665510833263397216796875">
        <ele>1312.5999755859375</ele>
        <time>2020-08-21T08:22:08.000Z</time>
      </trkpt>
      <trkpt lat="42.956397794187068939208984375" lon="-1.01681311614811420440673828125">
        <ele>1311.5999755859375</ele>
        <time>2020-08-21T08:22:11.000Z</time>
      </trkpt>
      <trkpt lat="42.9564160667359828948974609375" lon="-1.01691520772874355316162109375">
        <ele>1311.4000244140625</ele>
        <time>2020-08-21T08:22:13.000Z</time>
      </trkpt>
      <trkpt lat="42.95642520301043987274169921875" lon="-1.0169721208512783050537109375">
        <ele>1311.199951171875</ele>
        <time>2020-08-21T08:22:14.000Z</time>
      </trkpt>
      <trkpt lat="42.956446744501590728759765625" lon="-1.017089299857616424560546875">
        <ele>1310.5999755859375</ele>
        <time>2020-08-21T08:22:16.000Z</time>
      </trkpt>
      <trkpt lat="42.95650248415768146514892578125" lon="-1.01738425903022289276123046875">
        <ele>1309.800048828125</ele>
        <time>2020-08-21T08:22:21.000Z</time>
      </trkpt>
      <trkpt lat="42.95653014443814754486083984375" lon="-1.01750244386494159698486328125">
        <ele>1309.199951171875</ele>
        <time>2020-08-21T08:22:23.000Z</time>
      </trkpt>
      <trkpt lat="42.95656233094632625579833984375" lon="-1.01762766949832439422607421875">
        <ele>1308.199951171875</ele>
        <time>2020-08-21T08:22:25.000Z</time>
      </trkpt>
      <trkpt lat="42.95660055242478847503662109375" lon="-1.0177494585514068603515625">
        <ele>1307.5999755859375</ele>
        <time>2020-08-21T08:22:27.000Z</time>
      </trkpt>
      <trkpt lat="42.95666442252695560455322265625" lon="-1.0179259814321994781494140625">
        <ele>1306.5999755859375</ele>
        <time>2020-08-21T08:22:30.000Z</time>
      </trkpt>
      <trkpt lat="42.95670717023313045501708984375" lon="-1.01802832446992397308349609375">
        <ele>1305.800048828125</ele>
        <time>2020-08-21T08:22:32.000Z</time>
      </trkpt>
      <trkpt lat="42.956728376448154449462890625" lon="-1.01807811297476291656494140625">
        <ele>1305.5999755859375</ele>
        <time>2020-08-21T08:22:33.000Z</time>
      </trkpt>
      <trkpt lat="42.95685050077736377716064453125" lon="-1.01834289729595184326171875">
        <ele>1304.5999755859375</ele>
        <time>2020-08-21T08:22:38.000Z</time>
      </trkpt>
      <trkpt lat="42.956883609294891357421875" lon="-1.018390171229839324951171875">
        <ele>1304</ele>
        <time>2020-08-21T08:22:39.000Z</time>
      </trkpt>
      <trkpt lat="42.95698461122810840606689453125" lon="-1.01851782761514186859130859375">
        <ele>1303.199951171875</ele>
        <time>2020-08-21T08:22:42.000Z</time>
      </trkpt>
      <trkpt lat="42.95703775249421596527099609375" lon="-1.0185851342976093292236328125">
        <ele>1301.800048828125</ele>
        <time>2020-08-21T08:22:44.000Z</time>
      </trkpt>
      <trkpt lat="42.9570711962878704071044921875" lon="-1.01862251758575439453125">
        <ele>1301.5999755859375</ele>
        <time>2020-08-21T08:22:45.000Z</time>
      </trkpt>
      <trkpt lat="42.9572207294404506683349609375" lon="-1.01879292167723178863525390625">
        <ele>1300.800048828125</ele>
        <time>2020-08-21T08:22:49.000Z</time>
      </trkpt>
      <trkpt lat="42.957368083298206329345703125" lon="-1.01899894885718822479248046875">
        <ele>1299.5999755859375</ele>
        <time>2020-08-21T08:22:53.000Z</time>
      </trkpt>
      <trkpt lat="42.9574795626103878021240234375" lon="-1.01915820501744747161865234375">
        <ele>1297.4000244140625</ele>
        <time>2020-08-21T08:22:56.000Z</time>
      </trkpt>
      <trkpt lat="42.95755290426313877105712890625" lon="-1.019270606338977813720703125">
        <ele>1296.4000244140625</ele>
        <time>2020-08-21T08:22:58.000Z</time>
      </trkpt>
      <trkpt lat="42.95758944936096668243408203125" lon="-1.01932953111827373504638671875">
        <ele>1295.5999755859375</ele>
        <time>2020-08-21T08:22:59.000Z</time>
      </trkpt>
      <trkpt lat="42.95777401886880397796630859375" lon="-1.019624657928943634033203125">
        <ele>1294.4000244140625</ele>
        <time>2020-08-21T08:23:04.000Z</time>
      </trkpt>
      <trkpt lat="42.95787108130753040313720703125" lon="-1.01981534622609615325927734375">
        <ele>1293</ele>
        <time>2020-08-21T08:23:07.000Z</time>
      </trkpt>
      <trkpt lat="42.95795339159667491912841796875" lon="-1.02000293321907520294189453125">
        <ele>1292</ele>
        <time>2020-08-21T08:23:10.000Z</time>
      </trkpt>
      <trkpt lat="42.95801826752722263336181640625" lon="-1.02016587741672992706298828125">
        <ele>1290.800048828125</ele>
        <time>2020-08-21T08:23:13.000Z</time>
      </trkpt>
      <trkpt lat="42.95805313624441623687744140625" lon="-1.02028548717498779296875">
        <ele>1290.4000244140625</ele>
        <time>2020-08-21T08:23:15.000Z</time>
      </trkpt>
      <trkpt lat="42.958065457642078399658203125" lon="-1.02035027928650379180908203125">
        <ele>1290.199951171875</ele>
        <time>2020-08-21T08:23:16.000Z</time>
      </trkpt>
      <trkpt lat="42.958085574209690093994140625" lon="-1.02047123014926910400390625">
        <ele>1289.800048828125</ele>
        <time>2020-08-21T08:23:18.000Z</time>
      </trkpt>
      <trkpt lat="42.9581152461469173431396484375" lon="-1.0206326656043529510498046875">
        <ele>1288.800048828125</ele>
        <time>2020-08-21T08:23:21.000Z</time>
      </trkpt>
      <trkpt lat="42.9581299982964992523193359375" lon="-1.02067633531987667083740234375">
        <ele>1288</ele>
        <time>2020-08-21T08:23:22.000Z</time>
      </trkpt>
      <trkpt lat="42.95815137214958667755126953125" lon="-1.02070902474224567413330078125">
        <ele>1287.5999755859375</ele>
        <time>2020-08-21T08:23:23.000Z</time>
      </trkpt>
      <trkpt lat="42.9582097940146923065185546875" lon="-1.020733751356601715087890625">
        <ele>1287.199951171875</ele>
        <time>2020-08-21T08:23:25.000Z</time>
      </trkpt>
      <trkpt lat="42.9582396335899829864501953125" lon="-1.0207240283489227294921875">
        <ele>1286.800048828125</ele>
        <time>2020-08-21T08:23:26.000Z</time>
      </trkpt>
      <trkpt lat="42.95826251618564128875732421875" lon="-1.02069854736328125">
        <ele>1286.4000244140625</ele>
        <time>2020-08-21T08:23:27.000Z</time>
      </trkpt>
      <trkpt lat="42.9582734964787960052490234375" lon="-1.02066426537930965423583984375">
        <ele>1286</ele>
        <time>2020-08-21T08:23:28.000Z</time>
      </trkpt>
      <trkpt lat="42.95827274210751056671142578125" lon="-1.0205501876771450042724609375">
        <ele>1285.199951171875</ele>
        <time>2020-08-21T08:23:31.000Z</time>
      </trkpt>
      <trkpt lat="42.9582661204040050506591796875" lon="-1.0204673744738101959228515625">
        <ele>1284.5999755859375</ele>
        <time>2020-08-21T08:23:33.000Z</time>
      </trkpt>
      <trkpt lat="42.958262600004673004150390625" lon="-1.02041817270219326019287109375">
        <ele>1284.199951171875</ele>
        <time>2020-08-21T08:23:34.000Z</time>
      </trkpt>
      <trkpt lat="42.9582570679485797882080078125" lon="-1.02024299092590808868408203125">
        <ele>1283</ele>
        <time>2020-08-21T08:23:37.000Z</time>
      </trkpt>
      <trkpt lat="42.9582587443292140960693359375" lon="-1.02011717855930328369140625">
        <ele>1282.4000244140625</ele>
        <time>2020-08-21T08:23:39.000Z</time>
      </trkpt>
      <trkpt lat="42.9582570679485797882080078125" lon="-1.01999220438301563262939453125">
        <ele>1281.800048828125</ele>
        <time>2020-08-21T08:23:41.000Z</time>
      </trkpt>
      <trkpt lat="42.95824952423572540283203125" lon="-1.01976488716900348663330078125">
        <ele>1281</ele>
        <time>2020-08-21T08:23:45.000Z</time>
      </trkpt>
      <trkpt lat="42.95824273489415645599365234375" lon="-1.01971752941608428955078125">
        <ele>1280.199951171875</ele>
        <time>2020-08-21T08:23:46.000Z</time>
      </trkpt>
      <trkpt lat="42.95822412706911563873291015625" lon="-1.01962658576667308807373046875">
        <ele>1278.800048828125</ele>
        <time>2020-08-21T08:23:48.000Z</time>
      </trkpt>
      <trkpt lat="42.9582118056714534759521484375" lon="-1.019575037062168121337890625">
        <ele>1278.4000244140625</ele>
        <time>2020-08-21T08:23:49.000Z</time>
      </trkpt>
      <trkpt lat="42.958178110420703887939453125" lon="-1.01945936679840087890625">
        <ele>1277.800048828125</ele>
        <time>2020-08-21T08:23:51.000Z</time>
      </trkpt>
      <trkpt lat="42.95815673656761646270751953125" lon="-1.0193998552858829498291015625">
        <ele>1277.800048828125</ele>
        <time>2020-08-21T08:23:52.000Z</time>
      </trkpt>
      <trkpt lat="42.9581112228333950042724609375" lon="-1.0192764736711978912353515625">
        <ele>1276.199951171875</ele>
        <time>2020-08-21T08:23:54.000Z</time>
      </trkpt>
      <trkpt lat="42.958086915314197540283203125" lon="-1.019213609397411346435546875">
        <ele>1275.4000244140625</ele>
        <time>2020-08-21T08:23:55.000Z</time>
      </trkpt>
      <trkpt lat="42.9580329358577728271484375" lon="-1.01909165270626544952392578125">
        <ele>1275</ele>
        <time>2020-08-21T08:23:57.000Z</time>
      </trkpt>
      <trkpt lat="42.95792874880135059356689453125" lon="-1.018857546150684356689453125">
        <ele>1273.800048828125</ele>
        <time>2020-08-21T08:24:01.000Z</time>
      </trkpt>
      <trkpt lat="42.95788097195327281951904296875" lon="-1.0187252797186374664306640625">
        <ele>1272</ele>
        <time>2020-08-21T08:24:03.000Z</time>
      </trkpt>
      <trkpt lat="42.95782975852489471435546875" lon="-1.01858739741146564483642578125">
        <ele>1270.5999755859375</ele>
        <time>2020-08-21T08:24:05.000Z</time>
      </trkpt>
      <trkpt lat="42.9577781260013580322265625" lon="-1.01843811571598052978515625">
        <ele>1269.4000244140625</ele>
        <time>2020-08-21T08:24:07.000Z</time>
      </trkpt>
      <trkpt lat="42.95773194171488285064697265625" lon="-1.018287241458892822265625">
        <ele>1268.4000244140625</ele>
        <time>2020-08-21T08:24:09.000Z</time>
      </trkpt>
      <trkpt lat="42.9576767049729824066162109375" lon="-1.01806486956775188446044921875">
        <ele>1267.800048828125</ele>
        <time>2020-08-21T08:24:12.000Z</time>
      </trkpt>
      <trkpt lat="42.95767041854560375213623046875" lon="-1.01790863089263439178466796875">
        <ele>1267.5999755859375</ele>
        <time>2020-08-21T08:24:14.000Z</time>
      </trkpt>
      <trkpt lat="42.95766958035528659820556640625" lon="-1.01782900281250476837158203125">
        <ele>1267</ele>
        <time>2020-08-21T08:24:15.000Z</time>
      </trkpt>
      <trkpt lat="42.95768550597131252288818359375" lon="-1.017490960657596588134765625">
        <ele>1265.5999755859375</ele>
        <time>2020-08-21T08:24:19.000Z</time>
      </trkpt>
      <trkpt lat="42.9576951451599597930908203125" lon="-1.0174089856445789337158203125">
        <ele>1264.199951171875</ele>
        <time>2020-08-21T08:24:20.000Z</time>
      </trkpt>
      <trkpt lat="42.95770503580570220947265625" lon="-1.01732877083122730255126953125">
        <ele>1263.199951171875</ele>
        <time>2020-08-21T08:24:21.000Z</time>
      </trkpt>
      <trkpt lat="42.95772708021104335784912109375" lon="-1.01716163568198680877685546875">
        <ele>1261.5999755859375</ele>
        <time>2020-08-21T08:24:23.000Z</time>
      </trkpt>
      <trkpt lat="42.9577585123479366302490234375" lon="-1.01692778058350086212158203125">
        <ele>1260.800048828125</ele>
        <time>2020-08-21T08:24:26.000Z</time>
      </trkpt>
      <trkpt lat="42.95777251012623310089111328125" lon="-1.01685234345495700836181640625">
        <ele>1260.4000244140625</ele>
        <time>2020-08-21T08:24:27.000Z</time>
      </trkpt>
      <trkpt lat="42.957805283367633819580078125" lon="-1.0166080109775066375732421875">
        <ele>1260</ele>
        <time>2020-08-21T08:24:30.000Z</time>
      </trkpt>
      <trkpt lat="42.95780553482472896575927734375" lon="-1.01652628742158412933349609375">
        <ele>1260</ele>
        <time>2020-08-21T08:24:31.000Z</time>
      </trkpt>
      <trkpt lat="42.95778005383908748626708984375" lon="-1.0162393748760223388671875">
        <ele>1258.199951171875</ele>
        <time>2020-08-21T08:24:35.000Z</time>
      </trkpt>
      <trkpt lat="42.95777519233524799346923828125" lon="-1.016168296337127685546875">
        <ele>1257.4000244140625</ele>
        <time>2020-08-21T08:24:36.000Z</time>
      </trkpt>
      <trkpt lat="42.95777167193591594696044921875" lon="-1.0160972177982330322265625">
        <ele>1257</ele>
        <time>2020-08-21T08:24:37.000Z</time>
      </trkpt>
      <trkpt lat="42.9577799700200557708740234375" lon="-1.015874259173870086669921875">
        <ele>1255.5999755859375</ele>
        <time>2020-08-21T08:24:40.000Z</time>
      </trkpt>
      <trkpt lat="42.95779229141771793365478515625" lon="-1.01580544374883174896240234375">
        <ele>1254.800048828125</ele>
        <time>2020-08-21T08:24:41.000Z</time>
      </trkpt>
      <trkpt lat="42.95781207270920276641845703125" lon="-1.01574375294148921966552734375">
        <ele>1254.4000244140625</ele>
        <time>2020-08-21T08:24:42.000Z</time>
      </trkpt>
      <trkpt lat="42.9579127393662929534912109375" lon="-1.01558902300894260406494140625">
        <ele>1253.199951171875</ele>
        <time>2020-08-21T08:24:45.000Z</time>
      </trkpt>
      <trkpt lat="42.957979626953601837158203125" lon="-1.0154950618743896484375">
        <ele>1253</ele>
        <time>2020-08-21T08:24:47.000Z</time>
      </trkpt>
      <trkpt lat="42.95807325281202793121337890625" lon="-1.01536019705235958099365234375">
        <ele>1252.4000244140625</ele>
        <time>2020-08-21T08:24:50.000Z</time>
      </trkpt>
      <trkpt lat="42.958095632493495941162109375" lon="-1.0153091512620449066162109375">
        <ele>1252</ele>
        <time>2020-08-21T08:24:51.000Z</time>
      </trkpt>
      <trkpt lat="42.9581363685429096221923828125" lon="-1.01513405330479145050048828125">
        <ele>1251</ele>
        <time>2020-08-21T08:24:54.000Z</time>
      </trkpt>
      <trkpt lat="42.95814801938831806182861328125" lon="-1.0150699317455291748046875">
        <ele>1250.5999755859375</ele>
        <time>2020-08-21T08:24:55.000Z</time>
      </trkpt>
      <trkpt lat="42.95817651785910129547119140625" lon="-1.0149396769702434539794921875">
        <ele>1249.5999755859375</ele>
        <time>2020-08-21T08:24:57.000Z</time>
      </trkpt>
      <trkpt lat="42.9582037590444087982177734375" lon="-1.01488016545772552490234375">
        <ele>1249.4000244140625</ele>
        <time>2020-08-21T08:24:58.000Z</time>
      </trkpt>
      <trkpt lat="42.95823669992387294769287109375" lon="-1.0148250125348567962646484375">
        <ele>1248.800048828125</ele>
        <time>2020-08-21T08:24:59.000Z</time>
      </trkpt>
      <trkpt lat="42.95827156864106655120849609375" lon="-1.01477245800197124481201171875">
        <ele>1248</ele>
        <time>2020-08-21T08:25:00.000Z</time>
      </trkpt>
      <trkpt lat="42.958385646343231201171875" lon="-1.01461856625974178314208984375">
        <ele>1246.5999755859375</ele>
        <time>2020-08-21T08:25:03.000Z</time>
      </trkpt>
      <trkpt lat="42.9584632627665996551513671875" lon="-1.01451781578361988067626953125">
        <ele>1244.800048828125</ele>
        <time>2020-08-21T08:25:05.000Z</time>
      </trkpt>
      <trkpt lat="42.9585621692240238189697265625" lon="-1.014408767223358154296875">
        <ele>1243.199951171875</ele>
        <time>2020-08-21T08:25:08.000Z</time>
      </trkpt>
      <trkpt lat="42.9586713016033172607421875" lon="-1.01431212387979030609130859375">
        <ele>1241.4000244140625</ele>
        <time>2020-08-21T08:25:11.000Z</time>
      </trkpt>
      <trkpt lat="42.9587562941014766693115234375" lon="-1.0142654366791248321533203125">
        <ele>1240.199951171875</ele>
        <time>2020-08-21T08:25:13.000Z</time>
      </trkpt>
      <trkpt lat="42.9588659293949604034423828125" lon="-1.01421740837395191192626953125">
        <ele>1239.5999755859375</ele>
        <time>2020-08-21T08:25:15.000Z</time>
      </trkpt>
      <trkpt lat="42.958921752870082855224609375" lon="-1.01419963873922824859619140625">
        <ele>1239</ele>
        <time>2020-08-21T08:25:16.000Z</time>
      </trkpt>
      <trkpt lat="42.95903046615421772003173828125" lon="-1.014173738658428192138671875">
        <ele>1237.4000244140625</ele>
        <time>2020-08-21T08:25:18.000Z</time>
      </trkpt>
      <trkpt lat="42.95914077199995517730712890625" lon="-1.014146246016025543212890625">
        <ele>1236.800048828125</ele>
        <time>2020-08-21T08:25:20.000Z</time>
      </trkpt>
      <trkpt lat="42.95925560407340526580810546875" lon="-1.014110706746578216552734375">
        <ele>1236.199951171875</ele>
        <time>2020-08-21T08:25:22.000Z</time>
      </trkpt>
      <trkpt lat="42.9594137705862522125244140625" lon="-1.0140615887939929962158203125">
        <ele>1234.800048828125</ele>
        <time>2020-08-21T08:25:25.000Z</time>
      </trkpt>
      <trkpt lat="42.95955953188240528106689453125" lon="-1.014012806117534637451171875">
        <ele>1233.199951171875</ele>
        <time>2020-08-21T08:25:28.000Z</time>
      </trkpt>
      <trkpt lat="42.9596018604934215545654296875" lon="-1.01400014944374561309814453125">
        <ele>1232.199951171875</ele>
        <time>2020-08-21T08:25:29.000Z</time>
      </trkpt>
      <trkpt lat="42.9596461169421672821044921875" lon="-1.01398187689483165740966796875">
        <ele>1232</ele>
        <time>2020-08-21T08:25:30.000Z</time>
      </trkpt>
      <trkpt lat="42.95974426902830600738525390625" lon="-1.01395706646144390106201171875">
        <ele>1231.199951171875</ele>
        <time>2020-08-21T08:25:32.000Z</time>
      </trkpt>
      <trkpt lat="42.9598476178944110870361328125" lon="-1.0139559768140316009521484375">
        <ele>1231.199951171875</ele>
        <time>2020-08-21T08:25:34.000Z</time>
      </trkpt>
      <trkpt lat="42.9598952271044254302978515625" lon="-1.01396980695426464080810546875">
        <ele>1230.800048828125</ele>
        <time>2020-08-21T08:25:35.000Z</time>
      </trkpt>
      <trkpt lat="42.9599984921514987945556640625" lon="-1.01410475559532642364501953125">
        <ele>1229.5999755859375</ele>
        <time>2020-08-21T08:25:38.000Z</time>
      </trkpt>
      <trkpt lat="42.96002740971744060516357421875" lon="-1.0142161510884761810302734375">
        <ele>1228.4000244140625</ele>
        <time>2020-08-21T08:25:40.000Z</time>
      </trkpt>
      <trkpt lat="42.9600524716079235076904296875" lon="-1.01433190517127513885498046875">
        <ele>1227.800048828125</ele>
        <time>2020-08-21T08:25:42.000Z</time>
      </trkpt>
      <trkpt lat="42.960068397223949432373046875" lon="-1.01439334452152252197265625">
        <ele>1227.199951171875</ele>
        <time>2020-08-21T08:25:43.000Z</time>
      </trkpt>
      <trkpt lat="42.9601116478443145751953125" lon="-1.01451630704104900360107421875">
        <ele>1225.800048828125</ele>
        <time>2020-08-21T08:25:45.000Z</time>
      </trkpt>
      <trkpt lat="42.96014240942895412445068359375" lon="-1.01457665674388408660888671875">
        <ele>1225.5999755859375</ele>
        <time>2020-08-21T08:25:46.000Z</time>
      </trkpt>
      <trkpt lat="42.96021264977753162384033203125" lon="-1.0146771557629108428955078125">
        <ele>1224.800048828125</ele>
        <time>2020-08-21T08:25:48.000Z</time>
      </trkpt>
      <trkpt lat="42.9602482728660106658935546875" lon="-1.0147227533161640167236328125">
        <ele>1223.800048828125</ele>
        <time>2020-08-21T08:25:49.000Z</time>
      </trkpt>
      <trkpt lat="42.96028389595448970794677734375" lon="-1.014768183231353759765625">
        <ele>1223.199951171875</ele>
        <time>2020-08-21T08:25:50.000Z</time>
      </trkpt>
      <trkpt lat="42.96032731421291828155517578125" lon="-1.01481118239462375640869140625">
        <ele>1222.5999755859375</ele>
        <time>2020-08-21T08:25:51.000Z</time>
      </trkpt>
      <trkpt lat="42.96041582711040973663330078125" lon="-1.01488821208477020263671875">
        <ele>1221.4000244140625</ele>
        <time>2020-08-21T08:25:53.000Z</time>
      </trkpt>
      <trkpt lat="42.96048657037317752838134765625" lon="-1.01496708579361438751220703125">
        <ele>1221</ele>
        <time>2020-08-21T08:25:55.000Z</time>
      </trkpt>
      <trkpt lat="42.96052009798586368560791015625" lon="-1.01501435972750186920166015625">
        <ele>1220.5999755859375</ele>
        <time>2020-08-21T08:25:56.000Z</time>
      </trkpt>
      <trkpt lat="42.96055161394178867340087890625" lon="-1.01507035084068775177001953125">
        <ele>1220.4000244140625</ele>
        <time>2020-08-21T08:25:57.000Z</time>
      </trkpt>
      <trkpt lat="42.96065152622759342193603515625" lon="-1.0152464546263217926025390625">
        <ele>1219.199951171875</ele>
        <time>2020-08-21T08:26:00.000Z</time>
      </trkpt>
      <trkpt lat="42.9607233591377735137939453125" lon="-1.0153621248900890350341796875">
        <ele>1218.5999755859375</ele>
        <time>2020-08-21T08:26:02.000Z</time>
      </trkpt>
      <trkpt lat="42.9607661068439483642578125" lon="-1.01541752927005290985107421875">
        <ele>1218</ele>
        <time>2020-08-21T08:26:03.000Z</time>
      </trkpt>
      <trkpt lat="42.96080910600721836090087890625" lon="-1.0154700838029384613037109375">
        <ele>1217.5999755859375</ele>
        <time>2020-08-21T08:26:04.000Z</time>
      </trkpt>
      <trkpt lat="42.96089460141956806182861328125" lon="-1.01555432192981243133544921875">
        <ele>1217</ele>
        <time>2020-08-21T08:26:06.000Z</time>
      </trkpt>
      <trkpt lat="42.9610130377113819122314453125" lon="-1.0156484507024288177490234375">
        <ele>1215.5999755859375</ele>
        <time>2020-08-21T08:26:09.000Z</time>
      </trkpt>
      <trkpt lat="42.9610504209995269775390625" lon="-1.01567636243999004364013671875">
        <ele>1215.5999755859375</ele>
        <time>2020-08-21T08:26:10.000Z</time>
      </trkpt>
      <trkpt lat="42.961164750158786773681640625" lon="-1.01578080095350742340087890625">
        <ele>1214</ele>
        <time>2020-08-21T08:26:13.000Z</time>
      </trkpt>
      <trkpt lat="42.9612033069133758544921875" lon="-1.01582505740225315093994140625">
        <ele>1213.199951171875</ele>
        <time>2020-08-21T08:26:14.000Z</time>
      </trkpt>
      <trkpt lat="42.96124295331537723541259765625" lon="-1.01586998440325260162353515625">
        <ele>1212.800048828125</ele>
        <time>2020-08-21T08:26:15.000Z</time>
      </trkpt>
      <trkpt lat="42.9613972641527652740478515625" lon="-1.0160387121140956878662109375">
        <ele>1211.5999755859375</ele>
        <time>2020-08-21T08:26:19.000Z</time>
      </trkpt>
      <trkpt lat="42.96147228218615055084228515625" lon="-1.01611875928938388824462890625">
        <ele>1211</ele>
        <time>2020-08-21T08:26:21.000Z</time>
      </trkpt>
      <trkpt lat="42.96150983311235904693603515625" lon="-1.0161573998630046844482421875">
        <ele>1210.4000244140625</ele>
        <time>2020-08-21T08:26:22.000Z</time>
      </trkpt>
      <trkpt lat="42.96162935905158519744873046875" lon="-1.0162661969661712646484375">
        <ele>1209</ele>
        <time>2020-08-21T08:26:25.000Z</time>
      </trkpt>
      <trkpt lat="42.96171166934072971343994140625" lon="-1.0163267143070697784423828125">
        <ele>1208.4000244140625</ele>
        <time>2020-08-21T08:26:27.000Z</time>
      </trkpt>
      <trkpt lat="42.961757518351078033447265625" lon="-1.01635429076850414276123046875">
        <ele>1208.4000244140625</ele>
        <time>2020-08-21T08:26:28.000Z</time>
      </trkpt>
      <trkpt lat="42.96185416169464588165283203125" lon="-1.016400642693042755126953125">
        <ele>1207.800048828125</ele>
        <time>2020-08-21T08:26:30.000Z</time>
      </trkpt>
      <trkpt lat="42.961906380951404571533203125" lon="-1.0164162330329418182373046875">
        <ele>1207.800048828125</ele>
        <time>2020-08-21T08:26:31.000Z</time>
      </trkpt>
      <trkpt lat="42.96195457689464092254638671875" lon="-1.0164296440780162811279296875">
        <ele>1207.4000244140625</ele>
        <time>2020-08-21T08:26:32.000Z</time>
      </trkpt>
      <trkpt lat="42.962000928819179534912109375" lon="-1.0164386965334415435791015625">
        <ele>1206.5999755859375</ele>
        <time>2020-08-21T08:26:33.000Z</time>
      </trkpt>
      <trkpt lat="42.9620892740786075592041015625" lon="-1.016449593007564544677734375">
        <ele>1205.4000244140625</ele>
        <time>2020-08-21T08:26:35.000Z</time>
      </trkpt>
      <trkpt lat="42.96218155883252620697021484375" lon="-1.01643383502960205078125">
        <ele>1204.5999755859375</ele>
        <time>2020-08-21T08:26:37.000Z</time>
      </trkpt>
      <trkpt lat="42.96222548000514507293701171875" lon="-1.01641531102359294891357421875">
        <ele>1204</ele>
        <time>2020-08-21T08:26:38.000Z</time>
      </trkpt>
      <trkpt lat="42.96230024658143520355224609375" lon="-1.01635663770139217376708984375">
        <ele>1203.199951171875</ele>
        <time>2020-08-21T08:26:40.000Z</time>
      </trkpt>
      <trkpt lat="42.96233193017542362213134765625" lon="-1.016322858631610870361328125">
        <ele>1202.5999755859375</ele>
        <time>2020-08-21T08:26:41.000Z</time>
      </trkpt>
      <trkpt lat="42.96242304146289825439453125" lon="-1.01611800491809844970703125">
        <ele>1202</ele>
        <time>2020-08-21T08:26:45.000Z</time>
      </trkpt>
      <trkpt lat="42.96245195902884006500244140625" lon="-1.015996634960174560546875">
        <ele>1201.4000244140625</ele>
        <time>2020-08-21T08:26:47.000Z</time>
      </trkpt>
      <trkpt lat="42.96248246915638446807861328125" lon="-1.0158643685281276702880859375">
        <ele>1199.5999755859375</ele>
        <time>2020-08-21T08:26:49.000Z</time>
      </trkpt>
      <trkpt lat="42.96252018772065639495849609375" lon="-1.01572908461093902587890625">
        <ele>1198.800048828125</ele>
        <time>2020-08-21T08:26:51.000Z</time>
      </trkpt>
      <trkpt lat="42.96254131011664867401123046875" lon="-1.01567275822162628173828125">
        <ele>1198.800048828125</ele>
        <time>2020-08-21T08:26:52.000Z</time>
      </trkpt>
      <trkpt lat="42.962584309279918670654296875" lon="-1.0155723430216312408447265625">
        <ele>1198.4000244140625</ele>
        <time>2020-08-21T08:26:54.000Z</time>
      </trkpt>
      <trkpt lat="42.9626049287617206573486328125" lon="-1.0155240632593631744384765625">
        <ele>1197.800048828125</ele>
        <time>2020-08-21T08:26:55.000Z</time>
      </trkpt>
      <trkpt lat="42.96263954602181911468505859375" lon="-1.01542775519192218780517578125">
        <ele>1197</ele>
        <time>2020-08-21T08:26:57.000Z</time>
      </trkpt>
      <trkpt lat="42.96265496872365474700927734375" lon="-1.015374362468719482421875">
        <ele>1196.4000244140625</ele>
        <time>2020-08-21T08:26:58.000Z</time>
      </trkpt>
      <trkpt lat="42.96266846358776092529296875" lon="-1.01532029919326305389404296875">
        <ele>1195.800048828125</ele>
        <time>2020-08-21T08:26:59.000Z</time>
      </trkpt>
      <trkpt lat="42.96269922517240047454833984375" lon="-1.01514411158859729766845703125">
        <ele>1194.5999755859375</ele>
        <time>2020-08-21T08:27:02.000Z</time>
      </trkpt>
      <trkpt lat="42.96271464787423610687255859375" lon="-1.0150362364947795867919921875">
        <ele>1194</ele>
        <time>2020-08-21T08:27:04.000Z</time>
      </trkpt>
      <trkpt lat="42.96271741390228271484375" lon="-1.01492970250546932220458984375">
        <ele>1193.4000244140625</ele>
        <time>2020-08-21T08:27:06.000Z</time>
      </trkpt>
      <trkpt lat="42.96271548606455326080322265625" lon="-1.01470657624304294586181640625">
        <ele>1192.5999755859375</ele>
        <time>2020-08-21T08:27:10.000Z</time>
      </trkpt>
      <trkpt lat="42.96271883882582187652587890625" lon="-1.01464622654020786285400390625">
        <ele>1192</ele>
        <time>2020-08-21T08:27:11.000Z</time>
      </trkpt>
      <trkpt lat="42.9627195931971073150634765625" lon="-1.01458587683737277984619140625">
        <ele>1191.4000244140625</ele>
        <time>2020-08-21T08:27:12.000Z</time>
      </trkpt>
      <trkpt lat="42.96271699480712413787841796875" lon="-1.0145262815058231353759765625">
        <ele>1190.5999755859375</ele>
        <time>2020-08-21T08:27:13.000Z</time>
      </trkpt>
      <trkpt lat="42.96271045692265033721923828125" lon="-1.0144065879285335540771484375">
        <ele>1190</ele>
        <time>2020-08-21T08:27:15.000Z</time>
      </trkpt>
      <trkpt lat="42.962716408073902130126953125" lon="-1.01434263400733470916748046875">
        <ele>1190</ele>
        <time>2020-08-21T08:27:16.000Z</time>
      </trkpt>
      <trkpt lat="42.96272219158709049224853515625" lon="-1.01422159932553768157958984375">
        <ele>1189.800048828125</ele>
        <time>2020-08-21T08:27:18.000Z</time>
      </trkpt>
      <trkpt lat="42.96272076666355133056640625" lon="-1.01416560821235179901123046875">
        <ele>1189.5999755859375</ele>
        <time>2020-08-21T08:27:19.000Z</time>
      </trkpt>
      <trkpt lat="42.962722443044185638427734375" lon="-1.0141038335859775543212890625">
        <ele>1189</ele>
        <time>2020-08-21T08:27:20.000Z</time>
      </trkpt>
      <trkpt lat="42.96272755600512027740478515625" lon="-1.01404742337763309478759765625">
        <ele>1188.199951171875</ele>
        <time>2020-08-21T08:27:21.000Z</time>
      </trkpt>
      <trkpt lat="42.96274415217339992523193359375" lon="-1.0139972157776355743408203125">
        <ele>1187.5999755859375</ele>
        <time>2020-08-21T08:27:22.000Z</time>
      </trkpt>
      <trkpt lat="42.96276845969259738922119140625" lon="-1.0139536298811435699462890625">
        <ele>1187</ele>
        <time>2020-08-21T08:27:23.000Z</time>
      </trkpt>
      <trkpt lat="42.96282671391963958740234375" lon="-1.01388506591320037841796875">
        <ele>1186.800048828125</ele>
        <time>2020-08-21T08:27:25.000Z</time>
      </trkpt>
      <trkpt lat="42.96286434866487979888916015625" lon="-1.01385296322405338287353515625">
        <ele>1186.4000244140625</ele>
        <time>2020-08-21T08:27:26.000Z</time>
      </trkpt>
      <trkpt lat="42.962983958423137664794921875" lon="-1.013773418962955474853515625">
        <ele>1186.5999755859375</ele>
        <time>2020-08-21T08:27:29.000Z</time>
      </trkpt>
      <trkpt lat="42.96300985850393772125244140625" lon="-1.0137289948761463165283203125">
        <ele>1186.199951171875</ele>
        <time>2020-08-21T08:27:30.000Z</time>
      </trkpt>
      <trkpt lat="42.96302913688123226165771484375" lon="-1.01367987692356109619140625">
        <ele>1185.800048828125</ele>
        <time>2020-08-21T08:27:31.000Z</time>
      </trkpt>
      <trkpt lat="42.96305604279041290283203125" lon="-1.01356948725879192352294921875">
        <ele>1184.4000244140625</ele>
        <time>2020-08-21T08:27:33.000Z</time>
      </trkpt>
      <trkpt lat="42.96306333504617214202880859375" lon="-1.01345666684210300445556640625">
        <ele>1182.800048828125</ele>
        <time>2020-08-21T08:27:35.000Z</time>
      </trkpt>
      <trkpt lat="42.9630387760698795318603515625" lon="-1.01322767324745655059814453125">
        <ele>1181.800048828125</ele>
        <time>2020-08-21T08:27:39.000Z</time>
      </trkpt>
      <trkpt lat="42.96303550712764263153076171875" lon="-1.01316623389720916748046875">
        <ele>1181.5999755859375</ele>
        <time>2020-08-21T08:27:40.000Z</time>
      </trkpt>
      <trkpt lat="42.96303316019475460052490234375" lon="-1.01299465633928775787353515625">
        <ele>1180.800048828125</ele>
        <time>2020-08-21T08:27:43.000Z</time>
      </trkpt>
      <trkpt lat="42.963029555976390838623046875" lon="-1.0128804109990596771240234375">
        <ele>1179.5999755859375</ele>
        <time>2020-08-21T08:27:45.000Z</time>
      </trkpt>
      <trkpt lat="42.96304087154567241668701171875" lon="-1.01275811903178691864013671875">
        <ele>1179.199951171875</ele>
        <time>2020-08-21T08:27:47.000Z</time>
      </trkpt>
      <trkpt lat="42.96305092982947826385498046875" lon="-1.012697182595729827880859375">
        <ele>1179</ele>
        <time>2020-08-21T08:27:48.000Z</time>
      </trkpt>
      <trkpt lat="42.96307104639708995819091796875" lon="-1.01264127530157566070556640625">
        <ele>1178.5999755859375</ele>
        <time>2020-08-21T08:27:49.000Z</time>
      </trkpt>
      <trkpt lat="42.96311999671161174774169921875" lon="-1.01253725588321685791015625">
        <ele>1178</ele>
        <time>2020-08-21T08:27:51.000Z</time>
      </trkpt>
      <trkpt lat="42.9631477408111095428466796875" lon="-1.0124911554157733917236328125">
        <ele>1177.800048828125</ele>
        <time>2020-08-21T08:27:52.000Z</time>
      </trkpt>
      <trkpt lat="42.96317280270159244537353515625" lon="-1.01244765333831310272216796875">
        <ele>1177.5999755859375</ele>
        <time>2020-08-21T08:27:53.000Z</time>
      </trkpt>
      <trkpt lat="42.96323080547153949737548828125" lon="-1.01237171329557895660400390625">
        <ele>1177.199951171875</ele>
        <time>2020-08-21T08:27:55.000Z</time>
      </trkpt>
      <trkpt lat="42.9633086733520030975341796875" lon="-1.01230700500309467315673828125">
        <ele>1176.4000244140625</ele>
        <time>2020-08-21T08:27:57.000Z</time>
      </trkpt>
      <trkpt lat="42.963397018611431121826171875" lon="-1.01226878352463245391845703125">
        <ele>1176</ele>
        <time>2020-08-21T08:27:59.000Z</time>
      </trkpt>
      <trkpt lat="42.96348779462277889251708984375" lon="-1.012273393571376800537109375">
        <ele>1174.5999755859375</ele>
        <time>2020-08-21T08:28:01.000Z</time>
      </trkpt>
      <trkpt lat="42.9635527543723583221435546875" lon="-1.01234723813831806182861328125">
        <ele>1173.4000244140625</ele>
        <time>2020-08-21T08:28:03.000Z</time>
      </trkpt>
      <trkpt lat="42.963571362197399139404296875" lon="-1.01240339688956737518310546875">
        <ele>1173</ele>
        <time>2020-08-21T08:28:04.000Z</time>
      </trkpt>
      <trkpt lat="42.9635936580598354339599609375" lon="-1.012535579502582550048828125">
        <ele>1172.4000244140625</ele>
        <time>2020-08-21T08:28:06.000Z</time>
      </trkpt>
      <trkpt lat="42.9636084102094173431396484375" lon="-1.0126007907092571258544921875">
        <ele>1172.199951171875</ele>
        <time>2020-08-21T08:28:07.000Z</time>
      </trkpt>
      <trkpt lat="42.96364973299205303192138671875" lon="-1.01272366940975189208984375">
        <ele>1171.199951171875</ele>
        <time>2020-08-21T08:28:09.000Z</time>
      </trkpt>
      <trkpt lat="42.9637110047042369842529296875" lon="-1.0128398425877094268798828125">
        <ele>1170.4000244140625</ele>
        <time>2020-08-21T08:28:11.000Z</time>
      </trkpt>
      <trkpt lat="42.96374998055398464202880859375" lon="-1.01288887672126293182373046875">
        <ele>1170</ele>
        <time>2020-08-21T08:28:12.000Z</time>
      </trkpt>
      <trkpt lat="42.96382424421608448028564453125" lon="-1.01298895664513111114501953125">
        <ele>1169.5999755859375</ele>
        <time>2020-08-21T08:28:14.000Z</time>
      </trkpt>
      <trkpt lat="42.963891886174678802490234375" lon="-1.01311652921140193939208984375">
        <ele>1168.5999755859375</ele>
        <time>2020-08-21T08:28:16.000Z</time>
      </trkpt>
      <trkpt lat="42.96394209377467632293701171875" lon="-1.01325131021440029144287109375">
        <ele>1168</ele>
        <time>2020-08-21T08:28:18.000Z</time>
      </trkpt>
      <trkpt lat="42.96396489255130290985107421875" lon="-1.0133162699639797210693359375">
        <ele>1167.199951171875</ele>
        <time>2020-08-21T08:28:19.000Z</time>
      </trkpt>
      <trkpt lat="42.96401082538068294525146484375" lon="-1.0134471952915191650390625">
        <ele>1166</ele>
        <time>2020-08-21T08:28:21.000Z</time>
      </trkpt>
      <trkpt lat="42.96402993611991405487060546875" lon="-1.01351349614560604095458984375">
        <ele>1165.5999755859375</ele>
        <time>2020-08-21T08:28:22.000Z</time>
      </trkpt>
      <trkpt lat="42.96406011097133159637451171875" lon="-1.01365506649017333984375">
        <ele>1165</ele>
        <time>2020-08-21T08:28:24.000Z</time>
      </trkpt>
      <trkpt lat="42.96407871879637241363525390625" lon="-1.01380057632923126220703125">
        <ele>1163.4000244140625</ele>
        <time>2020-08-21T08:28:26.000Z</time>
      </trkpt>
      <trkpt lat="42.9640774615108966827392578125" lon="-1.0140243731439113616943359375">
        <ele>1162</ele>
        <time>2020-08-21T08:28:29.000Z</time>
      </trkpt>
      <trkpt lat="42.964078299701213836669921875" lon="-1.014240793883800506591796875">
        <ele>1160.800048828125</ele>
        <time>2020-08-21T08:28:32.000Z</time>
      </trkpt>
      <trkpt lat="42.9640794731676578521728515625" lon="-1.01431245915591716766357421875">
        <ele>1160.4000244140625</ele>
        <time>2020-08-21T08:28:33.000Z</time>
      </trkpt>
      <trkpt lat="42.96408492140471935272216796875" lon="-1.01438303478062152862548828125">
        <ele>1160</ele>
        <time>2020-08-21T08:28:34.000Z</time>
      </trkpt>
      <trkpt lat="42.96409296803176403045654296875" lon="-1.014451682567596435546875">
        <ele>1159.800048828125</ele>
        <time>2020-08-21T08:28:35.000Z</time>
      </trkpt>
      <trkpt lat="42.96410612761974334716796875" lon="-1.01451865397393703460693359375">
        <ele>1159.5999755859375</ele>
        <time>2020-08-21T08:28:36.000Z</time>
      </trkpt>
      <trkpt lat="42.964122556149959564208984375" lon="-1.014588139951229095458984375">
        <ele>1158.5999755859375</ele>
        <time>2020-08-21T08:28:37.000Z</time>
      </trkpt>
      <trkpt lat="42.96416270546615123748779296875" lon="-1.014723591506481170654296875">
        <ele>1157.199951171875</ele>
        <time>2020-08-21T08:28:39.000Z</time>
      </trkpt>
      <trkpt lat="42.9641974903643131256103515625" lon="-1.01484839804470539093017578125">
        <ele>1156.800048828125</ele>
        <time>2020-08-21T08:28:41.000Z</time>
      </trkpt>
      <trkpt lat="42.96424937434494495391845703125" lon="-1.01496021263301372528076171875">
        <ele>1156.199951171875</ele>
        <time>2020-08-21T08:28:43.000Z</time>
      </trkpt>
      <trkpt lat="42.96431156806647777557373046875" lon="-1.0150566883385181427001953125">
        <ele>1156</ele>
        <time>2020-08-21T08:28:45.000Z</time>
      </trkpt>
      <trkpt lat="42.9644194431602954864501953125" lon="-1.0151827521622180938720703125">
        <ele>1155</ele>
        <time>2020-08-21T08:28:48.000Z</time>
      </trkpt>
      <trkpt lat="42.9644533060491085052490234375" lon="-1.01522524841129779815673828125">
        <ele>1154</ele>
        <time>2020-08-21T08:28:49.000Z</time>
      </trkpt>
      <trkpt lat="42.96451793052256107330322265625" lon="-1.01538349874317646026611328125">
        <ele>1152.800048828125</ele>
        <time>2020-08-21T08:28:52.000Z</time>
      </trkpt>
      <trkpt lat="42.96452966518700122833251953125" lon="-1.0154466144740581512451171875">
        <ele>1152</ele>
        <time>2020-08-21T08:28:53.000Z</time>
      </trkpt>
      <trkpt lat="42.96454173512756824493408203125" lon="-1.01551375351846218109130859375">
        <ele>1151.4000244140625</ele>
        <time>2020-08-21T08:28:54.000Z</time>
      </trkpt>
      <trkpt lat="42.9645552299916744232177734375" lon="-1.01558064110577106475830078125">
        <ele>1150.800048828125</ele>
        <time>2020-08-21T08:28:55.000Z</time>
      </trkpt>
      <trkpt lat="42.96457341872155666351318359375" lon="-1.015641577541828155517578125">
        <ele>1150.4000244140625</ele>
        <time>2020-08-21T08:28:56.000Z</time>
      </trkpt>
      <trkpt lat="42.96461842954158782958984375" lon="-1.01575062610208988189697265625">
        <ele>1148.4000244140625</ele>
        <time>2020-08-21T08:28:58.000Z</time>
      </trkpt>
      <trkpt lat="42.96464298851788043975830078125" lon="-1.01580678485333919525146484375">
        <ele>1147.800048828125</ele>
        <time>2020-08-21T08:28:59.000Z</time>
      </trkpt>
      <trkpt lat="42.96469260938465595245361328125" lon="-1.01591826416552066802978515625">
        <ele>1147.5999755859375</ele>
        <time>2020-08-21T08:29:01.000Z</time>
      </trkpt>
      <trkpt lat="42.96473351307213306427001953125" lon="-1.0160367004573345184326171875">
        <ele>1147.4000244140625</ele>
        <time>2020-08-21T08:29:03.000Z</time>
      </trkpt>
      <trkpt lat="42.96475228853523731231689453125" lon="-1.01609713397920131683349609375">
        <ele>1147.199951171875</ele>
        <time>2020-08-21T08:29:04.000Z</time>
      </trkpt>
      <trkpt lat="42.96477072872221469879150390625" lon="-1.0162284784018993377685546875">
        <ele>1146</ele>
        <time>2020-08-21T08:29:06.000Z</time>
      </trkpt>
      <trkpt lat="42.96477559022605419158935546875" lon="-1.01635077036917209625244140625">
        <ele>1145.5999755859375</ele>
        <time>2020-08-21T08:29:08.000Z</time>
      </trkpt>
      <trkpt lat="42.96477961353957653045654296875" lon="-1.01640542037785053253173828125">
        <ele>1145.4000244140625</ele>
        <time>2020-08-21T08:29:09.000Z</time>
      </trkpt>
      <trkpt lat="42.96478916890919208526611328125" lon="-1.01646191440522670745849609375">
        <ele>1145.199951171875</ele>
        <time>2020-08-21T08:29:10.000Z</time>
      </trkpt>
      <trkpt lat="42.96481783501803874969482421875" lon="-1.01658445782959461212158203125">
        <ele>1145.199951171875</ele>
        <time>2020-08-21T08:29:12.000Z</time>
      </trkpt>
      <trkpt lat="42.96483694575726985931396484375" lon="-1.01664179004728794097900390625">
        <ele>1144.5999755859375</ele>
        <time>2020-08-21T08:29:13.000Z</time>
      </trkpt>
      <trkpt lat="42.9648806154727935791015625" lon="-1.0167565383017063140869140625">
        <ele>1144</ele>
        <time>2020-08-21T08:29:15.000Z</time>
      </trkpt>
      <trkpt lat="42.96489763073623180389404296875" lon="-1.016879417002201080322265625">
        <ele>1143.4000244140625</ele>
        <time>2020-08-21T08:29:17.000Z</time>
      </trkpt>
      <trkpt lat="42.96489335596561431884765625" lon="-1.0169409401714801788330078125">
        <ele>1143</ele>
        <time>2020-08-21T08:29:18.000Z</time>
      </trkpt>
      <trkpt lat="42.96486862935125827789306640625" lon="-1.01705719716846942901611328125">
        <ele>1142.800048828125</ele>
        <time>2020-08-21T08:29:20.000Z</time>
      </trkpt>
      <trkpt lat="42.9648536257445812225341796875" lon="-1.017114110291004180908203125">
        <ele>1142.199951171875</ele>
        <time>2020-08-21T08:29:21.000Z</time>
      </trkpt>
      <trkpt lat="42.9648294858634471893310546875" lon="-1.017234139144420623779296875">
        <ele>1141.4000244140625</ele>
        <time>2020-08-21T08:29:23.000Z</time>
      </trkpt>
      <trkpt lat="42.96482386998832225799560546875" lon="-1.0173583589494228363037109375">
        <ele>1141</ele>
        <time>2020-08-21T08:29:25.000Z</time>
      </trkpt>
      <trkpt lat="42.9648375324904918670654296875" lon="-1.0174817405641078948974609375">
        <ele>1140.199951171875</ele>
        <time>2020-08-21T08:29:27.000Z</time>
      </trkpt>
      <trkpt lat="42.96484482474625110626220703125" lon="-1.0175404138863086700439453125">
        <ele>1139.800048828125</ele>
        <time>2020-08-21T08:29:28.000Z</time>
      </trkpt>
      <trkpt lat="42.96486326493322849273681640625" lon="-1.0176671482622623443603515625">
        <ele>1138.5999755859375</ele>
        <time>2020-08-21T08:29:30.000Z</time>
      </trkpt>
      <trkpt lat="42.96487885527312755584716796875" lon="-1.01780318655073642730712890625">
        <ele>1137</ele>
        <time>2020-08-21T08:29:32.000Z</time>
      </trkpt>
      <trkpt lat="42.9648841358721256256103515625" lon="-1.01787158288061618804931640625">
        <ele>1136.5999755859375</ele>
        <time>2020-08-21T08:29:33.000Z</time>
      </trkpt>
      <trkpt lat="42.9648878239095211029052734375" lon="-1.0180034302175045013427734375">
        <ele>1136</ele>
        <time>2020-08-21T08:29:35.000Z</time>
      </trkpt>
      <trkpt lat="42.964892685413360595703125" lon="-1.0182045958936214447021484375">
        <ele>1135.5999755859375</ele>
        <time>2020-08-21T08:29:38.000Z</time>
      </trkpt>
      <trkpt lat="42.96489243395626544952392578125" lon="-1.01826754398643970489501953125">
        <ele>1135</ele>
        <time>2020-08-21T08:29:39.000Z</time>
      </trkpt>
      <trkpt lat="42.96489008702337741851806640625" lon="-1.01833359338343143463134765625">
        <ele>1134.4000244140625</ele>
        <time>2020-08-21T08:29:40.000Z</time>
      </trkpt>
      <trkpt lat="42.96489142812788486480712890625" lon="-1.01846938021481037139892578125">
        <ele>1133</ele>
        <time>2020-08-21T08:29:42.000Z</time>
      </trkpt>
      <trkpt lat="42.964896373450756072998046875" lon="-1.01854247041046619415283203125">
        <ele>1132.5999755859375</ele>
        <time>2020-08-21T08:29:43.000Z</time>
      </trkpt>
      <trkpt lat="42.9648955352604389190673828125" lon="-1.01869502104818820953369140625">
        <ele>1131.5999755859375</ele>
        <time>2020-08-21T08:29:45.000Z</time>
      </trkpt>
      <trkpt lat="42.96487885527312755584716796875" lon="-1.01885410957038402557373046875">
        <ele>1130.5999755859375</ele>
        <time>2020-08-21T08:29:47.000Z</time>
      </trkpt>
      <trkpt lat="42.96487282030284404754638671875" lon="-1.01892150007188320159912109375">
        <ele>1130.199951171875</ele>
        <time>2020-08-21T08:29:48.000Z</time>
      </trkpt>
      <trkpt lat="42.96485924161970615386962890625" lon="-1.0190449655055999755859375">
        <ele>1129.4000244140625</ele>
        <time>2020-08-21T08:29:50.000Z</time>
      </trkpt>
      <trkpt lat="42.9648382030427455902099609375" lon="-1.0191634856164455413818359375">
        <ele>1128.4000244140625</ele>
        <time>2020-08-21T08:29:52.000Z</time>
      </trkpt>
      <trkpt lat="42.96481850557029247283935546875" lon="-1.01928695105016231536865234375">
        <ele>1127.5999755859375</ele>
        <time>2020-08-21T08:29:54.000Z</time>
      </trkpt>
      <trkpt lat="42.96480526216328144073486328125" lon="-1.0193559341132640838623046875">
        <ele>1127.4000244140625</ele>
        <time>2020-08-21T08:29:55.000Z</time>
      </trkpt>
      <trkpt lat="42.9647775180637836456298828125" lon="-1.01948878727853298187255859375">
        <ele>1127</ele>
        <time>2020-08-21T08:29:57.000Z</time>
      </trkpt>
      <trkpt lat="42.96474021859467029571533203125" lon="-1.01968626491725444793701171875">
        <ele>1126</ele>
        <time>2020-08-21T08:30:00.000Z</time>
      </trkpt>
      <trkpt lat="42.96472630463540554046630859375" lon="-1.01975382305681705474853515625">
        <ele>1124.800048828125</ele>
        <time>2020-08-21T08:30:01.000Z</time>
      </trkpt>
      <trkpt lat="42.96468414366245269775390625" lon="-1.019965969026088714599609375">
        <ele>1123.4000244140625</ele>
        <time>2020-08-21T08:30:04.000Z</time>
      </trkpt>
      <trkpt lat="42.964657656848430633544921875" lon="-1.0201056115329265594482421875">
        <ele>1122.5999755859375</ele>
        <time>2020-08-21T08:30:06.000Z</time>
      </trkpt>
      <trkpt lat="42.9646427370607852935791015625" lon="-1.0201714932918548583984375">
        <ele>1122</ele>
        <time>2020-08-21T08:30:07.000Z</time>
      </trkpt>
      <trkpt lat="42.96459035016596317291259765625" lon="-1.0204123891890048980712890625">
        <ele>1121</ele>
        <time>2020-08-21T08:30:11.000Z</time>
      </trkpt>
      <trkpt lat="42.96458221971988677978515625" lon="-1.0205126367509365081787109375">
        <ele>1120.4000244140625</ele>
        <time>2020-08-21T08:30:13.000Z</time>
      </trkpt>
      <trkpt lat="42.96459320001304149627685546875" lon="-1.020609699189662933349609375">
        <ele>1119.5999755859375</ele>
        <time>2020-08-21T08:30:15.000Z</time>
      </trkpt>
      <trkpt lat="42.9646192677319049835205078125" lon="-1.0206910036504268646240234375">
        <ele>1118.4000244140625</ele>
        <time>2020-08-21T08:30:17.000Z</time>
      </trkpt>
      <trkpt lat="42.96463787555694580078125" lon="-1.0207238607108592987060546875">
        <ele>1118.199951171875</ele>
        <time>2020-08-21T08:30:18.000Z</time>
      </trkpt>
      <trkpt lat="42.96472982503473758697509765625" lon="-1.0207825340330600738525390625">
        <ele>1117.4000244140625</ele>
        <time>2020-08-21T08:30:22.000Z</time>
      </trkpt>
      <trkpt lat="42.964754886925220489501953125" lon="-1.0207838751375675201416015625">
        <ele>1117</ele>
        <time>2020-08-21T08:30:23.000Z</time>
      </trkpt>
      <trkpt lat="42.96483376063406467437744140625" lon="-1.02076468057930469512939453125">
        <ele>1116.199951171875</ele>
        <time>2020-08-21T08:30:26.000Z</time>
      </trkpt>
      <trkpt lat="42.9648972116410732269287109375" lon="-1.0207342542707920074462890625">
        <ele>1115.800048828125</ele>
        <time>2020-08-21T08:30:28.000Z</time>
      </trkpt>
      <trkpt lat="42.964989580214023590087890625" lon="-1.0206946916878223419189453125">
        <ele>1115</ele>
        <time>2020-08-21T08:30:31.000Z</time>
      </trkpt>
      <trkpt lat="42.96507314778864383697509765625" lon="-1.02065135724842548370361328125">
        <ele>1113.4000244140625</ele>
        <time>2020-08-21T08:30:34.000Z</time>
      </trkpt>
      <trkpt lat="42.9651855491101741790771484375" lon="-1.02058446966111660003662109375">
        <ele>1112.4000244140625</ele>
        <time>2020-08-21T08:30:38.000Z</time>
      </trkpt>
      <trkpt lat="42.96524472534656524658203125" lon="-1.02055815048515796661376953125">
        <ele>1111.4000244140625</ele>
        <time>2020-08-21T08:30:40.000Z</time>
      </trkpt>
      <trkpt lat="42.9652770794928073883056640625" lon="-1.02054155431687831878662109375">
        <ele>1111</ele>
        <time>2020-08-21T08:30:41.000Z</time>
      </trkpt>
      <trkpt lat="42.96538042835891246795654296875" lon="-1.02047969587147235870361328125">
        <ele>1110.199951171875</ele>
        <time>2020-08-21T08:30:44.000Z</time>
      </trkpt>
      <trkpt lat="42.96541596762835979461669921875" lon="-1.02046293206512928009033203125">
        <ele>1109.5999755859375</ele>
        <time>2020-08-21T08:30:45.000Z</time>
      </trkpt>
      <trkpt lat="42.96551805920898914337158203125" lon="-1.020396463572978973388671875">
        <ele>1108.4000244140625</ele>
        <time>2020-08-21T08:30:48.000Z</time>
      </trkpt>
      <trkpt lat="42.96558536589145660400390625" lon="-1.020347177982330322265625">
        <ele>1108.199951171875</ele>
        <time>2020-08-21T08:30:50.000Z</time>
      </trkpt>
      <trkpt lat="42.96565937809646129608154296875" lon="-1.02029143832623958587646484375">
        <ele>1107.4000244140625</ele>
        <time>2020-08-21T08:30:52.000Z</time>
      </trkpt>
      <trkpt lat="42.965764068067073822021484375" lon="-1.02020996622741222381591796875">
        <ele>1106.800048828125</ele>
        <time>2020-08-21T08:30:55.000Z</time>
      </trkpt>
      <trkpt lat="42.96591619960963726043701171875" lon="-1.020035035908222198486328125">
        <ele>1106.199951171875</ele>
        <time>2020-08-21T08:30:59.000Z</time>
      </trkpt>
      <trkpt lat="42.96594670973718166351318359375" lon="-1.01998818106949329376220703125">
        <ele>1105.5999755859375</ele>
        <time>2020-08-21T08:31:00.000Z</time>
      </trkpt>
      <trkpt lat="42.965976633131504058837890625" lon="-1.01994560100138187408447265625">
        <ele>1105</ele>
        <time>2020-08-21T08:31:01.000Z</time>
      </trkpt>
      <trkpt lat="42.9660446941852569580078125" lon="-1.0198558308184146881103515625">
        <ele>1104</ele>
        <time>2020-08-21T08:31:03.000Z</time>
      </trkpt>
      <trkpt lat="42.96608584932982921600341796875" lon="-1.01981350220739841461181640625">
        <ele>1103.5999755859375</ele>
        <time>2020-08-21T08:31:04.000Z</time>
      </trkpt>
      <trkpt lat="42.9661296866834163665771484375" lon="-1.019777543842792510986328125">
        <ele>1103.199951171875</ele>
        <time>2020-08-21T08:31:05.000Z</time>
      </trkpt>
      <trkpt lat="42.966221384704113006591796875" lon="-1.0197210498154163360595703125">
        <ele>1103</ele>
        <time>2020-08-21T08:31:07.000Z</time>
      </trkpt>
      <trkpt lat="42.96631299890577793121337890625" lon="-1.01968157105147838592529296875">
        <ele>1102.4000244140625</ele>
        <time>2020-08-21T08:31:09.000Z</time>
      </trkpt>
      <trkpt lat="42.9663590155541896820068359375" lon="-1.019676290452480316162109375">
        <ele>1102</ele>
        <time>2020-08-21T08:31:10.000Z</time>
      </trkpt>
      <trkpt lat="42.96640184707939624786376953125" lon="-1.01968291215598583221435546875">
        <ele>1101.199951171875</ele>
        <time>2020-08-21T08:31:11.000Z</time>
      </trkpt>
      <trkpt lat="42.96647544018924236297607421875" lon="-1.01973873563110828399658203125">
        <ele>1100.4000244140625</ele>
        <time>2020-08-21T08:31:13.000Z</time>
      </trkpt>
      <trkpt lat="42.96650595031678676605224609375" lon="-1.0197800584137439727783203125">
        <ele>1099.800048828125</ele>
        <time>2020-08-21T08:31:14.000Z</time>
      </trkpt>
      <trkpt lat="42.96653880737721920013427734375" lon="-1.01990670897066593170166015625">
        <ele>1099.199951171875</ele>
        <time>2020-08-21T08:31:16.000Z</time>
      </trkpt>
      <trkpt lat="42.966534532606601715087890625" lon="-1.019982732832431793212890625">
        <ele>1098.5999755859375</ele>
        <time>2020-08-21T08:31:17.000Z</time>
      </trkpt>
      <trkpt lat="42.9664907790720462799072265625" lon="-1.0200878418982028961181640625">
        <ele>1098.199951171875</ele>
        <time>2020-08-21T08:31:19.000Z</time>
      </trkpt>
      <trkpt lat="42.96638441272079944610595703125" lon="-1.02020108141005039215087890625">
        <ele>1097.199951171875</ele>
        <time>2020-08-21T08:31:22.000Z</time>
      </trkpt>
      <trkpt lat="42.96630780212581157684326171875" lon="-1.0202653706073760986328125">
        <ele>1096.5999755859375</ele>
        <time>2020-08-21T08:31:24.000Z</time>
      </trkpt>
      <trkpt lat="42.96627108938992023468017578125" lon="-1.020297892391681671142578125">
        <ele>1095.800048828125</ele>
        <time>2020-08-21T08:31:25.000Z</time>
      </trkpt>
      <trkpt lat="42.96623789705336093902587890625" lon="-1.0203352756798267364501953125">
        <ele>1095.4000244140625</ele>
        <time>2020-08-21T08:31:26.000Z</time>
      </trkpt>
      <trkpt lat="42.96611200086772441864013671875" lon="-1.02051322348415851593017578125">
        <ele>1094.800048828125</ele>
        <time>2020-08-21T08:31:30.000Z</time>
      </trkpt>
      <trkpt lat="42.96602332033216953277587890625" lon="-1.02066971361637115478515625">
        <ele>1093.5999755859375</ele>
        <time>2020-08-21T08:31:33.000Z</time>
      </trkpt>
      <trkpt lat="42.96599297784268856048583984375" lon="-1.0207134671509265899658203125">
        <ele>1093.4000244140625</ele>
        <time>2020-08-21T08:31:34.000Z</time>
      </trkpt>
      <trkpt lat="42.96593128703534603118896484375" lon="-1.02079904638230800628662109375">
        <ele>1092.800048828125</ele>
        <time>2020-08-21T08:31:36.000Z</time>
      </trkpt>
      <trkpt lat="42.965900860726833343505859375" lon="-1.02084062062203884124755859375">
        <ele>1092.5999755859375</ele>
        <time>2020-08-21T08:31:37.000Z</time>
      </trkpt>
      <trkpt lat="42.96580589376389980316162109375" lon="-1.02096366696059703826904296875">
        <ele>1092.199951171875</ele>
        <time>2020-08-21T08:31:41.000Z</time>
      </trkpt>
      <trkpt lat="42.9657917283475399017333984375" lon="-1.0209761559963226318359375">
        <ele>1091.5999755859375</ele>
        <time>2020-08-21T08:31:45.000Z</time>
      </trkpt>
      <trkpt lat="42.965790219604969024658203125" lon="-1.0209749825298786163330078125">
        <ele>1092</ele>
        <time>2020-08-21T08:32:04.000Z</time>
      </trkpt>
      <trkpt lat="42.9657411016523838043212890625" lon="-1.0210463963449001312255859375">
        <ele>1091.5999755859375</ele>
        <time>2020-08-21T08:32:10.000Z</time>
      </trkpt>
      <trkpt lat="42.9656101763248443603515625" lon="-1.02118025533854961395263671875">
        <ele>1090.800048828125</ele>
        <time>2020-08-21T08:32:16.000Z</time>
      </trkpt>
      <trkpt lat="42.965581007301807403564453125" lon="-1.02120347321033477783203125">
        <ele>1090.5999755859375</ele>
        <time>2020-08-21T08:32:17.000Z</time>
      </trkpt>
      <trkpt lat="42.96538545750081539154052734375" lon="-1.0213514976203441619873046875">
        <ele>1090.199951171875</ele>
        <time>2020-08-21T08:32:23.000Z</time>
      </trkpt>
      <trkpt lat="42.965280599892139434814453125" lon="-1.02148971520364284515380859375">
        <ele>1089.4000244140625</ele>
        <time>2020-08-21T08:32:27.000Z</time>
      </trkpt>
      <trkpt lat="42.965257465839385986328125" lon="-1.02152944542467594146728515625">
        <ele>1089.199951171875</ele>
        <time>2020-08-21T08:32:28.000Z</time>
      </trkpt>
      <trkpt lat="42.965132407844066619873046875" lon="-1.02168668992817401885986328125">
        <ele>1088.4000244140625</ele>
        <time>2020-08-21T08:32:32.000Z</time>
      </trkpt>
      <trkpt lat="42.96502805314958095550537109375" lon="-1.02181694470345973968505859375">
        <ele>1087.4000244140625</ele>
        <time>2020-08-21T08:32:35.000Z</time>
      </trkpt>
      <trkpt lat="42.9647285677492618560791015625" lon="-1.0221601836383342742919921875">
        <ele>1086.4000244140625</ele>
        <time>2020-08-21T08:32:43.000Z</time>
      </trkpt>
      <trkpt lat="42.96446009539067745208740234375" lon="-1.02251708507537841796875">
        <ele>1085.4000244140625</ele>
        <time>2020-08-21T08:32:51.000Z</time>
      </trkpt>
      <trkpt lat="42.9644281603395938873291015625" lon="-1.02255807258188724517822265625">
        <ele>1085.199951171875</ele>
        <time>2020-08-21T08:32:52.000Z</time>
      </trkpt>
      <trkpt lat="42.9641736857593059539794921875" lon="-1.02290977723896503448486328125">
        <ele>1085</ele>
        <time>2020-08-21T08:33:00.000Z</time>
      </trkpt>
      <trkpt lat="42.9641430079936981201171875" lon="-1.02295855991542339324951171875">
        <ele>1085</ele>
        <time>2020-08-21T08:33:01.000Z</time>
      </trkpt>
      <trkpt lat="42.9640925489366054534912109375" lon="-1.0230597294867038726806640625">
        <ele>1085</ele>
        <time>2020-08-21T08:33:03.000Z</time>
      </trkpt>
      <trkpt lat="42.96405709348618984222412109375" lon="-1.02317766286432743072509765625">
        <ele>1084.4000244140625</ele>
        <time>2020-08-21T08:33:05.000Z</time>
      </trkpt>
      <trkpt lat="42.96404577791690826416015625" lon="-1.02349969558417797088623046875">
        <ele>1083.4000244140625</ele>
        <time>2020-08-21T08:33:10.000Z</time>
      </trkpt>
      <trkpt lat="42.9640556685626506805419921875" lon="-1.0235579498112201690673828125">
        <ele>1083.4000244140625</ele>
        <time>2020-08-21T08:33:11.000Z</time>
      </trkpt>
      <trkpt lat="42.96411979012191295623779296875" lon="-1.02377747185528278350830078125">
        <ele>1082.5999755859375</ele>
        <time>2020-08-21T08:33:15.000Z</time>
      </trkpt>
      <trkpt lat="42.9641817323863506317138671875" lon="-1.0239324532449245452880859375">
        <ele>1082.199951171875</ele>
        <time>2020-08-21T08:33:18.000Z</time>
      </trkpt>
      <trkpt lat="42.9642524756491184234619140625" lon="-1.024075113236904144287109375">
        <ele>1081</ele>
        <time>2020-08-21T08:33:21.000Z</time>
      </trkpt>
      <trkpt lat="42.96445079147815704345703125" lon="-1.02444400079548358917236328125">
        <ele>1080</ele>
        <time>2020-08-21T08:33:28.000Z</time>
      </trkpt>
      <trkpt lat="42.9645538888871669769287109375" lon="-1.0246335156261920928955078125">
        <ele>1078.800048828125</ele>
        <time>2020-08-21T08:33:31.000Z</time>
      </trkpt>
      <trkpt lat="42.964699566364288330078125" lon="-1.0248930193483829498291015625">
        <ele>1078</ele>
        <time>2020-08-21T08:33:35.000Z</time>
      </trkpt>
      <trkpt lat="42.96476905234158039093017578125" lon="-1.02502587251365184783935546875">
        <ele>1077.800048828125</ele>
        <time>2020-08-21T08:33:37.000Z</time>
      </trkpt>
      <trkpt lat="42.96479654498398303985595703125" lon="-1.02509804069995880126953125">
        <ele>1077.5999755859375</ele>
        <time>2020-08-21T08:33:38.000Z</time>
      </trkpt>
      <trkpt lat="42.96483610756695270538330078125" lon="-1.02524153888225555419921875">
        <ele>1077.4000244140625</ele>
        <time>2020-08-21T08:33:40.000Z</time>
      </trkpt>
      <trkpt lat="42.96484951861202716827392578125" lon="-1.0254807583987712860107421875">
        <ele>1077</ele>
        <time>2020-08-21T08:33:44.000Z</time>
      </trkpt>
      <trkpt lat="42.964849770069122314453125" lon="-1.02553213946521282196044921875">
        <ele>1076.800048828125</ele>
        <time>2020-08-21T08:33:45.000Z</time>
      </trkpt>
      <trkpt lat="42.964860834181308746337890625" lon="-1.02567681111395359039306640625">
        <ele>1076.800048828125</ele>
        <time>2020-08-21T08:33:48.000Z</time>
      </trkpt>
      <trkpt lat="42.96486225910484790802001953125" lon="-1.0258106701076030731201171875">
        <ele>1076.800048828125</ele>
        <time>2020-08-21T08:33:51.000Z</time>
      </trkpt>
      <trkpt lat="42.96486158855259418487548828125" lon="-1.02585383690893650054931640625">
        <ele>1076.800048828125</ele>
        <time>2020-08-21T08:33:52.000Z</time>
      </trkpt>
      <trkpt lat="42.964864186942577362060546875" lon="-1.02593027986586093902587890625">
        <ele>1076.5999755859375</ele>
        <time>2020-08-21T08:33:54.000Z</time>
      </trkpt>
      <trkpt lat="42.9648913443088531494140625" lon="-1.02609976194798946380615234375">
        <ele>1076.800048828125</ele>
        <time>2020-08-21T08:33:59.000Z</time>
      </trkpt>
      <trkpt lat="42.96494155190885066986083984375" lon="-1.02630813606083393096923828125">
        <ele>1076.5999755859375</ele>
        <time>2020-08-21T08:34:05.000Z</time>
      </trkpt>
      <trkpt lat="42.9649749957025051116943359375" lon="-1.026457250118255615234375">
        <ele>1076.800048828125</ele>
        <time>2020-08-21T08:34:09.000Z</time>
      </trkpt>
      <trkpt lat="42.9650205932557582855224609375" lon="-1.0265952162444591522216796875">
        <ele>1076.5999755859375</ele>
        <time>2020-08-21T08:34:13.000Z</time>
      </trkpt>
      <trkpt lat="42.96509678475558757781982421875" lon="-1.02673511020839214324951171875">
        <ele>1076</ele>
        <time>2020-08-21T08:34:17.000Z</time>
      </trkpt>
      <trkpt lat="42.96514355577528476715087890625" lon="-1.0268278978765010833740234375">
        <ele>1075.800048828125</ele>
        <time>2020-08-21T08:34:19.000Z</time>
      </trkpt>
      <trkpt lat="42.965190745890140533447265625" lon="-1.027002073824405670166015625">
        <ele>1075.800048828125</ele>
        <time>2020-08-21T08:34:22.000Z</time>
      </trkpt>
      <trkpt lat="42.96518504619598388671875" lon="-1.02718370966613292694091796875">
        <ele>1074.800048828125</ele>
        <time>2020-08-21T08:34:25.000Z</time>
      </trkpt>
      <trkpt lat="42.96518026851117610931396484375" lon="-1.0272433049976825714111328125">
        <ele>1074.5999755859375</ele>
        <time>2020-08-21T08:34:26.000Z</time>
      </trkpt>
      <trkpt lat="42.965173982083797454833984375" lon="-1.02731061168015003204345703125">
        <ele>1074.4000244140625</ele>
        <time>2020-08-21T08:34:27.000Z</time>
      </trkpt>
      <trkpt lat="42.96520591713488101959228515625" lon="-1.02754865773022174835205078125">
        <ele>1073.800048828125</ele>
        <time>2020-08-21T08:34:31.000Z</time>
      </trkpt>
      <trkpt lat="42.96522737480700016021728515625" lon="-1.0276023857295513153076171875">
        <ele>1073.5999755859375</ele>
        <time>2020-08-21T08:34:32.000Z</time>
      </trkpt>
      <trkpt lat="42.965246737003326416015625" lon="-1.0276697762310504913330078125">
        <ele>1073.4000244140625</ele>
        <time>2020-08-21T08:34:33.000Z</time>
      </trkpt>
      <trkpt lat="42.9652938432991504669189453125" lon="-1.02780899964272975921630859375">
        <ele>1072.4000244140625</ele>
        <time>2020-08-21T08:34:35.000Z</time>
      </trkpt>
      <trkpt lat="42.96533734537661075592041015625" lon="-1.0279624722898006439208984375">
        <ele>1071.5999755859375</ele>
        <time>2020-08-21T08:34:37.000Z</time>
      </trkpt>
      <trkpt lat="42.965370118618011474609375" lon="-1.0281153582036495208740234375">
        <ele>1071</ele>
        <time>2020-08-21T08:34:39.000Z</time>
      </trkpt>
      <trkpt lat="42.96540205366909503936767578125" lon="-1.028351224958896636962890625">
        <ele>1069.5999755859375</ele>
        <time>2020-08-21T08:34:42.000Z</time>
      </trkpt>
      <trkpt lat="42.96540775336325168609619140625" lon="-1.02842607535421848297119140625">
        <ele>1069.4000244140625</ele>
        <time>2020-08-21T08:34:43.000Z</time>
      </trkpt>
      <trkpt lat="42.9654158838093280792236328125" lon="-1.02857661433517932891845703125">
        <ele>1068.4000244140625</ele>
        <time>2020-08-21T08:34:45.000Z</time>
      </trkpt>
      <trkpt lat="42.96541915275156497955322265625" lon="-1.02872078306972980499267578125">
        <ele>1066.5999755859375</ele>
        <time>2020-08-21T08:34:47.000Z</time>
      </trkpt>
      <trkpt lat="42.9654148779809474945068359375" lon="-1.02890870533883571624755859375">
        <ele>1065.800048828125</ele>
        <time>2020-08-21T08:34:50.000Z</time>
      </trkpt>
      <trkpt lat="42.9654132016003131866455078125" lon="-1.02896218188107013702392578125">
        <ele>1065.5999755859375</ele>
        <time>2020-08-21T08:34:51.000Z</time>
      </trkpt>
      <trkpt lat="42.9654239304363727569580078125" lon="-1.02925621904432773590087890625">
        <ele>1064.800048828125</ele>
        <time>2020-08-21T08:34:56.000Z</time>
      </trkpt>
      <trkpt lat="42.9654279537498950958251953125" lon="-1.0293183289468288421630859375">
        <ele>1064.4000244140625</ele>
        <time>2020-08-21T08:34:57.000Z</time>
      </trkpt>
      <trkpt lat="42.9654775746166706085205078125" lon="-1.0295805148780345916748046875">
        <ele>1063.5999755859375</ele>
        <time>2020-08-21T08:35:01.000Z</time>
      </trkpt>
      <trkpt lat="42.96549542807042598724365234375" lon="-1.029650084674358367919921875">
        <ele>1063.199951171875</ele>
        <time>2020-08-21T08:35:02.000Z</time>
      </trkpt>
      <trkpt lat="42.96553767286241054534912109375" lon="-1.029804311692714691162109375">
        <ele>1061.4000244140625</ele>
        <time>2020-08-21T08:35:04.000Z</time>
      </trkpt>
      <trkpt lat="42.9655566997826099395751953125" lon="-1.0298864543437957763671875">
        <ele>1060.4000244140625</ele>
        <time>2020-08-21T08:35:05.000Z</time>
      </trkpt>
      <trkpt lat="42.965576648712158203125" lon="-1.02996985428035259246826171875">
        <ele>1060</ele>
        <time>2020-08-21T08:35:06.000Z</time>
      </trkpt>
      <trkpt lat="42.965727187693119049072265625" lon="-1.030472181737422943115234375">
        <ele>1059.199951171875</ele>
        <time>2020-08-21T08:35:12.000Z</time>
      </trkpt>
      <trkpt lat="42.965757362544536590576171875" lon="-1.03055172599852085113525390625">
        <ele>1058.5999755859375</ele>
        <time>2020-08-21T08:35:13.000Z</time>
      </trkpt>
      <trkpt lat="42.9658167064189910888671875" lon="-1.0307097248733043670654296875">
        <ele>1058.199951171875</ele>
        <time>2020-08-21T08:35:15.000Z</time>
      </trkpt>
      <trkpt lat="42.966053076088428497314453125" lon="-1.0312914289534091949462890625">
        <ele>1057</ele>
        <time>2020-08-21T08:35:23.000Z</time>
      </trkpt>
      <trkpt lat="42.96617939136922359466552734375" lon="-1.03170138783752918243408203125">
        <ele>1056.800048828125</ele>
        <time>2020-08-21T08:35:29.000Z</time>
      </trkpt>
      <trkpt lat="42.96616137027740478515625" lon="-1.03204219602048397064208984375">
        <ele>1055.5999755859375</ele>
        <time>2020-08-21T08:35:34.000Z</time>
      </trkpt>
      <trkpt lat="42.96607218682765960693359375" lon="-1.03223263286054134368896484375">
        <ele>1054.800048828125</ele>
        <time>2020-08-21T08:35:37.000Z</time>
      </trkpt>
      <trkpt lat="42.96603974886238574981689453125" lon="-1.03229147382080554962158203125">
        <ele>1054.5999755859375</ele>
        <time>2020-08-21T08:35:38.000Z</time>
      </trkpt>
      <trkpt lat="42.965978644788265228271484375" lon="-1.032414771616458892822265625">
        <ele>1054.4000244140625</ele>
        <time>2020-08-21T08:35:40.000Z</time>
      </trkpt>
      <trkpt lat="42.9659258387982845306396484375" lon="-1.0326062142848968505859375">
        <ele>1054</ele>
        <time>2020-08-21T08:35:43.000Z</time>
      </trkpt>
      <trkpt lat="42.96591200865805149078369140625" lon="-1.03267352096736431121826171875">
        <ele>1053.4000244140625</ele>
        <time>2020-08-21T08:35:44.000Z</time>
      </trkpt>
      <trkpt lat="42.96589122153818607330322265625" lon="-1.0329426638782024383544921875">
        <ele>1052.4000244140625</ele>
        <time>2020-08-21T08:35:48.000Z</time>
      </trkpt>
      <trkpt lat="42.965945117175579071044921875" lon="-1.033211052417755126953125">
        <ele>1051.5999755859375</ele>
        <time>2020-08-21T08:35:52.000Z</time>
      </trkpt>
      <trkpt lat="42.9659697599709033966064453125" lon="-1.03327902965247631072998046875">
        <ele>1051.5999755859375</ele>
        <time>2020-08-21T08:35:53.000Z</time>
      </trkpt>
      <trkpt lat="42.96614502556622028350830078125" lon="-1.03361547924578189849853515625">
        <ele>1050.800048828125</ele>
        <time>2020-08-21T08:35:58.000Z</time>
      </trkpt>
      <trkpt lat="42.9661841690540313720703125" lon="-1.03367432020604610443115234375">
        <ele>1050.5999755859375</ele>
        <time>2020-08-21T08:35:59.000Z</time>
      </trkpt>
      <trkpt lat="42.9662611149251461029052734375" lon="-1.03377272374927997589111328125">
        <ele>1050.199951171875</ele>
        <time>2020-08-21T08:36:01.000Z</time>
      </trkpt>
      <trkpt lat="42.96633177436888217926025390625" lon="-1.03384547866880893707275390625">
        <ele>1050</ele>
        <time>2020-08-21T08:36:03.000Z</time>
      </trkpt>
      <trkpt lat="42.96645599417388439178466796875" lon="-1.033945977687835693359375">
        <ele>1049.4000244140625</ele>
        <time>2020-08-21T08:36:08.000Z</time>
      </trkpt>
      <trkpt lat="42.9665561579167842864990234375" lon="-1.03403004817664623260498046875">
        <ele>1050.5999755859375</ele>
        <time>2020-08-21T08:36:13.000Z</time>
      </trkpt>
      <trkpt lat="42.96659731306135654449462890625" lon="-1.0340661741793155670166015625">
        <ele>1051.199951171875</ele>
        <time>2020-08-21T08:36:15.000Z</time>
      </trkpt>
      <trkpt lat="42.9667177610099315643310546875" lon="-1.03418477810919284820556640625">
        <ele>1052</ele>
        <time>2020-08-21T08:36:22.000Z</time>
      </trkpt>
      <trkpt lat="42.96673594973981380462646484375" lon="-1.03419835679233074188232421875">
        <ele>1052.199951171875</ele>
        <time>2020-08-21T08:36:23.000Z</time>
      </trkpt>
      <trkpt lat="42.9668273963034152984619140625" lon="-1.0342619754374027252197265625">
        <ele>1052.800048828125</ele>
        <time>2020-08-21T08:36:29.000Z</time>
      </trkpt>
      <trkpt lat="42.96686067245900630950927734375" lon="-1.03428728878498077392578125">
        <ele>1053</ele>
        <time>2020-08-21T08:36:31.000Z</time>
      </trkpt>
      <trkpt lat="42.966918759047985076904296875" lon="-1.03436029516160488128662109375">
        <ele>1053.800048828125</ele>
        <time>2020-08-21T08:36:35.000Z</time>
      </trkpt>
      <trkpt lat="42.96697785146534442901611328125" lon="-1.03444377891719341278076171875">
        <ele>1054</ele>
        <time>2020-08-21T08:36:39.000Z</time>
      </trkpt>
      <trkpt lat="42.96698958612978458404541015625" lon="-1.0344703495502471923828125">
        <ele>1054.199951171875</ele>
        <time>2020-08-21T08:36:40.000Z</time>
      </trkpt>
      <trkpt lat="42.96707038767635822296142578125" lon="-1.034600101411342620849609375">
        <ele>1054.4000244140625</ele>
        <time>2020-08-21T08:36:45.000Z</time>
      </trkpt>
      <trkpt lat="42.9672042466700077056884765625" lon="-1.03487469255924224853515625">
        <ele>1054.800048828125</ele>
        <time>2020-08-21T08:36:53.000Z</time>
      </trkpt>
      <trkpt lat="42.967244647443294525146484375" lon="-1.03511952795088291168212890625">
        <ele>1053.199951171875</ele>
        <time>2020-08-21T08:36:58.000Z</time>
      </trkpt>
      <trkpt lat="42.96725504100322723388671875" lon="-1.035166047513484954833984375">
        <ele>1053</ele>
        <time>2020-08-21T08:36:59.000Z</time>
      </trkpt>
      <trkpt lat="42.9672785103321075439453125" lon="-1.03540937416255474090576171875">
        <ele>1051.800048828125</ele>
        <time>2020-08-21T08:37:03.000Z</time>
      </trkpt>
      <trkpt lat="42.96727783977985382080078125" lon="-1.03547106496989727020263671875">
        <ele>1051.4000244140625</ele>
        <time>2020-08-21T08:37:04.000Z</time>
      </trkpt>
      <trkpt lat="42.96727909706532955169677734375" lon="-1.0355980508029460906982421875">
        <ele>1050.5999755859375</ele>
        <time>2020-08-21T08:37:06.000Z</time>
      </trkpt>
      <trkpt lat="42.96728320419788360595703125" lon="-1.0358428023755550384521484375">
        <ele>1049.5999755859375</ele>
        <time>2020-08-21T08:37:10.000Z</time>
      </trkpt>
      <trkpt lat="42.9672816954553127288818359375" lon="-1.03590273298323154449462890625">
        <ele>1049.4000244140625</ele>
        <time>2020-08-21T08:37:11.000Z</time>
      </trkpt>
      <trkpt lat="42.9672704637050628662109375" lon="-1.036036424338817596435546875">
        <ele>1048.4000244140625</ele>
        <time>2020-08-21T08:37:13.000Z</time>
      </trkpt>
      <trkpt lat="42.967271469533443450927734375" lon="-1.0361750610172748565673828125">
        <ele>1048.199951171875</ele>
        <time>2020-08-21T08:37:15.000Z</time>
      </trkpt>
      <trkpt lat="42.96727825887501239776611328125" lon="-1.036246977746486663818359375">
        <ele>1048</ele>
        <time>2020-08-21T08:37:16.000Z</time>
      </trkpt>
      <trkpt lat="42.9673584736883640289306640625" lon="-1.0366105847060680389404296875">
        <ele>1047.4000244140625</ele>
        <time>2020-08-21T08:37:21.000Z</time>
      </trkpt>
      <trkpt lat="42.967376746237277984619140625" lon="-1.03668459691107273101806640625">
        <ele>1047.4000244140625</ele>
        <time>2020-08-21T08:37:22.000Z</time>
      </trkpt>
      <trkpt lat="42.967497445642948150634765625" lon="-1.03723159991204738616943359375">
        <ele>1046.5999755859375</ele>
        <time>2020-08-21T08:37:30.000Z</time>
      </trkpt>
      <trkpt lat="42.967525608837604522705078125" lon="-1.0373481921851634979248046875">
        <ele>1046.4000244140625</ele>
        <time>2020-08-21T08:37:32.000Z</time>
      </trkpt>
      <trkpt lat="42.967587970197200775146484375" lon="-1.03759403340518474578857421875">
        <ele>1046</ele>
        <time>2020-08-21T08:37:37.000Z</time>
      </trkpt>
      <trkpt lat="42.967683859169483184814453125" lon="-1.03791707195341587066650390625">
        <ele>1046.800048828125</ele>
        <time>2020-08-21T08:37:45.000Z</time>
      </trkpt>
      <trkpt lat="42.96775451861321926116943359375" lon="-1.03812150657176971435546875">
        <ele>1047.199951171875</ele>
        <time>2020-08-21T08:37:50.000Z</time>
      </trkpt>
      <trkpt lat="42.9678382538259029388427734375" lon="-1.03825570084154605865478515625">
        <ele>1047</ele>
        <time>2020-08-21T08:37:54.000Z</time>
      </trkpt>
      <trkpt lat="42.96793162822723388671875" lon="-1.03843725286424160003662109375">
        <ele>1046.800048828125</ele>
        <time>2020-08-21T08:37:58.000Z</time>
      </trkpt>
      <trkpt lat="42.96795769594609737396240234375" lon="-1.038481928408145904541015625">
        <ele>1046.5999755859375</ele>
        <time>2020-08-21T08:37:59.000Z</time>
      </trkpt>
      <trkpt lat="42.96804335899651050567626953125" lon="-1.03863523341715335845947265625">
        <ele>1045.5999755859375</ele>
        <time>2020-08-21T08:38:02.000Z</time>
      </trkpt>
      <trkpt lat="42.9681292735040187835693359375" lon="-1.03879096917808055877685546875">
        <ele>1044.5999755859375</ele>
        <time>2020-08-21T08:38:05.000Z</time>
      </trkpt>
      <trkpt lat="42.96815752051770687103271484375" lon="-1.03884260170161724090576171875">
        <ele>1044.4000244140625</ele>
        <time>2020-08-21T08:38:06.000Z</time>
      </trkpt>
      <trkpt lat="42.9682593606412410736083984375" lon="-1.0390148498117923736572265625">
        <ele>1043.4000244140625</ele>
        <time>2020-08-21T08:38:09.000Z</time>
      </trkpt>
      <trkpt lat="42.96829381026327610015869140625" lon="-1.039072014391422271728515625">
        <ele>1043.4000244140625</ele>
        <time>2020-08-21T08:38:10.000Z</time>
      </trkpt>
      <trkpt lat="42.96841367147862911224365234375" lon="-1.0392232239246368408203125">
        <ele>1044.199951171875</ele>
        <time>2020-08-21T08:38:13.000Z</time>
      </trkpt>
      <trkpt lat="42.96854945831000804901123046875" lon="-1.03934819810092449188232421875">
        <ele>1043.5999755859375</ele>
        <time>2020-08-21T08:38:16.000Z</time>
      </trkpt>
      <trkpt lat="42.968689016997814178466796875" lon="-1.0394470207393169403076171875">
        <ele>1043</ele>
        <time>2020-08-21T08:38:19.000Z</time>
      </trkpt>
      <trkpt lat="42.968787252902984619140625" lon="-1.03951357305049896240234375">
        <ele>1043.199951171875</ele>
        <time>2020-08-21T08:38:21.000Z</time>
      </trkpt>
      <trkpt lat="42.9688782803714275360107421875" lon="-1.03961289860308170318603515625">
        <ele>1042.5999755859375</ele>
        <time>2020-08-21T08:38:23.000Z</time>
      </trkpt>
      <trkpt lat="42.96891792677342891693115234375" lon="-1.039668135344982147216796875">
        <ele>1042.4000244140625</ele>
        <time>2020-08-21T08:38:24.000Z</time>
      </trkpt>
      <trkpt lat="42.9689946211874485015869140625" lon="-1.03977651335299015045166015625">
        <ele>1042.4000244140625</ele>
        <time>2020-08-21T08:38:26.000Z</time>
      </trkpt>
      <trkpt lat="42.969267703592777252197265625" lon="-1.0401189140975475311279296875">
        <ele>1042.199951171875</ele>
        <time>2020-08-21T08:38:33.000Z</time>
      </trkpt>
      <trkpt lat="42.9693384468555450439453125" lon="-1.0401995480060577392578125">
        <ele>1041.4000244140625</ele>
        <time>2020-08-21T08:38:35.000Z</time>
      </trkpt>
      <trkpt lat="42.9693731479346752166748046875" lon="-1.0402357578277587890625">
        <ele>1041.199951171875</ele>
        <time>2020-08-21T08:38:36.000Z</time>
      </trkpt>
      <trkpt lat="42.96940751373767852783203125" lon="-1.040272302925586700439453125">
        <ele>1041.199951171875</ele>
        <time>2020-08-21T08:38:37.000Z</time>
      </trkpt>
      <trkpt lat="42.96956115402281284332275390625" lon="-1.04042761959135532379150390625">
        <ele>1040.5999755859375</ele>
        <time>2020-08-21T08:38:41.000Z</time>
      </trkpt>
      <trkpt lat="42.9696004651486873626708984375" lon="-1.0404624044895172119140625">
        <ele>1040</ele>
        <time>2020-08-21T08:38:42.000Z</time>
      </trkpt>
      <trkpt lat="42.969640530645847320556640625" lon="-1.04049316607415676116943359375">
        <ele>1039.4000244140625</ele>
        <time>2020-08-21T08:38:43.000Z</time>
      </trkpt>
      <trkpt lat="42.96972074545919895172119140625" lon="-1.0405363328754901885986328125">
        <ele>1038.800048828125</ele>
        <time>2020-08-21T08:38:45.000Z</time>
      </trkpt>
      <trkpt lat="42.96976282261312007904052734375" lon="-1.0405544377863407135009765625">
        <ele>1038.800048828125</ele>
        <time>2020-08-21T08:38:46.000Z</time>
      </trkpt>
      <trkpt lat="42.96980255283415317535400390625" lon="-1.0405712015926837921142578125">
        <ele>1038.5999755859375</ele>
        <time>2020-08-21T08:38:47.000Z</time>
      </trkpt>
      <trkpt lat="42.96990397386252880096435546875" lon="-1.04064621962606906890869140625">
        <ele>1038</ele>
        <time>2020-08-21T08:38:50.000Z</time>
      </trkpt>
      <trkpt lat="42.96994135715067386627197265625" lon="-1.04067237116396427154541015625">
        <ele>1037.5999755859375</ele>
        <time>2020-08-21T08:38:51.000Z</time>
      </trkpt>
      <trkpt lat="42.96997806988656520843505859375" lon="-1.040703468024730682373046875">
        <ele>1037.5999755859375</ele>
        <time>2020-08-21T08:38:52.000Z</time>
      </trkpt>
      <trkpt lat="42.9701070673763751983642578125" lon="-1.040805391967296600341796875">
        <ele>1036.5999755859375</ele>
        <time>2020-08-21T08:38:55.000Z</time>
      </trkpt>
      <trkpt lat="42.9701945744454860687255859375" lon="-1.04084788821637630462646484375">
        <ele>1036.5999755859375</ele>
        <time>2020-08-21T08:38:57.000Z</time>
      </trkpt>
      <trkpt lat="42.9702866077423095703125" lon="-1.04088560678064823150634765625">
        <ele>1036.199951171875</ele>
        <time>2020-08-21T08:38:59.000Z</time>
      </trkpt>
      <trkpt lat="42.97037553973495960235595703125" lon="-1.04092852212488651275634765625">
        <ele>1035.5999755859375</ele>
        <time>2020-08-21T08:39:01.000Z</time>
      </trkpt>
      <trkpt lat="42.97041610814630985260009765625" lon="-1.04095433838665485382080078125">
        <ele>1035.4000244140625</ele>
        <time>2020-08-21T08:39:02.000Z</time>
      </trkpt>
      <trkpt lat="42.97045583836734294891357421875" lon="-1.04097378440201282501220703125">
        <ele>1035.199951171875</ele>
        <time>2020-08-21T08:39:03.000Z</time>
      </trkpt>
      <trkpt lat="42.970494814217090606689453125" lon="-1.04099105112254619598388671875">
        <ele>1035.199951171875</ele>
        <time>2020-08-21T08:39:04.000Z</time>
      </trkpt>
      <trkpt lat="42.97064996324479579925537109375" lon="-1.041054837405681610107421875">
        <ele>1034</ele>
        <time>2020-08-21T08:39:08.000Z</time>
      </trkpt>
      <trkpt lat="42.97069354914128780364990234375" lon="-1.04107805527746677398681640625">
        <ele>1033.800048828125</ele>
        <time>2020-08-21T08:39:09.000Z</time>
      </trkpt>
      <trkpt lat="42.9707803018391132354736328125" lon="-1.04112851433455944061279296875">
        <ele>1032.800048828125</ele>
        <time>2020-08-21T08:39:11.000Z</time>
      </trkpt>
      <trkpt lat="42.97082162462174892425537109375" lon="-1.04116120375692844390869140625">
        <ele>1032.4000244140625</ele>
        <time>2020-08-21T08:39:12.000Z</time>
      </trkpt>
      <trkpt lat="42.97090527601540088653564453125" lon="-1.0412350483238697052001953125">
        <ele>1031.800048828125</ele>
        <time>2020-08-21T08:39:14.000Z</time>
      </trkpt>
      <trkpt lat="42.97094634734094142913818359375" lon="-1.041271425783634185791015625">
        <ele>1031.199951171875</ele>
        <time>2020-08-21T08:39:15.000Z</time>
      </trkpt>
      <trkpt lat="42.97098775394260883331298828125" lon="-1.04131224565207958221435546875">
        <ele>1030.5999755859375</ele>
        <time>2020-08-21T08:39:16.000Z</time>
      </trkpt>
      <trkpt lat="42.97115522436797618865966796875" lon="-1.041553057730197906494140625">
        <ele>1029.4000244140625</ele>
        <time>2020-08-21T08:39:20.000Z</time>
      </trkpt>
      <trkpt lat="42.97119646333158016204833984375" lon="-1.0416263155639171600341796875">
        <ele>1028.5999755859375</ele>
        <time>2020-08-21T08:39:21.000Z</time>
      </trkpt>
      <trkpt lat="42.97123669646680355072021484375" lon="-1.0417017526924610137939453125">
        <ele>1028.199951171875</ele>
        <time>2020-08-21T08:39:22.000Z</time>
      </trkpt>
      <trkpt lat="42.971485219895839691162109375" lon="-1.04216753505170345306396484375">
        <ele>1027.4000244140625</ele>
        <time>2020-08-21T08:39:28.000Z</time>
      </trkpt>
      <trkpt lat="42.97152318991720676422119140625" lon="-1.04224733076989650726318359375">
        <ele>1026.800048828125</ele>
        <time>2020-08-21T08:39:29.000Z</time>
      </trkpt>
      <trkpt lat="42.9716490022838115692138671875" lon="-1.04254782199859619140625">
        <ele>1025.800048828125</ele>
        <time>2020-08-21T08:39:33.000Z</time>
      </trkpt>
      <trkpt lat="42.9716640897095203399658203125" lon="-1.042622588574886322021484375">
        <ele>1025.5999755859375</ele>
        <time>2020-08-21T08:39:34.000Z</time>
      </trkpt>
      <trkpt lat="42.971670962870121002197265625" lon="-1.0429151169955730438232421875">
        <ele>1025.5999755859375</ele>
        <time>2020-08-21T08:39:38.000Z</time>
      </trkpt>
      <trkpt lat="42.97166283242404460906982421875" lon="-1.0429809987545013427734375">
        <ele>1025.5999755859375</ele>
        <time>2020-08-21T08:39:39.000Z</time>
      </trkpt>
      <trkpt lat="42.97158672474324703216552734375" lon="-1.04328207671642303466796875">
        <ele>1025.4000244140625</ele>
        <time>2020-08-21T08:39:44.000Z</time>
      </trkpt>
      <trkpt lat="42.97150039114058017730712890625" lon="-1.04351433925330638885498046875">
        <ele>1025.5999755859375</ele>
        <time>2020-08-21T08:39:49.000Z</time>
      </trkpt>
      <trkpt lat="42.97139813192188739776611328125" lon="-1.04377015493810176849365234375">
        <ele>1025.5999755859375</ele>
        <time>2020-08-21T08:39:56.000Z</time>
      </trkpt>
      <trkpt lat="42.971287406980991363525390625" lon="-1.04399361647665500640869140625">
        <ele>1026</ele>
        <time>2020-08-21T08:40:03.000Z</time>
      </trkpt>
      <trkpt lat="42.9712302424013614654541015625" lon="-1.04409134946763515472412109375">
        <ele>1026.5999755859375</ele>
        <time>2020-08-21T08:40:07.000Z</time>
      </trkpt>
      <trkpt lat="42.97122010029852390289306640625" lon="-1.04412026703357696533203125">
        <ele>1026.800048828125</ele>
        <time>2020-08-21T08:40:08.000Z</time>
      </trkpt>
      <trkpt lat="42.971151955425739288330078125" lon="-1.044280529022216796875">
        <ele>1027</ele>
        <time>2020-08-21T08:40:13.000Z</time>
      </trkpt>
      <trkpt lat="42.97105061821639537811279296875" lon="-1.04449979960918426513671875">
        <ele>1027.800048828125</ele>
        <time>2020-08-21T08:40:19.000Z</time>
      </trkpt>
      <trkpt lat="42.97103787772357463836669921875" lon="-1.04453776963055133819580078125">
        <ele>1027.800048828125</ele>
        <time>2020-08-21T08:40:20.000Z</time>
      </trkpt>
      <trkpt lat="42.97096998430788516998291015625" lon="-1.04472267441451549530029296875">
        <ele>1028.4000244140625</ele>
        <time>2020-08-21T08:40:25.000Z</time>
      </trkpt>
      <trkpt lat="42.970901168882846832275390625" lon="-1.0449349880218505859375">
        <ele>1028.4000244140625</ele>
        <time>2020-08-21T08:40:31.000Z</time>
      </trkpt>
      <trkpt lat="42.97085967846214771270751953125" lon="-1.0450069047510623931884765625">
        <ele>1028.800048828125</ele>
        <time>2020-08-21T08:40:34.000Z</time>
      </trkpt>
      <trkpt lat="42.97082900069653987884521484375" lon="-1.04506381787359714508056640625">
        <ele>1029.5999755859375</ele>
        <time>2020-08-21T08:40:36.000Z</time>
      </trkpt>
      <trkpt lat="42.9707626998424530029296875" lon="-1.04517797939479351043701171875">
        <ele>1029.800048828125</ele>
        <time>2020-08-21T08:40:40.000Z</time>
      </trkpt>
      <trkpt lat="42.970730178058147430419921875" lon="-1.04522659443318843841552734375">
        <ele>1029.800048828125</ele>
        <time>2020-08-21T08:40:42.000Z</time>
      </trkpt>
      <trkpt lat="42.97061576507985591888427734375" lon="-1.04545944370329380035400390625">
        <ele>1030</ele>
        <time>2020-08-21T08:40:48.000Z</time>
      </trkpt>
      <trkpt lat="42.9705603606998920440673828125" lon="-1.0457260720431804656982421875">
        <ele>1030.199951171875</ele>
        <time>2020-08-21T08:40:54.000Z</time>
      </trkpt>
      <trkpt lat="42.970553822815418243408203125" lon="-1.046028323471546173095703125">
        <ele>1029.800048828125</ele>
        <time>2020-08-21T08:41:00.000Z</time>
      </trkpt>
      <trkpt lat="42.97058106400072574615478515625" lon="-1.04620057158172130584716796875">
        <ele>1029.4000244140625</ele>
        <time>2020-08-21T08:41:03.000Z</time>
      </trkpt>
      <trkpt lat="42.97063621692359447479248046875" lon="-1.0463899187743663787841796875">
        <ele>1028.800048828125</ele>
        <time>2020-08-21T08:41:06.000Z</time>
      </trkpt>
      <trkpt lat="42.970682568848133087158203125" lon="-1.0465163178741931915283203125">
        <ele>1028.800048828125</ele>
        <time>2020-08-21T08:41:08.000Z</time>
      </trkpt>
      <trkpt lat="42.9707772843539714813232421875" lon="-1.046725697815418243408203125">
        <ele>1028.4000244140625</ele>
        <time>2020-08-21T08:41:12.000Z</time>
      </trkpt>
      <trkpt lat="42.9707957245409488677978515625" lon="-1.04676567949354648590087890625">
        <ele>1028.4000244140625</ele>
        <time>2020-08-21T08:41:13.000Z</time>
      </trkpt>
      <trkpt lat="42.9708771966397762298583984375" lon="-1.0469518415629863739013671875">
        <ele>1028.199951171875</ele>
        <time>2020-08-21T08:41:18.000Z</time>
      </trkpt>
      <trkpt lat="42.97095087356865406036376953125" lon="-1.04712945409119129180908203125">
        <ele>1027.800048828125</ele>
        <time>2020-08-21T08:41:23.000Z</time>
      </trkpt>
      <trkpt lat="42.97100719995796680450439453125" lon="-1.0472391732037067413330078125">
        <ele>1027.4000244140625</ele>
        <time>2020-08-21T08:41:26.000Z</time>
      </trkpt>
      <trkpt lat="42.971041984856128692626953125" lon="-1.04729332029819488525390625">
        <ele>1027.5999755859375</ele>
        <time>2020-08-21T08:41:28.000Z</time>
      </trkpt>
      <trkpt lat="42.971135862171649932861328125" lon="-1.04742768220603466033935546875">
        <ele>1027.5999755859375</ele>
        <time>2020-08-21T08:41:32.000Z</time>
      </trkpt>
      <trkpt lat="42.9712346009910106658935546875" lon="-1.04750680737197399139404296875">
        <ele>1027.4000244140625</ele>
        <time>2020-08-21T08:41:35.000Z</time>
      </trkpt>
      <trkpt lat="42.97127575613558292388916015625" lon="-1.04751368053257465362548828125">
        <ele>1027</ele>
        <time>2020-08-21T08:41:36.000Z</time>
      </trkpt>
      <trkpt lat="42.97136359848082065582275390625" lon="-1.04752675630152225494384765625">
        <ele>1026.4000244140625</ele>
        <time>2020-08-21T08:41:38.000Z</time>
      </trkpt>
      <trkpt lat="42.97149133868515491485595703125" lon="-1.04753471910953521728515625">
        <ele>1025</ele>
        <time>2020-08-21T08:41:41.000Z</time>
      </trkpt>
      <trkpt lat="42.97153727151453495025634765625" lon="-1.0475295223295688629150390625">
        <ele>1024.4000244140625</ele>
        <time>2020-08-21T08:41:42.000Z</time>
      </trkpt>
      <trkpt lat="42.97158404253423213958740234375" lon="-1.047516278922557830810546875">
        <ele>1024.4000244140625</ele>
        <time>2020-08-21T08:41:43.000Z</time>
      </trkpt>
      <trkpt lat="42.97172360122203826904296875" lon="-1.04748635552823543548583984375">
        <ele>1023.79998779296875</ele>
        <time>2020-08-21T08:41:46.000Z</time>
      </trkpt>
      <trkpt lat="42.9718194901943206787109375" lon="-1.04744696058332920074462890625">
        <ele>1023.4000244140625</ele>
        <time>2020-08-21T08:41:48.000Z</time>
      </trkpt>
      <trkpt lat="42.97191806137561798095703125" lon="-1.0474151931703090667724609375">
        <ele>1022.79998779296875</ele>
        <time>2020-08-21T08:41:50.000Z</time>
      </trkpt>
      <trkpt lat="42.972108162939548492431640625" lon="-1.04734403081238269805908203125">
        <ele>1021.79998779296875</ele>
        <time>2020-08-21T08:41:54.000Z</time>
      </trkpt>
      <trkpt lat="42.9721566103398799896240234375" lon="-1.04732148349285125732421875">
        <ele>1021.5999755859375</ele>
        <time>2020-08-21T08:41:55.000Z</time>
      </trkpt>
      <trkpt lat="42.9722856916487216949462890625" lon="-1.04725015349686145782470703125">
        <ele>1021</ele>
        <time>2020-08-21T08:41:58.000Z</time>
      </trkpt>
      <trkpt lat="42.9724006913602352142333984375" lon="-1.0471536777913570404052734375">
        <ele>1020.79998779296875</ele>
        <time>2020-08-21T08:42:01.000Z</time>
      </trkpt>
      <trkpt lat="42.97250202856957912445068359375" lon="-1.04706491343677043914794921875">
        <ele>1020</ele>
        <time>2020-08-21T08:42:04.000Z</time>
      </trkpt>
      <trkpt lat="42.97260596416890621185302734375" lon="-1.04701596312224864959716796875">
        <ele>1019.5999755859375</ele>
        <time>2020-08-21T08:42:07.000Z</time>
      </trkpt>
      <trkpt lat="42.97271895222365856170654296875" lon="-1.047099195420742034912109375">
        <ele>1018.79998779296875</ele>
        <time>2020-08-21T08:42:11.000Z</time>
      </trkpt>
      <trkpt lat="42.97273806296288967132568359375" lon="-1.0471292026340961456298828125">
        <ele>1018.5999755859375</ele>
        <time>2020-08-21T08:42:12.000Z</time>
      </trkpt>
      <trkpt lat="42.9727718420326709747314453125" lon="-1.04723238386213779449462890625">
        <ele>1018.20001220703125</ele>
        <time>2020-08-21T08:42:15.000Z</time>
      </trkpt>
      <trkpt lat="42.97276832163333892822265625" lon="-1.04744008742272853851318359375">
        <ele>1019.20001220703125</ele>
        <time>2020-08-21T08:42:22.000Z</time>
      </trkpt>
      <trkpt lat="42.97268961556255817413330078125" lon="-1.0475127585232257843017578125">
        <ele>1019.79998779296875</ele>
        <time>2020-08-21T08:42:28.000Z</time>
      </trkpt>
      <trkpt lat="42.972594313323497772216796875" lon="-1.047651059925556182861328125">
        <ele>1020.5999755859375</ele>
        <time>2020-08-21T08:42:35.000Z</time>
      </trkpt>
      <trkpt lat="42.97245374880731105804443359375" lon="-1.0478706657886505126953125">
        <ele>1020.5999755859375</ele>
        <time>2020-08-21T08:42:44.000Z</time>
      </trkpt>
      <trkpt lat="42.9722823388874530792236328125" lon="-1.0480186901986598968505859375">
        <ele>1020.4000244140625</ele>
        <time>2020-08-21T08:42:52.000Z</time>
      </trkpt>
      <trkpt lat="42.97208980657160282135009765625" lon="-1.04815925471484661102294921875">
        <ele>1020.20001220703125</ele>
        <time>2020-08-21T08:43:00.000Z</time>
      </trkpt>
      <trkpt lat="42.9718893952667713165283203125" lon="-1.0482507012784481048583984375">
        <ele>1020.4000244140625</ele>
        <time>2020-08-21T08:43:08.000Z</time>
      </trkpt>
      <trkpt lat="42.97170222736895084381103515625" lon="-1.04832890443503856658935546875">
        <ele>1020</ele>
        <time>2020-08-21T08:43:15.000Z</time>
      </trkpt>
      <trkpt lat="42.97148480080068111419677734375" lon="-1.04841222055256366729736328125">
        <ele>1019</ele>
        <time>2020-08-21T08:43:21.000Z</time>
      </trkpt>
      <trkpt lat="42.97144691459834575653076171875" lon="-1.0484230332076549530029296875">
        <ele>1019</ele>
        <time>2020-08-21T08:43:22.000Z</time>
      </trkpt>
      <trkpt lat="42.97128832899034023284912109375" lon="-1.0485065169632434844970703125">
        <ele>1018.4000244140625</ele>
        <time>2020-08-21T08:43:27.000Z</time>
      </trkpt>
      <trkpt lat="42.9711769334971904754638671875" lon="-1.048615984618663787841796875">
        <ele>1018.20001220703125</ele>
        <time>2020-08-21T08:43:31.000Z</time>
      </trkpt>
      <trkpt lat="42.9711543023586273193359375" lon="-1.0486513562500476837158203125">
        <ele>1018.20001220703125</ele>
        <time>2020-08-21T08:43:32.000Z</time>
      </trkpt>
      <trkpt lat="42.97108582220971584320068359375" lon="-1.04877918027341365814208984375">
        <ele>1017.79998779296875</ele>
        <time>2020-08-21T08:43:35.000Z</time>
      </trkpt>
      <trkpt lat="42.97104525379836559295654296875" lon="-1.0488853789865970611572265625">
        <ele>1017.5999755859375</ele>
        <time>2020-08-21T08:43:37.000Z</time>
      </trkpt>
      <trkpt lat="42.9710059426724910736083984375" lon="-1.049001216888427734375">
        <ele>1017</ele>
        <time>2020-08-21T08:43:39.000Z</time>
      </trkpt>
      <trkpt lat="42.97098725102841854095458984375" lon="-1.04906181804835796356201171875">
        <ele>1016.79998779296875</ele>
        <time>2020-08-21T08:43:40.000Z</time>
      </trkpt>
      <trkpt lat="42.97093695960938930511474609375" lon="-1.04925158433616161346435546875">
        <ele>1015.79998779296875</ele>
        <time>2020-08-21T08:43:43.000Z</time>
      </trkpt>
      <trkpt lat="42.970848195254802703857421875" lon="-1.049564816057682037353515625">
        <ele>1014.5999755859375</ele>
        <time>2020-08-21T08:43:48.000Z</time>
      </trkpt>
      <trkpt lat="42.97081257216632366180419921875" lon="-1.0496793128550052642822265625">
        <ele>1014</ele>
        <time>2020-08-21T08:43:50.000Z</time>
      </trkpt>
      <trkpt lat="42.97079580835998058319091796875" lon="-1.04973924346268177032470703125">
        <ele>1013.5999755859375</ele>
        <time>2020-08-21T08:43:51.000Z</time>
      </trkpt>
      <trkpt lat="42.970724813640117645263671875" lon="-1.05002255178987979888916015625">
        <ele>1012.5999755859375</ele>
        <time>2020-08-21T08:43:55.000Z</time>
      </trkpt>
      <trkpt lat="42.97070570290088653564453125" lon="-1.05010251514613628387451171875">
        <ele>1012</ele>
        <time>2020-08-21T08:43:56.000Z</time>
      </trkpt>
      <trkpt lat="42.9706666432321071624755859375" lon="-1.0502727515995502471923828125">
        <ele>1011</ele>
        <time>2020-08-21T08:43:58.000Z</time>
      </trkpt>
      <trkpt lat="42.97062381170690059661865234375" lon="-1.0505416430532932281494140625">
        <ele>1009.5999755859375</ele>
        <time>2020-08-21T08:44:01.000Z</time>
      </trkpt>
      <trkpt lat="42.97061291523277759552001953125" lon="-1.05062973685562610626220703125">
        <ele>1009</ele>
        <time>2020-08-21T08:44:02.000Z</time>
      </trkpt>
      <trkpt lat="42.97059631906449794769287109375" lon="-1.0508661903440952301025390625">
        <ele>1008.5999755859375</ele>
        <time>2020-08-21T08:44:05.000Z</time>
      </trkpt>
      <trkpt lat="42.9705965705215930938720703125" lon="-1.051001138985157012939453125">
        <ele>1008.79998779296875</ele>
        <time>2020-08-21T08:44:07.000Z</time>
      </trkpt>
      <trkpt lat="42.970600090920925140380859375" lon="-1.05106425471603870391845703125">
        <ele>1009</ele>
        <time>2020-08-21T08:44:08.000Z</time>
      </trkpt>
      <trkpt lat="42.97063956968486309051513671875" lon="-1.05127061717212200164794921875">
        <ele>1009.4000244140625</ele>
        <time>2020-08-21T08:44:12.000Z</time>
      </trkpt>
      <trkpt lat="42.970769740641117095947265625" lon="-1.05153699405491352081298828125">
        <ele>1009.5999755859375</ele>
        <time>2020-08-21T08:44:19.000Z</time>
      </trkpt>
      <trkpt lat="42.97089689411222934722900390625" lon="-1.051704548299312591552734375">
        <ele>1009.5999755859375</ele>
        <time>2020-08-21T08:44:25.000Z</time>
      </trkpt>
      <trkpt lat="42.97108045779168605804443359375" lon="-1.05193261988461017608642578125">
        <ele>1009.20001220703125</ele>
        <time>2020-08-21T08:44:34.000Z</time>
      </trkpt>
      <trkpt lat="42.9712691344320774078369140625" lon="-1.052181310951709747314453125">
        <ele>1009</ele>
        <time>2020-08-21T08:44:43.000Z</time>
      </trkpt>
      <trkpt lat="42.97138153575360774993896484375" lon="-1.052328161895275115966796875">
        <ele>1008.5999755859375</ele>
        <time>2020-08-21T08:44:48.000Z</time>
      </trkpt>
      <trkpt lat="42.97146066091954708099365234375" lon="-1.0524185188114643096923828125">
        <ele>1008.4000244140625</ele>
        <time>2020-08-21T08:44:51.000Z</time>
      </trkpt>
      <trkpt lat="42.971623353660106658935546875" lon="-1.0526465065777301788330078125">
        <ele>1008.5999755859375</ele>
        <time>2020-08-21T08:44:57.000Z</time>
      </trkpt>
      <trkpt lat="42.97168026678264141082763671875" lon="-1.0527444072067737579345703125">
        <ele>1007.4000244140625</ele>
        <time>2020-08-21T08:44:59.000Z</time>
      </trkpt>
      <trkpt lat="42.97175855375826358795166015625" lon="-1.05289720930159091949462890625">
        <ele>1006</ele>
        <time>2020-08-21T08:45:02.000Z</time>
      </trkpt>
      <trkpt lat="42.9717988707125186920166015625" lon="-1.05299192480742931365966796875">
        <ele>1005.5999755859375</ele>
        <time>2020-08-21T08:45:04.000Z</time>
      </trkpt>
      <trkpt lat="42.97183449380099773406982421875" lon="-1.053082533180713653564453125">
        <ele>1004.79998779296875</ele>
        <time>2020-08-21T08:45:06.000Z</time>
      </trkpt>
      <trkpt lat="42.97191294841468334197998046875" lon="-1.05326232500374317169189453125">
        <ele>1004.4000244140625</ele>
        <time>2020-08-21T08:45:10.000Z</time>
      </trkpt>
      <trkpt lat="42.97195401974022388458251953125" lon="-1.05342862196266651153564453125">
        <ele>1003.79998779296875</ele>
        <time>2020-08-21T08:45:14.000Z</time>
      </trkpt>
      <trkpt lat="42.97195150516927242279052734375" lon="-1.05347472243010997772216796875">
        <ele>1003.4000244140625</ele>
        <time>2020-08-21T08:45:15.000Z</time>
      </trkpt>
      <trkpt lat="42.9718749783933162689208984375" lon="-1.0536965914070606231689453125">
        <ele>1002.79998779296875</ele>
        <time>2020-08-21T08:45:20.000Z</time>
      </trkpt>
      <trkpt lat="42.9718528501689434051513671875" lon="-1.05373707599937915802001953125">
        <ele>1002.79998779296875</ele>
        <time>2020-08-21T08:45:21.000Z</time>
      </trkpt>
      <trkpt lat="42.97174212522804737091064453125" lon="-1.05392298661172389984130859375">
        <ele>1002</ele>
        <time>2020-08-21T08:45:26.000Z</time>
      </trkpt>
      <trkpt lat="42.97167808748781681060791015625" lon="-1.05417109094560146331787109375">
        <ele>1002</ele>
        <time>2020-08-21T08:45:33.000Z</time>
      </trkpt>
      <trkpt lat="42.97170482575893402099609375" lon="-1.05434828437864780426025390625">
        <ele>1002.79998779296875</ele>
        <time>2020-08-21T08:45:39.000Z</time>
      </trkpt>
      <trkpt lat="42.97177196480333805084228515625" lon="-1.0545116476714611053466796875">
        <ele>1003</ele>
        <time>2020-08-21T08:45:47.000Z</time>
      </trkpt>
      <trkpt lat="42.9718087613582611083984375" lon="-1.05457308702170848846435546875">
        <ele>1002.79998779296875</ele>
        <time>2020-08-21T08:45:54.000Z</time>
      </trkpt>
      <trkpt lat="42.97182175330817699432373046875" lon="-1.05462170206010341644287109375">
        <ele>1003.4000244140625</ele>
        <time>2020-08-21T08:46:06.000Z</time>
      </trkpt>
      <trkpt lat="42.9718327336013317108154296875" lon="-1.05468909256160259246826171875">
        <ele>1002.79998779296875</ele>
        <time>2020-08-21T08:46:10.000Z</time>
      </trkpt>
      <trkpt lat="42.97186081297695636749267578125" lon="-1.054750196635723114013671875">
        <ele>1002.79998779296875</ele>
        <time>2020-08-21T08:46:13.000Z</time>
      </trkpt>
      <trkpt lat="42.97187405638396739959716796875" lon="-1.05478338897228240966796875">
        <ele>1002.79998779296875</ele>
        <time>2020-08-21T08:46:15.000Z</time>
      </trkpt>
      <trkpt lat="42.9718974418938159942626953125" lon="-1.0548127256333827972412109375">
        <ele>1003</ele>
        <time>2020-08-21T08:46:18.000Z</time>
      </trkpt>
      <trkpt lat="42.9719187319278717041015625" lon="-1.054833345115184783935546875">
        <ele>1002.79998779296875</ele>
        <time>2020-08-21T08:46:20.000Z</time>
      </trkpt>
      <trkpt lat="42.9719447158277034759521484375" lon="-1.05487835593521595001220703125">
        <ele>1002.79998779296875</ele>
        <time>2020-08-21T08:46:23.000Z</time>
      </trkpt>
      <trkpt lat="42.971965335309505462646484375" lon="-1.0549106262624263763427734375">
        <ele>1003</ele>
        <time>2020-08-21T08:46:26.000Z</time>
      </trkpt>
      <trkpt lat="42.97201001085340976715087890625" lon="-1.05494541116058826446533203125">
        <ele>1003.20001220703125</ele>
        <time>2020-08-21T08:46:29.000Z</time>
      </trkpt>
      <trkpt lat="42.972134649753570556640625" lon="-1.055050604045391082763671875">
        <ele>1003</ele>
        <time>2020-08-21T08:46:37.000Z</time>
      </trkpt>
      <trkpt lat="42.972216121852397918701171875" lon="-1.05513568036258220672607421875">
        <ele>1003.20001220703125</ele>
        <time>2020-08-21T08:46:44.000Z</time>
      </trkpt>
      <trkpt lat="42.972286529839038848876953125" lon="-1.05521648190915584564208984375">
        <ele>1003.5999755859375</ele>
        <time>2020-08-21T08:46:49.000Z</time>
      </trkpt>
      <trkpt lat="42.97244913876056671142578125" lon="-1.05542837642133235931396484375">
        <ele>1002.79998779296875</ele>
        <time>2020-08-21T08:46:58.000Z</time>
      </trkpt>
      <trkpt lat="42.97258903272449970245361328125" lon="-1.0556126944720745086669921875">
        <ele>1003.4000244140625</ele>
        <time>2020-08-21T08:47:05.000Z</time>
      </trkpt>
      <trkpt lat="42.9727797210216522216796875" lon="-1.0557984374463558197021484375">
        <ele>1003.20001220703125</ele>
        <time>2020-08-21T08:47:13.000Z</time>
      </trkpt>
      <trkpt lat="42.97297074459493160247802734375" lon="-1.056036315858364105224609375">
        <ele>1002.5999755859375</ele>
        <time>2020-08-21T08:47:21.000Z</time>
      </trkpt>
      <trkpt lat="42.97312195412814617156982421875" lon="-1.05627293698489665985107421875">
        <ele>1002</ele>
        <time>2020-08-21T08:47:28.000Z</time>
      </trkpt>
      <trkpt lat="42.97316922806203365325927734375" lon="-1.05633429251611232757568359375">
        <ele>1001.79998779296875</ele>
        <time>2020-08-21T08:47:30.000Z</time>
      </trkpt>
      <trkpt lat="42.97326411120593547821044921875" lon="-1.05650997720658779144287109375">
        <ele>1002.20001220703125</ele>
        <time>2020-08-21T08:47:35.000Z</time>
      </trkpt>
      <trkpt lat="42.97332161106169223785400390625" lon="-1.05677635408937931060791015625">
        <ele>1002.20001220703125</ele>
        <time>2020-08-21T08:47:41.000Z</time>
      </trkpt>
      <trkpt lat="42.97333770431578159332275390625" lon="-1.0571281425654888153076171875">
        <ele>1001.5999755859375</ele>
        <time>2020-08-21T08:47:48.000Z</time>
      </trkpt>
      <trkpt lat="42.97332647256553173065185546875" lon="-1.05756676755845546722412109375">
        <ele>1000.79998779296875</ele>
        <time>2020-08-21T08:47:56.000Z</time>
      </trkpt>
      <trkpt lat="42.973303087055683135986328125" lon="-1.05774915777146816253662109375">
        <ele>999.20001220703125</ele>
        <time>2020-08-21T08:47:59.000Z</time>
      </trkpt>
      <trkpt lat="42.97327031381428241729736328125" lon="-1.0580679215490818023681640625">
        <ele>997.79998779296875</ele>
        <time>2020-08-21T08:48:04.000Z</time>
      </trkpt>
      <trkpt lat="42.973261177539825439453125" lon="-1.05813455767929553985595703125">
        <ele>997.4000244140625</ele>
        <time>2020-08-21T08:48:05.000Z</time>
      </trkpt>
      <trkpt lat="42.97325053252279758453369140625" lon="-1.058200858533382415771484375">
        <ele>996.79998779296875</ele>
        <time>2020-08-21T08:48:06.000Z</time>
      </trkpt>
      <trkpt lat="42.97323008067905902862548828125" lon="-1.05832968838512897491455078125">
        <ele>995.5999755859375</ele>
        <time>2020-08-21T08:48:08.000Z</time>
      </trkpt>
      <trkpt lat="42.973207533359527587890625" lon="-1.058512665331363677978515625">
        <ele>994.4000244140625</ele>
        <time>2020-08-21T08:48:11.000Z</time>
      </trkpt>
      <trkpt lat="42.97320325858891010284423828125" lon="-1.0585795529186725616455078125">
        <ele>994.4000244140625</ele>
        <time>2020-08-21T08:48:12.000Z</time>
      </trkpt>
      <trkpt lat="42.97323762439191341400146484375" lon="-1.05877376161515712738037109375">
        <ele>994.4000244140625</ele>
        <time>2020-08-21T08:48:15.000Z</time>
      </trkpt>
      <trkpt lat="42.9733196832239627838134765625" lon="-1.05909763835370540618896484375">
        <ele>993.79998779296875</ele>
        <time>2020-08-21T08:48:21.000Z</time>
      </trkpt>
      <trkpt lat="42.9732915200293064117431640625" lon="-1.05937742628157138824462890625">
        <ele>994</ele>
        <time>2020-08-21T08:48:27.000Z</time>
      </trkpt>
      <trkpt lat="42.97316537238657474517822265625" lon="-1.05972058139741420745849609375">
        <ele>994.5999755859375</ele>
        <time>2020-08-21T08:48:35.000Z</time>
      </trkpt>
      <trkpt lat="42.97297711484134197235107421875" lon="-1.0600219108164310455322265625">
        <ele>994.5999755859375</ele>
        <time>2020-08-21T08:48:44.000Z</time>
      </trkpt>
      <trkpt lat="42.9727778770029544830322265625" lon="-1.06020958162844181060791015625">
        <ele>994</ele>
        <time>2020-08-21T08:48:51.000Z</time>
      </trkpt>
      <trkpt lat="42.972527258098125457763671875" lon="-1.06046908535063266754150390625">
        <ele>994.79998779296875</ele>
        <time>2020-08-21T08:49:00.000Z</time>
      </trkpt>
      <trkpt lat="42.9723607935011386871337890625" lon="-1.06073428876698017120361328125">
        <ele>994.4000244140625</ele>
        <time>2020-08-21T08:49:08.000Z</time>
      </trkpt>
      <trkpt lat="42.9722414351999759674072265625" lon="-1.06097769923508167266845703125">
        <ele>993.79998779296875</ele>
        <time>2020-08-21T08:49:14.000Z</time>
      </trkpt>
      <trkpt lat="42.9720999486744403839111328125" lon="-1.061265282332897186279296875">
        <ele>993.4000244140625</ele>
        <time>2020-08-21T08:49:21.000Z</time>
      </trkpt>
      <trkpt lat="42.971937172114849090576171875" lon="-1.06156929396092891693115234375">
        <ele>993.4000244140625</ele>
        <time>2020-08-21T08:49:28.000Z</time>
      </trkpt>
      <trkpt lat="42.97186307609081268310546875" lon="-1.06178236193954944610595703125">
        <ele>993.5999755859375</ele>
        <time>2020-08-21T08:49:32.000Z</time>
      </trkpt>
      <trkpt lat="42.9718411155045032501220703125" lon="-1.0618313960731029510498046875">
        <ele>993.4000244140625</ele>
        <time>2020-08-21T08:49:33.000Z</time>
      </trkpt>
      <trkpt lat="42.97182418406009674072265625" lon="-1.06188118457794189453125">
        <ele>992.79998779296875</ele>
        <time>2020-08-21T08:49:34.000Z</time>
      </trkpt>
      <trkpt lat="42.971729300916194915771484375" lon="-1.0622028820216655731201171875">
        <ele>992</ele>
        <time>2020-08-21T08:49:40.000Z</time>
      </trkpt>
      <trkpt lat="42.971717230975627899169921875" lon="-1.06225811876356601715087890625">
        <ele>991.5999755859375</ele>
        <time>2020-08-21T08:49:41.000Z</time>
      </trkpt>
      <trkpt lat="42.97166526317596435546875" lon="-1.06254645623266696929931640625">
        <ele>991.20001220703125</ele>
        <time>2020-08-21T08:49:46.000Z</time>
      </trkpt>
      <trkpt lat="42.97162092290818691253662109375" lon="-1.06279824860394001007080078125">
        <ele>990.5999755859375</ele>
        <time>2020-08-21T08:49:50.000Z</time>
      </trkpt>
      <trkpt lat="42.97160432673990726470947265625" lon="-1.06299958191812038421630859375">
        <ele>991.4000244140625</ele>
        <time>2020-08-21T08:49:53.000Z</time>
      </trkpt>
      <trkpt lat="42.97159192152321338653564453125" lon="-1.06321365572512149810791015625">
        <ele>990</ele>
        <time>2020-08-21T08:49:56.000Z</time>
      </trkpt>
      <trkpt lat="42.97159628011286258697509765625" lon="-1.06343753635883331298828125">
        <ele>989.4000244140625</ele>
        <time>2020-08-21T08:49:59.000Z</time>
      </trkpt>
      <trkpt lat="42.97161706723272800445556640625" lon="-1.0635771788656711578369140625">
        <ele>989</ele>
        <time>2020-08-21T08:50:01.000Z</time>
      </trkpt>
      <trkpt lat="42.97168177552521228790283203125" lon="-1.06376484967768192291259765625">
        <ele>988</ele>
        <time>2020-08-21T08:50:04.000Z</time>
      </trkpt>
      <trkpt lat="42.97182728536427021026611328125" lon="-1.06417891569435596466064453125">
        <ele>987.5999755859375</ele>
        <time>2020-08-21T08:50:10.000Z</time>
      </trkpt>
      <trkpt lat="42.97190892510116100311279296875" lon="-1.06449340470135211944580078125">
        <ele>986.4000244140625</ele>
        <time>2020-08-21T08:50:14.000Z</time>
      </trkpt>
      <trkpt lat="42.97196022234857082366943359375" lon="-1.06480789370834827423095703125">
        <ele>985.5999755859375</ele>
        <time>2020-08-21T08:50:18.000Z</time>
      </trkpt>
      <trkpt lat="42.97198939137160778045654296875" lon="-1.06495223008096218109130859375">
        <ele>985.4000244140625</ele>
        <time>2020-08-21T08:50:20.000Z</time>
      </trkpt>
      <trkpt lat="42.97205845825374126434326171875" lon="-1.06521449983119964599609375">
        <ele>985</ele>
        <time>2020-08-21T08:50:24.000Z</time>
      </trkpt>
      <trkpt lat="42.97216407023370265960693359375" lon="-1.06569956056773662567138671875">
        <ele>984.5999755859375</ele>
        <time>2020-08-21T08:50:32.000Z</time>
      </trkpt>
      <trkpt lat="42.9721981845796108245849609375" lon="-1.0659227706491947174072265625">
        <ele>984.5999755859375</ele>
        <time>2020-08-21T08:50:36.000Z</time>
      </trkpt>
      <trkpt lat="42.97222777269780635833740234375" lon="-1.0662020556628704071044921875">
        <ele>983.79998779296875</ele>
        <time>2020-08-21T08:50:41.000Z</time>
      </trkpt>
      <trkpt lat="42.9722672514617443084716796875" lon="-1.06657614000141620635986328125">
        <ele>984.20001220703125</ele>
        <time>2020-08-21T08:50:48.000Z</time>
      </trkpt>
      <trkpt lat="42.9722987674176692962646484375" lon="-1.0669832490384578704833984375">
        <ele>983.79998779296875</ele>
        <time>2020-08-21T08:50:56.000Z</time>
      </trkpt>
      <trkpt lat="42.97232567332684993743896484375" lon="-1.0675398074090480804443359375">
        <ele>984.5999755859375</ele>
        <time>2020-08-21T08:51:07.000Z</time>
      </trkpt>
      <trkpt lat="42.97236263751983642578125" lon="-1.06789804995059967041015625">
        <ele>984.4000244140625</ele>
        <time>2020-08-21T08:51:14.000Z</time>
      </trkpt>
      <trkpt lat="42.97244687564671039581298828125" lon="-1.06840289197862148284912109375">
        <ele>983.79998779296875</ele>
        <time>2020-08-21T08:51:24.000Z</time>
      </trkpt>
      <trkpt lat="42.9724476300179958343505859375" lon="-1.06866256333887577056884765625">
        <ele>983.5999755859375</ele>
        <time>2020-08-21T08:51:29.000Z</time>
      </trkpt>
      <trkpt lat="42.9724422655999660491943359375" lon="-1.06876683421432971954345703125">
        <ele>983.5999755859375</ele>
        <time>2020-08-21T08:51:31.000Z</time>
      </trkpt>
      <trkpt lat="42.97239826060831546783447265625" lon="-1.0692668147385120391845703125">
        <ele>983.5999755859375</ele>
        <time>2020-08-21T08:51:41.000Z</time>
      </trkpt>
      <trkpt lat="42.97235836274921894073486328125" lon="-1.06959454715251922607421875">
        <ele>983</ele>
        <time>2020-08-21T08:51:48.000Z</time>
      </trkpt>
      <trkpt lat="42.9723343066871166229248046875" lon="-1.0696369595825672149658203125">
        <ele>982.79998779296875</ele>
        <time>2020-08-21T08:51:49.000Z</time>
      </trkpt>
      <trkpt lat="42.9722638987004756927490234375" lon="-1.06968699954450130462646484375">
        <ele>982.5999755859375</ele>
        <time>2020-08-21T08:51:51.000Z</time>
      </trkpt>
      <trkpt lat="42.9722233302891254425048828125" lon="-1.06969487853348255157470703125">
        <ele>982.4000244140625</ele>
        <time>2020-08-21T08:51:52.000Z</time>
      </trkpt>
      <trkpt lat="42.97210774384438991546630859375" lon="-1.06968968175351619720458984375">
        <ele>982</ele>
        <time>2020-08-21T08:51:55.000Z</time>
      </trkpt>
      <trkpt lat="42.9720124416053295135498046875" lon="-1.06966830790042877197265625">
        <ele>982</ele>
        <time>2020-08-21T08:51:58.000Z</time>
      </trkpt>
      <trkpt lat="42.971922419965267181396484375" lon="-1.06965648941695690155029296875">
        <ele>982.4000244140625</ele>
        <time>2020-08-21T08:52:03.000Z</time>
      </trkpt>
      <trkpt lat="42.971923090517520904541015625" lon="-1.06965699233114719390869140625">
        <ele>982.4000244140625</ele>
        <time>2020-08-21T08:52:19.000Z</time>
      </trkpt>
      <trkpt lat="42.971923090517520904541015625" lon="-1.06965598650276660919189453125">
        <ele>982.4000244140625</ele>
        <time>2020-08-21T08:52:38.000Z</time>
      </trkpt>
      <trkpt lat="42.97192317433655261993408203125" lon="-1.06965548358857631683349609375">
        <ele>982.20001220703125</ele>
        <time>2020-08-21T08:53:13.000Z</time>
      </trkpt>
      <trkpt lat="42.9719229228794574737548828125" lon="-1.0696550644934177398681640625">
        <ele>982</ele>
        <time>2020-08-21T08:53:23.000Z</time>
      </trkpt>
      <trkpt lat="42.97192267142236232757568359375" lon="-1.0696553997695446014404296875">
        <ele>982.20001220703125</ele>
        <time>2020-08-21T08:53:40.000Z</time>
      </trkpt>
      <trkpt lat="42.9718790017068386077880859375" lon="-1.06964240781962871551513671875">
        <ele>982</ele>
        <time>2020-08-21T08:53:44.000Z</time>
      </trkpt>
      <trkpt lat="42.97171211801469326019287109375" lon="-1.06963033787906169891357421875">
        <ele>981.79998779296875</ele>
        <time>2020-08-21T08:53:51.000Z</time>
      </trkpt>
      <trkpt lat="42.9716880619525909423828125" lon="-1.06963201425969600677490234375">
        <ele>981.79998779296875</ele>
        <time>2020-08-21T08:53:54.000Z</time>
      </trkpt>
      <trkpt lat="42.971703819930553436279296875" lon="-1.06962681747972965240478515625">
        <ele>982</ele>
        <time>2020-08-21T08:54:00.000Z</time>
      </trkpt>
      <trkpt lat="42.9717070050537586212158203125" lon="-1.069629751145839691162109375">
        <ele>982</ele>
        <time>2020-08-21T08:54:03.000Z</time>
      </trkpt>
      <trkpt lat="42.9716972820460796356201171875" lon="-1.06962078250944614410400390625">
        <ele>981.79998779296875</ele>
        <time>2020-08-21T09:00:14.000Z</time>
      </trkpt>
      <trkpt lat="42.97168713994324207305908203125" lon="-1.06961826793849468231201171875">
        <ele>981.79998779296875</ele>
        <time>2020-08-21T09:00:17.000Z</time>
      </trkpt>
      <trkpt lat="42.97157180495560169219970703125" lon="-1.06965221464633941650390625">
        <ele>982</ele>
        <time>2020-08-21T09:00:24.000Z</time>
      </trkpt>
      <trkpt lat="42.97144289128482341766357421875" lon="-1.0697868280112743377685546875">
        <ele>982.79998779296875</ele>
        <time>2020-08-21T09:00:33.000Z</time>
      </trkpt>
      <trkpt lat="42.97137550078332424163818359375" lon="-1.0699014924466609954833984375">
        <ele>983.79998779296875</ele>
        <time>2020-08-21T09:00:39.000Z</time>
      </trkpt>
      <trkpt lat="42.97134809195995330810546875" lon="-1.069963686168193817138671875">
        <ele>984</ele>
        <time>2020-08-21T09:00:42.000Z</time>
      </trkpt>
      <trkpt lat="42.971300147473812103271484375" lon="-1.07009586878120899200439453125">
        <ele>984.79998779296875</ele>
        <time>2020-08-21T09:00:48.000Z</time>
      </trkpt>
      <trkpt lat="42.9712801985442638397216796875" lon="-1.0701700486242771148681640625">
        <ele>985</ele>
        <time>2020-08-21T09:00:51.000Z</time>
      </trkpt>
      <trkpt lat="42.9712540470063686370849609375" lon="-1.07035000808537006378173828125">
        <ele>985.4000244140625</ele>
        <time>2020-08-21T09:00:58.000Z</time>
      </trkpt>
      <trkpt lat="42.97123535536229610443115234375" lon="-1.07056525535881519317626953125">
        <ele>986</ele>
        <time>2020-08-21T09:01:06.000Z</time>
      </trkpt>
      <trkpt lat="42.97123300842940807342529296875" lon="-1.07059408910572528839111328125">
        <ele>986.4000244140625</ele>
        <time>2020-08-21T09:01:07.000Z</time>
      </trkpt>
      <trkpt lat="42.971210964024066925048828125" lon="-1.07070322148501873016357421875">
        <ele>986.20001220703125</ele>
        <time>2020-08-21T09:01:11.000Z</time>
      </trkpt>
      <trkpt lat="42.97117986716330051422119140625" lon="-1.07094596140086650848388671875">
        <ele>986.20001220703125</ele>
        <time>2020-08-21T09:01:19.000Z</time>
      </trkpt>
      <trkpt lat="42.9711541347205638885498046875" lon="-1.07115534134209156036376953125">
        <ele>986.5999755859375</ele>
        <time>2020-08-21T09:01:26.000Z</time>
      </trkpt>
      <trkpt lat="42.9711055196821689605712890625" lon="-1.0713609494268894195556640625">
        <ele>986.5999755859375</ele>
        <time>2020-08-21T09:01:32.000Z</time>
      </trkpt>
      <trkpt lat="42.9710765182971954345703125" lon="-1.07157996855676174163818359375">
        <ele>986.79998779296875</ele>
        <time>2020-08-21T09:01:38.000Z</time>
      </trkpt>
      <trkpt lat="42.9710867442190647125244140625" lon="-1.07182069681584835052490234375">
        <ele>987.4000244140625</ele>
        <time>2020-08-21T09:01:46.000Z</time>
      </trkpt>
      <trkpt lat="42.97111733816564083099365234375" lon="-1.0720105469226837158203125">
        <ele>987.79998779296875</ele>
        <time>2020-08-21T09:01:52.000Z</time>
      </trkpt>
      <trkpt lat="42.97112169675529003143310546875" lon="-1.07204197905957698822021484375">
        <ele>988</ele>
        <time>2020-08-21T09:01:53.000Z</time>
      </trkpt>
      <trkpt lat="42.9711346887052059173583984375" lon="-1.07222755439579486846923828125">
        <ele>988.79998779296875</ele>
        <time>2020-08-21T09:01:59.000Z</time>
      </trkpt>
      <trkpt lat="42.97116276808083057403564453125" lon="-1.07240910641849040985107421875">
        <ele>989</ele>
        <time>2020-08-21T09:02:05.000Z</time>
      </trkpt>
      <trkpt lat="42.9711730778217315673828125" lon="-1.0724680311977863311767578125">
        <ele>989.20001220703125</ele>
        <time>2020-08-21T09:02:07.000Z</time>
      </trkpt>
      <trkpt lat="42.97121976502239704132080078125" lon="-1.07275846414268016815185546875">
        <ele>990</ele>
        <time>2020-08-21T09:02:16.000Z</time>
      </trkpt>
      <trkpt lat="42.97122915275394916534423828125" lon="-1.07292853295803070068359375">
        <ele>990.5999755859375</ele>
        <time>2020-08-21T09:02:22.000Z</time>
      </trkpt>
      <trkpt lat="42.97124239616096019744873046875" lon="-1.073092482984066009521484375">
        <ele>991.5999755859375</ele>
        <time>2020-08-21T09:02:29.000Z</time>
      </trkpt>
      <trkpt lat="42.9712433181703090667724609375" lon="-1.07312827371060848236083984375">
        <ele>991.5999755859375</ele>
        <time>2020-08-21T09:02:30.000Z</time>
      </trkpt>
      <trkpt lat="42.97119713388383388519287109375" lon="-1.07326171360909938812255859375">
        <ele>991.79998779296875</ele>
        <time>2020-08-21T09:02:35.000Z</time>
      </trkpt>
      <trkpt lat="42.97111599706113338470458984375" lon="-1.0734294354915618896484375">
        <ele>993</ele>
        <time>2020-08-21T09:02:41.000Z</time>
      </trkpt>
      <trkpt lat="42.97103025019168853759765625" lon="-1.07358927838504314422607421875">
        <ele>993.5999755859375</ele>
        <time>2020-08-21T09:02:48.000Z</time>
      </trkpt>
      <trkpt lat="42.97093260101974010467529296875" lon="-1.07376269996166229248046875">
        <ele>993.5999755859375</ele>
        <time>2020-08-21T09:02:55.000Z</time>
      </trkpt>
      <trkpt lat="42.970936037600040435791015625" lon="-1.07396788895130157470703125">
        <ele>994.4000244140625</ele>
        <time>2020-08-21T09:03:01.000Z</time>
      </trkpt>
      <trkpt lat="42.97098540700972080230712890625" lon="-1.074164696037769317626953125">
        <ele>995</ele>
        <time>2020-08-21T09:03:08.000Z</time>
      </trkpt>
      <trkpt lat="42.97099680639803409576416015625" lon="-1.07423837296664714813232421875">
        <ele>996.20001220703125</ele>
        <time>2020-08-21T09:03:11.000Z</time>
      </trkpt>
      <trkpt lat="42.97101281583309173583984375" lon="-1.07436208985745906829833984375">
        <ele>997.20001220703125</ele>
        <time>2020-08-21T09:03:17.000Z</time>
      </trkpt>
      <trkpt lat="42.97101558186113834381103515625" lon="-1.07437868602573871612548828125">
        <ele>997.20001220703125</ele>
        <time>2020-08-21T09:03:18.000Z</time>
      </trkpt>
      <trkpt lat="42.971010468900203704833984375" lon="-1.0744994692504405975341796875">
        <ele>998</ele>
        <time>2020-08-21T09:03:24.000Z</time>
      </trkpt>
      <trkpt lat="42.97100284136831760406494140625" lon="-1.0745477490127086639404296875">
        <ele>998.20001220703125</ele>
        <time>2020-08-21T09:03:26.000Z</time>
      </trkpt>
      <trkpt lat="42.97100082971155643463134765625" lon="-1.07467222027480602264404296875">
        <ele>999.20001220703125</ele>
        <time>2020-08-21T09:03:31.000Z</time>
      </trkpt>
      <trkpt lat="42.97100703231990337371826171875" lon="-1.0747489146888256072998046875">
        <ele>999.79998779296875</ele>
        <time>2020-08-21T09:03:34.000Z</time>
      </trkpt>
      <trkpt lat="42.9710066132247447967529296875" lon="-1.07477347366511821746826171875">
        <ele>999.79998779296875</ele>
        <time>2020-08-21T09:03:35.000Z</time>
      </trkpt>
      <trkpt lat="42.9710032604634761810302734375" lon="-1.07481152750551700592041015625">
        <ele>1000</ele>
        <time>2020-08-21T09:03:37.000Z</time>
      </trkpt>
      <trkpt lat="42.9709881730377674102783203125" lon="-1.07493272982537746429443359375">
        <ele>1000.79998779296875</ele>
        <time>2020-08-21T09:03:42.000Z</time>
      </trkpt>
      <trkpt lat="42.97098708339035511016845703125" lon="-1.07495502568781375885009765625">
        <ele>1000.79998779296875</ele>
        <time>2020-08-21T09:03:43.000Z</time>
      </trkpt>
      <trkpt lat="42.97098423354327678680419921875" lon="-1.07497229240834712982177734375">
        <ele>1000.79998779296875</ele>
        <time>2020-08-21T09:03:44.000Z</time>
      </trkpt>
      <trkpt lat="42.9709697328507900238037109375" lon="-1.07504689134657382965087890625">
        <ele>1001.20001220703125</ele>
        <time>2020-08-21T09:03:48.000Z</time>
      </trkpt>
      <trkpt lat="42.97092430293560028076171875" lon="-1.0751934908330440521240234375">
        <ele>1001.79998779296875</ele>
        <time>2020-08-21T09:03:54.000Z</time>
      </trkpt>
      <trkpt lat="42.970912568271160125732421875" lon="-1.07521167956292629241943359375">
        <ele>1001.79998779296875</ele>
        <time>2020-08-21T09:03:55.000Z</time>
      </trkpt>
      <trkpt lat="42.97086261212825775146484375" lon="-1.07533137314021587371826171875">
        <ele>1002</ele>
        <time>2020-08-21T09:04:00.000Z</time>
      </trkpt>
      <trkpt lat="42.97078549861907958984375" lon="-1.07546783052384853363037109375">
        <ele>1002.5999755859375</ele>
        <time>2020-08-21T09:04:06.000Z</time>
      </trkpt>
      <trkpt lat="42.9706393182277679443359375" lon="-1.0756025277078151702880859375">
        <ele>1002.5999755859375</ele>
        <time>2020-08-21T09:04:13.000Z</time>
      </trkpt>
      <trkpt lat="42.97061744146049022674560546875" lon="-1.07562138698995113372802734375">
        <ele>1003</ele>
        <time>2020-08-21T09:04:14.000Z</time>
      </trkpt>
      <trkpt lat="42.97049657441675662994384765625" lon="-1.0757010988891124725341796875">
        <ele>1003.4000244140625</ele>
        <time>2020-08-21T09:04:19.000Z</time>
      </trkpt>
      <trkpt lat="42.97029205597937107086181640625" lon="-1.0758368857204914093017578125">
        <ele>1003.79998779296875</ele>
        <time>2020-08-21T09:04:28.000Z</time>
      </trkpt>
      <trkpt lat="42.97018493525683879852294921875" lon="-1.07590436004102230072021484375">
        <ele>1004.20001220703125</ele>
        <time>2020-08-21T09:04:33.000Z</time>
      </trkpt>
      <trkpt lat="42.97014403156936168670654296875" lon="-1.07593034394085407257080078125">
        <ele>1004.4000244140625</ele>
        <time>2020-08-21T09:04:35.000Z</time>
      </trkpt>
      <trkpt lat="42.97006624750792980194091796875" lon="-1.07598356902599334716796875">
        <ele>1005.20001220703125</ele>
        <time>2020-08-21T09:04:39.000Z</time>
      </trkpt>
      <trkpt lat="42.97000656835734844207763671875" lon="-1.07602137140929698944091796875">
        <ele>1005.4000244140625</ele>
        <time>2020-08-21T09:04:42.000Z</time>
      </trkpt>
      <trkpt lat="42.96998678706586360931396484375" lon="-1.0760370455682277679443359375">
        <ele>1005.5999755859375</ele>
        <time>2020-08-21T09:04:43.000Z</time>
      </trkpt>
      <trkpt lat="42.969929538667201995849609375" lon="-1.07607149519026279449462890625">
        <ele>1006.20001220703125</ele>
        <time>2020-08-21T09:04:46.000Z</time>
      </trkpt>
      <trkpt lat="42.96987161971628665924072265625" lon="-1.076092533767223358154296875">
        <ele>1007</ele>
        <time>2020-08-21T09:04:49.000Z</time>
      </trkpt>
      <trkpt lat="42.969832979142665863037109375" lon="-1.07611038722097873687744140625">
        <ele>1007.4000244140625</ele>
        <time>2020-08-21T09:04:51.000Z</time>
      </trkpt>
      <trkpt lat="42.9697407782077789306640625" lon="-1.0761644504964351654052734375">
        <ele>1007.4000244140625</ele>
        <time>2020-08-21T09:04:56.000Z</time>
      </trkpt>
      <trkpt lat="42.96963189728558063507080078125" lon="-1.07625321485102176666259765625">
        <ele>1008.79998779296875</ele>
        <time>2020-08-21T09:05:02.000Z</time>
      </trkpt>
      <trkpt lat="42.96961530111730098724365234375" lon="-1.0762710683047771453857421875">
        <ele>1009</ele>
        <time>2020-08-21T09:05:03.000Z</time>
      </trkpt>
      <trkpt lat="42.9695712961256504058837890625" lon="-1.07634156011044979095458984375">
        <ele>1010</ele>
        <time>2020-08-21T09:05:06.000Z</time>
      </trkpt>
      <trkpt lat="42.969540618360042572021484375" lon="-1.07642370276153087615966796875">
        <ele>1010.20001220703125</ele>
        <time>2020-08-21T09:05:09.000Z</time>
      </trkpt>
      <trkpt lat="42.96951522119343280792236328125" lon="-1.0765942744910717010498046875">
        <ele>1011</ele>
        <time>2020-08-21T09:05:15.000Z</time>
      </trkpt>
      <trkpt lat="42.969566099345684051513671875" lon="-1.0766894929111003875732421875">
        <ele>1011</ele>
        <time>2020-08-21T09:05:19.000Z</time>
      </trkpt>
      <trkpt lat="42.969582192599773406982421875" lon="-1.07671581208705902099609375">
        <ele>1011.4000244140625</ele>
        <time>2020-08-21T09:05:20.000Z</time>
      </trkpt>
      <trkpt lat="42.9696839489042758941650390625" lon="-1.07676099054515361785888671875">
        <ele>1012.4000244140625</ele>
        <time>2020-08-21T09:05:25.000Z</time>
      </trkpt>
      <trkpt lat="42.96987413428723812103271484375" lon="-1.0767287202179431915283203125">
        <ele>1012.5999755859375</ele>
        <time>2020-08-21T09:05:33.000Z</time>
      </trkpt>
      <trkpt lat="42.96997622586786746978759765625" lon="-1.0766864754259586334228515625">
        <ele>1013.4000244140625</ele>
        <time>2020-08-21T09:05:38.000Z</time>
      </trkpt>
      <trkpt lat="42.97005568630993366241455078125" lon="-1.07668085955083370208740234375">
        <ele>1013.79998779296875</ele>
        <time>2020-08-21T09:05:42.000Z</time>
      </trkpt>
      <trkpt lat="42.970115281641483306884765625" lon="-1.07669846154749393463134765625">
        <ele>1014.4000244140625</ele>
        <time>2020-08-21T09:05:45.000Z</time>
      </trkpt>
      <trkpt lat="42.97026959247887134552001953125" lon="-1.0767381079494953155517578125">
        <ele>1015.79998779296875</ele>
        <time>2020-08-21T09:05:52.000Z</time>
      </trkpt>
      <trkpt lat="42.9703648947179317474365234375" lon="-1.0768854618072509765625">
        <ele>1016</ele>
        <time>2020-08-21T09:05:58.000Z</time>
      </trkpt>
      <trkpt lat="42.970470003783702850341796875" lon="-1.07713918201625347137451171875">
        <ele>1016.4000244140625</ele>
        <time>2020-08-21T09:06:07.000Z</time>
      </trkpt>
      <trkpt lat="42.9705275036394596099853515625" lon="-1.077256612479686737060546875">
        <ele>1016.79998779296875</ele>
        <time>2020-08-21T09:06:11.000Z</time>
      </trkpt>
      <trkpt lat="42.97057284973561763763427734375" lon="-1.0773422755300998687744140625">
        <ele>1017.5999755859375</ele>
        <time>2020-08-21T09:06:14.000Z</time>
      </trkpt>
      <trkpt lat="42.97069631516933441162109375" lon="-1.07757520861923694610595703125">
        <ele>1018</ele>
        <time>2020-08-21T09:06:22.000Z</time>
      </trkpt>
      <trkpt lat="42.9708369635045528411865234375" lon="-1.07776681892573833465576171875">
        <ele>1018.4000244140625</ele>
        <time>2020-08-21T09:06:30.000Z</time>
      </trkpt>
      <trkpt lat="42.97095003537833690643310546875" lon="-1.07789321802556514739990234375">
        <ele>1019</ele>
        <time>2020-08-21T09:06:36.000Z</time>
      </trkpt>
      <trkpt lat="42.97108900733292102813720703125" lon="-1.07808080501854419708251953125">
        <ele>1019.79998779296875</ele>
        <time>2020-08-21T09:06:44.000Z</time>
      </trkpt>
      <trkpt lat="42.971131503582000732421875" lon="-1.0781192779541015625">
        <ele>1020</ele>
        <time>2020-08-21T09:06:46.000Z</time>
      </trkpt>
      <trkpt lat="42.97124088741838932037353515625" lon="-1.07819505035877227783203125">
        <ele>1021.20001220703125</ele>
        <time>2020-08-21T09:06:51.000Z</time>
      </trkpt>
      <trkpt lat="42.97128564678132534027099609375" lon="-1.0782113112509250640869140625">
        <ele>1021.4000244140625</ele>
        <time>2020-08-21T09:06:53.000Z</time>
      </trkpt>
      <trkpt lat="42.97145043499767780303955078125" lon="-1.07829689048230648040771484375">
        <ele>1022</ele>
        <time>2020-08-21T09:07:01.000Z</time>
      </trkpt>
      <trkpt lat="42.9714726470410823822021484375" lon="-1.078309714794158935546875">
        <ele>1022.4000244140625</ele>
        <time>2020-08-21T09:07:02.000Z</time>
      </trkpt>
      <trkpt lat="42.97159217298030853271484375" lon="-1.07842211611568927764892578125">
        <ele>1023</ele>
        <time>2020-08-21T09:07:08.000Z</time>
      </trkpt>
      <trkpt lat="42.97171345911920070648193359375" lon="-1.07863484881818294525146484375">
        <ele>1023</ele>
        <time>2020-08-21T09:07:16.000Z</time>
      </trkpt>
      <trkpt lat="42.97174463979899883270263671875" lon="-1.0787618346512317657470703125">
        <ele>1023.5999755859375</ele>
        <time>2020-08-21T09:07:20.000Z</time>
      </trkpt>
      <trkpt lat="42.9717556200921535491943359375" lon="-1.07886166311800479888916015625">
        <ele>1024.199951171875</ele>
        <time>2020-08-21T09:07:23.000Z</time>
      </trkpt>
      <trkpt lat="42.9717589728534221649169921875" lon="-1.07889351435005664825439453125">
        <ele>1024.5999755859375</ele>
        <time>2020-08-21T09:07:24.000Z</time>
      </trkpt>
      <trkpt lat="42.9717616550624370574951171875" lon="-1.079162992537021636962890625">
        <ele>1025</ele>
        <time>2020-08-21T09:07:32.000Z</time>
      </trkpt>
      <trkpt lat="42.97176240943372249603271484375" lon="-1.0794012062251567840576171875">
        <ele>1025.5999755859375</ele>
        <time>2020-08-21T09:07:39.000Z</time>
      </trkpt>
      <trkpt lat="42.97175436280667781829833984375" lon="-1.0794957540929317474365234375">
        <ele>1026.4000244140625</ele>
        <time>2020-08-21T09:07:42.000Z</time>
      </trkpt>
      <trkpt lat="42.97173433005809783935546875" lon="-1.07959088869392871856689453125">
        <ele>1026.5999755859375</ele>
        <time>2020-08-21T09:07:45.000Z</time>
      </trkpt>
      <trkpt lat="42.971695102751255035400390625" lon="-1.07970085926353931427001953125">
        <ele>1027.4000244140625</ele>
        <time>2020-08-21T09:07:49.000Z</time>
      </trkpt>
      <trkpt lat="42.97168127261102199554443359375" lon="-1.0797237418591976165771484375">
        <ele>1027.800048828125</ele>
        <time>2020-08-21T09:07:50.000Z</time>
      </trkpt>
      <trkpt lat="42.97157951630651950836181640625" lon="-1.079833544790744781494140625">
        <ele>1028.5999755859375</ele>
        <time>2020-08-21T09:07:56.000Z</time>
      </trkpt>
      <trkpt lat="42.971540205180644989013671875" lon="-1.07986497692763805389404296875">
        <ele>1029</ele>
        <time>2020-08-21T09:07:58.000Z</time>
      </trkpt>
      <trkpt lat="42.97143233008682727813720703125" lon="-1.0799011029303073883056640625">
        <ele>1029.199951171875</ele>
        <time>2020-08-21T09:08:03.000Z</time>
      </trkpt>
      <trkpt lat="42.9713284783065319061279296875" lon="-1.0798977501690387725830078125">
        <ele>1030</ele>
        <time>2020-08-21T09:08:08.000Z</time>
      </trkpt>
      <trkpt lat="42.97126829624176025390625" lon="-1.07988475821912288665771484375">
        <ele>1030.800048828125</ele>
        <time>2020-08-21T09:08:11.000Z</time>
      </trkpt>
      <trkpt lat="42.97122496180236339569091796875" lon="-1.07987872324883937835693359375">
        <ele>1031.199951171875</ele>
        <time>2020-08-21T09:08:13.000Z</time>
      </trkpt>
      <trkpt lat="42.97116243280470371246337890625" lon="-1.07985307462513446807861328125">
        <ele>1031.199951171875</ele>
        <time>2020-08-21T09:08:16.000Z</time>
      </trkpt>
      <trkpt lat="42.9710334353148937225341796875" lon="-1.079823486506938934326171875">
        <ele>1031.5999755859375</ele>
        <time>2020-08-21T09:08:22.000Z</time>
      </trkpt>
      <trkpt lat="42.97089488245546817779541015625" lon="-1.07979825697839260101318359375">
        <ele>1032.4000244140625</ele>
        <time>2020-08-21T09:08:28.000Z</time>
      </trkpt>
      <trkpt lat="42.97081843949854373931884765625" lon="-1.07978023588657379150390625">
        <ele>1032.4000244140625</ele>
        <time>2020-08-21T09:08:31.000Z</time>
      </trkpt>
      <trkpt lat="42.97064677812159061431884765625" lon="-1.07978652231395244598388671875">
        <ele>1033.4000244140625</ele>
        <time>2020-08-21T09:08:38.000Z</time>
      </trkpt>
      <trkpt lat="42.97057385556399822235107421875" lon="-1.07979808934032917022705078125">
        <ele>1033.5999755859375</ele>
        <time>2020-08-21T09:08:41.000Z</time>
      </trkpt>
      <trkpt lat="42.970395572483539581298828125" lon="-1.07984284870326519012451171875">
        <ele>1033.5999755859375</ele>
        <time>2020-08-21T09:08:48.000Z</time>
      </trkpt>
      <trkpt lat="42.9702101647853851318359375" lon="-1.0798236541450023651123046875">
        <ele>1034.199951171875</ele>
        <time>2020-08-21T09:08:55.000Z</time>
      </trkpt>
      <trkpt lat="42.9701845161616802215576171875" lon="-1.07981636188924312591552734375">
        <ele>1034.4000244140625</ele>
        <time>2020-08-21T09:08:56.000Z</time>
      </trkpt>
      <trkpt lat="42.96998242847621440887451171875" lon="-1.07980311848223209381103515625">
        <ele>1035.199951171875</ele>
        <time>2020-08-21T09:09:04.000Z</time>
      </trkpt>
      <trkpt lat="42.96983457170426845550537109375" lon="-1.079761125147342681884765625">
        <ele>1035.4000244140625</ele>
        <time>2020-08-21T09:09:10.000Z</time>
      </trkpt>
      <trkpt lat="42.9698113538324832916259765625" lon="-1.07975902967154979705810546875">
        <ele>1035.5999755859375</ele>
        <time>2020-08-21T09:09:11.000Z</time>
      </trkpt>
      <trkpt lat="42.969682104885578155517578125" lon="-1.079740338027477264404296875">
        <ele>1035.800048828125</ele>
        <time>2020-08-21T09:09:16.000Z</time>
      </trkpt>
      <trkpt lat="42.96953919343650341033935546875" lon="-1.07976539991796016693115234375">
        <ele>1036</ele>
        <time>2020-08-21T09:09:22.000Z</time>
      </trkpt>
      <trkpt lat="42.96946777962148189544677734375" lon="-1.07980563305318355560302734375">
        <ele>1036.5999755859375</ele>
        <time>2020-08-21T09:09:25.000Z</time>
      </trkpt>
      <trkpt lat="42.96938932500779628753662109375" lon="-1.0798487998545169830322265625">
        <ele>1036.800048828125</ele>
        <time>2020-08-21T09:09:28.000Z</time>
      </trkpt>
      <trkpt lat="42.969205677509307861328125" lon="-1.07994762249290943145751953125">
        <ele>1036.800048828125</ele>
        <time>2020-08-21T09:09:35.000Z</time>
      </trkpt>
      <trkpt lat="42.9690817929804325103759765625" lon="-1.0800023563206195831298828125">
        <ele>1036.5999755859375</ele>
        <time>2020-08-21T09:09:40.000Z</time>
      </trkpt>
      <trkpt lat="42.96882103197276592254638671875" lon="-1.08012615703046321868896484375">
        <ele>1036.800048828125</ele>
        <time>2020-08-21T09:09:48.000Z</time>
      </trkpt>
      <trkpt lat="42.9686600156128406524658203125" lon="-1.0802556574344635009765625">
        <ele>1036.4000244140625</ele>
        <time>2020-08-21T09:09:53.000Z</time>
      </trkpt>
      <trkpt lat="42.9685056209564208984375" lon="-1.08041700907051563262939453125">
        <ele>1036.5999755859375</ele>
        <time>2020-08-21T09:09:59.000Z</time>
      </trkpt>
      <trkpt lat="42.96830286271870136260986328125" lon="-1.08050082810223102569580078125">
        <ele>1037</ele>
        <time>2020-08-21T09:10:06.000Z</time>
      </trkpt>
      <trkpt lat="42.96814092434942722320556640625" lon="-1.080502085387706756591796875">
        <ele>1036.800048828125</ele>
        <time>2020-08-21T09:10:11.000Z</time>
      </trkpt>
      <trkpt lat="42.96793925575911998748779296875" lon="-1.0805250518023967742919921875">
        <ele>1036.199951171875</ele>
        <time>2020-08-21T09:10:17.000Z</time>
      </trkpt>
      <trkpt lat="42.96775803901255130767822265625" lon="-1.08063158579170703887939453125">
        <ele>1036.800048828125</ele>
        <time>2020-08-21T09:10:23.000Z</time>
      </trkpt>
      <trkpt lat="42.96766667626798152923583984375" lon="-1.08076502569019794464111328125">
        <ele>1037.199951171875</ele>
        <time>2020-08-21T09:10:28.000Z</time>
      </trkpt>
      <trkpt lat="42.9675971902906894683837890625" lon="-1.0809020698070526123046875">
        <ele>1037.4000244140625</ele>
        <time>2020-08-21T09:10:33.000Z</time>
      </trkpt>
      <trkpt lat="42.96753306873142719268798828125" lon="-1.080994941294193267822265625">
        <ele>1037.5999755859375</ele>
        <time>2020-08-21T09:10:37.000Z</time>
      </trkpt>
      <trkpt lat="42.967516221106052398681640625" lon="-1.08101614750921726226806640625">
        <ele>1037.800048828125</ele>
        <time>2020-08-21T09:10:38.000Z</time>
      </trkpt>
      <trkpt lat="42.96738102100789546966552734375" lon="-1.08121253550052642822265625">
        <ele>1039</ele>
        <time>2020-08-21T09:10:45.000Z</time>
      </trkpt>
      <trkpt lat="42.967355959117412567138671875" lon="-1.08129006810486316680908203125">
        <ele>1039.199951171875</ele>
        <time>2020-08-21T09:10:47.000Z</time>
      </trkpt>
      <trkpt lat="42.96735051088035106658935546875" lon="-1.08136634342372417449951171875">
        <ele>1039.199951171875</ele>
        <time>2020-08-21T09:10:49.000Z</time>
      </trkpt>
      <trkpt lat="42.96735227108001708984375" lon="-1.08144328929483890533447265625">
        <ele>1039.199951171875</ele>
        <time>2020-08-21T09:10:51.000Z</time>
      </trkpt>
      <trkpt lat="42.967396192252635955810546875" lon="-1.08152643777430057525634765625">
        <ele>1039</ele>
        <time>2020-08-21T09:10:54.000Z</time>
      </trkpt>
      <trkpt lat="42.967520914971828460693359375" lon="-1.0815323889255523681640625">
        <ele>1039.5999755859375</ele>
        <time>2020-08-21T09:10:59.000Z</time>
      </trkpt>
      <trkpt lat="42.96766499988734722137451171875" lon="-1.08149056322872638702392578125">
        <ele>1040</ele>
        <time>2020-08-21T09:11:05.000Z</time>
      </trkpt>
      <trkpt lat="42.9676813445985317230224609375" lon="-1.0814822651445865631103515625">
        <ele>1040.199951171875</ele>
        <time>2020-08-21T09:11:07.000Z</time>
      </trkpt>
      <trkpt lat="42.9676672630012035369873046875" lon="-1.0814859531819820404052734375">
        <ele>1039.800048828125</ele>
        <time>2020-08-21T09:14:07.000Z</time>
      </trkpt>
      <trkpt lat="42.96770942397415637969970703125" lon="-1.08148285187780857086181640625">
        <ele>1040</ele>
        <time>2020-08-21T09:14:13.000Z</time>
      </trkpt>
      <trkpt lat="42.96786851249635219573974609375" lon="-1.08154957182705402374267578125">
        <ele>1039.5999755859375</ele>
        <time>2020-08-21T09:14:20.000Z</time>
      </trkpt>
      <trkpt lat="42.96798728406429290771484375" lon="-1.0816462151706218719482421875">
        <ele>1039.800048828125</ele>
        <time>2020-08-21T09:14:25.000Z</time>
      </trkpt>
      <trkpt lat="42.96812986023724079132080078125" lon="-1.08179859817028045654296875">
        <ele>1040</ele>
        <time>2020-08-21T09:14:31.000Z</time>
      </trkpt>
      <trkpt lat="42.9682275094091892242431640625" lon="-1.08190722763538360595703125">
        <ele>1039.800048828125</ele>
        <time>2020-08-21T09:14:35.000Z</time>
      </trkpt>
      <trkpt lat="42.96844166703522205352783203125" lon="-1.0820545814931392669677734375">
        <ele>1039.800048828125</ele>
        <time>2020-08-21T09:14:42.000Z</time>
      </trkpt>
      <trkpt lat="42.968656159937381744384765625" lon="-1.08219346962869167327880859375">
        <ele>1040</ele>
        <time>2020-08-21T09:14:49.000Z</time>
      </trkpt>
      <trkpt lat="42.96873562037944793701171875" lon="-1.08225448988378047943115234375">
        <ele>1039.5999755859375</ele>
        <time>2020-08-21T09:14:52.000Z</time>
      </trkpt>
      <trkpt lat="42.968819104135036468505859375" lon="-1.08232808299362659454345703125">
        <ele>1039.199951171875</ele>
        <time>2020-08-21T09:14:55.000Z</time>
      </trkpt>
      <trkpt lat="42.96898246742784976959228515625" lon="-1.0825414024293422698974609375">
        <ele>1039.5999755859375</ele>
        <time>2020-08-21T09:15:02.000Z</time>
      </trkpt>
      <trkpt lat="42.96901800669729709625244140625" lon="-1.0827797837555408477783203125">
        <ele>1039.4000244140625</ele>
        <time>2020-08-21T09:15:08.000Z</time>
      </trkpt>
      <trkpt lat="42.9689443297684192657470703125" lon="-1.082981787621974945068359375">
        <ele>1039.4000244140625</ele>
        <time>2020-08-21T09:15:13.000Z</time>
      </trkpt>
      <trkpt lat="42.9688554815948009490966796875" lon="-1.0830822028219699859619140625">
        <ele>1039.199951171875</ele>
        <time>2020-08-21T09:15:16.000Z</time>
      </trkpt>
      <trkpt lat="42.9687911085784435272216796875" lon="-1.08315068297088146209716796875">
        <ele>1039.199951171875</ele>
        <time>2020-08-21T09:15:18.000Z</time>
      </trkpt>
      <trkpt lat="42.9687347821891307830810546875" lon="-1.08331270515918731689453125">
        <ele>1039.199951171875</ele>
        <time>2020-08-21T09:15:21.000Z</time>
      </trkpt>
      <trkpt lat="42.96872866339981555938720703125" lon="-1.0833678580820560455322265625">
        <ele>1038.800048828125</ele>
        <time>2020-08-21T09:15:22.000Z</time>
      </trkpt>
      <trkpt lat="42.96872866339981555938720703125" lon="-1.08341789804399013519287109375">
        <ele>1038.5999755859375</ele>
        <time>2020-08-21T09:15:23.000Z</time>
      </trkpt>
      <trkpt lat="42.9687502048909664154052734375" lon="-1.08354580588638782501220703125">
        <ele>1038.5999755859375</ele>
        <time>2020-08-21T09:15:26.000Z</time>
      </trkpt>
      <trkpt lat="42.96882103197276592254638671875" lon="-1.0837383382022380828857421875">
        <ele>1039.4000244140625</ele>
        <time>2020-08-21T09:15:32.000Z</time>
      </trkpt>
      <trkpt lat="42.96887232922017574310302734375" lon="-1.08382157050073146820068359375">
        <ele>1039.800048828125</ele>
        <time>2020-08-21T09:15:35.000Z</time>
      </trkpt>
      <trkpt lat="42.968916334211826324462890625" lon="-1.08385979197919368743896484375">
        <ele>1040.800048828125</ele>
        <time>2020-08-21T09:15:37.000Z</time>
      </trkpt>
      <trkpt lat="42.968937791883945465087890625" lon="-1.083880327641963958740234375">
        <ele>1041</ele>
        <time>2020-08-21T09:15:38.000Z</time>
      </trkpt>
      <trkpt lat="42.96903879381716251373291015625" lon="-1.08400194905698299407958984375">
        <ele>1041.199951171875</ele>
        <time>2020-08-21T09:15:43.000Z</time>
      </trkpt>
      <trkpt lat="42.9691438190639019012451171875" lon="-1.08420127071440219879150390625">
        <ele>1041.199951171875</ele>
        <time>2020-08-21T09:15:49.000Z</time>
      </trkpt>
      <trkpt lat="42.96914909966289997100830078125" lon="-1.0843889415264129638671875">
        <ele>1041.199951171875</ele>
        <time>2020-08-21T09:15:54.000Z</time>
      </trkpt>
      <trkpt lat="42.9691454954445362091064453125" lon="-1.08454191125929355621337890625">
        <ele>1040.5999755859375</ele>
        <time>2020-08-21T09:15:58.000Z</time>
      </trkpt>
      <trkpt lat="42.96911624260246753692626953125" lon="-1.084678955376148223876953125">
        <ele>1040.4000244140625</ele>
        <time>2020-08-21T09:16:01.000Z</time>
      </trkpt>
      <trkpt lat="42.96913485042750835418701171875" lon="-1.08477794565260410308837890625">
        <ele>1040.4000244140625</ele>
        <time>2020-08-21T09:16:03.000Z</time>
      </trkpt>
      <trkpt lat="42.9692568071186542510986328125" lon="-1.08495161868631839752197265625">
        <ele>1040.4000244140625</ele>
        <time>2020-08-21T09:16:07.000Z</time>
      </trkpt>
      <trkpt lat="42.96928815543651580810546875" lon="-1.08498816378414630889892578125">
        <ele>1040</ele>
        <time>2020-08-21T09:16:08.000Z</time>
      </trkpt>
      <trkpt lat="42.96932377852499485015869140625" lon="-1.08502638526260852813720703125">
        <ele>1039.800048828125</ele>
        <time>2020-08-21T09:16:09.000Z</time>
      </trkpt>
      <trkpt lat="42.96939946711063385009765625" lon="-1.0851052589714527130126953125">
        <ele>1039.4000244140625</ele>
        <time>2020-08-21T09:16:11.000Z</time>
      </trkpt>
      <trkpt lat="42.9694321565330028533935546875" lon="-1.08514892868697643280029296875">
        <ele>1039.4000244140625</ele>
        <time>2020-08-21T09:16:12.000Z</time>
      </trkpt>
      <trkpt lat="42.969484962522983551025390625" lon="-1.08524791896343231201171875">
        <ele>1038.800048828125</ele>
        <time>2020-08-21T09:16:14.000Z</time>
      </trkpt>
      <trkpt lat="42.96955780126154422760009765625" lon="-1.085385717451572418212890625">
        <ele>1038.5999755859375</ele>
        <time>2020-08-21T09:16:17.000Z</time>
      </trkpt>
      <trkpt lat="42.96962535940110683441162109375" lon="-1.08559920452535152435302734375">
        <ele>1038.5999755859375</ele>
        <time>2020-08-21T09:16:22.000Z</time>
      </trkpt>
      <trkpt lat="42.96960926614701747894287109375" lon="-1.0858049802482128143310546875">
        <ele>1039</ele>
        <time>2020-08-21T09:16:27.000Z</time>
      </trkpt>
      <trkpt lat="42.9695716314017772674560546875" lon="-1.08594202436506748199462890625">
        <ele>1039.199951171875</ele>
        <time>2020-08-21T09:16:31.000Z</time>
      </trkpt>
      <trkpt lat="42.969524525105953216552734375" lon="-1.08607948757708072662353515625">
        <ele>1039.199951171875</ele>
        <time>2020-08-21T09:16:36.000Z</time>
      </trkpt>
      <trkpt lat="42.969509772956371307373046875" lon="-1.08611586503684520721435546875">
        <ele>1039.5999755859375</ele>
        <time>2020-08-21T09:16:37.000Z</time>
      </trkpt>
      <trkpt lat="42.969427965581417083740234375" lon="-1.08632256276905536651611328125">
        <ele>1039.5999755859375</ele>
        <time>2020-08-21T09:16:42.000Z</time>
      </trkpt>
      <trkpt lat="42.969419918954372406005859375" lon="-1.0864862613379955291748046875">
        <ele>1040</ele>
        <time>2020-08-21T09:16:46.000Z</time>
      </trkpt>
      <trkpt lat="42.9694227688014507293701171875" lon="-1.0865677334368228912353515625">
        <ele>1040.4000244140625</ele>
        <time>2020-08-21T09:16:48.000Z</time>
      </trkpt>
      <trkpt lat="42.96941782347857952117919921875" lon="-1.08668918721377849578857421875">
        <ele>1041</ele>
        <time>2020-08-21T09:16:51.000Z</time>
      </trkpt>
      <trkpt lat="42.9694283008575439453125" lon="-1.086862273514270782470703125">
        <ele>1041.5999755859375</ele>
        <time>2020-08-21T09:16:56.000Z</time>
      </trkpt>
      <trkpt lat="42.969438023865222930908203125" lon="-1.08696696348488330841064453125">
        <ele>1042.199951171875</ele>
        <time>2020-08-21T09:16:59.000Z</time>
      </trkpt>
      <trkpt lat="42.96944514848291873931884765625" lon="-1.087078861892223358154296875">
        <ele>1042.4000244140625</ele>
        <time>2020-08-21T09:17:02.000Z</time>
      </trkpt>
      <trkpt lat="42.9694697074592113494873046875" lon="-1.087245158851146697998046875">
        <ele>1043.4000244140625</ele>
        <time>2020-08-21T09:17:07.000Z</time>
      </trkpt>
      <trkpt lat="42.96947314403951168060302734375" lon="-1.08727701008319854736328125">
        <ele>1043.5999755859375</ele>
        <time>2020-08-21T09:17:08.000Z</time>
      </trkpt>
      <trkpt lat="42.96948395669460296630859375" lon="-1.08745914883911609649658203125">
        <ele>1044.199951171875</ele>
        <time>2020-08-21T09:17:14.000Z</time>
      </trkpt>
      <trkpt lat="42.96950046904385089874267578125" lon="-1.08755822293460369110107421875">
        <ele>1044.4000244140625</ele>
        <time>2020-08-21T09:17:17.000Z</time>
      </trkpt>
      <trkpt lat="42.96952444128692150115966796875" lon="-1.08766132034361362457275390625">
        <ele>1044.5999755859375</ele>
        <time>2020-08-21T09:17:20.000Z</time>
      </trkpt>
      <trkpt lat="42.9695448093116283416748046875" lon="-1.08772938139736652374267578125">
        <ele>1045.4000244140625</ele>
        <time>2020-08-21T09:17:22.000Z</time>
      </trkpt>
      <trkpt lat="42.9695642553269863128662109375" lon="-1.08783817850053310394287109375">
        <ele>1046.4000244140625</ele>
        <time>2020-08-21T09:17:25.000Z</time>
      </trkpt>
      <trkpt lat="42.9695813544094562530517578125" lon="-1.0879745520651340484619140625">
        <ele>1046.4000244140625</ele>
        <time>2020-08-21T09:17:29.000Z</time>
      </trkpt>
      <trkpt lat="42.96960339881479740142822265625" lon="-1.08827454037964344024658203125">
        <ele>1047.5999755859375</ele>
        <time>2020-08-21T09:17:38.000Z</time>
      </trkpt>
      <trkpt lat="42.96956970356404781341552734375" lon="-1.08845927752554416656494140625">
        <ele>1047.5999755859375</ele>
        <time>2020-08-21T09:17:44.000Z</time>
      </trkpt>
      <trkpt lat="42.9695142991840839385986328125" lon="-1.0886216349899768829345703125">
        <ele>1047.800048828125</ele>
        <time>2020-08-21T09:17:49.000Z</time>
      </trkpt>
      <trkpt lat="42.969448082149028778076171875" lon="-1.0887708328664302825927734375">
        <ele>1048.5999755859375</ele>
        <time>2020-08-21T09:17:54.000Z</time>
      </trkpt>
      <trkpt lat="42.9694308154284954071044921875" lon="-1.08879807405173778533935546875">
        <ele>1048.800048828125</ele>
        <time>2020-08-21T09:17:55.000Z</time>
      </trkpt>
      <trkpt lat="42.969339452683925628662109375" lon="-1.08896872960031032562255859375">
        <ele>1049.4000244140625</ele>
        <time>2020-08-21T09:18:01.000Z</time>
      </trkpt>
      <trkpt lat="42.96926879324018955230712890625" lon="-1.0891054384410381317138671875">
        <ele>1049.800048828125</ele>
        <time>2020-08-21T09:18:06.000Z</time>
      </trkpt>
      <trkpt lat="42.9691763408482074737548828125" lon="-1.0892982222139835357666015625">
        <ele>1050.4000244140625</ele>
        <time>2020-08-21T09:18:12.000Z</time>
      </trkpt>
      <trkpt lat="42.96907969750463962554931640625" lon="-1.08946837484836578369140625">
        <ele>1050.4000244140625</ele>
        <time>2020-08-21T09:18:17.000Z</time>
      </trkpt>
      <trkpt lat="42.96892832033336162567138671875" lon="-1.0896935127675533294677734375">
        <ele>1051</ele>
        <time>2020-08-21T09:18:24.000Z</time>
      </trkpt>
      <trkpt lat="42.96889789402484893798828125" lon="-1.08972125686705112457275390625">
        <ele>1051.199951171875</ele>
        <time>2020-08-21T09:18:25.000Z</time>
      </trkpt>
      <trkpt lat="42.96871282160282135009765625" lon="-1.0898088477551937103271484375">
        <ele>1051.4000244140625</ele>
        <time>2020-08-21T09:18:30.000Z</time>
      </trkpt>
      <trkpt lat="42.96847418881952762603759765625" lon="-1.08987514860928058624267578125">
        <ele>1049.800048828125</ele>
        <time>2020-08-21T09:18:36.000Z</time>
      </trkpt>
      <trkpt lat="42.96843253076076507568359375" lon="-1.0898789204657077789306640625">
        <ele>1049.800048828125</ele>
        <time>2020-08-21T09:18:37.000Z</time>
      </trkpt>
      <trkpt lat="42.96830990351736545562744140625" lon="-1.08989928849041461944580078125">
        <ele>1050.199951171875</ele>
        <time>2020-08-21T09:18:40.000Z</time>
      </trkpt>
      <trkpt lat="42.96822625212371349334716796875" lon="-1.08990683220326900482177734375">
        <ele>1050.199951171875</ele>
        <time>2020-08-21T09:18:42.000Z</time>
      </trkpt>
      <trkpt lat="42.96814209781587123870849609375" lon="-1.0899142920970916748046875">
        <ele>1050</ele>
        <time>2020-08-21T09:18:44.000Z</time>
      </trkpt>
      <trkpt lat="42.96805241145193576812744140625" lon="-1.08992594294250011444091796875">
        <ele>1049.5999755859375</ele>
        <time>2020-08-21T09:18:46.000Z</time>
      </trkpt>
      <trkpt lat="42.9679673351347446441650390625" lon="-1.0899949260056018829345703125">
        <ele>1049.4000244140625</ele>
        <time>2020-08-21T09:18:48.000Z</time>
      </trkpt>
      <trkpt lat="42.967926599085330963134765625" lon="-1.090158037841320037841796875">
        <ele>1049</ele>
        <time>2020-08-21T09:18:51.000Z</time>
      </trkpt>
      <trkpt lat="42.9679753817617893218994140625" lon="-1.09026825986802577972412109375">
        <ele>1050</ele>
        <time>2020-08-21T09:18:54.000Z</time>
      </trkpt>
      <trkpt lat="42.9679958336055278778076171875" lon="-1.09029575251042842864990234375">
        <ele>1050.4000244140625</ele>
        <time>2020-08-21T09:18:55.000Z</time>
      </trkpt>
      <trkpt lat="42.96811091713607311248779296875" lon="-1.0903922282159328460693359375">
        <ele>1050.800048828125</ele>
        <time>2020-08-21T09:19:00.000Z</time>
      </trkpt>
      <trkpt lat="42.96815492212772369384765625" lon="-1.09042952768504619598388671875">
        <ele>1051.199951171875</ele>
        <time>2020-08-21T09:19:02.000Z</time>
      </trkpt>
      <trkpt lat="42.96829263679683208465576171875" lon="-1.090550981462001800537109375">
        <ele>1051.800048828125</ele>
        <time>2020-08-21T09:19:08.000Z</time>
      </trkpt>
      <trkpt lat="42.96841911971569061279296875" lon="-1.09068098478019237518310546875">
        <ele>1052.199951171875</ele>
        <time>2020-08-21T09:19:14.000Z</time>
      </trkpt>
      <trkpt lat="42.96857695095241069793701171875" lon="-1.09083504416048526763916015625">
        <ele>1052.800048828125</ele>
        <time>2020-08-21T09:19:21.000Z</time>
      </trkpt>
      <trkpt lat="42.96875380910933017730712890625" lon="-1.09095163643360137939453125">
        <ele>1053</ele>
        <time>2020-08-21T09:19:27.000Z</time>
      </trkpt>
      <trkpt lat="42.9689146578311920166015625" lon="-1.0909735970199108123779296875">
        <ele>1052.800048828125</ele>
        <time>2020-08-21T09:19:32.000Z</time>
      </trkpt>
      <trkpt lat="42.96909914351999759674072265625" lon="-1.09101056121289730072021484375">
        <ele>1052</ele>
        <time>2020-08-21T09:19:37.000Z</time>
      </trkpt>
      <trkpt lat="42.96914574690163135528564453125" lon="-1.09103478491306304931640625">
        <ele>1051.800048828125</ele>
        <time>2020-08-21T09:19:38.000Z</time>
      </trkpt>
      <trkpt lat="42.969265021383762359619140625" lon="-1.0911596752703189849853515625">
        <ele>1051.4000244140625</ele>
        <time>2020-08-21T09:19:42.000Z</time>
      </trkpt>
      <trkpt lat="42.96935789287090301513671875" lon="-1.091339550912380218505859375">
        <ele>1052.4000244140625</ele>
        <time>2020-08-21T09:19:47.000Z</time>
      </trkpt>
      <trkpt lat="42.9693778418004512786865234375" lon="-1.09137517400085926055908203125">
        <ele>1052.4000244140625</ele>
        <time>2020-08-21T09:19:48.000Z</time>
      </trkpt>
      <trkpt lat="42.9694827832281589508056640625" lon="-1.091644652187824249267578125">
        <ele>1053.5999755859375</ele>
        <time>2020-08-21T09:19:55.000Z</time>
      </trkpt>
      <trkpt lat="42.9695404507219791412353515625" lon="-1.0919059999287128448486328125">
        <ele>1054.800048828125</ele>
        <time>2020-08-21T09:20:02.000Z</time>
      </trkpt>
      <trkpt lat="42.969589568674564361572265625" lon="-1.09209350310266017913818359375">
        <ele>1055.800048828125</ele>
        <time>2020-08-21T09:20:07.000Z</time>
      </trkpt>
      <trkpt lat="42.969606332480907440185546875" lon="-1.092167012393474578857421875">
        <ele>1056</ele>
        <time>2020-08-21T09:20:09.000Z</time>
      </trkpt>
      <trkpt lat="42.96965352259576320648193359375" lon="-1.09235887415707111358642578125">
        <ele>1056.4000244140625</ele>
        <time>2020-08-21T09:20:14.000Z</time>
      </trkpt>
      <trkpt lat="42.9697127826511859893798828125" lon="-1.092536151409149169921875">
        <ele>1056.800048828125</ele>
        <time>2020-08-21T09:20:19.000Z</time>
      </trkpt>
      <trkpt lat="42.96978436410427093505859375" lon="-1.092697419226169586181640625">
        <ele>1057.199951171875</ele>
        <time>2020-08-21T09:20:24.000Z</time>
      </trkpt>
      <trkpt lat="42.96979735605418682098388671875" lon="-1.09272751025855541229248046875">
        <ele>1057.4000244140625</ele>
        <time>2020-08-21T09:20:25.000Z</time>
      </trkpt>
      <trkpt lat="42.9699112661182880401611328125" lon="-1.09289078973233699798583984375">
        <ele>1058.199951171875</ele>
        <time>2020-08-21T09:20:31.000Z</time>
      </trkpt>
      <trkpt lat="42.969931550323963165283203125" lon="-1.09291710890829563140869140625">
        <ele>1058.199951171875</ele>
        <time>2020-08-21T09:20:32.000Z</time>
      </trkpt>
      <trkpt lat="42.97001914121210575103759765625" lon="-1.09305423684418201446533203125">
        <ele>1059.4000244140625</ele>
        <time>2020-08-21T09:20:37.000Z</time>
      </trkpt>
      <trkpt lat="42.9700544290244579315185546875" lon="-1.09315280802547931671142578125">
        <ele>1059.800048828125</ele>
        <time>2020-08-21T09:20:40.000Z</time>
      </trkpt>
      <trkpt lat="42.9700547643005847930908203125" lon="-1.09329546801745891571044921875">
        <ele>1060.4000244140625</ele>
        <time>2020-08-21T09:20:44.000Z</time>
      </trkpt>
      <trkpt lat="42.97004680149257183074951171875" lon="-1.09333343803882598876953125">
        <ele>1060.4000244140625</ele>
        <time>2020-08-21T09:20:45.000Z</time>
      </trkpt>
      <trkpt lat="42.97001947648823261260986328125" lon="-1.0934938676655292510986328125">
        <ele>1060.4000244140625</ele>
        <time>2020-08-21T09:20:49.000Z</time>
      </trkpt>
      <trkpt lat="42.96995929442346096038818359375" lon="-1.09369419515132904052734375">
        <ele>1059.5999755859375</ele>
        <time>2020-08-21T09:20:54.000Z</time>
      </trkpt>
      <trkpt lat="42.96987363137304782867431640625" lon="-1.09396384097635746002197265625">
        <ele>1060.800048828125</ele>
        <time>2020-08-21T09:21:01.000Z</time>
      </trkpt>
      <trkpt lat="42.969814874231815338134765625" lon="-1.09413499943912029266357421875">
        <ele>1060.800048828125</ele>
        <time>2020-08-21T09:21:06.000Z</time>
      </trkpt>
      <trkpt lat="42.96978771686553955078125" lon="-1.0942013002932071685791015625">
        <ele>1061.5999755859375</ele>
        <time>2020-08-21T09:21:08.000Z</time>
      </trkpt>
      <trkpt lat="42.9697211645543575286865234375" lon="-1.0943914018571376800537109375">
        <ele>1061.800048828125</ele>
        <time>2020-08-21T09:21:13.000Z</time>
      </trkpt>
      <trkpt lat="42.96968051232397556304931640625" lon="-1.094560883939266204833984375">
        <ele>1062</ele>
        <time>2020-08-21T09:21:17.000Z</time>
      </trkpt>
      <trkpt lat="42.9697117768228054046630859375" lon="-1.09472475014626979827880859375">
        <ele>1062.199951171875</ele>
        <time>2020-08-21T09:21:21.000Z</time>
      </trkpt>
      <trkpt lat="42.969822585582733154296875" lon="-1.09489171765744686126708984375">
        <ele>1062.199951171875</ele>
        <time>2020-08-21T09:21:27.000Z</time>
      </trkpt>
      <trkpt lat="42.9699528403580188751220703125" lon="-1.09499012120068073272705078125">
        <ele>1062</ele>
        <time>2020-08-21T09:21:33.000Z</time>
      </trkpt>
      <trkpt lat="42.96999986283481121063232421875" lon="-1.095008142292499542236328125">
        <ele>1063</ele>
        <time>2020-08-21T09:21:35.000Z</time>
      </trkpt>
      <trkpt lat="42.97010849229991436004638671875" lon="-1.09504661522805690765380859375">
        <ele>1063.4000244140625</ele>
        <time>2020-08-21T09:21:39.000Z</time>
      </trkpt>
      <trkpt lat="42.97028032131493091583251953125" lon="-1.09514133073389530181884765625">
        <ele>1063.5999755859375</ele>
        <time>2020-08-21T09:21:45.000Z</time>
      </trkpt>
      <trkpt lat="42.9704607836902141571044921875" lon="-1.09519757330417633056640625">
        <ele>1063</ele>
        <time>2020-08-21T09:21:51.000Z</time>
      </trkpt>
      <trkpt lat="42.97058357857167720794677734375" lon="-1.0951310209929943084716796875">
        <ele>1063.800048828125</ele>
        <time>2020-08-21T09:21:56.000Z</time>
      </trkpt>
      <trkpt lat="42.97060101293027400970458984375" lon="-1.0951085574924945831298828125">
        <ele>1064.4000244140625</ele>
        <time>2020-08-21T09:21:57.000Z</time>
      </trkpt>
      <trkpt lat="42.9706683196127414703369140625" lon="-1.09502322971820831298828125">
        <ele>1065.4000244140625</ele>
        <time>2020-08-21T09:22:01.000Z</time>
      </trkpt>
      <trkpt lat="42.97074752859771251678466796875" lon="-1.0949650593101978302001953125">
        <ele>1066</ele>
        <time>2020-08-21T09:22:05.000Z</time>
      </trkpt>
      <trkpt lat="42.97081206925213336944580078125" lon="-1.09496095217764377593994140625">
        <ele>1066.5999755859375</ele>
        <time>2020-08-21T09:22:08.000Z</time>
      </trkpt>
      <trkpt lat="42.97086034901440143585205078125" lon="-1.09497763216495513916015625">
        <ele>1067</ele>
        <time>2020-08-21T09:22:10.000Z</time>
      </trkpt>
      <trkpt lat="42.97092505730688571929931640625" lon="-1.09501660801470279693603515625">
        <ele>1067.5999755859375</ele>
        <time>2020-08-21T09:22:13.000Z</time>
      </trkpt>
      <trkpt lat="42.971018850803375244140625" lon="-1.09511132352054119110107421875">
        <ele>1067.800048828125</ele>
        <time>2020-08-21T09:22:18.000Z</time>
      </trkpt>
      <trkpt lat="42.97114164568483829498291015625" lon="-1.09530729241669178009033203125">
        <ele>1068.800048828125</ele>
        <time>2020-08-21T09:22:26.000Z</time>
      </trkpt>
      <trkpt lat="42.97115354798734188079833984375" lon="-1.09533662907779216766357421875">
        <ele>1068.800048828125</ele>
        <time>2020-08-21T09:22:27.000Z</time>
      </trkpt>
      <trkpt lat="42.9712319187819957733154296875" lon="-1.0955004952847957611083984375">
        <ele>1069.4000244140625</ele>
        <time>2020-08-21T09:22:33.000Z</time>
      </trkpt>
      <trkpt lat="42.97127835452556610107421875" lon="-1.09558045864105224609375">
        <ele>1069.800048828125</ele>
        <time>2020-08-21T09:22:36.000Z</time>
      </trkpt>
      <trkpt lat="42.9713311605155467987060546875" lon="-1.095652878284454345703125">
        <ele>1070.199951171875</ele>
        <time>2020-08-21T09:22:39.000Z</time>
      </trkpt>
      <trkpt lat="42.97145445831120014190673828125" lon="-1.09586007893085479736328125">
        <ele>1070</ele>
        <time>2020-08-21T09:22:46.000Z</time>
      </trkpt>
      <trkpt lat="42.97155839391052722930908203125" lon="-1.096003912389278411865234375">
        <ele>1070.800048828125</ele>
        <time>2020-08-21T09:22:51.000Z</time>
      </trkpt>
      <trkpt lat="42.9716057516634464263916015625" lon="-1.09605981968343257904052734375">
        <ele>1071.199951171875</ele>
        <time>2020-08-21T09:22:53.000Z</time>
      </trkpt>
      <trkpt lat="42.97174396924674510955810546875" lon="-1.0962255299091339111328125">
        <ele>1070.800048828125</ele>
        <time>2020-08-21T09:22:59.000Z</time>
      </trkpt>
      <trkpt lat="42.97187271527945995330810546875" lon="-1.0963051579892635345458984375">
        <ele>1070.800048828125</ele>
        <time>2020-08-21T09:23:03.000Z</time>
      </trkpt>
      <trkpt lat="42.97205041162669658660888671875" lon="-1.0963115282356739044189453125">
        <ele>1070.800048828125</ele>
        <time>2020-08-21T09:23:09.000Z</time>
      </trkpt>
      <trkpt lat="42.97223095782101154327392578125" lon="-1.09630524180829524993896484375">
        <ele>1071.4000244140625</ele>
        <time>2020-08-21T09:23:15.000Z</time>
      </trkpt>
      <trkpt lat="42.97248073853552341461181640625" lon="-1.0963805951178073883056640625">
        <ele>1070.800048828125</ele>
        <time>2020-08-21T09:23:22.000Z</time>
      </trkpt>
      <trkpt lat="42.972688861191272735595703125" lon="-1.09652400948107242584228515625">
        <ele>1070.800048828125</ele>
        <time>2020-08-21T09:23:28.000Z</time>
      </trkpt>
      <trkpt lat="42.972871921956539154052734375" lon="-1.0967353172600269317626953125">
        <ele>1070.4000244140625</ele>
        <time>2020-08-21T09:23:34.000Z</time>
      </trkpt>
      <trkpt lat="42.9730635322630405426025390625" lon="-1.0970089025795459747314453125">
        <ele>1069.800048828125</ele>
        <time>2020-08-21T09:23:41.000Z</time>
      </trkpt>
      <trkpt lat="42.973086498677730560302734375" lon="-1.09704854898154735565185546875">
        <ele>1069.5999755859375</ele>
        <time>2020-08-21T09:23:42.000Z</time>
      </trkpt>
      <trkpt lat="42.973158247768878936767578125" lon="-1.09728106297552585601806640625">
        <ele>1069.4000244140625</ele>
        <time>2020-08-21T09:23:47.000Z</time>
      </trkpt>
      <trkpt lat="42.97314827330410480499267578125" lon="-1.09752380289137363433837890625">
        <ele>1069.4000244140625</ele>
        <time>2020-08-21T09:23:52.000Z</time>
      </trkpt>
      <trkpt lat="42.97306537628173828125" lon="-1.09766847454011440277099609375">
        <ele>1068.800048828125</ele>
        <time>2020-08-21T09:23:56.000Z</time>
      </trkpt>
      <trkpt lat="42.97287720255553722381591796875" lon="-1.0977961309254169464111328125">
        <ele>1069.4000244140625</ele>
        <time>2020-08-21T09:24:02.000Z</time>
      </trkpt>
      <trkpt lat="42.97268626280128955841064453125" lon="-1.0978702269494533538818359375">
        <ele>1069.5999755859375</ele>
        <time>2020-08-21T09:24:07.000Z</time>
      </trkpt>
      <trkpt lat="42.97264452092349529266357421875" lon="-1.0978799499571323394775390625">
        <ele>1069.4000244140625</ele>
        <time>2020-08-21T09:24:08.000Z</time>
      </trkpt>
      <trkpt lat="42.97260344959795475006103515625" lon="-1.09789679758250713348388671875">
        <ele>1069.199951171875</ele>
        <time>2020-08-21T09:24:09.000Z</time>
      </trkpt>
      <trkpt lat="42.97244109213352203369140625" lon="-1.09799754805862903594970703125">
        <ele>1068.5999755859375</ele>
        <time>2020-08-21T09:24:13.000Z</time>
      </trkpt>
      <trkpt lat="42.9722253419458866119384765625" lon="-1.09820290468633174896240234375">
        <ele>1068.5999755859375</ele>
        <time>2020-08-21T09:24:19.000Z</time>
      </trkpt>
      <trkpt lat="42.971965335309505462646484375" lon="-1.09840641729533672332763671875">
        <ele>1069</ele>
        <time>2020-08-21T09:24:27.000Z</time>
      </trkpt>
      <trkpt lat="42.97170541249215602874755859375" lon="-1.0985042341053485870361328125">
        <ele>1068.800048828125</ele>
        <time>2020-08-21T09:24:34.000Z</time>
      </trkpt>
      <trkpt lat="42.97140534035861492156982421875" lon="-1.0985575430095195770263671875">
        <ele>1069.199951171875</ele>
        <time>2020-08-21T09:24:41.000Z</time>
      </trkpt>
      <trkpt lat="42.971095629036426544189453125" lon="-1.09869509004056453704833984375">
        <ele>1067.800048828125</ele>
        <time>2020-08-21T09:24:48.000Z</time>
      </trkpt>
      <trkpt lat="42.9708020947873592376708984375" lon="-1.09888435341417789459228515625">
        <ele>1069</ele>
        <time>2020-08-21T09:24:56.000Z</time>
      </trkpt>
      <trkpt lat="42.9704570956528186798095703125" lon="-1.09908954240381717681884765625">
        <ele>1068.199951171875</ele>
        <time>2020-08-21T09:25:05.000Z</time>
      </trkpt>
      <trkpt lat="42.9702944867312908172607421875" lon="-1.09919263981282711029052734375">
        <ele>1067.800048828125</ele>
        <time>2020-08-21T09:25:10.000Z</time>
      </trkpt>
      <trkpt lat="42.97025735490024089813232421875" lon="-1.0992083139717578887939453125">
        <ele>1067.800048828125</ele>
        <time>2020-08-21T09:25:11.000Z</time>
      </trkpt>
      <trkpt lat="42.97014252282679080963134765625" lon="-1.09932423569262027740478515625">
        <ele>1068</ele>
        <time>2020-08-21T09:25:14.000Z</time>
      </trkpt>
      <trkpt lat="42.970113940536975860595703125" lon="-1.09943990595638751983642578125">
        <ele>1067.5999755859375</ele>
        <time>2020-08-21T09:25:16.000Z</time>
      </trkpt>
      <trkpt lat="42.97011561691761016845703125" lon="-1.0994936339557170867919921875">
        <ele>1067.4000244140625</ele>
        <time>2020-08-21T09:25:17.000Z</time>
      </trkpt>
      <trkpt lat="42.97016666270792484283447265625" lon="-1.09965196810662746429443359375">
        <ele>1067.4000244140625</ele>
        <time>2020-08-21T09:25:21.000Z</time>
      </trkpt>
      <trkpt lat="42.9701892100274562835693359375" lon="-1.0996880941092967987060546875">
        <ele>1068</ele>
        <time>2020-08-21T09:25:22.000Z</time>
      </trkpt>
      <trkpt lat="42.97033128328621387481689453125" lon="-1.09995656646788120269775390625">
        <ele>1068.5999755859375</ele>
        <time>2020-08-21T09:25:29.000Z</time>
      </trkpt>
      <trkpt lat="42.97041627578437328338623046875" lon="-1.10022344626486301422119140625">
        <ele>1068.5999755859375</ele>
        <time>2020-08-21T09:25:35.000Z</time>
      </trkpt>
      <trkpt lat="42.9703813232481479644775390625" lon="-1.10048026777803897857666015625">
        <ele>1068.5999755859375</ele>
        <time>2020-08-21T09:25:40.000Z</time>
      </trkpt>
      <trkpt lat="42.97036103904247283935546875" lon="-1.10052284784615039825439453125">
        <ele>1068.800048828125</ele>
        <time>2020-08-21T09:25:41.000Z</time>
      </trkpt>
      <trkpt lat="42.9702431894838809967041015625" lon="-1.1006446368992328643798828125">
        <ele>1069</ele>
        <time>2020-08-21T09:25:45.000Z</time>
      </trkpt>
      <trkpt lat="42.9700545966625213623046875" lon="-1.100832559168338775634765625">
        <ele>1069.199951171875</ele>
        <time>2020-08-21T09:25:51.000Z</time>
      </trkpt>
      <trkpt lat="42.969984523952007293701171875" lon="-1.10109038650989532470703125">
        <ele>1069</ele>
        <time>2020-08-21T09:25:56.000Z</time>
      </trkpt>
      <trkpt lat="42.96992375515401363372802734375" lon="-1.1014258302748203277587890625">
        <ele>1069</ele>
        <time>2020-08-21T09:26:03.000Z</time>
      </trkpt>
      <trkpt lat="42.96987832523882389068603515625" lon="-1.1016340367496013641357421875">
        <ele>1068.800048828125</ele>
        <time>2020-08-21T09:26:07.000Z</time>
      </trkpt>
      <trkpt lat="42.969860471785068511962890625" lon="-1.10169363208115100860595703125">
        <ele>1068.800048828125</ele>
        <time>2020-08-21T09:26:08.000Z</time>
      </trkpt>
      <trkpt lat="42.9698126949369907379150390625" lon="-1.10184601508080959320068359375">
        <ele>1068</ele>
        <time>2020-08-21T09:26:11.000Z</time>
      </trkpt>
      <trkpt lat="42.969799451529979705810546875" lon="-1.10189446248114109039306640625">
        <ele>1068</ele>
        <time>2020-08-21T09:26:12.000Z</time>
      </trkpt>
      <trkpt lat="42.96977237798273563385009765625" lon="-1.10205556266009807586669921875">
        <ele>1068.4000244140625</ele>
        <time>2020-08-21T09:26:16.000Z</time>
      </trkpt>
      <trkpt lat="42.969680093228816986083984375" lon="-1.102230660617351531982421875">
        <ele>1068</ele>
        <time>2020-08-21T09:26:21.000Z</time>
      </trkpt>
      <trkpt lat="42.96953198499977588653564453125" lon="-1.10235932283103466033935546875">
        <ele>1068.199951171875</ele>
        <time>2020-08-21T09:26:26.000Z</time>
      </trkpt>
      <trkpt lat="42.96940005384385585784912109375" lon="-1.10239620320498943328857421875">
        <ele>1068.5999755859375</ele>
        <time>2020-08-21T09:26:31.000Z</time>
      </trkpt>
      <trkpt lat="42.96924079768359661102294921875" lon="-1.10244498588144779205322265625">
        <ele>1068.800048828125</ele>
        <time>2020-08-21T09:26:37.000Z</time>
      </trkpt>
      <trkpt lat="42.96915161423385143280029296875" lon="-1.10246996395289897918701171875">
        <ele>1069.4000244140625</ele>
        <time>2020-08-21T09:26:40.000Z</time>
      </trkpt>
      <trkpt lat="42.96907265670597553253173828125" lon="-1.1025138013064861297607421875">
        <ele>1070</ele>
        <time>2020-08-21T09:26:43.000Z</time>
      </trkpt>
      <trkpt lat="42.969039045274257659912109375" lon="-1.10257096588611602783203125">
        <ele>1070.4000244140625</ele>
        <time>2020-08-21T09:26:45.000Z</time>
      </trkpt>
      <trkpt lat="42.96901901252567768096923828125" lon="-1.10268370248377323150634765625">
        <ele>1070.5999755859375</ele>
        <time>2020-08-21T09:26:48.000Z</time>
      </trkpt>
      <trkpt lat="42.9690325073897838592529296875" lon="-1.10275461338460445404052734375">
        <ele>1070.5999755859375</ele>
        <time>2020-08-21T09:26:50.000Z</time>
      </trkpt>
      <trkpt lat="42.969060838222503662109375" lon="-1.1028041504323482513427734375">
        <ele>1071.199951171875</ele>
        <time>2020-08-21T09:26:52.000Z</time>
      </trkpt>
      <trkpt lat="42.96912143938243389129638671875" lon="-1.10293214209377765655517578125">
        <ele>1071.4000244140625</ele>
        <time>2020-08-21T09:26:56.000Z</time>
      </trkpt>
      <trkpt lat="42.9691401310265064239501953125" lon="-1.1029499955475330352783203125">
        <ele>1071.5999755859375</ele>
        <time>2020-08-21T09:26:57.000Z</time>
      </trkpt>
      <trkpt lat="42.96917709521949291229248046875" lon="-1.10299852676689624786376953125">
        <ele>1072.199951171875</ele>
        <time>2020-08-21T09:26:59.000Z</time>
      </trkpt>
      <trkpt lat="42.96921699307858943939208984375" lon="-1.10311704687774181365966796875">
        <ele>1072.800048828125</ele>
        <time>2020-08-21T09:27:03.000Z</time>
      </trkpt>
      <trkpt lat="42.96921816654503345489501953125" lon="-1.10315443016588687896728515625">
        <ele>1072.800048828125</ele>
        <time>2020-08-21T09:27:04.000Z</time>
      </trkpt>
      <trkpt lat="42.96923157759010791778564453125" lon="-1.1034138500690460205078125">
        <ele>1073.800048828125</ele>
        <time>2020-08-21T09:27:10.000Z</time>
      </trkpt>
      <trkpt lat="42.96923560090363025665283203125" lon="-1.10345483757555484771728515625">
        <ele>1074</ele>
        <time>2020-08-21T09:27:11.000Z</time>
      </trkpt>
      <trkpt lat="42.96929645352065563201904296875" lon="-1.1036648042500019073486328125">
        <ele>1074.5999755859375</ele>
        <time>2020-08-21T09:27:17.000Z</time>
      </trkpt>
      <trkpt lat="42.96931372024118900299072265625" lon="-1.1036976613104343414306640625">
        <ele>1074.800048828125</ele>
        <time>2020-08-21T09:27:18.000Z</time>
      </trkpt>
      <trkpt lat="42.9693882353603839874267578125" lon="-1.1037948913872241973876953125">
        <ele>1074.5999755859375</ele>
        <time>2020-08-21T09:27:22.000Z</time>
      </trkpt>
      <trkpt lat="42.969436682760715484619140625" lon="-1.10380101017653942108154296875">
        <ele>1075.4000244140625</ele>
        <time>2020-08-21T09:27:24.000Z</time>
      </trkpt>
      <trkpt lat="42.96951103024184703826904296875" lon="-1.10380872152745723724365234375">
        <ele>1076.5999755859375</ele>
        <time>2020-08-21T09:27:27.000Z</time>
      </trkpt>
      <trkpt lat="42.96957389451563358306884765625" lon="-1.1038042791187763214111328125">
        <ele>1077.199951171875</ele>
        <time>2020-08-21T09:27:30.000Z</time>
      </trkpt>
      <trkpt lat="42.969604991376399993896484375" lon="-1.103783659636974334716796875">
        <ele>1077.5999755859375</ele>
        <time>2020-08-21T09:27:32.000Z</time>
      </trkpt>
      <trkpt lat="42.96961965970695018768310546875" lon="-1.103761196136474609375">
        <ele>1077.800048828125</ele>
        <time>2020-08-21T09:27:33.000Z</time>
      </trkpt>
      <trkpt lat="42.969675399363040924072265625" lon="-1.10374443233013153076171875">
        <ele>1078.199951171875</ele>
        <time>2020-08-21T09:27:36.000Z</time>
      </trkpt>
      <trkpt lat="42.96971772797405719757080078125" lon="-1.103756166994571685791015625">
        <ele>1078.800048828125</ele>
        <time>2020-08-21T09:27:38.000Z</time>
      </trkpt>
      <trkpt lat="42.9698425345122814178466796875" lon="-1.10384325496852397918701171875">
        <ele>1079</ele>
        <time>2020-08-21T09:27:44.000Z</time>
      </trkpt>
      <trkpt lat="42.96988922171294689178466796875" lon="-1.10401659272611141204833984375">
        <ele>1079.4000244140625</ele>
        <time>2020-08-21T09:27:50.000Z</time>
      </trkpt>
      <trkpt lat="42.9698914848268032073974609375" lon="-1.10408532433211803436279296875">
        <ele>1079.800048828125</ele>
        <time>2020-08-21T09:27:52.000Z</time>
      </trkpt>
      <trkpt lat="42.96989425085484981536865234375" lon="-1.10423862934112548828125">
        <ele>1081</ele>
        <time>2020-08-21T09:27:57.000Z</time>
      </trkpt>
      <trkpt lat="42.96987396664917469024658203125" lon="-1.1044520325958728790283203125">
        <ele>1081.800048828125</ele>
        <time>2020-08-21T09:28:04.000Z</time>
      </trkpt>
      <trkpt lat="42.969868183135986328125" lon="-1.1045081913471221923828125">
        <ele>1082.199951171875</ele>
        <time>2020-08-21T09:28:06.000Z</time>
      </trkpt>
      <trkpt lat="42.96985200606286525726318359375" lon="-1.10460869036614894866943359375">
        <ele>1082.800048828125</ele>
        <time>2020-08-21T09:28:10.000Z</time>
      </trkpt>
      <trkpt lat="42.9698418639600276947021484375" lon="-1.1046595685184001922607421875">
        <ele>1083.199951171875</ele>
        <time>2020-08-21T09:28:12.000Z</time>
      </trkpt>
      <trkpt lat="42.96982283703982830047607421875" lon="-1.10479242168366909027099609375">
        <ele>1083.5999755859375</ele>
        <time>2020-08-21T09:28:17.000Z</time>
      </trkpt>
      <trkpt lat="42.969808839261531829833984375" lon="-1.10491831786930561065673828125">
        <ele>1084.199951171875</ele>
        <time>2020-08-21T09:28:22.000Z</time>
      </trkpt>
      <trkpt lat="42.96980171464383602142333984375" lon="-1.104949414730072021484375">
        <ele>1084.4000244140625</ele>
        <time>2020-08-21T09:28:23.000Z</time>
      </trkpt>
      <trkpt lat="42.96976164914667606353759765625" lon="-1.10507673583924770355224609375">
        <ele>1085</ele>
        <time>2020-08-21T09:28:28.000Z</time>
      </trkpt>
      <trkpt lat="42.96975611709058284759521484375" lon="-1.105103306472301483154296875">
        <ele>1085.4000244140625</ele>
        <time>2020-08-21T09:28:29.000Z</time>
      </trkpt>
      <trkpt lat="42.9697144590318202972412109375" lon="-1.1052818410098552703857421875">
        <ele>1086.4000244140625</ele>
        <time>2020-08-21T09:28:35.000Z</time>
      </trkpt>
      <trkpt lat="42.96970792114734649658203125" lon="-1.10531662590801715850830078125">
        <ele>1086.5999755859375</ele>
        <time>2020-08-21T09:28:36.000Z</time>
      </trkpt>
      <trkpt lat="42.969658635556697845458984375" lon="-1.1055617965757846832275390625">
        <ele>1087.4000244140625</ele>
        <time>2020-08-21T09:28:43.000Z</time>
      </trkpt>
      <trkpt lat="42.96964983455836772918701171875" lon="-1.10559389926493167877197265625">
        <ele>1087.5999755859375</ele>
        <time>2020-08-21T09:28:44.000Z</time>
      </trkpt>
      <trkpt lat="42.96961261890828609466552734375" lon="-1.10576237551867961883544921875">
        <ele>1088.4000244140625</ele>
        <time>2020-08-21T09:28:49.000Z</time>
      </trkpt>
      <trkpt lat="42.96959937550127506256103515625" lon="-1.10582649707794189453125">
        <ele>1088.800048828125</ele>
        <time>2020-08-21T09:28:51.000Z</time>
      </trkpt>
      <trkpt lat="42.9695702902972698211669921875" lon="-1.1059493757784366607666015625">
        <ele>1089.199951171875</ele>
        <time>2020-08-21T09:28:55.000Z</time>
      </trkpt>
      <trkpt lat="42.9695622436702251434326171875" lon="-1.10604576766490936279296875">
        <ele>1089.800048828125</ele>
        <time>2020-08-21T09:28:58.000Z</time>
      </trkpt>
      <trkpt lat="42.96954221092164516448974609375" lon="-1.10614073462784290313720703125">
        <ele>1090</ele>
        <time>2020-08-21T09:29:01.000Z</time>
      </trkpt>
      <trkpt lat="42.96951957978308200836181640625" lon="-1.10629194416105747222900390625">
        <ele>1090.800048828125</ele>
        <time>2020-08-21T09:29:06.000Z</time>
      </trkpt>
      <trkpt lat="42.969516478478908538818359375" lon="-1.106352545320987701416015625">
        <ele>1091</ele>
        <time>2020-08-21T09:29:08.000Z</time>
      </trkpt>
      <trkpt lat="42.969524860382080078125" lon="-1.10657089389860630035400390625">
        <ele>1091.5999755859375</ele>
        <time>2020-08-21T09:29:15.000Z</time>
      </trkpt>
      <trkpt lat="42.9695290513336658477783203125" lon="-1.10660224221646785736083984375">
        <ele>1091.800048828125</ele>
        <time>2020-08-21T09:29:16.000Z</time>
      </trkpt>
      <trkpt lat="42.9695444740355014801025390625" lon="-1.106775663793087005615234375">
        <ele>1093</ele>
        <time>2020-08-21T09:29:22.000Z</time>
      </trkpt>
      <trkpt lat="42.96956215985119342803955078125" lon="-1.10688529908657073974609375">
        <ele>1094.199951171875</ele>
        <time>2020-08-21T09:29:26.000Z</time>
      </trkpt>
      <trkpt lat="42.96957154758274555206298828125" lon="-1.1070031486451625823974609375">
        <ele>1094.199951171875</ele>
        <time>2020-08-21T09:29:30.000Z</time>
      </trkpt>
      <trkpt lat="42.96964530833065509796142578125" lon="-1.1071758158504962921142578125">
        <ele>1094.5999755859375</ele>
        <time>2020-08-21T09:29:37.000Z</time>
      </trkpt>
      <trkpt lat="42.96968403272330760955810546875" lon="-1.10720272175967693328857421875">
        <ele>1095.199951171875</ele>
        <time>2020-08-21T09:29:39.000Z</time>
      </trkpt>
      <trkpt lat="42.96976466663181781768798828125" lon="-1.10720506869256496429443359375">
        <ele>1095.5999755859375</ele>
        <time>2020-08-21T09:29:43.000Z</time>
      </trkpt>
      <trkpt lat="42.96985435299575328826904296875" lon="-1.10714036040008068084716796875">
        <ele>1096.5999755859375</ele>
        <time>2020-08-21T09:29:48.000Z</time>
      </trkpt>
      <trkpt lat="42.96987413428723812103271484375" lon="-1.10712963156402111053466796875">
        <ele>1096.800048828125</ele>
        <time>2020-08-21T09:29:49.000Z</time>
      </trkpt>
      <trkpt lat="42.96993917785584926605224609375" lon="-1.1070826090872287750244140625">
        <ele>1097.5999755859375</ele>
        <time>2020-08-21T09:29:53.000Z</time>
      </trkpt>
      <trkpt lat="42.9699860326945781707763671875" lon="-1.1070460639894008636474609375">
        <ele>1098</ele>
        <time>2020-08-21T09:29:56.000Z</time>
      </trkpt>
      <trkpt lat="42.97006607986986637115478515625" lon="-1.1070192418992519378662109375">
        <ele>1098.800048828125</ele>
        <time>2020-08-21T09:30:01.000Z</time>
      </trkpt>
      <trkpt lat="42.97010011039674282073974609375" lon="-1.1070048250257968902587890625">
        <ele>1099.5999755859375</ele>
        <time>2020-08-21T09:30:03.000Z</time>
      </trkpt>
      <trkpt lat="42.970116622745990753173828125" lon="-1.10699702985584735870361328125">
        <ele>1099.800048828125</ele>
        <time>2020-08-21T09:30:04.000Z</time>
      </trkpt>
      <trkpt lat="42.9702260904014110565185546875" lon="-1.10696786083281040191650390625">
        <ele>1101</ele>
        <time>2020-08-21T09:30:10.000Z</time>
      </trkpt>
      <trkpt lat="42.9703038744628429412841796875" lon="-1.10694522969424724578857421875">
        <ele>1102</ele>
        <time>2020-08-21T09:30:15.000Z</time>
      </trkpt>
      <trkpt lat="42.97034603543579578399658203125" lon="-1.106930561363697052001953125">
        <ele>1102.4000244140625</ele>
        <time>2020-08-21T09:30:17.000Z</time>
      </trkpt>
      <trkpt lat="42.97044175677001476287841796875" lon="-1.10687633045017719268798828125">
        <ele>1102.800048828125</ele>
        <time>2020-08-21T09:30:22.000Z</time>
      </trkpt>
      <trkpt lat="42.970493473112583160400390625" lon="-1.1067845486104488372802734375">
        <ele>1103.199951171875</ele>
        <time>2020-08-21T09:30:26.000Z</time>
      </trkpt>
      <trkpt lat="42.9705026932060718536376953125" lon="-1.10673149116337299346923828125">
        <ele>1103.4000244140625</ele>
        <time>2020-08-21T09:30:28.000Z</time>
      </trkpt>
      <trkpt lat="42.970512919127941131591796875" lon="-1.10662822611629962921142578125">
        <ele>1104.4000244140625</ele>
        <time>2020-08-21T09:30:32.000Z</time>
      </trkpt>
      <trkpt lat="42.97051451168954372406005859375" lon="-1.10655496828258037567138671875">
        <ele>1105.4000244140625</ele>
        <time>2020-08-21T09:30:35.000Z</time>
      </trkpt>
      <trkpt lat="42.9705157689750194549560546875" lon="-1.10652831383049488067626953125">
        <ele>1105.800048828125</ele>
        <time>2020-08-21T09:30:36.000Z</time>
      </trkpt>
      <trkpt lat="42.97057695686817169189453125" lon="-1.10635556280612945556640625">
        <ele>1107</ele>
        <time>2020-08-21T09:30:44.000Z</time>
      </trkpt>
      <trkpt lat="42.97061107121407985687255859375" lon="-1.10629932023584842681884765625">
        <ele>1108.199951171875</ele>
        <time>2020-08-21T09:30:47.000Z</time>
      </trkpt>
      <trkpt lat="42.9706552438437938690185546875" lon="-1.1062625236809253692626953125">
        <ele>1108.4000244140625</ele>
        <time>2020-08-21T09:30:50.000Z</time>
      </trkpt>
      <trkpt lat="42.97077275812625885009765625" lon="-1.1062085442245006561279296875">
        <ele>1108.800048828125</ele>
        <time>2020-08-21T09:30:57.000Z</time>
      </trkpt>
      <trkpt lat="42.97080368734896183013916015625" lon="-1.10619940795004367828369140625">
        <ele>1109.4000244140625</ele>
        <time>2020-08-21T09:30:59.000Z</time>
      </trkpt>
      <trkpt lat="42.97087443061172962188720703125" lon="-1.1061870865523815155029296875">
        <ele>1110</ele>
        <time>2020-08-21T09:31:03.000Z</time>
      </trkpt>
      <trkpt lat="42.97090946696698665618896484375" lon="-1.1061827279627323150634765625">
        <ele>1110.5999755859375</ele>
        <time>2020-08-21T09:31:05.000Z</time>
      </trkpt>
      <trkpt lat="42.9709818027913570404052734375" lon="-1.10616470687091350555419921875">
        <ele>1111.4000244140625</ele>
        <time>2020-08-21T09:31:10.000Z</time>
      </trkpt>
      <trkpt lat="42.970997728407382965087890625" lon="-1.10616252757608890533447265625">
        <ele>1111.5999755859375</ele>
        <time>2020-08-21T09:31:11.000Z</time>
      </trkpt>
      <trkpt lat="42.971055395901203155517578125" lon="-1.10615062527358531951904296875">
        <ele>1112.199951171875</ele>
        <time>2020-08-21T09:31:15.000Z</time>
      </trkpt>
      <trkpt lat="42.971147932112216949462890625" lon="-1.10612078569829463958740234375">
        <ele>1112.4000244140625</ele>
        <time>2020-08-21T09:31:21.000Z</time>
      </trkpt>
      <trkpt lat="42.97116377390921115875244140625" lon="-1.106111817061901092529296875">
        <ele>1112.5999755859375</ele>
        <time>2020-08-21T09:31:22.000Z</time>
      </trkpt>
      <trkpt lat="42.97124424017965793609619140625" lon="-1.10608868300914764404296875">
        <ele>1113.5999755859375</ele>
        <time>2020-08-21T09:31:27.000Z</time>
      </trkpt>
      <trkpt lat="42.97126016579568386077880859375" lon="-1.1060871742665767669677734375">
        <ele>1114</ele>
        <time>2020-08-21T09:31:28.000Z</time>
      </trkpt>
      <trkpt lat="42.97129369340837001800537109375" lon="-1.10608424060046672821044921875">
        <ele>1114.5999755859375</ele>
        <time>2020-08-21T09:31:30.000Z</time>
      </trkpt>
      <trkpt lat="42.97139234840869903564453125" lon="-1.1060935445129871368408203125">
        <ele>1115.199951171875</ele>
        <time>2020-08-21T09:31:36.000Z</time>
      </trkpt>
      <trkpt lat="42.97149217687547206878662109375" lon="-1.10610879957675933837890625">
        <ele>1115.800048828125</ele>
        <time>2020-08-21T09:31:42.000Z</time>
      </trkpt>
      <trkpt lat="42.97160935588181018829345703125" lon="-1.1061522178351879119873046875">
        <ele>1116.5999755859375</ele>
        <time>2020-08-21T09:31:48.000Z</time>
      </trkpt>
      <trkpt lat="42.97162880189716815948486328125" lon="-1.106161773204803466796875">
        <ele>1116.800048828125</ele>
        <time>2020-08-21T09:31:49.000Z</time>
      </trkpt>
      <trkpt lat="42.97171463258564472198486328125" lon="-1.10620812512934207916259765625">
        <ele>1117.5999755859375</ele>
        <time>2020-08-21T09:31:53.000Z</time>
      </trkpt>
      <trkpt lat="42.97177012078464031219482421875" lon="-1.10624366439878940582275390625">
        <ele>1117.800048828125</ele>
        <time>2020-08-21T09:31:56.000Z</time>
      </trkpt>
      <trkpt lat="42.9718471504747867584228515625" lon="-1.10631373710930347442626953125">
        <ele>1119</ele>
        <time>2020-08-21T09:32:01.000Z</time>
      </trkpt>
      <trkpt lat="42.971902303397655487060546875" lon="-1.1063750088214874267578125">
        <ele>1120</ele>
        <time>2020-08-21T09:32:05.000Z</time>
      </trkpt>
      <trkpt lat="42.9719162173569202423095703125" lon="-1.10639168880879878997802734375">
        <ele>1120.4000244140625</ele>
        <time>2020-08-21T09:32:06.000Z</time>
      </trkpt>
      <trkpt lat="42.9719536006450653076171875" lon="-1.10643896274268627166748046875">
        <ele>1121.199951171875</ele>
        <time>2020-08-21T09:32:09.000Z</time>
      </trkpt>
      <trkpt lat="42.9720233380794525146484375" lon="-1.10654273070394992828369140625">
        <ele>1121.5999755859375</ele>
        <time>2020-08-21T09:32:15.000Z</time>
      </trkpt>
      <trkpt lat="42.9720503278076648712158203125" lon="-1.10657726414501667022705078125">
        <ele>1121.800048828125</ele>
        <time>2020-08-21T09:32:17.000Z</time>
      </trkpt>
      <trkpt lat="42.97207656316459178924560546875" lon="-1.1066110432147979736328125">
        <ele>1122.4000244140625</ele>
        <time>2020-08-21T09:32:19.000Z</time>
      </trkpt>
      <trkpt lat="42.97208846546709537506103515625" lon="-1.1066303215920925140380859375">
        <ele>1122.5999755859375</ele>
        <time>2020-08-21T09:32:20.000Z</time>
      </trkpt>
      <trkpt lat="42.97214470803737640380859375" lon="-1.106726042926311492919921875">
        <ele>1123.800048828125</ele>
        <time>2020-08-21T09:32:25.000Z</time>
      </trkpt>
      <trkpt lat="42.97215719707310199737548828125" lon="-1.10674322582781314849853515625">
        <ele>1124.199951171875</ele>
        <time>2020-08-21T09:32:26.000Z</time>
      </trkpt>
      <trkpt lat="42.97220597974956035614013671875" lon="-1.10683995299041271209716796875">
        <ele>1124.800048828125</ele>
        <time>2020-08-21T09:32:31.000Z</time>
      </trkpt>
      <trkpt lat="42.9722229950129985809326171875" lon="-1.10688387416303157806396484375">
        <ele>1125.4000244140625</ele>
        <time>2020-08-21T09:32:33.000Z</time>
      </trkpt>
      <trkpt lat="42.972271442413330078125" lon="-1.10699434764683246612548828125">
        <ele>1125.800048828125</ele>
        <time>2020-08-21T09:32:38.000Z</time>
      </trkpt>
      <trkpt lat="42.972283847630023956298828125" lon="-1.10701664350926876068115234375">
        <ele>1126</ele>
        <time>2020-08-21T09:32:39.000Z</time>
      </trkpt>
      <trkpt lat="42.9723559319972991943359375" lon="-1.107130385935306549072265625">
        <ele>1126.800048828125</ele>
        <time>2020-08-21T09:32:44.000Z</time>
      </trkpt>
      <trkpt lat="42.97236992977559566497802734375" lon="-1.10715678893029689788818359375">
        <ele>1126.800048828125</ele>
        <time>2020-08-21T09:32:45.000Z</time>
      </trkpt>
      <trkpt lat="42.9724496416747570037841796875" lon="-1.10729978419840335845947265625">
        <ele>1127.199951171875</ele>
        <time>2020-08-21T09:32:51.000Z</time>
      </trkpt>
      <trkpt lat="42.97252348624169826507568359375" lon="-1.1074188910424709320068359375">
        <ele>1127</ele>
        <time>2020-08-21T09:32:56.000Z</time>
      </trkpt>
      <trkpt lat="42.97264703549444675445556640625" lon="-1.10750832594931125640869140625">
        <ele>1127.800048828125</ele>
        <time>2020-08-21T09:33:02.000Z</time>
      </trkpt>
      <trkpt lat="42.972721047699451446533203125" lon="-1.10751234926283359527587890625">
        <ele>1128</ele>
        <time>2020-08-21T09:33:05.000Z</time>
      </trkpt>
      <trkpt lat="42.9727869294583797454833984375" lon="-1.10749022103846073150634765625">
        <ele>1128.199951171875</ele>
        <time>2020-08-21T09:33:08.000Z</time>
      </trkpt>
      <trkpt lat="42.97289212234318256378173828125" lon="-1.10737840645015239715576171875">
        <ele>1128.800048828125</ele>
        <time>2020-08-21T09:33:14.000Z</time>
      </trkpt>
      <trkpt lat="42.97291986644268035888671875" lon="-1.10733163543045520782470703125">
        <ele>1129</ele>
        <time>2020-08-21T09:33:16.000Z</time>
      </trkpt>
      <trkpt lat="42.97297677956521511077880859375" lon="-1.1072418652474880218505859375">
        <ele>1128.800048828125</ele>
        <time>2020-08-21T09:33:20.000Z</time>
      </trkpt>
      <trkpt lat="42.9730243049561977386474609375" lon="-1.10718243755400180816650390625">
        <ele>1129</ele>
        <time>2020-08-21T09:33:23.000Z</time>
      </trkpt>
      <trkpt lat="42.97313871793448925018310546875" lon="-1.10706693492829799652099609375">
        <ele>1129.5999755859375</ele>
        <time>2020-08-21T09:33:29.000Z</time>
      </trkpt>
      <trkpt lat="42.9731849022209644317626953125" lon="-1.1070326529443264007568359375">
        <ele>1130</ele>
        <time>2020-08-21T09:33:31.000Z</time>
      </trkpt>
      <trkpt lat="42.97327936626970767974853515625" lon="-1.1069518513977527618408203125">
        <ele>1131</ele>
        <time>2020-08-21T09:33:36.000Z</time>
      </trkpt>
      <trkpt lat="42.973298393189907073974609375" lon="-1.10693802125751972198486328125">
        <ele>1131.4000244140625</ele>
        <time>2020-08-21T09:33:37.000Z</time>
      </trkpt>
      <trkpt lat="42.9734584875404834747314453125" lon="-1.10682629048824310302734375">
        <ele>1132.800048828125</ele>
        <time>2020-08-21T09:33:45.000Z</time>
      </trkpt>
      <trkpt lat="42.97354406677186489105224609375" lon="-1.10677390359342098236083984375">
        <ele>1133.800048828125</ele>
        <time>2020-08-21T09:33:50.000Z</time>
      </trkpt>
      <trkpt lat="42.97356317751109600067138671875" lon="-1.10676635988056659698486328125">
        <ele>1134</ele>
        <time>2020-08-21T09:33:51.000Z</time>
      </trkpt>
      <trkpt lat="42.97358061186969280242919921875" lon="-1.10676568932831287384033203125">
        <ele>1134.4000244140625</ele>
        <time>2020-08-21T09:33:52.000Z</time>
      </trkpt>
      <trkpt lat="42.97361598350107669830322265625" lon="-1.10675479285418987274169921875">
        <ele>1135</ele>
        <time>2020-08-21T09:33:54.000Z</time>
      </trkpt>
      <trkpt lat="42.973635010421276092529296875" lon="-1.10674942843616008758544921875">
        <ele>1135</ele>
        <time>2020-08-21T09:33:55.000Z</time>
      </trkpt>
      <trkpt lat="42.9737924225628376007080078125" lon="-1.10671908594667911529541015625">
        <ele>1136.199951171875</ele>
        <time>2020-08-21T09:34:03.000Z</time>
      </trkpt>
      <trkpt lat="42.9738779179751873016357421875" lon="-1.10670533962547779083251953125">
        <ele>1137.5999755859375</ele>
        <time>2020-08-21T09:34:07.000Z</time>
      </trkpt>
      <trkpt lat="42.9739171452820301055908203125" lon="-1.106705255806446075439453125">
        <ele>1137.800048828125</ele>
        <time>2020-08-21T09:34:09.000Z</time>
      </trkpt>
      <trkpt lat="42.97403608448803424835205078125" lon="-1.1066957004368305206298828125">
        <ele>1138.4000244140625</ele>
        <time>2020-08-21T09:34:15.000Z</time>
      </trkpt>
      <trkpt lat="42.97407723963260650634765625" lon="-1.10668807290494441986083984375">
        <ele>1138.4000244140625</ele>
        <time>2020-08-21T09:34:17.000Z</time>
      </trkpt>
      <trkpt lat="42.974160723388195037841796875" lon="-1.10667583532631397247314453125">
        <ele>1139.5999755859375</ele>
        <time>2020-08-21T09:34:21.000Z</time>
      </trkpt>
      <trkpt lat="42.97418192960321903228759765625" lon="-1.10667164437472820281982421875">
        <ele>1139.800048828125</ele>
        <time>2020-08-21T09:34:22.000Z</time>
      </trkpt>
      <trkpt lat="42.97428988851606845855712890625" lon="-1.10665538348257541656494140625">
        <ele>1140.5999755859375</ele>
        <time>2020-08-21T09:34:27.000Z</time>
      </trkpt>
      <trkpt lat="42.9743298701941967010498046875" lon="-1.1066480912268161773681640625">
        <ele>1140.800048828125</ele>
        <time>2020-08-21T09:34:29.000Z</time>
      </trkpt>
      <trkpt lat="42.9744291119277477264404296875" lon="-1.1066226102411746978759765625">
        <ele>1141.4000244140625</ele>
        <time>2020-08-21T09:34:35.000Z</time>
      </trkpt>
      <trkpt lat="42.9744686745107173919677734375" lon="-1.1066081933677196502685546875">
        <ele>1141.5999755859375</ele>
        <time>2020-08-21T09:34:37.000Z</time>
      </trkpt>
      <trkpt lat="42.97455173917114734649658203125" lon="-1.1065827123820781707763671875">
        <ele>1142.4000244140625</ele>
        <time>2020-08-21T09:34:41.000Z</time>
      </trkpt>
      <trkpt lat="42.97459348104894161224365234375" lon="-1.10657055862247943878173828125">
        <ele>1142.800048828125</ele>
        <time>2020-08-21T09:34:43.000Z</time>
      </trkpt>
      <trkpt lat="42.97467713244259357452392578125" lon="-1.1065515317022800445556640625">
        <ele>1143.5999755859375</ele>
        <time>2020-08-21T09:34:47.000Z</time>
      </trkpt>
      <trkpt lat="42.97469808720052242279052734375" lon="-1.1065461672842502593994140625">
        <ele>1144</ele>
        <time>2020-08-21T09:34:48.000Z</time>
      </trkpt>
      <trkpt lat="42.97481023706495761871337890625" lon="-1.106524206697940826416015625">
        <ele>1145</ele>
        <time>2020-08-21T09:34:53.000Z</time>
      </trkpt>
      <trkpt lat="42.97483286820352077484130859375" lon="-1.1065193451941013336181640625">
        <ele>1145</ele>
        <time>2020-08-21T09:34:54.000Z</time>
      </trkpt>
      <trkpt lat="42.97497318126261234283447265625" lon="-1.10649713315069675445556640625">
        <ele>1145.5999755859375</ele>
        <time>2020-08-21T09:35:00.000Z</time>
      </trkpt>
      <trkpt lat="42.97506269998848438262939453125" lon="-1.10648992471396923065185546875">
        <ele>1146</ele>
        <time>2020-08-21T09:35:04.000Z</time>
      </trkpt>
      <trkpt lat="42.97515138052403926849365234375" lon="-1.10649612732231616973876953125">
        <ele>1147</ele>
        <time>2020-08-21T09:35:08.000Z</time>
      </trkpt>
      <trkpt lat="42.97517166472971439361572265625" lon="-1.1064992286264896392822265625">
        <ele>1147</ele>
        <time>2020-08-21T09:35:09.000Z</time>
      </trkpt>
      <trkpt lat="42.97528130002319812774658203125" lon="-1.1065252125263214111328125">
        <ele>1148.199951171875</ele>
        <time>2020-08-21T09:35:14.000Z</time>
      </trkpt>
      <trkpt lat="42.9753715731203556060791015625" lon="-1.1065421439707279205322265625">
        <ele>1149.4000244140625</ele>
        <time>2020-08-21T09:35:18.000Z</time>
      </trkpt>
      <trkpt lat="42.97543468885123729705810546875" lon="-1.1065615899860858917236328125">
        <ele>1149.5999755859375</ele>
        <time>2020-08-21T09:35:21.000Z</time>
      </trkpt>
      <trkpt lat="42.9755827970802783966064453125" lon="-1.10660341568291187286376953125">
        <ele>1150</ele>
        <time>2020-08-21T09:35:28.000Z</time>
      </trkpt>
      <trkpt lat="42.9756253771483898162841796875" lon="-1.10662688501179218292236328125">
        <ele>1150.4000244140625</ele>
        <time>2020-08-21T09:35:30.000Z</time>
      </trkpt>
      <trkpt lat="42.97572948038578033447265625" lon="-1.10672704875469207763671875">
        <ele>1150.800048828125</ele>
        <time>2020-08-21T09:35:35.000Z</time>
      </trkpt>
      <trkpt lat="42.97586333937942981719970703125" lon="-1.10692494548857212066650390625">
        <ele>1151.4000244140625</ele>
        <time>2020-08-21T09:35:42.000Z</time>
      </trkpt>
      <trkpt lat="42.97590759582817554473876953125" lon="-1.10710197128355503082275390625">
        <ele>1151.5999755859375</ele>
        <time>2020-08-21T09:35:48.000Z</time>
      </trkpt>
      <trkpt lat="42.975924946367740631103515625" lon="-1.10714823938906192779541015625">
        <ele>1151.199951171875</ele>
        <time>2020-08-21T09:35:52.000Z</time>
      </trkpt>
      <trkpt lat="42.97592394053936004638671875" lon="-1.10715008340775966644287109375">
        <ele>1151.199951171875</ele>
        <time>2020-08-21T09:35:53.000Z</time>
      </trkpt>
      <trkpt lat="42.97592067159712314605712890625" lon="-1.10714170150458812713623046875">
        <ele>1150.800048828125</ele>
        <time>2020-08-21T09:42:10.000Z</time>
      </trkpt>
      <trkpt lat="42.975920923054218292236328125" lon="-1.10714874230325222015380859375">
        <ele>1150.800048828125</ele>
        <time>2020-08-21T09:42:12.000Z</time>
      </trkpt>
      <trkpt lat="42.9759224317967891693115234375" lon="-1.1072039790451526641845703125">
        <ele>1150.5999755859375</ele>
        <time>2020-08-21T09:42:15.000Z</time>
      </trkpt>
      <trkpt lat="42.9758865572512149810791015625" lon="-1.10735443420708179473876953125">
        <ele>1150.199951171875</ele>
        <time>2020-08-21T09:42:21.000Z</time>
      </trkpt>
      <trkpt lat="42.9758681170642375946044921875" lon="-1.10741545446217060089111328125">
        <ele>1149.800048828125</ele>
        <time>2020-08-21T09:42:23.000Z</time>
      </trkpt>
      <trkpt lat="42.97582763247191905975341796875" lon="-1.10756532289087772369384765625">
        <ele>1149.4000244140625</ele>
        <time>2020-08-21T09:42:27.000Z</time>
      </trkpt>
      <trkpt lat="42.97572813928127288818359375" lon="-1.10778358764946460723876953125">
        <ele>1149.5999755859375</ele>
        <time>2020-08-21T09:42:32.000Z</time>
      </trkpt>
      <trkpt lat="42.97570290975272655487060546875" lon="-1.1078326217830181121826171875">
        <ele>1149.4000244140625</ele>
        <time>2020-08-21T09:42:33.000Z</time>
      </trkpt>
      <trkpt lat="42.9755665361881256103515625" lon="-1.10805449075996875762939453125">
        <ele>1148.800048828125</ele>
        <time>2020-08-21T09:42:38.000Z</time>
      </trkpt>
      <trkpt lat="42.97549352981150150299072265625" lon="-1.1082088015973567962646484375">
        <ele>1148.5999755859375</ele>
        <time>2020-08-21T09:42:41.000Z</time>
      </trkpt>
      <trkpt lat="42.9754369519650936126708984375" lon="-1.10833696089684963226318359375">
        <ele>1147.800048828125</ele>
        <time>2020-08-21T09:42:44.000Z</time>
      </trkpt>
      <trkpt lat="42.97542127780616283416748046875" lon="-1.1083804629743099212646484375">
        <ele>1147.4000244140625</ele>
        <time>2020-08-21T09:42:45.000Z</time>
      </trkpt>
      <trkpt lat="42.975324131548404693603515625" lon="-1.108623705804347991943359375">
        <ele>1146.4000244140625</ele>
        <time>2020-08-21T09:42:50.000Z</time>
      </trkpt>
      <trkpt lat="42.97530191950500011444091796875" lon="-1.10867743380367755889892578125">
        <ele>1146</ele>
        <time>2020-08-21T09:42:51.000Z</time>
      </trkpt>
      <trkpt lat="42.97523553483188152313232421875" lon="-1.10885269939899444580078125">
        <ele>1145.4000244140625</ele>
        <time>2020-08-21T09:42:54.000Z</time>
      </trkpt>
      <trkpt lat="42.97511584125459194183349609375" lon="-1.109092421829700469970703125">
        <ele>1145.5999755859375</ele>
        <time>2020-08-21T09:42:58.000Z</time>
      </trkpt>
      <trkpt lat="42.9749538190662860870361328125" lon="-1.1093147099018096923828125">
        <ele>1144</ele>
        <time>2020-08-21T09:43:02.000Z</time>
      </trkpt>
      <trkpt lat="42.9748582653701305389404296875" lon="-1.1094248481094837188720703125">
        <ele>1143.199951171875</ele>
        <time>2020-08-21T09:43:04.000Z</time>
      </trkpt>
      <trkpt lat="42.9748073033988475799560546875" lon="-1.1094798333942890167236328125">
        <ele>1143</ele>
        <time>2020-08-21T09:43:05.000Z</time>
      </trkpt>
      <trkpt lat="42.97452516853809356689453125" lon="-1.10975266434252262115478515625">
        <ele>1142.199951171875</ele>
        <time>2020-08-21T09:43:10.000Z</time>
      </trkpt>
      <trkpt lat="42.9744646511971950531005859375" lon="-1.10980865545570850372314453125">
        <ele>1142</ele>
        <time>2020-08-21T09:43:11.000Z</time>
      </trkpt>
      <trkpt lat="42.974343113601207733154296875" lon="-1.109927594661712646484375">
        <ele>1140.5999755859375</ele>
        <time>2020-08-21T09:43:13.000Z</time>
      </trkpt>
      <trkpt lat="42.97416633926331996917724609375" lon="-1.11012482084333896636962890625">
        <ele>1139.5999755859375</ele>
        <time>2020-08-21T09:43:16.000Z</time>
      </trkpt>
      <trkpt lat="42.97411068342626094818115234375" lon="-1.11019539646804332733154296875">
        <ele>1139.199951171875</ele>
        <time>2020-08-21T09:43:17.000Z</time>
      </trkpt>
      <trkpt lat="42.973947487771511077880859375" lon="-1.1104008369147777557373046875">
        <ele>1138.4000244140625</ele>
        <time>2020-08-21T09:43:20.000Z</time>
      </trkpt>
      <trkpt lat="42.973852269351482391357421875" lon="-1.11053503118455410003662109375">
        <ele>1138</ele>
        <time>2020-08-21T09:43:22.000Z</time>
      </trkpt>
      <trkpt lat="42.9738204181194305419921875" lon="-1.1106033436954021453857421875">
        <ele>1137.199951171875</ele>
        <time>2020-08-21T09:43:23.000Z</time>
      </trkpt>
      <trkpt lat="42.97377691604197025299072265625" lon="-1.11083778552711009979248046875">
        <ele>1135.5999755859375</ele>
        <time>2020-08-21T09:43:26.000Z</time>
      </trkpt>
      <trkpt lat="42.9737800173461437225341796875" lon="-1.110920347273349761962890625">
        <ele>1135.5999755859375</ele>
        <time>2020-08-21T09:43:27.000Z</time>
      </trkpt>
      <trkpt lat="42.9737873934209346771240234375" lon="-1.11100341193377971649169921875">
        <ele>1135.5999755859375</ele>
        <time>2020-08-21T09:43:28.000Z</time>
      </trkpt>
      <trkpt lat="42.97385998070240020751953125" lon="-1.1114234291017055511474609375">
        <ele>1134.5999755859375</ele>
        <time>2020-08-21T09:43:33.000Z</time>
      </trkpt>
      <trkpt lat="42.97391119413077831268310546875" lon="-1.1116825975477695465087890625">
        <ele>1133.800048828125</ele>
        <time>2020-08-21T09:43:36.000Z</time>
      </trkpt>
      <trkpt lat="42.9739357531070709228515625" lon="-1.111865155398845672607421875">
        <ele>1133</ele>
        <time>2020-08-21T09:43:38.000Z</time>
      </trkpt>
      <trkpt lat="42.97396986745297908782958984375" lon="-1.1122451908886432647705078125">
        <ele>1132</ele>
        <time>2020-08-21T09:43:42.000Z</time>
      </trkpt>
      <trkpt lat="42.973985709249973297119140625" lon="-1.11241542734205722808837890625">
        <ele>1131.4000244140625</ele>
        <time>2020-08-21T09:43:44.000Z</time>
      </trkpt>
      <trkpt lat="42.9740261100232601165771484375" lon="-1.1126272380352020263671875">
        <ele>1131</ele>
        <time>2020-08-21T09:43:47.000Z</time>
      </trkpt>
      <trkpt lat="42.97406692989170551300048828125" lon="-1.11283988691866397857666015625">
        <ele>1130</ele>
        <time>2020-08-21T09:43:50.000Z</time>
      </trkpt>
      <trkpt lat="42.974184192717075347900390625" lon="-1.1130994744598865509033203125">
        <ele>1129.199951171875</ele>
        <time>2020-08-21T09:43:54.000Z</time>
      </trkpt>
      <trkpt lat="42.9742185585200786590576171875" lon="-1.11316166818141937255859375">
        <ele>1128.800048828125</ele>
        <time>2020-08-21T09:43:55.000Z</time>
      </trkpt>
      <trkpt lat="42.97424965538084506988525390625" lon="-1.1132201738655567169189453125">
        <ele>1127.4000244140625</ele>
        <time>2020-08-21T09:43:56.000Z</time>
      </trkpt>
      <trkpt lat="42.97430698759853839874267578125" lon="-1.1133304797112941741943359375">
        <ele>1125.800048828125</ele>
        <time>2020-08-21T09:43:58.000Z</time>
      </trkpt>
      <trkpt lat="42.97432408668100833892822265625" lon="-1.1133901588618755340576171875">
        <ele>1125.5999755859375</ele>
        <time>2020-08-21T09:43:59.000Z</time>
      </trkpt>
      <trkpt lat="42.97433196566998958587646484375" lon="-1.11345092765986919403076171875">
        <ele>1125.4000244140625</ele>
        <time>2020-08-21T09:44:00.000Z</time>
      </trkpt>
      <trkpt lat="42.97432509250938892364501953125" lon="-1.11357112415134906768798828125">
        <ele>1124.5999755859375</ele>
        <time>2020-08-21T09:44:02.000Z</time>
      </trkpt>
      <trkpt lat="42.97429307363927364349365234375" lon="-1.1136748082935810089111328125">
        <ele>1124.4000244140625</ele>
        <time>2020-08-21T09:44:04.000Z</time>
      </trkpt>
      <trkpt lat="42.97421411611139774322509765625" lon="-1.11380196176469326019287109375">
        <ele>1123.5999755859375</ele>
        <time>2020-08-21T09:44:07.000Z</time>
      </trkpt>
      <trkpt lat="42.97418050467967987060546875" lon="-1.11384185962378978729248046875">
        <ele>1123.4000244140625</ele>
        <time>2020-08-21T09:44:08.000Z</time>
      </trkpt>
      <trkpt lat="42.9741424508392810821533203125" lon="-1.1138779856264591217041015625">
        <ele>1123.199951171875</ele>
        <time>2020-08-21T09:44:09.000Z</time>
      </trkpt>
      <trkpt lat="42.97400775365531444549560546875" lon="-1.1139668338000774383544921875">
        <ele>1121.800048828125</ele>
        <time>2020-08-21T09:44:12.000Z</time>
      </trkpt>
      <trkpt lat="42.97390247695147991180419921875" lon="-1.1140127666294574737548828125">
        <ele>1120.800048828125</ele>
        <time>2020-08-21T09:44:14.000Z</time>
      </trkpt>
      <trkpt lat="42.97384581528604030609130859375" lon="-1.11403070390224456787109375">
        <ele>1120.5999755859375</ele>
        <time>2020-08-21T09:44:15.000Z</time>
      </trkpt>
      <trkpt lat="42.973670549690723419189453125" lon="-1.1140729486942291259765625">
        <ele>1119.199951171875</ele>
        <time>2020-08-21T09:44:18.000Z</time>
      </trkpt>
      <trkpt lat="42.97348874621093273162841796875" lon="-1.11410505138337612152099609375">
        <ele>1118.4000244140625</ele>
        <time>2020-08-21T09:44:21.000Z</time>
      </trkpt>
      <trkpt lat="42.9734313301742076873779296875" lon="-1.1141277663409709930419921875">
        <ele>1118.199951171875</ele>
        <time>2020-08-21T09:44:22.000Z</time>
      </trkpt>
      <trkpt lat="42.97333535738289356231689453125" lon="-1.11420429311692714691162109375">
        <ele>1116.800048828125</ele>
        <time>2020-08-21T09:44:24.000Z</time>
      </trkpt>
      <trkpt lat="42.97330317087471485137939453125" lon="-1.1142618767917156219482421875">
        <ele>1116.4000244140625</ele>
        <time>2020-08-21T09:44:25.000Z</time>
      </trkpt>
      <trkpt lat="42.9732774384319782257080078125" lon="-1.11432918347418308258056640625">
        <ele>1115.5999755859375</ele>
        <time>2020-08-21T09:44:26.000Z</time>
      </trkpt>
      <trkpt lat="42.9732690565288066864013671875" lon="-1.11445181071758270263671875">
        <ele>1115</ele>
        <time>2020-08-21T09:44:28.000Z</time>
      </trkpt>
      <trkpt lat="42.9732693918049335479736328125" lon="-1.1145116575062274932861328125">
        <ele>1114.4000244140625</ele>
        <time>2020-08-21T09:44:29.000Z</time>
      </trkpt>
      <trkpt lat="42.9732697270810604095458984375" lon="-1.11463596113026142120361328125">
        <ele>1113.4000244140625</ele>
        <time>2020-08-21T09:44:31.000Z</time>
      </trkpt>
      <trkpt lat="42.97327199019491672515869140625" lon="-1.114700920879840850830078125">
        <ele>1113.199951171875</ele>
        <time>2020-08-21T09:44:32.000Z</time>
      </trkpt>
      <trkpt lat="42.97326947562396526336669921875" lon="-1.1149119772017002105712890625">
        <ele>1112.5999755859375</ele>
        <time>2020-08-21T09:44:35.000Z</time>
      </trkpt>
      <trkpt lat="42.97326645813882350921630859375" lon="-1.11498892307281494140625">
        <ele>1112</ele>
        <time>2020-08-21T09:44:36.000Z</time>
      </trkpt>
      <trkpt lat="42.97325941734015941619873046875" lon="-1.115145497024059295654296875">
        <ele>1110.5999755859375</ele>
        <time>2020-08-21T09:44:38.000Z</time>
      </trkpt>
      <trkpt lat="42.973245084285736083984375" lon="-1.11531204544007778167724609375">
        <ele>1110</ele>
        <time>2020-08-21T09:44:40.000Z</time>
      </trkpt>
      <trkpt lat="42.9732115566730499267578125" lon="-1.1154839582741260528564453125">
        <ele>1109.5999755859375</ele>
        <time>2020-08-21T09:44:42.000Z</time>
      </trkpt>
      <trkpt lat="42.97318448312580585479736328125" lon="-1.1155684478580951690673828125">
        <ele>1109.4000244140625</ele>
        <time>2020-08-21T09:44:43.000Z</time>
      </trkpt>
      <trkpt lat="42.9730548150837421417236328125" lon="-1.1157776601612567901611328125">
        <ele>1107.199951171875</ele>
        <time>2020-08-21T09:44:46.000Z</time>
      </trkpt>
      <trkpt lat="42.97287619672715663909912109375" lon="-1.1158956773579120635986328125">
        <ele>1106.199951171875</ele>
        <time>2020-08-21T09:44:49.000Z</time>
      </trkpt>
      <trkpt lat="42.97281257808208465576171875" lon="-1.115910597145557403564453125">
        <ele>1106</ele>
        <time>2020-08-21T09:44:50.000Z</time>
      </trkpt>
      <trkpt lat="42.9726125858724117279052734375" lon="-1.1158909834921360015869140625">
        <ele>1104.800048828125</ele>
        <time>2020-08-21T09:44:53.000Z</time>
      </trkpt>
      <trkpt lat="42.97254972159862518310546875" lon="-1.1158577911555767059326171875">
        <ele>1104.5999755859375</ele>
        <time>2020-08-21T09:44:54.000Z</time>
      </trkpt>
      <trkpt lat="42.97237613238394260406494140625" lon="-1.11571404151618480682373046875">
        <ele>1104.5999755859375</ele>
        <time>2020-08-21T09:44:57.000Z</time>
      </trkpt>
      <trkpt lat="42.9722662456333637237548828125" lon="-1.11560122109949588775634765625">
        <ele>1104.199951171875</ele>
        <time>2020-08-21T09:44:59.000Z</time>
      </trkpt>
      <trkpt lat="42.9722136072814464569091796875" lon="-1.11554187722504138946533203125">
        <ele>1103.800048828125</ele>
        <time>2020-08-21T09:45:00.000Z</time>
      </trkpt>
      <trkpt lat="42.97206466086208820343017578125" lon="-1.1153652705252170562744140625">
        <ele>1102.800048828125</ele>
        <time>2020-08-21T09:45:03.000Z</time>
      </trkpt>
      <trkpt lat="42.97197078354656696319580078125" lon="-1.11524079926311969757080078125">
        <ele>1102.199951171875</ele>
        <time>2020-08-21T09:45:05.000Z</time>
      </trkpt>
      <trkpt lat="42.97188646160066127777099609375" lon="-1.11511037684977054595947265625">
        <ele>1101.4000244140625</ele>
        <time>2020-08-21T09:45:07.000Z</time>
      </trkpt>
      <trkpt lat="42.97184606082737445831298828125" lon="-1.11505589447915554046630859375">
        <ele>1101</ele>
        <time>2020-08-21T09:45:08.000Z</time>
      </trkpt>
      <trkpt lat="42.9717577993869781494140625" lon="-1.11498850397765636444091796875">
        <ele>1101</ele>
        <time>2020-08-21T09:45:10.000Z</time>
      </trkpt>
      <trkpt lat="42.97167222015559673309326171875" lon="-1.1150009930133819580078125">
        <ele>1100.4000244140625</ele>
        <time>2020-08-21T09:45:12.000Z</time>
      </trkpt>
      <trkpt lat="42.97164405696094036102294921875" lon="-1.11503963358700275421142578125">
        <ele>1100.4000244140625</ele>
        <time>2020-08-21T09:45:13.000Z</time>
      </trkpt>
      <trkpt lat="42.9716265387833118438720703125" lon="-1.115193106234073638916015625">
        <ele>1100.199951171875</ele>
        <time>2020-08-21T09:45:16.000Z</time>
      </trkpt>
      <trkpt lat="42.97167808748781681060791015625" lon="-1.11542922444641590118408203125">
        <ele>1099.800048828125</ele>
        <time>2020-08-21T09:45:20.000Z</time>
      </trkpt>
      <trkpt lat="42.97176257707178592681884765625" lon="-1.11569442786276340484619140625">
        <ele>1099.199951171875</ele>
        <time>2020-08-21T09:45:24.000Z</time>
      </trkpt>
      <trkpt lat="42.97182552516460418701171875" lon="-1.11590900458395481109619140625">
        <ele>1098</ele>
        <time>2020-08-21T09:45:27.000Z</time>
      </trkpt>
      <trkpt lat="42.971874810755252838134765625" lon="-1.11606256105005741119384765625">
        <ele>1096.800048828125</ele>
        <time>2020-08-21T09:45:29.000Z</time>
      </trkpt>
      <trkpt lat="42.971920408308506011962890625" lon="-1.1162215657532215118408203125">
        <ele>1095.5999755859375</ele>
        <time>2020-08-21T09:45:31.000Z</time>
      </trkpt>
      <trkpt lat="42.97195754013955593109130859375" lon="-1.11636632122099399566650390625">
        <ele>1094.800048828125</ele>
        <time>2020-08-21T09:45:33.000Z</time>
      </trkpt>
      <trkpt lat="42.97197765670716762542724609375" lon="-1.1164344660937786102294921875">
        <ele>1094.5999755859375</ele>
        <time>2020-08-21T09:45:34.000Z</time>
      </trkpt>
      <trkpt lat="42.97201822511851787567138671875" lon="-1.11657637171447277069091796875">
        <ele>1093.199951171875</ele>
        <time>2020-08-21T09:45:36.000Z</time>
      </trkpt>
      <trkpt lat="42.97208092175424098968505859375" lon="-1.1167979054152965545654296875">
        <ele>1091.5999755859375</ele>
        <time>2020-08-21T09:45:39.000Z</time>
      </trkpt>
      <trkpt lat="42.9721458815038204193115234375" lon="-1.11699982546269893646240234375">
        <ele>1089.4000244140625</ele>
        <time>2020-08-21T09:45:42.000Z</time>
      </trkpt>
      <trkpt lat="42.9721794091165065765380859375" lon="-1.1171361990272998809814453125">
        <ele>1088.4000244140625</ele>
        <time>2020-08-21T09:45:44.000Z</time>
      </trkpt>
      <trkpt lat="42.972193323075771331787109375" lon="-1.11720635555684566497802734375">
        <ele>1088</ele>
        <time>2020-08-21T09:45:45.000Z</time>
      </trkpt>
      <trkpt lat="42.97220145352184772491455078125" lon="-1.11735102720558643341064453125">
        <ele>1087</ele>
        <time>2020-08-21T09:45:47.000Z</time>
      </trkpt>
      <trkpt lat="42.97220262698829174041748046875" lon="-1.11742612905800342559814453125">
        <ele>1086.4000244140625</ele>
        <time>2020-08-21T09:45:48.000Z</time>
      </trkpt>
      <trkpt lat="42.9721921496093273162841796875" lon="-1.11756862141191959381103515625">
        <ele>1085</ele>
        <time>2020-08-21T09:45:50.000Z</time>
      </trkpt>
      <trkpt lat="42.97215954400599002838134765625" lon="-1.11768043600022792816162109375">
        <ele>1084.5999755859375</ele>
        <time>2020-08-21T09:45:52.000Z</time>
      </trkpt>
      <trkpt lat="42.97214194200932979583740234375" lon="-1.11772008240222930908203125">
        <ele>1084.199951171875</ele>
        <time>2020-08-21T09:45:53.000Z</time>
      </trkpt>
      <trkpt lat="42.97208662144839763641357421875" lon="-1.11779258586466312408447265625">
        <ele>1082.800048828125</ele>
        <time>2020-08-21T09:45:56.000Z</time>
      </trkpt>
      <trkpt lat="42.97201805748045444488525390625" lon="-1.1178272031247615814208984375">
        <ele>1081.800048828125</ele>
        <time>2020-08-21T09:45:59.000Z</time>
      </trkpt>
      <trkpt lat="42.97195695340633392333984375" lon="-1.11785796470940113067626953125">
        <ele>1081.5999755859375</ele>
        <time>2020-08-21T09:46:02.000Z</time>
      </trkpt>
      <trkpt lat="42.97194664366543292999267578125" lon="-1.1178748123347759246826171875">
        <ele>1081.5999755859375</ele>
        <time>2020-08-21T09:46:03.000Z</time>
      </trkpt>
      <trkpt lat="42.97195234335958957672119140625" lon="-1.1179187335073947906494140625">
        <ele>1080.800048828125</ele>
        <time>2020-08-21T09:46:05.000Z</time>
      </trkpt>
      <trkpt lat="42.97196625731885433197021484375" lon="-1.11793876625597476959228515625">
        <ele>1080.4000244140625</ele>
        <time>2020-08-21T09:46:06.000Z</time>
      </trkpt>
      <trkpt lat="42.9720892198383808135986328125" lon="-1.11803733743727207183837890625">
        <ele>1079.5999755859375</ele>
        <time>2020-08-21T09:46:11.000Z</time>
      </trkpt>
      <trkpt lat="42.9721609689295291900634765625" lon="-1.11807346343994140625">
        <ele>1079.4000244140625</ele>
        <time>2020-08-21T09:46:13.000Z</time>
      </trkpt>
      <trkpt lat="42.972251661121845245361328125" lon="-1.1180890537798404693603515625">
        <ele>1079</ele>
        <time>2020-08-21T09:46:15.000Z</time>
      </trkpt>
      <trkpt lat="42.97229952178895473480224609375" lon="-1.11807723529636859893798828125">
        <ele>1078.4000244140625</ele>
        <time>2020-08-21T09:46:16.000Z</time>
      </trkpt>
      <trkpt lat="42.972371019423007965087890625" lon="-1.11800414510071277618408203125">
        <ele>1077.199951171875</ele>
        <time>2020-08-21T09:46:18.000Z</time>
      </trkpt>
      <trkpt lat="42.97241133637726306915283203125" lon="-1.117877997457981109619140625">
        <ele>1076.199951171875</ele>
        <time>2020-08-21T09:46:20.000Z</time>
      </trkpt>
      <trkpt lat="42.97242525033652782440185546875" lon="-1.11780985258519649505615234375">
        <ele>1075.800048828125</ele>
        <time>2020-08-21T09:46:21.000Z</time>
      </trkpt>
      <trkpt lat="42.9724372364580631256103515625" lon="-1.11773860640823841094970703125">
        <ele>1075.5999755859375</ele>
        <time>2020-08-21T09:46:22.000Z</time>
      </trkpt>
      <trkpt lat="42.972465567290782928466796875" lon="-1.1175921745598316192626953125">
        <ele>1074.5999755859375</ele>
        <time>2020-08-21T09:46:24.000Z</time>
      </trkpt>
      <trkpt lat="42.972483001649379730224609375" lon="-1.1175257898867130279541015625">
        <ele>1074.4000244140625</ele>
        <time>2020-08-21T09:46:25.000Z</time>
      </trkpt>
      <trkpt lat="42.97254242934286594390869140625" lon="-1.11741355620324611663818359375">
        <ele>1073.5999755859375</ele>
        <time>2020-08-21T09:46:27.000Z</time>
      </trkpt>
      <trkpt lat="42.9726429283618927001953125" lon="-1.11738455481827259063720703125">
        <ele>1072.800048828125</ele>
        <time>2020-08-21T09:46:29.000Z</time>
      </trkpt>
      <trkpt lat="42.972708307206630706787109375" lon="-1.11741120927035808563232421875">
        <ele>1072.199951171875</ele>
        <time>2020-08-21T09:46:30.000Z</time>
      </trkpt>
      <trkpt lat="42.972835712134838104248046875" lon="-1.117498464882373809814453125">
        <ele>1071.4000244140625</ele>
        <time>2020-08-21T09:46:32.000Z</time>
      </trkpt>
      <trkpt lat="42.9728972353041172027587890625" lon="-1.117550432682037353515625">
        <ele>1071.199951171875</ele>
        <time>2020-08-21T09:46:33.000Z</time>
      </trkpt>
      <trkpt lat="42.97320225276052951812744140625" lon="-1.11785687506198883056640625">
        <ele>1069.800048828125</ele>
        <time>2020-08-21T09:46:38.000Z</time>
      </trkpt>
      <trkpt lat="42.97325841151177883148193359375" lon="-1.11791999079287052154541015625">
        <ele>1069.4000244140625</ele>
        <time>2020-08-21T09:46:39.000Z</time>
      </trkpt>
      <trkpt lat="42.97331825830042362213134765625" lon="-1.11797631718218326568603515625">
        <ele>1069</ele>
        <time>2020-08-21T09:46:40.000Z</time>
      </trkpt>
      <trkpt lat="42.97337944619357585906982421875" lon="-1.11801755614578723907470703125">
        <ele>1068.5999755859375</ele>
        <time>2020-08-21T09:46:41.000Z</time>
      </trkpt>
      <trkpt lat="42.97344214282929897308349609375" lon="-1.1180421151220798492431640625">
        <ele>1068.199951171875</ele>
        <time>2020-08-21T09:46:42.000Z</time>
      </trkpt>
      <trkpt lat="42.9735922627151012420654296875" lon="-1.118057034909725189208984375">
        <ele>1067</ele>
        <time>2020-08-21T09:46:44.000Z</time>
      </trkpt>
      <trkpt lat="42.973673231899738311767578125" lon="-1.1180506646633148193359375">
        <ele>1066.800048828125</ele>
        <time>2020-08-21T09:46:45.000Z</time>
      </trkpt>
      <trkpt lat="42.9738323204219341278076171875" lon="-1.11799794249236583709716796875">
        <ele>1065.800048828125</ele>
        <time>2020-08-21T09:46:47.000Z</time>
      </trkpt>
      <trkpt lat="42.97398579306900501251220703125" lon="-1.11789216287434101104736328125">
        <ele>1065</ele>
        <time>2020-08-21T09:46:49.000Z</time>
      </trkpt>
      <trkpt lat="42.97405888326466083526611328125" lon="-1.11782896332442760467529296875">
        <ele>1064.800048828125</ele>
        <time>2020-08-21T09:46:50.000Z</time>
      </trkpt>
      <trkpt lat="42.97426826320588588714599609375" lon="-1.11761639825999736785888671875">
        <ele>1063.5999755859375</ele>
        <time>2020-08-21T09:46:53.000Z</time>
      </trkpt>
      <trkpt lat="42.97434437088668346405029296875" lon="-1.1175475828349590301513671875">
        <ele>1063.199951171875</ele>
        <time>2020-08-21T09:46:54.000Z</time>
      </trkpt>
      <trkpt lat="42.97456967644393444061279296875" lon="-1.117320768535137176513671875">
        <ele>1062.199951171875</ele>
        <time>2020-08-21T09:46:57.000Z</time>
      </trkpt>
      <trkpt lat="42.9746983386576175689697265625" lon="-1.117151118814945220947265625">
        <ele>1060.800048828125</ele>
        <time>2020-08-21T09:46:59.000Z</time>
      </trkpt>
      <trkpt lat="42.9748746939003467559814453125" lon="-1.11690242774784564971923828125">
        <ele>1059.199951171875</ele>
        <time>2020-08-21T09:47:02.000Z</time>
      </trkpt>
      <trkpt lat="42.97494501806795597076416015625" lon="-1.1168384738266468048095703125">
        <ele>1058.4000244140625</ele>
        <time>2020-08-21T09:47:03.000Z</time>
      </trkpt>
      <trkpt lat="42.975021041929721832275390625" lon="-1.11679044552147388458251953125">
        <ele>1058</ele>
        <time>2020-08-21T09:47:04.000Z</time>
      </trkpt>
      <trkpt lat="42.97518306411802768707275390625" lon="-1.11673571169376373291015625">
        <ele>1057.4000244140625</ele>
        <time>2020-08-21T09:47:06.000Z</time>
      </trkpt>
      <trkpt lat="42.975347936153411865234375" lon="-1.11668449826538562774658203125">
        <ele>1056.4000244140625</ele>
        <time>2020-08-21T09:47:08.000Z</time>
      </trkpt>
      <trkpt lat="42.97550291754305362701416015625" lon="-1.1166049540042877197265625">
        <ele>1055.4000244140625</ele>
        <time>2020-08-21T09:47:10.000Z</time>
      </trkpt>
      <trkpt lat="42.97557198442518711090087890625" lon="-1.11655591987073421478271484375">
        <ele>1055</ele>
        <time>2020-08-21T09:47:11.000Z</time>
      </trkpt>
      <trkpt lat="42.9756344296038150787353515625" lon="-1.11650395207107067108154296875">
        <ele>1054.4000244140625</ele>
        <time>2020-08-21T09:47:12.000Z</time>
      </trkpt>
      <trkpt lat="42.9757423885166645050048828125" lon="-1.11637839116156101226806640625">
        <ele>1053.4000244140625</ele>
        <time>2020-08-21T09:47:14.000Z</time>
      </trkpt>
      <trkpt lat="42.9757802747189998626708984375" lon="-1.11630312167108058929443359375">
        <ele>1053.199951171875</ele>
        <time>2020-08-21T09:47:15.000Z</time>
      </trkpt>
      <trkpt lat="42.97593056224286556243896484375" lon="-1.11614688299596309661865234375">
        <ele>1052.4000244140625</ele>
        <time>2020-08-21T09:47:18.000Z</time>
      </trkpt>
      <trkpt lat="42.975991331040859222412109375" lon="-1.1161350645124912261962890625">
        <ele>1052</ele>
        <time>2020-08-21T09:47:19.000Z</time>
      </trkpt>
      <trkpt lat="42.97613122500479221343994140625" lon="-1.1161535046994686126708984375">
        <ele>1051</ele>
        <time>2020-08-21T09:47:21.000Z</time>
      </trkpt>
      <trkpt lat="42.97620649449527263641357421875" lon="-1.1161622218787670135498046875">
        <ele>1050.800048828125</ele>
        <time>2020-08-21T09:47:22.000Z</time>
      </trkpt>
      <trkpt lat="42.97649382613599300384521484375" lon="-1.1161397583782672882080078125">
        <ele>1049.5999755859375</ele>
        <time>2020-08-21T09:47:26.000Z</time>
      </trkpt>
      <trkpt lat="42.97687344253063201904296875" lon="-1.1160649918019771575927734375">
        <ele>1048.800048828125</ele>
        <time>2020-08-21T09:47:31.000Z</time>
      </trkpt>
      <trkpt lat="42.97695265151560306549072265625" lon="-1.116055436432361602783203125">
        <ele>1048.199951171875</ele>
        <time>2020-08-21T09:47:32.000Z</time>
      </trkpt>
      <trkpt lat="42.97719254158437252044677734375" lon="-1.11604764126241207122802734375">
        <ele>1047</ele>
        <time>2020-08-21T09:47:35.000Z</time>
      </trkpt>
      <trkpt lat="42.977276779711246490478515625" lon="-1.1160401813685894012451171875">
        <ele>1046.5999755859375</ele>
        <time>2020-08-21T09:47:36.000Z</time>
      </trkpt>
      <trkpt lat="42.9774482734501361846923828125" lon="-1.116021238267421722412109375">
        <ele>1045.5999755859375</ele>
        <time>2020-08-21T09:47:38.000Z</time>
      </trkpt>
      <trkpt lat="42.97762353904545307159423828125" lon="-1.11597907729446887969970703125">
        <ele>1044.199951171875</ele>
        <time>2020-08-21T09:47:40.000Z</time>
      </trkpt>
      <trkpt lat="42.9777118004858493804931640625" lon="-1.1159489862620830535888671875">
        <ele>1043.5999755859375</ele>
        <time>2020-08-21T09:47:41.000Z</time>
      </trkpt>
      <trkpt lat="42.97780106775462627410888671875" lon="-1.11591487191617488861083984375">
        <ele>1043</ele>
        <time>2020-08-21T09:47:42.000Z</time>
      </trkpt>
      <trkpt lat="42.9779850505292415618896484375" lon="-1.11584580503404140472412109375">
        <ele>1042</ele>
        <time>2020-08-21T09:47:44.000Z</time>
      </trkpt>
      <trkpt lat="42.978174649178981781005859375" lon="-1.11577606759965419769287109375">
        <ele>1040.4000244140625</ele>
        <time>2020-08-21T09:47:46.000Z</time>
      </trkpt>
      <trkpt lat="42.97826810739934444427490234375" lon="-1.1157437972724437713623046875">
        <ele>1039.800048828125</ele>
        <time>2020-08-21T09:47:47.000Z</time>
      </trkpt>
      <trkpt lat="42.97836315818130970001220703125" lon="-1.11571513116359710693359375">
        <ele>1039</ele>
        <time>2020-08-21T09:47:48.000Z</time>
      </trkpt>
      <trkpt lat="42.97845401801168918609619140625" lon="-1.11568151973187923431396484375">
        <ele>1038.4000244140625</ele>
        <time>2020-08-21T09:47:49.000Z</time>
      </trkpt>
      <trkpt lat="42.978547476232051849365234375" lon="-1.1156428791582584381103515625">
        <ele>1037.4000244140625</ele>
        <time>2020-08-21T09:47:50.000Z</time>
      </trkpt>
      <trkpt lat="42.97863900661468505859375" lon="-1.11559619195759296417236328125">
        <ele>1036.4000244140625</ele>
        <time>2020-08-21T09:47:51.000Z</time>
      </trkpt>
      <trkpt lat="42.97881846316158771514892578125" lon="-1.11550549976527690887451171875">
        <ele>1035.199951171875</ele>
        <time>2020-08-21T09:47:53.000Z</time>
      </trkpt>
      <trkpt lat="42.97898710705339908599853515625" lon="-1.11544934101402759552001953125">
        <ele>1034</ele>
        <time>2020-08-21T09:47:55.000Z</time>
      </trkpt>
      <trkpt lat="42.97906053252518177032470703125" lon="-1.1154234409332275390625">
        <ele>1033.4000244140625</ele>
        <time>2020-08-21T09:47:56.000Z</time>
      </trkpt>
      <trkpt lat="42.9791273362934589385986328125" lon="-1.1153934337198734283447265625">
        <ele>1032.5999755859375</ele>
        <time>2020-08-21T09:47:57.000Z</time>
      </trkpt>
      <trkpt lat="42.979182489216327667236328125" lon="-1.11534942872822284698486328125">
        <ele>1031.199951171875</ele>
        <time>2020-08-21T09:47:58.000Z</time>
      </trkpt>
      <trkpt lat="42.97922573983669281005859375" lon="-1.11529628746211528778076171875">
        <ele>1030.800048828125</ele>
        <time>2020-08-21T09:47:59.000Z</time>
      </trkpt>
      <trkpt lat="42.9792691580951213836669921875" lon="-1.1151587404310703277587890625">
        <ele>1030.199951171875</ele>
        <time>2020-08-21T09:48:01.000Z</time>
      </trkpt>
      <trkpt lat="42.97926806844770908355712890625" lon="-1.115090511739253997802734375">
        <ele>1029.800048828125</ele>
        <time>2020-08-21T09:48:02.000Z</time>
      </trkpt>
      <trkpt lat="42.979227416217327117919921875" lon="-1.11493217758834362030029296875">
        <ele>1029</ele>
        <time>2020-08-21T09:48:04.000Z</time>
      </trkpt>
      <trkpt lat="42.9791980795562267303466796875" lon="-1.1148454248905181884765625">
        <ele>1028.5999755859375</ele>
        <time>2020-08-21T09:48:05.000Z</time>
      </trkpt>
      <trkpt lat="42.97916849143803119659423828125" lon="-1.11475649289786815643310546875">
        <ele>1028</ele>
        <time>2020-08-21T09:48:06.000Z</time>
      </trkpt>
      <trkpt lat="42.9790760390460491180419921875" lon="-1.1144781298935413360595703125">
        <ele>1027</ele>
        <time>2020-08-21T09:48:09.000Z</time>
      </trkpt>
      <trkpt lat="42.9789955727756023406982421875" lon="-1.11420638859272003173828125">
        <ele>1025.5999755859375</ele>
        <time>2020-08-21T09:48:12.000Z</time>
      </trkpt>
      <trkpt lat="42.9789506457746028900146484375" lon="-1.11403263173997402191162109375">
        <ele>1024.5999755859375</ele>
        <time>2020-08-21T09:48:14.000Z</time>
      </trkpt>
      <trkpt lat="42.978937737643718719482421875" lon="-1.11394830979406833648681640625">
        <ele>1024</ele>
        <time>2020-08-21T09:48:15.000Z</time>
      </trkpt>
      <trkpt lat="42.97893874347209930419921875" lon="-1.11386365257203578948974609375">
        <ele>1023.79998779296875</ele>
        <time>2020-08-21T09:48:16.000Z</time>
      </trkpt>
      <trkpt lat="42.97895357944071292877197265625" lon="-1.113786287605762481689453125">
        <ele>1023.4000244140625</ele>
        <time>2020-08-21T09:48:17.000Z</time>
      </trkpt>
      <trkpt lat="42.979028932750225067138671875" lon="-1.11367137171328067779541015625">
        <ele>1023</ele>
        <time>2020-08-21T09:48:19.000Z</time>
      </trkpt>
      <trkpt lat="42.97919011674821376800537109375" lon="-1.11361001618206501007080078125">
        <ele>1022.4000244140625</ele>
        <time>2020-08-21T09:48:23.000Z</time>
      </trkpt>
      <trkpt lat="42.979233451187610626220703125" lon="-1.11360490322113037109375">
        <ele>1022</ele>
        <time>2020-08-21T09:48:24.000Z</time>
      </trkpt>
      <trkpt lat="42.97928215004503726959228515625" lon="-1.11360381357371807098388671875">
        <ele>1021.79998779296875</ele>
        <time>2020-08-21T09:48:25.000Z</time>
      </trkpt>
      <trkpt lat="42.97937854193150997161865234375" lon="-1.11361026763916015625">
        <ele>1021.5999755859375</ele>
        <time>2020-08-21T09:48:27.000Z</time>
      </trkpt>
      <trkpt lat="42.97947593964636325836181640625" lon="-1.113613955676555633544921875">
        <ele>1021.20001220703125</ele>
        <time>2020-08-21T09:48:29.000Z</time>
      </trkpt>
      <trkpt lat="42.97961725853383541107177734375" lon="-1.1136131174862384796142578125">
        <ele>1020.4000244140625</ele>
        <time>2020-08-21T09:48:32.000Z</time>
      </trkpt>
      <trkpt lat="42.97966654412448406219482421875" lon="-1.11360029317438602447509765625">
        <ele>1020.20001220703125</ele>
        <time>2020-08-21T09:48:33.000Z</time>
      </trkpt>
      <trkpt lat="42.979712896049022674560546875" lon="-1.11358403228223323822021484375">
        <ele>1020.20001220703125</ele>
        <time>2020-08-21T09:48:34.000Z</time>
      </trkpt>
      <trkpt lat="42.97975958324968814849853515625" lon="-1.11356324516236782073974609375">
        <ele>1020</ele>
        <time>2020-08-21T09:48:35.000Z</time>
      </trkpt>
      <trkpt lat="42.979889251291751861572265625" lon="-1.11347682774066925048828125">
        <ele>1019.20001220703125</ele>
        <time>2020-08-21T09:48:38.000Z</time>
      </trkpt>
      <trkpt lat="42.97992789186537265777587890625" lon="-1.1134381033480167388916015625">
        <ele>1019</ele>
        <time>2020-08-21T09:48:39.000Z</time>
      </trkpt>
      <trkpt lat="42.98000852577388286590576171875" lon="-1.11335453577339649200439453125">
        <ele>1018.5999755859375</ele>
        <time>2020-08-21T09:48:41.000Z</time>
      </trkpt>
      <trkpt lat="42.980052195489406585693359375" lon="-1.11330944113433361053466796875">
        <ele>1018.4000244140625</ele>
        <time>2020-08-21T09:48:42.000Z</time>
      </trkpt>
      <trkpt lat="42.9800932668149471282958984375" lon="-1.11326065845787525177001953125">
        <ele>1018.20001220703125</ele>
        <time>2020-08-21T09:48:43.000Z</time>
      </trkpt>
      <trkpt lat="42.98012964427471160888671875" lon="-1.1132081039249897003173828125">
        <ele>1018.20001220703125</ele>
        <time>2020-08-21T09:48:44.000Z</time>
      </trkpt>
      <trkpt lat="42.980188988149166107177734375" lon="-1.11309461295604705810546875">
        <ele>1017.20001220703125</ele>
        <time>2020-08-21T09:48:46.000Z</time>
      </trkpt>
      <trkpt lat="42.98021069727838039398193359375" lon="-1.1130337603390216827392578125">
        <ele>1017</ele>
        <time>2020-08-21T09:48:47.000Z</time>
      </trkpt>
      <trkpt lat="42.9802330769598484039306640625" lon="-1.11296712420880794525146484375">
        <ele>1016.79998779296875</ele>
        <time>2020-08-21T09:48:48.000Z</time>
      </trkpt>
      <trkpt lat="42.98027104698121547698974609375" lon="-1.112834103405475616455078125">
        <ele>1016.4000244140625</ele>
        <time>2020-08-21T09:48:50.000Z</time>
      </trkpt>
      <trkpt lat="42.9802818596363067626953125" lon="-1.11276897601783275604248046875">
        <ele>1016</ele>
        <time>2020-08-21T09:48:51.000Z</time>
      </trkpt>
      <trkpt lat="42.98030189238488674163818359375" lon="-1.1127038486301898956298828125">
        <ele>1015.5999755859375</ele>
        <time>2020-08-21T09:48:52.000Z</time>
      </trkpt>
      <trkpt lat="42.98034019768238067626953125" lon="-1.11257049255073070526123046875">
        <ele>1014.5999755859375</ele>
        <time>2020-08-21T09:48:54.000Z</time>
      </trkpt>
      <trkpt lat="42.98040884546935558319091796875" lon="-1.1122837476432323455810546875">
        <ele>1013.5999755859375</ele>
        <time>2020-08-21T09:48:58.000Z</time>
      </trkpt>
      <trkpt lat="42.9804590530693531036376953125" lon="-1.11206439323723316192626953125">
        <ele>1012.4000244140625</ele>
        <time>2020-08-21T09:49:01.000Z</time>
      </trkpt>
      <trkpt lat="42.980502136051654815673828125" lon="-1.11182567663490772247314453125">
        <ele>1011.5999755859375</ele>
        <time>2020-08-21T09:49:04.000Z</time>
      </trkpt>
      <trkpt lat="42.980534993112087249755859375" lon="-1.11165703274309635162353515625">
        <ele>1010.79998779296875</ele>
        <time>2020-08-21T09:49:06.000Z</time>
      </trkpt>
      <trkpt lat="42.98056994564831256866455078125" lon="-1.11148838885128498077392578125">
        <ele>1009.5999755859375</ele>
        <time>2020-08-21T09:49:08.000Z</time>
      </trkpt>
      <trkpt lat="42.9806385934352874755859375" lon="-1.11122779548168182373046875">
        <ele>1008.4000244140625</ele>
        <time>2020-08-21T09:49:11.000Z</time>
      </trkpt>
      <trkpt lat="42.98072232864797115325927734375" lon="-1.1109615862369537353515625">
        <ele>1007.4000244140625</ele>
        <time>2020-08-21T09:49:14.000Z</time>
      </trkpt>
      <trkpt lat="42.9807799123227596282958984375" lon="-1.11078129149973392486572265625">
        <ele>1006.4000244140625</ele>
        <time>2020-08-21T09:49:16.000Z</time>
      </trkpt>
      <trkpt lat="42.98080262728035449981689453125" lon="-1.11069076694548130035400390625">
        <ele>1006</ele>
        <time>2020-08-21T09:49:17.000Z</time>
      </trkpt>
      <trkpt lat="42.98085627146065235137939453125" lon="-1.1104256473481655120849609375">
        <ele>1004.5999755859375</ele>
        <time>2020-08-21T09:49:20.000Z</time>
      </trkpt>
      <trkpt lat="42.9808734543621540069580078125" lon="-1.11033822409808635711669921875">
        <ele>1004.20001220703125</ele>
        <time>2020-08-21T09:49:21.000Z</time>
      </trkpt>
      <trkpt lat="42.9808962531387805938720703125" lon="-1.1102513037621974945068359375">
        <ele>1003.5999755859375</ele>
        <time>2020-08-21T09:49:22.000Z</time>
      </trkpt>
      <trkpt lat="42.9809197224676609039306640625" lon="-1.11016522161662578582763671875">
        <ele>1003.4000244140625</ele>
        <time>2020-08-21T09:49:23.000Z</time>
      </trkpt>
      <trkpt lat="42.9809524118900299072265625" lon="-1.1100816540420055389404296875">
        <ele>1003</ele>
        <time>2020-08-21T09:49:24.000Z</time>
      </trkpt>
      <trkpt lat="42.9809851013123989105224609375" lon="-1.11000311560928821563720703125">
        <ele>1002.5999755859375</ele>
        <time>2020-08-21T09:49:25.000Z</time>
      </trkpt>
      <trkpt lat="42.9810115881264209747314453125" lon="-1.10992952249944210052490234375">
        <ele>1002.20001220703125</ele>
        <time>2020-08-21T09:49:26.000Z</time>
      </trkpt>
      <trkpt lat="42.9810420982539653778076171875" lon="-1.10985760577023029327392578125">
        <ele>1002</ele>
        <time>2020-08-21T09:49:27.000Z</time>
      </trkpt>
      <trkpt lat="42.981090880930423736572265625" lon="-1.10971645452082157135009765625">
        <ele>1001.4000244140625</ele>
        <time>2020-08-21T09:49:29.000Z</time>
      </trkpt>
      <trkpt lat="42.9811306111514568328857421875" lon="-1.1095834337174892425537109375">
        <ele>1001.20001220703125</ele>
        <time>2020-08-21T09:49:31.000Z</time>
      </trkpt>
      <trkpt lat="42.98119825311005115509033203125" lon="-1.1093819327652454376220703125">
        <ele>1000</ele>
        <time>2020-08-21T09:49:34.000Z</time>
      </trkpt>
      <trkpt lat="42.9813599400222301483154296875" lon="-1.1089105345308780670166015625">
        <ele>999.20001220703125</ele>
        <time>2020-08-21T09:49:41.000Z</time>
      </trkpt>
      <trkpt lat="42.981370501220226287841796875" lon="-1.108838282525539398193359375">
        <ele>998.79998779296875</ele>
        <time>2020-08-21T09:49:42.000Z</time>
      </trkpt>
      <trkpt lat="42.9813708364963531494140625" lon="-1.10859780572354793548583984375">
        <ele>998</ele>
        <time>2020-08-21T09:49:45.000Z</time>
      </trkpt>
      <trkpt lat="42.98138617537915706634521484375" lon="-1.1085192672908306121826171875">
        <ele>997.5999755859375</ele>
        <time>2020-08-21T09:49:46.000Z</time>
      </trkpt>
      <trkpt lat="42.98145473934710025787353515625" lon="-1.10838104970753192901611328125">
        <ele>997.20001220703125</ele>
        <time>2020-08-21T09:49:48.000Z</time>
      </trkpt>
      <trkpt lat="42.98157610930502414703369140625" lon="-1.1082721687853336334228515625">
        <ele>996.4000244140625</ele>
        <time>2020-08-21T09:49:50.000Z</time>
      </trkpt>
      <trkpt lat="42.981641404330730438232421875" lon="-1.10823453404009342193603515625">
        <ele>996</ele>
        <time>2020-08-21T09:49:51.000Z</time>
      </trkpt>
      <trkpt lat="42.981705106794834136962890625" lon="-1.1082000844180583953857421875">
        <ele>995.5999755859375</ele>
        <time>2020-08-21T09:49:52.000Z</time>
      </trkpt>
      <trkpt lat="42.9817709885537624359130859375" lon="-1.10816664062440395355224609375">
        <ele>995.20001220703125</ele>
        <time>2020-08-21T09:49:53.000Z</time>
      </trkpt>
      <trkpt lat="42.98196695744991302490234375" lon="-1.10806672833859920501708984375">
        <ele>994.5999755859375</ele>
        <time>2020-08-21T09:49:56.000Z</time>
      </trkpt>
      <trkpt lat="42.98203242011368274688720703125" lon="-1.1080200411379337310791015625">
        <ele>994.20001220703125</ele>
        <time>2020-08-21T09:49:57.000Z</time>
      </trkpt>
      <trkpt lat="42.98210970126092433929443359375" lon="-1.10796581022441387176513671875">
        <ele>993.79998779296875</ele>
        <time>2020-08-21T09:49:58.000Z</time>
      </trkpt>
      <trkpt lat="42.98232746310532093048095703125" lon="-1.10777604393661022186279296875">
        <ele>992.5999755859375</ele>
        <time>2020-08-21T09:50:01.000Z</time>
      </trkpt>
      <trkpt lat="42.98239736817777156829833984375" lon="-1.10770404338836669921875">
        <ele>992</ele>
        <time>2020-08-21T09:50:02.000Z</time>
      </trkpt>
      <trkpt lat="42.98246542923152446746826171875" lon="-1.10762768425047397613525390625">
        <ele>991.79998779296875</ele>
        <time>2020-08-21T09:50:03.000Z</time>
      </trkpt>
      <trkpt lat="42.98259819857776165008544921875" lon="-1.10745736397802829742431640625">
        <ele>991</ele>
        <time>2020-08-21T09:50:05.000Z</time>
      </trkpt>
      <trkpt lat="42.98266592435538768768310546875" lon="-1.10736516304314136505126953125">
        <ele>990</ele>
        <time>2020-08-21T09:50:06.000Z</time>
      </trkpt>
      <trkpt lat="42.9827939160168170928955078125" lon="-1.1071714572608470916748046875">
        <ele>988.5999755859375</ele>
        <time>2020-08-21T09:50:08.000Z</time>
      </trkpt>
      <trkpt lat="42.9829216562211513519287109375" lon="-1.1069914139807224273681640625">
        <ele>987.4000244140625</ele>
        <time>2020-08-21T09:50:10.000Z</time>
      </trkpt>
      <trkpt lat="42.98298351466655731201171875" lon="-1.10691270790994167327880859375">
        <ele>987.20001220703125</ele>
        <time>2020-08-21T09:50:11.000Z</time>
      </trkpt>
      <trkpt lat="42.9830537550151348114013671875" lon="-1.10684883780777454376220703125">
        <ele>987</ele>
        <time>2020-08-21T09:50:12.000Z</time>
      </trkpt>
      <trkpt lat="42.98320823349058628082275390625" lon="-1.10677063465118408203125">
        <ele>985.79998779296875</ele>
        <time>2020-08-21T09:50:14.000Z</time>
      </trkpt>
      <trkpt lat="42.9834678210318088531494140625" lon="-1.10670869238674640655517578125">
        <ele>984.5999755859375</ele>
        <time>2020-08-21T09:50:17.000Z</time>
      </trkpt>
      <trkpt lat="42.9835489578545093536376953125" lon="-1.1066792719066143035888671875">
        <ele>984.20001220703125</ele>
        <time>2020-08-21T09:50:18.000Z</time>
      </trkpt>
      <trkpt lat="42.98362883739173412322998046875" lon="-1.1066417209804058074951171875">
        <ele>983.5999755859375</ele>
        <time>2020-08-21T09:50:19.000Z</time>
      </trkpt>
      <trkpt lat="42.9837043583393096923828125" lon="-1.106595285236835479736328125">
        <ele>983.4000244140625</ele>
        <time>2020-08-21T09:50:20.000Z</time>
      </trkpt>
      <trkpt lat="42.98390979878604412078857421875" lon="-1.10642756335437297821044921875">
        <ele>982</ele>
        <time>2020-08-21T09:50:23.000Z</time>
      </trkpt>
      <trkpt lat="42.98410736024379730224609375" lon="-1.10619672574102878570556640625">
        <ele>980.79998779296875</ele>
        <time>2020-08-21T09:50:26.000Z</time>
      </trkpt>
      <trkpt lat="42.9841688834130764007568359375" lon="-1.10610418953001499176025390625">
        <ele>980</ele>
        <time>2020-08-21T09:50:27.000Z</time>
      </trkpt>
      <trkpt lat="42.98422730527818202972412109375" lon="-1.10600260086357593536376953125">
        <ele>979.5999755859375</ele>
        <time>2020-08-21T09:50:28.000Z</time>
      </trkpt>
      <trkpt lat="42.98435169272124767303466796875" lon="-1.10579707659780979156494140625">
        <ele>978.5999755859375</ele>
        <time>2020-08-21T09:50:30.000Z</time>
      </trkpt>
      <trkpt lat="42.9844124615192413330078125" lon="-1.1056905426084995269775390625">
        <ele>977.5999755859375</ele>
        <time>2020-08-21T09:50:31.000Z</time>
      </trkpt>
      <trkpt lat="42.98447482287883758544921875" lon="-1.1055802367627620697021484375">
        <ele>976.5999755859375</ele>
        <time>2020-08-21T09:50:32.000Z</time>
      </trkpt>
      <trkpt lat="42.984596192836761474609375" lon="-1.1053676716983318328857421875">
        <ele>975</ele>
        <time>2020-08-21T09:50:34.000Z</time>
      </trkpt>
      <trkpt lat="42.9847619868814945220947265625" lon="-1.1050669290125370025634765625">
        <ele>973.79998779296875</ele>
        <time>2020-08-21T09:50:37.000Z</time>
      </trkpt>
      <trkpt lat="42.98480716533958911895751953125" lon="-1.10496827401220798492431640625">
        <ele>973.4000244140625</ele>
        <time>2020-08-21T09:50:38.000Z</time>
      </trkpt>
      <trkpt lat="42.984880506992340087890625" lon="-1.1047702096402645111083984375">
        <ele>972.5999755859375</ele>
        <time>2020-08-21T09:50:40.000Z</time>
      </trkpt>
      <trkpt lat="42.9849386774003505706787109375" lon="-1.104576252400875091552734375">
        <ele>971.4000244140625</ele>
        <time>2020-08-21T09:50:42.000Z</time>
      </trkpt>
      <trkpt lat="42.98496432602405548095703125" lon="-1.1044825427234172821044921875">
        <ele>971</ele>
        <time>2020-08-21T09:50:43.000Z</time>
      </trkpt>
      <trkpt lat="42.9850463010370731353759765625" lon="-1.10422580502927303314208984375">
        <ele>970.5999755859375</ele>
        <time>2020-08-21T09:50:46.000Z</time>
      </trkpt>
      <trkpt lat="42.98508242703974246978759765625" lon="-1.10417065210640430450439453125">
        <ele>970.5999755859375</ele>
        <time>2020-08-21T09:50:47.000Z</time>
      </trkpt>
      <trkpt lat="42.985126934945583343505859375" lon="-1.10413209535181522369384765625">
        <ele>970.4000244140625</ele>
        <time>2020-08-21T09:50:48.000Z</time>
      </trkpt>
      <trkpt lat="42.9852280206978321075439453125" lon="-1.10412673093378543853759765625">
        <ele>970</ele>
        <time>2020-08-21T09:50:50.000Z</time>
      </trkpt>
      <trkpt lat="42.98531393520534038543701171875" lon="-1.1042146570980548858642578125">
        <ele>969</ele>
        <time>2020-08-21T09:50:52.000Z</time>
      </trkpt>
      <trkpt lat="42.9853406734764575958251953125" lon="-1.1042855679988861083984375">
        <ele>968.5999755859375</ele>
        <time>2020-08-21T09:50:53.000Z</time>
      </trkpt>
      <trkpt lat="42.98536472953855991363525390625" lon="-1.1043655313551425933837890625">
        <ele>967.79998779296875</ele>
        <time>2020-08-21T09:50:54.000Z</time>
      </trkpt>
      <trkpt lat="42.98540496267378330230712890625" lon="-1.104641966521739959716796875">
        <ele>966.79998779296875</ele>
        <time>2020-08-21T09:50:57.000Z</time>
      </trkpt>
      <trkpt lat="42.98540865071117877960205078125" lon="-1.1047464050352573394775390625">
        <ele>966.20001220703125</ele>
        <time>2020-08-21T09:50:58.000Z</time>
      </trkpt>
      <trkpt lat="42.98541233874857425689697265625" lon="-1.104850508272647857666015625">
        <ele>965.5999755859375</ele>
        <time>2020-08-21T09:50:59.000Z</time>
      </trkpt>
      <trkpt lat="42.985411249101161956787109375" lon="-1.10517933033406734466552734375">
        <ele>964.20001220703125</ele>
        <time>2020-08-21T09:51:02.000Z</time>
      </trkpt>
      <trkpt lat="42.98540077172219753265380859375" lon="-1.1052913963794708251953125">
        <ele>963.79998779296875</ele>
        <time>2020-08-21T09:51:03.000Z</time>
      </trkpt>
      <trkpt lat="42.98537847585976123809814453125" lon="-1.10540111549198627471923828125">
        <ele>963.20001220703125</ele>
        <time>2020-08-21T09:51:04.000Z</time>
      </trkpt>
      <trkpt lat="42.9852923937141895294189453125" lon="-1.10559373162686824798583984375">
        <ele>961.5999755859375</ele>
        <time>2020-08-21T09:51:06.000Z</time>
      </trkpt>
      <trkpt lat="42.98518300987780094146728515625" lon="-1.10577980987727642059326171875">
        <ele>960.5999755859375</ele>
        <time>2020-08-21T09:51:08.000Z</time>
      </trkpt>
      <trkpt lat="42.985075302422046661376953125" lon="-1.10598265193402767181396484375">
        <ele>959</ele>
        <time>2020-08-21T09:51:10.000Z</time>
      </trkpt>
      <trkpt lat="42.98502895049750804901123046875" lon="-1.10609329305589199066162109375">
        <ele>958.5999755859375</ele>
        <time>2020-08-21T09:51:11.000Z</time>
      </trkpt>
      <trkpt lat="42.9849366657435894012451171875" lon="-1.10631055198609828948974609375">
        <ele>957.4000244140625</ele>
        <time>2020-08-21T09:51:13.000Z</time>
      </trkpt>
      <trkpt lat="42.98486734740436077117919921875" lon="-1.1065300740301609039306640625">
        <ele>956.20001220703125</ele>
        <time>2020-08-21T09:51:15.000Z</time>
      </trkpt>
      <trkpt lat="42.9848334006965160369873046875" lon="-1.10663585364818572998046875">
        <ele>955.79998779296875</ele>
        <time>2020-08-21T09:51:16.000Z</time>
      </trkpt>
      <trkpt lat="42.9847435466945171356201171875" lon="-1.10681346617639064788818359375">
        <ele>955</ele>
        <time>2020-08-21T09:51:18.000Z</time>
      </trkpt>
      <trkpt lat="42.98465193249285221099853515625" lon="-1.10696031711995601654052734375">
        <ele>954</ele>
        <time>2020-08-21T09:51:20.000Z</time>
      </trkpt>
      <trkpt lat="42.98461823724210262298583984375" lon="-1.10702334903180599212646484375">
        <ele>953.4000244140625</ele>
        <time>2020-08-21T09:51:21.000Z</time>
      </trkpt>
      <trkpt lat="42.9846030659973621368408203125" lon="-1.10708990134298801422119140625">
        <ele>952.79998779296875</ele>
        <time>2020-08-21T09:51:22.000Z</time>
      </trkpt>
      <trkpt lat="42.98460298217833042144775390625" lon="-1.10716517083346843719482421875">
        <ele>952.4000244140625</ele>
        <time>2020-08-21T09:51:23.000Z</time>
      </trkpt>
      <trkpt lat="42.98466123640537261962890625" lon="-1.10726709477603435516357421875">
        <ele>951.79998779296875</ele>
        <time>2020-08-21T09:51:25.000Z</time>
      </trkpt>
      <trkpt lat="42.98477296717464923858642578125" lon="-1.10723088495433330535888671875">
        <ele>950.4000244140625</ele>
        <time>2020-08-21T09:51:27.000Z</time>
      </trkpt>
      <trkpt lat="42.984868101775646209716796875" lon="-1.10710255801677703857421875">
        <ele>949.4000244140625</ele>
        <time>2020-08-21T09:51:29.000Z</time>
      </trkpt>
      <trkpt lat="42.98490623943507671356201171875" lon="-1.10703022219240665435791015625">
        <ele>948.79998779296875</ele>
        <time>2020-08-21T09:51:30.000Z</time>
      </trkpt>
      <trkpt lat="42.98494798131287097930908203125" lon="-1.10695101320743560791015625">
        <ele>948.20001220703125</ele>
        <time>2020-08-21T09:51:31.000Z</time>
      </trkpt>
      <trkpt lat="42.9850724525749683380126953125" lon="-1.10672344453632831573486328125">
        <ele>946.79998779296875</ele>
        <time>2020-08-21T09:51:34.000Z</time>
      </trkpt>
      <trkpt lat="42.98511830158531665802001953125" lon="-1.10665052197873592376708984375">
        <ele>946.20001220703125</ele>
        <time>2020-08-21T09:51:35.000Z</time>
      </trkpt>
      <trkpt lat="42.98516423441469669342041015625" lon="-1.10657894052565097808837890625">
        <ele>945.4000244140625</ele>
        <time>2020-08-21T09:51:36.000Z</time>
      </trkpt>
      <trkpt lat="42.9852627217769622802734375" lon="-1.10644265078008174896240234375">
        <ele>944.4000244140625</ele>
        <time>2020-08-21T09:51:38.000Z</time>
      </trkpt>
      <trkpt lat="42.98535148613154888153076171875" lon="-1.10631424002349376678466796875">
        <ele>943.20001220703125</ele>
        <time>2020-08-21T09:51:40.000Z</time>
      </trkpt>
      <trkpt lat="42.9853886179625988006591796875" lon="-1.106253974139690399169921875">
        <ele>942.79998779296875</ele>
        <time>2020-08-21T09:51:41.000Z</time>
      </trkpt>
      <trkpt lat="42.9854318685829639434814453125" lon="-1.10620401799678802490234375">
        <ele>942.4000244140625</ele>
        <time>2020-08-21T09:51:42.000Z</time>
      </trkpt>
      <trkpt lat="42.98547687940299510955810546875" lon="-1.1061684787273406982421875">
        <ele>942</ele>
        <time>2020-08-21T09:51:43.000Z</time>
      </trkpt>
      <trkpt lat="42.98552817665040493011474609375" lon="-1.10614526085555553436279296875">
        <ele>941.79998779296875</ele>
        <time>2020-08-21T09:51:44.000Z</time>
      </trkpt>
      <trkpt lat="42.98563026823103427886962890625" lon="-1.10613956116139888763427734375">
        <ele>940.79998779296875</ele>
        <time>2020-08-21T09:51:46.000Z</time>
      </trkpt>
      <trkpt lat="42.9857560805976390838623046875" lon="-1.1061711609363555908203125">
        <ele>940.20001220703125</ele>
        <time>2020-08-21T09:51:48.000Z</time>
      </trkpt>
      <trkpt lat="42.98587904311716556549072265625" lon="-1.10619890503585338592529296875">
        <ele>939.20001220703125</ele>
        <time>2020-08-21T09:51:50.000Z</time>
      </trkpt>
      <trkpt lat="42.985973842442035675048828125" lon="-1.1062219552695751190185546875">
        <ele>938.5999755859375</ele>
        <time>2020-08-21T09:51:52.000Z</time>
      </trkpt>
      <trkpt lat="42.9860132373869419097900390625" lon="-1.10622991807758808135986328125">
        <ele>938.20001220703125</ele>
        <time>2020-08-21T09:51:53.000Z</time>
      </trkpt>
      <trkpt lat="42.9860722459852695465087890625" lon="-1.10622958280146121978759765625">
        <ele>937.5999755859375</ele>
        <time>2020-08-21T09:51:56.000Z</time>
      </trkpt>
      <trkpt lat="42.98607819713652133941650390625" lon="-1.10623377375304698944091796875">
        <ele>937</ele>
        <time>2020-08-21T09:51:58.000Z</time>
      </trkpt>
      <trkpt lat="42.9860849864780902862548828125" lon="-1.10623997636139392852783203125">
        <ele>936.5999755859375</ele>
        <time>2020-08-21T09:52:08.000Z</time>
      </trkpt>
      <trkpt lat="42.98608942888677120208740234375" lon="-1.1062346957623958587646484375">
        <ele>936.4000244140625</ele>
        <time>2020-08-21T09:52:31.000Z</time>
      </trkpt>
      <trkpt lat="42.9860937036573886871337890625" lon="-1.10623276792466640472412109375">
        <ele>936.4000244140625</ele>
        <time>2020-08-21T09:52:36.000Z</time>
      </trkpt>
      <trkpt lat="42.98609227873384952545166015625" lon="-1.1062326841056346893310546875">
        <ele>936.5999755859375</ele>
        <time>2020-08-21T09:52:46.000Z</time>
      </trkpt>
      <trkpt lat="42.9860923625528812408447265625" lon="-1.106229834258556365966796875">
        <ele>936.20001220703125</ele>
        <time>2020-08-21T09:53:19.000Z</time>
      </trkpt>
      <trkpt lat="42.98609219491481781005859375" lon="-1.1062269844114780426025390625">
        <ele>936.4000244140625</ele>
        <time>2020-08-21T09:53:36.000Z</time>
      </trkpt>
      <trkpt lat="42.986132092773914337158203125" lon="-1.10622153617441654205322265625">
        <ele>936.5999755859375</ele>
        <time>2020-08-21T09:53:44.000Z</time>
      </trkpt>
      <trkpt lat="42.986222617328166961669921875" lon="-1.1061790399253368377685546875">
        <ele>936</ele>
        <time>2020-08-21T09:53:48.000Z</time>
      </trkpt>
      <trkpt lat="42.98632018268108367919921875" lon="-1.10609404742717742919921875">
        <ele>935.4000244140625</ele>
        <time>2020-08-21T09:53:51.000Z</time>
      </trkpt>
      <trkpt lat="42.98635262064635753631591796875" lon="-1.106044091284275054931640625">
        <ele>935.20001220703125</ele>
        <time>2020-08-21T09:53:52.000Z</time>
      </trkpt>
      <trkpt lat="42.9864407144486904144287109375" lon="-1.10583663918077945709228515625">
        <ele>934</ele>
        <time>2020-08-21T09:53:55.000Z</time>
      </trkpt>
      <trkpt lat="42.98645370639860630035400390625" lon="-1.105579398572444915771484375">
        <ele>932.4000244140625</ele>
        <time>2020-08-21T09:53:58.000Z</time>
      </trkpt>
      <trkpt lat="42.986446581780910491943359375" lon="-1.1054885387420654296875">
        <ele>931.79998779296875</ele>
        <time>2020-08-21T09:53:59.000Z</time>
      </trkpt>
      <trkpt lat="42.98643426038324832916259765625" lon="-1.10539156012237071990966796875">
        <ele>931.4000244140625</ele>
        <time>2020-08-21T09:54:00.000Z</time>
      </trkpt>
      <trkpt lat="42.98642487265169620513916015625" lon="-1.1052872054278850555419921875">
        <ele>930.79998779296875</ele>
        <time>2020-08-21T09:54:01.000Z</time>
      </trkpt>
      <trkpt lat="42.98642612993717193603515625" lon="-1.10518150962889194488525390625">
        <ele>930.20001220703125</ele>
        <time>2020-08-21T09:54:02.000Z</time>
      </trkpt>
      <trkpt lat="42.98643258400261402130126953125" lon="-1.10508394427597522735595703125">
        <ele>929.5999755859375</ele>
        <time>2020-08-21T09:54:03.000Z</time>
      </trkpt>
      <trkpt lat="42.98645940609276294708251953125" lon="-1.10499568283557891845703125">
        <ele>929.20001220703125</ele>
        <time>2020-08-21T09:54:04.000Z</time>
      </trkpt>
      <trkpt lat="42.98650366254150867462158203125" lon="-1.10491328872740268707275390625">
        <ele>929</ele>
        <time>2020-08-21T09:54:05.000Z</time>
      </trkpt>
      <trkpt lat="42.98659385181963443756103515625" lon="-1.10474380664527416229248046875">
        <ele>927.79998779296875</ele>
        <time>2020-08-21T09:54:07.000Z</time>
      </trkpt>
      <trkpt lat="42.98667959868907928466796875" lon="-1.104480363428592681884765625">
        <ele>926.4000244140625</ele>
        <time>2020-08-21T09:54:10.000Z</time>
      </trkpt>
      <trkpt lat="42.98669242300093173980712890625" lon="-1.10438522882759571075439453125">
        <ele>925.79998779296875</ele>
        <time>2020-08-21T09:54:11.000Z</time>
      </trkpt>
      <trkpt lat="42.98671580851078033447265625" lon="-1.10417903400957584381103515625">
        <ele>925.20001220703125</ele>
        <time>2020-08-21T09:54:13.000Z</time>
      </trkpt>
      <trkpt lat="42.98677305690944194793701171875" lon="-1.1039690673351287841796875">
        <ele>924.20001220703125</ele>
        <time>2020-08-21T09:54:15.000Z</time>
      </trkpt>
      <trkpt lat="42.9868090152740478515625" lon="-1.103860102593898773193359375">
        <ele>923.79998779296875</ele>
        <time>2020-08-21T09:54:16.000Z</time>
      </trkpt>
      <trkpt lat="42.9868842847645282745361328125" lon="-1.103634797036647796630859375">
        <ele>922.79998779296875</ele>
        <time>2020-08-21T09:54:18.000Z</time>
      </trkpt>
      <trkpt lat="42.9870227538049221038818359375" lon="-1.103296168148517608642578125">
        <ele>921.4000244140625</ele>
        <time>2020-08-21T09:54:21.000Z</time>
      </trkpt>
      <trkpt lat="42.9871729575097560882568359375" lon="-1.10298947431147098541259765625">
        <ele>920.5999755859375</ele>
        <time>2020-08-21T09:54:24.000Z</time>
      </trkpt>
      <trkpt lat="42.98720539547502994537353515625" lon="-1.10288050957024097442626953125">
        <ele>920.20001220703125</ele>
        <time>2020-08-21T09:54:25.000Z</time>
      </trkpt>
      <trkpt lat="42.98724210821092128753662109375" lon="-1.10252109356224536895751953125">
        <ele>918.5999755859375</ele>
        <time>2020-08-21T09:54:28.000Z</time>
      </trkpt>
      <trkpt lat="42.98721335828304290771484375" lon="-1.10227684490382671356201171875">
        <ele>917</ele>
        <time>2020-08-21T09:54:30.000Z</time>
      </trkpt>
      <trkpt lat="42.98717807047069072723388671875" lon="-1.10202572308480739593505859375">
        <ele>915.4000244140625</ele>
        <time>2020-08-21T09:54:32.000Z</time>
      </trkpt>
      <trkpt lat="42.9871548525989055633544921875" lon="-1.10189965926110744476318359375">
        <ele>915</ele>
        <time>2020-08-21T09:54:33.000Z</time>
      </trkpt>
      <trkpt lat="42.98712543211877346038818359375" lon="-1.10177761875092983245849609375">
        <ele>914.20001220703125</ele>
        <time>2020-08-21T09:54:34.000Z</time>
      </trkpt>
      <trkpt lat="42.98708922229707241058349609375" lon="-1.1016655527055263519287109375">
        <ele>913.4000244140625</ele>
        <time>2020-08-21T09:54:35.000Z</time>
      </trkpt>
      <trkpt lat="42.9870463907718658447265625" lon="-1.10156111419200897216796875">
        <ele>912.4000244140625</ele>
        <time>2020-08-21T09:54:36.000Z</time>
      </trkpt>
      <trkpt lat="42.98699299804866313934326171875" lon="-1.10146011225879192352294921875">
        <ele>911.79998779296875</ele>
        <time>2020-08-21T09:54:37.000Z</time>
      </trkpt>
      <trkpt lat="42.9869332350790500640869140625" lon="-1.10136455856263637542724609375">
        <ele>910.5999755859375</ele>
        <time>2020-08-21T09:54:38.000Z</time>
      </trkpt>
      <trkpt lat="42.98686810769140720367431640625" lon="-1.101274453103542327880859375">
        <ele>909.4000244140625</ele>
        <time>2020-08-21T09:54:39.000Z</time>
      </trkpt>
      <trkpt lat="42.98672125674784183502197265625" lon="-1.10111108981072902679443359375">
        <ele>908</ele>
        <time>2020-08-21T09:54:41.000Z</time>
      </trkpt>
      <trkpt lat="42.98656686209142208099365234375" lon="-1.100943200290203094482421875">
        <ele>906.79998779296875</ele>
        <time>2020-08-21T09:54:43.000Z</time>
      </trkpt>
      <trkpt lat="42.9864189215004444122314453125" lon="-1.1007780767977237701416015625">
        <ele>905.20001220703125</ele>
        <time>2020-08-21T09:54:45.000Z</time>
      </trkpt>
      <trkpt lat="42.98635010607540607452392578125" lon="-1.1007046513259410858154296875">
        <ele>904</ele>
        <time>2020-08-21T09:54:46.000Z</time>
      </trkpt>
      <trkpt lat="42.98622094094753265380859375" lon="-1.10059174709022045135498046875">
        <ele>902.4000244140625</ele>
        <time>2020-08-21T09:54:48.000Z</time>
      </trkpt>
      <trkpt lat="42.98615883104503154754638671875" lon="-1.1005554534494876861572265625">
        <ele>901.79998779296875</ele>
        <time>2020-08-21T09:54:49.000Z</time>
      </trkpt>
      <trkpt lat="42.98609621822834014892578125" lon="-1.10053575597703456878662109375">
        <ele>901.20001220703125</ele>
        <time>2020-08-21T09:54:50.000Z</time>
      </trkpt>
      <trkpt lat="42.9859797097742557525634765625" lon="-1.10051379539072513580322265625">
        <ele>900</ele>
        <time>2020-08-21T09:54:52.000Z</time>
      </trkpt>
      <trkpt lat="42.98590469174087047576904296875" lon="-1.10042612068355083465576171875">
        <ele>898.79998779296875</ele>
        <time>2020-08-21T09:54:54.000Z</time>
      </trkpt>
      <trkpt lat="42.98592313192784786224365234375" lon="-1.10029603354632854461669921875">
        <ele>898.20001220703125</ele>
        <time>2020-08-21T09:54:56.000Z</time>
      </trkpt>
      <trkpt lat="42.98602388240396976470947265625" lon="-1.10021808184683322906494140625">
        <ele>897.79998779296875</ele>
        <time>2020-08-21T09:54:58.000Z</time>
      </trkpt>
      <trkpt lat="42.98608825542032718658447265625" lon="-1.10021908767521381378173828125">
        <ele>897.5999755859375</ele>
        <time>2020-08-21T09:54:59.000Z</time>
      </trkpt>
      <trkpt lat="42.9862227849662303924560546875" lon="-1.10027457587420940399169921875">
        <ele>896.79998779296875</ele>
        <time>2020-08-21T09:55:01.000Z</time>
      </trkpt>
      <trkpt lat="42.9862953722476959228515625" lon="-1.10031380318105220794677734375">
        <ele>896</ele>
        <time>2020-08-21T09:55:02.000Z</time>
      </trkpt>
      <trkpt lat="42.9864524491131305694580078125" lon="-1.10038035549223423004150390625">
        <ele>894.20001220703125</ele>
        <time>2020-08-21T09:55:04.000Z</time>
      </trkpt>
      <trkpt lat="42.98663073219358921051025390625" lon="-1.10043902881443500518798828125">
        <ele>892.79998779296875</ele>
        <time>2020-08-21T09:55:06.000Z</time>
      </trkpt>
      <trkpt lat="42.9868306405842304229736328125" lon="-1.1005111970007419586181640625">
        <ele>891.4000244140625</ele>
        <time>2020-08-21T09:55:08.000Z</time>
      </trkpt>
      <trkpt lat="42.9869332350790500640869140625" lon="-1.1005524359643459320068359375">
        <ele>890.4000244140625</ele>
        <time>2020-08-21T09:55:09.000Z</time>
      </trkpt>
      <trkpt lat="42.987032644450664520263671875" lon="-1.1006000451743602752685546875">
        <ele>889.20001220703125</ele>
        <time>2020-08-21T09:55:10.000Z</time>
      </trkpt>
      <trkpt lat="42.98722618259489536285400390625" lon="-1.10070641152560710906982421875">
        <ele>887.79998779296875</ele>
        <time>2020-08-21T09:55:12.000Z</time>
      </trkpt>
      <trkpt lat="42.98741628415882587432861328125" lon="-1.100817807018756866455078125">
        <ele>886.4000244140625</ele>
        <time>2020-08-21T09:55:14.000Z</time>
      </trkpt>
      <trkpt lat="42.9875095747411251068115234375" lon="-1.10087404958903789520263671875">
        <ele>886</ele>
        <time>2020-08-21T09:55:15.000Z</time>
      </trkpt>
      <trkpt lat="42.98759968020021915435791015625" lon="-1.1009326390922069549560546875">
        <ele>885.4000244140625</ele>
        <time>2020-08-21T09:55:16.000Z</time>
      </trkpt>
      <trkpt lat="42.9878565855324268341064453125" lon="-1.101092398166656494140625">
        <ele>884.20001220703125</ele>
        <time>2020-08-21T09:55:19.000Z</time>
      </trkpt>
      <trkpt lat="42.98793193884193897247314453125" lon="-1.10114076174795627593994140625">
        <ele>884</ele>
        <time>2020-08-21T09:55:20.000Z</time>
      </trkpt>
      <trkpt lat="42.9881606809794902801513671875" lon="-1.1013232357800006866455078125">
        <ele>883.5999755859375</ele>
        <time>2020-08-21T09:55:24.000Z</time>
      </trkpt>
      <trkpt lat="42.98820585943758487701416015625" lon="-1.1013631336390972137451171875">
        <ele>883.5999755859375</ele>
        <time>2020-08-21T09:55:25.000Z</time>
      </trkpt>
      <trkpt lat="42.988309375941753387451171875" lon="-1.1014791391789913177490234375">
        <ele>883.5999755859375</ele>
        <time>2020-08-21T09:55:28.000Z</time>
      </trkpt>
      <trkpt lat="42.98835924826562404632568359375" lon="-1.10154409892857074737548828125">
        <ele>883.4000244140625</ele>
        <time>2020-08-21T09:55:30.000Z</time>
      </trkpt>
      <trkpt lat="42.98842278309166431427001953125" lon="-1.1016035266220569610595703125">
        <ele>883</ele>
        <time>2020-08-21T09:55:33.000Z</time>
      </trkpt>
      <trkpt lat="42.9884397983551025390625" lon="-1.101612411439418792724609375">
        <ele>882.4000244140625</ele>
        <time>2020-08-21T09:55:37.000Z</time>
      </trkpt>
      <trkpt lat="42.988441474735736846923828125" lon="-1.1016109026968479156494140625">
        <ele>882.4000244140625</ele>
        <time>2020-08-21T09:55:40.000Z</time>
      </trkpt>
      <trkpt lat="42.98847265541553497314453125" lon="-1.10163889825344085693359375">
        <ele>882.4000244140625</ele>
        <time>2020-08-21T09:55:48.000Z</time>
      </trkpt>
      <trkpt lat="42.98850174061954021453857421875" lon="-1.10166999511420726776123046875">
        <ele>882.4000244140625</ele>
        <time>2020-08-21T09:55:52.000Z</time>
      </trkpt>
      <trkpt lat="42.9885925166308879852294921875" lon="-1.1017549037933349609375">
        <ele>882</ele>
        <time>2020-08-21T09:55:56.000Z</time>
      </trkpt>
      <trkpt lat="42.9886664450168609619140625" lon="-1.101826317608356475830078125">
        <ele>881.20001220703125</ele>
        <time>2020-08-21T09:55:58.000Z</time>
      </trkpt>
      <trkpt lat="42.98882176168262958526611328125" lon="-1.101998649537563323974609375">
        <ele>880.4000244140625</ele>
        <time>2020-08-21T09:56:02.000Z</time>
      </trkpt>
      <trkpt lat="42.9888604022562503814697265625" lon="-1.1020454205572605133056640625">
        <ele>880.20001220703125</ele>
        <time>2020-08-21T09:56:03.000Z</time>
      </trkpt>
      <trkpt lat="42.98893743194639682769775390625" lon="-1.10215388238430023193359375">
        <ele>879.20001220703125</ele>
        <time>2020-08-21T09:56:05.000Z</time>
      </trkpt>
      <trkpt lat="42.988971881568431854248046875" lon="-1.10221959650516510009765625">
        <ele>878.5999755859375</ele>
        <time>2020-08-21T09:56:06.000Z</time>
      </trkpt>
      <trkpt lat="42.989000380039215087890625" lon="-1.1022941954433917999267578125">
        <ele>878.4000244140625</ele>
        <time>2020-08-21T09:56:07.000Z</time>
      </trkpt>
      <trkpt lat="42.989037930965423583984375" lon="-1.10246275551617145538330078125">
        <ele>877.4000244140625</ele>
        <time>2020-08-21T09:56:09.000Z</time>
      </trkpt>
      <trkpt lat="42.9890500009059906005859375" lon="-1.102645732462406158447265625">
        <ele>876.5999755859375</ele>
        <time>2020-08-21T09:56:11.000Z</time>
      </trkpt>
      <trkpt lat="42.98902963288128376007080078125" lon="-1.10283650457859039306640625">
        <ele>875.79998779296875</ele>
        <time>2020-08-21T09:56:13.000Z</time>
      </trkpt>
      <trkpt lat="42.98900105059146881103515625" lon="-1.102927364408969879150390625">
        <ele>875</ele>
        <time>2020-08-21T09:56:14.000Z</time>
      </trkpt>
      <trkpt lat="42.988961823284626007080078125" lon="-1.10301579348742961883544921875">
        <ele>874.5999755859375</ele>
        <time>2020-08-21T09:56:15.000Z</time>
      </trkpt>
      <trkpt lat="42.98886048607528209686279296875" lon="-1.10319131053984165191650390625">
        <ele>874</ele>
        <time>2020-08-21T09:56:17.000Z</time>
      </trkpt>
      <trkpt lat="42.9888059198856353759765625" lon="-1.10327697359025478363037109375">
        <ele>873.5999755859375</ele>
        <time>2020-08-21T09:56:18.000Z</time>
      </trkpt>
      <trkpt lat="42.98869796097278594970703125" lon="-1.1034465394914150238037109375">
        <ele>872.4000244140625</ele>
        <time>2020-08-21T09:56:20.000Z</time>
      </trkpt>
      <trkpt lat="42.98857835121452808380126953125" lon="-1.10362113453447818756103515625">
        <ele>870.79998779296875</ele>
        <time>2020-08-21T09:56:22.000Z</time>
      </trkpt>
      <trkpt lat="42.98852118663489818572998046875" lon="-1.10370956361293792724609375">
        <ele>870.4000244140625</ele>
        <time>2020-08-21T09:56:23.000Z</time>
      </trkpt>
      <trkpt lat="42.98846301622688770294189453125" lon="-1.10379262827336788177490234375">
        <ele>869.79998779296875</ele>
        <time>2020-08-21T09:56:24.000Z</time>
      </trkpt>
      <trkpt lat="42.98834214918315410614013671875" lon="-1.10394886694848537445068359375">
        <ele>868.5999755859375</ele>
        <time>2020-08-21T09:56:26.000Z</time>
      </trkpt>
      <trkpt lat="42.9882887564599514007568359375" lon="-1.1040302552282810211181640625">
        <ele>867.79998779296875</ele>
        <time>2020-08-21T09:56:27.000Z</time>
      </trkpt>
      <trkpt lat="42.98824869096279144287109375" lon="-1.10412262380123138427734375">
        <ele>867</ele>
        <time>2020-08-21T09:56:28.000Z</time>
      </trkpt>
      <trkpt lat="42.988208793103694915771484375" lon="-1.10433527268469333648681640625">
        <ele>865.79998779296875</ele>
        <time>2020-08-21T09:56:30.000Z</time>
      </trkpt>
      <trkpt lat="42.9882025904953479766845703125" lon="-1.10444792546331882476806640625">
        <ele>865.20001220703125</ele>
        <time>2020-08-21T09:56:31.000Z</time>
      </trkpt>
      <trkpt lat="42.98819798044860363006591796875" lon="-1.10466149635612964630126953125">
        <ele>864</ele>
        <time>2020-08-21T09:56:33.000Z</time>
      </trkpt>
      <trkpt lat="42.9881935380399227142333984375" lon="-1.104761995375156402587890625">
        <ele>863</ele>
        <time>2020-08-21T09:56:34.000Z</time>
      </trkpt>
      <trkpt lat="42.9881861619651317596435546875" lon="-1.10486249439418315887451171875">
        <ele>862.20001220703125</ele>
        <time>2020-08-21T09:56:35.000Z</time>
      </trkpt>
      <trkpt lat="42.98817224800586700439453125" lon="-1.105056703090667724609375">
        <ele>861.20001220703125</ele>
        <time>2020-08-21T09:56:37.000Z</time>
      </trkpt>
      <trkpt lat="42.9881777800619602203369140625" lon="-1.105142869055271148681640625">
        <ele>860.79998779296875</ele>
        <time>2020-08-21T09:56:38.000Z</time>
      </trkpt>
      <trkpt lat="42.988190017640590667724609375" lon="-1.1052228324115276336669921875">
        <ele>860.4000244140625</ele>
        <time>2020-08-21T09:56:39.000Z</time>
      </trkpt>
      <trkpt lat="42.98823016695678234100341796875" lon="-1.1053301207721233367919921875">
        <ele>859.79998779296875</ele>
        <time>2020-08-21T09:56:41.000Z</time>
      </trkpt>
      <trkpt lat="42.98824726603925228118896484375" lon="-1.105360798537731170654296875">
        <ele>859.4000244140625</ele>
        <time>2020-08-21T09:56:42.000Z</time>
      </trkpt>
      <trkpt lat="42.98825807869434356689453125" lon="-1.105378903448581695556640625">
        <ele>859</ele>
        <time>2020-08-21T09:56:45.000Z</time>
      </trkpt>
      <trkpt lat="42.98825866542756557464599609375" lon="-1.10537546686828136444091796875">
        <ele>859</ele>
        <time>2020-08-21T09:56:47.000Z</time>
      </trkpt>
      <trkpt lat="42.9882666282355785369873046875" lon="-1.10539130866527557373046875">
        <ele>858.79998779296875</ele>
        <time>2020-08-21T09:56:53.000Z</time>
      </trkpt>
      <trkpt lat="42.9882766865193843841552734375" lon="-1.10540597699582576751708984375">
        <ele>859</ele>
        <time>2020-08-21T09:56:54.000Z</time>
      </trkpt>
      <trkpt lat="42.9883928596973419189453125" lon="-1.10550723038613796234130859375">
        <ele>859</ele>
        <time>2020-08-21T09:57:02.000Z</time>
      </trkpt>
      <trkpt lat="42.98843150027096271514892578125" lon="-1.10551779158413410186767578125">
        <ele>859</ele>
        <time>2020-08-21T09:57:07.000Z</time>
      </trkpt>
      <trkpt lat="42.98843242228031158447265625" lon="-1.1055192165076732635498046875">
        <ele>859.20001220703125</ele>
        <time>2020-08-21T09:57:14.000Z</time>
      </trkpt>
      <trkpt lat="42.98842915333807468414306640625" lon="-1.1055208928883075714111328125">
        <ele>859</ele>
        <time>2020-08-21T09:57:36.000Z</time>
      </trkpt>
      <trkpt lat="42.98844373784959316253662109375" lon="-1.10553220845758914947509765625">
        <ele>859</ele>
        <time>2020-08-21T09:57:40.000Z</time>
      </trkpt>
      <trkpt lat="42.9884771816432476043701171875" lon="-1.10555182211101055145263671875">
        <ele>859.20001220703125</ele>
        <time>2020-08-21T09:57:47.000Z</time>
      </trkpt>
      <trkpt lat="42.98851196654140949249267578125" lon="-1.105559282004833221435546875">
        <ele>859.4000244140625</ele>
        <time>2020-08-21T09:57:55.000Z</time>
      </trkpt>
      <trkpt lat="42.988542728126049041748046875" lon="-1.10557981766760349273681640625">
        <ele>860.5999755859375</ele>
        <time>2020-08-21T09:58:03.000Z</time>
      </trkpt>
      <trkpt lat="42.9885462485253810882568359375" lon="-1.10558317042887210845947265625">
        <ele>860.5999755859375</ele>
        <time>2020-08-21T09:58:04.000Z</time>
      </trkpt>
      <trkpt lat="42.988585643470287322998046875" lon="-1.10562507994472980499267578125">
        <ele>861.5999755859375</ele>
        <time>2020-08-21T09:58:13.000Z</time>
      </trkpt>
      <trkpt lat="42.98859469592571258544921875" lon="-1.10563362948596477508544921875">
        <ele>861.79998779296875</ele>
        <time>2020-08-21T09:58:16.000Z</time>
      </trkpt>
      <trkpt lat="42.9886196739971637725830078125" lon="-1.10565818846225738525390625">
        <ele>862.79998779296875</ele>
        <time>2020-08-21T09:58:22.000Z</time>
      </trkpt>
      <trkpt lat="42.98862420022487640380859375" lon="-1.10566296614706516265869140625">
        <ele>863</ele>
        <time>2020-08-21T09:58:23.000Z</time>
      </trkpt>
      <trkpt lat="42.98863886855542659759521484375" lon="-1.10567285679280757904052734375">
        <ele>863</ele>
        <time>2020-08-21T09:58:30.000Z</time>
      </trkpt>
      <trkpt lat="42.9886739887297153472900390625" lon="-1.1057022772729396820068359375">
        <ele>863.5999755859375</ele>
        <time>2020-08-21T09:58:36.000Z</time>
      </trkpt>
      <trkpt lat="42.9887200891971588134765625" lon="-1.10572499223053455352783203125">
        <ele>864.20001220703125</ele>
        <time>2020-08-21T09:58:42.000Z</time>
      </trkpt>
      <trkpt lat="42.98874313943088054656982421875" lon="-1.10572381876409053802490234375">
        <ele>864.79998779296875</ele>
        <time>2020-08-21T09:58:46.000Z</time>
      </trkpt>
      <trkpt lat="42.98876476474106311798095703125" lon="-1.10572063364088535308837890625">
        <ele>865.4000244140625</ele>
        <time>2020-08-21T09:58:49.000Z</time>
      </trkpt>
      <trkpt lat="42.9888111166656017303466796875" lon="-1.1057056300342082977294921875">
        <ele>866.5999755859375</ele>
        <time>2020-08-21T09:58:56.000Z</time>
      </trkpt>
      <trkpt lat="42.9888476617634296417236328125" lon="-1.10567788593471050262451171875">
        <ele>867.4000244140625</ele>
        <time>2020-08-21T09:59:04.000Z</time>
      </trkpt>
      <trkpt lat="42.98885713331401348114013671875" lon="-1.105670928955078125">
        <ele>867.4000244140625</ele>
        <time>2020-08-21T09:59:06.000Z</time>
      </trkpt>
      <trkpt lat="42.98886165954172611236572265625" lon="-1.1056664027273654937744140625">
        <ele>867.5999755859375</ele>
        <time>2020-08-21T09:59:07.000Z</time>
      </trkpt>
      <trkpt lat="42.98888680525124073028564453125" lon="-1.105641759932041168212890625">
        <ele>868.4000244140625</ele>
        <time>2020-08-21T09:59:12.000Z</time>
      </trkpt>
      <trkpt lat="42.98890541307628154754638671875" lon="-1.10562264919281005859375">
        <ele>868.79998779296875</ele>
        <time>2020-08-21T09:59:15.000Z</time>
      </trkpt>
      <trkpt lat="42.98893525265157222747802734375" lon="-1.10557780601084232330322265625">
        <ele>869.79998779296875</ele>
        <time>2020-08-21T09:59:21.000Z</time>
      </trkpt>
      <trkpt lat="42.9889408685266971588134765625" lon="-1.10557177104055881500244140625">
        <ele>870</ele>
        <time>2020-08-21T09:59:22.000Z</time>
      </trkpt>
      <trkpt lat="42.98895947635173797607421875" lon="-1.1055014468729496002197265625">
        <ele>870.79998779296875</ele>
        <time>2020-08-21T09:59:30.000Z</time>
      </trkpt>
      <trkpt lat="42.9889593087136745452880859375" lon="-1.10549264587461948394775390625">
        <ele>871</ele>
        <time>2020-08-21T09:59:31.000Z</time>
      </trkpt>
      <trkpt lat="42.98895335756242275238037109375" lon="-1.105454675853252410888671875">
        <ele>872.20001220703125</ele>
        <time>2020-08-21T09:59:37.000Z</time>
      </trkpt>
      <trkpt lat="42.98894983716309070587158203125" lon="-1.1054442822933197021484375">
        <ele>872.4000244140625</ele>
        <time>2020-08-21T09:59:39.000Z</time>
      </trkpt>
      <trkpt lat="42.98890491016209125518798828125" lon="-1.1053830944001674652099609375">
        <ele>873</ele>
        <time>2020-08-21T09:59:48.000Z</time>
      </trkpt>
      <trkpt lat="42.98888496123254299163818359375" lon="-1.1053405143320560455322265625">
        <ele>872.79998779296875</ele>
        <time>2020-08-21T09:59:53.000Z</time>
      </trkpt>
      <trkpt lat="42.9888689517974853515625" lon="-1.10528041608631610870361328125">
        <ele>872.79998779296875</ele>
        <time>2020-08-21T10:00:00.000Z</time>
      </trkpt>
      <trkpt lat="42.98883131705224514007568359375" lon="-1.10518754459917545318603515625">
        <ele>873</ele>
        <time>2020-08-21T10:00:09.000Z</time>
      </trkpt>
      <trkpt lat="42.98878789879381656646728515625" lon="-1.1050848662853240966796875">
        <ele>873</ele>
        <time>2020-08-21T10:00:20.000Z</time>
      </trkpt>
      <trkpt lat="42.9888023994863033294677734375" lon="-1.10504689626395702362060546875">
        <ele>872.5999755859375</ele>
        <time>2020-08-21T10:00:27.000Z</time>
      </trkpt>
      <trkpt lat="42.9888101108372211456298828125" lon="-1.10503147356212139129638671875">
        <ele>872.79998779296875</ele>
        <time>2020-08-21T10:00:35.000Z</time>
      </trkpt>
      <trkpt lat="42.9890407808125019073486328125" lon="-1.1053938232362270355224609375">
        <ele>871.79998779296875</ele>
        <time>2020-08-21T10:31:34.000Z</time>
      </trkpt>
      <trkpt lat="42.9890320636332035064697265625" lon="-1.10539625398814678192138671875">
        <ele>871.79998779296875</ele>
        <time>2020-08-21T10:31:35.000Z</time>
      </trkpt>
      <trkpt lat="42.98901286907494068145751953125" lon="-1.10539524815976619720458984375">
        <ele>871.79998779296875</ele>
        <time>2020-08-21T10:31:37.000Z</time>
      </trkpt>
      <trkpt lat="42.9889982007443904876708984375" lon="-1.10542039386928081512451171875">
        <ele>871.20001220703125</ele>
        <time>2020-08-21T10:31:41.000Z</time>
      </trkpt>
      <trkpt lat="42.98899970948696136474609375" lon="-1.10544268973171710968017578125">
        <ele>870.5999755859375</ele>
        <time>2020-08-21T10:31:45.000Z</time>
      </trkpt>
      <trkpt lat="42.98900951631367206573486328125" lon="-1.105477474629878997802734375">
        <ele>870.20001220703125</ele>
        <time>2020-08-21T10:31:50.000Z</time>
      </trkpt>
      <trkpt lat="42.9890069179236888885498046875" lon="-1.10550203360617160797119140625">
        <ele>869.4000244140625</ele>
        <time>2020-08-21T10:31:53.000Z</time>
      </trkpt>
      <trkpt lat="42.988997362554073333740234375" lon="-1.10556858591735363006591796875">
        <ele>868.4000244140625</ele>
        <time>2020-08-21T10:31:58.000Z</time>
      </trkpt>
      <trkpt lat="42.98897213302552700042724609375" lon="-1.10561736859381198883056640625">
        <ele>867.20001220703125</ele>
        <time>2020-08-21T10:32:02.000Z</time>
      </trkpt>
      <trkpt lat="42.98893894068896770477294921875" lon="-1.10565324313938617706298828125">
        <ele>866</ele>
        <time>2020-08-21T10:32:07.000Z</time>
      </trkpt>
      <trkpt lat="42.98887641169130802154541015625" lon="-1.10567788593471050262451171875">
        <ele>865.20001220703125</ele>
        <time>2020-08-21T10:32:15.000Z</time>
      </trkpt>
      <trkpt lat="42.98884355463087558746337890625" lon="-1.10568375326693058013916015625">
        <ele>864.4000244140625</ele>
        <time>2020-08-21T10:32:23.000Z</time>
      </trkpt>
      <trkpt lat="42.98882360570132732391357421875" lon="-1.105691380798816680908203125">
        <ele>864.20001220703125</ele>
        <time>2020-08-21T10:32:25.000Z</time>
      </trkpt>
      <trkpt lat="42.988776750862598419189453125" lon="-1.105698756873607635498046875">
        <ele>863.20001220703125</ele>
        <time>2020-08-21T10:32:31.000Z</time>
      </trkpt>
      <trkpt lat="42.9887095279991626739501953125" lon="-1.10569196753203868865966796875">
        <ele>862.20001220703125</ele>
        <time>2020-08-21T10:32:38.000Z</time>
      </trkpt>
      <trkpt lat="42.98869150690734386444091796875" lon="-1.10568341799080371856689453125">
        <ele>862</ele>
        <time>2020-08-21T10:32:40.000Z</time>
      </trkpt>
      <trkpt lat="42.988625876605510711669921875" lon="-1.10563698224723339080810546875">
        <ele>861</ele>
        <time>2020-08-21T10:32:50.000Z</time>
      </trkpt>
      <trkpt lat="42.98862076364457607269287109375" lon="-1.105637736618518829345703125">
        <ele>860.79998779296875</ele>
        <time>2020-08-21T10:32:51.000Z</time>
      </trkpt>
      <trkpt lat="42.98858924768865108489990234375" lon="-1.10562239773571491241455078125">
        <ele>859.79998779296875</ele>
        <time>2020-08-21T10:32:56.000Z</time>
      </trkpt>
      <trkpt lat="42.98857332207262516021728515625" lon="-1.10561602748930454254150390625">
        <ele>859.20001220703125</ele>
        <time>2020-08-21T10:33:00.000Z</time>
      </trkpt>
      <trkpt lat="42.98855605535209178924560546875" lon="-1.10561468638479709625244140625">
        <ele>858.79998779296875</ele>
        <time>2020-08-21T10:33:04.000Z</time>
      </trkpt>
      <trkpt lat="42.98853342421352863311767578125" lon="-1.10560990869998931884765625">
        <ele>858</ele>
        <time>2020-08-21T10:33:10.000Z</time>
      </trkpt>
      <trkpt lat="42.98851666040718555450439453125" lon="-1.1056132614612579345703125">
        <ele>857.5999755859375</ele>
        <time>2020-08-21T10:33:12.000Z</time>
      </trkpt>
      <trkpt lat="42.98850978724658489227294921875" lon="-1.10562331974506378173828125">
        <ele>857.4000244140625</ele>
        <time>2020-08-21T10:33:13.000Z</time>
      </trkpt>
      <trkpt lat="42.98850559629499912261962890625" lon="-1.10564318485558032989501953125">
        <ele>857.20001220703125</ele>
        <time>2020-08-21T10:33:15.000Z</time>
      </trkpt>
      <trkpt lat="42.988506518304347991943359375" lon="-1.10565374605357646942138671875">
        <ele>856.5999755859375</ele>
        <time>2020-08-21T10:33:22.000Z</time>
      </trkpt>
      <trkpt lat="42.98852520994842052459716796875" lon="-1.10567520372569561004638671875">
        <ele>856.5999755859375</ele>
        <time>2020-08-21T10:33:33.000Z</time>
      </trkpt>
      <trkpt lat="42.98852940090000629425048828125" lon="-1.1056788079440593719482421875">
        <ele>856.5999755859375</ele>
        <time>2020-08-21T10:33:34.000Z</time>
      </trkpt>
      <trkpt lat="42.98853862099349498748779296875" lon="-1.10570068471133708953857421875">
        <ele>856.79998779296875</ele>
        <time>2020-08-21T10:33:40.000Z</time>
      </trkpt>
      <trkpt lat="42.9885496012866497039794921875" lon="-1.10577243380248546600341796875">
        <ele>856.5999755859375</ele>
        <time>2020-08-21T10:33:48.000Z</time>
      </trkpt>
      <trkpt lat="42.9885415546596050262451171875" lon="-1.1059979908168315887451171875">
        <ele>856.4000244140625</ele>
        <time>2020-08-21T10:33:54.000Z</time>
      </trkpt>
      <trkpt lat="42.98857097513973712921142578125" lon="-1.1061153374612331390380859375">
        <ele>855</ele>
        <time>2020-08-21T10:33:57.000Z</time>
      </trkpt>
      <trkpt lat="42.98862126655876636505126953125" lon="-1.10621751286089420318603515625">
        <ele>856.4000244140625</ele>
        <time>2020-08-21T10:34:00.000Z</time>
      </trkpt>
      <trkpt lat="42.9887061752378940582275390625" lon="-1.106343157589435577392578125">
        <ele>855.20001220703125</ele>
        <time>2020-08-21T10:34:04.000Z</time>
      </trkpt>
      <trkpt lat="42.9887987114489078521728515625" lon="-1.10644969157874584197998046875">
        <ele>855</ele>
        <time>2020-08-21T10:34:08.000Z</time>
      </trkpt>
      <trkpt lat="42.98883433453738689422607421875" lon="-1.1065760068595409393310546875">
        <ele>855</ele>
        <time>2020-08-21T10:34:14.000Z</time>
      </trkpt>
      <trkpt lat="42.98881941474974155426025390625" lon="-1.106740124523639678955078125">
        <ele>854.79998779296875</ele>
        <time>2020-08-21T10:34:21.000Z</time>
      </trkpt>
      <trkpt lat="42.9887899942696094512939453125" lon="-1.106818579137325286865234375">
        <ele>855.20001220703125</ele>
        <time>2020-08-21T10:34:26.000Z</time>
      </trkpt>
      <trkpt lat="42.98879074864089488983154296875" lon="-1.10684414394199848175048828125">
        <ele>855.4000244140625</ele>
        <time>2020-08-21T10:34:28.000Z</time>
      </trkpt>
      <trkpt lat="42.98881287686526775360107421875" lon="-1.1069087684154510498046875">
        <ele>855.79998779296875</ele>
        <time>2020-08-21T10:34:33.000Z</time>
      </trkpt>
      <trkpt lat="42.98881036229431629180908203125" lon="-1.106923520565032958984375">
        <ele>855.4000244140625</ele>
        <time>2020-08-21T10:34:34.000Z</time>
      </trkpt>
      <trkpt lat="42.98878739587962627410888671875" lon="-1.107012368738651275634765625">
        <ele>855.4000244140625</ele>
        <time>2020-08-21T10:34:39.000Z</time>
      </trkpt>
      <trkpt lat="42.9887635074555873870849609375" lon="-1.1071325652301311492919921875">
        <ele>855.5999755859375</ele>
        <time>2020-08-21T10:34:44.000Z</time>
      </trkpt>
      <trkpt lat="42.9887641780078411102294921875" lon="-1.1071620695292949676513671875">
        <ele>855.5999755859375</ele>
        <time>2020-08-21T10:34:45.000Z</time>
      </trkpt>
      <trkpt lat="42.9887437261641025543212890625" lon="-1.10726055689156055450439453125">
        <ele>855.79998779296875</ele>
        <time>2020-08-21T10:34:49.000Z</time>
      </trkpt>
      <trkpt lat="42.98872587271034717559814453125" lon="-1.1074416898190975189208984375">
        <ele>855.20001220703125</ele>
        <time>2020-08-21T10:34:54.000Z</time>
      </trkpt>
      <trkpt lat="42.98870776779949665069580078125" lon="-1.10750497318804264068603515625">
        <ele>855.4000244140625</ele>
        <time>2020-08-21T10:34:56.000Z</time>
      </trkpt>
      <trkpt lat="42.98865973949432373046875" lon="-1.1076629720628261566162109375">
        <ele>855</ele>
        <time>2020-08-21T10:35:01.000Z</time>
      </trkpt>
      <trkpt lat="42.9885831288993358612060546875" lon="-1.107825748622417449951171875">
        <ele>855.20001220703125</ele>
        <time>2020-08-21T10:35:07.000Z</time>
      </trkpt>
      <trkpt lat="42.98856250941753387451171875" lon="-1.1079038679599761962890625">
        <ele>855.4000244140625</ele>
        <time>2020-08-21T10:35:10.000Z</time>
      </trkpt>
      <trkpt lat="42.98854784108698368072509765625" lon="-1.10794368200004100799560546875">
        <ele>855</ele>
        <time>2020-08-21T10:35:12.000Z</time>
      </trkpt>
      <trkpt lat="42.98853275366127490997314453125" lon="-1.10799573361873626708984375">
        <ele>855</ele>
        <time>2020-08-21T10:35:14.000Z</time>
      </trkpt>
      <trkpt lat="42.98849436454474925994873046875" lon="-1.10814727842807769775390625">
        <ele>854.4000244140625</ele>
        <time>2020-08-21T10:35:19.000Z</time>
      </trkpt>
      <trkpt lat="42.98847693018615245819091796875" lon="-1.10826454125344753265380859375">
        <ele>854</ele>
        <time>2020-08-21T10:35:22.000Z</time>
      </trkpt>
      <trkpt lat="42.9884349368512630462646484375" lon="-1.10835020430386066436767578125">
        <ele>854</ele>
        <time>2020-08-21T10:35:24.000Z</time>
      </trkpt>
      <trkpt lat="42.9883075319230556488037109375" lon="-1.108566038310527801513671875">
        <ele>853.5999755859375</ele>
        <time>2020-08-21T10:35:30.000Z</time>
      </trkpt>
      <trkpt lat="42.98817082308232784271240234375" lon="-1.1087747476994991302490234375">
        <ele>853.79998779296875</ele>
        <time>2020-08-21T10:35:37.000Z</time>
      </trkpt>
      <trkpt lat="42.98804040066897869110107421875" lon="-1.10897297970950603485107421875">
        <ele>853.4000244140625</ele>
        <time>2020-08-21T10:35:44.000Z</time>
      </trkpt>
      <trkpt lat="42.98795775510370731353759765625" lon="-1.109117567539215087890625">
        <ele>853.20001220703125</ele>
        <time>2020-08-21T10:35:48.000Z</time>
      </trkpt>
      <trkpt lat="42.987901009619235992431640625" lon="-1.1092109419405460357666015625">
        <ele>852.79998779296875</ele>
        <time>2020-08-21T10:35:51.000Z</time>
      </trkpt>
      <trkpt lat="42.9878108203411102294921875" lon="-1.1093683540821075439453125">
        <ele>853</ele>
        <time>2020-08-21T10:35:57.000Z</time>
      </trkpt>
      <trkpt lat="42.9877276718616485595703125" lon="-1.1095716990530490875244140625">
        <ele>853.4000244140625</ele>
        <time>2020-08-21T10:36:04.000Z</time>
      </trkpt>
      <trkpt lat="42.9876711778342723846435546875" lon="-1.10968879424035549163818359375">
        <ele>854</ele>
        <time>2020-08-21T10:36:11.000Z</time>
      </trkpt>
      <trkpt lat="42.9876537434756755828857421875" lon="-1.1097165383398532867431640625">
        <ele>854</ele>
        <time>2020-08-21T10:36:13.000Z</time>
      </trkpt>
      <trkpt lat="42.9875881969928741455078125" lon="-1.109779737889766693115234375">
        <ele>855</ele>
        <time>2020-08-21T10:36:18.000Z</time>
      </trkpt>
      <trkpt lat="42.98749633133411407470703125" lon="-1.10981703735888004302978515625">
        <ele>855.79998779296875</ele>
        <time>2020-08-21T10:36:24.000Z</time>
      </trkpt>
      <trkpt lat="42.98748015426099300384521484375" lon="-1.10981435514986515045166015625">
        <ele>856</ele>
        <time>2020-08-21T10:36:25.000Z</time>
      </trkpt>
      <trkpt lat="42.98737152479588985443115234375" lon="-1.1097688414156436920166015625">
        <ele>857.4000244140625</ele>
        <time>2020-08-21T10:36:32.000Z</time>
      </trkpt>
      <trkpt lat="42.9872420243918895721435546875" lon="-1.109697930514812469482421875">
        <ele>858.20001220703125</ele>
        <time>2020-08-21T10:36:40.000Z</time>
      </trkpt>
      <trkpt lat="42.98716532997786998748779296875" lon="-1.1096759699285030364990234375">
        <ele>858.79998779296875</ele>
        <time>2020-08-21T10:36:45.000Z</time>
      </trkpt>
      <trkpt lat="42.98714764416217803955078125" lon="-1.1096736229956150054931640625">
        <ele>858.79998779296875</ele>
        <time>2020-08-21T10:36:46.000Z</time>
      </trkpt>
      <trkpt lat="42.9871075786650180816650390625" lon="-1.109669767320156097412109375">
        <ele>859.4000244140625</ele>
        <time>2020-08-21T10:36:49.000Z</time>
      </trkpt>
      <trkpt lat="42.98707388341426849365234375" lon="-1.10966616310179233551025390625">
        <ele>859.4000244140625</ele>
        <time>2020-08-21T10:36:52.000Z</time>
      </trkpt>
      <trkpt lat="42.9870378412306308746337890625" lon="-1.1096659116446971893310546875">
        <ele>860.20001220703125</ele>
        <time>2020-08-21T10:36:55.000Z</time>
      </trkpt>
      <trkpt lat="42.98699878156185150146484375" lon="-1.109670102596282958984375">
        <ele>861</ele>
        <time>2020-08-21T10:36:58.000Z</time>
      </trkpt>
      <trkpt lat="42.98693767748773097991943359375" lon="-1.1096836812794208526611328125">
        <ele>861.20001220703125</ele>
        <time>2020-08-21T10:37:02.000Z</time>
      </trkpt>
      <trkpt lat="42.986889146268367767333984375" lon="-1.1096803285181522369384765625">
        <ele>861.4000244140625</ele>
        <time>2020-08-21T10:37:05.000Z</time>
      </trkpt>
      <trkpt lat="42.98683390952646732330322265625" lon="-1.10967203043401241302490234375">
        <ele>861.79998779296875</ele>
        <time>2020-08-21T10:37:10.000Z</time>
      </trkpt>
      <trkpt lat="42.98681647516787052154541015625" lon="-1.1096726171672344207763671875">
        <ele>861.79998779296875</ele>
        <time>2020-08-21T10:37:11.000Z</time>
      </trkpt>
      <trkpt lat="42.98678797669708728790283203125" lon="-1.1096712760627269744873046875">
        <ele>862</ele>
        <time>2020-08-21T10:37:13.000Z</time>
      </trkpt>
      <trkpt lat="42.98677758313715457916259765625" lon="-1.1096699349582195281982421875">
        <ele>862.20001220703125</ele>
        <time>2020-08-21T10:37:14.000Z</time>
      </trkpt>
      <trkpt lat="42.98676450736820697784423828125" lon="-1.10966985113918781280517578125">
        <ele>862.20001220703125</ele>
        <time>2020-08-21T10:37:15.000Z</time>
      </trkpt>
      <trkpt lat="42.9866707138717174530029296875" lon="-1.10964722000062465667724609375">
        <ele>862.79998779296875</ele>
        <time>2020-08-21T10:37:21.000Z</time>
      </trkpt>
      <trkpt lat="42.98665638081729412078857421875" lon="-1.10964260995388031005859375">
        <ele>863</ele>
        <time>2020-08-21T10:37:22.000Z</time>
      </trkpt>
      <trkpt lat="42.98659619875252246856689453125" lon="-1.1096146143972873687744140625">
        <ele>864.20001220703125</ele>
        <time>2020-08-21T10:37:27.000Z</time>
      </trkpt>
      <trkpt lat="42.98655965365469455718994140625" lon="-1.1095867864787578582763671875">
        <ele>864.5999755859375</ele>
        <time>2020-08-21T10:37:30.000Z</time>
      </trkpt>
      <trkpt lat="42.98648203723132610321044921875" lon="-1.1095093376934528350830078125">
        <ele>865</ele>
        <time>2020-08-21T10:37:36.000Z</time>
      </trkpt>
      <trkpt lat="42.98647047020494937896728515625" lon="-1.10949735157191753387451171875">
        <ele>865.20001220703125</ele>
        <time>2020-08-21T10:37:37.000Z</time>
      </trkpt>
      <trkpt lat="42.98640274442732334136962890625" lon="-1.10944219864904880523681640625">
        <ele>866.20001220703125</ele>
        <time>2020-08-21T10:37:42.000Z</time>
      </trkpt>
      <trkpt lat="42.986383549869060516357421875" lon="-1.1094231717288494110107421875">
        <ele>866.5999755859375</ele>
        <time>2020-08-21T10:37:43.000Z</time>
      </trkpt>
      <trkpt lat="42.9862952046096324920654296875" lon="-1.1093484051525592803955078125">
        <ele>867.4000244140625</ele>
        <time>2020-08-21T10:37:49.000Z</time>
      </trkpt>
      <trkpt lat="42.98628330230712890625" lon="-1.1093400232493877410888671875">
        <ele>867.4000244140625</ele>
        <time>2020-08-21T10:37:50.000Z</time>
      </trkpt>
      <trkpt lat="42.9862398840487003326416015625" lon="-1.10931982286274433135986328125">
        <ele>868.20001220703125</ele>
        <time>2020-08-21T10:37:53.000Z</time>
      </trkpt>
      <trkpt lat="42.98615748994052410125732421875" lon="-1.10932476818561553955078125">
        <ele>868.79998779296875</ele>
        <time>2020-08-21T10:37:56.000Z</time>
      </trkpt>
      <trkpt lat="42.98603662289679050445556640625" lon="-1.1093390174210071563720703125">
        <ele>869.4000244140625</ele>
        <time>2020-08-21T10:38:01.000Z</time>
      </trkpt>
      <trkpt lat="42.9860056936740875244140625" lon="-1.109363995492458343505859375">
        <ele>869.20001220703125</ele>
        <time>2020-08-21T10:38:03.000Z</time>
      </trkpt>
      <trkpt lat="42.9859424941241741180419921875" lon="-1.10949751920998096466064453125">
        <ele>868.79998779296875</ele>
        <time>2020-08-21T10:38:09.000Z</time>
      </trkpt>
      <trkpt lat="42.9859059490263462066650390625" lon="-1.10965208150446414947509765625">
        <ele>868</ele>
        <time>2020-08-21T10:38:14.000Z</time>
      </trkpt>
      <trkpt lat="42.9858677275478839874267578125" lon="-1.10984821803867816925048828125">
        <ele>867</ele>
        <time>2020-08-21T10:38:19.000Z</time>
      </trkpt>
      <trkpt lat="42.98586479388177394866943359375" lon="-1.1099280975759029388427734375">
        <ele>866.79998779296875</ele>
        <time>2020-08-21T10:38:21.000Z</time>
      </trkpt>
      <trkpt lat="42.9858724214136600494384765625" lon="-1.109989620745182037353515625">
        <ele>866.5999755859375</ele>
        <time>2020-08-21T10:38:23.000Z</time>
      </trkpt>
      <trkpt lat="42.98586018383502960205078125" lon="-1.11010889522731304168701171875">
        <ele>865.4000244140625</ele>
        <time>2020-08-21T10:38:27.000Z</time>
      </trkpt>
      <trkpt lat="42.985824644565582275390625" lon="-1.1101617850363254547119140625">
        <ele>865.20001220703125</ele>
        <time>2020-08-21T10:38:28.000Z</time>
      </trkpt>
      <trkpt lat="42.985741160809993743896484375" lon="-1.110272593796253204345703125">
        <ele>865.79998779296875</ele>
        <time>2020-08-21T10:38:30.000Z</time>
      </trkpt>
      <trkpt lat="42.98567653633654117584228515625" lon="-1.11036806367337703704833984375">
        <ele>865.5999755859375</ele>
        <time>2020-08-21T10:38:32.000Z</time>
      </trkpt>
      <trkpt lat="42.98555466346442699432373046875" lon="-1.11049287021160125732421875">
        <ele>865.5999755859375</ele>
        <time>2020-08-21T10:38:37.000Z</time>
      </trkpt>
      <trkpt lat="42.985504455864429473876953125" lon="-1.1105315946042537689208984375">
        <ele>866.4000244140625</ele>
        <time>2020-08-21T10:38:39.000Z</time>
      </trkpt>
      <trkpt lat="42.98541217111051082611083984375" lon="-1.11059772782027721405029296875">
        <ele>866.79998779296875</ele>
        <time>2020-08-21T10:38:43.000Z</time>
      </trkpt>
      <trkpt lat="42.9852652363479137420654296875" lon="-1.11070401035249233245849609375">
        <ele>866.5999755859375</ele>
        <time>2020-08-21T10:38:48.000Z</time>
      </trkpt>
      <trkpt lat="42.98508703708648681640625" lon="-1.1108004860579967498779296875">
        <ele>866.79998779296875</ele>
        <time>2020-08-21T10:38:55.000Z</time>
      </trkpt>
      <trkpt lat="42.9850241728127002716064453125" lon="-1.11092277802526950836181640625">
        <ele>866.79998779296875</ele>
        <time>2020-08-21T10:38:59.000Z</time>
      </trkpt>
      <trkpt lat="42.9850204847753047943115234375" lon="-1.11111070029437541961669921875">
        <ele>866.5999755859375</ele>
        <time>2020-08-21T10:39:04.000Z</time>
      </trkpt>
      <trkpt lat="42.98505862243473529815673828125" lon="-1.1112735606729984283447265625">
        <ele>865.20001220703125</ele>
        <time>2020-08-21T10:39:08.000Z</time>
      </trkpt>
      <trkpt lat="42.9850680939853191375732421875" lon="-1.11131899058818817138671875">
        <ele>865</ele>
        <time>2020-08-21T10:39:09.000Z</time>
      </trkpt>
      <trkpt lat="42.9851053096354007720947265625" lon="-1.111550666391849517822265625">
        <ele>864</ele>
        <time>2020-08-21T10:39:14.000Z</time>
      </trkpt>
      <trkpt lat="42.98514160327613353729248046875" lon="-1.11177773214876651763916015625">
        <ele>863</ele>
        <time>2020-08-21T10:39:19.000Z</time>
      </trkpt>
      <trkpt lat="42.9851411841809749603271484375" lon="-1.11191217787563800811767578125">
        <ele>862.4000244140625</ele>
        <time>2020-08-21T10:39:23.000Z</time>
      </trkpt>
      <trkpt lat="42.98513724468648433685302734375" lon="-1.111949980258941650390625">
        <ele>861.79998779296875</ele>
        <time>2020-08-21T10:39:24.000Z</time>
      </trkpt>
      <trkpt lat="42.985112853348255157470703125" lon="-1.11210621893405914306640625">
        <ele>860.5999755859375</ele>
        <time>2020-08-21T10:39:27.000Z</time>
      </trkpt>
      <trkpt lat="42.9850883781909942626953125" lon="-1.11216749064624309539794921875">
        <ele>860.5999755859375</ele>
        <time>2020-08-21T10:39:28.000Z</time>
      </trkpt>
      <trkpt lat="42.98505107872188091278076171875" lon="-1.11225667409598827362060546875">
        <ele>860.4000244140625</ele>
        <time>2020-08-21T10:39:30.000Z</time>
      </trkpt>
      <trkpt lat="42.9849447123706340789794921875" lon="-1.1123509705066680908203125">
        <ele>860.5999755859375</ele>
        <time>2020-08-21T10:39:33.000Z</time>
      </trkpt>
      <trkpt lat="42.98487019725143909454345703125" lon="-1.11238122917711734771728515625">
        <ele>860.4000244140625</ele>
        <time>2020-08-21T10:39:35.000Z</time>
      </trkpt>
      <trkpt lat="42.9847509227693080902099609375" lon="-1.11244660802185535430908203125">
        <ele>860</ele>
        <time>2020-08-21T10:39:39.000Z</time>
      </trkpt>
      <trkpt lat="42.98464514315128326416015625" lon="-1.11248784698545932769775390625">
        <ele>859.5999755859375</ele>
        <time>2020-08-21T10:39:42.000Z</time>
      </trkpt>
      <trkpt lat="42.98456861637532711029052734375" lon="-1.11248172819614410400390625">
        <ele>859</ele>
        <time>2020-08-21T10:39:44.000Z</time>
      </trkpt>
      <trkpt lat="42.98447993583977222442626953125" lon="-1.1124647967517375946044921875">
        <ele>858.4000244140625</ele>
        <time>2020-08-21T10:39:46.000Z</time>
      </trkpt>
      <trkpt lat="42.9843526147305965423583984375" lon="-1.112406961619853973388671875">
        <ele>857</ele>
        <time>2020-08-21T10:39:49.000Z</time>
      </trkpt>
      <trkpt lat="42.9842245392501354217529296875" lon="-1.1124044470489025115966796875">
        <ele>856</ele>
        <time>2020-08-21T10:39:52.000Z</time>
      </trkpt>
      <trkpt lat="42.9841844737529754638671875" lon="-1.11241609789431095123291015625">
        <ele>855.79998779296875</ele>
        <time>2020-08-21T10:39:53.000Z</time>
      </trkpt>
      <trkpt lat="42.98397718928754329681396484375" lon="-1.11245968379080295562744140625">
        <ele>855.20001220703125</ele>
        <time>2020-08-21T10:39:59.000Z</time>
      </trkpt>
      <trkpt lat="42.9839462600648403167724609375" lon="-1.1124622821807861328125">
        <ele>855</ele>
        <time>2020-08-21T10:40:00.000Z</time>
      </trkpt>
      <trkpt lat="42.98385657370090484619140625" lon="-1.11246756277978420257568359375">
        <ele>853.5999755859375</ele>
        <time>2020-08-21T10:40:03.000Z</time>
      </trkpt>
      <trkpt lat="42.9837405681610107421875" lon="-1.1125306785106658935546875">
        <ele>852.5999755859375</ele>
        <time>2020-08-21T10:40:06.000Z</time>
      </trkpt>
      <trkpt lat="42.98367284238338470458984375" lon="-1.11258775927126407623291015625">
        <ele>851.79998779296875</ele>
        <time>2020-08-21T10:40:08.000Z</time>
      </trkpt>
      <trkpt lat="42.9836373031139373779296875" lon="-1.11262195743620395660400390625">
        <ele>851.4000244140625</ele>
        <time>2020-08-21T10:40:09.000Z</time>
      </trkpt>
      <trkpt lat="42.9834869317710399627685546875" lon="-1.1127645336091518402099609375">
        <ele>850.4000244140625</ele>
        <time>2020-08-21T10:40:13.000Z</time>
      </trkpt>
      <trkpt lat="42.983452565968036651611328125" lon="-1.11279931850731372833251953125">
        <ele>850.20001220703125</ele>
        <time>2020-08-21T10:40:14.000Z</time>
      </trkpt>
      <trkpt lat="42.98335634171962738037109375" lon="-1.11294801346957683563232421875">
        <ele>850.5999755859375</ele>
        <time>2020-08-21T10:40:18.000Z</time>
      </trkpt>
      <trkpt lat="42.98327428288757801055908203125" lon="-1.113131828606128692626953125">
        <ele>850.5999755859375</ele>
        <time>2020-08-21T10:40:23.000Z</time>
      </trkpt>
      <trkpt lat="42.9832230694591999053955078125" lon="-1.11331413500010967254638671875">
        <ele>849.5999755859375</ele>
        <time>2020-08-21T10:40:27.000Z</time>
      </trkpt>
      <trkpt lat="42.98319700174033641815185546875" lon="-1.11336442641913890838623046875">
        <ele>849.20001220703125</ele>
        <time>2020-08-21T10:40:28.000Z</time>
      </trkpt>
      <trkpt lat="42.9831741191446781158447265625" lon="-1.11341991461813449859619140625">
        <ele>849</ele>
        <time>2020-08-21T10:40:29.000Z</time>
      </trkpt>
      <trkpt lat="42.98313832841813564300537109375" lon="-1.11351278610527515411376953125">
        <ele>848.20001220703125</ele>
        <time>2020-08-21T10:40:31.000Z</time>
      </trkpt>
      <trkpt lat="42.9831251688301563262939453125" lon="-1.11356391571462154388427734375">
        <ele>848.20001220703125</ele>
        <time>2020-08-21T10:40:32.000Z</time>
      </trkpt>
      <trkpt lat="42.98311217688024044036865234375" lon="-1.11362300813198089599609375">
        <ele>847.79998779296875</ele>
        <time>2020-08-21T10:40:33.000Z</time>
      </trkpt>
      <trkpt lat="42.98310220241546630859375" lon="-1.11368092708289623260498046875">
        <ele>847</ele>
        <time>2020-08-21T10:40:34.000Z</time>
      </trkpt>
      <trkpt lat="42.9830812476575374603271484375" lon="-1.1137385107576847076416015625">
        <ele>846.79998779296875</ele>
        <time>2020-08-21T10:40:35.000Z</time>
      </trkpt>
      <trkpt lat="42.9830121807754039764404296875" lon="-1.1138977669179439544677734375">
        <ele>845.79998779296875</ele>
        <time>2020-08-21T10:40:38.000Z</time>
      </trkpt>
      <trkpt lat="42.98298887908458709716796875" lon="-1.113962642848491668701171875">
        <ele>845.5999755859375</ele>
        <time>2020-08-21T10:40:39.000Z</time>
      </trkpt>
      <trkpt lat="42.98296616412699222564697265625" lon="-1.114020645618438720703125">
        <ele>845.79998779296875</ele>
        <time>2020-08-21T10:40:40.000Z</time>
      </trkpt>
      <trkpt lat="42.98291503451764583587646484375" lon="-1.11423446796834468841552734375">
        <ele>845.20001220703125</ele>
        <time>2020-08-21T10:40:44.000Z</time>
      </trkpt>
      <trkpt lat="42.98287748359143733978271484375" lon="-1.114391125738620758056640625">
        <ele>845.20001220703125</ele>
        <time>2020-08-21T10:40:47.000Z</time>
      </trkpt>
      <trkpt lat="42.9828763939440250396728515625" lon="-1.114433705806732177734375">
        <ele>845.20001220703125</ele>
        <time>2020-08-21T10:40:48.000Z</time>
      </trkpt>
      <trkpt lat="42.98279752023518085479736328125" lon="-1.114619113504886627197265625">
        <ele>845.4000244140625</ele>
        <time>2020-08-21T10:40:52.000Z</time>
      </trkpt>
      <trkpt lat="42.98272669315338134765625" lon="-1.11473855562508106231689453125">
        <ele>845.4000244140625</ele>
        <time>2020-08-21T10:40:54.000Z</time>
      </trkpt>
      <trkpt lat="42.98267162404954433441162109375" lon="-1.11484500579535961151123046875">
        <ele>845</ele>
        <time>2020-08-21T10:40:56.000Z</time>
      </trkpt>
      <trkpt lat="42.98254497349262237548828125" lon="-1.11509688198566436767578125">
        <ele>845.5999755859375</ele>
        <time>2020-08-21T10:41:01.000Z</time>
      </trkpt>
      <trkpt lat="42.98248923383653163909912109375" lon="-1.11523861996829509735107421875">
        <ele>845.20001220703125</ele>
        <time>2020-08-21T10:41:05.000Z</time>
      </trkpt>
      <trkpt lat="42.98248755745589733123779296875" lon="-1.1152692139148712158203125">
        <ele>845.20001220703125</ele>
        <time>2020-08-21T10:41:06.000Z</time>
      </trkpt>
      <trkpt lat="42.98244036734104156494140625" lon="-1.11541899852454662322998046875">
        <ele>844.5999755859375</ele>
        <time>2020-08-21T10:41:10.000Z</time>
      </trkpt>
      <trkpt lat="42.98241714946925640106201171875" lon="-1.11545403487980365753173828125">
        <ele>844.4000244140625</ele>
        <time>2020-08-21T10:41:11.000Z</time>
      </trkpt>
      <trkpt lat="42.982358224689960479736328125" lon="-1.1156044900417327880859375">
        <ele>843.5999755859375</ele>
        <time>2020-08-21T10:41:14.000Z</time>
      </trkpt>
      <trkpt lat="42.98232612200081348419189453125" lon="-1.11578285694122314453125">
        <ele>843.5999755859375</ele>
        <time>2020-08-21T10:41:17.000Z</time>
      </trkpt>
      <trkpt lat="42.9823319055140018463134765625" lon="-1.11584412865340709686279296875">
        <ele>843.5999755859375</ele>
        <time>2020-08-21T10:41:18.000Z</time>
      </trkpt>
      <trkpt lat="42.98233534209430217742919921875" lon="-1.11590464599430561065673828125">
        <ele>843.4000244140625</ele>
        <time>2020-08-21T10:41:19.000Z</time>
      </trkpt>
      <trkpt lat="42.9823144711554050445556640625" lon="-1.1160079948604106903076171875">
        <ele>844.5999755859375</ele>
        <time>2020-08-21T10:41:21.000Z</time>
      </trkpt>
      <trkpt lat="42.982305251061916351318359375" lon="-1.11606138758361339569091796875">
        <ele>845.4000244140625</ele>
        <time>2020-08-21T10:41:22.000Z</time>
      </trkpt>
      <trkpt lat="42.9822769202291965484619140625" lon="-1.116169430315494537353515625">
        <ele>845</ele>
        <time>2020-08-21T10:41:24.000Z</time>
      </trkpt>
      <trkpt lat="42.98222118057310581207275390625" lon="-1.11631519161164760589599609375">
        <ele>843.5999755859375</ele>
        <time>2020-08-21T10:41:27.000Z</time>
      </trkpt>
      <trkpt lat="42.98219234682619571685791015625" lon="-1.11636959016323089599609375">
        <ele>842.79998779296875</ele>
        <time>2020-08-21T10:41:28.000Z</time>
      </trkpt>
      <trkpt lat="42.98214255832135677337646484375" lon="-1.1165164411067962646484375">
        <ele>842</ele>
        <time>2020-08-21T10:41:31.000Z</time>
      </trkpt>
      <trkpt lat="42.98212277702987194061279296875" lon="-1.11656296066939830780029296875">
        <ele>841.79998779296875</ele>
        <time>2020-08-21T10:41:32.000Z</time>
      </trkpt>
      <trkpt lat="42.9820807836949825286865234375" lon="-1.116740070283412933349609375">
        <ele>841.4000244140625</ele>
        <time>2020-08-21T10:41:35.000Z</time>
      </trkpt>
      <trkpt lat="42.98203267157077789306640625" lon="-1.11694517545402050018310546875">
        <ele>840.79998779296875</ele>
        <time>2020-08-21T10:41:38.000Z</time>
      </trkpt>
      <trkpt lat="42.982016243040561676025390625" lon="-1.11701340414583683013916015625">
        <ele>840.4000244140625</ele>
        <time>2020-08-21T10:41:39.000Z</time>
      </trkpt>
      <trkpt lat="42.98194818198680877685546875" lon="-1.11727911047637462615966796875">
        <ele>840.20001220703125</ele>
        <time>2020-08-21T10:41:43.000Z</time>
      </trkpt>
      <trkpt lat="42.98188515007495880126953125" lon="-1.117516569793224334716796875">
        <ele>840</ele>
        <time>2020-08-21T10:41:47.000Z</time>
      </trkpt>
      <trkpt lat="42.98186377622187137603759765625" lon="-1.1176377721130847930908203125">
        <ele>839.4000244140625</ele>
        <time>2020-08-21T10:41:49.000Z</time>
      </trkpt>
      <trkpt lat="42.98184919171035289764404296875" lon="-1.1177316494286060333251953125">
        <ele>839.79998779296875</ele>
        <time>2020-08-21T10:41:51.000Z</time>
      </trkpt>
      <trkpt lat="42.98180409707129001617431640625" lon="-1.11786249093711376190185546875">
        <ele>840.5999755859375</ele>
        <time>2020-08-21T10:41:54.000Z</time>
      </trkpt>
      <trkpt lat="42.98177593387663364410400390625" lon="-1.11793407239019870758056640625">
        <ele>841.20001220703125</ele>
        <time>2020-08-21T10:41:56.000Z</time>
      </trkpt>
      <trkpt lat="42.9817391373217105865478515625" lon="-1.1180437915027141571044921875">
        <ele>841.5999755859375</ele>
        <time>2020-08-21T10:41:59.000Z</time>
      </trkpt>
      <trkpt lat="42.98172463662922382354736328125" lon="-1.11807606182992458343505859375">
        <ele>841.5999755859375</ele>
        <time>2020-08-21T10:42:00.000Z</time>
      </trkpt>
      <trkpt lat="42.98169764690101146697998046875" lon="-1.118136160075664520263671875">
        <ele>841.5999755859375</ele>
        <time>2020-08-21T10:42:02.000Z</time>
      </trkpt>
      <trkpt lat="42.981673590838909149169921875" lon="-1.118287704885005950927734375">
        <ele>842.79998779296875</ele>
        <time>2020-08-21T10:42:06.000Z</time>
      </trkpt>
      <trkpt lat="42.98166763968765735626220703125" lon="-1.11834344454109668731689453125">
        <ele>843</ele>
        <time>2020-08-21T10:42:08.000Z</time>
      </trkpt>
      <trkpt lat="42.981660850346088409423828125" lon="-1.11844268627464771270751953125">
        <ele>843.5999755859375</ele>
        <time>2020-08-21T10:42:11.000Z</time>
      </trkpt>
      <trkpt lat="42.98166126944124698638916015625" lon="-1.1184732802212238311767578125">
        <ele>843.79998779296875</ele>
        <time>2020-08-21T10:42:12.000Z</time>
      </trkpt>
      <trkpt lat="42.9816631972789764404296875" lon="-1.11850739456713199615478515625">
        <ele>844</ele>
        <time>2020-08-21T10:42:13.000Z</time>
      </trkpt>
      <trkpt lat="42.98165959306061267852783203125" lon="-1.11862055025994777679443359375">
        <ele>844.20001220703125</ele>
        <time>2020-08-21T10:42:16.000Z</time>
      </trkpt>
      <trkpt lat="42.981643415987491607666015625" lon="-1.1186727695167064666748046875">
        <ele>844.79998779296875</ele>
        <time>2020-08-21T10:42:18.000Z</time>
      </trkpt>
      <trkpt lat="42.9816234670579433441162109375" lon="-1.11872850917279720306396484375">
        <ele>845.4000244140625</ele>
        <time>2020-08-21T10:42:20.000Z</time>
      </trkpt>
      <trkpt lat="42.98158901743590831756591796875" lon="-1.11889396794140338897705078125">
        <ele>846</ele>
        <time>2020-08-21T10:42:25.000Z</time>
      </trkpt>
      <trkpt lat="42.98158482648432254791259765625" lon="-1.1189497075974941253662109375">
        <ele>846.4000244140625</ele>
        <time>2020-08-21T10:42:27.000Z</time>
      </trkpt>
      <trkpt lat="42.9815600998699665069580078125" lon="-1.11910016275942325592041015625">
        <ele>847</ele>
        <time>2020-08-21T10:42:33.000Z</time>
      </trkpt>
      <trkpt lat="42.98155180178582668304443359375" lon="-1.119124554097652435302734375">
        <ele>847.20001220703125</ele>
        <time>2020-08-21T10:42:34.000Z</time>
      </trkpt>
      <trkpt lat="42.98149086534976959228515625" lon="-1.1192692257463932037353515625">
        <ele>848</ele>
        <time>2020-08-21T10:42:41.000Z</time>
      </trkpt>
      <trkpt lat="42.981487177312374114990234375" lon="-1.11929110251367092132568359375">
        <ele>848.20001220703125</ele>
        <time>2020-08-21T10:42:42.000Z</time>
      </trkpt>
      <trkpt lat="42.98146831803023815155029296875" lon="-1.11937643028795719146728515625">
        <ele>848.5999755859375</ele>
        <time>2020-08-21T10:42:46.000Z</time>
      </trkpt>
      <trkpt lat="42.981456331908702850341796875" lon="-1.11943812109529972076416015625">
        <ele>849.20001220703125</ele>
        <time>2020-08-21T10:42:50.000Z</time>
      </trkpt>
      <trkpt lat="42.98144920729100704193115234375" lon="-1.1194749176502227783203125">
        <ele>849.4000244140625</ele>
        <time>2020-08-21T10:42:52.000Z</time>
      </trkpt>
      <trkpt lat="42.98142691142857074737548828125" lon="-1.11957575194537639617919921875">
        <ele>850</ele>
        <time>2020-08-21T10:42:57.000Z</time>
      </trkpt>
      <trkpt lat="42.9814219661056995391845703125" lon="-1.11958899535238742828369140625">
        <ele>850.5999755859375</ele>
        <time>2020-08-21T10:42:58.000Z</time>
      </trkpt>
      <trkpt lat="42.98142204992473125457763671875" lon="-1.11968572251498699188232421875">
        <ele>851.20001220703125</ele>
        <time>2020-08-21T10:43:03.000Z</time>
      </trkpt>
      <trkpt lat="42.98143227584660053253173828125" lon="-1.1198133789002895355224609375">
        <ele>851.5999755859375</ele>
        <time>2020-08-21T10:43:09.000Z</time>
      </trkpt>
      <trkpt lat="42.9814316891133785247802734375" lon="-1.11994103528559207916259765625">
        <ele>851.4000244140625</ele>
        <time>2020-08-21T10:43:15.000Z</time>
      </trkpt>
      <trkpt lat="42.98144015483558177947998046875" lon="-1.1199635826051235198974609375">
        <ele>851.5999755859375</ele>
        <time>2020-08-21T10:43:16.000Z</time>
      </trkpt>
      <trkpt lat="42.98147569410502910614013671875" lon="-1.12004212103784084320068359375">
        <ele>852.4000244140625</ele>
        <time>2020-08-21T10:43:20.000Z</time>
      </trkpt>
      <trkpt lat="42.98148407600820064544677734375" lon="-1.120090484619140625">
        <ele>853</ele>
        <time>2020-08-21T10:43:22.000Z</time>
      </trkpt>
      <trkpt lat="42.981501929461956024169921875" lon="-1.12013666890561580657958984375">
        <ele>853.20001220703125</ele>
        <time>2020-08-21T10:43:24.000Z</time>
      </trkpt>
      <trkpt lat="42.9815585911273956298828125" lon="-1.12025485374033451080322265625">
        <ele>854</ele>
        <time>2020-08-21T10:43:30.000Z</time>
      </trkpt>
      <trkpt lat="42.98157024197280406951904296875" lon="-1.1202760599553585052490234375">
        <ele>854.20001220703125</ele>
        <time>2020-08-21T10:43:31.000Z</time>
      </trkpt>
      <trkpt lat="42.9816137440502643585205078125" lon="-1.12036063335835933685302734375">
        <ele>854.79998779296875</ele>
        <time>2020-08-21T10:43:35.000Z</time>
      </trkpt>
      <trkpt lat="42.98163528554141521453857421875" lon="-1.12038812600076198577880859375">
        <ele>855</ele>
        <time>2020-08-21T10:43:37.000Z</time>
      </trkpt>
      <trkpt lat="42.98164886422455310821533203125" lon="-1.12039969302713871002197265625">
        <ele>855.4000244140625</ele>
        <time>2020-08-21T10:43:38.000Z</time>
      </trkpt>
      <trkpt lat="42.98171943984925746917724609375" lon="-1.1204735375940799713134765625">
        <ele>856</ele>
        <time>2020-08-21T10:43:43.000Z</time>
      </trkpt>
      <trkpt lat="42.98175279982388019561767578125" lon="-1.1204986833035945892333984375">
        <ele>856.4000244140625</ele>
        <time>2020-08-21T10:43:45.000Z</time>
      </trkpt>
      <trkpt lat="42.981803677976131439208984375" lon="-1.12054637633264064788818359375">
        <ele>856.79998779296875</ele>
        <time>2020-08-21T10:43:49.000Z</time>
      </trkpt>
      <trkpt lat="42.9818709008395671844482421875" lon="-1.1206012777984142303466796875">
        <ele>857.79998779296875</ele>
        <time>2020-08-21T10:43:54.000Z</time>
      </trkpt>
      <trkpt lat="42.98188556917011737823486328125" lon="-1.12061074934899806976318359375">
        <ele>857.79998779296875</ele>
        <time>2020-08-21T10:43:55.000Z</time>
      </trkpt>
      <trkpt lat="42.9819892533123493194580078125" lon="-1.12065718509256839752197265625">
        <ele>858.79998779296875</ele>
        <time>2020-08-21T10:44:02.000Z</time>
      </trkpt>
      <trkpt lat="42.98204197548329830169677734375" lon="-1.1206787265837192535400390625">
        <ele>859.4000244140625</ele>
        <time>2020-08-21T10:44:06.000Z</time>
      </trkpt>
      <trkpt lat="42.9821102879941463470458984375" lon="-1.12070932053029537200927734375">
        <ele>859.5999755859375</ele>
        <time>2020-08-21T10:44:11.000Z</time>
      </trkpt>
      <trkpt lat="42.98215948976576328277587890625" lon="-1.12074301578104496002197265625">
        <ele>859.79998779296875</ele>
        <time>2020-08-21T10:44:14.000Z</time>
      </trkpt>
      <trkpt lat="42.98220257274806499481201171875" lon="-1.1207853443920612335205078125">
        <ele>860.20001220703125</ele>
        <time>2020-08-21T10:44:17.000Z</time>
      </trkpt>
      <trkpt lat="42.9822551272809505462646484375" lon="-1.120813675224781036376953125">
        <ele>860.79998779296875</ele>
        <time>2020-08-21T10:44:20.000Z</time>
      </trkpt>
      <trkpt lat="42.98228991217911243438720703125" lon="-1.12083354033529758453369140625">
        <ele>861</ele>
        <time>2020-08-21T10:44:22.000Z</time>
      </trkpt>
      <trkpt lat="42.98233131878077983856201171875" lon="-1.120881401002407073974609375">
        <ele>861.5999755859375</ele>
        <time>2020-08-21T10:44:26.000Z</time>
      </trkpt>
      <trkpt lat="42.98234514892101287841796875" lon="-1.120894812047481536865234375">
        <ele>861.79998779296875</ele>
        <time>2020-08-21T10:44:27.000Z</time>
      </trkpt>
      <trkpt lat="42.9823751561343669891357421875" lon="-1.1209060437977313995361328125">
        <ele>862</ele>
        <time>2020-08-21T10:44:29.000Z</time>
      </trkpt>
      <trkpt lat="42.98239971511065959930419921875" lon="-1.12093605101108551025390625">
        <ele>862</ele>
        <time>2020-08-21T10:44:31.000Z</time>
      </trkpt>
      <trkpt lat="42.9824368469417095184326171875" lon="-1.12097360193729400634765625">
        <ele>862.5999755859375</ele>
        <time>2020-08-21T10:44:34.000Z</time>
      </trkpt>
      <trkpt lat="42.98244849778711795806884765625" lon="-1.12098776735365390777587890625">
        <ele>863</ele>
        <time>2020-08-21T10:44:35.000Z</time>
      </trkpt>
      <trkpt lat="42.9824812710285186767578125" lon="-1.12100553698837757110595703125">
        <ele>863.4000244140625</ele>
        <time>2020-08-21T10:44:37.000Z</time>
      </trkpt>
      <trkpt lat="42.9825890623033046722412109375" lon="-1.12103939987719058990478515625">
        <ele>863.4000244140625</ele>
        <time>2020-08-21T10:44:43.000Z</time>
      </trkpt>
      <trkpt lat="42.98261043615639209747314453125" lon="-1.12103797495365142822265625">
        <ele>863.5999755859375</ele>
        <time>2020-08-21T10:44:44.000Z</time>
      </trkpt>
      <trkpt lat="42.9826904833316802978515625" lon="-1.1210669763386249542236328125">
        <ele>863.79998779296875</ele>
        <time>2020-08-21T10:44:48.000Z</time>
      </trkpt>
      <trkpt lat="42.982705570757389068603515625" lon="-1.12107820808887481689453125">
        <ele>863.79998779296875</ele>
        <time>2020-08-21T10:44:49.000Z</time>
      </trkpt>
      <trkpt lat="42.98275577835738658905029296875" lon="-1.12110779620707035064697265625">
        <ele>863.79998779296875</ele>
        <time>2020-08-21T10:44:52.000Z</time>
      </trkpt>
      <trkpt lat="42.9827684350311756134033203125" lon="-1.1211236380040645599365234375">
        <ele>863.79998779296875</ele>
        <time>2020-08-21T10:44:53.000Z</time>
      </trkpt>
      <trkpt lat="42.982805483043193817138671875" lon="-1.1212386377155780792236328125">
        <ele>864.79998779296875</ele>
        <time>2020-08-21T10:44:58.000Z</time>
      </trkpt>
      <trkpt lat="42.98281126655638217926025390625" lon="-1.12128951586782932281494140625">
        <ele>865</ele>
        <time>2020-08-21T10:45:00.000Z</time>
      </trkpt>
      <trkpt lat="42.98284362070262432098388671875" lon="-1.12136126495897769927978515625">
        <ele>865.4000244140625</ele>
        <time>2020-08-21T10:45:03.000Z</time>
      </trkpt>
      <trkpt lat="42.9829280264675617218017578125" lon="-1.12149101682007312774658203125">
        <ele>865.20001220703125</ele>
        <time>2020-08-21T10:45:07.000Z</time>
      </trkpt>
      <trkpt lat="42.98306859098374843597412109375" lon="-1.12163082696497440338134765625">
        <ele>864.79998779296875</ele>
        <time>2020-08-21T10:45:12.000Z</time>
      </trkpt>
      <trkpt lat="42.98324595205485820770263671875" lon="-1.1217965371906757354736328125">
        <ele>864.4000244140625</ele>
        <time>2020-08-21T10:45:18.000Z</time>
      </trkpt>
      <trkpt lat="42.98332407139241695404052734375" lon="-1.1218749918043613433837890625">
        <ele>864</ele>
        <time>2020-08-21T10:45:21.000Z</time>
      </trkpt>
      <trkpt lat="42.98334921710193157196044921875" lon="-1.12191145308315753936767578125">
        <ele>863.5999755859375</ele>
        <time>2020-08-21T10:45:22.000Z</time>
      </trkpt>
      <trkpt lat="42.983372770249843597412109375" lon="-1.121948249638080596923828125">
        <ele>863</ele>
        <time>2020-08-21T10:45:23.000Z</time>
      </trkpt>
      <trkpt lat="42.9834865964949131011962890625" lon="-1.12209342420101165771484375">
        <ele>862.4000244140625</ele>
        <time>2020-08-21T10:45:27.000Z</time>
      </trkpt>
      <trkpt lat="42.98355859704315662384033203125" lon="-1.12225435674190521240234375">
        <ele>862</ele>
        <time>2020-08-21T10:45:30.000Z</time>
      </trkpt>
      <trkpt lat="42.9835855029523372650146484375" lon="-1.12230339087545871734619140625">
        <ele>861.4000244140625</ele>
        <time>2020-08-21T10:45:31.000Z</time>
      </trkpt>
      <trkpt lat="42.98361517488956451416015625" lon="-1.12235091626644134521484375">
        <ele>861</ele>
        <time>2020-08-21T10:45:32.000Z</time>
      </trkpt>
      <trkpt lat="42.98365163616836071014404296875" lon="-1.12240095622837543487548828125">
        <ele>860.5999755859375</ele>
        <time>2020-08-21T10:45:33.000Z</time>
      </trkpt>
      <trkpt lat="42.9837564937770366668701171875" lon="-1.12255669198930263519287109375">
        <ele>860</ele>
        <time>2020-08-21T10:45:36.000Z</time>
      </trkpt>
      <trkpt lat="42.983791530132293701171875" lon="-1.12260916270315647125244140625">
        <ele>859.79998779296875</ele>
        <time>2020-08-21T10:45:37.000Z</time>
      </trkpt>
      <trkpt lat="42.98382011242210865020751953125" lon="-1.12266330979764461517333984375">
        <ele>859.4000244140625</ele>
        <time>2020-08-21T10:45:38.000Z</time>
      </trkpt>
      <trkpt lat="42.983883060514926910400390625" lon="-1.1228410899639129638671875">
        <ele>858</ele>
        <time>2020-08-21T10:45:41.000Z</time>
      </trkpt>
      <trkpt lat="42.983892448246479034423828125" lon="-1.12289750017225742340087890625">
        <ele>857.4000244140625</ele>
        <time>2020-08-21T10:45:42.000Z</time>
      </trkpt>
      <trkpt lat="42.98390024341642856597900390625" lon="-1.12296044826507568359375">
        <ele>857</ele>
        <time>2020-08-21T10:45:43.000Z</time>
      </trkpt>
      <trkpt lat="42.98389722593128681182861328125" lon="-1.12302138470113277435302734375">
        <ele>856.5999755859375</ele>
        <time>2020-08-21T10:45:44.000Z</time>
      </trkpt>
      <trkpt lat="42.98388540744781494140625" lon="-1.1230856738984584808349609375">
        <ele>856.20001220703125</ele>
        <time>2020-08-21T10:45:45.000Z</time>
      </trkpt>
      <trkpt lat="42.9838627763092517852783203125" lon="-1.12315348349511623382568359375">
        <ele>855.5999755859375</ele>
        <time>2020-08-21T10:45:46.000Z</time>
      </trkpt>
      <trkpt lat="42.9837615229189395904541015625" lon="-1.1233743466436862945556640625">
        <ele>855</ele>
        <time>2020-08-21T10:45:49.000Z</time>
      </trkpt>
      <trkpt lat="42.983718104660511016845703125" lon="-1.123473756015300750732421875">
        <ele>854.4000244140625</ele>
        <time>2020-08-21T10:45:50.000Z</time>
      </trkpt>
      <trkpt lat="42.98362162895500659942626953125" lon="-1.1236995644867420196533203125">
        <ele>853.20001220703125</ele>
        <time>2020-08-21T10:45:53.000Z</time>
      </trkpt>
      <trkpt lat="42.98354954458773136138916015625" lon="-1.12382948398590087890625">
        <ele>851.79998779296875</ele>
        <time>2020-08-21T10:45:55.000Z</time>
      </trkpt>
      <trkpt lat="42.98350092954933643341064453125" lon="-1.1239917576313018798828125">
        <ele>850.79998779296875</ele>
        <time>2020-08-21T10:45:57.000Z</time>
      </trkpt>
      <trkpt lat="42.98347075469791889190673828125" lon="-1.1240801028907299041748046875">
        <ele>850.5999755859375</ele>
        <time>2020-08-21T10:45:58.000Z</time>
      </trkpt>
      <trkpt lat="42.98340051434934139251708984375" lon="-1.12424732185900211334228515625">
        <ele>849</ele>
        <time>2020-08-21T10:46:00.000Z</time>
      </trkpt>
      <trkpt lat="42.98336497507989406585693359375" lon="-1.1243362538516521453857421875">
        <ele>848.5999755859375</ele>
        <time>2020-08-21T10:46:01.000Z</time>
      </trkpt>
      <trkpt lat="42.983282245695590972900390625" lon="-1.1244978569447994232177734375">
        <ele>848.5999755859375</ele>
        <time>2020-08-21T10:46:03.000Z</time>
      </trkpt>
      <trkpt lat="42.9832059703767299652099609375" lon="-1.1246453784406185150146484375">
        <ele>848.20001220703125</ele>
        <time>2020-08-21T10:46:05.000Z</time>
      </trkpt>
      <trkpt lat="42.98316213302314281463623046875" lon="-1.124709583818912506103515625">
        <ele>848.20001220703125</ele>
        <time>2020-08-21T10:46:06.000Z</time>
      </trkpt>
      <trkpt lat="42.9829426109790802001953125" lon="-1.1249353922903537750244140625">
        <ele>848</ele>
        <time>2020-08-21T10:46:11.000Z</time>
      </trkpt>
      <trkpt lat="42.98289810307323932647705078125" lon="-1.12497772090137004852294921875">
        <ele>847.5999755859375</ele>
        <time>2020-08-21T10:46:12.000Z</time>
      </trkpt>
      <trkpt lat="42.98277572728693485260009765625" lon="-1.12511669285595417022705078125">
        <ele>846.4000244140625</ele>
        <time>2020-08-21T10:46:15.000Z</time>
      </trkpt>
      <trkpt lat="42.98274940811097621917724609375" lon="-1.1251630447804927825927734375">
        <ele>846</ele>
        <time>2020-08-21T10:46:16.000Z</time>
      </trkpt>
      <trkpt lat="42.982727698981761932373046875" lon="-1.1252176947891712188720703125">
        <ele>845.4000244140625</ele>
        <time>2020-08-21T10:46:17.000Z</time>
      </trkpt>
      <trkpt lat="42.98270724713802337646484375" lon="-1.12527544610202312469482421875">
        <ele>844.79998779296875</ele>
        <time>2020-08-21T10:46:18.000Z</time>
      </trkpt>
      <trkpt lat="42.98268117941915988922119140625" lon="-1.12538742832839488983154296875">
        <ele>843.79998779296875</ele>
        <time>2020-08-21T10:46:20.000Z</time>
      </trkpt>
      <trkpt lat="42.98267095349729061126708984375" lon="-1.125446520745754241943359375">
        <ele>843.5999755859375</ele>
        <time>2020-08-21T10:46:21.000Z</time>
      </trkpt>
      <trkpt lat="42.9826691932976245880126953125" lon="-1.1255077086389064788818359375">
        <ele>843.5999755859375</ele>
        <time>2020-08-21T10:46:22.000Z</time>
      </trkpt>
      <trkpt lat="42.98268184997141361236572265625" lon="-1.1256118118762969970703125">
        <ele>842.5999755859375</ele>
        <time>2020-08-21T10:46:24.000Z</time>
      </trkpt>
      <trkpt lat="42.98270666040480136871337890625" lon="-1.125710718333721160888671875">
        <ele>842.20001220703125</ele>
        <time>2020-08-21T10:46:26.000Z</time>
      </trkpt>
      <trkpt lat="42.98275125212967395782470703125" lon="-1.12580652348697185516357421875">
        <ele>841.4000244140625</ele>
        <time>2020-08-21T10:46:28.000Z</time>
      </trkpt>
      <trkpt lat="42.9828039743006229400634765625" lon="-1.12590610049664974212646484375">
        <ele>840.5999755859375</ele>
        <time>2020-08-21T10:46:30.000Z</time>
      </trkpt>
      <trkpt lat="42.98282903619110584259033203125" lon="-1.12595253624022006988525390625">
        <ele>840.20001220703125</ele>
        <time>2020-08-21T10:46:31.000Z</time>
      </trkpt>
      <trkpt lat="42.982900030910968780517578125" lon="-1.12604138441383838653564453125">
        <ele>839.4000244140625</ele>
        <time>2020-08-21T10:46:33.000Z</time>
      </trkpt>
      <trkpt lat="42.98293925821781158447265625" lon="-1.12608144991099834442138671875">
        <ele>838.5999755859375</ele>
        <time>2020-08-21T10:46:34.000Z</time>
      </trkpt>
      <trkpt lat="42.983118630945682525634765625" lon="-1.12622779794037342071533203125">
        <ele>837.5999755859375</ele>
        <time>2020-08-21T10:46:38.000Z</time>
      </trkpt>
      <trkpt lat="42.9831704311072826385498046875" lon="-1.126259900629520416259765625">
        <ele>837.4000244140625</ele>
        <time>2020-08-21T10:46:39.000Z</time>
      </trkpt>
      <trkpt lat="42.98331770114600658416748046875" lon="-1.12632335163652896881103515625">
        <ele>836.5999755859375</ele>
        <time>2020-08-21T10:46:42.000Z</time>
      </trkpt>
      <trkpt lat="42.9833615384995937347412109375" lon="-1.12632595002651214599609375">
        <ele>836.4000244140625</ele>
        <time>2020-08-21T10:46:43.000Z</time>
      </trkpt>
      <trkpt lat="42.98351886682212352752685546875" lon="-1.12633978016674518585205078125">
        <ele>836</ele>
        <time>2020-08-21T10:46:47.000Z</time>
      </trkpt>
      <trkpt lat="42.98363872803747653961181640625" lon="-1.1263650096952915191650390625">
        <ele>836.79998779296875</ele>
        <time>2020-08-21T10:46:52.000Z</time>
      </trkpt>
      <trkpt lat="42.983759343624114990234375" lon="-1.1263552866876125335693359375">
        <ele>837</ele>
        <time>2020-08-21T10:46:56.000Z</time>
      </trkpt>
      <trkpt lat="42.9838155023753643035888671875" lon="-1.12634983845055103302001953125">
        <ele>836.79998779296875</ele>
        <time>2020-08-21T10:46:58.000Z</time>
      </trkpt>
      <trkpt lat="42.98388733528554439544677734375" lon="-1.126328967511653900146484375">
        <ele>837.20001220703125</ele>
        <time>2020-08-21T10:47:01.000Z</time>
      </trkpt>
      <trkpt lat="42.98395019955933094024658203125" lon="-1.12632502801716327667236328125">
        <ele>837.5999755859375</ele>
        <time>2020-08-21T10:47:03.000Z</time>
      </trkpt>
      <trkpt lat="42.98405681736767292022705078125" lon="-1.12631496973335742950439453125">
        <ele>838.4000244140625</ele>
        <time>2020-08-21T10:47:08.000Z</time>
      </trkpt>
      <trkpt lat="42.9840773530304431915283203125" lon="-1.1263130418956279754638671875">
        <ele>838.5999755859375</ele>
        <time>2020-08-21T10:47:09.000Z</time>
      </trkpt>
      <trkpt lat="42.98415471799671649932861328125" lon="-1.12627725116908550262451171875">
        <ele>839.4000244140625</ele>
        <time>2020-08-21T10:47:13.000Z</time>
      </trkpt>
      <trkpt lat="42.98417567275464534759521484375" lon="-1.1262769997119903564453125">
        <ele>839.79998779296875</ele>
        <time>2020-08-21T10:47:14.000Z</time>
      </trkpt>
      <trkpt lat="42.98426921479403972625732421875" lon="-1.1262474954128265380859375">
        <ele>840</ele>
        <time>2020-08-21T10:47:18.000Z</time>
      </trkpt>
      <trkpt lat="42.9843452386558055877685546875" lon="-1.1262288875877857208251953125">
        <ele>840.79998779296875</ele>
        <time>2020-08-21T10:47:22.000Z</time>
      </trkpt>
      <trkpt lat="42.984472475945949554443359375" lon="-1.12619963474571704864501953125">
        <ele>841.20001220703125</ele>
        <time>2020-08-21T10:47:27.000Z</time>
      </trkpt>
      <trkpt lat="42.98460616730153560638427734375" lon="-1.12617976963520050048828125">
        <ele>841.79998779296875</ele>
        <time>2020-08-21T10:47:32.000Z</time>
      </trkpt>
      <trkpt lat="42.984632067382335662841796875" lon="-1.12617817707359790802001953125">
        <ele>841.79998779296875</ele>
        <time>2020-08-21T10:47:33.000Z</time>
      </trkpt>
      <trkpt lat="42.9847435466945171356201171875" lon="-1.126178763806819915771484375">
        <ele>842.5999755859375</ele>
        <time>2020-08-21T10:47:38.000Z</time>
      </trkpt>
      <trkpt lat="42.98488377593457698822021484375" lon="-1.12618303857743740081787109375">
        <ele>842.5999755859375</ele>
        <time>2020-08-21T10:47:44.000Z</time>
      </trkpt>
      <trkpt lat="42.98491001129150390625" lon="-1.12618915736675262451171875">
        <ele>843</ele>
        <time>2020-08-21T10:47:45.000Z</time>
      </trkpt>
      <trkpt lat="42.98504956997931003570556640625" lon="-1.12622025422751903533935546875">
        <ele>843</ele>
        <time>2020-08-21T10:47:51.000Z</time>
      </trkpt>
      <trkpt lat="42.9851519130170345306396484375" lon="-1.12620122730731964111328125">
        <ele>842.5999755859375</ele>
        <time>2020-08-21T10:47:56.000Z</time>
      </trkpt>
      <trkpt lat="42.98526548780500888824462890625" lon="-1.12619276158511638641357421875">
        <ele>843.4000244140625</ele>
        <time>2020-08-21T10:48:01.000Z</time>
      </trkpt>
      <trkpt lat="42.98531058244407176971435546875" lon="-1.126196868717670440673828125">
        <ele>843.79998779296875</ele>
        <time>2020-08-21T10:48:03.000Z</time>
      </trkpt>
      <trkpt lat="42.98533002845942974090576171875" lon="-1.126200892031192779541015625">
        <ele>844</ele>
        <time>2020-08-21T10:48:04.000Z</time>
      </trkpt>
      <trkpt lat="42.985386438667774200439453125" lon="-1.1262124590575695037841796875">
        <ele>844.20001220703125</ele>
        <time>2020-08-21T10:48:07.000Z</time>
      </trkpt>
      <trkpt lat="42.9854573495686054229736328125" lon="-1.126230396330356597900390625">
        <ele>844.79998779296875</ele>
        <time>2020-08-21T10:48:11.000Z</time>
      </trkpt>
      <trkpt lat="42.98547319136559963226318359375" lon="-1.12623400054872035980224609375">
        <ele>845</ele>
        <time>2020-08-21T10:48:12.000Z</time>
      </trkpt>
      <trkpt lat="42.9855016060173511505126953125" lon="-1.12624120898544788360595703125">
        <ele>845.4000244140625</ele>
        <time>2020-08-21T10:48:14.000Z</time>
      </trkpt>
      <trkpt lat="42.98554477281868457794189453125" lon="-1.12624120898544788360595703125">
        <ele>845.5999755859375</ele>
        <time>2020-08-21T10:48:17.000Z</time>
      </trkpt>
      <trkpt lat="42.98555818386375904083251953125" lon="-1.1262456513941287994384765625">
        <ele>845.5999755859375</ele>
        <time>2020-08-21T10:48:18.000Z</time>
      </trkpt>
      <trkpt lat="42.98562054522335529327392578125" lon="-1.12626316957175731658935546875">
        <ele>846</ele>
        <time>2020-08-21T10:48:23.000Z</time>
      </trkpt>
      <trkpt lat="42.9856558330357074737548828125" lon="-1.12625763751566410064697265625">
        <ele>846</ele>
        <time>2020-08-21T10:48:24.000Z</time>
      </trkpt>
      <trkpt lat="42.98569899983704090118408203125" lon="-1.12627364695072174072265625">
        <ele>846.5999755859375</ele>
        <time>2020-08-21T10:48:26.000Z</time>
      </trkpt>
      <trkpt lat="42.985719032585620880126953125" lon="-1.1262728087604045867919921875">
        <ele>846.79998779296875</ele>
        <time>2020-08-21T10:48:27.000Z</time>
      </trkpt>
      <trkpt lat="42.985755912959575653076171875" lon="-1.12627306021749973297119140625">
        <ele>847.20001220703125</ele>
        <time>2020-08-21T10:48:29.000Z</time>
      </trkpt>
      <trkpt lat="42.98580519855022430419921875" lon="-1.12628261558711528778076171875">
        <ele>846.79998779296875</ele>
        <time>2020-08-21T10:48:32.000Z</time>
      </trkpt>
      <trkpt lat="42.98584836535155773162841796875" lon="-1.1262810230255126953125">
        <ele>846.5999755859375</ele>
        <time>2020-08-21T10:48:34.000Z</time>
      </trkpt>
      <trkpt lat="42.98591374419629573822021484375" lon="-1.12627423368394374847412109375">
        <ele>847.20001220703125</ele>
        <time>2020-08-21T10:48:38.000Z</time>
      </trkpt>
      <trkpt lat="42.985987924039363861083984375" lon="-1.1262956075370311737060546875">
        <ele>848</ele>
        <time>2020-08-21T10:48:43.000Z</time>
      </trkpt>
      <trkpt lat="42.98599697649478912353515625" lon="-1.12629376351833343505859375">
        <ele>848</ele>
        <time>2020-08-21T10:48:44.000Z</time>
      </trkpt>
      <trkpt lat="42.98603528179228305816650390625" lon="-1.12628362141549587249755859375">
        <ele>848.20001220703125</ele>
        <time>2020-08-21T10:48:47.000Z</time>
      </trkpt>
      <trkpt lat="42.98611088655889034271240234375" lon="-1.1262855492532253265380859375">
        <ele>848</ele>
        <time>2020-08-21T10:48:50.000Z</time>
      </trkpt>
      <trkpt lat="42.986238710582256317138671875" lon="-1.1263049952685832977294921875">
        <ele>848.79998779296875</ele>
        <time>2020-08-21T10:48:55.000Z</time>
      </trkpt>
      <trkpt lat="42.98631012439727783203125" lon="-1.1263170652091503143310546875">
        <ele>848.79998779296875</ele>
        <time>2020-08-21T10:48:58.000Z</time>
      </trkpt>
      <trkpt lat="42.98635915853083133697509765625" lon="-1.1263217590749263763427734375">
        <ele>848.79998779296875</ele>
        <time>2020-08-21T10:49:00.000Z</time>
      </trkpt>
      <trkpt lat="42.98652394674718379974365234375" lon="-1.12633525393903255462646484375">
        <ele>848.79998779296875</ele>
        <time>2020-08-21T10:49:05.000Z</time>
      </trkpt>
      <trkpt lat="42.98665277659893035888671875" lon="-1.12633894197642803192138671875">
        <ele>849.4000244140625</ele>
        <time>2020-08-21T10:49:10.000Z</time>
      </trkpt>
      <trkpt lat="42.98667448572814464569091796875" lon="-1.1263472400605678558349609375">
        <ele>849.79998779296875</ele>
        <time>2020-08-21T10:49:11.000Z</time>
      </trkpt>
      <trkpt lat="42.9867759905755519866943359375" lon="-1.1263790912926197052001953125">
        <ele>850.79998779296875</ele>
        <time>2020-08-21T10:49:15.000Z</time>
      </trkpt>
      <trkpt lat="42.986892499029636383056640625" lon="-1.12642276100814342498779296875">
        <ele>851.4000244140625</ele>
        <time>2020-08-21T10:49:20.000Z</time>
      </trkpt>
      <trkpt lat="42.98694069497287273406982421875" lon="-1.126438938081264495849609375">
        <ele>852</ele>
        <time>2020-08-21T10:49:22.000Z</time>
      </trkpt>
      <trkpt lat="42.9870036430656909942626953125" lon="-1.126461736857891082763671875">
        <ele>852.5999755859375</ele>
        <time>2020-08-21T10:49:25.000Z</time>
      </trkpt>
      <trkpt lat="42.987053096294403076171875" lon="-1.1264753155410289764404296875">
        <ele>853.20001220703125</ele>
        <time>2020-08-21T10:49:27.000Z</time>
      </trkpt>
      <trkpt lat="42.9871028847992420196533203125" lon="-1.12650825642049312591552734375">
        <ele>853.5999755859375</ele>
        <time>2020-08-21T10:49:30.000Z</time>
      </trkpt>
      <trkpt lat="42.98720908351242542266845703125" lon="-1.12658922560513019561767578125">
        <ele>853.79998779296875</ele>
        <time>2020-08-21T10:49:35.000Z</time>
      </trkpt>
      <trkpt lat="42.9872316308319568634033203125" lon="-1.12661386840045452117919921875">
        <ele>854.20001220703125</ele>
        <time>2020-08-21T10:49:36.000Z</time>
      </trkpt>
      <trkpt lat="42.98731318674981594085693359375" lon="-1.1267039738595485687255859375">
        <ele>855.20001220703125</ele>
        <time>2020-08-21T10:49:40.000Z</time>
      </trkpt>
      <trkpt lat="42.98733271658420562744140625" lon="-1.1267271079123020172119140625">
        <ele>855.5999755859375</ele>
        <time>2020-08-21T10:49:41.000Z</time>
      </trkpt>
      <trkpt lat="42.98739465884864330291748046875" lon="-1.12679240293800830841064453125">
        <ele>856.20001220703125</ele>
        <time>2020-08-21T10:49:45.000Z</time>
      </trkpt>
      <trkpt lat="42.9874321259558200836181640625" lon="-1.1268149502575397491455078125">
        <ele>856.20001220703125</ele>
        <time>2020-08-21T10:49:47.000Z</time>
      </trkpt>
      <trkpt lat="42.98752575181424617767333984375" lon="-1.12680874764919281005859375">
        <ele>855</ele>
        <time>2020-08-21T10:49:50.000Z</time>
      </trkpt>
      <trkpt lat="42.9875541664659976959228515625" lon="-1.1267877928912639617919921875">
        <ele>854.5999755859375</ele>
        <time>2020-08-21T10:49:51.000Z</time>
      </trkpt>
      <trkpt lat="42.9876275919377803802490234375" lon="-1.126718223094940185546875">
        <ele>854</ele>
        <time>2020-08-21T10:49:53.000Z</time>
      </trkpt>
      <trkpt lat="42.9876688309013843536376953125" lon="-1.12667463719844818115234375">
        <ele>854</ele>
        <time>2020-08-21T10:49:54.000Z</time>
      </trkpt>
      <trkpt lat="42.98774887807667255401611328125" lon="-1.12658536992967128753662109375">
        <ele>853.4000244140625</ele>
        <time>2020-08-21T10:49:56.000Z</time>
      </trkpt>
      <trkpt lat="42.987846024334430694580078125" lon="-1.1265313066542148590087890625">
        <ele>853</ele>
        <time>2020-08-21T10:49:58.000Z</time>
      </trkpt>
      <trkpt lat="42.98790260218083858489990234375" lon="-1.12653155811131000518798828125">
        <ele>852.5999755859375</ele>
        <time>2020-08-21T10:49:59.000Z</time>
      </trkpt>
      <trkpt lat="42.9879903607070446014404296875" lon="-1.1265889741480350494384765625">
        <ele>852.20001220703125</ele>
        <time>2020-08-21T10:50:01.000Z</time>
      </trkpt>
      <trkpt lat="42.988069318234920501708984375" lon="-1.12672953866422176361083984375">
        <ele>853.20001220703125</ele>
        <time>2020-08-21T10:50:05.000Z</time>
      </trkpt>
      <trkpt lat="42.9880865849554538726806640625" lon="-1.12676071934401988983154296875">
        <ele>853.4000244140625</ele>
        <time>2020-08-21T10:50:06.000Z</time>
      </trkpt>
      <trkpt lat="42.988100163638591766357421875" lon="-1.1267893016338348388671875">
        <ele>853.79998779296875</ele>
        <time>2020-08-21T10:50:07.000Z</time>
      </trkpt>
      <trkpt lat="42.98814986832439899444580078125" lon="-1.12685342319309711456298828125">
        <ele>854.4000244140625</ele>
        <time>2020-08-21T10:50:10.000Z</time>
      </trkpt>
      <trkpt lat="42.98833795823156833648681640625" lon="-1.1269705183804035186767578125">
        <ele>854</ele>
        <time>2020-08-21T10:50:17.000Z</time>
      </trkpt>
      <trkpt lat="42.98846670426428318023681640625" lon="-1.12695367075502872467041015625">
        <ele>852.79998779296875</ele>
        <time>2020-08-21T10:50:22.000Z</time>
      </trkpt>
      <trkpt lat="42.98849184997379779815673828125" lon="-1.12694730050861835479736328125">
        <ele>852.4000244140625</ele>
        <time>2020-08-21T10:50:23.000Z</time>
      </trkpt>
      <trkpt lat="42.9885941930115222930908203125" lon="-1.1269054748117923736572265625">
        <ele>851.4000244140625</ele>
        <time>2020-08-21T10:50:26.000Z</time>
      </trkpt>
      <trkpt lat="42.98862813971936702728271484375" lon="-1.1268991045653820037841796875">
        <ele>851.20001220703125</ele>
        <time>2020-08-21T10:50:27.000Z</time>
      </trkpt>
      <trkpt lat="42.98870659433305263519287109375" lon="-1.12691008485853672027587890625">
        <ele>850.79998779296875</ele>
        <time>2020-08-21T10:50:29.000Z</time>
      </trkpt>
      <trkpt lat="42.988751940429210662841796875" lon="-1.1269314587116241455078125">
        <ele>850.5999755859375</ele>
        <time>2020-08-21T10:50:30.000Z</time>
      </trkpt>
      <trkpt lat="42.98888680525124073028564453125" lon="-1.12705140374600887298583984375">
        <ele>850.5999755859375</ele>
        <time>2020-08-21T10:50:34.000Z</time>
      </trkpt>
      <trkpt lat="42.988916896283626556396484375" lon="-1.1271270923316478729248046875">
        <ele>851.20001220703125</ele>
        <time>2020-08-21T10:50:37.000Z</time>
      </trkpt>
      <trkpt lat="42.988924942910671234130859375" lon="-1.12718752585351467132568359375">
        <ele>851.4000244140625</ele>
        <time>2020-08-21T10:50:39.000Z</time>
      </trkpt>
      <trkpt lat="42.9889532737433910369873046875" lon="-1.1273289285600185394287109375">
        <ele>852.20001220703125</ele>
        <time>2020-08-21T10:50:43.000Z</time>
      </trkpt>
      <trkpt lat="42.98896241001784801483154296875" lon="-1.1274177767336368560791015625">
        <ele>852.79998779296875</ele>
        <time>2020-08-21T10:50:46.000Z</time>
      </trkpt>
      <trkpt lat="42.988964505493640899658203125" lon="-1.1275371350347995758056640625">
        <ele>853</ele>
        <time>2020-08-21T10:50:51.000Z</time>
      </trkpt>
      <trkpt lat="42.98896844498813152313232421875" lon="-1.12756018526852130889892578125">
        <ele>853.20001220703125</ele>
        <time>2020-08-21T10:50:52.000Z</time>
      </trkpt>
      <trkpt lat="42.9889936745166778564453125" lon="-1.12769630737602710723876953125">
        <ele>853.5999755859375</ele>
        <time>2020-08-21T10:50:58.000Z</time>
      </trkpt>
      <trkpt lat="42.9890620708465576171875" lon="-1.12789428792893886566162109375">
        <ele>853.79998779296875</ele>
        <time>2020-08-21T10:51:03.000Z</time>
      </trkpt>
      <trkpt lat="42.9891366697847843170166015625" lon="-1.12807801924645900726318359375">
        <ele>853.20001220703125</ele>
        <time>2020-08-21T10:51:07.000Z</time>
      </trkpt>
      <trkpt lat="42.9891814291477203369140625" lon="-1.1281919293105602264404296875">
        <ele>852.5999755859375</ele>
        <time>2020-08-21T10:51:09.000Z</time>
      </trkpt>
      <trkpt lat="42.98922878690063953399658203125" lon="-1.12831874750554561614990234375">
        <ele>852</ele>
        <time>2020-08-21T10:51:11.000Z</time>
      </trkpt>
      <trkpt lat="42.9892526753246784210205078125" lon="-1.12837792374193668365478515625">
        <ele>851.5999755859375</ele>
        <time>2020-08-21T10:51:12.000Z</time>
      </trkpt>
      <trkpt lat="42.98928360454738140106201171875" lon="-1.12843257375061511993408203125">
        <ele>851.4000244140625</ele>
        <time>2020-08-21T10:51:13.000Z</time>
      </trkpt>
      <trkpt lat="42.9893557727336883544921875" lon="-1.12854145467281341552734375">
        <ele>850.79998779296875</ele>
        <time>2020-08-21T10:51:15.000Z</time>
      </trkpt>
      <trkpt lat="42.9893938265740871429443359375" lon="-1.1286113597452640533447265625">
        <ele>850.79998779296875</ele>
        <time>2020-08-21T10:51:16.000Z</time>
      </trkpt>
      <trkpt lat="42.9895115084946155548095703125" lon="-1.12887664698064327239990234375">
        <ele>850.20001220703125</ele>
        <time>2020-08-21T10:51:20.000Z</time>
      </trkpt>
      <trkpt lat="42.98952969722449779510498046875" lon="-1.12893951125442981719970703125">
        <ele>850.20001220703125</ele>
        <time>2020-08-21T10:51:21.000Z</time>
      </trkpt>
      <trkpt lat="42.989579737186431884765625" lon="-1.1290911398828029632568359375">
        <ele>850.5999755859375</ele>
        <time>2020-08-21T10:51:24.000Z</time>
      </trkpt>
      <trkpt lat="42.9895944893360137939453125" lon="-1.12912483513355255126953125">
        <ele>850.79998779296875</ele>
        <time>2020-08-21T10:51:25.000Z</time>
      </trkpt>
      <trkpt lat="42.9896266758441925048828125" lon="-1.1292359791696071624755859375">
        <ele>851.20001220703125</ele>
        <time>2020-08-21T10:51:28.000Z</time>
      </trkpt>
      <trkpt lat="42.98968073911964893341064453125" lon="-1.12949288450181484222412109375">
        <ele>851.4000244140625</ele>
        <time>2020-08-21T10:51:34.000Z</time>
      </trkpt>
      <trkpt lat="42.989689372479915618896484375" lon="-1.12953496165573596954345703125">
        <ele>851.5999755859375</ele>
        <time>2020-08-21T10:51:35.000Z</time>
      </trkpt>
      <trkpt lat="42.98970890231430530548095703125" lon="-1.129628084599971771240234375">
        <ele>852.4000244140625</ele>
        <time>2020-08-21T10:51:38.000Z</time>
      </trkpt>
      <trkpt lat="42.98972566612064838409423828125" lon="-1.12976856529712677001953125">
        <ele>852.79998779296875</ele>
        <time>2020-08-21T10:51:42.000Z</time>
      </trkpt>
      <trkpt lat="42.98972818069159984588623046875" lon="-1.12985112704336643218994140625">
        <ele>853</ele>
        <time>2020-08-21T10:51:44.000Z</time>
      </trkpt>
      <trkpt lat="42.98975341022014617919921875" lon="-1.13004424609243869781494140625">
        <ele>853.5999755859375</ele>
        <time>2020-08-21T10:51:49.000Z</time>
      </trkpt>
      <trkpt lat="42.98976137302815914154052734375" lon="-1.13008246757090091705322265625">
        <ele>853.79998779296875</ele>
        <time>2020-08-21T10:51:50.000Z</time>
      </trkpt>
      <trkpt lat="42.9897767119109630584716796875" lon="-1.13022026605904102325439453125">
        <ele>854.5999755859375</ele>
        <time>2020-08-21T10:51:54.000Z</time>
      </trkpt>
      <trkpt lat="42.98978199250996112823486328125" lon="-1.13030341453850269317626953125">
        <ele>855</ele>
        <time>2020-08-21T10:51:56.000Z</time>
      </trkpt>
      <trkpt lat="42.9897887818515300750732421875" lon="-1.13038270734250545501708984375">
        <ele>855</ele>
        <time>2020-08-21T10:51:58.000Z</time>
      </trkpt>
      <trkpt lat="42.98979288898408412933349609375" lon="-1.1304188333451747894287109375">
        <ele>855</ele>
        <time>2020-08-21T10:51:59.000Z</time>
      </trkpt>
      <trkpt lat="42.9898197948932647705078125" lon="-1.13051564432680606842041015625">
        <ele>856.4000244140625</ele>
        <time>2020-08-21T10:52:02.000Z</time>
      </trkpt>
      <trkpt lat="42.98982423730194568634033203125" lon="-1.13057649694383144378662109375">
        <ele>856.79998779296875</ele>
        <time>2020-08-21T10:52:04.000Z</time>
      </trkpt>
      <trkpt lat="42.9898384027183055877685546875" lon="-1.13062544725835323333740234375">
        <ele>857</ele>
        <time>2020-08-21T10:52:06.000Z</time>
      </trkpt>
      <trkpt lat="42.9898625425994396209716796875" lon="-1.1307182349264621734619140625">
        <ele>857</ele>
        <time>2020-08-21T10:52:10.000Z</time>
      </trkpt>
      <trkpt lat="42.98987637273967266082763671875" lon="-1.13080264069139957427978515625">
        <ele>857.4000244140625</ele>
        <time>2020-08-21T10:52:13.000Z</time>
      </trkpt>
      <trkpt lat="42.98987654037773609161376953125" lon="-1.1308681033551692962646484375">
        <ele>857.79998779296875</ele>
        <time>2020-08-21T10:52:15.000Z</time>
      </trkpt>
      <trkpt lat="42.98988374881446361541748046875" lon="-1.13095468841493129730224609375">
        <ele>858.4000244140625</ele>
        <time>2020-08-21T10:52:18.000Z</time>
      </trkpt>
      <trkpt lat="42.989908643066883087158203125" lon="-1.13107454963028430938720703125">
        <ele>858.79998779296875</ele>
        <time>2020-08-21T10:52:22.000Z</time>
      </trkpt>
      <trkpt lat="42.98991308547556400299072265625" lon="-1.131202541291713714599609375">
        <ele>859.4000244140625</ele>
        <time>2020-08-21T10:52:27.000Z</time>
      </trkpt>
      <trkpt lat="42.98991459421813488006591796875" lon="-1.1312275193631649017333984375">
        <ele>859.5999755859375</ele>
        <time>2020-08-21T10:52:28.000Z</time>
      </trkpt>
      <trkpt lat="42.98990361392498016357421875" lon="-1.131311841309070587158203125">
        <ele>860</ele>
        <time>2020-08-21T10:52:31.000Z</time>
      </trkpt>
      <trkpt lat="42.9899067990481853485107421875" lon="-1.13136716187000274658203125">
        <ele>860.4000244140625</ele>
        <time>2020-08-21T10:52:33.000Z</time>
      </trkpt>
      <trkpt lat="42.98991308547556400299072265625" lon="-1.1313877813518047332763671875">
        <ele>860.5999755859375</ele>
        <time>2020-08-21T10:52:34.000Z</time>
      </trkpt>
      <trkpt lat="42.9899158515036106109619140625" lon="-1.131471432745456695556640625">
        <ele>861.20001220703125</ele>
        <time>2020-08-21T10:52:37.000Z</time>
      </trkpt>
      <trkpt lat="42.9899061284959316253662109375" lon="-1.13153723068535327911376953125">
        <ele>861.5999755859375</ele>
        <time>2020-08-21T10:52:39.000Z</time>
      </trkpt>
      <trkpt lat="42.989880479872226715087890625" lon="-1.13168827258050441741943359375">
        <ele>861.20001220703125</ele>
        <time>2020-08-21T10:52:44.000Z</time>
      </trkpt>
      <trkpt lat="42.9898707568645477294921875" lon="-1.1317176930606365203857421875">
        <ele>861.20001220703125</ele>
        <time>2020-08-21T10:52:45.000Z</time>
      </trkpt>
      <trkpt lat="42.9898669011890888214111328125" lon="-1.13174577243626117706298828125">
        <ele>861</ele>
        <time>2020-08-21T10:52:46.000Z</time>
      </trkpt>
      <trkpt lat="42.9898608662188053131103515625" lon="-1.13181970082223415374755859375">
        <ele>861.20001220703125</ele>
        <time>2020-08-21T10:52:48.000Z</time>
      </trkpt>
      <trkpt lat="42.989845611155033111572265625" lon="-1.131872422993183135986328125">
        <ele>861.79998779296875</ele>
        <time>2020-08-21T10:52:50.000Z</time>
      </trkpt>
      <trkpt lat="42.989836223423480987548828125" lon="-1.13192900083959102630615234375">
        <ele>862.4000244140625</ele>
        <time>2020-08-21T10:52:52.000Z</time>
      </trkpt>
      <trkpt lat="42.98982339911162853240966796875" lon="-1.13195934332907199859619140625">
        <ele>862.79998779296875</ele>
        <time>2020-08-21T10:52:53.000Z</time>
      </trkpt>
      <trkpt lat="42.98978836275637149810791015625" lon="-1.13205523230135440826416015625">
        <ele>863.20001220703125</ele>
        <time>2020-08-21T10:52:56.000Z</time>
      </trkpt>
      <trkpt lat="42.98974913544952869415283203125" lon="-1.1322219483554363250732421875">
        <ele>863.4000244140625</ele>
        <time>2020-08-21T10:53:01.000Z</time>
      </trkpt>
      <trkpt lat="42.9897244088351726531982421875" lon="-1.1323989741504192352294921875">
        <ele>863.5999755859375</ele>
        <time>2020-08-21T10:53:06.000Z</time>
      </trkpt>
      <trkpt lat="42.9897307790815830230712890625" lon="-1.13246276043355464935302734375">
        <ele>864</ele>
        <time>2020-08-21T10:53:08.000Z</time>
      </trkpt>
      <trkpt lat="42.989771179854869842529296875" lon="-1.13251623697578907012939453125">
        <ele>864.4000244140625</ele>
        <time>2020-08-21T10:53:11.000Z</time>
      </trkpt>
      <trkpt lat="42.98987888731062412261962890625" lon="-1.132490672171115875244140625">
        <ele>863.4000244140625</ele>
        <time>2020-08-21T10:53:15.000Z</time>
      </trkpt>
      <trkpt lat="42.9899031110107898712158203125" lon="-1.13248371519148349761962890625">
        <ele>863</ele>
        <time>2020-08-21T10:53:16.000Z</time>
      </trkpt>
      <trkpt lat="42.9900342039763927459716796875" lon="-1.13246074877679347991943359375">
        <ele>862</ele>
        <time>2020-08-21T10:53:20.000Z</time>
      </trkpt>
      <trkpt lat="42.99023545347154140472412109375" lon="-1.132482625544071197509765625">
        <ele>861</ele>
        <time>2020-08-21T10:53:25.000Z</time>
      </trkpt>
      <trkpt lat="42.9902923665940761566162109375" lon="-1.13248673267662525177001953125">
        <ele>860.5999755859375</ele>
        <time>2020-08-21T10:53:26.000Z</time>
      </trkpt>
      <trkpt lat="42.99041725695133209228515625" lon="-1.13248522393405437469482421875">
        <ele>859.5999755859375</ele>
        <time>2020-08-21T10:53:28.000Z</time>
      </trkpt>
      <trkpt lat="42.99048087559640407562255859375" lon="-1.13247818313539028167724609375">
        <ele>858.5999755859375</ele>
        <time>2020-08-21T10:53:29.000Z</time>
      </trkpt>
      <trkpt lat="42.99053384922444820404052734375" lon="-1.13246359862387180328369140625">
        <ele>858</ele>
        <time>2020-08-21T10:53:30.000Z</time>
      </trkpt>
      <trkpt lat="42.9906209371984004974365234375" lon="-1.1324455775320529937744140625">
        <ele>856.79998779296875</ele>
        <time>2020-08-21T10:53:32.000Z</time>
      </trkpt>
      <trkpt lat="42.99074524082243442535400390625" lon="-1.1325200088322162628173828125">
        <ele>856.20001220703125</ele>
        <time>2020-08-21T10:53:35.000Z</time>
      </trkpt>
      <trkpt lat="42.99077474512159824371337890625" lon="-1.1325614154338836669921875">
        <ele>855.79998779296875</ele>
        <time>2020-08-21T10:53:36.000Z</time>
      </trkpt>
      <trkpt lat="42.99079268239438533782958984375" lon="-1.132589243352413177490234375">
        <ele>855.79998779296875</ele>
        <time>2020-08-21T10:53:37.000Z</time>
      </trkpt>
      <trkpt lat="42.9908016510307788848876953125" lon="-1.13261170685291290283203125">
        <ele>855.4000244140625</ele>
        <time>2020-08-21T10:53:38.000Z</time>
      </trkpt>
      <trkpt lat="42.99077399075031280517578125" lon="-1.13267465494573116302490234375">
        <ele>855.5999755859375</ele>
        <time>2020-08-21T10:53:41.000Z</time>
      </trkpt>
      <trkpt lat="42.99074037931859493255615234375" lon="-1.13271321170032024383544921875">
        <ele>855.5999755859375</ele>
        <time>2020-08-21T10:53:43.000Z</time>
      </trkpt>
      <trkpt lat="42.990696541965007781982421875" lon="-1.13274849951267242431640625">
        <ele>856</ele>
        <time>2020-08-21T10:53:45.000Z</time>
      </trkpt>
      <trkpt lat="42.990595959126949310302734375" lon="-1.13286676816642284393310546875">
        <ele>855.79998779296875</ele>
        <time>2020-08-21T10:53:50.000Z</time>
      </trkpt>
      <trkpt lat="42.99046017229557037353515625" lon="-1.13299392163753509521484375">
        <ele>855.5999755859375</ele>
        <time>2020-08-21T10:53:56.000Z</time>
      </trkpt>
      <trkpt lat="42.9903830587863922119140625" lon="-1.1331127770245075225830078125">
        <ele>855.4000244140625</ele>
        <time>2020-08-21T10:54:01.000Z</time>
      </trkpt>
      <trkpt lat="42.99032111652195453643798828125" lon="-1.133306734263896942138671875">
        <ele>855</ele>
        <time>2020-08-21T10:54:05.000Z</time>
      </trkpt>
      <trkpt lat="42.9903158359229564666748046875" lon="-1.13349842838943004608154296875">
        <ele>854.4000244140625</ele>
        <time>2020-08-21T10:54:09.000Z</time>
      </trkpt>
      <trkpt lat="42.9903044365346431732177734375" lon="-1.1337417550384998321533203125">
        <ele>854</ele>
        <time>2020-08-21T10:54:14.000Z</time>
      </trkpt>
      <trkpt lat="42.99025925807654857635498046875" lon="-1.13398307003080844879150390625">
        <ele>853.79998779296875</ele>
        <time>2020-08-21T10:54:18.000Z</time>
      </trkpt>
      <trkpt lat="42.9902484454214572906494140625" lon="-1.13404643721878528594970703125">
        <ele>853.79998779296875</ele>
        <time>2020-08-21T10:54:19.000Z</time>
      </trkpt>
      <trkpt lat="42.99023226834833621978759765625" lon="-1.13422882743179798126220703125">
        <ele>853.20001220703125</ele>
        <time>2020-08-21T10:54:22.000Z</time>
      </trkpt>
      <trkpt lat="42.9902300052344799041748046875" lon="-1.134340055286884307861328125">
        <ele>853.20001220703125</ele>
        <time>2020-08-21T10:54:24.000Z</time>
      </trkpt>
      <trkpt lat="42.99019438214600086212158203125" lon="-1.13451741635799407958984375">
        <ele>852.79998779296875</ele>
        <time>2020-08-21T10:54:27.000Z</time>
      </trkpt>
      <trkpt lat="42.990175522863864898681640625" lon="-1.13457164727151393890380859375">
        <ele>852.5999755859375</ele>
        <time>2020-08-21T10:54:28.000Z</time>
      </trkpt>
      <trkpt lat="42.990112490952014923095703125" lon="-1.13480868749320507049560546875">
        <ele>852.4000244140625</ele>
        <time>2020-08-21T10:54:32.000Z</time>
      </trkpt>
      <trkpt lat="42.99009941518306732177734375" lon="-1.13486744463443756103515625">
        <ele>852</ele>
        <time>2020-08-21T10:54:33.000Z</time>
      </trkpt>
      <trkpt lat="42.990040741860866546630859375" lon="-1.13505763001739978790283203125">
        <ele>851.20001220703125</ele>
        <time>2020-08-21T10:54:36.000Z</time>
      </trkpt>
      <trkpt lat="42.99001358449459075927734375" lon="-1.13512233830988407135009765625">
        <ele>851</ele>
        <time>2020-08-21T10:54:37.000Z</time>
      </trkpt>
      <trkpt lat="42.98998818732798099517822265625" lon="-1.13518419675529003143310546875">
        <ele>850.79998779296875</ele>
        <time>2020-08-21T10:54:38.000Z</time>
      </trkpt>
      <trkpt lat="42.98993789590895175933837890625" lon="-1.135306991636753082275390625">
        <ele>850</ele>
        <time>2020-08-21T10:54:40.000Z</time>
      </trkpt>
      <trkpt lat="42.9898761212825775146484375" lon="-1.1354325525462627410888671875">
        <ele>849.79998779296875</ele>
        <time>2020-08-21T10:54:42.000Z</time>
      </trkpt>
      <trkpt lat="42.989849634468555450439453125" lon="-1.13549969159066677093505859375">
        <ele>849.79998779296875</ele>
        <time>2020-08-21T10:54:43.000Z</time>
      </trkpt>
      <trkpt lat="42.98979188315570354461669921875" lon="-1.13563916645944118499755859375">
        <ele>850</ele>
        <time>2020-08-21T10:54:45.000Z</time>
      </trkpt>
      <trkpt lat="42.9897056333720684051513671875" lon="-1.1358261667191982269287109375">
        <ele>849</ele>
        <time>2020-08-21T10:54:48.000Z</time>
      </trkpt>
      <trkpt lat="42.9896027036011219024658203125" lon="-1.136004030704498291015625">
        <ele>848.79998779296875</ele>
        <time>2020-08-21T10:54:51.000Z</time>
      </trkpt>
      <trkpt lat="42.989559955894947052001953125" lon="-1.13606094382703304290771484375">
        <ele>848.5999755859375</ele>
        <time>2020-08-21T10:54:52.000Z</time>
      </trkpt>
      <trkpt lat="42.98938603140413761138916015625" lon="-1.13627099432051181793212890625">
        <ele>847.20001220703125</ele>
        <time>2020-08-21T10:54:56.000Z</time>
      </trkpt>
      <trkpt lat="42.98934563063085079193115234375" lon="-1.136318854987621307373046875">
        <ele>846.4000244140625</ele>
        <time>2020-08-21T10:54:57.000Z</time>
      </trkpt>
      <trkpt lat="42.98930506221950054168701171875" lon="-1.1363669671118259429931640625">
        <ele>845.79998779296875</ele>
        <time>2020-08-21T10:54:58.000Z</time>
      </trkpt>
      <trkpt lat="42.98921939916908740997314453125" lon="-1.136469058692455291748046875">
        <ele>844.5999755859375</ele>
        <time>2020-08-21T10:55:00.000Z</time>
      </trkpt>
      <trkpt lat="42.98906810581684112548828125" lon="-1.1366811208426952362060546875">
        <ele>844.4000244140625</ele>
        <time>2020-08-21T10:55:04.000Z</time>
      </trkpt>
      <trkpt lat="42.989036254584789276123046875" lon="-1.1367327533662319183349609375">
        <ele>844.5999755859375</ele>
        <time>2020-08-21T10:55:05.000Z</time>
      </trkpt>
      <trkpt lat="42.98896349966526031494140625" lon="-1.13688807003200054168701171875">
        <ele>844.5999755859375</ele>
        <time>2020-08-21T10:55:08.000Z</time>
      </trkpt>
      <trkpt lat="42.98892636783421039581298828125" lon="-1.13699980080127716064453125">
        <ele>844.4000244140625</ele>
        <time>2020-08-21T10:55:10.000Z</time>
      </trkpt>
      <trkpt lat="42.98891396261751651763916015625" lon="-1.13718965090811252593994140625">
        <ele>843.4000244140625</ele>
        <time>2020-08-21T10:55:13.000Z</time>
      </trkpt>
      <trkpt lat="42.9889160580933094024658203125" lon="-1.13725670613348484039306640625">
        <ele>843.20001220703125</ele>
        <time>2020-08-21T10:55:14.000Z</time>
      </trkpt>
      <trkpt lat="42.98894715495407581329345703125" lon="-1.13745686598122119903564453125">
        <ele>842.4000244140625</ele>
        <time>2020-08-21T10:55:17.000Z</time>
      </trkpt>
      <trkpt lat="42.9890297167003154754638671875" lon="-1.13760321401059627532958984375">
        <ele>842</ele>
        <time>2020-08-21T10:55:20.000Z</time>
      </trkpt>
      <trkpt lat="42.9891443811357021331787109375" lon="-1.13767781294882297515869140625">
        <ele>840.79998779296875</ele>
        <time>2020-08-21T10:55:23.000Z</time>
      </trkpt>
      <trkpt lat="42.989182770252227783203125" lon="-1.13768971525132656097412109375">
        <ele>840.5999755859375</ele>
        <time>2020-08-21T10:55:24.000Z</time>
      </trkpt>
      <trkpt lat="42.9892271943390369415283203125" lon="-1.1377053894102573394775390625">
        <ele>840.4000244140625</ele>
        <time>2020-08-21T10:55:25.000Z</time>
      </trkpt>
      <trkpt lat="42.98930439166724681854248046875" lon="-1.13773338496685028076171875">
        <ele>839.79998779296875</ele>
        <time>2020-08-21T10:55:27.000Z</time>
      </trkpt>
      <trkpt lat="42.98934345133602619171142578125" lon="-1.13774319179356098175048828125">
        <ele>839.79998779296875</ele>
        <time>2020-08-21T10:55:28.000Z</time>
      </trkpt>
      <trkpt lat="42.9894960857927799224853515625" lon="-1.13777353428304195404052734375">
        <ele>838.5999755859375</ele>
        <time>2020-08-21T10:55:32.000Z</time>
      </trkpt>
      <trkpt lat="42.98961971886456012725830078125" lon="-1.13781225867569446563720703125">
        <ele>837.20001220703125</ele>
        <time>2020-08-21T10:55:35.000Z</time>
      </trkpt>
      <trkpt lat="42.9896788112819194793701171875" lon="-1.1378213949501514434814453125">
        <ele>836.20001220703125</ele>
        <time>2020-08-21T10:55:37.000Z</time>
      </trkpt>
      <trkpt lat="42.989741675555706024169921875" lon="-1.1378314532339572906494140625">
        <ele>836</ele>
        <time>2020-08-21T10:55:40.000Z</time>
      </trkpt>
      <trkpt lat="42.9897542484104633331298828125" lon="-1.13782902248203754425048828125">
        <ele>836</ele>
        <time>2020-08-21T10:55:41.000Z</time>
      </trkpt>
      <trkpt lat="42.9897723533213138580322265625" lon="-1.1378297768533229827880859375">
        <ele>836.20001220703125</ele>
        <time>2020-08-21T10:55:54.000Z</time>
      </trkpt>
      <trkpt lat="42.9897696711122989654541015625" lon="-1.13782952539622783660888671875">
        <ele>836.20001220703125</ele>
        <time>2020-08-21T10:56:03.000Z</time>
      </trkpt>
      <trkpt lat="42.9897676594555377960205078125" lon="-1.1378284357488155364990234375">
        <ele>836.4000244140625</ele>
        <time>2020-08-21T10:56:11.000Z</time>
      </trkpt>
      <trkpt lat="42.989789284765720367431640625" lon="-1.13783061504364013671875">
        <ele>836.20001220703125</ele>
        <time>2020-08-21T10:56:15.000Z</time>
      </trkpt>
      <trkpt lat="42.98984167166054248809814453125" lon="-1.1378398351371288299560546875">
        <ele>835.79998779296875</ele>
        <time>2020-08-21T10:56:18.000Z</time>
      </trkpt>
      <trkpt lat="42.9898642189800739288330078125" lon="-1.137847043573856353759765625">
        <ele>835.5999755859375</ele>
        <time>2020-08-21T10:56:19.000Z</time>
      </trkpt>
      <trkpt lat="42.9899768717586994171142578125" lon="-1.13789255730807781219482421875">
        <ele>835</ele>
        <time>2020-08-21T10:56:23.000Z</time>
      </trkpt>
      <trkpt lat="42.990110814571380615234375" lon="-1.137920804321765899658203125">
        <ele>835</ele>
        <time>2020-08-21T10:56:26.000Z</time>
      </trkpt>
      <trkpt lat="42.99015230499207973480224609375" lon="-1.1379340477287769317626953125">
        <ele>835</ele>
        <time>2020-08-21T10:56:27.000Z</time>
      </trkpt>
      <trkpt lat="42.990190945565700531005859375" lon="-1.13794955424964427947998046875">
        <ele>834</ele>
        <time>2020-08-21T10:56:28.000Z</time>
      </trkpt>
      <trkpt lat="42.99035933800041675567626953125" lon="-1.13803320564329624176025390625">
        <ele>833</ele>
        <time>2020-08-21T10:56:32.000Z</time>
      </trkpt>
      <trkpt lat="42.99046109430491924285888671875" lon="-1.1380926333367824554443359375">
        <ele>832.4000244140625</ele>
        <time>2020-08-21T10:56:34.000Z</time>
      </trkpt>
      <trkpt lat="42.990512140095233917236328125" lon="-1.138122975826263427734375">
        <ele>831.79998779296875</ele>
        <time>2020-08-21T10:56:35.000Z</time>
      </trkpt>
      <trkpt lat="42.99055916257202625274658203125" lon="-1.13815038464963436126708984375">
        <ele>831.4000244140625</ele>
        <time>2020-08-21T10:56:36.000Z</time>
      </trkpt>
      <trkpt lat="42.99066175706684589385986328125" lon="-1.13822733052074909210205078125">
        <ele>830.5999755859375</ele>
        <time>2020-08-21T10:56:38.000Z</time>
      </trkpt>
      <trkpt lat="42.99076686613261699676513671875" lon="-1.138288937509059906005859375">
        <ele>829.79998779296875</ele>
        <time>2020-08-21T10:56:40.000Z</time>
      </trkpt>
      <trkpt lat="42.99093282781541347503662109375" lon="-1.138380132615566253662109375">
        <ele>830.79998779296875</ele>
        <time>2020-08-21T10:56:43.000Z</time>
      </trkpt>
      <trkpt lat="42.990988902747631072998046875" lon="-1.1384166777133941650390625">
        <ele>830.4000244140625</ele>
        <time>2020-08-21T10:56:44.000Z</time>
      </trkpt>
      <trkpt lat="42.99124212004244327545166015625" lon="-1.13857828080654144287109375">
        <ele>828.4000244140625</ele>
        <time>2020-08-21T10:56:48.000Z</time>
      </trkpt>
      <trkpt lat="42.99130448140203952789306640625" lon="-1.138627566397190093994140625">
        <ele>828.20001220703125</ele>
        <time>2020-08-21T10:56:49.000Z</time>
      </trkpt>
      <trkpt lat="42.99136399291455745697021484375" lon="-1.13868833519518375396728515625">
        <ele>827</ele>
        <time>2020-08-21T10:56:50.000Z</time>
      </trkpt>
      <trkpt lat="42.99147446639835834503173828125" lon="-1.13881356082856655120849609375">
        <ele>825.79998779296875</ele>
        <time>2020-08-21T10:56:52.000Z</time>
      </trkpt>
      <trkpt lat="42.99158644862473011016845703125" lon="-1.13894348032772541046142578125">
        <ele>825.4000244140625</ele>
        <time>2020-08-21T10:56:54.000Z</time>
      </trkpt>
      <trkpt lat="42.99177940003573894500732421875" lon="-1.13920952193439006805419921875">
        <ele>825.5999755859375</ele>
        <time>2020-08-21T10:56:58.000Z</time>
      </trkpt>
      <trkpt lat="42.99181359820067882537841796875" lon="-1.13927020691335201263427734375">
        <ele>825.20001220703125</ele>
        <time>2020-08-21T10:56:59.000Z</time>
      </trkpt>
      <trkpt lat="42.99191392958164215087890625" lon="-1.139477156102657318115234375">
        <ele>825.20001220703125</ele>
        <time>2020-08-21T10:57:03.000Z</time>
      </trkpt>
      <trkpt lat="42.99201786518096923828125" lon="-1.139645464718341827392578125">
        <ele>825.79998779296875</ele>
        <time>2020-08-21T10:57:07.000Z</time>
      </trkpt>
      <trkpt lat="42.99213244579732418060302734375" lon="-1.13981419242918491363525390625">
        <ele>825.79998779296875</ele>
        <time>2020-08-21T10:57:11.000Z</time>
      </trkpt>
      <trkpt lat="42.99222548492252826690673828125" lon="-1.1399721913039684295654296875">
        <ele>826.20001220703125</ele>
        <time>2020-08-21T10:57:15.000Z</time>
      </trkpt>
      <trkpt lat="42.99234920181334018707275390625" lon="-1.1402340419590473175048828125">
        <ele>826.4000244140625</ele>
        <time>2020-08-21T10:57:21.000Z</time>
      </trkpt>
      <trkpt lat="42.99246001057326793670654296875" lon="-1.1403934657573699951171875">
        <ele>826.4000244140625</ele>
        <time>2020-08-21T10:57:26.000Z</time>
      </trkpt>
      <trkpt lat="42.992512397468090057373046875" lon="-1.14049698226153850555419921875">
        <ele>826.4000244140625</ele>
        <time>2020-08-21T10:57:29.000Z</time>
      </trkpt>
      <trkpt lat="42.992524467408657073974609375" lon="-1.14053134806454181671142578125">
        <ele>826.20001220703125</ele>
        <time>2020-08-21T10:57:30.000Z</time>
      </trkpt>
      <trkpt lat="42.9925615154206752777099609375" lon="-1.14069412462413311004638671875">
        <ele>826.20001220703125</ele>
        <time>2020-08-21T10:57:34.000Z</time>
      </trkpt>
      <trkpt lat="42.99257266335189342498779296875" lon="-1.14073988981544971466064453125">
        <ele>826.20001220703125</ele>
        <time>2020-08-21T10:57:35.000Z</time>
      </trkpt>
      <trkpt lat="42.992614991962909698486328125" lon="-1.14094306714832782745361328125">
        <ele>826.4000244140625</ele>
        <time>2020-08-21T10:57:40.000Z</time>
      </trkpt>
      <trkpt lat="42.992657236754894256591796875" lon="-1.1412033252418041229248046875">
        <ele>826.5999755859375</ele>
        <time>2020-08-21T10:57:45.000Z</time>
      </trkpt>
      <trkpt lat="42.99266385845839977264404296875" lon="-1.14134154282510280609130859375">
        <ele>826.4000244140625</ele>
        <time>2020-08-21T10:57:48.000Z</time>
      </trkpt>
      <trkpt lat="42.992673330008983612060546875" lon="-1.14143726415932178497314453125">
        <ele>826.20001220703125</ele>
        <time>2020-08-21T10:57:50.000Z</time>
      </trkpt>
      <trkpt lat="42.99272504635155200958251953125" lon="-1.14172576926648616790771484375">
        <ele>826.4000244140625</ele>
        <time>2020-08-21T10:57:56.000Z</time>
      </trkpt>
      <trkpt lat="42.99275220371782779693603515625" lon="-1.141938082873821258544921875">
        <ele>826</ele>
        <time>2020-08-21T10:58:01.000Z</time>
      </trkpt>
      <trkpt lat="42.99277064390480518341064453125" lon="-1.14215056411921977996826171875">
        <ele>826.4000244140625</ele>
        <time>2020-08-21T10:58:06.000Z</time>
      </trkpt>
      <trkpt lat="42.99277223646640777587890625" lon="-1.1423137597739696502685546875">
        <ele>826.20001220703125</ele>
        <time>2020-08-21T10:58:10.000Z</time>
      </trkpt>
      <trkpt lat="42.992794699966907501220703125" lon="-1.1425417475402355194091796875">
        <ele>825.20001220703125</ele>
        <time>2020-08-21T10:58:15.000Z</time>
      </trkpt>
      <trkpt lat="42.99279008992016315460205078125" lon="-1.1426758579909801483154296875">
        <ele>825</ele>
        <time>2020-08-21T10:58:18.000Z</time>
      </trkpt>
      <trkpt lat="42.9927901737391948699951171875" lon="-1.14272053353488445281982421875">
        <ele>825.4000244140625</ele>
        <time>2020-08-21T10:58:19.000Z</time>
      </trkpt>
      <trkpt lat="42.99274742603302001953125" lon="-1.14294650964438915252685546875">
        <ele>825.5999755859375</ele>
        <time>2020-08-21T10:58:24.000Z</time>
      </trkpt>
      <trkpt lat="42.9927080310881137847900390625" lon="-1.143163852393627166748046875">
        <ele>826</ele>
        <time>2020-08-21T10:58:29.000Z</time>
      </trkpt>
      <trkpt lat="42.99266838468611240386962890625" lon="-1.1434458196163177490234375">
        <ele>826.4000244140625</ele>
        <time>2020-08-21T10:58:34.000Z</time>
      </trkpt>
      <trkpt lat="42.992617003619670867919921875" lon="-1.14363835193216800689697265625">
        <ele>826</ele>
        <time>2020-08-21T10:58:38.000Z</time>
      </trkpt>
      <trkpt lat="42.99254064448177814483642578125" lon="-1.1438989453017711639404296875">
        <ele>825.20001220703125</ele>
        <time>2020-08-21T10:58:43.000Z</time>
      </trkpt>
      <trkpt lat="42.99245783127844333648681640625" lon="-1.14419356919825077056884765625">
        <ele>826.20001220703125</ele>
        <time>2020-08-21T10:58:49.000Z</time>
      </trkpt>
      <trkpt lat="42.99242086708545684814453125" lon="-1.14429750479757785797119140625">
        <ele>826.5999755859375</ele>
        <time>2020-08-21T10:58:51.000Z</time>
      </trkpt>
      <trkpt lat="42.99238189123570919036865234375" lon="-1.14444318227469921112060546875">
        <ele>826</ele>
        <time>2020-08-21T10:58:54.000Z</time>
      </trkpt>
      <trkpt lat="42.99234434030950069427490234375" lon="-1.14459875039756298065185546875">
        <ele>825.5999755859375</ele>
        <time>2020-08-21T10:58:57.000Z</time>
      </trkpt>
      <trkpt lat="42.99232925288379192352294921875" lon="-1.14469815976917743682861328125">
        <ele>825.4000244140625</ele>
        <time>2020-08-21T10:58:59.000Z</time>
      </trkpt>
      <trkpt lat="42.99232858233153820037841796875" lon="-1.144975014030933380126953125">
        <ele>826.20001220703125</ele>
        <time>2020-08-21T10:59:05.000Z</time>
      </trkpt>
      <trkpt lat="42.9923502914607524871826171875" lon="-1.14518917165696620941162109375">
        <ele>825.79998779296875</ele>
        <time>2020-08-21T10:59:11.000Z</time>
      </trkpt>
      <trkpt lat="42.9923196136951446533203125" lon="-1.14523225463926792144775390625">
        <ele>826.20001220703125</ele>
        <time>2020-08-21T10:59:18.000Z</time>
      </trkpt>
      <trkpt lat="42.9923211224377155303955078125" lon="-1.14523963071405887603759765625">
        <ele>825.5999755859375</ele>
        <time>2020-08-21T10:59:57.000Z</time>
      </trkpt>
      <trkpt lat="42.9923211224377155303955078125" lon="-1.14524750970304012298583984375">
        <ele>825.4000244140625</ele>
        <time>2020-08-21T11:00:02.000Z</time>
      </trkpt>
      <trkpt lat="42.992332689464092254638671875" lon="-1.1452792771160602569580078125">
        <ele>825.4000244140625</ele>
        <time>2020-08-21T11:00:04.000Z</time>
      </trkpt>
      <trkpt lat="42.99239161424338817596435546875" lon="-1.14537424407899379730224609375">
        <ele>825</ele>
        <time>2020-08-21T11:00:08.000Z</time>
      </trkpt>
      <trkpt lat="42.99240837804973125457763671875" lon="-1.145399473607540130615234375">
        <ele>825</ele>
        <time>2020-08-21T11:00:09.000Z</time>
      </trkpt>
      <trkpt lat="42.992549277842044830322265625" lon="-1.14553752355277538299560546875">
        <ele>825.79998779296875</ele>
        <time>2020-08-21T11:00:15.000Z</time>
      </trkpt>
      <trkpt lat="42.99271163530647754669189453125" lon="-1.1456189118325710296630859375">
        <ele>825.20001220703125</ele>
        <time>2020-08-21T11:00:21.000Z</time>
      </trkpt>
      <trkpt lat="42.99286418594419956207275390625" lon="-1.1457154713571071624755859375">
        <ele>824.79998779296875</ele>
        <time>2020-08-21T11:00:27.000Z</time>
      </trkpt>
      <trkpt lat="42.99289184622466564178466796875" lon="-1.14572360180318355560302734375">
        <ele>825</ele>
        <time>2020-08-21T11:00:28.000Z</time>
      </trkpt>
      <trkpt lat="42.99297516234219074249267578125" lon="-1.14575318992137908935546875">
        <ele>825</ele>
        <time>2020-08-21T11:00:31.000Z</time>
      </trkpt>
      <trkpt lat="42.9930892400443553924560546875" lon="-1.1458303034305572509765625">
        <ele>826.4000244140625</ele>
        <time>2020-08-21T11:00:35.000Z</time>
      </trkpt>
      <trkpt lat="42.99311958253383636474609375" lon="-1.14585016854107379913330078125">
        <ele>826.4000244140625</ele>
        <time>2020-08-21T11:00:36.000Z</time>
      </trkpt>
      <trkpt lat="42.99327380955219268798828125" lon="-1.14589576609432697296142578125">
        <ele>825.20001220703125</ele>
        <time>2020-08-21T11:00:41.000Z</time>
      </trkpt>
      <trkpt lat="42.9934783279895782470703125" lon="-1.14590532146394252777099609375">
        <ele>826.4000244140625</ele>
        <time>2020-08-21T11:00:47.000Z</time>
      </trkpt>
      <trkpt lat="42.9936612211167812347412109375" lon="-1.14589543081820011138916015625">
        <ele>826</ele>
        <time>2020-08-21T11:00:52.000Z</time>
      </trkpt>
      <trkpt lat="42.99380647949874401092529296875" lon="-1.1458770744502544403076171875">
        <ele>825.79998779296875</ele>
        <time>2020-08-21T11:00:56.000Z</time>
      </trkpt>
      <trkpt lat="42.99396908842027187347412109375" lon="-1.14587632007896900177001953125">
        <ele>826</ele>
        <time>2020-08-21T11:01:01.000Z</time>
      </trkpt>
      <trkpt lat="42.99413270317018032073974609375" lon="-1.14586341194808483123779296875">
        <ele>825.4000244140625</ele>
        <time>2020-08-21T11:01:06.000Z</time>
      </trkpt>
      <trkpt lat="42.99434392713010311126708984375" lon="-1.1458599753677845001220703125">
        <ele>826</ele>
        <time>2020-08-21T11:01:12.000Z</time>
      </trkpt>
      <trkpt lat="42.9946130700409412384033203125" lon="-1.14585201255977153778076171875">
        <ele>826.4000244140625</ele>
        <time>2020-08-21T11:01:19.000Z</time>
      </trkpt>
      <trkpt lat="42.99478984437882900238037109375" lon="-1.14582770504057407379150390625">
        <ele>826</ele>
        <time>2020-08-21T11:01:24.000Z</time>
      </trkpt>
      <trkpt lat="42.9949567280709743499755859375" lon="-1.14583097398281097412109375">
        <ele>826.20001220703125</ele>
        <time>2020-08-21T11:01:28.000Z</time>
      </trkpt>
      <trkpt lat="42.99512696452438831329345703125" lon="-1.14586542360484600067138671875">
        <ele>826</ele>
        <time>2020-08-21T11:01:33.000Z</time>
      </trkpt>
      <trkpt lat="42.99526727758347988128662109375" lon="-1.14593021571636199951171875">
        <ele>826.4000244140625</ele>
        <time>2020-08-21T11:01:38.000Z</time>
      </trkpt>
      <trkpt lat="42.9953034035861492156982421875" lon="-1.14593088626861572265625">
        <ele>826.4000244140625</ele>
        <time>2020-08-21T11:01:39.000Z</time>
      </trkpt>
      <trkpt lat="42.99541597254574298858642578125" lon="-1.14596349187195301055908203125">
        <ele>826</ele>
        <time>2020-08-21T11:01:44.000Z</time>
      </trkpt>
      <trkpt lat="42.99543793313205242156982421875" lon="-1.14595896564424037933349609375">
        <ele>825.79998779296875</ele>
        <time>2020-08-21T11:01:45.000Z</time>
      </trkpt>
      <trkpt lat="42.9954604804515838623046875" lon="-1.145947985351085662841796875">
        <ele>826</ele>
        <time>2020-08-21T11:01:46.000Z</time>
      </trkpt>
      <trkpt lat="42.99557757563889026641845703125" lon="-1.14588084630668163299560546875">
        <ele>826.20001220703125</ele>
        <time>2020-08-21T11:01:49.000Z</time>
      </trkpt>
      <trkpt lat="42.99569408409297466278076171875" lon="-1.1457900702953338623046875">
        <ele>826.4000244140625</ele>
        <time>2020-08-21T11:01:52.000Z</time>
      </trkpt>
      <trkpt lat="42.99578838050365447998046875" lon="-1.14568487741053104400634765625">
        <ele>826.4000244140625</ele>
        <time>2020-08-21T11:01:55.000Z</time>
      </trkpt>
      <trkpt lat="42.99590597860515117645263671875" lon="-1.14551992155611515045166015625">
        <ele>826.20001220703125</ele>
        <time>2020-08-21T11:01:59.000Z</time>
      </trkpt>
      <trkpt lat="42.99592207185924053192138671875" lon="-1.14547834731638431549072265625">
        <ele>826.20001220703125</ele>
        <time>2020-08-21T11:02:00.000Z</time>
      </trkpt>
      <trkpt lat="42.99600102938711643218994140625" lon="-1.14536837674677371978759765625">
        <ele>826</ele>
        <time>2020-08-21T11:02:03.000Z</time>
      </trkpt>
      <trkpt lat="42.99604042433202266693115234375" lon="-1.14532747305929660797119140625">
        <ele>826</ele>
        <time>2020-08-21T11:02:05.000Z</time>
      </trkpt>
      <trkpt lat="42.9961107484996318817138671875" lon="-1.14529478363692760467529296875">
        <ele>826</ele>
        <time>2020-08-21T11:02:07.000Z</time>
      </trkpt>
      <trkpt lat="42.9961992613971233367919921875" lon="-1.14529319107532501220703125">
        <ele>826</ele>
        <time>2020-08-21T11:02:09.000Z</time>
      </trkpt>
      <trkpt lat="42.99627444706857204437255859375" lon="-1.14536519162356853485107421875">
        <ele>826</ele>
        <time>2020-08-21T11:02:12.000Z</time>
      </trkpt>
      <trkpt lat="42.99639699049293994903564453125" lon="-1.14546812139451503753662109375">
        <ele>826.20001220703125</ele>
        <time>2020-08-21T11:02:16.000Z</time>
      </trkpt>
      <trkpt lat="42.996431104838848114013671875" lon="-1.14548471756279468536376953125">
        <ele>825.79998779296875</ele>
        <time>2020-08-21T11:02:17.000Z</time>
      </trkpt>
      <trkpt lat="42.9965643770992755889892578125" lon="-1.145499385893344879150390625">
        <ele>826.5999755859375</ele>
        <time>2020-08-21T11:02:21.000Z</time>
      </trkpt>
      <trkpt lat="42.99669404514133930206298828125" lon="-1.14546292461454868316650390625">
        <ele>825.79998779296875</ele>
        <time>2020-08-21T11:02:26.000Z</time>
      </trkpt>
      <trkpt lat="42.9968332685530185699462890625" lon="-1.14539704285562038421630859375">
        <ele>826.5999755859375</ele>
        <time>2020-08-21T11:02:31.000Z</time>
      </trkpt>
      <trkpt lat="42.9969418980181217193603515625" lon="-1.145347841084003448486328125">
        <ele>826.4000244140625</ele>
        <time>2020-08-21T11:02:35.000Z</time>
      </trkpt>
      <trkpt lat="42.99697131849825382232666015625" lon="-1.145337112247943878173828125">
        <ele>826.20001220703125</ele>
        <time>2020-08-21T11:02:36.000Z</time>
      </trkpt>
      <trkpt lat="42.997062094509601593017578125" lon="-1.145288161933422088623046875">
        <ele>826.20001220703125</ele>
        <time>2020-08-21T11:02:39.000Z</time>
      </trkpt>
      <trkpt lat="42.99723886884748935699462890625" lon="-1.145201660692691802978515625">
        <ele>825.5999755859375</ele>
        <time>2020-08-21T11:02:44.000Z</time>
      </trkpt>
      <trkpt lat="42.9972790181636810302734375" lon="-1.145186237990856170654296875">
        <ele>825.5999755859375</ele>
        <time>2020-08-21T11:02:45.000Z</time>
      </trkpt>
      <trkpt lat="42.99743391573429107666015625" lon="-1.145157404243946075439453125">
        <ele>825.5999755859375</ele>
        <time>2020-08-21T11:02:48.000Z</time>
      </trkpt>
      <trkpt lat="42.9976969398558139801025390625" lon="-1.14510920830070972442626953125">
        <ele>826</ele>
        <time>2020-08-21T11:02:54.000Z</time>
      </trkpt>
      <trkpt lat="42.9978484846651554107666015625" lon="-1.1450764350593090057373046875">
        <ele>825.5999755859375</ele>
        <time>2020-08-21T11:02:58.000Z</time>
      </trkpt>
      <trkpt lat="42.99805023707449436187744140625" lon="-1.1450311727821826934814453125">
        <ele>825.5999755859375</ele>
        <time>2020-08-21T11:03:03.000Z</time>
      </trkpt>
      <trkpt lat="42.99825190566480159759521484375" lon="-1.14507467485964298248291015625">
        <ele>825.5999755859375</ele>
        <time>2020-08-21T11:03:08.000Z</time>
      </trkpt>
      <trkpt lat="42.99842205829918384552001953125" lon="-1.1450881697237491607666015625">
        <ele>825.4000244140625</ele>
        <time>2020-08-21T11:03:13.000Z</time>
      </trkpt>
      <trkpt lat="42.99855197779834270477294921875" lon="-1.14504131488502025604248046875">
        <ele>825.79998779296875</ele>
        <time>2020-08-21T11:03:17.000Z</time>
      </trkpt>
      <trkpt lat="42.9986952245235443115234375" lon="-1.1449921131134033203125">
        <ele>826.20001220703125</ele>
        <time>2020-08-21T11:03:21.000Z</time>
      </trkpt>
      <trkpt lat="42.9988838173449039459228515625" lon="-1.1450365372002124786376953125">
        <ele>825.79998779296875</ele>
        <time>2020-08-21T11:03:26.000Z</time>
      </trkpt>
      <trkpt lat="42.9990581609308719635009765625" lon="-1.14507752470672130584716796875">
        <ele>826</ele>
        <time>2020-08-21T11:03:31.000Z</time>
      </trkpt>
      <trkpt lat="42.999264188110828399658203125" lon="-1.1450797878205776214599609375">
        <ele>825.79998779296875</ele>
        <time>2020-08-21T11:03:37.000Z</time>
      </trkpt>
      <trkpt lat="42.99939192831516265869140625" lon="-1.1451314203441143035888671875">
        <ele>825</ele>
        <time>2020-08-21T11:03:41.000Z</time>
      </trkpt>
      <trkpt lat="42.99961991608142852783203125" lon="-1.1452742479741573333740234375">
        <ele>826.20001220703125</ele>
        <time>2020-08-21T11:03:48.000Z</time>
      </trkpt>
      <trkpt lat="42.999820411205291748046875" lon="-1.14528858102858066558837890625">
        <ele>826.20001220703125</ele>
        <time>2020-08-21T11:03:53.000Z</time>
      </trkpt>
      <trkpt lat="43.00000078976154327392578125" lon="-1.1452071927487850189208984375">
        <ele>826.20001220703125</ele>
        <time>2020-08-21T11:03:58.000Z</time>
      </trkpt>
      <trkpt lat="43.00004311837255954742431640625" lon="-1.14520409144461154937744140625">
        <ele>826.4000244140625</ele>
        <time>2020-08-21T11:03:59.000Z</time>
      </trkpt>
      <trkpt lat="43.00014428794384002685546875" lon="-1.14520845003426074981689453125">
        <ele>826.5999755859375</ele>
        <time>2020-08-21T11:04:02.000Z</time>
      </trkpt>
      <trkpt lat="43.0002738721668720245361328125" lon="-1.14517643116414546966552734375">
        <ele>827</ele>
        <time>2020-08-21T11:04:07.000Z</time>
      </trkpt>
      <trkpt lat="43.00039163790643215179443359375" lon="-1.14504919387400150299072265625">
        <ele>827.20001220703125</ele>
        <time>2020-08-21T11:04:12.000Z</time>
      </trkpt>
      <trkpt lat="43.00043388269841670989990234375" lon="-1.1449993215501308441162109375">
        <ele>827.4000244140625</ele>
        <time>2020-08-21T11:04:14.000Z</time>
      </trkpt>
      <trkpt lat="43.0005152709782123565673828125" lon="-1.1449366249144077301025390625">
        <ele>827.4000244140625</ele>
        <time>2020-08-21T11:04:17.000Z</time>
      </trkpt>
      <trkpt lat="43.00055676139891147613525390625" lon="-1.14491743035614490509033203125">
        <ele>826.4000244140625</ele>
        <time>2020-08-21T11:04:19.000Z</time>
      </trkpt>
      <trkpt lat="43.00058190710842609405517578125" lon="-1.14489756524562835693359375">
        <ele>826.20001220703125</ele>
        <time>2020-08-21T11:04:20.000Z</time>
      </trkpt>
      <trkpt lat="43.00061023794114589691162109375" lon="-1.14487015642225742340087890625">
        <ele>826.20001220703125</ele>
        <time>2020-08-21T11:04:21.000Z</time>
      </trkpt>
      <trkpt lat="43.0006822384893894195556640625" lon="-1.14477979950606822967529296875">
        <ele>825.79998779296875</ele>
        <time>2020-08-21T11:04:24.000Z</time>
      </trkpt>
      <trkpt lat="43.00074351020157337188720703125" lon="-1.14471375010907649993896484375">
        <ele>826.20001220703125</ele>
        <time>2020-08-21T11:04:26.000Z</time>
      </trkpt>
      <trkpt lat="43.000908382236957550048828125" lon="-1.14459942094981670379638671875">
        <ele>826</ele>
        <time>2020-08-21T11:04:31.000Z</time>
      </trkpt>
      <trkpt lat="43.0010909400880336761474609375" lon="-1.14456471987068653106689453125">
        <ele>826.20001220703125</ele>
        <time>2020-08-21T11:04:36.000Z</time>
      </trkpt>
      <trkpt lat="43.00131968222558498382568359375" lon="-1.1445047892630100250244140625">
        <ele>826</ele>
        <time>2020-08-21T11:04:43.000Z</time>
      </trkpt>
      <trkpt lat="43.00156007520854473114013671875" lon="-1.14449749700725078582763671875">
        <ele>826.79998779296875</ele>
        <time>2020-08-21T11:04:50.000Z</time>
      </trkpt>
      <trkpt lat="43.0017839558422565460205078125" lon="-1.144572012126445770263671875">
        <ele>826.79998779296875</ele>
        <time>2020-08-21T11:04:56.000Z</time>
      </trkpt>
      <trkpt lat="43.00201169215142726898193359375" lon="-1.1446077190339565277099609375">
        <ele>826.5999755859375</ele>
        <time>2020-08-21T11:05:02.000Z</time>
      </trkpt>
      <trkpt lat="43.00208360888063907623291015625" lon="-1.1446100659668445587158203125">
        <ele>827</ele>
        <time>2020-08-21T11:05:04.000Z</time>
      </trkpt>
      <trkpt lat="43.00215904600918292999267578125" lon="-1.1446040309965610504150390625">
        <ele>826.79998779296875</ele>
        <time>2020-08-21T11:05:07.000Z</time>
      </trkpt>
      <trkpt lat="43.0023281089961528778076171875" lon="-1.144553236663341522216796875">
        <ele>826.20001220703125</ele>
        <time>2020-08-21T11:05:13.000Z</time>
      </trkpt>
      <trkpt lat="43.00249348394572734832763671875" lon="-1.144478134810924530029296875">
        <ele>826.5999755859375</ele>
        <time>2020-08-21T11:05:18.000Z</time>
      </trkpt>
      <trkpt lat="43.002641089260578155517578125" lon="-1.14437587559223175048828125">
        <ele>826.4000244140625</ele>
        <time>2020-08-21T11:05:22.000Z</time>
      </trkpt>
      <trkpt lat="43.0027408339083194732666015625" lon="-1.14427587948739528656005859375">
        <ele>826.20001220703125</ele>
        <time>2020-08-21T11:05:26.000Z</time>
      </trkpt>
      <trkpt lat="43.0027632974088191986083984375" lon="-1.14424956031143665313720703125">
        <ele>826.20001220703125</ele>
        <time>2020-08-21T11:05:27.000Z</time>
      </trkpt>
      <trkpt lat="43.00286094658076763153076171875" lon="-1.1441668309271335601806640625">
        <ele>826.20001220703125</ele>
        <time>2020-08-21T11:05:30.000Z</time>
      </trkpt>
      <trkpt lat="43.00293370150029659271240234375" lon="-1.144098937511444091796875">
        <ele>826.4000244140625</ele>
        <time>2020-08-21T11:05:32.000Z</time>
      </trkpt>
      <trkpt lat="43.003115169703960418701171875" lon="-1.14387706853449344635009765625">
        <ele>827</ele>
        <time>2020-08-21T11:05:38.000Z</time>
      </trkpt>
      <trkpt lat="43.00325506366789340972900390625" lon="-1.143758632242679595947265625">
        <ele>826.5999755859375</ele>
        <time>2020-08-21T11:05:43.000Z</time>
      </trkpt>
      <trkpt lat="43.00338573753833770751953125" lon="-1.1437041498720645904541015625">
        <ele>826.4000244140625</ele>
        <time>2020-08-21T11:05:47.000Z</time>
      </trkpt>
      <trkpt lat="43.00357810221612453460693359375" lon="-1.14354304969310760498046875">
        <ele>826.79998779296875</ele>
        <time>2020-08-21T11:05:53.000Z</time>
      </trkpt>
      <trkpt lat="43.00373132340610027313232421875" lon="-1.1434030719101428985595703125">
        <ele>826</ele>
        <time>2020-08-21T11:05:57.000Z</time>
      </trkpt>
      <trkpt lat="43.003778345882892608642578125" lon="-1.14336376078426837921142578125">
        <ele>826</ele>
        <time>2020-08-21T11:05:58.000Z</time>
      </trkpt>
      <trkpt lat="43.00386476330459117889404296875" lon="-1.1432679556310176849365234375">
        <ele>825.4000244140625</ele>
        <time>2020-08-21T11:06:00.000Z</time>
      </trkpt>
      <trkpt lat="43.0039525218307971954345703125" lon="-1.14317785017192363739013671875">
        <ele>824.4000244140625</ele>
        <time>2020-08-21T11:06:02.000Z</time>
      </trkpt>
      <trkpt lat="43.0040041543543338775634765625" lon="-1.14313677884638309478759765625">
        <ele>824.4000244140625</ele>
        <time>2020-08-21T11:06:03.000Z</time>
      </trkpt>
      <trkpt lat="43.00415695644915103912353515625" lon="-1.14301725290715694427490234375">
        <ele>823.79998779296875</ele>
        <time>2020-08-21T11:06:06.000Z</time>
      </trkpt>
      <trkpt lat="43.0042542703449726104736328125" lon="-1.1429232917726039886474609375">
        <ele>823.20001220703125</ele>
        <time>2020-08-21T11:06:08.000Z</time>
      </trkpt>
      <trkpt lat="43.0043105967342853546142578125" lon="-1.14286839030683040618896484375">
        <ele>823.20001220703125</ele>
        <time>2020-08-21T11:06:09.000Z</time>
      </trkpt>
      <trkpt lat="43.00457085482776165008544921875" lon="-1.142666302621364593505859375">
        <ele>823.20001220703125</ele>
        <time>2020-08-21T11:06:14.000Z</time>
      </trkpt>
      <trkpt lat="43.00468836911022663116455078125" lon="-1.14257066510617733001708984375">
        <ele>822.5999755859375</ele>
        <time>2020-08-21T11:06:16.000Z</time>
      </trkpt>
      <trkpt lat="43.00479196943342685699462890625" lon="-1.14245750941336154937744140625">
        <ele>821.20001220703125</ele>
        <time>2020-08-21T11:06:18.000Z</time>
      </trkpt>
      <trkpt lat="43.00483739934861660003662109375" lon="-1.14239665679633617401123046875">
        <ele>820.5999755859375</ele>
        <time>2020-08-21T11:06:19.000Z</time>
      </trkpt>
      <trkpt lat="43.004971258342266082763671875" lon="-1.1421521566808223724365234375">
        <ele>820.5999755859375</ele>
        <time>2020-08-21T11:06:23.000Z</time>
      </trkpt>
      <trkpt lat="43.00502515397965908050537109375" lon="-1.1420146934688091278076171875">
        <ele>819.79998779296875</ele>
        <time>2020-08-21T11:06:26.000Z</time>
      </trkpt>
      <trkpt lat="43.00504292361438274383544921875" lon="-1.1419868655502796173095703125">
        <ele>820</ele>
        <time>2020-08-21T11:06:27.000Z</time>
      </trkpt>
      <trkpt lat="43.005116768181324005126953125" lon="-1.14194503985345363616943359375">
        <ele>819.4000244140625</ele>
        <time>2020-08-21T11:06:31.000Z</time>
      </trkpt>
      <trkpt lat="43.00513529218733310699462890625" lon="-1.14194369874894618988037109375">
        <ele>819.4000244140625</ele>
        <time>2020-08-21T11:06:32.000Z</time>
      </trkpt>
      <trkpt lat="43.00519891083240509033203125" lon="-1.1419412679970264434814453125">
        <ele>819.5999755859375</ele>
        <time>2020-08-21T11:06:35.000Z</time>
      </trkpt>
      <trkpt lat="43.00529404543340206146240234375" lon="-1.14194151945412158966064453125">
        <ele>820.79998779296875</ele>
        <time>2020-08-21T11:06:39.000Z</time>
      </trkpt>
      <trkpt lat="43.0054233781993389129638671875" lon="-1.1419439502060413360595703125">
        <ele>821.4000244140625</ele>
        <time>2020-08-21T11:06:43.000Z</time>
      </trkpt>
      <trkpt lat="43.0055259726941585540771484375" lon="-1.14192073233425617218017578125">
        <ele>821.5999755859375</ele>
        <time>2020-08-21T11:06:47.000Z</time>
      </trkpt>
      <trkpt lat="43.00554902292788028717041015625" lon="-1.1419177986681461334228515625">
        <ele>821.5999755859375</ele>
        <time>2020-08-21T11:06:48.000Z</time>
      </trkpt>
      <trkpt lat="43.00563032738864421844482421875" lon="-1.141907237470149993896484375">
        <ele>821.4000244140625</ele>
        <time>2020-08-21T11:06:52.000Z</time>
      </trkpt>
      <trkpt lat="43.00571649335324764251708984375" lon="-1.14188184030354022979736328125">
        <ele>821.5999755859375</ele>
        <time>2020-08-21T11:06:56.000Z</time>
      </trkpt>
      <trkpt lat="43.00574071705341339111328125" lon="-1.1418767273426055908203125">
        <ele>821.5999755859375</ele>
        <time>2020-08-21T11:06:57.000Z</time>
      </trkpt>
      <trkpt lat="43.00579327158629894256591796875" lon="-1.14185686223208904266357421875">
        <ele>821.5999755859375</ele>
        <time>2020-08-21T11:06:59.000Z</time>
      </trkpt>
      <trkpt lat="43.00588463433086872100830078125" lon="-1.14183775149285793304443359375">
        <ele>821.4000244140625</ele>
        <time>2020-08-21T11:07:03.000Z</time>
      </trkpt>
      <trkpt lat="43.0059799365699291229248046875" lon="-1.14181847311556339263916015625">
        <ele>821.4000244140625</ele>
        <time>2020-08-21T11:07:06.000Z</time>
      </trkpt>
      <trkpt lat="43.00603031180799007415771484375" lon="-1.1418152041733264923095703125">
        <ele>821.4000244140625</ele>
        <time>2020-08-21T11:07:08.000Z</time>
      </trkpt>
      <trkpt lat="43.00615914165973663330078125" lon="-1.141807325184345245361328125">
        <ele>821.4000244140625</ele>
        <time>2020-08-21T11:07:12.000Z</time>
      </trkpt>
      <trkpt lat="43.00629233010113239288330078125" lon="-1.1418450437486171722412109375">
        <ele>821.4000244140625</ele>
        <time>2020-08-21T11:07:16.000Z</time>
      </trkpt>
      <trkpt lat="43.0063341557979583740234375" lon="-1.1418849416077136993408203125">
        <ele>821.20001220703125</ele>
        <time>2020-08-21T11:07:17.000Z</time>
      </trkpt>
      <trkpt lat="43.00643733702600002288818359375" lon="-1.14203288219869136810302734375">
        <ele>821.4000244140625</ele>
        <time>2020-08-21T11:07:20.000Z</time>
      </trkpt>
      <trkpt lat="43.0065539292991161346435546875" lon="-1.14227025769650936126708984375">
        <ele>820.5999755859375</ele>
        <time>2020-08-21T11:07:25.000Z</time>
      </trkpt>
      <trkpt lat="43.00655200146138668060302734375" lon="-1.14230361767113208770751953125">
        <ele>820.5999755859375</ele>
        <time>2020-08-21T11:07:26.000Z</time>
      </trkpt>
      <trkpt lat="43.00651445053517818450927734375" lon="-1.14236094988882541656494140625">
        <ele>820.5999755859375</ele>
        <time>2020-08-21T11:07:29.000Z</time>
      </trkpt>
      <trkpt lat="43.0063950084149837493896484375" lon="-1.14247553050518035888671875">
        <ele>821.20001220703125</ele>
        <time>2020-08-21T11:07:35.000Z</time>
      </trkpt>
      <trkpt lat="43.00617163069546222686767578125" lon="-1.14261793904006481170654296875">
        <ele>821.20001220703125</ele>
        <time>2020-08-21T11:07:43.000Z</time>
      </trkpt>
      <trkpt lat="43.00597406923770904541015625" lon="-1.14273863844573497772216796875">
        <ele>821.79998779296875</ele>
        <time>2020-08-21T11:07:50.000Z</time>
      </trkpt>
      <trkpt lat="43.005775250494480133056640625" lon="-1.14284098148345947265625">
        <ele>821.79998779296875</ele>
        <time>2020-08-21T11:07:56.000Z</time>
      </trkpt>
      <trkpt lat="43.005515076220035552978515625" lon="-1.14302261732518672943115234375">
        <ele>822</ele>
        <time>2020-08-21T11:08:05.000Z</time>
      </trkpt>
      <trkpt lat="43.0053579993546009063720703125" lon="-1.1431636847555637359619140625">
        <ele>822.20001220703125</ele>
        <time>2020-08-21T11:08:11.000Z</time>
      </trkpt>
      <trkpt lat="43.00533126108348369598388671875" lon="-1.1431861482560634613037109375">
        <ele>822.4000244140625</ele>
        <time>2020-08-21T11:08:12.000Z</time>
      </trkpt>
      <trkpt lat="43.00518021918833255767822265625" lon="-1.14332185126841068267822265625">
        <ele>822.79998779296875</ele>
        <time>2020-08-21T11:08:18.000Z</time>
      </trkpt>
      <trkpt lat="43.00513864494860172271728515625" lon="-1.143356971442699432373046875">
        <ele>823.5999755859375</ele>
        <time>2020-08-21T11:08:20.000Z</time>
      </trkpt>
      <trkpt lat="43.0050639621913433074951171875" lon="-1.14344841800630092620849609375">
        <ele>824.79998779296875</ele>
        <time>2020-08-21T11:08:24.000Z</time>
      </trkpt>
      <trkpt lat="43.00491166301071643829345703125" lon="-1.1435770802199840545654296875">
        <ele>824.79998779296875</ele>
        <time>2020-08-21T11:08:31.000Z</time>
      </trkpt>
      <trkpt lat="43.00477788783609867095947265625" lon="-1.14366651512682437896728515625">
        <ele>825.5999755859375</ele>
        <time>2020-08-21T11:08:37.000Z</time>
      </trkpt>
      <trkpt lat="43.00475710071623325347900390625" lon="-1.143678836524486541748046875">
        <ele>826.20001220703125</ele>
        <time>2020-08-21T11:08:38.000Z</time>
      </trkpt>
      <trkpt lat="43.0045545101165771484375" lon="-1.14382191561162471771240234375">
        <ele>826</ele>
        <time>2020-08-21T11:08:46.000Z</time>
      </trkpt>
      <trkpt lat="43.00430598668754100799560546875" lon="-1.14403665997087955474853515625">
        <ele>825</ele>
        <time>2020-08-21T11:08:53.000Z</time>
      </trkpt>
      <trkpt lat="43.0041439644992351531982421875" lon="-1.14427152089774608612060546875">
        <ele>824.5999755859375</ele>
        <time>2020-08-21T11:08:59.000Z</time>
      </trkpt>
      <trkpt lat="43.00412074662744998931884765625" lon="-1.14431141875684261322021484375">
        <ele>824.5999755859375</ele>
        <time>2020-08-21T11:09:00.000Z</time>
      </trkpt>
      <trkpt lat="43.0039666034281253814697265625" lon="-1.14463479258120059967041015625">
        <ele>825.20001220703125</ele>
        <time>2020-08-21T11:09:08.000Z</time>
      </trkpt>
      <trkpt lat="43.0038291402161121368408203125" lon="-1.14490334875881671905517578125">
        <ele>825.20001220703125</ele>
        <time>2020-08-21T11:09:15.000Z</time>
      </trkpt>
      <trkpt lat="43.00373978912830352783203125" lon="-1.14505656994879245758056640625">
        <ele>825.5999755859375</ele>
        <time>2020-08-21T11:09:20.000Z</time>
      </trkpt>
      <trkpt lat="43.00361447967588901519775390625" lon="-1.14525572396814823150634765625">
        <ele>825</ele>
        <time>2020-08-21T11:09:26.000Z</time>
      </trkpt>
      <trkpt lat="43.00352462567389011383056640625" lon="-1.1453600786626338958740234375">
        <ele>824.79998779296875</ele>
        <time>2020-08-21T11:09:30.000Z</time>
      </trkpt>
      <trkpt lat="43.0032695643603801727294921875" lon="-1.14555747248232364654541015625">
        <ele>825.20001220703125</ele>
        <time>2020-08-21T11:09:38.000Z</time>
      </trkpt>
      <trkpt lat="43.00308692269027233123779296875" lon="-1.14568504504859447479248046875">
        <ele>825.4000244140625</ele>
        <time>2020-08-21T11:09:44.000Z</time>
      </trkpt>
      <trkpt lat="43.00289221107959747314453125" lon="-1.1456588096916675567626953125">
        <ele>825.4000244140625</ele>
        <time>2020-08-21T11:09:50.000Z</time>
      </trkpt>
      <trkpt lat="43.002727925777435302734375" lon="-1.1456591449677944183349609375">
        <ele>825.4000244140625</ele>
        <time>2020-08-21T11:09:55.000Z</time>
      </trkpt>
      <trkpt lat="43.00255198962986469268798828125" lon="-1.14567498676478862762451171875">
        <ele>825.4000244140625</ele>
        <time>2020-08-21T11:10:01.000Z</time>
      </trkpt>
      <trkpt lat="43.00236339680850505828857421875" lon="-1.1456628330051898956298828125">
        <ele>826.20001220703125</ele>
        <time>2020-08-21T11:10:07.000Z</time>
      </trkpt>
      <trkpt lat="43.00219207070767879486083984375" lon="-1.14559569396078586578369140625">
        <ele>826.5999755859375</ele>
        <time>2020-08-21T11:10:12.000Z</time>
      </trkpt>
      <trkpt lat="43.0020635761320590972900390625" lon="-1.14551338367164134979248046875">
        <ele>826.5999755859375</ele>
        <time>2020-08-21T11:10:15.000Z</time>
      </trkpt>
      <trkpt lat="43.00201655365526676177978515625" lon="-1.1454975418746471405029296875">
        <ele>826.79998779296875</ele>
        <time>2020-08-21T11:10:16.000Z</time>
      </trkpt>
      <trkpt lat="43.00196927972137928009033203125" lon="-1.14548857323825359344482421875">
        <ele>826.5999755859375</ele>
        <time>2020-08-21T11:10:17.000Z</time>
      </trkpt>
      <trkpt lat="43.00188101828098297119140625" lon="-1.14550181664526462554931640625">
        <ele>826.4000244140625</ele>
        <time>2020-08-21T11:10:19.000Z</time>
      </trkpt>
      <trkpt lat="43.00180315040051937103271484375" lon="-1.14551170729100704193115234375">
        <ele>826.20001220703125</ele>
        <time>2020-08-21T11:10:21.000Z</time>
      </trkpt>
      <trkpt lat="43.00172335468232631683349609375" lon="-1.145504750311374664306640625">
        <ele>825.5999755859375</ele>
        <time>2020-08-21T11:10:23.000Z</time>
      </trkpt>
      <trkpt lat="43.001646660268306732177734375" lon="-1.14550081081688404083251953125">
        <ele>824.5999755859375</ele>
        <time>2020-08-21T11:10:25.000Z</time>
      </trkpt>
      <trkpt lat="43.00160399638116359710693359375" lon="-1.14549175836145877838134765625">
        <ele>824.4000244140625</ele>
        <time>2020-08-21T11:10:26.000Z</time>
      </trkpt>
      <trkpt lat="43.00135874189436435699462890625" lon="-1.14548739977180957794189453125">
        <ele>825.5999755859375</ele>
        <time>2020-08-21T11:10:32.000Z</time>
      </trkpt>
      <trkpt lat="43.0012669600546360015869140625" lon="-1.14556409418582916259765625">
        <ele>824.5999755859375</ele>
        <time>2020-08-21T11:10:35.000Z</time>
      </trkpt>
      <trkpt lat="43.0012579075992107391357421875" lon="-1.14560726098716259002685546875">
        <ele>824.4000244140625</ele>
        <time>2020-08-21T11:10:36.000Z</time>
      </trkpt>
      <trkpt lat="43.00126721151173114776611328125" lon="-1.14572024904191493988037109375">
        <ele>823.79998779296875</ele>
        <time>2020-08-21T11:10:38.000Z</time>
      </trkpt>
      <trkpt lat="43.0012817122042179107666015625" lon="-1.14578059874475002288818359375">
        <ele>824</ele>
        <time>2020-08-21T11:10:39.000Z</time>
      </trkpt>
      <trkpt lat="43.00129587762057781219482421875" lon="-1.145842038094997406005859375">
        <ele>823.20001220703125</ele>
        <time>2020-08-21T11:10:40.000Z</time>
      </trkpt>
      <trkpt lat="43.0012786947190761566162109375" lon="-1.14594899117946624755859375">
        <ele>822</ele>
        <time>2020-08-21T11:10:42.000Z</time>
      </trkpt>
      <trkpt lat="43.00117651931941509246826171875" lon="-1.146005652844905853271484375">
        <ele>821.79998779296875</ele>
        <time>2020-08-21T11:10:45.000Z</time>
      </trkpt>
      <trkpt lat="43.0010838992893695831298828125" lon="-1.145996265113353729248046875">
        <ele>822.4000244140625</ele>
        <time>2020-08-21T11:10:48.000Z</time>
      </trkpt>
      <trkpt lat="43.00100401975214481353759765625" lon="-1.14600942470133304595947265625">
        <ele>823.20001220703125</ele>
        <time>2020-08-21T11:10:51.000Z</time>
      </trkpt>
      <trkpt lat="43.0009222961962223052978515625" lon="-1.1460421979427337646484375">
        <ele>824.5999755859375</ele>
        <time>2020-08-21T11:10:54.000Z</time>
      </trkpt>
      <trkpt lat="43.00085230730473995208740234375" lon="-1.1461167968809604644775390625">
        <ele>824.79998779296875</ele>
        <time>2020-08-21T11:10:57.000Z</time>
      </trkpt>
      <trkpt lat="43.0007231421768665313720703125" lon="-1.14628024399280548095703125">
        <ele>825.5999755859375</ele>
        <time>2020-08-21T11:11:03.000Z</time>
      </trkpt>
      <trkpt lat="43.0006802268326282501220703125" lon="-1.1463290266692638397216796875">
        <ele>826</ele>
        <time>2020-08-21T11:11:05.000Z</time>
      </trkpt>
      <trkpt lat="43.00055592320859432220458984375" lon="-1.146473698318004608154296875">
        <ele>826</ele>
        <time>2020-08-21T11:11:11.000Z</time>
      </trkpt>
      <trkpt lat="43.0004408396780490875244140625" lon="-1.14658291451632976531982421875">
        <ele>826.5999755859375</ele>
        <time>2020-08-21T11:11:16.000Z</time>
      </trkpt>
      <trkpt lat="43.00039029680192470550537109375" lon="-1.14662415347993373870849609375">
        <ele>827.79998779296875</ele>
        <time>2020-08-21T11:11:18.000Z</time>
      </trkpt>
      <trkpt lat="43.00033648498356342315673828125" lon="-1.14665801636874675750732421875">
        <ele>828.20001220703125</ele>
        <time>2020-08-21T11:11:20.000Z</time>
      </trkpt>
      <trkpt lat="43.00019248388707637786865234375" lon="-1.14674988202750682830810546875">
        <ele>828.5999755859375</ele>
        <time>2020-08-21T11:11:26.000Z</time>
      </trkpt>
      <trkpt lat="43.00016582943499088287353515625" lon="-1.14675843156874179840087890625">
        <ele>828.79998779296875</ele>
        <time>2020-08-21T11:11:27.000Z</time>
      </trkpt>
      <trkpt lat="43.00002015195786952972412109375" lon="-1.1468064598739147186279296875">
        <ele>828.79998779296875</ele>
        <time>2020-08-21T11:11:32.000Z</time>
      </trkpt>
      <trkpt lat="42.999970950186252593994140625" lon="-1.1468047834932804107666015625">
        <ele>828</ele>
        <time>2020-08-21T11:11:34.000Z</time>
      </trkpt>
      <trkpt lat="42.99986324273049831390380859375" lon="-1.146764047443866729736328125">
        <ele>828.4000244140625</ele>
        <time>2020-08-21T11:11:38.000Z</time>
      </trkpt>
      <trkpt lat="42.99981035292148590087890625" lon="-1.1467368900775909423828125">
        <ele>829.4000244140625</ele>
        <time>2020-08-21T11:11:40.000Z</time>
      </trkpt>
      <trkpt lat="42.99971379339694976806640625" lon="-1.146676875650882720947265625">
        <ele>830.20001220703125</ele>
        <time>2020-08-21T11:11:44.000Z</time>
      </trkpt>
      <trkpt lat="42.9996861331164836883544921875" lon="-1.1466666497290134429931640625">
        <ele>830.5999755859375</ele>
        <time>2020-08-21T11:11:45.000Z</time>
      </trkpt>
      <trkpt lat="42.9995536990463733673095703125" lon="-1.14660588093101978302001953125">
        <ele>830.79998779296875</ele>
        <time>2020-08-21T11:11:50.000Z</time>
      </trkpt>
      <trkpt lat="42.99945672042667865753173828125" lon="-1.14657369442284107208251953125">
        <ele>831</ele>
        <time>2020-08-21T11:11:54.000Z</time>
      </trkpt>
      <trkpt lat="42.99929813481867313385009765625" lon="-1.146558858454227447509765625">
        <ele>830.79998779296875</ele>
        <time>2020-08-21T11:12:00.000Z</time>
      </trkpt>
      <trkpt lat="42.99919067882001399993896484375" lon="-1.146549470722675323486328125">
        <ele>831</ele>
        <time>2020-08-21T11:12:04.000Z</time>
      </trkpt>
      <trkpt lat="42.99905858002603054046630859375" lon="-1.14656430669128894805908203125">
        <ele>830.79998779296875</ele>
        <time>2020-08-21T11:12:08.000Z</time>
      </trkpt>
      <trkpt lat="42.998887337744235992431640625" lon="-1.1466089822351932525634765625">
        <ele>830.5999755859375</ele>
        <time>2020-08-21T11:12:13.000Z</time>
      </trkpt>
      <trkpt lat="42.99865004606544971466064453125" lon="-1.14676773548126220703125">
        <ele>830.5999755859375</ele>
        <time>2020-08-21T11:12:19.000Z</time>
      </trkpt>
      <trkpt lat="42.99850436858832836151123046875" lon="-1.146872676908969879150390625">
        <ele>829.5999755859375</ele>
        <time>2020-08-21T11:12:23.000Z</time>
      </trkpt>
      <trkpt lat="42.998473942279815673828125" lon="-1.14691215567290782928466796875">
        <ele>829.4000244140625</ele>
        <time>2020-08-21T11:12:24.000Z</time>
      </trkpt>
      <trkpt lat="42.99845323897898197174072265625" lon="-1.14695993252098560333251953125">
        <ele>829.4000244140625</ele>
        <time>2020-08-21T11:12:25.000Z</time>
      </trkpt>
      <trkpt lat="42.9984526522457599639892578125" lon="-1.1470153369009494781494140625">
        <ele>829.5999755859375</ele>
        <time>2020-08-21T11:12:26.000Z</time>
      </trkpt>
      <trkpt lat="42.99854778684675693511962890625" lon="-1.1472089588642120361328125">
        <ele>828.20001220703125</ele>
        <time>2020-08-21T11:12:30.000Z</time>
      </trkpt>
      <trkpt lat="42.99863831140100955963134765625" lon="-1.14738665521144866943359375">
        <ele>827.4000244140625</ele>
        <time>2020-08-21T11:12:34.000Z</time>
      </trkpt>
      <trkpt lat="42.99864266999065876007080078125" lon="-1.1474382877349853515625">
        <ele>827.20001220703125</ele>
        <time>2020-08-21T11:12:35.000Z</time>
      </trkpt>
      <trkpt lat="42.99856672994792461395263671875" lon="-1.14754063077270984649658203125">
        <ele>826</ele>
        <time>2020-08-21T11:12:38.000Z</time>
      </trkpt>
      <trkpt lat="42.99849531613290309906005859375" lon="-1.14754968322813510894775390625">
        <ele>825.79998779296875</ele>
        <time>2020-08-21T11:12:40.000Z</time>
      </trkpt>
      <trkpt lat="42.99843194894492626190185546875" lon="-1.14753157831728458404541015625">
        <ele>826.4000244140625</ele>
        <time>2020-08-21T11:12:42.000Z</time>
      </trkpt>
      <trkpt lat="42.998147048056125640869140625" lon="-1.1474330909550189971923828125">
        <ele>825.79998779296875</ele>
        <time>2020-08-21T11:12:50.000Z</time>
      </trkpt>
      <trkpt lat="42.99790439195930957794189453125" lon="-1.14739738404750823974609375">
        <ele>825.4000244140625</ele>
        <time>2020-08-21T11:12:55.000Z</time>
      </trkpt>
      <trkpt lat="42.9976652562618255615234375" lon="-1.14737994968891143798828125">
        <ele>825.20001220703125</ele>
        <time>2020-08-21T11:13:00.000Z</time>
      </trkpt>
      <trkpt lat="42.99757347442209720611572265625" lon="-1.147389672696590423583984375">
        <ele>825.4000244140625</ele>
        <time>2020-08-21T11:13:02.000Z</time>
      </trkpt>
      <trkpt lat="42.997250854969024658203125" lon="-1.1475480906665325164794921875">
        <ele>825.5999755859375</ele>
        <time>2020-08-21T11:13:10.000Z</time>
      </trkpt>
      <trkpt lat="42.997094281017780303955078125" lon="-1.1476121284067630767822265625">
        <ele>825.79998779296875</ele>
        <time>2020-08-21T11:13:14.000Z</time>
      </trkpt>
      <trkpt lat="42.9970528744161128997802734375" lon="-1.14762176759541034698486328125">
        <ele>825.5999755859375</ele>
        <time>2020-08-21T11:13:15.000Z</time>
      </trkpt>
      <trkpt lat="42.99690677784383296966552734375" lon="-1.14769988693296909332275390625">
        <ele>826</ele>
        <time>2020-08-21T11:13:19.000Z</time>
      </trkpt>
      <trkpt lat="42.996846176683902740478515625" lon="-1.14776727743446826934814453125">
        <ele>826</ele>
        <time>2020-08-21T11:13:21.000Z</time>
      </trkpt>
      <trkpt lat="42.99675255082547664642333984375" lon="-1.1479896493256092071533203125">
        <ele>825.4000244140625</ele>
        <time>2020-08-21T11:13:26.000Z</time>
      </trkpt>
      <trkpt lat="42.99670167267322540283203125" lon="-1.1480738036334514617919921875">
        <ele>825.5999755859375</ele>
        <time>2020-08-21T11:13:28.000Z</time>
      </trkpt>
      <trkpt lat="42.99662229605019092559814453125" lon="-1.14810288883745670318603515625">
        <ele>825.20001220703125</ele>
        <time>2020-08-21T11:13:30.000Z</time>
      </trkpt>
      <trkpt lat="42.9965496249496936798095703125" lon="-1.14808612503111362457275390625">
        <ele>824.5999755859375</ele>
        <time>2020-08-21T11:13:32.000Z</time>
      </trkpt>
      <trkpt lat="42.996479384601116180419921875" lon="-1.14807925187051296234130859375">
        <ele>824.4000244140625</ele>
        <time>2020-08-21T11:13:34.000Z</time>
      </trkpt>
      <trkpt lat="42.996443845331668853759765625" lon="-1.1480768211185932159423828125">
        <ele>824</ele>
        <time>2020-08-21T11:13:35.000Z</time>
      </trkpt>
      <trkpt lat="42.996259443461894989013671875" lon="-1.148062907159328460693359375">
        <ele>823.79998779296875</ele>
        <time>2020-08-21T11:13:40.000Z</time>
      </trkpt>
      <trkpt lat="42.99606892280280590057373046875" lon="-1.14808210171759128570556640625">
        <ele>825.20001220703125</ele>
        <time>2020-08-21T11:13:45.000Z</time>
      </trkpt>
      <trkpt lat="42.99582450650632381439208984375" lon="-1.1481700278818607330322265625">
        <ele>824.4000244140625</ele>
        <time>2020-08-21T11:13:52.000Z</time>
      </trkpt>
      <trkpt lat="42.99563172273337841033935546875" lon="-1.14824655465781688690185546875">
        <ele>825</ele>
        <time>2020-08-21T11:13:58.000Z</time>
      </trkpt>
      <trkpt lat="42.995433323085308074951171875" lon="-1.14829852245748043060302734375">
        <ele>825.20001220703125</ele>
        <time>2020-08-21T11:14:04.000Z</time>
      </trkpt>
      <trkpt lat="42.9952665232121944427490234375" lon="-1.1483628116548061370849609375">
        <ele>824.5999755859375</ele>
        <time>2020-08-21T11:14:09.000Z</time>
      </trkpt>
      <trkpt lat="42.99504272639751434326171875" lon="-1.1483765579760074615478515625">
        <ele>825</ele>
        <time>2020-08-21T11:14:15.000Z</time>
      </trkpt>
      <trkpt lat="42.9947384633123874664306640625" lon="-1.148414276540279388427734375">
        <ele>824.20001220703125</ele>
        <time>2020-08-21T11:14:23.000Z</time>
      </trkpt>
      <trkpt lat="42.99453704617917537689208984375" lon="-1.14853656850755214691162109375">
        <ele>825</ele>
        <time>2020-08-21T11:14:29.000Z</time>
      </trkpt>
      <trkpt lat="42.99445808865129947662353515625" lon="-1.1487324535846710205078125">
        <ele>824.5999755859375</ele>
        <time>2020-08-21T11:14:34.000Z</time>
      </trkpt>
      <trkpt lat="42.994357086718082427978515625" lon="-1.14887553267180919647216796875">
        <ele>824.79998779296875</ele>
        <time>2020-08-21T11:14:39.000Z</time>
      </trkpt>
      <trkpt lat="42.99426128156483173370361328125" lon="-1.14882155321538448333740234375">
        <ele>824.5999755859375</ele>
        <time>2020-08-21T11:14:43.000Z</time>
      </trkpt>
      <trkpt lat="42.99411736428737640380859375" lon="-1.148659028112888336181640625">
        <ele>825</ele>
        <time>2020-08-21T11:14:49.000Z</time>
      </trkpt>
      <trkpt lat="42.99394478090107440948486328125" lon="-1.1486417613923549652099609375">
        <ele>825.20001220703125</ele>
        <time>2020-08-21T11:14:54.000Z</time>
      </trkpt>
      <trkpt lat="42.99391628243029117584228515625" lon="-1.14866799674928188323974609375">
        <ele>825</ele>
        <time>2020-08-21T11:14:55.000Z</time>
      </trkpt>
      <trkpt lat="42.99386917613446712493896484375" lon="-1.14879372529685497283935546875">
        <ele>824.79998779296875</ele>
        <time>2020-08-21T11:14:58.000Z</time>
      </trkpt>
      <trkpt lat="42.99388124607503414154052734375" lon="-1.14902053959667682647705078125">
        <ele>824.4000244140625</ele>
        <time>2020-08-21T11:15:03.000Z</time>
      </trkpt>
      <trkpt lat="42.99388937652111053466796875" lon="-1.149064712226390838623046875">
        <ele>824.4000244140625</ele>
        <time>2020-08-21T11:15:04.000Z</time>
      </trkpt>
      <trkpt lat="42.9939113371074199676513671875" lon="-1.14925749599933624267578125">
        <ele>824.79998779296875</ele>
        <time>2020-08-21T11:15:09.000Z</time>
      </trkpt>
      <trkpt lat="42.9938352294266223907470703125" lon="-1.14932279102504253387451171875">
        <ele>825.5999755859375</ele>
        <time>2020-08-21T11:15:13.000Z</time>
      </trkpt>
      <trkpt lat="42.9937353171408176422119140625" lon="-1.14924048073589801788330078125">
        <ele>826.79998779296875</ele>
        <time>2020-08-21T11:15:18.000Z</time>
      </trkpt>
      <trkpt lat="42.9936893843114376068115234375" lon="-1.149179376661777496337890625">
        <ele>827.79998779296875</ele>
        <time>2020-08-21T11:15:21.000Z</time>
      </trkpt>
      <trkpt lat="42.99364973790943622589111328125" lon="-1.14913486875593662261962890625">
        <ele>828</ele>
        <time>2020-08-21T11:15:23.000Z</time>
      </trkpt>
      <trkpt lat="42.99360372126102447509765625" lon="-1.14907887764275074005126953125">
        <ele>828.20001220703125</ele>
        <time>2020-08-21T11:15:25.000Z</time>
      </trkpt>
      <trkpt lat="42.9934429563581943511962890625" lon="-1.148932278156280517578125">
        <ele>828.79998779296875</ele>
        <time>2020-08-21T11:15:32.000Z</time>
      </trkpt>
      <trkpt lat="42.99342401325702667236328125" lon="-1.1489146761596202850341796875">
        <ele>829</ele>
        <time>2020-08-21T11:15:33.000Z</time>
      </trkpt>
      <trkpt lat="42.9933135397732257843017578125" lon="-1.14881551824510097503662109375">
        <ele>829.20001220703125</ele>
        <time>2020-08-21T11:15:38.000Z</time>
      </trkpt>
      <trkpt lat="42.9931670241057872772216796875" lon="-1.1487163603305816650390625">
        <ele>830</ele>
        <time>2020-08-21T11:15:44.000Z</time>
      </trkpt>
      <trkpt lat="42.9931403696537017822265625" lon="-1.148704625666141510009765625">
        <ele>830</ele>
        <time>2020-08-21T11:15:45.000Z</time>
      </trkpt>
      <trkpt lat="42.9929665289819240570068359375" lon="-1.14865877665579319000244140625">
        <ele>831.4000244140625</ele>
        <time>2020-08-21T11:15:52.000Z</time>
      </trkpt>
      <trkpt lat="42.9928394593298435211181640625" lon="-1.14865961484611034393310546875">
        <ele>832</ele>
        <time>2020-08-21T11:15:57.000Z</time>
      </trkpt>
      <trkpt lat="42.99273828975856304168701171875" lon="-1.14866699092090129852294921875">
        <ele>832.4000244140625</ele>
        <time>2020-08-21T11:16:01.000Z</time>
      </trkpt>
      <trkpt lat="42.9926683008670806884765625" lon="-1.14866782911121845245361328125">
        <ele>832.4000244140625</ele>
        <time>2020-08-21T11:16:04.000Z</time>
      </trkpt>
      <trkpt lat="42.99251918680965900421142578125" lon="-1.1487125046551227569580078125">
        <ele>833.20001220703125</ele>
        <time>2020-08-21T11:16:10.000Z</time>
      </trkpt>
      <trkpt lat="42.99249437637627124786376953125" lon="-1.14872398786246776580810546875">
        <ele>833.79998779296875</ele>
        <time>2020-08-21T11:16:11.000Z</time>
      </trkpt>
      <trkpt lat="42.9923999123275279998779296875" lon="-1.14879749715328216552734375">
        <ele>834.79998779296875</ele>
        <time>2020-08-21T11:16:15.000Z</time>
      </trkpt>
      <trkpt lat="42.99236185848712921142578125" lon="-1.1488513089716434478759765625">
        <ele>835</ele>
        <time>2020-08-21T11:16:17.000Z</time>
      </trkpt>
      <trkpt lat="42.9922728426754474639892578125" lon="-1.14906865172088146209716796875">
        <ele>835.79998779296875</ele>
        <time>2020-08-21T11:16:24.000Z</time>
      </trkpt>
      <trkpt lat="42.9922592639923095703125" lon="-1.149098575115203857421875">
        <ele>836</ele>
        <time>2020-08-21T11:16:25.000Z</time>
      </trkpt>
      <trkpt lat="42.9921699129045009613037109375" lon="-1.14921919070184230804443359375">
        <ele>836.5999755859375</ele>
        <time>2020-08-21T11:16:30.000Z</time>
      </trkpt>
      <trkpt lat="42.99209095537662506103515625" lon="-1.14928205497562885284423828125">
        <ele>837</ele>
        <time>2020-08-21T11:16:34.000Z</time>
      </trkpt>
      <trkpt lat="42.99207192845642566680908203125" lon="-1.14929060451686382293701171875">
        <ele>837.20001220703125</ele>
        <time>2020-08-21T11:16:35.000Z</time>
      </trkpt>
      <trkpt lat="42.99195952713489532470703125" lon="-1.1493220366537570953369140625">
        <ele>837.79998779296875</ele>
        <time>2020-08-21T11:16:40.000Z</time>
      </trkpt>
      <trkpt lat="42.9918684996664524078369140625" lon="-1.149315498769283294677734375">
        <ele>838</ele>
        <time>2020-08-21T11:16:44.000Z</time>
      </trkpt>
      <trkpt lat="42.99181871116161346435546875" lon="-1.149312816560268402099609375">
        <ele>838.20001220703125</ele>
        <time>2020-08-21T11:16:46.000Z</time>
      </trkpt>
      <trkpt lat="42.99166741780936717987060546875" lon="-1.14933569915592670440673828125">
        <ele>839</ele>
        <time>2020-08-21T11:16:52.000Z</time>
      </trkpt>
      <trkpt lat="42.991640008985996246337890625" lon="-1.14934374578297138214111328125">
        <ele>839.4000244140625</ele>
        <time>2020-08-21T11:16:53.000Z</time>
      </trkpt>
      <trkpt lat="42.99146491102874279022216796875" lon="-1.14945723675191402435302734375">
        <ele>840.20001220703125</ele>
        <time>2020-08-21T11:17:00.000Z</time>
      </trkpt>
      <trkpt lat="42.9913025535643100738525390625" lon="-1.1496604979038238525390625">
        <ele>840.5999755859375</ele>
        <time>2020-08-21T11:17:08.000Z</time>
      </trkpt>
      <trkpt lat="42.9912468977272510528564453125" lon="-1.149792931973934173583984375">
        <ele>841</ele>
        <time>2020-08-21T11:17:12.000Z</time>
      </trkpt>
      <trkpt lat="42.9911989532411098480224609375" lon="-1.14990214817225933074951171875">
        <ele>841.4000244140625</ele>
        <time>2020-08-21T11:17:15.000Z</time>
      </trkpt>
      <trkpt lat="42.9910842888057231903076171875" lon="-1.15019551478326320648193359375">
        <ele>841.4000244140625</ele>
        <time>2020-08-21T11:17:23.000Z</time>
      </trkpt>
      <trkpt lat="42.9909650981426239013671875" lon="-1.15047211758792400360107421875">
        <ele>841.5999755859375</ele>
        <time>2020-08-21T11:17:31.000Z</time>
      </trkpt>
      <trkpt lat="42.99094841815531253814697265625" lon="-1.15072256885468959808349609375">
        <ele>841.79998779296875</ele>
        <time>2020-08-21T11:17:37.000Z</time>
      </trkpt>
      <trkpt lat="42.99099250696599483489990234375" lon="-1.1510230600833892822265625">
        <ele>841.20001220703125</ele>
        <time>2020-08-21T11:17:43.000Z</time>
      </trkpt>
      <trkpt lat="42.9910339973866939544677734375" lon="-1.15117703564465045928955078125">
        <ele>840.20001220703125</ele>
        <time>2020-08-21T11:17:46.000Z</time>
      </trkpt>
      <trkpt lat="42.99108252860605716705322265625" lon="-1.1512713320553302764892578125">
        <ele>840.20001220703125</ele>
        <time>2020-08-21T11:17:48.000Z</time>
      </trkpt>
      <trkpt lat="42.9911124520003795623779296875" lon="-1.1513234674930572509765625">
        <ele>840</ele>
        <time>2020-08-21T11:17:49.000Z</time>
      </trkpt>
      <trkpt lat="42.991145811975002288818359375" lon="-1.15137853659689426422119140625">
        <ele>839.5999755859375</ele>
        <time>2020-08-21T11:17:50.000Z</time>
      </trkpt>
      <trkpt lat="42.99121546559035778045654296875" lon="-1.1514771915972232818603515625">
        <ele>839</ele>
        <time>2020-08-21T11:17:52.000Z</time>
      </trkpt>
      <trkpt lat="42.99127296544611454010009765625" lon="-1.15157316438853740692138671875">
        <ele>838.79998779296875</ele>
        <time>2020-08-21T11:17:54.000Z</time>
      </trkpt>
      <trkpt lat="42.99128687940537929534912109375" lon="-1.15161423571407794952392578125">
        <ele>838.5999755859375</ele>
        <time>2020-08-21T11:17:55.000Z</time>
      </trkpt>
      <trkpt lat="42.99129123799502849578857421875" lon="-1.1516506969928741455078125">
        <ele>838.5999755859375</ele>
        <time>2020-08-21T11:17:56.000Z</time>
      </trkpt>
      <trkpt lat="42.991283275187015533447265625" lon="-1.1516853980720043182373046875">
        <ele>838.79998779296875</ele>
        <time>2020-08-21T11:17:57.000Z</time>
      </trkpt>
      <trkpt lat="42.99123977310955524444580078125" lon="-1.15176510997116565704345703125">
        <ele>838.79998779296875</ele>
        <time>2020-08-21T11:17:59.000Z</time>
      </trkpt>
      <trkpt lat="42.9911372624337673187255859375" lon="-1.1518223583698272705078125">
        <ele>839</ele>
        <time>2020-08-21T11:18:02.000Z</time>
      </trkpt>
      <trkpt lat="42.99110113643109798431396484375" lon="-1.1518335901200771331787109375">
        <ele>839.20001220703125</ele>
        <time>2020-08-21T11:18:03.000Z</time>
      </trkpt>
      <trkpt lat="42.99100390635430812835693359375" lon="-1.15180903114378452301025390625">
        <ele>840.20001220703125</ele>
        <time>2020-08-21T11:18:06.000Z</time>
      </trkpt>
      <trkpt lat="42.99094875343143939971923828125" lon="-1.1518144793808460235595703125">
        <ele>840.79998779296875</ele>
        <time>2020-08-21T11:18:08.000Z</time>
      </trkpt>
      <trkpt lat="42.9908578097820281982421875" lon="-1.1517913453280925750732421875">
        <ele>841.4000244140625</ele>
        <time>2020-08-21T11:18:11.000Z</time>
      </trkpt>
      <trkpt lat="42.99080022610723972320556640625" lon="-1.15178589709103107452392578125">
        <ele>841.4000244140625</ele>
        <time>2020-08-21T11:18:13.000Z</time>
      </trkpt>
      <trkpt lat="42.990639209747314453125" lon="-1.15178422071039676666259765625">
        <ele>842.20001220703125</ele>
        <time>2020-08-21T11:18:19.000Z</time>
      </trkpt>
      <trkpt lat="42.99052580259740352630615234375" lon="-1.151800565421581268310546875">
        <ele>842.5999755859375</ele>
        <time>2020-08-21T11:18:23.000Z</time>
      </trkpt>
      <trkpt lat="42.9904952086508274078369140625" lon="-1.15181204862892627716064453125">
        <ele>842.5999755859375</ele>
        <time>2020-08-21T11:18:24.000Z</time>
      </trkpt>
      <trkpt lat="42.99031860195100307464599609375" lon="-1.1519207619130611419677734375">
        <ele>842.4000244140625</ele>
        <time>2020-08-21T11:18:30.000Z</time>
      </trkpt>
      <trkpt lat="42.99017719924449920654296875" lon="-1.15205093286931514739990234375">
        <ele>842.4000244140625</ele>
        <time>2020-08-21T11:18:35.000Z</time>
      </trkpt>
      <trkpt lat="42.98998676240444183349609375" lon="-1.15217666141688823699951171875">
        <ele>842.20001220703125</ele>
        <time>2020-08-21T11:18:41.000Z</time>
      </trkpt>
      <trkpt lat="42.98978283070027828216552734375" lon="-1.1523180641233921051025390625">
        <ele>842</ele>
        <time>2020-08-21T11:18:47.000Z</time>
      </trkpt>
      <trkpt lat="42.98958200030028820037841796875" lon="-1.15249156951904296875">
        <ele>841.79998779296875</ele>
        <time>2020-08-21T11:18:53.000Z</time>
      </trkpt>
      <trkpt lat="42.9894451238214969635009765625" lon="-1.1525960080325603485107421875">
        <ele>841.20001220703125</ele>
        <time>2020-08-21T11:18:57.000Z</time>
      </trkpt>
      <trkpt lat="42.989391647279262542724609375" lon="-1.1526580341160297393798828125">
        <ele>840.79998779296875</ele>
        <time>2020-08-21T11:18:59.000Z</time>
      </trkpt>
      <trkpt lat="42.98923046328127384185791015625" lon="-1.152817122638225555419921875">
        <ele>841.4000244140625</ele>
        <time>2020-08-21T11:19:04.000Z</time>
      </trkpt>
      <trkpt lat="42.9890538565814495086669921875" lon="-1.152941845357418060302734375">
        <ele>841.20001220703125</ele>
        <time>2020-08-21T11:19:09.000Z</time>
      </trkpt>
      <trkpt lat="42.988957129418849945068359375" lon="-1.1530667357146739959716796875">
        <ele>841.20001220703125</ele>
        <time>2020-08-21T11:19:13.000Z</time>
      </trkpt>
      <trkpt lat="42.98891630955040454864501953125" lon="-1.15322222001850605010986328125">
        <ele>840.79998779296875</ele>
        <time>2020-08-21T11:19:17.000Z</time>
      </trkpt>
      <trkpt lat="42.98896593041718006134033203125" lon="-1.15335616283118724822998046875">
        <ele>840.4000244140625</ele>
        <time>2020-08-21T11:19:20.000Z</time>
      </trkpt>
      <trkpt lat="42.9889936745166778564453125" lon="-1.15340410731732845306396484375">
        <ele>840.20001220703125</ele>
        <time>2020-08-21T11:19:21.000Z</time>
      </trkpt>
      <trkpt lat="42.98914697952568531036376953125" lon="-1.15356336347758769989013671875">
        <ele>839</ele>
        <time>2020-08-21T11:19:25.000Z</time>
      </trkpt>
      <trkpt lat="42.989236414432525634765625" lon="-1.1536373756825923919677734375">
        <ele>837.5999755859375</ele>
        <time>2020-08-21T11:19:27.000Z</time>
      </trkpt>
      <trkpt lat="42.98931662924587726593017578125" lon="-1.1537211947143077850341796875">
        <ele>836.4000244140625</ele>
        <time>2020-08-21T11:19:29.000Z</time>
      </trkpt>
      <trkpt lat="42.989356778562068939208984375" lon="-1.15376654081046581268310546875">
        <ele>836.20001220703125</ele>
        <time>2020-08-21T11:19:30.000Z</time>
      </trkpt>
      <trkpt lat="42.98939826898276805877685546875" lon="-1.1538040079176425933837890625">
        <ele>835.79998779296875</ele>
        <time>2020-08-21T11:19:31.000Z</time>
      </trkpt>
      <trkpt lat="42.98944369889795780181884765625" lon="-1.15383862517774105072021484375">
        <ele>835.20001220703125</ele>
        <time>2020-08-21T11:19:32.000Z</time>
      </trkpt>
      <trkpt lat="42.9895433597266674041748046875" lon="-1.1539307422935962677001953125">
        <ele>834.4000244140625</ele>
        <time>2020-08-21T11:19:34.000Z</time>
      </trkpt>
      <trkpt lat="42.98958786763250827789306640625" lon="-1.153975836932659149169921875">
        <ele>833.5999755859375</ele>
        <time>2020-08-21T11:19:35.000Z</time>
      </trkpt>
      <trkpt lat="42.9896405898034572601318359375" lon="-1.1540185846388339996337890625">
        <ele>832.79998779296875</ele>
        <time>2020-08-21T11:19:36.000Z</time>
      </trkpt>
      <trkpt lat="42.98969498835504055023193359375" lon="-1.15406728349626064300537109375">
        <ele>832</ele>
        <time>2020-08-21T11:19:37.000Z</time>
      </trkpt>
      <trkpt lat="42.989749051630496978759765625" lon="-1.15411757491528987884521484375">
        <ele>831.4000244140625</ele>
        <time>2020-08-21T11:19:38.000Z</time>
      </trkpt>
      <trkpt lat="42.989801354706287384033203125" lon="-1.15417105145752429962158203125">
        <ele>830.79998779296875</ele>
        <time>2020-08-21T11:19:39.000Z</time>
      </trkpt>
      <trkpt lat="42.9899024404585361480712890625" lon="-1.1542925052344799041748046875">
        <ele>830.20001220703125</ele>
        <time>2020-08-21T11:19:41.000Z</time>
      </trkpt>
      <trkpt lat="42.98993689008057117462158203125" lon="-1.15437255240976810455322265625">
        <ele>829.79998779296875</ele>
        <time>2020-08-21T11:19:42.000Z</time>
      </trkpt>
      <trkpt lat="42.9899745248258113861083984375" lon="-1.15445536561310291290283203125">
        <ele>829.5999755859375</ele>
        <time>2020-08-21T11:19:43.000Z</time>
      </trkpt>
      <trkpt lat="42.99006312154233455657958984375" lon="-1.15461814217269420623779296875">
        <ele>827.5999755859375</ele>
        <time>2020-08-21T11:19:45.000Z</time>
      </trkpt>
      <trkpt lat="42.99015314318239688873291015625" lon="-1.1547595448791980743408203125">
        <ele>826.5999755859375</ele>
        <time>2020-08-21T11:19:47.000Z</time>
      </trkpt>
      <trkpt lat="42.99024467356503009796142578125" lon="-1.15487814880907535552978515625">
        <ele>825.4000244140625</ele>
        <time>2020-08-21T11:19:49.000Z</time>
      </trkpt>
      <trkpt lat="42.99037576653063297271728515625" lon="-1.15508786402642726898193359375">
        <ele>824.4000244140625</ele>
        <time>2020-08-21T11:19:52.000Z</time>
      </trkpt>
      <trkpt lat="42.99050484783947467803955078125" lon="-1.155481226742267608642578125">
        <ele>824.20001220703125</ele>
        <time>2020-08-21T11:19:57.000Z</time>
      </trkpt>
      <trkpt lat="42.99051691778004169464111328125" lon="-1.15555792115628719329833984375">
        <ele>824</ele>
        <time>2020-08-21T11:19:58.000Z</time>
      </trkpt>
      <trkpt lat="42.99053954891860485076904296875" lon="-1.1557667143642902374267578125">
        <ele>823.20001220703125</ele>
        <time>2020-08-21T11:20:01.000Z</time>
      </trkpt>
      <trkpt lat="42.9905602522194385528564453125" lon="-1.15588925778865814208984375">
        <ele>822.5999755859375</ele>
        <time>2020-08-21T11:20:03.000Z</time>
      </trkpt>
      <trkpt lat="42.99057726748287677764892578125" lon="-1.1560862325131893157958984375">
        <ele>822.79998779296875</ele>
        <time>2020-08-21T11:20:07.000Z</time>
      </trkpt>
      <trkpt lat="42.990584559738636016845703125" lon="-1.15622897632420063018798828125">
        <ele>823.20001220703125</ele>
        <time>2020-08-21T11:20:10.000Z</time>
      </trkpt>
      <trkpt lat="42.9905448295176029205322265625" lon="-1.15656944923102855682373046875">
        <ele>823.79998779296875</ele>
        <time>2020-08-21T11:20:16.000Z</time>
      </trkpt>
      <trkpt lat="42.99047836102545261383056640625" lon="-1.15684068761765956878662109375">
        <ele>824</ele>
        <time>2020-08-21T11:20:21.000Z</time>
      </trkpt>
      <trkpt lat="42.99045690335333347320556640625" lon="-1.15693205036222934722900390625">
        <ele>824.20001220703125</ele>
        <time>2020-08-21T11:20:25.000Z</time>
      </trkpt>
      <trkpt lat="42.990453802049160003662109375" lon="-1.15694562904536724090576171875">
        <ele>824.4000244140625</ele>
        <time>2020-08-21T11:20:27.000Z</time>
      </trkpt>
      <trkpt lat="42.99043561331927776336669921875" lon="-1.15703380666673183441162109375">
        <ele>823.79998779296875</ele>
        <time>2020-08-21T11:28:00.000Z</time>
      </trkpt>
      <trkpt lat="42.99043678678572177886962890625" lon="-1.15704252384603023529052734375">
        <ele>824</ele>
        <time>2020-08-21T11:28:04.000Z</time>
      </trkpt>
      <trkpt lat="42.9904402233660221099853515625" lon="-1.15705342032015323638916015625">
        <ele>823.79998779296875</ele>
        <time>2020-08-21T11:28:05.000Z</time>
      </trkpt>
      <trkpt lat="42.9904700629413127899169921875" lon="-1.15712282247841358184814453125">
        <ele>823.79998779296875</ele>
        <time>2020-08-21T11:28:11.000Z</time>
      </trkpt>
      <trkpt lat="42.9905019141733646392822265625" lon="-1.15724687464535236358642578125">
        <ele>823.5999755859375</ele>
        <time>2020-08-21T11:28:17.000Z</time>
      </trkpt>
      <trkpt lat="42.9905096255242824554443359375" lon="-1.157266907393932342529296875">
        <ele>823.5999755859375</ele>
        <time>2020-08-21T11:28:18.000Z</time>
      </trkpt>
      <trkpt lat="42.9905495233833789825439453125" lon="-1.15736405365169048309326171875">
        <ele>823.79998779296875</ele>
        <time>2020-08-21T11:28:23.000Z</time>
      </trkpt>
      <trkpt lat="42.9905481822788715362548828125" lon="-1.157391965389251708984375">
        <ele>823.79998779296875</ele>
        <time>2020-08-21T11:28:24.000Z</time>
      </trkpt>
      <trkpt lat="42.99048456363379955291748046875" lon="-1.15750604309141635894775390625">
        <ele>824</ele>
        <time>2020-08-21T11:28:28.000Z</time>
      </trkpt>
      <trkpt lat="42.9903922788798809051513671875" lon="-1.15763495676219463348388671875">
        <ele>824.20001220703125</ele>
        <time>2020-08-21T11:28:33.000Z</time>
      </trkpt>
      <trkpt lat="42.9903466813266277313232421875" lon="-1.157762110233306884765625">
        <ele>824.20001220703125</ele>
        <time>2020-08-21T11:28:38.000Z</time>
      </trkpt>
      <trkpt lat="42.9902672208845615386962890625" lon="-1.15796528756618499755859375">
        <ele>824</ele>
        <time>2020-08-21T11:28:45.000Z</time>
      </trkpt>
      <trkpt lat="42.9902048595249652862548828125" lon="-1.15812177769839763641357421875">
        <ele>824.20001220703125</ele>
        <time>2020-08-21T11:28:50.000Z</time>
      </trkpt>
      <trkpt lat="42.9901202023029327392578125" lon="-1.158247254788875579833984375">
        <ele>824.20001220703125</ele>
        <time>2020-08-21T11:28:54.000Z</time>
      </trkpt>
      <trkpt lat="42.98999011516571044921875" lon="-1.1584366858005523681640625">
        <ele>823.20001220703125</ele>
        <time>2020-08-21T11:29:00.000Z</time>
      </trkpt>
      <trkpt lat="42.9898739419877529144287109375" lon="-1.1585615761578083038330078125">
        <ele>823.4000244140625</ele>
        <time>2020-08-21T11:29:05.000Z</time>
      </trkpt>
      <trkpt lat="42.9897576011717319488525390625" lon="-1.15874849259853363037109375">
        <ele>823.20001220703125</ele>
        <time>2020-08-21T11:29:11.000Z</time>
      </trkpt>
      <trkpt lat="42.989641092717647552490234375" lon="-1.15893700160086154937744140625">
        <ele>824.20001220703125</ele>
        <time>2020-08-21T11:29:17.000Z</time>
      </trkpt>
      <trkpt lat="42.98952349461615085601806640625" lon="-1.159096844494342803955078125">
        <ele>823.79998779296875</ele>
        <time>2020-08-21T11:29:22.000Z</time>
      </trkpt>
      <trkpt lat="42.98944470472633838653564453125" lon="-1.15919508039951324462890625">
        <ele>823.5999755859375</ele>
        <time>2020-08-21T11:29:27.000Z</time>
      </trkpt>
      <trkpt lat="42.9894578643143177032470703125" lon="-1.15920673124492168426513671875">
        <ele>823.4000244140625</ele>
        <time>2020-08-21T11:29:31.000Z</time>
      </trkpt>
      <trkpt lat="42.98947303555905818939208984375" lon="-1.1591965891420841217041015625">
        <ele>823.4000244140625</ele>
        <time>2020-08-21T11:29:33.000Z</time>
      </trkpt>
      <trkpt lat="42.98949147574603557586669921875" lon="-1.1591697670519351959228515625">
        <ele>823.4000244140625</ele>
        <time>2020-08-21T11:29:35.000Z</time>
      </trkpt>
      <trkpt lat="42.9895105026662349700927734375" lon="-1.159122325479984283447265625">
        <ele>823.79998779296875</ele>
        <time>2020-08-21T11:29:37.000Z</time>
      </trkpt>
      <trkpt lat="42.9895554296672344207763671875" lon="-1.1590477265417575836181640625">
        <ele>823.4000244140625</ele>
        <time>2020-08-21T11:29:40.000Z</time>
      </trkpt>
      <trkpt lat="42.989590801298618316650390625" lon="-1.158998943865299224853515625">
        <ele>823.4000244140625</ele>
        <time>2020-08-21T11:29:42.000Z</time>
      </trkpt>
      <trkpt lat="42.9896767996251583099365234375" lon="-1.15886055864393711090087890625">
        <ele>823.4000244140625</ele>
        <time>2020-08-21T11:29:47.000Z</time>
      </trkpt>
      <trkpt lat="42.98977562226355075836181640625" lon="-1.15864732302725315093994140625">
        <ele>823.5999755859375</ele>
        <time>2020-08-21T11:29:53.000Z</time>
      </trkpt>
      <trkpt lat="42.98988022841513156890869140625" lon="-1.1584844626486301422119140625">
        <ele>823.5999755859375</ele>
        <time>2020-08-21T11:29:58.000Z</time>
      </trkpt>
      <trkpt lat="42.990017943084239959716796875" lon="-1.158266365528106689453125">
        <ele>823.79998779296875</ele>
        <time>2020-08-21T11:30:04.000Z</time>
      </trkpt>
      <trkpt lat="42.990113161504268646240234375" lon="-1.1580804549157619476318359375">
        <ele>823.79998779296875</ele>
        <time>2020-08-21T11:30:09.000Z</time>
      </trkpt>
      <trkpt lat="42.9901703260838985443115234375" lon="-1.15793234668672084808349609375">
        <ele>824.20001220703125</ele>
        <time>2020-08-21T11:30:12.000Z</time>
      </trkpt>
      <trkpt lat="42.990203686058521270751953125" lon="-1.15784416906535625457763671875">
        <ele>824</ele>
        <time>2020-08-21T11:30:14.000Z</time>
      </trkpt>
      <trkpt lat="42.9902149178087711334228515625" lon="-1.157807372510433197021484375">
        <ele>823.79998779296875</ele>
        <time>2020-08-21T11:30:15.000Z</time>
      </trkpt>
      <trkpt lat="42.99027786590158939361572265625" lon="-1.15756287239491939544677734375">
        <ele>821.4000244140625</ele>
        <time>2020-08-21T11:39:50.000Z</time>
      </trkpt>
      <trkpt lat="42.9902823083102703094482421875" lon="-1.157563291490077972412109375">
        <ele>821.4000244140625</ele>
        <time>2020-08-21T11:39:51.000Z</time>
      </trkpt>
      <trkpt lat="42.99029747955501079559326171875" lon="-1.1575641296803951263427734375">
        <ele>821.79998779296875</ele>
        <time>2020-08-21T11:39:54.000Z</time>
      </trkpt>
      <trkpt lat="42.9903319291770458221435546875" lon="-1.1575812287628650665283203125">
        <ele>822.4000244140625</ele>
        <time>2020-08-21T11:40:03.000Z</time>
      </trkpt>
      <trkpt lat="42.99033016897737979888916015625" lon="-1.15762020461261272430419921875">
        <ele>823</ele>
        <time>2020-08-21T11:40:07.000Z</time>
      </trkpt>
      <trkpt lat="42.99033142626285552978515625" lon="-1.1576285026967525482177734375">
        <ele>823</ele>
        <time>2020-08-21T11:40:10.000Z</time>
      </trkpt>
      <trkpt lat="42.9903106391429901123046875" lon="-1.15769212134182453155517578125">
        <ele>822.79998779296875</ele>
        <time>2020-08-21T11:40:17.000Z</time>
      </trkpt>
      <trkpt lat="42.99029253423213958740234375" lon="-1.157746352255344390869140625">
        <ele>822.79998779296875</ele>
        <time>2020-08-21T11:40:20.000Z</time>
      </trkpt>
      <trkpt lat="42.99027970992028713226318359375" lon="-1.15780209191143512725830078125">
        <ele>822.79998779296875</ele>
        <time>2020-08-21T11:40:22.000Z</time>
      </trkpt>
      <trkpt lat="42.9902092181146144866943359375" lon="-1.15799588151276111602783203125">
        <ele>822.79998779296875</ele>
        <time>2020-08-21T11:40:28.000Z</time>
      </trkpt>
      <trkpt lat="42.990121208131313323974609375" lon="-1.15819595754146575927734375">
        <ele>822.4000244140625</ele>
        <time>2020-08-21T11:40:34.000Z</time>
      </trkpt>
      <trkpt lat="42.99003076739609241485595703125" lon="-1.15836049430072307586669921875">
        <ele>823.4000244140625</ele>
        <time>2020-08-21T11:40:39.000Z</time>
      </trkpt>
      <trkpt lat="42.989896237850189208984375" lon="-1.15853752009570598602294921875">
        <ele>823.20001220703125</ele>
        <time>2020-08-21T11:40:45.000Z</time>
      </trkpt>
      <trkpt lat="42.98975165002048015594482421875" lon="-1.15875645540654659271240234375">
        <ele>822</ele>
        <time>2020-08-21T11:40:51.000Z</time>
      </trkpt>
      <trkpt lat="42.98964117653667926788330078125" lon="-1.15895627997815608978271484375">
        <ele>822.4000244140625</ele>
        <time>2020-08-21T11:40:56.000Z</time>
      </trkpt>
      <trkpt lat="42.98947102390229701995849609375" lon="-1.15918510593473911285400390625">
        <ele>822.5999755859375</ele>
        <time>2020-08-21T11:41:03.000Z</time>
      </trkpt>
      <trkpt lat="42.98931193538010120391845703125" lon="-1.1593739502131938934326171875">
        <ele>822.5999755859375</ele>
        <time>2020-08-21T11:41:09.000Z</time>
      </trkpt>
      <trkpt lat="42.98911110498011112213134765625" lon="-1.15951786749064922332763671875">
        <ele>822.20001220703125</ele>
        <time>2020-08-21T11:41:15.000Z</time>
      </trkpt>
      <trkpt lat="42.988900132477283477783203125" lon="-1.15958576090633869171142578125">
        <ele>823</ele>
        <time>2020-08-21T11:41:21.000Z</time>
      </trkpt>
      <trkpt lat="42.98872285522520542144775390625" lon="-1.159662790596485137939453125">
        <ele>822.79998779296875</ele>
        <time>2020-08-21T11:41:26.000Z</time>
      </trkpt>
      <trkpt lat="42.98847910948097705841064453125" lon="-1.15975004620850086212158203125">
        <ele>822.79998779296875</ele>
        <time>2020-08-21T11:41:33.000Z</time>
      </trkpt>
      <trkpt lat="42.98823670484125614166259765625" lon="-1.1597836576402187347412109375">
        <ele>822.4000244140625</ele>
        <time>2020-08-21T11:41:40.000Z</time>
      </trkpt>
      <trkpt lat="42.98802950419485569000244140625" lon="-1.15978776477277278900146484375">
        <ele>822.5999755859375</ele>
        <time>2020-08-21T11:41:46.000Z</time>
      </trkpt>
      <trkpt lat="42.9878230579197406768798828125" lon="-1.15969338454306125640869140625">
        <ele>821.79998779296875</ele>
        <time>2020-08-21T11:41:52.000Z</time>
      </trkpt>
      <trkpt lat="42.98763287253677845001220703125" lon="-1.15958173759281635284423828125">
        <ele>822.5999755859375</ele>
        <time>2020-08-21T11:41:58.000Z</time>
      </trkpt>
      <trkpt lat="42.9874542541801929473876953125" lon="-1.15946807898581027984619140625">
        <ele>822.5999755859375</ele>
        <time>2020-08-21T11:42:04.000Z</time>
      </trkpt>
      <trkpt lat="42.98732676543295383453369140625" lon="-1.15927755832672119140625">
        <ele>823</ele>
        <time>2020-08-21T11:42:10.000Z</time>
      </trkpt>
      <trkpt lat="42.98728653229773044586181640625" lon="-1.15921326912939548492431640625">
        <ele>823.5999755859375</ele>
        <time>2020-08-21T11:42:12.000Z</time>
      </trkpt>
      <trkpt lat="42.98722006380558013916015625" lon="-1.1591233313083648681640625">
        <ele>825</ele>
        <time>2020-08-21T11:42:15.000Z</time>
      </trkpt>
      <trkpt lat="42.98719885759055614471435546875" lon="-1.1590960063040256500244140625">
        <ele>825.20001220703125</ele>
        <time>2020-08-21T11:42:16.000Z</time>
      </trkpt>
      <trkpt lat="42.98711478710174560546875" lon="-1.15898544900119304656982421875">
        <ele>826</ele>
        <time>2020-08-21T11:42:20.000Z</time>
      </trkpt>
      <trkpt lat="42.98701110295951366424560546875" lon="-1.1587935872375965118408203125">
        <ele>827</ele>
        <time>2020-08-21T11:42:26.000Z</time>
      </trkpt>
      <trkpt lat="42.98699735663831233978271484375" lon="-1.1587587185204029083251953125">
        <ele>827</ele>
        <time>2020-08-21T11:42:27.000Z</time>
      </trkpt>
      <trkpt lat="42.9869868792593479156494140625" lon="-1.15871991030871868133544921875">
        <ele>827.20001220703125</ele>
        <time>2020-08-21T11:42:28.000Z</time>
      </trkpt>
      <trkpt lat="42.986916638910770416259765625" lon="-1.1585662700235843658447265625">
        <ele>828.4000244140625</ele>
        <time>2020-08-21T11:42:33.000Z</time>
      </trkpt>
      <trkpt lat="42.986903898417949676513671875" lon="-1.158538945019245147705078125">
        <ele>828.4000244140625</ele>
        <time>2020-08-21T11:42:34.000Z</time>
      </trkpt>
      <trkpt lat="42.98682510852813720703125" lon="-1.15838547237217426300048828125">
        <ele>829.20001220703125</ele>
        <time>2020-08-21T11:42:40.000Z</time>
      </trkpt>
      <trkpt lat="42.9867552034556865692138671875" lon="-1.15822755731642246246337890625">
        <ele>829.5999755859375</ele>
        <time>2020-08-21T11:42:46.000Z</time>
      </trkpt>
      <trkpt lat="42.9867146350443363189697265625" lon="-1.15815949626266956329345703125">
        <ele>830</ele>
        <time>2020-08-21T11:42:49.000Z</time>
      </trkpt>
      <trkpt lat="42.98667783848941326141357421875" lon="-1.158050782978534698486328125">
        <ele>830.4000244140625</ele>
        <time>2020-08-21T11:42:53.000Z</time>
      </trkpt>
      <trkpt lat="42.986628971993923187255859375" lon="-1.1578440852463245391845703125">
        <ele>830.79998779296875</ele>
        <time>2020-08-21T11:42:59.000Z</time>
      </trkpt>
      <trkpt lat="42.98655965365469455718994140625" lon="-1.1577384732663631439208984375">
        <ele>832</ele>
        <time>2020-08-21T11:43:03.000Z</time>
      </trkpt>
      <trkpt lat="42.9864963702857494354248046875" lon="-1.1576167680323123931884765625">
        <ele>832.20001220703125</ele>
        <time>2020-08-21T11:43:07.000Z</time>
      </trkpt>
      <trkpt lat="42.9864616692066192626953125" lon="-1.15757368505001068115234375">
        <ele>832.79998779296875</ele>
        <time>2020-08-21T11:43:09.000Z</time>
      </trkpt>
      <trkpt lat="42.98638380132615566253662109375" lon="-1.1575292609632015228271484375">
        <ele>833.79998779296875</ele>
        <time>2020-08-21T11:43:13.000Z</time>
      </trkpt>
      <trkpt lat="42.98636980354785919189453125" lon="-1.15752867422997951507568359375">
        <ele>834</ele>
        <time>2020-08-21T11:43:14.000Z</time>
      </trkpt>
      <trkpt lat="42.9863102920353412628173828125" lon="-1.1575758643448352813720703125">
        <ele>834.20001220703125</ele>
        <time>2020-08-21T11:43:19.000Z</time>
      </trkpt>
      <trkpt lat="42.9862821288406848907470703125" lon="-1.15761249326169490814208984375">
        <ele>835</ele>
        <time>2020-08-21T11:43:22.000Z</time>
      </trkpt>
      <trkpt lat="42.9862519539892673492431640625" lon="-1.15762188099324703216552734375">
        <ele>835</ele>
        <time>2020-08-21T11:43:24.000Z</time>
      </trkpt>
      <trkpt lat="42.98610233701765537261962890625" lon="-1.15779790095984935760498046875">
        <ele>835.20001220703125</ele>
        <time>2020-08-21T11:43:33.000Z</time>
      </trkpt>
      <trkpt lat="42.985953390598297119140625" lon="-1.1580316722393035888671875">
        <ele>835.4000244140625</ele>
        <time>2020-08-21T11:43:42.000Z</time>
      </trkpt>
      <trkpt lat="42.98579338006675243377685546875" lon="-1.15824113599956035614013671875">
        <ele>835</ele>
        <time>2020-08-21T11:43:48.000Z</time>
      </trkpt>
      <trkpt lat="42.9856923781335353851318359375" lon="-1.158400475978851318359375">
        <ele>835</ele>
        <time>2020-08-21T11:43:53.000Z</time>
      </trkpt>
      <trkpt lat="42.98564552329480648040771484375" lon="-1.15857590921223163604736328125">
        <ele>835</ele>
        <time>2020-08-21T11:43:58.000Z</time>
      </trkpt>
      <trkpt lat="42.985615767538547515869140625" lon="-1.15875863470137119293212890625">
        <ele>835.5999755859375</ele>
        <time>2020-08-21T11:44:03.000Z</time>
      </trkpt>
      <trkpt lat="42.98553572036325931549072265625" lon="-1.159029118716716766357421875">
        <ele>836.4000244140625</ele>
        <time>2020-08-21T11:44:10.000Z</time>
      </trkpt>
      <trkpt lat="42.9854858480393886566162109375" lon="-1.15926842205226421356201171875">
        <ele>836.5999755859375</ele>
        <time>2020-08-21T11:44:16.000Z</time>
      </trkpt>
      <trkpt lat="42.98543094657361507415771484375" lon="-1.1594934761524200439453125">
        <ele>837.4000244140625</ele>
        <time>2020-08-21T11:44:22.000Z</time>
      </trkpt>
      <trkpt lat="42.98541854135692119598388671875" lon="-1.1595275066792964935302734375">
        <ele>837.79998779296875</ele>
        <time>2020-08-21T11:44:23.000Z</time>
      </trkpt>
      <trkpt lat="42.98535525798797607421875" lon="-1.159734539687633514404296875">
        <ele>839.20001220703125</ele>
        <time>2020-08-21T11:44:30.000Z</time>
      </trkpt>
      <trkpt lat="42.985329441726207733154296875" lon="-1.15983336232602596282958984375">
        <ele>840</ele>
        <time>2020-08-21T11:44:34.000Z</time>
      </trkpt>
      <trkpt lat="42.98527705483138561248779296875" lon="-1.15997350774705410003662109375">
        <ele>841.20001220703125</ele>
        <time>2020-08-21T11:44:40.000Z</time>
      </trkpt>
      <trkpt lat="42.98525291495025157928466796875" lon="-1.16008155047893524169921875">
        <ele>842</ele>
        <time>2020-08-21T11:44:46.000Z</time>
      </trkpt>
      <trkpt lat="42.9852307029068470001220703125" lon="-1.1601491086184978485107421875">
        <ele>842.4000244140625</ele>
        <time>2020-08-21T11:44:49.000Z</time>
      </trkpt>
      <trkpt lat="42.9852193035185337066650390625" lon="-1.1602069437503814697265625">
        <ele>842.4000244140625</ele>
        <time>2020-08-21T11:44:52.000Z</time>
      </trkpt>
      <trkpt lat="42.98516683280467987060546875" lon="-1.16035773418843746185302734375">
        <ele>842.79998779296875</ele>
        <time>2020-08-21T11:44:58.000Z</time>
      </trkpt>
      <trkpt lat="42.98514931462705135345458984375" lon="-1.1605340056121349334716796875">
        <ele>843.20001220703125</ele>
        <time>2020-08-21T11:45:04.000Z</time>
      </trkpt>
      <trkpt lat="42.985137999057769775390625" lon="-1.16056225262582302093505859375">
        <ele>843.4000244140625</ele>
        <time>2020-08-21T11:45:05.000Z</time>
      </trkpt>
      <trkpt lat="42.98512601293623447418212890625" lon="-1.16076040081679821014404296875">
        <ele>843</ele>
        <time>2020-08-21T11:45:10.000Z</time>
      </trkpt>
      <trkpt lat="42.9851237498223781585693359375" lon="-1.16082997061312198638916015625">
        <ele>842</ele>
        <time>2020-08-21T11:45:11.000Z</time>
      </trkpt>
      <trkpt lat="42.98511226661503314971923828125" lon="-1.1609929986298084259033203125">
        <ele>841</ele>
        <time>2020-08-21T11:45:13.000Z</time>
      </trkpt>
      <trkpt lat="42.98510606400668621063232421875" lon="-1.16107975132763385772705078125">
        <ele>840.20001220703125</ele>
        <time>2020-08-21T11:45:14.000Z</time>
      </trkpt>
      <trkpt lat="42.98510639928281307220458984375" lon="-1.16117010824382305145263671875">
        <ele>839.4000244140625</ele>
        <time>2020-08-21T11:45:15.000Z</time>
      </trkpt>
      <trkpt lat="42.98514076508581638336181640625" lon="-1.161346547305583953857421875">
        <ele>838.20001220703125</ele>
        <time>2020-08-21T11:45:17.000Z</time>
      </trkpt>
      <trkpt lat="42.9851773940026760101318359375" lon="-1.161432377994060516357421875">
        <ele>837.5999755859375</ele>
        <time>2020-08-21T11:45:18.000Z</time>
      </trkpt>
      <trkpt lat="42.9852179624140262603759765625" lon="-1.1615163646638393402099609375">
        <ele>836.79998779296875</ele>
        <time>2020-08-21T11:45:19.000Z</time>
      </trkpt>
      <trkpt lat="42.98529717139899730682373046875" lon="-1.16167084313929080963134765625">
        <ele>835.4000244140625</ele>
        <time>2020-08-21T11:45:21.000Z</time>
      </trkpt>
      <trkpt lat="42.98533522523939609527587890625" lon="-1.16174393333494663238525390625">
        <ele>834</ele>
        <time>2020-08-21T11:45:22.000Z</time>
      </trkpt>
      <trkpt lat="42.9853698424994945526123046875" lon="-1.16182641126215457916259765625">
        <ele>832.79998779296875</ele>
        <time>2020-08-21T11:45:23.000Z</time>
      </trkpt>
      <trkpt lat="42.9854308627545833587646484375" lon="-1.16200913675129413604736328125">
        <ele>831.20001220703125</ele>
        <time>2020-08-21T11:45:25.000Z</time>
      </trkpt>
      <trkpt lat="42.985482327640056610107421875" lon="-1.16220862604677677154541015625">
        <ele>829.4000244140625</ele>
        <time>2020-08-21T11:45:27.000Z</time>
      </trkpt>
      <trkpt lat="42.9854987561702728271484375" lon="-1.1623149923980236053466796875">
        <ele>828.20001220703125</ele>
        <time>2020-08-21T11:45:28.000Z</time>
      </trkpt>
      <trkpt lat="42.98551141284406185150146484375" lon="-1.162420101463794708251953125">
        <ele>827.4000244140625</ele>
        <time>2020-08-21T11:45:29.000Z</time>
      </trkpt>
      <trkpt lat="42.9855247400701045989990234375" lon="-1.16252009756863117218017578125">
        <ele>826.5999755859375</ele>
        <time>2020-08-21T11:45:30.000Z</time>
      </trkpt>
      <trkpt lat="42.98554209060966968536376953125" lon="-1.1627059243619441986083984375">
        <ele>825</ele>
        <time>2020-08-21T11:45:32.000Z</time>
      </trkpt>
      <trkpt lat="42.9855515621602535247802734375" lon="-1.162790916860103607177734375">
        <ele>824</ele>
        <time>2020-08-21T11:45:33.000Z</time>
      </trkpt>
      <trkpt lat="42.9855602793395519256591796875" lon="-1.16286970674991607666015625">
        <ele>823.20001220703125</ele>
        <time>2020-08-21T11:45:34.000Z</time>
      </trkpt>
      <trkpt lat="42.985567152500152587890625" lon="-1.162938438355922698974609375">
        <ele>822.20001220703125</ele>
        <time>2020-08-21T11:45:35.000Z</time>
      </trkpt>
      <trkpt lat="42.98556237481534481048583984375" lon="-1.163038350641727447509765625">
        <ele>820.5999755859375</ele>
        <time>2020-08-21T11:45:37.000Z</time>
      </trkpt>
      <trkpt lat="42.9855592735111713409423828125" lon="-1.1630753986537456512451171875">
        <ele>820</ele>
        <time>2020-08-21T11:45:38.000Z</time>
      </trkpt>
      <trkpt lat="42.9855577647686004638671875" lon="-1.16310699842870235443115234375">
        <ele>819.5999755859375</ele>
        <time>2020-08-21T11:45:39.000Z</time>
      </trkpt>
      <trkpt lat="42.98554494045674800872802734375" lon="-1.16321663372218608856201171875">
        <ele>818.20001220703125</ele>
        <time>2020-08-21T11:45:42.000Z</time>
      </trkpt>
      <trkpt lat="42.98552817665040493011474609375" lon="-1.1633147858083248138427734375">
        <ele>817.5999755859375</ele>
        <time>2020-08-21T11:45:44.000Z</time>
      </trkpt>
      <trkpt lat="42.98551141284406185150146484375" lon="-1.1634685099124908447265625">
        <ele>817.20001220703125</ele>
        <time>2020-08-21T11:45:47.000Z</time>
      </trkpt>
      <trkpt lat="42.98551409505307674407958984375" lon="-1.16362734697759151458740234375">
        <ele>817.4000244140625</ele>
        <time>2020-08-21T11:45:50.000Z</time>
      </trkpt>
      <trkpt lat="42.9855532385408878326416015625" lon="-1.1637876927852630615234375">
        <ele>816.79998779296875</ele>
        <time>2020-08-21T11:45:53.000Z</time>
      </trkpt>
      <trkpt lat="42.98560897819697856903076171875" lon="-1.1638601124286651611328125">
        <ele>816.20001220703125</ele>
        <time>2020-08-21T11:45:55.000Z</time>
      </trkpt>
      <trkpt lat="42.9857067950069904327392578125" lon="-1.16395776160061359405517578125">
        <ele>816.20001220703125</ele>
        <time>2020-08-21T11:45:58.000Z</time>
      </trkpt>
      <trkpt lat="42.9858251474797725677490234375" lon="-1.16404191590845584869384765625">
        <ele>816.4000244140625</ele>
        <time>2020-08-21T11:46:01.000Z</time>
      </trkpt>
      <trkpt lat="42.98586613498628139495849609375" lon="-1.1640725098550319671630859375">
        <ele>816.4000244140625</ele>
        <time>2020-08-21T11:46:02.000Z</time>
      </trkpt>
      <trkpt lat="42.98602656461298465728759765625" lon="-1.16419312544167041778564453125">
        <ele>815.4000244140625</ele>
        <time>2020-08-21T11:46:06.000Z</time>
      </trkpt>
      <trkpt lat="42.986197136342525482177734375" lon="-1.1643531359732151031494140625">
        <ele>815.20001220703125</ele>
        <time>2020-08-21T11:46:11.000Z</time>
      </trkpt>
      <trkpt lat="42.98638011328876018524169921875" lon="-1.164638958871364593505859375">
        <ele>815</ele>
        <time>2020-08-21T11:46:17.000Z</time>
      </trkpt>
      <trkpt lat="42.98641062341630458831787109375" lon="-1.16468153893947601318359375">
        <ele>815</ele>
        <time>2020-08-21T11:46:18.000Z</time>
      </trkpt>
      <trkpt lat="42.986467368900775909423828125" lon="-1.1647648550570011138916015625">
        <ele>814.79998779296875</ele>
        <time>2020-08-21T11:46:20.000Z</time>
      </trkpt>
      <trkpt lat="42.98658169806003570556640625" lon="-1.1649381928145885467529296875">
        <ele>815.20001220703125</ele>
        <time>2020-08-21T11:46:24.000Z</time>
      </trkpt>
      <trkpt lat="42.98678956925868988037109375" lon="-1.1651413701474666595458984375">
        <ele>815.4000244140625</ele>
        <time>2020-08-21T11:46:30.000Z</time>
      </trkpt>
      <trkpt lat="42.986956872045993804931640625" lon="-1.1652905680239200592041015625">
        <ele>815</ele>
        <time>2020-08-21T11:46:35.000Z</time>
      </trkpt>
      <trkpt lat="42.9870807565748691558837890625" lon="-1.16561285220086574554443359375">
        <ele>814.79998779296875</ele>
        <time>2020-08-21T11:46:41.000Z</time>
      </trkpt>
      <trkpt lat="42.98717957921326160430908203125" lon="-1.1658843420445919036865234375">
        <ele>813.79998779296875</ele>
        <time>2020-08-21T11:46:46.000Z</time>
      </trkpt>
      <trkpt lat="42.98727077431976795196533203125" lon="-1.16594896651804447174072265625">
        <ele>812.5999755859375</ele>
        <time>2020-08-21T11:46:49.000Z</time>
      </trkpt>
      <trkpt lat="42.98730597831308841705322265625" lon="-1.16596824489533901214599609375">
        <ele>812.4000244140625</ele>
        <time>2020-08-21T11:46:50.000Z</time>
      </trkpt>
      <trkpt lat="42.98744696192443370819091796875" lon="-1.1660040356218814849853515625">
        <ele>811.5999755859375</ele>
        <time>2020-08-21T11:46:54.000Z</time>
      </trkpt>
      <trkpt lat="42.9874844290316104888916015625" lon="-1.166012920439243316650390625">
        <ele>811.4000244140625</ele>
        <time>2020-08-21T11:46:55.000Z</time>
      </trkpt>
      <trkpt lat="42.9876150190830230712890625" lon="-1.16604938171803951263427734375">
        <ele>810.4000244140625</ele>
        <time>2020-08-21T11:46:58.000Z</time>
      </trkpt>
      <trkpt lat="42.987664975225925445556640625" lon="-1.16605675779283046722412109375">
        <ele>810.20001220703125</ele>
        <time>2020-08-21T11:46:59.000Z</time>
      </trkpt>
      <trkpt lat="42.98777603544294834136962890625" lon="-1.16605960763990879058837890625">
        <ele>809.5999755859375</ele>
        <time>2020-08-21T11:47:01.000Z</time>
      </trkpt>
      <trkpt lat="42.98789774067699909210205078125" lon="-1.16607670672237873077392578125">
        <ele>809</ele>
        <time>2020-08-21T11:47:03.000Z</time>
      </trkpt>
      <trkpt lat="42.98802413977682590484619140625" lon="-1.1661019362509250640869140625">
        <ele>808.79998779296875</ele>
        <time>2020-08-21T11:47:05.000Z</time>
      </trkpt>
      <trkpt lat="42.9880906082689762115478515625" lon="-1.16612314246594905853271484375">
        <ele>808.4000244140625</ele>
        <time>2020-08-21T11:47:06.000Z</time>
      </trkpt>
      <trkpt lat="42.9882320947945117950439453125" lon="-1.1661683209240436553955078125">
        <ele>807.79998779296875</ele>
        <time>2020-08-21T11:47:08.000Z</time>
      </trkpt>
      <trkpt lat="42.98830443061888217926025390625" lon="-1.16619204171001911163330078125">
        <ele>807.5999755859375</ele>
        <time>2020-08-21T11:47:09.000Z</time>
      </trkpt>
      <trkpt lat="42.988449521362781524658203125" lon="-1.16623680107295513153076171875">
        <ele>807.20001220703125</ele>
        <time>2020-08-21T11:47:11.000Z</time>
      </trkpt>
      <trkpt lat="42.98864088021218776702880859375" lon="-1.16633336059749126434326171875">
        <ele>807.20001220703125</ele>
        <time>2020-08-21T11:47:14.000Z</time>
      </trkpt>
      <trkpt lat="42.98896324820816516876220703125" lon="-1.166531927883625030517578125">
        <ele>806.79998779296875</ele>
        <time>2020-08-21T11:47:20.000Z</time>
      </trkpt>
      <trkpt lat="42.9891530983150005340576171875" lon="-1.16661138832569122314453125">
        <ele>807.4000244140625</ele>
        <time>2020-08-21T11:47:25.000Z</time>
      </trkpt>
      <trkpt lat="42.9893170483410358428955078125" lon="-1.1666705645620822906494140625">
        <ele>807.5999755859375</ele>
        <time>2020-08-21T11:47:30.000Z</time>
      </trkpt>
      <trkpt lat="42.9894791543483734130859375" lon="-1.16671331226825714111328125">
        <ele>808</ele>
        <time>2020-08-21T11:47:35.000Z</time>
      </trkpt>
      <trkpt lat="42.989544533193111419677734375" lon="-1.16673217155039310455322265625">
        <ele>808</ele>
        <time>2020-08-21T11:47:37.000Z</time>
      </trkpt>
      <trkpt lat="42.989760451018810272216796875" lon="-1.1667865701019763946533203125">
        <ele>808.20001220703125</ele>
        <time>2020-08-21T11:47:44.000Z</time>
      </trkpt>
      <trkpt lat="42.989903278648853302001953125" lon="-1.166825629770755767822265625">
        <ele>808.79998779296875</ele>
        <time>2020-08-21T11:47:49.000Z</time>
      </trkpt>
      <trkpt lat="42.99006563611328601837158203125" lon="-1.16682822816073894500732421875">
        <ele>809.5999755859375</ele>
        <time>2020-08-21T11:47:55.000Z</time>
      </trkpt>
      <trkpt lat="42.9900885187089443206787109375" lon="-1.166827641427516937255859375">
        <ele>809.79998779296875</ele>
        <time>2020-08-21T11:47:56.000Z</time>
      </trkpt>
      <trkpt lat="42.99018583260476589202880859375" lon="-1.16682923398911952972412109375">
        <ele>810.4000244140625</ele>
        <time>2020-08-21T11:48:00.000Z</time>
      </trkpt>
      <trkpt lat="42.990272082388401031494140625" lon="-1.1668266355991363525390625">
        <ele>811</ele>
        <time>2020-08-21T11:48:04.000Z</time>
      </trkpt>
      <trkpt lat="42.990318350493907928466796875" lon="-1.1668298207223415374755859375">
        <ele>811.5999755859375</ele>
        <time>2020-08-21T11:48:06.000Z</time>
      </trkpt>
      <trkpt lat="42.99043678678572177886962890625" lon="-1.1668485961854457855224609375">
        <ele>812</ele>
        <time>2020-08-21T11:48:11.000Z</time>
      </trkpt>
      <trkpt lat="42.99054977484047412872314453125" lon="-1.16685437969863414764404296875">
        <ele>813.20001220703125</ele>
        <time>2020-08-21T11:48:16.000Z</time>
      </trkpt>
      <trkpt lat="42.9906839691102504730224609375" lon="-1.16684214212000370025634765625">
        <ele>813.5999755859375</ele>
        <time>2020-08-21T11:48:22.000Z</time>
      </trkpt>
      <trkpt lat="42.9907540418207645416259765625" lon="-1.1668348498642444610595703125">
        <ele>814</ele>
        <time>2020-08-21T11:48:25.000Z</time>
      </trkpt>
      <trkpt lat="42.99079678952693939208984375" lon="-1.16682889871299266815185546875">
        <ele>814.20001220703125</ele>
        <time>2020-08-21T11:48:27.000Z</time>
      </trkpt>
      <trkpt lat="42.99085579812526702880859375" lon="-1.16681548766791820526123046875">
        <ele>815.20001220703125</ele>
        <time>2020-08-21T11:48:30.000Z</time>
      </trkpt>
      <trkpt lat="42.9909082688391208648681640625" lon="-1.16678749211132526397705078125">
        <ele>816</ele>
        <time>2020-08-21T11:48:33.000Z</time>
      </trkpt>
      <trkpt lat="42.9909612424671649932861328125" lon="-1.1667550541460514068603515625">
        <ele>816.4000244140625</ele>
        <time>2020-08-21T11:48:36.000Z</time>
      </trkpt>
      <trkpt lat="42.9909961111843585968017578125" lon="-1.166735105216503143310546875">
        <ele>816.4000244140625</ele>
        <time>2020-08-21T11:48:38.000Z</time>
      </trkpt>
      <trkpt lat="42.99102771095931529998779296875" lon="-1.16670568473637104034423828125">
        <ele>816.5999755859375</ele>
        <time>2020-08-21T11:48:40.000Z</time>
      </trkpt>
      <trkpt lat="42.99107129685580730438232421875" lon="-1.16664902307093143463134765625">
        <ele>817</ele>
        <time>2020-08-21T11:48:43.000Z</time>
      </trkpt>
      <trkpt lat="42.99110792577266693115234375" lon="-1.1666214466094970703125">
        <ele>817.4000244140625</ele>
        <time>2020-08-21T11:48:45.000Z</time>
      </trkpt>
      <trkpt lat="42.99118210561573505401611328125" lon="-1.16655908524990081787109375">
        <ele>817.5999755859375</ele>
        <time>2020-08-21T11:48:49.000Z</time>
      </trkpt>
      <trkpt lat="42.9912318103015422821044921875" lon="-1.1665374599397182464599609375">
        <ele>817.79998779296875</ele>
        <time>2020-08-21T11:48:51.000Z</time>
      </trkpt>
      <trkpt lat="42.99132577143609523773193359375" lon="-1.166476942598819732666015625">
        <ele>818.20001220703125</ele>
        <time>2020-08-21T11:48:55.000Z</time>
      </trkpt>
      <trkpt lat="42.991348318755626678466796875" lon="-1.16646328009665012359619140625">
        <ele>818.5999755859375</ele>
        <time>2020-08-21T11:48:56.000Z</time>
      </trkpt>
      <trkpt lat="42.99147312529385089874267578125" lon="-1.16639756597578525543212890625">
        <ele>819.20001220703125</ele>
        <time>2020-08-21T11:49:01.000Z</time>
      </trkpt>
      <trkpt lat="42.99158745445311069488525390625" lon="-1.1663460172712802886962890625">
        <ele>819.4000244140625</ele>
        <time>2020-08-21T11:49:05.000Z</time>
      </trkpt>
      <trkpt lat="42.9916673339903354644775390625" lon="-1.166312657296657562255859375">
        <ele>819.5999755859375</ele>
        <time>2020-08-21T11:49:08.000Z</time>
      </trkpt>
      <trkpt lat="42.99180907197296619415283203125" lon="-1.16624417714774608612060546875">
        <ele>820</ele>
        <time>2020-08-21T11:49:14.000Z</time>
      </trkpt>
      <trkpt lat="42.991908900439739227294921875" lon="-1.1662048660218715667724609375">
        <ele>820</ele>
        <time>2020-08-21T11:49:18.000Z</time>
      </trkpt>
      <trkpt lat="42.99209657125174999237060546875" lon="-1.16618080995976924896240234375">
        <ele>820</ele>
        <time>2020-08-21T11:49:23.000Z</time>
      </trkpt>
      <trkpt lat="42.99234316684305667877197265625" lon="-1.1661699973046779632568359375">
        <ele>819.4000244140625</ele>
        <time>2020-08-21T11:49:29.000Z</time>
      </trkpt>
      <trkpt lat="42.99238759092986583709716796875" lon="-1.1661720089614391326904296875">
        <ele>819.4000244140625</ele>
        <time>2020-08-21T11:49:30.000Z</time>
      </trkpt>
      <trkpt lat="42.99251717515289783477783203125" lon="-1.1662021838128566741943359375">
        <ele>819.20001220703125</ele>
        <time>2020-08-21T11:49:33.000Z</time>
      </trkpt>
      <trkpt lat="42.99255556426942348480224609375" lon="-1.16622154600918292999267578125">
        <ele>819</ele>
        <time>2020-08-21T11:49:34.000Z</time>
      </trkpt>
      <trkpt lat="42.99271565861999988555908203125" lon="-1.1663004197180271148681640625">
        <ele>818.79998779296875</ele>
        <time>2020-08-21T11:49:38.000Z</time>
      </trkpt>
      <trkpt lat="42.99279109574854373931884765625" lon="-1.16635280661284923553466796875">
        <ele>818.79998779296875</ele>
        <time>2020-08-21T11:49:40.000Z</time>
      </trkpt>
      <trkpt lat="42.99300064332783222198486328125" lon="-1.1664647050201892852783203125">
        <ele>819</ele>
        <time>2020-08-21T11:49:46.000Z</time>
      </trkpt>
      <trkpt lat="42.99318839795887470245361328125" lon="-1.1665750108659267425537109375">
        <ele>819.4000244140625</ele>
        <time>2020-08-21T11:49:52.000Z</time>
      </trkpt>
      <trkpt lat="42.993280850350856781005859375" lon="-1.16661809384822845458984375">
        <ele>820.20001220703125</ele>
        <time>2020-08-21T11:49:55.000Z</time>
      </trkpt>
      <trkpt lat="42.99338989891111850738525390625" lon="-1.16668422706425189971923828125">
        <ele>820.79998779296875</ele>
        <time>2020-08-21T11:49:59.000Z</time>
      </trkpt>
      <trkpt lat="42.9934461414813995361328125" lon="-1.166719011962413787841796875">
        <ele>821.20001220703125</ele>
        <time>2020-08-21T11:50:01.000Z</time>
      </trkpt>
      <trkpt lat="42.99355485476553440093994140625" lon="-1.166798807680606842041015625">
        <ele>822</ele>
        <time>2020-08-21T11:50:05.000Z</time>
      </trkpt>
      <trkpt lat="42.9937265999615192413330078125" lon="-1.16691305302083492279052734375">
        <ele>822.79998779296875</ele>
        <time>2020-08-21T11:50:11.000Z</time>
      </trkpt>
      <trkpt lat="42.993812598288059234619140625" lon="-1.16697139106690883636474609375">
        <ele>823.20001220703125</ele>
        <time>2020-08-21T11:50:14.000Z</time>
      </trkpt>
      <trkpt lat="42.99389516003429889678955078125" lon="-1.167031489312648773193359375">
        <ele>823.5999755859375</ele>
        <time>2020-08-21T11:50:17.000Z</time>
      </trkpt>
      <trkpt lat="42.99405433237552642822265625" lon="-1.16715160198509693145751953125">
        <ele>824</ele>
        <time>2020-08-21T11:50:23.000Z</time>
      </trkpt>
      <trkpt lat="42.99421526491641998291015625" lon="-1.167237348854541778564453125">
        <ele>823.5999755859375</ele>
        <time>2020-08-21T11:50:29.000Z</time>
      </trkpt>
      <trkpt lat="42.99442506395280361175537109375" lon="-1.16732594557106494903564453125">
        <ele>823.79998779296875</ele>
        <time>2020-08-21T11:50:36.000Z</time>
      </trkpt>
      <trkpt lat="42.99459555186331272125244140625" lon="-1.167490147054195404052734375">
        <ele>823.79998779296875</ele>
        <time>2020-08-21T11:50:42.000Z</time>
      </trkpt>
      <trkpt lat="42.9947753436863422393798828125" lon="-1.16758075542747974395751953125">
        <ele>824</ele>
        <time>2020-08-21T11:50:48.000Z</time>
      </trkpt>
      <trkpt lat="42.994965277612209320068359375" lon="-1.167654097080230712890625">
        <ele>823.5999755859375</ele>
        <time>2020-08-21T11:50:54.000Z</time>
      </trkpt>
      <trkpt lat="42.995003163814544677734375" lon="-1.16767094470560550689697265625">
        <ele>823.5999755859375</ele>
        <time>2020-08-21T11:50:55.000Z</time>
      </trkpt>
      <trkpt lat="42.99525219015777111053466796875" lon="-1.167745292186737060546875">
        <ele>824.20001220703125</ele>
        <time>2020-08-21T11:51:02.000Z</time>
      </trkpt>
      <trkpt lat="42.99551018513739109039306640625" lon="-1.16771939210593700408935546875">
        <ele>825.20001220703125</ele>
        <time>2020-08-21T11:51:10.000Z</time>
      </trkpt>
      <trkpt lat="42.9955964349210262298583984375" lon="-1.16772626526653766632080078125">
        <ele>825.5999755859375</ele>
        <time>2020-08-21T11:51:13.000Z</time>
      </trkpt>
      <trkpt lat="42.995650582015514373779296875" lon="-1.16772190667688846588134765625">
        <ele>826.20001220703125</ele>
        <time>2020-08-21T11:51:15.000Z</time>
      </trkpt>
      <trkpt lat="42.99572560004889965057373046875" lon="-1.167704723775386810302734375">
        <ele>826.79998779296875</ele>
        <time>2020-08-21T11:51:18.000Z</time>
      </trkpt>
      <trkpt lat="42.99582785926759243011474609375" lon="-1.16768033243715763092041015625">
        <ele>827.4000244140625</ele>
        <time>2020-08-21T11:51:22.000Z</time>
      </trkpt>
      <trkpt lat="42.9958998598158359527587890625" lon="-1.167672537267208099365234375">
        <ele>828</ele>
        <time>2020-08-21T11:51:25.000Z</time>
      </trkpt>
      <trkpt lat="42.99599222838878631591796875" lon="-1.1676529236137866973876953125">
        <ele>828.4000244140625</ele>
        <time>2020-08-21T11:51:29.000Z</time>
      </trkpt>
      <trkpt lat="42.9960614629089832305908203125" lon="-1.16764512844383716583251953125">
        <ele>829</ele>
        <time>2020-08-21T11:51:32.000Z</time>
      </trkpt>
      <trkpt lat="42.99611703492701053619384765625" lon="-1.1676187254488468170166015625">
        <ele>829.5999755859375</ele>
        <time>2020-08-21T11:51:35.000Z</time>
      </trkpt>
      <trkpt lat="42.99615383148193359375" lon="-1.16759735159575939178466796875">
        <ele>830.20001220703125</ele>
        <time>2020-08-21T11:51:37.000Z</time>
      </trkpt>
      <trkpt lat="42.99623454920947551727294921875" lon="-1.1675791628658771514892578125">
        <ele>831.20001220703125</ele>
        <time>2020-08-21T11:51:41.000Z</time>
      </trkpt>
      <trkpt lat="42.9962555877864360809326171875" lon="-1.167578995227813720703125">
        <ele>831.4000244140625</ele>
        <time>2020-08-21T11:51:42.000Z</time>
      </trkpt>
      <trkpt lat="42.99627327360212802886962890625" lon="-1.1675749719142913818359375">
        <ele>831.5999755859375</ele>
        <time>2020-08-21T11:51:43.000Z</time>
      </trkpt>
      <trkpt lat="42.99630227498710155487060546875" lon="-1.1675409413874149322509765625">
        <ele>831.79998779296875</ele>
        <time>2020-08-21T11:51:45.000Z</time>
      </trkpt>
      <trkpt lat="42.9963427595794200897216796875" lon="-1.16752861998975276947021484375">
        <ele>832</ele>
        <time>2020-08-21T11:51:47.000Z</time>
      </trkpt>
      <trkpt lat="42.9963912069797515869140625" lon="-1.16752660833299160003662109375">
        <ele>832.4000244140625</ele>
        <time>2020-08-21T11:51:49.000Z</time>
      </trkpt>
      <trkpt lat="42.99646832048892974853515625" lon="-1.1675255186855792999267578125">
        <ele>833</ele>
        <time>2020-08-21T11:51:52.000Z</time>
      </trkpt>
      <trkpt lat="42.9965405724942684173583984375" lon="-1.16751822642982006072998046875">
        <ele>833.4000244140625</ele>
        <time>2020-08-21T11:51:55.000Z</time>
      </trkpt>
      <trkpt lat="42.99664827995002269744873046875" lon="-1.16749559529125690460205078125">
        <ele>833.79998779296875</ele>
        <time>2020-08-21T11:51:59.000Z</time>
      </trkpt>
      <trkpt lat="42.9968587495386600494384765625" lon="-1.1674437113106250762939453125">
        <ele>834.20001220703125</ele>
        <time>2020-08-21T11:52:06.000Z</time>
      </trkpt>
      <trkpt lat="42.99692454747855663299560546875" lon="-1.16743792779743671417236328125">
        <ele>834.4000244140625</ele>
        <time>2020-08-21T11:52:08.000Z</time>
      </trkpt>
      <trkpt lat="42.996970228850841522216796875" lon="-1.167427785694599151611328125">
        <ele>834.4000244140625</ele>
        <time>2020-08-21T11:52:11.000Z</time>
      </trkpt>
      <trkpt lat="42.99697752110660076141357421875" lon="-1.16744957864284515380859375">
        <ele>834</ele>
        <time>2020-08-21T11:53:44.000Z</time>
      </trkpt>
      <trkpt lat="42.99699713476002216339111328125" lon="-1.16745871491730213165283203125">
        <ele>833.79998779296875</ele>
        <time>2020-08-21T11:53:48.000Z</time>
      </trkpt>
      <trkpt lat="42.9970143176615238189697265625" lon="-1.1674567870795726776123046875">
        <ele>834</ele>
        <time>2020-08-21T11:53:49.000Z</time>
      </trkpt>
      <trkpt lat="42.99714700318872928619384765625" lon="-1.16742166690528392791748046875">
        <ele>834.20001220703125</ele>
        <time>2020-08-21T11:53:54.000Z</time>
      </trkpt>
      <trkpt lat="42.99730324186384677886962890625" lon="-1.1673967726528644561767578125">
        <ele>834</ele>
        <time>2020-08-21T11:53:59.000Z</time>
      </trkpt>
      <trkpt lat="42.99749250523746013641357421875" lon="-1.167337931692600250244140625">
        <ele>835</ele>
        <time>2020-08-21T11:54:06.000Z</time>
      </trkpt>
      <trkpt lat="42.9975145496428012847900390625" lon="-1.16732846014201641082763671875">
        <ele>835.20001220703125</ele>
        <time>2020-08-21T11:54:07.000Z</time>
      </trkpt>
      <trkpt lat="42.9975802637636661529541015625" lon="-1.1673049069941043853759765625">
        <ele>835.5999755859375</ele>
        <time>2020-08-21T11:54:10.000Z</time>
      </trkpt>
      <trkpt lat="42.9976751469075679779052734375" lon="-1.1672653444111347198486328125">
        <ele>836.4000244140625</ele>
        <time>2020-08-21T11:54:14.000Z</time>
      </trkpt>
      <trkpt lat="42.99772560596466064453125" lon="-1.1672370135784149169921875">
        <ele>837</ele>
        <time>2020-08-21T11:54:16.000Z</time>
      </trkpt>
      <trkpt lat="42.99779475666582584381103515625" lon="-1.16720189340412616729736328125">
        <ele>837.5999755859375</ele>
        <time>2020-08-21T11:54:19.000Z</time>
      </trkpt>
      <trkpt lat="42.99783289432525634765625" lon="-1.16717557422816753387451171875">
        <ele>838.4000244140625</ele>
        <time>2020-08-21T11:54:21.000Z</time>
      </trkpt>
      <trkpt lat="42.997851669788360595703125" lon="-1.1671600677073001861572265625">
        <ele>838.5999755859375</ele>
        <time>2020-08-21T11:54:22.000Z</time>
      </trkpt>
      <trkpt lat="42.997899949550628662109375" lon="-1.16710684262216091156005859375">
        <ele>839.4000244140625</ele>
        <time>2020-08-21T11:54:25.000Z</time>
      </trkpt>
      <trkpt lat="42.9979235865175724029541015625" lon="-1.16709141992032527923583984375">
        <ele>839.4000244140625</ele>
        <time>2020-08-21T11:54:26.000Z</time>
      </trkpt>
      <trkpt lat="42.9979685135185718536376953125" lon="-1.16705554537475109100341796875">
        <ele>839.79998779296875</ele>
        <time>2020-08-21T11:54:28.000Z</time>
      </trkpt>
      <trkpt lat="42.99799139611423015594482421875" lon="-1.1670331656932830810546875">
        <ele>840.20001220703125</ele>
        <time>2020-08-21T11:54:29.000Z</time>
      </trkpt>
      <trkpt lat="42.99806247465312480926513671875" lon="-1.16695647127926349639892578125">
        <ele>840.4000244140625</ele>
        <time>2020-08-21T11:54:32.000Z</time>
      </trkpt>
      <trkpt lat="42.9981710202991962432861328125" lon="-1.16680609993636608123779296875">
        <ele>840.79998779296875</ele>
        <time>2020-08-21T11:54:37.000Z</time>
      </trkpt>
      <trkpt lat="42.99820999614894390106201171875" lon="-1.16674440912902355194091796875">
        <ele>841</ele>
        <time>2020-08-21T11:54:39.000Z</time>
      </trkpt>
      <trkpt lat="42.99832667224109172821044921875" lon="-1.16658515296876430511474609375">
        <ele>841.5999755859375</ele>
        <time>2020-08-21T11:54:45.000Z</time>
      </trkpt>
      <trkpt lat="42.9984650574624538421630859375" lon="-1.16644777357578277587890625">
        <ele>841</ele>
        <time>2020-08-21T11:54:51.000Z</time>
      </trkpt>
      <trkpt lat="42.99850369803607463836669921875" lon="-1.16640963591635227203369140625">
        <ele>841.5999755859375</ele>
        <time>2020-08-21T11:54:53.000Z</time>
      </trkpt>
      <trkpt lat="42.99856136552989482879638671875" lon="-1.1663634516298770904541015625">
        <ele>841.4000244140625</ele>
        <time>2020-08-21T11:54:55.000Z</time>
      </trkpt>
      <trkpt lat="42.99859606660902500152587890625" lon="-1.1663433350622653961181640625">
        <ele>841.5999755859375</ele>
        <time>2020-08-21T11:54:56.000Z</time>
      </trkpt>
      <trkpt lat="42.99885154701769351959228515625" lon="-1.16626881994307041168212890625">
        <ele>842.20001220703125</ele>
        <time>2020-08-21T11:55:03.000Z</time>
      </trkpt>
      <trkpt lat="42.99892078153789043426513671875" lon="-1.16626529954373836517333984375">
        <ele>842.4000244140625</ele>
        <time>2020-08-21T11:55:05.000Z</time>
      </trkpt>
      <trkpt lat="42.9990202747285366058349609375" lon="-1.16628105752170085906982421875">
        <ele>842.79998779296875</ele>
        <time>2020-08-21T11:55:08.000Z</time>
      </trkpt>
      <trkpt lat="42.99917274154722690582275390625" lon="-1.16627535782754421234130859375">
        <ele>843.4000244140625</ele>
        <time>2020-08-21T11:55:14.000Z</time>
      </trkpt>
      <trkpt lat="42.99920207820832729339599609375" lon="-1.1662781238555908203125">
        <ele>843.5999755859375</ele>
        <time>2020-08-21T11:55:15.000Z</time>
      </trkpt>
      <trkpt lat="42.9993163235485553741455078125" lon="-1.166318692266941070556640625">
        <ele>844</ele>
        <time>2020-08-21T11:55:19.000Z</time>
      </trkpt>
      <trkpt lat="42.99947214312851428985595703125" lon="-1.1663798801600933074951171875">
        <ele>844.20001220703125</ele>
        <time>2020-08-21T11:55:24.000Z</time>
      </trkpt>
      <trkpt lat="42.99965805374085903167724609375" lon="-1.166453473269939422607421875">
        <ele>844.5999755859375</ele>
        <time>2020-08-21T11:55:30.000Z</time>
      </trkpt>
      <trkpt lat="42.99983181059360504150390625" lon="-1.1665243841707706451416015625">
        <ele>844.20001220703125</ele>
        <time>2020-08-21T11:55:35.000Z</time>
      </trkpt>
      <trkpt lat="42.9999429546296596527099609375" lon="-1.16657593287527561187744140625">
        <ele>844.79998779296875</ele>
        <time>2020-08-21T11:55:38.000Z</time>
      </trkpt>
      <trkpt lat="43.000074215233325958251953125" lon="-1.1666263081133365631103515625">
        <ele>845</ele>
        <time>2020-08-21T11:55:42.000Z</time>
      </trkpt>
      <trkpt lat="43.0002447031438350677490234375" lon="-1.1666554771363735198974609375">
        <ele>845</ele>
        <time>2020-08-21T11:55:48.000Z</time>
      </trkpt>
      <trkpt lat="43.00028300844132900238037109375" lon="-1.16667316295206546783447265625">
        <ele>845.4000244140625</ele>
        <time>2020-08-21T11:55:50.000Z</time>
      </trkpt>
      <trkpt lat="43.000316284596920013427734375" lon="-1.16670015268027782440185546875">
        <ele>846.20001220703125</ele>
        <time>2020-08-21T11:55:52.000Z</time>
      </trkpt>
      <trkpt lat="43.00036766566336154937744140625" lon="-1.16671272553503513336181640625">
        <ele>847.4000244140625</ele>
        <time>2020-08-21T11:55:55.000Z</time>
      </trkpt>
      <trkpt lat="43.00040781497955322265625" lon="-1.16671825759112834930419921875">
        <ele>847.79998779296875</ele>
        <time>2020-08-21T11:55:57.000Z</time>
      </trkpt>
      <trkpt lat="43.00045768730342388153076171875" lon="-1.16669042967259883880615234375">
        <ele>848.4000244140625</ele>
        <time>2020-08-21T11:55:59.000Z</time>
      </trkpt>
      <trkpt lat="43.000535555183887481689453125" lon="-1.16664223372936248779296875">
        <ele>849.20001220703125</ele>
        <time>2020-08-21T11:56:02.000Z</time>
      </trkpt>
      <trkpt lat="43.00055709667503833770751953125" lon="-1.1666323430836200714111328125">
        <ele>849.4000244140625</ele>
        <time>2020-08-21T11:56:03.000Z</time>
      </trkpt>
      <trkpt lat="43.00062951631844043731689453125" lon="-1.1665716581046581268310546875">
        <ele>850.20001220703125</ele>
        <time>2020-08-21T11:56:06.000Z</time>
      </trkpt>
      <trkpt lat="43.0006674863398075103759765625" lon="-1.16653335280716419219970703125">
        <ele>850.5999755859375</ele>
        <time>2020-08-21T11:56:08.000Z</time>
      </trkpt>
      <trkpt lat="43.00078424625098705291748046875" lon="-1.16642757318913936614990234375">
        <ele>851.4000244140625</ele>
        <time>2020-08-21T11:56:14.000Z</time>
      </trkpt>
      <trkpt lat="43.00082665868103504180908203125" lon="-1.166395135223865509033203125">
        <ele>851.5999755859375</ele>
        <time>2020-08-21T11:56:17.000Z</time>
      </trkpt>
      <trkpt lat="43.00084325484931468963623046875" lon="-1.1663761921226978302001953125">
        <ele>851.79998779296875</ele>
        <time>2020-08-21T11:56:18.000Z</time>
      </trkpt>
      <trkpt lat="43.00097644329071044921875" lon="-1.16628675721585750579833984375">
        <ele>851.5999755859375</ele>
        <time>2020-08-21T11:56:24.000Z</time>
      </trkpt>
      <trkpt lat="43.00107778050005435943603515625" lon="-1.166238896548748016357421875">
        <ele>851.5999755859375</ele>
        <time>2020-08-21T11:56:28.000Z</time>
      </trkpt>
      <trkpt lat="43.00111046992242336273193359375" lon="-1.16621333174407482147216796875">
        <ele>851.4000244140625</ele>
        <time>2020-08-21T11:56:29.000Z</time>
      </trkpt>
      <trkpt lat="43.00130392424762248992919921875" lon="-1.16611492820084095001220703125">
        <ele>850.79998779296875</ele>
        <time>2020-08-21T11:56:33.000Z</time>
      </trkpt>
      <trkpt lat="43.00152654759585857391357421875" lon="-1.16605072282254695892333984375">
        <ele>850.4000244140625</ele>
        <time>2020-08-21T11:56:38.000Z</time>
      </trkpt>
      <trkpt lat="43.001660071313381195068359375" lon="-1.16590437479317188262939453125">
        <ele>850.79998779296875</ele>
        <time>2020-08-21T11:56:43.000Z</time>
      </trkpt>
      <trkpt lat="43.00174497999250888824462890625" lon="-1.16576439701020717620849609375">
        <ele>851.20001220703125</ele>
        <time>2020-08-21T11:56:47.000Z</time>
      </trkpt>
      <trkpt lat="43.0017621628940105438232421875" lon="-1.1657304503023624420166015625">
        <ele>851.4000244140625</ele>
        <time>2020-08-21T11:56:48.000Z</time>
      </trkpt>
      <trkpt lat="43.00177951343357563018798828125" lon="-1.16570346057415008544921875">
        <ele>851.79998779296875</ele>
        <time>2020-08-21T11:56:49.000Z</time>
      </trkpt>
      <trkpt lat="43.001837767660617828369140625" lon="-1.1656231619417667388916015625">
        <ele>852.5999755859375</ele>
        <time>2020-08-21T11:56:52.000Z</time>
      </trkpt>
      <trkpt lat="43.00192669965326786041259765625" lon="-1.16554428823292255401611328125">
        <ele>853.5999755859375</ele>
        <time>2020-08-21T11:56:56.000Z</time>
      </trkpt>
      <trkpt lat="43.001949079334735870361328125" lon="-1.16553439758718013763427734375">
        <ele>853.5999755859375</ele>
        <time>2020-08-21T11:56:57.000Z</time>
      </trkpt>
      <trkpt lat="43.0020810104906558990478515625" lon="-1.165533475577831268310546875">
        <ele>853.79998779296875</ele>
        <time>2020-08-21T11:57:02.000Z</time>
      </trkpt>
      <trkpt lat="43.0022912286221981048583984375" lon="-1.16560011170804500579833984375">
        <ele>854.20001220703125</ele>
        <time>2020-08-21T11:57:10.000Z</time>
      </trkpt>
      <trkpt lat="43.002438582479953765869140625" lon="-1.16567529737949371337890625">
        <ele>854.4000244140625</ele>
        <time>2020-08-21T11:57:16.000Z</time>
      </trkpt>
      <trkpt lat="43.0025265924632549285888671875" lon="-1.16569784469902515411376953125">
        <ele>854.4000244140625</ele>
        <time>2020-08-21T11:57:19.000Z</time>
      </trkpt>
      <trkpt lat="43.00260479561984539031982421875" lon="-1.16572047583758831024169921875">
        <ele>855.20001220703125</ele>
        <time>2020-08-21T11:57:22.000Z</time>
      </trkpt>
      <trkpt lat="43.00262809731066226959228515625" lon="-1.16572919301688671112060546875">
        <ele>855.4000244140625</ele>
        <time>2020-08-21T11:57:23.000Z</time>
      </trkpt>
      <trkpt lat="43.0027465336024761199951171875" lon="-1.16578099317848682403564453125">
        <ele>856.4000244140625</ele>
        <time>2020-08-21T11:57:27.000Z</time>
      </trkpt>
      <trkpt lat="43.00277612172067165374755859375" lon="-1.1657944880425930023193359375">
        <ele>856.5999755859375</ele>
        <time>2020-08-21T11:57:28.000Z</time>
      </trkpt>
      <trkpt lat="43.00298483110964298248291015625" lon="-1.16594058461487293243408203125">
        <ele>857.4000244140625</ele>
        <time>2020-08-21T11:57:35.000Z</time>
      </trkpt>
      <trkpt lat="43.00301047973334789276123046875" lon="-1.1659654788672924041748046875">
        <ele>857.4000244140625</ele>
        <time>2020-08-21T11:57:36.000Z</time>
      </trkpt>
      <trkpt lat="43.0031136609613895416259765625" lon="-1.1660932190716266632080078125">
        <ele>858.4000244140625</ele>
        <time>2020-08-21T11:57:41.000Z</time>
      </trkpt>
      <trkpt lat="43.0031297542154788970947265625" lon="-1.16611945442855358123779296875">
        <ele>858.5999755859375</ele>
        <time>2020-08-21T11:57:42.000Z</time>
      </trkpt>
      <trkpt lat="43.00320678390562534332275390625" lon="-1.16630670614540576934814453125">
        <ele>859.79998779296875</ele>
        <time>2020-08-21T11:57:49.000Z</time>
      </trkpt>
      <trkpt lat="43.00321432761847972869873046875" lon="-1.16633872501552104949951171875">
        <ele>859.79998779296875</ele>
        <time>2020-08-21T11:57:50.000Z</time>
      </trkpt>
      <trkpt lat="43.00325891934335231781005859375" lon="-1.16648322902619838714599609375">
        <ele>860.5999755859375</ele>
        <time>2020-08-21T11:57:55.000Z</time>
      </trkpt>
      <trkpt lat="43.0032896809279918670654296875" lon="-1.1665488593280315399169921875">
        <ele>861.20001220703125</ele>
        <time>2020-08-21T11:57:58.000Z</time>
      </trkpt>
      <trkpt lat="43.003312312066555023193359375" lon="-1.1666172556579113006591796875">
        <ele>861.79998779296875</ele>
        <time>2020-08-21T11:58:01.000Z</time>
      </trkpt>
      <trkpt lat="43.00332278944551944732666015625" lon="-1.16667173802852630615234375">
        <ele>862.20001220703125</ele>
        <time>2020-08-21T11:58:03.000Z</time>
      </trkpt>
      <trkpt lat="43.00333485938608646392822265625" lon="-1.1667272262275218963623046875">
        <ele>862.79998779296875</ele>
        <time>2020-08-21T11:58:05.000Z</time>
      </trkpt>
      <trkpt lat="43.00335355103015899658203125" lon="-1.166851781308650970458984375">
        <ele>863.4000244140625</ele>
        <time>2020-08-21T11:58:09.000Z</time>
      </trkpt>
      <trkpt lat="43.0033721588551998138427734375" lon="-1.16693451069295406341552734375">
        <ele>864</ele>
        <time>2020-08-21T11:58:12.000Z</time>
      </trkpt>
      <trkpt lat="43.0033944547176361083984375" lon="-1.16702855564653873443603515625">
        <ele>864.5999755859375</ele>
        <time>2020-08-21T11:58:15.000Z</time>
      </trkpt>
      <trkpt lat="43.00342840142548084259033203125" lon="-1.16713265888392925262451171875">
        <ele>865</ele>
        <time>2020-08-21T11:58:19.000Z</time>
      </trkpt>
      <trkpt lat="43.00343913026154041290283203125" lon="-1.16718445904552936553955078125">
        <ele>865.5999755859375</ele>
        <time>2020-08-21T11:58:21.000Z</time>
      </trkpt>
      <trkpt lat="43.003462851047515869140625" lon="-1.1672626622021198272705078125">
        <ele>866.20001220703125</ele>
        <time>2020-08-21T11:58:24.000Z</time>
      </trkpt>
      <trkpt lat="43.00348858349025249481201171875" lon="-1.16731655783951282501220703125">
        <ele>866.5999755859375</ele>
        <time>2020-08-21T11:58:26.000Z</time>
      </trkpt>
      <trkpt lat="43.00355865620076656341552734375" lon="-1.16743189282715320587158203125">
        <ele>867.20001220703125</ele>
        <time>2020-08-21T11:58:31.000Z</time>
      </trkpt>
      <trkpt lat="43.00357357598841190338134765625" lon="-1.1674408614635467529296875">
        <ele>867.4000244140625</ele>
        <time>2020-08-21T11:58:32.000Z</time>
      </trkpt>
      <trkpt lat="43.00367432646453380584716796875" lon="-1.16753784008324146270751953125">
        <ele>868.20001220703125</ele>
        <time>2020-08-21T11:58:37.000Z</time>
      </trkpt>
      <trkpt lat="43.0036936886608600616455078125" lon="-1.1675577051937580108642578125">
        <ele>868.20001220703125</ele>
        <time>2020-08-21T11:58:38.000Z</time>
      </trkpt>
      <trkpt lat="43.00383307971060276031494140625" lon="-1.1676676757633686065673828125">
        <ele>869.20001220703125</ele>
        <time>2020-08-21T11:58:44.000Z</time>
      </trkpt>
      <trkpt lat="43.0038536153733730316162109375" lon="-1.167686618864536285400390625">
        <ele>869.4000244140625</ele>
        <time>2020-08-21T11:58:45.000Z</time>
      </trkpt>
      <trkpt lat="43.00397850573062896728515625" lon="-1.16776607930660247802734375">
        <ele>870.4000244140625</ele>
        <time>2020-08-21T11:58:51.000Z</time>
      </trkpt>
      <trkpt lat="43.00413013435900211334228515625" lon="-1.16783355362713336944580078125">
        <ele>871.5999755859375</ele>
        <time>2020-08-21T11:58:58.000Z</time>
      </trkpt>
      <trkpt lat="43.00424764864146709442138671875" lon="-1.16785735823214054107666015625">
        <ele>872.79998779296875</ele>
        <time>2020-08-21T11:59:04.000Z</time>
      </trkpt>
      <trkpt lat="43.0042985267937183380126953125" lon="-1.16788786835968494415283203125">
        <ele>873</ele>
        <time>2020-08-21T11:59:07.000Z</time>
      </trkpt>
      <trkpt lat="43.00434253178536891937255859375" lon="-1.167922653257846832275390625">
        <ele>873.4000244140625</ele>
        <time>2020-08-21T11:59:10.000Z</time>
      </trkpt>
      <trkpt lat="43.0043588764965534210205078125" lon="-1.16793095134198665618896484375">
        <ele>873.5999755859375</ele>
        <time>2020-08-21T11:59:11.000Z</time>
      </trkpt>
      <trkpt lat="43.00439517013728618621826171875" lon="-1.167958863079547882080078125">
        <ele>873.79998779296875</ele>
        <time>2020-08-21T11:59:13.000Z</time>
      </trkpt>
      <trkpt lat="43.0044966749846935272216796875" lon="-1.1680524051189422607421875">
        <ele>874.79998779296875</ele>
        <time>2020-08-21T11:59:19.000Z</time>
      </trkpt>
      <trkpt lat="43.004623241722583770751953125" lon="-1.16821090690791606903076171875">
        <ele>875.79998779296875</ele>
        <time>2020-08-21T11:59:26.000Z</time>
      </trkpt>
      <trkpt lat="43.00464176572859287261962890625" lon="-1.16822968237102031707763671875">
        <ele>876</ele>
        <time>2020-08-21T11:59:27.000Z</time>
      </trkpt>
      <trkpt lat="43.00473765470087528228759765625" lon="-1.16835121996700763702392578125">
        <ele>877.20001220703125</ele>
        <time>2020-08-21T11:59:33.000Z</time>
      </trkpt>
      <trkpt lat="43.00482340157032012939453125" lon="-1.16847862489521503448486328125">
        <ele>877.5999755859375</ele>
        <time>2020-08-21T11:59:39.000Z</time>
      </trkpt>
      <trkpt lat="43.0048752017319202423095703125" lon="-1.16857954300940036773681640625">
        <ele>878.4000244140625</ele>
        <time>2020-08-21T11:59:43.000Z</time>
      </trkpt>
      <trkpt lat="43.00491719506680965423583984375" lon="-1.168663613498210906982421875">
        <ele>878.79998779296875</ele>
        <time>2020-08-21T11:59:46.000Z</time>
      </trkpt>
      <trkpt lat="43.00498927943408489227294921875" lon="-1.1687995679676532745361328125">
        <ele>879.5999755859375</ele>
        <time>2020-08-21T11:59:51.000Z</time>
      </trkpt>
      <trkpt lat="43.00502431578934192657470703125" lon="-1.16888011805713176727294921875">
        <ele>880</ele>
        <time>2020-08-21T11:59:54.000Z</time>
      </trkpt>
      <trkpt lat="43.00505884923040866851806640625" lon="-1.1690248735249042510986328125">
        <ele>880.5999755859375</ele>
        <time>2020-08-21T11:59:58.000Z</time>
      </trkpt>
      <trkpt lat="43.0050706677138805389404296875" lon="-1.16909167729318141937255859375">
        <ele>880.79998779296875</ele>
        <time>2020-08-21T12:00:00.000Z</time>
      </trkpt>
      <trkpt lat="43.0051350407302379608154296875" lon="-1.1692253686487674713134765625">
        <ele>881.79998779296875</ele>
        <time>2020-08-21T12:00:06.000Z</time>
      </trkpt>
      <trkpt lat="43.0051548220217227935791015625" lon="-1.16924439556896686553955078125">
        <ele>882</ele>
        <time>2020-08-21T12:00:07.000Z</time>
      </trkpt>
      <trkpt lat="43.0052433349192142486572265625" lon="-1.16931346245110034942626953125">
        <ele>883</ele>
        <time>2020-08-21T12:00:11.000Z</time>
      </trkpt>
      <trkpt lat="43.0052641220390796661376953125" lon="-1.169335506856441497802734375">
        <ele>883</ele>
        <time>2020-08-21T12:00:12.000Z</time>
      </trkpt>
      <trkpt lat="43.00539479590952396392822265625" lon="-1.1694536916911602020263671875">
        <ele>883.79998779296875</ele>
        <time>2020-08-21T12:00:19.000Z</time>
      </trkpt>
      <trkpt lat="43.005420863628387451171875" lon="-1.16950213909149169921875">
        <ele>884.4000244140625</ele>
        <time>2020-08-21T12:00:21.000Z</time>
      </trkpt>
      <trkpt lat="43.00548800267279148101806640625" lon="-1.1696025542914867401123046875">
        <ele>884.79998779296875</ele>
        <time>2020-08-21T12:00:26.000Z</time>
      </trkpt>
      <trkpt lat="43.00552689470350742340087890625" lon="-1.16965360008180141448974609375">
        <ele>885.20001220703125</ele>
        <time>2020-08-21T12:00:29.000Z</time>
      </trkpt>
      <trkpt lat="43.0055675469338893890380859375" lon="-1.16971026174724102020263671875">
        <ele>886</ele>
        <time>2020-08-21T12:00:32.000Z</time>
      </trkpt>
      <trkpt lat="43.005587160587310791015625" lon="-1.16974982433021068572998046875">
        <ele>886.4000244140625</ele>
        <time>2020-08-21T12:00:34.000Z</time>
      </trkpt>
      <trkpt lat="43.005623705685138702392578125" lon="-1.16979651153087615966796875">
        <ele>887</ele>
        <time>2020-08-21T12:00:37.000Z</time>
      </trkpt>
      <trkpt lat="43.0057056806981563568115234375" lon="-1.1698892153799533843994140625">
        <ele>887.79998779296875</ele>
        <time>2020-08-21T12:00:42.000Z</time>
      </trkpt>
      <trkpt lat="43.0058089457452297210693359375" lon="-1.16998904384672641754150390625">
        <ele>888.5999755859375</ele>
        <time>2020-08-21T12:00:48.000Z</time>
      </trkpt>
      <trkpt lat="43.00591698847711086273193359375" lon="-1.17012499831616878509521484375">
        <ele>889.5999755859375</ele>
        <time>2020-08-21T12:00:54.000Z</time>
      </trkpt>
      <trkpt lat="43.00593174062669277191162109375" lon="-1.17015349678695201873779296875">
        <ele>889.79998779296875</ele>
        <time>2020-08-21T12:00:55.000Z</time>
      </trkpt>
      <trkpt lat="43.0060127936303615570068359375" lon="-1.17031509988009929656982421875">
        <ele>890.79998779296875</ele>
        <time>2020-08-21T12:01:01.000Z</time>
      </trkpt>
      <trkpt lat="43.0060493387281894683837890625" lon="-1.17044183425605297088623046875">
        <ele>891.5999755859375</ele>
        <time>2020-08-21T12:01:06.000Z</time>
      </trkpt>
      <trkpt lat="43.006058223545551300048828125" lon="-1.17046379484236240386962890625">
        <ele>891.79998779296875</ele>
        <time>2020-08-21T12:01:07.000Z</time>
      </trkpt>
      <trkpt lat="43.00607037730515003204345703125" lon="-1.170490197837352752685546875">
        <ele>891.79998779296875</ele>
        <time>2020-08-21T12:01:08.000Z</time>
      </trkpt>
      <trkpt lat="43.0060892365872859954833984375" lon="-1.1705436743795871734619140625">
        <ele>892.5999755859375</ele>
        <time>2020-08-21T12:01:10.000Z</time>
      </trkpt>
      <trkpt lat="43.00612167455255985260009765625" lon="-1.17058332078158855438232421875">
        <ele>892.79998779296875</ele>
        <time>2020-08-21T12:01:12.000Z</time>
      </trkpt>
      <trkpt lat="43.00614112056791782379150390625" lon="-1.17060192860662937164306640625">
        <ele>892.79998779296875</ele>
        <time>2020-08-21T12:01:13.000Z</time>
      </trkpt>
      <trkpt lat="43.00616006366908550262451171875" lon="-1.17061567492783069610595703125">
        <ele>893</ele>
        <time>2020-08-21T12:01:14.000Z</time>
      </trkpt>
      <trkpt lat="43.0061790905892848968505859375" lon="-1.1706331931054592132568359375">
        <ele>893.20001220703125</ele>
        <time>2020-08-21T12:01:15.000Z</time>
      </trkpt>
      <trkpt lat="43.0063111893832683563232421875" lon="-1.1706251464784145355224609375">
        <ele>894.20001220703125</ele>
        <time>2020-08-21T12:01:21.000Z</time>
      </trkpt>
      <trkpt lat="43.0063661746680736541748046875" lon="-1.17064216174185276031494140625">
        <ele>895.20001220703125</ele>
        <time>2020-08-21T12:01:24.000Z</time>
      </trkpt>
      <trkpt lat="43.00642040558159351348876953125" lon="-1.1706509627401828765869140625">
        <ele>895.4000244140625</ele>
        <time>2020-08-21T12:01:27.000Z</time>
      </trkpt>
      <trkpt lat="43.0064369179308414459228515625" lon="-1.17066822946071624755859375">
        <ele>895.5999755859375</ele>
        <time>2020-08-21T12:01:28.000Z</time>
      </trkpt>
      <trkpt lat="43.00648695789277553558349609375" lon="-1.1707361228764057159423828125">
        <ele>896.4000244140625</ele>
        <time>2020-08-21T12:01:32.000Z</time>
      </trkpt>
      <trkpt lat="43.00651260651648044586181640625" lon="-1.1707773618400096893310546875">
        <ele>896.5999755859375</ele>
        <time>2020-08-21T12:01:34.000Z</time>
      </trkpt>
      <trkpt lat="43.00657086074352264404296875" lon="-1.1708548106253147125244140625">
        <ele>897.4000244140625</ele>
        <time>2020-08-21T12:01:38.000Z</time>
      </trkpt>
      <trkpt lat="43.00659977830946445465087890625" lon="-1.17090585641562938690185546875">
        <ele>897.5999755859375</ele>
        <time>2020-08-21T12:01:40.000Z</time>
      </trkpt>
      <trkpt lat="43.0066533386707305908203125" lon="-1.170986406505107879638671875">
        <ele>898.5999755859375</ele>
        <time>2020-08-21T12:01:44.000Z</time>
      </trkpt>
      <trkpt lat="43.00666582770645618438720703125" lon="-1.1710040085017681121826171875">
        <ele>898.5999755859375</ele>
        <time>2020-08-21T12:01:45.000Z</time>
      </trkpt>
      <trkpt lat="43.006675131618976593017578125" lon="-1.171022616326808929443359375">
        <ele>899</ele>
        <time>2020-08-21T12:01:46.000Z</time>
      </trkpt>
      <trkpt lat="43.006724081933498382568359375" lon="-1.17111079394817352294921875">
        <ele>899.4000244140625</ele>
        <time>2020-08-21T12:01:50.000Z</time>
      </trkpt>
      <trkpt lat="43.0067393369972705841064453125" lon="-1.17113753221929073333740234375">
        <ele>899.79998779296875</ele>
        <time>2020-08-21T12:01:51.000Z</time>
      </trkpt>
      <trkpt lat="43.00680597312748432159423828125" lon="-1.171286813914775848388671875">
        <ele>900.4000244140625</ele>
        <time>2020-08-21T12:01:57.000Z</time>
      </trkpt>
      <trkpt lat="43.00681821070611476898193359375" lon="-1.171306259930133819580078125">
        <ele>900.5999755859375</ele>
        <time>2020-08-21T12:01:58.000Z</time>
      </trkpt>
      <trkpt lat="43.00683480687439441680908203125" lon="-1.1713547073304653167724609375">
        <ele>900.79998779296875</ele>
        <time>2020-08-21T12:02:00.000Z</time>
      </trkpt>
      <trkpt lat="43.00687520764768123626708984375" lon="-1.171433664858341217041015625">
        <ele>901.4000244140625</ele>
        <time>2020-08-21T12:02:03.000Z</time>
      </trkpt>
      <trkpt lat="43.0068999342620372772216796875" lon="-1.171456463634967803955078125">
        <ele>901.5999755859375</ele>
        <time>2020-08-21T12:02:04.000Z</time>
      </trkpt>
      <trkpt lat="43.00694175995886325836181640625" lon="-1.17149225436151027679443359375">
        <ele>902</ele>
        <time>2020-08-21T12:02:06.000Z</time>
      </trkpt>
      <trkpt lat="43.0069750361144542694091796875" lon="-1.1715059168636798858642578125">
        <ele>902.20001220703125</ele>
        <time>2020-08-21T12:02:07.000Z</time>
      </trkpt>
      <trkpt lat="43.00702356733381748199462890625" lon="-1.17153483442962169647216796875">
        <ele>902.79998779296875</ele>
        <time>2020-08-21T12:02:09.000Z</time>
      </trkpt>
      <trkpt lat="43.007137477397918701171875" lon="-1.1715706251561641693115234375">
        <ele>903.4000244140625</ele>
        <time>2020-08-21T12:02:13.000Z</time>
      </trkpt>
      <trkpt lat="43.00718734972178936004638671875" lon="-1.17160172201693058013916015625">
        <ele>903.79998779296875</ele>
        <time>2020-08-21T12:02:15.000Z</time>
      </trkpt>
      <trkpt lat="43.0072388984262943267822265625" lon="-1.1716634966433048248291015625">
        <ele>904.20001220703125</ele>
        <time>2020-08-21T12:02:18.000Z</time>
      </trkpt>
      <trkpt lat="43.00730301998555660247802734375" lon="-1.17173348553478717803955078125">
        <ele>905</ele>
        <time>2020-08-21T12:02:21.000Z</time>
      </trkpt>
      <trkpt lat="43.0073726736009120941162109375" lon="-1.171827949583530426025390625">
        <ele>905.5999755859375</ele>
        <time>2020-08-21T12:02:25.000Z</time>
      </trkpt>
      <trkpt lat="43.00742086954414844512939453125" lon="-1.1719035543501377105712890625">
        <ele>906</ele>
        <time>2020-08-21T12:02:28.000Z</time>
      </trkpt>
      <trkpt lat="43.00745137967169284820556640625" lon="-1.17203037254512310028076171875">
        <ele>906.5999755859375</ele>
        <time>2020-08-21T12:02:32.000Z</time>
      </trkpt>
      <trkpt lat="43.00743377767503261566162109375" lon="-1.1721285246312618255615234375">
        <ele>907.20001220703125</ele>
        <time>2020-08-21T12:02:35.000Z</time>
      </trkpt>
      <trkpt lat="43.0074011720716953277587890625" lon="-1.17218359373509883880615234375">
        <ele>907.5999755859375</ele>
        <time>2020-08-21T12:02:37.000Z</time>
      </trkpt>
      <trkpt lat="43.0072915367782115936279296875" lon="-1.172228939831256866455078125">
        <ele>908</ele>
        <time>2020-08-21T12:02:42.000Z</time>
      </trkpt>
      <trkpt lat="43.0072462745010852813720703125" lon="-1.172236315906047821044921875">
        <ele>908.4000244140625</ele>
        <time>2020-08-21T12:02:44.000Z</time>
      </trkpt>
      <trkpt lat="43.00718500278890132904052734375" lon="-1.17226623930037021636962890625">
        <ele>908.79998779296875</ele>
        <time>2020-08-21T12:02:47.000Z</time>
      </trkpt>
      <trkpt lat="43.00715667195618152618408203125" lon="-1.1723144352436065673828125">
        <ele>909.20001220703125</ele>
        <time>2020-08-21T12:02:50.000Z</time>
      </trkpt>
      <trkpt lat="43.00714309327304363250732421875" lon="-1.17232742719352245330810546875">
        <ele>909</ele>
        <time>2020-08-21T12:05:03.000Z</time>
      </trkpt>
      <trkpt lat="43.00714309327304363250732421875" lon="-1.172327511012554168701171875">
        <ele>909</ele>
        <time>2020-08-21T12:05:04.000Z</time>
      </trkpt>
      <trkpt lat="43.0071396566927433013916015625" lon="-1.17233513854444026947021484375">
        <ele>909</ele>
        <time>2020-08-21T12:05:05.000Z</time>
      </trkpt>
      <trkpt lat="43.007117025554180145263671875" lon="-1.17238207720220088958740234375">
        <ele>909</ele>
        <time>2020-08-21T12:05:08.000Z</time>
      </trkpt>
      <trkpt lat="43.007078804075717926025390625" lon="-1.17251358926296234130859375">
        <ele>909.5999755859375</ele>
        <time>2020-08-21T12:05:14.000Z</time>
      </trkpt>
      <trkpt lat="43.00705558620393276214599609375" lon="-1.17259749211370944976806640625">
        <ele>910.20001220703125</ele>
        <time>2020-08-21T12:05:18.000Z</time>
      </trkpt>
      <trkpt lat="43.0070449411869049072265625" lon="-1.1726448498666286468505859375">
        <ele>910.5999755859375</ele>
        <time>2020-08-21T12:05:20.000Z</time>
      </trkpt>
      <trkpt lat="43.007003702223300933837890625" lon="-1.1727759428322315216064453125">
        <ele>911.20001220703125</ele>
        <time>2020-08-21T12:05:25.000Z</time>
      </trkpt>
      <trkpt lat="43.0069698393344879150390625" lon="-1.17283989675343036651611328125">
        <ele>911.5999755859375</ele>
        <time>2020-08-21T12:05:28.000Z</time>
      </trkpt>
      <trkpt lat="43.00691041164100170135498046875" lon="-1.1729455925524234771728515625">
        <ele>912.4000244140625</ele>
        <time>2020-08-21T12:05:33.000Z</time>
      </trkpt>
      <trkpt lat="43.0068811587989330291748046875" lon="-1.1729791201651096343994140625">
        <ele>912.5999755859375</ele>
        <time>2020-08-21T12:05:35.000Z</time>
      </trkpt>
      <trkpt lat="43.0068027041852474212646484375" lon="-1.17306285537779331207275390625">
        <ele>913.5999755859375</ele>
        <time>2020-08-21T12:05:40.000Z</time>
      </trkpt>
      <trkpt lat="43.00679490901529788970947265625" lon="-1.1730783618986606597900390625">
        <ele>913.79998779296875</ele>
        <time>2020-08-21T12:05:41.000Z</time>
      </trkpt>
      <trkpt lat="43.00677336752414703369140625" lon="-1.1732017435133457183837890625">
        <ele>914.5999755859375</ele>
        <time>2020-08-21T12:05:46.000Z</time>
      </trkpt>
      <trkpt lat="43.00685777328908443450927734375" lon="-1.17335504852235317230224609375">
        <ele>915.4000244140625</ele>
        <time>2020-08-21T12:05:52.000Z</time>
      </trkpt>
      <trkpt lat="43.00687135197222232818603515625" lon="-1.173383630812168121337890625">
        <ele>915.4000244140625</ele>
        <time>2020-08-21T12:05:53.000Z</time>
      </trkpt>
      <trkpt lat="43.0068962462246417999267578125" lon="-1.173439957201480865478515625">
        <ele>915.79998779296875</ele>
        <time>2020-08-21T12:05:55.000Z</time>
      </trkpt>
      <trkpt lat="43.00690077245235443115234375" lon="-1.17346585728228092193603515625">
        <ele>916</ele>
        <time>2020-08-21T12:05:56.000Z</time>
      </trkpt>
      <trkpt lat="43.0069140158593654632568359375" lon="-1.173531822860240936279296875">
        <ele>916.20001220703125</ele>
        <time>2020-08-21T12:05:58.000Z</time>
      </trkpt>
      <trkpt lat="43.0069099925458431243896484375" lon="-1.173688061535358428955078125">
        <ele>916.79998779296875</ele>
        <time>2020-08-21T12:06:02.000Z</time>
      </trkpt>
      <trkpt lat="43.00690253265202045440673828125" lon="-1.173774898052215576171875">
        <ele>917.20001220703125</ele>
        <time>2020-08-21T12:06:04.000Z</time>
      </trkpt>
      <trkpt lat="43.00690135918557643890380859375" lon="-1.17381655611097812652587890625">
        <ele>917.4000244140625</ele>
        <time>2020-08-21T12:06:05.000Z</time>
      </trkpt>
      <trkpt lat="43.00688576884567737579345703125" lon="-1.1739747226238250732421875">
        <ele>918.20001220703125</ele>
        <time>2020-08-21T12:06:10.000Z</time>
      </trkpt>
      <trkpt lat="43.006889708340167999267578125" lon="-1.17399576120078563690185546875">
        <ele>918.20001220703125</ele>
        <time>2020-08-21T12:06:11.000Z</time>
      </trkpt>
      <trkpt lat="43.006924577057361602783203125" lon="-1.1741827614605426788330078125">
        <ele>919.4000244140625</ele>
        <time>2020-08-21T12:06:17.000Z</time>
      </trkpt>
      <trkpt lat="43.00702474080026149749755859375" lon="-1.1742571927607059478759765625">
        <ele>919.5999755859375</ele>
        <time>2020-08-21T12:06:22.000Z</time>
      </trkpt>
      <trkpt lat="43.00714929588139057159423828125" lon="-1.17422224022448062896728515625">
        <ele>920</ele>
        <time>2020-08-21T12:06:27.000Z</time>
      </trkpt>
      <trkpt lat="43.0071978271007537841796875" lon="-1.174210421741008758544921875">
        <ele>920.4000244140625</ele>
        <time>2020-08-21T12:06:29.000Z</time>
      </trkpt>
      <trkpt lat="43.00732950679957866668701171875" lon="-1.17422190494835376739501953125">
        <ele>920.4000244140625</ele>
        <time>2020-08-21T12:06:35.000Z</time>
      </trkpt>
      <trkpt lat="43.00744718872010707855224609375" lon="-1.17432366125285625457763671875">
        <ele>921.4000244140625</ele>
        <time>2020-08-21T12:06:41.000Z</time>
      </trkpt>
      <trkpt lat="43.0074809677898883819580078125" lon="-1.1743624694645404815673828125">
        <ele>922</ele>
        <time>2020-08-21T12:06:43.000Z</time>
      </trkpt>
      <trkpt lat="43.007536791265010833740234375" lon="-1.17443631403148174285888671875">
        <ele>922.5999755859375</ele>
        <time>2020-08-21T12:06:46.000Z</time>
      </trkpt>
      <trkpt lat="43.00761549733579158782958984375" lon="-1.17452013306319713592529296875">
        <ele>923.4000244140625</ele>
        <time>2020-08-21T12:06:50.000Z</time>
      </trkpt>
      <trkpt lat="43.00763309933245182037353515625" lon="-1.174542009830474853515625">
        <ele>923.5999755859375</ele>
        <time>2020-08-21T12:06:51.000Z</time>
      </trkpt>
      <trkpt lat="43.0077404715120792388916015625" lon="-1.1746531538665294647216796875">
        <ele>924</ele>
        <time>2020-08-21T12:06:56.000Z</time>
      </trkpt>
      <trkpt lat="43.0078112147748470306396484375" lon="-1.17474124766886234283447265625">
        <ele>924.4000244140625</ele>
        <time>2020-08-21T12:07:00.000Z</time>
      </trkpt>
      <trkpt lat="43.00785672850906848907470703125" lon="-1.1748043633997440338134765625">
        <ele>924.79998779296875</ele>
        <time>2020-08-21T12:07:03.000Z</time>
      </trkpt>
      <trkpt lat="43.00789545290172100067138671875" lon="-1.17487451992928981781005859375">
        <ele>925.4000244140625</ele>
        <time>2020-08-21T12:07:06.000Z</time>
      </trkpt>
      <trkpt lat="43.0079791881144046783447265625" lon="-1.17500393651425838470458984375">
        <ele>926.4000244140625</ele>
        <time>2020-08-21T12:07:12.000Z</time>
      </trkpt>
      <trkpt lat="43.008037693798542022705078125" lon="-1.1751051060855388641357421875">
        <ele>926.4000244140625</ele>
        <time>2020-08-21T12:07:16.000Z</time>
      </trkpt>
      <trkpt lat="43.00805169157683849334716796875" lon="-1.17512782104313373565673828125">
        <ele>926.5999755859375</ele>
        <time>2020-08-21T12:07:17.000Z</time>
      </trkpt>
      <trkpt lat="43.008125536143779754638671875" lon="-1.1752643622457981109619140625">
        <ele>927.5999755859375</ele>
        <time>2020-08-21T12:07:22.000Z</time>
      </trkpt>
      <trkpt lat="43.00814372487366199493408203125" lon="-1.175317503511905670166015625">
        <ele>927.79998779296875</ele>
        <time>2020-08-21T12:07:24.000Z</time>
      </trkpt>
      <trkpt lat="43.00817088223993778228759765625" lon="-1.17542554624378681182861328125">
        <ele>928.4000244140625</ele>
        <time>2020-08-21T12:07:28.000Z</time>
      </trkpt>
      <trkpt lat="43.008177168667316436767578125" lon="-1.17554289288818836212158203125">
        <ele>929</ele>
        <time>2020-08-21T12:07:32.000Z</time>
      </trkpt>
      <trkpt lat="43.00817322917282581329345703125" lon="-1.1756445653736591339111328125">
        <ele>929.4000244140625</ele>
        <time>2020-08-21T12:07:35.000Z</time>
      </trkpt>
      <trkpt lat="43.0081723071634769439697265625" lon="-1.17574741132557392120361328125">
        <ele>930.4000244140625</ele>
        <time>2020-08-21T12:07:38.000Z</time>
      </trkpt>
      <trkpt lat="43.0081448145210742950439453125" lon="-1.175869368016719818115234375">
        <ele>931</ele>
        <time>2020-08-21T12:07:42.000Z</time>
      </trkpt>
      <trkpt lat="43.008124195039272308349609375" lon="-1.17593181319534778594970703125">
        <ele>931.4000244140625</ele>
        <time>2020-08-21T12:07:44.000Z</time>
      </trkpt>
      <trkpt lat="43.00808991305530071258544921875" lon="-1.17606190033257007598876953125">
        <ele>932.5999755859375</ele>
        <time>2020-08-21T12:07:48.000Z</time>
      </trkpt>
      <trkpt lat="43.0080797709524631500244140625" lon="-1.17609660141170024871826171875">
        <ele>932.79998779296875</ele>
        <time>2020-08-21T12:07:49.000Z</time>
      </trkpt>
      <trkpt lat="43.0080078542232513427734375" lon="-1.17632827721536159515380859375">
        <ele>933.5999755859375</ele>
        <time>2020-08-21T12:07:56.000Z</time>
      </trkpt>
      <trkpt lat="43.0079986341297626495361328125" lon="-1.1763618886470794677734375">
        <ele>934</ele>
        <time>2020-08-21T12:07:57.000Z</time>
      </trkpt>
      <trkpt lat="43.007972650229930877685546875" lon="-1.17645911872386932373046875">
        <ele>935</ele>
        <time>2020-08-21T12:08:00.000Z</time>
      </trkpt>
      <trkpt lat="43.007925711572170257568359375" lon="-1.17657403461635112762451171875">
        <ele>935.4000244140625</ele>
        <time>2020-08-21T12:08:04.000Z</time>
      </trkpt>
      <trkpt lat="43.0078859813511371612548828125" lon="-1.17669959552586078643798828125">
        <ele>936</ele>
        <time>2020-08-21T12:08:08.000Z</time>
      </trkpt>
      <trkpt lat="43.0078467540442943572998046875" lon="-1.176786012947559356689453125">
        <ele>936.5999755859375</ele>
        <time>2020-08-21T12:08:11.000Z</time>
      </trkpt>
      <trkpt lat="43.00781582482159137725830078125" lon="-1.1768341250717639923095703125">
        <ele>937.20001220703125</ele>
        <time>2020-08-21T12:08:13.000Z</time>
      </trkpt>
      <trkpt lat="43.007802329957485198974609375" lon="-1.17690394632518291473388671875">
        <ele>937.5999755859375</ele>
        <time>2020-08-21T12:08:16.000Z</time>
      </trkpt>
      <trkpt lat="43.0078442394733428955078125" lon="-1.17701106704771518707275390625">
        <ele>938.20001220703125</ele>
        <time>2020-08-21T12:08:20.000Z</time>
      </trkpt>
      <trkpt lat="43.00786360166966915130615234375" lon="-1.17703068070113658905029296875">
        <ele>938.20001220703125</ele>
        <time>2020-08-21T12:08:21.000Z</time>
      </trkpt>
      <trkpt lat="43.0080214329063892364501953125" lon="-1.17717099376022815704345703125">
        <ele>939</ele>
        <time>2020-08-21T12:08:28.000Z</time>
      </trkpt>
      <trkpt lat="43.00804632715880870819091796875" lon="-1.17718398571014404296875">
        <ele>939.20001220703125</ele>
        <time>2020-08-21T12:08:29.000Z</time>
      </trkpt>
      <trkpt lat="43.00817607901990413665771484375" lon="-1.17716009728610515594482421875">
        <ele>939.79998779296875</ele>
        <time>2020-08-21T12:08:35.000Z</time>
      </trkpt>
      <trkpt lat="43.00819518975913524627685546875" lon="-1.17714752443134784698486328125">
        <ele>940.4000244140625</ele>
        <time>2020-08-21T12:08:36.000Z</time>
      </trkpt>
      <trkpt lat="43.00830624997615814208984375" lon="-1.1770761944353580474853515625">
        <ele>941.20001220703125</ele>
        <time>2020-08-21T12:08:42.000Z</time>
      </trkpt>
      <trkpt lat="43.0083412863314151763916015625" lon="-1.17705599404871463775634765625">
        <ele>941.4000244140625</ele>
        <time>2020-08-21T12:08:44.000Z</time>
      </trkpt>
      <trkpt lat="43.00841529853641986846923828125" lon="-1.17705096490681171417236328125">
        <ele>942.4000244140625</ele>
        <time>2020-08-21T12:08:48.000Z</time>
      </trkpt>
      <trkpt lat="43.00843440927565097808837890625" lon="-1.177063621580600738525390625">
        <ele>942.5999755859375</ele>
        <time>2020-08-21T12:08:49.000Z</time>
      </trkpt>
      <trkpt lat="43.008523844182491302490234375" lon="-1.17713662795722484588623046875">
        <ele>943</ele>
        <time>2020-08-21T12:08:54.000Z</time>
      </trkpt>
      <trkpt lat="43.00860464572906494140625" lon="-1.177256740629673004150390625">
        <ele>943.5999755859375</ele>
        <time>2020-08-21T12:08:59.000Z</time>
      </trkpt>
      <trkpt lat="43.00863171927630901336669921875" lon="-1.1772979795932769775390625">
        <ele>944</ele>
        <time>2020-08-21T12:09:01.000Z</time>
      </trkpt>
      <trkpt lat="43.0086597986519336700439453125" lon="-1.177323795855045318603515625">
        <ele>944.79998779296875</ele>
        <time>2020-08-21T12:09:03.000Z</time>
      </trkpt>
      <trkpt lat="43.00870028324425220489501953125" lon="-1.17739311419427394866943359375">
        <ele>945.4000244140625</ele>
        <time>2020-08-21T12:09:06.000Z</time>
      </trkpt>
      <trkpt lat="43.00874018110334873199462890625" lon="-1.17751046083867549896240234375">
        <ele>945.79998779296875</ele>
        <time>2020-08-21T12:09:11.000Z</time>
      </trkpt>
      <trkpt lat="43.0087503232061862945556640625" lon="-1.17753443308174610137939453125">
        <ele>946</ele>
        <time>2020-08-21T12:09:12.000Z</time>
      </trkpt>
      <trkpt lat="43.00878577865660190582275390625" lon="-1.17766334675252437591552734375">
        <ele>946.79998779296875</ele>
        <time>2020-08-21T12:09:17.000Z</time>
      </trkpt>
      <trkpt lat="43.00880379974842071533203125" lon="-1.17779762484133243560791015625">
        <ele>948</ele>
        <time>2020-08-21T12:09:22.000Z</time>
      </trkpt>
      <trkpt lat="43.00880673341453075408935546875" lon="-1.177854873239994049072265625">
        <ele>948.20001220703125</ele>
        <time>2020-08-21T12:09:24.000Z</time>
      </trkpt>
      <trkpt lat="43.00881628878414630889892578125" lon="-1.17790306918323040008544921875">
        <ele>948.5999755859375</ele>
        <time>2020-08-21T12:09:26.000Z</time>
      </trkpt>
      <trkpt lat="43.0088445357978343963623046875" lon="-1.1779552884399890899658203125">
        <ele>948.79998779296875</ele>
        <time>2020-08-21T12:09:29.000Z</time>
      </trkpt>
      <trkpt lat="43.008861131966114044189453125" lon="-1.17797079496085643768310546875">
        <ele>949.20001220703125</ele>
        <time>2020-08-21T12:09:30.000Z</time>
      </trkpt>
      <trkpt lat="43.00894570536911487579345703125" lon="-1.17799661122262477874755859375">
        <ele>949.5999755859375</ele>
        <time>2020-08-21T12:09:34.000Z</time>
      </trkpt>
      <trkpt lat="43.0090056359767913818359375" lon="-1.17798638530075550079345703125">
        <ele>950.4000244140625</ele>
        <time>2020-08-21T12:09:38.000Z</time>
      </trkpt>
      <trkpt lat="43.00901661626994609832763671875" lon="-1.17798353545367717742919921875">
        <ele>950.5999755859375</ele>
        <time>2020-08-21T12:09:39.000Z</time>
      </trkpt>
      <trkpt lat="43.00908836536109447479248046875" lon="-1.17799275554716587066650390625">
        <ele>951.20001220703125</ele>
        <time>2020-08-21T12:09:44.000Z</time>
      </trkpt>
      <trkpt lat="43.0091972462832927703857421875" lon="-1.1780382692813873291015625">
        <ele>952.4000244140625</ele>
        <time>2020-08-21T12:09:49.000Z</time>
      </trkpt>
      <trkpt lat="43.00930646248161792755126953125" lon="-1.1781266145408153533935546875">
        <ele>953.4000244140625</ele>
        <time>2020-08-21T12:09:54.000Z</time>
      </trkpt>
      <trkpt lat="43.00932523794472217559814453125" lon="-1.17814815603196620941162109375">
        <ele>953.4000244140625</ele>
        <time>2020-08-21T12:09:55.000Z</time>
      </trkpt>
      <trkpt lat="43.00937988795340061187744140625" lon="-1.17828092537820339202880859375">
        <ele>954.4000244140625</ele>
        <time>2020-08-21T12:10:00.000Z</time>
      </trkpt>
      <trkpt lat="43.009417019784450531005859375" lon="-1.1783807538449764251708984375">
        <ele>955.4000244140625</ele>
        <time>2020-08-21T12:10:04.000Z</time>
      </trkpt>
      <trkpt lat="43.0094366334378719329833984375" lon="-1.17842475883662700653076171875">
        <ele>956</ele>
        <time>2020-08-21T12:10:06.000Z</time>
      </trkpt>
      <trkpt lat="43.00946353934705257415771484375" lon="-1.17845761589705944061279296875">
        <ele>956.5999755859375</ele>
        <time>2020-08-21T12:10:08.000Z</time>
      </trkpt>
      <trkpt lat="43.00947778858244419097900390625" lon="-1.17847220040857791900634765625">
        <ele>956.79998779296875</ele>
        <time>2020-08-21T12:10:09.000Z</time>
      </trkpt>
      <trkpt lat="43.00950863398611545562744140625" lon="-1.1785078234970569610595703125">
        <ele>957.4000244140625</ele>
        <time>2020-08-21T12:10:11.000Z</time>
      </trkpt>
      <trkpt lat="43.00954031758010387420654296875" lon="-1.17854654788970947265625">
        <ele>957.5999755859375</ele>
        <time>2020-08-21T12:10:13.000Z</time>
      </trkpt>
      <trkpt lat="43.009557165205478668212890625" lon="-1.178561635315418243408203125">
        <ele>957.5999755859375</ele>
        <time>2020-08-21T12:10:14.000Z</time>
      </trkpt>
      <trkpt lat="43.0095901899039745330810546875" lon="-1.1785993538796901702880859375">
        <ele>957.79998779296875</ele>
        <time>2020-08-21T12:10:16.000Z</time>
      </trkpt>
      <trkpt lat="43.00966772250831127166748046875" lon="-1.17865559644997119903564453125">
        <ele>958.5999755859375</ele>
        <time>2020-08-21T12:10:21.000Z</time>
      </trkpt>
      <trkpt lat="43.00968582741916179656982421875" lon="-1.17867303080856800079345703125">
        <ele>958.79998779296875</ele>
        <time>2020-08-21T12:10:22.000Z</time>
      </trkpt>
      <trkpt lat="43.00976662896573543548583984375" lon="-1.178737990558147430419921875">
        <ele>959.4000244140625</ele>
        <time>2020-08-21T12:10:26.000Z</time>
      </trkpt>
      <trkpt lat="43.0098047666251659393310546875" lon="-1.17876757867634296417236328125">
        <ele>959.79998779296875</ele>
        <time>2020-08-21T12:10:28.000Z</time>
      </trkpt>
      <trkpt lat="43.00986997783184051513671875" lon="-1.17884502746164798736572265625">
        <ele>960.5999755859375</ele>
        <time>2020-08-21T12:10:32.000Z</time>
      </trkpt>
      <trkpt lat="43.0099019967019557952880859375" lon="-1.1788870207965373992919921875">
        <ele>960.79998779296875</ele>
        <time>2020-08-21T12:10:34.000Z</time>
      </trkpt>
      <trkpt lat="43.00997550599277019500732421875" lon="-1.17897595278918743133544921875">
        <ele>961.20001220703125</ele>
        <time>2020-08-21T12:10:38.000Z</time>
      </trkpt>
      <trkpt lat="43.01003585569560527801513671875" lon="-1.17905038408935070037841796875">
        <ele>962.20001220703125</ele>
        <time>2020-08-21T12:10:42.000Z</time>
      </trkpt>
      <trkpt lat="43.010097630321979522705078125" lon="-1.17917946539819240570068359375">
        <ele>962.5999755859375</ele>
        <time>2020-08-21T12:10:47.000Z</time>
      </trkpt>
      <trkpt lat="43.01014180295169353485107421875" lon="-1.17924769409000873565673828125">
        <ele>963.20001220703125</ele>
        <time>2020-08-21T12:10:50.000Z</time>
      </trkpt>
      <trkpt lat="43.010168038308620452880859375" lon="-1.17929396219551563262939453125">
        <ele>963.4000244140625</ele>
        <time>2020-08-21T12:10:52.000Z</time>
      </trkpt>
      <trkpt lat="43.01024439744651317596435546875" lon="-1.17938398383557796478271484375">
        <ele>964.4000244140625</ele>
        <time>2020-08-21T12:10:57.000Z</time>
      </trkpt>
      <trkpt lat="43.01028278656303882598876953125" lon="-1.17945036850869655609130859375">
        <ele>965</ele>
        <time>2020-08-21T12:11:00.000Z</time>
      </trkpt>
      <trkpt lat="43.01030407659709453582763671875" lon="-1.1794841475784778594970703125">
        <ele>965.20001220703125</ele>
        <time>2020-08-21T12:11:02.000Z</time>
      </trkpt>
      <trkpt lat="43.01033508963882923126220703125" lon="-1.17955447174608707427978515625">
        <ele>965.5999755859375</ele>
        <time>2020-08-21T12:11:06.000Z</time>
      </trkpt>
      <trkpt lat="43.010343052446842193603515625" lon="-1.17958028800785541534423828125">
        <ele>965.79998779296875</ele>
        <time>2020-08-21T12:11:09.000Z</time>
      </trkpt>
      <trkpt lat="43.01034414209425449371337890625" lon="-1.1795894242823123931884765625">
        <ele>964.4000244140625</ele>
        <time>2020-08-21T12:18:12.000Z</time>
      </trkpt>
      <trkpt lat="43.01034380681812763214111328125" lon="-1.1795988120138645172119140625">
        <ele>964.4000244140625</ele>
        <time>2020-08-21T12:18:15.000Z</time>
      </trkpt>
      <trkpt lat="43.01034347154200077056884765625" lon="-1.17965119890868663787841796875">
        <ele>964.20001220703125</ele>
        <time>2020-08-21T12:18:18.000Z</time>
      </trkpt>
      <trkpt lat="43.010334670543670654296875" lon="-1.179814897477626800537109375">
        <ele>964</ele>
        <time>2020-08-21T12:18:23.000Z</time>
      </trkpt>
      <trkpt lat="43.0103494226932525634765625" lon="-1.17989712394773960113525390625">
        <ele>963.20001220703125</ele>
        <time>2020-08-21T12:18:25.000Z</time>
      </trkpt>
      <trkpt lat="43.01040801219642162322998046875" lon="-1.18002989329397678375244140625">
        <ele>962.5999755859375</ele>
        <time>2020-08-21T12:18:28.000Z</time>
      </trkpt>
      <trkpt lat="43.0104910768568515777587890625" lon="-1.18018412031233310699462890625">
        <ele>962.20001220703125</ele>
        <time>2020-08-21T12:18:31.000Z</time>
      </trkpt>
      <trkpt lat="43.01055871881544589996337890625" lon="-1.1802821047604084014892578125">
        <ele>961.4000244140625</ele>
        <time>2020-08-21T12:18:33.000Z</time>
      </trkpt>
      <trkpt lat="43.0106013827025890350341796875" lon="-1.18031940422952175140380859375">
        <ele>961.20001220703125</ele>
        <time>2020-08-21T12:18:34.000Z</time>
      </trkpt>
      <trkpt lat="43.010713867843151092529296875" lon="-1.18034756742417812347412109375">
        <ele>960.79998779296875</ele>
        <time>2020-08-21T12:18:36.000Z</time>
      </trkpt>
      <trkpt lat="43.010776229202747344970703125" lon="-1.180352009832859039306640625">
        <ele>960.4000244140625</ele>
        <time>2020-08-21T12:18:37.000Z</time>
      </trkpt>
      <trkpt lat="43.01084035076200962066650390625" lon="-1.18036449886858463287353515625">
        <ele>959.4000244140625</ele>
        <time>2020-08-21T12:18:38.000Z</time>
      </trkpt>
      <trkpt lat="43.01096423529088497161865234375" lon="-1.18043524213135242462158203125">
        <ele>958.20001220703125</ele>
        <time>2020-08-21T12:18:40.000Z</time>
      </trkpt>
      <trkpt lat="43.0110682547092437744140625" lon="-1.18055795319378376007080078125">
        <ele>957</ele>
        <time>2020-08-21T12:18:42.000Z</time>
      </trkpt>
      <trkpt lat="43.01110647618770599365234375" lon="-1.1806212365627288818359375">
        <ele>956.4000244140625</ele>
        <time>2020-08-21T12:18:43.000Z</time>
      </trkpt>
      <trkpt lat="43.01114629022777080535888671875" lon="-1.18068317882716655731201171875">
        <ele>956</ele>
        <time>2020-08-21T12:18:44.000Z</time>
      </trkpt>
      <trkpt lat="43.01124997437000274658203125" lon="-1.18078761734068393707275390625">
        <ele>955.4000244140625</ele>
        <time>2020-08-21T12:18:46.000Z</time>
      </trkpt>
      <trkpt lat="43.01130286417901515960693359375" lon="-1.180844195187091827392578125">
        <ele>955.5999755859375</ele>
        <time>2020-08-21T12:18:47.000Z</time>
      </trkpt>
      <trkpt lat="43.01139749586582183837890625" lon="-1.1810622923076152801513671875">
        <ele>955.20001220703125</ele>
        <time>2020-08-21T12:18:50.000Z</time>
      </trkpt>
      <trkpt lat="43.0113979987800121307373046875" lon="-1.18113697506487369537353515625">
        <ele>954.79998779296875</ele>
        <time>2020-08-21T12:18:51.000Z</time>
      </trkpt>
      <trkpt lat="43.01134862937033176422119140625" lon="-1.181251890957355499267578125">
        <ele>954.4000244140625</ele>
        <time>2020-08-21T12:18:53.000Z</time>
      </trkpt>
      <trkpt lat="43.01130705513060092926025390625" lon="-1.1812745220959186553955078125">
        <ele>953.79998779296875</ele>
        <time>2020-08-21T12:18:54.000Z</time>
      </trkpt>
      <trkpt lat="43.01126229576766490936279296875" lon="-1.18126555345952510833740234375">
        <ele>953.4000244140625</ele>
        <time>2020-08-21T12:18:55.000Z</time>
      </trkpt>
      <trkpt lat="43.011171519756317138671875" lon="-1.181190200150012969970703125">
        <ele>952.4000244140625</ele>
        <time>2020-08-21T12:18:57.000Z</time>
      </trkpt>
      <trkpt lat="43.0111210606992244720458984375" lon="-1.18114787153899669647216796875">
        <ele>952</ele>
        <time>2020-08-21T12:18:58.000Z</time>
      </trkpt>
      <trkpt lat="43.011067248880863189697265625" lon="-1.181116439402103424072265625">
        <ele>952</ele>
        <time>2020-08-21T12:18:59.000Z</time>
      </trkpt>
      <trkpt lat="43.01089483313262462615966796875" lon="-1.18113286793231964111328125">
        <ele>950.79998779296875</ele>
        <time>2020-08-21T12:19:02.000Z</time>
      </trkpt>
      <trkpt lat="43.010807074606418609619140625" lon="-1.18124007247388362884521484375">
        <ele>949.20001220703125</ele>
        <time>2020-08-21T12:19:04.000Z</time>
      </trkpt>
      <trkpt lat="43.01077120006084442138671875" lon="-1.181312240660190582275390625">
        <ele>948.5999755859375</ele>
        <time>2020-08-21T12:19:05.000Z</time>
      </trkpt>
      <trkpt lat="43.010737337172031402587890625" lon="-1.18138943798840045928955078125">
        <ele>948.20001220703125</ele>
        <time>2020-08-21T12:19:06.000Z</time>
      </trkpt>
      <trkpt lat="43.0107061564922332763671875" lon="-1.18147074244916439056396484375">
        <ele>948</ele>
        <time>2020-08-21T12:19:07.000Z</time>
      </trkpt>
      <trkpt lat="43.01064052619040012359619140625" lon="-1.18173326365649700164794921875">
        <ele>946</ele>
        <time>2020-08-21T12:19:10.000Z</time>
      </trkpt>
      <trkpt lat="43.0106489919126033782958984375" lon="-1.18191950954496860504150390625">
        <ele>944.4000244140625</ele>
        <time>2020-08-21T12:19:12.000Z</time>
      </trkpt>
      <trkpt lat="43.010672293603420257568359375" lon="-1.1820158176124095916748046875">
        <ele>943.79998779296875</ele>
        <time>2020-08-21T12:19:13.000Z</time>
      </trkpt>
      <trkpt lat="43.01070255227386951446533203125" lon="-1.1821147240698337554931640625">
        <ele>943.5999755859375</ele>
        <time>2020-08-21T12:19:14.000Z</time>
      </trkpt>
      <trkpt lat="43.0108347348868846893310546875" lon="-1.18253163993358612060546875">
        <ele>943</ele>
        <time>2020-08-21T12:19:18.000Z</time>
      </trkpt>
      <trkpt lat="43.01088125444948673248291015625" lon="-1.18275384418666362762451171875">
        <ele>941.4000244140625</ele>
        <time>2020-08-21T12:19:20.000Z</time>
      </trkpt>
      <trkpt lat="43.01090958528220653533935546875" lon="-1.18297512643039226531982421875">
        <ele>940.20001220703125</ele>
        <time>2020-08-21T12:19:22.000Z</time>
      </trkpt>
      <trkpt lat="43.0109152011573314666748046875" lon="-1.18308526463806629180908203125">
        <ele>939.5999755859375</ele>
        <time>2020-08-21T12:19:23.000Z</time>
      </trkpt>
      <trkpt lat="43.01091243512928485870361328125" lon="-1.18319414556026458740234375">
        <ele>939</ele>
        <time>2020-08-21T12:19:24.000Z</time>
      </trkpt>
      <trkpt lat="43.01085568964481353759765625" lon="-1.18348524905741214752197265625">
        <ele>938.5999755859375</ele>
        <time>2020-08-21T12:19:27.000Z</time>
      </trkpt>
      <trkpt lat="43.01082777790725231170654296875" lon="-1.18356831371784210205078125">
        <ele>938.5999755859375</ele>
        <time>2020-08-21T12:19:28.000Z</time>
      </trkpt>
      <trkpt lat="43.010786287486553192138671875" lon="-1.18372446857392787933349609375">
        <ele>938.4000244140625</ele>
        <time>2020-08-21T12:19:30.000Z</time>
      </trkpt>
      <trkpt lat="43.01078268326818943023681640625" lon="-1.183798648416996002197265625">
        <ele>938</ele>
        <time>2020-08-21T12:19:31.000Z</time>
      </trkpt>
      <trkpt lat="43.0107946693897247314453125" lon="-1.1838692240417003631591796875">
        <ele>937.5999755859375</ele>
        <time>2020-08-21T12:19:32.000Z</time>
      </trkpt>
      <trkpt lat="43.01086164079606533050537109375" lon="-1.18399679660797119140625">
        <ele>936.79998779296875</ele>
        <time>2020-08-21T12:19:34.000Z</time>
      </trkpt>
      <trkpt lat="43.01090589724481105804443359375" lon="-1.184063516557216644287109375">
        <ele>936</ele>
        <time>2020-08-21T12:19:35.000Z</time>
      </trkpt>
      <trkpt lat="43.010996840894222259521484375" lon="-1.1842108704149723052978515625">
        <ele>935</ele>
        <time>2020-08-21T12:19:37.000Z</time>
      </trkpt>
      <trkpt lat="43.01107831299304962158203125" lon="-1.18436635471880435943603515625">
        <ele>934.5999755859375</ele>
        <time>2020-08-21T12:19:39.000Z</time>
      </trkpt>
      <trkpt lat="43.01114193163812160491943359375" lon="-1.18452611379325389862060546875">
        <ele>934</ele>
        <time>2020-08-21T12:19:41.000Z</time>
      </trkpt>
      <trkpt lat="43.01118291914463043212890625" lon="-1.18468654341995716094970703125">
        <ele>933.4000244140625</ele>
        <time>2020-08-21T12:19:43.000Z</time>
      </trkpt>
      <trkpt lat="43.0112115852534770965576171875" lon="-1.18483423255383968353271484375">
        <ele>932.79998779296875</ele>
        <time>2020-08-21T12:19:45.000Z</time>
      </trkpt>
      <trkpt lat="43.01125542260706424713134765625" lon="-1.18509608320891857147216796875">
        <ele>933.4000244140625</ele>
        <time>2020-08-21T12:19:49.000Z</time>
      </trkpt>
      <trkpt lat="43.011340163648128509521484375" lon="-1.18556111119687557220458984375">
        <ele>931.5999755859375</ele>
        <time>2020-08-21T12:19:56.000Z</time>
      </trkpt>
      <trkpt lat="43.01141015253961086273193359375" lon="-1.1857866682112216949462890625">
        <ele>930.5999755859375</ele>
        <time>2020-08-21T12:19:59.000Z</time>
      </trkpt>
      <trkpt lat="43.0114410817623138427734375" lon="-1.1858590878546237945556640625">
        <ele>930</ele>
        <time>2020-08-21T12:20:00.000Z</time>
      </trkpt>
      <trkpt lat="43.0114732682704925537109375" lon="-1.18592840619385242462158203125">
        <ele>929.79998779296875</ele>
        <time>2020-08-21T12:20:01.000Z</time>
      </trkpt>
      <trkpt lat="43.01153403706848621368408203125" lon="-1.18606670759618282318115234375">
        <ele>929</ele>
        <time>2020-08-21T12:20:03.000Z</time>
      </trkpt>
      <trkpt lat="43.0116196162998676300048828125" lon="-1.18635110557079315185546875">
        <ele>928.20001220703125</ele>
        <time>2020-08-21T12:20:07.000Z</time>
      </trkpt>
      <trkpt lat="43.0116306804120540618896484375" lon="-1.186418831348419189453125">
        <ele>928.20001220703125</ele>
        <time>2020-08-21T12:20:08.000Z</time>
      </trkpt>
      <trkpt lat="43.0116637051105499267578125" lon="-1.18672334589064121246337890625">
        <ele>928.5999755859375</ele>
        <time>2020-08-21T12:20:13.000Z</time>
      </trkpt>
      <trkpt lat="43.01166898570954799652099609375" lon="-1.18695954792201519012451171875">
        <ele>928.20001220703125</ele>
        <time>2020-08-21T12:20:17.000Z</time>
      </trkpt>
      <trkpt lat="43.01165959797799587249755859375" lon="-1.18714361451566219329833984375">
        <ele>927.79998779296875</ele>
        <time>2020-08-21T12:20:20.000Z</time>
      </trkpt>
      <trkpt lat="43.0116464383900165557861328125" lon="-1.187328435480594635009765625">
        <ele>927.4000244140625</ele>
        <time>2020-08-21T12:20:23.000Z</time>
      </trkpt>
      <trkpt lat="43.011643588542938232421875" lon="-1.18752130307257175445556640625">
        <ele>927</ele>
        <time>2020-08-21T12:20:26.000Z</time>
      </trkpt>
      <trkpt lat="43.01164031960070133209228515625" lon="-1.18758684955537319183349609375">
        <ele>926.5999755859375</ele>
        <time>2020-08-21T12:20:27.000Z</time>
      </trkpt>
      <trkpt lat="43.01163445226848125457763671875" lon="-1.188031174242496490478515625">
        <ele>925.5999755859375</ele>
        <time>2020-08-21T12:20:33.000Z</time>
      </trkpt>
      <trkpt lat="43.01163042895495891571044921875" lon="-1.18837206624448299407958984375">
        <ele>924.5999755859375</ele>
        <time>2020-08-21T12:20:37.000Z</time>
      </trkpt>
      <trkpt lat="43.01165138371288776397705078125" lon="-1.1887116171419620513916015625">
        <ele>924</ele>
        <time>2020-08-21T12:20:41.000Z</time>
      </trkpt>
      <trkpt lat="43.0116702429950237274169921875" lon="-1.18887640535831451416015625">
        <ele>923.20001220703125</ele>
        <time>2020-08-21T12:20:43.000Z</time>
      </trkpt>
      <trkpt lat="43.01172195933759212493896484375" lon="-1.1893546767532825469970703125">
        <ele>922.5999755859375</ele>
        <time>2020-08-21T12:20:49.000Z</time>
      </trkpt>
      <trkpt lat="43.0117295868694782257080078125" lon="-1.18943522684276103973388671875">
        <ele>922.20001220703125</ele>
        <time>2020-08-21T12:20:50.000Z</time>
      </trkpt>
      <trkpt lat="43.011734783649444580078125" lon="-1.18951736949384212493896484375">
        <ele>921.79998779296875</ele>
        <time>2020-08-21T12:20:51.000Z</time>
      </trkpt>
      <trkpt lat="43.0117352865636348724365234375" lon="-1.18960035033524036407470703125">
        <ele>921.5999755859375</ele>
        <time>2020-08-21T12:20:52.000Z</time>
      </trkpt>
      <trkpt lat="43.011696226894855499267578125" lon="-1.18983739055693149566650390625">
        <ele>921.20001220703125</ele>
        <time>2020-08-21T12:20:55.000Z</time>
      </trkpt>
      <trkpt lat="43.01167217083275318145751953125" lon="-1.18990997783839702606201171875">
        <ele>921.20001220703125</ele>
        <time>2020-08-21T12:20:56.000Z</time>
      </trkpt>
      <trkpt lat="43.01157946698367595672607421875" lon="-1.19010628201067447662353515625">
        <ele>920.79998779296875</ele>
        <time>2020-08-21T12:20:59.000Z</time>
      </trkpt>
      <trkpt lat="43.01154443062841892242431640625" lon="-1.190166883170604705810546875">
        <ele>920.5999755859375</ele>
        <time>2020-08-21T12:21:00.000Z</time>
      </trkpt>
      <trkpt lat="43.0114489607512950897216796875" lon="-1.1903692223131656646728515625">
        <ele>919.79998779296875</ele>
        <time>2020-08-21T12:21:03.000Z</time>
      </trkpt>
      <trkpt lat="43.01138567738234996795654296875" lon="-1.190519593656063079833984375">
        <ele>919.4000244140625</ele>
        <time>2020-08-21T12:21:05.000Z</time>
      </trkpt>
      <trkpt lat="43.0112816579639911651611328125" lon="-1.1907497607171535491943359375">
        <ele>918.79998779296875</ele>
        <time>2020-08-21T12:21:08.000Z</time>
      </trkpt>
      <trkpt lat="43.01107772625982761383056640625" lon="-1.19121755473315715789794921875">
        <ele>918.4000244140625</ele>
        <time>2020-08-21T12:21:14.000Z</time>
      </trkpt>
      <trkpt lat="43.0110050551593303680419921875" lon="-1.19146683253347873687744140625">
        <ele>917.4000244140625</ele>
        <time>2020-08-21T12:21:17.000Z</time>
      </trkpt>
      <trkpt lat="43.0109624750912189483642578125" lon="-1.1916147731244564056396484375">
        <ele>916.79998779296875</ele>
        <time>2020-08-21T12:21:19.000Z</time>
      </trkpt>
      <trkpt lat="43.01093422807753086090087890625" lon="-1.19176170788705348968505859375">
        <ele>916.20001220703125</ele>
        <time>2020-08-21T12:21:21.000Z</time>
      </trkpt>
      <trkpt lat="43.01091411150991916656494140625" lon="-1.19198332540690898895263671875">
        <ele>915.79998779296875</ele>
        <time>2020-08-21T12:21:24.000Z</time>
      </trkpt>
      <trkpt lat="43.0108813382685184478759765625" lon="-1.19219295680522918701171875">
        <ele>915.79998779296875</ele>
        <time>2020-08-21T12:21:28.000Z</time>
      </trkpt>
      <trkpt lat="43.01084705628454685211181640625" lon="-1.19236051104962825775146484375">
        <ele>916</ele>
        <time>2020-08-21T12:21:33.000Z</time>
      </trkpt>
      <trkpt lat="43.01084521226584911346435546875" lon="-1.19238632731139659881591796875">
        <ele>916.20001220703125</ele>
        <time>2020-08-21T12:21:34.000Z</time>
      </trkpt>
      <trkpt lat="43.0108340643346309661865234375" lon="-1.19244600646197795867919921875">
        <ele>916.4000244140625</ele>
        <time>2020-08-21T12:21:37.000Z</time>
      </trkpt>
      <trkpt lat="43.01083213649690151214599609375" lon="-1.19248758070170879364013671875">
        <ele>916.4000244140625</ele>
        <time>2020-08-21T12:21:39.000Z</time>
      </trkpt>
      <trkpt lat="43.010822832584381103515625" lon="-1.19265588931739330291748046875">
        <ele>916.4000244140625</ele>
        <time>2020-08-21T12:21:46.000Z</time>
      </trkpt>
      <trkpt lat="43.0108230002224445343017578125" lon="-1.19283677078783512115478515625">
        <ele>916.20001220703125</ele>
        <time>2020-08-21T12:21:50.000Z</time>
      </trkpt>
      <trkpt lat="43.010765500366687774658203125" lon="-1.19311622343957424163818359375">
        <ele>915.20001220703125</ele>
        <time>2020-08-21T12:21:54.000Z</time>
      </trkpt>
      <trkpt lat="43.0106111057102680206298828125" lon="-1.1934634856879711151123046875">
        <ele>914.79998779296875</ele>
        <time>2020-08-21T12:21:59.000Z</time>
      </trkpt>
      <trkpt lat="43.01058688201010227203369140625" lon="-1.19353330694139003753662109375">
        <ele>914.5999755859375</ele>
        <time>2020-08-21T12:22:00.000Z</time>
      </trkpt>
      <trkpt lat="43.01054857671260833740234375" lon="-1.19377420283854007720947265625">
        <ele>914.20001220703125</ele>
        <time>2020-08-21T12:22:03.000Z</time>
      </trkpt>
      <trkpt lat="43.010540865361690521240234375" lon="-1.19385500438511371612548828125">
        <ele>913.79998779296875</ele>
        <time>2020-08-21T12:22:04.000Z</time>
      </trkpt>
      <trkpt lat="43.0105304718017578125" lon="-1.19393345899879932403564453125">
        <ele>913.4000244140625</ele>
        <time>2020-08-21T12:22:05.000Z</time>
      </trkpt>
      <trkpt lat="43.01051513291895389556884765625" lon="-1.194009482860565185546875">
        <ele>913</ele>
        <time>2020-08-21T12:22:06.000Z</time>
      </trkpt>
      <trkpt lat="43.0104558728635311126708984375" lon="-1.19414418004453182220458984375">
        <ele>912.5999755859375</ele>
        <time>2020-08-21T12:22:08.000Z</time>
      </trkpt>
      <trkpt lat="43.01041270606219768524169921875" lon="-1.19420620612800121307373046875">
        <ele>911.79998779296875</ele>
        <time>2020-08-21T12:22:09.000Z</time>
      </trkpt>
      <trkpt lat="43.0103643424808979034423828125" lon="-1.19426823221147060394287109375">
        <ele>910.79998779296875</ele>
        <time>2020-08-21T12:22:10.000Z</time>
      </trkpt>
      <trkpt lat="43.01026300527155399322509765625" lon="-1.19438641704618930816650390625">
        <ele>909.79998779296875</ele>
        <time>2020-08-21T12:22:12.000Z</time>
      </trkpt>
      <trkpt lat="43.010216988623142242431640625" lon="-1.19445464573800563812255859375">
        <ele>909.20001220703125</ele>
        <time>2020-08-21T12:22:13.000Z</time>
      </trkpt>
      <trkpt lat="43.01010609604418277740478515625" lon="-1.1946894228458404541015625">
        <ele>908.5999755859375</ele>
        <time>2020-08-21T12:22:16.000Z</time>
      </trkpt>
      <trkpt lat="43.01007625646889209747314453125" lon="-1.1947750858962535858154296875">
        <ele>908.4000244140625</ele>
        <time>2020-08-21T12:22:17.000Z</time>
      </trkpt>
      <trkpt lat="43.0099201016128063201904296875" lon="-1.19522385299205780029296875">
        <ele>907.4000244140625</ele>
        <time>2020-08-21T12:22:22.000Z</time>
      </trkpt>
      <trkpt lat="43.00982463173568248748779296875" lon="-1.19550422765314579010009765625">
        <ele>906.79998779296875</ele>
        <time>2020-08-21T12:22:25.000Z</time>
      </trkpt>
      <trkpt lat="43.00970057956874370574951171875" lon="-1.19586733169853687286376953125">
        <ele>906.4000244140625</ele>
        <time>2020-08-21T12:22:29.000Z</time>
      </trkpt>
      <trkpt lat="43.00963520072400569915771484375" lon="-1.19604838080704212188720703125">
        <ele>905.79998779296875</ele>
        <time>2020-08-21T12:22:31.000Z</time>
      </trkpt>
      <trkpt lat="43.0095284990966320037841796875" lon="-1.1963233910501003265380859375">
        <ele>905.20001220703125</ele>
        <time>2020-08-21T12:22:34.000Z</time>
      </trkpt>
      <trkpt lat="43.009416349232196807861328125" lon="-1.1966040171682834625244140625">
        <ele>904.79998779296875</ele>
        <time>2020-08-21T12:22:37.000Z</time>
      </trkpt>
      <trkpt lat="43.00933890044689178466796875" lon="-1.1967949569225311279296875">
        <ele>904.20001220703125</ele>
        <time>2020-08-21T12:22:39.000Z</time>
      </trkpt>
      <trkpt lat="43.00923764705657958984375" lon="-1.197088658809661865234375">
        <ele>903.4000244140625</ele>
        <time>2020-08-21T12:22:42.000Z</time>
      </trkpt>
      <trkpt lat="43.00916966982185840606689453125" lon="-1.19729560799896717071533203125">
        <ele>902.79998779296875</ele>
        <time>2020-08-21T12:22:44.000Z</time>
      </trkpt>
      <trkpt lat="43.0090812407433986663818359375" lon="-1.19762166403234004974365234375">
        <ele>901.79998779296875</ele>
        <time>2020-08-21T12:22:47.000Z</time>
      </trkpt>
      <trkpt lat="43.0088824220001697540283203125" lon="-1.19836329482495784759521484375">
        <ele>901.4000244140625</ele>
        <time>2020-08-21T12:22:54.000Z</time>
      </trkpt>
      <trkpt lat="43.00885610282421112060546875" lon="-1.19846672751009464263916015625">
        <ele>900.79998779296875</ele>
        <time>2020-08-21T12:22:55.000Z</time>
      </trkpt>
      <trkpt lat="43.00883171148598194122314453125" lon="-1.198566220700740814208984375">
        <ele>900.20001220703125</ele>
        <time>2020-08-21T12:22:56.000Z</time>
      </trkpt>
      <trkpt lat="43.00878494046628475189208984375" lon="-1.19875372387468814849853515625">
        <ele>899.20001220703125</ele>
        <time>2020-08-21T12:22:58.000Z</time>
      </trkpt>
      <trkpt lat="43.00871436484158039093017578125" lon="-1.19892664253711700439453125">
        <ele>897.79998779296875</ele>
        <time>2020-08-21T12:23:00.000Z</time>
      </trkpt>
      <trkpt lat="43.00862115807831287384033203125" lon="-1.199069134891033172607421875">
        <ele>896.5999755859375</ele>
        <time>2020-08-21T12:23:02.000Z</time>
      </trkpt>
      <trkpt lat="43.00850481726229190826416015625" lon="-1.19915597140789031982421875">
        <ele>895.79998779296875</ele>
        <time>2020-08-21T12:23:04.000Z</time>
      </trkpt>
      <trkpt lat="43.00843843258917331695556640625" lon="-1.1991816200315952301025390625">
        <ele>895.4000244140625</ele>
        <time>2020-08-21T12:23:05.000Z</time>
      </trkpt>
      <trkpt lat="43.00829074345529079437255859375" lon="-1.19920827448368072509765625">
        <ele>893.5999755859375</ele>
        <time>2020-08-21T12:23:07.000Z</time>
      </trkpt>
      <trkpt lat="43.00821430049836635589599609375" lon="-1.19922730140388011932373046875">
        <ele>893</ele>
        <time>2020-08-21T12:23:08.000Z</time>
      </trkpt>
      <trkpt lat="43.0081414617598056793212890625" lon="-1.19925429113209247589111328125">
        <ele>892.5999755859375</ele>
        <time>2020-08-21T12:23:09.000Z</time>
      </trkpt>
      <trkpt lat="43.00799771212041378021240234375" lon="-1.199350766837596893310546875">
        <ele>891</ele>
        <time>2020-08-21T12:23:11.000Z</time>
      </trkpt>
      <trkpt lat="43.00792931579053401947021484375" lon="-1.1994101107120513916015625">
        <ele>890</ele>
        <time>2020-08-21T12:23:12.000Z</time>
      </trkpt>
      <trkpt lat="43.0078688822686672210693359375" lon="-1.19947255589067935943603515625">
        <ele>889.4000244140625</ele>
        <time>2020-08-21T12:23:13.000Z</time>
      </trkpt>
      <trkpt lat="43.007763437926769256591796875" lon="-1.1996104381978511810302734375">
        <ele>888</ele>
        <time>2020-08-21T12:23:15.000Z</time>
      </trkpt>
      <trkpt lat="43.00770652480423450469970703125" lon="-1.199682690203189849853515625">
        <ele>887.5999755859375</ele>
        <time>2020-08-21T12:23:16.000Z</time>
      </trkpt>
      <trkpt lat="43.0076482705771923065185546875" lon="-1.1997492425143718719482421875">
        <ele>887</ele>
        <time>2020-08-21T12:23:17.000Z</time>
      </trkpt>
      <trkpt lat="43.00759219564497470855712890625" lon="-1.19981302879750728607177734375">
        <ele>886</ele>
        <time>2020-08-21T12:23:18.000Z</time>
      </trkpt>
      <trkpt lat="43.0075331032276153564453125" lon="-1.199875809252262115478515625">
        <ele>885.4000244140625</ele>
        <time>2020-08-21T12:23:19.000Z</time>
      </trkpt>
      <trkpt lat="43.00747619010508060455322265625" lon="-1.1999304592609405517578125">
        <ele>884.5999755859375</ele>
        <time>2020-08-21T12:23:20.000Z</time>
      </trkpt>
      <trkpt lat="43.00742656923830509185791015625" lon="-1.199987120926380157470703125">
        <ele>884.20001220703125</ele>
        <time>2020-08-21T12:23:21.000Z</time>
      </trkpt>
      <trkpt lat="43.00734601914882659912109375" lon="-1.20012148283421993255615234375">
        <ele>883.4000244140625</ele>
        <time>2020-08-21T12:23:23.000Z</time>
      </trkpt>
      <trkpt lat="43.0073133297264575958251953125" lon="-1.2002018652856349945068359375">
        <ele>882.79998779296875</ele>
        <time>2020-08-21T12:23:24.000Z</time>
      </trkpt>
      <trkpt lat="43.007275946438312530517578125" lon="-1.2002880312502384185791015625">
        <ele>882.20001220703125</ele>
        <time>2020-08-21T12:23:25.000Z</time>
      </trkpt>
      <trkpt lat="43.0072469450533390045166015625" lon="-1.2003778852522373199462890625">
        <ele>881.79998779296875</ele>
        <time>2020-08-21T12:23:26.000Z</time>
      </trkpt>
      <trkpt lat="43.00722439773380756378173828125" lon="-1.20056253857910633087158203125">
        <ele>880.5999755859375</ele>
        <time>2020-08-21T12:23:28.000Z</time>
      </trkpt>
      <trkpt lat="43.0072285048663616180419921875" lon="-1.2007574178278446197509765625">
        <ele>880</ele>
        <time>2020-08-21T12:23:30.000Z</time>
      </trkpt>
      <trkpt lat="43.007261864840984344482421875" lon="-1.20094274170696735382080078125">
        <ele>879.4000244140625</ele>
        <time>2020-08-21T12:23:32.000Z</time>
      </trkpt>
      <trkpt lat="43.00730855204164981842041015625" lon="-1.20120844803750514984130859375">
        <ele>878.20001220703125</ele>
        <time>2020-08-21T12:23:35.000Z</time>
      </trkpt>
      <trkpt lat="43.00731525756418704986572265625" lon="-1.20129863731563091278076171875">
        <ele>877.20001220703125</ele>
        <time>2020-08-21T12:23:36.000Z</time>
      </trkpt>
      <trkpt lat="43.0073129944503307342529296875" lon="-1.2013874016702175140380859375">
        <ele>876.4000244140625</ele>
        <time>2020-08-21T12:23:37.000Z</time>
      </trkpt>
      <trkpt lat="43.00729480572044849395751953125" lon="-1.20148136280477046966552734375">
        <ele>875.5999755859375</ele>
        <time>2020-08-21T12:23:38.000Z</time>
      </trkpt>
      <trkpt lat="43.007222972810268402099609375" lon="-1.20166811160743236541748046875">
        <ele>874.5999755859375</ele>
        <time>2020-08-21T12:23:40.000Z</time>
      </trkpt>
      <trkpt lat="43.00718030892312526702880859375" lon="-1.20175880379974842071533203125">
        <ele>874.20001220703125</ele>
        <time>2020-08-21T12:23:41.000Z</time>
      </trkpt>
      <trkpt lat="43.00705432891845703125" lon="-1.2021186389029026031494140625">
        <ele>873.5999755859375</ele>
        <time>2020-08-21T12:23:45.000Z</time>
      </trkpt>
      <trkpt lat="43.0070246569812297821044921875" lon="-1.2022011168301105499267578125">
        <ele>873.5999755859375</ele>
        <time>2020-08-21T12:23:46.000Z</time>
      </trkpt>
      <trkpt lat="43.0069475434720516204833984375" lon="-1.20232910849153995513916015625">
        <ele>873.5999755859375</ele>
        <time>2020-08-21T12:23:48.000Z</time>
      </trkpt>
      <trkpt lat="43.00681225955486297607421875" lon="-1.202496327459812164306640625">
        <ele>873.20001220703125</ele>
        <time>2020-08-21T12:23:51.000Z</time>
      </trkpt>
      <trkpt lat="43.00676775164902210235595703125" lon="-1.2025605328381061553955078125">
        <ele>873.20001220703125</ele>
        <time>2020-08-21T12:23:52.000Z</time>
      </trkpt>
      <trkpt lat="43.00672584213316440582275390625" lon="-1.202633120119571685791015625">
        <ele>873</ele>
        <time>2020-08-21T12:23:53.000Z</time>
      </trkpt>
      <trkpt lat="43.0066280253231525421142578125" lon="-1.20287887752056121826171875">
        <ele>872.4000244140625</ele>
        <time>2020-08-21T12:23:56.000Z</time>
      </trkpt>
      <trkpt lat="43.00656373612582683563232421875" lon="-1.20304911397397518157958984375">
        <ele>872</ele>
        <time>2020-08-21T12:23:58.000Z</time>
      </trkpt>
      <trkpt lat="43.00647388212382793426513671875" lon="-1.20331465266644954681396484375">
        <ele>870.79998779296875</ele>
        <time>2020-08-21T12:24:01.000Z</time>
      </trkpt>
      <trkpt lat="43.0064003728330135345458984375" lon="-1.203605420887470245361328125">
        <ele>869.79998779296875</ele>
        <time>2020-08-21T12:24:04.000Z</time>
      </trkpt>
      <trkpt lat="43.006348907947540283203125" lon="-1.20379610918462276458740234375">
        <ele>869.20001220703125</ele>
        <time>2020-08-21T12:24:06.000Z</time>
      </trkpt>
      <trkpt lat="43.00633004866540431976318359375" lon="-1.20390088297426700592041015625">
        <ele>868.5999755859375</ele>
        <time>2020-08-21T12:24:07.000Z</time>
      </trkpt>
      <trkpt lat="43.0062605626881122589111328125" lon="-1.20432768948376178741455078125">
        <ele>867.4000244140625</ele>
        <time>2020-08-21T12:24:11.000Z</time>
      </trkpt>
      <trkpt lat="43.00612838007509708404541015625" lon="-1.2046784721314907073974609375">
        <ele>866.79998779296875</ele>
        <time>2020-08-21T12:24:15.000Z</time>
      </trkpt>
      <trkpt lat="43.00596107728779315948486328125" lon="-1.20493085123598575592041015625">
        <ele>866.79998779296875</ele>
        <time>2020-08-21T12:24:19.000Z</time>
      </trkpt>
      <trkpt lat="43.00584473647177219390869140625" lon="-1.20507703162729740142822265625">
        <ele>868</ele>
        <time>2020-08-21T12:24:23.000Z</time>
      </trkpt>
      <trkpt lat="43.00579310394823551177978515625" lon="-1.20515800081193447113037109375">
        <ele>868.4000244140625</ele>
        <time>2020-08-21T12:24:26.000Z</time>
      </trkpt>
      <trkpt lat="43.00574683584272861480712890625" lon="-1.2052031792700290679931640625">
        <ele>868.4000244140625</ele>
        <time>2020-08-21T12:24:28.000Z</time>
      </trkpt>
      <trkpt lat="43.005699813365936279296875" lon="-1.2052578292787075042724609375">
        <ele>868.4000244140625</ele>
        <time>2020-08-21T12:24:31.000Z</time>
      </trkpt>
      <trkpt lat="43.00568439066410064697265625" lon="-1.20527517981827259063720703125">
        <ele>868.5999755859375</ele>
        <time>2020-08-21T12:24:32.000Z</time>
      </trkpt>
      <trkpt lat="43.005645163357257843017578125" lon="-1.20531440712511539459228515625">
        <ele>868.79998779296875</ele>
        <time>2020-08-21T12:24:34.000Z</time>
      </trkpt>
      <trkpt lat="43.00562295131385326385498046875" lon="-1.20533552952110767364501953125">
        <ele>869</ele>
        <time>2020-08-21T12:24:35.000Z</time>
      </trkpt>
      <trkpt lat="43.0055279843509197235107421875" lon="-1.20543627999722957611083984375">
        <ele>869.79998779296875</ele>
        <time>2020-08-21T12:24:39.000Z</time>
      </trkpt>
      <trkpt lat="43.00536294467747211456298828125" lon="-1.20556184090673923492431640625">
        <ele>870.5999755859375</ele>
        <time>2020-08-21T12:24:46.000Z</time>
      </trkpt>
      <trkpt lat="43.0052272416651248931884765625" lon="-1.20556645095348358154296875">
        <ele>870.79998779296875</ele>
        <time>2020-08-21T12:24:52.000Z</time>
      </trkpt>
      <trkpt lat="43.00518122501671314239501953125" lon="-1.20554943569004535675048828125">
        <ele>870.79998779296875</ele>
        <time>2020-08-21T12:24:54.000Z</time>
      </trkpt>
      <trkpt lat="43.0050931312143802642822265625" lon="-1.2055092863738536834716796875">
        <ele>870.79998779296875</ele>
        <time>2020-08-21T12:24:58.000Z</time>
      </trkpt>
      <trkpt lat="43.00506253726780414581298828125" lon="-1.20549830608069896697998046875">
        <ele>871.4000244140625</ele>
        <time>2020-08-21T12:25:00.000Z</time>
      </trkpt>
      <trkpt lat="43.00502448342740535736083984375" lon="-1.2054884992539882659912109375">
        <ele>871.79998779296875</ele>
        <time>2020-08-21T12:25:03.000Z</time>
      </trkpt>
      <trkpt lat="43.00499615259468555450439453125" lon="-1.20548724196851253509521484375">
        <ele>871.79998779296875</ele>
        <time>2020-08-21T12:25:05.000Z</time>
      </trkpt>
      <trkpt lat="43.004924990236759185791015625" lon="-1.2054915167391300201416015625">
        <ele>872.20001220703125</ele>
        <time>2020-08-21T12:25:08.000Z</time>
      </trkpt>
      <trkpt lat="43.004866652190685272216796875" lon="-1.205495037138462066650390625">
        <ele>873</ele>
        <time>2020-08-21T12:25:11.000Z</time>
      </trkpt>
      <trkpt lat="43.00478585064411163330078125" lon="-1.20549595914781093597412109375">
        <ele>873</ele>
        <time>2020-08-21T12:25:14.000Z</time>
      </trkpt>
      <trkpt lat="43.00459415651857852935791015625" lon="-1.2054452486336231231689453125">
        <ele>872.79998779296875</ele>
        <time>2020-08-21T12:25:21.000Z</time>
      </trkpt>
      <trkpt lat="43.00442777574062347412109375" lon="-1.20537936687469482421875">
        <ele>871.79998779296875</ele>
        <time>2020-08-21T12:25:26.000Z</time>
      </trkpt>
      <trkpt lat="43.00438460893929004669189453125" lon="-1.20536352507770061492919921875">
        <ele>871.5999755859375</ele>
        <time>2020-08-21T12:25:27.000Z</time>
      </trkpt>
      <trkpt lat="43.0042849481105804443359375" lon="-1.20533267967402935028076171875">
        <ele>871.4000244140625</ele>
        <time>2020-08-21T12:25:29.000Z</time>
      </trkpt>
      <trkpt lat="43.00416885875165462493896484375" lon="-1.20531390421092510223388671875">
        <ele>871</ele>
        <time>2020-08-21T12:25:31.000Z</time>
      </trkpt>
      <trkpt lat="43.00402301363646984100341796875" lon="-1.2052846513688564300537109375">
        <ele>870.20001220703125</ele>
        <time>2020-08-21T12:25:33.000Z</time>
      </trkpt>
      <trkpt lat="43.00387733615934848785400390625" lon="-1.20526998303830623626708984375">
        <ele>868.5999755859375</ele>
        <time>2020-08-21T12:25:35.000Z</time>
      </trkpt>
      <trkpt lat="43.0038066767156124114990234375" lon="-1.205270402133464813232421875">
        <ele>867.79998779296875</ele>
        <time>2020-08-21T12:25:36.000Z</time>
      </trkpt>
      <trkpt lat="43.0037369392812252044677734375" lon="-1.2052759341895580291748046875">
        <ele>867</ele>
        <time>2020-08-21T12:25:37.000Z</time>
      </trkpt>
      <trkpt lat="43.00362001173198223114013671875" lon="-1.20529630221426486968994140625">
        <ele>865.79998779296875</ele>
        <time>2020-08-21T12:25:39.000Z</time>
      </trkpt>
      <trkpt lat="43.0035612545907497406005859375" lon="-1.20530216954648494720458984375">
        <ele>865.20001220703125</ele>
        <time>2020-08-21T12:25:40.000Z</time>
      </trkpt>
      <trkpt lat="43.00350031815469264984130859375" lon="-1.20530233718454837799072265625">
        <ele>864.5999755859375</ele>
        <time>2020-08-21T12:25:41.000Z</time>
      </trkpt>
      <trkpt lat="43.00336360931396484375" lon="-1.20530250482261180877685546875">
        <ele>863.4000244140625</ele>
        <time>2020-08-21T12:25:43.000Z</time>
      </trkpt>
      <trkpt lat="43.00322371535003185272216796875" lon="-1.20529378764331340789794921875">
        <ele>861.4000244140625</ele>
        <time>2020-08-21T12:25:45.000Z</time>
      </trkpt>
      <trkpt lat="43.00307233817875385284423828125" lon="-1.20528473518788814544677734375">
        <ele>859.79998779296875</ele>
        <time>2020-08-21T12:25:47.000Z</time>
      </trkpt>
      <trkpt lat="43.00283999182283878326416015625" lon="-1.2052591703832149505615234375">
        <ele>858</ele>
        <time>2020-08-21T12:25:50.000Z</time>
      </trkpt>
      <trkpt lat="43.002773188054561614990234375" lon="-1.20525020174682140350341796875">
        <ele>856.79998779296875</ele>
        <time>2020-08-21T12:25:51.000Z</time>
      </trkpt>
      <trkpt lat="43.00265626050531864166259765625" lon="-1.20522622950375080108642578125">
        <ele>855.5999755859375</ele>
        <time>2020-08-21T12:25:53.000Z</time>
      </trkpt>
      <trkpt lat="43.00253924913704395294189453125" lon="-1.20520032942295074462890625">
        <ele>854.5999755859375</ele>
        <time>2020-08-21T12:25:55.000Z</time>
      </trkpt>
      <trkpt lat="43.0024789832532405853271484375" lon="-1.205202005803585052490234375">
        <ele>854.20001220703125</ele>
        <time>2020-08-21T12:25:56.000Z</time>
      </trkpt>
      <trkpt lat="43.00237010233104228973388671875" lon="-1.20523712597787380218505859375">
        <ele>853</ele>
        <time>2020-08-21T12:25:58.000Z</time>
      </trkpt>
      <trkpt lat="43.00228192470967769622802734375" lon="-1.20529730804264545440673828125">
        <ele>851.5999755859375</ele>
        <time>2020-08-21T12:26:00.000Z</time>
      </trkpt>
      <trkpt lat="43.0022131092846393585205078125" lon="-1.20537525974214076995849609375">
        <ele>850.20001220703125</ele>
        <time>2020-08-21T12:26:02.000Z</time>
      </trkpt>
      <trkpt lat="43.0021071620285511016845703125" lon="-1.2055183388292789459228515625">
        <ele>849.4000244140625</ele>
        <time>2020-08-21T12:26:05.000Z</time>
      </trkpt>
      <trkpt lat="43.00207019783556461334228515625" lon="-1.20556938461959362030029296875">
        <ele>848.79998779296875</ele>
        <time>2020-08-21T12:26:06.000Z</time>
      </trkpt>
      <trkpt lat="43.00199325196444988250732421875" lon="-1.20566904544830322265625">
        <ele>847.79998779296875</ele>
        <time>2020-08-21T12:26:08.000Z</time>
      </trkpt>
      <trkpt lat="43.00181555561721324920654296875" lon="-1.20590977370738983154296875">
        <ele>846.4000244140625</ele>
        <time>2020-08-21T12:26:12.000Z</time>
      </trkpt>
      <trkpt lat="43.00173408351838588714599609375" lon="-1.206049583852291107177734375">
        <ele>845.20001220703125</ele>
        <time>2020-08-21T12:26:14.000Z</time>
      </trkpt>
      <trkpt lat="43.0017008073627948760986328125" lon="-1.2061211653053760528564453125">
        <ele>844.4000244140625</ele>
        <time>2020-08-21T12:26:15.000Z</time>
      </trkpt>
      <trkpt lat="43.0016719736158847808837890625" lon="-1.20619551278650760650634765625">
        <ele>844</ele>
        <time>2020-08-21T12:26:16.000Z</time>
      </trkpt>
      <trkpt lat="43.00164607353508472442626953125" lon="-1.206268183887004852294921875">
        <ele>843.5999755859375</ele>
        <time>2020-08-21T12:26:17.000Z</time>
      </trkpt>
      <trkpt lat="43.00159938633441925048828125" lon="-1.20641243644058704376220703125">
        <ele>842.5999755859375</ele>
        <time>2020-08-21T12:26:19.000Z</time>
      </trkpt>
      <trkpt lat="43.00155219621956348419189453125" lon="-1.20655744336545467376708984375">
        <ele>841</ele>
        <time>2020-08-21T12:26:21.000Z</time>
      </trkpt>
      <trkpt lat="43.00151112489402294158935546875" lon="-1.20671368204057216644287109375">
        <ele>840</ele>
        <time>2020-08-21T12:26:23.000Z</time>
      </trkpt>
      <trkpt lat="43.00149620510637760162353515625" lon="-1.206802614033222198486328125">
        <ele>839.79998779296875</ele>
        <time>2020-08-21T12:26:24.000Z</time>
      </trkpt>
      <trkpt lat="43.00143845379352569580078125" lon="-1.20722447521984577178955078125">
        <ele>838.5999755859375</ele>
        <time>2020-08-21T12:26:28.000Z</time>
      </trkpt>
      <trkpt lat="43.00141565501689910888671875" lon="-1.20733813382685184478759765625">
        <ele>837.79998779296875</ele>
        <time>2020-08-21T12:26:29.000Z</time>
      </trkpt>
      <trkpt lat="43.00138824619352817535400390625" lon="-1.207449696958065032958984375">
        <ele>836</ele>
        <time>2020-08-21T12:26:30.000Z</time>
      </trkpt>
      <trkpt lat="43.00135773606598377227783203125" lon="-1.2075578235089778900146484375">
        <ele>835</ele>
        <time>2020-08-21T12:26:31.000Z</time>
      </trkpt>
      <trkpt lat="43.00130166113376617431640625" lon="-1.20776477269828319549560546875">
        <ele>833.79998779296875</ele>
        <time>2020-08-21T12:26:33.000Z</time>
      </trkpt>
      <trkpt lat="43.00127609632909297943115234375" lon="-1.207860410213470458984375">
        <ele>833.79998779296875</ele>
        <time>2020-08-21T12:26:34.000Z</time>
      </trkpt>
      <trkpt lat="43.00123888067901134490966796875" lon="-1.208039112389087677001953125">
        <ele>833.5999755859375</ele>
        <time>2020-08-21T12:26:36.000Z</time>
      </trkpt>
      <trkpt lat="43.001225553452968597412109375" lon="-1.20820515789091587066650390625">
        <ele>833.4000244140625</ele>
        <time>2020-08-21T12:26:38.000Z</time>
      </trkpt>
      <trkpt lat="43.00123016349971294403076171875" lon="-1.20844404213130474090576171875">
        <ele>832.79998779296875</ele>
        <time>2020-08-21T12:26:41.000Z</time>
      </trkpt>
      <trkpt lat="43.001243658363819122314453125" lon="-1.2087852694094181060791015625">
        <ele>831.5999755859375</ele>
        <time>2020-08-21T12:26:45.000Z</time>
      </trkpt>
      <trkpt lat="43.00126821734011173248291015625" lon="-1.2093565799295902252197265625">
        <ele>830.4000244140625</ele>
        <time>2020-08-21T12:26:51.000Z</time>
      </trkpt>
      <trkpt lat="43.00127810798585414886474609375" lon="-1.20955548249185085296630859375">
        <ele>830</ele>
        <time>2020-08-21T12:26:53.000Z</time>
      </trkpt>
      <trkpt lat="43.0012729950249195098876953125" lon="-1.20983384549617767333984375">
        <ele>829.20001220703125</ele>
        <time>2020-08-21T12:26:56.000Z</time>
      </trkpt>
      <trkpt lat="43.00125061534345149993896484375" lon="-1.21009108610451221466064453125">
        <ele>829</ele>
        <time>2020-08-21T12:26:59.000Z</time>
      </trkpt>
      <trkpt lat="43.0012341029942035675048828125" lon="-1.21016685850918292999267578125">
        <ele>829.20001220703125</ele>
        <time>2020-08-21T12:27:00.000Z</time>
      </trkpt>
      <trkpt lat="43.00116159953176975250244140625" lon="-1.210363246500492095947265625">
        <ele>829.20001220703125</ele>
        <time>2020-08-21T12:27:03.000Z</time>
      </trkpt>
      <trkpt lat="43.0011362023651599884033203125" lon="-1.21041588485240936279296875">
        <ele>829.4000244140625</ele>
        <time>2020-08-21T12:27:04.000Z</time>
      </trkpt>
      <trkpt lat="43.00103687681257724761962890625" lon="-1.2106172181665897369384765625">
        <ele>829.4000244140625</ele>
        <time>2020-08-21T12:27:08.000Z</time>
      </trkpt>
      <trkpt lat="43.0009105615317821502685546875" lon="-1.2108901329338550567626953125">
        <ele>829.20001220703125</ele>
        <time>2020-08-21T12:27:14.000Z</time>
      </trkpt>
      <trkpt lat="43.00073781050741672515869140625" lon="-1.21119431219995021820068359375">
        <ele>828</ele>
        <time>2020-08-21T12:27:19.000Z</time>
      </trkpt>
      <trkpt lat="43.000644855201244354248046875" lon="-1.21134434826672077178955078125">
        <ele>826.20001220703125</ele>
        <time>2020-08-21T12:27:21.000Z</time>
      </trkpt>
      <trkpt lat="43.00057151354849338531494140625" lon="-1.21153176762163639068603515625">
        <ele>825.20001220703125</ele>
        <time>2020-08-21T12:27:23.000Z</time>
      </trkpt>
      <trkpt lat="43.00055072642862796783447265625" lon="-1.2118295766413211822509765625">
        <ele>824.5999755859375</ele>
        <time>2020-08-21T12:27:26.000Z</time>
      </trkpt>
      <trkpt lat="43.0005870200693607330322265625" lon="-1.21203116141259670257568359375">
        <ele>824.4000244140625</ele>
        <time>2020-08-21T12:27:28.000Z</time>
      </trkpt>
      <trkpt lat="43.0006000958383083343505859375" lon="-1.21213249862194061279296875">
        <ele>823.79998779296875</ele>
        <time>2020-08-21T12:27:29.000Z</time>
      </trkpt>
      <trkpt lat="43.00060428678989410400390625" lon="-1.2122372724115848541259765625">
        <ele>823.4000244140625</ele>
        <time>2020-08-21T12:27:30.000Z</time>
      </trkpt>
      <trkpt lat="43.00058308057487010955810546875" lon="-1.212453357875347137451171875">
        <ele>822.4000244140625</ele>
        <time>2020-08-21T12:27:32.000Z</time>
      </trkpt>
      <trkpt lat="43.00053329207003116607666015625" lon="-1.21266935952007770538330078125">
        <ele>821</ele>
        <time>2020-08-21T12:27:34.000Z</time>
      </trkpt>
      <trkpt lat="43.00035308115184307098388671875" lon="-1.21304369531571865081787109375">
        <ele>820.4000244140625</ele>
        <time>2020-08-21T12:27:38.000Z</time>
      </trkpt>
      <trkpt lat="43.00030061043798923492431640625" lon="-1.213123239576816558837890625">
        <ele>820.4000244140625</ele>
        <time>2020-08-21T12:27:39.000Z</time>
      </trkpt>
      <trkpt lat="43.00019181333482265472412109375" lon="-1.2132947333157062530517578125">
        <ele>819.5999755859375</ele>
        <time>2020-08-21T12:27:41.000Z</time>
      </trkpt>
      <trkpt lat="43.0000854469835758209228515625" lon="-1.2134861759841442108154296875">
        <ele>818.4000244140625</ele>
        <time>2020-08-21T12:27:43.000Z</time>
      </trkpt>
      <trkpt lat="43.0000321380794048309326171875" lon="-1.21358223259449005126953125">
        <ele>817.79998779296875</ele>
        <time>2020-08-21T12:27:44.000Z</time>
      </trkpt>
      <trkpt lat="42.9999800026416778564453125" lon="-1.2136792950332164764404296875">
        <ele>817</ele>
        <time>2020-08-21T12:27:45.000Z</time>
      </trkpt>
      <trkpt lat="42.99988118000328540802001953125" lon="-1.21387057006359100341796875">
        <ele>816.20001220703125</ele>
        <time>2020-08-21T12:27:47.000Z</time>
      </trkpt>
      <trkpt lat="42.99984413199126720428466796875" lon="-1.21397257782518863677978515625">
        <ele>815.79998779296875</ele>
        <time>2020-08-21T12:27:48.000Z</time>
      </trkpt>
      <trkpt lat="42.9998165555298328399658203125" lon="-1.214082799851894378662109375">
        <ele>815.4000244140625</ele>
        <time>2020-08-21T12:27:49.000Z</time>
      </trkpt>
      <trkpt lat="42.9997967742383480072021484375" lon="-1.21419905684888362884521484375">
        <ele>814.5999755859375</ele>
        <time>2020-08-21T12:27:50.000Z</time>
      </trkpt>
      <trkpt lat="42.9997769929468631744384765625" lon="-1.21443760581314563751220703125">
        <ele>813.5999755859375</ele>
        <time>2020-08-21T12:27:52.000Z</time>
      </trkpt>
      <trkpt lat="42.9997726343572139739990234375" lon="-1.21455646120011806488037109375">
        <ele>813</ele>
        <time>2020-08-21T12:27:53.000Z</time>
      </trkpt>
      <trkpt lat="42.99975025467574596405029296875" lon="-1.21478520333766937255859375">
        <ele>812.4000244140625</ele>
        <time>2020-08-21T12:27:55.000Z</time>
      </trkpt>
      <trkpt lat="42.9996874742209911346435546875" lon="-1.2152410112321376800537109375">
        <ele>811.20001220703125</ele>
        <time>2020-08-21T12:27:59.000Z</time>
      </trkpt>
      <trkpt lat="42.99957565963268280029296875" lon="-1.21577653102576732635498046875">
        <ele>810.20001220703125</ele>
        <time>2020-08-21T12:28:04.000Z</time>
      </trkpt>
      <trkpt lat="42.9995399527251720428466796875" lon="-1.21587258763611316680908203125">
        <ele>809.79998779296875</ele>
        <time>2020-08-21T12:28:05.000Z</time>
      </trkpt>
      <trkpt lat="42.9994202591478824615478515625" lon="-1.216127313673496246337890625">
        <ele>809</ele>
        <time>2020-08-21T12:28:08.000Z</time>
      </trkpt>
      <trkpt lat="42.99925320781767368316650390625" lon="-1.21658605523407459259033203125">
        <ele>809</ele>
        <time>2020-08-21T12:28:14.000Z</time>
      </trkpt>
      <trkpt lat="42.99913066439330577850341796875" lon="-1.2169609777629375457763671875">
        <ele>809</ele>
        <time>2020-08-21T12:28:20.000Z</time>
      </trkpt>
      <trkpt lat="42.99903142265975475311279296875" lon="-1.21725409291684627532958984375">
        <ele>808.79998779296875</ele>
        <time>2020-08-21T12:28:25.000Z</time>
      </trkpt>
      <trkpt lat="42.9989830590784549713134765625" lon="-1.2173770554363727569580078125">
        <ele>809</ele>
        <time>2020-08-21T12:28:27.000Z</time>
      </trkpt>
      <trkpt lat="42.99885104410350322723388671875" lon="-1.21772825717926025390625">
        <ele>807.20001220703125</ele>
        <time>2020-08-21T12:28:32.000Z</time>
      </trkpt>
      <trkpt lat="42.99879991449415683746337890625" lon="-1.21786572039127349853515625">
        <ele>806.20001220703125</ele>
        <time>2020-08-21T12:28:34.000Z</time>
      </trkpt>
      <trkpt lat="42.99877795390784740447998046875" lon="-1.21793252415955066680908203125">
        <ele>806</ele>
        <time>2020-08-21T12:28:35.000Z</time>
      </trkpt>
      <trkpt lat="42.99874627031385898590087890625" lon="-1.2180734239518642425537109375">
        <ele>804.79998779296875</ele>
        <time>2020-08-21T12:28:37.000Z</time>
      </trkpt>
      <trkpt lat="42.9986863397061824798583984375" lon="-1.21833988465368747711181640625">
        <ele>804</ele>
        <time>2020-08-21T12:28:41.000Z</time>
      </trkpt>
      <trkpt lat="42.99863554537296295166015625" lon="-1.2185703031718730926513671875">
        <ele>804.5999755859375</ele>
        <time>2020-08-21T12:28:46.000Z</time>
      </trkpt>
      <trkpt lat="42.99856991507112979888916015625" lon="-1.21886375360190868377685546875">
        <ele>805.79998779296875</ele>
        <time>2020-08-21T12:28:55.000Z</time>
      </trkpt>
      <trkpt lat="42.99851710908114910125732421875" lon="-1.21912811882793903350830078125">
        <ele>805.5999755859375</ele>
        <time>2020-08-21T12:29:01.000Z</time>
      </trkpt>
      <trkpt lat="42.99843840301036834716796875" lon="-1.21949826367199420928955078125">
        <ele>804.20001220703125</ele>
        <time>2020-08-21T12:29:07.000Z</time>
      </trkpt>
      <trkpt lat="42.9984090663492679595947265625" lon="-1.219614185392856597900390625">
        <ele>803.4000244140625</ele>
        <time>2020-08-21T12:29:09.000Z</time>
      </trkpt>
      <trkpt lat="42.99839104525744915008544921875" lon="-1.21967294253408908843994140625">
        <ele>802.79998779296875</ele>
        <time>2020-08-21T12:29:10.000Z</time>
      </trkpt>
      <trkpt lat="42.9983688332140445709228515625" lon="-1.2197310291230678558349609375">
        <ele>802.20001220703125</ele>
        <time>2020-08-21T12:29:11.000Z</time>
      </trkpt>
      <trkpt lat="42.99830739386379718780517578125" lon="-1.219852901995182037353515625">
        <ele>801.5999755859375</ele>
        <time>2020-08-21T12:29:13.000Z</time>
      </trkpt>
      <trkpt lat="42.99822374247014522552490234375" lon="-1.2199771218001842498779296875">
        <ele>801</ele>
        <time>2020-08-21T12:29:15.000Z</time>
      </trkpt>
      <trkpt lat="42.99807756207883358001708984375" lon="-1.22015071101486682891845703125">
        <ele>800</ele>
        <time>2020-08-21T12:29:18.000Z</time>
      </trkpt>
      <trkpt lat="42.99793322570621967315673828125" lon="-1.220309548079967498779296875">
        <ele>799.79998779296875</ele>
        <time>2020-08-21T12:29:21.000Z</time>
      </trkpt>
      <trkpt lat="42.9978208243846893310546875" lon="-1.220481209456920623779296875">
        <ele>799.79998779296875</ele>
        <time>2020-08-21T12:29:24.000Z</time>
      </trkpt>
      <trkpt lat="42.9976717941462993621826171875" lon="-1.22083098627626895904541015625">
        <ele>799.4000244140625</ele>
        <time>2020-08-21T12:29:30.000Z</time>
      </trkpt>
      <trkpt lat="42.997548915445804595947265625" lon="-1.2211160548031330108642578125">
        <ele>799</ele>
        <time>2020-08-21T12:29:35.000Z</time>
      </trkpt>
      <trkpt lat="42.99745596013963222503662109375" lon="-1.2212820164859294891357421875">
        <ele>798.79998779296875</ele>
        <time>2020-08-21T12:29:38.000Z</time>
      </trkpt>
      <trkpt lat="42.99727709032595157623291015625" lon="-1.22156222350895404815673828125">
        <ele>798</ele>
        <time>2020-08-21T12:29:43.000Z</time>
      </trkpt>
      <trkpt lat="42.99720190465450286865234375" lon="-1.22168543748557567596435546875">
        <ele>797.5999755859375</ele>
        <time>2020-08-21T12:29:45.000Z</time>
      </trkpt>
      <trkpt lat="42.9969811253249645233154296875" lon="-1.22197830118238925933837890625">
        <ele>796.5999755859375</ele>
        <time>2020-08-21T12:29:50.000Z</time>
      </trkpt>
      <trkpt lat="42.9968319274485111236572265625" lon="-1.2221523933112621307373046875">
        <ele>795.79998779296875</ele>
        <time>2020-08-21T12:29:53.000Z</time>
      </trkpt>
      <trkpt lat="42.996730841696262359619140625" lon="-1.22226580046117305755615234375">
        <ele>795.4000244140625</ele>
        <time>2020-08-21T12:29:55.000Z</time>
      </trkpt>
      <trkpt lat="42.9962767101824283599853515625" lon="-1.2227676250040531158447265625">
        <ele>794.20001220703125</ele>
        <time>2020-08-21T12:30:04.000Z</time>
      </trkpt>
      <trkpt lat="42.9962247423827648162841796875" lon="-1.22282235883176326751708984375">
        <ele>794</ele>
        <time>2020-08-21T12:30:05.000Z</time>
      </trkpt>
      <trkpt lat="42.996068336069583892822265625" lon="-1.2229907512664794921875">
        <ele>793.20001220703125</ele>
        <time>2020-08-21T12:30:08.000Z</time>
      </trkpt>
      <trkpt lat="42.995649240911006927490234375" lon="-1.2234284542500972747802734375">
        <ele>792</ele>
        <time>2020-08-21T12:30:16.000Z</time>
      </trkpt>
      <trkpt lat="42.99526845104992389678955078125" lon="-1.22378376312553882598876953125">
        <ele>791.20001220703125</ele>
        <time>2020-08-21T12:30:23.000Z</time>
      </trkpt>
      <trkpt lat="42.99521145410835742950439453125" lon="-1.22382986359298229217529296875">
        <ele>791.20001220703125</ele>
        <time>2020-08-21T12:30:24.000Z</time>
      </trkpt>
      <trkpt lat="42.9949299059808254241943359375" lon="-1.22406371869146823883056640625">
        <ele>790.20001220703125</ele>
        <time>2020-08-21T12:30:29.000Z</time>
      </trkpt>
      <trkpt lat="42.994710467755794525146484375" lon="-1.2242699973285198211669921875">
        <ele>789.5999755859375</ele>
        <time>2020-08-21T12:30:33.000Z</time>
      </trkpt>
      <trkpt lat="42.994547188282012939453125" lon="-1.22443721629679203033447265625">
        <ele>789</ele>
        <time>2020-08-21T12:30:36.000Z</time>
      </trkpt>
      <trkpt lat="42.9942603595554828643798828125" lon="-1.224723123013973236083984375">
        <ele>788</ele>
        <time>2020-08-21T12:30:41.000Z</time>
      </trkpt>
      <trkpt lat="42.994086854159832000732421875" lon="-1.22488363645970821380615234375">
        <ele>787.4000244140625</ele>
        <time>2020-08-21T12:30:44.000Z</time>
      </trkpt>
      <trkpt lat="42.99403346143662929534912109375" lon="-1.22493208386003971099853515625">
        <ele>787.20001220703125</ele>
        <time>2020-08-21T12:30:45.000Z</time>
      </trkpt>
      <trkpt lat="42.99385182559490203857421875" lon="-1.2250894121825695037841796875">
        <ele>787</ele>
        <time>2020-08-21T12:30:49.000Z</time>
      </trkpt>
      <trkpt lat="42.99369500018656253814697265625" lon="-1.22523668222129344940185546875">
        <ele>787.20001220703125</ele>
        <time>2020-08-21T12:30:54.000Z</time>
      </trkpt>
      <trkpt lat="42.993696592748165130615234375" lon="-1.22529837302863597869873046875">
        <ele>787.4000244140625</ele>
        <time>2020-08-21T12:30:57.000Z</time>
      </trkpt>
      <trkpt lat="42.9937081597745418548583984375" lon="-1.2253039889037609100341796875">
        <ele>787.4000244140625</ele>
        <time>2020-08-21T12:31:06.000Z</time>
      </trkpt>
      <trkpt lat="42.99371612258255481719970703125" lon="-1.22530071996152400970458984375">
        <ele>787.79998779296875</ele>
        <time>2020-08-21T12:31:20.000Z</time>
      </trkpt>
      <trkpt lat="42.99371637403964996337890625" lon="-1.22529787011444568634033203125">
        <ele>787.79998779296875</ele>
        <time>2020-08-21T12:31:33.000Z</time>
      </trkpt>
      <trkpt lat="42.9937145300209522247314453125" lon="-1.2252986244857311248779296875">
        <ele>787.5999755859375</ele>
        <time>2020-08-21T12:32:19.000Z</time>
      </trkpt>
      <trkpt lat="42.99372064881026744842529296875" lon="-1.22529971413314342498779296875">
        <ele>787.20001220703125</ele>
        <time>2020-08-21T12:32:32.000Z</time>
      </trkpt>
      <trkpt lat="42.99378435127437114715576171875" lon="-1.22529200278222560882568359375">
        <ele>787.4000244140625</ele>
        <time>2020-08-21T12:32:37.000Z</time>
      </trkpt>
      <trkpt lat="42.99381586723029613494873046875" lon="-1.22528295032680034637451171875">
        <ele>787.79998779296875</ele>
        <time>2020-08-21T12:32:39.000Z</time>
      </trkpt>
      <trkpt lat="42.99386322498321533203125" lon="-1.2252583913505077362060546875">
        <ele>788.20001220703125</ele>
        <time>2020-08-21T12:32:42.000Z</time>
      </trkpt>
      <trkpt lat="42.99391686916351318359375" lon="-1.22524355538189411163330078125">
        <ele>788.5999755859375</ele>
        <time>2020-08-21T12:32:45.000Z</time>
      </trkpt>
      <trkpt lat="42.9939676634967327117919921875" lon="-1.22521254234015941619873046875">
        <ele>788.79998779296875</ele>
        <time>2020-08-21T12:32:48.000Z</time>
      </trkpt>
      <trkpt lat="42.9940236546099185943603515625" lon="-1.22519485652446746826171875">
        <ele>789.20001220703125</ele>
        <time>2020-08-21T12:32:51.000Z</time>
      </trkpt>
      <trkpt lat="42.9940588586032390594482421875" lon="-1.22518069110810756683349609375">
        <ele>789.4000244140625</ele>
        <time>2020-08-21T12:32:53.000Z</time>
      </trkpt>
      <trkpt lat="42.9941524006426334381103515625" lon="-1.22515152208507061004638671875">
        <ele>790</ele>
        <time>2020-08-21T12:32:58.000Z</time>
      </trkpt>
      <trkpt lat="42.994290031492710113525390625" lon="-1.22510232031345367431640625">
        <ele>790.20001220703125</ele>
        <time>2020-08-21T12:33:05.000Z</time>
      </trkpt>
      <trkpt lat="42.99431006424129009246826171875" lon="-1.2250944413244724273681640625">
        <ele>790.4000244140625</ele>
        <time>2020-08-21T12:33:06.000Z</time>
      </trkpt>
      <trkpt lat="42.99443596042692661285400390625" lon="-1.22505462728440761566162109375">
        <ele>790.4000244140625</ele>
        <time>2020-08-21T12:33:12.000Z</time>
      </trkpt>
      <trkpt lat="42.9946343600749969482421875" lon="-1.22497835196554660797119140625">
        <ele>791.20001220703125</ele>
        <time>2020-08-21T12:33:21.000Z</time>
      </trkpt>
      <trkpt lat="42.99472756683826446533203125" lon="-1.22494700364768505096435546875">
        <ele>791.5999755859375</ele>
        <time>2020-08-21T12:33:25.000Z</time>
      </trkpt>
      <trkpt lat="42.994817085564136505126953125" lon="-1.22491858899593353271484375">
        <ele>792</ele>
        <time>2020-08-21T12:33:29.000Z</time>
      </trkpt>
      <trkpt lat="42.99498849548399448394775390625" lon="-1.22486293315887451171875">
        <ele>792.5999755859375</ele>
        <time>2020-08-21T12:33:37.000Z</time>
      </trkpt>
      <trkpt lat="42.9950103722512722015380859375" lon="-1.22485463507473468780517578125">
        <ele>792.5999755859375</ele>
        <time>2020-08-21T12:33:38.000Z</time>
      </trkpt>
      <trkpt lat="42.99522251822054386138916015625" lon="-1.2247930280864238739013671875">
        <ele>793.5999755859375</ele>
        <time>2020-08-21T12:33:48.000Z</time>
      </trkpt>
      <trkpt lat="42.99536484293639659881591796875" lon="-1.22473695315420627593994140625">
        <ele>793.5999755859375</ele>
        <time>2020-08-21T12:33:55.000Z</time>
      </trkpt>
      <trkpt lat="42.9955112747848033905029296875" lon="-1.22469705529510974884033203125">
        <ele>794.5999755859375</ele>
        <time>2020-08-21T12:34:02.000Z</time>
      </trkpt>
      <trkpt lat="42.99553365446627140045166015625" lon="-1.2246917746961116790771484375">
        <ele>794.5999755859375</ele>
        <time>2020-08-21T12:34:03.000Z</time>
      </trkpt>
      <trkpt lat="42.99566793255507946014404296875" lon="-1.2247226200997829437255859375">
        <ele>795.20001220703125</ele>
        <time>2020-08-21T12:34:09.000Z</time>
      </trkpt>
      <trkpt lat="42.99581914208829402923583984375" lon="-1.224799565970897674560546875">
        <ele>795.79998779296875</ele>
        <time>2020-08-21T12:34:16.000Z</time>
      </trkpt>
      <trkpt lat="42.99583976157009601593017578125" lon="-1.22481674887239933013916015625">
        <ele>796</ele>
        <time>2020-08-21T12:34:17.000Z</time>
      </trkpt>
      <trkpt lat="42.9959987662732601165771484375" lon="-1.224969215691089630126953125">
        <ele>796</ele>
        <time>2020-08-21T12:34:25.000Z</time>
      </trkpt>
      <trkpt lat="42.99617461860179901123046875" lon="-1.22514984570443630218505859375">
        <ele>796.20001220703125</ele>
        <time>2020-08-21T12:34:33.000Z</time>
      </trkpt>
      <trkpt lat="42.9963340424001216888427734375" lon="-1.22536123730242252349853515625">
        <ele>796</ele>
        <time>2020-08-21T12:34:41.000Z</time>
      </trkpt>
      <trkpt lat="42.996439822018146514892578125" lon="-1.22555301524698734283447265625">
        <ele>796</ele>
        <time>2020-08-21T12:34:47.000Z</time>
      </trkpt>
      <trkpt lat="42.99648466520011425018310546875" lon="-1.22566231526434421539306640625">
        <ele>795.79998779296875</ele>
        <time>2020-08-21T12:34:50.000Z</time>
      </trkpt>
      <trkpt lat="42.9965546540915966033935546875" lon="-1.2259614653885364532470703125">
        <ele>796</ele>
        <time>2020-08-21T12:34:58.000Z</time>
      </trkpt>
      <trkpt lat="42.99659044481813907623291015625" lon="-1.2262605316936969757080078125">
        <ele>797</ele>
        <time>2020-08-21T12:35:06.000Z</time>
      </trkpt>
      <trkpt lat="42.99659907817840576171875" lon="-1.2262938916683197021484375">
        <ele>797</ele>
        <time>2020-08-21T12:35:07.000Z</time>
      </trkpt>
      <trkpt lat="42.99667342565953731536865234375" lon="-1.22651324607431888580322265625">
        <ele>798</ele>
        <time>2020-08-21T12:35:14.000Z</time>
      </trkpt>
      <trkpt lat="42.996686585247516632080078125" lon="-1.2265435047447681427001953125">
        <ele>798.20001220703125</ele>
        <time>2020-08-21T12:35:15.000Z</time>
      </trkpt>
      <trkpt lat="42.99683804623782634735107421875" lon="-1.22679906897246837615966796875">
        <ele>798.4000244140625</ele>
        <time>2020-08-21T12:35:24.000Z</time>
      </trkpt>
      <trkpt lat="42.99701926298439502716064453125" lon="-1.2269864045083522796630859375">
        <ele>799.20001220703125</ele>
        <time>2020-08-21T12:35:32.000Z</time>
      </trkpt>
      <trkpt lat="42.99704440869390964508056640625" lon="-1.2270061857998371124267578125">
        <ele>799.20001220703125</ele>
        <time>2020-08-21T12:35:33.000Z</time>
      </trkpt>
      <trkpt lat="42.99727834761142730712890625" lon="-1.2272058427333831787109375">
        <ele>799.4000244140625</ele>
        <time>2020-08-21T12:35:42.000Z</time>
      </trkpt>
      <trkpt lat="42.9974292218685150146484375" lon="-1.22732344083487987518310546875">
        <ele>799.20001220703125</ele>
        <time>2020-08-21T12:35:48.000Z</time>
      </trkpt>
      <trkpt lat="42.99758152104914188385009765625" lon="-1.22741949744522571563720703125">
        <ele>799.4000244140625</ele>
        <time>2020-08-21T12:35:53.000Z</time>
      </trkpt>
      <trkpt lat="42.99761353991925716400146484375" lon="-1.227440200746059417724609375">
        <ele>799.5999755859375</ele>
        <time>2020-08-21T12:35:54.000Z</time>
      </trkpt>
      <trkpt lat="42.99790732562541961669921875" lon="-1.22759182937443256378173828125">
        <ele>799.20001220703125</ele>
        <time>2020-08-21T12:36:03.000Z</time>
      </trkpt>
      <trkpt lat="42.99818049184978008270263671875" lon="-1.22762720100581645965576171875">
        <ele>799.20001220703125</ele>
        <time>2020-08-21T12:36:12.000Z</time>
      </trkpt>
      <trkpt lat="42.998411245644092559814453125" lon="-1.227613203227519989013671875">
        <ele>799.20001220703125</ele>
        <time>2020-08-21T12:36:19.000Z</time>
      </trkpt>
      <trkpt lat="42.99877845682203769683837890625" lon="-1.2276127003133296966552734375">
        <ele>799</ele>
        <time>2020-08-21T12:36:30.000Z</time>
      </trkpt>
      <trkpt lat="42.9990987293422222137451171875" lon="-1.2276215851306915283203125">
        <ele>799.5999755859375</ele>
        <time>2020-08-21T12:36:40.000Z</time>
      </trkpt>
      <trkpt lat="42.99933836795389652252197265625" lon="-1.22764983214437961578369140625">
        <ele>799.20001220703125</ele>
        <time>2020-08-21T12:36:47.000Z</time>
      </trkpt>
      <trkpt lat="42.9996609874069690704345703125" lon="-1.2276817671954631805419921875">
        <ele>799.4000244140625</ele>
        <time>2020-08-21T12:36:55.000Z</time>
      </trkpt>
      <trkpt lat="42.999970279633998870849609375" lon="-1.227707751095294952392578125">
        <ele>798.20001220703125</ele>
        <time>2020-08-21T12:37:02.000Z</time>
      </trkpt>
      <trkpt lat="43.000017218291759490966796875" lon="-1.22771353460848331451416015625">
        <ele>797.79998779296875</ele>
        <time>2020-08-21T12:37:03.000Z</time>
      </trkpt>
      <trkpt lat="43.00022114999592304229736328125" lon="-1.22774370945990085601806640625">
        <ele>797</ele>
        <time>2020-08-21T12:37:07.000Z</time>
      </trkpt>
      <trkpt lat="43.00033447332680225372314453125" lon="-1.22776902280747890472412109375">
        <ele>796.4000244140625</ele>
        <time>2020-08-21T12:37:09.000Z</time>
      </trkpt>
      <trkpt lat="43.000458441674709320068359375" lon="-1.227795593440532684326171875">
        <ele>795.5999755859375</ele>
        <time>2020-08-21T12:37:11.000Z</time>
      </trkpt>
      <trkpt lat="43.0006584338843822479248046875" lon="-1.22785937972366809844970703125">
        <ele>794.79998779296875</ele>
        <time>2020-08-21T12:37:14.000Z</time>
      </trkpt>
      <trkpt lat="43.0007283389568328857421875" lon="-1.22788435779511928558349609375">
        <ele>794.5999755859375</ele>
        <time>2020-08-21T12:37:15.000Z</time>
      </trkpt>
      <trkpt lat="43.000950627028942108154296875" lon="-1.22795895673334598541259765625">
        <ele>793</ele>
        <time>2020-08-21T12:37:18.000Z</time>
      </trkpt>
      <trkpt lat="43.00118037499487400054931640625" lon="-1.2280418537557125091552734375">
        <ele>791.5999755859375</ele>
        <time>2020-08-21T12:37:21.000Z</time>
      </trkpt>
      <trkpt lat="43.00167842768132686614990234375" lon="-1.22820354066789150238037109375">
        <ele>791</ele>
        <time>2020-08-21T12:37:28.000Z</time>
      </trkpt>
      <trkpt lat="43.00201789475977420806884765625" lon="-1.2282842583954334259033203125">
        <ele>791.20001220703125</ele>
        <time>2020-08-21T12:37:34.000Z</time>
      </trkpt>
      <trkpt lat="43.0022074095904827117919921875" lon="-1.22827344574034214019775390625">
        <ele>791.20001220703125</ele>
        <time>2020-08-21T12:37:38.000Z</time>
      </trkpt>
      <trkpt lat="43.002295084297657012939453125" lon="-1.22824276797473430633544921875">
        <ele>791</ele>
        <time>2020-08-21T12:37:40.000Z</time>
      </trkpt>
      <trkpt lat="43.0023820884525775909423828125" lon="-1.22819088399410247802734375">
        <ele>790.79998779296875</ele>
        <time>2020-08-21T12:37:42.000Z</time>
      </trkpt>
      <trkpt lat="43.00252743065357208251953125" lon="-1.22810128144919872283935546875">
        <ele>790.5999755859375</ele>
        <time>2020-08-21T12:37:45.000Z</time>
      </trkpt>
      <trkpt lat="43.0025844275951385498046875" lon="-1.22807496227324008941650390625">
        <ele>790.4000244140625</ele>
        <time>2020-08-21T12:37:46.000Z</time>
      </trkpt>
      <trkpt lat="43.00283663906157016754150390625" lon="-1.2280596233904361724853515625">
        <ele>789.4000244140625</ele>
        <time>2020-08-21T12:37:50.000Z</time>
      </trkpt>
      <trkpt lat="43.00301517359912395477294921875" lon="-1.22799818404018878936767578125">
        <ele>789.20001220703125</ele>
        <time>2020-08-21T12:37:53.000Z</time>
      </trkpt>
      <trkpt lat="43.0031009204685688018798828125" lon="-1.22790195979177951812744140625">
        <ele>789</ele>
        <time>2020-08-21T12:37:55.000Z</time>
      </trkpt>
      <trkpt lat="43.003213405609130859375" lon="-1.22776935808360576629638671875">
        <ele>788.79998779296875</ele>
        <time>2020-08-21T12:37:58.000Z</time>
      </trkpt>
      <trkpt lat="43.00327769480645656585693359375" lon="-1.2276941724121570587158203125">
        <ele>789</ele>
        <time>2020-08-21T12:38:00.000Z</time>
      </trkpt>
      <trkpt lat="43.00339956767857074737548828125" lon="-1.22756995260715484619140625">
        <ele>789.5999755859375</ele>
        <time>2020-08-21T12:38:04.000Z</time>
      </trkpt>
      <trkpt lat="43.0036090314388275146484375" lon="-1.2274557910859584808349609375">
        <ele>790.5999755859375</ele>
        <time>2020-08-21T12:38:11.000Z</time>
      </trkpt>
      <trkpt lat="43.00376501865684986114501953125" lon="-1.22742234729230403900146484375">
        <ele>791.5999755859375</ele>
        <time>2020-08-21T12:38:17.000Z</time>
      </trkpt>
      <trkpt lat="43.00383727066218852996826171875" lon="-1.227418072521686553955078125">
        <ele>792</ele>
        <time>2020-08-21T12:38:20.000Z</time>
      </trkpt>
      <trkpt lat="43.0039029009640216827392578125" lon="-1.22741430066525936126708984375">
        <ele>792.5999755859375</ele>
        <time>2020-08-21T12:38:23.000Z</time>
      </trkpt>
      <trkpt lat="43.00401446409523487091064453125" lon="-1.22740156017243862152099609375">
        <ele>793</ele>
        <time>2020-08-21T12:38:28.000Z</time>
      </trkpt>
      <trkpt lat="43.00409744493663311004638671875" lon="-1.2274001352488994598388671875">
        <ele>794</ele>
        <time>2020-08-21T12:38:32.000Z</time>
      </trkpt>
      <trkpt lat="43.0041556991636753082275390625" lon="-1.227381192147731781005859375">
        <ele>794.20001220703125</ele>
        <time>2020-08-21T12:38:35.000Z</time>
      </trkpt>
      <trkpt lat="43.004237003624439239501953125" lon="-1.2273719720542430877685546875">
        <ele>795</ele>
        <time>2020-08-21T12:38:39.000Z</time>
      </trkpt>
      <trkpt lat="43.00432291813194751739501953125" lon="-1.2273614108562469482421875">
        <ele>795.5999755859375</ele>
        <time>2020-08-21T12:38:43.000Z</time>
      </trkpt>
      <trkpt lat="43.0044477246701717376708984375" lon="-1.227349340915679931640625">
        <ele>796.20001220703125</ele>
        <time>2020-08-21T12:38:49.000Z</time>
      </trkpt>
      <trkpt lat="43.00451067276298999786376953125" lon="-1.227343976497650146484375">
        <ele>796.5999755859375</ele>
        <time>2020-08-21T12:38:52.000Z</time>
      </trkpt>
      <trkpt lat="43.00457186065614223480224609375" lon="-1.22732796706259250640869140625">
        <ele>797.20001220703125</ele>
        <time>2020-08-21T12:38:55.000Z</time>
      </trkpt>
      <trkpt lat="43.00471116788685321807861328125" lon="-1.2272998876869678497314453125">
        <ele>798</ele>
        <time>2020-08-21T12:39:02.000Z</time>
      </trkpt>
      <trkpt lat="43.00481627695262432098388671875" lon="-1.2272747419774532318115234375">
        <ele>798.5999755859375</ele>
        <time>2020-08-21T12:39:07.000Z</time>
      </trkpt>
      <trkpt lat="43.00488115288317203521728515625" lon="-1.2272522784769535064697265625">
        <ele>799.20001220703125</ele>
        <time>2020-08-21T12:39:10.000Z</time>
      </trkpt>
      <trkpt lat="43.00494368188083171844482421875" lon="-1.22722973115742206573486328125">
        <ele>799.5999755859375</ele>
        <time>2020-08-21T12:39:13.000Z</time>
      </trkpt>
      <trkpt lat="43.00509120337665081024169921875" lon="-1.22716368176043033599853515625">
        <ele>800.4000244140625</ele>
        <time>2020-08-21T12:39:20.000Z</time>
      </trkpt>
      <trkpt lat="43.00513411872088909149169921875" lon="-1.22713283635675907135009765625">
        <ele>800.5999755859375</ele>
        <time>2020-08-21T12:39:22.000Z</time>
      </trkpt>
      <trkpt lat="43.0053256452083587646484375" lon="-1.22702278196811676025390625">
        <ele>801</ele>
        <time>2020-08-21T12:39:30.000Z</time>
      </trkpt>
      <trkpt lat="43.00552119500935077667236328125" lon="-1.22689546085894107818603515625">
        <ele>801.4000244140625</ele>
        <time>2020-08-21T12:39:38.000Z</time>
      </trkpt>
      <trkpt lat="43.00557173788547515869140625" lon="-1.2268667109310626983642578125">
        <ele>801.5999755859375</ele>
        <time>2020-08-21T12:39:40.000Z</time>
      </trkpt>
      <trkpt lat="43.00574834458529949188232421875" lon="-1.22678180225193500518798828125">
        <ele>802.20001220703125</ele>
        <time>2020-08-21T12:39:47.000Z</time>
      </trkpt>
      <trkpt lat="43.00588262267410755157470703125" lon="-1.2267337739467620849609375">
        <ele>802.79998779296875</ele>
        <time>2020-08-21T12:39:52.000Z</time>
      </trkpt>
      <trkpt lat="43.00599510781466960906982421875" lon="-1.2267044372856616973876953125">
        <ele>803.4000244140625</ele>
        <time>2020-08-21T12:39:56.000Z</time>
      </trkpt>
      <trkpt lat="43.0062930844724178314208984375" lon="-1.2266479432582855224609375">
        <ele>803.79998779296875</ele>
        <time>2020-08-21T12:40:06.000Z</time>
      </trkpt>
      <trkpt lat="43.00654060207307338714599609375" lon="-1.22660963796079158782958984375">
        <ele>804.20001220703125</ele>
        <time>2020-08-21T12:40:14.000Z</time>
      </trkpt>
      <trkpt lat="43.00679457373917102813720703125" lon="-1.2266531400382518768310546875">
        <ele>804.20001220703125</ele>
        <time>2020-08-21T12:40:21.000Z</time>
      </trkpt>
      <trkpt lat="43.0070181190967559814453125" lon="-1.2267285771667957305908203125">
        <ele>803.79998779296875</ele>
        <time>2020-08-21T12:40:28.000Z</time>
      </trkpt>
      <trkpt lat="43.00718818791210651397705078125" lon="-1.22686679475009441375732421875">
        <ele>803.5999755859375</ele>
        <time>2020-08-21T12:40:33.000Z</time>
      </trkpt>
      <trkpt lat="43.0072274990379810333251953125" lon="-1.22689579613506793975830078125">
        <ele>803.5999755859375</ele>
        <time>2020-08-21T12:40:34.000Z</time>
      </trkpt>
      <trkpt lat="43.00739170052111148834228515625" lon="-1.2269515357911586761474609375">
        <ele>803.20001220703125</ele>
        <time>2020-08-21T12:40:38.000Z</time>
      </trkpt>
      <trkpt lat="43.00762522034347057342529296875" lon="-1.22699327766895294189453125">
        <ele>803</ele>
        <time>2020-08-21T12:40:44.000Z</time>
      </trkpt>
      <trkpt lat="43.0078172497451305389404296875" lon="-1.227036528289318084716796875">
        <ele>803</ele>
        <time>2020-08-21T12:40:50.000Z</time>
      </trkpt>
      <trkpt lat="43.008036352694034576416015625" lon="-1.226954050362110137939453125">
        <ele>804</ele>
        <time>2020-08-21T12:40:57.000Z</time>
      </trkpt>
      <trkpt lat="43.00820927135646343231201171875" lon="-1.22682739980518817901611328125">
        <ele>804.4000244140625</ele>
        <time>2020-08-21T12:41:04.000Z</time>
      </trkpt>
      <trkpt lat="43.008258640766143798828125" lon="-1.226809211075305938720703125">
        <ele>804.79998779296875</ele>
        <time>2020-08-21T12:41:06.000Z</time>
      </trkpt>
      <trkpt lat="43.00839082337915897369384765625" lon="-1.2267037667334079742431640625">
        <ele>805</ele>
        <time>2020-08-21T12:41:12.000Z</time>
      </trkpt>
      <trkpt lat="43.008575141429901123046875" lon="-1.2265934608876705169677734375">
        <ele>805.4000244140625</ele>
        <time>2020-08-21T12:41:20.000Z</time>
      </trkpt>
      <trkpt lat="43.00859467126429080963134765625" lon="-1.226606033742427825927734375">
        <ele>805.4000244140625</ele>
        <time>2020-08-21T12:41:24.000Z</time>
      </trkpt>
      <trkpt lat="43.00863490439951419830322265625" lon="-1.2265797145664691925048828125">
        <ele>805.79998779296875</ele>
        <time>2020-08-21T12:42:14.000Z</time>
      </trkpt>
      <trkpt lat="43.0086651630699634552001953125" lon="-1.226549036800861358642578125">
        <ele>806</ele>
        <time>2020-08-21T12:42:19.000Z</time>
      </trkpt>
      <trkpt lat="43.0087172985076904296875" lon="-1.22647418640553951263427734375">
        <ele>806.4000244140625</ele>
        <time>2020-08-21T12:42:25.000Z</time>
      </trkpt>
      <trkpt lat="43.008725009858608245849609375" lon="-1.2264700792729854583740234375">
        <ele>806.79998779296875</ele>
        <time>2020-08-21T12:42:32.000Z</time>
      </trkpt>
      <trkpt lat="43.00872467458248138427734375" lon="-1.22646999545395374298095703125">
        <ele>806.79998779296875</ele>
        <time>2020-08-21T12:42:39.000Z</time>
      </trkpt>
      <trkpt lat="43.0087248422205448150634765625" lon="-1.22646949253976345062255859375">
        <ele>806.5999755859375</ele>
        <time>2020-08-21T12:42:47.000Z</time>
      </trkpt>
      <trkpt lat="43.00872492603957653045654296875" lon="-1.22646932490170001983642578125">
        <ele>806.20001220703125</ele>
        <time>2020-08-21T12:43:01.000Z</time>
      </trkpt>
      <trkpt lat="43.00873246975243091583251953125" lon="-1.2264657206833362579345703125">
        <ele>806.5999755859375</ele>
        <time>2020-08-21T12:43:14.000Z</time>
      </trkpt>
      <trkpt lat="43.0087566934525966644287109375" lon="-1.22645708732306957244873046875">
        <ele>806.5999755859375</ele>
        <time>2020-08-21T12:43:16.000Z</time>
      </trkpt>
      <trkpt lat="43.00878644920885562896728515625" lon="-1.22644610702991485595703125">
        <ele>806.79998779296875</ele>
        <time>2020-08-21T12:43:18.000Z</time>
      </trkpt>
      <trkpt lat="43.00888535566627979278564453125" lon="-1.2264280021190643310546875">
        <ele>807.5999755859375</ele>
        <time>2020-08-21T12:43:24.000Z</time>
      </trkpt>
      <trkpt lat="43.008950650691986083984375" lon="-1.22645172290503978729248046875">
        <ele>808.4000244140625</ele>
        <time>2020-08-21T12:43:28.000Z</time>
      </trkpt>
      <trkpt lat="43.0090011097490787506103515625" lon="-1.22648357413709163665771484375">
        <ele>809</ele>
        <time>2020-08-21T12:43:31.000Z</time>
      </trkpt>
      <trkpt lat="43.00904519855976104736328125" lon="-1.2265253998339176177978515625">
        <ele>809.4000244140625</ele>
        <time>2020-08-21T12:43:34.000Z</time>
      </trkpt>
      <trkpt lat="43.0090540833771228790283203125" lon="-1.22654526494443416595458984375">
        <ele>809.5999755859375</ele>
        <time>2020-08-21T12:43:35.000Z</time>
      </trkpt>
      <trkpt lat="43.0090738646686077117919921875" lon="-1.22658331878483295440673828125">
        <ele>810</ele>
        <time>2020-08-21T12:43:37.000Z</time>
      </trkpt>
      <trkpt lat="43.00911761820316314697265625" lon="-1.226648949086666107177734375">
        <ele>810.5999755859375</ele>
        <time>2020-08-21T12:43:41.000Z</time>
      </trkpt>
      <trkpt lat="43.009126000106334686279296875" lon="-1.22666579671204090118408203125">
        <ele>810.5999755859375</ele>
        <time>2020-08-21T12:43:42.000Z</time>
      </trkpt>
      <trkpt lat="43.009160198271274566650390625" lon="-1.22674056328833103179931640625">
        <ele>811.5999755859375</ele>
        <time>2020-08-21T12:43:46.000Z</time>
      </trkpt>
      <trkpt lat="43.00916631706058979034423828125" lon="-1.226760260760784149169921875">
        <ele>811.79998779296875</ele>
        <time>2020-08-21T12:43:47.000Z</time>
      </trkpt>
      <trkpt lat="43.009232617914676666259765625" lon="-1.22694290243089199066162109375">
        <ele>812.79998779296875</ele>
        <time>2020-08-21T12:43:55.000Z</time>
      </trkpt>
      <trkpt lat="43.00927042029798030853271484375" lon="-1.2270665355026721954345703125">
        <ele>814</ele>
        <time>2020-08-21T12:44:00.000Z</time>
      </trkpt>
      <trkpt lat="43.0092834122478961944580078125" lon="-1.227118335664272308349609375">
        <ele>814</ele>
        <time>2020-08-21T12:44:02.000Z</time>
      </trkpt>
      <trkpt lat="43.009331524372100830078125" lon="-1.22728320769965648651123046875">
        <ele>815</ele>
        <time>2020-08-21T12:44:09.000Z</time>
      </trkpt>
      <trkpt lat="43.00933244638144969940185546875" lon="-1.2273052521049976348876953125">
        <ele>815</ele>
        <time>2020-08-21T12:44:10.000Z</time>
      </trkpt>
      <trkpt lat="43.00937569700181484222412109375" lon="-1.22746207751333713531494140625">
        <ele>814.5999755859375</ele>
        <time>2020-08-21T12:44:17.000Z</time>
      </trkpt>
      <trkpt lat="43.00941710360348224639892578125" lon="-1.2275868840515613555908203125">
        <ele>814.5999755859375</ele>
        <time>2020-08-21T12:44:24.000Z</time>
      </trkpt>
      <trkpt lat="43.00944141112267971038818359375" lon="-1.22761965729296207427978515625">
        <ele>815.20001220703125</ele>
        <time>2020-08-21T12:44:30.000Z</time>
      </trkpt>
      <trkpt lat="43.00944325514137744903564453125" lon="-1.22762032784521579742431640625">
        <ele>814.79998779296875</ele>
        <time>2020-08-21T12:44:54.000Z</time>
      </trkpt>
      <trkpt lat="43.009467311203479766845703125" lon="-1.227625943720340728759765625">
        <ele>814.5999755859375</ele>
        <time>2020-08-21T12:45:04.000Z</time>
      </trkpt>
      <trkpt lat="43.00946789793670177459716796875" lon="-1.22762686572968959808349609375">
        <ele>814.5999755859375</ele>
        <time>2020-08-21T12:45:13.000Z</time>
      </trkpt>
      <trkpt lat="43.00946722738444805145263671875" lon="-1.22763524763286113739013671875">
        <ele>815</ele>
        <time>2020-08-21T12:46:14.000Z</time>
      </trkpt>
      <trkpt lat="43.00947141833603382110595703125" lon="-1.2276645004749298095703125">
        <ele>814.79998779296875</ele>
        <time>2020-08-21T12:46:18.000Z</time>
      </trkpt>
      <trkpt lat="43.0095261521637439727783203125" lon="-1.22779802419245243072509765625">
        <ele>815</ele>
        <time>2020-08-21T12:46:25.000Z</time>
      </trkpt>
      <trkpt lat="43.009581975638866424560546875" lon="-1.2280368246138095855712890625">
        <ele>814.79998779296875</ele>
        <time>2020-08-21T12:46:34.000Z</time>
      </trkpt>
      <trkpt lat="43.009638972580432891845703125" lon="-1.228207983076572418212890625">
        <ele>815</ele>
        <time>2020-08-21T12:46:41.000Z</time>
      </trkpt>
      <trkpt lat="43.009733520448207855224609375" lon="-1.22843337245285511016845703125">
        <ele>814.4000244140625</ele>
        <time>2020-08-21T12:46:50.000Z</time>
      </trkpt>
      <trkpt lat="43.00981356762349605560302734375" lon="-1.22863269411027431488037109375">
        <ele>814.4000244140625</ele>
        <time>2020-08-21T12:46:57.000Z</time>
      </trkpt>
      <trkpt lat="43.00990442745387554168701171875" lon="-1.22886990197002887725830078125">
        <ele>814.4000244140625</ele>
        <time>2020-08-21T12:47:05.000Z</time>
      </trkpt>
      <trkpt lat="43.00994214601814746856689453125" lon="-1.22896461747586727142333984375">
        <ele>813.79998779296875</ele>
        <time>2020-08-21T12:47:09.000Z</time>
      </trkpt>
      <trkpt lat="43.00997667945921421051025390625" lon="-1.22902932576835155487060546875">
        <ele>813.4000244140625</ele>
        <time>2020-08-21T12:47:11.000Z</time>
      </trkpt>
      <trkpt lat="43.01006133668124675750732421875" lon="-1.2291556410491466522216796875">
        <ele>812.20001220703125</ele>
        <time>2020-08-21T12:47:14.000Z</time>
      </trkpt>
      <trkpt lat="43.0101172439754009246826171875" lon="-1.2292525358498096466064453125">
        <ele>811</ele>
        <time>2020-08-21T12:47:16.000Z</time>
      </trkpt>
      <trkpt lat="43.01013258285820484161376953125" lon="-1.2293028272688388824462890625">
        <ele>810.4000244140625</ele>
        <time>2020-08-21T12:47:17.000Z</time>
      </trkpt>
      <trkpt lat="43.010136522352695465087890625" lon="-1.22934951446950435638427734375">
        <ele>810</ele>
        <time>2020-08-21T12:47:18.000Z</time>
      </trkpt>
      <trkpt lat="43.0101309902966022491455078125" lon="-1.229461245238780975341796875">
        <ele>809.20001220703125</ele>
        <time>2020-08-21T12:47:21.000Z</time>
      </trkpt>
      <trkpt lat="43.01013643853366374969482421875" lon="-1.22949586249887943267822265625">
        <ele>809</ele>
        <time>2020-08-21T12:47:22.000Z</time>
      </trkpt>
      <trkpt lat="43.01018136553466320037841796875" lon="-1.22957088053226470947265625">
        <ele>808.79998779296875</ele>
        <time>2020-08-21T12:47:25.000Z</time>
      </trkpt>
      <trkpt lat="43.01020148210227489471435546875" lon="-1.22958739288151264190673828125">
        <ele>809</ele>
        <time>2020-08-21T12:47:26.000Z</time>
      </trkpt>
      <trkpt lat="43.01028261892497539520263671875" lon="-1.22967724688351154327392578125">
        <ele>809</ele>
        <time>2020-08-21T12:47:31.000Z</time>
      </trkpt>
      <trkpt lat="43.010393679141998291015625" lon="-1.22972703538835048675537109375">
        <ele>809.4000244140625</ele>
        <time>2020-08-21T12:47:37.000Z</time>
      </trkpt>
      <trkpt lat="43.01047892309725284576416015625" lon="-1.2297457270324230194091796875">
        <ele>810.20001220703125</ele>
        <time>2020-08-21T12:47:41.000Z</time>
      </trkpt>
      <trkpt lat="43.0105467326939105987548828125" lon="-1.22976534068584442138671875">
        <ele>809.79998779296875</ele>
        <time>2020-08-21T12:47:44.000Z</time>
      </trkpt>
      <trkpt lat="43.010649494826793670654296875" lon="-1.22978118248283863067626953125">
        <ele>810.20001220703125</ele>
        <time>2020-08-21T12:47:49.000Z</time>
      </trkpt>
      <trkpt lat="43.0107626505196094512939453125" lon="-1.22981538064777851104736328125">
        <ele>810.4000244140625</ele>
        <time>2020-08-21T12:47:54.000Z</time>
      </trkpt>
      <trkpt lat="43.0108313821256160736083984375" lon="-1.2299247644841670989990234375">
        <ele>810.20001220703125</ele>
        <time>2020-08-21T12:47:59.000Z</time>
      </trkpt>
      <trkpt lat="43.01084470935165882110595703125" lon="-1.2300387583673000335693359375">
        <ele>811.20001220703125</ele>
        <time>2020-08-21T12:48:03.000Z</time>
      </trkpt>
      <trkpt lat="43.01086264662444591522216796875" lon="-1.23013816773891448974609375">
        <ele>812</ele>
        <time>2020-08-21T12:48:07.000Z</time>
      </trkpt>
      <trkpt lat="43.01088158972561359405517578125" lon="-1.23023464344441890716552734375">
        <ele>812.79998779296875</ele>
        <time>2020-08-21T12:48:11.000Z</time>
      </trkpt>
      <trkpt lat="43.0109011195600032806396484375" lon="-1.2302935682237148284912109375">
        <ele>814</ele>
        <time>2020-08-21T12:48:14.000Z</time>
      </trkpt>
      <trkpt lat="43.010930120944976806640625" lon="-1.2304471246898174285888671875">
        <ele>814.5999755859375</ele>
        <time>2020-08-21T12:48:21.000Z</time>
      </trkpt>
      <trkpt lat="43.01094512455165386199951171875" lon="-1.2305272556841373443603515625">
        <ele>815.20001220703125</ele>
        <time>2020-08-21T12:48:24.000Z</time>
      </trkpt>
      <trkpt lat="43.010961972177028656005859375" lon="-1.23058584518730640411376953125">
        <ele>815.4000244140625</ele>
        <time>2020-08-21T12:48:27.000Z</time>
      </trkpt>
      <trkpt lat="43.010964654386043548583984375" lon="-1.23072423040866851806640625">
        <ele>816.20001220703125</ele>
        <time>2020-08-21T12:48:33.000Z</time>
      </trkpt>
      <trkpt lat="43.010976724326610565185546875" lon="-1.230900250375270843505859375">
        <ele>817</ele>
        <time>2020-08-21T12:48:41.000Z</time>
      </trkpt>
      <trkpt lat="43.01098041236400604248046875" lon="-1.2309393100440502166748046875">
        <ele>817.20001220703125</ele>
        <time>2020-08-21T12:48:43.000Z</time>
      </trkpt>
      <trkpt lat="43.01099876873195171356201171875" lon="-1.23105674050748348236083984375">
        <ele>818</ele>
        <time>2020-08-21T12:48:49.000Z</time>
      </trkpt>
      <trkpt lat="43.011014275252819061279296875" lon="-1.23112547211349010467529296875">
        <ele>818.5999755859375</ele>
        <time>2020-08-21T12:48:52.000Z</time>
      </trkpt>
      <trkpt lat="43.011041767895221710205078125" lon="-1.23119889758527278900146484375">
        <ele>819.79998779296875</ele>
        <time>2020-08-21T12:48:55.000Z</time>
      </trkpt>
      <trkpt lat="43.0110714398324489593505859375" lon="-1.23126913793385028839111328125">
        <ele>820.5999755859375</ele>
        <time>2020-08-21T12:48:59.000Z</time>
      </trkpt>
      <trkpt lat="43.01107856445014476776123046875" lon="-1.2313121370971202850341796875">
        <ele>820.79998779296875</ele>
        <time>2020-08-21T12:49:01.000Z</time>
      </trkpt>
      <trkpt lat="43.01108526997268199920654296875" lon="-1.23135630972683429718017578125">
        <ele>821.4000244140625</ele>
        <time>2020-08-21T12:49:03.000Z</time>
      </trkpt>
      <trkpt lat="43.0111220665276050567626953125" lon="-1.2314341776072978973388671875">
        <ele>822.79998779296875</ele>
        <time>2020-08-21T12:49:07.000Z</time>
      </trkpt>
      <trkpt lat="43.01112868823111057281494140625" lon="-1.23145379126071929931640625">
        <ele>823.4000244140625</ele>
        <time>2020-08-21T12:49:08.000Z</time>
      </trkpt>
      <trkpt lat="43.01113656722009181976318359375" lon="-1.23149863444268703460693359375">
        <ele>824</ele>
        <time>2020-08-21T12:49:10.000Z</time>
      </trkpt>
      <trkpt lat="43.0111485533416271209716796875" lon="-1.231619417667388916015625">
        <ele>824.79998779296875</ele>
        <time>2020-08-21T12:49:15.000Z</time>
      </trkpt>
      <trkpt lat="43.01115198992192745208740234375" lon="-1.2316440604627132415771484375">
        <ele>825</ele>
        <time>2020-08-21T12:49:16.000Z</time>
      </trkpt>
      <trkpt lat="43.01117043010890483856201171875" lon="-1.2317650951445102691650390625">
        <ele>825.5999755859375</ele>
        <time>2020-08-21T12:49:21.000Z</time>
      </trkpt>
      <trkpt lat="43.01116724498569965362548828125" lon="-1.231839358806610107421875">
        <ele>826.4000244140625</ele>
        <time>2020-08-21T12:49:24.000Z</time>
      </trkpt>
      <trkpt lat="43.011169172823429107666015625" lon="-1.23190616257488727569580078125">
        <ele>827</ele>
        <time>2020-08-21T12:49:27.000Z</time>
      </trkpt>
      <trkpt lat="43.0111753754317760467529296875" lon="-1.2319508381187915802001953125">
        <ele>827.4000244140625</ele>
        <time>2020-08-21T12:49:29.000Z</time>
      </trkpt>
      <trkpt lat="43.01117780618369579315185546875" lon="-1.232016049325466156005859375">
        <ele>828.4000244140625</ele>
        <time>2020-08-21T12:49:32.000Z</time>
      </trkpt>
      <trkpt lat="43.011179231107234954833984375" lon="-1.23203591443598270416259765625">
        <ele>828.5999755859375</ele>
        <time>2020-08-21T12:49:33.000Z</time>
      </trkpt>
      <trkpt lat="43.011188618838787078857421875" lon="-1.23216466046869754791259765625">
        <ele>829.5999755859375</ele>
        <time>2020-08-21T12:49:40.000Z</time>
      </trkpt>
      <trkpt lat="43.01119272597134113311767578125" lon="-1.2322773970663547515869140625">
        <ele>830.79998779296875</ele>
        <time>2020-08-21T12:49:46.000Z</time>
      </trkpt>
      <trkpt lat="43.01118786446750164031982421875" lon="-1.2323172949254512786865234375">
        <ele>831.20001220703125</ele>
        <time>2020-08-21T12:49:48.000Z</time>
      </trkpt>
      <trkpt lat="43.01118266768753528594970703125" lon="-1.23237974010407924652099609375">
        <ele>832</ele>
        <time>2020-08-21T12:49:51.000Z</time>
      </trkpt>
      <trkpt lat="43.0111834220588207244873046875" lon="-1.23245903290808200836181640625">
        <ele>833</ele>
        <time>2020-08-21T12:49:55.000Z</time>
      </trkpt>
      <trkpt lat="43.01118300296366214752197265625" lon="-1.232478730380535125732421875">
        <ele>833</ele>
        <time>2020-08-21T12:49:56.000Z</time>
      </trkpt>
      <trkpt lat="43.01116204820573329925537109375" lon="-1.23259683139622211456298828125">
        <ele>834.20001220703125</ele>
        <time>2020-08-21T12:50:02.000Z</time>
      </trkpt>
      <trkpt lat="43.01113941706717014312744140625" lon="-1.23276312835514545440673828125">
        <ele>835.4000244140625</ele>
        <time>2020-08-21T12:50:10.000Z</time>
      </trkpt>
      <trkpt lat="43.01112466491758823394775390625" lon="-1.23296462930738925933837890625">
        <ele>836.20001220703125</ele>
        <time>2020-08-21T12:50:19.000Z</time>
      </trkpt>
      <trkpt lat="43.01112449727952480316162109375" lon="-1.232989020645618438720703125">
        <ele>836.4000244140625</ele>
        <time>2020-08-21T12:50:20.000Z</time>
      </trkpt>
      <trkpt lat="43.01111795939505100250244140625" lon="-1.23307242058217525482177734375">
        <ele>837.5999755859375</ele>
        <time>2020-08-21T12:50:24.000Z</time>
      </trkpt>
      <trkpt lat="43.011117875576019287109375" lon="-1.23309236951172351837158203125">
        <ele>837.79998779296875</ele>
        <time>2020-08-21T12:50:25.000Z</time>
      </trkpt>
      <trkpt lat="43.0111210606992244720458984375" lon="-1.23314894735813140869140625">
        <ele>838.20001220703125</ele>
        <time>2020-08-21T12:50:28.000Z</time>
      </trkpt>
      <trkpt lat="43.0111217312514781951904296875" lon="-1.23319831676781177520751953125">
        <ele>838.5999755859375</ele>
        <time>2020-08-21T12:50:30.000Z</time>
      </trkpt>
      <trkpt lat="43.011124245822429656982421875" lon="-1.23322136700153350830078125">
        <ele>838.79998779296875</ele>
        <time>2020-08-21T12:50:31.000Z</time>
      </trkpt>
      <trkpt lat="43.01112466491758823394775390625" lon="-1.2333754263818264007568359375">
        <ele>839.4000244140625</ele>
        <time>2020-08-21T12:50:38.000Z</time>
      </trkpt>
      <trkpt lat="43.0111297778785228729248046875" lon="-1.23347894288599491119384765625">
        <ele>840</ele>
        <time>2020-08-21T12:50:42.000Z</time>
      </trkpt>
      <trkpt lat="43.01113061606884002685546875" lon="-1.23350392095744609832763671875">
        <ele>840.20001220703125</ele>
        <time>2020-08-21T12:50:43.000Z</time>
      </trkpt>
      <trkpt lat="43.011144697666168212890625" lon="-1.23360215686261653900146484375">
        <ele>841</ele>
        <time>2020-08-21T12:50:47.000Z</time>
      </trkpt>
      <trkpt lat="43.0111455358564853668212890625" lon="-1.23368262313306331634521484375">
        <ele>841.20001220703125</ele>
        <time>2020-08-21T12:50:50.000Z</time>
      </trkpt>
      <trkpt lat="43.011127598583698272705078125" lon="-1.2338709644973278045654296875">
        <ele>842</ele>
        <time>2020-08-21T12:50:57.000Z</time>
      </trkpt>
      <trkpt lat="43.0111136846244335174560546875" lon="-1.23401169665157794952392578125">
        <ele>842.20001220703125</ele>
        <time>2020-08-21T12:51:02.000Z</time>
      </trkpt>
      <trkpt lat="43.01110111176967620849609375" lon="-1.23413289897143840789794921875">
        <ele>842.20001220703125</ele>
        <time>2020-08-21T12:51:07.000Z</time>
      </trkpt>
      <trkpt lat="43.01109834574162960052490234375" lon="-1.23421856202185153961181640625">
        <ele>842.79998779296875</ele>
        <time>2020-08-21T12:51:10.000Z</time>
      </trkpt>
      <trkpt lat="43.01109381951391696929931640625" lon="-1.2343034707009792327880859375">
        <ele>843</ele>
        <time>2020-08-21T12:51:13.000Z</time>
      </trkpt>
      <trkpt lat="43.011096082627773284912109375" lon="-1.23444286175072193145751953125">
        <ele>843.4000244140625</ele>
        <time>2020-08-21T12:51:18.000Z</time>
      </trkpt>
      <trkpt lat="43.0110928975045680999755859375" lon="-1.2345864437520503997802734375">
        <ele>843.79998779296875</ele>
        <time>2020-08-21T12:51:23.000Z</time>
      </trkpt>
      <trkpt lat="43.011086694896221160888671875" lon="-1.23464603908360004425048828125">
        <ele>843.79998779296875</ele>
        <time>2020-08-21T12:51:25.000Z</time>
      </trkpt>
      <trkpt lat="43.0110682547092437744140625" lon="-1.23481820337474346160888671875">
        <ele>844.20001220703125</ele>
        <time>2020-08-21T12:51:31.000Z</time>
      </trkpt>
      <trkpt lat="43.01106364466249942779541015625" lon="-1.23491493053734302520751953125">
        <ele>844.79998779296875</ele>
        <time>2020-08-21T12:51:34.000Z</time>
      </trkpt>
      <trkpt lat="43.01106045953929424285888671875" lon="-1.23500235378742218017578125">
        <ele>845</ele>
        <time>2020-08-21T12:51:37.000Z</time>
      </trkpt>
      <trkpt lat="43.01104738377034664154052734375" lon="-1.23519136570394039154052734375">
        <ele>845.4000244140625</ele>
        <time>2020-08-21T12:51:43.000Z</time>
      </trkpt>
      <trkpt lat="43.0110416002571582794189453125" lon="-1.2352471053600311279296875">
        <ele>845.79998779296875</ele>
        <time>2020-08-21T12:51:45.000Z</time>
      </trkpt>
      <trkpt lat="43.0110333859920501708984375" lon="-1.23541214503347873687744140625">
        <ele>846.5999755859375</ele>
        <time>2020-08-21T12:51:50.000Z</time>
      </trkpt>
      <trkpt lat="43.011026345193386077880859375" lon="-1.2354843132197856903076171875">
        <ele>846.79998779296875</ele>
        <time>2020-08-21T12:51:52.000Z</time>
      </trkpt>
      <trkpt lat="43.011023998260498046875" lon="-1.23551909811794757843017578125">
        <ele>846.79998779296875</ele>
        <time>2020-08-21T12:51:53.000Z</time>
      </trkpt>
      <trkpt lat="43.01101888529956340789794921875" lon="-1.235553212463855743408203125">
        <ele>847</ele>
        <time>2020-08-21T12:51:54.000Z</time>
      </trkpt>
      <trkpt lat="43.0110070668160915374755859375" lon="-1.2356506101787090301513671875">
        <ele>847.79998779296875</ele>
        <time>2020-08-21T12:51:57.000Z</time>
      </trkpt>
      <trkpt lat="43.01098686642944812774658203125" lon="-1.23575429432094097137451171875">
        <ele>848</ele>
        <time>2020-08-21T12:52:00.000Z</time>
      </trkpt>
      <trkpt lat="43.0109621398150920867919921875" lon="-1.23591958545148372650146484375">
        <ele>848.5999755859375</ele>
        <time>2020-08-21T12:52:05.000Z</time>
      </trkpt>
      <trkpt lat="43.0109490640461444854736328125" lon="-1.2360187433660030364990234375">
        <ele>849.20001220703125</ele>
        <time>2020-08-21T12:52:08.000Z</time>
      </trkpt>
      <trkpt lat="43.0109229125082492828369140625" lon="-1.23622368089854717254638671875">
        <ele>849.4000244140625</ele>
        <time>2020-08-21T12:52:14.000Z</time>
      </trkpt>
      <trkpt lat="43.01092567853629589080810546875" lon="-1.236261315643787384033203125">
        <ele>849.79998779296875</ele>
        <time>2020-08-21T12:52:15.000Z</time>
      </trkpt>
      <trkpt lat="43.01092551089823246002197265625" lon="-1.23643054626882076263427734375">
        <ele>850.79998779296875</ele>
        <time>2020-08-21T12:52:19.000Z</time>
      </trkpt>
      <trkpt lat="43.01092433743178844451904296875" lon="-1.236471869051456451416015625">
        <ele>851</ele>
        <time>2020-08-21T12:52:20.000Z</time>
      </trkpt>
      <trkpt lat="43.0109502375125885009765625" lon="-1.2367033772170543670654296875">
        <ele>851.5999755859375</ele>
        <time>2020-08-21T12:52:26.000Z</time>
      </trkpt>
      <trkpt lat="43.010963983833789825439453125" lon="-1.23675727285444736480712890625">
        <ele>851.79998779296875</ele>
        <time>2020-08-21T12:52:28.000Z</time>
      </trkpt>
      <trkpt lat="43.01098099909722805023193359375" lon="-1.23676263727247714996337890625">
        <ele>852</ele>
        <time>2020-08-21T12:52:32.000Z</time>
      </trkpt>
      <trkpt lat="43.01098200492560863494873046875" lon="-1.23676121234893798828125">
        <ele>852.4000244140625</ele>
        <time>2020-08-21T12:52:41.000Z</time>
      </trkpt>
      <trkpt lat="43.01098016090691089630126953125" lon="-1.23676062561571598052978515625">
        <ele>851.79998779296875</ele>
        <time>2020-08-21T12:53:41.000Z</time>
      </trkpt>
      <trkpt lat="43.01098250783979892730712890625" lon="-1.2368264235556125640869140625">
        <ele>851.79998779296875</ele>
        <time>2020-08-21T12:53:46.000Z</time>
      </trkpt>
      <trkpt lat="43.011037409305572509765625" lon="-1.23701342381536960601806640625">
        <ele>851.4000244140625</ele>
        <time>2020-08-21T12:53:50.000Z</time>
      </trkpt>
      <trkpt lat="43.01111745648086071014404296875" lon="-1.23721023090183734893798828125">
        <ele>850.4000244140625</ele>
        <time>2020-08-21T12:53:53.000Z</time>
      </trkpt>
      <trkpt lat="43.0111294426023960113525390625" lon="-1.2372921220958232879638671875">
        <ele>850</ele>
        <time>2020-08-21T12:53:54.000Z</time>
      </trkpt>
      <trkpt lat="43.0111317895352840423583984375" lon="-1.2377174198627471923828125">
        <ele>849</ele>
        <time>2020-08-21T12:53:59.000Z</time>
      </trkpt>
      <trkpt lat="43.01113170571625232696533203125" lon="-1.23779897578060626983642578125">
        <ele>849</ele>
        <time>2020-08-21T12:54:00.000Z</time>
      </trkpt>
      <trkpt lat="43.01111913286149501800537109375" lon="-1.23801589943468570709228515625">
        <ele>848.4000244140625</ele>
        <time>2020-08-21T12:54:03.000Z</time>
      </trkpt>
      <trkpt lat="43.01108929328620433807373046875" lon="-1.23830507509410381317138671875">
        <ele>847.79998779296875</ele>
        <time>2020-08-21T12:54:07.000Z</time>
      </trkpt>
      <trkpt lat="43.011094070971012115478515625" lon="-1.23864286579191684722900390625">
        <ele>845.79998779296875</ele>
        <time>2020-08-21T12:54:11.000Z</time>
      </trkpt>
      <trkpt lat="43.011074624955654144287109375" lon="-1.2388439476490020751953125">
        <ele>844.4000244140625</ele>
        <time>2020-08-21T12:54:13.000Z</time>
      </trkpt>
      <trkpt lat="43.01104570738971233367919921875" lon="-1.238938160240650177001953125">
        <ele>843.79998779296875</ele>
        <time>2020-08-21T12:54:14.000Z</time>
      </trkpt>
      <trkpt lat="43.01101720891892910003662109375" lon="-1.23902709223330020904541015625">
        <ele>842.5999755859375</ele>
        <time>2020-08-21T12:54:15.000Z</time>
      </trkpt>
      <trkpt lat="43.0109877884387969970703125" lon="-1.23911677859723567962646484375">
        <ele>841.4000244140625</ele>
        <time>2020-08-21T12:54:16.000Z</time>
      </trkpt>
      <trkpt lat="43.01091696135699748992919921875" lon="-1.23927687294781208038330078125">
        <ele>840</ele>
        <time>2020-08-21T12:54:18.000Z</time>
      </trkpt>
      <trkpt lat="43.01084227859973907470703125" lon="-1.23941534198820590972900390625">
        <ele>839.4000244140625</ele>
        <time>2020-08-21T12:54:20.000Z</time>
      </trkpt>
      <trkpt lat="43.01080279983580112457275390625" lon="-1.23947418294847011566162109375">
        <ele>840</ele>
        <time>2020-08-21T12:54:21.000Z</time>
      </trkpt>
      <trkpt lat="43.010713197290897369384765625" lon="-1.23956143856048583984375">
        <ele>841</ele>
        <time>2020-08-21T12:54:23.000Z</time>
      </trkpt>
      <trkpt lat="43.01066215150058269500732421875" lon="-1.239591948688030242919921875">
        <ele>841.79998779296875</ele>
        <time>2020-08-21T12:54:24.000Z</time>
      </trkpt>
      <trkpt lat="43.01060884259641170501708984375" lon="-1.23961784876883029937744140625">
        <ele>842.20001220703125</ele>
        <time>2020-08-21T12:54:25.000Z</time>
      </trkpt>
      <trkpt lat="43.01055394113063812255859375" lon="-1.23963846825063228607177734375">
        <ele>841.20001220703125</ele>
        <time>2020-08-21T12:54:26.000Z</time>
      </trkpt>
      <trkpt lat="43.010493926703929901123046875" lon="-1.23965204693377017974853515625">
        <ele>840.5999755859375</ele>
        <time>2020-08-21T12:54:27.000Z</time>
      </trkpt>
      <trkpt lat="43.01036886870861053466796875" lon="-1.23966311104595661163330078125">
        <ele>838.4000244140625</ele>
        <time>2020-08-21T12:54:29.000Z</time>
      </trkpt>
      <trkpt lat="43.01025621592998504638671875" lon="-1.2396444194018840789794921875">
        <ele>837.4000244140625</ele>
        <time>2020-08-21T12:54:31.000Z</time>
      </trkpt>
      <trkpt lat="43.0101977102458477020263671875" lon="-1.23962941579520702362060546875">
        <ele>837.4000244140625</ele>
        <time>2020-08-21T12:54:32.000Z</time>
      </trkpt>
      <trkpt lat="43.0100838840007781982421875" lon="-1.23961734585464000701904296875">
        <ele>837.20001220703125</ele>
        <time>2020-08-21T12:54:34.000Z</time>
      </trkpt>
      <trkpt lat="43.0099056847393512725830078125" lon="-1.2397255562245845794677734375">
        <ele>837.20001220703125</ele>
        <time>2020-08-21T12:54:38.000Z</time>
      </trkpt>
      <trkpt lat="43.0097896791994571685791015625" lon="-1.2399785220623016357421875">
        <ele>837.4000244140625</ele>
        <time>2020-08-21T12:54:43.000Z</time>
      </trkpt>
      <trkpt lat="43.00976746715605258941650390625" lon="-1.24015512876212596893310546875">
        <ele>837.20001220703125</ele>
        <time>2020-08-21T12:54:47.000Z</time>
      </trkpt>
      <trkpt lat="43.00977132283151149749755859375" lon="-1.24019100330770015716552734375">
        <ele>837.20001220703125</ele>
        <time>2020-08-21T12:54:48.000Z</time>
      </trkpt>
      <trkpt lat="43.009786494076251983642578125" lon="-1.24034288339316844940185546875">
        <ele>837.5999755859375</ele>
        <time>2020-08-21T12:54:53.000Z</time>
      </trkpt>
      <trkpt lat="43.00982345826923847198486328125" lon="-1.2404425442218780517578125">
        <ele>838.20001220703125</ele>
        <time>2020-08-21T12:54:57.000Z</time>
      </trkpt>
      <trkpt lat="43.0098476819694042205810546875" lon="-1.2405283749103546142578125">
        <ele>839</ele>
        <time>2020-08-21T12:55:00.000Z</time>
      </trkpt>
      <trkpt lat="43.00986788235604763031005859375" lon="-1.24058210290968418121337890625">
        <ele>839.20001220703125</ele>
        <time>2020-08-21T12:55:02.000Z</time>
      </trkpt>
      <trkpt lat="43.00992496311664581298828125" lon="-1.2406948395073413848876953125">
        <ele>839.4000244140625</ele>
        <time>2020-08-21T12:55:06.000Z</time>
      </trkpt>
      <trkpt lat="43.0100169964134693145751953125" lon="-1.2408131919801235198974609375">
        <ele>839.5999755859375</ele>
        <time>2020-08-21T12:55:09.000Z</time>
      </trkpt>
      <trkpt lat="43.01007055677473545074462890625" lon="-1.240882761776447296142578125">
        <ele>840.4000244140625</ele>
        <time>2020-08-21T12:55:12.000Z</time>
      </trkpt>
      <trkpt lat="43.010084889829158782958984375" lon="-1.240903548896312713623046875">
        <ele>840.5999755859375</ele>
        <time>2020-08-21T12:55:13.000Z</time>
      </trkpt>
      <trkpt lat="43.01021472550928592681884765625" lon="-1.24106305651366710662841796875">
        <ele>841.20001220703125</ele>
        <time>2020-08-21T12:55:20.000Z</time>
      </trkpt>
      <trkpt lat="43.01032938994467258453369140625" lon="-1.24117084778845310211181640625">
        <ele>841.4000244140625</ele>
        <time>2020-08-21T12:55:25.000Z</time>
      </trkpt>
      <trkpt lat="43.010402731597423553466796875" lon="-1.24124108813703060150146484375">
        <ele>841.5999755859375</ele>
        <time>2020-08-21T12:55:28.000Z</time>
      </trkpt>
      <trkpt lat="43.010551594197750091552734375" lon="-1.24141979031264781951904296875">
        <ele>842</ele>
        <time>2020-08-21T12:55:35.000Z</time>
      </trkpt>
      <trkpt lat="43.01063834689557552337646484375" lon="-1.2415927089750766754150390625">
        <ele>842.4000244140625</ele>
        <time>2020-08-21T12:55:40.000Z</time>
      </trkpt>
      <trkpt lat="43.01065293140709400177001953125" lon="-1.24162766151130199432373046875">
        <ele>842.4000244140625</ele>
        <time>2020-08-21T12:55:41.000Z</time>
      </trkpt>
      <trkpt lat="43.01068075932562351226806640625" lon="-1.24182396568357944488525390625">
        <ele>842.4000244140625</ele>
        <time>2020-08-21T12:55:46.000Z</time>
      </trkpt>
      <trkpt lat="43.01064052619040012359619140625" lon="-1.24203686602413654327392578125">
        <ele>842.5999755859375</ele>
        <time>2020-08-21T12:55:51.000Z</time>
      </trkpt>
      <trkpt lat="43.01058671437203884124755859375" lon="-1.24229301698505878448486328125">
        <ele>842.20001220703125</ele>
        <time>2020-08-21T12:55:57.000Z</time>
      </trkpt>
      <trkpt lat="43.010554276406764984130859375" lon="-1.24252988956868648529052734375">
        <ele>842.20001220703125</ele>
        <time>2020-08-21T12:56:03.000Z</time>
      </trkpt>
      <trkpt lat="43.0105500854551792144775390625" lon="-1.2427490763366222381591796875">
        <ele>841.5999755859375</ele>
        <time>2020-08-21T12:56:09.000Z</time>
      </trkpt>
      <trkpt lat="43.01056475378572940826416015625" lon="-1.2429596297442913055419921875">
        <ele>842.20001220703125</ele>
        <time>2020-08-21T12:56:15.000Z</time>
      </trkpt>
      <trkpt lat="43.01058336161077022552490234375" lon="-1.2431282736361026763916015625">
        <ele>843.4000244140625</ele>
        <time>2020-08-21T12:56:20.000Z</time>
      </trkpt>
      <trkpt lat="43.01059660501778125762939453125" lon="-1.24322466552257537841796875">
        <ele>844.20001220703125</ele>
        <time>2020-08-21T12:56:23.000Z</time>
      </trkpt>
      <trkpt lat="43.010602891445159912109375" lon="-1.243288032710552215576171875">
        <ele>844.79998779296875</ele>
        <time>2020-08-21T12:56:25.000Z</time>
      </trkpt>
      <trkpt lat="43.0106080882251262664794921875" lon="-1.24337545596063137054443359375">
        <ele>846</ele>
        <time>2020-08-21T12:56:28.000Z</time>
      </trkpt>
      <trkpt lat="43.01061236299574375152587890625" lon="-1.2434665672481060028076171875">
        <ele>846.4000244140625</ele>
        <time>2020-08-21T12:56:31.000Z</time>
      </trkpt>
      <trkpt lat="43.0106013827025890350341796875" lon="-1.2436531484127044677734375">
        <ele>847.20001220703125</ele>
        <time>2020-08-21T12:56:37.000Z</time>
      </trkpt>
      <trkpt lat="43.01060347817838191986083984375" lon="-1.24368608929216861724853515625">
        <ele>847.4000244140625</ele>
        <time>2020-08-21T12:56:38.000Z</time>
      </trkpt>
      <trkpt lat="43.01061705686151981353759765625" lon="-1.24383495189249515533447265625">
        <ele>848.4000244140625</ele>
        <time>2020-08-21T12:56:43.000Z</time>
      </trkpt>
      <trkpt lat="43.01062007434666156768798828125" lon="-1.24386814422905445098876953125">
        <ele>848.4000244140625</ele>
        <time>2020-08-21T12:56:44.000Z</time>
      </trkpt>
      <trkpt lat="43.0106174759566783905029296875" lon="-1.24403201043605804443359375">
        <ele>849.4000244140625</ele>
        <time>2020-08-21T12:56:50.000Z</time>
      </trkpt>
      <trkpt lat="43.01062577404081821441650390625" lon="-1.24415832571685314178466796875">
        <ele>850.4000244140625</ele>
        <time>2020-08-21T12:56:55.000Z</time>
      </trkpt>
      <trkpt lat="43.0106270313262939453125" lon="-1.24418464489281177520751953125">
        <ele>850.5999755859375</ele>
        <time>2020-08-21T12:56:56.000Z</time>
      </trkpt>
      <trkpt lat="43.01066550426185131072998046875" lon="-1.24428673647344112396240234375">
        <ele>850.79998779296875</ele>
        <time>2020-08-21T12:57:00.000Z</time>
      </trkpt>
      <trkpt lat="43.01072736270725727081298828125" lon="-1.24439134262502193450927734375">
        <ele>851.5999755859375</ele>
        <time>2020-08-21T12:57:04.000Z</time>
      </trkpt>
      <trkpt lat="43.0107928253710269927978515625" lon="-1.24447130598127841949462890625">
        <ele>851.79998779296875</ele>
        <time>2020-08-21T12:57:07.000Z</time>
      </trkpt>
      <trkpt lat="43.01086465828120708465576171875" lon="-1.24453836120665073394775390625">
        <ele>852.20001220703125</ele>
        <time>2020-08-21T12:57:10.000Z</time>
      </trkpt>
      <trkpt lat="43.01093347370624542236328125" lon="-1.24459368176758289337158203125">
        <ele>852.4000244140625</ele>
        <time>2020-08-21T12:57:13.000Z</time>
      </trkpt>
      <trkpt lat="43.01106347702443599700927734375" lon="-1.244704909622669219970703125">
        <ele>852.5999755859375</ele>
        <time>2020-08-21T12:57:19.000Z</time>
      </trkpt>
      <trkpt lat="43.01110303960740566253662109375" lon="-1.24474254436790943145751953125">
        <ele>852.5999755859375</ele>
        <time>2020-08-21T12:57:21.000Z</time>
      </trkpt>
      <trkpt lat="43.01111854612827301025390625" lon="-1.24477070756256580352783203125">
        <ele>852.79998779296875</ele>
        <time>2020-08-21T12:57:22.000Z</time>
      </trkpt>
      <trkpt lat="43.011161126196384429931640625" lon="-1.2448386847972869873046875">
        <ele>853</ele>
        <time>2020-08-21T12:57:24.000Z</time>
      </trkpt>
      <trkpt lat="43.01124192774295806884765625" lon="-1.24509978108108043670654296875">
        <ele>853.5999755859375</ele>
        <time>2020-08-21T12:57:31.000Z</time>
      </trkpt>
      <trkpt lat="43.0112897045910358428955078125" lon="-1.24534419737756252288818359375">
        <ele>853.4000244140625</ele>
        <time>2020-08-21T12:57:37.000Z</time>
      </trkpt>
      <trkpt lat="43.01136656664311885833740234375" lon="-1.24559766612946987152099609375">
        <ele>854</ele>
        <time>2020-08-21T12:57:43.000Z</time>
      </trkpt>
      <trkpt lat="43.01138349808752536773681640625" lon="-1.245637647807598114013671875">
        <ele>854.20001220703125</ele>
        <time>2020-08-21T12:57:44.000Z</time>
      </trkpt>
      <trkpt lat="43.01150880753993988037109375" lon="-1.24592171050608158111572265625">
        <ele>853.5999755859375</ele>
        <time>2020-08-21T12:57:52.000Z</time>
      </trkpt>
      <trkpt lat="43.0116953887045383453369140625" lon="-1.24618104659020900726318359375">
        <ele>853.4000244140625</ele>
        <time>2020-08-21T12:57:59.000Z</time>
      </trkpt>
      <trkpt lat="43.0117597617208957672119140625" lon="-1.2462560646235942840576171875">
        <ele>852.79998779296875</ele>
        <time>2020-08-21T12:58:01.000Z</time>
      </trkpt>
      <trkpt lat="43.0118724144995212554931640625" lon="-1.246335022151470184326171875">
        <ele>852.5999755859375</ele>
        <time>2020-08-21T12:58:04.000Z</time>
      </trkpt>
      <trkpt lat="43.0119884200394153594970703125" lon="-1.24650768935680389404296875">
        <ele>853.20001220703125</ele>
        <time>2020-08-21T12:58:08.000Z</time>
      </trkpt>
      <trkpt lat="43.0119854025542736053466796875" lon="-1.24659980647265911102294921875">
        <ele>853.4000244140625</ele>
        <time>2020-08-21T12:58:11.000Z</time>
      </trkpt>
      <trkpt lat="43.01197458989918231964111328125" lon="-1.2466225214302539825439453125">
        <ele>853.5999755859375</ele>
        <time>2020-08-21T12:58:12.000Z</time>
      </trkpt>
      <trkpt lat="43.0119535513222217559814453125" lon="-1.24666728079319000244140625">
        <ele>854.20001220703125</ele>
        <time>2020-08-21T12:58:14.000Z</time>
      </trkpt>
      <trkpt lat="43.01191725768148899078369140625" lon="-1.24674431048333644866943359375">
        <ele>855.20001220703125</ele>
        <time>2020-08-21T12:58:18.000Z</time>
      </trkpt>
      <trkpt lat="43.01191373728215694427490234375" lon="-1.24676392413675785064697265625">
        <ele>855.4000244140625</ele>
        <time>2020-08-21T12:58:19.000Z</time>
      </trkpt>
      <trkpt lat="43.01189160905778408050537109375" lon="-1.24683600850403308868408203125">
        <ele>855.5999755859375</ele>
        <time>2020-08-21T12:58:23.000Z</time>
      </trkpt>
      <trkpt lat="43.0118898488581180572509765625" lon="-1.24687858857214450836181640625">
        <ele>855.79998779296875</ele>
        <time>2020-08-21T12:58:25.000Z</time>
      </trkpt>
      <trkpt lat="43.01188959740102291107177734375" lon="-1.24690624885261058807373046875">
        <ele>856.20001220703125</ele>
        <time>2020-08-21T12:58:26.000Z</time>
      </trkpt>
      <trkpt lat="43.01189295016229152679443359375" lon="-1.24702158384025096893310546875">
        <ele>857</ele>
        <time>2020-08-21T12:58:30.000Z</time>
      </trkpt>
      <trkpt lat="43.0118918605148792266845703125" lon="-1.24707120470702648162841796875">
        <ele>857.4000244140625</ele>
        <time>2020-08-21T12:58:32.000Z</time>
      </trkpt>
      <trkpt lat="43.011879958212375640869140625" lon="-1.24717161990702152252197265625">
        <ele>857.79998779296875</ele>
        <time>2020-08-21T12:58:36.000Z</time>
      </trkpt>
      <trkpt lat="43.01187518052756786346435546875" lon="-1.24722140841186046600341796875">
        <ele>858.79998779296875</ele>
        <time>2020-08-21T12:58:38.000Z</time>
      </trkpt>
      <trkpt lat="43.01187149249017238616943359375" lon="-1.24728863127529621124267578125">
        <ele>859.79998779296875</ele>
        <time>2020-08-21T12:58:41.000Z</time>
      </trkpt>
      <trkpt lat="43.011873252689838409423828125" lon="-1.24730832874774932861328125">
        <ele>860</ele>
        <time>2020-08-21T12:58:42.000Z</time>
      </trkpt>
      <trkpt lat="43.01186956465244293212890625" lon="-1.2474189698696136474609375">
        <ele>860.20001220703125</ele>
        <time>2020-08-21T12:58:47.000Z</time>
      </trkpt>
      <trkpt lat="43.01186126656830310821533203125" lon="-1.2475156970322132110595703125">
        <ele>860.5999755859375</ele>
        <time>2020-08-21T12:58:51.000Z</time>
      </trkpt>
      <trkpt lat="43.0118583329021930694580078125" lon="-1.247538663446903228759765625">
        <ele>860.79998779296875</ele>
        <time>2020-08-21T12:58:52.000Z</time>
      </trkpt>
      <trkpt lat="43.01185791380703449249267578125" lon="-1.247561462223529815673828125">
        <ele>860.79998779296875</ele>
        <time>2020-08-21T12:58:53.000Z</time>
      </trkpt>
      <trkpt lat="43.01185078918933868408203125" lon="-1.2476095743477344512939453125">
        <ele>861.20001220703125</ele>
        <time>2020-08-21T12:58:55.000Z</time>
      </trkpt>
      <trkpt lat="43.011836707592010498046875" lon="-1.247656345367431640625">
        <ele>861</ele>
        <time>2020-08-21T12:58:57.000Z</time>
      </trkpt>
      <trkpt lat="43.01182203926146030426025390625" lon="-1.24779137782752513885498046875">
        <ele>861.4000244140625</ele>
        <time>2020-08-21T12:59:02.000Z</time>
      </trkpt>
      <trkpt lat="43.01181298680603504180908203125" lon="-1.247921548783779144287109375">
        <ele>861.5999755859375</ele>
        <time>2020-08-21T12:59:06.000Z</time>
      </trkpt>
      <trkpt lat="43.01181164570152759552001953125" lon="-1.2479545734822750091552734375">
        <ele>861.79998779296875</ele>
        <time>2020-08-21T12:59:07.000Z</time>
      </trkpt>
      <trkpt lat="43.01179588772356510162353515625" lon="-1.248033531010150909423828125">
        <ele>862.20001220703125</ele>
        <time>2020-08-21T12:59:10.000Z</time>
      </trkpt>
      <trkpt lat="43.01178700290620326995849609375" lon="-1.24808214604854583740234375">
        <ele>862.4000244140625</ele>
        <time>2020-08-21T12:59:12.000Z</time>
      </trkpt>
      <trkpt lat="43.01178046502172946929931640625" lon="-1.24816261231899261474609375">
        <ele>862.5999755859375</ele>
        <time>2020-08-21T12:59:16.000Z</time>
      </trkpt>
      <trkpt lat="43.01178381778299808502197265625" lon="-1.2481822259724140167236328125">
        <ele>862.5999755859375</ele>
        <time>2020-08-21T12:59:17.000Z</time>
      </trkpt>
      <trkpt lat="43.0117808841168880462646484375" lon="-1.24819287098944187164306640625">
        <ele>862.5999755859375</ele>
        <time>2020-08-21T12:59:18.000Z</time>
      </trkpt>
      <trkpt lat="43.01179069094359874725341796875" lon="-1.24827870167791843414306640625">
        <ele>862.20001220703125</ele>
        <time>2020-08-21T13:01:57.000Z</time>
      </trkpt>
      <trkpt lat="43.01179178059101104736328125" lon="-1.248278282582759857177734375">
        <ele>862.20001220703125</ele>
        <time>2020-08-21T13:01:58.000Z</time>
      </trkpt>
      <trkpt lat="43.01178775727748870849609375" lon="-1.24828373081982135772705078125">
        <ele>862.20001220703125</ele>
        <time>2020-08-21T13:02:00.000Z</time>
      </trkpt>
      <trkpt lat="43.01178482361137866973876953125" lon="-1.24828741885721683502197265625">
        <ele>862.20001220703125</ele>
        <time>2020-08-21T13:02:01.000Z</time>
      </trkpt>
      <trkpt lat="43.01178038120269775390625" lon="-1.2483344413340091705322265625">
        <ele>862.20001220703125</ele>
        <time>2020-08-21T13:02:04.000Z</time>
      </trkpt>
      <trkpt lat="43.0117842368781566619873046875" lon="-1.24834340997040271759033203125">
        <ele>862.5999755859375</ele>
        <time>2020-08-21T13:02:11.000Z</time>
      </trkpt>
      <trkpt lat="43.0117875896394252777099609375" lon="-1.2483485229313373565673828125">
        <ele>862.5999755859375</ele>
        <time>2020-08-21T13:02:22.000Z</time>
      </trkpt>
      <trkpt lat="43.0117835663259029388427734375" lon="-1.2483631074428558349609375">
        <ele>862.20001220703125</ele>
        <time>2020-08-21T13:02:36.000Z</time>
      </trkpt>
      <trkpt lat="43.01177971065044403076171875" lon="-1.24838079325854778289794921875">
        <ele>862.20001220703125</ele>
        <time>2020-08-21T13:02:37.000Z</time>
      </trkpt>
      <trkpt lat="43.01177702844142913818359375" lon="-1.24848405830562114715576171875">
        <ele>862</ele>
        <time>2020-08-21T13:02:41.000Z</time>
      </trkpt>
      <trkpt lat="43.01177677698433399200439453125" lon="-1.24854742549359798431396484375">
        <ele>862.20001220703125</ele>
        <time>2020-08-21T13:02:43.000Z</time>
      </trkpt>
      <trkpt lat="43.0117751844227313995361328125" lon="-1.248606853187084197998046875">
        <ele>862.4000244140625</ele>
        <time>2020-08-21T13:02:45.000Z</time>
      </trkpt>
      <trkpt lat="43.01176554523408412933349609375" lon="-1.248683631420135498046875">
        <ele>862.20001220703125</ele>
        <time>2020-08-21T13:02:47.000Z</time>
      </trkpt>
      <trkpt lat="43.0117201991379261016845703125" lon="-1.24898009933531284332275390625">
        <ele>861.79998779296875</ele>
        <time>2020-08-21T13:02:52.000Z</time>
      </trkpt>
      <trkpt lat="43.01169161684811115264892578125" lon="-1.24918243847787380218505859375">
        <ele>861.20001220703125</ele>
        <time>2020-08-21T13:02:55.000Z</time>
      </trkpt>
      <trkpt lat="43.011639900505542755126953125" lon="-1.249279417097568511962890625">
        <ele>861</ele>
        <time>2020-08-21T13:02:57.000Z</time>
      </trkpt>
      <trkpt lat="43.011523224413394927978515625" lon="-1.249381341040134429931640625">
        <ele>861.20001220703125</ele>
        <time>2020-08-21T13:03:02.000Z</time>
      </trkpt>
      <trkpt lat="43.01145960576832294464111328125" lon="-1.24943339265882968902587890625">
        <ele>861</ele>
        <time>2020-08-21T13:03:06.000Z</time>
      </trkpt>
      <trkpt lat="43.01135483197867870330810546875" lon="-1.24953783117234706878662109375">
        <ele>861.79998779296875</ele>
        <time>2020-08-21T13:03:12.000Z</time>
      </trkpt>
      <trkpt lat="43.01131208427250385284423828125" lon="-1.2495729513466358184814453125">
        <ele>862.79998779296875</ele>
        <time>2020-08-21T13:03:15.000Z</time>
      </trkpt>
      <trkpt lat="43.01128475926816463470458984375" lon="-1.2496068142354488372802734375">
        <ele>862.79998779296875</ele>
        <time>2020-08-21T13:03:17.000Z</time>
      </trkpt>
      <trkpt lat="43.01123161800205707550048828125" lon="-1.2496988475322723388671875">
        <ele>863.5999755859375</ele>
        <time>2020-08-21T13:03:21.000Z</time>
      </trkpt>
      <trkpt lat="43.0112078972160816192626953125" lon="-1.249753497540950775146484375">
        <ele>864.20001220703125</ele>
        <time>2020-08-21T13:03:23.000Z</time>
      </trkpt>
      <trkpt lat="43.01117495633661746978759765625" lon="-1.24981292523443698883056640625">
        <ele>864.5999755859375</ele>
        <time>2020-08-21T13:03:25.000Z</time>
      </trkpt>
      <trkpt lat="43.01110438071191310882568359375" lon="-1.24995709396898746490478515625">
        <ele>865.5999755859375</ele>
        <time>2020-08-21T13:03:30.000Z</time>
      </trkpt>
      <trkpt lat="43.01109180785715579986572265625" lon="-1.2499858438968658447265625">
        <ele>865.5999755859375</ele>
        <time>2020-08-21T13:03:31.000Z</time>
      </trkpt>
      <trkpt lat="43.011036403477191925048828125" lon="-1.250124983489513397216796875">
        <ele>866</ele>
        <time>2020-08-21T13:03:35.000Z</time>
      </trkpt>
      <trkpt lat="43.01091511733829975128173828125" lon="-1.2504245527088642120361328125">
        <ele>865.79998779296875</ele>
        <time>2020-08-21T13:03:41.000Z</time>
      </trkpt>
      <trkpt lat="43.01086398772895336151123046875" lon="-1.25066670589148998260498046875">
        <ele>865.79998779296875</ele>
        <time>2020-08-21T13:03:46.000Z</time>
      </trkpt>
      <trkpt lat="43.0108541809022426605224609375" lon="-1.250786483287811279296875">
        <ele>866.4000244140625</ele>
        <time>2020-08-21T13:03:49.000Z</time>
      </trkpt>
      <trkpt lat="43.01085107959806919097900390625" lon="-1.2509066797792911529541015625">
        <ele>866.5999755859375</ele>
        <time>2020-08-21T13:03:52.000Z</time>
      </trkpt>
      <trkpt lat="43.01087371073663234710693359375" lon="-1.251112036406993865966796875">
        <ele>866.5999755859375</ele>
        <time>2020-08-21T13:03:57.000Z</time>
      </trkpt>
      <trkpt lat="43.0108652450144290924072265625" lon="-1.25115805305540561676025390625">
        <ele>866.79998779296875</ele>
        <time>2020-08-21T13:03:58.000Z</time>
      </trkpt>
      <trkpt lat="43.01076340489089488983154296875" lon="-1.251350753009319305419921875">
        <ele>867.20001220703125</ele>
        <time>2020-08-21T13:04:04.000Z</time>
      </trkpt>
      <trkpt lat="43.0107383430004119873046875" lon="-1.251362152397632598876953125">
        <ele>867.4000244140625</ele>
        <time>2020-08-21T13:04:05.000Z</time>
      </trkpt>
      <trkpt lat="43.01071445457637310028076171875" lon="-1.2513707019388675689697265625">
        <ele>867.79998779296875</ele>
        <time>2020-08-21T13:04:06.000Z</time>
      </trkpt>
      <trkpt lat="43.0106590501964092254638671875" lon="-1.2513931654393672943115234375">
        <ele>868.5999755859375</ele>
        <time>2020-08-21T13:04:09.000Z</time>
      </trkpt>
      <trkpt lat="43.01061236299574375152587890625" lon="-1.25141420401632785797119140625">
        <ele>869.79998779296875</ele>
        <time>2020-08-21T13:04:12.000Z</time>
      </trkpt>
      <trkpt lat="43.01056995056569576263427734375" lon="-1.2514357455074787139892578125">
        <ele>870.4000244140625</ele>
        <time>2020-08-21T13:04:16.000Z</time>
      </trkpt>
      <trkpt lat="43.0105386860668659210205078125" lon="-1.2514608912169933319091796875">
        <ele>870.79998779296875</ele>
        <time>2020-08-21T13:04:19.000Z</time>
      </trkpt>
      <trkpt lat="43.01051496528089046478271484375" lon="-1.251474134624004364013671875">
        <ele>872</ele>
        <time>2020-08-21T13:04:22.000Z</time>
      </trkpt>
      <trkpt lat="43.01047154702246189117431640625" lon="-1.2515239231288433074951171875">
        <ele>872.79998779296875</ele>
        <time>2020-08-21T13:04:27.000Z</time>
      </trkpt>
      <trkpt lat="43.0104672722518444061279296875" lon="-1.25153683125972747802734375">
        <ele>873</ele>
        <time>2020-08-21T13:04:28.000Z</time>
      </trkpt>
      <trkpt lat="43.01044262945652008056640625" lon="-1.25159072689712047576904296875">
        <ele>874</ele>
        <time>2020-08-21T13:04:32.000Z</time>
      </trkpt>
      <trkpt lat="43.01042611710727214813232421875" lon="-1.2516295351088047027587890625">
        <ele>874.4000244140625</ele>
        <time>2020-08-21T13:04:34.000Z</time>
      </trkpt>
      <trkpt lat="43.0104028992354869842529296875" lon="-1.25167504884302616119384765625">
        <ele>875.20001220703125</ele>
        <time>2020-08-21T13:04:36.000Z</time>
      </trkpt>
      <trkpt lat="43.0103762447834014892578125" lon="-1.2517612986266613006591796875">
        <ele>876</ele>
        <time>2020-08-21T13:04:40.000Z</time>
      </trkpt>
      <trkpt lat="43.0103630013763904571533203125" lon="-1.2518025375902652740478515625">
        <ele>876.5999755859375</ele>
        <time>2020-08-21T13:04:42.000Z</time>
      </trkpt>
      <trkpt lat="43.01033793948590755462646484375" lon="-1.25186230055987834930419921875">
        <ele>877.79998779296875</ele>
        <time>2020-08-21T13:04:45.000Z</time>
      </trkpt>
      <trkpt lat="43.010324276983737945556640625" lon="-1.25189783982932567596435546875">
        <ele>878</ele>
        <time>2020-08-21T13:04:47.000Z</time>
      </trkpt>
      <trkpt lat="43.010311536490917205810546875" lon="-1.2519758753478527069091796875">
        <ele>878.79998779296875</ele>
        <time>2020-08-21T13:04:51.000Z</time>
      </trkpt>
      <trkpt lat="43.01031388342380523681640625" lon="-1.2520127557218074798583984375">
        <ele>879.5999755859375</ele>
        <time>2020-08-21T13:04:54.000Z</time>
      </trkpt>
      <trkpt lat="43.01031732000410556793212890625" lon="-1.25202591530978679656982421875">
        <ele>879.4000244140625</ele>
        <time>2020-08-21T13:05:07.000Z</time>
      </trkpt>
      <trkpt lat="43.0103091895580291748046875" lon="-1.2520350515842437744140625">
        <ele>879.4000244140625</ele>
        <time>2020-08-21T13:05:09.000Z</time>
      </trkpt>
      <trkpt lat="43.0103150568902492523193359375" lon="-1.252068579196929931640625">
        <ele>879.4000244140625</ele>
        <time>2020-08-21T13:05:11.000Z</time>
      </trkpt>
      <trkpt lat="43.01036543212831020355224609375" lon="-1.252224147319793701171875">
        <ele>879.4000244140625</ele>
        <time>2020-08-21T13:05:16.000Z</time>
      </trkpt>
      <trkpt lat="43.01038420759141445159912109375" lon="-1.252267062664031982421875">
        <ele>879</ele>
        <time>2020-08-21T13:05:17.000Z</time>
      </trkpt>
      <trkpt lat="43.0104942619800567626953125" lon="-1.2525491975247859954833984375">
        <ele>878</ele>
        <time>2020-08-21T13:05:22.000Z</time>
      </trkpt>
      <trkpt lat="43.0105313099920749664306640625" lon="-1.25268808566033840179443359375">
        <ele>877.5999755859375</ele>
        <time>2020-08-21T13:05:24.000Z</time>
      </trkpt>
      <trkpt lat="43.0105577968060970306396484375" lon="-1.252894364297389984130859375">
        <ele>877</ele>
        <time>2020-08-21T13:05:27.000Z</time>
      </trkpt>
      <trkpt lat="43.01055938936769962310791015625" lon="-1.2529639340937137603759765625">
        <ele>876.79998779296875</ele>
        <time>2020-08-21T13:05:28.000Z</time>
      </trkpt>
      <trkpt lat="43.01054011099040508270263671875" lon="-1.253216564655303955078125">
        <ele>877</ele>
        <time>2020-08-21T13:05:32.000Z</time>
      </trkpt>
      <trkpt lat="43.01046618260443210601806640625" lon="-1.25344480387866497039794921875">
        <ele>877</ele>
        <time>2020-08-21T13:05:37.000Z</time>
      </trkpt>
      <trkpt lat="43.01044891588389873504638671875" lon="-1.25348436646163463592529296875">
        <ele>877</ele>
        <time>2020-08-21T13:05:38.000Z</time>
      </trkpt>
      <trkpt lat="43.01036082208156585693359375" lon="-1.253677569329738616943359375">
        <ele>877.4000244140625</ele>
        <time>2020-08-21T13:05:44.000Z</time>
      </trkpt>
      <trkpt lat="43.01027901470661163330078125" lon="-1.25385484658181667327880859375">
        <ele>877.5999755859375</ele>
        <time>2020-08-21T13:05:50.000Z</time>
      </trkpt>
      <trkpt lat="43.0102366022765636444091796875" lon="-1.25395727343857288360595703125">
        <ele>879</ele>
        <time>2020-08-21T13:05:54.000Z</time>
      </trkpt>
      <trkpt lat="43.0102235265076160430908203125" lon="-1.2540163658559322357177734375">
        <ele>879.20001220703125</ele>
        <time>2020-08-21T13:05:56.000Z</time>
      </trkpt>
      <trkpt lat="43.01018270663917064666748046875" lon="-1.2542235665023326873779296875">
        <ele>880</ele>
        <time>2020-08-21T13:06:03.000Z</time>
      </trkpt>
      <trkpt lat="43.0101792700588703155517578125" lon="-1.25430218875408172607421875">
        <ele>880.4000244140625</ele>
        <time>2020-08-21T13:06:05.000Z</time>
      </trkpt>
      <trkpt lat="43.01021061837673187255859375" lon="-1.25453344546258449554443359375">
        <ele>880</ele>
        <time>2020-08-21T13:06:11.000Z</time>
      </trkpt>
      <trkpt lat="43.01023232750594615936279296875" lon="-1.2547351978719234466552734375">
        <ele>880.79998779296875</ele>
        <time>2020-08-21T13:06:17.000Z</time>
      </trkpt>
      <trkpt lat="43.01022796891629695892333984375" lon="-1.25479479320347309112548828125">
        <ele>881.20001220703125</ele>
        <time>2020-08-21T13:06:19.000Z</time>
      </trkpt>
      <trkpt lat="43.01022696308791637420654296875" lon="-1.2548726610839366912841796875">
        <ele>881.79998779296875</ele>
        <time>2020-08-21T13:06:22.000Z</time>
      </trkpt>
      <trkpt lat="43.01020801998674869537353515625" lon="-1.2550309114158153533935546875">
        <ele>882.20001220703125</ele>
        <time>2020-08-21T13:06:27.000Z</time>
      </trkpt>
      <trkpt lat="43.01019452512264251708984375" lon="-1.25517868436872959136962890625">
        <ele>883.20001220703125</ele>
        <time>2020-08-21T13:06:32.000Z</time>
      </trkpt>
      <trkpt lat="43.01016393117606639862060546875" lon="-1.2552920915186405181884765625">
        <ele>883</ele>
        <time>2020-08-21T13:06:36.000Z</time>
      </trkpt>
      <trkpt lat="43.01014917902648448944091796875" lon="-1.25531748868525028228759765625">
        <ele>882.5999755859375</ele>
        <time>2020-08-21T13:06:37.000Z</time>
      </trkpt>
      <trkpt lat="43.01004909910261631011962890625" lon="-1.25549702905118465423583984375">
        <ele>883.4000244140625</ele>
        <time>2020-08-21T13:06:44.000Z</time>
      </trkpt>
      <trkpt lat="43.00995321013033390045166015625" lon="-1.2556763179600238800048828125">
        <ele>884.4000244140625</ele>
        <time>2020-08-21T13:06:51.000Z</time>
      </trkpt>
      <trkpt lat="43.00985514186322689056396484375" lon="-1.2558416090905666351318359375">
        <ele>885.20001220703125</ele>
        <time>2020-08-21T13:06:58.000Z</time>
      </trkpt>
      <trkpt lat="43.00983519293367862701416015625" lon="-1.25588343478739261627197265625">
        <ele>885.4000244140625</ele>
        <time>2020-08-21T13:07:00.000Z</time>
      </trkpt>
      <trkpt lat="43.00982329063117504119873046875" lon="-1.25592819415032863616943359375">
        <ele>885.5999755859375</ele>
        <time>2020-08-21T13:07:02.000Z</time>
      </trkpt>
      <trkpt lat="43.009771741926670074462890625" lon="-1.25600731931626796722412109375">
        <ele>886.4000244140625</ele>
        <time>2020-08-21T13:07:06.000Z</time>
      </trkpt>
      <trkpt lat="43.00975799560546875" lon="-1.25602995045483112335205078125">
        <ele>886.79998779296875</ele>
        <time>2020-08-21T13:07:07.000Z</time>
      </trkpt>
      <trkpt lat="43.0097313411533832550048828125" lon="-1.2560744583606719970703125">
        <ele>887.20001220703125</ele>
        <time>2020-08-21T13:07:09.000Z</time>
      </trkpt>
      <trkpt lat="43.00969823263585567474365234375" lon="-1.256116367876529693603515625">
        <ele>887.4000244140625</ele>
        <time>2020-08-21T13:07:11.000Z</time>
      </trkpt>
      <trkpt lat="43.00967358984053134918212890625" lon="-1.25617009587585926055908203125">
        <ele>888</ele>
        <time>2020-08-21T13:07:13.000Z</time>
      </trkpt>
      <trkpt lat="43.0095922015607357025146484375" lon="-1.25632851384580135345458984375">
        <ele>888.4000244140625</ele>
        <time>2020-08-21T13:07:19.000Z</time>
      </trkpt>
      <trkpt lat="43.0095154233276844024658203125" lon="-1.25645256601274013519287109375">
        <ele>889.4000244140625</ele>
        <time>2020-08-21T13:07:24.000Z</time>
      </trkpt>
      <trkpt lat="43.00949052907526493072509765625" lon="-1.25649983994662761688232421875">
        <ele>889.20001220703125</ele>
        <time>2020-08-21T13:07:26.000Z</time>
      </trkpt>
      <trkpt lat="43.009349294006824493408203125" lon="-1.25673838891088962554931640625">
        <ele>890</ele>
        <time>2020-08-21T13:07:35.000Z</time>
      </trkpt>
      <trkpt lat="43.0092093162238597869873046875" lon="-1.25691357068717479705810546875">
        <ele>891.20001220703125</ele>
        <time>2020-08-21T13:07:42.000Z</time>
      </trkpt>
      <trkpt lat="43.00911627709865570068359375" lon="-1.257003508508205413818359375">
        <ele>891.5999755859375</ele>
        <time>2020-08-21T13:07:50.000Z</time>
      </trkpt>
      <trkpt lat="43.0090597830712795257568359375" lon="-1.257039047777652740478515625">
        <ele>891.79998779296875</ele>
        <time>2020-08-21T13:07:53.000Z</time>
      </trkpt>
      <trkpt lat="43.0090177059173583984375" lon="-1.2571032531559467315673828125">
        <ele>892.20001220703125</ele>
        <time>2020-08-21T13:07:56.000Z</time>
      </trkpt>
      <trkpt lat="43.00894084386527538299560546875" lon="-1.25726896338164806365966796875">
        <ele>892.5999755859375</ele>
        <time>2020-08-21T13:08:02.000Z</time>
      </trkpt>
      <trkpt lat="43.0088602937757968902587890625" lon="-1.257554702460765838623046875">
        <ele>892.79998779296875</ele>
        <time>2020-08-21T13:08:09.000Z</time>
      </trkpt>
      <trkpt lat="43.00877471454441547393798828125" lon="-1.2578435428440570831298828125">
        <ele>892.20001220703125</ele>
        <time>2020-08-21T13:08:15.000Z</time>
      </trkpt>
      <trkpt lat="43.0086970143020153045654296875" lon="-1.25805325806140899658203125">
        <ele>892.20001220703125</ele>
        <time>2020-08-21T13:08:21.000Z</time>
      </trkpt>
      <trkpt lat="43.008582852780818939208984375" lon="-1.2581746280193328857421875">
        <ele>892.5999755859375</ele>
        <time>2020-08-21T13:08:28.000Z</time>
      </trkpt>
      <trkpt lat="43.0085572041571140289306640625" lon="-1.25821025110781192779541015625">
        <ele>892.79998779296875</ele>
        <time>2020-08-21T13:08:30.000Z</time>
      </trkpt>
      <trkpt lat="43.00849744118750095367431640625" lon="-1.25825702212750911712646484375">
        <ele>893</ele>
        <time>2020-08-21T13:08:35.000Z</time>
      </trkpt>
      <trkpt lat="43.0084351636469364166259765625" lon="-1.25826657749712467193603515625">
        <ele>893.20001220703125</ele>
        <time>2020-08-21T13:08:42.000Z</time>
      </trkpt>
      <trkpt lat="43.008436001837253570556640625" lon="-1.25826372765004634857177734375">
        <ele>893.79998779296875</ele>
        <time>2020-08-21T13:08:53.000Z</time>
      </trkpt>
      <trkpt lat="43.008372299373149871826171875" lon="-1.2582773901522159576416015625">
        <ele>894</ele>
        <time>2020-08-21T13:08:58.000Z</time>
      </trkpt>
      <trkpt lat="43.0082564614713191986083984375" lon="-1.258343942463397979736328125">
        <ele>893.79998779296875</ele>
        <time>2020-08-21T13:09:04.000Z</time>
      </trkpt>
      <trkpt lat="43.00809225998818874359130859375" lon="-1.25843815505504608154296875">
        <ele>893</ele>
        <time>2020-08-21T13:09:11.000Z</time>
      </trkpt>
      <trkpt lat="43.00796116702258586883544921875" lon="-1.25851233489811420440673828125">
        <ele>894</ele>
        <time>2020-08-21T13:09:16.000Z</time>
      </trkpt>
      <trkpt lat="43.00778749398887157440185546875" lon="-1.258604116737842559814453125">
        <ele>893.5999755859375</ele>
        <time>2020-08-21T13:09:22.000Z</time>
      </trkpt>
      <trkpt lat="43.00759638659656047821044921875" lon="-1.258704364299774169921875">
        <ele>893.4000244140625</ele>
        <time>2020-08-21T13:09:28.000Z</time>
      </trkpt>
      <trkpt lat="43.00748658366501331329345703125" lon="-1.2587392330169677734375">
        <ele>892.20001220703125</ele>
        <time>2020-08-21T13:09:31.000Z</time>
      </trkpt>
      <trkpt lat="43.00735213793814182281494140625" lon="-1.25879027880728244781494140625">
        <ele>892.5999755859375</ele>
        <time>2020-08-21T13:09:35.000Z</time>
      </trkpt>
      <trkpt lat="43.0070548318326473236083984375" lon="-1.258832104504108428955078125">
        <ele>892.79998779296875</ele>
        <time>2020-08-21T13:09:43.000Z</time>
      </trkpt>
      <trkpt lat="43.00685861147940158843994140625" lon="-1.2588344514369964599609375">
        <ele>893.20001220703125</ele>
        <time>2020-08-21T13:09:49.000Z</time>
      </trkpt>
      <trkpt lat="43.00655719824135303497314453125" lon="-1.2587826512753963470458984375">
        <ele>893.79998779296875</ele>
        <time>2020-08-21T13:09:57.000Z</time>
      </trkpt>
      <trkpt lat="43.00631227903068065643310546875" lon="-1.258826069533824920654296875">
        <ele>893.79998779296875</ele>
        <time>2020-08-21T13:10:04.000Z</time>
      </trkpt>
      <trkpt lat="43.00607222132384777069091796875" lon="-1.258929334580898284912109375">
        <ele>894.20001220703125</ele>
        <time>2020-08-21T13:10:11.000Z</time>
      </trkpt>
      <trkpt lat="43.00579142756760120391845703125" lon="-1.25912605784833431243896484375">
        <ele>894.20001220703125</ele>
        <time>2020-08-21T13:10:20.000Z</time>
      </trkpt>
      <trkpt lat="43.00568480975925922393798828125" lon="-1.25921490602195262908935546875">
        <ele>895</ele>
        <time>2020-08-21T13:10:24.000Z</time>
      </trkpt>
      <trkpt lat="43.00563300959765911102294921875" lon="-1.259258575737476348876953125">
        <ele>896</ele>
        <time>2020-08-21T13:10:26.000Z</time>
      </trkpt>
      <trkpt lat="43.00561121664941310882568359375" lon="-1.259278692305088043212890625">
        <ele>896.20001220703125</ele>
        <time>2020-08-21T13:10:27.000Z</time>
      </trkpt>
      <trkpt lat="43.0055135674774646759033203125" lon="-1.25939838588237762451171875">
        <ele>896.5999755859375</ele>
        <time>2020-08-21T13:10:32.000Z</time>
      </trkpt>
      <trkpt lat="43.0054672993719577789306640625" lon="-1.25945127569139003753662109375">
        <ele>897.20001220703125</ele>
        <time>2020-08-21T13:10:34.000Z</time>
      </trkpt>
      <trkpt lat="43.00539630465209484100341796875" lon="-1.2595769204199314117431640625">
        <ele>897.5999755859375</ele>
        <time>2020-08-21T13:10:38.000Z</time>
      </trkpt>
      <trkpt lat="43.00526554696261882781982421875" lon="-1.25986911356449127197265625">
        <ele>897.4000244140625</ele>
        <time>2020-08-21T13:10:46.000Z</time>
      </trkpt>
      <trkpt lat="43.00516010262072086334228515625" lon="-1.26009701751172542572021484375">
        <ele>897.79998779296875</ele>
        <time>2020-08-21T13:10:52.000Z</time>
      </trkpt>
      <trkpt lat="43.00510612316429615020751953125" lon="-1.26020095311105251312255859375">
        <ele>898.4000244140625</ele>
        <time>2020-08-21T13:10:56.000Z</time>
      </trkpt>
      <trkpt lat="43.0050931312143802642822265625" lon="-1.26022450625896453857421875">
        <ele>898.5999755859375</ele>
        <time>2020-08-21T13:10:57.000Z</time>
      </trkpt>
      <trkpt lat="43.00502615980803966522216796875" lon="-1.26041167415678501129150390625">
        <ele>899.79998779296875</ele>
        <time>2020-08-21T13:11:04.000Z</time>
      </trkpt>
      <trkpt lat="43.00501408986747264862060546875" lon="-1.26049716956913471221923828125">
        <ele>900.79998779296875</ele>
        <time>2020-08-21T13:11:07.000Z</time>
      </trkpt>
      <trkpt lat="43.00500017590820789337158203125" lon="-1.26065097749233245849609375">
        <ele>901.20001220703125</ele>
        <time>2020-08-21T13:11:12.000Z</time>
      </trkpt>
      <trkpt lat="43.00499028526246547698974609375" lon="-1.26077377237379550933837890625">
        <ele>901.79998779296875</ele>
        <time>2020-08-21T13:11:16.000Z</time>
      </trkpt>
      <trkpt lat="43.004972934722900390625" lon="-1.2608824856579303741455078125">
        <ele>902</ele>
        <time>2020-08-21T13:11:20.000Z</time>
      </trkpt>
      <trkpt lat="43.004967905580997467041015625" lon="-1.26090486533939838409423828125">
        <ele>902.20001220703125</ele>
        <time>2020-08-21T13:11:21.000Z</time>
      </trkpt>
      <trkpt lat="43.0049570091068744659423828125" lon="-1.260974518954753875732421875">
        <ele>903.20001220703125</ele>
        <time>2020-08-21T13:11:24.000Z</time>
      </trkpt>
      <trkpt lat="43.0049439333379268646240234375" lon="-1.261045597493648529052734375">
        <ele>904</ele>
        <time>2020-08-21T13:11:27.000Z</time>
      </trkpt>
      <trkpt lat="43.004939742386341094970703125" lon="-1.26106881536543369293212890625">
        <ele>904.4000244140625</ele>
        <time>2020-08-21T13:11:28.000Z</time>
      </trkpt>
      <trkpt lat="43.00492390058934688568115234375" lon="-1.2611840665340423583984375">
        <ele>905.4000244140625</ele>
        <time>2020-08-21T13:11:33.000Z</time>
      </trkpt>
      <trkpt lat="43.0049152672290802001953125" lon="-1.2612298317253589630126953125">
        <ele>905.79998779296875</ele>
        <time>2020-08-21T13:11:35.000Z</time>
      </trkpt>
      <trkpt lat="43.00490277819335460662841796875" lon="-1.26134642399847507476806640625">
        <ele>906.5999755859375</ele>
        <time>2020-08-21T13:11:40.000Z</time>
      </trkpt>
      <trkpt lat="43.0048959888517856597900390625" lon="-1.26141817308962345123291015625">
        <ele>907</ele>
        <time>2020-08-21T13:11:43.000Z</time>
      </trkpt>
      <trkpt lat="43.0048943124711513519287109375" lon="-1.2614635191857814788818359375">
        <ele>907.79998779296875</ele>
        <time>2020-08-21T13:11:45.000Z</time>
      </trkpt>
      <trkpt lat="43.00488936714828014373779296875" lon="-1.26157240010797977447509765625">
        <ele>908.79998779296875</ele>
        <time>2020-08-21T13:11:50.000Z</time>
      </trkpt>
      <trkpt lat="43.004888780415058135986328125" lon="-1.261596791446208953857421875">
        <ele>909</ele>
        <time>2020-08-21T13:11:51.000Z</time>
      </trkpt>
      <trkpt lat="43.00488433800637722015380859375" lon="-1.2616690434515476226806640625">
        <ele>909.79998779296875</ele>
        <time>2020-08-21T13:11:54.000Z</time>
      </trkpt>
      <trkpt lat="43.004863969981670379638671875" lon="-1.26183710061013698577880859375">
        <ele>910.79998779296875</ele>
        <time>2020-08-21T13:12:01.000Z</time>
      </trkpt>
      <trkpt lat="43.00486137159168720245361328125" lon="-1.26186107285320758819580078125">
        <ele>911</ele>
        <time>2020-08-21T13:12:02.000Z</time>
      </trkpt>
      <trkpt lat="43.00484762527048587799072265625" lon="-1.261952854692935943603515625">
        <ele>912</ele>
        <time>2020-08-21T13:12:06.000Z</time>
      </trkpt>
      <trkpt lat="43.0048249103128910064697265625" lon="-1.26206492073833942413330078125">
        <ele>913.20001220703125</ele>
        <time>2020-08-21T13:12:11.000Z</time>
      </trkpt>
      <trkpt lat="43.00481996499001979827880859375" lon="-1.26208671368658542633056640625">
        <ele>913.20001220703125</ele>
        <time>2020-08-21T13:12:12.000Z</time>
      </trkpt>
      <trkpt lat="43.004800938069820404052734375" lon="-1.26217170618474483489990234375">
        <ele>914.20001220703125</ele>
        <time>2020-08-21T13:12:16.000Z</time>
      </trkpt>
      <trkpt lat="43.00477671436965465545654296875" lon="-1.26225569285452365875244140625">
        <ele>915.4000244140625</ele>
        <time>2020-08-21T13:12:20.000Z</time>
      </trkpt>
      <trkpt lat="43.0047712661325931549072265625" lon="-1.26227773725986480712890625">
        <ele>915.5999755859375</ele>
        <time>2020-08-21T13:12:21.000Z</time>
      </trkpt>
      <trkpt lat="43.004753328859806060791015625" lon="-1.26238594762980937957763671875">
        <ele>916.4000244140625</ele>
        <time>2020-08-21T13:12:26.000Z</time>
      </trkpt>
      <trkpt lat="43.00474603660404682159423828125" lon="-1.26242802478373050689697265625">
        <ele>917.4000244140625</ele>
        <time>2020-08-21T13:12:28.000Z</time>
      </trkpt>
      <trkpt lat="43.004739917814731597900390625" lon="-1.262449063360691070556640625">
        <ele>917.5999755859375</ele>
        <time>2020-08-21T13:12:29.000Z</time>
      </trkpt>
      <trkpt lat="43.00470136106014251708984375" lon="-1.26257588155567646026611328125">
        <ele>918.5999755859375</ele>
        <time>2020-08-21T13:12:35.000Z</time>
      </trkpt>
      <trkpt lat="43.004665486514568328857421875" lon="-1.26265752129256725311279296875">
        <ele>918.5999755859375</ele>
        <time>2020-08-21T13:12:39.000Z</time>
      </trkpt>
      <trkpt lat="43.004577644169330596923828125" lon="-1.262779645621776580810546875">
        <ele>919.5999755859375</ele>
        <time>2020-08-21T13:12:46.000Z</time>
      </trkpt>
      <trkpt lat="43.00456364639103412628173828125" lon="-1.26279548741877079010009765625">
        <ele>919.79998779296875</ele>
        <time>2020-08-21T13:12:47.000Z</time>
      </trkpt>
      <trkpt lat="43.0045325495302677154541015625" lon="-1.2628497183322906494140625">
        <ele>921</ele>
        <time>2020-08-21T13:12:50.000Z</time>
      </trkpt>
      <trkpt lat="43.0045017041265964508056640625" lon="-1.2629333697259426116943359375">
        <ele>921.79998779296875</ele>
        <time>2020-08-21T13:12:54.000Z</time>
      </trkpt>
      <trkpt lat="43.00448083318769931793212890625" lon="-1.26310897059738636016845703125">
        <ele>923</ele>
        <time>2020-08-21T13:13:00.000Z</time>
      </trkpt>
      <trkpt lat="43.00447882153093814849853515625" lon="-1.263162195682525634765625">
        <ele>923.4000244140625</ele>
        <time>2020-08-21T13:13:02.000Z</time>
      </trkpt>
      <trkpt lat="43.00447739660739898681640625" lon="-1.2632072903215885162353515625">
        <ele>924</ele>
        <time>2020-08-21T13:13:04.000Z</time>
      </trkpt>
      <trkpt lat="43.00448007881641387939453125" lon="-1.2633796222507953643798828125">
        <ele>925.20001220703125</ele>
        <time>2020-08-21T13:13:11.000Z</time>
      </trkpt>
      <trkpt lat="43.00449156202375888824462890625" lon="-1.2634932808578014373779296875">
        <ele>926</ele>
        <time>2020-08-21T13:13:16.000Z</time>
      </trkpt>
      <trkpt lat="43.00449474714696407318115234375" lon="-1.2635140679776668548583984375">
        <ele>926.20001220703125</ele>
        <time>2020-08-21T13:13:17.000Z</time>
      </trkpt>
      <trkpt lat="43.00451888702809810638427734375" lon="-1.2635998986661434173583984375">
        <ele>927.4000244140625</ele>
        <time>2020-08-21T13:13:21.000Z</time>
      </trkpt>
      <trkpt lat="43.00452106632292270660400390625" lon="-1.263621859252452850341796875">
        <ele>927.5999755859375</ele>
        <time>2020-08-21T13:13:22.000Z</time>
      </trkpt>
      <trkpt lat="43.00452643074095249176025390625" lon="-1.2636441551148891448974609375">
        <ele>927.79998779296875</ele>
        <time>2020-08-21T13:13:23.000Z</time>
      </trkpt>
      <trkpt lat="43.0045359022915363311767578125" lon="-1.263687573373317718505859375">
        <ele>928.20001220703125</ele>
        <time>2020-08-21T13:13:25.000Z</time>
      </trkpt>
      <trkpt lat="43.0045543424785137176513671875" lon="-1.2637956999242305755615234375">
        <ele>929</ele>
        <time>2020-08-21T13:13:30.000Z</time>
      </trkpt>
      <trkpt lat="43.0045593716204166412353515625" lon="-1.26381757669150829315185546875">
        <ele>929.4000244140625</ele>
        <time>2020-08-21T13:13:31.000Z</time>
      </trkpt>
      <trkpt lat="43.00457890145480632781982421875" lon="-1.26392905600368976593017578125">
        <ele>930.4000244140625</ele>
        <time>2020-08-21T13:13:36.000Z</time>
      </trkpt>
      <trkpt lat="43.0045798234641551971435546875" lon="-1.26397130079567432403564453125">
        <ele>931</ele>
        <time>2020-08-21T13:13:38.000Z</time>
      </trkpt>
      <trkpt lat="43.00458124838769435882568359375" lon="-1.26403550617396831512451171875">
        <ele>931.5999755859375</ele>
        <time>2020-08-21T13:13:41.000Z</time>
      </trkpt>
      <trkpt lat="43.00457370467483997344970703125" lon="-1.26413692720234394073486328125">
        <ele>932</ele>
        <time>2020-08-21T13:13:46.000Z</time>
      </trkpt>
      <trkpt lat="43.00456465221941471099853515625" lon="-1.2641983665525913238525390625">
        <ele>932.79998779296875</ele>
        <time>2020-08-21T13:13:49.000Z</time>
      </trkpt>
      <trkpt lat="43.00453950650990009307861328125" lon="-1.26431412063539028167724609375">
        <ele>933.79998779296875</ele>
        <time>2020-08-21T13:13:55.000Z</time>
      </trkpt>
      <trkpt lat="43.00451402552425861358642578125" lon="-1.2644132785499095916748046875">
        <ele>935</ele>
        <time>2020-08-21T13:14:00.000Z</time>
      </trkpt>
      <trkpt lat="43.0044943280518054962158203125" lon="-1.2644863687455654144287109375">
        <ele>935.79998779296875</ele>
        <time>2020-08-21T13:14:04.000Z</time>
      </trkpt>
      <trkpt lat="43.004484437406063079833984375" lon="-1.264522410929203033447265625">
        <ele>935.79998779296875</ele>
        <time>2020-08-21T13:14:06.000Z</time>
      </trkpt>
      <trkpt lat="43.00445937551558017730712890625" lon="-1.264613606035709381103515625">
        <ele>937</ele>
        <time>2020-08-21T13:14:11.000Z</time>
      </trkpt>
      <trkpt lat="43.00444713793694972991943359375" lon="-1.2646865285933017730712890625">
        <ele>938</ele>
        <time>2020-08-21T13:14:15.000Z</time>
      </trkpt>
      <trkpt lat="43.00444328226149082183837890625" lon="-1.26470522023737430572509765625">
        <ele>938.4000244140625</ele>
        <time>2020-08-21T13:14:16.000Z</time>
      </trkpt>
      <trkpt lat="43.00443137995898723602294921875" lon="-1.26481049694120883941650390625">
        <ele>939.4000244140625</ele>
        <time>2020-08-21T13:14:21.000Z</time>
      </trkpt>
      <trkpt lat="43.00442769192159175872802734375" lon="-1.26483413390815258026123046875">
        <ele>939.79998779296875</ele>
        <time>2020-08-21T13:14:22.000Z</time>
      </trkpt>
      <trkpt lat="43.00441729836165904998779296875" lon="-1.26496539451181888580322265625">
        <ele>940.20001220703125</ele>
        <time>2020-08-21T13:14:28.000Z</time>
      </trkpt>
      <trkpt lat="43.00441478379070758819580078125" lon="-1.26500965096056461334228515625">
        <ele>940.5999755859375</ele>
        <time>2020-08-21T13:14:30.000Z</time>
      </trkpt>
      <trkpt lat="43.00442266277968883514404296875" lon="-1.26513387076556682586669921875">
        <ele>941.4000244140625</ele>
        <time>2020-08-21T13:14:36.000Z</time>
      </trkpt>
      <trkpt lat="43.004430793225765228271484375" lon="-1.2651750259101390838623046875">
        <ele>941.5999755859375</ele>
        <time>2020-08-21T13:14:38.000Z</time>
      </trkpt>
      <trkpt lat="43.0044544301927089691162109375" lon="-1.26529580913484096527099609375">
        <ele>942.5999755859375</ele>
        <time>2020-08-21T13:14:44.000Z</time>
      </trkpt>
      <trkpt lat="43.00445920787751674652099609375" lon="-1.2653158418834209442138671875">
        <ele>942.79998779296875</ele>
        <time>2020-08-21T13:14:45.000Z</time>
      </trkpt>
      <trkpt lat="43.00448686815798282623291015625" lon="-1.26541323959827423095703125">
        <ele>943.79998779296875</ele>
        <time>2020-08-21T13:14:50.000Z</time>
      </trkpt>
      <trkpt lat="43.0044953338801860809326171875" lon="-1.2654348649084568023681640625">
        <ele>944</ele>
        <time>2020-08-21T13:14:51.000Z</time>
      </trkpt>
      <trkpt lat="43.004523999989032745361328125" lon="-1.265545003116130828857421875">
        <ele>944.5999755859375</ele>
        <time>2020-08-21T13:14:57.000Z</time>
      </trkpt>
      <trkpt lat="43.00452894531190395355224609375" lon="-1.26555615104734897613525390625">
        <ele>945.20001220703125</ele>
        <time>2020-08-21T13:14:58.000Z</time>
      </trkpt>
      <trkpt lat="43.00454621203243732452392578125" lon="-1.2656212784349918365478515625">
        <ele>945.79998779296875</ele>
        <time>2020-08-21T13:15:02.000Z</time>
      </trkpt>
      <trkpt lat="43.00455124117434024810791015625" lon="-1.26568615436553955078125">
        <ele>946</ele>
        <time>2020-08-21T13:15:05.000Z</time>
      </trkpt>
      <trkpt lat="43.00455643795430660247802734375" lon="-1.26575530506670475006103515625">
        <ele>946.4000244140625</ele>
        <time>2020-08-21T13:15:08.000Z</time>
      </trkpt>
      <trkpt lat="43.0045504868030548095703125" lon="-1.26582856290042400360107421875">
        <ele>947.5999755859375</ele>
        <time>2020-08-21T13:15:12.000Z</time>
      </trkpt>
      <trkpt lat="43.0045523308217525482177734375" lon="-1.26583057455718517303466796875">
        <ele>947.79998779296875</ele>
        <time>2020-08-21T13:15:13.000Z</time>
      </trkpt>
      <trkpt lat="43.00455375574529170989990234375" lon="-1.265831328928470611572265625">
        <ele>948</ele>
        <time>2020-08-21T13:15:14.000Z</time>
      </trkpt>
      <trkpt lat="43.00455342046916484832763671875" lon="-1.26583090983331203460693359375">
        <ele>947.79998779296875</ele>
        <time>2020-08-21T13:17:27.000Z</time>
      </trkpt>
      <trkpt lat="43.00453783012926578521728515625" lon="-1.265882961452007293701171875">
        <ele>947.5999755859375</ele>
        <time>2020-08-21T13:17:33.000Z</time>
      </trkpt>
      <trkpt lat="43.00446323119103908538818359375" lon="-1.2660001404583454132080078125">
        <ele>948.4000244140625</ele>
        <time>2020-08-21T13:17:40.000Z</time>
      </trkpt>
      <trkpt lat="43.00444512628018856048583984375" lon="-1.2660326622426509857177734375">
        <ele>948.4000244140625</ele>
        <time>2020-08-21T13:17:42.000Z</time>
      </trkpt>
      <trkpt lat="43.00440958701074123382568359375" lon="-1.26608890481293201446533203125">
        <ele>949.20001220703125</ele>
        <time>2020-08-21T13:17:46.000Z</time>
      </trkpt>
      <trkpt lat="43.0044004507362842559814453125" lon="-1.26610047183930873870849609375">
        <ele>949.4000244140625</ele>
        <time>2020-08-21T13:17:47.000Z</time>
      </trkpt>
      <trkpt lat="43.00433984957635402679443359375" lon="-1.2661580555140972137451171875">
        <ele>950.20001220703125</ele>
        <time>2020-08-21T13:17:53.000Z</time>
      </trkpt>
      <trkpt lat="43.004279918968677520751953125" lon="-1.26621253788471221923828125">
        <ele>950.5999755859375</ele>
        <time>2020-08-21T13:17:58.000Z</time>
      </trkpt>
      <trkpt lat="43.00426910631358623504638671875" lon="-1.26622033305466175079345703125">
        <ele>950.5999755859375</ele>
        <time>2020-08-21T13:17:59.000Z</time>
      </trkpt>
      <trkpt lat="43.0042264424264430999755859375" lon="-1.2662549503147602081298828125">
        <ele>951.79998779296875</ele>
        <time>2020-08-21T13:18:02.000Z</time>
      </trkpt>
      <trkpt lat="43.00419618375599384307861328125" lon="-1.2662754021584987640380859375">
        <ele>952.4000244140625</ele>
        <time>2020-08-21T13:18:04.000Z</time>
      </trkpt>
      <trkpt lat="43.0041795037686824798583984375" lon="-1.26628101803362369537353515625">
        <ele>952.79998779296875</ele>
        <time>2020-08-21T13:18:05.000Z</time>
      </trkpt>
      <trkpt lat="43.0041132867336273193359375" lon="-1.26630381681025028228759765625">
        <ele>954</ele>
        <time>2020-08-21T13:18:09.000Z</time>
      </trkpt>
      <trkpt lat="43.00408042967319488525390625" lon="-1.26632259227335453033447265625">
        <ele>954.4000244140625</ele>
        <time>2020-08-21T13:18:11.000Z</time>
      </trkpt>
      <trkpt lat="43.00402267836034297943115234375" lon="-1.26636265777051448822021484375">
        <ele>955.20001220703125</ele>
        <time>2020-08-21T13:18:14.000Z</time>
      </trkpt>
      <trkpt lat="43.00398931838572025299072265625" lon="-1.2663924135267734527587890625">
        <ele>955.4000244140625</ele>
        <time>2020-08-21T13:18:16.000Z</time>
      </trkpt>
      <trkpt lat="43.00392259843647480010986328125" lon="-1.26647002995014190673828125">
        <ele>956</ele>
        <time>2020-08-21T13:18:21.000Z</time>
      </trkpt>
      <trkpt lat="43.00391145050525665283203125" lon="-1.26648402772843837738037109375">
        <ele>956.4000244140625</ele>
        <time>2020-08-21T13:18:22.000Z</time>
      </trkpt>
      <trkpt lat="43.00383425317704677581787109375" lon="-1.26656927168369293212890625">
        <ele>957.4000244140625</ele>
        <time>2020-08-21T13:18:29.000Z</time>
      </trkpt>
      <trkpt lat="43.00382369197905063629150390625" lon="-1.2665821798145771026611328125">
        <ele>957.79998779296875</ele>
        <time>2020-08-21T13:18:30.000Z</time>
      </trkpt>
      <trkpt lat="43.003785721957683563232421875" lon="-1.26664437353610992431640625">
        <ele>958.5999755859375</ele>
        <time>2020-08-21T13:18:34.000Z</time>
      </trkpt>
      <trkpt lat="43.00376770086586475372314453125" lon="-1.26667915843427181243896484375">
        <ele>959</ele>
        <time>2020-08-21T13:18:36.000Z</time>
      </trkpt>
      <trkpt lat="43.00372176803648471832275390625" lon="-1.266778819262981414794921875">
        <ele>959.79998779296875</ele>
        <time>2020-08-21T13:18:41.000Z</time>
      </trkpt>
      <trkpt lat="43.00369829870760440826416015625" lon="-1.26683489419519901275634765625">
        <ele>960.20001220703125</ele>
        <time>2020-08-21T13:18:44.000Z</time>
      </trkpt>
      <trkpt lat="43.00365303643047809600830078125" lon="-1.26698878593742847442626953125">
        <ele>960.5999755859375</ele>
        <time>2020-08-21T13:18:51.000Z</time>
      </trkpt>
      <trkpt lat="43.0036470852792263031005859375" lon="-1.26701158471405506134033203125">
        <ele>961</ele>
        <time>2020-08-21T13:18:52.000Z</time>
      </trkpt>
      <trkpt lat="43.00362269394099712371826171875" lon="-1.26709691248834133148193359375">
        <ele>962</ele>
        <time>2020-08-21T13:18:56.000Z</time>
      </trkpt>
      <trkpt lat="43.0035957880318164825439453125" lon="-1.267213337123394012451171875">
        <ele>962.5999755859375</ele>
        <time>2020-08-21T13:19:01.000Z</time>
      </trkpt>
      <trkpt lat="43.0035830475389957427978515625" lon="-1.2672855891287326812744140625">
        <ele>963</ele>
        <time>2020-08-21T13:19:04.000Z</time>
      </trkpt>
      <trkpt lat="43.00355664454400539398193359375" lon="-1.267453394830226898193359375">
        <ele>963.5999755859375</ele>
        <time>2020-08-21T13:19:11.000Z</time>
      </trkpt>
      <trkpt lat="43.0035344325006008148193359375" lon="-1.26758515834808349609375">
        <ele>964</ele>
        <time>2020-08-21T13:19:16.000Z</time>
      </trkpt>
      <trkpt lat="43.0035032518208026885986328125" lon="-1.2677201069891452789306640625">
        <ele>964.79998779296875</ele>
        <time>2020-08-21T13:19:21.000Z</time>
      </trkpt>
      <trkpt lat="43.00347559154033660888671875" lon="-1.26787994988262653350830078125">
        <ele>965.20001220703125</ele>
        <time>2020-08-21T13:19:27.000Z</time>
      </trkpt>
      <trkpt lat="43.00346327014267444610595703125" lon="-1.26795597374439239501953125">
        <ele>965.79998779296875</ele>
        <time>2020-08-21T13:19:30.000Z</time>
      </trkpt>
      <trkpt lat="43.003443069756031036376953125" lon="-1.26809972338378429412841796875">
        <ele>966.20001220703125</ele>
        <time>2020-08-21T13:19:36.000Z</time>
      </trkpt>
      <trkpt lat="43.00343862734735012054443359375" lon="-1.268140040338039398193359375">
        <ele>966.4000244140625</ele>
        <time>2020-08-21T13:19:38.000Z</time>
      </trkpt>
      <trkpt lat="43.00342261791229248046875" lon="-1.26824087463319301605224609375">
        <ele>967.79998779296875</ele>
        <time>2020-08-21T13:19:42.000Z</time>
      </trkpt>
      <trkpt lat="43.00339252687990665435791015625" lon="-1.26846584491431713104248046875">
        <ele>968.20001220703125</ele>
        <time>2020-08-21T13:19:50.000Z</time>
      </trkpt>
      <trkpt lat="43.00337760709226131439208984375" lon="-1.268548071384429931640625">
        <ele>968.79998779296875</ele>
        <time>2020-08-21T13:19:53.000Z</time>
      </trkpt>
      <trkpt lat="43.00336805172264575958251953125" lon="-1.26865594647824764251708984375">
        <ele>969.20001220703125</ele>
        <time>2020-08-21T13:19:57.000Z</time>
      </trkpt>
      <trkpt lat="43.003357909619808197021484375" lon="-1.268791817128658294677734375">
        <ele>970</ele>
        <time>2020-08-21T13:20:02.000Z</time>
      </trkpt>
      <trkpt lat="43.00334843806922435760498046875" lon="-1.26895870082080364227294921875">
        <ele>971</ele>
        <time>2020-08-21T13:20:08.000Z</time>
      </trkpt>
      <trkpt lat="43.0033480189740657806396484375" lon="-1.26898535527288913726806640625">
        <ele>971</ele>
        <time>2020-08-21T13:20:09.000Z</time>
      </trkpt>
      <trkpt lat="43.003341816365718841552734375" lon="-1.2691188789904117584228515625">
        <ele>972.20001220703125</ele>
        <time>2020-08-21T13:20:14.000Z</time>
      </trkpt>
      <trkpt lat="43.0033386312425136566162109375" lon="-1.26919657923281192779541015625">
        <ele>972.4000244140625</ele>
        <time>2020-08-21T13:20:17.000Z</time>
      </trkpt>
      <trkpt lat="43.0033399723470211029052734375" lon="-1.269403360784053802490234375">
        <ele>973</ele>
        <time>2020-08-21T13:20:25.000Z</time>
      </trkpt>
      <trkpt lat="43.0033413134515285491943359375" lon="-1.2694551609456539154052734375">
        <ele>973.5999755859375</ele>
        <time>2020-08-21T13:20:27.000Z</time>
      </trkpt>
      <trkpt lat="43.0033569037914276123046875" lon="-1.26956504769623279571533203125">
        <ele>974.4000244140625</ele>
        <time>2020-08-21T13:20:32.000Z</time>
      </trkpt>
      <trkpt lat="43.00337391905486583709716796875" lon="-1.26965004019439220428466796875">
        <ele>973.79998779296875</ele>
        <time>2020-08-21T13:20:38.000Z</time>
      </trkpt>
      <trkpt lat="43.00337291322648525238037109375" lon="-1.26966311596333980560302734375">
        <ele>973.79998779296875</ele>
        <time>2020-08-21T13:20:39.000Z</time>
      </trkpt>
      <trkpt lat="43.003343157470226287841796875" lon="-1.2697458453476428985595703125">
        <ele>973.5999755859375</ele>
        <time>2020-08-21T13:20:47.000Z</time>
      </trkpt>
      <trkpt lat="43.00328523851931095123291015625" lon="-1.26979672349989414215087890625">
        <ele>973.4000244140625</ele>
        <time>2020-08-21T13:20:53.000Z</time>
      </trkpt>
      <trkpt lat="43.0031813867390155792236328125" lon="-1.26984349451959133148193359375">
        <ele>973.5999755859375</ele>
        <time>2020-08-21T13:20:59.000Z</time>
      </trkpt>
      <trkpt lat="43.00305490382015705108642578125" lon="-1.2699131481349468231201171875">
        <ele>974.79998779296875</ele>
        <time>2020-08-21T13:21:06.000Z</time>
      </trkpt>
      <trkpt lat="43.00294510088860988616943359375" lon="-1.27004818059504032135009765625">
        <ele>975.5999755859375</ele>
        <time>2020-08-21T13:21:13.000Z</time>
      </trkpt>
      <trkpt lat="43.0029009282588958740234375" lon="-1.27015211619436740875244140625">
        <ele>975.79998779296875</ele>
        <time>2020-08-21T13:21:17.000Z</time>
      </trkpt>
      <trkpt lat="43.00285759381949901580810546875" lon="-1.27030399627983570098876953125">
        <ele>976.4000244140625</ele>
        <time>2020-08-21T13:21:22.000Z</time>
      </trkpt>
      <trkpt lat="43.002801351249217987060546875" lon="-1.27052678726613521575927734375">
        <ele>976.5999755859375</ele>
        <time>2020-08-21T13:21:29.000Z</time>
      </trkpt>
      <trkpt lat="43.0027441866695880889892578125" lon="-1.2707043997943401336669921875">
        <ele>976.5999755859375</ele>
        <time>2020-08-21T13:21:35.000Z</time>
      </trkpt>
      <trkpt lat="43.00266816280782222747802734375" lon="-1.2709525041282176971435546875">
        <ele>977.79998779296875</ele>
        <time>2020-08-21T13:21:43.000Z</time>
      </trkpt>
      <trkpt lat="43.0026576854288578033447265625" lon="-1.271012686192989349365234375">
        <ele>978.79998779296875</ele>
        <time>2020-08-21T13:21:45.000Z</time>
      </trkpt>
      <trkpt lat="43.002629689872264862060546875" lon="-1.27128803171217441558837890625">
        <ele>979.79998779296875</ele>
        <time>2020-08-21T13:21:54.000Z</time>
      </trkpt>
      <trkpt lat="43.00262809731066226959228515625" lon="-1.27131653018295764923095703125">
        <ele>980.20001220703125</ele>
        <time>2020-08-21T13:21:55.000Z</time>
      </trkpt>
      <trkpt lat="43.00261795520782470703125" lon="-1.27151392400264739990234375">
        <ele>981.20001220703125</ele>
        <time>2020-08-21T13:22:02.000Z</time>
      </trkpt>
      <trkpt lat="43.00261736847460269927978515625" lon="-1.27154217101633548736572265625">
        <ele>981.20001220703125</ele>
        <time>2020-08-21T13:22:03.000Z</time>
      </trkpt>
      <trkpt lat="43.00260529853403568267822265625" lon="-1.27168416045606136322021484375">
        <ele>982.4000244140625</ele>
        <time>2020-08-21T13:22:08.000Z</time>
      </trkpt>
      <trkpt lat="43.00259976647794246673583984375" lon="-1.27176445908844470977783203125">
        <ele>982.79998779296875</ele>
        <time>2020-08-21T13:22:11.000Z</time>
      </trkpt>
      <trkpt lat="43.00259138457477092742919921875" lon="-1.2718681432306766510009765625">
        <ele>983.4000244140625</ele>
        <time>2020-08-21T13:22:15.000Z</time>
      </trkpt>
      <trkpt lat="43.00258518196642398834228515625" lon="-1.2719720788300037384033203125">
        <ele>983.4000244140625</ele>
        <time>2020-08-21T13:22:19.000Z</time>
      </trkpt>
      <trkpt lat="43.00256229937076568603515625" lon="-1.2722151540219783782958984375">
        <ele>984.20001220703125</ele>
        <time>2020-08-21T13:22:28.000Z</time>
      </trkpt>
      <trkpt lat="43.002559952437877655029296875" lon="-1.27224122174084186553955078125">
        <ele>984.4000244140625</ele>
        <time>2020-08-21T13:22:29.000Z</time>
      </trkpt>
      <trkpt lat="43.002548553049564361572265625" lon="-1.27237784676253795623779296875">
        <ele>985.5999755859375</ele>
        <time>2020-08-21T13:22:34.000Z</time>
      </trkpt>
      <trkpt lat="43.0025336332619190216064453125" lon="-1.27248278819024562835693359375">
        <ele>986.20001220703125</ele>
        <time>2020-08-21T13:22:38.000Z</time>
      </trkpt>
      <trkpt lat="43.0025307834148406982421875" lon="-1.2725105322897434234619140625">
        <ele>986.5999755859375</ele>
        <time>2020-08-21T13:22:39.000Z</time>
      </trkpt>
      <trkpt lat="43.00250890664756298065185546875" lon="-1.27270759083330631256103515625">
        <ele>987.5999755859375</ele>
        <time>2020-08-21T13:22:47.000Z</time>
      </trkpt>
      <trkpt lat="43.0024964176118373870849609375" lon="-1.27282443456351757049560546875">
        <ele>988.79998779296875</ele>
        <time>2020-08-21T13:22:52.000Z</time>
      </trkpt>
      <trkpt lat="43.00249390304088592529296875" lon="-1.27284790389239788055419921875">
        <ele>989.20001220703125</ele>
        <time>2020-08-21T13:22:53.000Z</time>
      </trkpt>
      <trkpt lat="43.00248359329998493194580078125" lon="-1.27294194884598255157470703125">
        <ele>989.79998779296875</ele>
        <time>2020-08-21T13:22:57.000Z</time>
      </trkpt>
      <trkpt lat="43.00248124636709690093994140625" lon="-1.2729655019938945770263671875">
        <ele>990</ele>
        <time>2020-08-21T13:22:58.000Z</time>
      </trkpt>
      <trkpt lat="43.00246934406459331512451171875" lon="-1.27313473261892795562744140625">
        <ele>991</ele>
        <time>2020-08-21T13:23:05.000Z</time>
      </trkpt>
      <trkpt lat="43.0024610459804534912109375" lon="-1.27318133600056171417236328125">
        <ele>991.5999755859375</ele>
        <time>2020-08-21T13:23:07.000Z</time>
      </trkpt>
      <trkpt lat="43.00245543010532855987548828125" lon="-1.27336070872843265533447265625">
        <ele>991.79998779296875</ele>
        <time>2020-08-21T13:23:14.000Z</time>
      </trkpt>
      <trkpt lat="43.0024558492004871368408203125" lon="-1.273388452827930450439453125">
        <ele>992.20001220703125</ele>
        <time>2020-08-21T13:23:15.000Z</time>
      </trkpt>
      <trkpt lat="43.00246397964656352996826171875" lon="-1.27355198375880718231201171875">
        <ele>993.4000244140625</ele>
        <time>2020-08-21T13:23:21.000Z</time>
      </trkpt>
      <trkpt lat="43.0024652369320392608642578125" lon="-1.27357922494411468505859375">
        <ele>993.5999755859375</ele>
        <time>2020-08-21T13:23:22.000Z</time>
      </trkpt>
      <trkpt lat="43.002497591078281402587890625" lon="-1.2739679776132106781005859375">
        <ele>994</ele>
        <time>2020-08-21T13:23:35.000Z</time>
      </trkpt>
      <trkpt lat="43.00249784253537654876708984375" lon="-1.27405799925327301025390625">
        <ele>994.4000244140625</ele>
        <time>2020-08-21T13:23:38.000Z</time>
      </trkpt>
      <trkpt lat="43.00249599851667881011962890625" lon="-1.27414382994174957275390625">
        <ele>994.79998779296875</ele>
        <time>2020-08-21T13:23:41.000Z</time>
      </trkpt>
      <trkpt lat="43.0024877004325389862060546875" lon="-1.27427249215543270111083984375">
        <ele>995.5999755859375</ele>
        <time>2020-08-21T13:23:46.000Z</time>
      </trkpt>
      <trkpt lat="43.00248258747160434722900390625" lon="-1.274319179356098175048828125">
        <ele>995.5999755859375</ele>
        <time>2020-08-21T13:23:48.000Z</time>
      </trkpt>
      <trkpt lat="43.0024853534996509552001953125" lon="-1.27442948520183563232421875">
        <ele>996.20001220703125</ele>
        <time>2020-08-21T13:23:53.000Z</time>
      </trkpt>
      <trkpt lat="43.002489544451236724853515625" lon="-1.2744843028485774993896484375">
        <ele>996.5999755859375</ele>
        <time>2020-08-21T13:23:55.000Z</time>
      </trkpt>
      <trkpt lat="43.00249281339347362518310546875" lon="-1.27454004250466823577880859375">
        <ele>997.79998779296875</ele>
        <time>2020-08-21T13:23:57.000Z</time>
      </trkpt>
      <trkpt lat="43.0024950765073299407958984375" lon="-1.27462956123054027557373046875">
        <ele>998.4000244140625</ele>
        <time>2020-08-21T13:24:00.000Z</time>
      </trkpt>
      <trkpt lat="43.0024538375437259674072265625" lon="-1.27474975772202014923095703125">
        <ele>998.4000244140625</ele>
        <time>2020-08-21T13:24:05.000Z</time>
      </trkpt>
      <trkpt lat="43.00243933685123920440673828125" lon="-1.27476618625223636627197265625">
        <ele>998.79998779296875</ele>
        <time>2020-08-21T13:24:06.000Z</time>
      </trkpt>
      <trkpt lat="43.0023633129894733428955078125" lon="-1.27478219568729400634765625">
        <ele>999.20001220703125</ele>
        <time>2020-08-21T13:24:10.000Z</time>
      </trkpt>
      <trkpt lat="43.0023108422756195068359375" lon="-1.27478060312569141387939453125">
        <ele>1000</ele>
        <time>2020-08-21T13:24:13.000Z</time>
      </trkpt>
      <trkpt lat="43.00224605016410350799560546875" lon="-1.27476149238646030426025390625">
        <ele>1000.5999755859375</ele>
        <time>2020-08-21T13:24:17.000Z</time>
      </trkpt>
      <trkpt lat="43.00216876901686191558837890625" lon="-1.2747354246675968170166015625">
        <ele>1001.20001220703125</ele>
        <time>2020-08-21T13:24:22.000Z</time>
      </trkpt>
      <trkpt lat="43.00210758112370967864990234375" lon="-1.27473584376275539398193359375">
        <ele>1002.20001220703125</ele>
        <time>2020-08-21T13:24:26.000Z</time>
      </trkpt>
      <trkpt lat="43.00209064967930316925048828125" lon="-1.2747350893914699554443359375">
        <ele>1002.4000244140625</ele>
        <time>2020-08-21T13:24:27.000Z</time>
      </trkpt>
      <trkpt lat="43.0020273663103580474853515625" lon="-1.27475629560649394989013671875">
        <ele>1003.4000244140625</ele>
        <time>2020-08-21T13:24:31.000Z</time>
      </trkpt>
      <trkpt lat="43.00199501216411590576171875" lon="-1.27476970665156841278076171875">
        <ele>1003.5999755859375</ele>
        <time>2020-08-21T13:24:33.000Z</time>
      </trkpt>
      <trkpt lat="43.00185151398181915283203125" lon="-1.27481262199580669403076171875">
        <ele>1004.20001220703125</ele>
        <time>2020-08-21T13:24:41.000Z</time>
      </trkpt>
      <trkpt lat="43.0018144659698009490966796875" lon="-1.27482435666024684906005859375">
        <ele>1004.4000244140625</ele>
        <time>2020-08-21T13:24:43.000Z</time>
      </trkpt>
      <trkpt lat="43.0016853846609592437744140625" lon="-1.2748635001480579376220703125">
        <ele>1005.20001220703125</ele>
        <time>2020-08-21T13:24:50.000Z</time>
      </trkpt>
      <trkpt lat="43.0016474984586238861083984375" lon="-1.274867020547389984130859375">
        <ele>1005.20001220703125</ele>
        <time>2020-08-21T13:24:52.000Z</time>
      </trkpt>
      <trkpt lat="43.0015385337173938751220703125" lon="-1.27489476464688777923583984375">
        <ele>1006</ele>
        <time>2020-08-21T13:24:58.000Z</time>
      </trkpt>
      <trkpt lat="43.0014751665294170379638671875" lon="-1.2749188207089900970458984375">
        <ele>1006.4000244140625</ele>
        <time>2020-08-21T13:25:02.000Z</time>
      </trkpt>
      <trkpt lat="43.001435101032257080078125" lon="-1.27494304440915584564208984375">
        <ele>1006.5999755859375</ele>
        <time>2020-08-21T13:25:05.000Z</time>
      </trkpt>
      <trkpt lat="43.00142311491072177886962890625" lon="-1.27495444379746913909912109375">
        <ele>1006.79998779296875</ele>
        <time>2020-08-21T13:25:06.000Z</time>
      </trkpt>
      <trkpt lat="43.00137265585362911224365234375" lon="-1.275001801550388336181640625">
        <ele>1007.4000244140625</ele>
        <time>2020-08-21T13:25:10.000Z</time>
      </trkpt>
      <trkpt lat="43.00135924480855464935302734375" lon="-1.2750150449573993682861328125">
        <ele>1007.4000244140625</ele>
        <time>2020-08-21T13:25:11.000Z</time>
      </trkpt>
      <trkpt lat="43.001290597021579742431640625" lon="-1.2750899791717529296875">
        <ele>1008.5999755859375</ele>
        <time>2020-08-21T13:25:16.000Z</time>
      </trkpt>
      <trkpt lat="43.00125069916248321533203125" lon="-1.2751330621540546417236328125">
        <ele>1009.20001220703125</ele>
        <time>2020-08-21T13:25:19.000Z</time>
      </trkpt>
      <trkpt lat="43.00118171609938144683837890625" lon="-1.2752155400812625885009765625">
        <ele>1009.5999755859375</ele>
        <time>2020-08-21T13:25:24.000Z</time>
      </trkpt>
      <trkpt lat="43.0011700652539730072021484375" lon="-1.275237165391445159912109375">
        <ele>1010</ele>
        <time>2020-08-21T13:25:25.000Z</time>
      </trkpt>
      <trkpt lat="43.0011244677007198333740234375" lon="-1.275323666632175445556640625">
        <ele>1010.79998779296875</ele>
        <time>2020-08-21T13:25:29.000Z</time>
      </trkpt>
      <trkpt lat="43.00107174552977085113525390625" lon="-1.27543170936405658721923828125">
        <ele>1011.79998779296875</ele>
        <time>2020-08-21T13:25:34.000Z</time>
      </trkpt>
      <trkpt lat="43.0010101385414600372314453125" lon="-1.275602616369724273681640625">
        <ele>1012.79998779296875</ele>
        <time>2020-08-21T13:25:41.000Z</time>
      </trkpt>
      <trkpt lat="43.00099932588636875152587890625" lon="-1.27564997412264347076416015625">
        <ele>1013</ele>
        <time>2020-08-21T13:25:43.000Z</time>
      </trkpt>
      <trkpt lat="43.00096445716917514801025390625" lon="-1.27579280175268650054931640625">
        <ele>1014</ele>
        <time>2020-08-21T13:25:49.000Z</time>
      </trkpt>
      <trkpt lat="43.0009548179805278778076171875" lon="-1.2758398242294788360595703125">
        <ele>1014.79998779296875</ele>
        <time>2020-08-21T13:25:51.000Z</time>
      </trkpt>
      <trkpt lat="43.00094568170607089996337890625" lon="-1.27588399685919284820556640625">
        <ele>1015.20001220703125</ele>
        <time>2020-08-21T13:25:53.000Z</time>
      </trkpt>
      <trkpt lat="43.0009192787110805511474609375" lon="-1.27606906928122043609619140625">
        <ele>1016</ele>
        <time>2020-08-21T13:26:01.000Z</time>
      </trkpt>
      <trkpt lat="43.00091902725398540496826171875" lon="-1.2760932929813861846923828125">
        <ele>1016.20001220703125</ele>
        <time>2020-08-21T13:26:02.000Z</time>
      </trkpt>
      <trkpt lat="43.0009048618376255035400390625" lon="-1.2763112224638462066650390625">
        <ele>1016.5999755859375</ele>
        <time>2020-08-21T13:26:11.000Z</time>
      </trkpt>
      <trkpt lat="43.0009122379124164581298828125" lon="-1.27636872231960296630859375">
        <ele>1017</ele>
        <time>2020-08-21T13:26:16.000Z</time>
      </trkpt>
      <trkpt lat="43.00091315992176532745361328125" lon="-1.2763715721666812896728515625">
        <ele>1017</ele>
        <time>2020-08-21T13:29:10.000Z</time>
      </trkpt>
      <trkpt lat="43.0009269900619983673095703125" lon="-1.2764181755483150482177734375">
        <ele>1016.5999755859375</ele>
        <time>2020-08-21T13:29:16.000Z</time>
      </trkpt>
      <trkpt lat="43.0010134913027286529541015625" lon="-1.276552788913249969482421875">
        <ele>1016.20001220703125</ele>
        <time>2020-08-21T13:29:23.000Z</time>
      </trkpt>
      <trkpt lat="43.00113201141357421875" lon="-1.27676459960639476776123046875">
        <ele>1016.4000244140625</ele>
        <time>2020-08-21T13:29:31.000Z</time>
      </trkpt>
      <trkpt lat="43.0012659542262554168701171875" lon="-1.2769447267055511474609375">
        <ele>1016.20001220703125</ele>
        <time>2020-08-21T13:29:39.000Z</time>
      </trkpt>
      <trkpt lat="43.0013957060873508453369140625" lon="-1.2771688587963581085205078125">
        <ele>1017</ele>
        <time>2020-08-21T13:29:48.000Z</time>
      </trkpt>
      <trkpt lat="43.00143434666097164154052734375" lon="-1.27723080106079578399658203125">
        <ele>1018</ele>
        <time>2020-08-21T13:29:51.000Z</time>
      </trkpt>
      <trkpt lat="43.0014607496559619903564453125" lon="-1.27727002836763858795166015625">
        <ele>1018.4000244140625</ele>
        <time>2020-08-21T13:29:53.000Z</time>
      </trkpt>
      <trkpt lat="43.0015227757394313812255859375" lon="-1.2774437852203845977783203125">
        <ele>1018</ele>
        <time>2020-08-21T13:30:00.000Z</time>
      </trkpt>
      <trkpt lat="43.00157818011939525604248046875" lon="-1.27760010771453380584716796875">
        <ele>1018.5999755859375</ele>
        <time>2020-08-21T13:30:06.000Z</time>
      </trkpt>
      <trkpt lat="43.00165177322924137115478515625" lon="-1.2777783907949924468994140625">
        <ele>1018.4000244140625</ele>
        <time>2020-08-21T13:30:13.000Z</time>
      </trkpt>
      <trkpt lat="43.001741878688335418701171875" lon="-1.27798634581267833709716796875">
        <ele>1018.79998779296875</ele>
        <time>2020-08-21T13:30:20.000Z</time>
      </trkpt>
      <trkpt lat="43.00185059197247028350830078125" lon="-1.2782283313572406768798828125">
        <ele>1018.79998779296875</ele>
        <time>2020-08-21T13:30:28.000Z</time>
      </trkpt>
      <trkpt lat="43.0019653402268886566162109375" lon="-1.278503425419330596923828125">
        <ele>1018.79998779296875</ele>
        <time>2020-08-21T13:30:37.000Z</time>
      </trkpt>
      <trkpt lat="43.0019807629287242889404296875" lon="-1.2785310856997966766357421875">
        <ele>1019</ele>
        <time>2020-08-21T13:30:38.000Z</time>
      </trkpt>
      <trkpt lat="43.00210037268698215484619140625" lon="-1.2787436507642269134521484375">
        <ele>1020</ele>
        <time>2020-08-21T13:30:46.000Z</time>
      </trkpt>
      <trkpt lat="43.0022717826068401336669921875" lon="-1.27898446284234523773193359375">
        <ele>1019.20001220703125</ele>
        <time>2020-08-21T13:30:56.000Z</time>
      </trkpt>
      <trkpt lat="43.00240212120115756988525390625" lon="-1.27916760742664337158203125">
        <ele>1020.20001220703125</ele>
        <time>2020-08-21T13:31:04.000Z</time>
      </trkpt>
      <trkpt lat="43.00249599851667881011962890625" lon="-1.27933868207037448883056640625">
        <ele>1020.5999755859375</ele>
        <time>2020-08-21T13:31:11.000Z</time>
      </trkpt>
      <trkpt lat="43.0025654844939708709716796875" lon="-1.27952258102595806121826171875">
        <ele>1021</ele>
        <time>2020-08-21T13:31:18.000Z</time>
      </trkpt>
      <trkpt lat="43.00257327966392040252685546875" lon="-1.279547475278377532958984375">
        <ele>1021.20001220703125</ele>
        <time>2020-08-21T13:31:19.000Z</time>
      </trkpt>
      <trkpt lat="43.00259037874639034271240234375" lon="-1.27969508059322834014892578125">
        <ele>1021.4000244140625</ele>
        <time>2020-08-21T13:31:24.000Z</time>
      </trkpt>
      <trkpt lat="43.00259088166058063507080078125" lon="-1.2797840125858783721923828125">
        <ele>1022.20001220703125</ele>
        <time>2020-08-21T13:31:27.000Z</time>
      </trkpt>
      <trkpt lat="43.0025817453861236572265625" lon="-1.27987814135849475860595703125">
        <ele>1022.79998779296875</ele>
        <time>2020-08-21T13:31:30.000Z</time>
      </trkpt>
      <trkpt lat="43.00257411785423755645751953125" lon="-1.2799389101564884185791015625">
        <ele>1023.20001220703125</ele>
        <time>2020-08-21T13:31:32.000Z</time>
      </trkpt>
      <trkpt lat="43.00257478840649127960205078125" lon="-1.28003454767167568206787109375">
        <ele>1024.5999755859375</ele>
        <time>2020-08-21T13:31:35.000Z</time>
      </trkpt>
      <trkpt lat="43.00257814116775989532470703125" lon="-1.28009489737451076507568359375">
        <ele>1025</ele>
        <time>2020-08-21T13:31:38.000Z</time>
      </trkpt>
      <trkpt lat="43.00256774760782718658447265625" lon="-1.28013445995748043060302734375">
        <ele>1025.5999755859375</ele>
        <time>2020-08-21T13:31:44.000Z</time>
      </trkpt>
      <trkpt lat="43.002561964094638824462890625" lon="-1.2802143394947052001953125">
        <ele>1025.4000244140625</ele>
        <time>2020-08-21T13:31:51.000Z</time>
      </trkpt>
      <trkpt lat="43.00256137736141681671142578125" lon="-1.28021526150405406951904296875">
        <ele>1025.5999755859375</ele>
        <time>2020-08-21T13:31:52.000Z</time>
      </trkpt>
      <trkpt lat="43.00255022943019866943359375" lon="-1.28026857040822505950927734375">
        <ele>1026.4000244140625</ele>
        <time>2020-08-21T13:31:57.000Z</time>
      </trkpt>
      <trkpt lat="43.00255131907761096954345703125" lon="-1.280290447175502777099609375">
        <ele>1026.800048828125</ele>
        <time>2020-08-21T13:31:58.000Z</time>
      </trkpt>
      <trkpt lat="43.00258317030966281890869140625" lon="-1.28044123761355876922607421875">
        <ele>1027.199951171875</ele>
        <time>2020-08-21T13:32:04.000Z</time>
      </trkpt>
      <trkpt lat="43.0026214756071567535400390625" lon="-1.28054131753742694854736328125">
        <ele>1027.800048828125</ele>
        <time>2020-08-21T13:32:08.000Z</time>
      </trkpt>
      <trkpt lat="43.00269850529730319976806640625" lon="-1.280679367482662200927734375">
        <ele>1028</ele>
        <time>2020-08-21T13:32:14.000Z</time>
      </trkpt>
      <trkpt lat="43.00280445255339145660400390625" lon="-1.28086351789534091949462890625">
        <ele>1028</ele>
        <time>2020-08-21T13:32:22.000Z</time>
      </trkpt>
      <trkpt lat="43.0028940550982952117919921875" lon="-1.28103249706327915191650390625">
        <ele>1028.5999755859375</ele>
        <time>2020-08-21T13:32:29.000Z</time>
      </trkpt>
      <trkpt lat="43.00299187190830707550048828125" lon="-1.28114447928965091705322265625">
        <ele>1028.4000244140625</ele>
        <time>2020-08-21T13:32:34.000Z</time>
      </trkpt>
      <trkpt lat="43.0031557381153106689453125" lon="-1.28131127916276454925537109375">
        <ele>1028.5999755859375</ele>
        <time>2020-08-21T13:32:42.000Z</time>
      </trkpt>
      <trkpt lat="43.0032658763229846954345703125" lon="-1.28140247426927089691162109375">
        <ele>1028.800048828125</ele>
        <time>2020-08-21T13:32:48.000Z</time>
      </trkpt>
      <trkpt lat="43.00327903591096401214599609375" lon="-1.28141404129564762115478515625">
        <ele>1029.199951171875</ele>
        <time>2020-08-21T13:32:49.000Z</time>
      </trkpt>
      <trkpt lat="43.0033228732645511627197265625" lon="-1.281449161469936370849609375">
        <ele>1029.199951171875</ele>
        <time>2020-08-21T13:32:55.000Z</time>
      </trkpt>
      <trkpt lat="43.00332362763583660125732421875" lon="-1.28145008347928524017333984375">
        <ele>1029.4000244140625</ele>
        <time>2020-08-21T13:32:57.000Z</time>
      </trkpt>
      <trkpt lat="43.00331071950495243072509765625" lon="-1.28144723363220691680908203125">
        <ele>1029.4000244140625</ele>
        <time>2020-08-21T13:34:17.000Z</time>
      </trkpt>
      <trkpt lat="43.0033456720411777496337890625" lon="-1.28146131522953510284423828125">
        <ele>1029.199951171875</ele>
        <time>2020-08-21T13:34:23.000Z</time>
      </trkpt>
      <trkpt lat="43.003425635397434234619140625" lon="-1.2815009616315364837646484375">
        <ele>1029.5999755859375</ele>
        <time>2020-08-21T13:34:28.000Z</time>
      </trkpt>
      <trkpt lat="43.00345958210527896881103515625" lon="-1.28151764161884784698486328125">
        <ele>1030.199951171875</ele>
        <time>2020-08-21T13:34:30.000Z</time>
      </trkpt>
      <trkpt lat="43.00356485880911350250244140625" lon="-1.281607411801815032958984375">
        <ele>1030.199951171875</ele>
        <time>2020-08-21T13:34:37.000Z</time>
      </trkpt>
      <trkpt lat="43.00368388183414936065673828125" lon="-1.2817403487861156463623046875">
        <ele>1030.800048828125</ele>
        <time>2020-08-21T13:34:44.000Z</time>
      </trkpt>
      <trkpt lat="43.0037010647356510162353515625" lon="-1.28175702877342700958251953125">
        <ele>1031</ele>
        <time>2020-08-21T13:34:45.000Z</time>
      </trkpt>
      <trkpt lat="43.00375378690659999847412109375" lon="-1.28184822387993335723876953125">
        <ele>1032</ele>
        <time>2020-08-21T13:34:49.000Z</time>
      </trkpt>
      <trkpt lat="43.00376552157104015350341796875" lon="-1.28187269903719425201416015625">
        <ele>1032.4000244140625</ele>
        <time>2020-08-21T13:34:50.000Z</time>
      </trkpt>
      <trkpt lat="43.00378547050058841705322265625" lon="-1.28195450641214847564697265625">
        <ele>1033</ele>
        <time>2020-08-21T13:34:53.000Z</time>
      </trkpt>
      <trkpt lat="43.00381463952362537384033203125" lon="-1.2820330448448657989501953125">
        <ele>1033.199951171875</ele>
        <time>2020-08-21T13:34:56.000Z</time>
      </trkpt>
      <trkpt lat="43.0038777552545070648193359375" lon="-1.28223530016839504241943359375">
        <ele>1033.800048828125</ele>
        <time>2020-08-21T13:35:04.000Z</time>
      </trkpt>
      <trkpt lat="43.003962747752666473388671875" lon="-1.28248776309192180633544921875">
        <ele>1033.5999755859375</ele>
        <time>2020-08-21T13:35:12.000Z</time>
      </trkpt>
      <trkpt lat="43.00403659231960773468017578125" lon="-1.28272145055234432220458984375">
        <ele>1033.800048828125</ele>
        <time>2020-08-21T13:35:19.000Z</time>
      </trkpt>
      <trkpt lat="43.004095852375030517578125" lon="-1.282934434711933135986328125">
        <ele>1034</ele>
        <time>2020-08-21T13:35:25.000Z</time>
      </trkpt>
      <trkpt lat="43.0041087605059146881103515625" lon="-1.282968632876873016357421875">
        <ele>1034.199951171875</ele>
        <time>2020-08-21T13:35:26.000Z</time>
      </trkpt>
      <trkpt lat="43.00418813712894916534423828125" lon="-1.28324724733829498291015625">
        <ele>1033.800048828125</ele>
        <time>2020-08-21T13:35:34.000Z</time>
      </trkpt>
      <trkpt lat="43.00425820983946323394775390625" lon="-1.28352217376232147216796875">
        <ele>1034.5999755859375</ele>
        <time>2020-08-21T13:35:42.000Z</time>
      </trkpt>
      <trkpt lat="43.00434856675565242767333984375" lon="-1.28386843018233776092529296875">
        <ele>1034.4000244140625</ele>
        <time>2020-08-21T13:35:52.000Z</time>
      </trkpt>
      <trkpt lat="43.00445954315364360809326171875" lon="-1.28422013483941555023193359375">
        <ele>1034.800048828125</ele>
        <time>2020-08-21T13:36:02.000Z</time>
      </trkpt>
      <trkpt lat="43.00451218150556087493896484375" lon="-1.284353323280811309814453125">
        <ele>1035.4000244140625</ele>
        <time>2020-08-21T13:36:06.000Z</time>
      </trkpt>
      <trkpt lat="43.0045747943222522735595703125" lon="-1.28451534546911716461181640625">
        <ele>1036</ele>
        <time>2020-08-21T13:36:11.000Z</time>
      </trkpt>
      <trkpt lat="43.00469943322241306304931640625" lon="-1.28476814366877079010009765625">
        <ele>1036</ele>
        <time>2020-08-21T13:36:19.000Z</time>
      </trkpt>
      <trkpt lat="43.004777133464813232421875" lon="-1.28493226133286952972412109375">
        <ele>1035.800048828125</ele>
        <time>2020-08-21T13:36:24.000Z</time>
      </trkpt>
      <trkpt lat="43.00489037297666072845458984375" lon="-1.28512839786708354949951171875">
        <ele>1035.800048828125</ele>
        <time>2020-08-21T13:36:30.000Z</time>
      </trkpt>
      <trkpt lat="43.00507309846580028533935546875" lon="-1.2854122929275035858154296875">
        <ele>1035.5999755859375</ele>
        <time>2020-08-21T13:36:38.000Z</time>
      </trkpt>
      <trkpt lat="43.005174100399017333984375" lon="-1.28553450107574462890625">
        <ele>1034</ele>
        <time>2020-08-21T13:36:42.000Z</time>
      </trkpt>
      <trkpt lat="43.00525029189884662628173828125" lon="-1.285642124712467193603515625">
        <ele>1034</ele>
        <time>2020-08-21T13:36:45.000Z</time>
      </trkpt>
      <trkpt lat="43.0053891800343990325927734375" lon="-1.28583700396120548248291015625">
        <ele>1032.4000244140625</ele>
        <time>2020-08-21T13:36:50.000Z</time>
      </trkpt>
      <trkpt lat="43.00544760189950466156005859375" lon="-1.2859128601849079132080078125">
        <ele>1030.800048828125</ele>
        <time>2020-08-21T13:36:52.000Z</time>
      </trkpt>
      <trkpt lat="43.00551381893455982208251953125" lon="-1.28597949631512165069580078125">
        <ele>1030</ele>
        <time>2020-08-21T13:36:54.000Z</time>
      </trkpt>
      <trkpt lat="43.00562697462737560272216796875" lon="-1.2860587053000926971435546875">
        <ele>1030.199951171875</ele>
        <time>2020-08-21T13:36:57.000Z</time>
      </trkpt>
      <trkpt lat="43.00566351972520351409912109375" lon="-1.28608410246670246124267578125">
        <ele>1029.5999755859375</ele>
        <time>2020-08-21T13:36:58.000Z</time>
      </trkpt>
      <trkpt lat="43.00570341758430004119873046875" lon="-1.2861069850623607635498046875">
        <ele>1029.199951171875</ele>
        <time>2020-08-21T13:36:59.000Z</time>
      </trkpt>
      <trkpt lat="43.0058729834854602813720703125" lon="-1.2861730344593524932861328125">
        <ele>1028.5999755859375</ele>
        <time>2020-08-21T13:37:03.000Z</time>
      </trkpt>
      <trkpt lat="43.00600089132785797119140625" lon="-1.28621838055551052093505859375">
        <ele>1028</ele>
        <time>2020-08-21T13:37:06.000Z</time>
      </trkpt>
      <trkpt lat="43.00608010031282901763916015625" lon="-1.28625693731009960174560546875">
        <ele>1026</ele>
        <time>2020-08-21T13:37:08.000Z</time>
      </trkpt>
      <trkpt lat="43.0061167292296886444091796875" lon="-1.28627889789640903472900390625">
        <ele>1025.199951171875</ele>
        <time>2020-08-21T13:37:09.000Z</time>
      </trkpt>
      <trkpt lat="43.0061485804617404937744140625" lon="-1.28630035556852817535400390625">
        <ele>1024</ele>
        <time>2020-08-21T13:37:10.000Z</time>
      </trkpt>
      <trkpt lat="43.006172217428684234619140625" lon="-1.2863336317241191864013671875">
        <ele>1023.5999755859375</ele>
        <time>2020-08-21T13:37:11.000Z</time>
      </trkpt>
      <trkpt lat="43.00618504174053668975830078125" lon="-1.2863778881728649139404296875">
        <ele>1023.4000244140625</ele>
        <time>2020-08-21T13:37:12.000Z</time>
      </trkpt>
      <trkpt lat="43.006175570189952850341796875" lon="-1.2865282595157623291015625">
        <ele>1023</ele>
        <time>2020-08-21T13:37:15.000Z</time>
      </trkpt>
      <trkpt lat="43.00615872256457805633544921875" lon="-1.28657327033579349517822265625">
        <ele>1023</ele>
        <time>2020-08-21T13:37:16.000Z</time>
      </trkpt>
      <trkpt lat="43.006118573248386383056640625" lon="-1.2866360507905483245849609375">
        <ele>1022.79998779296875</ele>
        <time>2020-08-21T13:37:18.000Z</time>
      </trkpt>
      <trkpt lat="43.00608982332050800323486328125" lon="-1.28667485900223255157470703125">
        <ele>1023</ele>
        <time>2020-08-21T13:37:20.000Z</time>
      </trkpt>
      <trkpt lat="43.00595638342201709747314453125" lon="-1.28678633831441402435302734375">
        <ele>1023.20001220703125</ele>
        <time>2020-08-21T13:37:27.000Z</time>
      </trkpt>
      <trkpt lat="43.0058401264250278472900390625" lon="-1.28686596639454364776611328125">
        <ele>1024.199951171875</ele>
        <time>2020-08-21T13:37:32.000Z</time>
      </trkpt>
      <trkpt lat="43.00581405870616436004638671875" lon="-1.28688222728669643402099609375">
        <ele>1024.5999755859375</ele>
        <time>2020-08-21T13:37:33.000Z</time>
      </trkpt>
      <trkpt lat="43.0056614242494106292724609375" lon="-1.2869927845895290374755859375">
        <ele>1025.4000244140625</ele>
        <time>2020-08-21T13:37:39.000Z</time>
      </trkpt>
      <trkpt lat="43.00558841787278652191162109375" lon="-1.28704248927533626556396484375">
        <ele>1025.5999755859375</ele>
        <time>2020-08-21T13:37:42.000Z</time>
      </trkpt>
      <trkpt lat="43.00545581616461277008056640625" lon="-1.28714290447533130645751953125">
        <ele>1026</ele>
        <time>2020-08-21T13:37:48.000Z</time>
      </trkpt>
      <trkpt lat="43.005309216678142547607421875" lon="-1.28716654144227504730224609375">
        <ele>1026.4000244140625</ele>
        <time>2020-08-21T13:37:54.000Z</time>
      </trkpt>
      <trkpt lat="43.0052827298641204833984375" lon="-1.28717266023159027099609375">
        <ele>1026.5999755859375</ele>
        <time>2020-08-21T13:37:55.000Z</time>
      </trkpt>
      <trkpt lat="43.00519765354692935943603515625" lon="-1.287179030478000640869140625">
        <ele>1027</ele>
        <time>2020-08-21T13:37:59.000Z</time>
      </trkpt>
      <trkpt lat="43.00506412982940673828125" lon="-1.287189759314060211181640625">
        <ele>1027.5999755859375</ele>
        <time>2020-08-21T13:38:04.000Z</time>
      </trkpt>
      <trkpt lat="43.00503873266279697418212890625" lon="-1.28719017840921878814697265625">
        <ele>1027.800048828125</ele>
        <time>2020-08-21T13:38:05.000Z</time>
      </trkpt>
      <trkpt lat="43.00491116009652614593505859375" lon="-1.2871724925935268402099609375">
        <ele>1028.5999755859375</ele>
        <time>2020-08-21T13:38:10.000Z</time>
      </trkpt>
      <trkpt lat="43.0048208869993686676025390625" lon="-1.2871745042502880096435546875">
        <ele>1029</ele>
        <time>2020-08-21T13:38:14.000Z</time>
      </trkpt>
      <trkpt lat="43.00477051176130771636962890625" lon="-1.2871815450489521026611328125">
        <ele>1029</ele>
        <time>2020-08-21T13:38:16.000Z</time>
      </trkpt>
      <trkpt lat="43.00472944043576717376708984375" lon="-1.28717576153576374053955078125">
        <ele>1029</ele>
        <time>2020-08-21T13:38:18.000Z</time>
      </trkpt>
      <trkpt lat="43.004669845104217529296875" lon="-1.2871785275638103485107421875">
        <ele>1029.199951171875</ele>
        <time>2020-08-21T13:38:21.000Z</time>
      </trkpt>
      <trkpt lat="43.00459273159503936767578125" lon="-1.287193112075328826904296875">
        <ele>1030</ele>
        <time>2020-08-21T13:38:24.000Z</time>
      </trkpt>
      <trkpt lat="43.004538081586360931396484375" lon="-1.2871916033327579498291015625">
        <ele>1030.199951171875</ele>
        <time>2020-08-21T13:38:26.000Z</time>
      </trkpt>
      <trkpt lat="43.00441293977200984954833984375" lon="-1.28724516369402408599853515625">
        <ele>1030.4000244140625</ele>
        <time>2020-08-21T13:38:31.000Z</time>
      </trkpt>
      <trkpt lat="43.00436331890523433685302734375" lon="-1.28736183978617191314697265625">
        <ele>1031</ele>
        <time>2020-08-21T13:38:35.000Z</time>
      </trkpt>
      <trkpt lat="43.004364073276519775390625" lon="-1.28739419393241405487060546875">
        <ele>1031.199951171875</ele>
        <time>2020-08-21T13:38:36.000Z</time>
      </trkpt>
      <trkpt lat="43.00442920066416263580322265625" lon="-1.287527047097682952880859375">
        <ele>1030.4000244140625</ele>
        <time>2020-08-21T13:38:41.000Z</time>
      </trkpt>
      <trkpt lat="43.00456934608519077301025390625" lon="-1.28769242204725742340087890625">
        <ele>1031.800048828125</ele>
        <time>2020-08-21T13:38:49.000Z</time>
      </trkpt>
      <trkpt lat="43.00460002385079860687255859375" lon="-1.2877325713634490966796875">
        <ele>1032.199951171875</ele>
        <time>2020-08-21T13:38:51.000Z</time>
      </trkpt>
      <trkpt lat="43.004679568111896514892578125" lon="-1.287813372910022735595703125">
        <ele>1033</ele>
        <time>2020-08-21T13:38:57.000Z</time>
      </trkpt>
      <trkpt lat="43.0046921409666538238525390625" lon="-1.28782586194574832916259765625">
        <ele>1033.4000244140625</ele>
        <time>2020-08-21T13:38:58.000Z</time>
      </trkpt>
      <trkpt lat="43.00472675822675228118896484375" lon="-1.28787766210734844207763671875">
        <ele>1034.4000244140625</ele>
        <time>2020-08-21T13:39:01.000Z</time>
      </trkpt>
      <trkpt lat="43.00476782955229282379150390625" lon="-1.28795997239649295806884765625">
        <ele>1035.4000244140625</ele>
        <time>2020-08-21T13:39:05.000Z</time>
      </trkpt>
      <trkpt lat="43.00478425808250904083251953125" lon="-1.28800322301685810089111328125">
        <ele>1035.5999755859375</ele>
        <time>2020-08-21T13:39:07.000Z</time>
      </trkpt>
      <trkpt lat="43.0048322863876819610595703125" lon="-1.28810942173004150390625">
        <ele>1036.5999755859375</ele>
        <time>2020-08-21T13:39:12.000Z</time>
      </trkpt>
      <trkpt lat="43.00490445457398891448974609375" lon="-1.28824998624622821807861328125">
        <ele>1037.4000244140625</ele>
        <time>2020-08-21T13:39:18.000Z</time>
      </trkpt>
      <trkpt lat="43.004946447908878326416015625" lon="-1.28832257352769374847412109375">
        <ele>1037.800048828125</ele>
        <time>2020-08-21T13:39:22.000Z</time>
      </trkpt>
      <trkpt lat="43.00496689975261688232421875" lon="-1.28836196847259998321533203125">
        <ele>1038</ele>
        <time>2020-08-21T13:39:24.000Z</time>
      </trkpt>
      <trkpt lat="43.0050140060484409332275390625" lon="-1.28855760209262371063232421875">
        <ele>1038.800048828125</ele>
        <time>2020-08-21T13:39:31.000Z</time>
      </trkpt>
      <trkpt lat="43.00501249730587005615234375" lon="-1.288682408630847930908203125">
        <ele>1038.4000244140625</ele>
        <time>2020-08-21T13:39:36.000Z</time>
      </trkpt>
      <trkpt lat="43.00494485534727573394775390625" lon="-1.288755834102630615234375">
        <ele>1039</ele>
        <time>2020-08-21T13:39:41.000Z</time>
      </trkpt>
      <trkpt lat="43.004918284714221954345703125" lon="-1.28874368034303188323974609375">
        <ele>1039.199951171875</ele>
        <time>2020-08-21T13:39:43.000Z</time>
      </trkpt>
      <trkpt lat="43.00488769076764583587646484375" lon="-1.2887201271951198577880859375">
        <ele>1039</ele>
        <time>2020-08-21T13:39:45.000Z</time>
      </trkpt>
      <trkpt lat="43.0048213899135589599609375" lon="-1.2886943109333515167236328125">
        <ele>1040.199951171875</ele>
        <time>2020-08-21T13:39:49.000Z</time>
      </trkpt>
      <trkpt lat="43.0047838389873504638671875" lon="-1.2886872701346874237060546875">
        <ele>1040.4000244140625</ele>
        <time>2020-08-21T13:39:51.000Z</time>
      </trkpt>
      <trkpt lat="43.00471971742808818817138671875" lon="-1.28867427818477153778076171875">
        <ele>1041</ele>
        <time>2020-08-21T13:39:54.000Z</time>
      </trkpt>
      <trkpt lat="43.00463539548218250274658203125" lon="-1.2886778824031352996826171875">
        <ele>1040.5999755859375</ele>
        <time>2020-08-21T13:39:58.000Z</time>
      </trkpt>
      <trkpt lat="43.00452022813260555267333984375" lon="-1.28869137726724147796630859375">
        <ele>1041.199951171875</ele>
        <time>2020-08-21T13:40:03.000Z</time>
      </trkpt>
      <trkpt lat="43.0044939927756786346435546875" lon="-1.28869556821882724761962890625">
        <ele>1041.4000244140625</ele>
        <time>2020-08-21T13:40:04.000Z</time>
      </trkpt>
      <trkpt lat="43.00437740050256252288818359375" lon="-1.2887295149266719818115234375">
        <ele>1042.4000244140625</ele>
        <time>2020-08-21T13:40:09.000Z</time>
      </trkpt>
      <trkpt lat="43.00430917181074619293212890625" lon="-1.28875407390296459197998046875">
        <ele>1042.4000244140625</ele>
        <time>2020-08-21T13:40:12.000Z</time>
      </trkpt>
      <trkpt lat="43.0041768215596675872802734375" lon="-1.28882816992700099945068359375">
        <ele>1043.199951171875</ele>
        <time>2020-08-21T13:40:18.000Z</time>
      </trkpt>
      <trkpt lat="43.00415393896400928497314453125" lon="-1.2888421677052974700927734375">
        <ele>1043.4000244140625</ele>
        <time>2020-08-21T13:40:19.000Z</time>
      </trkpt>
      <trkpt lat="43.00411521457135677337646484375" lon="-1.28887410275638103485107421875">
        <ele>1044</ele>
        <time>2020-08-21T13:40:21.000Z</time>
      </trkpt>
      <trkpt lat="43.00394908525049686431884765625" lon="-1.2889947183430194854736328125">
        <ele>1044.199951171875</ele>
        <time>2020-08-21T13:40:29.000Z</time>
      </trkpt>
      <trkpt lat="43.00391069613397121429443359375" lon="-1.289029419422149658203125">
        <ele>1044.800048828125</ele>
        <time>2020-08-21T13:40:31.000Z</time>
      </trkpt>
      <trkpt lat="43.00376870669424533843994140625" lon="-1.2891888432204723358154296875">
        <ele>1045.199951171875</ele>
        <time>2020-08-21T13:40:39.000Z</time>
      </trkpt>
      <trkpt lat="43.0036923475563526153564453125" lon="-1.28934181295335292816162109375">
        <ele>1045.800048828125</ele>
        <time>2020-08-21T13:40:45.000Z</time>
      </trkpt>
      <trkpt lat="43.0036653578281402587890625" lon="-1.28940023481845855712890625">
        <ele>1045.800048828125</ele>
        <time>2020-08-21T13:40:47.000Z</time>
      </trkpt>
      <trkpt lat="43.00357676111161708831787109375" lon="-1.2896853871643543243408203125">
        <ele>1046.199951171875</ele>
        <time>2020-08-21T13:40:55.000Z</time>
      </trkpt>
      <trkpt lat="43.00356636755168437957763671875" lon="-1.2898550368845462799072265625">
        <ele>1045</ele>
        <time>2020-08-21T13:41:00.000Z</time>
      </trkpt>
      <trkpt lat="43.0035709775984287261962890625" lon="-1.2899921648204326629638671875">
        <ele>1044.5999755859375</ele>
        <time>2020-08-21T13:41:08.000Z</time>
      </trkpt>
      <trkpt lat="43.00357089377939701080322265625" lon="-1.29000884480774402618408203125">
        <ele>1044.5999755859375</ele>
        <time>2020-08-21T13:41:09.000Z</time>
      </trkpt>
      <trkpt lat="43.00357005558907985687255859375" lon="-1.29015821032226085662841796875">
        <ele>1043.800048828125</ele>
        <time>2020-08-21T13:41:15.000Z</time>
      </trkpt>
      <trkpt lat="43.003571815788745880126953125" lon="-1.29019291140139102935791015625">
        <ele>1043.4000244140625</ele>
        <time>2020-08-21T13:41:16.000Z</time>
      </trkpt>
      <trkpt lat="43.00360928289592266082763671875" lon="-1.2904883734881877899169921875">
        <ele>1042.4000244140625</ele>
        <time>2020-08-21T13:41:24.000Z</time>
      </trkpt>
      <trkpt lat="43.0036162398755550384521484375" lon="-1.29053212702274322509765625">
        <ele>1042</ele>
        <time>2020-08-21T13:41:25.000Z</time>
      </trkpt>
      <trkpt lat="43.00364348106086254119873046875" lon="-1.29079791717231273651123046875">
        <ele>1040.4000244140625</ele>
        <time>2020-08-21T13:41:30.000Z</time>
      </trkpt>
      <trkpt lat="43.00364532507956027984619140625" lon="-1.29100930877029895782470703125">
        <ele>1040</ele>
        <time>2020-08-21T13:41:33.000Z</time>
      </trkpt>
      <trkpt lat="43.0036024935543537139892578125" lon="-1.29123662598431110382080078125">
        <ele>1039.4000244140625</ele>
        <time>2020-08-21T13:41:36.000Z</time>
      </trkpt>
      <trkpt lat="43.00353862345218658447265625" lon="-1.2913589179515838623046875">
        <ele>1038.4000244140625</ele>
        <time>2020-08-21T13:41:38.000Z</time>
      </trkpt>
      <trkpt lat="43.00350216217339038848876953125" lon="-1.29140627570450305938720703125">
        <ele>1038</ele>
        <time>2020-08-21T13:41:39.000Z</time>
      </trkpt>
      <trkpt lat="43.003327734768390655517578125" lon="-1.291537620127201080322265625">
        <ele>1038.4000244140625</ele>
        <time>2020-08-21T13:41:44.000Z</time>
      </trkpt>
      <trkpt lat="43.0031133256852626800537109375" lon="-1.29156134091317653656005859375">
        <ele>1038.199951171875</ele>
        <time>2020-08-21T13:41:50.000Z</time>
      </trkpt>
      <trkpt lat="43.00299321301281452178955078125" lon="-1.29153988324105739593505859375">
        <ele>1037</ele>
        <time>2020-08-21T13:41:53.000Z</time>
      </trkpt>
      <trkpt lat="43.00291542895138263702392578125" lon="-1.291524879634380340576171875">
        <ele>1035.5999755859375</ele>
        <time>2020-08-21T13:41:55.000Z</time>
      </trkpt>
      <trkpt lat="43.0028742738068103790283203125" lon="-1.2915163300931453704833984375">
        <ele>1035.4000244140625</ele>
        <time>2020-08-21T13:41:56.000Z</time>
      </trkpt>
      <trkpt lat="43.002481162548065185546875" lon="-1.2914690561592578887939453125">
        <ele>1034</ele>
        <time>2020-08-21T13:42:05.000Z</time>
      </trkpt>
      <trkpt lat="43.00239759497344493865966796875" lon="-1.2914616800844669342041015625">
        <ele>1032.5999755859375</ele>
        <time>2020-08-21T13:42:07.000Z</time>
      </trkpt>
      <trkpt lat="43.0023227445781230926513671875" lon="-1.29145354963839054107666015625">
        <ele>1031.4000244140625</ele>
        <time>2020-08-21T13:42:09.000Z</time>
      </trkpt>
      <trkpt lat="43.0022089183330535888671875" lon="-1.291449777781963348388671875">
        <ele>1031</ele>
        <time>2020-08-21T13:42:12.000Z</time>
      </trkpt>
      <trkpt lat="43.00213582813739776611328125" lon="-1.291448771953582763671875">
        <ele>1029.800048828125</ele>
        <time>2020-08-21T13:42:14.000Z</time>
      </trkpt>
      <trkpt lat="43.00206583924591541290283203125" lon="-1.2914509512484073638916015625">
        <ele>1028.4000244140625</ele>
        <time>2020-08-21T13:42:16.000Z</time>
      </trkpt>
      <trkpt lat="43.0019985325634479522705078125" lon="-1.29146763123571872711181640625">
        <ele>1026.5999755859375</ele>
        <time>2020-08-21T13:42:18.000Z</time>
      </trkpt>
      <trkpt lat="43.0019648373126983642578125" lon="-1.29148221574723720550537109375">
        <ele>1026</ele>
        <time>2020-08-21T13:42:19.000Z</time>
      </trkpt>
      <trkpt lat="43.0019324831664562225341796875" lon="-1.29150216467678546905517578125">
        <ele>1025.5999755859375</ele>
        <time>2020-08-21T13:42:20.000Z</time>
      </trkpt>
      <trkpt lat="43.00183231942355632781982421875" lon="-1.29163862206041812896728515625">
        <ele>1025.4000244140625</ele>
        <time>2020-08-21T13:42:24.000Z</time>
      </trkpt>
      <trkpt lat="43.00181924365460872650146484375" lon="-1.2916786037385463714599609375">
        <ele>1024.4000244140625</ele>
        <time>2020-08-21T13:42:25.000Z</time>
      </trkpt>
      <trkpt lat="43.00182125531136989593505859375" lon="-1.29179737530648708343505859375">
        <ele>1023.20001220703125</ele>
        <time>2020-08-21T13:42:28.000Z</time>
      </trkpt>
      <trkpt lat="43.00187054090201854705810546875" lon="-1.292013041675090789794921875">
        <ele>1022.4000244140625</ele>
        <time>2020-08-21T13:42:33.000Z</time>
      </trkpt>
      <trkpt lat="43.00191186368465423583984375" lon="-1.2921107746660709381103515625">
        <ele>1022.20001220703125</ele>
        <time>2020-08-21T13:42:36.000Z</time>
      </trkpt>
      <trkpt lat="43.00197917036712169647216796875" lon="-1.29227044992148876190185546875">
        <ele>1022.4000244140625</ele>
        <time>2020-08-21T13:42:41.000Z</time>
      </trkpt>
      <trkpt lat="43.00206399522721767425537109375" lon="-1.29246004857122898101806640625">
        <ele>1022</ele>
        <time>2020-08-21T13:42:47.000Z</time>
      </trkpt>
      <trkpt lat="43.00216038711369037628173828125" lon="-1.29269608296453952789306640625">
        <ele>1021.79998779296875</ele>
        <time>2020-08-21T13:42:53.000Z</time>
      </trkpt>
      <trkpt lat="43.0022523365914821624755859375" lon="-1.2929855100810527801513671875">
        <ele>1021.20001220703125</ele>
        <time>2020-08-21T13:42:58.000Z</time>
      </trkpt>
      <trkpt lat="43.00225996412336826324462890625" lon="-1.29306145012378692626953125">
        <ele>1020.79998779296875</ele>
        <time>2020-08-21T13:42:59.000Z</time>
      </trkpt>
      <trkpt lat="43.00221763551235198974609375" lon="-1.29340745508670806884765625">
        <ele>1020.20001220703125</ele>
        <time>2020-08-21T13:43:03.000Z</time>
      </trkpt>
      <trkpt lat="43.0021893046796321868896484375" lon="-1.29348901100456714630126953125">
        <ele>1019.79998779296875</ele>
        <time>2020-08-21T13:43:04.000Z</time>
      </trkpt>
      <trkpt lat="43.002108670771121978759765625" lon="-1.29363410174846649169921875">
        <ele>1017.79998779296875</ele>
        <time>2020-08-21T13:43:06.000Z</time>
      </trkpt>
      <trkpt lat="43.00205879844725131988525390625" lon="-1.29369621165096759796142578125">
        <ele>1017</ele>
        <time>2020-08-21T13:43:07.000Z</time>
      </trkpt>
      <trkpt lat="43.0020045675337314605712890625" lon="-1.29375278949737548828125">
        <ele>1016.79998779296875</ele>
        <time>2020-08-21T13:43:08.000Z</time>
      </trkpt>
      <trkpt lat="43.001885376870632171630859375" lon="-1.29385043866932392120361328125">
        <ele>1016.4000244140625</ele>
        <time>2020-08-21T13:43:10.000Z</time>
      </trkpt>
      <trkpt lat="43.0017635039985179901123046875" lon="-1.29393794573843479156494140625">
        <ele>1016.4000244140625</ele>
        <time>2020-08-21T13:43:12.000Z</time>
      </trkpt>
      <trkpt lat="43.00165428780019283294677734375" lon="-1.29402277059853076934814453125">
        <ele>1015.5999755859375</ele>
        <time>2020-08-21T13:43:14.000Z</time>
      </trkpt>
      <trkpt lat="43.00151967443525791168212890625" lon="-1.29415872506797313690185546875">
        <ele>1015</ele>
        <time>2020-08-21T13:43:17.000Z</time>
      </trkpt>
      <trkpt lat="43.00148514099419116973876953125" lon="-1.2942035682499408721923828125">
        <ele>1014.79998779296875</ele>
        <time>2020-08-21T13:43:18.000Z</time>
      </trkpt>
      <trkpt lat="43.0014091171324253082275390625" lon="-1.29435368813574314117431640625">
        <ele>1014.4000244140625</ele>
        <time>2020-08-21T13:43:21.000Z</time>
      </trkpt>
      <trkpt lat="43.00138992257416248321533203125" lon="-1.294412948191165924072265625">
        <ele>1014.4000244140625</ele>
        <time>2020-08-21T13:43:22.000Z</time>
      </trkpt>
      <trkpt lat="43.001359663903713226318359375" lon="-1.29454311914741992950439453125">
        <ele>1013.5999755859375</ele>
        <time>2020-08-21T13:43:24.000Z</time>
      </trkpt>
      <trkpt lat="43.00134717486798763275146484375" lon="-1.29461218602955341339111328125">
        <ele>1013.20001220703125</ele>
        <time>2020-08-21T13:43:25.000Z</time>
      </trkpt>
      <trkpt lat="43.001324795186519622802734375" lon="-1.29481821320950984954833984375">
        <ele>1012.20001220703125</ele>
        <time>2020-08-21T13:43:28.000Z</time>
      </trkpt>
      <trkpt lat="43.00131934694945812225341796875" lon="-1.29537619650363922119140625">
        <ele>1011</ele>
        <time>2020-08-21T13:43:36.000Z</time>
      </trkpt>
      <trkpt lat="43.00132085569202899932861328125" lon="-1.2954467721283435821533203125">
        <ele>1010.4000244140625</ele>
        <time>2020-08-21T13:43:37.000Z</time>
      </trkpt>
      <trkpt lat="43.00132253207266330718994140625" lon="-1.295520029962062835693359375">
        <ele>1008.79998779296875</ele>
        <time>2020-08-21T13:43:38.000Z</time>
      </trkpt>
      <trkpt lat="43.0013236217200756072998046875" lon="-1.2956678867340087890625">
        <ele>1007.4000244140625</ele>
        <time>2020-08-21T13:43:40.000Z</time>
      </trkpt>
      <trkpt lat="43.00132001750171184539794921875" lon="-1.29581968300044536590576171875">
        <ele>1006.20001220703125</ele>
        <time>2020-08-21T13:43:42.000Z</time>
      </trkpt>
      <trkpt lat="43.0013108812272548675537109375" lon="-1.29605571739375591278076171875">
        <ele>1005</ele>
        <time>2020-08-21T13:43:45.000Z</time>
      </trkpt>
      <trkpt lat="43.00130643881857395172119140625" lon="-1.29613526165485382080078125">
        <ele>1005.4000244140625</ele>
        <time>2020-08-21T13:43:46.000Z</time>
      </trkpt>
      <trkpt lat="43.0012850649654865264892578125" lon="-1.2962889857590198516845703125">
        <ele>1005.5999755859375</ele>
        <time>2020-08-21T13:43:48.000Z</time>
      </trkpt>
      <trkpt lat="43.00122899003326892852783203125" lon="-1.29650481976568698883056640625">
        <ele>1004.79998779296875</ele>
        <time>2020-08-21T13:43:51.000Z</time>
      </trkpt>
      <trkpt lat="43.0011950433254241943359375" lon="-1.29663708619773387908935546875">
        <ele>1004</ele>
        <time>2020-08-21T13:43:53.000Z</time>
      </trkpt>
      <trkpt lat="43.00117853097617626190185546875" lon="-1.2967930734157562255859375">
        <ele>1003.4000244140625</ele>
        <time>2020-08-21T13:43:56.000Z</time>
      </trkpt>
      <trkpt lat="43.00118322484195232391357421875" lon="-1.29683791659772396087646484375">
        <ele>1003.4000244140625</ele>
        <time>2020-08-21T13:44:00.000Z</time>
      </trkpt>
      <trkpt lat="43.0011878348886966705322265625" lon="-1.296845711767673492431640625">
        <ele>1003.79998779296875</ele>
        <time>2020-08-21T13:44:05.000Z</time>
      </trkpt>
      <trkpt lat="43.00119437277317047119140625" lon="-1.2968488968908786773681640625">
        <ele>1003.5999755859375</ele>
        <time>2020-08-21T13:44:07.000Z</time>
      </trkpt>
      <trkpt lat="43.00120736472308635711669921875" lon="-1.29684814251959323883056640625">
        <ele>1003.5999755859375</ele>
        <time>2020-08-21T13:44:13.000Z</time>
      </trkpt>
      <trkpt lat="43.00122111104428768157958984375" lon="-1.2968750484287738800048828125">
        <ele>1003.5999755859375</ele>
        <time>2020-08-21T13:44:20.000Z</time>
      </trkpt>
      <trkpt lat="43.00123217515647411346435546875" lon="-1.2968961708247661590576171875">
        <ele>1003.79998779296875</ele>
        <time>2020-08-21T13:44:27.000Z</time>
      </trkpt>
      <trkpt lat="43.00123183988034725189208984375" lon="-1.29689566791057586669921875">
        <ele>1003.4000244140625</ele>
        <time>2020-08-21T13:44:39.000Z</time>
      </trkpt>
      <trkpt lat="43.00123058259487152099609375" lon="-1.2968975119292736053466796875">
        <ele>1003.5999755859375</ele>
        <time>2020-08-21T13:45:00.000Z</time>
      </trkpt>
      <trkpt lat="43.00124131143093109130859375" lon="-1.296928189694881439208984375">
        <ele>1003.79998779296875</ele>
        <time>2020-08-21T13:45:09.000Z</time>
      </trkpt>
      <trkpt lat="43.00125614739954471588134765625" lon="-1.29694168455898761749267578125">
        <ele>1003.5999755859375</ele>
        <time>2020-08-21T13:45:10.000Z</time>
      </trkpt>
      <trkpt lat="43.00134348683059215545654296875" lon="-1.29704176448285579681396484375">
        <ele>1003.5999755859375</ele>
        <time>2020-08-21T13:45:15.000Z</time>
      </trkpt>
      <trkpt lat="43.00136737525463104248046875" lon="-1.29706976003944873809814453125">
        <ele>1003.5999755859375</ele>
        <time>2020-08-21T13:45:16.000Z</time>
      </trkpt>
      <trkpt lat="43.00141791813075542449951171875" lon="-1.2971291877329349517822265625">
        <ele>1003</ele>
        <time>2020-08-21T13:45:18.000Z</time>
      </trkpt>
      <trkpt lat="43.00155102275311946868896484375" lon="-1.29724946804344654083251953125">
        <ele>1002.20001220703125</ele>
        <time>2020-08-21T13:45:22.000Z</time>
      </trkpt>
      <trkpt lat="43.00158195197582244873046875" lon="-1.29728727042675018310546875">
        <ele>1002.20001220703125</ele>
        <time>2020-08-21T13:45:23.000Z</time>
      </trkpt>
      <trkpt lat="43.00164188258349895477294921875" lon="-1.29735558293759822845458984375">
        <ele>1001.5999755859375</ele>
        <time>2020-08-21T13:45:25.000Z</time>
      </trkpt>
      <trkpt lat="43.00169737078249454498291015625" lon="-1.29742138087749481201171875">
        <ele>1000.79998779296875</ele>
        <time>2020-08-21T13:45:27.000Z</time>
      </trkpt>
      <trkpt lat="43.00175939686596393585205078125" lon="-1.29747142083942890167236328125">
        <ele>1000</ele>
        <time>2020-08-21T13:45:29.000Z</time>
      </trkpt>
      <trkpt lat="43.00182829611003398895263671875" lon="-1.2975305132567882537841796875">
        <ele>999.5999755859375</ele>
        <time>2020-08-21T13:45:31.000Z</time>
      </trkpt>
      <trkpt lat="43.00189451314508914947509765625" lon="-1.2975955568253993988037109375">
        <ele>998.79998779296875</ele>
        <time>2020-08-21T13:45:33.000Z</time>
      </trkpt>
      <trkpt lat="43.0020243488252162933349609375" lon="-1.29769454710185527801513671875">
        <ele>997.4000244140625</ele>
        <time>2020-08-21T13:45:36.000Z</time>
      </trkpt>
      <trkpt lat="43.00212250091135501861572265625" lon="-1.29773922264575958251953125">
        <ele>996</ele>
        <time>2020-08-21T13:45:38.000Z</time>
      </trkpt>
      <trkpt lat="43.002230711281299591064453125" lon="-1.297774426639080047607421875">
        <ele>994.79998779296875</ele>
        <time>2020-08-21T13:45:40.000Z</time>
      </trkpt>
      <trkpt lat="43.00228863023221492767333984375" lon="-1.2977782823145389556884765625">
        <ele>994.20001220703125</ele>
        <time>2020-08-21T13:45:41.000Z</time>
      </trkpt>
      <trkpt lat="43.00235308706760406494140625" lon="-1.297773756086826324462890625">
        <ele>993.5999755859375</ele>
        <time>2020-08-21T13:45:42.000Z</time>
      </trkpt>
      <trkpt lat="43.002477474510669708251953125" lon="-1.29777182824909687042236328125">
        <ele>992.4000244140625</ele>
        <time>2020-08-21T13:45:44.000Z</time>
      </trkpt>
      <trkpt lat="43.002539165318012237548828125" lon="-1.29776336252689361572265625">
        <ele>991.79998779296875</ele>
        <time>2020-08-21T13:45:45.000Z</time>
      </trkpt>
      <trkpt lat="43.00260194577276706695556640625" lon="-1.2977544777095317840576171875">
        <ele>990.20001220703125</ele>
        <time>2020-08-21T13:45:46.000Z</time>
      </trkpt>
      <trkpt lat="43.00266397185623645782470703125" lon="-1.29773980937898159027099609375">
        <ele>989.4000244140625</ele>
        <time>2020-08-21T13:45:47.000Z</time>
      </trkpt>
      <trkpt lat="43.0027301050722599029541015625" lon="-1.297720111906528472900390625">
        <ele>988.5999755859375</ele>
        <time>2020-08-21T13:45:48.000Z</time>
      </trkpt>
      <trkpt lat="43.00279841758310794830322265625" lon="-1.297691278159618377685546875">
        <ele>988</ele>
        <time>2020-08-21T13:45:49.000Z</time>
      </trkpt>
      <trkpt lat="43.0028548277914524078369140625" lon="-1.29766051657497882843017578125">
        <ele>987.4000244140625</ele>
        <time>2020-08-21T13:45:50.000Z</time>
      </trkpt>
      <trkpt lat="43.00298784859478473663330078125" lon="-1.297575272619724273681640625">
        <ele>986.20001220703125</ele>
        <time>2020-08-21T13:45:53.000Z</time>
      </trkpt>
      <trkpt lat="43.0030269920825958251953125" lon="-1.29754669032990932464599609375">
        <ele>985.20001220703125</ele>
        <time>2020-08-21T13:45:54.000Z</time>
      </trkpt>
      <trkpt lat="43.003069572150707244873046875" lon="-1.29751794040203094482421875">
        <ele>984.5999755859375</ele>
        <time>2020-08-21T13:45:55.000Z</time>
      </trkpt>
      <trkpt lat="43.0032098852097988128662109375" lon="-1.29743537865579128265380859375">
        <ele>983.4000244140625</ele>
        <time>2020-08-21T13:45:58.000Z</time>
      </trkpt>
      <trkpt lat="43.0032578296959400177001953125" lon="-1.2974051199853420257568359375">
        <ele>982.5999755859375</ele>
        <time>2020-08-21T13:45:59.000Z</time>
      </trkpt>
      <trkpt lat="43.003302924335002899169921875" lon="-1.2973776273429393768310546875">
        <ele>982.20001220703125</ele>
        <time>2020-08-21T13:46:00.000Z</time>
      </trkpt>
      <trkpt lat="43.0033969692885875701904296875" lon="-1.2973350472748279571533203125">
        <ele>979.20001220703125</ele>
        <time>2020-08-21T13:46:02.000Z</time>
      </trkpt>
      <trkpt lat="43.00350853241980075836181640625" lon="-1.29731384105980396270751953125">
        <ele>978.20001220703125</ele>
        <time>2020-08-21T13:46:04.000Z</time>
      </trkpt>
      <trkpt lat="43.00362772308290004730224609375" lon="-1.29731836728751659393310546875">
        <ele>978.20001220703125</ele>
        <time>2020-08-21T13:46:06.000Z</time>
      </trkpt>
      <trkpt lat="43.003683798015117645263671875" lon="-1.2973161041736602783203125">
        <ele>977.79998779296875</ele>
        <time>2020-08-21T13:46:07.000Z</time>
      </trkpt>
      <trkpt lat="43.00373937003314495086669921875" lon="-1.29731920547783374786376953125">
        <ele>977.20001220703125</ele>
        <time>2020-08-21T13:46:08.000Z</time>
      </trkpt>
      <trkpt lat="43.003797791898250579833984375" lon="-1.2973253242671489715576171875">
        <ele>977</ele>
        <time>2020-08-21T13:46:09.000Z</time>
      </trkpt>
      <trkpt lat="43.003854453563690185546875" lon="-1.29733462817966938018798828125">
        <ele>976.79998779296875</ele>
        <time>2020-08-21T13:46:10.000Z</time>
      </trkpt>
      <trkpt lat="43.004013709723949432373046875" lon="-1.297344267368316650390625">
        <ele>976.79998779296875</ele>
        <time>2020-08-21T13:46:13.000Z</time>
      </trkpt>
      <trkpt lat="43.00417187623679637908935546875" lon="-1.29736748524010181427001953125">
        <ele>976.20001220703125</ele>
        <time>2020-08-21T13:46:16.000Z</time>
      </trkpt>
      <trkpt lat="43.0042234249413013458251953125" lon="-1.29737016744911670684814453125">
        <ele>975.20001220703125</ele>
        <time>2020-08-21T13:46:17.000Z</time>
      </trkpt>
      <trkpt lat="43.0042743869125843048095703125" lon="-1.29737268202006816864013671875">
        <ele>973.79998779296875</ele>
        <time>2020-08-21T13:46:18.000Z</time>
      </trkpt>
      <trkpt lat="43.00432174466550350189208984375" lon="-1.29738190211355686187744140625">
        <ele>972.5999755859375</ele>
        <time>2020-08-21T13:46:19.000Z</time>
      </trkpt>
      <trkpt lat="43.00437019206583499908447265625" lon="-1.2973974086344242095947265625">
        <ele>972.20001220703125</ele>
        <time>2020-08-21T13:46:20.000Z</time>
      </trkpt>
      <trkpt lat="43.00445459783077239990234375" lon="-1.29746857099235057830810546875">
        <ele>972</ele>
        <time>2020-08-21T13:46:22.000Z</time>
      </trkpt>
      <trkpt lat="43.004512600600719451904296875" lon="-1.29756714217364788055419921875">
        <ele>971.5999755859375</ele>
        <time>2020-08-21T13:46:24.000Z</time>
      </trkpt>
      <trkpt lat="43.00452374853193759918212890625" lon="-1.29761961288750171661376953125">
        <ele>971.4000244140625</ele>
        <time>2020-08-21T13:46:25.000Z</time>
      </trkpt>
      <trkpt lat="43.0045151151716709136962890625" lon="-1.2977896817028522491455078125">
        <ele>970.20001220703125</ele>
        <time>2020-08-21T13:46:28.000Z</time>
      </trkpt>
      <trkpt lat="43.00450547598302364349365234375" lon="-1.29785195924341678619384765625">
        <ele>969.79998779296875</ele>
        <time>2020-08-21T13:46:29.000Z</time>
      </trkpt>
      <trkpt lat="43.0044983513653278350830078125" lon="-1.29791197367012500762939453125">
        <ele>969</ele>
        <time>2020-08-21T13:46:30.000Z</time>
      </trkpt>
      <trkpt lat="43.00448410212993621826171875" lon="-1.298113055527210235595703125">
        <ele>968.4000244140625</ele>
        <time>2020-08-21T13:46:33.000Z</time>
      </trkpt>
      <trkpt lat="43.00448234193027019500732421875" lon="-1.29818840883672237396240234375">
        <ele>968</ele>
        <time>2020-08-21T13:46:34.000Z</time>
      </trkpt>
      <trkpt lat="43.00448351539671421051025390625" lon="-1.2983469106256961822509765625">
        <ele>967</ele>
        <time>2020-08-21T13:46:36.000Z</time>
      </trkpt>
      <trkpt lat="43.0044887959957122802734375" lon="-1.29860582761466503143310546875">
        <ele>966.4000244140625</ele>
        <time>2020-08-21T13:46:39.000Z</time>
      </trkpt>
      <trkpt lat="43.004495166242122650146484375" lon="-1.29868763498961925506591796875">
        <ele>966.20001220703125</ele>
        <time>2020-08-21T13:46:40.000Z</time>
      </trkpt>
      <trkpt lat="43.00452576018869876861572265625" lon="-1.29892769269645214080810546875">
        <ele>966.20001220703125</ele>
        <time>2020-08-21T13:46:43.000Z</time>
      </trkpt>
      <trkpt lat="43.00453984178602695465087890625" lon="-1.2990037165582180023193359375">
        <ele>965.4000244140625</ele>
        <time>2020-08-21T13:46:44.000Z</time>
      </trkpt>
      <trkpt lat="43.00457655452191829681396484375" lon="-1.2991495616734027862548828125">
        <ele>964.79998779296875</ele>
        <time>2020-08-21T13:46:46.000Z</time>
      </trkpt>
      <trkpt lat="43.0046126805245876312255859375" lon="-1.2992887012660503387451171875">
        <ele>964</ele>
        <time>2020-08-21T13:46:48.000Z</time>
      </trkpt>
      <trkpt lat="43.0046317912638187408447265625" lon="-1.299350559711456298828125">
        <ele>963.4000244140625</ele>
        <time>2020-08-21T13:46:49.000Z</time>
      </trkpt>
      <trkpt lat="43.0046529136598110198974609375" lon="-1.29940076731145381927490234375">
        <ele>962.79998779296875</ele>
        <time>2020-08-21T13:46:50.000Z</time>
      </trkpt>
      <trkpt lat="43.00468099303543567657470703125" lon="-1.29944980144500732421875">
        <ele>961.5999755859375</ele>
        <time>2020-08-21T13:46:51.000Z</time>
      </trkpt>
      <trkpt lat="43.0047125928103923797607421875" lon="-1.2995005957782268524169921875">
        <ele>960.5999755859375</ele>
        <time>2020-08-21T13:46:52.000Z</time>
      </trkpt>
      <trkpt lat="43.00474570132791996002197265625" lon="-1.2995562516152858734130859375">
        <ele>960.20001220703125</ele>
        <time>2020-08-21T13:46:53.000Z</time>
      </trkpt>
      <trkpt lat="43.0048160254955291748046875" lon="-1.2996803037822246551513671875">
        <ele>959.4000244140625</ele>
        <time>2020-08-21T13:46:55.000Z</time>
      </trkpt>
      <trkpt lat="43.004893474280834197998046875" lon="-1.299814246594905853271484375">
        <ele>959.20001220703125</ele>
        <time>2020-08-21T13:46:57.000Z</time>
      </trkpt>
      <trkpt lat="43.00493546761572360992431640625" lon="-1.2998856604099273681640625">
        <ele>959</ele>
        <time>2020-08-21T13:46:58.000Z</time>
      </trkpt>
      <trkpt lat="43.00502330996096134185791015625" lon="-1.30001784302294254302978515625">
        <ele>958</ele>
        <time>2020-08-21T13:47:00.000Z</time>
      </trkpt>
      <trkpt lat="43.0050642974674701690673828125" lon="-1.3000896759331226348876953125">
        <ele>957.5999755859375</ele>
        <time>2020-08-21T13:47:01.000Z</time>
      </trkpt>
      <trkpt lat="43.00509908236563205718994140625" lon="-1.3001671247184276580810546875">
        <ele>957.4000244140625</ele>
        <time>2020-08-21T13:47:02.000Z</time>
      </trkpt>
      <trkpt lat="43.00515641458332538604736328125" lon="-1.3003267161548137664794921875">
        <ele>956.79998779296875</ele>
        <time>2020-08-21T13:47:04.000Z</time>
      </trkpt>
      <trkpt lat="43.00520293414592742919921875" lon="-1.3004899956285953521728515625">
        <ele>956.20001220703125</ele>
        <time>2020-08-21T13:47:06.000Z</time>
      </trkpt>
      <trkpt lat="43.00523704849183559417724609375" lon="-1.3006619922816753387451171875">
        <ele>955.79998779296875</ele>
        <time>2020-08-21T13:47:08.000Z</time>
      </trkpt>
      <trkpt lat="43.00525213591754436492919921875" lon="-1.30074891261756420135498046875">
        <ele>955.5999755859375</ele>
        <time>2020-08-21T13:47:09.000Z</time>
      </trkpt>
      <trkpt lat="43.00532455556094646453857421875" lon="-1.3011642359197139739990234375">
        <ele>954.4000244140625</ele>
        <time>2020-08-21T13:47:14.000Z</time>
      </trkpt>
      <trkpt lat="43.00535447895526885986328125" lon="-1.301333718001842498779296875">
        <ele>953.4000244140625</ele>
        <time>2020-08-21T13:47:16.000Z</time>
      </trkpt>
      <trkpt lat="43.0053985677659511566162109375" lon="-1.30158090032637119293212890625">
        <ele>952.5999755859375</ele>
        <time>2020-08-21T13:47:19.000Z</time>
      </trkpt>
      <trkpt lat="43.0054223723709583282470703125" lon="-1.30174417980015277862548828125">
        <ele>952.79998779296875</ele>
        <time>2020-08-21T13:47:21.000Z</time>
      </trkpt>
      <trkpt lat="43.005467467010021209716796875" lon="-1.30206772126257419586181640625">
        <ele>952.5999755859375</ele>
        <time>2020-08-21T13:47:25.000Z</time>
      </trkpt>
      <trkpt lat="43.0054786987602710723876953125" lon="-1.3021425716578960418701171875">
        <ele>952.20001220703125</ele>
        <time>2020-08-21T13:47:26.000Z</time>
      </trkpt>
      <trkpt lat="43.00550443120300769805908203125" lon="-1.30227743647992610931396484375">
        <ele>951.4000244140625</ele>
        <time>2020-08-21T13:47:28.000Z</time>
      </trkpt>
      <trkpt lat="43.005531169474124908447265625" lon="-1.30242696963250637054443359375">
        <ele>951.20001220703125</ele>
        <time>2020-08-21T13:47:30.000Z</time>
      </trkpt>
      <trkpt lat="43.00556276924908161163330078125" lon="-1.30257214419543743133544921875">
        <ele>951.20001220703125</ele>
        <time>2020-08-21T13:47:32.000Z</time>
      </trkpt>
      <trkpt lat="43.0056346021592617034912109375" lon="-1.3027725555002689361572265625">
        <ele>949.5999755859375</ele>
        <time>2020-08-21T13:47:35.000Z</time>
      </trkpt>
      <trkpt lat="43.005685396492481231689453125" lon="-1.30290649831295013427734375">
        <ele>948</ele>
        <time>2020-08-21T13:47:37.000Z</time>
      </trkpt>
      <trkpt lat="43.0057361908257007598876953125" lon="-1.30305343307554721832275390625">
        <ele>946.79998779296875</ele>
        <time>2020-08-21T13:47:39.000Z</time>
      </trkpt>
      <trkpt lat="43.005764521658420562744140625" lon="-1.30312903784215450286865234375">
        <ele>946.4000244140625</ele>
        <time>2020-08-21T13:47:40.000Z</time>
      </trkpt>
      <trkpt lat="43.00580902956426143646240234375" lon="-1.3032759726047515869140625">
        <ele>945.4000244140625</ele>
        <time>2020-08-21T13:47:42.000Z</time>
      </trkpt>
      <trkpt lat="43.0058287270367145538330078125" lon="-1.3034159503877162933349609375">
        <ele>944.20001220703125</ele>
        <time>2020-08-21T13:47:44.000Z</time>
      </trkpt>
      <trkpt lat="43.00583099015057086944580078125" lon="-1.30348660983145236968994140625">
        <ele>943.4000244140625</ele>
        <time>2020-08-21T13:47:45.000Z</time>
      </trkpt>
      <trkpt lat="43.005828224122524261474609375" lon="-1.3035624660551548004150390625">
        <ele>942</ele>
        <time>2020-08-21T13:47:46.000Z</time>
      </trkpt>
      <trkpt lat="43.00580936484038829803466796875" lon="-1.30372733809053897857666015625">
        <ele>940.79998779296875</ele>
        <time>2020-08-21T13:47:48.000Z</time>
      </trkpt>
      <trkpt lat="43.00578002817928791046142578125" lon="-1.30389933474361896514892578125">
        <ele>941.20001220703125</ele>
        <time>2020-08-21T13:47:50.000Z</time>
      </trkpt>
      <trkpt lat="43.00574247725307941436767578125" lon="-1.3040392287075519561767578125">
        <ele>940.79998779296875</ele>
        <time>2020-08-21T13:47:52.000Z</time>
      </trkpt>
      <trkpt lat="43.00571565516293048858642578125" lon="-1.3040905259549617767333984375">
        <ele>940.79998779296875</ele>
        <time>2020-08-21T13:47:53.000Z</time>
      </trkpt>
      <trkpt lat="43.00559311173856258392333984375" lon="-1.30420728586614131927490234375">
        <ele>939.5999755859375</ele>
        <time>2020-08-21T13:47:57.000Z</time>
      </trkpt>
      <trkpt lat="43.0055511184036731719970703125" lon="-1.30422689951956272125244140625">
        <ele>939.4000244140625</ele>
        <time>2020-08-21T13:48:00.000Z</time>
      </trkpt>
      <trkpt lat="43.0055437423288822174072265625" lon="-1.30422019399702548980712890625">
        <ele>940</ele>
        <time>2020-08-21T13:48:17.000Z</time>
      </trkpt>
      <trkpt lat="43.00554416142404079437255859375" lon="-1.30421918816864490509033203125">
        <ele>940</ele>
        <time>2020-08-21T13:48:42.000Z</time>
      </trkpt>
      <trkpt lat="43.0055467598140239715576171875" lon="-1.3042206130921840667724609375">
        <ele>939.5999755859375</ele>
        <time>2020-08-21T13:49:28.000Z</time>
      </trkpt>
      <trkpt lat="43.00556193105876445770263671875" lon="-1.3042397238314151763916015625">
        <ele>940</ele>
        <time>2020-08-21T13:49:34.000Z</time>
      </trkpt>
      <trkpt lat="43.005570732057094573974609375" lon="-1.3042603433132171630859375">
        <ele>940.4000244140625</ele>
        <time>2020-08-21T13:49:41.000Z</time>
      </trkpt>
      <trkpt lat="43.0055698938667774200439453125" lon="-1.30425975657999515533447265625">
        <ele>940.4000244140625</ele>
        <time>2020-08-21T13:49:52.000Z</time>
      </trkpt>
      <trkpt lat="43.00556947477161884307861328125" lon="-1.30425908602774143218994140625">
        <ele>940.4000244140625</ele>
        <time>2020-08-21T13:50:15.000Z</time>
      </trkpt>
      <trkpt lat="43.00556897185742855072021484375" lon="-1.3042588345706462860107421875">
        <ele>940</ele>
        <time>2020-08-21T13:51:02.000Z</time>
      </trkpt>
      <trkpt lat="43.00556897185742855072021484375" lon="-1.3042588345706462860107421875">
        <ele>940</ele>
        <time>2020-08-21T13:51:03.000Z</time>
      </trkpt>
      <trkpt lat="43.0055692233145236968994140625" lon="-1.30425724200904369354248046875">
        <ele>940</ele>
        <time>2020-08-21T13:51:32.000Z</time>
      </trkpt>
      <trkpt lat="43.00556930713355541229248046875" lon="-1.30425808019936084747314453125">
        <ele>940</ele>
        <time>2020-08-21T13:52:02.000Z</time>
      </trkpt>
      <trkpt lat="43.0055782757699489593505859375" lon="-1.30429445765912532806396484375">
        <ele>940</ele>
        <time>2020-08-21T13:52:20.000Z</time>
      </trkpt>
      <trkpt lat="43.00560434348881244659423828125" lon="-1.30438397638499736785888671875">
        <ele>940.5999755859375</ele>
        <time>2020-08-21T13:52:28.000Z</time>
      </trkpt>
      <trkpt lat="43.00560660660266876220703125" lon="-1.30439671687781810760498046875">
        <ele>940.4000244140625</ele>
        <time>2020-08-21T13:52:29.000Z</time>
      </trkpt>
      <trkpt lat="43.00561197102069854736328125" lon="-1.30444332025945186614990234375">
        <ele>940.79998779296875</ele>
        <time>2020-08-21T13:52:33.000Z</time>
      </trkpt>
      <trkpt lat="43.0056175030767917633056640625" lon="-1.30446410737931728363037109375">
        <ele>941</ele>
        <time>2020-08-21T13:52:35.000Z</time>
      </trkpt>
      <trkpt lat="43.00562982447445392608642578125" lon="-1.304559409618377685546875">
        <ele>941.4000244140625</ele>
        <time>2020-08-21T13:52:43.000Z</time>
      </trkpt>
      <trkpt lat="43.00564390607178211212158203125" lon="-1.304651610553264617919921875">
        <ele>942.4000244140625</ele>
        <time>2020-08-21T13:52:50.000Z</time>
      </trkpt>
      <trkpt lat="43.0056443251669406890869140625" lon="-1.30466728471219539642333984375">
        <ele>942.4000244140625</ele>
        <time>2020-08-21T13:52:51.000Z</time>
      </trkpt>
      <trkpt lat="43.0056443251669406890869140625" lon="-1.30468153394758701324462890625">
        <ele>942.5999755859375</ele>
        <time>2020-08-21T13:52:52.000Z</time>
      </trkpt>
      <trkpt lat="43.005636446177959442138671875" lon="-1.30472729913890361785888671875">
        <ele>942.79998779296875</ele>
        <time>2020-08-21T13:52:55.000Z</time>
      </trkpt>
      <trkpt lat="43.005630411207675933837890625" lon="-1.30476367659866809844970703125">
        <ele>943.5999755859375</ele>
        <time>2020-08-21T13:52:58.000Z</time>
      </trkpt>
      <trkpt lat="43.00562747754156589508056640625" lon="-1.3047751598060131072998046875">
        <ele>943.79998779296875</ele>
        <time>2020-08-21T13:52:59.000Z</time>
      </trkpt>
      <trkpt lat="43.00562269985675811767578125" lon="-1.30481229163706302642822265625">
        <ele>944</ele>
        <time>2020-08-21T13:53:02.000Z</time>
      </trkpt>
      <trkpt lat="43.00561104901134967803955078125" lon="-1.304860152304172515869140625">
        <ele>944.4000244140625</ele>
        <time>2020-08-21T13:53:06.000Z</time>
      </trkpt>
      <trkpt lat="43.00560518167912960052490234375" lon="-1.30490549840033054351806640625">
        <ele>944.5999755859375</ele>
        <time>2020-08-21T13:53:09.000Z</time>
      </trkpt>
      <trkpt lat="43.00560166127979755401611328125" lon="-1.304919831454753875732421875">
        <ele>944.79998779296875</ele>
        <time>2020-08-21T13:53:10.000Z</time>
      </trkpt>
      <trkpt lat="43.00558942370116710662841796875" lon="-1.30495042540132999420166015625">
        <ele>945.4000244140625</ele>
        <time>2020-08-21T13:53:14.000Z</time>
      </trkpt>
      <trkpt lat="43.00557953305542469024658203125" lon="-1.304952688515186309814453125">
        <ele>945.79998779296875</ele>
        <time>2020-08-21T13:53:21.000Z</time>
      </trkpt>
      <trkpt lat="43.00555028021335601806640625" lon="-1.305021755397319793701171875">
        <ele>945.79998779296875</ele>
        <time>2020-08-21T13:53:26.000Z</time>
      </trkpt>
      <trkpt lat="43.0055457539856433868408203125" lon="-1.30504011176526546478271484375">
        <ele>946.20001220703125</ele>
        <time>2020-08-21T13:53:27.000Z</time>
      </trkpt>
      <trkpt lat="43.00551214255392551422119140625" lon="-1.30515175871551036834716796875">
        <ele>947.20001220703125</ele>
        <time>2020-08-21T13:53:32.000Z</time>
      </trkpt>
      <trkpt lat="43.00550694577395915985107421875" lon="-1.30517757497727870941162109375">
        <ele>947.4000244140625</ele>
        <time>2020-08-21T13:53:33.000Z</time>
      </trkpt>
      <trkpt lat="43.0054894275963306427001953125" lon="-1.3053385913372039794921875">
        <ele>948.20001220703125</ele>
        <time>2020-08-21T13:53:39.000Z</time>
      </trkpt>
      <trkpt lat="43.00549353472888469696044921875" lon="-1.3054968416690826416015625">
        <ele>948.20001220703125</ele>
        <time>2020-08-21T13:53:45.000Z</time>
      </trkpt>
      <trkpt lat="43.00552614033222198486328125" lon="-1.30569021217525005340576171875">
        <ele>949.20001220703125</ele>
        <time>2020-08-21T13:53:52.000Z</time>
      </trkpt>
      <trkpt lat="43.00553376786410808563232421875" lon="-1.3057213090360164642333984375">
        <ele>949.4000244140625</ele>
        <time>2020-08-21T13:53:53.000Z</time>
      </trkpt>
      <trkpt lat="43.00559713505208492279052734375" lon="-1.30589875392615795135498046875">
        <ele>949.4000244140625</ele>
        <time>2020-08-21T13:53:59.000Z</time>
      </trkpt>
      <trkpt lat="43.0056580714881420135498046875" lon="-1.30613051354885101318359375">
        <ele>950.20001220703125</ele>
        <time>2020-08-21T13:54:07.000Z</time>
      </trkpt>
      <trkpt lat="43.0056614242494106292724609375" lon="-1.30617619492113590240478515625">
        <ele>950.4000244140625</ele>
        <time>2020-08-21T13:54:09.000Z</time>
      </trkpt>
      <trkpt lat="43.0056597478687763214111328125" lon="-1.3062369637191295623779296875">
        <ele>950.5999755859375</ele>
        <time>2020-08-21T13:54:11.000Z</time>
      </trkpt>
      <trkpt lat="43.00567022524774074554443359375" lon="-1.30642421543598175048828125">
        <ele>951.20001220703125</ele>
        <time>2020-08-21T13:54:17.000Z</time>
      </trkpt>
      <trkpt lat="43.00567558966577053070068359375" lon="-1.30651566199958324432373046875">
        <ele>951.5999755859375</ele>
        <time>2020-08-21T13:54:20.000Z</time>
      </trkpt>
      <trkpt lat="43.00569755025207996368408203125" lon="-1.30659721791744232177734375">
        <ele>952</ele>
        <time>2020-08-21T13:54:23.000Z</time>
      </trkpt>
      <trkpt lat="43.00571397878229618072509765625" lon="-1.30668330006301403045654296875">
        <ele>952.79998779296875</ele>
        <time>2020-08-21T13:54:26.000Z</time>
      </trkpt>
      <trkpt lat="43.0057331733405590057373046875" lon="-1.306769549846649169921875">
        <ele>953.20001220703125</ele>
        <time>2020-08-21T13:54:29.000Z</time>
      </trkpt>
      <trkpt lat="43.00573376007378101348876953125" lon="-1.3068260438740253448486328125">
        <ele>953.79998779296875</ele>
        <time>2020-08-21T13:54:31.000Z</time>
      </trkpt>
      <trkpt lat="43.00574398599565029144287109375" lon="-1.3069479167461395263671875">
        <ele>954.20001220703125</ele>
        <time>2020-08-21T13:54:36.000Z</time>
      </trkpt>
      <trkpt lat="43.00577692687511444091796875" lon="-1.30711278878152370452880859375">
        <ele>953.79998779296875</ele>
        <time>2020-08-21T13:54:42.000Z</time>
      </trkpt>
      <trkpt lat="43.005795367062091827392578125" lon="-1.307304985821247100830078125">
        <ele>953.5999755859375</ele>
        <time>2020-08-21T13:54:47.000Z</time>
      </trkpt>
      <trkpt lat="43.005791343748569488525390625" lon="-1.30754563026130199432373046875">
        <ele>952.4000244140625</ele>
        <time>2020-08-21T13:54:52.000Z</time>
      </trkpt>
      <trkpt lat="43.005785979330539703369140625" lon="-1.30759290419518947601318359375">
        <ele>952.4000244140625</ele>
        <time>2020-08-21T13:54:53.000Z</time>
      </trkpt>
      <trkpt lat="43.00575303845107555389404296875" lon="-1.3079120032489299774169921875">
        <ele>951.5999755859375</ele>
        <time>2020-08-21T13:54:59.000Z</time>
      </trkpt>
      <trkpt lat="43.0057056806981563568115234375" lon="-1.30816019140183925628662109375">
        <ele>951.79998779296875</ele>
        <time>2020-08-21T13:55:04.000Z</time>
      </trkpt>
      <trkpt lat="43.005621023476123809814453125" lon="-1.308323554694652557373046875">
        <ele>952</ele>
        <time>2020-08-21T13:55:09.000Z</time>
      </trkpt>
      <trkpt lat="43.00551432184875011444091796875" lon="-1.3085101358592510223388671875">
        <ele>952.20001220703125</ele>
        <time>2020-08-21T13:55:15.000Z</time>
      </trkpt>
      <trkpt lat="43.0054622702300548553466796875" lon="-1.30865204147994518280029296875">
        <ele>953.5999755859375</ele>
        <time>2020-08-21T13:55:20.000Z</time>
      </trkpt>
      <trkpt lat="43.00544324330985546112060546875" lon="-1.30888975225389003753662109375">
        <ele>954.79998779296875</ele>
        <time>2020-08-21T13:55:27.000Z</time>
      </trkpt>
      <trkpt lat="43.005467467010021209716796875" lon="-1.3090586476027965545654296875">
        <ele>955.4000244140625</ele>
        <time>2020-08-21T13:55:32.000Z</time>
      </trkpt>
      <trkpt lat="43.00548029132187366485595703125" lon="-1.30926542915403842926025390625">
        <ele>955.79998779296875</ele>
        <time>2020-08-21T13:55:39.000Z</time>
      </trkpt>
      <trkpt lat="43.00548682920634746551513671875" lon="-1.30929560400545597076416015625">
        <ele>955.79998779296875</ele>
        <time>2020-08-21T13:55:40.000Z</time>
      </trkpt>
      <trkpt lat="43.0055444128811359405517578125" lon="-1.309503056108951568603515625">
        <ele>956</ele>
        <time>2020-08-21T13:55:46.000Z</time>
      </trkpt>
      <trkpt lat="43.005600906908512115478515625" lon="-1.30968150682747364044189453125">
        <ele>954.79998779296875</ele>
        <time>2020-08-21T13:55:50.000Z</time>
      </trkpt>
      <trkpt lat="43.0056342668831348419189453125" lon="-1.30977027118206024169921875">
        <ele>954.4000244140625</ele>
        <time>2020-08-21T13:55:52.000Z</time>
      </trkpt>
      <trkpt lat="43.0057080276310443878173828125" lon="-1.3099940679967403411865234375">
        <ele>953.79998779296875</ele>
        <time>2020-08-21T13:55:56.000Z</time>
      </trkpt>
      <trkpt lat="43.0057387053966522216796875" lon="-1.31004729308187961578369140625">
        <ele>953.79998779296875</ele>
        <time>2020-08-21T13:55:57.000Z</time>
      </trkpt>
      <trkpt lat="43.005958981812000274658203125" lon="-1.3104175217449665069580078125">
        <ele>953</ele>
        <time>2020-08-21T13:56:04.000Z</time>
      </trkpt>
      <trkpt lat="43.006001897156238555908203125" lon="-1.3105348683893680572509765625">
        <ele>952.5999755859375</ele>
        <time>2020-08-21T13:56:06.000Z</time>
      </trkpt>
      <trkpt lat="43.00603131763637065887451171875" lon="-1.31065682508051395416259765625">
        <ele>952</ele>
        <time>2020-08-21T13:56:08.000Z</time>
      </trkpt>
      <trkpt lat="43.0060766637325286865234375" lon="-1.31085664965212345123291015625">
        <ele>951.5999755859375</ele>
        <time>2020-08-21T13:56:11.000Z</time>
      </trkpt>
      <trkpt lat="43.00609476864337921142578125" lon="-1.3109117187559604644775390625">
        <ele>951.20001220703125</ele>
        <time>2020-08-21T13:56:12.000Z</time>
      </trkpt>
      <trkpt lat="43.0061871372163295745849609375" lon="-1.311225034296512603759765625">
        <ele>951.20001220703125</ele>
        <time>2020-08-21T13:56:18.000Z</time>
      </trkpt>
      <trkpt lat="43.00623558461666107177734375" lon="-1.311426199972629547119140625">
        <ele>951.5999755859375</ele>
        <time>2020-08-21T13:56:23.000Z</time>
      </trkpt>
      <trkpt lat="43.00626483745872974395751953125" lon="-1.311576068401336669921875">
        <ele>951.4000244140625</ele>
        <time>2020-08-21T13:56:28.000Z</time>
      </trkpt>
      <trkpt lat="43.00627539865672588348388671875" lon="-1.3117254339158535003662109375">
        <ele>951.5999755859375</ele>
        <time>2020-08-21T13:56:33.000Z</time>
      </trkpt>
      <trkpt lat="43.006275482475757598876953125" lon="-1.31175653077661991119384765625">
        <ele>951.79998779296875</ele>
        <time>2020-08-21T13:56:34.000Z</time>
      </trkpt>
      <trkpt lat="43.00629727542400360107421875" lon="-1.3119071535766124725341796875">
        <ele>952</ele>
        <time>2020-08-21T13:56:39.000Z</time>
      </trkpt>
      <trkpt lat="43.0063303001224994659423828125" lon="-1.3120647333562374114990234375">
        <ele>952.20001220703125</ele>
        <time>2020-08-21T13:56:43.000Z</time>
      </trkpt>
      <trkpt lat="43.00634245388209819793701171875" lon="-1.31232717074453830718994140625">
        <ele>951.5999755859375</ele>
        <time>2020-08-21T13:56:48.000Z</time>
      </trkpt>
      <trkpt lat="43.0063866265118122100830078125" lon="-1.31254090927541255950927734375">
        <ele>951.20001220703125</ele>
        <time>2020-08-21T13:56:52.000Z</time>
      </trkpt>
      <trkpt lat="43.00640464760363101959228515625" lon="-1.31271106190979480743408203125">
        <ele>950.79998779296875</ele>
        <time>2020-08-21T13:56:55.000Z</time>
      </trkpt>
      <trkpt lat="43.0064275301992893218994140625" lon="-1.312809549272060394287109375">
        <ele>950.5999755859375</ele>
        <time>2020-08-21T13:56:57.000Z</time>
      </trkpt>
      <trkpt lat="43.0064503289759159088134765625" lon="-1.3130648620426654815673828125">
        <ele>950.79998779296875</ele>
        <time>2020-08-21T13:57:02.000Z</time>
      </trkpt>
      <trkpt lat="43.006477989256381988525390625" lon="-1.3133181631565093994140625">
        <ele>951.5999755859375</ele>
        <time>2020-08-21T13:57:07.000Z</time>
      </trkpt>
      <trkpt lat="43.006506152451038360595703125" lon="-1.31349728442728519439697265625">
        <ele>951.79998779296875</ele>
        <time>2020-08-21T13:57:11.000Z</time>
      </trkpt>
      <trkpt lat="43.006522916257381439208984375" lon="-1.3135815225541591644287109375">
        <ele>952.20001220703125</ele>
        <time>2020-08-21T13:57:13.000Z</time>
      </trkpt>
      <trkpt lat="43.00656574778258800506591796875" lon="-1.313824765384197235107421875">
        <ele>951.5999755859375</ele>
        <time>2020-08-21T13:57:18.000Z</time>
      </trkpt>
      <trkpt lat="43.00656616687774658203125" lon="-1.31399198435246944427490234375">
        <ele>950.20001220703125</ele>
        <time>2020-08-21T13:57:22.000Z</time>
      </trkpt>
      <trkpt lat="43.006568849086761474609375" lon="-1.31403339095413684844970703125">
        <ele>949.79998779296875</ele>
        <time>2020-08-21T13:57:23.000Z</time>
      </trkpt>
      <trkpt lat="43.0065716989338397979736328125" lon="-1.31408234126865863800048828125">
        <ele>949.20001220703125</ele>
        <time>2020-08-21T13:57:24.000Z</time>
      </trkpt>
      <trkpt lat="43.006584607064723968505859375" lon="-1.31431183777749538421630859375">
        <ele>948.20001220703125</ele>
        <time>2020-08-21T13:57:28.000Z</time>
      </trkpt>
      <trkpt lat="43.0065938271582126617431640625" lon="-1.31436984054744243621826171875">
        <ele>948</ele>
        <time>2020-08-21T13:57:29.000Z</time>
      </trkpt>
      <trkpt lat="43.0066387541592121124267578125" lon="-1.3146007619798183441162109375">
        <ele>946.5999755859375</ele>
        <time>2020-08-21T13:57:32.000Z</time>
      </trkpt>
      <trkpt lat="43.00665610469877719879150390625" lon="-1.31467846222221851348876953125">
        <ele>946.20001220703125</ele>
        <time>2020-08-21T13:57:33.000Z</time>
      </trkpt>
      <trkpt lat="43.00669834949076175689697265625" lon="-1.3148284144699573516845703125">
        <ele>945.20001220703125</ele>
        <time>2020-08-21T13:57:35.000Z</time>
      </trkpt>
      <trkpt lat="43.006735146045684814453125" lon="-1.31495875306427478790283203125">
        <ele>944</ele>
        <time>2020-08-21T13:57:37.000Z</time>
      </trkpt>
      <trkpt lat="43.0067534185945987701416015625" lon="-1.31502362899482250213623046875">
        <ele>943.5999755859375</ele>
        <time>2020-08-21T13:57:38.000Z</time>
      </trkpt>
      <trkpt lat="43.006860204041004180908203125" lon="-1.31529369391500949859619140625">
        <ele>943</ele>
        <time>2020-08-21T13:57:42.000Z</time>
      </trkpt>
      <trkpt lat="43.006893731653690338134765625" lon="-1.315365023910999298095703125">
        <ele>942.79998779296875</ele>
        <time>2020-08-21T13:57:43.000Z</time>
      </trkpt>
      <trkpt lat="43.00700403749942779541015625" lon="-1.3155631721019744873046875">
        <ele>941.79998779296875</ele>
        <time>2020-08-21T13:57:46.000Z</time>
      </trkpt>
      <trkpt lat="43.00711291842162609100341796875" lon="-1.31573508493602275848388671875">
        <ele>941</ele>
        <time>2020-08-21T13:57:49.000Z</time>
      </trkpt>
      <trkpt lat="43.007146529853343963623046875" lon="-1.3157857954502105712890625">
        <ele>940.5999755859375</ele>
        <time>2020-08-21T13:57:50.000Z</time>
      </trkpt>
      <trkpt lat="43.0072456039488315582275390625" lon="-1.31596961058676242828369140625">
        <ele>940</ele>
        <time>2020-08-21T13:57:54.000Z</time>
      </trkpt>
      <trkpt lat="43.00737309269607067108154296875" lon="-1.316163651645183563232421875">
        <ele>940.5999755859375</ele>
        <time>2020-08-21T13:58:00.000Z</time>
      </trkpt>
      <trkpt lat="43.00747367553412914276123046875" lon="-1.31635165773332118988037109375">
        <ele>939.79998779296875</ele>
        <time>2020-08-21T13:58:05.000Z</time>
      </trkpt>
      <trkpt lat="43.0075158365070819854736328125" lon="-1.31647101603448390960693359375">
        <ele>939.5999755859375</ele>
        <time>2020-08-21T13:58:08.000Z</time>
      </trkpt>
      <trkpt lat="43.00753620453178882598876953125" lon="-1.3165430165827274322509765625">
        <ele>938.4000244140625</ele>
        <time>2020-08-21T13:58:10.000Z</time>
      </trkpt>
      <trkpt lat="43.0075463466346263885498046875" lon="-1.31658635102212429046630859375">
        <ele>938.20001220703125</ele>
        <time>2020-08-21T13:58:11.000Z</time>
      </trkpt>
      <trkpt lat="43.0076358653604984283447265625" lon="-1.316878460347652435302734375">
        <ele>937.20001220703125</ele>
        <time>2020-08-21T13:58:17.000Z</time>
      </trkpt>
      <trkpt lat="43.0076858215034008026123046875" lon="-1.31699069403111934661865234375">
        <ele>936.20001220703125</ele>
        <time>2020-08-21T13:58:19.000Z</time>
      </trkpt>
      <trkpt lat="43.00771406851708889007568359375" lon="-1.31704081781208515167236328125">
        <ele>936</ele>
        <time>2020-08-21T13:58:20.000Z</time>
      </trkpt>
      <trkpt lat="43.00774457864463329315185546875" lon="-1.31708800792694091796875">
        <ele>935.5999755859375</ele>
        <time>2020-08-21T13:58:21.000Z</time>
      </trkpt>
      <trkpt lat="43.0078031681478023529052734375" lon="-1.31718750111758708953857421875">
        <ele>934.79998779296875</ele>
        <time>2020-08-21T13:58:23.000Z</time>
      </trkpt>
      <trkpt lat="43.007868044078350067138671875" lon="-1.31729118525981903076171875">
        <ele>934</ele>
        <time>2020-08-21T13:58:25.000Z</time>
      </trkpt>
      <trkpt lat="43.0080428905785083770751953125" lon="-1.31752545945346355438232421875">
        <ele>933.20001220703125</ele>
        <time>2020-08-21T13:58:30.000Z</time>
      </trkpt>
      <trkpt lat="43.00807700492441654205322265625" lon="-1.31757005117833614349365234375">
        <ele>932.4000244140625</ele>
        <time>2020-08-21T13:58:31.000Z</time>
      </trkpt>
      <trkpt lat="43.0081481672823429107666015625" lon="-1.3176303170621395111083984375">
        <ele>931.20001220703125</ele>
        <time>2020-08-21T13:58:33.000Z</time>
      </trkpt>
      <trkpt lat="43.008206002414226531982421875" lon="-1.3177104480564594268798828125">
        <ele>930</ele>
        <time>2020-08-21T13:58:35.000Z</time>
      </trkpt>
      <trkpt lat="43.0082732252776622772216796875" lon="-1.3178049959242343902587890625">
        <ele>928.79998779296875</ele>
        <time>2020-08-21T13:58:38.000Z</time>
      </trkpt>
      <trkpt lat="43.00828806124627590179443359375" lon="-1.3178271241486072540283203125">
        <ele>928.5999755859375</ele>
        <time>2020-08-21T13:58:39.000Z</time>
      </trkpt>
      <trkpt lat="43.00832075066864490509033203125" lon="-1.3178710453212261199951171875">
        <ele>928.20001220703125</ele>
        <time>2020-08-21T13:58:43.000Z</time>
      </trkpt>
      <trkpt lat="43.0083362571895122528076171875" lon="-1.3178837858140468597412109375">
        <ele>928</ele>
        <time>2020-08-21T13:58:50.000Z</time>
      </trkpt>
      <trkpt lat="43.00835981033742427825927734375" lon="-1.317893676459789276123046875">
        <ele>927.79998779296875</ele>
        <time>2020-08-21T13:58:57.000Z</time>
      </trkpt>
      <trkpt lat="43.0083600617945194244384765625" lon="-1.31789459846913814544677734375">
        <ele>927.79998779296875</ele>
        <time>2020-08-21T13:58:59.000Z</time>
      </trkpt>
      <trkpt lat="43.00838931463658809661865234375" lon="-1.31791320629417896270751953125">
        <ele>927.5999755859375</ele>
        <time>2020-08-21T13:59:09.000Z</time>
      </trkpt>
      <trkpt lat="43.008462153375148773193359375" lon="-1.318000294268131256103515625">
        <ele>927.20001220703125</ele>
        <time>2020-08-21T13:59:13.000Z</time>
      </trkpt>
      <trkpt lat="43.00848570652306079864501953125" lon="-1.318029128015041351318359375">
        <ele>926.79998779296875</ele>
        <time>2020-08-21T13:59:14.000Z</time>
      </trkpt>
      <trkpt lat="43.00851470790803432464599609375" lon="-1.3180644996464252471923828125">
        <ele>926.4000244140625</ele>
        <time>2020-08-21T13:59:16.000Z</time>
      </trkpt>
      <trkpt lat="43.0085173062980175018310546875" lon="-1.31806760095059871673583984375">
        <ele>926.4000244140625</ele>
        <time>2020-08-21T13:59:17.000Z</time>
      </trkpt>
      <trkpt lat="43.00852124579250812530517578125" lon="-1.31807841360569000244140625">
        <ele>926.4000244140625</ele>
        <time>2020-08-21T13:59:23.000Z</time>
      </trkpt>
      <trkpt lat="43.00854052416980266571044921875" lon="-1.3181523419916629791259765625">
        <ele>926.5999755859375</ele>
        <time>2020-08-21T13:59:26.000Z</time>
      </trkpt>
      <trkpt lat="43.00857790745794773101806640625" lon="-1.31827916018664836883544921875">
        <ele>926.5999755859375</ele>
        <time>2020-08-21T13:59:31.000Z</time>
      </trkpt>
      <trkpt lat="43.0085984431207180023193359375" lon="-1.318292319774627685546875">
        <ele>926.5999755859375</ele>
        <time>2020-08-21T13:59:32.000Z</time>
      </trkpt>
      <trkpt lat="43.00869357772171497344970703125" lon="-1.31836985237896442413330078125">
        <ele>925.79998779296875</ele>
        <time>2020-08-21T13:59:37.000Z</time>
      </trkpt>
      <trkpt lat="43.00879684276878833770751953125" lon="-1.3185130991041660308837890625">
        <ele>926.5999755859375</ele>
        <time>2020-08-21T13:59:45.000Z</time>
      </trkpt>
      <trkpt lat="43.00886473618447780609130859375" lon="-1.318626590073108673095703125">
        <ele>928</ele>
        <time>2020-08-21T13:59:51.000Z</time>
      </trkpt>
      <trkpt lat="43.00889792852103710174560546875" lon="-1.3186894543468952178955078125">
        <ele>928.5999755859375</ele>
        <time>2020-08-21T13:59:54.000Z</time>
      </trkpt>
      <trkpt lat="43.008932881057262420654296875" lon="-1.31874837912619113922119140625">
        <ele>929</ele>
        <time>2020-08-21T13:59:57.000Z</time>
      </trkpt>
      <trkpt lat="43.0089662410318851470947265625" lon="-1.3188247382640838623046875">
        <ele>929.5999755859375</ele>
        <time>2020-08-21T14:00:01.000Z</time>
      </trkpt>
      <trkpt lat="43.00897269509732723236083984375" lon="-1.31888165138661861419677734375">
        <ele>930.20001220703125</ele>
        <time>2020-08-21T14:00:04.000Z</time>
      </trkpt>
      <trkpt lat="43.0089726112782955169677734375" lon="-1.3188869319856166839599609375">
        <ele>930.4000244140625</ele>
        <time>2020-08-21T14:00:06.000Z</time>
      </trkpt>
      <trkpt lat="43.00896397791802883148193359375" lon="-1.31889045238494873046875">
        <ele>930.79998779296875</ele>
        <time>2020-08-21T14:00:38.000Z</time>
      </trkpt>
      <trkpt lat="43.00896448083221912384033203125" lon="-1.318892128765583038330078125">
        <ele>930.79998779296875</ele>
        <time>2020-08-21T14:00:40.000Z</time>
      </trkpt>
      <trkpt lat="43.00898694433271884918212890625" lon="-1.3189347088336944580078125">
        <ele>931</ele>
        <time>2020-08-21T14:00:43.000Z</time>
      </trkpt>
      <trkpt lat="43.00901510752737522125244140625" lon="-1.31899732165038585662841796875">
        <ele>931.4000244140625</ele>
        <time>2020-08-21T14:00:46.000Z</time>
      </trkpt>
      <trkpt lat="43.009004630148410797119140625" lon="-1.3190713338553905487060546875">
        <ele>931.79998779296875</ele>
        <time>2020-08-21T14:00:49.000Z</time>
      </trkpt>
      <trkpt lat="43.00898962654173374176025390625" lon="-1.3191169314086437225341796875">
        <ele>932.5999755859375</ele>
        <time>2020-08-21T14:00:51.000Z</time>
      </trkpt>
      <trkpt lat="43.008981831371784210205078125" lon="-1.31913612596690654754638671875">
        <ele>933</ele>
        <time>2020-08-21T14:00:52.000Z</time>
      </trkpt>
      <trkpt lat="43.00895308144390583038330078125" lon="-1.31918993778526782989501953125">
        <ele>933.5999755859375</ele>
        <time>2020-08-21T14:00:55.000Z</time>
      </trkpt>
      <trkpt lat="43.00893967039883136749267578125" lon="-1.31920670159161090850830078125">
        <ele>934</ele>
        <time>2020-08-21T14:00:56.000Z</time>
      </trkpt>
      <trkpt lat="43.008843362331390380859375" lon="-1.3192865811288356781005859375">
        <ele>934.79998779296875</ele>
        <time>2020-08-21T14:01:02.000Z</time>
      </trkpt>
      <trkpt lat="43.00880656577646732330322265625" lon="-1.31928683258593082427978515625">
        <ele>935.20001220703125</ele>
        <time>2020-08-21T14:01:04.000Z</time>
      </trkpt>
      <trkpt lat="43.0086703598499298095703125" lon="-1.3192704878747463226318359375">
        <ele>935.5999755859375</ele>
        <time>2020-08-21T14:01:11.000Z</time>
      </trkpt>
      <trkpt lat="43.00856776535511016845703125" lon="-1.31922497414052486419677734375">
        <ele>935.79998779296875</ele>
        <time>2020-08-21T14:01:16.000Z</time>
      </trkpt>
      <trkpt lat="43.00850900821387767791748046875" lon="-1.31919647566974163055419921875">
        <ele>935.79998779296875</ele>
        <time>2020-08-21T14:01:19.000Z</time>
      </trkpt>
      <trkpt lat="43.00837657414376735687255859375" lon="-1.31924257613718509674072265625">
        <ele>936.4000244140625</ele>
        <time>2020-08-21T14:01:25.000Z</time>
      </trkpt>
      <trkpt lat="43.00832611508667469024658203125" lon="-1.3193559832870960235595703125">
        <ele>936.4000244140625</ele>
        <time>2020-08-21T14:01:30.000Z</time>
      </trkpt>
      <trkpt lat="43.00830197520554065704345703125" lon="-1.31954432465136051177978515625">
        <ele>936.79998779296875</ele>
        <time>2020-08-21T14:01:37.000Z</time>
      </trkpt>
      <trkpt lat="43.00831220112740993499755859375" lon="-1.319566704332828521728515625">
        <ele>936.79998779296875</ele>
        <time>2020-08-21T14:01:38.000Z</time>
      </trkpt>
      <trkpt lat="43.00837338902056217193603515625" lon="-1.31960618309676647186279296875">
        <ele>937.20001220703125</ele>
        <time>2020-08-21T14:01:41.000Z</time>
      </trkpt>
      <trkpt lat="43.0083956010639667510986328125" lon="-1.3196178339421749114990234375">
        <ele>937.20001220703125</ele>
        <time>2020-08-21T14:01:42.000Z</time>
      </trkpt>
      <trkpt lat="43.008416555821895599365234375" lon="-1.31963074207305908203125">
        <ele>937.5999755859375</ele>
        <time>2020-08-21T14:01:43.000Z</time>
      </trkpt>
      <trkpt lat="43.0085209943354129791259765625" lon="-1.31968178786337375640869140625">
        <ele>937.79998779296875</ele>
        <time>2020-08-21T14:01:49.000Z</time>
      </trkpt>
      <trkpt lat="43.00853247754275798797607421875" lon="-1.319673322141170501708984375">
        <ele>938</ele>
        <time>2020-08-21T14:01:56.000Z</time>
      </trkpt>
      <trkpt lat="43.0085340701043605804443359375" lon="-1.319671981036663055419921875">
        <ele>938.20001220703125</ele>
        <time>2020-08-21T14:02:01.000Z</time>
      </trkpt>
      <trkpt lat="43.0085411109030246734619140625" lon="-1.31967357359826564788818359375">
        <ele>938.4000244140625</ele>
        <time>2020-08-21T14:02:10.000Z</time>
      </trkpt>
      <trkpt lat="43.00856114365160465240478515625" lon="-1.3196956180036067962646484375">
        <ele>939</ele>
        <time>2020-08-21T14:02:18.000Z</time>
      </trkpt>
      <trkpt lat="43.008635155856609344482421875" lon="-1.31975772790610790252685546875">
        <ele>938.4000244140625</ele>
        <time>2020-08-21T14:02:23.000Z</time>
      </trkpt>
      <trkpt lat="43.0087466351687908172607421875" lon="-1.319855712354183197021484375">
        <ele>939.20001220703125</ele>
        <time>2020-08-21T14:02:30.000Z</time>
      </trkpt>
      <trkpt lat="43.00875929184257984161376953125" lon="-1.3198622502386569976806640625">
        <ele>939.4000244140625</ele>
        <time>2020-08-21T14:02:31.000Z</time>
      </trkpt>
      <trkpt lat="43.008788712322711944580078125" lon="-1.31986149586737155914306640625">
        <ele>939.79998779296875</ele>
        <time>2020-08-21T14:02:35.000Z</time>
      </trkpt>
      <trkpt lat="43.00879801623523235321044921875" lon="-1.31987524218857288360595703125">
        <ele>940</ele>
        <time>2020-08-21T14:02:36.000Z</time>
      </trkpt>
      <trkpt lat="43.00883489660918712615966796875" lon="-1.3199309818446636199951171875">
        <ele>940.20001220703125</ele>
        <time>2020-08-21T14:02:39.000Z</time>
      </trkpt>
      <trkpt lat="43.008851073682308197021484375" lon="-1.3199504278600215911865234375">
        <ele>940.4000244140625</ele>
        <time>2020-08-21T14:02:40.000Z</time>
      </trkpt>
      <trkpt lat="43.00898493267595767974853515625" lon="-1.3200949318706989288330078125">
        <ele>941.5999755859375</ele>
        <time>2020-08-21T14:02:48.000Z</time>
      </trkpt>
      <trkpt lat="43.0090879462659358978271484375" lon="-1.32019006647169589996337890625">
        <ele>942.5999755859375</ele>
        <time>2020-08-21T14:02:54.000Z</time>
      </trkpt>
      <trkpt lat="43.009103201329708099365234375" lon="-1.320207417011260986328125">
        <ele>943</ele>
        <time>2020-08-21T14:02:55.000Z</time>
      </trkpt>
      <trkpt lat="43.00918727181851863861083984375" lon="-1.32032417692244052886962890625">
        <ele>943.79998779296875</ele>
        <time>2020-08-21T14:03:01.000Z</time>
      </trkpt>
      <trkpt lat="43.00923488102853298187255859375" lon="-1.32040732540190219879150390625">
        <ele>944.20001220703125</ele>
        <time>2020-08-21T14:03:05.000Z</time>
      </trkpt>
      <trkpt lat="43.00927209667861461639404296875" lon="-1.32046398706734180450439453125">
        <ele>944.79998779296875</ele>
        <time>2020-08-21T14:03:08.000Z</time>
      </trkpt>
      <trkpt lat="43.00932926125824451446533203125" lon="-1.32048058323562145233154296875">
        <ele>945.20001220703125</ele>
        <time>2020-08-21T14:03:11.000Z</time>
      </trkpt>
      <trkpt lat="43.0094289220869541168212890625" lon="-1.32047086022794246673583984375">
        <ele>945.79998779296875</ele>
        <time>2020-08-21T14:03:16.000Z</time>
      </trkpt>
      <trkpt lat="43.00953344441950321197509765625" lon="-1.3204630650579929351806640625">
        <ele>946.20001220703125</ele>
        <time>2020-08-21T14:03:21.000Z</time>
      </trkpt>
      <trkpt lat="43.009687252342700958251953125" lon="-1.3204463012516498565673828125">
        <ele>947</ele>
        <time>2020-08-21T14:03:28.000Z</time>
      </trkpt>
      <trkpt lat="43.0097320117056369781494140625" lon="-1.32044319994747638702392578125">
        <ele>947.79998779296875</ele>
        <time>2020-08-21T14:03:30.000Z</time>
      </trkpt>
      <trkpt lat="43.0097950436174869537353515625" lon="-1.32042040117084980010986328125">
        <ele>948.20001220703125</ele>
        <time>2020-08-21T14:03:33.000Z</time>
      </trkpt>
      <trkpt lat="43.00984022207558155059814453125" lon="-1.3203939981758594512939453125">
        <ele>948.4000244140625</ele>
        <time>2020-08-21T14:03:36.000Z</time>
      </trkpt>
      <trkpt lat="43.0098624341189861297607421875" lon="-1.32038804702460765838623046875">
        <ele>948.5999755859375</ele>
        <time>2020-08-21T14:03:38.000Z</time>
      </trkpt>
      <trkpt lat="43.00990677438676357269287109375" lon="-1.3204020448029041290283203125">
        <ele>948.5999755859375</ele>
        <time>2020-08-21T14:03:41.000Z</time>
      </trkpt>
      <trkpt lat="43.00992152653634548187255859375" lon="-1.32040950469672679901123046875">
        <ele>948.5999755859375</ele>
        <time>2020-08-21T14:03:44.000Z</time>
      </trkpt>
      <trkpt lat="43.009696640074253082275390625" lon="-1.320439763367176055908203125">
        <ele>978.20001220703125</ele>
        <time>2020-08-22T05:36:18.000Z</time>
      </trkpt>
      <trkpt lat="43.00969672389328479766845703125" lon="-1.320439763367176055908203125">
        <ele>977.79998779296875</ele>
        <time>2020-08-22T05:36:19.000Z</time>
      </trkpt>
      <trkpt lat="43.0096968077123165130615234375" lon="-1.32043967954814434051513671875">
        <ele>978</ele>
        <time>2020-08-22T05:36:20.000Z</time>
      </trkpt>
      <trkpt lat="43.00968783907592296600341796875" lon="-1.3204367458820343017578125">
        <ele>977.4000244140625</ele>
        <time>2020-08-22T05:36:21.000Z</time>
      </trkpt>
      <trkpt lat="43.0096592567861080169677734375" lon="-1.3204372487962245941162109375">
        <ele>977.5999755859375</ele>
        <time>2020-08-22T05:36:23.000Z</time>
      </trkpt>
      <trkpt lat="43.0095201171934604644775390625" lon="-1.320437751710414886474609375">
        <ele>977.4000244140625</ele>
        <time>2020-08-22T05:36:30.000Z</time>
      </trkpt>
      <trkpt lat="43.00947435200214385986328125" lon="-1.32044068537652492523193359375">
        <ele>977</ele>
        <time>2020-08-22T05:36:32.000Z</time>
      </trkpt>
      <trkpt lat="43.00941207446157932281494140625" lon="-1.32044806145131587982177734375">
        <ele>976</ele>
        <time>2020-08-22T05:36:35.000Z</time>
      </trkpt>
      <trkpt lat="43.0093813128769397735595703125" lon="-1.32045929320156574249267578125">
        <ele>975.5999755859375</ele>
        <time>2020-08-22T05:36:37.000Z</time>
      </trkpt>
      <trkpt lat="43.00927695818245410919189453125" lon="-1.32050841115415096282958984375">
        <ele>975.4000244140625</ele>
        <time>2020-08-22T05:36:43.000Z</time>
      </trkpt>
      <trkpt lat="43.0092508904635906219482421875" lon="-1.32054847665131092071533203125">
        <ele>975.4000244140625</ele>
        <time>2020-08-22T05:36:45.000Z</time>
      </trkpt>
      <trkpt lat="43.009245358407497406005859375" lon="-1.320602037012577056884765625">
        <ele>975.4000244140625</ele>
        <time>2020-08-22T05:36:47.000Z</time>
      </trkpt>
      <trkpt lat="43.0092525668442249298095703125" lon="-1.3208328746259212493896484375">
        <ele>976.5999755859375</ele>
        <time>2020-08-22T05:36:56.000Z</time>
      </trkpt>
      <trkpt lat="43.0092458613216876983642578125" lon="-1.32090990431606769561767578125">
        <ele>977</ele>
        <time>2020-08-22T05:36:59.000Z</time>
      </trkpt>
      <trkpt lat="43.0092445202171802520751953125" lon="-1.32101601921021938323974609375">
        <ele>977.79998779296875</ele>
        <time>2020-08-22T05:37:03.000Z</time>
      </trkpt>
      <trkpt lat="43.0092411674559116363525390625" lon="-1.321041584014892578125">
        <ele>978</ele>
        <time>2020-08-22T05:37:04.000Z</time>
      </trkpt>
      <trkpt lat="43.00924007780849933624267578125" lon="-1.32122037000954151153564453125">
        <ele>978</ele>
        <time>2020-08-22T05:37:11.000Z</time>
      </trkpt>
      <trkpt lat="43.00925650633871555328369140625" lon="-1.3214264810085296630859375">
        <ele>978.4000244140625</ele>
        <time>2020-08-22T05:37:19.000Z</time>
      </trkpt>
      <trkpt lat="43.00928383134305477142333984375" lon="-1.3215500302612781524658203125">
        <ele>979</ele>
        <time>2020-08-22T05:37:24.000Z</time>
      </trkpt>
      <trkpt lat="43.00929866731166839599609375" lon="-1.32159671746194362640380859375">
        <ele>979.20001220703125</ele>
        <time>2020-08-22T05:37:26.000Z</time>
      </trkpt>
      <trkpt lat="43.009328506886959075927734375" lon="-1.32169076241552829742431640625">
        <ele>979.79998779296875</ele>
        <time>2020-08-22T05:37:30.000Z</time>
      </trkpt>
      <trkpt lat="43.0093430913984775543212890625" lon="-1.32173694670200347900390625">
        <ele>980.20001220703125</ele>
        <time>2020-08-22T05:37:32.000Z</time>
      </trkpt>
      <trkpt lat="43.0094007588922977447509765625" lon="-1.32189519703388214111328125">
        <ele>980.79998779296875</ele>
        <time>2020-08-22T05:37:39.000Z</time>
      </trkpt>
      <trkpt lat="43.0094508826732635498046875" lon="-1.32202905602753162384033203125">
        <ele>981.20001220703125</ele>
        <time>2020-08-22T05:37:45.000Z</time>
      </trkpt>
      <trkpt lat="43.00946437753736972808837890625" lon="-1.32204883731901645660400390625">
        <ele>981.4000244140625</ele>
        <time>2020-08-22T05:37:46.000Z</time>
      </trkpt>
      <trkpt lat="43.00955121405422687530517578125" lon="-1.32209812290966510772705078125">
        <ele>981.79998779296875</ele>
        <time>2020-08-22T05:37:51.000Z</time>
      </trkpt>
      <trkpt lat="43.00956864841282367706298828125" lon="-1.32208890281617641448974609375">
        <ele>982</ele>
        <time>2020-08-22T05:37:52.000Z</time>
      </trkpt>
      <trkpt lat="43.00959312357008457183837890625" lon="-1.3220495916903018951416015625">
        <ele>982.4000244140625</ele>
        <time>2020-08-22T05:37:54.000Z</time>
      </trkpt>
      <trkpt lat="43.00959530286490917205810546875" lon="-1.3219969533383846282958984375">
        <ele>983</ele>
        <time>2020-08-22T05:37:56.000Z</time>
      </trkpt>
      <trkpt lat="43.00959195010364055633544921875" lon="-1.3219704665243625640869140625">
        <ele>983.20001220703125</ele>
        <time>2020-08-22T05:37:57.000Z</time>
      </trkpt>
      <trkpt lat="43.00958189181983470916748046875" lon="-1.321918666362762451171875">
        <ele>983.4000244140625</ele>
        <time>2020-08-22T05:37:59.000Z</time>
      </trkpt>
      <trkpt lat="43.00953495316207408905029296875" lon="-1.32176150567829608917236328125">
        <ele>983.79998779296875</ele>
        <time>2020-08-22T05:38:05.000Z</time>
      </trkpt>
      <trkpt lat="43.00949019379913806915283203125" lon="-1.32154910825192928314208984375">
        <ele>984</ele>
        <time>2020-08-22T05:38:13.000Z</time>
      </trkpt>
      <trkpt lat="43.00950025208294391632080078125" lon="-1.32140845991671085357666015625">
        <ele>984.4000244140625</ele>
        <time>2020-08-22T05:38:18.000Z</time>
      </trkpt>
      <trkpt lat="43.00952472724020481109619140625" lon="-1.32133335806429386138916015625">
        <ele>984.4000244140625</ele>
        <time>2020-08-22T05:38:21.000Z</time>
      </trkpt>
      <trkpt lat="43.00958407111465930938720703125" lon="-1.32122104056179523468017578125">
        <ele>985</ele>
        <time>2020-08-22T05:38:26.000Z</time>
      </trkpt>
      <trkpt lat="43.00961324013769626617431640625" lon="-1.3211815617978572845458984375">
        <ele>985.20001220703125</ele>
        <time>2020-08-22T05:38:28.000Z</time>
      </trkpt>
      <trkpt lat="43.0096532218158245086669921875" lon="-1.32112246938049793243408203125">
        <ele>985.4000244140625</ele>
        <time>2020-08-22T05:38:31.000Z</time>
      </trkpt>
      <trkpt lat="43.00974190235137939453125" lon="-1.32104719989001750946044921875">
        <ele>985.4000244140625</ele>
        <time>2020-08-22T05:38:36.000Z</time>
      </trkpt>
      <trkpt lat="43.00990752875804901123046875" lon="-1.32094544358551502227783203125">
        <ele>985.79998779296875</ele>
        <time>2020-08-22T05:38:44.000Z</time>
      </trkpt>
      <trkpt lat="43.0100307427346706390380859375" lon="-1.32085726596415042877197265625">
        <ele>986.4000244140625</ele>
        <time>2020-08-22T05:38:50.000Z</time>
      </trkpt>
      <trkpt lat="43.01006603054702281951904296875" lon="-1.3208157755434513092041015625">
        <ele>986.5999755859375</ele>
        <time>2020-08-22T05:38:52.000Z</time>
      </trkpt>
      <trkpt lat="43.010174073278903961181640625" lon="-1.3205787353217601776123046875">
        <ele>987.20001220703125</ele>
        <time>2020-08-22T05:39:01.000Z</time>
      </trkpt>
      <trkpt lat="43.0102309025824069976806640625" lon="-1.3204233348369598388671875">
        <ele>987.5999755859375</ele>
        <time>2020-08-22T05:39:07.000Z</time>
      </trkpt>
      <trkpt lat="43.0102496780455112457275390625" lon="-1.3203722052276134490966796875">
        <ele>987.79998779296875</ele>
        <time>2020-08-22T05:39:09.000Z</time>
      </trkpt>
      <trkpt lat="43.01029636524617671966552734375" lon="-1.32025578059256076812744140625">
        <ele>988.20001220703125</ele>
        <time>2020-08-22T05:39:14.000Z</time>
      </trkpt>
      <trkpt lat="43.01031631417572498321533203125" lon="-1.320205070078372955322265625">
        <ele>988.5999755859375</ele>
        <time>2020-08-22T05:39:16.000Z</time>
      </trkpt>
      <trkpt lat="43.01037750206887722015380859375" lon="-1.32008646614849567413330078125">
        <ele>989</ele>
        <time>2020-08-22T05:39:21.000Z</time>
      </trkpt>
      <trkpt lat="43.01051437854766845703125" lon="-1.31994799710810184478759765625">
        <ele>989.4000244140625</ele>
        <time>2020-08-22T05:39:29.000Z</time>
      </trkpt>
      <trkpt lat="43.01056777127087116241455078125" lon="-1.319907344877719879150390625">
        <ele>989.79998779296875</ele>
        <time>2020-08-22T05:39:32.000Z</time>
      </trkpt>
      <trkpt lat="43.01065963692963123321533203125" lon="-1.3198454864323139190673828125">
        <ele>990.4000244140625</ele>
        <time>2020-08-22T05:39:37.000Z</time>
      </trkpt>
      <trkpt lat="43.0107096768915653228759765625" lon="-1.3198086060583591461181640625">
        <ele>990.79998779296875</ele>
        <time>2020-08-22T05:39:40.000Z</time>
      </trkpt>
      <trkpt lat="43.010811768472194671630859375" lon="-1.31973844952881336212158203125">
        <ele>991.79998779296875</ele>
        <time>2020-08-22T05:39:46.000Z</time>
      </trkpt>
      <trkpt lat="43.01082928664982318878173828125" lon="-1.31972872652113437652587890625">
        <ele>992</ele>
        <time>2020-08-22T05:39:47.000Z</time>
      </trkpt>
      <trkpt lat="43.01093858666718006134033203125" lon="-1.319673322141170501708984375">
        <ele>992.79998779296875</ele>
        <time>2020-08-22T05:39:54.000Z</time>
      </trkpt>
      <trkpt lat="43.0110006965696811676025390625" lon="-1.319660246372222900390625">
        <ele>993.4000244140625</ele>
        <time>2020-08-22T05:39:58.000Z</time>
      </trkpt>
      <trkpt lat="43.01105056889355182647705078125" lon="-1.3196399621665477752685546875">
        <ele>993.5999755859375</ele>
        <time>2020-08-22T05:40:01.000Z</time>
      </trkpt>
      <trkpt lat="43.0111002735793590545654296875" lon="-1.31963283754885196685791015625">
        <ele>994</ele>
        <time>2020-08-22T05:40:04.000Z</time>
      </trkpt>
      <trkpt lat="43.01113673485815525054931640625" lon="-1.31962596438825130462646484375">
        <ele>994.20001220703125</ele>
        <time>2020-08-22T05:40:06.000Z</time>
      </trkpt>
      <trkpt lat="43.0112367309629917144775390625" lon="-1.319626383483409881591796875">
        <ele>995</ele>
        <time>2020-08-22T05:40:12.000Z</time>
      </trkpt>
      <trkpt lat="43.0112533271312713623046875" lon="-1.3196272216737270355224609375">
        <ele>995.20001220703125</ele>
        <time>2020-08-22T05:40:13.000Z</time>
      </trkpt>
      <trkpt lat="43.0113579332828521728515625" lon="-1.3196320831775665283203125">
        <ele>995.79998779296875</ele>
        <time>2020-08-22T05:40:19.000Z</time>
      </trkpt>
      <trkpt lat="43.01140822470188140869140625" lon="-1.3196294009685516357421875">
        <ele>996.20001220703125</ele>
        <time>2020-08-22T05:40:22.000Z</time>
      </trkpt>
      <trkpt lat="43.0114633776247501373291015625" lon="-1.31963937543332576751708984375">
        <ele>996.20001220703125</ele>
        <time>2020-08-22T05:40:25.000Z</time>
      </trkpt>
      <trkpt lat="43.0116129107773303985595703125" lon="-1.319664604961872100830078125">
        <ele>997.20001220703125</ele>
        <time>2020-08-22T05:40:33.000Z</time>
      </trkpt>
      <trkpt lat="43.01163311116397380828857421875" lon="-1.31966602988541126251220703125">
        <ele>997.4000244140625</ele>
        <time>2020-08-22T05:40:34.000Z</time>
      </trkpt>
      <trkpt lat="43.0117500387132167816162109375" lon="-1.31969670765101909637451171875">
        <ele>998.4000244140625</ele>
        <time>2020-08-22T05:40:40.000Z</time>
      </trkpt>
      <trkpt lat="43.01176965236663818359375" lon="-1.31969855166971683502197265625">
        <ele>998.5999755859375</ele>
        <time>2020-08-22T05:40:41.000Z</time>
      </trkpt>
      <trkpt lat="43.01184676587581634521484375" lon="-1.3196932710707187652587890625">
        <ele>999.4000244140625</ele>
        <time>2020-08-22T05:40:45.000Z</time>
      </trkpt>
      <trkpt lat="43.01193921826779842376708984375" lon="-1.31968715228140354156494140625">
        <ele>1000.20001220703125</ele>
        <time>2020-08-22T05:40:50.000Z</time>
      </trkpt>
      <trkpt lat="43.0119579099118709564208984375" lon="-1.31968849338591098785400390625">
        <ele>1000.4000244140625</ele>
        <time>2020-08-22T05:40:51.000Z</time>
      </trkpt>
      <trkpt lat="43.01197743974626064300537109375" lon="-1.319686733186244964599609375">
        <ele>1000.5999755859375</ele>
        <time>2020-08-22T05:40:52.000Z</time>
      </trkpt>
      <trkpt lat="43.0120725743472576141357421875" lon="-1.3196667842566967010498046875">
        <ele>1001.20001220703125</ele>
        <time>2020-08-22T05:40:57.000Z</time>
      </trkpt>
      <trkpt lat="43.01212613470852375030517578125" lon="-1.3196453265845775604248046875">
        <ele>1001.5999755859375</ele>
        <time>2020-08-22T05:41:00.000Z</time>
      </trkpt>
      <trkpt lat="43.01221431232988834381103515625" lon="-1.31959495134651660919189453125">
        <ele>1002.5999755859375</ele>
        <time>2020-08-22T05:41:06.000Z</time>
      </trkpt>
      <trkpt lat="43.01222923211753368377685546875" lon="-1.319586820900440216064453125">
        <ele>1002.5999755859375</ele>
        <time>2020-08-22T05:41:07.000Z</time>
      </trkpt>
      <trkpt lat="43.0123210139572620391845703125" lon="-1.3195320032536983489990234375">
        <ele>1003.5999755859375</ele>
        <time>2020-08-22T05:41:13.000Z</time>
      </trkpt>
      <trkpt lat="43.0124397017061710357666015625" lon="-1.31950761191546916961669921875">
        <ele>1004.79998779296875</ele>
        <time>2020-08-22T05:41:20.000Z</time>
      </trkpt>
      <trkpt lat="43.0124521069228649139404296875" lon="-1.3195081986486911773681640625">
        <ele>1004.79998779296875</ele>
        <time>2020-08-22T05:41:21.000Z</time>
      </trkpt>
      <trkpt lat="43.01254757679998874664306640625" lon="-1.319481544196605682373046875">
        <ele>1005.4000244140625</ele>
        <time>2020-08-22T05:41:27.000Z</time>
      </trkpt>
      <trkpt lat="43.01258043386042118072509765625" lon="-1.3194750063121318817138671875">
        <ele>1006</ele>
        <time>2020-08-22T05:41:29.000Z</time>
      </trkpt>
      <trkpt lat="43.01269040443003177642822265625" lon="-1.31944977678358554840087890625">
        <ele>1006.5999755859375</ele>
        <time>2020-08-22T05:41:36.000Z</time>
      </trkpt>
      <trkpt lat="43.01277573220431804656982421875" lon="-1.31942681036889553070068359375">
        <ele>1007</ele>
        <time>2020-08-22T05:41:41.000Z</time>
      </trkpt>
      <trkpt lat="43.01288302056491374969482421875" lon="-1.31940702907741069793701171875">
        <ele>1007.4000244140625</ele>
        <time>2020-08-22T05:41:47.000Z</time>
      </trkpt>
      <trkpt lat="43.0129466392099857330322265625" lon="-1.3193831406533718109130859375">
        <ele>1008</ele>
        <time>2020-08-22T05:41:50.000Z</time>
      </trkpt>
      <trkpt lat="43.01302718929946422576904296875" lon="-1.319354139268398284912109375">
        <ele>1008.5999755859375</ele>
        <time>2020-08-22T05:41:54.000Z</time>
      </trkpt>
      <trkpt lat="43.0131437815725803375244140625" lon="-1.31932052783668041229248046875">
        <ele>1009</ele>
        <time>2020-08-22T05:42:00.000Z</time>
      </trkpt>
      <trkpt lat="43.0132165364921092987060546875" lon="-1.31930192001163959503173828125">
        <ele>1010</ele>
        <time>2020-08-22T05:42:04.000Z</time>
      </trkpt>
      <trkpt lat="43.01323606632649898529052734375" lon="-1.31929990835487842559814453125">
        <ele>1010.20001220703125</ele>
        <time>2020-08-22T05:42:05.000Z</time>
      </trkpt>
      <trkpt lat="43.01336464472115039825439453125" lon="-1.31926286034286022186279296875">
        <ele>1011.4000244140625</ele>
        <time>2020-08-22T05:42:12.000Z</time>
      </trkpt>
      <trkpt lat="43.0133824981749057769775390625" lon="-1.31925984285771846771240234375">
        <ele>1011.5999755859375</ele>
        <time>2020-08-22T05:42:13.000Z</time>
      </trkpt>
      <trkpt lat="43.01348953507840633392333984375" lon="-1.31923721171915531158447265625">
        <ele>1012.5999755859375</ele>
        <time>2020-08-22T05:42:19.000Z</time>
      </trkpt>
      <trkpt lat="43.013526834547519683837890625" lon="-1.31923067383468151092529296875">
        <ele>1012.79998779296875</ele>
        <time>2020-08-22T05:42:21.000Z</time>
      </trkpt>
      <trkpt lat="43.01365323364734649658203125" lon="-1.31920821033418178558349609375">
        <ele>1013.79998779296875</ele>
        <time>2020-08-22T05:42:28.000Z</time>
      </trkpt>
      <trkpt lat="43.01367142237722873687744140625" lon="-1.31920871324837207794189453125">
        <ele>1013.79998779296875</ele>
        <time>2020-08-22T05:42:29.000Z</time>
      </trkpt>
      <trkpt lat="43.0138175189495086669921875" lon="-1.31918884813785552978515625">
        <ele>1014.5999755859375</ele>
        <time>2020-08-22T05:42:37.000Z</time>
      </trkpt>
      <trkpt lat="43.013835959136486053466796875" lon="-1.3191886804997920989990234375">
        <ele>1014.79998779296875</ele>
        <time>2020-08-22T05:42:38.000Z</time>
      </trkpt>
      <trkpt lat="43.01393092609941959381103515625" lon="-1.31917811930179595947265625">
        <ele>1015.4000244140625</ele>
        <time>2020-08-22T05:42:43.000Z</time>
      </trkpt>
      <trkpt lat="43.01396830938756465911865234375" lon="-1.319171749055385589599609375">
        <ele>1015.79998779296875</ele>
        <time>2020-08-22T05:42:45.000Z</time>
      </trkpt>
      <trkpt lat="43.01406302489340305328369140625" lon="-1.31916646845638751983642578125">
        <ele>1016.79998779296875</ele>
        <time>2020-08-22T05:42:50.000Z</time>
      </trkpt>
      <trkpt lat="43.0140812136232852935791015625" lon="-1.31916998885571956634521484375">
        <ele>1017</ele>
        <time>2020-08-22T05:42:51.000Z</time>
      </trkpt>
      <trkpt lat="43.01422680728137493133544921875" lon="-1.31920267827808856964111328125">
        <ele>1018</ele>
        <time>2020-08-22T05:42:59.000Z</time>
      </trkpt>
      <trkpt lat="43.01424491219222545623779296875" lon="-1.3192056119441986083984375">
        <ele>1018.20001220703125</ele>
        <time>2020-08-22T05:43:00.000Z</time>
      </trkpt>
      <trkpt lat="43.01437282003462314605712890625" lon="-1.31923184730112552642822265625">
        <ele>1019</ele>
        <time>2020-08-22T05:43:07.000Z</time>
      </trkpt>
      <trkpt lat="43.014391176402568817138671875" lon="-1.31923520006239414215087890625">
        <ele>1019</ele>
        <time>2020-08-22T05:43:08.000Z</time>
      </trkpt>
      <trkpt lat="43.01449569873511791229248046875" lon="-1.31926956586539745330810546875">
        <ele>1020</ele>
        <time>2020-08-22T05:43:14.000Z</time>
      </trkpt>
      <trkpt lat="43.01454431377351284027099609375" lon="-1.3192996568977832794189453125">
        <ele>1020.5999755859375</ele>
        <time>2020-08-22T05:43:17.000Z</time>
      </trkpt>
      <trkpt lat="43.0146414600312709808349609375" lon="-1.31936646066606044769287109375">
        <ele>1021.20001220703125</ele>
        <time>2020-08-22T05:43:24.000Z</time>
      </trkpt>
      <trkpt lat="43.01470072008669376373291015625" lon="-1.3194136507809162139892578125">
        <ele>1021.5999755859375</ele>
        <time>2020-08-22T05:43:28.000Z</time>
      </trkpt>
      <trkpt lat="43.014803230762481689453125" lon="-1.3195028342306613922119140625">
        <ele>1022.20001220703125</ele>
        <time>2020-08-22T05:43:35.000Z</time>
      </trkpt>
      <trkpt lat="43.01481722854077816009521484375" lon="-1.31951767019927501678466796875">
        <ele>1022.4000244140625</ele>
        <time>2020-08-22T05:43:36.000Z</time>
      </trkpt>
      <trkpt lat="43.014884702861309051513671875" lon="-1.31959310732781887054443359375">
        <ele>1023.20001220703125</ele>
        <time>2020-08-22T05:43:41.000Z</time>
      </trkpt>
      <trkpt lat="43.0149547755718231201171875" lon="-1.319663934409618377685546875">
        <ele>1024.199951171875</ele>
        <time>2020-08-22T05:43:46.000Z</time>
      </trkpt>
      <trkpt lat="43.01497950218617916107177734375" lon="-1.31969754584133625030517578125">
        <ele>1024.4000244140625</ele>
        <time>2020-08-22T05:43:48.000Z</time>
      </trkpt>
      <trkpt lat="43.01501537673175334930419921875" lon="-1.3197472505271434783935546875">
        <ele>1024.4000244140625</ele>
        <time>2020-08-22T05:43:51.000Z</time>
      </trkpt>
      <trkpt lat="43.01505510695278644561767578125" lon="-1.31979293189942836761474609375">
        <ele>1024.5999755859375</ele>
        <time>2020-08-22T05:43:54.000Z</time>
      </trkpt>
      <trkpt lat="43.0150903947651386260986328125" lon="-1.3198438100516796112060546875">
        <ele>1025.199951171875</ele>
        <time>2020-08-22T05:43:57.000Z</time>
      </trkpt>
      <trkpt lat="43.01515501923859119415283203125" lon="-1.319913379848003387451171875">
        <ele>1026</ele>
        <time>2020-08-22T05:44:02.000Z</time>
      </trkpt>
      <trkpt lat="43.01518133841454982757568359375" lon="-1.3199430517852306365966796875">
        <ele>1026.199951171875</ele>
        <time>2020-08-22T05:44:04.000Z</time>
      </trkpt>
      <trkpt lat="43.0152607150375843048095703125" lon="-1.3200339116156101226806640625">
        <ele>1027.199951171875</ele>
        <time>2020-08-22T05:44:10.000Z</time>
      </trkpt>
      <trkpt lat="43.0153539218008518218994140625" lon="-1.32015167735517024993896484375">
        <ele>1028</ele>
        <time>2020-08-22T05:44:17.000Z</time>
      </trkpt>
      <trkpt lat="43.0153783969581127166748046875" lon="-1.320186294615268707275390625">
        <ele>1028.5999755859375</ele>
        <time>2020-08-22T05:44:19.000Z</time>
      </trkpt>
      <trkpt lat="43.01544964313507080078125" lon="-1.3202608935534954071044921875">
        <ele>1029</ele>
        <time>2020-08-22T05:44:24.000Z</time>
      </trkpt>
      <trkpt lat="43.01548308692872524261474609375" lon="-1.3203192315995693206787109375">
        <ele>1029.5999755859375</ele>
        <time>2020-08-22T05:44:27.000Z</time>
      </trkpt>
      <trkpt lat="43.0155554227530956268310546875" lon="-1.32042811252176761627197265625">
        <ele>1030.4000244140625</ele>
        <time>2020-08-22T05:44:33.000Z</time>
      </trkpt>
      <trkpt lat="43.01559649407863616943359375" lon="-1.32047387771308422088623046875">
        <ele>1031</ele>
        <time>2020-08-22T05:44:36.000Z</time>
      </trkpt>
      <trkpt lat="43.01568794064223766326904296875" lon="-1.32059189490973949432373046875">
        <ele>1031.800048828125</ele>
        <time>2020-08-22T05:44:43.000Z</time>
      </trkpt>
      <trkpt lat="43.01570101641118526458740234375" lon="-1.32060899399220943450927734375">
        <ele>1032</ele>
        <time>2020-08-22T05:44:44.000Z</time>
      </trkpt>
      <trkpt lat="43.01578248851001262664794921875" lon="-1.32070438005030155181884765625">
        <ele>1032.800048828125</ele>
        <time>2020-08-22T05:44:50.000Z</time>
      </trkpt>
      <trkpt lat="43.015860021114349365234375" lon="-1.32080311886966228485107421875">
        <ele>1033.5999755859375</ele>
        <time>2020-08-22T05:44:56.000Z</time>
      </trkpt>
      <trkpt lat="43.01590033806860446929931640625" lon="-1.32085089571774005889892578125">
        <ele>1034</ele>
        <time>2020-08-22T05:44:59.000Z</time>
      </trkpt>
      <trkpt lat="43.01595917902886867523193359375" lon="-1.3209116645157337188720703125">
        <ele>1034.5999755859375</ele>
        <time>2020-08-22T05:45:03.000Z</time>
      </trkpt>
      <trkpt lat="43.0159986577928066253662109375" lon="-1.32096187211573123931884765625">
        <ele>1035</ele>
        <time>2020-08-22T05:45:06.000Z</time>
      </trkpt>
      <trkpt lat="43.01605707965791225433349609375" lon="-1.32104921154677867889404296875">
        <ele>1035.800048828125</ele>
        <time>2020-08-22T05:45:11.000Z</time>
      </trkpt>
      <trkpt lat="43.01609463058412075042724609375" lon="-1.32113319821655750274658203125">
        <ele>1036</ele>
        <time>2020-08-22T05:45:15.000Z</time>
      </trkpt>
      <trkpt lat="43.01613989286124706268310546875" lon="-1.3212063722312450408935546875">
        <ele>1036.4000244140625</ele>
        <time>2020-08-22T05:45:19.000Z</time>
      </trkpt>
      <trkpt lat="43.016184233129024505615234375" lon="-1.321276612579822540283203125">
        <ele>1037.199951171875</ele>
        <time>2020-08-22T05:45:23.000Z</time>
      </trkpt>
      <trkpt lat="43.01623511128127574920654296875" lon="-1.3213766925036907196044921875">
        <ele>1038</ele>
        <time>2020-08-22T05:45:28.000Z</time>
      </trkpt>
      <trkpt lat="43.01624558866024017333984375" lon="-1.3214239664375782012939453125">
        <ele>1038.199951171875</ele>
        <time>2020-08-22T05:45:30.000Z</time>
      </trkpt>
      <trkpt lat="43.01625187508761882781982421875" lon="-1.32144701667129993438720703125">
        <ele>1038.199951171875</ele>
        <time>2020-08-22T05:45:31.000Z</time>
      </trkpt>
      <trkpt lat="43.01630183123052120208740234375" lon="-1.32156738080084323883056640625">
        <ele>1038.800048828125</ele>
        <time>2020-08-22T05:45:36.000Z</time>
      </trkpt>
      <trkpt lat="43.0163215287029743194580078125" lon="-1.32160962559282779693603515625">
        <ele>1039.199951171875</ele>
        <time>2020-08-22T05:45:38.000Z</time>
      </trkpt>
      <trkpt lat="43.0163656175136566162109375" lon="-1.3217461667954921722412109375">
        <ele>1040.4000244140625</ele>
        <time>2020-08-22T05:45:44.000Z</time>
      </trkpt>
      <trkpt lat="43.0163978040218353271484375" lon="-1.32188019342720508575439453125">
        <ele>1041</ele>
        <time>2020-08-22T05:45:50.000Z</time>
      </trkpt>
      <trkpt lat="43.0164234526455402374267578125" lon="-1.32194993086159229278564453125">
        <ele>1041.4000244140625</ele>
        <time>2020-08-22T05:45:53.000Z</time>
      </trkpt>
      <trkpt lat="43.01644264720380306243896484375" lon="-1.322047412395477294921875">
        <ele>1041.800048828125</ele>
        <time>2020-08-22T05:45:57.000Z</time>
      </trkpt>
      <trkpt lat="43.0164653621613979339599609375" lon="-1.3221149705350399017333984375">
        <ele>1042.4000244140625</ele>
        <time>2020-08-22T05:46:00.000Z</time>
      </trkpt>
      <trkpt lat="43.0164868198335170745849609375" lon="-1.3222118653357028961181640625">
        <ele>1042.800048828125</ele>
        <time>2020-08-22T05:46:04.000Z</time>
      </trkpt>
      <trkpt lat="43.01650308072566986083984375" lon="-1.32228369824588298797607421875">
        <ele>1043.4000244140625</ele>
        <time>2020-08-22T05:46:07.000Z</time>
      </trkpt>
      <trkpt lat="43.01654205657541751861572265625" lon="-1.3223840296268463134765625">
        <ele>1044</ele>
        <time>2020-08-22T05:46:12.000Z</time>
      </trkpt>
      <trkpt lat="43.01659922115504741668701171875" lon="-1.32248201407492160797119140625">
        <ele>1044.5999755859375</ele>
        <time>2020-08-22T05:46:17.000Z</time>
      </trkpt>
      <trkpt lat="43.0166440643370151519775390625" lon="-1.32256600074470043182373046875">
        <ele>1044.800048828125</ele>
        <time>2020-08-22T05:46:21.000Z</time>
      </trkpt>
      <trkpt lat="43.0167077668011188507080078125" lon="-1.3226889632642269134521484375">
        <ele>1045.800048828125</ele>
        <time>2020-08-22T05:46:27.000Z</time>
      </trkpt>
      <trkpt lat="43.01674791611731052398681640625" lon="-1.3227389194071292877197265625">
        <ele>1046.4000244140625</ele>
        <time>2020-08-22T05:46:30.000Z</time>
      </trkpt>
      <trkpt lat="43.01679820753633975982666015625" lon="-1.32281058467924594879150390625">
        <ele>1046.800048828125</ele>
        <time>2020-08-22T05:46:34.000Z</time>
      </trkpt>
      <trkpt lat="43.0168564617633819580078125" lon="-1.32286741398274898529052734375">
        <ele>1047.4000244140625</ele>
        <time>2020-08-22T05:46:38.000Z</time>
      </trkpt>
      <trkpt lat="43.0169099383056163787841796875" lon="-1.3229016959667205810546875">
        <ele>1048</ele>
        <time>2020-08-22T05:46:41.000Z</time>
      </trkpt>
      <trkpt lat="43.01699484698474407196044921875" lon="-1.3229789771139621734619140625">
        <ele>1048.5999755859375</ele>
        <time>2020-08-22T05:46:46.000Z</time>
      </trkpt>
      <trkpt lat="43.01704631187021732330322265625" lon="-1.32300026714801788330078125">
        <ele>1049</ele>
        <time>2020-08-22T05:46:49.000Z</time>
      </trkpt>
      <trkpt lat="43.0171278677880764007568359375" lon="-1.32305583916604518890380859375">
        <ele>1049.5999755859375</ele>
        <time>2020-08-22T05:46:54.000Z</time>
      </trkpt>
      <trkpt lat="43.0171972699463367462158203125" lon="-1.32308970205485820770263671875">
        <ele>1050.199951171875</ele>
        <time>2020-08-22T05:46:58.000Z</time>
      </trkpt>
      <trkpt lat="43.01725837402045726776123046875" lon="-1.323125325143337249755859375">
        <ele>1050.800048828125</ele>
        <time>2020-08-22T05:47:02.000Z</time>
      </trkpt>
      <trkpt lat="43.01732241176068782806396484375" lon="-1.3231752812862396240234375">
        <ele>1051.5999755859375</ele>
        <time>2020-08-22T05:47:06.000Z</time>
      </trkpt>
      <trkpt lat="43.01736968569457530975341796875" lon="-1.32321760989725589752197265625">
        <ele>1051.800048828125</ele>
        <time>2020-08-22T05:47:09.000Z</time>
      </trkpt>
      <trkpt lat="43.0174614675343036651611328125" lon="-1.3232471980154514312744140625">
        <ele>1052.5999755859375</ele>
        <time>2020-08-22T05:47:14.000Z</time>
      </trkpt>
      <trkpt lat="43.0174809135496616363525390625" lon="-1.3232579268515110015869140625">
        <ele>1052.5999755859375</ele>
        <time>2020-08-22T05:47:15.000Z</time>
      </trkpt>
      <trkpt lat="43.0175887048244476318359375" lon="-1.32329153828322887420654296875">
        <ele>1053.4000244140625</ele>
        <time>2020-08-22T05:47:21.000Z</time>
      </trkpt>
      <trkpt lat="43.0176240764558315277099609375" lon="-1.3233055360615253448486328125">
        <ele>1053.800048828125</ele>
        <time>2020-08-22T05:47:23.000Z</time>
      </trkpt>
      <trkpt lat="43.0177082307636737823486328125" lon="-1.32334853522479534149169921875">
        <ele>1054.4000244140625</ele>
        <time>2020-08-22T05:47:28.000Z</time>
      </trkpt>
      <trkpt lat="43.01776832900941371917724609375" lon="-1.32336077280342578887939453125">
        <ele>1055</ele>
        <time>2020-08-22T05:47:32.000Z</time>
      </trkpt>
      <trkpt lat="43.0177940614521503448486328125" lon="-1.3233632035553455352783203125">
        <ele>1055.199951171875</ele>
        <time>2020-08-22T05:47:34.000Z</time>
      </trkpt>
      <trkpt lat="43.0178381502628326416015625" lon="-1.32336446084082126617431640625">
        <ele>1055.4000244140625</ele>
        <time>2020-08-22T05:47:38.000Z</time>
      </trkpt>
      <trkpt lat="43.017864637076854705810546875" lon="-1.3233675621449947357177734375">
        <ele>1055.5999755859375</ele>
        <time>2020-08-22T05:47:41.000Z</time>
      </trkpt>
      <trkpt lat="43.01789858378469944000244140625" lon="-1.32338709197938442230224609375">
        <ele>1055.800048828125</ele>
        <time>2020-08-22T05:47:46.000Z</time>
      </trkpt>
      <trkpt lat="43.01790880970656871795654296875" lon="-1.32339145056903362274169921875">
        <ele>1056</ele>
        <time>2020-08-22T05:47:47.000Z</time>
      </trkpt>
      <trkpt lat="43.0179191194474697113037109375" lon="-1.323400922119617462158203125">
        <ele>1056</ele>
        <time>2020-08-22T05:47:48.000Z</time>
      </trkpt>
      <trkpt lat="43.0179583467543125152587890625" lon="-1.32339513860642910003662109375">
        <ele>1056.199951171875</ele>
        <time>2020-08-22T05:47:52.000Z</time>
      </trkpt>
      <trkpt lat="43.01796865649521350860595703125" lon="-1.32339279167354106903076171875">
        <ele>1056.199951171875</ele>
        <time>2020-08-22T05:47:53.000Z</time>
      </trkpt>
      <trkpt lat="43.0180418305099010467529296875" lon="-1.3233657181262969970703125">
        <ele>1056.800048828125</ele>
        <time>2020-08-22T05:48:01.000Z</time>
      </trkpt>
      <trkpt lat="43.01813277415931224822998046875" lon="-1.3233630359172821044921875">
        <ele>1057.4000244140625</ele>
        <time>2020-08-22T05:48:07.000Z</time>
      </trkpt>
      <trkpt lat="43.01816470921039581298828125" lon="-1.3233715854585170745849609375">
        <ele>1057.5999755859375</ele>
        <time>2020-08-22T05:48:09.000Z</time>
      </trkpt>
      <trkpt lat="43.018258251249790191650390625" lon="-1.32341508753597736358642578125">
        <ele>1058.199951171875</ele>
        <time>2020-08-22T05:48:15.000Z</time>
      </trkpt>
      <trkpt lat="43.018289096653461456298828125" lon="-1.32342807948589324951171875">
        <ele>1058.4000244140625</ele>
        <time>2020-08-22T05:48:17.000Z</time>
      </trkpt>
      <trkpt lat="43.0183831416070461273193359375" lon="-1.3234416581690311431884765625">
        <ele>1059.199951171875</ele>
        <time>2020-08-22T05:48:23.000Z</time>
      </trkpt>
      <trkpt lat="43.01839630119502544403076171875" lon="-1.32344559766352176666259765625">
        <ele>1059.4000244140625</ele>
        <time>2020-08-22T05:48:24.000Z</time>
      </trkpt>
      <trkpt lat="43.01847240887582302093505859375" lon="-1.323457919061183929443359375">
        <ele>1059.800048828125</ele>
        <time>2020-08-22T05:48:29.000Z</time>
      </trkpt>
      <trkpt lat="43.0185833014547824859619140625" lon="-1.323469989001750946044921875">
        <ele>1060.5999755859375</ele>
        <time>2020-08-22T05:48:35.000Z</time>
      </trkpt>
      <trkpt lat="43.0186389572918415069580078125" lon="-1.32347292266786098480224609375">
        <ele>1061</ele>
        <time>2020-08-22T05:48:38.000Z</time>
      </trkpt>
      <trkpt lat="43.01871045492589473724365234375" lon="-1.3234862498939037322998046875">
        <ele>1061.5999755859375</ele>
        <time>2020-08-22T05:48:42.000Z</time>
      </trkpt>
      <trkpt lat="43.01879628561437129974365234375" lon="-1.3235010020434856414794921875">
        <ele>1062</ele>
        <time>2020-08-22T05:48:47.000Z</time>
      </trkpt>
      <trkpt lat="43.018864095211029052734375" lon="-1.3235170952975749969482421875">
        <ele>1062.5999755859375</ele>
        <time>2020-08-22T05:48:51.000Z</time>
      </trkpt>
      <trkpt lat="43.0189646780490875244140625" lon="-1.3235476054251194000244140625">
        <ele>1063.5999755859375</ele>
        <time>2020-08-22T05:48:57.000Z</time>
      </trkpt>
      <trkpt lat="43.0189990438520908355712890625" lon="-1.323557831346988677978515625">
        <ele>1063.800048828125</ele>
        <time>2020-08-22T05:48:59.000Z</time>
      </trkpt>
      <trkpt lat="43.01910272799432277679443359375" lon="-1.32358373142778873443603515625">
        <ele>1064.4000244140625</ele>
        <time>2020-08-22T05:49:05.000Z</time>
      </trkpt>
      <trkpt lat="43.0191904865205287933349609375" lon="-1.32360150106251239776611328125">
        <ele>1064.800048828125</ele>
        <time>2020-08-22T05:49:10.000Z</time>
      </trkpt>
      <trkpt lat="43.01924589090049266815185546875" lon="-1.32362899370491504669189453125">
        <ele>1065.4000244140625</ele>
        <time>2020-08-22T05:49:13.000Z</time>
      </trkpt>
      <trkpt lat="43.01928075961768627166748046875" lon="-1.32365296594798564910888671875">
        <ele>1066</ele>
        <time>2020-08-22T05:49:15.000Z</time>
      </trkpt>
      <trkpt lat="43.01939810626208782196044921875" lon="-1.32372069172561168670654296875">
        <ele>1066.800048828125</ele>
        <time>2020-08-22T05:49:22.000Z</time>
      </trkpt>
      <trkpt lat="43.0194295383989810943603515625" lon="-1.32374080829322338104248046875">
        <ele>1067</ele>
        <time>2020-08-22T05:49:24.000Z</time>
      </trkpt>
      <trkpt lat="43.01950983703136444091796875" lon="-1.32378271780908107757568359375">
        <ele>1067.5999755859375</ele>
        <time>2020-08-22T05:49:29.000Z</time>
      </trkpt>
      <trkpt lat="43.01953976042568683624267578125" lon="-1.32380484603345394134521484375">
        <ele>1068</ele>
        <time>2020-08-22T05:49:31.000Z</time>
      </trkpt>
      <trkpt lat="43.01967219449579715728759765625" lon="-1.32391314022243022918701171875">
        <ele>1068.800048828125</ele>
        <time>2020-08-22T05:49:40.000Z</time>
      </trkpt>
      <trkpt lat="43.01970027387142181396484375" lon="-1.32394180633127689361572265625">
        <ele>1069.199951171875</ele>
        <time>2020-08-22T05:49:42.000Z</time>
      </trkpt>
      <trkpt lat="43.0197996832430362701416015625" lon="-1.32405311800539493560791015625">
        <ele>1069.5999755859375</ele>
        <time>2020-08-22T05:49:49.000Z</time>
      </trkpt>
      <trkpt lat="43.01987134851515293121337890625" lon="-1.32420164532959461212158203125">
        <ele>1070</ele>
        <time>2020-08-22T05:49:56.000Z</time>
      </trkpt>
      <trkpt lat="43.01988492719829082489013671875" lon="-1.32422058843076229095458984375">
        <ele>1070.199951171875</ele>
        <time>2020-08-22T05:49:57.000Z</time>
      </trkpt>
      <trkpt lat="43.019978217780590057373046875" lon="-1.32434799335896968841552734375">
        <ele>1070.5999755859375</ele>
        <time>2020-08-22T05:50:04.000Z</time>
      </trkpt>
      <trkpt lat="43.02002356387674808502197265625" lon="-1.32442225702106952667236328125">
        <ele>1071.199951171875</ele>
        <time>2020-08-22T05:50:08.000Z</time>
      </trkpt>
      <trkpt lat="43.02007921971380710601806640625" lon="-1.3245085068047046661376953125">
        <ele>1071.800048828125</ele>
        <time>2020-08-22T05:50:13.000Z</time>
      </trkpt>
      <trkpt lat="43.02011827938258647918701171875" lon="-1.32455385290086269378662109375">
        <ele>1072.4000244140625</ele>
        <time>2020-08-22T05:50:16.000Z</time>
      </trkpt>
      <trkpt lat="43.0201537348330020904541015625" lon="-1.32462794892489910125732421875">
        <ele>1073.5999755859375</ele>
        <time>2020-08-22T05:50:20.000Z</time>
      </trkpt>
      <trkpt lat="43.02017309702932834625244140625" lon="-1.3246650807559490203857421875">
        <ele>1074</ele>
        <time>2020-08-22T05:50:22.000Z</time>
      </trkpt>
      <trkpt lat="43.02021886222064495086669921875" lon="-1.32473557256162166595458984375">
        <ele>1074.5999755859375</ele>
        <time>2020-08-22T05:50:26.000Z</time>
      </trkpt>
      <trkpt lat="43.02028633654117584228515625" lon="-1.3248126022517681121826171875">
        <ele>1075.4000244140625</ele>
        <time>2020-08-22T05:50:31.000Z</time>
      </trkpt>
      <trkpt lat="43.020324893295764923095703125" lon="-1.324856020510196685791015625">
        <ele>1075.800048828125</ele>
        <time>2020-08-22T05:50:34.000Z</time>
      </trkpt>
      <trkpt lat="43.0203693173825740814208984375" lon="-1.32494352757930755615234375">
        <ele>1077.199951171875</ele>
        <time>2020-08-22T05:50:39.000Z</time>
      </trkpt>
      <trkpt lat="43.020414412021636962890625" lon="-1.32502533495426177978515625">
        <ele>1078.199951171875</ele>
        <time>2020-08-22T05:50:44.000Z</time>
      </trkpt>
      <trkpt lat="43.0204372107982635498046875" lon="-1.3250555098056793212890625">
        <ele>1078.4000244140625</ele>
        <time>2020-08-22T05:50:46.000Z</time>
      </trkpt>
      <trkpt lat="43.02048658020794391632080078125" lon="-1.32512683980166912078857421875">
        <ele>1079.199951171875</ele>
        <time>2020-08-22T05:50:51.000Z</time>
      </trkpt>
      <trkpt lat="43.02052438259124755859375" lon="-1.32518618367612361907958984375">
        <ele>1079.5999755859375</ele>
        <time>2020-08-22T05:50:55.000Z</time>
      </trkpt>
      <trkpt lat="43.0205822177231311798095703125" lon="-1.32522021420300006866455078125">
        <ele>1079.5999755859375</ele>
        <time>2020-08-22T05:51:01.000Z</time>
      </trkpt>
      <trkpt lat="43.02058716304600238800048828125" lon="-1.32523328997194766998291015625">
        <ele>1079.5999755859375</ele>
        <time>2020-08-22T05:51:07.000Z</time>
      </trkpt>
      <trkpt lat="43.02058816887438297271728515625" lon="-1.32523362524807453155517578125">
        <ele>1079.4000244140625</ele>
        <time>2020-08-22T05:51:35.000Z</time>
      </trkpt>
      <trkpt lat="43.02058816887438297271728515625" lon="-1.32523479871451854705810546875">
        <ele>1079.4000244140625</ele>
        <time>2020-08-22T05:52:11.000Z</time>
      </trkpt>
      <trkpt lat="43.02058766596019268035888671875" lon="-1.32523194886744022369384765625">
        <ele>1079.5999755859375</ele>
        <time>2020-08-22T05:52:47.000Z</time>
      </trkpt>
      <trkpt lat="43.02058800123631954193115234375" lon="-1.32523186504840850830078125">
        <ele>1079.5999755859375</ele>
        <time>2020-08-22T05:52:56.000Z</time>
      </trkpt>
      <trkpt lat="43.020589090883731842041015625" lon="-1.3252350501716136932373046875">
        <ele>1079.199951171875</ele>
        <time>2020-08-22T05:53:20.000Z</time>
      </trkpt>
      <trkpt lat="43.02059076726436614990234375" lon="-1.32526899687945842742919921875">
        <ele>1079.5999755859375</ele>
        <time>2020-08-22T05:53:29.000Z</time>
      </trkpt>
      <trkpt lat="43.02060141228139400482177734375" lon="-1.325298249721527099609375">
        <ele>1079.4000244140625</ele>
        <time>2020-08-22T05:53:38.000Z</time>
      </trkpt>
      <trkpt lat="43.0206737481057643890380859375" lon="-1.32543168962001800537109375">
        <ele>1079.4000244140625</ele>
        <time>2020-08-22T05:53:44.000Z</time>
      </trkpt>
      <trkpt lat="43.02077223546802997589111328125" lon="-1.3256025128066539764404296875">
        <ele>1078.800048828125</ele>
        <time>2020-08-22T05:53:50.000Z</time>
      </trkpt>
      <trkpt lat="43.0207921005785465240478515625" lon="-1.32563260383903980255126953125">
        <ele>1078.5999755859375</ele>
        <time>2020-08-22T05:53:51.000Z</time>
      </trkpt>
      <trkpt lat="43.0208725668489933013916015625" lon="-1.32575917057693004608154296875">
        <ele>1077.5999755859375</ele>
        <time>2020-08-22T05:53:55.000Z</time>
      </trkpt>
      <trkpt lat="43.02098907530307769775390625" lon="-1.3259250484406948089599609375">
        <ele>1077.199951171875</ele>
        <time>2020-08-22T05:54:00.000Z</time>
      </trkpt>
      <trkpt lat="43.02106627263128757476806640625" lon="-1.32602605037391185760498046875">
        <ele>1076.5999755859375</ele>
        <time>2020-08-22T05:54:03.000Z</time>
      </trkpt>
      <trkpt lat="43.02121111191809177398681640625" lon="-1.3262060098350048065185546875">
        <ele>1075.4000244140625</ele>
        <time>2020-08-22T05:54:08.000Z</time>
      </trkpt>
      <trkpt lat="43.02130113355815410614013671875" lon="-1.32631011307239532470703125">
        <ele>1074.4000244140625</ele>
        <time>2020-08-22T05:54:11.000Z</time>
      </trkpt>
      <trkpt lat="43.02138864062726497650146484375" lon="-1.326403319835662841796875">
        <ele>1073.4000244140625</ele>
        <time>2020-08-22T05:54:14.000Z</time>
      </trkpt>
      <trkpt lat="43.02159726619720458984375" lon="-1.3266438804566860198974609375">
        <ele>1072.4000244140625</ele>
        <time>2020-08-22T05:54:20.000Z</time>
      </trkpt>
      <trkpt lat="43.0216242559254169464111328125" lon="-1.3266841135919094085693359375">
        <ele>1072.199951171875</ele>
        <time>2020-08-22T05:54:21.000Z</time>
      </trkpt>
      <trkpt lat="43.0216763913631439208984375" lon="-1.32678008638322353363037109375">
        <ele>1071.800048828125</ele>
        <time>2020-08-22T05:54:24.000Z</time>
      </trkpt>
      <trkpt lat="43.02172861061990261077880859375" lon="-1.3268795795738697052001953125">
        <ele>1072.800048828125</ele>
        <time>2020-08-22T05:54:29.000Z</time>
      </trkpt>
      <trkpt lat="43.02176532335579395294189453125" lon="-1.3269721157848834991455078125">
        <ele>1073.4000244140625</ele>
        <time>2020-08-22T05:54:33.000Z</time>
      </trkpt>
      <trkpt lat="43.0217761360108852386474609375" lon="-1.32699801586568355560302734375">
        <ele>1073.5999755859375</ele>
        <time>2020-08-22T05:54:34.000Z</time>
      </trkpt>
      <trkpt lat="43.0217841826379299163818359375" lon="-1.32702517323195934295654296875">
        <ele>1073.800048828125</ele>
        <time>2020-08-22T05:54:35.000Z</time>
      </trkpt>
      <trkpt lat="43.02182030864059925079345703125" lon="-1.32710027508437633514404296875">
        <ele>1074</ele>
        <time>2020-08-22T05:54:38.000Z</time>
      </trkpt>
      <trkpt lat="43.02187420427799224853515625" lon="-1.32721711881458759307861328125">
        <ele>1074.4000244140625</ele>
        <time>2020-08-22T05:54:42.000Z</time>
      </trkpt>
      <trkpt lat="43.021883927285671234130859375" lon="-1.32724209688603878021240234375">
        <ele>1074.5999755859375</ele>
        <time>2020-08-22T05:54:43.000Z</time>
      </trkpt>
      <trkpt lat="43.0219655670225620269775390625" lon="-1.327395737171173095703125">
        <ele>1075.199951171875</ele>
        <time>2020-08-22T05:54:50.000Z</time>
      </trkpt>
      <trkpt lat="43.02200722508132457733154296875" lon="-1.3274857588112354278564453125">
        <ele>1075.5999755859375</ele>
        <time>2020-08-22T05:54:54.000Z</time>
      </trkpt>
      <trkpt lat="43.02202046848833560943603515625" lon="-1.32751869969069957733154296875">
        <ele>1075.800048828125</ele>
        <time>2020-08-22T05:54:55.000Z</time>
      </trkpt>
      <trkpt lat="43.02207193337380886077880859375" lon="-1.327624060213565826416015625">
        <ele>1076.4000244140625</ele>
        <time>2020-08-22T05:55:00.000Z</time>
      </trkpt>
      <trkpt lat="43.02210546098649501800537109375" lon="-1.32768684066832065582275390625">
        <ele>1076.5999755859375</ele>
        <time>2020-08-22T05:55:03.000Z</time>
      </trkpt>
      <trkpt lat="43.02211937494575977325439453125" lon="-1.32771559059619903564453125">
        <ele>1077</ele>
        <time>2020-08-22T05:55:04.000Z</time>
      </trkpt>
      <trkpt lat="43.02216933108866214752197265625" lon="-1.3278337754309177398681640625">
        <ele>1077.5999755859375</ele>
        <time>2020-08-22T05:55:10.000Z</time>
      </trkpt>
      <trkpt lat="43.02218223921954631805419921875" lon="-1.32784844376146793365478515625">
        <ele>1077.800048828125</ele>
        <time>2020-08-22T05:55:11.000Z</time>
      </trkpt>
      <trkpt lat="43.022206462919712066650390625" lon="-1.327962689101696014404296875">
        <ele>1078</ele>
        <time>2020-08-22T05:55:16.000Z</time>
      </trkpt>
      <trkpt lat="43.0222096480429172515869140625" lon="-1.32798439823091030120849609375">
        <ele>1078.4000244140625</ele>
        <time>2020-08-22T05:55:17.000Z</time>
      </trkpt>
      <trkpt lat="43.02223202772438526153564453125" lon="-1.32808129303157329559326171875">
        <ele>1078.800048828125</ele>
        <time>2020-08-22T05:55:22.000Z</time>
      </trkpt>
      <trkpt lat="43.0222369730472564697265625" lon="-1.3281921856105327606201171875">
        <ele>1079</ele>
        <time>2020-08-22T05:55:28.000Z</time>
      </trkpt>
      <trkpt lat="43.022212497889995574951171875" lon="-1.32831950671970844268798828125">
        <ele>1079.199951171875</ele>
        <time>2020-08-22T05:55:34.000Z</time>
      </trkpt>
      <trkpt lat="43.02214913070201873779296875" lon="-1.32852989248931407928466796875">
        <ele>1079</ele>
        <time>2020-08-22T05:55:42.000Z</time>
      </trkpt>
      <trkpt lat="43.0221187882125377655029296875" lon="-1.32869820110499858856201171875">
        <ele>1078.5999755859375</ele>
        <time>2020-08-22T05:55:48.000Z</time>
      </trkpt>
      <trkpt lat="43.02211761474609375" lon="-1.32872317917644977569580078125">
        <ele>1078.800048828125</ele>
        <time>2020-08-22T05:55:49.000Z</time>
      </trkpt>
      <trkpt lat="43.02210294641554355621337890625" lon="-1.3288454711437225341796875">
        <ele>1078.4000244140625</ele>
        <time>2020-08-22T05:55:54.000Z</time>
      </trkpt>
      <trkpt lat="43.02209540270268917083740234375" lon="-1.3288748078048229217529296875">
        <ele>1078.4000244140625</ele>
        <time>2020-08-22T05:55:55.000Z</time>
      </trkpt>
      <trkpt lat="43.022081069648265838623046875" lon="-1.3290082477033138275146484375">
        <ele>1079</ele>
        <time>2020-08-22T05:55:59.000Z</time>
      </trkpt>
      <trkpt lat="43.0220671556890010833740234375" lon="-1.32919524796307086944580078125">
        <ele>1079</ele>
        <time>2020-08-22T05:56:05.000Z</time>
      </trkpt>
      <trkpt lat="43.02206170745193958282470703125" lon="-1.32938954047858715057373046875">
        <ele>1079</ele>
        <time>2020-08-22T05:56:11.000Z</time>
      </trkpt>
      <trkpt lat="43.022054918110370635986328125" lon="-1.32953220047056674957275390625">
        <ele>1079.5999755859375</ele>
        <time>2020-08-22T05:56:16.000Z</time>
      </trkpt>
      <trkpt lat="43.02205148153007030487060546875" lon="-1.32965348660945892333984375">
        <ele>1079.5999755859375</ele>
        <time>2020-08-22T05:56:21.000Z</time>
      </trkpt>
      <trkpt lat="43.0220545828342437744140625" lon="-1.32968123070895671844482421875">
        <ele>1079.5999755859375</ele>
        <time>2020-08-22T05:56:22.000Z</time>
      </trkpt>
      <trkpt lat="43.0220664851367473602294921875" lon="-1.32978885434567928314208984375">
        <ele>1079.800048828125</ele>
        <time>2020-08-22T05:56:26.000Z</time>
      </trkpt>
      <trkpt lat="43.02206690423190593719482421875" lon="-1.329842247068881988525390625">
        <ele>1080</ele>
        <time>2020-08-22T05:56:28.000Z</time>
      </trkpt>
      <trkpt lat="43.02205382846295833587646484375" lon="-1.3299892656505107879638671875">
        <ele>1080.5999755859375</ele>
        <time>2020-08-22T05:56:33.000Z</time>
      </trkpt>
      <trkpt lat="43.02204452455043792724609375" lon="-1.33012949489057064056396484375">
        <ele>1080.5999755859375</ele>
        <time>2020-08-22T05:56:38.000Z</time>
      </trkpt>
      <trkpt lat="43.02204108797013759613037109375" lon="-1.33025606162846088409423828125">
        <ele>1080.5999755859375</ele>
        <time>2020-08-22T05:56:43.000Z</time>
      </trkpt>
      <trkpt lat="43.02203102968633174896240234375" lon="-1.33031892590224742889404296875">
        <ele>1080.5999755859375</ele>
        <time>2020-08-22T05:56:45.000Z</time>
      </trkpt>
      <trkpt lat="43.02199867554008960723876953125" lon="-1.3305138051509857177734375">
        <ele>1080</ele>
        <time>2020-08-22T05:56:50.000Z</time>
      </trkpt>
      <trkpt lat="43.0220393277704715728759765625" lon="-1.33063961751759052276611328125">
        <ele>1079.4000244140625</ele>
        <time>2020-08-22T05:56:53.000Z</time>
      </trkpt>
      <trkpt lat="43.02210026420652866363525390625" lon="-1.3307386077940464019775390625">
        <ele>1079</ele>
        <time>2020-08-22T05:56:56.000Z</time>
      </trkpt>
      <trkpt lat="43.022161535918712615966796875" lon="-1.3307972811162471771240234375">
        <ele>1079.199951171875</ele>
        <time>2020-08-22T05:56:58.000Z</time>
      </trkpt>
      <trkpt lat="43.02222884260118007659912109375" lon="-1.33090783841907978057861328125">
        <ele>1079.4000244140625</ele>
        <time>2020-08-22T05:57:02.000Z</time>
      </trkpt>
      <trkpt lat="43.0223415791988372802734375" lon="-1.33102677762508392333984375">
        <ele>1079.5999755859375</ele>
        <time>2020-08-22T05:57:07.000Z</time>
      </trkpt>
      <trkpt lat="43.0224359594285488128662109375" lon="-1.33113733492791652679443359375">
        <ele>1079.199951171875</ele>
        <time>2020-08-22T05:57:13.000Z</time>
      </trkpt>
      <trkpt lat="43.02256998606026172637939453125" lon="-1.3312478922307491302490234375">
        <ele>1079</ele>
        <time>2020-08-22T05:57:20.000Z</time>
      </trkpt>
      <trkpt lat="43.02267375402152538299560546875" lon="-1.3313347287476062774658203125">
        <ele>1079.4000244140625</ele>
        <time>2020-08-22T05:57:26.000Z</time>
      </trkpt>
      <trkpt lat="43.022762350738048553466796875" lon="-1.3313786499202251434326171875">
        <ele>1080</ele>
        <time>2020-08-22T05:57:32.000Z</time>
      </trkpt>
      <trkpt lat="43.02290744148194789886474609375" lon="-1.33144252002239227294921875">
        <ele>1081</ele>
        <time>2020-08-22T05:57:39.000Z</time>
      </trkpt>
      <trkpt lat="43.0229343473911285400390625" lon="-1.33145400322973728179931640625">
        <ele>1081</ele>
        <time>2020-08-22T05:57:40.000Z</time>
      </trkpt>
      <trkpt lat="43.02295605652034282684326171875" lon="-1.3314674980938434600830078125">
        <ele>1081.199951171875</ele>
        <time>2020-08-22T05:57:41.000Z</time>
      </trkpt>
      <trkpt lat="43.023016154766082763671875" lon="-1.3314906321465969085693359375">
        <ele>1081.5999755859375</ele>
        <time>2020-08-22T05:57:44.000Z</time>
      </trkpt>
      <trkpt lat="43.023124448955059051513671875" lon="-1.33151804096996784210205078125">
        <ele>1082.199951171875</ele>
        <time>2020-08-22T05:57:50.000Z</time>
      </trkpt>
      <trkpt lat="43.0231475830078125" lon="-1.331520639359951019287109375">
        <ele>1082.4000244140625</ele>
        <time>2020-08-22T05:57:51.000Z</time>
      </trkpt>
      <trkpt lat="43.0232282169163227081298828125" lon="-1.33154268376529216766357421875">
        <ele>1082.800048828125</ele>
        <time>2020-08-22T05:57:55.000Z</time>
      </trkpt>
      <trkpt lat="43.02331983111798763275146484375" lon="-1.33155073039233684539794921875">
        <ele>1083.199951171875</ele>
        <time>2020-08-22T05:57:59.000Z</time>
      </trkpt>
      <trkpt lat="43.02334430627524852752685546875" lon="-1.331557519733905792236328125">
        <ele>1083.4000244140625</ele>
        <time>2020-08-22T05:58:00.000Z</time>
      </trkpt>
      <trkpt lat="43.0233640037477016448974609375" lon="-1.33156095631420612335205078125">
        <ele>1083.800048828125</ele>
        <time>2020-08-22T05:58:01.000Z</time>
      </trkpt>
      <trkpt lat="43.0233884789049625396728515625" lon="-1.3315647281706333160400390625">
        <ele>1083.800048828125</ele>
        <time>2020-08-22T05:58:02.000Z</time>
      </trkpt>
      <trkpt lat="43.02346743643283843994140625" lon="-1.331574283540248870849609375">
        <ele>1084.5999755859375</ele>
        <time>2020-08-22T05:58:06.000Z</time>
      </trkpt>
      <trkpt lat="43.023560978472232818603515625" lon="-1.3315999321639537811279296875">
        <ele>1085.199951171875</ele>
        <time>2020-08-22T05:58:10.000Z</time>
      </trkpt>
      <trkpt lat="43.02358335815370082855224609375" lon="-1.3316059671342372894287109375">
        <ele>1085.4000244140625</ele>
        <time>2020-08-22T05:58:11.000Z</time>
      </trkpt>
      <trkpt lat="43.02360448054969310760498046875" lon="-1.33161141537129878997802734375">
        <ele>1085.5999755859375</ele>
        <time>2020-08-22T05:58:12.000Z</time>
      </trkpt>
      <trkpt lat="43.02367321215569972991943359375" lon="-1.33164125494658946990966796875">
        <ele>1086</ele>
        <time>2020-08-22T05:58:16.000Z</time>
      </trkpt>
      <trkpt lat="43.0236838571727275848388671875" lon="-1.33164502680301666259765625">
        <ele>1086.199951171875</ele>
        <time>2020-08-22T05:58:17.000Z</time>
      </trkpt>
      <trkpt lat="43.0237073265016078948974609375" lon="-1.331662125885486602783203125">
        <ele>1086.5999755859375</ele>
        <time>2020-08-22T05:58:19.000Z</time>
      </trkpt>
      <trkpt lat="43.02375686354935169219970703125" lon="-1.3317005150020122528076171875">
        <ele>1086.800048828125</ele>
        <time>2020-08-22T05:58:22.000Z</time>
      </trkpt>
      <trkpt lat="43.02383850328624248504638671875" lon="-1.331775449216365814208984375">
        <ele>1087.5999755859375</ele>
        <time>2020-08-22T05:58:27.000Z</time>
      </trkpt>
      <trkpt lat="43.02391729317605495452880859375" lon="-1.3318339549005031585693359375">
        <ele>1088.4000244140625</ele>
        <time>2020-08-22T05:58:32.000Z</time>
      </trkpt>
      <trkpt lat="43.0239321291446685791015625" lon="-1.331859938800334930419921875">
        <ele>1088.5999755859375</ele>
        <time>2020-08-22T05:58:33.000Z</time>
      </trkpt>
      <trkpt lat="43.023940511047840118408203125" lon="-1.33187829516828060150146484375">
        <ele>1088.800048828125</ele>
        <time>2020-08-22T05:58:34.000Z</time>
      </trkpt>
      <trkpt lat="43.023980073630809783935546875" lon="-1.331937052309513092041015625">
        <ele>1089.199951171875</ele>
        <time>2020-08-22T05:58:37.000Z</time>
      </trkpt>
      <trkpt lat="43.02400882355868816375732421875" lon="-1.33198625408113002777099609375">
        <ele>1089.199951171875</ele>
        <time>2020-08-22T05:58:39.000Z</time>
      </trkpt>
      <trkpt lat="43.02408006973564624786376953125" lon="-1.3320855796337127685546875">
        <ele>1089.4000244140625</ele>
        <time>2020-08-22T05:58:44.000Z</time>
      </trkpt>
      <trkpt lat="43.02412030287086963653564453125" lon="-1.3321353681385517120361328125">
        <ele>1089.5999755859375</ele>
        <time>2020-08-22T05:58:47.000Z</time>
      </trkpt>
      <trkpt lat="43.0241572670638561248779296875" lon="-1.33218138478696346282958984375">
        <ele>1089.800048828125</ele>
        <time>2020-08-22T05:58:50.000Z</time>
      </trkpt>
      <trkpt lat="43.0241958238184452056884765625" lon="-1.3322268985211849212646484375">
        <ele>1090</ele>
        <time>2020-08-22T05:58:53.000Z</time>
      </trkpt>
      <trkpt lat="43.024211414158344268798828125" lon="-1.33224424906075000762939453125">
        <ele>1090</ele>
        <time>2020-08-22T05:58:54.000Z</time>
      </trkpt>
      <trkpt lat="43.02423446439206600189208984375" lon="-1.332287080585956573486328125">
        <ele>1090.199951171875</ele>
        <time>2020-08-22T05:58:56.000Z</time>
      </trkpt>
      <trkpt lat="43.0242754518985748291015625" lon="-1.332351453602313995361328125">
        <ele>1090.5999755859375</ele>
        <time>2020-08-22T05:58:59.000Z</time>
      </trkpt>
      <trkpt lat="43.02432666532695293426513671875" lon="-1.33240132592618465423583984375">
        <ele>1091</ele>
        <time>2020-08-22T05:59:02.000Z</time>
      </trkpt>
      <trkpt lat="43.02434049546718597412109375" lon="-1.3324190117418766021728515625">
        <ele>1091.199951171875</ele>
        <time>2020-08-22T05:59:03.000Z</time>
      </trkpt>
      <trkpt lat="43.0244177766144275665283203125" lon="-1.33250861428678035736083984375">
        <ele>1091.5999755859375</ele>
        <time>2020-08-22T05:59:08.000Z</time>
      </trkpt>
      <trkpt lat="43.0244318582117557525634765625" lon="-1.33253225125372409820556640625">
        <ele>1091.5999755859375</ele>
        <time>2020-08-22T05:59:09.000Z</time>
      </trkpt>
      <trkpt lat="43.02444367669522762298583984375" lon="-1.33255538530647754669189453125">
        <ele>1091.5999755859375</ele>
        <time>2020-08-22T05:59:10.000Z</time>
      </trkpt>
      <trkpt lat="43.0244979076087474822998046875" lon="-1.33262596093118190765380859375">
        <ele>1091.800048828125</ele>
        <time>2020-08-22T05:59:14.000Z</time>
      </trkpt>
      <trkpt lat="43.02452347241342067718505859375" lon="-1.33265596814453601837158203125">
        <ele>1092.4000244140625</ele>
        <time>2020-08-22T05:59:16.000Z</time>
      </trkpt>
      <trkpt lat="43.024539314210414886474609375" lon="-1.33267357014119625091552734375">
        <ele>1092.4000244140625</ele>
        <time>2020-08-22T05:59:17.000Z</time>
      </trkpt>
      <trkpt lat="43.024589605629444122314453125" lon="-1.33275051601231098175048828125">
        <ele>1092.5999755859375</ele>
        <time>2020-08-22T05:59:20.000Z</time>
      </trkpt>
      <trkpt lat="43.0246719159185886383056640625" lon="-1.33287322707474231719970703125">
        <ele>1093</ele>
        <time>2020-08-22T05:59:26.000Z</time>
      </trkpt>
      <trkpt lat="43.02479068748652935028076171875" lon="-1.33302544243633747100830078125">
        <ele>1093.4000244140625</ele>
        <time>2020-08-22T05:59:33.000Z</time>
      </trkpt>
      <trkpt lat="43.02488808520138263702392578125" lon="-1.33314999751746654510498046875">
        <ele>1093.5999755859375</ele>
        <time>2020-08-22T05:59:39.000Z</time>
      </trkpt>
      <trkpt lat="43.02491004578769207000732421875" lon="-1.33317262865602970123291015625">
        <ele>1093.5999755859375</ele>
        <time>2020-08-22T05:59:40.000Z</time>
      </trkpt>
      <trkpt lat="43.02496871910989284515380859375" lon="-1.3332498259842395782470703125">
        <ele>1093.5999755859375</ele>
        <time>2020-08-22T05:59:44.000Z</time>
      </trkpt>
      <trkpt lat="43.02498045377433300018310546875" lon="-1.33326583541929721832275390625">
        <ele>1093.800048828125</ele>
        <time>2020-08-22T05:59:45.000Z</time>
      </trkpt>
      <trkpt lat="43.0250398814678192138671875" lon="-1.33335149846971035003662109375">
        <ele>1094</ele>
        <time>2020-08-22T05:59:49.000Z</time>
      </trkpt>
      <trkpt lat="43.0250812880694866180419921875" lon="-1.33341796696186065673828125">
        <ele>1094</ele>
        <time>2020-08-22T05:59:52.000Z</time>
      </trkpt>
      <trkpt lat="43.0251020751893520355224609375" lon="-1.3334588706493377685546875">
        <ele>1094</ele>
        <time>2020-08-22T05:59:54.000Z</time>
      </trkpt>
      <trkpt lat="43.025154210627079010009765625" lon="-1.33359096944332122802734375">
        <ele>1094.4000244140625</ele>
        <time>2020-08-22T06:00:00.000Z</time>
      </trkpt>
      <trkpt lat="43.0252194218337535858154296875" lon="-1.3337292708456516265869140625">
        <ele>1094.4000244140625</ele>
        <time>2020-08-22T06:00:05.000Z</time>
      </trkpt>
      <trkpt lat="43.02524708211421966552734375" lon="-1.33382541127502918243408203125">
        <ele>1095</ele>
        <time>2020-08-22T06:00:09.000Z</time>
      </trkpt>
      <trkpt lat="43.0252552963793277740478515625" lon="-1.33388693444430828094482421875">
        <ele>1095.4000244140625</ele>
        <time>2020-08-22T06:00:11.000Z</time>
      </trkpt>
      <trkpt lat="43.02526728250086307525634765625" lon="-1.33404828608036041259765625">
        <ele>1095.800048828125</ele>
        <time>2020-08-22T06:00:16.000Z</time>
      </trkpt>
      <trkpt lat="43.025271557271480560302734375" lon="-1.3341758586466312408447265625">
        <ele>1096</ele>
        <time>2020-08-22T06:00:21.000Z</time>
      </trkpt>
      <trkpt lat="43.02527331747114658355712890625" lon="-1.33420092053711414337158203125">
        <ele>1096</ele>
        <time>2020-08-22T06:00:22.000Z</time>
      </trkpt>
      <trkpt lat="43.02526208572089672088623046875" lon="-1.33436738513410091400146484375">
        <ele>1096.199951171875</ele>
        <time>2020-08-22T06:00:28.000Z</time>
      </trkpt>
      <trkpt lat="43.0252422206103801727294921875" lon="-1.33446796797215938568115234375">
        <ele>1096.199951171875</ele>
        <time>2020-08-22T06:00:32.000Z</time>
      </trkpt>
      <trkpt lat="43.02522805519402027130126953125" lon="-1.33455798961222171783447265625">
        <ele>1096.4000244140625</ele>
        <time>2020-08-22T06:00:35.000Z</time>
      </trkpt>
      <trkpt lat="43.02519938908517360687255859375" lon="-1.33472143672406673431396484375">
        <ele>1097</ele>
        <time>2020-08-22T06:00:41.000Z</time>
      </trkpt>
      <trkpt lat="43.025147505104541778564453125" lon="-1.3348960317671298980712890625">
        <ele>1097.4000244140625</ele>
        <time>2020-08-22T06:00:47.000Z</time>
      </trkpt>
      <trkpt lat="43.0250732414424419403076171875" lon="-1.33514002896845340728759765625">
        <ele>1098</ele>
        <time>2020-08-22T06:00:54.000Z</time>
      </trkpt>
      <trkpt lat="43.0250779353082180023193359375" lon="-1.33517070673406124114990234375">
        <ele>1098</ele>
        <time>2020-08-22T06:00:55.000Z</time>
      </trkpt>
      <trkpt lat="43.02510048262774944305419921875" lon="-1.33527514524757862091064453125">
        <ele>1097.800048828125</ele>
        <time>2020-08-22T06:00:59.000Z</time>
      </trkpt>
      <trkpt lat="43.0251245386898517608642578125" lon="-1.33542920462787151336669921875">
        <ele>1097.4000244140625</ele>
        <time>2020-08-22T06:01:04.000Z</time>
      </trkpt>
      <trkpt lat="43.025135435163974761962890625" lon="-1.33563355542719364166259765625">
        <ele>1097.800048828125</ele>
        <time>2020-08-22T06:01:10.000Z</time>
      </trkpt>
      <trkpt lat="43.025158904492855072021484375" lon="-1.33582818321883678436279296875">
        <ele>1098.199951171875</ele>
        <time>2020-08-22T06:01:16.000Z</time>
      </trkpt>
      <trkpt lat="43.02517893724143505096435546875" lon="-1.33598090149462223052978515625">
        <ele>1098.4000244140625</ele>
        <time>2020-08-22T06:01:21.000Z</time>
      </trkpt>
      <trkpt lat="43.0251791886985301971435546875" lon="-1.336007304489612579345703125">
        <ele>1098.5999755859375</ele>
        <time>2020-08-22T06:01:22.000Z</time>
      </trkpt>
      <trkpt lat="43.0251902528107166290283203125" lon="-1.33608617819845676422119140625">
        <ele>1098.800048828125</ele>
        <time>2020-08-22T06:01:25.000Z</time>
      </trkpt>
      <trkpt lat="43.0251966230571269989013671875" lon="-1.3361204601824283599853515625">
        <ele>1098.800048828125</ele>
        <time>2020-08-22T06:01:26.000Z</time>
      </trkpt>
      <trkpt lat="43.02525579929351806640625" lon="-1.33630176074802875518798828125">
        <ele>1099.5999755859375</ele>
        <time>2020-08-22T06:01:32.000Z</time>
      </trkpt>
      <trkpt lat="43.02531681954860687255859375" lon="-1.33646168746054172515869140625">
        <ele>1099.800048828125</ele>
        <time>2020-08-22T06:01:37.000Z</time>
      </trkpt>
      <trkpt lat="43.02537825889885425567626953125" lon="-1.3366227038204669952392578125">
        <ele>1099.4000244140625</ele>
        <time>2020-08-22T06:01:42.000Z</time>
      </trkpt>
      <trkpt lat="43.025449253618717193603515625" lon="-1.33680450730025768280029296875">
        <ele>1099</ele>
        <time>2020-08-22T06:01:48.000Z</time>
      </trkpt>
      <trkpt lat="43.0255285464227199554443359375" lon="-1.33703048340976238250732421875">
        <ele>1099</ele>
        <time>2020-08-22T06:01:53.000Z</time>
      </trkpt>
      <trkpt lat="43.02561026997864246368408203125" lon="-1.33731127716600894927978515625">
        <ele>1098</ele>
        <time>2020-08-22T06:01:59.000Z</time>
      </trkpt>
      <trkpt lat="43.02566475234925746917724609375" lon="-1.33760950528085231781005859375">
        <ele>1096.800048828125</ele>
        <time>2020-08-22T06:02:04.000Z</time>
      </trkpt>
      <trkpt lat="43.02568386308848857879638671875" lon="-1.337728612124919891357421875">
        <ele>1096.199951171875</ele>
        <time>2020-08-22T06:02:06.000Z</time>
      </trkpt>
      <trkpt lat="43.02571001462638378143310546875" lon="-1.3378508202731609344482421875">
        <ele>1095.800048828125</ele>
        <time>2020-08-22T06:02:08.000Z</time>
      </trkpt>
      <trkpt lat="43.02575980313122272491455078125" lon="-1.3381103239953517913818359375">
        <ele>1094.5999755859375</ele>
        <time>2020-08-22T06:02:12.000Z</time>
      </trkpt>
      <trkpt lat="43.025771118700504302978515625" lon="-1.3381768763065338134765625">
        <ele>1094</ele>
        <time>2020-08-22T06:02:13.000Z</time>
      </trkpt>
      <trkpt lat="43.025781847536563873291015625" lon="-1.33824585936963558197021484375">
        <ele>1093.4000244140625</ele>
        <time>2020-08-22T06:02:14.000Z</time>
      </trkpt>
      <trkpt lat="43.02580623887479305267333984375" lon="-1.33839002810418605804443359375">
        <ele>1092.199951171875</ele>
        <time>2020-08-22T06:02:16.000Z</time>
      </trkpt>
      <trkpt lat="43.0258410237729549407958984375" lon="-1.3386118970811367034912109375">
        <ele>1091.199951171875</ele>
        <time>2020-08-22T06:02:19.000Z</time>
      </trkpt>
      <trkpt lat="43.02585837431252002716064453125" lon="-1.33876897394657135009765625">
        <ele>1090.5999755859375</ele>
        <time>2020-08-22T06:02:21.000Z</time>
      </trkpt>
      <trkpt lat="43.02587606012821197509765625" lon="-1.3389438204467296600341796875">
        <ele>1089.800048828125</ele>
        <time>2020-08-22T06:02:23.000Z</time>
      </trkpt>
      <trkpt lat="43.0258834362030029296875" lon="-1.3391423039138317108154296875">
        <ele>1089</ele>
        <time>2020-08-22T06:02:25.000Z</time>
      </trkpt>
      <trkpt lat="43.02588050253689289093017578125" lon="-1.3392435573041439056396484375">
        <ele>1088.5999755859375</ele>
        <time>2020-08-22T06:02:26.000Z</time>
      </trkpt>
      <trkpt lat="43.02586935460567474365234375" lon="-1.3394561223685741424560546875">
        <ele>1087</ele>
        <time>2020-08-22T06:02:28.000Z</time>
      </trkpt>
      <trkpt lat="43.02585569210350513458251953125" lon="-1.33967958390712738037109375">
        <ele>1085.800048828125</ele>
        <time>2020-08-22T06:02:30.000Z</time>
      </trkpt>
      <trkpt lat="43.02585016004741191864013671875" lon="-1.3397927395999431610107421875">
        <ele>1085.4000244140625</ele>
        <time>2020-08-22T06:02:31.000Z</time>
      </trkpt>
      <trkpt lat="43.02584697492420673370361328125" lon="-1.340012848377227783203125">
        <ele>1084.4000244140625</ele>
        <time>2020-08-22T06:02:33.000Z</time>
      </trkpt>
      <trkpt lat="43.025864996016025543212890625" lon="-1.340310908854007720947265625">
        <ele>1083.5999755859375</ele>
        <time>2020-08-22T06:02:36.000Z</time>
      </trkpt>
      <trkpt lat="43.0258722044527530670166015625" lon="-1.3404022715985774993896484375">
        <ele>1083.4000244140625</ele>
        <time>2020-08-22T06:02:37.000Z</time>
      </trkpt>
      <trkpt lat="43.02591025829315185546875" lon="-1.3407898508012294769287109375">
        <ele>1083.199951171875</ele>
        <time>2020-08-22T06:02:42.000Z</time>
      </trkpt>
      <trkpt lat="43.02593506872653961181640625" lon="-1.34103083051741123199462890625">
        <ele>1083.800048828125</ele>
        <time>2020-08-22T06:02:47.000Z</time>
      </trkpt>
      <trkpt lat="43.02593850530683994293212890625" lon="-1.34113912470638751983642578125">
        <ele>1084.5999755859375</ele>
        <time>2020-08-22T06:02:50.000Z</time>
      </trkpt>
      <trkpt lat="43.0259473063051700592041015625" lon="-1.34126736782491207122802734375">
        <ele>1085.199951171875</ele>
        <time>2020-08-22T06:02:54.000Z</time>
      </trkpt>
      <trkpt lat="43.025956861674785614013671875" lon="-1.34141421876847743988037109375">
        <ele>1085.5999755859375</ele>
        <time>2020-08-22T06:02:59.000Z</time>
      </trkpt>
      <trkpt lat="43.02596029825508594512939453125" lon="-1.34150122292339801788330078125">
        <ele>1086</ele>
        <time>2020-08-22T06:03:02.000Z</time>
      </trkpt>
      <trkpt lat="43.025959543883800506591796875" lon="-1.3416525162756443023681640625">
        <ele>1087</ele>
        <time>2020-08-22T06:03:07.000Z</time>
      </trkpt>
      <trkpt lat="43.025957532227039337158203125" lon="-1.3417688570916652679443359375">
        <ele>1087.199951171875</ele>
        <time>2020-08-22T06:03:11.000Z</time>
      </trkpt>
      <trkpt lat="43.0259516648948192596435546875" lon="-1.341881342232227325439453125">
        <ele>1088.199951171875</ele>
        <time>2020-08-22T06:03:15.000Z</time>
      </trkpt>
      <trkpt lat="43.02595962770283222198486328125" lon="-1.34196340106427669525146484375">
        <ele>1088.5999755859375</ele>
        <time>2020-08-22T06:03:18.000Z</time>
      </trkpt>
      <trkpt lat="43.02597463130950927734375" lon="-1.34206566028296947479248046875">
        <ele>1089.199951171875</ele>
        <time>2020-08-22T06:03:22.000Z</time>
      </trkpt>
      <trkpt lat="43.0259801633656024932861328125" lon="-1.34217596612870693206787109375">
        <ele>1089.800048828125</ele>
        <time>2020-08-22T06:03:26.000Z</time>
      </trkpt>
      <trkpt lat="43.02598661743104457855224609375" lon="-1.34228124283254146575927734375">
        <ele>1090.199951171875</ele>
        <time>2020-08-22T06:03:30.000Z</time>
      </trkpt>
      <trkpt lat="43.02598779089748859405517578125" lon="-1.3423337973654270172119140625">
        <ele>1090.5999755859375</ele>
        <time>2020-08-22T06:03:32.000Z</time>
      </trkpt>
      <trkpt lat="43.02599265240132808685302734375" lon="-1.342380903661251068115234375">
        <ele>1090.800048828125</ele>
        <time>2020-08-22T06:03:34.000Z</time>
      </trkpt>
      <trkpt lat="43.025996424257755279541015625" lon="-1.34245256893336772918701171875">
        <ele>1091.199951171875</ele>
        <time>2020-08-22T06:03:37.000Z</time>
      </trkpt>
      <trkpt lat="43.025997094810009002685546875" lon="-1.34247167967259883880615234375">
        <ele>1091.4000244140625</ele>
        <time>2020-08-22T06:03:38.000Z</time>
      </trkpt>
      <trkpt lat="43.0259949155151844024658203125" lon="-1.34259916841983795166015625">
        <ele>1092.4000244140625</ele>
        <time>2020-08-22T06:03:43.000Z</time>
      </trkpt>
      <trkpt lat="43.0259838514029979705810546875" lon="-1.34274962358176708221435546875">
        <ele>1093.4000244140625</ele>
        <time>2020-08-22T06:03:49.000Z</time>
      </trkpt>
      <trkpt lat="43.02597530186176300048828125" lon="-1.34280025027692317962646484375">
        <ele>1093.800048828125</ele>
        <time>2020-08-22T06:03:51.000Z</time>
      </trkpt>
      <trkpt lat="43.0259617231786251068115234375" lon="-1.3429217040538787841796875">
        <ele>1094.5999755859375</ele>
        <time>2020-08-22T06:03:56.000Z</time>
      </trkpt>
      <trkpt lat="43.02596398629248142242431640625" lon="-1.34296889416873455047607421875">
        <ele>1095</ele>
        <time>2020-08-22T06:03:58.000Z</time>
      </trkpt>
      <trkpt lat="43.02595116198062896728515625" lon="-1.34309680201113224029541015625">
        <ele>1095.5999755859375</ele>
        <time>2020-08-22T06:04:03.000Z</time>
      </trkpt>
      <trkpt lat="43.0259493179619312286376953125" lon="-1.3431163318455219268798828125">
        <ele>1095.800048828125</ele>
        <time>2020-08-22T06:04:04.000Z</time>
      </trkpt>
      <trkpt lat="43.0259379185736179351806640625" lon="-1.34323677979409694671630859375">
        <ele>1096.800048828125</ele>
        <time>2020-08-22T06:04:12.000Z</time>
      </trkpt>
      <trkpt lat="43.02592358551919460296630859375" lon="-1.3433580659329891204833984375">
        <ele>1097.4000244140625</ele>
        <time>2020-08-22T06:04:18.000Z</time>
      </trkpt>
      <trkpt lat="43.0259167961776256561279296875" lon="-1.343409530818462371826171875">
        <ele>1097.800048828125</ele>
        <time>2020-08-22T06:04:20.000Z</time>
      </trkpt>
      <trkpt lat="43.02590061910450458526611328125" lon="-1.34357993490993976593017578125">
        <ele>1098.5999755859375</ele>
        <time>2020-08-22T06:04:26.000Z</time>
      </trkpt>
      <trkpt lat="43.02589626051485538482666015625" lon="-1.343633830547332763671875">
        <ele>1098.800048828125</ele>
        <time>2020-08-22T06:04:28.000Z</time>
      </trkpt>
      <trkpt lat="43.02588569931685924530029296875" lon="-1.34381026960909366607666015625">
        <ele>1099.800048828125</ele>
        <time>2020-08-22T06:04:35.000Z</time>
      </trkpt>
      <trkpt lat="43.0258846096694469451904296875" lon="-1.343837343156337738037109375">
        <ele>1100</ele>
        <time>2020-08-22T06:04:36.000Z</time>
      </trkpt>
      <trkpt lat="43.0258936621248722076416015625" lon="-1.34399232454597949981689453125">
        <ele>1100.4000244140625</ele>
        <time>2020-08-22T06:04:42.000Z</time>
      </trkpt>
      <trkpt lat="43.0259043909609317779541015625" lon="-1.34407815523445606231689453125">
        <ele>1101.199951171875</ele>
        <time>2020-08-22T06:04:46.000Z</time>
      </trkpt>
      <trkpt lat="43.02590883336961269378662109375" lon="-1.34409894235432147979736328125">
        <ele>1101.4000244140625</ele>
        <time>2020-08-22T06:04:47.000Z</time>
      </trkpt>
      <trkpt lat="43.02592492662370204925537109375" lon="-1.344266496598720550537109375">
        <ele>1102.199951171875</ele>
        <time>2020-08-22T06:04:54.000Z</time>
      </trkpt>
      <trkpt lat="43.025941438972949981689453125" lon="-1.34441527538001537322998046875">
        <ele>1103</ele>
        <time>2020-08-22T06:05:00.000Z</time>
      </trkpt>
      <trkpt lat="43.02594336681067943572998046875" lon="-1.344471015036106109619140625">
        <ele>1103.4000244140625</ele>
        <time>2020-08-22T06:05:02.000Z</time>
      </trkpt>
      <trkpt lat="43.025962226092815399169921875" lon="-1.3446502201259136199951171875">
        <ele>1104.4000244140625</ele>
        <time>2020-08-22T06:05:09.000Z</time>
      </trkpt>
      <trkpt lat="43.02596499212086200714111328125" lon="-1.34467653930187225341796875">
        <ele>1104.5999755859375</ele>
        <time>2020-08-22T06:05:10.000Z</time>
      </trkpt>
      <trkpt lat="43.025977648794651031494140625" lon="-1.344816349446773529052734375">
        <ele>1105.5999755859375</ele>
        <time>2020-08-22T06:05:15.000Z</time>
      </trkpt>
      <trkpt lat="43.02598628215491771697998046875" lon="-1.34487376548349857330322265625">
        <ele>1105.800048828125</ele>
        <time>2020-08-22T06:05:17.000Z</time>
      </trkpt>
      <trkpt lat="43.02600078284740447998046875" lon="-1.34501692838966846466064453125">
        <ele>1106.800048828125</ele>
        <time>2020-08-22T06:05:22.000Z</time>
      </trkpt>
      <trkpt lat="43.0260009504854679107666015625" lon="-1.345093958079814910888671875">
        <ele>1107.800048828125</ele>
        <time>2020-08-22T06:05:25.000Z</time>
      </trkpt>
      <trkpt lat="43.0260012857615947723388671875" lon="-1.34511801414191722869873046875">
        <ele>1107.800048828125</ele>
        <time>2020-08-22T06:05:26.000Z</time>
      </trkpt>
      <trkpt lat="43.02601511590182781219482421875" lon="-1.3452570699155330657958984375">
        <ele>1109</ele>
        <time>2020-08-22T06:05:32.000Z</time>
      </trkpt>
      <trkpt lat="43.026037998497486114501953125" lon="-1.34539210237562656402587890625">
        <ele>1110</ele>
        <time>2020-08-22T06:05:38.000Z</time>
      </trkpt>
      <trkpt lat="43.0260566063225269317626953125" lon="-1.34546871297061443328857421875">
        <ele>1111</ele>
        <time>2020-08-22T06:05:42.000Z</time>
      </trkpt>
      <trkpt lat="43.02607160992920398712158203125" lon="-1.3455373607575893402099609375">
        <ele>1111.800048828125</ele>
        <time>2020-08-22T06:05:45.000Z</time>
      </trkpt>
      <trkpt lat="43.0260750465095043182373046875" lon="-1.34558186866343021392822265625">
        <ele>1112.4000244140625</ele>
        <time>2020-08-22T06:05:47.000Z</time>
      </trkpt>
      <trkpt lat="43.02609792910516262054443359375" lon="-1.34567088447511196136474609375">
        <ele>1113.5999755859375</ele>
        <time>2020-08-22T06:05:52.000Z</time>
      </trkpt>
      <trkpt lat="43.02611938677728176116943359375" lon="-1.34573207236826419830322265625">
        <ele>1114.5999755859375</ele>
        <time>2020-08-22T06:05:56.000Z</time>
      </trkpt>
      <trkpt lat="43.02613950334489345550537109375" lon="-1.34577414952218532562255859375">
        <ele>1115.4000244140625</ele>
        <time>2020-08-22T06:05:59.000Z</time>
      </trkpt>
      <trkpt lat="43.02615760825574398040771484375" lon="-1.34580097161233425140380859375">
        <ele>1115.800048828125</ele>
        <time>2020-08-22T06:06:01.000Z</time>
      </trkpt>
      <trkpt lat="43.026191890239715576171875" lon="-1.34586283005774021148681640625">
        <ele>1117</ele>
        <time>2020-08-22T06:06:05.000Z</time>
      </trkpt>
      <trkpt lat="43.0262232385575771331787109375" lon="-1.34592653252184391021728515625">
        <ele>1118</ele>
        <time>2020-08-22T06:06:09.000Z</time>
      </trkpt>
      <trkpt lat="43.026255257427692413330078125" lon="-1.34598839096724987030029296875">
        <ele>1118.800048828125</ele>
        <time>2020-08-22T06:06:13.000Z</time>
      </trkpt>
      <trkpt lat="43.02627436816692352294921875" lon="-1.34601118974387645721435546875">
        <ele>1119.199951171875</ele>
        <time>2020-08-22T06:06:15.000Z</time>
      </trkpt>
      <trkpt lat="43.02629708312451839447021484375" lon="-1.3460499979555606842041015625">
        <ele>1120</ele>
        <time>2020-08-22T06:06:18.000Z</time>
      </trkpt>
      <trkpt lat="43.02630512975156307220458984375" lon="-1.3460630737245082855224609375">
        <ele>1120.4000244140625</ele>
        <time>2020-08-22T06:06:19.000Z</time>
      </trkpt>
      <trkpt lat="43.0263192951679229736328125" lon="-1.34609333239495754241943359375">
        <ele>1120.5999755859375</ele>
        <time>2020-08-22T06:06:21.000Z</time>
      </trkpt>
      <trkpt lat="43.02635089494287967681884765625" lon="-1.346147395670413970947265625">
        <ele>1121.5999755859375</ele>
        <time>2020-08-22T06:06:25.000Z</time>
      </trkpt>
      <trkpt lat="43.02638174034655094146728515625" lon="-1.34617916308343410491943359375">
        <ele>1122.199951171875</ele>
        <time>2020-08-22T06:06:28.000Z</time>
      </trkpt>
      <trkpt lat="43.02640336565673351287841796875" lon="-1.34622023440897464752197265625">
        <ele>1122.5999755859375</ele>
        <time>2020-08-22T06:06:31.000Z</time>
      </trkpt>
      <trkpt lat="43.02640805952250957489013671875" lon="-1.34624169208109378814697265625">
        <ele>1122.800048828125</ele>
        <time>2020-08-22T06:06:32.000Z</time>
      </trkpt>
      <trkpt lat="43.02641962654888629913330078125" lon="-1.34628075174987316131591796875">
        <ele>1123</ele>
        <time>2020-08-22T06:06:34.000Z</time>
      </trkpt>
      <trkpt lat="43.0264426767826080322265625" lon="-1.34631042368710041046142578125">
        <ele>1123.800048828125</ele>
        <time>2020-08-22T06:06:36.000Z</time>
      </trkpt>
      <trkpt lat="43.02645868621766567230224609375" lon="-1.34635937400162220001220703125">
        <ele>1124.5999755859375</ele>
        <time>2020-08-22T06:06:39.000Z</time>
      </trkpt>
      <trkpt lat="43.02646153606474399566650390625" lon="-1.34637462906539440155029296875">
        <ele>1124.800048828125</ele>
        <time>2020-08-22T06:06:40.000Z</time>
      </trkpt>
      <trkpt lat="43.02650109864771366119384765625" lon="-1.34643414057791233062744140625">
        <ele>1125.800048828125</ele>
        <time>2020-08-22T06:06:45.000Z</time>
      </trkpt>
      <trkpt lat="43.02652037702500820159912109375" lon="-1.3464996032416820526123046875">
        <ele>1127</ele>
        <time>2020-08-22T06:06:50.000Z</time>
      </trkpt>
      <trkpt lat="43.0265226401388645172119140625" lon="-1.34651510976254940032958984375">
        <ele>1127.199951171875</ele>
        <time>2020-08-22T06:06:51.000Z</time>
      </trkpt>
      <trkpt lat="43.0265419185161590576171875" lon="-1.346575208008289337158203125">
        <ele>1128.4000244140625</ele>
        <time>2020-08-22T06:06:55.000Z</time>
      </trkpt>
      <trkpt lat="43.02657209336757659912109375" lon="-1.346644945442676544189453125">
        <ele>1129.5999755859375</ele>
        <time>2020-08-22T06:06:59.000Z</time>
      </trkpt>
      <trkpt lat="43.02659313194453716278076171875" lon="-1.346686184406280517578125">
        <ele>1130.5999755859375</ele>
        <time>2020-08-22T06:07:02.000Z</time>
      </trkpt>
      <trkpt lat="43.02660989575088024139404296875" lon="-1.346738152205944061279296875">
        <ele>1131.5999755859375</ele>
        <time>2020-08-22T06:07:05.000Z</time>
      </trkpt>
      <trkpt lat="43.02663386799395084381103515625" lon="-1.34681618772447109222412109375">
        <ele>1133.199951171875</ele>
        <time>2020-08-22T06:07:10.000Z</time>
      </trkpt>
      <trkpt lat="43.02663956768810749053955078125" lon="-1.34683228097856044769287109375">
        <ele>1133.4000244140625</ele>
        <time>2020-08-22T06:07:11.000Z</time>
      </trkpt>
      <trkpt lat="43.0266564153134822845458984375" lon="-1.3468801416456699371337890625">
        <ele>1134</ele>
        <time>2020-08-22T06:07:14.000Z</time>
      </trkpt>
      <trkpt lat="43.02666303701698780059814453125" lon="-1.34689296595752239227294921875">
        <ele>1134.4000244140625</ele>
        <time>2020-08-22T06:07:15.000Z</time>
      </trkpt>
      <trkpt lat="43.0266802199184894561767578125" lon="-1.34693873114883899688720703125">
        <ele>1135</ele>
        <time>2020-08-22T06:07:18.000Z</time>
      </trkpt>
      <trkpt lat="43.02668583579361438751220703125" lon="-1.34695373475551605224609375">
        <ele>1135.4000244140625</ele>
        <time>2020-08-22T06:07:19.000Z</time>
      </trkpt>
      <trkpt lat="43.02668876945972442626953125" lon="-1.3470417447388172149658203125">
        <ele>1136.800048828125</ele>
        <time>2020-08-22T06:07:24.000Z</time>
      </trkpt>
      <trkpt lat="43.026690781116485595703125" lon="-1.34707569144666194915771484375">
        <ele>1137.4000244140625</ele>
        <time>2020-08-22T06:07:26.000Z</time>
      </trkpt>
      <trkpt lat="43.026696145534515380859375" lon="-1.34710687212646007537841796875">
        <ele>1138.199951171875</ele>
        <time>2020-08-22T06:07:28.000Z</time>
      </trkpt>
      <trkpt lat="43.02671265788376331329345703125" lon="-1.347178034484386444091796875">
        <ele>1139.4000244140625</ele>
        <time>2020-08-22T06:07:33.000Z</time>
      </trkpt>
      <trkpt lat="43.02671634592115879058837890625" lon="-1.34719404391944408416748046875">
        <ele>1139.4000244140625</ele>
        <time>2020-08-22T06:07:34.000Z</time>
      </trkpt>
      <trkpt lat="43.0267269909381866455078125" lon="-1.34725037030875682830810546875">
        <ele>1140.4000244140625</ele>
        <time>2020-08-22T06:07:37.000Z</time>
      </trkpt>
      <trkpt lat="43.02673143334686756134033203125" lon="-1.3472657091915607452392578125">
        <ele>1140.800048828125</ele>
        <time>2020-08-22T06:07:38.000Z</time>
      </trkpt>
      <trkpt lat="43.02673570811748504638671875" lon="-1.34728825651109218597412109375">
        <ele>1141.4000244140625</ele>
        <time>2020-08-22T06:07:40.000Z</time>
      </trkpt>
      <trkpt lat="43.026744760572910308837890625" lon="-1.3473605923354625701904296875">
        <ele>1142.4000244140625</ele>
        <time>2020-08-22T06:07:46.000Z</time>
      </trkpt>
      <trkpt lat="43.02674383856356143951416015625" lon="-1.34736939333379268646240234375">
        <ele>1142.800048828125</ele>
        <time>2020-08-22T06:07:47.000Z</time>
      </trkpt>
      <trkpt lat="43.02675154991447925567626953125" lon="-1.34739738889038562774658203125">
        <ele>1143.800048828125</ele>
        <time>2020-08-22T06:07:50.000Z</time>
      </trkpt>
      <trkpt lat="43.02676253020763397216796875" lon="-1.34745664894580841064453125">
        <ele>1145.199951171875</ele>
        <time>2020-08-22T06:07:55.000Z</time>
      </trkpt>
      <trkpt lat="43.026773929595947265625" lon="-1.34751272387802600860595703125">
        <ele>1146.199951171875</ele>
        <time>2020-08-22T06:08:01.000Z</time>
      </trkpt>
      <trkpt lat="43.02677971310913562774658203125" lon="-1.3475419767200946807861328125">
        <ele>1147.4000244140625</ele>
        <time>2020-08-22T06:08:04.000Z</time>
      </trkpt>
      <trkpt lat="43.026781640946865081787109375" lon="-1.34755429811775684356689453125">
        <ele>1147.5999755859375</ele>
        <time>2020-08-22T06:08:05.000Z</time>
      </trkpt>
      <trkpt lat="43.026792705059051513671875" lon="-1.34762453846633434295654296875">
        <ele>1148.4000244140625</ele>
        <time>2020-08-22T06:08:10.000Z</time>
      </trkpt>
      <trkpt lat="43.0268002487719058990478515625" lon="-1.3476623408496379852294921875">
        <ele>1149.199951171875</ele>
        <time>2020-08-22T06:08:13.000Z</time>
      </trkpt>
      <trkpt lat="43.0268005840480327606201171875" lon="-1.3476985506713390350341796875">
        <ele>1149.5999755859375</ele>
        <time>2020-08-22T06:08:15.000Z</time>
      </trkpt>
      <trkpt lat="43.0268020927906036376953125" lon="-1.3477327488362789154052734375">
        <ele>1149.5999755859375</ele>
        <time>2020-08-22T06:08:17.000Z</time>
      </trkpt>
      <trkpt lat="43.02680485881865024566650390625" lon="-1.34776183404028415679931640625">
        <ele>1150</ele>
        <time>2020-08-22T06:08:19.000Z</time>
      </trkpt>
      <trkpt lat="43.02681257016956806182861328125" lon="-1.3478517718613147735595703125">
        <ele>1150.5999755859375</ele>
        <time>2020-08-22T06:08:25.000Z</time>
      </trkpt>
      <trkpt lat="43.02681089378893375396728515625" lon="-1.34786576963961124420166015625">
        <ele>1150.800048828125</ele>
        <time>2020-08-22T06:08:26.000Z</time>
      </trkpt>
      <trkpt lat="43.0268253944814205169677734375" lon="-1.34793005883693695068359375">
        <ele>1151</ele>
        <time>2020-08-22T06:08:34.000Z</time>
      </trkpt>
      <trkpt lat="43.0268277414143085479736328125" lon="-1.34794414043426513671875">
        <ele>1151.199951171875</ele>
        <time>2020-08-22T06:08:45.000Z</time>
      </trkpt>
      <trkpt lat="43.02682765759527683258056640625" lon="-1.34794321842491626739501953125">
        <ele>1151.199951171875</ele>
        <time>2020-08-22T06:08:51.000Z</time>
      </trkpt>
      <trkpt lat="43.02683092653751373291015625" lon="-1.34800390340387821197509765625">
        <ele>1151.800048828125</ele>
        <time>2020-08-22T06:08:58.000Z</time>
      </trkpt>
      <trkpt lat="43.02684567868709564208984375" lon="-1.34807699359953403472900390625">
        <ele>1152.800048828125</ele>
        <time>2020-08-22T06:09:04.000Z</time>
      </trkpt>
      <trkpt lat="43.0268528871238231658935546875" lon="-1.34811337105929851531982421875">
        <ele>1153.4000244140625</ele>
        <time>2020-08-22T06:09:07.000Z</time>
      </trkpt>
      <trkpt lat="43.02685548551380634307861328125" lon="-1.34814555756747722625732421875">
        <ele>1154</ele>
        <time>2020-08-22T06:09:10.000Z</time>
      </trkpt>
      <trkpt lat="43.02685883827507495880126953125" lon="-1.34818193502724170684814453125">
        <ele>1155.199951171875</ele>
        <time>2020-08-22T06:09:13.000Z</time>
      </trkpt>
      <trkpt lat="43.02686369977891445159912109375" lon="-1.34824563749134540557861328125">
        <ele>1155.800048828125</ele>
        <time>2020-08-22T06:09:17.000Z</time>
      </trkpt>
      <trkpt lat="43.02688054740428924560546875" lon="-1.34830883704125881195068359375">
        <ele>1156.199951171875</ele>
        <time>2020-08-22T06:09:20.000Z</time>
      </trkpt>
      <trkpt lat="43.0268870852887630462646484375" lon="-1.3484110124409198760986328125">
        <ele>1157.199951171875</ele>
        <time>2020-08-22T06:09:25.000Z</time>
      </trkpt>
      <trkpt lat="43.02690175361931324005126953125" lon="-1.34852944873273372650146484375">
        <ele>1158.4000244140625</ele>
        <time>2020-08-22T06:09:31.000Z</time>
      </trkpt>
      <trkpt lat="43.02690544165670871734619140625" lon="-1.3485501520335674285888671875">
        <ele>1158.4000244140625</ele>
        <time>2020-08-22T06:09:33.000Z</time>
      </trkpt>
      <trkpt lat="43.0269075371325016021728515625" lon="-1.34856532327830791473388671875">
        <ele>1158.800048828125</ele>
        <time>2020-08-22T06:09:46.000Z</time>
      </trkpt>
      <trkpt lat="43.02690762095153331756591796875" lon="-1.3485677540302276611328125">
        <ele>1158.4000244140625</ele>
        <time>2020-08-22T06:09:59.000Z</time>
      </trkpt>
      <trkpt lat="43.02692321129143238067626953125" lon="-1.348607651889324188232421875">
        <ele>1158.5999755859375</ele>
        <time>2020-08-22T06:12:29.000Z</time>
      </trkpt>
      <trkpt lat="43.02692371420562267303466796875" lon="-1.34861092083156108856201171875">
        <ele>1158.5999755859375</ele>
        <time>2020-08-22T06:12:31.000Z</time>
      </trkpt>
      <trkpt lat="43.02693285048007965087890625" lon="-1.3486933149397373199462890625">
        <ele>1158.800048828125</ele>
        <time>2020-08-22T06:12:39.000Z</time>
      </trkpt>
      <trkpt lat="43.02695422433316707611083984375" lon="-1.3488291017711162567138671875">
        <ele>1159.800048828125</ele>
        <time>2020-08-22T06:12:46.000Z</time>
      </trkpt>
      <trkpt lat="43.02697216160595417022705078125" lon="-1.3489598594605922698974609375">
        <ele>1160.4000244140625</ele>
        <time>2020-08-22T06:12:53.000Z</time>
      </trkpt>
      <trkpt lat="43.026976101100444793701171875" lon="-1.3489786349236965179443359375">
        <ele>1160.5999755859375</ele>
        <time>2020-08-22T06:12:54.000Z</time>
      </trkpt>
      <trkpt lat="43.02701331675052642822265625" lon="-1.34909019805490970611572265625">
        <ele>1161.5999755859375</ele>
        <time>2020-08-22T06:12:59.000Z</time>
      </trkpt>
      <trkpt lat="43.02702144719660282135009765625" lon="-1.34911215864121913909912109375">
        <ele>1161.5999755859375</ele>
        <time>2020-08-22T06:13:00.000Z</time>
      </trkpt>
      <trkpt lat="43.02704189904034137725830078125" lon="-1.3491673953831195831298828125">
        <ele>1162</ele>
        <time>2020-08-22T06:13:03.000Z</time>
      </trkpt>
      <trkpt lat="43.02705279551446437835693359375" lon="-1.34920503012835979461669921875">
        <ele>1162.199951171875</ele>
        <time>2020-08-22T06:13:05.000Z</time>
      </trkpt>
      <trkpt lat="43.0270795337855815887451171875" lon="-1.34926177561283111572265625">
        <ele>1163</ele>
        <time>2020-08-22T06:13:08.000Z</time>
      </trkpt>
      <trkpt lat="43.02709571085870265960693359375" lon="-1.34929421357810497283935546875">
        <ele>1163.4000244140625</ele>
        <time>2020-08-22T06:13:10.000Z</time>
      </trkpt>
      <trkpt lat="43.02711783908307552337646484375" lon="-1.34935506619513034820556640625">
        <ele>1163.800048828125</ele>
        <time>2020-08-22T06:13:13.000Z</time>
      </trkpt>
      <trkpt lat="43.02712865173816680908203125" lon="-1.349395550787448883056640625">
        <ele>1164.199951171875</ele>
        <time>2020-08-22T06:13:15.000Z</time>
      </trkpt>
      <trkpt lat="43.02716486155986785888671875" lon="-1.34951390326023101806640625">
        <ele>1165.199951171875</ele>
        <time>2020-08-22T06:13:21.000Z</time>
      </trkpt>
      <trkpt lat="43.02717165090143680572509765625" lon="-1.3495294936001300811767578125">
        <ele>1165.4000244140625</ele>
        <time>2020-08-22T06:13:22.000Z</time>
      </trkpt>
      <trkpt lat="43.02720048464834690093994140625" lon="-1.34961876086890697479248046875">
        <ele>1166.4000244140625</ele>
        <time>2020-08-22T06:13:28.000Z</time>
      </trkpt>
      <trkpt lat="43.02720375359058380126953125" lon="-1.349633596837520599365234375">
        <ele>1166.5999755859375</ele>
        <time>2020-08-22T06:13:29.000Z</time>
      </trkpt>
      <trkpt lat="43.02723216824233531951904296875" lon="-1.34970274753868579864501953125">
        <ele>1167.4000244140625</ele>
        <time>2020-08-22T06:13:35.000Z</time>
      </trkpt>
      <trkpt lat="43.0272340960800647735595703125" lon="-1.34971775114536285400390625">
        <ele>1167.5999755859375</ele>
        <time>2020-08-22T06:13:36.000Z</time>
      </trkpt>
      <trkpt lat="43.02725899033248424530029296875" lon="-1.34978212416172027587890625">
        <ele>1168.5999755859375</ele>
        <time>2020-08-22T06:13:41.000Z</time>
      </trkpt>
      <trkpt lat="43.02726569585502147674560546875" lon="-1.34979913942515850067138671875">
        <ele>1168.800048828125</ele>
        <time>2020-08-22T06:13:42.000Z</time>
      </trkpt>
      <trkpt lat="43.027285225689411163330078125" lon="-1.34988346137106418609619140625">
        <ele>1169.5999755859375</ele>
        <time>2020-08-22T06:13:47.000Z</time>
      </trkpt>
      <trkpt lat="43.0272917635738849639892578125" lon="-1.3499023206532001495361328125">
        <ele>1169.800048828125</ele>
        <time>2020-08-22T06:13:48.000Z</time>
      </trkpt>
      <trkpt lat="43.027315400540828704833984375" lon="-1.34998454712331295013427734375">
        <ele>1170.4000244140625</ele>
        <time>2020-08-22T06:13:52.000Z</time>
      </trkpt>
      <trkpt lat="43.02734364755451679229736328125" lon="-1.3500350899994373321533203125">
        <ele>1170.800048828125</ele>
        <time>2020-08-22T06:13:55.000Z</time>
      </trkpt>
      <trkpt lat="43.02736326120793819427490234375" lon="-1.35010558180510997772216796875">
        <ele>1172</ele>
        <time>2020-08-22T06:13:59.000Z</time>
      </trkpt>
      <trkpt lat="43.02737248130142688751220703125" lon="-1.35016123764216899871826171875">
        <ele>1172.5999755859375</ele>
        <time>2020-08-22T06:14:02.000Z</time>
      </trkpt>
      <trkpt lat="43.0273903347551822662353515625" lon="-1.350234411656856536865234375">
        <ele>1173.199951171875</ele>
        <time>2020-08-22T06:14:06.000Z</time>
      </trkpt>
      <trkpt lat="43.02740684710443019866943359375" lon="-1.3502738066017627716064453125">
        <ele>1173.800048828125</ele>
        <time>2020-08-22T06:14:09.000Z</time>
      </trkpt>
      <trkpt lat="43.02742076106369495391845703125" lon="-1.350307501852512359619140625">
        <ele>1174.199951171875</ele>
        <time>2020-08-22T06:14:12.000Z</time>
      </trkpt>
      <trkpt lat="43.02742662839591503143310546875" lon="-1.3503405265510082244873046875">
        <ele>1175</ele>
        <time>2020-08-22T06:14:15.000Z</time>
      </trkpt>
      <trkpt lat="43.0274305678904056549072265625" lon="-1.3503619842231273651123046875">
        <ele>1175.199951171875</ele>
        <time>2020-08-22T06:14:17.000Z</time>
      </trkpt>
      <trkpt lat="43.02743098698556423187255859375" lon="-1.35037514381110668182373046875">
        <ele>1175.4000244140625</ele>
        <time>2020-08-22T06:14:18.000Z</time>
      </trkpt>
      <trkpt lat="43.027439117431640625" lon="-1.35040632449090480804443359375">
        <ele>1175.5999755859375</ele>
        <time>2020-08-22T06:14:20.000Z</time>
      </trkpt>
      <trkpt lat="43.02744255401194095611572265625" lon="-1.35042258538305759429931640625">
        <ele>1175.800048828125</ele>
        <time>2020-08-22T06:14:21.000Z</time>
      </trkpt>
      <trkpt lat="43.0274510197341442108154296875" lon="-1.350464411079883575439453125">
        <ele>1176.4000244140625</ele>
        <time>2020-08-22T06:14:24.000Z</time>
      </trkpt>
      <trkpt lat="43.02745646797120571136474609375" lon="-1.350499279797077178955078125">
        <ele>1176.800048828125</ele>
        <time>2020-08-22T06:14:26.000Z</time>
      </trkpt>
      <trkpt lat="43.02747440524399280548095703125" lon="-1.3505976833403110504150390625">
        <ele>1177.5999755859375</ele>
        <time>2020-08-22T06:14:31.000Z</time>
      </trkpt>
      <trkpt lat="43.02747239358723163604736328125" lon="-1.35063716210424900054931640625">
        <ele>1177.800048828125</ele>
        <time>2020-08-22T06:14:33.000Z</time>
      </trkpt>
      <trkpt lat="43.0274848826229572296142578125" lon="-1.35072148405015468597412109375">
        <ele>1178.4000244140625</ele>
        <time>2020-08-22T06:14:38.000Z</time>
      </trkpt>
      <trkpt lat="43.027497120201587677001953125" lon="-1.3507706858217716217041015625">
        <ele>1178.4000244140625</ele>
        <time>2020-08-22T06:14:41.000Z</time>
      </trkpt>
      <trkpt lat="43.02750122733414173126220703125" lon="-1.35081569664180278778076171875">
        <ele>1178.5999755859375</ele>
        <time>2020-08-22T06:14:43.000Z</time>
      </trkpt>
      <trkpt lat="43.02751111797988414764404296875" lon="-1.35089255869388580322265625">
        <ele>1179</ele>
        <time>2020-08-22T06:14:47.000Z</time>
      </trkpt>
      <trkpt lat="43.02751514129340648651123046875" lon="-1.35091041214764118194580078125">
        <ele>1179</ele>
        <time>2020-08-22T06:14:48.000Z</time>
      </trkpt>
      <trkpt lat="43.027547411620616912841796875" lon="-1.3509912975132465362548828125">
        <ele>1179.199951171875</ele>
        <time>2020-08-22T06:14:53.000Z</time>
      </trkpt>
      <trkpt lat="43.027562163770198822021484375" lon="-1.35103345848619937896728515625">
        <ele>1179.4000244140625</ele>
        <time>2020-08-22T06:14:55.000Z</time>
      </trkpt>
      <trkpt lat="43.02758253179490566253662109375" lon="-1.35110219009220600128173828125">
        <ele>1180</ele>
        <time>2020-08-22T06:14:59.000Z</time>
      </trkpt>
      <trkpt lat="43.0275988765060901641845703125" lon="-1.3511606119573116302490234375">
        <ele>1180.4000244140625</ele>
        <time>2020-08-22T06:15:02.000Z</time>
      </trkpt>
      <trkpt lat="43.0276174843311309814453125" lon="-1.35120914317667484283447265625">
        <ele>1181</ele>
        <time>2020-08-22T06:15:05.000Z</time>
      </trkpt>
      <trkpt lat="43.02762997336685657501220703125" lon="-1.35128709487617015838623046875">
        <ele>1181.5999755859375</ele>
        <time>2020-08-22T06:15:09.000Z</time>
      </trkpt>
      <trkpt lat="43.02763215266168117523193359375" lon="-1.351348869502544403076171875">
        <ele>1182.199951171875</ele>
        <time>2020-08-22T06:15:12.000Z</time>
      </trkpt>
      <trkpt lat="43.02763600833714008331298828125" lon="-1.3514338620007038116455078125">
        <ele>1182.800048828125</ele>
        <time>2020-08-22T06:15:16.000Z</time>
      </trkpt>
      <trkpt lat="43.02764288149774074554443359375" lon="-1.35149748064577579498291015625">
        <ele>1183</ele>
        <time>2020-08-22T06:15:20.000Z</time>
      </trkpt>
      <trkpt lat="43.02764288149774074554443359375" lon="-1.35152111761271953582763671875">
        <ele>1183</ele>
        <time>2020-08-22T06:15:21.000Z</time>
      </trkpt>
      <trkpt lat="43.0276602320373058319091796875" lon="-1.3516092114150524139404296875">
        <ele>1183.4000244140625</ele>
        <time>2020-08-22T06:15:26.000Z</time>
      </trkpt>
      <trkpt lat="43.02766911685466766357421875" lon="-1.3516496121883392333984375">
        <ele>1183.800048828125</ele>
        <time>2020-08-22T06:15:28.000Z</time>
      </trkpt>
      <trkpt lat="43.02767875604331493377685546875" lon="-1.3517017476260662078857421875">
        <ele>1184</ele>
        <time>2020-08-22T06:15:31.000Z</time>
      </trkpt>
      <trkpt lat="43.02768076770007610321044921875" lon="-1.351716332137584686279296875">
        <ele>1184.4000244140625</ele>
        <time>2020-08-22T06:15:32.000Z</time>
      </trkpt>
      <trkpt lat="43.0276790075004100799560546875" lon="-1.35173745453357696533203125">
        <ele>1184.5999755859375</ele>
        <time>2020-08-22T06:15:33.000Z</time>
      </trkpt>
      <trkpt lat="43.02768051624298095703125" lon="-1.35175866074860095977783203125">
        <ele>1184.800048828125</ele>
        <time>2020-08-22T06:15:34.000Z</time>
      </trkpt>
      <trkpt lat="43.0276766605675220489501953125" lon="-1.351852118968963623046875">
        <ele>1185.5999755859375</ele>
        <time>2020-08-22T06:15:38.000Z</time>
      </trkpt>
      <trkpt lat="43.02767557092010974884033203125" lon="-1.351869888603687286376953125">
        <ele>1185.800048828125</ele>
        <time>2020-08-22T06:15:39.000Z</time>
      </trkpt>
      <trkpt lat="43.0276850424706935882568359375" lon="-1.35191372595727443695068359375">
        <ele>1186.199951171875</ele>
        <time>2020-08-22T06:15:41.000Z</time>
      </trkpt>
      <trkpt lat="43.0276899039745330810546875" lon="-1.35194675065577030181884765625">
        <ele>1186.800048828125</ele>
        <time>2020-08-22T06:15:43.000Z</time>
      </trkpt>
      <trkpt lat="43.02769325673580169677734375" lon="-1.3519810326397418975830078125">
        <ele>1187.199951171875</ele>
        <time>2020-08-22T06:15:45.000Z</time>
      </trkpt>
      <trkpt lat="43.027694262564182281494140625" lon="-1.3520376943051815032958984375">
        <ele>1187.800048828125</ele>
        <time>2020-08-22T06:15:49.000Z</time>
      </trkpt>
      <trkpt lat="43.02770675159990787506103515625" lon="-1.35213618166744709014892578125">
        <ele>1188.800048828125</ele>
        <time>2020-08-22T06:15:54.000Z</time>
      </trkpt>
      <trkpt lat="43.0277140438556671142578125" lon="-1.3521748222410678863525390625">
        <ele>1188.800048828125</ele>
        <time>2020-08-22T06:15:56.000Z</time>
      </trkpt>
      <trkpt lat="43.027724437415599822998046875" lon="-1.35226928628981113433837890625">
        <ele>1189</ele>
        <time>2020-08-22T06:16:00.000Z</time>
      </trkpt>
      <trkpt lat="43.02773005329072475433349609375" lon="-1.3522918336093425750732421875">
        <ele>1189.199951171875</ele>
        <time>2020-08-22T06:16:01.000Z</time>
      </trkpt>
      <trkpt lat="43.02773474715650081634521484375" lon="-1.3523136265575885772705078125">
        <ele>1189.199951171875</ele>
        <time>2020-08-22T06:16:02.000Z</time>
      </trkpt>
      <trkpt lat="43.0277417041361331939697265625" lon="-1.35233148001134395599365234375">
        <ele>1189.4000244140625</ele>
        <time>2020-08-22T06:16:03.000Z</time>
      </trkpt>
      <trkpt lat="43.0277537740767002105712890625" lon="-1.35240289382636547088623046875">
        <ele>1190.199951171875</ele>
        <time>2020-08-22T06:16:07.000Z</time>
      </trkpt>
      <trkpt lat="43.02775385789573192596435546875" lon="-1.35242753662168979644775390625">
        <ele>1190.4000244140625</ele>
        <time>2020-08-22T06:16:08.000Z</time>
      </trkpt>
      <trkpt lat="43.02776190452277660369873046875" lon="-1.35256684385240077972412109375">
        <ele>1190.800048828125</ele>
        <time>2020-08-22T06:16:14.000Z</time>
      </trkpt>
      <trkpt lat="43.0277650058269500732421875" lon="-1.35261864401400089263916015625">
        <ele>1191.4000244140625</ele>
        <time>2020-08-22T06:16:16.000Z</time>
      </trkpt>
      <trkpt lat="43.027782440185546875" lon="-1.35269223712384700775146484375">
        <ele>1192</ele>
        <time>2020-08-22T06:16:20.000Z</time>
      </trkpt>
      <trkpt lat="43.02778772078454494476318359375" lon="-1.3527082465589046478271484375">
        <ele>1192.199951171875</ele>
        <time>2020-08-22T06:16:21.000Z</time>
      </trkpt>
      <trkpt lat="43.0277916602790355682373046875" lon="-1.35274806059896945953369140625">
        <ele>1192.5999755859375</ele>
        <time>2020-08-22T06:16:23.000Z</time>
      </trkpt>
      <trkpt lat="43.02779593504965305328369140625" lon="-1.35282416827976703643798828125">
        <ele>1193</ele>
        <time>2020-08-22T06:16:27.000Z</time>
      </trkpt>
      <trkpt lat="43.02779643796384334564208984375" lon="-1.35289323516190052032470703125">
        <ele>1193.5999755859375</ele>
        <time>2020-08-22T06:16:31.000Z</time>
      </trkpt>
      <trkpt lat="43.02779786288738250732421875" lon="-1.35295526124536991119384765625">
        <ele>1194.199951171875</ele>
        <time>2020-08-22T06:16:34.000Z</time>
      </trkpt>
      <trkpt lat="43.0278010480105876922607421875" lon="-1.3529942370951175689697265625">
        <ele>1194.5999755859375</ele>
        <time>2020-08-22T06:16:36.000Z</time>
      </trkpt>
      <trkpt lat="43.0278010480105876922607421875" lon="-1.3530123420059680938720703125">
        <ele>1195</ele>
        <time>2020-08-22T06:16:37.000Z</time>
      </trkpt>
      <trkpt lat="43.02779928781092166900634765625" lon="-1.3530565984547138214111328125">
        <ele>1195.800048828125</ele>
        <time>2020-08-22T06:16:39.000Z</time>
      </trkpt>
      <trkpt lat="43.02779777906835079193115234375" lon="-1.3530763797461986541748046875">
        <ele>1196.199951171875</ele>
        <time>2020-08-22T06:16:40.000Z</time>
      </trkpt>
      <trkpt lat="43.02780197001993656158447265625" lon="-1.35309590958058834075927734375">
        <ele>1196.4000244140625</ele>
        <time>2020-08-22T06:16:41.000Z</time>
      </trkpt>
      <trkpt lat="43.027816303074359893798828125" lon="-1.35313698090612888336181640625">
        <ele>1196.800048828125</ele>
        <time>2020-08-22T06:16:43.000Z</time>
      </trkpt>
      <trkpt lat="43.02783130668103694915771484375" lon="-1.3531692512333393096923828125">
        <ele>1197.4000244140625</ele>
        <time>2020-08-22T06:16:45.000Z</time>
      </trkpt>
      <trkpt lat="43.027853183448314666748046875" lon="-1.353225745260715484619140625">
        <ele>1197.800048828125</ele>
        <time>2020-08-22T06:16:49.000Z</time>
      </trkpt>
      <trkpt lat="43.02788662724196910858154296875" lon="-1.35328835807740688323974609375">
        <ele>1198.199951171875</ele>
        <time>2020-08-22T06:16:53.000Z</time>
      </trkpt>
      <trkpt lat="43.02793608047068119049072265625" lon="-1.35336061008274555206298828125">
        <ele>1198.800048828125</ele>
        <time>2020-08-22T06:16:57.000Z</time>
      </trkpt>
      <trkpt lat="43.02794731222093105316162109375" lon="-1.3533831574022769927978515625">
        <ele>1199</ele>
        <time>2020-08-22T06:16:58.000Z</time>
      </trkpt>
      <trkpt lat="43.02796147763729095458984375" lon="-1.35339899919927120208740234375">
        <ele>1199</ele>
        <time>2020-08-22T06:16:59.000Z</time>
      </trkpt>
      <trkpt lat="43.02809768356382846832275390625" lon="-1.35352992452681064605712890625">
        <ele>1199</ele>
        <time>2020-08-22T06:17:07.000Z</time>
      </trkpt>
      <trkpt lat="43.0281995236873626708984375" lon="-1.3535947166383266448974609375">
        <ele>1199</ele>
        <time>2020-08-22T06:17:13.000Z</time>
      </trkpt>
      <trkpt lat="43.0283068120479583740234375" lon="-1.3536585867404937744140625">
        <ele>1198.5999755859375</ele>
        <time>2020-08-22T06:17:19.000Z</time>
      </trkpt>
      <trkpt lat="43.0284114181995391845703125" lon="-1.35375271551311016082763671875">
        <ele>1198.5999755859375</ele>
        <time>2020-08-22T06:17:27.000Z</time>
      </trkpt>
      <trkpt lat="43.0284115858376026153564453125" lon="-1.3537623547017574310302734375">
        <ele>1198.199951171875</ele>
        <time>2020-08-22T06:17:35.000Z</time>
      </trkpt>
      <trkpt lat="43.02841234020888805389404296875" lon="-1.3537626899778842926025390625">
        <ele>1198.199951171875</ele>
        <time>2020-08-22T06:17:43.000Z</time>
      </trkpt>
      <trkpt lat="43.02841250784695148468017578125" lon="-1.3537630252540111541748046875">
        <ele>1198.199951171875</ele>
        <time>2020-08-22T06:17:54.000Z</time>
      </trkpt>
      <trkpt lat="43.0284119211137294769287109375" lon="-1.35376092977821826934814453125">
        <ele>1198.4000244140625</ele>
        <time>2020-08-22T06:18:24.000Z</time>
      </trkpt>
      <trkpt lat="43.02841234020888805389404296875" lon="-1.3537606783211231231689453125">
        <ele>1198</ele>
        <time>2020-08-22T06:18:56.000Z</time>
      </trkpt>
      <trkpt lat="43.02841267548501491546630859375" lon="-1.3537605106830596923828125">
        <ele>1198</ele>
        <time>2020-08-22T06:19:11.000Z</time>
      </trkpt>
      <trkpt lat="43.02841267548501491546630859375" lon="-1.3537613488733768463134765625">
        <ele>1198.199951171875</ele>
        <time>2020-08-22T06:19:36.000Z</time>
      </trkpt>
      <trkpt lat="43.0284125916659832000732421875" lon="-1.3537613488733768463134765625">
        <ele>1197.5999755859375</ele>
        <time>2020-08-22T06:19:57.000Z</time>
      </trkpt>
      <trkpt lat="43.02840798161923885345458984375" lon="-1.3537864945828914642333984375">
        <ele>1197.5999755859375</ele>
        <time>2020-08-22T06:20:27.000Z</time>
      </trkpt>
      <trkpt lat="43.0283485539257526397705078125" lon="-1.35391582734882831573486328125">
        <ele>1197.5999755859375</ele>
        <time>2020-08-22T06:20:36.000Z</time>
      </trkpt>
      <trkpt lat="43.0283364839851856231689453125" lon="-1.3539420627057552337646484375">
        <ele>1198.4000244140625</ele>
        <time>2020-08-22T06:20:42.000Z</time>
      </trkpt>
      <trkpt lat="43.02833673544228076934814453125" lon="-1.35398623533546924591064453125">
        <ele>1198</ele>
        <time>2020-08-22T06:20:49.000Z</time>
      </trkpt>
      <trkpt lat="43.0283555947244167327880859375" lon="-1.35400886647403240203857421875">
        <ele>1197.199951171875</ele>
        <time>2020-08-22T06:20:52.000Z</time>
      </trkpt>
      <trkpt lat="43.02840596996247768402099609375" lon="-1.35404541157186031341552734375">
        <ele>1196.4000244140625</ele>
        <time>2020-08-22T06:20:58.000Z</time>
      </trkpt>
      <trkpt lat="43.02843094803392887115478515625" lon="-1.3540677912533283233642578125">
        <ele>1196</ele>
        <time>2020-08-22T06:21:01.000Z</time>
      </trkpt>
      <trkpt lat="43.0284467898309230804443359375" lon="-1.354112885892391204833984375">
        <ele>1195.4000244140625</ele>
        <time>2020-08-22T06:21:06.000Z</time>
      </trkpt>
      <trkpt lat="43.028451316058635711669921875" lon="-1.35413534939289093017578125">
        <ele>1195</ele>
        <time>2020-08-22T06:21:08.000Z</time>
      </trkpt>
      <trkpt lat="43.02845542319118976593017578125" lon="-1.35418404825031757354736328125">
        <ele>1194</ele>
        <time>2020-08-22T06:21:12.000Z</time>
      </trkpt>
      <trkpt lat="43.0284578539431095123291015625" lon="-1.35421690531075000762939453125">
        <ele>1193.199951171875</ele>
        <time>2020-08-22T06:21:15.000Z</time>
      </trkpt>
      <trkpt lat="43.02845768630504608154296875" lon="-1.35423869825899600982666015625">
        <ele>1192.5999755859375</ele>
        <time>2020-08-22T06:21:17.000Z</time>
      </trkpt>
      <trkpt lat="43.02846849896013736724853515625" lon="-1.35429284535348415374755859375">
        <ele>1191.5999755859375</ele>
        <time>2020-08-22T06:21:22.000Z</time>
      </trkpt>
      <trkpt lat="43.0284746177494525909423828125" lon="-1.354321427643299102783203125">
        <ele>1190.5999755859375</ele>
        <time>2020-08-22T06:21:25.000Z</time>
      </trkpt>
      <trkpt lat="43.02847646176815032958984375" lon="-1.35433291085064411163330078125">
        <ele>1190.5999755859375</ele>
        <time>2020-08-22T06:21:26.000Z</time>
      </trkpt>
      <trkpt lat="43.02847989834845066070556640625" lon="-1.35438085533678531646728515625">
        <ele>1189.4000244140625</ele>
        <time>2020-08-22T06:21:30.000Z</time>
      </trkpt>
      <trkpt lat="43.028483502566814422607421875" lon="-1.35441161692142486572265625">
        <ele>1188.800048828125</ele>
        <time>2020-08-22T06:21:33.000Z</time>
      </trkpt>
      <trkpt lat="43.0284886993467807769775390625" lon="-1.35443064384162425994873046875">
        <ele>1188</ele>
        <time>2020-08-22T06:21:35.000Z</time>
      </trkpt>
      <trkpt lat="43.0285012722015380859375" lon="-1.35444690473377704620361328125">
        <ele>1187</ele>
        <time>2020-08-22T06:21:38.000Z</time>
      </trkpt>
      <trkpt lat="43.028504960238933563232421875" lon="-1.35445587337017059326171875">
        <ele>1186.800048828125</ele>
        <time>2020-08-22T06:21:39.000Z</time>
      </trkpt>
      <trkpt lat="43.02850571461021900177001953125" lon="-1.35446450673043727874755859375">
        <ele>1186.5999755859375</ele>
        <time>2020-08-22T06:21:40.000Z</time>
      </trkpt>
      <trkpt lat="43.0285047926008701324462890625" lon="-1.3544687815010547637939453125">
        <ele>1186.4000244140625</ele>
        <time>2020-08-22T06:21:48.000Z</time>
      </trkpt>
      <trkpt lat="43.02850286476314067840576171875" lon="-1.3544766604900360107421875">
        <ele>1186.5999755859375</ele>
        <time>2020-08-22T06:21:51.000Z</time>
      </trkpt>
      <trkpt lat="43.02848626859486103057861328125" lon="-1.35454731993377208709716796875">
        <ele>1186.199951171875</ele>
        <time>2020-08-22T06:21:54.000Z</time>
      </trkpt>
      <trkpt lat="43.0284823291003704071044921875" lon="-1.35458352975547313690185546875">
        <ele>1185.800048828125</ele>
        <time>2020-08-22T06:21:55.000Z</time>
      </trkpt>
      <trkpt lat="43.02849867381155490875244140625" lon="-1.354695595800876617431640625">
        <ele>1184.800048828125</ele>
        <time>2020-08-22T06:21:58.000Z</time>
      </trkpt>
      <trkpt lat="43.02851158194243907928466796875" lon="-1.3547333143651485443115234375">
        <ele>1184.199951171875</ele>
        <time>2020-08-22T06:21:59.000Z</time>
      </trkpt>
      <trkpt lat="43.0285507254302501678466796875" lon="-1.35480749420821666717529296875">
        <ele>1183.4000244140625</ele>
        <time>2020-08-22T06:22:01.000Z</time>
      </trkpt>
      <trkpt lat="43.02863127551972866058349609375" lon="-1.354893743991851806640625">
        <ele>1182</ele>
        <time>2020-08-22T06:22:04.000Z</time>
      </trkpt>
      <trkpt lat="43.02872079424560070037841796875" lon="-1.35497328825294971466064453125">
        <ele>1180.800048828125</ele>
        <time>2020-08-22T06:22:07.000Z</time>
      </trkpt>
      <trkpt lat="43.02885641343891620635986328125" lon="-1.3551123440265655517578125">
        <ele>1179.4000244140625</ele>
        <time>2020-08-22T06:22:11.000Z</time>
      </trkpt>
      <trkpt lat="43.02894559688866138458251953125" lon="-1.35529942810535430908203125">
        <ele>1177.800048828125</ele>
        <time>2020-08-22T06:22:14.000Z</time>
      </trkpt>
      <trkpt lat="43.0289693176746368408203125" lon="-1.35536849498748779296875">
        <ele>1177.199951171875</ele>
        <time>2020-08-22T06:22:15.000Z</time>
      </trkpt>
      <trkpt lat="43.028992451727390289306640625" lon="-1.35543362237513065338134765625">
        <ele>1176.5999755859375</ele>
        <time>2020-08-22T06:22:16.000Z</time>
      </trkpt>
      <trkpt lat="43.029088675975799560546875" lon="-1.3556620292365550994873046875">
        <ele>1175.4000244140625</ele>
        <time>2020-08-22T06:22:20.000Z</time>
      </trkpt>
      <trkpt lat="43.029108457267284393310546875" lon="-1.35570704005658626556396484375">
        <ele>1175</ele>
        <time>2020-08-22T06:22:21.000Z</time>
      </trkpt>
      <trkpt lat="43.02914391271770000457763671875" lon="-1.355785913765430450439453125">
        <ele>1173.800048828125</ele>
        <time>2020-08-22T06:22:23.000Z</time>
      </trkpt>
      <trkpt lat="43.02917777560651302337646484375" lon="-1.35585238225758075714111328125">
        <ele>1173.199951171875</ele>
        <time>2020-08-22T06:22:26.000Z</time>
      </trkpt>
      <trkpt lat="43.02917945198714733123779296875" lon="-1.35585724376142024993896484375">
        <ele>1172.800048828125</ele>
        <time>2020-08-22T06:22:28.000Z</time>
      </trkpt>
      <trkpt lat="43.02918565459549427032470703125" lon="-1.35586210526525974273681640625">
        <ele>1172.5999755859375</ele>
        <time>2020-08-22T06:22:32.000Z</time>
      </trkpt>
      <trkpt lat="43.02918850444257259368896484375" lon="-1.3558660447597503662109375">
        <ele>1173</ele>
        <time>2020-08-22T06:22:42.000Z</time>
      </trkpt>
      <trkpt lat="43.02918883971869945526123046875" lon="-1.35586495511233806610107421875">
        <ele>1173.4000244140625</ele>
        <time>2020-08-22T06:22:56.000Z</time>
      </trkpt>
      <trkpt lat="43.02918858826160430908203125" lon="-1.35586579330265522003173828125">
        <ele>1172.800048828125</ele>
        <time>2020-08-22T06:23:26.000Z</time>
      </trkpt>
      <trkpt lat="43.02918833680450916290283203125" lon="-1.355867721140384674072265625">
        <ele>1173</ele>
        <time>2020-08-22T06:23:54.000Z</time>
      </trkpt>
      <trkpt lat="43.02920979447662830352783203125" lon="-1.355904601514339447021484375">
        <ele>1172.800048828125</ele>
        <time>2020-08-22T06:24:04.000Z</time>
      </trkpt>
      <trkpt lat="43.029292188584804534912109375" lon="-1.35603007860481739044189453125">
        <ele>1172</ele>
        <time>2020-08-22T06:24:08.000Z</time>
      </trkpt>
      <trkpt lat="43.0293198488652706146240234375" lon="-1.3560771010816097259521484375">
        <ele>1171.5999755859375</ele>
        <time>2020-08-22T06:24:09.000Z</time>
      </trkpt>
      <trkpt lat="43.02942705340683460235595703125" lon="-1.3562494330108165740966796875">
        <ele>1170.5999755859375</ele>
        <time>2020-08-22T06:24:12.000Z</time>
      </trkpt>
      <trkpt lat="43.02955546416342258453369140625" lon="-1.35644565336406230926513671875">
        <ele>1169.4000244140625</ele>
        <time>2020-08-22T06:24:15.000Z</time>
      </trkpt>
      <trkpt lat="43.029635846614837646484375" lon="-1.3565768301486968994140625">
        <ele>1168.199951171875</ele>
        <time>2020-08-22T06:24:17.000Z</time>
      </trkpt>
      <trkpt lat="43.02972368896007537841796875" lon="-1.35670884512364864349365234375">
        <ele>1166.800048828125</ele>
        <time>2020-08-22T06:24:19.000Z</time>
      </trkpt>
      <trkpt lat="43.0298100225627422332763671875" lon="-1.35683926753699779510498046875">
        <ele>1165.800048828125</ele>
        <time>2020-08-22T06:24:21.000Z</time>
      </trkpt>
      <trkpt lat="43.02989208139479160308837890625" lon="-1.3569813407957553863525390625">
        <ele>1164.4000244140625</ele>
        <time>2020-08-22T06:24:23.000Z</time>
      </trkpt>
      <trkpt lat="43.02992896176874637603759765625" lon="-1.35705485008656978607177734375">
        <ele>1164</ele>
        <time>2020-08-22T06:24:24.000Z</time>
      </trkpt>
      <trkpt lat="43.02996818907558917999267578125" lon="-1.3571298681199550628662109375">
        <ele>1163.4000244140625</ele>
        <time>2020-08-22T06:24:25.000Z</time>
      </trkpt>
      <trkpt lat="43.0300041474401950836181640625" lon="-1.35720656253397464752197265625">
        <ele>1162.800048828125</ele>
        <time>2020-08-22T06:24:26.000Z</time>
      </trkpt>
      <trkpt lat="43.030039854347705841064453125" lon="-1.357283927500247955322265625">
        <ele>1162.4000244140625</ele>
        <time>2020-08-22T06:24:27.000Z</time>
      </trkpt>
      <trkpt lat="43.03012627176940441131591796875" lon="-1.357512585818767547607421875">
        <ele>1160.800048828125</ele>
        <time>2020-08-22T06:24:30.000Z</time>
      </trkpt>
      <trkpt lat="43.0301603861153125762939453125" lon="-1.3576746918261051177978515625">
        <ele>1159.5999755859375</ele>
        <time>2020-08-22T06:24:32.000Z</time>
      </trkpt>
      <trkpt lat="43.03018695674836635589599609375" lon="-1.357822380959987640380859375">
        <ele>1158.4000244140625</ele>
        <time>2020-08-22T06:24:34.000Z</time>
      </trkpt>
      <trkpt lat="43.03027697838842868804931640625" lon="-1.35795590467751026153564453125">
        <ele>1157.800048828125</ele>
        <time>2020-08-22T06:24:37.000Z</time>
      </trkpt>
      <trkpt lat="43.0303565226495265960693359375" lon="-1.35800988413393497467041015625">
        <ele>1157.199951171875</ele>
        <time>2020-08-22T06:24:39.000Z</time>
      </trkpt>
      <trkpt lat="43.030397258698940277099609375" lon="-1.3580401428043842315673828125">
        <ele>1157</ele>
        <time>2020-08-22T06:24:40.000Z</time>
      </trkpt>
      <trkpt lat="43.03044294007122516632080078125" lon="-1.358071826398372650146484375">
        <ele>1156.5999755859375</ele>
        <time>2020-08-22T06:24:41.000Z</time>
      </trkpt>
      <trkpt lat="43.03049289621412754058837890625" lon="-1.3581055216491222381591796875">
        <ele>1156</ele>
        <time>2020-08-22T06:24:42.000Z</time>
      </trkpt>
      <trkpt lat="43.03065936081111431121826171875" lon="-1.35820786468684673309326171875">
        <ele>1154.5999755859375</ele>
        <time>2020-08-22T06:24:45.000Z</time>
      </trkpt>
      <trkpt lat="43.03072373382747173309326171875" lon="-1.35823108255863189697265625">
        <ele>1153.800048828125</ele>
        <time>2020-08-22T06:24:46.000Z</time>
      </trkpt>
      <trkpt lat="43.03078676573932170867919921875" lon="-1.358248852193355560302734375">
        <ele>1152.800048828125</ele>
        <time>2020-08-22T06:24:47.000Z</time>
      </trkpt>
      <trkpt lat="43.03090897388756275177001953125" lon="-1.35827911086380481719970703125">
        <ele>1151.800048828125</ele>
        <time>2020-08-22T06:24:49.000Z</time>
      </trkpt>
      <trkpt lat="43.0310257337987422943115234375" lon="-1.35832403786480426788330078125">
        <ele>1150.4000244140625</ele>
        <time>2020-08-22T06:24:51.000Z</time>
      </trkpt>
      <trkpt lat="43.0310870893299579620361328125" lon="-1.358353458344936370849609375">
        <ele>1149.5999755859375</ele>
        <time>2020-08-22T06:24:52.000Z</time>
      </trkpt>
      <trkpt lat="43.0311487801373004913330078125" lon="-1.35838790796697139739990234375">
        <ele>1149.199951171875</ele>
        <time>2020-08-22T06:24:53.000Z</time>
      </trkpt>
      <trkpt lat="43.03120384924113750457763671875" lon="-1.358429230749607086181640625">
        <ele>1148.5999755859375</ele>
        <time>2020-08-22T06:24:54.000Z</time>
      </trkpt>
      <trkpt lat="43.0312584154307842254638671875" lon="-1.35847457684576511383056640625">
        <ele>1147.5999755859375</ele>
        <time>2020-08-22T06:24:55.000Z</time>
      </trkpt>
      <trkpt lat="43.031311221420764923095703125" lon="-1.358525454998016357421875">
        <ele>1146.5999755859375</ele>
        <time>2020-08-22T06:24:56.000Z</time>
      </trkpt>
      <trkpt lat="43.0313626863062381744384765625" lon="-1.358579434454441070556640625">
        <ele>1146</ele>
        <time>2020-08-22T06:24:57.000Z</time>
      </trkpt>
      <trkpt lat="43.03149872459471225738525390625" lon="-1.3587606512010097503662109375">
        <ele>1144.4000244140625</ele>
        <time>2020-08-22T06:25:00.000Z</time>
      </trkpt>
      <trkpt lat="43.0315330065786838531494140625" lon="-1.35882653295993804931640625">
        <ele>1144</ele>
        <time>2020-08-22T06:25:01.000Z</time>
      </trkpt>
      <trkpt lat="43.031581453979015350341796875" lon="-1.35896659456193447113037109375">
        <ele>1143.199951171875</ele>
        <time>2020-08-22T06:25:03.000Z</time>
      </trkpt>
      <trkpt lat="43.0316097848117351531982421875" lon="-1.35911889374256134033203125">
        <ele>1141.800048828125</ele>
        <time>2020-08-22T06:25:05.000Z</time>
      </trkpt>
      <trkpt lat="43.03161473013460636138916015625" lon="-1.35919759981334209442138671875">
        <ele>1141.199951171875</ele>
        <time>2020-08-22T06:25:06.000Z</time>
      </trkpt>
      <trkpt lat="43.0316121317446231842041015625" lon="-1.35927982628345489501953125">
        <ele>1140.5999755859375</ele>
        <time>2020-08-22T06:25:07.000Z</time>
      </trkpt>
      <trkpt lat="43.0315755866467952728271484375" lon="-1.359528936445713043212890625">
        <ele>1139.4000244140625</ele>
        <time>2020-08-22T06:25:10.000Z</time>
      </trkpt>
      <trkpt lat="43.03155689500272274017333984375" lon="-1.35969598777592182159423828125">
        <ele>1138.199951171875</ele>
        <time>2020-08-22T06:25:12.000Z</time>
      </trkpt>
      <trkpt lat="43.03156494162976741790771484375" lon="-1.35985239408910274505615234375">
        <ele>1137.199951171875</ele>
        <time>2020-08-22T06:25:14.000Z</time>
      </trkpt>
      <trkpt lat="43.03157064132392406463623046875" lon="-1.3599314354360103607177734375">
        <ele>1136.800048828125</ele>
        <time>2020-08-22T06:25:15.000Z</time>
      </trkpt>
      <trkpt lat="43.0315826274454593658447265625" lon="-1.36008339934051036834716796875">
        <ele>1135.5999755859375</ele>
        <time>2020-08-22T06:25:17.000Z</time>
      </trkpt>
      <trkpt lat="43.03158589638769626617431640625" lon="-1.3602261431515216827392578125">
        <ele>1134.800048828125</ele>
        <time>2020-08-22T06:25:19.000Z</time>
      </trkpt>
      <trkpt lat="43.031568042933940887451171875" lon="-1.36036721058189868927001953125">
        <ele>1134.199951171875</ele>
        <time>2020-08-22T06:25:21.000Z</time>
      </trkpt>
      <trkpt lat="43.031549938023090362548828125" lon="-1.36043560691177845001220703125">
        <ele>1133.5999755859375</ele>
        <time>2020-08-22T06:25:22.000Z</time>
      </trkpt>
      <trkpt lat="43.03150559775531291961669921875" lon="-1.36060207150876522064208984375">
        <ele>1132.800048828125</ele>
        <time>2020-08-22T06:25:24.000Z</time>
      </trkpt>
      <trkpt lat="43.03148481063544750213623046875" lon="-1.3606854714453220367431640625">
        <ele>1132.5999755859375</ele>
        <time>2020-08-22T06:25:25.000Z</time>
      </trkpt>
      <trkpt lat="43.03143803961575031280517578125" lon="-1.360851936042308807373046875">
        <ele>1131.199951171875</ele>
        <time>2020-08-22T06:25:27.000Z</time>
      </trkpt>
      <trkpt lat="43.031384311616420745849609375" lon="-1.361022256314754486083984375">
        <ele>1130.5999755859375</ele>
        <time>2020-08-22T06:25:29.000Z</time>
      </trkpt>
      <trkpt lat="43.03135271184146404266357421875" lon="-1.3611049018800258636474609375">
        <ele>1130.4000244140625</ele>
        <time>2020-08-22T06:25:30.000Z</time>
      </trkpt>
      <trkpt lat="43.03132035769522190093994140625" lon="-1.36118897236883640289306640625">
        <ele>1130</ele>
        <time>2020-08-22T06:25:31.000Z</time>
      </trkpt>
      <trkpt lat="43.031198568642139434814453125" lon="-1.36153933592140674591064453125">
        <ele>1128.5999755859375</ele>
        <time>2020-08-22T06:25:35.000Z</time>
      </trkpt>
      <trkpt lat="43.0311826430261135101318359375" lon="-1.36162650771439075469970703125">
        <ele>1128.199951171875</ele>
        <time>2020-08-22T06:25:36.000Z</time>
      </trkpt>
      <trkpt lat="43.0311578325927257537841796875" lon="-1.36179707944393157958984375">
        <ele>1127.4000244140625</ele>
        <time>2020-08-22T06:25:38.000Z</time>
      </trkpt>
      <trkpt lat="43.03110904991626739501953125" lon="-1.3620533980429172515869140625">
        <ele>1126.199951171875</ele>
        <time>2020-08-22T06:25:41.000Z</time>
      </trkpt>
      <trkpt lat="43.03108801133930683135986328125" lon="-1.36214149184525012969970703125">
        <ele>1125.800048828125</ele>
        <time>2020-08-22T06:25:42.000Z</time>
      </trkpt>
      <trkpt lat="43.03104023449122905731201171875" lon="-1.36231851764023303985595703125">
        <ele>1124.800048828125</ele>
        <time>2020-08-22T06:25:44.000Z</time>
      </trkpt>
      <trkpt lat="43.03097384981811046600341796875" lon="-1.3625908456742763519287109375">
        <ele>1123.199951171875</ele>
        <time>2020-08-22T06:25:47.000Z</time>
      </trkpt>
      <trkpt lat="43.03093872964382171630859375" lon="-1.3627638481557369232177734375">
        <ele>1121.800048828125</ele>
        <time>2020-08-22T06:25:49.000Z</time>
      </trkpt>
      <trkpt lat="43.03092825226485729217529296875" lon="-1.3628459908068180084228515625">
        <ele>1121</ele>
        <time>2020-08-22T06:25:50.000Z</time>
      </trkpt>
      <trkpt lat="43.030929006636142730712890625" lon="-1.36292419396340847015380859375">
        <ele>1120.4000244140625</ele>
        <time>2020-08-22T06:25:51.000Z</time>
      </trkpt>
      <trkpt lat="43.03095088340342044830322265625" lon="-1.36307372711598873138427734375">
        <ele>1119.5999755859375</ele>
        <time>2020-08-22T06:25:53.000Z</time>
      </trkpt>
      <trkpt lat="43.0309648811817169189453125" lon="-1.36314447037875652313232421875">
        <ele>1119.199951171875</ele>
        <time>2020-08-22T06:25:54.000Z</time>
      </trkpt>
      <trkpt lat="43.0309764482080936431884765625" lon="-1.363214291632175445556640625">
        <ele>1118.800048828125</ele>
        <time>2020-08-22T06:25:55.000Z</time>
      </trkpt>
      <trkpt lat="43.030985333025455474853515625" lon="-1.3632855378091335296630859375">
        <ele>1118.4000244140625</ele>
        <time>2020-08-22T06:25:56.000Z</time>
      </trkpt>
      <trkpt lat="43.03099178709089756011962890625" lon="-1.36335921473801136016845703125">
        <ele>1117.800048828125</ele>
        <time>2020-08-22T06:25:57.000Z</time>
      </trkpt>
      <trkpt lat="43.03099178709089756011962890625" lon="-1.36343616060912609100341796875">
        <ele>1117.4000244140625</ele>
        <time>2020-08-22T06:25:58.000Z</time>
      </trkpt>
      <trkpt lat="43.03098726086318492889404296875" lon="-1.36351595632731914520263671875">
        <ele>1116.800048828125</ele>
        <time>2020-08-22T06:25:59.000Z</time>
      </trkpt>
      <trkpt lat="43.03097183816134929656982421875" lon="-1.363680996000766754150390625">
        <ele>1115.5999755859375</ele>
        <time>2020-08-22T06:26:01.000Z</time>
      </trkpt>
      <trkpt lat="43.0309482850134372711181640625" lon="-1.36385575868189334869384765625">
        <ele>1114.199951171875</ele>
        <time>2020-08-22T06:26:03.000Z</time>
      </trkpt>
      <trkpt lat="43.03092104382812976837158203125" lon="-1.36403546668589115142822265625">
        <ele>1113.199951171875</ele>
        <time>2020-08-22T06:26:05.000Z</time>
      </trkpt>
      <trkpt lat="43.03090654313564300537109375" lon="-1.36412314139306545257568359375">
        <ele>1112.199951171875</ele>
        <time>2020-08-22T06:26:06.000Z</time>
      </trkpt>
      <trkpt lat="43.03089204244315624237060546875" lon="-1.36420645751059055328369140625">
        <ele>1111.199951171875</ele>
        <time>2020-08-22T06:26:07.000Z</time>
      </trkpt>
      <trkpt lat="43.03083118982613086700439453125" lon="-1.36443997733294963836669921875">
        <ele>1109.800048828125</ele>
        <time>2020-08-22T06:26:10.000Z</time>
      </trkpt>
      <trkpt lat="43.0308066308498382568359375" lon="-1.36451440863311290740966796875">
        <ele>1109.199951171875</ele>
        <time>2020-08-22T06:26:11.000Z</time>
      </trkpt>
      <trkpt lat="43.0307823233306407928466796875" lon="-1.3645860739052295684814453125">
        <ele>1108.4000244140625</ele>
        <time>2020-08-22T06:26:12.000Z</time>
      </trkpt>
      <trkpt lat="43.030735217034816741943359375" lon="-1.36472613550722599029541015625">
        <ele>1107.4000244140625</ele>
        <time>2020-08-22T06:26:14.000Z</time>
      </trkpt>
      <trkpt lat="43.03069774992763996124267578125" lon="-1.3648610003292560577392578125">
        <ele>1106</ele>
        <time>2020-08-22T06:26:16.000Z</time>
      </trkpt>
      <trkpt lat="43.030684255063533782958984375" lon="-1.3649267144501209259033203125">
        <ele>1105.5999755859375</ele>
        <time>2020-08-22T06:26:17.000Z</time>
      </trkpt>
      <trkpt lat="43.030676878988742828369140625" lon="-1.3649917580187320709228515625">
        <ele>1105.199951171875</ele>
        <time>2020-08-22T06:26:18.000Z</time>
      </trkpt>
      <trkpt lat="43.03067729808390140533447265625" lon="-1.36505638249218463897705078125">
        <ele>1104.5999755859375</ele>
        <time>2020-08-22T06:26:19.000Z</time>
      </trkpt>
      <trkpt lat="43.0307266674935817718505859375" lon="-1.3652210868895053863525390625">
        <ele>1103.5999755859375</ele>
        <time>2020-08-22T06:26:22.000Z</time>
      </trkpt>
      <trkpt lat="43.03078575991094112396240234375" lon="-1.3653116114437580108642578125">
        <ele>1103</ele>
        <time>2020-08-22T06:26:24.000Z</time>
      </trkpt>
      <trkpt lat="43.0308158509433269500732421875" lon="-1.3653503358364105224609375">
        <ele>1102.5999755859375</ele>
        <time>2020-08-22T06:26:25.000Z</time>
      </trkpt>
      <trkpt lat="43.03087301552295684814453125" lon="-1.36541278101503849029541015625">
        <ele>1101.800048828125</ele>
        <time>2020-08-22T06:26:27.000Z</time>
      </trkpt>
      <trkpt lat="43.03094451315701007843017578125" lon="-1.36546500027179718017578125">
        <ele>1101.199951171875</ele>
        <time>2020-08-22T06:26:29.000Z</time>
      </trkpt>
      <trkpt lat="43.03098776377737522125244140625" lon="-1.36548914015293121337890625">
        <ele>1101</ele>
        <time>2020-08-22T06:26:30.000Z</time>
      </trkpt>
      <trkpt lat="43.03107711486518383026123046875" lon="-1.365529038012027740478515625">
        <ele>1100.4000244140625</ele>
        <time>2020-08-22T06:26:32.000Z</time>
      </trkpt>
      <trkpt lat="43.0311501212418079376220703125" lon="-1.3655530102550983428955078125">
        <ele>1100.199951171875</ele>
        <time>2020-08-22T06:26:34.000Z</time>
      </trkpt>
      <trkpt lat="43.03127794526517391204833984375" lon="-1.36560807935893535614013671875">
        <ele>1099</ele>
        <time>2020-08-22T06:26:38.000Z</time>
      </trkpt>
      <trkpt lat="43.03137592971324920654296875" lon="-1.36566884815692901611328125">
        <ele>1098</ele>
        <time>2020-08-22T06:26:42.000Z</time>
      </trkpt>
      <trkpt lat="43.0314186774194240570068359375" lon="-1.36568888090550899505615234375">
        <ele>1097.800048828125</ele>
        <time>2020-08-22T06:26:44.000Z</time>
      </trkpt>
      <trkpt lat="43.031514398753643035888671875" lon="-1.365775801241397857666015625">
        <ele>1097</ele>
        <time>2020-08-22T06:26:49.000Z</time>
      </trkpt>
      <trkpt lat="43.03153627552092075347900390625" lon="-1.36579482816159725189208984375">
        <ele>1096.800048828125</ele>
        <time>2020-08-22T06:26:50.000Z</time>
      </trkpt>
      <trkpt lat="43.03163384087383747100830078125" lon="-1.36589557863771915435791015625">
        <ele>1095.800048828125</ele>
        <time>2020-08-22T06:26:55.000Z</time>
      </trkpt>
      <trkpt lat="43.03166770376265048980712890625" lon="-1.36592776514589786529541015625">
        <ele>1095.4000244140625</ele>
        <time>2020-08-22T06:26:57.000Z</time>
      </trkpt>
      <trkpt lat="43.03170450031757354736328125" lon="-1.36594721116125583648681640625">
        <ele>1095</ele>
        <time>2020-08-22T06:27:02.000Z</time>
      </trkpt>
      <trkpt lat="43.03170718252658843994140625" lon="-1.36595576070249080657958984375">
        <ele>1095.199951171875</ele>
        <time>2020-08-22T06:27:16.000Z</time>
      </trkpt>
      <trkpt lat="43.03171481005847454071044921875" lon="-1.3659637235105037689208984375">
        <ele>1095.199951171875</ele>
        <time>2020-08-22T06:27:17.000Z</time>
      </trkpt>
      <trkpt lat="43.0317780934274196624755859375" lon="-1.36602667160332202911376953125">
        <ele>1094.800048828125</ele>
        <time>2020-08-22T06:27:22.000Z</time>
      </trkpt>
      <trkpt lat="43.03179678507149219512939453125" lon="-1.36604896746575832366943359375">
        <ele>1094.5999755859375</ele>
        <time>2020-08-22T06:27:23.000Z</time>
      </trkpt>
      <trkpt lat="43.031946904957294464111328125" lon="-1.366189531981945037841796875">
        <ele>1093.800048828125</ele>
        <time>2020-08-22T06:27:29.000Z</time>
      </trkpt>
      <trkpt lat="43.03197531960904598236083984375" lon="-1.36621694080531597137451171875">
        <ele>1093.5999755859375</ele>
        <time>2020-08-22T06:27:30.000Z</time>
      </trkpt>
      <trkpt lat="43.032153435051441192626953125" lon="-1.3663803040981292724609375">
        <ele>1092.5999755859375</ele>
        <time>2020-08-22T06:27:36.000Z</time>
      </trkpt>
      <trkpt lat="43.03221437148749828338623046875" lon="-1.366443336009979248046875">
        <ele>1092</ele>
        <time>2020-08-22T06:27:38.000Z</time>
      </trkpt>
      <trkpt lat="43.03229785524308681488037109375" lon="-1.36653712950646877288818359375">
        <ele>1091.5999755859375</ele>
        <time>2020-08-22T06:27:41.000Z</time>
      </trkpt>
      <trkpt lat="43.0324094183743000030517578125" lon="-1.36666939593851566314697265625">
        <ele>1090.4000244140625</ele>
        <time>2020-08-22T06:27:45.000Z</time>
      </trkpt>
      <trkpt lat="43.03252818994224071502685546875" lon="-1.36680970899760723114013671875">
        <ele>1089.199951171875</ele>
        <time>2020-08-22T06:27:49.000Z</time>
      </trkpt>
      <trkpt lat="43.03257395513355731964111328125" lon="-1.3668766804039478302001953125">
        <ele>1089</ele>
        <time>2020-08-22T06:27:51.000Z</time>
      </trkpt>
      <trkpt lat="43.03269716911017894744873046875" lon="-1.3670701347291469573974609375">
        <ele>1088.199951171875</ele>
        <time>2020-08-22T06:27:57.000Z</time>
      </trkpt>
      <trkpt lat="43.03271879442036151885986328125" lon="-1.3671043328940868377685546875">
        <ele>1088.199951171875</ele>
        <time>2020-08-22T06:27:58.000Z</time>
      </trkpt>
      <trkpt lat="43.032864890992641448974609375" lon="-1.36728513054549694061279296875">
        <ele>1087.199951171875</ele>
        <time>2020-08-22T06:28:04.000Z</time>
      </trkpt>
      <trkpt lat="43.032897748053073883056640625" lon="-1.36730658821761608123779296875">
        <ele>1087</ele>
        <time>2020-08-22T06:28:05.000Z</time>
      </trkpt>
      <trkpt lat="43.0331134982407093048095703125" lon="-1.36742443777620792388916015625">
        <ele>1086</ele>
        <time>2020-08-22T06:28:11.000Z</time>
      </trkpt>
      <trkpt lat="43.033153899013996124267578125" lon="-1.36744036339223384857177734375">
        <ele>1085.800048828125</ele>
        <time>2020-08-22T06:28:12.000Z</time>
      </trkpt>
      <trkpt lat="43.03329161368310451507568359375" lon="-1.36741898953914642333984375">
        <ele>1085</ele>
        <time>2020-08-22T06:28:15.000Z</time>
      </trkpt>
      <trkpt lat="43.03343611769378185272216796875" lon="-1.36725562624633312225341796875">
        <ele>1084</ele>
        <time>2020-08-22T06:28:19.000Z</time>
      </trkpt>
      <trkpt lat="43.0334739200770854949951171875" lon="-1.3672091066837310791015625">
        <ele>1083.800048828125</ele>
        <time>2020-08-22T06:28:20.000Z</time>
      </trkpt>
      <trkpt lat="43.033613897860050201416015625" lon="-1.36710911057889461517333984375">
        <ele>1082.5999755859375</ele>
        <time>2020-08-22T06:28:23.000Z</time>
      </trkpt>
      <trkpt lat="43.03376569412648677825927734375" lon="-1.36706493794918060302734375">
        <ele>1081.199951171875</ele>
        <time>2020-08-22T06:28:26.000Z</time>
      </trkpt>
      <trkpt lat="43.0338132195174694061279296875" lon="-1.36704976670444011688232421875">
        <ele>1081</ele>
        <time>2020-08-22T06:28:27.000Z</time>
      </trkpt>
      <trkpt lat="43.0338594876229763031005859375" lon="-1.36702462099492549896240234375">
        <ele>1080.4000244140625</ele>
        <time>2020-08-22T06:28:28.000Z</time>
      </trkpt>
      <trkpt lat="43.03393802605569362640380859375" lon="-1.366945244371891021728515625">
        <ele>1080</ele>
        <time>2020-08-22T06:28:30.000Z</time>
      </trkpt>
      <trkpt lat="43.03399108350276947021484375" lon="-1.36682756245136260986328125">
        <ele>1079.4000244140625</ele>
        <time>2020-08-22T06:28:32.000Z</time>
      </trkpt>
      <trkpt lat="43.0340123735368251800537109375" lon="-1.3667620159685611724853515625">
        <ele>1079.199951171875</ele>
        <time>2020-08-22T06:28:33.000Z</time>
      </trkpt>
      <trkpt lat="43.03403911180794239044189453125" lon="-1.36669973842799663543701171875">
        <ele>1079</ele>
        <time>2020-08-22T06:28:34.000Z</time>
      </trkpt>
      <trkpt lat="43.0340720526874065399169921875" lon="-1.3666413165628910064697265625">
        <ele>1078.800048828125</ele>
        <time>2020-08-22T06:28:35.000Z</time>
      </trkpt>
      <trkpt lat="43.03415394388139247894287109375" lon="-1.36653746478259563446044921875">
        <ele>1078</ele>
        <time>2020-08-22T06:28:37.000Z</time>
      </trkpt>
      <trkpt lat="43.03420138545334339141845703125" lon="-1.36648717336356639862060546875">
        <ele>1077.5999755859375</ele>
        <time>2020-08-22T06:28:38.000Z</time>
      </trkpt>
      <trkpt lat="43.034300543367862701416015625" lon="-1.3663915358483791351318359375">
        <ele>1076</ele>
        <time>2020-08-22T06:28:40.000Z</time>
      </trkpt>
      <trkpt lat="43.034455776214599609375" lon="-1.3662285916507244110107421875">
        <ele>1075</ele>
        <time>2020-08-22T06:28:43.000Z</time>
      </trkpt>
      <trkpt lat="43.03450933657586574554443359375" lon="-1.36617444455623626708984375">
        <ele>1074.5999755859375</ele>
        <time>2020-08-22T06:28:44.000Z</time>
      </trkpt>
      <trkpt lat="43.03461779840290546417236328125" lon="-1.36606992222368717193603515625">
        <ele>1073.5999755859375</ele>
        <time>2020-08-22T06:28:46.000Z</time>
      </trkpt>
      <trkpt lat="43.0347298644483089447021484375" lon="-1.36597755365073680877685546875">
        <ele>1072.4000244140625</ele>
        <time>2020-08-22T06:28:48.000Z</time>
      </trkpt>
      <trkpt lat="43.0348448641598224639892578125" lon="-1.36589155532419681549072265625">
        <ele>1071.199951171875</ele>
        <time>2020-08-22T06:28:50.000Z</time>
      </trkpt>
      <trkpt lat="43.03490177728235721588134765625" lon="-1.3658492267131805419921875">
        <ele>1071</ele>
        <time>2020-08-22T06:28:51.000Z</time>
      </trkpt>
      <trkpt lat="43.03501241840422153472900390625" lon="-1.36576834134757518768310546875">
        <ele>1070</ele>
        <time>2020-08-22T06:28:53.000Z</time>
      </trkpt>
      <trkpt lat="43.03516991436481475830078125" lon="-1.3656626455485820770263671875">
        <ele>1068.800048828125</ele>
        <time>2020-08-22T06:28:56.000Z</time>
      </trkpt>
      <trkpt lat="43.035276196897029876708984375" lon="-1.36560405604541301727294921875">
        <ele>1068.199951171875</ele>
        <time>2020-08-22T06:28:58.000Z</time>
      </trkpt>
      <trkpt lat="43.035330511629581451416015625" lon="-1.3655774854123592376708984375">
        <ele>1067.5999755859375</ele>
        <time>2020-08-22T06:28:59.000Z</time>
      </trkpt>
      <trkpt lat="43.035499490797519683837890625" lon="-1.36550062336027622222900390625">
        <ele>1066.4000244140625</ele>
        <time>2020-08-22T06:29:02.000Z</time>
      </trkpt>
      <trkpt lat="43.03568062372505664825439453125" lon="-1.365425772964954376220703125">
        <ele>1065.199951171875</ele>
        <time>2020-08-22T06:29:05.000Z</time>
      </trkpt>
      <trkpt lat="43.0358795262873172760009765625" lon="-1.3653699494898319244384765625">
        <ele>1063.800048828125</ele>
        <time>2020-08-22T06:29:08.000Z</time>
      </trkpt>
      <trkpt lat="43.0360127985477447509765625" lon="-1.36534069664776325225830078125">
        <ele>1062.5999755859375</ele>
        <time>2020-08-22T06:29:10.000Z</time>
      </trkpt>
      <trkpt lat="43.03608127869665622711181640625" lon="-1.36532410047948360443115234375">
        <ele>1062</ele>
        <time>2020-08-22T06:29:11.000Z</time>
      </trkpt>
      <trkpt lat="43.0361494235694408416748046875" lon="-1.365303732454776763916015625">
        <ele>1061.199951171875</ele>
        <time>2020-08-22T06:29:12.000Z</time>
      </trkpt>
      <trkpt lat="43.0362835340201854705810546875" lon="-1.3652591407299041748046875">
        <ele>1060.199951171875</ele>
        <time>2020-08-22T06:29:14.000Z</time>
      </trkpt>
      <trkpt lat="43.036350421607494354248046875" lon="-1.36523843742907047271728515625">
        <ele>1059.5999755859375</ele>
        <time>2020-08-22T06:29:15.000Z</time>
      </trkpt>
      <trkpt lat="43.0364793352782726287841796875" lon="-1.3651996292173862457275390625">
        <ele>1058.800048828125</ele>
        <time>2020-08-22T06:29:17.000Z</time>
      </trkpt>
      <trkpt lat="43.0366043932735919952392578125" lon="-1.36516165919601917266845703125">
        <ele>1057.800048828125</ele>
        <time>2020-08-22T06:29:19.000Z</time>
      </trkpt>
      <trkpt lat="43.03678569383919239044189453125" lon="-1.365098543465137481689453125">
        <ele>1056.5999755859375</ele>
        <time>2020-08-22T06:29:22.000Z</time>
      </trkpt>
      <trkpt lat="43.03684285841882228851318359375" lon="-1.36507867835462093353271484375">
        <ele>1056</ele>
        <time>2020-08-22T06:29:23.000Z</time>
      </trkpt>
      <trkpt lat="43.03695492446422576904296875" lon="-1.36503827758133411407470703125">
        <ele>1055.4000244140625</ele>
        <time>2020-08-22T06:29:25.000Z</time>
      </trkpt>
      <trkpt lat="43.03701234050095081329345703125" lon="-1.36502536945044994354248046875">
        <ele>1055</ele>
        <time>2020-08-22T06:29:26.000Z</time>
      </trkpt>
      <trkpt lat="43.03719137795269489288330078125" lon="-1.365044228732585906982421875">
        <ele>1054</ele>
        <time>2020-08-22T06:29:29.000Z</time>
      </trkpt>
      <trkpt lat="43.0372504703700542449951171875" lon="-1.3650655187666416168212890625">
        <ele>1053.5999755859375</ele>
        <time>2020-08-22T06:29:30.000Z</time>
      </trkpt>
      <trkpt lat="43.03736396133899688720703125" lon="-1.36511891148984432220458984375">
        <ele>1052.800048828125</ele>
        <time>2020-08-22T06:29:32.000Z</time>
      </trkpt>
      <trkpt lat="43.03753034211695194244384765625" lon="-1.36520843021571636199951171875">
        <ele>1051.5999755859375</ele>
        <time>2020-08-22T06:29:35.000Z</time>
      </trkpt>
      <trkpt lat="43.03773687221109867095947265625" lon="-1.36530582793056964874267578125">
        <ele>1050.4000244140625</ele>
        <time>2020-08-22T06:29:39.000Z</time>
      </trkpt>
      <trkpt lat="43.0378361977636814117431640625" lon="-1.365347988903522491455078125">
        <ele>1049.800048828125</ele>
        <time>2020-08-22T06:29:41.000Z</time>
      </trkpt>
      <trkpt lat="43.03793258965015411376953125" lon="-1.3653857074677944183349609375">
        <ele>1049</ele>
        <time>2020-08-22T06:29:43.000Z</time>
      </trkpt>
      <trkpt lat="43.03803451359272003173828125" lon="-1.36542015708982944488525390625">
        <ele>1048.199951171875</ele>
        <time>2020-08-22T06:29:45.000Z</time>
      </trkpt>
      <trkpt lat="43.03808891214430332183837890625" lon="-1.365441195666790008544921875">
        <ele>1047.800048828125</ele>
        <time>2020-08-22T06:29:46.000Z</time>
      </trkpt>
      <trkpt lat="43.03814448416233062744140625" lon="-1.3654577918350696563720703125">
        <ele>1047.5999755859375</ele>
        <time>2020-08-22T06:29:47.000Z</time>
      </trkpt>
      <trkpt lat="43.03831354714930057525634765625" lon="-1.365520656108856201171875">
        <ele>1046.800048828125</ele>
        <time>2020-08-22T06:29:50.000Z</time>
      </trkpt>
      <trkpt lat="43.03842469118535518646240234375" lon="-1.36557555757462978363037109375">
        <ele>1045.800048828125</ele>
        <time>2020-08-22T06:29:52.000Z</time>
      </trkpt>
      <trkpt lat="43.03847632370889186859130859375" lon="-1.36560983955860137939453125">
        <ele>1045.199951171875</ele>
        <time>2020-08-22T06:29:53.000Z</time>
      </trkpt>
      <trkpt lat="43.03862485103309154510498046875" lon="-1.365735568106174468994140625">
        <ele>1044.4000244140625</ele>
        <time>2020-08-22T06:29:56.000Z</time>
      </trkpt>
      <trkpt lat="43.03866709582507610321044921875" lon="-1.36579164303839206695556640625">
        <ele>1044</ele>
        <time>2020-08-22T06:29:57.000Z</time>
      </trkpt>
      <trkpt lat="43.03870850242674350738525390625" lon="-1.36585132218897342681884765625">
        <ele>1043.800048828125</ele>
        <time>2020-08-22T06:29:58.000Z</time>
      </trkpt>
      <trkpt lat="43.0388390086591243743896484375" lon="-1.366037987172603607177734375">
        <ele>1042.800048828125</ele>
        <time>2020-08-22T06:30:01.000Z</time>
      </trkpt>
      <trkpt lat="43.03887915797531604766845703125" lon="-1.36610294692218303680419921875">
        <ele>1042.4000244140625</ele>
        <time>2020-08-22T06:30:02.000Z</time>
      </trkpt>
      <trkpt lat="43.038916625082492828369140625" lon="-1.36617050506174564361572265625">
        <ele>1041.800048828125</ele>
        <time>2020-08-22T06:30:03.000Z</time>
      </trkpt>
      <trkpt lat="43.03895710967481136322021484375" lon="-1.3662356324493885040283203125">
        <ele>1041.199951171875</ele>
        <time>2020-08-22T06:30:04.000Z</time>
      </trkpt>
      <trkpt lat="43.03906775079667568206787109375" lon="-1.366422884166240692138671875">
        <ele>1039.800048828125</ele>
        <time>2020-08-22T06:30:07.000Z</time>
      </trkpt>
      <trkpt lat="43.0391048826277256011962890625" lon="-1.36649304069578647613525390625">
        <ele>1039.199951171875</ele>
        <time>2020-08-22T06:30:08.000Z</time>
      </trkpt>
      <trkpt lat="43.039180152118206024169921875" lon="-1.3666352815926074981689453125">
        <ele>1038.4000244140625</ele>
        <time>2020-08-22T06:30:10.000Z</time>
      </trkpt>
      <trkpt lat="43.03933764807879924774169921875" lon="-1.3669088669121265411376953125">
        <ele>1036.800048828125</ele>
        <time>2020-08-22T06:30:14.000Z</time>
      </trkpt>
      <trkpt lat="43.0394160188734531402587890625" lon="-1.36704272590577602386474609375">
        <ele>1035.800048828125</ele>
        <time>2020-08-22T06:30:16.000Z</time>
      </trkpt>
      <trkpt lat="43.03945935331284999847412109375" lon="-1.3671053387224674224853515625">
        <ele>1035.199951171875</ele>
        <time>2020-08-22T06:30:17.000Z</time>
      </trkpt>
      <trkpt lat="43.03950092755258083343505859375" lon="-1.36716593988239765167236328125">
        <ele>1034.5999755859375</ele>
        <time>2020-08-22T06:30:18.000Z</time>
      </trkpt>
      <trkpt lat="43.03954266943037509918212890625" lon="-1.3672253675758838653564453125">
        <ele>1034.199951171875</ele>
        <time>2020-08-22T06:30:19.000Z</time>
      </trkpt>
      <trkpt lat="43.039632104337215423583984375" lon="-1.367338858544826507568359375">
        <ele>1033.5999755859375</ele>
        <time>2020-08-22T06:30:21.000Z</time>
      </trkpt>
      <trkpt lat="43.03967996500432491302490234375" lon="-1.367391161620616912841796875">
        <ele>1033.4000244140625</ele>
        <time>2020-08-22T06:30:22.000Z</time>
      </trkpt>
      <trkpt lat="43.03978197276592254638671875" lon="-1.36747841723263263702392578125">
        <ele>1032.5999755859375</ele>
        <time>2020-08-22T06:30:24.000Z</time>
      </trkpt>
      <trkpt lat="43.0399336852133274078369140625" lon="-1.367616467177867889404296875">
        <ele>1031.4000244140625</ele>
        <time>2020-08-22T06:30:27.000Z</time>
      </trkpt>
      <trkpt lat="43.04007659666240215301513671875" lon="-1.3677688501775264739990234375">
        <ele>1030</ele>
        <time>2020-08-22T06:30:30.000Z</time>
      </trkpt>
      <trkpt lat="43.04024591110646724700927734375" lon="-1.3679928146302700042724609375">
        <ele>1029</ele>
        <time>2020-08-22T06:30:34.000Z</time>
      </trkpt>
      <trkpt lat="43.04028354585170745849609375" lon="-1.3680566847324371337890625">
        <ele>1028.4000244140625</ele>
        <time>2020-08-22T06:30:35.000Z</time>
      </trkpt>
      <trkpt lat="43.0403259582817554473876953125" lon="-1.36811762116849422454833984375">
        <ele>1027.800048828125</ele>
        <time>2020-08-22T06:30:36.000Z</time>
      </trkpt>
      <trkpt lat="43.04047222249209880828857421875" lon="-1.3682861812412738800048828125">
        <ele>1026.4000244140625</ele>
        <time>2020-08-22T06:30:39.000Z</time>
      </trkpt>
      <trkpt lat="43.040518574416637420654296875" lon="-1.36834326200187206268310546875">
        <ele>1025.4000244140625</ele>
        <time>2020-08-22T06:30:40.000Z</time>
      </trkpt>
      <trkpt lat="43.04056509397923946380615234375" lon="-1.36839774437248706817626953125">
        <ele>1025.199951171875</ele>
        <time>2020-08-22T06:30:41.000Z</time>
      </trkpt>
      <trkpt lat="43.04060683585703372955322265625" lon="-1.368458010256290435791015625">
        <ele>1024.800048828125</ele>
        <time>2020-08-22T06:30:42.000Z</time>
      </trkpt>
      <trkpt lat="43.04067456163465976715087890625" lon="-1.36857359670102596282958984375">
        <ele>1024</ele>
        <time>2020-08-22T06:30:44.000Z</time>
      </trkpt>
      <trkpt lat="43.04073281586170196533203125" lon="-1.36875632219016551971435546875">
        <ele>1022.5999755859375</ele>
        <time>2020-08-22T06:30:47.000Z</time>
      </trkpt>
      <trkpt lat="43.04074547253549098968505859375" lon="-1.3688162527978420257568359375">
        <ele>1022.20001220703125</ele>
        <time>2020-08-22T06:30:48.000Z</time>
      </trkpt>
      <trkpt lat="43.04076055996119976043701171875" lon="-1.36887316592037677764892578125">
        <ele>1021.79998779296875</ele>
        <time>2020-08-22T06:30:49.000Z</time>
      </trkpt>
      <trkpt lat="43.040775395929813385009765625" lon="-1.3689413107931613922119140625">
        <ele>1021.5999755859375</ele>
        <time>2020-08-22T06:30:50.000Z</time>
      </trkpt>
      <trkpt lat="43.0408017151057720184326171875" lon="-1.36900593526661396026611328125">
        <ele>1021.20001220703125</ele>
        <time>2020-08-22T06:30:51.000Z</time>
      </trkpt>
      <trkpt lat="43.04087162017822265625" lon="-1.36912965215742588043212890625">
        <ele>1020.5999755859375</ele>
        <time>2020-08-22T06:30:53.000Z</time>
      </trkpt>
      <trkpt lat="43.04095652885735034942626953125" lon="-1.36924448423087596893310546875">
        <ele>1019.5999755859375</ele>
        <time>2020-08-22T06:30:55.000Z</time>
      </trkpt>
      <trkpt lat="43.04105225019156932830810546875" lon="-1.36934087611734867095947265625">
        <ele>1019</ele>
        <time>2020-08-22T06:30:57.000Z</time>
      </trkpt>
      <trkpt lat="43.04110052995383739471435546875" lon="-1.36939066462218761444091796875">
        <ele>1018.4000244140625</ele>
        <time>2020-08-22T06:30:58.000Z</time>
      </trkpt>
      <trkpt lat="43.04120899178087711334228515625" lon="-1.369475238025188446044921875">
        <ele>1017.79998779296875</ele>
        <time>2020-08-22T06:31:00.000Z</time>
      </trkpt>
      <trkpt lat="43.04131862707436084747314453125" lon="-1.36955059133470058441162109375">
        <ele>1017.20001220703125</ele>
        <time>2020-08-22T06:31:02.000Z</time>
      </trkpt>
      <trkpt lat="43.04137361235916614532470703125" lon="-1.36958487331867218017578125">
        <ele>1016.5999755859375</ele>
        <time>2020-08-22T06:31:03.000Z</time>
      </trkpt>
      <trkpt lat="43.0414930544793605804443359375" lon="-1.3696437142789363861083984375">
        <ele>1016</ele>
        <time>2020-08-22T06:31:05.000Z</time>
      </trkpt>
      <trkpt lat="43.04167754016816616058349609375" lon="-1.3697174750268459320068359375">
        <ele>1015</ele>
        <time>2020-08-22T06:31:08.000Z</time>
      </trkpt>
      <trkpt lat="43.04173353128135204315185546875" lon="-1.36974580585956573486328125">
        <ele>1014.5999755859375</ele>
        <time>2020-08-22T06:31:09.000Z</time>
      </trkpt>
      <trkpt lat="43.04184802807867527008056640625" lon="-1.36980087496340274810791015625">
        <ele>1013.79998779296875</ele>
        <time>2020-08-22T06:31:11.000Z</time>
      </trkpt>
      <trkpt lat="43.04207299835979938507080078125" lon="-1.369904391467571258544921875">
        <ele>1012.4000244140625</ele>
        <time>2020-08-22T06:31:15.000Z</time>
      </trkpt>
      <trkpt lat="43.04223954677581787109375" lon="-1.36997454799711704254150390625">
        <ele>1011.20001220703125</ele>
        <time>2020-08-22T06:31:18.000Z</time>
      </trkpt>
      <trkpt lat="43.04241548292338848114013671875" lon="-1.37003682553768157958984375">
        <ele>1010.20001220703125</ele>
        <time>2020-08-22T06:31:21.000Z</time>
      </trkpt>
      <trkpt lat="43.04247465915977954864501953125" lon="-1.370048560202121734619140625">
        <ele>1010</ele>
        <time>2020-08-22T06:31:22.000Z</time>
      </trkpt>
      <trkpt lat="43.04258597083389759063720703125" lon="-1.37004948221147060394287109375">
        <ele>1009.20001220703125</ele>
        <time>2020-08-22T06:31:24.000Z</time>
      </trkpt>
      <trkpt lat="43.0426407046616077423095703125" lon="-1.37003690935671329498291015625">
        <ele>1009</ele>
        <time>2020-08-22T06:31:25.000Z</time>
      </trkpt>
      <trkpt lat="43.04269325919449329376220703125" lon="-1.37002182193100452423095703125">
        <ele>1008.79998779296875</ele>
        <time>2020-08-22T06:31:26.000Z</time>
      </trkpt>
      <trkpt lat="43.042744137346744537353515625" lon="-1.3700135238468647003173828125">
        <ele>1008.4000244140625</ele>
        <time>2020-08-22T06:31:27.000Z</time>
      </trkpt>
      <trkpt lat="43.0428388528525829315185546875" lon="-1.37002534233033657073974609375">
        <ele>1007.5999755859375</ele>
        <time>2020-08-22T06:31:29.000Z</time>
      </trkpt>
      <trkpt lat="43.0428797565400600433349609375" lon="-1.37004260905086994171142578125">
        <ele>1007.4000244140625</ele>
        <time>2020-08-22T06:31:30.000Z</time>
      </trkpt>
      <trkpt lat="43.0429650843143463134765625" lon="-1.37010044418275356292724609375">
        <ele>1006.20001220703125</ele>
        <time>2020-08-22T06:31:33.000Z</time>
      </trkpt>
      <trkpt lat="43.04300422780215740203857421875" lon="-1.37013698928058147430419921875">
        <ele>1005.5999755859375</ele>
        <time>2020-08-22T06:31:35.000Z</time>
      </trkpt>
      <trkpt lat="43.04302115924656391143798828125" lon="-1.3701560162007808685302734375">
        <ele>1005.20001220703125</ele>
        <time>2020-08-22T06:31:36.000Z</time>
      </trkpt>
      <trkpt lat="43.04314076900482177734375" lon="-1.3702733628451824188232421875">
        <ele>1004.4000244140625</ele>
        <time>2020-08-22T06:31:41.000Z</time>
      </trkpt>
      <trkpt lat="43.043174631893634796142578125" lon="-1.37031217105686664581298828125">
        <ele>1004.20001220703125</ele>
        <time>2020-08-22T06:31:42.000Z</time>
      </trkpt>
      <trkpt lat="43.0433263443410396575927734375" lon="-1.37051484547555446624755859375">
        <ele>1003.20001220703125</ele>
        <time>2020-08-22T06:31:46.000Z</time>
      </trkpt>
      <trkpt lat="43.04336682893335819244384765625" lon="-1.370565891265869140625">
        <ele>1002.79998779296875</ele>
        <time>2020-08-22T06:31:47.000Z</time>
      </trkpt>
      <trkpt lat="43.04352139122784137725830078125" lon="-1.37078088708221912384033203125">
        <ele>1001.4000244140625</ele>
        <time>2020-08-22T06:31:51.000Z</time>
      </trkpt>
      <trkpt lat="43.0435550026595592498779296875" lon="-1.37084593065083026885986328125">
        <ele>1001.20001220703125</ele>
        <time>2020-08-22T06:31:52.000Z</time>
      </trkpt>
      <trkpt lat="43.043617866933345794677734375" lon="-1.37097987346351146697998046875">
        <ele>1000.20001220703125</ele>
        <time>2020-08-22T06:31:54.000Z</time>
      </trkpt>
      <trkpt lat="43.043648041784763336181640625" lon="-1.37105346657335758209228515625">
        <ele>1000</ele>
        <time>2020-08-22T06:31:55.000Z</time>
      </trkpt>
      <trkpt lat="43.0437062121927738189697265625" lon="-1.3712084479629993438720703125">
        <ele>999.4000244140625</ele>
        <time>2020-08-22T06:31:57.000Z</time>
      </trkpt>
      <trkpt lat="43.04374116472899913787841796875" lon="-1.371281705796718597412109375">
        <ele>999</ele>
        <time>2020-08-22T06:31:58.000Z</time>
      </trkpt>
      <trkpt lat="43.043858595192432403564453125" lon="-1.3715021498501300811767578125">
        <ele>998</ele>
        <time>2020-08-22T06:32:01.000Z</time>
      </trkpt>
      <trkpt lat="43.04390025325119495391845703125" lon="-1.3715859688818454742431640625">
        <ele>997.5999755859375</ele>
        <time>2020-08-22T06:32:02.000Z</time>
      </trkpt>
      <trkpt lat="43.04402162320911884307861328125" lon="-1.371824853122234344482421875">
        <ele>996.5999755859375</ele>
        <time>2020-08-22T06:32:05.000Z</time>
      </trkpt>
      <trkpt lat="43.044067807495594024658203125" lon="-1.3718981109559535980224609375">
        <ele>996.20001220703125</ele>
        <time>2020-08-22T06:32:06.000Z</time>
      </trkpt>
      <trkpt lat="43.04417182691395282745361328125" lon="-1.37203549034893512725830078125">
        <ele>995.20001220703125</ele>
        <time>2020-08-22T06:32:08.000Z</time>
      </trkpt>
      <trkpt lat="43.04422396235167980194091796875" lon="-1.372095085680484771728515625">
        <ele>994.5999755859375</ele>
        <time>2020-08-22T06:32:09.000Z</time>
      </trkpt>
      <trkpt lat="43.0442761816084384918212890625" lon="-1.37214378453791141510009765625">
        <ele>994</ele>
        <time>2020-08-22T06:32:10.000Z</time>
      </trkpt>
      <trkpt lat="43.04440316744148731231689453125" lon="-1.37219843454658985137939453125">
        <ele>993.4000244140625</ele>
        <time>2020-08-22T06:32:12.000Z</time>
      </trkpt>
      <trkpt lat="43.04453526623547077178955078125" lon="-1.372212432324886322021484375">
        <ele>992.79998779296875</ele>
        <time>2020-08-22T06:32:14.000Z</time>
      </trkpt>
      <trkpt lat="43.0446681194007396697998046875" lon="-1.372196339070796966552734375">
        <ele>992.20001220703125</ele>
        <time>2020-08-22T06:32:16.000Z</time>
      </trkpt>
      <trkpt lat="43.04473190568387508392333984375" lon="-1.372174881398677825927734375">
        <ele>991.5999755859375</ele>
        <time>2020-08-22T06:32:17.000Z</time>
      </trkpt>
      <trkpt lat="43.04485805332660675048828125" lon="-1.3721096701920032501220703125">
        <ele>990.79998779296875</ele>
        <time>2020-08-22T06:32:19.000Z</time>
      </trkpt>
      <trkpt lat="43.04491530172526836395263671875" lon="-1.37207471765577793121337890625">
        <ele>990.4000244140625</ele>
        <time>2020-08-22T06:32:20.000Z</time>
      </trkpt>
      <trkpt lat="43.04496668279170989990234375" lon="-1.3720298744738101959228515625">
        <ele>989.79998779296875</ele>
        <time>2020-08-22T06:32:21.000Z</time>
      </trkpt>
      <trkpt lat="43.04505092091858386993408203125" lon="-1.37192686088383197784423828125">
        <ele>988.79998779296875</ele>
        <time>2020-08-22T06:32:23.000Z</time>
      </trkpt>
      <trkpt lat="43.04509199224412441253662109375" lon="-1.37186902575194835662841796875">
        <ele>988.20001220703125</ele>
        <time>2020-08-22T06:32:24.000Z</time>
      </trkpt>
      <trkpt lat="43.04517514072358608245849609375" lon="-1.37174539268016815185546875">
        <ele>987.5999755859375</ele>
        <time>2020-08-22T06:32:26.000Z</time>
      </trkpt>
      <trkpt lat="43.04530799388885498046875" lon="-1.3715648464858531951904296875">
        <ele>986.5999755859375</ele>
        <time>2020-08-22T06:32:29.000Z</time>
      </trkpt>
      <trkpt lat="43.0454550124704837799072265625" lon="-1.371386982500553131103515625">
        <ele>985</ele>
        <time>2020-08-22T06:32:32.000Z</time>
      </trkpt>
      <trkpt lat="43.045581914484500885009765625" lon="-1.37124910019338130950927734375">
        <ele>983.79998779296875</ele>
        <time>2020-08-22T06:32:35.000Z</time>
      </trkpt>
      <trkpt lat="43.04561871103942394256591796875" lon="-1.371219344437122344970703125">
        <ele>983.4000244140625</ele>
        <time>2020-08-22T06:32:36.000Z</time>
      </trkpt>
      <trkpt lat="43.04571158252656459808349609375" lon="-1.37115656398236751556396484375">
        <ele>982.4000244140625</ele>
        <time>2020-08-22T06:32:39.000Z</time>
      </trkpt>
      <trkpt lat="43.045789785683155059814453125" lon="-1.3711088709533214569091796875">
        <ele>981.79998779296875</ele>
        <time>2020-08-22T06:32:42.000Z</time>
      </trkpt>
      <trkpt lat="43.04584099911153316497802734375" lon="-1.3710937835276126861572265625">
        <ele>981.4000244140625</ele>
        <time>2020-08-22T06:32:44.000Z</time>
      </trkpt>
      <trkpt lat="43.04596178233623504638671875" lon="-1.37104743160307407379150390625">
        <ele>980.4000244140625</ele>
        <time>2020-08-22T06:32:49.000Z</time>
      </trkpt>
      <trkpt lat="43.04605825804173946380615234375" lon="-1.37102253735065460205078125">
        <ele>980.20001220703125</ele>
        <time>2020-08-22T06:32:52.000Z</time>
      </trkpt>
      <trkpt lat="43.04613268934190273284912109375" lon="-1.37100300751626491546630859375">
        <ele>979.79998779296875</ele>
        <time>2020-08-22T06:32:54.000Z</time>
      </trkpt>
      <trkpt lat="43.04617376066744327545166015625" lon="-1.37099160812795162200927734375">
        <ele>979.5999755859375</ele>
        <time>2020-08-22T06:32:55.000Z</time>
      </trkpt>
      <trkpt lat="43.046263195574283599853515625" lon="-1.370974592864513397216796875">
        <ele>979</ele>
        <time>2020-08-22T06:32:57.000Z</time>
      </trkpt>
      <trkpt lat="43.04640091024339199066162109375" lon="-1.3709576614201068878173828125">
        <ele>978.4000244140625</ele>
        <time>2020-08-22T06:33:00.000Z</time>
      </trkpt>
      <trkpt lat="43.04645388387143611907958984375" lon="-1.3709576614201068878173828125">
        <ele>978.20001220703125</ele>
        <time>2020-08-22T06:33:01.000Z</time>
      </trkpt>
      <trkpt lat="43.0465081147849559783935546875" lon="-1.37096352875232696533203125">
        <ele>978</ele>
        <time>2020-08-22T06:33:02.000Z</time>
      </trkpt>
      <trkpt lat="43.04661096073687076568603515625" lon="-1.3709858246147632598876953125">
        <ele>977.4000244140625</ele>
        <time>2020-08-22T06:33:04.000Z</time>
      </trkpt>
      <trkpt lat="43.04666049778461456298828125" lon="-1.371002085506916046142578125">
        <ele>977.20001220703125</ele>
        <time>2020-08-22T06:33:05.000Z</time>
      </trkpt>
      <trkpt lat="43.046711124479770660400390625" lon="-1.37101910077035427093505859375">
        <ele>976.79998779296875</ele>
        <time>2020-08-22T06:33:06.000Z</time>
      </trkpt>
      <trkpt lat="43.0467625893652439117431640625" lon="-1.3710431568324565887451171875">
        <ele>976.5999755859375</ele>
        <time>2020-08-22T06:33:07.000Z</time>
      </trkpt>
      <trkpt lat="43.04691337980329990386962890625" lon="-1.37112605385482311248779296875">
        <ele>975.79998779296875</ele>
        <time>2020-08-22T06:33:10.000Z</time>
      </trkpt>
      <trkpt lat="43.047008179128170013427734375" lon="-1.37117232196033000946044921875">
        <ele>975.20001220703125</ele>
        <time>2020-08-22T06:33:12.000Z</time>
      </trkpt>
      <trkpt lat="43.04709593765437602996826171875" lon="-1.37117617763578891754150390625">
        <ele>974.79998779296875</ele>
        <time>2020-08-22T06:33:14.000Z</time>
      </trkpt>
      <trkpt lat="43.0471334047615528106689453125" lon="-1.3711551390588283538818359375">
        <ele>974.79998779296875</ele>
        <time>2020-08-22T06:33:15.000Z</time>
      </trkpt>
      <trkpt lat="43.04722602479159832000732421875" lon="-1.37106050737202167510986328125">
        <ele>974.4000244140625</ele>
        <time>2020-08-22T06:33:18.000Z</time>
      </trkpt>
      <trkpt lat="43.04735410027205944061279296875" lon="-1.3709373772144317626953125">
        <ele>974.20001220703125</ele>
        <time>2020-08-22T06:33:22.000Z</time>
      </trkpt>
      <trkpt lat="43.0474673397839069366455078125" lon="-1.37084643356502056121826171875">
        <ele>973.79998779296875</ele>
        <time>2020-08-22T06:33:25.000Z</time>
      </trkpt>
      <trkpt lat="43.04754202254116535186767578125" lon="-1.37077686376869678497314453125">
        <ele>973.4000244140625</ele>
        <time>2020-08-22T06:33:27.000Z</time>
      </trkpt>
      <trkpt lat="43.04765836335718631744384765625" lon="-1.37062045745551586151123046875">
        <ele>972.4000244140625</ele>
        <time>2020-08-22T06:33:30.000Z</time>
      </trkpt>
      <trkpt lat="43.047698847949504852294921875" lon="-1.37056664563715457916259765625">
        <ele>972</ele>
        <time>2020-08-22T06:33:31.000Z</time>
      </trkpt>
      <trkpt lat="43.04774318821728229522705078125" lon="-1.37051333673298358917236328125">
        <ele>971.5999755859375</ele>
        <time>2020-08-22T06:33:32.000Z</time>
      </trkpt>
      <trkpt lat="43.0478368140757083892822265625" lon="-1.3704000972211360931396484375">
        <ele>970.5999755859375</ele>
        <time>2020-08-22T06:33:34.000Z</time>
      </trkpt>
      <trkpt lat="43.047881238162517547607421875" lon="-1.37034653685986995697021484375">
        <ele>970</ele>
        <time>2020-08-22T06:33:35.000Z</time>
      </trkpt>
      <trkpt lat="43.04792381823062896728515625" lon="-1.37029188685119152069091796875">
        <ele>969.4000244140625</ele>
        <time>2020-08-22T06:33:36.000Z</time>
      </trkpt>
      <trkpt lat="43.04804719984531402587890625" lon="-1.3701144419610500335693359375">
        <ele>968.20001220703125</ele>
        <time>2020-08-22T06:33:39.000Z</time>
      </trkpt>
      <trkpt lat="43.0481187812983989715576171875" lon="-1.369982175529003143310546875">
        <ele>967.20001220703125</ele>
        <time>2020-08-22T06:33:41.000Z</time>
      </trkpt>
      <trkpt lat="43.04815205745398998260498046875" lon="-1.369913779199123382568359375">
        <ele>966.79998779296875</ele>
        <time>2020-08-22T06:33:42.000Z</time>
      </trkpt>
      <trkpt lat="43.04821827448904514312744140625" lon="-1.3697805069386959075927734375">
        <ele>965.5999755859375</ele>
        <time>2020-08-22T06:33:44.000Z</time>
      </trkpt>
      <trkpt lat="43.04825582541525363922119140625" lon="-1.36971655301749706268310546875">
        <ele>964.79998779296875</ele>
        <time>2020-08-22T06:33:45.000Z</time>
      </trkpt>
      <trkpt lat="43.0482968129217624664306640625" lon="-1.36965737678110599517822265625">
        <ele>964.20001220703125</ele>
        <time>2020-08-22T06:33:46.000Z</time>
      </trkpt>
      <trkpt lat="43.048341237008571624755859375" lon="-1.36960222385823726654052734375">
        <ele>963.4000244140625</ele>
        <time>2020-08-22T06:33:47.000Z</time>
      </trkpt>
      <trkpt lat="43.04839060641825199127197265625" lon="-1.36955000460147857666015625">
        <ele>962.79998779296875</ele>
        <time>2020-08-22T06:33:48.000Z</time>
      </trkpt>
      <trkpt lat="43.048493452370166778564453125" lon="-1.3694541156291961669921875">
        <ele>961.20001220703125</ele>
        <time>2020-08-22T06:33:50.000Z</time>
      </trkpt>
      <trkpt lat="43.04860501550137996673583984375" lon="-1.36936618946492671966552734375">
        <ele>959.4000244140625</ele>
        <time>2020-08-22T06:33:52.000Z</time>
      </trkpt>
      <trkpt lat="43.048662431538105010986328125" lon="-1.36932662688195705413818359375">
        <ele>958.5999755859375</ele>
        <time>2020-08-22T06:33:53.000Z</time>
      </trkpt>
      <trkpt lat="43.048719428479671478271484375" lon="-1.3692879863083362579345703125">
        <ele>958</ele>
        <time>2020-08-22T06:33:54.000Z</time>
      </trkpt>
      <trkpt lat="43.04883199743926525115966796875" lon="-1.3692162372171878814697265625">
        <ele>956.79998779296875</ele>
        <time>2020-08-22T06:33:56.000Z</time>
      </trkpt>
      <trkpt lat="43.04894364438951015472412109375" lon="-1.369158737361431121826171875">
        <ele>955.4000244140625</ele>
        <time>2020-08-22T06:33:58.000Z</time>
      </trkpt>
      <trkpt lat="43.04899762384593486785888671875" lon="-1.369138620793819427490234375">
        <ele>954.4000244140625</ele>
        <time>2020-08-22T06:33:59.000Z</time>
      </trkpt>
      <trkpt lat="43.04905042983591556549072265625" lon="-1.3691216893494129180908203125">
        <ele>953.5999755859375</ele>
        <time>2020-08-22T06:34:00.000Z</time>
      </trkpt>
      <trkpt lat="43.04909736849367618560791015625" lon="-1.3691126368939876556396484375">
        <ele>953</ele>
        <time>2020-08-22T06:34:01.000Z</time>
      </trkpt>
      <trkpt lat="43.04914279840886592864990234375" lon="-1.3691054284572601318359375">
        <ele>952.5999755859375</ele>
        <time>2020-08-22T06:34:02.000Z</time>
      </trkpt>
      <trkpt lat="43.04919023998081684112548828125" lon="-1.36909947730600833892822265625">
        <ele>952.20001220703125</ele>
        <time>2020-08-22T06:34:03.000Z</time>
      </trkpt>
      <trkpt lat="43.049237430095672607421875" lon="-1.36909076012670993804931640625">
        <ele>951.4000244140625</ele>
        <time>2020-08-22T06:34:04.000Z</time>
      </trkpt>
      <trkpt lat="43.04933524690568447113037109375" lon="-1.369077600538730621337890625">
        <ele>950.20001220703125</ele>
        <time>2020-08-22T06:34:06.000Z</time>
      </trkpt>
      <trkpt lat="43.04944337345659732818603515625" lon="-1.36907483451068401336669921875">
        <ele>949.20001220703125</ele>
        <time>2020-08-22T06:34:08.000Z</time>
      </trkpt>
      <trkpt lat="43.0495527572929859161376953125" lon="-1.36908539570868015289306640625">
        <ele>947.79998779296875</ele>
        <time>2020-08-22T06:34:10.000Z</time>
      </trkpt>
      <trkpt lat="43.04960765875875949859619140625" lon="-1.36909545399248600006103515625">
        <ele>947</ele>
        <time>2020-08-22T06:34:11.000Z</time>
      </trkpt>
      <trkpt lat="43.04966214112937450408935546875" lon="-1.369104422628879547119140625">
        <ele>946.4000244140625</ele>
        <time>2020-08-22T06:34:12.000Z</time>
      </trkpt>
      <trkpt lat="43.04977227933704853057861328125" lon="-1.36910383589565753936767578125">
        <ele>945</ele>
        <time>2020-08-22T06:34:14.000Z</time>
      </trkpt>
      <trkpt lat="43.0498273484408855438232421875" lon="-1.369096376001834869384765625">
        <ele>943.79998779296875</ele>
        <time>2020-08-22T06:34:15.000Z</time>
      </trkpt>
      <trkpt lat="43.0498878657817840576171875" lon="-1.3690915144979953765869140625">
        <ele>943.20001220703125</ele>
        <time>2020-08-22T06:34:16.000Z</time>
      </trkpt>
      <trkpt lat="43.04994947277009487152099609375" lon="-1.36908371932804584503173828125">
        <ele>942.20001220703125</ele>
        <time>2020-08-22T06:34:17.000Z</time>
      </trkpt>
      <trkpt lat="43.0500067211687564849853515625" lon="-1.3690700568258762359619140625">
        <ele>941.20001220703125</ele>
        <time>2020-08-22T06:34:18.000Z</time>
      </trkpt>
      <trkpt lat="43.05012817494571208953857421875" lon="-1.36904440820217132568359375">
        <ele>939.79998779296875</ele>
        <time>2020-08-22T06:34:20.000Z</time>
      </trkpt>
      <trkpt lat="43.05025390349328517913818359375" lon="-1.36902018450200557708740234375">
        <ele>938.79998779296875</ele>
        <time>2020-08-22T06:34:22.000Z</time>
      </trkpt>
      <trkpt lat="43.05037862621247768402099609375" lon="-1.36900425888597965240478515625">
        <ele>937.20001220703125</ele>
        <time>2020-08-22T06:34:24.000Z</time>
      </trkpt>
      <trkpt lat="43.05050251074135303497314453125" lon="-1.36898900382220745086669921875">
        <ele>935.79998779296875</ele>
        <time>2020-08-22T06:34:26.000Z</time>
      </trkpt>
      <trkpt lat="43.0506353639066219329833984375" lon="-1.36898565106093883514404296875">
        <ele>934.5999755859375</ele>
        <time>2020-08-22T06:34:28.000Z</time>
      </trkpt>
      <trkpt lat="43.05070401169359683990478515625" lon="-1.3689848966896533966064453125">
        <ele>933.79998779296875</ele>
        <time>2020-08-22T06:34:29.000Z</time>
      </trkpt>
      <trkpt lat="43.050770647823810577392578125" lon="-1.36898078955709934234619140625">
        <ele>933.20001220703125</ele>
        <time>2020-08-22T06:34:30.000Z</time>
      </trkpt>
      <trkpt lat="43.05083929561078548431396484375" lon="-1.3689761795103549957275390625">
        <ele>932.4000244140625</ele>
        <time>2020-08-22T06:34:31.000Z</time>
      </trkpt>
      <trkpt lat="43.05090718902647495269775390625" lon="-1.368978358805179595947265625">
        <ele>931.4000244140625</ele>
        <time>2020-08-22T06:34:32.000Z</time>
      </trkpt>
      <trkpt lat="43.05103509686887264251708984375" lon="-1.36899612843990325927734375">
        <ele>930.20001220703125</ele>
        <time>2020-08-22T06:34:34.000Z</time>
      </trkpt>
      <trkpt lat="43.0510962009429931640625" lon="-1.3690056838095188140869140625">
        <ele>929.5999755859375</ele>
        <time>2020-08-22T06:34:35.000Z</time>
      </trkpt>
      <trkpt lat="43.051148839294910430908203125" lon="-1.36901549063622951507568359375">
        <ele>928.79998779296875</ele>
        <time>2020-08-22T06:34:36.000Z</time>
      </trkpt>
      <trkpt lat="43.0512531101703643798828125" lon="-1.36902588419616222381591796875">
        <ele>927.5999755859375</ele>
        <time>2020-08-22T06:34:38.000Z</time>
      </trkpt>
      <trkpt lat="43.05130767636001110076904296875" lon="-1.36901632882654666900634765625">
        <ele>926.5999755859375</ele>
        <time>2020-08-22T06:34:39.000Z</time>
      </trkpt>
      <trkpt lat="43.05136634968221187591552734375" lon="-1.3690060190856456756591796875">
        <ele>925.4000244140625</ele>
        <time>2020-08-22T06:34:40.000Z</time>
      </trkpt>
      <trkpt lat="43.05147497914731502532958984375" lon="-1.368980705738067626953125">
        <ele>924</ele>
        <time>2020-08-22T06:34:42.000Z</time>
      </trkpt>
      <trkpt lat="43.0515251867473125457763671875" lon="-1.36897358112037181854248046875">
        <ele>923.20001220703125</ele>
        <time>2020-08-22T06:34:43.000Z</time>
      </trkpt>
      <trkpt lat="43.05157556198537349700927734375" lon="-1.36897089891135692596435546875">
        <ele>922.79998779296875</ele>
        <time>2020-08-22T06:34:44.000Z</time>
      </trkpt>
      <trkpt lat="43.0517156235873699188232421875" lon="-1.3689681328833103179931640625">
        <ele>921.4000244140625</ele>
        <time>2020-08-22T06:34:47.000Z</time>
      </trkpt>
      <trkpt lat="43.0518651567399501800537109375" lon="-1.36894457973539829254150390625">
        <ele>920.5999755859375</ele>
        <time>2020-08-22T06:34:51.000Z</time>
      </trkpt>
      <trkpt lat="43.05197521112859249114990234375" lon="-1.36887970380485057830810546875">
        <ele>920.20001220703125</ele>
        <time>2020-08-22T06:34:54.000Z</time>
      </trkpt>
      <trkpt lat="43.051985017955303192138671875" lon="-1.36880661360919475555419921875">
        <ele>919.4000244140625</ele>
        <time>2020-08-22T06:34:56.000Z</time>
      </trkpt>
      <trkpt lat="43.05196833796799182891845703125" lon="-1.3687713257968425750732421875">
        <ele>919</ele>
        <time>2020-08-22T06:34:57.000Z</time>
      </trkpt>
      <trkpt lat="43.051849566400051116943359375" lon="-1.36874274350702762603759765625">
        <ele>918.5999755859375</ele>
        <time>2020-08-22T06:35:01.000Z</time>
      </trkpt>
      <trkpt lat="43.05181025527417659759521484375" lon="-1.36874928139150142669677734375">
        <ele>918.4000244140625</ele>
        <time>2020-08-22T06:35:02.000Z</time>
      </trkpt>
      <trkpt lat="43.05172543041408061981201171875" lon="-1.36876277625560760498046875">
        <ele>918.4000244140625</ele>
        <time>2020-08-22T06:35:04.000Z</time>
      </trkpt>
      <trkpt lat="43.05160841904580593109130859375" lon="-1.3687662966549396514892578125">
        <ele>918</ele>
        <time>2020-08-22T06:35:07.000Z</time>
      </trkpt>
      <trkpt lat="43.0515489913523197174072265625" lon="-1.36876151897013187408447265625">
        <ele>917.5999755859375</ele>
        <time>2020-08-22T06:35:09.000Z</time>
      </trkpt>
      <trkpt lat="43.0514789186418056488037109375" lon="-1.36873771436512470245361328125">
        <ele>917.20001220703125</ele>
        <time>2020-08-22T06:35:11.000Z</time>
      </trkpt>
      <trkpt lat="43.05130801163613796234130859375" lon="-1.3686449266970157623291015625">
        <ele>916.20001220703125</ele>
        <time>2020-08-22T06:35:16.000Z</time>
      </trkpt>
      <trkpt lat="43.05127079598605632781982421875" lon="-1.3686227984726428985595703125">
        <ele>916</ele>
        <time>2020-08-22T06:35:17.000Z</time>
      </trkpt>
      <trkpt lat="43.05119317956268787384033203125" lon="-1.36858130805194377899169921875">
        <ele>915.79998779296875</ele>
        <time>2020-08-22T06:35:19.000Z</time>
      </trkpt>
      <trkpt lat="43.05107885040342807769775390625" lon="-1.36855264194309711456298828125">
        <ele>915.4000244140625</ele>
        <time>2020-08-22T06:35:22.000Z</time>
      </trkpt>
      <trkpt lat="43.05104197002947330474853515625" lon="-1.36853671632707118988037109375">
        <ele>915.20001220703125</ele>
        <time>2020-08-22T06:35:23.000Z</time>
      </trkpt>
      <trkpt lat="43.0509619228541851043701171875" lon="-1.36850033886730670928955078125">
        <ele>914.5999755859375</ele>
        <time>2020-08-22T06:35:25.000Z</time>
      </trkpt>
      <trkpt lat="43.0508848093450069427490234375" lon="-1.3684682361781597137451171875">
        <ele>914.20001220703125</ele>
        <time>2020-08-22T06:35:27.000Z</time>
      </trkpt>
      <trkpt lat="43.0508244596421718597412109375" lon="-1.36843688786029815673828125">
        <ele>914.20001220703125</ele>
        <time>2020-08-22T06:35:29.000Z</time>
      </trkpt>
      <trkpt lat="43.0506712384521961212158203125" lon="-1.36836119927465915679931640625">
        <ele>913.79998779296875</ele>
        <time>2020-08-22T06:35:33.000Z</time>
      </trkpt>
      <trkpt lat="43.050639890134334564208984375" lon="-1.368331611156463623046875">
        <ele>913.4000244140625</ele>
        <time>2020-08-22T06:35:34.000Z</time>
      </trkpt>
      <trkpt lat="43.05060627870261669158935546875" lon="-1.36830420233309268951416015625">
        <ele>913</ele>
        <time>2020-08-22T06:35:35.000Z</time>
      </trkpt>
      <trkpt lat="43.05048893205821514129638671875" lon="-1.36822901666164398193359375">
        <ele>912.5999755859375</ele>
        <time>2020-08-22T06:35:38.000Z</time>
      </trkpt>
      <trkpt lat="43.05027921684086322784423828125" lon="-1.36807068251073360443115234375">
        <ele>912</ele>
        <time>2020-08-22T06:35:43.000Z</time>
      </trkpt>
      <trkpt lat="43.0501931346952915191650390625" lon="-1.368017457425594329833984375">
        <ele>911.5999755859375</ele>
        <time>2020-08-22T06:35:45.000Z</time>
      </trkpt>
      <trkpt lat="43.05000646971166133880615234375" lon="-1.36787454597651958465576171875">
        <ele>911</ele>
        <time>2020-08-22T06:35:50.000Z</time>
      </trkpt>
      <trkpt lat="43.04987847805023193359375" lon="-1.36779257096350193023681640625">
        <ele>909.79998779296875</ele>
        <time>2020-08-22T06:35:53.000Z</time>
      </trkpt>
      <trkpt lat="43.04965292103588581085205078125" lon="-1.36766977608203887939453125">
        <ele>909.4000244140625</ele>
        <time>2020-08-22T06:35:58.000Z</time>
      </trkpt>
      <trkpt lat="43.049611933529376983642578125" lon="-1.36765879578888416290283203125">
        <ele>909.20001220703125</ele>
        <time>2020-08-22T06:35:59.000Z</time>
      </trkpt>
      <trkpt lat="43.0494384281337261199951171875" lon="-1.36757246218621730804443359375">
        <ele>909.20001220703125</ele>
        <time>2020-08-22T06:36:03.000Z</time>
      </trkpt>
      <trkpt lat="43.04930984973907470703125" lon="-1.36749903671443462371826171875">
        <ele>908.5999755859375</ele>
        <time>2020-08-22T06:36:06.000Z</time>
      </trkpt>
      <trkpt lat="43.049226701259613037109375" lon="-1.36744841001927852630615234375">
        <ele>908</ele>
        <time>2020-08-22T06:36:08.000Z</time>
      </trkpt>
      <trkpt lat="43.04918219335377216339111328125" lon="-1.36742041446268558502197265625">
        <ele>907.79998779296875</ele>
        <time>2020-08-22T06:36:09.000Z</time>
      </trkpt>
      <trkpt lat="43.04909460246562957763671875" lon="-1.36736333370208740234375">
        <ele>907.4000244140625</ele>
        <time>2020-08-22T06:36:11.000Z</time>
      </trkpt>
      <trkpt lat="43.04901145398616790771484375" lon="-1.36731513775885105133056640625">
        <ele>907</ele>
        <time>2020-08-22T06:36:13.000Z</time>
      </trkpt>
      <trkpt lat="43.04892520420253276824951171875" lon="-1.367255710065364837646484375">
        <ele>906.79998779296875</ele>
        <time>2020-08-22T06:36:15.000Z</time>
      </trkpt>
      <trkpt lat="43.048837445676326751708984375" lon="-1.36719611473381519317626953125">
        <ele>906.4000244140625</ele>
        <time>2020-08-22T06:36:17.000Z</time>
      </trkpt>
      <trkpt lat="43.048791177570819854736328125" lon="-1.3671757467091083526611328125">
        <ele>906.4000244140625</ele>
        <time>2020-08-22T06:36:18.000Z</time>
      </trkpt>
      <trkpt lat="43.04868833161890506744384765625" lon="-1.3671485893428325653076171875">
        <ele>906.20001220703125</ele>
        <time>2020-08-22T06:36:20.000Z</time>
      </trkpt>
      <trkpt lat="43.04853728972375392913818359375" lon="-1.36715386994183063507080078125">
        <ele>905.5999755859375</ele>
        <time>2020-08-22T06:36:23.000Z</time>
      </trkpt>
      <trkpt lat="43.04849068634212017059326171875" lon="-1.3671656884253025054931640625">
        <ele>905.4000244140625</ele>
        <time>2020-08-22T06:36:24.000Z</time>
      </trkpt>
      <trkpt lat="43.0484443344175815582275390625" lon="-1.36717851273715496063232421875">
        <ele>905.4000244140625</ele>
        <time>2020-08-22T06:36:25.000Z</time>
      </trkpt>
      <trkpt lat="43.0481764487922191619873046875" lon="-1.36725126765668392181396484375">
        <ele>904.20001220703125</ele>
        <time>2020-08-22T06:36:31.000Z</time>
      </trkpt>
      <trkpt lat="43.047978468239307403564453125" lon="-1.36726534925401210784912109375">
        <ele>902.79998779296875</ele>
        <time>2020-08-22T06:36:35.000Z</time>
      </trkpt>
      <trkpt lat="43.04787713102996349334716796875" lon="-1.367269791662693023681640625">
        <ele>902.5999755859375</ele>
        <time>2020-08-22T06:36:37.000Z</time>
      </trkpt>
      <trkpt lat="43.04773514159023761749267578125" lon="-1.367302648723125457763671875">
        <ele>902</ele>
        <time>2020-08-22T06:36:40.000Z</time>
      </trkpt>
      <trkpt lat="43.04760706610977649688720703125" lon="-1.36737498454749584197998046875">
        <ele>901.79998779296875</ele>
        <time>2020-08-22T06:36:43.000Z</time>
      </trkpt>
      <trkpt lat="43.047417886555194854736328125" lon="-1.36744715273380279541015625">
        <ele>900.79998779296875</ele>
        <time>2020-08-22T06:36:47.000Z</time>
      </trkpt>
      <trkpt lat="43.04736784659326076507568359375" lon="-1.3674557022750377655029296875">
        <ele>900.4000244140625</ele>
        <time>2020-08-22T06:36:48.000Z</time>
      </trkpt>
      <trkpt lat="43.04732006974518299102783203125" lon="-1.3674583844840526580810546875">
        <ele>900.20001220703125</ele>
        <time>2020-08-22T06:36:49.000Z</time>
      </trkpt>
      <trkpt lat="43.047140948474407196044921875" lon="-1.36738546192646026611328125">
        <ele>899.79998779296875</ele>
        <time>2020-08-22T06:36:53.000Z</time>
      </trkpt>
      <trkpt lat="43.04694539867341518402099609375" lon="-1.36726467870175838470458984375">
        <ele>899.5999755859375</ele>
        <time>2020-08-22T06:36:58.000Z</time>
      </trkpt>
      <trkpt lat="43.04685940034687519073486328125" lon="-1.36727104894816875457763671875">
        <ele>899.4000244140625</ele>
        <time>2020-08-22T06:37:00.000Z</time>
      </trkpt>
      <trkpt lat="43.04677172563970088958740234375" lon="-1.36729619465768337249755859375">
        <ele>898.4000244140625</ele>
        <time>2020-08-22T06:37:02.000Z</time>
      </trkpt>
      <trkpt lat="43.04672746919095516204833984375" lon="-1.3673150539398193359375">
        <ele>898</ele>
        <time>2020-08-22T06:37:03.000Z</time>
      </trkpt>
      <trkpt lat="43.04668203927576541900634765625" lon="-1.36734078638255596160888671875">
        <ele>897.79998779296875</ele>
        <time>2020-08-22T06:37:04.000Z</time>
      </trkpt>
      <trkpt lat="43.0465887486934661865234375" lon="-1.36741035617887973785400390625">
        <ele>897.5999755859375</ele>
        <time>2020-08-22T06:37:06.000Z</time>
      </trkpt>
      <trkpt lat="43.04654440842568874359130859375" lon="-1.3674478232860565185546875">
        <ele>897.4000244140625</ele>
        <time>2020-08-22T06:37:07.000Z</time>
      </trkpt>
      <trkpt lat="43.04637526161968708038330078125" lon="-1.3676049001514911651611328125">
        <ele>897</ele>
        <time>2020-08-22T06:37:11.000Z</time>
      </trkpt>
      <trkpt lat="43.04633284918963909149169921875" lon="-1.36763901449739933013916015625">
        <ele>896.5999755859375</ele>
        <time>2020-08-22T06:37:12.000Z</time>
      </trkpt>
      <trkpt lat="43.04629110731184482574462890625" lon="-1.36766332201659679412841796875">
        <ele>896.4000244140625</ele>
        <time>2020-08-22T06:37:13.000Z</time>
      </trkpt>
      <trkpt lat="43.046167306602001190185546875" lon="-1.36769752018153667449951171875">
        <ele>895.5999755859375</ele>
        <time>2020-08-22T06:37:16.000Z</time>
      </trkpt>
      <trkpt lat="43.0461235530674457550048828125" lon="-1.36768343858420848846435546875">
        <ele>895.20001220703125</ele>
        <time>2020-08-22T06:37:17.000Z</time>
      </trkpt>
      <trkpt lat="43.04596555419266223907470703125" lon="-1.36759911663830280303955078125">
        <ele>895</ele>
        <time>2020-08-22T06:37:21.000Z</time>
      </trkpt>
      <trkpt lat="43.0458285100758075714111328125" lon="-1.36762141250073909759521484375">
        <ele>894.5999755859375</ele>
        <time>2020-08-22T06:37:24.000Z</time>
      </trkpt>
      <trkpt lat="43.0457785539329051971435546875" lon="-1.367646642029285430908203125">
        <ele>894.4000244140625</ele>
        <time>2020-08-22T06:37:25.000Z</time>
      </trkpt>
      <trkpt lat="43.045732118189334869384765625" lon="-1.3676753081381320953369140625">
        <ele>894.20001220703125</ele>
        <time>2020-08-22T06:37:26.000Z</time>
      </trkpt>
      <trkpt lat="43.04564234800636768341064453125" lon="-1.36774697341024875640869140625">
        <ele>893.5999755859375</ele>
        <time>2020-08-22T06:37:28.000Z</time>
      </trkpt>
      <trkpt lat="43.04560127668082714080810546875" lon="-1.36779122985899448394775390625">
        <ele>893.20001220703125</ele>
        <time>2020-08-22T06:37:29.000Z</time>
      </trkpt>
      <trkpt lat="43.04556322284042835235595703125" lon="-1.36783380992710590362548828125">
        <ele>892.79998779296875</ele>
        <time>2020-08-22T06:37:30.000Z</time>
      </trkpt>
      <trkpt lat="43.0454945750534534454345703125" lon="-1.36791494674980640411376953125">
        <ele>892.20001220703125</ele>
        <time>2020-08-22T06:37:32.000Z</time>
      </trkpt>
      <trkpt lat="43.0454519949853420257568359375" lon="-1.3679428584873676300048828125">
        <ele>892</ele>
        <time>2020-08-22T06:37:33.000Z</time>
      </trkpt>
      <trkpt lat="43.045408912003040313720703125" lon="-1.36795400641858577728271484375">
        <ele>891.79998779296875</ele>
        <time>2020-08-22T06:37:34.000Z</time>
      </trkpt>
      <trkpt lat="43.0452610552310943603515625" lon="-1.3678771443665027618408203125">
        <ele>891.4000244140625</ele>
        <time>2020-08-22T06:37:38.000Z</time>
      </trkpt>
      <trkpt lat="43.0451569519937038421630859375" lon="-1.3677450455725193023681640625">
        <ele>891.20001220703125</ele>
        <time>2020-08-22T06:37:42.000Z</time>
      </trkpt>
      <trkpt lat="43.04512753151357173919677734375" lon="-1.36770942248404026031494140625">
        <ele>891</ele>
        <time>2020-08-22T06:37:43.000Z</time>
      </trkpt>
      <trkpt lat="43.0450969375669956207275390625" lon="-1.3676739670336246490478515625">
        <ele>891</ele>
        <time>2020-08-22T06:37:44.000Z</time>
      </trkpt>
      <trkpt lat="43.04495302028954029083251953125" lon="-1.36746324598789215087890625">
        <ele>890.20001220703125</ele>
        <time>2020-08-22T06:37:49.000Z</time>
      </trkpt>
      <trkpt lat="43.0449262820184230804443359375" lon="-1.36741069145500659942626953125">
        <ele>889.79998779296875</ele>
        <time>2020-08-22T06:37:50.000Z</time>
      </trkpt>
      <trkpt lat="43.04490289650857448577880859375" lon="-1.36735553853213787078857421875">
        <ele>889.5999755859375</ele>
        <time>2020-08-22T06:37:51.000Z</time>
      </trkpt>
      <trkpt lat="43.04484137333929538726806640625" lon="-1.36716828681528568267822265625">
        <ele>889</ele>
        <time>2020-08-22T06:37:54.000Z</time>
      </trkpt>
      <trkpt lat="43.0448273755609989166259765625" lon="-1.36710391379892826080322265625">
        <ele>888.79998779296875</ele>
        <time>2020-08-22T06:37:55.000Z</time>
      </trkpt>
      <trkpt lat="43.0448223464190959930419921875" lon="-1.36686754412949085235595703125">
        <ele>887.5999755859375</ele>
        <time>2020-08-22T06:37:59.000Z</time>
      </trkpt>
      <trkpt lat="43.044833242893218994140625" lon="-1.36681272648274898529052734375">
        <ele>887.4000244140625</ele>
        <time>2020-08-22T06:38:00.000Z</time>
      </trkpt>
      <trkpt lat="43.04483986459672451019287109375" lon="-1.36660586111247539520263671875">
        <ele>887.4000244140625</ele>
        <time>2020-08-22T06:38:04.000Z</time>
      </trkpt>
      <trkpt lat="43.04477951489388942718505859375" lon="-1.366437971591949462890625">
        <ele>886.5999755859375</ele>
        <time>2020-08-22T06:38:08.000Z</time>
      </trkpt>
      <trkpt lat="43.04470642469823360443115234375" lon="-1.36622549034655094146728515625">
        <ele>886.4000244140625</ele>
        <time>2020-08-22T06:38:13.000Z</time>
      </trkpt>
      <trkpt lat="43.044646494090557098388671875" lon="-1.366003789007663726806640625">
        <ele>885.5999755859375</ele>
        <time>2020-08-22T06:38:17.000Z</time>
      </trkpt>
      <trkpt lat="43.04462813772261142730712890625" lon="-1.3659452833235263824462890625">
        <ele>885.4000244140625</ele>
        <time>2020-08-22T06:38:18.000Z</time>
      </trkpt>
      <trkpt lat="43.0445534549653530120849609375" lon="-1.36579616926610469818115234375">
        <ele>884.79998779296875</ele>
        <time>2020-08-22T06:38:21.000Z</time>
      </trkpt>
      <trkpt lat="43.044439963996410369873046875" lon="-1.365630961954593658447265625">
        <ele>884.20001220703125</ele>
        <time>2020-08-22T06:38:25.000Z</time>
      </trkpt>
      <trkpt lat="43.04441154934465885162353515625" lon="-1.3655945844948291778564453125">
        <ele>884</ele>
        <time>2020-08-22T06:38:26.000Z</time>
      </trkpt>
      <trkpt lat="43.04419412277638912200927734375" lon="-1.365349330008029937744140625">
        <ele>883.5999755859375</ele>
        <time>2020-08-22T06:38:33.000Z</time>
      </trkpt>
      <trkpt lat="43.04405464790761470794677734375" lon="-1.36525503359735012054443359375">
        <ele>883.20001220703125</ele>
        <time>2020-08-22T06:38:37.000Z</time>
      </trkpt>
      <trkpt lat="43.044018186628818511962890625" lon="-1.365237347781658172607421875">
        <ele>882.79998779296875</ele>
        <time>2020-08-22T06:38:38.000Z</time>
      </trkpt>
      <trkpt lat="43.04393109865486621856689453125" lon="-1.365208514034748077392578125">
        <ele>882.4000244140625</ele>
        <time>2020-08-22T06:38:40.000Z</time>
      </trkpt>
      <trkpt lat="43.04383814334869384765625" lon="-1.365197785198688507080078125">
        <ele>882.20001220703125</ele>
        <time>2020-08-22T06:38:42.000Z</time>
      </trkpt>
      <trkpt lat="43.04379112087190151214599609375" lon="-1.36520423926413059234619140625">
        <ele>882</ele>
        <time>2020-08-22T06:38:43.000Z</time>
      </trkpt>
      <trkpt lat="43.04374627768993377685546875" lon="-1.36521446518599987030029296875">
        <ele>881.79998779296875</ele>
        <time>2020-08-22T06:38:44.000Z</time>
      </trkpt>
      <trkpt lat="43.04354620166122913360595703125" lon="-1.3653337396681308746337890625">
        <ele>881</ele>
        <time>2020-08-22T06:38:49.000Z</time>
      </trkpt>
      <trkpt lat="43.043509237468242645263671875" lon="-1.3653515093028545379638671875">
        <ele>880.79998779296875</ele>
        <time>2020-08-22T06:38:50.000Z</time>
      </trkpt>
      <trkpt lat="43.04338845424354076385498046875" lon="-1.365398280322551727294921875">
        <ele>880.20001220703125</ele>
        <time>2020-08-22T06:38:53.000Z</time>
      </trkpt>
      <trkpt lat="43.04328049533069133758544921875" lon="-1.3653494976460933685302734375">
        <ele>880.20001220703125</ele>
        <time>2020-08-22T06:38:56.000Z</time>
      </trkpt>
      <trkpt lat="43.04319265298545360565185546875" lon="-1.36519049294292926788330078125">
        <ele>879.79998779296875</ele>
        <time>2020-08-22T06:39:00.000Z</time>
      </trkpt>
      <trkpt lat="43.0430453829467296600341796875" lon="-1.365013383328914642333984375">
        <ele>878.79998779296875</ele>
        <time>2020-08-22T06:39:05.000Z</time>
      </trkpt>
      <trkpt lat="43.04301143623888492584228515625" lon="-1.3649882376194000244140625">
        <ele>878.5999755859375</ele>
        <time>2020-08-22T06:39:06.000Z</time>
      </trkpt>
      <trkpt lat="43.0428536050021648406982421875" lon="-1.3648502714931964874267578125">
        <ele>878.20001220703125</ele>
        <time>2020-08-22T06:39:11.000Z</time>
      </trkpt>
      <trkpt lat="43.04272913374006748199462890625" lon="-1.36468238197267055511474609375">
        <ele>878</ele>
        <time>2020-08-22T06:39:16.000Z</time>
      </trkpt>
      <trkpt lat="43.0426772497594356536865234375" lon="-1.36460543610155582427978515625">
        <ele>877.5999755859375</ele>
        <time>2020-08-22T06:39:18.000Z</time>
      </trkpt>
      <trkpt lat="43.042643554508686065673828125" lon="-1.36452622711658477783203125">
        <ele>877.20001220703125</ele>
        <time>2020-08-22T06:39:20.000Z</time>
      </trkpt>
      <trkpt lat="43.042581193149089813232421875" lon="-1.36437426321208477020263671875">
        <ele>876.4000244140625</ele>
        <time>2020-08-22T06:39:23.000Z</time>
      </trkpt>
      <trkpt lat="43.042567782104015350341796875" lon="-1.36431642808020114898681640625">
        <ele>876.20001220703125</ele>
        <time>2020-08-22T06:39:24.000Z</time>
      </trkpt>
      <trkpt lat="43.04256048984825611114501953125" lon="-1.36425800621509552001953125">
        <ele>876</ele>
        <time>2020-08-22T06:39:25.000Z</time>
      </trkpt>
      <trkpt lat="43.0425749905407428741455078125" lon="-1.3639748655259609222412109375">
        <ele>875.4000244140625</ele>
        <time>2020-08-22T06:39:30.000Z</time>
      </trkpt>
      <trkpt lat="43.04257725365459918975830078125" lon="-1.36391242034733295440673828125">
        <ele>875.4000244140625</ele>
        <time>2020-08-22T06:39:31.000Z</time>
      </trkpt>
      <trkpt lat="43.04252184927463531494140625" lon="-1.363672278821468353271484375">
        <ele>874.5999755859375</ele>
        <time>2020-08-22T06:39:35.000Z</time>
      </trkpt>
      <trkpt lat="43.04249594919383525848388671875" lon="-1.3636184670031070709228515625">
        <ele>874.20001220703125</ele>
        <time>2020-08-22T06:39:36.000Z</time>
      </trkpt>
      <trkpt lat="43.04246895946562290191650390625" lon="-1.3635685108602046966552734375">
        <ele>874</ele>
        <time>2020-08-22T06:39:37.000Z</time>
      </trkpt>
      <trkpt lat="43.0423642694950103759765625" lon="-1.3633656688034534454345703125">
        <ele>873.20001220703125</ele>
        <time>2020-08-22T06:39:41.000Z</time>
      </trkpt>
      <trkpt lat="43.0423003993928432464599609375" lon="-1.3632580451667308807373046875">
        <ele>873.20001220703125</ele>
        <time>2020-08-22T06:39:43.000Z</time>
      </trkpt>
      <trkpt lat="43.0422645248472690582275390625" lon="-1.36320834048092365264892578125">
        <ele>873.20001220703125</ele>
        <time>2020-08-22T06:39:44.000Z</time>
      </trkpt>
      <trkpt lat="43.04218296892940998077392578125" lon="-1.3631356693804264068603515625">
        <ele>873</ele>
        <time>2020-08-22T06:39:46.000Z</time>
      </trkpt>
      <trkpt lat="43.0420033447444438934326171875" lon="-1.3630945980548858642578125">
        <ele>872.5999755859375</ele>
        <time>2020-08-22T06:39:50.000Z</time>
      </trkpt>
      <trkpt lat="43.04196218959987163543701171875" lon="-1.363102979958057403564453125">
        <ele>872.4000244140625</ele>
        <time>2020-08-22T06:39:51.000Z</time>
      </trkpt>
      <trkpt lat="43.04182154126465320587158203125" lon="-1.363165676593780517578125">
        <ele>872.4000244140625</ele>
        <time>2020-08-22T06:39:55.000Z</time>
      </trkpt>
      <trkpt lat="43.04174945689737796783447265625" lon="-1.36317816562950611114501953125">
        <ele>872.20001220703125</ele>
        <time>2020-08-22T06:39:57.000Z</time>
      </trkpt>
      <trkpt lat="43.0417076312005519866943359375" lon="-1.3631804287433624267578125">
        <ele>872</ele>
        <time>2020-08-22T06:39:58.000Z</time>
      </trkpt>
      <trkpt lat="43.04162800312042236328125" lon="-1.3631678558886051177978515625">
        <ele>871.79998779296875</ele>
        <time>2020-08-22T06:40:00.000Z</time>
      </trkpt>
      <trkpt lat="43.04151074029505252838134765625" lon="-1.3630865514278411865234375">
        <ele>871</ele>
        <time>2020-08-22T06:40:03.000Z</time>
      </trkpt>
      <trkpt lat="43.0414702557027339935302734375" lon="-1.3630531914532184600830078125">
        <ele>871</ele>
        <time>2020-08-22T06:40:04.000Z</time>
      </trkpt>
      <trkpt lat="43.04121972061693668365478515625" lon="-1.3628681190311908721923828125">
        <ele>870.20001220703125</ele>
        <time>2020-08-22T06:40:10.000Z</time>
      </trkpt>
      <trkpt lat="43.041142188012599945068359375" lon="-1.36283081956207752227783203125">
        <ele>870</ele>
        <time>2020-08-22T06:40:12.000Z</time>
      </trkpt>
      <trkpt lat="43.04107706062495708465576171875" lon="-1.36276342906057834625244140625">
        <ele>869.4000244140625</ele>
        <time>2020-08-22T06:40:14.000Z</time>
      </trkpt>
      <trkpt lat="43.04103598929941654205322265625" lon="-1.3626421429216861724853515625">
        <ele>869</ele>
        <time>2020-08-22T06:40:16.000Z</time>
      </trkpt>
      <trkpt lat="43.04102559573948383331298828125" lon="-1.3625851459801197052001953125">
        <ele>868.79998779296875</ele>
        <time>2020-08-22T06:40:17.000Z</time>
      </trkpt>
      <trkpt lat="43.04102492518723011016845703125" lon="-1.3624825514853000640869140625">
        <ele>868.20001220703125</ele>
        <time>2020-08-22T06:40:19.000Z</time>
      </trkpt>
      <trkpt lat="43.04102894850075244903564453125" lon="-1.3624294102191925048828125">
        <ele>868</ele>
        <time>2020-08-22T06:40:20.000Z</time>
      </trkpt>
      <trkpt lat="43.04102576337754726409912109375" lon="-1.362381465733051300048828125">
        <ele>867.79998779296875</ele>
        <time>2020-08-22T06:40:21.000Z</time>
      </trkpt>
      <trkpt lat="43.040975891053676605224609375" lon="-1.36218574829399585723876953125">
        <ele>867.20001220703125</ele>
        <time>2020-08-22T06:40:25.000Z</time>
      </trkpt>
      <trkpt lat="43.04091612808406352996826171875" lon="-1.3621026836335659027099609375">
        <ele>867.20001220703125</ele>
        <time>2020-08-22T06:40:27.000Z</time>
      </trkpt>
      <trkpt lat="43.04081655107438564300537109375" lon="-1.36197284795343875885009765625">
        <ele>866.5999755859375</ele>
        <time>2020-08-22T06:40:30.000Z</time>
      </trkpt>
      <trkpt lat="43.040611110627651214599609375" lon="-1.36176757514476776123046875">
        <ele>865.5999755859375</ele>
        <time>2020-08-22T06:40:36.000Z</time>
      </trkpt>
      <trkpt lat="43.0405752360820770263671875" lon="-1.3617358915507793426513671875">
        <ele>865.5999755859375</ele>
        <time>2020-08-22T06:40:37.000Z</time>
      </trkpt>
      <trkpt lat="43.04035755805671215057373046875" lon="-1.361513435840606689453125">
        <ele>864.4000244140625</ele>
        <time>2020-08-22T06:40:43.000Z</time>
      </trkpt>
      <trkpt lat="43.04027524776756763458251953125" lon="-1.36143003590404987335205078125">
        <ele>863.5999755859375</ele>
        <time>2020-08-22T06:40:45.000Z</time>
      </trkpt>
      <trkpt lat="43.04014675319194793701171875" lon="-1.3613162934780120849609375">
        <ele>863.4000244140625</ele>
        <time>2020-08-22T06:40:48.000Z</time>
      </trkpt>
      <trkpt lat="43.04010576568543910980224609375" lon="-1.36127807199954986572265625">
        <ele>863.20001220703125</ele>
        <time>2020-08-22T06:40:49.000Z</time>
      </trkpt>
      <trkpt lat="43.0399481020867824554443359375" lon="-1.36112811975181102752685546875">
        <ele>862.79998779296875</ele>
        <time>2020-08-22T06:40:53.000Z</time>
      </trkpt>
      <trkpt lat="43.0399092100560665130615234375" lon="-1.36109392158687114715576171875">
        <ele>862.5999755859375</ele>
        <time>2020-08-22T06:40:54.000Z</time>
      </trkpt>
      <trkpt lat="43.03981005214154720306396484375" lon="-1.360990069806575775146484375">
        <ele>862.20001220703125</ele>
        <time>2020-08-22T06:40:57.000Z</time>
      </trkpt>
      <trkpt lat="43.0397598445415496826171875" lon="-1.36094120331108570098876953125">
        <ele>861.5999755859375</ele>
        <time>2020-08-22T06:40:59.000Z</time>
      </trkpt>
      <trkpt lat="43.03959245793521404266357421875" lon="-1.36077909730374813079833984375">
        <ele>861</ele>
        <time>2020-08-22T06:41:05.000Z</time>
      </trkpt>
      <trkpt lat="43.039417527616024017333984375" lon="-1.36058396659791469573974609375">
        <ele>859.79998779296875</ele>
        <time>2020-08-22T06:41:11.000Z</time>
      </trkpt>
      <trkpt lat="43.03926539607346057891845703125" lon="-1.3604289852082729339599609375">
        <ele>859.20001220703125</ele>
        <time>2020-08-22T06:41:15.000Z</time>
      </trkpt>
      <trkpt lat="43.03922549821436405181884765625" lon="-1.36038615368306636810302734375">
        <ele>858.79998779296875</ele>
        <time>2020-08-22T06:41:16.000Z</time>
      </trkpt>
      <trkpt lat="43.03918744437396526336669921875" lon="-1.36034793220460414886474609375">
        <ele>858.79998779296875</ele>
        <time>2020-08-22T06:41:17.000Z</time>
      </trkpt>
      <trkpt lat="43.03910010494291782379150390625" lon="-1.3602727465331554412841796875">
        <ele>858.4000244140625</ele>
        <time>2020-08-22T06:41:19.000Z</time>
      </trkpt>
      <trkpt lat="43.0390579439699649810791015625" lon="-1.360242404043674468994140625">
        <ele>858.20001220703125</ele>
        <time>2020-08-22T06:41:20.000Z</time>
      </trkpt>
      <trkpt lat="43.03893481381237506866455078125" lon="-1.360141821205615997314453125">
        <ele>857.5999755859375</ele>
        <time>2020-08-22T06:41:23.000Z</time>
      </trkpt>
      <trkpt lat="43.038895167410373687744140625" lon="-1.36011105962097644805908203125">
        <ele>857.4000244140625</ele>
        <time>2020-08-22T06:41:24.000Z</time>
      </trkpt>
      <trkpt lat="43.03876784630119800567626953125" lon="-1.3600288331508636474609375">
        <ele>856.5999755859375</ele>
        <time>2020-08-22T06:41:27.000Z</time>
      </trkpt>
      <trkpt lat="43.03872342221438884735107421875" lon="-1.3600020110607147216796875">
        <ele>856.4000244140625</ele>
        <time>2020-08-22T06:41:28.000Z</time>
      </trkpt>
      <trkpt lat="43.03850515745580196380615234375" lon="-1.3599096424877643585205078125">
        <ele>856.5999755859375</ele>
        <time>2020-08-22T06:41:33.000Z</time>
      </trkpt>
      <trkpt lat="43.0382846295833587646484375" lon="-1.3598442636430263519287109375">
        <ele>856.20001220703125</ele>
        <time>2020-08-22T06:41:38.000Z</time>
      </trkpt>
      <trkpt lat="43.0382378585636615753173828125" lon="-1.35983504354953765869140625">
        <ele>856.20001220703125</ele>
        <time>2020-08-22T06:41:39.000Z</time>
      </trkpt>
      <trkpt lat="43.03800039924681186676025390625" lon="-1.3598274998366832733154296875">
        <ele>855.4000244140625</ele>
        <time>2020-08-22T06:41:44.000Z</time>
      </trkpt>
      <trkpt lat="43.03795027546584606170654296875" lon="-1.35982775129377841949462890625">
        <ele>855.4000244140625</ele>
        <time>2020-08-22T06:41:45.000Z</time>
      </trkpt>
      <trkpt lat="43.03780007176101207733154296875" lon="-1.35981987230479717254638671875">
        <ele>854.20001220703125</ele>
        <time>2020-08-22T06:41:48.000Z</time>
      </trkpt>
      <trkpt lat="43.0376132391393184661865234375" lon="-1.359836049377918243408203125">
        <ele>853.79998779296875</ele>
        <time>2020-08-22T06:41:52.000Z</time>
      </trkpt>
      <trkpt lat="43.0374623648822307586669921875" lon="-1.35982104577124118804931640625">
        <ele>852.79998779296875</ele>
        <time>2020-08-22T06:41:56.000Z</time>
      </trkpt>
      <trkpt lat="43.03747133351862430572509765625" lon="-1.35972700081765651702880859375">
        <ele>851.79998779296875</ele>
        <time>2020-08-22T06:41:59.000Z</time>
      </trkpt>
      <trkpt lat="43.03759437985718250274658203125" lon="-1.35967411100864410400390625">
        <ele>851.5999755859375</ele>
        <time>2020-08-22T06:42:03.000Z</time>
      </trkpt>
      <trkpt lat="43.03767601959407329559326171875" lon="-1.359677128493785858154296875">
        <ele>851.20001220703125</ele>
        <time>2020-08-22T06:42:05.000Z</time>
      </trkpt>
      <trkpt lat="43.03776067681610584259033203125" lon="-1.35968056507408618927001953125">
        <ele>850.4000244140625</ele>
        <time>2020-08-22T06:42:07.000Z</time>
      </trkpt>
      <trkpt lat="43.037895374000072479248046875" lon="-1.35966874659061431884765625">
        <ele>849.79998779296875</ele>
        <time>2020-08-22T06:42:10.000Z</time>
      </trkpt>
      <trkpt lat="43.037988245487213134765625" lon="-1.35966078378260135650634765625">
        <ele>849.4000244140625</ele>
        <time>2020-08-22T06:42:12.000Z</time>
      </trkpt>
      <trkpt lat="43.038135431706905364990234375" lon="-1.35965743102133274078369140625">
        <ele>848.20001220703125</ele>
        <time>2020-08-22T06:42:15.000Z</time>
      </trkpt>
      <trkpt lat="43.03818010725080966949462890625" lon="-1.35965533554553985595703125">
        <ele>847.4000244140625</ele>
        <time>2020-08-22T06:42:16.000Z</time>
      </trkpt>
      <trkpt lat="43.03822922520339488983154296875" lon="-1.35964997112751007080078125">
        <ele>846.79998779296875</ele>
        <time>2020-08-22T06:42:17.000Z</time>
      </trkpt>
      <trkpt lat="43.03831924684345722198486328125" lon="-1.35964133776724338531494140625">
        <ele>845.79998779296875</ele>
        <time>2020-08-22T06:42:19.000Z</time>
      </trkpt>
      <trkpt lat="43.0383944325149059295654296875" lon="-1.359629519283771514892578125">
        <ele>845.20001220703125</ele>
        <time>2020-08-22T06:42:21.000Z</time>
      </trkpt>
      <trkpt lat="43.0384343303740024566650390625" lon="-1.35962306521832942962646484375">
        <ele>845</ele>
        <time>2020-08-22T06:42:22.000Z</time>
      </trkpt>
      <trkpt lat="43.0384822748601436614990234375" lon="-1.35960680432617664337158203125">
        <ele>844.5999755859375</ele>
        <time>2020-08-22T06:42:23.000Z</time>
      </trkpt>
      <trkpt lat="43.038588054478168487548828125" lon="-1.35957931168377399444580078125">
        <ele>843.79998779296875</ele>
        <time>2020-08-22T06:42:25.000Z</time>
      </trkpt>
      <trkpt lat="43.03864211775362491607666015625" lon="-1.359578557312488555908203125">
        <ele>843.20001220703125</ele>
        <time>2020-08-22T06:42:26.000Z</time>
      </trkpt>
      <trkpt lat="43.0387481488287448883056640625" lon="-1.35959842242300510406494140625">
        <ele>841.5999755859375</ele>
        <time>2020-08-22T06:42:28.000Z</time>
      </trkpt>
      <trkpt lat="43.03879902698099613189697265625" lon="-1.3596095703542232513427734375">
        <ele>841.20001220703125</ele>
        <time>2020-08-22T06:42:29.000Z</time>
      </trkpt>
      <trkpt lat="43.03888938389718532562255859375" lon="-1.3596373982727527618408203125">
        <ele>840.20001220703125</ele>
        <time>2020-08-22T06:42:31.000Z</time>
      </trkpt>
      <trkpt lat="43.038938082754611968994140625" lon="-1.35963915847241878509521484375">
        <ele>839.20001220703125</ele>
        <time>2020-08-22T06:42:32.000Z</time>
      </trkpt>
      <trkpt lat="43.038991726934909820556640625" lon="-1.35962926782667636871337890625">
        <ele>838.20001220703125</ele>
        <time>2020-08-22T06:42:33.000Z</time>
      </trkpt>
      <trkpt lat="43.03904277272522449493408203125" lon="-1.35962180793285369873046875">
        <ele>837.4000244140625</ele>
        <time>2020-08-22T06:42:34.000Z</time>
      </trkpt>
      <trkpt lat="43.03909742273390293121337890625" lon="-1.35960663668811321258544921875">
        <ele>836.5999755859375</ele>
        <time>2020-08-22T06:42:35.000Z</time>
      </trkpt>
      <trkpt lat="43.0392269231379032135009765625" lon="-1.35957352817058563232421875">
        <ele>835.4000244140625</ele>
        <time>2020-08-22T06:42:37.000Z</time>
      </trkpt>
      <trkpt lat="43.03929557092487812042236328125" lon="-1.35957227088510990142822265625">
        <ele>834.79998779296875</ele>
        <time>2020-08-22T06:42:38.000Z</time>
      </trkpt>
      <trkpt lat="43.039365224540233612060546875" lon="-1.35957218706607818603515625">
        <ele>834</ele>
        <time>2020-08-22T06:42:39.000Z</time>
      </trkpt>
      <trkpt lat="43.0394894443452358245849609375" lon="-1.35958584956824779510498046875">
        <ele>832.79998779296875</ele>
        <time>2020-08-22T06:42:41.000Z</time>
      </trkpt>
      <trkpt lat="43.03961156867444515228271484375" lon="-1.3596223108470439910888671875">
        <ele>831.4000244140625</ele>
        <time>2020-08-22T06:42:43.000Z</time>
      </trkpt>
      <trkpt lat="43.03967468440532684326171875" lon="-1.35965860448777675628662109375">
        <ele>830.79998779296875</ele>
        <time>2020-08-22T06:42:44.000Z</time>
      </trkpt>
      <trkpt lat="43.03973503410816192626953125" lon="-1.359696574509143829345703125">
        <ele>830.20001220703125</ele>
        <time>2020-08-22T06:42:45.000Z</time>
      </trkpt>
      <trkpt lat="43.03979672491550445556640625" lon="-1.3597396574914455413818359375">
        <ele>829.5999755859375</ele>
        <time>2020-08-22T06:42:46.000Z</time>
      </trkpt>
      <trkpt lat="43.03985263220965862274169921875" lon="-1.359794475138187408447265625">
        <ele>829.20001220703125</ele>
        <time>2020-08-22T06:42:47.000Z</time>
      </trkpt>
      <trkpt lat="43.039911724627017974853515625" lon="-1.3598425872623920440673828125">
        <ele>828.5999755859375</ele>
        <time>2020-08-22T06:42:48.000Z</time>
      </trkpt>
      <trkpt lat="43.04002379067242145538330078125" lon="-1.359929926693439483642578125">
        <ele>827</ele>
        <time>2020-08-22T06:42:50.000Z</time>
      </trkpt>
      <trkpt lat="43.0400802008807659149169921875" lon="-1.359966136515140533447265625">
        <ele>826.20001220703125</ele>
        <time>2020-08-22T06:42:51.000Z</time>
      </trkpt>
      <trkpt lat="43.040134012699127197265625" lon="-1.36000335216522216796875">
        <ele>825.4000244140625</ele>
        <time>2020-08-22T06:42:52.000Z</time>
      </trkpt>
      <trkpt lat="43.04023970849812030792236328125" lon="-1.36006705462932586669921875">
        <ele>823.5999755859375</ele>
        <time>2020-08-22T06:42:54.000Z</time>
      </trkpt>
      <trkpt lat="43.040297292172908782958984375" lon="-1.3600851595401763916015625">
        <ele>822.4000244140625</ele>
        <time>2020-08-22T06:42:55.000Z</time>
      </trkpt>
      <trkpt lat="43.04041572846472263336181640625" lon="-1.360117681324481964111328125">
        <ele>821.20001220703125</ele>
        <time>2020-08-22T06:42:57.000Z</time>
      </trkpt>
      <trkpt lat="43.04052452556788921356201171875" lon="-1.36015229858458042144775390625">
        <ele>820</ele>
        <time>2020-08-22T06:42:59.000Z</time>
      </trkpt>
      <trkpt lat="43.040632568299770355224609375" lon="-1.36019437573850154876708984375">
        <ele>819.20001220703125</ele>
        <time>2020-08-22T06:43:01.000Z</time>
      </trkpt>
      <trkpt lat="43.04068780504167079925537109375" lon="-1.36021382175385951995849609375">
        <ele>818.79998779296875</ele>
        <time>2020-08-22T06:43:02.000Z</time>
      </trkpt>
      <trkpt lat="43.04080682806670665740966796875" lon="-1.36026059277355670928955078125">
        <ele>817.20001220703125</ele>
        <time>2020-08-22T06:43:04.000Z</time>
      </trkpt>
      <trkpt lat="43.04091847501695156097412109375" lon="-1.36032010428607463836669921875">
        <ele>815.4000244140625</ele>
        <time>2020-08-22T06:43:06.000Z</time>
      </trkpt>
      <trkpt lat="43.04096440784633159637451171875" lon="-1.360354721546173095703125">
        <ele>814.79998779296875</ele>
        <time>2020-08-22T06:43:07.000Z</time>
      </trkpt>
      <trkpt lat="43.041004724800586700439453125" lon="-1.36038615368306636810302734375">
        <ele>814.4000244140625</ele>
        <time>2020-08-22T06:43:08.000Z</time>
      </trkpt>
      <trkpt lat="43.04104261100292205810546875" lon="-1.3604231178760528564453125">
        <ele>813.5999755859375</ele>
        <time>2020-08-22T06:43:09.000Z</time>
      </trkpt>
      <trkpt lat="43.0410830117762088775634765625" lon="-1.3604668714106082916259765625">
        <ele>813.20001220703125</ele>
        <time>2020-08-22T06:43:10.000Z</time>
      </trkpt>
      <trkpt lat="43.04116993211209774017333984375" lon="-1.3605681248009204864501953125">
        <ele>812</ele>
        <time>2020-08-22T06:43:12.000Z</time>
      </trkpt>
      <trkpt lat="43.0412654019892215728759765625" lon="-1.3606780953705310821533203125">
        <ele>810.79998779296875</ele>
        <time>2020-08-22T06:43:14.000Z</time>
      </trkpt>
      <trkpt lat="43.04135466925799846649169921875" lon="-1.36077473871409893035888671875">
        <ele>809.4000244140625</ele>
        <time>2020-08-22T06:43:16.000Z</time>
      </trkpt>
      <trkpt lat="43.04139791987836360931396484375" lon="-1.36081270873546600341796875">
        <ele>809</ele>
        <time>2020-08-22T06:43:17.000Z</time>
      </trkpt>
      <trkpt lat="43.04150604642927646636962890625" lon="-1.36084866710007190704345703125">
        <ele>807.4000244140625</ele>
        <time>2020-08-22T06:43:19.000Z</time>
      </trkpt>
      <trkpt lat="43.04155767895281314849853515625" lon="-1.360845901072025299072265625">
        <ele>807</ele>
        <time>2020-08-22T06:43:20.000Z</time>
      </trkpt>
      <trkpt lat="43.04160914383828639984130859375" lon="-1.36083726771175861358642578125">
        <ele>806.4000244140625</ele>
        <time>2020-08-22T06:43:21.000Z</time>
      </trkpt>
      <trkpt lat="43.04166848771274089813232421875" lon="-1.360829137265682220458984375">
        <ele>805.79998779296875</ele>
        <time>2020-08-22T06:43:22.000Z</time>
      </trkpt>
      <trkpt lat="43.041732944548130035400390625" lon="-1.3608262874186038970947265625">
        <ele>805.4000244140625</ele>
        <time>2020-08-22T06:43:23.000Z</time>
      </trkpt>
      <trkpt lat="43.0417971499264240264892578125" lon="-1.360833831131458282470703125">
        <ele>805.20001220703125</ele>
        <time>2020-08-22T06:43:24.000Z</time>
      </trkpt>
      <trkpt lat="43.0418970622122287750244140625" lon="-1.36089426465332508087158203125">
        <ele>804.4000244140625</ele>
        <time>2020-08-22T06:43:26.000Z</time>
      </trkpt>
      <trkpt lat="43.04194173775613307952880859375" lon="-1.36093609035015106201171875">
        <ele>803.4000244140625</ele>
        <time>2020-08-22T06:43:27.000Z</time>
      </trkpt>
      <trkpt lat="43.04198398254811763763427734375" lon="-1.360984034836292266845703125">
        <ele>802.4000244140625</ele>
        <time>2020-08-22T06:43:28.000Z</time>
      </trkpt>
      <trkpt lat="43.04201734252274036407470703125" lon="-1.36104161851108074188232421875">
        <ele>801.20001220703125</ele>
        <time>2020-08-22T06:43:29.000Z</time>
      </trkpt>
      <trkpt lat="43.04208590649068355560302734375" lon="-1.36115360073745250701904296875">
        <ele>800</ele>
        <time>2020-08-22T06:43:31.000Z</time>
      </trkpt>
      <trkpt lat="43.04215514101088047027587890625" lon="-1.3612688519060611724853515625">
        <ele>798.79998779296875</ele>
        <time>2020-08-22T06:43:33.000Z</time>
      </trkpt>
      <trkpt lat="43.0422330088913440704345703125" lon="-1.36133951134979724884033203125">
        <ele>798</ele>
        <time>2020-08-22T06:43:35.000Z</time>
      </trkpt>
      <trkpt lat="43.04231272079050540924072265625" lon="-1.36139516718685626983642578125">
        <ele>797.4000244140625</ele>
        <time>2020-08-22T06:43:37.000Z</time>
      </trkpt>
      <trkpt lat="43.04240458644926548004150390625" lon="-1.36144101619720458984375">
        <ele>797</ele>
        <time>2020-08-22T06:43:39.000Z</time>
      </trkpt>
      <trkpt lat="43.04244884289801120758056640625" lon="-1.36145509779453277587890625">
        <ele>796.79998779296875</ele>
        <time>2020-08-22T06:43:40.000Z</time>
      </trkpt>
      <trkpt lat="43.042503409087657928466796875" lon="-1.36146389879286289215087890625">
        <ele>796.4000244140625</ele>
        <time>2020-08-22T06:43:41.000Z</time>
      </trkpt>
      <trkpt lat="43.0425890721380710601806640625" lon="-1.36148217134177684783935546875">
        <ele>795.20001220703125</ele>
        <time>2020-08-22T06:43:43.000Z</time>
      </trkpt>
      <trkpt lat="43.04272376932203769683837890625" lon="-1.36146180331707000732421875">
        <ele>794</ele>
        <time>2020-08-22T06:43:46.000Z</time>
      </trkpt>
      <trkpt lat="43.0428143776953220367431640625" lon="-1.36142366565763950347900390625">
        <ele>793.79998779296875</ele>
        <time>2020-08-22T06:43:48.000Z</time>
      </trkpt>
      <trkpt lat="43.042962066829204559326171875" lon="-1.36137236841022968292236328125">
        <ele>793.20001220703125</ele>
        <time>2020-08-22T06:43:51.000Z</time>
      </trkpt>
      <trkpt lat="43.04311570711433887481689453125" lon="-1.36134655214846134185791015625">
        <ele>792.4000244140625</ele>
        <time>2020-08-22T06:43:54.000Z</time>
      </trkpt>
      <trkpt lat="43.043164573609828948974609375" lon="-1.36133699677884578704833984375">
        <ele>792.20001220703125</ele>
        <time>2020-08-22T06:43:55.000Z</time>
      </trkpt>
      <trkpt lat="43.04321545176208019256591796875" lon="-1.36133439838886260986328125">
        <ele>791.79998779296875</ele>
        <time>2020-08-22T06:43:56.000Z</time>
      </trkpt>
      <trkpt lat="43.043316118419170379638671875" lon="-1.36134487576782703399658203125">
        <ele>790.5999755859375</ele>
        <time>2020-08-22T06:43:58.000Z</time>
      </trkpt>
      <trkpt lat="43.043358363211154937744140625" lon="-1.36135493405163288116455078125">
        <ele>790.20001220703125</ele>
        <time>2020-08-22T06:43:59.000Z</time>
      </trkpt>
      <trkpt lat="43.0434011109173297882080078125" lon="-1.36136951856315135955810546875">
        <ele>790</ele>
        <time>2020-08-22T06:44:00.000Z</time>
      </trkpt>
      <trkpt lat="43.0435449443757534027099609375" lon="-1.3614262640476226806640625">
        <ele>789.5999755859375</ele>
        <time>2020-08-22T06:44:03.000Z</time>
      </trkpt>
      <trkpt lat="43.0436006002128124237060546875" lon="-1.36145107448101043701171875">
        <ele>789.20001220703125</ele>
        <time>2020-08-22T06:44:04.000Z</time>
      </trkpt>
      <trkpt lat="43.04370780475437641143798828125" lon="-1.36150203645229339599609375">
        <ele>788.4000244140625</ele>
        <time>2020-08-22T06:44:06.000Z</time>
      </trkpt>
      <trkpt lat="43.0438590981066226959228515625" lon="-1.361589543521404266357421875">
        <ele>787.4000244140625</ele>
        <time>2020-08-22T06:44:09.000Z</time>
      </trkpt>
      <trkpt lat="43.0439036898314952850341796875" lon="-1.36160974390804767608642578125">
        <ele>787.4000244140625</ele>
        <time>2020-08-22T06:44:10.000Z</time>
      </trkpt>
      <trkpt lat="43.04393931291997432708740234375" lon="-1.36163723655045032501220703125">
        <ele>787.4000244140625</ele>
        <time>2020-08-22T06:44:11.000Z</time>
      </trkpt>
      <trkpt lat="43.04397351108491420745849609375" lon="-1.36172642000019550323486328125">
        <ele>787.20001220703125</ele>
        <time>2020-08-22T06:44:13.000Z</time>
      </trkpt>
      <trkpt lat="43.04399128071963787078857421875" lon="-1.36182415299117565155029296875">
        <ele>786.4000244140625</ele>
        <time>2020-08-22T06:44:15.000Z</time>
      </trkpt>
      <trkpt lat="43.04403168149292469024658203125" lon="-1.361961700022220611572265625">
        <ele>785.79998779296875</ele>
        <time>2020-08-22T06:44:18.000Z</time>
      </trkpt>
      <trkpt lat="43.04405800066888332366943359375" lon="-1.3619994185864925384521484375">
        <ele>785.20001220703125</ele>
        <time>2020-08-22T06:44:19.000Z</time>
      </trkpt>
      <trkpt lat="43.04409303702414035797119140625" lon="-1.362030096352100372314453125">
        <ele>785</ele>
        <time>2020-08-22T06:44:20.000Z</time>
      </trkpt>
      <trkpt lat="43.04412941448390483856201171875" lon="-1.3620413281023502349853515625">
        <ele>784.79998779296875</ele>
        <time>2020-08-22T06:44:21.000Z</time>
      </trkpt>
      <trkpt lat="43.0442604236304759979248046875" lon="-1.36198818683624267578125">
        <ele>784.4000244140625</ele>
        <time>2020-08-22T06:44:25.000Z</time>
      </trkpt>
      <trkpt lat="43.04430426098406314849853515625" lon="-1.36197955347597599029541015625">
        <ele>784</ele>
        <time>2020-08-22T06:44:26.000Z</time>
      </trkpt>
      <trkpt lat="43.0443475954234600067138671875" lon="-1.361979134380817413330078125">
        <ele>783.79998779296875</ele>
        <time>2020-08-22T06:44:27.000Z</time>
      </trkpt>
      <trkpt lat="43.04443736560642719268798828125" lon="-1.36198273859918117523193359375">
        <ele>783.4000244140625</ele>
        <time>2020-08-22T06:44:29.000Z</time>
      </trkpt>
      <trkpt lat="43.04452956654131412506103515625" lon="-1.3619846664369106292724609375">
        <ele>782.79998779296875</ele>
        <time>2020-08-22T06:44:31.000Z</time>
      </trkpt>
      <trkpt lat="43.044573403894901275634765625" lon="-1.36199732311069965362548828125">
        <ele>782.5999755859375</ele>
        <time>2020-08-22T06:44:32.000Z</time>
      </trkpt>
      <trkpt lat="43.04467021487653255462646484375" lon="-1.3620299287140369415283203125">
        <ele>782.20001220703125</ele>
        <time>2020-08-22T06:44:34.000Z</time>
      </trkpt>
      <trkpt lat="43.044768869876861572265625" lon="-1.3620953075587749481201171875">
        <ele>781.79998779296875</ele>
        <time>2020-08-22T06:44:36.000Z</time>
      </trkpt>
      <trkpt lat="43.04489686153829097747802734375" lon="-1.36221022345125675201416015625">
        <ele>780.4000244140625</ele>
        <time>2020-08-22T06:44:39.000Z</time>
      </trkpt>
      <trkpt lat="43.04493558593094348907470703125" lon="-1.3622528873383998870849609375">
        <ele>780.20001220703125</ele>
        <time>2020-08-22T06:44:40.000Z</time>
      </trkpt>
      <trkpt lat="43.04497472941875457763671875" lon="-1.36229001916944980621337890625">
        <ele>780.20001220703125</ele>
        <time>2020-08-22T06:44:41.000Z</time>
      </trkpt>
      <trkpt lat="43.04511194117367267608642578125" lon="-1.36242739856243133544921875">
        <ele>780.20001220703125</ele>
        <time>2020-08-22T06:44:45.000Z</time>
      </trkpt>
      <trkpt lat="43.0452119372785091400146484375" lon="-1.36264893226325511932373046875">
        <ele>780.20001220703125</ele>
        <time>2020-08-22T06:44:50.000Z</time>
      </trkpt>
      <trkpt lat="43.04523347876965999603271484375" lon="-1.36267416179180145263671875">
        <ele>780</ele>
        <time>2020-08-22T06:44:53.000Z</time>
      </trkpt>
      <trkpt lat="43.04524906910955905914306640625" lon="-1.3626766763627529144287109375">
        <ele>780</ele>
        <time>2020-08-22T06:45:02.000Z</time>
      </trkpt>
      <trkpt lat="43.0452471412718296051025390625" lon="-1.3626827113330364227294921875">
        <ele>780.20001220703125</ele>
        <time>2020-08-22T06:45:14.000Z</time>
      </trkpt>
      <trkpt lat="43.0452508293092250823974609375" lon="-1.36268380098044872283935546875">
        <ele>780.20001220703125</ele>
        <time>2020-08-22T06:45:23.000Z</time>
      </trkpt>
      <trkpt lat="43.0452558584511280059814453125" lon="-1.36268966831266880035400390625">
        <ele>780</ele>
        <time>2020-08-22T06:45:32.000Z</time>
      </trkpt>
      <trkpt lat="43.0452649109065532684326171875" lon="-1.3626833818852901458740234375">
        <ele>780.4000244140625</ele>
        <time>2020-08-22T06:45:41.000Z</time>
      </trkpt>
      <trkpt lat="43.04526784457266330718994140625" lon="-1.36268849484622478485107421875">
        <ele>780.20001220703125</ele>
        <time>2020-08-22T06:45:54.000Z</time>
      </trkpt>
      <trkpt lat="43.04526834748685359954833984375" lon="-1.362686567008495330810546875">
        <ele>780.4000244140625</ele>
        <time>2020-08-22T06:46:06.000Z</time>
      </trkpt>
      <trkpt lat="43.0452679283916950225830078125" lon="-1.36268832720816135406494140625">
        <ele>780.20001220703125</ele>
        <time>2020-08-22T06:46:20.000Z</time>
      </trkpt>
      <trkpt lat="43.04526767693459987640380859375" lon="-1.36268866248428821563720703125">
        <ele>780.20001220703125</ele>
        <time>2020-08-22T06:46:26.000Z</time>
      </trkpt>
      <trkpt lat="43.0452685989439487457275390625" lon="-1.3626869022846221923828125">
        <ele>780.20001220703125</ele>
        <time>2020-08-22T06:46:32.000Z</time>
      </trkpt>
      <trkpt lat="43.045298941433429718017578125" lon="-1.36278505437076091766357421875">
        <ele>780</ele>
        <time>2020-08-22T06:46:38.000Z</time>
      </trkpt>
      <trkpt lat="43.045357279479503631591796875" lon="-1.362966187298297882080078125">
        <ele>779.20001220703125</ele>
        <time>2020-08-22T06:46:44.000Z</time>
      </trkpt>
      <trkpt lat="43.04537144489586353302001953125" lon="-1.363005749881267547607421875">
        <ele>779</ele>
        <time>2020-08-22T06:46:45.000Z</time>
      </trkpt>
      <trkpt lat="43.04539122618734836578369140625" lon="-1.3630394451320171356201171875">
        <ele>779</ele>
        <time>2020-08-22T06:46:46.000Z</time>
      </trkpt>
      <trkpt lat="43.0454439483582973480224609375" lon="-1.363079510629177093505859375">
        <ele>778.79998779296875</ele>
        <time>2020-08-22T06:46:48.000Z</time>
      </trkpt>
      <trkpt lat="43.04552818648517131805419921875" lon="-1.3630629144608974456787109375">
        <ele>779</ele>
        <time>2020-08-22T06:46:52.000Z</time>
      </trkpt>
      <trkpt lat="43.045554421842098236083984375" lon="-1.363061405718326568603515625">
        <ele>779</ele>
        <time>2020-08-22T06:46:53.000Z</time>
      </trkpt>
      <trkpt lat="43.04567067883908748626708984375" lon="-1.3630397804081439971923828125">
        <ele>778.79998779296875</ele>
        <time>2020-08-22T06:46:57.000Z</time>
      </trkpt>
      <trkpt lat="43.04582155309617519378662109375" lon="-1.363039948046207427978515625">
        <ele>778.4000244140625</ele>
        <time>2020-08-22T06:47:02.000Z</time>
      </trkpt>
      <trkpt lat="43.04598013870418071746826171875" lon="-1.3630381040275096893310546875">
        <ele>778.4000244140625</ele>
        <time>2020-08-22T06:47:08.000Z</time>
      </trkpt>
      <trkpt lat="43.04612003266811370849609375" lon="-1.36303600855171680450439453125">
        <ele>778.4000244140625</ele>
        <time>2020-08-22T06:47:14.000Z</time>
      </trkpt>
      <trkpt lat="43.04626814089715480804443359375" lon="-1.36303357779979705810546875">
        <ele>778.4000244140625</ele>
        <time>2020-08-22T06:47:19.000Z</time>
      </trkpt>
      <trkpt lat="43.04636369459331035614013671875" lon="-1.36299510486423969268798828125">
        <ele>778.20001220703125</ele>
        <time>2020-08-22T06:47:22.000Z</time>
      </trkpt>
      <trkpt lat="43.04639403708279132843017578125" lon="-1.36298722587525844573974609375">
        <ele>778</ele>
        <time>2020-08-22T06:47:23.000Z</time>
      </trkpt>
      <trkpt lat="43.0464340187609195709228515625" lon="-1.36296384036540985107421875">
        <ele>778</ele>
        <time>2020-08-22T06:47:24.000Z</time>
      </trkpt>
      <trkpt lat="43.0465399660170078277587890625" lon="-1.3628738187253475189208984375">
        <ele>777.4000244140625</ele>
        <time>2020-08-22T06:47:26.000Z</time>
      </trkpt>
      <trkpt lat="43.0465620942413806915283203125" lon="-1.36282411403954029083251953125">
        <ele>777.4000244140625</ele>
        <time>2020-08-22T06:47:27.000Z</time>
      </trkpt>
      <trkpt lat="43.04659017361700534820556640625" lon="-1.36270475573837757110595703125">
        <ele>777</ele>
        <time>2020-08-22T06:47:29.000Z</time>
      </trkpt>
      <trkpt lat="43.04668304510414600372314453125" lon="-1.36252152733504772186279296875">
        <ele>777</ele>
        <time>2020-08-22T06:47:33.000Z</time>
      </trkpt>
      <trkpt lat="43.04681614972651004791259765625" lon="-1.36252135969698429107666015625">
        <ele>776.79998779296875</ele>
        <time>2020-08-22T06:47:36.000Z</time>
      </trkpt>
      <trkpt lat="43.04687649942934513092041015625" lon="-1.3625286519527435302734375">
        <ele>776.4000244140625</ele>
        <time>2020-08-22T06:47:37.000Z</time>
      </trkpt>
      <trkpt lat="43.0469168163836002349853515625" lon="-1.362543404102325439453125">
        <ele>776</ele>
        <time>2020-08-22T06:47:38.000Z</time>
      </trkpt>
      <trkpt lat="43.04699300788342952728271484375" lon="-1.362542398273944854736328125">
        <ele>775</ele>
        <time>2020-08-22T06:47:40.000Z</time>
      </trkpt>
      <trkpt lat="43.0470308102667331695556640625" lon="-1.3625217787921428680419921875">
        <ele>774.20001220703125</ele>
        <time>2020-08-22T06:47:41.000Z</time>
      </trkpt>
      <trkpt lat="43.04706760682165622711181640625" lon="-1.36249302886426448822021484375">
        <ele>773.5999755859375</ele>
        <time>2020-08-22T06:47:42.000Z</time>
      </trkpt>
      <trkpt lat="43.047142960131168365478515625" lon="-1.3624205254018306732177734375">
        <ele>772.79998779296875</ele>
        <time>2020-08-22T06:47:44.000Z</time>
      </trkpt>
      <trkpt lat="43.04723692126572132110595703125" lon="-1.36235254816710948944091796875">
        <ele>772.4000244140625</ele>
        <time>2020-08-22T06:47:46.000Z</time>
      </trkpt>
      <trkpt lat="43.047411181032657623291015625" lon="-1.3623045198619365692138671875">
        <ele>771.5999755859375</ele>
        <time>2020-08-22T06:47:49.000Z</time>
      </trkpt>
      <trkpt lat="43.0474633164703845977783203125" lon="-1.36231466196477413177490234375">
        <ele>771.4000244140625</ele>
        <time>2020-08-22T06:47:50.000Z</time>
      </trkpt>
      <trkpt lat="43.04755576886236667633056640625" lon="-1.362365372478961944580078125">
        <ele>770.79998779296875</ele>
        <time>2020-08-22T06:47:52.000Z</time>
      </trkpt>
      <trkpt lat="43.047602288424968719482421875" lon="-1.362387500703334808349609375">
        <ele>770.79998779296875</ele>
        <time>2020-08-22T06:47:53.000Z</time>
      </trkpt>
      <trkpt lat="43.04764880798757076263427734375" lon="-1.3623990677297115325927734375">
        <ele>770.5999755859375</ele>
        <time>2020-08-22T06:47:54.000Z</time>
      </trkpt>
      <trkpt lat="43.04769809357821941375732421875" lon="-1.3623967207968235015869140625">
        <ele>770.5999755859375</ele>
        <time>2020-08-22T06:47:55.000Z</time>
      </trkpt>
      <trkpt lat="43.04778409190475940704345703125" lon="-1.36236160062253475189208984375">
        <ele>770.20001220703125</ele>
        <time>2020-08-22T06:47:57.000Z</time>
      </trkpt>
      <trkpt lat="43.04785651154816150665283203125" lon="-1.362289600074291229248046875">
        <ele>769.4000244140625</ele>
        <time>2020-08-22T06:47:59.000Z</time>
      </trkpt>
      <trkpt lat="43.04793898947536945343017578125" lon="-1.36221374385058879852294921875">
        <ele>769.20001220703125</ele>
        <time>2020-08-22T06:48:01.000Z</time>
      </trkpt>
      <trkpt lat="43.048082403838634490966796875" lon="-1.36218306608498096466064453125">
        <ele>768.79998779296875</ele>
        <time>2020-08-22T06:48:04.000Z</time>
      </trkpt>
      <trkpt lat="43.048248030245304107666015625" lon="-1.36223570443689823150634765625">
        <ele>768</ele>
        <time>2020-08-22T06:48:07.000Z</time>
      </trkpt>
      <trkpt lat="43.0482973158359527587890625" lon="-1.36226587928831577301025390625">
        <ele>767.79998779296875</ele>
        <time>2020-08-22T06:48:08.000Z</time>
      </trkpt>
      <trkpt lat="43.04834417067468166351318359375" lon="-1.362298987805843353271484375">
        <ele>767.4000244140625</ele>
        <time>2020-08-22T06:48:09.000Z</time>
      </trkpt>
      <trkpt lat="43.048480041325092315673828125" lon="-1.3624091260135173797607421875">
        <ele>766.79998779296875</ele>
        <time>2020-08-22T06:48:12.000Z</time>
      </trkpt>
      <trkpt lat="43.04852304048836231231689453125" lon="-1.36244407854974269866943359375">
        <ele>766.4000244140625</ele>
        <time>2020-08-22T06:48:13.000Z</time>
      </trkpt>
      <trkpt lat="43.04860853590071201324462890625" lon="-1.36247836053371429443359375">
        <ele>766.20001220703125</ele>
        <time>2020-08-22T06:48:15.000Z</time>
      </trkpt>
      <trkpt lat="43.04871314205229282379150390625" lon="-1.3624054379761219024658203125">
        <ele>766</ele>
        <time>2020-08-22T06:48:18.000Z</time>
      </trkpt>
      <trkpt lat="43.04872135631740093231201171875" lon="-1.362266130745410919189453125">
        <ele>765.79998779296875</ele>
        <time>2020-08-22T06:48:21.000Z</time>
      </trkpt>
      <trkpt lat="43.0487184226512908935546875" lon="-1.3622233830392360687255859375">
        <ele>765.79998779296875</ele>
        <time>2020-08-22T06:48:22.000Z</time>
      </trkpt>
      <trkpt lat="43.0486766807734966278076171875" lon="-1.36201458983123302459716796875">
        <ele>766.4000244140625</ele>
        <time>2020-08-22T06:48:27.000Z</time>
      </trkpt>
      <trkpt lat="43.04860434494912624359130859375" lon="-1.36170051991939544677734375">
        <ele>766.79998779296875</ele>
        <time>2020-08-22T06:48:34.000Z</time>
      </trkpt>
      <trkpt lat="43.04857886396348476409912109375" lon="-1.36134856380522251129150390625">
        <ele>766.79998779296875</ele>
        <time>2020-08-22T06:48:41.000Z</time>
      </trkpt>
      <trkpt lat="43.04860241711139678955078125" lon="-1.36105318553745746612548828125">
        <ele>766.5999755859375</ele>
        <time>2020-08-22T06:48:47.000Z</time>
      </trkpt>
      <trkpt lat="43.04869201965630054473876953125" lon="-1.36096685193479061126708984375">
        <ele>766.4000244140625</ele>
        <time>2020-08-22T06:48:50.000Z</time>
      </trkpt>
      <trkpt lat="43.0487336777150630950927734375" lon="-1.36095662601292133331298828125">
        <ele>766.20001220703125</ele>
        <time>2020-08-22T06:48:51.000Z</time>
      </trkpt>
      <trkpt lat="43.04892285726964473724365234375" lon="-1.3609825260937213897705078125">
        <ele>765.4000244140625</ele>
        <time>2020-08-22T06:48:55.000Z</time>
      </trkpt>
      <trkpt lat="43.048971556127071380615234375" lon="-1.36100356467068195343017578125">
        <ele>765.20001220703125</ele>
        <time>2020-08-22T06:48:56.000Z</time>
      </trkpt>
      <trkpt lat="43.0490210093557834625244140625" lon="-1.36102862656116485595703125">
        <ele>765</ele>
        <time>2020-08-22T06:48:57.000Z</time>
      </trkpt>
      <trkpt lat="43.04917029105126857757568359375" lon="-1.36111387051641941070556640625">
        <ele>764.20001220703125</ele>
        <time>2020-08-22T06:49:00.000Z</time>
      </trkpt>
      <trkpt lat="43.04926534183323383331298828125" lon="-1.36119768954813480377197265625">
        <ele>763.5999755859375</ele>
        <time>2020-08-22T06:49:02.000Z</time>
      </trkpt>
      <trkpt lat="43.04936223663389682769775390625" lon="-1.361284442245960235595703125">
        <ele>763.20001220703125</ele>
        <time>2020-08-22T06:49:04.000Z</time>
      </trkpt>
      <trkpt lat="43.0494608916342258453369140625" lon="-1.36133833788335323333740234375">
        <ele>762.20001220703125</ele>
        <time>2020-08-22T06:49:06.000Z</time>
      </trkpt>
      <trkpt lat="43.0495118536055088043212890625" lon="-1.3613565266132354736328125">
        <ele>762</ele>
        <time>2020-08-22T06:49:07.000Z</time>
      </trkpt>
      <trkpt lat="43.04956323467195034027099609375" lon="-1.361369602382183074951171875">
        <ele>761.79998779296875</ele>
        <time>2020-08-22T06:49:08.000Z</time>
      </trkpt>
      <trkpt lat="43.04966633208096027374267578125" lon="-1.36137999594211578369140625">
        <ele>761.5999755859375</ele>
        <time>2020-08-22T06:49:10.000Z</time>
      </trkpt>
      <trkpt lat="43.04972148500382900238037109375" lon="-1.36137706227600574493408203125">
        <ele>761.20001220703125</ele>
        <time>2020-08-22T06:49:11.000Z</time>
      </trkpt>
      <trkpt lat="43.0497726984322071075439453125" lon="-1.36136985383927822113037109375">
        <ele>761</ele>
        <time>2020-08-22T06:49:12.000Z</time>
      </trkpt>
      <trkpt lat="43.04982257075607776641845703125" lon="-1.3613573648035526275634765625">
        <ele>760.5999755859375</ele>
        <time>2020-08-22T06:49:13.000Z</time>
      </trkpt>
      <trkpt lat="43.04997746832668781280517578125" lon="-1.36130296625196933746337890625">
        <ele>759.79998779296875</ele>
        <time>2020-08-22T06:49:16.000Z</time>
      </trkpt>
      <trkpt lat="43.05002742446959018707275390625" lon="-1.3612882979214191436767578125">
        <ele>759.5999755859375</ele>
        <time>2020-08-22T06:49:17.000Z</time>
      </trkpt>
      <trkpt lat="43.05018450133502483367919921875" lon="-1.3612546026706695556640625">
        <ele>758.5999755859375</ele>
        <time>2020-08-22T06:49:20.000Z</time>
      </trkpt>
      <trkpt lat="43.05024183355271816253662109375" lon="-1.361246220767498016357421875">
        <ele>758.4000244140625</ele>
        <time>2020-08-22T06:49:21.000Z</time>
      </trkpt>
      <trkpt lat="43.05051558651030063629150390625" lon="-1.36120674200356006622314453125">
        <ele>757</ele>
        <time>2020-08-22T06:49:26.000Z</time>
      </trkpt>
      <trkpt lat="43.0505664646625518798828125" lon="-1.3612014614045619964599609375">
        <ele>756.5999755859375</ele>
        <time>2020-08-22T06:49:27.000Z</time>
      </trkpt>
      <trkpt lat="43.05061541497707366943359375" lon="-1.3611940853297710418701171875">
        <ele>756</ele>
        <time>2020-08-22T06:49:28.000Z</time>
      </trkpt>
      <trkpt lat="43.0507195182144641876220703125" lon="-1.361182518303394317626953125">
        <ele>755.4000244140625</ele>
        <time>2020-08-22T06:49:30.000Z</time>
      </trkpt>
      <trkpt lat="43.05082353763282299041748046875" lon="-1.3611768186092376708984375">
        <ele>755</ele>
        <time>2020-08-22T06:49:32.000Z</time>
      </trkpt>
      <trkpt lat="43.05087315849959850311279296875" lon="-1.3611843623220920562744140625">
        <ele>754.4000244140625</ele>
        <time>2020-08-22T06:49:33.000Z</time>
      </trkpt>
      <trkpt lat="43.05095446296036243438720703125" lon="-1.36122317053377628326416015625">
        <ele>753.4000244140625</ele>
        <time>2020-08-22T06:49:35.000Z</time>
      </trkpt>
      <trkpt lat="43.051037527620792388916015625" lon="-1.36125233955681324005126953125">
        <ele>753</ele>
        <time>2020-08-22T06:49:37.000Z</time>
      </trkpt>
      <trkpt lat="43.0511714704334735870361328125" lon="-1.3612859509885311126708984375">
        <ele>752</ele>
        <time>2020-08-22T06:49:40.000Z</time>
      </trkpt>
      <trkpt lat="43.05121446959674358367919921875" lon="-1.36131101287901401519775390625">
        <ele>751.20001220703125</ele>
        <time>2020-08-22T06:49:41.000Z</time>
      </trkpt>
      <trkpt lat="43.051254451274871826171875" lon="-1.3613446243107318878173828125">
        <ele>750.5999755859375</ele>
        <time>2020-08-22T06:49:42.000Z</time>
      </trkpt>
      <trkpt lat="43.05134229362010955810546875" lon="-1.36149373836815357208251953125">
        <ele>749.5999755859375</ele>
        <time>2020-08-22T06:49:45.000Z</time>
      </trkpt>
      <trkpt lat="43.0513635836541652679443359375" lon="-1.36155123822391033172607421875">
        <ele>749.20001220703125</ele>
        <time>2020-08-22T06:49:46.000Z</time>
      </trkpt>
      <trkpt lat="43.05142678320407867431640625" lon="-1.36171250604093074798583984375">
        <ele>748.4000244140625</ele>
        <time>2020-08-22T06:49:49.000Z</time>
      </trkpt>
      <trkpt lat="43.05147430859506130218505859375" lon="-1.36182247661054134368896484375">
        <ele>747.79998779296875</ele>
        <time>2020-08-22T06:49:51.000Z</time>
      </trkpt>
      <trkpt lat="43.05155150592327117919921875" lon="-1.3619707524776458740234375">
        <ele>747.20001220703125</ele>
        <time>2020-08-22T06:49:54.000Z</time>
      </trkpt>
      <trkpt lat="43.05157472379505634307861328125" lon="-1.36202037334442138671875">
        <ele>747</ele>
        <time>2020-08-22T06:49:55.000Z</time>
      </trkpt>
      <trkpt lat="43.0515986122190952301025390625" lon="-1.36208281852304935455322265625">
        <ele>746.79998779296875</ele>
        <time>2020-08-22T06:49:56.000Z</time>
      </trkpt>
      <trkpt lat="43.05164831690490245819091796875" lon="-1.36219362728297710418701171875">
        <ele>746.5999755859375</ele>
        <time>2020-08-22T06:49:58.000Z</time>
      </trkpt>
      <trkpt lat="43.05169726721942424774169921875" lon="-1.362309046089649200439453125">
        <ele>746.5999755859375</ele>
        <time>2020-08-22T06:50:00.000Z</time>
      </trkpt>
      <trkpt lat="43.05176884867250919342041015625" lon="-1.362387500703334808349609375">
        <ele>746.20001220703125</ele>
        <time>2020-08-22T06:50:02.000Z</time>
      </trkpt>
      <trkpt lat="43.0518038012087345123291015625" lon="-1.36240049265325069427490234375">
        <ele>746</ele>
        <time>2020-08-22T06:50:03.000Z</time>
      </trkpt>
      <trkpt lat="43.051866330206394195556640625" lon="-1.3623675517737865447998046875">
        <ele>745.20001220703125</ele>
        <time>2020-08-22T06:50:05.000Z</time>
      </trkpt>
      <trkpt lat="43.05188544094562530517578125" lon="-1.3623397238552570343017578125">
        <ele>745</ele>
        <time>2020-08-22T06:50:06.000Z</time>
      </trkpt>
      <trkpt lat="43.05192911066114902496337890625" lon="-1.36219161562621593475341796875">
        <ele>744.79998779296875</ele>
        <time>2020-08-22T06:50:10.000Z</time>
      </trkpt>
      <trkpt lat="43.0519379116594791412353515625" lon="-1.362146772444248199462890625">
        <ele>744.79998779296875</ele>
        <time>2020-08-22T06:50:11.000Z</time>
      </trkpt>
      <trkpt lat="43.051967918872833251953125" lon="-1.36201593093574047088623046875">
        <ele>744.20001220703125</ele>
        <time>2020-08-22T06:50:14.000Z</time>
      </trkpt>
      <trkpt lat="43.05199130438268184661865234375" lon="-1.36188869364559650421142578125">
        <ele>744</ele>
        <time>2020-08-22T06:50:17.000Z</time>
      </trkpt>
      <trkpt lat="43.0520425178110599517822265625" lon="-1.36171929538249969482421875">
        <ele>743.20001220703125</ele>
        <time>2020-08-22T06:50:21.000Z</time>
      </trkpt>
      <trkpt lat="43.052121140062808990478515625" lon="-1.3615444488823413848876953125">
        <ele>742</ele>
        <time>2020-08-22T06:50:24.000Z</time>
      </trkpt>
      <trkpt lat="43.05219900794327259063720703125" lon="-1.3614183850586414337158203125">
        <ele>740.79998779296875</ele>
        <time>2020-08-22T06:50:26.000Z</time>
      </trkpt>
      <trkpt lat="43.05228567682206630706787109375" lon="-1.3613216578960418701171875">
        <ele>739.79998779296875</ele>
        <time>2020-08-22T06:50:28.000Z</time>
      </trkpt>
      <trkpt lat="43.05238693021237850189208984375" lon="-1.3612648285925388336181640625">
        <ele>738.5999755859375</ele>
        <time>2020-08-22T06:50:30.000Z</time>
      </trkpt>
      <trkpt lat="43.052498660981655120849609375" lon="-1.36122442781925201416015625">
        <ele>737.5999755859375</ele>
        <time>2020-08-22T06:50:32.000Z</time>
      </trkpt>
      <trkpt lat="43.05255792103707790374755859375" lon="-1.3612061552703380584716796875">
        <ele>736.79998779296875</ele>
        <time>2020-08-22T06:50:33.000Z</time>
      </trkpt>
      <trkpt lat="43.052618689835071563720703125" lon="-1.3611890561878681182861328125">
        <ele>735.79998779296875</ele>
        <time>2020-08-22T06:50:34.000Z</time>
      </trkpt>
      <trkpt lat="43.05268096737563610076904296875" lon="-1.361178494989871978759765625">
        <ele>735</ele>
        <time>2020-08-22T06:50:35.000Z</time>
      </trkpt>
      <trkpt lat="43.05274114944040775299072265625" lon="-1.361173801124095916748046875">
        <ele>734.20001220703125</ele>
        <time>2020-08-22T06:50:36.000Z</time>
      </trkpt>
      <trkpt lat="43.05291532538831233978271484375" lon="-1.361163742840290069580078125">
        <ele>733</ele>
        <time>2020-08-22T06:50:39.000Z</time>
      </trkpt>
      <trkpt lat="43.05297416634857654571533203125" lon="-1.36115997098386287689208984375">
        <ele>732.5999755859375</ele>
        <time>2020-08-22T06:50:40.000Z</time>
      </trkpt>
      <trkpt lat="43.053083382546901702880859375" lon="-1.3611893914639949798583984375">
        <ele>731.5999755859375</ele>
        <time>2020-08-22T06:50:42.000Z</time>
      </trkpt>
      <trkpt lat="43.0531308241188526153564453125" lon="-1.3612232543528079986572265625">
        <ele>731</ele>
        <time>2020-08-22T06:50:43.000Z</time>
      </trkpt>
      <trkpt lat="43.0532122962176799774169921875" lon="-1.361321322619915008544921875">
        <ele>730.5999755859375</ele>
        <time>2020-08-22T06:50:45.000Z</time>
      </trkpt>
      <trkpt lat="43.053277172148227691650390625" lon="-1.361424587666988372802734375">
        <ele>729.5999755859375</ele>
        <time>2020-08-22T06:50:47.000Z</time>
      </trkpt>
      <trkpt lat="43.05338186211884021759033203125" lon="-1.361525170505046844482421875">
        <ele>728.4000244140625</ele>
        <time>2020-08-22T06:50:51.000Z</time>
      </trkpt>
      <trkpt lat="43.0534607358276844024658203125" lon="-1.36141176335513591766357421875">
        <ele>727.79998779296875</ele>
        <time>2020-08-22T06:50:55.000Z</time>
      </trkpt>
      <trkpt lat="43.05350189097225666046142578125" lon="-1.36125259101390838623046875">
        <ele>727.20001220703125</ele>
        <time>2020-08-22T06:50:59.000Z</time>
      </trkpt>
      <trkpt lat="43.0535160563886165618896484375" lon="-1.3612031377851963043212890625">
        <ele>727</ele>
        <time>2020-08-22T06:51:00.000Z</time>
      </trkpt>
      <trkpt lat="43.053535334765911102294921875" lon="-1.36115309782326221466064453125">
        <ele>726.5999755859375</ele>
        <time>2020-08-22T06:51:01.000Z</time>
      </trkpt>
      <trkpt lat="43.053646646440029144287109375" lon="-1.3610163889825344085693359375">
        <ele>726.20001220703125</ele>
        <time>2020-08-22T06:51:04.000Z</time>
      </trkpt>
      <trkpt lat="43.0536964349448680877685546875" lon="-1.36098143644630908966064453125">
        <ele>726.20001220703125</ele>
        <time>2020-08-22T06:51:05.000Z</time>
      </trkpt>
      <trkpt lat="43.053871951997280120849609375" lon="-1.36091371066868305206298828125">
        <ele>725.4000244140625</ele>
        <time>2020-08-22T06:51:08.000Z</time>
      </trkpt>
      <trkpt lat="43.05393590591847896575927734375" lon="-1.36089988052845001220703125">
        <ele>724.79998779296875</ele>
        <time>2020-08-22T06:51:09.000Z</time>
      </trkpt>
      <trkpt lat="43.05407688952982425689697265625" lon="-1.36088353581726551055908203125">
        <ele>723.4000244140625</ele>
        <time>2020-08-22T06:51:11.000Z</time>
      </trkpt>
      <trkpt lat="43.05413371883332729339599609375" lon="-1.36089443229138851165771484375">
        <ele>722.79998779296875</ele>
        <time>2020-08-22T06:51:12.000Z</time>
      </trkpt>
      <trkpt lat="43.05428660474717617034912109375" lon="-1.36098437011241912841796875">
        <ele>722.4000244140625</ele>
        <time>2020-08-22T06:51:15.000Z</time>
      </trkpt>
      <trkpt lat="43.05432901717722415924072265625" lon="-1.3610291294753551483154296875">
        <ele>722.20001220703125</ele>
        <time>2020-08-22T06:51:16.000Z</time>
      </trkpt>
      <trkpt lat="43.05446916259825229644775390625" lon="-1.3612564466893672943115234375">
        <ele>721.20001220703125</ele>
        <time>2020-08-22T06:51:20.000Z</time>
      </trkpt>
      <trkpt lat="43.0545091442763805389404296875" lon="-1.36130330152809619903564453125">
        <ele>721</ele>
        <time>2020-08-22T06:51:21.000Z</time>
      </trkpt>
      <trkpt lat="43.054637722671031951904296875" lon="-1.3613526709377765655517578125">
        <ele>719.5999755859375</ele>
        <time>2020-08-22T06:51:24.000Z</time>
      </trkpt>
      <trkpt lat="43.05468105711042881011962890625" lon="-1.3613553531467914581298828125">
        <ele>719.20001220703125</ele>
        <time>2020-08-22T06:51:25.000Z</time>
      </trkpt>
      <trkpt lat="43.05472648702561855316162109375" lon="-1.3613484799861907958984375">
        <ele>719</ele>
        <time>2020-08-22T06:51:26.000Z</time>
      </trkpt>
      <trkpt lat="43.0547790415585041046142578125" lon="-1.361337415874004364013671875">
        <ele>718.5999755859375</ele>
        <time>2020-08-22T06:51:27.000Z</time>
      </trkpt>
      <trkpt lat="43.0548980645835399627685546875" lon="-1.36130581609904766082763671875">
        <ele>718</ele>
        <time>2020-08-22T06:51:29.000Z</time>
      </trkpt>
      <trkpt lat="43.05502605624496936798095703125" lon="-1.36126155965030193328857421875">
        <ele>717.4000244140625</ele>
        <time>2020-08-22T06:51:31.000Z</time>
      </trkpt>
      <trkpt lat="43.0551193468272686004638671875" lon="-1.36122182942926883697509765625">
        <ele>717</ele>
        <time>2020-08-22T06:51:33.000Z</time>
      </trkpt>
      <trkpt lat="43.05516117252409458160400390625" lon="-1.361193917691707611083984375">
        <ele>716.79998779296875</ele>
        <time>2020-08-22T06:51:34.000Z</time>
      </trkpt>
      <trkpt lat="43.05525387637317180633544921875" lon="-1.36111387051641941070556640625">
        <ele>716</ele>
        <time>2020-08-22T06:51:36.000Z</time>
      </trkpt>
      <trkpt lat="43.0552940256893634796142578125" lon="-1.36107129044830799102783203125">
        <ele>715.4000244140625</ele>
        <time>2020-08-22T06:51:37.000Z</time>
      </trkpt>
      <trkpt lat="43.0553392879664897918701171875" lon="-1.361030302941799163818359375">
        <ele>714.79998779296875</ele>
        <time>2020-08-22T06:51:38.000Z</time>
      </trkpt>
      <trkpt lat="43.055449090898036956787109375" lon="-1.36092938482761383056640625">
        <ele>713.79998779296875</ele>
        <time>2020-08-22T06:51:41.000Z</time>
      </trkpt>
      <trkpt lat="43.05548840202391147613525390625" lon="-1.36091337539255619049072265625">
        <ele>713.5999755859375</ele>
        <time>2020-08-22T06:51:42.000Z</time>
      </trkpt>
      <trkpt lat="43.055560402572154998779296875" lon="-1.3609137944877147674560546875">
        <ele>713.5999755859375</ele>
        <time>2020-08-22T06:51:44.000Z</time>
      </trkpt>
      <trkpt lat="43.05562150664627552032470703125" lon="-1.36099635623395442962646484375">
        <ele>713.4000244140625</ele>
        <time>2020-08-22T06:51:48.000Z</time>
      </trkpt>
      <trkpt lat="43.05562578141689300537109375" lon="-1.36103399097919464111328125">
        <ele>713.4000244140625</ele>
        <time>2020-08-22T06:51:49.000Z</time>
      </trkpt>
      <trkpt lat="43.05565620772540569305419921875" lon="-1.361296512186527252197265625">
        <ele>713.4000244140625</ele>
        <time>2020-08-22T06:51:55.000Z</time>
      </trkpt>
      <trkpt lat="43.055711947381496429443359375" lon="-1.3615228235721588134765625">
        <ele>714</ele>
        <time>2020-08-22T06:52:00.000Z</time>
      </trkpt>
      <trkpt lat="43.05575058795511722564697265625" lon="-1.36171032674610614776611328125">
        <ele>714</ele>
        <time>2020-08-22T06:52:05.000Z</time>
      </trkpt>
      <trkpt lat="43.0557939223945140838623046875" lon="-1.3619578443467617034912109375">
        <ele>714.79998779296875</ele>
        <time>2020-08-22T06:52:12.000Z</time>
      </trkpt>
      <trkpt lat="43.055823259055614471435546875" lon="-1.36200939305126667022705078125">
        <ele>714.79998779296875</ele>
        <time>2020-08-22T06:52:14.000Z</time>
      </trkpt>
      <trkpt lat="43.05588218383491039276123046875" lon="-1.36208198033273220062255859375">
        <ele>715</ele>
        <time>2020-08-22T06:52:17.000Z</time>
      </trkpt>
      <trkpt lat="43.055998273193836212158203125" lon="-1.3621046952903270721435546875">
        <ele>713.79998779296875</ele>
        <time>2020-08-22T06:52:21.000Z</time>
      </trkpt>
      <trkpt lat="43.0561288632452487945556640625" lon="-1.36213646270334720611572265625">
        <ele>712.79998779296875</ele>
        <time>2020-08-22T06:52:25.000Z</time>
      </trkpt>
      <trkpt lat="43.05625903420150279998779296875" lon="-1.36224039830267429351806640625">
        <ele>711.4000244140625</ele>
        <time>2020-08-22T06:52:29.000Z</time>
      </trkpt>
      <trkpt lat="43.05628635920584201812744140625" lon="-1.36228079907596111297607421875">
        <ele>711</ele>
        <time>2020-08-22T06:52:30.000Z</time>
      </trkpt>
      <trkpt lat="43.05632659234106540679931640625" lon="-1.36237853206694126129150390625">
        <ele>710.4000244140625</ele>
        <time>2020-08-22T06:52:32.000Z</time>
      </trkpt>
      <trkpt lat="43.05635341443121433258056640625" lon="-1.36248548515141010284423828125">
        <ele>709.20001220703125</ele>
        <time>2020-08-22T06:52:34.000Z</time>
      </trkpt>
      <trkpt lat="43.05642231367528438568115234375" lon="-1.3625983893871307373046875">
        <ele>708.20001220703125</ele>
        <time>2020-08-22T06:52:37.000Z</time>
      </trkpt>
      <trkpt lat="43.05645366199314594268798828125" lon="-1.3626206852495670318603515625">
        <ele>708.20001220703125</ele>
        <time>2020-08-22T06:52:38.000Z</time>
      </trkpt>
      <trkpt lat="43.056522309780120849609375" lon="-1.3626263849437236785888671875">
        <ele>707.20001220703125</ele>
        <time>2020-08-22T06:52:40.000Z</time>
      </trkpt>
      <trkpt lat="43.0565801449120044708251953125" lon="-1.3625941984355449676513671875">
        <ele>706.5999755859375</ele>
        <time>2020-08-22T06:52:42.000Z</time>
      </trkpt>
      <trkpt lat="43.05667586624622344970703125" lon="-1.3625125586986541748046875">
        <ele>706.20001220703125</ele>
        <time>2020-08-22T06:52:45.000Z</time>
      </trkpt>
      <trkpt lat="43.0567739345133304595947265625" lon="-1.36242915876209735870361328125">
        <ele>706</ele>
        <time>2020-08-22T06:52:47.000Z</time>
      </trkpt>
      <trkpt lat="43.05681458674371242523193359375" lon="-1.3623997382819652557373046875">
        <ele>706</ele>
        <time>2020-08-22T06:52:48.000Z</time>
      </trkpt>
      <trkpt lat="43.056899495422840118408203125" lon="-1.36235388927161693572998046875">
        <ele>705.79998779296875</ele>
        <time>2020-08-22T06:52:50.000Z</time>
      </trkpt>
      <trkpt lat="43.05694450624287128448486328125" lon="-1.362360008060932159423828125">
        <ele>705.4000244140625</ele>
        <time>2020-08-22T06:52:51.000Z</time>
      </trkpt>
      <trkpt lat="43.05698993615806102752685546875" lon="-1.36237551458179950714111328125">
        <ele>705</ele>
        <time>2020-08-22T06:52:52.000Z</time>
      </trkpt>
      <trkpt lat="43.05702916346490383148193359375" lon="-1.36240082792937755584716796875">
        <ele>704.5999755859375</ele>
        <time>2020-08-22T06:52:53.000Z</time>
      </trkpt>
      <trkpt lat="43.05710342712700366973876953125" lon="-1.3624560646712779998779296875">
        <ele>703.79998779296875</ele>
        <time>2020-08-22T06:52:55.000Z</time>
      </trkpt>
      <trkpt lat="43.05713628418743610382080078125" lon="-1.3624895922839641571044921875">
        <ele>703.20001220703125</ele>
        <time>2020-08-22T06:52:56.000Z</time>
      </trkpt>
      <trkpt lat="43.05724558420479297637939453125" lon="-1.36259042657911777496337890625">
        <ele>702.4000244140625</ele>
        <time>2020-08-22T06:52:59.000Z</time>
      </trkpt>
      <trkpt lat="43.0573390424251556396484375" lon="-1.36264122091233730316162109375">
        <ele>701.79998779296875</ele>
        <time>2020-08-22T06:53:01.000Z</time>
      </trkpt>
      <trkpt lat="43.057388998568058013916015625" lon="-1.36266133747994899749755859375">
        <ele>702</ele>
        <time>2020-08-22T06:53:02.000Z</time>
      </trkpt>
      <trkpt lat="43.05753677152097225189208984375" lon="-1.3627135567367076873779296875">
        <ele>701.4000244140625</ele>
        <time>2020-08-22T06:53:05.000Z</time>
      </trkpt>
      <trkpt lat="43.0576332472264766693115234375" lon="-1.36275337077677249908447265625">
        <ele>701</ele>
        <time>2020-08-22T06:53:07.000Z</time>
      </trkpt>
      <trkpt lat="43.05773508735001087188720703125" lon="-1.36279025115072727203369140625">
        <ele>700.4000244140625</ele>
        <time>2020-08-22T06:53:09.000Z</time>
      </trkpt>
      <trkpt lat="43.05778361856937408447265625" lon="-1.36280634440481662750244140625">
        <ele>700.4000244140625</ele>
        <time>2020-08-22T06:53:10.000Z</time>
      </trkpt>
      <trkpt lat="43.05800783447921276092529296875" lon="-1.3628516905009746551513671875">
        <ele>698.79998779296875</ele>
        <time>2020-08-22T06:53:15.000Z</time>
      </trkpt>
      <trkpt lat="43.05804605595767498016357421875" lon="-1.36285177432000637054443359375">
        <ele>698.20001220703125</ele>
        <time>2020-08-22T06:53:16.000Z</time>
      </trkpt>
      <trkpt lat="43.058093748986721038818359375" lon="-1.36284858919680118560791015625">
        <ele>697.79998779296875</ele>
        <time>2020-08-22T06:53:17.000Z</time>
      </trkpt>
      <trkpt lat="43.0581837706267833709716796875" lon="-1.3628419674932956695556640625">
        <ele>696.5999755859375</ele>
        <time>2020-08-22T06:53:19.000Z</time>
      </trkpt>
      <trkpt lat="43.05822643451392650604248046875" lon="-1.3628349266946315765380859375">
        <ele>696.20001220703125</ele>
        <time>2020-08-22T06:53:20.000Z</time>
      </trkpt>
      <trkpt lat="43.0582729540765285491943359375" lon="-1.36282243765890598297119140625">
        <ele>696</ele>
        <time>2020-08-22T06:53:21.000Z</time>
      </trkpt>
      <trkpt lat="43.058354593813419342041015625" lon="-1.36276544071733951568603515625">
        <ele>695.20001220703125</ele>
        <time>2020-08-22T06:53:23.000Z</time>
      </trkpt>
      <trkpt lat="43.05839776061475276947021484375" lon="-1.36273057200014591217041015625">
        <ele>694.79998779296875</ele>
        <time>2020-08-22T06:53:24.000Z</time>
      </trkpt>
      <trkpt lat="43.05844075977802276611328125" lon="-1.3626904226839542388916015625">
        <ele>694.5999755859375</ele>
        <time>2020-08-22T06:53:25.000Z</time>
      </trkpt>
      <trkpt lat="43.05848644115030765533447265625" lon="-1.3626478426158428192138671875">
        <ele>694.20001220703125</ele>
        <time>2020-08-22T06:53:26.000Z</time>
      </trkpt>
      <trkpt lat="43.0585740320384502410888671875" lon="-1.36255857534706592559814453125">
        <ele>693.4000244140625</ele>
        <time>2020-08-22T06:53:28.000Z</time>
      </trkpt>
      <trkpt lat="43.05861971341073513031005859375" lon="-1.36251012794673442840576171875">
        <ele>693.20001220703125</ele>
        <time>2020-08-22T06:53:29.000Z</time>
      </trkpt>
      <trkpt lat="43.05875114165246486663818359375" lon="-1.36237635277211666107177734375">
        <ele>691.79998779296875</ele>
        <time>2020-08-22T06:53:32.000Z</time>
      </trkpt>
      <trkpt lat="43.05883194319903850555419921875" lon="-1.36231650598347187042236328125">
        <ele>691</ele>
        <time>2020-08-22T06:53:34.000Z</time>
      </trkpt>
      <trkpt lat="43.0588720925152301788330078125" lon="-1.3622988201677799224853515625">
        <ele>690.5999755859375</ele>
        <time>2020-08-22T06:53:35.000Z</time>
      </trkpt>
      <trkpt lat="43.0590068735182285308837890625" lon="-1.36227979324758052825927734375">
        <ele>690</ele>
        <time>2020-08-22T06:53:38.000Z</time>
      </trkpt>
      <trkpt lat="43.05905322544276714324951171875" lon="-1.362278200685977935791015625">
        <ele>689.79998779296875</ele>
        <time>2020-08-22T06:53:39.000Z</time>
      </trkpt>
      <trkpt lat="43.05909630842506885528564453125" lon="-1.3622872531414031982421875">
        <ele>689.5999755859375</ele>
        <time>2020-08-22T06:53:40.000Z</time>
      </trkpt>
      <trkpt lat="43.05922664701938629150390625" lon="-1.36234148405492305755615234375">
        <ele>688.4000244140625</ele>
        <time>2020-08-22T06:53:43.000Z</time>
      </trkpt>
      <trkpt lat="43.0593076162040233612060546875" lon="-1.36238976381719112396240234375">
        <ele>687.4000244140625</ele>
        <time>2020-08-22T06:53:45.000Z</time>
      </trkpt>
      <trkpt lat="43.05937014520168304443359375" lon="-1.36243502609431743621826171875">
        <ele>686.4000244140625</ele>
        <time>2020-08-22T06:53:47.000Z</time>
      </trkpt>
      <trkpt lat="43.0594003200531005859375" lon="-1.36245665140450000762939453125">
        <ele>686.20001220703125</ele>
        <time>2020-08-22T06:53:48.000Z</time>
      </trkpt>
      <trkpt lat="43.05949931032955646514892578125" lon="-1.362526975572109222412109375">
        <ele>685.5999755859375</ele>
        <time>2020-08-22T06:53:51.000Z</time>
      </trkpt>
      <trkpt lat="43.0595384538173675537109375" lon="-1.36255203746259212493896484375">
        <ele>685</ele>
        <time>2020-08-22T06:53:52.000Z</time>
      </trkpt>
      <trkpt lat="43.05957533419132232666015625" lon="-1.36257626116275787353515625">
        <ele>684.5999755859375</ele>
        <time>2020-08-22T06:53:53.000Z</time>
      </trkpt>
      <trkpt lat="43.0596596561372280120849609375" lon="-1.3626180030405521392822265625">
        <ele>683.79998779296875</ele>
        <time>2020-08-22T06:53:55.000Z</time>
      </trkpt>
      <trkpt lat="43.0597047507762908935546875" lon="-1.36263418011367321014404296875">
        <ele>683.4000244140625</ele>
        <time>2020-08-22T06:53:56.000Z</time>
      </trkpt>
      <trkpt lat="43.059794269502162933349609375" lon="-1.3626676239073276519775390625">
        <ele>682.5999755859375</ele>
        <time>2020-08-22T06:53:58.000Z</time>
      </trkpt>
      <trkpt lat="43.0598423816263675689697265625" lon="-1.362685896456241607666015625">
        <ele>682.20001220703125</ele>
        <time>2020-08-22T06:53:59.000Z</time>
      </trkpt>
      <trkpt lat="43.05995696224272251129150390625" lon="-1.362750269472599029541015625">
        <ele>681.5999755859375</ele>
        <time>2020-08-22T06:54:02.000Z</time>
      </trkpt>
      <trkpt lat="43.05998596362769603729248046875" lon="-1.362774409353733062744140625">
        <ele>681.20001220703125</ele>
        <time>2020-08-22T06:54:03.000Z</time>
      </trkpt>
      <trkpt lat="43.0600680224597454071044921875" lon="-1.36287264525890350341796875">
        <ele>680.79998779296875</ele>
        <time>2020-08-22T06:54:06.000Z</time>
      </trkpt>
      <trkpt lat="43.06008671410381793975830078125" lon="-1.3629227690398693084716796875">
        <ele>680.4000244140625</ele>
        <time>2020-08-22T06:54:07.000Z</time>
      </trkpt>
      <trkpt lat="43.06014002300798892974853515625" lon="-1.3630723021924495697021484375">
        <ele>679</ele>
        <time>2020-08-22T06:54:10.000Z</time>
      </trkpt>
      <trkpt lat="43.06018109433352947235107421875" lon="-1.3631494157016277313232421875">
        <ele>678.4000244140625</ele>
        <time>2020-08-22T06:54:12.000Z</time>
      </trkpt>
      <trkpt lat="43.06021478958427906036376953125" lon="-1.3632151298224925994873046875">
        <ele>678</ele>
        <time>2020-08-22T06:54:14.000Z</time>
      </trkpt>
      <trkpt lat="43.06023071520030498504638671875" lon="-1.363255195319652557373046875">
        <ele>677.79998779296875</ele>
        <time>2020-08-22T06:54:15.000Z</time>
      </trkpt>
      <trkpt lat="43.0602567829191684722900390625" lon="-1.36329350061714649200439453125">
        <ele>677.4000244140625</ele>
        <time>2020-08-22T06:54:16.000Z</time>
      </trkpt>
      <trkpt lat="43.06034923531115055084228515625" lon="-1.36337681673467159271240234375">
        <ele>677</ele>
        <time>2020-08-22T06:54:19.000Z</time>
      </trkpt>
      <trkpt lat="43.0603788234293460845947265625" lon="-1.36336893774569034576416015625">
        <ele>676.5999755859375</ele>
        <time>2020-08-22T06:54:20.000Z</time>
      </trkpt>
      <trkpt lat="43.06047999300062656402587890625" lon="-1.3633039779961109161376953125">
        <ele>676.4000244140625</ele>
        <time>2020-08-22T06:54:23.000Z</time>
      </trkpt>
      <trkpt lat="43.060555346310138702392578125" lon="-1.36324572376906871795654296875">
        <ele>675.5999755859375</ele>
        <time>2020-08-22T06:54:25.000Z</time>
      </trkpt>
      <trkpt lat="43.0606239102780818939208984375" lon="-1.3631876371800899505615234375">
        <ele>674.79998779296875</ele>
        <time>2020-08-22T06:54:27.000Z</time>
      </trkpt>
      <trkpt lat="43.060658276081085205078125" lon="-1.36315695941448211669921875">
        <ele>674.20001220703125</ele>
        <time>2020-08-22T06:54:28.000Z</time>
      </trkpt>
      <trkpt lat="43.06076531298458576202392578125" lon="-1.363054700195789337158203125">
        <ele>673</ele>
        <time>2020-08-22T06:54:31.000Z</time>
      </trkpt>
      <trkpt lat="43.06084644980728626251220703125" lon="-1.362991668283939361572265625">
        <ele>671.79998779296875</ele>
        <time>2020-08-22T06:54:33.000Z</time>
      </trkpt>
      <trkpt lat="43.06088902987539768218994140625" lon="-1.3629660196602344512939453125">
        <ele>671.4000244140625</ele>
        <time>2020-08-22T06:54:34.000Z</time>
      </trkpt>
      <trkpt lat="43.0610336177051067352294921875" lon="-1.36292050592601299285888671875">
        <ele>670.5999755859375</ele>
        <time>2020-08-22T06:54:37.000Z</time>
      </trkpt>
      <trkpt lat="43.061141408979892730712890625" lon="-1.3629083521664142608642578125">
        <ele>669.5999755859375</ele>
        <time>2020-08-22T06:54:39.000Z</time>
      </trkpt>
      <trkpt lat="43.0611960589885711669921875" lon="-1.36290390975773334503173828125">
        <ele>669.4000244140625</ele>
        <time>2020-08-22T06:54:40.000Z</time>
      </trkpt>
      <trkpt lat="43.06125305593013763427734375" lon="-1.36290072463452816009521484375">
        <ele>669</ele>
        <time>2020-08-22T06:54:41.000Z</time>
      </trkpt>
      <trkpt lat="43.06142647750675678253173828125" lon="-1.362906508147716522216796875">
        <ele>668.20001220703125</ele>
        <time>2020-08-22T06:54:44.000Z</time>
      </trkpt>
      <trkpt lat="43.061480708420276641845703125" lon="-1.3629175722599029541015625">
        <ele>667.79998779296875</ele>
        <time>2020-08-22T06:54:45.000Z</time>
      </trkpt>
      <trkpt lat="43.0615814588963985443115234375" lon="-1.362945735454559326171875">
        <ele>666.5999755859375</ele>
        <time>2020-08-22T06:54:47.000Z</time>
      </trkpt>
      <trkpt lat="43.0616763420403003692626953125" lon="-1.36297347955405712127685546875">
        <ele>665.4000244140625</ele>
        <time>2020-08-22T06:54:49.000Z</time>
      </trkpt>
      <trkpt lat="43.0617283098399639129638671875" lon="-1.3629955239593982696533203125">
        <ele>664.79998779296875</ele>
        <time>2020-08-22T06:54:50.000Z</time>
      </trkpt>
      <trkpt lat="43.06177784688770771026611328125" lon="-1.36301941238343715667724609375">
        <ele>664.4000244140625</ele>
        <time>2020-08-22T06:54:51.000Z</time>
      </trkpt>
      <trkpt lat="43.06186250410974025726318359375" lon="-1.36307288892567157745361328125">
        <ele>663.5999755859375</ele>
        <time>2020-08-22T06:54:53.000Z</time>
      </trkpt>
      <trkpt lat="43.0618925951421260833740234375" lon="-1.3631105236709117889404296875">
        <ele>663.20001220703125</ele>
        <time>2020-08-22T06:54:54.000Z</time>
      </trkpt>
      <trkpt lat="43.06194045580923557281494140625" lon="-1.36320381425321102142333984375">
        <ele>662.5999755859375</ele>
        <time>2020-08-22T06:54:56.000Z</time>
      </trkpt>
      <trkpt lat="43.06195981800556182861328125" lon="-1.36331412009894847869873046875">
        <ele>662.20001220703125</ele>
        <time>2020-08-22T06:54:58.000Z</time>
      </trkpt>
      <trkpt lat="43.061999045312404632568359375" lon="-1.36357513256371021270751953125">
        <ele>661</ele>
        <time>2020-08-22T06:55:03.000Z</time>
      </trkpt>
      <trkpt lat="43.0620099417865276336669921875" lon="-1.36362492106854915618896484375">
        <ele>661</ele>
        <time>2020-08-22T06:55:04.000Z</time>
      </trkpt>
      <trkpt lat="43.0620743148028850555419921875" lon="-1.363742016255855560302734375">
        <ele>660.20001220703125</ele>
        <time>2020-08-22T06:55:07.000Z</time>
      </trkpt>
      <trkpt lat="43.0621051602065563201904296875" lon="-1.3637629710137844085693359375">
        <ele>660</ele>
        <time>2020-08-22T06:55:08.000Z</time>
      </trkpt>
      <trkpt lat="43.062199540436267852783203125" lon="-1.36374972760677337646484375">
        <ele>659</ele>
        <time>2020-08-22T06:55:11.000Z</time>
      </trkpt>
      <trkpt lat="43.06222661398351192474365234375" lon="-1.36373388580977916717529296875">
        <ele>659</ele>
        <time>2020-08-22T06:55:12.000Z</time>
      </trkpt>
      <trkpt lat="43.06237111799418926239013671875" lon="-1.3636659085750579833984375">
        <ele>657.79998779296875</ele>
        <time>2020-08-22T06:55:16.000Z</time>
      </trkpt>
      <trkpt lat="43.06250841356813907623291015625" lon="-1.3636015355587005615234375">
        <ele>656.5999755859375</ele>
        <time>2020-08-22T06:55:19.000Z</time>
      </trkpt>
      <trkpt lat="43.0626637302339076995849609375" lon="-1.36353473179042339324951171875">
        <ele>655.79998779296875</ele>
        <time>2020-08-22T06:55:22.000Z</time>
      </trkpt>
      <trkpt lat="43.06271829642355442047119140625" lon="-1.36352584697306156158447265625">
        <ele>655.5999755859375</ele>
        <time>2020-08-22T06:55:23.000Z</time>
      </trkpt>
      <trkpt lat="43.0628712661564350128173828125" lon="-1.36351277120411396026611328125">
        <ele>654.4000244140625</ele>
        <time>2020-08-22T06:55:26.000Z</time>
      </trkpt>
      <trkpt lat="43.06291862390935420989990234375" lon="-1.3635071553289890289306640625">
        <ele>654.20001220703125</ele>
        <time>2020-08-22T06:55:27.000Z</time>
      </trkpt>
      <trkpt lat="43.06296304799616336822509765625" lon="-1.36349215172231197357177734375">
        <ele>653.79998779296875</ele>
        <time>2020-08-22T06:55:28.000Z</time>
      </trkpt>
      <trkpt lat="43.06305055506527423858642578125" lon="-1.363458372652530670166015625">
        <ele>653.4000244140625</ele>
        <time>2020-08-22T06:55:30.000Z</time>
      </trkpt>
      <trkpt lat="43.06308844126760959625244140625" lon="-1.3634447939693927764892578125">
        <ele>653</ele>
        <time>2020-08-22T06:55:31.000Z</time>
      </trkpt>
      <trkpt lat="43.0631371401250362396240234375" lon="-1.3634223304688930511474609375">
        <ele>652.20001220703125</ele>
        <time>2020-08-22T06:55:32.000Z</time>
      </trkpt>
      <trkpt lat="43.06319187395274639129638671875" lon="-1.36340112425386905670166015625">
        <ele>652</ele>
        <time>2020-08-22T06:55:33.000Z</time>
      </trkpt>
      <trkpt lat="43.063246943056583404541015625" lon="-1.36338469572365283966064453125">
        <ele>652</ele>
        <time>2020-08-22T06:55:34.000Z</time>
      </trkpt>
      <trkpt lat="43.06340955197811126708984375" lon="-1.36334781534969806671142578125">
        <ele>651.79998779296875</ele>
        <time>2020-08-22T06:55:37.000Z</time>
      </trkpt>
      <trkpt lat="43.06352354586124420166015625" lon="-1.36333457194268703460693359375">
        <ele>651.20001220703125</ele>
        <time>2020-08-22T06:55:39.000Z</time>
      </trkpt>
      <trkpt lat="43.0635790340602397918701171875" lon="-1.36332551948726177215576171875">
        <ele>650.5999755859375</ele>
        <time>2020-08-22T06:55:40.000Z</time>
      </trkpt>
      <trkpt lat="43.06374005042016506195068359375" lon="-1.3632848672568798065185546875">
        <ele>649.4000244140625</ele>
        <time>2020-08-22T06:55:43.000Z</time>
      </trkpt>
      <trkpt lat="43.06378698907792568206787109375" lon="-1.36327640153467655181884765625">
        <ele>649.20001220703125</ele>
        <time>2020-08-22T06:55:44.000Z</time>
      </trkpt>
      <trkpt lat="43.06383870542049407958984375" lon="-1.36326751671731472015380859375">
        <ele>648.79998779296875</ele>
        <time>2020-08-22T06:55:45.000Z</time>
      </trkpt>
      <trkpt lat="43.063893020153045654296875" lon="-1.36326290667057037353515625">
        <ele>648.4000244140625</ele>
        <time>2020-08-22T06:55:46.000Z</time>
      </trkpt>
      <trkpt lat="43.06406258605420589447021484375" lon="-1.36326022446155548095703125">
        <ele>647.20001220703125</ele>
        <time>2020-08-22T06:55:49.000Z</time>
      </trkpt>
      <trkpt lat="43.0641733109951019287109375" lon="-1.3632630743086338043212890625">
        <ele>646.79998779296875</ele>
        <time>2020-08-22T06:55:51.000Z</time>
      </trkpt>
      <trkpt lat="43.06422318331897258758544921875" lon="-1.3632647506892681121826171875">
        <ele>646.4000244140625</ele>
        <time>2020-08-22T06:55:52.000Z</time>
      </trkpt>
      <trkpt lat="43.06427414529025554656982421875" lon="-1.36326617561280727386474609375">
        <ele>645.5999755859375</ele>
        <time>2020-08-22T06:55:53.000Z</time>
      </trkpt>
      <trkpt lat="43.06441563181579113006591796875" lon="-1.36326282285153865814208984375">
        <ele>644.4000244140625</ele>
        <time>2020-08-22T06:55:56.000Z</time>
      </trkpt>
      <trkpt lat="43.06456835009157657623291015625" lon="-1.3633552752435207366943359375">
        <ele>643.5999755859375</ele>
        <time>2020-08-22T06:56:00.000Z</time>
      </trkpt>
      <trkpt lat="43.06464009918272495269775390625" lon="-1.363441608846187591552734375">
        <ele>643.20001220703125</ele>
        <time>2020-08-22T06:56:02.000Z</time>
      </trkpt>
      <trkpt lat="43.0647823400795459747314453125" lon="-1.3636006973683834075927734375">
        <ele>642</ele>
        <time>2020-08-22T06:56:06.000Z</time>
      </trkpt>
      <trkpt lat="43.06486322544515132904052734375" lon="-1.36364738456904888153076171875">
        <ele>642.20001220703125</ele>
        <time>2020-08-22T06:56:08.000Z</time>
      </trkpt>
      <trkpt lat="43.06494603864848613739013671875" lon="-1.36363782919943332672119140625">
        <ele>642.20001220703125</ele>
        <time>2020-08-22T06:56:10.000Z</time>
      </trkpt>
      <trkpt lat="43.06504528038203716278076171875" lon="-1.363497935235500335693359375">
        <ele>641.4000244140625</ele>
        <time>2020-08-22T06:56:14.000Z</time>
      </trkpt>
      <trkpt lat="43.06505517102777957916259765625" lon="-1.3634486496448516845703125">
        <ele>641.20001220703125</ele>
        <time>2020-08-22T06:56:15.000Z</time>
      </trkpt>
      <trkpt lat="43.06506045162677764892578125" lon="-1.36338737793266773223876953125">
        <ele>640.79998779296875</ele>
        <time>2020-08-22T06:56:16.000Z</time>
      </trkpt>
      <trkpt lat="43.06507076136767864227294921875" lon="-1.36325259692966938018798828125">
        <ele>640.20001220703125</ele>
        <time>2020-08-22T06:56:18.000Z</time>
      </trkpt>
      <trkpt lat="43.0650933086872100830078125" lon="-1.36304958723485469818115234375">
        <ele>638.20001220703125</ele>
        <time>2020-08-22T06:56:21.000Z</time>
      </trkpt>
      <trkpt lat="43.0651487968862056732177734375" lon="-1.36291866190731525421142578125">
        <ele>636.5999755859375</ele>
        <time>2020-08-22T06:56:23.000Z</time>
      </trkpt>
      <trkpt lat="43.0652185343205928802490234375" lon="-1.3628070987761020660400390625">
        <ele>636.20001220703125</ele>
        <time>2020-08-22T06:56:25.000Z</time>
      </trkpt>
      <trkpt lat="43.065289445221424102783203125" lon="-1.36271062307059764862060546875">
        <ele>635.20001220703125</ele>
        <time>2020-08-22T06:56:27.000Z</time>
      </trkpt>
      <trkpt lat="43.06532054208219051361083984375" lon="-1.362663768231868743896484375">
        <ele>634.79998779296875</ele>
        <time>2020-08-22T06:56:28.000Z</time>
      </trkpt>
      <trkpt lat="43.0653856694698333740234375" lon="-1.36255572549998760223388671875">
        <ele>633.79998779296875</ele>
        <time>2020-08-22T06:56:30.000Z</time>
      </trkpt>
      <trkpt lat="43.06542363949120044708251953125" lon="-1.3625040091574192047119140625">
        <ele>632.79998779296875</ele>
        <time>2020-08-22T06:56:31.000Z</time>
      </trkpt>
      <trkpt lat="43.0654679797589778900146484375" lon="-1.36245514266192913055419921875">
        <ele>632</ele>
        <time>2020-08-22T06:56:32.000Z</time>
      </trkpt>
      <trkpt lat="43.0655165947973728179931640625" lon="-1.3624238781630992889404296875">
        <ele>631.4000244140625</ele>
        <time>2020-08-22T06:56:33.000Z</time>
      </trkpt>
      <trkpt lat="43.06556730531156063079833984375" lon="-1.3624020852148532867431640625">
        <ele>631</ele>
        <time>2020-08-22T06:56:34.000Z</time>
      </trkpt>
      <trkpt lat="43.0656627751886844635009765625" lon="-1.362350620329380035400390625">
        <ele>630.5999755859375</ele>
        <time>2020-08-22T06:56:36.000Z</time>
      </trkpt>
      <trkpt lat="43.06575036607682704925537109375" lon="-1.362285912036895751953125">
        <ele>629.5999755859375</ele>
        <time>2020-08-22T06:56:38.000Z</time>
      </trkpt>
      <trkpt lat="43.0657958798110485076904296875" lon="-1.36224408634006977081298828125">
        <ele>628.79998779296875</ele>
        <time>2020-08-22T06:56:39.000Z</time>
      </trkpt>
      <trkpt lat="43.065841309726238250732421875" lon="-1.36219882406294345855712890625">
        <ele>628</ele>
        <time>2020-08-22T06:56:40.000Z</time>
      </trkpt>
      <trkpt lat="43.0658817104995250701904296875" lon="-1.3621486164629459381103515625">
        <ele>627.4000244140625</ele>
        <time>2020-08-22T06:56:41.000Z</time>
      </trkpt>
      <trkpt lat="43.0659242905676364898681640625" lon="-1.3620956428349018096923828125">
        <ele>627</ele>
        <time>2020-08-22T06:56:42.000Z</time>
      </trkpt>
      <trkpt lat="43.065968714654445648193359375" lon="-1.36204107664525508880615234375">
        <ele>626.79998779296875</ele>
        <time>2020-08-22T06:56:43.000Z</time>
      </trkpt>
      <trkpt lat="43.06601665914058685302734375" lon="-1.361987851560115814208984375">
        <ele>626.5999755859375</ele>
        <time>2020-08-22T06:56:44.000Z</time>
      </trkpt>
      <trkpt lat="43.06610860861837863922119140625" lon="-1.36189020238816738128662109375">
        <ele>626</ele>
        <time>2020-08-22T06:56:46.000Z</time>
      </trkpt>
      <trkpt lat="43.066198043525218963623046875" lon="-1.36179716326296329498291015625">
        <ele>624.79998779296875</ele>
        <time>2020-08-22T06:56:48.000Z</time>
      </trkpt>
      <trkpt lat="43.06639711372554302215576171875" lon="-1.36159851215779781341552734375">
        <ele>623.79998779296875</ele>
        <time>2020-08-22T06:56:53.000Z</time>
      </trkpt>
      <trkpt lat="43.066536001861095428466796875" lon="-1.3615296967327594757080078125">
        <ele>623.20001220703125</ele>
        <time>2020-08-22T06:56:56.000Z</time>
      </trkpt>
      <trkpt lat="43.06662593968212604522705078125" lon="-1.3614988513290882110595703125">
        <ele>623</ele>
        <time>2020-08-22T06:56:58.000Z</time>
      </trkpt>
      <trkpt lat="43.066668100655078887939453125" lon="-1.36148351244628429412841796875">
        <ele>623</ele>
        <time>2020-08-22T06:56:59.000Z</time>
      </trkpt>
      <trkpt lat="43.0668000318109989166259765625" lon="-1.3614532537758350372314453125">
        <ele>623.20001220703125</ele>
        <time>2020-08-22T06:57:03.000Z</time>
      </trkpt>
      <trkpt lat="43.0668422766029834747314453125" lon="-1.36145367287099361419677734375">
        <ele>623.5999755859375</ele>
        <time>2020-08-22T06:57:05.000Z</time>
      </trkpt>
      <trkpt lat="43.0669118463993072509765625" lon="-1.36144830845296382904052734375">
        <ele>623.4000244140625</ele>
        <time>2020-08-22T06:57:08.000Z</time>
      </trkpt>
      <trkpt lat="43.06704469956457614898681640625" lon="-1.36143456213176250457763671875">
        <ele>624</ele>
        <time>2020-08-22T06:57:13.000Z</time>
      </trkpt>
      <trkpt lat="43.06717109866440296173095703125" lon="-1.3614267669618129730224609375">
        <ele>624.20001220703125</ele>
        <time>2020-08-22T06:57:19.000Z</time>
      </trkpt>
      <trkpt lat="43.06725525297224521636962890625" lon="-1.36143053881824016571044921875">
        <ele>624.4000244140625</ele>
        <time>2020-08-22T06:57:23.000Z</time>
      </trkpt>
      <trkpt lat="43.06736924685537815093994140625" lon="-1.36138661764562129974365234375">
        <ele>625.4000244140625</ele>
        <time>2020-08-22T06:57:28.000Z</time>
      </trkpt>
      <trkpt lat="43.0673881061375141143798828125" lon="-1.3613788224756717681884765625">
        <ele>625.4000244140625</ele>
        <time>2020-08-22T06:57:29.000Z</time>
      </trkpt>
      <trkpt lat="43.06740713305771350860595703125" lon="-1.3613828457891941070556640625">
        <ele>625.4000244140625</ele>
        <time>2020-08-22T06:57:30.000Z</time>
      </trkpt>
      <trkpt lat="43.0674615316092967987060546875" lon="-1.3613597117364406585693359375">
        <ele>625.79998779296875</ele>
        <time>2020-08-22T06:57:33.000Z</time>
      </trkpt>
      <trkpt lat="43.06763176806271076202392578125" lon="-1.36127329431474208831787109375">
        <ele>626</ele>
        <time>2020-08-22T06:57:39.000Z</time>
      </trkpt>
      <trkpt lat="43.067675940692424774169921875" lon="-1.36125435121357440948486328125">
        <ele>626.4000244140625</ele>
        <time>2020-08-22T06:57:41.000Z</time>
      </trkpt>
      <trkpt lat="43.06770569644868373870849609375" lon="-1.3612393476068973541259765625">
        <ele>626.4000244140625</ele>
        <time>2020-08-22T06:57:42.000Z</time>
      </trkpt>
      <trkpt lat="43.06777191348373889923095703125" lon="-1.3612259365618228912353515625">
        <ele>626.4000244140625</ele>
        <time>2020-08-22T06:57:45.000Z</time>
      </trkpt>
      <trkpt lat="43.0679151602089405059814453125" lon="-1.36120431125164031982421875">
        <ele>627.4000244140625</ele>
        <time>2020-08-22T06:57:50.000Z</time>
      </trkpt>
      <trkpt lat="43.06811749935150146484375" lon="-1.36118696071207523345947265625">
        <ele>627.5999755859375</ele>
        <time>2020-08-22T06:57:57.000Z</time>
      </trkpt>
      <trkpt lat="43.068152032792568206787109375" lon="-1.3611877150833606719970703125">
        <ele>627.79998779296875</ele>
        <time>2020-08-22T06:57:58.000Z</time>
      </trkpt>
      <trkpt lat="43.06827683933079242706298828125" lon="-1.36126038618385791778564453125">
        <ele>628</ele>
        <time>2020-08-22T06:58:03.000Z</time>
      </trkpt>
      <trkpt lat="43.068402148783206939697265625" lon="-1.36141947470605373382568359375">
        <ele>628.5999755859375</ele>
        <time>2020-08-22T06:58:10.000Z</time>
      </trkpt>
      <trkpt lat="43.06848873384296894073486328125" lon="-1.3615266792476177215576171875">
        <ele>629</ele>
        <time>2020-08-22T06:58:15.000Z</time>
      </trkpt>
      <trkpt lat="43.06850415654480457305908203125" lon="-1.361557357013225555419921875">
        <ele>629</ele>
        <time>2020-08-22T06:58:16.000Z</time>
      </trkpt>
      <trkpt lat="43.068577833473682403564453125" lon="-1.361761204898357391357421875">
        <ele>629.20001220703125</ele>
        <time>2020-08-22T06:58:23.000Z</time>
      </trkpt>
      <trkpt lat="43.0686437152326107025146484375" lon="-1.3619766198098659515380859375">
        <ele>629.20001220703125</ele>
        <time>2020-08-22T06:58:30.000Z</time>
      </trkpt>
      <trkpt lat="43.0686816014349460601806640625" lon="-1.36210578493773937225341796875">
        <ele>629</ele>
        <time>2020-08-22T06:58:34.000Z</time>
      </trkpt>
      <trkpt lat="43.06869660504162311553955078125" lon="-1.362134031951427459716796875">
        <ele>629</ele>
        <time>2020-08-22T06:58:35.000Z</time>
      </trkpt>
      <trkpt lat="43.068778328597545623779296875" lon="-1.36226755566895008087158203125">
        <ele>628.79998779296875</ele>
        <time>2020-08-22T06:58:39.000Z</time>
      </trkpt>
      <trkpt lat="43.06881177239120006561279296875" lon="-1.36236562393605709075927734375">
        <ele>628.4000244140625</ele>
        <time>2020-08-22T06:58:41.000Z</time>
      </trkpt>
      <trkpt lat="43.06885636411607265472412109375" lon="-1.3624401390552520751953125">
        <ele>628.20001220703125</ele>
        <time>2020-08-22T06:58:43.000Z</time>
      </trkpt>
      <trkpt lat="43.0688844434916973114013671875" lon="-1.36247157119214534759521484375">
        <ele>628</ele>
        <time>2020-08-22T06:58:44.000Z</time>
      </trkpt>
      <trkpt lat="43.06896314956247806549072265625" lon="-1.36257919482886791229248046875">
        <ele>627.5999755859375</ele>
        <time>2020-08-22T06:58:47.000Z</time>
      </trkpt>
      <trkpt lat="43.06906423531472682952880859375" lon="-1.3627588190138339996337890625">
        <ele>627</ele>
        <time>2020-08-22T06:58:51.000Z</time>
      </trkpt>
      <trkpt lat="43.0691201426088809967041015625" lon="-1.36287071742117404937744140625">
        <ele>626.79998779296875</ele>
        <time>2020-08-22T06:58:53.000Z</time>
      </trkpt>
      <trkpt lat="43.06919063441455364227294921875" lon="-1.36297381483018398284912109375">
        <ele>626</ele>
        <time>2020-08-22T06:58:55.000Z</time>
      </trkpt>
      <trkpt lat="43.069226928055286407470703125" lon="-1.36301673017442226409912109375">
        <ele>625.79998779296875</ele>
        <time>2020-08-22T06:58:56.000Z</time>
      </trkpt>
      <trkpt lat="43.06929389946162700653076171875" lon="-1.363104321062564849853515625">
        <ele>625.20001220703125</ele>
        <time>2020-08-22T06:58:58.000Z</time>
      </trkpt>
      <trkpt lat="43.0693293549120426177978515625" lon="-1.3631510920822620391845703125">
        <ele>624.79998779296875</ele>
        <time>2020-08-22T06:58:59.000Z</time>
      </trkpt>
      <trkpt lat="43.06936112232506275177001953125" lon="-1.3632045686244964599609375">
        <ele>624.4000244140625</ele>
        <time>2020-08-22T06:59:00.000Z</time>
      </trkpt>
      <trkpt lat="43.0693893693387508392333984375" lon="-1.3632613979279994964599609375">
        <ele>623.79998779296875</ele>
        <time>2020-08-22T06:59:01.000Z</time>
      </trkpt>
      <trkpt lat="43.06944586336612701416015625" lon="-1.36337849311530590057373046875">
        <ele>623</ele>
        <time>2020-08-22T06:59:03.000Z</time>
      </trkpt>
      <trkpt lat="43.069502525031566619873046875" lon="-1.363487206399440765380859375">
        <ele>622.79998779296875</ele>
        <time>2020-08-22T06:59:05.000Z</time>
      </trkpt>
      <trkpt lat="43.06953412480652332305908203125" lon="-1.3635291159152984619140625">
        <ele>622.4000244140625</ele>
        <time>2020-08-22T06:59:06.000Z</time>
      </trkpt>
      <trkpt lat="43.06961107067763805389404296875" lon="-1.36364637874066829681396484375">
        <ele>621.4000244140625</ele>
        <time>2020-08-22T06:59:09.000Z</time>
      </trkpt>
      <trkpt lat="43.06963839568197727203369140625" lon="-1.3636657409369945526123046875">
        <ele>620.79998779296875</ele>
        <time>2020-08-22T06:59:10.000Z</time>
      </trkpt>
      <trkpt lat="43.06970662437379360198974609375" lon="-1.36368376202881336212158203125">
        <ele>620</ele>
        <time>2020-08-22T06:59:13.000Z</time>
      </trkpt>
      <trkpt lat="43.0697442591190338134765625" lon="-1.36363967321813106536865234375">
        <ele>619.79998779296875</ele>
        <time>2020-08-22T06:59:15.000Z</time>
      </trkpt>
      <trkpt lat="43.06977585889399051666259765625" lon="-1.36355526745319366455078125">
        <ele>619.4000244140625</ele>
        <time>2020-08-22T06:59:17.000Z</time>
      </trkpt>
      <trkpt lat="43.06979027576744556427001953125" lon="-1.36350941844284534454345703125">
        <ele>619.20001220703125</ele>
        <time>2020-08-22T06:59:18.000Z</time>
      </trkpt>
      <trkpt lat="43.06984140537679195404052734375" lon="-1.36335276067256927490234375">
        <ele>618.79998779296875</ele>
        <time>2020-08-22T06:59:21.000Z</time>
      </trkpt>
      <trkpt lat="43.06986705400049686431884765625" lon="-1.36330313980579376220703125">
        <ele>618.20001220703125</ele>
        <time>2020-08-22T06:59:22.000Z</time>
      </trkpt>
      <trkpt lat="43.0698976479470729827880859375" lon="-1.36324740014970302581787109375">
        <ele>617.4000244140625</ele>
        <time>2020-08-22T06:59:23.000Z</time>
      </trkpt>
      <trkpt lat="43.06996461935341358184814453125" lon="-1.36312636546790599822998046875">
        <ele>616.4000244140625</ele>
        <time>2020-08-22T06:59:25.000Z</time>
      </trkpt>
      <trkpt lat="43.0699881725013256072998046875" lon="-1.36306735686957836151123046875">
        <ele>616</ele>
        <time>2020-08-22T06:59:26.000Z</time>
      </trkpt>
      <trkpt lat="43.070012815296649932861328125" lon="-1.36300809681415557861328125">
        <ele>615</ele>
        <time>2020-08-22T06:59:27.000Z</time>
      </trkpt>
      <trkpt lat="43.070034272968769073486328125" lon="-1.36295956559479236602783203125">
        <ele>614.4000244140625</ele>
        <time>2020-08-22T06:59:28.000Z</time>
      </trkpt>
      <trkpt lat="43.07006436400115489959716796875" lon="-1.36290977708995342254638671875">
        <ele>613.79998779296875</ele>
        <time>2020-08-22T06:59:29.000Z</time>
      </trkpt>
      <trkpt lat="43.07010141201317310333251953125" lon="-1.3628651015460491180419921875">
        <ele>613.4000244140625</ele>
        <time>2020-08-22T06:59:30.000Z</time>
      </trkpt>
      <trkpt lat="43.07014298625290393829345703125" lon="-1.36282838881015777587890625">
        <ele>612.79998779296875</ele>
        <time>2020-08-22T06:59:31.000Z</time>
      </trkpt>
      <trkpt lat="43.07022127322852611541748046875" lon="-1.36277499608695507049560546875">
        <ele>611.4000244140625</ele>
        <time>2020-08-22T06:59:33.000Z</time>
      </trkpt>
      <trkpt lat="43.07030593045055866241455078125" lon="-1.3627185858786106109619140625">
        <ele>609.79998779296875</ele>
        <time>2020-08-22T06:59:35.000Z</time>
      </trkpt>
      <trkpt lat="43.0704019032418727874755859375" lon="-1.36265178211033344268798828125">
        <ele>608.79998779296875</ele>
        <time>2020-08-22T06:59:37.000Z</time>
      </trkpt>
      <trkpt lat="43.070504665374755859375" lon="-1.36257768608629703521728515625">
        <ele>607.5999755859375</ele>
        <time>2020-08-22T06:59:39.000Z</time>
      </trkpt>
      <trkpt lat="43.07066635228693485260009765625" lon="-1.362475343048572540283203125">
        <ele>606.4000244140625</ele>
        <time>2020-08-22T06:59:42.000Z</time>
      </trkpt>
      <trkpt lat="43.070721924304962158203125" lon="-1.36243770830333232879638671875">
        <ele>606</ele>
        <time>2020-08-22T06:59:43.000Z</time>
      </trkpt>
      <trkpt lat="43.0707747302949428558349609375" lon="-1.36239697225391864776611328125">
        <ele>605.5999755859375</ele>
        <time>2020-08-22T06:59:44.000Z</time>
      </trkpt>
      <trkpt lat="43.070821501314640045166015625" lon="-1.3623578287661075592041015625">
        <ele>604.79998779296875</ele>
        <time>2020-08-22T06:59:45.000Z</time>
      </trkpt>
      <trkpt lat="43.0709148757159709930419921875" lon="-1.36229555122554302215576171875">
        <ele>603.5999755859375</ele>
        <time>2020-08-22T06:59:47.000Z</time>
      </trkpt>
      <trkpt lat="43.07100146077573299407958984375" lon="-1.36224232614040374755859375">
        <ele>602.4000244140625</ele>
        <time>2020-08-22T06:59:49.000Z</time>
      </trkpt>
      <trkpt lat="43.07113423012197017669677734375" lon="-1.3621553219854831695556640625">
        <ele>601.4000244140625</ele>
        <time>2020-08-22T06:59:52.000Z</time>
      </trkpt>
      <trkpt lat="43.0711784027516841888427734375" lon="-1.36211969889700412750244140625">
        <ele>600.79998779296875</ele>
        <time>2020-08-22T06:59:53.000Z</time>
      </trkpt>
      <trkpt lat="43.07122173719108104705810546875" lon="-1.3620889373123645782470703125">
        <ele>600.20001220703125</ele>
        <time>2020-08-22T06:59:54.000Z</time>
      </trkpt>
      <trkpt lat="43.0713145248591899871826171875" lon="-1.3620248995721340179443359375">
        <ele>598.5999755859375</ele>
        <time>2020-08-22T06:59:56.000Z</time>
      </trkpt>
      <trkpt lat="43.07141066528856754302978515625" lon="-1.36196362785995006561279296875">
        <ele>597.5999755859375</ele>
        <time>2020-08-22T06:59:58.000Z</time>
      </trkpt>
      <trkpt lat="43.07146078906953334808349609375" lon="-1.3619424216449260711669921875">
        <ele>596.79998779296875</ele>
        <time>2020-08-22T06:59:59.000Z</time>
      </trkpt>
      <trkpt lat="43.071565143764019012451171875" lon="-1.361926160752773284912109375">
        <ele>595.79998779296875</ele>
        <time>2020-08-22T07:00:01.000Z</time>
      </trkpt>
      <trkpt lat="43.071617446839809417724609375" lon="-1.3619330339133739471435546875">
        <ele>595.4000244140625</ele>
        <time>2020-08-22T07:00:02.000Z</time>
      </trkpt>
      <trkpt lat="43.07171626947820186614990234375" lon="-1.3619680702686309814453125">
        <ele>594</ele>
        <time>2020-08-22T07:00:04.000Z</time>
      </trkpt>
      <trkpt lat="43.07176060974597930908203125" lon="-1.361991204321384429931640625">
        <ele>593.5999755859375</ele>
        <time>2020-08-22T07:00:05.000Z</time>
      </trkpt>
      <trkpt lat="43.0718412436544895172119140625" lon="-1.36202632449567317962646484375">
        <ele>593</ele>
        <time>2020-08-22T07:00:07.000Z</time>
      </trkpt>
      <trkpt lat="43.07192690670490264892578125" lon="-1.36198206804692745208740234375">
        <ele>592.20001220703125</ele>
        <time>2020-08-22T07:00:10.000Z</time>
      </trkpt>
      <trkpt lat="43.07194610126316547393798828125" lon="-1.361946947872638702392578125">
        <ele>591.79998779296875</ele>
        <time>2020-08-22T07:00:11.000Z</time>
      </trkpt>
      <trkpt lat="43.0719807185232639312744140625" lon="-1.36181191541254520416259765625">
        <ele>591</ele>
        <time>2020-08-22T07:00:14.000Z</time>
      </trkpt>
      <trkpt lat="43.07199169881641864776611328125" lon="-1.36176447384059429168701171875">
        <ele>590.4000244140625</ele>
        <time>2020-08-22T07:00:15.000Z</time>
      </trkpt>
      <trkpt lat="43.0720232985913753509521484375" lon="-1.36162273585796356201171875">
        <ele>589</ele>
        <time>2020-08-22T07:00:18.000Z</time>
      </trkpt>
      <trkpt lat="43.07204115204513072967529296875" lon="-1.3615791499614715576171875">
        <ele>588.79998779296875</ele>
        <time>2020-08-22T07:00:19.000Z</time>
      </trkpt>
      <trkpt lat="43.07209563441574573516845703125" lon="-1.36146959848701953887939453125">
        <ele>587.79998779296875</ele>
        <time>2020-08-22T07:00:21.000Z</time>
      </trkpt>
      <trkpt lat="43.0721466802060604095458984375" lon="-1.3613536767661571502685546875">
        <ele>586.5999755859375</ele>
        <time>2020-08-22T07:00:23.000Z</time>
      </trkpt>
      <trkpt lat="43.07217928580939769744873046875" lon="-1.36130489408969879150390625">
        <ele>586.4000244140625</ele>
        <time>2020-08-22T07:00:24.000Z</time>
      </trkpt>
      <trkpt lat="43.072251118719577789306640625" lon="-1.36121244169771671295166015625">
        <ele>585.4000244140625</ele>
        <time>2020-08-22T07:00:26.000Z</time>
      </trkpt>
      <trkpt lat="43.07232311926782131195068359375" lon="-1.36111185885965824127197265625">
        <ele>584</ele>
        <time>2020-08-22T07:00:28.000Z</time>
      </trkpt>
      <trkpt lat="43.07238413952291011810302734375" lon="-1.36101027019321918487548828125">
        <ele>583.20001220703125</ele>
        <time>2020-08-22T07:00:30.000Z</time>
      </trkpt>
      <trkpt lat="43.07241029106080532073974609375" lon="-1.3609557040035724639892578125">
        <ele>582.4000244140625</ele>
        <time>2020-08-22T07:00:31.000Z</time>
      </trkpt>
      <trkpt lat="43.07243677787482738494873046875" lon="-1.360906921327114105224609375">
        <ele>581.4000244140625</ele>
        <time>2020-08-22T07:00:32.000Z</time>
      </trkpt>
      <trkpt lat="43.07247030548751354217529296875" lon="-1.36086677201092243194580078125">
        <ele>581</ele>
        <time>2020-08-22T07:00:33.000Z</time>
      </trkpt>
      <trkpt lat="43.07255211286246776580810546875" lon="-1.360789239406585693359375">
        <ele>580</ele>
        <time>2020-08-22T07:00:35.000Z</time>
      </trkpt>
      <trkpt lat="43.072598464787006378173828125" lon="-1.36075680144131183624267578125">
        <ele>579.5999755859375</ele>
        <time>2020-08-22T07:00:36.000Z</time>
      </trkpt>
      <trkpt lat="43.07269460521638393402099609375" lon="-1.360715143382549285888671875">
        <ele>578.4000244140625</ele>
        <time>2020-08-22T07:00:38.000Z</time>
      </trkpt>
      <trkpt lat="43.07274271734058856964111328125" lon="-1.36069678701460361480712890625">
        <ele>577.4000244140625</ele>
        <time>2020-08-22T07:00:39.000Z</time>
      </trkpt>
      <trkpt lat="43.07278311811387538909912109375" lon="-1.36067801155149936676025390625">
        <ele>576.5999755859375</ele>
        <time>2020-08-22T07:00:40.000Z</time>
      </trkpt>
      <trkpt lat="43.07282687164843082427978515625" lon="-1.36066510342061519622802734375">
        <ele>576</ele>
        <time>2020-08-22T07:00:41.000Z</time>
      </trkpt>
      <trkpt lat="43.0728728882968425750732421875" lon="-1.36065571568906307220458984375">
        <ele>575.5999755859375</ele>
        <time>2020-08-22T07:00:42.000Z</time>
      </trkpt>
      <trkpt lat="43.07291655801236629486083984375" lon="-1.36064280755817890167236328125">
        <ele>574.5999755859375</ele>
        <time>2020-08-22T07:00:43.000Z</time>
      </trkpt>
      <trkpt lat="43.0729607306420803070068359375" lon="-1.36063291691243648529052734375">
        <ele>574</ele>
        <time>2020-08-22T07:00:44.000Z</time>
      </trkpt>
      <trkpt lat="43.07300138287246227264404296875" lon="-1.360619924962520599365234375">
        <ele>573.4000244140625</ele>
        <time>2020-08-22T07:00:45.000Z</time>
      </trkpt>
      <trkpt lat="43.07309173978865146636962890625" lon="-1.36058882810175418853759765625">
        <ele>572.5999755859375</ele>
        <time>2020-08-22T07:00:47.000Z</time>
      </trkpt>
      <trkpt lat="43.07313934899866580963134765625" lon="-1.3605828769505023956298828125">
        <ele>571.79998779296875</ele>
        <time>2020-08-22T07:00:48.000Z</time>
      </trkpt>
      <trkpt lat="43.0732249282300472259521484375" lon="-1.36055714450776576995849609375">
        <ele>570.5999755859375</ele>
        <time>2020-08-22T07:00:50.000Z</time>
      </trkpt>
      <trkpt lat="43.0733010359108448028564453125" lon="-1.360538117587566375732421875">
        <ele>569.79998779296875</ele>
        <time>2020-08-22T07:00:52.000Z</time>
      </trkpt>
      <trkpt lat="43.0733345635235309600830078125" lon="-1.3605299033224582672119140625">
        <ele>569</ele>
        <time>2020-08-22T07:00:53.000Z</time>
      </trkpt>
      <trkpt lat="43.07340036146342754364013671875" lon="-1.36052034795284271240234375">
        <ele>568</ele>
        <time>2020-08-22T07:00:55.000Z</time>
      </trkpt>
      <trkpt lat="43.07343833148479461669921875" lon="-1.36052043177187442779541015625">
        <ele>567.5999755859375</ele>
        <time>2020-08-22T07:00:56.000Z</time>
      </trkpt>
      <trkpt lat="43.0735538341104984283447265625" lon="-1.36054926551878452301025390625">
        <ele>566.5999755859375</ele>
        <time>2020-08-22T07:00:59.000Z</time>
      </trkpt>
      <trkpt lat="43.073624409735202789306640625" lon="-1.36059352196753025054931640625">
        <ele>565.79998779296875</ele>
        <time>2020-08-22T07:01:01.000Z</time>
      </trkpt>
      <trkpt lat="43.0736576020717620849609375" lon="-1.360625289380550384521484375">
        <ele>565.4000244140625</ele>
        <time>2020-08-22T07:01:02.000Z</time>
      </trkpt>
      <trkpt lat="43.07375214993953704833984375" lon="-1.3607260398566722869873046875">
        <ele>564</ele>
        <time>2020-08-22T07:01:05.000Z</time>
      </trkpt>
      <trkpt lat="43.0737885273993015289306640625" lon="-1.36074456386268138885498046875">
        <ele>563.5999755859375</ele>
        <time>2020-08-22T07:01:06.000Z</time>
      </trkpt>
      <trkpt lat="43.0738735198974609375" lon="-1.36076384223997592926025390625">
        <ele>563</ele>
        <time>2020-08-22T07:01:08.000Z</time>
      </trkpt>
      <trkpt lat="43.0739893577992916107177734375" lon="-1.36077515780925750732421875">
        <ele>561.79998779296875</ele>
        <time>2020-08-22T07:01:10.000Z</time>
      </trkpt>
      <trkpt lat="43.0741137452423572540283203125" lon="-1.36079150252044200897216796875">
        <ele>560.79998779296875</ele>
        <time>2020-08-22T07:01:12.000Z</time>
      </trkpt>
      <trkpt lat="43.074231259524822235107421875" lon="-1.3608199171721935272216796875">
        <ele>559.5999755859375</ele>
        <time>2020-08-22T07:01:14.000Z</time>
      </trkpt>
      <trkpt lat="43.0743531323969364166259765625" lon="-1.36084179393947124481201171875">
        <ele>558.4000244140625</ele>
        <time>2020-08-22T07:01:16.000Z</time>
      </trkpt>
      <trkpt lat="43.07446687482297420501708984375" lon="-1.36085118167102336883544921875">
        <ele>556.79998779296875</ele>
        <time>2020-08-22T07:01:18.000Z</time>
      </trkpt>
      <trkpt lat="43.0745281465351581573486328125" lon="-1.360861994326114654541015625">
        <ele>555.5999755859375</ele>
        <time>2020-08-22T07:01:19.000Z</time>
      </trkpt>
      <trkpt lat="43.0745834670960903167724609375" lon="-1.36087934486567974090576171875">
        <ele>555</ele>
        <time>2020-08-22T07:01:20.000Z</time>
      </trkpt>
      <trkpt lat="43.074642978608608245849609375" lon="-1.36089208535850048065185546875">
        <ele>554.20001220703125</ele>
        <time>2020-08-22T07:01:21.000Z</time>
      </trkpt>
      <trkpt lat="43.07477197609841823577880859375" lon="-1.36092058382928371429443359375">
        <ele>552.5999755859375</ele>
        <time>2020-08-22T07:01:23.000Z</time>
      </trkpt>
      <trkpt lat="43.07490189559757709503173828125" lon="-1.36097473092377185821533203125">
        <ele>551.20001220703125</ele>
        <time>2020-08-22T07:01:25.000Z</time>
      </trkpt>
      <trkpt lat="43.074963502585887908935546875" lon="-1.36100641451776027679443359375">
        <ele>550.20001220703125</ele>
        <time>2020-08-22T07:01:26.000Z</time>
      </trkpt>
      <trkpt lat="43.0750228464603424072265625" lon="-1.361034326255321502685546875">
        <ele>549</ele>
        <time>2020-08-22T07:01:27.000Z</time>
      </trkpt>
      <trkpt lat="43.0751554481685161590576171875" lon="-1.3611045666038990020751953125">
        <ele>547.4000244140625</ele>
        <time>2020-08-22T07:01:29.000Z</time>
      </trkpt>
      <trkpt lat="43.0752194859087467193603515625" lon="-1.3611424528062343597412109375">
        <ele>546.5999755859375</ele>
        <time>2020-08-22T07:01:30.000Z</time>
      </trkpt>
      <trkpt lat="43.07528377510607242584228515625" lon="-1.3611769862473011016845703125">
        <ele>546</ele>
        <time>2020-08-22T07:01:31.000Z</time>
      </trkpt>
      <trkpt lat="43.0754126049578189849853515625" lon="-1.3612430356442928314208984375">
        <ele>544</ele>
        <time>2020-08-22T07:01:33.000Z</time>
      </trkpt>
      <trkpt lat="43.07554185390472412109375" lon="-1.36129952967166900634765625">
        <ele>541.79998779296875</ele>
        <time>2020-08-22T07:01:35.000Z</time>
      </trkpt>
      <trkpt lat="43.07560547254979610443115234375" lon="-1.36132492683827877044677734375">
        <ele>540.79998779296875</ele>
        <time>2020-08-22T07:01:36.000Z</time>
      </trkpt>
      <trkpt lat="43.07574427686631679534912109375" lon="-1.361364237964153289794921875">
        <ele>539.4000244140625</ele>
        <time>2020-08-22T07:01:38.000Z</time>
      </trkpt>
      <trkpt lat="43.0758135952055454254150390625" lon="-1.36137463152408599853515625">
        <ele>537.79998779296875</ele>
        <time>2020-08-22T07:01:39.000Z</time>
      </trkpt>
      <trkpt lat="43.07588090188801288604736328125" lon="-1.36138544417917728424072265625">
        <ele>536.79998779296875</ele>
        <time>2020-08-22T07:01:40.000Z</time>
      </trkpt>
      <trkpt lat="43.07594829238951206207275390625" lon="-1.361397095024585723876953125">
        <ele>536</ele>
        <time>2020-08-22T07:01:41.000Z</time>
      </trkpt>
      <trkpt lat="43.07601752690970897674560546875" lon="-1.36141260154545307159423828125">
        <ele>535.4000244140625</ele>
        <time>2020-08-22T07:01:42.000Z</time>
      </trkpt>
      <trkpt lat="43.076079972088336944580078125" lon="-1.3614369928836822509765625">
        <ele>534</ele>
        <time>2020-08-22T07:01:43.000Z</time>
      </trkpt>
      <trkpt lat="43.0761991627514362335205078125" lon="-1.36151419021189212799072265625">
        <ele>531.79998779296875</ele>
        <time>2020-08-22T07:01:45.000Z</time>
      </trkpt>
      <trkpt lat="43.076300583779811859130859375" lon="-1.36161259375512599945068359375">
        <ele>530.20001220703125</ele>
        <time>2020-08-22T07:01:47.000Z</time>
      </trkpt>
      <trkpt lat="43.0763661302626132965087890625" lon="-1.36173513717949390411376953125">
        <ele>529</ele>
        <time>2020-08-22T07:01:49.000Z</time>
      </trkpt>
      <trkpt lat="43.07639890350401401519775390625" lon="-1.361908055841922760009765625">
        <ele>527.4000244140625</ele>
        <time>2020-08-22T07:01:51.000Z</time>
      </trkpt>
      <trkpt lat="43.07640175335109233856201171875" lon="-1.3621053658425807952880859375">
        <ele>525.79998779296875</ele>
        <time>2020-08-22T07:01:53.000Z</time>
      </trkpt>
      <trkpt lat="43.07639739476144313812255859375" lon="-1.3622025959193706512451171875">
        <ele>525</ele>
        <time>2020-08-22T07:01:54.000Z</time>
      </trkpt>
      <trkpt lat="43.0763947963714599609375" lon="-1.36229856871068477630615234375">
        <ele>524.20001220703125</ele>
        <time>2020-08-22T07:01:55.000Z</time>
      </trkpt>
      <trkpt lat="43.07639806531369686126708984375" lon="-1.36239127255976200103759765625">
        <ele>523.4000244140625</ele>
        <time>2020-08-22T07:01:56.000Z</time>
      </trkpt>
      <trkpt lat="43.07640544138848781585693359375" lon="-1.36247945018112659454345703125">
        <ele>522.5999755859375</ele>
        <time>2020-08-22T07:01:57.000Z</time>
      </trkpt>
      <trkpt lat="43.076419942080974578857421875" lon="-1.3625626824796199798583984375">
        <ele>522</ele>
        <time>2020-08-22T07:01:58.000Z</time>
      </trkpt>
      <trkpt lat="43.07644416578114032745361328125" lon="-1.36264390312135219573974609375">
        <ele>521.20001220703125</ele>
        <time>2020-08-22T07:01:59.000Z</time>
      </trkpt>
      <trkpt lat="43.07651138864457607269287109375" lon="-1.3628050871193408966064453125">
        <ele>519.5999755859375</ele>
        <time>2020-08-22T07:02:01.000Z</time>
      </trkpt>
      <trkpt lat="43.076555393636226654052734375" lon="-1.36287591420114040374755859375">
        <ele>518.79998779296875</ele>
        <time>2020-08-22T07:02:02.000Z</time>
      </trkpt>
      <trkpt lat="43.07660375721752643585205078125" lon="-1.36294447816908359527587890625">
        <ele>517.79998779296875</ele>
        <time>2020-08-22T07:02:03.000Z</time>
      </trkpt>
      <trkpt lat="43.07665639556944370269775390625" lon="-1.36301086284220218658447265625">
        <ele>516.79998779296875</ele>
        <time>2020-08-22T07:02:04.000Z</time>
      </trkpt>
      <trkpt lat="43.076703585684299468994140625" lon="-1.36308294720947742462158203125">
        <ele>516.20001220703125</ele>
        <time>2020-08-22T07:02:05.000Z</time>
      </trkpt>
      <trkpt lat="43.07674591429531574249267578125" lon="-1.36315704323351383209228515625">
        <ele>515</ele>
        <time>2020-08-22T07:02:06.000Z</time>
      </trkpt>
      <trkpt lat="43.0767852254211902618408203125" lon="-1.3632355816662311553955078125">
        <ele>513.79998779296875</ele>
        <time>2020-08-22T07:02:07.000Z</time>
      </trkpt>
      <trkpt lat="43.07685705833137035369873046875" lon="-1.36341101489961147308349609375">
        <ele>512.20001220703125</ele>
        <time>2020-08-22T07:02:09.000Z</time>
      </trkpt>
      <trkpt lat="43.07692830450832843780517578125" lon="-1.36361905373632907867431640625">
        <ele>510.20001220703125</ele>
        <time>2020-08-22T07:02:11.000Z</time>
      </trkpt>
      <trkpt lat="43.07699133642017841339111328125" lon="-1.36381669901311397552490234375">
        <ele>508.600006103515625</ele>
        <time>2020-08-22T07:02:13.000Z</time>
      </trkpt>
      <trkpt lat="43.077065683901309967041015625" lon="-1.3639762066304683685302734375">
        <ele>506.79998779296875</ele>
        <time>2020-08-22T07:02:15.000Z</time>
      </trkpt>
      <trkpt lat="43.0771523527801036834716796875" lon="-1.364075951278209686279296875">
        <ele>505.600006103515625</ele>
        <time>2020-08-22T07:02:17.000Z</time>
      </trkpt>
      <trkpt lat="43.0772029794752597808837890625" lon="-1.364109478890895843505859375">
        <ele>505.20001220703125</ele>
        <time>2020-08-22T07:02:18.000Z</time>
      </trkpt>
      <trkpt lat="43.07731504552066326141357421875" lon="-1.36413504369556903839111328125">
        <ele>504.399993896484375</ele>
        <time>2020-08-22T07:02:20.000Z</time>
      </trkpt>
      <trkpt lat="43.077366761863231658935546875" lon="-1.3641307689249515533447265625">
        <ele>503.79998779296875</ele>
        <time>2020-08-22T07:02:21.000Z</time>
      </trkpt>
      <trkpt lat="43.0774131976068019866943359375" lon="-1.36412465013563632965087890625">
        <ele>503.20001220703125</ele>
        <time>2020-08-22T07:02:22.000Z</time>
      </trkpt>
      <trkpt lat="43.07750900276005268096923828125" lon="-1.36416404508054256439208984375">
        <ele>502.600006103515625</ele>
        <time>2020-08-22T07:02:24.000Z</time>
      </trkpt>
      <trkpt lat="43.0775436200201511383056640625" lon="-1.36421106755733489990234375">
        <ele>502.20001220703125</ele>
        <time>2020-08-22T07:02:25.000Z</time>
      </trkpt>
      <trkpt lat="43.07758108712732791900634765625" lon="-1.36434392072260379791259765625">
        <ele>501.20001220703125</ele>
        <time>2020-08-22T07:02:27.000Z</time>
      </trkpt>
      <trkpt lat="43.0775754712522029876708984375" lon="-1.3644985668361186981201171875">
        <ele>500.20001220703125</ele>
        <time>2020-08-22T07:02:29.000Z</time>
      </trkpt>
      <trkpt lat="43.07757287286221981048583984375" lon="-1.3645733334124088287353515625">
        <ele>500</ele>
        <time>2020-08-22T07:02:30.000Z</time>
      </trkpt>
      <trkpt lat="43.07757756672799587249755859375" lon="-1.36464550159871578216552734375">
        <ele>499.20001220703125</ele>
        <time>2020-08-22T07:02:31.000Z</time>
      </trkpt>
      <trkpt lat="43.07758226059377193450927734375" lon="-1.36471666395664215087890625">
        <ele>498.79998779296875</ele>
        <time>2020-08-22T07:02:32.000Z</time>
      </trkpt>
      <trkpt lat="43.0775794945657253265380859375" lon="-1.3649615831673145294189453125">
        <ele>497.600006103515625</ele>
        <time>2020-08-22T07:02:35.000Z</time>
      </trkpt>
      <trkpt lat="43.07758209295570850372314453125" lon="-1.36504657566547393798828125">
        <ele>497.399993896484375</ele>
        <time>2020-08-22T07:02:36.000Z</time>
      </trkpt>
      <trkpt lat="43.07764193974435329437255859375" lon="-1.36529442854225635528564453125">
        <ele>496.20001220703125</ele>
        <time>2020-08-22T07:02:39.000Z</time>
      </trkpt>
      <trkpt lat="43.07767798192799091339111328125" lon="-1.36536709964275360107421875">
        <ele>495.600006103515625</ele>
        <time>2020-08-22T07:02:40.000Z</time>
      </trkpt>
      <trkpt lat="43.07772575877606868743896484375" lon="-1.36542879045009613037109375">
        <ele>495</ele>
        <time>2020-08-22T07:02:41.000Z</time>
      </trkpt>
      <trkpt lat="43.0778445303440093994140625" lon="-1.36551755480468273162841796875">
        <ele>494.20001220703125</ele>
        <time>2020-08-22T07:02:43.000Z</time>
      </trkpt>
      <trkpt lat="43.0779130943119525909423828125" lon="-1.365548484027385711669921875">
        <ele>493.79998779296875</ele>
        <time>2020-08-22T07:02:44.000Z</time>
      </trkpt>
      <trkpt lat="43.0780966579914093017578125" lon="-1.36562752537429332733154296875">
        <ele>492.399993896484375</ele>
        <time>2020-08-22T07:02:47.000Z</time>
      </trkpt>
      <trkpt lat="43.0781866796314716339111328125" lon="-1.3658205606043338775634765625">
        <ele>491.399993896484375</ele>
        <time>2020-08-22T07:02:50.000Z</time>
      </trkpt>
      <trkpt lat="43.0781303532421588897705078125" lon="-1.3660710118710994720458984375">
        <ele>490.20001220703125</ele>
        <time>2020-08-22T07:02:53.000Z</time>
      </trkpt>
      <trkpt lat="43.078081570565700531005859375" lon="-1.36622079648077487945556640625">
        <ele>489</ele>
        <time>2020-08-22T07:02:55.000Z</time>
      </trkpt>
      <trkpt lat="43.0780643038451671600341796875" lon="-1.36628843843936920166015625">
        <ele>488.79998779296875</ele>
        <time>2020-08-22T07:02:56.000Z</time>
      </trkpt>
      <trkpt lat="43.0780525691807270050048828125" lon="-1.3663506321609020233154296875">
        <ele>488.600006103515625</ele>
        <time>2020-08-22T07:02:57.000Z</time>
      </trkpt>
      <trkpt lat="43.078058101236820220947265625" lon="-1.36647510342299938201904296875">
        <ele>488</ele>
        <time>2020-08-22T07:02:59.000Z</time>
      </trkpt>
      <trkpt lat="43.07807779870927333831787109375" lon="-1.3665360398590564727783203125">
        <ele>487.79998779296875</ele>
        <time>2020-08-22T07:03:00.000Z</time>
      </trkpt>
      <trkpt lat="43.07813219726085662841796875" lon="-1.366642154753208160400390625">
        <ele>487.20001220703125</ele>
        <time>2020-08-22T07:03:02.000Z</time>
      </trkpt>
      <trkpt lat="43.07816195301711559295654296875" lon="-1.3666845671832561492919921875">
        <ele>486.79998779296875</ele>
        <time>2020-08-22T07:03:03.000Z</time>
      </trkpt>
      <trkpt lat="43.07819514535367488861083984375" lon="-1.36671901680529117584228515625">
        <ele>486.399993896484375</ele>
        <time>2020-08-22T07:03:04.000Z</time>
      </trkpt>
      <trkpt lat="43.07833109982311725616455078125" lon="-1.3668102957308292388916015625">
        <ele>485.600006103515625</ele>
        <time>2020-08-22T07:03:07.000Z</time>
      </trkpt>
      <trkpt lat="43.07838574983179569244384765625" lon="-1.36682898737490177154541015625">
        <ele>485.399993896484375</ele>
        <time>2020-08-22T07:03:08.000Z</time>
      </trkpt>
      <trkpt lat="43.078554309904575347900390625" lon="-1.366883218288421630859375">
        <ele>484</ele>
        <time>2020-08-22T07:03:11.000Z</time>
      </trkpt>
      <trkpt lat="43.07860099710524082183837890625" lon="-1.3669172488152980804443359375">
        <ele>483.79998779296875</ele>
        <time>2020-08-22T07:03:12.000Z</time>
      </trkpt>
      <trkpt lat="43.07866595685482025146484375" lon="-1.3670325838029384613037109375">
        <ele>483</ele>
        <time>2020-08-22T07:03:14.000Z</time>
      </trkpt>
      <trkpt lat="43.07868297211825847625732421875" lon="-1.3671103678643703460693359375">
        <ele>482.600006103515625</ele>
        <time>2020-08-22T07:03:15.000Z</time>
      </trkpt>
      <trkpt lat="43.07870510034263134002685546875" lon="-1.3672756589949131011962890625">
        <ele>481.79998779296875</ele>
        <time>2020-08-22T07:03:17.000Z</time>
      </trkpt>
      <trkpt lat="43.07876343838870525360107421875" lon="-1.367532312870025634765625">
        <ele>480.399993896484375</ele>
        <time>2020-08-22T07:03:20.000Z</time>
      </trkpt>
      <trkpt lat="43.07888614945113658905029296875" lon="-1.3677386753261089324951171875">
        <ele>479.600006103515625</ele>
        <time>2020-08-22T07:03:23.000Z</time>
      </trkpt>
      <trkpt lat="43.07893862016499042510986328125" lon="-1.3677896372973918914794921875">
        <ele>479.20001220703125</ele>
        <time>2020-08-22T07:03:24.000Z</time>
      </trkpt>
      <trkpt lat="43.07899612002074718475341796875" lon="-1.36782995425164699554443359375">
        <ele>478.79998779296875</ele>
        <time>2020-08-22T07:03:25.000Z</time>
      </trkpt>
      <trkpt lat="43.07912922464311122894287109375" lon="-1.36787387542426586151123046875">
        <ele>478.20001220703125</ele>
        <time>2020-08-22T07:03:27.000Z</time>
      </trkpt>
      <trkpt lat="43.07938210666179656982421875" lon="-1.36783733032643795013427734375">
        <ele>477.600006103515625</ele>
        <time>2020-08-22T07:03:31.000Z</time>
      </trkpt>
      <trkpt lat="43.0794955976307392120361328125" lon="-1.3677758909761905670166015625">
        <ele>477.20001220703125</ele>
        <time>2020-08-22T07:03:33.000Z</time>
      </trkpt>
      <trkpt lat="43.07955301366746425628662109375" lon="-1.3677375018596649169921875">
        <ele>477.399993896484375</ele>
        <time>2020-08-22T07:03:34.000Z</time>
      </trkpt>
      <trkpt lat="43.0796622298657894134521484375" lon="-1.36766164563596248626708984375">
        <ele>477</ele>
        <time>2020-08-22T07:03:36.000Z</time>
      </trkpt>
      <trkpt lat="43.0798318795859813690185546875" lon="-1.36764370836317539215087890625">
        <ele>476.20001220703125</ele>
        <time>2020-08-22T07:03:39.000Z</time>
      </trkpt>
      <trkpt lat="43.08005106635391712188720703125" lon="-1.36777798645198345184326171875">
        <ele>475.600006103515625</ele>
        <time>2020-08-22T07:03:43.000Z</time>
      </trkpt>
      <trkpt lat="43.080129437148571014404296875" lon="-1.36791444383561611175537109375">
        <ele>474.79998779296875</ele>
        <time>2020-08-22T07:03:45.000Z</time>
      </trkpt>
      <trkpt lat="43.08015483431518077850341796875" lon="-1.36799440719187259674072265625">
        <ele>474.399993896484375</ele>
        <time>2020-08-22T07:03:46.000Z</time>
      </trkpt>
      <trkpt lat="43.08017738163471221923828125" lon="-1.36807336471974849700927734375">
        <ele>474.20001220703125</ele>
        <time>2020-08-22T07:03:47.000Z</time>
      </trkpt>
      <trkpt lat="43.08020696975290775299072265625" lon="-1.3681443594396114349365234375">
        <ele>473.79998779296875</ele>
        <time>2020-08-22T07:03:48.000Z</time>
      </trkpt>
      <trkpt lat="43.0802880227565765380859375" lon="-1.36824435554444789886474609375">
        <ele>473.399993896484375</ele>
        <time>2020-08-22T07:03:50.000Z</time>
      </trkpt>
      <trkpt lat="43.0803877674043178558349609375" lon="-1.368299089372158050537109375">
        <ele>472.79998779296875</ele>
        <time>2020-08-22T07:03:52.000Z</time>
      </trkpt>
      <trkpt lat="43.0805010907351970672607421875" lon="-1.36834728531539440155029296875">
        <ele>472</ele>
        <time>2020-08-22T07:03:54.000Z</time>
      </trkpt>
      <trkpt lat="43.08056202717125415802001953125" lon="-1.36837410740554332733154296875">
        <ele>471.600006103515625</ele>
        <time>2020-08-22T07:03:55.000Z</time>
      </trkpt>
      <trkpt lat="43.08067166246473789215087890625" lon="-1.3684246502816677093505859375">
        <ele>471</ele>
        <time>2020-08-22T07:03:57.000Z</time>
      </trkpt>
      <trkpt lat="43.0807106383144855499267578125" lon="-1.36846228502690792083740234375">
        <ele>471</ele>
        <time>2020-08-22T07:03:58.000Z</time>
      </trkpt>
      <trkpt lat="43.08078624308109283447265625" lon="-1.36869898997247219085693359375">
        <ele>470.79998779296875</ele>
        <time>2020-08-22T07:04:02.000Z</time>
      </trkpt>
      <trkpt lat="43.080804683268070220947265625" lon="-1.36895581148564815521240234375">
        <ele>471</ele>
        <time>2020-08-22T07:04:07.000Z</time>
      </trkpt>
      <trkpt lat="43.08081314899027347564697265625" lon="-1.36900291778147220611572265625">
        <ele>471</ele>
        <time>2020-08-22T07:04:08.000Z</time>
      </trkpt>
      <trkpt lat="43.08087450452148914337158203125" lon="-1.36924247257411479949951171875">
        <ele>471.600006103515625</ele>
        <time>2020-08-22T07:04:14.000Z</time>
      </trkpt>
      <trkpt lat="43.0808920226991176605224609375" lon="-1.3692749105393886566162109375">
        <ele>472</ele>
        <time>2020-08-22T07:04:15.000Z</time>
      </trkpt>
      <trkpt lat="43.08096217922866344451904296875" lon="-1.36935344897210597991943359375">
        <ele>472.600006103515625</ele>
        <time>2020-08-22T07:04:18.000Z</time>
      </trkpt>
      <trkpt lat="43.0810160748660564422607421875" lon="-1.3694160617887973785400390625">
        <ele>472.79998779296875</ele>
        <time>2020-08-22T07:04:20.000Z</time>
      </trkpt>
      <trkpt lat="43.081133253872394561767578125" lon="-1.36954036541283130645751953125">
        <ele>473</ele>
        <time>2020-08-22T07:04:24.000Z</time>
      </trkpt>
      <trkpt lat="43.0812232755124568939208984375" lon="-1.36967598460614681243896484375">
        <ele>473.20001220703125</ele>
        <time>2020-08-22T07:04:28.000Z</time>
      </trkpt>
      <trkpt lat="43.0812407098710536956787109375" lon="-1.3697090931236743927001953125">
        <ele>473.399993896484375</ele>
        <time>2020-08-22T07:04:29.000Z</time>
      </trkpt>
      <trkpt lat="43.08139367960393428802490234375" lon="-1.3698706962168216705322265625">
        <ele>473.399993896484375</ele>
        <time>2020-08-22T07:04:35.000Z</time>
      </trkpt>
      <trkpt lat="43.08151773177087306976318359375" lon="-1.36993221938610076904296875">
        <ele>473.600006103515625</ele>
        <time>2020-08-22T07:04:39.000Z</time>
      </trkpt>
      <trkpt lat="43.081649579107761383056640625" lon="-1.36996231041848659515380859375">
        <ele>474</ele>
        <time>2020-08-22T07:04:43.000Z</time>
      </trkpt>
      <trkpt lat="43.08170934207737445831298828125" lon="-1.3699592091143131256103515625">
        <ele>474.20001220703125</ele>
        <time>2020-08-22T07:04:45.000Z</time>
      </trkpt>
      <trkpt lat="43.08192484080791473388671875" lon="-1.3699659146368503570556640625">
        <ele>475</ele>
        <time>2020-08-22T07:04:52.000Z</time>
      </trkpt>
      <trkpt lat="43.08207043446600437164306640625" lon="-1.3701181299984455108642578125">
        <ele>474.399993896484375</ele>
        <time>2020-08-22T07:04:57.000Z</time>
      </trkpt>
      <trkpt lat="43.08231015689671039581298828125" lon="-1.37038006447255611419677734375">
        <ele>473.79998779296875</ele>
        <time>2020-08-22T07:05:04.000Z</time>
      </trkpt>
      <trkpt lat="43.08235039003193378448486328125" lon="-1.37040822766721248626708984375">
        <ele>473.600006103515625</ele>
        <time>2020-08-22T07:05:05.000Z</time>
      </trkpt>
      <trkpt lat="43.08244091458618640899658203125" lon="-1.3704336248338222503662109375">
        <ele>473.20001220703125</ele>
        <time>2020-08-22T07:05:07.000Z</time>
      </trkpt>
      <trkpt lat="43.082497157156467437744140625" lon="-1.3704342953860759735107421875">
        <ele>472.79998779296875</ele>
        <time>2020-08-22T07:05:08.000Z</time>
      </trkpt>
      <trkpt lat="43.08268331922590732574462890625" lon="-1.370418369770050048828125">
        <ele>471.79998779296875</ele>
        <time>2020-08-22T07:05:11.000Z</time>
      </trkpt>
      <trkpt lat="43.0827454291284084320068359375" lon="-1.37042331509292125701904296875">
        <ele>471.399993896484375</ele>
        <time>2020-08-22T07:05:12.000Z</time>
      </trkpt>
      <trkpt lat="43.08287375606596469879150390625" lon="-1.370468325912952423095703125">
        <ele>470.600006103515625</ele>
        <time>2020-08-22T07:05:14.000Z</time>
      </trkpt>
      <trkpt lat="43.08299780823290348052978515625" lon="-1.3705358840525150299072265625">
        <ele>469.399993896484375</ele>
        <time>2020-08-22T07:05:16.000Z</time>
      </trkpt>
      <trkpt lat="43.08311582542955875396728515625" lon="-1.3706106506288051605224609375">
        <ele>468</ele>
        <time>2020-08-22T07:05:18.000Z</time>
      </trkpt>
      <trkpt lat="43.0831672064960002899169921875" lon="-1.3706584274768829345703125">
        <ele>467.20001220703125</ele>
        <time>2020-08-22T07:05:19.000Z</time>
      </trkpt>
      <trkpt lat="43.08321121148765087127685546875" lon="-1.37072003446519374847412109375">
        <ele>466.79998779296875</ele>
        <time>2020-08-22T07:05:20.000Z</time>
      </trkpt>
      <trkpt lat="43.08331028558313846588134765625" lon="-1.37094031088054180145263671875">
        <ele>465.399993896484375</ele>
        <time>2020-08-22T07:05:23.000Z</time>
      </trkpt>
      <trkpt lat="43.08334817178547382354736328125" lon="-1.37102647684514522552490234375">
        <ele>464.79998779296875</ele>
        <time>2020-08-22T07:05:24.000Z</time>
      </trkpt>
      <trkpt lat="43.08338471688330173492431640625" lon="-1.3711145706474781036376953125">
        <ele>464</ele>
        <time>2020-08-22T07:05:25.000Z</time>
      </trkpt>
      <trkpt lat="43.08346836827695369720458984375" lon="-1.37127273716032505035400390625">
        <ele>462.600006103515625</ele>
        <time>2020-08-22T07:05:27.000Z</time>
      </trkpt>
      <trkpt lat="43.08357079513370990753173828125" lon="-1.371396370232105255126953125">
        <ele>461.20001220703125</ele>
        <time>2020-08-22T07:05:29.000Z</time>
      </trkpt>
      <trkpt lat="43.08372569270431995391845703125" lon="-1.3715507648885250091552734375">
        <ele>460</ele>
        <time>2020-08-22T07:05:32.000Z</time>
      </trkpt>
      <trkpt lat="43.08375142514705657958984375" lon="-1.37161287479102611541748046875">
        <ele>459.600006103515625</ele>
        <time>2020-08-22T07:05:33.000Z</time>
      </trkpt>
      <trkpt lat="43.08379056863486766815185546875" lon="-1.3717660121619701385498046875">
        <ele>458.79998779296875</ele>
        <time>2020-08-22T07:05:35.000Z</time>
      </trkpt>
      <trkpt lat="43.0838035605847835540771484375" lon="-1.37195535935461521148681640625">
        <ele>457.79998779296875</ele>
        <time>2020-08-22T07:05:37.000Z</time>
      </trkpt>
      <trkpt lat="43.08378319256007671356201171875" lon="-1.3721556030213832855224609375">
        <ele>456.600006103515625</ele>
        <time>2020-08-22T07:05:39.000Z</time>
      </trkpt>
      <trkpt lat="43.08377112261950969696044921875" lon="-1.372257359325885772705078125">
        <ele>456.20001220703125</ele>
        <time>2020-08-22T07:05:40.000Z</time>
      </trkpt>
      <trkpt lat="43.0837633274495601654052734375" lon="-1.37235819362103939056396484375">
        <ele>455.79998779296875</ele>
        <time>2020-08-22T07:05:41.000Z</time>
      </trkpt>
      <trkpt lat="43.08375955559313297271728515625" lon="-1.37246154248714447021484375">
        <ele>455.399993896484375</ele>
        <time>2020-08-22T07:05:42.000Z</time>
      </trkpt>
      <trkpt lat="43.08376173488795757293701171875" lon="-1.37255734764039516448974609375">
        <ele>455.20001220703125</ele>
        <time>2020-08-22T07:05:43.000Z</time>
      </trkpt>
      <trkpt lat="43.083807416260242462158203125" lon="-1.37272305786609649658203125">
        <ele>454.600006103515625</ele>
        <time>2020-08-22T07:05:45.000Z</time>
      </trkpt>
      <trkpt lat="43.08389651589095592498779296875" lon="-1.37284853495657444000244140625">
        <ele>454.399993896484375</ele>
        <time>2020-08-22T07:05:47.000Z</time>
      </trkpt>
      <trkpt lat="43.083955943584442138671875" lon="-1.3729066215455532073974609375">
        <ele>454.20001220703125</ele>
        <time>2020-08-22T07:05:48.000Z</time>
      </trkpt>
      <trkpt lat="43.08418887667357921600341796875" lon="-1.373100243508815765380859375">
        <ele>453.20001220703125</ele>
        <time>2020-08-22T07:05:52.000Z</time>
      </trkpt>
      <trkpt lat="43.08432080782949924468994140625" lon="-1.37315782718360424041748046875">
        <ele>452.600006103515625</ele>
        <time>2020-08-22T07:05:54.000Z</time>
      </trkpt>
      <trkpt lat="43.0844523198902606964111328125" lon="-1.37320962734520435333251953125">
        <ele>452</ele>
        <time>2020-08-22T07:05:56.000Z</time>
      </trkpt>
      <trkpt lat="43.0845857597887516021728515625" lon="-1.37324868701398372650146484375">
        <ele>451.20001220703125</ele>
        <time>2020-08-22T07:05:58.000Z</time>
      </trkpt>
      <trkpt lat="43.08464988134801387786865234375" lon="-1.3732548058032989501953125">
        <ele>450.79998779296875</ele>
        <time>2020-08-22T07:05:59.000Z</time>
      </trkpt>
      <trkpt lat="43.08477125130593776702880859375" lon="-1.37324768118560314178466796875">
        <ele>450.20001220703125</ele>
        <time>2020-08-22T07:06:01.000Z</time>
      </trkpt>
      <trkpt lat="43.08482321910560131072998046875" lon="-1.37323376722633838653564453125">
        <ele>449.79998779296875</ele>
        <time>2020-08-22T07:06:02.000Z</time>
      </trkpt>
      <trkpt lat="43.08486990630626678466796875" lon="-1.3732083700597286224365234375">
        <ele>449.600006103515625</ele>
        <time>2020-08-22T07:06:03.000Z</time>
      </trkpt>
      <trkpt lat="43.08495439589023590087890625" lon="-1.37314139865338802337646484375">
        <ele>449.20001220703125</ele>
        <time>2020-08-22T07:06:05.000Z</time>
      </trkpt>
      <trkpt lat="43.0849951319396495819091796875" lon="-1.37310326099395751953125">
        <ele>449</ele>
        <time>2020-08-22T07:06:06.000Z</time>
      </trkpt>
      <trkpt lat="43.08503796346485614776611328125" lon="-1.37305833399295806884765625">
        <ele>448.600006103515625</ele>
        <time>2020-08-22T07:06:07.000Z</time>
      </trkpt>
      <trkpt lat="43.08521063067018985748291015625" lon="-1.37286345474421977996826171875">
        <ele>447.399993896484375</ele>
        <time>2020-08-22T07:06:11.000Z</time>
      </trkpt>
      <trkpt lat="43.085396289825439453125" lon="-1.37276119552552700042724609375">
        <ele>446.79998779296875</ele>
        <time>2020-08-22T07:06:15.000Z</time>
      </trkpt>
      <trkpt lat="43.08552612550556659698486328125" lon="-1.37283571064472198486328125">
        <ele>446.20001220703125</ele>
        <time>2020-08-22T07:06:18.000Z</time>
      </trkpt>
      <trkpt lat="43.08556451462209224700927734375" lon="-1.37287938036024570465087890625">
        <ele>446</ele>
        <time>2020-08-22T07:06:19.000Z</time>
      </trkpt>
      <trkpt lat="43.0856670252978801727294921875" lon="-1.37312664650380611419677734375">
        <ele>445.600006103515625</ele>
        <time>2020-08-22T07:06:23.000Z</time>
      </trkpt>
      <trkpt lat="43.08567532338201999664306640625" lon="-1.373201496899127960205078125">
        <ele>445.399993896484375</ele>
        <time>2020-08-22T07:06:24.000Z</time>
      </trkpt>
      <trkpt lat="43.0856811068952083587646484375" lon="-1.37335396371781826019287109375">
        <ele>445</ele>
        <time>2020-08-22T07:06:26.000Z</time>
      </trkpt>
      <trkpt lat="43.08566157706081867218017578125" lon="-1.37350668199360370635986328125">
        <ele>444.79998779296875</ele>
        <time>2020-08-22T07:06:28.000Z</time>
      </trkpt>
      <trkpt lat="43.085585720837116241455078125" lon="-1.37387012131512165069580078125">
        <ele>444</ele>
        <time>2020-08-22T07:06:33.000Z</time>
      </trkpt>
      <trkpt lat="43.08558681048452854156494140625" lon="-1.3739369250833988189697265625">
        <ele>443.79998779296875</ele>
        <time>2020-08-22T07:06:34.000Z</time>
      </trkpt>
      <trkpt lat="43.085645735263824462890625" lon="-1.3741230033338069915771484375">
        <ele>443.399993896484375</ele>
        <time>2020-08-22T07:06:37.000Z</time>
      </trkpt>
      <trkpt lat="43.085796944797039031982421875" lon="-1.3742351531982421875">
        <ele>443.20001220703125</ele>
        <time>2020-08-22T07:06:41.000Z</time>
      </trkpt>
      <trkpt lat="43.08596961200237274169921875" lon="-1.37418058700859546661376953125">
        <ele>443</ele>
        <time>2020-08-22T07:06:45.000Z</time>
      </trkpt>
      <trkpt lat="43.086155690252780914306640625" lon="-1.37399065308272838592529296875">
        <ele>442.600006103515625</ele>
        <time>2020-08-22T07:06:50.000Z</time>
      </trkpt>
      <trkpt lat="43.08633975684642791748046875" lon="-1.3737555406987667083740234375">
        <ele>442</ele>
        <time>2020-08-22T07:06:55.000Z</time>
      </trkpt>
      <trkpt lat="43.08641192503273487091064453125" lon="-1.37364330701529979705810546875">
        <ele>441.600006103515625</ele>
        <time>2020-08-22T07:06:57.000Z</time>
      </trkpt>
      <trkpt lat="43.0865276791155338287353515625" lon="-1.37345932424068450927734375">
        <ele>440.79998779296875</ele>
        <time>2020-08-22T07:07:00.000Z</time>
      </trkpt>
      <trkpt lat="43.0866581015288829803466796875" lon="-1.37326578609645366668701171875">
        <ele>439.79998779296875</ele>
        <time>2020-08-22T07:07:03.000Z</time>
      </trkpt>
      <trkpt lat="43.0867104046046733856201171875" lon="-1.373214237391948699951171875">
        <ele>439.600006103515625</ele>
        <time>2020-08-22T07:07:04.000Z</time>
      </trkpt>
      <trkpt lat="43.08682397939264774322509765625" lon="-1.373163275420665740966796875">
        <ele>439.20001220703125</ele>
        <time>2020-08-22T07:07:06.000Z</time>
      </trkpt>
      <trkpt lat="43.0870579183101654052734375" lon="-1.37316084466874599456787109375">
        <ele>438.600006103515625</ele>
        <time>2020-08-22T07:07:10.000Z</time>
      </trkpt>
      <trkpt lat="43.087118603289127349853515625" lon="-1.3731718249619007110595703125">
        <ele>438.399993896484375</ele>
        <time>2020-08-22T07:07:11.000Z</time>
      </trkpt>
      <trkpt lat="43.0872991494834423065185546875" lon="-1.37323443777859210968017578125">
        <ele>437.399993896484375</ele>
        <time>2020-08-22T07:07:14.000Z</time>
      </trkpt>
      <trkpt lat="43.0874057672917842864990234375" lon="-1.37332253158092498779296875">
        <ele>437.20001220703125</ele>
        <time>2020-08-22T07:07:16.000Z</time>
      </trkpt>
      <trkpt lat="43.0875888280570507049560546875" lon="-1.37356250546872615814208984375">
        <ele>436.600006103515625</ele>
        <time>2020-08-22T07:07:20.000Z</time>
      </trkpt>
      <trkpt lat="43.08762847445905208587646484375" lon="-1.3736274652183055877685546875">
        <ele>436.399993896484375</ele>
        <time>2020-08-22T07:07:21.000Z</time>
      </trkpt>
      <trkpt lat="43.08788864873349666595458984375" lon="-1.37399853207170963287353515625">
        <ele>436.20001220703125</ele>
        <time>2020-08-22T07:07:28.000Z</time>
      </trkpt>
      <trkpt lat="43.08803617022931575775146484375" lon="-1.37416633777320384979248046875">
        <ele>436.399993896484375</ele>
        <time>2020-08-22T07:07:33.000Z</time>
      </trkpt>
      <trkpt lat="43.088207580149173736572265625" lon="-1.3742312975227832794189453125">
        <ele>436.600006103515625</ele>
        <time>2020-08-22T07:07:38.000Z</time>
      </trkpt>
      <trkpt lat="43.08828813023865222930908203125" lon="-1.3742359913885593414306640625">
        <ele>436.600006103515625</ele>
        <time>2020-08-22T07:07:40.000Z</time>
      </trkpt>
      <trkpt lat="43.08841302059590816497802734375" lon="-1.37421143241226673126220703125">
        <ele>436.399993896484375</ele>
        <time>2020-08-22T07:07:43.000Z</time>
      </trkpt>
      <trkpt lat="43.08854578994214534759521484375" lon="-1.3741736300289630889892578125">
        <ele>435.79998779296875</ele>
        <time>2020-08-22T07:07:46.000Z</time>
      </trkpt>
      <trkpt lat="43.08864922262728214263916015625" lon="-1.37413498945534229278564453125">
        <ele>435.20001220703125</ele>
        <time>2020-08-22T07:07:48.000Z</time>
      </trkpt>
      <trkpt lat="43.08875835500657558441162109375" lon="-1.3741069100797176361083984375">
        <ele>435</ele>
        <time>2020-08-22T07:07:50.000Z</time>
      </trkpt>
      <trkpt lat="43.08886363171041011810302734375" lon="-1.37410582043230533599853515625">
        <ele>434.399993896484375</ele>
        <time>2020-08-22T07:07:52.000Z</time>
      </trkpt>
      <trkpt lat="43.08891828171908855438232421875" lon="-1.37412224896252155303955078125">
        <ele>434.20001220703125</ele>
        <time>2020-08-22T07:07:53.000Z</time>
      </trkpt>
      <trkpt lat="43.0890757776796817779541015625" lon="-1.3742391765117645263671875">
        <ele>433.399993896484375</ele>
        <time>2020-08-22T07:07:56.000Z</time>
      </trkpt>
      <trkpt lat="43.08915481902658939361572265625" lon="-1.3743499852716922760009765625">
        <ele>433</ele>
        <time>2020-08-22T07:07:58.000Z</time>
      </trkpt>
      <trkpt lat="43.0892276577651500701904296875" lon="-1.37448367662727832794189453125">
        <ele>432.79998779296875</ele>
        <time>2020-08-22T07:08:00.000Z</time>
      </trkpt>
      <trkpt lat="43.08932480402290821075439453125" lon="-1.37469003908336162567138671875">
        <ele>432</ele>
        <time>2020-08-22T07:08:03.000Z</time>
      </trkpt>
      <trkpt lat="43.089360930025577545166015625" lon="-1.37476245872676372528076171875">
        <ele>431.600006103515625</ele>
        <time>2020-08-22T07:08:04.000Z</time>
      </trkpt>
      <trkpt lat="43.0894646979868412017822265625" lon="-1.37496798299252986907958984375">
        <ele>431</ele>
        <time>2020-08-22T07:08:07.000Z</time>
      </trkpt>
      <trkpt lat="43.089556060731410980224609375" lon="-1.3751834817230701446533203125">
        <ele>430.399993896484375</ele>
        <time>2020-08-22T07:08:10.000Z</time>
      </trkpt>
      <trkpt lat="43.08965790085494518280029296875" lon="-1.3753782771527767181396484375">
        <ele>430.20001220703125</ele>
        <time>2020-08-22T07:08:13.000Z</time>
      </trkpt>
      <trkpt lat="43.08970266021788120269775390625" lon="-1.37542647309601306915283203125">
        <ele>430</ele>
        <time>2020-08-22T07:08:14.000Z</time>
      </trkpt>
      <trkpt lat="43.08975152671337127685546875" lon="-1.37546704150736331939697265625">
        <ele>429.600006103515625</ele>
        <time>2020-08-22T07:08:15.000Z</time>
      </trkpt>
      <trkpt lat="43.08992075733840465545654296875" lon="-1.375551782548427581787109375">
        <ele>429</ele>
        <time>2020-08-22T07:08:18.000Z</time>
      </trkpt>
      <trkpt lat="43.0900941789150238037109375" lon="-1.37555907480418682098388671875">
        <ele>428.600006103515625</ele>
        <time>2020-08-22T07:08:21.000Z</time>
      </trkpt>
      <trkpt lat="43.09015260078012943267822265625" lon="-1.37554071843624114990234375">
        <ele>428.399993896484375</ele>
        <time>2020-08-22T07:08:22.000Z</time>
      </trkpt>
      <trkpt lat="43.09035225771367549896240234375" lon="-1.375356651842594146728515625">
        <ele>427.399993896484375</ele>
        <time>2020-08-22T07:08:26.000Z</time>
      </trkpt>
      <trkpt lat="43.090433813631534576416015625" lon="-1.37523385696113109588623046875">
        <ele>427.20001220703125</ele>
        <time>2020-08-22T07:08:28.000Z</time>
      </trkpt>
      <trkpt lat="43.09055224992334842681884765625" lon="-1.3750304281711578369140625">
        <ele>426.399993896484375</ele>
        <time>2020-08-22T07:08:31.000Z</time>
      </trkpt>
      <trkpt lat="43.09059667401015758514404296875" lon="-1.374968402087688446044921875">
        <ele>426.399993896484375</ele>
        <time>2020-08-22T07:08:32.000Z</time>
      </trkpt>
      <trkpt lat="43.0907379090785980224609375" lon="-1.37479648925364017486572265625">
        <ele>426.399993896484375</ele>
        <time>2020-08-22T07:08:35.000Z</time>
      </trkpt>
      <trkpt lat="43.09087294153869152069091796875" lon="-1.37467344291508197784423828125">
        <ele>426.20001220703125</ele>
        <time>2020-08-22T07:08:38.000Z</time>
      </trkpt>
      <trkpt lat="43.091059438884258270263671875" lon="-1.37463413178920745849609375">
        <ele>426.20001220703125</ele>
        <time>2020-08-22T07:08:42.000Z</time>
      </trkpt>
      <trkpt lat="43.0913278274238109588623046875" lon="-1.3746678270399570465087890625">
        <ele>425.600006103515625</ele>
        <time>2020-08-22T07:08:48.000Z</time>
      </trkpt>
      <trkpt lat="43.09137200005352497100830078125" lon="-1.37466891668736934661865234375">
        <ele>425.399993896484375</ele>
        <time>2020-08-22T07:08:49.000Z</time>
      </trkpt>
      <trkpt lat="43.09141642414033412933349609375" lon="-1.37466791085898876190185546875">
        <ele>425.20001220703125</ele>
        <time>2020-08-22T07:08:50.000Z</time>
      </trkpt>
      <trkpt lat="43.09154986403882503509521484375" lon="-1.374657936394214630126953125">
        <ele>425</ele>
        <time>2020-08-22T07:08:53.000Z</time>
      </trkpt>
      <trkpt lat="43.091645501554012298583984375" lon="-1.37466640211641788482666015625">
        <ele>424.600006103515625</ele>
        <time>2020-08-22T07:08:55.000Z</time>
      </trkpt>
      <trkpt lat="43.0917559750378131866455078125" lon="-1.37468039989471435546875">
        <ele>424.20001220703125</ele>
        <time>2020-08-22T07:08:57.000Z</time>
      </trkpt>
      <trkpt lat="43.0918102897703647613525390625" lon="-1.37469037435948848724365234375">
        <ele>424</ele>
        <time>2020-08-22T07:08:58.000Z</time>
      </trkpt>
      <trkpt lat="43.0920426361262798309326171875" lon="-1.37474183924496173858642578125">
        <ele>423.20001220703125</ele>
        <time>2020-08-22T07:09:02.000Z</time>
      </trkpt>
      <trkpt lat="43.09210055507719516754150390625" lon="-1.37475751340389251708984375">
        <ele>422.600006103515625</ele>
        <time>2020-08-22T07:09:03.000Z</time>
      </trkpt>
      <trkpt lat="43.092213459312915802001953125" lon="-1.3748009316623210906982421875">
        <ele>422.399993896484375</ele>
        <time>2020-08-22T07:09:05.000Z</time>
      </trkpt>
      <trkpt lat="43.0922629125416278839111328125" lon="-1.37483169324696063995361328125">
        <ele>422</ele>
        <time>2020-08-22T07:09:06.000Z</time>
      </trkpt>
      <trkpt lat="43.09230859391391277313232421875" lon="-1.37487108819186687469482421875">
        <ele>421.79998779296875</ele>
        <time>2020-08-22T07:09:07.000Z</time>
      </trkpt>
      <trkpt lat="43.092442788183689117431640625" lon="-1.375057585537433624267578125">
        <ele>421</ele>
        <time>2020-08-22T07:09:10.000Z</time>
      </trkpt>
      <trkpt lat="43.09248411096632480621337890625" lon="-1.375131346285343170166015625">
        <ele>420.79998779296875</ele>
        <time>2020-08-22T07:09:11.000Z</time>
      </trkpt>
      <trkpt lat="43.09256508015096187591552734375" lon="-1.37527258135378360748291015625">
        <ele>420.20001220703125</ele>
        <time>2020-08-22T07:09:13.000Z</time>
      </trkpt>
      <trkpt lat="43.092631883919239044189453125" lon="-1.37541859410703182220458984375">
        <ele>420</ele>
        <time>2020-08-22T07:09:15.000Z</time>
      </trkpt>
      <trkpt lat="43.09266147203743457794189453125" lon="-1.3754939474165439605712890625">
        <ele>419.79998779296875</ele>
        <time>2020-08-22T07:09:16.000Z</time>
      </trkpt>
      <trkpt lat="43.09272014535963535308837890625" lon="-1.37562814168632030487060546875">
        <ele>419.600006103515625</ele>
        <time>2020-08-22T07:09:18.000Z</time>
      </trkpt>
      <trkpt lat="43.09278619475662708282470703125" lon="-1.3757304847240447998046875">
        <ele>419</ele>
        <time>2020-08-22T07:09:20.000Z</time>
      </trkpt>
      <trkpt lat="43.09281804598867893218994140625" lon="-1.3757745735347270965576171875">
        <ele>418.79998779296875</ele>
        <time>2020-08-22T07:09:21.000Z</time>
      </trkpt>
      <trkpt lat="43.092928268015384674072265625" lon="-1.3759016431868076324462890625">
        <ele>418.600006103515625</ele>
        <time>2020-08-22T07:09:24.000Z</time>
      </trkpt>
      <trkpt lat="43.0930605344474315643310546875" lon="-1.37599526904523372650146484375">
        <ele>418.20001220703125</ele>
        <time>2020-08-22T07:09:27.000Z</time>
      </trkpt>
      <trkpt lat="43.09310906566679477691650390625" lon="-1.37601546943187713623046875">
        <ele>418.20001220703125</ele>
        <time>2020-08-22T07:09:28.000Z</time>
      </trkpt>
      <trkpt lat="43.09315583668649196624755859375" lon="-1.37602712027728557586669921875">
        <ele>418.20001220703125</ele>
        <time>2020-08-22T07:09:29.000Z</time>
      </trkpt>
      <trkpt lat="43.093398995697498321533203125" lon="-1.3760384358465671539306640625">
        <ele>418.399993896484375</ele>
        <time>2020-08-22T07:09:35.000Z</time>
      </trkpt>
      <trkpt lat="43.093576692044734954833984375" lon="-1.3759777508676052093505859375">
        <ele>418</ele>
        <time>2020-08-22T07:09:42.000Z</time>
      </trkpt>
      <trkpt lat="43.0937404744327068328857421875" lon="-1.375911198556423187255859375">
        <ele>417.600006103515625</ele>
        <time>2020-08-22T07:09:48.000Z</time>
      </trkpt>
      <trkpt lat="43.09397743083536624908447265625" lon="-1.375957466661930084228515625">
        <ele>417.399993896484375</ele>
        <time>2020-08-22T07:09:56.000Z</time>
      </trkpt>
      <trkpt lat="43.094188906252384185791015625" lon="-1.3760324008762836456298828125">
        <ele>417.399993896484375</ele>
        <time>2020-08-22T07:10:03.000Z</time>
      </trkpt>
      <trkpt lat="43.09421740472316741943359375" lon="-1.3760469853878021240234375">
        <ele>417.20001220703125</ele>
        <time>2020-08-22T07:10:04.000Z</time>
      </trkpt>
      <trkpt lat="43.09436266310513019561767578125" lon="-1.37612720020115375518798828125">
        <ele>416.600006103515625</ele>
        <time>2020-08-22T07:10:08.000Z</time>
      </trkpt>
      <trkpt lat="43.09447833336889743804931640625" lon="-1.376198865473270416259765625">
        <ele>416</ele>
        <time>2020-08-22T07:10:11.000Z</time>
      </trkpt>
      <trkpt lat="43.0945920757949352264404296875" lon="-1.3762463070452213287353515625">
        <ele>415.20001220703125</ele>
        <time>2020-08-22T07:10:14.000Z</time>
      </trkpt>
      <trkpt lat="43.09484629891812801361083984375" lon="-1.37624387629330158233642578125">
        <ele>415</ele>
        <time>2020-08-22T07:10:21.000Z</time>
      </trkpt>
      <trkpt lat="43.09491788037121295928955078125" lon="-1.37620783410966396331787109375">
        <ele>414.79998779296875</ele>
        <time>2020-08-22T07:10:23.000Z</time>
      </trkpt>
      <trkpt lat="43.09510328806936740875244140625" lon="-1.37610792182385921478271484375">
        <ele>414.600006103515625</ele>
        <time>2020-08-22T07:10:28.000Z</time>
      </trkpt>
      <trkpt lat="43.09522566385567188262939453125" lon="-1.37603784911334514617919921875">
        <ele>414.20001220703125</ele>
        <time>2020-08-22T07:10:31.000Z</time>
      </trkpt>
      <trkpt lat="43.0953109078109264373779296875" lon="-1.37597029097378253936767578125">
        <ele>414</ele>
        <time>2020-08-22T07:10:33.000Z</time>
      </trkpt>
      <trkpt lat="43.09535206295549869537353515625" lon="-1.37594045139849185943603515625">
        <ele>413.79998779296875</ele>
        <time>2020-08-22T07:10:34.000Z</time>
      </trkpt>
      <trkpt lat="43.09557259082794189453125" lon="-1.37584523297846317291259765625">
        <ele>413</ele>
        <time>2020-08-22T07:10:39.000Z</time>
      </trkpt>
      <trkpt lat="43.09561776928603649139404296875" lon="-1.37583869509398937225341796875">
        <ele>412.79998779296875</ele>
        <time>2020-08-22T07:10:40.000Z</time>
      </trkpt>
      <trkpt lat="43.09566470794379711151123046875" lon="-1.37583986856043338775634765625">
        <ele>412.600006103515625</ele>
        <time>2020-08-22T07:10:41.000Z</time>
      </trkpt>
      <trkpt lat="43.09579395689070224761962890625" lon="-1.37587876059114933013916015625">
        <ele>412.399993896484375</ele>
        <time>2020-08-22T07:10:44.000Z</time>
      </trkpt>
      <trkpt lat="43.09591281227767467498779296875" lon="-1.37605243362486362457275390625">
        <ele>411.79998779296875</ele>
        <time>2020-08-22T07:10:48.000Z</time>
      </trkpt>
      <trkpt lat="43.095940053462982177734375" lon="-1.37610943056643009185791015625">
        <ele>411.600006103515625</ele>
        <time>2020-08-22T07:10:49.000Z</time>
      </trkpt>
      <trkpt lat="43.09601339511573314666748046875" lon="-1.37629299424588680267333984375">
        <ele>411.399993896484375</ele>
        <time>2020-08-22T07:10:52.000Z</time>
      </trkpt>
      <trkpt lat="43.09605111368000507354736328125" lon="-1.37642861343920230865478515625">
        <ele>411.20001220703125</ele>
        <time>2020-08-22T07:10:54.000Z</time>
      </trkpt>
      <trkpt lat="43.0960904248058795928955078125" lon="-1.37656825594604015350341796875">
        <ele>411.20001220703125</ele>
        <time>2020-08-22T07:10:56.000Z</time>
      </trkpt>
      <trkpt lat="43.09620223939418792724609375" lon="-1.37681853957474231719970703125">
        <ele>411</ele>
        <time>2020-08-22T07:11:00.000Z</time>
      </trkpt>
      <trkpt lat="43.09622964821755886077880859375" lon="-1.37688240967690944671630859375">
        <ele>410.79998779296875</ele>
        <time>2020-08-22T07:11:01.000Z</time>
      </trkpt>
      <trkpt lat="43.09631832875311374664306640625" lon="-1.37707494199275970458984375">
        <ele>410.600006103515625</ele>
        <time>2020-08-22T07:11:04.000Z</time>
      </trkpt>
      <trkpt lat="43.0963866412639617919921875" lon="-1.3771917857229709625244140625">
        <ele>410</ele>
        <time>2020-08-22T07:11:06.000Z</time>
      </trkpt>
      <trkpt lat="43.09656777419149875640869140625" lon="-1.377322711050510406494140625">
        <ele>409.600006103515625</ele>
        <time>2020-08-22T07:11:10.000Z</time>
      </trkpt>
      <trkpt lat="43.096615634858608245849609375" lon="-1.3773352839052677154541015625">
        <ele>409.399993896484375</ele>
        <time>2020-08-22T07:11:11.000Z</time>
      </trkpt>
      <trkpt lat="43.09667053632438182830810546875" lon="-1.3773413188755512237548828125">
        <ele>409.399993896484375</ele>
        <time>2020-08-22T07:11:12.000Z</time>
      </trkpt>
      <trkpt lat="43.09678670950233936309814453125" lon="-1.37733687646687030792236328125">
        <ele>409</ele>
        <time>2020-08-22T07:11:14.000Z</time>
      </trkpt>
      <trkpt lat="43.09690388850867748260498046875" lon="-1.3773185200989246368408203125">
        <ele>408.20001220703125</ele>
        <time>2020-08-22T07:11:16.000Z</time>
      </trkpt>
      <trkpt lat="43.0971502326428890228271484375" lon="-1.377252638339996337890625">
        <ele>407.20001220703125</ele>
        <time>2020-08-22T07:11:20.000Z</time>
      </trkpt>
      <trkpt lat="43.0974026955664157867431640625" lon="-1.3771589286625385284423828125">
        <ele>406</ele>
        <time>2020-08-22T07:11:24.000Z</time>
      </trkpt>
      <trkpt lat="43.097461201250553131103515625" lon="-1.37713168747723102569580078125">
        <ele>405.600006103515625</ele>
        <time>2020-08-22T07:11:25.000Z</time>
      </trkpt>
      <trkpt lat="43.0975663103163242340087890625" lon="-1.377084665000438690185546875">
        <ele>404.79998779296875</ele>
        <time>2020-08-22T07:11:27.000Z</time>
      </trkpt>
      <trkpt lat="43.09761752374470233917236328125" lon="-1.37706555426120758056640625">
        <ele>404.399993896484375</ele>
        <time>2020-08-22T07:11:28.000Z</time>
      </trkpt>
      <trkpt lat="43.09771525673568248748779296875" lon="-1.37705708853900432586669921875">
        <ele>404</ele>
        <time>2020-08-22T07:11:30.000Z</time>
      </trkpt>
      <trkpt lat="43.09786328114569187164306640625" lon="-1.37715138494968414306640625">
        <ele>403.600006103515625</ele>
        <time>2020-08-22T07:11:33.000Z</time>
      </trkpt>
      <trkpt lat="43.097966797649860382080078125" lon="-1.3773424923419952392578125">
        <ele>402.600006103515625</ele>
        <time>2020-08-22T07:11:36.000Z</time>
      </trkpt>
      <trkpt lat="43.09799638576805591583251953125" lon="-1.3774060271680355072021484375">
        <ele>402.399993896484375</ele>
        <time>2020-08-22T07:11:37.000Z</time>
      </trkpt>
      <trkpt lat="43.0981909297406673431396484375" lon="-1.3777530379593372344970703125">
        <ele>401.79998779296875</ele>
        <time>2020-08-22T07:11:43.000Z</time>
      </trkpt>
      <trkpt lat="43.09822219423949718475341796875" lon="-1.37780978344380855560302734375">
        <ele>401.399993896484375</ele>
        <time>2020-08-22T07:11:44.000Z</time>
      </trkpt>
      <trkpt lat="43.09832814149558544158935546875" lon="-1.37800474651157855987548828125">
        <ele>400.79998779296875</ele>
        <time>2020-08-22T07:11:47.000Z</time>
      </trkpt>
      <trkpt lat="43.09838530607521533966064453125" lon="-1.3781496696174144744873046875">
        <ele>400.20001220703125</ele>
        <time>2020-08-22T07:11:49.000Z</time>
      </trkpt>
      <trkpt lat="43.09851036407053470611572265625" lon="-1.37851797044277191162109375">
        <ele>399.20001220703125</ele>
        <time>2020-08-22T07:11:54.000Z</time>
      </trkpt>
      <trkpt lat="43.09856886975467205047607421875" lon="-1.3786532543599605560302734375">
        <ele>399</ele>
        <time>2020-08-22T07:11:56.000Z</time>
      </trkpt>
      <trkpt lat="43.0986961908638477325439453125" lon="-1.378936059772968292236328125">
        <ele>397.79998779296875</ele>
        <time>2020-08-22T07:12:00.000Z</time>
      </trkpt>
      <trkpt lat="43.09877355583012104034423828125" lon="-1.379062794148921966552734375">
        <ele>397.20001220703125</ele>
        <time>2020-08-22T07:12:02.000Z</time>
      </trkpt>
      <trkpt lat="43.09885754249989986419677734375" lon="-1.37917779386043548583984375">
        <ele>396.79998779296875</ele>
        <time>2020-08-22T07:12:04.000Z</time>
      </trkpt>
      <trkpt lat="43.099005483090877532958984375" lon="-1.37941273860633373260498046875">
        <ele>396</ele>
        <time>2020-08-22T07:12:08.000Z</time>
      </trkpt>
      <trkpt lat="43.09907765127718448638916015625" lon="-1.3795139081776142120361328125">
        <ele>395.79998779296875</ele>
        <time>2020-08-22T07:12:10.000Z</time>
      </trkpt>
      <trkpt lat="43.09928409755229949951171875" lon="-1.3797294907271862030029296875">
        <ele>395.20001220703125</ele>
        <time>2020-08-22T07:12:15.000Z</time>
      </trkpt>
      <trkpt lat="43.09937872923910617828369140625" lon="-1.37978372164070606231689453125">
        <ele>394.79998779296875</ele>
        <time>2020-08-22T07:12:17.000Z</time>
      </trkpt>
      <trkpt lat="43.0994817428290843963623046875" lon="-1.379813812673091888427734375">
        <ele>394.399993896484375</ele>
        <time>2020-08-22T07:12:19.000Z</time>
      </trkpt>
      <trkpt lat="43.09953513555228710174560546875" lon="-1.37981842271983623504638671875">
        <ele>394.399993896484375</ele>
        <time>2020-08-22T07:12:20.000Z</time>
      </trkpt>
      <trkpt lat="43.099747784435749053955078125" lon="-1.37978489510715007781982421875">
        <ele>393.79998779296875</ele>
        <time>2020-08-22T07:12:24.000Z</time>
      </trkpt>
      <trkpt lat="43.0998589284718036651611328125" lon="-1.37976360507309436798095703125">
        <ele>393.20001220703125</ele>
        <time>2020-08-22T07:12:26.000Z</time>
      </trkpt>
      <trkpt lat="43.10003067366778850555419921875" lon="-1.37974667362868785858154296875">
        <ele>392.600006103515625</ele>
        <time>2020-08-22T07:12:29.000Z</time>
      </trkpt>
      <trkpt lat="43.10019596479833126068115234375" lon="-1.37975773774087429046630859375">
        <ele>392.20001220703125</ele>
        <time>2020-08-22T07:12:32.000Z</time>
      </trkpt>
      <trkpt lat="43.10030392371118068695068359375" lon="-1.3797895051538944244384765625">
        <ele>391.79998779296875</ele>
        <time>2020-08-22T07:12:34.000Z</time>
      </trkpt>
      <trkpt lat="43.10035723261535167694091796875" lon="-1.37981607578694820404052734375">
        <ele>391.600006103515625</ele>
        <time>2020-08-22T07:12:35.000Z</time>
      </trkpt>
      <trkpt lat="43.1004594080150127410888671875" lon="-1.37989101000130176544189453125">
        <ele>391.20001220703125</ele>
        <time>2020-08-22T07:12:37.000Z</time>
      </trkpt>
      <trkpt lat="43.10055085457861423492431640625" lon="-1.37998790480196475982666015625">
        <ele>390.79998779296875</ele>
        <time>2020-08-22T07:12:39.000Z</time>
      </trkpt>
      <trkpt lat="43.10059293173253536224365234375" lon="-1.38003903441131114959716796875">
        <ele>390.399993896484375</ele>
        <time>2020-08-22T07:12:40.000Z</time>
      </trkpt>
      <trkpt lat="43.100632913410663604736328125" lon="-1.38009376823902130126953125">
        <ele>390.20001220703125</ele>
        <time>2020-08-22T07:12:41.000Z</time>
      </trkpt>
      <trkpt lat="43.10067214071750640869140625" lon="-1.3801479153335094451904296875">
        <ele>390.20001220703125</ele>
        <time>2020-08-22T07:12:42.000Z</time>
      </trkpt>
      <trkpt lat="43.1007852964103221893310546875" lon="-1.3803071714937686920166015625">
        <ele>389.399993896484375</ele>
        <time>2020-08-22T07:12:45.000Z</time>
      </trkpt>
      <trkpt lat="43.10082913376390933990478515625" lon="-1.38035260140895843505859375">
        <ele>389</ele>
        <time>2020-08-22T07:12:46.000Z</time>
      </trkpt>
      <trkpt lat="43.1009177304804325103759765625" lon="-1.380424015223979949951171875">
        <ele>388.79998779296875</ele>
        <time>2020-08-22T07:12:48.000Z</time>
      </trkpt>
      <trkpt lat="43.10099191032350063323974609375" lon="-1.3804484903812408447265625">
        <ele>388.399993896484375</ele>
        <time>2020-08-22T07:12:51.000Z</time>
      </trkpt>
      <trkpt lat="43.10099626891314983367919921875" lon="-1.380453519523143768310546875">
        <ele>388.20001220703125</ele>
        <time>2020-08-22T07:12:52.000Z</time>
      </trkpt>
      <trkpt lat="43.10103432275354862213134765625" lon="-1.38047925196588039398193359375">
        <ele>388</ele>
        <time>2020-08-22T07:12:57.000Z</time>
      </trkpt>
      <trkpt lat="43.1010504998266696929931640625" lon="-1.3804660923779010772705078125">
        <ele>387.600006103515625</ele>
        <time>2020-08-22T07:13:07.000Z</time>
      </trkpt>
      <trkpt lat="43.10105192475020885467529296875" lon="-1.3804620690643787384033203125">
        <ele>387.600006103515625</ele>
        <time>2020-08-22T07:13:16.000Z</time>
      </trkpt>
      <trkpt lat="43.10105661861598491668701171875" lon="-1.380462907254695892333984375">
        <ele>387.399993896484375</ele>
        <time>2020-08-22T07:13:25.000Z</time>
      </trkpt>
      <trkpt lat="43.101057372987270355224609375" lon="-1.3804422877728939056396484375">
        <ele>387.600006103515625</ele>
        <time>2020-08-22T07:13:35.000Z</time>
      </trkpt>
      <trkpt lat="43.1010665930807590484619140625" lon="-1.38044572435319423675537109375">
        <ele>387.399993896484375</ele>
        <time>2020-08-22T07:13:44.000Z</time>
      </trkpt>
      <trkpt lat="43.1010617315769195556640625" lon="-1.380438096821308135986328125">
        <ele>387.399993896484375</ele>
        <time>2020-08-22T07:13:51.000Z</time>
      </trkpt>
      <trkpt lat="43.10105678625404834747314453125" lon="-1.38044320978224277496337890625">
        <ele>387.20001220703125</ele>
        <time>2020-08-22T07:14:00.000Z</time>
      </trkpt>
      <trkpt lat="43.1010602228343486785888671875" lon="-1.3804520107805728912353515625">
        <ele>387.399993896484375</ele>
        <time>2020-08-22T07:14:10.000Z</time>
      </trkpt>
      <trkpt lat="43.10105930082499980926513671875" lon="-1.3804523460566997528076171875">
        <ele>387.20001220703125</ele>
        <time>2020-08-22T07:14:26.000Z</time>
      </trkpt>
      <trkpt lat="43.10106013901531696319580078125" lon="-1.380451507866382598876953125">
        <ele>387.399993896484375</ele>
        <time>2020-08-22T07:14:36.000Z</time>
      </trkpt>
      <trkpt lat="43.101060055196285247802734375" lon="-1.38045175932347774505615234375">
        <ele>387.20001220703125</ele>
        <time>2020-08-22T07:14:39.000Z</time>
      </trkpt>
      <trkpt lat="43.101060055196285247802734375" lon="-1.3804520107805728912353515625">
        <ele>387.20001220703125</ele>
        <time>2020-08-22T07:14:41.000Z</time>
      </trkpt>
      <trkpt lat="43.1010598875582218170166015625" lon="-1.3804516755044460296630859375">
        <ele>387.399993896484375</ele>
        <time>2020-08-22T07:15:07.000Z</time>
      </trkpt>
      <trkpt lat="43.1009760685265064239501953125" lon="-1.38038453646004199981689453125">
        <ele>389.399993896484375</ele>
        <time>2020-08-22T07:25:55.000Z</time>
      </trkpt>
      <trkpt lat="43.100989647209644317626953125" lon="-1.3803893141448497772216796875">
        <ele>389.399993896484375</ele>
        <time>2020-08-22T07:25:58.000Z</time>
      </trkpt>
      <trkpt lat="43.10105745680630207061767578125" lon="-1.38039283454418182373046875">
        <ele>389.20001220703125</ele>
        <time>2020-08-22T07:26:02.000Z</time>
      </trkpt>
      <trkpt lat="43.1011195667088031768798828125" lon="-1.38037665747106075286865234375">
        <ele>389.20001220703125</ele>
        <time>2020-08-22T07:26:05.000Z</time>
      </trkpt>
      <trkpt lat="43.10128259472548961639404296875" lon="-1.380358971655368804931640625">
        <ele>388.600006103515625</ele>
        <time>2020-08-22T07:26:11.000Z</time>
      </trkpt>
      <trkpt lat="43.101440258324146270751953125" lon="-1.38023726642131805419921875">
        <ele>388.399993896484375</ele>
        <time>2020-08-22T07:26:16.000Z</time>
      </trkpt>
      <trkpt lat="43.1014652363955974578857421875" lon="-1.38020382262766361236572265625">
        <ele>388.20001220703125</ele>
        <time>2020-08-22T07:26:17.000Z</time>
      </trkpt>
      <trkpt lat="43.101578056812286376953125" lon="-1.3801056705415248870849609375">
        <ele>388</ele>
        <time>2020-08-22T07:26:21.000Z</time>
      </trkpt>
      <trkpt lat="43.1018099002540111541748046875" lon="-1.3800332508981227874755859375">
        <ele>387.399993896484375</ele>
        <time>2020-08-22T07:26:27.000Z</time>
      </trkpt>
      <trkpt lat="43.1020157597959041595458984375" lon="-1.37990467250347137451171875">
        <ele>387.20001220703125</ele>
        <time>2020-08-22T07:26:33.000Z</time>
      </trkpt>
      <trkpt lat="43.10208030045032501220703125" lon="-1.37986351735889911651611328125">
        <ele>387.20001220703125</ele>
        <time>2020-08-22T07:26:35.000Z</time>
      </trkpt>
      <trkpt lat="43.10229982249438762664794921875" lon="-1.37977232225239276885986328125">
        <ele>386.79998779296875</ele>
        <time>2020-08-22T07:26:41.000Z</time>
      </trkpt>
      <trkpt lat="43.1026695482432842254638671875" lon="-1.379679702222347259521484375">
        <ele>386.79998779296875</ele>
        <time>2020-08-22T07:26:51.000Z</time>
      </trkpt>
      <trkpt lat="43.1029417924582958221435546875" lon="-1.37951382435858249664306640625">
        <ele>386.20001220703125</ele>
        <time>2020-08-22T07:26:58.000Z</time>
      </trkpt>
      <trkpt lat="43.102987892925739288330078125" lon="-1.37948465533554553985595703125">
        <ele>386</ele>
        <time>2020-08-22T07:26:59.000Z</time>
      </trkpt>
      <trkpt lat="43.10322962701320648193359375" lon="-1.37937971390783786773681640625">
        <ele>385</ele>
        <time>2020-08-22T07:27:04.000Z</time>
      </trkpt>
      <trkpt lat="43.10327656567096710205078125" lon="-1.379365213215351104736328125">
        <ele>384.79998779296875</ele>
        <time>2020-08-22T07:27:05.000Z</time>
      </trkpt>
      <trkpt lat="43.103483431041240692138671875" lon="-1.37931802310049533843994140625">
        <ele>384.20001220703125</ele>
        <time>2020-08-22T07:27:09.000Z</time>
      </trkpt>
      <trkpt lat="43.10353464446961879730224609375" lon="-1.379318274557590484619140625">
        <ele>384</ele>
        <time>2020-08-22T07:27:10.000Z</time>
      </trkpt>
      <trkpt lat="43.10358711518347263336181640625" lon="-1.37932439334690570831298828125">
        <ele>383.79998779296875</ele>
        <time>2020-08-22T07:27:11.000Z</time>
      </trkpt>
      <trkpt lat="43.10374905355274677276611328125" lon="-1.37936898507177829742431640625">
        <ele>382.79998779296875</ele>
        <time>2020-08-22T07:27:14.000Z</time>
      </trkpt>
      <trkpt lat="43.10380420647561550140380859375" lon="-1.3793935440480709075927734375">
        <ele>382.600006103515625</ele>
        <time>2020-08-22T07:27:15.000Z</time>
      </trkpt>
      <trkpt lat="43.10402414761483669281005859375" lon="-1.37951013632118701934814453125">
        <ele>381.79998779296875</ele>
        <time>2020-08-22T07:27:19.000Z</time>
      </trkpt>
      <trkpt lat="43.10407678596675395965576171875" lon="-1.37954525649547576904296875">
        <ele>381.600006103515625</ele>
        <time>2020-08-22T07:27:20.000Z</time>
      </trkpt>
      <trkpt lat="43.1041256524622440338134765625" lon="-1.379587166011333465576171875">
        <ele>381.600006103515625</ele>
        <time>2020-08-22T07:27:21.000Z</time>
      </trkpt>
      <trkpt lat="43.104213662445545196533203125" lon="-1.37968515045940876007080078125">
        <ele>380.79998779296875</ele>
        <time>2020-08-22T07:27:23.000Z</time>
      </trkpt>
      <trkpt lat="43.104415498673915863037109375" lon="-1.3799675367772579193115234375">
        <ele>379.79998779296875</ele>
        <time>2020-08-22T07:27:28.000Z</time>
      </trkpt>
      <trkpt lat="43.104451708495616912841796875" lon="-1.3800305686891078948974609375">
        <ele>379.600006103515625</ele>
        <time>2020-08-22T07:27:29.000Z</time>
      </trkpt>
      <trkpt lat="43.104655556380748748779296875" lon="-1.38040230609476566314697265625">
        <ele>378.600006103515625</ele>
        <time>2020-08-22T07:27:35.000Z</time>
      </trkpt>
      <trkpt lat="43.1048226915299892425537109375" lon="-1.38048260472714900970458984375">
        <ele>377.79998779296875</ele>
        <time>2020-08-22T07:27:39.000Z</time>
      </trkpt>
      <trkpt lat="43.10486652888357639312744140625" lon="-1.38047539629042148590087890625">
        <ele>377.79998779296875</ele>
        <time>2020-08-22T07:27:40.000Z</time>
      </trkpt>
      <trkpt lat="43.104953281581401824951171875" lon="-1.38044974766671657562255859375">
        <ele>377.399993896484375</ele>
        <time>2020-08-22T07:27:42.000Z</time>
      </trkpt>
      <trkpt lat="43.105041794478893280029296875" lon="-1.3804131187498569488525390625">
        <ele>377.20001220703125</ele>
        <time>2020-08-22T07:27:44.000Z</time>
      </trkpt>
      <trkpt lat="43.1052853725850582122802734375" lon="-1.3802709616720676422119140625">
        <ele>376.399993896484375</ele>
        <time>2020-08-22T07:27:49.000Z</time>
      </trkpt>
      <trkpt lat="43.105337508022785186767578125" lon="-1.380236260592937469482421875">
        <ele>376.20001220703125</ele>
        <time>2020-08-22T07:27:50.000Z</time>
      </trkpt>
      <trkpt lat="43.10550875030457973480224609375" lon="-1.38013659976422786712646484375">
        <ele>375.20001220703125</ele>
        <time>2020-08-22T07:27:53.000Z</time>
      </trkpt>
      <trkpt lat="43.10575014911592006683349609375" lon="-1.38001807965338230133056640625">
        <ele>374.20001220703125</ele>
        <time>2020-08-22T07:27:57.000Z</time>
      </trkpt>
      <trkpt lat="43.10591627843677997589111328125" lon="-1.37992001138627529144287109375">
        <ele>373.600006103515625</ele>
        <time>2020-08-22T07:28:00.000Z</time>
      </trkpt>
      <trkpt lat="43.10597528703510761260986328125" lon="-1.37989335693418979644775390625">
        <ele>373.20001220703125</ele>
        <time>2020-08-22T07:28:01.000Z</time>
      </trkpt>
      <trkpt lat="43.10603647492825984954833984375" lon="-1.37986175715923309326171875">
        <ele>372.79998779296875</ele>
        <time>2020-08-22T07:28:02.000Z</time>
      </trkpt>
      <trkpt lat="43.10627938248217105865478515625" lon="-1.3797217793762683868408203125">
        <ele>371.79998779296875</ele>
        <time>2020-08-22T07:28:06.000Z</time>
      </trkpt>
      <trkpt lat="43.10638885013759136199951171875" lon="-1.3796631060540676116943359375">
        <ele>371.600006103515625</ele>
        <time>2020-08-22T07:28:08.000Z</time>
      </trkpt>
      <trkpt lat="43.10653821565210819244384765625" lon="-1.37960468418896198272705078125">
        <ele>371.20001220703125</ele>
        <time>2020-08-22T07:28:11.000Z</time>
      </trkpt>
      <trkpt lat="43.1065919436514377593994140625" lon="-1.37960518710315227508544921875">
        <ele>371</ele>
        <time>2020-08-22T07:28:12.000Z</time>
      </trkpt>
      <trkpt lat="43.10670266859233379364013671875" lon="-1.3796369545161724090576171875">
        <ele>370.79998779296875</ele>
        <time>2020-08-22T07:28:14.000Z</time>
      </trkpt>
      <trkpt lat="43.1068145669996738433837890625" lon="-1.379690431058406829833984375">
        <ele>370.600006103515625</ele>
        <time>2020-08-22T07:28:16.000Z</time>
      </trkpt>
      <trkpt lat="43.10686393640935420989990234375" lon="-1.3797274790704250335693359375">
        <ele>370.399993896484375</ele>
        <time>2020-08-22T07:28:17.000Z</time>
      </trkpt>
      <trkpt lat="43.10700190253555774688720703125" lon="-1.379877515137195587158203125">
        <ele>369.79998779296875</ele>
        <time>2020-08-22T07:28:20.000Z</time>
      </trkpt>
      <trkpt lat="43.10709494166076183319091796875" lon="-1.37998245656490325927734375">
        <ele>369.20001220703125</ele>
        <time>2020-08-22T07:28:22.000Z</time>
      </trkpt>
      <trkpt lat="43.10728915035724639892578125" lon="-1.380180604755878448486328125">
        <ele>368.399993896484375</ele>
        <time>2020-08-22T07:28:26.000Z</time>
      </trkpt>
      <trkpt lat="43.10753448866307735443115234375" lon="-1.3804278708994388580322265625">
        <ele>368</ele>
        <time>2020-08-22T07:28:31.000Z</time>
      </trkpt>
      <trkpt lat="43.10767094604671001434326171875" lon="-1.3805951736867427825927734375">
        <ele>367.600006103515625</ele>
        <time>2020-08-22T07:28:34.000Z</time>
      </trkpt>
      <trkpt lat="43.107708580791950225830078125" lon="-1.38065845705568790435791015625">
        <ele>367.399993896484375</ele>
        <time>2020-08-22T07:28:35.000Z</time>
      </trkpt>
      <trkpt lat="43.10777731239795684814453125" lon="-1.38079189695417881011962890625">
        <ele>366.79998779296875</ele>
        <time>2020-08-22T07:28:37.000Z</time>
      </trkpt>
      <trkpt lat="43.10794369317591190338134765625" lon="-1.38111795298755168914794921875">
        <ele>366.20001220703125</ele>
        <time>2020-08-22T07:28:42.000Z</time>
      </trkpt>
      <trkpt lat="43.1080765463411808013916015625" lon="-1.3813840784132480621337890625">
        <ele>365.79998779296875</ele>
        <time>2020-08-22T07:28:46.000Z</time>
      </trkpt>
      <trkpt lat="43.10813765041530132293701171875" lon="-1.381632350385189056396484375">
        <ele>365.20001220703125</ele>
        <time>2020-08-22T07:28:49.000Z</time>
      </trkpt>
      <trkpt lat="43.1081841699779033660888671875" lon="-1.381802000105381011962890625">
        <ele>364.600006103515625</ele>
        <time>2020-08-22T07:28:51.000Z</time>
      </trkpt>
      <trkpt lat="43.10821476392447948455810546875" lon="-1.3818829692900180816650390625">
        <ele>364.20001220703125</ele>
        <time>2020-08-22T07:28:52.000Z</time>
      </trkpt>
      <trkpt lat="43.10824946500360965728759765625" lon="-1.381957232952117919921875">
        <ele>364</ele>
        <time>2020-08-22T07:28:53.000Z</time>
      </trkpt>
      <trkpt lat="43.108331523835659027099609375" lon="-1.38208262622356414794921875">
        <ele>363.600006103515625</ele>
        <time>2020-08-22T07:28:55.000Z</time>
      </trkpt>
      <trkpt lat="43.1084456853568553924560546875" lon="-1.38216401450335979461669921875">
        <ele>362.79998779296875</ele>
        <time>2020-08-22T07:28:57.000Z</time>
      </trkpt>
      <trkpt lat="43.1085120700299739837646484375" lon="-1.38219150714576244354248046875">
        <ele>362.399993896484375</ele>
        <time>2020-08-22T07:28:58.000Z</time>
      </trkpt>
      <trkpt lat="43.10865095816552639007568359375" lon="-1.38222788460552692413330078125">
        <ele>361.600006103515625</ele>
        <time>2020-08-22T07:29:00.000Z</time>
      </trkpt>
      <trkpt lat="43.1087906844913959503173828125" lon="-1.382273398339748382568359375">
        <ele>360.399993896484375</ele>
        <time>2020-08-22T07:29:02.000Z</time>
      </trkpt>
      <trkpt lat="43.1088570691645145416259765625" lon="-1.38230860233306884765625">
        <ele>360</ele>
        <time>2020-08-22T07:29:03.000Z</time>
      </trkpt>
      <trkpt lat="43.1089804507791996002197265625" lon="-1.3824023120105266571044921875">
        <ele>359</ele>
        <time>2020-08-22T07:29:05.000Z</time>
      </trkpt>
      <trkpt lat="43.10916577465832233428955078125" lon="-1.38254220597445964813232421875">
        <ele>358.20001220703125</ele>
        <time>2020-08-22T07:29:08.000Z</time>
      </trkpt>
      <trkpt lat="43.10923132114112377166748046875" lon="-1.38258419930934906005859375">
        <ele>357.600006103515625</ele>
        <time>2020-08-22T07:29:09.000Z</time>
      </trkpt>
      <trkpt lat="43.1092907488346099853515625" lon="-1.38263423927128314971923828125">
        <ele>357</ele>
        <time>2020-08-22T07:29:10.000Z</time>
      </trkpt>
      <trkpt lat="43.10939191840589046478271484375" lon="-1.3827674277126789093017578125">
        <ele>356.399993896484375</ele>
        <time>2020-08-22T07:29:12.000Z</time>
      </trkpt>
      <trkpt lat="43.1095115281641483306884765625" lon="-1.383015699684619903564453125">
        <ele>354.79998779296875</ele>
        <time>2020-08-22T07:29:15.000Z</time>
      </trkpt>
      <trkpt lat="43.10954296030104160308837890625" lon="-1.3831027038395404815673828125">
        <ele>354.20001220703125</ele>
        <time>2020-08-22T07:29:16.000Z</time>
      </trkpt>
      <trkpt lat="43.10956768691539764404296875" lon="-1.3831952400505542755126953125">
        <ele>353.600006103515625</ele>
        <time>2020-08-22T07:29:17.000Z</time>
      </trkpt>
      <trkpt lat="43.1096285395324230194091796875" lon="-1.38336547650396823883056640625">
        <ele>352.79998779296875</ele>
        <time>2020-08-22T07:29:19.000Z</time>
      </trkpt>
      <trkpt lat="43.10966961085796356201171875" lon="-1.38344359584152698516845703125">
        <ele>352.20001220703125</ele>
        <time>2020-08-22T07:29:20.000Z</time>
      </trkpt>
      <trkpt lat="43.10971814207732677459716796875" lon="-1.38351400382816791534423828125">
        <ele>351.399993896484375</ele>
        <time>2020-08-22T07:29:21.000Z</time>
      </trkpt>
      <trkpt lat="43.1097730435431003570556640625" lon="-1.38357418589293956756591796875">
        <ele>350.79998779296875</ele>
        <time>2020-08-22T07:29:22.000Z</time>
      </trkpt>
      <trkpt lat="43.10996976681053638458251953125" lon="-1.3836968131363391876220703125">
        <ele>349.399993896484375</ele>
        <time>2020-08-22T07:29:25.000Z</time>
      </trkpt>
      <trkpt lat="43.11019398272037506103515625" lon="-1.383729167282581329345703125">
        <ele>348</ele>
        <time>2020-08-22T07:29:28.000Z</time>
      </trkpt>
      <trkpt lat="43.11027453280985355377197265625" lon="-1.38372086919844150543212890625">
        <ele>347.399993896484375</ele>
        <time>2020-08-22T07:29:29.000Z</time>
      </trkpt>
      <trkpt lat="43.11035759747028350830078125" lon="-1.3837135769426822662353515625">
        <ele>346.79998779296875</ele>
        <time>2020-08-22T07:29:30.000Z</time>
      </trkpt>
      <trkpt lat="43.11052297241985797882080078125" lon="-1.3837236352264881134033203125">
        <ele>345.399993896484375</ele>
        <time>2020-08-22T07:29:32.000Z</time>
      </trkpt>
      <trkpt lat="43.11060645617544651031494140625" lon="-1.38374400325119495391845703125">
        <ele>345</ele>
        <time>2020-08-22T07:29:33.000Z</time>
      </trkpt>
      <trkpt lat="43.1107671372592449188232421875" lon="-1.3838047720491886138916015625">
        <ele>344</ele>
        <time>2020-08-22T07:29:35.000Z</time>
      </trkpt>
      <trkpt lat="43.1108442507684230804443359375" lon="-1.38384341262280941009521484375">
        <ele>343.20001220703125</ele>
        <time>2020-08-22T07:29:36.000Z</time>
      </trkpt>
      <trkpt lat="43.11092094518244266510009765625" lon="-1.3838822208344936370849609375">
        <ele>342.600006103515625</ele>
        <time>2020-08-22T07:29:37.000Z</time>
      </trkpt>
      <trkpt lat="43.1109971366822719573974609375" lon="-1.38391432352364063262939453125">
        <ele>342</ele>
        <time>2020-08-22T07:29:38.000Z</time>
      </trkpt>
      <trkpt lat="43.11107366345822811126708984375" lon="-1.38393511064350605010986328125">
        <ele>341.399993896484375</ele>
        <time>2020-08-22T07:29:39.000Z</time>
      </trkpt>
      <trkpt lat="43.11131103895604610443115234375" lon="-1.38393402099609375">
        <ele>340.20001220703125</ele>
        <time>2020-08-22T07:29:42.000Z</time>
      </trkpt>
      <trkpt lat="43.11146845109760761260986328125" lon="-1.38390493579208850860595703125">
        <ele>339</ele>
        <time>2020-08-22T07:29:44.000Z</time>
      </trkpt>
      <trkpt lat="43.11162787489593029022216796875" lon="-1.3838590867817401885986328125">
        <ele>337.600006103515625</ele>
        <time>2020-08-22T07:29:46.000Z</time>
      </trkpt>
      <trkpt lat="43.1117075867950916290283203125" lon="-1.383843161165714263916015625">
        <ele>337</ele>
        <time>2020-08-22T07:29:47.000Z</time>
      </trkpt>
      <trkpt lat="43.11178646050393581390380859375" lon="-1.3838429935276508331298828125">
        <ele>336</ele>
        <time>2020-08-22T07:29:48.000Z</time>
      </trkpt>
      <trkpt lat="43.11199986375868320465087890625" lon="-1.3839338533580303192138671875">
        <ele>334.600006103515625</ele>
        <time>2020-08-22T07:29:51.000Z</time>
      </trkpt>
      <trkpt lat="43.11217789538204669952392578125" lon="-1.384129486978054046630859375">
        <ele>333</ele>
        <time>2020-08-22T07:29:54.000Z</time>
      </trkpt>
      <trkpt lat="43.11223539523780345916748046875" lon="-1.384203918278217315673828125">
        <ele>332.600006103515625</ele>
        <time>2020-08-22T07:29:55.000Z</time>
      </trkpt>
      <trkpt lat="43.11234871856868267059326171875" lon="-1.38435571454465389251708984375">
        <ele>331.399993896484375</ele>
        <time>2020-08-22T07:29:57.000Z</time>
      </trkpt>
      <trkpt lat="43.1125201284885406494140625" lon="-1.3845326565206050872802734375">
        <ele>330</ele>
        <time>2020-08-22T07:30:00.000Z</time>
      </trkpt>
      <trkpt lat="43.1126420013606548309326171875" lon="-1.38458521105349063873291015625">
        <ele>328.79998779296875</ele>
        <time>2020-08-22T07:30:02.000Z</time>
      </trkpt>
      <trkpt lat="43.1127033568918704986572265625" lon="-1.3845829479396343231201171875">
        <ele>328.600006103515625</ele>
        <time>2020-08-22T07:30:03.000Z</time>
      </trkpt>
      <trkpt lat="43.11282715760171413421630859375" lon="-1.38453458435833454132080078125">
        <ele>327.79998779296875</ele>
        <time>2020-08-22T07:30:05.000Z</time>
      </trkpt>
      <trkpt lat="43.11289102770388126373291015625" lon="-1.3844974525272846221923828125">
        <ele>327.399993896484375</ele>
        <time>2020-08-22T07:30:06.000Z</time>
      </trkpt>
      <trkpt lat="43.11295808292925357818603515625" lon="-1.3844592310488224029541015625">
        <ele>326.79998779296875</ele>
        <time>2020-08-22T07:30:07.000Z</time>
      </trkpt>
      <trkpt lat="43.11302907764911651611328125" lon="-1.38442494906485080718994140625">
        <ele>326.399993896484375</ele>
        <time>2020-08-22T07:30:08.000Z</time>
      </trkpt>
      <trkpt lat="43.11317768879234790802001953125" lon="-1.3843723945319652557373046875">
        <ele>325</ele>
        <time>2020-08-22T07:30:10.000Z</time>
      </trkpt>
      <trkpt lat="43.1133229471743106842041015625" lon="-1.3843147270381450653076171875">
        <ele>324</ele>
        <time>2020-08-22T07:30:12.000Z</time>
      </trkpt>
      <trkpt lat="43.11339494772255420684814453125" lon="-1.38427357189357280731201171875">
        <ele>323.600006103515625</ele>
        <time>2020-08-22T07:30:13.000Z</time>
      </trkpt>
      <trkpt lat="43.11346493661403656005859375" lon="-1.3842218555510044097900390625">
        <ele>323</ele>
        <time>2020-08-22T07:30:14.000Z</time>
      </trkpt>
      <trkpt lat="43.11359711922705173492431640625" lon="-1.38411171734333038330078125">
        <ele>321.79998779296875</ele>
        <time>2020-08-22T07:30:16.000Z</time>
      </trkpt>
      <trkpt lat="43.1137217581272125244140625" lon="-1.38402798213064670562744140625">
        <ele>320.79998779296875</ele>
        <time>2020-08-22T07:30:18.000Z</time>
      </trkpt>
      <trkpt lat="43.11381588689982891082763671875" lon="-1.3839801214635372161865234375">
        <ele>319.600006103515625</ele>
        <time>2020-08-22T07:30:20.000Z</time>
      </trkpt>
      <trkpt lat="43.113848827779293060302734375" lon="-1.38396075926721096038818359375">
        <ele>318.79998779296875</ele>
        <time>2020-08-22T07:30:23.000Z</time>
      </trkpt>
      <trkpt lat="43.11386316083371639251708984375" lon="-1.38395573012530803680419921875">
        <ele>318.600006103515625</ele>
        <time>2020-08-22T07:30:29.000Z</time>
      </trkpt>
      <trkpt lat="43.11387456022202968597412109375" lon="-1.3839514553546905517578125">
        <ele>318.399993896484375</ele>
        <time>2020-08-22T07:30:30.000Z</time>
      </trkpt>
      <trkpt lat="43.11391512863337993621826171875" lon="-1.3839299976825714111328125">
        <ele>317.79998779296875</ele>
        <time>2020-08-22T07:30:35.000Z</time>
      </trkpt>
      <trkpt lat="43.11394178308546543121337890625" lon="-1.38390661217272281646728515625">
        <ele>317.79998779296875</ele>
        <time>2020-08-22T07:36:20.000Z</time>
      </trkpt>
      <trkpt lat="43.11398687772452831268310546875" lon="-1.3838951289653778076171875">
        <ele>317.399993896484375</ele>
        <time>2020-08-22T07:36:26.000Z</time>
      </trkpt>
      <trkpt lat="43.114146552979946136474609375" lon="-1.38384860940277576446533203125">
        <ele>317</ele>
        <time>2020-08-22T07:36:32.000Z</time>
      </trkpt>
      <trkpt lat="43.1142208166420459747314453125" lon="-1.38383503071963787078857421875">
        <ele>316.600006103515625</ele>
        <time>2020-08-22T07:36:34.000Z</time>
      </trkpt>
      <trkpt lat="43.1143918074667453765869140625" lon="-1.383818350732326507568359375">
        <ele>315.600006103515625</ele>
        <time>2020-08-22T07:36:38.000Z</time>
      </trkpt>
      <trkpt lat="43.1146191246807575225830078125" lon="-1.38374316506087779998779296875">
        <ele>314.20001220703125</ele>
        <time>2020-08-22T07:36:43.000Z</time>
      </trkpt>
      <trkpt lat="43.1147099845111370086669921875" lon="-1.38368449173867702484130859375">
        <ele>313.600006103515625</ele>
        <time>2020-08-22T07:36:45.000Z</time>
      </trkpt>
      <trkpt lat="43.11475851573050022125244140625" lon="-1.38365079648792743682861328125">
        <ele>313.20001220703125</ele>
        <time>2020-08-22T07:36:46.000Z</time>
      </trkpt>
      <trkpt lat="43.114972002804279327392578125" lon="-1.38349288143217563629150390625">
        <ele>312</ele>
        <time>2020-08-22T07:36:50.000Z</time>
      </trkpt>
      <trkpt lat="43.1150241382420063018798828125" lon="-1.3834433443844318389892578125">
        <ele>311.79998779296875</ele>
        <time>2020-08-22T07:36:51.000Z</time>
      </trkpt>
      <trkpt lat="43.1152157485485076904296875" lon="-1.38323329389095306396484375">
        <ele>311</ele>
        <time>2020-08-22T07:36:55.000Z</time>
      </trkpt>
      <trkpt lat="43.1152621842920780181884765625" lon="-1.38318962417542934417724609375">
        <ele>310.79998779296875</ele>
        <time>2020-08-22T07:36:56.000Z</time>
      </trkpt>
      <trkpt lat="43.11531155370175838470458984375" lon="-1.38315391726791858673095703125">
        <ele>310.79998779296875</ele>
        <time>2020-08-22T07:36:57.000Z</time>
      </trkpt>
      <trkpt lat="43.1155686266720294952392578125" lon="-1.3830904662609100341796875">
        <ele>310</ele>
        <time>2020-08-22T07:37:02.000Z</time>
      </trkpt>
      <trkpt lat="43.115712963044643402099609375" lon="-1.38315282762050628662109375">
        <ele>309.79998779296875</ele>
        <time>2020-08-22T07:37:05.000Z</time>
      </trkpt>
      <trkpt lat="43.11580424197018146514892578125" lon="-1.38322122395038604736328125">
        <ele>309.600006103515625</ele>
        <time>2020-08-22T07:37:07.000Z</time>
      </trkpt>
      <trkpt lat="43.116023428738117218017578125" lon="-1.383468322455883026123046875">
        <ele>308.79998779296875</ele>
        <time>2020-08-22T07:37:12.000Z</time>
      </trkpt>
      <trkpt lat="43.11606936156749725341796875" lon="-1.38353026472032070159912109375">
        <ele>308.399993896484375</ele>
        <time>2020-08-22T07:37:13.000Z</time>
      </trkpt>
      <trkpt lat="43.116170279681682586669921875" lon="-1.3836498744785785675048828125">
        <ele>307.600006103515625</ele>
        <time>2020-08-22T07:37:15.000Z</time>
      </trkpt>
      <trkpt lat="43.11628335155546665191650390625" lon="-1.3837182708084583282470703125">
        <ele>306.79998779296875</ele>
        <time>2020-08-22T07:37:17.000Z</time>
      </trkpt>
      <trkpt lat="43.11634135432541370391845703125" lon="-1.38372371904551982879638671875">
        <ele>306.399993896484375</ele>
        <time>2020-08-22T07:37:18.000Z</time>
      </trkpt>
      <trkpt lat="43.11645886860787868499755859375" lon="-1.38368113897740840911865234375">
        <ele>305.600006103515625</ele>
        <time>2020-08-22T07:37:20.000Z</time>
      </trkpt>
      <trkpt lat="43.11651268042623996734619140625" lon="-1.383641660213470458984375">
        <ele>305.20001220703125</ele>
        <time>2020-08-22T07:37:21.000Z</time>
      </trkpt>
      <trkpt lat="43.1166963279247283935546875" lon="-1.38342029415071010589599609375">
        <ele>304.399993896484375</ele>
        <time>2020-08-22T07:37:25.000Z</time>
      </trkpt>
      <trkpt lat="43.1167365610599517822265625" lon="-1.3833555020391941070556640625">
        <ele>304.20001220703125</ele>
        <time>2020-08-22T07:37:26.000Z</time>
      </trkpt>
      <trkpt lat="43.1169278360903263092041015625" lon="-1.383019722998142242431640625">
        <ele>303.399993896484375</ele>
        <time>2020-08-22T07:37:31.000Z</time>
      </trkpt>
      <trkpt lat="43.11696899123489856719970703125" lon="-1.38295836746692657470703125">
        <ele>303.20001220703125</ele>
        <time>2020-08-22T07:37:32.000Z</time>
      </trkpt>
      <trkpt lat="43.11714953742921352386474609375" lon="-1.382756866514682769775390625">
        <ele>302.79998779296875</ele>
        <time>2020-08-22T07:37:36.000Z</time>
      </trkpt>
      <trkpt lat="43.1172005832195281982421875" lon="-1.38272459618747234344482421875">
        <ele>302.600006103515625</ele>
        <time>2020-08-22T07:37:37.000Z</time>
      </trkpt>
      <trkpt lat="43.11737291514873504638671875" lon="-1.38269257731735706329345703125">
        <ele>302.20001220703125</ele>
        <time>2020-08-22T07:37:40.000Z</time>
      </trkpt>
      <trkpt lat="43.1174304150044918060302734375" lon="-1.38270431198179721832275390625">
        <ele>302</ele>
        <time>2020-08-22T07:37:41.000Z</time>
      </trkpt>
      <trkpt lat="43.1175410561263561248779296875" lon="-1.382747478783130645751953125">
        <ele>301.79998779296875</ele>
        <time>2020-08-22T07:37:43.000Z</time>
      </trkpt>
      <trkpt lat="43.117703162133693695068359375" lon="-1.38280942104756832122802734375">
        <ele>301.399993896484375</ele>
        <time>2020-08-22T07:37:46.000Z</time>
      </trkpt>
      <trkpt lat="43.11775982379913330078125" lon="-1.382819227874279022216796875">
        <ele>301.399993896484375</ele>
        <time>2020-08-22T07:37:47.000Z</time>
      </trkpt>
      <trkpt lat="43.11787717044353485107421875" lon="-1.38282886706292629241943359375">
        <ele>301.20001220703125</ele>
        <time>2020-08-22T07:37:49.000Z</time>
      </trkpt>
      <trkpt lat="43.11818386428058147430419921875" lon="-1.382790394127368927001953125">
        <ele>300.20001220703125</ele>
        <time>2020-08-22T07:37:54.000Z</time>
      </trkpt>
      <trkpt lat="43.1182461418211460113525390625" lon="-1.38277329504489898681640625">
        <ele>299.79998779296875</ele>
        <time>2020-08-22T07:37:55.000Z</time>
      </trkpt>
      <trkpt lat="43.11856457032263278961181640625" lon="-1.382730044424533843994140625">
        <ele>298.79998779296875</ele>
        <time>2020-08-22T07:38:00.000Z</time>
      </trkpt>
      <trkpt lat="43.11862911097705364227294921875" lon="-1.38274219818413257598876953125">
        <ele>298.600006103515625</ele>
        <time>2020-08-22T07:38:01.000Z</time>
      </trkpt>
      <trkpt lat="43.11882130801677703857421875" lon="-1.38281629420816898345947265625">
        <ele>298</ele>
        <time>2020-08-22T07:38:04.000Z</time>
      </trkpt>
      <trkpt lat="43.11888291500508785247802734375" lon="-1.38285334222018718719482421875">
        <ele>297.79998779296875</ele>
        <time>2020-08-22T07:38:05.000Z</time>
      </trkpt>
      <trkpt lat="43.11894326470792293548583984375" lon="-1.3828938268125057220458984375">
        <ele>297.79998779296875</ele>
        <time>2020-08-22T07:38:06.000Z</time>
      </trkpt>
      <trkpt lat="43.1191909499466419219970703125" lon="-1.38304889202117919921875">
        <ele>296.600006103515625</ele>
        <time>2020-08-22T07:38:10.000Z</time>
      </trkpt>
      <trkpt lat="43.11925582587718963623046875" lon="-1.3830716907978057861328125">
        <ele>296.399993896484375</ele>
        <time>2020-08-22T07:38:11.000Z</time>
      </trkpt>
      <trkpt lat="43.1193217076361179351806640625" lon="-1.3830864429473876953125">
        <ele>296.20001220703125</ele>
        <time>2020-08-22T07:38:12.000Z</time>
      </trkpt>
      <trkpt lat="43.11958531849086284637451171875" lon="-1.3830638118088245391845703125">
        <ele>295.399993896484375</ele>
        <time>2020-08-22T07:38:16.000Z</time>
      </trkpt>
      <trkpt lat="43.11964868567883968353271484375" lon="-1.38304076157510280609130859375">
        <ele>295.20001220703125</ele>
        <time>2020-08-22T07:38:17.000Z</time>
      </trkpt>
      <trkpt lat="43.1200747378170490264892578125" lon="-1.382841356098651885986328125">
        <ele>294.399993896484375</ele>
        <time>2020-08-22T07:38:24.000Z</time>
      </trkpt>
      <trkpt lat="43.12019334174692630767822265625" lon="-1.38280807994306087493896484375">
        <ele>294</ele>
        <time>2020-08-22T07:38:26.000Z</time>
      </trkpt>
      <trkpt lat="43.12036902643740177154541015625" lon="-1.38281931169331073760986328125">
        <ele>293.600006103515625</ele>
        <time>2020-08-22T07:38:29.000Z</time>
      </trkpt>
      <trkpt lat="43.12057354487478733062744140625" lon="-1.38295300304889678955078125">
        <ele>293.20001220703125</ele>
        <time>2020-08-22T07:38:33.000Z</time>
      </trkpt>
      <trkpt lat="43.12066666781902313232421875" lon="-1.3831070624291896820068359375">
        <ele>292.79998779296875</ele>
        <time>2020-08-22T07:38:36.000Z</time>
      </trkpt>
      <trkpt lat="43.1207171268761157989501953125" lon="-1.3832123391330242156982421875">
        <ele>292.600006103515625</ele>
        <time>2020-08-22T07:38:38.000Z</time>
      </trkpt>
      <trkpt lat="43.1207798235118389129638671875" lon="-1.3833095692098140716552734375">
        <ele>292.399993896484375</ele>
        <time>2020-08-22T07:38:40.000Z</time>
      </trkpt>
      <trkpt lat="43.12086305581033229827880859375" lon="-1.3833923824131488800048828125">
        <ele>292</ele>
        <time>2020-08-22T07:38:42.000Z</time>
      </trkpt>
      <trkpt lat="43.120907060801982879638671875" lon="-1.3834346272051334381103515625">
        <ele>292</ele>
        <time>2020-08-22T07:38:43.000Z</time>
      </trkpt>
      <trkpt lat="43.12099414877593517303466796875" lon="-1.38352909125387668609619140625">
        <ele>291.600006103515625</ele>
        <time>2020-08-22T07:38:45.000Z</time>
      </trkpt>
      <trkpt lat="43.121095485985279083251953125" lon="-1.38369706459343433380126953125">
        <ele>291.20001220703125</ele>
        <time>2020-08-22T07:38:48.000Z</time>
      </trkpt>
      <trkpt lat="43.12112255953252315521240234375" lon="-1.3837571628391742706298828125">
        <ele>291.20001220703125</ele>
        <time>2020-08-22T07:38:49.000Z</time>
      </trkpt>
      <trkpt lat="43.12119648791849613189697265625" lon="-1.383936367928981781005859375">
        <ele>291</ele>
        <time>2020-08-22T07:38:52.000Z</time>
      </trkpt>
      <trkpt lat="43.1212656386196613311767578125" lon="-1.38414264656603336334228515625">
        <ele>290.79998779296875</ele>
        <time>2020-08-22T07:38:55.000Z</time>
      </trkpt>
      <trkpt lat="43.121369741857051849365234375" lon="-1.38442863710224628448486328125">
        <ele>290</ele>
        <time>2020-08-22T07:38:59.000Z</time>
      </trkpt>
      <trkpt lat="43.12146252952516078948974609375" lon="-1.38462611474096775054931640625">
        <ele>289.399993896484375</ele>
        <time>2020-08-22T07:39:02.000Z</time>
      </trkpt>
      <trkpt lat="43.1215006671845912933349609375" lon="-1.384685039520263671875">
        <ele>289.20001220703125</ele>
        <time>2020-08-22T07:39:03.000Z</time>
      </trkpt>
      <trkpt lat="43.121594376862049102783203125" lon="-1.38478721491992473602294921875">
        <ele>288.79998779296875</ele>
        <time>2020-08-22T07:39:05.000Z</time>
      </trkpt>
      <trkpt lat="43.12164701521396636962890625" lon="-1.38483214192092418670654296875">
        <ele>288.600006103515625</ele>
        <time>2020-08-22T07:39:06.000Z</time>
      </trkpt>
      <trkpt lat="43.12186695635318756103515625" lon="-1.38498150743544101715087890625">
        <ele>287.600006103515625</ele>
        <time>2020-08-22T07:39:10.000Z</time>
      </trkpt>
      <trkpt lat="43.12203166075050830841064453125" lon="-1.3850607164204120635986328125">
        <ele>287.399993896484375</ele>
        <time>2020-08-22T07:39:13.000Z</time>
      </trkpt>
      <trkpt lat="43.122249506413936614990234375" lon="-1.38504805974662303924560546875">
        <ele>287.399993896484375</ele>
        <time>2020-08-22T07:39:17.000Z</time>
      </trkpt>
      <trkpt lat="43.1223955191671848297119140625" lon="-1.3849215768277645111083984375">
        <ele>286.79998779296875</ele>
        <time>2020-08-22T07:39:20.000Z</time>
      </trkpt>
      <trkpt lat="43.122440278530120849609375" lon="-1.38486181385815143585205078125">
        <ele>286.600006103515625</ele>
        <time>2020-08-22T07:39:21.000Z</time>
      </trkpt>
      <trkpt lat="43.1225229240953922271728515625" lon="-1.38472435064613819122314453125">
        <ele>286.20001220703125</ele>
        <time>2020-08-22T07:39:23.000Z</time>
      </trkpt>
      <trkpt lat="43.1225641630589962005615234375" lon="-1.38465092517435550689697265625">
        <ele>285.399993896484375</ele>
        <time>2020-08-22T07:39:24.000Z</time>
      </trkpt>
      <trkpt lat="43.12264756299555301666259765625" lon="-1.3845061697065830230712890625">
        <ele>285</ele>
        <time>2020-08-22T07:39:26.000Z</time>
      </trkpt>
      <trkpt lat="43.12285023741424083709716796875" lon="-1.384153626859188079833984375">
        <ele>284.600006103515625</ele>
        <time>2020-08-22T07:39:31.000Z</time>
      </trkpt>
      <trkpt lat="43.12288862653076648712158203125" lon="-1.38408933766186237335205078125">
        <ele>284.399993896484375</ele>
        <time>2020-08-22T07:39:32.000Z</time>
      </trkpt>
      <trkpt lat="43.1229306198656558990478515625" lon="-1.38403116725385189056396484375">
        <ele>284.399993896484375</ele>
        <time>2020-08-22T07:39:33.000Z</time>
      </trkpt>
      <trkpt lat="43.123143017292022705078125" lon="-1.38379228301346302032470703125">
        <ele>284.399993896484375</ele>
        <time>2020-08-22T07:39:38.000Z</time>
      </trkpt>
      <trkpt lat="43.12322708778083324432373046875" lon="-1.38371667824685573577880859375">
        <ele>284.399993896484375</ele>
        <time>2020-08-22T07:39:40.000Z</time>
      </trkpt>
      <trkpt lat="43.1233359687030315399169921875" lon="-1.38358868658542633056640625">
        <ele>284.399993896484375</ele>
        <time>2020-08-22T07:39:43.000Z</time>
      </trkpt>
      <trkpt lat="43.12343948520720005035400390625" lon="-1.38348164968192577362060546875">
        <ele>284.399993896484375</ele>
        <time>2020-08-22T07:39:46.000Z</time>
      </trkpt>
      <trkpt lat="43.123661018908023834228515625" lon="-1.3832213915884494781494140625">
        <ele>284.20001220703125</ele>
        <time>2020-08-22T07:39:54.000Z</time>
      </trkpt>
      <trkpt lat="43.1237362883985042572021484375" lon="-1.383219547569751739501953125">
        <ele>284.399993896484375</ele>
        <time>2020-08-22T07:39:58.000Z</time>
      </trkpt>
      <trkpt lat="43.12380845658481121063232421875" lon="-1.38333429582417011260986328125">
        <ele>284.79998779296875</ele>
        <time>2020-08-22T07:40:05.000Z</time>
      </trkpt>
      <trkpt lat="43.12387199141085147857666015625" lon="-1.38344518840312957763671875">
        <ele>285.600006103515625</ele>
        <time>2020-08-22T07:40:12.000Z</time>
      </trkpt>
      <trkpt lat="43.12397073023021221160888671875" lon="-1.38350277207791805267333984375">
        <ele>285.600006103515625</ele>
        <time>2020-08-22T07:40:18.000Z</time>
      </trkpt>
      <trkpt lat="43.12407516874372959136962890625" lon="-1.38352054171264171600341796875">
        <ele>284.399993896484375</ele>
        <time>2020-08-22T07:40:21.000Z</time>
      </trkpt>
      <trkpt lat="43.12418094836175441741943359375" lon="-1.3834981620311737060546875">
        <ele>283.600006103515625</ele>
        <time>2020-08-22T07:40:24.000Z</time>
      </trkpt>
      <trkpt lat="43.124252445995807647705078125" lon="-1.3834601081907749176025390625">
        <ele>283.399993896484375</ele>
        <time>2020-08-22T07:40:26.000Z</time>
      </trkpt>
      <trkpt lat="43.12431774102151393890380859375" lon="-1.3834148459136486053466796875">
        <ele>283.399993896484375</ele>
        <time>2020-08-22T07:40:29.000Z</time>
      </trkpt>
      <trkpt lat="43.12437909655272960662841796875" lon="-1.38340671546757221221923828125">
        <ele>284.600006103515625</ele>
        <time>2020-08-22T07:40:33.000Z</time>
      </trkpt>
      <trkpt lat="43.12440591864287853240966796875" lon="-1.38342297635972499847412109375">
        <ele>285</ele>
        <time>2020-08-22T07:40:35.000Z</time>
      </trkpt>
      <trkpt lat="43.124446906149387359619140625" lon="-1.38347041793167591094970703125">
        <ele>285.79998779296875</ele>
        <time>2020-08-22T07:40:39.000Z</time>
      </trkpt>
      <trkpt lat="43.1244705431163311004638671875" lon="-1.383509896695613861083984375">
        <ele>286.399993896484375</ele>
        <time>2020-08-22T07:40:42.000Z</time>
      </trkpt>
      <trkpt lat="43.12447733245790004730224609375" lon="-1.383524648845195770263671875">
        <ele>286.79998779296875</ele>
        <time>2020-08-22T07:40:43.000Z</time>
      </trkpt>
      <trkpt lat="43.1245080940425395965576171875" lon="-1.38359966687858104705810546875">
        <ele>287.79998779296875</ele>
        <time>2020-08-22T07:40:48.000Z</time>
      </trkpt>
      <trkpt lat="43.12451295554637908935546875" lon="-1.383612491190433502197265625">
        <ele>288</ele>
        <time>2020-08-22T07:40:49.000Z</time>
      </trkpt>
      <trkpt lat="43.1245308928191661834716796875" lon="-1.38368298299610614776611328125">
        <ele>289</ele>
        <time>2020-08-22T07:40:54.000Z</time>
      </trkpt>
      <trkpt lat="43.12455763109028339385986328125" lon="-1.38373545370995998382568359375">
        <ele>289.20001220703125</ele>
        <time>2020-08-22T07:40:58.000Z</time>
      </trkpt>
      <trkpt lat="43.1246066652238368988037109375" lon="-1.38385078869760036468505859375">
        <ele>289.79998779296875</ele>
        <time>2020-08-22T07:41:06.000Z</time>
      </trkpt>
      <trkpt lat="43.12462049536406993865966796875" lon="-1.38389722444117069244384765625">
        <ele>290</ele>
        <time>2020-08-22T07:41:09.000Z</time>
      </trkpt>
      <trkpt lat="43.124650754034519195556640625" lon="-1.38395086862146854400634765625">
        <ele>290.20001220703125</ele>
        <time>2020-08-22T07:41:13.000Z</time>
      </trkpt>
      <trkpt lat="43.1246938370168209075927734375" lon="-1.38405882753431797027587890625">
        <ele>290.79998779296875</ele>
        <time>2020-08-22T07:41:20.000Z</time>
      </trkpt>
      <trkpt lat="43.12470515258610248565673828125" lon="-1.38409160077571868896484375">
        <ele>291</ele>
        <time>2020-08-22T07:41:22.000Z</time>
      </trkpt>
      <trkpt lat="43.12474974431097507476806640625" lon="-1.38421808369457721710205078125">
        <ele>291.399993896484375</ele>
        <time>2020-08-22T07:41:29.000Z</time>
      </trkpt>
      <trkpt lat="43.12481931410729885101318359375" lon="-1.38444690965116024017333984375">
        <ele>291.399993896484375</ele>
        <time>2020-08-22T07:41:40.000Z</time>
      </trkpt>
      <trkpt lat="43.12485761940479278564453125" lon="-1.384532488882541656494140625">
        <ele>291.399993896484375</ele>
        <time>2020-08-22T07:41:45.000Z</time>
      </trkpt>
      <trkpt lat="43.12486222945153713226318359375" lon="-1.38455335982143878936767578125">
        <ele>291.399993896484375</ele>
        <time>2020-08-22T07:41:46.000Z</time>
      </trkpt>
      <trkpt lat="43.12489441595971584320068359375" lon="-1.38468168675899505615234375">
        <ele>292</ele>
        <time>2020-08-22T07:41:53.000Z</time>
      </trkpt>
      <trkpt lat="43.12490816228091716766357421875" lon="-1.38471060432493686676025390625">
        <ele>292.20001220703125</ele>
        <time>2020-08-22T07:41:55.000Z</time>
      </trkpt>
      <trkpt lat="43.1249526701867580413818359375" lon="-1.38478553853929042816162109375">
        <ele>292.79998779296875</ele>
        <time>2020-08-22T07:42:00.000Z</time>
      </trkpt>
      <trkpt lat="43.12499231658875942230224609375" lon="-1.38483046554028987884521484375">
        <ele>293.399993896484375</ele>
        <time>2020-08-22T07:42:04.000Z</time>
      </trkpt>
      <trkpt lat="43.12503053806722164154052734375" lon="-1.3848870433866977691650390625">
        <ele>294.399993896484375</ele>
        <time>2020-08-22T07:42:09.000Z</time>
      </trkpt>
      <trkpt lat="43.1250393390655517578125" lon="-1.38489802367985248565673828125">
        <ele>294.399993896484375</ele>
        <time>2020-08-22T07:42:10.000Z</time>
      </trkpt>
      <trkpt lat="43.12504512257874011993408203125" lon="-1.38490992598235607147216796875">
        <ele>294.600006103515625</ele>
        <time>2020-08-22T07:42:11.000Z</time>
      </trkpt>
      <trkpt lat="43.12506406567990779876708984375" lon="-1.38498201034963130950927734375">
        <ele>295.399993896484375</ele>
        <time>2020-08-22T07:42:16.000Z</time>
      </trkpt>
      <trkpt lat="43.1250663287937641143798828125" lon="-1.38499726541340351104736328125">
        <ele>295.399993896484375</ele>
        <time>2020-08-22T07:42:17.000Z</time>
      </trkpt>
      <trkpt lat="43.12509256415069103240966796875" lon="-1.38507672585546970367431640625">
        <ele>296.399993896484375</ele>
        <time>2020-08-22T07:42:23.000Z</time>
      </trkpt>
      <trkpt lat="43.125097341835498809814453125" lon="-1.38509047217667102813720703125">
        <ele>296.600006103515625</ele>
        <time>2020-08-22T07:42:24.000Z</time>
      </trkpt>
      <trkpt lat="43.125122822821140289306640625" lon="-1.3851706869900226593017578125">
        <ele>297.79998779296875</ele>
        <time>2020-08-22T07:42:30.000Z</time>
      </trkpt>
      <trkpt lat="43.125132881104946136474609375" lon="-1.38521167449653148651123046875">
        <ele>298.399993896484375</ele>
        <time>2020-08-22T07:42:33.000Z</time>
      </trkpt>
      <trkpt lat="43.1251427717506885528564453125" lon="-1.38525442220270633697509765625">
        <ele>299.20001220703125</ele>
        <time>2020-08-22T07:42:36.000Z</time>
      </trkpt>
      <trkpt lat="43.125165067613124847412109375" lon="-1.38531896285712718963623046875">
        <ele>300.20001220703125</ele>
        <time>2020-08-22T07:42:41.000Z</time>
      </trkpt>
      <trkpt lat="43.12516741454601287841796875" lon="-1.3853336311876773834228515625">
        <ele>300.20001220703125</ele>
        <time>2020-08-22T07:42:42.000Z</time>
      </trkpt>
      <trkpt lat="43.12518694438040256500244140625" lon="-1.3854362256824970245361328125">
        <ele>301.20001220703125</ele>
        <time>2020-08-22T07:42:49.000Z</time>
      </trkpt>
      <trkpt lat="43.12518912367522716522216796875" lon="-1.3854513131082057952880859375">
        <ele>301.399993896484375</ele>
        <time>2020-08-22T07:42:50.000Z</time>
      </trkpt>
      <trkpt lat="43.12520605511963367462158203125" lon="-1.38554401695728302001953125">
        <ele>302.399993896484375</ele>
        <time>2020-08-22T07:42:56.000Z</time>
      </trkpt>
      <trkpt lat="43.125208318233489990234375" lon="-1.38561819680035114288330078125">
        <ele>303</ele>
        <time>2020-08-22T07:43:01.000Z</time>
      </trkpt>
      <trkpt lat="43.1252172030508518218994140625" lon="-1.3856769539415836334228515625">
        <ele>303.399993896484375</ele>
        <time>2020-08-22T07:43:05.000Z</time>
      </trkpt>
      <trkpt lat="43.12522365711629390716552734375" lon="-1.38575197197496891021728515625">
        <ele>304</ele>
        <time>2020-08-22T07:43:10.000Z</time>
      </trkpt>
      <trkpt lat="43.125223405659198760986328125" lon="-1.3858284987509250640869140625">
        <ele>304.399993896484375</ele>
        <time>2020-08-22T07:43:15.000Z</time>
      </trkpt>
      <trkpt lat="43.12522918917238712310791015625" lon="-1.38587501831352710723876953125">
        <ele>305</ele>
        <time>2020-08-22T07:43:18.000Z</time>
      </trkpt>
      <trkpt lat="43.12523371540009975433349609375" lon="-1.3859227113425731658935546875">
        <ele>305.600006103515625</ele>
        <time>2020-08-22T07:43:21.000Z</time>
      </trkpt>
      <trkpt lat="43.12522214837372303009033203125" lon="-1.3860008306801319122314453125">
        <ele>306</ele>
        <time>2020-08-22T07:43:26.000Z</time>
      </trkpt>
      <trkpt lat="43.1252078153192996978759765625" lon="-1.386094205081462860107421875">
        <ele>306.600006103515625</ele>
        <time>2020-08-22T07:43:32.000Z</time>
      </trkpt>
      <trkpt lat="43.1252024509012699127197265625" lon="-1.3861416466534137725830078125">
        <ele>306.79998779296875</ele>
        <time>2020-08-22T07:43:35.000Z</time>
      </trkpt>
      <trkpt lat="43.12518778257071971893310546875" lon="-1.3862408883869647979736328125">
        <ele>307.600006103515625</ele>
        <time>2020-08-22T07:43:41.000Z</time>
      </trkpt>
      <trkpt lat="43.12517839483916759490966796875" lon="-1.38631842099130153656005859375">
        <ele>308.399993896484375</ele>
        <time>2020-08-22T07:43:46.000Z</time>
      </trkpt>
      <trkpt lat="43.12517680227756500244140625" lon="-1.386350691318511962890625">
        <ele>308.79998779296875</ele>
        <time>2020-08-22T07:43:48.000Z</time>
      </trkpt>
      <trkpt lat="43.12517277896404266357421875" lon="-1.3864467479288578033447265625">
        <ele>309.399993896484375</ele>
        <time>2020-08-22T07:43:54.000Z</time>
      </trkpt>
      <trkpt lat="43.12517252750694751739501953125" lon="-1.386462338268756866455078125">
        <ele>309.79998779296875</ele>
        <time>2020-08-22T07:43:55.000Z</time>
      </trkpt>
      <trkpt lat="43.12516607344150543212890625" lon="-1.3865439780056476593017578125">
        <ele>310.79998779296875</ele>
        <time>2020-08-22T07:44:00.000Z</time>
      </trkpt>
      <trkpt lat="43.12516800127923488616943359375" lon="-1.3865882344543933868408203125">
        <ele>311.399993896484375</ele>
        <time>2020-08-22T07:44:03.000Z</time>
      </trkpt>
      <trkpt lat="43.12516531907021999359130859375" lon="-1.38663031160831451416015625">
        <ele>312</ele>
        <time>2020-08-22T07:44:06.000Z</time>
      </trkpt>
      <trkpt lat="43.12516205012798309326171875" lon="-1.3866878114640712738037109375">
        <ele>313</ele>
        <time>2020-08-22T07:44:10.000Z</time>
      </trkpt>
      <trkpt lat="43.12515777535736560821533203125" lon="-1.38673215173184871673583984375">
        <ele>313.600006103515625</ele>
        <time>2020-08-22T07:44:13.000Z</time>
      </trkpt>
      <trkpt lat="43.1251602061092853546142578125" lon="-1.38677909038960933685302734375">
        <ele>314</ele>
        <time>2020-08-22T07:44:16.000Z</time>
      </trkpt>
      <trkpt lat="43.12515358440577983856201171875" lon="-1.38685503043234348297119140625">
        <ele>315.399993896484375</ele>
        <time>2020-08-22T07:44:21.000Z</time>
      </trkpt>
      <trkpt lat="43.12514956109225749969482421875" lon="-1.38690062798559665679931640625">
        <ele>315.79998779296875</ele>
        <time>2020-08-22T07:44:24.000Z</time>
      </trkpt>
      <trkpt lat="43.1251464597880840301513671875" lon="-1.38694421388208866119384765625">
        <ele>316.20001220703125</ele>
        <time>2020-08-22T07:44:27.000Z</time>
      </trkpt>
      <trkpt lat="43.12513564713299274444580078125" lon="-1.3870170526206493377685546875">
        <ele>317.600006103515625</ele>
        <time>2020-08-22T07:44:32.000Z</time>
      </trkpt>
      <trkpt lat="43.12513547949492931365966796875" lon="-1.3870321400463581085205078125">
        <ele>317.79998779296875</ele>
        <time>2020-08-22T07:44:33.000Z</time>
      </trkpt>
      <trkpt lat="43.12512584030628204345703125" lon="-1.38713783584535121917724609375">
        <ele>318.600006103515625</ele>
        <time>2020-08-22T07:44:40.000Z</time>
      </trkpt>
      <trkpt lat="43.1251209788024425506591796875" lon="-1.38718309812247753143310546875">
        <ele>319</ele>
        <time>2020-08-22T07:44:43.000Z</time>
      </trkpt>
      <trkpt lat="43.12511100433766841888427734375" lon="-1.38725987635552883148193359375">
        <ele>319.600006103515625</ele>
        <time>2020-08-22T07:44:48.000Z</time>
      </trkpt>
      <trkpt lat="43.12510647810995578765869140625" lon="-1.38728938065469264984130859375">
        <ele>320</ele>
        <time>2020-08-22T07:44:50.000Z</time>
      </trkpt>
      <trkpt lat="43.12509977258741855621337890625" lon="-1.38734654523432254791259765625">
        <ele>320.600006103515625</ele>
        <time>2020-08-22T07:44:57.000Z</time>
      </trkpt>
      <trkpt lat="43.12510077841579914093017578125" lon="-1.3873462937772274017333984375">
        <ele>320.600006103515625</ele>
        <time>2020-08-22T07:45:03.000Z</time>
      </trkpt>
      <trkpt lat="43.125101365149021148681640625" lon="-1.3873456232249736785888671875">
        <ele>320.600006103515625</ele>
        <time>2020-08-22T07:45:11.000Z</time>
      </trkpt>
      <trkpt lat="43.125101029872894287109375" lon="-1.38734553940594196319580078125">
        <ele>320.600006103515625</ele>
        <time>2020-08-22T07:45:25.000Z</time>
      </trkpt>
      <trkpt lat="43.1251008622348308563232421875" lon="-1.387359537184238433837890625">
        <ele>321</ele>
        <time>2020-08-22T07:50:31.000Z</time>
      </trkpt>
      <trkpt lat="43.1250971741974353790283203125" lon="-1.3873674161732196807861328125">
        <ele>321</ele>
        <time>2020-08-22T07:50:34.000Z</time>
      </trkpt>
      <trkpt lat="43.125089295208454132080078125" lon="-1.38740873895585536956787109375">
        <ele>321</ele>
        <time>2020-08-22T07:50:37.000Z</time>
      </trkpt>
      <trkpt lat="43.12509189359843730926513671875" lon="-1.38746288605034351348876953125">
        <ele>321.399993896484375</ele>
        <time>2020-08-22T07:50:40.000Z</time>
      </trkpt>
      <trkpt lat="43.125093318521976470947265625" lon="-1.38748048804700374603271484375">
        <ele>321.399993896484375</ele>
        <time>2020-08-22T07:50:41.000Z</time>
      </trkpt>
      <trkpt lat="43.1250908039510250091552734375" lon="-1.3876182027161121368408203125">
        <ele>322.399993896484375</ele>
        <time>2020-08-22T07:50:49.000Z</time>
      </trkpt>
      <trkpt lat="43.1250916421413421630859375" lon="-1.38763320632278919219970703125">
        <ele>322.600006103515625</ele>
        <time>2020-08-22T07:50:50.000Z</time>
      </trkpt>
      <trkpt lat="43.12509231269359588623046875" lon="-1.38772540725767612457275390625">
        <ele>323.600006103515625</ele>
        <time>2020-08-22T07:50:56.000Z</time>
      </trkpt>
      <trkpt lat="43.1250943243503570556640625" lon="-1.387756504118442535400390625">
        <ele>324</ele>
        <time>2020-08-22T07:50:58.000Z</time>
      </trkpt>
      <trkpt lat="43.125090636312961578369140625" lon="-1.3877865113317966461181640625">
        <ele>324.399993896484375</ele>
        <time>2020-08-22T07:51:00.000Z</time>
      </trkpt>
      <trkpt lat="43.12508854083716869354248046875" lon="-1.3878173567354679107666015625">
        <ele>324.79998779296875</ele>
        <time>2020-08-22T07:51:02.000Z</time>
      </trkpt>
      <trkpt lat="43.1250747106969356536865234375" lon="-1.387876532971858978271484375">
        <ele>325.20001220703125</ele>
        <time>2020-08-22T07:51:06.000Z</time>
      </trkpt>
      <trkpt lat="43.12505601905286312103271484375" lon="-1.38793076388537883758544921875">
        <ele>325.79998779296875</ele>
        <time>2020-08-22T07:51:10.000Z</time>
      </trkpt>
      <trkpt lat="43.12504428438842296600341796875" lon="-1.3879680633544921875">
        <ele>326.600006103515625</ele>
        <time>2020-08-22T07:51:13.000Z</time>
      </trkpt>
      <trkpt lat="43.12503271736204624176025390625" lon="-1.3879923708736896514892578125">
        <ele>327</ele>
        <time>2020-08-22T07:51:15.000Z</time>
      </trkpt>
      <trkpt lat="43.1250136904418468475341796875" lon="-1.38805934228003025054931640625">
        <ele>328</ele>
        <time>2020-08-22T07:51:20.000Z</time>
      </trkpt>
      <trkpt lat="43.1250086612999439239501953125" lon="-1.38808884657919406890869140625">
        <ele>328.399993896484375</ele>
        <time>2020-08-22T07:51:22.000Z</time>
      </trkpt>
      <trkpt lat="43.12500203959643840789794921875" lon="-1.38814701698720455169677734375">
        <ele>329.399993896484375</ele>
        <time>2020-08-22T07:51:26.000Z</time>
      </trkpt>
      <trkpt lat="43.12499952502548694610595703125" lon="-1.38816185295581817626953125">
        <ele>329.79998779296875</ele>
        <time>2020-08-22T07:51:27.000Z</time>
      </trkpt>
      <trkpt lat="43.1249841861426830291748046875" lon="-1.38822882436215877532958984375">
        <ele>330.600006103515625</ele>
        <time>2020-08-22T07:51:32.000Z</time>
      </trkpt>
      <trkpt lat="43.12497991137206554412841796875" lon="-1.3882438279688358306884765625">
        <ele>330.79998779296875</ele>
        <time>2020-08-22T07:51:33.000Z</time>
      </trkpt>
      <trkpt lat="43.12496817670762538909912109375" lon="-1.38830409385263919830322265625">
        <ele>331.600006103515625</ele>
        <time>2020-08-22T07:51:37.000Z</time>
      </trkpt>
      <trkpt lat="43.124957866966724395751953125" lon="-1.38838221319019794464111328125">
        <ele>332.600006103515625</ele>
        <time>2020-08-22T07:51:42.000Z</time>
      </trkpt>
      <trkpt lat="43.12495158053934574127197265625" lon="-1.38845798559486865997314453125">
        <ele>333.600006103515625</ele>
        <time>2020-08-22T07:51:47.000Z</time>
      </trkpt>
      <trkpt lat="43.1249543465673923492431640625" lon="-1.38851590454578399658203125">
        <ele>334.79998779296875</ele>
        <time>2020-08-22T07:51:51.000Z</time>
      </trkpt>
      <trkpt lat="43.12495308928191661834716796875" lon="-1.38856820762157440185546875">
        <ele>335.600006103515625</ele>
        <time>2020-08-22T07:51:55.000Z</time>
      </trkpt>
      <trkpt lat="43.12495912425220012664794921875" lon="-1.38857885263860225677490234375">
        <ele>336</ele>
        <time>2020-08-22T07:51:56.000Z</time>
      </trkpt>
      <trkpt lat="43.124966584146022796630859375" lon="-1.3885889947414398193359375">
        <ele>336</ele>
        <time>2020-08-22T07:51:57.000Z</time>
      </trkpt>
      <trkpt lat="43.1249737925827503204345703125" lon="-1.388598047196865081787109375">
        <ele>336.399993896484375</ele>
        <time>2020-08-22T07:51:58.000Z</time>
      </trkpt>
      <trkpt lat="43.12498636543750762939453125" lon="-1.388633251190185546875">
        <ele>337</ele>
        <time>2020-08-22T07:52:01.000Z</time>
      </trkpt>
      <trkpt lat="43.12499902211129665374755859375" lon="-1.38865311630070209503173828125">
        <ele>337.20001220703125</ele>
        <time>2020-08-22T07:52:03.000Z</time>
      </trkpt>
      <trkpt lat="43.12501880340278148651123046875" lon="-1.38869427144527435302734375">
        <ele>338.20001220703125</ele>
        <time>2020-08-22T07:52:07.000Z</time>
      </trkpt>
      <trkpt lat="43.12502919696271419525146484375" lon="-1.388708017766475677490234375">
        <ele>338.600006103515625</ele>
        <time>2020-08-22T07:52:09.000Z</time>
      </trkpt>
      <trkpt lat="43.12503724358975887298583984375" lon="-1.388716399669647216796875">
        <ele>339</ele>
        <time>2020-08-22T07:52:10.000Z</time>
      </trkpt>
      <trkpt lat="43.125053755939006805419921875" lon="-1.388731487095355987548828125">
        <ele>339.399993896484375</ele>
        <time>2020-08-22T07:52:12.000Z</time>
      </trkpt>
      <trkpt lat="43.12508451752364635467529296875" lon="-1.38874053955078125">
        <ele>340</ele>
        <time>2020-08-22T07:52:15.000Z</time>
      </trkpt>
      <trkpt lat="43.125114105641841888427734375" lon="-1.38875705190002918243408203125">
        <ele>340.399993896484375</ele>
        <time>2020-08-22T07:52:18.000Z</time>
      </trkpt>
      <trkpt lat="43.1251236610114574432373046875" lon="-1.38876442797482013702392578125">
        <ele>340.600006103515625</ele>
        <time>2020-08-22T07:52:19.000Z</time>
      </trkpt>
      <trkpt lat="43.12515442259609699249267578125" lon="-1.3887847959995269775390625">
        <ele>341.20001220703125</ele>
        <time>2020-08-22T07:52:22.000Z</time>
      </trkpt>
      <trkpt lat="43.12517252750694751739501953125" lon="-1.38879795558750629425048828125">
        <ele>341.600006103515625</ele>
        <time>2020-08-22T07:52:24.000Z</time>
      </trkpt>
      <trkpt lat="43.1252182088792324066162109375" lon="-1.3888322375714778900146484375">
        <ele>342.399993896484375</ele>
        <time>2020-08-22T07:52:29.000Z</time>
      </trkpt>
      <trkpt lat="43.1252389959990978240966796875" lon="-1.388848833739757537841796875">
        <ele>342.79998779296875</ele>
        <time>2020-08-22T07:52:31.000Z</time>
      </trkpt>
      <trkpt lat="43.12529775314033031463623046875" lon="-1.38888915069401264190673828125">
        <ele>343.79998779296875</ele>
        <time>2020-08-22T07:52:37.000Z</time>
      </trkpt>
      <trkpt lat="43.12534318305552005767822265625" lon="-1.38892670162022113800048828125">
        <ele>344.79998779296875</ele>
        <time>2020-08-22T07:52:42.000Z</time>
      </trkpt>
      <trkpt lat="43.12539942562580108642578125" lon="-1.3889777474105358123779296875">
        <ele>345.79998779296875</ele>
        <time>2020-08-22T07:52:48.000Z</time>
      </trkpt>
      <trkpt lat="43.12541744671761989593505859375" lon="-1.38899660669267177581787109375">
        <ele>346</ele>
        <time>2020-08-22T07:52:50.000Z</time>
      </trkpt>
      <trkpt lat="43.12546287663280963897705078125" lon="-1.38904253952205181121826171875">
        <ele>347.20001220703125</ele>
        <time>2020-08-22T07:52:55.000Z</time>
      </trkpt>
      <trkpt lat="43.125482238829135894775390625" lon="-1.3890585489571094512939453125">
        <ele>347.600006103515625</ele>
        <time>2020-08-22T07:52:57.000Z</time>
      </trkpt>
      <trkpt lat="43.125521801412105560302734375" lon="-1.38910238631069660186767578125">
        <ele>348.399993896484375</ele>
        <time>2020-08-22T07:53:02.000Z</time>
      </trkpt>
      <trkpt lat="43.12555524520576000213623046875" lon="-1.38914077542722225189208984375">
        <ele>349.20001220703125</ele>
        <time>2020-08-22T07:53:06.000Z</time>
      </trkpt>
      <trkpt lat="43.1255638785660266876220703125" lon="-1.389150582253932952880859375">
        <ele>349.399993896484375</ele>
        <time>2020-08-22T07:53:07.000Z</time>
      </trkpt>
      <trkpt lat="43.1256098113954067230224609375" lon="-1.3892112672328948974609375">
        <ele>350.79998779296875</ele>
        <time>2020-08-22T07:53:13.000Z</time>
      </trkpt>
      <trkpt lat="43.12561743892729282379150390625" lon="-1.3892221637070178985595703125">
        <ele>350.79998779296875</ele>
        <time>2020-08-22T07:53:14.000Z</time>
      </trkpt>
      <trkpt lat="43.12566773034632205963134765625" lon="-1.3892878778278827667236328125">
        <ele>351.79998779296875</ele>
        <time>2020-08-22T07:53:20.000Z</time>
      </trkpt>
      <trkpt lat="43.12567510642111301422119140625" lon="-1.38930154033005237579345703125">
        <ele>352</ele>
        <time>2020-08-22T07:53:21.000Z</time>
      </trkpt>
      <trkpt lat="43.125717937946319580078125" lon="-1.38938066549599170684814453125">
        <ele>352.79998779296875</ele>
        <time>2020-08-22T07:53:27.000Z</time>
      </trkpt>
      <trkpt lat="43.125738389790058135986328125" lon="-1.38942374847829341888427734375">
        <ele>353.20001220703125</ele>
        <time>2020-08-22T07:53:30.000Z</time>
      </trkpt>
      <trkpt lat="43.12577652744948863983154296875" lon="-1.38951678760349750518798828125">
        <ele>354</ele>
        <time>2020-08-22T07:53:36.000Z</time>
      </trkpt>
      <trkpt lat="43.12579614110291004180908203125" lon="-1.38956305570900440216064453125">
        <ele>354.399993896484375</ele>
        <time>2020-08-22T07:53:39.000Z</time>
      </trkpt>
      <trkpt lat="43.125836960971355438232421875" lon="-1.38966179452836513519287109375">
        <ele>355</ele>
        <time>2020-08-22T07:53:45.000Z</time>
      </trkpt>
      <trkpt lat="43.125855736434459686279296875" lon="-1.38973572291433811187744140625">
        <ele>355.20001220703125</ele>
        <time>2020-08-22T07:53:49.000Z</time>
      </trkpt>
      <trkpt lat="43.1258750148117542266845703125" lon="-1.389829181134700775146484375">
        <ele>356</ele>
        <time>2020-08-22T07:53:54.000Z</time>
      </trkpt>
      <trkpt lat="43.12588532455265522003173828125" lon="-1.3899064622819423675537109375">
        <ele>356.399993896484375</ele>
        <time>2020-08-22T07:53:58.000Z</time>
      </trkpt>
      <trkpt lat="43.12590946443378925323486328125" lon="-1.3900160975754261016845703125">
        <ele>357</ele>
        <time>2020-08-22T07:54:04.000Z</time>
      </trkpt>
      <trkpt lat="43.12592186965048313140869140625" lon="-1.3900690712034702301025390625">
        <ele>357.20001220703125</ele>
        <time>2020-08-22T07:54:07.000Z</time>
      </trkpt>
      <trkpt lat="43.12594081275165081024169921875" lon="-1.39015548862516880035400390625">
        <ele>358.20001220703125</ele>
        <time>2020-08-22T07:54:12.000Z</time>
      </trkpt>
      <trkpt lat="43.12596176750957965850830078125" lon="-1.39019220136106014251708984375">
        <ele>359</ele>
        <time>2020-08-22T07:54:15.000Z</time>
      </trkpt>
      <trkpt lat="43.12597149051725864410400390625" lon="-1.39020142145454883575439453125">
        <ele>359.399993896484375</ele>
        <time>2020-08-22T07:54:16.000Z</time>
      </trkpt>
      <trkpt lat="43.12598305754363536834716796875" lon="-1.39020879752933979034423828125">
        <ele>359.600006103515625</ele>
        <time>2020-08-22T07:54:17.000Z</time>
      </trkpt>
      <trkpt lat="43.12602815218269824981689453125" lon="-1.390185914933681488037109375">
        <ele>360.20001220703125</ele>
        <time>2020-08-22T07:54:21.000Z</time>
      </trkpt>
      <trkpt lat="43.1260205246508121490478515625" lon="-1.3901203684508800506591796875">
        <ele>360.399993896484375</ele>
        <time>2020-08-22T07:54:25.000Z</time>
      </trkpt>
      <trkpt lat="43.1260116398334503173828125" lon="-1.3900695741176605224609375">
        <ele>361</ele>
        <time>2020-08-22T07:54:28.000Z</time>
      </trkpt>
      <trkpt lat="43.126010634005069732666015625" lon="-1.39005272649228572845458984375">
        <ele>361.399993896484375</ele>
        <time>2020-08-22T07:54:29.000Z</time>
      </trkpt>
      <trkpt lat="43.12600987963378429412841796875" lon="-1.39003562740981578826904296875">
        <ele>361.600006103515625</ele>
        <time>2020-08-22T07:54:30.000Z</time>
      </trkpt>
      <trkpt lat="43.1259926967322826385498046875" lon="-1.38987855054438114166259765625">
        <ele>362.79998779296875</ele>
        <time>2020-08-22T07:54:39.000Z</time>
      </trkpt>
      <trkpt lat="43.125986158847808837890625" lon="-1.38977461494505405426025390625">
        <ele>363.79998779296875</ele>
        <time>2020-08-22T07:54:45.000Z</time>
      </trkpt>
      <trkpt lat="43.12597333453595638275146484375" lon="-1.389655172824859619140625">
        <ele>364.79998779296875</ele>
        <time>2020-08-22T07:54:52.000Z</time>
      </trkpt>
      <trkpt lat="43.1259719096124172210693359375" lon="-1.38963815756142139434814453125">
        <ele>365</ele>
        <time>2020-08-22T07:54:53.000Z</time>
      </trkpt>
      <trkpt lat="43.12595606781542301177978515625" lon="-1.3895376585423946380615234375">
        <ele>366</ele>
        <time>2020-08-22T07:54:59.000Z</time>
      </trkpt>
      <trkpt lat="43.125946931540966033935546875" lon="-1.38950555585324764251708984375">
        <ele>366.20001220703125</ele>
        <time>2020-08-22T07:55:01.000Z</time>
      </trkpt>
      <trkpt lat="43.1259365379810333251953125" lon="-1.38943799771368503570556640625">
        <ele>367</ele>
        <time>2020-08-22T07:55:05.000Z</time>
      </trkpt>
      <trkpt lat="43.1259296648204326629638671875" lon="-1.38936859555542469024658203125">
        <ele>368</ele>
        <time>2020-08-22T07:55:09.000Z</time>
      </trkpt>
      <trkpt lat="43.12592572532594203948974609375" lon="-1.38933372683823108673095703125">
        <ele>368.399993896484375</ele>
        <time>2020-08-22T07:55:11.000Z</time>
      </trkpt>
      <trkpt lat="43.1259232945740222930908203125" lon="-1.38926499523222446441650390625">
        <ele>369</ele>
        <time>2020-08-22T07:55:15.000Z</time>
      </trkpt>
      <trkpt lat="43.12591399066150188446044921875" lon="-1.38920062221586704254150390625">
        <ele>370</ele>
        <time>2020-08-22T07:55:19.000Z</time>
      </trkpt>
      <trkpt lat="43.12591264955699443817138671875" lon="-1.38918385840952396392822265625">
        <ele>370.20001220703125</ele>
        <time>2020-08-22T07:55:20.000Z</time>
      </trkpt>
      <trkpt lat="43.1259102188050746917724609375" lon="-1.38910724781453609466552734375">
        <ele>371.399993896484375</ele>
        <time>2020-08-22T07:55:25.000Z</time>
      </trkpt>
      <trkpt lat="43.1259070336818695068359375" lon="-1.3890769891440868377685546875">
        <ele>372</ele>
        <time>2020-08-22T07:55:27.000Z</time>
      </trkpt>
      <trkpt lat="43.12589965760707855224609375" lon="-1.3890315592288970947265625">
        <ele>372.399993896484375</ele>
        <time>2020-08-22T07:55:30.000Z</time>
      </trkpt>
      <trkpt lat="43.125888593494892120361328125" lon="-1.38895704410970211029052734375">
        <ele>373.79998779296875</ele>
        <time>2020-08-22T07:55:35.000Z</time>
      </trkpt>
      <trkpt lat="43.12588649801909923553466796875" lon="-1.38892636634409427642822265625">
        <ele>374</ele>
        <time>2020-08-22T07:55:37.000Z</time>
      </trkpt>
      <trkpt lat="43.12588213942945003509521484375" lon="-1.3888625800609588623046875">
        <ele>375</ele>
        <time>2020-08-22T07:55:41.000Z</time>
      </trkpt>
      <trkpt lat="43.1258860789239406585693359375" lon="-1.38881354592740535736083984375">
        <ele>375.399993896484375</ele>
        <time>2020-08-22T07:55:44.000Z</time>
      </trkpt>
      <trkpt lat="43.1258827261626720428466796875" lon="-1.38879845850169658660888671875">
        <ele>375.600006103515625</ele>
        <time>2020-08-22T07:55:45.000Z</time>
      </trkpt>
      <trkpt lat="43.1258740089833736419677734375" lon="-1.38876928947865962982177734375">
        <ele>376</ele>
        <time>2020-08-22T07:55:47.000Z</time>
      </trkpt>
      <trkpt lat="43.12587015330791473388671875" lon="-1.38871899805963039398193359375">
        <ele>376.600006103515625</ele>
        <time>2020-08-22T07:55:50.000Z</time>
      </trkpt>
      <trkpt lat="43.12587551772594451904296875" lon="-1.388667114078998565673828125">
        <ele>377</ele>
        <time>2020-08-22T07:55:53.000Z</time>
      </trkpt>
      <trkpt lat="43.1258766911923885345458984375" lon="-1.388650350272655487060546875">
        <ele>377.20001220703125</ele>
        <time>2020-08-22T07:55:54.000Z</time>
      </trkpt>
      <trkpt lat="43.12588683329522609710693359375" lon="-1.38856820762157440185546875">
        <ele>378.20001220703125</ele>
        <time>2020-08-22T07:55:59.000Z</time>
      </trkpt>
      <trkpt lat="43.125907368957996368408203125" lon="-1.38850123621523380279541015625">
        <ele>379</ele>
        <time>2020-08-22T07:56:03.000Z</time>
      </trkpt>
      <trkpt lat="43.12593310140073299407958984375" lon="-1.388400904834270477294921875">
        <ele>379.399993896484375</ele>
        <time>2020-08-22T07:56:09.000Z</time>
      </trkpt>
      <trkpt lat="43.12593519687652587890625" lon="-1.38838422484695911407470703125">
        <ele>379.600006103515625</ele>
        <time>2020-08-22T07:56:10.000Z</time>
      </trkpt>
      <trkpt lat="43.12594936229288578033447265625" lon="-1.38830292038619518280029296875">
        <ele>380.399993896484375</ele>
        <time>2020-08-22T07:56:15.000Z</time>
      </trkpt>
      <trkpt lat="43.12598280608654022216796875" lon="-1.38823485933244228363037109375">
        <ele>381.399993896484375</ele>
        <time>2020-08-22T07:56:20.000Z</time>
      </trkpt>
      <trkpt lat="43.1259916909039020538330078125" lon="-1.3882240466773509979248046875">
        <ele>381.600006103515625</ele>
        <time>2020-08-22T07:56:21.000Z</time>
      </trkpt>
      <trkpt lat="43.126009963452816009521484375" lon="-1.38820342719554901123046875">
        <ele>382.20001220703125</ele>
        <time>2020-08-22T07:56:23.000Z</time>
      </trkpt>
      <trkpt lat="43.12604491598904132843017578125" lon="-1.38819982297718524932861328125">
        <ele>382.79998779296875</ele>
        <time>2020-08-22T07:56:26.000Z</time>
      </trkpt>
      <trkpt lat="43.1260966323316097259521484375" lon="-1.38823402114212512969970703125">
        <ele>384</ele>
        <time>2020-08-22T07:56:31.000Z</time>
      </trkpt>
      <trkpt lat="43.12610560096800327301025390625" lon="-1.38826419599354267120361328125">
        <ele>384.399993896484375</ele>
        <time>2020-08-22T07:56:33.000Z</time>
      </trkpt>
      <trkpt lat="43.12611758708953857421875" lon="-1.388290934264659881591796875">
        <ele>384.79998779296875</ele>
        <time>2020-08-22T07:56:35.000Z</time>
      </trkpt>
      <trkpt lat="43.1261288188397884368896484375" lon="-1.38832169584929943084716796875">
        <ele>385.20001220703125</ele>
        <time>2020-08-22T07:56:37.000Z</time>
      </trkpt>
      <trkpt lat="43.1261403858661651611328125" lon="-1.3883719034492969512939453125">
        <ele>385.600006103515625</ele>
        <time>2020-08-22T07:56:40.000Z</time>
      </trkpt>
      <trkpt lat="43.12616050243377685546875" lon="-1.38845287263393402099609375">
        <ele>386.399993896484375</ele>
        <time>2020-08-22T07:56:45.000Z</time>
      </trkpt>
      <trkpt lat="43.12615983188152313232421875" lon="-1.38846904970705509185791015625">
        <ele>386.600006103515625</ele>
        <time>2020-08-22T07:56:46.000Z</time>
      </trkpt>
      <trkpt lat="43.12615689821541309356689453125" lon="-1.388485729694366455078125">
        <ele>386.600006103515625</ele>
        <time>2020-08-22T07:56:47.000Z</time>
      </trkpt>
      <trkpt lat="43.12615203671157360076904296875" lon="-1.38855085708200931549072265625">
        <ele>387.399993896484375</ele>
        <time>2020-08-22T07:56:51.000Z</time>
      </trkpt>
      <trkpt lat="43.12615253962576389312744140625" lon="-1.3885673694312572479248046875">
        <ele>387.600006103515625</ele>
        <time>2020-08-22T07:56:52.000Z</time>
      </trkpt>
      <trkpt lat="43.12615823931992053985595703125" lon="-1.38863132335245609283447265625">
        <ele>388.399993896484375</ele>
        <time>2020-08-22T07:56:56.000Z</time>
      </trkpt>
      <trkpt lat="43.126162178814411163330078125" lon="-1.388662420213222503662109375">
        <ele>388.79998779296875</ele>
        <time>2020-08-22T07:56:58.000Z</time>
      </trkpt>
      <trkpt lat="43.12617852352559566497802734375" lon="-1.38872352428734302520751953125">
        <ele>390</ele>
        <time>2020-08-22T07:57:02.000Z</time>
      </trkpt>
      <trkpt lat="43.12619579024612903594970703125" lon="-1.38876576907932758331298828125">
        <ele>390.399993896484375</ele>
        <time>2020-08-22T07:57:05.000Z</time>
      </trkpt>
      <trkpt lat="43.1262247078120708465576171875" lon="-1.38881606049835681915283203125">
        <ele>391.20001220703125</ele>
        <time>2020-08-22T07:57:09.000Z</time>
      </trkpt>
      <trkpt lat="43.1262528710067272186279296875" lon="-1.3888679444789886474609375">
        <ele>392</ele>
        <time>2020-08-22T07:57:13.000Z</time>
      </trkpt>
      <trkpt lat="43.1262609176337718963623046875" lon="-1.38888093642890453338623046875">
        <ele>392.399993896484375</ele>
        <time>2020-08-22T07:57:14.000Z</time>
      </trkpt>
      <trkpt lat="43.12631380744278430938720703125" lon="-1.38894908130168914794921875">
        <ele>393</ele>
        <time>2020-08-22T07:57:20.000Z</time>
      </trkpt>
      <trkpt lat="43.12635102309286594390869140625" lon="-1.3889891467988491058349609375">
        <ele>393.399993896484375</ele>
        <time>2020-08-22T07:57:24.000Z</time>
      </trkpt>
      <trkpt lat="43.12640584073960781097412109375" lon="-1.38901747763156890869140625">
        <ele>394.20001220703125</ele>
        <time>2020-08-22T07:57:29.000Z</time>
      </trkpt>
      <trkpt lat="43.1264255382120609283447265625" lon="-1.3890337385237216949462890625">
        <ele>394.600006103515625</ele>
        <time>2020-08-22T07:57:31.000Z</time>
      </trkpt>
      <trkpt lat="43.12648446299135684967041015625" lon="-1.3890608958899974822998046875">
        <ele>395.600006103515625</ele>
        <time>2020-08-22T07:57:36.000Z</time>
      </trkpt>
      <trkpt lat="43.12649552710354328155517578125" lon="-1.38906776905059814453125">
        <ele>395.79998779296875</ele>
        <time>2020-08-22T07:57:37.000Z</time>
      </trkpt>
      <trkpt lat="43.12656694091856479644775390625" lon="-1.3891021348536014556884765625">
        <ele>396.79998779296875</ele>
        <time>2020-08-22T07:57:43.000Z</time>
      </trkpt>
      <trkpt lat="43.1266045756638050079345703125" lon="-1.3891120254993438720703125">
        <ele>397</ele>
        <time>2020-08-22T07:57:46.000Z</time>
      </trkpt>
      <trkpt lat="43.12664221040904521942138671875" lon="-1.389123089611530303955078125">
        <ele>397.79998779296875</ele>
        <time>2020-08-22T07:57:49.000Z</time>
      </trkpt>
      <trkpt lat="43.1266795098781585693359375" lon="-1.389129124581813812255859375">
        <ele>398.399993896484375</ele>
        <time>2020-08-22T07:57:52.000Z</time>
      </trkpt>
      <trkpt lat="43.12669233419001102447509765625" lon="-1.38912635855376720428466796875">
        <ele>398.79998779296875</ele>
        <time>2020-08-22T07:57:53.000Z</time>
      </trkpt>
      <trkpt lat="43.126704990863800048828125" lon="-1.3891235925257205963134765625">
        <ele>399</ele>
        <time>2020-08-22T07:57:54.000Z</time>
      </trkpt>
      <trkpt lat="43.1267975270748138427734375" lon="-1.389123089611530303955078125">
        <ele>400</ele>
        <time>2020-08-22T07:58:01.000Z</time>
      </trkpt>
      <trkpt lat="43.12687623314559459686279296875" lon="-1.38910825364291667938232421875">
        <ele>401</ele>
        <time>2020-08-22T07:58:07.000Z</time>
      </trkpt>
      <trkpt lat="43.126889728009700775146484375" lon="-1.38911009766161441802978515625">
        <ele>401.20001220703125</ele>
        <time>2020-08-22T07:58:08.000Z</time>
      </trkpt>
      <trkpt lat="43.12698486261069774627685546875" lon="-1.38910657726228237152099609375">
        <ele>402</ele>
        <time>2020-08-22T07:58:15.000Z</time>
      </trkpt>
      <trkpt lat="43.126997686922550201416015625" lon="-1.3891011290252208709716796875">
        <ele>402</ele>
        <time>2020-08-22T07:58:16.000Z</time>
      </trkpt>
      <trkpt lat="43.1270243413746356964111328125" lon="-1.3890981115400791168212890625">
        <ele>402.20001220703125</ele>
        <time>2020-08-22T07:58:18.000Z</time>
      </trkpt>
      <trkpt lat="43.127064742147922515869140625" lon="-1.3891173899173736572265625">
        <ele>402.600006103515625</ele>
        <time>2020-08-22T07:58:21.000Z</time>
      </trkpt>
      <trkpt lat="43.12709282152354717254638671875" lon="-1.3891145400702953338623046875">
        <ele>402.79998779296875</ele>
        <time>2020-08-22T07:58:23.000Z</time>
      </trkpt>
      <trkpt lat="43.12711947597563266754150390625" lon="-1.3891195692121982574462890625">
        <ele>403.399993896484375</ele>
        <time>2020-08-22T07:58:25.000Z</time>
      </trkpt>
      <trkpt lat="43.1271735392510890960693359375" lon="-1.38913222588598728179931640625">
        <ele>404.20001220703125</ele>
        <time>2020-08-22T07:58:29.000Z</time>
      </trkpt>
      <trkpt lat="43.12719960696995258331298828125" lon="-1.38913172297179698944091796875">
        <ele>404.399993896484375</ele>
        <time>2020-08-22T07:58:31.000Z</time>
      </trkpt>
      <trkpt lat="43.12726515345275402069091796875" lon="-1.38915267772972583770751953125">
        <ele>405.20001220703125</ele>
        <time>2020-08-22T07:58:36.000Z</time>
      </trkpt>
      <trkpt lat="43.12729180790483951568603515625" lon="-1.38915619812905788421630859375">
        <ele>405.600006103515625</ele>
        <time>2020-08-22T07:58:38.000Z</time>
      </trkpt>
      <trkpt lat="43.12735249288380146026611328125" lon="-1.3891862891614437103271484375">
        <ele>406.600006103515625</ele>
        <time>2020-08-22T07:58:43.000Z</time>
      </trkpt>
      <trkpt lat="43.127364479005336761474609375" lon="-1.38919307850301265716552734375">
        <ele>406.79998779296875</ele>
        <time>2020-08-22T07:58:44.000Z</time>
      </trkpt>
      <trkpt lat="43.1274286843836307525634765625" lon="-1.3892037235200405120849609375">
        <ele>407.79998779296875</ele>
        <time>2020-08-22T07:58:49.000Z</time>
      </trkpt>
      <trkpt lat="43.12743966467678546905517578125" lon="-1.38921151868999004364013671875">
        <ele>408</ele>
        <time>2020-08-22T07:58:50.000Z</time>
      </trkpt>
      <trkpt lat="43.1275151856243610382080078125" lon="-1.38925946317613124847412109375">
        <ele>409</ele>
        <time>2020-08-22T07:58:57.000Z</time>
      </trkpt>
      <trkpt lat="43.127525746822357177734375" lon="-1.389267258346080780029296875">
        <ele>409.20001220703125</ele>
        <time>2020-08-22T07:58:58.000Z</time>
      </trkpt>
      <trkpt lat="43.1275691650807857513427734375" lon="-1.38929500244557857513427734375">
        <ele>410</ele>
        <time>2020-08-22T07:59:02.000Z</time>
      </trkpt>
      <trkpt lat="43.12760730274021625518798828125" lon="-1.3893391750752925872802734375">
        <ele>411.20001220703125</ele>
        <time>2020-08-22T07:59:06.000Z</time>
      </trkpt>
      <trkpt lat="43.12761601991951465606689453125" lon="-1.3893512450158596038818359375">
        <ele>411.600006103515625</ele>
        <time>2020-08-22T07:59:07.000Z</time>
      </trkpt>
      <trkpt lat="43.12764384783804416656494140625" lon="-1.38938737101852893829345703125">
        <ele>412.399993896484375</ele>
        <time>2020-08-22T07:59:10.000Z</time>
      </trkpt>
      <trkpt lat="43.1276781298220157623291015625" lon="-1.38943280093371868133544921875">
        <ele>413.399993896484375</ele>
        <time>2020-08-22T07:59:14.000Z</time>
      </trkpt>
      <trkpt lat="43.12769782729446887969970703125" lon="-1.38946984894573688507080078125">
        <ele>414</ele>
        <time>2020-08-22T07:59:17.000Z</time>
      </trkpt>
      <trkpt lat="43.12771643511950969696044921875" lon="-1.38949013315141201019287109375">
        <ele>414.79998779296875</ele>
        <time>2020-08-22T07:59:19.000Z</time>
      </trkpt>
      <trkpt lat="43.1277653016149997711181640625" lon="-1.38953422196209430694580078125">
        <ele>416</ele>
        <time>2020-08-22T07:59:24.000Z</time>
      </trkpt>
      <trkpt lat="43.1277763657271862030029296875" lon="-1.38954243622720241546630859375">
        <ele>416.20001220703125</ele>
        <time>2020-08-22T07:59:25.000Z</time>
      </trkpt>
      <trkpt lat="43.1278189457952976226806640625" lon="-1.38957730494439601898193359375">
        <ele>417</ele>
        <time>2020-08-22T07:59:29.000Z</time>
      </trkpt>
      <trkpt lat="43.127870075404644012451171875" lon="-1.3896080665290355682373046875">
        <ele>418.20001220703125</ele>
        <time>2020-08-22T07:59:34.000Z</time>
      </trkpt>
      <trkpt lat="43.12790460884571075439453125" lon="-1.38962608762085437774658203125">
        <ele>419</ele>
        <time>2020-08-22T07:59:37.000Z</time>
      </trkpt>
      <trkpt lat="43.1279401481151580810546875" lon="-1.3896369002759456634521484375">
        <ele>419.399993896484375</ele>
        <time>2020-08-22T07:59:40.000Z</time>
      </trkpt>
      <trkpt lat="43.1279872544109821319580078125" lon="-1.38964151032269001007080078125">
        <ele>420.600006103515625</ele>
        <time>2020-08-22T07:59:44.000Z</time>
      </trkpt>
      <trkpt lat="43.12801063992083072662353515625" lon="-1.38964553363621234893798828125">
        <ele>421</ele>
        <time>2020-08-22T07:59:46.000Z</time>
      </trkpt>
      <trkpt lat="43.128042407333850860595703125" lon="-1.38966263271868228912353515625">
        <ele>421.600006103515625</ele>
        <time>2020-08-22T07:59:49.000Z</time>
      </trkpt>
      <trkpt lat="43.12810485251247882843017578125" lon="-1.389668919146060943603515625">
        <ele>422.79998779296875</ele>
        <time>2020-08-22T07:59:54.000Z</time>
      </trkpt>
      <trkpt lat="43.12813016586005687713623046875" lon="-1.3896637223660945892333984375">
        <ele>423.399993896484375</ele>
        <time>2020-08-22T07:59:56.000Z</time>
      </trkpt>
      <trkpt lat="43.12816821970045566558837890625" lon="-1.3896660692989826202392578125">
        <ele>424</ele>
        <time>2020-08-22T07:59:59.000Z</time>
      </trkpt>
      <trkpt lat="43.1282298266887664794921875" lon="-1.389657519757747650146484375">
        <ele>425</ele>
        <time>2020-08-22T08:00:04.000Z</time>
      </trkpt>
      <trkpt lat="43.12831096351146697998046875" lon="-1.38964670710265636444091796875">
        <ele>426.20001220703125</ele>
        <time>2020-08-22T08:00:11.000Z</time>
      </trkpt>
      <trkpt lat="43.12838204205036163330078125" lon="-1.38961770571768283843994140625">
        <ele>427.399993896484375</ele>
        <time>2020-08-22T08:00:17.000Z</time>
      </trkpt>
      <trkpt lat="43.128394447267055511474609375" lon="-1.38961804099380970001220703125">
        <ele>427.79998779296875</ele>
        <time>2020-08-22T08:00:18.000Z</time>
      </trkpt>
      <trkpt lat="43.128442727029323577880859375" lon="-1.3896003551781177520751953125">
        <ele>428.600006103515625</ele>
        <time>2020-08-22T08:00:22.000Z</time>
      </trkpt>
      <trkpt lat="43.128492347896099090576171875" lon="-1.389585435390472412109375">
        <ele>429.399993896484375</ele>
        <time>2020-08-22T08:00:26.000Z</time>
      </trkpt>
      <trkpt lat="43.1285173259675502777099609375" lon="-1.389579735696315765380859375">
        <ele>429.79998779296875</ele>
        <time>2020-08-22T08:00:28.000Z</time>
      </trkpt>
      <trkpt lat="43.12855177558958530426025390625" lon="-1.389570347964763641357421875">
        <ele>430.79998779296875</ele>
        <time>2020-08-22T08:00:31.000Z</time>
      </trkpt>
      <trkpt lat="43.12858781777322292327880859375" lon="-1.38955685310065746307373046875">
        <ele>431.20001220703125</ele>
        <time>2020-08-22T08:00:34.000Z</time>
      </trkpt>
      <trkpt lat="43.12862436287105083465576171875" lon="-1.3895599544048309326171875">
        <ele>431.79998779296875</ele>
        <time>2020-08-22T08:00:37.000Z</time>
      </trkpt>
      <trkpt lat="43.12869728542864322662353515625" lon="-1.38953254558145999908447265625">
        <ele>432.399993896484375</ele>
        <time>2020-08-22T08:00:43.000Z</time>
      </trkpt>
      <trkpt lat="43.128718994557857513427734375" lon="-1.3895336352288722991943359375">
        <ele>432.79998779296875</ele>
        <time>2020-08-22T08:00:45.000Z</time>
      </trkpt>
      <trkpt lat="43.1287634186446666717529296875" lon="-1.3895249180495738983154296875">
        <ele>433.79998779296875</ele>
        <time>2020-08-22T08:00:50.000Z</time>
      </trkpt>
      <trkpt lat="43.12882368452847003936767578125" lon="-1.38949901796877384185791015625">
        <ele>434.79998779296875</ele>
        <time>2020-08-22T08:00:56.000Z</time>
      </trkpt>
      <trkpt lat="43.1288348324596881866455078125" lon="-1.38949868269264698028564453125">
        <ele>435</ele>
        <time>2020-08-22T08:00:57.000Z</time>
      </trkpt>
      <trkpt lat="43.12888051383197307586669921875" lon="-1.3894917257130146026611328125">
        <ele>436</ele>
        <time>2020-08-22T08:01:02.000Z</time>
      </trkpt>
      <trkpt lat="43.1289032287895679473876953125" lon="-1.38948191888630390167236328125">
        <ele>436.79998779296875</ele>
        <time>2020-08-22T08:01:04.000Z</time>
      </trkpt>
      <trkpt lat="43.12891404144465923309326171875" lon="-1.38947613537311553955078125">
        <ele>437</ele>
        <time>2020-08-22T08:01:05.000Z</time>
      </trkpt>
      <trkpt lat="43.12897020019590854644775390625" lon="-1.3894605450332164764404296875">
        <ele>438</ele>
        <time>2020-08-22T08:01:11.000Z</time>
      </trkpt>
      <trkpt lat="43.12898294068872928619384765625" lon="-1.3894561864435672760009765625">
        <ele>438.20001220703125</ele>
        <time>2020-08-22T08:01:12.000Z</time>
      </trkpt>
      <trkpt lat="43.12901931814849376678466796875" lon="-1.38943565078079700469970703125">
        <ele>438.79998779296875</ele>
        <time>2020-08-22T08:01:15.000Z</time>
      </trkpt>
      <trkpt lat="43.12902954407036304473876953125" lon="-1.3894266821444034576416015625">
        <ele>439</ele>
        <time>2020-08-22T08:01:16.000Z</time>
      </trkpt>
      <trkpt lat="43.1290500797331333160400390625" lon="-1.38941754586994647979736328125">
        <ele>439.399993896484375</ele>
        <time>2020-08-22T08:01:18.000Z</time>
      </trkpt>
      <trkpt lat="43.12908268533647060394287109375" lon="-1.38938359916210174560546875">
        <ele>440.20001220703125</ele>
        <time>2020-08-22T08:01:21.000Z</time>
      </trkpt>
      <trkpt lat="43.12910296954214572906494140625" lon="-1.3893646560609340667724609375">
        <ele>440.600006103515625</ele>
        <time>2020-08-22T08:01:23.000Z</time>
      </trkpt>
      <trkpt lat="43.12911386601626873016357421875" lon="-1.3893636502325534820556640625">
        <ele>441</ele>
        <time>2020-08-22T08:01:24.000Z</time>
      </trkpt>
      <trkpt lat="43.12914907000958919525146484375" lon="-1.38938267715275287628173828125">
        <ele>441.79998779296875</ele>
        <time>2020-08-22T08:01:27.000Z</time>
      </trkpt>
      <trkpt lat="43.12916063703596591949462890625" lon="-1.38938552699983119964599609375">
        <ele>442</ele>
        <time>2020-08-22T08:01:28.000Z</time>
      </trkpt>
      <trkpt lat="43.12918561510741710662841796875" lon="-1.38938167132437229156494140625">
        <ele>442.399993896484375</ele>
        <time>2020-08-22T08:01:30.000Z</time>
      </trkpt>
      <trkpt lat="43.12921830452978610992431640625" lon="-1.38937228359282016754150390625">
        <ele>443</ele>
        <time>2020-08-22T08:01:33.000Z</time>
      </trkpt>
      <trkpt lat="43.12925920821726322174072265625" lon="-1.3893596269190311431884765625">
        <ele>444</ele>
        <time>2020-08-22T08:01:37.000Z</time>
      </trkpt>
      <trkpt lat="43.12930463813245296478271484375" lon="-1.38934613205492496490478515625">
        <ele>445.20001220703125</ele>
        <time>2020-08-22T08:01:41.000Z</time>
      </trkpt>
      <trkpt lat="43.12935744412243366241455078125" lon="-1.38931159861385822296142578125">
        <ele>445.79998779296875</ele>
        <time>2020-08-22T08:01:45.000Z</time>
      </trkpt>
      <trkpt lat="43.12938409857451915740966796875" lon="-1.38929651118814945220947265625">
        <ele>446.399993896484375</ele>
        <time>2020-08-22T08:01:47.000Z</time>
      </trkpt>
      <trkpt lat="43.1294534169137477874755859375" lon="-1.38926046900451183319091796875">
        <ele>447.399993896484375</ele>
        <time>2020-08-22T08:01:52.000Z</time>
      </trkpt>
      <trkpt lat="43.1295360624790191650390625" lon="-1.389221660792827606201171875">
        <ele>448.600006103515625</ele>
        <time>2020-08-22T08:01:58.000Z</time>
      </trkpt>
      <trkpt lat="43.1295483000576496124267578125" lon="-1.389214955270290374755859375">
        <ele>449.20001220703125</ele>
        <time>2020-08-22T08:01:59.000Z</time>
      </trkpt>
      <trkpt lat="43.12957989983260631561279296875" lon="-1.38920514844357967376708984375">
        <ele>449.600006103515625</ele>
        <time>2020-08-22T08:02:02.000Z</time>
      </trkpt>
      <trkpt lat="43.12960990704596042633056640625" lon="-1.38917899690568447113037109375">
        <ele>450.20001220703125</ele>
        <time>2020-08-22T08:02:05.000Z</time>
      </trkpt>
      <trkpt lat="43.12964745797216892242431640625" lon="-1.38916122727096080780029296875">
        <ele>450.79998779296875</ele>
        <time>2020-08-22T08:02:08.000Z</time>
      </trkpt>
      <trkpt lat="43.12970814295113086700439453125" lon="-1.38912342488765716552734375">
        <ele>451.79998779296875</ele>
        <time>2020-08-22T08:02:13.000Z</time>
      </trkpt>
      <trkpt lat="43.12975533306598663330078125" lon="-1.38909216038882732391357421875">
        <ele>452.79998779296875</ele>
        <time>2020-08-22T08:02:17.000Z</time>
      </trkpt>
      <trkpt lat="43.12981526367366313934326171875" lon="-1.38906148262321949005126953125">
        <ele>453.79998779296875</ele>
        <time>2020-08-22T08:02:22.000Z</time>
      </trkpt>
      <trkpt lat="43.1298284232616424560546875" lon="-1.3890535198152065277099609375">
        <ele>453.79998779296875</ele>
        <time>2020-08-22T08:02:23.000Z</time>
      </trkpt>
      <trkpt lat="43.12990394420921802520751953125" lon="-1.38898990117013454437255859375">
        <ele>455</ele>
        <time>2020-08-22T08:02:30.000Z</time>
      </trkpt>
      <trkpt lat="43.1299509666860103607177734375" lon="-1.3889556191861629486083984375">
        <ele>456</ele>
        <time>2020-08-22T08:02:35.000Z</time>
      </trkpt>
      <trkpt lat="43.1299633719027042388916015625" lon="-1.38894648291170597076416015625">
        <ele>456</ele>
        <time>2020-08-22T08:02:36.000Z</time>
      </trkpt>
      <trkpt lat="43.12998407520353794097900390625" lon="-1.3889323174953460693359375">
        <ele>456.399993896484375</ele>
        <time>2020-08-22T08:02:38.000Z</time>
      </trkpt>
      <trkpt lat="43.130016513168811798095703125" lon="-1.3889215886592864990234375">
        <ele>457</ele>
        <time>2020-08-22T08:02:41.000Z</time>
      </trkpt>
      <trkpt lat="43.1300270743668079376220703125" lon="-1.38891546986997127532958984375">
        <ele>457.20001220703125</ele>
        <time>2020-08-22T08:02:42.000Z</time>
      </trkpt>
      <trkpt lat="43.130080215632915496826171875" lon="-1.3888986222445964813232421875">
        <ele>458.20001220703125</ele>
        <time>2020-08-22T08:02:47.000Z</time>
      </trkpt>
      <trkpt lat="43.1300911121070384979248046875" lon="-1.388895101845264434814453125">
        <ele>458.399993896484375</ele>
        <time>2020-08-22T08:02:48.000Z</time>
      </trkpt>
      <trkpt lat="43.13012011349201202392578125" lon="-1.3888828642666339874267578125">
        <ele>458.79998779296875</ele>
        <time>2020-08-22T08:02:51.000Z</time>
      </trkpt>
      <trkpt lat="43.13013712875545024871826171875" lon="-1.3888758234679698944091796875">
        <ele>458.79998779296875</ele>
        <time>2020-08-22T08:02:53.000Z</time>
      </trkpt>
      <trkpt lat="43.1301454268395900726318359375" lon="-1.3888721354305744171142578125">
        <ele>459.20001220703125</ele>
        <time>2020-08-22T08:02:54.000Z</time>
      </trkpt>
      <trkpt lat="43.1302144937217235565185546875" lon="-1.38885252177715301513671875">
        <ele>460.20001220703125</ele>
        <time>2020-08-22T08:03:01.000Z</time>
      </trkpt>
      <trkpt lat="43.13023318536579608917236328125" lon="-1.38885310851037502288818359375">
        <ele>460.600006103515625</ele>
        <time>2020-08-22T08:03:03.000Z</time>
      </trkpt>
      <trkpt lat="43.13028766773641109466552734375" lon="-1.388846151530742645263671875">
        <ele>461.399993896484375</ele>
        <time>2020-08-22T08:03:08.000Z</time>
      </trkpt>
      <trkpt lat="43.13036226667463779449462890625" lon="-1.38881756924092769622802734375">
        <ele>462.600006103515625</ele>
        <time>2020-08-22T08:03:14.000Z</time>
      </trkpt>
      <trkpt lat="43.13038841821253299713134765625" lon="-1.3888034038245677947998046875">
        <ele>462.79998779296875</ele>
        <time>2020-08-22T08:03:16.000Z</time>
      </trkpt>
      <trkpt lat="43.13040099106729030609130859375" lon="-1.3887990452349185943603515625">
        <ele>463</ele>
        <time>2020-08-22T08:03:17.000Z</time>
      </trkpt>
      <trkpt lat="43.13044868409633636474609375" lon="-1.38878974132239818572998046875">
        <ele>463.600006103515625</ele>
        <time>2020-08-22T08:03:21.000Z</time>
      </trkpt>
      <trkpt lat="43.130535185337066650390625" lon="-1.38878923840820789337158203125">
        <ele>465</ele>
        <time>2020-08-22T08:03:27.000Z</time>
      </trkpt>
      <trkpt lat="43.1305423937737941741943359375" lon="-1.38879057951271533966064453125">
        <ele>465.20001220703125</ele>
        <time>2020-08-22T08:03:28.000Z</time>
      </trkpt>
      <trkpt lat="43.13054700382053852081298828125" lon="-1.3887956924736499786376953125">
        <ele>465.20001220703125</ele>
        <time>2020-08-22T08:03:29.000Z</time>
      </trkpt>
      <trkpt lat="43.13055999577045440673828125" lon="-1.38881119899451732635498046875">
        <ele>464.399993896484375</ele>
        <time>2020-08-22T08:09:02.000Z</time>
      </trkpt>
      <trkpt lat="43.13058690167963504791259765625" lon="-1.3888154737651348114013671875">
        <ele>464.600006103515625</ele>
        <time>2020-08-22T08:09:07.000Z</time>
      </trkpt>
      <trkpt lat="43.13063350506126880645751953125" lon="-1.3888178206980228424072265625">
        <ele>465.20001220703125</ele>
        <time>2020-08-22T08:09:12.000Z</time>
      </trkpt>
      <trkpt lat="43.1306925974786281585693359375" lon="-1.38882167637348175048828125">
        <ele>465.79998779296875</ele>
        <time>2020-08-22T08:09:18.000Z</time>
      </trkpt>
      <trkpt lat="43.13072629272937774658203125" lon="-1.3888466544449329376220703125">
        <ele>466</ele>
        <time>2020-08-22T08:09:21.000Z</time>
      </trkpt>
      <trkpt lat="43.13075470738112926483154296875" lon="-1.38887590728700160980224609375">
        <ele>466.600006103515625</ele>
        <time>2020-08-22T08:09:24.000Z</time>
      </trkpt>
      <trkpt lat="43.13081606291234493255615234375" lon="-1.38893164694309234619140625">
        <ele>467.20001220703125</ele>
        <time>2020-08-22T08:09:30.000Z</time>
      </trkpt>
      <trkpt lat="43.1308880634605884552001953125" lon="-1.3890018872916698455810546875">
        <ele>468</ele>
        <time>2020-08-22T08:09:36.000Z</time>
      </trkpt>
      <trkpt lat="43.13089988194406032562255859375" lon="-1.38901253230869770050048828125">
        <ele>468.20001220703125</ele>
        <time>2020-08-22T08:09:37.000Z</time>
      </trkpt>
      <trkpt lat="43.13095034100115299224853515625" lon="-1.3890702836215496063232421875">
        <ele>469</ele>
        <time>2020-08-22T08:09:42.000Z</time>
      </trkpt>
      <trkpt lat="43.1309576332569122314453125" lon="-1.389081180095672607421875">
        <ele>469.399993896484375</ele>
        <time>2020-08-22T08:09:43.000Z</time>
      </trkpt>
      <trkpt lat="43.13098537735641002655029296875" lon="-1.38911160640418529510498046875">
        <ele>469.79998779296875</ele>
        <time>2020-08-22T08:09:46.000Z</time>
      </trkpt>
      <trkpt lat="43.13099660910665988922119140625" lon="-1.389128454029560089111328125">
        <ele>469.79998779296875</ele>
        <time>2020-08-22T08:09:47.000Z</time>
      </trkpt>
      <trkpt lat="43.1310476548969745635986328125" lon="-1.38923532329499721527099609375">
        <ele>470.399993896484375</ele>
        <time>2020-08-22T08:09:52.000Z</time>
      </trkpt>
      <trkpt lat="43.13108143396675586700439453125" lon="-1.3892882131040096282958984375">
        <ele>470.79998779296875</ele>
        <time>2020-08-22T08:09:55.000Z</time>
      </trkpt>
      <trkpt lat="43.131137676537036895751953125" lon="-1.3893730379641056060791015625">
        <ele>471.600006103515625</ele>
        <time>2020-08-22T08:10:01.000Z</time>
      </trkpt>
      <trkpt lat="43.13114941120147705078125" lon="-1.3893802464008331298828125">
        <ele>471.79998779296875</ele>
        <time>2020-08-22T08:10:02.000Z</time>
      </trkpt>
      <trkpt lat="43.13117665238678455352783203125" lon="-1.38939038850367069244384765625">
        <ele>472.20001220703125</ele>
        <time>2020-08-22T08:10:04.000Z</time>
      </trkpt>
      <trkpt lat="43.13122007064521312713623046875" lon="-1.3893882930278778076171875">
        <ele>472.600006103515625</ele>
        <time>2020-08-22T08:10:07.000Z</time>
      </trkpt>
      <trkpt lat="43.1312340684235095977783203125" lon="-1.38938586227595806121826171875">
        <ele>473</ele>
        <time>2020-08-22T08:10:08.000Z</time>
      </trkpt>
      <trkpt lat="43.13127187080681324005126953125" lon="-1.38936993665993213653564453125">
        <ele>473.79998779296875</ele>
        <time>2020-08-22T08:10:11.000Z</time>
      </trkpt>
      <trkpt lat="43.13128192909061908721923828125" lon="-1.38936038129031658172607421875">
        <ele>474</ele>
        <time>2020-08-22T08:10:12.000Z</time>
      </trkpt>
      <trkpt lat="43.13129584304988384246826171875" lon="-1.38933137990534305572509765625">
        <ele>474.399993896484375</ele>
        <time>2020-08-22T08:10:14.000Z</time>
      </trkpt>
      <trkpt lat="43.1313021294772624969482421875" lon="-1.3892955891788005828857421875">
        <ele>474.79998779296875</ele>
        <time>2020-08-22T08:10:16.000Z</time>
      </trkpt>
      <trkpt lat="43.13128477893769741058349609375" lon="-1.38923264108598232269287109375">
        <ele>475.600006103515625</ele>
        <time>2020-08-22T08:10:20.000Z</time>
      </trkpt>
      <trkpt lat="43.13127622939646244049072265625" lon="-1.38921956531703472137451171875">
        <ele>475.600006103515625</ele>
        <time>2020-08-22T08:10:21.000Z</time>
      </trkpt>
      <trkpt lat="43.13126742839813232421875" lon="-1.38920598663389682769775390625">
        <ele>475.79998779296875</ele>
        <time>2020-08-22T08:10:22.000Z</time>
      </trkpt>
      <trkpt lat="43.131221495568752288818359375" lon="-1.389140523970127105712890625">
        <ele>476.399993896484375</ele>
        <time>2020-08-22T08:10:27.000Z</time>
      </trkpt>
      <trkpt lat="43.13119609840214252471923828125" lon="-1.3891044817864894866943359375">
        <ele>476.600006103515625</ele>
        <time>2020-08-22T08:10:30.000Z</time>
      </trkpt>
      <trkpt lat="43.1311432085931301116943359375" lon="-1.3890364207327365875244140625">
        <ele>477.399993896484375</ele>
        <time>2020-08-22T08:10:35.000Z</time>
      </trkpt>
      <trkpt lat="43.13113524578511714935302734375" lon="-1.38901974074542522430419921875">
        <ele>477.600006103515625</ele>
        <time>2020-08-22T08:10:36.000Z</time>
      </trkpt>
      <trkpt lat="43.13112636096775531768798828125" lon="-1.38900431804358959197998046875">
        <ele>477.79998779296875</ele>
        <time>2020-08-22T08:10:37.000Z</time>
      </trkpt>
      <trkpt lat="43.13107472844421863555908203125" lon="-1.3889552839100360870361328125">
        <ele>478</ele>
        <time>2020-08-22T08:10:41.000Z</time>
      </trkpt>
      <trkpt lat="43.1309742294251918792724609375" lon="-1.3888127915561199188232421875">
        <ele>478.399993896484375</ele>
        <time>2020-08-22T08:10:50.000Z</time>
      </trkpt>
      <trkpt lat="43.130920417606830596923828125" lon="-1.38874925673007965087890625">
        <ele>478.79998779296875</ele>
        <time>2020-08-22T08:10:55.000Z</time>
      </trkpt>
      <trkpt lat="43.1308672763407230377197265625" lon="-1.38869016431272029876708984375">
        <ele>479.399993896484375</ele>
        <time>2020-08-22T08:11:00.000Z</time>
      </trkpt>
      <trkpt lat="43.13085579313337802886962890625" lon="-1.3886816985905170440673828125">
        <ele>479.600006103515625</ele>
        <time>2020-08-22T08:11:01.000Z</time>
      </trkpt>
      <trkpt lat="43.13081555999815464019775390625" lon="-1.38865269720554351806640625">
        <ele>480</ele>
        <time>2020-08-22T08:11:04.000Z</time>
      </trkpt>
      <trkpt lat="43.130744062364101409912109375" lon="-1.38861724175512790679931640625">
        <ele>480.600006103515625</ele>
        <time>2020-08-22T08:11:09.000Z</time>
      </trkpt>
      <trkpt lat="43.13072897493839263916015625" lon="-1.38861338607966899871826171875">
        <ele>480.79998779296875</ele>
        <time>2020-08-22T08:11:10.000Z</time>
      </trkpt>
      <trkpt lat="43.1307164020836353302001953125" lon="-1.388603411614894866943359375">
        <ele>480.79998779296875</ele>
        <time>2020-08-22T08:11:11.000Z</time>
      </trkpt>
      <trkpt lat="43.13066468574106693267822265625" lon="-1.38856158591806888580322265625">
        <ele>481</ele>
        <time>2020-08-22T08:11:15.000Z</time>
      </trkpt>
      <trkpt lat="43.1306238658726215362548828125" lon="-1.38853711076080799102783203125">
        <ele>481.399993896484375</ele>
        <time>2020-08-22T08:11:18.000Z</time>
      </trkpt>
      <trkpt lat="43.1305960379540920257568359375" lon="-1.38852537609636783599853515625">
        <ele>481.600006103515625</ele>
        <time>2020-08-22T08:11:20.000Z</time>
      </trkpt>
      <trkpt lat="43.13056359998881816864013671875" lon="-1.38851330615580081939697265625">
        <ele>481.600006103515625</ele>
        <time>2020-08-22T08:11:22.000Z</time>
      </trkpt>
      <trkpt lat="43.13054918311536312103271484375" lon="-1.388501822948455810546875">
        <ele>481.600006103515625</ele>
        <time>2020-08-22T08:11:23.000Z</time>
      </trkpt>
      <trkpt lat="43.1305122189223766326904296875" lon="-1.388473324477672576904296875">
        <ele>482.20001220703125</ele>
        <time>2020-08-22T08:11:26.000Z</time>
      </trkpt>
      <trkpt lat="43.1304351054131984710693359375" lon="-1.3884449936449527740478515625">
        <ele>482.600006103515625</ele>
        <time>2020-08-22T08:11:31.000Z</time>
      </trkpt>
      <trkpt lat="43.13041825778782367706298828125" lon="-1.388441137969493865966796875">
        <ele>482.600006103515625</ele>
        <time>2020-08-22T08:11:32.000Z</time>
      </trkpt>
      <trkpt lat="43.1303646974265575408935546875" lon="-1.3884332589805126190185546875">
        <ele>483.600006103515625</ele>
        <time>2020-08-22T08:11:35.000Z</time>
      </trkpt>
      <trkpt lat="43.13029185868799686431884765625" lon="-1.3884292356669902801513671875">
        <ele>484</ele>
        <time>2020-08-22T08:11:39.000Z</time>
      </trkpt>
      <trkpt lat="43.13017786480486392974853515625" lon="-1.38838590122759342193603515625">
        <ele>484.399993896484375</ele>
        <time>2020-08-22T08:11:46.000Z</time>
      </trkpt>
      <trkpt lat="43.1301665492355823516845703125" lon="-1.38836972415447235107421875">
        <ele>484.600006103515625</ele>
        <time>2020-08-22T08:11:47.000Z</time>
      </trkpt>
      <trkpt lat="43.13015657477080821990966796875" lon="-1.3883571512997150421142578125">
        <ele>484.600006103515625</ele>
        <time>2020-08-22T08:11:48.000Z</time>
      </trkpt>
      <trkpt lat="43.13013008795678615570068359375" lon="-1.38833644799888134002685546875">
        <ele>484.79998779296875</ele>
        <time>2020-08-22T08:11:51.000Z</time>
      </trkpt>
      <trkpt lat="43.13012589700520038604736328125" lon="-1.38831499032676219940185546875">
        <ele>484.79998779296875</ele>
        <time>2020-08-22T08:11:57.000Z</time>
      </trkpt>
      <trkpt lat="43.130123130977153778076171875" lon="-1.3883149065077304840087890625">
        <ele>485</ele>
        <time>2020-08-22T08:12:13.000Z</time>
      </trkpt>
      <trkpt lat="43.13011466525495052337646484375" lon="-1.38831230811774730682373046875">
        <ele>485.20001220703125</ele>
        <time>2020-08-22T08:12:16.000Z</time>
      </trkpt>
      <trkpt lat="43.1300820596516132354736328125" lon="-1.388297639787197113037109375">
        <ele>485</ele>
        <time>2020-08-22T08:12:19.000Z</time>
      </trkpt>
      <trkpt lat="43.13006001524627208709716796875" lon="-1.3882859051227569580078125">
        <ele>485</ele>
        <time>2020-08-22T08:12:21.000Z</time>
      </trkpt>
      <trkpt lat="43.13000209629535675048828125" lon="-1.38827676884829998016357421875">
        <ele>485</ele>
        <time>2020-08-22T08:12:25.000Z</time>
      </trkpt>
      <trkpt lat="43.12998575158417224884033203125" lon="-1.388274170458316802978515625">
        <ele>485</ele>
        <time>2020-08-22T08:12:26.000Z</time>
      </trkpt>
      <trkpt lat="43.12982716597616672515869140625" lon="-1.3882428221404552459716796875">
        <ele>484.600006103515625</ele>
        <time>2020-08-22T08:12:33.000Z</time>
      </trkpt>
      <trkpt lat="43.12961342744529247283935546875" lon="-1.388179622590541839599609375">
        <ele>483.79998779296875</ele>
        <time>2020-08-22T08:12:40.000Z</time>
      </trkpt>
      <trkpt lat="43.12944528646767139434814453125" lon="-1.3881348632276058197021484375">
        <ele>483.20001220703125</ele>
        <time>2020-08-22T08:12:45.000Z</time>
      </trkpt>
      <trkpt lat="43.12933028675615787506103515625" lon="-1.3881043531000614166259765625">
        <ele>482.79998779296875</ele>
        <time>2020-08-22T08:12:48.000Z</time>
      </trkpt>
      <trkpt lat="43.12911755405366420745849609375" lon="-1.388032436370849609375">
        <ele>482</ele>
        <time>2020-08-22T08:12:53.000Z</time>
      </trkpt>
      <trkpt lat="43.12901730649173259735107421875" lon="-1.38800519518554210662841796875">
        <ele>481.600006103515625</ele>
        <time>2020-08-22T08:12:55.000Z</time>
      </trkpt>
      <trkpt lat="43.1288646720349788665771484375" lon="-1.38796278275549411773681640625">
        <ele>480.79998779296875</ele>
        <time>2020-08-22T08:12:58.000Z</time>
      </trkpt>
      <trkpt lat="43.1287422962486743927001953125" lon="-1.38784912414848804473876953125">
        <ele>480.600006103515625</ele>
        <time>2020-08-22T08:13:01.000Z</time>
      </trkpt>
      <trkpt lat="43.12869963236153125762939453125" lon="-1.38775147497653961181640625">
        <ele>481</ele>
        <time>2020-08-22T08:13:04.000Z</time>
      </trkpt>
      <trkpt lat="43.12867716886103153228759765625" lon="-1.387686766684055328369140625">
        <ele>482</ele>
        <time>2020-08-22T08:13:07.000Z</time>
      </trkpt>
      <trkpt lat="43.12865621410310268402099609375" lon="-1.38765080831944942474365234375">
        <ele>482.399993896484375</ele>
        <time>2020-08-22T08:13:09.000Z</time>
      </trkpt>
      <trkpt lat="43.128646910190582275390625" lon="-1.38763119466602802276611328125">
        <ele>482.399993896484375</ele>
        <time>2020-08-22T08:13:10.000Z</time>
      </trkpt>
      <trkpt lat="43.12863391824066638946533203125" lon="-1.38758844695985317230224609375">
        <ele>482.79998779296875</ele>
        <time>2020-08-22T08:13:12.000Z</time>
      </trkpt>
      <trkpt lat="43.1286038272082805633544921875" lon="-1.3874780572950839996337890625">
        <ele>484</ele>
        <time>2020-08-22T08:13:17.000Z</time>
      </trkpt>
      <trkpt lat="43.12859418801963329315185546875" lon="-1.38743338175117969512939453125">
        <ele>484.399993896484375</ele>
        <time>2020-08-22T08:13:19.000Z</time>
      </trkpt>
      <trkpt lat="43.1285914219915866851806640625" lon="-1.38738795183598995208740234375">
        <ele>485</ele>
        <time>2020-08-22T08:13:21.000Z</time>
      </trkpt>
      <trkpt lat="43.1285736523568630218505859375" lon="-1.3872814178466796875">
        <ele>486</ele>
        <time>2020-08-22T08:13:26.000Z</time>
      </trkpt>
      <trkpt lat="43.1285729818046092987060546875" lon="-1.3872601278126239776611328125">
        <ele>486</ele>
        <time>2020-08-22T08:13:27.000Z</time>
      </trkpt>
      <trkpt lat="43.12860575504601001739501953125" lon="-1.38718712143599987030029296875">
        <ele>487.20001220703125</ele>
        <time>2020-08-22T08:13:31.000Z</time>
      </trkpt>
      <trkpt lat="43.1286638416349887847900390625" lon="-1.3871618919074535369873046875">
        <ele>488.20001220703125</ele>
        <time>2020-08-22T08:13:35.000Z</time>
      </trkpt>
      <trkpt lat="43.128690831363201141357421875" lon="-1.38718645088374614715576171875">
        <ele>488.399993896484375</ele>
        <time>2020-08-22T08:13:37.000Z</time>
      </trkpt>
      <trkpt lat="43.12875193543732166290283203125" lon="-1.38724462129175662994384765625">
        <ele>489</ele>
        <time>2020-08-22T08:13:42.000Z</time>
      </trkpt>
      <trkpt lat="43.12876517884433269500732421875" lon="-1.38725535012781620025634765625">
        <ele>489.20001220703125</ele>
        <time>2020-08-22T08:13:43.000Z</time>
      </trkpt>
      <trkpt lat="43.1287885643541812896728515625" lon="-1.3872795738279819488525390625">
        <ele>489.79998779296875</ele>
        <time>2020-08-22T08:13:45.000Z</time>
      </trkpt>
      <trkpt lat="43.128806836903095245361328125" lon="-1.38730832375586032867431640625">
        <ele>490</ele>
        <time>2020-08-22T08:13:47.000Z</time>
      </trkpt>
      <trkpt lat="43.12887196429073810577392578125" lon="-1.387389041483402252197265625">
        <ele>491.20001220703125</ele>
        <time>2020-08-22T08:13:53.000Z</time>
      </trkpt>
      <trkpt lat="43.12894840724766254425048828125" lon="-1.38743589632213115692138671875">
        <ele>492.20001220703125</ele>
        <time>2020-08-22T08:13:59.000Z</time>
      </trkpt>
      <trkpt lat="43.12897254712879657745361328125" lon="-1.38745215721428394317626953125">
        <ele>492.79998779296875</ele>
        <time>2020-08-22T08:14:01.000Z</time>
      </trkpt>
      <trkpt lat="43.1290128640830516815185546875" lon="-1.38746489770710468292236328125">
        <ele>493.20001220703125</ele>
        <time>2020-08-22T08:14:04.000Z</time>
      </trkpt>
      <trkpt lat="43.1290665082633495330810546875" lon="-1.38747763819992542266845703125">
        <ele>494.399993896484375</ele>
        <time>2020-08-22T08:14:08.000Z</time>
      </trkpt>
      <trkpt lat="43.12908000312745571136474609375" lon="-1.38748065568506717681884765625">
        <ele>494.399993896484375</ele>
        <time>2020-08-22T08:14:09.000Z</time>
      </trkpt>
      <trkpt lat="43.12914387322962284088134765625" lon="-1.3874824158847332000732421875">
        <ele>495.399993896484375</ele>
        <time>2020-08-22T08:14:14.000Z</time>
      </trkpt>
      <trkpt lat="43.1291965954005718231201171875" lon="-1.3874921388924121856689453125">
        <ele>496.20001220703125</ele>
        <time>2020-08-22T08:14:18.000Z</time>
      </trkpt>
      <trkpt lat="43.1292230822145938873291015625" lon="-1.38749691657721996307373046875">
        <ele>496.600006103515625</ele>
        <time>2020-08-22T08:14:20.000Z</time>
      </trkpt>
      <trkpt lat="43.1292812526226043701171875" lon="-1.3875107467174530029296875">
        <ele>497.79998779296875</ele>
        <time>2020-08-22T08:14:25.000Z</time>
      </trkpt>
      <trkpt lat="43.12930430285632610321044921875" lon="-1.3875080645084381103515625">
        <ele>498.20001220703125</ele>
        <time>2020-08-22T08:14:27.000Z</time>
      </trkpt>
      <trkpt lat="43.12935157679021358489990234375" lon="-1.38751921243965625762939453125">
        <ele>498.79998779296875</ele>
        <time>2020-08-22T08:14:31.000Z</time>
      </trkpt>
      <trkpt lat="43.1293984316289424896240234375" lon="-1.38752725906670093536376953125">
        <ele>500</ele>
        <time>2020-08-22T08:14:35.000Z</time>
      </trkpt>
      <trkpt lat="43.1294336356222629547119140625" lon="-1.3875281810760498046875">
        <ele>500.399993896484375</ele>
        <time>2020-08-22T08:14:38.000Z</time>
      </trkpt>
      <trkpt lat="43.129477389156818389892578125" lon="-1.38755106367170810699462890625">
        <ele>501</ele>
        <time>2020-08-22T08:14:42.000Z</time>
      </trkpt>
      <trkpt lat="43.1294892914593219757080078125" lon="-1.38755173422396183013916015625">
        <ele>501.20001220703125</ele>
        <time>2020-08-22T08:14:43.000Z</time>
      </trkpt>
      <trkpt lat="43.1295379064977169036865234375" lon="-1.38755458407104015350341796875">
        <ele>502.20001220703125</ele>
        <time>2020-08-22T08:14:47.000Z</time>
      </trkpt>
      <trkpt lat="43.12958861701190471649169921875" lon="-1.38755056075751781463623046875">
        <ele>503.20001220703125</ele>
        <time>2020-08-22T08:14:51.000Z</time>
      </trkpt>
      <trkpt lat="43.12960068695247173309326171875" lon="-1.387550644576549530029296875">
        <ele>503.399993896484375</ele>
        <time>2020-08-22T08:14:52.000Z</time>
      </trkpt>
      <trkpt lat="43.1296619586646556854248046875" lon="-1.38755626045167446136474609375">
        <ele>504.399993896484375</ele>
        <time>2020-08-22T08:14:57.000Z</time>
      </trkpt>
      <trkpt lat="43.129687942564487457275390625" lon="-1.38755709864199161529541015625">
        <ele>504.600006103515625</ele>
        <time>2020-08-22T08:14:59.000Z</time>
      </trkpt>
      <trkpt lat="43.12975189648568630218505859375" lon="-1.3875645585358142852783203125">
        <ele>505.399993896484375</ele>
        <time>2020-08-22T08:15:04.000Z</time>
      </trkpt>
      <trkpt lat="43.12979296781122684478759765625" lon="-1.3875729404389858245849609375">
        <ele>506</ele>
        <time>2020-08-22T08:15:07.000Z</time>
      </trkpt>
      <trkpt lat="43.1298322789371013641357421875" lon="-1.38757822103798389434814453125">
        <ele>506.600006103515625</ele>
        <time>2020-08-22T08:15:10.000Z</time>
      </trkpt>
      <trkpt lat="43.1299083866178989410400390625" lon="-1.38758811168372631072998046875">
        <ele>507.600006103515625</ele>
        <time>2020-08-22T08:15:16.000Z</time>
      </trkpt>
      <trkpt lat="43.12992163002490997314453125" lon="-1.3875883631408214569091796875">
        <ele>507.79998779296875</ele>
        <time>2020-08-22T08:15:17.000Z</time>
      </trkpt>
      <trkpt lat="43.1300072930753231048583984375" lon="-1.38759481720626354217529296875">
        <ele>508.79998779296875</ele>
        <time>2020-08-22T08:15:24.000Z</time>
      </trkpt>
      <trkpt lat="43.13003051094710826873779296875" lon="-1.38758526183664798736572265625">
        <ele>509</ele>
        <time>2020-08-22T08:15:26.000Z</time>
      </trkpt>
      <trkpt lat="43.1300874240696430206298828125" lon="-1.38757604174315929412841796875">
        <ele>509.79998779296875</ele>
        <time>2020-08-22T08:15:31.000Z</time>
      </trkpt>
      <trkpt lat="43.130121119320392608642578125" lon="-1.38758224435150623321533203125">
        <ele>510</ele>
        <time>2020-08-22T08:15:34.000Z</time>
      </trkpt>
      <trkpt lat="43.130170740187168121337890625" lon="-1.3876192085444927215576171875">
        <ele>510.600006103515625</ele>
        <time>2020-08-22T08:15:39.000Z</time>
      </trkpt>
      <trkpt lat="43.13018255867063999176025390625" lon="-1.3876260817050933837890625">
        <ele>510.79998779296875</ele>
        <time>2020-08-22T08:15:40.000Z</time>
      </trkpt>
      <trkpt lat="43.13024885952472686767578125" lon="-1.38764125294983386993408203125">
        <ele>511.79998779296875</ele>
        <time>2020-08-22T08:15:45.000Z</time>
      </trkpt>
      <trkpt lat="43.13026134856045246124267578125" lon="-1.38764142058789730072021484375">
        <ele>511.79998779296875</ele>
        <time>2020-08-22T08:15:46.000Z</time>
      </trkpt>
      <trkpt lat="43.1303284876048564910888671875" lon="-1.387664638459682464599609375">
        <ele>512.79998779296875</ele>
        <time>2020-08-22T08:15:51.000Z</time>
      </trkpt>
      <trkpt lat="43.13035807572305202484130859375" lon="-1.38767176307737827301025390625">
        <ele>513</ele>
        <time>2020-08-22T08:15:53.000Z</time>
      </trkpt>
      <trkpt lat="43.13045212067663669586181640625" lon="-1.38769514858722686767578125">
        <ele>514</ele>
        <time>2020-08-22T08:15:59.000Z</time>
      </trkpt>
      <trkpt lat="43.13046771101653575897216796875" lon="-1.3876979984343051910400390625">
        <ele>514.20001220703125</ele>
        <time>2020-08-22T08:16:00.000Z</time>
      </trkpt>
      <trkpt lat="43.13049688003957271575927734375" lon="-1.3877100683748722076416015625">
        <ele>514.5999755859375</ele>
        <time>2020-08-22T08:16:02.000Z</time>
      </trkpt>
      <trkpt lat="43.1305413879454135894775390625" lon="-1.38772238977253437042236328125">
        <ele>515.20001220703125</ele>
        <time>2020-08-22T08:16:05.000Z</time>
      </trkpt>
      <trkpt lat="43.1306335888803005218505859375" lon="-1.3877332024276256561279296875">
        <ele>516.20001220703125</ele>
        <time>2020-08-22T08:16:11.000Z</time>
      </trkpt>
      <trkpt lat="43.1307147257030010223388671875" lon="-1.3877492956817150115966796875">
        <ele>517.20001220703125</ele>
        <time>2020-08-22T08:16:16.000Z</time>
      </trkpt>
      <trkpt lat="43.13073123805224895477294921875" lon="-1.387755163013935089111328125">
        <ele>517.4000244140625</ele>
        <time>2020-08-22T08:16:17.000Z</time>
      </trkpt>
      <trkpt lat="43.13082612119615077972412109375" lon="-1.387766562402248382568359375">
        <ele>518.20001220703125</ele>
        <time>2020-08-22T08:16:23.000Z</time>
      </trkpt>
      <trkpt lat="43.13085772097110748291015625" lon="-1.387774944305419921875">
        <ele>518.4000244140625</ele>
        <time>2020-08-22T08:16:25.000Z</time>
      </trkpt>
      <trkpt lat="43.13093692995607852935791015625" lon="-1.38780218549072742462158203125">
        <ele>519</ele>
        <time>2020-08-22T08:16:30.000Z</time>
      </trkpt>
      <trkpt lat="43.131014965474605560302734375" lon="-1.387817859649658203125">
        <ele>519.4000244140625</ele>
        <time>2020-08-22T08:16:34.000Z</time>
      </trkpt>
      <trkpt lat="43.13109031878411769866943359375" lon="-1.38784443028271198272705078125">
        <ele>519.5999755859375</ele>
        <time>2020-08-22T08:16:38.000Z</time>
      </trkpt>
      <trkpt lat="43.13117824494838714599609375" lon="-1.38787276111543178558349609375">
        <ele>520.4000244140625</ele>
        <time>2020-08-22T08:16:43.000Z</time>
      </trkpt>
      <trkpt lat="43.13123247586190700531005859375" lon="-1.38788935728371143341064453125">
        <ele>521.5999755859375</ele>
        <time>2020-08-22T08:16:46.000Z</time>
      </trkpt>
      <trkpt lat="43.13133574090898036956787109375" lon="-1.38792020268738269805908203125">
        <ele>522.79998779296875</ele>
        <time>2020-08-22T08:16:52.000Z</time>
      </trkpt>
      <trkpt lat="43.13137044198811054229736328125" lon="-1.38791978359222412109375">
        <ele>523.20001220703125</ele>
        <time>2020-08-22T08:16:54.000Z</time>
      </trkpt>
      <trkpt lat="43.13149399124085903167724609375" lon="-1.38796865008771419525146484375">
        <ele>523.79998779296875</ele>
        <time>2020-08-22T08:17:01.000Z</time>
      </trkpt>
      <trkpt lat="43.131610415875911712646484375" lon="-1.38803184963762760162353515625">
        <ele>524.5999755859375</ele>
        <time>2020-08-22T08:17:08.000Z</time>
      </trkpt>
      <trkpt lat="43.13162692822515964508056640625" lon="-1.388038806617259979248046875">
        <ele>524.79998779296875</ele>
        <time>2020-08-22T08:17:09.000Z</time>
      </trkpt>
      <trkpt lat="43.1316766329109668731689453125" lon="-1.3880704902112483978271484375">
        <ele>525.5999755859375</ele>
        <time>2020-08-22T08:17:14.000Z</time>
      </trkpt>
      <trkpt lat="43.13167906366288661956787109375" lon="-1.3880657963454723358154296875">
        <ele>525.5999755859375</ele>
        <time>2020-08-22T08:18:16.000Z</time>
      </trkpt>
      <trkpt lat="43.1317138485610485076904296875" lon="-1.38808515854179859161376953125">
        <ele>525.5999755859375</ele>
        <time>2020-08-22T08:18:21.000Z</time>
      </trkpt>
      <trkpt lat="43.1318221427500247955322265625" lon="-1.38812891207635402679443359375">
        <ele>526</ele>
        <time>2020-08-22T08:18:28.000Z</time>
      </trkpt>
      <trkpt lat="43.13200025819242000579833984375" lon="-1.38815112411975860595703125">
        <ele>525.5999755859375</ele>
        <time>2020-08-22T08:18:37.000Z</time>
      </trkpt>
      <trkpt lat="43.1321815587580204010009765625" lon="-1.3881472684442996978759765625">
        <ele>525</ele>
        <time>2020-08-22T08:18:43.000Z</time>
      </trkpt>
      <trkpt lat="43.132452629506587982177734375" lon="-1.38812991790473461151123046875">
        <ele>524</ele>
        <time>2020-08-22T08:18:49.000Z</time>
      </trkpt>
      <trkpt lat="43.1324990652501583099365234375" lon="-1.388123966753482818603515625">
        <ele>523.79998779296875</ele>
        <time>2020-08-22T08:18:50.000Z</time>
      </trkpt>
      <trkpt lat="43.1326308287680149078369140625" lon="-1.38810443691909313201904296875">
        <ele>524.20001220703125</ele>
        <time>2020-08-22T08:18:54.000Z</time>
      </trkpt>
      <trkpt lat="43.13275144435465335845947265625" lon="-1.3881008327007293701171875">
        <ele>525.20001220703125</ele>
        <time>2020-08-22T08:19:00.000Z</time>
      </trkpt>
      <trkpt lat="43.1327857263386249542236328125" lon="-1.3880983181297779083251953125">
        <ele>526</ele>
        <time>2020-08-22T08:19:02.000Z</time>
      </trkpt>
      <trkpt lat="43.1328018195927143096923828125" lon="-1.388099826872348785400390625">
        <ele>526.4000244140625</ele>
        <time>2020-08-22T08:19:03.000Z</time>
      </trkpt>
      <trkpt lat="43.1328611634671688079833984375" lon="-1.388099491596221923828125">
        <ele>527.5999755859375</ele>
        <time>2020-08-22T08:19:07.000Z</time>
      </trkpt>
      <trkpt lat="43.1329127959907054901123046875" lon="-1.38810594566166400909423828125">
        <ele>528.79998779296875</ele>
        <time>2020-08-22T08:19:11.000Z</time>
      </trkpt>
      <trkpt lat="43.13292478211224079132080078125" lon="-1.3881067000329494476318359375">
        <ele>529</ele>
        <time>2020-08-22T08:19:12.000Z</time>
      </trkpt>
      <trkpt lat="43.1329738162457942962646484375" lon="-1.38811483047902584075927734375">
        <ele>530</ele>
        <time>2020-08-22T08:19:16.000Z</time>
      </trkpt>
      <trkpt lat="43.1330321542918682098388671875" lon="-1.38812832534313201904296875">
        <ele>530.5999755859375</ele>
        <time>2020-08-22T08:19:21.000Z</time>
      </trkpt>
      <trkpt lat="43.13305671326816082000732421875" lon="-1.3881331868469715118408203125">
        <ele>530.79998779296875</ele>
        <time>2020-08-22T08:19:23.000Z</time>
      </trkpt>
      <trkpt lat="43.1331210024654865264892578125" lon="-1.3881539739668369293212890625">
        <ele>532</ele>
        <time>2020-08-22T08:19:28.000Z</time>
      </trkpt>
      <trkpt lat="43.13313416205346584320068359375" lon="-1.388160176575183868408203125">
        <ele>532.20001220703125</ele>
        <time>2020-08-22T08:19:29.000Z</time>
      </trkpt>
      <trkpt lat="43.13325603492558002471923828125" lon="-1.3882089592516422271728515625">
        <ele>533</ele>
        <time>2020-08-22T08:19:38.000Z</time>
      </trkpt>
      <trkpt lat="43.13329576514661312103271484375" lon="-1.38823402114212512969970703125">
        <ele>533</ele>
        <time>2020-08-22T08:19:41.000Z</time>
      </trkpt>
      <trkpt lat="43.133349828422069549560546875" lon="-1.3882713206112384796142578125">
        <ele>533</ele>
        <time>2020-08-22T08:19:45.000Z</time>
      </trkpt>
      <trkpt lat="43.13347161747515201568603515625" lon="-1.38834600336849689483642578125">
        <ele>533.79998779296875</ele>
        <time>2020-08-22T08:19:53.000Z</time>
      </trkpt>
      <trkpt lat="43.1334874592721462249755859375" lon="-1.38835304416716098785400390625">
        <ele>533.79998779296875</ele>
        <time>2020-08-22T08:19:54.000Z</time>
      </trkpt>
      <trkpt lat="43.1335598789155483245849609375" lon="-1.388400234282016754150390625">
        <ele>534.20001220703125</ele>
        <time>2020-08-22T08:19:59.000Z</time>
      </trkpt>
      <trkpt lat="43.1336390040814876556396484375" lon="-1.3884516991674900054931640625">
        <ele>535</ele>
        <time>2020-08-22T08:20:04.000Z</time>
      </trkpt>
      <trkpt lat="43.13366792164742946624755859375" lon="-1.3884775154292583465576171875">
        <ele>535.4000244140625</ele>
        <time>2020-08-22T08:20:06.000Z</time>
      </trkpt>
      <trkpt lat="43.13372944481670856475830078125" lon="-1.388524286448955535888671875">
        <ele>536</ele>
        <time>2020-08-22T08:20:10.000Z</time>
      </trkpt>
      <trkpt lat="43.1337446160614490509033203125" lon="-1.388537697494029998779296875">
        <ele>536.20001220703125</ele>
        <time>2020-08-22T08:20:11.000Z</time>
      </trkpt>
      <trkpt lat="43.1337962485849857330322265625" lon="-1.388591341674327850341796875">
        <ele>537.20001220703125</ele>
        <time>2020-08-22T08:20:15.000Z</time>
      </trkpt>
      <trkpt lat="43.13383539207279682159423828125" lon="-1.38862587511539459228515625">
        <ele>537.79998779296875</ele>
        <time>2020-08-22T08:20:18.000Z</time>
      </trkpt>
      <trkpt lat="43.13385550864040851593017578125" lon="-1.388651020824909210205078125">
        <ele>538.20001220703125</ele>
        <time>2020-08-22T08:20:20.000Z</time>
      </trkpt>
      <trkpt lat="43.13387512229382991790771484375" lon="-1.3886622525751590728759765625">
        <ele>538.5999755859375</ele>
        <time>2020-08-22T08:20:22.000Z</time>
      </trkpt>
      <trkpt lat="43.13388601876795291900634765625" lon="-1.388666443526744842529296875">
        <ele>538.79998779296875</ele>
        <time>2020-08-22T08:20:23.000Z</time>
      </trkpt>
      <trkpt lat="43.13393144868314266204833984375" lon="-1.388694941997528076171875">
        <ele>539.4000244140625</ele>
        <time>2020-08-22T08:20:27.000Z</time>
      </trkpt>
      <trkpt lat="43.1339695863425731658935546875" lon="-1.38872100971639156341552734375">
        <ele>540</ele>
        <time>2020-08-22T08:20:30.000Z</time>
      </trkpt>
      <trkpt lat="43.133978806436061859130859375" lon="-1.38873274438083171844482421875">
        <ele>540.5999755859375</ele>
        <time>2020-08-22T08:20:31.000Z</time>
      </trkpt>
      <trkpt lat="43.13400856219232082366943359375" lon="-1.3887655176222324371337890625">
        <ele>541.4000244140625</ele>
        <time>2020-08-22T08:20:34.000Z</time>
      </trkpt>
      <trkpt lat="43.134028427302837371826171875" lon="-1.3887849636375904083251953125">
        <ele>542</ele>
        <time>2020-08-22T08:20:36.000Z</time>
      </trkpt>
      <trkpt lat="43.134052567183971405029296875" lon="-1.38879996724426746368408203125">
        <ele>542.4000244140625</ele>
        <time>2020-08-22T08:20:38.000Z</time>
      </trkpt>
      <trkpt lat="43.13409539870917797088623046875" lon="-1.38881170190870761871337890625">
        <ele>543.20001220703125</ele>
        <time>2020-08-22T08:20:41.000Z</time>
      </trkpt>
      <trkpt lat="43.1341124139726161956787109375" lon="-1.38878823257982730865478515625">
        <ele>543.5999755859375</ele>
        <time>2020-08-22T08:20:43.000Z</time>
      </trkpt>
      <trkpt lat="43.1341241486370563507080078125" lon="-1.3887591473758220672607421875">
        <ele>543.79998779296875</ele>
        <time>2020-08-22T08:20:45.000Z</time>
      </trkpt>
      <trkpt lat="43.1341305188834667205810546875" lon="-1.3887177407741546630859375">
        <ele>544.4000244140625</ele>
        <time>2020-08-22T08:20:48.000Z</time>
      </trkpt>
      <trkpt lat="43.13412523828446865081787109375" lon="-1.38870634138584136962890625">
        <ele>544.5999755859375</ele>
        <time>2020-08-22T08:20:49.000Z</time>
      </trkpt>
      <trkpt lat="43.134117610752582550048828125" lon="-1.38869837857782840728759765625">
        <ele>544.79998779296875</ele>
        <time>2020-08-22T08:20:50.000Z</time>
      </trkpt>
      <trkpt lat="43.1340470351278781890869140625" lon="-1.3886649347841739654541015625">
        <ele>545.5999755859375</ele>
        <time>2020-08-22T08:20:56.000Z</time>
      </trkpt>
      <trkpt lat="43.13404158689081668853759765625" lon="-1.38865345157682895660400390625">
        <ele>545.79998779296875</ele>
        <time>2020-08-22T08:20:57.000Z</time>
      </trkpt>
      <trkpt lat="43.1340131722390651702880859375" lon="-1.388628222048282623291015625">
        <ele>546.20001220703125</ele>
        <time>2020-08-22T08:21:00.000Z</time>
      </trkpt>
      <trkpt lat="43.13398391939699649810791015625" lon="-1.3885998912155628204345703125">
        <ele>546.5999755859375</ele>
        <time>2020-08-22T08:21:03.000Z</time>
      </trkpt>
      <trkpt lat="43.13394938595592975616455078125" lon="-1.38857248239219188690185546875">
        <ele>547</ele>
        <time>2020-08-22T08:21:06.000Z</time>
      </trkpt>
      <trkpt lat="43.133927173912525177001953125" lon="-1.38855320401489734649658203125">
        <ele>547.20001220703125</ele>
        <time>2020-08-22T08:21:08.000Z</time>
      </trkpt>
      <trkpt lat="43.13391887582838535308837890625" lon="-1.3885408826172351837158203125">
        <ele>547.20001220703125</ele>
        <time>2020-08-22T08:21:09.000Z</time>
      </trkpt>
      <trkpt lat="43.1338864378631114959716796875" lon="-1.38850609771907329559326171875">
        <ele>547.4000244140625</ele>
        <time>2020-08-22T08:21:12.000Z</time>
      </trkpt>
      <trkpt lat="43.1338758766651153564453125" lon="-1.38849469833076000213623046875">
        <ele>547.5999755859375</ele>
        <time>2020-08-22T08:21:13.000Z</time>
      </trkpt>
      <trkpt lat="43.1338666565716266632080078125" lon="-1.38847894035279750823974609375">
        <ele>547.79998779296875</ele>
        <time>2020-08-22T08:21:14.000Z</time>
      </trkpt>
      <trkpt lat="43.13384436070919036865234375" lon="-1.38844021596014499664306640625">
        <ele>548.20001220703125</ele>
        <time>2020-08-22T08:21:17.000Z</time>
      </trkpt>
      <trkpt lat="43.1338260881602764129638671875" lon="-1.3884148187935352325439453125">
        <ele>548.5999755859375</ele>
        <time>2020-08-22T08:21:19.000Z</time>
      </trkpt>
      <trkpt lat="43.13380890525877475738525390625" lon="-1.38836947269737720489501953125">
        <ele>549</ele>
        <time>2020-08-22T08:21:22.000Z</time>
      </trkpt>
      <trkpt lat="43.1337697617709636688232421875" lon="-1.3883078657090663909912109375">
        <ele>549.79998779296875</ele>
        <time>2020-08-22T08:21:26.000Z</time>
      </trkpt>
      <trkpt lat="43.13375987112522125244140625" lon="-1.38829001225531101226806640625">
        <ele>550</ele>
        <time>2020-08-22T08:21:27.000Z</time>
      </trkpt>
      <trkpt lat="43.13369675539433956146240234375" lon="-1.3881952129304409027099609375">
        <ele>550.79998779296875</ele>
        <time>2020-08-22T08:21:33.000Z</time>
      </trkpt>
      <trkpt lat="43.1336872838437557220458984375" lon="-1.38817660510540008544921875">
        <ele>550.79998779296875</ele>
        <time>2020-08-22T08:21:34.000Z</time>
      </trkpt>
      <trkpt lat="43.13366104848682880401611328125" lon="-1.38809219934046268463134765625">
        <ele>551.5999755859375</ele>
        <time>2020-08-22T08:21:38.000Z</time>
      </trkpt>
      <trkpt lat="43.13365568406879901885986328125" lon="-1.38806755654513835906982421875">
        <ele>551.5999755859375</ele>
        <time>2020-08-22T08:21:39.000Z</time>
      </trkpt>
      <trkpt lat="43.13362366519868373870849609375" lon="-1.387961693108081817626953125">
        <ele>552.5999755859375</ele>
        <time>2020-08-22T08:21:44.000Z</time>
      </trkpt>
      <trkpt lat="43.1336162053048610687255859375" lon="-1.3879420794546604156494140625">
        <ele>552.79998779296875</ele>
        <time>2020-08-22T08:21:45.000Z</time>
      </trkpt>
      <trkpt lat="43.13358007930219173431396484375" lon="-1.3878448493778705596923828125">
        <ele>553.5999755859375</ele>
        <time>2020-08-22T08:21:50.000Z</time>
      </trkpt>
      <trkpt lat="43.13357655890285968780517578125" lon="-1.3878218829631805419921875">
        <ele>553.79998779296875</ele>
        <time>2020-08-22T08:21:51.000Z</time>
      </trkpt>
      <trkpt lat="43.1335535086691379547119140625" lon="-1.38766639865934848785400390625">
        <ele>554.79998779296875</ele>
        <time>2020-08-22T08:21:57.000Z</time>
      </trkpt>
      <trkpt lat="43.13348066993057727813720703125" lon="-1.387516446411609649658203125">
        <ele>555.4000244140625</ele>
        <time>2020-08-22T08:22:04.000Z</time>
      </trkpt>
      <trkpt lat="43.13338838517665863037109375" lon="-1.38739549554884433746337890625">
        <ele>555.5999755859375</ele>
        <time>2020-08-22T08:22:10.000Z</time>
      </trkpt>
      <trkpt lat="43.13325184397399425506591796875" lon="-1.38730027712881565093994140625">
        <ele>555.20001220703125</ele>
        <time>2020-08-22T08:22:16.000Z</time>
      </trkpt>
      <trkpt lat="43.13321446068584918975830078125" lon="-1.387234143912792205810546875">
        <ele>555</ele>
        <time>2020-08-22T08:22:18.000Z</time>
      </trkpt>
      <trkpt lat="43.13322217203676700592041015625" lon="-1.3871558569371700286865234375">
        <ele>554.79998779296875</ele>
        <time>2020-08-22T08:22:20.000Z</time>
      </trkpt>
      <trkpt lat="43.13327766023576259613037109375" lon="-1.38714236207306385040283203125">
        <ele>554.79998779296875</ele>
        <time>2020-08-22T08:22:23.000Z</time>
      </trkpt>
      <trkpt lat="43.13337136991322040557861328125" lon="-1.3872219063341617584228515625">
        <ele>555.5999755859375</ele>
        <time>2020-08-22T08:22:29.000Z</time>
      </trkpt>
      <trkpt lat="43.13338570296764373779296875" lon="-1.38723121024668216705322265625">
        <ele>556.20001220703125</ele>
        <time>2020-08-22T08:22:30.000Z</time>
      </trkpt>
      <trkpt lat="43.13342484645545482635498046875" lon="-1.3872639834880828857421875">
        <ele>556.79998779296875</ele>
        <time>2020-08-22T08:22:33.000Z</time>
      </trkpt>
      <trkpt lat="43.13347631134092807769775390625" lon="-1.3873087428510189056396484375">
        <ele>557.79998779296875</ele>
        <time>2020-08-22T08:22:37.000Z</time>
      </trkpt>
      <trkpt lat="43.1334898062050342559814453125" lon="-1.38731771148741245269775390625">
        <ele>558.20001220703125</ele>
        <time>2020-08-22T08:22:38.000Z</time>
      </trkpt>
      <trkpt lat="43.13355308957397937774658203125" lon="-1.387370266020298004150390625">
        <ele>559.20001220703125</ele>
        <time>2020-08-22T08:22:43.000Z</time>
      </trkpt>
      <trkpt lat="43.133576810359954833984375" lon="-1.38738879002630710601806640625">
        <ele>559.79998779296875</ele>
        <time>2020-08-22T08:22:45.000Z</time>
      </trkpt>
      <trkpt lat="43.13361075706779956817626953125" lon="-1.387419216334819793701171875">
        <ele>560.5999755859375</ele>
        <time>2020-08-22T08:22:48.000Z</time>
      </trkpt>
      <trkpt lat="43.13366188667714595794677734375" lon="-1.387467496097087860107421875">
        <ele>561.79998779296875</ele>
        <time>2020-08-22T08:22:53.000Z</time>
      </trkpt>
      <trkpt lat="43.13366976566612720489501953125" lon="-1.387478895485401153564453125">
        <ele>562.20001220703125</ele>
        <time>2020-08-22T08:22:54.000Z</time>
      </trkpt>
      <trkpt lat="43.13369390554726123809814453125" lon="-1.387517452239990234375">
        <ele>563</ele>
        <time>2020-08-22T08:22:57.000Z</time>
      </trkpt>
      <trkpt lat="43.13372642733156681060791015625" lon="-1.38755458407104015350341796875">
        <ele>564.20001220703125</ele>
        <time>2020-08-22T08:23:00.000Z</time>
      </trkpt>
      <trkpt lat="43.13375241123139858245849609375" lon="-1.3875947333872318267822265625">
        <ele>565.20001220703125</ele>
        <time>2020-08-22T08:23:03.000Z</time>
      </trkpt>
      <trkpt lat="43.13379650004208087921142578125" lon="-1.38763488270342350006103515625">
        <ele>566.20001220703125</ele>
        <time>2020-08-22T08:23:07.000Z</time>
      </trkpt>
      <trkpt lat="43.133807480335235595703125" lon="-1.387643516063690185546875">
        <ele>566.4000244140625</ele>
        <time>2020-08-22T08:23:08.000Z</time>
      </trkpt>
      <trkpt lat="43.1338535808026790618896484375" lon="-1.38770864345133304595947265625">
        <ele>567.5999755859375</ele>
        <time>2020-08-22T08:23:13.000Z</time>
      </trkpt>
      <trkpt lat="43.13389607705175876617431640625" lon="-1.38773948885500431060791015625">
        <ele>568.79998779296875</ele>
        <time>2020-08-22T08:23:17.000Z</time>
      </trkpt>
      <trkpt lat="43.13393044285476207733154296875" lon="-1.38776756823062896728515625">
        <ele>569.5999755859375</ele>
        <time>2020-08-22T08:23:20.000Z</time>
      </trkpt>
      <trkpt lat="43.13393932767212390899658203125" lon="-1.387779973447322845458984375">
        <ele>569.79998779296875</ele>
        <time>2020-08-22T08:23:21.000Z</time>
      </trkpt>
      <trkpt lat="43.133999593555927276611328125" lon="-1.3878111541271209716796875">
        <ele>571</ele>
        <time>2020-08-22T08:23:26.000Z</time>
      </trkpt>
      <trkpt lat="43.134013004601001739501953125" lon="-1.387816183269023895263671875">
        <ele>571.20001220703125</ele>
        <time>2020-08-22T08:23:27.000Z</time>
      </trkpt>
      <trkpt lat="43.13406052999198436737060546875" lon="-1.38782800175249576568603515625">
        <ele>572.20001220703125</ele>
        <time>2020-08-22T08:23:31.000Z</time>
      </trkpt>
      <trkpt lat="43.13409707508981227874755859375" lon="-1.3878482021391391754150390625">
        <ele>572.79998779296875</ele>
        <time>2020-08-22T08:23:34.000Z</time>
      </trkpt>
      <trkpt lat="43.1341218017041683197021484375" lon="-1.38784728012979030609130859375">
        <ele>573.20001220703125</ele>
        <time>2020-08-22T08:23:36.000Z</time>
      </trkpt>
      <trkpt lat="43.13416429795324802398681640625" lon="-1.3878465257585048675537109375">
        <ele>574.20001220703125</ele>
        <time>2020-08-22T08:23:40.000Z</time>
      </trkpt>
      <trkpt lat="43.1341737695038318634033203125" lon="-1.3878522254526615142822265625">
        <ele>574.5999755859375</ele>
        <time>2020-08-22T08:23:41.000Z</time>
      </trkpt>
      <trkpt lat="43.13423085026443004608154296875" lon="-1.3878715038299560546875">
        <ele>575.4000244140625</ele>
        <time>2020-08-22T08:23:47.000Z</time>
      </trkpt>
      <trkpt lat="43.1342404894530773162841796875" lon="-1.38787594623863697052001953125">
        <ele>575.4000244140625</ele>
        <time>2020-08-22T08:23:48.000Z</time>
      </trkpt>
      <trkpt lat="43.13430226407945156097412109375" lon="-1.38791969977319240570068359375">
        <ele>576.20001220703125</ele>
        <time>2020-08-22T08:23:54.000Z</time>
      </trkpt>
      <trkpt lat="43.1343152560293674468994140625" lon="-1.3879233039915561676025390625">
        <ele>576.4000244140625</ele>
        <time>2020-08-22T08:23:55.000Z</time>
      </trkpt>
      <trkpt lat="43.1343742646276950836181640625" lon="-1.38795264065265655517578125">
        <ele>577.20001220703125</ele>
        <time>2020-08-22T08:24:00.000Z</time>
      </trkpt>
      <trkpt lat="43.1343973986804485321044921875" lon="-1.38796093873679637908935546875">
        <ele>577.5999755859375</ele>
        <time>2020-08-22T08:24:02.000Z</time>
      </trkpt>
      <trkpt lat="43.13444207422435283660888671875" lon="-1.387995220720767974853515625">
        <ele>578.4000244140625</ele>
        <time>2020-08-22T08:24:06.000Z</time>
      </trkpt>
      <trkpt lat="43.134485073387622833251953125" lon="-1.38802983798086643218994140625">
        <ele>579</ele>
        <time>2020-08-22T08:24:10.000Z</time>
      </trkpt>
      <trkpt lat="43.134516589343547821044921875" lon="-1.38806663453578948974609375">
        <ele>579.4000244140625</ele>
        <time>2020-08-22T08:24:13.000Z</time>
      </trkpt>
      <trkpt lat="43.1345553137362003326416015625" lon="-1.38810007832944393157958984375">
        <ele>579.79998779296875</ele>
        <time>2020-08-22T08:24:16.000Z</time>
      </trkpt>
      <trkpt lat="43.13460703007876873016357421875" lon="-1.3881482742726802825927734375">
        <ele>580.4000244140625</ele>
        <time>2020-08-22T08:24:20.000Z</time>
      </trkpt>
      <trkpt lat="43.13468414358794689178466796875" lon="-1.388225220143795013427734375">
        <ele>581.20001220703125</ele>
        <time>2020-08-22T08:24:26.000Z</time>
      </trkpt>
      <trkpt lat="43.134715072810649871826171875" lon="-1.38825614936649799346923828125">
        <ele>581.5999755859375</ele>
        <time>2020-08-22T08:24:28.000Z</time>
      </trkpt>
      <trkpt lat="43.1347863189876079559326171875" lon="-1.38832991011440753936767578125">
        <ele>582.20001220703125</ele>
        <time>2020-08-22T08:24:33.000Z</time>
      </trkpt>
      <trkpt lat="43.13481121324002742767333984375" lon="-1.38835740275681018829345703125">
        <ele>582.5999755859375</ele>
        <time>2020-08-22T08:24:35.000Z</time>
      </trkpt>
      <trkpt lat="43.13487005420029163360595703125" lon="-1.3884429819881916046142578125">
        <ele>583.4000244140625</ele>
        <time>2020-08-22T08:24:40.000Z</time>
      </trkpt>
      <trkpt lat="43.1349058449268341064453125" lon="-1.3884924352169036865234375">
        <ele>583.4000244140625</ele>
        <time>2020-08-22T08:24:43.000Z</time>
      </trkpt>
      <trkpt lat="43.13497616909444332122802734375" lon="-1.38858354650437831878662109375">
        <ele>584.4000244140625</ele>
        <time>2020-08-22T08:24:49.000Z</time>
      </trkpt>
      <trkpt lat="43.13498656265437602996826171875" lon="-1.388600058853626251220703125">
        <ele>584.5999755859375</ele>
        <time>2020-08-22T08:24:50.000Z</time>
      </trkpt>
      <trkpt lat="43.13502729870378971099853515625" lon="-1.38867306523025035858154296875">
        <ele>585.5999755859375</ele>
        <time>2020-08-22T08:24:54.000Z</time>
      </trkpt>
      <trkpt lat="43.13505001366138458251953125" lon="-1.3887123763561248779296875">
        <ele>585.79998779296875</ele>
        <time>2020-08-22T08:24:56.000Z</time>
      </trkpt>
      <trkpt lat="43.13509250991046428680419921875" lon="-1.38879627920687198638916015625">
        <ele>586.5999755859375</ele>
        <time>2020-08-22T08:25:01.000Z</time>
      </trkpt>
      <trkpt lat="43.13510240055620670318603515625" lon="-1.3888124562799930572509765625">
        <ele>586.79998779296875</ele>
        <time>2020-08-22T08:25:02.000Z</time>
      </trkpt>
      <trkpt lat="43.135144226253032684326171875" lon="-1.3888684473931789398193359375">
        <ele>587.79998779296875</ele>
        <time>2020-08-22T08:25:06.000Z</time>
      </trkpt>
      <trkpt lat="43.13517381437122821807861328125" lon="-1.38893164694309234619140625">
        <ele>588.79998779296875</ele>
        <time>2020-08-22T08:25:10.000Z</time>
      </trkpt>
      <trkpt lat="43.135178424417972564697265625" lon="-1.3889469020068645477294921875">
        <ele>589</ele>
        <time>2020-08-22T08:25:11.000Z</time>
      </trkpt>
      <trkpt lat="43.1352250277996063232421875" lon="-1.38904069550335407257080078125">
        <ele>589.4000244140625</ele>
        <time>2020-08-22T08:25:16.000Z</time>
      </trkpt>
      <trkpt lat="43.1352342478930950164794921875" lon="-1.38905930332839488983154296875">
        <ele>589.4000244140625</ele>
        <time>2020-08-22T08:25:17.000Z</time>
      </trkpt>
      <trkpt lat="43.13526266254484653472900390625" lon="-1.38912635855376720428466796875">
        <ele>589.79998779296875</ele>
        <time>2020-08-22T08:25:21.000Z</time>
      </trkpt>
      <trkpt lat="43.1352781690657138824462890625" lon="-1.38917715288698673248291015625">
        <ele>590</ele>
        <time>2020-08-22T08:25:24.000Z</time>
      </trkpt>
      <trkpt lat="43.1352801807224750518798828125" lon="-1.38919207267463207244873046875">
        <ele>590</ele>
        <time>2020-08-22T08:25:25.000Z</time>
      </trkpt>
      <trkpt lat="43.13529183156788349151611328125" lon="-1.3892281986773014068603515625">
        <ele>590</ele>
        <time>2020-08-22T08:25:27.000Z</time>
      </trkpt>
      <trkpt lat="43.1353080086410045623779296875" lon="-1.38933137990534305572509765625">
        <ele>590.79998779296875</ele>
        <time>2020-08-22T08:25:33.000Z</time>
      </trkpt>
      <trkpt lat="43.1353133730590343475341796875" lon="-1.38935602270066738128662109375">
        <ele>591</ele>
        <time>2020-08-22T08:25:34.000Z</time>
      </trkpt>
      <trkpt lat="43.13533340580761432647705078125" lon="-1.3894768059253692626953125">
        <ele>592</ele>
        <time>2020-08-22T08:25:40.000Z</time>
      </trkpt>
      <trkpt lat="43.135343380272388458251953125" lon="-1.38951946981251239776611328125">
        <ele>592.4000244140625</ele>
        <time>2020-08-22T08:25:42.000Z</time>
      </trkpt>
      <trkpt lat="43.13536525703966617584228515625" lon="-1.3896298594772815704345703125">
        <ele>593</ele>
        <time>2020-08-22T08:25:47.000Z</time>
      </trkpt>
      <trkpt lat="43.13537590205669403076171875" lon="-1.38965190388262271881103515625">
        <ele>593.20001220703125</ele>
        <time>2020-08-22T08:25:48.000Z</time>
      </trkpt>
      <trkpt lat="43.1353995390236377716064453125" lon="-1.389737986028194427490234375">
        <ele>594</ele>
        <time>2020-08-22T08:25:51.000Z</time>
      </trkpt>
      <trkpt lat="43.13541345298290252685546875" lon="-1.38983664102852344512939453125">
        <ele>594.4000244140625</ele>
        <time>2020-08-22T08:25:55.000Z</time>
      </trkpt>
      <trkpt lat="43.1354139558970928192138671875" lon="-1.3898441009223461151123046875">
        <ele>594.79998779296875</ele>
        <time>2020-08-22T08:25:56.000Z</time>
      </trkpt>
      <trkpt lat="43.13540766946971416473388671875" lon="-1.38990101404488086700439453125">
        <ele>594</ele>
        <time>2020-08-22T08:30:03.000Z</time>
      </trkpt>
      <trkpt lat="43.13542007468640804290771484375" lon="-1.38993638567626476287841796875">
        <ele>593.5999755859375</ele>
        <time>2020-08-22T08:30:08.000Z</time>
      </trkpt>
      <trkpt lat="43.13543633557856082916259765625" lon="-1.38998114503920078277587890625">
        <ele>593.79998779296875</ele>
        <time>2020-08-22T08:30:11.000Z</time>
      </trkpt>
      <trkpt lat="43.1354583799839019775390625" lon="-1.39002774842083454132080078125">
        <ele>594.4000244140625</ele>
        <time>2020-08-22T08:30:14.000Z</time>
      </trkpt>
      <trkpt lat="43.1354793347418308258056640625" lon="-1.39006814919412136077880859375">
        <ele>595</ele>
        <time>2020-08-22T08:30:17.000Z</time>
      </trkpt>
      <trkpt lat="43.1355105154216289520263671875" lon="-1.39013872481882572174072265625">
        <ele>596</ele>
        <time>2020-08-22T08:30:21.000Z</time>
      </trkpt>
      <trkpt lat="43.135539852082729339599609375" lon="-1.39024316333234310150146484375">
        <ele>597.20001220703125</ele>
        <time>2020-08-22T08:30:26.000Z</time>
      </trkpt>
      <trkpt lat="43.13555703498423099517822265625" lon="-1.39032044447958469390869140625">
        <ele>598.4000244140625</ele>
        <time>2020-08-22T08:30:30.000Z</time>
      </trkpt>
      <trkpt lat="43.13556457869708538055419921875" lon="-1.390375681221485137939453125">
        <ele>599.20001220703125</ele>
        <time>2020-08-22T08:30:33.000Z</time>
      </trkpt>
      <trkpt lat="43.13558402471244335174560546875" lon="-1.3904449157416820526123046875">
        <ele>600.4000244140625</ele>
        <time>2020-08-22T08:30:37.000Z</time>
      </trkpt>
      <trkpt lat="43.1355862878262996673583984375" lon="-1.39046193100512027740478515625">
        <ele>600.79998779296875</ele>
        <time>2020-08-22T08:30:38.000Z</time>
      </trkpt>
      <trkpt lat="43.1355852819979190826416015625" lon="-1.39051473699510097503662109375">
        <ele>601.79998779296875</ele>
        <time>2020-08-22T08:30:41.000Z</time>
      </trkpt>
      <trkpt lat="43.1355916522443294525146484375" lon="-1.3905786909162998199462890625">
        <ele>602.79998779296875</ele>
        <time>2020-08-22T08:30:45.000Z</time>
      </trkpt>
      <trkpt lat="43.13560296781361103057861328125" lon="-1.39064515940845012664794921875">
        <ele>604</ele>
        <time>2020-08-22T08:30:49.000Z</time>
      </trkpt>
      <trkpt lat="43.1356139481067657470703125" lon="-1.3907463289797306060791015625">
        <ele>605</ele>
        <time>2020-08-22T08:30:55.000Z</time>
      </trkpt>
      <trkpt lat="43.13562576659023761749267578125" lon="-1.390843056142330169677734375">
        <ele>606.20001220703125</ele>
        <time>2020-08-22T08:31:01.000Z</time>
      </trkpt>
      <trkpt lat="43.1356285326182842254638671875" lon="-1.39088789932429790496826171875">
        <ele>606.79998779296875</ele>
        <time>2020-08-22T08:31:04.000Z</time>
      </trkpt>
      <trkpt lat="43.13562828116118907928466796875" lon="-1.39095000922679901123046875">
        <ele>607.20001220703125</ele>
        <time>2020-08-22T08:31:08.000Z</time>
      </trkpt>
      <trkpt lat="43.1356305442750453948974609375" lon="-1.3910003006458282470703125">
        <ele>608</ele>
        <time>2020-08-22T08:31:11.000Z</time>
      </trkpt>
      <trkpt lat="43.13562476076185703277587890625" lon="-1.39104480855166912078857421875">
        <ele>608.4000244140625</ele>
        <time>2020-08-22T08:31:14.000Z</time>
      </trkpt>
      <trkpt lat="43.13562325201928615570068359375" lon="-1.3911290466785430908203125">
        <ele>609</ele>
        <time>2020-08-22T08:31:19.000Z</time>
      </trkpt>
      <trkpt lat="43.1356261856853961944580078125" lon="-1.39115989208221435546875">
        <ele>609.5999755859375</ele>
        <time>2020-08-22T08:31:21.000Z</time>
      </trkpt>
      <trkpt lat="43.13562258146703243255615234375" lon="-1.39122686348855495452880859375">
        <ele>610.5999755859375</ele>
        <time>2020-08-22T08:31:25.000Z</time>
      </trkpt>
      <trkpt lat="43.13562174327671527862548828125" lon="-1.3912428729236125946044921875">
        <ele>610.79998779296875</ele>
        <time>2020-08-22T08:31:26.000Z</time>
      </trkpt>
      <trkpt lat="43.13560917042195796966552734375" lon="-1.391323171555995941162109375">
        <ele>611.5999755859375</ele>
        <time>2020-08-22T08:31:31.000Z</time>
      </trkpt>
      <trkpt lat="43.135597519576549530029296875" lon="-1.3913662545382976531982421875">
        <ele>612.4000244140625</ele>
        <time>2020-08-22T08:31:34.000Z</time>
      </trkpt>
      <trkpt lat="43.1355896405875682830810546875" lon="-1.39139584265649318695068359375">
        <ele>612.79998779296875</ele>
        <time>2020-08-22T08:31:36.000Z</time>
      </trkpt>
      <trkpt lat="43.13558243215084075927734375" lon="-1.391472034156322479248046875">
        <ele>613.79998779296875</ele>
        <time>2020-08-22T08:31:41.000Z</time>
      </trkpt>
      <trkpt lat="43.13556969165802001953125" lon="-1.3915486447513103485107421875">
        <ele>615</ele>
        <time>2020-08-22T08:31:46.000Z</time>
      </trkpt>
      <trkpt lat="43.13556239940226078033447265625" lon="-1.39161461032927036285400390625">
        <ele>616</ele>
        <time>2020-08-22T08:31:50.000Z</time>
      </trkpt>
      <trkpt lat="43.13554094173014163970947265625" lon="-1.3917486369609832763671875">
        <ele>617.20001220703125</ele>
        <time>2020-08-22T08:31:58.000Z</time>
      </trkpt>
      <trkpt lat="43.135525770485401153564453125" lon="-1.39184377156198024749755859375">
        <ele>618</ele>
        <time>2020-08-22T08:32:04.000Z</time>
      </trkpt>
      <trkpt lat="43.1355245970189571380615234375" lon="-1.39186036773025989532470703125">
        <ele>618.20001220703125</ele>
        <time>2020-08-22T08:32:05.000Z</time>
      </trkpt>
      <trkpt lat="43.135518729686737060546875" lon="-1.39192339964210987091064453125">
        <ele>619.4000244140625</ele>
        <time>2020-08-22T08:32:09.000Z</time>
      </trkpt>
      <trkpt lat="43.1355259381234645843505859375" lon="-1.39198944903910160064697265625">
        <ele>620</ele>
        <time>2020-08-22T08:32:13.000Z</time>
      </trkpt>
      <trkpt lat="43.13554479740560054779052734375" lon="-1.39201409183442592620849609375">
        <ele>620.4000244140625</ele>
        <time>2020-08-22T08:32:15.000Z</time>
      </trkpt>
      <trkpt lat="43.13558335416018962860107421875" lon="-1.3920195400714874267578125">
        <ele>620.79998779296875</ele>
        <time>2020-08-22T08:32:18.000Z</time>
      </trkpt>
      <trkpt lat="43.135616295039653778076171875" lon="-1.39199213124811649322509765625">
        <ele>621.4000244140625</ele>
        <time>2020-08-22T08:32:21.000Z</time>
      </trkpt>
      <trkpt lat="43.13564001582562923431396484375" lon="-1.39194552786648273468017578125">
        <ele>622.20001220703125</ele>
        <time>2020-08-22T08:32:24.000Z</time>
      </trkpt>
      <trkpt lat="43.1356483139097690582275390625" lon="-1.3919291831552982330322265625">
        <ele>622.5999755859375</ele>
        <time>2020-08-22T08:32:25.000Z</time>
      </trkpt>
      <trkpt lat="43.1356999464333057403564453125" lon="-1.39183857478201389312744140625">
        <ele>623.5999755859375</ele>
        <time>2020-08-22T08:32:31.000Z</time>
      </trkpt>
      <trkpt lat="43.1357294507324695587158203125" lon="-1.39179758727550506591796875">
        <ele>624</ele>
        <time>2020-08-22T08:32:34.000Z</time>
      </trkpt>
      <trkpt lat="43.135756440460681915283203125" lon="-1.391756348311901092529296875">
        <ele>624.5999755859375</ele>
        <time>2020-08-22T08:32:37.000Z</time>
      </trkpt>
      <trkpt lat="43.13580430112779140472412109375" lon="-1.391702033579349517822265625">
        <ele>625.20001220703125</ele>
        <time>2020-08-22T08:32:42.000Z</time>
      </trkpt>
      <trkpt lat="43.13583866693079471588134765625" lon="-1.39168501831591129302978515625">
        <ele>625.79998779296875</ele>
        <time>2020-08-22T08:32:45.000Z</time>
      </trkpt>
      <trkpt lat="43.13588929362595081329345703125" lon="-1.3916391693055629730224609375">
        <ele>626.79998779296875</ele>
        <time>2020-08-22T08:32:50.000Z</time>
      </trkpt>
      <trkpt lat="43.1359165348112583160400390625" lon="-1.39160186983644962310791015625">
        <ele>626.4000244140625</ele>
        <time>2020-08-22T08:32:57.000Z</time>
      </trkpt>
      <trkpt lat="43.1359135173261165618896484375" lon="-1.39160237275063991546630859375">
        <ele>626.20001220703125</ele>
        <time>2020-08-22T08:33:11.000Z</time>
      </trkpt>
      <trkpt lat="43.135916031897068023681640625" lon="-1.391600780189037322998046875">
        <ele>626.20001220703125</ele>
        <time>2020-08-22T08:33:31.000Z</time>
      </trkpt>
      <trkpt lat="43.13593170605599880218505859375" lon="-1.391584686934947967529296875">
        <ele>626.20001220703125</ele>
        <time>2020-08-22T08:33:33.000Z</time>
      </trkpt>
      <trkpt lat="43.13595232553780078887939453125" lon="-1.39156549237668514251708984375">
        <ele>626.4000244140625</ele>
        <time>2020-08-22T08:33:39.000Z</time>
      </trkpt>
      <trkpt lat="43.135952241718769073486328125" lon="-1.39156783930957317352294921875">
        <ele>626.4000244140625</ele>
        <time>2020-08-22T08:33:54.000Z</time>
      </trkpt>
      <trkpt lat="43.13595199026167392730712890625" lon="-1.39156716875731945037841796875">
        <ele>626.20001220703125</ele>
        <time>2020-08-22T08:34:28.000Z</time>
      </trkpt>
      <trkpt lat="43.1359520740807056427001953125" lon="-1.3915674202144145965576171875">
        <ele>626.5999755859375</ele>
        <time>2020-08-22T08:34:32.000Z</time>
      </trkpt>
      <trkpt lat="43.1359520740807056427001953125" lon="-1.39156633056700229644775390625">
        <ele>626.4000244140625</ele>
        <time>2020-08-22T08:34:43.000Z</time>
      </trkpt>
      <trkpt lat="43.135978393256664276123046875" lon="-1.39154202304780483245849609375">
        <ele>626.4000244140625</ele>
        <time>2020-08-22T08:34:57.000Z</time>
      </trkpt>
      <trkpt lat="43.13607721589505672454833984375" lon="-1.3914339803159236907958984375">
        <ele>626.79998779296875</ele>
        <time>2020-08-22T08:35:06.000Z</time>
      </trkpt>
      <trkpt lat="43.13613764941692352294921875" lon="-1.391336582601070404052734375">
        <ele>626.79998779296875</ele>
        <time>2020-08-22T08:35:11.000Z</time>
      </trkpt>
      <trkpt lat="43.136173188686370849609375" lon="-1.39126927591860294342041015625">
        <ele>627</ele>
        <time>2020-08-22T08:35:14.000Z</time>
      </trkpt>
      <trkpt lat="43.13626371324062347412109375" lon="-1.39105235226452350616455078125">
        <ele>627.20001220703125</ele>
        <time>2020-08-22T08:35:23.000Z</time>
      </trkpt>
      <trkpt lat="43.13633973710238933563232421875" lon="-1.3908227719366550445556640625">
        <ele>627.79998779296875</ele>
        <time>2020-08-22T08:35:32.000Z</time>
      </trkpt>
      <trkpt lat="43.13635130412876605987548828125" lon="-1.39076937921345233917236328125">
        <ele>628</ele>
        <time>2020-08-22T08:35:34.000Z</time>
      </trkpt>
      <trkpt lat="43.13638114370405673980712890625" lon="-1.39058061875402927398681640625">
        <ele>628.5999755859375</ele>
        <time>2020-08-22T08:35:41.000Z</time>
      </trkpt>
      <trkpt lat="43.13639304600656032562255859375" lon="-1.390449106693267822265625">
        <ele>629</ele>
        <time>2020-08-22T08:35:46.000Z</time>
      </trkpt>
      <trkpt lat="43.136395476758480072021484375" lon="-1.39036738313734531402587890625">
        <ele>629.4000244140625</ele>
        <time>2020-08-22T08:35:49.000Z</time>
      </trkpt>
      <trkpt lat="43.13640276901423931121826171875" lon="-1.3901562429964542388916015625">
        <ele>630</ele>
        <time>2020-08-22T08:35:57.000Z</time>
      </trkpt>
      <trkpt lat="43.13640184700489044189453125" lon="-1.390079297125339508056640625">
        <ele>630.5999755859375</ele>
        <time>2020-08-22T08:36:00.000Z</time>
      </trkpt>
      <trkpt lat="43.1363946385681629180908203125" lon="-1.39000612311065196990966796875">
        <ele>631</ele>
        <time>2020-08-22T08:36:03.000Z</time>
      </trkpt>
      <trkpt lat="43.13639623112976551055908203125" lon="-1.389931775629520416259765625">
        <ele>631.79998779296875</ele>
        <time>2020-08-22T08:36:06.000Z</time>
      </trkpt>
      <trkpt lat="43.13639782369136810302734375" lon="-1.38990788720548152923583984375">
        <ele>632.20001220703125</ele>
        <time>2020-08-22T08:36:07.000Z</time>
      </trkpt>
      <trkpt lat="43.13638231717050075531005859375" lon="-1.38976321555674076080322265625">
        <ele>632.5999755859375</ele>
        <time>2020-08-22T08:36:13.000Z</time>
      </trkpt>
      <trkpt lat="43.13637292943894863128662109375" lon="-1.38957403600215911865234375">
        <ele>633.20001220703125</ele>
        <time>2020-08-22T08:36:21.000Z</time>
      </trkpt>
      <trkpt lat="43.1363765336573123931884765625" lon="-1.38952751643955707550048828125">
        <ele>633.4000244140625</ele>
        <time>2020-08-22T08:36:23.000Z</time>
      </trkpt>
      <trkpt lat="43.13638508319854736328125" lon="-1.38936406932771205902099609375">
        <ele>634.4000244140625</ele>
        <time>2020-08-22T08:36:30.000Z</time>
      </trkpt>
      <trkpt lat="43.13639187254011631011962890625" lon="-1.38934227637946605682373046875">
        <ele>634.4000244140625</ele>
        <time>2020-08-22T08:36:31.000Z</time>
      </trkpt>
      <trkpt lat="43.13640796579420566558837890625" lon="-1.38930221088230609893798828125">
        <ele>634.5999755859375</ele>
        <time>2020-08-22T08:36:33.000Z</time>
      </trkpt>
      <trkpt lat="43.136465884745121002197265625" lon="-1.38921705074608325958251953125">
        <ele>635.4000244140625</ele>
        <time>2020-08-22T08:36:38.000Z</time>
      </trkpt>
      <trkpt lat="43.136533610522747039794921875" lon="-1.3891685195267200469970703125">
        <ele>636.5999755859375</ele>
        <time>2020-08-22T08:36:43.000Z</time>
      </trkpt>
      <trkpt lat="43.13657375983893871307373046875" lon="-1.38915603049099445343017578125">
        <ele>637.5999755859375</ele>
        <time>2020-08-22T08:36:46.000Z</time>
      </trkpt>
      <trkpt lat="43.1365870870649814605712890625" lon="-1.38915569521486759185791015625">
        <ele>637.79998779296875</ele>
        <time>2020-08-22T08:36:47.000Z</time>
      </trkpt>
      <trkpt lat="43.13668959774076938629150390625" lon="-1.3891879655420780181884765625">
        <ele>638.5999755859375</ele>
        <time>2020-08-22T08:36:54.000Z</time>
      </trkpt>
      <trkpt lat="43.1367195211350917816162109375" lon="-1.38919542543590068817138671875">
        <ele>639</ele>
        <time>2020-08-22T08:36:56.000Z</time>
      </trkpt>
      <trkpt lat="43.136794455349445343017578125" lon="-1.389224343001842498779296875">
        <ele>640</ele>
        <time>2020-08-22T08:37:01.000Z</time>
      </trkpt>
      <trkpt lat="43.136852793395519256591796875" lon="-1.38924957253038883209228515625">
        <ele>640.5999755859375</ele>
        <time>2020-08-22T08:37:05.000Z</time>
      </trkpt>
      <trkpt lat="43.136943988502025604248046875" lon="-1.38927656225860118865966796875">
        <ele>641.20001220703125</ele>
        <time>2020-08-22T08:37:11.000Z</time>
      </trkpt>
      <trkpt lat="43.1370048411190509796142578125" lon="-1.38929768465459346771240234375">
        <ele>641.5999755859375</ele>
        <time>2020-08-22T08:37:15.000Z</time>
      </trkpt>
      <trkpt lat="43.13704985193908214569091796875" lon="-1.3893157057464122772216796875">
        <ele>642.4000244140625</ele>
        <time>2020-08-22T08:37:18.000Z</time>
      </trkpt>
      <trkpt lat="43.1371563859283924102783203125" lon="-1.3893306255340576171875">
        <ele>643.4000244140625</ele>
        <time>2020-08-22T08:37:25.000Z</time>
      </trkpt>
      <trkpt lat="43.13724297098815441131591796875" lon="-1.389353089034557342529296875">
        <ele>644.5999755859375</ele>
        <time>2020-08-22T08:37:31.000Z</time>
      </trkpt>
      <trkpt lat="43.13728873617947101593017578125" lon="-1.3893673382699489593505859375">
        <ele>645.4000244140625</ele>
        <time>2020-08-22T08:37:34.000Z</time>
      </trkpt>
      <trkpt lat="43.13730415888130664825439453125" lon="-1.38937152922153472900390625">
        <ele>645.5999755859375</ele>
        <time>2020-08-22T08:37:35.000Z</time>
      </trkpt>
      <trkpt lat="43.13738428987562656402587890625" lon="-1.389413438737392425537109375">
        <ele>646.79998779296875</ele>
        <time>2020-08-22T08:37:41.000Z</time>
      </trkpt>
      <trkpt lat="43.1373984552919864654541015625" lon="-1.38941586948931217193603515625">
        <ele>647.20001220703125</ele>
        <time>2020-08-22T08:37:42.000Z</time>
      </trkpt>
      <trkpt lat="43.13743508420884609222412109375" lon="-1.38943850062787532806396484375">
        <ele>647.79998779296875</ele>
        <time>2020-08-22T08:37:45.000Z</time>
      </trkpt>
      <trkpt lat="43.13748319633305072784423828125" lon="-1.38947554863989353179931640625">
        <ele>649</ele>
        <time>2020-08-22T08:37:49.000Z</time>
      </trkpt>
      <trkpt lat="43.13753834925591945648193359375" lon="-1.3895366527140140533447265625">
        <ele>650.20001220703125</ele>
        <time>2020-08-22T08:37:54.000Z</time>
      </trkpt>
      <trkpt lat="43.1375634111464023590087890625" lon="-1.38955526053905487060546875">
        <ele>650.5999755859375</ele>
        <time>2020-08-22T08:37:56.000Z</time>
      </trkpt>
      <trkpt lat="43.1375992856919765472412109375" lon="-1.38959390111267566680908203125">
        <ele>651.5999755859375</ele>
        <time>2020-08-22T08:37:59.000Z</time>
      </trkpt>
      <trkpt lat="43.13765251077711582183837890625" lon="-1.38963916338980197906494140625">
        <ele>652.20001220703125</ele>
        <time>2020-08-22T08:38:03.000Z</time>
      </trkpt>
      <trkpt lat="43.1376787461340427398681640625" lon="-1.3896618783473968505859375">
        <ele>652.5999755859375</ele>
        <time>2020-08-22T08:38:05.000Z</time>
      </trkpt>
      <trkpt lat="43.1377565301954746246337890625" lon="-1.38973186723887920379638671875">
        <ele>653.4000244140625</ele>
        <time>2020-08-22T08:38:11.000Z</time>
      </trkpt>
      <trkpt lat="43.13776918686926364898681640625" lon="-1.38974108733236789703369140625">
        <ele>653.5999755859375</ele>
        <time>2020-08-22T08:38:12.000Z</time>
      </trkpt>
      <trkpt lat="43.1378416903316974639892578125" lon="-1.389799676835536956787109375">
        <ele>654.79998779296875</ele>
        <time>2020-08-22T08:38:18.000Z</time>
      </trkpt>
      <trkpt lat="43.13790195621550083160400390625" lon="-1.3898806460201740264892578125">
        <ele>656</ele>
        <time>2020-08-22T08:38:24.000Z</time>
      </trkpt>
      <trkpt lat="43.13794202171266078948974609375" lon="-1.3899306021630764007568359375">
        <ele>656.5999755859375</ele>
        <time>2020-08-22T08:38:28.000Z</time>
      </trkpt>
      <trkpt lat="43.13796482048928737640380859375" lon="-1.38995197601616382598876953125">
        <ele>657</ele>
        <time>2020-08-22T08:38:30.000Z</time>
      </trkpt>
      <trkpt lat="43.13800287432968616485595703125" lon="-1.3899859227240085601806640625">
        <ele>657.4000244140625</ele>
        <time>2020-08-22T08:38:33.000Z</time>
      </trkpt>
      <trkpt lat="43.13803690485656261444091796875" lon="-1.39002691023051738739013671875">
        <ele>657.5999755859375</ele>
        <time>2020-08-22T08:38:36.000Z</time>
      </trkpt>
      <trkpt lat="43.13805685378611087799072265625" lon="-1.390058510005474090576171875">
        <ele>658.20001220703125</ele>
        <time>2020-08-22T08:38:38.000Z</time>
      </trkpt>
      <trkpt lat="43.1381243281066417694091796875" lon="-1.3901210390031337738037109375">
        <ele>658.4000244140625</ele>
        <time>2020-08-22T08:38:44.000Z</time>
      </trkpt>
      <trkpt lat="43.13819314353168010711669921875" lon="-1.3901616074144840240478515625">
        <ele>659.20001220703125</ele>
        <time>2020-08-22T08:38:49.000Z</time>
      </trkpt>
      <trkpt lat="43.13820705749094486236572265625" lon="-1.39016814529895782470703125">
        <ele>659.4000244140625</ele>
        <time>2020-08-22T08:38:50.000Z</time>
      </trkpt>
      <trkpt lat="43.13829054124653339385986328125" lon="-1.3902063667774200439453125">
        <ele>660.4000244140625</ele>
        <time>2020-08-22T08:38:56.000Z</time>
      </trkpt>
      <trkpt lat="43.13831887207925319671630859375" lon="-1.39021013863384723663330078125">
        <ele>660.79998779296875</ele>
        <time>2020-08-22T08:38:58.000Z</time>
      </trkpt>
      <trkpt lat="43.13839229755103588104248046875" lon="-1.390218771994113922119140625">
        <ele>661.5999755859375</ele>
        <time>2020-08-22T08:39:03.000Z</time>
      </trkpt>
      <trkpt lat="43.13845105469226837158203125" lon="-1.3902278244495391845703125">
        <ele>662.20001220703125</ele>
        <time>2020-08-22T08:39:07.000Z</time>
      </trkpt>
      <trkpt lat="43.13848198391497135162353515625" lon="-1.39023176394402980804443359375">
        <ele>662.5999755859375</ele>
        <time>2020-08-22T08:39:09.000Z</time>
      </trkpt>
      <trkpt lat="43.13855373300611972808837890625" lon="-1.390250623226165771484375">
        <ele>663.79998779296875</ele>
        <time>2020-08-22T08:39:14.000Z</time>
      </trkpt>
      <trkpt lat="43.13858206383883953094482421875" lon="-1.3902574963867664337158203125">
        <ele>664.20001220703125</ele>
        <time>2020-08-22T08:39:16.000Z</time>
      </trkpt>
      <trkpt lat="43.13865280710160732269287109375" lon="-1.39026797376573085784912109375">
        <ele>665</ele>
        <time>2020-08-22T08:39:21.000Z</time>
      </trkpt>
      <trkpt lat="43.1386922858655452728271484375" lon="-1.39028356410562992095947265625">
        <ele>665.5999755859375</ele>
        <time>2020-08-22T08:39:24.000Z</time>
      </trkpt>
      <trkpt lat="43.13871952705085277557373046875" lon="-1.3902977295219898223876953125">
        <ele>666.20001220703125</ele>
        <time>2020-08-22T08:39:26.000Z</time>
      </trkpt>
      <trkpt lat="43.138790689408779144287109375" lon="-1.3903124816715717315673828125">
        <ele>667.20001220703125</ele>
        <time>2020-08-22T08:39:31.000Z</time>
      </trkpt>
      <trkpt lat="43.13881658948957920074462890625" lon="-1.39032396487891674041748046875">
        <ele>667.5999755859375</ele>
        <time>2020-08-22T08:39:33.000Z</time>
      </trkpt>
      <trkpt lat="43.138840980827808380126953125" lon="-1.3903426565229892730712890625">
        <ele>668.20001220703125</ele>
        <time>2020-08-22T08:39:35.000Z</time>
      </trkpt>
      <trkpt lat="43.13887408934533596038818359375" lon="-1.39037928543984889984130859375">
        <ele>669.20001220703125</ele>
        <time>2020-08-22T08:39:38.000Z</time>
      </trkpt>
      <trkpt lat="43.1388944573700428009033203125" lon="-1.39040878973901271820068359375">
        <ele>669.4000244140625</ele>
        <time>2020-08-22T08:39:40.000Z</time>
      </trkpt>
      <trkpt lat="43.138920105993747711181640625" lon="-1.3904264755547046661376953125">
        <ele>669.5999755859375</ele>
        <time>2020-08-22T08:39:42.000Z</time>
      </trkpt>
      <trkpt lat="43.13896796666085720062255859375" lon="-1.39047316275537014007568359375">
        <ele>670.4000244140625</ele>
        <time>2020-08-22T08:39:46.000Z</time>
      </trkpt>
      <trkpt lat="43.13899897970259189605712890625" lon="-1.3905201852321624755859375">
        <ele>671</ele>
        <time>2020-08-22T08:39:49.000Z</time>
      </trkpt>
      <trkpt lat="43.1390195153653621673583984375" lon="-1.3905498571693897247314453125">
        <ele>671.5999755859375</ele>
        <time>2020-08-22T08:39:51.000Z</time>
      </trkpt>
      <trkpt lat="43.139046169817447662353515625" lon="-1.39060073532164096832275390625">
        <ele>672</ele>
        <time>2020-08-22T08:39:54.000Z</time>
      </trkpt>
      <trkpt lat="43.139079697430133819580078125" lon="-1.39067198149859905242919921875">
        <ele>672.5999755859375</ele>
        <time>2020-08-22T08:39:58.000Z</time>
      </trkpt>
      <trkpt lat="43.13914440572261810302734375" lon="-1.39081732369959354400634765625">
        <ele>673.79998779296875</ele>
        <time>2020-08-22T08:40:06.000Z</time>
      </trkpt>
      <trkpt lat="43.13915873877704143524169921875" lon="-1.39085571281611919403076171875">
        <ele>674</ele>
        <time>2020-08-22T08:40:08.000Z</time>
      </trkpt>
      <trkpt lat="43.139194361865520477294921875" lon="-1.39100122265517711639404296875">
        <ele>674.79998779296875</ele>
        <time>2020-08-22T08:40:15.000Z</time>
      </trkpt>
      <trkpt lat="43.139203749597072601318359375" lon="-1.3910440541803836822509765625">
        <ele>674.79998779296875</ele>
        <time>2020-08-22T08:40:17.000Z</time>
      </trkpt>
      <trkpt lat="43.1392076052725315093994140625" lon="-1.39120305888354778289794921875">
        <ele>675.4000244140625</ele>
        <time>2020-08-22T08:40:24.000Z</time>
      </trkpt>
      <trkpt lat="43.1392136402428150177001953125" lon="-1.39127497561275959014892578125">
        <ele>675.79998779296875</ele>
        <time>2020-08-22T08:40:27.000Z</time>
      </trkpt>
      <trkpt lat="43.139217831194400787353515625" lon="-1.39145116321742534637451171875">
        <ele>676.5999755859375</ele>
        <time>2020-08-22T08:40:34.000Z</time>
      </trkpt>
      <trkpt lat="43.13922084867954254150390625" lon="-1.391474716365337371826171875">
        <ele>676.79998779296875</ele>
        <time>2020-08-22T08:40:35.000Z</time>
      </trkpt>
      <trkpt lat="43.13925563357770442962646484375" lon="-1.39168820343911647796630859375">
        <ele>677.79998779296875</ele>
        <time>2020-08-22T08:40:44.000Z</time>
      </trkpt>
      <trkpt lat="43.139266110956668853759765625" lon="-1.3917084038257598876953125">
        <ele>678.20001220703125</ele>
        <time>2020-08-22T08:40:45.000Z</time>
      </trkpt>
      <trkpt lat="43.1393078528344631195068359375" lon="-1.3918138481676578521728515625">
        <ele>679.20001220703125</ele>
        <time>2020-08-22T08:40:50.000Z</time>
      </trkpt>
      <trkpt lat="43.13931246288120746612548828125" lon="-1.39183723367750644683837890625">
        <ele>679.4000244140625</ele>
        <time>2020-08-22T08:40:51.000Z</time>
      </trkpt>
      <trkpt lat="43.1393475830554962158203125" lon="-1.39195726253092288970947265625">
        <ele>680.4000244140625</ele>
        <time>2020-08-22T08:46:01.000Z</time>
      </trkpt>
      <trkpt lat="43.1393474154174327850341796875" lon="-1.39195776544511318206787109375">
        <ele>680.4000244140625</ele>
        <time>2020-08-22T08:46:03.000Z</time>
      </trkpt>
      <trkpt lat="43.13934884034097194671630859375" lon="-1.3919680751860141754150390625">
        <ele>680.5999755859375</ele>
        <time>2020-08-22T08:46:05.000Z</time>
      </trkpt>
      <trkpt lat="43.13936342485249042510986328125" lon="-1.392013169825077056884765625">
        <ele>680.5999755859375</ele>
        <time>2020-08-22T08:46:08.000Z</time>
      </trkpt>
      <trkpt lat="43.1394205056130886077880859375" lon="-1.39218323864042758941650390625">
        <ele>680.79998779296875</ele>
        <time>2020-08-22T08:46:16.000Z</time>
      </trkpt>
      <trkpt lat="43.13946685753762722015380859375" lon="-1.39235741458833217620849609375">
        <ele>681.4000244140625</ele>
        <time>2020-08-22T08:46:23.000Z</time>
      </trkpt>
      <trkpt lat="43.1394889019429683685302734375" lon="-1.39242656528949737548828125">
        <ele>681.4000244140625</ele>
        <time>2020-08-22T08:46:26.000Z</time>
      </trkpt>
      <trkpt lat="43.13953340984880924224853515625" lon="-1.3925534673035144805908203125">
        <ele>682</ele>
        <time>2020-08-22T08:46:32.000Z</time>
      </trkpt>
      <trkpt lat="43.13957498408854007720947265625" lon="-1.39272018335759639739990234375">
        <ele>682.4000244140625</ele>
        <time>2020-08-22T08:46:39.000Z</time>
      </trkpt>
      <trkpt lat="43.13959292136132717132568359375" lon="-1.39279260300099849700927734375">
        <ele>682.5999755859375</ele>
        <time>2020-08-22T08:46:42.000Z</time>
      </trkpt>
      <trkpt lat="43.139653019607067108154296875" lon="-1.39303869567811489105224609375">
        <ele>682.79998779296875</ele>
        <time>2020-08-22T08:46:52.000Z</time>
      </trkpt>
      <trkpt lat="43.13969953916966915130615234375" lon="-1.3932039029896259307861328125">
        <ele>683.4000244140625</ele>
        <time>2020-08-22T08:46:59.000Z</time>
      </trkpt>
      <trkpt lat="43.139708004891872406005859375" lon="-1.3932246901094913482666015625">
        <ele>683.4000244140625</ele>
        <time>2020-08-22T08:47:00.000Z</time>
      </trkpt>
      <trkpt lat="43.13973021693527698516845703125" lon="-1.39328411780297756195068359375">
        <ele>684</ele>
        <time>2020-08-22T08:47:03.000Z</time>
      </trkpt>
      <trkpt lat="43.139746896922588348388671875" lon="-1.39334212057292461395263671875">
        <ele>684.5999755859375</ele>
        <time>2020-08-22T08:47:06.000Z</time>
      </trkpt>
      <trkpt lat="43.139769695699214935302734375" lon="-1.39337338507175445556640625">
        <ele>684.79998779296875</ele>
        <time>2020-08-22T08:47:08.000Z</time>
      </trkpt>
      <trkpt lat="43.1398124434053897857666015625" lon="-1.3934526778757572174072265625">
        <ele>685.20001220703125</ele>
        <time>2020-08-22T08:47:13.000Z</time>
      </trkpt>
      <trkpt lat="43.13987773843109607696533203125" lon="-1.39353758655488491058349609375">
        <ele>685.4000244140625</ele>
        <time>2020-08-22T08:47:19.000Z</time>
      </trkpt>
      <trkpt lat="43.139891065657138824462890625" lon="-1.3935489021241664886474609375">
        <ele>685.4000244140625</ele>
        <time>2020-08-22T08:47:20.000Z</time>
      </trkpt>
      <trkpt lat="43.1399767287075519561767578125" lon="-1.3936650753021240234375">
        <ele>685</ele>
        <time>2020-08-22T08:47:27.000Z</time>
      </trkpt>
      <trkpt lat="43.14003464765846729278564453125" lon="-1.39378736726939678192138671875">
        <ele>685.20001220703125</ele>
        <time>2020-08-22T08:47:34.000Z</time>
      </trkpt>
      <trkpt lat="43.1400679238140583038330078125" lon="-1.39396673999726772308349609375">
        <ele>685.4000244140625</ele>
        <time>2020-08-22T08:47:41.000Z</time>
      </trkpt>
      <trkpt lat="43.14009524881839752197265625" lon="-1.39422708190977573394775390625">
        <ele>685</ele>
        <time>2020-08-22T08:47:48.000Z</time>
      </trkpt>
      <trkpt lat="43.14010061323642730712890625" lon="-1.39435851015150547027587890625">
        <ele>685</ele>
        <time>2020-08-22T08:47:52.000Z</time>
      </trkpt>
      <trkpt lat="43.1401091627776622772216796875" lon="-1.3944564945995807647705078125">
        <ele>685</ele>
        <time>2020-08-22T08:47:55.000Z</time>
      </trkpt>
      <trkpt lat="43.1401168741285800933837890625" lon="-1.39467350207269191741943359375">
        <ele>685.20001220703125</ele>
        <time>2020-08-22T08:48:02.000Z</time>
      </trkpt>
      <trkpt lat="43.14012768678367137908935546875" lon="-1.39484784565865993499755859375">
        <ele>685.20001220703125</ele>
        <time>2020-08-22T08:48:08.000Z</time>
      </trkpt>
      <trkpt lat="43.1401388347148895263671875" lon="-1.39504867605865001678466796875">
        <ele>685.5999755859375</ele>
        <time>2020-08-22T08:48:14.000Z</time>
      </trkpt>
      <trkpt lat="43.14017781056463718414306640625" lon="-1.39529342763125896453857421875">
        <ele>686.4000244140625</ele>
        <time>2020-08-22T08:48:22.000Z</time>
      </trkpt>
      <trkpt lat="43.14021167345345020294189453125" lon="-1.39548419974744319915771484375">
        <ele>686.4000244140625</ele>
        <time>2020-08-22T08:48:28.000Z</time>
      </trkpt>
      <trkpt lat="43.1402858532965183258056640625" lon="-1.39578334987163543701171875">
        <ele>685.20001220703125</ele>
        <time>2020-08-22T08:48:34.000Z</time>
      </trkpt>
      <trkpt lat="43.14034360460937023162841796875" lon="-1.39597319997847080230712890625">
        <ele>684.4000244140625</ele>
        <time>2020-08-22T08:48:37.000Z</time>
      </trkpt>
      <trkpt lat="43.14040831290185451507568359375" lon="-1.3961560092866420745849609375">
        <ele>684.20001220703125</ele>
        <time>2020-08-22T08:48:40.000Z</time>
      </trkpt>
      <trkpt lat="43.14045659266412258148193359375" lon="-1.396291963756084442138671875">
        <ele>683.5999755859375</ele>
        <time>2020-08-22T08:48:42.000Z</time>
      </trkpt>
      <trkpt lat="43.14050269313156604766845703125" lon="-1.39643487520515918731689453125">
        <ele>683.20001220703125</ele>
        <time>2020-08-22T08:48:44.000Z</time>
      </trkpt>
      <trkpt lat="43.1405250728130340576171875" lon="-1.396510563790798187255859375">
        <ele>683</ele>
        <time>2020-08-22T08:48:45.000Z</time>
      </trkpt>
      <trkpt lat="43.140550553798675537109375" lon="-1.3965828157961368560791015625">
        <ele>682.79998779296875</ele>
        <time>2020-08-22T08:48:46.000Z</time>
      </trkpt>
      <trkpt lat="43.1406697444617748260498046875" lon="-1.39672606252133846282958984375">
        <ele>682.4000244140625</ele>
        <time>2020-08-22T08:48:49.000Z</time>
      </trkpt>
      <trkpt lat="43.1407441757619380950927734375" lon="-1.39671097509562969207763671875">
        <ele>682.5999755859375</ele>
        <time>2020-08-22T08:48:51.000Z</time>
      </trkpt>
      <trkpt lat="43.14077443443238735198974609375" lon="-1.39670460484921932220458984375">
        <ele>682.5999755859375</ele>
        <time>2020-08-22T08:48:52.000Z</time>
      </trkpt>
      <trkpt lat="43.1409158371388912200927734375" lon="-1.39674282632768154144287109375">
        <ele>684</ele>
        <time>2020-08-22T08:48:58.000Z</time>
      </trkpt>
      <trkpt lat="43.14097006805241107940673828125" lon="-1.3967796228826045989990234375">
        <ele>685.20001220703125</ele>
        <time>2020-08-22T08:49:01.000Z</time>
      </trkpt>
      <trkpt lat="43.14103343524038791656494140625" lon="-1.3968208618462085723876953125">
        <ele>686</ele>
        <time>2020-08-22T08:49:05.000Z</time>
      </trkpt>
      <trkpt lat="43.1410506181418895721435546875" lon="-1.39682563953101634979248046875">
        <ele>686.4000244140625</ele>
        <time>2020-08-22T08:49:06.000Z</time>
      </trkpt>
      <trkpt lat="43.1411153264343738555908203125" lon="-1.39685648493468761444091796875">
        <ele>687.4000244140625</ele>
        <time>2020-08-22T08:49:10.000Z</time>
      </trkpt>
      <trkpt lat="43.14119118265807628631591796875" lon="-1.39689705334603786468505859375">
        <ele>688.5999755859375</ele>
        <time>2020-08-22T08:49:15.000Z</time>
      </trkpt>
      <trkpt lat="43.1412527896463871002197265625" lon="-1.39691867865622043609619140625">
        <ele>689.4000244140625</ele>
        <time>2020-08-22T08:49:19.000Z</time>
      </trkpt>
      <trkpt lat="43.1412685476243495941162109375" lon="-1.39692286960780620574951171875">
        <ele>689.5999755859375</ele>
        <time>2020-08-22T08:49:20.000Z</time>
      </trkpt>
      <trkpt lat="43.141374997794628143310546875" lon="-1.396946422755718231201171875">
        <ele>690.79998779296875</ele>
        <time>2020-08-22T08:49:27.000Z</time>
      </trkpt>
      <trkpt lat="43.1413900852203369140625" lon="-1.3969499431550502777099609375">
        <ele>690.79998779296875</ele>
        <time>2020-08-22T08:49:28.000Z</time>
      </trkpt>
      <trkpt lat="43.14147633500397205352783203125" lon="-1.3969727419316768646240234375">
        <ele>691.79998779296875</ele>
        <time>2020-08-22T08:49:34.000Z</time>
      </trkpt>
      <trkpt lat="43.14150399528443813323974609375" lon="-1.39698791317641735076904296875">
        <ele>692.20001220703125</ele>
        <time>2020-08-22T08:49:36.000Z</time>
      </trkpt>
      <trkpt lat="43.14155730418860912322998046875" lon="-1.39702345244586467742919921875">
        <ele>692.79998779296875</ele>
        <time>2020-08-22T08:49:40.000Z</time>
      </trkpt>
      <trkpt lat="43.14158529974520206451416015625" lon="-1.39704105444252490997314453125">
        <ele>693</ele>
        <time>2020-08-22T08:49:42.000Z</time>
      </trkpt>
      <trkpt lat="43.1416849605739116668701171875" lon="-1.397096626460552215576171875">
        <ele>694</ele>
        <time>2020-08-22T08:49:49.000Z</time>
      </trkpt>
      <trkpt lat="43.1417937576770782470703125" lon="-1.3971363566815853118896484375">
        <ele>694.79998779296875</ele>
        <time>2020-08-22T08:49:56.000Z</time>
      </trkpt>
      <trkpt lat="43.1418271176517009735107421875" lon="-1.39714859426021575927734375">
        <ele>694.79998779296875</ele>
        <time>2020-08-22T08:49:58.000Z</time>
      </trkpt>
      <trkpt lat="43.14192451536655426025390625" lon="-1.39716510660946369171142578125">
        <ele>695.79998779296875</ele>
        <time>2020-08-22T08:50:04.000Z</time>
      </trkpt>
      <trkpt lat="43.1419411115348339080810546875" lon="-1.39716678299009799957275390625">
        <ele>695.79998779296875</ele>
        <time>2020-08-22T08:50:05.000Z</time>
      </trkpt>
      <trkpt lat="43.14204144291579723358154296875" lon="-1.39716812409460544586181640625">
        <ele>697</ele>
        <time>2020-08-22T08:50:11.000Z</time>
      </trkpt>
      <trkpt lat="43.14209223724901676177978515625" lon="-1.39716460369527339935302734375">
        <ele>697.4000244140625</ele>
        <time>2020-08-22T08:50:14.000Z</time>
      </trkpt>
      <trkpt lat="43.1422217376530170440673828125" lon="-1.39711347408592700958251953125">
        <ele>698</ele>
        <time>2020-08-22T08:50:22.000Z</time>
      </trkpt>
      <trkpt lat="43.14230161719024181365966796875" lon="-1.39704625122249126434326171875">
        <ele>698.79998779296875</ele>
        <time>2020-08-22T08:50:28.000Z</time>
      </trkpt>
      <trkpt lat="43.1423400901257991790771484375" lon="-1.39700568281114101409912109375">
        <ele>699.4000244140625</ele>
        <time>2020-08-22T08:50:31.000Z</time>
      </trkpt>
      <trkpt lat="43.14238493330776691436767578125" lon="-1.39698506332933902740478515625">
        <ele>700</ele>
        <time>2020-08-22T08:50:34.000Z</time>
      </trkpt>
      <trkpt lat="43.14241175539791584014892578125" lon="-1.39696343801915645599365234375">
        <ele>700.4000244140625</ele>
        <time>2020-08-22T08:50:36.000Z</time>
      </trkpt>
      <trkpt lat="43.14247311092913150787353515625" lon="-1.396934688091278076171875">
        <ele>701.20001220703125</ele>
        <time>2020-08-22T08:50:40.000Z</time>
      </trkpt>
      <trkpt lat="43.1424889527261257171630859375" lon="-1.39692538417875766754150390625">
        <ele>701.20001220703125</ele>
        <time>2020-08-22T08:50:41.000Z</time>
      </trkpt>
      <trkpt lat="43.1426562555134296417236328125" lon="-1.3968691416084766387939453125">
        <ele>701.5999755859375</ele>
        <time>2020-08-22T08:50:51.000Z</time>
      </trkpt>
      <trkpt lat="43.14273764379322528839111328125" lon="-1.396887414157390594482421875">
        <ele>702.20001220703125</ele>
        <time>2020-08-22T08:50:56.000Z</time>
      </trkpt>
      <trkpt lat="43.1427673995494842529296875" lon="-1.396903507411479949951171875">
        <ele>702.4000244140625</ele>
        <time>2020-08-22T08:50:58.000Z</time>
      </trkpt>
      <trkpt lat="43.14282062463462352752685546875" lon="-1.39698405750095844268798828125">
        <ele>703.20001220703125</ele>
        <time>2020-08-22T08:51:03.000Z</time>
      </trkpt>
      <trkpt lat="43.14283805899322032928466796875" lon="-1.39702345244586467742919921875">
        <ele>703.5999755859375</ele>
        <time>2020-08-22T08:51:05.000Z</time>
      </trkpt>
      <trkpt lat="43.14289371483027935028076171875" lon="-1.3971524499356746673583984375">
        <ele>704.20001220703125</ele>
        <time>2020-08-22T08:51:12.000Z</time>
      </trkpt>
      <trkpt lat="43.1429003365337848663330078125" lon="-1.39718337915837764739990234375">
        <ele>704.20001220703125</ele>
        <time>2020-08-22T08:51:14.000Z</time>
      </trkpt>
      <trkpt lat="43.14290276728570461273193359375" lon="-1.3972060941159725189208984375">
        <ele>704.20001220703125</ele>
        <time>2020-08-22T08:51:20.000Z</time>
      </trkpt>
      <trkpt lat="43.1429130770266056060791015625" lon="-1.397233419120311737060546875">
        <ele>704.20001220703125</ele>
        <time>2020-08-22T08:51:43.000Z</time>
      </trkpt>
      <trkpt lat="43.142948448657989501953125" lon="-1.3973381929099559783935546875">
        <ele>704.4000244140625</ele>
        <time>2020-08-22T08:51:49.000Z</time>
      </trkpt>
      <trkpt lat="43.1429985724389553070068359375" lon="-1.3975557871162891387939453125">
        <ele>704.79998779296875</ele>
        <time>2020-08-22T08:51:59.000Z</time>
      </trkpt>
      <trkpt lat="43.1430300883948802947998046875" lon="-1.39777312986552715301513671875">
        <ele>705.20001220703125</ele>
        <time>2020-08-22T08:52:08.000Z</time>
      </trkpt>
      <trkpt lat="43.1430377997457981109619140625" lon="-1.39782023616135120391845703125">
        <ele>705.20001220703125</ele>
        <time>2020-08-22T08:52:10.000Z</time>
      </trkpt>
      <trkpt lat="43.1430632807314395904541015625" lon="-1.39795870520174503326416015625">
        <ele>705.5999755859375</ele>
        <time>2020-08-22T08:52:16.000Z</time>
      </trkpt>
      <trkpt lat="43.14308448694646358489990234375" lon="-1.39812466688454151153564453125">
        <ele>706.20001220703125</ele>
        <time>2020-08-22T08:52:23.000Z</time>
      </trkpt>
      <trkpt lat="43.1430978141725063323974609375" lon="-1.39819423668086528778076171875">
        <ele>706.4000244140625</ele>
        <time>2020-08-22T08:52:26.000Z</time>
      </trkpt>
      <trkpt lat="43.14312673173844814300537109375" lon="-1.3983899541199207305908203125">
        <ele>707.20001220703125</ele>
        <time>2020-08-22T08:52:34.000Z</time>
      </trkpt>
      <trkpt lat="43.14313293434679508209228515625" lon="-1.3985237292945384979248046875">
        <ele>708.20001220703125</ele>
        <time>2020-08-22T08:52:40.000Z</time>
      </trkpt>
      <trkpt lat="43.14314366318285465240478515625" lon="-1.39858894050121307373046875">
        <ele>708.79998779296875</ele>
        <time>2020-08-22T08:52:43.000Z</time>
      </trkpt>
      <trkpt lat="43.143152296543121337890625" lon="-1.39863193966448307037353515625">
        <ele>709.20001220703125</ele>
        <time>2020-08-22T08:52:45.000Z</time>
      </trkpt>
      <trkpt lat="43.143136203289031982421875" lon="-1.39873922802507877349853515625">
        <ele>710</ele>
        <time>2020-08-22T08:52:50.000Z</time>
      </trkpt>
      <trkpt lat="43.14313695766031742095947265625" lon="-1.3988023437559604644775390625">
        <ele>710.20001220703125</ele>
        <time>2020-08-22T08:52:53.000Z</time>
      </trkpt>
      <trkpt lat="43.1431269831955432891845703125" lon="-1.39888540841639041900634765625">
        <ele>711.20001220703125</ele>
        <time>2020-08-22T08:52:57.000Z</time>
      </trkpt>
      <trkpt lat="43.14312639646232128143310546875" lon="-1.398905776441097259521484375">
        <ele>711.4000244140625</ele>
        <time>2020-08-22T08:52:58.000Z</time>
      </trkpt>
      <trkpt lat="43.143117092549800872802734375" lon="-1.39906771481037139892578125">
        <ele>712.5999755859375</ele>
        <time>2020-08-22T08:53:06.000Z</time>
      </trkpt>
      <trkpt lat="43.1431061960756778717041015625" lon="-1.39912672340869903564453125">
        <ele>713.20001220703125</ele>
        <time>2020-08-22T08:53:09.000Z</time>
      </trkpt>
      <trkpt lat="43.14309404231607913970947265625" lon="-1.39918715693056583404541015625">
        <ele>713.5999755859375</ele>
        <time>2020-08-22T08:53:12.000Z</time>
      </trkpt>
      <trkpt lat="43.14307023771107196807861328125" lon="-1.39929276891052722930908203125">
        <ele>714.5999755859375</ele>
        <time>2020-08-22T08:53:17.000Z</time>
      </trkpt>
      <trkpt lat="43.14306445419788360595703125" lon="-1.39931523241102695465087890625">
        <ele>715</ele>
        <time>2020-08-22T08:53:18.000Z</time>
      </trkpt>
      <trkpt lat="43.143041990697383880615234375" lon="-1.3994863070547580718994140625">
        <ele>715.79998779296875</ele>
        <time>2020-08-22T08:53:25.000Z</time>
      </trkpt>
      <trkpt lat="43.1430364586412906646728515625" lon="-1.3995386101305484771728515625">
        <ele>716</ele>
        <time>2020-08-22T08:53:27.000Z</time>
      </trkpt>
      <trkpt lat="43.1430247239768505096435546875" lon="-1.3997092656791210174560546875">
        <ele>715.79998779296875</ele>
        <time>2020-08-22T08:53:32.000Z</time>
      </trkpt>
      <trkpt lat="43.14302749000489711761474609375" lon="-1.39991252683103084564208984375">
        <ele>715.4000244140625</ele>
        <time>2020-08-22T08:53:36.000Z</time>
      </trkpt>
      <trkpt lat="43.14309454523026943206787109375" lon="-1.40009223483502864837646484375">
        <ele>715.79998779296875</ele>
        <time>2020-08-22T08:53:42.000Z</time>
      </trkpt>
      <trkpt lat="43.14314031042158603668212890625" lon="-1.4001082442700862884521484375">
        <ele>715.79998779296875</ele>
        <time>2020-08-22T08:53:44.000Z</time>
      </trkpt>
      <trkpt lat="43.14318540506064891815185546875" lon="-1.40007622539997100830078125">
        <ele>715.79998779296875</ele>
        <time>2020-08-22T08:53:46.000Z</time>
      </trkpt>
      <trkpt lat="43.14339344389736652374267578125" lon="-1.40002333559095859527587890625">
        <ele>714.79998779296875</ele>
        <time>2020-08-22T08:53:52.000Z</time>
      </trkpt>
      <trkpt lat="43.1435125507414340972900390625" lon="-1.40011419542133808135986328125">
        <ele>713.79998779296875</ele>
        <time>2020-08-22T08:53:55.000Z</time>
      </trkpt>
      <trkpt lat="43.1436013989150524139404296875" lon="-1.400303542613983154296875">
        <ele>712.5999755859375</ele>
        <time>2020-08-22T08:53:58.000Z</time>
      </trkpt>
      <trkpt lat="43.143624030053615570068359375" lon="-1.40037487260997295379638671875">
        <ele>712.4000244140625</ele>
        <time>2020-08-22T08:53:59.000Z</time>
      </trkpt>
      <trkpt lat="43.143677003681659698486328125" lon="-1.4005072228610515594482421875">
        <ele>712.20001220703125</ele>
        <time>2020-08-22T08:54:01.000Z</time>
      </trkpt>
      <trkpt lat="43.143757469952106475830078125" lon="-1.400574110448360443115234375">
        <ele>712.20001220703125</ele>
        <time>2020-08-22T08:54:03.000Z</time>
      </trkpt>
      <trkpt lat="43.1438391096889972686767578125" lon="-1.4005650579929351806640625">
        <ele>712.79998779296875</ele>
        <time>2020-08-22T08:54:06.000Z</time>
      </trkpt>
      <trkpt lat="43.14390691928565502166748046875" lon="-1.40055407769978046417236328125">
        <ele>713.20001220703125</ele>
        <time>2020-08-22T08:54:09.000Z</time>
      </trkpt>
      <trkpt lat="43.14397246576845645904541015625" lon="-1.4005568437278270721435546875">
        <ele>713.79998779296875</ele>
        <time>2020-08-22T08:54:12.000Z</time>
      </trkpt>
      <trkpt lat="43.143994174897670745849609375" lon="-1.4005598612129688262939453125">
        <ele>714</ele>
        <time>2020-08-22T08:54:13.000Z</time>
      </trkpt>
      <trkpt lat="43.14409551210701465606689453125" lon="-1.4005705900490283966064453125">
        <ele>715</ele>
        <time>2020-08-22T08:54:18.000Z</time>
      </trkpt>
      <trkpt lat="43.14417983405292034149169921875" lon="-1.40061157755553722381591796875">
        <ele>715.79998779296875</ele>
        <time>2020-08-22T08:54:23.000Z</time>
      </trkpt>
      <trkpt lat="43.14419492147862911224365234375" lon="-1.40062197111546993255615234375">
        <ele>716.20001220703125</ele>
        <time>2020-08-22T08:54:24.000Z</time>
      </trkpt>
      <trkpt lat="43.1442253477871417999267578125" lon="-1.40064594335854053497314453125">
        <ele>717.20001220703125</ele>
        <time>2020-08-22T08:54:26.000Z</time>
      </trkpt>
      <trkpt lat="43.144273795187473297119140625" lon="-1.40072171576321125030517578125">
        <ele>717.5999755859375</ele>
        <time>2020-08-22T08:54:30.000Z</time>
      </trkpt>
      <trkpt lat="43.1443606317043304443359375" lon="-1.40084694139659404754638671875">
        <ele>718.20001220703125</ele>
        <time>2020-08-22T08:54:37.000Z</time>
      </trkpt>
      <trkpt lat="43.14437010325491428375244140625" lon="-1.400866806507110595703125">
        <ele>718.4000244140625</ele>
        <time>2020-08-22T08:54:38.000Z</time>
      </trkpt>
      <trkpt lat="43.14443103969097137451171875" lon="-1.400987170636653900146484375">
        <ele>719.4000244140625</ele>
        <time>2020-08-22T08:54:44.000Z</time>
      </trkpt>
      <trkpt lat="43.14444319345057010650634765625" lon="-1.40102975070476531982421875">
        <ele>720</ele>
        <time>2020-08-22T08:54:46.000Z</time>
      </trkpt>
      <trkpt lat="43.14446381293237209320068359375" lon="-1.4011187665164470672607421875">
        <ele>720.5999755859375</ele>
        <time>2020-08-22T08:54:50.000Z</time>
      </trkpt>
      <trkpt lat="43.1444799900054931640625" lon="-1.40118506737053394317626953125">
        <ele>721</ele>
        <time>2020-08-22T08:54:53.000Z</time>
      </trkpt>
      <trkpt lat="43.1445063091814517974853515625" lon="-1.40129369683563709259033203125">
        <ele>721.5999755859375</ele>
        <time>2020-08-22T08:54:58.000Z</time>
      </trkpt>
      <trkpt lat="43.14451125450432300567626953125" lon="-1.40135505236685276031494140625">
        <ele>722.5999755859375</ele>
        <time>2020-08-22T08:55:01.000Z</time>
      </trkpt>
      <trkpt lat="43.14451427198946475982666015625" lon="-1.401374749839305877685546875">
        <ele>722.79998779296875</ele>
        <time>2020-08-22T08:55:02.000Z</time>
      </trkpt>
      <trkpt lat="43.1445264257490634918212890625" lon="-1.4014872349798679351806640625">
        <ele>724</ele>
        <time>2020-08-22T08:55:08.000Z</time>
      </trkpt>
      <trkpt lat="43.14453036524355411529541015625" lon="-1.40160315670073032379150390625">
        <ele>725</ele>
        <time>2020-08-22T08:55:14.000Z</time>
      </trkpt>
      <trkpt lat="43.144531287252902984619140625" lon="-1.40162277035415172576904296875">
        <ele>725</ele>
        <time>2020-08-22T08:55:15.000Z</time>
      </trkpt>
      <trkpt lat="43.1445260904729366302490234375" lon="-1.40168110840022563934326171875">
        <ele>725.79998779296875</ele>
        <time>2020-08-22T08:55:18.000Z</time>
      </trkpt>
      <trkpt lat="43.1445260904729366302490234375" lon="-1.401751935482025146484375">
        <ele>726.5999755859375</ele>
        <time>2020-08-22T08:55:22.000Z</time>
      </trkpt>
      <trkpt lat="43.1445291079580783843994140625" lon="-1.40176928602159023284912109375">
        <ele>727</ele>
        <time>2020-08-22T08:55:23.000Z</time>
      </trkpt>
      <trkpt lat="43.144533298909664154052734375" lon="-1.40188193880021572113037109375">
        <ele>728</ele>
        <time>2020-08-22T08:55:29.000Z</time>
      </trkpt>
      <trkpt lat="43.14453019760549068450927734375" lon="-1.40189920552074909210205078125">
        <ele>728.20001220703125</ele>
        <time>2020-08-22T08:55:30.000Z</time>
      </trkpt>
      <trkpt lat="43.1445304490625858306884765625" lon="-1.40191546641290187835693359375">
        <ele>728.4000244140625</ele>
        <time>2020-08-22T08:55:31.000Z</time>
      </trkpt>
      <trkpt lat="43.1445374898612499237060546875" lon="-1.40198118053376674652099609375">
        <ele>729.20001220703125</ele>
        <time>2020-08-22T08:55:35.000Z</time>
      </trkpt>
      <trkpt lat="43.144533969461917877197265625" lon="-1.40199911780655384063720703125">
        <ele>729.20001220703125</ele>
        <time>2020-08-22T08:55:36.000Z</time>
      </trkpt>
      <trkpt lat="43.14453187398612499237060546875" lon="-1.4020152948796749114990234375">
        <ele>729.4000244140625</ele>
        <time>2020-08-22T08:55:37.000Z</time>
      </trkpt>
      <trkpt lat="43.1445314548909664154052734375" lon="-1.4020833559334278106689453125">
        <ele>730.4000244140625</ele>
        <time>2020-08-22T08:55:41.000Z</time>
      </trkpt>
      <trkpt lat="43.144531287252902984619140625" lon="-1.402097605168819427490234375">
        <ele>730.5999755859375</ele>
        <time>2020-08-22T08:55:42.000Z</time>
      </trkpt>
      <trkpt lat="43.14452852122485637664794921875" lon="-1.40210925601422786712646484375">
        <ele>730.79998779296875</ele>
        <time>2020-08-22T08:55:43.000Z</time>
      </trkpt>
      <trkpt lat="43.1445120088756084442138671875" lon="-1.4021685160696506500244140625">
        <ele>731.5999755859375</ele>
        <time>2020-08-22T08:55:48.000Z</time>
      </trkpt>
      <trkpt lat="43.1444761343300342559814453125" lon="-1.4022744633257389068603515625">
        <ele>732.20001220703125</ele>
        <time>2020-08-22T08:55:54.000Z</time>
      </trkpt>
      <trkpt lat="43.1444449536502361297607421875" lon="-1.40237278304994106292724609375">
        <ele>732.79998779296875</ele>
        <time>2020-08-22T08:55:58.000Z</time>
      </trkpt>
      <trkpt lat="43.144419305026531219482421875" lon="-1.4024157822132110595703125">
        <ele>733.20001220703125</ele>
        <time>2020-08-22T08:56:00.000Z</time>
      </trkpt>
      <trkpt lat="43.14437605440616607666015625" lon="-1.4024833403527736663818359375">
        <ele>733.4000244140625</ele>
        <time>2020-08-22T08:56:04.000Z</time>
      </trkpt>
      <trkpt lat="43.1443686783313751220703125" lon="-1.40253446996212005615234375">
        <ele>733.4000244140625</ele>
        <time>2020-08-22T08:56:06.000Z</time>
      </trkpt>
      <trkpt lat="43.14438200555741786956787109375" lon="-1.40260177664458751678466796875">
        <ele>733.79998779296875</ele>
        <time>2020-08-22T08:56:09.000Z</time>
      </trkpt>
      <trkpt lat="43.14441670663654804229736328125" lon="-1.40264217741787433624267578125">
        <ele>734.20001220703125</ele>
        <time>2020-08-22T08:56:12.000Z</time>
      </trkpt>
      <trkpt lat="43.14445325173437595367431640625" lon="-1.4026786386966705322265625">
        <ele>734.4000244140625</ele>
        <time>2020-08-22T08:56:15.000Z</time>
      </trkpt>
      <trkpt lat="43.14447269774973392486572265625" lon="-1.40271057374775409698486328125">
        <ele>734.5999755859375</ele>
        <time>2020-08-22T08:56:17.000Z</time>
      </trkpt>
      <trkpt lat="43.14452667720615863800048828125" lon="-1.4027886092662811279296875">
        <ele>735.5999755859375</ele>
        <time>2020-08-22T08:56:22.000Z</time>
      </trkpt>
      <trkpt lat="43.14453505910933017730712890625" lon="-1.4028021879494190216064453125">
        <ele>735.5999755859375</ele>
        <time>2020-08-22T08:56:23.000Z</time>
      </trkpt>
      <trkpt lat="43.1446062214672565460205078125" lon="-1.402943842113018035888671875">
        <ele>736.79998779296875</ele>
        <time>2020-08-22T08:56:30.000Z</time>
      </trkpt>
      <trkpt lat="43.1446122564375400543212890625" lon="-1.4029698260128498077392578125">
        <ele>737</ele>
        <time>2020-08-22T08:56:31.000Z</time>
      </trkpt>
      <trkpt lat="43.1446404196321964263916015625" lon="-1.40305423177778720855712890625">
        <ele>737.5999755859375</ele>
        <time>2020-08-22T08:56:34.000Z</time>
      </trkpt>
      <trkpt lat="43.14464469440281391143798828125" lon="-1.4030787907540798187255859375">
        <ele>737.79998779296875</ele>
        <time>2020-08-22T08:56:35.000Z</time>
      </trkpt>
      <trkpt lat="43.1446518190205097198486328125" lon="-1.403104774653911590576171875">
        <ele>738</ele>
        <time>2020-08-22T08:56:36.000Z</time>
      </trkpt>
      <trkpt lat="43.1446819938719272613525390625" lon="-1.40320560894906520843505859375">
        <ele>738.5999755859375</ele>
        <time>2020-08-22T08:56:40.000Z</time>
      </trkpt>
      <trkpt lat="43.14469498582184314727783203125" lon="-1.403256990015506744384765625">
        <ele>739.20001220703125</ele>
        <time>2020-08-22T08:56:42.000Z</time>
      </trkpt>
      <trkpt lat="43.1447088159620761871337890625" lon="-1.4034033380448818206787109375">
        <ele>739.5999755859375</ele>
        <time>2020-08-22T08:56:47.000Z</time>
      </trkpt>
      <trkpt lat="43.1446954049170017242431640625" lon="-1.40354524366557598114013671875">
        <ele>740</ele>
        <time>2020-08-22T08:56:52.000Z</time>
      </trkpt>
      <trkpt lat="43.14469448290765285491943359375" lon="-1.40357592143118381500244140625">
        <ele>740.20001220703125</ele>
        <time>2020-08-22T08:56:53.000Z</time>
      </trkpt>
      <trkpt lat="43.14470906741917133331298828125" lon="-1.40369058586657047271728515625">
        <ele>740.4000244140625</ele>
        <time>2020-08-22T08:56:57.000Z</time>
      </trkpt>
      <trkpt lat="43.14471409656107425689697265625" lon="-1.4037198387086391448974609375">
        <ele>740.4000244140625</ele>
        <time>2020-08-22T08:56:58.000Z</time>
      </trkpt>
      <trkpt lat="43.14471661113202571868896484375" lon="-1.40380390919744968414306640625">
        <ele>741</ele>
        <time>2020-08-22T08:57:01.000Z</time>
      </trkpt>
      <trkpt lat="43.14471543766558170318603515625" lon="-1.403861828148365020751953125">
        <ele>741</ele>
        <time>2020-08-22T08:57:03.000Z</time>
      </trkpt>
      <trkpt lat="43.14471225254237651824951171875" lon="-1.4038868062198162078857421875">
        <ele>741.20001220703125</ele>
        <time>2020-08-22T08:57:04.000Z</time>
      </trkpt>
      <trkpt lat="43.14470755867660045623779296875" lon="-1.4039099402725696563720703125">
        <ele>741.4000244140625</ele>
        <time>2020-08-22T08:57:05.000Z</time>
      </trkpt>
      <trkpt lat="43.1446809880435466766357421875" lon="-1.40401236712932586669921875">
        <ele>741.79998779296875</ele>
        <time>2020-08-22T08:57:10.000Z</time>
      </trkpt>
      <trkpt lat="43.14466229639947414398193359375" lon="-1.40415242873132228851318359375">
        <ele>741.79998779296875</ele>
        <time>2020-08-22T08:57:16.000Z</time>
      </trkpt>
      <trkpt lat="43.14467134885489940643310546875" lon="-1.40432082116603851318359375">
        <ele>741</ele>
        <time>2020-08-22T08:57:21.000Z</time>
      </trkpt>
      <trkpt lat="43.144752569496631622314453125" lon="-1.40437656082212924957275390625">
        <ele>740.4000244140625</ele>
        <time>2020-08-22T08:57:24.000Z</time>
      </trkpt>
      <trkpt lat="43.14479607157409191131591796875" lon="-1.40436105430126190185546875">
        <ele>740.4000244140625</ele>
        <time>2020-08-22T08:57:26.000Z</time>
      </trkpt>
      <trkpt lat="43.144879639148712158203125" lon="-1.40435074456036090850830078125">
        <ele>741</ele>
        <time>2020-08-22T08:57:30.000Z</time>
      </trkpt>
      <trkpt lat="43.14494091086089611053466796875" lon="-1.40442970208823680877685546875">
        <ele>742</ele>
        <time>2020-08-22T08:57:35.000Z</time>
      </trkpt>
      <trkpt lat="43.14498533494770526885986328125" lon="-1.40455149114131927490234375">
        <ele>743.20001220703125</ele>
        <time>2020-08-22T08:57:40.000Z</time>
      </trkpt>
      <trkpt lat="43.1450011767446994781494140625" lon="-1.40462458133697509765625">
        <ele>744</ele>
        <time>2020-08-22T08:57:43.000Z</time>
      </trkpt>
      <trkpt lat="43.1450085528194904327392578125" lon="-1.40464696101844310760498046875">
        <ele>744.20001220703125</ele>
        <time>2020-08-22T08:57:44.000Z</time>
      </trkpt>
      <trkpt lat="43.14503948204219341278076171875" lon="-1.4047648943960666656494140625">
        <ele>745.4000244140625</ele>
        <time>2020-08-22T08:57:50.000Z</time>
      </trkpt>
      <trkpt lat="43.14511097967624664306640625" lon="-1.40482247807085514068603515625">
        <ele>746.5999755859375</ele>
        <time>2020-08-22T08:57:55.000Z</time>
      </trkpt>
      <trkpt lat="43.14512573182582855224609375" lon="-1.4048296026885509490966796875">
        <ele>746.5999755859375</ele>
        <time>2020-08-22T08:57:56.000Z</time>
      </trkpt>
      <trkpt lat="43.14522824250161647796630859375" lon="-1.40479984693229198455810546875">
        <ele>747.5999755859375</ele>
        <time>2020-08-22T08:58:03.000Z</time>
      </trkpt>
      <trkpt lat="43.1452425755560398101806640625" lon="-1.4047846756875514984130859375">
        <ele>747.79998779296875</ele>
        <time>2020-08-22T08:58:04.000Z</time>
      </trkpt>
      <trkpt lat="43.14526814036071300506591796875" lon="-1.40475190244615077972412109375">
        <ele>748.4000244140625</ele>
        <time>2020-08-22T08:58:06.000Z</time>
      </trkpt>
      <trkpt lat="43.14529613591730594635009765625" lon="-1.4047192968428134918212890625">
        <ele>748.5999755859375</ele>
        <time>2020-08-22T08:58:08.000Z</time>
      </trkpt>
      <trkpt lat="43.14538431353867053985595703125" lon="-1.4046656526625156402587890625">
        <ele>748.5999755859375</ele>
        <time>2020-08-22T08:58:12.000Z</time>
      </trkpt>
      <trkpt lat="43.14558631740510463714599609375" lon="-1.40463254414498805999755859375">
        <ele>748.20001220703125</ele>
        <time>2020-08-22T08:58:17.000Z</time>
      </trkpt>
      <trkpt lat="43.14570014365017414093017578125" lon="-1.40462332405149936676025390625">
        <ele>747.4000244140625</ele>
        <time>2020-08-22T08:58:19.000Z</time>
      </trkpt>
      <trkpt lat="43.1458868086338043212890625" lon="-1.40463036485016345977783203125">
        <ele>746.20001220703125</ele>
        <time>2020-08-22T08:58:22.000Z</time>
      </trkpt>
      <trkpt lat="43.14594841562211513519287109375" lon="-1.40463908202946186065673828125">
        <ele>746</ele>
        <time>2020-08-22T08:58:23.000Z</time>
      </trkpt>
      <trkpt lat="43.146200291812419891357421875" lon="-1.40468317084014415740966796875">
        <ele>745</ele>
        <time>2020-08-22T08:58:27.000Z</time>
      </trkpt>
      <trkpt lat="43.14626843668520450592041015625" lon="-1.40468065626919269561767578125">
        <ele>745</ele>
        <time>2020-08-22T08:58:28.000Z</time>
      </trkpt>
      <trkpt lat="43.1463883817195892333984375" lon="-1.40462785027921199798583984375">
        <ele>744.79998779296875</ele>
        <time>2020-08-22T08:58:30.000Z</time>
      </trkpt>
      <trkpt lat="43.14657689072191715240478515625" lon="-1.40440438874065876007080078125">
        <ele>744.4000244140625</ele>
        <time>2020-08-22T08:58:34.000Z</time>
      </trkpt>
      <trkpt lat="43.146626092493534088134765625" lon="-1.40435761772096157073974609375">
        <ele>744.4000244140625</ele>
        <time>2020-08-22T08:58:35.000Z</time>
      </trkpt>
      <trkpt lat="43.14683488570153713226318359375" lon="-1.4041779935359954833984375">
        <ele>744.20001220703125</ele>
        <time>2020-08-22T08:58:40.000Z</time>
      </trkpt>
      <trkpt lat="43.1469957344233989715576171875" lon="-1.40410901047289371490478515625">
        <ele>745</ele>
        <time>2020-08-22T08:58:45.000Z</time>
      </trkpt>
      <trkpt lat="43.14713872969150543212890625" lon="-1.4041040651500225067138671875">
        <ele>745.20001220703125</ele>
        <time>2020-08-22T08:58:51.000Z</time>
      </trkpt>
      <trkpt lat="43.14724266529083251953125" lon="-1.4041359163820743560791015625">
        <ele>745.20001220703125</ele>
        <time>2020-08-22T08:58:57.000Z</time>
      </trkpt>
      <trkpt lat="43.14726169221103191375732421875" lon="-1.404150836169719696044921875">
        <ele>745.20001220703125</ele>
        <time>2020-08-22T09:01:26.000Z</time>
      </trkpt>
      <trkpt lat="43.1472904421389102935791015625" lon="-1.4041550271213054656982421875">
        <ele>745</ele>
        <time>2020-08-22T09:01:29.000Z</time>
      </trkpt>
      <trkpt lat="43.14736797474324703216552734375" lon="-1.4041986130177974700927734375">
        <ele>745</ele>
        <time>2020-08-22T09:01:35.000Z</time>
      </trkpt>
      <trkpt lat="43.14743972383439540863037109375" lon="-1.4042190648615360260009765625">
        <ele>745.4000244140625</ele>
        <time>2020-08-22T09:01:40.000Z</time>
      </trkpt>
      <trkpt lat="43.14747132360935211181640625" lon="-1.4042499102652072906494140625">
        <ele>745.5999755859375</ele>
        <time>2020-08-22T09:01:42.000Z</time>
      </trkpt>
      <trkpt lat="43.14752806909382343292236328125" lon="-1.40432945452630519866943359375">
        <ele>746.20001220703125</ele>
        <time>2020-08-22T09:01:46.000Z</time>
      </trkpt>
      <trkpt lat="43.147542066872119903564453125" lon="-1.4043523371219635009765625">
        <ele>746.20001220703125</ele>
        <time>2020-08-22T09:01:47.000Z</time>
      </trkpt>
      <trkpt lat="43.14756981097161769866943359375" lon="-1.4043952524662017822265625">
        <ele>746.4000244140625</ele>
        <time>2020-08-22T09:01:49.000Z</time>
      </trkpt>
      <trkpt lat="43.1476558931171894073486328125" lon="-1.4045342244207859039306640625">
        <ele>746.5999755859375</ele>
        <time>2020-08-22T09:01:56.000Z</time>
      </trkpt>
      <trkpt lat="43.1476860679686069488525390625" lon="-1.40461175702512264251708984375">
        <ele>747</ele>
        <time>2020-08-22T09:01:59.000Z</time>
      </trkpt>
      <trkpt lat="43.147735185921192169189453125" lon="-1.40471602790057659149169921875">
        <ele>747.20001220703125</ele>
        <time>2020-08-22T09:02:03.000Z</time>
      </trkpt>
      <trkpt lat="43.147778771817684173583984375" lon="-1.40484209172427654266357421875">
        <ele>747.4000244140625</ele>
        <time>2020-08-22T09:02:08.000Z</time>
      </trkpt>
      <trkpt lat="43.14780064858496189117431640625" lon="-1.40510327182710170745849609375">
        <ele>746.5999755859375</ele>
        <time>2020-08-22T09:02:15.000Z</time>
      </trkpt>
      <trkpt lat="43.14778639934957027435302734375" lon="-1.40520729124546051025390625">
        <ele>746</ele>
        <time>2020-08-22T09:02:17.000Z</time>
      </trkpt>
      <trkpt lat="43.14777667634189128875732421875" lon="-1.4053010009229183197021484375">
        <ele>745.20001220703125</ele>
        <time>2020-08-22T09:02:19.000Z</time>
      </trkpt>
      <trkpt lat="43.14778220839798450469970703125" lon="-1.40534634701907634735107421875">
        <ele>744.79998779296875</ele>
        <time>2020-08-22T09:02:20.000Z</time>
      </trkpt>
      <trkpt lat="43.1478268839418888092041015625" lon="-1.40543284825980663299560546875">
        <ele>744</ele>
        <time>2020-08-22T09:02:22.000Z</time>
      </trkpt>
      <trkpt lat="43.147907517850399017333984375" lon="-1.40548934228718280792236328125">
        <ele>743.79998779296875</ele>
        <time>2020-08-22T09:02:25.000Z</time>
      </trkpt>
      <trkpt lat="43.14792939461767673492431640625" lon="-1.40550124458968639373779296875">
        <ele>743.79998779296875</ele>
        <time>2020-08-22T09:02:26.000Z</time>
      </trkpt>
      <trkpt lat="43.14802779816091060638427734375" lon="-1.405611969530582427978515625">
        <ele>744.79998779296875</ele>
        <time>2020-08-22T09:02:31.000Z</time>
      </trkpt>
      <trkpt lat="43.14811279065907001495361328125" lon="-1.4057355187833309173583984375">
        <ele>745.5999755859375</ele>
        <time>2020-08-22T09:02:37.000Z</time>
      </trkpt>
      <trkpt lat="43.148180432617664337158203125" lon="-1.40580986626446247100830078125">
        <ele>746</ele>
        <time>2020-08-22T09:02:42.000Z</time>
      </trkpt>
      <trkpt lat="43.1483130343258380889892578125" lon="-1.40595202334225177764892578125">
        <ele>746</ele>
        <time>2020-08-22T09:02:48.000Z</time>
      </trkpt>
      <trkpt lat="43.14845477230846881866455078125" lon="-1.40602536499500274658203125">
        <ele>745.20001220703125</ele>
        <time>2020-08-22T09:02:53.000Z</time>
      </trkpt>
      <trkpt lat="43.14864822663366794586181640625" lon="-1.4060409553349018096923828125">
        <ele>744.20001220703125</ele>
        <time>2020-08-22T09:02:57.000Z</time>
      </trkpt>
      <trkpt lat="43.14880262129008769989013671875" lon="-1.40598186291754245758056640625">
        <ele>744.20001220703125</ele>
        <time>2020-08-22T09:03:01.000Z</time>
      </trkpt>
      <trkpt lat="43.14887604676187038421630859375" lon="-1.4058941043913364410400390625">
        <ele>744.4000244140625</ele>
        <time>2020-08-22T09:03:04.000Z</time>
      </trkpt>
      <trkpt lat="43.14893052913248538970947265625" lon="-1.4058096148073673248291015625">
        <ele>744.5999755859375</ele>
        <time>2020-08-22T09:03:07.000Z</time>
      </trkpt>
      <trkpt lat="43.148970343172550201416015625" lon="-1.4057291485369205474853515625">
        <ele>745.4000244140625</ele>
        <time>2020-08-22T09:03:10.000Z</time>
      </trkpt>
      <trkpt lat="43.14900747500360012054443359375" lon="-1.405622027814388275146484375">
        <ele>746.5999755859375</ele>
        <time>2020-08-22T09:03:14.000Z</time>
      </trkpt>
      <trkpt lat="43.14901837147772312164306640625" lon="-1.4055990613996982574462890625">
        <ele>746.79998779296875</ele>
        <time>2020-08-22T09:03:15.000Z</time>
      </trkpt>
      <trkpt lat="43.1490544974803924560546875" lon="-1.4055351912975311279296875">
        <ele>747.5999755859375</ele>
        <time>2020-08-22T09:03:18.000Z</time>
      </trkpt>
      <trkpt lat="43.149113841354846954345703125" lon="-1.40546637587249279022216796875">
        <ele>748.5999755859375</ele>
        <time>2020-08-22T09:03:22.000Z</time>
      </trkpt>
      <trkpt lat="43.149139322340488433837890625" lon="-1.4054334349930286407470703125">
        <ele>749</ele>
        <time>2020-08-22T09:03:24.000Z</time>
      </trkpt>
      <trkpt lat="43.14917092211544513702392578125" lon="-1.4053942076861858367919921875">
        <ele>749.5999755859375</ele>
        <time>2020-08-22T09:03:27.000Z</time>
      </trkpt>
      <trkpt lat="43.14920830540359020233154296875" lon="-1.4053554832935333251953125">
        <ele>750.20001220703125</ele>
        <time>2020-08-22T09:03:30.000Z</time>
      </trkpt>
      <trkpt lat="43.1492529809474945068359375" lon="-1.40530980192124843597412109375">
        <ele>750.5999755859375</ele>
        <time>2020-08-22T09:03:33.000Z</time>
      </trkpt>
      <trkpt lat="43.14927955158054828643798828125" lon="-1.4052711613476276397705078125">
        <ele>751</ele>
        <time>2020-08-22T09:03:35.000Z</time>
      </trkpt>
      <trkpt lat="43.14930436201393604278564453125" lon="-1.40523151494562625885009765625">
        <ele>751.20001220703125</ele>
        <time>2020-08-22T09:03:37.000Z</time>
      </trkpt>
      <trkpt lat="43.14935079775750637054443359375" lon="-1.4051856659352779388427734375">
        <ele>751.79998779296875</ele>
        <time>2020-08-22T09:03:40.000Z</time>
      </trkpt>
      <trkpt lat="43.1493684835731983184814453125" lon="-1.4051729254424571990966796875">
        <ele>752</ele>
        <time>2020-08-22T09:03:41.000Z</time>
      </trkpt>
      <trkpt lat="43.1494167633354663848876953125" lon="-1.4051259867846965789794921875">
        <ele>752.4000244140625</ele>
        <time>2020-08-22T09:03:44.000Z</time>
      </trkpt>
      <trkpt lat="43.1494648754596710205078125" lon="-1.40509136952459812164306640625">
        <ele>753</ele>
        <time>2020-08-22T09:03:47.000Z</time>
      </trkpt>
      <trkpt lat="43.149535618722438812255859375" lon="-1.4050166867673397064208984375">
        <ele>754.20001220703125</ele>
        <time>2020-08-22T09:03:52.000Z</time>
      </trkpt>
      <trkpt lat="43.14968942664563655853271484375" lon="-1.40495524741709232330322265625">
        <ele>755</ele>
        <time>2020-08-22T09:04:01.000Z</time>
      </trkpt>
      <trkpt lat="43.1498670391738414764404296875" lon="-1.40487159602344036102294921875">
        <ele>755.79998779296875</ele>
        <time>2020-08-22T09:04:11.000Z</time>
      </trkpt>
      <trkpt lat="43.1498992256820201873779296875" lon="-1.40484125353395938873291015625">
        <ele>756</ele>
        <time>2020-08-22T09:04:13.000Z</time>
      </trkpt>
      <trkpt lat="43.14995982684195041656494140625" lon="-1.40477922745048999786376953125">
        <ele>757.4000244140625</ele>
        <time>2020-08-22T09:04:17.000Z</time>
      </trkpt>
      <trkpt lat="43.1500227749347686767578125" lon="-1.4047332108020782470703125">
        <ele>758.20001220703125</ele>
        <time>2020-08-22T09:04:21.000Z</time>
      </trkpt>
      <trkpt lat="43.150058649480342864990234375" lon="-1.40472273342311382293701171875">
        <ele>758.5999755859375</ele>
        <time>2020-08-22T09:04:23.000Z</time>
      </trkpt>
      <trkpt lat="43.1501416303217411041259765625" lon="-1.40474402345716953277587890625">
        <ele>759.79998779296875</ele>
        <time>2020-08-22T09:04:28.000Z</time>
      </trkpt>
      <trkpt lat="43.15019569359719753265380859375" lon="-1.40480940230190753936767578125">
        <ele>760.5999755859375</ele>
        <time>2020-08-22T09:04:32.000Z</time>
      </trkpt>
      <trkpt lat="43.150251097977161407470703125" lon="-1.40487008728086948394775390625">
        <ele>761.5999755859375</ele>
        <time>2020-08-22T09:04:36.000Z</time>
      </trkpt>
      <trkpt lat="43.15026375465095043182373046875" lon="-1.4048865996301174163818359375">
        <ele>761.79998779296875</ele>
        <time>2020-08-22T09:04:37.000Z</time>
      </trkpt>
      <trkpt lat="43.1503136269748210906982421875" lon="-1.40494845807552337646484375">
        <ele>763</ele>
        <time>2020-08-22T09:04:41.000Z</time>
      </trkpt>
      <trkpt lat="43.15035159699618816375732421875" lon="-1.40498877502977848052978515625">
        <ele>763.79998779296875</ele>
        <time>2020-08-22T09:04:44.000Z</time>
      </trkpt>
      <trkpt lat="43.15036500804126262664794921875" lon="-1.40500151552259922027587890625">
        <ele>764</ele>
        <time>2020-08-22T09:04:45.000Z</time>
      </trkpt>
      <trkpt lat="43.1504411995410919189453125" lon="-1.40508751384913921356201171875">
        <ele>765.20001220703125</ele>
        <time>2020-08-22T09:04:51.000Z</time>
      </trkpt>
      <trkpt lat="43.15047145821154117584228515625" lon="-1.40514249913394451141357421875">
        <ele>765.79998779296875</ele>
        <time>2020-08-22T09:04:54.000Z</time>
      </trkpt>
      <trkpt lat="43.15055452287197113037109375" lon="-1.4052617736160755157470703125">
        <ele>766.4000244140625</ele>
        <time>2020-08-22T09:05:01.000Z</time>
      </trkpt>
      <trkpt lat="43.15056717954576015472412109375" lon="-1.4052771963179111480712890625">
        <ele>766.5999755859375</ele>
        <time>2020-08-22T09:05:02.000Z</time>
      </trkpt>
      <trkpt lat="43.15061864443123340606689453125" lon="-1.405333690345287322998046875">
        <ele>767.4000244140625</ele>
        <time>2020-08-22T09:05:06.000Z</time>
      </trkpt>
      <trkpt lat="43.1506767310202121734619140625" lon="-1.4054072834551334381103515625">
        <ele>768.4000244140625</ele>
        <time>2020-08-22T09:05:11.000Z</time>
      </trkpt>
      <trkpt lat="43.150689303874969482421875" lon="-1.405420191586017608642578125">
        <ele>768.79998779296875</ele>
        <time>2020-08-22T09:05:12.000Z</time>
      </trkpt>
      <trkpt lat="43.1507585383951663970947265625" lon="-1.4054659567773342132568359375">
        <ele>769.79998779296875</ele>
        <time>2020-08-22T09:05:17.000Z</time>
      </trkpt>
      <trkpt lat="43.15080204047262668609619140625" lon="-1.405487246811389923095703125">
        <ele>770.5999755859375</ele>
        <time>2020-08-22T09:05:20.000Z</time>
      </trkpt>
      <trkpt lat="43.15081545151770114898681640625" lon="-1.4054957963526248931884765625">
        <ele>771</ele>
        <time>2020-08-22T09:05:21.000Z</time>
      </trkpt>
      <trkpt lat="43.150875382125377655029296875" lon="-1.405589170753955841064453125">
        <ele>772</ele>
        <time>2020-08-22T09:05:27.000Z</time>
      </trkpt>
      <trkpt lat="43.1508772261440753936767578125" lon="-1.4056081138551235198974609375">
        <ele>772.20001220703125</ele>
        <time>2020-08-22T09:05:28.000Z</time>
      </trkpt>
      <trkpt lat="43.1508463807404041290283203125" lon="-1.40565161593258380889892578125">
        <ele>772.5999755859375</ele>
        <time>2020-08-22T09:05:31.000Z</time>
      </trkpt>
      <trkpt lat="43.1508145295083522796630859375" lon="-1.40565865673124790191650390625">
        <ele>773</ele>
        <time>2020-08-22T09:05:33.000Z</time>
      </trkpt>
      <trkpt lat="43.15079860389232635498046875" lon="-1.405655555427074432373046875">
        <ele>773.20001220703125</ele>
        <time>2020-08-22T09:05:34.000Z</time>
      </trkpt>
      <trkpt lat="43.150766752660274505615234375" lon="-1.40564574860036373138427734375">
        <ele>773.79998779296875</ele>
        <time>2020-08-22T09:05:36.000Z</time>
      </trkpt>
      <trkpt lat="43.150733895599842071533203125" lon="-1.40563988126814365386962890625">
        <ele>774.20001220703125</ele>
        <time>2020-08-22T09:05:38.000Z</time>
      </trkpt>
      <trkpt lat="43.15066047012805938720703125" lon="-1.405605934560298919677734375">
        <ele>775</ele>
        <time>2020-08-22T09:05:43.000Z</time>
      </trkpt>
      <trkpt lat="43.15062870271503925323486328125" lon="-1.405596546828746795654296875">
        <ele>775.4000244140625</ele>
        <time>2020-08-22T09:05:45.000Z</time>
      </trkpt>
      <trkpt lat="43.150553517043590545654296875" lon="-1.4055541343986988067626953125">
        <ele>776</ele>
        <time>2020-08-22T09:05:50.000Z</time>
      </trkpt>
      <trkpt lat="43.15052493475377559661865234375" lon="-1.4055360294878482818603515625">
        <ele>776.4000244140625</ele>
        <time>2020-08-22T09:05:52.000Z</time>
      </trkpt>
      <trkpt lat="43.1504470668733119964599609375" lon="-1.4055008254945278167724609375">
        <ele>777.4000244140625</ele>
        <time>2020-08-22T09:05:57.000Z</time>
      </trkpt>
      <trkpt lat="43.15043189562857151031494140625" lon="-1.40549504198133945465087890625">
        <ele>777.5999755859375</ele>
        <time>2020-08-22T09:05:58.000Z</time>
      </trkpt>
      <trkpt lat="43.15038328059017658233642578125" lon="-1.40548087656497955322265625">
        <ele>778</ele>
        <time>2020-08-22T09:06:01.000Z</time>
      </trkpt>
      <trkpt lat="43.1503213383257389068603515625" lon="-1.4055058546364307403564453125">
        <ele>778.4000244140625</ele>
        <time>2020-08-22T09:06:05.000Z</time>
      </trkpt>
      <trkpt lat="43.15029837191104888916015625" lon="-1.40555874444544315338134765625">
        <ele>779.20001220703125</ele>
        <time>2020-08-22T09:06:08.000Z</time>
      </trkpt>
      <trkpt lat="43.1502998806536197662353515625" lon="-1.405598223209381103515625">
        <ele>779.4000244140625</ele>
        <time>2020-08-22T09:06:10.000Z</time>
      </trkpt>
      <trkpt lat="43.15030801109969615936279296875" lon="-1.40561456792056560516357421875">
        <ele>779.5999755859375</ele>
        <time>2020-08-22T09:06:11.000Z</time>
      </trkpt>
      <trkpt lat="43.15035930834710597991943359375" lon="-1.4056577347218990325927734375">
        <ele>780.79998779296875</ele>
        <time>2020-08-22T09:06:15.000Z</time>
      </trkpt>
      <trkpt lat="43.1503723002970218658447265625" lon="-1.40566804446280002593994140625">
        <ele>781</ele>
        <time>2020-08-22T09:06:16.000Z</time>
      </trkpt>
      <trkpt lat="43.150394260883331298828125" lon="-1.40569738112390041351318359375">
        <ele>781.4000244140625</ele>
        <time>2020-08-22T09:06:18.000Z</time>
      </trkpt>
      <trkpt lat="43.15042401663959026336669921875" lon="-1.40574348159134387969970703125">
        <ele>782</ele>
        <time>2020-08-22T09:06:21.000Z</time>
      </trkpt>
      <trkpt lat="43.15045855008065700531005859375" lon="-1.4058065973222255706787109375">
        <ele>783</ele>
        <time>2020-08-22T09:06:25.000Z</time>
      </trkpt>
      <trkpt lat="43.15048436634242534637451171875" lon="-1.40589636750519275665283203125">
        <ele>784.20001220703125</ele>
        <time>2020-08-22T09:06:30.000Z</time>
      </trkpt>
      <trkpt lat="43.15050582401454448699951171875" lon="-1.4059464074671268463134765625">
        <ele>785.20001220703125</ele>
        <time>2020-08-22T09:06:33.000Z</time>
      </trkpt>
      <trkpt lat="43.150513954460620880126953125" lon="-1.40596191398799419403076171875">
        <ele>785.4000244140625</ele>
        <time>2020-08-22T09:06:34.000Z</time>
      </trkpt>
      <trkpt lat="43.15057472325861454010009765625" lon="-1.4060449786484241485595703125">
        <ele>786.4000244140625</ele>
        <time>2020-08-22T09:06:40.000Z</time>
      </trkpt>
      <trkpt lat="43.15059618093073368072509765625" lon="-1.40607557259500026702880859375">
        <ele>786.79998779296875</ele>
        <time>2020-08-22T09:06:42.000Z</time>
      </trkpt>
      <trkpt lat="43.15065116621553897857666015625" lon="-1.4061485789716243743896484375">
        <ele>787.5999755859375</ele>
        <time>2020-08-22T09:06:47.000Z</time>
      </trkpt>
      <trkpt lat="43.1507015414535999298095703125" lon="-1.4062022231519222259521484375">
        <ele>788</ele>
        <time>2020-08-22T09:06:51.000Z</time>
      </trkpt>
      <trkpt lat="43.15076851285994052886962890625" lon="-1.40626265667378902435302734375">
        <ele>788.5999755859375</ele>
        <time>2020-08-22T09:06:56.000Z</time>
      </trkpt>
      <trkpt lat="43.15079701133072376251220703125" lon="-1.40628243796527385711669921875">
        <ele>788.79998779296875</ele>
        <time>2020-08-22T09:06:58.000Z</time>
      </trkpt>
      <trkpt lat="43.150838501751422882080078125" lon="-1.4063175581395626068115234375">
        <ele>789.79998779296875</ele>
        <time>2020-08-22T09:07:01.000Z</time>
      </trkpt>
      <trkpt lat="43.150927014648914337158203125" lon="-1.40637899748980998992919921875">
        <ele>790.4000244140625</ele>
        <time>2020-08-22T09:07:07.000Z</time>
      </trkpt>
      <trkpt lat="43.15095576457679271697998046875" lon="-1.40639307908713817596435546875">
        <ele>790.79998779296875</ele>
        <time>2020-08-22T09:07:09.000Z</time>
      </trkpt>
      <trkpt lat="43.1510153599083423614501953125" lon="-1.40639995224773883819580078125">
        <ele>791.79998779296875</ele>
        <time>2020-08-22T09:07:13.000Z</time>
      </trkpt>
      <trkpt lat="43.1510458700358867645263671875" lon="-1.4064017124474048614501953125">
        <ele>792.4000244140625</ele>
        <time>2020-08-22T09:07:15.000Z</time>
      </trkpt>
      <trkpt lat="43.15109272487461566925048828125" lon="-1.4064124412834644317626953125">
        <ele>793</ele>
        <time>2020-08-22T09:07:18.000Z</time>
      </trkpt>
      <trkpt lat="43.15113698132336139678955078125" lon="-1.406472958624362945556640625">
        <ele>794</ele>
        <time>2020-08-22T09:07:22.000Z</time>
      </trkpt>
      <trkpt lat="43.15113731659948825836181640625" lon="-1.40651620924472808837890625">
        <ele>794.5999755859375</ele>
        <time>2020-08-22T09:07:24.000Z</time>
      </trkpt>
      <trkpt lat="43.1511025317013263702392578125" lon="-1.40656122006475925445556640625">
        <ele>795.20001220703125</ele>
        <time>2020-08-22T09:07:27.000Z</time>
      </trkpt>
      <trkpt lat="43.15108652226626873016357421875" lon="-1.406567506492137908935546875">
        <ele>795.4000244140625</ele>
        <time>2020-08-22T09:07:28.000Z</time>
      </trkpt>
      <trkpt lat="43.1509999372065067291259765625" lon="-1.4065787382423877716064453125">
        <ele>796.4000244140625</ele>
        <time>2020-08-22T09:07:34.000Z</time>
      </trkpt>
      <trkpt lat="43.1509851850569248199462890625" lon="-1.40657924115657806396484375">
        <ele>796.5999755859375</ele>
        <time>2020-08-22T09:07:35.000Z</time>
      </trkpt>
      <trkpt lat="43.1509251706302165985107421875" lon="-1.4065904729068279266357421875">
        <ele>797.4000244140625</ele>
        <time>2020-08-22T09:07:39.000Z</time>
      </trkpt>
      <trkpt lat="43.15088443458080291748046875" lon="-1.40659843571484088897705078125">
        <ele>798.20001220703125</ele>
        <time>2020-08-22T09:07:42.000Z</time>
      </trkpt>
      <trkpt lat="43.15087026916444301605224609375" lon="-1.40659541822969913482666015625">
        <ele>798.5999755859375</ele>
        <time>2020-08-22T09:07:43.000Z</time>
      </trkpt>
      <trkpt lat="43.15081310458481311798095703125" lon="-1.406603045761585235595703125">
        <ele>799.5999755859375</ele>
        <time>2020-08-22T09:07:47.000Z</time>
      </trkpt>
      <trkpt lat="43.150784857571125030517578125" lon="-1.40660430304706096649169921875">
        <ele>800</ele>
        <time>2020-08-22T09:07:49.000Z</time>
      </trkpt>
      <trkpt lat="43.15077044069766998291015625" lon="-1.40660396777093410491943359375">
        <ele>800.20001220703125</ele>
        <time>2020-08-22T09:07:50.000Z</time>
      </trkpt>
      <trkpt lat="43.15074135549366474151611328125" lon="-1.40660212375223636627197265625">
        <ele>800.79998779296875</ele>
        <time>2020-08-22T09:07:52.000Z</time>
      </trkpt>
      <trkpt lat="43.15066977404057979583740234375" lon="-1.4066053926944732666015625">
        <ele>801.79998779296875</ele>
        <time>2020-08-22T09:07:57.000Z</time>
      </trkpt>
      <trkpt lat="43.150656111538410186767578125" lon="-1.40660765580832958221435546875">
        <ele>802.20001220703125</ele>
        <time>2020-08-22T09:07:58.000Z</time>
      </trkpt>
      <trkpt lat="43.1506153754889965057373046875" lon="-1.406607739627361297607421875">
        <ele>802.5999755859375</ele>
        <time>2020-08-22T09:08:00.000Z</time>
      </trkpt>
      <trkpt lat="43.15060271881520748138427734375" lon="-1.40660027973353862762451171875">
        <ele>803</ele>
        <time>2020-08-22T09:08:02.000Z</time>
      </trkpt>
      <trkpt lat="43.150565586984157562255859375" lon="-1.4065812528133392333984375">
        <ele>803.79998779296875</ele>
        <time>2020-08-22T09:08:05.000Z</time>
      </trkpt>
      <trkpt lat="43.15055360086262226104736328125" lon="-1.40657597221434116363525390625">
        <ele>804.20001220703125</ele>
        <time>2020-08-22T09:08:06.000Z</time>
      </trkpt>
      <trkpt lat="43.15050733275711536407470703125" lon="-1.40655954368412494659423828125">
        <ele>805.4000244140625</ele>
        <time>2020-08-22T09:08:10.000Z</time>
      </trkpt>
      <trkpt lat="43.15048906020820140838623046875" lon="-1.40654437243938446044921875">
        <ele>805.79998779296875</ele>
        <time>2020-08-22T09:08:12.000Z</time>
      </trkpt>
      <trkpt lat="43.15044094808399677276611328125" lon="-1.40652358531951904296875">
        <ele>806.4000244140625</ele>
        <time>2020-08-22T09:08:16.000Z</time>
      </trkpt>
      <trkpt lat="43.15042971633374691009521484375" lon="-1.4065227471292018890380859375">
        <ele>806.5999755859375</ele>
        <time>2020-08-22T09:08:17.000Z</time>
      </trkpt>
      <trkpt lat="43.1504024751484394073486328125" lon="-1.40651998110115528106689453125">
        <ele>807</ele>
        <time>2020-08-22T09:08:19.000Z</time>
      </trkpt>
      <trkpt lat="43.150365762412548065185546875" lon="-1.40653230249881744384765625">
        <ele>807.5999755859375</ele>
        <time>2020-08-22T09:08:22.000Z</time>
      </trkpt>
      <trkpt lat="43.150358386337757110595703125" lon="-1.40654579736292362213134765625">
        <ele>807.79998779296875</ele>
        <time>2020-08-22T09:08:23.000Z</time>
      </trkpt>
      <trkpt lat="43.1503531895577907562255859375" lon="-1.4065807498991489410400390625">
        <ele>808.20001220703125</ele>
        <time>2020-08-22T09:08:25.000Z</time>
      </trkpt>
      <trkpt lat="43.15037573687732219696044921875" lon="-1.4066483080387115478515625">
        <ele>808.79998779296875</ele>
        <time>2020-08-22T09:08:30.000Z</time>
      </trkpt>
      <trkpt lat="43.15037691034376621246337890625" lon="-1.40664956532418727874755859375">
        <ele>808.79998779296875</ele>
        <time>2020-08-22T09:08:31.000Z</time>
      </trkpt>
      <trkpt lat="43.15037372522056102752685546875" lon="-1.4066590368747711181640625">
        <ele>809.20001220703125</ele>
        <time>2020-08-22T09:08:40.000Z</time>
      </trkpt>
      <trkpt lat="43.1503716297447681427001953125" lon="-1.40666482038795948028564453125">
        <ele>808.5999755859375</ele>
        <time>2020-08-22T09:08:51.000Z</time>
      </trkpt>
      <trkpt lat="43.1503783352673053741455078125" lon="-1.40667353756725788116455078125">
        <ele>808.5999755859375</ele>
        <time>2020-08-22T09:08:52.000Z</time>
      </trkpt>
      <trkpt lat="43.1504380144178867340087890625" lon="-1.40669935382902622222900390625">
        <ele>809.4000244140625</ele>
        <time>2020-08-22T09:08:57.000Z</time>
      </trkpt>
      <trkpt lat="43.15046458505094051361083984375" lon="-1.4067108370363712310791015625">
        <ele>809.4000244140625</ele>
        <time>2020-08-22T09:08:59.000Z</time>
      </trkpt>
      <trkpt lat="43.15047782845795154571533203125" lon="-1.40671913512051105499267578125">
        <ele>809.5999755859375</ele>
        <time>2020-08-22T09:09:00.000Z</time>
      </trkpt>
      <trkpt lat="43.1505372561514377593994140625" lon="-1.40678107738494873046875">
        <ele>810.79998779296875</ele>
        <time>2020-08-22T09:09:05.000Z</time>
      </trkpt>
      <trkpt lat="43.15061512403190135955810546875" lon="-1.40684888698160648345947265625">
        <ele>811.79998779296875</ele>
        <time>2020-08-22T09:09:11.000Z</time>
      </trkpt>
      <trkpt lat="43.15065032802522182464599609375" lon="-1.40688828192651271820068359375">
        <ele>812.5999755859375</ele>
        <time>2020-08-22T09:09:14.000Z</time>
      </trkpt>
      <trkpt lat="43.150673545897006988525390625" lon="-1.40690890140831470489501953125">
        <ele>813.4000244140625</ele>
        <time>2020-08-22T09:09:16.000Z</time>
      </trkpt>
      <trkpt lat="43.1507223285734653472900390625" lon="-1.4069562591612339019775390625">
        <ele>814.5999755859375</ele>
        <time>2020-08-22T09:09:20.000Z</time>
      </trkpt>
      <trkpt lat="43.1507669202983379364013671875" lon="-1.40698534436523914337158203125">
        <ele>815</ele>
        <time>2020-08-22T09:09:23.000Z</time>
      </trkpt>
      <trkpt lat="43.15080639906227588653564453125" lon="-1.40701132826507091522216796875">
        <ele>815.5999755859375</ele>
        <time>2020-08-22T09:09:26.000Z</time>
      </trkpt>
      <trkpt lat="43.15087127499282360076904296875" lon="-1.40705340541899204254150390625">
        <ele>816.5999755859375</ele>
        <time>2020-08-22T09:09:31.000Z</time>
      </trkpt>
      <trkpt lat="43.15088384784758090972900390625" lon="-1.40706346370279788970947265625">
        <ele>816.79998779296875</ele>
        <time>2020-08-22T09:09:32.000Z</time>
      </trkpt>
      <trkpt lat="43.15092039294540882110595703125" lon="-1.40709313564002513885498046875">
        <ele>817.79998779296875</ele>
        <time>2020-08-22T09:09:35.000Z</time>
      </trkpt>
      <trkpt lat="43.150992728769779205322265625" lon="-1.40712917782366275787353515625">
        <ele>818.5999755859375</ele>
        <time>2020-08-22T09:09:40.000Z</time>
      </trkpt>
      <trkpt lat="43.15103807486593723297119140625" lon="-1.40715122222900390625">
        <ele>819</ele>
        <time>2020-08-22T09:09:43.000Z</time>
      </trkpt>
      <trkpt lat="43.15110110677778720855712890625" lon="-1.40716706402599811553955078125">
        <ele>819.79998779296875</ele>
        <time>2020-08-22T09:09:47.000Z</time>
      </trkpt>
      <trkpt lat="43.15113413147628307342529296875" lon="-1.407175026834011077880859375">
        <ele>820.20001220703125</ele>
        <time>2020-08-22T09:09:49.000Z</time>
      </trkpt>
      <trkpt lat="43.15128617919981479644775390625" lon="-1.4071993343532085418701171875">
        <ele>821.20001220703125</ele>
        <time>2020-08-22T09:09:58.000Z</time>
      </trkpt>
      <trkpt lat="43.1514381431043148040771484375" lon="-1.40722892247140407562255859375">
        <ele>822</ele>
        <time>2020-08-22T09:10:06.000Z</time>
      </trkpt>
      <trkpt lat="43.1514381431043148040771484375" lon="-1.40722892247140407562255859375">
        <ele>822.20001220703125</ele>
        <time>2020-08-22T09:10:07.000Z</time>
      </trkpt>
      <trkpt lat="43.15159815363585948944091796875" lon="-1.4072124101221561431884765625">
        <ele>823.4000244140625</ele>
        <time>2020-08-22T09:10:15.000Z</time>
      </trkpt>
      <trkpt lat="43.15159815363585948944091796875" lon="-1.4072124101221561431884765625">
        <ele>823.79998779296875</ele>
        <time>2020-08-22T09:10:16.000Z</time>
      </trkpt>
      <trkpt lat="43.15164978615939617156982421875" lon="-1.40720696188509464263916015625">
        <ele>824.5999755859375</ele>
        <time>2020-08-22T09:10:18.000Z</time>
      </trkpt>
      <trkpt lat="43.15176378004252910614013671875" lon="-1.40719078481197357177734375">
        <ele>825.5999755859375</ele>
        <time>2020-08-22T09:10:25.000Z</time>
      </trkpt>
      <trkpt lat="43.151794709265232086181640625" lon="-1.40719070099294185638427734375">
        <ele>826.4000244140625</ele>
        <time>2020-08-22T09:10:28.000Z</time>
      </trkpt>
      <trkpt lat="43.15182513557374477386474609375" lon="-1.40718516893684864044189453125">
        <ele>826.5999755859375</ele>
        <time>2020-08-22T09:10:29.000Z</time>
      </trkpt>
      <trkpt lat="43.15188531763851642608642578125" lon="-1.40719455666840076446533203125">
        <ele>827.5999755859375</ele>
        <time>2020-08-22T09:10:34.000Z</time>
      </trkpt>
      <trkpt lat="43.15194516442716121673583984375" lon="-1.4072114042937755584716796875">
        <ele>828.4000244140625</ele>
        <time>2020-08-22T09:10:37.000Z</time>
      </trkpt>
      <trkpt lat="43.15194516442716121673583984375" lon="-1.4072114042937755584716796875">
        <ele>828.79998779296875</ele>
        <time>2020-08-22T09:10:38.000Z</time>
      </trkpt>
      <trkpt lat="43.152020685374736785888671875" lon="-1.40727661550045013427734375">
        <ele>829.79998779296875</ele>
        <time>2020-08-22T09:10:43.000Z</time>
      </trkpt>
      <trkpt lat="43.1520369462668895721435546875" lon="-1.4073072932660579681396484375">
        <ele>830.5999755859375</ele>
        <time>2020-08-22T09:10:46.000Z</time>
      </trkpt>
      <trkpt lat="43.15205211751163005828857421875" lon="-1.4073381386697292327880859375">
        <ele>831.20001220703125</ele>
        <time>2020-08-22T09:10:47.000Z</time>
      </trkpt>
      <trkpt lat="43.15208740532398223876953125" lon="-1.40739521943032741546630859375">
        <ele>832.20001220703125</ele>
        <time>2020-08-22T09:10:51.000Z</time>
      </trkpt>
      <trkpt lat="43.152109868824481964111328125" lon="-1.40744618140161037445068359375">
        <ele>832.79998779296875</ele>
        <time>2020-08-22T09:10:54.000Z</time>
      </trkpt>
      <trkpt lat="43.15211682580411434173583984375" lon="-1.40746311284601688385009765625">
        <ele>833.4000244140625</ele>
        <time>2020-08-22T09:10:56.000Z</time>
      </trkpt>
      <trkpt lat="43.1521499343216419219970703125" lon="-1.4075507037341594696044921875">
        <ele>834.4000244140625</ele>
        <time>2020-08-22T09:11:00.000Z</time>
      </trkpt>
      <trkpt lat="43.15216443501412868499755859375" lon="-1.40760409645736217498779296875">
        <ele>835.5999755859375</ele>
        <time>2020-08-22T09:11:04.000Z</time>
      </trkpt>
      <trkpt lat="43.15217885188758373260498046875" lon="-1.4076576568186283111572265625">
        <ele>836.20001220703125</ele>
        <time>2020-08-22T09:11:06.000Z</time>
      </trkpt>
      <trkpt lat="43.1521834619343280792236328125" lon="-1.40767534263432025909423828125">
        <ele>836.5999755859375</ele>
        <time>2020-08-22T09:11:08.000Z</time>
      </trkpt>
      <trkpt lat="43.1521982140839099884033203125" lon="-1.40777056105434894561767578125">
        <ele>837.5999755859375</ele>
        <time>2020-08-22T09:11:12.000Z</time>
      </trkpt>
      <trkpt lat="43.152210451662540435791015625" lon="-1.40782705508172512054443359375">
        <ele>838.5999755859375</ele>
        <time>2020-08-22T09:11:16.000Z</time>
      </trkpt>
      <trkpt lat="43.15225764177739620208740234375" lon="-1.40797994099557399749755859375">
        <ele>839.79998779296875</ele>
        <time>2020-08-22T09:11:23.000Z</time>
      </trkpt>
      <trkpt lat="43.15227272920310497283935546875" lon="-1.4080050028860569000244140625">
        <ele>840.4000244140625</ele>
        <time>2020-08-22T09:11:27.000Z</time>
      </trkpt>
      <trkpt lat="43.1522780098021030426025390625" lon="-1.40799435786902904510498046875">
        <ele>840.20001220703125</ele>
        <time>2020-08-22T09:15:22.000Z</time>
      </trkpt>
      <trkpt lat="43.152337186038494110107421875" lon="-1.408017911016941070556640625">
        <ele>840.5999755859375</ele>
        <time>2020-08-22T09:15:29.000Z</time>
      </trkpt>
      <trkpt lat="43.15240063704550266265869140625" lon="-1.40804213471710681915283203125">
        <ele>841.20001220703125</ele>
        <time>2020-08-22T09:15:34.000Z</time>
      </trkpt>
      <trkpt lat="43.15245528705418109893798828125" lon="-1.40804330818355083465576171875">
        <ele>841.4000244140625</ele>
        <time>2020-08-22T09:15:36.000Z</time>
      </trkpt>
      <trkpt lat="43.15258084796369075775146484375" lon="-1.4080618321895599365234375">
        <ele>841.5999755859375</ele>
        <time>2020-08-22T09:15:44.000Z</time>
      </trkpt>
      <trkpt lat="43.1526619009673595428466796875" lon="-1.40808924101293087005615234375">
        <ele>842.4000244140625</ele>
        <time>2020-08-22T09:15:48.000Z</time>
      </trkpt>
      <trkpt lat="43.15270909108221530914306640625" lon="-1.408074237406253814697265625">
        <ele>843</ele>
        <time>2020-08-22T09:15:52.000Z</time>
      </trkpt>
      <trkpt lat="43.15277849324047565460205078125" lon="-1.4080653525888919830322265625">
        <ele>843.4000244140625</ele>
        <time>2020-08-22T09:15:55.000Z</time>
      </trkpt>
      <trkpt lat="43.15288133919239044189453125" lon="-1.4080519415438175201416015625">
        <ele>844.20001220703125</ele>
        <time>2020-08-22T09:16:01.000Z</time>
      </trkpt>
      <trkpt lat="43.15288133919239044189453125" lon="-1.4080519415438175201416015625">
        <ele>844.4000244140625</ele>
        <time>2020-08-22T09:16:02.000Z</time>
      </trkpt>
      <trkpt lat="43.15296758897602558135986328125" lon="-1.40803433954715728759765625">
        <ele>845.5999755859375</ele>
        <time>2020-08-22T09:16:06.000Z</time>
      </trkpt>
      <trkpt lat="43.15302408300340175628662109375" lon="-1.4080244489014148712158203125">
        <ele>846.20001220703125</ele>
        <time>2020-08-22T09:16:10.000Z</time>
      </trkpt>
      <trkpt lat="43.15309323370456695556640625" lon="-1.4080080203711986541748046875">
        <ele>846.5999755859375</ele>
        <time>2020-08-22T09:16:14.000Z</time>
      </trkpt>
      <trkpt lat="43.15316389314830303192138671875" lon="-1.40798429958522319793701171875">
        <ele>847</ele>
        <time>2020-08-22T09:16:17.000Z</time>
      </trkpt>
      <trkpt lat="43.15330286510288715362548828125" lon="-1.40799251385033130645751953125">
        <ele>847.5999755859375</ele>
        <time>2020-08-22T09:16:24.000Z</time>
      </trkpt>
      <trkpt lat="43.15332231111824512481689453125" lon="-1.4079929329454898834228515625">
        <ele>847.5999755859375</ele>
        <time>2020-08-22T09:16:25.000Z</time>
      </trkpt>
      <trkpt lat="43.1535044498741626739501953125" lon="-1.4080174081027507781982421875">
        <ele>847.5999755859375</ele>
        <time>2020-08-22T09:16:33.000Z</time>
      </trkpt>
      <trkpt lat="43.15357946790754795074462890625" lon="-1.4080449007451534271240234375">
        <ele>847.4000244140625</ele>
        <time>2020-08-22T09:16:35.000Z</time>
      </trkpt>
      <trkpt lat="43.15366186201572418212890625" lon="-1.40807398594915866851806640625">
        <ele>847</ele>
        <time>2020-08-22T09:16:37.000Z</time>
      </trkpt>
      <trkpt lat="43.15374861471354961395263671875" lon="-1.40807298012077808380126953125">
        <ele>846.79998779296875</ele>
        <time>2020-08-22T09:16:39.000Z</time>
      </trkpt>
      <trkpt lat="43.15383511595427989959716796875" lon="-1.4080462418496608734130859375">
        <ele>846.5999755859375</ele>
        <time>2020-08-22T09:16:41.000Z</time>
      </trkpt>
      <trkpt lat="43.1539215333759784698486328125" lon="-1.40798212029039859771728515625">
        <ele>846.4000244140625</ele>
        <time>2020-08-22T09:16:43.000Z</time>
      </trkpt>
      <trkpt lat="43.15401180647313594818115234375" lon="-1.4078843034803867340087890625">
        <ele>846.20001220703125</ele>
        <time>2020-08-22T09:16:45.000Z</time>
      </trkpt>
      <trkpt lat="43.154212720692157745361328125" lon="-1.4076997339725494384765625">
        <ele>845</ele>
        <time>2020-08-22T09:16:49.000Z</time>
      </trkpt>
      <trkpt lat="43.154507763683795928955078125" lon="-1.40750384889543056488037109375">
        <ele>844.79998779296875</ele>
        <time>2020-08-22T09:16:56.000Z</time>
      </trkpt>
      <trkpt lat="43.154693506658077239990234375" lon="-1.4074635319411754608154296875">
        <ele>845</ele>
        <time>2020-08-22T09:17:00.000Z</time>
      </trkpt>
      <trkpt lat="43.15486860461533069610595703125" lon="-1.40751399099826812744140625">
        <ele>845.5999755859375</ele>
        <time>2020-08-22T09:17:07.000Z</time>
      </trkpt>
      <trkpt lat="43.15496047027409076690673828125" lon="-1.407535783946514129638671875">
        <ele>845.79998779296875</ele>
        <time>2020-08-22T09:17:11.000Z</time>
      </trkpt>
      <trkpt lat="43.1550027988851070404052734375" lon="-1.407553888857364654541015625">
        <ele>846.20001220703125</ele>
        <time>2020-08-22T09:17:14.000Z</time>
      </trkpt>
      <trkpt lat="43.15525375306606292724609375" lon="-1.4076301641762256622314453125">
        <ele>846.5999755859375</ele>
        <time>2020-08-22T09:17:24.000Z</time>
      </trkpt>
      <trkpt lat="43.1554017774760723114013671875" lon="-1.407609544694423675537109375">
        <ele>845.5999755859375</ele>
        <time>2020-08-22T09:17:29.000Z</time>
      </trkpt>
      <trkpt lat="43.15543371252715587615966796875" lon="-1.4075788669288158416748046875">
        <ele>845.4000244140625</ele>
        <time>2020-08-22T09:17:30.000Z</time>
      </trkpt>
      <trkpt lat="43.15546187572181224822998046875" lon="-1.40753813087940216064453125">
        <ele>844.5999755859375</ele>
        <time>2020-08-22T09:17:32.000Z</time>
      </trkpt>
      <trkpt lat="43.15550319850444793701171875" lon="-1.40744182281196117401123046875">
        <ele>843.20001220703125</ele>
        <time>2020-08-22T09:17:34.000Z</time>
      </trkpt>
      <trkpt lat="43.155524991452693939208984375" lon="-1.40733587555587291717529296875">
        <ele>842.5999755859375</ele>
        <time>2020-08-22T09:17:35.000Z</time>
      </trkpt>
      <trkpt lat="43.15553463064134120941162109375" lon="-1.40727820806205272674560546875">
        <ele>842</ele>
        <time>2020-08-22T09:17:36.000Z</time>
      </trkpt>
      <trkpt lat="43.1555442698299884796142578125" lon="-1.40722087584435939788818359375">
        <ele>840.79998779296875</ele>
        <time>2020-08-22T09:17:38.000Z</time>
      </trkpt>
      <trkpt lat="43.15558500587940216064453125" lon="-1.407032869756221771240234375">
        <ele>839.5999755859375</ele>
        <time>2020-08-22T09:17:41.000Z</time>
      </trkpt>
      <trkpt lat="43.15559313632547855377197265625" lon="-1.4070021919906139373779296875">
        <ele>839.4000244140625</ele>
        <time>2020-08-22T09:17:42.000Z</time>
      </trkpt>
      <trkpt lat="43.15561048686504364013671875" lon="-1.406912505626678466796875">
        <ele>838.79998779296875</ele>
        <time>2020-08-22T09:17:45.000Z</time>
      </trkpt>
      <trkpt lat="43.1556428410112857818603515625" lon="-1.40686699189245700836181640625">
        <ele>838.79998779296875</ele>
        <time>2020-08-22T09:17:47.000Z</time>
      </trkpt>
      <trkpt lat="43.155714087188243865966796875" lon="-1.406803540885448455810546875">
        <ele>838.5999755859375</ele>
        <time>2020-08-22T09:17:53.000Z</time>
      </trkpt>
      <trkpt lat="43.155719451606273651123046875" lon="-1.406799852848052978515625">
        <ele>838.4000244140625</ele>
        <time>2020-08-22T09:17:57.000Z</time>
      </trkpt>
      <trkpt lat="43.1557182781398296356201171875" lon="-1.40680362470448017120361328125">
        <ele>838</ele>
        <time>2020-08-22T09:18:37.000Z</time>
      </trkpt>
      <trkpt lat="43.1557182781398296356201171875" lon="-1.406804881989955902099609375">
        <ele>837.79998779296875</ele>
        <time>2020-08-22T09:19:07.000Z</time>
      </trkpt>
      <trkpt lat="43.15571819432079792022705078125" lon="-1.4068100787699222564697265625">
        <ele>837.79998779296875</ele>
        <time>2020-08-22T09:22:20.000Z</time>
      </trkpt>
      <trkpt lat="43.1557310186326503753662109375" lon="-1.40681385062634944915771484375">
        <ele>838</ele>
        <time>2020-08-22T09:22:23.000Z</time>
      </trkpt>
      <trkpt lat="43.15574049018323421478271484375" lon="-1.406815946102142333984375">
        <ele>838</ele>
        <time>2020-08-22T09:22:24.000Z</time>
      </trkpt>
      <trkpt lat="43.15582229755818843841552734375" lon="-1.40687562525272369384765625">
        <ele>838</ele>
        <time>2020-08-22T09:22:30.000Z</time>
      </trkpt>
      <trkpt lat="43.1559331901371479034423828125" lon="-1.4069648087024688720703125">
        <ele>836.79998779296875</ele>
        <time>2020-08-22T09:22:36.000Z</time>
      </trkpt>
      <trkpt lat="43.1559504568576812744140625" lon="-1.40698601491749286651611328125">
        <ele>836.4000244140625</ele>
        <time>2020-08-22T09:22:38.000Z</time>
      </trkpt>
      <trkpt lat="43.15601726062595844268798828125" lon="-1.4070789702236652374267578125">
        <ele>835.5999755859375</ele>
        <time>2020-08-22T09:22:41.000Z</time>
      </trkpt>
      <trkpt lat="43.1560542248189449310302734375" lon="-1.40713554807007312774658203125">
        <ele>835.4000244140625</ele>
        <time>2020-08-22T09:22:44.000Z</time>
      </trkpt>
      <trkpt lat="43.15612421371042728424072265625" lon="-1.4072331972420215606689453125">
        <ele>834.79998779296875</ele>
        <time>2020-08-22T09:22:47.000Z</time>
      </trkpt>
      <trkpt lat="43.1561623513698577880859375" lon="-1.40724241733551025390625">
        <ele>834.4000244140625</ele>
        <time>2020-08-22T09:22:49.000Z</time>
      </trkpt>
      <trkpt lat="43.1561623513698577880859375" lon="-1.40724241733551025390625">
        <ele>834</ele>
        <time>2020-08-22T09:22:50.000Z</time>
      </trkpt>
      <trkpt lat="43.15617978572845458984375" lon="-1.4072318561375141143798828125">
        <ele>833.5999755859375</ele>
        <time>2020-08-22T09:22:53.000Z</time>
      </trkpt>
      <trkpt lat="43.15617986954748630523681640625" lon="-1.40723244287073612213134765625">
        <ele>833.5999755859375</ele>
        <time>2020-08-22T09:22:54.000Z</time>
      </trkpt>
      <trkpt lat="43.15620736218988895416259765625" lon="-1.4071973226964473724365234375">
        <ele>834</ele>
        <time>2020-08-22T09:23:00.000Z</time>
      </trkpt>
      <trkpt lat="43.15621725283563137054443359375" lon="-1.40718877315521240234375">
        <ele>833.4000244140625</ele>
        <time>2020-08-22T09:23:02.000Z</time>
      </trkpt>
      <trkpt lat="43.1562694720923900604248046875" lon="-1.40715901739895343780517578125">
        <ele>832.4000244140625</ele>
        <time>2020-08-22T09:23:06.000Z</time>
      </trkpt>
      <trkpt lat="43.15629939548671245574951171875" lon="-1.40714325942099094390869140625">
        <ele>832</ele>
        <time>2020-08-22T09:23:09.000Z</time>
      </trkpt>
      <trkpt lat="43.15631599165499210357666015625" lon="-1.40714158304035663604736328125">
        <ele>831.20001220703125</ele>
        <time>2020-08-22T09:23:13.000Z</time>
      </trkpt>
      <trkpt lat="43.15632202662527561187744140625" lon="-1.4071379788219928741455078125">
        <ele>830.5999755859375</ele>
        <time>2020-08-22T09:23:16.000Z</time>
      </trkpt>
      <trkpt lat="43.1563432328402996063232421875" lon="-1.40713579952716827392578125">
        <ele>830.20001220703125</ele>
        <time>2020-08-22T09:23:20.000Z</time>
      </trkpt>
      <trkpt lat="43.15636225976049900054931640625" lon="-1.4071121625602245330810546875">
        <ele>829.79998779296875</ele>
        <time>2020-08-22T09:23:23.000Z</time>
      </trkpt>
      <trkpt lat="43.15637198276817798614501953125" lon="-1.4071074686944484710693359375">
        <ele>829.5999755859375</ele>
        <time>2020-08-22T09:23:24.000Z</time>
      </trkpt>
      <trkpt lat="43.1564005650579929351806640625" lon="-1.40709330327808856964111328125">
        <ele>828.79998779296875</ele>
        <time>2020-08-22T09:23:28.000Z</time>
      </trkpt>
      <trkpt lat="43.15642948262393474578857421875" lon="-1.40708148479461669921875">
        <ele>827.4000244140625</ele>
        <time>2020-08-22T09:23:32.000Z</time>
      </trkpt>
      <trkpt lat="43.15646636299788951873779296875" lon="-1.4070585183799266815185546875">
        <ele>826.5999755859375</ele>
        <time>2020-08-22T09:23:36.000Z</time>
      </trkpt>
      <trkpt lat="43.15647357143461704254150390625" lon="-1.40705675818026065826416015625">
        <ele>826.20001220703125</ele>
        <time>2020-08-22T09:23:37.000Z</time>
      </trkpt>
      <trkpt lat="43.15650257281959056854248046875" lon="-1.4070363901555538177490234375">
        <ele>825.20001220703125</ele>
        <time>2020-08-22T09:23:41.000Z</time>
      </trkpt>
      <trkpt lat="43.15653174184262752532958984375" lon="-1.40701669268310070037841796875">
        <ele>824.20001220703125</ele>
        <time>2020-08-22T09:23:44.000Z</time>
      </trkpt>
      <trkpt lat="43.15654121339321136474609375" lon="-1.40701367519795894622802734375">
        <ele>823.20001220703125</ele>
        <time>2020-08-22T09:23:52.000Z</time>
      </trkpt>
      <trkpt lat="43.15654180012643337249755859375" lon="-1.40701333992183208465576171875">
        <ele>823</ele>
        <time>2020-08-22T09:23:55.000Z</time>
      </trkpt>
      <trkpt lat="43.156540878117084503173828125" lon="-1.407013423740863800048828125">
        <ele>822.79998779296875</ele>
        <time>2020-08-22T09:24:06.000Z</time>
      </trkpt>
      <trkpt lat="43.1565407104790210723876953125" lon="-1.4070109091699123382568359375">
        <ele>823</ele>
        <time>2020-08-22T09:24:33.000Z</time>
      </trkpt>
      <trkpt lat="43.1565437279641628265380859375" lon="-1.40700847841799259185791015625">
        <ele>823</ele>
        <time>2020-08-22T09:24:46.000Z</time>
      </trkpt>
      <trkpt lat="43.15659343264997005462646484375" lon="-1.40697729773819446563720703125">
        <ele>822</ele>
        <time>2020-08-22T09:24:53.000Z</time>
      </trkpt>
      <trkpt lat="43.1566191650927066802978515625" lon="-1.40696254558861255645751953125">
        <ele>820.79998779296875</ele>
        <time>2020-08-22T09:24:57.000Z</time>
      </trkpt>
      <trkpt lat="43.156644813716411590576171875" lon="-1.40693731606006622314453125">
        <ele>820</ele>
        <time>2020-08-22T09:25:01.000Z</time>
      </trkpt>
      <trkpt lat="43.156658224761486053466796875" lon="-1.406927593052387237548828125">
        <ele>819.4000244140625</ele>
        <time>2020-08-22T09:25:03.000Z</time>
      </trkpt>
      <trkpt lat="43.156694434583187103271484375" lon="-1.40691317617893218994140625">
        <ele>818.4000244140625</ele>
        <time>2020-08-22T09:25:07.000Z</time>
      </trkpt>
      <trkpt lat="43.15670994110405445098876953125" lon="-1.406905464828014373779296875">
        <ele>817.79998779296875</ele>
        <time>2020-08-22T09:25:10.000Z</time>
      </trkpt>
      <trkpt lat="43.15672620199620723724365234375" lon="-1.40689817257225513458251953125">
        <ele>817.20001220703125</ele>
        <time>2020-08-22T09:25:13.000Z</time>
      </trkpt>
      <trkpt lat="43.156748749315738677978515625" lon="-1.4068888686597347259521484375">
        <ele>816.4000244140625</ele>
        <time>2020-08-22T09:25:17.000Z</time>
      </trkpt>
      <trkpt lat="43.15676207654178142547607421875" lon="-1.40688895247876644134521484375">
        <ele>816</ele>
        <time>2020-08-22T09:25:19.000Z</time>
      </trkpt>
      <trkpt lat="43.156810104846954345703125" lon="-1.4068546704947948455810546875">
        <ele>814.79998779296875</ele>
        <time>2020-08-22T09:25:25.000Z</time>
      </trkpt>
      <trkpt lat="43.1568847037851810455322265625" lon="-1.40681033022701740264892578125">
        <ele>813.79998779296875</ele>
        <time>2020-08-22T09:25:35.000Z</time>
      </trkpt>
      <trkpt lat="43.1569343246519565582275390625" lon="-1.406764648854732513427734375">
        <ele>813</ele>
        <time>2020-08-22T09:25:41.000Z</time>
      </trkpt>
      <trkpt lat="43.15693943761289119720458984375" lon="-1.40675467438995838165283203125">
        <ele>812.79998779296875</ele>
        <time>2020-08-22T09:25:42.000Z</time>
      </trkpt>
      <trkpt lat="43.1569455564022064208984375" lon="-1.40674629248678684234619140625">
        <ele>812.4000244140625</ele>
        <time>2020-08-22T09:25:44.000Z</time>
      </trkpt>
      <trkpt lat="43.15700498409569263458251953125" lon="-1.4066826738417148590087890625">
        <ele>811.79998779296875</ele>
        <time>2020-08-22T09:25:52.000Z</time>
      </trkpt>
      <trkpt lat="43.15705309621989727020263671875" lon="-1.406665407121181488037109375">
        <ele>811.5999755859375</ele>
        <time>2020-08-22T09:25:58.000Z</time>
      </trkpt>
      <trkpt lat="43.1571207381784915924072265625" lon="-1.40664369799196720123291015625">
        <ele>811.5999755859375</ele>
        <time>2020-08-22T09:26:05.000Z</time>
      </trkpt>
      <trkpt lat="43.157155103981494903564453125" lon="-1.4066380821168422698974609375">
        <ele>811.20001220703125</ele>
        <time>2020-08-22T09:26:19.000Z</time>
      </trkpt>
      <trkpt lat="43.15720262937247753143310546875" lon="-1.40662617981433868408203125">
        <ele>810.4000244140625</ele>
        <time>2020-08-22T09:26:23.000Z</time>
      </trkpt>
      <trkpt lat="43.1572689302265644073486328125" lon="-1.40659122727811336517333984375">
        <ele>809.5999755859375</ele>
        <time>2020-08-22T09:26:29.000Z</time>
      </trkpt>
      <trkpt lat="43.15729231573641300201416015625" lon="-1.40657882206141948699951171875">
        <ele>809.20001220703125</ele>
        <time>2020-08-22T09:26:31.000Z</time>
      </trkpt>
      <trkpt lat="43.15737043507397174835205078125" lon="-1.40654412098228931427001953125">
        <ele>808.20001220703125</ele>
        <time>2020-08-22T09:26:37.000Z</time>
      </trkpt>
      <trkpt lat="43.15739206038415431976318359375" lon="-1.4065291173756122589111328125">
        <ele>807.79998779296875</ele>
        <time>2020-08-22T09:26:39.000Z</time>
      </trkpt>
      <trkpt lat="43.15742525272071361541748046875" lon="-1.40648712404072284698486328125">
        <ele>807</ele>
        <time>2020-08-22T09:26:43.000Z</time>
      </trkpt>
      <trkpt lat="43.15744318999350070953369140625" lon="-1.40643901191651821136474609375">
        <ele>806</ele>
        <time>2020-08-22T09:26:48.000Z</time>
      </trkpt>
      <trkpt lat="43.1574516557157039642333984375" lon="-1.40642099082469940185546875">
        <ele>805.4000244140625</ele>
        <time>2020-08-22T09:26:55.000Z</time>
      </trkpt>
      <trkpt lat="43.15746062435209751129150390625" lon="-1.40640581957995891571044921875">
        <ele>805</ele>
        <time>2020-08-22T09:27:00.000Z</time>
      </trkpt>
      <trkpt lat="43.1574791483581066131591796875" lon="-1.40638486482203006744384765625">
        <ele>804.4000244140625</ele>
        <time>2020-08-22T09:27:04.000Z</time>
      </trkpt>
      <trkpt lat="43.1575213931500911712646484375" lon="-1.406358964741230010986328125">
        <ele>803.79998779296875</ele>
        <time>2020-08-22T09:27:10.000Z</time>
      </trkpt>
      <trkpt lat="43.15754570066928863525390625" lon="-1.406365334987640380859375">
        <ele>803</ele>
        <time>2020-08-22T09:27:13.000Z</time>
      </trkpt>
      <trkpt lat="43.15754570066928863525390625" lon="-1.406365334987640380859375">
        <ele>802.79998779296875</ele>
        <time>2020-08-22T09:27:14.000Z</time>
      </trkpt>
      <trkpt lat="43.1575783900916576385498046875" lon="-1.4063532650470733642578125">
        <ele>801.5999755859375</ele>
        <time>2020-08-22T09:27:19.000Z</time>
      </trkpt>
      <trkpt lat="43.1575928069651126861572265625" lon="-1.4063537679612636566162109375">
        <ele>801.20001220703125</ele>
        <time>2020-08-22T09:27:22.000Z</time>
      </trkpt>
      <trkpt lat="43.1576310284435749053955078125" lon="-1.40635200776159763336181640625">
        <ele>800.5999755859375</ele>
        <time>2020-08-22T09:27:26.000Z</time>
      </trkpt>
      <trkpt lat="43.15765927545726299285888671875" lon="-1.40633574686944484710693359375">
        <ele>800.5999755859375</ele>
        <time>2020-08-22T09:27:29.000Z</time>
      </trkpt>
      <trkpt lat="43.1576759554445743560791015625" lon="-1.4063329808413982391357421875">
        <ele>801.20001220703125</ele>
        <time>2020-08-22T09:27:37.000Z</time>
      </trkpt>
      <trkpt lat="43.15770001150667667388916015625" lon="-1.40631965361535549163818359375">
        <ele>801</ele>
        <time>2020-08-22T09:27:51.000Z</time>
      </trkpt>
      <trkpt lat="43.1577825732529163360595703125" lon="-1.4063004590570926666259765625">
        <ele>801.79998779296875</ele>
        <time>2020-08-22T09:28:01.000Z</time>
      </trkpt>
      <trkpt lat="43.1577825732529163360595703125" lon="-1.4063004590570926666259765625">
        <ele>801.79998779296875</ele>
        <time>2020-08-22T09:28:02.000Z</time>
      </trkpt>
      <trkpt lat="43.15786479972302913665771484375" lon="-1.40627288259565830230712890625">
        <ele>802.79998779296875</ele>
        <time>2020-08-22T09:28:13.000Z</time>
      </trkpt>
      <trkpt lat="43.15786479972302913665771484375" lon="-1.40627288259565830230712890625">
        <ele>803</ele>
        <time>2020-08-22T09:28:14.000Z</time>
      </trkpt>
      <trkpt lat="43.15787703730165958404541015625" lon="-1.40626248903572559356689453125">
        <ele>803</ele>
        <time>2020-08-22T09:28:15.000Z</time>
      </trkpt>
      <trkpt lat="43.15792112611234188079833984375" lon="-1.40623197890818119049072265625">
        <ele>803.4000244140625</ele>
        <time>2020-08-22T09:28:21.000Z</time>
      </trkpt>
      <trkpt lat="43.1579512171447277069091796875" lon="-1.40622007660567760467529296875">
        <ele>803.79998779296875</ele>
        <time>2020-08-22T09:28:29.000Z</time>
      </trkpt>
      <trkpt lat="43.1579528935253620147705078125" lon="-1.40621722675859928131103515625">
        <ele>803.5999755859375</ele>
        <time>2020-08-22T09:28:51.000Z</time>
      </trkpt>
      <trkpt lat="43.1579542346298694610595703125" lon="-1.406217478215694427490234375">
        <ele>803.4000244140625</ele>
        <time>2020-08-22T09:28:56.000Z</time>
      </trkpt>
      <trkpt lat="43.1581178493797779083251953125" lon="-1.40618235804140567779541015625">
        <ele>801.4000244140625</ele>
        <time>2020-08-22T09:47:14.000Z</time>
      </trkpt>
      <trkpt lat="43.15813352353870868682861328125" lon="-1.40619023703038692474365234375">
        <ele>801.4000244140625</ele>
        <time>2020-08-22T09:47:17.000Z</time>
      </trkpt>
      <trkpt lat="43.1582090444862842559814453125" lon="-1.40619325451552867889404296875">
        <ele>801</ele>
        <time>2020-08-22T09:47:21.000Z</time>
      </trkpt>
      <trkpt lat="43.15828037448227405548095703125" lon="-1.4062005467712879180908203125">
        <ele>800.79998779296875</ele>
        <time>2020-08-22T09:47:24.000Z</time>
      </trkpt>
      <trkpt lat="43.15843812189996242523193359375" lon="-1.40623499639332294464111328125">
        <ele>800.20001220703125</ele>
        <time>2020-08-22T09:47:29.000Z</time>
      </trkpt>
      <trkpt lat="43.1584719009697437286376953125" lon="-1.40624270774424076080322265625">
        <ele>800</ele>
        <time>2020-08-22T09:47:30.000Z</time>
      </trkpt>
      <trkpt lat="43.1586304865777492523193359375" lon="-1.40623390674591064453125">
        <ele>799</ele>
        <time>2020-08-22T09:47:35.000Z</time>
      </trkpt>
      <trkpt lat="43.15865420736372470855712890625" lon="-1.406224854290485382080078125">
        <ele>798.79998779296875</ele>
        <time>2020-08-22T09:47:36.000Z</time>
      </trkpt>
      <trkpt lat="43.15869511105120182037353515625" lon="-1.4062209986150264739990234375">
        <ele>798</ele>
        <time>2020-08-22T09:47:38.000Z</time>
      </trkpt>
      <trkpt lat="43.158749006688594818115234375" lon="-1.40626751817762851715087890625">
        <ele>797.5999755859375</ele>
        <time>2020-08-22T09:47:41.000Z</time>
      </trkpt>
      <trkpt lat="43.15880357287824153900146484375" lon="-1.4063272811472415924072265625">
        <ele>796.5999755859375</ele>
        <time>2020-08-22T09:47:44.000Z</time>
      </trkpt>
      <trkpt lat="43.158859312534332275390625" lon="-1.406383775174617767333984375">
        <ele>795.5999755859375</ele>
        <time>2020-08-22T09:47:47.000Z</time>
      </trkpt>
      <trkpt lat="43.1589278765022754669189453125" lon="-1.40643867664039134979248046875">
        <ele>794.5999755859375</ele>
        <time>2020-08-22T09:47:50.000Z</time>
      </trkpt>
      <trkpt lat="43.158952854573726654052734375" lon="-1.40645996667444705963134765625">
        <ele>794.4000244140625</ele>
        <time>2020-08-22T09:47:51.000Z</time>
      </trkpt>
      <trkpt lat="43.15902938134968280792236328125" lon="-1.4065224118530750274658203125">
        <ele>793</ele>
        <time>2020-08-22T09:47:54.000Z</time>
      </trkpt>
      <trkpt lat="43.15910414792597293853759765625" lon="-1.406580246984958648681640625">
        <ele>791.5999755859375</ele>
        <time>2020-08-22T09:47:57.000Z</time>
      </trkpt>
      <trkpt lat="43.1591441296041011810302734375" lon="-1.40660941600799560546875">
        <ele>790.4000244140625</ele>
        <time>2020-08-22T09:47:59.000Z</time>
      </trkpt>
      <trkpt lat="43.1592323072254657745361328125" lon="-1.406658031046390533447265625">
        <ele>789.4000244140625</ele>
        <time>2020-08-22T09:48:03.000Z</time>
      </trkpt>
      <trkpt lat="43.15930522978305816650390625" lon="-1.40668393112719058990478515625">
        <ele>788.20001220703125</ele>
        <time>2020-08-22T09:48:06.000Z</time>
      </trkpt>
      <trkpt lat="43.15935040824115276336669921875" lon="-1.406702287495136260986328125">
        <ele>787</ele>
        <time>2020-08-22T09:48:08.000Z</time>
      </trkpt>
      <trkpt lat="43.159425258636474609375" lon="-1.40671980567276477813720703125">
        <ele>785.5999755859375</ele>
        <time>2020-08-22T09:48:11.000Z</time>
      </trkpt>
      <trkpt lat="43.15946389921009540557861328125" lon="-1.40672835521399974822998046875">
        <ele>785.20001220703125</ele>
        <time>2020-08-22T09:48:13.000Z</time>
      </trkpt>
      <trkpt lat="43.1595266796648502349853515625" lon="-1.40675115399062633514404296875">
        <ele>784.5999755859375</ele>
        <time>2020-08-22T09:48:17.000Z</time>
      </trkpt>
      <trkpt lat="43.15960169769823551177978515625" lon="-1.40677864663302898406982421875">
        <ele>783.5999755859375</ele>
        <time>2020-08-22T09:48:21.000Z</time>
      </trkpt>
      <trkpt lat="43.15964729525148868560791015625" lon="-1.40680312179028987884521484375">
        <ele>783.20001220703125</ele>
        <time>2020-08-22T09:48:24.000Z</time>
      </trkpt>
      <trkpt lat="43.159662969410419464111328125" lon="-1.40680647455155849456787109375">
        <ele>782</ele>
        <time>2020-08-22T09:48:26.000Z</time>
      </trkpt>
      <trkpt lat="43.15966456197202205657958984375" lon="-1.406806893646717071533203125">
        <ele>781.79998779296875</ele>
        <time>2020-08-22T09:48:27.000Z</time>
      </trkpt>
      <trkpt lat="43.1597184576094150543212890625" lon="-1.40682826749980449676513671875">
        <ele>781.20001220703125</ele>
        <time>2020-08-22T09:48:32.000Z</time>
      </trkpt>
      <trkpt lat="43.15976313315331935882568359375" lon="-1.40684419311583042144775390625">
        <ele>781</ele>
        <time>2020-08-22T09:48:34.000Z</time>
      </trkpt>
      <trkpt lat="43.15983890555799007415771484375" lon="-1.4068751223385334014892578125">
        <ele>779.5999755859375</ele>
        <time>2020-08-22T09:48:37.000Z</time>
      </trkpt>
      <trkpt lat="43.15989456139504909515380859375" lon="-1.4069031178951263427734375">
        <ele>779</ele>
        <time>2020-08-22T09:48:42.000Z</time>
      </trkpt>
      <trkpt lat="43.15989623777568340301513671875" lon="-1.40690403990447521209716796875">
        <ele>778.79998779296875</ele>
        <time>2020-08-22T09:48:45.000Z</time>
      </trkpt>
      <trkpt lat="43.15990042872726917266845703125" lon="-1.4069113321602344512939453125">
        <ele>779</ele>
        <time>2020-08-22T09:48:50.000Z</time>
      </trkpt>
      <trkpt lat="43.1599404104053974151611328125" lon="-1.4069505594670772552490234375">
        <ele>778.79998779296875</ele>
        <time>2020-08-22T09:48:56.000Z</time>
      </trkpt>
      <trkpt lat="43.159953989088535308837890625" lon="-1.40698132105171680450439453125">
        <ele>778.5999755859375</ele>
        <time>2020-08-22T09:48:59.000Z</time>
      </trkpt>
      <trkpt lat="43.1599585153162479400634765625" lon="-1.40704385004937648773193359375">
        <ele>778</ele>
        <time>2020-08-22T09:49:04.000Z</time>
      </trkpt>
      <trkpt lat="43.15995491109788417816162109375" lon="-1.40714828856289386749267578125">
        <ele>777.79998779296875</ele>
        <time>2020-08-22T09:49:13.000Z</time>
      </trkpt>
      <trkpt lat="43.15995625220239162445068359375" lon="-1.407156921923160552978515625">
        <ele>777.4000244140625</ele>
        <time>2020-08-22T09:49:14.000Z</time>
      </trkpt>
      <trkpt lat="43.1599605269730091094970703125" lon="-1.4072432555258274078369140625">
        <ele>776.4000244140625</ele>
        <time>2020-08-22T09:49:21.000Z</time>
      </trkpt>
      <trkpt lat="43.159962035715579986572265625" lon="-1.40725691802799701690673828125">
        <ele>776.4000244140625</ele>
        <time>2020-08-22T09:49:22.000Z</time>
      </trkpt>
      <trkpt lat="43.1599736027419567108154296875" lon="-1.40734274871647357940673828125">
        <ele>775.5999755859375</ele>
        <time>2020-08-22T09:49:29.000Z</time>
      </trkpt>
      <trkpt lat="43.15998424775898456573486328125" lon="-1.4074159227311611175537109375">
        <ele>775.20001220703125</ele>
        <time>2020-08-22T09:49:34.000Z</time>
      </trkpt>
      <trkpt lat="43.15999849699437618255615234375" lon="-1.40747937373816967010498046875">
        <ele>774.79998779296875</ele>
        <time>2020-08-22T09:49:38.000Z</time>
      </trkpt>
      <trkpt lat="43.1600041128695011138916015625" lon="-1.40755481086671352386474609375">
        <ele>774.20001220703125</ele>
        <time>2020-08-22T09:49:43.000Z</time>
      </trkpt>
      <trkpt lat="43.16000587306916713714599609375" lon="-1.40763510949909687042236328125">
        <ele>774.4000244140625</ele>
        <time>2020-08-22T09:49:48.000Z</time>
      </trkpt>
      <trkpt lat="43.1600004248321056365966796875" lon="-1.40772588551044464111328125">
        <ele>774</ele>
        <time>2020-08-22T09:49:56.000Z</time>
      </trkpt>
      <trkpt lat="43.1599994190037250518798828125" lon="-1.4077786915004253387451171875">
        <ele>773.5999755859375</ele>
        <time>2020-08-22T09:50:02.000Z</time>
      </trkpt>
      <trkpt lat="43.159993551671504974365234375" lon="-1.40796862542629241943359375">
        <ele>773</ele>
        <time>2020-08-22T09:50:07.000Z</time>
      </trkpt>
      <trkpt lat="43.15999145619571208953857421875" lon="-1.40801933594048023223876953125">
        <ele>772.79998779296875</ele>
        <time>2020-08-22T09:50:08.000Z</time>
      </trkpt>
      <trkpt lat="43.15998793579638004302978515625" lon="-1.408217065036296844482421875">
        <ele>771.4000244140625</ele>
        <time>2020-08-22T09:50:12.000Z</time>
      </trkpt>
      <trkpt lat="43.15998743288218975067138671875" lon="-1.4083064161241054534912109375">
        <ele>770.20001220703125</ele>
        <time>2020-08-22T09:50:14.000Z</time>
      </trkpt>
      <trkpt lat="43.159985840320587158203125" lon="-1.40834815800189971923828125">
        <ele>770</ele>
        <time>2020-08-22T09:50:15.000Z</time>
      </trkpt>
      <trkpt lat="43.159983158111572265625" lon="-1.408455781638622283935546875">
        <ele>768.79998779296875</ele>
        <time>2020-08-22T09:50:18.000Z</time>
      </trkpt>
      <trkpt lat="43.15998391248285770416259765625" lon="-1.4085622318089008331298828125">
        <ele>768.20001220703125</ele>
        <time>2020-08-22T09:50:21.000Z</time>
      </trkpt>
      <trkpt lat="43.1599816493690013885498046875" lon="-1.4086665026843547821044921875">
        <ele>767.79998779296875</ele>
        <time>2020-08-22T09:50:24.000Z</time>
      </trkpt>
      <trkpt lat="43.1599829904735088348388671875" lon="-1.40876046381890773773193359375">
        <ele>766.5999755859375</ele>
        <time>2020-08-22T09:50:27.000Z</time>
      </trkpt>
      <trkpt lat="43.1599863432347774505615234375" lon="-1.408792398869991302490234375">
        <ele>766.4000244140625</ele>
        <time>2020-08-22T09:50:28.000Z</time>
      </trkpt>
      <trkpt lat="43.160010986030101776123046875" lon="-1.4089115895330905914306640625">
        <ele>765.5999755859375</ele>
        <time>2020-08-22T09:50:32.000Z</time>
      </trkpt>
      <trkpt lat="43.16003747284412384033203125" lon="-1.40900186263024806976318359375">
        <ele>765.20001220703125</ele>
        <time>2020-08-22T09:50:35.000Z</time>
      </trkpt>
      <trkpt lat="43.16012104041874408721923828125" lon="-1.4092753641307353973388671875">
        <ele>764.4000244140625</ele>
        <time>2020-08-22T09:50:44.000Z</time>
      </trkpt>
      <trkpt lat="43.16021122969686985015869140625" lon="-1.4095209538936614990234375">
        <ele>763.4000244140625</ele>
        <time>2020-08-22T09:50:52.000Z</time>
      </trkpt>
      <trkpt lat="43.1602190248668193817138671875" lon="-1.40954618342220783233642578125">
        <ele>763.4000244140625</ele>
        <time>2020-08-22T09:50:53.000Z</time>
      </trkpt>
      <trkpt lat="43.1602693162858486175537109375" lon="-1.40967023558914661407470703125">
        <ele>762.4000244140625</ele>
        <time>2020-08-22T09:50:59.000Z</time>
      </trkpt>
      <trkpt lat="43.1602756865322589874267578125" lon="-1.4096770249307155609130859375">
        <ele>761.79998779296875</ele>
        <time>2020-08-22T09:51:00.000Z</time>
      </trkpt>
      <trkpt lat="43.1602941267192363739013671875" lon="-1.409718431532382965087890625">
        <ele>761.79998779296875</ele>
        <time>2020-08-22T09:51:06.000Z</time>
      </trkpt>
      <trkpt lat="43.16031583584845066070556640625" lon="-1.4097826369106769561767578125">
        <ele>761.4000244140625</ele>
        <time>2020-08-22T09:51:11.000Z</time>
      </trkpt>
      <trkpt lat="43.1603330187499523162841796875" lon="-1.409828402101993560791015625">
        <ele>760.5999755859375</ele>
        <time>2020-08-22T09:51:15.000Z</time>
      </trkpt>
      <trkpt lat="43.1603387184441089630126953125" lon="-1.40985111705958843231201171875">
        <ele>760.20001220703125</ele>
        <time>2020-08-22T09:51:17.000Z</time>
      </trkpt>
      <trkpt lat="43.160339556634426116943359375" lon="-1.4099268056452274322509765625">
        <ele>759.4000244140625</ele>
        <time>2020-08-22T09:51:23.000Z</time>
      </trkpt>
      <trkpt lat="43.16034584306180477142333984375" lon="-1.40995387919247150421142578125">
        <ele>759.20001220703125</ele>
        <time>2020-08-22T09:51:25.000Z</time>
      </trkpt>
      <trkpt lat="43.16035456024110317230224609375" lon="-1.40997936017811298370361328125">
        <ele>758.79998779296875</ele>
        <time>2020-08-22T09:51:27.000Z</time>
      </trkpt>
      <trkpt lat="43.16037165932357311248779296875" lon="-1.4100106246769428253173828125">
        <ele>758.20001220703125</ele>
        <time>2020-08-22T09:51:30.000Z</time>
      </trkpt>
      <trkpt lat="43.1603802926838397979736328125" lon="-1.41003987751901149749755859375">
        <ele>757.5999755859375</ele>
        <time>2020-08-22T09:51:33.000Z</time>
      </trkpt>
      <trkpt lat="43.160385824739933013916015625" lon="-1.4100766740739345550537109375">
        <ele>757</ele>
        <time>2020-08-22T09:51:37.000Z</time>
      </trkpt>
      <trkpt lat="43.16038590855896472930908203125" lon="-1.410120427608489990234375">
        <ele>756</ele>
        <time>2020-08-22T09:51:41.000Z</time>
      </trkpt>
      <trkpt lat="43.1603876687586307525634765625" lon="-1.41013140790164470672607421875">
        <ele>755.79998779296875</ele>
        <time>2020-08-22T09:51:42.000Z</time>
      </trkpt>
      <trkpt lat="43.1603906862437725067138671875" lon="-1.4101407118141651153564453125">
        <ele>755.5999755859375</ele>
        <time>2020-08-22T09:51:43.000Z</time>
      </trkpt>
      <trkpt lat="43.16041625104844570159912109375" lon="-1.41018236987292766571044921875">
        <ele>755.20001220703125</ele>
        <time>2020-08-22T09:51:47.000Z</time>
      </trkpt>
      <trkpt lat="43.160441480576992034912109375" lon="-1.4102439768612384796142578125">
        <ele>754.79998779296875</ele>
        <time>2020-08-22T09:51:52.000Z</time>
      </trkpt>
      <trkpt lat="43.16045262850821018218994140625" lon="-1.4102909155189990997314453125">
        <ele>755.20001220703125</ele>
        <time>2020-08-22T09:51:56.000Z</time>
      </trkpt>
      <trkpt lat="43.1604664586484432220458984375" lon="-1.41035470180213451385498046875">
        <ele>755.20001220703125</ele>
        <time>2020-08-22T09:52:01.000Z</time>
      </trkpt>
      <trkpt lat="43.1604771874845027923583984375" lon="-1.4103738963603973388671875">
        <ele>754.5999755859375</ele>
        <time>2020-08-22T09:52:03.000Z</time>
      </trkpt>
      <trkpt lat="43.16048716194927692413330078125" lon="-1.41039912588894367218017578125">
        <ele>754.20001220703125</ele>
        <time>2020-08-22T09:52:05.000Z</time>
      </trkpt>
      <trkpt lat="43.1604956276714801788330078125" lon="-1.4104250259697437286376953125">
        <ele>753.5999755859375</ele>
        <time>2020-08-22T09:52:07.000Z</time>
      </trkpt>
      <trkpt lat="43.16052068956196308135986328125" lon="-1.41048830933868885040283203125">
        <ele>753</ele>
        <time>2020-08-22T09:52:12.000Z</time>
      </trkpt>
      <trkpt lat="43.160537369549274444580078125" lon="-1.41054748557507991790771484375">
        <ele>752.4000244140625</ele>
        <time>2020-08-22T09:52:17.000Z</time>
      </trkpt>
      <trkpt lat="43.1605392135679721832275390625" lon="-1.41056559048593044281005859375">
        <ele>752.20001220703125</ele>
        <time>2020-08-22T09:52:19.000Z</time>
      </trkpt>
      <trkpt lat="43.16057701595127582550048828125" lon="-1.4106670953333377838134765625">
        <ele>751.4000244140625</ele>
        <time>2020-08-22T09:52:27.000Z</time>
      </trkpt>
      <trkpt lat="43.16058221273124217987060546875" lon="-1.410680674016475677490234375">
        <ele>751.4000244140625</ele>
        <time>2020-08-22T09:52:28.000Z</time>
      </trkpt>
      <trkpt lat="43.16064557991921901702880859375" lon="-1.410787962377071380615234375">
        <ele>750.4000244140625</ele>
        <time>2020-08-22T09:52:37.000Z</time>
      </trkpt>
      <trkpt lat="43.1606666184961795806884765625" lon="-1.41082308255136013031005859375">
        <ele>750.4000244140625</ele>
        <time>2020-08-22T09:52:40.000Z</time>
      </trkpt>
      <trkpt lat="43.16067290492355823516845703125" lon="-1.4108763076364994049072265625">
        <ele>750.20001220703125</ele>
        <time>2020-08-22T09:52:44.000Z</time>
      </trkpt>
      <trkpt lat="43.16064122132956981658935546875" lon="-1.41088963486254215240478515625">
        <ele>749.79998779296875</ele>
        <time>2020-08-22T09:52:48.000Z</time>
      </trkpt>
      <trkpt lat="43.16063149832189083099365234375" lon="-1.4108867011964321136474609375">
        <ele>749.5999755859375</ele>
        <time>2020-08-22T09:52:49.000Z</time>
      </trkpt>
      <trkpt lat="43.160605095326900482177734375" lon="-1.41086407005786895751953125">
        <ele>749.20001220703125</ele>
        <time>2020-08-22T09:52:52.000Z</time>
      </trkpt>
      <trkpt lat="43.16058640368282794952392578125" lon="-1.41082174144685268402099609375">
        <ele>749.20001220703125</ele>
        <time>2020-08-22T09:52:55.000Z</time>
      </trkpt>
      <trkpt lat="43.16053359769284725189208984375" lon="-1.4107385091483592987060546875">
        <ele>748.5999755859375</ele>
        <time>2020-08-22T09:53:03.000Z</time>
      </trkpt>
      <trkpt lat="43.16052722744643688201904296875" lon="-1.4107279479503631591796875">
        <ele>748.20001220703125</ele>
        <time>2020-08-22T09:53:04.000Z</time>
      </trkpt>
      <trkpt lat="43.16049202345311641693115234375" lon="-1.410688050091266632080078125">
        <ele>747</ele>
        <time>2020-08-22T09:53:08.000Z</time>
      </trkpt>
      <trkpt lat="43.1604708172380924224853515625" lon="-1.41065217554569244384765625">
        <ele>746.79998779296875</ele>
        <time>2020-08-22T09:53:11.000Z</time>
      </trkpt>
      <trkpt lat="43.16042236983776092529296875" lon="-1.41057849861681461334228515625">
        <ele>745.79998779296875</ele>
        <time>2020-08-22T09:53:18.000Z</time>
      </trkpt>
      <trkpt lat="43.16036981530487537384033203125" lon="-1.4105222560465335845947265625">
        <ele>745.5999755859375</ele>
        <time>2020-08-22T09:53:25.000Z</time>
      </trkpt>
      <trkpt lat="43.1603266485035419464111328125" lon="-1.410495936870574951171875">
        <ele>744.5999755859375</ele>
        <time>2020-08-22T09:53:30.000Z</time>
      </trkpt>
      <trkpt lat="43.16031776368618011474609375" lon="-1.41049216501414775848388671875">
        <ele>744.5999755859375</ele>
        <time>2020-08-22T09:53:31.000Z</time>
      </trkpt>
      <trkpt lat="43.1602446734905242919921875" lon="-1.41048730351030826568603515625">
        <ele>743.4000244140625</ele>
        <time>2020-08-22T09:53:38.000Z</time>
      </trkpt>
      <trkpt lat="43.1602280773222446441650390625" lon="-1.4104974456131458282470703125">
        <ele>743</ele>
        <time>2020-08-22T09:53:40.000Z</time>
      </trkpt>
      <trkpt lat="43.16021106205880641937255859375" lon="-1.4105199091136455535888671875">
        <ele>743.20001220703125</ele>
        <time>2020-08-22T09:53:43.000Z</time>
      </trkpt>
      <trkpt lat="43.16020502708852291107177734375" lon="-1.4105316437780857086181640625">
        <ele>743.20001220703125</ele>
        <time>2020-08-22T09:53:44.000Z</time>
      </trkpt>
      <trkpt lat="43.16020033322274684906005859375" lon="-1.41056894324719905853271484375">
        <ele>742.79998779296875</ele>
        <time>2020-08-22T09:53:48.000Z</time>
      </trkpt>
      <trkpt lat="43.16019974648952484130859375" lon="-1.41059241257607936859130859375">
        <ele>742.4000244140625</ele>
        <time>2020-08-22T09:53:51.000Z</time>
      </trkpt>
      <trkpt lat="43.1601979024708271026611328125" lon="-1.410632394254207611083984375">
        <ele>742.20001220703125</ele>
        <time>2020-08-22T09:53:56.000Z</time>
      </trkpt>
      <trkpt lat="43.16022028215229511260986328125" lon="-1.41069768927991390228271484375">
        <ele>742.4000244140625</ele>
        <time>2020-08-22T09:54:04.000Z</time>
      </trkpt>
      <trkpt lat="43.16027912311255931854248046875" lon="-1.410769186913967132568359375">
        <ele>743.4000244140625</ele>
        <time>2020-08-22T09:54:14.000Z</time>
      </trkpt>
      <trkpt lat="43.1602958030998706817626953125" lon="-1.4107958413660526275634765625">
        <ele>743.4000244140625</ele>
        <time>2020-08-22T09:54:22.000Z</time>
      </trkpt>
      <trkpt lat="43.1603061966598033905029296875" lon="-1.410828866064548492431640625">
        <ele>743.5999755859375</ele>
        <time>2020-08-22T09:54:24.000Z</time>
      </trkpt>
      <trkpt lat="43.160329163074493408203125" lon="-1.41089784912765026092529296875">
        <ele>743.79998779296875</ele>
        <time>2020-08-22T09:54:27.000Z</time>
      </trkpt>
      <trkpt lat="43.160358332097530364990234375" lon="-1.41096171922981739044189453125">
        <ele>744</ele>
        <time>2020-08-22T09:54:30.000Z</time>
      </trkpt>
      <trkpt lat="43.16037409007549285888671875" lon="-1.41100622713565826416015625">
        <ele>744</ele>
        <time>2020-08-22T09:54:32.000Z</time>
      </trkpt>
      <trkpt lat="43.16040988080203533172607421875" lon="-1.4110793173313140869140625">
        <ele>744.5999755859375</ele>
        <time>2020-08-22T09:54:36.000Z</time>
      </trkpt>
      <trkpt lat="43.16041407175362110137939453125" lon="-1.4111012779176235198974609375">
        <ele>744.79998779296875</ele>
        <time>2020-08-22T09:54:37.000Z</time>
      </trkpt>
      <trkpt lat="43.1604215316474437713623046875" lon="-1.411124579608440399169921875">
        <ele>744.79998779296875</ele>
        <time>2020-08-22T09:54:38.000Z</time>
      </trkpt>
      <trkpt lat="43.1604463420808315277099609375" lon="-1.41122591681778430938720703125">
        <ele>744.5999755859375</ele>
        <time>2020-08-22T09:54:43.000Z</time>
      </trkpt>
      <trkpt lat="43.16046553663909435272216796875" lon="-1.4113118313252925872802734375">
        <ele>745</ele>
        <time>2020-08-22T09:54:47.000Z</time>
      </trkpt>
      <trkpt lat="43.16047710366547107696533203125" lon="-1.41134376637637615203857421875">
        <ele>745.20001220703125</ele>
        <time>2020-08-22T09:54:49.000Z</time>
      </trkpt>
      <trkpt lat="43.16050694324076175689697265625" lon="-1.41147335059940814971923828125">
        <ele>745.5999755859375</ele>
        <time>2020-08-22T09:54:55.000Z</time>
      </trkpt>
      <trkpt lat="43.1605075299739837646484375" lon="-1.411492712795734405517578125">
        <ele>745.79998779296875</ele>
        <time>2020-08-22T09:54:56.000Z</time>
      </trkpt>
      <trkpt lat="43.1605182588100433349609375" lon="-1.41157527454197406768798828125">
        <ele>746</ele>
        <time>2020-08-22T09:55:00.000Z</time>
      </trkpt>
      <trkpt lat="43.1605325080454349517822265625" lon="-1.411618106067180633544921875">
        <ele>746</ele>
        <time>2020-08-22T09:55:02.000Z</time>
      </trkpt>
      <trkpt lat="43.16054977476596832275390625" lon="-1.41173805110156536102294921875">
        <ele>746</ele>
        <time>2020-08-22T09:55:08.000Z</time>
      </trkpt>
      <trkpt lat="43.160571567714214324951171875" lon="-1.41179622150957584381103515625">
        <ele>746</ele>
        <time>2020-08-22T09:55:11.000Z</time>
      </trkpt>
      <trkpt lat="43.16059394739568233489990234375" lon="-1.41185170970857143402099609375">
        <ele>745.79998779296875</ele>
        <time>2020-08-22T09:55:13.000Z</time>
      </trkpt>
      <trkpt lat="43.16067072562873363494873046875" lon="-1.412094198167324066162109375">
        <ele>745.4000244140625</ele>
        <time>2020-08-22T09:55:21.000Z</time>
      </trkpt>
      <trkpt lat="43.16071297042071819305419921875" lon="-1.412209533154964447021484375">
        <ele>744.5999755859375</ele>
        <time>2020-08-22T09:55:25.000Z</time>
      </trkpt>
      <trkpt lat="43.16077264957129955291748046875" lon="-1.4123347587883472442626953125">
        <ele>744.5999755859375</ele>
        <time>2020-08-22T09:55:31.000Z</time>
      </trkpt>
      <trkpt lat="43.16082478500902652740478515625" lon="-1.412446238100528717041015625">
        <ele>744.79998779296875</ele>
        <time>2020-08-22T09:55:37.000Z</time>
      </trkpt>
      <trkpt lat="43.16085261292755603790283203125" lon="-1.4125116169452667236328125">
        <ele>745</ele>
        <time>2020-08-22T09:55:40.000Z</time>
      </trkpt>
      <trkpt lat="43.160872645676136016845703125" lon="-1.4125536940991878509521484375">
        <ele>745.20001220703125</ele>
        <time>2020-08-22T09:55:42.000Z</time>
      </trkpt>
      <trkpt lat="43.16089401952922344207763671875" lon="-1.412609852850437164306640625">
        <ele>745.4000244140625</ele>
        <time>2020-08-22T09:55:45.000Z</time>
      </trkpt>
      <trkpt lat="43.16090919077396392822265625" lon="-1.412641704082489013671875">
        <ele>745.5999755859375</ele>
        <time>2020-08-22T09:55:47.000Z</time>
      </trkpt>
      <trkpt lat="43.16092670895159244537353515625" lon="-1.4127032272517681121826171875">
        <ele>746</ele>
        <time>2020-08-22T09:55:51.000Z</time>
      </trkpt>
      <trkpt lat="43.1609378568828105926513671875" lon="-1.4127149619162082672119140625">
        <ele>746.4000244140625</ele>
        <time>2020-08-22T09:55:52.000Z</time>
      </trkpt>
      <trkpt lat="43.16097884438931941986083984375" lon="-1.41281462274491786956787109375">
        <ele>747</ele>
        <time>2020-08-22T09:55:58.000Z</time>
      </trkpt>
      <trkpt lat="43.16098588518798351287841796875" lon="-1.41283012926578521728515625">
        <ele>747.20001220703125</ele>
        <time>2020-08-22T09:55:59.000Z</time>
      </trkpt>
      <trkpt lat="43.1610377691686153411865234375" lon="-1.41294387169182300567626953125">
        <ele>748</ele>
        <time>2020-08-22T09:56:05.000Z</time>
      </trkpt>
      <trkpt lat="43.16110122017562389373779296875" lon="-1.41307152807712554931640625">
        <ele>747.5999755859375</ele>
        <time>2020-08-22T09:56:11.000Z</time>
      </trkpt>
      <trkpt lat="43.16120046190917491912841796875" lon="-1.41317202709615230560302734375">
        <ele>747</ele>
        <time>2020-08-22T09:56:17.000Z</time>
      </trkpt>
      <trkpt lat="43.1612137891352176666259765625" lon="-1.413183510303497314453125">
        <ele>746.4000244140625</ele>
        <time>2020-08-22T09:56:18.000Z</time>
      </trkpt>
      <trkpt lat="43.16124957986176013946533203125" lon="-1.41323841176927089691162109375">
        <ele>745.5999755859375</ele>
        <time>2020-08-22T09:56:21.000Z</time>
      </trkpt>
      <trkpt lat="43.16126232035458087921142578125" lon="-1.4132545888423919677734375">
        <ele>745.4000244140625</ele>
        <time>2020-08-22T09:56:22.000Z</time>
      </trkpt>
      <trkpt lat="43.16127623431384563446044921875" lon="-1.41326540149748325347900390625">
        <ele>745.4000244140625</ele>
        <time>2020-08-22T09:56:23.000Z</time>
      </trkpt>
      <trkpt lat="43.1613150425255298614501953125" lon="-1.41331158578395843505859375">
        <ele>744.79998779296875</ele>
        <time>2020-08-22T09:56:26.000Z</time>
      </trkpt>
      <trkpt lat="43.16132484935224056243896484375" lon="-1.4133295230567455291748046875">
        <ele>744.4000244140625</ele>
        <time>2020-08-22T09:56:27.000Z</time>
      </trkpt>
      <trkpt lat="43.16133909858763217926025390625" lon="-1.4133516512811183929443359375">
        <ele>744.4000244140625</ele>
        <time>2020-08-22T09:56:28.000Z</time>
      </trkpt>
      <trkpt lat="43.16138704307377338409423828125" lon="-1.4134532399475574493408203125">
        <ele>743.5999755859375</ele>
        <time>2020-08-22T09:56:32.000Z</time>
      </trkpt>
      <trkpt lat="43.161394335329532623291015625" lon="-1.41348266042768955230712890625">
        <ele>743.4000244140625</ele>
        <time>2020-08-22T09:56:33.000Z</time>
      </trkpt>
      <trkpt lat="43.1613998673856258392333984375" lon="-1.41350931487977504730224609375">
        <ele>743</ele>
        <time>2020-08-22T09:56:34.000Z</time>
      </trkpt>
      <trkpt lat="43.161415122449398040771484375" lon="-1.4136409945785999298095703125">
        <ele>742.20001220703125</ele>
        <time>2020-08-22T09:56:38.000Z</time>
      </trkpt>
      <trkpt lat="43.16141805611550807952880859375" lon="-1.41367175616323947906494140625">
        <ele>741.20001220703125</ele>
        <time>2020-08-22T09:56:39.000Z</time>
      </trkpt>
      <trkpt lat="43.1614436209201812744140625" lon="-1.4138840697705745697021484375">
        <ele>739.5999755859375</ele>
        <time>2020-08-22T09:56:46.000Z</time>
      </trkpt>
      <trkpt lat="43.1614516675472259521484375" lon="-1.41390477307140827178955078125">
        <ele>739.4000244140625</ele>
        <time>2020-08-22T09:56:47.000Z</time>
      </trkpt>
      <trkpt lat="43.16147203557193279266357421875" lon="-1.4139812998473644256591796875">
        <ele>738.79998779296875</ele>
        <time>2020-08-22T09:56:50.000Z</time>
      </trkpt>
      <trkpt lat="43.161488883197307586669921875" lon="-1.414079703390598297119140625">
        <ele>738.5999755859375</ele>
        <time>2020-08-22T09:56:53.000Z</time>
      </trkpt>
      <trkpt lat="43.16150271333754062652587890625" lon="-1.4141670428216457366943359375">
        <ele>737.79998779296875</ele>
        <time>2020-08-22T09:56:56.000Z</time>
      </trkpt>
      <trkpt lat="43.16150673665106296539306640625" lon="-1.414194367825984954833984375">
        <ele>737.4000244140625</ele>
        <time>2020-08-22T09:56:57.000Z</time>
      </trkpt>
      <trkpt lat="43.16151260398328304290771484375" lon="-1.4142723195254802703857421875">
        <ele>736.4000244140625</ele>
        <time>2020-08-22T09:57:00.000Z</time>
      </trkpt>
      <trkpt lat="43.161519058048725128173828125" lon="-1.41430978663265705108642578125">
        <ele>735.5999755859375</ele>
        <time>2020-08-22T09:57:02.000Z</time>
      </trkpt>
      <trkpt lat="43.16152417100965976715087890625" lon="-1.4143246226012706756591796875">
        <ele>735.4000244140625</ele>
        <time>2020-08-22T09:57:03.000Z</time>
      </trkpt>
      <trkpt lat="43.161525428295135498046875" lon="-1.41434130258858203887939453125">
        <ele>735.20001220703125</ele>
        <time>2020-08-22T09:57:04.000Z</time>
      </trkpt>
      <trkpt lat="43.16153204999864101409912109375" lon="-1.414363346993923187255859375">
        <ele>735</ele>
        <time>2020-08-22T09:57:07.000Z</time>
      </trkpt>
      <trkpt lat="43.1615202315151691436767578125" lon="-1.41439109109342098236083984375">
        <ele>735</ele>
        <time>2020-08-22T09:57:17.000Z</time>
      </trkpt>
      <trkpt lat="43.1615219078958034515380859375" lon="-1.41439025290310382843017578125">
        <ele>735.20001220703125</ele>
        <time>2020-08-22T09:57:28.000Z</time>
      </trkpt>
      <trkpt lat="43.1615222431719303131103515625" lon="-1.41439008526504039764404296875">
        <ele>735.20001220703125</ele>
        <time>2020-08-22T09:57:29.000Z</time>
      </trkpt>
      <trkpt lat="43.16152350045740604400634765625" lon="-1.4143886603415012359619140625">
        <ele>734.79998779296875</ele>
        <time>2020-08-22T09:57:41.000Z</time>
      </trkpt>
      <trkpt lat="43.1615457125008106231689453125" lon="-1.41442612744867801666259765625">
        <ele>735</ele>
        <time>2020-08-22T09:57:46.000Z</time>
      </trkpt>
      <trkpt lat="43.16166230477392673492431640625" lon="-1.41453894786536693572998046875">
        <ele>734.5999755859375</ele>
        <time>2020-08-22T09:57:53.000Z</time>
      </trkpt>
      <trkpt lat="43.161710165441036224365234375" lon="-1.4145811088383197784423828125">
        <ele>733.4000244140625</ele>
        <time>2020-08-22T09:57:56.000Z</time>
      </trkpt>
      <trkpt lat="43.16172131337225437164306640625" lon="-1.41462176106870174407958984375">
        <ele>732.79998779296875</ele>
        <time>2020-08-22T09:57:58.000Z</time>
      </trkpt>
      <trkpt lat="43.161745034158229827880859375" lon="-1.41471463255584239959716796875">
        <ele>733</ele>
        <time>2020-08-22T09:58:02.000Z</time>
      </trkpt>
      <trkpt lat="43.1617757119238376617431640625" lon="-1.41479752957820892333984375">
        <ele>732.4000244140625</ele>
        <time>2020-08-22T09:58:05.000Z</time>
      </trkpt>
      <trkpt lat="43.16180177964270114898681640625" lon="-1.41483901999890804290771484375">
        <ele>732</ele>
        <time>2020-08-22T09:58:07.000Z</time>
      </trkpt>
      <trkpt lat="43.16182508133351802825927734375" lon="-1.41487237997353076934814453125">
        <ele>731.20001220703125</ele>
        <time>2020-08-22T09:58:09.000Z</time>
      </trkpt>
      <trkpt lat="43.16184871830046176910400390625" lon="-1.41491512767970561981201171875">
        <ele>730.79998779296875</ele>
        <time>2020-08-22T09:58:11.000Z</time>
      </trkpt>
      <trkpt lat="43.16187118180096149444580078125" lon="-1.41498989425599575042724609375">
        <ele>730</ele>
        <time>2020-08-22T09:58:14.000Z</time>
      </trkpt>
      <trkpt lat="43.161885850131511688232421875" lon="-1.41501881182193756103515625">
        <ele>729.79998779296875</ele>
        <time>2020-08-22T09:58:15.000Z</time>
      </trkpt>
      <trkpt lat="43.16189951263368129730224609375" lon="-1.4150468073785305023193359375">
        <ele>729.5999755859375</ele>
        <time>2020-08-22T09:58:16.000Z</time>
      </trkpt>
      <trkpt lat="43.16195114515721797943115234375" lon="-1.41514177434146404266357421875">
        <ele>729</ele>
        <time>2020-08-22T09:58:19.000Z</time>
      </trkpt>
      <trkpt lat="43.16198634915053844451904296875" lon="-1.41518753953278064727783203125">
        <ele>728.4000244140625</ele>
        <time>2020-08-22T09:58:21.000Z</time>
      </trkpt>
      <trkpt lat="43.1619966588914394378662109375" lon="-1.41520614735782146453857421875">
        <ele>728</ele>
        <time>2020-08-22T09:58:22.000Z</time>
      </trkpt>
      <trkpt lat="43.162005208432674407958984375" lon="-1.41522710211575031280517578125">
        <ele>727.5999755859375</ele>
        <time>2020-08-22T09:58:23.000Z</time>
      </trkpt>
      <trkpt lat="43.1620238162577152252197265625" lon="-1.41526834107935428619384765625">
        <ele>727</ele>
        <time>2020-08-22T09:58:25.000Z</time>
      </trkpt>
      <trkpt lat="43.1620295159518718719482421875" lon="-1.415286697447299957275390625">
        <ele>726.4000244140625</ele>
        <time>2020-08-22T09:58:26.000Z</time>
      </trkpt>
      <trkpt lat="43.16209279932081699371337890625" lon="-1.41536791808903217315673828125">
        <ele>725.20001220703125</ele>
        <time>2020-08-22T09:58:30.000Z</time>
      </trkpt>
      <trkpt lat="43.16211291588842868804931640625" lon="-1.41540513373911380767822265625">
        <ele>724.20001220703125</ele>
        <time>2020-08-22T09:58:32.000Z</time>
      </trkpt>
      <trkpt lat="43.16213185898959636688232421875" lon="-1.41544939018785953521728515625">
        <ele>723.20001220703125</ele>
        <time>2020-08-22T09:58:34.000Z</time>
      </trkpt>
      <trkpt lat="43.16214862279593944549560546875" lon="-1.4154994301497936248779296875">
        <ele>722.4000244140625</ele>
        <time>2020-08-22T09:58:36.000Z</time>
      </trkpt>
      <trkpt lat="43.162154071033000946044921875" lon="-1.41551778651773929595947265625">
        <ele>721.79998779296875</ele>
        <time>2020-08-22T09:58:37.000Z</time>
      </trkpt>
      <trkpt lat="43.16219053231179714202880859375" lon="-1.4155570976436138153076171875">
        <ele>720.79998779296875</ele>
        <time>2020-08-22T09:58:40.000Z</time>
      </trkpt>
      <trkpt lat="43.16222523339092731475830078125" lon="-1.41557981260120868682861328125">
        <ele>720.5999755859375</ele>
        <time>2020-08-22T09:58:42.000Z</time>
      </trkpt>
      <trkpt lat="43.16227904520928859710693359375" lon="-1.4156613685190677642822265625">
        <ele>719.79998779296875</ele>
        <time>2020-08-22T09:58:47.000Z</time>
      </trkpt>
      <trkpt lat="43.1622933782637119293212890625" lon="-1.41567871905863285064697265625">
        <ele>719.5999755859375</ele>
        <time>2020-08-22T09:58:48.000Z</time>
      </trkpt>
      <trkpt lat="43.16231676377356052398681640625" lon="-1.41571618616580963134765625">
        <ele>718.79998779296875</ele>
        <time>2020-08-22T09:58:50.000Z</time>
      </trkpt>
      <trkpt lat="43.16234685480594635009765625" lon="-1.4157575927674770355224609375">
        <ele>718</ele>
        <time>2020-08-22T09:58:53.000Z</time>
      </trkpt>
      <trkpt lat="43.16235817037522792816162109375" lon="-1.4157716743648052215576171875">
        <ele>717.4000244140625</ele>
        <time>2020-08-22T09:58:54.000Z</time>
      </trkpt>
      <trkpt lat="43.162394128739833831787109375" lon="-1.415819115936756134033203125">
        <ele>716.4000244140625</ele>
        <time>2020-08-22T09:58:57.000Z</time>
      </trkpt>
      <trkpt lat="43.16243293695151805877685546875" lon="-1.41589011065661907196044921875">
        <ele>715.5999755859375</ele>
        <time>2020-08-22T09:59:00.000Z</time>
      </trkpt>
      <trkpt lat="43.16246193833649158477783203125" lon="-1.4159775339066982269287109375">
        <ele>715</ele>
        <time>2020-08-22T09:59:03.000Z</time>
      </trkpt>
      <trkpt lat="43.1624735891819000244140625" lon="-1.41603402793407440185546875">
        <ele>713.79998779296875</ele>
        <time>2020-08-22T09:59:05.000Z</time>
      </trkpt>
      <trkpt lat="43.16248926334083080291748046875" lon="-1.41612262465059757232666015625">
        <ele>712.5999755859375</ele>
        <time>2020-08-22T09:59:08.000Z</time>
      </trkpt>
      <trkpt lat="43.16248423419892787933349609375" lon="-1.4162184298038482666015625">
        <ele>711.5999755859375</ele>
        <time>2020-08-22T09:59:11.000Z</time>
      </trkpt>
      <trkpt lat="43.162451125681400299072265625" lon="-1.4163205213844776153564453125">
        <ele>710.4000244140625</ele>
        <time>2020-08-22T09:59:14.000Z</time>
      </trkpt>
      <trkpt lat="43.16243000328540802001953125" lon="-1.41640710644423961639404296875">
        <ele>709.5999755859375</ele>
        <time>2020-08-22T09:59:17.000Z</time>
      </trkpt>
      <trkpt lat="43.16243226639926433563232421875" lon="-1.416434012353420257568359375">
        <ele>708.4000244140625</ele>
        <time>2020-08-22T09:59:18.000Z</time>
      </trkpt>
      <trkpt lat="43.16245037131011486053466796875" lon="-1.41648002900183200836181640625">
        <ele>707</ele>
        <time>2020-08-22T09:59:20.000Z</time>
      </trkpt>
      <trkpt lat="43.16246847622096538543701171875" lon="-1.4165361039340496063232421875">
        <ele>706.4000244140625</ele>
        <time>2020-08-22T09:59:22.000Z</time>
      </trkpt>
      <trkpt lat="43.16251960583031177520751953125" lon="-1.41660542227327823638916015625">
        <ele>706</ele>
        <time>2020-08-22T09:59:25.000Z</time>
      </trkpt>
      <trkpt lat="43.162556402385234832763671875" lon="-1.416659317910671234130859375">
        <ele>705.79998779296875</ele>
        <time>2020-08-22T09:59:27.000Z</time>
      </trkpt>
      <trkpt lat="43.16265773959457874298095703125" lon="-1.416877247393131256103515625">
        <ele>704.79998779296875</ele>
        <time>2020-08-22T09:59:34.000Z</time>
      </trkpt>
      <trkpt lat="43.16269109956920146942138671875" lon="-1.41696433536708354949951171875">
        <ele>703.79998779296875</ele>
        <time>2020-08-22T09:59:37.000Z</time>
      </trkpt>
      <trkpt lat="43.162716664373874664306640625" lon="-1.4170257747173309326171875">
        <ele>703.4000244140625</ele>
        <time>2020-08-22T09:59:39.000Z</time>
      </trkpt>
      <trkpt lat="43.1627463363111019134521484375" lon="-1.41709593124687671661376953125">
        <ele>703</ele>
        <time>2020-08-22T09:59:41.000Z</time>
      </trkpt>
      <trkpt lat="43.16277743317186832427978515625" lon="-1.41717262566089630126953125">
        <ele>702</ele>
        <time>2020-08-22T09:59:43.000Z</time>
      </trkpt>
      <trkpt lat="43.1627895869314670562744140625" lon="-1.41721612773835659027099609375">
        <ele>701.4000244140625</ele>
        <time>2020-08-22T09:59:44.000Z</time>
      </trkpt>
      <trkpt lat="43.16281716339290142059326171875" lon="-1.41735409386456012725830078125">
        <ele>700.4000244140625</ele>
        <time>2020-08-22T09:59:48.000Z</time>
      </trkpt>
      <trkpt lat="43.16284046508371829986572265625" lon="-1.41746339388191699981689453125">
        <ele>699.4000244140625</ele>
        <time>2020-08-22T09:59:52.000Z</time>
      </trkpt>
      <trkpt lat="43.16285806708037853240966796875" lon="-1.4174913056194782257080078125">
        <ele>699.4000244140625</ele>
        <time>2020-08-22T09:59:53.000Z</time>
      </trkpt>
      <trkpt lat="43.16293803043663501739501953125" lon="-1.41765433363616466522216796875">
        <ele>698.5999755859375</ele>
        <time>2020-08-22T09:59:58.000Z</time>
      </trkpt>
      <trkpt lat="43.16295445896685123443603515625" lon="-1.41769054345786571502685546875">
        <ele>698.4000244140625</ele>
        <time>2020-08-22T09:59:59.000Z</time>
      </trkpt>
      <trkpt lat="43.16300625912845134735107421875" lon="-1.41780001111328601837158203125">
        <ele>697</ele>
        <time>2020-08-22T10:00:02.000Z</time>
      </trkpt>
      <trkpt lat="43.16304833628237247467041015625" lon="-1.41786396503448486328125">
        <ele>696</ele>
        <time>2020-08-22T10:00:04.000Z</time>
      </trkpt>
      <trkpt lat="43.163131065666675567626953125" lon="-1.41794619150459766387939453125">
        <ele>695.79998779296875</ele>
        <time>2020-08-22T10:00:08.000Z</time>
      </trkpt>
      <trkpt lat="43.1631500087678432464599609375" lon="-1.41796865500509738922119140625">
        <ele>696</ele>
        <time>2020-08-22T10:00:09.000Z</time>
      </trkpt>
      <trkpt lat="43.163244724273681640625" lon="-1.41803068108856678009033203125">
        <ele>694.5999755859375</ele>
        <time>2020-08-22T10:00:14.000Z</time>
      </trkpt>
      <trkpt lat="43.16333927214145660400390625" lon="-1.4180394820868968963623046875">
        <ele>694.5999755859375</ele>
        <time>2020-08-22T10:00:19.000Z</time>
      </trkpt>
      <trkpt lat="43.1634936667978763580322265625" lon="-1.41805582679808139801025390625">
        <ele>694.5999755859375</ele>
        <time>2020-08-22T10:00:25.000Z</time>
      </trkpt>
      <trkpt lat="43.16351755522191524505615234375" lon="-1.41806672327220439910888671875">
        <ele>694</ele>
        <time>2020-08-22T10:00:26.000Z</time>
      </trkpt>
      <trkpt lat="43.16355527378618717193603515625" lon="-1.41809396445751190185546875">
        <ele>693.20001220703125</ele>
        <time>2020-08-22T10:00:28.000Z</time>
      </trkpt>
      <trkpt lat="43.163614533841609954833984375" lon="-1.4181471057236194610595703125">
        <ele>692</ele>
        <time>2020-08-22T10:00:31.000Z</time>
      </trkpt>
      <trkpt lat="43.16367396153509616851806640625" lon="-1.41824391670525074005126953125">
        <ele>690.4000244140625</ele>
        <time>2020-08-22T10:00:35.000Z</time>
      </trkpt>
      <trkpt lat="43.163687288761138916015625" lon="-1.41827409155666828155517578125">
        <ele>690</ele>
        <time>2020-08-22T10:00:36.000Z</time>
      </trkpt>
      <trkpt lat="43.1637100875377655029296875" lon="-1.41832974739372730255126953125">
        <ele>689.20001220703125</ele>
        <time>2020-08-22T10:00:38.000Z</time>
      </trkpt>
      <trkpt lat="43.16373866982758045196533203125" lon="-1.41838766634464263916015625">
        <ele>688.5999755859375</ele>
        <time>2020-08-22T10:00:40.000Z</time>
      </trkpt>
      <trkpt lat="43.1637726165354251861572265625" lon="-1.41848414205014705657958984375">
        <ele>687.79998779296875</ele>
        <time>2020-08-22T10:00:43.000Z</time>
      </trkpt>
      <trkpt lat="43.1637833453714847564697265625" lon="-1.4185397140681743621826171875">
        <ele>686.79998779296875</ele>
        <time>2020-08-22T10:00:45.000Z</time>
      </trkpt>
      <trkpt lat="43.1637940742075443267822265625" lon="-1.41856745816767215728759765625">
        <ele>686.5999755859375</ele>
        <time>2020-08-22T10:00:46.000Z</time>
      </trkpt>
      <trkpt lat="43.16382550634443759918212890625" lon="-1.4186565577983856201171875">
        <ele>686</ele>
        <time>2020-08-22T10:00:49.000Z</time>
      </trkpt>
      <trkpt lat="43.16387529484927654266357421875" lon="-1.41881740652024745941162109375">
        <ele>685.4000244140625</ele>
        <time>2020-08-22T10:00:54.000Z</time>
      </trkpt>
      <trkpt lat="43.16388912498950958251953125" lon="-1.41888915561139583587646484375">
        <ele>684</ele>
        <time>2020-08-22T10:00:56.000Z</time>
      </trkpt>
      <trkpt lat="43.16390161402523517608642578125" lon="-1.418993175029754638671875">
        <ele>682.79998779296875</ele>
        <time>2020-08-22T10:00:59.000Z</time>
      </trkpt>
      <trkpt lat="43.16390597261488437652587890625" lon="-1.41903282143175601959228515625">
        <ele>682.79998779296875</ele>
        <time>2020-08-22T10:01:00.000Z</time>
      </trkpt>
      <trkpt lat="43.16393497399985790252685546875" lon="-1.41918025910854339599609375">
        <ele>681.79998779296875</ele>
        <time>2020-08-22T10:01:04.000Z</time>
      </trkpt>
      <trkpt lat="43.1639610417187213897705078125" lon="-1.41923985444009304046630859375">
        <ele>681.5999755859375</ele>
        <time>2020-08-22T10:01:06.000Z</time>
      </trkpt>
      <trkpt lat="43.16402214579284191131591796875" lon="-1.41934580169618129730224609375">
        <ele>680.5999755859375</ele>
        <time>2020-08-22T10:01:10.000Z</time>
      </trkpt>
      <trkpt lat="43.1640721857547760009765625" lon="-1.41943079419434070587158203125">
        <ele>679.20001220703125</ele>
        <time>2020-08-22T10:01:13.000Z</time>
      </trkpt>
      <trkpt lat="43.16418458707630634307861328125" lon="-1.41964830458164215087890625">
        <ele>678.20001220703125</ele>
        <time>2020-08-22T10:01:20.000Z</time>
      </trkpt>
      <trkpt lat="43.16424191929399967193603515625" lon="-1.4197711832821369171142578125">
        <ele>677.20001220703125</ele>
        <time>2020-08-22T10:01:24.000Z</time>
      </trkpt>
      <trkpt lat="43.16425331868231296539306640625" lon="-1.41979926265776157379150390625">
        <ele>676.5999755859375</ele>
        <time>2020-08-22T10:01:25.000Z</time>
      </trkpt>
      <trkpt lat="43.16428818739950656890869140625" lon="-1.41986682079732418060302734375">
        <ele>675.5999755859375</ele>
        <time>2020-08-22T10:01:28.000Z</time>
      </trkpt>
      <trkpt lat="43.16429908387362957000732421875" lon="-1.41988626681268215179443359375">
        <ele>675.4000244140625</ele>
        <time>2020-08-22T10:01:29.000Z</time>
      </trkpt>
      <trkpt lat="43.1643412448465824127197265625" lon="-1.4199394918978214263916015625">
        <ele>674.5999755859375</ele>
        <time>2020-08-22T10:01:33.000Z</time>
      </trkpt>
      <trkpt lat="43.16434266977012157440185546875" lon="-1.419943012297153472900390625">
        <ele>674.20001220703125</ele>
        <time>2020-08-22T10:01:35.000Z</time>
      </trkpt>
      <trkpt lat="43.16434199921786785125732421875" lon="-1.41994611360132694244384765625">
        <ele>674.5999755859375</ele>
        <time>2020-08-22T10:01:47.000Z</time>
      </trkpt>
      <trkpt lat="43.164343424141407012939453125" lon="-1.41994846053421497344970703125">
        <ele>674.5999755859375</ele>
        <time>2020-08-22T10:02:06.000Z</time>
      </trkpt>
      <trkpt lat="43.16439413465559482574462890625" lon="-1.42002574168145656585693359375">
        <ele>673.79998779296875</ele>
        <time>2020-08-22T10:02:13.000Z</time>
      </trkpt>
      <trkpt lat="43.16443503834307193756103515625" lon="-1.42007117159664630889892578125">
        <ele>673.4000244140625</ele>
        <time>2020-08-22T10:02:18.000Z</time>
      </trkpt>
      <trkpt lat="43.16445146687328815460205078125" lon="-1.42008609138429164886474609375">
        <ele>672.79998779296875</ele>
        <time>2020-08-22T10:02:20.000Z</time>
      </trkpt>
      <trkpt lat="43.16446471028029918670654296875" lon="-1.42012280412018299102783203125">
        <ele>672.4000244140625</ele>
        <time>2020-08-22T10:02:23.000Z</time>
      </trkpt>
      <trkpt lat="43.16448901779949665069580078125" lon="-1.42017938196659088134765625">
        <ele>672</ele>
        <time>2020-08-22T10:02:28.000Z</time>
      </trkpt>
      <trkpt lat="43.16454350017011165618896484375" lon="-1.4202687330543994903564453125">
        <ele>671.20001220703125</ele>
        <time>2020-08-22T10:02:36.000Z</time>
      </trkpt>
      <trkpt lat="43.16455104388296604156494140625" lon="-1.42028004862368106842041015625">
        <ele>671</ele>
        <time>2020-08-22T10:02:37.000Z</time>
      </trkpt>
      <trkpt lat="43.16459295339882373809814453125" lon="-1.42035012133419513702392578125">
        <ele>670</ele>
        <time>2020-08-22T10:02:44.000Z</time>
      </trkpt>
      <trkpt lat="43.1646141596138477325439453125" lon="-1.4203999936580657958984375">
        <ele>669.20001220703125</ele>
        <time>2020-08-22T10:02:48.000Z</time>
      </trkpt>
      <trkpt lat="43.16461944021284580230712890625" lon="-1.42041315324604511260986328125">
        <ele>669</ele>
        <time>2020-08-22T10:02:49.000Z</time>
      </trkpt>
      <trkpt lat="43.16462513990700244903564453125" lon="-1.4204256422817707061767578125">
        <ele>668.5999755859375</ele>
        <time>2020-08-22T10:02:50.000Z</time>
      </trkpt>
      <trkpt lat="43.16465078853070735931396484375" lon="-1.42047869972884654998779296875">
        <ele>667.79998779296875</ele>
        <time>2020-08-22T10:02:54.000Z</time>
      </trkpt>
      <trkpt lat="43.16466160118579864501953125" lon="-1.42049982212483882904052734375">
        <ele>667.79998779296875</ele>
        <time>2020-08-22T10:02:56.000Z</time>
      </trkpt>
      <trkpt lat="43.164669312536716461181640625" lon="-1.42051893286406993865966796875">
        <ele>667.79998779296875</ele>
        <time>2020-08-22T10:02:58.000Z</time>
      </trkpt>
      <trkpt lat="43.164675347506999969482421875" lon="-1.42054324038326740264892578125">
        <ele>667.4000244140625</ele>
        <time>2020-08-22T10:03:00.000Z</time>
      </trkpt>
      <trkpt lat="43.16469353623688220977783203125" lon="-1.42057257704436779022216796875">
        <ele>666.79998779296875</ele>
        <time>2020-08-22T10:03:03.000Z</time>
      </trkpt>
      <trkpt lat="43.16470074467360973358154296875" lon="-1.4205797016620635986328125">
        <ele>666.79998779296875</ele>
        <time>2020-08-22T10:03:04.000Z</time>
      </trkpt>
      <trkpt lat="43.1647100485861301422119140625" lon="-1.42060023732483386993408203125">
        <ele>666.5999755859375</ele>
        <time>2020-08-22T10:03:06.000Z</time>
      </trkpt>
      <trkpt lat="43.16473066806793212890625" lon="-1.42063074745237827301025390625">
        <ele>665.5999755859375</ele>
        <time>2020-08-22T10:03:09.000Z</time>
      </trkpt>
      <trkpt lat="43.16477559506893157958984375" lon="-1.420677602291107177734375">
        <ele>664.79998779296875</ele>
        <time>2020-08-22T10:03:16.000Z</time>
      </trkpt>
      <trkpt lat="43.16480199806392192840576171875" lon="-1.42067718319594860076904296875">
        <ele>664.5999755859375</ele>
        <time>2020-08-22T10:03:20.000Z</time>
      </trkpt>
      <trkpt lat="43.16481356509029865264892578125" lon="-1.4206816256046295166015625">
        <ele>664</ele>
        <time>2020-08-22T10:03:23.000Z</time>
      </trkpt>
      <trkpt lat="43.1648511998355388641357421875" lon="-1.42070375382900238037109375">
        <ele>663.4000244140625</ele>
        <time>2020-08-22T10:03:27.000Z</time>
      </trkpt>
      <trkpt lat="43.1648910976946353912353515625" lon="-1.4207257144153118133544921875">
        <ele>662.20001220703125</ele>
        <time>2020-08-22T10:03:31.000Z</time>
      </trkpt>
      <trkpt lat="43.16489855758845806121826171875" lon="-1.42073568888008594512939453125">
        <ele>662</ele>
        <time>2020-08-22T10:03:32.000Z</time>
      </trkpt>
      <trkpt lat="43.1649269722402095794677734375" lon="-1.4207736589014530181884765625">
        <ele>661.20001220703125</ele>
        <time>2020-08-22T10:03:36.000Z</time>
      </trkpt>
      <trkpt lat="43.1649323366582393646240234375" lon="-1.420784555375576019287109375">
        <ele>661.20001220703125</ele>
        <time>2020-08-22T10:03:37.000Z</time>
      </trkpt>
      <trkpt lat="43.1650020740926265716552734375" lon="-1.42086627893149852752685546875">
        <ele>660.20001220703125</ele>
        <time>2020-08-22T10:03:46.000Z</time>
      </trkpt>
      <trkpt lat="43.1650121323764324188232421875" lon="-1.42087541520595550537109375">
        <ele>660</ele>
        <time>2020-08-22T10:03:47.000Z</time>
      </trkpt>
      <trkpt lat="43.16505731083452701568603515625" lon="-1.42090986482799053192138671875">
        <ele>659</ele>
        <time>2020-08-22T10:03:52.000Z</time>
      </trkpt>
      <trkpt lat="43.16506468690931797027587890625" lon="-1.42091858200728893280029296875">
        <ele>658.79998779296875</ele>
        <time>2020-08-22T10:03:53.000Z</time>
      </trkpt>
      <trkpt lat="43.16511698998510837554931640625" lon="-1.42095495946705341339111328125">
        <ele>658.4000244140625</ele>
        <time>2020-08-22T10:04:00.000Z</time>
      </trkpt>
      <trkpt lat="43.16513777710497379302978515625" lon="-1.42099016346037387847900390625">
        <ele>658</ele>
        <time>2020-08-22T10:04:05.000Z</time>
      </trkpt>
      <trkpt lat="43.1651482544839382171630859375" lon="-1.42101296223700046539306640625">
        <ele>657.79998779296875</ele>
        <time>2020-08-22T10:04:06.000Z</time>
      </trkpt>
      <trkpt lat="43.1652282178401947021484375" lon="-1.4211890660226345062255859375">
        <ele>658.20001220703125</ele>
        <time>2020-08-22T10:04:11.000Z</time>
      </trkpt>
      <trkpt lat="43.16535972990095615386962890625" lon="-1.42133516259491443634033203125">
        <ele>657</ele>
        <time>2020-08-22T10:04:16.000Z</time>
      </trkpt>
      <trkpt lat="43.16550842486321926116943359375" lon="-1.42137589864432811737060546875">
        <ele>655.5999755859375</ele>
        <time>2020-08-22T10:04:20.000Z</time>
      </trkpt>
      <trkpt lat="43.1655810959637165069580078125" lon="-1.42140976153314113616943359375">
        <ele>654.79998779296875</ele>
        <time>2020-08-22T10:04:22.000Z</time>
      </trkpt>
      <trkpt lat="43.16561906598508358001708984375" lon="-1.42142551951110363006591796875">
        <ele>654.20001220703125</ele>
        <time>2020-08-22T10:04:23.000Z</time>
      </trkpt>
      <trkpt lat="43.16585375927388668060302734375" lon="-1.4215246774256229400634765625">
        <ele>653.5999755859375</ele>
        <time>2020-08-22T10:04:29.000Z</time>
      </trkpt>
      <trkpt lat="43.1658918969333171844482421875" lon="-1.4215394295752048492431640625">
        <ele>652.79998779296875</ele>
        <time>2020-08-22T10:04:30.000Z</time>
      </trkpt>
      <trkpt lat="43.16596255637705326080322265625" lon="-1.4215640723705291748046875">
        <ele>651.79998779296875</ele>
        <time>2020-08-22T10:04:32.000Z</time>
      </trkpt>
      <trkpt lat="43.1660809926688671112060546875" lon="-1.42162048257887363433837890625">
        <ele>651</ele>
        <time>2020-08-22T10:04:36.000Z</time>
      </trkpt>
      <trkpt lat="43.16612969152629375457763671875" lon="-1.42164546065032482147216796875">
        <ele>650.5999755859375</ele>
        <time>2020-08-22T10:04:38.000Z</time>
      </trkpt>
      <trkpt lat="43.1661919690668582916259765625" lon="-1.42168854363262653350830078125">
        <ele>649.4000244140625</ele>
        <time>2020-08-22T10:04:42.000Z</time>
      </trkpt>
      <trkpt lat="43.16619942896068096160888671875" lon="-1.42169256694614887237548828125">
        <ele>648.79998779296875</ele>
        <time>2020-08-22T10:04:47.000Z</time>
      </trkpt>
      <trkpt lat="43.166202865540981292724609375" lon="-1.4216981828212738037109375">
        <ele>648.5999755859375</ele>
        <time>2020-08-22T10:04:48.000Z</time>
      </trkpt>
      <trkpt lat="43.1662389077246189117431640625" lon="-1.42174176871776580810546875">
        <ele>648.4000244140625</ele>
        <time>2020-08-22T10:04:53.000Z</time>
      </trkpt>
      <trkpt lat="43.1662456132471561431884765625" lon="-1.42174771986901760101318359375">
        <ele>648.20001220703125</ele>
        <time>2020-08-22T10:04:54.000Z</time>
      </trkpt>
      <trkpt lat="43.1662885285913944244384765625" lon="-1.42179273068904876708984375">
        <ele>647.4000244140625</ele>
        <time>2020-08-22T10:05:00.000Z</time>
      </trkpt>
      <trkpt lat="43.16629531793296337127685546875" lon="-1.4217999391257762908935546875">
        <ele>647.20001220703125</ele>
        <time>2020-08-22T10:05:01.000Z</time>
      </trkpt>
      <trkpt lat="43.166341669857501983642578125" lon="-1.4218374900519847869873046875">
        <ele>645.79998779296875</ele>
        <time>2020-08-22T10:05:07.000Z</time>
      </trkpt>
      <trkpt lat="43.16636614501476287841796875" lon="-1.4218562655150890350341796875">
        <ele>645</ele>
        <time>2020-08-22T10:05:10.000Z</time>
      </trkpt>
      <trkpt lat="43.16638953052461147308349609375" lon="-1.42186892218887805938720703125">
        <ele>644.5999755859375</ele>
        <time>2020-08-22T10:05:13.000Z</time>
      </trkpt>
      <trkpt lat="43.166427500545978546142578125" lon="-1.42187898047268390655517578125">
        <ele>643.79998779296875</ele>
        <time>2020-08-22T10:05:18.000Z</time>
      </trkpt>
      <trkpt lat="43.1664303503930568695068359375" lon="-1.42188065685331821441650390625">
        <ele>643.5999755859375</ele>
        <time>2020-08-22T10:05:20.000Z</time>
      </trkpt>
      <trkpt lat="43.1664320267736911773681640625" lon="-1.42187654972076416015625">
        <ele>643.20001220703125</ele>
        <time>2020-08-22T10:05:24.000Z</time>
      </trkpt>
      <trkpt lat="43.16648106090724468231201171875" lon="-1.42187881283462047576904296875">
        <ele>643</ele>
        <time>2020-08-22T10:05:38.000Z</time>
      </trkpt>
      <trkpt lat="43.1666144169867038726806640625" lon="-1.42188518308103084564208984375">
        <ele>642.4000244140625</ele>
        <time>2020-08-22T10:05:42.000Z</time>
      </trkpt>
      <trkpt lat="43.1666566617786884307861328125" lon="-1.42188685946166515350341796875">
        <ele>642.20001220703125</ele>
        <time>2020-08-22T10:05:43.000Z</time>
      </trkpt>
      <trkpt lat="43.16678917966783046722412109375" lon="-1.42189557664096355438232421875">
        <ele>641.4000244140625</ele>
        <time>2020-08-22T10:05:46.000Z</time>
      </trkpt>
      <trkpt lat="43.1670656986534595489501953125" lon="-1.42187990248203277587890625">
        <ele>641</ele>
        <time>2020-08-22T10:05:52.000Z</time>
      </trkpt>
      <trkpt lat="43.16731958650052547454833984375" lon="-1.421857774257659912109375">
        <ele>640.79998779296875</ele>
        <time>2020-08-22T10:05:59.000Z</time>
      </trkpt>
      <trkpt lat="43.167479932308197021484375" lon="-1.42189842648804187774658203125">
        <ele>641</ele>
        <time>2020-08-22T10:06:06.000Z</time>
      </trkpt>
      <trkpt lat="43.1676396913826465606689453125" lon="-1.42203270457684993743896484375">
        <ele>640.5999755859375</ele>
        <time>2020-08-22T10:06:13.000Z</time>
      </trkpt>
      <trkpt lat="43.16769358702003955841064453125" lon="-1.422085426747798919677734375">
        <ele>640.4000244140625</ele>
        <time>2020-08-22T10:06:15.000Z</time>
      </trkpt>
      <trkpt lat="43.16776516847312450408935546875" lon="-1.42216430045664310455322265625">
        <ele>638.79998779296875</ele>
        <time>2020-08-22T10:06:18.000Z</time>
      </trkpt>
      <trkpt lat="43.167805485427379608154296875" lon="-1.4222257398068904876708984375">
        <ele>638.5999755859375</ele>
        <time>2020-08-22T10:06:20.000Z</time>
      </trkpt>
      <trkpt lat="43.16784881986677646636962890625" lon="-1.422280557453632354736328125">
        <ele>637.5999755859375</ele>
        <time>2020-08-22T10:06:22.000Z</time>
      </trkpt>
      <trkpt lat="43.16792962141335010528564453125" lon="-1.42234870232641696929931640625">
        <ele>636.5999755859375</ele>
        <time>2020-08-22T10:06:25.000Z</time>
      </trkpt>
      <trkpt lat="43.16800690256059169769287109375" lon="-1.4224170148372650146484375">
        <ele>635.4000244140625</ele>
        <time>2020-08-22T10:06:28.000Z</time>
      </trkpt>
      <trkpt lat="43.16808971576392650604248046875" lon="-1.42247443087399005889892578125">
        <ele>634.4000244140625</ele>
        <time>2020-08-22T10:06:31.000Z</time>
      </trkpt>
      <trkpt lat="43.16811787895858287811279296875" lon="-1.42249546945095062255859375">
        <ele>634</ele>
        <time>2020-08-22T10:06:32.000Z</time>
      </trkpt>
      <trkpt lat="43.16819415427744388580322265625" lon="-1.422544419765472412109375">
        <ele>633</ele>
        <time>2020-08-22T10:06:35.000Z</time>
      </trkpt>
      <trkpt lat="43.168244026601314544677734375" lon="-1.42257551662623882293701171875">
        <ele>632</ele>
        <time>2020-08-22T10:06:37.000Z</time>
      </trkpt>
      <trkpt lat="43.16832306794822216033935546875" lon="-1.42263083718717098236083984375">
        <ele>631.4000244140625</ele>
        <time>2020-08-22T10:06:40.000Z</time>
      </trkpt>
      <trkpt lat="43.16837738268077373504638671875" lon="-1.42267039977014064788818359375">
        <ele>630.79998779296875</ele>
        <time>2020-08-22T10:06:42.000Z</time>
      </trkpt>
      <trkpt lat="43.168445527553558349609375" lon="-1.4227377064526081085205078125">
        <ele>629.4000244140625</ele>
        <time>2020-08-22T10:06:45.000Z</time>
      </trkpt>
      <trkpt lat="43.16846505738794803619384765625" lon="-1.42276276834309101104736328125">
        <ele>629</ele>
        <time>2020-08-22T10:06:46.000Z</time>
      </trkpt>
      <trkpt lat="43.16850260831415653228759765625" lon="-1.42281104810535907745361328125">
        <ele>628.20001220703125</ele>
        <time>2020-08-22T10:06:48.000Z</time>
      </trkpt>
      <trkpt lat="43.168535716831684112548828125" lon="-1.42286050133407115936279296875">
        <ele>626.79998779296875</ele>
        <time>2020-08-22T10:06:50.000Z</time>
      </trkpt>
      <trkpt lat="43.168595395982265472412109375" lon="-1.4229408837854862213134765625">
        <ele>626.20001220703125</ele>
        <time>2020-08-22T10:06:53.000Z</time>
      </trkpt>
      <trkpt lat="43.16863504238426685333251953125" lon="-1.4230017364025115966796875">
        <ele>625.5999755859375</ele>
        <time>2020-08-22T10:06:55.000Z</time>
      </trkpt>
      <trkpt lat="43.16869421862065792083740234375" lon="-1.423105336725711822509765625">
        <ele>624.5999755859375</ele>
        <time>2020-08-22T10:06:58.000Z</time>
      </trkpt>
      <trkpt lat="43.16874526441097259521484375" lon="-1.42321254126727581024169921875">
        <ele>623.20001220703125</ele>
        <time>2020-08-22T10:07:01.000Z</time>
      </trkpt>
      <trkpt lat="43.1687740981578826904296875" lon="-1.4232852123677730560302734375">
        <ele>621.5999755859375</ele>
        <time>2020-08-22T10:07:03.000Z</time>
      </trkpt>
      <trkpt lat="43.1688141636550426483154296875" lon="-1.423390991985797882080078125">
        <ele>620.4000244140625</ele>
        <time>2020-08-22T10:07:06.000Z</time>
      </trkpt>
      <trkpt lat="43.16884894855320453643798828125" lon="-1.42350188456475734710693359375">
        <ele>619.4000244140625</ele>
        <time>2020-08-22T10:07:10.000Z</time>
      </trkpt>
      <trkpt lat="43.1688470207154750823974609375" lon="-1.423502303659915924072265625">
        <ele>618.4000244140625</ele>
        <time>2020-08-22T10:07:15.000Z</time>
      </trkpt>
      <trkpt lat="43.16884710453450679779052734375" lon="-1.42350221984088420867919921875">
        <ele>618.4000244140625</ele>
        <time>2020-08-22T10:07:16.000Z</time>
      </trkpt>
      <trkpt lat="43.1688463501632213592529296875" lon="-1.4235014654695987701416015625">
        <ele>618.20001220703125</ele>
        <time>2020-08-22T10:07:35.000Z</time>
      </trkpt>
      <trkpt lat="43.16884743981063365936279296875" lon="-1.42350104637444019317626953125">
        <ele>618</ele>
        <time>2020-08-22T10:07:59.000Z</time>
      </trkpt>
      <trkpt lat="43.16886152140796184539794921875" lon="-1.42356424592435359954833984375">
        <ele>617.5999755859375</ele>
        <time>2020-08-22T10:08:04.000Z</time>
      </trkpt>
      <trkpt lat="43.1688684783875942230224609375" lon="-1.4235919900238513946533203125">
        <ele>617.4000244140625</ele>
        <time>2020-08-22T10:08:05.000Z</time>
      </trkpt>
      <trkpt lat="43.1688879244029521942138671875" lon="-1.42368477769196033477783203125">
        <ele>616.4000244140625</ele>
        <time>2020-08-22T10:08:08.000Z</time>
      </trkpt>
      <trkpt lat="43.1689140759408473968505859375" lon="-1.42378971911966800689697265625">
        <ele>615</ele>
        <time>2020-08-22T10:08:11.000Z</time>
      </trkpt>
      <trkpt lat="43.16892455331981182098388671875" lon="-1.42382760532200336456298828125">
        <ele>614.5999755859375</ele>
        <time>2020-08-22T10:08:12.000Z</time>
      </trkpt>
      <trkpt lat="43.168942071497440338134765625" lon="-1.4238994382321834564208984375">
        <ele>613.5999755859375</ele>
        <time>2020-08-22T10:08:14.000Z</time>
      </trkpt>
      <trkpt lat="43.16897233016788959503173828125" lon="-1.42402508296072483062744140625">
        <ele>612.20001220703125</ele>
        <time>2020-08-22T10:08:18.000Z</time>
      </trkpt>
      <trkpt lat="43.1689761020243167877197265625" lon="-1.42405542545020580291748046875">
        <ele>612</ele>
        <time>2020-08-22T10:08:19.000Z</time>
      </trkpt>
      <trkpt lat="43.1689761020243167877197265625" lon="-1.4241173677146434783935546875">
        <ele>611</ele>
        <time>2020-08-22T10:08:22.000Z</time>
      </trkpt>
      <trkpt lat="43.1689761020243167877197265625" lon="-1.42417394556105136871337890625">
        <ele>610.5999755859375</ele>
        <time>2020-08-22T10:08:24.000Z</time>
      </trkpt>
      <trkpt lat="43.16899362020194530487060546875" lon="-1.4242474548518657684326171875">
        <ele>609.5999755859375</ele>
        <time>2020-08-22T10:08:27.000Z</time>
      </trkpt>
      <trkpt lat="43.1690109707415103912353515625" lon="-1.424334459006786346435546875">
        <ele>608.5999755859375</ele>
        <time>2020-08-22T10:08:30.000Z</time>
      </trkpt>
      <trkpt lat="43.16903972066938877105712890625" lon="-1.4244459383189678192138671875">
        <ele>607.4000244140625</ele>
        <time>2020-08-22T10:08:34.000Z</time>
      </trkpt>
      <trkpt lat="43.1690584123134613037109375" lon="-1.42451140098273754119873046875">
        <ele>606.5999755859375</ele>
        <time>2020-08-22T10:08:37.000Z</time>
      </trkpt>
      <trkpt lat="43.1690656207501888275146484375" lon="-1.42453151755034923553466796875">
        <ele>606.20001220703125</ele>
        <time>2020-08-22T10:08:38.000Z</time>
      </trkpt>
      <trkpt lat="43.1690750084817409515380859375" lon="-1.42455406486988067626953125">
        <ele>605</ele>
        <time>2020-08-22T10:08:42.000Z</time>
      </trkpt>
      <trkpt lat="43.1690934486687183380126953125" lon="-1.42462505958974361419677734375">
        <ele>604.5999755859375</ele>
        <time>2020-08-22T10:08:48.000Z</time>
      </trkpt>
      <trkpt lat="43.16910602152347564697265625" lon="-1.42465741373598575592041015625">
        <ele>603.79998779296875</ele>
        <time>2020-08-22T10:08:50.000Z</time>
      </trkpt>
      <trkpt lat="43.16912504844367504119873046875" lon="-1.42472648061811923980712890625">
        <ele>602.79998779296875</ele>
        <time>2020-08-22T10:08:54.000Z</time>
      </trkpt>
      <trkpt lat="43.169137537479400634765625" lon="-1.4247621037065982818603515625">
        <ele>602.4000244140625</ele>
        <time>2020-08-22T10:08:56.000Z</time>
      </trkpt>
      <trkpt lat="43.16915907897055149078369140625" lon="-1.4248093776404857635498046875">
        <ele>601.4000244140625</ele>
        <time>2020-08-22T10:08:59.000Z</time>
      </trkpt>
      <trkpt lat="43.16919478587806224822998046875" lon="-1.42485916614532470703125">
        <ele>601</ele>
        <time>2020-08-22T10:09:03.000Z</time>
      </trkpt>
      <trkpt lat="43.169209621846675872802734375" lon="-1.424886323511600494384765625">
        <ele>600.79998779296875</ele>
        <time>2020-08-22T10:09:08.000Z</time>
      </trkpt>
      <trkpt lat="43.16925446502864360809326171875" lon="-1.424989588558673858642578125">
        <ele>600.20001220703125</ele>
        <time>2020-08-22T10:09:12.000Z</time>
      </trkpt>
      <trkpt lat="43.16928011365234851837158203125" lon="-1.4250524528324604034423828125">
        <ele>599.4000244140625</ele>
        <time>2020-08-22T10:09:14.000Z</time>
      </trkpt>
      <trkpt lat="43.16928547807037830352783203125" lon="-1.42507935874164104461669921875">
        <ele>599.20001220703125</ele>
        <time>2020-08-22T10:09:15.000Z</time>
      </trkpt>
      <trkpt lat="43.1692926026880741119384765625" lon="-1.42516301013529300689697265625">
        <ele>597.79998779296875</ele>
        <time>2020-08-22T10:09:18.000Z</time>
      </trkpt>
      <trkpt lat="43.169310204684734344482421875" lon="-1.4252226054668426513671875">
        <ele>597.20001220703125</ele>
        <time>2020-08-22T10:09:20.000Z</time>
      </trkpt>
      <trkpt lat="43.16937181167304515838623046875" lon="-1.4253592304885387420654296875">
        <ele>596.4000244140625</ele>
        <time>2020-08-22T10:09:24.000Z</time>
      </trkpt>
      <trkpt lat="43.16940416581928730010986328125" lon="-1.42543458379805088043212890625">
        <ele>595.4000244140625</ele>
        <time>2020-08-22T10:09:26.000Z</time>
      </trkpt>
      <trkpt lat="43.16941640339791774749755859375" lon="-1.42547196708619594573974609375">
        <ele>594.79998779296875</ele>
        <time>2020-08-22T10:09:27.000Z</time>
      </trkpt>
      <trkpt lat="43.16943635232746601104736328125" lon="-1.4255466498434543609619140625">
        <ele>593.5999755859375</ele>
        <time>2020-08-22T10:09:29.000Z</time>
      </trkpt>
      <trkpt lat="43.1694531999528408050537109375" lon="-1.42562334425747394561767578125">
        <ele>592.5999755859375</ele>
        <time>2020-08-22T10:09:31.000Z</time>
      </trkpt>
      <trkpt lat="43.16949100233614444732666015625" lon="-1.42574454657733440399169921875">
        <ele>591.79998779296875</ele>
        <time>2020-08-22T10:09:34.000Z</time>
      </trkpt>
      <trkpt lat="43.16950759850442409515380859375" lon="-1.42578293569386005401611328125">
        <ele>591.4000244140625</ele>
        <time>2020-08-22T10:09:35.000Z</time>
      </trkpt>
      <trkpt lat="43.169563002884387969970703125" lon="-1.42592869699001312255859375">
        <ele>589.79998779296875</ele>
        <time>2020-08-22T10:09:39.000Z</time>
      </trkpt>
      <trkpt lat="43.1695775873959064483642578125" lon="-1.4259697683155536651611328125">
        <ele>589.20001220703125</ele>
        <time>2020-08-22T10:09:40.000Z</time>
      </trkpt>
      <trkpt lat="43.16960759460926055908203125" lon="-1.4260559342801570892333984375">
        <ele>588.5999755859375</ele>
        <time>2020-08-22T10:09:42.000Z</time>
      </trkpt>
      <trkpt lat="43.16966794431209564208984375" lon="-1.42621711827814579010009765625">
        <ele>587.4000244140625</ele>
        <time>2020-08-22T10:09:46.000Z</time>
      </trkpt>
      <trkpt lat="43.16970172338187694549560546875" lon="-1.4262993447482585906982421875">
        <ele>587</ele>
        <time>2020-08-22T10:09:48.000Z</time>
      </trkpt>
      <trkpt lat="43.16973893903195858001708984375" lon="-1.426393054425716400146484375">
        <ele>585.4000244140625</ele>
        <time>2020-08-22T10:09:50.000Z</time>
      </trkpt>
      <trkpt lat="43.16977833397686481475830078125" lon="-1.4264877699315547943115234375">
        <ele>584.20001220703125</ele>
        <time>2020-08-22T10:09:52.000Z</time>
      </trkpt>
      <trkpt lat="43.16983331926167011260986328125" lon="-1.42662766389548778533935546875">
        <ele>583</ele>
        <time>2020-08-22T10:09:55.000Z</time>
      </trkpt>
      <trkpt lat="43.16984991542994976043701171875" lon="-1.42667141743004322052001953125">
        <ele>582.20001220703125</ele>
        <time>2020-08-22T10:09:56.000Z</time>
      </trkpt>
      <trkpt lat="43.16986734978854656219482421875" lon="-1.426712907850742340087890625">
        <ele>581.5999755859375</ele>
        <time>2020-08-22T10:09:57.000Z</time>
      </trkpt>
      <trkpt lat="43.16993759013712406158447265625" lon="-1.42686570994555950164794921875">
        <ele>579.79998779296875</ele>
        <time>2020-08-22T10:10:01.000Z</time>
      </trkpt>
      <trkpt lat="43.1699799187481403350830078125" lon="-1.4269579946994781494140625">
        <ele>578.4000244140625</ele>
        <time>2020-08-22T10:10:04.000Z</time>
      </trkpt>
      <trkpt lat="43.1700258515775203704833984375" lon="-1.42708430998027324676513671875">
        <ele>577.20001220703125</ele>
        <time>2020-08-22T10:10:08.000Z</time>
      </trkpt>
      <trkpt lat="43.17004135809838771820068359375" lon="-1.42713678069412708282470703125">
        <ele>576.79998779296875</ele>
        <time>2020-08-22T10:10:10.000Z</time>
      </trkpt>
      <trkpt lat="43.17005007527768611907958984375" lon="-1.42717969603836536407470703125">
        <ele>576.20001220703125</ele>
        <time>2020-08-22T10:10:12.000Z</time>
      </trkpt>
      <trkpt lat="43.17005443386733531951904296875" lon="-1.42719612456858158111572265625">
        <ele>575.20001220703125</ele>
        <time>2020-08-22T10:10:15.000Z</time>
      </trkpt>
      <trkpt lat="43.17005376331508159637451171875" lon="-1.4271962083876132965087890625">
        <ele>575.20001220703125</ele>
        <time>2020-08-22T10:10:16.000Z</time>
      </trkpt>
      <trkpt lat="43.17005418241024017333984375" lon="-1.4271988905966281890869140625">
        <ele>574.79998779296875</ele>
        <time>2020-08-22T10:10:25.000Z</time>
      </trkpt>
      <trkpt lat="43.170063905417919158935546875" lon="-1.42724658362567424774169921875">
        <ele>574.79998779296875</ele>
        <time>2020-08-22T10:10:36.000Z</time>
      </trkpt>
      <trkpt lat="43.170065917074680328369140625" lon="-1.42731481231749057769775390625">
        <ele>574.20001220703125</ele>
        <time>2020-08-22T10:10:42.000Z</time>
      </trkpt>
      <trkpt lat="43.1700627319514751434326171875" lon="-1.42734934575855731964111328125">
        <ele>573.4000244140625</ele>
        <time>2020-08-22T10:10:45.000Z</time>
      </trkpt>
      <trkpt lat="43.1700650788843631744384765625" lon="-1.42738220281898975372314453125">
        <ele>573</ele>
        <time>2020-08-22T10:10:48.000Z</time>
      </trkpt>
      <trkpt lat="43.17006818018853664398193359375" lon="-1.4274607412517070770263671875">
        <ele>572.20001220703125</ele>
        <time>2020-08-22T10:10:54.000Z</time>
      </trkpt>
      <trkpt lat="43.170068599283695220947265625" lon="-1.4274771697819232940673828125">
        <ele>572</ele>
        <time>2020-08-22T10:10:55.000Z</time>
      </trkpt>
      <trkpt lat="43.17010723985731601715087890625" lon="-1.4275750704109668731689453125">
        <ele>571</ele>
        <time>2020-08-22T10:11:02.000Z</time>
      </trkpt>
      <trkpt lat="43.17019273526966571807861328125" lon="-1.42758353613317012786865234375">
        <ele>570.20001220703125</ele>
        <time>2020-08-22T10:11:09.000Z</time>
      </trkpt>
      <trkpt lat="43.1702183000743389129638671875" lon="-1.42757515422999858856201171875">
        <ele>570</ele>
        <time>2020-08-22T10:11:11.000Z</time>
      </trkpt>
      <trkpt lat="43.1703051365911960601806640625" lon="-1.4275100268423557281494140625">
        <ele>569</ele>
        <time>2020-08-22T10:11:19.000Z</time>
      </trkpt>
      <trkpt lat="43.170314021408557891845703125" lon="-1.4274982921779155731201171875">
        <ele>568.5999755859375</ele>
        <time>2020-08-22T10:11:20.000Z</time>
      </trkpt>
      <trkpt lat="43.17039616405963897705078125" lon="-1.4273920096457004547119140625">
        <ele>567.4000244140625</ele>
        <time>2020-08-22T10:11:29.000Z</time>
      </trkpt>
      <trkpt lat="43.170404545962810516357421875" lon="-1.42737843096256256103515625">
        <ele>567.5999755859375</ele>
        <time>2020-08-22T10:11:35.000Z</time>
      </trkpt>
      <trkpt lat="43.1704261712729930877685546875" lon="-1.42733241431415081024169921875">
        <ele>567.20001220703125</ele>
        <time>2020-08-22T10:11:42.000Z</time>
      </trkpt>
      <trkpt lat="43.17048325203359127044677734375" lon="-1.42721490003168582916259765625">
        <ele>566.4000244140625</ele>
        <time>2020-08-22T10:11:46.000Z</time>
      </trkpt>
      <trkpt lat="43.170500099658966064453125" lon="-1.42718137241899967193603515625">
        <ele>566.20001220703125</ele>
        <time>2020-08-22T10:11:47.000Z</time>
      </trkpt>
      <trkpt lat="43.1705887801945209503173828125" lon="-1.42687685787677764892578125">
        <ele>565.5999755859375</ele>
        <time>2020-08-22T10:11:54.000Z</time>
      </trkpt>
      <trkpt lat="43.17059171386063098907470703125" lon="-1.42682648263871669769287109375">
        <ele>565.20001220703125</ele>
        <time>2020-08-22T10:11:55.000Z</time>
      </trkpt>
      <trkpt lat="43.170577548444271087646484375" lon="-1.42662347294390201568603515625">
        <ele>563.5999755859375</ele>
        <time>2020-08-22T10:11:59.000Z</time>
      </trkpt>
      <trkpt lat="43.17057059146463871002197265625" lon="-1.4265749417245388031005859375">
        <ele>563.20001220703125</ele>
        <time>2020-08-22T10:12:00.000Z</time>
      </trkpt>
      <trkpt lat="43.170513845980167388916015625" lon="-1.42630764283239841461181640625">
        <ele>562.79998779296875</ele>
        <time>2020-08-22T10:12:06.000Z</time>
      </trkpt>
      <trkpt lat="43.170487694442272186279296875" lon="-1.42622566781938076019287109375">
        <ele>562.5999755859375</ele>
        <time>2020-08-22T10:12:08.000Z</time>
      </trkpt>
      <trkpt lat="43.1704801507294178009033203125" lon="-1.4261625520884990692138671875">
        <ele>562.20001220703125</ele>
        <time>2020-08-22T10:12:10.000Z</time>
      </trkpt>
      <trkpt lat="43.1704865209758281707763671875" lon="-1.42613656818866729736328125">
        <ele>562.20001220703125</ele>
        <time>2020-08-22T10:12:11.000Z</time>
      </trkpt>
      <trkpt lat="43.17056455649435520172119140625" lon="-1.426089294254779815673828125">
        <ele>561.5999755859375</ele>
        <time>2020-08-22T10:12:16.000Z</time>
      </trkpt>
      <trkpt lat="43.17057813517749309539794921875" lon="-1.42610530368983745574951171875">
        <ele>561.20001220703125</ele>
        <time>2020-08-22T10:12:17.000Z</time>
      </trkpt>
      <trkpt lat="43.17060546018183231353759765625" lon="-1.42618610523641109466552734375">
        <ele>560.5999755859375</ele>
        <time>2020-08-22T10:12:20.000Z</time>
      </trkpt>
      <trkpt lat="43.17061602137982845306396484375" lon="-1.4262195490300655364990234375">
        <ele>560.4000244140625</ele>
        <time>2020-08-22T10:12:21.000Z</time>
      </trkpt>
      <trkpt lat="43.17065273411571979522705078125" lon="-1.4263348840177059173583984375">
        <ele>560.20001220703125</ele>
        <time>2020-08-22T10:12:24.000Z</time>
      </trkpt>
      <trkpt lat="43.1706823222339153289794921875" lon="-1.42640671692788600921630859375">
        <ele>559</ele>
        <time>2020-08-22T10:12:26.000Z</time>
      </trkpt>
      <trkpt lat="43.170699588954448699951171875" lon="-1.42643957398831844329833984375">
        <ele>558.5999755859375</ele>
        <time>2020-08-22T10:12:27.000Z</time>
      </trkpt>
      <trkpt lat="43.17073546350002288818359375" lon="-1.4265125803649425506591796875">
        <ele>558</ele>
        <time>2020-08-22T10:12:29.000Z</time>
      </trkpt>
      <trkpt lat="43.1707855872809886932373046875" lon="-1.42662749625742435455322265625">
        <ele>556.4000244140625</ele>
        <time>2020-08-22T10:12:32.000Z</time>
      </trkpt>
      <trkpt lat="43.17079958505928516387939453125" lon="-1.42665959894657135009765625">
        <ele>556.20001220703125</ele>
        <time>2020-08-22T10:12:33.000Z</time>
      </trkpt>
      <trkpt lat="43.1708737649023532867431640625" lon="-1.42681072466075420379638671875">
        <ele>555.4000244140625</ele>
        <time>2020-08-22T10:12:38.000Z</time>
      </trkpt>
      <trkpt lat="43.17090117372572422027587890625" lon="-1.4268600940704345703125">
        <ele>555</ele>
        <time>2020-08-22T10:12:40.000Z</time>
      </trkpt>
      <trkpt lat="43.1709230504930019378662109375" lon="-1.4268882572650909423828125">
        <ele>554.20001220703125</ele>
        <time>2020-08-22T10:12:42.000Z</time>
      </trkpt>
      <trkpt lat="43.17094073630869388580322265625" lon="-1.4269216172397136688232421875">
        <ele>553.5999755859375</ele>
        <time>2020-08-22T10:12:45.000Z</time>
      </trkpt>
      <trkpt lat="43.1709565781056880950927734375" lon="-1.42696294002234935760498046875">
        <ele>553</ele>
        <time>2020-08-22T10:12:48.000Z</time>
      </trkpt>
      <trkpt lat="43.17098063416779041290283203125" lon="-1.42703468911349773406982421875">
        <ele>552.5999755859375</ele>
        <time>2020-08-22T10:12:52.000Z</time>
      </trkpt>
      <trkpt lat="43.17100108601152896881103515625" lon="-1.42707643099129199981689453125">
        <ele>552</ele>
        <time>2020-08-22T10:12:54.000Z</time>
      </trkpt>
      <trkpt lat="43.171042241156101226806640625" lon="-1.42716930247843265533447265625">
        <ele>551</ele>
        <time>2020-08-22T10:12:57.000Z</time>
      </trkpt>
      <trkpt lat="43.171060346066951751708984375" lon="-1.42720484174787998199462890625">
        <ele>550.4000244140625</ele>
        <time>2020-08-22T10:12:58.000Z</time>
      </trkpt>
      <trkpt lat="43.1711181811988353729248046875" lon="-1.4273236133158206939697265625">
        <ele>549.20001220703125</ele>
        <time>2020-08-22T10:13:01.000Z</time>
      </trkpt>
      <trkpt lat="43.1711666285991668701171875" lon="-1.4274040795862674713134765625">
        <ele>548.5999755859375</ele>
        <time>2020-08-22T10:13:03.000Z</time>
      </trkpt>
      <trkpt lat="43.171213902533054351806640625" lon="-1.42748043872416019439697265625">
        <ele>548.20001220703125</ele>
        <time>2020-08-22T10:13:05.000Z</time>
      </trkpt>
      <trkpt lat="43.1712499447166919708251953125" lon="-1.4275534451007843017578125">
        <ele>547</ele>
        <time>2020-08-22T10:13:07.000Z</time>
      </trkpt>
      <trkpt lat="43.1712931953370571136474609375" lon="-1.42762226052582263946533203125">
        <ele>546.4000244140625</ele>
        <time>2020-08-22T10:13:09.000Z</time>
      </trkpt>
      <trkpt lat="43.1713149882853031158447265625" lon="-1.4276585541665554046630859375">
        <ele>545.79998779296875</ele>
        <time>2020-08-22T10:13:10.000Z</time>
      </trkpt>
      <trkpt lat="43.17138799466192722320556640625" lon="-1.42779140733182430267333984375">
        <ele>544.4000244140625</ele>
        <time>2020-08-22T10:13:14.000Z</time>
      </trkpt>
      <trkpt lat="43.1714038364589214324951171875" lon="-1.42781856469810009002685546875">
        <ele>544.20001220703125</ele>
        <time>2020-08-22T10:13:15.000Z</time>
      </trkpt>
      <trkpt lat="43.17145605571568012237548828125" lon="-1.4279100112617015838623046875">
        <ele>543</ele>
        <time>2020-08-22T10:13:18.000Z</time>
      </trkpt>
      <trkpt lat="43.17153283394873142242431640625" lon="-1.42805342562496662139892578125">
        <ele>541.4000244140625</ele>
        <time>2020-08-22T10:13:22.000Z</time>
      </trkpt>
      <trkpt lat="43.17155479453504085540771484375" lon="-1.42809064127504825592041015625">
        <ele>540.5999755859375</ele>
        <time>2020-08-22T10:13:23.000Z</time>
      </trkpt>
      <trkpt lat="43.1715785153210163116455078125" lon="-1.42812986858189105987548828125">
        <ele>539.79998779296875</ele>
        <time>2020-08-22T10:13:24.000Z</time>
      </trkpt>
      <trkpt lat="43.171660490334033966064453125" lon="-1.4282771386206150054931640625">
        <ele>538.79998779296875</ele>
        <time>2020-08-22T10:13:28.000Z</time>
      </trkpt>
      <trkpt lat="43.171674571931362152099609375" lon="-1.42830236814916133880615234375">
        <ele>538.5999755859375</ele>
        <time>2020-08-22T10:13:29.000Z</time>
      </trkpt>
      <trkpt lat="43.17169569432735443115234375" lon="-1.42834075726568698883056640625">
        <ele>537</ele>
        <time>2020-08-22T10:13:31.000Z</time>
      </trkpt>
      <trkpt lat="43.17174992524087429046630859375" lon="-1.42843530513346195220947265625">
        <ele>536</ele>
        <time>2020-08-22T10:13:35.000Z</time>
      </trkpt>
      <trkpt lat="43.1718464009463787078857421875" lon="-1.42862389795482158660888671875">
        <ele>534.79998779296875</ele>
        <time>2020-08-22T10:13:40.000Z</time>
      </trkpt>
      <trkpt lat="43.17188990302383899688720703125" lon="-1.42870168201625347137451171875">
        <ele>533.5999755859375</ele>
        <time>2020-08-22T10:13:42.000Z</time>
      </trkpt>
      <trkpt lat="43.17191169597208499908447265625" lon="-1.42874233424663543701171875">
        <ele>533.4000244140625</ele>
        <time>2020-08-22T10:13:43.000Z</time>
      </trkpt>
      <trkpt lat="43.17197003401815891265869140625" lon="-1.4288665540516376495361328125">
        <ele>532.79998779296875</ele>
        <time>2020-08-22T10:13:46.000Z</time>
      </trkpt>
      <trkpt lat="43.171996772289276123046875" lon="-1.42893503420054912567138671875">
        <ele>531.5999755859375</ele>
        <time>2020-08-22T10:13:48.000Z</time>
      </trkpt>
      <trkpt lat="43.1720195710659027099609375" lon="-1.428988091647624969482421875">
        <ele>530.5999755859375</ele>
        <time>2020-08-22T10:13:51.000Z</time>
      </trkpt>
      <trkpt lat="43.17202703095972537994384765625" lon="-1.4290016703307628631591796875">
        <ele>530.20001220703125</ele>
        <time>2020-08-22T10:13:52.000Z</time>
      </trkpt>
      <trkpt lat="43.17205955274403095245361328125" lon="-1.42905958928167819976806640625">
        <ele>529.4000244140625</ele>
        <time>2020-08-22T10:13:55.000Z</time>
      </trkpt>
      <trkpt lat="43.172119148075580596923828125" lon="-1.4291277341544628143310546875">
        <ele>529.20001220703125</ele>
        <time>2020-08-22T10:13:58.000Z</time>
      </trkpt>
      <trkpt lat="43.17217036150395870208740234375" lon="-1.4292189292609691619873046875">
        <ele>528.4000244140625</ele>
        <time>2020-08-22T10:14:01.000Z</time>
      </trkpt>
      <trkpt lat="43.172211349010467529296875" lon="-1.42931590788066387176513671875">
        <ele>527.4000244140625</ele>
        <time>2020-08-22T10:14:04.000Z</time>
      </trkpt>
      <trkpt lat="43.17223012447357177734375" lon="-1.42937558703124523162841796875">
        <ele>527</ele>
        <time>2020-08-22T10:14:06.000Z</time>
      </trkpt>
      <trkpt lat="43.1722494028508663177490234375" lon="-1.4294435642659664154052734375">
        <ele>526.20001220703125</ele>
        <time>2020-08-22T10:14:08.000Z</time>
      </trkpt>
      <trkpt lat="43.172269351780414581298828125" lon="-1.429548673331737518310546875">
        <ele>525.20001220703125</ele>
        <time>2020-08-22T10:14:11.000Z</time>
      </trkpt>
      <trkpt lat="43.17227781750261783599853515625" lon="-1.429616399109363555908203125">
        <ele>524</ele>
        <time>2020-08-22T10:14:13.000Z</time>
      </trkpt>
      <trkpt lat="43.17229508422315120697021484375" lon="-1.4296816103160381317138671875">
        <ele>522.79998779296875</ele>
        <time>2020-08-22T10:14:15.000Z</time>
      </trkpt>
      <trkpt lat="43.17231788299977779388427734375" lon="-1.42975143156945705413818359375">
        <ele>521.5999755859375</ele>
        <time>2020-08-22T10:14:18.000Z</time>
      </trkpt>
      <trkpt lat="43.17232676781713962554931640625" lon="-1.42977154813706874847412109375">
        <ele>521.79998779296875</ele>
        <time>2020-08-22T10:14:19.000Z</time>
      </trkpt>
      <trkpt lat="43.17238242365419864654541015625" lon="-1.42992845736443996429443359375">
        <ele>520.79998779296875</ele>
        <time>2020-08-22T10:14:24.000Z</time>
      </trkpt>
      <trkpt lat="43.17239382304251194000244140625" lon="-1.42995896749198436737060546875">
        <ele>520.4000244140625</ele>
        <time>2020-08-22T10:14:25.000Z</time>
      </trkpt>
      <trkpt lat="43.1724545918405055999755859375" lon="-1.4300881326198577880859375">
        <ele>519.5999755859375</ele>
        <time>2020-08-22T10:14:30.000Z</time>
      </trkpt>
      <trkpt lat="43.1724817492067813873291015625" lon="-1.4301546849310398101806640625">
        <ele>519.20001220703125</ele>
        <time>2020-08-22T10:14:32.000Z</time>
      </trkpt>
      <trkpt lat="43.17253145389258861541748046875" lon="-1.430309750139713287353515625">
        <ele>518.20001220703125</ele>
        <time>2020-08-22T10:14:36.000Z</time>
      </trkpt>
      <trkpt lat="43.17254469729959964752197265625" lon="-1.43035040237009525299072265625">
        <ele>518</ele>
        <time>2020-08-22T10:14:37.000Z</time>
      </trkpt>
      <trkpt lat="43.17256565205752849578857421875" lon="-1.4304232411086559295654296875">
        <ele>516.5999755859375</ele>
        <time>2020-08-22T10:14:39.000Z</time>
      </trkpt>
      <trkpt lat="43.172581493854522705078125" lon="-1.4304966665804386138916015625">
        <ele>515.4000244140625</ele>
        <time>2020-08-22T10:14:41.000Z</time>
      </trkpt>
      <trkpt lat="43.172590546309947967529296875" lon="-1.43053446896374225616455078125">
        <ele>514.79998779296875</ele>
        <time>2020-08-22T10:14:42.000Z</time>
      </trkpt>
      <trkpt lat="43.17262348718941211700439453125" lon="-1.43071551807224750518798828125">
        <ele>514.20001220703125</ele>
        <time>2020-08-22T10:14:47.000Z</time>
      </trkpt>
      <trkpt lat="43.17262818105518817901611328125" lon="-1.43075055442750453948974609375">
        <ele>513.4000244140625</ele>
        <time>2020-08-22T10:14:48.000Z</time>
      </trkpt>
      <trkpt lat="43.17263421602547168731689453125" lon="-1.43078391440212726593017578125">
        <ele>513</ele>
        <time>2020-08-22T10:14:49.000Z</time>
      </trkpt>
      <trkpt lat="43.1726584397256374359130859375" lon="-1.43088768236339092254638671875">
        <ele>511.79998779296875</ele>
        <time>2020-08-22T10:14:52.000Z</time>
      </trkpt>
      <trkpt lat="43.172677047550678253173828125" lon="-1.4309610240161418914794921875">
        <ele>511.399993896484375</ele>
        <time>2020-08-22T10:14:54.000Z</time>
      </trkpt>
      <trkpt lat="43.1726969964802265167236328125" lon="-1.4310424961149692535400390625">
        <ele>510.399993896484375</ele>
        <time>2020-08-22T10:14:56.000Z</time>
      </trkpt>
      <trkpt lat="43.17275240086019039154052734375" lon="-1.43117845058441162109375">
        <ele>509.20001220703125</ele>
        <time>2020-08-22T10:15:00.000Z</time>
      </trkpt>
      <trkpt lat="43.17282951436936855316162109375" lon="-1.431240476667881011962890625">
        <ele>508.20001220703125</ele>
        <time>2020-08-22T10:15:03.000Z</time>
      </trkpt>
      <trkpt lat="43.1728968210518360137939453125" lon="-1.4312681369483470916748046875">
        <ele>507</ele>
        <time>2020-08-22T10:15:05.000Z</time>
      </trkpt>
      <trkpt lat="43.17301475442945957183837890625" lon="-1.43131599761545658111572265625">
        <ele>505.79998779296875</ele>
        <time>2020-08-22T10:15:08.000Z</time>
      </trkpt>
      <trkpt lat="43.1731326878070831298828125" lon="-1.4313693903386592864990234375">
        <ele>505.399993896484375</ele>
        <time>2020-08-22T10:15:11.000Z</time>
      </trkpt>
      <trkpt lat="43.17329068668186664581298828125" lon="-1.43144038505852222442626953125">
        <ele>504.79998779296875</ele>
        <time>2020-08-22T10:15:15.000Z</time>
      </trkpt>
      <trkpt lat="43.17340157926082611083984375" lon="-1.43148849718272686004638671875">
        <ele>504.20001220703125</ele>
        <time>2020-08-22T10:15:18.000Z</time>
      </trkpt>
      <trkpt lat="43.173436783254146575927734375" lon="-1.4314936101436614990234375">
        <ele>503.600006103515625</ele>
        <time>2020-08-22T10:15:19.000Z</time>
      </trkpt>
      <trkpt lat="43.1735700555145740509033203125" lon="-1.43147475086152553558349609375">
        <ele>502.399993896484375</ele>
        <time>2020-08-22T10:15:23.000Z</time>
      </trkpt>
      <trkpt lat="43.173786140978336334228515625" lon="-1.43140819855034351348876953125">
        <ele>501.399993896484375</ele>
        <time>2020-08-22T10:15:30.000Z</time>
      </trkpt>
      <trkpt lat="43.17383618094027042388916015625" lon="-1.4313693903386592864990234375">
        <ele>501</ele>
        <time>2020-08-22T10:15:32.000Z</time>
      </trkpt>
      <trkpt lat="43.173880688846111297607421875" lon="-1.43132387660443782806396484375">
        <ele>499.600006103515625</ele>
        <time>2020-08-22T10:15:34.000Z</time>
      </trkpt>
      <trkpt lat="43.1739277951419353485107421875" lon="-1.43127509392797946929931640625">
        <ele>498.79998779296875</ele>
        <time>2020-08-22T10:15:36.000Z</time>
      </trkpt>
      <trkpt lat="43.173948414623737335205078125" lon="-1.43124894239008426666259765625">
        <ele>498.600006103515625</ele>
        <time>2020-08-22T10:15:37.000Z</time>
      </trkpt>
      <trkpt lat="43.174030221998691558837890625" lon="-1.43114953301846981048583984375">
        <ele>497.600006103515625</ele>
        <time>2020-08-22T10:15:42.000Z</time>
      </trkpt>
      <trkpt lat="43.17404287867248058319091796875" lon="-1.431133188307285308837890625">
        <ele>497.20001220703125</ele>
        <time>2020-08-22T10:15:43.000Z</time>
      </trkpt>
      <trkpt lat="43.17405863665044307708740234375" lon="-1.4311115629971027374267578125">
        <ele>496.399993896484375</ele>
        <time>2020-08-22T10:15:47.000Z</time>
      </trkpt>
      <trkpt lat="43.174058385193347930908203125" lon="-1.431111060082912445068359375">
        <ele>496.399993896484375</ele>
        <time>2020-08-22T10:15:48.000Z</time>
      </trkpt>
      <trkpt lat="43.17406919784843921661376953125" lon="-1.43111474812030792236328125">
        <ele>496.20001220703125</ele>
        <time>2020-08-22T10:16:04.000Z</time>
      </trkpt>
      <trkpt lat="43.174082525074481964111328125" lon="-1.43108122050762176513671875">
        <ele>496.20001220703125</ele>
        <time>2020-08-22T10:16:21.000Z</time>
      </trkpt>
      <trkpt lat="43.17414714954793453216552734375" lon="-1.43091349862515926361083984375">
        <ele>495.600006103515625</ele>
        <time>2020-08-22T10:16:26.000Z</time>
      </trkpt>
      <trkpt lat="43.17419744096696376800537109375" lon="-1.4308309368789196014404296875">
        <ele>494.600006103515625</ele>
        <time>2020-08-22T10:16:29.000Z</time>
      </trkpt>
      <trkpt lat="43.1742127798497676849365234375" lon="-1.430807299911975860595703125">
        <ele>494</ele>
        <time>2020-08-22T10:16:31.000Z</time>
      </trkpt>
      <trkpt lat="43.1742189824581146240234375" lon="-1.430804617702960968017578125">
        <ele>493.600006103515625</ele>
        <time>2020-08-22T10:16:37.000Z</time>
      </trkpt>
      <trkpt lat="43.1742503307759761810302734375" lon="-1.430790536105632781982421875">
        <ele>493.20001220703125</ele>
        <time>2020-08-22T10:16:39.000Z</time>
      </trkpt>
      <trkpt lat="43.1743425317108631134033203125" lon="-1.43085834570229053497314453125">
        <ele>492.399993896484375</ele>
        <time>2020-08-22T10:16:43.000Z</time>
      </trkpt>
      <trkpt lat="43.174360133707523345947265625" lon="-1.43089690245687961578369140625">
        <ele>492.20001220703125</ele>
        <time>2020-08-22T10:16:44.000Z</time>
      </trkpt>
      <trkpt lat="43.17440464161336421966552734375" lon="-1.43098692409694194793701171875">
        <ele>491.399993896484375</ele>
        <time>2020-08-22T10:16:46.000Z</time>
      </trkpt>
      <trkpt lat="43.17445325665175914764404296875" lon="-1.431086249649524688720703125">
        <ele>490.600006103515625</ele>
        <time>2020-08-22T10:16:48.000Z</time>
      </trkpt>
      <trkpt lat="43.17447303794324398040771484375" lon="-1.4311387203633785247802734375">
        <ele>490.20001220703125</ele>
        <time>2020-08-22T10:16:49.000Z</time>
      </trkpt>
      <trkpt lat="43.17449550144374370574951171875" lon="-1.4312667958438396453857421875">
        <ele>489.20001220703125</ele>
        <time>2020-08-22T10:16:51.000Z</time>
      </trkpt>
      <trkpt lat="43.1745027936995029449462890625" lon="-1.43134835176169872283935546875">
        <ele>488.79998779296875</ele>
        <time>2020-08-22T10:16:52.000Z</time>
      </trkpt>
      <trkpt lat="43.17453020252287387847900390625" lon="-1.4315554685890674591064453125">
        <ele>487.79998779296875</ele>
        <time>2020-08-22T10:16:54.000Z</time>
      </trkpt>
      <trkpt lat="43.17455652169883251190185546875" lon="-1.4316708035767078399658203125">
        <ele>487</ele>
        <time>2020-08-22T10:16:55.000Z</time>
      </trkpt>
      <trkpt lat="43.174587786197662353515625" lon="-1.43178521655499935150146484375">
        <ele>486</ele>
        <time>2020-08-22T10:16:56.000Z</time>
      </trkpt>
      <trkpt lat="43.17465375177562236785888671875" lon="-1.43200683407485485076904296875">
        <ele>484.600006103515625</ele>
        <time>2020-08-22T10:16:58.000Z</time>
      </trkpt>
      <trkpt lat="43.1746845133602619171142578125" lon="-1.4321160502731800079345703125">
        <ele>484</ele>
        <time>2020-08-22T10:16:59.000Z</time>
      </trkpt>
      <trkpt lat="43.1747116707265377044677734375" lon="-1.4322233386337757110595703125">
        <ele>483.600006103515625</ele>
        <time>2020-08-22T10:17:00.000Z</time>
      </trkpt>
      <trkpt lat="43.17473941482603549957275390625" lon="-1.43232710659503936767578125">
        <ele>483.399993896484375</ele>
        <time>2020-08-22T10:17:01.000Z</time>
      </trkpt>
      <trkpt lat="43.1747723557054996490478515625" lon="-1.43242391757667064666748046875">
        <ele>483.20001220703125</ele>
        <time>2020-08-22T10:17:02.000Z</time>
      </trkpt>
      <trkpt lat="43.17488157190382480621337890625" lon="-1.43265307880938053131103515625">
        <ele>483</ele>
        <time>2020-08-22T10:17:05.000Z</time>
      </trkpt>
      <trkpt lat="43.17498098127543926239013671875" lon="-1.43296681344509124755859375">
        <ele>483.79998779296875</ele>
        <time>2020-08-22T10:17:10.000Z</time>
      </trkpt>
      <trkpt lat="43.17500109784305095672607421875" lon="-1.4333334378898143768310546875">
        <ele>483</ele>
        <time>2020-08-22T10:17:15.000Z</time>
      </trkpt>
      <trkpt lat="43.1749996729195117950439453125" lon="-1.433543823659420013427734375">
        <ele>482.600006103515625</ele>
        <time>2020-08-22T10:17:20.000Z</time>
      </trkpt>
      <trkpt lat="43.17500327713787555694580078125" lon="-1.43354759551584720611572265625">
        <ele>482</ele>
        <time>2020-08-22T10:17:24.000Z</time>
      </trkpt>
      <trkpt lat="43.174998499453067779541015625" lon="-1.4335473440587520599365234375">
        <ele>481.79998779296875</ele>
        <time>2020-08-22T10:17:33.000Z</time>
      </trkpt>
      <trkpt lat="43.17499791271984577178955078125" lon="-1.43354759551584720611572265625">
        <ele>481.79998779296875</ele>
        <time>2020-08-22T10:17:48.000Z</time>
      </trkpt>
      <trkpt lat="43.174995481967926025390625" lon="-1.433547176420688629150390625">
        <ele>481.600006103515625</ele>
        <time>2020-08-22T10:17:52.000Z</time>
      </trkpt>
      <trkpt lat="43.17499523051083087921142578125" lon="-1.43354575149714946746826171875">
        <ele>481.79998779296875</ele>
        <time>2020-08-22T10:17:59.000Z</time>
      </trkpt>
      <trkpt lat="43.175001181662082672119140625" lon="-1.43354709260165691375732421875">
        <ele>481.600006103515625</ele>
        <time>2020-08-22T10:18:12.000Z</time>
      </trkpt>
      <trkpt lat="43.175001181662082672119140625" lon="-1.4335483498871326446533203125">
        <ele>481.79998779296875</ele>
        <time>2020-08-22T10:18:42.000Z</time>
      </trkpt>
      <trkpt lat="43.1749968230724334716796875" lon="-1.43355011008679866790771484375">
        <ele>481.79998779296875</ele>
        <time>2020-08-22T10:18:50.000Z</time>
      </trkpt>
      <trkpt lat="43.17499816417694091796875" lon="-1.43354759551584720611572265625">
        <ele>481.79998779296875</ele>
        <time>2020-08-22T10:19:31.000Z</time>
      </trkpt>
      <trkpt lat="43.17499808035790920257568359375" lon="-1.43354726023972034454345703125">
        <ele>481.600006103515625</ele>
        <time>2020-08-22T10:19:40.000Z</time>
      </trkpt>
      <trkpt lat="43.17499640397727489471435546875" lon="-1.43355958163738250732421875">
        <ele>481.600006103515625</ele>
        <time>2020-08-22T10:19:48.000Z</time>
      </trkpt>
      <trkpt lat="43.1749949790537357330322265625" lon="-1.4335805363953113555908203125">
        <ele>481.600006103515625</ele>
        <time>2020-08-22T10:19:49.000Z</time>
      </trkpt>
      <trkpt lat="43.17498316057026386260986328125" lon="-1.4337756671011447906494140625">
        <ele>481.20001220703125</ele>
        <time>2020-08-22T10:19:54.000Z</time>
      </trkpt>
      <trkpt lat="43.1749738566577434539794921875" lon="-1.4338893257081508636474609375">
        <ele>480.79998779296875</ele>
        <time>2020-08-22T10:19:56.000Z</time>
      </trkpt>
      <trkpt lat="43.17493823356926441192626953125" lon="-1.43417774699628353118896484375">
        <ele>479.79998779296875</ele>
        <time>2020-08-22T10:20:00.000Z</time>
      </trkpt>
      <trkpt lat="43.17492415197193622589111328125" lon="-1.43427011556923389434814453125">
        <ele>479.399993896484375</ele>
        <time>2020-08-22T10:20:01.000Z</time>
      </trkpt>
      <trkpt lat="43.17488425411283969879150390625" lon="-1.43447957932949066162109375">
        <ele>478</ele>
        <time>2020-08-22T10:20:03.000Z</time>
      </trkpt>
      <trkpt lat="43.17486078478395938873291015625" lon="-1.434589214622974395751953125">
        <ele>477.600006103515625</ele>
        <time>2020-08-22T10:20:04.000Z</time>
      </trkpt>
      <trkpt lat="43.1748397462069988250732421875" lon="-1.43469474278390407562255859375">
        <ele>477</ele>
        <time>2020-08-22T10:20:05.000Z</time>
      </trkpt>
      <trkpt lat="43.17480345256626605987548828125" lon="-1.43488534726202487945556640625">
        <ele>475.600006103515625</ele>
        <time>2020-08-22T10:20:07.000Z</time>
      </trkpt>
      <trkpt lat="43.17478216253221035003662109375" lon="-1.435064971446990966796875">
        <ele>474.399993896484375</ele>
        <time>2020-08-22T10:20:09.000Z</time>
      </trkpt>
      <trkpt lat="43.1748139299452304840087890625" lon="-1.435338892042636871337890625">
        <ele>472.79998779296875</ele>
        <time>2020-08-22T10:20:12.000Z</time>
      </trkpt>
      <trkpt lat="43.1748394109308719635009765625" lon="-1.43542078323662281036376953125">
        <ele>472.20001220703125</ele>
        <time>2020-08-22T10:20:13.000Z</time>
      </trkpt>
      <trkpt lat="43.17487520165741443634033203125" lon="-1.435488760471343994140625">
        <ele>471.600006103515625</ele>
        <time>2020-08-22T10:20:14.000Z</time>
      </trkpt>
      <trkpt lat="43.1749788857996463775634765625" lon="-1.435576938092708587646484375">
        <ele>470.20001220703125</ele>
        <time>2020-08-22T10:20:16.000Z</time>
      </trkpt>
      <trkpt lat="43.17504736594855785369873046875" lon="-1.43560074269771575927734375">
        <ele>469.20001220703125</ele>
        <time>2020-08-22T10:20:17.000Z</time>
      </trkpt>
      <trkpt lat="43.17512464709579944610595703125" lon="-1.435613818466663360595703125">
        <ele>468.20001220703125</ele>
        <time>2020-08-22T10:20:18.000Z</time>
      </trkpt>
      <trkpt lat="43.17520779557526111602783203125" lon="-1.43561976961791515350341796875">
        <ele>466.600006103515625</ele>
        <time>2020-08-22T10:20:19.000Z</time>
      </trkpt>
      <trkpt lat="43.17529312334954738616943359375" lon="-1.435623876750469207763671875">
        <ele>465.399993896484375</ele>
        <time>2020-08-22T10:20:20.000Z</time>
      </trkpt>
      <trkpt lat="43.175377361476421356201171875" lon="-1.43562815152108669281005859375">
        <ele>464.20001220703125</ele>
        <time>2020-08-22T10:20:21.000Z</time>
      </trkpt>
      <trkpt lat="43.1755391322076320648193359375" lon="-1.43563829362392425537109375">
        <ele>462.600006103515625</ele>
        <time>2020-08-22T10:20:23.000Z</time>
      </trkpt>
      <trkpt lat="43.17569646053016185760498046875" lon="-1.43564474768936634063720703125">
        <ele>461</ele>
        <time>2020-08-22T10:20:25.000Z</time>
      </trkpt>
      <trkpt lat="43.17584297619760036468505859375" lon="-1.43565011210739612579345703125">
        <ele>459</ele>
        <time>2020-08-22T10:20:27.000Z</time>
      </trkpt>
      <trkpt lat="43.1759800203144550323486328125" lon="-1.4356451667845249176025390625">
        <ele>457.399993896484375</ele>
        <time>2020-08-22T10:20:29.000Z</time>
      </trkpt>
      <trkpt lat="43.17604489624500274658203125" lon="-1.43563183955848217010498046875">
        <ele>456.399993896484375</ele>
        <time>2020-08-22T10:20:30.000Z</time>
      </trkpt>
      <trkpt lat="43.17615377716720104217529296875" lon="-1.43559680320322513580322265625">
        <ele>454.79998779296875</ele>
        <time>2020-08-22T10:20:32.000Z</time>
      </trkpt>
      <trkpt lat="43.17619300447404384613037109375" lon="-1.43560568802058696746826171875">
        <ele>453.600006103515625</ele>
        <time>2020-08-22T10:20:33.000Z</time>
      </trkpt>
      <trkpt lat="43.1762264482676982879638671875" lon="-1.4356894232332706451416015625">
        <ele>451.79998779296875</ele>
        <time>2020-08-22T10:20:35.000Z</time>
      </trkpt>
      <trkpt lat="43.1762160547077655792236328125" lon="-1.43583183176815509796142578125">
        <ele>451</ele>
        <time>2020-08-22T10:20:37.000Z</time>
      </trkpt>
      <trkpt lat="43.17620423622429370880126953125" lon="-1.43591682426631450653076171875">
        <ele>450.399993896484375</ele>
        <time>2020-08-22T10:20:38.000Z</time>
      </trkpt>
      <trkpt lat="43.17618973553180694580078125" lon="-1.43601221032440662384033203125">
        <ele>449.399993896484375</ele>
        <time>2020-08-22T10:20:39.000Z</time>
      </trkpt>
      <trkpt lat="43.17617489956319332122802734375" lon="-1.4361231029033660888671875">
        <ele>448.20001220703125</ele>
        <time>2020-08-22T10:20:40.000Z</time>
      </trkpt>
      <trkpt lat="43.176151178777217864990234375" lon="-1.4363765716552734375">
        <ele>446.399993896484375</ele>
        <time>2020-08-22T10:20:42.000Z</time>
      </trkpt>
      <trkpt lat="43.1761469878256320953369140625" lon="-1.436511687934398651123046875">
        <ele>445.399993896484375</ele>
        <time>2020-08-22T10:20:43.000Z</time>
      </trkpt>
      <trkpt lat="43.17615914158523082733154296875" lon="-1.43677630461752414703369140625">
        <ele>443.600006103515625</ele>
        <time>2020-08-22T10:20:45.000Z</time>
      </trkpt>
      <trkpt lat="43.1761915795505046844482421875" lon="-1.43703748472034931182861328125">
        <ele>442</ele>
        <time>2020-08-22T10:20:47.000Z</time>
      </trkpt>
      <trkpt lat="43.1762217544019222259521484375" lon="-1.437289528548717498779296875">
        <ele>440.399993896484375</ele>
        <time>2020-08-22T10:20:49.000Z</time>
      </trkpt>
      <trkpt lat="43.176245056092739105224609375" lon="-1.43748876638710498809814453125">
        <ele>438.399993896484375</ele>
        <time>2020-08-22T10:20:51.000Z</time>
      </trkpt>
      <trkpt lat="43.1762663461267948150634765625" lon="-1.4375565759837627410888671875">
        <ele>437</ele>
        <time>2020-08-22T10:20:52.000Z</time>
      </trkpt>
      <trkpt lat="43.1763468123972415924072265625" lon="-1.4376179315149784088134765625">
        <ele>435</ele>
        <time>2020-08-22T10:20:54.000Z</time>
      </trkpt>
      <trkpt lat="43.17645083181560039520263671875" lon="-1.43758063204586505889892578125">
        <ele>433.600006103515625</ele>
        <time>2020-08-22T10:20:56.000Z</time>
      </trkpt>
      <trkpt lat="43.1765017099678516387939453125" lon="-1.4375307597219944000244140625">
        <ele>432.79998779296875</ele>
        <time>2020-08-22T10:20:57.000Z</time>
      </trkpt>
      <trkpt lat="43.17655057646334171295166015625" lon="-1.43746915273368358612060546875">
        <ele>432.20001220703125</ele>
        <time>2020-08-22T10:20:58.000Z</time>
      </trkpt>
      <trkpt lat="43.176642693579196929931640625" lon="-1.4373259060084819793701171875">
        <ele>430.79998779296875</ele>
        <time>2020-08-22T10:21:00.000Z</time>
      </trkpt>
      <trkpt lat="43.17668401636183261871337890625" lon="-1.43725424073636531829833984375">
        <ele>429.79998779296875</ele>
        <time>2020-08-22T10:21:01.000Z</time>
      </trkpt>
      <trkpt lat="43.17672240547835826873779296875" lon="-1.4371852576732635498046875">
        <ele>429</ele>
        <time>2020-08-22T10:21:02.000Z</time>
      </trkpt>
      <trkpt lat="43.17676163278520107269287109375" lon="-1.43711191602051258087158203125">
        <ele>428.20001220703125</ele>
        <time>2020-08-22T10:21:03.000Z</time>
      </trkpt>
      <trkpt lat="43.17680253647267818450927734375" lon="-1.43703438341617584228515625">
        <ele>427.20001220703125</ele>
        <time>2020-08-22T10:21:04.000Z</time>
      </trkpt>
      <trkpt lat="43.17687663249671459197998046875" lon="-1.4368794858455657958984375">
        <ele>425.79998779296875</ele>
        <time>2020-08-22T10:21:06.000Z</time>
      </trkpt>
      <trkpt lat="43.17691393196582794189453125" lon="-1.43680044449865818023681640625">
        <ele>424.79998779296875</ele>
        <time>2020-08-22T10:21:07.000Z</time>
      </trkpt>
      <trkpt lat="43.17695592530071735382080078125" lon="-1.4367210678756237030029296875">
        <ele>424.20001220703125</ele>
        <time>2020-08-22T10:21:08.000Z</time>
      </trkpt>
      <trkpt lat="43.17704695276916027069091796875" lon="-1.4365685172379016876220703125">
        <ele>423</ele>
        <time>2020-08-22T10:21:10.000Z</time>
      </trkpt>
      <trkpt lat="43.17712406627833843231201171875" lon="-1.436421163380146026611328125">
        <ele>422</ele>
        <time>2020-08-22T10:21:12.000Z</time>
      </trkpt>
      <trkpt lat="43.1771850027143955230712890625" lon="-1.43627556972205638885498046875">
        <ele>420.399993896484375</ele>
        <time>2020-08-22T10:21:14.000Z</time>
      </trkpt>
      <trkpt lat="43.177270330488681793212890625" lon="-1.4361847937107086181640625">
        <ele>419.600006103515625</ele>
        <time>2020-08-22T10:21:16.000Z</time>
      </trkpt>
      <trkpt lat="43.17732556723058223724365234375" lon="-1.43617414869368076324462890625">
        <ele>419.20001220703125</ele>
        <time>2020-08-22T10:21:17.000Z</time>
      </trkpt>
      <trkpt lat="43.17745431326329708099365234375" lon="-1.4362292177975177764892578125">
        <ele>418</ele>
        <time>2020-08-22T10:21:19.000Z</time>
      </trkpt>
      <trkpt lat="43.17757970653474330902099609375" lon="-1.4363378472626209259033203125">
        <ele>416.600006103515625</ele>
        <time>2020-08-22T10:21:21.000Z</time>
      </trkpt>
      <trkpt lat="43.17770862020552158355712890625" lon="-1.4364545233547687530517578125">
        <ele>415.79998779296875</ele>
        <time>2020-08-22T10:21:23.000Z</time>
      </trkpt>
      <trkpt lat="43.177779950201511383056640625" lon="-1.4365158788859844207763671875">
        <ele>415.399993896484375</ele>
        <time>2020-08-22T10:21:24.000Z</time>
      </trkpt>
      <trkpt lat="43.177933506667613983154296875" lon="-1.43665744923055171966552734375">
        <ele>414.399993896484375</ele>
        <time>2020-08-22T10:21:26.000Z</time>
      </trkpt>
      <trkpt lat="43.17809049971401691436767578125" lon="-1.4368136040866374969482421875">
        <ele>412.79998779296875</ele>
        <time>2020-08-22T10:21:28.000Z</time>
      </trkpt>
      <trkpt lat="43.17824556492269039154052734375" lon="-1.43699406646192073822021484375">
        <ele>411.20001220703125</ele>
        <time>2020-08-22T10:21:30.000Z</time>
      </trkpt>
      <trkpt lat="43.1783246062695980072021484375" lon="-1.43709381110966205596923828125">
        <ele>410.20001220703125</ele>
        <time>2020-08-22T10:21:31.000Z</time>
      </trkpt>
      <trkpt lat="43.17840431816875934600830078125" lon="-1.43719573505222797393798828125">
        <ele>408.79998779296875</ele>
        <time>2020-08-22T10:21:32.000Z</time>
      </trkpt>
      <trkpt lat="43.17848193459212779998779296875" lon="-1.43729698844254016876220703125">
        <ele>408</ele>
        <time>2020-08-22T10:21:33.000Z</time>
      </trkpt>
      <trkpt lat="43.17855586297810077667236328125" lon="-1.43739488907158374786376953125">
        <ele>407</ele>
        <time>2020-08-22T10:21:34.000Z</time>
      </trkpt>
      <trkpt lat="43.1786848604679107666015625" lon="-1.43758448772132396697998046875">
        <ele>405.600006103515625</ele>
        <time>2020-08-22T10:21:36.000Z</time>
      </trkpt>
      <trkpt lat="43.17873607389628887176513671875" lon="-1.4376789517700672149658203125">
        <ele>405.20001220703125</ele>
        <time>2020-08-22T10:21:37.000Z</time>
      </trkpt>
      <trkpt lat="43.17880983464419841766357421875" lon="-1.43785974942147731781005859375">
        <ele>403.79998779296875</ele>
        <time>2020-08-22T10:21:39.000Z</time>
      </trkpt>
      <trkpt lat="43.178854174911975860595703125" lon="-1.43801649101078510284423828125">
        <ele>402.79998779296875</ele>
        <time>2020-08-22T10:21:41.000Z</time>
      </trkpt>
      <trkpt lat="43.17887202836573123931884765625" lon="-1.43807985819876194000244140625">
        <ele>402.399993896484375</ele>
        <time>2020-08-22T10:21:42.000Z</time>
      </trkpt>
      <trkpt lat="43.178925924003124237060546875" lon="-1.43827029503881931304931640625">
        <ele>401.399993896484375</ele>
        <time>2020-08-22T10:21:45.000Z</time>
      </trkpt>
      <trkpt lat="43.178954422473907470703125" lon="-1.4383357577025890350341796875">
        <ele>401</ele>
        <time>2020-08-22T10:21:46.000Z</time>
      </trkpt>
      <trkpt lat="43.17910529673099517822265625" lon="-1.43862803466618061065673828125">
        <ele>400</ele>
        <time>2020-08-22T10:21:50.000Z</time>
      </trkpt>
      <trkpt lat="43.17914779298007488250732421875" lon="-1.438711099326610565185546875">
        <ele>399.600006103515625</ele>
        <time>2020-08-22T10:21:51.000Z</time>
      </trkpt>
      <trkpt lat="43.17923613823950290679931640625" lon="-1.43888670019805431365966796875">
        <ele>399</ele>
        <time>2020-08-22T10:21:53.000Z</time>
      </trkpt>
      <trkpt lat="43.17932247184216976165771484375" lon="-1.43906607292592525482177734375">
        <ele>397.600006103515625</ele>
        <time>2020-08-22T10:21:55.000Z</time>
      </trkpt>
      <trkpt lat="43.17940033972263336181640625" lon="-1.43922566436231136322021484375">
        <ele>396.399993896484375</ele>
        <time>2020-08-22T10:21:57.000Z</time>
      </trkpt>
      <trkpt lat="43.179514668881893157958984375" lon="-1.43942280672490596771240234375">
        <ele>394.600006103515625</ele>
        <time>2020-08-22T10:22:00.000Z</time>
      </trkpt>
      <trkpt lat="43.17953017540276050567626953125" lon="-1.439485587179660797119140625">
        <ele>394</ele>
        <time>2020-08-22T10:22:01.000Z</time>
      </trkpt>
      <trkpt lat="43.17952774465084075927734375" lon="-1.43954358994960784912109375">
        <ele>393.399993896484375</ele>
        <time>2020-08-22T10:22:02.000Z</time>
      </trkpt>
      <trkpt lat="43.17947351373732089996337890625" lon="-1.43963386304676532745361328125">
        <ele>392.20001220703125</ele>
        <time>2020-08-22T10:22:04.000Z</time>
      </trkpt>
      <trkpt lat="43.17936086095869541168212890625" lon="-1.4396966435015201568603515625">
        <ele>391.20001220703125</ele>
        <time>2020-08-22T10:22:06.000Z</time>
      </trkpt>
      <trkpt lat="43.1792942248284816741943359375" lon="-1.4397311769425868988037109375">
        <ele>390.399993896484375</ele>
        <time>2020-08-22T10:22:07.000Z</time>
      </trkpt>
      <trkpt lat="43.17922976799309253692626953125" lon="-1.43977602012455463409423828125">
        <ele>389.79998779296875</ele>
        <time>2020-08-22T10:22:08.000Z</time>
      </trkpt>
      <trkpt lat="43.17916740663349628448486328125" lon="-1.4398284070193767547607421875">
        <ele>388.600006103515625</ele>
        <time>2020-08-22T10:22:09.000Z</time>
      </trkpt>
      <trkpt lat="43.17904603667557239532470703125" lon="-1.43996461294591426849365234375">
        <ele>387</ele>
        <time>2020-08-22T10:22:11.000Z</time>
      </trkpt>
      <trkpt lat="43.1789871118962764739990234375" lon="-1.44003451801836490631103515625">
        <ele>386</ele>
        <time>2020-08-22T10:22:12.000Z</time>
      </trkpt>
      <trkpt lat="43.17886062897741794586181640625" lon="-1.44014331512153148651123046875">
        <ele>383.79998779296875</ele>
        <time>2020-08-22T10:22:14.000Z</time>
      </trkpt>
      <trkpt lat="43.17878887988626956939697265625" lon="-1.44017902202904224395751953125">
        <ele>382.79998779296875</ele>
        <time>2020-08-22T10:22:15.000Z</time>
      </trkpt>
      <trkpt lat="43.1787235848605632781982421875" lon="-1.44020383246243000030517578125">
        <ele>381.79998779296875</ele>
        <time>2020-08-22T10:22:16.000Z</time>
      </trkpt>
      <trkpt lat="43.1786665879189968109130859375" lon="-1.44022461958229541778564453125">
        <ele>381</ele>
        <time>2020-08-22T10:22:17.000Z</time>
      </trkpt>
      <trkpt lat="43.178623504936695098876953125" lon="-1.440253369510173797607421875">
        <ele>380.20001220703125</ele>
        <time>2020-08-22T10:22:18.000Z</time>
      </trkpt>
      <trkpt lat="43.178598023951053619384765625" lon="-1.44029335118830204010009765625">
        <ele>379.20001220703125</ele>
        <time>2020-08-22T10:22:19.000Z</time>
      </trkpt>
      <trkpt lat="43.1785909831523895263671875" lon="-1.44037582911550998687744140625">
        <ele>378</ele>
        <time>2020-08-22T10:22:21.000Z</time>
      </trkpt>
      <trkpt lat="43.17861738614737987518310546875" lon="-1.4403940178453922271728515625">
        <ele>377.20001220703125</ele>
        <time>2020-08-22T10:22:22.000Z</time>
      </trkpt>
      <trkpt lat="43.17865912802517414093017578125" lon="-1.44040198065340518951416015625">
        <ele>376.79998779296875</ele>
        <time>2020-08-22T10:22:23.000Z</time>
      </trkpt>
      <trkpt lat="43.17870707251131534576416015625" lon="-1.44040432758629322052001953125">
        <ele>376.399993896484375</ele>
        <time>2020-08-22T10:22:24.000Z</time>
      </trkpt>
      <trkpt lat="43.178815953433513641357421875" lon="-1.440419666469097137451171875">
        <ele>375.399993896484375</ele>
        <time>2020-08-22T10:22:26.000Z</time>
      </trkpt>
      <trkpt lat="43.17894947715103626251220703125" lon="-1.44043735228478908538818359375">
        <ele>374.399993896484375</ele>
        <time>2020-08-22T10:22:28.000Z</time>
      </trkpt>
      <trkpt lat="43.179083168506622314453125" lon="-1.44049845635890960693359375">
        <ele>373.20001220703125</ele>
        <time>2020-08-22T10:22:30.000Z</time>
      </trkpt>
      <trkpt lat="43.179198168218135833740234375" lon="-1.440634913742542266845703125">
        <ele>372</ele>
        <time>2020-08-22T10:22:32.000Z</time>
      </trkpt>
      <trkpt lat="43.17925818264484405517578125" lon="-1.4407195709645748138427734375">
        <ele>371.399993896484375</ele>
        <time>2020-08-22T10:22:33.000Z</time>
      </trkpt>
      <trkpt lat="43.179319202899932861328125" lon="-1.4408000372350215911865234375">
        <ele>370.79998779296875</ele>
        <time>2020-08-22T10:22:34.000Z</time>
      </trkpt>
      <trkpt lat="43.17937879823148250579833984375" lon="-1.440876312553882598876953125">
        <ele>369.20001220703125</ele>
        <time>2020-08-22T10:22:35.000Z</time>
      </trkpt>
      <trkpt lat="43.179430179297924041748046875" lon="-1.44095216877758502960205078125">
        <ele>368.20001220703125</ele>
        <time>2020-08-22T10:22:36.000Z</time>
      </trkpt>
      <trkpt lat="43.17946865223348140716552734375" lon="-1.44103498198091983795166015625">
        <ele>367.399993896484375</ele>
        <time>2020-08-22T10:22:37.000Z</time>
      </trkpt>
      <trkpt lat="43.17949396558105945587158203125" lon="-1.441122405230998992919921875">
        <ele>366.79998779296875</ele>
        <time>2020-08-22T10:22:38.000Z</time>
      </trkpt>
      <trkpt lat="43.17951542325317859649658203125" lon="-1.44130043685436248779296875">
        <ele>365.399993896484375</ele>
        <time>2020-08-22T10:22:40.000Z</time>
      </trkpt>
      <trkpt lat="43.17951676435768604278564453125" lon="-1.44147436134517192840576171875">
        <ele>363.79998779296875</ele>
        <time>2020-08-22T10:22:42.000Z</time>
      </trkpt>
      <trkpt lat="43.1795195303857326507568359375" lon="-1.44155885092914104461669921875">
        <ele>363.20001220703125</ele>
        <time>2020-08-22T10:22:43.000Z</time>
      </trkpt>
      <trkpt lat="43.17953042685985565185546875" lon="-1.44164375960826873779296875">
        <ele>362.79998779296875</ele>
        <time>2020-08-22T10:22:44.000Z</time>
      </trkpt>
      <trkpt lat="43.17955180071294307708740234375" lon="-1.4417277462780475616455078125">
        <ele>362.79998779296875</ele>
        <time>2020-08-22T10:22:45.000Z</time>
      </trkpt>
      <trkpt lat="43.1795845739543437957763671875" lon="-1.4418058656156063079833984375">
        <ele>362.399993896484375</ele>
        <time>2020-08-22T10:22:46.000Z</time>
      </trkpt>
      <trkpt lat="43.179668895900249481201171875" lon="-1.4419624395668506622314453125">
        <ele>360.600006103515625</ele>
        <time>2020-08-22T10:22:48.000Z</time>
      </trkpt>
      <trkpt lat="43.17971013486385345458984375" lon="-1.44205288030207157135009765625">
        <ele>360</ele>
        <time>2020-08-22T10:22:49.000Z</time>
      </trkpt>
      <trkpt lat="43.17974927835166454315185546875" lon="-1.4421446621417999267578125">
        <ele>359.399993896484375</ele>
        <time>2020-08-22T10:22:50.000Z</time>
      </trkpt>
      <trkpt lat="43.17978833802044391632080078125" lon="-1.44223242066800594329833984375">
        <ele>358.20001220703125</ele>
        <time>2020-08-22T10:22:51.000Z</time>
      </trkpt>
      <trkpt lat="43.17983351647853851318359375" lon="-1.4423151500523090362548828125">
        <ele>357.399993896484375</ele>
        <time>2020-08-22T10:22:52.000Z</time>
      </trkpt>
      <trkpt lat="43.179886825382709503173828125" lon="-1.44239469431340694427490234375">
        <ele>357</ele>
        <time>2020-08-22T10:22:53.000Z</time>
      </trkpt>
      <trkpt lat="43.179943822324275970458984375" lon="-1.44246761687099933624267578125">
        <ele>356.79998779296875</ele>
        <time>2020-08-22T10:22:54.000Z</time>
      </trkpt>
      <trkpt lat="43.1800554692745208740234375" lon="-1.44260608591139316558837890625">
        <ele>355.600006103515625</ele>
        <time>2020-08-22T10:22:56.000Z</time>
      </trkpt>
      <trkpt lat="43.180160410702228546142578125" lon="-1.44275193102657794952392578125">
        <ele>353.79998779296875</ele>
        <time>2020-08-22T10:22:58.000Z</time>
      </trkpt>
      <trkpt lat="43.18020391277968883514404296875" lon="-1.44282971508800983428955078125">
        <ele>352.399993896484375</ele>
        <time>2020-08-22T10:22:59.000Z</time>
      </trkpt>
      <trkpt lat="43.18024196662008762359619140625" lon="-1.4429095946252346038818359375">
        <ele>352</ele>
        <time>2020-08-22T10:23:00.000Z</time>
      </trkpt>
      <trkpt lat="43.18028085865080356597900390625" lon="-1.44299014471471309661865234375">
        <ele>351.399993896484375</ele>
        <time>2020-08-22T10:23:01.000Z</time>
      </trkpt>
      <trkpt lat="43.18036735989153385162353515625" lon="-1.4431509934365749359130859375">
        <ele>349.600006103515625</ele>
        <time>2020-08-22T10:23:03.000Z</time>
      </trkpt>
      <trkpt lat="43.1804150529205799102783203125" lon="-1.443225257098674774169921875">
        <ele>348.20001220703125</ele>
        <time>2020-08-22T10:23:04.000Z</time>
      </trkpt>
      <trkpt lat="43.18052510730922222137451171875" lon="-1.443375460803508758544921875">
        <ele>346.600006103515625</ele>
        <time>2020-08-22T10:23:06.000Z</time>
      </trkpt>
      <trkpt lat="43.18058721721172332763671875" lon="-1.44345399923622608184814453125">
        <ele>345.600006103515625</ele>
        <time>2020-08-22T10:23:07.000Z</time>
      </trkpt>
      <trkpt lat="43.18065050058066844940185546875" lon="-1.44352876581251621246337890625">
        <ele>345.20001220703125</ele>
        <time>2020-08-22T10:23:08.000Z</time>
      </trkpt>
      <trkpt lat="43.18077555857598781585693359375" lon="-1.44366941414773464202880859375">
        <ele>343.600006103515625</ele>
        <time>2020-08-22T10:23:10.000Z</time>
      </trkpt>
      <trkpt lat="43.18090128712356090545654296875" lon="-1.44379732199013233184814453125">
        <ele>341.399993896484375</ele>
        <time>2020-08-22T10:23:12.000Z</time>
      </trkpt>
      <trkpt lat="43.18096138536930084228515625" lon="-1.44385733641684055328369140625">
        <ele>340.79998779296875</ele>
        <time>2020-08-22T10:23:13.000Z</time>
      </trkpt>
      <trkpt lat="43.181014358997344970703125" lon="-1.4439097233116626739501953125">
        <ele>340.399993896484375</ele>
        <time>2020-08-22T10:23:14.000Z</time>
      </trkpt>
      <trkpt lat="43.18109675310552120208740234375" lon="-1.44399530254304409027099609375">
        <ele>340</ele>
        <time>2020-08-22T10:23:16.000Z</time>
      </trkpt>
      <trkpt lat="43.1811573542654514312744140625" lon="-1.44411583431065082550048828125">
        <ele>339.20001220703125</ele>
        <time>2020-08-22T10:23:20.000Z</time>
      </trkpt>
      <trkpt lat="43.1811422668397426605224609375" lon="-1.44425028003752231597900390625">
        <ele>338.399993896484375</ele>
        <time>2020-08-22T10:23:25.000Z</time>
      </trkpt>
      <trkpt lat="43.18112776614725589752197265625" lon="-1.44427894614636898040771484375">
        <ele>338.20001220703125</ele>
        <time>2020-08-22T10:23:26.000Z</time>
      </trkpt>
      <trkpt lat="43.18102978169918060302734375" lon="-1.44442412070930004119873046875">
        <ele>337.600006103515625</ele>
        <time>2020-08-22T10:23:30.000Z</time>
      </trkpt>
      <trkpt lat="43.1809659115970134735107421875" lon="-1.44452042877674102783203125">
        <ele>337.20001220703125</ele>
        <time>2020-08-22T10:23:32.000Z</time>
      </trkpt>
      <trkpt lat="43.180816210806369781494140625" lon="-1.444722600281238555908203125">
        <ele>336.399993896484375</ele>
        <time>2020-08-22T10:23:36.000Z</time>
      </trkpt>
      <trkpt lat="43.180776648223400115966796875" lon="-1.44477523863315582275390625">
        <ele>336.399993896484375</ele>
        <time>2020-08-22T10:23:37.000Z</time>
      </trkpt>
      <trkpt lat="43.1806011311709880828857421875" lon="-1.44501864910125732421875">
        <ele>335</ele>
        <time>2020-08-22T10:23:42.000Z</time>
      </trkpt>
      <trkpt lat="43.18056718446314334869384765625" lon="-1.44506718032062053680419921875">
        <ele>335</ele>
        <time>2020-08-22T10:23:43.000Z</time>
      </trkpt>
      <trkpt lat="43.1804294697940349578857421875" lon="-1.44527153111994266510009765625">
        <ele>334</ele>
        <time>2020-08-22T10:23:47.000Z</time>
      </trkpt>
      <trkpt lat="43.1804001331329345703125" lon="-1.44532551057636737823486328125">
        <ele>333.79998779296875</ele>
        <time>2020-08-22T10:23:48.000Z</time>
      </trkpt>
      <trkpt lat="43.18033047951757907867431640625" lon="-1.44546590745449066162109375">
        <ele>333.20001220703125</ele>
        <time>2020-08-22T10:23:50.000Z</time>
      </trkpt>
      <trkpt lat="43.18030868656933307647705078125" lon="-1.44554436206817626953125">
        <ele>332.79998779296875</ele>
        <time>2020-08-22T10:23:51.000Z</time>
      </trkpt>
      <trkpt lat="43.18028789944946765899658203125" lon="-1.4456313662230968475341796875">
        <ele>332.600006103515625</ele>
        <time>2020-08-22T10:23:52.000Z</time>
      </trkpt>
      <trkpt lat="43.18027365021407604217529296875" lon="-1.4457272551953792572021484375">
        <ele>332.399993896484375</ele>
        <time>2020-08-22T10:23:53.000Z</time>
      </trkpt>
      <trkpt lat="43.18027180619537830352783203125" lon="-1.445819623768329620361328125">
        <ele>332.20001220703125</ele>
        <time>2020-08-22T10:23:54.000Z</time>
      </trkpt>
      <trkpt lat="43.1803131289780139923095703125" lon="-1.4460860006511211395263671875">
        <ele>331.399993896484375</ele>
        <time>2020-08-22T10:23:57.000Z</time>
      </trkpt>
      <trkpt lat="43.18034104071557521820068359375" lon="-1.44616973586380481719970703125">
        <ele>331.20001220703125</ele>
        <time>2020-08-22T10:23:58.000Z</time>
      </trkpt>
      <trkpt lat="43.1804237700998783111572265625" lon="-1.4464294910430908203125">
        <ele>330.399993896484375</ele>
        <time>2020-08-22T10:24:01.000Z</time>
      </trkpt>
      <trkpt lat="43.18050004541873931884765625" lon="-1.44669234752655029296875">
        <ele>329.79998779296875</ele>
        <time>2020-08-22T10:24:04.000Z</time>
      </trkpt>
      <trkpt lat="43.18056886084377765655517578125" lon="-1.44694841466844081878662109375">
        <ele>329.399993896484375</ele>
        <time>2020-08-22T10:24:07.000Z</time>
      </trkpt>
      <trkpt lat="43.18062837235629558563232421875" lon="-1.44718428142368793487548828125">
        <ele>329</ele>
        <time>2020-08-22T10:24:10.000Z</time>
      </trkpt>
      <trkpt lat="43.1807349063456058502197265625" lon="-1.4476550929248332977294921875">
        <ele>328.399993896484375</ele>
        <time>2020-08-22T10:24:16.000Z</time>
      </trkpt>
      <trkpt lat="43.1807727925479412078857421875" lon="-1.44793831743299961090087890625">
        <ele>327.79998779296875</ele>
        <time>2020-08-22T10:24:20.000Z</time>
      </trkpt>
      <trkpt lat="43.18077874369919300079345703125" lon="-1.44800721667706966400146484375">
        <ele>328</ele>
        <time>2020-08-22T10:24:21.000Z</time>
      </trkpt>
      <trkpt lat="43.18079450167715549468994140625" lon="-1.44807695411145687103271484375">
        <ele>328</ele>
        <time>2020-08-22T10:24:22.000Z</time>
      </trkpt>
      <trkpt lat="43.18082584999501705169677734375" lon="-1.44822598434984683990478515625">
        <ele>327.79998779296875</ele>
        <time>2020-08-22T10:24:24.000Z</time>
      </trkpt>
      <trkpt lat="43.1808706931769847869873046875" lon="-1.44854650832712650299072265625">
        <ele>327.399993896484375</ele>
        <time>2020-08-22T10:24:28.000Z</time>
      </trkpt>
      <trkpt lat="43.18090011365711688995361328125" lon="-1.44887155853211879730224609375">
        <ele>326.79998779296875</ele>
        <time>2020-08-22T10:24:32.000Z</time>
      </trkpt>
      <trkpt lat="43.180896006524562835693359375" lon="-1.44912083633244037628173828125">
        <ele>326.399993896484375</ele>
        <time>2020-08-22T10:24:35.000Z</time>
      </trkpt>
      <trkpt lat="43.18089701235294342041015625" lon="-1.44938721321523189544677734375">
        <ele>325.79998779296875</ele>
        <time>2020-08-22T10:24:38.000Z</time>
      </trkpt>
      <trkpt lat="43.18089860491454601287841796875" lon="-1.44957840442657470703125">
        <ele>325.399993896484375</ele>
        <time>2020-08-22T10:24:40.000Z</time>
      </trkpt>
      <trkpt lat="43.1809058971703052520751953125" lon="-1.4498806558549404144287109375">
        <ele>324.20001220703125</ele>
        <time>2020-08-22T10:24:43.000Z</time>
      </trkpt>
      <trkpt lat="43.18090631626546382904052734375" lon="-1.45008509047329425811767578125">
        <ele>323.600006103515625</ele>
        <time>2020-08-22T10:24:45.000Z</time>
      </trkpt>
      <trkpt lat="43.1809082441031932830810546875" lon="-1.4501864276826381683349609375">
        <ele>323</ele>
        <time>2020-08-22T10:24:46.000Z</time>
      </trkpt>
      <trkpt lat="43.18091352470219135284423828125" lon="-1.4507760107517242431640625">
        <ele>322</ele>
        <time>2020-08-22T10:24:52.000Z</time>
      </trkpt>
      <trkpt lat="43.18085946142673492431640625" lon="-1.45143382251262664794921875">
        <ele>321</ele>
        <time>2020-08-22T10:24:59.000Z</time>
      </trkpt>
      <trkpt lat="43.18075225688517093658447265625" lon="-1.45202734507620334625244140625">
        <ele>320.399993896484375</ele>
        <time>2020-08-22T10:25:07.000Z</time>
      </trkpt>
      <trkpt lat="43.18061512894928455352783203125" lon="-1.452558338642120361328125">
        <ele>319.600006103515625</ele>
        <time>2020-08-22T10:25:15.000Z</time>
      </trkpt>
      <trkpt lat="43.18059836514294147491455078125" lon="-1.4526245556771755218505859375">
        <ele>319.600006103515625</ele>
        <time>2020-08-22T10:25:16.000Z</time>
      </trkpt>
      <trkpt lat="43.18047347478568553924560546875" lon="-1.45312897861003875732421875">
        <ele>318.399993896484375</ele>
        <time>2020-08-22T10:25:23.000Z</time>
      </trkpt>
      <trkpt lat="43.18043776787817478179931640625" lon="-1.45328228361904621124267578125">
        <ele>318</ele>
        <time>2020-08-22T10:25:25.000Z</time>
      </trkpt>
      <trkpt lat="43.18037624470889568328857421875" lon="-1.4535160548985004425048828125">
        <ele>317.399993896484375</ele>
        <time>2020-08-22T10:25:28.000Z</time>
      </trkpt>
      <trkpt lat="43.18031371571123600006103515625" lon="-1.4537586271762847900390625">
        <ele>316.79998779296875</ele>
        <time>2020-08-22T10:25:31.000Z</time>
      </trkpt>
      <trkpt lat="43.1803020648658275604248046875" lon="-1.45384051837027072906494140625">
        <ele>316.399993896484375</ele>
        <time>2020-08-22T10:25:32.000Z</time>
      </trkpt>
      <trkpt lat="43.18029862828552722930908203125" lon="-1.45391997881233692169189453125">
        <ele>316.20001220703125</ele>
        <time>2020-08-22T10:25:33.000Z</time>
      </trkpt>
      <trkpt lat="43.1803164817392826080322265625" lon="-1.45406833849847316741943359375">
        <ele>316</ele>
        <time>2020-08-22T10:25:35.000Z</time>
      </trkpt>
      <trkpt lat="43.1803319044411182403564453125" lon="-1.45413707010447978973388671875">
        <ele>316</ele>
        <time>2020-08-22T10:25:36.000Z</time>
      </trkpt>
      <trkpt lat="43.180426619946956634521484375" lon="-1.45443161018192768096923828125">
        <ele>316.20001220703125</ele>
        <time>2020-08-22T10:25:41.000Z</time>
      </trkpt>
      <trkpt lat="43.1804712116718292236328125" lon="-1.45453177392482757568359375">
        <ele>316</ele>
        <time>2020-08-22T10:25:43.000Z</time>
      </trkpt>
      <trkpt lat="43.18052141927182674407958984375" lon="-1.4546224661171436309814453125">
        <ele>316</ele>
        <time>2020-08-22T10:25:45.000Z</time>
      </trkpt>
      <trkpt lat="43.18054170347750186920166015625" lon="-1.45467267371714115142822265625">
        <ele>316.20001220703125</ele>
        <time>2020-08-22T10:25:46.000Z</time>
      </trkpt>
      <trkpt lat="43.1805753149092197418212890625" lon="-1.4549201913177967071533203125">
        <ele>315.399993896484375</ele>
        <time>2020-08-22T10:25:50.000Z</time>
      </trkpt>
      <trkpt lat="43.180573470890522003173828125" lon="-1.45498582161962985992431640625">
        <ele>315.20001220703125</ele>
        <time>2020-08-22T10:25:51.000Z</time>
      </trkpt>
      <trkpt lat="43.18056450225412845611572265625" lon="-1.4551619254052639007568359375">
        <ele>314.20001220703125</ele>
        <time>2020-08-22T10:25:54.000Z</time>
      </trkpt>
      <trkpt lat="43.18056483753025531768798828125" lon="-1.45527063868939876556396484375">
        <ele>313.79998779296875</ele>
        <time>2020-08-22T10:25:56.000Z</time>
      </trkpt>
      <trkpt lat="43.1806212477385997772216796875" lon="-1.4553919248282909393310546875">
        <ele>313.600006103515625</ele>
        <time>2020-08-22T10:25:59.000Z</time>
      </trkpt>
      <trkpt lat="43.18077404983341693878173828125" lon="-1.4554993808269500732421875">
        <ele>313.600006103515625</ele>
        <time>2020-08-22T10:26:05.000Z</time>
      </trkpt>
      <trkpt lat="43.18086893297731876373291015625" lon="-1.4555637538433074951171875">
        <ele>313.79998779296875</ele>
        <time>2020-08-22T10:26:09.000Z</time>
      </trkpt>
      <trkpt lat="43.18092727102339267730712890625" lon="-1.4557704515755176544189453125">
        <ele>313.399993896484375</ele>
        <time>2020-08-22T10:26:14.000Z</time>
      </trkpt>
      <trkpt lat="43.1809538416564464569091796875" lon="-1.45585804246366024017333984375">
        <ele>313.20001220703125</ele>
        <time>2020-08-22T10:26:16.000Z</time>
      </trkpt>
      <trkpt lat="43.1809756346046924591064453125" lon="-1.4559253491461277008056640625">
        <ele>312.79998779296875</ele>
        <time>2020-08-22T10:26:18.000Z</time>
      </trkpt>
      <trkpt lat="43.18098376505076885223388671875" lon="-1.4559419453144073486328125">
        <ele>312.79998779296875</ele>
        <time>2020-08-22T10:26:19.000Z</time>
      </trkpt>
      <trkpt lat="43.1809555180370807647705078125" lon="-1.45600975491106510162353515625">
        <ele>312.79998779296875</ele>
        <time>2020-08-22T10:26:22.000Z</time>
      </trkpt>
      <trkpt lat="43.18094520829617977142333984375" lon="-1.45602199248969554901123046875">
        <ele>313</ele>
        <time>2020-08-22T10:26:23.000Z</time>
      </trkpt>
      <trkpt lat="43.180933892726898193359375" lon="-1.45603791810572147369384765625">
        <ele>312.600006103515625</ele>
        <time>2020-08-22T10:26:26.000Z</time>
      </trkpt>
      <trkpt lat="43.18093053996562957763671875" lon="-1.45603842101991176605224609375">
        <ele>312.399993896484375</ele>
        <time>2020-08-22T10:26:28.000Z</time>
      </trkpt>
      <trkpt lat="43.18102709949016571044921875" lon="-1.45623304881155490875244140625">
        <ele>312</ele>
        <time>2020-08-22T10:45:58.000Z</time>
      </trkpt>
      <trkpt lat="43.1810470484197139739990234375" lon="-1.45627059973776340484619140625">
        <ele>312.20001220703125</ele>
        <time>2020-08-22T10:46:01.000Z</time>
      </trkpt>
      <trkpt lat="43.18112365901470184326171875" lon="-1.45634452812373638153076171875">
        <ele>312.20001220703125</ele>
        <time>2020-08-22T10:46:06.000Z</time>
      </trkpt>
      <trkpt lat="43.18123589269816875457763671875" lon="-1.45651937462389469146728515625">
        <ele>311.600006103515625</ele>
        <time>2020-08-22T10:46:13.000Z</time>
      </trkpt>
      <trkpt lat="43.181381486356258392333984375" lon="-1.4567303471267223358154296875">
        <ele>311.20001220703125</ele>
        <time>2020-08-22T10:46:20.000Z</time>
      </trkpt>
      <trkpt lat="43.1814634613692760467529296875" lon="-1.456823050975799560546875">
        <ele>311</ele>
        <time>2020-08-22T10:46:23.000Z</time>
      </trkpt>
      <trkpt lat="43.1815117411315441131591796875" lon="-1.45687828771770000457763671875">
        <ele>310.600006103515625</ele>
        <time>2020-08-22T10:46:25.000Z</time>
      </trkpt>
      <trkpt lat="43.18169103004038333892822265625" lon="-1.4572882466018199920654296875">
        <ele>310.20001220703125</ele>
        <time>2020-08-22T10:46:34.000Z</time>
      </trkpt>
      <trkpt lat="43.18173595704138278961181640625" lon="-1.45739243365824222564697265625">
        <ele>310</ele>
        <time>2020-08-22T10:46:36.000Z</time>
      </trkpt>
      <trkpt lat="43.1817876733839511871337890625" lon="-1.45748463459312915802001953125">
        <ele>310</ele>
        <time>2020-08-22T10:46:38.000Z</time>
      </trkpt>
      <trkpt lat="43.1818391382694244384765625" lon="-1.45757029764354228973388671875">
        <ele>309.600006103515625</ele>
        <time>2020-08-22T10:46:40.000Z</time>
      </trkpt>
      <trkpt lat="43.18196050822734832763671875" lon="-1.4577309787273406982421875">
        <ele>309.399993896484375</ele>
        <time>2020-08-22T10:46:44.000Z</time>
      </trkpt>
      <trkpt lat="43.18207223899662494659423828125" lon="-1.45784002728760242462158203125">
        <ele>309.20001220703125</ele>
        <time>2020-08-22T10:46:47.000Z</time>
      </trkpt>
      <trkpt lat="43.18210995756089687347412109375" lon="-1.457874476909637451171875">
        <ele>309</ele>
        <time>2020-08-22T10:46:48.000Z</time>
      </trkpt>
      <trkpt lat="43.18218489177525043487548828125" lon="-1.4579349942505359649658203125">
        <ele>308.79998779296875</ele>
        <time>2020-08-22T10:46:50.000Z</time>
      </trkpt>
      <trkpt lat="43.182365857064723968505859375" lon="-1.45805443637073040008544921875">
        <ele>308.79998779296875</ele>
        <time>2020-08-22T10:46:55.000Z</time>
      </trkpt>
      <trkpt lat="43.18264782428741455078125" lon="-1.45819122903048992156982421875">
        <ele>308.399993896484375</ele>
        <time>2020-08-22T10:47:03.000Z</time>
      </trkpt>
      <trkpt lat="43.18270884454250335693359375" lon="-1.458232216536998748779296875">
        <ele>308</ele>
        <time>2020-08-22T10:47:05.000Z</time>
      </trkpt>
      <trkpt lat="43.18286684341728687286376953125" lon="-1.458380408585071563720703125">
        <ele>308.600006103515625</ele>
        <time>2020-08-22T10:47:11.000Z</time>
      </trkpt>
      <trkpt lat="43.18309281952679157257080078125" lon="-1.45862474106252193450927734375">
        <ele>307.399993896484375</ele>
        <time>2020-08-22T10:47:19.000Z</time>
      </trkpt>
      <trkpt lat="43.18337629549205303192138671875" lon="-1.45892984233796596527099609375">
        <ele>307.20001220703125</ele>
        <time>2020-08-22T10:47:28.000Z</time>
      </trkpt>
      <trkpt lat="43.1834409199655055999755859375" lon="-1.4590021781623363494873046875">
        <ele>307</ele>
        <time>2020-08-22T10:47:30.000Z</time>
      </trkpt>
      <trkpt lat="43.18349615670740604400634765625" lon="-1.459085159003734588623046875">
        <ele>306.79998779296875</ele>
        <time>2020-08-22T10:47:32.000Z</time>
      </trkpt>
      <trkpt lat="43.183540999889373779296875" lon="-1.4591731689870357513427734375">
        <ele>306.79998779296875</ele>
        <time>2020-08-22T10:47:34.000Z</time>
      </trkpt>
      <trkpt lat="43.18361543118953704833984375" lon="-1.45944667048752307891845703125">
        <ele>306.600006103515625</ele>
        <time>2020-08-22T10:47:40.000Z</time>
      </trkpt>
      <trkpt lat="43.18363261409103870391845703125" lon="-1.4598061703145503997802734375">
        <ele>306</ele>
        <time>2020-08-22T10:47:47.000Z</time>
      </trkpt>
      <trkpt lat="43.18363848142325878143310546875" lon="-1.4600403606891632080078125">
        <ele>305.600006103515625</ele>
        <time>2020-08-22T10:47:51.000Z</time>
      </trkpt>
      <trkpt lat="43.18364501930773258209228515625" lon="-1.4602215774357318878173828125">
        <ele>305.20001220703125</ele>
        <time>2020-08-22T10:47:54.000Z</time>
      </trkpt>
      <trkpt lat="43.18365071900188922882080078125" lon="-1.46047345362603664398193359375">
        <ele>305</ele>
        <time>2020-08-22T10:47:58.000Z</time>
      </trkpt>
      <trkpt lat="43.18365960381925106048583984375" lon="-1.46079230122268199920654296875">
        <ele>304.600006103515625</ele>
        <time>2020-08-22T10:48:03.000Z</time>
      </trkpt>
      <trkpt lat="43.1837416626513004302978515625" lon="-1.46145061589777469635009765625">
        <ele>304.399993896484375</ele>
        <time>2020-08-22T10:48:14.000Z</time>
      </trkpt>
      <trkpt lat="43.1837916187942028045654296875" lon="-1.461684890091419219970703125">
        <ele>303.79998779296875</ele>
        <time>2020-08-22T10:48:18.000Z</time>
      </trkpt>
      <trkpt lat="43.183850459754467010498046875" lon="-1.4619834534823894500732421875">
        <ele>303.600006103515625</ele>
        <time>2020-08-22T10:48:23.000Z</time>
      </trkpt>
      <trkpt lat="43.18395950831472873687744140625" lon="-1.46258284337818622589111328125">
        <ele>303</ele>
        <time>2020-08-22T10:48:33.000Z</time>
      </trkpt>
      <trkpt lat="43.18395179696381092071533203125" lon="-1.46298743784427642822265625">
        <ele>303</ele>
        <time>2020-08-22T10:48:40.000Z</time>
      </trkpt>
      <trkpt lat="43.18388910032808780670166015625" lon="-1.46345808170735836029052734375">
        <ele>302.600006103515625</ele>
        <time>2020-08-22T10:48:49.000Z</time>
      </trkpt>
      <trkpt lat="43.18387870676815509796142578125" lon="-1.4637278951704502105712890625">
        <ele>302.20001220703125</ele>
        <time>2020-08-22T10:48:54.000Z</time>
      </trkpt>
      <trkpt lat="43.18388842977583408355712890625" lon="-1.46383903920650482177734375">
        <ele>302.399993896484375</ele>
        <time>2020-08-22T10:48:56.000Z</time>
      </trkpt>
      <trkpt lat="43.18395070731639862060546875" lon="-1.4642368443310260772705078125">
        <ele>302.79998779296875</ele>
        <time>2020-08-22T10:49:04.000Z</time>
      </trkpt>
      <trkpt lat="43.18400091491639614105224609375" lon="-1.4645473100244998931884765625">
        <ele>303.399993896484375</ele>
        <time>2020-08-22T10:49:11.000Z</time>
      </trkpt>
      <trkpt lat="43.18401147611439228057861328125" lon="-1.464632637798786163330078125">
        <ele>303.79998779296875</ele>
        <time>2020-08-22T10:49:13.000Z</time>
      </trkpt>
      <trkpt lat="43.18405707366764545440673828125" lon="-1.4649045467376708984375">
        <ele>304</ele>
        <time>2020-08-22T10:49:20.000Z</time>
      </trkpt>
      <trkpt lat="43.1840948760509490966796875" lon="-1.46512792445719242095947265625">
        <ele>304.79998779296875</ele>
        <time>2020-08-22T10:49:26.000Z</time>
      </trkpt>
      <trkpt lat="43.18410694599151611328125" lon="-1.46520235575735569000244140625">
        <ele>305.20001220703125</ele>
        <time>2020-08-22T10:49:28.000Z</time>
      </trkpt>
      <trkpt lat="43.18415430374443531036376953125" lon="-1.46545213647186756134033203125">
        <ele>305.79998779296875</ele>
        <time>2020-08-22T10:49:35.000Z</time>
      </trkpt>
      <trkpt lat="43.18416620604693889617919921875" lon="-1.46552137099206447601318359375">
        <ele>306</ele>
        <time>2020-08-22T10:49:37.000Z</time>
      </trkpt>
      <trkpt lat="43.18418464623391628265380859375" lon="-1.46566201932728290557861328125">
        <ele>307.20001220703125</ele>
        <time>2020-08-22T10:49:41.000Z</time>
      </trkpt>
      <trkpt lat="43.184189759194850921630859375" lon="-1.46569973789155483245849609375">
        <ele>307.20001220703125</ele>
        <time>2020-08-22T10:49:42.000Z</time>
      </trkpt>
      <trkpt lat="43.18422965705394744873046875" lon="-1.4660319127142429351806640625">
        <ele>307.399993896484375</ele>
        <time>2020-08-22T10:49:51.000Z</time>
      </trkpt>
      <trkpt lat="43.18421892821788787841796875" lon="-1.46625705063343048095703125">
        <ele>308</ele>
        <time>2020-08-22T10:49:57.000Z</time>
      </trkpt>
      <trkpt lat="43.1842120550572872161865234375" lon="-1.46633491851389408111572265625">
        <ele>308.20001220703125</ele>
        <time>2020-08-22T10:49:59.000Z</time>
      </trkpt>
      <trkpt lat="43.18421012721955776214599609375" lon="-1.46637347526848316192626953125">
        <ele>308.600006103515625</ele>
        <time>2020-08-22T10:50:00.000Z</time>
      </trkpt>
      <trkpt lat="43.18417064845561981201171875" lon="-1.46670305170118808746337890625">
        <ele>309</ele>
        <time>2020-08-22T10:50:09.000Z</time>
      </trkpt>
      <trkpt lat="43.1841590814292430877685546875" lon="-1.466779746115207672119140625">
        <ele>309.20001220703125</ele>
        <time>2020-08-22T10:50:11.000Z</time>
      </trkpt>
      <trkpt lat="43.184103257954120635986328125" lon="-1.46707353182137012481689453125">
        <ele>309</ele>
        <time>2020-08-22T10:50:18.000Z</time>
      </trkpt>
      <trkpt lat="43.18401105701923370361328125" lon="-1.46736572496592998504638671875">
        <ele>308.600006103515625</ele>
        <time>2020-08-22T10:50:23.000Z</time>
      </trkpt>
      <trkpt lat="43.1839864142239093780517578125" lon="-1.46743495948612689971923828125">
        <ele>308.20001220703125</ele>
        <time>2020-08-22T10:50:24.000Z</time>
      </trkpt>
      <trkpt lat="43.1838398985564708709716796875" lon="-1.4678424037992954254150390625">
        <ele>307.20001220703125</ele>
        <time>2020-08-22T10:50:29.000Z</time>
      </trkpt>
      <trkpt lat="43.18372540175914764404296875" lon="-1.468130908906459808349609375">
        <ele>305.399993896484375</ele>
        <time>2020-08-22T10:50:32.000Z</time>
      </trkpt>
      <trkpt lat="43.1836444325745105743408203125" lon="-1.46834422834217548370361328125">
        <ele>303.79998779296875</ele>
        <time>2020-08-22T10:50:34.000Z</time>
      </trkpt>
      <trkpt lat="43.18356220610439777374267578125" lon="-1.46857506595551967620849609375">
        <ele>302.79998779296875</ele>
        <time>2020-08-22T10:50:36.000Z</time>
      </trkpt>
      <trkpt lat="43.183473609387874603271484375" lon="-1.4688143692910671234130859375">
        <ele>301.600006103515625</ele>
        <time>2020-08-22T10:50:38.000Z</time>
      </trkpt>
      <trkpt lat="43.1833832524716854095458984375" lon="-1.4690591208636760711669921875">
        <ele>300.399993896484375</ele>
        <time>2020-08-22T10:50:40.000Z</time>
      </trkpt>
      <trkpt lat="43.18333639763295650482177734375" lon="-1.46918342448770999908447265625">
        <ele>299.600006103515625</ele>
        <time>2020-08-22T10:50:41.000Z</time>
      </trkpt>
      <trkpt lat="43.183289207518100738525390625" lon="-1.46930898539721965789794921875">
        <ele>298.79998779296875</ele>
        <time>2020-08-22T10:50:42.000Z</time>
      </trkpt>
      <trkpt lat="43.183242268860340118408203125" lon="-1.469434462487697601318359375">
        <ele>297.600006103515625</ele>
        <time>2020-08-22T10:50:43.000Z</time>
      </trkpt>
      <trkpt lat="43.18319323472678661346435546875" lon="-1.4695566706359386444091796875">
        <ele>296.600006103515625</ele>
        <time>2020-08-22T10:50:44.000Z</time>
      </trkpt>
      <trkpt lat="43.18302978761494159698486328125" lon="-1.46990125067532062530517578125">
        <ele>295.600006103515625</ele>
        <time>2020-08-22T10:50:47.000Z</time>
      </trkpt>
      <trkpt lat="43.1827790848910808563232421875" lon="-1.470410786569118499755859375">
        <ele>295.20001220703125</ele>
        <time>2020-08-22T10:50:52.000Z</time>
      </trkpt>
      <trkpt lat="43.18261270411312580108642578125" lon="-1.470837257802486419677734375">
        <ele>296</ele>
        <time>2020-08-22T10:50:57.000Z</time>
      </trkpt>
      <trkpt lat="43.18255285732448101043701171875" lon="-1.4709805883467197418212890625">
        <ele>296.600006103515625</ele>
        <time>2020-08-22T10:50:59.000Z</time>
      </trkpt>
      <trkpt lat="43.18244062364101409912109375" lon="-1.4711908064782619476318359375">
        <ele>296</ele>
        <time>2020-08-22T10:51:02.000Z</time>
      </trkpt>
      <trkpt lat="43.1823522783815860748291015625" lon="-1.4713453687727451324462890625">
        <ele>295.399993896484375</ele>
        <time>2020-08-22T10:51:04.000Z</time>
      </trkpt>
      <trkpt lat="43.18222009576857089996337890625" lon="-1.47160612978041172027587890625">
        <ele>294.20001220703125</ele>
        <time>2020-08-22T10:51:07.000Z</time>
      </trkpt>
      <trkpt lat="43.1821812875568866729736328125" lon="-1.47170218639075756072998046875">
        <ele>294</ele>
        <time>2020-08-22T10:51:08.000Z</time>
      </trkpt>
      <trkpt lat="43.18206218071281909942626953125" lon="-1.47200100123882293701171875">
        <ele>293.20001220703125</ele>
        <time>2020-08-22T10:51:11.000Z</time>
      </trkpt>
      <trkpt lat="43.18193695507943630218505859375" lon="-1.4723007380962371826171875">
        <ele>291.79998779296875</ele>
        <time>2020-08-22T10:51:14.000Z</time>
      </trkpt>
      <trkpt lat="43.1818098016083240509033203125" lon="-1.4726023189723491668701171875">
        <ele>290.600006103515625</ele>
        <time>2020-08-22T10:51:17.000Z</time>
      </trkpt>
      <trkpt lat="43.18177015520632266998291015625" lon="-1.47270298562943935394287109375">
        <ele>290.399993896484375</ele>
        <time>2020-08-22T10:51:18.000Z</time>
      </trkpt>
      <trkpt lat="43.18173344247043132781982421875" lon="-1.4728049933910369873046875">
        <ele>290.20001220703125</ele>
        <time>2020-08-22T10:51:19.000Z</time>
      </trkpt>
      <trkpt lat="43.18163570947945117950439453125" lon="-1.47310984320938587188720703125">
        <ele>289.600006103515625</ele>
        <time>2020-08-22T10:51:22.000Z</time>
      </trkpt>
      <trkpt lat="43.1815412454307079315185546875" lon="-1.47339977324008941650390625">
        <ele>289</ele>
        <time>2020-08-22T10:51:25.000Z</time>
      </trkpt>
      <trkpt lat="43.18138391710817813873291015625" lon="-1.4738495461642742156982421875">
        <ele>288.399993896484375</ele>
        <time>2020-08-22T10:51:30.000Z</time>
      </trkpt>
      <trkpt lat="43.181290961802005767822265625" lon="-1.4740966446697711944580078125">
        <ele>288.20001220703125</ele>
        <time>2020-08-22T10:51:33.000Z</time>
      </trkpt>
      <trkpt lat="43.1810339726507663726806640625" lon="-1.4747963659465312957763671875">
        <ele>287.399993896484375</ele>
        <time>2020-08-22T10:51:42.000Z</time>
      </trkpt>
      <trkpt lat="43.181006647646427154541015625" lon="-1.47487540729343891143798828125">
        <ele>287.399993896484375</ele>
        <time>2020-08-22T10:51:43.000Z</time>
      </trkpt>
      <trkpt lat="43.1808204017579555511474609375" lon="-1.475412435829639434814453125">
        <ele>286.20001220703125</ele>
        <time>2020-08-22T10:51:50.000Z</time>
      </trkpt>
      <trkpt lat="43.1807945854961872100830078125" lon="-1.47548519074916839599609375">
        <ele>286</ele>
        <time>2020-08-22T10:51:51.000Z</time>
      </trkpt>
      <trkpt lat="43.18055159412324428558349609375" lon="-1.47616538219153881072998046875">
        <ele>286</ele>
        <time>2020-08-22T10:52:01.000Z</time>
      </trkpt>
      <trkpt lat="43.18043391220271587371826171875" lon="-1.47641784511506557464599609375">
        <ele>285.20001220703125</ele>
        <time>2020-08-22T10:52:05.000Z</time>
      </trkpt>
      <trkpt lat="43.180338442325592041015625" lon="-1.47660635411739349365234375">
        <ele>285</ele>
        <time>2020-08-22T10:52:08.000Z</time>
      </trkpt>
      <trkpt lat="43.180237524211406707763671875" lon="-1.47679134272038936614990234375">
        <ele>284.20001220703125</ele>
        <time>2020-08-22T10:52:11.000Z</time>
      </trkpt>
      <trkpt lat="43.18020910955965518951416015625" lon="-1.47685714066028594970703125">
        <ele>284</ele>
        <time>2020-08-22T10:52:12.000Z</time>
      </trkpt>
      <trkpt lat="43.18016267381608486175537109375" lon="-1.4769961126148700714111328125">
        <ele>284</ele>
        <time>2020-08-22T10:52:14.000Z</time>
      </trkpt>
      <trkpt lat="43.18007181398570537567138671875" lon="-1.4772670157253742218017578125">
        <ele>283.600006103515625</ele>
        <time>2020-08-22T10:52:18.000Z</time>
      </trkpt>
      <trkpt lat="43.1800113804638385772705078125" lon="-1.4773763157427310943603515625">
        <ele>283.600006103515625</ele>
        <time>2020-08-22T10:52:20.000Z</time>
      </trkpt>
      <trkpt lat="43.17980811931192874908447265625" lon="-1.47772014141082763671875">
        <ele>282.79998779296875</ele>
        <time>2020-08-22T10:52:26.000Z</time>
      </trkpt>
      <trkpt lat="43.17977945320308208465576171875" lon="-1.477787531912326812744140625">
        <ele>282.79998779296875</ele>
        <time>2020-08-22T10:52:27.000Z</time>
      </trkpt>
      <trkpt lat="43.179662525653839111328125" lon="-1.47824761457741260528564453125">
        <ele>282</ele>
        <time>2020-08-22T10:52:33.000Z</time>
      </trkpt>
      <trkpt lat="43.1796486116945743560791015625" lon="-1.47832808084785938262939453125">
        <ele>281.79998779296875</ele>
        <time>2020-08-22T10:52:34.000Z</time>
      </trkpt>
      <trkpt lat="43.179619945585727691650390625" lon="-1.4786537177860736846923828125">
        <ele>281.600006103515625</ele>
        <time>2020-08-22T10:52:38.000Z</time>
      </trkpt>
      <trkpt lat="43.17962774075567722320556640625" lon="-1.47873342968523502349853515625">
        <ele>281.600006103515625</ele>
        <time>2020-08-22T10:52:39.000Z</time>
      </trkpt>
      <trkpt lat="43.1797046028077602386474609375" lon="-1.47901774384081363677978515625">
        <ele>281.600006103515625</ele>
        <time>2020-08-22T10:52:43.000Z</time>
      </trkpt>
      <trkpt lat="43.17972899414598941802978515625" lon="-1.4790815301239490509033203125">
        <ele>281.600006103515625</ele>
        <time>2020-08-22T10:52:44.000Z</time>
      </trkpt>
      <trkpt lat="43.17995178513228893280029296875" lon="-1.4796146191656589508056640625">
        <ele>281</ele>
        <time>2020-08-22T10:52:53.000Z</time>
      </trkpt>
      <trkpt lat="43.18000920116901397705078125" lon="-1.47980027832090854644775390625">
        <ele>280.79998779296875</ele>
        <time>2020-08-22T10:52:56.000Z</time>
      </trkpt>
      <trkpt lat="43.18007499910891056060791015625" lon="-1.4800424315035343170166015625">
        <ele>280.399993896484375</ele>
        <time>2020-08-22T10:53:00.000Z</time>
      </trkpt>
      <trkpt lat="43.18019486032426357269287109375" lon="-1.48061491549015045166015625">
        <ele>280</ele>
        <time>2020-08-22T10:53:10.000Z</time>
      </trkpt>
      <trkpt lat="43.180263675749301910400390625" lon="-1.48102303035557270050048828125">
        <ele>279.600006103515625</ele>
        <time>2020-08-22T10:53:17.000Z</time>
      </trkpt>
      <trkpt lat="43.18037222139537334442138671875" lon="-1.4815880544483661651611328125">
        <ele>278.600006103515625</ele>
        <time>2020-08-22T10:53:26.000Z</time>
      </trkpt>
      <trkpt lat="43.18038479425013065338134765625" lon="-1.48165452294051647186279296875">
        <ele>278.600006103515625</ele>
        <time>2020-08-22T10:53:27.000Z</time>
      </trkpt>
      <trkpt lat="43.18050381727516651153564453125" lon="-1.48227914236485958099365234375">
        <ele>277.79998779296875</ele>
        <time>2020-08-22T10:53:36.000Z</time>
      </trkpt>
      <trkpt lat="43.18053550086915493011474609375" lon="-1.48280150257050991058349609375">
        <ele>277</ele>
        <time>2020-08-22T10:53:43.000Z</time>
      </trkpt>
      <trkpt lat="43.180521167814731597900390625" lon="-1.4831195957958698272705078125">
        <ele>276.600006103515625</ele>
        <time>2020-08-22T10:53:47.000Z</time>
      </trkpt>
      <trkpt lat="43.1805142946541309356689453125" lon="-1.48352779448032379150390625">
        <ele>276.20001220703125</ele>
        <time>2020-08-22T10:53:52.000Z</time>
      </trkpt>
      <trkpt lat="43.18051169626414775848388671875" lon="-1.48392987437546253204345703125">
        <ele>275.600006103515625</ele>
        <time>2020-08-22T10:53:57.000Z</time>
      </trkpt>
      <trkpt lat="43.1805015541613101959228515625" lon="-1.48416993208229541778564453125">
        <ele>275.399993896484375</ele>
        <time>2020-08-22T10:54:00.000Z</time>
      </trkpt>
      <trkpt lat="43.18044547922909259796142578125" lon="-1.4845803938806056976318359375">
        <ele>274.399993896484375</ele>
        <time>2020-08-22T10:54:05.000Z</time>
      </trkpt>
      <trkpt lat="43.180406503379344940185546875" lon="-1.484831683337688446044921875">
        <ele>273.79998779296875</ele>
        <time>2020-08-22T10:54:08.000Z</time>
      </trkpt>
      <trkpt lat="43.18037674762308597564697265625" lon="-1.484990604221820831298828125">
        <ele>273.600006103515625</ele>
        <time>2020-08-22T10:54:10.000Z</time>
      </trkpt>
      <trkpt lat="43.18031505681574344635009765625" lon="-1.485280282795429229736328125">
        <ele>273.399993896484375</ele>
        <time>2020-08-22T10:54:14.000Z</time>
      </trkpt>
      <trkpt lat="43.18025437183678150177001953125" lon="-1.48553668521344661712646484375">
        <ele>273.20001220703125</ele>
        <time>2020-08-22T10:54:18.000Z</time>
      </trkpt>
      <trkpt lat="43.1801213510334491729736328125" lon="-1.4859825186431407928466796875">
        <ele>273</ele>
        <time>2020-08-22T10:54:26.000Z</time>
      </trkpt>
      <trkpt lat="43.18003040738403797149658203125" lon="-1.4864267595112323760986328125">
        <ele>272.399993896484375</ele>
        <time>2020-08-22T10:54:34.000Z</time>
      </trkpt>
      <trkpt lat="43.18002772517502307891845703125" lon="-1.48648568429052829742431640625">
        <ele>272.20001220703125</ele>
        <time>2020-08-22T10:54:35.000Z</time>
      </trkpt>
      <trkpt lat="43.1800259649753570556640625" lon="-1.48666271008551120758056640625">
        <ele>271.79998779296875</ele>
        <time>2020-08-22T10:54:38.000Z</time>
      </trkpt>
      <trkpt lat="43.18004750646650791168212890625" lon="-1.48683789186179637908935546875">
        <ele>271.600006103515625</ele>
        <time>2020-08-22T10:54:41.000Z</time>
      </trkpt>
      <trkpt lat="43.18006376735866069793701171875" lon="-1.48702112026512622833251953125">
        <ele>271.20001220703125</ele>
        <time>2020-08-22T10:54:44.000Z</time>
      </trkpt>
      <trkpt lat="43.18010584451258182525634765625" lon="-1.48732705973088741302490234375">
        <ele>270.79998779296875</ele>
        <time>2020-08-22T10:54:49.000Z</time>
      </trkpt>
      <trkpt lat="43.180171810090541839599609375" lon="-1.48780700750648975372314453125">
        <ele>270.399993896484375</ele>
        <time>2020-08-22T10:54:57.000Z</time>
      </trkpt>
      <trkpt lat="43.18024917505681514739990234375" lon="-1.48835333995521068572998046875">
        <ele>270.20001220703125</ele>
        <time>2020-08-22T10:55:06.000Z</time>
      </trkpt>
      <trkpt lat="43.1802665255963802337646484375" lon="-1.48848057724535465240478515625">
        <ele>270.20001220703125</ele>
        <time>2020-08-22T10:55:08.000Z</time>
      </trkpt>
      <trkpt lat="43.180333077907562255859375" lon="-1.4889572560787200927734375">
        <ele>269.600006103515625</ele>
        <time>2020-08-22T10:55:15.000Z</time>
      </trkpt>
      <trkpt lat="43.18035244010388851165771484375" lon="-1.48910469375550746917724609375">
        <ele>269.20001220703125</ele>
        <time>2020-08-22T10:55:17.000Z</time>
      </trkpt>
      <trkpt lat="43.18040893413126468658447265625" lon="-1.48948355577886104583740234375">
        <ele>268</ele>
        <time>2020-08-22T10:55:22.000Z</time>
      </trkpt>
      <trkpt lat="43.18043994717299938201904296875" lon="-1.48963443003594875335693359375">
        <ele>267.79998779296875</ele>
        <time>2020-08-22T10:55:24.000Z</time>
      </trkpt>
      <trkpt lat="43.18056735210120677947998046875" lon="-1.49013449437916278839111328125">
        <ele>267.600006103515625</ele>
        <time>2020-08-22T10:55:31.000Z</time>
      </trkpt>
      <trkpt lat="43.18059987388551235198974609375" lon="-1.49024044163525104522705078125">
        <ele>267.20001220703125</ele>
        <time>2020-08-22T10:55:33.000Z</time>
      </trkpt>
      <trkpt lat="43.1806212477385997772216796875" lon="-1.49028251878917217254638671875">
        <ele>267.20001220703125</ele>
        <time>2020-08-22T10:55:34.000Z</time>
      </trkpt>
      <trkpt lat="43.18064664490520954132080078125" lon="-1.49031621403992176055908203125">
        <ele>267</ele>
        <time>2020-08-22T10:55:35.000Z</time>
      </trkpt>
      <trkpt lat="43.1807219982147216796875" lon="-1.4904027990996837615966796875">
        <ele>266.600006103515625</ele>
        <time>2020-08-22T10:55:39.000Z</time>
      </trkpt>
      <trkpt lat="43.18071998655796051025390625" lon="-1.4905504882335662841796875">
        <ele>266.600006103515625</ele>
        <time>2020-08-22T10:55:44.000Z</time>
      </trkpt>
      <trkpt lat="43.18062468431890010833740234375" lon="-1.4906322956085205078125">
        <ele>266.399993896484375</ele>
        <time>2020-08-22T10:55:48.000Z</time>
      </trkpt>
      <trkpt lat="43.18037205375730991363525390625" lon="-1.49068619124591350555419921875">
        <ele>266.600006103515625</ele>
        <time>2020-08-22T10:55:55.000Z</time>
      </trkpt>
      <trkpt lat="43.179994784295558929443359375" lon="-1.49087302386760711669921875">
        <ele>266.20001220703125</ele>
        <time>2020-08-22T10:56:05.000Z</time>
      </trkpt>
      <trkpt lat="43.17968155257403850555419921875" lon="-1.4910225570201873779296875">
        <ele>265.79998779296875</ele>
        <time>2020-08-22T10:56:13.000Z</time>
      </trkpt>
      <trkpt lat="43.1792603619396686553955078125" lon="-1.49122598581016063690185546875">
        <ele>266</ele>
        <time>2020-08-22T10:56:24.000Z</time>
      </trkpt>
      <trkpt lat="43.17890622653067111968994140625" lon="-1.4914168417453765869140625">
        <ele>265.79998779296875</ele>
        <time>2020-08-22T10:56:33.000Z</time>
      </trkpt>
      <trkpt lat="43.17843399010598659515380859375" lon="-1.491665281355381011962890625">
        <ele>266</ele>
        <time>2020-08-22T10:56:45.000Z</time>
      </trkpt>
      <trkpt lat="43.1780024059116840362548828125" lon="-1.4918837137520313262939453125">
        <ele>266</ele>
        <time>2020-08-22T10:56:56.000Z</time>
      </trkpt>
      <trkpt lat="43.17762874066829681396484375" lon="-1.4920731447637081146240234375">
        <ele>266</ele>
        <time>2020-08-22T10:57:05.000Z</time>
      </trkpt>
      <trkpt lat="43.17727846093475818634033203125" lon="-1.49224572815001010894775390625">
        <ele>266</ele>
        <time>2020-08-22T10:57:14.000Z</time>
      </trkpt>
      <trkpt lat="43.17687914706766605377197265625" lon="-1.4924613945186138153076171875">
        <ele>265.600006103515625</ele>
        <time>2020-08-22T10:57:24.000Z</time>
      </trkpt>
      <trkpt lat="43.176630623638629913330078125" lon="-1.4925867877900600433349609375">
        <ele>265.399993896484375</ele>
        <time>2020-08-22T10:57:30.000Z</time>
      </trkpt>
      <trkpt lat="43.17650078795850276947021484375" lon="-1.49265409447252750396728515625">
        <ele>265.20001220703125</ele>
        <time>2020-08-22T10:57:33.000Z</time>
      </trkpt>
      <trkpt lat="43.1764584593474864959716796875" lon="-1.4926776476204395294189453125">
        <ele>265</ele>
        <time>2020-08-22T10:57:34.000Z</time>
      </trkpt>
      <trkpt lat="43.17623675800859928131103515625" lon="-1.49279960431158542633056640625">
        <ele>264.79998779296875</ele>
        <time>2020-08-22T10:57:39.000Z</time>
      </trkpt>
      <trkpt lat="43.176013045012950897216796875" lon="-1.4929054677486419677734375">
        <ele>264.20001220703125</ele>
        <time>2020-08-22T10:57:44.000Z</time>
      </trkpt>
      <trkpt lat="43.175834007561206817626953125" lon="-1.49299054406583309173583984375">
        <ele>264.20001220703125</ele>
        <time>2020-08-22T10:57:48.000Z</time>
      </trkpt>
      <trkpt lat="43.17546411417424678802490234375" lon="-1.4930692501366138458251953125">
        <ele>264</ele>
        <time>2020-08-22T10:57:56.000Z</time>
      </trkpt>
      <trkpt lat="43.1751562468707561492919921875" lon="-1.4931011013686656951904296875">
        <ele>263.20001220703125</ele>
        <time>2020-08-22T10:58:02.000Z</time>
      </trkpt>
      <trkpt lat="43.17504418082535266876220703125" lon="-1.49310604669153690338134765625">
        <ele>263</ele>
        <time>2020-08-22T10:58:04.000Z</time>
      </trkpt>
      <trkpt lat="43.17451830022037029266357421875" lon="-1.49316337890923023223876953125">
        <ele>262</ele>
        <time>2020-08-22T10:58:13.000Z</time>
      </trkpt>
      <trkpt lat="43.1743985228240489959716796875" lon="-1.49316924624145030975341796875">
        <ele>261.79998779296875</ele>
        <time>2020-08-22T10:58:15.000Z</time>
      </trkpt>
      <trkpt lat="43.17397599108517169952392578125" lon="-1.4932140894234180450439453125">
        <ele>261</ele>
        <time>2020-08-22T10:58:22.000Z</time>
      </trkpt>
      <trkpt lat="43.17373157478868961334228515625" lon="-1.49323998950421810150146484375">
        <ele>260.600006103515625</ele>
        <time>2020-08-22T10:58:26.000Z</time>
      </trkpt>
      <trkpt lat="43.1734815426170825958251953125" lon="-1.493261866271495819091796875">
        <ele>259.79998779296875</ele>
        <time>2020-08-22T10:58:30.000Z</time>
      </trkpt>
      <trkpt lat="43.17316764034330844879150390625" lon="-1.4932979084551334381103515625">
        <ele>259.20001220703125</ele>
        <time>2020-08-22T10:58:35.000Z</time>
      </trkpt>
      <trkpt lat="43.1730495393276214599609375" lon="-1.49330914020538330078125">
        <ele>258.79998779296875</ele>
        <time>2020-08-22T10:58:37.000Z</time>
      </trkpt>
      <trkpt lat="43.1727804802358150482177734375" lon="-1.49333856068551540374755859375">
        <ele>258.600006103515625</ele>
        <time>2020-08-22T10:58:42.000Z</time>
      </trkpt>
      <trkpt lat="43.17229039035737514495849609375" lon="-1.49339052848517894744873046875">
        <ele>259.20001220703125</ele>
        <time>2020-08-22T10:58:52.000Z</time>
      </trkpt>
      <trkpt lat="43.171928040683269500732421875" lon="-1.4933505468070507049560546875">
        <ele>259.20001220703125</ele>
        <time>2020-08-22T10:59:00.000Z</time>
      </trkpt>
      <trkpt lat="43.1715483404695987701416015625" lon="-1.493231356143951416015625">
        <ele>258.600006103515625</ele>
        <time>2020-08-22T10:59:08.000Z</time>
      </trkpt>
      <trkpt lat="43.1710082106292247772216796875" lon="-1.493034549057483673095703125">
        <ele>258.79998779296875</ele>
        <time>2020-08-22T10:59:19.000Z</time>
      </trkpt>
      <trkpt lat="43.17095800302922725677490234375" lon="-1.4930156059563159942626953125">
        <ele>258.600006103515625</ele>
        <time>2020-08-22T10:59:20.000Z</time>
      </trkpt>
      <trkpt lat="43.1705274246633052825927734375" lon="-1.4928613789379596710205078125">
        <ele>257.79998779296875</ele>
        <time>2020-08-22T10:59:29.000Z</time>
      </trkpt>
      <trkpt lat="43.17048199474811553955078125" lon="-1.492846123874187469482421875">
        <ele>257.79998779296875</ele>
        <time>2020-08-22T10:59:30.000Z</time>
      </trkpt>
      <trkpt lat="43.1700362451374530792236328125" lon="-1.49268661625683307647705078125">
        <ele>257.600006103515625</ele>
        <time>2020-08-22T10:59:40.000Z</time>
      </trkpt>
      <trkpt lat="43.169463090598583221435546875" lon="-1.4924924075603485107421875">
        <ele>257</ele>
        <time>2020-08-22T10:59:52.000Z</time>
      </trkpt>
      <trkpt lat="43.1691249646246433258056640625" lon="-1.4923668466508388519287109375">
        <ele>256.79998779296875</ele>
        <time>2020-08-22T10:59:59.000Z</time>
      </trkpt>
      <trkpt lat="43.1690253876149654388427734375" lon="-1.4923356659710407257080078125">
        <ele>256.600006103515625</ele>
        <time>2020-08-22T11:00:01.000Z</time>
      </trkpt>
      <trkpt lat="43.16857402212917804718017578125" lon="-1.4921794272959232330322265625">
        <ele>256.20001220703125</ele>
        <time>2020-08-22T11:00:10.000Z</time>
      </trkpt>
      <trkpt lat="43.16826053895056247711181640625" lon="-1.4920761622488498687744140625">
        <ele>255.600006103515625</ele>
        <time>2020-08-22T11:00:16.000Z</time>
      </trkpt>
      <trkpt lat="43.1680507399141788482666015625" lon="-1.4920201711356639862060546875">
        <ele>255.600006103515625</ele>
        <time>2020-08-22T11:00:20.000Z</time>
      </trkpt>
      <trkpt lat="43.1678965128958225250244140625" lon="-1.4920054189860820770263671875">
        <ele>255.600006103515625</ele>
        <time>2020-08-22T11:00:23.000Z</time>
      </trkpt>
      <trkpt lat="43.16770381294190883636474609375" lon="-1.4920238591730594635009765625">
        <ele>255.399993896484375</ele>
        <time>2020-08-22T11:00:27.000Z</time>
      </trkpt>
      <trkpt lat="43.16735009662806987762451171875" lon="-1.49215419776737689971923828125">
        <ele>255.8000030517578125</ele>
        <time>2020-08-22T11:00:35.000Z</time>
      </trkpt>
      <trkpt lat="43.167050778865814208984375" lon="-1.49237908422946929931640625">
        <ele>256.20001220703125</ele>
        <time>2020-08-22T11:00:43.000Z</time>
      </trkpt>
      <trkpt lat="43.1666234694421291351318359375" lon="-1.4927705191075801849365234375">
        <ele>256.399993896484375</ele>
        <time>2020-08-22T11:00:55.000Z</time>
      </trkpt>
      <trkpt lat="43.16654962487518787384033203125" lon="-1.49283598177134990692138671875">
        <ele>256.20001220703125</ele>
        <time>2020-08-22T11:00:57.000Z</time>
      </trkpt>
      <trkpt lat="43.16644652746617794036865234375" lon="-1.4929671585559844970703125">
        <ele>256</ele>
        <time>2020-08-22T11:01:00.000Z</time>
      </trkpt>
      <trkpt lat="43.1663817353546619415283203125" lon="-1.4930538274347782135009765625">
        <ele>255.8000030517578125</ele>
        <time>2020-08-22T11:01:02.000Z</time>
      </trkpt>
      <trkpt lat="43.16611879505217075347900390625" lon="-1.49350921623408794403076171875">
        <ele>255.600006103515625</ele>
        <time>2020-08-22T11:01:11.000Z</time>
      </trkpt>
      <trkpt lat="43.1659658253192901611328125" lon="-1.49379285983741283416748046875">
        <ele>254.8000030517578125</ele>
        <time>2020-08-22T11:01:16.000Z</time>
      </trkpt>
      <trkpt lat="43.1658644042909145355224609375" lon="-1.4939622581005096435546875">
        <ele>254.1999969482421875</ele>
        <time>2020-08-22T11:01:19.000Z</time>
      </trkpt>
      <trkpt lat="43.16577136516571044921875" lon="-1.49414665997028350830078125">
        <ele>253.8000030517578125</ele>
        <time>2020-08-22T11:01:22.000Z</time>
      </trkpt>
      <trkpt lat="43.1657410226762294769287109375" lon="-1.49420960806310176849365234375">
        <ele>253.600006103515625</ele>
        <time>2020-08-22T11:01:23.000Z</time>
      </trkpt>
      <trkpt lat="43.165679164230823516845703125" lon="-1.49433986283838748931884765625">
        <ele>253.399993896484375</ele>
        <time>2020-08-22T11:01:25.000Z</time>
      </trkpt>
      <trkpt lat="43.1656484864652156829833984375" lon="-1.49440549314022064208984375">
        <ele>253.1999969482421875</ele>
        <time>2020-08-22T11:01:26.000Z</time>
      </trkpt>
      <trkpt lat="43.16555678844451904296875" lon="-1.49467664770781993865966796875">
        <ele>252.8000030517578125</ele>
        <time>2020-08-22T11:01:30.000Z</time>
      </trkpt>
      <trkpt lat="43.16553725861012935638427734375" lon="-1.4947452954947948455810546875">
        <ele>252.8000030517578125</ele>
        <time>2020-08-22T11:01:31.000Z</time>
      </trkpt>
      <trkpt lat="43.16545226611196994781494140625" lon="-1.49506657384335994720458984375">
        <ele>252.8000030517578125</ele>
        <time>2020-08-22T11:01:36.000Z</time>
      </trkpt>
      <trkpt lat="43.16530088894069194793701171875" lon="-1.495565883815288543701171875">
        <ele>252.399993896484375</ele>
        <time>2020-08-22T11:01:44.000Z</time>
      </trkpt>
      <trkpt lat="43.16513291560113430023193359375" lon="-1.49593493901193141937255859375">
        <ele>252</ele>
        <time>2020-08-22T11:01:51.000Z</time>
      </trkpt>
      <trkpt lat="43.165107183158397674560546875" lon="-1.49598036892712116241455078125">
        <ele>252</ele>
        <time>2020-08-22T11:01:52.000Z</time>
      </trkpt>
      <trkpt lat="43.16492387093603610992431640625" lon="-1.49623073637485504150390625">
        <ele>252.1999969482421875</ele>
        <time>2020-08-22T11:01:58.000Z</time>
      </trkpt>
      <trkpt lat="43.16457669250667095184326171875" lon="-1.49648680351674556732177734375">
        <ele>252.1999969482421875</ele>
        <time>2020-08-22T11:02:07.000Z</time>
      </trkpt>
      <trkpt lat="43.164455406367778778076171875" lon="-1.496546901762485504150390625">
        <ele>252.1999969482421875</ele>
        <time>2020-08-22T11:02:10.000Z</time>
      </trkpt>
      <trkpt lat="43.1642500497400760650634765625" lon="-1.4966149628162384033203125">
        <ele>252.1999969482421875</ele>
        <time>2020-08-22T11:02:15.000Z</time>
      </trkpt>
      <trkpt lat="43.16390412859618663787841796875" lon="-1.49659962393343448638916015625">
        <ele>251.8000030517578125</ele>
        <time>2020-08-22T11:02:23.000Z</time>
      </trkpt>
      <trkpt lat="43.163523338735103607177734375" lon="-1.49648210965096950531005859375">
        <ele>251.1999969482421875</ele>
        <time>2020-08-22T11:02:31.000Z</time>
      </trkpt>
      <trkpt lat="43.1634755618870258331298828125" lon="-1.49646484293043613433837890625">
        <ele>251</ele>
        <time>2020-08-22T11:02:32.000Z</time>
      </trkpt>
      <trkpt lat="43.163108937442302703857421875" lon="-1.496312208473682403564453125">
        <ele>250.1999969482421875</ele>
        <time>2020-08-22T11:02:40.000Z</time>
      </trkpt>
      <trkpt lat="43.16306711174547672271728515625" lon="-1.496293433010578155517578125">
        <ele>250</ele>
        <time>2020-08-22T11:02:41.000Z</time>
      </trkpt>
      <trkpt lat="43.16251583397388458251953125" lon="-1.49606175720691680908203125">
        <ele>249.600006103515625</ele>
        <time>2020-08-22T11:02:54.000Z</time>
      </trkpt>
      <trkpt lat="43.16218667663633823394775390625" lon="-1.4959137327969074249267578125">
        <ele>249.600006103515625</ele>
        <time>2020-08-22T11:03:02.000Z</time>
      </trkpt>
      <trkpt lat="43.16202037967741489410400390625" lon="-1.49583670310676097869873046875">
        <ele>249.399993896484375</ele>
        <time>2020-08-22T11:03:06.000Z</time>
      </trkpt>
      <trkpt lat="43.1618447788059711456298828125" lon="-1.495780460536479949951171875">
        <ele>249.1999969482421875</ele>
        <time>2020-08-22T11:03:10.000Z</time>
      </trkpt>
      <trkpt lat="43.16180060617625713348388671875" lon="-1.49577199481427669525146484375">
        <ele>249.1999969482421875</ele>
        <time>2020-08-22T11:03:11.000Z</time>
      </trkpt>
      <trkpt lat="43.16167118959128856658935546875" lon="-1.49580158293247222900390625">
        <ele>249.1999969482421875</ele>
        <time>2020-08-22T11:03:14.000Z</time>
      </trkpt>
      <trkpt lat="43.16145527176558971405029296875" lon="-1.49596611969172954559326171875">
        <ele>249.1999969482421875</ele>
        <time>2020-08-22T11:03:20.000Z</time>
      </trkpt>
      <trkpt lat="43.161197192966938018798828125" lon="-1.49630717933177947998046875">
        <ele>249</ele>
        <time>2020-08-22T11:03:29.000Z</time>
      </trkpt>
      <trkpt lat="43.1611698679625988006591796875" lon="-1.4963432215154170989990234375">
        <ele>249.1999969482421875</ele>
        <time>2020-08-22T11:03:30.000Z</time>
      </trkpt>
      <trkpt lat="43.16092126071453094482421875" lon="-1.49666927754878997802734375">
        <ele>249.1999969482421875</ele>
        <time>2020-08-22T11:03:39.000Z</time>
      </trkpt>
      <trkpt lat="43.16067324019968509674072265625" lon="-1.4970037154853343963623046875">
        <ele>248.8000030517578125</ele>
        <time>2020-08-22T11:03:47.000Z</time>
      </trkpt>
      <trkpt lat="43.1603460945188999176025390625" lon="-1.49742993526160717010498046875">
        <ele>248.8000030517578125</ele>
        <time>2020-08-22T11:03:57.000Z</time>
      </trkpt>
      <trkpt lat="43.16031650640070438385009765625" lon="-1.49747469462454319000244140625">
        <ele>248.600006103515625</ele>
        <time>2020-08-22T11:03:58.000Z</time>
      </trkpt>
      <trkpt lat="43.16023671068251132965087890625" lon="-1.49761601351201534271240234375">
        <ele>248.1999969482421875</ele>
        <time>2020-08-22T11:04:01.000Z</time>
      </trkpt>
      <trkpt lat="43.1602071225643157958984375" lon="-1.49765767157077789306640625">
        <ele>248.1999969482421875</ele>
        <time>2020-08-22T11:04:02.000Z</time>
      </trkpt>
      <trkpt lat="43.16017560660839080810546875" lon="-1.49769580923020839691162109375">
        <ele>248</ele>
        <time>2020-08-22T11:04:03.000Z</time>
      </trkpt>
      <trkpt lat="43.15995809622108936309814453125" lon="-1.49799722246825695037841796875">
        <ele>247.399993896484375</ele>
        <time>2020-08-22T11:04:10.000Z</time>
      </trkpt>
      <trkpt lat="43.1598093174397945404052734375" lon="-1.49820216000080108642578125">
        <ele>247.1999969482421875</ele>
        <time>2020-08-22T11:04:14.000Z</time>
      </trkpt>
      <trkpt lat="43.15969322808086872100830078125" lon="-1.4983904175460338592529296875">
        <ele>246.399993896484375</ele>
        <time>2020-08-22T11:04:17.000Z</time>
      </trkpt>
      <trkpt lat="43.159614689648151397705078125" lon="-1.49853282608091831207275390625">
        <ele>246</ele>
        <time>2020-08-22T11:04:19.000Z</time>
      </trkpt>
      <trkpt lat="43.159511089324951171875" lon="-1.49878193624317646026611328125">
        <ele>245.600006103515625</ele>
        <time>2020-08-22T11:04:22.000Z</time>
      </trkpt>
      <trkpt lat="43.15940354950726032257080078125" lon="-1.49904479272663593292236328125">
        <ele>245</ele>
        <time>2020-08-22T11:04:25.000Z</time>
      </trkpt>
      <trkpt lat="43.1592549383640289306640625" lon="-1.49940454401075839996337890625">
        <ele>244</ele>
        <time>2020-08-22T11:04:29.000Z</time>
      </trkpt>
      <trkpt lat="43.15921629779040813446044921875" lon="-1.49949096143245697021484375">
        <ele>243.8000030517578125</ele>
        <time>2020-08-22T11:04:30.000Z</time>
      </trkpt>
      <trkpt lat="43.158953189849853515625" lon="-1.5000562369823455810546875">
        <ele>243.1999969482421875</ele>
        <time>2020-08-22T11:04:37.000Z</time>
      </trkpt>
      <trkpt lat="43.15890918485820293426513671875" lon="-1.50012253783643245697021484375">
        <ele>243.1999969482421875</ele>
        <time>2020-08-22T11:04:38.000Z</time>
      </trkpt>
      <trkpt lat="43.15861833281815052032470703125" lon="-1.500448845326900482177734375">
        <ele>243.1999969482421875</ele>
        <time>2020-08-22T11:04:44.000Z</time>
      </trkpt>
      <trkpt lat="43.15850794315338134765625" lon="-1.5005338378250598907470703125">
        <ele>242.8000030517578125</ele>
        <time>2020-08-22T11:04:46.000Z</time>
      </trkpt>
      <trkpt lat="43.15838850103318691253662109375" lon="-1.50060785003006458282470703125">
        <ele>242.600006103515625</ele>
        <time>2020-08-22T11:04:48.000Z</time>
      </trkpt>
      <trkpt lat="43.15827014856040477752685546875" lon="-1.50068630464375019073486328125">
        <ele>242.600006103515625</ele>
        <time>2020-08-22T11:04:50.000Z</time>
      </trkpt>
      <trkpt lat="43.15788055770099163055419921875" lon="-1.50097095407545566558837890625">
        <ele>241.600006103515625</ele>
        <time>2020-08-22T11:04:57.000Z</time>
      </trkpt>
      <trkpt lat="43.15742366015911102294921875" lon="-1.5012868680059909820556640625">
        <ele>241.1999969482421875</ele>
        <time>2020-08-22T11:05:06.000Z</time>
      </trkpt>
      <trkpt lat="43.15707975067198276519775390625" lon="-1.50148644112050533294677734375">
        <ele>241.1999969482421875</ele>
        <time>2020-08-22T11:05:14.000Z</time>
      </trkpt>
      <trkpt lat="43.1567653454840183258056640625" lon="-1.501605547964572906494140625">
        <ele>241.600006103515625</ele>
        <time>2020-08-22T11:05:22.000Z</time>
      </trkpt>
      <trkpt lat="43.1565326638519763946533203125" lon="-1.50165072642266750335693359375">
        <ele>242.8000030517578125</ele>
        <time>2020-08-22T11:05:29.000Z</time>
      </trkpt>
      <trkpt lat="43.15650424920022487640380859375" lon="-1.5016603656113147735595703125">
        <ele>242.8000030517578125</ele>
        <time>2020-08-22T11:05:30.000Z</time>
      </trkpt>
      <trkpt lat="43.156311213970184326171875" lon="-1.501708813011646270751953125">
        <ele>244</ele>
        <time>2020-08-22T11:05:37.000Z</time>
      </trkpt>
      <trkpt lat="43.15626016817986965179443359375" lon="-1.5017230622470378875732421875">
        <ele>244.1999969482421875</ele>
        <time>2020-08-22T11:05:39.000Z</time>
      </trkpt>
      <trkpt lat="43.15609462559223175048828125" lon="-1.50177394039928913116455078125">
        <ele>245</ele>
        <time>2020-08-22T11:05:45.000Z</time>
      </trkpt>
      <trkpt lat="43.15606922842562198638916015625" lon="-1.50178617797791957855224609375">
        <ele>245</ele>
        <time>2020-08-22T11:05:46.000Z</time>
      </trkpt>
      <trkpt lat="43.155903518199920654296875" lon="-1.5018658898770809173583984375">
        <ele>246</ele>
        <time>2020-08-22T11:05:53.000Z</time>
      </trkpt>
      <trkpt lat="43.155731521546840667724609375" lon="-1.50199086405336856842041015625">
        <ele>246.600006103515625</ele>
        <time>2020-08-22T11:06:00.000Z</time>
      </trkpt>
      <trkpt lat="43.15557033754885196685791015625" lon="-1.50213721208274364471435546875">
        <ele>247</ele>
        <time>2020-08-22T11:06:06.000Z</time>
      </trkpt>
      <trkpt lat="43.15528501756489276885986328125" lon="-1.5023684687912464141845703125">
        <ele>247</ele>
        <time>2020-08-22T11:06:15.000Z</time>
      </trkpt>
      <trkpt lat="43.15491504035890102386474609375" lon="-1.50267298333346843719482421875">
        <ele>246.8000030517578125</ele>
        <time>2020-08-22T11:06:26.000Z</time>
      </trkpt>
      <trkpt lat="43.15453626215457916259765625" lon="-1.5029820241034030914306640625">
        <ele>247.600006103515625</ele>
        <time>2020-08-22T11:06:37.000Z</time>
      </trkpt>
      <trkpt lat="43.15420123748481273651123046875" lon="-1.50325217284262180328369140625">
        <ele>247.8000030517578125</ele>
        <time>2020-08-22T11:06:47.000Z</time>
      </trkpt>
      <trkpt lat="43.1541377864778041839599609375" lon="-1.503308750689029693603515625">
        <ele>248</ele>
        <time>2020-08-22T11:06:49.000Z</time>
      </trkpt>
      <trkpt lat="43.15384819172322750091552734375" lon="-1.5035640634596347808837890625">
        <ele>248.600006103515625</ele>
        <time>2020-08-22T11:06:58.000Z</time>
      </trkpt>
      <trkpt lat="43.15360863693058490753173828125" lon="-1.50383488275110721588134765625">
        <ele>249</ele>
        <time>2020-08-22T11:07:06.000Z</time>
      </trkpt>
      <trkpt lat="43.1533022783696651458740234375" lon="-1.5042007528245449066162109375">
        <ele>249.1999969482421875</ele>
        <time>2020-08-22T11:07:16.000Z</time>
      </trkpt>
      <trkpt lat="43.15290682017803192138671875" lon="-1.5046822093427181243896484375">
        <ele>248.1999969482421875</ele>
        <time>2020-08-22T11:07:28.000Z</time>
      </trkpt>
      <trkpt lat="43.15287354402244091033935546875" lon="-1.50472202338278293609619140625">
        <ele>248</ele>
        <time>2020-08-22T11:07:29.000Z</time>
      </trkpt>
      <trkpt lat="43.152615465223789215087890625" lon="-1.50505327619612216949462890625">
        <ele>247.8000030517578125</ele>
        <time>2020-08-22T11:07:37.000Z</time>
      </trkpt>
      <trkpt lat="43.15238554961979389190673828125" lon="-1.50545594282448291778564453125">
        <ele>247.600006103515625</ele>
        <time>2020-08-22T11:07:45.000Z</time>
      </trkpt>
      <trkpt lat="43.152160830795764923095703125" lon="-1.5059220604598522186279296875">
        <ele>247.399993896484375</ele>
        <time>2020-08-22T11:07:53.000Z</time>
      </trkpt>
      <trkpt lat="43.15207843668758869171142578125" lon="-1.50615063495934009552001953125">
        <ele>246.8000030517578125</ele>
        <time>2020-08-22T11:07:56.000Z</time>
      </trkpt>
      <trkpt lat="43.15200316719710826873779296875" lon="-1.50642120279371738433837890625">
        <ele>245.600006103515625</ele>
        <time>2020-08-22T11:07:59.000Z</time>
      </trkpt>
      <trkpt lat="43.15193720161914825439453125" lon="-1.50674139149487018585205078125">
        <ele>244.399993896484375</ele>
        <time>2020-08-22T11:08:02.000Z</time>
      </trkpt>
      <trkpt lat="43.15190099179744720458984375" lon="-1.50698228739202022552490234375">
        <ele>243.399993896484375</ele>
        <time>2020-08-22T11:08:04.000Z</time>
      </trkpt>
      <trkpt lat="43.15187509171664714813232421875" lon="-1.5072373487055301666259765625">
        <ele>242.399993896484375</ele>
        <time>2020-08-22T11:08:06.000Z</time>
      </trkpt>
      <trkpt lat="43.15186084248125553131103515625" lon="-1.50748193264007568359375">
        <ele>241</ele>
        <time>2020-08-22T11:08:08.000Z</time>
      </trkpt>
      <trkpt lat="43.1518592499196529388427734375" lon="-1.50759114883840084075927734375">
        <ele>240.399993896484375</ele>
        <time>2020-08-22T11:08:09.000Z</time>
      </trkpt>
      <trkpt lat="43.15187282860279083251953125" lon="-1.50778301060199737548828125">
        <ele>239.8000030517578125</ele>
        <time>2020-08-22T11:08:11.000Z</time>
      </trkpt>
      <trkpt lat="43.15191733650863170623779296875" lon="-1.507938914000988006591796875">
        <ele>239.399993896484375</ele>
        <time>2020-08-22T11:08:13.000Z</time>
      </trkpt>
      <trkpt lat="43.15194658935070037841796875" lon="-1.508008651435375213623046875">
        <ele>239.1999969482421875</ele>
        <time>2020-08-22T11:08:14.000Z</time>
      </trkpt>
      <trkpt lat="43.15197098068892955780029296875" lon="-1.5080773830413818359375">
        <ele>239</ele>
        <time>2020-08-22T11:08:15.000Z</time>
      </trkpt>
      <trkpt lat="43.1519910134375095367431640625" lon="-1.50821526534855365753173828125">
        <ele>238.8000030517578125</ele>
        <time>2020-08-22T11:08:17.000Z</time>
      </trkpt>
      <trkpt lat="43.15196343697607517242431640625" lon="-1.50835323147475719451904296875">
        <ele>238.8000030517578125</ele>
        <time>2020-08-22T11:08:19.000Z</time>
      </trkpt>
      <trkpt lat="43.15193049609661102294921875" lon="-1.50841106660664081573486328125">
        <ele>238.8000030517578125</ele>
        <time>2020-08-22T11:08:20.000Z</time>
      </trkpt>
      <trkpt lat="43.15177300013601779937744140625" lon="-1.50845565833151340484619140625">
        <ele>238.600006103515625</ele>
        <time>2020-08-22T11:08:23.000Z</time>
      </trkpt>
      <trkpt lat="43.15171566791832447052001953125" lon="-1.50844275020062923431396484375">
        <ele>238.600006103515625</ele>
        <time>2020-08-22T11:08:24.000Z</time>
      </trkpt>
      <trkpt lat="43.1515953876078128814697265625" lon="-1.50842715986073017120361328125">
        <ele>238</ele>
        <time>2020-08-22T11:08:26.000Z</time>
      </trkpt>
      <trkpt lat="43.151533193886280059814453125" lon="-1.508435122668743133544921875">
        <ele>237.600006103515625</ele>
        <time>2020-08-22T11:08:27.000Z</time>
      </trkpt>
      <trkpt lat="43.151472173631191253662109375" lon="-1.50846420787274837493896484375">
        <ele>237.399993896484375</ele>
        <time>2020-08-22T11:08:28.000Z</time>
      </trkpt>
      <trkpt lat="43.1513288430869579315185546875" lon="-1.5086693130433559417724609375">
        <ele>236.1999969482421875</ele>
        <time>2020-08-22T11:08:31.000Z</time>
      </trkpt>
      <trkpt lat="43.15128802321851253509521484375" lon="-1.5087538026273250579833984375">
        <ele>235.8000030517578125</ele>
        <time>2020-08-22T11:08:32.000Z</time>
      </trkpt>
      <trkpt lat="43.1511010229587554931640625" lon="-1.50910374708473682403564453125">
        <ele>235</ele>
        <time>2020-08-22T11:08:36.000Z</time>
      </trkpt>
      <trkpt lat="43.151048719882965087890625" lon="-1.5091923438012599945068359375">
        <ele>234.600006103515625</ele>
        <time>2020-08-22T11:08:37.000Z</time>
      </trkpt>
      <trkpt lat="43.15093916840851306915283203125" lon="-1.50936760939657688140869140625">
        <ele>233.8000030517578125</ele>
        <time>2020-08-22T11:08:39.000Z</time>
      </trkpt>
      <trkpt lat="43.1507776491343975067138671875" lon="-1.50962702929973602294921875">
        <ele>232.600006103515625</ele>
        <time>2020-08-22T11:08:42.000Z</time>
      </trkpt>
      <trkpt lat="43.150516636669635772705078125" lon="-1.51003665290772914886474609375">
        <ele>231.8000030517578125</ele>
        <time>2020-08-22T11:08:47.000Z</time>
      </trkpt>
      <trkpt lat="43.15035763196647167205810546875" lon="-1.51028417050838470458984375">
        <ele>231.399993896484375</ele>
        <time>2020-08-22T11:08:50.000Z</time>
      </trkpt>
      <trkpt lat="43.15003576688468456268310546875" lon="-1.510769315063953399658203125">
        <ele>230.600006103515625</ele>
        <time>2020-08-22T11:08:56.000Z</time>
      </trkpt>
      <trkpt lat="43.1499300710856914520263671875" lon="-1.5109267272055149078369140625">
        <ele>230.1999969482421875</ele>
        <time>2020-08-22T11:08:58.000Z</time>
      </trkpt>
      <trkpt lat="43.149671070277690887451171875" lon="-1.51131187565624713897705078125">
        <ele>229.600006103515625</ele>
        <time>2020-08-22T11:09:03.000Z</time>
      </trkpt>
      <trkpt lat="43.14954861067235469818115234375" lon="-1.5115013904869556427001953125">
        <ele>229.600006103515625</ele>
        <time>2020-08-22T11:09:06.000Z</time>
      </trkpt>
      <trkpt lat="43.14938801340758800506591796875" lon="-1.51174387894570827484130859375">
        <ele>229.600006103515625</ele>
        <time>2020-08-22T11:09:12.000Z</time>
      </trkpt>
      <trkpt lat="43.14920679666101932525634765625" lon="-1.51201930828392505645751953125">
        <ele>229.600006103515625</ele>
        <time>2020-08-22T11:09:19.000Z</time>
      </trkpt>
      <trkpt lat="43.148924075067043304443359375" lon="-1.51247930712997913360595703125">
        <ele>228.600006103515625</ele>
        <time>2020-08-22T11:09:28.000Z</time>
      </trkpt>
      <trkpt lat="43.14889281056821346282958984375" lon="-1.51252741925418376922607421875">
        <ele>228.600006103515625</ele>
        <time>2020-08-22T11:09:29.000Z</time>
      </trkpt>
      <trkpt lat="43.14851998351514339447021484375" lon="-1.51310292072594165802001953125">
        <ele>228.399993896484375</ele>
        <time>2020-08-22T11:09:41.000Z</time>
      </trkpt>
      <trkpt lat="43.148236759006977081298828125" lon="-1.51353140361607074737548828125">
        <ele>228</ele>
        <time>2020-08-22T11:09:50.000Z</time>
      </trkpt>
      <trkpt lat="43.14800198189914226531982421875" lon="-1.51390356011688709259033203125">
        <ele>228.399993896484375</ele>
        <time>2020-08-22T11:09:58.000Z</time>
      </trkpt>
      <trkpt lat="43.147771395742893218994140625" lon="-1.5142446197569370269775390625">
        <ele>228</ele>
        <time>2020-08-22T11:10:06.000Z</time>
      </trkpt>
      <trkpt lat="43.147743232548236846923828125" lon="-1.51429147459566593170166015625">
        <ele>228.1999969482421875</ele>
        <time>2020-08-22T11:10:07.000Z</time>
      </trkpt>
      <trkpt lat="43.14771364443004131317138671875" lon="-1.51433740742504596710205078125">
        <ele>228.1999969482421875</ele>
        <time>2020-08-22T11:10:08.000Z</time>
      </trkpt>
      <trkpt lat="43.14747157506644725799560546875" lon="-1.5147146768867969512939453125">
        <ele>227.600006103515625</ele>
        <time>2020-08-22T11:10:16.000Z</time>
      </trkpt>
      <trkpt lat="43.1474101357161998748779296875" lon="-1.51481442153453826904296875">
        <ele>227.399993896484375</ele>
        <time>2020-08-22T11:10:18.000Z</time>
      </trkpt>
      <trkpt lat="43.14729236997663974761962890625" lon="-1.5150296688079833984375">
        <ele>227.399993896484375</ele>
        <time>2020-08-22T11:10:23.000Z</time>
      </trkpt>
      <trkpt lat="43.1472904421389102935791015625" lon="-1.5150382183492183685302734375">
        <ele>227.1999969482421875</ele>
        <time>2020-08-22T11:10:27.000Z</time>
      </trkpt>
      <trkpt lat="43.1472907774150371551513671875" lon="-1.51503679342567920684814453125">
        <ele>227</ele>
        <time>2020-08-22T11:10:42.000Z</time>
      </trkpt>
      <trkpt lat="43.14729035831987857818603515625" lon="-1.5150362066924571990966796875">
        <ele>226.600006103515625</ele>
        <time>2020-08-22T11:11:00.000Z</time>
      </trkpt>
      <trkpt lat="43.147290609776973724365234375" lon="-1.515036039054393768310546875">
        <ele>226.600006103515625</ele>
        <time>2020-08-22T11:11:01.000Z</time>
      </trkpt>
      <trkpt lat="43.14728499390184879302978515625" lon="-1.515050791203975677490234375">
        <ele>226.8000030517578125</ele>
        <time>2020-08-22T11:11:14.000Z</time>
      </trkpt>
      <trkpt lat="43.14728465862572193145751953125" lon="-1.51505355723202228546142578125">
        <ele>226.399993896484375</ele>
        <time>2020-08-22T11:11:26.000Z</time>
      </trkpt>
      <trkpt lat="43.14727879129350185394287109375" lon="-1.51505523361265659332275390625">
        <ele>226.600006103515625</ele>
        <time>2020-08-22T11:11:33.000Z</time>
      </trkpt>
      <trkpt lat="43.14725540578365325927734375" lon="-1.5150663815438747406005859375">
        <ele>226.600006103515625</ele>
        <time>2020-08-22T11:11:35.000Z</time>
      </trkpt>
      <trkpt lat="43.147222213447093963623046875" lon="-1.5151139907538890838623046875">
        <ele>226.1999969482421875</ele>
        <time>2020-08-22T11:11:38.000Z</time>
      </trkpt>
      <trkpt lat="43.14720989204943180084228515625" lon="-1.51512983255088329315185546875">
        <ele>226</ele>
        <time>2020-08-22T11:11:39.000Z</time>
      </trkpt>
      <trkpt lat="43.1471689045429229736328125" lon="-1.5151800401508808135986328125">
        <ele>226.1999969482421875</ele>
        <time>2020-08-22T11:11:42.000Z</time>
      </trkpt>
      <trkpt lat="43.14705164171755313873291015625" lon="-1.5153637714684009552001953125">
        <ele>225.8000030517578125</ele>
        <time>2020-08-22T11:11:50.000Z</time>
      </trkpt>
      <trkpt lat="43.1469803117215633392333984375" lon="-1.515469215810298919677734375">
        <ele>225.600006103515625</ele>
        <time>2020-08-22T11:11:54.000Z</time>
      </trkpt>
      <trkpt lat="43.1468874402344226837158203125" lon="-1.51562654413282871246337890625">
        <ele>225.8000030517578125</ele>
        <time>2020-08-22T11:11:59.000Z</time>
      </trkpt>
      <trkpt lat="43.14669004641473293304443359375" lon="-1.51593768037855625152587890625">
        <ele>225.1999969482421875</ele>
        <time>2020-08-22T11:12:08.000Z</time>
      </trkpt>
      <trkpt lat="43.1465414352715015411376953125" lon="-1.51619148440659046173095703125">
        <ele>225.1999969482421875</ele>
        <time>2020-08-22T11:12:15.000Z</time>
      </trkpt>
      <trkpt lat="43.14651377499103546142578125" lon="-1.51625082828104496002197265625">
        <ele>225</ele>
        <time>2020-08-22T11:12:18.000Z</time>
      </trkpt>
      <trkpt lat="43.146515451371669769287109375" lon="-1.5162666700780391693115234375">
        <ele>225</ele>
        <time>2020-08-22T11:12:19.000Z</time>
      </trkpt>
      <trkpt lat="43.1465519964694976806640625" lon="-1.5163045562803745269775390625">
        <ele>225</ele>
        <time>2020-08-22T11:12:25.000Z</time>
      </trkpt>
      <trkpt lat="43.14655040390789508819580078125" lon="-1.5163008682429790496826171875">
        <ele>224.8000030517578125</ele>
        <time>2020-08-22T11:12:29.000Z</time>
      </trkpt>
      <trkpt lat="43.146553672850131988525390625" lon="-1.516304053366184234619140625">
        <ele>224.8000030517578125</ele>
        <time>2020-08-22T11:12:30.000Z</time>
      </trkpt>
      <trkpt lat="43.14658443443477153778076171875" lon="-1.51636281050741672515869140625">
        <ele>224.600006103515625</ele>
        <time>2020-08-22T11:12:33.000Z</time>
      </trkpt>
      <trkpt lat="43.1466269306838512420654296875" lon="-1.5165330469608306884765625">
        <ele>224.1999969482421875</ele>
        <time>2020-08-22T11:12:39.000Z</time>
      </trkpt>
      <trkpt lat="43.14662936143577098846435546875" lon="-1.51654872111976146697998046875">
        <ele>223.8000030517578125</ele>
        <time>2020-08-22T11:12:40.000Z</time>
      </trkpt>
      <trkpt lat="43.14662433229386806488037109375" lon="-1.516562886536121368408203125">
        <ele>223.8000030517578125</ele>
        <time>2020-08-22T11:12:42.000Z</time>
      </trkpt>
      <trkpt lat="43.14662349410355091094970703125" lon="-1.51657436974346637725830078125">
        <ele>223.600006103515625</ele>
        <time>2020-08-22T11:12:45.000Z</time>
      </trkpt>
      <trkpt lat="43.146636821329593658447265625" lon="-1.5166576020419597625732421875">
        <ele>223.600006103515625</ele>
        <time>2020-08-22T11:12:52.000Z</time>
      </trkpt>
      <trkpt lat="43.14669205807149410247802734375" lon="-1.51676581241190433502197265625">
        <ele>223.600006103515625</ele>
        <time>2020-08-22T11:12:59.000Z</time>
      </trkpt>
      <trkpt lat="43.14674033783376216888427734375" lon="-1.51687729172408580780029296875">
        <ele>223.399993896484375</ele>
        <time>2020-08-22T11:13:07.000Z</time>
      </trkpt>
      <trkpt lat="43.14673840999603271484375" lon="-1.51687611825764179229736328125">
        <ele>223.399993896484375</ele>
        <time>2020-08-22T11:13:19.000Z</time>
      </trkpt>
      <trkpt lat="43.1467157788574695587158203125" lon="-1.51691249571740627288818359375">
        <ele>222.600006103515625</ele>
        <time>2020-08-22T11:14:28.000Z</time>
      </trkpt>
      <trkpt lat="43.146750815212726593017578125" lon="-1.5169392339885234832763671875">
        <ele>222.600006103515625</ele>
        <time>2020-08-22T11:14:33.000Z</time>
      </trkpt>
      <trkpt lat="43.14679381437599658966064453125" lon="-1.51695658452808856964111328125">
        <ele>222.600006103515625</ele>
        <time>2020-08-22T11:14:36.000Z</time>
      </trkpt>
      <trkpt lat="43.14682834781706333160400390625" lon="-1.51697359979152679443359375">
        <ele>222.399993896484375</ele>
        <time>2020-08-22T11:14:39.000Z</time>
      </trkpt>
      <trkpt lat="43.14685709774494171142578125" lon="-1.51697225868701934814453125">
        <ele>222.399993896484375</ele>
        <time>2020-08-22T11:14:41.000Z</time>
      </trkpt>
      <trkpt lat="43.1469140946865081787109375" lon="-1.51693210937082767486572265625">
        <ele>222.1999969482421875</ele>
        <time>2020-08-22T11:14:45.000Z</time>
      </trkpt>
      <trkpt lat="43.147059939801692962646484375" lon="-1.5168530680239200592041015625">
        <ele>222.600006103515625</ele>
        <time>2020-08-22T11:14:53.000Z</time>
      </trkpt>
      <trkpt lat="43.14716689288616180419921875" lon="-1.5167923830449581146240234375">
        <ele>222.399993896484375</ele>
        <time>2020-08-22T11:14:59.000Z</time>
      </trkpt>
      <trkpt lat="43.14721592701971530914306640625" lon="-1.516786180436611175537109375">
        <ele>222.399993896484375</ele>
        <time>2020-08-22T11:15:03.000Z</time>
      </trkpt>
      <trkpt lat="43.1472213752567768096923828125" lon="-1.51679548434913158416748046875">
        <ele>222.399993896484375</ele>
        <time>2020-08-22T11:15:04.000Z</time>
      </trkpt>
      <trkpt lat="43.14726169221103191375732421875" lon="-1.51678525842726230621337890625">
        <ele>222.8000030517578125</ele>
        <time>2020-08-22T11:15:08.000Z</time>
      </trkpt>
      <trkpt lat="43.14729790203273296356201171875" lon="-1.51677620597183704376220703125">
        <ele>222.8000030517578125</ele>
        <time>2020-08-22T11:15:10.000Z</time>
      </trkpt>
      <trkpt lat="43.14739043824374675750732421875" lon="-1.51673479937016963958740234375">
        <ele>222.600006103515625</ele>
        <time>2020-08-22T11:15:17.000Z</time>
      </trkpt>
      <trkpt lat="43.14748079515993595123291015625" lon="-1.51673178188502788543701171875">
        <ele>222.8000030517578125</ele>
        <time>2020-08-22T11:15:23.000Z</time>
      </trkpt>
      <trkpt lat="43.14759244211018085479736328125" lon="-1.5167234838008880615234375">
        <ele>222.600006103515625</ele>
        <time>2020-08-22T11:15:29.000Z</time>
      </trkpt>
      <trkpt lat="43.14767123199999332427978515625" lon="-1.51671904139220714569091796875">
        <ele>222.600006103515625</ele>
        <time>2020-08-22T11:15:34.000Z</time>
      </trkpt>
      <trkpt lat="43.1477085314691066741943359375" lon="-1.5167112462222576141357421875">
        <ele>222.600006103515625</ele>
        <time>2020-08-22T11:15:37.000Z</time>
      </trkpt>
      <trkpt lat="43.14772068522870540618896484375" lon="-1.51670982129871845245361328125">
        <ele>222.600006103515625</ele>
        <time>2020-08-22T11:15:38.000Z</time>
      </trkpt>
      <trkpt lat="43.14777734689414501190185546875" lon="-1.51669188402593135833740234375">
        <ele>222.600006103515625</ele>
        <time>2020-08-22T11:15:45.000Z</time>
      </trkpt>
      <trkpt lat="43.14778824336826801300048828125" lon="-1.51668400503695011138916015625">
        <ele>222.8000030517578125</ele>
        <time>2020-08-22T11:15:56.000Z</time>
      </trkpt>
      <trkpt lat="43.147800900042057037353515625" lon="-1.51668216101825237274169921875">
        <ele>222.8000030517578125</ele>
        <time>2020-08-22T11:15:59.000Z</time>
      </trkpt>
      <trkpt lat="43.14783048816025257110595703125" lon="-1.51668727397918701171875">
        <ele>223</ele>
        <time>2020-08-22T11:16:01.000Z</time>
      </trkpt>
      <trkpt lat="43.147865273058414459228515625" lon="-1.516695655882358551025390625">
        <ele>223</ele>
        <time>2020-08-22T11:16:03.000Z</time>
      </trkpt>
      <trkpt lat="43.1479539535939693450927734375" lon="-1.5167031995952129364013671875">
        <ele>222.8000030517578125</ele>
        <time>2020-08-22T11:16:07.000Z</time>
      </trkpt>
      <trkpt lat="43.148083202540874481201171875" lon="-1.51671568863093852996826171875">
        <ele>223.1999969482421875</ele>
        <time>2020-08-22T11:16:13.000Z</time>
      </trkpt>
      <trkpt lat="43.148151934146881103515625" lon="-1.51666774414479732513427734375">
        <ele>223.600006103515625</ele>
        <time>2020-08-22T11:16:16.000Z</time>
      </trkpt>
      <trkpt lat="43.14823332242667675018310546875" lon="-1.51663220487534999847412109375">
        <ele>223.8000030517578125</ele>
        <time>2020-08-22T11:16:19.000Z</time>
      </trkpt>
      <trkpt lat="43.14839241094887256622314453125" lon="-1.51653732173144817352294921875">
        <ele>224.1999969482421875</ele>
        <time>2020-08-22T11:16:26.000Z</time>
      </trkpt>
      <trkpt lat="43.148448653519153594970703125" lon="-1.51649155654013156890869140625">
        <ele>224.8000030517578125</ele>
        <time>2020-08-22T11:16:29.000Z</time>
      </trkpt>
      <trkpt lat="43.1485443748533725738525390625" lon="-1.51642550714313983917236328125">
        <ele>225.1999969482421875</ele>
        <time>2020-08-22T11:16:34.000Z</time>
      </trkpt>
      <trkpt lat="43.1486548483371734619140625" lon="-1.5163253434002399444580078125">
        <ele>225.8000030517578125</ele>
        <time>2020-08-22T11:16:40.000Z</time>
      </trkpt>
      <trkpt lat="43.1487545929849147796630859375" lon="-1.516234986484050750732421875">
        <ele>226</ele>
        <time>2020-08-22T11:16:45.000Z</time>
      </trkpt>
      <trkpt lat="43.1489004381000995635986328125" lon="-1.5160956792533397674560546875">
        <ele>226</ele>
        <time>2020-08-22T11:16:52.000Z</time>
      </trkpt>
      <trkpt lat="43.149062879383563995361328125" lon="-1.5159295499324798583984375">
        <ele>225.1999969482421875</ele>
        <time>2020-08-22T11:16:58.000Z</time>
      </trkpt>
      <trkpt lat="43.1492645479738712310791015625" lon="-1.51567876338958740234375">
        <ele>225</ele>
        <time>2020-08-22T11:17:06.000Z</time>
      </trkpt>
      <trkpt lat="43.1493782065808773040771484375" lon="-1.51544214226305484771728515625">
        <ele>225.1999969482421875</ele>
        <time>2020-08-22T11:17:13.000Z</time>
      </trkpt>
      <trkpt lat="43.1494489498436450958251953125" lon="-1.5150928683578968048095703125">
        <ele>225.399993896484375</ele>
        <time>2020-08-22T11:17:22.000Z</time>
      </trkpt>
      <trkpt lat="43.14947853796184062957763671875" lon="-1.51472565717995166778564453125">
        <ele>225.600006103515625</ele>
        <time>2020-08-22T11:17:32.000Z</time>
      </trkpt>
      <trkpt lat="43.14955078996717929840087890625" lon="-1.514663212001323699951171875">
        <ele>225.399993896484375</ele>
        <time>2020-08-22T11:17:36.000Z</time>
      </trkpt>
      <trkpt lat="43.1497097946703433990478515625" lon="-1.51458584703505039215087890625">
        <ele>226</ele>
        <time>2020-08-22T11:17:43.000Z</time>
      </trkpt>
      <trkpt lat="43.14988262951374053955078125" lon="-1.51447512209415435791015625">
        <ele>226</ele>
        <time>2020-08-22T11:17:51.000Z</time>
      </trkpt>
      <trkpt lat="43.150088153779506683349609375" lon="-1.51433891616761684417724609375">
        <ele>226.399993896484375</ele>
        <time>2020-08-22T11:18:00.000Z</time>
      </trkpt>
      <trkpt lat="43.1502341665327548980712890625" lon="-1.51424503885209560394287109375">
        <ele>226.600006103515625</ele>
        <time>2020-08-22T11:18:08.000Z</time>
      </trkpt>
      <trkpt lat="43.1503136269748210906982421875" lon="-1.514227353036403656005859375">
        <ele>226.600006103515625</ele>
        <time>2020-08-22T11:18:12.000Z</time>
      </trkpt>
      <trkpt lat="43.15040859393775463104248046875" lon="-1.51422810740768909454345703125">
        <ele>226.600006103515625</ele>
        <time>2020-08-22T11:18:16.000Z</time>
      </trkpt>
      <trkpt lat="43.150631971657276153564453125" lon="-1.5142409317195415496826171875">
        <ele>226.600006103515625</ele>
        <time>2020-08-22T11:18:25.000Z</time>
      </trkpt>
      <trkpt lat="43.15083883702754974365234375" lon="-1.5143646486103534698486328125">
        <ele>226.600006103515625</ele>
        <time>2020-08-22T11:18:33.000Z</time>
      </trkpt>
      <trkpt lat="43.151064477860927581787109375" lon="-1.51453220285475254058837890625">
        <ele>226.399993896484375</ele>
        <time>2020-08-22T11:18:42.000Z</time>
      </trkpt>
      <trkpt lat="43.15123471431434154510498046875" lon="-1.51473621837794780731201171875">
        <ele>226.399993896484375</ele>
        <time>2020-08-22T11:18:50.000Z</time>
      </trkpt>
      <trkpt lat="43.15135356970131397247314453125" lon="-1.5149037726223468780517578125">
        <ele>226.8000030517578125</ele>
        <time>2020-08-22T11:18:58.000Z</time>
      </trkpt>
      <trkpt lat="43.1513504683971405029296875" lon="-1.51490586809813976287841796875">
        <ele>227</ele>
        <time>2020-08-22T11:19:15.000Z</time>
      </trkpt>
      <trkpt lat="43.15135004930198192596435546875" lon="-1.5149084664881229400634765625">
        <ele>227.1999969482421875</ele>
        <time>2020-08-22T11:19:56.000Z</time>
      </trkpt>
      <trkpt lat="43.151350133121013641357421875" lon="-1.514909304678440093994140625">
        <ele>227.8000030517578125</ele>
        <time>2020-08-22T11:20:21.000Z</time>
      </trkpt>
      <trkpt lat="43.15135021694004535675048828125" lon="-1.51490938849747180938720703125">
        <ele>227.600006103515625</ele>
        <time>2020-08-22T11:20:22.000Z</time>
      </trkpt>
      <trkpt lat="43.15136631019413471221923828125" lon="-1.51494744233787059783935546875">
        <ele>227.399993896484375</ele>
        <time>2020-08-22T11:20:32.000Z</time>
      </trkpt>
      <trkpt lat="43.1514498777687549591064453125" lon="-1.51507434435188770294189453125">
        <ele>227.600006103515625</ele>
        <time>2020-08-22T11:20:39.000Z</time>
      </trkpt>
      <trkpt lat="43.1515752710402011871337890625" lon="-1.51521650142967700958251953125">
        <ele>227.8000030517578125</ele>
        <time>2020-08-22T11:20:46.000Z</time>
      </trkpt>
      <trkpt lat="43.151753135025501251220703125" lon="-1.51527048088610172271728515625">
        <ele>228.399993896484375</ele>
        <time>2020-08-22T11:20:54.000Z</time>
      </trkpt>
      <trkpt lat="43.15193426795303821563720703125" lon="-1.51531524024903774261474609375">
        <ele>228.8000030517578125</ele>
        <time>2020-08-22T11:21:02.000Z</time>
      </trkpt>
      <trkpt lat="43.1519970484077930450439453125" lon="-1.5153287351131439208984375">
        <ele>229.600006103515625</ele>
        <time>2020-08-22T11:21:05.000Z</time>
      </trkpt>
      <trkpt lat="43.1520366109907627105712890625" lon="-1.5153403021395206451416015625">
        <ele>230</ele>
        <time>2020-08-22T11:21:07.000Z</time>
      </trkpt>
      <trkpt lat="43.15209872089326381683349609375" lon="-1.5154157392680644989013671875">
        <ele>231.1999969482421875</ele>
        <time>2020-08-22T11:21:12.000Z</time>
      </trkpt>
      <trkpt lat="43.1521403789520263671875" lon="-1.515564434230327606201171875">
        <ele>232</ele>
        <time>2020-08-22T11:21:20.000Z</time>
      </trkpt>
      <trkpt lat="43.152138032019138336181640625" lon="-1.5155835449695587158203125">
        <ele>232</ele>
        <time>2020-08-22T11:21:21.000Z</time>
      </trkpt>
      <trkpt lat="43.1521328352391719818115234375" lon="-1.515624783933162689208984375">
        <ele>232.399993896484375</ele>
        <time>2020-08-22T11:21:23.000Z</time>
      </trkpt>
      <trkpt lat="43.15212403424084186553955078125" lon="-1.5157607384026050567626953125">
        <ele>233.1999969482421875</ele>
        <time>2020-08-22T11:21:29.000Z</time>
      </trkpt>
      <trkpt lat="43.15212386660277843475341796875" lon="-1.5158086828887462615966796875">
        <ele>233.399993896484375</ele>
        <time>2020-08-22T11:21:31.000Z</time>
      </trkpt>
      <trkpt lat="43.15210483968257904052734375" lon="-1.51590180583298206329345703125">
        <ele>233.8000030517578125</ele>
        <time>2020-08-22T11:21:35.000Z</time>
      </trkpt>
      <trkpt lat="43.15208782441914081573486328125" lon="-1.5160862915217876434326171875">
        <ele>234.399993896484375</ele>
        <time>2020-08-22T11:21:42.000Z</time>
      </trkpt>
      <trkpt lat="43.15208430401980876922607421875" lon="-1.51611554436385631561279296875">
        <ele>234.399993896484375</ele>
        <time>2020-08-22T11:21:43.000Z</time>
      </trkpt>
      <trkpt lat="43.15204591490328311920166015625" lon="-1.51631872169673442840576171875">
        <ele>234.600006103515625</ele>
        <time>2020-08-22T11:21:50.000Z</time>
      </trkpt>
      <trkpt lat="43.15202009864151477813720703125" lon="-1.5165459550917148590087890625">
        <ele>235</ele>
        <time>2020-08-22T11:21:58.000Z</time>
      </trkpt>
      <trkpt lat="43.15201691351830959320068359375" lon="-1.51675525121390819549560546875">
        <ele>235.600006103515625</ele>
        <time>2020-08-22T11:22:05.000Z</time>
      </trkpt>
      <trkpt lat="43.15202278085052967071533203125" lon="-1.51684778742492198944091796875">
        <ele>235.600006103515625</ele>
        <time>2020-08-22T11:22:08.000Z</time>
      </trkpt>
      <trkpt lat="43.152065277099609375" lon="-1.51714785955846309661865234375">
        <ele>236.1999969482421875</ele>
        <time>2020-08-22T11:22:18.000Z</time>
      </trkpt>
      <trkpt lat="43.15207692794501781463623046875" lon="-1.5171916969120502471923828125">
        <ele>236.8000030517578125</ele>
        <time>2020-08-22T11:22:20.000Z</time>
      </trkpt>
      <trkpt lat="43.15210743807256221771240234375" lon="-1.517303176224231719970703125">
        <ele>237.8000030517578125</ele>
        <time>2020-08-22T11:22:25.000Z</time>
      </trkpt>
      <trkpt lat="43.15212353132665157318115234375" lon="-1.5173848159611225128173828125">
        <ele>238.8000030517578125</ele>
        <time>2020-08-22T11:22:29.000Z</time>
      </trkpt>
      <trkpt lat="43.1521428935229778289794921875" lon="-1.5174401365220546722412109375">
        <ele>239.399993896484375</ele>
        <time>2020-08-22T11:22:32.000Z</time>
      </trkpt>
      <trkpt lat="43.152171559631824493408203125" lon="-1.5174921043217182159423828125">
        <ele>240.1999969482421875</ele>
        <time>2020-08-22T11:22:35.000Z</time>
      </trkpt>
      <trkpt lat="43.15221640281379222869873046875" lon="-1.5175859816372394561767578125">
        <ele>241</ele>
        <time>2020-08-22T11:22:40.000Z</time>
      </trkpt>
      <trkpt lat="43.152234591543674468994140625" lon="-1.51762847788631916046142578125">
        <ele>241.399993896484375</ele>
        <time>2020-08-22T11:22:42.000Z</time>
      </trkpt>
      <trkpt lat="43.15227138809859752655029296875" lon="-1.5177603252232074737548828125">
        <ele>242.600006103515625</ele>
        <time>2020-08-22T11:22:48.000Z</time>
      </trkpt>
      <trkpt lat="43.15227457322180271148681640625" lon="-1.517785973846912384033203125">
        <ele>242.8000030517578125</ele>
        <time>2020-08-22T11:22:49.000Z</time>
      </trkpt>
      <trkpt lat="43.15228345803916454315185546875" lon="-1.51787289418280124664306640625">
        <ele>243.1999969482421875</ele>
        <time>2020-08-22T11:22:53.000Z</time>
      </trkpt>
      <trkpt lat="43.1522629223763942718505859375" lon="-1.51794447563588619232177734375">
        <ele>243.399993896484375</ele>
        <time>2020-08-22T11:22:56.000Z</time>
      </trkpt>
      <trkpt lat="43.1522022373974323272705078125" lon="-1.51807791553437709808349609375">
        <ele>243.8000030517578125</ele>
        <time>2020-08-22T11:23:02.000Z</time>
      </trkpt>
      <trkpt lat="43.15219544805586338043212890625" lon="-1.51810222305357456207275390625">
        <ele>243.8000030517578125</ele>
        <time>2020-08-22T11:23:03.000Z</time>
      </trkpt>
      <trkpt lat="43.15216720104217529296875" lon="-1.5182146243751049041748046875">
        <ele>244.8000030517578125</ele>
        <time>2020-08-22T11:23:08.000Z</time>
      </trkpt>
      <trkpt lat="43.15216661430895328521728515625" lon="-1.51826282031834125518798828125">
        <ele>245.1999969482421875</ele>
        <time>2020-08-22T11:23:10.000Z</time>
      </trkpt>
      <trkpt lat="43.15219528041779994964599609375" lon="-1.51832149364054203033447265625">
        <ele>246</ele>
        <time>2020-08-22T11:23:13.000Z</time>
      </trkpt>
      <trkpt lat="43.152213804423809051513671875" lon="-1.51838821358978748321533203125">
        <ele>247.399993896484375</ele>
        <time>2020-08-22T11:23:16.000Z</time>
      </trkpt>
      <trkpt lat="43.1522350944578647613525390625" lon="-1.51848125271499156951904296875">
        <ele>248.600006103515625</ele>
        <time>2020-08-22T11:23:20.000Z</time>
      </trkpt>
      <trkpt lat="43.15224624238908290863037109375" lon="-1.51849918998777866363525390625">
        <ele>249</ele>
        <time>2020-08-22T11:23:21.000Z</time>
      </trkpt>
      <trkpt lat="43.15227918326854705810546875" lon="-1.518513523042201995849609375">
        <ele>249.399993896484375</ele>
        <time>2020-08-22T11:23:23.000Z</time>
      </trkpt>
      <trkpt lat="43.15229795873165130615234375" lon="-1.51851863600313663482666015625">
        <ele>249.8000030517578125</ele>
        <time>2020-08-22T11:23:24.000Z</time>
      </trkpt>
      <trkpt lat="43.15233861096203327178955078125" lon="-1.5185639820992946624755859375">
        <ele>250.8000030517578125</ele>
        <time>2020-08-22T11:23:27.000Z</time>
      </trkpt>
      <trkpt lat="43.152367360889911651611328125" lon="-1.5185864455997943878173828125">
        <ele>251.1999969482421875</ele>
        <time>2020-08-22T11:23:29.000Z</time>
      </trkpt>
      <trkpt lat="43.15240147523581981658935546875" lon="-1.51858870871365070343017578125">
        <ele>252</ele>
        <time>2020-08-22T11:23:31.000Z</time>
      </trkpt>
      <trkpt lat="43.15247900784015655517578125" lon="-1.51861955411732196807861328125">
        <ele>253</ele>
        <time>2020-08-22T11:23:36.000Z</time>
      </trkpt>
      <trkpt lat="43.1524962745606899261474609375" lon="-1.5186198055744171142578125">
        <ele>253.399993896484375</ele>
        <time>2020-08-22T11:23:37.000Z</time>
      </trkpt>
      <trkpt lat="43.15252871252596378326416015625" lon="-1.51862072758376598358154296875">
        <ele>254.1999969482421875</ele>
        <time>2020-08-22T11:23:39.000Z</time>
      </trkpt>
      <trkpt lat="43.15259275026619434356689453125" lon="-1.51861284859478473663330078125">
        <ele>254.8000030517578125</ele>
        <time>2020-08-22T11:23:44.000Z</time>
      </trkpt>
      <trkpt lat="43.15261370502412319183349609375" lon="-1.51858585886657238006591796875">
        <ele>255.1999969482421875</ele>
        <time>2020-08-22T11:23:50.000Z</time>
      </trkpt>
      <trkpt lat="43.1526152975857257843017578125" lon="-1.51858292520046234130859375">
        <ele>255.1999969482421875</ele>
        <time>2020-08-22T11:23:55.000Z</time>
      </trkpt>
      <trkpt lat="43.15264957956969738006591796875" lon="-1.5185757167637348175048828125">
        <ele>255.1999969482421875</ele>
        <time>2020-08-22T11:23:58.000Z</time>
      </trkpt>
      <trkpt lat="43.15267841331660747528076171875" lon="-1.51857219636440277099609375">
        <ele>255.1999969482421875</ele>
        <time>2020-08-22T11:24:00.000Z</time>
      </trkpt>
      <trkpt lat="43.15277547575533390045166015625" lon="-1.51856188662350177764892578125">
        <ele>256</ele>
        <time>2020-08-22T11:24:06.000Z</time>
      </trkpt>
      <trkpt lat="43.15288024954497814178466796875" lon="-1.51863497681915760040283203125">
        <ele>256</ele>
        <time>2020-08-22T11:24:13.000Z</time>
      </trkpt>
      <trkpt lat="43.1529168784618377685546875" lon="-1.5186900459229946136474609375">
        <ele>256.20001220703125</ele>
        <time>2020-08-22T11:24:16.000Z</time>
      </trkpt>
      <trkpt lat="43.15298737026751041412353515625" lon="-1.51881334371864795684814453125">
        <ele>256.399993896484375</ele>
        <time>2020-08-22T11:24:22.000Z</time>
      </trkpt>
      <trkpt lat="43.1530930660665035247802734375" lon="-1.518944017589092254638671875">
        <ele>257.399993896484375</ele>
        <time>2020-08-22T11:24:30.000Z</time>
      </trkpt>
      <trkpt lat="43.1531195528805255889892578125" lon="-1.51897259987890720367431640625">
        <ele>258</ele>
        <time>2020-08-22T11:24:32.000Z</time>
      </trkpt>
      <trkpt lat="43.15314830280840396881103515625" lon="-1.51899539865553379058837890625">
        <ele>258.399993896484375</ele>
        <time>2020-08-22T11:24:34.000Z</time>
      </trkpt>
      <trkpt lat="43.15321653150022029876708984375" lon="-1.51905926875770092010498046875">
        <ele>259.79998779296875</ele>
        <time>2020-08-22T11:24:39.000Z</time>
      </trkpt>
      <trkpt lat="43.15322893671691417694091796875" lon="-1.5190749429166316986083984375">
        <ele>260</ele>
        <time>2020-08-22T11:24:40.000Z</time>
      </trkpt>
      <trkpt lat="43.1532650627195835113525390625" lon="-1.519120372831821441650390625">
        <ele>261</ele>
        <time>2020-08-22T11:24:43.000Z</time>
      </trkpt>
      <trkpt lat="43.15329951234161853790283203125" lon="-1.51916622184216976165771484375">
        <ele>262</ele>
        <time>2020-08-22T11:24:46.000Z</time>
      </trkpt>
      <trkpt lat="43.15333773382008075714111328125" lon="-1.51920645497739315032958984375">
        <ele>263.399993896484375</ele>
        <time>2020-08-22T11:24:49.000Z</time>
      </trkpt>
      <trkpt lat="43.1533867679536342620849609375" lon="-1.5192620269954204559326171875">
        <ele>264.600006103515625</ele>
        <time>2020-08-22T11:24:53.000Z</time>
      </trkpt>
      <trkpt lat="43.153422139585018157958984375" lon="-1.519310139119625091552734375">
        <ele>265.79998779296875</ele>
        <time>2020-08-22T11:24:56.000Z</time>
      </trkpt>
      <trkpt lat="43.15345642156898975372314453125" lon="-1.519382558763027191162109375">
        <ele>266.79998779296875</ele>
        <time>2020-08-22T11:25:00.000Z</time>
      </trkpt>
      <trkpt lat="43.1534712575376033782958984375" lon="-1.51941818185150623321533203125">
        <ele>267.600006103515625</ele>
        <time>2020-08-22T11:25:02.000Z</time>
      </trkpt>
      <trkpt lat="43.15348223783075809478759765625" lon="-1.51943511329591274261474609375">
        <ele>268</ele>
        <time>2020-08-22T11:25:03.000Z</time>
      </trkpt>
      <trkpt lat="43.1535295955836772918701171875" lon="-1.51951926760375499725341796875">
        <ele>269.20001220703125</ele>
        <time>2020-08-22T11:25:08.000Z</time>
      </trkpt>
      <trkpt lat="43.15353445708751678466796875" lon="-1.51953888125717639923095703125">
        <ele>269.20001220703125</ele>
        <time>2020-08-22T11:25:09.000Z</time>
      </trkpt>
      <trkpt lat="43.15355197526514530181884765625" lon="-1.519643403589725494384765625">
        <ele>270.399993896484375</ele>
        <time>2020-08-22T11:25:15.000Z</time>
      </trkpt>
      <trkpt lat="43.15352548845112323760986328125" lon="-1.51974172331392765045166015625">
        <ele>271.600006103515625</ele>
        <time>2020-08-22T11:25:21.000Z</time>
      </trkpt>
      <trkpt lat="43.1535027734935283660888671875" lon="-1.51983149349689483642578125">
        <ele>272.600006103515625</ele>
        <time>2020-08-22T11:25:26.000Z</time>
      </trkpt>
      <trkpt lat="43.1534910388290882110595703125" lon="-1.51986099779605865478515625">
        <ele>273</ele>
        <time>2020-08-22T11:25:28.000Z</time>
      </trkpt>
      <trkpt lat="43.15345340408384799957275390625" lon="-1.5199630893766880035400390625">
        <ele>273.79998779296875</ele>
        <time>2020-08-22T11:25:34.000Z</time>
      </trkpt>
      <trkpt lat="43.15344301052391529083251953125" lon="-1.51997893117368221282958984375">
        <ele>274</ele>
        <time>2020-08-22T11:25:35.000Z</time>
      </trkpt>
      <trkpt lat="43.15343479625880718231201171875" lon="-1.5199935995042324066162109375">
        <ele>274.20001220703125</ele>
        <time>2020-08-22T11:25:36.000Z</time>
      </trkpt>
      <trkpt lat="43.1534092314541339874267578125" lon="-1.5200609900057315826416015625">
        <ele>275</ele>
        <time>2020-08-22T11:25:40.000Z</time>
      </trkpt>
      <trkpt lat="43.15340244211256504058837890625" lon="-1.52007515542209148406982421875">
        <ele>275.20001220703125</ele>
        <time>2020-08-22T11:25:41.000Z</time>
      </trkpt>
      <trkpt lat="43.15333865582942962646484375" lon="-1.52016819454729557037353515625">
        <ele>276</ele>
        <time>2020-08-22T11:25:47.000Z</time>
      </trkpt>
      <trkpt lat="43.15330873243510723114013671875" lon="-1.5202447213232517242431640625">
        <ele>276.600006103515625</ele>
        <time>2020-08-22T11:25:51.000Z</time>
      </trkpt>
      <trkpt lat="43.15327889285981655120849609375" lon="-1.5203007124364376068115234375">
        <ele>277</ele>
        <time>2020-08-22T11:25:54.000Z</time>
      </trkpt>
      <trkpt lat="43.1532352231442928314208984375" lon="-1.52038981206715106964111328125">
        <ele>278</ele>
        <time>2020-08-22T11:25:59.000Z</time>
      </trkpt>
      <trkpt lat="43.15322457812726497650146484375" lon="-1.5204061567783355712890625">
        <ele>278.20001220703125</ele>
        <time>2020-08-22T11:26:00.000Z</time>
      </trkpt>
      <trkpt lat="43.1531477160751819610595703125" lon="-1.52051067911088466644287109375">
        <ele>279.20001220703125</ele>
        <time>2020-08-22T11:26:07.000Z</time>
      </trkpt>
      <trkpt lat="43.15313816070556640625" lon="-1.52052492834627628326416015625">
        <ele>279.20001220703125</ele>
        <time>2020-08-22T11:26:08.000Z</time>
      </trkpt>
      <trkpt lat="43.15307269804179668426513671875" lon="-1.52061394415795803070068359375">
        <ele>280.399993896484375</ele>
        <time>2020-08-22T11:26:14.000Z</time>
      </trkpt>
      <trkpt lat="43.15300606191158294677734375" lon="-1.52072072960436344146728515625">
        <ele>281.600006103515625</ele>
        <time>2020-08-22T11:26:20.000Z</time>
      </trkpt>
      <trkpt lat="43.1529839336872100830078125" lon="-1.52076113037765026092529296875">
        <ele>282</ele>
        <time>2020-08-22T11:26:22.000Z</time>
      </trkpt>
      <trkpt lat="43.1529542617499828338623046875" lon="-1.520820222795009613037109375">
        <ele>282.600006103515625</ele>
        <time>2020-08-22T11:26:25.000Z</time>
      </trkpt>
      <trkpt lat="43.1529053114354610443115234375" lon="-1.52088769711554050445556640625">
        <ele>283.20001220703125</ele>
        <time>2020-08-22T11:26:29.000Z</time>
      </trkpt>
      <trkpt lat="43.15285979770123958587646484375" lon="-1.52099330909550189971923828125">
        <ele>283.600006103515625</ele>
        <time>2020-08-22T11:26:34.000Z</time>
      </trkpt>
      <trkpt lat="43.15283347852528095245361328125" lon="-1.52105298824608325958251953125">
        <ele>284.399993896484375</ele>
        <time>2020-08-22T11:26:37.000Z</time>
      </trkpt>
      <trkpt lat="43.15281604416668415069580078125" lon="-1.52109137736260890960693359375">
        <ele>284.79998779296875</ele>
        <time>2020-08-22T11:26:39.000Z</time>
      </trkpt>
      <trkpt lat="43.15274630673229694366455078125" lon="-1.5211747772991657257080078125">
        <ele>285.79998779296875</ele>
        <time>2020-08-22T11:26:45.000Z</time>
      </trkpt>
      <trkpt lat="43.15270054154098033905029296875" lon="-1.5212559141218662261962890625">
        <ele>287</ele>
        <time>2020-08-22T11:26:50.000Z</time>
      </trkpt>
      <trkpt lat="43.15268377773463726043701171875" lon="-1.52129136957228183746337890625">
        <ele>287.399993896484375</ele>
        <time>2020-08-22T11:26:52.000Z</time>
      </trkpt>
      <trkpt lat="43.15262678079307079315185546875" lon="-1.52136613614857196807861328125">
        <ele>288</ele>
        <time>2020-08-22T11:26:57.000Z</time>
      </trkpt>
      <trkpt lat="43.1526126153767108917236328125" lon="-1.5214074589312076568603515625">
        <ele>288.600006103515625</ele>
        <time>2020-08-22T11:26:59.000Z</time>
      </trkpt>
      <trkpt lat="43.15259995870292186737060546875" lon="-1.52147040702402591705322265625">
        <ele>289.20001220703125</ele>
        <time>2020-08-22T11:27:02.000Z</time>
      </trkpt>
      <trkpt lat="43.15257866866886615753173828125" lon="-1.5215992368757724761962890625">
        <ele>290.20001220703125</ele>
        <time>2020-08-22T11:27:08.000Z</time>
      </trkpt>
      <trkpt lat="43.1525780819356441497802734375" lon="-1.5216237120330333709716796875">
        <ele>290.20001220703125</ele>
        <time>2020-08-22T11:27:09.000Z</time>
      </trkpt>
      <trkpt lat="43.15257363952696323394775390625" lon="-1.52182948775589466094970703125">
        <ele>290.20001220703125</ele>
        <time>2020-08-22T11:27:17.000Z</time>
      </trkpt>
      <trkpt lat="43.152592666447162628173828125" lon="-1.52201355434954166412353515625">
        <ele>290.600006103515625</ele>
        <time>2020-08-22T11:27:24.000Z</time>
      </trkpt>
      <trkpt lat="43.1526089273393154144287109375" lon="-1.52208463288843631744384765625">
        <ele>291</ele>
        <time>2020-08-22T11:27:27.000Z</time>
      </trkpt>
      <trkpt lat="43.15262250602245330810546875" lon="-1.522182114422321319580078125">
        <ele>291.79998779296875</ele>
        <time>2020-08-22T11:27:31.000Z</time>
      </trkpt>
      <trkpt lat="43.15262627787888050079345703125" lon="-1.5222302265465259552001953125">
        <ele>292.399993896484375</ele>
        <time>2020-08-22T11:27:33.000Z</time>
      </trkpt>
      <trkpt lat="43.1526079215109348297119140625" lon="-1.5223680250346660614013671875">
        <ele>293.600006103515625</ele>
        <time>2020-08-22T11:27:39.000Z</time>
      </trkpt>
      <trkpt lat="43.1526102684438228607177734375" lon="-1.52245930396020412445068359375">
        <ele>294.79998779296875</ele>
        <time>2020-08-22T11:27:43.000Z</time>
      </trkpt>
      <trkpt lat="43.15260683186352252960205078125" lon="-1.52254714630544185638427734375">
        <ele>295.600006103515625</ele>
        <time>2020-08-22T11:27:47.000Z</time>
      </trkpt>
      <trkpt lat="43.15260373055934906005859375" lon="-1.522569023072719573974609375">
        <ele>296</ele>
        <time>2020-08-22T11:27:48.000Z</time>
      </trkpt>
      <trkpt lat="43.1525968573987483978271484375" lon="-1.522677652537822723388671875">
        <ele>297.20001220703125</ele>
        <time>2020-08-22T11:27:53.000Z</time>
      </trkpt>
      <trkpt lat="43.15259476192295551300048828125" lon="-1.52278603054583072662353515625">
        <ele>298.20001220703125</ele>
        <time>2020-08-22T11:27:58.000Z</time>
      </trkpt>
      <trkpt lat="43.15259836614131927490234375" lon="-1.5228055603802204132080078125">
        <ele>298.399993896484375</ele>
        <time>2020-08-22T11:27:59.000Z</time>
      </trkpt>
      <trkpt lat="43.15259643830358982086181640625" lon="-1.5229113399982452392578125">
        <ele>299.20001220703125</ele>
        <time>2020-08-22T11:28:04.000Z</time>
      </trkpt>
      <trkpt lat="43.15259409137070178985595703125" lon="-1.52293288148939609527587890625">
        <ele>299.399993896484375</ele>
        <time>2020-08-22T11:28:05.000Z</time>
      </trkpt>
      <trkpt lat="43.15258763730525970458984375" lon="-1.52302055619657039642333984375">
        <ele>300.399993896484375</ele>
        <time>2020-08-22T11:28:09.000Z</time>
      </trkpt>
      <trkpt lat="43.1525869667530059814453125" lon="-1.52310244739055633544921875">
        <ele>300.79998779296875</ele>
        <time>2020-08-22T11:28:13.000Z</time>
      </trkpt>
      <trkpt lat="43.152585290372371673583984375" lon="-1.52325625531375408172607421875">
        <ele>301.399993896484375</ele>
        <time>2020-08-22T11:28:20.000Z</time>
      </trkpt>
      <trkpt lat="43.152585960924625396728515625" lon="-1.5232813172042369842529296875">
        <ele>301.600006103515625</ele>
        <time>2020-08-22T11:28:21.000Z</time>
      </trkpt>
      <trkpt lat="43.15258168615400791168212890625" lon="-1.5234164334833621978759765625">
        <ele>302.600006103515625</ele>
        <time>2020-08-22T11:28:27.000Z</time>
      </trkpt>
      <trkpt lat="43.15258118323981761932373046875" lon="-1.52343931607902050018310546875">
        <ele>302.79998779296875</ele>
        <time>2020-08-22T11:28:28.000Z</time>
      </trkpt>
      <trkpt lat="43.1525358371436595916748046875" lon="-1.52363947592675685882568359375">
        <ele>303.600006103515625</ele>
        <time>2020-08-22T11:28:37.000Z</time>
      </trkpt>
      <trkpt lat="43.1525056622922420501708984375" lon="-1.523741818964481353759765625">
        <ele>304.79998779296875</ele>
        <time>2020-08-22T11:28:42.000Z</time>
      </trkpt>
      <trkpt lat="43.1524922512471675872802734375" lon="-1.5237835608422756195068359375">
        <ele>305.399993896484375</ele>
        <time>2020-08-22T11:28:44.000Z</time>
      </trkpt>
      <trkpt lat="43.15247942693531513214111328125" lon="-1.5238258056342601776123046875">
        <ele>305.79998779296875</ele>
        <time>2020-08-22T11:28:46.000Z</time>
      </trkpt>
      <trkpt lat="43.15245009027421474456787109375" lon="-1.5239029191434383392333984375">
        <ele>307</ele>
        <time>2020-08-22T11:28:50.000Z</time>
      </trkpt>
      <trkpt lat="43.152441792190074920654296875" lon="-1.5239424817264080047607421875">
        <ele>307.600006103515625</ele>
        <time>2020-08-22T11:28:52.000Z</time>
      </trkpt>
      <trkpt lat="43.152432404458522796630859375" lon="-1.52398179285228252410888671875">
        <ele>308.20001220703125</ele>
        <time>2020-08-22T11:28:54.000Z</time>
      </trkpt>
      <trkpt lat="43.152408599853515625" lon="-1.52406209148466587066650390625">
        <ele>309.600006103515625</ele>
        <time>2020-08-22T11:28:58.000Z</time>
      </trkpt>
      <trkpt lat="43.15240164287388324737548828125" lon="-1.52410567738115787506103515625">
        <ele>310</ele>
        <time>2020-08-22T11:29:00.000Z</time>
      </trkpt>
      <trkpt lat="43.15238320268690586090087890625" lon="-1.52418664656579494476318359375">
        <ele>310.79998779296875</ele>
        <time>2020-08-22T11:29:04.000Z</time>
      </trkpt>
      <trkpt lat="43.15237842500209808349609375" lon="-1.5242671966552734375">
        <ele>311.600006103515625</ele>
        <time>2020-08-22T11:29:08.000Z</time>
      </trkpt>
      <trkpt lat="43.1523772515356540679931640625" lon="-1.52428823523223400115966796875">
        <ele>312</ele>
        <time>2020-08-22T11:29:09.000Z</time>
      </trkpt>
      <trkpt lat="43.15235353074967861175537109375" lon="-1.524384208023548126220703125">
        <ele>313</ele>
        <time>2020-08-22T11:29:14.000Z</time>
      </trkpt>
      <trkpt lat="43.15235537476837635040283203125" lon="-1.52440306730568408966064453125">
        <ele>313.600006103515625</ele>
        <time>2020-08-22T11:29:15.000Z</time>
      </trkpt>
      <trkpt lat="43.15236258320510387420654296875" lon="-1.5244386903941631317138671875">
        <ele>314.20001220703125</ele>
        <time>2020-08-22T11:29:17.000Z</time>
      </trkpt>
      <trkpt lat="43.1523681990802288055419921875" lon="-1.52457095682621002197265625">
        <ele>315.399993896484375</ele>
        <time>2020-08-22T11:29:24.000Z</time>
      </trkpt>
      <trkpt lat="43.15239124931395053863525390625" lon="-1.5246884711086750030517578125">
        <ele>316.399993896484375</ele>
        <time>2020-08-22T11:29:30.000Z</time>
      </trkpt>
      <trkpt lat="43.152405582368373870849609375" lon="-1.52472510002553462982177734375">
        <ele>316.79998779296875</ele>
        <time>2020-08-22T11:29:33.000Z</time>
      </trkpt>
      <trkpt lat="43.15240331925451755523681640625" lon="-1.524724848568439483642578125">
        <ele>317</ele>
        <time>2020-08-22T11:29:35.000Z</time>
      </trkpt>
      <trkpt lat="43.1524013914167881011962890625" lon="-1.524720489978790283203125">
        <ele>316.600006103515625</ele>
        <time>2020-08-22T11:32:15.000Z</time>
      </trkpt>
      <trkpt lat="43.15240046940743923187255859375" lon="-1.524731218814849853515625">
        <ele>316.600006103515625</ele>
        <time>2020-08-22T11:32:17.000Z</time>
      </trkpt>
      <trkpt lat="43.15240281634032726287841796875" lon="-1.52474823407828807830810546875">
        <ele>316.79998779296875</ele>
        <time>2020-08-22T11:32:18.000Z</time>
      </trkpt>
      <trkpt lat="43.1524469889700412750244140625" lon="-1.52490757405757904052734375">
        <ele>316.79998779296875</ele>
        <time>2020-08-22T11:32:26.000Z</time>
      </trkpt>
      <trkpt lat="43.1524563767015933990478515625" lon="-1.52495174668729305267333984375">
        <ele>317.20001220703125</ele>
        <time>2020-08-22T11:32:28.000Z</time>
      </trkpt>
      <trkpt lat="43.15249501727521419525146484375" lon="-1.52512156404554843902587890625">
        <ele>318.600006103515625</ele>
        <time>2020-08-22T11:32:36.000Z</time>
      </trkpt>
      <trkpt lat="43.15253592096269130706787109375" lon="-1.525217033922672271728515625">
        <ele>319.600006103515625</ele>
        <time>2020-08-22T11:32:41.000Z</time>
      </trkpt>
      <trkpt lat="43.15254782326519489288330078125" lon="-1.5252581052482128143310546875">
        <ele>320.20001220703125</ele>
        <time>2020-08-22T11:32:43.000Z</time>
      </trkpt>
      <trkpt lat="43.15255234949290752410888671875" lon="-1.5253472886979579925537109375">
        <ele>320.600006103515625</ele>
        <time>2020-08-22T11:32:47.000Z</time>
      </trkpt>
      <trkpt lat="43.15258369781076908111572265625" lon="-1.52544862590730190277099609375">
        <ele>321.79998779296875</ele>
        <time>2020-08-22T11:32:52.000Z</time>
      </trkpt>
      <trkpt lat="43.152596689760684967041015625" lon="-1.5254609473049640655517578125">
        <ele>322</ele>
        <time>2020-08-22T11:32:53.000Z</time>
      </trkpt>
      <trkpt lat="43.15265863202512264251708984375" lon="-1.52545918710529804229736328125">
        <ele>322.600006103515625</ele>
        <time>2020-08-22T11:32:57.000Z</time>
      </trkpt>
      <trkpt lat="43.15267321653664112091064453125" lon="-1.52544862590730190277099609375">
        <ele>322.79998779296875</ele>
        <time>2020-08-22T11:32:58.000Z</time>
      </trkpt>
      <trkpt lat="43.1526991166174411773681640625" lon="-1.52536832727491855621337890625">
        <ele>323.79998779296875</ele>
        <time>2020-08-22T11:33:02.000Z</time>
      </trkpt>
      <trkpt lat="43.15270020626485347747802734375" lon="-1.525346450507640838623046875">
        <ele>324</ele>
        <time>2020-08-22T11:33:03.000Z</time>
      </trkpt>
      <trkpt lat="43.15270540304481983184814453125" lon="-1.52523874305188655853271484375">
        <ele>325</ele>
        <time>2020-08-22T11:33:08.000Z</time>
      </trkpt>
      <trkpt lat="43.15270573832094669342041015625" lon="-1.52519834227859973907470703125">
        <ele>325.600006103515625</ele>
        <time>2020-08-22T11:33:10.000Z</time>
      </trkpt>
      <trkpt lat="43.15270389430224895477294921875" lon="-1.52513748966157436370849609375">
        <ele>326</ele>
        <time>2020-08-22T11:33:13.000Z</time>
      </trkpt>
      <trkpt lat="43.152679502964019775390625" lon="-1.525061465799808502197265625">
        <ele>327.399993896484375</ele>
        <time>2020-08-22T11:33:17.000Z</time>
      </trkpt>
      <trkpt lat="43.1526806764304637908935546875" lon="-1.52503900229930877685546875">
        <ele>327.600006103515625</ele>
        <time>2020-08-22T11:33:18.000Z</time>
      </trkpt>
      <trkpt lat="43.1526915729045867919921875" lon="-1.5249382518231868743896484375">
        <ele>328.600006103515625</ele>
        <time>2020-08-22T11:33:23.000Z</time>
      </trkpt>
      <trkpt lat="43.15269735641777515411376953125" lon="-1.52487949468195438385009765625">
        <ele>329.600006103515625</ele>
        <time>2020-08-22T11:33:26.000Z</time>
      </trkpt>
      <trkpt lat="43.1527011282742023468017578125" lon="-1.5248618088662624359130859375">
        <ele>329.79998779296875</ele>
        <time>2020-08-22T11:33:27.000Z</time>
      </trkpt>
      <trkpt lat="43.15273155458271503448486328125" lon="-1.524750329554080963134765625">
        <ele>330.600006103515625</ele>
        <time>2020-08-22T11:33:33.000Z</time>
      </trkpt>
      <trkpt lat="43.152739517390727996826171875" lon="-1.5247109346091747283935546875">
        <ele>330.79998779296875</ele>
        <time>2020-08-22T11:33:35.000Z</time>
      </trkpt>
      <trkpt lat="43.15278419293463230133056640625" lon="-1.5246043168008327484130859375">
        <ele>331.600006103515625</ele>
        <time>2020-08-22T11:33:41.000Z</time>
      </trkpt>
      <trkpt lat="43.15282962284982204437255859375" lon="-1.52449585497379302978515625">
        <ele>332.79998779296875</ele>
        <time>2020-08-22T11:33:47.000Z</time>
      </trkpt>
      <trkpt lat="43.1528530083596706390380859375" lon="-1.5244658477604389190673828125">
        <ele>333.20001220703125</ele>
        <time>2020-08-22T11:33:49.000Z</time>
      </trkpt>
      <trkpt lat="43.152904473245143890380859375" lon="-1.52440725825726985931396484375">
        <ele>333.79998779296875</ele>
        <time>2020-08-22T11:33:53.000Z</time>
      </trkpt>
      <trkpt lat="43.152972869575023651123046875" lon="-1.5243464894592761993408203125">
        <ele>334.600006103515625</ele>
        <time>2020-08-22T11:33:58.000Z</time>
      </trkpt>
      <trkpt lat="43.15304093062877655029296875" lon="-1.5243065916001796722412109375">
        <ele>334.79998779296875</ele>
        <time>2020-08-22T11:34:02.000Z</time>
      </trkpt>
      <trkpt lat="43.153118379414081573486328125" lon="-1.52429577894508838653564453125">
        <ele>336</ele>
        <time>2020-08-22T11:34:06.000Z</time>
      </trkpt>
      <trkpt lat="43.15326154232025146484375" lon="-1.52420726604759693145751953125">
        <ele>336.600006103515625</ele>
        <time>2020-08-22T11:34:14.000Z</time>
      </trkpt>
      <trkpt lat="43.1533274240791797637939453125" lon="-1.5241245366632938385009765625">
        <ele>337</ele>
        <time>2020-08-22T11:34:19.000Z</time>
      </trkpt>
      <trkpt lat="43.1533433496952056884765625" lon="-1.524085812270641326904296875">
        <ele>337.399993896484375</ele>
        <time>2020-08-22T11:34:21.000Z</time>
      </trkpt>
      <trkpt lat="43.15338048152625560760498046875" lon="-1.52397818863391876220703125">
        <ele>338.20001220703125</ele>
        <time>2020-08-22T11:34:26.000Z</time>
      </trkpt>
      <trkpt lat="43.15338869579136371612548828125" lon="-1.523952372372150421142578125">
        <ele>338.399993896484375</ele>
        <time>2020-08-22T11:34:27.000Z</time>
      </trkpt>
      <trkpt lat="43.15343664027750492095947265625" lon="-1.5237312577664852142333984375">
        <ele>339.20001220703125</ele>
        <time>2020-08-22T11:34:35.000Z</time>
      </trkpt>
      <trkpt lat="43.1534585170447826385498046875" lon="-1.52353872545063495635986328125">
        <ele>340.399993896484375</ele>
        <time>2020-08-22T11:34:42.000Z</time>
      </trkpt>
      <trkpt lat="43.1534605287015438079833984375" lon="-1.5235106460750102996826171875">
        <ele>340.600006103515625</ele>
        <time>2020-08-22T11:34:43.000Z</time>
      </trkpt>
      <trkpt lat="43.1534635461866855621337890625" lon="-1.5233297646045684814453125">
        <ele>341.399993896484375</ele>
        <time>2020-08-22T11:34:50.000Z</time>
      </trkpt>
      <trkpt lat="43.15346748568117618560791015625" lon="-1.5233041159808635711669921875">
        <ele>341.20001220703125</ele>
        <time>2020-08-22T11:34:51.000Z</time>
      </trkpt>
      <trkpt lat="43.1535135023295879364013671875" lon="-1.52316547930240631103515625">
        <ele>342.399993896484375</ele>
        <time>2020-08-22T11:34:57.000Z</time>
      </trkpt>
      <trkpt lat="43.15355935133993625640869140625" lon="-1.52312633581459522247314453125">
        <ele>343</ele>
        <time>2020-08-22T11:35:00.000Z</time>
      </trkpt>
      <trkpt lat="43.15359723754227161407470703125" lon="-1.52313555590808391571044921875">
        <ele>343.20001220703125</ele>
        <time>2020-08-22T11:35:02.000Z</time>
      </trkpt>
      <trkpt lat="43.153623305261135101318359375" lon="-1.52316204272210597991943359375">
        <ele>343.600006103515625</ele>
        <time>2020-08-22T11:35:04.000Z</time>
      </trkpt>
      <trkpt lat="43.15363847650587558746337890625" lon="-1.52320613153278827667236328125">
        <ele>343.79998779296875</ele>
        <time>2020-08-22T11:35:06.000Z</time>
      </trkpt>
      <trkpt lat="43.15364518202841281890869140625" lon="-1.5232548303902149200439453125">
        <ele>344.20001220703125</ele>
        <time>2020-08-22T11:35:08.000Z</time>
      </trkpt>
      <trkpt lat="43.15364786423742771148681640625" lon="-1.523278467357158660888671875">
        <ele>344.600006103515625</ele>
        <time>2020-08-22T11:35:09.000Z</time>
      </trkpt>
      <trkpt lat="43.15364786423742771148681640625" lon="-1.5233728475868701934814453125">
        <ele>345.399993896484375</ele>
        <time>2020-08-22T11:35:13.000Z</time>
      </trkpt>
      <trkpt lat="43.1536464393138885498046875" lon="-1.52339489199221134185791015625">
        <ele>345.600006103515625</ele>
        <time>2020-08-22T11:35:14.000Z</time>
      </trkpt>
      <trkpt lat="43.15363495610654354095458984375" lon="-1.52350402437150478363037109375">
        <ele>346.600006103515625</ele>
        <time>2020-08-22T11:35:19.000Z</time>
      </trkpt>
      <trkpt lat="43.15362431108951568603515625" lon="-1.5235629491508007049560546875">
        <ele>347.20001220703125</ele>
        <time>2020-08-22T11:35:22.000Z</time>
      </trkpt>
      <trkpt lat="43.153625987470149993896484375" lon="-1.52358180843293666839599609375">
        <ele>347.20001220703125</ele>
        <time>2020-08-22T11:35:23.000Z</time>
      </trkpt>
      <trkpt lat="43.153629340231418609619140625" lon="-1.523621119558811187744140625">
        <ele>347.79998779296875</ele>
        <time>2020-08-22T11:35:25.000Z</time>
      </trkpt>
      <trkpt lat="43.1536571681499481201171875" lon="-1.52371642179787158966064453125">
        <ele>349</ele>
        <time>2020-08-22T11:35:30.000Z</time>
      </trkpt>
      <trkpt lat="43.15366311930119991302490234375" lon="-1.52373611927032470703125">
        <ele>349.399993896484375</ele>
        <time>2020-08-22T11:35:31.000Z</time>
      </trkpt>
      <trkpt lat="43.15367929637432098388671875" lon="-1.52379512786865234375">
        <ele>350</ele>
        <time>2020-08-22T11:35:34.000Z</time>
      </trkpt>
      <trkpt lat="43.15370704047381877899169921875" lon="-1.52389327995479106903076171875">
        <ele>351</ele>
        <time>2020-08-22T11:35:39.000Z</time>
      </trkpt>
      <trkpt lat="43.15371123142540454864501953125" lon="-1.52391289360821247100830078125">
        <ele>351.600006103515625</ele>
        <time>2020-08-22T11:35:40.000Z</time>
      </trkpt>
      <trkpt lat="43.15372598357498645782470703125" lon="-1.52396704070270061492919921875">
        <ele>352.20001220703125</ele>
        <time>2020-08-22T11:35:43.000Z</time>
      </trkpt>
      <trkpt lat="43.1537435017526149749755859375" lon="-1.52404197491705417633056640625">
        <ele>353.20001220703125</ele>
        <time>2020-08-22T11:35:47.000Z</time>
      </trkpt>
      <trkpt lat="43.15375263802707195281982421875" lon="-1.52407944202423095703125">
        <ele>353.79998779296875</ele>
        <time>2020-08-22T11:35:49.000Z</time>
      </trkpt>
      <trkpt lat="43.15377049148082733154296875" lon="-1.5241319127380847930908203125">
        <ele>354.20001220703125</ele>
        <time>2020-08-22T11:35:52.000Z</time>
      </trkpt>
      <trkpt lat="43.153786920011043548583984375" lon="-1.524207182228565216064453125">
        <ele>355</ele>
        <time>2020-08-22T11:35:56.000Z</time>
      </trkpt>
      <trkpt lat="43.15378834493458271026611328125" lon="-1.52422771789133548736572265625">
        <ele>355.399993896484375</ele>
        <time>2020-08-22T11:35:57.000Z</time>
      </trkpt>
      <trkpt lat="43.15379002131521701812744140625" lon="-1.52433500625193119049072265625">
        <ele>356.600006103515625</ele>
        <time>2020-08-22T11:36:02.000Z</time>
      </trkpt>
      <trkpt lat="43.15377577207982540130615234375" lon="-1.52439468540251255035400390625">
        <ele>357.20001220703125</ele>
        <time>2020-08-22T11:36:05.000Z</time>
      </trkpt>
      <trkpt lat="43.15376051701605319976806640625" lon="-1.52442955411970615386962890625">
        <ele>357.600006103515625</ele>
        <time>2020-08-22T11:36:07.000Z</time>
      </trkpt>
      <trkpt lat="43.15374475903809070587158203125" lon="-1.524486802518367767333984375">
        <ele>358</ele>
        <time>2020-08-22T11:36:10.000Z</time>
      </trkpt>
      <trkpt lat="43.15370519645512104034423828125" lon="-1.52455293573439121246337890625">
        <ele>358.79998779296875</ele>
        <time>2020-08-22T11:36:14.000Z</time>
      </trkpt>
      <trkpt lat="43.15369530580937862396240234375" lon="-1.52456919662654399871826171875">
        <ele>359</ele>
        <time>2020-08-22T11:36:15.000Z</time>
      </trkpt>
      <trkpt lat="43.15367669798433780670166015625" lon="-1.52460255660116672515869140625">
        <ele>359.20001220703125</ele>
        <time>2020-08-22T11:36:17.000Z</time>
      </trkpt>
      <trkpt lat="43.153656832873821258544921875" lon="-1.52466022409498691558837890625">
        <ele>359.79998779296875</ele>
        <time>2020-08-22T11:36:20.000Z</time>
      </trkpt>
      <trkpt lat="43.1536315195262432098388671875" lon="-1.524731218814849853515625">
        <ele>361</ele>
        <time>2020-08-22T11:36:24.000Z</time>
      </trkpt>
      <trkpt lat="43.1536016799509525299072265625" lon="-1.52484496124088764190673828125">
        <ele>362.20001220703125</ele>
        <time>2020-08-22T11:36:30.000Z</time>
      </trkpt>
      <trkpt lat="43.15358533523976802825927734375" lon="-1.52492190711200237274169921875">
        <ele>362.79998779296875</ele>
        <time>2020-08-22T11:36:34.000Z</time>
      </trkpt>
      <trkpt lat="43.15358273684978485107421875" lon="-1.524983346462249755859375">
        <ele>363.399993896484375</ele>
        <time>2020-08-22T11:36:37.000Z</time>
      </trkpt>
      <trkpt lat="43.1535825692117214202880859375" lon="-1.5250629745423793792724609375">
        <ele>364.399993896484375</ele>
        <time>2020-08-22T11:36:41.000Z</time>
      </trkpt>
      <trkpt lat="43.153584413230419158935546875" lon="-1.525102369487285614013671875">
        <ele>365</ele>
        <time>2020-08-22T11:36:43.000Z</time>
      </trkpt>
      <trkpt lat="43.15358986146748065948486328125" lon="-1.52516179718077182769775390625">
        <ele>365.600006103515625</ele>
        <time>2020-08-22T11:36:46.000Z</time>
      </trkpt>
      <trkpt lat="43.15359841100871562957763671875" lon="-1.52521812357008457183837890625">
        <ele>366.600006103515625</ele>
        <time>2020-08-22T11:36:49.000Z</time>
      </trkpt>
      <trkpt lat="43.15361048094928264617919921875" lon="-1.52527126483619213104248046875">
        <ele>367.20001220703125</ele>
        <time>2020-08-22T11:36:52.000Z</time>
      </trkpt>
      <trkpt lat="43.15361735410988330841064453125" lon="-1.52530596591532230377197265625">
        <ele>367.79998779296875</ele>
        <time>2020-08-22T11:36:54.000Z</time>
      </trkpt>
      <trkpt lat="43.15363914705812931060791015625" lon="-1.525397412478923797607421875">
        <ele>368.600006103515625</ele>
        <time>2020-08-22T11:36:59.000Z</time>
      </trkpt>
      <trkpt lat="43.15365088172256946563720703125" lon="-1.52544912882149219512939453125">
        <ele>369.600006103515625</ele>
        <time>2020-08-22T11:37:02.000Z</time>
      </trkpt>
      <trkpt lat="43.15365649759769439697265625" lon="-1.52546589262783527374267578125">
        <ele>369.79998779296875</ele>
        <time>2020-08-22T11:37:03.000Z</time>
      </trkpt>
      <trkpt lat="43.15368273295462131500244140625" lon="-1.52556966058909893035888671875">
        <ele>371.20001220703125</ele>
        <time>2020-08-22T11:37:09.000Z</time>
      </trkpt>
      <trkpt lat="43.15369404852390289306640625" lon="-1.52562347240746021270751953125">
        <ele>372</ele>
        <time>2020-08-22T11:37:12.000Z</time>
      </trkpt>
      <trkpt lat="43.15369664691388607025146484375" lon="-1.52564208023250102996826171875">
        <ele>372.20001220703125</ele>
        <time>2020-08-22T11:37:13.000Z</time>
      </trkpt>
      <trkpt lat="43.15372380428016185760498046875" lon="-1.5257264859974384307861328125">
        <ele>373.20001220703125</ele>
        <time>2020-08-22T11:37:18.000Z</time>
      </trkpt>
      <trkpt lat="43.15372900106012821197509765625" lon="-1.525742746889591217041015625">
        <ele>373.399993896484375</ele>
        <time>2020-08-22T11:37:19.000Z</time>
      </trkpt>
      <trkpt lat="43.15373537130653858184814453125" lon="-1.52581659145653247833251953125">
        <ele>374.399993896484375</ele>
        <time>2020-08-22T11:37:23.000Z</time>
      </trkpt>
      <trkpt lat="43.1537475250661373138427734375" lon="-1.5258689783513545989990234375">
        <ele>375</ele>
        <time>2020-08-22T11:37:26.000Z</time>
      </trkpt>
      <trkpt lat="43.15376110374927520751953125" lon="-1.52592170052230358123779296875">
        <ele>375.399993896484375</ele>
        <time>2020-08-22T11:37:29.000Z</time>
      </trkpt>
      <trkpt lat="43.1537698209285736083984375" lon="-1.52601289562880992889404296875">
        <ele>376.600006103515625</ele>
        <time>2020-08-22T11:37:34.000Z</time>
      </trkpt>
      <trkpt lat="43.15376915037631988525390625" lon="-1.52603049762547016143798828125">
        <ele>376.79998779296875</ele>
        <time>2020-08-22T11:37:35.000Z</time>
      </trkpt>
      <trkpt lat="43.1537673063576221466064453125" lon="-1.5260966308414936065673828125">
        <ele>377.79998779296875</ele>
        <time>2020-08-22T11:37:39.000Z</time>
      </trkpt>
      <trkpt lat="43.15377024002373218536376953125" lon="-1.52611247263848781585693359375">
        <ele>378</ele>
        <time>2020-08-22T11:37:40.000Z</time>
      </trkpt>
      <trkpt lat="43.15377426333725452423095703125" lon="-1.52616460807621479034423828125">
        <ele>378.399993896484375</ele>
        <time>2020-08-22T11:37:43.000Z</time>
      </trkpt>
      <trkpt lat="43.15377811901271343231201171875" lon="-1.52619771659374237060546875">
        <ele>379</ele>
        <time>2020-08-22T11:37:45.000Z</time>
      </trkpt>
      <trkpt lat="43.1537867523729801177978515625" lon="-1.52629100717604160308837890625">
        <ele>380</ele>
        <time>2020-08-22T11:37:50.000Z</time>
      </trkpt>
      <trkpt lat="43.15379018895328044891357421875" lon="-1.52633006684482097625732421875">
        <ele>380.399993896484375</ele>
        <time>2020-08-22T11:37:52.000Z</time>
      </trkpt>
      <trkpt lat="43.15379270352423191070556640625" lon="-1.5263671986758708953857421875">
        <ele>380.79998779296875</ele>
        <time>2020-08-22T11:37:54.000Z</time>
      </trkpt>
      <trkpt lat="43.1537924520671367645263671875" lon="-1.526399888098239898681640625">
        <ele>381</ele>
        <time>2020-08-22T11:37:56.000Z</time>
      </trkpt>
      <trkpt lat="43.15379236824810504913330078125" lon="-1.5264035761356353759765625">
        <ele>381</ele>
        <time>2020-08-22T11:37:57.000Z</time>
      </trkpt>
      <trkpt lat="43.1537914462387561798095703125" lon="-1.52640365995466709136962890625">
        <ele>381.399993896484375</ele>
        <time>2020-08-22T11:37:59.000Z</time>
      </trkpt>
      <trkpt lat="43.15381483174860477447509765625" lon="-1.52642059139907360076904296875">
        <ele>382.20001220703125</ele>
        <time>2020-08-22T11:40:09.000Z</time>
      </trkpt>
      <trkpt lat="43.15381617285311222076416015625" lon="-1.526423357427120208740234375">
        <ele>382.20001220703125</ele>
        <time>2020-08-22T11:40:11.000Z</time>
      </trkpt>
      <trkpt lat="43.15383310429751873016357421875" lon="-1.52646836824715137481689453125">
        <ele>382.399993896484375</ele>
        <time>2020-08-22T11:40:14.000Z</time>
      </trkpt>
      <trkpt lat="43.15389077179133892059326171875" lon="-1.526630222797393798828125">
        <ele>383.20001220703125</ele>
        <time>2020-08-22T11:40:23.000Z</time>
      </trkpt>
      <trkpt lat="43.15389630384743213653564453125" lon="-1.52664841152727603912353515625">
        <ele>383.399993896484375</ele>
        <time>2020-08-22T11:40:24.000Z</time>
      </trkpt>
      <trkpt lat="43.15393603406846523284912109375" lon="-1.52673793025314807891845703125">
        <ele>384.399993896484375</ele>
        <time>2020-08-22T11:40:29.000Z</time>
      </trkpt>
      <trkpt lat="43.1539657898247241973876953125" lon="-1.5267849527299404144287109375">
        <ele>385</ele>
        <time>2020-08-22T11:40:32.000Z</time>
      </trkpt>
      <trkpt lat="43.15400409512221813201904296875" lon="-1.52687639929354190826416015625">
        <ele>385.600006103515625</ele>
        <time>2020-08-22T11:40:37.000Z</time>
      </trkpt>
      <trkpt lat="43.1540422327816486358642578125" lon="-1.52694026939570903778076171875">
        <ele>386.600006103515625</ele>
        <time>2020-08-22T11:40:41.000Z</time>
      </trkpt>
      <trkpt lat="43.154051788151264190673828125" lon="-1.5269552730023860931396484375">
        <ele>386.79998779296875</ele>
        <time>2020-08-22T11:40:42.000Z</time>
      </trkpt>
      <trkpt lat="43.154085315763950347900390625" lon="-1.52701981365680694580078125">
        <ele>387.399993896484375</ele>
        <time>2020-08-22T11:40:46.000Z</time>
      </trkpt>
      <trkpt lat="43.1541237048804759979248046875" lon="-1.527076475322246551513671875">
        <ele>388.399993896484375</ele>
        <time>2020-08-22T11:40:50.000Z</time>
      </trkpt>
      <trkpt lat="43.15413434989750385284423828125" lon="-1.52708862908184528350830078125">
        <ele>388.79998779296875</ele>
        <time>2020-08-22T11:40:51.000Z</time>
      </trkpt>
      <trkpt lat="43.15416201017796993255615234375" lon="-1.5271299518644809722900390625">
        <ele>389.399993896484375</ele>
        <time>2020-08-22T11:40:54.000Z</time>
      </trkpt>
      <trkpt lat="43.1541998125612735748291015625" lon="-1.52717865072190761566162109375">
        <ele>390.600006103515625</ele>
        <time>2020-08-22T11:40:58.000Z</time>
      </trkpt>
      <trkpt lat="43.15421096049249172210693359375" lon="-1.52718619443476200103759765625">
        <ele>390.79998779296875</ele>
        <time>2020-08-22T11:40:59.000Z</time>
      </trkpt>
      <trkpt lat="43.15424063242971897125244140625" lon="-1.5272131003439426422119140625">
        <ele>391.79998779296875</ele>
        <time>2020-08-22T11:41:02.000Z</time>
      </trkpt>
      <trkpt lat="43.15427700988948345184326171875" lon="-1.52725316584110260009765625">
        <ele>393</ele>
        <time>2020-08-22T11:41:06.000Z</time>
      </trkpt>
      <trkpt lat="43.154325373470783233642578125" lon="-1.52731058187782764434814453125">
        <ele>394.20001220703125</ele>
        <time>2020-08-22T11:41:11.000Z</time>
      </trkpt>
      <trkpt lat="43.154360242187976837158203125" lon="-1.52735450305044651031494140625">
        <ele>395.399993896484375</ele>
        <time>2020-08-22T11:41:15.000Z</time>
      </trkpt>
      <trkpt lat="43.15441916696727275848388671875" lon="-1.52738417498767375946044921875">
        <ele>396.399993896484375</ele>
        <time>2020-08-22T11:41:20.000Z</time>
      </trkpt>
      <trkpt lat="43.15444364212453365325927734375" lon="-1.52737562544643878936767578125">
        <ele>397</ele>
        <time>2020-08-22T11:41:22.000Z</time>
      </trkpt>
      <trkpt lat="43.15447599627077579498291015625" lon="-1.52734578587114810943603515625">
        <ele>397.600006103515625</ele>
        <time>2020-08-22T11:41:25.000Z</time>
      </trkpt>
      <trkpt lat="43.1544871442019939422607421875" lon="-1.52728878892958164215087890625">
        <ele>398</ele>
        <time>2020-08-22T11:41:28.000Z</time>
      </trkpt>
      <trkpt lat="43.15448488108813762664794921875" lon="-1.5272484719753265380859375">
        <ele>398.20001220703125</ele>
        <time>2020-08-22T11:41:30.000Z</time>
      </trkpt>
      <trkpt lat="43.154480941593647003173828125" lon="-1.52721016667783260345458984375">
        <ele>398.600006103515625</ele>
        <time>2020-08-22T11:41:32.000Z</time>
      </trkpt>
      <trkpt lat="43.154470212757587432861328125" lon="-1.5271356515586376190185546875">
        <ele>399.399993896484375</ele>
        <time>2020-08-22T11:41:36.000Z</time>
      </trkpt>
      <trkpt lat="43.1544687040150165557861328125" lon="-1.527118384838104248046875">
        <ele>399.600006103515625</ele>
        <time>2020-08-22T11:41:37.000Z</time>
      </trkpt>
      <trkpt lat="43.1544586457312107086181640625" lon="-1.52701118029654026031494140625">
        <ele>400.79998779296875</ele>
        <time>2020-08-22T11:41:43.000Z</time>
      </trkpt>
      <trkpt lat="43.15444984473288059234619140625" lon="-1.5269777365028858184814453125">
        <ele>401.399993896484375</ele>
        <time>2020-08-22T11:41:45.000Z</time>
      </trkpt>
      <trkpt lat="43.15444615669548511505126953125" lon="-1.526924930512905120849609375">
        <ele>402</ele>
        <time>2020-08-22T11:41:48.000Z</time>
      </trkpt>
      <trkpt lat="43.15444263629615306854248046875" lon="-1.526857204735279083251953125">
        <ele>403</ele>
        <time>2020-08-22T11:41:52.000Z</time>
      </trkpt>
      <trkpt lat="43.15443844534456729888916015625" lon="-1.52684018947184085845947265625">
        <ele>403.20001220703125</ele>
        <time>2020-08-22T11:41:53.000Z</time>
      </trkpt>
      <trkpt lat="43.15443299710750579833984375" lon="-1.52677145786583423614501953125">
        <ele>404.20001220703125</ele>
        <time>2020-08-22T11:41:57.000Z</time>
      </trkpt>
      <trkpt lat="43.15443375147879123687744140625" lon="-1.52669794857501983642578125">
        <ele>405</ele>
        <time>2020-08-22T11:42:01.000Z</time>
      </trkpt>
      <trkpt lat="43.154432661831378936767578125" lon="-1.5266810171306133270263671875">
        <ele>405.20001220703125</ele>
        <time>2020-08-22T11:42:02.000Z</time>
      </trkpt>
      <trkpt lat="43.15444313921034336090087890625" lon="-1.52657230384647846221923828125">
        <ele>406.20001220703125</ele>
        <time>2020-08-22T11:42:08.000Z</time>
      </trkpt>
      <trkpt lat="43.154451437294483184814453125" lon="-1.52646149508655071258544921875">
        <ele>407.20001220703125</ele>
        <time>2020-08-22T11:42:14.000Z</time>
      </trkpt>
      <trkpt lat="43.15445956774055957794189453125" lon="-1.526388488709926605224609375">
        <ele>407.79998779296875</ele>
        <time>2020-08-22T11:42:18.000Z</time>
      </trkpt>
      <trkpt lat="43.15446627326309680938720703125" lon="-1.52633476071059703826904296875">
        <ele>408.20001220703125</ele>
        <time>2020-08-22T11:42:21.000Z</time>
      </trkpt>
      <trkpt lat="43.1544832885265350341796875" lon="-1.526243649423122406005859375">
        <ele>409.20001220703125</ele>
        <time>2020-08-22T11:42:26.000Z</time>
      </trkpt>
      <trkpt lat="43.15448706038296222686767578125" lon="-1.52622529305517673492431640625">
        <ele>409.399993896484375</ele>
        <time>2020-08-22T11:42:27.000Z</time>
      </trkpt>
      <trkpt lat="43.15449628047645092010498046875" lon="-1.526106186211109161376953125">
        <ele>410.600006103515625</ele>
        <time>2020-08-22T11:42:33.000Z</time>
      </trkpt>
      <trkpt lat="43.15450583584606647491455078125" lon="-1.52606804855167865753173828125">
        <ele>410.79998779296875</ele>
        <time>2020-08-22T11:42:35.000Z</time>
      </trkpt>
      <trkpt lat="43.154521174728870391845703125" lon="-1.52599194087088108062744140625">
        <ele>411.600006103515625</ele>
        <time>2020-08-22T11:42:39.000Z</time>
      </trkpt>
      <trkpt lat="43.1545505113899707794189453125" lon="-1.52587945573031902313232421875">
        <ele>412.79998779296875</ele>
        <time>2020-08-22T11:42:45.000Z</time>
      </trkpt>
      <trkpt lat="43.1545545347034931182861328125" lon="-1.52585900388658046722412109375">
        <ele>412.79998779296875</ele>
        <time>2020-08-22T11:42:46.000Z</time>
      </trkpt>
      <trkpt lat="43.15457205288112163543701171875" lon="-1.525755822658538818359375">
        <ele>414</ele>
        <time>2020-08-22T11:42:51.000Z</time>
      </trkpt>
      <trkpt lat="43.15459929406642913818359375" lon="-1.525677703320980072021484375">
        <ele>414.600006103515625</ele>
        <time>2020-08-22T11:42:55.000Z</time>
      </trkpt>
      <trkpt lat="43.15461748279631137847900390625" lon="-1.52561525814235210418701171875">
        <ele>415</ele>
        <time>2020-08-22T11:42:58.000Z</time>
      </trkpt>
      <trkpt lat="43.15466903150081634521484375" lon="-1.52545080520212650299072265625">
        <ele>416.20001220703125</ele>
        <time>2020-08-22T11:43:06.000Z</time>
      </trkpt>
      <trkpt lat="43.15471035428345203399658203125" lon="-1.52533404529094696044921875">
        <ele>416.79998779296875</ele>
        <time>2020-08-22T11:43:12.000Z</time>
      </trkpt>
      <trkpt lat="43.15473072230815887451171875" lon="-1.5252735279500484466552734375">
        <ele>417.20001220703125</ele>
        <time>2020-08-22T11:43:15.000Z</time>
      </trkpt>
      <trkpt lat="43.15476559102535247802734375" lon="-1.52517378330230712890625">
        <ele>417.79998779296875</ele>
        <time>2020-08-22T11:43:20.000Z</time>
      </trkpt>
      <trkpt lat="43.15478847362101078033447265625" lon="-1.525115109980106353759765625">
        <ele>418.20001220703125</ele>
        <time>2020-08-22T11:43:23.000Z</time>
      </trkpt>
      <trkpt lat="43.15485888160765171051025390625" lon="-1.524956524372100830078125">
        <ele>419.399993896484375</ele>
        <time>2020-08-22T11:43:31.000Z</time>
      </trkpt>
      <trkpt lat="43.1549276970326900482177734375" lon="-1.5248252637684345245361328125">
        <ele>420.399993896484375</ele>
        <time>2020-08-22T11:43:38.000Z</time>
      </trkpt>
      <trkpt lat="43.15493322908878326416015625" lon="-1.5248034708201885223388671875">
        <ele>420.600006103515625</ele>
        <time>2020-08-22T11:43:39.000Z</time>
      </trkpt>
      <trkpt lat="43.1550021283328533172607421875" lon="-1.5246328152716159820556640625">
        <ele>421.600006103515625</ele>
        <time>2020-08-22T11:43:47.000Z</time>
      </trkpt>
      <trkpt lat="43.15501193515956401824951171875" lon="-1.52461261488497257232666015625">
        <ele>421.600006103515625</ele>
        <time>2020-08-22T11:43:48.000Z</time>
      </trkpt>
      <trkpt lat="43.15506926737725734710693359375" lon="-1.5244965255260467529296875">
        <ele>422.600006103515625</ele>
        <time>2020-08-22T11:43:54.000Z</time>
      </trkpt>
      <trkpt lat="43.15510145388543605804443359375" lon="-1.52444229461252689361572265625">
        <ele>423.20001220703125</ele>
        <time>2020-08-22T11:43:57.000Z</time>
      </trkpt>
      <trkpt lat="43.1551224924623966217041015625" lon="-1.5244080126285552978515625">
        <ele>423.79998779296875</ele>
        <time>2020-08-22T11:43:59.000Z</time>
      </trkpt>
      <trkpt lat="43.155170269310474395751953125" lon="-1.524350009858608245849609375">
        <ele>424.79998779296875</ele>
        <time>2020-08-22T11:44:03.000Z</time>
      </trkpt>
      <trkpt lat="43.1552042998373508453369140625" lon="-1.5243060886859893798828125">
        <ele>425.600006103515625</ele>
        <time>2020-08-22T11:44:06.000Z</time>
      </trkpt>
      <trkpt lat="43.15523388795554637908935546875" lon="-1.5242576412856578826904296875">
        <ele>426.20001220703125</ele>
        <time>2020-08-22T11:44:09.000Z</time>
      </trkpt>
      <trkpt lat="43.15529071725904941558837890625" lon="-1.52418664656579494476318359375">
        <ele>427.399993896484375</ele>
        <time>2020-08-22T11:44:14.000Z</time>
      </trkpt>
      <trkpt lat="43.15533346496522426605224609375" lon="-1.52413199655711650848388671875">
        <ele>428.399993896484375</ele>
        <time>2020-08-22T11:44:18.000Z</time>
      </trkpt>
      <trkpt lat="43.15537386573851108551025390625" lon="-1.52408237569034099578857421875">
        <ele>429.20001220703125</ele>
        <time>2020-08-22T11:44:22.000Z</time>
      </trkpt>
      <trkpt lat="43.15538308583199977874755859375" lon="-1.5240698866546154022216796875">
        <ele>429.20001220703125</ele>
        <time>2020-08-22T11:44:23.000Z</time>
      </trkpt>
      <trkpt lat="43.1554168649017810821533203125" lon="-1.52402621693909168243408203125">
        <ele>430.79998779296875</ele>
        <time>2020-08-22T11:44:27.000Z</time>
      </trkpt>
      <trkpt lat="43.1554376520216464996337890625" lon="-1.524006016552448272705078125">
        <ele>431.20001220703125</ele>
        <time>2020-08-22T11:44:29.000Z</time>
      </trkpt>
      <trkpt lat="43.155461959540843963623046875" lon="-1.5239830501377582550048828125">
        <ele>431.600006103515625</ele>
        <time>2020-08-22T11:44:31.000Z</time>
      </trkpt>
      <trkpt lat="43.15551350824534893035888671875" lon="-1.52393435128033161163330078125">
        <ele>432.600006103515625</ele>
        <time>2020-08-22T11:44:35.000Z</time>
      </trkpt>
      <trkpt lat="43.1555529870092868804931640625" lon="-1.52390434406697750091552734375">
        <ele>433.20001220703125</ele>
        <time>2020-08-22T11:44:38.000Z</time>
      </trkpt>
      <trkpt lat="43.1555761210620403289794921875" lon="-1.52388162910938262939453125">
        <ele>433.600006103515625</ele>
        <time>2020-08-22T11:44:40.000Z</time>
      </trkpt>
      <trkpt lat="43.1556391529738903045654296875" lon="-1.523854471743106842041015625">
        <ele>434.600006103515625</ele>
        <time>2020-08-22T11:44:45.000Z</time>
      </trkpt>
      <trkpt lat="43.155651390552520751953125" lon="-1.52384818531572818756103515625">
        <ele>434.79998779296875</ele>
        <time>2020-08-22T11:44:46.000Z</time>
      </trkpt>
      <trkpt lat="43.15571165643632411956787109375" lon="-1.5238294936716556549072265625">
        <ele>435.79998779296875</ele>
        <time>2020-08-22T11:44:51.000Z</time>
      </trkpt>
      <trkpt lat="43.1557243131101131439208984375" lon="-1.5238258056342601776123046875">
        <ele>436</ele>
        <time>2020-08-22T11:44:52.000Z</time>
      </trkpt>
      <trkpt lat="43.1557853333652019500732421875" lon="-1.5238040126860141754150390625">
        <ele>437</ele>
        <time>2020-08-22T11:44:57.000Z</time>
      </trkpt>
      <trkpt lat="43.1558138318359851837158203125" lon="-1.52380074374377727508544921875">
        <ele>437.399993896484375</ele>
        <time>2020-08-22T11:44:59.000Z</time>
      </trkpt>
      <trkpt lat="43.15584610216319561004638671875" lon="-1.5237882547080516815185546875">
        <ele>438</ele>
        <time>2020-08-22T11:45:02.000Z</time>
      </trkpt>
      <trkpt lat="43.15589077770709991455078125" lon="-1.5237624384462833404541015625">
        <ele>439.20001220703125</ele>
        <time>2020-08-22T11:45:07.000Z</time>
      </trkpt>
      <trkpt lat="43.15593344159424304962158203125" lon="-1.52375363744795322418212890625">
        <ele>440.20001220703125</ele>
        <time>2020-08-22T11:45:11.000Z</time>
      </trkpt>
      <trkpt lat="43.15597132779657840728759765625" lon="-1.5237436629831790924072265625">
        <ele>441</ele>
        <time>2020-08-22T11:45:14.000Z</time>
      </trkpt>
      <trkpt lat="43.1560005806386470794677734375" lon="-1.523741818964481353759765625">
        <ele>441.20001220703125</ele>
        <time>2020-08-22T11:45:16.000Z</time>
      </trkpt>
      <trkpt lat="43.1560431607067584991455078125" lon="-1.523745842278003692626953125">
        <ele>442</ele>
        <time>2020-08-22T11:45:19.000Z</time>
      </trkpt>
      <trkpt lat="43.1560569070279598236083984375" lon="-1.52375279925763607025146484375">
        <ele>442.20001220703125</ele>
        <time>2020-08-22T11:45:20.000Z</time>
      </trkpt>
      <trkpt lat="43.1560786999762058258056640625" lon="-1.5237741731107234954833984375">
        <ele>442.79998779296875</ele>
        <time>2020-08-22T11:45:22.000Z</time>
      </trkpt>
      <trkpt lat="43.1560803763568401336669921875" lon="-1.52377475984394550323486328125">
        <ele>443</ele>
        <time>2020-08-22T11:45:23.000Z</time>
      </trkpt>
      <trkpt lat="43.1560797058045864105224609375" lon="-1.523767299950122833251953125">
        <ele>442.79998779296875</ele>
        <time>2020-08-22T11:45:45.000Z</time>
      </trkpt>
      <trkpt lat="43.1560813821852207183837890625" lon="-1.5237755142152309417724609375">
        <ele>442.79998779296875</ele>
        <time>2020-08-22T11:45:47.000Z</time>
      </trkpt>
      <trkpt lat="43.15608523786067962646484375" lon="-1.523813568055629730224609375">
        <ele>442.79998779296875</ele>
        <time>2020-08-22T11:45:49.000Z</time>
      </trkpt>
      <trkpt lat="43.15606989897787570953369140625" lon="-1.523879952728748321533203125">
        <ele>443.20001220703125</ele>
        <time>2020-08-22T11:45:52.000Z</time>
      </trkpt>
      <trkpt lat="43.1560629419982433319091796875" lon="-1.523902080953121185302734375">
        <ele>443.20001220703125</ele>
        <time>2020-08-22T11:45:53.000Z</time>
      </trkpt>
      <trkpt lat="43.15604592673480510711669921875" lon="-1.5239431522786617279052734375">
        <ele>443.399993896484375</ele>
        <time>2020-08-22T11:45:55.000Z</time>
      </trkpt>
      <trkpt lat="43.15596194006502628326416015625" lon="-1.52402990497648715972900390625">
        <ele>444.20001220703125</ele>
        <time>2020-08-22T11:46:01.000Z</time>
      </trkpt>
      <trkpt lat="43.15592757426202297210693359375" lon="-1.52406980283558368682861328125">
        <ele>444.79998779296875</ele>
        <time>2020-08-22T11:46:04.000Z</time>
      </trkpt>
      <trkpt lat="43.15591885708272457122802734375" lon="-1.52408623136579990386962890625">
        <ele>445.20001220703125</ele>
        <time>2020-08-22T11:46:05.000Z</time>
      </trkpt>
      <trkpt lat="43.15587946213781833648681640625" lon="-1.5242103673517704010009765625">
        <ele>446.20001220703125</ele>
        <time>2020-08-22T11:46:11.000Z</time>
      </trkpt>
      <trkpt lat="43.1558684818446636199951171875" lon="-1.52431069873273372650146484375">
        <ele>447.20001220703125</ele>
        <time>2020-08-22T11:46:15.000Z</time>
      </trkpt>
      <trkpt lat="43.155842833220958709716796875" lon="-1.524430476129055023193359375">
        <ele>448.600006103515625</ele>
        <time>2020-08-22T11:46:21.000Z</time>
      </trkpt>
      <trkpt lat="43.1558077968657016754150390625" lon="-1.52451102621853351593017578125">
        <ele>449.600006103515625</ele>
        <time>2020-08-22T11:46:26.000Z</time>
      </trkpt>
      <trkpt lat="43.15579262562096118927001953125" lon="-1.52462669648230075836181640625">
        <ele>450.79998779296875</ele>
        <time>2020-08-22T11:46:32.000Z</time>
      </trkpt>
      <trkpt lat="43.15578273497521877288818359375" lon="-1.52466483414173126220703125">
        <ele>451.20001220703125</ele>
        <time>2020-08-22T11:46:34.000Z</time>
      </trkpt>
      <trkpt lat="43.15575423650443553924560546875" lon="-1.52472794987261295318603515625">
        <ele>452</ele>
        <time>2020-08-22T11:46:38.000Z</time>
      </trkpt>
      <trkpt lat="43.15573923289775848388671875" lon="-1.5248031355440616607666015625">
        <ele>453.20001220703125</ele>
        <time>2020-08-22T11:46:42.000Z</time>
      </trkpt>
      <trkpt lat="43.15571266226470470428466796875" lon="-1.5249067358672618865966796875">
        <ele>454.20001220703125</ele>
        <time>2020-08-22T11:46:48.000Z</time>
      </trkpt>
      <trkpt lat="43.155697323381900787353515625" lon="-1.5249804966151714324951171875">
        <ele>455</ele>
        <time>2020-08-22T11:46:52.000Z</time>
      </trkpt>
      <trkpt lat="43.1556837446987628936767578125" lon="-1.5250361524522304534912109375">
        <ele>455.600006103515625</ele>
        <time>2020-08-22T11:46:55.000Z</time>
      </trkpt>
      <trkpt lat="43.155679218471050262451171875" lon="-1.52509658597409725189208984375">
        <ele>456.20001220703125</ele>
        <time>2020-08-22T11:46:58.000Z</time>
      </trkpt>
      <trkpt lat="43.1556840799748897552490234375" lon="-1.52517839334905147552490234375">
        <ele>457</ele>
        <time>2020-08-22T11:47:02.000Z</time>
      </trkpt>
      <trkpt lat="43.15568315796554088592529296875" lon="-1.52519918046891689300537109375">
        <ele>457.20001220703125</ele>
        <time>2020-08-22T11:47:03.000Z</time>
      </trkpt>
      <trkpt lat="43.1556974910199642181396484375" lon="-1.52531367726624011993408203125">
        <ele>458.399993896484375</ele>
        <time>2020-08-22T11:47:09.000Z</time>
      </trkpt>
      <trkpt lat="43.15570193342864513397216796875" lon="-1.5253322012722492218017578125">
        <ele>458.600006103515625</ele>
        <time>2020-08-22T11:47:10.000Z</time>
      </trkpt>
      <trkpt lat="43.15572389401495456695556640625" lon="-1.52542314492166042327880859375">
        <ele>459.600006103515625</ele>
        <time>2020-08-22T11:47:15.000Z</time>
      </trkpt>
      <trkpt lat="43.15575524233281612396240234375" lon="-1.525487937033176422119140625">
        <ele>460.399993896484375</ele>
        <time>2020-08-22T11:47:19.000Z</time>
      </trkpt>
      <trkpt lat="43.1557601876556873321533203125" lon="-1.52550562284886837005615234375">
        <ele>460.600006103515625</ele>
        <time>2020-08-22T11:47:20.000Z</time>
      </trkpt>
      <trkpt lat="43.1557937152683734893798828125" lon="-1.525585837662220001220703125">
        <ele>461.79998779296875</ele>
        <time>2020-08-22T11:47:25.000Z</time>
      </trkpt>
      <trkpt lat="43.15581508912146091461181640625" lon="-1.5256319381296634674072265625">
        <ele>462.20001220703125</ele>
        <time>2020-08-22T11:47:28.000Z</time>
      </trkpt>
      <trkpt lat="43.155844174325466156005859375" lon="-1.52569287456572055816650390625">
        <ele>462.79998779296875</ele>
        <time>2020-08-22T11:47:32.000Z</time>
      </trkpt>
      <trkpt lat="43.1558899395167827606201171875" lon="-1.52574115432798862457275390625">
        <ele>463.600006103515625</ele>
        <time>2020-08-22T11:47:36.000Z</time>
      </trkpt>
      <trkpt lat="43.15590058453381061553955078125" lon="-1.52575372718274593353271484375">
        <ele>463.79998779296875</ele>
        <time>2020-08-22T11:47:37.000Z</time>
      </trkpt>
      <trkpt lat="43.1559585034847259521484375" lon="-1.52582949958741664886474609375">
        <ele>465.20001220703125</ele>
        <time>2020-08-22T11:47:43.000Z</time>
      </trkpt>
      <trkpt lat="43.15598742105066776275634765625" lon="-1.5258652903139591217041015625">
        <ele>466</ele>
        <time>2020-08-22T11:47:46.000Z</time>
      </trkpt>
      <trkpt lat="43.15601340495049953460693359375" lon="-1.52588230557739734649658203125">
        <ele>466.20001220703125</ele>
        <time>2020-08-22T11:47:48.000Z</time>
      </trkpt>
      <trkpt lat="43.1560589186847209930419921875" lon="-1.52592815458774566650390625">
        <ele>467.399993896484375</ele>
        <time>2020-08-22T11:47:52.000Z</time>
      </trkpt>
      <trkpt lat="43.15609596669673919677734375" lon="-1.525956653058528900146484375">
        <ele>468</ele>
        <time>2020-08-22T11:47:55.000Z</time>
      </trkpt>
      <trkpt lat="43.1561477668583393096923828125" lon="-1.52598322369158267974853515625">
        <ele>468.600006103515625</ele>
        <time>2020-08-22T11:47:59.000Z</time>
      </trkpt>
      <trkpt lat="43.15619789063930511474609375" lon="-1.52602127753198146820068359375">
        <ele>469.399993896484375</ele>
        <time>2020-08-22T11:48:03.000Z</time>
      </trkpt>
      <trkpt lat="43.15621255896985530853271484375" lon="-1.5260258875787258148193359375">
        <ele>469.600006103515625</ele>
        <time>2020-08-22T11:48:04.000Z</time>
      </trkpt>
      <trkpt lat="43.1562926061451435089111328125" lon="-1.52607609517872333526611328125">
        <ele>470.79998779296875</ele>
        <time>2020-08-22T11:48:10.000Z</time>
      </trkpt>
      <trkpt lat="43.15639276988804340362548828125" lon="-1.52609772048890590667724609375">
        <ele>471.79998779296875</ele>
        <time>2020-08-22T11:48:17.000Z</time>
      </trkpt>
      <trkpt lat="43.1564076058566570281982421875" lon="-1.5261018276214599609375">
        <ele>472.20001220703125</ele>
        <time>2020-08-22T11:48:18.000Z</time>
      </trkpt>
      <trkpt lat="43.156435601413249969482421875" lon="-1.5261165797710418701171875">
        <ele>473</ele>
        <time>2020-08-22T11:48:20.000Z</time>
      </trkpt>
      <trkpt lat="43.1565041653811931610107421875" lon="-1.52612621895968914031982421875">
        <ele>473.79998779296875</ele>
        <time>2020-08-22T11:48:25.000Z</time>
      </trkpt>
      <trkpt lat="43.15651799552142620086669921875" lon="-1.52613066136837005615234375">
        <ele>474</ele>
        <time>2020-08-22T11:48:26.000Z</time>
      </trkpt>
      <trkpt lat="43.1565910018980503082275390625" lon="-1.52615237049758434295654296875">
        <ele>475</ele>
        <time>2020-08-22T11:48:31.000Z</time>
      </trkpt>
      <trkpt lat="43.156622014939785003662109375" lon="-1.52615019120275974273681640625">
        <ele>475.399993896484375</ele>
        <time>2020-08-22T11:48:33.000Z</time>
      </trkpt>
      <trkpt lat="43.15669770352542400360107421875" lon="-1.52615211904048919677734375">
        <ele>476.20001220703125</ele>
        <time>2020-08-22T11:48:38.000Z</time>
      </trkpt>
      <trkpt lat="43.156757466495037078857421875" lon="-1.5261539630591869354248046875">
        <ele>477</ele>
        <time>2020-08-22T11:48:42.000Z</time>
      </trkpt>
      <trkpt lat="43.1567871384322643280029296875" lon="-1.5261506102979183197021484375">
        <ele>477.399993896484375</ele>
        <time>2020-08-22T11:48:44.000Z</time>
      </trkpt>
      <trkpt lat="43.15687690861523151397705078125" lon="-1.5261425636708736419677734375">
        <ele>478.20001220703125</ele>
        <time>2020-08-22T11:48:50.000Z</time>
      </trkpt>
      <trkpt lat="43.15698017366230487823486328125" lon="-1.5261271409690380096435546875">
        <ele>479.20001220703125</ele>
        <time>2020-08-22T11:48:57.000Z</time>
      </trkpt>
      <trkpt lat="43.15706851892173290252685546875" lon="-1.52610610239207744598388671875">
        <ele>480.600006103515625</ele>
        <time>2020-08-22T11:49:03.000Z</time>
      </trkpt>
      <trkpt lat="43.15708360634744167327880859375" lon="-1.52610719203948974609375">
        <ele>480.79998779296875</ele>
        <time>2020-08-22T11:49:04.000Z</time>
      </trkpt>
      <trkpt lat="43.15715887583792209625244140625" lon="-1.5261023305356502532958984375">
        <ele>481.79998779296875</ele>
        <time>2020-08-22T11:49:09.000Z</time>
      </trkpt>
      <trkpt lat="43.15722106955945491790771484375" lon="-1.52610023505985736846923828125">
        <ele>482.399993896484375</ele>
        <time>2020-08-22T11:49:13.000Z</time>
      </trkpt>
      <trkpt lat="43.15725007094442844390869140625" lon="-1.52609218843281269073486328125">
        <ele>483</ele>
        <time>2020-08-22T11:49:15.000Z</time>
      </trkpt>
      <trkpt lat="43.15731829963624477386474609375" lon="-1.52608917094767093658447265625">
        <ele>484</ele>
        <time>2020-08-22T11:49:20.000Z</time>
      </trkpt>
      <trkpt lat="43.1573317945003509521484375" lon="-1.52608380652964115142822265625">
        <ele>484</ele>
        <time>2020-08-22T11:49:21.000Z</time>
      </trkpt>
      <trkpt lat="43.15741519443690776824951171875" lon="-1.5260709822177886962890625">
        <ele>484.79998779296875</ele>
        <time>2020-08-22T11:49:27.000Z</time>
      </trkpt>
      <trkpt lat="43.15742977894842624664306640625" lon="-1.5260709822177886962890625">
        <ele>485</ele>
        <time>2020-08-22T11:49:28.000Z</time>
      </trkpt>
      <trkpt lat="43.157485015690326690673828125" lon="-1.5260575711727142333984375">
        <ele>486.20001220703125</ele>
        <time>2020-08-22T11:49:32.000Z</time>
      </trkpt>
      <trkpt lat="43.15752692520618438720703125" lon="-1.526043824851512908935546875">
        <ele>486.600006103515625</ele>
        <time>2020-08-22T11:49:35.000Z</time>
      </trkpt>
      <trkpt lat="43.1575690023601055145263671875" lon="-1.5260315872728824615478515625">
        <ele>487.20001220703125</ele>
        <time>2020-08-22T11:49:38.000Z</time>
      </trkpt>
      <trkpt lat="43.15760144032537937164306640625" lon="-1.52601591311395168304443359375">
        <ele>488.20001220703125</ele>
        <time>2020-08-22T11:49:41.000Z</time>
      </trkpt>
      <trkpt lat="43.15761300735175609588623046875" lon="-1.52601356618106365203857421875">
        <ele>488.20001220703125</ele>
        <time>2020-08-22T11:49:42.000Z</time>
      </trkpt>
      <trkpt lat="43.15762440674006938934326171875" lon="-1.5260121412575244903564453125">
        <ele>488.399993896484375</ele>
        <time>2020-08-22T11:49:43.000Z</time>
      </trkpt>
      <trkpt lat="43.157690204679965972900390625" lon="-1.52597316540777683258056640625">
        <ele>489.600006103515625</ele>
        <time>2020-08-22T11:49:49.000Z</time>
      </trkpt>
      <trkpt lat="43.1577743589878082275390625" lon="-1.52594282291829586029052734375">
        <ele>490.79998779296875</ele>
        <time>2020-08-22T11:49:55.000Z</time>
      </trkpt>
      <trkpt lat="43.1578013487160205841064453125" lon="-1.52592605911195278167724609375">
        <ele>491.399993896484375</ele>
        <time>2020-08-22T11:49:57.000Z</time>
      </trkpt>
      <trkpt lat="43.15784535370767116546630859375" lon="-1.52591382153332233428955078125">
        <ele>491.600006103515625</ele>
        <time>2020-08-22T11:50:00.000Z</time>
      </trkpt>
      <trkpt lat="43.15790285356342792510986328125" lon="-1.52588482014834880828857421875">
        <ele>492.600006103515625</ele>
        <time>2020-08-22T11:50:04.000Z</time>
      </trkpt>
      <trkpt lat="43.1579166837036609649658203125" lon="-1.52587509714066982269287109375">
        <ele>493</ele>
        <time>2020-08-22T11:50:05.000Z</time>
      </trkpt>
      <trkpt lat="43.1579679809510707855224609375" lon="-1.52583704330027103424072265625">
        <ele>494</ele>
        <time>2020-08-22T11:50:09.000Z</time>
      </trkpt>
      <trkpt lat="43.15802439115941524505615234375" lon="-1.525813154876232147216796875">
        <ele>494.600006103515625</ele>
        <time>2020-08-22T11:50:13.000Z</time>
      </trkpt>
      <trkpt lat="43.1580665521323680877685546875" lon="-1.5257932059466838836669921875">
        <ele>495.20001220703125</ele>
        <time>2020-08-22T11:50:16.000Z</time>
      </trkpt>
      <trkpt lat="43.15810821019113063812255859375" lon="-1.5257704071700572967529296875">
        <ele>496.399993896484375</ele>
        <time>2020-08-22T11:50:19.000Z</time>
      </trkpt>
      <trkpt lat="43.15816470421850681304931640625" lon="-1.52575515210628509521484375">
        <ele>497.399993896484375</ele>
        <time>2020-08-22T11:50:23.000Z</time>
      </trkpt>
      <trkpt lat="43.1581802107393741607666015625" lon="-1.52575691230595111846923828125">
        <ele>497.600006103515625</ele>
        <time>2020-08-22T11:50:24.000Z</time>
      </trkpt>
      <trkpt lat="43.1582908518612384796142578125" lon="-1.52579898945987224578857421875">
        <ele>498.600006103515625</ele>
        <time>2020-08-22T11:50:31.000Z</time>
      </trkpt>
      <trkpt lat="43.15837928093969821929931640625" lon="-1.52584861032664775848388671875">
        <ele>498.600006103515625</ele>
        <time>2020-08-22T11:50:37.000Z</time>
      </trkpt>
      <trkpt lat="43.1584095396101474761962890625" lon="-1.525864787399768829345703125">
        <ele>498.600006103515625</ele>
        <time>2020-08-22T11:50:39.000Z</time>
      </trkpt>
      <trkpt lat="43.15846159122884273529052734375" lon="-1.525884233415126800537109375">
        <ele>498.399993896484375</ele>
        <time>2020-08-22T11:50:45.000Z</time>
      </trkpt>
      <trkpt lat="43.15846879966557025909423828125" lon="-1.52591474354267120361328125">
        <ele>497.399993896484375</ele>
        <time>2020-08-22T11:56:37.000Z</time>
      </trkpt>
      <trkpt lat="43.158499896526336669921875" lon="-1.525948941707611083984375">
        <ele>497.600006103515625</ele>
        <time>2020-08-22T11:56:42.000Z</time>
      </trkpt>
      <trkpt lat="43.158622942864894866943359375" lon="-1.5260587446391582489013671875">
        <ele>497.399993896484375</ele>
        <time>2020-08-22T11:56:48.000Z</time>
      </trkpt>
      <trkpt lat="43.15879871137440204620361328125" lon="-1.52626435272395610809326171875">
        <ele>497.20001220703125</ele>
        <time>2020-08-22T11:56:54.000Z</time>
      </trkpt>
      <trkpt lat="43.1589357554912567138671875" lon="-1.52639913372695446014404296875">
        <ele>496.399993896484375</ele>
        <time>2020-08-22T11:56:57.000Z</time>
      </trkpt>
      <trkpt lat="43.1590515933930873870849609375" lon="-1.5264969505369663238525390625">
        <ele>495.20001220703125</ele>
        <time>2020-08-22T11:56:59.000Z</time>
      </trkpt>
      <trkpt lat="43.1592584587633609771728515625" lon="-1.52668613009154796600341796875">
        <ele>494.20001220703125</ele>
        <time>2020-08-22T11:57:02.000Z</time>
      </trkpt>
      <trkpt lat="43.15932626836001873016357421875" lon="-1.52675922028720378875732421875">
        <ele>493.20001220703125</ele>
        <time>2020-08-22T11:57:03.000Z</time>
      </trkpt>
      <trkpt lat="43.1593905575573444366455078125" lon="-1.526834070682525634765625">
        <ele>492.600006103515625</ele>
        <time>2020-08-22T11:57:04.000Z</time>
      </trkpt>
      <trkpt lat="43.15960102714598178863525390625" lon="-1.52707991190254688262939453125">
        <ele>492.20001220703125</ele>
        <time>2020-08-22T11:57:08.000Z</time>
      </trkpt>
      <trkpt lat="43.159707896411418914794921875" lon="-1.52721268124878406524658203125">
        <ele>493.399993896484375</ele>
        <time>2020-08-22T11:57:12.000Z</time>
      </trkpt>
      <trkpt lat="43.15976413898169994354248046875" lon="-1.52727990411221981048583984375">
        <ele>494.600006103515625</ele>
        <time>2020-08-22T11:57:15.000Z</time>
      </trkpt>
      <trkpt lat="43.15984393469989299774169921875" lon="-1.527374871075153350830078125">
        <ele>495.79998779296875</ele>
        <time>2020-08-22T11:57:20.000Z</time>
      </trkpt>
      <trkpt lat="43.15991140902042388916015625" lon="-1.52745944447815418243408203125">
        <ele>497</ele>
        <time>2020-08-22T11:57:25.000Z</time>
      </trkpt>
      <trkpt lat="43.159951977431774139404296875" lon="-1.527503617107868194580078125">
        <ele>497.399993896484375</ele>
        <time>2020-08-22T11:57:28.000Z</time>
      </trkpt>
      <trkpt lat="43.1599803082644939422607421875" lon="-1.52753169648349285125732421875">
        <ele>498</ele>
        <time>2020-08-22T11:57:30.000Z</time>
      </trkpt>
      <trkpt lat="43.16005515865981578826904296875" lon="-1.52762339450418949127197265625">
        <ele>499.20001220703125</ele>
        <time>2020-08-22T11:57:36.000Z</time>
      </trkpt>
      <trkpt lat="43.16011500544846057891845703125" lon="-1.52769170701503753662109375">
        <ele>500.600006103515625</ele>
        <time>2020-08-22T11:57:41.000Z</time>
      </trkpt>
      <trkpt lat="43.16018289886415004730224609375" lon="-1.52775951661169528961181640625">
        <ele>501.600006103515625</ele>
        <time>2020-08-22T11:57:46.000Z</time>
      </trkpt>
      <trkpt lat="43.160209469497203826904296875" lon="-1.52778633870184421539306640625">
        <ele>502</ele>
        <time>2020-08-22T11:57:48.000Z</time>
      </trkpt>
      <trkpt lat="43.16023486666381359100341796875" lon="-1.52781349606812000274658203125">
        <ele>502.600006103515625</ele>
        <time>2020-08-22T11:57:50.000Z</time>
      </trkpt>
      <trkpt lat="43.1602716632187366485595703125" lon="-1.52785289101302623748779296875">
        <ele>503.600006103515625</ele>
        <time>2020-08-22T11:57:53.000Z</time>
      </trkpt>
      <trkpt lat="43.16030778922140598297119140625" lon="-1.52789077721536159515380859375">
        <ele>505</ele>
        <time>2020-08-22T11:57:56.000Z</time>
      </trkpt>
      <trkpt lat="43.16032958216965198516845703125" lon="-1.5279190242290496826171875">
        <ele>505.600006103515625</ele>
        <time>2020-08-22T11:57:58.000Z</time>
      </trkpt>
      <trkpt lat="43.16034114919602870941162109375" lon="-1.52793201617896556854248046875">
        <ele>506.20001220703125</ele>
        <time>2020-08-22T11:57:59.000Z</time>
      </trkpt>
      <trkpt lat="43.16038540564477443695068359375" lon="-1.52798633091151714324951171875">
        <ele>507.600006103515625</ele>
        <time>2020-08-22T11:58:03.000Z</time>
      </trkpt>
      <trkpt lat="43.16040015779435634613037109375" lon="-1.52802187018096446990966796875">
        <ele>508</ele>
        <time>2020-08-22T11:58:05.000Z</time>
      </trkpt>
      <trkpt lat="43.16044726409018039703369140625" lon="-1.5280633606016635894775390625">
        <ele>508.79998779296875</ele>
        <time>2020-08-22T11:58:09.000Z</time>
      </trkpt>
      <trkpt lat="43.1604674644768238067626953125" lon="-1.52809009887278079986572265625">
        <ele>509.600006103515625</ele>
        <time>2020-08-22T11:58:11.000Z</time>
      </trkpt>
      <trkpt lat="43.16048406064510345458984375" lon="-1.52812161482870578765869140625">
        <ele>510</ele>
        <time>2020-08-22T11:58:13.000Z</time>
      </trkpt>
      <trkpt lat="43.16052136011421680450439453125" lon="-1.5281475149095058441162109375">
        <ele>510.600006103515625</ele>
        <time>2020-08-22T11:58:16.000Z</time>
      </trkpt>
      <trkpt lat="43.16054415889084339141845703125" lon="-1.52817291207611560821533203125">
        <ele>511</ele>
        <time>2020-08-22T11:58:18.000Z</time>
      </trkpt>
      <trkpt lat="43.16059000790119171142578125" lon="-1.52825136668980121612548828125">
        <ele>512.20001220703125</ele>
        <time>2020-08-22T11:58:23.000Z</time>
      </trkpt>
      <trkpt lat="43.16061682999134063720703125" lon="-1.52827282436192035675048828125">
        <ele>512.79998779296875</ele>
        <time>2020-08-22T11:58:25.000Z</time>
      </trkpt>
      <trkpt lat="43.16064231097698211669921875" lon="-1.528290845453739166259765625">
        <ele>513.20001220703125</ele>
        <time>2020-08-22T11:58:27.000Z</time>
      </trkpt>
      <trkpt lat="43.16069318912923336029052734375" lon="-1.52832328341901302337646484375">
        <ele>513.79998779296875</ele>
        <time>2020-08-22T11:58:31.000Z</time>
      </trkpt>
      <trkpt lat="43.160710036754608154296875" lon="-1.5283573977649211883544921875">
        <ele>514.20001220703125</ele>
        <time>2020-08-22T11:58:33.000Z</time>
      </trkpt>
      <trkpt lat="43.16072554327547550201416015625" lon="-1.5283919312059879302978515625">
        <ele>514.79998779296875</ele>
        <time>2020-08-22T11:58:35.000Z</time>
      </trkpt>
      <trkpt lat="43.1607501022517681121826171875" lon="-1.52840517461299896240234375">
        <ele>515</ele>
        <time>2020-08-22T11:58:37.000Z</time>
      </trkpt>
      <trkpt lat="43.16076342947781085968017578125" lon="-1.5284100361168384552001953125">
        <ele>515.20001220703125</ele>
        <time>2020-08-22T11:58:38.000Z</time>
      </trkpt>
      <trkpt lat="43.1607759185135364532470703125" lon="-1.52841498143970966339111328125">
        <ele>515.20001220703125</ele>
        <time>2020-08-22T11:58:39.000Z</time>
      </trkpt>
      <trkpt lat="43.16081506200134754180908203125" lon="-1.52843534946441650390625">
        <ele>516.4000244140625</ele>
        <time>2020-08-22T11:58:42.000Z</time>
      </trkpt>
      <trkpt lat="43.160836435854434967041015625" lon="-1.528460495173931121826171875">
        <ele>516.5999755859375</ele>
        <time>2020-08-22T11:58:44.000Z</time>
      </trkpt>
      <trkpt lat="43.1608986295759677886962890625" lon="-1.52850307524204254150390625">
        <ele>517.5999755859375</ele>
        <time>2020-08-22T11:58:49.000Z</time>
      </trkpt>
      <trkpt lat="43.1609338335692882537841796875" lon="-1.52853400446474552154541015625">
        <ele>518</ele>
        <time>2020-08-22T11:58:52.000Z</time>
      </trkpt>
      <trkpt lat="43.16096995957195758819580078125" lon="-1.52856744825839996337890625">
        <ele>518.79998779296875</ele>
        <time>2020-08-22T11:58:55.000Z</time>
      </trkpt>
      <trkpt lat="43.16102980636060237884521484375" lon="-1.5286319889128208160400390625">
        <ele>519.4000244140625</ele>
        <time>2020-08-22T11:59:00.000Z</time>
      </trkpt>
      <trkpt lat="43.1610666029155254364013671875" lon="-1.52866107411682605743408203125">
        <ele>520</ele>
        <time>2020-08-22T11:59:03.000Z</time>
      </trkpt>
      <trkpt lat="43.161077834665775299072265625" lon="-1.52867247350513935089111328125">
        <ele>520.20001220703125</ele>
        <time>2020-08-22T11:59:04.000Z</time>
      </trkpt>
      <trkpt lat="43.1611319817602634429931640625" lon="-1.52873374521732330322265625">
        <ele>521.20001220703125</ele>
        <time>2020-08-22T11:59:09.000Z</time>
      </trkpt>
      <trkpt lat="43.16118939779698848724365234375" lon="-1.52878982014954090118408203125">
        <ele>522.20001220703125</ele>
        <time>2020-08-22T11:59:14.000Z</time>
      </trkpt>
      <trkpt lat="43.16123432479798793792724609375" lon="-1.528836004436016082763671875">
        <ele>523.4000244140625</ele>
        <time>2020-08-22T11:59:18.000Z</time>
      </trkpt>
      <trkpt lat="43.16130640916526317596435546875" lon="-1.5288985334336757659912109375">
        <ele>524.4000244140625</ele>
        <time>2020-08-22T11:59:24.000Z</time>
      </trkpt>
      <trkpt lat="43.16133004613220691680908203125" lon="-1.52892175130546092987060546875">
        <ele>524.79998779296875</ele>
        <time>2020-08-22T11:59:26.000Z</time>
      </trkpt>
      <trkpt lat="43.16137949936091899871826171875" lon="-1.5289538539946079254150390625">
        <ele>525.4000244140625</ele>
        <time>2020-08-22T11:59:30.000Z</time>
      </trkpt>
      <trkpt lat="43.16144454292953014373779296875" lon="-1.52899551205337047576904296875">
        <ele>526.20001220703125</ele>
        <time>2020-08-22T11:59:35.000Z</time>
      </trkpt>
      <trkpt lat="43.1614706106483936309814453125" lon="-1.52901110239326953887939453125">
        <ele>526.5999755859375</ele>
        <time>2020-08-22T11:59:37.000Z</time>
      </trkpt>
      <trkpt lat="43.1615631468594074249267578125" lon="-1.52907078154385089874267578125">
        <ele>527.4000244140625</ele>
        <time>2020-08-22T11:59:44.000Z</time>
      </trkpt>
      <trkpt lat="43.16161184571683406829833984375" lon="-1.5291107632219791412353515625">
        <ele>528.5999755859375</ele>
        <time>2020-08-22T11:59:48.000Z</time>
      </trkpt>
      <trkpt lat="43.161679990589618682861328125" lon="-1.52914856560528278350830078125">
        <ele>529.5999755859375</ele>
        <time>2020-08-22T11:59:53.000Z</time>
      </trkpt>
      <trkpt lat="43.16173522733151912689208984375" lon="-1.52916633524000644683837890625">
        <ele>530.5999755859375</ele>
        <time>2020-08-22T11:59:57.000Z</time>
      </trkpt>
      <trkpt lat="43.16178401000797748565673828125" lon="-1.52919935993850231170654296875">
        <ele>531.20001220703125</ele>
        <time>2020-08-22T12:00:01.000Z</time>
      </trkpt>
      <trkpt lat="43.16182038746774196624755859375" lon="-1.5292257629334926605224609375">
        <ele>532</ele>
        <time>2020-08-22T12:00:04.000Z</time>
      </trkpt>
      <trkpt lat="43.161881826817989349365234375" lon="-1.5292673371732234954833984375">
        <ele>533.20001220703125</ele>
        <time>2020-08-22T12:00:09.000Z</time>
      </trkpt>
      <trkpt lat="43.1619168631732463836669921875" lon="-1.52929340489208698272705078125">
        <ele>534.4000244140625</ele>
        <time>2020-08-22T12:00:12.000Z</time>
      </trkpt>
      <trkpt lat="43.16198936663568019866943359375" lon="-1.5293340571224689483642578125">
        <ele>535.20001220703125</ele>
        <time>2020-08-22T12:00:18.000Z</time>
      </trkpt>
      <trkpt lat="43.1620006822049617767333984375" lon="-1.52934185229241847991943359375">
        <ele>535.4000244140625</ele>
        <time>2020-08-22T12:00:19.000Z</time>
      </trkpt>
      <trkpt lat="43.16204502247273921966552734375" lon="-1.52936875820159912109375">
        <ele>536.4000244140625</ele>
        <time>2020-08-22T12:00:23.000Z</time>
      </trkpt>
      <trkpt lat="43.1620684079825878143310546875" lon="-1.52937923558056354522705078125">
        <ele>536.5999755859375</ele>
        <time>2020-08-22T12:00:25.000Z</time>
      </trkpt>
      <trkpt lat="43.16209313459694385528564453125" lon="-1.529387198388576507568359375">
        <ele>537.4000244140625</ele>
        <time>2020-08-22T12:00:27.000Z</time>
      </trkpt>
      <trkpt lat="43.16210411489009857177734375" lon="-1.52939801104366779327392578125">
        <ele>537.4000244140625</ele>
        <time>2020-08-22T12:00:28.000Z</time>
      </trkpt>
      <trkpt lat="43.16216907463967800140380859375" lon="-1.52942650951445102691650390625">
        <ele>538.4000244140625</ele>
        <time>2020-08-22T12:00:33.000Z</time>
      </trkpt>
      <trkpt lat="43.1622444279491901397705078125" lon="-1.5294634737074375152587890625">
        <ele>539.5999755859375</ele>
        <time>2020-08-22T12:00:39.000Z</time>
      </trkpt>
      <trkpt lat="43.16228256560862064361572265625" lon="-1.5294745378196239471435546875">
        <ele>540</ele>
        <time>2020-08-22T12:00:42.000Z</time>
      </trkpt>
      <trkpt lat="43.1623084656894207000732421875" lon="-1.52948250062763690948486328125">
        <ele>540.5999755859375</ele>
        <time>2020-08-22T12:00:44.000Z</time>
      </trkpt>
      <trkpt lat="43.16234425641596317291259765625" lon="-1.52950228191912174224853515625">
        <ele>541.5999755859375</ele>
        <time>2020-08-22T12:00:47.000Z</time>
      </trkpt>
      <trkpt lat="43.16236906684935092926025390625" lon="-1.52950965799391269683837890625">
        <ele>542</ele>
        <time>2020-08-22T12:00:49.000Z</time>
      </trkpt>
      <trkpt lat="43.16243746317923069000244140625" lon="-1.52950949035584926605224609375">
        <ele>542.5999755859375</ele>
        <time>2020-08-22T12:00:54.000Z</time>
      </trkpt>
      <trkpt lat="43.1625193543732166290283203125" lon="-1.5295194648206233978271484375">
        <ele>543.79998779296875</ele>
        <time>2020-08-22T12:01:00.000Z</time>
      </trkpt>
      <trkpt lat="43.16262152977287769317626953125" lon="-1.52952793054282665252685546875">
        <ele>544.79998779296875</ele>
        <time>2020-08-22T12:01:07.000Z</time>
      </trkpt>
      <trkpt lat="43.16263594664633274078369140625" lon="-1.52952994219958782196044921875">
        <ele>545</ele>
        <time>2020-08-22T12:01:08.000Z</time>
      </trkpt>
      <trkpt lat="43.16267869435250759124755859375" lon="-1.5295281819999217987060546875">
        <ele>545.79998779296875</ele>
        <time>2020-08-22T12:01:11.000Z</time>
      </trkpt>
      <trkpt lat="43.16276888363063335418701171875" lon="-1.5295328758656978607177734375">
        <ele>547</ele>
        <time>2020-08-22T12:01:17.000Z</time>
      </trkpt>
      <trkpt lat="43.1628812849521636962890625" lon="-1.52952633798122406005859375">
        <ele>547.5999755859375</ele>
        <time>2020-08-22T12:01:24.000Z</time>
      </trkpt>
      <trkpt lat="43.16293115727603435516357421875" lon="-1.5295229852199554443359375">
        <ele>548</ele>
        <time>2020-08-22T12:01:27.000Z</time>
      </trkpt>
      <trkpt lat="43.16302671097218990325927734375" lon="-1.529501192271709442138671875">
        <ele>548.5999755859375</ele>
        <time>2020-08-22T12:01:33.000Z</time>
      </trkpt>
      <trkpt lat="43.16307951696217060089111328125" lon="-1.5294795669615268707275390625">
        <ele>548.79998779296875</ele>
        <time>2020-08-22T12:01:38.000Z</time>
      </trkpt>
      <trkpt lat="43.163079433143138885498046875" lon="-1.52947998605668544769287109375">
        <ele>548.5999755859375</ele>
        <time>2020-08-22T12:01:40.000Z</time>
      </trkpt>
      <trkpt lat="43.1630826182663440704345703125" lon="-1.529475040733814239501953125">
        <ele>549.5999755859375</ele>
        <time>2020-08-22T12:06:41.000Z</time>
      </trkpt>
      <trkpt lat="43.1630849651992321014404296875" lon="-1.52947478927671909332275390625">
        <ele>549.4000244140625</ele>
        <time>2020-08-22T12:06:43.000Z</time>
      </trkpt>
      <trkpt lat="43.16311958245933055877685546875" lon="-1.52948266826570034027099609375">
        <ele>549.20001220703125</ele>
        <time>2020-08-22T12:06:46.000Z</time>
      </trkpt>
      <trkpt lat="43.1632299721240997314453125" lon="-1.5294587798416614532470703125">
        <ele>549.4000244140625</ele>
        <time>2020-08-22T12:06:53.000Z</time>
      </trkpt>
      <trkpt lat="43.16324715502560138702392578125" lon="-1.529454253613948822021484375">
        <ele>549.5999755859375</ele>
        <time>2020-08-22T12:06:54.000Z</time>
      </trkpt>
      <trkpt lat="43.1633863784372806549072265625" lon="-1.52942709624767303466796875">
        <ele>550.5999755859375</ele>
        <time>2020-08-22T12:07:02.000Z</time>
      </trkpt>
      <trkpt lat="43.16355091519653797149658203125" lon="-1.52940890751779079437255859375">
        <ele>551.20001220703125</ele>
        <time>2020-08-22T12:07:11.000Z</time>
      </trkpt>
      <trkpt lat="43.163652084767818450927734375" lon="-1.52941343374550342559814453125">
        <ele>551.5999755859375</ele>
        <time>2020-08-22T12:07:16.000Z</time>
      </trkpt>
      <trkpt lat="43.1637342274188995361328125" lon="-1.52943472377955913543701171875">
        <ele>551.5999755859375</ele>
        <time>2020-08-22T12:07:20.000Z</time>
      </trkpt>
      <trkpt lat="43.16393396817147731781005859375" lon="-1.52948920615017414093017578125">
        <ele>551.20001220703125</ele>
        <time>2020-08-22T12:07:28.000Z</time>
      </trkpt>
      <trkpt lat="43.16410328261554241180419921875" lon="-1.5295358933508396148681640625">
        <ele>550.4000244140625</ele>
        <time>2020-08-22T12:07:32.000Z</time>
      </trkpt>
      <trkpt lat="43.1642108224332332611083984375" lon="-1.5295714326202869415283203125">
        <ele>550</ele>
        <time>2020-08-22T12:07:34.000Z</time>
      </trkpt>
      <trkpt lat="43.16439027898013591766357421875" lon="-1.52963639236986637115478515625">
        <ele>549.4000244140625</ele>
        <time>2020-08-22T12:07:37.000Z</time>
      </trkpt>
      <trkpt lat="43.16452992148697376251220703125" lon="-1.52969154529273509979248046875">
        <ele>549.4000244140625</ele>
        <time>2020-08-22T12:07:40.000Z</time>
      </trkpt>
      <trkpt lat="43.16463486291468143463134765625" lon="-1.52973094023764133453369140625">
        <ele>550.4000244140625</ele>
        <time>2020-08-22T12:07:44.000Z</time>
      </trkpt>
      <trkpt lat="43.1646560691297054290771484375" lon="-1.52973881922662258148193359375">
        <ele>550.5999755859375</ele>
        <time>2020-08-22T12:07:45.000Z</time>
      </trkpt>
      <trkpt lat="43.1647583283483982086181640625" lon="-1.52978776954114437103271484375">
        <ele>551.20001220703125</ele>
        <time>2020-08-22T12:07:50.000Z</time>
      </trkpt>
      <trkpt lat="43.16483519040048122406005859375" lon="-1.52982431463897228240966796875">
        <ele>551.5999755859375</ele>
        <time>2020-08-22T12:07:54.000Z</time>
      </trkpt>
      <trkpt lat="43.16490434110164642333984375" lon="-1.52987125329673290252685546875">
        <ele>552.4000244140625</ele>
        <time>2020-08-22T12:07:58.000Z</time>
      </trkpt>
      <trkpt lat="43.16496200859546661376953125" lon="-1.529884748160839080810546875">
        <ele>552.79998779296875</ele>
        <time>2020-08-22T12:08:01.000Z</time>
      </trkpt>
      <trkpt lat="43.16502613015472888946533203125" lon="-1.5298939682543277740478515625">
        <ele>553</ele>
        <time>2020-08-22T12:08:04.000Z</time>
      </trkpt>
      <trkpt lat="43.1652116216719150543212890625" lon="-1.529931016266345977783203125">
        <ele>553.4000244140625</ele>
        <time>2020-08-22T12:08:13.000Z</time>
      </trkpt>
      <trkpt lat="43.16526643931865692138671875" lon="-1.52995071373879909515380859375">
        <ele>553.79998779296875</ele>
        <time>2020-08-22T12:08:16.000Z</time>
      </trkpt>
      <trkpt lat="43.1653645075857639312744140625" lon="-1.529951132833957672119140625">
        <ele>554.4000244140625</ele>
        <time>2020-08-22T12:08:21.000Z</time>
      </trkpt>
      <trkpt lat="43.1654208339750766754150390625" lon="-1.52995876036584377288818359375">
        <ele>554.79998779296875</ele>
        <time>2020-08-22T12:08:24.000Z</time>
      </trkpt>
      <trkpt lat="43.16553038544952869415283203125" lon="-1.52997351251542568206787109375">
        <ele>555.5999755859375</ele>
        <time>2020-08-22T12:08:30.000Z</time>
      </trkpt>
      <trkpt lat="43.165547735989093780517578125" lon="-1.52997049503028392791748046875">
        <ele>555.79998779296875</ele>
        <time>2020-08-22T12:08:31.000Z</time>
      </trkpt>
      <trkpt lat="43.1656156294047832489013671875" lon="-1.529971249401569366455078125">
        <ele>557</ele>
        <time>2020-08-22T12:08:35.000Z</time>
      </trkpt>
      <trkpt lat="43.16564907319843769073486328125" lon="-1.52997720055282115936279296875">
        <ele>557.20001220703125</ele>
        <time>2020-08-22T12:08:37.000Z</time>
      </trkpt>
      <trkpt lat="43.16575191915035247802734375" lon="-1.5300163440406322479248046875">
        <ele>558.20001220703125</ele>
        <time>2020-08-22T12:08:43.000Z</time>
      </trkpt>
      <trkpt lat="43.1658161245286464691162109375" lon="-1.5300411544740200042724609375">
        <ele>558.79998779296875</ele>
        <time>2020-08-22T12:08:47.000Z</time>
      </trkpt>
      <trkpt lat="43.16584789194166660308837890625" lon="-1.53005314059555530548095703125">
        <ele>559.4000244140625</ele>
        <time>2020-08-22T12:08:49.000Z</time>
      </trkpt>
      <trkpt lat="43.16593791358172893524169921875" lon="-1.530106030404567718505859375">
        <ele>560</ele>
        <time>2020-08-22T12:08:55.000Z</time>
      </trkpt>
      <trkpt lat="43.16595098935067653656005859375" lon="-1.5301189385354518890380859375">
        <ele>560.4000244140625</ele>
        <time>2020-08-22T12:08:56.000Z</time>
      </trkpt>
      <trkpt lat="43.1660333834588527679443359375" lon="-1.5301685594022274017333984375">
        <ele>561.20001220703125</ele>
        <time>2020-08-22T12:09:02.000Z</time>
      </trkpt>
      <trkpt lat="43.16604436375200748443603515625" lon="-1.53018021024763584136962890625">
        <ele>561.4000244140625</ele>
        <time>2020-08-22T12:09:03.000Z</time>
      </trkpt>
      <trkpt lat="43.16611091606318950653076171875" lon="-1.53021792881190776824951171875">
        <ele>562.4000244140625</ele>
        <time>2020-08-22T12:09:08.000Z</time>
      </trkpt>
      <trkpt lat="43.16612617112696170806884765625" lon="-1.530223377048969268798828125">
        <ele>562.5999755859375</ele>
        <time>2020-08-22T12:09:09.000Z</time>
      </trkpt>
      <trkpt lat="43.1661845929920673370361328125" lon="-1.53024919331073760986328125">
        <ele>563.20001220703125</ele>
        <time>2020-08-22T12:09:13.000Z</time>
      </trkpt>
      <trkpt lat="43.16625558771193027496337890625" lon="-1.53027073480188846588134765625">
        <ele>564.20001220703125</ele>
        <time>2020-08-22T12:09:18.000Z</time>
      </trkpt>
      <trkpt lat="43.1662694178521633148193359375" lon="-1.53027576394379138946533203125">
        <ele>564.4000244140625</ele>
        <time>2020-08-22T12:09:19.000Z</time>
      </trkpt>
      <trkpt lat="43.16631409339606761932373046875" lon="-1.530284397304058074951171875">
        <ele>565.4000244140625</ele>
        <time>2020-08-22T12:09:22.000Z</time>
      </trkpt>
      <trkpt lat="43.166373856365680694580078125" lon="-1.53030241839587688446044921875">
        <ele>566.4000244140625</ele>
        <time>2020-08-22T12:09:26.000Z</time>
      </trkpt>
      <trkpt lat="43.16641635261476039886474609375" lon="-1.53032572008669376373291015625">
        <ele>567</ele>
        <time>2020-08-22T12:09:29.000Z</time>
      </trkpt>
      <trkpt lat="43.1664727628231048583984375" lon="-1.530360840260982513427734375">
        <ele>567.4000244140625</ele>
        <time>2020-08-22T12:09:33.000Z</time>
      </trkpt>
      <trkpt lat="43.16653789021074771881103515625" lon="-1.5304216928780078887939453125">
        <ele>568</ele>
        <time>2020-08-22T12:09:38.000Z</time>
      </trkpt>
      <trkpt lat="43.1665641255676746368408203125" lon="-1.53044809587299823760986328125">
        <ele>568.5999755859375</ele>
        <time>2020-08-22T12:09:40.000Z</time>
      </trkpt>
      <trkpt lat="43.1666231341660022735595703125" lon="-1.5305306576192378997802734375">
        <ele>569.20001220703125</ele>
        <time>2020-08-22T12:09:45.000Z</time>
      </trkpt>
      <trkpt lat="43.1666486151516437530517578125" lon="-1.5305568091571331024169921875">
        <ele>569.5999755859375</ele>
        <time>2020-08-22T12:09:47.000Z</time>
      </trkpt>
      <trkpt lat="43.16671323962509632110595703125" lon="-1.53062042780220508575439453125">
        <ele>570.20001220703125</ele>
        <time>2020-08-22T12:09:52.000Z</time>
      </trkpt>
      <trkpt lat="43.16673721186816692352294921875" lon="-1.53064792044460773468017578125">
        <ele>570.5999755859375</ele>
        <time>2020-08-22T12:09:54.000Z</time>
      </trkpt>
      <trkpt lat="43.1667947955429553985595703125" lon="-1.53068999759852886199951171875">
        <ele>571.5999755859375</ele>
        <time>2020-08-22T12:09:58.000Z</time>
      </trkpt>
      <trkpt lat="43.1668092124164104461669921875" lon="-1.5307016484439373016357421875">
        <ele>571.79998779296875</ele>
        <time>2020-08-22T12:09:59.000Z</time>
      </trkpt>
      <trkpt lat="43.16687031649053096771240234375" lon="-1.53073391877114772796630859375">
        <ele>572.20001220703125</ele>
        <time>2020-08-22T12:10:03.000Z</time>
      </trkpt>
      <trkpt lat="43.16690065898001194000244140625" lon="-1.53074397705495357513427734375">
        <ele>572.79998779296875</ele>
        <time>2020-08-22T12:10:05.000Z</time>
      </trkpt>
      <trkpt lat="43.166945837438106536865234375" lon="-1.53075772337615489959716796875">
        <ele>573.4000244140625</ele>
        <time>2020-08-22T12:10:08.000Z</time>
      </trkpt>
      <trkpt lat="43.16700794734060764312744140625" lon="-1.53075420297682285308837890625">
        <ele>574</ele>
        <time>2020-08-22T12:10:12.000Z</time>
      </trkpt>
      <trkpt lat="43.16705287434160709381103515625" lon="-1.53076526708900928497314453125">
        <ele>574.79998779296875</ele>
        <time>2020-08-22T12:10:15.000Z</time>
      </trkpt>
      <trkpt lat="43.1670670397579669952392578125" lon="-1.5307663567364215850830078125">
        <ele>575.20001220703125</ele>
        <time>2020-08-22T12:10:16.000Z</time>
      </trkpt>
      <trkpt lat="43.1671672873198986053466796875" lon="-1.53078739531338214874267578125">
        <ele>576.20001220703125</ele>
        <time>2020-08-22T12:10:23.000Z</time>
      </trkpt>
      <trkpt lat="43.16718153655529022216796875" lon="-1.5307928435504436492919921875">
        <ele>576.4000244140625</ele>
        <time>2020-08-22T12:10:24.000Z</time>
      </trkpt>
      <trkpt lat="43.16726845689117908477783203125" lon="-1.530795358121395111083984375">
        <ele>577.20001220703125</ele>
        <time>2020-08-22T12:10:30.000Z</time>
      </trkpt>
      <trkpt lat="43.16729955375194549560546875" lon="-1.53080348856747150421142578125">
        <ele>577.5999755859375</ele>
        <time>2020-08-22T12:10:32.000Z</time>
      </trkpt>
      <trkpt lat="43.1673905812203884124755859375" lon="-1.53082863427698612213134765625">
        <ele>578.4000244140625</ele>
        <time>2020-08-22T12:10:38.000Z</time>
      </trkpt>
      <trkpt lat="43.16744917072355747222900390625" lon="-1.5308471582829952239990234375">
        <ele>579</ele>
        <time>2020-08-22T12:10:42.000Z</time>
      </trkpt>
      <trkpt lat="43.16751102916896343231201171875" lon="-1.53086216188967227935791015625">
        <ele>579.4000244140625</ele>
        <time>2020-08-22T12:10:46.000Z</time>
      </trkpt>
      <trkpt lat="43.167600966989994049072265625" lon="-1.5309001319110393524169921875">
        <ele>580.5999755859375</ele>
        <time>2020-08-22T12:10:52.000Z</time>
      </trkpt>
      <trkpt lat="43.16761563532054424285888671875" lon="-1.530899293720722198486328125">
        <ele>580.79998779296875</ele>
        <time>2020-08-22T12:10:53.000Z</time>
      </trkpt>
      <trkpt lat="43.1676889769732952117919921875" lon="-1.53090775944292545318603515625">
        <ele>581.4000244140625</ele>
        <time>2020-08-22T12:10:58.000Z</time>
      </trkpt>
      <trkpt lat="43.16770347766578197479248046875" lon="-1.5309108607470989227294921875">
        <ele>581.4000244140625</ele>
        <time>2020-08-22T12:10:59.000Z</time>
      </trkpt>
      <trkpt lat="43.16773138940334320068359375" lon="-1.53092100284993648529052734375">
        <ele>582.5999755859375</ele>
        <time>2020-08-22T12:11:01.000Z</time>
      </trkpt>
      <trkpt lat="43.1678063236176967620849609375" lon="-1.5309457294642925262451171875">
        <ele>583.5999755859375</ele>
        <time>2020-08-22T12:11:06.000Z</time>
      </trkpt>
      <trkpt lat="43.16787513904273509979248046875" lon="-1.5309869684278964996337890625">
        <ele>584.20001220703125</ele>
        <time>2020-08-22T12:11:11.000Z</time>
      </trkpt>
      <trkpt lat="43.1679179705679416656494140625" lon="-1.53100951574742794036865234375">
        <ele>584.5999755859375</ele>
        <time>2020-08-22T12:11:14.000Z</time>
      </trkpt>
      <trkpt lat="43.16797337494790554046630859375" lon="-1.53104186989367008209228515625">
        <ele>585.5999755859375</ele>
        <time>2020-08-22T12:11:18.000Z</time>
      </trkpt>
      <trkpt lat="43.16798754036426544189453125" lon="-1.531049497425556182861328125">
        <ele>585.5999755859375</ele>
        <time>2020-08-22T12:11:19.000Z</time>
      </trkpt>
      <trkpt lat="43.1680633127689361572265625" lon="-1.531112529337406158447265625">
        <ele>586.5999755859375</ele>
        <time>2020-08-22T12:11:25.000Z</time>
      </trkpt>
      <trkpt lat="43.16812424920499324798583984375" lon="-1.5311720408499240875244140625">
        <ele>587.4000244140625</ele>
        <time>2020-08-22T12:11:30.000Z</time>
      </trkpt>
      <trkpt lat="43.1681707687675952911376953125" lon="-1.53122057206928730010986328125">
        <ele>588.20001220703125</ele>
        <time>2020-08-22T12:11:34.000Z</time>
      </trkpt>
      <trkpt lat="43.16819197498261928558349609375" lon="-1.531247980892658233642578125">
        <ele>588.5999755859375</ele>
        <time>2020-08-22T12:11:36.000Z</time>
      </trkpt>
      <trkpt lat="43.16825835965573787689208984375" lon="-1.53129617683589458465576171875">
        <ele>589.79998779296875</ele>
        <time>2020-08-22T12:11:41.000Z</time>
      </trkpt>
      <trkpt lat="43.16827177070081233978271484375" lon="-1.53130824677646160125732421875">
        <ele>589.79998779296875</ele>
        <time>2020-08-22T12:11:42.000Z</time>
      </trkpt>
      <trkpt lat="43.16837235353887081146240234375" lon="-1.53142509050667285919189453125">
        <ele>590.5999755859375</ele>
        <time>2020-08-22T12:11:50.000Z</time>
      </trkpt>
      <trkpt lat="43.16839967854321002960205078125" lon="-1.53145208023488521575927734375">
        <ele>590.79998779296875</ele>
        <time>2020-08-22T12:11:52.000Z</time>
      </trkpt>
      <trkpt lat="43.168504536151885986328125" lon="-1.5315646491944789886474609375">
        <ele>591.5999755859375</ele>
        <time>2020-08-22T12:12:00.000Z</time>
      </trkpt>
      <trkpt lat="43.168531358242034912109375" lon="-1.531590633094310760498046875">
        <ele>591.79998779296875</ele>
        <time>2020-08-22T12:12:02.000Z</time>
      </trkpt>
      <trkpt lat="43.16858793608844280242919921875" lon="-1.531672440469264984130859375">
        <ele>592.5999755859375</ele>
        <time>2020-08-22T12:12:07.000Z</time>
      </trkpt>
      <trkpt lat="43.16865666769444942474365234375" lon="-1.53176757507026195526123046875">
        <ele>592.79998779296875</ele>
        <time>2020-08-22T12:12:13.000Z</time>
      </trkpt>
      <trkpt lat="43.16867728717625141143798828125" lon="-1.531807892024517059326171875">
        <ele>593.20001220703125</ele>
        <time>2020-08-22T12:12:15.000Z</time>
      </trkpt>
      <trkpt lat="43.1687541492283344268798828125" lon="-1.53194569051265716552734375">
        <ele>594</ele>
        <time>2020-08-22T12:12:22.000Z</time>
      </trkpt>
      <trkpt lat="43.16878675483167171478271484375" lon="-1.53200377710163593292236328125">
        <ele>594.4000244140625</ele>
        <time>2020-08-22T12:12:25.000Z</time>
      </trkpt>
      <trkpt lat="43.1688359566032886505126953125" lon="-1.53207711875438690185546875">
        <ele>595.20001220703125</ele>
        <time>2020-08-22T12:12:29.000Z</time>
      </trkpt>
      <trkpt lat="43.16888750530779361724853515625" lon="-1.5321515500545501708984375">
        <ele>595.79998779296875</ele>
        <time>2020-08-22T12:12:33.000Z</time>
      </trkpt>
      <trkpt lat="43.16894416697323322296142578125" lon="-1.53225942514836788177490234375">
        <ele>596.4000244140625</ele>
        <time>2020-08-22T12:12:38.000Z</time>
      </trkpt>
      <trkpt lat="43.16898741759359836578369140625" lon="-1.53231089003384113311767578125">
        <ele>596.5999755859375</ele>
        <time>2020-08-22T12:12:41.000Z</time>
      </trkpt>
      <trkpt lat="43.1690964661538600921630859375" lon="-1.5324521251022815704345703125">
        <ele>597.20001220703125</ele>
        <time>2020-08-22T12:12:49.000Z</time>
      </trkpt>
      <trkpt lat="43.16910979337990283966064453125" lon="-1.5324705652892589569091796875">
        <ele>597.4000244140625</ele>
        <time>2020-08-22T12:12:50.000Z</time>
      </trkpt>
      <trkpt lat="43.169204257428646087646484375" lon="-1.532582379877567291259765625">
        <ele>598</ele>
        <time>2020-08-22T12:12:58.000Z</time>
      </trkpt>
      <trkpt lat="43.16920258104801177978515625" lon="-1.53258003294467926025390625">
        <ele>598.4000244140625</ele>
        <time>2020-08-22T12:15:49.000Z</time>
      </trkpt>
      <trkpt lat="43.16920266486704349517822265625" lon="-1.53257994912564754486083984375">
        <ele>598.5999755859375</ele>
        <time>2020-08-22T12:15:52.000Z</time>
      </trkpt>
      <trkpt lat="43.1692305766046047210693359375" lon="-1.532616578042507171630859375">
        <ele>598.20001220703125</ele>
        <time>2020-08-22T12:15:55.000Z</time>
      </trkpt>
      <trkpt lat="43.16925161518156528472900390625" lon="-1.53264398686587810516357421875">
        <ele>598.20001220703125</ele>
        <time>2020-08-22T12:15:57.000Z</time>
      </trkpt>
      <trkpt lat="43.16931867040693759918212890625" lon="-1.532719843089580535888671875">
        <ele>598.4000244140625</ele>
        <time>2020-08-22T12:16:02.000Z</time>
      </trkpt>
      <trkpt lat="43.1694770045578479766845703125" lon="-1.53284532018005847930908203125">
        <ele>598.5999755859375</ele>
        <time>2020-08-22T12:16:11.000Z</time>
      </trkpt>
      <trkpt lat="43.169637434184551239013671875" lon="-1.5329751558601856231689453125">
        <ele>598.5999755859375</ele>
        <time>2020-08-22T12:16:19.000Z</time>
      </trkpt>
      <trkpt lat="43.169829882681369781494140625" lon="-1.5331602282822132110595703125">
        <ele>598.5999755859375</ele>
        <time>2020-08-22T12:16:29.000Z</time>
      </trkpt>
      <trkpt lat="43.169981427490711212158203125" lon="-1.5333674289286136627197265625">
        <ele>599</ele>
        <time>2020-08-22T12:16:38.000Z</time>
      </trkpt>
      <trkpt lat="43.17002325318753719329833984375" lon="-1.5334445424377918243408203125">
        <ele>599.4000244140625</ele>
        <time>2020-08-22T12:16:41.000Z</time>
      </trkpt>
      <trkpt lat="43.17010858096182346343994140625" lon="-1.53358795680105686187744140625">
        <ele>599.79998779296875</ele>
        <time>2020-08-22T12:16:47.000Z</time>
      </trkpt>
      <trkpt lat="43.17022508941590785980224609375" lon="-1.53379348106682300567626953125">
        <ele>599.79998779296875</ele>
        <time>2020-08-22T12:16:55.000Z</time>
      </trkpt>
      <trkpt lat="43.17040781490504741668701171875" lon="-1.53409338556230068206787109375">
        <ele>599.4000244140625</ele>
        <time>2020-08-22T12:17:04.000Z</time>
      </trkpt>
      <trkpt lat="43.17056975327432155609130859375" lon="-1.53441173024475574493408203125">
        <ele>598.4000244140625</ele>
        <time>2020-08-22T12:17:11.000Z</time>
      </trkpt>
      <trkpt lat="43.17060613073408603668212890625" lon="-1.53453268110752105712890625">
        <ele>598.20001220703125</ele>
        <time>2020-08-22T12:17:13.000Z</time>
      </trkpt>
      <trkpt lat="43.1706102378666400909423828125" lon="-1.534672491252422332763671875">
        <ele>597.79998779296875</ele>
        <time>2020-08-22T12:17:15.000Z</time>
      </trkpt>
      <trkpt lat="43.1705887801945209503173828125" lon="-1.53490391559898853302001953125">
        <ele>597.20001220703125</ele>
        <time>2020-08-22T12:17:18.000Z</time>
      </trkpt>
      <trkpt lat="43.17057344131171703338623046875" lon="-1.53521102853119373321533203125">
        <ele>596.4000244140625</ele>
        <time>2020-08-22T12:17:22.000Z</time>
      </trkpt>
      <trkpt lat="43.1706236489117145538330078125" lon="-1.53548729605972766876220703125">
        <ele>596.79998779296875</ele>
        <time>2020-08-22T12:17:27.000Z</time>
      </trkpt>
      <trkpt lat="43.170697577297687530517578125" lon="-1.5357250906527042388916015625">
        <ele>598.20001220703125</ele>
        <time>2020-08-22T12:17:34.000Z</time>
      </trkpt>
      <trkpt lat="43.1707057915627956390380859375" lon="-1.53574696741998195648193359375">
        <ele>598</ele>
        <time>2020-08-22T12:17:35.000Z</time>
      </trkpt>
      <trkpt lat="43.17074007354676723480224609375" lon="-1.535820476710796356201171875">
        <ele>598.79998779296875</ele>
        <time>2020-08-22T12:17:40.000Z</time>
      </trkpt>
      <trkpt lat="43.17077569663524627685546875" lon="-1.53589121997356414794921875">
        <ele>599.20001220703125</ele>
        <time>2020-08-22T12:17:44.000Z</time>
      </trkpt>
      <trkpt lat="43.17081567831337451934814453125" lon="-1.535948216915130615234375">
        <ele>599.5999755859375</ele>
        <time>2020-08-22T12:17:47.000Z</time>
      </trkpt>
      <trkpt lat="43.1708982400596141815185546875" lon="-1.53609146364033222198486328125">
        <ele>600.20001220703125</ele>
        <time>2020-08-22T12:17:54.000Z</time>
      </trkpt>
      <trkpt lat="43.170924894511699676513671875" lon="-1.5361260809004306793212890625">
        <ele>600.20001220703125</ele>
        <time>2020-08-22T12:17:56.000Z</time>
      </trkpt>
      <trkpt lat="43.17106210626661777496337890625" lon="-1.536304950714111328125">
        <ele>600.5999755859375</ele>
        <time>2020-08-22T12:18:06.000Z</time>
      </trkpt>
      <trkpt lat="43.17115363664925098419189453125" lon="-1.5364043600857257843017578125">
        <ele>601.20001220703125</ele>
        <time>2020-08-22T12:18:12.000Z</time>
      </trkpt>
      <trkpt lat="43.17118012346327304840087890625" lon="-1.53643931262195110321044921875">
        <ele>601.4000244140625</ele>
        <time>2020-08-22T12:18:14.000Z</time>
      </trkpt>
      <trkpt lat="43.1712551414966583251953125" lon="-1.5365069545805454254150390625">
        <ele>602.20001220703125</ele>
        <time>2020-08-22T12:18:19.000Z</time>
      </trkpt>
      <trkpt lat="43.1712999008595943450927734375" lon="-1.53654945082962512969970703125">
        <ele>602.4000244140625</ele>
        <time>2020-08-22T12:18:22.000Z</time>
      </trkpt>
      <trkpt lat="43.17143158055841922760009765625" lon="-1.5366353653371334075927734375">
        <ele>603</ele>
        <time>2020-08-22T12:18:30.000Z</time>
      </trkpt>
      <trkpt lat="43.17148254252970218658447265625" lon="-1.536664031445980072021484375">
        <ele>603.20001220703125</ele>
        <time>2020-08-22T12:18:33.000Z</time>
      </trkpt>
      <trkpt lat="43.17160642705857753753662109375" lon="-1.53672379441559314727783203125">
        <ele>604</ele>
        <time>2020-08-22T12:18:40.000Z</time>
      </trkpt>
      <trkpt lat="43.171773813664913177490234375" lon="-1.53679437004029750823974609375">
        <ele>604.20001220703125</ele>
        <time>2020-08-22T12:18:49.000Z</time>
      </trkpt>
      <trkpt lat="43.1719707883894443511962890625" lon="-1.53694474138319492340087890625">
        <ele>603.5999755859375</ele>
        <time>2020-08-22T12:18:57.000Z</time>
      </trkpt>
      <trkpt lat="43.17212828435003757476806640625" lon="-1.53708974830806255340576171875">
        <ele>602.79998779296875</ele>
        <time>2020-08-22T12:19:01.000Z</time>
      </trkpt>
      <trkpt lat="43.17221545614302158355712890625" lon="-1.53718496672809123992919921875">
        <ele>602.20001220703125</ele>
        <time>2020-08-22T12:19:03.000Z</time>
      </trkpt>
      <trkpt lat="43.17243958823382854461669921875" lon="-1.53746190480887889862060546875">
        <ele>601.20001220703125</ele>
        <time>2020-08-22T12:19:08.000Z</time>
      </trkpt>
      <trkpt lat="43.17257168702781200408935546875" lon="-1.53766206465661525726318359375">
        <ele>601.20001220703125</ele>
        <time>2020-08-22T12:19:12.000Z</time>
      </trkpt>
      <trkpt lat="43.1726299412548542022705078125" lon="-1.53773792088031768798828125">
        <ele>602.4000244140625</ele>
        <time>2020-08-22T12:19:15.000Z</time>
      </trkpt>
      <trkpt lat="43.172664642333984375" lon="-1.5377742983400821685791015625">
        <ele>603</ele>
        <time>2020-08-22T12:19:17.000Z</time>
      </trkpt>
      <trkpt lat="43.1726936437189579010009765625" lon="-1.5378071554005146026611328125">
        <ele>603.5999755859375</ele>
        <time>2020-08-22T12:19:19.000Z</time>
      </trkpt>
      <trkpt lat="43.172758519649505615234375" lon="-1.53784914873540401458740234375">
        <ele>604.79998779296875</ele>
        <time>2020-08-22T12:19:23.000Z</time>
      </trkpt>
      <trkpt lat="43.17278978414833545684814453125" lon="-1.53786356560885906219482421875">
        <ele>605.4000244140625</ele>
        <time>2020-08-22T12:19:25.000Z</time>
      </trkpt>
      <trkpt lat="43.1728163547813892364501953125" lon="-1.53787999413907527923583984375">
        <ele>606</ele>
        <time>2020-08-22T12:19:27.000Z</time>
      </trkpt>
      <trkpt lat="43.1728656403720378875732421875" lon="-1.537920646369457244873046875">
        <ele>607.20001220703125</ele>
        <time>2020-08-22T12:19:31.000Z</time>
      </trkpt>
      <trkpt lat="43.17287854850292205810546875" lon="-1.5379271842539310455322265625">
        <ele>607.4000244140625</ele>
        <time>2020-08-22T12:19:32.000Z</time>
      </trkpt>
      <trkpt lat="43.1729015149176120758056640625" lon="-1.53794738464057445526123046875">
        <ele>608.20001220703125</ele>
        <time>2020-08-22T12:19:34.000Z</time>
      </trkpt>
      <trkpt lat="43.1729514710605144500732421875" lon="-1.5379754640161991119384765625">
        <ele>609.4000244140625</ele>
        <time>2020-08-22T12:19:38.000Z</time>
      </trkpt>
      <trkpt lat="43.17297468893229961395263671875" lon="-1.53799918480217456817626953125">
        <ele>609.5999755859375</ele>
        <time>2020-08-22T12:19:40.000Z</time>
      </trkpt>
      <trkpt lat="43.17300654016435146331787109375" lon="-1.53803832828998565673828125">
        <ele>610.4000244140625</ele>
        <time>2020-08-22T12:19:43.000Z</time>
      </trkpt>
      <trkpt lat="43.17305783741176128387451171875" lon="-1.5381005220115184783935546875">
        <ele>611.4000244140625</ele>
        <time>2020-08-22T12:19:48.000Z</time>
      </trkpt>
      <trkpt lat="43.1730775348842144012451171875" lon="-1.53812524862587451934814453125">
        <ele>611.5999755859375</ele>
        <time>2020-08-22T12:19:50.000Z</time>
      </trkpt>
      <trkpt lat="43.1731358729302883148193359375" lon="-1.53820437379181385040283203125">
        <ele>612.5999755859375</ele>
        <time>2020-08-22T12:19:56.000Z</time>
      </trkpt>
      <trkpt lat="43.1731487810611724853515625" lon="-1.53824058361351490020751953125">
        <ele>613.20001220703125</ele>
        <time>2020-08-22T12:19:58.000Z</time>
      </trkpt>
      <trkpt lat="43.17316797561943531036376953125" lon="-1.53827042318880558013916015625">
        <ele>613.5999755859375</ele>
        <time>2020-08-22T12:20:00.000Z</time>
      </trkpt>
      <trkpt lat="43.1732136569917201995849609375" lon="-1.53832507319748401641845703125">
        <ele>614.4000244140625</ele>
        <time>2020-08-22T12:20:04.000Z</time>
      </trkpt>
      <trkpt lat="43.17322187125682830810546875" lon="-1.53834384866058826446533203125">
        <ele>614.5999755859375</ele>
        <time>2020-08-22T12:20:05.000Z</time>
      </trkpt>
      <trkpt lat="43.1732900999486446380615234375" lon="-1.538443006575107574462890625">
        <ele>615.5999755859375</ele>
        <time>2020-08-22T12:20:12.000Z</time>
      </trkpt>
      <trkpt lat="43.17333578132092952728271484375" lon="-1.53852137736976146697998046875">
        <ele>616.5999755859375</ele>
        <time>2020-08-22T12:20:17.000Z</time>
      </trkpt>
      <trkpt lat="43.17335598170757293701171875" lon="-1.538552977144718170166015625">
        <ele>617</ele>
        <time>2020-08-22T12:20:19.000Z</time>
      </trkpt>
      <trkpt lat="43.17341021262109279632568359375" lon="-1.53864442370831966400146484375">
        <ele>617.79998779296875</ele>
        <time>2020-08-22T12:20:25.000Z</time>
      </trkpt>
      <trkpt lat="43.1734164990484714508056640625" lon="-1.5386614389717578887939453125">
        <ele>618</ele>
        <time>2020-08-22T12:20:26.000Z</time>
      </trkpt>
      <trkpt lat="43.173471651971340179443359375" lon="-1.538743078708648681640625">
        <ele>619</ele>
        <time>2020-08-22T12:20:32.000Z</time>
      </trkpt>
      <trkpt lat="43.1734822131693363189697265625" lon="-1.53875405900180339813232421875">
        <ele>619.20001220703125</ele>
        <time>2020-08-22T12:20:33.000Z</time>
      </trkpt>
      <trkpt lat="43.173534683883190155029296875" lon="-1.53883720748126506805419921875">
        <ele>620.20001220703125</ele>
        <time>2020-08-22T12:20:39.000Z</time>
      </trkpt>
      <trkpt lat="43.173541389405727386474609375" lon="-1.53885313309729099273681640625">
        <ele>620.4000244140625</ele>
        <time>2020-08-22T12:20:40.000Z</time>
      </trkpt>
      <trkpt lat="43.17357768304646015167236328125" lon="-1.53890694491565227508544921875">
        <ele>621</ele>
        <time>2020-08-22T12:20:44.000Z</time>
      </trkpt>
      <trkpt lat="43.17363367415964603424072265625" lon="-1.5389511175453662872314453125">
        <ele>622</ele>
        <time>2020-08-22T12:20:49.000Z</time>
      </trkpt>
      <trkpt lat="43.17364339716732501983642578125" lon="-1.53896209783852100372314453125">
        <ele>622</ele>
        <time>2020-08-22T12:20:50.000Z</time>
      </trkpt>
      <trkpt lat="43.17368564195930957794189453125" lon="-1.539030410349369049072265625">
        <ele>623</ele>
        <time>2020-08-22T12:20:55.000Z</time>
      </trkpt>
      <trkpt lat="43.1737603247165679931640625" lon="-1.53910593129694461822509765625">
        <ele>624.4000244140625</ele>
        <time>2020-08-22T12:21:02.000Z</time>
      </trkpt>
      <trkpt lat="43.173773400485515594482421875" lon="-1.539112217724323272705078125">
        <ele>624.5999755859375</ele>
        <time>2020-08-22T12:21:03.000Z</time>
      </trkpt>
      <trkpt lat="43.17381857894361019134521484375" lon="-1.5391521155834197998046875">
        <ele>625.4000244140625</ele>
        <time>2020-08-22T12:21:07.000Z</time>
      </trkpt>
      <trkpt lat="43.17384640686213970184326171875" lon="-1.53919327072799205780029296875">
        <ele>626</ele>
        <time>2020-08-22T12:21:10.000Z</time>
      </trkpt>
      <trkpt lat="43.17386635579168796539306640625" lon="-1.53921808116137981414794921875">
        <ele>626.5999755859375</ele>
        <time>2020-08-22T12:21:12.000Z</time>
      </trkpt>
      <trkpt lat="43.17392326891422271728515625" lon="-1.539260409772396087646484375">
        <ele>627.79998779296875</ele>
        <time>2020-08-22T12:21:17.000Z</time>
      </trkpt>
      <trkpt lat="43.17394464276731014251708984375" lon="-1.53927884995937347412109375">
        <ele>628</ele>
        <time>2020-08-22T12:21:19.000Z</time>
      </trkpt>
      <trkpt lat="43.17400214262306690216064453125" lon="-1.53932587243616580963134765625">
        <ele>629</ele>
        <time>2020-08-22T12:21:24.000Z</time>
      </trkpt>
      <trkpt lat="43.1740473210811614990234375" lon="-1.53936141170561313629150390625">
        <ele>630</ele>
        <time>2020-08-22T12:21:28.000Z</time>
      </trkpt>
      <trkpt lat="43.1741277873516082763671875" lon="-1.53942662291228771209716796875">
        <ele>631.20001220703125</ele>
        <time>2020-08-22T12:21:35.000Z</time>
      </trkpt>
      <trkpt lat="43.17413994111120700836181640625" lon="-1.53943483717739582061767578125">
        <ele>631.4000244140625</ele>
        <time>2020-08-22T12:21:36.000Z</time>
      </trkpt>
      <trkpt lat="43.1741792522370815277099609375" lon="-1.5394825302064418792724609375">
        <ele>632.20001220703125</ele>
        <time>2020-08-22T12:21:40.000Z</time>
      </trkpt>
      <trkpt lat="43.17422845400869846343994140625" lon="-1.53950549662113189697265625">
        <ele>633</ele>
        <time>2020-08-22T12:21:44.000Z</time>
      </trkpt>
      <trkpt lat="43.17425410263240337371826171875" lon="-1.53951312415301799774169921875">
        <ele>633.4000244140625</ele>
        <time>2020-08-22T12:21:46.000Z</time>
      </trkpt>
      <trkpt lat="43.17432618699967861175537109375" lon="-1.53955738060176372528076171875">
        <ele>634.4000244140625</ele>
        <time>2020-08-22T12:21:52.000Z</time>
      </trkpt>
      <trkpt lat="43.17435284145176410675048828125" lon="-1.53956743888556957244873046875">
        <ele>635</ele>
        <time>2020-08-22T12:21:54.000Z</time>
      </trkpt>
      <trkpt lat="43.1743978522717952728271484375" lon="-1.5396069176495075225830078125">
        <ele>635.4000244140625</ele>
        <time>2020-08-22T12:21:58.000Z</time>
      </trkpt>
      <trkpt lat="43.17445074208080768585205078125" lon="-1.539629884064197540283203125">
        <ele>636</ele>
        <time>2020-08-22T12:22:02.000Z</time>
      </trkpt>
      <trkpt lat="43.1744773127138614654541015625" lon="-1.53963885270059108734130859375">
        <ele>636.4000244140625</ele>
        <time>2020-08-22T12:22:04.000Z</time>
      </trkpt>
      <trkpt lat="43.17455333657562732696533203125" lon="-1.53967489488422870635986328125">
        <ele>637.20001220703125</ele>
        <time>2020-08-22T12:22:10.000Z</time>
      </trkpt>
      <trkpt lat="43.1745671667158603668212890625" lon="-1.5396805107593536376953125">
        <ele>637.4000244140625</ele>
        <time>2020-08-22T12:22:11.000Z</time>
      </trkpt>
      <trkpt lat="43.17458082921802997589111328125" lon="-1.5396893955767154693603515625">
        <ele>637.79998779296875</ele>
        <time>2020-08-22T12:22:12.000Z</time>
      </trkpt>
      <trkpt lat="43.17466364242136478424072265625" lon="-1.53972669504582881927490234375">
        <ele>638.79998779296875</ele>
        <time>2020-08-22T12:22:18.000Z</time>
      </trkpt>
      <trkpt lat="43.1747810728847980499267578125" lon="-1.53976500034332275390625">
        <ele>639.79998779296875</ele>
        <time>2020-08-22T12:22:26.000Z</time>
      </trkpt>
      <trkpt lat="43.17481066100299358367919921875" lon="-1.53978235088288784027099609375">
        <ele>640.20001220703125</ele>
        <time>2020-08-22T12:22:28.000Z</time>
      </trkpt>
      <trkpt lat="43.17488308064639568328857421875" lon="-1.539825014770030975341796875">
        <ele>640.79998779296875</ele>
        <time>2020-08-22T12:22:33.000Z</time>
      </trkpt>
      <trkpt lat="43.174957931041717529296875" lon="-1.5398623980581760406494140625">
        <ele>641.5999755859375</ele>
        <time>2020-08-22T12:22:38.000Z</time>
      </trkpt>
      <trkpt lat="43.17498332820832729339599609375" lon="-1.539885364472866058349609375">
        <ele>641.79998779296875</ele>
        <time>2020-08-22T12:22:40.000Z</time>
      </trkpt>
      <trkpt lat="43.17503412254154682159423828125" lon="-1.53993456624448299407958984375">
        <ele>642.5999755859375</ele>
        <time>2020-08-22T12:22:44.000Z</time>
      </trkpt>
      <trkpt lat="43.17508609034121036529541015625" lon="-1.53996943496167659759521484375">
        <ele>642.79998779296875</ele>
        <time>2020-08-22T12:22:48.000Z</time>
      </trkpt>
      <trkpt lat="43.17513772286474704742431640625" lon="-1.54001603834331035614013671875">
        <ele>643</ele>
        <time>2020-08-22T12:22:52.000Z</time>
      </trkpt>
      <trkpt lat="43.175201006233692169189453125" lon="-1.5400716103613376617431640625">
        <ele>644</ele>
        <time>2020-08-22T12:22:57.000Z</time>
      </trkpt>
      <trkpt lat="43.1752279959619045257568359375" lon="-1.540089882910251617431640625">
        <ele>644.4000244140625</ele>
        <time>2020-08-22T12:22:59.000Z</time>
      </trkpt>
      <trkpt lat="43.1752672232687473297119140625" lon="-1.540115363895893096923828125">
        <ele>645</ele>
        <time>2020-08-22T12:23:02.000Z</time>
      </trkpt>
      <trkpt lat="43.1753302551805973052978515625" lon="-1.54016154818236827850341796875">
        <ele>645.5999755859375</ele>
        <time>2020-08-22T12:23:07.000Z</time>
      </trkpt>
      <trkpt lat="43.1753859110176563262939453125" lon="-1.54018954373896121978759765625">
        <ele>646.20001220703125</ele>
        <time>2020-08-22T12:23:11.000Z</time>
      </trkpt>
      <trkpt lat="43.1754150800406932830810546875" lon="-1.54020412825047969818115234375">
        <ele>646.4000244140625</ele>
        <time>2020-08-22T12:23:13.000Z</time>
      </trkpt>
      <trkpt lat="43.17549772560596466064453125" lon="-1.540254838764667510986328125">
        <ele>647.4000244140625</ele>
        <time>2020-08-22T12:23:19.000Z</time>
      </trkpt>
      <trkpt lat="43.1755790300667285919189453125" lon="-1.5403468720614910125732421875">
        <ele>647.79998779296875</ele>
        <time>2020-08-22T12:23:26.000Z</time>
      </trkpt>
      <trkpt lat="43.17558196373283863067626953125" lon="-1.54035718180239200592041015625">
        <ele>648</ele>
        <time>2020-08-22T12:23:31.000Z</time>
      </trkpt>
      <trkpt lat="43.17558079026639461517333984375" lon="-1.540357768535614013671875">
        <ele>648.20001220703125</ele>
        <time>2020-08-22T12:23:47.000Z</time>
      </trkpt>
      <trkpt lat="43.17558087408542633056640625" lon="-1.54035852290689945220947265625">
        <ele>648.20001220703125</ele>
        <time>2020-08-22T12:24:01.000Z</time>
      </trkpt>
      <trkpt lat="43.17558079026639461517333984375" lon="-1.540363468229770660400390625">
        <ele>648.4000244140625</ele>
        <time>2020-08-22T12:25:30.000Z</time>
      </trkpt>
      <trkpt lat="43.1755907647311687469482421875" lon="-1.54038081876933574676513671875">
        <ele>648.4000244140625</ele>
        <time>2020-08-22T12:25:33.000Z</time>
      </trkpt>
      <trkpt lat="43.17564189434051513671875" lon="-1.54047016985714435577392578125">
        <ele>648.79998779296875</ele>
        <time>2020-08-22T12:25:39.000Z</time>
      </trkpt>
      <trkpt lat="43.17565572448074817657470703125" lon="-1.5405039489269256591796875">
        <ele>649</ele>
        <time>2020-08-22T12:25:41.000Z</time>
      </trkpt>
      <trkpt lat="43.17572303116321563720703125" lon="-1.54063881374895572662353515625">
        <ele>649.79998779296875</ele>
        <time>2020-08-22T12:25:48.000Z</time>
      </trkpt>
      <trkpt lat="43.17575898952782154083251953125" lon="-1.54076823033392429351806640625">
        <ele>650.79998779296875</ele>
        <time>2020-08-22T12:25:54.000Z</time>
      </trkpt>
      <trkpt lat="43.1757438182830810546875" lon="-1.54088440351188182830810546875">
        <ele>651.4000244140625</ele>
        <time>2020-08-22T12:25:59.000Z</time>
      </trkpt>
      <trkpt lat="43.17573375999927520751953125" lon="-1.5409332700073719024658203125">
        <ele>651.5999755859375</ele>
        <time>2020-08-22T12:26:01.000Z</time>
      </trkpt>
      <trkpt lat="43.17571808584034442901611328125" lon="-1.54097995720803737640380859375">
        <ele>652</ele>
        <time>2020-08-22T12:26:03.000Z</time>
      </trkpt>
      <trkpt lat="43.17570433951914310455322265625" lon="-1.5411129780113697052001953125">
        <ele>652</ele>
        <time>2020-08-22T12:26:08.000Z</time>
      </trkpt>
      <trkpt lat="43.17573644220829010009765625" lon="-1.54133216477930545806884765625">
        <ele>652.20001220703125</ele>
        <time>2020-08-22T12:26:16.000Z</time>
      </trkpt>
      <trkpt lat="43.17576871253550052642822265625" lon="-1.541495025157928466796875">
        <ele>652.79998779296875</ele>
        <time>2020-08-22T12:26:22.000Z</time>
      </trkpt>
      <trkpt lat="43.175794780254364013671875" lon="-1.54159485362470149993896484375">
        <ele>653.79998779296875</ele>
        <time>2020-08-22T12:26:26.000Z</time>
      </trkpt>
      <trkpt lat="43.1758009828627109527587890625" lon="-1.54161899350583553314208984375">
        <ele>654</ele>
        <time>2020-08-22T12:26:27.000Z</time>
      </trkpt>
      <trkpt lat="43.17584574222564697265625" lon="-1.54175184667110443115234375">
        <ele>655</ele>
        <time>2020-08-22T12:26:33.000Z</time>
      </trkpt>
      <trkpt lat="43.17586342804133892059326171875" lon="-1.5417942591011524200439453125">
        <ele>655.5999755859375</ele>
        <time>2020-08-22T12:26:35.000Z</time>
      </trkpt>
      <trkpt lat="43.17588320933282375335693359375" lon="-1.54185888357460498809814453125">
        <ele>656.20001220703125</ele>
        <time>2020-08-22T12:26:38.000Z</time>
      </trkpt>
      <trkpt lat="43.17592562176287174224853515625" lon="-1.54195158742368221282958984375">
        <ele>657.4000244140625</ele>
        <time>2020-08-22T12:26:43.000Z</time>
      </trkpt>
      <trkpt lat="43.17595697008073329925537109375" lon="-1.54205116443336009979248046875">
        <ele>658.4000244140625</ele>
        <time>2020-08-22T12:26:48.000Z</time>
      </trkpt>
      <trkpt lat="43.17596577107906341552734375" lon="-1.54206977225840091705322265625">
        <ele>658.5999755859375</ele>
        <time>2020-08-22T12:26:49.000Z</time>
      </trkpt>
      <trkpt lat="43.17602251656353473663330078125" lon="-1.54217102564871311187744140625">
        <ele>659.79998779296875</ele>
        <time>2020-08-22T12:26:55.000Z</time>
      </trkpt>
      <trkpt lat="43.176074065268039703369140625" lon="-1.5422529168426990509033203125">
        <ele>660.5999755859375</ele>
        <time>2020-08-22T12:27:00.000Z</time>
      </trkpt>
      <trkpt lat="43.1760826148092746734619140625" lon="-1.542271859943866729736328125">
        <ele>660.79998779296875</ele>
        <time>2020-08-22T12:27:01.000Z</time>
      </trkpt>
      <trkpt lat="43.1761439703404903411865234375" lon="-1.5423699282109737396240234375">
        <ele>662</ele>
        <time>2020-08-22T12:27:07.000Z</time>
      </trkpt>
      <trkpt lat="43.1761691160500049591064453125" lon="-1.54239155352115631103515625">
        <ele>662.20001220703125</ele>
        <time>2020-08-22T12:27:09.000Z</time>
      </trkpt>
      <trkpt lat="43.17624078132212162017822265625" lon="-1.54249322600662708282470703125">
        <ele>663</ele>
        <time>2020-08-22T12:27:16.000Z</time>
      </trkpt>
      <trkpt lat="43.17629492841660976409912109375" lon="-1.5425576828420162200927734375">
        <ele>664.20001220703125</ele>
        <time>2020-08-22T12:27:21.000Z</time>
      </trkpt>
      <trkpt lat="43.1763431243598461151123046875" lon="-1.5426068007946014404296875">
        <ele>664.5999755859375</ele>
        <time>2020-08-22T12:27:25.000Z</time>
      </trkpt>
      <trkpt lat="43.17636751569807529449462890625" lon="-1.5426324494183063507080078125">
        <ele>665</ele>
        <time>2020-08-22T12:27:27.000Z</time>
      </trkpt>
      <trkpt lat="43.1764282844960689544677734375" lon="-1.54270377941429615020751953125">
        <ele>666</ele>
        <time>2020-08-22T12:27:32.000Z</time>
      </trkpt>
      <trkpt lat="43.17648335359990596771240234375" lon="-1.5427529811859130859375">
        <ele>666.5999755859375</ele>
        <time>2020-08-22T12:27:36.000Z</time>
      </trkpt>
      <trkpt lat="43.17653414793312549591064453125" lon="-1.54281274415552616119384765625">
        <ele>667.20001220703125</ele>
        <time>2020-08-22T12:27:40.000Z</time>
      </trkpt>
      <trkpt lat="43.17660145461559295654296875" lon="-1.54291165061295032501220703125">
        <ele>668</ele>
        <time>2020-08-22T12:27:46.000Z</time>
      </trkpt>
      <trkpt lat="43.17661863751709461212158203125" lon="-1.54294869862496852874755859375">
        <ele>668.4000244140625</ele>
        <time>2020-08-22T12:27:48.000Z</time>
      </trkpt>
      <trkpt lat="43.17665266804397106170654296875" lon="-1.54304391704499721527099609375">
        <ele>669.4000244140625</ele>
        <time>2020-08-22T12:27:53.000Z</time>
      </trkpt>
      <trkpt lat="43.17668594419956207275390625" lon="-1.5431110560894012451171875">
        <ele>670.4000244140625</ele>
        <time>2020-08-22T12:27:57.000Z</time>
      </trkpt>
      <trkpt lat="43.176715113222599029541015625" lon="-1.54320300556719303131103515625">
        <ele>671.4000244140625</ele>
        <time>2020-08-22T12:28:02.000Z</time>
      </trkpt>
      <trkpt lat="43.1767229922115802764892578125" lon="-1.54321943409740924835205078125">
        <ele>671.5999755859375</ele>
        <time>2020-08-22T12:28:03.000Z</time>
      </trkpt>
      <trkpt lat="43.17676498554646968841552734375" lon="-1.5433016605675220489501953125">
        <ele>672.5999755859375</ele>
        <time>2020-08-22T12:28:08.000Z</time>
      </trkpt>
      <trkpt lat="43.17679616622626781463623046875" lon="-1.54336779378354549407958984375">
        <ele>673.4000244140625</ele>
        <time>2020-08-22T12:28:12.000Z</time>
      </trkpt>
      <trkpt lat="43.1768218986690044403076171875" lon="-1.54339042492210865020751953125">
        <ele>673.5999755859375</ele>
        <time>2020-08-22T12:28:14.000Z</time>
      </trkpt>
      <trkpt lat="43.176888786256313323974609375" lon="-1.54347424395382404327392578125">
        <ele>674.4000244140625</ele>
        <time>2020-08-22T12:28:20.000Z</time>
      </trkpt>
      <trkpt lat="43.17699347622692584991455078125" lon="-1.5436045825481414794921875">
        <ele>675.5999755859375</ele>
        <time>2020-08-22T12:28:29.000Z</time>
      </trkpt>
      <trkpt lat="43.17700487561523914337158203125" lon="-1.5436198376119136810302734375">
        <ele>675.5999755859375</ele>
        <time>2020-08-22T12:28:30.000Z</time>
      </trkpt>
      <trkpt lat="43.1770854257047176361083984375" lon="-1.54372469522058963775634765625">
        <ele>676.79998779296875</ele>
        <time>2020-08-22T12:28:37.000Z</time>
      </trkpt>
      <trkpt lat="43.1771099008619785308837890625" lon="-1.54375252313911914825439453125">
        <ele>677</ele>
        <time>2020-08-22T12:28:39.000Z</time>
      </trkpt>
      <trkpt lat="43.17716605961322784423828125" lon="-1.54382879845798015594482421875">
        <ele>677.79998779296875</ele>
        <time>2020-08-22T12:28:44.000Z</time>
      </trkpt>
      <trkpt lat="43.17725096829235553741455078125" lon="-1.54395259916782379150390625">
        <ele>678.79998779296875</ele>
        <time>2020-08-22T12:28:52.000Z</time>
      </trkpt>
      <trkpt lat="43.17726370878517627716064453125" lon="-1.543962322175502777099609375">
        <ele>678.79998779296875</ele>
        <time>2020-08-22T12:28:53.000Z</time>
      </trkpt>
      <trkpt lat="43.17732204683125019073486328125" lon="-1.54402174986898899078369140625">
        <ele>680</ele>
        <time>2020-08-22T12:28:58.000Z</time>
      </trkpt>
      <trkpt lat="43.1773412413895130157470703125" lon="-1.54405318200588226318359375">
        <ele>680.5999755859375</ele>
        <time>2020-08-22T12:29:00.000Z</time>
      </trkpt>
      <trkpt lat="43.1773915328085422515869140625" lon="-1.544095762073993682861328125">
        <ele>681</ele>
        <time>2020-08-22T12:29:04.000Z</time>
      </trkpt>
      <trkpt lat="43.17742262966930866241455078125" lon="-1.54413473792374134063720703125">
        <ele>682</ele>
        <time>2020-08-22T12:29:07.000Z</time>
      </trkpt>
      <trkpt lat="43.17743386141955852508544921875" lon="-1.544148065149784088134765625">
        <ele>682</ele>
        <time>2020-08-22T12:29:08.000Z</time>
      </trkpt>
      <trkpt lat="43.17747174762189388275146484375" lon="-1.54418184421956539154052734375">
        <ele>682.20001220703125</ele>
        <time>2020-08-22T12:29:11.000Z</time>
      </trkpt>
      <trkpt lat="43.17748230881989002227783203125" lon="-1.54419827274978160858154296875">
        <ele>682.5999755859375</ele>
        <time>2020-08-22T12:29:12.000Z</time>
      </trkpt>
      <trkpt lat="43.1774931214749813079833984375" lon="-1.544214449822902679443359375">
        <ele>682.79998779296875</ele>
        <time>2020-08-22T12:29:13.000Z</time>
      </trkpt>
      <trkpt lat="43.17755766212940216064453125" lon="-1.544278152287006378173828125">
        <ele>683.4000244140625</ele>
        <time>2020-08-22T12:29:18.000Z</time>
      </trkpt>
      <trkpt lat="43.17758188582956790924072265625" lon="-1.54430589638650417327880859375">
        <ele>683.4000244140625</ele>
        <time>2020-08-22T12:29:20.000Z</time>
      </trkpt>
      <trkpt lat="43.17770811729133129119873046875" lon="-1.544439084827899932861328125">
        <ele>684.4000244140625</ele>
        <time>2020-08-22T12:29:29.000Z</time>
      </trkpt>
      <trkpt lat="43.1777211092412471771240234375" lon="-1.544457860291004180908203125">
        <ele>684.4000244140625</ele>
        <time>2020-08-22T12:29:30.000Z</time>
      </trkpt>
      <trkpt lat="43.17785203456878662109375" lon="-1.544616110622882843017578125">
        <ele>685</ele>
        <time>2020-08-22T12:29:39.000Z</time>
      </trkpt>
      <trkpt lat="43.17798622883856296539306640625" lon="-1.5448357164859771728515625">
        <ele>685</ele>
        <time>2020-08-22T12:29:48.000Z</time>
      </trkpt>
      <trkpt lat="43.17814062349498271942138671875" lon="-1.54509731568396091461181640625">
        <ele>685.4000244140625</ele>
        <time>2020-08-22T12:29:58.000Z</time>
      </trkpt>
      <trkpt lat="43.17818655632436275482177734375" lon="-1.54516856186091899871826171875">
        <ele>685.4000244140625</ele>
        <time>2020-08-22T12:30:01.000Z</time>
      </trkpt>
      <trkpt lat="43.17826149053871631622314453125" lon="-1.5452911891043186187744140625">
        <ele>685.79998779296875</ele>
        <time>2020-08-22T12:30:06.000Z</time>
      </trkpt>
      <trkpt lat="43.1783443875610828399658203125" lon="-1.54540241695940494537353515625">
        <ele>686.5999755859375</ele>
        <time>2020-08-22T12:30:11.000Z</time>
      </trkpt>
      <trkpt lat="43.178402893245220184326171875" lon="-1.54546377249062061309814453125">
        <ele>686.5999755859375</ele>
        <time>2020-08-22T12:30:14.000Z</time>
      </trkpt>
      <trkpt lat="43.1785415299236774444580078125" lon="-1.5455265529453754425048828125">
        <ele>687.4000244140625</ele>
        <time>2020-08-22T12:30:21.000Z</time>
      </trkpt>
      <trkpt lat="43.17863096483051776885986328125" lon="-1.54553803615272045135498046875">
        <ele>688.5999755859375</ele>
        <time>2020-08-22T12:30:26.000Z</time>
      </trkpt>
      <trkpt lat="43.17865158431231975555419921875" lon="-1.54553510248661041259765625">
        <ele>688.79998779296875</ele>
        <time>2020-08-22T12:30:28.000Z</time>
      </trkpt>
      <trkpt lat="43.17865242250263690948486328125" lon="-1.54553510248661041259765625">
        <ele>689</ele>
        <time>2020-08-22T12:30:30.000Z</time>
      </trkpt>
      <trkpt lat="43.17865393124520778656005859375" lon="-1.54552630148828029632568359375">
        <ele>689</ele>
        <time>2020-08-22T12:32:42.000Z</time>
      </trkpt>
      <trkpt lat="43.17868645302951335906982421875" lon="-1.5455379523336887359619140625">
        <ele>688.79998779296875</ele>
        <time>2020-08-22T12:32:46.000Z</time>
      </trkpt>
      <trkpt lat="43.17880648188292980194091796875" lon="-1.54558246023952960968017578125">
        <ele>688</ele>
        <time>2020-08-22T12:32:50.000Z</time>
      </trkpt>
      <trkpt lat="43.1789160333573818206787109375" lon="-1.54562554322183132171630859375">
        <ele>687</ele>
        <time>2020-08-22T12:32:52.000Z</time>
      </trkpt>
      <trkpt lat="43.17906665615737438201904296875" lon="-1.5456797741353511810302734375">
        <ele>686</ele>
        <time>2020-08-22T12:32:54.000Z</time>
      </trkpt>
      <trkpt lat="43.1791527383029460906982421875" lon="-1.54570198617875576019287109375">
        <ele>684.79998779296875</ele>
        <time>2020-08-22T12:32:55.000Z</time>
      </trkpt>
      <trkpt lat="43.17923999391496181488037109375" lon="-1.5457106195390224456787109375">
        <ele>683.5999755859375</ele>
        <time>2020-08-22T12:32:56.000Z</time>
      </trkpt>
      <trkpt lat="43.17932984791696071624755859375" lon="-1.5457169897854328155517578125">
        <ele>682</ele>
        <time>2020-08-22T12:32:57.000Z</time>
      </trkpt>
      <trkpt lat="43.17942305468022823333740234375" lon="-1.54572595842182636260986328125">
        <ele>681</ele>
        <time>2020-08-22T12:32:58.000Z</time>
      </trkpt>
      <trkpt lat="43.1796083785593509674072265625" lon="-1.54574490152299404144287109375">
        <ele>679.20001220703125</ele>
        <time>2020-08-22T12:33:00.000Z</time>
      </trkpt>
      <trkpt lat="43.179779537022113800048828125" lon="-1.5457491762936115264892578125">
        <ele>678</ele>
        <time>2020-08-22T12:33:02.000Z</time>
      </trkpt>
      <trkpt lat="43.17994658835232257843017578125" lon="-1.5457293950021266937255859375">
        <ele>677.20001220703125</ele>
        <time>2020-08-22T12:33:04.000Z</time>
      </trkpt>
      <trkpt lat="43.18010567687451839447021484375" lon="-1.5456988848745822906494140625">
        <ele>676.5999755859375</ele>
        <time>2020-08-22T12:33:06.000Z</time>
      </trkpt>
      <trkpt lat="43.1804175674915313720703125" lon="-1.5456777624785900115966796875">
        <ele>676</ele>
        <time>2020-08-22T12:33:10.000Z</time>
      </trkpt>
      <trkpt lat="43.18071939982473850250244140625" lon="-1.5456744097173213958740234375">
        <ele>675.4000244140625</ele>
        <time>2020-08-22T12:33:14.000Z</time>
      </trkpt>
      <trkpt lat="43.18096540868282318115234375" lon="-1.545634679496288299560546875">
        <ele>674</ele>
        <time>2020-08-22T12:33:17.000Z</time>
      </trkpt>
      <trkpt lat="43.1810478866100311279296875" lon="-1.545611880719661712646484375">
        <ele>673</ele>
        <time>2020-08-22T12:33:18.000Z</time>
      </trkpt>
      <trkpt lat="43.18113128654658794403076171875" lon="-1.54558883048593997955322265625">
        <ele>672.5999755859375</ele>
        <time>2020-08-22T12:33:19.000Z</time>
      </trkpt>
      <trkpt lat="43.18137302063405513763427734375" lon="-1.54549730010330677032470703125">
        <ele>671.20001220703125</ele>
        <time>2020-08-22T12:33:22.000Z</time>
      </trkpt>
      <trkpt lat="43.18144577555358409881591796875" lon="-1.54545136727392673492431640625">
        <ele>671</ele>
        <time>2020-08-22T12:33:23.000Z</time>
      </trkpt>
      <trkpt lat="43.1817608512938022613525390625" lon="-1.5451714955270290374755859375">
        <ele>670</ele>
        <time>2020-08-22T12:33:28.000Z</time>
      </trkpt>
      <trkpt lat="43.1819392181932926177978515625" lon="-1.54499866068363189697265625">
        <ele>668.79998779296875</ele>
        <time>2020-08-22T12:33:31.000Z</time>
      </trkpt>
      <trkpt lat="43.1821824610233306884765625" lon="-1.5447842516005039215087890625">
        <ele>667.79998779296875</ele>
        <time>2020-08-22T12:33:35.000Z</time>
      </trkpt>
      <trkpt lat="43.18224255926907062530517578125" lon="-1.54473178088665008544921875">
        <ele>667.5999755859375</ele>
        <time>2020-08-22T12:33:36.000Z</time>
      </trkpt>
      <trkpt lat="43.18230651319026947021484375" lon="-1.5446873567998409271240234375">
        <ele>667.4000244140625</ele>
        <time>2020-08-22T12:33:37.000Z</time>
      </trkpt>
      <trkpt lat="43.18243282847106456756591796875" lon="-1.54462583363056182861328125">
        <ele>667</ele>
        <time>2020-08-22T12:33:39.000Z</time>
      </trkpt>
      <trkpt lat="43.1825410388410091400146484375" lon="-1.544587276875972747802734375">
        <ele>666.5999755859375</ele>
        <time>2020-08-22T12:33:41.000Z</time>
      </trkpt>
      <trkpt lat="43.18259325809776782989501953125" lon="-1.5445554256439208984375">
        <ele>666.4000244140625</ele>
        <time>2020-08-22T12:33:42.000Z</time>
      </trkpt>
      <trkpt lat="43.18264589644968509674072265625" lon="-1.54451997019350528717041015625">
        <ele>666.4000244140625</ele>
        <time>2020-08-22T12:33:43.000Z</time>
      </trkpt>
      <trkpt lat="43.1828595511615276336669921875" lon="-1.54435048811137676239013671875">
        <ele>665.5999755859375</ele>
        <time>2020-08-22T12:33:47.000Z</time>
      </trkpt>
      <trkpt lat="43.1829105131328105926513671875" lon="-1.54431846924126148223876953125">
        <ele>665.4000244140625</ele>
        <time>2020-08-22T12:33:48.000Z</time>
      </trkpt>
      <trkpt lat="43.182957954704761505126953125" lon="-1.54428829438984394073486328125">
        <ele>665.20001220703125</ele>
        <time>2020-08-22T12:33:49.000Z</time>
      </trkpt>
      <trkpt lat="43.18300162442028522491455078125" lon="-1.54425275512039661407470703125">
        <ele>665.20001220703125</ele>
        <time>2020-08-22T12:33:50.000Z</time>
      </trkpt>
      <trkpt lat="43.183160461485385894775390625" lon="-1.54406315647065639495849609375">
        <ele>665.20001220703125</ele>
        <time>2020-08-22T12:33:54.000Z</time>
      </trkpt>
      <trkpt lat="43.1834067218005657196044921875" lon="-1.54372754506766796112060546875">
        <ele>664.20001220703125</ele>
        <time>2020-08-22T12:34:00.000Z</time>
      </trkpt>
      <trkpt lat="43.1836521439254283905029296875" lon="-1.5433945320546627044677734375">
        <ele>663.20001220703125</ele>
        <time>2020-08-22T12:34:06.000Z</time>
      </trkpt>
      <trkpt lat="43.18374593742191791534423828125" lon="-1.54329621233046054840087890625">
        <ele>663</ele>
        <time>2020-08-22T12:34:08.000Z</time>
      </trkpt>
      <trkpt lat="43.18391324020922183990478515625" lon="-1.54330492950975894927978515625">
        <ele>662.5999755859375</ele>
        <time>2020-08-22T12:34:11.000Z</time>
      </trkpt>
      <trkpt lat="43.18397945724427700042724609375" lon="-1.5434686280786991119384765625">
        <ele>662.4000244140625</ele>
        <time>2020-08-22T12:34:14.000Z</time>
      </trkpt>
      <trkpt lat="43.18405623547732830047607421875" lon="-1.54365755617618560791015625">
        <ele>663</ele>
        <time>2020-08-22T12:34:19.000Z</time>
      </trkpt>
      <trkpt lat="43.18419344723224639892578125" lon="-1.54381136409938335418701171875">
        <ele>663</ele>
        <time>2020-08-22T12:34:24.000Z</time>
      </trkpt>
      <trkpt lat="43.18440542556345462799072265625" lon="-1.54408846981823444366455078125">
        <ele>662</ele>
        <time>2020-08-22T12:34:30.000Z</time>
      </trkpt>
      <trkpt lat="43.18443727679550647735595703125" lon="-1.54412736184895038604736328125">
        <ele>661.79998779296875</ele>
        <time>2020-08-22T12:34:31.000Z</time>
      </trkpt>
      <trkpt lat="43.1845868937671184539794921875" lon="-1.5442390926182270050048828125">
        <ele>661.79998779296875</ele>
        <time>2020-08-22T12:34:36.000Z</time>
      </trkpt>
      <trkpt lat="43.1847384385764598846435546875" lon="-1.5443527512252330780029296875">
        <ele>662.5999755859375</ele>
        <time>2020-08-22T12:34:42.000Z</time>
      </trkpt>
      <trkpt lat="43.18479702807962894439697265625" lon="-1.5444483049213886260986328125">
        <ele>663</ele>
        <time>2020-08-22T12:34:46.000Z</time>
      </trkpt>
      <trkpt lat="43.18481513299047946929931640625" lon="-1.5444674156606197357177734375">
        <ele>663.20001220703125</ele>
        <time>2020-08-22T12:34:47.000Z</time>
      </trkpt>
      <trkpt lat="43.18488277494907379150390625" lon="-1.54454402625560760498046875">
        <ele>663.79998779296875</ele>
        <time>2020-08-22T12:34:51.000Z</time>
      </trkpt>
      <trkpt lat="43.18489593453705310821533203125" lon="-1.544562466442584991455078125">
        <ele>664</ele>
        <time>2020-08-22T12:34:52.000Z</time>
      </trkpt>
      <trkpt lat="43.18492879159748554229736328125" lon="-1.5445938147604465484619140625">
        <ele>664.20001220703125</ele>
        <time>2020-08-22T12:34:54.000Z</time>
      </trkpt>
      <trkpt lat="43.18502015434205532073974609375" lon="-1.544665396213531494140625">
        <ele>665</ele>
        <time>2020-08-22T12:34:59.000Z</time>
      </trkpt>
      <trkpt lat="43.1850577890872955322265625" lon="-1.544697917997837066650390625">
        <ele>665</ele>
        <time>2020-08-22T12:35:01.000Z</time>
      </trkpt>
      <trkpt lat="43.18516868166625499725341796875" lon="-1.5448496304452419281005859375">
        <ele>664.79998779296875</ele>
        <time>2020-08-22T12:35:06.000Z</time>
      </trkpt>
      <trkpt lat="43.18521997891366481781005859375" lon="-1.54501651413738727569580078125">
        <ele>665.5999755859375</ele>
        <time>2020-08-22T12:35:12.000Z</time>
      </trkpt>
      <trkpt lat="43.185252584517002105712890625" lon="-1.5451334416866302490234375">
        <ele>666</ele>
        <time>2020-08-22T12:35:17.000Z</time>
      </trkpt>
      <trkpt lat="43.1853010319173336029052734375" lon="-1.54522941447794437408447265625">
        <ele>666.4000244140625</ele>
        <time>2020-08-22T12:35:21.000Z</time>
      </trkpt>
      <trkpt lat="43.18540371023118495941162109375" lon="-1.5453441627323627471923828125">
        <ele>665.79998779296875</ele>
        <time>2020-08-22T12:35:25.000Z</time>
      </trkpt>
      <trkpt lat="43.18551636300981044769287109375" lon="-1.54545731842517852783203125">
        <ele>665</ele>
        <time>2020-08-22T12:35:28.000Z</time>
      </trkpt>
      <trkpt lat="43.18565717898309230804443359375" lon="-1.54556318186223506927490234375">
        <ele>664</ele>
        <time>2020-08-22T12:35:31.000Z</time>
      </trkpt>
      <trkpt lat="43.18570545874536037445068359375" lon="-1.5455922670662403106689453125">
        <ele>663.79998779296875</ele>
        <time>2020-08-22T12:35:32.000Z</time>
      </trkpt>
      <trkpt lat="43.18579866550862789154052734375" lon="-1.5456402115523815155029296875">
        <ele>663.4000244140625</ele>
        <time>2020-08-22T12:35:34.000Z</time>
      </trkpt>
      <trkpt lat="43.18586982786655426025390625" lon="-1.5457347594201564788818359375">
        <ele>662.5999755859375</ele>
        <time>2020-08-22T12:35:36.000Z</time>
      </trkpt>
      <trkpt lat="43.185850717127323150634765625" lon="-1.54593299143016338348388671875">
        <ele>661.79998779296875</ele>
        <time>2020-08-22T12:35:39.000Z</time>
      </trkpt>
      <trkpt lat="43.18580134771764278411865234375" lon="-1.54600851237773895263671875">
        <ele>662</ele>
        <time>2020-08-22T12:35:41.000Z</time>
      </trkpt>
      <trkpt lat="43.185764886438846588134765625" lon="-1.5460619889199733734130859375">
        <ele>662.4000244140625</ele>
        <time>2020-08-22T12:35:43.000Z</time>
      </trkpt>
      <trkpt lat="43.18567830137908458709716796875" lon="-1.54618947766721248626708984375">
        <ele>663.5999755859375</ele>
        <time>2020-08-22T12:35:49.000Z</time>
      </trkpt>
      <trkpt lat="43.1856664828956127166748046875" lon="-1.54621101915836334228515625">
        <ele>663.79998779296875</ele>
        <time>2020-08-22T12:35:50.000Z</time>
      </trkpt>
      <trkpt lat="43.1856290996074676513671875" lon="-1.546302549540996551513671875">
        <ele>664.79998779296875</ele>
        <time>2020-08-22T12:35:54.000Z</time>
      </trkpt>
      <trkpt lat="43.18560135550796985626220703125" lon="-1.5464291162788867950439453125">
        <ele>665.4000244140625</ele>
        <time>2020-08-22T12:35:59.000Z</time>
      </trkpt>
      <trkpt lat="43.18561577238142490386962890625" lon="-1.54662097804248332977294921875">
        <ele>665.79998779296875</ele>
        <time>2020-08-22T12:36:06.000Z</time>
      </trkpt>
      <trkpt lat="43.185616023838520050048828125" lon="-1.5466497279703617095947265625">
        <ele>665.79998779296875</ele>
        <time>2020-08-22T12:36:07.000Z</time>
      </trkpt>
      <trkpt lat="43.18558542989194393157958984375" lon="-1.54682365246117115020751953125">
        <ele>666.79998779296875</ele>
        <time>2020-08-22T12:36:14.000Z</time>
      </trkpt>
      <trkpt lat="43.185579478740692138671875" lon="-1.5468461997807025909423828125">
        <ele>666.79998779296875</ele>
        <time>2020-08-22T12:36:15.000Z</time>
      </trkpt>
      <trkpt lat="43.1855524890124797821044921875" lon="-1.54693194665014743804931640625">
        <ele>667.79998779296875</ele>
        <time>2020-08-22T12:36:19.000Z</time>
      </trkpt>
      <trkpt lat="43.1855377368628978729248046875" lon="-1.5469709224998950958251953125">
        <ele>668.20001220703125</ele>
        <time>2020-08-22T12:36:21.000Z</time>
      </trkpt>
      <trkpt lat="43.18552239798009395599365234375" lon="-1.54703177511692047119140625">
        <ele>669</ele>
        <time>2020-08-22T12:36:24.000Z</time>
      </trkpt>
      <trkpt lat="43.18548627197742462158203125" lon="-1.5471539832651615142822265625">
        <ele>670</ele>
        <time>2020-08-22T12:36:30.000Z</time>
      </trkpt>
      <trkpt lat="43.18547663278877735137939453125" lon="-1.547196395695209503173828125">
        <ele>670.4000244140625</ele>
        <time>2020-08-22T12:36:32.000Z</time>
      </trkpt>
      <trkpt lat="43.18544461391866207122802734375" lon="-1.547294296324253082275390625">
        <ele>671.20001220703125</ele>
        <time>2020-08-22T12:36:37.000Z</time>
      </trkpt>
      <trkpt lat="43.185434974730014801025390625" lon="-1.5473357029259204864501953125">
        <ele>671.4000244140625</ele>
        <time>2020-08-22T12:36:39.000Z</time>
      </trkpt>
      <trkpt lat="43.18541209213435649871826171875" lon="-1.5474855713546276092529296875">
        <ele>672.4000244140625</ele>
        <time>2020-08-22T12:36:46.000Z</time>
      </trkpt>
      <trkpt lat="43.18539482541382312774658203125" lon="-1.547600068151950836181640625">
        <ele>673.4000244140625</ele>
        <time>2020-08-22T12:36:51.000Z</time>
      </trkpt>
      <trkpt lat="43.18538610823452472686767578125" lon="-1.5476669557392597198486328125">
        <ele>673.79998779296875</ele>
        <time>2020-08-22T12:36:54.000Z</time>
      </trkpt>
      <trkpt lat="43.1853546760976314544677734375" lon="-1.5478265471756458282470703125">
        <ele>674.4000244140625</ele>
        <time>2020-08-22T12:37:01.000Z</time>
      </trkpt>
      <trkpt lat="43.18534989841282367706298828125" lon="-1.54784993268549442291259765625">
        <ele>674.4000244140625</ele>
        <time>2020-08-22T12:37:02.000Z</time>
      </trkpt>
      <trkpt lat="43.1853228248655796051025390625" lon="-1.54801036231219768524169921875">
        <ele>675.20001220703125</ele>
        <time>2020-08-22T12:37:09.000Z</time>
      </trkpt>
      <trkpt lat="43.185317628085613250732421875" lon="-1.5480823628604412078857421875">
        <ele>675.5999755859375</ele>
        <time>2020-08-22T12:37:12.000Z</time>
      </trkpt>
      <trkpt lat="43.1853107549250125885009765625" lon="-1.54817146249115467071533203125">
        <ele>676.4000244140625</ele>
        <time>2020-08-22T12:37:16.000Z</time>
      </trkpt>
      <trkpt lat="43.1853114254772663116455078125" lon="-1.54821605421602725982666015625">
        <ele>676.79998779296875</ele>
        <time>2020-08-22T12:37:18.000Z</time>
      </trkpt>
      <trkpt lat="43.185316622257232666015625" lon="-1.548281349241733551025390625">
        <ele>677.4000244140625</ele>
        <time>2020-08-22T12:37:21.000Z</time>
      </trkpt>
      <trkpt lat="43.1853382475674152374267578125" lon="-1.5483422018587589263916015625">
        <ele>677.79998779296875</ele>
        <time>2020-08-22T12:37:24.000Z</time>
      </trkpt>
      <trkpt lat="43.185344450175762176513671875" lon="-1.5483636595308780670166015625">
        <ele>678</ele>
        <time>2020-08-22T12:37:25.000Z</time>
      </trkpt>
      <trkpt lat="43.18539298139512538909912109375" lon="-1.54846013523638248443603515625">
        <ele>678.5999755859375</ele>
        <time>2020-08-22T12:37:30.000Z</time>
      </trkpt>
      <trkpt lat="43.18544494919478893280029296875" lon="-1.548527777194976806640625">
        <ele>679</ele>
        <time>2020-08-22T12:37:34.000Z</time>
      </trkpt>
      <trkpt lat="43.18552709184587001800537109375" lon="-1.5486211515963077545166015625">
        <ele>679.5999755859375</ele>
        <time>2020-08-22T12:37:40.000Z</time>
      </trkpt>
      <trkpt lat="43.1856061331927776336669921875" lon="-1.5487182140350341796875">
        <ele>680.20001220703125</ele>
        <time>2020-08-22T12:37:46.000Z</time>
      </trkpt>
      <trkpt lat="43.18563823588192462921142578125" lon="-1.5487482212483882904052734375">
        <ele>680.20001220703125</ele>
        <time>2020-08-22T12:37:48.000Z</time>
      </trkpt>
      <trkpt lat="43.18575256504118442535400390625" lon="-1.54886883683502674102783203125">
        <ele>679.79998779296875</ele>
        <time>2020-08-22T12:37:55.000Z</time>
      </trkpt>
      <trkpt lat="43.18585432134568691253662109375" lon="-1.5490224771201610565185546875">
        <ele>680</ele>
        <time>2020-08-22T12:38:02.000Z</time>
      </trkpt>
      <trkpt lat="43.18591550923883914947509765625" lon="-1.54918382875621318817138671875">
        <ele>680.5999755859375</ele>
        <time>2020-08-22T12:38:08.000Z</time>
      </trkpt>
      <trkpt lat="43.18594568409025669097900390625" lon="-1.5493031032383441925048828125">
        <ele>680.79998779296875</ele>
        <time>2020-08-22T12:38:12.000Z</time>
      </trkpt>
      <trkpt lat="43.186001591384410858154296875" lon="-1.5495161712169647216796875">
        <ele>681.20001220703125</ele>
        <time>2020-08-22T12:38:19.000Z</time>
      </trkpt>
      <trkpt lat="43.18611659109592437744140625" lon="-1.549761593341827392578125">
        <ele>681.4000244140625</ele>
        <time>2020-08-22T12:38:27.000Z</time>
      </trkpt>
      <trkpt lat="43.18624558858573436737060546875" lon="-1.55001581646502017974853515625">
        <ele>680.79998779296875</ele>
        <time>2020-08-22T12:38:36.000Z</time>
      </trkpt>
      <trkpt lat="43.18626637570559978485107421875" lon="-1.55005060136318206787109375">
        <ele>680.5999755859375</ele>
        <time>2020-08-22T12:38:38.000Z</time>
      </trkpt>
      <trkpt lat="43.18627811037003993988037109375" lon="-1.55005990527570247650146484375">
        <ele>680.5999755859375</ele>
        <time>2020-08-22T12:38:39.000Z</time>
      </trkpt>
      <trkpt lat="43.18628531880676746368408203125" lon="-1.5500660240650177001953125">
        <ele>680.5999755859375</ele>
        <time>2020-08-22T12:38:41.000Z</time>
      </trkpt>
      <trkpt lat="43.18628598935902118682861328125" lon="-1.55006309039890766143798828125">
        <ele>680.79998779296875</ele>
        <time>2020-08-22T12:38:52.000Z</time>
      </trkpt>
      <trkpt lat="43.18628598935902118682861328125" lon="-1.5500635094940662384033203125">
        <ele>680.5999755859375</ele>
        <time>2020-08-22T12:39:31.000Z</time>
      </trkpt>
      <trkpt lat="43.18628615699708461761474609375" lon="-1.5500648505985736846923828125">
        <ele>681</ele>
        <time>2020-08-22T12:39:48.000Z</time>
      </trkpt>
      <trkpt lat="43.1862860731780529022216796875" lon="-1.55006476677954196929931640625">
        <ele>681</ele>
        <time>2020-08-22T12:39:49.000Z</time>
      </trkpt>
      <trkpt lat="43.18628598935902118682861328125" lon="-1.55006443150341510772705078125">
        <ele>681</ele>
        <time>2020-08-22T12:39:50.000Z</time>
      </trkpt>
      <trkpt lat="43.1862877495586872100830078125" lon="-1.550061665475368499755859375">
        <ele>680.79998779296875</ele>
        <time>2020-08-22T12:40:38.000Z</time>
      </trkpt>
      <trkpt lat="43.1862954609096050262451171875" lon="-1.5500604920089244842529296875">
        <ele>680.5999755859375</ele>
        <time>2020-08-22T12:40:41.000Z</time>
      </trkpt>
      <trkpt lat="43.18630166351795196533203125" lon="-1.55005202628672122955322265625">
        <ele>680.5999755859375</ele>
        <time>2020-08-22T12:40:42.000Z</time>
      </trkpt>
      <trkpt lat="43.1863098777830600738525390625" lon="-1.54997759498655796051025390625">
        <ele>681.20001220703125</ele>
        <time>2020-08-22T12:40:50.000Z</time>
      </trkpt>
      <trkpt lat="43.18630971014499664306640625" lon="-1.549961753189563751220703125">
        <ele>681.4000244140625</ele>
        <time>2020-08-22T12:40:52.000Z</time>
      </trkpt>
      <trkpt lat="43.186290264129638671875" lon="-1.549902744591236114501953125">
        <ele>682</ele>
        <time>2020-08-22T12:41:00.000Z</time>
      </trkpt>
      <trkpt lat="43.1862783618271350860595703125" lon="-1.5498529560863971710205078125">
        <ele>682.4000244140625</ele>
        <time>2020-08-22T12:41:06.000Z</time>
      </trkpt>
      <trkpt lat="43.18627660162746906280517578125" lon="-1.54982504434883594512939453125">
        <ele>682.5999755859375</ele>
        <time>2020-08-22T12:41:09.000Z</time>
      </trkpt>
      <trkpt lat="43.18627350032329559326171875" lon="-1.5497543849050998687744140625">
        <ele>683.5999755859375</ele>
        <time>2020-08-22T12:41:17.000Z</time>
      </trkpt>
      <trkpt lat="43.1862753443419933319091796875" lon="-1.5497047640383243560791015625">
        <ele>684.4000244140625</ele>
        <time>2020-08-22T12:41:23.000Z</time>
      </trkpt>
      <trkpt lat="43.18627710454165935516357421875" lon="-1.5496816299855709075927734375">
        <ele>684.79998779296875</ele>
        <time>2020-08-22T12:41:26.000Z</time>
      </trkpt>
      <trkpt lat="43.186272494494915008544921875" lon="-1.5496422350406646728515625">
        <ele>685</ele>
        <time>2020-08-22T12:41:31.000Z</time>
      </trkpt>
      <trkpt lat="43.1862701475620269775390625" lon="-1.54960803687572479248046875">
        <ele>685.79998779296875</ele>
        <time>2020-08-22T12:41:35.000Z</time>
      </trkpt>
      <trkpt lat="43.186266459524631500244140625" lon="-1.5495743416249752044677734375">
        <ele>686.20001220703125</ele>
        <time>2020-08-22T12:41:39.000Z</time>
      </trkpt>
      <trkpt lat="43.186266124248504638671875" lon="-1.54953469522297382354736328125">
        <ele>686.79998779296875</ele>
        <time>2020-08-22T12:41:44.000Z</time>
      </trkpt>
      <trkpt lat="43.18626084364950656890869140625" lon="-1.54948876239359378814697265625">
        <ele>687.20001220703125</ele>
        <time>2020-08-22T12:41:49.000Z</time>
      </trkpt>
      <trkpt lat="43.18625212647020816802978515625" lon="-1.5494258143007755279541015625">
        <ele>688</ele>
        <time>2020-08-22T12:41:56.000Z</time>
      </trkpt>
      <trkpt lat="43.1862495280802249908447265625" lon="-1.54940284788608551025390625">
        <ele>688.20001220703125</ele>
        <time>2020-08-22T12:41:59.000Z</time>
      </trkpt>
      <trkpt lat="43.18624357692897319793701171875" lon="-1.54931701719760894775390625">
        <ele>689</ele>
        <time>2020-08-22T12:42:09.000Z</time>
      </trkpt>
      <trkpt lat="43.1862411461770534515380859375" lon="-1.5492987446486949920654296875">
        <ele>689.20001220703125</ele>
        <time>2020-08-22T12:42:11.000Z</time>
      </trkpt>
      <trkpt lat="43.186238296329975128173828125" lon="-1.54922909103333950042724609375">
        <ele>690</ele>
        <time>2020-08-22T12:42:19.000Z</time>
      </trkpt>
      <trkpt lat="43.186236955225467681884765625" lon="-1.549181230366230010986328125">
        <ele>690.5999755859375</ele>
        <time>2020-08-22T12:42:25.000Z</time>
      </trkpt>
      <trkpt lat="43.1862366199493408203125" lon="-1.54914041049778461456298828125">
        <ele>691.20001220703125</ele>
        <time>2020-08-22T12:42:30.000Z</time>
      </trkpt>
      <trkpt lat="43.186240307986736297607421875" lon="-1.5490700863301753997802734375">
        <ele>692.4000244140625</ele>
        <time>2020-08-22T12:42:39.000Z</time>
      </trkpt>
      <trkpt lat="43.1862411461770534515380859375" lon="-1.54900043271481990814208984375">
        <ele>693</ele>
        <time>2020-08-22T12:42:48.000Z</time>
      </trkpt>
      <trkpt lat="43.1862428225576877593994140625" lon="-1.548956930637359619140625">
        <ele>693.4000244140625</ele>
        <time>2020-08-22T12:42:53.000Z</time>
      </trkpt>
      <trkpt lat="43.1862444989383220672607421875" lon="-1.54891510494053363800048828125">
        <ele>694</ele>
        <time>2020-08-22T12:42:58.000Z</time>
      </trkpt>
      <trkpt lat="43.18624533712863922119140625" lon="-1.54888526536524295806884765625">
        <ele>694.4000244140625</ele>
        <time>2020-08-22T12:43:01.000Z</time>
      </trkpt>
      <trkpt lat="43.18624340929090976715087890625" lon="-1.5488082356750965118408203125">
        <ele>694.5999755859375</ele>
        <time>2020-08-22T12:43:09.000Z</time>
      </trkpt>
      <trkpt lat="43.18624542094767093658447265625" lon="-1.54874428175389766693115234375">
        <ele>695.20001220703125</ele>
        <time>2020-08-22T12:43:16.000Z</time>
      </trkpt>
      <trkpt lat="43.18624533712863922119140625" lon="-1.5487069822847843170166015625">
        <ele>696</ele>
        <time>2020-08-22T12:43:20.000Z</time>
      </trkpt>
      <trkpt lat="43.186247013509273529052734375" lon="-1.548678986728191375732421875">
        <ele>696.4000244140625</ele>
        <time>2020-08-22T12:43:23.000Z</time>
      </trkpt>
      <trkpt lat="43.1862540543079376220703125" lon="-1.5485800802707672119140625">
        <ele>697.4000244140625</ele>
        <time>2020-08-22T12:43:33.000Z</time>
      </trkpt>
      <trkpt lat="43.18625514395534992218017578125" lon="-1.5485698543488979339599609375">
        <ele>697.5999755859375</ele>
        <time>2020-08-22T12:43:34.000Z</time>
      </trkpt>
      <trkpt lat="43.186262436211109161376953125" lon="-1.5484942495822906494140625">
        <ele>698.5999755859375</ele>
        <time>2020-08-22T12:43:43.000Z</time>
      </trkpt>
      <trkpt lat="43.18626277148723602294921875" lon="-1.54848553240299224853515625">
        <ele>698.5999755859375</ele>
        <time>2020-08-22T12:43:44.000Z</time>
      </trkpt>
      <trkpt lat="43.18627190776169300079345703125" lon="-1.54841369949281215667724609375">
        <ele>699</ele>
        <time>2020-08-22T12:43:53.000Z</time>
      </trkpt>
      <trkpt lat="43.18627542816102504730224609375" lon="-1.54840028844773769378662109375">
        <ele>699.5999755859375</ele>
        <time>2020-08-22T12:43:55.000Z</time>
      </trkpt>
      <trkpt lat="43.18627928383648395538330078125" lon="-1.54837195761501789093017578125">
        <ele>700</ele>
        <time>2020-08-22T12:44:02.000Z</time>
      </trkpt>
      <trkpt lat="43.18628531880676746368408203125" lon="-1.548312865197658538818359375">
        <ele>700.79998779296875</ele>
        <time>2020-08-22T12:44:09.000Z</time>
      </trkpt>
      <trkpt lat="43.18628716282546520233154296875" lon="-1.54830507002770900726318359375">
        <ele>700.79998779296875</ele>
        <time>2020-08-22T12:44:10.000Z</time>
      </trkpt>
      <trkpt lat="43.18629705347120761871337890625" lon="-1.5482493303716182708740234375">
        <ele>701.79998779296875</ele>
        <time>2020-08-22T12:44:17.000Z</time>
      </trkpt>
      <trkpt lat="43.18630007095634937286376953125" lon="-1.54823332093656063079833984375">
        <ele>701.79998779296875</ele>
        <time>2020-08-22T12:44:19.000Z</time>
      </trkpt>
      <trkpt lat="43.18631817586719989776611328125" lon="-1.54814430512487888336181640625">
        <ele>702.79998779296875</ele>
        <time>2020-08-22T12:44:30.000Z</time>
      </trkpt>
      <trkpt lat="43.18632102571427822113037109375" lon="-1.5481256134808063507080078125">
        <ele>702.79998779296875</ele>
        <time>2020-08-22T12:44:32.000Z</time>
      </trkpt>
      <trkpt lat="43.18633644841611385345458984375" lon="-1.5480518527328968048095703125">
        <ele>703.20001220703125</ele>
        <time>2020-08-22T12:44:41.000Z</time>
      </trkpt>
      <trkpt lat="43.1863430701196193695068359375" lon="-1.54801975004374980926513671875">
        <ele>703.5999755859375</ele>
        <time>2020-08-22T12:44:45.000Z</time>
      </trkpt>
      <trkpt lat="43.1863605044782161712646484375" lon="-1.54792956076562404632568359375">
        <ele>704.5999755859375</ele>
        <time>2020-08-22T12:44:55.000Z</time>
      </trkpt>
      <trkpt lat="43.18636343814432621002197265625" lon="-1.54791422188282012939453125">
        <ele>704.5999755859375</ele>
        <time>2020-08-22T12:44:57.000Z</time>
      </trkpt>
      <trkpt lat="43.18636327050626277923583984375" lon="-1.54791061766445636749267578125">
        <ele>705</ele>
        <time>2020-08-22T12:45:04.000Z</time>
      </trkpt>
      <trkpt lat="43.18636913783848285675048828125" lon="-1.54787725768983364105224609375">
        <ele>705.4000244140625</ele>
        <time>2020-08-22T12:45:19.000Z</time>
      </trkpt>
      <trkpt lat="43.18637785501778125762939453125" lon="-1.54783501289784908294677734375">
        <ele>705.5999755859375</ele>
        <time>2020-08-22T12:45:23.000Z</time>
      </trkpt>
      <trkpt lat="43.18639914505183696746826171875" lon="-1.54774465598165988922119140625">
        <ele>706.4000244140625</ele>
        <time>2020-08-22T12:45:31.000Z</time>
      </trkpt>
      <trkpt lat="43.18640618585050106048583984375" lon="-1.5477108769118785858154296875">
        <ele>706.4000244140625</ele>
        <time>2020-08-22T12:45:34.000Z</time>
      </trkpt>
      <trkpt lat="43.1864232011139392852783203125" lon="-1.54762722551822662353515625">
        <ele>707</ele>
        <time>2020-08-22T12:45:41.000Z</time>
      </trkpt>
      <trkpt lat="43.18644423969089984893798828125" lon="-1.5475274808704853057861328125">
        <ele>707.5999755859375</ele>
        <time>2020-08-22T12:45:49.000Z</time>
      </trkpt>
      <trkpt lat="43.18645211867988109588623046875" lon="-1.54748909175395965576171875">
        <ele>707.79998779296875</ele>
        <time>2020-08-22T12:45:52.000Z</time>
      </trkpt>
      <trkpt lat="43.18647022359073162078857421875" lon="-1.54741809703409671783447265625">
        <ele>708.5999755859375</ele>
        <time>2020-08-22T12:45:58.000Z</time>
      </trkpt>
      <trkpt lat="43.186479695141315460205078125" lon="-1.5473916940391063690185546875">
        <ele>708.5999755859375</ele>
        <time>2020-08-22T12:46:02.000Z</time>
      </trkpt>
      <trkpt lat="43.18648430518805980682373046875" lon="-1.547382809221744537353515625">
        <ele>708.20001220703125</ele>
        <time>2020-08-22T12:46:09.000Z</time>
      </trkpt>
      <trkpt lat="43.186524622142314910888671875" lon="-1.5472746826708316802978515625">
        <ele>708.4000244140625</ele>
        <time>2020-08-22T12:46:15.000Z</time>
      </trkpt>
      <trkpt lat="43.1865941919386386871337890625" lon="-1.54707469046115875244140625">
        <ele>708.79998779296875</ele>
        <time>2020-08-22T12:46:24.000Z</time>
      </trkpt>
      <trkpt lat="43.18663869984447956085205078125" lon="-1.5469115786254405975341796875">
        <ele>708.5999755859375</ele>
        <time>2020-08-22T12:46:31.000Z</time>
      </trkpt>
      <trkpt lat="43.18671547807753086090087890625" lon="-1.546668671071529388427734375">
        <ele>709</ele>
        <time>2020-08-22T12:46:42.000Z</time>
      </trkpt>
      <trkpt lat="43.18675537593662738800048828125" lon="-1.546570099890232086181640625">
        <ele>709.5999755859375</ele>
        <time>2020-08-22T12:46:47.000Z</time>
      </trkpt>
      <trkpt lat="43.1867956928908824920654296875" lon="-1.54647463001310825347900390625">
        <ele>710.20001220703125</ele>
        <time>2020-08-22T12:46:52.000Z</time>
      </trkpt>
      <trkpt lat="43.186886720359325408935546875" lon="-1.5463114343583583831787109375">
        <ele>710.5999755859375</ele>
        <time>2020-08-22T12:47:01.000Z</time>
      </trkpt>
      <trkpt lat="43.18691999651491641998291015625" lon="-1.5462544374167919158935546875">
        <ele>710.5999755859375</ele>
        <time>2020-08-22T12:47:04.000Z</time>
      </trkpt>
      <trkpt lat="43.1869814358651638031005859375" lon="-1.546134911477565765380859375">
        <ele>710.5999755859375</ele>
        <time>2020-08-22T12:47:10.000Z</time>
      </trkpt>
      <trkpt lat="43.18705268204212188720703125" lon="-1.5459930896759033203125">
        <ele>711.20001220703125</ele>
        <time>2020-08-22T12:47:18.000Z</time>
      </trkpt>
      <trkpt lat="43.18705410696566104888916015625" lon="-1.54599518515169620513916015625">
        <ele>711.5999755859375</ele>
        <time>2020-08-22T12:47:22.000Z</time>
      </trkpt>
      <trkpt lat="43.1870622374117374420166015625" lon="-1.5459863841533660888671875">
        <ele>711.4000244140625</ele>
        <time>2020-08-22T12:47:27.000Z</time>
      </trkpt>
      <trkpt lat="43.18710900843143463134765625" lon="-1.54585738666355609893798828125">
        <ele>712.20001220703125</ele>
        <time>2020-08-22T12:47:34.000Z</time>
      </trkpt>
      <trkpt lat="43.187130130827426910400390625" lon="-1.54579787515103816986083984375">
        <ele>712.5999755859375</ele>
        <time>2020-08-22T12:47:37.000Z</time>
      </trkpt>
      <trkpt lat="43.1871651671826839447021484375" lon="-1.545702405273914337158203125">
        <ele>713.5999755859375</ele>
        <time>2020-08-22T12:47:42.000Z</time>
      </trkpt>
      <trkpt lat="43.1871740520000457763671875" lon="-1.54568404890596866607666015625">
        <ele>713.5999755859375</ele>
        <time>2020-08-22T12:47:43.000Z</time>
      </trkpt>
      <trkpt lat="43.18725979886949062347412109375" lon="-1.54552278108894824981689453125">
        <ele>714.4000244140625</ele>
        <time>2020-08-22T12:47:52.000Z</time>
      </trkpt>
      <trkpt lat="43.1872679293155670166015625" lon="-1.545505262911319732666015625">
        <ele>714.5999755859375</ele>
        <time>2020-08-22T12:47:53.000Z</time>
      </trkpt>
      <trkpt lat="43.1872999481856822967529296875" lon="-1.5453411452472209930419921875">
        <ele>715.4000244140625</ele>
        <time>2020-08-22T12:48:01.000Z</time>
      </trkpt>
      <trkpt lat="43.187281005084514617919921875" lon="-1.5452610142529010772705078125">
        <ele>715.79998779296875</ele>
        <time>2020-08-22T12:48:05.000Z</time>
      </trkpt>
      <trkpt lat="43.1872754730284214019775390625" lon="-1.54524366371333599090576171875">
        <ele>716.20001220703125</ele>
        <time>2020-08-22T12:48:08.000Z</time>
      </trkpt>
      <trkpt lat="43.1872778199613094329833984375" lon="-1.54524265788495540618896484375">
        <ele>716.4000244140625</ele>
        <time>2020-08-22T12:48:15.000Z</time>
      </trkpt>
      <trkpt lat="43.187278322875499725341796875" lon="-1.54524282552301883697509765625">
        <ele>716.20001220703125</ele>
        <time>2020-08-22T12:48:30.000Z</time>
      </trkpt>
      <trkpt lat="43.18727823905646800994873046875" lon="-1.54524274170398712158203125">
        <ele>716.4000244140625</ele>
        <time>2020-08-22T12:48:41.000Z</time>
      </trkpt>
      <trkpt lat="43.1872580386698246002197265625" lon="-1.545248441398143768310546875">
        <ele>716.4000244140625</ele>
        <time>2020-08-22T12:48:56.000Z</time>
      </trkpt>
      <trkpt lat="43.18724370561540126800537109375" lon="-1.54523360542953014373779296875">
        <ele>716.4000244140625</ele>
        <time>2020-08-22T12:48:58.000Z</time>
      </trkpt>
      <trkpt lat="43.18722509779036045074462890625" lon="-1.545202173292636871337890625">
        <ele>715.79998779296875</ele>
        <time>2020-08-22T12:49:01.000Z</time>
      </trkpt>
      <trkpt lat="43.1871990300714969635009765625" lon="-1.54515095986425876617431640625">
        <ele>715.5999755859375</ele>
        <time>2020-08-22T12:49:06.000Z</time>
      </trkpt>
      <trkpt lat="43.1871869601309299468994140625" lon="-1.54513101093471050262451171875">
        <ele>715.4000244140625</ele>
        <time>2020-08-22T12:49:08.000Z</time>
      </trkpt>
      <trkpt lat="43.18714161403477191925048828125" lon="-1.54504417441785335540771484375">
        <ele>715.20001220703125</ele>
        <time>2020-08-22T12:49:16.000Z</time>
      </trkpt>
      <trkpt lat="43.1870954297482967376708984375" lon="-1.544946022331714630126953125">
        <ele>715.20001220703125</ele>
        <time>2020-08-22T12:49:25.000Z</time>
      </trkpt>
      <trkpt lat="43.18705997429788112640380859375" lon="-1.54484217055141925811767578125">
        <ele>715.20001220703125</ele>
        <time>2020-08-22T12:49:34.000Z</time>
      </trkpt>
      <trkpt lat="43.18703784607350826263427734375" lon="-1.54476371593773365020751953125">
        <ele>714.5999755859375</ele>
        <time>2020-08-22T12:49:40.000Z</time>
      </trkpt>
      <trkpt lat="43.18701840005815029144287109375" lon="-1.54471275396645069122314453125">
        <ele>714.5999755859375</ele>
        <time>2020-08-22T12:49:44.000Z</time>
      </trkpt>
      <trkpt lat="43.18696207366883754730224609375" lon="-1.544595323503017425537109375">
        <ele>714.20001220703125</ele>
        <time>2020-08-22T12:49:54.000Z</time>
      </trkpt>
      <trkpt lat="43.18691278807818889617919921875" lon="-1.54452734626829624176025390625">
        <ele>714</ele>
        <time>2020-08-22T12:50:01.000Z</time>
      </trkpt>
      <trkpt lat="43.18683232180774211883544921875" lon="-1.54447722248733043670654296875">
        <ele>714.4000244140625</ele>
        <time>2020-08-22T12:50:10.000Z</time>
      </trkpt>
      <trkpt lat="43.18682326935231685638427734375" lon="-1.54447001405060291290283203125">
        <ele>714.4000244140625</ele>
        <time>2020-08-22T12:50:11.000Z</time>
      </trkpt>
      <trkpt lat="43.18674347363412380218505859375" lon="-1.544415950775146484375">
        <ele>715</ele>
        <time>2020-08-22T12:50:20.000Z</time>
      </trkpt>
      <trkpt lat="43.1866682879626750946044921875" lon="-1.54436842538416385650634765625">
        <ele>714.79998779296875</ele>
        <time>2020-08-22T12:50:28.000Z</time>
      </trkpt>
      <trkpt lat="43.1866049207746982574462890625" lon="-1.5443193912506103515625">
        <ele>715.4000244140625</ele>
        <time>2020-08-22T12:50:35.000Z</time>
      </trkpt>
      <trkpt lat="43.186539374291896820068359375" lon="-1.54422559775412082672119140625">
        <ele>715</ele>
        <time>2020-08-22T12:50:44.000Z</time>
      </trkpt>
      <trkpt lat="43.18650693632662296295166015625" lon="-1.54410841874778270721435546875">
        <ele>715</ele>
        <time>2020-08-22T12:50:53.000Z</time>
      </trkpt>
      <trkpt lat="43.18650945089757442474365234375" lon="-1.5439822711050510406494140625">
        <ele>715.5999755859375</ele>
        <time>2020-08-22T12:51:02.000Z</time>
      </trkpt>
      <trkpt lat="43.18650945089757442474365234375" lon="-1.5439688600599765777587890625">
        <ele>715.5999755859375</ele>
        <time>2020-08-22T12:51:03.000Z</time>
      </trkpt>
      <trkpt lat="43.18651414476335048675537109375" lon="-1.543876491487026214599609375">
        <ele>715.4000244140625</ele>
        <time>2020-08-22T12:51:10.000Z</time>
      </trkpt>
      <trkpt lat="43.18651732988655567169189453125" lon="-1.54387439601123332977294921875">
        <ele>715.4000244140625</ele>
        <time>2020-08-22T12:51:24.000Z</time>
      </trkpt>
      <trkpt lat="43.18651984445750713348388671875" lon="-1.54382653534412384033203125">
        <ele>715</ele>
        <time>2020-08-22T12:51:34.000Z</time>
      </trkpt>
      <trkpt lat="43.18653660826385021209716796875" lon="-1.54368144460022449493408203125">
        <ele>715.5999755859375</ele>
        <time>2020-08-22T12:51:45.000Z</time>
      </trkpt>
      <trkpt lat="43.18655588664114475250244140625" lon="-1.5435467474162578582763671875">
        <ele>714.79998779296875</ele>
        <time>2020-08-22T12:51:55.000Z</time>
      </trkpt>
      <trkpt lat="43.18653157912194728851318359375" lon="-1.543421857059001922607421875">
        <ele>715</ele>
        <time>2020-08-22T12:52:04.000Z</time>
      </trkpt>
      <trkpt lat="43.1864900887012481689453125" lon="-1.5433083660900592803955078125">
        <ele>715.20001220703125</ele>
        <time>2020-08-22T12:52:13.000Z</time>
      </trkpt>
      <trkpt lat="43.18646770901978015899658203125" lon="-1.54319043271243572235107421875">
        <ele>715.5999755859375</ele>
        <time>2020-08-22T12:52:23.000Z</time>
      </trkpt>
      <trkpt lat="43.1864315830171108245849609375" lon="-1.543073169887065887451171875">
        <ele>715.5999755859375</ele>
        <time>2020-08-22T12:52:32.000Z</time>
      </trkpt>
      <trkpt lat="43.18638573400676250457763671875" lon="-1.54294014908373355865478515625">
        <ele>716.20001220703125</ele>
        <time>2020-08-22T12:52:42.000Z</time>
      </trkpt>
      <trkpt lat="43.186341226100921630859375" lon="-1.54281106777489185333251953125">
        <ele>716.5999755859375</ele>
        <time>2020-08-22T12:52:52.000Z</time>
      </trkpt>
      <trkpt lat="43.1863001547753810882568359375" lon="-1.542715094983577728271484375">
        <ele>717</ele>
        <time>2020-08-22T12:53:00.000Z</time>
      </trkpt>
      <trkpt lat="43.1862686388194561004638671875" lon="-1.542664133012294769287109375">
        <ele>717.5999755859375</ele>
        <time>2020-08-22T12:53:05.000Z</time>
      </trkpt>
      <trkpt lat="43.18624290637671947479248046875" lon="-1.54262817464768886566162109375">
        <ele>718</ele>
        <time>2020-08-22T12:53:09.000Z</time>
      </trkpt>
      <trkpt lat="43.18622111342847347259521484375" lon="-1.5426042862236499786376953125">
        <ele>718.79998779296875</ele>
        <time>2020-08-22T12:53:12.000Z</time>
      </trkpt>
      <trkpt lat="43.18617719225585460662841796875" lon="-1.5425442717969417572021484375">
        <ele>718.5999755859375</ele>
        <time>2020-08-22T12:53:18.000Z</time>
      </trkpt>
      <trkpt lat="43.1861422397196292877197265625" lon="-1.54246355406939983367919921875">
        <ele>718.5999755859375</ele>
        <time>2020-08-22T12:53:25.000Z</time>
      </trkpt>
      <trkpt lat="43.18613796494901180267333984375" lon="-1.5424514003098011016845703125">
        <ele>718.4000244140625</ele>
        <time>2020-08-22T12:53:26.000Z</time>
      </trkpt>
      <trkpt lat="43.186116255819797515869140625" lon="-1.542380489408969879150390625">
        <ele>718.20001220703125</ele>
        <time>2020-08-22T12:53:34.000Z</time>
      </trkpt>
      <trkpt lat="43.18611633963882923126220703125" lon="-1.54230630956590175628662109375">
        <ele>718</ele>
        <time>2020-08-22T12:53:40.000Z</time>
      </trkpt>
      <trkpt lat="43.18611483089625835418701171875" lon="-1.54230035841464996337890625">
        <ele>717.5999755859375</ele>
        <time>2020-08-22T12:53:46.000Z</time>
      </trkpt>
      <trkpt lat="43.18611600436270236968994140625" lon="-1.5422985143959522247314453125">
        <ele>717.5999755859375</ele>
        <time>2020-08-22T12:53:47.000Z</time>
      </trkpt>
      <trkpt lat="43.18612539209425449371337890625" lon="-1.542205810546875">
        <ele>717.4000244140625</ele>
        <time>2020-08-22T12:53:53.000Z</time>
      </trkpt>
      <trkpt lat="43.1861854903399944305419921875" lon="-1.5420877933502197265625">
        <ele>716.4000244140625</ele>
        <time>2020-08-22T12:53:58.000Z</time>
      </trkpt>
      <trkpt lat="43.18620066158473491668701171875" lon="-1.54206306673586368560791015625">
        <ele>716.20001220703125</ele>
        <time>2020-08-22T12:53:59.000Z</time>
      </trkpt>
      <trkpt lat="43.1862434931099414825439453125" lon="-1.542022414505481719970703125">
        <ele>715.4000244140625</ele>
        <time>2020-08-22T12:54:01.000Z</time>
      </trkpt>
      <trkpt lat="43.1862810440361499786376953125" lon="-1.5419769845902919769287109375">
        <ele>714.5999755859375</ele>
        <time>2020-08-22T12:54:03.000Z</time>
      </trkpt>
      <trkpt lat="43.186303339898586273193359375" lon="-1.54194102622568607330322265625">
        <ele>714.20001220703125</ele>
        <time>2020-08-22T12:54:04.000Z</time>
      </trkpt>
      <trkpt lat="43.1863662041723728179931640625" lon="-1.54181060381233692169189453125">
        <ele>713.20001220703125</ele>
        <time>2020-08-22T12:54:07.000Z</time>
      </trkpt>
      <trkpt lat="43.18637819029390811920166015625" lon="-1.54177338816225528717041015625">
        <ele>712.79998779296875</ele>
        <time>2020-08-22T12:54:08.000Z</time>
      </trkpt>
      <trkpt lat="43.186416327953338623046875" lon="-1.541654281318187713623046875">
        <ele>713.4000244140625</ele>
        <time>2020-08-22T12:54:13.000Z</time>
      </trkpt>
      <trkpt lat="43.18639813922345638275146484375" lon="-1.54155361466109752655029296875">
        <ele>714</ele>
        <time>2020-08-22T12:54:18.000Z</time>
      </trkpt>
      <trkpt lat="43.18639445118606090545654296875" lon="-1.5415233559906482696533203125">
        <ele>714.20001220703125</ele>
        <time>2020-08-22T12:54:20.000Z</time>
      </trkpt>
      <trkpt lat="43.18638137541711330413818359375" lon="-1.5414455719292163848876953125">
        <ele>715.20001220703125</ele>
        <time>2020-08-22T12:54:24.000Z</time>
      </trkpt>
      <trkpt lat="43.186378777027130126953125" lon="-1.541428305208683013916015625">
        <ele>715.4000244140625</ele>
        <time>2020-08-22T12:54:25.000Z</time>
      </trkpt>
      <trkpt lat="43.18637031130492687225341796875" lon="-1.54138614423573017120361328125">
        <ele>715.79998779296875</ele>
        <time>2020-08-22T12:54:27.000Z</time>
      </trkpt>
      <trkpt lat="43.186357319355010986328125" lon="-1.54132076539099216461181640625">
        <ele>716.5999755859375</ele>
        <time>2020-08-22T12:54:30.000Z</time>
      </trkpt>
      <trkpt lat="43.18635002709925174713134765625" lon="-1.54127365909516811370849609375">
        <ele>716.5999755859375</ele>
        <time>2020-08-22T12:54:32.000Z</time>
      </trkpt>
      <trkpt lat="43.18632119335234165191650390625" lon="-1.54116704128682613372802734375">
        <ele>717</ele>
        <time>2020-08-22T12:54:37.000Z</time>
      </trkpt>
      <trkpt lat="43.18629940040409564971923828125" lon="-1.5411049313843250274658203125">
        <ele>717.4000244140625</ele>
        <time>2020-08-22T12:54:40.000Z</time>
      </trkpt>
      <trkpt lat="43.18627224303781986236572265625" lon="-1.54102555476129055023193359375">
        <ele>718.4000244140625</ele>
        <time>2020-08-22T12:54:44.000Z</time>
      </trkpt>
      <trkpt lat="43.186262436211109161376953125" lon="-1.54100887477397918701171875">
        <ele>718.5999755859375</ele>
        <time>2020-08-22T12:54:45.000Z</time>
      </trkpt>
      <trkpt lat="43.1862156651914119720458984375" lon="-1.54091239906847476959228515625">
        <ele>719.79998779296875</ele>
        <time>2020-08-22T12:54:51.000Z</time>
      </trkpt>
      <trkpt lat="43.18620401434600353240966796875" lon="-1.540897898375988006591796875">
        <ele>720</ele>
        <time>2020-08-22T12:54:52.000Z</time>
      </trkpt>
      <trkpt lat="43.186180628836154937744140625" lon="-1.54084584675729274749755859375">
        <ele>720.79998779296875</ele>
        <time>2020-08-22T12:54:55.000Z</time>
      </trkpt>
      <trkpt lat="43.18614433519542217254638671875" lon="-1.54078759253025054931640625">
        <ele>721.4000244140625</ele>
        <time>2020-08-22T12:54:59.000Z</time>
      </trkpt>
      <trkpt lat="43.186104185879230499267578125" lon="-1.540726907551288604736328125">
        <ele>721.79998779296875</ele>
        <time>2020-08-22T12:55:03.000Z</time>
      </trkpt>
      <trkpt lat="43.18606655113399028778076171875" lon="-1.540663875639438629150390625">
        <ele>722.5999755859375</ele>
        <time>2020-08-22T12:55:07.000Z</time>
      </trkpt>
      <trkpt lat="43.18603855557739734649658203125" lon="-1.5406204573810100555419921875">
        <ele>723</ele>
        <time>2020-08-22T12:55:10.000Z</time>
      </trkpt>
      <trkpt lat="43.185972087085247039794921875" lon="-1.54049246571958065032958984375">
        <ele>723.79998779296875</ele>
        <time>2020-08-22T12:55:18.000Z</time>
      </trkpt>
      <trkpt lat="43.1859514676034450531005859375" lon="-1.54044116847217082977294921875">
        <ele>724</ele>
        <time>2020-08-22T12:55:21.000Z</time>
      </trkpt>
      <trkpt lat="43.1859165988862514495849609375" lon="-1.5403820760548114776611328125">
        <ele>724.5999755859375</ele>
        <time>2020-08-22T12:55:25.000Z</time>
      </trkpt>
      <trkpt lat="43.18590142764151096343994140625" lon="-1.54034980572760105133056640625">
        <ele>725</ele>
        <time>2020-08-22T12:55:27.000Z</time>
      </trkpt>
      <trkpt lat="43.18582766689360141754150390625" lon="-1.5401862747967243194580078125">
        <ele>725.79998779296875</ele>
        <time>2020-08-22T12:55:37.000Z</time>
      </trkpt>
      <trkpt lat="43.18581928499042987823486328125" lon="-1.540171690285205841064453125">
        <ele>725.79998779296875</ele>
        <time>2020-08-22T12:55:38.000Z</time>
      </trkpt>
      <trkpt lat="43.18577636964619159698486328125" lon="-1.5400796569883823394775390625">
        <ele>727</ele>
        <time>2020-08-22T12:55:44.000Z</time>
      </trkpt>
      <trkpt lat="43.18576849065721035003662109375" lon="-1.5400615520775318145751953125">
        <ele>727</ele>
        <time>2020-08-22T12:55:45.000Z</time>
      </trkpt>
      <trkpt lat="43.18573060445487499237060546875" lon="-1.53989567421376705169677734375">
        <ele>727.20001220703125</ele>
        <time>2020-08-22T12:55:53.000Z</time>
      </trkpt>
      <trkpt lat="43.1857412494719028472900390625" lon="-1.53967523016035556793212890625">
        <ele>727</ele>
        <time>2020-08-22T12:56:01.000Z</time>
      </trkpt>
      <trkpt lat="43.18579229526221752166748046875" lon="-1.5394131280481815338134765625">
        <ele>726.4000244140625</ele>
        <time>2020-08-22T12:56:07.000Z</time>
      </trkpt>
      <trkpt lat="43.185835964977741241455078125" lon="-1.5391204319894313812255859375">
        <ele>725.79998779296875</ele>
        <time>2020-08-22T12:56:14.000Z</time>
      </trkpt>
      <trkpt lat="43.1858381442725658416748046875" lon="-1.53908397071063518524169921875">
        <ele>725.79998779296875</ele>
        <time>2020-08-22T12:56:15.000Z</time>
      </trkpt>
      <trkpt lat="43.1858585961163043975830078125" lon="-1.538879536092281341552734375">
        <ele>724.5999755859375</ele>
        <time>2020-08-22T12:56:21.000Z</time>
      </trkpt>
      <trkpt lat="43.18587116897106170654296875" lon="-1.5388222038745880126953125">
        <ele>724.20001220703125</ele>
        <time>2020-08-22T12:56:23.000Z</time>
      </trkpt>
      <trkpt lat="43.1859608553349971771240234375" lon="-1.5386668033897876739501953125">
        <ele>723.20001220703125</ele>
        <time>2020-08-22T12:56:29.000Z</time>
      </trkpt>
      <trkpt lat="43.18600569851696491241455078125" lon="-1.53859245590865612030029296875">
        <ele>722.20001220703125</ele>
        <time>2020-08-22T12:56:31.000Z</time>
      </trkpt>
      <trkpt lat="43.1860788725316524505615234375" lon="-1.53843252919614315032958984375">
        <ele>722.4000244140625</ele>
        <time>2020-08-22T12:56:35.000Z</time>
      </trkpt>
      <trkpt lat="43.1861073710024356842041015625" lon="-1.53827494941651821136474609375">
        <ele>722.5999755859375</ele>
        <time>2020-08-22T12:56:41.000Z</time>
      </trkpt>
      <trkpt lat="43.1861140765249729156494140625" lon="-1.53821728192269802093505859375">
        <ele>722.79998779296875</ele>
        <time>2020-08-22T12:56:44.000Z</time>
      </trkpt>
      <trkpt lat="43.1861147470772266387939453125" lon="-1.53818048536777496337890625">
        <ele>723.20001220703125</ele>
        <time>2020-08-22T12:56:46.000Z</time>
      </trkpt>
      <trkpt lat="43.18611717782914638519287109375" lon="-1.5381605364382266998291015625">
        <ele>723.4000244140625</ele>
        <time>2020-08-22T12:56:47.000Z</time>
      </trkpt>
      <trkpt lat="43.186142742633819580078125" lon="-1.538023911416530609130859375">
        <ele>724</ele>
        <time>2020-08-22T12:56:55.000Z</time>
      </trkpt>
      <trkpt lat="43.186147101223468780517578125" lon="-1.538005135953426361083984375">
        <ele>724.20001220703125</ele>
        <time>2020-08-22T12:56:56.000Z</time>
      </trkpt>
      <trkpt lat="43.18618741817772388458251953125" lon="-1.53785317204892635345458984375">
        <ele>724.79998779296875</ele>
        <time>2020-08-22T12:57:04.000Z</time>
      </trkpt>
      <trkpt lat="43.1862438283860683441162109375" lon="-1.5377085842192173004150390625">
        <ele>725</ele>
        <time>2020-08-22T12:57:12.000Z</time>
      </trkpt>
      <trkpt lat="43.18625145591795444488525390625" lon="-1.53769156895577907562255859375">
        <ele>725</ele>
        <time>2020-08-22T12:57:13.000Z</time>
      </trkpt>
      <trkpt lat="43.18631130270659923553466796875" lon="-1.53758076019585132598876953125">
        <ele>726</ele>
        <time>2020-08-22T12:57:21.000Z</time>
      </trkpt>
      <trkpt lat="43.18637114949524402618408203125" lon="-1.5374958515167236328125">
        <ele>726.4000244140625</ele>
        <time>2020-08-22T12:57:28.000Z</time>
      </trkpt>
      <trkpt lat="43.18644960410892963409423828125" lon="-1.537418067455291748046875">
        <ele>726.79998779296875</ele>
        <time>2020-08-22T12:57:36.000Z</time>
      </trkpt>
      <trkpt lat="43.18654415197670459747314453125" lon="-1.5373632498085498809814453125">
        <ele>727</ele>
        <time>2020-08-22T12:57:44.000Z</time>
      </trkpt>
      <trkpt lat="43.18664976395666599273681640625" lon="-1.53736886568367481231689453125">
        <ele>727</ele>
        <time>2020-08-22T12:57:51.000Z</time>
      </trkpt>
      <trkpt lat="43.18682343699038028717041015625" lon="-1.537436507642269134521484375">
        <ele>725.5999755859375</ele>
        <time>2020-08-22T12:57:56.000Z</time>
      </trkpt>
      <trkpt lat="43.186902813613414764404296875" lon="-1.53744463808834552764892578125">
        <ele>724.20001220703125</ele>
        <time>2020-08-22T12:57:58.000Z</time>
      </trkpt>
      <trkpt lat="43.1869670189917087554931640625" lon="-1.53741915710270404815673828125">
        <ele>723.4000244140625</ele>
        <time>2020-08-22T12:58:00.000Z</time>
      </trkpt>
      <trkpt lat="43.1870474852621555328369140625" lon="-1.53734506107866764068603515625">
        <ele>723</ele>
        <time>2020-08-22T12:58:03.000Z</time>
      </trkpt>
      <trkpt lat="43.18709450773894786834716796875" lon="-1.53727968223392963409423828125">
        <ele>722.20001220703125</ele>
        <time>2020-08-22T12:58:05.000Z</time>
      </trkpt>
      <trkpt lat="43.18712837062776088714599609375" lon="-1.53719854541122913360595703125">
        <ele>721.5999755859375</ele>
        <time>2020-08-22T12:58:07.000Z</time>
      </trkpt>
      <trkpt lat="43.18715326488018035888671875" lon="-1.53709326870739459991455078125">
        <ele>721</ele>
        <time>2020-08-22T12:58:09.000Z</time>
      </trkpt>
      <trkpt lat="43.1871678493916988372802734375" lon="-1.53697139583528041839599609375">
        <ele>720.5999755859375</ele>
        <time>2020-08-22T12:58:11.000Z</time>
      </trkpt>
      <trkpt lat="43.1871722079813480377197265625" lon="-1.53680845163762569427490234375">
        <ele>719.4000244140625</ele>
        <time>2020-08-22T12:58:14.000Z</time>
      </trkpt>
      <trkpt lat="43.18717363290488719940185546875" lon="-1.53675531037151813507080078125">
        <ele>719.20001220703125</ele>
        <time>2020-08-22T12:58:15.000Z</time>
      </trkpt>
      <trkpt lat="43.18718268536031246185302734375" lon="-1.53661005198955535888671875">
        <ele>718.20001220703125</ele>
        <time>2020-08-22T12:58:19.000Z</time>
      </trkpt>
      <trkpt lat="43.18718369118869304656982421875" lon="-1.536603681743144989013671875">
        <ele>717.79998779296875</ele>
        <time>2020-08-22T12:58:20.000Z</time>
      </trkpt>
      <trkpt lat="43.1871820986270904541015625" lon="-1.53661809861660003662109375">
        <ele>717.20001220703125</ele>
        <time>2020-08-22T12:58:31.000Z</time>
      </trkpt>
      <trkpt lat="43.18717983551323413848876953125" lon="-1.53669412247836589813232421875">
        <ele>717.5999755859375</ele>
        <time>2020-08-22T12:58:39.000Z</time>
      </trkpt>
      <trkpt lat="43.18717547692358493804931640625" lon="-1.536786742508411407470703125">
        <ele>718.5999755859375</ele>
        <time>2020-08-22T12:58:48.000Z</time>
      </trkpt>
      <trkpt lat="43.1871712021529674530029296875" lon="-1.53691238723695278167724609375">
        <ele>718.5999755859375</ele>
        <time>2020-08-22T12:58:57.000Z</time>
      </trkpt>
      <trkpt lat="43.18716675974428653717041015625" lon="-1.53694172389805316925048828125">
        <ele>719</ele>
        <time>2020-08-22T12:58:59.000Z</time>
      </trkpt>
      <trkpt lat="43.1871591322124004364013671875" lon="-1.53702738694846630096435546875">
        <ele>719</ele>
        <time>2020-08-22T12:59:05.000Z</time>
      </trkpt>
      <trkpt lat="43.187124095857143402099609375" lon="-1.5371168218553066253662109375">
        <ele>720</ele>
        <time>2020-08-22T12:59:13.000Z</time>
      </trkpt>
      <trkpt lat="43.18710993044078350067138671875" lon="-1.5371661074459552764892578125">
        <ele>720</ele>
        <time>2020-08-22T12:59:17.000Z</time>
      </trkpt>
      <trkpt lat="43.18709232844412326812744140625" lon="-1.53721665032207965850830078125">
        <ele>721</ele>
        <time>2020-08-22T12:59:22.000Z</time>
      </trkpt>
      <trkpt lat="43.18708796985447406768798828125" lon="-1.5372277982532978057861328125">
        <ele>721.20001220703125</ele>
        <time>2020-08-22T12:59:23.000Z</time>
      </trkpt>
      <trkpt lat="43.18704128265380859375" lon="-1.53730734251439571380615234375">
        <ele>721.79998779296875</ele>
        <time>2020-08-22T12:59:31.000Z</time>
      </trkpt>
      <trkpt lat="43.18703382275998592376708984375" lon="-1.53734304942190647125244140625">
        <ele>722.20001220703125</ele>
        <time>2020-08-22T12:59:34.000Z</time>
      </trkpt>
      <trkpt lat="43.187055028975009918212890625" lon="-1.5373997949063777923583984375">
        <ele>722.5999755859375</ele>
        <time>2020-08-22T12:59:39.000Z</time>
      </trkpt>
      <trkpt lat="43.1870900653302669525146484375" lon="-1.537422426044940948486328125">
        <ele>723.20001220703125</ele>
        <time>2020-08-22T12:59:44.000Z</time>
      </trkpt>
      <trkpt lat="43.187101297080516815185546875" lon="-1.53742368333041667938232421875">
        <ele>723.4000244140625</ele>
        <time>2020-08-22T12:59:46.000Z</time>
      </trkpt>
      <trkpt lat="43.18714924156665802001953125" lon="-1.5374158881604671478271484375">
        <ele>723.79998779296875</ele>
        <time>2020-08-22T12:59:52.000Z</time>
      </trkpt>
      <trkpt lat="43.18716659210622310638427734375" lon="-1.53740490786731243133544921875">
        <ele>724</ele>
        <time>2020-08-22T12:59:54.000Z</time>
      </trkpt>
      <trkpt lat="43.18718670867383480072021484375" lon="-1.53738562949001789093017578125">
        <ele>724</ele>
        <time>2020-08-22T12:59:57.000Z</time>
      </trkpt>
      <trkpt lat="43.18725124932825565338134765625" lon="-1.53733584098517894744873046875">
        <ele>723.79998779296875</ele>
        <time>2020-08-22T13:00:03.000Z</time>
      </trkpt>
      <trkpt lat="43.18731478415429592132568359375" lon="-1.53731890954077243804931640625">
        <ele>724.20001220703125</ele>
        <time>2020-08-22T13:00:10.000Z</time>
      </trkpt>
      <trkpt lat="43.18738686852157115936279296875" lon="-1.5372633375227451324462890625">
        <ele>724.5999755859375</ele>
        <time>2020-08-22T13:00:18.000Z</time>
      </trkpt>
      <trkpt lat="43.18748141638934612274169921875" lon="-1.53720927424728870391845703125">
        <ele>725</ele>
        <time>2020-08-22T13:00:28.000Z</time>
      </trkpt>
      <trkpt lat="43.18749097175896167755126953125" lon="-1.53720424510538578033447265625">
        <ele>725.20001220703125</ele>
        <time>2020-08-22T13:00:29.000Z</time>
      </trkpt>
      <trkpt lat="43.1875550933182239532470703125" lon="-1.53716132976114749908447265625">
        <ele>725.20001220703125</ele>
        <time>2020-08-22T13:00:36.000Z</time>
      </trkpt>
      <trkpt lat="43.18760429508984088897705078125" lon="-1.537098549306392669677734375">
        <ele>725.79998779296875</ele>
        <time>2020-08-22T13:00:43.000Z</time>
      </trkpt>
      <trkpt lat="43.18762575276196002960205078125" lon="-1.537071056663990020751953125">
        <ele>725.79998779296875</ele>
        <time>2020-08-22T13:00:46.000Z</time>
      </trkpt>
      <trkpt lat="43.1876355595886707305908203125" lon="-1.5370578132569789886474609375">
        <ele>726.20001220703125</ele>
        <time>2020-08-22T13:00:48.000Z</time>
      </trkpt>
      <trkpt lat="43.18764536641538143157958984375" lon="-1.53704113326966762542724609375">
        <ele>726.5999755859375</ele>
        <time>2020-08-22T13:00:50.000Z</time>
      </trkpt>
      <trkpt lat="43.18769507110118865966796875" lon="-1.53698212467133998870849609375">
        <ele>727.4000244140625</ele>
        <time>2020-08-22T13:00:57.000Z</time>
      </trkpt>
      <trkpt lat="43.18774762563407421112060546875" lon="-1.53695245273411273956298828125">
        <ele>728</ele>
        <time>2020-08-22T13:01:06.000Z</time>
      </trkpt>
      <trkpt lat="43.1877559237182140350341796875" lon="-1.53695044107735157012939453125">
        <ele>728.20001220703125</ele>
        <time>2020-08-22T13:01:07.000Z</time>
      </trkpt>
      <trkpt lat="43.18777143023908138275146484375" lon="-1.53694809414446353912353515625">
        <ele>728.4000244140625</ele>
        <time>2020-08-22T13:01:09.000Z</time>
      </trkpt>
      <trkpt lat="43.1878058798611164093017578125" lon="-1.5369475074112415313720703125">
        <ele>728.79998779296875</ele>
        <time>2020-08-22T13:01:13.000Z</time>
      </trkpt>
      <trkpt lat="43.18786279298365116119384765625" lon="-1.536951698362827301025390625">
        <ele>729</ele>
        <time>2020-08-22T13:01:19.000Z</time>
      </trkpt>
      <trkpt lat="43.18788039498031139373779296875" lon="-1.53695203363895416259765625">
        <ele>729.4000244140625</ele>
        <time>2020-08-22T13:01:21.000Z</time>
      </trkpt>
      <trkpt lat="43.18788760341703891754150390625" lon="-1.53695178218185901641845703125">
        <ele>729.5999755859375</ele>
        <time>2020-08-22T13:01:22.000Z</time>
      </trkpt>
      <trkpt lat="43.18793454207479953765869140625" lon="-1.5369454957544803619384765625">
        <ele>729.79998779296875</ele>
        <time>2020-08-22T13:01:28.000Z</time>
      </trkpt>
      <trkpt lat="43.18794325925409793853759765625" lon="-1.53694541193544864654541015625">
        <ele>730</ele>
        <time>2020-08-22T13:01:29.000Z</time>
      </trkpt>
      <trkpt lat="43.18796572275459766387939453125" lon="-1.53694155625998973846435546875">
        <ele>730.5999755859375</ele>
        <time>2020-08-22T13:01:32.000Z</time>
      </trkpt>
      <trkpt lat="43.188008554279804229736328125" lon="-1.5369379520416259765625">
        <ele>731.20001220703125</ele>
        <time>2020-08-22T13:01:38.000Z</time>
      </trkpt>
      <trkpt lat="43.188031017780303955078125" lon="-1.536941640079021453857421875">
        <ele>731.79998779296875</ele>
        <time>2020-08-22T13:01:42.000Z</time>
      </trkpt>
      <trkpt lat="43.188048787415027618408203125" lon="-1.5369419753551483154296875">
        <ele>732.20001220703125</ele>
        <time>2020-08-22T13:01:47.000Z</time>
      </trkpt>
      <trkpt lat="43.188068568706512451171875" lon="-1.536916159093379974365234375">
        <ele>732.5999755859375</ele>
        <time>2020-08-22T13:01:53.000Z</time>
      </trkpt>
      <trkpt lat="43.1880838237702846527099609375" lon="-1.536905430257320404052734375">
        <ele>733</ele>
        <time>2020-08-22T13:01:56.000Z</time>
      </trkpt>
      <trkpt lat="43.1881235539913177490234375" lon="-1.5368777699768543243408203125">
        <ele>733.5999755859375</ele>
        <time>2020-08-22T13:02:03.000Z</time>
      </trkpt>
      <trkpt lat="43.1881606020033359527587890625" lon="-1.5368750877678394317626953125">
        <ele>734.20001220703125</ele>
        <time>2020-08-22T13:02:08.000Z</time>
      </trkpt>
      <trkpt lat="43.18818415515124797821044921875" lon="-1.536884307861328125">
        <ele>735</ele>
        <time>2020-08-22T13:02:11.000Z</time>
      </trkpt>
      <trkpt lat="43.18823260255157947540283203125" lon="-1.53689780272543430328369140625">
        <ele>735.79998779296875</ele>
        <time>2020-08-22T13:02:19.000Z</time>
      </trkpt>
      <trkpt lat="43.18824098445475101470947265625" lon="-1.5368978865444660186767578125">
        <ele>735.79998779296875</ele>
        <time>2020-08-22T13:02:20.000Z</time>
      </trkpt>
      <trkpt lat="43.18829311989247798919677734375" lon="-1.53690232895314693450927734375">
        <ele>736.5999755859375</ele>
        <time>2020-08-22T13:02:29.000Z</time>
      </trkpt>
      <trkpt lat="43.188297562301158905029296875" lon="-1.5369029156863689422607421875">
        <ele>736.79998779296875</ele>
        <time>2020-08-22T13:02:30.000Z</time>
      </trkpt>
      <trkpt lat="43.18833804689347743988037109375" lon="-1.536916829645633697509765625">
        <ele>737.5999755859375</ele>
        <time>2020-08-22T13:02:39.000Z</time>
      </trkpt>
      <trkpt lat="43.18835129030048847198486328125" lon="-1.53692211024463176727294921875">
        <ele>738</ele>
        <time>2020-08-22T13:02:41.000Z</time>
      </trkpt>
      <trkpt lat="43.18839219398796558380126953125" lon="-1.5369525365531444549560546875">
        <ele>738.20001220703125</ele>
        <time>2020-08-22T13:02:48.000Z</time>
      </trkpt>
      <trkpt lat="43.18843091838061809539794921875" lon="-1.5369625948369503021240234375">
        <ele>739.20001220703125</ele>
        <time>2020-08-22T13:02:54.000Z</time>
      </trkpt>
      <trkpt lat="43.18846679292619228363037109375" lon="-1.53695714659988880157470703125">
        <ele>739.5999755859375</ele>
        <time>2020-08-22T13:02:59.000Z</time>
      </trkpt>
      <trkpt lat="43.18849227391183376312255859375" lon="-1.53697055764496326446533203125">
        <ele>740</ele>
        <time>2020-08-22T13:03:03.000Z</time>
      </trkpt>
      <trkpt lat="43.18851809017360210418701171875" lon="-1.5369830466806888580322265625">
        <ele>740.4000244140625</ele>
        <time>2020-08-22T13:03:07.000Z</time>
      </trkpt>
      <trkpt lat="43.1885361112654209136962890625" lon="-1.53699737973511219024658203125">
        <ele>741</ele>
        <time>2020-08-22T13:03:10.000Z</time>
      </trkpt>
      <trkpt lat="43.18856620229780673980712890625" lon="-1.5370152331888675689697265625">
        <ele>741.4000244140625</ele>
        <time>2020-08-22T13:03:17.000Z</time>
      </trkpt>
      <trkpt lat="43.188595958054065704345703125" lon="-1.53703392483294010162353515625">
        <ele>741.79998779296875</ele>
        <time>2020-08-22T13:03:23.000Z</time>
      </trkpt>
      <trkpt lat="43.1886184215545654296875" lon="-1.5370492637157440185546875">
        <ele>742.5999755859375</ele>
        <time>2020-08-22T13:03:27.000Z</time>
      </trkpt>
      <trkpt lat="43.1886360235512256622314453125" lon="-1.53705555014312267303466796875">
        <ele>743</ele>
        <time>2020-08-22T13:03:30.000Z</time>
      </trkpt>
      <trkpt lat="43.188653625547885894775390625" lon="-1.53706443496048450469970703125">
        <ele>743.20001220703125</ele>
        <time>2020-08-22T13:03:33.000Z</time>
      </trkpt>
      <trkpt lat="43.18868153728544712066650390625" lon="-1.5370581485331058502197265625">
        <ele>743.5999755859375</ele>
        <time>2020-08-22T13:03:37.000Z</time>
      </trkpt>
      <trkpt lat="43.1887042522430419921875" lon="-1.53706108219921588897705078125">
        <ele>744</ele>
        <time>2020-08-22T13:03:40.000Z</time>
      </trkpt>
      <trkpt lat="43.1887466646730899810791015625" lon="-1.53704381547868251800537109375">
        <ele>744.79998779296875</ele>
        <time>2020-08-22T13:03:47.000Z</time>
      </trkpt>
      <trkpt lat="43.188765943050384521484375" lon="-1.53704498894512653350830078125">
        <ele>745</ele>
        <time>2020-08-22T13:03:50.000Z</time>
      </trkpt>
      <trkpt lat="43.1887986324727535247802734375" lon="-1.53706242330372333526611328125">
        <ele>745.79998779296875</ele>
        <time>2020-08-22T13:03:57.000Z</time>
      </trkpt>
      <trkpt lat="43.1888033263385295867919921875" lon="-1.5370635129511356353759765625">
        <ele>746</ele>
        <time>2020-08-22T13:03:58.000Z</time>
      </trkpt>
      <trkpt lat="43.1888619996607303619384765625" lon="-1.537073068320751190185546875">
        <ele>746.5999755859375</ele>
        <time>2020-08-22T13:04:07.000Z</time>
      </trkpt>
      <trkpt lat="43.1888824515044689178466796875" lon="-1.53707164339721202850341796875">
        <ele>746.79998779296875</ele>
        <time>2020-08-22T13:04:10.000Z</time>
      </trkpt>
      <trkpt lat="43.18893559277057647705078125" lon="-1.53708019293844699859619140625">
        <ele>747.4000244140625</ele>
        <time>2020-08-22T13:04:18.000Z</time>
      </trkpt>
      <trkpt lat="43.18896400742232799530029296875" lon="-1.5370896644890308380126953125">
        <ele>747.79998779296875</ele>
        <time>2020-08-22T13:04:22.000Z</time>
      </trkpt>
      <trkpt lat="43.18899636156857013702392578125" lon="-1.537091173231601715087890625">
        <ele>747.79998779296875</ele>
        <time>2020-08-22T13:04:27.000Z</time>
      </trkpt>
      <trkpt lat="43.18907481618225574493408203125" lon="-1.53705596923828125">
        <ele>748.5999755859375</ele>
        <time>2020-08-22T13:04:36.000Z</time>
      </trkpt>
      <trkpt lat="43.18912393413484096527099609375" lon="-1.537004001438617706298828125">
        <ele>749.4000244140625</ele>
        <time>2020-08-22T13:04:43.000Z</time>
      </trkpt>
      <trkpt lat="43.18913835100829601287841796875" lon="-1.53698153793811798095703125">
        <ele>749.5999755859375</ele>
        <time>2020-08-22T13:04:46.000Z</time>
      </trkpt>
      <trkpt lat="43.18916760385036468505859375" lon="-1.53694373555481433868408203125">
        <ele>750.4000244140625</ele>
        <time>2020-08-22T13:04:52.000Z</time>
      </trkpt>
      <trkpt lat="43.18918235599994659423828125" lon="-1.5369178354740142822265625">
        <ele>750.5999755859375</ele>
        <time>2020-08-22T13:04:55.000Z</time>
      </trkpt>
      <trkpt lat="43.18920624442398548126220703125" lon="-1.53688120655715465545654296875">
        <ele>751.4000244140625</ele>
        <time>2020-08-22T13:05:02.000Z</time>
      </trkpt>
      <trkpt lat="43.18921797908842563629150390625" lon="-1.53687232173979282379150390625">
        <ele>751.79998779296875</ele>
        <time>2020-08-22T13:05:04.000Z</time>
      </trkpt>
      <trkpt lat="43.1892690248787403106689453125" lon="-1.53680778108537197113037109375">
        <ele>752.5999755859375</ele>
        <time>2020-08-22T13:05:12.000Z</time>
      </trkpt>
      <trkpt lat="43.18928335793316364288330078125" lon="-1.536796800792217254638671875">
        <ele>752.5999755859375</ele>
        <time>2020-08-22T13:05:14.000Z</time>
      </trkpt>
      <trkpt lat="43.1893895566463470458984375" lon="-1.5367496944963932037353515625">
        <ele>753.20001220703125</ele>
        <time>2020-08-22T13:05:26.000Z</time>
      </trkpt>
      <trkpt lat="43.189460970461368560791015625" lon="-1.53674609027802944183349609375">
        <ele>753.4000244140625</ele>
        <time>2020-08-22T13:05:33.000Z</time>
      </trkpt>
      <trkpt lat="43.189471028745174407958984375" lon="-1.5367413125932216644287109375">
        <ele>753.4000244140625</ele>
        <time>2020-08-22T13:05:34.000Z</time>
      </trkpt>
      <trkpt lat="43.18954554386436939239501953125" lon="-1.53672111220657825469970703125">
        <ele>754</ele>
        <time>2020-08-22T13:05:42.000Z</time>
      </trkpt>
      <trkpt lat="43.18958577699959278106689453125" lon="-1.53670418076217174530029296875">
        <ele>754.4000244140625</ele>
        <time>2020-08-22T13:05:47.000Z</time>
      </trkpt>
      <trkpt lat="43.1896160356700420379638671875" lon="-1.53668515384197235107421875">
        <ele>754.5999755859375</ele>
        <time>2020-08-22T13:05:51.000Z</time>
      </trkpt>
      <trkpt lat="43.18965853191912174224853515625" lon="-1.536649949848651885986328125">
        <ele>755.20001220703125</ele>
        <time>2020-08-22T13:05:57.000Z</time>
      </trkpt>
      <trkpt lat="43.18967294879257678985595703125" lon="-1.53662882745265960693359375">
        <ele>755.5999755859375</ele>
        <time>2020-08-22T13:06:00.000Z</time>
      </trkpt>
      <trkpt lat="43.1897115893661975860595703125" lon="-1.536579541862010955810546875">
        <ele>756</ele>
        <time>2020-08-22T13:06:08.000Z</time>
      </trkpt>
      <trkpt lat="43.18973413668572902679443359375" lon="-1.5365337766706943511962890625">
        <ele>756.4000244140625</ele>
        <time>2020-08-22T13:06:15.000Z</time>
      </trkpt>
      <trkpt lat="43.18973958492279052734375" lon="-1.5365180186927318572998046875">
        <ele>756.4000244140625</ele>
        <time>2020-08-22T13:06:17.000Z</time>
      </trkpt>
      <trkpt lat="43.18975727073848247528076171875" lon="-1.53647367842495441436767578125">
        <ele>757.4000244140625</ele>
        <time>2020-08-22T13:06:23.000Z</time>
      </trkpt>
      <trkpt lat="43.189766071736812591552734375" lon="-1.53644316829741001129150390625">
        <ele>757.79998779296875</ele>
        <time>2020-08-22T13:06:27.000Z</time>
      </trkpt>
      <trkpt lat="43.18978174589574337005615234375" lon="-1.5363855846226215362548828125">
        <ele>758.4000244140625</ele>
        <time>2020-08-22T13:06:34.000Z</time>
      </trkpt>
      <trkpt lat="43.18978928960859775543212890625" lon="-1.53636471368372440338134765625">
        <ele>758.5999755859375</ele>
        <time>2020-08-22T13:06:37.000Z</time>
      </trkpt>
      <trkpt lat="43.18980395793914794921875" lon="-1.5363304316997528076171875">
        <ele>759.20001220703125</ele>
        <time>2020-08-22T13:06:43.000Z</time>
      </trkpt>
      <trkpt lat="43.18980974145233631134033203125" lon="-1.53630964457988739013671875">
        <ele>759.5999755859375</ele>
        <time>2020-08-22T13:06:46.000Z</time>
      </trkpt>
      <trkpt lat="43.18982264958322048187255859375" lon="-1.5362876839935779571533203125">
        <ele>760.4000244140625</ele>
        <time>2020-08-22T13:06:50.000Z</time>
      </trkpt>
      <trkpt lat="43.18983539007604122161865234375" lon="-1.536262035369873046875">
        <ele>760.5999755859375</ele>
        <time>2020-08-22T13:06:54.000Z</time>
      </trkpt>
      <trkpt lat="43.189869336783885955810546875" lon="-1.536206714808940887451171875">
        <ele>761.4000244140625</ele>
        <time>2020-08-22T13:07:03.000Z</time>
      </trkpt>
      <trkpt lat="43.189876042306423187255859375" lon="-1.536197662353515625">
        <ele>761.5999755859375</ele>
        <time>2020-08-22T13:07:05.000Z</time>
      </trkpt>
      <trkpt lat="43.18990294821560382843017578125" lon="-1.53616539202630519866943359375">
        <ele>762.4000244140625</ele>
        <time>2020-08-22T13:07:11.000Z</time>
      </trkpt>
      <trkpt lat="43.18991987966001033782958984375" lon="-1.53615030460059642791748046875">
        <ele>762.79998779296875</ele>
        <time>2020-08-22T13:07:15.000Z</time>
      </trkpt>
      <trkpt lat="43.189964555203914642333984375" lon="-1.536116190254688262939453125">
        <ele>763.4000244140625</ele>
        <time>2020-08-22T13:07:23.000Z</time>
      </trkpt>
      <trkpt lat="43.1899754516780376434326171875" lon="-1.5361099876463413238525390625">
        <ele>763.5999755859375</ele>
        <time>2020-08-22T13:07:25.000Z</time>
      </trkpt>
      <trkpt lat="43.19003253243863582611083984375" lon="-1.536085344851016998291015625">
        <ele>764.5999755859375</ele>
        <time>2020-08-22T13:07:36.000Z</time>
      </trkpt>
      <trkpt lat="43.1900974921882152557373046875" lon="-1.5360724367201328277587890625">
        <ele>765.5999755859375</ele>
        <time>2020-08-22T13:07:46.000Z</time>
      </trkpt>
      <trkpt lat="43.19010361097753047943115234375" lon="-1.53607226908206939697265625">
        <ele>765.5999755859375</ele>
        <time>2020-08-22T13:07:47.000Z</time>
      </trkpt>
      <trkpt lat="43.1901464425027370452880859375" lon="-1.5360600315034389495849609375">
        <ele>766.20001220703125</ele>
        <time>2020-08-22T13:07:55.000Z</time>
      </trkpt>
      <trkpt lat="43.19016010500490665435791015625" lon="-1.53605793602764606475830078125">
        <ele>766.4000244140625</ele>
        <time>2020-08-22T13:07:57.000Z</time>
      </trkpt>
      <trkpt lat="43.1901668943464756011962890625" lon="-1.5360566787421703338623046875">
        <ele>766.5999755859375</ele>
        <time>2020-08-22T13:07:58.000Z</time>
      </trkpt>
      <trkpt lat="43.190208636224269866943359375" lon="-1.536047123372554779052734375">
        <ele>767.20001220703125</ele>
        <time>2020-08-22T13:08:05.000Z</time>
      </trkpt>
      <trkpt lat="43.19022699259221553802490234375" lon="-1.536043770611286163330078125">
        <ele>767.5999755859375</ele>
        <time>2020-08-22T13:08:08.000Z</time>
      </trkpt>
      <trkpt lat="43.190270997583866119384765625" lon="-1.53602960519492626190185546875">
        <ele>768.5999755859375</ele>
        <time>2020-08-22T13:08:15.000Z</time>
      </trkpt>
      <trkpt lat="43.19028466008603572845458984375" lon="-1.5360265038907527923583984375">
        <ele>768.5999755859375</ele>
        <time>2020-08-22T13:08:17.000Z</time>
      </trkpt>
      <trkpt lat="43.19030628539621829986572265625" lon="-1.53601862490177154541015625">
        <ele>769</ele>
        <time>2020-08-22T13:08:25.000Z</time>
      </trkpt>
      <trkpt lat="43.19030796177685260772705078125" lon="-1.53601803816854953765869140625">
        <ele>769.4000244140625</ele>
        <time>2020-08-22T13:08:41.000Z</time>
      </trkpt>
      <trkpt lat="43.1903149187564849853515625" lon="-1.5360174514353275299072265625">
        <ele>769.4000244140625</ele>
        <time>2020-08-22T13:09:20.000Z</time>
      </trkpt>
      <trkpt lat="43.19035045802593231201171875" lon="-1.5360134281218051910400390625">
        <ele>769.4000244140625</ele>
        <time>2020-08-22T13:09:25.000Z</time>
      </trkpt>
      <trkpt lat="43.190399073064327239990234375" lon="-1.53600311838090419769287109375">
        <ele>770</ele>
        <time>2020-08-22T13:09:31.000Z</time>
      </trkpt>
      <trkpt lat="43.1904404796659946441650390625" lon="-1.535994149744510650634765625">
        <ele>770.5999755859375</ele>
        <time>2020-08-22T13:09:36.000Z</time>
      </trkpt>
      <trkpt lat="43.1904964707791805267333984375" lon="-1.535984091460704803466796875">
        <ele>771.4000244140625</ele>
        <time>2020-08-22T13:09:43.000Z</time>
      </trkpt>
      <trkpt lat="43.1905041821300983428955078125" lon="-1.5359844267368316650390625">
        <ele>771.5999755859375</ele>
        <time>2020-08-22T13:09:44.000Z</time>
      </trkpt>
      <trkpt lat="43.19055841304361820220947265625" lon="-1.53598451055586338043212890625">
        <ele>772.5999755859375</ele>
        <time>2020-08-22T13:09:51.000Z</time>
      </trkpt>
      <trkpt lat="43.19057165645062923431396484375" lon="-1.53598501347005367279052734375">
        <ele>773.20001220703125</ele>
        <time>2020-08-22T13:09:53.000Z</time>
      </trkpt>
      <trkpt lat="43.19059319794178009033203125" lon="-1.53598534874618053436279296875">
        <ele>773.79998779296875</ele>
        <time>2020-08-22T13:09:56.000Z</time>
      </trkpt>
      <trkpt lat="43.19065153598785400390625" lon="-1.53598534874618053436279296875">
        <ele>774</ele>
        <time>2020-08-22T13:10:04.000Z</time>
      </trkpt>
      <trkpt lat="43.1907050125300884246826171875" lon="-1.5359795652329921722412109375">
        <ele>774.79998779296875</ele>
        <time>2020-08-22T13:10:12.000Z</time>
      </trkpt>
      <trkpt lat="43.19071213714778423309326171875" lon="-1.5359788946807384490966796875">
        <ele>774.79998779296875</ele>
        <time>2020-08-22T13:10:13.000Z</time>
      </trkpt>
      <trkpt lat="43.1907737441360950469970703125" lon="-1.53598031960427761077880859375">
        <ele>775.79998779296875</ele>
        <time>2020-08-22T13:10:22.000Z</time>
      </trkpt>
      <trkpt lat="43.19079838693141937255859375" lon="-1.53598182834684848785400390625">
        <ele>776.4000244140625</ele>
        <time>2020-08-22T13:10:26.000Z</time>
      </trkpt>
      <trkpt lat="43.1908164918422698974609375" lon="-1.535983420908451080322265625">
        <ele>777</ele>
        <time>2020-08-22T13:10:29.000Z</time>
      </trkpt>
      <trkpt lat="43.1908407993614673614501953125" lon="-1.5359872765839099884033203125">
        <ele>777.20001220703125</ele>
        <time>2020-08-22T13:10:33.000Z</time>
      </trkpt>
      <trkpt lat="43.19089050404727458953857421875" lon="-1.53598099015653133392333984375">
        <ele>778.20001220703125</ele>
        <time>2020-08-22T13:10:40.000Z</time>
      </trkpt>
      <trkpt lat="43.190908692777156829833984375" lon="-1.53596774674952030181884765625">
        <ele>778.5999755859375</ele>
        <time>2020-08-22T13:10:43.000Z</time>
      </trkpt>
      <trkpt lat="43.19093677215278148651123046875" lon="-1.5359534136950969696044921875">
        <ele>779.20001220703125</ele>
        <time>2020-08-22T13:10:47.000Z</time>
      </trkpt>
      <trkpt lat="43.19097130559384822845458984375" lon="-1.53594578616321086883544921875">
        <ele>779.79998779296875</ele>
        <time>2020-08-22T13:10:52.000Z</time>
      </trkpt>
      <trkpt lat="43.190999887883663177490234375" lon="-1.53594193048775196075439453125">
        <ele>780.4000244140625</ele>
        <time>2020-08-22T13:10:56.000Z</time>
      </trkpt>
      <trkpt lat="43.191042803227901458740234375" lon="-1.5359332971274852752685546875">
        <ele>781.20001220703125</ele>
        <time>2020-08-22T13:11:02.000Z</time>
      </trkpt>
      <trkpt lat="43.1910503469407558441162109375" lon="-1.53593136928975582122802734375">
        <ele>781.4000244140625</ele>
        <time>2020-08-22T13:11:03.000Z</time>
      </trkpt>
      <trkpt lat="43.19111312739551067352294921875" lon="-1.5359215624630451202392578125">
        <ele>782.20001220703125</ele>
        <time>2020-08-22T13:11:11.000Z</time>
      </trkpt>
      <trkpt lat="43.191119246184825897216796875" lon="-1.53592281974852085113525390625">
        <ele>782.4000244140625</ele>
        <time>2020-08-22T13:11:12.000Z</time>
      </trkpt>
      <trkpt lat="43.19117582403123378753662109375" lon="-1.53592198155820369720458984375">
        <ele>783.4000244140625</ele>
        <time>2020-08-22T13:11:22.000Z</time>
      </trkpt>
      <trkpt lat="43.19118688814342021942138671875" lon="-1.53592298738658428192138671875">
        <ele>783.5999755859375</ele>
        <time>2020-08-22T13:11:24.000Z</time>
      </trkpt>
      <trkpt lat="43.191244639456272125244140625" lon="-1.53591829352080821990966796875">
        <ele>784.4000244140625</ele>
        <time>2020-08-22T13:11:32.000Z</time>
      </trkpt>
      <trkpt lat="43.191251344978809356689453125" lon="-1.535918712615966796875">
        <ele>784.5999755859375</ele>
        <time>2020-08-22T13:11:33.000Z</time>
      </trkpt>
      <trkpt lat="43.1912914104759693145751953125" lon="-1.5359041281044483184814453125">
        <ele>785.5999755859375</ele>
        <time>2020-08-22T13:11:41.000Z</time>
      </trkpt>
      <trkpt lat="43.19134446792304515838623046875" lon="-1.53588811866939067840576171875">
        <ele>786.79998779296875</ele>
        <time>2020-08-22T13:11:49.000Z</time>
      </trkpt>
      <trkpt lat="43.1913520954549312591552734375" lon="-1.535884849727153778076171875">
        <ele>787</ele>
        <time>2020-08-22T13:11:50.000Z</time>
      </trkpt>
      <trkpt lat="43.19140314124524593353271484375" lon="-1.53586850501596927642822265625">
        <ele>788</ele>
        <time>2020-08-22T13:11:57.000Z</time>
      </trkpt>
      <trkpt lat="43.19142124615609645843505859375" lon="-1.53586464934051036834716796875">
        <ele>788.20001220703125</ele>
        <time>2020-08-22T13:12:00.000Z</time>
      </trkpt>
      <trkpt lat="43.19147757254540920257568359375" lon="-1.53584897518157958984375">
        <ele>789</ele>
        <time>2020-08-22T13:12:10.000Z</time>
      </trkpt>
      <trkpt lat="43.19148235023021697998046875" lon="-1.53584889136254787445068359375">
        <ele>789.20001220703125</ele>
        <time>2020-08-22T13:12:11.000Z</time>
      </trkpt>
      <trkpt lat="43.19150070659816265106201171875" lon="-1.5358498133718967437744140625">
        <ele>789.5999755859375</ele>
        <time>2020-08-22T13:12:20.000Z</time>
      </trkpt>
      <trkpt lat="43.1915364973247051239013671875" lon="-1.53583950363099575042724609375">
        <ele>789.5999755859375</ele>
        <time>2020-08-22T13:12:30.000Z</time>
      </trkpt>
      <trkpt lat="43.191553764045238494873046875" lon="-1.5358293615281581878662109375">
        <ele>790</ele>
        <time>2020-08-22T13:12:32.000Z</time>
      </trkpt>
      <trkpt lat="43.1916045583784580230712890625" lon="-1.5357908047735691070556640625">
        <ele>791.20001220703125</ele>
        <time>2020-08-22T13:12:38.000Z</time>
      </trkpt>
      <trkpt lat="43.19161369465291500091552734375" lon="-1.53578468598425388336181640625">
        <ele>791.20001220703125</ele>
        <time>2020-08-22T13:12:39.000Z</time>
      </trkpt>
      <trkpt lat="43.19164269603788852691650390625" lon="-1.5357720293104648590087890625">
        <ele>792.20001220703125</ele>
        <time>2020-08-22T13:12:42.000Z</time>
      </trkpt>
      <trkpt lat="43.191675804555416107177734375" lon="-1.5357644855976104736328125">
        <ele>793.4000244140625</ele>
        <time>2020-08-22T13:12:45.000Z</time>
      </trkpt>
      <trkpt lat="43.19170095026493072509765625" lon="-1.53577060438692569732666015625">
        <ele>793.79998779296875</ele>
        <time>2020-08-22T13:12:48.000Z</time>
      </trkpt>
      <trkpt lat="43.191726766526699066162109375" lon="-1.5357783995568752288818359375">
        <ele>794.4000244140625</ele>
        <time>2020-08-22T13:12:51.000Z</time>
      </trkpt>
      <trkpt lat="43.191769681870937347412109375" lon="-1.5357733704149723052978515625">
        <ele>795.4000244140625</ele>
        <time>2020-08-22T13:12:56.000Z</time>
      </trkpt>
      <trkpt lat="43.1917794048786163330078125" lon="-1.53577060438692569732666015625">
        <ele>795.79998779296875</ele>
        <time>2020-08-22T13:12:57.000Z</time>
      </trkpt>
      <trkpt lat="43.19181670434772968292236328125" lon="-1.53575954027473926544189453125">
        <ele>796.5999755859375</ele>
        <time>2020-08-22T13:13:01.000Z</time>
      </trkpt>
      <trkpt lat="43.191863559186458587646484375" lon="-1.53574562631547451019287109375">
        <ele>797.4000244140625</ele>
        <time>2020-08-22T13:13:06.000Z</time>
      </trkpt>
      <trkpt lat="43.19188199937343597412109375" lon="-1.53574110008776187896728515625">
        <ele>797.5999755859375</ele>
        <time>2020-08-22T13:13:08.000Z</time>
      </trkpt>
      <trkpt lat="43.19193162024021148681640625" lon="-1.53572936542332172393798828125">
        <ele>798.5999755859375</ele>
        <time>2020-08-22T13:13:13.000Z</time>
      </trkpt>
      <trkpt lat="43.1919495575129985809326171875" lon="-1.53573087416589260101318359375">
        <ele>798.79998779296875</ele>
        <time>2020-08-22T13:13:15.000Z</time>
      </trkpt>
      <trkpt lat="43.19200680591166019439697265625" lon="-1.53573431074619293212890625">
        <ele>799.79998779296875</ele>
        <time>2020-08-22T13:13:22.000Z</time>
      </trkpt>
      <trkpt lat="43.1920122541487216949462890625" lon="-1.535733304917812347412109375">
        <ele>800</ele>
        <time>2020-08-22T13:13:23.000Z</time>
      </trkpt>
      <trkpt lat="43.19201770238578319549560546875" lon="-1.53572919778525829315185546875">
        <ele>800.4000244140625</ele>
        <time>2020-08-22T13:13:33.000Z</time>
      </trkpt>
      <trkpt lat="43.192017786204814910888671875" lon="-1.53572903014719486236572265625">
        <ele>800.4000244140625</ele>
        <time>2020-08-22T13:13:34.000Z</time>
      </trkpt>
      <trkpt lat="43.19202759303152561187744140625" lon="-1.5357130207121372222900390625">
        <ele>800.4000244140625</ele>
        <time>2020-08-22T13:14:08.000Z</time>
      </trkpt>
      <trkpt lat="43.19203027524054050445556640625" lon="-1.53570556081831455230712890625">
        <ele>800.79998779296875</ele>
        <time>2020-08-22T13:14:10.000Z</time>
      </trkpt>
      <trkpt lat="43.1920363940298557281494140625" lon="-1.53569935820996761322021484375">
        <ele>801.20001220703125</ele>
        <time>2020-08-22T13:14:16.000Z</time>
      </trkpt>
      <trkpt lat="43.19208660162985324859619140625" lon="-1.53565174899995326995849609375">
        <ele>801.5999755859375</ele>
        <time>2020-08-22T13:14:26.000Z</time>
      </trkpt>
      <trkpt lat="43.1920987553894519805908203125" lon="-1.5356357395648956298828125">
        <ele>801.79998779296875</ele>
        <time>2020-08-22T13:14:29.000Z</time>
      </trkpt>
      <trkpt lat="43.192116357386112213134765625" lon="-1.53561034239828586578369140625">
        <ele>802.79998779296875</ele>
        <time>2020-08-22T13:14:34.000Z</time>
      </trkpt>
      <trkpt lat="43.19212884642183780670166015625" lon="-1.5355926565825939178466796875">
        <ele>803.20001220703125</ele>
        <time>2020-08-22T13:14:37.000Z</time>
      </trkpt>
      <trkpt lat="43.1921510584652423858642578125" lon="-1.535560302436351776123046875">
        <ele>804</ele>
        <time>2020-08-22T13:14:43.000Z</time>
      </trkpt>
      <trkpt lat="43.19216497242450714111328125" lon="-1.53554714284837245941162109375">
        <ele>804.4000244140625</ele>
        <time>2020-08-22T13:14:46.000Z</time>
      </trkpt>
      <trkpt lat="43.192188106477260589599609375" lon="-1.53552467934787273406982421875">
        <ele>805</ele>
        <time>2020-08-22T13:14:52.000Z</time>
      </trkpt>
      <trkpt lat="43.1922010146081447601318359375" lon="-1.53551730327308177947998046875">
        <ele>805.20001220703125</ele>
        <time>2020-08-22T13:14:55.000Z</time>
      </trkpt>
      <trkpt lat="43.19222825579345226287841796875" lon="-1.53549316339194774627685546875">
        <ele>806</ele>
        <time>2020-08-22T13:15:02.000Z</time>
      </trkpt>
      <trkpt lat="43.1922288425266742706298828125" lon="-1.535492576658725738525390625">
        <ele>806.20001220703125</ele>
        <time>2020-08-22T13:15:03.000Z</time>
      </trkpt>
      <trkpt lat="43.1922533176839351654052734375" lon="-1.53547556139528751373291015625">
        <ele>806.79998779296875</ele>
        <time>2020-08-22T13:15:15.000Z</time>
      </trkpt>
      <trkpt lat="43.1922620348632335662841796875" lon="-1.53547011315822601318359375">
        <ele>807.20001220703125</ele>
        <time>2020-08-22T13:15:17.000Z</time>
      </trkpt>
      <trkpt lat="43.19228927604854106903076171875" lon="-1.53543985448777675628662109375">
        <ele>808.20001220703125</ele>
        <time>2020-08-22T13:15:24.000Z</time>
      </trkpt>
      <trkpt lat="43.19232833571732044219970703125" lon="-1.53539291583001613616943359375">
        <ele>808.79998779296875</ele>
        <time>2020-08-22T13:15:33.000Z</time>
      </trkpt>
      <trkpt lat="43.19234979338943958282470703125" lon="-1.53537581674754619598388671875">
        <ele>809.20001220703125</ele>
        <time>2020-08-22T13:15:38.000Z</time>
      </trkpt>
      <trkpt lat="43.192366473376750946044921875" lon="-1.53535469435155391693115234375">
        <ele>809.5999755859375</ele>
        <time>2020-08-22T13:15:41.000Z</time>
      </trkpt>
      <trkpt lat="43.19241173565387725830078125" lon="-1.5353046543896198272705078125">
        <ele>810.4000244140625</ele>
        <time>2020-08-22T13:15:48.000Z</time>
      </trkpt>
      <trkpt lat="43.1924253143370151519775390625" lon="-1.53529048897325992584228515625">
        <ele>810.79998779296875</ele>
        <time>2020-08-22T13:15:50.000Z</time>
      </trkpt>
      <trkpt lat="43.1924893520772457122802734375" lon="-1.5352318994700908660888671875">
        <ele>810.79998779296875</ele>
        <time>2020-08-22T13:15:59.000Z</time>
      </trkpt>
      <trkpt lat="43.19251558743417263031005859375" lon="-1.53518755920231342315673828125">
        <ele>811.4000244140625</ele>
        <time>2020-08-22T13:16:04.000Z</time>
      </trkpt>
      <trkpt lat="43.19254391826689243316650390625" lon="-1.53515201993286609649658203125">
        <ele>811.79998779296875</ele>
        <time>2020-08-22T13:16:09.000Z</time>
      </trkpt>
      <trkpt lat="43.192556239664554595947265625" lon="-1.53513726778328418731689453125">
        <ele>811.79998779296875</ele>
        <time>2020-08-22T13:16:11.000Z</time>
      </trkpt>
      <trkpt lat="43.19258742034435272216796875" lon="-1.53510323725640773773193359375">
        <ele>812.5999755859375</ele>
        <time>2020-08-22T13:16:16.000Z</time>
      </trkpt>
      <trkpt lat="43.19260594435036182403564453125" lon="-1.535078175365924835205078125">
        <ele>813</ele>
        <time>2020-08-22T13:16:19.000Z</time>
      </trkpt>
      <trkpt lat="43.19266118109226226806640625" lon="-1.53501757420599460601806640625">
        <ele>813.4000244140625</ele>
        <time>2020-08-22T13:16:28.000Z</time>
      </trkpt>
      <trkpt lat="43.19267367012798786163330078125" lon="-1.53500366024672985076904296875">
        <ele>813.5999755859375</ele>
        <time>2020-08-22T13:16:30.000Z</time>
      </trkpt>
      <trkpt lat="43.19272362627089023590087890625" lon="-1.53495588339865207672119140625">
        <ele>814.79998779296875</ele>
        <time>2020-08-22T13:16:38.000Z</time>
      </trkpt>
      <trkpt lat="43.19273083470761775970458984375" lon="-1.534950770437717437744140625">
        <ele>814.5999755859375</ele>
        <time>2020-08-22T13:16:39.000Z</time>
      </trkpt>
      <trkpt lat="43.19279688410460948944091796875" lon="-1.5349224396049976348876953125">
        <ele>815.5999755859375</ele>
        <time>2020-08-22T13:16:49.000Z</time>
      </trkpt>
      <trkpt lat="43.192809708416461944580078125" lon="-1.534911878407001495361328125">
        <ele>815.5999755859375</ele>
        <time>2020-08-22T13:16:51.000Z</time>
      </trkpt>
      <trkpt lat="43.19284650497138500213623046875" lon="-1.5348739922046661376953125">
        <ele>816.79998779296875</ele>
        <time>2020-08-22T13:16:57.000Z</time>
      </trkpt>
      <trkpt lat="43.1928517855703830718994140625" lon="-1.53486770577728748321533203125">
        <ele>816.79998779296875</ele>
        <time>2020-08-22T13:16:58.000Z</time>
      </trkpt>
      <trkpt lat="43.19290165789425373077392578125" lon="-1.53480626642704010009765625">
        <ele>817.79998779296875</ele>
        <time>2020-08-22T13:17:07.000Z</time>
      </trkpt>
      <trkpt lat="43.19290819577872753143310546875" lon="-1.53480031527578830718994140625">
        <ele>817.79998779296875</ele>
        <time>2020-08-22T13:17:08.000Z</time>
      </trkpt>
      <trkpt lat="43.19294809363782405853271484375" lon="-1.5347440727055072784423828125">
        <ele>818.20001220703125</ele>
        <time>2020-08-22T13:17:15.000Z</time>
      </trkpt>
      <trkpt lat="43.19298530928790569305419921875" lon="-1.53470425866544246673583984375">
        <ele>818.79998779296875</ele>
        <time>2020-08-22T13:17:21.000Z</time>
      </trkpt>
      <trkpt lat="43.1930190883576869964599609375" lon="-1.53466821648180484771728515625">
        <ele>819</ele>
        <time>2020-08-22T13:17:26.000Z</time>
      </trkpt>
      <trkpt lat="43.1930888257920742034912109375" lon="-1.53458942659199237823486328125">
        <ele>819.5999755859375</ele>
        <time>2020-08-22T13:17:36.000Z</time>
      </trkpt>
      <trkpt lat="43.1931384466588497161865234375" lon="-1.53454449959099292755126953125">
        <ele>819.79998779296875</ele>
        <time>2020-08-22T13:17:43.000Z</time>
      </trkpt>
      <trkpt lat="43.193144313991069793701171875" lon="-1.53453611768782138824462890625">
        <ele>819.79998779296875</ele>
        <time>2020-08-22T13:17:44.000Z</time>
      </trkpt>
      <trkpt lat="43.19315395317971706390380859375" lon="-1.53452396392822265625">
        <ele>820</ele>
        <time>2020-08-22T13:17:47.000Z</time>
      </trkpt>
      <trkpt lat="43.1931927613914012908935546875" lon="-1.53448750264942646026611328125">
        <ele>820.20001220703125</ele>
        <time>2020-08-22T13:42:31.000Z</time>
      </trkpt>
      <trkpt lat="43.1931974552571773529052734375" lon="-1.53448414988815784454345703125">
        <ele>820.4000244140625</ele>
        <time>2020-08-22T13:42:34.000Z</time>
      </trkpt>
      <trkpt lat="43.19328010082244873046875" lon="-1.534449197351932525634765625">
        <ele>819.5999755859375</ele>
        <time>2020-08-22T13:42:40.000Z</time>
      </trkpt>
      <trkpt lat="43.1933684460818767547607421875" lon="-1.53443385846912860870361328125">
        <ele>818.5999755859375</ele>
        <time>2020-08-22T13:42:44.000Z</time>
      </trkpt>
      <trkpt lat="43.19342686794698238372802734375" lon="-1.53443000279366970062255859375">
        <ele>818.20001220703125</ele>
        <time>2020-08-22T13:42:47.000Z</time>
      </trkpt>
      <trkpt lat="43.19351035170257091522216796875" lon="-1.5344322659075260162353515625">
        <ele>817.5999755859375</ele>
        <time>2020-08-22T13:42:51.000Z</time>
      </trkpt>
      <trkpt lat="43.1935592181980609893798828125" lon="-1.53442807495594024658203125">
        <ele>816.5999755859375</ele>
        <time>2020-08-22T13:42:53.000Z</time>
      </trkpt>
      <trkpt lat="43.19358310662209987640380859375" lon="-1.53442396782338619232177734375">
        <ele>816.20001220703125</ele>
        <time>2020-08-22T13:42:54.000Z</time>
      </trkpt>
      <trkpt lat="43.1936497427523136138916015625" lon="-1.5344155021011829376220703125">
        <ele>815.20001220703125</ele>
        <time>2020-08-22T13:42:57.000Z</time>
      </trkpt>
      <trkpt lat="43.19371453486382961273193359375" lon="-1.534396223723888397216796875">
        <ele>814.4000244140625</ele>
        <time>2020-08-22T13:43:00.000Z</time>
      </trkpt>
      <trkpt lat="43.19376549683511257171630859375" lon="-1.534371413290500640869140625">
        <ele>814.20001220703125</ele>
        <time>2020-08-22T13:43:02.000Z</time>
      </trkpt>
      <trkpt lat="43.1938492320477962493896484375" lon="-1.534301005303859710693359375">
        <ele>812.4000244140625</ele>
        <time>2020-08-22T13:43:05.000Z</time>
      </trkpt>
      <trkpt lat="43.193953335285186767578125" lon="-1.53423151932656764984130859375">
        <ele>811.4000244140625</ele>
        <time>2020-08-22T13:43:08.000Z</time>
      </trkpt>
      <trkpt lat="43.1940634734928607940673828125" lon="-1.5341741032898426055908203125">
        <ele>810.5999755859375</ele>
        <time>2020-08-22T13:43:11.000Z</time>
      </trkpt>
      <trkpt lat="43.1941466219723224639892578125" lon="-1.53413294814527034759521484375">
        <ele>810</ele>
        <time>2020-08-22T13:43:13.000Z</time>
      </trkpt>
      <trkpt lat="43.19431618787348270416259765625" lon="-1.53406136669218540191650390625">
        <ele>808.5999755859375</ele>
        <time>2020-08-22T13:43:17.000Z</time>
      </trkpt>
      <trkpt lat="43.19435633718967437744140625" lon="-1.53405147604644298553466796875">
        <ele>808.4000244140625</ele>
        <time>2020-08-22T13:43:18.000Z</time>
      </trkpt>
      <trkpt lat="43.19455884397029876708984375" lon="-1.5340269170701503753662109375">
        <ele>808.79998779296875</ele>
        <time>2020-08-22T13:43:23.000Z</time>
      </trkpt>
      <trkpt lat="43.194681219756603240966796875" lon="-1.53403521515429019927978515625">
        <ele>808.20001220703125</ele>
        <time>2020-08-22T13:43:26.000Z</time>
      </trkpt>
      <trkpt lat="43.19476160220801830291748046875" lon="-1.5340425074100494384765625">
        <ele>807.5999755859375</ele>
        <time>2020-08-22T13:43:28.000Z</time>
      </trkpt>
      <trkpt lat="43.19484508596360683441162109375" lon="-1.53405030257999897003173828125">
        <ele>806.20001220703125</ele>
        <time>2020-08-22T13:43:30.000Z</time>
      </trkpt>
      <trkpt lat="43.19507139734923839569091796875" lon="-1.53407402336597442626953125">
        <ele>805</ele>
        <time>2020-08-22T13:43:35.000Z</time>
      </trkpt>
      <trkpt lat="43.1953251175582408905029296875" lon="-1.53414702974259853363037109375">
        <ele>804.20001220703125</ele>
        <time>2020-08-22T13:43:42.000Z</time>
      </trkpt>
      <trkpt lat="43.19549971260130405426025390625" lon="-1.5342150069773197174072265625">
        <ele>804.20001220703125</ele>
        <time>2020-08-22T13:43:48.000Z</time>
      </trkpt>
      <trkpt lat="43.1955313123762607574462890625" lon="-1.53422464616596698760986328125">
        <ele>803.79998779296875</ele>
        <time>2020-08-22T13:43:49.000Z</time>
      </trkpt>
      <trkpt lat="43.19563382305204868316650390625" lon="-1.5342448465526103973388671875">
        <ele>802.4000244140625</ele>
        <time>2020-08-22T13:43:52.000Z</time>
      </trkpt>
      <trkpt lat="43.19576726295053958892822265625" lon="-1.5342552401125431060791015625">
        <ele>801.4000244140625</ele>
        <time>2020-08-22T13:43:56.000Z</time>
      </trkpt>
      <trkpt lat="43.1959529221057891845703125" lon="-1.53424928896129131317138671875">
        <ele>801.4000244140625</ele>
        <time>2020-08-22T13:44:02.000Z</time>
      </trkpt>
      <trkpt lat="43.1959797441959381103515625" lon="-1.53424643911421298980712890625">
        <ele>801</ele>
        <time>2020-08-22T13:44:03.000Z</time>
      </trkpt>
      <trkpt lat="43.19614763371646404266357421875" lon="-1.5342317707836627960205078125">
        <ele>800.20001220703125</ele>
        <time>2020-08-22T13:44:10.000Z</time>
      </trkpt>
      <trkpt lat="43.19617244414985179901123046875" lon="-1.534231938421726226806640625">
        <ele>800</ele>
        <time>2020-08-22T13:44:11.000Z</time>
      </trkpt>
      <trkpt lat="43.19619691930711269378662109375" lon="-1.53423051349818706512451171875">
        <ele>800</ele>
        <time>2020-08-22T13:44:12.000Z</time>
      </trkpt>
      <trkpt lat="43.1963825784623622894287109375" lon="-1.53420955874025821685791015625">
        <ele>799.20001220703125</ele>
        <time>2020-08-22T13:44:19.000Z</time>
      </trkpt>
      <trkpt lat="43.19641367532312870025634765625" lon="-1.534206457436084747314453125">
        <ele>798.79998779296875</ele>
        <time>2020-08-22T13:44:20.000Z</time>
      </trkpt>
      <trkpt lat="43.19651417434215545654296875" lon="-1.53419514186680316925048828125">
        <ele>798</ele>
        <time>2020-08-22T13:44:23.000Z</time>
      </trkpt>
      <trkpt lat="43.196617104113101959228515625" lon="-1.53417116962373256683349609375">
        <ele>796.79998779296875</ele>
        <time>2020-08-22T13:44:26.000Z</time>
      </trkpt>
      <trkpt lat="43.19665658287703990936279296875" lon="-1.53416580520570278167724609375">
        <ele>796.20001220703125</ele>
        <time>2020-08-22T13:44:27.000Z</time>
      </trkpt>
      <trkpt lat="43.19669681601226329803466796875" lon="-1.534160859882831573486328125">
        <ele>795.4000244140625</ele>
        <time>2020-08-22T13:44:28.000Z</time>
      </trkpt>
      <trkpt lat="43.19691558368504047393798828125" lon="-1.53412875719368457794189453125">
        <ele>794.20001220703125</ele>
        <time>2020-08-22T13:44:33.000Z</time>
      </trkpt>
      <trkpt lat="43.19700426422059535980224609375" lon="-1.53411551378667354583740234375">
        <ele>794.20001220703125</ele>
        <time>2020-08-22T13:44:35.000Z</time>
      </trkpt>
      <trkpt lat="43.1970481015741825103759765625" lon="-1.53410746715962886810302734375">
        <ele>793.20001220703125</ele>
        <time>2020-08-22T13:44:36.000Z</time>
      </trkpt>
      <trkpt lat="43.197356723248958587646484375" lon="-1.53409942053258419036865234375">
        <ele>792.4000244140625</ele>
        <time>2020-08-22T13:44:43.000Z</time>
      </trkpt>
      <trkpt lat="43.1974004767835140228271484375" lon="-1.534103862941265106201171875">
        <ele>792</ele>
        <time>2020-08-22T13:44:44.000Z</time>
      </trkpt>
      <trkpt lat="43.197670876979827880859375" lon="-1.53412138111889362335205078125">
        <ele>792</ele>
        <time>2020-08-22T13:44:51.000Z</time>
      </trkpt>
      <trkpt lat="43.19791353307664394378662109375" lon="-1.53407025150954723358154296875">
        <ele>791</ele>
        <time>2020-08-22T13:44:58.000Z</time>
      </trkpt>
      <trkpt lat="43.19795141927897930145263671875" lon="-1.53406195342540740966796875">
        <ele>791</ele>
        <time>2020-08-22T13:44:59.000Z</time>
      </trkpt>
      <trkpt lat="43.19805921055376529693603515625" lon="-1.53404225595295429229736328125">
        <ele>789.79998779296875</ele>
        <time>2020-08-22T13:45:02.000Z</time>
      </trkpt>
      <trkpt lat="43.198116458952426910400390625" lon="-1.53403404168784618377685546875">
        <ele>788.79998779296875</ele>
        <time>2020-08-22T13:45:05.000Z</time>
      </trkpt>
      <trkpt lat="43.19811671040952205657958984375" lon="-1.5340356342494487762451171875">
        <ele>789</ele>
        <time>2020-08-22T13:45:11.000Z</time>
      </trkpt>
      <trkpt lat="43.1981213204562664031982421875" lon="-1.5340399928390979766845703125">
        <ele>788.79998779296875</ele>
        <time>2020-08-22T13:45:14.000Z</time>
      </trkpt>
      <trkpt lat="43.19814872927963733673095703125" lon="-1.53403789736330509185791015625">
        <ele>788.4000244140625</ele>
        <time>2020-08-22T13:45:18.000Z</time>
      </trkpt>
      <trkpt lat="43.19817789830267429351806640625" lon="-1.53402381576597690582275390625">
        <ele>789</ele>
        <time>2020-08-22T13:45:26.000Z</time>
      </trkpt>
      <trkpt lat="43.19820371456444263458251953125" lon="-1.534016691148281097412109375">
        <ele>789</ele>
        <time>2020-08-22T13:45:41.000Z</time>
      </trkpt>
      <trkpt lat="43.1982825882732868194580078125" lon="-1.53400252573192119598388671875">
        <ele>788.79998779296875</ele>
        <time>2020-08-22T13:45:50.000Z</time>
      </trkpt>
      <trkpt lat="43.1983955763280391693115234375" lon="-1.53398626483976840972900390625">
        <ele>788.4000244140625</ele>
        <time>2020-08-22T13:46:00.000Z</time>
      </trkpt>
      <trkpt lat="43.19850194267928600311279296875" lon="-1.533999256789684295654296875">
        <ele>788.5999755859375</ele>
        <time>2020-08-22T13:46:09.000Z</time>
      </trkpt>
      <trkpt lat="43.19858525879681110382080078125" lon="-1.53402884490787982940673828125">
        <ele>789.20001220703125</ele>
        <time>2020-08-22T13:46:17.000Z</time>
      </trkpt>
      <trkpt lat="43.19864242337644100189208984375" lon="-1.53406865894794464111328125">
        <ele>789.4000244140625</ele>
        <time>2020-08-22T13:46:25.000Z</time>
      </trkpt>
      <trkpt lat="43.19865767844021320343017578125" lon="-1.53407611884176731109619140625">
        <ele>789.5999755859375</ele>
        <time>2020-08-22T13:46:27.000Z</time>
      </trkpt>
      <trkpt lat="43.19874132983386516571044921875" lon="-1.53411702252924442291259765625">
        <ele>790.4000244140625</ele>
        <time>2020-08-22T13:46:36.000Z</time>
      </trkpt>
      <trkpt lat="43.19879748858511447906494140625" lon="-1.53413303196430206298828125">
        <ele>790.5999755859375</ele>
        <time>2020-08-22T13:46:42.000Z</time>
      </trkpt>
      <trkpt lat="43.19882489740848541259765625" lon="-1.534131355583667755126953125">
        <ele>790.5999755859375</ele>
        <time>2020-08-22T13:46:45.000Z</time>
      </trkpt>
      <trkpt lat="43.1988820619881153106689453125" lon="-1.5341315232217311859130859375">
        <ele>791.5999755859375</ele>
        <time>2020-08-22T13:46:52.000Z</time>
      </trkpt>
      <trkpt lat="43.19889572449028491973876953125" lon="-1.5341328643262386322021484375">
        <ele>791.79998779296875</ele>
        <time>2020-08-22T13:46:54.000Z</time>
      </trkpt>
      <trkpt lat="43.19898046553134918212890625" lon="-1.53413294814527034759521484375">
        <ele>792.5999755859375</ele>
        <time>2020-08-22T13:47:04.000Z</time>
      </trkpt>
      <trkpt lat="43.1989883445203304290771484375" lon="-1.5341342054307460784912109375">
        <ele>792.79998779296875</ele>
        <time>2020-08-22T13:47:05.000Z</time>
      </trkpt>
      <trkpt lat="43.19907643832266330718994140625" lon="-1.5341449342668056488037109375">
        <ele>793.4000244140625</ele>
        <time>2020-08-22T13:47:15.000Z</time>
      </trkpt>
      <trkpt lat="43.19915690459311008453369140625" lon="-1.534151472151279449462890625">
        <ele>793.4000244140625</ele>
        <time>2020-08-22T13:47:23.000Z</time>
      </trkpt>
      <trkpt lat="43.19921247661113739013671875" lon="-1.534164883196353912353515625">
        <ele>793.5999755859375</ele>
        <time>2020-08-22T13:47:28.000Z</time>
      </trkpt>
      <trkpt lat="43.19925916381180286407470703125" lon="-1.53417502529919147491455078125">
        <ele>793.79998779296875</ele>
        <time>2020-08-22T13:47:33.000Z</time>
      </trkpt>
      <trkpt lat="43.1993541307747364044189453125" lon="-1.53422799892723560333251953125">
        <ele>794.5999755859375</ele>
        <time>2020-08-22T13:47:43.000Z</time>
      </trkpt>
      <trkpt lat="43.19937399588525295257568359375" lon="-1.53423537500202655792236328125">
        <ele>795</ele>
        <time>2020-08-22T13:47:45.000Z</time>
      </trkpt>
      <trkpt lat="43.199461586773395538330078125" lon="-1.5342619456350803375244140625">
        <ele>795.20001220703125</ele>
        <time>2020-08-22T13:47:54.000Z</time>
      </trkpt>
      <trkpt lat="43.1994976289570331573486328125" lon="-1.53428197838366031646728515625">
        <ele>795.79998779296875</ele>
        <time>2020-08-22T13:47:58.000Z</time>
      </trkpt>
      <trkpt lat="43.199558816850185394287109375" lon="-1.534313745796680450439453125">
        <ele>796.20001220703125</ele>
        <time>2020-08-22T13:48:05.000Z</time>
      </trkpt>
      <trkpt lat="43.19961304776370525360107421875" lon="-1.53433897532522678375244140625">
        <ele>796.79998779296875</ele>
        <time>2020-08-22T13:48:11.000Z</time>
      </trkpt>
      <trkpt lat="43.19965638220310211181640625" lon="-1.5343407355248928070068359375">
        <ele>797</ele>
        <time>2020-08-22T13:48:16.000Z</time>
      </trkpt>
      <trkpt lat="43.19970994256436824798583984375" lon="-1.5343467704951763153076171875">
        <ele>797.79998779296875</ele>
        <time>2020-08-22T13:48:23.000Z</time>
      </trkpt>
      <trkpt lat="43.19973324425518512725830078125" lon="-1.53435439802706241607666015625">
        <ele>798</ele>
        <time>2020-08-22T13:48:26.000Z</time>
      </trkpt>
      <trkpt lat="43.19981773383915424346923828125" lon="-1.53436864726245403289794921875">
        <ele>798.79998779296875</ele>
        <time>2020-08-22T13:48:35.000Z</time>
      </trkpt>
      <trkpt lat="43.19983541965484619140625" lon="-1.5343722514808177947998046875">
        <ele>799.20001220703125</ele>
        <time>2020-08-22T13:48:37.000Z</time>
      </trkpt>
      <trkpt lat="43.1999479047954082489013671875" lon="-1.5344071201980113983154296875">
        <ele>799.4000244140625</ele>
        <time>2020-08-22T13:48:49.000Z</time>
      </trkpt>
      <trkpt lat="43.20003281347453594207763671875" lon="-1.534423045814037322998046875">
        <ele>799.4000244140625</ele>
        <time>2020-08-22T13:48:58.000Z</time>
      </trkpt>
      <trkpt lat="43.200074136257171630859375" lon="-1.53443469665944576263427734375">
        <ele>799.79998779296875</ele>
        <time>2020-08-22T13:49:06.000Z</time>
      </trkpt>
      <trkpt lat="43.20008595474064350128173828125" lon="-1.5344366244971752166748046875">
        <ele>800</ele>
        <time>2020-08-22T13:49:18.000Z</time>
      </trkpt>
      <trkpt lat="43.2001933269202709197998046875" lon="-1.5344416536390781402587890625">
        <ele>799.79998779296875</ele>
        <time>2020-08-22T13:49:25.000Z</time>
      </trkpt>
      <trkpt lat="43.20032182149589061737060546875" lon="-1.534433104097843170166015625">
        <ele>799.79998779296875</ele>
        <time>2020-08-22T13:49:33.000Z</time>
      </trkpt>
      <trkpt lat="43.20047973655164241790771484375" lon="-1.53442229144275188446044921875">
        <ele>800.20001220703125</ele>
        <time>2020-08-22T13:49:42.000Z</time>
      </trkpt>
      <trkpt lat="43.20063664577901363372802734375" lon="-1.534398905932903289794921875">
        <ele>800.79998779296875</ele>
        <time>2020-08-22T13:49:51.000Z</time>
      </trkpt>
      <trkpt lat="43.20067151449620723724365234375" lon="-1.5343885123729705810546875">
        <ele>800.79998779296875</ele>
        <time>2020-08-22T13:49:53.000Z</time>
      </trkpt>
      <trkpt lat="43.2007565908133983612060546875" lon="-1.534374095499515533447265625">
        <ele>801.5999755859375</ele>
        <time>2020-08-22T13:49:58.000Z</time>
      </trkpt>
      <trkpt lat="43.200837559998035430908203125" lon="-1.53437049128115177154541015625">
        <ele>802</ele>
        <time>2020-08-22T13:50:03.000Z</time>
      </trkpt>
      <trkpt lat="43.20085474289953708648681640625" lon="-1.53436948545277118682861328125">
        <ele>802</ele>
        <time>2020-08-22T13:50:04.000Z</time>
      </trkpt>
      <trkpt lat="43.201020620763301849365234375" lon="-1.534378118813037872314453125">
        <ele>802.20001220703125</ele>
        <time>2020-08-22T13:50:14.000Z</time>
      </trkpt>
      <trkpt lat="43.2011778652667999267578125" lon="-1.53444173745810985565185546875">
        <ele>802.4000244140625</ele>
        <time>2020-08-22T13:50:23.000Z</time>
      </trkpt>
      <trkpt lat="43.20132295601069927215576171875" lon="-1.53454198502004146575927734375">
        <ele>802.5999755859375</ele>
        <time>2020-08-22T13:50:32.000Z</time>
      </trkpt>
      <trkpt lat="43.201351873576641082763671875" lon="-1.53456830419600009918212890625">
        <ele>802.79998779296875</ele>
        <time>2020-08-22T13:50:34.000Z</time>
      </trkpt>
      <trkpt lat="43.20142605341970920562744140625" lon="-1.53462362475693225860595703125">
        <ele>803.4000244140625</ele>
        <time>2020-08-22T13:50:39.000Z</time>
      </trkpt>
      <trkpt lat="43.20157592184841632843017578125" lon="-1.53471163474023342132568359375">
        <ele>803.79998779296875</ele>
        <time>2020-08-22T13:50:48.000Z</time>
      </trkpt>
      <trkpt lat="43.20166024379432201385498046875" lon="-1.53475723229348659515380859375">
        <ele>803.79998779296875</ele>
        <time>2020-08-22T13:50:53.000Z</time>
      </trkpt>
      <trkpt lat="43.20177876390516757965087890625" lon="-1.53481204994022846221923828125">
        <ele>804.20001220703125</ele>
        <time>2020-08-22T13:51:00.000Z</time>
      </trkpt>
      <trkpt lat="43.20192846469581127166748046875" lon="-1.5348751656711101531982421875">
        <ele>804.4000244140625</ele>
        <time>2020-08-22T13:51:09.000Z</time>
      </trkpt>
      <trkpt lat="43.20206492207944393157958984375" lon="-1.534921936690807342529296875">
        <ele>805</ele>
        <time>2020-08-22T13:51:17.000Z</time>
      </trkpt>
      <trkpt lat="43.20211638696491718292236328125" lon="-1.5349328331649303436279296875">
        <ele>805.4000244140625</ele>
        <time>2020-08-22T13:51:20.000Z</time>
      </trkpt>
      <trkpt lat="43.2022596336901187896728515625" lon="-1.53494649566709995269775390625">
        <ele>805.20001220703125</ele>
        <time>2020-08-22T13:51:28.000Z</time>
      </trkpt>
      <trkpt lat="43.20241930894553661346435546875" lon="-1.53494683094322681427001953125">
        <ele>805</ele>
        <time>2020-08-22T13:51:37.000Z</time>
      </trkpt>
      <trkpt lat="43.20255878381431102752685546875" lon="-1.534945070743560791015625">
        <ele>805.79998779296875</ele>
        <time>2020-08-22T13:51:45.000Z</time>
      </trkpt>
      <trkpt lat="43.2027013599872589111328125" lon="-1.5349650196731090545654296875">
        <ele>806</ele>
        <time>2020-08-22T13:51:53.000Z</time>
      </trkpt>
      <trkpt lat="43.20271736942231655120849609375" lon="-1.53496912680566310882568359375">
        <ele>806.20001220703125</ele>
        <time>2020-08-22T13:51:54.000Z</time>
      </trkpt>
      <trkpt lat="43.2028319500386714935302734375" lon="-1.53499066829681396484375">
        <ele>806.5999755859375</ele>
        <time>2020-08-22T13:52:01.000Z</time>
      </trkpt>
      <trkpt lat="43.20299598388373851776123046875" lon="-1.53505160473287105560302734375">
        <ele>806.79998779296875</ele>
        <time>2020-08-22T13:52:10.000Z</time>
      </trkpt>
      <trkpt lat="43.20306756533682346343994140625" lon="-1.53507624752819538116455078125">
        <ele>807.20001220703125</ele>
        <time>2020-08-22T13:52:14.000Z</time>
      </trkpt>
      <trkpt lat="43.20315130054950714111328125" lon="-1.53507792390882968902587890625">
        <ele>807.5999755859375</ele>
        <time>2020-08-22T13:52:19.000Z</time>
      </trkpt>
      <trkpt lat="43.2032322697341442108154296875" lon="-1.53507675044238567352294921875">
        <ele>808.20001220703125</ele>
        <time>2020-08-22T13:52:24.000Z</time>
      </trkpt>
      <trkpt lat="43.20328867994248867034912109375" lon="-1.5350478328764438629150390625">
        <ele>808.79998779296875</ele>
        <time>2020-08-22T13:52:28.000Z</time>
      </trkpt>
      <trkpt lat="43.2033263146877288818359375" lon="-1.53501807712018489837646484375">
        <ele>809.20001220703125</ele>
        <time>2020-08-22T13:52:31.000Z</time>
      </trkpt>
      <trkpt lat="43.203355483710765838623046875" lon="-1.53500148095190525054931640625">
        <ele>809</ele>
        <time>2020-08-22T13:52:35.000Z</time>
      </trkpt>
      <trkpt lat="43.203355483710765838623046875" lon="-1.53499997220933437347412109375">
        <ele>809</ele>
        <time>2020-08-22T13:52:48.000Z</time>
      </trkpt>
      <trkpt lat="43.2033533044159412384033203125" lon="-1.5349998883903026580810546875">
        <ele>809.20001220703125</ele>
        <time>2020-08-22T13:53:20.000Z</time>
      </trkpt>
      <trkpt lat="43.20335338823497295379638671875" lon="-1.53500013984739780426025390625">
        <ele>809.20001220703125</ele>
        <time>2020-08-22T13:53:36.000Z</time>
      </trkpt>
      <trkpt lat="43.20335422642529010772705078125" lon="-1.535003744065761566162109375">
        <ele>809.20001220703125</ele>
        <time>2020-08-22T13:53:43.000Z</time>
      </trkpt>
      <trkpt lat="43.20335640572011470794677734375" lon="-1.53500500135123729705810546875">
        <ele>809.20001220703125</ele>
        <time>2020-08-22T13:53:49.000Z</time>
      </trkpt>
      <trkpt lat="43.20335539989173412322998046875" lon="-1.5349998883903026580810546875">
        <ele>808.79998779296875</ele>
        <time>2020-08-22T13:53:55.000Z</time>
      </trkpt>
      <trkpt lat="43.203353472054004669189453125" lon="-1.5349998883903026580810546875">
        <ele>808.20001220703125</ele>
        <time>2020-08-22T13:54:36.000Z</time>
      </trkpt>
      <trkpt lat="43.20335623808205127716064453125" lon="-1.5349935181438922882080078125">
        <ele>809.20001220703125</ele>
        <time>2020-08-22T13:54:51.000Z</time>
      </trkpt>
      <trkpt lat="43.203357160091400146484375" lon="-1.53499402105808258056640625">
        <ele>809.4000244140625</ele>
        <time>2020-08-22T13:55:01.000Z</time>
      </trkpt>
      <trkpt lat="43.20336453616619110107421875" lon="-1.5349858067929744720458984375">
        <ele>809.20001220703125</ele>
        <time>2020-08-22T13:55:18.000Z</time>
      </trkpt>
      <trkpt lat="43.20336453616619110107421875" lon="-1.53498555533587932586669921875">
        <ele>809.20001220703125</ele>
        <time>2020-08-22T13:55:24.000Z</time>
      </trkpt>
      <trkpt lat="43.20339865051209926605224609375" lon="-1.53495437465608119964599609375">
        <ele>809</ele>
        <time>2020-08-22T13:55:31.000Z</time>
      </trkpt>
      <trkpt lat="43.2035132311284542083740234375" lon="-1.5348342619836330413818359375">
        <ele>808.4000244140625</ele>
        <time>2020-08-22T13:55:37.000Z</time>
      </trkpt>
      <trkpt lat="43.203587830066680908203125" lon="-1.53471364639699459075927734375">
        <ele>807.79998779296875</ele>
        <time>2020-08-22T13:55:41.000Z</time>
      </trkpt>
      <trkpt lat="43.20363141596317291259765625" lon="-1.53462228365242481231689453125">
        <ele>806.79998779296875</ele>
        <time>2020-08-22T13:55:44.000Z</time>
      </trkpt>
      <trkpt lat="43.20364926941692829132080078125" lon="-1.53459076769649982452392578125">
        <ele>806.20001220703125</ele>
        <time>2020-08-22T13:55:45.000Z</time>
      </trkpt>
      <trkpt lat="43.20368430577218532562255859375" lon="-1.53452388010919094085693359375">
        <ele>805.79998779296875</ele>
        <time>2020-08-22T13:55:47.000Z</time>
      </trkpt>
      <trkpt lat="43.20381456054747104644775390625" lon="-1.53430125676095485687255859375">
        <ele>805.20001220703125</ele>
        <time>2020-08-22T13:55:53.000Z</time>
      </trkpt>
      <trkpt lat="43.20387792773544788360595703125" lon="-1.5342009253799915313720703125">
        <ele>804.5999755859375</ele>
        <time>2020-08-22T13:55:56.000Z</time>
      </trkpt>
      <trkpt lat="43.203943558037281036376953125" lon="-1.53409673832356929779052734375">
        <ele>804.4000244140625</ele>
        <time>2020-08-22T13:56:00.000Z</time>
      </trkpt>
      <trkpt lat="43.2040711306035518646240234375" lon="-1.5339350514113903045654296875">
        <ele>804.5999755859375</ele>
        <time>2020-08-22T13:56:08.000Z</time>
      </trkpt>
      <trkpt lat="43.20422057993710041046142578125" lon="-1.53376749716699123382568359375">
        <ele>804.4000244140625</ele>
        <time>2020-08-22T13:56:17.000Z</time>
      </trkpt>
      <trkpt lat="43.20436240173876285552978515625" lon="-1.53364143334329128265380859375">
        <ele>804.79998779296875</ele>
        <time>2020-08-22T13:56:25.000Z</time>
      </trkpt>
      <trkpt lat="43.20445661433041095733642578125" lon="-1.53352794237434864044189453125">
        <ele>805.20001220703125</ele>
        <time>2020-08-22T13:56:32.000Z</time>
      </trkpt>
      <trkpt lat="43.20451579056680202484130859375" lon="-1.53338578529655933380126953125">
        <ele>805.4000244140625</ele>
        <time>2020-08-22T13:56:38.000Z</time>
      </trkpt>
      <trkpt lat="43.20458737201988697052001953125" lon="-1.5332054905593395233154296875">
        <ele>805.20001220703125</ele>
        <time>2020-08-22T13:56:45.000Z</time>
      </trkpt>
      <trkpt lat="43.204681836068630218505859375" lon="-1.5329982899129390716552734375">
        <ele>803.5999755859375</ele>
        <time>2020-08-22T13:56:52.000Z</time>
      </trkpt>
      <trkpt lat="43.204697929322719573974609375" lon="-1.532976329326629638671875">
        <ele>803.20001220703125</ele>
        <time>2020-08-22T13:56:53.000Z</time>
      </trkpt>
      <trkpt lat="43.2047229073941707611083984375" lon="-1.5329372696578502655029296875">
        <ele>802.5999755859375</ele>
        <time>2020-08-22T13:56:57.000Z</time>
      </trkpt>
      <trkpt lat="43.2047205604612827301025390625" lon="-1.532937772572040557861328125">
        <ele>802.5999755859375</ele>
        <time>2020-08-22T13:57:07.000Z</time>
      </trkpt>
      <trkpt lat="43.2047205604612827301025390625" lon="-1.53294070623815059661865234375">
        <ele>803</ele>
        <time>2020-08-22T13:57:31.000Z</time>
      </trkpt>
      <trkpt lat="43.2047205604612827301025390625" lon="-1.532941125333309173583984375">
        <ele>802.79998779296875</ele>
        <time>2020-08-22T13:57:37.000Z</time>
      </trkpt>
      <trkpt lat="43.20473589934408664703369140625" lon="-1.5329221822321414947509765625">
        <ele>802.79998779296875</ele>
        <time>2020-08-22T13:57:58.000Z</time>
      </trkpt>
      <trkpt lat="43.20477562956511974334716796875" lon="-1.5328772552311420440673828125">
        <ele>802.20001220703125</ele>
        <time>2020-08-22T13:58:03.000Z</time>
      </trkpt>
      <trkpt lat="43.2048068940639495849609375" lon="-1.53283962048590183258056640625">
        <ele>801.4000244140625</ele>
        <time>2020-08-22T13:58:08.000Z</time>
      </trkpt>
      <trkpt lat="43.20481720380485057830810546875" lon="-1.53282822109758853912353515625">
        <ele>801.20001220703125</ele>
        <time>2020-08-22T13:58:10.000Z</time>
      </trkpt>
      <trkpt lat="43.2048231549561023712158203125" lon="-1.53282201848924160003662109375">
        <ele>800.4000244140625</ele>
        <time>2020-08-22T13:58:16.000Z</time>
      </trkpt>
      <trkpt lat="43.20482634007930755615234375" lon="-1.5328202582895755767822265625">
        <ele>800.79998779296875</ele>
        <time>2020-08-22T13:58:20.000Z</time>
      </trkpt>
      <trkpt lat="43.20485341362655162811279296875" lon="-1.5327894128859043121337890625">
        <ele>800.4000244140625</ele>
        <time>2020-08-22T13:58:25.000Z</time>
      </trkpt>
      <trkpt lat="43.20485710166394710540771484375" lon="-1.53278530575335025787353515625">
        <ele>800</ele>
        <time>2020-08-22T13:58:29.000Z</time>
      </trkpt>
      <trkpt lat="43.20485626347362995147705078125" lon="-1.53278530575335025787353515625">
        <ele>799.79998779296875</ele>
        <time>2020-08-22T13:58:33.000Z</time>
      </trkpt>
      <trkpt lat="43.20488995872437953948974609375" lon="-1.532759405672550201416015625">
        <ele>799.4000244140625</ele>
        <time>2020-08-22T13:58:43.000Z</time>
      </trkpt>
      <trkpt lat="43.2048954069614410400390625" lon="-1.53275395743548870086669921875">
        <ele>799</ele>
        <time>2020-08-22T13:58:48.000Z</time>
      </trkpt>
      <trkpt lat="43.2049106620252132415771484375" lon="-1.53274021111428737640380859375">
        <ele>799</ele>
        <time>2020-08-22T13:58:50.000Z</time>
      </trkpt>
      <trkpt lat="43.20495374500751495361328125" lon="-1.53269746340811252593994140625">
        <ele>798.79998779296875</ele>
        <time>2020-08-22T13:58:52.000Z</time>
      </trkpt>
      <trkpt lat="43.20504963397979736328125" lon="-1.5325879119336605072021484375">
        <ele>797.5999755859375</ele>
        <time>2020-08-22T13:58:55.000Z</time>
      </trkpt>
      <trkpt lat="43.20512406527996063232421875" lon="-1.53249009512364864349365234375">
        <ele>797.20001220703125</ele>
        <time>2020-08-22T13:58:57.000Z</time>
      </trkpt>
      <trkpt lat="43.20519916713237762451171875" lon="-1.53239403851330280303955078125">
        <ele>796.20001220703125</ele>
        <time>2020-08-22T13:58:59.000Z</time>
      </trkpt>
      <trkpt lat="43.2052358798682689666748046875" lon="-1.5323446691036224365234375">
        <ele>795</ele>
        <time>2020-08-22T13:59:00.000Z</time>
      </trkpt>
      <trkpt lat="43.2053036056458950042724609375" lon="-1.53225908987224102020263671875">
        <ele>793.5999755859375</ele>
        <time>2020-08-22T13:59:02.000Z</time>
      </trkpt>
      <trkpt lat="43.2053314335644245147705078125" lon="-1.53222271241247653961181640625">
        <ele>793.4000244140625</ele>
        <time>2020-08-22T13:59:03.000Z</time>
      </trkpt>
      <trkpt lat="43.2053837366402149200439453125" lon="-1.5321461856365203857421875">
        <ele>792.4000244140625</ele>
        <time>2020-08-22T13:59:05.000Z</time>
      </trkpt>
      <trkpt lat="43.2055010832846164703369140625" lon="-1.53197787702083587646484375">
        <ele>792</ele>
        <time>2020-08-22T13:59:10.000Z</time>
      </trkpt>
      <trkpt lat="43.2055255584418773651123046875" lon="-1.53195667080581188201904296875">
        <ele>791.5999755859375</ele>
        <time>2020-08-22T13:59:11.000Z</time>
      </trkpt>
      <trkpt lat="43.205550871789455413818359375" lon="-1.53194141574203968048095703125">
        <ele>791.20001220703125</ele>
        <time>2020-08-22T13:59:12.000Z</time>
      </trkpt>
      <trkpt lat="43.20565170608460903167724609375" lon="-1.53188542462885379791259765625">
        <ele>790</ele>
        <time>2020-08-22T13:59:16.000Z</time>
      </trkpt>
      <trkpt lat="43.2057703100144863128662109375" lon="-1.5318429283797740936279296875">
        <ele>788.20001220703125</ele>
        <time>2020-08-22T13:59:20.000Z</time>
      </trkpt>
      <trkpt lat="43.20584432221949100494384765625" lon="-1.53181317262351512908935546875">
        <ele>787.4000244140625</ele>
        <time>2020-08-22T13:59:22.000Z</time>
      </trkpt>
      <trkpt lat="43.2059533707797527313232421875" lon="-1.53174142353236675262451171875">
        <ele>786.79998779296875</ele>
        <time>2020-08-22T13:59:25.000Z</time>
      </trkpt>
      <trkpt lat="43.2060127146542072296142578125" lon="-1.53167688287794589996337890625">
        <ele>786.4000244140625</ele>
        <time>2020-08-22T13:59:27.000Z</time>
      </trkpt>
      <trkpt lat="43.2060388661921024322509765625" lon="-1.53164888732135295867919921875">
        <ele>785.79998779296875</ele>
        <time>2020-08-22T13:59:28.000Z</time>
      </trkpt>
      <trkpt lat="43.2061350904405117034912109375" lon="-1.5315458737313747406005859375">
        <ele>784.4000244140625</ele>
        <time>2020-08-22T13:59:31.000Z</time>
      </trkpt>
      <trkpt lat="43.20620424114167690277099609375" lon="-1.53146582655608654022216796875">
        <ele>782.4000244140625</ele>
        <time>2020-08-22T13:59:33.000Z</time>
      </trkpt>
      <trkpt lat="43.2062365114688873291015625" lon="-1.53142173774540424346923828125">
        <ele>781.20001220703125</ele>
        <time>2020-08-22T13:59:34.000Z</time>
      </trkpt>
      <trkpt lat="43.2062641717493534088134765625" lon="-1.531377397477626800537109375">
        <ele>780</ele>
        <time>2020-08-22T13:59:35.000Z</time>
      </trkpt>
      <trkpt lat="43.206326030194759368896484375" lon="-1.531250663101673126220703125">
        <ele>779</ele>
        <time>2020-08-22T13:59:38.000Z</time>
      </trkpt>
      <trkpt lat="43.2063449732959270477294921875" lon="-1.53120598755776882171630859375">
        <ele>778.79998779296875</ele>
        <time>2020-08-22T13:59:39.000Z</time>
      </trkpt>
      <trkpt lat="43.20647128857672214508056640625" lon="-1.53099459595978260040283203125">
        <ele>778.20001220703125</ele>
        <time>2020-08-22T13:59:44.000Z</time>
      </trkpt>
      <trkpt lat="43.20656013675034046173095703125" lon="-1.53086266480386257171630859375">
        <ele>777.4000244140625</ele>
        <time>2020-08-22T13:59:47.000Z</time>
      </trkpt>
      <trkpt lat="43.2066514156758785247802734375" lon="-1.530734002590179443359375">
        <ele>776.20001220703125</ele>
        <time>2020-08-22T13:59:50.000Z</time>
      </trkpt>
      <trkpt lat="43.206681422889232635498046875" lon="-1.5306919254362583160400390625">
        <ele>776</ele>
        <time>2020-08-22T13:59:51.000Z</time>
      </trkpt>
      <trkpt lat="43.206816203892230987548828125" lon="-1.5304867364466190338134765625">
        <ele>774.5999755859375</ele>
        <time>2020-08-22T13:59:56.000Z</time>
      </trkpt>
      <trkpt lat="43.20683606900274753570556640625" lon="-1.53044088743627071380615234375">
        <ele>773.79998779296875</ele>
        <time>2020-08-22T13:59:57.000Z</time>
      </trkpt>
      <trkpt lat="43.206944949924945831298828125" lon="-1.53010167181491851806640625">
        <ele>772.4000244140625</ele>
        <time>2020-08-22T14:00:04.000Z</time>
      </trkpt>
      <trkpt lat="43.20697319693863391876220703125" lon="-1.52986035682260990142822265625">
        <ele>771.20001220703125</ele>
        <time>2020-08-22T14:00:09.000Z</time>
      </trkpt>
      <trkpt lat="43.2069732807576656341552734375" lon="-1.52982045896351337432861328125">
        <ele>770.79998779296875</ele>
        <time>2020-08-22T14:00:10.000Z</time>
      </trkpt>
      <trkpt lat="43.206977136433124542236328125" lon="-1.5297394059598445892333984375">
        <ele>770.20001220703125</ele>
        <time>2020-08-22T14:00:12.000Z</time>
      </trkpt>
      <trkpt lat="43.20701527409255504608154296875" lon="-1.52954134158790111541748046875">
        <ele>769.4000244140625</ele>
        <time>2020-08-22T14:00:17.000Z</time>
      </trkpt>
      <trkpt lat="43.2070296071469783782958984375" lon="-1.52950060553848743438720703125">
        <ele>769</ele>
        <time>2020-08-22T14:00:18.000Z</time>
      </trkpt>
      <trkpt lat="43.20708207786083221435546875" lon="-1.5293856896460056304931640625">
        <ele>768</ele>
        <time>2020-08-22T14:00:21.000Z</time>
      </trkpt>
      <trkpt lat="43.207113929092884063720703125" lon="-1.52932927943766117095947265625">
        <ele>767.4000244140625</ele>
        <time>2020-08-22T14:00:23.000Z</time>
      </trkpt>
      <trkpt lat="43.20719799958169460296630859375" lon="-1.5292046405375003814697265625">
        <ele>766.79998779296875</ele>
        <time>2020-08-22T14:00:27.000Z</time>
      </trkpt>
      <trkpt lat="43.20722264237701892852783203125" lon="-1.52916423976421356201171875">
        <ele>766.20001220703125</ele>
        <time>2020-08-22T14:00:28.000Z</time>
      </trkpt>
      <trkpt lat="43.20724694989621639251708984375" lon="-1.5291231684386730194091796875">
        <ele>765.79998779296875</ele>
        <time>2020-08-22T14:00:29.000Z</time>
      </trkpt>
      <trkpt lat="43.207414336502552032470703125" lon="-1.5288120321929454803466796875">
        <ele>764.20001220703125</ele>
        <time>2020-08-22T14:00:36.000Z</time>
      </trkpt>
      <trkpt lat="43.207434117794036865234375" lon="-1.5287647582590579986572265625">
        <ele>763.5999755859375</ele>
        <time>2020-08-22T14:00:37.000Z</time>
      </trkpt>
      <trkpt lat="43.20745431818068027496337890625" lon="-1.52871790342032909393310546875">
        <ele>763</ele>
        <time>2020-08-22T14:00:38.000Z</time>
      </trkpt>
      <trkpt lat="43.2075315155088901519775390625" lon="-1.52855060063302516937255859375">
        <ele>762</ele>
        <time>2020-08-22T14:00:42.000Z</time>
      </trkpt>
      <trkpt lat="43.207559846341609954833984375" lon="-1.52848220430314540863037109375">
        <ele>761.79998779296875</ele>
        <time>2020-08-22T14:00:44.000Z</time>
      </trkpt>
      <trkpt lat="43.20758993737399578094482421875" lon="-1.5284080244600772857666015625">
        <ele>762</ele>
        <time>2020-08-22T14:00:47.000Z</time>
      </trkpt>
      <trkpt lat="43.20761575363576412200927734375" lon="-1.5283919312059879302978515625">
        <ele>761.5999755859375</ele>
        <time>2020-08-22T14:00:49.000Z</time>
      </trkpt>
      <trkpt lat="43.20762564428150653839111328125" lon="-1.5283895842730998992919921875">
        <ele>761.4000244140625</ele>
        <time>2020-08-22T14:00:54.000Z</time>
      </trkpt>
      <trkpt lat="43.20763134397566318511962890625" lon="-1.52839469723403453826904296875">
        <ele>761.4000244140625</ele>
        <time>2020-08-22T14:00:56.000Z</time>
      </trkpt>
      <trkpt lat="43.20765875279903411865234375" lon="-1.52842906303703784942626953125">
        <ele>761.79998779296875</ele>
        <time>2020-08-22T14:00:59.000Z</time>
      </trkpt>
      <trkpt lat="43.2077279873192310333251953125" lon="-1.52857289649546146392822265625">
        <ele>761.5999755859375</ele>
        <time>2020-08-22T14:01:06.000Z</time>
      </trkpt>
      <trkpt lat="43.207789175212383270263671875" lon="-1.528710611164569854736328125">
        <ele>761</ele>
        <time>2020-08-22T14:01:12.000Z</time>
      </trkpt>
      <trkpt lat="43.20779956877231597900390625" lon="-1.5287365950644016265869140625">
        <ele>761</ele>
        <time>2020-08-22T14:01:13.000Z</time>
      </trkpt>
      <trkpt lat="43.20786888711154460906982421875" lon="-1.52896936051547527313232421875">
        <ele>760.20001220703125</ele>
        <time>2020-08-22T14:01:21.000Z</time>
      </trkpt>
      <trkpt lat="43.2079231180250644683837890625" lon="-1.52923322282731533050537109375">
        <ele>760</ele>
        <time>2020-08-22T14:01:29.000Z</time>
      </trkpt>
      <trkpt lat="43.2079316675662994384765625" lon="-1.5292656607925891876220703125">
        <ele>760</ele>
        <time>2020-08-22T14:01:30.000Z</time>
      </trkpt>
      <trkpt lat="43.20800165645778179168701171875" lon="-1.52951854281127452850341796875">
        <ele>760.4000244140625</ele>
        <time>2020-08-22T14:01:38.000Z</time>
      </trkpt>
      <trkpt lat="43.20805328898131847381591796875" lon="-1.5297746099531650543212890625">
        <ele>759.5999755859375</ele>
        <time>2020-08-22T14:01:46.000Z</time>
      </trkpt>
      <trkpt lat="43.2080485112965106964111328125" lon="-1.52996781282126903533935546875">
        <ele>760.20001220703125</ele>
        <time>2020-08-22T14:01:53.000Z</time>
      </trkpt>
      <trkpt lat="43.2080535404384136199951171875" lon="-1.53004475869238376617431640625">
        <ele>760.5999755859375</ele>
        <time>2020-08-22T14:01:56.000Z</time>
      </trkpt>
      <trkpt lat="43.2080629281699657440185546875" lon="-1.530104018747806549072265625">
        <ele>760.20001220703125</ele>
        <time>2020-08-22T14:01:58.000Z</time>
      </trkpt>
      <trkpt lat="43.20807851850986480712890625" lon="-1.53022329322993755340576171875">
        <ele>758.79998779296875</ele>
        <time>2020-08-22T14:02:02.000Z</time>
      </trkpt>
      <trkpt lat="43.20808111689984798431396484375" lon="-1.53034399263560771942138671875">
        <ele>758.20001220703125</ele>
        <time>2020-08-22T14:02:06.000Z</time>
      </trkpt>
      <trkpt lat="43.2080899178981781005859375" lon="-1.5304320864379405975341796875">
        <ele>757.20001220703125</ele>
        <time>2020-08-22T14:02:09.000Z</time>
      </trkpt>
      <trkpt lat="43.20809871889650821685791015625" lon="-1.53049595654010772705078125">
        <ele>756.4000244140625</ele>
        <time>2020-08-22T14:02:11.000Z</time>
      </trkpt>
      <trkpt lat="43.208102993667125701904296875" lon="-1.5305370278656482696533203125">
        <ele>755.79998779296875</ele>
        <time>2020-08-22T14:02:12.000Z</time>
      </trkpt>
      <trkpt lat="43.20810559205710887908935546875" lon="-1.53062411583960056304931640625">
        <ele>754.79998779296875</ele>
        <time>2020-08-22T14:02:14.000Z</time>
      </trkpt>
      <trkpt lat="43.208102993667125701904296875" lon="-1.53072369284927845001220703125">
        <ele>753.5999755859375</ele>
        <time>2020-08-22T14:02:16.000Z</time>
      </trkpt>
      <trkpt lat="43.208096288144588470458984375" lon="-1.53090231120586395263671875">
        <ele>752.20001220703125</ele>
        <time>2020-08-22T14:02:20.000Z</time>
      </trkpt>
      <trkpt lat="43.20809033699333667755126953125" lon="-1.5309484116733074188232421875">
        <ele>751.79998779296875</ele>
        <time>2020-08-22T14:02:21.000Z</time>
      </trkpt>
      <trkpt lat="43.2080817036330699920654296875" lon="-1.53103114105761051177978515625">
        <ele>751</ele>
        <time>2020-08-22T14:02:23.000Z</time>
      </trkpt>
      <trkpt lat="43.208080194890499114990234375" lon="-1.5311341546475887298583984375">
        <ele>750.20001220703125</ele>
        <time>2020-08-22T14:02:26.000Z</time>
      </trkpt>
      <trkpt lat="43.208083212375640869140625" lon="-1.531170196831226348876953125">
        <ele>750.4000244140625</ele>
        <time>2020-08-22T14:02:27.000Z</time>
      </trkpt>
      <trkpt lat="43.20809301920235157012939453125" lon="-1.5312950871884822845458984375">
        <ele>750.5999755859375</ele>
        <time>2020-08-22T14:02:30.000Z</time>
      </trkpt>
      <trkpt lat="43.20809637196362018585205078125" lon="-1.5313329733908176422119140625">
        <ele>750.20001220703125</ele>
        <time>2020-08-22T14:02:31.000Z</time>
      </trkpt>
      <trkpt lat="43.20809419266879558563232421875" lon="-1.5313809178769588470458984375">
        <ele>749.20001220703125</ele>
        <time>2020-08-22T14:02:32.000Z</time>
      </trkpt>
      <trkpt lat="43.2080860622227191925048828125" lon="-1.531475968658924102783203125">
        <ele>748</ele>
        <time>2020-08-22T14:02:34.000Z</time>
      </trkpt>
      <trkpt lat="43.20808178745210170745849609375" lon="-1.53152047656476497650146484375">
        <ele>747.79998779296875</ele>
        <time>2020-08-22T14:02:35.000Z</time>
      </trkpt>
      <trkpt lat="43.2080860622227191925048828125" lon="-1.53160010464489459991455078125">
        <ele>746.5999755859375</ele>
        <time>2020-08-22T14:02:37.000Z</time>
      </trkpt>
      <trkpt lat="43.2080937735736370086669921875" lon="-1.53171862475574016571044921875">
        <ele>746</ele>
        <time>2020-08-22T14:02:40.000Z</time>
      </trkpt>
      <trkpt lat="43.2080971263349056243896484375" lon="-1.53175164945423603057861328125">
        <ele>745.5999755859375</ele>
        <time>2020-08-22T14:02:41.000Z</time>
      </trkpt>
      <trkpt lat="43.2081232778728008270263671875" lon="-1.5318938903510570526123046875">
        <ele>744.79998779296875</ele>
        <time>2020-08-22T14:02:46.000Z</time>
      </trkpt>
      <trkpt lat="43.20812487043440341949462890625" lon="-1.53192029334604740142822265625">
        <ele>744.4000244140625</ele>
        <time>2020-08-22T14:02:47.000Z</time>
      </trkpt>
      <trkpt lat="43.2081219367682933807373046875" lon="-1.53198014013469219207763671875">
        <ele>743.79998779296875</ele>
        <time>2020-08-22T14:02:50.000Z</time>
      </trkpt>
      <trkpt lat="43.2081105373799800872802734375" lon="-1.53205557726323604583740234375">
        <ele>743.20001220703125</ele>
        <time>2020-08-22T14:02:53.000Z</time>
      </trkpt>
      <trkpt lat="43.208120763301849365234375" lon="-1.5321195311844348907470703125">
        <ele>742.79998779296875</ele>
        <time>2020-08-22T14:02:56.000Z</time>
      </trkpt>
      <trkpt lat="43.20813509635627269744873046875" lon="-1.5322335250675678253173828125">
        <ele>742</ele>
        <time>2020-08-22T14:03:00.000Z</time>
      </trkpt>
      <trkpt lat="43.20815093815326690673828125" lon="-1.5322653762996196746826171875">
        <ele>741.79998779296875</ele>
        <time>2020-08-22T14:03:01.000Z</time>
      </trkpt>
      <trkpt lat="43.20820391178131103515625" lon="-1.53240292333066463470458984375">
        <ele>740.79998779296875</ele>
        <time>2020-08-22T14:03:04.000Z</time>
      </trkpt>
      <trkpt lat="43.20821891538798809051513671875" lon="-1.53245857916772365570068359375">
        <ele>740.20001220703125</ele>
        <time>2020-08-22T14:03:05.000Z</time>
      </trkpt>
      <trkpt lat="43.2082543708384037017822265625" lon="-1.53255664743483066558837890625">
        <ele>739.20001220703125</ele>
        <time>2020-08-22T14:03:07.000Z</time>
      </trkpt>
      <trkpt lat="43.20831279270350933074951171875" lon="-1.53264163993299007415771484375">
        <ele>738.20001220703125</ele>
        <time>2020-08-22T14:03:09.000Z</time>
      </trkpt>
      <trkpt lat="43.208339028060436248779296875" lon="-1.53267935849726200103759765625">
        <ele>738.20001220703125</ele>
        <time>2020-08-22T14:03:10.000Z</time>
      </trkpt>
      <trkpt lat="43.20846877992153167724609375" lon="-1.53282805345952510833740234375">
        <ele>738.20001220703125</ele>
        <time>2020-08-22T14:03:15.000Z</time>
      </trkpt>
      <trkpt lat="43.20863105356693267822265625" lon="-1.53302569873631000518798828125">
        <ele>739.20001220703125</ele>
        <time>2020-08-22T14:03:23.000Z</time>
      </trkpt>
      <trkpt lat="43.20870338939130306243896484375" lon="-1.5331171452999114990234375">
        <ele>739.4000244140625</ele>
        <time>2020-08-22T14:03:27.000Z</time>
      </trkpt>
      <trkpt lat="43.20877111516892910003662109375" lon="-1.5332132019102573394775390625">
        <ele>739.4000244140625</ele>
        <time>2020-08-22T14:03:31.000Z</time>
      </trkpt>
      <trkpt lat="43.2089198939502239227294921875" lon="-1.53343574143946170806884765625">
        <ele>739.20001220703125</ele>
        <time>2020-08-22T14:03:40.000Z</time>
      </trkpt>
      <trkpt lat="43.20905945263803005218505859375" lon="-1.53362651355564594268798828125">
        <ele>739</ele>
        <time>2020-08-22T14:03:45.000Z</time>
      </trkpt>
      <trkpt lat="43.20911812596023082733154296875" lon="-1.53368971310555934906005859375">
        <ele>738.20001220703125</ele>
        <time>2020-08-22T14:03:47.000Z</time>
      </trkpt>
      <trkpt lat="43.20923647843301296234130859375" lon="-1.53382533229887485504150390625">
        <ele>737</ele>
        <time>2020-08-22T14:03:52.000Z</time>
      </trkpt>
      <trkpt lat="43.20935047231614589691162109375" lon="-1.53399380855262279510498046875">
        <ele>737.20001220703125</ele>
        <time>2020-08-22T14:04:00.000Z</time>
      </trkpt>
      <trkpt lat="43.2094524800777435302734375" lon="-1.53417284600436687469482421875">
        <ele>738</ele>
        <time>2020-08-22T14:04:08.000Z</time>
      </trkpt>
      <trkpt lat="43.20946295745670795440673828125" lon="-1.53419363312423229217529296875">
        <ele>738.4000244140625</ele>
        <time>2020-08-22T14:04:09.000Z</time>
      </trkpt>
      <trkpt lat="43.2095302641391754150390625" lon="-1.53433553874492645263671875">
        <ele>739.20001220703125</ele>
        <time>2020-08-22T14:04:16.000Z</time>
      </trkpt>
      <trkpt lat="43.20953973568975925445556640625" lon="-1.534355320036411285400390625">
        <ele>739.4000244140625</ele>
        <time>2020-08-22T14:04:17.000Z</time>
      </trkpt>
      <trkpt lat="43.20956739597022533416748046875" lon="-1.53448616154491901397705078125">
        <ele>740.5999755859375</ele>
        <time>2020-08-22T14:04:23.000Z</time>
      </trkpt>
      <trkpt lat="43.20956890471279621124267578125" lon="-1.5345087088644504547119140625">
        <ele>740.79998779296875</ele>
        <time>2020-08-22T14:04:24.000Z</time>
      </trkpt>
      <trkpt lat="43.20955105125904083251953125" lon="-1.5347863174974918365478515625">
        <ele>740.5999755859375</ele>
        <time>2020-08-22T14:04:35.000Z</time>
      </trkpt>
      <trkpt lat="43.20956588722765445709228515625" lon="-1.53506099246442317962646484375">
        <ele>740.20001220703125</ele>
        <time>2020-08-22T14:04:42.000Z</time>
      </trkpt>
      <trkpt lat="43.20957644842565059661865234375" lon="-1.53523634187877178192138671875">
        <ele>739.4000244140625</ele>
        <time>2020-08-22T14:04:46.000Z</time>
      </trkpt>
      <trkpt lat="43.20957628078758716583251953125" lon="-1.53530742041766643524169921875">
        <ele>738.5999755859375</ele>
        <time>2020-08-22T14:04:48.000Z</time>
      </trkpt>
      <trkpt lat="43.2095780409872531890869140625" lon="-1.535342372953891754150390625">
        <ele>738.4000244140625</ele>
        <time>2020-08-22T14:04:49.000Z</time>
      </trkpt>
      <trkpt lat="43.2095839083194732666015625" lon="-1.5355209074914455413818359375">
        <ele>736.79998779296875</ele>
        <time>2020-08-22T14:04:54.000Z</time>
      </trkpt>
      <trkpt lat="43.2095934636890888214111328125" lon="-1.53559391386806964874267578125">
        <ele>736.4000244140625</ele>
        <time>2020-08-22T14:04:56.000Z</time>
      </trkpt>
      <trkpt lat="43.20962749421596527099609375" lon="-1.53578585945069789886474609375">
        <ele>735.5999755859375</ele>
        <time>2020-08-22T14:05:01.000Z</time>
      </trkpt>
      <trkpt lat="43.20964065380394458770751953125" lon="-1.5358618833124637603759765625">
        <ele>734.79998779296875</ele>
        <time>2020-08-22T14:05:03.000Z</time>
      </trkpt>
      <trkpt lat="43.20964568294584751129150390625" lon="-1.53590169735252857208251953125">
        <ele>734.5999755859375</ele>
        <time>2020-08-22T14:05:04.000Z</time>
      </trkpt>
      <trkpt lat="43.20965431630611419677734375" lon="-1.53603136539459228515625">
        <ele>733.20001220703125</ele>
        <time>2020-08-22T14:05:07.000Z</time>
      </trkpt>
      <trkpt lat="43.2096628658473491668701171875" lon="-1.53611057437956333160400390625">
        <ele>731.79998779296875</ele>
        <time>2020-08-22T14:05:09.000Z</time>
      </trkpt>
      <trkpt lat="43.20966965518891811370849609375" lon="-1.53614200651645660400390625">
        <ele>730.79998779296875</ele>
        <time>2020-08-22T14:05:12.000Z</time>
      </trkpt>
      <trkpt lat="43.20967032574117183685302734375" lon="-1.5361431799829006195068359375">
        <ele>730.79998779296875</ele>
        <time>2020-08-22T14:05:14.000Z</time>
      </trkpt>
      <trkpt lat="43.20967099629342555999755859375" lon="-1.53615918941795825958251953125">
        <ele>730.5999755859375</ele>
        <time>2020-08-22T14:05:21.000Z</time>
      </trkpt>
      <trkpt lat="43.2096792943775653839111328125" lon="-1.53627611696720123291015625">
        <ele>729.79998779296875</ele>
        <time>2020-08-22T14:05:26.000Z</time>
      </trkpt>
      <trkpt lat="43.20969195105135440826416015625" lon="-1.53634048998355865478515625">
        <ele>729.5999755859375</ele>
        <time>2020-08-22T14:05:28.000Z</time>
      </trkpt>
      <trkpt lat="43.20972673594951629638671875" lon="-1.53648801147937774658203125">
        <ele>728.79998779296875</ele>
        <time>2020-08-22T14:05:33.000Z</time>
      </trkpt>
      <trkpt lat="43.20973553694784641265869140625" lon="-1.5365150012075901031494140625">
        <ele>728.5999755859375</ele>
        <time>2020-08-22T14:05:34.000Z</time>
      </trkpt>
      <trkpt lat="43.2097689807415008544921875" lon="-1.5366142429411411285400390625">
        <ele>727.4000244140625</ele>
        <time>2020-08-22T14:05:37.000Z</time>
      </trkpt>
      <trkpt lat="43.20979152806103229522705078125" lon="-1.536684148013591766357421875">
        <ele>727.20001220703125</ele>
        <time>2020-08-22T14:05:39.000Z</time>
      </trkpt>
      <trkpt lat="43.20983159355819225311279296875" lon="-1.53679889626801013946533203125">
        <ele>726.20001220703125</ele>
        <time>2020-08-22T14:05:42.000Z</time>
      </trkpt>
      <trkpt lat="43.2099042646586894989013671875" lon="-1.5369535423815250396728515625">
        <ele>724.79998779296875</ele>
        <time>2020-08-22T14:05:46.000Z</time>
      </trkpt>
      <trkpt lat="43.20994441397488117218017578125" lon="-1.53703845106065273284912109375">
        <ele>723.4000244140625</ele>
        <time>2020-08-22T14:05:48.000Z</time>
      </trkpt>
      <trkpt lat="43.2100038416683673858642578125" lon="-1.537157557904720306396484375">
        <ele>722.20001220703125</ele>
        <time>2020-08-22T14:05:51.000Z</time>
      </trkpt>
      <trkpt lat="43.21007768623530864715576171875" lon="-1.53727482073009014129638671875">
        <ele>721.20001220703125</ele>
        <time>2020-08-22T14:05:54.000Z</time>
      </trkpt>
      <trkpt lat="43.2101054303348064422607421875" lon="-1.53731069527566432952880859375">
        <ele>721</ele>
        <time>2020-08-22T14:05:55.000Z</time>
      </trkpt>
      <trkpt lat="43.21021649055182933807373046875" lon="-1.53742100112140178680419921875">
        <ele>719.79998779296875</ele>
        <time>2020-08-22T14:05:59.000Z</time>
      </trkpt>
      <trkpt lat="43.21024381555616855621337890625" lon="-1.5374410338699817657470703125">
        <ele>719.4000244140625</ele>
        <time>2020-08-22T14:06:00.000Z</time>
      </trkpt>
      <trkpt lat="43.2102920114994049072265625" lon="-1.53748252429068088531494140625">
        <ele>718.5999755859375</ele>
        <time>2020-08-22T14:06:02.000Z</time>
      </trkpt>
      <trkpt lat="43.21037021465599536895751953125" lon="-1.537582017481327056884765625">
        <ele>718</ele>
        <time>2020-08-22T14:06:06.000Z</time>
      </trkpt>
      <trkpt lat="43.2104108668863773345947265625" lon="-1.53764781542122364044189453125">
        <ele>717.4000244140625</ele>
        <time>2020-08-22T14:06:09.000Z</time>
      </trkpt>
      <trkpt lat="43.21043995209038257598876953125" lon="-1.5377317182719707489013671875">
        <ele>716.79998779296875</ele>
        <time>2020-08-22T14:06:13.000Z</time>
      </trkpt>
      <trkpt lat="43.21046928875148296356201171875" lon="-1.53779097832739353179931640625">
        <ele>716.4000244140625</ele>
        <time>2020-08-22T14:06:16.000Z</time>
      </trkpt>
      <trkpt lat="43.2105151377618312835693359375" lon="-1.53785451315343379974365234375">
        <ele>715.4000244140625</ele>
        <time>2020-08-22T14:06:20.000Z</time>
      </trkpt>
      <trkpt lat="43.21052930317819118499755859375" lon="-1.5378705225884914398193359375">
        <ele>714.79998779296875</ele>
        <time>2020-08-22T14:06:21.000Z</time>
      </trkpt>
      <trkpt lat="43.2105550356209278106689453125" lon="-1.5378960035741329193115234375">
        <ele>714</ele>
        <time>2020-08-22T14:06:23.000Z</time>
      </trkpt>
      <trkpt lat="43.210563920438289642333984375" lon="-1.537901200354099273681640625">
        <ele>712.79998779296875</ele>
        <time>2020-08-22T14:06:26.000Z</time>
      </trkpt>
      <trkpt lat="43.21056350134313106536865234375" lon="-1.53790011070668697357177734375">
        <ele>712.79998779296875</ele>
        <time>2020-08-22T14:06:36.000Z</time>
      </trkpt>
      <trkpt lat="43.21060172282159328460693359375" lon="-1.53793933801352977752685546875">
        <ele>712.4000244140625</ele>
        <time>2020-08-22T14:06:43.000Z</time>
      </trkpt>
      <trkpt lat="43.21062066592276096343994140625" lon="-1.53795576654374599456787109375">
        <ele>712</ele>
        <time>2020-08-22T14:06:45.000Z</time>
      </trkpt>
      <trkpt lat="43.2107008807361125946044921875" lon="-1.53800756670534610748291015625">
        <ele>710.5999755859375</ele>
        <time>2020-08-22T14:06:53.000Z</time>
      </trkpt>
      <trkpt lat="43.21074052713811397552490234375" lon="-1.538032628595829010009765625">
        <ele>709.20001220703125</ele>
        <time>2020-08-22T14:06:57.000Z</time>
      </trkpt>
      <trkpt lat="43.21077371947467327117919921875" lon="-1.5380555950105190277099609375">
        <ele>708.20001220703125</ele>
        <time>2020-08-22T14:07:01.000Z</time>
      </trkpt>
      <trkpt lat="43.2107793353497982025146484375" lon="-1.53805978596210479736328125">
        <ele>707.79998779296875</ele>
        <time>2020-08-22T14:07:02.000Z</time>
      </trkpt>
      <trkpt lat="43.21079517714679241180419921875" lon="-1.53807227499783039093017578125">
        <ele>706.79998779296875</ele>
        <time>2020-08-22T14:07:04.000Z</time>
      </trkpt>
      <trkpt lat="43.21082518436014652252197265625" lon="-1.53810127638280391693115234375">
        <ele>706.20001220703125</ele>
        <time>2020-08-22T14:07:08.000Z</time>
      </trkpt>
      <trkpt lat="43.21083742193877696990966796875" lon="-1.53811502270400524139404296875">
        <ele>705.79998779296875</ele>
        <time>2020-08-22T14:07:10.000Z</time>
      </trkpt>
      <trkpt lat="43.2108775712549686431884765625" lon="-1.53816363774240016937255859375">
        <ele>704.20001220703125</ele>
        <time>2020-08-22T14:07:16.000Z</time>
      </trkpt>
      <trkpt lat="43.210883773863315582275390625" lon="-1.53817067854106426239013671875">
        <ele>704</ele>
        <time>2020-08-22T14:07:17.000Z</time>
      </trkpt>
      <trkpt lat="43.21090422570705413818359375" lon="-1.53819817118346691131591796875">
        <ele>703</ele>
        <time>2020-08-22T14:07:20.000Z</time>
      </trkpt>
      <trkpt lat="43.2109278626739978790283203125" lon="-1.5382460318505764007568359375">
        <ele>701.79998779296875</ele>
        <time>2020-08-22T14:07:25.000Z</time>
      </trkpt>
      <trkpt lat="43.21096063591539859771728515625" lon="-1.53828634880483150482177734375">
        <ele>700.79998779296875</ele>
        <time>2020-08-22T14:07:30.000Z</time>
      </trkpt>
      <trkpt lat="43.21097924374043941497802734375" lon="-1.53830763883888721466064453125">
        <ele>700</ele>
        <time>2020-08-22T14:07:33.000Z</time>
      </trkpt>
      <trkpt lat="43.2109862007200717926025390625" lon="-1.53831384144723415374755859375">
        <ele>699.5999755859375</ele>
        <time>2020-08-22T14:07:34.000Z</time>
      </trkpt>
      <trkpt lat="43.2110183872282505035400390625" lon="-1.53834468685090541839599609375">
        <ele>698.5999755859375</ele>
        <time>2020-08-22T14:07:38.000Z</time>
      </trkpt>
      <trkpt lat="43.211040012538433074951171875" lon="-1.53837385587394237518310546875">
        <ele>697.79998779296875</ele>
        <time>2020-08-22T14:07:41.000Z</time>
      </trkpt>
      <trkpt lat="43.21107060648500919342041015625" lon="-1.53842590749263763427734375">
        <ele>696.5999755859375</ele>
        <time>2020-08-22T14:07:46.000Z</time>
      </trkpt>
      <trkpt lat="43.2110934890806674957275390625" lon="-1.5384518913924694061279296875">
        <ele>695.79998779296875</ele>
        <time>2020-08-22T14:07:49.000Z</time>
      </trkpt>
      <trkpt lat="43.2111105881631374359130859375" lon="-1.53846924193203449249267578125">
        <ele>695.5999755859375</ele>
        <time>2020-08-22T14:07:51.000Z</time>
      </trkpt>
      <trkpt lat="43.21116280741989612579345703125" lon="-1.53849698603153228759765625">
        <ele>694.4000244140625</ele>
        <time>2020-08-22T14:07:56.000Z</time>
      </trkpt>
      <trkpt lat="43.2111843489110469818115234375" lon="-1.5385005064308643341064453125">
        <ele>693.79998779296875</ele>
        <time>2020-08-22T14:07:58.000Z</time>
      </trkpt>
      <trkpt lat="43.21120589040219783782958984375" lon="-1.5385055355727672576904296875">
        <ele>693.20001220703125</ele>
        <time>2020-08-22T14:08:00.000Z</time>
      </trkpt>
      <trkpt lat="43.21124612353742122650146484375" lon="-1.5385129116475582122802734375">
        <ele>692</ele>
        <time>2020-08-22T14:08:04.000Z</time>
      </trkpt>
      <trkpt lat="43.2112819142639636993408203125" lon="-1.53852204792201519012451171875">
        <ele>691.4000244140625</ele>
        <time>2020-08-22T14:08:07.000Z</time>
      </trkpt>
      <trkpt lat="43.21129155345261096954345703125" lon="-1.53852757997810840606689453125">
        <ele>691</ele>
        <time>2020-08-22T14:08:08.000Z</time>
      </trkpt>
      <trkpt lat="43.21132994256913661956787109375" lon="-1.53855063021183013916015625">
        <ele>690</ele>
        <time>2020-08-22T14:08:12.000Z</time>
      </trkpt>
      <trkpt lat="43.21137151680886745452880859375" lon="-1.538561694324016571044921875">
        <ele>689.5999755859375</ele>
        <time>2020-08-22T14:08:16.000Z</time>
      </trkpt>
      <trkpt lat="43.21140705607831478118896484375" lon="-1.53855993412435054779052734375">
        <ele>688.79998779296875</ele>
        <time>2020-08-22T14:08:19.000Z</time>
      </trkpt>
      <trkpt lat="43.21145148016512393951416015625" lon="-1.53855758719146251678466796875">
        <ele>687.79998779296875</ele>
        <time>2020-08-22T14:08:23.000Z</time>
      </trkpt>
      <trkpt lat="43.21146891452372074127197265625" lon="-1.5385554917156696319580078125">
        <ele>686.79998779296875</ele>
        <time>2020-08-22T14:08:25.000Z</time>
      </trkpt>
      <trkpt lat="43.21147779934108257293701171875" lon="-1.53855473734438419342041015625">
        <ele>686.5999755859375</ele>
        <time>2020-08-22T14:08:26.000Z</time>
      </trkpt>
      <trkpt lat="43.21152809076011180877685546875" lon="-1.53853864409029483795166015625">
        <ele>685.4000244140625</ele>
        <time>2020-08-22T14:08:32.000Z</time>
      </trkpt>
      <trkpt lat="43.211530186235904693603515625" lon="-1.53853990137577056884765625">
        <ele>684.79998779296875</ele>
        <time>2020-08-22T14:08:34.000Z</time>
      </trkpt>
      <trkpt lat="43.21155440993607044219970703125" lon="-1.53853042982518672943115234375">
        <ele>684.20001220703125</ele>
        <time>2020-08-22T14:08:42.000Z</time>
      </trkpt>
      <trkpt lat="43.211561702191829681396484375" lon="-1.5385279990732669830322265625">
        <ele>684.20001220703125</ele>
        <time>2020-08-22T14:08:43.000Z</time>
      </trkpt>
      <trkpt lat="43.21158559061586856842041015625" lon="-1.53852556832134723663330078125">
        <ele>683.20001220703125</ele>
        <time>2020-08-22T14:08:47.000Z</time>
      </trkpt>
      <trkpt lat="43.21158508770167827606201171875" lon="-1.53852858580648899078369140625">
        <ele>682.79998779296875</ele>
        <time>2020-08-22T14:08:51.000Z</time>
      </trkpt>
      <trkpt lat="43.21161626838147640228271484375" lon="-1.53853797353804111480712890625">
        <ele>682.4000244140625</ele>
        <time>2020-08-22T14:09:02.000Z</time>
      </trkpt>
      <trkpt lat="43.21162096224725246429443359375" lon="-1.53853763826191425323486328125">
        <ele>682</ele>
        <time>2020-08-22T14:09:03.000Z</time>
      </trkpt>
      <trkpt lat="43.21164107881486415863037109375" lon="-1.53855063021183013916015625">
        <ele>681.5999755859375</ele>
        <time>2020-08-22T14:09:09.000Z</time>
      </trkpt>
      <trkpt lat="43.21165616624057292938232421875" lon="-1.53855842538177967071533203125">
        <ele>680.79998779296875</ele>
        <time>2020-08-22T14:09:12.000Z</time>
      </trkpt>
      <trkpt lat="43.2116963155567646026611328125" lon="-1.538565047085285186767578125">
        <ele>680</ele>
        <time>2020-08-22T14:09:17.000Z</time>
      </trkpt>
      <trkpt lat="43.21171165443956851959228515625" lon="-1.53856663964688777923583984375">
        <ele>679.79998779296875</ele>
        <time>2020-08-22T14:09:19.000Z</time>
      </trkpt>
      <trkpt lat="43.2117476128041744232177734375" lon="-1.5385700762271881103515625">
        <ele>678.5999755859375</ele>
        <time>2020-08-22T14:09:23.000Z</time>
      </trkpt>
      <trkpt lat="43.211783654987812042236328125" lon="-1.53857451863586902618408203125">
        <ele>677.79998779296875</ele>
        <time>2020-08-22T14:09:27.000Z</time>
      </trkpt>
      <trkpt lat="43.2118237204849720001220703125" lon="-1.53857787139713764190673828125">
        <ele>676.5999755859375</ele>
        <time>2020-08-22T14:09:32.000Z</time>
      </trkpt>
      <trkpt lat="43.211882896721363067626953125" lon="-1.5385732613503932952880859375">
        <ele>675.4000244140625</ele>
        <time>2020-08-22T14:09:38.000Z</time>
      </trkpt>
      <trkpt lat="43.21192589588463306427001953125" lon="-1.53857820667326450347900390625">
        <ele>674.4000244140625</ele>
        <time>2020-08-22T14:09:42.000Z</time>
      </trkpt>
      <trkpt lat="43.21197769604623317718505859375" lon="-1.5386007539927959442138671875">
        <ele>674.20001220703125</ele>
        <time>2020-08-22T14:09:46.000Z</time>
      </trkpt>
      <trkpt lat="43.2120017521083354949951171875" lon="-1.53861776925623416900634765625">
        <ele>673.20001220703125</ele>
        <time>2020-08-22T14:09:48.000Z</time>
      </trkpt>
      <trkpt lat="43.21205489337444305419921875" lon="-1.53868817724287509918212890625">
        <ele>672.20001220703125</ele>
        <time>2020-08-22T14:09:54.000Z</time>
      </trkpt>
      <trkpt lat="43.21208196692168712615966796875" lon="-1.5387610159814357757568359375">
        <ele>671</ele>
        <time>2020-08-22T14:09:59.000Z</time>
      </trkpt>
      <trkpt lat="43.2120979763567447662353515625" lon="-1.5388025902211666107177734375">
        <ele>670.5999755859375</ele>
        <time>2020-08-22T14:10:02.000Z</time>
      </trkpt>
      <trkpt lat="43.21211499162018299102783203125" lon="-1.5388555638492107391357421875">
        <ele>670</ele>
        <time>2020-08-22T14:10:06.000Z</time>
      </trkpt>
      <trkpt lat="43.212125301361083984375" lon="-1.53888649307191371917724609375">
        <ele>669.4000244140625</ele>
        <time>2020-08-22T14:10:09.000Z</time>
      </trkpt>
      <trkpt lat="43.21213175542652606964111328125" lon="-1.538903005421161651611328125">
        <ele>668.79998779296875</ele>
        <time>2020-08-22T14:10:11.000Z</time>
      </trkpt>
      <trkpt lat="43.212132342159748077392578125" lon="-1.5389071963727474212646484375">
        <ele>668.4000244140625</ele>
        <time>2020-08-22T14:10:15.000Z</time>
      </trkpt>
      <trkpt lat="43.21215354837477207183837890625" lon="-1.53897332958877086639404296875">
        <ele>667.5999755859375</ele>
        <time>2020-08-22T14:10:23.000Z</time>
      </trkpt>
      <trkpt lat="43.212159834802150726318359375" lon="-1.5389886684715747833251953125">
        <ele>667</ele>
        <time>2020-08-22T14:10:29.000Z</time>
      </trkpt>
      <trkpt lat="43.21218489669263362884521484375" lon="-1.53902730904519557952880859375">
        <ele>667</ele>
        <time>2020-08-22T14:10:38.000Z</time>
      </trkpt>
      <trkpt lat="43.212204091250896453857421875" lon="-1.5390627644956111907958984375">
        <ele>666.4000244140625</ele>
        <time>2020-08-22T14:10:41.000Z</time>
      </trkpt>
      <trkpt lat="43.21221649646759033203125" lon="-1.53908438980579376220703125">
        <ele>666.20001220703125</ele>
        <time>2020-08-22T14:10:43.000Z</time>
      </trkpt>
      <trkpt lat="43.21222010068595409393310546875" lon="-1.53911682777106761932373046875">
        <ele>665.5999755859375</ele>
        <time>2020-08-22T14:10:46.000Z</time>
      </trkpt>
      <trkpt lat="43.212223537266254425048828125" lon="-1.5391378663480281829833984375">
        <ele>665.4000244140625</ele>
        <time>2020-08-22T14:10:48.000Z</time>
      </trkpt>
      <trkpt lat="43.2122330926358699798583984375" lon="-1.539217494428157806396484375">
        <ele>664.5999755859375</ele>
        <time>2020-08-22T14:10:55.000Z</time>
      </trkpt>
      <trkpt lat="43.21223418228328227996826171875" lon="-1.5392307378351688385009765625">
        <ele>664.4000244140625</ele>
        <time>2020-08-22T14:10:56.000Z</time>
      </trkpt>
      <trkpt lat="43.21223250590264797210693359375" lon="-1.53926451690495014190673828125">
        <ele>663.4000244140625</ele>
        <time>2020-08-22T14:11:00.000Z</time>
      </trkpt>
      <trkpt lat="43.21223082952201366424560546875" lon="-1.5392652712762355804443359375">
        <ele>663.20001220703125</ele>
        <time>2020-08-22T14:11:02.000Z</time>
      </trkpt>
      <trkpt lat="43.2122324220836162567138671875" lon="-1.5393345057964324951171875">
        <ele>663</ele>
        <time>2020-08-22T14:11:08.000Z</time>
      </trkpt>
      <trkpt lat="43.21227827109396457672119140625" lon="-1.5395036526024341583251953125">
        <ele>662.20001220703125</ele>
        <time>2020-08-22T14:11:13.000Z</time>
      </trkpt>
      <trkpt lat="43.21231079287827014923095703125" lon="-1.539699621498584747314453125">
        <ele>661</ele>
        <time>2020-08-22T14:11:17.000Z</time>
      </trkpt>
      <trkpt lat="43.21231842041015625" lon="-1.5397440455853939056396484375">
        <ele>660.79998779296875</ele>
        <time>2020-08-22T14:11:18.000Z</time>
      </trkpt>
      <trkpt lat="43.21235404349863529205322265625" lon="-1.53990455903112888336181640625">
        <ele>659.79998779296875</ele>
        <time>2020-08-22T14:11:22.000Z</time>
      </trkpt>
      <trkpt lat="43.21237918920814990997314453125" lon="-1.539993323385715484619140625">
        <ele>659.20001220703125</ele>
        <time>2020-08-22T14:11:25.000Z</time>
      </trkpt>
      <trkpt lat="43.2123926840722560882568359375" lon="-1.54004654847085475921630859375">
        <ele>658.79998779296875</ele>
        <time>2020-08-22T14:11:27.000Z</time>
      </trkpt>
      <trkpt lat="43.21240902878344058990478515625" lon="-1.540129445493221282958984375">
        <ele>657.79998779296875</ele>
        <time>2020-08-22T14:11:30.000Z</time>
      </trkpt>
      <trkpt lat="43.212417997419834136962890625" lon="-1.540185101330280303955078125">
        <ele>657.4000244140625</ele>
        <time>2020-08-22T14:11:32.000Z</time>
      </trkpt>
      <trkpt lat="43.212422020733356475830078125" lon="-1.5403559245169162750244140625">
        <ele>656.79998779296875</ele>
        <time>2020-08-22T14:11:38.000Z</time>
      </trkpt>
      <trkpt lat="43.2124231941998004913330078125" lon="-1.54038651846349239349365234375">
        <ele>656.79998779296875</ele>
        <time>2020-08-22T14:11:39.000Z</time>
      </trkpt>
      <trkpt lat="43.2124342583119869232177734375" lon="-1.540528424084186553955078125">
        <ele>655.79998779296875</ele>
        <time>2020-08-22T14:11:43.000Z</time>
      </trkpt>
      <trkpt lat="43.21243434213101863861083984375" lon="-1.540596820414066314697265625">
        <ele>655.5999755859375</ele>
        <time>2020-08-22T14:11:45.000Z</time>
      </trkpt>
      <trkpt lat="43.21243174374103546142578125" lon="-1.54083612374961376190185546875">
        <ele>654.79998779296875</ele>
        <time>2020-08-22T14:11:52.000Z</time>
      </trkpt>
      <trkpt lat="43.212477676570415496826171875" lon="-1.54091357253491878509521484375">
        <ele>654.5999755859375</ele>
        <time>2020-08-22T14:11:55.000Z</time>
      </trkpt>
      <trkpt lat="43.2125160656869411468505859375" lon="-1.54094391502439975738525390625">
        <ele>654.4000244140625</ele>
        <time>2020-08-22T14:11:57.000Z</time>
      </trkpt>
      <trkpt lat="43.21259276010096073150634765625" lon="-1.54097358696162700653076171875">
        <ele>653.5999755859375</ele>
        <time>2020-08-22T14:12:03.000Z</time>
      </trkpt>
      <trkpt lat="43.2126121222972869873046875" lon="-1.54097610153257846832275390625">
        <ele>653.5999755859375</ele>
        <time>2020-08-22T14:12:04.000Z</time>
      </trkpt>
      <trkpt lat="43.2127313129603862762451171875" lon="-1.54099789448082447052001953125">
        <ele>653.20001220703125</ele>
        <time>2020-08-22T14:12:09.000Z</time>
      </trkpt>
      <trkpt lat="43.21291965432465076446533203125" lon="-1.54102404601871967315673828125">
        <ele>652.79998779296875</ele>
        <time>2020-08-22T14:12:16.000Z</time>
      </trkpt>
      <trkpt lat="43.21296709589660167694091796875" lon="-1.5410271473228931427001953125">
        <ele>652.4000244140625</ele>
        <time>2020-08-22T14:12:18.000Z</time>
      </trkpt>
      <trkpt lat="43.2130431197583675384521484375" lon="-1.54104282148182392120361328125">
        <ele>651.4000244140625</ele>
        <time>2020-08-22T14:12:22.000Z</time>
      </trkpt>
      <trkpt lat="43.21313791908323764801025390625" lon="-1.54106427915394306182861328125">
        <ele>651.5999755859375</ele>
        <time>2020-08-22T14:12:27.000Z</time>
      </trkpt>
      <trkpt lat="43.21323447860777378082275390625" lon="-1.54108841903507709503173828125">
        <ele>651</ele>
        <time>2020-08-22T14:12:32.000Z</time>
      </trkpt>
      <trkpt lat="43.21325090713798999786376953125" lon="-1.54109512455761432647705078125">
        <ele>650.79998779296875</ele>
        <time>2020-08-22T14:12:33.000Z</time>
      </trkpt>
      <trkpt lat="43.2133083231747150421142578125" lon="-1.5411253832280635833740234375">
        <ele>650.5999755859375</ele>
        <time>2020-08-22T14:12:37.000Z</time>
      </trkpt>
      <trkpt lat="43.21334914304316043853759765625" lon="-1.54117022641003131866455078125">
        <ele>650.4000244140625</ele>
        <time>2020-08-22T14:12:40.000Z</time>
      </trkpt>
      <trkpt lat="43.2133673317730426788330078125" lon="-1.54118045233190059661865234375">
        <ele>650.20001220703125</ele>
        <time>2020-08-22T14:12:41.000Z</time>
      </trkpt>
      <trkpt lat="43.2133857719600200653076171875" lon="-1.54119168408215045928955078125">
        <ele>650.20001220703125</ele>
        <time>2020-08-22T14:12:42.000Z</time>
      </trkpt>
      <trkpt lat="43.213441930711269378662109375" lon="-1.54123811982572078704833984375">
        <ele>650.20001220703125</ele>
        <time>2020-08-22T14:12:45.000Z</time>
      </trkpt>
      <trkpt lat="43.21350655518472194671630859375" lon="-1.5413312427699565887451171875">
        <ele>650.4000244140625</ele>
        <time>2020-08-22T14:12:49.000Z</time>
      </trkpt>
      <trkpt lat="43.2135882787406444549560546875" lon="-1.54149435460567474365234375">
        <ele>649</ele>
        <time>2020-08-22T14:12:54.000Z</time>
      </trkpt>
      <trkpt lat="43.21361836977303028106689453125" lon="-1.5416009724140167236328125">
        <ele>648.20001220703125</ele>
        <time>2020-08-22T14:12:57.000Z</time>
      </trkpt>
      <trkpt lat="43.213624656200408935546875" lon="-1.54163626022636890411376953125">
        <ele>648</ele>
        <time>2020-08-22T14:12:58.000Z</time>
      </trkpt>
      <trkpt lat="43.213627673685550689697265625" lon="-1.54180071316659450531005859375">
        <ele>647</ele>
        <time>2020-08-22T14:13:03.000Z</time>
      </trkpt>
      <trkpt lat="43.21360789239406585693359375" lon="-1.5420108474791049957275390625">
        <ele>645.79998779296875</ele>
        <time>2020-08-22T14:13:09.000Z</time>
      </trkpt>
      <trkpt lat="43.213592469692230224609375" lon="-1.542218886315822601318359375">
        <ele>645.4000244140625</ele>
        <time>2020-08-22T14:13:15.000Z</time>
      </trkpt>
      <trkpt lat="43.2135899551212787628173828125" lon="-1.542557179927825927734375">
        <ele>645</ele>
        <time>2020-08-22T14:13:25.000Z</time>
      </trkpt>
      <trkpt lat="43.213584423065185546875" lon="-1.54261191375553607940673828125">
        <ele>644.79998779296875</ele>
        <time>2020-08-22T14:13:27.000Z</time>
      </trkpt>
      <trkpt lat="43.21355818770825862884521484375" lon="-1.542810983955860137939453125">
        <ele>644.79998779296875</ele>
        <time>2020-08-22T14:13:34.000Z</time>
      </trkpt>
      <trkpt lat="43.21354217827320098876953125" lon="-1.54297753237187862396240234375">
        <ele>644.4000244140625</ele>
        <time>2020-08-22T14:13:40.000Z</time>
      </trkpt>
      <trkpt lat="43.21354192681610584259033203125" lon="-1.54315925203263759613037109375">
        <ele>644.4000244140625</ele>
        <time>2020-08-22T14:13:47.000Z</time>
      </trkpt>
      <trkpt lat="43.2135862670838832855224609375" lon="-1.5433040075004100799560546875">
        <ele>643.5999755859375</ele>
        <time>2020-08-22T14:13:52.000Z</time>
      </trkpt>
      <trkpt lat="43.21361736394464969635009765625" lon="-1.5433553047478199005126953125">
        <ele>643.4000244140625</ele>
        <time>2020-08-22T14:13:54.000Z</time>
      </trkpt>
      <trkpt lat="43.21373253129422664642333984375" lon="-1.54346041381359100341796875">
        <ele>642.5999755859375</ele>
        <time>2020-08-22T14:14:00.000Z</time>
      </trkpt>
      <trkpt lat="43.21382406167685985565185546875" lon="-1.54353107325732707977294921875">
        <ele>641.79998779296875</ele>
        <time>2020-08-22T14:14:05.000Z</time>
      </trkpt>
      <trkpt lat="43.2138647139072418212890625" lon="-1.5435571409761905670166015625">
        <ele>641</ele>
        <time>2020-08-22T14:14:07.000Z</time>
      </trkpt>
      <trkpt lat="43.21388592012226581573486328125" lon="-1.54356862418353557586669921875">
        <ele>641</ele>
        <time>2020-08-22T14:14:08.000Z</time>
      </trkpt>
      <trkpt lat="43.21390603668987751007080078125" lon="-1.54357952065765857696533203125">
        <ele>640.5999755859375</ele>
        <time>2020-08-22T14:14:09.000Z</time>
      </trkpt>
      <trkpt lat="43.213966973125934600830078125" lon="-1.54361774213612079620361328125">
        <ele>639.4000244140625</ele>
        <time>2020-08-22T14:14:12.000Z</time>
      </trkpt>
      <trkpt lat="43.21398675441741943359375" lon="-1.5436287224292755126953125">
        <ele>639</ele>
        <time>2020-08-22T14:14:13.000Z</time>
      </trkpt>
      <trkpt lat="43.214069902896881103515625" lon="-1.5436771698296070098876953125">
        <ele>638.20001220703125</ele>
        <time>2020-08-22T14:14:17.000Z</time>
      </trkpt>
      <trkpt lat="43.2141382992267608642578125" lon="-1.54371866025030612945556640625">
        <ele>637</ele>
        <time>2020-08-22T14:14:21.000Z</time>
      </trkpt>
      <trkpt lat="43.2142776064574718475341796875" lon="-1.5438320674002170562744140625">
        <ele>636</ele>
        <time>2020-08-22T14:14:30.000Z</time>
      </trkpt>
      <trkpt lat="43.21435983292758464813232421875" lon="-1.543924100697040557861328125">
        <ele>634.79998779296875</ele>
        <time>2020-08-22T14:14:35.000Z</time>
      </trkpt>
      <trkpt lat="43.21438665501773357391357421875" lon="-1.5439715422689914703369140625">
        <ele>633.5999755859375</ele>
        <time>2020-08-22T14:14:37.000Z</time>
      </trkpt>
      <trkpt lat="43.214441724121570587158203125" lon="-1.5441197343170642852783203125">
        <ele>633.20001220703125</ele>
        <time>2020-08-22T14:14:43.000Z</time>
      </trkpt>
      <trkpt lat="43.21446041576564311981201171875" lon="-1.54419626109302043914794921875">
        <ele>632.4000244140625</ele>
        <time>2020-08-22T14:14:45.000Z</time>
      </trkpt>
      <trkpt lat="43.21449545212090015411376953125" lon="-1.5444117598235607147216796875">
        <ele>632.20001220703125</ele>
        <time>2020-08-22T14:14:51.000Z</time>
      </trkpt>
      <trkpt lat="43.2145003974437713623046875" lon="-1.54447671957314014434814453125">
        <ele>631.20001220703125</ele>
        <time>2020-08-22T14:14:53.000Z</time>
      </trkpt>
      <trkpt lat="43.21450802497565746307373046875" lon="-1.54462843202054500579833984375">
        <ele>630.79998779296875</ele>
        <time>2020-08-22T14:14:58.000Z</time>
      </trkpt>
      <trkpt lat="43.2145012356340885162353515625" lon="-1.54475315473973751068115234375">
        <ele>630.4000244140625</ele>
        <time>2020-08-22T14:15:04.000Z</time>
      </trkpt>
      <trkpt lat="43.21450081653892993927001953125" lon="-1.544764302670955657958984375">
        <ele>630.20001220703125</ele>
        <time>2020-08-22T14:15:06.000Z</time>
      </trkpt>
      <trkpt lat="43.21449595503509044647216796875" lon="-1.544778384268283843994140625">
        <ele>629.79998779296875</ele>
        <time>2020-08-22T14:15:09.000Z</time>
      </trkpt>
      <trkpt lat="43.214494697749614715576171875" lon="-1.5448003448545932769775390625">
        <ele>629.4000244140625</ele>
        <time>2020-08-22T14:15:14.000Z</time>
      </trkpt>
      <trkpt lat="43.2144921831786632537841796875" lon="-1.54481199570000171661376953125">
        <ele>629.20001220703125</ele>
        <time>2020-08-22T14:15:16.000Z</time>
      </trkpt>
      <trkpt lat="43.21448388509452342987060546875" lon="-1.5448570065200328826904296875">
        <ele>629.20001220703125</ele>
        <time>2020-08-22T14:15:22.000Z</time>
      </trkpt>
      <trkpt lat="43.21447147987782955169677734375" lon="-1.54489765875041484832763671875">
        <ele>628.79998779296875</ele>
        <time>2020-08-22T14:15:26.000Z</time>
      </trkpt>
      <trkpt lat="43.21445421315729618072509765625" lon="-1.544960439205169677734375">
        <ele>628.20001220703125</ele>
        <time>2020-08-22T14:15:30.000Z</time>
      </trkpt>
      <trkpt lat="43.214449100196361541748046875" lon="-1.5449891053140163421630859375">
        <ele>628</ele>
        <time>2020-08-22T14:15:33.000Z</time>
      </trkpt>
      <trkpt lat="43.21444340050220489501953125" lon="-1.54500075615942478179931640625">
        <ele>627.79998779296875</ele>
        <time>2020-08-22T14:15:36.000Z</time>
      </trkpt>
      <trkpt lat="43.214430324733257293701171875" lon="-1.54505305923521518707275390625">
        <ele>628</ele>
        <time>2020-08-22T14:15:42.000Z</time>
      </trkpt>
      <trkpt lat="43.21439570747315883636474609375" lon="-1.5452009998261928558349609375">
        <ele>627.20001220703125</ele>
        <time>2020-08-22T14:15:51.000Z</time>
      </trkpt>
      <trkpt lat="43.2143916003406047821044921875" lon="-1.54521667398512363433837890625">
        <ele>627.20001220703125</ele>
        <time>2020-08-22T14:15:52.000Z</time>
      </trkpt>
      <trkpt lat="43.2143634371459484100341796875" lon="-1.54531155712902545928955078125">
        <ele>626.5999755859375</ele>
        <time>2020-08-22T14:15:59.000Z</time>
      </trkpt>
      <trkpt lat="43.2143563963472843170166015625" lon="-1.54535631649196147918701171875">
        <ele>626.20001220703125</ele>
        <time>2020-08-22T14:16:03.000Z</time>
      </trkpt>
      <trkpt lat="43.21435430087149143218994140625" lon="-1.54541884548962116241455078125">
        <ele>625.4000244140625</ele>
        <time>2020-08-22T14:16:09.000Z</time>
      </trkpt>
      <trkpt lat="43.21435488760471343994140625" lon="-1.54542940668761730194091796875">
        <ele>625.20001220703125</ele>
        <time>2020-08-22T14:16:10.000Z</time>
      </trkpt>
      <trkpt lat="43.21435513906180858612060546875" lon="-1.5454826317727565765380859375">
        <ele>624.20001220703125</ele>
        <time>2020-08-22T14:16:16.000Z</time>
      </trkpt>
      <trkpt lat="43.21435396559536457061767578125" lon="-1.5454816259443759918212890625">
        <ele>623.79998779296875</ele>
        <time>2020-08-22T14:16:18.000Z</time>
      </trkpt>
      <trkpt lat="43.21435748599469661712646484375" lon="-1.54553049243986606597900390625">
        <ele>623.4000244140625</ele>
        <time>2020-08-22T14:16:26.000Z</time>
      </trkpt>
      <trkpt lat="43.21435748599469661712646484375" lon="-1.54553954489529132843017578125">
        <ele>623</ele>
        <time>2020-08-22T14:16:27.000Z</time>
      </trkpt>
      <trkpt lat="43.2143609225749969482421875" lon="-1.545570977032184600830078125">
        <ele>622</ele>
        <time>2020-08-22T14:16:31.000Z</time>
      </trkpt>
      <trkpt lat="43.21436335332691669464111328125" lon="-1.545598804950714111328125">
        <ele>621.4000244140625</ele>
        <time>2020-08-22T14:16:34.000Z</time>
      </trkpt>
      <trkpt lat="43.21436821483075618743896484375" lon="-1.545627973973751068115234375">
        <ele>621</ele>
        <time>2020-08-22T14:16:37.000Z</time>
      </trkpt>
      <trkpt lat="43.214373998343944549560546875" lon="-1.54566896148025989532470703125">
        <ele>620</ele>
        <time>2020-08-22T14:16:41.000Z</time>
      </trkpt>
      <trkpt lat="43.2143770158290863037109375" lon="-1.54569209553301334381103515625">
        <ele>619.79998779296875</ele>
        <time>2020-08-22T14:16:43.000Z</time>
      </trkpt>
      <trkpt lat="43.21437944658100605010986328125" lon="-1.54570450074970722198486328125">
        <ele>619.5999755859375</ele>
        <time>2020-08-22T14:16:44.000Z</time>
      </trkpt>
      <trkpt lat="43.2143845595419406890869140625" lon="-1.54576149769127368927001953125">
        <ele>619</ele>
        <time>2020-08-22T14:16:49.000Z</time>
      </trkpt>
      <trkpt lat="43.2143885828554630279541015625" lon="-1.5457790158689022064208984375">
        <ele>618.5999755859375</ele>
        <time>2020-08-22T14:16:51.000Z</time>
      </trkpt>
      <trkpt lat="43.21439503692090511322021484375" lon="-1.545815058052539825439453125">
        <ele>617.79998779296875</ele>
        <time>2020-08-22T14:16:55.000Z</time>
      </trkpt>
      <trkpt lat="43.214404173195362091064453125" lon="-1.54586710967123508453369140625">
        <ele>617</ele>
        <time>2020-08-22T14:17:00.000Z</time>
      </trkpt>
      <trkpt lat="43.21441381238400936126708984375" lon="-1.54589812271296977996826171875">
        <ele>616.5999755859375</ele>
        <time>2020-08-22T14:17:03.000Z</time>
      </trkpt>
      <trkpt lat="43.21443275548517704010009765625" lon="-1.545956544578075408935546875">
        <ele>616</ele>
        <time>2020-08-22T14:17:09.000Z</time>
      </trkpt>
      <trkpt lat="43.2144467532634735107421875" lon="-1.54598780907690525054931640625">
        <ele>615.5999755859375</ele>
        <time>2020-08-22T14:17:12.000Z</time>
      </trkpt>
      <trkpt lat="43.21446645073592662811279296875" lon="-1.546041034162044525146484375">
        <ele>614.4000244140625</ele>
        <time>2020-08-22T14:17:17.000Z</time>
      </trkpt>
      <trkpt lat="43.21451288647949695587158203125" lon="-1.54611052013933658599853515625">
        <ele>613.4000244140625</ele>
        <time>2020-08-22T14:17:25.000Z</time>
      </trkpt>
      <trkpt lat="43.214563429355621337890625" lon="-1.5461714565753936767578125">
        <ele>612.20001220703125</ele>
        <time>2020-08-22T14:17:33.000Z</time>
      </trkpt>
      <trkpt lat="43.21457340382039546966552734375" lon="-1.546188555657863616943359375">
        <ele>611.79998779296875</ele>
        <time>2020-08-22T14:17:35.000Z</time>
      </trkpt>
      <trkpt lat="43.21461129002273082733154296875" lon="-1.54623440466821193695068359375">
        <ele>611.20001220703125</ele>
        <time>2020-08-22T14:17:41.000Z</time>
      </trkpt>
      <trkpt lat="43.2146175764501094818115234375" lon="-1.54624949209392070770263671875">
        <ele>611</ele>
        <time>2020-08-22T14:17:43.000Z</time>
      </trkpt>
      <trkpt lat="43.2146343402564525604248046875" lon="-1.5462872944772243499755859375">
        <ele>610</ele>
        <time>2020-08-22T14:17:48.000Z</time>
      </trkpt>
      <trkpt lat="43.214645572006702423095703125" lon="-1.54630682431161403656005859375">
        <ele>609.5999755859375</ele>
        <time>2020-08-22T14:17:50.000Z</time>
      </trkpt>
      <trkpt lat="43.21466476656496524810791015625" lon="-1.54633398167788982391357421875">
        <ele>609</ele>
        <time>2020-08-22T14:17:54.000Z</time>
      </trkpt>
      <trkpt lat="43.21468572132289409637451171875" lon="-1.5463560260832309722900390625">
        <ele>608</ele>
        <time>2020-08-22T14:17:58.000Z</time>
      </trkpt>
      <trkpt lat="43.2146983779966831207275390625" lon="-1.54636817984282970428466796875">
        <ele>607.79998779296875</ele>
        <time>2020-08-22T14:18:00.000Z</time>
      </trkpt>
      <trkpt lat="43.2147305645048618316650390625" lon="-1.54640413820743560791015625">
        <ele>607</ele>
        <time>2020-08-22T14:18:06.000Z</time>
      </trkpt>
      <trkpt lat="43.21474112570285797119140625" lon="-1.54641914181411266326904296875">
        <ele>606.79998779296875</ele>
        <time>2020-08-22T14:18:08.000Z</time>
      </trkpt>
      <trkpt lat="43.21475512348115444183349609375" lon="-1.54643691144883632659912109375">
        <ele>606.20001220703125</ele>
        <time>2020-08-22T14:18:13.000Z</time>
      </trkpt>
      <trkpt lat="43.2147821970283985137939453125" lon="-1.54647211544215679168701171875">
        <ele>606</ele>
        <time>2020-08-22T14:18:19.000Z</time>
      </trkpt>
      <trkpt lat="43.21478848345577716827392578125" lon="-1.54648150317370891571044921875">
        <ele>605.79998779296875</ele>
        <time>2020-08-22T14:18:20.000Z</time>
      </trkpt>
      <trkpt lat="43.2148222625255584716796875" lon="-1.54652542434632778167724609375">
        <ele>604.79998779296875</ele>
        <time>2020-08-22T14:18:26.000Z</time>
      </trkpt>
      <trkpt lat="43.21483089588582515716552734375" lon="-1.5465404279530048370361328125">
        <ele>604.5999755859375</ele>
        <time>2020-08-22T14:18:28.000Z</time>
      </trkpt>
      <trkpt lat="43.214846067130565643310546875" lon="-1.5465665794909000396728515625">
        <ele>603.79998779296875</ele>
        <time>2020-08-22T14:18:33.000Z</time>
      </trkpt>
      <trkpt lat="43.21486392058432102203369140625" lon="-1.54658292420208454132080078125">
        <ele>603</ele>
        <time>2020-08-22T14:18:36.000Z</time>
      </trkpt>
      <trkpt lat="43.21488755755126476287841796875" lon="-1.5466007776558399200439453125">
        <ele>602.79998779296875</ele>
        <time>2020-08-22T14:18:42.000Z</time>
      </trkpt>
      <trkpt lat="43.21489107795059680938720703125" lon="-1.546604298055171966552734375">
        <ele>602.5999755859375</ele>
        <time>2020-08-22T14:18:43.000Z</time>
      </trkpt>
      <trkpt lat="43.21491220034658908843994140625" lon="-1.54663145542144775390625">
        <ele>601.79998779296875</ele>
        <time>2020-08-22T14:18:52.000Z</time>
      </trkpt>
      <trkpt lat="43.21491287089884281158447265625" lon="-1.54663422144949436187744140625">
        <ele>601.79998779296875</ele>
        <time>2020-08-22T14:18:54.000Z</time>
      </trkpt>
      <trkpt lat="43.214929215610027313232421875" lon="-1.54665970243513584136962890625">
        <ele>601</ele>
        <time>2020-08-22T14:19:00.000Z</time>
      </trkpt>
      <trkpt lat="43.21493969298899173736572265625" lon="-1.546671353280544281005859375">
        <ele>600.5999755859375</ele>
        <time>2020-08-22T14:19:05.000Z</time>
      </trkpt>
      <trkpt lat="43.21494606323540210723876953125" lon="-1.54667713679373264312744140625">
        <ele>600.20001220703125</ele>
        <time>2020-08-22T14:19:09.000Z</time>
      </trkpt>
      <trkpt lat="43.21496400050818920135498046875" lon="-1.54669976793229579925537109375">
        <ele>600.20001220703125</ele>
        <time>2020-08-22T14:19:19.000Z</time>
      </trkpt>
      <trkpt lat="43.214968107640743255615234375" lon="-1.5467052161693572998046875">
        <ele>599.79998779296875</ele>
        <time>2020-08-22T14:19:22.000Z</time>
      </trkpt>
      <trkpt lat="43.2149746455252170562744140625" lon="-1.546711586415767669677734375">
        <ele>599.5999755859375</ele>
        <time>2020-08-22T14:19:24.000Z</time>
      </trkpt>
      <trkpt lat="43.21499333716928958892822265625" lon="-1.5467352233827114105224609375">
        <ele>599.20001220703125</ele>
        <time>2020-08-22T14:19:29.000Z</time>
      </trkpt>
      <trkpt lat="43.2150098495185375213623046875" lon="-1.5467563457787036895751953125">
        <ele>598.5999755859375</ele>
        <time>2020-08-22T14:19:33.000Z</time>
      </trkpt>
      <trkpt lat="43.2150175608694553375244140625" lon="-1.546768583357334136962890625">
        <ele>598.4000244140625</ele>
        <time>2020-08-22T14:19:35.000Z</time>
      </trkpt>
      <trkpt lat="43.21504597552120685577392578125" lon="-1.5468190424144268035888671875">
        <ele>597.5999755859375</ele>
        <time>2020-08-22T14:19:42.000Z</time>
      </trkpt>
      <trkpt lat="43.21505184285342693328857421875" lon="-1.54683555476367473602294921875">
        <ele>597.4000244140625</ele>
        <time>2020-08-22T14:19:44.000Z</time>
      </trkpt>
      <trkpt lat="43.2150742225348949432373046875" lon="-1.546887941658496856689453125">
        <ele>596.5999755859375</ele>
        <time>2020-08-22T14:19:51.000Z</time>
      </trkpt>
      <trkpt lat="43.21507732383906841278076171875" lon="-1.5468929708003997802734375">
        <ele>596.4000244140625</ele>
        <time>2020-08-22T14:19:52.000Z</time>
      </trkpt>
      <trkpt lat="43.21509811095893383026123046875" lon="-1.54693923890590667724609375">
        <ele>595.4000244140625</ele>
        <time>2020-08-22T14:19:59.000Z</time>
      </trkpt>
      <trkpt lat="43.21510263718664646148681640625" lon="-1.5469467826187610626220703125">
        <ele>595.20001220703125</ele>
        <time>2020-08-22T14:20:00.000Z</time>
      </trkpt>
      <trkpt lat="43.2151466421782970428466796875" lon="-1.54703311622142791748046875">
        <ele>594.4000244140625</ele>
        <time>2020-08-22T14:20:10.000Z</time>
      </trkpt>
      <trkpt lat="43.21515284478664398193359375" lon="-1.5470423363149166107177734375">
        <ele>594.20001220703125</ele>
        <time>2020-08-22T14:20:11.000Z</time>
      </trkpt>
      <trkpt lat="43.215174637734889984130859375" lon="-1.547075696289539337158203125">
        <ele>593.20001220703125</ele>
        <time>2020-08-22T14:20:15.000Z</time>
      </trkpt>
      <trkpt lat="43.215190730988979339599609375" lon="-1.547103859484195709228515625">
        <ele>593</ele>
        <time>2020-08-22T14:20:18.000Z</time>
      </trkpt>
      <trkpt lat="43.21521311067044734954833984375" lon="-1.5471409074962139129638671875">
        <ele>592</ele>
        <time>2020-08-22T14:20:23.000Z</time>
      </trkpt>
      <trkpt lat="43.21523062884807586669921875" lon="-1.5471757762134075164794921875">
        <ele>591.5999755859375</ele>
        <time>2020-08-22T14:20:27.000Z</time>
      </trkpt>
      <trkpt lat="43.2152512483298778533935546875" lon="-1.547208465635776519775390625">
        <ele>591.20001220703125</ele>
        <time>2020-08-22T14:20:31.000Z</time>
      </trkpt>
      <trkpt lat="43.21525820530951023101806640625" lon="-1.54722330160439014434814453125">
        <ele>590.20001220703125</ele>
        <time>2020-08-22T14:20:35.000Z</time>
      </trkpt>
      <trkpt lat="43.215259127318859100341796875" lon="-1.54722648672759532928466796875">
        <ele>590</ele>
        <time>2020-08-22T14:20:36.000Z</time>
      </trkpt>
      <trkpt lat="43.21526574902236461639404296875" lon="-1.54724559746682643890380859375">
        <ele>589.79998779296875</ele>
        <time>2020-08-22T14:20:40.000Z</time>
      </trkpt>
      <trkpt lat="43.2152894698083400726318359375" lon="-1.547260098159313201904296875">
        <ele>589.4000244140625</ele>
        <time>2020-08-22T14:20:47.000Z</time>
      </trkpt>
      <trkpt lat="43.21531268768012523651123046875" lon="-1.54728792607784271240234375">
        <ele>588.79998779296875</ele>
        <time>2020-08-22T14:20:53.000Z</time>
      </trkpt>
      <trkpt lat="43.21531939320266246795654296875" lon="-1.54730267822742462158203125">
        <ele>588.4000244140625</ele>
        <time>2020-08-22T14:20:56.000Z</time>
      </trkpt>
      <trkpt lat="43.215335905551910400390625" lon="-1.5473310090601444244384765625">
        <ele>587.5999755859375</ele>
        <time>2020-08-22T14:21:01.000Z</time>
      </trkpt>
      <trkpt lat="43.21534487418830394744873046875" lon="-1.547345258295536041259765625">
        <ele>587.20001220703125</ele>
        <time>2020-08-22T14:21:04.000Z</time>
      </trkpt>
      <trkpt lat="43.21536499075591564178466796875" lon="-1.54737819917500019073486328125">
        <ele>586.5999755859375</ele>
        <time>2020-08-22T14:21:09.000Z</time>
      </trkpt>
      <trkpt lat="43.2153719477355480194091796875" lon="-1.54740284197032451629638671875">
        <ele>585.79998779296875</ele>
        <time>2020-08-22T14:21:12.000Z</time>
      </trkpt>
      <trkpt lat="43.21537337265908718109130859375" lon="-1.54740502126514911651611328125">
        <ele>585.5999755859375</ele>
        <time>2020-08-22T14:21:14.000Z</time>
      </trkpt>
      <trkpt lat="43.21537722833454608917236328125" lon="-1.54740250669419765472412109375">
        <ele>585.20001220703125</ele>
        <time>2020-08-22T14:21:18.000Z</time>
      </trkpt>
      <trkpt lat="43.21537773124873638153076171875" lon="-1.54740083031356334686279296875">
        <ele>585.4000244140625</ele>
        <time>2020-08-22T14:21:35.000Z</time>
      </trkpt>
      <trkpt lat="43.2153830118477344512939453125" lon="-1.54743787832558155059814453125">
        <ele>585</ele>
        <time>2020-08-22T14:21:50.000Z</time>
      </trkpt>
      <trkpt lat="43.215394578874111175537109375" lon="-1.547453887760639190673828125">
        <ele>584.4000244140625</ele>
        <time>2020-08-22T14:21:54.000Z</time>
      </trkpt>
      <trkpt lat="43.215400613844394683837890625" lon="-1.54746268875896930694580078125">
        <ele>584.20001220703125</ele>
        <time>2020-08-22T14:21:57.000Z</time>
      </trkpt>
      <trkpt lat="43.215427100658416748046875" lon="-1.547507531940937042236328125">
        <ele>583.20001220703125</ele>
        <time>2020-08-22T14:22:03.000Z</time>
      </trkpt>
      <trkpt lat="43.215444199740886688232421875" lon="-1.54755220748484134674072265625">
        <ele>582.20001220703125</ele>
        <time>2020-08-22T14:22:08.000Z</time>
      </trkpt>
      <trkpt lat="43.2154544256627559661865234375" lon="-1.54759059660136699676513671875">
        <ele>581.4000244140625</ele>
        <time>2020-08-22T14:22:13.000Z</time>
      </trkpt>
      <trkpt lat="43.2154601253569126129150390625" lon="-1.54761473648250102996826171875">
        <ele>581.20001220703125</ele>
        <time>2020-08-22T14:22:16.000Z</time>
      </trkpt>
      <trkpt lat="43.21547194384038448333740234375" lon="-1.547642983496189117431640625">
        <ele>580.4000244140625</ele>
        <time>2020-08-22T14:22:21.000Z</time>
      </trkpt>
      <trkpt lat="43.2154792360961437225341796875" lon="-1.5476511977612972259521484375">
        <ele>580.4000244140625</ele>
        <time>2020-08-22T14:22:25.000Z</time>
      </trkpt>
      <trkpt lat="43.21548066101968288421630859375" lon="-1.54765605926513671875">
        <ele>580</ele>
        <time>2020-08-22T14:22:27.000Z</time>
      </trkpt>
      <trkpt lat="43.21548636071383953094482421875" lon="-1.54767106287181377410888671875">
        <ele>579.4000244140625</ele>
        <time>2020-08-22T14:22:34.000Z</time>
      </trkpt>
      <trkpt lat="43.2154862768948078155517578125" lon="-1.5476743318140506744384765625">
        <ele>579.20001220703125</ele>
        <time>2020-08-22T14:22:35.000Z</time>
      </trkpt>
      <trkpt lat="43.2154862768948078155517578125" lon="-1.5476770140230655670166015625">
        <ele>578.5999755859375</ele>
        <time>2020-08-22T14:22:43.000Z</time>
      </trkpt>
      <trkpt lat="43.215487785637378692626953125" lon="-1.5476894192397594451904296875">
        <ele>578.4000244140625</ele>
        <time>2020-08-22T14:22:55.000Z</time>
      </trkpt>
      <trkpt lat="43.21548753418028354644775390625" lon="-1.54769587330520153045654296875">
        <ele>578.20001220703125</ele>
        <time>2020-08-22T14:22:56.000Z</time>
      </trkpt>
      <trkpt lat="43.21548954583704471588134765625" lon="-1.54771833680570125579833984375">
        <ele>577.5999755859375</ele>
        <time>2020-08-22T14:23:02.000Z</time>
      </trkpt>
      <trkpt lat="43.21548904292285442352294921875" lon="-1.54772453941404819488525390625">
        <ele>577.4000244140625</ele>
        <time>2020-08-22T14:23:14.000Z</time>
      </trkpt>
      <trkpt lat="43.2154889591038227081298828125" lon="-1.54772512614727020263671875">
        <ele>577.4000244140625</ele>
        <time>2020-08-22T14:23:26.000Z</time>
      </trkpt>
      <trkpt lat="43.2154889591038227081298828125" lon="-1.54772537760436534881591796875">
        <ele>578</ele>
        <time>2020-08-22T14:23:47.000Z</time>
      </trkpt>
      <trkpt lat="43.2154909707605838775634765625" lon="-1.5477252937853336334228515625">
        <ele>577.4000244140625</ele>
        <time>2020-08-22T14:24:16.000Z</time>
      </trkpt>
      <trkpt lat="43.215495832264423370361328125" lon="-1.54774080030620098114013671875">
        <ele>577.5999755859375</ele>
        <time>2020-08-22T14:24:26.000Z</time>
      </trkpt>
      <trkpt lat="43.21550496853888034820556640625" lon="-1.547766029834747314453125">
        <ele>577</ele>
        <time>2020-08-22T14:24:33.000Z</time>
      </trkpt>
      <trkpt lat="43.215514607727527618408203125" lon="-1.54778840951621532440185546875">
        <ele>576.4000244140625</ele>
        <time>2020-08-22T14:24:41.000Z</time>
      </trkpt>
      <trkpt lat="43.2155154459178447723388671875" lon="-1.54778949916362762451171875">
        <ele>576.20001220703125</ele>
        <time>2020-08-22T14:24:42.000Z</time>
      </trkpt>
      <trkpt lat="43.21552173234522342681884765625" lon="-1.54780668206512928009033203125">
        <ele>575.5999755859375</ele>
        <time>2020-08-22T14:24:49.000Z</time>
      </trkpt>
      <trkpt lat="43.21554134599864482879638671875" lon="-1.547848843038082122802734375">
        <ele>575.20001220703125</ele>
        <time>2020-08-22T14:24:56.000Z</time>
      </trkpt>
      <trkpt lat="43.21554436348378658294677734375" lon="-1.5478567220270633697509765625">
        <ele>575</ele>
        <time>2020-08-22T14:24:57.000Z</time>
      </trkpt>
      <trkpt lat="43.2155674137175083160400390625" lon="-1.547910869121551513671875">
        <ele>574.4000244140625</ele>
        <time>2020-08-22T14:25:04.000Z</time>
      </trkpt>
      <trkpt lat="43.21558057330548763275146484375" lon="-1.547954119741916656494140625">
        <ele>573.4000244140625</ele>
        <time>2020-08-22T14:25:10.000Z</time>
      </trkpt>
      <trkpt lat="43.21558375842869281768798828125" lon="-1.54796510003507137298583984375">
        <ele>573.20001220703125</ele>
        <time>2020-08-22T14:25:11.000Z</time>
      </trkpt>
      <trkpt lat="43.2156026177108287811279296875" lon="-1.548024527728557586669921875">
        <ele>572.20001220703125</ele>
        <time>2020-08-22T14:25:16.000Z</time>
      </trkpt>
      <trkpt lat="43.2156200520694255828857421875" lon="-1.54804791323840618133544921875">
        <ele>571.5999755859375</ele>
        <time>2020-08-22T14:25:19.000Z</time>
      </trkpt>
      <trkpt lat="43.21562969125807285308837890625" lon="-1.54807641170918941497802734375">
        <ele>571.20001220703125</ele>
        <time>2020-08-22T14:25:22.000Z</time>
      </trkpt>
      <trkpt lat="43.21564611978828907012939453125" lon="-1.5481148846447467803955078125">
        <ele>570</ele>
        <time>2020-08-22T14:25:26.000Z</time>
      </trkpt>
      <trkpt lat="43.21565466932952404022216796875" lon="-1.54813122935593128204345703125">
        <ele>569.5999755859375</ele>
        <time>2020-08-22T14:25:28.000Z</time>
      </trkpt>
      <trkpt lat="43.21566648781299591064453125" lon="-1.54816224239766597747802734375">
        <ele>569</ele>
        <time>2020-08-22T14:25:33.000Z</time>
      </trkpt>
      <trkpt lat="43.2156690023839473724365234375" lon="-1.5481691993772983551025390625">
        <ele>569</ele>
        <time>2020-08-22T14:25:34.000Z</time>
      </trkpt>
      <trkpt lat="43.21568568237125873565673828125" lon="-1.54821622185409069061279296875">
        <ele>568.20001220703125</ele>
        <time>2020-08-22T14:25:41.000Z</time>
      </trkpt>
      <trkpt lat="43.21570060215890407562255859375" lon="-1.54825083911418914794921875">
        <ele>568</ele>
        <time>2020-08-22T14:25:45.000Z</time>
      </trkpt>
      <trkpt lat="43.21571476757526397705078125" lon="-1.5482929162681102752685546875">
        <ele>567.4000244140625</ele>
        <time>2020-08-22T14:25:50.000Z</time>
      </trkpt>
      <trkpt lat="43.21572591550648212432861328125" lon="-1.54832568950951099395751953125">
        <ele>566.79998779296875</ele>
        <time>2020-08-22T14:25:54.000Z</time>
      </trkpt>
      <trkpt lat="43.2157300226390361785888671875" lon="-1.548339687287807464599609375">
        <ele>566.4000244140625</ele>
        <time>2020-08-22T14:25:58.000Z</time>
      </trkpt>
      <trkpt lat="43.2157380692660808563232421875" lon="-1.54836240224540233612060546875">
        <ele>566</ele>
        <time>2020-08-22T14:26:02.000Z</time>
      </trkpt>
      <trkpt lat="43.215749971568584442138671875" lon="-1.548392660915851593017578125">
        <ele>565.79998779296875</ele>
        <time>2020-08-22T14:26:05.000Z</time>
      </trkpt>
      <trkpt lat="43.215758018195629119873046875" lon="-1.54842250049114227294921875">
        <ele>565</ele>
        <time>2020-08-22T14:26:09.000Z</time>
      </trkpt>
      <trkpt lat="43.2157645560801029205322265625" lon="-1.54843901284039020538330078125">
        <ele>564.79998779296875</ele>
        <time>2020-08-22T14:26:11.000Z</time>
      </trkpt>
      <trkpt lat="43.21576966904103755950927734375" lon="-1.54844840057194232940673828125">
        <ele>564.79998779296875</ele>
        <time>2020-08-22T14:26:12.000Z</time>
      </trkpt>
      <trkpt lat="43.21579280309379100799560546875" lon="-1.548500955104827880859375">
        <ele>563.79998779296875</ele>
        <time>2020-08-22T14:26:17.000Z</time>
      </trkpt>
      <trkpt lat="43.215796910226345062255859375" lon="-1.54850833117961883544921875">
        <ele>563.79998779296875</ele>
        <time>2020-08-22T14:26:18.000Z</time>
      </trkpt>
      <trkpt lat="43.21583949029445648193359375" lon="-1.54858611524105072021484375">
        <ele>563</ele>
        <time>2020-08-22T14:26:26.000Z</time>
      </trkpt>
      <trkpt lat="43.215843848884105682373046875" lon="-1.548599861562252044677734375">
        <ele>562.5999755859375</ele>
        <time>2020-08-22T14:26:27.000Z</time>
      </trkpt>
      <trkpt lat="43.215863294899463653564453125" lon="-1.5486798249185085296630859375">
        <ele>561.5999755859375</ele>
        <time>2020-08-22T14:26:33.000Z</time>
      </trkpt>
      <trkpt lat="43.2158710062503814697265625" lon="-1.54869097284972667694091796875">
        <ele>561.5999755859375</ele>
        <time>2020-08-22T14:26:34.000Z</time>
      </trkpt>
      <trkpt lat="43.21588349528610706329345703125" lon="-1.54871008358895778656005859375">
        <ele>560.5999755859375</ele>
        <time>2020-08-22T14:26:39.000Z</time>
      </trkpt>
      <trkpt lat="43.21588349528610706329345703125" lon="-1.5487096644937992095947265625">
        <ele>560.5999755859375</ele>
        <time>2020-08-22T14:26:40.000Z</time>
      </trkpt>
      <trkpt lat="43.21588508784770965576171875" lon="-1.54870773665606975555419921875">
        <ele>560.5999755859375</ele>
        <time>2020-08-22T14:26:50.000Z</time>
      </trkpt>
      <trkpt lat="43.215896151959896087646484375" lon="-1.5487327985465526580810546875">
        <ele>560.4000244140625</ele>
        <time>2020-08-22T14:26:52.000Z</time>
      </trkpt>
      <trkpt lat="43.2159150950610637664794921875" lon="-1.54878384433686733245849609375">
        <ele>560.20001220703125</ele>
        <time>2020-08-22T14:26:54.000Z</time>
      </trkpt>
      <trkpt lat="43.21595616638660430908203125" lon="-1.5488903783261775970458984375">
        <ele>559.4000244140625</ele>
        <time>2020-08-22T14:26:57.000Z</time>
      </trkpt>
      <trkpt lat="43.216002099215984344482421875" lon="-1.5489990077912807464599609375">
        <ele>558</ele>
        <time>2020-08-22T14:27:00.000Z</time>
      </trkpt>
      <trkpt lat="43.21602162905037403106689453125" lon="-1.54905692674219608306884765625">
        <ele>557</ele>
        <time>2020-08-22T14:27:02.000Z</time>
      </trkpt>
      <trkpt lat="43.21604576893150806427001953125" lon="-1.54910939745604991912841796875">
        <ele>556</ele>
        <time>2020-08-22T14:27:04.000Z</time>
      </trkpt>
      <trkpt lat="43.21605733595788478851318359375" lon="-1.54913404025137424468994140625">
        <ele>555.5999755859375</ele>
        <time>2020-08-22T14:27:05.000Z</time>
      </trkpt>
      <trkpt lat="43.21607627905905246734619140625" lon="-1.54918584041297435760498046875">
        <ele>554.79998779296875</ele>
        <time>2020-08-22T14:27:07.000Z</time>
      </trkpt>
      <trkpt lat="43.2161043584346771240234375" lon="-1.54927385039627552032470703125">
        <ele>553.79998779296875</ele>
        <time>2020-08-22T14:27:10.000Z</time>
      </trkpt>
      <trkpt lat="43.2161249779164791107177734375" lon="-1.54932104051113128662109375">
        <ele>553.20001220703125</ele>
        <time>2020-08-22T14:27:12.000Z</time>
      </trkpt>
      <trkpt lat="43.216154985129833221435546875" lon="-1.54939589090645313262939453125">
        <ele>552.4000244140625</ele>
        <time>2020-08-22T14:27:15.000Z</time>
      </trkpt>
      <trkpt lat="43.21618138812482357025146484375" lon="-1.54949010349810123443603515625">
        <ele>551.4000244140625</ele>
        <time>2020-08-22T14:27:19.000Z</time>
      </trkpt>
      <trkpt lat="43.21618960238993167877197265625" lon="-1.5495153330266475677490234375">
        <ele>550.4000244140625</ele>
        <time>2020-08-22T14:27:24.000Z</time>
      </trkpt>
      <trkpt lat="43.21619144640862941741943359375" lon="-1.54952094890177249908447265625">
        <ele>550.4000244140625</ele>
        <time>2020-08-22T14:27:25.000Z</time>
      </trkpt>
      <trkpt lat="43.2162041030824184417724609375" lon="-1.549560092389583587646484375">
        <ele>550.4000244140625</ele>
        <time>2020-08-22T14:27:29.000Z</time>
      </trkpt>
      <trkpt lat="43.216230757534503936767578125" lon="-1.54961549676954746246337890625">
        <ele>549.5999755859375</ele>
        <time>2020-08-22T14:27:36.000Z</time>
      </trkpt>
      <trkpt lat="43.2162357866764068603515625" lon="-1.549625135958194732666015625">
        <ele>549.4000244140625</ele>
        <time>2020-08-22T14:27:37.000Z</time>
      </trkpt>
      <trkpt lat="43.21625246666371822357177734375" lon="-1.5496497787535190582275390625">
        <ele>549.20001220703125</ele>
        <time>2020-08-22T14:27:41.000Z</time>
      </trkpt>
      <trkpt lat="43.21625313721597194671630859375" lon="-1.54964935965836048126220703125">
        <ele>548.79998779296875</ele>
        <time>2020-08-22T14:27:53.000Z</time>
      </trkpt>
      <trkpt lat="43.21625255048274993896484375" lon="-1.54965455643832683563232421875">
        <ele>548.79998779296875</ele>
        <time>2020-08-22T14:28:10.000Z</time>
      </trkpt>
      <trkpt lat="43.21625246666371822357177734375" lon="-1.5496544726192951202392578125">
        <ele>548.5999755859375</ele>
        <time>2020-08-22T14:28:12.000Z</time>
      </trkpt>
      <trkpt lat="43.21625229902565479278564453125" lon="-1.5496538020670413970947265625">
        <ele>548.4000244140625</ele>
        <time>2020-08-22T14:28:40.000Z</time>
      </trkpt>
      <trkpt lat="43.21625255048274993896484375" lon="-1.54967500828206539154052734375">
        <ele>548.20001220703125</ele>
        <time>2020-08-22T14:29:01.000Z</time>
      </trkpt>
      <trkpt lat="43.21626168675720691680908203125" lon="-1.54968741349875926971435546875">
        <ele>547.79998779296875</ele>
        <time>2020-08-22T14:29:13.000Z</time>
      </trkpt>
      <trkpt lat="43.21626621298491954803466796875" lon="-1.549697220325469970703125">
        <ele>547.79998779296875</ele>
        <time>2020-08-22T14:29:14.000Z</time>
      </trkpt>
      <trkpt lat="43.2162788696587085723876953125" lon="-1.5497164987027645111083984375">
        <ele>547.4000244140625</ele>
        <time>2020-08-22T14:29:16.000Z</time>
      </trkpt>
      <trkpt lat="43.2163055241107940673828125" lon="-1.54973552562296390533447265625">
        <ele>547</ele>
        <time>2020-08-22T14:29:19.000Z</time>
      </trkpt>
      <trkpt lat="43.21632094681262969970703125" lon="-1.5497734956443309783935546875">
        <ele>546.5999755859375</ele>
        <time>2020-08-22T14:29:22.000Z</time>
      </trkpt>
      <trkpt lat="43.21632631123065948486328125" lon="-1.54978732578456401824951171875">
        <ele>546.20001220703125</ele>
        <time>2020-08-22T14:29:23.000Z</time>
      </trkpt>
      <trkpt lat="43.21635589934885501861572265625" lon="-1.549828983843326568603515625">
        <ele>545.5999755859375</ele>
        <time>2020-08-22T14:29:27.000Z</time>
      </trkpt>
      <trkpt lat="43.21636252105236053466796875" lon="-1.549839042127132415771484375">
        <ele>545.4000244140625</ele>
        <time>2020-08-22T14:29:28.000Z</time>
      </trkpt>
      <trkpt lat="43.21638070978224277496337890625" lon="-1.54986242763698101043701171875">
        <ele>544.79998779296875</ele>
        <time>2020-08-22T14:29:31.000Z</time>
      </trkpt>
      <trkpt lat="43.21639143861830234527587890625" lon="-1.54988874681293964385986328125">
        <ele>544.4000244140625</ele>
        <time>2020-08-22T14:29:34.000Z</time>
      </trkpt>
      <trkpt lat="43.2163972221314907073974609375" lon="-1.549894027411937713623046875">
        <ele>544.20001220703125</ele>
        <time>2020-08-22T14:29:35.000Z</time>
      </trkpt>
      <trkpt lat="43.21643100120127201080322265625" lon="-1.54995596967637538909912109375">
        <ele>543.20001220703125</ele>
        <time>2020-08-22T14:29:41.000Z</time>
      </trkpt>
      <trkpt lat="43.21643485687673091888427734375" lon="-1.549969129264354705810546875">
        <ele>543</ele>
        <time>2020-08-22T14:29:42.000Z</time>
      </trkpt>
      <trkpt lat="43.2164421491324901580810546875" lon="-1.55001011677086353302001953125">
        <ele>542.20001220703125</ele>
        <time>2020-08-22T14:29:46.000Z</time>
      </trkpt>
      <trkpt lat="43.21644298732280731201171875" lon="-1.550045907497406005859375">
        <ele>541.79998779296875</ele>
        <time>2020-08-22T14:29:49.000Z</time>
      </trkpt>
      <trkpt lat="43.21644994430243968963623046875" lon="-1.55008320696651935577392578125">
        <ele>541.20001220703125</ele>
        <time>2020-08-22T14:29:52.000Z</time>
      </trkpt>
      <trkpt lat="43.21645664982497692108154296875" lon="-1.55009393580257892608642578125">
        <ele>541</ele>
        <time>2020-08-22T14:29:53.000Z</time>
      </trkpt>
      <trkpt lat="43.2164817117154598236083984375" lon="-1.550122685730457305908203125">
        <ele>540</ele>
        <time>2020-08-22T14:29:56.000Z</time>
      </trkpt>
      <trkpt lat="43.21648833341896533966064453125" lon="-1.5501325763761997222900390625">
        <ele>540</ele>
        <time>2020-08-22T14:29:57.000Z</time>
      </trkpt>
      <trkpt lat="43.21651549078524112701416015625" lon="-1.5501862205564975738525390625">
        <ele>539.5999755859375</ele>
        <time>2020-08-22T14:30:02.000Z</time>
      </trkpt>
      <trkpt lat="43.21652538143098354339599609375" lon="-1.55019619502127170562744140625">
        <ele>539.20001220703125</ele>
        <time>2020-08-22T14:30:03.000Z</time>
      </trkpt>
      <trkpt lat="43.21653611026704311370849609375" lon="-1.55020415782928466796875">
        <ele>539</ele>
        <time>2020-08-22T14:30:04.000Z</time>
      </trkpt>
      <trkpt lat="43.21657977998256683349609375" lon="-1.5502631664276123046875">
        <ele>538</ele>
        <time>2020-08-22T14:30:09.000Z</time>
      </trkpt>
      <trkpt lat="43.216585814952850341796875" lon="-1.5502787567675113677978515625">
        <ele>537.5999755859375</ele>
        <time>2020-08-22T14:30:10.000Z</time>
      </trkpt>
      <trkpt lat="43.21662529371678829193115234375" lon="-1.55034430325031280517578125">
        <ele>536.5999755859375</ele>
        <time>2020-08-22T14:30:15.000Z</time>
      </trkpt>
      <trkpt lat="43.2166503556072711944580078125" lon="-1.5503826923668384552001953125">
        <ele>536</ele>
        <time>2020-08-22T14:30:18.000Z</time>
      </trkpt>
      <trkpt lat="43.2166671194136142730712890625" lon="-1.550404988229274749755859375">
        <ele>535.20001220703125</ele>
        <time>2020-08-22T14:30:20.000Z</time>
      </trkpt>
      <trkpt lat="43.2166922651231288909912109375" lon="-1.55046793632209300994873046875">
        <ele>534.5999755859375</ele>
        <time>2020-08-22T14:30:25.000Z</time>
      </trkpt>
      <trkpt lat="43.2167127169668674468994140625" lon="-1.55051604844629764556884765625">
        <ele>534.20001220703125</ele>
        <time>2020-08-22T14:30:28.000Z</time>
      </trkpt>
      <trkpt lat="43.21673937141895294189453125" lon="-1.55057773925364017486572265625">
        <ele>533.79998779296875</ele>
        <time>2020-08-22T14:30:32.000Z</time>
      </trkpt>
      <trkpt lat="43.216743730008602142333984375" lon="-1.55061830766499042510986328125">
        <ele>533.20001220703125</ele>
        <time>2020-08-22T14:30:34.000Z</time>
      </trkpt>
      <trkpt lat="43.21678874082863330841064453125" lon="-1.5507058985531330108642578125">
        <ele>532.79998779296875</ele>
        <time>2020-08-22T14:30:40.000Z</time>
      </trkpt>
      <trkpt lat="43.2168206758797168731689453125" lon="-1.5507618896663188934326171875">
        <ele>532</ele>
        <time>2020-08-22T14:30:44.000Z</time>
      </trkpt>
      <trkpt lat="43.21684372611343860626220703125" lon="-1.55080338008701801300048828125">
        <ele>531.4000244140625</ele>
        <time>2020-08-22T14:30:47.000Z</time>
      </trkpt>
      <trkpt lat="43.2168702967464923858642578125" lon="-1.550862975418567657470703125">
        <ele>531</ele>
        <time>2020-08-22T14:30:51.000Z</time>
      </trkpt>
      <trkpt lat="43.2168853841722011566162109375" lon="-1.5508849360048770904541015625">
        <ele>531</ele>
        <time>2020-08-22T14:30:53.000Z</time>
      </trkpt>
      <trkpt lat="43.21688915602862834930419921875" lon="-1.55089591629803180694580078125">
        <ele>531</ele>
        <time>2020-08-22T14:30:54.000Z</time>
      </trkpt>
      <trkpt lat="43.21689250878989696502685546875" lon="-1.55094109475612640380859375">
        <ele>530</ele>
        <time>2020-08-22T14:31:00.000Z</time>
      </trkpt>
      <trkpt lat="43.21688957512378692626953125" lon="-1.55097286216914653778076171875">
        <ele>529.5999755859375</ele>
        <time>2020-08-22T14:31:02.000Z</time>
      </trkpt>
      <trkpt lat="43.21686367504298686981201171875" lon="-1.55110739171504974365234375">
        <ele>529</ele>
        <time>2020-08-22T14:31:10.000Z</time>
      </trkpt>
      <trkpt lat="43.216861747205257415771484375" lon="-1.5511223115026950836181640625">
        <ele>528.79998779296875</ele>
        <time>2020-08-22T14:31:11.000Z</time>
      </trkpt>
      <trkpt lat="43.216847665607929229736328125" lon="-1.5511937253177165985107421875">
        <ele>528</ele>
        <time>2020-08-22T14:31:16.000Z</time>
      </trkpt>
      <trkpt lat="43.216831572353839874267578125" lon="-1.55125030316412448883056640625">
        <ele>526.79998779296875</ele>
        <time>2020-08-22T14:31:20.000Z</time>
      </trkpt>
      <trkpt lat="43.21682780049741268157958984375" lon="-1.55126488767564296722412109375">
        <ele>526.5999755859375</ele>
        <time>2020-08-22T14:31:21.000Z</time>
      </trkpt>
      <trkpt lat="43.21682847104966640472412109375" lon="-1.55129372142255306243896484375">
        <ele>526.4000244140625</ele>
        <time>2020-08-22T14:31:26.000Z</time>
      </trkpt>
      <trkpt lat="43.2168285548686981201171875" lon="-1.5512949787080287933349609375">
        <ele>526</ele>
        <time>2020-08-22T14:31:47.000Z</time>
      </trkpt>
      <trkpt lat="43.2168290577828884124755859375" lon="-1.551295481622219085693359375">
        <ele>526</ele>
        <time>2020-08-22T14:32:04.000Z</time>
      </trkpt>
      <trkpt lat="43.21682914160192012786865234375" lon="-1.55129514634609222412109375">
        <ele>526</ele>
        <time>2020-08-22T14:32:24.000Z</time>
      </trkpt>
      <trkpt lat="43.216812796890735626220703125" lon="-1.55131735838949680328369140625">
        <ele>526</ele>
        <time>2020-08-22T14:33:24.000Z</time>
      </trkpt>
      <trkpt lat="43.216810114681720733642578125" lon="-1.55132196843624114990234375">
        <ele>526</ele>
        <time>2020-08-22T14:33:25.000Z</time>
      </trkpt>
      <trkpt lat="43.21680902503430843353271484375" lon="-1.55132465064525604248046875">
        <ele>525.79998779296875</ele>
        <time>2020-08-22T14:33:37.000Z</time>
      </trkpt>
      <trkpt lat="43.216808773577213287353515625" lon="-1.5513271652162075042724609375">
        <ele>525.5999755859375</ele>
        <time>2020-08-22T14:34:06.000Z</time>
      </trkpt>
      <trkpt lat="43.2168089412152767181396484375" lon="-1.551328003406524658203125">
        <ele>525.5999755859375</ele>
        <time>2020-08-22T14:34:30.000Z</time>
      </trkpt>
      <trkpt lat="43.21681070141494274139404296875" lon="-1.551329009234905242919921875">
        <ele>525.4000244140625</ele>
        <time>2020-08-22T14:35:10.000Z</time>
      </trkpt>
      <trkpt lat="43.21681179106235504150390625" lon="-1.5513392351567745208740234375">
        <ele>525.5999755859375</ele>
        <time>2020-08-22T14:35:14.000Z</time>
      </trkpt>
      <trkpt lat="43.21681824512779712677001953125" lon="-1.5513730980455875396728515625">
        <ele>525.5999755859375</ele>
        <time>2020-08-22T14:35:16.000Z</time>
      </trkpt>
      <trkpt lat="43.21684121154248714447021484375" lon="-1.551481895148754119873046875">
        <ele>525.4000244140625</ele>
        <time>2020-08-22T14:35:21.000Z</time>
      </trkpt>
      <trkpt lat="43.21681858040392398834228515625" lon="-1.551525481045246124267578125">
        <ele>525.4000244140625</ele>
        <time>2020-08-22T14:35:23.000Z</time>
      </trkpt>
      <trkpt lat="43.21677700616419315338134765625" lon="-1.55162748880684375762939453125">
        <ele>525.4000244140625</ele>
        <time>2020-08-22T14:35:27.000Z</time>
      </trkpt>
      <trkpt lat="43.21668011136353015899658203125" lon="-1.551924459636211395263671875">
        <ele>525.20001220703125</ele>
        <time>2020-08-22T14:35:38.000Z</time>
      </trkpt>
      <trkpt lat="43.21662378497421741485595703125" lon="-1.55214984901249408721923828125">
        <ele>525.20001220703125</ele>
        <time>2020-08-22T14:35:45.000Z</time>
      </trkpt>
      <trkpt lat="43.21661406196653842926025390625" lon="-1.55218739993870258331298828125">
        <ele>525</ele>
        <time>2020-08-22T14:35:46.000Z</time>
      </trkpt>
      <trkpt lat="43.2165413908660411834716796875" lon="-1.55244522728025913238525390625">
        <ele>524.20001220703125</ele>
        <time>2020-08-22T14:35:52.000Z</time>
      </trkpt>
      <trkpt lat="43.21650065481662750244140625" lon="-1.552601717412471771240234375">
        <ele>524.20001220703125</ele>
        <time>2020-08-22T14:35:55.000Z</time>
      </trkpt>
      <trkpt lat="43.21644323877990245819091796875" lon="-1.55285024084150791168212890625">
        <ele>524</ele>
        <time>2020-08-22T14:35:59.000Z</time>
      </trkpt>
      <trkpt lat="43.21634508669376373291015625" lon="-1.55318987555801868438720703125">
        <ele>523</ele>
        <time>2020-08-22T14:36:04.000Z</time>
      </trkpt>
      <trkpt lat="43.2163130678236484527587890625" lon="-1.5532573498785495758056640625">
        <ele>522.5999755859375</ele>
        <time>2020-08-22T14:36:05.000Z</time>
      </trkpt>
      <trkpt lat="43.21618641726672649383544921875" lon="-1.55344233848154544830322265625">
        <ele>521.79998779296875</ele>
        <time>2020-08-22T14:36:08.000Z</time>
      </trkpt>
      <trkpt lat="43.21613721549510955810546875" lon="-1.55349858105182647705078125">
        <ele>521.5999755859375</ele>
        <time>2020-08-22T14:36:09.000Z</time>
      </trkpt>
      <trkpt lat="43.2160855829715728759765625" lon="-1.55355381779372692108154296875">
        <ele>521.4000244140625</ele>
        <time>2020-08-22T14:36:10.000Z</time>
      </trkpt>
      <trkpt lat="43.215868659317493438720703125" lon="-1.55373939312994480133056640625">
        <ele>520.79998779296875</ele>
        <time>2020-08-22T14:36:14.000Z</time>
      </trkpt>
      <trkpt lat="43.2157637178897857666015625" lon="-1.55381684191524982452392578125">
        <ele>520.5999755859375</ele>
        <time>2020-08-22T14:36:16.000Z</time>
      </trkpt>
      <trkpt lat="43.21553380228579044342041015625" lon="-1.55403493903577327728271484375">
        <ele>520.20001220703125</ele>
        <time>2020-08-22T14:36:21.000Z</time>
      </trkpt>
      <trkpt lat="43.21549776010215282440185546875" lon="-1.554087661206722259521484375">
        <ele>520.4000244140625</ele>
        <time>2020-08-22T14:36:22.000Z</time>
      </trkpt>
      <trkpt lat="43.21537815034389495849609375" lon="-1.55437432229518890380859375">
        <ele>520.20001220703125</ele>
        <time>2020-08-22T14:36:27.000Z</time>
      </trkpt>
      <trkpt lat="43.21537571959197521209716796875" lon="-1.5546852909028530120849609375">
        <ele>519.79998779296875</ele>
        <time>2020-08-22T14:36:32.000Z</time>
      </trkpt>
      <trkpt lat="43.215401954948902130126953125" lon="-1.55480439774692058563232421875">
        <ele>519.5999755859375</ele>
        <time>2020-08-22T14:36:34.000Z</time>
      </trkpt>
      <trkpt lat="43.215473704040050506591796875" lon="-1.5550366602838039398193359375">
        <ele>519.5999755859375</ele>
        <time>2020-08-22T14:36:38.000Z</time>
      </trkpt>
      <trkpt lat="43.21548879146575927734375" lon="-1.55509541742503643035888671875">
        <ele>519.4000244140625</ele>
        <time>2020-08-22T14:36:39.000Z</time>
      </trkpt>
      <trkpt lat="43.2154892943799495697021484375" lon="-1.55530035495758056640625">
        <ele>519.20001220703125</ele>
        <time>2020-08-22T14:36:42.000Z</time>
      </trkpt>
      <trkpt lat="43.2154460437595844268798828125" lon="-1.555437147617340087890625">
        <ele>518.5999755859375</ele>
        <time>2020-08-22T14:36:44.000Z</time>
      </trkpt>
      <trkpt lat="43.215377815067768096923828125" lon="-1.5555580146610736846923828125">
        <ele>518.20001220703125</ele>
        <time>2020-08-22T14:36:46.000Z</time>
      </trkpt>
      <trkpt lat="43.2153426110744476318359375" lon="-1.55561861582100391387939453125">
        <ele>518.20001220703125</ele>
        <time>2020-08-22T14:36:47.000Z</time>
      </trkpt>
      <trkpt lat="43.21527396328747272491455078125" lon="-1.55584459193050861358642578125">
        <ele>517.79998779296875</ele>
        <time>2020-08-22T14:36:50.000Z</time>
      </trkpt>
      <trkpt lat="43.2152569480240345001220703125" lon="-1.55601449310779571533203125">
        <ele>517.79998779296875</ele>
        <time>2020-08-22T14:36:52.000Z</time>
      </trkpt>
      <trkpt lat="43.2152240909636020660400390625" lon="-1.55636477284133434295654296875">
        <ele>517.20001220703125</ele>
        <time>2020-08-22T14:36:56.000Z</time>
      </trkpt>
      <trkpt lat="43.21518410928547382354736328125" lon="-1.556632407009601593017578125">
        <ele>516.4000244140625</ele>
        <time>2020-08-22T14:36:59.000Z</time>
      </trkpt>
      <trkpt lat="43.21515150368213653564453125" lon="-1.55671463347971439361572265625">
        <ele>516.20001220703125</ele>
        <time>2020-08-22T14:37:00.000Z</time>
      </trkpt>
      <trkpt lat="43.21499836631119251251220703125" lon="-1.55688629485666751861572265625">
        <ele>515.5999755859375</ele>
        <time>2020-08-22T14:37:03.000Z</time>
      </trkpt>
      <trkpt lat="43.2149429619312286376953125" lon="-1.55692585743963718414306640625">
        <ele>515</ele>
        <time>2020-08-22T14:37:04.000Z</time>
      </trkpt>
      <trkpt lat="43.2148445583879947662353515625" lon="-1.55700749717652797698974609375">
        <ele>514.4000244140625</ele>
        <time>2020-08-22T14:37:06.000Z</time>
      </trkpt>
      <trkpt lat="43.21477306075394153594970703125" lon="-1.5571160428225994110107421875">
        <ele>514</ele>
        <time>2020-08-22T14:37:08.000Z</time>
      </trkpt>
      <trkpt lat="43.21470466442406177520751953125" lon="-1.55740932561457157135009765625">
        <ele>513.20001220703125</ele>
        <time>2020-08-22T14:37:12.000Z</time>
      </trkpt>
      <trkpt lat="43.21469913236796855926513671875" lon="-1.55757411383092403411865234375">
        <ele>513</ele>
        <time>2020-08-22T14:37:14.000Z</time>
      </trkpt>
      <trkpt lat="43.2147017307579517364501953125" lon="-1.5576581843197345733642578125">
        <ele>513</ele>
        <time>2020-08-22T14:37:15.000Z</time>
      </trkpt>
      <trkpt lat="43.21470634080469608306884765625" lon="-1.55782339163124561309814453125">
        <ele>512.79998779296875</ele>
        <time>2020-08-22T14:37:17.000Z</time>
      </trkpt>
      <trkpt lat="43.214694522321224212646484375" lon="-1.55811089091002941131591796875">
        <ele>512.5999755859375</ele>
        <time>2020-08-22T14:37:21.000Z</time>
      </trkpt>
      <trkpt lat="43.2145988009870052337646484375" lon="-1.558241732418537139892578125">
        <ele>512.20001220703125</ele>
        <time>2020-08-22T14:37:24.000Z</time>
      </trkpt>
      <trkpt lat="43.2144693844020366668701171875" lon="-1.55828825198113918304443359375">
        <ele>512.4000244140625</ele>
        <time>2020-08-22T14:37:27.000Z</time>
      </trkpt>
      <trkpt lat="43.21439235471189022064208984375" lon="-1.55831004492938518524169921875">
        <ele>512.4000244140625</ele>
        <time>2020-08-22T14:37:29.000Z</time>
      </trkpt>
      <trkpt lat="43.21425556205213069915771484375" lon="-1.5583807043731212615966796875">
        <ele>512</ele>
        <time>2020-08-22T14:37:33.000Z</time>
      </trkpt>
      <trkpt lat="43.21419286541640758514404296875" lon="-1.5584407187998294830322265625">
        <ele>512</ele>
        <time>2020-08-22T14:37:35.000Z</time>
      </trkpt>
      <trkpt lat="43.21394526399672031402587890625" lon="-1.55876836739480495452880859375">
        <ele>511</ele>
        <time>2020-08-22T14:37:43.000Z</time>
      </trkpt>
      <trkpt lat="43.213722221553325653076171875" lon="-1.55908268876373767852783203125">
        <ele>510</ele>
        <time>2020-08-22T14:37:50.000Z</time>
      </trkpt>
      <trkpt lat="43.213675282895565032958984375" lon="-1.559178493916988372802734375">
        <ele>510</ele>
        <time>2020-08-22T14:37:52.000Z</time>
      </trkpt>
      <trkpt lat="43.21355634368956089019775390625" lon="-1.559454761445522308349609375">
        <ele>510</ele>
        <time>2020-08-22T14:37:58.000Z</time>
      </trkpt>
      <trkpt lat="43.21341586299240589141845703125" lon="-1.559839658439159393310546875">
        <ele>509.79998779296875</ele>
        <time>2020-08-22T14:38:07.000Z</time>
      </trkpt>
      <trkpt lat="43.21329616941511631011962890625" lon="-1.5602408163249492645263671875">
        <ele>509.79998779296875</ele>
        <time>2020-08-22T14:38:16.000Z</time>
      </trkpt>
      <trkpt lat="43.2132295332849025726318359375" lon="-1.56056444160640239715576171875">
        <ele>509.399993896484375</ele>
        <time>2020-08-22T14:38:23.000Z</time>
      </trkpt>
      <trkpt lat="43.2132151164114475250244140625" lon="-1.56076862476766109466552734375">
        <ele>509.20001220703125</ele>
        <time>2020-08-22T14:38:28.000Z</time>
      </trkpt>
      <trkpt lat="43.21322643198072910308837890625" lon="-1.560817994177341461181640625">
        <ele>509</ele>
        <time>2020-08-22T14:38:32.000Z</time>
      </trkpt>
      <trkpt lat="43.21322710253298282623291015625" lon="-1.5608174912631511688232421875">
        <ele>508.79998779296875</ele>
        <time>2020-08-22T14:38:33.000Z</time>
      </trkpt>
      <trkpt lat="43.213228695094585418701171875" lon="-1.5608136355876922607421875">
        <ele>508.600006103515625</ele>
        <time>2020-08-22T14:39:01.000Z</time>
      </trkpt>
      <trkpt lat="43.2132345624268054962158203125" lon="-1.56082964502274990081787109375">
        <ele>508.600006103515625</ele>
        <time>2020-08-22T14:39:13.000Z</time>
      </trkpt>
      <trkpt lat="43.213297091424465179443359375" lon="-1.5609931759536266326904296875">
        <ele>509.399993896484375</ele>
        <time>2020-08-22T14:39:22.000Z</time>
      </trkpt>
      <trkpt lat="43.21332768537104129791259765625" lon="-1.560993678867816925048828125">
        <ele>509.600006103515625</ele>
        <time>2020-08-22T14:39:27.000Z</time>
      </trkpt>
      <trkpt lat="43.2133390009403228759765625" lon="-1.56098269857466220855712890625">
        <ele>509.79998779296875</ele>
        <time>2020-08-22T14:39:40.000Z</time>
      </trkpt>
      <trkpt lat="43.21336355991661548614501953125" lon="-1.56092352233827114105224609375">
        <ele>510.399993896484375</ele>
        <time>2020-08-22T14:39:45.000Z</time>
      </trkpt>
      <trkpt lat="43.21337093599140644073486328125" lon="-1.560889743268489837646484375">
        <ele>510.79998779296875</ele>
        <time>2020-08-22T14:39:49.000Z</time>
      </trkpt>
      <trkpt lat="43.21337579749524593353271484375" lon="-1.56084238551557064056396484375">
        <ele>511.399993896484375</ele>
        <time>2020-08-22T14:39:55.000Z</time>
      </trkpt>
      <trkpt lat="43.21338015608489513397216796875" lon="-1.56081497669219970703125">
        <ele>512</ele>
        <time>2020-08-22T14:39:58.000Z</time>
      </trkpt>
      <trkpt lat="43.2133897952735424041748046875" lon="-1.5607728995382785797119140625">
        <ele>512.4000244140625</ele>
        <time>2020-08-22T14:40:01.000Z</time>
      </trkpt>
      <trkpt lat="43.2134092412889003753662109375" lon="-1.56069100834429264068603515625">
        <ele>512.79998779296875</ele>
        <time>2020-08-22T14:40:08.000Z</time>
      </trkpt>
      <trkpt lat="43.21342307142913341522216796875" lon="-1.56062143854796886444091796875">
        <ele>513.4000244140625</ele>
        <time>2020-08-22T14:40:14.000Z</time>
      </trkpt>
      <trkpt lat="43.2134327106177806854248046875" lon="-1.5605807863175868988037109375">
        <ele>514.20001220703125</ele>
        <time>2020-08-22T14:40:19.000Z</time>
      </trkpt>
      <trkpt lat="43.2134333811700344085693359375" lon="-1.56057634390890598297119140625">
        <ele>514.20001220703125</ele>
        <time>2020-08-22T14:40:26.000Z</time>
      </trkpt>
      <trkpt lat="43.21345777250826358795166015625" lon="-1.560512892901897430419921875">
        <ele>514.4000244140625</ele>
        <time>2020-08-22T14:40:31.000Z</time>
      </trkpt>
      <trkpt lat="43.21346531622111797332763671875" lon="-1.56049302779138088226318359375">
        <ele>514.5999755859375</ele>
        <time>2020-08-22T14:40:32.000Z</time>
      </trkpt>
      <trkpt lat="43.2135272584855556488037109375" lon="-1.56033209525048732757568359375">
        <ele>515.20001220703125</ele>
        <time>2020-08-22T14:40:40.000Z</time>
      </trkpt>
      <trkpt lat="43.21357713080942630767822265625" lon="-1.5602424927055835723876953125">
        <ele>515.79998779296875</ele>
        <time>2020-08-22T14:40:45.000Z</time>
      </trkpt>
      <trkpt lat="43.213614262640476226806640625" lon="-1.56019739806652069091796875">
        <ele>516.20001220703125</ele>
        <time>2020-08-22T14:40:48.000Z</time>
      </trkpt>
      <trkpt lat="43.21366019546985626220703125" lon="-1.56013998202979564666748046875">
        <ele>516.79998779296875</ele>
        <time>2020-08-22T14:40:52.000Z</time>
      </trkpt>
      <trkpt lat="43.21371761150658130645751953125" lon="-1.5600989945232868194580078125">
        <ele>517.20001220703125</ele>
        <time>2020-08-22T14:40:56.000Z</time>
      </trkpt>
      <trkpt lat="43.2137760333716869354248046875" lon="-1.560077704489231109619140625">
        <ele>517.79998779296875</ele>
        <time>2020-08-22T14:41:00.000Z</time>
      </trkpt>
      <trkpt lat="43.21378919295966625213623046875" lon="-1.56008541584014892578125">
        <ele>518</ele>
        <time>2020-08-22T14:41:01.000Z</time>
      </trkpt>
      <trkpt lat="43.21380109526216983795166015625" lon="-1.560096479952335357666015625">
        <ele>518.20001220703125</ele>
        <time>2020-08-22T14:41:02.000Z</time>
      </trkpt>
      <trkpt lat="43.2138199545443058013916015625" lon="-1.5601472742855548858642578125">
        <ele>518.5999755859375</ele>
        <time>2020-08-22T14:41:05.000Z</time>
      </trkpt>
      <trkpt lat="43.21382691152393817901611328125" lon="-1.5601831488311290740966796875">
        <ele>519</ele>
        <time>2020-08-22T14:41:07.000Z</time>
      </trkpt>
      <trkpt lat="43.21382582187652587890625" lon="-1.56020066700875759124755859375">
        <ele>519</ele>
        <time>2020-08-22T14:41:08.000Z</time>
      </trkpt>
      <trkpt lat="43.21382741443812847137451171875" lon="-1.56026487238705158233642578125">
        <ele>519.4000244140625</ele>
        <time>2020-08-22T14:41:11.000Z</time>
      </trkpt>
      <trkpt lat="43.21384753100574016571044921875" lon="-1.56032203696668148040771484375">
        <ele>520</ele>
        <time>2020-08-22T14:41:14.000Z</time>
      </trkpt>
      <trkpt lat="43.21385155431926250457763671875" lon="-1.56034148298203945159912109375">
        <ele>520.20001220703125</ele>
        <time>2020-08-22T14:41:15.000Z</time>
      </trkpt>
      <trkpt lat="43.213863708078861236572265625" lon="-1.56044575385749340057373046875">
        <ele>521.20001220703125</ele>
        <time>2020-08-22T14:41:20.000Z</time>
      </trkpt>
      <trkpt lat="43.2138735987246036529541015625" lon="-1.56052085570991039276123046875">
        <ele>522</ele>
        <time>2020-08-22T14:41:24.000Z</time>
      </trkpt>
      <trkpt lat="43.213879130780696868896484375" lon="-1.56055991537868976593017578125">
        <ele>522.4000244140625</ele>
        <time>2020-08-22T14:41:26.000Z</time>
      </trkpt>
      <trkpt lat="43.21388927288353443145751953125" lon="-1.5606578998267650604248046875">
        <ele>523.79998779296875</ele>
        <time>2020-08-22T14:41:32.000Z</time>
      </trkpt>
      <trkpt lat="43.213891200721263885498046875" lon="-1.56067323870956897735595703125">
        <ele>524</ele>
        <time>2020-08-22T14:41:33.000Z</time>
      </trkpt>
      <trkpt lat="43.21389731951057910919189453125" lon="-1.5607799403369426727294921875">
        <ele>524.79998779296875</ele>
        <time>2020-08-22T14:41:40.000Z</time>
      </trkpt>
      <trkpt lat="43.213912658393383026123046875" lon="-1.56088513322174549102783203125">
        <ele>525.4000244140625</ele>
        <time>2020-08-22T14:41:47.000Z</time>
      </trkpt>
      <trkpt lat="43.213925398886203765869140625" lon="-1.56093726865947246551513671875">
        <ele>526</ele>
        <time>2020-08-22T14:41:50.000Z</time>
      </trkpt>
      <trkpt lat="43.21395180188119411468505859375" lon="-1.5610357560217380523681640625">
        <ele>526.5999755859375</ele>
        <time>2020-08-22T14:41:56.000Z</time>
      </trkpt>
      <trkpt lat="43.21396672166883945465087890625" lon="-1.5610810182988643646240234375">
        <ele>527</ele>
        <time>2020-08-22T14:41:59.000Z</time>
      </trkpt>
      <trkpt lat="43.2140150852501392364501953125" lon="-1.56121521256864070892333984375">
        <ele>528.20001220703125</ele>
        <time>2020-08-22T14:42:07.000Z</time>
      </trkpt>
      <trkpt lat="43.2140217907726764678955078125" lon="-1.5612305514514446258544921875">
        <ele>528.4000244140625</ele>
        <time>2020-08-22T14:42:08.000Z</time>
      </trkpt>
      <trkpt lat="43.21407099254429340362548828125" lon="-1.5613592974841594696044921875">
        <ele>529.4000244140625</ele>
        <time>2020-08-22T14:42:16.000Z</time>
      </trkpt>
      <trkpt lat="43.21414072997868061065673828125" lon="-1.56155115924775600433349609375">
        <ele>530.5999755859375</ele>
        <time>2020-08-22T14:42:27.000Z</time>
      </trkpt>
      <trkpt lat="43.21419303305447101593017578125" lon="-1.5617281012237071990966796875">
        <ele>531.20001220703125</ele>
        <time>2020-08-22T14:42:36.000Z</time>
      </trkpt>
      <trkpt lat="43.214189596474170684814453125" lon="-1.561793647706508636474609375">
        <ele>531.5999755859375</ele>
        <time>2020-08-22T14:42:39.000Z</time>
      </trkpt>
      <trkpt lat="43.21416956372559070587158203125" lon="-1.56190705485641956329345703125">
        <ele>532.20001220703125</ele>
        <time>2020-08-22T14:42:45.000Z</time>
      </trkpt>
      <trkpt lat="43.21415372192859649658203125" lon="-1.56195751391351222991943359375">
        <ele>532.79998779296875</ele>
        <time>2020-08-22T14:42:48.000Z</time>
      </trkpt>
      <trkpt lat="43.2141455076634883880615234375" lon="-1.562040410935878753662109375">
        <ele>533.5999755859375</ele>
        <time>2020-08-22T14:42:53.000Z</time>
      </trkpt>
      <trkpt lat="43.2141414843499660491943359375" lon="-1.5620717592537403106689453125">
        <ele>534</ele>
        <time>2020-08-22T14:42:55.000Z</time>
      </trkpt>
      <trkpt lat="43.2141208648681640625" lon="-1.56216303817927837371826171875">
        <ele>535</ele>
        <time>2020-08-22T14:43:01.000Z</time>
      </trkpt>
      <trkpt lat="43.2141163386404514312744140625" lon="-1.56217862851917743682861328125">
        <ele>535.20001220703125</ele>
        <time>2020-08-22T14:43:02.000Z</time>
      </trkpt>
      <trkpt lat="43.2140898518264293670654296875" lon="-1.56226898543536663055419921875">
        <ele>536.20001220703125</ele>
        <time>2020-08-22T14:43:08.000Z</time>
      </trkpt>
      <trkpt lat="43.21406831033527851104736328125" lon="-1.562346853315830230712890625">
        <ele>537</ele>
        <time>2020-08-22T14:43:13.000Z</time>
      </trkpt>
      <trkpt lat="43.214060179889202117919921875" lon="-1.5623773634433746337890625">
        <ele>537.79998779296875</ele>
        <time>2020-08-22T14:43:15.000Z</time>
      </trkpt>
      <trkpt lat="43.21402673609554767608642578125" lon="-1.5624690614640712738037109375">
        <ele>538.79998779296875</ele>
        <time>2020-08-22T14:43:21.000Z</time>
      </trkpt>
      <trkpt lat="43.21401265449821949005126953125" lon="-1.562497057020664215087890625">
        <ele>539.20001220703125</ele>
        <time>2020-08-22T14:43:23.000Z</time>
      </trkpt>
      <trkpt lat="43.21398650296032428741455078125" lon="-1.56255346722900867462158203125">
        <ele>540</ele>
        <time>2020-08-22T14:43:27.000Z</time>
      </trkpt>
      <trkpt lat="43.2139510475099086761474609375" lon="-1.5626366995275020599365234375">
        <ele>540.5999755859375</ele>
        <time>2020-08-22T14:43:32.000Z</time>
      </trkpt>
      <trkpt lat="43.21392975747585296630859375" lon="-1.5626938641071319580078125">
        <ele>541.20001220703125</ele>
        <time>2020-08-22T14:43:35.000Z</time>
      </trkpt>
      <trkpt lat="43.21391592733561992645263671875" lon="-1.5627708099782466888427734375">
        <ele>542.4000244140625</ele>
        <time>2020-08-22T14:43:39.000Z</time>
      </trkpt>
      <trkpt lat="43.2139111496508121490478515625" lon="-1.5628065168857574462890625">
        <ele>543</ele>
        <time>2020-08-22T14:43:41.000Z</time>
      </trkpt>
      <trkpt lat="43.21390570141375064849853515625" lon="-1.56290316022932529449462890625">
        <ele>543.5999755859375</ele>
        <time>2020-08-22T14:43:46.000Z</time>
      </trkpt>
      <trkpt lat="43.2139057852327823638916015625" lon="-1.56295412220060825347900390625">
        <ele>544.20001220703125</ele>
        <time>2020-08-22T14:43:49.000Z</time>
      </trkpt>
      <trkpt lat="43.21390972472727298736572265625" lon="-1.56302310526371002197265625">
        <ele>544.4000244140625</ele>
        <time>2020-08-22T14:43:54.000Z</time>
      </trkpt>
      <trkpt lat="43.21392841637134552001953125" lon="-1.5630547888576984405517578125">
        <ele>544.4000244140625</ele>
        <time>2020-08-22T14:43:56.000Z</time>
      </trkpt>
      <trkpt lat="43.2139607705175876617431640625" lon="-1.5630846284329891204833984375">
        <ele>544.4000244140625</ele>
        <time>2020-08-22T14:43:58.000Z</time>
      </trkpt>
      <trkpt lat="43.21405841968953609466552734375" lon="-1.563167273998260498046875">
        <ele>543.5999755859375</ele>
        <time>2020-08-22T14:44:02.000Z</time>
      </trkpt>
      <trkpt lat="43.2141515426337718963623046875" lon="-1.56326115131378173828125">
        <ele>542.4000244140625</ele>
        <time>2020-08-22T14:44:05.000Z</time>
      </trkpt>
      <trkpt lat="43.21426209993660449981689453125" lon="-1.5633957646787166595458984375">
        <ele>541.79998779296875</ele>
        <time>2020-08-22T14:44:09.000Z</time>
      </trkpt>
      <trkpt lat="43.21434239856898784637451171875" lon="-1.5635114349424839019775390625">
        <ele>541.20001220703125</ele>
        <time>2020-08-22T14:44:12.000Z</time>
      </trkpt>
      <trkpt lat="43.2144985534250736236572265625" lon="-1.56371419318020343780517578125">
        <ele>540</ele>
        <time>2020-08-22T14:44:17.000Z</time>
      </trkpt>
      <trkpt lat="43.214592598378658294677734375" lon="-1.56383690424263477325439453125">
        <ele>538.20001220703125</ele>
        <time>2020-08-22T14:44:20.000Z</time>
      </trkpt>
      <trkpt lat="43.21468882262706756591796875" lon="-1.56393899582326412200927734375">
        <ele>537</ele>
        <time>2020-08-22T14:44:23.000Z</time>
      </trkpt>
      <trkpt lat="43.21472226642072200775146484375" lon="-1.56396766193211078643798828125">
        <ele>536.5999755859375</ele>
        <time>2020-08-22T14:44:24.000Z</time>
      </trkpt>
      <trkpt lat="43.214789740741252899169921875" lon="-1.56402197666466236114501953125">
        <ele>535.20001220703125</ele>
        <time>2020-08-22T14:44:26.000Z</time>
      </trkpt>
      <trkpt lat="43.21485704742372035980224609375" lon="-1.56407184898853302001953125">
        <ele>533.5999755859375</ele>
        <time>2020-08-22T14:44:28.000Z</time>
      </trkpt>
      <trkpt lat="43.2149588875472545623779296875" lon="-1.5641417540609836578369140625">
        <ele>532.5999755859375</ele>
        <time>2020-08-22T14:44:31.000Z</time>
      </trkpt>
      <trkpt lat="43.21502937935292720794677734375" lon="-1.56418584287166595458984375">
        <ele>531.5999755859375</ele>
        <time>2020-08-22T14:44:33.000Z</time>
      </trkpt>
      <trkpt lat="43.215066008269786834716796875" lon="-1.56420654617249965667724609375">
        <ele>531</ele>
        <time>2020-08-22T14:44:34.000Z</time>
      </trkpt>
      <trkpt lat="43.2151038944721221923828125" lon="-1.56422381289303302764892578125">
        <ele>530</ele>
        <time>2020-08-22T14:44:35.000Z</time>
      </trkpt>
      <trkpt lat="43.21518142707645893096923828125" lon="-1.564253233373165130615234375">
        <ele>528.20001220703125</ele>
        <time>2020-08-22T14:44:37.000Z</time>
      </trkpt>
      <trkpt lat="43.21529089473187923431396484375" lon="-1.56428642570972442626953125">
        <ele>526.79998779296875</ele>
        <time>2020-08-22T14:44:40.000Z</time>
      </trkpt>
      <trkpt lat="43.2154430262744426727294921875" lon="-1.5642205439507961273193359375">
        <ele>525.20001220703125</ele>
        <time>2020-08-22T14:44:45.000Z</time>
      </trkpt>
      <trkpt lat="43.21550228632986545562744140625" lon="-1.56415189616382122039794921875">
        <ele>524</ele>
        <time>2020-08-22T14:44:47.000Z</time>
      </trkpt>
      <trkpt lat="43.21558199822902679443359375" lon="-1.56408467330038547515869140625">
        <ele>523</ele>
        <time>2020-08-22T14:44:49.000Z</time>
      </trkpt>
      <trkpt lat="43.2156254164874553680419921875" lon="-1.564063467085361480712890625">
        <ele>522.79998779296875</ele>
        <time>2020-08-22T14:44:50.000Z</time>
      </trkpt>
      <trkpt lat="43.21575709618628025054931640625" lon="-1.5640269219875335693359375">
        <ele>523.20001220703125</ele>
        <time>2020-08-22T14:44:54.000Z</time>
      </trkpt>
      <trkpt lat="43.2158138416707515716552734375" lon="-1.56405533663928508758544921875">
        <ele>524</ele>
        <time>2020-08-22T14:44:57.000Z</time>
      </trkpt>
      <trkpt lat="43.2158302702009677886962890625" lon="-1.564073860645294189453125">
        <ele>524</ele>
        <time>2020-08-22T14:44:58.000Z</time>
      </trkpt>
      <trkpt lat="43.21591593325138092041015625" lon="-1.5642124973237514495849609375">
        <ele>524.5999755859375</ele>
        <time>2020-08-22T14:45:05.000Z</time>
      </trkpt>
      <trkpt lat="43.2159513048827648162841796875" lon="-1.56426622532308101654052734375">
        <ele>525</ele>
        <time>2020-08-22T14:45:08.000Z</time>
      </trkpt>
      <trkpt lat="43.21602146141231060028076171875" lon="-1.56438390724360942840576171875">
        <ele>525.5999755859375</ele>
        <time>2020-08-22T14:45:14.000Z</time>
      </trkpt>
      <trkpt lat="43.21605750359594821929931640625" lon="-1.5644441731274127960205078125">
        <ele>526</ele>
        <time>2020-08-22T14:45:17.000Z</time>
      </trkpt>
      <trkpt lat="43.2161605171859264373779296875" lon="-1.5645585022866725921630859375">
        <ele>527</ele>
        <time>2020-08-22T14:45:24.000Z</time>
      </trkpt>
      <trkpt lat="43.2162131555378437042236328125" lon="-1.564587838947772979736328125">
        <ele>527</ele>
        <time>2020-08-22T14:45:27.000Z</time>
      </trkpt>
      <trkpt lat="43.21630644612014293670654296875" lon="-1.56461256556212902069091796875">
        <ele>527.79998779296875</ele>
        <time>2020-08-22T14:45:32.000Z</time>
      </trkpt>
      <trkpt lat="43.21634416468441486358642578125" lon="-1.56461625359952449798583984375">
        <ele>528.20001220703125</ele>
        <time>2020-08-22T14:45:34.000Z</time>
      </trkpt>
      <trkpt lat="43.21645581163465976715087890625" lon="-1.56463536433875560760498046875">
        <ele>528.79998779296875</ele>
        <time>2020-08-22T14:45:40.000Z</time>
      </trkpt>
      <trkpt lat="43.21656175889074802398681640625" lon="-1.5646523796021938323974609375">
        <ele>529.4000244140625</ele>
        <time>2020-08-22T14:45:46.000Z</time>
      </trkpt>
      <trkpt lat="43.2165977172553539276123046875" lon="-1.56465983949601650238037109375">
        <ele>530</ele>
        <time>2020-08-22T14:45:48.000Z</time>
      </trkpt>
      <trkpt lat="43.21668983437120914459228515625" lon="-1.56471080146729946136474609375">
        <ele>530.4000244140625</ele>
        <time>2020-08-22T14:45:54.000Z</time>
      </trkpt>
      <trkpt lat="43.21670441888272762298583984375" lon="-1.56471499241888523101806640625">
        <ele>530.5999755859375</ele>
        <time>2020-08-22T14:45:55.000Z</time>
      </trkpt>
      <trkpt lat="43.21681447327136993408203125" lon="-1.56477190554141998291015625">
        <ele>531.5999755859375</ele>
        <time>2020-08-22T14:46:04.000Z</time>
      </trkpt>
      <trkpt lat="43.21682729758322238922119140625" lon="-1.56477936543524265289306640625">
        <ele>531.4000244140625</ele>
        <time>2020-08-22T14:46:05.000Z</time>
      </trkpt>
      <trkpt lat="43.21692578494548797607421875" lon="-1.56481674872338771820068359375">
        <ele>532.5999755859375</ele>
        <time>2020-08-22T14:46:12.000Z</time>
      </trkpt>
      <trkpt lat="43.2169412076473236083984375" lon="-1.5648237057030200958251953125">
        <ele>532.79998779296875</ele>
        <time>2020-08-22T14:46:13.000Z</time>
      </trkpt>
      <trkpt lat="43.21705679409205913543701171875" lon="-1.564854718744754791259765625">
        <ele>533.4000244140625</ele>
        <time>2020-08-22T14:46:20.000Z</time>
      </trkpt>
      <trkpt lat="43.21715285070240497589111328125" lon="-1.564869470894336700439453125">
        <ele>533.79998779296875</ele>
        <time>2020-08-22T14:46:25.000Z</time>
      </trkpt>
      <trkpt lat="43.217239938676357269287109375" lon="-1.5648763440549373626708984375">
        <ele>533.79998779296875</ele>
        <time>2020-08-22T14:46:29.000Z</time>
      </trkpt>
      <trkpt lat="43.21742626838386058807373046875" lon="-1.56485849060118198394775390625">
        <ele>533.5999755859375</ele>
        <time>2020-08-22T14:46:37.000Z</time>
      </trkpt>
      <trkpt lat="43.2175981812179088592529296875" lon="-1.56480853445827960968017578125">
        <ele>533.20001220703125</ele>
        <time>2020-08-22T14:46:43.000Z</time>
      </trkpt>
      <trkpt lat="43.217622824013233184814453125" lon="-1.56479311175644397735595703125">
        <ele>532.79998779296875</ele>
        <time>2020-08-22T14:46:44.000Z</time>
      </trkpt>
      <trkpt lat="43.217697255313396453857421875" lon="-1.564685404300689697265625">
        <ele>531.5999755859375</ele>
        <time>2020-08-22T14:46:48.000Z</time>
      </trkpt>
      <trkpt lat="43.21772818453609943389892578125" lon="-1.5646084584295749664306640625">
        <ele>530.4000244140625</ele>
        <time>2020-08-22T14:46:50.000Z</time>
      </trkpt>
      <trkpt lat="43.21777068078517913818359375" lon="-1.56446185894310474395751953125">
        <ele>529.20001220703125</ele>
        <time>2020-08-22T14:46:53.000Z</time>
      </trkpt>
      <trkpt lat="43.21778182871639728546142578125" lon="-1.5644079633057117462158203125">
        <ele>528.79998779296875</ele>
        <time>2020-08-22T14:46:54.000Z</time>
      </trkpt>
      <trkpt lat="43.2177919708192348480224609375" lon="-1.5643536485731601715087890625">
        <ele>528.20001220703125</ele>
        <time>2020-08-22T14:46:55.000Z</time>
      </trkpt>
      <trkpt lat="43.2178209722042083740234375" lon="-1.56418140046298503875732421875">
        <ele>526.5999755859375</ele>
        <time>2020-08-22T14:46:58.000Z</time>
      </trkpt>
      <trkpt lat="43.21783882565796375274658203125" lon="-1.56406246125698089599609375">
        <ele>525.5999755859375</ele>
        <time>2020-08-22T14:47:00.000Z</time>
      </trkpt>
      <trkpt lat="43.2178593613207340240478515625" lon="-1.56394712626934051513671875">
        <ele>524.79998779296875</ele>
        <time>2020-08-22T14:47:02.000Z</time>
      </trkpt>
      <trkpt lat="43.2178932242095470428466796875" lon="-1.56380505301058292388916015625">
        <ele>524.5999755859375</ele>
        <time>2020-08-22T14:47:05.000Z</time>
      </trkpt>
      <trkpt lat="43.21794460527598857879638671875" lon="-1.5636934898793697357177734375">
        <ele>524.20001220703125</ele>
        <time>2020-08-22T14:47:08.000Z</time>
      </trkpt>
      <trkpt lat="43.21802490390837192535400390625" lon="-1.563575975596904754638671875">
        <ele>523.4000244140625</ele>
        <time>2020-08-22T14:47:11.000Z</time>
      </trkpt>
      <trkpt lat="43.2180772908031940460205078125" lon="-1.5634997002780437469482421875">
        <ele>523.20001220703125</ele>
        <time>2020-08-22T14:47:13.000Z</time>
      </trkpt>
      <trkpt lat="43.21810319088399410247802734375" lon="-1.56346432864665985107421875">
        <ele>523.20001220703125</ele>
        <time>2020-08-22T14:47:14.000Z</time>
      </trkpt>
      <trkpt lat="43.2182449288666248321533203125" lon="-1.5631992928683757781982421875">
        <ele>522.20001220703125</ele>
        <time>2020-08-22T14:47:20.000Z</time>
      </trkpt>
      <trkpt lat="43.21834358386695384979248046875" lon="-1.56298027373850345611572265625">
        <ele>522.79998779296875</ele>
        <time>2020-08-22T14:47:26.000Z</time>
      </trkpt>
      <trkpt lat="43.21842790581285953521728515625" lon="-1.56277910806238651275634765625">
        <ele>522.4000244140625</ele>
        <time>2020-08-22T14:47:32.000Z</time>
      </trkpt>
      <trkpt lat="43.2184807956218719482421875" lon="-1.5625441633164882659912109375">
        <ele>522.5999755859375</ele>
        <time>2020-08-22T14:47:39.000Z</time>
      </trkpt>
      <trkpt lat="43.218505941331386566162109375" lon="-1.56236998736858367919921875">
        <ele>521.79998779296875</ele>
        <time>2020-08-22T14:47:43.000Z</time>
      </trkpt>
      <trkpt lat="43.218526728451251983642578125" lon="-1.562330424785614013671875">
        <ele>521.5999755859375</ele>
        <time>2020-08-22T14:47:44.000Z</time>
      </trkpt>
      <trkpt lat="43.21857928298413753509521484375" lon="-1.5622967295348644256591796875">
        <ele>521.79998779296875</ele>
        <time>2020-08-22T14:47:46.000Z</time>
      </trkpt>
      <trkpt lat="43.21862320415675640106201171875" lon="-1.5623151697218418121337890625">
        <ele>522.20001220703125</ele>
        <time>2020-08-22T14:47:48.000Z</time>
      </trkpt>
      <trkpt lat="43.21865958161652088165283203125" lon="-1.5623559057712554931640625">
        <ele>522.79998779296875</ele>
        <time>2020-08-22T14:47:50.000Z</time>
      </trkpt>
      <trkpt lat="43.218711130321025848388671875" lon="-1.5624355338513851165771484375">
        <ele>523.4000244140625</ele>
        <time>2020-08-22T14:47:54.000Z</time>
      </trkpt>
      <trkpt lat="43.2187340967357158660888671875" lon="-1.56248607672750949859619140625">
        <ele>524</ele>
        <time>2020-08-22T14:47:56.000Z</time>
      </trkpt>
      <trkpt lat="43.21876049973070621490478515625" lon="-1.56253418885171413421630859375">
        <ele>524.4000244140625</ele>
        <time>2020-08-22T14:47:58.000Z</time>
      </trkpt>
      <trkpt lat="43.21886233985424041748046875" lon="-1.562650613486766815185546875">
        <ele>523.79998779296875</ele>
        <time>2020-08-22T14:48:02.000Z</time>
      </trkpt>
      <trkpt lat="43.21889586746692657470703125" lon="-1.5626809559762477874755859375">
        <ele>523.20001220703125</ele>
        <time>2020-08-22T14:48:03.000Z</time>
      </trkpt>
      <trkpt lat="43.21906459517776966094970703125" lon="-1.56279570423066616058349609375">
        <ele>522.20001220703125</ele>
        <time>2020-08-22T14:48:08.000Z</time>
      </trkpt>
      <trkpt lat="43.21908990852534770965576171875" lon="-1.56280861236155033111572265625">
        <ele>522</ele>
        <time>2020-08-22T14:48:09.000Z</time>
      </trkpt>
      <trkpt lat="43.2191444747149944305419921875" lon="-1.56282990239560604095458984375">
        <ele>520.5999755859375</ele>
        <time>2020-08-22T14:48:13.000Z</time>
      </trkpt>
      <trkpt lat="43.2191459834575653076171875" lon="-1.56283476389944553375244140625">
        <ele>519.5999755859375</ele>
        <time>2020-08-22T14:48:18.000Z</time>
      </trkpt>
      <trkpt lat="43.2191459834575653076171875" lon="-1.562835015356540679931640625">
        <ele>520</ele>
        <time>2020-08-22T14:48:27.000Z</time>
      </trkpt>
      <trkpt lat="43.21914606727659702301025390625" lon="-1.5628338418900966644287109375">
        <ele>519.79998779296875</ele>
        <time>2020-08-22T14:48:33.000Z</time>
      </trkpt>
      <trkpt lat="43.21914606727659702301025390625" lon="-1.56283392570912837982177734375">
        <ele>519.79998779296875</ele>
        <time>2020-08-22T14:48:35.000Z</time>
      </trkpt>
      <trkpt lat="43.21914640255272388458251953125" lon="-1.5628335066139698028564453125">
        <ele>519.5999755859375</ele>
        <time>2020-08-22T14:48:42.000Z</time>
      </trkpt>
      <trkpt lat="43.2191448099911212921142578125" lon="-1.56284482218325138092041015625">
        <ele>519.79998779296875</ele>
        <time>2020-08-22T14:48:47.000Z</time>
      </trkpt>
      <trkpt lat="43.21913667954504489898681640625" lon="-1.56284616328775882720947265625">
        <ele>520</ele>
        <time>2020-08-22T14:48:48.000Z</time>
      </trkpt>
      <trkpt lat="43.2191069237887859344482421875" lon="-1.56281498260796070098876953125">
        <ele>520.4000244140625</ele>
        <time>2020-08-22T14:48:56.000Z</time>
      </trkpt>
      <trkpt lat="43.21910114027559757232666015625" lon="-1.56279905699193477630615234375">
        <ele>520.5999755859375</ele>
        <time>2020-08-22T14:48:58.000Z</time>
      </trkpt>
      <trkpt lat="43.2191022299230098724365234375" lon="-1.5627728216350078582763671875">
        <ele>521</ele>
        <time>2020-08-22T14:49:01.000Z</time>
      </trkpt>
      <trkpt lat="43.21910767816007137298583984375" lon="-1.5627550520002841949462890625">
        <ele>521.20001220703125</ele>
        <time>2020-08-22T14:49:03.000Z</time>
      </trkpt>
      <trkpt lat="43.21913349442183971405029296875" lon="-1.562732756137847900390625">
        <ele>521.20001220703125</ele>
        <time>2020-08-22T14:49:11.000Z</time>
      </trkpt>
      <trkpt lat="43.2191733084619045257568359375" lon="-1.5627233684062957763671875">
        <ele>521.4000244140625</ele>
        <time>2020-08-22T14:49:20.000Z</time>
      </trkpt>
      <trkpt lat="43.21929912082850933074951171875" lon="-1.5626749210059642791748046875">
        <ele>521.79998779296875</ele>
        <time>2020-08-22T14:49:31.000Z</time>
      </trkpt>
      <trkpt lat="43.2193101011216640472412109375" lon="-1.56267131678760051727294921875">
        <ele>522</ele>
        <time>2020-08-22T14:49:32.000Z</time>
      </trkpt>
      <trkpt lat="43.21939115412533283233642578125" lon="-1.56264432705938816070556640625">
        <ele>523.4000244140625</ele>
        <time>2020-08-22T14:49:40.000Z</time>
      </trkpt>
      <trkpt lat="43.2194517552852630615234375" lon="-1.562636531889438629150390625">
        <ele>524.5999755859375</ele>
        <time>2020-08-22T14:49:48.000Z</time>
      </trkpt>
      <trkpt lat="43.21946374140679836273193359375" lon="-1.5626366995275020599365234375">
        <ele>524.79998779296875</ele>
        <time>2020-08-22T14:49:50.000Z</time>
      </trkpt>
      <trkpt lat="43.2194914855062961578369140625" lon="-1.5626212768256664276123046875">
        <ele>525.5999755859375</ele>
        <time>2020-08-22T14:49:56.000Z</time>
      </trkpt>
      <trkpt lat="43.2195136137306690216064453125" lon="-1.562609039247035980224609375">
        <ele>526</ele>
        <time>2020-08-22T14:50:00.000Z</time>
      </trkpt>
      <trkpt lat="43.219539262354373931884765625" lon="-1.5625919401645660400390625">
        <ele>526.5999755859375</ele>
        <time>2020-08-22T14:50:05.000Z</time>
      </trkpt>
      <trkpt lat="43.21956130675971508026123046875" lon="-1.5625662915408611297607421875">
        <ele>527.4000244140625</ele>
        <time>2020-08-22T14:50:09.000Z</time>
      </trkpt>
      <trkpt lat="43.21959064342081546783447265625" lon="-1.5625300817191600799560546875">
        <ele>527.79998779296875</ele>
        <time>2020-08-22T14:50:13.000Z</time>
      </trkpt>
      <trkpt lat="43.219631798565387725830078125" lon="-1.562503762543201446533203125">
        <ele>528.4000244140625</ele>
        <time>2020-08-22T14:50:18.000Z</time>
      </trkpt>
      <trkpt lat="43.2196631468832492828369140625" lon="-1.56247467733919620513916015625">
        <ele>528.79998779296875</ele>
        <time>2020-08-22T14:50:25.000Z</time>
      </trkpt>
      <trkpt lat="43.21966121904551982879638671875" lon="-1.56246897764503955841064453125">
        <ele>528.5999755859375</ele>
        <time>2020-08-22T14:50:37.000Z</time>
      </trkpt>
      <trkpt lat="43.21966297924518585205078125" lon="-1.562469564378261566162109375">
        <ele>528.5999755859375</ele>
        <time>2020-08-22T14:50:47.000Z</time>
      </trkpt>
      <trkpt lat="43.21966574527323246002197265625" lon="-1.56246830709278583526611328125">
        <ele>528.5999755859375</ele>
        <time>2020-08-22T14:50:55.000Z</time>
      </trkpt>
      <trkpt lat="43.21966557763516902923583984375" lon="-1.56246788799762725830078125">
        <ele>528.5999755859375</ele>
        <time>2020-08-22T14:51:12.000Z</time>
      </trkpt>
      <trkpt lat="43.21966155432164669036865234375" lon="-1.5624606795608997344970703125">
        <ele>528.79998779296875</ele>
        <time>2020-08-22T14:51:22.000Z</time>
      </trkpt>
      <trkpt lat="43.21965903975069522857666015625" lon="-1.5624626912176609039306640625">
        <ele>528.5999755859375</ele>
        <time>2020-08-22T14:51:34.000Z</time>
      </trkpt>
      <trkpt lat="43.219659626483917236328125" lon="-1.56246193684637546539306640625">
        <ele>528.79998779296875</ele>
        <time>2020-08-22T14:52:10.000Z</time>
      </trkpt>
      <trkpt lat="43.21965887211263179779052734375" lon="-1.562461517751216888427734375">
        <ele>529</ele>
        <time>2020-08-22T14:52:35.000Z</time>
      </trkpt>
      <trkpt lat="43.21966909803450107574462890625" lon="-1.56245221383869647979736328125">
        <ele>529</ele>
        <time>2020-08-22T14:52:52.000Z</time>
      </trkpt>
      <trkpt lat="43.21977722458541393280029296875" lon="-1.56241960823535919189453125">
        <ele>529.20001220703125</ele>
        <time>2020-08-22T14:52:59.000Z</time>
      </trkpt>
      <trkpt lat="43.219877891242504119873046875" lon="-1.562378704547882080078125">
        <ele>530</ele>
        <time>2020-08-22T14:53:05.000Z</time>
      </trkpt>
      <trkpt lat="43.21989364922046661376953125" lon="-1.56237191520631313323974609375">
        <ele>530.20001220703125</ele>
        <time>2020-08-22T14:53:06.000Z</time>
      </trkpt>
      <trkpt lat="43.21995391510426998138427734375" lon="-1.56234760768711566925048828125">
        <ele>530.79998779296875</ele>
        <time>2020-08-22T14:53:10.000Z</time>
      </trkpt>
      <trkpt lat="43.2199669070541858673095703125" lon="-1.562342159450054168701171875">
        <ele>530.5999755859375</ele>
        <time>2020-08-22T14:53:11.000Z</time>
      </trkpt>
      <trkpt lat="43.2200259156525135040283203125" lon="-1.5623238869011402130126953125">
        <ele>531</ele>
        <time>2020-08-22T14:53:15.000Z</time>
      </trkpt>
      <trkpt lat="43.22005332447588443756103515625" lon="-1.562322713434696197509765625">
        <ele>531.20001220703125</ele>
        <time>2020-08-22T14:53:17.000Z</time>
      </trkpt>
      <trkpt lat="43.2201459445059299468994140625" lon="-1.56234308145940303802490234375">
        <ele>532</ele>
        <time>2020-08-22T14:53:24.000Z</time>
      </trkpt>
      <trkpt lat="43.22016991674900054931640625" lon="-1.5623443387448787689208984375">
        <ele>532.20001220703125</ele>
        <time>2020-08-22T14:53:26.000Z</time>
      </trkpt>
      <trkpt lat="43.22021442465484142303466796875" lon="-1.56236018054187297821044921875">
        <ele>532.4000244140625</ele>
        <time>2020-08-22T14:53:30.000Z</time>
      </trkpt>
      <trkpt lat="43.22024242021143436431884765625" lon="-1.56237325631082057952880859375">
        <ele>532.79998779296875</ele>
        <time>2020-08-22T14:53:32.000Z</time>
      </trkpt>
      <trkpt lat="43.22032171301543712615966796875" lon="-1.56240485608577728271484375">
        <ele>533.4000244140625</ele>
        <time>2020-08-22T14:53:37.000Z</time>
      </trkpt>
      <trkpt lat="43.22038172744214534759521484375" lon="-1.56242991797626018524169921875">
        <ele>533.79998779296875</ele>
        <time>2020-08-22T14:53:41.000Z</time>
      </trkpt>
      <trkpt lat="43.2204778678715229034423828125" lon="-1.56246411614120006561279296875">
        <ele>534.20001220703125</ele>
        <time>2020-08-22T14:53:48.000Z</time>
      </trkpt>
      <trkpt lat="43.2205053605139255523681640625" lon="-1.56247065402567386627197265625">
        <ele>534.4000244140625</ele>
        <time>2020-08-22T14:53:50.000Z</time>
      </trkpt>
      <trkpt lat="43.22059898637235164642333984375" lon="-1.56249605119228363037109375">
        <ele>535</ele>
        <time>2020-08-22T14:53:56.000Z</time>
      </trkpt>
      <trkpt lat="43.220714740455150604248046875" lon="-1.56249965541064739227294921875">
        <ele>535.5999755859375</ele>
        <time>2020-08-22T14:54:03.000Z</time>
      </trkpt>
      <trkpt lat="43.22083921171724796295166015625" lon="-1.56249932013452053070068359375">
        <ele>536.4000244140625</ele>
        <time>2020-08-22T14:54:11.000Z</time>
      </trkpt>
      <trkpt lat="43.2209167443215847015380859375" lon="-1.56250015832483768463134765625">
        <ele>537</ele>
        <time>2020-08-22T14:54:16.000Z</time>
      </trkpt>
      <trkpt lat="43.2209623418748378753662109375" lon="-1.5624999068677425384521484375">
        <ele>537.4000244140625</ele>
        <time>2020-08-22T14:54:19.000Z</time>
      </trkpt>
      <trkpt lat="43.2210806943476200103759765625" lon="-1.5625032596290111541748046875">
        <ele>538</ele>
        <time>2020-08-22T14:54:26.000Z</time>
      </trkpt>
      <trkpt lat="43.221096284687519073486328125" lon="-1.562503091990947723388671875">
        <ele>538</ele>
        <time>2020-08-22T14:54:27.000Z</time>
      </trkpt>
      <trkpt lat="43.22122829966247081756591796875" lon="-1.5625025890767574310302734375">
        <ele>538.5999755859375</ele>
        <time>2020-08-22T14:54:35.000Z</time>
      </trkpt>
      <trkpt lat="43.22131815366446971893310546875" lon="-1.562500409781932830810546875">
        <ele>539.20001220703125</ele>
        <time>2020-08-22T14:54:41.000Z</time>
      </trkpt>
      <trkpt lat="43.22133374400436878204345703125" lon="-1.56250250525772571563720703125">
        <ele>539.4000244140625</ele>
        <time>2020-08-22T14:54:42.000Z</time>
      </trkpt>
      <trkpt lat="43.22150741703808307647705078125" lon="-1.56249697320163249969482421875">
        <ele>540</ele>
        <time>2020-08-22T14:54:52.000Z</time>
      </trkpt>
      <trkpt lat="43.22164404205977916717529296875" lon="-1.56249730847775936126708984375">
        <ele>540.5999755859375</ele>
        <time>2020-08-22T14:55:00.000Z</time>
      </trkpt>
      <trkpt lat="43.22186348028481006622314453125" lon="-1.56248507089912891387939453125">
        <ele>541.79998779296875</ele>
        <time>2020-08-22T14:55:12.000Z</time>
      </trkpt>
      <trkpt lat="43.22198434732854366302490234375" lon="-1.5624680556356906890869140625">
        <ele>542.5999755859375</ele>
        <time>2020-08-22T14:55:20.000Z</time>
      </trkpt>
      <trkpt lat="43.221999518573284149169921875" lon="-1.56246579252183437347412109375">
        <ele>542.79998779296875</ele>
        <time>2020-08-22T14:55:21.000Z</time>
      </trkpt>
      <trkpt lat="43.22209515608847141265869140625" lon="-1.56247065402567386627197265625">
        <ele>544</ele>
        <time>2020-08-22T14:55:27.000Z</time>
      </trkpt>
      <trkpt lat="43.2221250794827938079833984375" lon="-1.56246780417859554290771484375">
        <ele>544.4000244140625</ele>
        <time>2020-08-22T14:55:29.000Z</time>
      </trkpt>
      <trkpt lat="43.22221585549414157867431640625" lon="-1.56248607672750949859619140625">
        <ele>544.4000244140625</ele>
        <time>2020-08-22T14:55:35.000Z</time>
      </trkpt>
      <trkpt lat="43.2222571782767772674560546875" lon="-1.562489010393619537353515625">
        <ele>545</ele>
        <time>2020-08-22T14:55:38.000Z</time>
      </trkpt>
      <trkpt lat="43.222334124147891998291015625" lon="-1.5625046007335186004638671875">
        <ele>545.4000244140625</ele>
        <time>2020-08-22T14:55:43.000Z</time>
      </trkpt>
      <trkpt lat="43.222452811896800994873046875" lon="-1.562519855797290802001953125">
        <ele>546</ele>
        <time>2020-08-22T14:55:50.000Z</time>
      </trkpt>
      <trkpt lat="43.2225859165191650390625" lon="-1.56254106201231479644775390625">
        <ele>547</ele>
        <time>2020-08-22T14:55:58.000Z</time>
      </trkpt>
      <trkpt lat="43.22260142304003238677978515625" lon="-1.56254223547875881195068359375">
        <ele>547</ele>
        <time>2020-08-22T14:55:59.000Z</time>
      </trkpt>
      <trkpt lat="43.22269362397491931915283203125" lon="-1.5625153295695781707763671875">
        <ele>547.4000244140625</ele>
        <time>2020-08-22T14:56:05.000Z</time>
      </trkpt>
      <trkpt lat="43.2227476872503757476806640625" lon="-1.5624881722033023834228515625">
        <ele>548.20001220703125</ele>
        <time>2020-08-22T14:56:09.000Z</time>
      </trkpt>
      <trkpt lat="43.22278481908142566680908203125" lon="-1.5624685585498809814453125">
        <ele>549.20001220703125</ele>
        <time>2020-08-22T14:56:12.000Z</time>
      </trkpt>
      <trkpt lat="43.22279856540262699127197265625" lon="-1.56246252357959747314453125">
        <ele>549.4000244140625</ele>
        <time>2020-08-22T14:56:13.000Z</time>
      </trkpt>
      <trkpt lat="43.2228834740817546844482421875" lon="-1.56247149221599102020263671875">
        <ele>550.4000244140625</ele>
        <time>2020-08-22T14:56:19.000Z</time>
      </trkpt>
      <trkpt lat="43.22291205637156963348388671875" lon="-1.56248138286173343658447265625">
        <ele>550.79998779296875</ele>
        <time>2020-08-22T14:56:21.000Z</time>
      </trkpt>
      <trkpt lat="43.22303376160562038421630859375" lon="-1.56252547167241573333740234375">
        <ele>551</ele>
        <time>2020-08-22T14:56:29.000Z</time>
      </trkpt>
      <trkpt lat="43.223128058016300201416015625" lon="-1.56257442198693752288818359375">
        <ele>551.5999755859375</ele>
        <time>2020-08-22T14:56:36.000Z</time>
      </trkpt>
      <trkpt lat="43.22314306162297725677490234375" lon="-1.56258665956556797027587890625">
        <ele>551.79998779296875</ele>
        <time>2020-08-22T14:56:37.000Z</time>
      </trkpt>
      <trkpt lat="43.22323492728173732757568359375" lon="-1.5626697242259979248046875">
        <ele>552.20001220703125</ele>
        <time>2020-08-22T14:56:44.000Z</time>
      </trkpt>
      <trkpt lat="43.223259486258029937744140625" lon="-1.5626950375735759735107421875">
        <ele>552.5999755859375</ele>
        <time>2020-08-22T14:56:46.000Z</time>
      </trkpt>
      <trkpt lat="43.2233337499201297760009765625" lon="-1.5627956204116344451904296875">
        <ele>553.5999755859375</ele>
        <time>2020-08-22T14:56:53.000Z</time>
      </trkpt>
      <trkpt lat="43.2233508490025997161865234375" lon="-1.56282923184335231781005859375">
        <ele>553.5999755859375</ele>
        <time>2020-08-22T14:56:55.000Z</time>
      </trkpt>
      <trkpt lat="43.22335897944867610931396484375" lon="-1.56284700147807598114013671875">
        <ele>553.5999755859375</ele>
        <time>2020-08-22T14:56:56.000Z</time>
      </trkpt>
      <trkpt lat="43.2234031520783901214599609375" lon="-1.5629521943628787994384765625">
        <ele>554.4000244140625</ele>
        <time>2020-08-22T14:57:02.000Z</time>
      </trkpt>
      <trkpt lat="43.22342033497989177703857421875" lon="-1.56298429705202579498291015625">
        <ele>554.5999755859375</ele>
        <time>2020-08-22T14:57:04.000Z</time>
      </trkpt>
      <trkpt lat="43.22346878238022327423095703125" lon="-1.563080437481403350830078125">
        <ele>555.5999755859375</ele>
        <time>2020-08-22T14:57:10.000Z</time>
      </trkpt>
      <trkpt lat="43.223497867584228515625" lon="-1.56314774416387081146240234375">
        <ele>555.5999755859375</ele>
        <time>2020-08-22T14:57:14.000Z</time>
      </trkpt>
      <trkpt lat="43.223519660532474517822265625" lon="-1.56323139555752277374267578125">
        <ele>556.79998779296875</ele>
        <time>2020-08-22T14:57:19.000Z</time>
      </trkpt>
      <trkpt lat="43.22351924143731594085693359375" lon="-1.5632495842874050140380859375">
        <ele>557</ele>
        <time>2020-08-22T14:57:20.000Z</time>
      </trkpt>
      <trkpt lat="43.2235204987227916717529296875" lon="-1.563266180455684661865234375">
        <ele>557.5999755859375</ele>
        <time>2020-08-22T14:57:25.000Z</time>
      </trkpt>
      <trkpt lat="43.22351823560893535614013671875" lon="-1.5632814355194568634033203125">
        <ele>557.5999755859375</ele>
        <time>2020-08-22T14:57:32.000Z</time>
      </trkpt>
      <trkpt lat="43.2235144637525081634521484375" lon="-1.56330314464867115020751953125">
        <ele>558</ele>
        <time>2020-08-22T14:57:38.000Z</time>
      </trkpt>
      <trkpt lat="43.22351136244833469390869140625" lon="-1.56333281658589839935302734375">
        <ele>558.4000244140625</ele>
        <time>2020-08-22T14:57:41.000Z</time>
      </trkpt>
      <trkpt lat="43.22350029833614826202392578125" lon="-1.563424766063690185546875">
        <ele>559.20001220703125</ele>
        <time>2020-08-22T14:57:50.000Z</time>
      </trkpt>
      <trkpt lat="43.22349987924098968505859375" lon="-1.56343490816652774810791015625">
        <ele>559.4000244140625</ele>
        <time>2020-08-22T14:57:51.000Z</time>
      </trkpt>
      <trkpt lat="43.2235017232596874237060546875" lon="-1.5634883008897304534912109375">
        <ele>560.4000244140625</ele>
        <time>2020-08-22T14:57:57.000Z</time>
      </trkpt>
      <trkpt lat="43.22350365109741687774658203125" lon="-1.56352459453046321868896484375">
        <ele>560.79998779296875</ele>
        <time>2020-08-22T14:58:01.000Z</time>
      </trkpt>
      <trkpt lat="43.22350415401160717010498046875" lon="-1.56355426646769046783447265625">
        <ele>561.79998779296875</ele>
        <time>2020-08-22T14:58:04.000Z</time>
      </trkpt>
      <trkpt lat="43.22350323200225830078125" lon="-1.56361863948404788970947265625">
        <ele>562.4000244140625</ele>
        <time>2020-08-22T14:58:10.000Z</time>
      </trkpt>
      <trkpt lat="43.22350080125033855438232421875" lon="-1.56368921510875225067138671875">
        <ele>562.79998779296875</ele>
        <time>2020-08-22T14:58:17.000Z</time>
      </trkpt>
      <trkpt lat="43.22350080125033855438232421875" lon="-1.563793905079364776611328125">
        <ele>564</ele>
        <time>2020-08-22T14:58:27.000Z</time>
      </trkpt>
      <trkpt lat="43.22350985370576381683349609375" lon="-1.56386573798954486846923828125">
        <ele>565.20001220703125</ele>
        <time>2020-08-22T14:58:35.000Z</time>
      </trkpt>
      <trkpt lat="43.22351203300058841705322265625" lon="-1.56388401053845882415771484375">
        <ele>565.5999755859375</ele>
        <time>2020-08-22T14:58:37.000Z</time>
      </trkpt>
      <trkpt lat="43.2235215045511722564697265625" lon="-1.56395173631608486175537109375">
        <ele>566.4000244140625</ele>
        <time>2020-08-22T14:58:46.000Z</time>
      </trkpt>
      <trkpt lat="43.2235228456556797027587890625" lon="-1.56396028585731983184814453125">
        <ele>566.4000244140625</ele>
        <time>2020-08-22T14:58:47.000Z</time>
      </trkpt>
      <trkpt lat="43.22352879680693149566650390625" lon="-1.56398409046232700347900390625">
        <ele>567</ele>
        <time>2020-08-22T14:58:55.000Z</time>
      </trkpt>
      <trkpt lat="43.22353499941527843475341796875" lon="-1.56402549706399440765380859375">
        <ele>567.4000244140625</ele>
        <time>2020-08-22T14:59:02.000Z</time>
      </trkpt>
      <trkpt lat="43.2235362567007541656494140625" lon="-1.56403723172843456268310546875">
        <ele>567.5999755859375</ele>
        <time>2020-08-22T14:59:03.000Z</time>
      </trkpt>
      <trkpt lat="43.223549164831638336181640625" lon="-1.5641340427100658416748046875">
        <ele>568.4000244140625</ele>
        <time>2020-08-22T14:59:12.000Z</time>
      </trkpt>
      <trkpt lat="43.2235503382980823516845703125" lon="-1.56414519064128398895263671875">
        <ele>568.5999755859375</ele>
        <time>2020-08-22T14:59:13.000Z</time>
      </trkpt>
      <trkpt lat="43.22355746291577816009521484375" lon="-1.5642289258539676666259765625">
        <ele>569.5999755859375</ele>
        <time>2020-08-22T14:59:21.000Z</time>
      </trkpt>
      <trkpt lat="43.22356081567704677581787109375" lon="-1.564249880611896514892578125">
        <ele>570</ele>
        <time>2020-08-22T14:59:23.000Z</time>
      </trkpt>
      <trkpt lat="43.22356768883764743804931640625" lon="-1.56430863775312900543212890625">
        <ele>570.79998779296875</ele>
        <time>2020-08-22T14:59:29.000Z</time>
      </trkpt>
      <trkpt lat="43.22356425225734710693359375" lon="-1.5643573366105556488037109375">
        <ele>571.4000244140625</ele>
        <time>2020-08-22T14:59:33.000Z</time>
      </trkpt>
      <trkpt lat="43.223566599190235137939453125" lon="-1.5644019283354282379150390625">
        <ele>571.79998779296875</ele>
        <time>2020-08-22T14:59:37.000Z</time>
      </trkpt>
      <trkpt lat="43.2235684432089328765869140625" lon="-1.5644126571714878082275390625">
        <ele>571.79998779296875</ele>
        <time>2020-08-22T14:59:38.000Z</time>
      </trkpt>
      <trkpt lat="43.22357389144599437713623046875" lon="-1.5644560754299163818359375">
        <ele>572.4000244140625</ele>
        <time>2020-08-22T14:59:42.000Z</time>
      </trkpt>
      <trkpt lat="43.22357204742729663848876953125" lon="-1.5645001642405986785888671875">
        <ele>572.79998779296875</ele>
        <time>2020-08-22T14:59:46.000Z</time>
      </trkpt>
      <trkpt lat="43.22356483899056911468505859375" lon="-1.5645579993724822998046875">
        <ele>573.4000244140625</ele>
        <time>2020-08-22T14:59:51.000Z</time>
      </trkpt>
      <trkpt lat="43.22356081567704677581787109375" lon="-1.5646004118025302886962890625">
        <ele>573.79998779296875</ele>
        <time>2020-08-22T14:59:55.000Z</time>
      </trkpt>
      <trkpt lat="43.22355260141193866729736328125" lon="-1.56465229578316211700439453125">
        <ele>574.5999755859375</ele>
        <time>2020-08-22T15:00:00.000Z</time>
      </trkpt>
      <trkpt lat="43.2235593907535076141357421875" lon="-1.56470225192606449127197265625">
        <ele>575</ele>
        <time>2020-08-22T15:00:04.000Z</time>
      </trkpt>
      <trkpt lat="43.22356450371444225311279296875" lon="-1.56474567018449306488037109375">
        <ele>575.5999755859375</ele>
        <time>2020-08-22T15:00:08.000Z</time>
      </trkpt>
      <trkpt lat="43.22357120923697948455810546875" lon="-1.56480015255510807037353515625">
        <ele>576</ele>
        <time>2020-08-22T15:00:13.000Z</time>
      </trkpt>
      <trkpt lat="43.2235842011868953704833984375" lon="-1.56486854888498783111572265625">
        <ele>577</ele>
        <time>2020-08-22T15:00:20.000Z</time>
      </trkpt>
      <trkpt lat="43.2235868833959102630615234375" lon="-1.56487760134041309356689453125">
        <ele>577</ele>
        <time>2020-08-22T15:00:21.000Z</time>
      </trkpt>
      <trkpt lat="43.22361387312412261962890625" lon="-1.56494834460318088531494140625">
        <ele>578.4000244140625</ele>
        <time>2020-08-22T15:00:29.000Z</time>
      </trkpt>
      <trkpt lat="43.22361865080893039703369140625" lon="-1.5649601630866527557373046875">
        <ele>578.4000244140625</ele>
        <time>2020-08-22T15:00:30.000Z</time>
      </trkpt>
      <trkpt lat="43.223667852580547332763671875" lon="-1.56505295075476169586181640625">
        <ele>579.20001220703125</ele>
        <time>2020-08-22T15:00:39.000Z</time>
      </trkpt>
      <trkpt lat="43.223672211170196533203125" lon="-1.5650654397904872894287109375">
        <ele>579.4000244140625</ele>
        <time>2020-08-22T15:00:40.000Z</time>
      </trkpt>
      <trkpt lat="43.22369970381259918212890625" lon="-1.56514213420450687408447265625">
        <ele>580.4000244140625</ele>
        <time>2020-08-22T15:00:49.000Z</time>
      </trkpt>
      <trkpt lat="43.2236995361745357513427734375" lon="-1.56514179892838001251220703125">
        <ele>580.4000244140625</ele>
        <time>2020-08-22T15:00:50.000Z</time>
      </trkpt>
      <trkpt lat="43.22372208349406719207763671875" lon="-1.56519058160483837127685546875">
        <ele>580.5999755859375</ele>
        <time>2020-08-22T15:00:57.000Z</time>
      </trkpt>
      <trkpt lat="43.22374370880424976348876953125" lon="-1.56523249112069606781005859375">
        <ele>581.5999755859375</ele>
        <time>2020-08-22T15:01:02.000Z</time>
      </trkpt>
      <trkpt lat="43.2237675972282886505126953125" lon="-1.56526945531368255615234375">
        <ele>581.79998779296875</ele>
        <time>2020-08-22T15:01:07.000Z</time>
      </trkpt>
      <trkpt lat="43.22379400022327899932861328125" lon="-1.5653138794004917144775390625">
        <ele>582.79998779296875</ele>
        <time>2020-08-22T15:01:13.000Z</time>
      </trkpt>
      <trkpt lat="43.22380975820124149322509765625" lon="-1.56534765847027301788330078125">
        <ele>583.4000244140625</ele>
        <time>2020-08-22T15:01:17.000Z</time>
      </trkpt>
      <trkpt lat="43.22382300160825252532958984375" lon="-1.56537246890366077423095703125">
        <ele>583.79998779296875</ele>
        <time>2020-08-22T15:01:20.000Z</time>
      </trkpt>
      <trkpt lat="43.223846890032291412353515625" lon="-1.56542896293103694915771484375">
        <ele>584</ele>
        <time>2020-08-22T15:01:26.000Z</time>
      </trkpt>
      <trkpt lat="43.2238815911114215850830078125" lon="-1.56548076309263706207275390625">
        <ele>584.79998779296875</ele>
        <time>2020-08-22T15:01:32.000Z</time>
      </trkpt>
      <trkpt lat="43.2238872908055782318115234375" lon="-1.56548939645290374755859375">
        <ele>585</ele>
        <time>2020-08-22T15:01:33.000Z</time>
      </trkpt>
      <trkpt lat="43.2239090837538242340087890625" lon="-1.5655321441590785980224609375">
        <ele>585.5999755859375</ele>
        <time>2020-08-22T15:01:41.000Z</time>
      </trkpt>
      <trkpt lat="43.22392811067402362823486328125" lon="-1.5655733831226825714111328125">
        <ele>585.5999755859375</ele>
        <time>2020-08-22T15:01:48.000Z</time>
      </trkpt>
      <trkpt lat="43.22396901436150074005126953125" lon="-1.56565963290631771087646484375">
        <ele>586</ele>
        <time>2020-08-22T15:01:53.000Z</time>
      </trkpt>
      <trkpt lat="43.22398577816784381866455078125" lon="-1.56573054380714893341064453125">
        <ele>586.4000244140625</ele>
        <time>2020-08-22T15:01:56.000Z</time>
      </trkpt>
      <trkpt lat="43.2240002788603305816650390625" lon="-1.5658848546445369720458984375">
        <ele>587</ele>
        <time>2020-08-22T15:02:03.000Z</time>
      </trkpt>
      <trkpt lat="43.22399885393679141998291015625" lon="-1.56590354628860950469970703125">
        <ele>587.4000244140625</ele>
        <time>2020-08-22T15:02:04.000Z</time>
      </trkpt>
      <trkpt lat="43.22399248369038105010986328125" lon="-1.56599524430930614471435546875">
        <ele>588</ele>
        <time>2020-08-22T15:02:11.000Z</time>
      </trkpt>
      <trkpt lat="43.22399248369038105010986328125" lon="-1.56599658541381359100341796875">
        <ele>588</ele>
        <time>2020-08-22T15:02:12.000Z</time>
      </trkpt>
      <trkpt lat="43.22396700270473957061767578125" lon="-1.56603631563484668731689453125">
        <ele>588.20001220703125</ele>
        <time>2020-08-22T15:02:18.000Z</time>
      </trkpt>
      <trkpt lat="43.22393280453979969024658203125" lon="-1.5660990960896015167236328125">
        <ele>588.4000244140625</ele>
        <time>2020-08-22T15:02:25.000Z</time>
      </trkpt>
      <trkpt lat="43.22391822002828121185302734375" lon="-1.56613069586455821990966796875">
        <ele>589.20001220703125</ele>
        <time>2020-08-22T15:02:29.000Z</time>
      </trkpt>
      <trkpt lat="43.22390413843095302581787109375" lon="-1.566165648400783538818359375">
        <ele>589.79998779296875</ele>
        <time>2020-08-22T15:02:33.000Z</time>
      </trkpt>
      <trkpt lat="43.22389475069940090179443359375" lon="-1.56619188375771045684814453125">
        <ele>590.4000244140625</ele>
        <time>2020-08-22T15:02:36.000Z</time>
      </trkpt>
      <trkpt lat="43.2238711975514888763427734375" lon="-1.566267572343349456787109375">
        <ele>591.4000244140625</ele>
        <time>2020-08-22T15:02:44.000Z</time>
      </trkpt>
      <trkpt lat="43.22386206127703189849853515625" lon="-1.56634074635803699493408203125">
        <ele>592.20001220703125</ele>
        <time>2020-08-22T15:02:52.000Z</time>
      </trkpt>
      <trkpt lat="43.2238628156483173370361328125" lon="-1.5663411654531955718994140625">
        <ele>592.4000244140625</ele>
        <time>2020-08-22T15:02:53.000Z</time>
      </trkpt>
      <trkpt lat="43.2238634862005710601806640625" lon="-1.56634141691029071807861328125">
        <ele>592.4000244140625</ele>
        <time>2020-08-22T15:02:54.000Z</time>
      </trkpt>
      <trkpt lat="43.22386306710541248321533203125" lon="-1.566394306719303131103515625">
        <ele>592.5999755859375</ele>
        <time>2020-08-22T15:03:01.000Z</time>
      </trkpt>
      <trkpt lat="43.223876059055328369140625" lon="-1.56654258258640766143798828125">
        <ele>593</ele>
        <time>2020-08-22T15:03:08.000Z</time>
      </trkpt>
      <trkpt lat="43.2239007018506526947021484375" lon="-1.56666914932429790496826171875">
        <ele>593.4000244140625</ele>
        <time>2020-08-22T15:03:14.000Z</time>
      </trkpt>
      <trkpt lat="43.22390916757285594940185546875" lon="-1.56670980155467987060546875">
        <ele>594</ele>
        <time>2020-08-22T15:03:16.000Z</time>
      </trkpt>
      <trkpt lat="43.22391989640891551971435546875" lon="-1.5667505376040935516357421875">
        <ele>594.4000244140625</ele>
        <time>2020-08-22T15:03:18.000Z</time>
      </trkpt>
      <trkpt lat="43.22395241819322109222412109375" lon="-1.5668621845543384552001953125">
        <ele>595.5999755859375</ele>
        <time>2020-08-22T15:03:24.000Z</time>
      </trkpt>
      <trkpt lat="43.22395677678287029266357421875" lon="-1.56688037328422069549560546875">
        <ele>595.5999755859375</ele>
        <time>2020-08-22T15:03:25.000Z</time>
      </trkpt>
      <trkpt lat="43.22399550117552280426025390625" lon="-1.56698514707386493682861328125">
        <ele>596.5999755859375</ele>
        <time>2020-08-22T15:03:31.000Z</time>
      </trkpt>
      <trkpt lat="43.22403372265398502349853515625" lon="-1.56704348511993885040283203125">
        <ele>597.5999755859375</ele>
        <time>2020-08-22T15:03:35.000Z</time>
      </trkpt>
      <trkpt lat="43.22408418171107769012451171875" lon="-1.56710685230791568756103515625">
        <ele>598.20001220703125</ele>
        <time>2020-08-22T15:03:40.000Z</time>
      </trkpt>
      <trkpt lat="43.22414319030940532684326171875" lon="-1.56719201244413852691650390625">
        <ele>598.79998779296875</ele>
        <time>2020-08-22T15:03:46.000Z</time>
      </trkpt>
      <trkpt lat="43.22416297160089015960693359375" lon="-1.5672175772488117218017578125">
        <ele>599.20001220703125</ele>
        <time>2020-08-22T15:03:48.000Z</time>
      </trkpt>
      <trkpt lat="43.224227428436279296875" lon="-1.567324697971343994140625">
        <ele>600</ele>
        <time>2020-08-22T15:03:55.000Z</time>
      </trkpt>
      <trkpt lat="43.22428115643560886383056640625" lon="-1.56739619560539722442626953125">
        <ele>600.4000244140625</ele>
        <time>2020-08-22T15:04:00.000Z</time>
      </trkpt>
      <trkpt lat="43.224353492259979248046875" lon="-1.56747280620038509368896484375">
        <ele>601</ele>
        <time>2020-08-22T15:04:06.000Z</time>
      </trkpt>
      <trkpt lat="43.22438760660588741302490234375" lon="-1.56751421280205249786376953125">
        <ele>601.20001220703125</ele>
        <time>2020-08-22T15:04:09.000Z</time>
      </trkpt>
      <trkpt lat="43.224461115896701812744140625" lon="-1.567593924701213836669921875">
        <ele>602.20001220703125</ele>
        <time>2020-08-22T15:04:15.000Z</time>
      </trkpt>
      <trkpt lat="43.2245425879955291748046875" lon="-1.56769593246281147003173828125">
        <ele>602.4000244140625</ele>
        <time>2020-08-22T15:04:22.000Z</time>
      </trkpt>
      <trkpt lat="43.224626071751117706298828125" lon="-1.56786222942173480987548828125">
        <ele>602.79998779296875</ele>
        <time>2020-08-22T15:04:32.000Z</time>
      </trkpt>
      <trkpt lat="43.2246386446058750152587890625" lon="-1.56789592467248439788818359375">
        <ele>603.20001220703125</ele>
        <time>2020-08-22T15:04:34.000Z</time>
      </trkpt>
      <trkpt lat="43.22468583472073078155517578125" lon="-1.56802148558199405670166015625">
        <ele>604.4000244140625</ele>
        <time>2020-08-22T15:04:41.000Z</time>
      </trkpt>
      <trkpt lat="43.22470075450837612152099609375" lon="-1.56805316917598247528076171875">
        <ele>605</ele>
        <time>2020-08-22T15:04:43.000Z</time>
      </trkpt>
      <trkpt lat="43.22471047751605510711669921875" lon="-1.568068675696849822998046875">
        <ele>605.4000244140625</ele>
        <time>2020-08-22T15:04:44.000Z</time>
      </trkpt>
      <trkpt lat="43.2247683964669704437255859375" lon="-1.56816364265978336334228515625">
        <ele>606.4000244140625</ele>
        <time>2020-08-22T15:04:50.000Z</time>
      </trkpt>
      <trkpt lat="43.22478055022656917572021484375" lon="-1.56817403621971607208251953125">
        <ele>606.5999755859375</ele>
        <time>2020-08-22T15:04:51.000Z</time>
      </trkpt>
      <trkpt lat="43.22481038980185985565185546875" lon="-1.5682337991893291473388671875">
        <ele>607.4000244140625</ele>
        <time>2020-08-22T15:04:55.000Z</time>
      </trkpt>
      <trkpt lat="43.22483033873140811920166015625" lon="-1.56828165985643863677978515625">
        <ele>608</ele>
        <time>2020-08-22T15:04:58.000Z</time>
      </trkpt>
      <trkpt lat="43.22485229931771755218505859375" lon="-1.568328179419040679931640625">
        <ele>608.5999755859375</ele>
        <time>2020-08-22T15:05:01.000Z</time>
      </trkpt>
      <trkpt lat="43.22491340339183807373046875" lon="-1.56843940727412700653076171875">
        <ele>609.5999755859375</ele>
        <time>2020-08-22T15:05:08.000Z</time>
      </trkpt>
      <trkpt lat="43.2250138185918331146240234375" lon="-1.56856815330684185028076171875">
        <ele>610.5999755859375</ele>
        <time>2020-08-22T15:05:17.000Z</time>
      </trkpt>
      <trkpt lat="43.2250993140041828155517578125" lon="-1.5686830691993236541748046875">
        <ele>611.79998779296875</ele>
        <time>2020-08-22T15:05:25.000Z</time>
      </trkpt>
      <trkpt lat="43.225110210478305816650390625" lon="-1.56869723461568355560302734375">
        <ele>612</ele>
        <time>2020-08-22T15:05:26.000Z</time>
      </trkpt>
      <trkpt lat="43.22520618326961994171142578125" lon="-1.56884349882602691650390625">
        <ele>612.20001220703125</ele>
        <time>2020-08-22T15:05:34.000Z</time>
      </trkpt>
      <trkpt lat="43.225257731974124908447265625" lon="-1.56899529509246349334716796875">
        <ele>611.79998779296875</ele>
        <time>2020-08-22T15:05:40.000Z</time>
      </trkpt>
      <trkpt lat="43.2253249548375606536865234375" lon="-1.56922713853418827056884765625">
        <ele>611</ele>
        <time>2020-08-22T15:05:46.000Z</time>
      </trkpt>
      <trkpt lat="43.22533559985458850860595703125" lon="-1.56928145326673984527587890625">
        <ele>610.79998779296875</ele>
        <time>2020-08-22T15:05:48.000Z</time>
      </trkpt>
      <trkpt lat="43.22534565813839435577392578125" lon="-1.5693609975278377532958984375">
        <ele>610.79998779296875</ele>
        <time>2020-08-22T15:05:51.000Z</time>
      </trkpt>
      <trkpt lat="43.22537164203822612762451171875" lon="-1.56951539218425750732421875">
        <ele>611.20001220703125</ele>
        <time>2020-08-22T15:05:57.000Z</time>
      </trkpt>
      <trkpt lat="43.22541757486760616302490234375" lon="-1.569692082703113555908203125">
        <ele>612</ele>
        <time>2020-08-22T15:06:04.000Z</time>
      </trkpt>
      <trkpt lat="43.22542360983788967132568359375" lon="-1.56971630640327930450439453125">
        <ele>612</ele>
        <time>2020-08-22T15:06:05.000Z</time>
      </trkpt>
      <trkpt lat="43.2254667766392230987548828125" lon="-1.5698159672319889068603515625">
        <ele>612</ele>
        <time>2020-08-22T15:06:10.000Z</time>
      </trkpt>
      <trkpt lat="43.2254867255687713623046875" lon="-1.5698540210723876953125">
        <ele>612.4000244140625</ele>
        <time>2020-08-22T15:06:12.000Z</time>
      </trkpt>
      <trkpt lat="43.22562209330499172210693359375" lon="-1.57000883482396602630615234375">
        <ele>612.4000244140625</ele>
        <time>2020-08-22T15:06:20.000Z</time>
      </trkpt>
      <trkpt lat="43.22571848519146442413330078125" lon="-1.57010925002396106719970703125">
        <ele>610.79998779296875</ele>
        <time>2020-08-22T15:06:24.000Z</time>
      </trkpt>
      <trkpt lat="43.22579392232000827789306640625" lon="-1.57019726000726222991943359375">
        <ele>610.20001220703125</ele>
        <time>2020-08-22T15:06:27.000Z</time>
      </trkpt>
      <trkpt lat="43.22591126896440982818603515625" lon="-1.570317037403583526611328125">
        <ele>609.79998779296875</ele>
        <time>2020-08-22T15:06:31.000Z</time>
      </trkpt>
      <trkpt lat="43.2260059006512165069580078125" lon="-1.57040722668170928955078125">
        <ele>609.5999755859375</ele>
        <time>2020-08-22T15:06:34.000Z</time>
      </trkpt>
      <trkpt lat="43.22610589675605297088623046875" lon="-1.570494733750820159912109375">
        <ele>608.5999755859375</ele>
        <time>2020-08-22T15:06:37.000Z</time>
      </trkpt>
      <trkpt lat="43.226170353591442108154296875" lon="-1.57055131159722805023193359375">
        <ele>607.4000244140625</ele>
        <time>2020-08-22T15:06:39.000Z</time>
      </trkpt>
      <trkpt lat="43.22630421258509159088134765625" lon="-1.57066077925264835357666015625">
        <ele>607</ele>
        <time>2020-08-22T15:06:43.000Z</time>
      </trkpt>
      <trkpt lat="43.2264541648328304290771484375" lon="-1.5707941353321075439453125">
        <ele>606.5999755859375</ele>
        <time>2020-08-22T15:06:48.000Z</time>
      </trkpt>
      <trkpt lat="43.2265000976622104644775390625" lon="-1.5708328597247600555419921875">
        <ele>606.20001220703125</ele>
        <time>2020-08-22T15:06:50.000Z</time>
      </trkpt>
      <trkpt lat="43.22662993334233760833740234375" lon="-1.57094107009470462799072265625">
        <ele>605.20001220703125</ele>
        <time>2020-08-22T15:06:55.000Z</time>
      </trkpt>
      <trkpt lat="43.2266566716134548187255859375" lon="-1.5709639526903629302978515625">
        <ele>605.20001220703125</ele>
        <time>2020-08-22T15:06:56.000Z</time>
      </trkpt>
      <trkpt lat="43.226847946643829345703125" lon="-1.57113678753376007080078125">
        <ele>604.5999755859375</ele>
        <time>2020-08-22T15:07:02.000Z</time>
      </trkpt>
      <trkpt lat="43.22699622251093387603759765625" lon="-1.57128673978149890899658203125">
        <ele>604.20001220703125</ele>
        <time>2020-08-22T15:07:07.000Z</time>
      </trkpt>
      <trkpt lat="43.22701851837337017059326171875" lon="-1.571319513022899627685546875">
        <ele>604</ele>
        <time>2020-08-22T15:07:08.000Z</time>
      </trkpt>
      <trkpt lat="43.22706051170825958251953125" lon="-1.57139419578015804290771484375">
        <ele>603</ele>
        <time>2020-08-22T15:07:10.000Z</time>
      </trkpt>
      <trkpt lat="43.2270818017423152923583984375" lon="-1.57144146971404552459716796875">
        <ele>602.5999755859375</ele>
        <time>2020-08-22T15:07:11.000Z</time>
      </trkpt>
      <trkpt lat="43.22712496854364871978759765625" lon="-1.571559906005859375">
        <ele>602.20001220703125</ele>
        <time>2020-08-22T15:07:13.000Z</time>
      </trkpt>
      <trkpt lat="43.22714659385383129119873046875" lon="-1.571624279022216796875">
        <ele>602</ele>
        <time>2020-08-22T15:07:14.000Z</time>
      </trkpt>
      <trkpt lat="43.22723628021776676177978515625" lon="-1.5719225071370601654052734375">
        <ele>601.20001220703125</ele>
        <time>2020-08-22T15:07:19.000Z</time>
      </trkpt>
      <trkpt lat="43.22727240622043609619140625" lon="-1.572053432464599609375">
        <ele>600.20001220703125</ele>
        <time>2020-08-22T15:07:21.000Z</time>
      </trkpt>
      <trkpt lat="43.22729763574898242950439453125" lon="-1.5721146203577518463134765625">
        <ele>598.79998779296875</ele>
        <time>2020-08-22T15:07:22.000Z</time>
      </trkpt>
      <trkpt lat="43.227370642125606536865234375" lon="-1.57221092842519283294677734375">
        <ele>597.4000244140625</ele>
        <time>2020-08-22T15:07:24.000Z</time>
      </trkpt>
      <trkpt lat="43.22749393992125988006591796875" lon="-1.57230849377810955047607421875">
        <ele>597.20001220703125</ele>
        <time>2020-08-22T15:07:27.000Z</time>
      </trkpt>
      <trkpt lat="43.22756216861307621002197265625" lon="-1.572353839874267578125">
        <ele>597</ele>
        <time>2020-08-22T15:07:29.000Z</time>
      </trkpt>
      <trkpt lat="43.22770147584378719329833984375" lon="-1.57245567999780178070068359375">
        <ele>596.79998779296875</ele>
        <time>2020-08-22T15:07:35.000Z</time>
      </trkpt>
      <trkpt lat="43.2278811000287532806396484375" lon="-1.5725846774876117706298828125">
        <ele>596.20001220703125</ele>
        <time>2020-08-22T15:07:41.000Z</time>
      </trkpt>
      <trkpt lat="43.227970786392688751220703125" lon="-1.57265734858810901641845703125">
        <ele>595</ele>
        <time>2020-08-22T15:07:45.000Z</time>
      </trkpt>
      <trkpt lat="43.22800221852958202362060546875" lon="-1.57270126976072788238525390625">
        <ele>594.79998779296875</ele>
        <time>2020-08-22T15:07:47.000Z</time>
      </trkpt>
      <trkpt lat="43.22814839892089366912841796875" lon="-1.57288215123116970062255859375">
        <ele>593.79998779296875</ele>
        <time>2020-08-22T15:07:53.000Z</time>
      </trkpt>
      <trkpt lat="43.22832257486879825592041015625" lon="-1.573193371295928955078125">
        <ele>593</ele>
        <time>2020-08-22T15:08:00.000Z</time>
      </trkpt>
      <trkpt lat="43.22835576720535755157470703125" lon="-1.57325011678040027618408203125">
        <ele>592.79998779296875</ele>
        <time>2020-08-22T15:08:02.000Z</time>
      </trkpt>
      <trkpt lat="43.22839558124542236328125" lon="-1.57332412898540496826171875">
        <ele>592.5999755859375</ele>
        <time>2020-08-22T15:08:05.000Z</time>
      </trkpt>
      <trkpt lat="43.22844780050218105316162109375" lon="-1.5734470076858997344970703125">
        <ele>592.20001220703125</ele>
        <time>2020-08-22T15:08:10.000Z</time>
      </trkpt>
      <trkpt lat="43.2285578548908233642578125" lon="-1.5735402144491672515869140625">
        <ele>592.20001220703125</ele>
        <time>2020-08-22T15:08:16.000Z</time>
      </trkpt>
      <trkpt lat="43.22862449102103710174560546875" lon="-1.57358019612729549407958984375">
        <ele>592.5999755859375</ele>
        <time>2020-08-22T15:08:19.000Z</time>
      </trkpt>
      <trkpt lat="43.2287310250103473663330078125" lon="-1.57362562604248523712158203125">
        <ele>592.79998779296875</ele>
        <time>2020-08-22T15:08:23.000Z</time>
      </trkpt>
      <trkpt lat="43.22886706329882144927978515625" lon="-1.57371975481510162353515625">
        <ele>594</ele>
        <time>2020-08-22T15:08:30.000Z</time>
      </trkpt>
      <trkpt lat="43.2289804704487323760986328125" lon="-1.57380583696067333221435546875">
        <ele>594.5999755859375</ele>
        <time>2020-08-22T15:08:38.000Z</time>
      </trkpt>
      <trkpt lat="43.22913008742034435272216796875" lon="-1.57388160936534404754638671875">
        <ele>594.4000244140625</ele>
        <time>2020-08-22T15:08:44.000Z</time>
      </trkpt>
      <trkpt lat="43.22925413958728313446044921875" lon="-1.573954112827777862548828125">
        <ele>594.4000244140625</ele>
        <time>2020-08-22T15:08:49.000Z</time>
      </trkpt>
      <trkpt lat="43.22945748455822467803955078125" lon="-1.574041284620761871337890625">
        <ele>593.5999755859375</ele>
        <time>2020-08-22T15:08:55.000Z</time>
      </trkpt>
      <trkpt lat="43.22949327528476715087890625" lon="-1.5740481577813625335693359375">
        <ele>592.79998779296875</ele>
        <time>2020-08-22T15:08:56.000Z</time>
      </trkpt>
      <trkpt lat="43.2295682094991207122802734375" lon="-1.5740528516471385955810546875">
        <ele>591.5999755859375</ele>
        <time>2020-08-22T15:08:58.000Z</time>
      </trkpt>
      <trkpt lat="43.2296711392700672149658203125" lon="-1.5740669332444667816162109375">
        <ele>590.79998779296875</ele>
        <time>2020-08-22T15:09:01.000Z</time>
      </trkpt>
      <trkpt lat="43.22970022447407245635986328125" lon="-1.5740686096251010894775390625">
        <ele>590.4000244140625</ele>
        <time>2020-08-22T15:09:02.000Z</time>
      </trkpt>
      <trkpt lat="43.2298438064754009246826171875" lon="-1.57409199513494968414306640625">
        <ele>589.5999755859375</ele>
        <time>2020-08-22T15:09:07.000Z</time>
      </trkpt>
      <trkpt lat="43.2298775017261505126953125" lon="-1.57409534789621829986572265625">
        <ele>588.79998779296875</ele>
        <time>2020-08-22T15:09:08.000Z</time>
      </trkpt>
      <trkpt lat="43.22997934184968471527099609375" lon="-1.57410155050456523895263671875">
        <ele>587.5999755859375</ele>
        <time>2020-08-22T15:09:11.000Z</time>
      </trkpt>
      <trkpt lat="43.23011496104300022125244140625" lon="-1.57411496154963970184326171875">
        <ele>586.20001220703125</ele>
        <time>2020-08-22T15:09:15.000Z</time>
      </trkpt>
      <trkpt lat="43.23031931184232234954833984375" lon="-1.574073471128940582275390625">
        <ele>585.4000244140625</ele>
        <time>2020-08-22T15:09:22.000Z</time>
      </trkpt>
      <trkpt lat="43.23034915141761302947998046875" lon="-1.57406131736934185028076171875">
        <ele>584.79998779296875</ele>
        <time>2020-08-22T15:09:23.000Z</time>
      </trkpt>
      <trkpt lat="43.2304117642343044281005859375" lon="-1.5740287117660045623779296875">
        <ele>583.5999755859375</ele>
        <time>2020-08-22T15:09:25.000Z</time>
      </trkpt>
      <trkpt lat="43.2305173762142658233642578125" lon="-1.57399074174463748931884765625">
        <ele>583.20001220703125</ele>
        <time>2020-08-22T15:09:28.000Z</time>
      </trkpt>
      <trkpt lat="43.23069347999989986419677734375" lon="-1.57404907979071140289306640625">
        <ele>583.4000244140625</ele>
        <time>2020-08-22T15:09:33.000Z</time>
      </trkpt>
      <trkpt lat="43.23081635870039463043212890625" lon="-1.57414999790489673614501953125">
        <ele>582.4000244140625</ele>
        <time>2020-08-22T15:09:37.000Z</time>
      </trkpt>
      <trkpt lat="43.230900429189205169677734375" lon="-1.57422308810055255889892578125">
        <ele>581.4000244140625</ele>
        <time>2020-08-22T15:09:40.000Z</time>
      </trkpt>
      <trkpt lat="43.230954073369503021240234375" lon="-1.57426868565380573272705078125">
        <ele>581</ele>
        <time>2020-08-22T15:09:42.000Z</time>
      </trkpt>
      <trkpt lat="43.2310362160205841064453125" lon="-1.5743183903396129608154296875">
        <ele>580.79998779296875</ele>
        <time>2020-08-22T15:09:46.000Z</time>
      </trkpt>
      <trkpt lat="43.23103730566799640655517578125" lon="-1.5743210725486278533935546875">
        <ele>580.79998779296875</ele>
        <time>2020-08-22T15:09:53.000Z</time>
      </trkpt>
      <trkpt lat="43.23103764094412326812744140625" lon="-1.57432056963443756103515625">
        <ele>581</ele>
        <time>2020-08-22T15:10:05.000Z</time>
      </trkpt>
      <trkpt lat="43.23103764094412326812744140625" lon="-1.57432031817734241485595703125">
        <ele>581.20001220703125</ele>
        <time>2020-08-22T15:10:28.000Z</time>
      </trkpt>
      <trkpt lat="43.23103814385831356048583984375" lon="-1.57432082109153270721435546875">
        <ele>581.4000244140625</ele>
        <time>2020-08-22T15:10:41.000Z</time>
      </trkpt>
      <trkpt lat="43.2310380600392818450927734375" lon="-1.5743207372725009918212890625">
        <ele>581</ele>
        <time>2020-08-22T15:11:03.000Z</time>
      </trkpt>
      <trkpt lat="43.23103797622025012969970703125" lon="-1.574320904910564422607421875">
        <ele>580.5999755859375</ele>
        <time>2020-08-22T15:11:36.000Z</time>
      </trkpt>
      <trkpt lat="43.2310471124947071075439453125" lon="-1.57432517968118190765380859375">
        <ele>580.5999755859375</ele>
        <time>2020-08-22T15:11:57.000Z</time>
      </trkpt>
      <trkpt lat="43.2311818934977054595947265625" lon="-1.5743656642735004425048828125">
        <ele>579.5999755859375</ele>
        <time>2020-08-22T15:12:04.000Z</time>
      </trkpt>
      <trkpt lat="43.2312056981027126312255859375" lon="-1.57435677945613861083984375">
        <ele>579.4000244140625</ele>
        <time>2020-08-22T15:12:05.000Z</time>
      </trkpt>
      <trkpt lat="43.23125355876982212066650390625" lon="-1.574326939880847930908203125">
        <ele>578.4000244140625</ele>
        <time>2020-08-22T15:12:07.000Z</time>
      </trkpt>
      <trkpt lat="43.23139487765729427337646484375" lon="-1.57421587966382503509521484375">
        <ele>577.4000244140625</ele>
        <time>2020-08-22T15:12:13.000Z</time>
      </trkpt>
      <trkpt lat="43.2314144074916839599609375" lon="-1.57419928349554538726806640625">
        <ele>577.4000244140625</ele>
        <time>2020-08-22T15:12:14.000Z</time>
      </trkpt>
      <trkpt lat="43.23151834309101104736328125" lon="-1.57410607673227787017822265625">
        <ele>576.20001220703125</ele>
        <time>2020-08-22T15:12:19.000Z</time>
      </trkpt>
      <trkpt lat="43.23156486265361309051513671875" lon="-1.5740610659122467041015625">
        <ele>575</ele>
        <time>2020-08-22T15:12:21.000Z</time>
      </trkpt>
      <trkpt lat="43.23170986957848072052001953125" lon="-1.573923937976360321044921875">
        <ele>573.79998779296875</ele>
        <time>2020-08-22T15:12:27.000Z</time>
      </trkpt>
      <trkpt lat="43.231759406626224517822265625" lon="-1.57387255690991878509521484375">
        <ele>572.79998779296875</ele>
        <time>2020-08-22T15:12:29.000Z</time>
      </trkpt>
      <trkpt lat="43.2318614982068538665771484375" lon="-1.573750264942646026611328125">
        <ele>571.4000244140625</ele>
        <time>2020-08-22T15:12:33.000Z</time>
      </trkpt>
      <trkpt lat="43.231914304196834564208984375" lon="-1.57368899323046207427978515625">
        <ele>570.20001220703125</ele>
        <time>2020-08-22T15:12:35.000Z</time>
      </trkpt>
      <trkpt lat="43.23193852789700031280517578125" lon="-1.57366074621677398681640625">
        <ele>569.5999755859375</ele>
        <time>2020-08-22T15:12:36.000Z</time>
      </trkpt>
      <trkpt lat="43.23202930390834808349609375" lon="-1.57347843982279300689697265625">
        <ele>569</ele>
        <time>2020-08-22T15:12:41.000Z</time>
      </trkpt>
      <trkpt lat="43.2320663519203662872314453125" lon="-1.57321390695869922637939453125">
        <ele>567.20001220703125</ele>
        <time>2020-08-22T15:12:46.000Z</time>
      </trkpt>
      <trkpt lat="43.23211337439715862274169921875" lon="-1.57312204129993915557861328125">
        <ele>566</ele>
        <time>2020-08-22T15:12:48.000Z</time>
      </trkpt>
      <trkpt lat="43.23218889534473419189453125" lon="-1.5730512142181396484375">
        <ele>565.5999755859375</ele>
        <time>2020-08-22T15:12:50.000Z</time>
      </trkpt>
      <trkpt lat="43.2322316430509090423583984375" lon="-1.57302062027156352996826171875">
        <ele>565.5999755859375</ele>
        <time>2020-08-22T15:12:51.000Z</time>
      </trkpt>
      <trkpt lat="43.23227514512836933135986328125" lon="-1.5729920379817485809326171875">
        <ele>564.79998779296875</ele>
        <time>2020-08-22T15:12:52.000Z</time>
      </trkpt>
      <trkpt lat="43.232464492321014404296875" lon="-1.572877876460552215576171875">
        <ele>563.79998779296875</ele>
        <time>2020-08-22T15:12:56.000Z</time>
      </trkpt>
      <trkpt lat="43.232515789568424224853515625" lon="-1.57285029999911785125732421875">
        <ele>563.20001220703125</ele>
        <time>2020-08-22T15:12:57.000Z</time>
      </trkpt>
      <trkpt lat="43.2325682602822780609130859375" lon="-1.572824902832508087158203125">
        <ele>562.5999755859375</ele>
        <time>2020-08-22T15:12:58.000Z</time>
      </trkpt>
      <trkpt lat="43.2326696813106536865234375" lon="-1.5727818198502063751220703125">
        <ele>561.79998779296875</ele>
        <time>2020-08-22T15:13:00.000Z</time>
      </trkpt>
      <trkpt lat="43.23277168907225131988525390625" lon="-1.57274737022817134857177734375">
        <ele>560.79998779296875</ele>
        <time>2020-08-22T15:13:02.000Z</time>
      </trkpt>
      <trkpt lat="43.232876546680927276611328125" lon="-1.5727231465280055999755859375">
        <ele>560</ele>
        <time>2020-08-22T15:13:04.000Z</time>
      </trkpt>
      <trkpt lat="43.2329285144805908203125" lon="-1.57271350733935832977294921875">
        <ele>559.20001220703125</ele>
        <time>2020-08-22T15:13:05.000Z</time>
      </trkpt>
      <trkpt lat="43.2330235652625560760498046875" lon="-1.57269942574203014373779296875">
        <ele>558</ele>
        <time>2020-08-22T15:13:07.000Z</time>
      </trkpt>
      <trkpt lat="43.23312473483383655548095703125" lon="-1.5726912952959537506103515625">
        <ele>557.5999755859375</ele>
        <time>2020-08-22T15:13:09.000Z</time>
      </trkpt>
      <trkpt lat="43.233319111168384552001953125" lon="-1.57265801914036273956298828125">
        <ele>556.5999755859375</ele>
        <time>2020-08-22T15:13:13.000Z</time>
      </trkpt>
      <trkpt lat="43.23339597322046756744384765625" lon="-1.5726406686007976531982421875">
        <ele>555.20001220703125</ele>
        <time>2020-08-22T15:13:15.000Z</time>
      </trkpt>
      <trkpt lat="43.23365916498005390167236328125" lon="-1.57252709381282329559326171875">
        <ele>555.20001220703125</ele>
        <time>2020-08-22T15:13:23.000Z</time>
      </trkpt>
      <trkpt lat="43.23370560072362422943115234375" lon="-1.5724790655076503753662109375">
        <ele>554</ele>
        <time>2020-08-22T15:13:25.000Z</time>
      </trkpt>
      <trkpt lat="43.23375999927520751953125" lon="-1.5724408440291881561279296875">
        <ele>553</ele>
        <time>2020-08-22T15:13:27.000Z</time>
      </trkpt>
      <trkpt lat="43.2337953709065914154052734375" lon="-1.572421230375766754150390625">
        <ele>552.79998779296875</ele>
        <time>2020-08-22T15:13:28.000Z</time>
      </trkpt>
      <trkpt lat="43.23390324600040912628173828125" lon="-1.5723644010722637176513671875">
        <ele>551.79998779296875</ele>
        <time>2020-08-22T15:13:31.000Z</time>
      </trkpt>
      <trkpt lat="43.23402796871960163116455078125" lon="-1.57231771387159824371337890625">
        <ele>550.79998779296875</ele>
        <time>2020-08-22T15:13:35.000Z</time>
      </trkpt>
      <trkpt lat="43.23405143804848194122314453125" lon="-1.57231369055807590484619140625">
        <ele>550.79998779296875</ele>
        <time>2020-08-22T15:13:36.000Z</time>
      </trkpt>
      <trkpt lat="43.23407339863479137420654296875" lon="-1.57231369055807590484619140625">
        <ele>550</ele>
        <time>2020-08-22T15:13:39.000Z</time>
      </trkpt>
      <trkpt lat="43.23407591320574283599853515625" lon="-1.57231620512902736663818359375">
        <ele>550.20001220703125</ele>
        <time>2020-08-22T15:13:55.000Z</time>
      </trkpt>
      <trkpt lat="43.23407557792961597442626953125" lon="-1.57231620512902736663818359375">
        <ele>550.4000244140625</ele>
        <time>2020-08-22T15:14:15.000Z</time>
      </trkpt>
      <trkpt lat="43.23409955017268657684326171875" lon="-1.572342775762081146240234375">
        <ele>550.20001220703125</ele>
        <time>2020-08-22T15:14:29.000Z</time>
      </trkpt>
      <trkpt lat="43.234186470508575439453125" lon="-1.57249725423753261566162109375">
        <ele>550.5999755859375</ele>
        <time>2020-08-22T15:14:33.000Z</time>
      </trkpt>
      <trkpt lat="43.23430021293461322784423828125" lon="-1.5727328695356845855712890625">
        <ele>549.79998779296875</ele>
        <time>2020-08-22T15:14:37.000Z</time>
      </trkpt>
      <trkpt lat="43.23433038778603076934814453125" lon="-1.5728026069700717926025390625">
        <ele>549.5999755859375</ele>
        <time>2020-08-22T15:14:38.000Z</time>
      </trkpt>
      <trkpt lat="43.23435938917100429534912109375" lon="-1.57287888228893280029296875">
        <ele>549.20001220703125</ele>
        <time>2020-08-22T15:14:39.000Z</time>
      </trkpt>
      <trkpt lat="43.2343878038227558135986328125" lon="-1.5729618631303310394287109375">
        <ele>548.5999755859375</ele>
        <time>2020-08-22T15:14:40.000Z</time>
      </trkpt>
      <trkpt lat="43.23444538749754428863525390625" lon="-1.57314098440110683441162109375">
        <ele>546.5999755859375</ele>
        <time>2020-08-22T15:14:42.000Z</time>
      </trkpt>
      <trkpt lat="43.2345017977058887481689453125" lon="-1.57333175651729106903076171875">
        <ele>545.20001220703125</ele>
        <time>2020-08-22T15:14:44.000Z</time>
      </trkpt>
      <trkpt lat="43.23452803306281566619873046875" lon="-1.57343049533665180206298828125">
        <ele>545.20001220703125</ele>
        <time>2020-08-22T15:14:45.000Z</time>
      </trkpt>
      <trkpt lat="43.234623335301876068115234375" lon="-1.57382830046117305755615234375">
        <ele>544.20001220703125</ele>
        <time>2020-08-22T15:14:49.000Z</time>
      </trkpt>
      <trkpt lat="43.23472282849252223968505859375" lon="-1.57410867512226104736328125">
        <ele>543.4000244140625</ele>
        <time>2020-08-22T15:14:52.000Z</time>
      </trkpt>
      <trkpt lat="43.234758116304874420166015625" lon="-1.57420146279036998748779296875">
        <ele>542.5999755859375</ele>
        <time>2020-08-22T15:14:53.000Z</time>
      </trkpt>
      <trkpt lat="43.23478518985211849212646484375" lon="-1.57429416663944721221923828125">
        <ele>541.79998779296875</ele>
        <time>2020-08-22T15:14:54.000Z</time>
      </trkpt>
      <trkpt lat="43.23479725979268550872802734375" lon="-1.57438360154628753662109375">
        <ele>541.4000244140625</ele>
        <time>2020-08-22T15:14:55.000Z</time>
      </trkpt>
      <trkpt lat="43.2347901351749897003173828125" lon="-1.57446281053125858306884765625">
        <ele>541.20001220703125</ele>
        <time>2020-08-22T15:14:56.000Z</time>
      </trkpt>
      <trkpt lat="43.23473154567182064056396484375" lon="-1.57457194291055202484130859375">
        <ele>541.20001220703125</ele>
        <time>2020-08-22T15:14:58.000Z</time>
      </trkpt>
      <trkpt lat="43.2347029633820056915283203125" lon="-1.5746201388537883758544921875">
        <ele>541.20001220703125</ele>
        <time>2020-08-22T15:14:59.000Z</time>
      </trkpt>
      <trkpt lat="43.2346697710454463958740234375" lon="-1.5748588554561138153076171875">
        <ele>540.5999755859375</ele>
        <time>2020-08-22T15:15:03.000Z</time>
      </trkpt>
      <trkpt lat="43.23469407856464385986328125" lon="-1.5749824047088623046875">
        <ele>540.5999755859375</ele>
        <time>2020-08-22T15:15:05.000Z</time>
      </trkpt>
      <trkpt lat="43.2347566075623035430908203125" lon="-1.575202010571956634521484375">
        <ele>541</ele>
        <time>2020-08-22T15:15:09.000Z</time>
      </trkpt>
      <trkpt lat="43.2348296977579593658447265625" lon="-1.5754077024757862091064453125">
        <ele>540.20001220703125</ele>
        <time>2020-08-22T15:15:13.000Z</time>
      </trkpt>
      <trkpt lat="43.23490421287715435028076171875" lon="-1.57558095641434192657470703125">
        <ele>539</ele>
        <time>2020-08-22T15:15:16.000Z</time>
      </trkpt>
      <trkpt lat="43.23503798805177211761474609375" lon="-1.5758313238620758056640625">
        <ele>538.20001220703125</ele>
        <time>2020-08-22T15:15:20.000Z</time>
      </trkpt>
      <trkpt lat="43.23508090339601039886474609375" lon="-1.57589293085038661956787109375">
        <ele>538</ele>
        <time>2020-08-22T15:15:21.000Z</time>
      </trkpt>
      <trkpt lat="43.23512817732989788055419921875" lon="-1.57595395110547542572021484375">
        <ele>537.79998779296875</ele>
        <time>2020-08-22T15:15:22.000Z</time>
      </trkpt>
      <trkpt lat="43.23523496277630329132080078125" lon="-1.576079763472080230712890625">
        <ele>536.5999755859375</ele>
        <time>2020-08-22T15:15:24.000Z</time>
      </trkpt>
      <trkpt lat="43.23541224002838134765625" lon="-1.57629861496388912200927734375">
        <ele>535.5999755859375</ele>
        <time>2020-08-22T15:15:27.000Z</time>
      </trkpt>
      <trkpt lat="43.23549874126911163330078125" lon="-1.57649290747940540313720703125">
        <ele>534</ele>
        <time>2020-08-22T15:15:29.000Z</time>
      </trkpt>
      <trkpt lat="43.23552665300667285919189453125" lon="-1.57659801654517650604248046875">
        <ele>533.20001220703125</ele>
        <time>2020-08-22T15:15:30.000Z</time>
      </trkpt>
      <trkpt lat="43.23554559610784053802490234375" lon="-1.57671016640961170196533203125">
        <ele>532.5999755859375</ele>
        <time>2020-08-22T15:15:31.000Z</time>
      </trkpt>
      <trkpt lat="43.2355557382106781005859375" lon="-1.5768156945705413818359375">
        <ele>531.5999755859375</ele>
        <time>2020-08-22T15:15:32.000Z</time>
      </trkpt>
      <trkpt lat="43.2355512119829654693603515625" lon="-1.57703504897654056549072265625">
        <ele>530.4000244140625</ele>
        <time>2020-08-22T15:15:34.000Z</time>
      </trkpt>
      <trkpt lat="43.23554358445107936859130859375" lon="-1.57713764347136020660400390625">
        <ele>529.4000244140625</ele>
        <time>2020-08-22T15:15:35.000Z</time>
      </trkpt>
      <trkpt lat="43.23553972877562046051025390625" lon="-1.57723453827202320098876953125">
        <ele>528.79998779296875</ele>
        <time>2020-08-22T15:15:36.000Z</time>
      </trkpt>
      <trkpt lat="43.2355455122888088226318359375" lon="-1.5773298405110836029052734375">
        <ele>528.20001220703125</ele>
        <time>2020-08-22T15:15:37.000Z</time>
      </trkpt>
      <trkpt lat="43.2355629466474056243896484375" lon="-1.577420867979526519775390625">
        <ele>528</ele>
        <time>2020-08-22T15:15:38.000Z</time>
      </trkpt>
      <trkpt lat="43.23561675846576690673828125" lon="-1.57760820351541042327880859375">
        <ele>526.20001220703125</ele>
        <time>2020-08-22T15:15:40.000Z</time>
      </trkpt>
      <trkpt lat="43.2357054390013217926025390625" lon="-1.57790006138384342193603515625">
        <ele>524.5999755859375</ele>
        <time>2020-08-22T15:15:43.000Z</time>
      </trkpt>
      <trkpt lat="43.23570921085774898529052734375" lon="-1.57808664254844188690185546875">
        <ele>523.5999755859375</ele>
        <time>2020-08-22T15:15:45.000Z</time>
      </trkpt>
      <trkpt lat="43.235682137310504913330078125" lon="-1.578168533742427825927734375">
        <ele>523</ele>
        <time>2020-08-22T15:15:46.000Z</time>
      </trkpt>
      <trkpt lat="43.2356040179729461669921875" lon="-1.57829719595611095428466796875">
        <ele>522.4000244140625</ele>
        <time>2020-08-22T15:15:48.000Z</time>
      </trkpt>
      <trkpt lat="43.23552531190216541290283203125" lon="-1.578389145433902740478515625">
        <ele>522</ele>
        <time>2020-08-22T15:15:50.000Z</time>
      </trkpt>
      <trkpt lat="43.23549211956560611724853515625" lon="-1.57843365333974361419677734375">
        <ele>522</ele>
        <time>2020-08-22T15:15:51.000Z</time>
      </trkpt>
      <trkpt lat="43.235377036035060882568359375" lon="-1.5786588750779628753662109375">
        <ele>522</ele>
        <time>2020-08-22T15:15:55.000Z</time>
      </trkpt>
      <trkpt lat="43.23535113595426082611083984375" lon="-1.57872316427528858184814453125">
        <ele>521.20001220703125</ele>
        <time>2020-08-22T15:15:56.000Z</time>
      </trkpt>
      <trkpt lat="43.23526673018932342529296875" lon="-1.579009406268596649169921875">
        <ele>520</ele>
        <time>2020-08-22T15:16:00.000Z</time>
      </trkpt>
      <trkpt lat="43.23524870909750461578369140625" lon="-1.57908660359680652618408203125">
        <ele>519.5999755859375</ele>
        <time>2020-08-22T15:16:01.000Z</time>
      </trkpt>
      <trkpt lat="43.23518483899533748626708984375" lon="-1.57940276898443698883056640625">
        <ele>518.79998779296875</ele>
        <time>2020-08-22T15:16:05.000Z</time>
      </trkpt>
      <trkpt lat="43.2351505570113658905029296875" lon="-1.57972916029393672943115234375">
        <ele>518.20001220703125</ele>
        <time>2020-08-22T15:16:09.000Z</time>
      </trkpt>
      <trkpt lat="43.2351079769432544708251953125" lon="-1.5799862332642078399658203125">
        <ele>517.79998779296875</ele>
        <time>2020-08-22T15:16:12.000Z</time>
      </trkpt>
      <trkpt lat="43.23508308269083499908447265625" lon="-1.58007013611495494842529296875">
        <ele>517.79998779296875</ele>
        <time>2020-08-22T15:16:13.000Z</time>
      </trkpt>
      <trkpt lat="43.2350513152778148651123046875" lon="-1.58014926128089427947998046875">
        <ele>517.5999755859375</ele>
        <time>2020-08-22T15:16:14.000Z</time>
      </trkpt>
      <trkpt lat="43.234911672770977020263671875" lon="-1.58043039031326770782470703125">
        <ele>516.4000244140625</ele>
        <time>2020-08-22T15:16:18.000Z</time>
      </trkpt>
      <trkpt lat="43.2348471321165561676025390625" lon="-1.58056835643947124481201171875">
        <ele>515.79998779296875</ele>
        <time>2020-08-22T15:16:20.000Z</time>
      </trkpt>
      <trkpt lat="43.23481067083775997161865234375" lon="-1.58063373528420925140380859375">
        <ele>515.79998779296875</ele>
        <time>2020-08-22T15:16:21.000Z</time>
      </trkpt>
      <trkpt lat="43.234636075794696807861328125" lon="-1.5808478929102420806884765625">
        <ele>516</ele>
        <time>2020-08-22T15:16:25.000Z</time>
      </trkpt>
      <trkpt lat="43.2344347424805164337158203125" lon="-1.58103925175964832305908203125">
        <ele>517</ele>
        <time>2020-08-22T15:16:30.000Z</time>
      </trkpt>
      <trkpt lat="43.234180770814418792724609375" lon="-1.58139280043542385101318359375">
        <ele>515.4000244140625</ele>
        <time>2020-08-22T15:16:38.000Z</time>
      </trkpt>
      <trkpt lat="43.23411363177001476287841796875" lon="-1.5814906172454357147216796875">
        <ele>515.20001220703125</ele>
        <time>2020-08-22T15:16:40.000Z</time>
      </trkpt>
      <trkpt lat="43.23379528708755970001220703125" lon="-1.58194986172020435333251953125">
        <ele>515.20001220703125</ele>
        <time>2020-08-22T15:16:49.000Z</time>
      </trkpt>
      <trkpt lat="43.23376125656068325042724609375" lon="-1.58200300298631191253662109375">
        <ele>515.20001220703125</ele>
        <time>2020-08-22T15:16:50.000Z</time>
      </trkpt>
      <trkpt lat="43.23365966789424419403076171875" lon="-1.58227357082068920135498046875">
        <ele>513.79998779296875</ele>
        <time>2020-08-22T15:16:54.000Z</time>
      </trkpt>
      <trkpt lat="43.2336411438882350921630859375" lon="-1.58235537819564342498779296875">
        <ele>513.4000244140625</ele>
        <time>2020-08-22T15:16:55.000Z</time>
      </trkpt>
      <trkpt lat="43.233609460294246673583984375" lon="-1.58252687193453311920166015625">
        <ele>512.79998779296875</ele>
        <time>2020-08-22T15:16:57.000Z</time>
      </trkpt>
      <trkpt lat="43.23358171619474887847900390625" lon="-1.58269870094954967498779296875">
        <ele>512</ele>
        <time>2020-08-22T15:16:59.000Z</time>
      </trkpt>
      <trkpt lat="43.2335744239389896392822265625" lon="-1.58278235234320163726806640625">
        <ele>511.79998779296875</ele>
        <time>2020-08-22T15:17:00.000Z</time>
      </trkpt>
      <trkpt lat="43.23357098735868930816650390625" lon="-1.5832028724253177642822265625">
        <ele>510.600006103515625</ele>
        <time>2020-08-22T15:17:05.000Z</time>
      </trkpt>
      <trkpt lat="43.23356461711227893829345703125" lon="-1.58328409306704998016357421875">
        <ele>510</ele>
        <time>2020-08-22T15:17:06.000Z</time>
      </trkpt>
      <trkpt lat="43.23353880085051059722900390625" lon="-1.58360235393047332763671875">
        <ele>509.20001220703125</ele>
        <time>2020-08-22T15:17:10.000Z</time>
      </trkpt>
      <trkpt lat="43.23354332707822322845458984375" lon="-1.583923213183879852294921875">
        <ele>508</ele>
        <time>2020-08-22T15:17:14.000Z</time>
      </trkpt>
      <trkpt lat="43.23354349471628665924072265625" lon="-1.58408389426767826080322265625">
        <ele>507.20001220703125</ele>
        <time>2020-08-22T15:17:16.000Z</time>
      </trkpt>
      <trkpt lat="43.23355036787688732147216796875" lon="-1.58426159061491489410400390625">
        <ele>505.600006103515625</ele>
        <time>2020-08-22T15:17:18.000Z</time>
      </trkpt>
      <trkpt lat="43.23356344364583492279052734375" lon="-1.5845392830669879913330078125">
        <ele>504.399993896484375</ele>
        <time>2020-08-22T15:17:21.000Z</time>
      </trkpt>
      <trkpt lat="43.233563192188739776611328125" lon="-1.5846348367631435394287109375">
        <ele>503.79998779296875</ele>
        <time>2020-08-22T15:17:22.000Z</time>
      </trkpt>
      <trkpt lat="43.23355707339942455291748046875" lon="-1.5847293846309185028076171875">
        <ele>503.20001220703125</ele>
        <time>2020-08-22T15:17:23.000Z</time>
      </trkpt>
      <trkpt lat="43.23352974839508533477783203125" lon="-1.58491470851004123687744140625">
        <ele>502</ele>
        <time>2020-08-22T15:17:25.000Z</time>
      </trkpt>
      <trkpt lat="43.23351080529391765594482421875" lon="-1.5850063227117061614990234375">
        <ele>501.79998779296875</ele>
        <time>2020-08-22T15:17:26.000Z</time>
      </trkpt>
      <trkpt lat="43.23347459547221660614013671875" lon="-1.58519047312438488006591796875">
        <ele>501</ele>
        <time>2020-08-22T15:17:28.000Z</time>
      </trkpt>
      <trkpt lat="43.23344659991562366485595703125" lon="-1.5853734500706195831298828125">
        <ele>499.600006103515625</ele>
        <time>2020-08-22T15:17:30.000Z</time>
      </trkpt>
      <trkpt lat="43.233431093394756317138671875" lon="-1.58557000569999217987060546875">
        <ele>498.20001220703125</ele>
        <time>2020-08-22T15:17:32.000Z</time>
      </trkpt>
      <trkpt lat="43.233429752290248870849609375" lon="-1.5859920345246791839599609375">
        <ele>496</ele>
        <time>2020-08-22T15:17:36.000Z</time>
      </trkpt>
      <trkpt lat="43.2334272377192974090576171875" lon="-1.5860961377620697021484375">
        <ele>495.20001220703125</ele>
        <time>2020-08-22T15:17:37.000Z</time>
      </trkpt>
      <trkpt lat="43.23342564515769481658935546875" lon="-1.58620099537074565887451171875">
        <ele>494</ele>
        <time>2020-08-22T15:17:38.000Z</time>
      </trkpt>
      <trkpt lat="43.23342564515769481658935546875" lon="-1.5864097885787487030029296875">
        <ele>492.20001220703125</ele>
        <time>2020-08-22T15:17:40.000Z</time>
      </trkpt>
      <trkpt lat="43.23342740535736083984375" lon="-1.58662210218608379364013671875">
        <ele>490.600006103515625</ele>
        <time>2020-08-22T15:17:42.000Z</time>
      </trkpt>
      <trkpt lat="43.233439810574054718017578125" lon="-1.586946733295917510986328125">
        <ele>489.600006103515625</ele>
        <time>2020-08-22T15:17:45.000Z</time>
      </trkpt>
      <trkpt lat="43.23344240896403789520263671875" lon="-1.58706106245517730712890625">
        <ele>488.600006103515625</ele>
        <time>2020-08-22T15:17:46.000Z</time>
      </trkpt>
      <trkpt lat="43.23344375006854534149169921875" lon="-1.5871782414615154266357421875">
        <ele>487.399993896484375</ele>
        <time>2020-08-22T15:17:47.000Z</time>
      </trkpt>
      <trkpt lat="43.23344609700143337249755859375" lon="-1.58740974962711334228515625">
        <ele>485.79998779296875</ele>
        <time>2020-08-22T15:17:49.000Z</time>
      </trkpt>
      <trkpt lat="43.23345355689525604248046875" lon="-1.5876446105539798736572265625">
        <ele>484.399993896484375</ele>
        <time>2020-08-22T15:17:51.000Z</time>
      </trkpt>
      <trkpt lat="43.2334609329700469970703125" lon="-1.58788257278501987457275390625">
        <ele>482.399993896484375</ele>
        <time>2020-08-22T15:17:53.000Z</time>
      </trkpt>
      <trkpt lat="43.2334580831229686737060546875" lon="-1.5881297551095485687255859375">
        <ele>480.600006103515625</ele>
        <time>2020-08-22T15:17:55.000Z</time>
      </trkpt>
      <trkpt lat="43.2334490306675434112548828125" lon="-1.5883879177272319793701171875">
        <ele>479</ele>
        <time>2020-08-22T15:17:57.000Z</time>
      </trkpt>
      <trkpt lat="43.23344559408724308013916015625" lon="-1.5886615030467510223388671875">
        <ele>477.79998779296875</ele>
        <time>2020-08-22T15:17:59.000Z</time>
      </trkpt>
      <trkpt lat="43.23344542644917964935302734375" lon="-1.5889478288590908050537109375">
        <ele>476.79998779296875</ele>
        <time>2020-08-22T15:18:01.000Z</time>
      </trkpt>
      <trkpt lat="43.23344592936336994171142578125" lon="-1.58923574723303318023681640625">
        <ele>475.600006103515625</ele>
        <time>2020-08-22T15:18:03.000Z</time>
      </trkpt>
      <trkpt lat="43.2334486953914165496826171875" lon="-1.58937907777726650238037109375">
        <ele>474.600006103515625</ele>
        <time>2020-08-22T15:18:04.000Z</time>
      </trkpt>
      <trkpt lat="43.23345062322914600372314453125" lon="-1.5895194746553897857666015625">
        <ele>474.20001220703125</ele>
        <time>2020-08-22T15:18:05.000Z</time>
      </trkpt>
      <trkpt lat="43.2334215380251407623291015625" lon="-1.59001124091446399688720703125">
        <ele>473.600006103515625</ele>
        <time>2020-08-22T15:18:09.000Z</time>
      </trkpt>
      <trkpt lat="43.23339588940143585205078125" lon="-1.590241491794586181640625">
        <ele>474</ele>
        <time>2020-08-22T15:18:12.000Z</time>
      </trkpt>
      <trkpt lat="43.23337568901479244232177734375" lon="-1.5903714112937450408935546875">
        <ele>474.600006103515625</ele>
        <time>2020-08-22T15:18:16.000Z</time>
      </trkpt>
      <trkpt lat="43.23334400542080402374267578125" lon="-1.5905232913792133331298828125">
        <ele>475.20001220703125</ele>
        <time>2020-08-22T15:18:21.000Z</time>
      </trkpt>
      <trkpt lat="43.2332770340144634246826171875" lon="-1.59077349118888378143310546875">
        <ele>474.399993896484375</ele>
        <time>2020-08-22T15:18:27.000Z</time>
      </trkpt>
      <trkpt lat="43.23325498960912227630615234375" lon="-1.5908195078372955322265625">
        <ele>474.20001220703125</ele>
        <time>2020-08-22T15:18:28.000Z</time>
      </trkpt>
      <trkpt lat="43.2332302629947662353515625" lon="-1.59086468629539012908935546875">
        <ele>474</ele>
        <time>2020-08-22T15:18:29.000Z</time>
      </trkpt>
      <trkpt lat="43.23310528881847858428955078125" lon="-1.59101455472409725189208984375">
        <ele>473.600006103515625</ele>
        <time>2020-08-22T15:18:33.000Z</time>
      </trkpt>
      <trkpt lat="43.23288065381348133087158203125" lon="-1.5913291275501251220703125">
        <ele>474</ele>
        <time>2020-08-22T15:18:41.000Z</time>
      </trkpt>
      <trkpt lat="43.2327057234942913055419921875" lon="-1.59160614944994449615478515625">
        <ele>474.600006103515625</ele>
        <time>2020-08-22T15:18:49.000Z</time>
      </trkpt>
      <trkpt lat="43.23257756419479846954345703125" lon="-1.59180228598415851593017578125">
        <ele>475.399993896484375</ele>
        <time>2020-08-22T15:18:56.000Z</time>
      </trkpt>
      <trkpt lat="43.23255945928394794464111328125" lon="-1.59182910807430744171142578125">
        <ele>475.399993896484375</ele>
        <time>2020-08-22T15:18:57.000Z</time>
      </trkpt>
      <trkpt lat="43.23244848288595676422119140625" lon="-1.5919703431427478790283203125">
        <ele>476.600006103515625</ele>
        <time>2020-08-22T15:19:03.000Z</time>
      </trkpt>
      <trkpt lat="43.2324160449206829071044921875" lon="-1.59202557988464832305908203125">
        <ele>476.79998779296875</ele>
        <time>2020-08-22T15:19:05.000Z</time>
      </trkpt>
      <trkpt lat="43.23234152980148792266845703125" lon="-1.592216603457927703857421875">
        <ele>477</ele>
        <time>2020-08-22T15:19:11.000Z</time>
      </trkpt>
      <trkpt lat="43.23226475156843662261962890625" lon="-1.5924957208335399627685546875">
        <ele>477.399993896484375</ele>
        <time>2020-08-22T15:19:18.000Z</time>
      </trkpt>
      <trkpt lat="43.232195936143398284912109375" lon="-1.59285689704120159149169921875">
        <ele>477.399993896484375</ele>
        <time>2020-08-22T15:19:25.000Z</time>
      </trkpt>
      <trkpt lat="43.2321707904338836669921875" lon="-1.592962928116321563720703125">
        <ele>477.20001220703125</ele>
        <time>2020-08-22T15:19:27.000Z</time>
      </trkpt>
      <trkpt lat="43.23210482485592365264892578125" lon="-1.59316233359277248382568359375">
        <ele>477</ele>
        <time>2020-08-22T15:19:31.000Z</time>
      </trkpt>
      <trkpt lat="43.23201614432036876678466796875" lon="-1.5935380943119525909423828125">
        <ele>475.600006103515625</ele>
        <time>2020-08-22T15:19:37.000Z</time>
      </trkpt>
      <trkpt lat="43.23200155980885028839111328125" lon="-1.593608669936656951904296875">
        <ele>475.399993896484375</ele>
        <time>2020-08-22T15:19:38.000Z</time>
      </trkpt>
      <trkpt lat="43.23197658173739910125732421875" lon="-1.5937597118318080902099609375">
        <ele>474.399993896484375</ele>
        <time>2020-08-22T15:19:40.000Z</time>
      </trkpt>
      <trkpt lat="43.2319520227611064910888671875" lon="-1.59391704015433788299560546875">
        <ele>473</ele>
        <time>2020-08-22T15:19:42.000Z</time>
      </trkpt>
      <trkpt lat="43.23192545212805271148681640625" lon="-1.59407897852361202239990234375">
        <ele>471.79998779296875</ele>
        <time>2020-08-22T15:19:44.000Z</time>
      </trkpt>
      <trkpt lat="43.2318386994302272796630859375" lon="-1.5943937189877033233642578125">
        <ele>470.20001220703125</ele>
        <time>2020-08-22T15:19:48.000Z</time>
      </trkpt>
      <trkpt lat="43.2317820377647876739501953125" lon="-1.59454182721674442291259765625">
        <ele>468.79998779296875</ele>
        <time>2020-08-22T15:19:50.000Z</time>
      </trkpt>
      <trkpt lat="43.231702409684658050537109375" lon="-1.59476260654628276824951171875">
        <ele>467.600006103515625</ele>
        <time>2020-08-22T15:19:53.000Z</time>
      </trkpt>
      <trkpt lat="43.23166091926395893096923828125" lon="-1.594917587935924530029296875">
        <ele>466.600006103515625</ele>
        <time>2020-08-22T15:19:55.000Z</time>
      </trkpt>
      <trkpt lat="43.231644071638584136962890625" lon="-1.5949995629489421844482421875">
        <ele>465.600006103515625</ele>
        <time>2020-08-22T15:19:56.000Z</time>
      </trkpt>
      <trkpt lat="43.2316294871270656585693359375" lon="-1.59508547745645046234130859375">
        <ele>465</ele>
        <time>2020-08-22T15:19:57.000Z</time>
      </trkpt>
      <trkpt lat="43.231616578996181488037109375" lon="-1.59517633728682994842529296875">
        <ele>463.79998779296875</ele>
        <time>2020-08-22T15:19:58.000Z</time>
      </trkpt>
      <trkpt lat="43.2315932773053646087646484375" lon="-1.59537163563072681427001953125">
        <ele>462.600006103515625</ele>
        <time>2020-08-22T15:20:00.000Z</time>
      </trkpt>
      <trkpt lat="43.23158263228833675384521484375" lon="-1.5954729728400707244873046875">
        <ele>462.20001220703125</ele>
        <time>2020-08-22T15:20:01.000Z</time>
      </trkpt>
      <trkpt lat="43.23157223872840404510498046875" lon="-1.5955752320587635040283203125">
        <ele>461.600006103515625</ele>
        <time>2020-08-22T15:20:02.000Z</time>
      </trkpt>
      <trkpt lat="43.23156268335878849029541015625" lon="-1.59567606635391712188720703125">
        <ele>460.20001220703125</ele>
        <time>2020-08-22T15:20:03.000Z</time>
      </trkpt>
      <trkpt lat="43.23155279271304607391357421875" lon="-1.59577815793454647064208984375">
        <ele>459.20001220703125</ele>
        <time>2020-08-22T15:20:04.000Z</time>
      </trkpt>
      <trkpt lat="43.231524713337421417236328125" lon="-1.595990471541881561279296875">
        <ele>456.79998779296875</ele>
        <time>2020-08-22T15:20:06.000Z</time>
      </trkpt>
      <trkpt lat="43.231498561799526214599609375" lon="-1.5960927307605743408203125">
        <ele>455.399993896484375</ele>
        <time>2020-08-22T15:20:07.000Z</time>
      </trkpt>
      <trkpt lat="43.2314358651638031005859375" lon="-1.59626699052751064300537109375">
        <ele>454.20001220703125</ele>
        <time>2020-08-22T15:20:09.000Z</time>
      </trkpt>
      <trkpt lat="43.231404684484004974365234375" lon="-1.5963433496654033660888671875">
        <ele>453.399993896484375</ele>
        <time>2020-08-22T15:20:10.000Z</time>
      </trkpt>
      <trkpt lat="43.2313746772706508636474609375" lon="-1.59641870297491550445556640625">
        <ele>452.79998779296875</ele>
        <time>2020-08-22T15:20:11.000Z</time>
      </trkpt>
      <trkpt lat="43.2313434965908527374267578125" lon="-1.59649799577891826629638671875">
        <ele>452.20001220703125</ele>
        <time>2020-08-22T15:20:12.000Z</time>
      </trkpt>
      <trkpt lat="43.23131474666297435760498046875" lon="-1.5965800546109676361083984375">
        <ele>451.20001220703125</ele>
        <time>2020-08-22T15:20:13.000Z</time>
      </trkpt>
      <trkpt lat="43.23126948438584804534912109375" lon="-1.59675330854952335357666015625">
        <ele>450.20001220703125</ele>
        <time>2020-08-22T15:20:15.000Z</time>
      </trkpt>
      <trkpt lat="43.23122321628034114837646484375" lon="-1.59693251363933086395263671875">
        <ele>449.20001220703125</ele>
        <time>2020-08-22T15:20:17.000Z</time>
      </trkpt>
      <trkpt lat="43.23119287379086017608642578125" lon="-1.59701247699558734893798828125">
        <ele>449</ele>
        <time>2020-08-22T15:20:18.000Z</time>
      </trkpt>
      <trkpt lat="43.23110503144562244415283203125" lon="-1.5971361100673675537109375">
        <ele>447.399993896484375</ele>
        <time>2020-08-22T15:20:20.000Z</time>
      </trkpt>
      <trkpt lat="43.23100729845464229583740234375" lon="-1.59722395241260528564453125">
        <ele>445.600006103515625</ele>
        <time>2020-08-22T15:20:22.000Z</time>
      </trkpt>
      <trkpt lat="43.23095700703561305999755859375" lon="-1.59727298654615879058837890625">
        <ele>444.399993896484375</ele>
        <time>2020-08-22T15:20:23.000Z</time>
      </trkpt>
      <trkpt lat="43.230862207710742950439453125" lon="-1.5973964519798755645751953125">
        <ele>443.600006103515625</ele>
        <time>2020-08-22T15:20:25.000Z</time>
      </trkpt>
      <trkpt lat="43.23081786744296550750732421875" lon="-1.5974655188620090484619140625">
        <ele>443.399993896484375</ele>
        <time>2020-08-22T15:20:26.000Z</time>
      </trkpt>
      <trkpt lat="43.2307074777781963348388671875" lon="-1.59769157879054546356201171875">
        <ele>442.600006103515625</ele>
        <time>2020-08-22T15:20:29.000Z</time>
      </trkpt>
      <trkpt lat="43.23067353107035160064697265625" lon="-1.5977722965180873870849609375">
        <ele>442.399993896484375</ele>
        <time>2020-08-22T15:20:30.000Z</time>
      </trkpt>
      <trkpt lat="43.23064251802861690521240234375" lon="-1.59785427153110504150390625">
        <ele>442.399993896484375</ele>
        <time>2020-08-22T15:20:31.000Z</time>
      </trkpt>
      <trkpt lat="43.2305854372680187225341796875" lon="-1.5980136953294277191162109375">
        <ele>441</ele>
        <time>2020-08-22T15:20:33.000Z</time>
      </trkpt>
      <trkpt lat="43.23049910366535186767578125" lon="-1.5982638113200664520263671875">
        <ele>439</ele>
        <time>2020-08-22T15:20:36.000Z</time>
      </trkpt>
      <trkpt lat="43.23045006953179836273193359375" lon="-1.598455421626567840576171875">
        <ele>437.79998779296875</ele>
        <time>2020-08-22T15:20:38.000Z</time>
      </trkpt>
      <trkpt lat="43.23038971982896327972412109375" lon="-1.598661281168460845947265625">
        <ele>436.399993896484375</ele>
        <time>2020-08-22T15:20:40.000Z</time>
      </trkpt>
      <trkpt lat="43.23032350279390811920166015625" lon="-1.5988475270569324493408203125">
        <ele>435.20001220703125</ele>
        <time>2020-08-22T15:20:42.000Z</time>
      </trkpt>
      <trkpt lat="43.230258040130138397216796875" lon="-1.59902396611869335174560546875">
        <ele>434</ele>
        <time>2020-08-22T15:20:44.000Z</time>
      </trkpt>
      <trkpt lat="43.23014630936086177825927734375" lon="-1.5992783568799495697021484375">
        <ele>431.399993896484375</ele>
        <time>2020-08-22T15:20:47.000Z</time>
      </trkpt>
      <trkpt lat="43.230079002678394317626953125" lon="-1.599459908902645111083984375">
        <ele>429.79998779296875</ele>
        <time>2020-08-22T15:20:49.000Z</time>
      </trkpt>
      <trkpt lat="43.230015970766544342041015625" lon="-1.59964732825756072998046875">
        <ele>428.600006103515625</ele>
        <time>2020-08-22T15:20:51.000Z</time>
      </trkpt>
      <trkpt lat="43.2299849577248096466064453125" lon="-1.59974229522049427032470703125">
        <ele>427.399993896484375</ele>
        <time>2020-08-22T15:20:52.000Z</time>
      </trkpt>
      <trkpt lat="43.22995327413082122802734375" lon="-1.59983801655471324920654296875">
        <ele>426.399993896484375</ele>
        <time>2020-08-22T15:20:53.000Z</time>
      </trkpt>
      <trkpt lat="43.22991698049008846282958984375" lon="-1.59993164241313934326171875">
        <ele>425.600006103515625</ele>
        <time>2020-08-22T15:20:54.000Z</time>
      </trkpt>
      <trkpt lat="43.2298775017261505126953125" lon="-1.60002090968191623687744140625">
        <ele>424.79998779296875</ele>
        <time>2020-08-22T15:20:55.000Z</time>
      </trkpt>
      <trkpt lat="43.2297958619892597198486328125" lon="-1.60017882473766803741455078125">
        <ele>424.20001220703125</ele>
        <time>2020-08-22T15:20:57.000Z</time>
      </trkpt>
      <trkpt lat="43.22975152172148227691650390625" lon="-1.60024956800043582916259765625">
        <ele>423.600006103515625</ele>
        <time>2020-08-22T15:20:58.000Z</time>
      </trkpt>
      <trkpt lat="43.229647167026996612548828125" lon="-1.60039440728724002838134765625">
        <ele>422.399993896484375</ele>
        <time>2020-08-22T15:21:00.000Z</time>
      </trkpt>
      <trkpt lat="43.2295276410877704620361328125" lon="-1.60053840838372707366943359375">
        <ele>421</ele>
        <time>2020-08-22T15:21:02.000Z</time>
      </trkpt>
      <trkpt lat="43.22932370938360691070556640625" lon="-1.60070923157036304473876953125">
        <ele>419.79998779296875</ele>
        <time>2020-08-22T15:21:05.000Z</time>
      </trkpt>
      <trkpt lat="43.22918876074254512786865234375" lon="-1.60080193541944026947021484375">
        <ele>419</ele>
        <time>2020-08-22T15:21:07.000Z</time>
      </trkpt>
      <trkpt lat="43.22912472300231456756591796875" lon="-1.60083160735666751861572265625">
        <ele>418.600006103515625</ele>
        <time>2020-08-22T15:21:08.000Z</time>
      </trkpt>
      <trkpt lat="43.2290099747478961944580078125" lon="-1.600827164947986602783203125">
        <ele>418.20001220703125</ele>
        <time>2020-08-22T15:21:10.000Z</time>
      </trkpt>
      <trkpt lat="43.22882716543972492218017578125" lon="-1.60072566010057926177978515625">
        <ele>417.79998779296875</ele>
        <time>2020-08-22T15:21:14.000Z</time>
      </trkpt>
      <trkpt lat="43.2287866808474063873291015625" lon="-1.60071258433163166046142578125">
        <ele>417.399993896484375</ele>
        <time>2020-08-22T15:21:15.000Z</time>
      </trkpt>
      <trkpt lat="43.22863019071519374847412109375" lon="-1.60074259154498577117919921875">
        <ele>417</ele>
        <time>2020-08-22T15:21:19.000Z</time>
      </trkpt>
      <trkpt lat="43.228525333106517791748046875" lon="-1.60084602423012256622314453125">
        <ele>417</ele>
        <time>2020-08-22T15:21:22.000Z</time>
      </trkpt>
      <trkpt lat="43.22845836170017719268798828125" lon="-1.60093001089990139007568359375">
        <ele>417</ele>
        <time>2020-08-22T15:21:24.000Z</time>
      </trkpt>
      <trkpt lat="43.2283513247966766357421875" lon="-1.60105356015264987945556640625">
        <ele>416.20001220703125</ele>
        <time>2020-08-22T15:21:27.000Z</time>
      </trkpt>
      <trkpt lat="43.22818108834326267242431640625" lon="-1.60125003196299076080322265625">
        <ele>415.20001220703125</ele>
        <time>2020-08-22T15:21:32.000Z</time>
      </trkpt>
      <trkpt lat="43.2281540147960186004638671875" lon="-1.60129965282976627349853515625">
        <ele>415.20001220703125</ele>
        <time>2020-08-22T15:21:33.000Z</time>
      </trkpt>
      <trkpt lat="43.22811638005077838897705078125" lon="-1.601535268127918243408203125">
        <ele>414.20001220703125</ele>
        <time>2020-08-22T15:21:37.000Z</time>
      </trkpt>
      <trkpt lat="43.2282078266143798828125" lon="-1.60176199860870838165283203125">
        <ele>413.20001220703125</ele>
        <time>2020-08-22T15:21:41.000Z</time>
      </trkpt>
      <trkpt lat="43.22823657654225826263427734375" lon="-1.60181111656129360198974609375">
        <ele>413.20001220703125</ele>
        <time>2020-08-22T15:21:42.000Z</time>
      </trkpt>
      <trkpt lat="43.22830396704375743865966796875" lon="-1.60190231166779994964599609375">
        <ele>412</ele>
        <time>2020-08-22T15:21:44.000Z</time>
      </trkpt>
      <trkpt lat="43.22838208638131618499755859375" lon="-1.60198596306145191192626953125">
        <ele>411.20001220703125</ele>
        <time>2020-08-22T15:21:46.000Z</time>
      </trkpt>
      <trkpt lat="43.22847110219299793243408203125" lon="-1.60206592641770839691162109375">
        <ele>410.79998779296875</ele>
        <time>2020-08-22T15:21:48.000Z</time>
      </trkpt>
      <trkpt lat="43.22866371832787990570068359375" lon="-1.60224747844040393829345703125">
        <ele>409.399993896484375</ele>
        <time>2020-08-22T15:21:52.000Z</time>
      </trkpt>
      <trkpt lat="43.22870864532887935638427734375" lon="-1.60230330191552639007568359375">
        <ele>409.20001220703125</ele>
        <time>2020-08-22T15:21:53.000Z</time>
      </trkpt>
      <trkpt lat="43.2287813164293766021728515625" lon="-1.602425761520862579345703125">
        <ele>408.20001220703125</ele>
        <time>2020-08-22T15:21:55.000Z</time>
      </trkpt>
      <trkpt lat="43.228808976709842681884765625" lon="-1.6024949960410594940185546875">
        <ele>408</ele>
        <time>2020-08-22T15:21:56.000Z</time>
      </trkpt>
      <trkpt lat="43.2288406603038311004638671875" lon="-1.60264679230749607086181640625">
        <ele>407</ele>
        <time>2020-08-22T15:21:58.000Z</time>
      </trkpt>
      <trkpt lat="43.228855244815349578857421875" lon="-1.6028088144958019256591796875">
        <ele>406</ele>
        <time>2020-08-22T15:22:00.000Z</time>
      </trkpt>
      <trkpt lat="43.2288597710430622100830078125" lon="-1.60289137624204158782958984375">
        <ele>405.399993896484375</ele>
        <time>2020-08-22T15:22:01.000Z</time>
      </trkpt>
      <trkpt lat="43.22887477464973926544189453125" lon="-1.60314367152750492095947265625">
        <ele>404.399993896484375</ele>
        <time>2020-08-22T15:22:04.000Z</time>
      </trkpt>
      <trkpt lat="43.22889438830316066741943359375" lon="-1.60339772701263427734375">
        <ele>403.20001220703125</ele>
        <time>2020-08-22T15:22:07.000Z</time>
      </trkpt>
      <trkpt lat="43.22890830226242542266845703125" lon="-1.603487245738506317138671875">
        <ele>402.79998779296875</ele>
        <time>2020-08-22T15:22:08.000Z</time>
      </trkpt>
      <trkpt lat="43.22892422787845134735107421875" lon="-1.60357601009309291839599609375">
        <ele>402</ele>
        <time>2020-08-22T15:22:09.000Z</time>
      </trkpt>
      <trkpt lat="43.228959180414676666259765625" lon="-1.60375102423131465911865234375">
        <ele>400.600006103515625</ele>
        <time>2020-08-22T15:22:11.000Z</time>
      </trkpt>
      <trkpt lat="43.22897560894489288330078125" lon="-1.60383752547204494476318359375">
        <ele>398.79998779296875</ele>
        <time>2020-08-22T15:22:12.000Z</time>
      </trkpt>
      <trkpt lat="43.22899262420833110809326171875" lon="-1.60392721183598041534423828125">
        <ele>397.600006103515625</ele>
        <time>2020-08-22T15:22:13.000Z</time>
      </trkpt>
      <trkpt lat="43.2290274091064929962158203125" lon="-1.6041071712970733642578125">
        <ele>396.399993896484375</ele>
        <time>2020-08-22T15:22:15.000Z</time>
      </trkpt>
      <trkpt lat="43.22904174216091632843017578125" lon="-1.604197025299072265625">
        <ele>396.600006103515625</ele>
        <time>2020-08-22T15:22:16.000Z</time>
      </trkpt>
      <trkpt lat="43.22907577268779277801513671875" lon="-1.60446449182927608489990234375">
        <ele>395.399993896484375</ele>
        <time>2020-08-22T15:22:19.000Z</time>
      </trkpt>
      <trkpt lat="43.22909873910248279571533203125" lon="-1.60464755259454250335693359375">
        <ele>393.600006103515625</ele>
        <time>2020-08-22T15:22:21.000Z</time>
      </trkpt>
      <trkpt lat="43.22910946793854236602783203125" lon="-1.604740507900714874267578125">
        <ele>392.20001220703125</ele>
        <time>2020-08-22T15:22:22.000Z</time>
      </trkpt>
      <trkpt lat="43.22912983596324920654296875" lon="-1.60493119619786739349365234375">
        <ele>390.79998779296875</ele>
        <time>2020-08-22T15:22:24.000Z</time>
      </trkpt>
      <trkpt lat="43.22915556840598583221435546875" lon="-1.6052107326686382293701171875">
        <ele>389.399993896484375</ele>
        <time>2020-08-22T15:22:27.000Z</time>
      </trkpt>
      <trkpt lat="43.2291631959378719329833984375" lon="-1.6053034365177154541015625">
        <ele>388.399993896484375</ele>
        <time>2020-08-22T15:22:28.000Z</time>
      </trkpt>
      <trkpt lat="43.22918071411550045013427734375" lon="-1.60549194552004337310791015625">
        <ele>385.600006103515625</ele>
        <time>2020-08-22T15:22:30.000Z</time>
      </trkpt>
      <trkpt lat="43.2291893474757671356201171875" lon="-1.6055872477591037750244140625">
        <ele>384.600006103515625</ele>
        <time>2020-08-22T15:22:31.000Z</time>
      </trkpt>
      <trkpt lat="43.22919831611216068267822265625" lon="-1.6056828014552593231201171875">
        <ele>384</ele>
        <time>2020-08-22T15:22:32.000Z</time>
      </trkpt>
      <trkpt lat="43.22921642102301120758056640625" lon="-1.6058745793998241424560546875">
        <ele>382.399993896484375</ele>
        <time>2020-08-22T15:22:34.000Z</time>
      </trkpt>
      <trkpt lat="43.22923217900097370147705078125" lon="-1.606064848601818084716796875">
        <ele>381.20001220703125</ele>
        <time>2020-08-22T15:22:36.000Z</time>
      </trkpt>
      <trkpt lat="43.22924810461699962615966796875" lon="-1.60625436343252658843994140625">
        <ele>379.600006103515625</ele>
        <time>2020-08-22T15:22:38.000Z</time>
      </trkpt>
      <trkpt lat="43.22926956228911876678466796875" lon="-1.60644513554871082305908203125">
        <ele>378</ele>
        <time>2020-08-22T15:22:40.000Z</time>
      </trkpt>
      <trkpt lat="43.22928699664771556854248046875" lon="-1.60653817467391490936279296875">
        <ele>376.79998779296875</ele>
        <time>2020-08-22T15:22:41.000Z</time>
      </trkpt>
      <trkpt lat="43.22931046597659587860107421875" lon="-1.606628783047199249267578125">
        <ele>376</ele>
        <time>2020-08-22T15:22:42.000Z</time>
      </trkpt>
      <trkpt lat="43.22934114374220371246337890625" lon="-1.60671872086822986602783203125">
        <ele>375.399993896484375</ele>
        <time>2020-08-22T15:22:43.000Z</time>
      </trkpt>
      <trkpt lat="43.22937794029712677001953125" lon="-1.6068108379840850830078125">
        <ele>374</ele>
        <time>2020-08-22T15:22:44.000Z</time>
      </trkpt>
      <trkpt lat="43.22941708378493785858154296875" lon="-1.606904380023479461669921875">
        <ele>373.20001220703125</ele>
        <time>2020-08-22T15:22:45.000Z</time>
      </trkpt>
      <trkpt lat="43.22945698164403438568115234375" lon="-1.606997586786746978759765625">
        <ele>372.399993896484375</ele>
        <time>2020-08-22T15:22:46.000Z</time>
      </trkpt>
      <trkpt lat="43.22949822060763835906982421875" lon="-1.60709020681679248809814453125">
        <ele>371</ele>
        <time>2020-08-22T15:22:47.000Z</time>
      </trkpt>
      <trkpt lat="43.2295376993715763092041015625" lon="-1.607183329761028289794921875">
        <ele>369.399993896484375</ele>
        <time>2020-08-22T15:22:48.000Z</time>
      </trkpt>
      <trkpt lat="43.22957365773618221282958984375" lon="-1.60727712325751781463623046875">
        <ele>368.20001220703125</ele>
        <time>2020-08-22T15:22:49.000Z</time>
      </trkpt>
      <trkpt lat="43.22960634715855121612548828125" lon="-1.60736982710659503936767578125">
        <ele>367</ele>
        <time>2020-08-22T15:22:50.000Z</time>
      </trkpt>
      <trkpt lat="43.22963216342031955718994140625" lon="-1.60746001638472080230712890625">
        <ele>366.20001220703125</ele>
        <time>2020-08-22T15:22:51.000Z</time>
      </trkpt>
      <trkpt lat="43.2296537049114704132080078125" lon="-1.60755137912929058074951171875">
        <ele>365.20001220703125</ele>
        <time>2020-08-22T15:22:52.000Z</time>
      </trkpt>
      <trkpt lat="43.22969787754118442535400390625" lon="-1.607728488743305206298828125">
        <ele>363.600006103515625</ele>
        <time>2020-08-22T15:22:54.000Z</time>
      </trkpt>
      <trkpt lat="43.2297514379024505615234375" lon="-1.60789755173027515411376953125">
        <ele>361.79998779296875</ele>
        <time>2020-08-22T15:22:56.000Z</time>
      </trkpt>
      <trkpt lat="43.22980902157723903656005859375" lon="-1.60805546678602695465087890625">
        <ele>360.79998779296875</ele>
        <time>2020-08-22T15:22:58.000Z</time>
      </trkpt>
      <trkpt lat="43.2298297248780727386474609375" lon="-1.60813559778034687042236328125">
        <ele>360.399993896484375</ele>
        <time>2020-08-22T15:22:59.000Z</time>
      </trkpt>
      <trkpt lat="43.2298397831618785858154296875" lon="-1.60821690224111080169677734375">
        <ele>359.399993896484375</ele>
        <time>2020-08-22T15:23:00.000Z</time>
      </trkpt>
      <trkpt lat="43.22982545010745525360107421875" lon="-1.6083857975900173187255859375">
        <ele>357.600006103515625</ele>
        <time>2020-08-22T15:23:02.000Z</time>
      </trkpt>
      <trkpt lat="43.2297687046229839324951171875" lon="-1.6085396893322467803955078125">
        <ele>356.399993896484375</ele>
        <time>2020-08-22T15:23:04.000Z</time>
      </trkpt>
      <trkpt lat="43.22973559610545635223388671875" lon="-1.6086124442517757415771484375">
        <ele>355.79998779296875</ele>
        <time>2020-08-22T15:23:05.000Z</time>
      </trkpt>
      <trkpt lat="43.2297050021588802337646484375" lon="-1.6086838580667972564697265625">
        <ele>355.20001220703125</ele>
        <time>2020-08-22T15:23:06.000Z</time>
      </trkpt>
      <trkpt lat="43.2296577282249927520751953125" lon="-1.6088280268013477325439453125">
        <ele>354.20001220703125</ele>
        <time>2020-08-22T15:23:08.000Z</time>
      </trkpt>
      <trkpt lat="43.22963350452482700347900390625" lon="-1.608983762562274932861328125">
        <ele>353.20001220703125</ele>
        <time>2020-08-22T15:23:10.000Z</time>
      </trkpt>
      <trkpt lat="43.22962713427841663360595703125" lon="-1.60906531848013401031494140625">
        <ele>353</ele>
        <time>2020-08-22T15:23:11.000Z</time>
      </trkpt>
      <trkpt lat="43.229606933891773223876953125" lon="-1.6093326173722743988037109375">
        <ele>352</ele>
        <time>2020-08-22T15:23:14.000Z</time>
      </trkpt>
      <trkpt lat="43.22959008626639842987060546875" lon="-1.6095257364213466644287109375">
        <ele>350</ele>
        <time>2020-08-22T15:23:16.000Z</time>
      </trkpt>
      <trkpt lat="43.22957566939294338226318359375" lon="-1.6098248027265071868896484375">
        <ele>348.79998779296875</ele>
        <time>2020-08-22T15:23:19.000Z</time>
      </trkpt>
      <trkpt lat="43.22956527583301067352294921875" lon="-1.61001004278659820556640625">
        <ele>347.399993896484375</ele>
        <time>2020-08-22T15:23:21.000Z</time>
      </trkpt>
      <trkpt lat="43.22955035604536533355712890625" lon="-1.6100930236279964447021484375">
        <ele>346.399993896484375</ele>
        <time>2020-08-22T15:23:22.000Z</time>
      </trkpt>
      <trkpt lat="43.22952671907842159271240234375" lon="-1.61016703583300113677978515625">
        <ele>345.600006103515625</ele>
        <time>2020-08-22T15:23:23.000Z</time>
      </trkpt>
      <trkpt lat="43.229462765157222747802734375" lon="-1.6102814488112926483154296875">
        <ele>344</ele>
        <time>2020-08-22T15:23:25.000Z</time>
      </trkpt>
      <trkpt lat="43.22942378930747509002685546875" lon="-1.61031170748174190521240234375">
        <ele>343.20001220703125</ele>
        <time>2020-08-22T15:23:26.000Z</time>
      </trkpt>
      <trkpt lat="43.2293764315545558929443359375" lon="-1.6103183291852474212646484375">
        <ele>342.399993896484375</ele>
        <time>2020-08-22T15:23:27.000Z</time>
      </trkpt>
      <trkpt lat="43.22926637716591358184814453125" lon="-1.6102881543338298797607421875">
        <ele>340.600006103515625</ele>
        <time>2020-08-22T15:23:29.000Z</time>
      </trkpt>
      <trkpt lat="43.229155652225017547607421875" lon="-1.6102298162877559661865234375">
        <ele>339.399993896484375</ele>
        <time>2020-08-22T15:23:31.000Z</time>
      </trkpt>
      <trkpt lat="43.229098655283451080322265625" lon="-1.61019804887473583221435546875">
        <ele>338.20001220703125</ele>
        <time>2020-08-22T15:23:32.000Z</time>
      </trkpt>
      <trkpt lat="43.2289875112473964691162109375" lon="-1.610129065811634063720703125">
        <ele>336.399993896484375</ele>
        <time>2020-08-22T15:23:34.000Z</time>
      </trkpt>
      <trkpt lat="43.22888265363872051239013671875" lon="-1.61003644578158855438232421875">
        <ele>335</ele>
        <time>2020-08-22T15:23:36.000Z</time>
      </trkpt>
      <trkpt lat="43.22878307662904262542724609375" lon="-1.6099356114864349365234375">
        <ele>333.600006103515625</ele>
        <time>2020-08-22T15:23:38.000Z</time>
      </trkpt>
      <trkpt lat="43.22873555123805999755859375" lon="-1.609881632030010223388671875">
        <ele>333</ele>
        <time>2020-08-22T15:23:39.000Z</time>
      </trkpt>
      <trkpt lat="43.22868685238063335418701171875" lon="-1.60982958041131496429443359375">
        <ele>332.20001220703125</ele>
        <time>2020-08-22T15:23:40.000Z</time>
      </trkpt>
      <trkpt lat="43.2285873591899871826171875" lon="-1.60974442027509212493896484375">
        <ele>331</ele>
        <time>2020-08-22T15:23:42.000Z</time>
      </trkpt>
      <trkpt lat="43.22853480465710163116455078125" lon="-1.60971173085272312164306640625">
        <ele>330.20001220703125</ele>
        <time>2020-08-22T15:23:43.000Z</time>
      </trkpt>
      <trkpt lat="43.22848032228648662567138671875" lon="-1.6096930392086505889892578125">
        <ele>329.600006103515625</ele>
        <time>2020-08-22T15:23:44.000Z</time>
      </trkpt>
      <trkpt lat="43.2283766381442546844482421875" lon="-1.6097064502537250518798828125">
        <ele>328.399993896484375</ele>
        <time>2020-08-22T15:23:46.000Z</time>
      </trkpt>
      <trkpt lat="43.22832777164876461029052734375" lon="-1.60973754711449146270751953125">
        <ele>327.79998779296875</ele>
        <time>2020-08-22T15:23:47.000Z</time>
      </trkpt>
      <trkpt lat="43.22828225791454315185546875" lon="-1.60978046245872974395751953125">
        <ele>326.79998779296875</ele>
        <time>2020-08-22T15:23:48.000Z</time>
      </trkpt>
      <trkpt lat="43.22822987101972103118896484375" lon="-1.609902083873748779296875">
        <ele>325.600006103515625</ele>
        <time>2020-08-22T15:23:50.000Z</time>
      </trkpt>
      <trkpt lat="43.22822517715394496917724609375" lon="-1.61003694869577884674072265625">
        <ele>324.399993896484375</ele>
        <time>2020-08-22T15:23:52.000Z</time>
      </trkpt>
      <trkpt lat="43.228263147175312042236328125" lon="-1.61017826758325099945068359375">
        <ele>323.600006103515625</ele>
        <time>2020-08-22T15:23:54.000Z</time>
      </trkpt>
      <trkpt lat="43.22830061428248882293701171875" lon="-1.61024264059960842132568359375">
        <ele>322.79998779296875</ele>
        <time>2020-08-22T15:23:55.000Z</time>
      </trkpt>
      <trkpt lat="43.2283474691212177276611328125" lon="-1.610298715531826019287109375">
        <ele>321.79998779296875</ele>
        <time>2020-08-22T15:23:56.000Z</time>
      </trkpt>
      <trkpt lat="43.22840203531086444854736328125" lon="-1.61034758202731609344482421875">
        <ele>321.20001220703125</ele>
        <time>2020-08-22T15:23:57.000Z</time>
      </trkpt>
      <trkpt lat="43.2284666597843170166015625" lon="-1.61038965918123722076416015625">
        <ele>320.600006103515625</ele>
        <time>2020-08-22T15:23:58.000Z</time>
      </trkpt>
      <trkpt lat="43.2285332120954990386962890625" lon="-1.61042603664100170135498046875">
        <ele>319.399993896484375</ele>
        <time>2020-08-22T15:23:59.000Z</time>
      </trkpt>
      <trkpt lat="43.2286616228520870208740234375" lon="-1.6104988753795623779296875">
        <ele>317.600006103515625</ele>
        <time>2020-08-22T15:24:01.000Z</time>
      </trkpt>
      <trkpt lat="43.22883320041000843048095703125" lon="-1.61067229695618152618408203125">
        <ele>316</ele>
        <time>2020-08-22T15:24:04.000Z</time>
      </trkpt>
      <trkpt lat="43.22888935916125774383544921875" lon="-1.61073549650609493255615234375">
        <ele>315.20001220703125</ele>
        <time>2020-08-22T15:24:05.000Z</time>
      </trkpt>
      <trkpt lat="43.22893965058028697967529296875" lon="-1.61080556921660900115966796875">
        <ele>314.399993896484375</ele>
        <time>2020-08-22T15:24:06.000Z</time>
      </trkpt>
      <trkpt lat="43.22897938080132007598876953125" lon="-1.61088704131543636322021484375">
        <ele>313.399993896484375</ele>
        <time>2020-08-22T15:24:07.000Z</time>
      </trkpt>
      <trkpt lat="43.229010812938213348388671875" lon="-1.6109791584312915802001953125">
        <ele>312.399993896484375</ele>
        <time>2020-08-22T15:24:08.000Z</time>
      </trkpt>
      <trkpt lat="43.22903805412352085113525390625" lon="-1.61107680760324001312255859375">
        <ele>311.399993896484375</ele>
        <time>2020-08-22T15:24:09.000Z</time>
      </trkpt>
      <trkpt lat="43.22906202636659145355224609375" lon="-1.6111801564693450927734375">
        <ele>310.399993896484375</ele>
        <time>2020-08-22T15:24:10.000Z</time>
      </trkpt>
      <trkpt lat="43.22908096946775913238525390625" lon="-1.61128702573478221893310546875">
        <ele>309</ele>
        <time>2020-08-22T15:24:11.000Z</time>
      </trkpt>
      <trkpt lat="43.22909404523670673370361328125" lon="-1.611394397914409637451171875">
        <ele>307.20001220703125</ele>
        <time>2020-08-22T15:24:12.000Z</time>
      </trkpt>
      <trkpt lat="43.22910024784505367279052734375" lon="-1.6115018539130687713623046875">
        <ele>305.600006103515625</ele>
        <time>2020-08-22T15:24:13.000Z</time>
      </trkpt>
      <trkpt lat="43.22909764945507049560546875" lon="-1.61160754971206188201904296875">
        <ele>304.399993896484375</ele>
        <time>2020-08-22T15:24:14.000Z</time>
      </trkpt>
      <trkpt lat="43.22906588204205036163330078125" lon="-1.61179061047732830047607421875">
        <ele>303</ele>
        <time>2020-08-22T15:24:16.000Z</time>
      </trkpt>
      <trkpt lat="43.2290378026664257049560546875" lon="-1.61185766570270061492919921875">
        <ele>301.600006103515625</ele>
        <time>2020-08-22T15:24:17.000Z</time>
      </trkpt>
      <trkpt lat="43.2289709150791168212890625" lon="-1.611964702606201171875">
        <ele>300</ele>
        <time>2020-08-22T15:24:19.000Z</time>
      </trkpt>
      <trkpt lat="43.22891123592853546142578125" lon="-1.61214935593307018280029296875">
        <ele>299</ele>
        <time>2020-08-22T15:24:22.000Z</time>
      </trkpt>
      <trkpt lat="43.22891601361334323883056640625" lon="-1.61222311668097972869873046875">
        <ele>298.600006103515625</ele>
        <time>2020-08-22T15:24:23.000Z</time>
      </trkpt>
      <trkpt lat="43.22896110825240612030029296875" lon="-1.6123812831938266754150390625">
        <ele>297.399993896484375</ele>
        <time>2020-08-22T15:24:25.000Z</time>
      </trkpt>
      <trkpt lat="43.22902631945908069610595703125" lon="-1.61255571059882640838623046875">
        <ele>295.79998779296875</ele>
        <time>2020-08-22T15:24:27.000Z</time>
      </trkpt>
      <trkpt lat="43.229043669998645782470703125" lon="-1.6126441396772861480712890625">
        <ele>294.79998779296875</ele>
        <time>2020-08-22T15:24:28.000Z</time>
      </trkpt>
      <trkpt lat="43.22903864085674285888671875" lon="-1.6128134541213512420654296875">
        <ele>292.600006103515625</ele>
        <time>2020-08-22T15:24:30.000Z</time>
      </trkpt>
      <trkpt lat="43.2289707474410533905029296875" lon="-1.61297916434705257415771484375">
        <ele>290.79998779296875</ele>
        <time>2020-08-22T15:24:32.000Z</time>
      </trkpt>
      <trkpt lat="43.2289251498878002166748046875" lon="-1.613064073026180267333984375">
        <ele>289.79998779296875</ele>
        <time>2020-08-22T15:24:33.000Z</time>
      </trkpt>
      <trkpt lat="43.22887846268713474273681640625" lon="-1.61314956843852996826171875">
        <ele>288.79998779296875</ele>
        <time>2020-08-22T15:24:34.000Z</time>
      </trkpt>
      <trkpt lat="43.22878492064774036407470703125" lon="-1.6133301146328449249267578125">
        <ele>287</ele>
        <time>2020-08-22T15:24:36.000Z</time>
      </trkpt>
      <trkpt lat="43.2286839187145233154296875" lon="-1.61349984817206859588623046875">
        <ele>285.399993896484375</ele>
        <time>2020-08-22T15:24:38.000Z</time>
      </trkpt>
      <trkpt lat="43.228586353361606597900390625" lon="-1.6136583499610424041748046875">
        <ele>283.600006103515625</ele>
        <time>2020-08-22T15:24:40.000Z</time>
      </trkpt>
      <trkpt lat="43.2284961640834808349609375" lon="-1.6138018481433391571044921875">
        <ele>282.20001220703125</ele>
        <time>2020-08-22T15:24:42.000Z</time>
      </trkpt>
      <trkpt lat="43.2284601218998432159423828125" lon="-1.6138782911002635955810546875">
        <ele>281.399993896484375</ele>
        <time>2020-08-22T15:24:43.000Z</time>
      </trkpt>
      <trkpt lat="43.22843355126678943634033203125" lon="-1.6139587573707103729248046875">
        <ele>280.79998779296875</ele>
        <time>2020-08-22T15:24:44.000Z</time>
      </trkpt>
      <trkpt lat="43.2284031249582767486572265625" lon="-1.61412463523447513580322265625">
        <ele>279.79998779296875</ele>
        <time>2020-08-22T15:24:46.000Z</time>
      </trkpt>
      <trkpt lat="43.22839415632188320159912109375" lon="-1.6142185963690280914306640625">
        <ele>279</ele>
        <time>2020-08-22T15:24:47.000Z</time>
      </trkpt>
      <trkpt lat="43.22838560678064823150634765625" lon="-1.6143129765987396240234375">
        <ele>278.600006103515625</ele>
        <time>2020-08-22T15:24:48.000Z</time>
      </trkpt>
      <trkpt lat="43.22837135754525661468505859375" lon="-1.61450198851525783538818359375">
        <ele>276.600006103515625</ele>
        <time>2020-08-22T15:24:50.000Z</time>
      </trkpt>
      <trkpt lat="43.22835761122405529022216796875" lon="-1.61470633931457996368408203125">
        <ele>274.399993896484375</ele>
        <time>2020-08-22T15:24:52.000Z</time>
      </trkpt>
      <trkpt lat="43.22835861705243587493896484375" lon="-1.61491940729320049285888671875">
        <ele>272.79998779296875</ele>
        <time>2020-08-22T15:24:54.000Z</time>
      </trkpt>
      <trkpt lat="43.228375129401683807373046875" lon="-1.615135408937931060791015625">
        <ele>271.20001220703125</ele>
        <time>2020-08-22T15:24:56.000Z</time>
      </trkpt>
      <trkpt lat="43.22840874083340167999267578125" lon="-1.6153571940958499908447265625">
        <ele>269.600006103515625</ele>
        <time>2020-08-22T15:24:58.000Z</time>
      </trkpt>
      <trkpt lat="43.22843086905777454376220703125" lon="-1.6154663264751434326171875">
        <ele>268.79998779296875</ele>
        <time>2020-08-22T15:24:59.000Z</time>
      </trkpt>
      <trkpt lat="43.2284584455192089080810546875" lon="-1.61557562649250030517578125">
        <ele>267.79998779296875</ele>
        <time>2020-08-22T15:25:00.000Z</time>
      </trkpt>
      <trkpt lat="43.22852273471653461456298828125" lon="-1.6157920472323894500732421875">
        <ele>265.79998779296875</ele>
        <time>2020-08-22T15:25:02.000Z</time>
      </trkpt>
      <trkpt lat="43.22859046049416065216064453125" lon="-1.6159918718039989471435546875">
        <ele>263.79998779296875</ele>
        <time>2020-08-22T15:25:04.000Z</time>
      </trkpt>
      <trkpt lat="43.22863102890551090240478515625" lon="-1.61608549766242504119873046875">
        <ele>262.79998779296875</ele>
        <time>2020-08-22T15:25:05.000Z</time>
      </trkpt>
      <trkpt lat="43.22867964394390583038330078125" lon="-1.61617241799831390380859375">
        <ele>262.20001220703125</ele>
        <time>2020-08-22T15:25:06.000Z</time>
      </trkpt>
      <trkpt lat="43.2287994213402271270751953125" lon="-1.61633159033954143524169921875">
        <ele>260</ele>
        <time>2020-08-22T15:25:08.000Z</time>
      </trkpt>
      <trkpt lat="43.22886890731751918792724609375" lon="-1.61641247570514678955078125">
        <ele>258.79998779296875</ele>
        <time>2020-08-22T15:25:09.000Z</time>
      </trkpt>
      <trkpt lat="43.22901676408946514129638671875" lon="-1.61657785065472126007080078125">
        <ele>256.79998779296875</ele>
        <time>2020-08-22T15:25:11.000Z</time>
      </trkpt>
      <trkpt lat="43.22908960282802581787109375" lon="-1.6166590712964534759521484375">
        <ele>255.600006103515625</ele>
        <time>2020-08-22T15:25:12.000Z</time>
      </trkpt>
      <trkpt lat="43.2291601784527301788330078125" lon="-1.61673978902399539947509765625">
        <ele>254.600006103515625</ele>
        <time>2020-08-22T15:25:13.000Z</time>
      </trkpt>
      <trkpt lat="43.2292279042303562164306640625" lon="-1.61682017147541046142578125">
        <ele>253</ele>
        <time>2020-08-22T15:25:14.000Z</time>
      </trkpt>
      <trkpt lat="43.22929286397993564605712890625" lon="-1.61689661443233489990234375">
        <ele>251.8000030517578125</ele>
        <time>2020-08-22T15:25:15.000Z</time>
      </trkpt>
      <trkpt lat="43.2293589971959590911865234375" lon="-1.61696375347673892974853515625">
        <ele>250.600006103515625</ele>
        <time>2020-08-22T15:25:16.000Z</time>
      </trkpt>
      <trkpt lat="43.2295105420053005218505859375" lon="-1.61707674153149127960205078125">
        <ele>248.8000030517578125</ele>
        <time>2020-08-22T15:25:18.000Z</time>
      </trkpt>
      <trkpt lat="43.22959980927407741546630859375" lon="-1.61712015978991985321044921875">
        <ele>247.600006103515625</ele>
        <time>2020-08-22T15:25:19.000Z</time>
      </trkpt>
      <trkpt lat="43.229686059057712554931640625" lon="-1.61716215312480926513671875">
        <ele>246.399993896484375</ele>
        <time>2020-08-22T15:25:20.000Z</time>
      </trkpt>
      <trkpt lat="43.229763172566890716552734375" lon="-1.617208756506443023681640625">
        <ele>245.600006103515625</ele>
        <time>2020-08-22T15:25:21.000Z</time>
      </trkpt>
      <trkpt lat="43.2298397831618785858154296875" lon="-1.61725661717355251312255859375">
        <ele>244.399993896484375</ele>
        <time>2020-08-22T15:25:22.000Z</time>
      </trkpt>
      <trkpt lat="43.22992016561329364776611328125" lon="-1.617310345172882080078125">
        <ele>242.8000030517578125</ele>
        <time>2020-08-22T15:25:23.000Z</time>
      </trkpt>
      <trkpt lat="43.229999542236328125" lon="-1.6173735447227954864501953125">
        <ele>241</ele>
        <time>2020-08-22T15:25:24.000Z</time>
      </trkpt>
      <trkpt lat="43.2300748117268085479736328125" lon="-1.61744856275618076324462890625">
        <ele>240</ele>
        <time>2020-08-22T15:25:25.000Z</time>
      </trkpt>
      <trkpt lat="43.23014563880860805511474609375" lon="-1.6175311245024204254150390625">
        <ele>239</ele>
        <time>2020-08-22T15:25:26.000Z</time>
      </trkpt>
      <trkpt lat="43.23027589358389377593994140625" lon="-1.61770119331777095794677734375">
        <ele>237.399993896484375</ele>
        <time>2020-08-22T15:25:28.000Z</time>
      </trkpt>
      <trkpt lat="43.23039315640926361083984375" lon="-1.6178664006292819976806640625">
        <ele>235.8000030517578125</ele>
        <time>2020-08-22T15:25:30.000Z</time>
      </trkpt>
      <trkpt lat="43.23045224882662296295166015625" lon="-1.61794628016650676727294921875">
        <ele>234.8000030517578125</ele>
        <time>2020-08-22T15:25:31.000Z</time>
      </trkpt>
      <trkpt lat="43.2305079884827136993408203125" lon="-1.6180166043341159820556640625">
        <ele>233.600006103515625</ele>
        <time>2020-08-22T15:25:32.000Z</time>
      </trkpt>
      <trkpt lat="43.23055543005466461181640625" lon="-1.61808349192142486572265625">
        <ele>232.8000030517578125</ele>
        <time>2020-08-22T15:25:33.000Z</time>
      </trkpt>
      <trkpt lat="43.23059574700891971588134765625" lon="-1.6181517206132411956787109375">
        <ele>232.399993896484375</ele>
        <time>2020-08-22T15:25:34.000Z</time>
      </trkpt>
      <trkpt lat="43.2306400872766971588134765625" lon="-1.61837895400822162628173828125">
        <ele>231.399993896484375</ele>
        <time>2020-08-22T15:25:37.000Z</time>
      </trkpt>
      <trkpt lat="43.2306285202503204345703125" lon="-1.6184516251087188720703125">
        <ele>231.1999969482421875</ele>
        <time>2020-08-22T15:25:38.000Z</time>
      </trkpt>
      <trkpt lat="43.23059826157987117767333984375" lon="-1.61859772168099880218505859375">
        <ele>230.600006103515625</ele>
        <time>2020-08-22T15:25:40.000Z</time>
      </trkpt>
      <trkpt lat="43.2305539213120937347412109375" lon="-1.61874792538583278656005859375">
        <ele>230</ele>
        <time>2020-08-22T15:25:42.000Z</time>
      </trkpt>
      <trkpt lat="43.23047068901360034942626953125" lon="-1.6189895756542682647705078125">
        <ele>229</ele>
        <time>2020-08-22T15:25:45.000Z</time>
      </trkpt>
      <trkpt lat="43.23045157827436923980712890625" lon="-1.61907649599015712738037109375">
        <ele>228.600006103515625</ele>
        <time>2020-08-22T15:25:46.000Z</time>
      </trkpt>
      <trkpt lat="43.23043967597186565399169921875" lon="-1.61915377713739871978759765625">
        <ele>228.1999969482421875</ele>
        <time>2020-08-22T15:25:47.000Z</time>
      </trkpt>
      <trkpt lat="43.23042961768805980682373046875" lon="-1.61930850706994533538818359375">
        <ele>227.8000030517578125</ele>
        <time>2020-08-22T15:25:49.000Z</time>
      </trkpt>
      <trkpt lat="43.2304268516600131988525390625" lon="-1.61945653147995471954345703125">
        <ele>227.1999969482421875</ele>
        <time>2020-08-22T15:25:51.000Z</time>
      </trkpt>
      <trkpt lat="43.23043246753513813018798828125" lon="-1.619520485401153564453125">
        <ele>226.8000030517578125</ele>
        <time>2020-08-22T15:25:52.000Z</time>
      </trkpt>
      <trkpt lat="43.23043867014348506927490234375" lon="-1.61957605741918087005615234375">
        <ele>226.600006103515625</ele>
        <time>2020-08-22T15:25:53.000Z</time>
      </trkpt>
      <trkpt lat="43.2304622232913970947265625" lon="-1.6197355650365352630615234375">
        <ele>226</ele>
        <time>2020-08-22T15:25:56.000Z</time>
      </trkpt>
      <trkpt lat="43.2304838486015796661376953125" lon="-1.61992005072534084320068359375">
        <ele>225.600006103515625</ele>
        <time>2020-08-22T15:25:59.000Z</time>
      </trkpt>
      <trkpt lat="43.23049197904765605926513671875" lon="-1.62018190138041973114013671875">
        <ele>224.600006103515625</ele>
        <time>2020-08-22T15:26:03.000Z</time>
      </trkpt>
      <trkpt lat="43.2304872013628482818603515625" lon="-1.62030913867056369781494140625">
        <ele>224</ele>
        <time>2020-08-22T15:26:05.000Z</time>
      </trkpt>
      <trkpt lat="43.230485022068023681640625" lon="-1.6203749366104602813720703125">
        <ele>223.600006103515625</ele>
        <time>2020-08-22T15:26:06.000Z</time>
      </trkpt>
      <trkpt lat="43.2304875366389751434326171875" lon="-1.62044090218842029571533203125">
        <ele>223.399993896484375</ele>
        <time>2020-08-22T15:26:07.000Z</time>
      </trkpt>
      <trkpt lat="43.230534978210926055908203125" lon="-1.62070124410092830657958984375">
        <ele>222.1999969482421875</ele>
        <time>2020-08-22T15:26:11.000Z</time>
      </trkpt>
      <trkpt lat="43.2305840961635112762451171875" lon="-1.62083485163748264312744140625">
        <ele>221.1999969482421875</ele>
        <time>2020-08-22T15:26:13.000Z</time>
      </trkpt>
      <trkpt lat="43.23070420883595943450927734375" lon="-1.6210273839533329010009765625">
        <ele>219.600006103515625</ele>
        <time>2020-08-22T15:26:16.000Z</time>
      </trkpt>
      <trkpt lat="43.23075852356851100921630859375" lon="-1.62109301425516605377197265625">
        <ele>218.8000030517578125</ele>
        <time>2020-08-22T15:26:17.000Z</time>
      </trkpt>
      <trkpt lat="43.23082088492810726165771484375" lon="-1.621162332594394683837890625">
        <ele>218.1999969482421875</ele>
        <time>2020-08-22T15:26:18.000Z</time>
      </trkpt>
      <trkpt lat="43.23095642030239105224609375" lon="-1.621317900717258453369140625">
        <ele>215.600006103515625</ele>
        <time>2020-08-22T15:26:20.000Z</time>
      </trkpt>
      <trkpt lat="43.2310254871845245361328125" lon="-1.62139995954930782318115234375">
        <ele>214.1999969482421875</ele>
        <time>2020-08-22T15:26:21.000Z</time>
      </trkpt>
      <trkpt lat="43.23109178803861141204833984375" lon="-1.6214883886277675628662109375">
        <ele>213</ele>
        <time>2020-08-22T15:26:22.000Z</time>
      </trkpt>
      <trkpt lat="43.23115498758852481842041015625" lon="-1.6215817630290985107421875">
        <ele>211.8000030517578125</ele>
        <time>2020-08-22T15:26:23.000Z</time>
      </trkpt>
      <trkpt lat="43.2312184385955333709716796875" lon="-1.621679328382015228271484375">
        <ele>210.600006103515625</ele>
        <time>2020-08-22T15:26:24.000Z</time>
      </trkpt>
      <trkpt lat="43.2312818057835102081298828125" lon="-1.621777899563312530517578125">
        <ele>209.399993896484375</ele>
        <time>2020-08-22T15:26:25.000Z</time>
      </trkpt>
      <trkpt lat="43.231346346437931060791015625" lon="-1.62187538109719753265380859375">
        <ele>208.1999969482421875</ele>
        <time>2020-08-22T15:26:26.000Z</time>
      </trkpt>
      <trkpt lat="43.2314128987491130828857421875" lon="-1.62196942605078220367431640625">
        <ele>206.8000030517578125</ele>
        <time>2020-08-22T15:26:27.000Z</time>
      </trkpt>
      <trkpt lat="43.231480456888675689697265625" lon="-1.6220563463866710662841796875">
        <ele>205.399993896484375</ele>
        <time>2020-08-22T15:26:28.000Z</time>
      </trkpt>
      <trkpt lat="43.23154642246663570404052734375" lon="-1.62214477546513080596923828125">
        <ele>204.1999969482421875</ele>
        <time>2020-08-22T15:26:29.000Z</time>
      </trkpt>
      <trkpt lat="43.2316137291491031646728515625" lon="-1.62223110906779766082763671875">
        <ele>203</ele>
        <time>2020-08-22T15:26:30.000Z</time>
      </trkpt>
      <trkpt lat="43.231681287288665771484375" lon="-1.622316353023052215576171875">
        <ele>202</ele>
        <time>2020-08-22T15:26:31.000Z</time>
      </trkpt>
      <trkpt lat="43.23174876160919666290283203125" lon="-1.6223983280360698699951171875">
        <ele>201</ele>
        <time>2020-08-22T15:26:32.000Z</time>
      </trkpt>
      <trkpt lat="43.23181481100618839263916015625" lon="-1.6224776208400726318359375">
        <ele>199.399993896484375</ele>
        <time>2020-08-22T15:26:33.000Z</time>
      </trkpt>
      <trkpt lat="43.23188086040318012237548828125" lon="-1.6225502081215381622314453125">
        <ele>198</ele>
        <time>2020-08-22T15:26:34.000Z</time>
      </trkpt>
      <trkpt lat="43.23194749653339385986328125" lon="-1.62261466495692729949951171875">
        <ele>196.600006103515625</ele>
        <time>2020-08-22T15:26:35.000Z</time>
      </trkpt>
      <trkpt lat="43.23201497085392475128173828125" lon="-1.62266931496560573577880859375">
        <ele>195</ele>
        <time>2020-08-22T15:26:36.000Z</time>
      </trkpt>
      <trkpt lat="43.23208294808864593505859375" lon="-1.6227168403565883636474609375">
        <ele>193.8000030517578125</ele>
        <time>2020-08-22T15:26:37.000Z</time>
      </trkpt>
      <trkpt lat="43.23215008713304996490478515625" lon="-1.6227604262530803680419921875">
        <ele>192.600006103515625</ele>
        <time>2020-08-22T15:26:38.000Z</time>
      </trkpt>
      <trkpt lat="43.23221546597778797149658203125" lon="-1.6228013299405574798583984375">
        <ele>191.1999969482421875</ele>
        <time>2020-08-22T15:26:39.000Z</time>
      </trkpt>
      <trkpt lat="43.23227363638579845428466796875" lon="-1.62284600548446178436279296875">
        <ele>190</ele>
        <time>2020-08-22T15:26:40.000Z</time>
      </trkpt>
      <trkpt lat="43.23232124559581279754638671875" lon="-1.62290878593921661376953125">
        <ele>189</ele>
        <time>2020-08-22T15:26:41.000Z</time>
      </trkpt>
      <trkpt lat="43.232355527579784393310546875" lon="-1.6229900903999805450439453125">
        <ele>188.1999969482421875</ele>
        <time>2020-08-22T15:26:42.000Z</time>
      </trkpt>
      <trkpt lat="43.23237522505223751068115234375" lon="-1.62308455444872379302978515625">
        <ele>187.1999969482421875</ele>
        <time>2020-08-22T15:26:43.000Z</time>
      </trkpt>
      <trkpt lat="43.23238360695540904998779296875" lon="-1.62319050170481204986572265625">
        <ele>186</ele>
        <time>2020-08-22T15:26:44.000Z</time>
      </trkpt>
      <trkpt lat="43.2323771528899669647216796875" lon="-1.62343005649745464324951171875">
        <ele>184.1999969482421875</ele>
        <time>2020-08-22T15:26:46.000Z</time>
      </trkpt>
      <trkpt lat="43.2323778234422206878662109375" lon="-1.6235540248453617095947265625">
        <ele>183</ele>
        <time>2020-08-22T15:26:47.000Z</time>
      </trkpt>
      <trkpt lat="43.2323838584125041961669921875" lon="-1.62367614917457103729248046875">
        <ele>182</ele>
        <time>2020-08-22T15:26:48.000Z</time>
      </trkpt>
      <trkpt lat="43.23241420090198516845703125" lon="-1.62392492406070232391357421875">
        <ele>180.1999969482421875</ele>
        <time>2020-08-22T15:26:50.000Z</time>
      </trkpt>
      <trkpt lat="43.23243029415607452392578125" lon="-1.6240520775318145751953125">
        <ele>178.8000030517578125</ele>
        <time>2020-08-22T15:26:51.000Z</time>
      </trkpt>
      <trkpt lat="43.232441358268260955810546875" lon="-1.62418241612613201141357421875">
        <ele>177.1999969482421875</ele>
        <time>2020-08-22T15:26:52.000Z</time>
      </trkpt>
      <trkpt lat="43.2324438728392124176025390625" lon="-1.62430847994983196258544921875">
        <ele>176.399993896484375</ele>
        <time>2020-08-22T15:26:53.000Z</time>
      </trkpt>
      <trkpt lat="43.23243808932602405548095703125" lon="-1.62443756125867366790771484375">
        <ele>175.600006103515625</ele>
        <time>2020-08-22T15:26:54.000Z</time>
      </trkpt>
      <trkpt lat="43.2324271090328693389892578125" lon="-1.624565385282039642333984375">
        <ele>174.399993896484375</ele>
        <time>2020-08-22T15:26:55.000Z</time>
      </trkpt>
      <trkpt lat="43.2324056513607501983642578125" lon="-1.62481893785297870635986328125">
        <ele>172.8000030517578125</ele>
        <time>2020-08-22T15:26:57.000Z</time>
      </trkpt>
      <trkpt lat="43.23240171186625957489013671875" lon="-1.62494592368602752685546875">
        <ele>171.8000030517578125</ele>
        <time>2020-08-22T15:26:58.000Z</time>
      </trkpt>
      <trkpt lat="43.2324106805026531219482421875" lon="-1.6252072714269161224365234375">
        <ele>170</ele>
        <time>2020-08-22T15:27:00.000Z</time>
      </trkpt>
      <trkpt lat="43.2324229180812835693359375" lon="-1.62533408962190151214599609375">
        <ele>168.399993896484375</ele>
        <time>2020-08-22T15:27:01.000Z</time>
      </trkpt>
      <trkpt lat="43.23243792168796062469482421875" lon="-1.62545646540820598602294921875">
        <ele>167.1999969482421875</ele>
        <time>2020-08-22T15:27:02.000Z</time>
      </trkpt>
      <trkpt lat="43.2324559427797794342041015625" lon="-1.6255747340619564056396484375">
        <ele>166.1999969482421875</ele>
        <time>2020-08-22T15:27:03.000Z</time>
      </trkpt>
      <trkpt lat="43.232500366866588592529296875" lon="-1.6258023865520954132080078125">
        <ele>164</ele>
        <time>2020-08-22T15:27:05.000Z</time>
      </trkpt>
      <trkpt lat="43.23252660222351551055908203125" lon="-1.6259133629500865936279296875">
        <ele>162.8000030517578125</ele>
        <time>2020-08-22T15:27:06.000Z</time>
      </trkpt>
      <trkpt lat="43.2325846888124942779541015625" lon="-1.62612332962453365325927734375">
        <ele>160.1999969482421875</ele>
        <time>2020-08-22T15:27:08.000Z</time>
      </trkpt>
      <trkpt lat="43.2326145283877849578857421875" lon="-1.62622106261551380157470703125">
        <ele>158.8000030517578125</ele>
        <time>2020-08-22T15:27:09.000Z</time>
      </trkpt>
      <trkpt lat="43.23264596052467823028564453125" lon="-1.62631410174071788787841796875">
        <ele>157.1999969482421875</ele>
        <time>2020-08-22T15:27:10.000Z</time>
      </trkpt>
      <trkpt lat="43.23267580009996891021728515625" lon="-1.6264021955430507659912109375">
        <ele>156</ele>
        <time>2020-08-22T15:27:11.000Z</time>
      </trkpt>
      <trkpt lat="43.232735060155391693115234375" lon="-1.62656731903553009033203125">
        <ele>154</ele>
        <time>2020-08-22T15:27:13.000Z</time>
      </trkpt>
      <trkpt lat="43.2327689230442047119140625" lon="-1.6266399063169956207275390625">
        <ele>152.600006103515625</ele>
        <time>2020-08-22T15:27:14.000Z</time>
      </trkpt>
      <trkpt lat="43.2328056357800960540771484375" lon="-1.62670612335205078125">
        <ele>151.600006103515625</ele>
        <time>2020-08-22T15:27:15.000Z</time>
      </trkpt>
      <trkpt lat="43.232844360172748565673828125" lon="-1.62676789797842502593994140625">
        <ele>150.1999969482421875</ele>
        <time>2020-08-22T15:27:16.000Z</time>
      </trkpt>
      <trkpt lat="43.23288249783217906951904296875" lon="-1.62682523019611835479736328125">
        <ele>149</ele>
        <time>2020-08-22T15:27:17.000Z</time>
      </trkpt>
      <trkpt lat="43.232920132577419281005859375" lon="-1.6268776170909404754638671875">
        <ele>147.8000030517578125</ele>
        <time>2020-08-22T15:27:18.000Z</time>
      </trkpt>
      <trkpt lat="43.2329555042088031768798828125" lon="-1.62693017162382602691650390625">
        <ele>147</ele>
        <time>2020-08-22T15:27:19.000Z</time>
      </trkpt>
      <trkpt lat="43.23298844508826732635498046875" lon="-1.626984737813472747802734375">
        <ele>146.1999969482421875</ele>
        <time>2020-08-22T15:27:20.000Z</time>
      </trkpt>
      <trkpt lat="43.23301694355905055999755859375" lon="-1.6270402260124683380126953125">
        <ele>145</ele>
        <time>2020-08-22T15:27:21.000Z</time>
      </trkpt>
      <trkpt lat="43.23306153528392314910888671875" lon="-1.62714642472565174102783203125">
        <ele>143.399993896484375</ele>
        <time>2020-08-22T15:27:23.000Z</time>
      </trkpt>
      <trkpt lat="43.233077712357044219970703125" lon="-1.62719436921179294586181640625">
        <ele>142.600006103515625</ele>
        <time>2020-08-22T15:27:24.000Z</time>
      </trkpt>
      <trkpt lat="43.23308877646923065185546875" lon="-1.62723921239376068115234375">
        <ele>142.1999969482421875</ele>
        <time>2020-08-22T15:27:25.000Z</time>
      </trkpt>
      <trkpt lat="43.23310143314301967620849609375" lon="-1.62733082659542560577392578125">
        <ele>140.8000030517578125</ele>
        <time>2020-08-22T15:27:27.000Z</time>
      </trkpt>
      <trkpt lat="43.2331068813800811767578125" lon="-1.62742151878774166107177734375">
        <ele>139.600006103515625</ele>
        <time>2020-08-22T15:27:29.000Z</time>
      </trkpt>
      <trkpt lat="43.233111910521984100341796875" lon="-1.62746728397905826568603515625">
        <ele>139.1999969482421875</ele>
        <time>2020-08-22T15:27:30.000Z</time>
      </trkpt>
      <trkpt lat="43.23312406428158283233642578125" lon="-1.6275686211884021759033203125">
        <ele>138</ele>
        <time>2020-08-22T15:27:32.000Z</time>
      </trkpt>
      <trkpt lat="43.233132697641849517822265625" lon="-1.62767867557704448699951171875">
        <ele>136.399993896484375</ele>
        <time>2020-08-22T15:27:34.000Z</time>
      </trkpt>
      <trkpt lat="43.23312632739543914794921875" lon="-1.62774170748889446258544921875">
        <ele>135.8000030517578125</ele>
        <time>2020-08-22T15:27:35.000Z</time>
      </trkpt>
      <trkpt lat="43.23311157524585723876953125" lon="-1.6278160549700260162353515625">
        <ele>135.1999969482421875</ele>
        <time>2020-08-22T15:27:36.000Z</time>
      </trkpt>
      <trkpt lat="43.23304452002048492431640625" lon="-1.62797824479639530181884765625">
        <ele>134</ele>
        <time>2020-08-22T15:27:38.000Z</time>
      </trkpt>
      <trkpt lat="43.232997246086597442626953125" lon="-1.62805485539138317108154296875">
        <ele>133.399993896484375</ele>
        <time>2020-08-22T15:27:39.000Z</time>
      </trkpt>
      <trkpt lat="43.232953660190105438232421875" lon="-1.6281370818614959716796875">
        <ele>132.600006103515625</ele>
        <time>2020-08-22T15:27:40.000Z</time>
      </trkpt>
      <trkpt lat="43.23290948756039142608642578125" lon="-1.62830145098268985748291015625">
        <ele>132</ele>
        <time>2020-08-22T15:27:42.000Z</time>
      </trkpt>
      <trkpt lat="43.2328842580318450927734375" lon="-1.6284978389739990234375">
        <ele>131.8000030517578125</ele>
        <time>2020-08-22T15:27:45.000Z</time>
      </trkpt>
      <trkpt lat="43.2328770495951175689697265625" lon="-1.62854771129786968231201171875">
        <ele>131.8000030517578125</ele>
        <time>2020-08-22T15:27:46.000Z</time>
      </trkpt>
      <trkpt lat="43.23285852558910846710205078125" lon="-1.62877989001572132110595703125">
        <ele>132.600006103515625</ele>
        <time>2020-08-22T15:27:52.000Z</time>
      </trkpt>
      <trkpt lat="43.232848383486270904541015625" lon="-1.62901257164776325225830078125">
        <ele>132.8000030517578125</ele>
        <time>2020-08-22T15:27:58.000Z</time>
      </trkpt>
      <trkpt lat="43.23284645564854145050048828125" lon="-1.62909002043306827545166015625">
        <ele>133</ele>
        <time>2020-08-22T15:28:00.000Z</time>
      </trkpt>
      <trkpt lat="43.23284209705889225006103515625" lon="-1.62947508506476879119873046875">
        <ele>133.1999969482421875</ele>
        <time>2020-08-22T15:28:10.000Z</time>
      </trkpt>
      <trkpt lat="43.23289356194436550140380859375" lon="-1.62970676086843013763427734375">
        <ele>134</ele>
        <time>2020-08-22T15:28:17.000Z</time>
      </trkpt>
      <trkpt lat="43.2329243235290050506591796875" lon="-1.62985428236424922943115234375">
        <ele>135</ele>
        <time>2020-08-22T15:28:22.000Z</time>
      </trkpt>
      <trkpt lat="43.2329347170889377593994140625" lon="-1.62991077639162540435791015625">
        <ele>135.399993896484375</ele>
        <time>2020-08-22T15:28:24.000Z</time>
      </trkpt>
      <trkpt lat="43.23295592330396175384521484375" lon="-1.62999493069946765899658203125">
        <ele>136.1999969482421875</ele>
        <time>2020-08-22T15:28:27.000Z</time>
      </trkpt>
      <trkpt lat="43.232979476451873779296875" lon="-1.63010372780263423919677734375">
        <ele>136.8000030517578125</ele>
        <time>2020-08-22T15:28:31.000Z</time>
      </trkpt>
      <trkpt lat="43.2330041192471981048583984375" lon="-1.630179919302463531494140625">
        <ele>137.399993896484375</ele>
        <time>2020-08-22T15:28:34.000Z</time>
      </trkpt>
      <trkpt lat="43.23302800767123699188232421875" lon="-1.63026231341063976287841796875">
        <ele>137.8000030517578125</ele>
        <time>2020-08-22T15:28:37.000Z</time>
      </trkpt>
      <trkpt lat="43.23305952362716197967529296875" lon="-1.63034060038626194000244140625">
        <ele>138.399993896484375</ele>
        <time>2020-08-22T15:28:40.000Z</time>
      </trkpt>
      <trkpt lat="43.2330979965627193450927734375" lon="-1.630484350025653839111328125">
        <ele>139.1999969482421875</ele>
        <time>2020-08-22T15:28:45.000Z</time>
      </trkpt>
      <trkpt lat="43.23315172456204891204833984375" lon="-1.6306910477578639984130859375">
        <ele>139.399993896484375</ele>
        <time>2020-08-22T15:28:52.000Z</time>
      </trkpt>
      <trkpt lat="43.2331623695790767669677734375" lon="-1.63074511103332042694091796875">
        <ele>139.600006103515625</ele>
        <time>2020-08-22T15:28:54.000Z</time>
      </trkpt>
      <trkpt lat="43.2331938855350017547607421875" lon="-1.63085273467004299163818359375">
        <ele>140.399993896484375</ele>
        <time>2020-08-22T15:28:58.000Z</time>
      </trkpt>
      <trkpt lat="43.23322464711964130401611328125" lon="-1.63095449097454547882080078125">
        <ele>140.8000030517578125</ele>
        <time>2020-08-22T15:29:02.000Z</time>
      </trkpt>
      <trkpt lat="43.233253397047519683837890625" lon="-1.63106295280158519744873046875">
        <ele>141.399993896484375</ele>
        <time>2020-08-22T15:29:06.000Z</time>
      </trkpt>
      <trkpt lat="43.23332078754901885986328125" lon="-1.63126026280224323272705078125">
        <ele>141.8000030517578125</ele>
        <time>2020-08-22T15:29:14.000Z</time>
      </trkpt>
      <trkpt lat="43.233327157795429229736328125" lon="-1.63128641434013843536376953125">
        <ele>141.8000030517578125</ele>
        <time>2020-08-22T15:29:15.000Z</time>
      </trkpt>
      <trkpt lat="43.2333521358668804168701171875" lon="-1.6314206086099147796630859375">
        <ele>142.399993896484375</ele>
        <time>2020-08-22T15:29:20.000Z</time>
      </trkpt>
      <trkpt lat="43.233349956572055816650390625" lon="-1.63144751451909542083740234375">
        <ele>142.399993896484375</ele>
        <time>2020-08-22T15:29:21.000Z</time>
      </trkpt>
      <trkpt lat="43.23335523717105388641357421875" lon="-1.6316911764442920684814453125">
        <ele>142.600006103515625</ele>
        <time>2020-08-22T15:29:29.000Z</time>
      </trkpt>
      <trkpt lat="43.23335020802915096282958984375" lon="-1.6319121234118938446044921875">
        <ele>142.8000030517578125</ele>
        <time>2020-08-22T15:29:36.000Z</time>
      </trkpt>
      <trkpt lat="43.2333437539637088775634765625" lon="-1.63208462297916412353515625">
        <ele>143.399993896484375</ele>
        <time>2020-08-22T15:29:41.000Z</time>
      </trkpt>
      <trkpt lat="43.23335431516170501708984375" lon="-1.6321920789778232574462890625">
        <ele>143.399993896484375</ele>
        <time>2020-08-22T15:29:44.000Z</time>
      </trkpt>
      <trkpt lat="43.233361355960369110107421875" lon="-1.63249374367296695709228515625">
        <ele>143.600006103515625</ele>
        <time>2020-08-22T15:29:52.000Z</time>
      </trkpt>
      <trkpt lat="43.233378119766712188720703125" lon="-1.63282885216176509857177734375">
        <ele>143.600006103515625</ele>
        <time>2020-08-22T15:30:01.000Z</time>
      </trkpt>
      <trkpt lat="43.2333491183817386627197265625" lon="-1.6330973245203495025634765625">
        <ele>143.399993896484375</ele>
        <time>2020-08-22T15:30:08.000Z</time>
      </trkpt>
      <trkpt lat="43.23321408592164516448974609375" lon="-1.633364371955394744873046875">
        <ele>142.600006103515625</ele>
        <time>2020-08-22T15:30:14.000Z</time>
      </trkpt>
      <trkpt lat="43.23318927548825740814208984375" lon="-1.6334208659827709197998046875">
        <ele>142.600006103515625</ele>
        <time>2020-08-22T15:30:15.000Z</time>
      </trkpt>
      <trkpt lat="43.23306840844452381134033203125" lon="-1.63372890092432498931884765625">
        <ele>141.600006103515625</ele>
        <time>2020-08-22T15:30:20.000Z</time>
      </trkpt>
      <trkpt lat="43.23300336487591266632080078125" lon="-1.633848845958709716796875">
        <ele>141.399993896484375</ele>
        <time>2020-08-22T15:30:22.000Z</time>
      </trkpt>
      <trkpt lat="43.23292776010930538177490234375" lon="-1.63396024145185947418212890625">
        <ele>141.1999969482421875</ele>
        <time>2020-08-22T15:30:24.000Z</time>
      </trkpt>
      <trkpt lat="43.23284628801047801971435546875" lon="-1.6340813599526882171630859375">
        <ele>141.1999969482421875</ele>
        <time>2020-08-22T15:30:26.000Z</time>
      </trkpt>
      <trkpt lat="43.2327077351510524749755859375" lon="-1.634288392961025238037109375">
        <ele>140.399993896484375</ele>
        <time>2020-08-22T15:30:29.000Z</time>
      </trkpt>
      <trkpt lat="43.23255560360848903656005859375" lon="-1.6345118544995784759521484375">
        <ele>139.399993896484375</ele>
        <time>2020-08-22T15:30:32.000Z</time>
      </trkpt>
      <trkpt lat="43.232511766254901885986328125" lon="-1.63459575735032558441162109375">
        <ele>139.1999969482421875</ele>
        <time>2020-08-22T15:30:33.000Z</time>
      </trkpt>
      <trkpt lat="43.23247723281383514404296875" lon="-1.63467966020107269287109375">
        <ele>139.1999969482421875</ele>
        <time>2020-08-22T15:30:34.000Z</time>
      </trkpt>
      <trkpt lat="43.23245175182819366455078125" lon="-1.6348491422832012176513671875">
        <ele>138.600006103515625</ele>
        <time>2020-08-22T15:30:36.000Z</time>
      </trkpt>
      <trkpt lat="43.23245116509497165679931640625" lon="-1.635002531111240386962890625">
        <ele>138.1999969482421875</ele>
        <time>2020-08-22T15:30:38.000Z</time>
      </trkpt>
      <trkpt lat="43.2324505783617496490478515625" lon="-1.63507017306983470916748046875">
        <ele>138.1999969482421875</ele>
        <time>2020-08-22T15:30:39.000Z</time>
      </trkpt>
      <trkpt lat="43.23244630359113216400146484375" lon="-1.63517846725881099700927734375">
        <ele>138.399993896484375</ele>
        <time>2020-08-22T15:30:41.000Z</time>
      </trkpt>
      <trkpt lat="43.2324411906301975250244140625" lon="-1.63531802594661712646484375">
        <ele>139.600006103515625</ele>
        <time>2020-08-22T15:30:45.000Z</time>
      </trkpt>
      <trkpt lat="43.2324388436973094940185546875" lon="-1.63534753024578094482421875">
        <ele>139.8000030517578125</ele>
        <time>2020-08-22T15:30:46.000Z</time>
      </trkpt>
      <trkpt lat="43.23244529776275157928466796875" lon="-1.635593958199024200439453125">
        <ele>140.1999969482421875</ele>
        <time>2020-08-22T15:30:54.000Z</time>
      </trkpt>
      <trkpt lat="43.2324378378689289093017578125" lon="-1.6358323395252227783203125">
        <ele>139.600006103515625</ele>
        <time>2020-08-22T15:30:59.000Z</time>
      </trkpt>
      <trkpt lat="43.23250112123787403106689453125" lon="-1.6360195912420749664306640625">
        <ele>138.399993896484375</ele>
        <time>2020-08-22T15:31:03.000Z</time>
      </trkpt>
      <trkpt lat="43.23253716342151165008544921875" lon="-1.63605068810284137725830078125">
        <ele>138.1999969482421875</ele>
        <time>2020-08-22T15:31:04.000Z</time>
      </trkpt>
      <trkpt lat="43.23261461220681667327880859375" lon="-1.636108942329883575439453125">
        <ele>136.8000030517578125</ele>
        <time>2020-08-22T15:31:06.000Z</time>
      </trkpt>
      <trkpt lat="43.23268552310764789581298828125" lon="-1.6361684538424015045166015625">
        <ele>135.8000030517578125</ele>
        <time>2020-08-22T15:31:08.000Z</time>
      </trkpt>
      <trkpt lat="43.23271863162517547607421875" lon="-1.63620315492153167724609375">
        <ele>135.600006103515625</ele>
        <time>2020-08-22T15:31:09.000Z</time>
      </trkpt>
      <trkpt lat="43.232845030725002288818359375" lon="-1.63635595701634883880615234375">
        <ele>134.8000030517578125</ele>
        <time>2020-08-22T15:31:13.000Z</time>
      </trkpt>
      <trkpt lat="43.23295508511364459991455078125" lon="-1.63650314323604106903076171875">
        <ele>134</ele>
        <time>2020-08-22T15:31:17.000Z</time>
      </trkpt>
      <trkpt lat="43.23298014700412750244140625" lon="-1.636530719697475433349609375">
        <ele>133.8000030517578125</ele>
        <time>2020-08-22T15:31:18.000Z</time>
      </trkpt>
      <trkpt lat="43.23303823359310626983642578125" lon="-1.63661219179630279541015625">
        <ele>133</ele>
        <time>2020-08-22T15:31:21.000Z</time>
      </trkpt>
      <trkpt lat="43.23305432684719562530517578125" lon="-1.63664035499095916748046875">
        <ele>132.399993896484375</ele>
        <time>2020-08-22T15:31:23.000Z</time>
      </trkpt>
      <trkpt lat="43.23305097408592700958251953125" lon="-1.6366418637335300445556640625">
        <ele>132.399993896484375</ele>
        <time>2020-08-22T15:31:26.000Z</time>
      </trkpt>
      <trkpt lat="43.2340116240084171295166015625" lon="-1.6371363960206508636474609375">
        <ele>123.8000030517578125</ele>
        <time>2020-08-22T15:52:54.000Z</time>
      </trkpt>
      <trkpt lat="43.2340109534561634063720703125" lon="-1.6371452808380126953125">
        <ele>123.59999847412109375</ele>
        <time>2020-08-22T15:52:57.000Z</time>
      </trkpt>
      <trkpt lat="43.23401204310357570648193359375" lon="-1.63716263137757778167724609375">
        <ele>123.59999847412109375</ele>
        <time>2020-08-22T15:52:58.000Z</time>
      </trkpt>
      <trkpt lat="43.23401589877903461456298828125" lon="-1.6373603604733943939208984375">
        <ele>123.59999847412109375</ele>
        <time>2020-08-22T15:53:05.000Z</time>
      </trkpt>
      <trkpt lat="43.2340376079082489013671875" lon="-1.63762497715651988983154296875">
        <ele>122.8000030517578125</ele>
        <time>2020-08-22T15:53:11.000Z</time>
      </trkpt>
      <trkpt lat="43.2341018132865428924560546875" lon="-1.63786805234849452972412109375">
        <ele>122.1999969482421875</ele>
        <time>2020-08-22T15:53:16.000Z</time>
      </trkpt>
      <trkpt lat="43.23414866812527179718017578125" lon="-1.638103164732456207275390625">
        <ele>121.8000030517578125</ele>
        <time>2020-08-22T15:53:21.000Z</time>
      </trkpt>
      <trkpt lat="43.2341464050114154815673828125" lon="-1.63814918138086795806884765625">
        <ele>121.59999847412109375</ele>
        <time>2020-08-22T15:53:22.000Z</time>
      </trkpt>
      <trkpt lat="43.23412687517702579498291015625" lon="-1.6383199207484722137451171875">
        <ele>121.59999847412109375</ele>
        <time>2020-08-22T15:53:26.000Z</time>
      </trkpt>
      <trkpt lat="43.2341075129806995391845703125" lon="-1.63862141780555248260498046875">
        <ele>121.40000152587890625</ele>
        <time>2020-08-22T15:53:33.000Z</time>
      </trkpt>
      <trkpt lat="43.234206922352313995361328125" lon="-1.63877363316714763641357421875">
        <ele>121.1999969482421875</ele>
        <time>2020-08-22T15:53:37.000Z</time>
      </trkpt>
      <trkpt lat="43.23423516936600208282470703125" lon="-1.6387997008860111236572265625">
        <ele>121</ele>
        <time>2020-08-22T15:53:38.000Z</time>
      </trkpt>
      <trkpt lat="43.2342654280364513397216796875" lon="-1.6388074122369289398193359375">
        <ele>120.8000030517578125</ele>
        <time>2020-08-22T15:53:40.000Z</time>
      </trkpt>
      <trkpt lat="43.23426970280706882476806640625" lon="-1.63881554268300533294677734375">
        <ele>121.1999969482421875</ele>
        <time>2020-08-22T15:53:49.000Z</time>
      </trkpt>
      <trkpt lat="43.23426987044513225555419921875" lon="-1.638816297054290771484375">
        <ele>120.8000030517578125</ele>
        <time>2020-08-22T15:54:02.000Z</time>
      </trkpt>
      <trkpt lat="43.234269618988037109375" lon="-1.6388171352446079254150390625">
        <ele>120.8000030517578125</ele>
        <time>2020-08-22T15:54:13.000Z</time>
      </trkpt>
      <trkpt lat="43.23427624069154262542724609375" lon="-1.638825349509716033935546875">
        <ele>121</ele>
        <time>2020-08-22T15:54:18.000Z</time>
      </trkpt>
      <trkpt lat="43.2343059964478015899658203125" lon="-1.6388412751257419586181640625">
        <ele>121.1999969482421875</ele>
        <time>2020-08-22T15:54:20.000Z</time>
      </trkpt>
      <trkpt lat="43.23436416685581207275390625" lon="-1.6388603858649730682373046875">
        <ele>121</ele>
        <time>2020-08-22T15:54:23.000Z</time>
      </trkpt>
      <trkpt lat="43.234453015029430389404296875" lon="-1.6388875432312488555908203125">
        <ele>120.8000030517578125</ele>
        <time>2020-08-22T15:54:27.000Z</time>
      </trkpt>
      <trkpt lat="43.23461973108351230621337890625" lon="-1.63892165757715702056884765625">
        <ele>120.8000030517578125</ele>
        <time>2020-08-22T15:54:33.000Z</time>
      </trkpt>
      <trkpt lat="43.23489616625010967254638671875" lon="-1.63900480605661869049072265625">
        <ele>122</ele>
        <time>2020-08-22T15:54:43.000Z</time>
      </trkpt>
      <trkpt lat="43.23518366552889347076416015625" lon="-1.63908694870769977569580078125">
        <ele>122.1999969482421875</ele>
        <time>2020-08-22T15:54:53.000Z</time>
      </trkpt>
      <trkpt lat="43.23521233163774013519287109375" lon="-1.63909591734409332275390625">
        <ele>122.1999969482421875</ele>
        <time>2020-08-22T15:54:54.000Z</time>
      </trkpt>
      <trkpt lat="43.23537879623472690582275390625" lon="-1.63920563645660877227783203125">
        <ele>123</ele>
        <time>2020-08-22T15:55:01.000Z</time>
      </trkpt>
      <trkpt lat="43.23551810346543788909912109375" lon="-1.63940948434174060821533203125">
        <ele>123</ele>
        <time>2020-08-22T15:55:09.000Z</time>
      </trkpt>
      <trkpt lat="43.23555850423872470855712890625" lon="-1.63950151763856410980224609375">
        <ele>123.1999969482421875</ele>
        <time>2020-08-22T15:55:12.000Z</time>
      </trkpt>
      <trkpt lat="43.2356172613799571990966796875" lon="-1.639658175408840179443359375">
        <ele>123.59999847412109375</ele>
        <time>2020-08-22T15:55:17.000Z</time>
      </trkpt>
      <trkpt lat="43.235699571669101715087890625" lon="-1.6399151645600795745849609375">
        <ele>123.8000030517578125</ele>
        <time>2020-08-22T15:55:25.000Z</time>
      </trkpt>
      <trkpt lat="43.23575246147811412811279296875" lon="-1.6401149891316890716552734375">
        <ele>123.8000030517578125</ele>
        <time>2020-08-22T15:55:31.000Z</time>
      </trkpt>
      <trkpt lat="43.2358452491462230682373046875" lon="-1.6404412128031253814697265625">
        <ele>124.1999969482421875</ele>
        <time>2020-08-22T15:55:40.000Z</time>
      </trkpt>
      <trkpt lat="43.235943652689456939697265625" lon="-1.64078730158507823944091796875">
        <ele>124.40000152587890625</ele>
        <time>2020-08-22T15:55:49.000Z</time>
      </trkpt>
      <trkpt lat="43.23603895492851734161376953125" lon="-1.6410923190414905548095703125">
        <ele>124.40000152587890625</ele>
        <time>2020-08-22T15:55:57.000Z</time>
      </trkpt>
      <trkpt lat="43.2360531203448772430419921875" lon="-1.6411288641393184661865234375">
        <ele>124.40000152587890625</ele>
        <time>2020-08-22T15:55:58.000Z</time>
      </trkpt>
      <trkpt lat="43.2361396215856075286865234375" lon="-1.6413013637065887451171875">
        <ele>124.8000030517578125</ele>
        <time>2020-08-22T15:56:03.000Z</time>
      </trkpt>
      <trkpt lat="43.236197121441364288330078125" lon="-1.6414004378020763397216796875">
        <ele>124.8000030517578125</ele>
        <time>2020-08-22T15:56:06.000Z</time>
      </trkpt>
      <trkpt lat="43.2363039068877696990966796875" lon="-1.64168131537735462188720703125">
        <ele>125</ele>
        <time>2020-08-22T15:56:14.000Z</time>
      </trkpt>
      <trkpt lat="43.23634187690913677215576171875" lon="-1.64197702892124652862548828125">
        <ele>125.8000030517578125</ele>
        <time>2020-08-22T15:56:22.000Z</time>
      </trkpt>
      <trkpt lat="43.23635444976389408111572265625" lon="-1.64212354458868503570556640625">
        <ele>126</ele>
        <time>2020-08-22T15:56:26.000Z</time>
      </trkpt>
      <trkpt lat="43.23635495267808437347412109375" lon="-1.64223351515829563140869140625">
        <ele>126.40000152587890625</ele>
        <time>2020-08-22T15:56:29.000Z</time>
      </trkpt>
      <trkpt lat="43.23635227046906948089599609375" lon="-1.6424397937953472137451171875">
        <ele>126.8000030517578125</ele>
        <time>2020-08-22T15:56:35.000Z</time>
      </trkpt>
      <trkpt lat="43.23634590022265911102294921875" lon="-1.64257985539734363555908203125">
        <ele>127.1999969482421875</ele>
        <time>2020-08-22T15:56:39.000Z</time>
      </trkpt>
      <trkpt lat="43.23633282445371150970458984375" lon="-1.64269837550818920135498046875">
        <ele>127.59999847412109375</ele>
        <time>2020-08-22T15:56:42.000Z</time>
      </trkpt>
      <trkpt lat="43.2363148033618927001953125" lon="-1.64285779930651187896728515625">
        <ele>128.399993896484375</ele>
        <time>2020-08-22T15:56:46.000Z</time>
      </trkpt>
      <trkpt lat="43.23631103150546550750732421875" lon="-1.642971374094486236572265625">
        <ele>128.8000030517578125</ele>
        <time>2020-08-22T15:56:49.000Z</time>
      </trkpt>
      <trkpt lat="43.23629401624202728271484375" lon="-1.643201373517513275146484375">
        <ele>129</ele>
        <time>2020-08-22T15:56:55.000Z</time>
      </trkpt>
      <trkpt lat="43.23626585304737091064453125" lon="-1.64330338127911090850830078125">
        <ele>129.600006103515625</ele>
        <time>2020-08-22T15:56:58.000Z</time>
      </trkpt>
      <trkpt lat="43.23623090051114559173583984375" lon="-1.6434144414961338043212890625">
        <ele>129.8000030517578125</ele>
        <time>2020-08-22T15:57:01.000Z</time>
      </trkpt>
      <trkpt lat="43.23620776645839214324951171875" lon="-1.64369833655655384063720703125">
        <ele>130.1999969482421875</ele>
        <time>2020-08-22T15:57:08.000Z</time>
      </trkpt>
      <trkpt lat="43.236187063157558441162109375" lon="-1.64411055855453014373779296875">
        <ele>130.8000030517578125</ele>
        <time>2020-08-22T15:57:18.000Z</time>
      </trkpt>
      <trkpt lat="43.23614825494587421417236328125" lon="-1.64439956657588481903076171875">
        <ele>130.600006103515625</ele>
        <time>2020-08-22T15:57:25.000Z</time>
      </trkpt>
      <trkpt lat="43.2361379452049732208251953125" lon="-1.6444843076169490814208984375">
        <ele>130.8000030517578125</ele>
        <time>2020-08-22T15:57:27.000Z</time>
      </trkpt>
      <trkpt lat="43.23611003346741199493408203125" lon="-1.64468823932111263275146484375">
        <ele>130.8000030517578125</ele>
        <time>2020-08-22T15:57:32.000Z</time>
      </trkpt>
      <trkpt lat="43.23604951612651348114013671875" lon="-1.6449786722660064697265625">
        <ele>130.600006103515625</ele>
        <time>2020-08-22T15:57:39.000Z</time>
      </trkpt>
      <trkpt lat="43.2359921000897884368896484375" lon="-1.64517086930572986602783203125">
        <ele>130.600006103515625</ele>
        <time>2020-08-22T15:57:44.000Z</time>
      </trkpt>
      <trkpt lat="43.235915489494800567626953125" lon="-1.64543942548334598541259765625">
        <ele>130.600006103515625</ele>
        <time>2020-08-22T15:57:51.000Z</time>
      </trkpt>
      <trkpt lat="43.23583980090916156768798828125" lon="-1.64566741324961185455322265625">
        <ele>131</ele>
        <time>2020-08-22T15:57:57.000Z</time>
      </trkpt>
      <trkpt lat="43.2357761822640895843505859375" lon="-1.64593244902789592742919921875">
        <ele>131.399993896484375</ele>
        <time>2020-08-22T15:58:04.000Z</time>
      </trkpt>
      <trkpt lat="43.23575296439230442047119140625" lon="-1.645999252796173095703125">
        <ele>131.600006103515625</ele>
        <time>2020-08-22T15:58:06.000Z</time>
      </trkpt>
      <trkpt lat="43.23574106208980083465576171875" lon="-1.646069996058940887451171875">
        <ele>132</ele>
        <time>2020-08-22T15:58:08.000Z</time>
      </trkpt>
      <trkpt lat="43.2357255555689334869384765625" lon="-1.64613545872271060943603515625">
        <ele>132.399993896484375</ele>
        <time>2020-08-22T15:58:10.000Z</time>
      </trkpt>
      <trkpt lat="43.23570736683905124664306640625" lon="-1.6462366282939910888671875">
        <ele>132.8000030517578125</ele>
        <time>2020-08-22T15:58:13.000Z</time>
      </trkpt>
      <trkpt lat="43.235669396817684173583984375" lon="-1.6464181803166866302490234375">
        <ele>132.8000030517578125</ele>
        <time>2020-08-22T15:58:18.000Z</time>
      </trkpt>
      <trkpt lat="43.2356227934360504150390625" lon="-1.64670291356742382049560546875">
        <ele>133.399993896484375</ele>
        <time>2020-08-22T15:58:25.000Z</time>
      </trkpt>
      <trkpt lat="43.23561533354222774505615234375" lon="-1.646742559969425201416015625">
        <ele>133.600006103515625</ele>
        <time>2020-08-22T15:58:26.000Z</time>
      </trkpt>
      <trkpt lat="43.235574178397655487060546875" lon="-1.64700650610029697418212890625">
        <ele>134.1999969482421875</ele>
        <time>2020-08-22T15:58:33.000Z</time>
      </trkpt>
      <trkpt lat="43.2355611026287078857421875" lon="-1.64715553633868694305419921875">
        <ele>134.8000030517578125</ele>
        <time>2020-08-22T15:58:37.000Z</time>
      </trkpt>
      <trkpt lat="43.23556051589548587799072265625" lon="-1.6472285427153110504150390625">
        <ele>135.1999969482421875</ele>
        <time>2020-08-22T15:58:39.000Z</time>
      </trkpt>
      <trkpt lat="43.2355840690433979034423828125" lon="-1.64738201536238193511962890625">
        <ele>135.8000030517578125</ele>
        <time>2020-08-22T15:58:43.000Z</time>
      </trkpt>
      <trkpt lat="43.23558080010116100311279296875" lon="-1.64745577611029148101806640625">
        <ele>135.8000030517578125</ele>
        <time>2020-08-22T15:58:45.000Z</time>
      </trkpt>
      <trkpt lat="43.23557543568313121795654296875" lon="-1.647732295095920562744140625">
        <ele>137</ele>
        <time>2020-08-22T15:58:52.000Z</time>
      </trkpt>
      <trkpt lat="43.23558163829147815704345703125" lon="-1.64797159843146800994873046875">
        <ele>137.1999969482421875</ele>
        <time>2020-08-22T15:58:58.000Z</time>
      </trkpt>
      <trkpt lat="43.23559488169848918914794921875" lon="-1.64810788817703723907470703125">
        <ele>138</ele>
        <time>2020-08-22T15:59:02.000Z</time>
      </trkpt>
      <trkpt lat="43.2356035150587558746337890625" lon="-1.64814166724681854248046875">
        <ele>138</ele>
        <time>2020-08-22T15:59:03.000Z</time>
      </trkpt>
      <trkpt lat="43.23562488891184329986572265625" lon="-1.64826638996601104736328125">
        <ele>138.600006103515625</ele>
        <time>2020-08-22T15:59:07.000Z</time>
      </trkpt>
      <trkpt lat="43.235628493130207061767578125" lon="-1.64833118207752704620361328125">
        <ele>139</ele>
        <time>2020-08-22T15:59:09.000Z</time>
      </trkpt>
      <trkpt lat="43.235626481473445892333984375" lon="-1.64836303330957889556884765625">
        <ele>139.1999969482421875</ele>
        <time>2020-08-22T15:59:10.000Z</time>
      </trkpt>
      <trkpt lat="43.23561902157962322235107421875" lon="-1.6484291665256023406982421875">
        <ele>139.399993896484375</ele>
        <time>2020-08-22T15:59:12.000Z</time>
      </trkpt>
      <trkpt lat="43.235596306622028350830078125" lon="-1.6485411487519741058349609375">
        <ele>139.600006103515625</ele>
        <time>2020-08-22T15:59:15.000Z</time>
      </trkpt>
      <trkpt lat="43.23555598966777324676513671875" lon="-1.648658998310565948486328125">
        <ele>139.8000030517578125</ele>
        <time>2020-08-22T15:59:18.000Z</time>
      </trkpt>
      <trkpt lat="43.23551089502871036529541015625" lon="-1.64880073629319667816162109375">
        <ele>140.399993896484375</ele>
        <time>2020-08-22T15:59:22.000Z</time>
      </trkpt>
      <trkpt lat="43.23549480177462100982666015625" lon="-1.648925878107547760009765625">
        <ele>140.600006103515625</ele>
        <time>2020-08-22T15:59:25.000Z</time>
      </trkpt>
      <trkpt lat="43.235470913350582122802734375" lon="-1.6492013074457645416259765625">
        <ele>141.1999969482421875</ele>
        <time>2020-08-22T15:59:31.000Z</time>
      </trkpt>
      <trkpt lat="43.23546378873288631439208984375" lon="-1.64927733130753040313720703125">
        <ele>141.8000030517578125</ele>
        <time>2020-08-22T15:59:33.000Z</time>
      </trkpt>
      <trkpt lat="43.2354269921779632568359375" lon="-1.64946801960468292236328125">
        <ele>142</ele>
        <time>2020-08-22T15:59:38.000Z</time>
      </trkpt>
      <trkpt lat="43.23539975099265575408935546875" lon="-1.64969676174223423004150390625">
        <ele>142.600006103515625</ele>
        <time>2020-08-22T15:59:44.000Z</time>
      </trkpt>
      <trkpt lat="43.2353886030614376068115234375" lon="-1.64977320469915866851806640625">
        <ele>142.8000030517578125</ele>
        <time>2020-08-22T15:59:46.000Z</time>
      </trkpt>
      <trkpt lat="43.235364295542240142822265625" lon="-1.64995693601667881011962890625">
        <ele>143.399993896484375</ele>
        <time>2020-08-22T15:59:51.000Z</time>
      </trkpt>
      <trkpt lat="43.2353520579636096954345703125" lon="-1.6501384042203426361083984375">
        <ele>144</ele>
        <time>2020-08-22T15:59:56.000Z</time>
      </trkpt>
      <trkpt lat="43.23535415343940258026123046875" lon="-1.65024778805673122406005859375">
        <ele>144.399993896484375</ele>
        <time>2020-08-22T15:59:59.000Z</time>
      </trkpt>
      <trkpt lat="43.23535784147679805755615234375" lon="-1.65035909973084926605224609375">
        <ele>145</ele>
        <time>2020-08-22T16:00:02.000Z</time>
      </trkpt>
      <trkpt lat="43.23535482399165630340576171875" lon="-1.65054635144770145416259765625">
        <ele>145.399993896484375</ele>
        <time>2020-08-22T16:00:07.000Z</time>
      </trkpt>
      <trkpt lat="43.2353698275983333587646484375" lon="-1.6507703997194766998291015625">
        <ele>146.1999969482421875</ele>
        <time>2020-08-22T16:00:13.000Z</time>
      </trkpt>
      <trkpt lat="43.2353711687028408050537109375" lon="-1.6508071124553680419921875">
        <ele>146.1999969482421875</ele>
        <time>2020-08-22T16:00:14.000Z</time>
      </trkpt>
      <trkpt lat="43.23539857752621173858642578125" lon="-1.651031076908111572265625">
        <ele>147</ele>
        <time>2020-08-22T16:00:20.000Z</time>
      </trkpt>
      <trkpt lat="43.23546345345675945281982421875" lon="-1.65121413767337799072265625">
        <ele>147.399993896484375</ele>
        <time>2020-08-22T16:00:26.000Z</time>
      </trkpt>
      <trkpt lat="43.23557945899665355682373046875" lon="-1.6513916663825511932373046875">
        <ele>148.1999969482421875</ele>
        <time>2020-08-22T16:00:32.000Z</time>
      </trkpt>
      <trkpt lat="43.23563913814723491668701171875" lon="-1.65147523395717144012451171875">
        <ele>148.399993896484375</ele>
        <time>2020-08-22T16:00:35.000Z</time>
      </trkpt>
      <trkpt lat="43.23570661246776580810546875" lon="-1.65154916234314441680908203125">
        <ele>149</ele>
        <time>2020-08-22T16:00:38.000Z</time>
      </trkpt>
      <trkpt lat="43.23579923249781131744384765625" lon="-1.6516451351344585418701171875">
        <ele>149.399993896484375</ele>
        <time>2020-08-22T16:00:42.000Z</time>
      </trkpt>
      <trkpt lat="43.23586980812251567840576171875" lon="-1.65171612985432147979736328125">
        <ele>149.8000030517578125</ele>
        <time>2020-08-22T16:00:45.000Z</time>
      </trkpt>
      <trkpt lat="43.2359193451702594757080078125" lon="-1.651762314140796661376953125">
        <ele>150</ele>
        <time>2020-08-22T16:00:47.000Z</time>
      </trkpt>
      <trkpt lat="43.23599218390882015228271484375" lon="-1.65182945318520069122314453125">
        <ele>150.600006103515625</ele>
        <time>2020-08-22T16:00:50.000Z</time>
      </trkpt>
      <trkpt lat="43.23603861965239048004150390625" lon="-1.65187806822359561920166015625">
        <ele>151.1999969482421875</ele>
        <time>2020-08-22T16:00:52.000Z</time>
      </trkpt>
      <trkpt lat="43.23612813837826251983642578125" lon="-1.6519720293581485748291015625">
        <ele>151.8000030517578125</ele>
        <time>2020-08-22T16:00:56.000Z</time>
      </trkpt>
      <trkpt lat="43.23622888885438442230224609375" lon="-1.652088202536106109619140625">
        <ele>152.8000030517578125</ele>
        <time>2020-08-22T16:01:01.000Z</time>
      </trkpt>
      <trkpt lat="43.2362941838800907135009765625" lon="-1.65215232409536838531494140625">
        <ele>153.1999969482421875</ele>
        <time>2020-08-22T16:01:04.000Z</time>
      </trkpt>
      <trkpt lat="43.23637473396956920623779296875" lon="-1.65224117226898670196533203125">
        <ele>153.399993896484375</ele>
        <time>2020-08-22T16:01:08.000Z</time>
      </trkpt>
      <trkpt lat="43.2364757359027862548828125" lon="-1.65240830741822719573974609375">
        <ele>154.1999969482421875</ele>
        <time>2020-08-22T16:01:14.000Z</time>
      </trkpt>
      <trkpt lat="43.23648990131914615631103515625" lon="-1.65243722498416900634765625">
        <ele>154.1999969482421875</ele>
        <time>2020-08-22T16:01:15.000Z</time>
      </trkpt>
      <trkpt lat="43.236563242971897125244140625" lon="-1.65259706787765026092529296875">
        <ele>155</ele>
        <time>2020-08-22T16:01:21.000Z</time>
      </trkpt>
      <trkpt lat="43.23658729903399944305419921875" lon="-1.65264937095344066619873046875">
        <ele>155.1999969482421875</ele>
        <time>2020-08-22T16:01:23.000Z</time>
      </trkpt>
      <trkpt lat="43.2366056554019451141357421875" lon="-1.6527036018669605255126953125">
        <ele>155.399993896484375</ele>
        <time>2020-08-22T16:01:25.000Z</time>
      </trkpt>
      <trkpt lat="43.2366167195141315460205078125" lon="-1.65276420302689075469970703125">
        <ele>155.600006103515625</ele>
        <time>2020-08-22T16:01:27.000Z</time>
      </trkpt>
      <trkpt lat="43.236655779182910919189453125" lon="-1.65288448333740234375">
        <ele>156.1999969482421875</ele>
        <time>2020-08-22T16:01:31.000Z</time>
      </trkpt>
      <trkpt lat="43.23667111806571483612060546875" lon="-1.65295179001986980438232421875">
        <ele>156.399993896484375</ele>
        <time>2020-08-22T16:01:33.000Z</time>
      </trkpt>
      <trkpt lat="43.2366928271949291229248046875" lon="-1.653090678155422210693359375">
        <ele>156.8000030517578125</ele>
        <time>2020-08-22T16:01:37.000Z</time>
      </trkpt>
      <trkpt lat="43.2367064058780670166015625" lon="-1.65328371338546276092529296875">
        <ele>157.399993896484375</ele>
        <time>2020-08-22T16:01:42.000Z</time>
      </trkpt>
      <trkpt lat="43.23671512305736541748046875" lon="-1.653364263474941253662109375">
        <ele>157.399993896484375</ele>
        <time>2020-08-22T16:01:44.000Z</time>
      </trkpt>
      <trkpt lat="43.23677538894116878509521484375" lon="-1.65364648215472698211669921875">
        <ele>158</ele>
        <time>2020-08-22T16:01:51.000Z</time>
      </trkpt>
      <trkpt lat="43.2367922365665435791015625" lon="-1.6538220830261707305908203125">
        <ele>158.399993896484375</ele>
        <time>2020-08-22T16:01:55.000Z</time>
      </trkpt>
      <trkpt lat="43.2368108443915843963623046875" lon="-1.6539444588124752044677734375">
        <ele>158.8000030517578125</ele>
        <time>2020-08-22T16:01:58.000Z</time>
      </trkpt>
      <trkpt lat="43.23687613941729068756103515625" lon="-1.65414017625153064727783203125">
        <ele>158.600006103515625</ele>
        <time>2020-08-22T16:02:03.000Z</time>
      </trkpt>
      <trkpt lat="43.2370492257177829742431640625" lon="-1.654400937259197235107421875">
        <ele>159</ele>
        <time>2020-08-22T16:02:11.000Z</time>
      </trkpt>
      <trkpt lat="43.23720596730709075927734375" lon="-1.65462330915033817291259765625">
        <ele>158.600006103515625</ele>
        <time>2020-08-22T16:02:17.000Z</time>
      </trkpt>
      <trkpt lat="43.2373476214706897735595703125" lon="-1.654892452061176300048828125">
        <ele>158</ele>
        <time>2020-08-22T16:02:22.000Z</time>
      </trkpt>
      <trkpt lat="43.2373754493892192840576171875" lon="-1.6549519635736942291259765625">
        <ele>157.8000030517578125</ele>
        <time>2020-08-22T16:02:23.000Z</time>
      </trkpt>
      <trkpt lat="43.237400092184543609619140625" lon="-1.65501558221876621246337890625">
        <ele>157.600006103515625</ele>
        <time>2020-08-22T16:02:24.000Z</time>
      </trkpt>
      <trkpt lat="43.237431608140468597412109375" lon="-1.6552409715950489044189453125">
        <ele>156.8000030517578125</ele>
        <time>2020-08-22T16:02:27.000Z</time>
      </trkpt>
      <trkpt lat="43.23738676495850086212158203125" lon="-1.65552042424678802490234375">
        <ele>155.1999969482421875</ele>
        <time>2020-08-22T16:02:30.000Z</time>
      </trkpt>
      <trkpt lat="43.23731870390474796295166015625" lon="-1.6557061672210693359375">
        <ele>154.399993896484375</ele>
        <time>2020-08-22T16:02:32.000Z</time>
      </trkpt>
      <trkpt lat="43.2372884452342987060546875" lon="-1.65579459629952907562255859375">
        <ele>153.8000030517578125</ele>
        <time>2020-08-22T16:02:33.000Z</time>
      </trkpt>
      <trkpt lat="43.23723681271076202392578125" lon="-1.6559784114360809326171875">
        <ele>152.600006103515625</ele>
        <time>2020-08-22T16:02:35.000Z</time>
      </trkpt>
      <trkpt lat="43.2371918857097625732421875" lon="-1.65616256184875965118408203125">
        <ele>151.1999969482421875</ele>
        <time>2020-08-22T16:02:37.000Z</time>
      </trkpt>
      <trkpt lat="43.2371290214359760284423828125" lon="-1.65642491541802883148193359375">
        <ele>150</ele>
        <time>2020-08-22T16:02:40.000Z</time>
      </trkpt>
      <trkpt lat="43.23710806667804718017578125" lon="-1.65651041083037853240966796875">
        <ele>149.399993896484375</ele>
        <time>2020-08-22T16:02:41.000Z</time>
      </trkpt>
      <trkpt lat="43.237088285386562347412109375" lon="-1.6565948165953159332275390625">
        <ele>148.8000030517578125</ele>
        <time>2020-08-22T16:02:42.000Z</time>
      </trkpt>
      <trkpt lat="43.2370498962700366973876953125" lon="-1.656767986714839935302734375">
        <ele>147.399993896484375</ele>
        <time>2020-08-22T16:02:44.000Z</time>
      </trkpt>
      <trkpt lat="43.2369975931942462921142578125" lon="-1.6569485329091548919677734375">
        <ele>146.600006103515625</ele>
        <time>2020-08-22T16:02:46.000Z</time>
      </trkpt>
      <trkpt lat="43.23696565814316272735595703125" lon="-1.6570407338440418243408203125">
        <ele>146.1999969482421875</ele>
        <time>2020-08-22T16:02:47.000Z</time>
      </trkpt>
      <trkpt lat="43.23686532676219940185546875" lon="-1.65733468718826770782470703125">
        <ele>144.600006103515625</ele>
        <time>2020-08-22T16:02:50.000Z</time>
      </trkpt>
      <trkpt lat="43.23680120520293712615966796875" lon="-1.65755026973783969879150390625">
        <ele>143.1999969482421875</ele>
        <time>2020-08-22T16:02:52.000Z</time>
      </trkpt>
      <trkpt lat="43.23674772866070270538330078125" lon="-1.657771132886409759521484375">
        <ele>142.1999969482421875</ele>
        <time>2020-08-22T16:02:54.000Z</time>
      </trkpt>
      <trkpt lat="43.2366934977471828460693359375" lon="-1.65798026137053966522216796875">
        <ele>141</ele>
        <time>2020-08-22T16:02:56.000Z</time>
      </trkpt>
      <trkpt lat="43.236653767526149749755859375" lon="-1.65807581506669521331787109375">
        <ele>140.399993896484375</ele>
        <time>2020-08-22T16:02:57.000Z</time>
      </trkpt>
      <trkpt lat="43.2366006262600421905517578125" lon="-1.65815929882228374481201171875">
        <ele>139.8000030517578125</ele>
        <time>2020-08-22T16:02:58.000Z</time>
      </trkpt>
      <trkpt lat="43.236391246318817138671875" lon="-1.6583167947828769683837890625">
        <ele>138.399993896484375</ele>
        <time>2020-08-22T16:03:01.000Z</time>
      </trkpt>
      <trkpt lat="43.2361590676009654998779296875" lon="-1.65840840898454189300537109375">
        <ele>137</ele>
        <time>2020-08-22T16:03:04.000Z</time>
      </trkpt>
      <trkpt lat="43.23608815670013427734375" lon="-1.65846305899322032928466796875">
        <ele>136.399993896484375</ele>
        <time>2020-08-22T16:03:05.000Z</time>
      </trkpt>
      <trkpt lat="43.2360278069972991943359375" lon="-1.65854034014046192169189453125">
        <ele>136</ele>
        <time>2020-08-22T16:03:06.000Z</time>
      </trkpt>
      <trkpt lat="43.23595915921032428741455078125" lon="-1.65874737314879894256591796875">
        <ele>134.600006103515625</ele>
        <time>2020-08-22T16:03:08.000Z</time>
      </trkpt>
      <trkpt lat="43.2359666191041469573974609375" lon="-1.65897376835346221923828125">
        <ele>133.399993896484375</ele>
        <time>2020-08-22T16:03:10.000Z</time>
      </trkpt>
      <trkpt lat="43.23599721305072307586669921875" lon="-1.65908214636147022247314453125">
        <ele>133</ele>
        <time>2020-08-22T16:03:11.000Z</time>
      </trkpt>
      <trkpt lat="43.23603929020464420318603515625" lon="-1.65918960236012935638427734375">
        <ele>132.399993896484375</ele>
        <time>2020-08-22T16:03:12.000Z</time>
      </trkpt>
      <trkpt lat="43.2360863126814365386962890625" lon="-1.65929839946329593658447265625">
        <ele>131.600006103515625</ele>
        <time>2020-08-22T16:03:13.000Z</time>
      </trkpt>
      <trkpt lat="43.2361332513391971588134765625" lon="-1.65940518490970134735107421875">
        <ele>131.1999969482421875</ele>
        <time>2020-08-22T16:03:14.000Z</time>
      </trkpt>
      <trkpt lat="43.23621782474219799041748046875" lon="-1.65961758233606815338134765625">
        <ele>130.1999969482421875</ele>
        <time>2020-08-22T16:03:16.000Z</time>
      </trkpt>
      <trkpt lat="43.23629326187074184417724609375" lon="-1.6598327457904815673828125">
        <ele>129</ele>
        <time>2020-08-22T16:03:18.000Z</time>
      </trkpt>
      <trkpt lat="43.23635595850646495819091796875" lon="-1.66003634221851825714111328125">
        <ele>128.1999969482421875</ele>
        <time>2020-08-22T16:03:20.000Z</time>
      </trkpt>
      <trkpt lat="43.23639183305203914642333984375" lon="-1.6601430438458919525146484375">
        <ele>127.1999969482421875</ele>
        <time>2020-08-22T16:03:21.000Z</time>
      </trkpt>
      <trkpt lat="43.23650591075420379638671875" lon="-1.66031487286090850830078125">
        <ele>125.8000030517578125</ele>
        <time>2020-08-22T16:03:23.000Z</time>
      </trkpt>
      <trkpt lat="43.2366653345525264739990234375" lon="-1.66039894334971904754638671875">
        <ele>124.40000152587890625</ele>
        <time>2020-08-22T16:03:25.000Z</time>
      </trkpt>
      <trkpt lat="43.23675326071679592132568359375" lon="-1.66042006574571132659912109375">
        <ele>123.59999847412109375</ele>
        <time>2020-08-22T16:03:26.000Z</time>
      </trkpt>
      <trkpt lat="43.236842192709445953369140625" lon="-1.66044370271265506744384765625">
        <ele>123.1999969482421875</ele>
        <time>2020-08-22T16:03:27.000Z</time>
      </trkpt>
      <trkpt lat="43.23701963759958744049072265625" lon="-1.66049650870263576507568359375">
        <ele>121.8000030517578125</ele>
        <time>2020-08-22T16:03:29.000Z</time>
      </trkpt>
      <trkpt lat="43.23719255626201629638671875" lon="-1.66055719368159770965576171875">
        <ele>120.59999847412109375</ele>
        <time>2020-08-22T16:03:31.000Z</time>
      </trkpt>
      <trkpt lat="43.2373630441725254058837890625" lon="-1.6606251709163188934326171875">
        <ele>119.40000152587890625</ele>
        <time>2020-08-22T16:03:33.000Z</time>
      </trkpt>
      <trkpt lat="43.23761492036283016204833984375" lon="-1.6607482172548770904541015625">
        <ele>118.40000152587890625</ele>
        <time>2020-08-22T16:03:36.000Z</time>
      </trkpt>
      <trkpt lat="43.237852714955806732177734375" lon="-1.66091744787991046905517578125">
        <ele>117.40000152587890625</ele>
        <time>2020-08-22T16:03:39.000Z</time>
      </trkpt>
      <trkpt lat="43.23811800219118595123291015625" lon="-1.66122942231595516204833984375">
        <ele>116.1999969482421875</ele>
        <time>2020-08-22T16:03:43.000Z</time>
      </trkpt>
      <trkpt lat="43.2381834648549556732177734375" lon="-1.6613074578344821929931640625">
        <ele>115.8000030517578125</ele>
        <time>2020-08-22T16:03:44.000Z</time>
      </trkpt>
      <trkpt lat="43.238253034651279449462890625" lon="-1.66137794964015483856201171875">
        <ele>115</ele>
        <time>2020-08-22T16:03:45.000Z</time>
      </trkpt>
      <trkpt lat="43.2383286394178867340087890625" lon="-1.6614348627626895904541015625">
        <ele>114.40000152587890625</ele>
        <time>2020-08-22T16:03:46.000Z</time>
      </trkpt>
      <trkpt lat="43.23841094970703125" lon="-1.6614715754985809326171875">
        <ele>114</ele>
        <time>2020-08-22T16:03:47.000Z</time>
      </trkpt>
      <trkpt lat="43.23849602602422237396240234375" lon="-1.66149613447487354278564453125">
        <ele>113.8000030517578125</ele>
        <time>2020-08-22T16:03:48.000Z</time>
      </trkpt>
      <trkpt lat="43.23867020197212696075439453125" lon="-1.6615253873169422149658203125">
        <ele>113</ele>
        <time>2020-08-22T16:03:50.000Z</time>
      </trkpt>
      <trkpt lat="43.23875519447028636932373046875" lon="-1.661531589925289154052734375">
        <ele>112.40000152587890625</ele>
        <time>2020-08-22T16:03:51.000Z</time>
      </trkpt>
      <trkpt lat="43.23883733712136745452880859375" lon="-1.6615277342498302459716796875">
        <ele>112</ele>
        <time>2020-08-22T16:03:52.000Z</time>
      </trkpt>
      <trkpt lat="43.238915540277957916259765625" lon="-1.66151189245283603668212890625">
        <ele>111</ele>
        <time>2020-08-22T16:03:53.000Z</time>
      </trkpt>
      <trkpt lat="43.23907236568629741668701171875" lon="-1.66146688163280487060546875">
        <ele>110.40000152587890625</ele>
        <time>2020-08-22T16:03:55.000Z</time>
      </trkpt>
      <trkpt lat="43.23915014974772930145263671875" lon="-1.661476604640483856201171875">
        <ele>110</ele>
        <time>2020-08-22T16:03:56.000Z</time>
      </trkpt>
      <trkpt lat="43.23922223411500453948974609375" lon="-1.66151507757604122161865234375">
        <ele>109.59999847412109375</ele>
        <time>2020-08-22T16:03:57.000Z</time>
      </trkpt>
      <trkpt lat="43.23933907784521579742431640625" lon="-1.661656983196735382080078125">
        <ele>108.59999847412109375</ele>
        <time>2020-08-22T16:03:59.000Z</time>
      </trkpt>
      <trkpt lat="43.2393859326839447021484375" lon="-1.66174708865582942962646484375">
        <ele>108.1999969482421875</ele>
        <time>2020-08-22T16:04:00.000Z</time>
      </trkpt>
      <trkpt lat="43.2395027764141559600830078125" lon="-1.6620762459933757781982421875">
        <ele>107</ele>
        <time>2020-08-22T16:04:03.000Z</time>
      </trkpt>
      <trkpt lat="43.23957477696239948272705078125" lon="-1.66231177747249603271484375">
        <ele>105.8000030517578125</ele>
        <time>2020-08-22T16:04:05.000Z</time>
      </trkpt>
      <trkpt lat="43.239636383950710296630859375" lon="-1.66258024983108043670654296875">
        <ele>104.40000152587890625</ele>
        <time>2020-08-22T16:04:07.000Z</time>
      </trkpt>
      <trkpt lat="43.2396553270518779754638671875" lon="-1.6627186350524425506591796875">
        <ele>103.8000030517578125</ele>
        <time>2020-08-22T16:04:08.000Z</time>
      </trkpt>
      <trkpt lat="43.23966027237474918365478515625" lon="-1.6628581099212169647216796875">
        <ele>102.8000030517578125</ele>
        <time>2020-08-22T16:04:09.000Z</time>
      </trkpt>
      <trkpt lat="43.2396543212234973907470703125" lon="-1.6629972495138645172119140625">
        <ele>102</ele>
        <time>2020-08-22T16:04:10.000Z</time>
      </trkpt>
      <trkpt lat="43.23964141309261322021484375" lon="-1.66313923895359039306640625">
        <ele>101.59999847412109375</ele>
        <time>2020-08-22T16:04:11.000Z</time>
      </trkpt>
      <trkpt lat="43.23959715664386749267578125" lon="-1.6635105572640895843505859375">
        <ele>100.40000152587890625</ele>
        <time>2020-08-22T16:04:14.000Z</time>
      </trkpt>
      <trkpt lat="43.239494897425174713134765625" lon="-1.6639933548867702484130859375">
        <ele>99.59999847412109375</ele>
        <time>2020-08-22T16:04:19.000Z</time>
      </trkpt>
      <trkpt lat="43.23947243392467498779296875" lon="-1.66407558135688304901123046875">
        <ele>99.40000152587890625</ele>
        <time>2020-08-22T16:04:20.000Z</time>
      </trkpt>
      <trkpt lat="43.2394422590732574462890625" lon="-1.66414716280996799468994140625">
        <ele>99</ele>
        <time>2020-08-22T16:04:21.000Z</time>
      </trkpt>
      <trkpt lat="43.23939372785389423370361328125" lon="-1.66427875868976116180419921875">
        <ele>98.59999847412109375</ele>
        <time>2020-08-22T16:04:23.000Z</time>
      </trkpt>
      <trkpt lat="43.239356763660907745361328125" lon="-1.664417646825313568115234375">
        <ele>98.40000152587890625</ele>
        <time>2020-08-22T16:04:25.000Z</time>
      </trkpt>
      <trkpt lat="43.239339999854564666748046875" lon="-1.66448461823165416717529296875">
        <ele>98.1999969482421875</ele>
        <time>2020-08-22T16:04:26.000Z</time>
      </trkpt>
      <trkpt lat="43.23931611143052577972412109375" lon="-1.66455209255218505859375">
        <ele>98</ele>
        <time>2020-08-22T16:04:27.000Z</time>
      </trkpt>
      <trkpt lat="43.23929130099713802337646484375" lon="-1.66461772285401821136474609375">
        <ele>98</ele>
        <time>2020-08-22T16:04:28.000Z</time>
      </trkpt>
      <trkpt lat="43.2392305321991443634033203125" lon="-1.6648137755692005157470703125">
        <ele>97.59999847412109375</ele>
        <time>2020-08-22T16:04:31.000Z</time>
      </trkpt>
      <trkpt lat="43.2392027042806148529052734375" lon="-1.66494143195450305938720703125">
        <ele>97.1999969482421875</ele>
        <time>2020-08-22T16:04:33.000Z</time>
      </trkpt>
      <trkpt lat="43.2391901314258575439453125" lon="-1.66506783105432987213134765625">
        <ele>97.1999969482421875</ele>
        <time>2020-08-22T16:04:35.000Z</time>
      </trkpt>
      <trkpt lat="43.23918409645557403564453125" lon="-1.66518132202327251434326171875">
        <ele>96.8000030517578125</ele>
        <time>2020-08-22T16:04:37.000Z</time>
      </trkpt>
      <trkpt lat="43.2392218150198459625244140625" lon="-1.665280647575855255126953125">
        <ele>96.40000152587890625</ele>
        <time>2020-08-22T16:04:39.000Z</time>
      </trkpt>
      <trkpt lat="43.2392519898712635040283203125" lon="-1.66534158401191234588623046875">
        <ele>96.1999969482421875</ele>
        <time>2020-08-22T16:04:40.000Z</time>
      </trkpt>
      <trkpt lat="43.23931845836341381072998046875" lon="-1.66541785933077335357666015625">
        <ele>96.1999969482421875</ele>
        <time>2020-08-22T16:04:42.000Z</time>
      </trkpt>
      <trkpt lat="43.2393555901944637298583984375" lon="-1.66544350795447826385498046875">
        <ele>96.1999969482421875</ele>
        <time>2020-08-22T16:04:43.000Z</time>
      </trkpt>
      <trkpt lat="43.2395121641457080841064453125" lon="-1.665496565401554107666015625">
        <ele>96.40000152587890625</ele>
        <time>2020-08-22T16:04:47.000Z</time>
      </trkpt>
      <trkpt lat="43.23955248109996318817138671875" lon="-1.665504276752471923828125">
        <ele>96.40000152587890625</ele>
        <time>2020-08-22T16:04:48.000Z</time>
      </trkpt>
      <trkpt lat="43.239820115268230438232421875" lon="-1.66551274247467517852783203125">
        <ele>96.8000030517578125</ele>
        <time>2020-08-22T16:04:55.000Z</time>
      </trkpt>
      <trkpt lat="43.23993419297039508819580078125" lon="-1.66551844216883182525634765625">
        <ele>97.59999847412109375</ele>
        <time>2020-08-22T16:04:58.000Z</time>
      </trkpt>
      <trkpt lat="43.2401149906218051910400390625" lon="-1.66556035168468952178955078125">
        <ele>97.8000030517578125</ele>
        <time>2020-08-22T16:05:03.000Z</time>
      </trkpt>
      <trkpt lat="43.240355215966701507568359375" lon="-1.66567132808268070220947265625">
        <ele>97.8000030517578125</ele>
        <time>2020-08-22T16:05:10.000Z</time>
      </trkpt>
      <trkpt lat="43.24060323648154735565185546875" lon="-1.66578532196581363677978515625">
        <ele>97.8000030517578125</ele>
        <time>2020-08-22T16:05:17.000Z</time>
      </trkpt>
      <trkpt lat="43.240852095186710357666015625" lon="-1.66589562781155109405517578125">
        <ele>98.40000152587890625</ele>
        <time>2020-08-22T16:05:24.000Z</time>
      </trkpt>
      <trkpt lat="43.2409270294010639190673828125" lon="-1.66592546738684177398681640625">
        <ele>98.8000030517578125</ele>
        <time>2020-08-22T16:05:26.000Z</time>
      </trkpt>
      <trkpt lat="43.241108246147632598876953125" lon="-1.6660103760659694671630859375">
        <ele>99</ele>
        <time>2020-08-22T16:05:31.000Z</time>
      </trkpt>
      <trkpt lat="43.24114353395998477935791015625" lon="-1.666039042174816131591796875">
        <ele>99.1999969482421875</ele>
        <time>2020-08-22T16:05:32.000Z</time>
      </trkpt>
      <trkpt lat="43.241262473165988922119140625" lon="-1.66620944626629352569580078125">
        <ele>99.1999969482421875</ele>
        <time>2020-08-22T16:05:36.000Z</time>
      </trkpt>
      <trkpt lat="43.24129491113126277923583984375" lon="-1.66630382649600505828857421875">
        <ele>99.1999969482421875</ele>
        <time>2020-08-22T16:05:38.000Z</time>
      </trkpt>
      <trkpt lat="43.24133195914328098297119140625" lon="-1.66651253588497638702392578125">
        <ele>99</ele>
        <time>2020-08-22T16:05:42.000Z</time>
      </trkpt>
      <trkpt lat="43.24132449924945831298828125" lon="-1.666630804538726806640625">
        <ele>98.8000030517578125</ele>
        <time>2020-08-22T16:05:44.000Z</time>
      </trkpt>
      <trkpt lat="43.24129507876932621002197265625" lon="-1.66675544343888759613037109375">
        <ele>98.59999847412109375</ele>
        <time>2020-08-22T16:05:46.000Z</time>
      </trkpt>
      <trkpt lat="43.2412393391132354736328125" lon="-1.66694127023220062255859375">
        <ele>98.40000152587890625</ele>
        <time>2020-08-22T16:05:49.000Z</time>
      </trkpt>
      <trkpt lat="43.24121863581240177154541015625" lon="-1.66700438596308231353759765625">
        <ele>98.40000152587890625</ele>
        <time>2020-08-22T16:05:50.000Z</time>
      </trkpt>
      <trkpt lat="43.241192400455474853515625" lon="-1.6670720279216766357421875">
        <ele>98.1999969482421875</ele>
        <time>2020-08-22T16:05:51.000Z</time>
      </trkpt>
      <trkpt lat="43.241128027439117431640625" lon="-1.6671892069280147552490234375">
        <ele>98</ele>
        <time>2020-08-22T16:05:53.000Z</time>
      </trkpt>
      <trkpt lat="43.24106105603277683258056640625" lon="-1.66729054413735866546630859375">
        <ele>97.8000030517578125</ele>
        <time>2020-08-22T16:05:55.000Z</time>
      </trkpt>
      <trkpt lat="43.24103088118135929107666015625" lon="-1.66734217666089534759521484375">
        <ele>97.59999847412109375</ele>
        <time>2020-08-22T16:05:56.000Z</time>
      </trkpt>
      <trkpt lat="43.24094831943511962890625" lon="-1.667490117251873016357421875">
        <ele>97.59999847412109375</ele>
        <time>2020-08-22T16:05:59.000Z</time>
      </trkpt>
      <trkpt lat="43.2408720441162586212158203125" lon="-1.6675650514662265777587890625">
        <ele>97.40000152587890625</ele>
        <time>2020-08-22T16:06:01.000Z</time>
      </trkpt>
      <trkpt lat="43.24076601304113864898681640625" lon="-1.66763436980545520782470703125">
        <ele>96.8000030517578125</ele>
        <time>2020-08-22T16:06:04.000Z</time>
      </trkpt>
      <trkpt lat="43.24063944630324840545654296875" lon="-1.667698659002780914306640625">
        <ele>96.8000030517578125</ele>
        <time>2020-08-22T16:06:07.000Z</time>
      </trkpt>
      <trkpt lat="43.2405179925262928009033203125" lon="-1.66778474114835262298583984375">
        <ele>96.8000030517578125</ele>
        <time>2020-08-22T16:06:10.000Z</time>
      </trkpt>
      <trkpt lat="43.24043794535100460052490234375" lon="-1.66783084161579608917236328125">
        <ele>96.59999847412109375</ele>
        <time>2020-08-22T16:06:12.000Z</time>
      </trkpt>
      <trkpt lat="43.240249939262866973876953125" lon="-1.66796478442847728729248046875">
        <ele>96.1999969482421875</ele>
        <time>2020-08-22T16:06:17.000Z</time>
      </trkpt>
      <trkpt lat="43.2402108795940876007080078125" lon="-1.66799562983214855194091796875">
        <ele>96</ele>
        <time>2020-08-22T16:06:18.000Z</time>
      </trkpt>
      <trkpt lat="43.2400134019553661346435546875" lon="-1.66817634366452693939208984375">
        <ele>95.8000030517578125</ele>
        <time>2020-08-22T16:06:23.000Z</time>
      </trkpt>
      <trkpt lat="43.23997660540044307708740234375" lon="-1.66821825318038463592529296875">
        <ele>95.59999847412109375</ele>
        <time>2020-08-22T16:06:24.000Z</time>
      </trkpt>
      <trkpt lat="43.239940814673900604248046875" lon="-1.66826426982879638671875">
        <ele>95.59999847412109375</ele>
        <time>2020-08-22T16:06:25.000Z</time>
      </trkpt>
      <trkpt lat="43.239877782762050628662109375" lon="-1.66837566532194614410400390625">
        <ele>95.1999969482421875</ele>
        <time>2020-08-22T16:06:27.000Z</time>
      </trkpt>
      <trkpt lat="43.23981936089694499969482421875" lon="-1.66851497255265712738037109375">
        <ele>94.8000030517578125</ele>
        <time>2020-08-22T16:06:29.000Z</time>
      </trkpt>
      <trkpt lat="43.239793963730335235595703125" lon="-1.66859124787151813507080078125">
        <ele>94.40000152587890625</ele>
        <time>2020-08-22T16:06:30.000Z</time>
      </trkpt>
      <trkpt lat="43.239783234894275665283203125" lon="-1.66875687427818775177001953125">
        <ele>94</ele>
        <time>2020-08-22T16:06:32.000Z</time>
      </trkpt>
      <trkpt lat="43.2398873381316661834716796875" lon="-1.66897949762642383575439453125">
        <ele>92.8000030517578125</ele>
        <time>2020-08-22T16:06:35.000Z</time>
      </trkpt>
      <trkpt lat="43.24007970280945301055908203125" lon="-1.66910908184945583343505859375">
        <ele>91.59999847412109375</ele>
        <time>2020-08-22T16:06:38.000Z</time>
      </trkpt>
      <trkpt lat="43.240149356424808502197265625" lon="-1.669136323034763336181640625">
        <ele>91.1999969482421875</ele>
        <time>2020-08-22T16:06:39.000Z</time>
      </trkpt>
      <trkpt lat="43.24049125425517559051513671875" lon="-1.66925576515495777130126953125">
        <ele>90.40000152587890625</ele>
        <time>2020-08-22T16:06:44.000Z</time>
      </trkpt>
      <trkpt lat="43.2406219281256198883056640625" lon="-1.66929549537599086761474609375">
        <ele>90.1999969482421875</ele>
        <time>2020-08-22T16:06:46.000Z</time>
      </trkpt>
      <trkpt lat="43.24081932194530963897705078125" lon="-1.669373698532581329345703125">
        <ele>89</ele>
        <time>2020-08-22T16:06:49.000Z</time>
      </trkpt>
      <trkpt lat="43.241091482341289520263671875" lon="-1.66948325000703334808349609375">
        <ele>88.40000152587890625</ele>
        <time>2020-08-22T16:06:53.000Z</time>
      </trkpt>
      <trkpt lat="43.24129507876932621002197265625" lon="-1.66957008652389049530029296875">
        <ele>87.8000030517578125</ele>
        <time>2020-08-22T16:06:56.000Z</time>
      </trkpt>
      <trkpt lat="43.24149088002741336822509765625" lon="-1.66964015923440456390380859375">
        <ele>86.8000030517578125</ele>
        <time>2020-08-22T16:06:59.000Z</time>
      </trkpt>
      <trkpt lat="43.2415503077208995819091796875" lon="-1.66965792886912822723388671875">
        <ele>86.59999847412109375</ele>
        <time>2020-08-22T16:07:00.000Z</time>
      </trkpt>
      <trkpt lat="43.24165801517665386199951171875" lon="-1.66967888362705707550048828125">
        <ele>85.8000030517578125</ele>
        <time>2020-08-22T16:07:02.000Z</time>
      </trkpt>
      <trkpt lat="43.2417105697095394134521484375" lon="-1.66968223638832569122314453125">
        <ele>85.59999847412109375</ele>
        <time>2020-08-22T16:07:03.000Z</time>
      </trkpt>
      <trkpt lat="43.2418134994804859161376953125" lon="-1.66969162411987781524658203125">
        <ele>85.1999969482421875</ele>
        <time>2020-08-22T16:07:05.000Z</time>
      </trkpt>
      <trkpt lat="43.24185716919600963592529296875" lon="-1.6697017662227153778076171875">
        <ele>85.1999969482421875</ele>
        <time>2020-08-22T16:07:06.000Z</time>
      </trkpt>
      <trkpt lat="43.24196110479533672332763671875" lon="-1.6697507165372371673583984375">
        <ele>85</ele>
        <time>2020-08-22T16:07:09.000Z</time>
      </trkpt>
      <trkpt lat="43.24210577644407749176025390625" lon="-1.669818945229053497314453125">
        <ele>84.8000030517578125</ele>
        <time>2020-08-22T16:07:13.000Z</time>
      </trkpt>
      <trkpt lat="43.2421886734664440155029296875" lon="-1.6698201186954975128173828125">
        <ele>84.59999847412109375</ele>
        <time>2020-08-22T16:07:15.000Z</time>
      </trkpt>
      <trkpt lat="43.2424317486584186553955078125" lon="-1.6698067076504230499267578125">
        <ele>83.59999847412109375</ele>
        <time>2020-08-22T16:07:21.000Z</time>
      </trkpt>
      <trkpt lat="43.24251380749046802520751953125" lon="-1.66983344592154026031494140625">
        <ele>83.40000152587890625</ele>
        <time>2020-08-22T16:07:23.000Z</time>
      </trkpt>
      <trkpt lat="43.24264758266508579254150390625" lon="-1.669992618262767791748046875">
        <ele>83</ele>
        <time>2020-08-22T16:07:27.000Z</time>
      </trkpt>
      <trkpt lat="43.24264992959797382354736328125" lon="-1.67011457495391368865966796875">
        <ele>82.40000152587890625</ele>
        <time>2020-08-22T16:07:29.000Z</time>
      </trkpt>
      <trkpt lat="43.24263903312385082244873046875" lon="-1.67017375119030475616455078125">
        <ele>82.1999969482421875</ele>
        <time>2020-08-22T16:07:30.000Z</time>
      </trkpt>
      <trkpt lat="43.24256074614822864532470703125" lon="-1.670316159725189208984375">
        <ele>82.1999969482421875</ele>
        <time>2020-08-22T16:07:34.000Z</time>
      </trkpt>
      <trkpt lat="43.24248312972486019134521484375" lon="-1.67042705230414867401123046875">
        <ele>83.40000152587890625</ele>
        <time>2020-08-22T16:07:40.000Z</time>
      </trkpt>
      <trkpt lat="43.242409117519855499267578125" lon="-1.67052059434354305267333984375">
        <ele>84.40000152587890625</ele>
        <time>2020-08-22T16:07:46.000Z</time>
      </trkpt>
      <trkpt lat="43.242399059236049652099609375" lon="-1.6705392859876155853271484375">
        <ele>84.59999847412109375</ele>
        <time>2020-08-22T16:07:47.000Z</time>
      </trkpt>
      <trkpt lat="43.24236813001334667205810546875" lon="-1.6706080175936222076416015625">
        <ele>84.59999847412109375</ele>
        <time>2020-08-22T16:07:53.000Z</time>
      </trkpt>
      <trkpt lat="43.2423680461943149566650390625" lon="-1.6706053353846073150634765625">
        <ele>84.8000030517578125</ele>
        <time>2020-08-22T16:07:56.000Z</time>
      </trkpt>
      <trkpt lat="43.2422014139592647552490234375" lon="-1.67070616967976093292236328125">
        <ele>66.8000030517578125</ele>
        <time>2020-08-23T06:28:24.000Z</time>
      </trkpt>
      <trkpt lat="43.24222412891685962677001953125" lon="-1.67068588547408580780029296875">
        <ele>67</ele>
        <time>2020-08-23T06:28:27.000Z</time>
      </trkpt>
      <trkpt lat="43.2422620989382266998291015625" lon="-1.67071044445037841796875">
        <ele>66.8000030517578125</ele>
        <time>2020-08-23T06:28:30.000Z</time>
      </trkpt>
      <trkpt lat="43.24230216443538665771484375" lon="-1.67069259099662303924560546875">
        <ele>66.8000030517578125</ele>
        <time>2020-08-23T06:28:33.000Z</time>
      </trkpt>
      <trkpt lat="43.2423559762537479400634765625" lon="-1.670643053948879241943359375">
        <ele>66.8000030517578125</ele>
        <time>2020-08-23T06:28:36.000Z</time>
      </trkpt>
      <trkpt lat="43.24239738285541534423828125" lon="-1.67058563791215419769287109375">
        <ele>66.8000030517578125</ele>
        <time>2020-08-23T06:28:38.000Z</time>
      </trkpt>
      <trkpt lat="43.2424780167639255523681640625" lon="-1.67046032845973968505859375">
        <ele>66.40000152587890625</ele>
        <time>2020-08-23T06:28:41.000Z</time>
      </trkpt>
      <trkpt lat="43.2425105385482311248779296875" lon="-1.67040760628879070281982421875">
        <ele>66</ele>
        <time>2020-08-23T06:28:42.000Z</time>
      </trkpt>
      <trkpt lat="43.2426248677074909210205078125" lon="-1.670197807252407073974609375">
        <ele>64.8000030517578125</ele>
        <time>2020-08-23T06:28:46.000Z</time>
      </trkpt>
      <trkpt lat="43.242678008973598480224609375" lon="-1.66995112784206867218017578125">
        <ele>64.1999969482421875</ele>
        <time>2020-08-23T06:28:51.000Z</time>
      </trkpt>
      <trkpt lat="43.242684043943881988525390625" lon="-1.6698908619582653045654296875">
        <ele>64.1999969482421875</ele>
        <time>2020-08-23T06:28:53.000Z</time>
      </trkpt>
      <trkpt lat="43.242669291794300079345703125" lon="-1.669857166707515716552734375">
        <ele>64.1999969482421875</ele>
        <time>2020-08-23T06:28:55.000Z</time>
      </trkpt>
      <trkpt lat="43.2425920106470584869384765625" lon="-1.66978214867413043975830078125">
        <ele>64.59999847412109375</ele>
        <time>2020-08-23T06:29:00.000Z</time>
      </trkpt>
      <trkpt lat="43.2425742410123348236083984375" lon="-1.66976974345743656158447265625">
        <ele>64.59999847412109375</ele>
        <time>2020-08-23T06:29:01.000Z</time>
      </trkpt>
      <trkpt lat="43.24242822825908660888671875" lon="-1.6697061248123645782470703125">
        <ele>65.40000152587890625</ele>
        <time>2020-08-23T06:29:08.000Z</time>
      </trkpt>
      <trkpt lat="43.24226017110049724578857421875" lon="-1.66969916783273220062255859375">
        <ele>65.8000030517578125</ele>
        <time>2020-08-23T06:29:15.000Z</time>
      </trkpt>
      <trkpt lat="43.24223485775291919708251953125" lon="-1.66970067657530307769775390625">
        <ele>65.8000030517578125</ele>
        <time>2020-08-23T06:29:16.000Z</time>
      </trkpt>
      <trkpt lat="43.24200167320668697357177734375" lon="-1.66970537044107913970947265625">
        <ele>66.40000152587890625</ele>
        <time>2020-08-23T06:29:25.000Z</time>
      </trkpt>
      <trkpt lat="43.24181760661303997039794921875" lon="-1.6696965694427490234375">
        <ele>66.40000152587890625</ele>
        <time>2020-08-23T06:29:32.000Z</time>
      </trkpt>
      <trkpt lat="43.2416757009923458099365234375" lon="-1.66967351920902729034423828125">
        <ele>66.8000030517578125</ele>
        <time>2020-08-23T06:29:38.000Z</time>
      </trkpt>
      <trkpt lat="43.24149088002741336822509765625" lon="-1.6696350462734699249267578125">
        <ele>67.1999969482421875</ele>
        <time>2020-08-23T06:29:46.000Z</time>
      </trkpt>
      <trkpt lat="43.24147026054561138153076171875" lon="-1.66962406598031520843505859375">
        <ele>67.1999969482421875</ele>
        <time>2020-08-23T06:29:47.000Z</time>
      </trkpt>
      <trkpt lat="43.24137923307716846466064453125" lon="-1.66959925554692745208740234375">
        <ele>67.59999847412109375</ele>
        <time>2020-08-23T06:29:51.000Z</time>
      </trkpt>
      <trkpt lat="43.24121721088886260986328125" lon="-1.66950588114559650421142578125">
        <ele>68.1999969482421875</ele>
        <time>2020-08-23T06:29:58.000Z</time>
      </trkpt>
      <trkpt lat="43.24116800911724567413330078125" lon="-1.669487021863460540771484375">
        <ele>68.1999969482421875</ele>
        <time>2020-08-23T06:30:00.000Z</time>
      </trkpt>
      <trkpt lat="43.24105854146182537078857421875" lon="-1.66941602714359760284423828125">
        <ele>69.1999969482421875</ele>
        <time>2020-08-23T06:30:05.000Z</time>
      </trkpt>
      <trkpt lat="43.24090649373829364776611328125" lon="-1.6693607904016971588134765625">
        <ele>69.59999847412109375</ele>
        <time>2020-08-23T06:30:12.000Z</time>
      </trkpt>
      <trkpt lat="43.24075763113796710968017578125" lon="-1.669312007725238800048828125">
        <ele>70.1999969482421875</ele>
        <time>2020-08-23T06:30:19.000Z</time>
      </trkpt>
      <trkpt lat="43.240642547607421875" lon="-1.66927118785679340362548828125">
        <ele>70.59999847412109375</ele>
        <time>2020-08-23T06:30:25.000Z</time>
      </trkpt>
      <trkpt lat="43.2406031526625156402587890625" lon="-1.66925241239368915557861328125">
        <ele>70.8000030517578125</ele>
        <time>2020-08-23T06:30:27.000Z</time>
      </trkpt>
      <trkpt lat="43.24048203416168689727783203125" lon="-1.6692152805626392364501953125">
        <ele>71</ele>
        <time>2020-08-23T06:30:32.000Z</time>
      </trkpt>
      <trkpt lat="43.24033099226653575897216796875" lon="-1.6691938228905200958251953125">
        <ele>71.59999847412109375</ele>
        <time>2020-08-23T06:30:38.000Z</time>
      </trkpt>
      <trkpt lat="43.24023929424583911895751953125" lon="-1.66917714290320873260498046875">
        <ele>72</ele>
        <time>2020-08-23T06:30:42.000Z</time>
      </trkpt>
      <trkpt lat="43.2401770167052745819091796875" lon="-1.66917077265679836273193359375">
        <ele>72.1999969482421875</ele>
        <time>2020-08-23T06:30:45.000Z</time>
      </trkpt>
      <trkpt lat="43.2400070317089557647705078125" lon="-1.6691435314714908599853515625">
        <ele>72.8000030517578125</ele>
        <time>2020-08-23T06:30:53.000Z</time>
      </trkpt>
      <trkpt lat="43.2399466820061206817626953125" lon="-1.6691093333065509796142578125">
        <ele>73.1999969482421875</ele>
        <time>2020-08-23T06:30:56.000Z</time>
      </trkpt>
      <trkpt lat="43.239864371716976165771484375" lon="-1.6690623946487903594970703125">
        <ele>73.8000030517578125</ele>
        <time>2020-08-23T06:31:00.000Z</time>
      </trkpt>
      <trkpt lat="43.23975364677608013153076171875" lon="-1.668918393552303314208984375">
        <ele>74.40000152587890625</ele>
        <time>2020-08-23T06:31:07.000Z</time>
      </trkpt>
      <trkpt lat="43.23970922268927097320556640625" lon="-1.66869468055665493011474609375">
        <ele>75</ele>
        <time>2020-08-23T06:31:15.000Z</time>
      </trkpt>
      <trkpt lat="43.239738643169403076171875" lon="-1.66850633919239044189453125">
        <ele>75.40000152587890625</ele>
        <time>2020-08-23T06:31:22.000Z</time>
      </trkpt>
      <trkpt lat="43.2398097217082977294921875" lon="-1.66832369752228260040283203125">
        <ele>76.1999969482421875</ele>
        <time>2020-08-23T06:31:29.000Z</time>
      </trkpt>
      <trkpt lat="43.2398699037730693817138671875" lon="-1.66824457235634326934814453125">
        <ele>76.8000030517578125</ele>
        <time>2020-08-23T06:31:33.000Z</time>
      </trkpt>
      <trkpt lat="43.2399061135947704315185546875" lon="-1.66821037419140338897705078125">
        <ele>76.8000030517578125</ele>
        <time>2020-08-23T06:31:35.000Z</time>
      </trkpt>
      <trkpt lat="43.24005271308124065399169921875" lon="-1.66807718575000762939453125">
        <ele>77.1999969482421875</ele>
        <time>2020-08-23T06:31:43.000Z</time>
      </trkpt>
      <trkpt lat="43.24017978273332118988037109375" lon="-1.6679677180945873260498046875">
        <ele>77.8000030517578125</ele>
        <time>2020-08-23T06:31:50.000Z</time>
      </trkpt>
      <trkpt lat="43.2402574829757213592529296875" lon="-1.66791482828557491302490234375">
        <ele>77.8000030517578125</ele>
        <time>2020-08-23T06:31:54.000Z</time>
      </trkpt>
      <trkpt lat="43.2402812875807285308837890625" lon="-1.6679009981453418731689453125">
        <ele>77.8000030517578125</ele>
        <time>2020-08-23T06:31:55.000Z</time>
      </trkpt>
      <trkpt lat="43.24043928645551204681396484375" lon="-1.66779295541346073150634765625">
        <ele>78</ele>
        <time>2020-08-23T06:32:02.000Z</time>
      </trkpt>
      <trkpt lat="43.24057993479073047637939453125" lon="-1.66773394681513309478759765625">
        <ele>78</ele>
        <time>2020-08-23T06:32:08.000Z</time>
      </trkpt>
      <trkpt lat="43.24071697890758514404296875" lon="-1.66767627932131290435791015625">
        <ele>77.8000030517578125</ele>
        <time>2020-08-23T06:32:14.000Z</time>
      </trkpt>
      <trkpt lat="43.24081747792661190032958984375" lon="-1.6676284186542034149169921875">
        <ele>78</ele>
        <time>2020-08-23T06:32:18.000Z</time>
      </trkpt>
      <trkpt lat="43.2408938370645046234130859375" lon="-1.66753730736672878265380859375">
        <ele>78.1999969482421875</ele>
        <time>2020-08-23T06:32:22.000Z</time>
      </trkpt>
      <trkpt lat="43.24100523255765438079833984375" lon="-1.66739515028893947601318359375">
        <ele>78.1999969482421875</ele>
        <time>2020-08-23T06:32:28.000Z</time>
      </trkpt>
      <trkpt lat="43.24109852313995361328125" lon="-1.6672327928245067596435546875">
        <ele>78.59999847412109375</ele>
        <time>2020-08-23T06:32:34.000Z</time>
      </trkpt>
      <trkpt lat="43.24115912429988384246826171875" lon="-1.667077727615833282470703125">
        <ele>78.8000030517578125</ele>
        <time>2020-08-23T06:32:39.000Z</time>
      </trkpt>
      <trkpt lat="43.24117119424045085906982421875" lon="-1.6670483909547328948974609375">
        <ele>78.8000030517578125</ele>
        <time>2020-08-23T06:32:40.000Z</time>
      </trkpt>
      <trkpt lat="43.2412214018404483795166015625" lon="-1.6668435372412204742431640625">
        <ele>79.1999969482421875</ele>
        <time>2020-08-23T06:32:46.000Z</time>
      </trkpt>
      <trkpt lat="43.24126808904111385345458984375" lon="-1.66662342846393585205078125">
        <ele>79.1999969482421875</ele>
        <time>2020-08-23T06:32:52.000Z</time>
      </trkpt>
      <trkpt lat="43.24125300161540508270263671875" lon="-1.66640818119049072265625">
        <ele>79.59999847412109375</ele>
        <time>2020-08-23T06:32:58.000Z</time>
      </trkpt>
      <trkpt lat="43.241182006895542144775390625" lon="-1.66624062694609165191650390625">
        <ele>80</ele>
        <time>2020-08-23T06:33:03.000Z</time>
      </trkpt>
      <trkpt lat="43.24114537797868251800537109375" lon="-1.66618530638515949249267578125">
        <ele>80</ele>
        <time>2020-08-23T06:33:05.000Z</time>
      </trkpt>
      <trkpt lat="43.2410033047199249267578125" lon="-1.666068546473979949951171875">
        <ele>80</ele>
        <time>2020-08-23T06:33:11.000Z</time>
      </trkpt>
      <trkpt lat="43.24081915430724620819091796875" lon="-1.666004844009876251220703125">
        <ele>79.8000030517578125</ele>
        <time>2020-08-23T06:33:18.000Z</time>
      </trkpt>
      <trkpt lat="43.24060541577637195587158203125" lon="-1.66591037996113300323486328125">
        <ele>79.8000030517578125</ele>
        <time>2020-08-23T06:33:26.000Z</time>
      </trkpt>
      <trkpt lat="43.24050801806151866912841796875" lon="-1.6658541373908519744873046875">
        <ele>79.59999847412109375</ele>
        <time>2020-08-23T06:33:31.000Z</time>
      </trkpt>
      <trkpt lat="43.24036234058439731597900390625" lon="-1.66579236276447772979736328125">
        <ele>79.59999847412109375</ele>
        <time>2020-08-23T06:33:37.000Z</time>
      </trkpt>
      <trkpt lat="43.24020911939442157745361328125" lon="-1.6657136566936969757080078125">
        <ele>79.59999847412109375</ele>
        <time>2020-08-23T06:33:43.000Z</time>
      </trkpt>
      <trkpt lat="43.24002253822982311248779296875" lon="-1.66564350016415119171142578125">
        <ele>79.1999969482421875</ele>
        <time>2020-08-23T06:33:49.000Z</time>
      </trkpt>
      <trkpt lat="43.23998800478875637054443359375" lon="-1.66564249433577060699462890625">
        <ele>79.1999969482421875</ele>
        <time>2020-08-23T06:33:50.000Z</time>
      </trkpt>
      <trkpt lat="43.23985397815704345703125" lon="-1.6656352020800113677978515625">
        <ele>79</ele>
        <time>2020-08-23T06:33:54.000Z</time>
      </trkpt>
      <trkpt lat="43.2396945543587207794189453125" lon="-1.66563193313777446746826171875">
        <ele>79</ele>
        <time>2020-08-23T06:33:59.000Z</time>
      </trkpt>
      <trkpt lat="43.23948374949395656585693359375" lon="-1.66562556289136409759521484375">
        <ele>78.59999847412109375</ele>
        <time>2020-08-23T06:34:06.000Z</time>
      </trkpt>
      <trkpt lat="43.2392784766852855682373046875" lon="-1.6655430011451244354248046875">
        <ele>78.40000152587890625</ele>
        <time>2020-08-23T06:34:13.000Z</time>
      </trkpt>
      <trkpt lat="43.23918300680816173553466796875" lon="-1.665385253727436065673828125">
        <ele>78.1999969482421875</ele>
        <time>2020-08-23T06:34:18.000Z</time>
      </trkpt>
      <trkpt lat="43.23914126493036746978759765625" lon="-1.6652821563184261322021484375">
        <ele>78.1999969482421875</ele>
        <time>2020-08-23T06:34:21.000Z</time>
      </trkpt>
      <trkpt lat="43.23912550695240497589111328125" lon="-1.665172018110752105712890625">
        <ele>78.1999969482421875</ele>
        <time>2020-08-23T06:34:24.000Z</time>
      </trkpt>
      <trkpt lat="43.23915853165090084075927734375" lon="-1.6650055535137653350830078125">
        <ele>78.8000030517578125</ele>
        <time>2020-08-23T06:34:29.000Z</time>
      </trkpt>
      <trkpt lat="43.2392204739153385162353515625" lon="-1.664834730327129364013671875">
        <ele>78.59999847412109375</ele>
        <time>2020-08-23T06:34:34.000Z</time>
      </trkpt>
      <trkpt lat="43.23927403427660465240478515625" lon="-1.6646850295364856719970703125">
        <ele>78.59999847412109375</ele>
        <time>2020-08-23T06:34:39.000Z</time>
      </trkpt>
      <trkpt lat="43.23931326158344745635986328125" lon="-1.66455720551311969757080078125">
        <ele>79</ele>
        <time>2020-08-23T06:34:43.000Z</time>
      </trkpt>
      <trkpt lat="43.23932357132434844970703125" lon="-1.6645267792046070098876953125">
        <ele>79.1999969482421875</ele>
        <time>2020-08-23T06:34:44.000Z</time>
      </trkpt>
      <trkpt lat="43.23936070315539836883544921875" lon="-1.66436123661696910858154296875">
        <ele>79.40000152587890625</ele>
        <time>2020-08-23T06:34:50.000Z</time>
      </trkpt>
      <trkpt lat="43.23938014917075634002685546875" lon="-1.6642863862216472625732421875">
        <ele>79.59999847412109375</ele>
        <time>2020-08-23T06:34:53.000Z</time>
      </trkpt>
      <trkpt lat="43.2393918000161647796630859375" lon="-1.66425780393183231353759765625">
        <ele>79.59999847412109375</ele>
        <time>2020-08-23T06:34:54.000Z</time>
      </trkpt>
      <trkpt lat="43.239419460296630859375" lon="-1.66414682753384113311767578125">
        <ele>79.8000030517578125</ele>
        <time>2020-08-23T06:34:57.000Z</time>
      </trkpt>
      <trkpt lat="43.2394315302371978759765625" lon="-1.66408061049878597259521484375">
        <ele>80</ele>
        <time>2020-08-23T06:34:59.000Z</time>
      </trkpt>
      <trkpt lat="43.239475786685943603515625" lon="-1.663882546126842498779296875">
        <ele>80.1999969482421875</ele>
        <time>2020-08-23T06:35:04.000Z</time>
      </trkpt>
      <trkpt lat="43.23948726989328861236572265625" lon="-1.6638471744954586029052734375">
        <ele>80.1999969482421875</ele>
        <time>2020-08-23T06:35:05.000Z</time>
      </trkpt>
      <trkpt lat="43.2395051233470439910888671875" lon="-1.66381205432116985321044921875">
        <ele>80.40000152587890625</ele>
        <time>2020-08-23T06:35:06.000Z</time>
      </trkpt>
      <trkpt lat="43.23953756131231784820556640625" lon="-1.66368163190782070159912109375">
        <ele>80.40000152587890625</ele>
        <time>2020-08-23T06:35:09.000Z</time>
      </trkpt>
      <trkpt lat="43.23954057879745960235595703125" lon="-1.66363368742167949676513671875">
        <ele>80.40000152587890625</ele>
        <time>2020-08-23T06:35:10.000Z</time>
      </trkpt>
      <trkpt lat="43.23957175947725772857666015625" lon="-1.66337166912853717803955078125">
        <ele>80.59999847412109375</ele>
        <time>2020-08-23T06:35:16.000Z</time>
      </trkpt>
      <trkpt lat="43.23961970396339893341064453125" lon="-1.66313387453556060791015625">
        <ele>81</ele>
        <time>2020-08-23T06:35:22.000Z</time>
      </trkpt>
      <trkpt lat="43.2396157644689083099365234375" lon="-1.66292198002338409423828125">
        <ele>81.40000152587890625</ele>
        <time>2020-08-23T06:35:27.000Z</time>
      </trkpt>
      <trkpt lat="43.23961115442216396331787109375" lon="-1.662815697491168975830078125">
        <ele>81.59999847412109375</ele>
        <time>2020-08-23T06:35:30.000Z</time>
      </trkpt>
      <trkpt lat="43.239597491919994354248046875" lon="-1.66272290982306003570556640625">
        <ele>82</ele>
        <time>2020-08-23T06:35:33.000Z</time>
      </trkpt>
      <trkpt lat="43.2395705021917819976806640625" lon="-1.66259743273258209228515625">
        <ele>82.8000030517578125</ele>
        <time>2020-08-23T06:35:38.000Z</time>
      </trkpt>
      <trkpt lat="43.23956052772700786590576171875" lon="-1.66255326010286808013916015625">
        <ele>83.1999969482421875</ele>
        <time>2020-08-23T06:35:40.000Z</time>
      </trkpt>
      <trkpt lat="43.23953286744654178619384765625" lon="-1.6623942553997039794921875">
        <ele>84</ele>
        <time>2020-08-23T06:35:46.000Z</time>
      </trkpt>
      <trkpt lat="43.239485509693622589111328125" lon="-1.66221664287149906158447265625">
        <ele>85</ele>
        <time>2020-08-23T06:35:53.000Z</time>
      </trkpt>
      <trkpt lat="43.23947754688560962677001953125" lon="-1.66219149716198444366455078125">
        <ele>85.1999969482421875</ele>
        <time>2020-08-23T06:35:54.000Z</time>
      </trkpt>
      <trkpt lat="43.23944167234003543853759765625" lon="-1.6620839573442935943603515625">
        <ele>85.8000030517578125</ele>
        <time>2020-08-23T06:35:59.000Z</time>
      </trkpt>
      <trkpt lat="43.2394315302371978759765625" lon="-1.662043221294879913330078125">
        <ele>86.1999969482421875</ele>
        <time>2020-08-23T06:36:01.000Z</time>
      </trkpt>
      <trkpt lat="43.23940160684287548065185546875" lon="-1.6619538702070713043212890625">
        <ele>87.1999969482421875</ele>
        <time>2020-08-23T06:36:05.000Z</time>
      </trkpt>
      <trkpt lat="43.2393847592175006866455078125" lon="-1.66190215386450290679931640625">
        <ele>87.40000152587890625</ele>
        <time>2020-08-23T06:36:07.000Z</time>
      </trkpt>
      <trkpt lat="43.239335305988788604736328125" lon="-1.66179670952260494232177734375">
        <ele>88</ele>
        <time>2020-08-23T06:36:11.000Z</time>
      </trkpt>
      <trkpt lat="43.23926514945924282073974609375" lon="-1.66167718358337879180908203125">
        <ele>88.59999847412109375</ele>
        <time>2020-08-23T06:36:16.000Z</time>
      </trkpt>
      <trkpt lat="43.23923296295106410980224609375" lon="-1.66164214722812175750732421875">
        <ele>89</ele>
        <time>2020-08-23T06:36:18.000Z</time>
      </trkpt>
      <trkpt lat="43.23910086415708065032958984375" lon="-1.66154156439006328582763671875">
        <ele>89.40000152587890625</ele>
        <time>2020-08-23T06:36:25.000Z</time>
      </trkpt>
      <trkpt lat="43.2390129379928112030029296875" lon="-1.66153284721076488494873046875">
        <ele>89.8000030517578125</ele>
        <time>2020-08-23T06:36:29.000Z</time>
      </trkpt>
      <trkpt lat="43.23894998989999294281005859375" lon="-1.661552377045154571533203125">
        <ele>90.40000152587890625</ele>
        <time>2020-08-23T06:36:32.000Z</time>
      </trkpt>
      <trkpt lat="43.23890824802219867706298828125" lon="-1.661569811403751373291015625">
        <ele>90.59999847412109375</ele>
        <time>2020-08-23T06:36:34.000Z</time>
      </trkpt>
      <trkpt lat="43.23882493190467357635498046875" lon="-1.66160023771226406097412109375">
        <ele>90.8000030517578125</ele>
        <time>2020-08-23T06:36:38.000Z</time>
      </trkpt>
      <trkpt lat="43.23876659385859966278076171875" lon="-1.661602668464183807373046875">
        <ele>91.40000152587890625</ele>
        <time>2020-08-23T06:36:41.000Z</time>
      </trkpt>
      <trkpt lat="43.23864539153873920440673828125" lon="-1.66159420274198055267333984375">
        <ele>91.8000030517578125</ele>
        <time>2020-08-23T06:36:47.000Z</time>
      </trkpt>
      <trkpt lat="43.23858504183590412139892578125" lon="-1.661581881344318389892578125">
        <ele>92.40000152587890625</ele>
        <time>2020-08-23T06:36:50.000Z</time>
      </trkpt>
      <trkpt lat="43.2384111173450946807861328125" lon="-1.6615300811827182769775390625">
        <ele>93.1999969482421875</ele>
        <time>2020-08-23T06:36:59.000Z</time>
      </trkpt>
      <trkpt lat="43.23829972185194492340087890625" lon="-1.66150669567286968231201171875">
        <ele>94.1999969482421875</ele>
        <time>2020-08-23T06:37:05.000Z</time>
      </trkpt>
      <trkpt lat="43.238167203962802886962890625" lon="-1.66142287664115428924560546875">
        <ele>95</ele>
        <time>2020-08-23T06:37:13.000Z</time>
      </trkpt>
      <trkpt lat="43.2381375320255756378173828125" lon="-1.66139069013297557830810546875">
        <ele>95.40000152587890625</ele>
        <time>2020-08-23T06:37:15.000Z</time>
      </trkpt>
      <trkpt lat="43.23805312626063823699951171875" lon="-1.66127686388790607452392578125">
        <ele>96</ele>
        <time>2020-08-23T06:37:21.000Z</time>
      </trkpt>
      <trkpt lat="43.23800886981189250946044921875" lon="-1.6612189449369907379150390625">
        <ele>96.40000152587890625</ele>
        <time>2020-08-23T06:37:24.000Z</time>
      </trkpt>
      <trkpt lat="43.2379356957972049713134765625" lon="-1.66111308149993419647216796875">
        <ele>97</ele>
        <time>2020-08-23T06:37:29.000Z</time>
      </trkpt>
      <trkpt lat="43.23782564140856266021728515625" lon="-1.66098232381045818328857421875">
        <ele>97.40000152587890625</ele>
        <time>2020-08-23T06:37:36.000Z</time>
      </trkpt>
      <trkpt lat="43.23766185902059078216552734375" lon="-1.6608635522425174713134765625">
        <ele>98</ele>
        <time>2020-08-23T06:37:45.000Z</time>
      </trkpt>
      <trkpt lat="43.23755641467869281768798828125" lon="-1.66079993359744548797607421875">
        <ele>98.40000152587890625</ele>
        <time>2020-08-23T06:37:50.000Z</time>
      </trkpt>
      <trkpt lat="43.237495310604572296142578125" lon="-1.66077529080212116241455078125">
        <ele>98.59999847412109375</ele>
        <time>2020-08-23T06:37:53.000Z</time>
      </trkpt>
      <trkpt lat="43.2374012656509876251220703125" lon="-1.66073639877140522003173828125">
        <ele>99.1999969482421875</ele>
        <time>2020-08-23T06:37:58.000Z</time>
      </trkpt>
      <trkpt lat="43.237299509346485137939453125" lon="-1.660693399608135223388671875">
        <ele>99.40000152587890625</ele>
        <time>2020-08-23T06:38:03.000Z</time>
      </trkpt>
      <trkpt lat="43.23725885711610317230224609375" lon="-1.6606714390218257904052734375">
        <ele>99.59999847412109375</ele>
        <time>2020-08-23T06:38:05.000Z</time>
      </trkpt>
      <trkpt lat="43.23714218102395534515380859375" lon="-1.66062341071665287017822265625">
        <ele>100.59999847412109375</ele>
        <time>2020-08-23T06:38:11.000Z</time>
      </trkpt>
      <trkpt lat="43.23710211552679538726806640625" lon="-1.66060580871999263763427734375">
        <ele>101</ele>
        <time>2020-08-23T06:38:13.000Z</time>
      </trkpt>
      <trkpt lat="43.23695291765034198760986328125" lon="-1.660568676888942718505859375">
        <ele>101.59999847412109375</ele>
        <time>2020-08-23T06:38:20.000Z</time>
      </trkpt>
      <trkpt lat="43.23693506419658660888671875" lon="-1.6605624742805957794189453125">
        <ele>101.8000030517578125</ele>
        <time>2020-08-23T06:38:21.000Z</time>
      </trkpt>
      <trkpt lat="43.23681570589542388916015625" lon="-1.66052886284887790679931640625">
        <ele>102.1999969482421875</ele>
        <time>2020-08-23T06:38:27.000Z</time>
      </trkpt>
      <trkpt lat="43.2367360778152942657470703125" lon="-1.66050891391932964324951171875">
        <ele>102.8000030517578125</ele>
        <time>2020-08-23T06:38:31.000Z</time>
      </trkpt>
      <trkpt lat="43.23667514137923717498779296875" lon="-1.66050002910196781158447265625">
        <ele>103</ele>
        <time>2020-08-23T06:38:34.000Z</time>
      </trkpt>
      <trkpt lat="43.23655955493450164794921875" lon="-1.6604659147560596466064453125">
        <ele>103.8000030517578125</ele>
        <time>2020-08-23T06:38:40.000Z</time>
      </trkpt>
      <trkpt lat="43.236541450023651123046875" lon="-1.6604531742632389068603515625">
        <ele>104</ele>
        <time>2020-08-23T06:38:41.000Z</time>
      </trkpt>
      <trkpt lat="43.236453272402286529541015625" lon="-1.6603988595306873321533203125">
        <ele>105</ele>
        <time>2020-08-23T06:38:46.000Z</time>
      </trkpt>
      <trkpt lat="43.2364065013825893402099609375" lon="-1.6603522561490535736083984375">
        <ele>105.40000152587890625</ele>
        <time>2020-08-23T06:38:49.000Z</time>
      </trkpt>
      <trkpt lat="43.23634631931781768798828125" lon="-1.66018403135240077972412109375">
        <ele>105.8000030517578125</ele>
        <time>2020-08-23T06:38:56.000Z</time>
      </trkpt>
      <trkpt lat="43.23633299209177494049072265625" lon="-1.66013642214238643646240234375">
        <ele>106.1999969482421875</ele>
        <time>2020-08-23T06:38:58.000Z</time>
      </trkpt>
      <trkpt lat="43.236300386488437652587890625" lon="-1.660014800727367401123046875">
        <ele>107</ele>
        <time>2020-08-23T06:39:03.000Z</time>
      </trkpt>
      <trkpt lat="43.23627985082566738128662109375" lon="-1.6599703766405582427978515625">
        <ele>107.59999847412109375</ele>
        <time>2020-08-23T06:39:05.000Z</time>
      </trkpt>
      <trkpt lat="43.23623676784336566925048828125" lon="-1.65985194034874439239501953125">
        <ele>108.40000152587890625</ele>
        <time>2020-08-23T06:39:10.000Z</time>
      </trkpt>
      <trkpt lat="43.23619418777525424957275390625" lon="-1.6597115434706211090087890625">
        <ele>109.1999969482421875</ele>
        <time>2020-08-23T06:39:16.000Z</time>
      </trkpt>
      <trkpt lat="43.2361697964370250701904296875" lon="-1.6596384532749652862548828125">
        <ele>109.8000030517578125</ele>
        <time>2020-08-23T06:39:19.000Z</time>
      </trkpt>
      <trkpt lat="43.2361458241939544677734375" lon="-1.65957332588732242584228515625">
        <ele>110</ele>
        <time>2020-08-23T06:39:22.000Z</time>
      </trkpt>
      <trkpt lat="43.23607197962701320648193359375" lon="-1.65937744081020355224609375">
        <ele>110.8000030517578125</ele>
        <time>2020-08-23T06:39:30.000Z</time>
      </trkpt>
      <trkpt lat="43.23601246811449527740478515625" lon="-1.65921675972640514373779296875">
        <ele>111.59999847412109375</ele>
        <time>2020-08-23T06:39:37.000Z</time>
      </trkpt>
      <trkpt lat="43.2360034994781017303466796875" lon="-1.6591932065784931182861328125">
        <ele>111.8000030517578125</ele>
        <time>2020-08-23T06:39:38.000Z</time>
      </trkpt>
      <trkpt lat="43.23593862354755401611328125" lon="-1.658998243510723114013671875">
        <ele>112.1999969482421875</ele>
        <time>2020-08-23T06:39:46.000Z</time>
      </trkpt>
      <trkpt lat="43.23592160828411579132080078125" lon="-1.658919118344783782958984375">
        <ele>113</ele>
        <time>2020-08-23T06:39:49.000Z</time>
      </trkpt>
      <trkpt lat="43.23590886779129505157470703125" lon="-1.65878056548535823822021484375">
        <ele>113.8000030517578125</ele>
        <time>2020-08-23T06:39:54.000Z</time>
      </trkpt>
      <trkpt lat="43.23591582477092742919921875" lon="-1.65867545641958713531494140625">
        <ele>114.1999969482421875</ele>
        <time>2020-08-23T06:39:58.000Z</time>
      </trkpt>
      <trkpt lat="43.235934264957904815673828125" lon="-1.65858627296984195709228515625">
        <ele>114.40000152587890625</ele>
        <time>2020-08-23T06:40:02.000Z</time>
      </trkpt>
      <trkpt lat="43.2359414733946323394775390625" lon="-1.65853749029338359832763671875">
        <ele>115</ele>
        <time>2020-08-23T06:40:04.000Z</time>
      </trkpt>
      <trkpt lat="43.235978186130523681640625" lon="-1.65846104733645915985107421875">
        <ele>115.40000152587890625</ele>
        <time>2020-08-23T06:40:07.000Z</time>
      </trkpt>
      <trkpt lat="43.2360792718827724456787109375" lon="-1.6583298705518245697021484375">
        <ele>116.40000152587890625</ele>
        <time>2020-08-23T06:40:14.000Z</time>
      </trkpt>
      <trkpt lat="43.23609628714621067047119140625" lon="-1.6583184711635112762451171875">
        <ele>116.40000152587890625</ele>
        <time>2020-08-23T06:40:15.000Z</time>
      </trkpt>
      <trkpt lat="43.23619477450847625732421875" lon="-1.65826373733580112457275390625">
        <ele>117.1999969482421875</ele>
        <time>2020-08-23T06:40:20.000Z</time>
      </trkpt>
      <trkpt lat="43.236278258264064788818359375" lon="-1.6582255996763706207275390625">
        <ele>117.59999847412109375</ele>
        <time>2020-08-23T06:40:24.000Z</time>
      </trkpt>
      <trkpt lat="43.2363330759108066558837890625" lon="-1.65820389054715633392333984375">
        <ele>117.8000030517578125</ele>
        <time>2020-08-23T06:40:27.000Z</time>
      </trkpt>
      <trkpt lat="43.23642653413116931915283203125" lon="-1.6581719554960727691650390625">
        <ele>118.40000152587890625</ele>
        <time>2020-08-23T06:40:32.000Z</time>
      </trkpt>
      <trkpt lat="43.23645805008709430694580078125" lon="-1.65814840234816074371337890625">
        <ele>118.59999847412109375</ele>
        <time>2020-08-23T06:40:34.000Z</time>
      </trkpt>
      <trkpt lat="43.2365087606012821197509765625" lon="-1.65808620862662792205810546875">
        <ele>118.8000030517578125</ele>
        <time>2020-08-23T06:40:38.000Z</time>
      </trkpt>
      <trkpt lat="43.23662619106471538543701171875" lon="-1.65796483866870403289794921875">
        <ele>119.59999847412109375</ele>
        <time>2020-08-23T06:40:45.000Z</time>
      </trkpt>
      <trkpt lat="43.23665519244968891143798828125" lon="-1.65793097577989101409912109375">
        <ele>119.8000030517578125</ele>
        <time>2020-08-23T06:40:47.000Z</time>
      </trkpt>
      <trkpt lat="43.2367075793445110321044921875" lon="-1.65787800215184688568115234375">
        <ele>120.40000152587890625</ele>
        <time>2020-08-23T06:40:51.000Z</time>
      </trkpt>
      <trkpt lat="43.2367421127855777740478515625" lon="-1.6578001342713832855224609375">
        <ele>121</ele>
        <time>2020-08-23T06:40:54.000Z</time>
      </trkpt>
      <trkpt lat="43.23675761930644512176513671875" lon="-1.6577458195388317108154296875">
        <ele>121.1999969482421875</ele>
        <time>2020-08-23T06:40:56.000Z</time>
      </trkpt>
      <trkpt lat="43.2367883808910846710205078125" lon="-1.65764096193015575408935546875">
        <ele>121.59999847412109375</ele>
        <time>2020-08-23T06:41:01.000Z</time>
      </trkpt>
      <trkpt lat="43.2368021272122859954833984375" lon="-1.65757608599960803985595703125">
        <ele>122.1999969482421875</ele>
        <time>2020-08-23T06:41:04.000Z</time>
      </trkpt>
      <trkpt lat="43.2368044741451740264892578125" lon="-1.65751774795353412628173828125">
        <ele>122.8000030517578125</ele>
        <time>2020-08-23T06:41:06.000Z</time>
      </trkpt>
      <trkpt lat="43.236838169395923614501953125" lon="-1.65737693198025226593017578125">
        <ele>123.40000152587890625</ele>
        <time>2020-08-23T06:41:12.000Z</time>
      </trkpt>
      <trkpt lat="43.2368842698633670806884765625" lon="-1.6572204418480396270751953125">
        <ele>124.1999969482421875</ele>
        <time>2020-08-23T06:41:18.000Z</time>
      </trkpt>
      <trkpt lat="43.23689927347004413604736328125" lon="-1.65716771967709064483642578125">
        <ele>124.40000152587890625</ele>
        <time>2020-08-23T06:41:20.000Z</time>
      </trkpt>
      <trkpt lat="43.23692592792212963104248046875" lon="-1.6570566594600677490234375">
        <ele>125</ele>
        <time>2020-08-23T06:41:24.000Z</time>
      </trkpt>
      <trkpt lat="43.23694176971912384033203125" lon="-1.6570041887462139129638671875">
        <ele>125.1999969482421875</ele>
        <time>2020-08-23T06:41:26.000Z</time>
      </trkpt>
      <trkpt lat="43.23695174418389797210693359375" lon="-1.6569763608276844024658203125">
        <ele>125.40000152587890625</ele>
        <time>2020-08-23T06:41:27.000Z</time>
      </trkpt>
      <trkpt lat="43.2369814999401569366455078125" lon="-1.656875275075435638427734375">
        <ele>126.1999969482421875</ele>
        <time>2020-08-23T06:41:31.000Z</time>
      </trkpt>
      <trkpt lat="43.23700211942195892333984375" lon="-1.65678483434021472930908203125">
        <ele>126.8000030517578125</ele>
        <time>2020-08-23T06:41:35.000Z</time>
      </trkpt>
      <trkpt lat="43.23702231980860233306884765625" lon="-1.65670889429748058319091796875">
        <ele>127.1999969482421875</ele>
        <time>2020-08-23T06:41:38.000Z</time>
      </trkpt>
      <trkpt lat="43.23703874833881855010986328125" lon="-1.65662859566509723663330078125">
        <ele>127.8000030517578125</ele>
        <time>2020-08-23T06:41:41.000Z</time>
      </trkpt>
      <trkpt lat="43.23705551214516162872314453125" lon="-1.656527929008007049560546875">
        <ele>128</ele>
        <time>2020-08-23T06:41:45.000Z</time>
      </trkpt>
      <trkpt lat="43.23707914911210536956787109375" lon="-1.65641133673489093780517578125">
        <ele>128.8000030517578125</ele>
        <time>2020-08-23T06:41:50.000Z</time>
      </trkpt>
      <trkpt lat="43.2370907999575138092041015625" lon="-1.65636020712554454803466796875">
        <ele>129</ele>
        <time>2020-08-23T06:41:52.000Z</time>
      </trkpt>
      <trkpt lat="43.23711284436285495758056640625" lon="-1.65623934008181095123291015625">
        <ele>129.8000030517578125</ele>
        <time>2020-08-23T06:41:57.000Z</time>
      </trkpt>
      <trkpt lat="43.23711854405701160430908203125" lon="-1.6561931557953357696533203125">
        <ele>130</ele>
        <time>2020-08-23T06:41:59.000Z</time>
      </trkpt>
      <trkpt lat="43.23717336170375347137451171875" lon="-1.65604286827147006988525390625">
        <ele>131.1999969482421875</ele>
        <time>2020-08-23T06:42:05.000Z</time>
      </trkpt>
      <trkpt lat="43.2371883653104305267333984375" lon="-1.65599307976663112640380859375">
        <ele>131.399993896484375</ele>
        <time>2020-08-23T06:42:07.000Z</time>
      </trkpt>
      <trkpt lat="43.2372182048857212066650390625" lon="-1.65590272285044193267822265625">
        <ele>132.1999969482421875</ele>
        <time>2020-08-23T06:42:11.000Z</time>
      </trkpt>
      <trkpt lat="43.237238824367523193359375" lon="-1.65584094822406768798828125">
        <ele>132.600006103515625</ele>
        <time>2020-08-23T06:42:14.000Z</time>
      </trkpt>
      <trkpt lat="43.23726908303797245025634765625" lon="-1.65574497543275356292724609375">
        <ele>133.1999969482421875</ele>
        <time>2020-08-23T06:42:18.000Z</time>
      </trkpt>
      <trkpt lat="43.23729976080358028411865234375" lon="-1.65565344505012035369873046875">
        <ele>133.8000030517578125</ele>
        <time>2020-08-23T06:42:22.000Z</time>
      </trkpt>
      <trkpt lat="43.23732909746468067169189453125" lon="-1.65555001236498355865478515625">
        <ele>134.399993896484375</ele>
        <time>2020-08-23T06:42:26.000Z</time>
      </trkpt>
      <trkpt lat="43.23733982630074024200439453125" lon="-1.65549720637500286102294921875">
        <ele>134.600006103515625</ele>
        <time>2020-08-23T06:42:28.000Z</time>
      </trkpt>
      <trkpt lat="43.2373509742319583892822265625" lon="-1.65535924024879932403564453125">
        <ele>135.399993896484375</ele>
        <time>2020-08-23T06:42:33.000Z</time>
      </trkpt>
      <trkpt lat="43.2373489625751972198486328125" lon="-1.6553053446114063262939453125">
        <ele>135.600006103515625</ele>
        <time>2020-08-23T06:42:35.000Z</time>
      </trkpt>
      <trkpt lat="43.2373385690152645111083984375" lon="-1.6551440767943859100341796875">
        <ele>136.600006103515625</ele>
        <time>2020-08-23T06:42:41.000Z</time>
      </trkpt>
      <trkpt lat="43.23733203113079071044921875" lon="-1.65511918254196643829345703125">
        <ele>136.8000030517578125</ele>
        <time>2020-08-23T06:42:42.000Z</time>
      </trkpt>
      <trkpt lat="43.2372802309691905975341796875" lon="-1.65498859249055385589599609375">
        <ele>137.399993896484375</ele>
        <time>2020-08-23T06:42:48.000Z</time>
      </trkpt>
      <trkpt lat="43.23725483380258083343505859375" lon="-1.6549522988498210906982421875">
        <ele>137.8000030517578125</ele>
        <time>2020-08-23T06:42:50.000Z</time>
      </trkpt>
      <trkpt lat="43.23719968087971210479736328125" lon="-1.65486789308488368988037109375">
        <ele>138.399993896484375</ele>
        <time>2020-08-23T06:42:54.000Z</time>
      </trkpt>
      <trkpt lat="43.23714687488973140716552734375" lon="-1.6547834873199462890625">
        <ele>138.8000030517578125</ele>
        <time>2020-08-23T06:42:58.000Z</time>
      </trkpt>
      <trkpt lat="43.23708618991076946258544921875" lon="-1.6547149233520030975341796875">
        <ele>139</ele>
        <time>2020-08-23T06:43:02.000Z</time>
      </trkpt>
      <trkpt lat="43.23700019158422946929931640625" lon="-1.65461341850459575653076171875">
        <ele>139.600006103515625</ele>
        <time>2020-08-23T06:43:08.000Z</time>
      </trkpt>
      <trkpt lat="43.23690958321094512939453125" lon="-1.65449121035635471343994140625">
        <ele>139.8000030517578125</ele>
        <time>2020-08-23T06:43:15.000Z</time>
      </trkpt>
      <trkpt lat="43.2368789054453372955322265625" lon="-1.65432742796838283538818359375">
        <ele>140.1999969482421875</ele>
        <time>2020-08-23T06:43:21.000Z</time>
      </trkpt>
      <trkpt lat="43.23685904033482074737548828125" lon="-1.65424142964184284210205078125">
        <ele>140</ele>
        <time>2020-08-23T06:43:24.000Z</time>
      </trkpt>
      <trkpt lat="43.23683188296854496002197265625" lon="-1.65413229726254940032958984375">
        <ele>140</ele>
        <time>2020-08-23T06:43:28.000Z</time>
      </trkpt>
      <trkpt lat="43.2368024624884128570556640625" lon="-1.65395175106823444366455078125">
        <ele>139.8000030517578125</ele>
        <time>2020-08-23T06:43:33.000Z</time>
      </trkpt>
      <trkpt lat="43.23676985688507556915283203125" lon="-1.6536906547844409942626953125">
        <ele>139</ele>
        <time>2020-08-23T06:43:38.000Z</time>
      </trkpt>
      <trkpt lat="43.23676080442965030670166015625" lon="-1.65363558568060398101806640625">
        <ele>139</ele>
        <time>2020-08-23T06:43:39.000Z</time>
      </trkpt>
      <trkpt lat="43.2367223314940929412841796875" lon="-1.6532809473574161529541015625">
        <ele>138</ele>
        <time>2020-08-23T06:43:45.000Z</time>
      </trkpt>
      <trkpt lat="43.236716799437999725341796875" lon="-1.65321397595107555389404296875">
        <ele>137.8000030517578125</ele>
        <time>2020-08-23T06:43:46.000Z</time>
      </trkpt>
      <trkpt lat="43.23665167205035686492919921875" lon="-1.6528544761240482330322265625">
        <ele>136.8000030517578125</ele>
        <time>2020-08-23T06:43:51.000Z</time>
      </trkpt>
      <trkpt lat="43.23662619106471538543701171875" lon="-1.65278054773807525634765625">
        <ele>136.399993896484375</ele>
        <time>2020-08-23T06:43:52.000Z</time>
      </trkpt>
      <trkpt lat="43.23652661405503749847412109375" lon="-1.6525503806769847869873046875">
        <ele>135.8000030517578125</ele>
        <time>2020-08-23T06:43:55.000Z</time>
      </trkpt>
      <trkpt lat="43.2364383526146411895751953125" lon="-1.65240369737148284912109375">
        <ele>135.1999969482421875</ele>
        <time>2020-08-23T06:43:57.000Z</time>
      </trkpt>
      <trkpt lat="43.23633081279695034027099609375" lon="-1.6522731073200702667236328125">
        <ele>134.600006103515625</ele>
        <time>2020-08-23T06:43:59.000Z</time>
      </trkpt>
      <trkpt lat="43.23615093715488910675048828125" lon="-1.65208828635513782501220703125">
        <ele>134</ele>
        <time>2020-08-23T06:44:02.000Z</time>
      </trkpt>
      <trkpt lat="43.2360239513218402862548828125" lon="-1.65196909569203853607177734375">
        <ele>133.1999969482421875</ele>
        <time>2020-08-23T06:44:04.000Z</time>
      </trkpt>
      <trkpt lat="43.23582102544605731964111328125" lon="-1.65177740156650543212890625">
        <ele>132.1999969482421875</ele>
        <time>2020-08-23T06:44:07.000Z</time>
      </trkpt>
      <trkpt lat="43.23575329966843128204345703125" lon="-1.65170967578887939453125">
        <ele>131.399993896484375</ele>
        <time>2020-08-23T06:44:08.000Z</time>
      </trkpt>
      <trkpt lat="43.2356856577098369598388671875" lon="-1.651637256145477294921875">
        <ele>131</ele>
        <time>2020-08-23T06:44:09.000Z</time>
      </trkpt>
      <trkpt lat="43.2355572469532489776611328125" lon="-1.651474647223949432373046875">
        <ele>130</ele>
        <time>2020-08-23T06:44:11.000Z</time>
      </trkpt>
      <trkpt lat="43.23550083674490451812744140625" lon="-1.65138085372745990753173828125">
        <ele>129.600006103515625</ele>
        <time>2020-08-23T06:44:12.000Z</time>
      </trkpt>
      <trkpt lat="43.235393129289150238037109375" lon="-1.651052869856357574462890625">
        <ele>128.600006103515625</ele>
        <time>2020-08-23T06:44:15.000Z</time>
      </trkpt>
      <trkpt lat="43.235358931124210357666015625" lon="-1.65070644579827785491943359375">
        <ele>127.59999847412109375</ele>
        <time>2020-08-23T06:44:18.000Z</time>
      </trkpt>
      <trkpt lat="43.23535666801035404205322265625" lon="-1.65058381855487823486328125">
        <ele>127.40000152587890625</ele>
        <time>2020-08-23T06:44:19.000Z</time>
      </trkpt>
      <trkpt lat="43.235347531735897064208984375" lon="-1.65021099150180816650390625">
        <ele>126.1999969482421875</ele>
        <time>2020-08-23T06:44:22.000Z</time>
      </trkpt>
      <trkpt lat="43.2353601045906543731689453125" lon="-1.6498441994190216064453125">
        <ele>125.40000152587890625</ele>
        <time>2020-08-23T06:44:25.000Z</time>
      </trkpt>
      <trkpt lat="43.2353758625686168670654296875" lon="-1.64972148835659027099609375">
        <ele>124.59999847412109375</ele>
        <time>2020-08-23T06:44:26.000Z</time>
      </trkpt>
      <trkpt lat="43.23545674793422222137451171875" lon="-1.64923600852489471435546875">
        <ele>123.59999847412109375</ele>
        <time>2020-08-23T06:44:30.000Z</time>
      </trkpt>
      <trkpt lat="43.2355049438774585723876953125" lon="-1.64899460971355438232421875">
        <ele>122.59999847412109375</ele>
        <time>2020-08-23T06:44:32.000Z</time>
      </trkpt>
      <trkpt lat="43.23553570546209812164306640625" lon="-1.6488744132220745086669921875">
        <ele>122.1999969482421875</ele>
        <time>2020-08-23T06:44:33.000Z</time>
      </trkpt>
      <trkpt lat="43.23560041375458240509033203125" lon="-1.64864449761807918548583984375">
        <ele>121.40000152587890625</ele>
        <time>2020-08-23T06:44:35.000Z</time>
      </trkpt>
      <trkpt lat="43.23562840931117534637451171875" lon="-1.6485331021249294281005859375">
        <ele>121.1999969482421875</ele>
        <time>2020-08-23T06:44:36.000Z</time>
      </trkpt>
      <trkpt lat="43.23564399965107440948486328125" lon="-1.64842489175498485565185546875">
        <ele>120.8000030517578125</ele>
        <time>2020-08-23T06:44:37.000Z</time>
      </trkpt>
      <trkpt lat="43.2356380484998226165771484375" lon="-1.6482052020728588104248046875">
        <ele>120</ele>
        <time>2020-08-23T06:44:39.000Z</time>
      </trkpt>
      <trkpt lat="43.23560410179197788238525390625" lon="-1.6478835046291351318359375">
        <ele>118.8000030517578125</ele>
        <time>2020-08-23T06:44:42.000Z</time>
      </trkpt>
      <trkpt lat="43.23558188974857330322265625" lon="-1.6476707719266414642333984375">
        <ele>118</ele>
        <time>2020-08-23T06:44:44.000Z</time>
      </trkpt>
      <trkpt lat="43.2355713285505771636962890625" lon="-1.64756826125085353851318359375">
        <ele>117.59999847412109375</ele>
        <time>2020-08-23T06:44:45.000Z</time>
      </trkpt>
      <trkpt lat="43.23556520976126194000244140625" lon="-1.64715059101581573486328125">
        <ele>116.8000030517578125</ele>
        <time>2020-08-23T06:44:49.000Z</time>
      </trkpt>
      <trkpt lat="43.23556772433221340179443359375" lon="-1.6470461525022983551025390625">
        <ele>116.59999847412109375</ele>
        <time>2020-08-23T06:44:50.000Z</time>
      </trkpt>
      <trkpt lat="43.23557375930249691009521484375" lon="-1.6469475813210010528564453125">
        <ele>116.40000152587890625</ele>
        <time>2020-08-23T06:44:51.000Z</time>
      </trkpt>
      <trkpt lat="43.235621117055416107177734375" lon="-1.6466552205383777618408203125">
        <ele>115.8000030517578125</ele>
        <time>2020-08-23T06:44:54.000Z</time>
      </trkpt>
      <trkpt lat="43.235638551414012908935546875" lon="-1.6465584933757781982421875">
        <ele>115.40000152587890625</ele>
        <time>2020-08-23T06:44:55.000Z</time>
      </trkpt>
      <trkpt lat="43.23569294996559619903564453125" lon="-1.64627124555408954620361328125">
        <ele>114.1999969482421875</ele>
        <time>2020-08-23T06:44:58.000Z</time>
      </trkpt>
      <trkpt lat="43.23575891554355621337890625" lon="-1.64599648676812648773193359375">
        <ele>113.40000152587890625</ele>
        <time>2020-08-23T06:45:01.000Z</time>
      </trkpt>
      <trkpt lat="43.23578012175858020782470703125" lon="-1.645902357995510101318359375">
        <ele>113.1999969482421875</ele>
        <time>2020-08-23T06:45:02.000Z</time>
      </trkpt>
      <trkpt lat="43.23589034378528594970703125" lon="-1.645519472658634185791015625">
        <ele>112.1999969482421875</ele>
        <time>2020-08-23T06:45:06.000Z</time>
      </trkpt>
      <trkpt lat="43.2359216921031475067138671875" lon="-1.64542727172374725341796875">
        <ele>112</ele>
        <time>2020-08-23T06:45:07.000Z</time>
      </trkpt>
      <trkpt lat="43.23605395853519439697265625" lon="-1.64487029425799846649169921875">
        <ele>111</ele>
        <time>2020-08-23T06:45:13.000Z</time>
      </trkpt>
      <trkpt lat="43.23609997518360614776611328125" lon="-1.6444648616015911102294921875">
        <ele>110.8000030517578125</ele>
        <time>2020-08-23T06:45:18.000Z</time>
      </trkpt>
      <trkpt lat="43.23613953776657581329345703125" lon="-1.64405356161296367645263671875">
        <ele>111</ele>
        <time>2020-08-23T06:45:24.000Z</time>
      </trkpt>
      <trkpt lat="43.2361791841685771942138671875" lon="-1.64369800128042697906494140625">
        <ele>110.8000030517578125</ele>
        <time>2020-08-23T06:45:30.000Z</time>
      </trkpt>
      <trkpt lat="43.236188404262065887451171875" lon="-1.643591634929180145263671875">
        <ele>110.59999847412109375</ele>
        <time>2020-08-23T06:45:34.000Z</time>
      </trkpt>
      <trkpt lat="43.23619611561298370361328125" lon="-1.6434516571462154388427734375">
        <ele>110</ele>
        <time>2020-08-23T06:45:39.000Z</time>
      </trkpt>
      <trkpt lat="43.23619938455522060394287109375" lon="-1.64341829717159271240234375">
        <ele>110</ele>
        <time>2020-08-23T06:45:40.000Z</time>
      </trkpt>
      <trkpt lat="43.23622620664536952972412109375" lon="-1.64326700381934642791748046875">
        <ele>109.59999847412109375</ele>
        <time>2020-08-23T06:45:45.000Z</time>
      </trkpt>
      <trkpt lat="43.23626861907541751861572265625" lon="-1.64301395416259765625">
        <ele>109</ele>
        <time>2020-08-23T06:45:51.000Z</time>
      </trkpt>
      <trkpt lat="43.23629443533718585968017578125" lon="-1.642837263643741607666015625">
        <ele>108.1999969482421875</ele>
        <time>2020-08-23T06:45:54.000Z</time>
      </trkpt>
      <trkpt lat="43.23629896156489849090576171875" lon="-1.6427227668464183807373046875">
        <ele>108</ele>
        <time>2020-08-23T06:45:56.000Z</time>
      </trkpt>
      <trkpt lat="43.23630415834486484527587890625" lon="-1.64262729696929454803466796875">
        <ele>107.8000030517578125</ele>
        <time>2020-08-23T06:45:58.000Z</time>
      </trkpt>
      <trkpt lat="43.23630114085972309112548828125" lon="-1.64258069358766078948974609375">
        <ele>107.59999847412109375</ele>
        <time>2020-08-23T06:45:59.000Z</time>
      </trkpt>
      <trkpt lat="43.23630097322165966033935546875" lon="-1.64247281849384307861328125">
        <ele>107.40000152587890625</ele>
        <time>2020-08-23T06:46:01.000Z</time>
      </trkpt>
      <trkpt lat="43.23631547391414642333984375" lon="-1.6422171704471111297607421875">
        <ele>106.59999847412109375</ele>
        <time>2020-08-23T06:46:05.000Z</time>
      </trkpt>
      <trkpt lat="43.23630583472549915313720703125" lon="-1.64201055653393268585205078125">
        <ele>106</ele>
        <time>2020-08-23T06:46:08.000Z</time>
      </trkpt>
      <trkpt lat="43.2362904958426952362060546875" lon="-1.64187711663544178009033203125">
        <ele>105.8000030517578125</ele>
        <time>2020-08-23T06:46:10.000Z</time>
      </trkpt>
      <trkpt lat="43.2362740673124790191650390625" lon="-1.6418148390948772430419921875">
        <ele>105.40000152587890625</ele>
        <time>2020-08-23T06:46:11.000Z</time>
      </trkpt>
      <trkpt lat="43.2362329959869384765625" lon="-1.6416968218982219696044921875">
        <ele>105.1999969482421875</ele>
        <time>2020-08-23T06:46:13.000Z</time>
      </trkpt>
      <trkpt lat="43.23605605401098728179931640625" lon="-1.64133162237703800201416015625">
        <ele>105</ele>
        <time>2020-08-23T06:46:20.000Z</time>
      </trkpt>
      <trkpt lat="43.235945664346218109130859375" lon="-1.64107832126319408416748046875">
        <ele>104.8000030517578125</ele>
        <time>2020-08-23T06:46:27.000Z</time>
      </trkpt>
      <trkpt lat="43.2359434850513935089111328125" lon="-1.641073040664196014404296875">
        <ele>104.8000030517578125</ele>
        <time>2020-08-23T06:46:43.000Z</time>
      </trkpt>
      <trkpt lat="43.2359441556036472320556640625" lon="-1.641071699559688568115234375">
        <ele>104.59999847412109375</ele>
        <time>2020-08-23T06:46:55.000Z</time>
      </trkpt>
      <trkpt lat="43.2359438203275203704833984375" lon="-1.64103674702346324920654296875">
        <ele>104.8000030517578125</ele>
        <time>2020-08-23T06:47:02.000Z</time>
      </trkpt>
      <trkpt lat="43.2359042577445507049560546875" lon="-1.64089123718440532684326171875">
        <ele>104.59999847412109375</ele>
        <time>2020-08-23T06:47:09.000Z</time>
      </trkpt>
      <trkpt lat="43.23585120029747486114501953125" lon="-1.64068487472832202911376953125">
        <ele>104.1999969482421875</ele>
        <time>2020-08-23T06:47:16.000Z</time>
      </trkpt>
      <trkpt lat="43.23577777482569217681884765625" lon="-1.64042168296873569488525390625">
        <ele>104.40000152587890625</ele>
        <time>2020-08-23T06:47:25.000Z</time>
      </trkpt>
      <trkpt lat="43.2357242144644260406494140625" lon="-1.64022269658744335174560546875">
        <ele>104</ele>
        <time>2020-08-23T06:47:32.000Z</time>
      </trkpt>
      <trkpt lat="43.23567501269280910491943359375" lon="-1.64001733995974063873291015625">
        <ele>104</ele>
        <time>2020-08-23T06:47:39.000Z</time>
      </trkpt>
      <trkpt lat="43.23562086559832096099853515625" lon="-1.639802344143390655517578125">
        <ele>103.8000030517578125</ele>
        <time>2020-08-23T06:47:46.000Z</time>
      </trkpt>
      <trkpt lat="43.23555397801101207733154296875" lon="-1.63955918513238430023193359375">
        <ele>103.59999847412109375</ele>
        <time>2020-08-23T06:47:54.000Z</time>
      </trkpt>
      <trkpt lat="43.23545775376260280609130859375" lon="-1.63934930227696895599365234375">
        <ele>103.1999969482421875</ele>
        <time>2020-08-23T06:48:00.000Z</time>
      </trkpt>
      <trkpt lat="43.2352853380143642425537109375" lon="-1.63918116129934787750244140625">
        <ele>102.8000030517578125</ele>
        <time>2020-08-23T06:48:06.000Z</time>
      </trkpt>
      <trkpt lat="43.23517494834959506988525390625" lon="-1.639123074710369110107421875">
        <ele>102.40000152587890625</ele>
        <time>2020-08-23T06:48:09.000Z</time>
      </trkpt>
      <trkpt lat="43.23497462086379528045654296875" lon="-1.63905442692339420318603515625">
        <ele>102</ele>
        <time>2020-08-23T06:48:14.000Z</time>
      </trkpt>
      <trkpt lat="43.23471109382808208465576171875" lon="-1.6390146128833293914794921875">
        <ele>101.40000152587890625</ele>
        <time>2020-08-23T06:48:20.000Z</time>
      </trkpt>
      <trkpt lat="43.2346196472644805908203125" lon="-1.63899508304893970489501953125">
        <ele>101.40000152587890625</ele>
        <time>2020-08-23T06:48:22.000Z</time>
      </trkpt>
      <trkpt lat="43.23424740694463253021240234375" lon="-1.63889517076313495635986328125">
        <ele>101.1999969482421875</ele>
        <time>2020-08-23T06:48:31.000Z</time>
      </trkpt>
      <trkpt lat="43.23413022793829441070556640625" lon="-1.638724766671657562255859375">
        <ele>101</ele>
        <time>2020-08-23T06:48:36.000Z</time>
      </trkpt>
      <trkpt lat="43.23411882854998111724853515625" lon="-1.63857447914779186248779296875">
        <ele>101.1999969482421875</ele>
        <time>2020-08-23T06:48:41.000Z</time>
      </trkpt>
      <trkpt lat="43.234127126634120941162109375" lon="-1.6385351680219173431396484375">
        <ele>101.1999969482421875</ele>
        <time>2020-08-23T06:48:43.000Z</time>
      </trkpt>
      <trkpt lat="43.23413458652794361114501953125" lon="-1.638471297919750213623046875">
        <ele>101.59999847412109375</ele>
        <time>2020-08-23T06:48:46.000Z</time>
      </trkpt>
      <trkpt lat="43.2341474108397960662841796875" lon="-1.6383226029574871063232421875">
        <ele>101.59999847412109375</ele>
        <time>2020-08-23T06:48:51.000Z</time>
      </trkpt>
      <trkpt lat="43.23413307778537273406982421875" lon="-1.63813141174614429473876953125">
        <ele>101.59999847412109375</ele>
        <time>2020-08-23T06:48:57.000Z</time>
      </trkpt>
      <trkpt lat="43.2340885698795318603515625" lon="-1.63785615004599094390869140625">
        <ele>101.59999847412109375</ele>
        <time>2020-08-23T06:49:06.000Z</time>
      </trkpt>
      <trkpt lat="43.2340578921139240264892578125" lon="-1.637678705155849456787109375">
        <ele>102.1999969482421875</ele>
        <time>2020-08-23T06:49:12.000Z</time>
      </trkpt>
      <trkpt lat="43.2340552099049091339111328125" lon="-1.6374870948493480682373046875">
        <ele>102.8000030517578125</ele>
        <time>2020-08-23T06:49:18.000Z</time>
      </trkpt>
      <trkpt lat="43.2340429723262786865234375" lon="-1.637425906956195831298828125">
        <ele>103</ele>
        <time>2020-08-23T06:49:20.000Z</time>
      </trkpt>
      <trkpt lat="43.23402947746217250823974609375" lon="-1.637244187295436859130859375">
        <ele>103.40000152587890625</ele>
        <time>2020-08-23T06:49:26.000Z</time>
      </trkpt>
      <trkpt lat="43.2340357638895511627197265625" lon="-1.63700915873050689697265625">
        <ele>104</ele>
        <time>2020-08-23T06:49:34.000Z</time>
      </trkpt>
      <trkpt lat="43.2340335845947265625" lon="-1.63692844100296497344970703125">
        <ele>104.1999969482421875</ele>
        <time>2020-08-23T06:49:38.000Z</time>
      </trkpt>
      <trkpt lat="43.23403400368988513946533203125" lon="-1.63691402412950992584228515625">
        <ele>104.1999969482421875</ele>
        <time>2020-08-23T06:49:39.000Z</time>
      </trkpt>
      <trkpt lat="43.234039954841136932373046875" lon="-1.6368953324854373931884765625">
        <ele>104.40000152587890625</ele>
        <time>2020-08-23T06:49:40.000Z</time>
      </trkpt>
      <trkpt lat="43.2341127097606658935546875" lon="-1.63684152066707611083984375">
        <ele>104.1999969482421875</ele>
        <time>2020-08-23T06:49:44.000Z</time>
      </trkpt>
      <trkpt lat="43.23413374833762645721435546875" lon="-1.63682869635522365570068359375">
        <ele>104.1999969482421875</ele>
        <time>2020-08-23T06:49:45.000Z</time>
      </trkpt>
      <trkpt lat="43.2342597283422946929931640625" lon="-1.6367665864527225494384765625">
        <ele>103.59999847412109375</ele>
        <time>2020-08-23T06:49:50.000Z</time>
      </trkpt>
      <trkpt lat="43.2343462295830249786376953125" lon="-1.63672291673719882965087890625">
        <ele>103.1999969482421875</ele>
        <time>2020-08-23T06:49:53.000Z</time>
      </trkpt>
      <trkpt lat="43.2344062440097332000732421875" lon="-1.63666038773953914642333984375">
        <ele>102.8000030517578125</ele>
        <time>2020-08-23T06:49:55.000Z</time>
      </trkpt>
      <trkpt lat="43.23466583155095577239990234375" lon="-1.6363756544888019561767578125">
        <ele>102</ele>
        <time>2020-08-23T06:50:03.000Z</time>
      </trkpt>
      <trkpt lat="43.23470656760036945343017578125" lon="-1.6363424621522426605224609375">
        <ele>101.8000030517578125</ele>
        <time>2020-08-23T06:50:04.000Z</time>
      </trkpt>
      <trkpt lat="43.23486414737999439239501953125" lon="-1.6362371854484081268310546875">
        <ele>101.40000152587890625</ele>
        <time>2020-08-23T06:50:08.000Z</time>
      </trkpt>
      <trkpt lat="43.23507688008248805999755859375" lon="-1.63610265590250492095947265625">
        <ele>101.40000152587890625</ele>
        <time>2020-08-23T06:50:15.000Z</time>
      </trkpt>
      <trkpt lat="43.2352893613278865814208984375" lon="-1.63599888794124126434326171875">
        <ele>101.59999847412109375</ele>
        <time>2020-08-23T06:50:23.000Z</time>
      </trkpt>
      <trkpt lat="43.2354486174881458282470703125" lon="-1.63595513440668582916259765625">
        <ele>101.40000152587890625</ele>
        <time>2020-08-23T06:50:29.000Z</time>
      </trkpt>
      <trkpt lat="43.2355850748717784881591796875" lon="-1.63590132258832454681396484375">
        <ele>102</ele>
        <time>2020-08-23T06:50:35.000Z</time>
      </trkpt>
      <trkpt lat="43.2357282377779483795166015625" lon="-1.63579084910452365875244140625">
        <ele>102.59999847412109375</ele>
        <time>2020-08-23T06:50:42.000Z</time>
      </trkpt>
      <trkpt lat="43.235865533351898193359375" lon="-1.63571155630052089691162109375">
        <ele>103</ele>
        <time>2020-08-23T06:50:50.000Z</time>
      </trkpt>
      <trkpt lat="43.23597659356892108917236328125" lon="-1.63575883023440837860107421875">
        <ele>103.40000152587890625</ele>
        <time>2020-08-23T06:50:56.000Z</time>
      </trkpt>
      <trkpt lat="43.23610357940196990966796875" lon="-1.63584818132221698760986328125">
        <ele>104</ele>
        <time>2020-08-23T06:51:03.000Z</time>
      </trkpt>
      <trkpt lat="43.2362247817218303680419921875" lon="-1.635810546576976776123046875">
        <ele>104.1999969482421875</ele>
        <time>2020-08-23T06:51:09.000Z</time>
      </trkpt>
      <trkpt lat="43.23627700097858905792236328125" lon="-1.6357813775539398193359375">
        <ele>104.40000152587890625</ele>
        <time>2020-08-23T06:51:12.000Z</time>
      </trkpt>
      <trkpt lat="43.236289657652378082275390625" lon="-1.635774336755275726318359375">
        <ele>104.8000030517578125</ele>
        <time>2020-08-23T06:51:15.000Z</time>
      </trkpt>
      <trkpt lat="43.236288987100124359130859375" lon="-1.63577375002205371856689453125">
        <ele>104.8000030517578125</ele>
        <time>2020-08-23T06:51:27.000Z</time>
      </trkpt>
      <trkpt lat="43.23628856800496578216552734375" lon="-1.63577534258365631103515625">
        <ele>104.8000030517578125</ele>
        <time>2020-08-23T06:51:42.000Z</time>
      </trkpt>
      <trkpt lat="43.23629108257591724395751953125" lon="-1.63577400147914886474609375">
        <ele>105</ele>
        <time>2020-08-23T06:52:00.000Z</time>
      </trkpt>
      <trkpt lat="43.2363029010593891143798828125" lon="-1.635771654546260833740234375">
        <ele>104.59999847412109375</ele>
        <time>2020-08-23T06:52:12.000Z</time>
      </trkpt>
      <trkpt lat="43.2363354228436946868896484375" lon="-1.63584667257964611053466796875">
        <ele>104.8000030517578125</ele>
        <time>2020-08-23T06:52:17.000Z</time>
      </trkpt>
      <trkpt lat="43.23629074729979038238525390625" lon="-1.63591758348047733306884765625">
        <ele>105.59999847412109375</ele>
        <time>2020-08-23T06:52:21.000Z</time>
      </trkpt>
      <trkpt lat="43.236280269920825958251953125" lon="-1.6359361074864864349365234375">
        <ele>105.8000030517578125</ele>
        <time>2020-08-23T06:52:22.000Z</time>
      </trkpt>
      <trkpt lat="43.23627121746540069580078125" lon="-1.635954715311527252197265625">
        <ele>106</ele>
        <time>2020-08-23T06:52:23.000Z</time>
      </trkpt>
      <trkpt lat="43.2362324930727481842041015625" lon="-1.63601179607212543487548828125">
        <ele>107.1999969482421875</ele>
        <time>2020-08-23T06:52:27.000Z</time>
      </trkpt>
      <trkpt lat="43.23619603179395198822021484375" lon="-1.6360514424741268157958984375">
        <ele>107.8000030517578125</ele>
        <time>2020-08-23T06:52:30.000Z</time>
      </trkpt>
      <trkpt lat="43.23617591522634029388427734375" lon="-1.63607851602137088775634765625">
        <ele>108.1999969482421875</ele>
        <time>2020-08-23T06:52:32.000Z</time>
      </trkpt>
      <trkpt lat="43.23613299988210201263427734375" lon="-1.63614423014223575592041015625">
        <ele>109.1999969482421875</ele>
        <time>2020-08-23T06:52:37.000Z</time>
      </trkpt>
      <trkpt lat="43.23612344451248645782470703125" lon="-1.63615462370216846466064453125">
        <ele>109.40000152587890625</ele>
        <time>2020-08-23T06:52:38.000Z</time>
      </trkpt>
      <trkpt lat="43.23607868514955043792724609375" lon="-1.6362051665782928466796875">
        <ele>110.40000152587890625</ele>
        <time>2020-08-23T06:52:42.000Z</time>
      </trkpt>
      <trkpt lat="43.2360551320016384124755859375" lon="-1.6362579725682735443115234375">
        <ele>111</ele>
        <time>2020-08-23T06:52:45.000Z</time>
      </trkpt>
      <trkpt lat="43.23602839373052120208740234375" lon="-1.6363273747265338897705078125">
        <ele>111.59999847412109375</ele>
        <time>2020-08-23T06:52:49.000Z</time>
      </trkpt>
      <trkpt lat="43.23601833544671535491943359375" lon="-1.63635863922536373138427734375">
        <ele>112</ele>
        <time>2020-08-23T06:52:51.000Z</time>
      </trkpt>
      <trkpt lat="43.2360036671161651611328125" lon="-1.63645930588245391845703125">
        <ele>112.8000030517578125</ele>
        <time>2020-08-23T06:52:56.000Z</time>
      </trkpt>
      <trkpt lat="43.2360009849071502685546875" lon="-1.6364836134016513824462890625">
        <ele>112.8000030517578125</ele>
        <time>2020-08-23T06:52:57.000Z</time>
      </trkpt>
      <trkpt lat="43.235979191958904266357421875" lon="-1.63661219179630279541015625">
        <ele>113.8000030517578125</ele>
        <time>2020-08-23T06:53:03.000Z</time>
      </trkpt>
      <trkpt lat="43.2359800301492214202880859375" lon="-1.63663490675389766693115234375">
        <ele>113.8000030517578125</ele>
        <time>2020-08-23T06:53:04.000Z</time>
      </trkpt>
      <trkpt lat="43.235966451466083526611328125" lon="-1.63677169941365718841552734375">
        <ele>114.40000152587890625</ele>
        <time>2020-08-23T06:53:10.000Z</time>
      </trkpt>
      <trkpt lat="43.2359580695629119873046875" lon="-1.63694771938025951385498046875">
        <ele>114.59999847412109375</ele>
        <time>2020-08-23T06:53:17.000Z</time>
      </trkpt>
      <trkpt lat="43.23594222776591777801513671875" lon="-1.6370733641088008880615234375">
        <ele>114.59999847412109375</ele>
        <time>2020-08-23T06:53:22.000Z</time>
      </trkpt>
      <trkpt lat="43.23590652085840702056884765625" lon="-1.63721795193850994110107421875">
        <ele>114.8000030517578125</ele>
        <time>2020-08-23T06:53:28.000Z</time>
      </trkpt>
      <trkpt lat="43.23594264686107635498046875" lon="-1.637230776250362396240234375">
        <ele>114.59999847412109375</ele>
        <time>2020-08-23T06:53:32.000Z</time>
      </trkpt>
      <trkpt lat="43.23594558052718639373779296875" lon="-1.6372171975672245025634765625">
        <ele>114.8000030517578125</ele>
        <time>2020-08-23T06:53:33.000Z</time>
      </trkpt>
      <trkpt lat="43.2359580695629119873046875" lon="-1.637169755995273590087890625">
        <ele>115.1999969482421875</ele>
        <time>2020-08-23T06:53:36.000Z</time>
      </trkpt>
      <trkpt lat="43.23597013950347900390625" lon="-1.63714972324669361114501953125">
        <ele>115.40000152587890625</ele>
        <time>2020-08-23T06:53:38.000Z</time>
      </trkpt>
      <trkpt lat="43.23597349226474761962890625" lon="-1.63713815622031688690185546875">
        <ele>115.8000030517578125</ele>
        <time>2020-08-23T06:53:39.000Z</time>
      </trkpt>
      <trkpt lat="43.2359739951789379119873046875" lon="-1.63712390698492527008056640625">
        <ele>116</ele>
        <time>2020-08-23T06:53:40.000Z</time>
      </trkpt>
      <trkpt lat="43.2359853945672512054443359375" lon="-1.6370679996907711029052734375">
        <ele>117.40000152587890625</ele>
        <time>2020-08-23T06:53:44.000Z</time>
      </trkpt>
      <trkpt lat="43.23601028881967067718505859375" lon="-1.63700605742633342742919921875">
        <ele>118.40000152587890625</ele>
        <time>2020-08-23T06:53:49.000Z</time>
      </trkpt>
      <trkpt lat="43.2360229454934597015380859375" lon="-1.63697018288075923919677734375">
        <ele>118.8000030517578125</ele>
        <time>2020-08-23T06:53:52.000Z</time>
      </trkpt>
      <trkpt lat="43.2360363565385341644287109375" lon="-1.63693045265972614288330078125">
        <ele>119.59999847412109375</ele>
        <time>2020-08-23T06:53:55.000Z</time>
      </trkpt>
      <trkpt lat="43.23604649864137172698974609375" lon="-1.63688384927809238433837890625">
        <ele>120.40000152587890625</ele>
        <time>2020-08-23T06:53:58.000Z</time>
      </trkpt>
      <trkpt lat="43.23605873622000217437744140625" lon="-1.636853255331516265869140625">
        <ele>120.59999847412109375</ele>
        <time>2020-08-23T06:54:00.000Z</time>
      </trkpt>
      <trkpt lat="43.23606611229479312896728515625" lon="-1.63684160448610782623291015625">
        <ele>121</ele>
        <time>2020-08-23T06:54:01.000Z</time>
      </trkpt>
      <trkpt lat="43.23608354665338993072509765625" lon="-1.6368192248046398162841796875">
        <ele>121.59999847412109375</ele>
        <time>2020-08-23T06:54:03.000Z</time>
      </trkpt>
      <trkpt lat="43.23610064573585987091064453125" lon="-1.63680422119796276092529296875">
        <ele>122</ele>
        <time>2020-08-23T06:54:05.000Z</time>
      </trkpt>
      <trkpt lat="43.23613082058727741241455078125" lon="-1.6368115134537220001220703125">
        <ele>122.1999969482421875</ele>
        <time>2020-08-23T06:54:08.000Z</time>
      </trkpt>
      <trkpt lat="43.23614456690847873687744140625" lon="-1.63683087565004825592041015625">
        <ele>122.8000030517578125</ele>
        <time>2020-08-23T06:54:10.000Z</time>
      </trkpt>
      <trkpt lat="43.2361485064029693603515625" lon="-1.63684395141899585723876953125">
        <ele>123.1999969482421875</ele>
        <time>2020-08-23T06:54:11.000Z</time>
      </trkpt>
      <trkpt lat="43.236150182783603668212890625" lon="-1.636865995824337005615234375">
        <ele>123.8000030517578125</ele>
        <time>2020-08-23T06:54:13.000Z</time>
      </trkpt>
      <trkpt lat="43.23614791966974735260009765625" lon="-1.636877395212650299072265625">
        <ele>124</ele>
        <time>2020-08-23T06:54:14.000Z</time>
      </trkpt>
      <trkpt lat="43.23614917695522308349609375" lon="-1.6369275189936161041259765625">
        <ele>124.59999847412109375</ele>
        <time>2020-08-23T06:54:18.000Z</time>
      </trkpt>
      <trkpt lat="43.23613643646240234375" lon="-1.63696213625371456146240234375">
        <ele>125.1999969482421875</ele>
        <time>2020-08-23T06:54:21.000Z</time>
      </trkpt>
      <trkpt lat="43.2361404597759246826171875" lon="-1.6370086558163166046142578125">
        <ele>126</ele>
        <time>2020-08-23T06:54:24.000Z</time>
      </trkpt>
      <trkpt lat="43.236142806708812713623046875" lon="-1.63702265359461307525634765625">
        <ele>126.1999969482421875</ele>
        <time>2020-08-23T06:54:25.000Z</time>
      </trkpt>
      <trkpt lat="43.236126713454723358154296875" lon="-1.6370770521461963653564453125">
        <ele>127.1999969482421875</ele>
        <time>2020-08-23T06:54:29.000Z</time>
      </trkpt>
      <trkpt lat="43.23612243868410587310791015625" lon="-1.6370907984673976898193359375">
        <ele>127.40000152587890625</ele>
        <time>2020-08-23T06:54:30.000Z</time>
      </trkpt>
      <trkpt lat="43.23612101376056671142578125" lon="-1.63713798858225345611572265625">
        <ele>128.600006103515625</ele>
        <time>2020-08-23T06:54:34.000Z</time>
      </trkpt>
      <trkpt lat="43.2361262105405330657958984375" lon="-1.63715131580829620361328125">
        <ele>128.8000030517578125</ele>
        <time>2020-08-23T06:54:35.000Z</time>
      </trkpt>
      <trkpt lat="43.2361258752644062042236328125" lon="-1.63716229610145092010498046875">
        <ele>129</ele>
        <time>2020-08-23T06:54:36.000Z</time>
      </trkpt>
      <trkpt lat="43.23612428270280361175537109375" lon="-1.63719984702765941619873046875">
        <ele>129.600006103515625</ele>
        <time>2020-08-23T06:54:39.000Z</time>
      </trkpt>
      <trkpt lat="43.23611891828477382659912109375" lon="-1.63722566328942775726318359375">
        <ele>130</ele>
        <time>2020-08-23T06:54:41.000Z</time>
      </trkpt>
      <trkpt lat="43.236112631857395172119140625" lon="-1.63726606406271457672119140625">
        <ele>130.8000030517578125</ele>
        <time>2020-08-23T06:54:44.000Z</time>
      </trkpt>
      <trkpt lat="43.23610466904938220977783203125" lon="-1.6372892819344997406005859375">
        <ele>131.399993896484375</ele>
        <time>2020-08-23T06:54:46.000Z</time>
      </trkpt>
      <trkpt lat="43.2360963709652423858642578125" lon="-1.637314260005950927734375">
        <ele>132</ele>
        <time>2020-08-23T06:54:48.000Z</time>
      </trkpt>
      <trkpt lat="43.2360613346099853515625" lon="-1.6373814828693866729736328125">
        <ele>132.8000030517578125</ele>
        <time>2020-08-23T06:54:53.000Z</time>
      </trkpt>
      <trkpt lat="43.23605823330581188201904296875" lon="-1.6373979113996028900146484375">
        <ele>133.1999969482421875</ele>
        <time>2020-08-23T06:54:54.000Z</time>
      </trkpt>
      <trkpt lat="43.23604666627943515777587890625" lon="-1.63742766715586185455322265625">
        <ele>133.399993896484375</ele>
        <time>2020-08-23T06:54:56.000Z</time>
      </trkpt>
      <trkpt lat="43.23601917363703250885009765625" lon="-1.6375025175511837005615234375">
        <ele>134</ele>
        <time>2020-08-23T06:55:01.000Z</time>
      </trkpt>
      <trkpt lat="43.2360143959522247314453125" lon="-1.6375221312046051025390625">
        <ele>134.1999969482421875</ele>
        <time>2020-08-23T06:55:02.000Z</time>
      </trkpt>
      <trkpt lat="43.23598179034888744354248046875" lon="-1.6376235522329807281494140625">
        <ele>135.1999969482421875</ele>
        <time>2020-08-23T06:55:09.000Z</time>
      </trkpt>
      <trkpt lat="43.23597726412117481231689453125" lon="-1.6376352868974208831787109375">
        <ele>135.399993896484375</ele>
        <time>2020-08-23T06:55:10.000Z</time>
      </trkpt>
      <trkpt lat="43.23595044203102588653564453125" lon="-1.63769907318055629730224609375">
        <ele>136.399993896484375</ele>
        <time>2020-08-23T06:55:16.000Z</time>
      </trkpt>
      <trkpt lat="43.23593921028077602386474609375" lon="-1.63771768100559711456298828125">
        <ele>137</ele>
        <time>2020-08-23T06:55:18.000Z</time>
      </trkpt>
      <trkpt lat="43.23592965491116046905517578125" lon="-1.6377460956573486328125">
        <ele>137.399993896484375</ele>
        <time>2020-08-23T06:55:20.000Z</time>
      </trkpt>
      <trkpt lat="43.23591322638094425201416015625" lon="-1.637806780636310577392578125">
        <ele>138.1999969482421875</ele>
        <time>2020-08-23T06:55:24.000Z</time>
      </trkpt>
      <trkpt lat="43.23590585030615329742431640625" lon="-1.63782513700425624847412109375">
        <ele>138.399993896484375</ele>
        <time>2020-08-23T06:55:25.000Z</time>
      </trkpt>
      <trkpt lat="43.23590115644037723541259765625" lon="-1.63784190081059932708740234375">
        <ele>138.600006103515625</ele>
        <time>2020-08-23T06:55:26.000Z</time>
      </trkpt>
      <trkpt lat="43.23588430881500244140625" lon="-1.63790459744632244110107421875">
        <ele>140</ele>
        <time>2020-08-23T06:55:30.000Z</time>
      </trkpt>
      <trkpt lat="43.23587902821600437164306640625" lon="-1.63793443702161312103271484375">
        <ele>140.600006103515625</ele>
        <time>2020-08-23T06:55:32.000Z</time>
      </trkpt>
      <trkpt lat="43.23587450198829174041748046875" lon="-1.63794885389506816864013671875">
        <ele>140.600006103515625</ele>
        <time>2020-08-23T06:55:33.000Z</time>
      </trkpt>
      <trkpt lat="43.23587022721767425537109375" lon="-1.6379789449274539947509765625">
        <ele>141</ele>
        <time>2020-08-23T06:55:35.000Z</time>
      </trkpt>
      <trkpt lat="43.2358673773705959320068359375" lon="-1.63803233765065670013427734375">
        <ele>141.600006103515625</ele>
        <time>2020-08-23T06:55:38.000Z</time>
      </trkpt>
      <trkpt lat="43.235870562493801116943359375" lon="-1.6380748338997364044189453125">
        <ele>142.1999969482421875</ele>
        <time>2020-08-23T06:55:40.000Z</time>
      </trkpt>
      <trkpt lat="43.23586662299931049346923828125" lon="-1.63814716972410678863525390625">
        <ele>143.1999969482421875</ele>
        <time>2020-08-23T06:55:44.000Z</time>
      </trkpt>
      <trkpt lat="43.2358668744564056396484375" lon="-1.63816041313111782073974609375">
        <ele>143.600006103515625</ele>
        <time>2020-08-23T06:55:45.000Z</time>
      </trkpt>
      <trkpt lat="43.23587022721767425537109375" lon="-1.63821724243462085723876953125">
        <ele>144.600006103515625</ele>
        <time>2020-08-23T06:55:49.000Z</time>
      </trkpt>
      <trkpt lat="43.2358734123408794403076171875" lon="-1.6382431425154209136962890625">
        <ele>145</ele>
        <time>2020-08-23T06:55:51.000Z</time>
      </trkpt>
      <trkpt lat="43.2358828000724315643310546875" lon="-1.6383026540279388427734375">
        <ele>145.8000030517578125</ele>
        <time>2020-08-23T06:55:55.000Z</time>
      </trkpt>
      <trkpt lat="43.2358990609645843505859375" lon="-1.6383750736713409423828125">
        <ele>147</ele>
        <time>2020-08-23T06:55:59.000Z</time>
      </trkpt>
      <trkpt lat="43.23590735904872417449951171875" lon="-1.638404913246631622314453125">
        <ele>147.399993896484375</ele>
        <time>2020-08-23T06:56:01.000Z</time>
      </trkpt>
      <trkpt lat="43.2359232008457183837890625" lon="-1.6384453140199184417724609375">
        <ele>148</ele>
        <time>2020-08-23T06:56:04.000Z</time>
      </trkpt>
      <trkpt lat="43.23595203459262847900390625" lon="-1.63850541226565837860107421875">
        <ele>149</ele>
        <time>2020-08-23T06:56:08.000Z</time>
      </trkpt>
      <trkpt lat="43.2359676249325275421142578125" lon="-1.63854078389704227447509765625">
        <ele>150</ele>
        <time>2020-08-23T06:56:10.000Z</time>
      </trkpt>
      <trkpt lat="43.23597215116024017333984375" lon="-1.63855411112308502197265625">
        <ele>150.1999969482421875</ele>
        <time>2020-08-23T06:56:11.000Z</time>
      </trkpt>
      <trkpt lat="43.23597692884504795074462890625" lon="-1.63856609724462032318115234375">
        <ele>150.399993896484375</ele>
        <time>2020-08-23T06:56:12.000Z</time>
      </trkpt>
      <trkpt lat="43.2360038347542285919189453125" lon="-1.63861169479787349700927734375">
        <ele>151.1999969482421875</ele>
        <time>2020-08-23T06:56:16.000Z</time>
      </trkpt>
      <trkpt lat="43.23601012118160724639892578125" lon="-1.63862577639520168304443359375">
        <ele>151.399993896484375</ele>
        <time>2020-08-23T06:56:17.000Z</time>
      </trkpt>
      <trkpt lat="43.23603493161499500274658203125" lon="-1.63868210278451442718505859375">
        <ele>152.1999969482421875</ele>
        <time>2020-08-23T06:56:21.000Z</time>
      </trkpt>
      <trkpt lat="43.2360474206507205963134765625" lon="-1.63871194235980510711669921875">
        <ele>152.600006103515625</ele>
        <time>2020-08-23T06:56:23.000Z</time>
      </trkpt>
      <trkpt lat="43.2360608316957950592041015625" lon="-1.6387440450489521026611328125">
        <ele>153.1999969482421875</ele>
        <time>2020-08-23T06:56:25.000Z</time>
      </trkpt>
      <trkpt lat="43.236091844737529754638671875" lon="-1.63879240863025188446044921875">
        <ele>154.399993896484375</ele>
        <time>2020-08-23T06:56:29.000Z</time>
      </trkpt>
      <trkpt lat="43.23612612672150135040283203125" lon="-1.63886046968400478363037109375">
        <ele>155.1999969482421875</ele>
        <time>2020-08-23T06:56:34.000Z</time>
      </trkpt>
      <trkpt lat="43.23614590801298618316650390625" lon="-1.638911850750446319580078125">
        <ele>155.8000030517578125</ele>
        <time>2020-08-23T06:56:37.000Z</time>
      </trkpt>
      <trkpt lat="43.23616351000964641571044921875" lon="-1.63893205113708972930908203125">
        <ele>156.399993896484375</ele>
        <time>2020-08-23T06:56:39.000Z</time>
      </trkpt>
      <trkpt lat="43.2362070120871067047119140625" lon="-1.63897446356713771820068359375">
        <ele>157.1999969482421875</ele>
        <time>2020-08-23T06:56:43.000Z</time>
      </trkpt>
      <trkpt lat="43.23621598072350025177001953125" lon="-1.63898837752640247344970703125">
        <ele>157.399993896484375</ele>
        <time>2020-08-23T06:56:44.000Z</time>
      </trkpt>
      <trkpt lat="43.23627163656055927276611328125" lon="-1.63904805667698383331298828125">
        <ele>158.8000030517578125</ele>
        <time>2020-08-23T06:56:49.000Z</time>
      </trkpt>
      <trkpt lat="43.2362834550440311431884765625" lon="-1.63905677385628223419189453125">
        <ele>159</ele>
        <time>2020-08-23T06:56:50.000Z</time>
      </trkpt>
      <trkpt lat="43.23632863350212574005126953125" lon="-1.6391215659677982330322265625">
        <ele>159.8000030517578125</ele>
        <time>2020-08-23T06:56:55.000Z</time>
      </trkpt>
      <trkpt lat="43.23634506203234195709228515625" lon="-1.63915299810469150543212890625">
        <ele>160.1999969482421875</ele>
        <time>2020-08-23T06:56:57.000Z</time>
      </trkpt>
      <trkpt lat="43.236359395086765289306640625" lon="-1.6392067261040210723876953125">
        <ele>160.8000030517578125</ele>
        <time>2020-08-23T06:57:00.000Z</time>
      </trkpt>
      <trkpt lat="43.23638110421597957611083984375" lon="-1.6392764635384082794189453125">
        <ele>161.399993896484375</ele>
        <time>2020-08-23T06:57:04.000Z</time>
      </trkpt>
      <trkpt lat="43.23637892492115497589111328125" lon="-1.63933186791837215423583984375">
        <ele>162</ele>
        <time>2020-08-23T06:57:07.000Z</time>
      </trkpt>
      <trkpt lat="43.23638780973851680755615234375" lon="-1.63942314684391021728515625">
        <ele>162.8000030517578125</ele>
        <time>2020-08-23T06:57:12.000Z</time>
      </trkpt>
      <trkpt lat="43.236390240490436553955078125" lon="-1.6394399106502532958984375">
        <ele>163</ele>
        <time>2020-08-23T06:57:13.000Z</time>
      </trkpt>
      <trkpt lat="43.2364048250019550323486328125" lon="-1.6395168565213680267333984375">
        <ele>164.1999969482421875</ele>
        <time>2020-08-23T06:57:18.000Z</time>
      </trkpt>
      <trkpt lat="43.23640935122966766357421875" lon="-1.639528758823871612548828125">
        <ele>164.399993896484375</ele>
        <time>2020-08-23T06:57:19.000Z</time>
      </trkpt>
      <trkpt lat="43.236422426998615264892578125" lon="-1.63956932723522186279296875">
        <ele>165.1999969482421875</ele>
        <time>2020-08-23T06:57:22.000Z</time>
      </trkpt>
      <trkpt lat="43.2364433817565441131591796875" lon="-1.63964367471635341644287109375">
        <ele>166.1999969482421875</ele>
        <time>2020-08-23T06:57:27.000Z</time>
      </trkpt>
      <trkpt lat="43.23646056465804576873779296875" lon="-1.639686338603496551513671875">
        <ele>167.1999969482421875</ele>
        <time>2020-08-23T06:57:30.000Z</time>
      </trkpt>
      <trkpt lat="43.2364678569138050079345703125" lon="-1.63970075547695159912109375">
        <ele>167.399993896484375</ele>
        <time>2020-08-23T06:57:31.000Z</time>
      </trkpt>
      <trkpt lat="43.2364891469478607177734375" lon="-1.63973352871835231781005859375">
        <ele>168.1999969482421875</ele>
        <time>2020-08-23T06:57:34.000Z</time>
      </trkpt>
      <trkpt lat="43.23649342171847820281982421875" lon="-1.639744676649570465087890625">
        <ele>168.399993896484375</ele>
        <time>2020-08-23T06:57:35.000Z</time>
      </trkpt>
      <trkpt lat="43.2365218363702297210693359375" lon="-1.6397827304899692535400390625">
        <ele>169.399993896484375</ele>
        <time>2020-08-23T06:57:39.000Z</time>
      </trkpt>
      <trkpt lat="43.23654069565236568450927734375" lon="-1.63980427198112010955810546875">
        <ele>169.600006103515625</ele>
        <time>2020-08-23T06:57:41.000Z</time>
      </trkpt>
      <trkpt lat="43.2365821860730648040771484375" lon="-1.6398367099463939666748046875">
        <ele>170.1999969482421875</ele>
        <time>2020-08-23T06:57:45.000Z</time>
      </trkpt>
      <trkpt lat="43.236604146659374237060546875" lon="-1.6398289985954761505126953125">
        <ele>170.8000030517578125</ele>
        <time>2020-08-23T06:57:47.000Z</time>
      </trkpt>
      <trkpt lat="43.236641027033329010009765625" lon="-1.639796979725360870361328125">
        <ele>172.1999969482421875</ele>
        <time>2020-08-23T06:57:51.000Z</time>
      </trkpt>
      <trkpt lat="43.236657120287418365478515625" lon="-1.6397733427584171295166015625">
        <ele>172.399993896484375</ele>
        <time>2020-08-23T06:57:53.000Z</time>
      </trkpt>
      <trkpt lat="43.23666156269609928131103515625" lon="-1.63969279266893863677978515625">
        <ele>173.1999969482421875</ele>
        <time>2020-08-23T06:57:58.000Z</time>
      </trkpt>
      <trkpt lat="43.23666189797222614288330078125" lon="-1.6396754421293735504150390625">
        <ele>173.399993896484375</ele>
        <time>2020-08-23T06:57:59.000Z</time>
      </trkpt>
      <trkpt lat="43.2366616465151309967041015625" lon="-1.63965457119047641754150390625">
        <ele>173.600006103515625</ele>
        <time>2020-08-23T06:58:00.000Z</time>
      </trkpt>
      <trkpt lat="43.23666189797222614288330078125" lon="-1.63959740661084651947021484375">
        <ele>174.1999969482421875</ele>
        <time>2020-08-23T06:58:03.000Z</time>
      </trkpt>
      <trkpt lat="43.2366586290299892425537109375" lon="-1.6395339556038379669189453125">
        <ele>175</ele>
        <time>2020-08-23T06:58:07.000Z</time>
      </trkpt>
      <trkpt lat="43.23665854521095752716064453125" lon="-1.6395192034542560577392578125">
        <ele>175.1999969482421875</ele>
        <time>2020-08-23T06:58:08.000Z</time>
      </trkpt>
      <trkpt lat="43.2366608083248138427734375" lon="-1.6395061276853084564208984375">
        <ele>175.600006103515625</ele>
        <time>2020-08-23T06:58:09.000Z</time>
      </trkpt>
      <trkpt lat="43.23666390962898731231689453125" lon="-1.63946664892137050628662109375">
        <ele>176.399993896484375</ele>
        <time>2020-08-23T06:58:12.000Z</time>
      </trkpt>
      <trkpt lat="43.23665854521095752716064453125" lon="-1.6394387371838092803955078125">
        <ele>177</ele>
        <time>2020-08-23T06:58:14.000Z</time>
      </trkpt>
      <trkpt lat="43.2366415299475193023681640625" lon="-1.639395318925380706787109375">
        <ele>177.600006103515625</ele>
        <time>2020-08-23T06:58:17.000Z</time>
      </trkpt>
      <trkpt lat="43.2366341538727283477783203125" lon="-1.639324910938739776611328125">
        <ele>178</ele>
        <time>2020-08-23T06:58:21.000Z</time>
      </trkpt>
      <trkpt lat="43.23663574643433094024658203125" lon="-1.63924922235310077667236328125">
        <ele>172.399993896484375</ele>
        <time>2020-08-23T06:58:25.000Z</time>
      </trkpt>
      <trkpt lat="43.236647062003612518310546875" lon="-1.63917277939617633819580078125">
        <ele>179.399993896484375</ele>
        <time>2020-08-23T06:58:29.000Z</time>
      </trkpt>
      <trkpt lat="43.23664446361362934112548828125" lon="-1.6390967555344104766845703125">
        <ele>179.8000030517578125</ele>
        <time>2020-08-23T06:58:33.000Z</time>
      </trkpt>
      <trkpt lat="43.23663993738591670989990234375" lon="-1.638997681438922882080078125">
        <ele>180.1999969482421875</ele>
        <time>2020-08-23T06:58:38.000Z</time>
      </trkpt>
      <trkpt lat="43.2366324774920940399169921875" lon="-1.638910509645938873291015625">
        <ele>181</ele>
        <time>2020-08-23T06:58:43.000Z</time>
      </trkpt>
      <trkpt lat="43.23663205839693546295166015625" lon="-1.63891042582690715789794921875">
        <ele>181</ele>
        <time>2020-08-23T06:58:44.000Z</time>
      </trkpt>
      <trkpt lat="43.23663189075887203216552734375" lon="-1.6389110125601291656494140625">
        <ele>180.8000030517578125</ele>
        <time>2020-08-23T06:58:57.000Z</time>
      </trkpt>
      <trkpt lat="43.236630968749523162841796875" lon="-1.63891218602657318115234375">
        <ele>181.1999969482421875</ele>
        <time>2020-08-23T06:59:07.000Z</time>
      </trkpt>
      <trkpt lat="43.2366287894546985626220703125" lon="-1.63891159929335117340087890625">
        <ele>181</ele>
        <time>2020-08-23T06:59:25.000Z</time>
      </trkpt>
      <trkpt lat="43.23662065900862216949462890625" lon="-1.6389002837240695953369140625">
        <ele>180.8000030517578125</ele>
        <time>2020-08-23T06:59:47.000Z</time>
      </trkpt>
      <trkpt lat="43.23662065900862216949462890625" lon="-1.63889802061021327972412109375">
        <ele>180.8000030517578125</ele>
        <time>2020-08-23T07:00:15.000Z</time>
      </trkpt>
      <trkpt lat="43.23662049137055873870849609375" lon="-1.638897769153118133544921875">
        <ele>181</ele>
        <time>2020-08-23T07:00:37.000Z</time>
      </trkpt>
      <trkpt lat="43.23662032373249530792236328125" lon="-1.63889609277248382568359375">
        <ele>180.600006103515625</ele>
        <time>2020-08-23T07:01:10.000Z</time>
      </trkpt>
      <trkpt lat="43.23662049137055873870849609375" lon="-1.63889550603926181793212890625">
        <ele>180.600006103515625</ele>
        <time>2020-08-23T07:01:35.000Z</time>
      </trkpt>
      <trkpt lat="43.23661722242832183837890625" lon="-1.6388349048793315887451171875">
        <ele>180.600006103515625</ele>
        <time>2020-08-23T07:01:41.000Z</time>
      </trkpt>
      <trkpt lat="43.23660607449710369110107421875" lon="-1.63867749273777008056640625">
        <ele>181.399993896484375</ele>
        <time>2020-08-23T07:01:49.000Z</time>
      </trkpt>
      <trkpt lat="43.23661076836287975311279296875" lon="-1.638567186892032623291015625">
        <ele>182</ele>
        <time>2020-08-23T07:01:55.000Z</time>
      </trkpt>
      <trkpt lat="43.236613534390926361083984375" lon="-1.6385469026863574981689453125">
        <ele>182.1999969482421875</ele>
        <time>2020-08-23T07:01:56.000Z</time>
      </trkpt>
      <trkpt lat="43.23662015609443187713623046875" lon="-1.63850373588502407073974609375">
        <ele>182.399993896484375</ele>
        <time>2020-08-23T07:01:58.000Z</time>
      </trkpt>
      <trkpt lat="43.236620910465717315673828125" lon="-1.63845579139888286590576171875">
        <ele>182.600006103515625</ele>
        <time>2020-08-23T07:02:00.000Z</time>
      </trkpt>
      <trkpt lat="43.23662526905536651611328125" lon="-1.63840935565531253814697265625">
        <ele>182.600006103515625</ele>
        <time>2020-08-23T07:02:02.000Z</time>
      </trkpt>
      <trkpt lat="43.23667916469275951385498046875" lon="-1.638237275183200836181640625">
        <ele>183.1999969482421875</ele>
        <time>2020-08-23T07:02:10.000Z</time>
      </trkpt>
      <trkpt lat="43.236696012318134307861328125" lon="-1.6381992213428020477294921875">
        <ele>183.399993896484375</ele>
        <time>2020-08-23T07:02:12.000Z</time>
      </trkpt>
      <trkpt lat="43.2367546856403350830078125" lon="-1.6380711458623409271240234375">
        <ele>184.600006103515625</ele>
        <time>2020-08-23T07:02:19.000Z</time>
      </trkpt>
      <trkpt lat="43.236763738095760345458984375" lon="-1.63805387914180755615234375">
        <ele>184.600006103515625</ele>
        <time>2020-08-23T07:02:20.000Z</time>
      </trkpt>
      <trkpt lat="43.236845545470714569091796875" lon="-1.6379222832620143890380859375">
        <ele>185.600006103515625</ele>
        <time>2020-08-23T07:02:28.000Z</time>
      </trkpt>
      <trkpt lat="43.2368566095829010009765625" lon="-1.6379078663885593414306640625">
        <ele>185.8000030517578125</ele>
        <time>2020-08-23T07:02:29.000Z</time>
      </trkpt>
      <trkpt lat="43.23690145276486873626708984375" lon="-1.63780686445534229278564453125">
        <ele>186.600006103515625</ele>
        <time>2020-08-23T07:02:35.000Z</time>
      </trkpt>
      <trkpt lat="43.236922323703765869140625" lon="-1.63775824941694736480712890625">
        <ele>187</ele>
        <time>2020-08-23T07:02:38.000Z</time>
      </trkpt>
      <trkpt lat="43.23696054518222808837890625" lon="-1.63769840262830257415771484375">
        <ele>187</ele>
        <time>2020-08-23T07:02:42.000Z</time>
      </trkpt>
      <trkpt lat="43.23705039918422698974609375" lon="-1.6375883482396602630615234375">
        <ele>187.600006103515625</ele>
        <time>2020-08-23T07:02:50.000Z</time>
      </trkpt>
      <trkpt lat="43.23712952435016632080078125" lon="-1.637525148689746856689453125">
        <ele>188</ele>
        <time>2020-08-23T07:02:56.000Z</time>
      </trkpt>
      <trkpt lat="43.23715634644031524658203125" lon="-1.63750092498958110809326171875">
        <ele>188.1999969482421875</ele>
        <time>2020-08-23T07:02:58.000Z</time>
      </trkpt>
      <trkpt lat="43.23725634254515171051025390625" lon="-1.6374631226062774658203125">
        <ele>188.8000030517578125</ele>
        <time>2020-08-23T07:03:05.000Z</time>
      </trkpt>
      <trkpt lat="43.237335719168186187744140625" lon="-1.637447364628314971923828125">
        <ele>189</ele>
        <time>2020-08-23T07:03:10.000Z</time>
      </trkpt>
      <trkpt lat="43.23741492815315723419189453125" lon="-1.63744141347706317901611328125">
        <ele>189.1999969482421875</ele>
        <time>2020-08-23T07:03:15.000Z</time>
      </trkpt>
      <trkpt lat="43.2375658862292766571044921875" lon="-1.63741677068173885345458984375">
        <ele>189.600006103515625</ele>
        <time>2020-08-23T07:03:24.000Z</time>
      </trkpt>
      <trkpt lat="43.23762866668403148651123046875" lon="-1.6374186985194683074951171875">
        <ele>190</ele>
        <time>2020-08-23T07:03:28.000Z</time>
      </trkpt>
      <trkpt lat="43.23769144713878631591796875" lon="-1.6374364681541919708251953125">
        <ele>190.8000030517578125</ele>
        <time>2020-08-23T07:03:32.000Z</time>
      </trkpt>
      <trkpt lat="43.23774064891040325164794921875" lon="-1.6374404914677143096923828125">
        <ele>191.1999969482421875</ele>
        <time>2020-08-23T07:03:35.000Z</time>
      </trkpt>
      <trkpt lat="43.23780753649771213531494140625" lon="-1.6374512203037738800048828125">
        <ele>191.8000030517578125</ele>
        <time>2020-08-23T07:03:39.000Z</time>
      </trkpt>
      <trkpt lat="43.23797039687633514404296875" lon="-1.63746387697756290435791015625">
        <ele>192.1999969482421875</ele>
        <time>2020-08-23T07:03:48.000Z</time>
      </trkpt>
      <trkpt lat="43.2380084507167339324951171875" lon="-1.63746245205402374267578125">
        <ele>192.399993896484375</ele>
        <time>2020-08-23T07:03:50.000Z</time>
      </trkpt>
      <trkpt lat="43.238110207021236419677734375" lon="-1.637473516166210174560546875">
        <ele>193.1999969482421875</ele>
        <time>2020-08-23T07:03:56.000Z</time>
      </trkpt>
      <trkpt lat="43.2381271384656429290771484375" lon="-1.63747393526136875152587890625">
        <ele>193.399993896484375</ele>
        <time>2020-08-23T07:03:57.000Z</time>
      </trkpt>
      <trkpt lat="43.23819704353809356689453125" lon="-1.6374706663191318511962890625">
        <ele>194.600006103515625</ele>
        <time>2020-08-23T07:04:02.000Z</time>
      </trkpt>
      <trkpt lat="43.23824264109134674072265625" lon="-1.637489609420299530029296875">
        <ele>195.8000030517578125</ele>
        <time>2020-08-23T07:04:06.000Z</time>
      </trkpt>
      <trkpt lat="43.23826418258249759674072265625" lon="-1.6374792158603668212890625">
        <ele>196</ele>
        <time>2020-08-23T07:04:08.000Z</time>
      </trkpt>
      <trkpt lat="43.23835395276546478271484375" lon="-1.637475527822971343994140625">
        <ele>196.8000030517578125</ele>
        <time>2020-08-23T07:04:14.000Z</time>
      </trkpt>
      <trkpt lat="43.2384855486452579498291015625" lon="-1.63746890611946582794189453125">
        <ele>197.600006103515625</ele>
        <time>2020-08-23T07:04:22.000Z</time>
      </trkpt>
      <trkpt lat="43.23854011483490467071533203125" lon="-1.63747427053749561309814453125">
        <ele>197.8000030517578125</ele>
        <time>2020-08-23T07:04:25.000Z</time>
      </trkpt>
      <trkpt lat="43.23862351477146148681640625" lon="-1.6374562494456768035888671875">
        <ele>198</ele>
        <time>2020-08-23T07:04:30.000Z</time>
      </trkpt>
      <trkpt lat="43.23877237737178802490234375" lon="-1.6374336183071136474609375">
        <ele>199</ele>
        <time>2020-08-23T07:04:39.000Z</time>
      </trkpt>
      <trkpt lat="43.23886566795408725738525390625" lon="-1.63741953670978546142578125">
        <ele>200</ele>
        <time>2020-08-23T07:04:45.000Z</time>
      </trkpt>
      <trkpt lat="43.238943032920360565185546875" lon="-1.63740704767405986785888671875">
        <ele>200.600006103515625</ele>
        <time>2020-08-23T07:04:50.000Z</time>
      </trkpt>
      <trkpt lat="43.23897412978112697601318359375" lon="-1.63740285672247409820556640625">
        <ele>201.1999969482421875</ele>
        <time>2020-08-23T07:04:52.000Z</time>
      </trkpt>
      <trkpt lat="43.23906348086893558502197265625" lon="-1.63738257251679897308349609375">
        <ele>202.399993896484375</ele>
        <time>2020-08-23T07:04:58.000Z</time>
      </trkpt>
      <trkpt lat="43.2390779815614223480224609375" lon="-1.63738039322197437286376953125">
        <ele>202.600006103515625</ele>
        <time>2020-08-23T07:04:59.000Z</time>
      </trkpt>
      <trkpt lat="43.23912316001951694488525390625" lon="-1.63737653754651546478271484375">
        <ele>203.399993896484375</ele>
        <time>2020-08-23T07:05:02.000Z</time>
      </trkpt>
      <trkpt lat="43.2391933165490627288818359375" lon="-1.63735248148441314697265625">
        <ele>204.600006103515625</ele>
        <time>2020-08-23T07:05:07.000Z</time>
      </trkpt>
      <trkpt lat="43.23922458104789257049560546875" lon="-1.6373442672193050384521484375">
        <ele>205</ele>
        <time>2020-08-23T07:05:09.000Z</time>
      </trkpt>
      <trkpt lat="43.23930085636675357818603515625" lon="-1.6373221389949321746826171875">
        <ele>205.8000030517578125</ele>
        <time>2020-08-23T07:05:14.000Z</time>
      </trkpt>
      <trkpt lat="43.2393451966345310211181640625" lon="-1.63730612955987453460693359375">
        <ele>206.600006103515625</ele>
        <time>2020-08-23T07:05:17.000Z</time>
      </trkpt>
      <trkpt lat="43.23937344364821910858154296875" lon="-1.637293808162212371826171875">
        <ele>207</ele>
        <time>2020-08-23T07:05:19.000Z</time>
      </trkpt>
      <trkpt lat="43.23944351635873317718505859375" lon="-1.6372621245682239532470703125">
        <ele>208.1999969482421875</ele>
        <time>2020-08-23T07:05:24.000Z</time>
      </trkpt>
      <trkpt lat="43.23949850164353847503662109375" lon="-1.63723035715520381927490234375">
        <ele>209.1999969482421875</ele>
        <time>2020-08-23T07:05:28.000Z</time>
      </trkpt>
      <trkpt lat="43.2395654730498790740966796875" lon="-1.63719532079994678497314453125">
        <ele>210.600006103515625</ele>
        <time>2020-08-23T07:05:33.000Z</time>
      </trkpt>
      <trkpt lat="43.23961685411632061004638671875" lon="-1.637171767652034759521484375">
        <ele>211.600006103515625</ele>
        <time>2020-08-23T07:05:37.000Z</time>
      </trkpt>
      <trkpt lat="43.23962825350463390350341796875" lon="-1.63716447539627552032470703125">
        <ele>212</ele>
        <time>2020-08-23T07:05:38.000Z</time>
      </trkpt>
      <trkpt lat="43.23969296179711818695068359375" lon="-1.63714519701898097991943359375">
        <ele>213</ele>
        <time>2020-08-23T07:05:43.000Z</time>
      </trkpt>
      <trkpt lat="43.23970586992800235748291015625" lon="-1.63714050315320491790771484375">
        <ele>213.1999969482421875</ele>
        <time>2020-08-23T07:05:44.000Z</time>
      </trkpt>
      <trkpt lat="43.23976068757474422454833984375" lon="-1.63712985813617706298828125">
        <ele>214.1999969482421875</ele>
        <time>2020-08-23T07:05:48.000Z</time>
      </trkpt>
      <trkpt lat="43.23983176611363887786865234375" lon="-1.63714117370545864105224609375">
        <ele>215.1999969482421875</ele>
        <time>2020-08-23T07:05:53.000Z</time>
      </trkpt>
      <trkpt lat="43.239845931529998779296875" lon="-1.6371404193341732025146484375">
        <ele>215.399993896484375</ele>
        <time>2020-08-23T07:05:54.000Z</time>
      </trkpt>
      <trkpt lat="43.23996017687022686004638671875" lon="-1.63718090392649173736572265625">
        <ele>216.600006103515625</ele>
        <time>2020-08-23T07:06:02.000Z</time>
      </trkpt>
      <trkpt lat="43.2400724105536937713623046875" lon="-1.63721107877790927886962890625">
        <ele>217.8000030517578125</ele>
        <time>2020-08-23T07:06:10.000Z</time>
      </trkpt>
      <trkpt lat="43.2401562295854091644287109375" lon="-1.6372235678136348724365234375">
        <ele>218.8000030517578125</ele>
        <time>2020-08-23T07:06:16.000Z</time>
      </trkpt>
      <trkpt lat="43.2401850633323192596435546875" lon="-1.6372182033956050872802734375">
        <ele>219.1999969482421875</ele>
        <time>2020-08-23T07:06:18.000Z</time>
      </trkpt>
      <trkpt lat="43.24026946909725666046142578125" lon="-1.63718559779226779937744140625">
        <ele>220</ele>
        <time>2020-08-23T07:06:24.000Z</time>
      </trkpt>
      <trkpt lat="43.24034524150192737579345703125" lon="-1.63717319257557392120361328125">
        <ele>221</ele>
        <time>2020-08-23T07:06:29.000Z</time>
      </trkpt>
      <trkpt lat="43.2403604127466678619384765625" lon="-1.637169085443019866943359375">
        <ele>221</ele>
        <time>2020-08-23T07:06:30.000Z</time>
      </trkpt>
      <trkpt lat="43.24051841162145137786865234375" lon="-1.6371598653495311737060546875">
        <ele>222</ele>
        <time>2020-08-23T07:06:40.000Z</time>
      </trkpt>
      <trkpt lat="43.24053316377103328704833984375" lon="-1.63716615177690982818603515625">
        <ele>222.1999969482421875</ele>
        <time>2020-08-23T07:06:41.000Z</time>
      </trkpt>
      <trkpt lat="43.2406075112521648406982421875" lon="-1.6371823288500308990478515625">
        <ele>223.1999969482421875</ele>
        <time>2020-08-23T07:06:46.000Z</time>
      </trkpt>
      <trkpt lat="43.24066777713596820831298828125" lon="-1.637198925018310546875">
        <ele>224</ele>
        <time>2020-08-23T07:06:50.000Z</time>
      </trkpt>
      <trkpt lat="43.2406826131045818328857421875" lon="-1.6372047923505306243896484375">
        <ele>224.399993896484375</ele>
        <time>2020-08-23T07:06:51.000Z</time>
      </trkpt>
      <trkpt lat="43.2407805137336254119873046875" lon="-1.63723446428775787353515625">
        <ele>225.399993896484375</ele>
        <time>2020-08-23T07:06:58.000Z</time>
      </trkpt>
      <trkpt lat="43.2408965192735195159912109375" lon="-1.63724645040929317474365234375">
        <ele>226.600006103515625</ele>
        <time>2020-08-23T07:07:06.000Z</time>
      </trkpt>
      <trkpt lat="43.24093901552259922027587890625" lon="-1.6372574307024478912353515625">
        <ele>226.8000030517578125</ele>
        <time>2020-08-23T07:07:12.000Z</time>
      </trkpt>
      <trkpt lat="43.24093817733228206634521484375" lon="-1.63725734688341617584228515625">
        <ele>226.8000030517578125</ele>
        <time>2020-08-23T07:07:31.000Z</time>
      </trkpt>
      <trkpt lat="43.24096650816500186920166015625" lon="-1.6372584365308284759521484375">
        <ele>226.8000030517578125</ele>
        <time>2020-08-23T07:07:45.000Z</time>
      </trkpt>
      <trkpt lat="43.241104893386363983154296875" lon="-1.63725147955119609832763671875">
        <ele>226.8000030517578125</ele>
        <time>2020-08-23T07:07:53.000Z</time>
      </trkpt>
      <trkpt lat="43.2412488944828510284423828125" lon="-1.63716875016689300537109375">
        <ele>226.1999969482421875</ele>
        <time>2020-08-23T07:07:58.000Z</time>
      </trkpt>
      <trkpt lat="43.2412750460207462310791015625" lon="-1.6371246613562107086181640625">
        <ele>225.8000030517578125</ele>
        <time>2020-08-23T07:07:59.000Z</time>
      </trkpt>
      <trkpt lat="43.24133564718067646026611328125" lon="-1.63702935911715030670166015625">
        <ele>225.1999969482421875</ele>
        <time>2020-08-23T07:08:01.000Z</time>
      </trkpt>
      <trkpt lat="43.24138107709586620330810546875" lon="-1.636994071304798126220703125">
        <ele>224.8000030517578125</ele>
        <time>2020-08-23T07:08:02.000Z</time>
      </trkpt>
      <trkpt lat="43.24149322696030139923095703125" lon="-1.6369610466063022613525390625">
        <ele>223.399993896484375</ele>
        <time>2020-08-23T07:08:04.000Z</time>
      </trkpt>
      <trkpt lat="43.2415553368628025054931640625" lon="-1.6369724459946155548095703125">
        <ele>222.600006103515625</ele>
        <time>2020-08-23T07:08:05.000Z</time>
      </trkpt>
      <trkpt lat="43.2416148483753204345703125" lon="-1.6369969211518764495849609375">
        <ele>221.399993896484375</ele>
        <time>2020-08-23T07:08:06.000Z</time>
      </trkpt>
      <trkpt lat="43.241728506982326507568359375" lon="-1.6370857693254947662353515625">
        <ele>219.600006103515625</ele>
        <time>2020-08-23T07:08:08.000Z</time>
      </trkpt>
      <trkpt lat="43.241790868341922760009765625" lon="-1.637134552001953125">
        <ele>219.1999969482421875</ele>
        <time>2020-08-23T07:08:09.000Z</time>
      </trkpt>
      <trkpt lat="43.241924978792667388916015625" lon="-1.63718241266906261444091796875">
        <ele>218.399993896484375</ele>
        <time>2020-08-23T07:08:11.000Z</time>
      </trkpt>
      <trkpt lat="43.24205682612955570220947265625" lon="-1.63710705935955047607421875">
        <ele>217.1999969482421875</ele>
        <time>2020-08-23T07:08:14.000Z</time>
      </trkpt>
      <trkpt lat="43.2420847378671169281005859375" lon="-1.637003459036350250244140625">
        <ele>217.1999969482421875</ele>
        <time>2020-08-23T07:08:16.000Z</time>
      </trkpt>
      <trkpt lat="43.24210368096828460693359375" lon="-1.63695140741765499114990234375">
        <ele>217.1999969482421875</ele>
        <time>2020-08-23T07:08:17.000Z</time>
      </trkpt>
      <trkpt lat="43.242134861648082733154296875" lon="-1.63690564222633838653564453125">
        <ele>217.1999969482421875</ele>
        <time>2020-08-23T07:08:18.000Z</time>
      </trkpt>
      <trkpt lat="43.24227022938430309295654296875" lon="-1.63685384206473827362060546875">
        <ele>217.1999969482421875</ele>
        <time>2020-08-23T07:08:21.000Z</time>
      </trkpt>
      <trkpt lat="43.2423727400600910186767578125" lon="-1.6369198076426982879638671875">
        <ele>217</ele>
        <time>2020-08-23T07:08:24.000Z</time>
      </trkpt>
      <trkpt lat="43.2424739934504032135009765625" lon="-1.6370098292827606201171875">
        <ele>218.399993896484375</ele>
        <time>2020-08-23T07:08:30.000Z</time>
      </trkpt>
      <trkpt lat="43.2425715588033199310302734375" lon="-1.637069843709468841552734375">
        <ele>219.399993896484375</ele>
        <time>2020-08-23T07:08:36.000Z</time>
      </trkpt>
      <trkpt lat="43.24258723296225070953369140625" lon="-1.6370713524520397186279296875">
        <ele>219.399993896484375</ele>
        <time>2020-08-23T07:08:37.000Z</time>
      </trkpt>
      <trkpt lat="43.24272419326007366180419921875" lon="-1.6371182911098003387451171875">
        <ele>220.1999969482421875</ele>
        <time>2020-08-23T07:08:45.000Z</time>
      </trkpt>
      <trkpt lat="43.24284690432250499725341796875" lon="-1.637116111814975738525390625">
        <ele>220</ele>
        <time>2020-08-23T07:08:52.000Z</time>
      </trkpt>
      <trkpt lat="43.242983110249042510986328125" lon="-1.63708233274519443511962890625">
        <ele>220.399993896484375</ele>
        <time>2020-08-23T07:09:00.000Z</time>
      </trkpt>
      <trkpt lat="43.243091739714145660400390625" lon="-1.63702332414686679840087890625">
        <ele>221.600006103515625</ele>
        <time>2020-08-23T07:09:07.000Z</time>
      </trkpt>
      <trkpt lat="43.24314773082733154296875" lon="-1.63698879070580005645751953125">
        <ele>222.600006103515625</ele>
        <time>2020-08-23T07:09:11.000Z</time>
      </trkpt>
      <trkpt lat="43.24318352155387401580810546875" lon="-1.63695543073117733001708984375">
        <ele>223.399993896484375</ele>
        <time>2020-08-23T07:09:14.000Z</time>
      </trkpt>
      <trkpt lat="43.24320338666439056396484375" lon="-1.63693179376423358917236328125">
        <ele>223.8000030517578125</ele>
        <time>2020-08-23T07:09:16.000Z</time>
      </trkpt>
      <trkpt lat="43.243256025016307830810546875" lon="-1.636873371899127960205078125">
        <ele>225</ele>
        <time>2020-08-23T07:09:21.000Z</time>
      </trkpt>
      <trkpt lat="43.243269436061382293701171875" lon="-1.63686222396790981292724609375">
        <ele>225.1999969482421875</ele>
        <time>2020-08-23T07:09:22.000Z</time>
      </trkpt>
      <trkpt lat="43.24333883821964263916015625" lon="-1.63681478239595890045166015625">
        <ele>226</ele>
        <time>2020-08-23T07:09:27.000Z</time>
      </trkpt>
      <trkpt lat="43.2433648221194744110107421875" lon="-1.63679734803736209869384765625">
        <ele>226.399993896484375</ele>
        <time>2020-08-23T07:09:29.000Z</time>
      </trkpt>
      <trkpt lat="43.24342760257422924041748046875" lon="-1.6367588751018047332763671875">
        <ele>227.1999969482421875</ele>
        <time>2020-08-23T07:09:34.000Z</time>
      </trkpt>
      <trkpt lat="43.2434503175318241119384765625" lon="-1.63674538023769855499267578125">
        <ele>227.600006103515625</ele>
        <time>2020-08-23T07:09:36.000Z</time>
      </trkpt>
      <trkpt lat="43.2434751279652118682861328125" lon="-1.63673649542033672332763671875">
        <ele>228.1999969482421875</ele>
        <time>2020-08-23T07:09:41.000Z</time>
      </trkpt>
      <trkpt lat="43.24346750043332576751708984375" lon="-1.63674051873385906219482421875">
        <ele>228.399993896484375</ele>
        <time>2020-08-23T07:09:49.000Z</time>
      </trkpt>
      <trkpt lat="43.24339491315186023712158203125" lon="-1.63672777824103832244873046875">
        <ele>227.8000030517578125</ele>
        <time>2020-08-23T07:09:56.000Z</time>
      </trkpt>
      <trkpt lat="43.24337731115520000457763671875" lon="-1.6367253474891185760498046875">
        <ele>227.8000030517578125</ele>
        <time>2020-08-23T07:09:58.000Z</time>
      </trkpt>
      <trkpt lat="43.24334110133349895477294921875" lon="-1.63673917762935161590576171875">
        <ele>228.399993896484375</ele>
        <time>2020-08-23T07:10:03.000Z</time>
      </trkpt>
      <trkpt lat="43.2433021254837512969970703125" lon="-1.63675895892083644866943359375">
        <ele>229.1999969482421875</ele>
        <time>2020-08-23T07:10:09.000Z</time>
      </trkpt>
      <trkpt lat="43.243288211524486541748046875" lon="-1.63676482625305652618408203125">
        <ele>229.399993896484375</ele>
        <time>2020-08-23T07:10:11.000Z</time>
      </trkpt>
      <trkpt lat="43.24324403889477252960205078125" lon="-1.6367776505649089813232421875">
        <ele>230.1999969482421875</ele>
        <time>2020-08-23T07:10:18.000Z</time>
      </trkpt>
      <trkpt lat="43.24322492815554141998291015625" lon="-1.63678108714520931243896484375">
        <ele>230.8000030517578125</ele>
        <time>2020-08-23T07:10:21.000Z</time>
      </trkpt>
      <trkpt lat="43.24319257400929927825927734375" lon="-1.63678209297358989715576171875">
        <ele>231.399993896484375</ele>
        <time>2020-08-23T07:10:25.000Z</time>
      </trkpt>
      <trkpt lat="43.243134655058383941650390625" lon="-1.63678645156323909759521484375">
        <ele>232.1999969482421875</ele>
        <time>2020-08-23T07:10:31.000Z</time>
      </trkpt>
      <trkpt lat="43.2430739700794219970703125" lon="-1.636795587837696075439453125">
        <ele>232.600006103515625</ele>
        <time>2020-08-23T07:10:37.000Z</time>
      </trkpt>
      <trkpt lat="43.24305326677858829498291015625" lon="-1.63679600693285465240478515625">
        <ele>232.8000030517578125</ele>
        <time>2020-08-23T07:10:39.000Z</time>
      </trkpt>
      <trkpt lat="43.24295662343502044677734375" lon="-1.63679768331348896026611328125">
        <ele>233.600006103515625</ele>
        <time>2020-08-23T07:10:48.000Z</time>
      </trkpt>
      <trkpt lat="43.24294547550380229949951171875" lon="-1.6367977671325206756591796875">
        <ele>233.8000030517578125</ele>
        <time>2020-08-23T07:10:49.000Z</time>
      </trkpt>
      <trkpt lat="43.24286601506173610687255859375" lon="-1.6367907263338565826416015625">
        <ele>234.8000030517578125</ele>
        <time>2020-08-23T07:10:57.000Z</time>
      </trkpt>
      <trkpt lat="43.24284707196056842803955078125" lon="-1.63678611628711223602294921875">
        <ele>234.8000030517578125</ele>
        <time>2020-08-23T07:10:59.000Z</time>
      </trkpt>
      <trkpt lat="43.24276409111917018890380859375" lon="-1.6367575339972972869873046875">
        <ele>235.8000030517578125</ele>
        <time>2020-08-23T07:11:09.000Z</time>
      </trkpt>
      <trkpt lat="43.2426845468580722808837890625" lon="-1.6367122717201709747314453125">
        <ele>236.8000030517578125</ele>
        <time>2020-08-23T07:11:20.000Z</time>
      </trkpt>
      <trkpt lat="43.24267691932618618011474609375" lon="-1.6367069073021411895751953125">
        <ele>237</ele>
        <time>2020-08-23T07:11:21.000Z</time>
      </trkpt>
      <trkpt lat="43.242599554359912872314453125" lon="-1.63666105829179286956787109375">
        <ele>238</ele>
        <time>2020-08-23T07:11:31.000Z</time>
      </trkpt>
      <trkpt lat="43.2425920106470584869384765625" lon="-1.636657454073429107666015625">
        <ele>238.1999969482421875</ele>
        <time>2020-08-23T07:11:32.000Z</time>
      </trkpt>
      <trkpt lat="43.24257717467844486236572265625" lon="-1.6366472281515598297119140625">
        <ele>238.8000030517578125</ele>
        <time>2020-08-23T07:11:38.000Z</time>
      </trkpt>
      <trkpt lat="43.24255756102502346038818359375" lon="-1.6366348229348659515380859375">
        <ele>238.8000030517578125</ele>
        <time>2020-08-23T07:11:46.000Z</time>
      </trkpt>
      <trkpt lat="43.24247005395591259002685546875" lon="-1.63657925091683864593505859375">
        <ele>239.399993896484375</ele>
        <time>2020-08-23T07:11:53.000Z</time>
      </trkpt>
      <trkpt lat="43.2424431480467319488525390625" lon="-1.6365654207766056060791015625">
        <ele>239.8000030517578125</ele>
        <time>2020-08-23T07:11:55.000Z</time>
      </trkpt>
      <trkpt lat="43.24235740117728710174560546875" lon="-1.63649107329547405242919921875">
        <ele>240</ele>
        <time>2020-08-23T07:12:02.000Z</time>
      </trkpt>
      <trkpt lat="43.2423197664320468902587890625" lon="-1.63642804138362407684326171875">
        <ele>240.399993896484375</ele>
        <time>2020-08-23T07:12:06.000Z</time>
      </trkpt>
      <trkpt lat="43.242286741733551025390625" lon="-1.63638244383037090301513671875">
        <ele>241.1999969482421875</ele>
        <time>2020-08-23T07:12:11.000Z</time>
      </trkpt>
      <trkpt lat="43.2422835566103458404541015625" lon="-1.63637456484138965606689453125">
        <ele>241.1999969482421875</ele>
        <time>2020-08-23T07:12:22.000Z</time>
      </trkpt>
      <trkpt lat="43.24225966818630695343017578125" lon="-1.6363495029509067535400390625">
        <ele>241.600006103515625</ele>
        <time>2020-08-23T07:12:26.000Z</time>
      </trkpt>
      <trkpt lat="43.24222580529749393463134765625" lon="-1.6363230161368846893310546875">
        <ele>242.1999969482421875</ele>
        <time>2020-08-23T07:12:32.000Z</time>
      </trkpt>
      <trkpt lat="43.24218540452420711517333984375" lon="-1.636301390826702117919921875">
        <ele>242.600006103515625</ele>
        <time>2020-08-23T07:12:39.000Z</time>
      </trkpt>
      <trkpt lat="43.2421658746898174285888671875" lon="-1.6362925060093402862548828125">
        <ele>243</ele>
        <time>2020-08-23T07:12:42.000Z</time>
      </trkpt>
      <trkpt lat="43.24212002567946910858154296875" lon="-1.63628940470516681671142578125">
        <ele>243.600006103515625</ele>
        <time>2020-08-23T07:12:49.000Z</time>
      </trkpt>
      <trkpt lat="43.2421075366437435150146484375" lon="-1.63629435002803802490234375">
        <ele>244.1999969482421875</ele>
        <time>2020-08-23T07:12:51.000Z</time>
      </trkpt>
      <trkpt lat="43.24207291938364505767822265625" lon="-1.63631446659564971923828125">
        <ele>245</ele>
        <time>2020-08-23T07:12:57.000Z</time>
      </trkpt>
      <trkpt lat="43.2420579157769680023193359375" lon="-1.63632092066109180450439453125">
        <ele>245</ele>
        <time>2020-08-23T07:12:59.000Z</time>
      </trkpt>
      <trkpt lat="43.2419958896934986114501953125" lon="-1.63632628507912158966064453125">
        <ele>245.8000030517578125</ele>
        <time>2020-08-23T07:13:07.000Z</time>
      </trkpt>
      <trkpt lat="43.241960518062114715576171875" lon="-1.6363256983458995819091796875">
        <ele>246.1999969482421875</ele>
        <time>2020-08-23T07:13:12.000Z</time>
      </trkpt>
      <trkpt lat="43.2419569976627826690673828125" lon="-1.6363233514130115509033203125">
        <ele>246.8000030517578125</ele>
        <time>2020-08-23T07:13:21.000Z</time>
      </trkpt>
      <trkpt lat="43.2419224642217159271240234375" lon="-1.6363240219652652740478515625">
        <ele>247</ele>
        <time>2020-08-23T07:13:26.000Z</time>
      </trkpt>
      <trkpt lat="43.24189840815961360931396484375" lon="-1.63632041774690151214599609375">
        <ele>247.1999969482421875</ele>
        <time>2020-08-23T07:13:29.000Z</time>
      </trkpt>
      <trkpt lat="43.24184342287480831146240234375" lon="-1.63631186820566654205322265625">
        <ele>248</ele>
        <time>2020-08-23T07:13:37.000Z</time>
      </trkpt>
      <trkpt lat="43.24183068238198757171630859375" lon="-1.63630750961601734161376953125">
        <ele>248.399993896484375</ele>
        <time>2020-08-23T07:13:39.000Z</time>
      </trkpt>
      <trkpt lat="43.24179179035127162933349609375" lon="-1.6362985409796237945556640625">
        <ele>249</ele>
        <time>2020-08-23T07:13:45.000Z</time>
      </trkpt>
      <trkpt lat="43.24177108705043792724609375" lon="-1.6362945176661014556884765625">
        <ele>249.399993896484375</ele>
        <time>2020-08-23T07:13:48.000Z</time>
      </trkpt>
      <trkpt lat="43.2417082227766513824462890625" lon="-1.63628420792520046234130859375">
        <ele>250</ele>
        <time>2020-08-23T07:13:57.000Z</time>
      </trkpt>
      <trkpt lat="43.241699673235416412353515625" lon="-1.6362814418971538543701171875">
        <ele>250.1999969482421875</ele>
        <time>2020-08-23T07:13:58.000Z</time>
      </trkpt>
      <trkpt lat="43.2416455261409282684326171875" lon="-1.636259146034717559814453125">
        <ele>251.1999969482421875</ele>
        <time>2020-08-23T07:14:06.000Z</time>
      </trkpt>
      <trkpt lat="43.24163756333291530609130859375" lon="-1.63625503890216350555419921875">
        <ele>251.1999969482421875</ele>
        <time>2020-08-23T07:14:07.000Z</time>
      </trkpt>
      <trkpt lat="43.24160789139568805694580078125" lon="-1.63621044717729091644287109375">
        <ele>251.8000030517578125</ele>
        <time>2020-08-23T07:14:15.000Z</time>
      </trkpt>
      <trkpt lat="43.24161149561405181884765625" lon="-1.63620592094957828521728515625">
        <ele>252.1999969482421875</ele>
        <time>2020-08-23T07:14:25.000Z</time>
      </trkpt>
      <trkpt lat="43.24161241762340068817138671875" lon="-1.63620583713054656982421875">
        <ele>252.1999969482421875</ele>
        <time>2020-08-23T07:14:40.000Z</time>
      </trkpt>
      <trkpt lat="43.24161224998533725738525390625" lon="-1.63620659150183200836181640625">
        <ele>252</ele>
        <time>2020-08-23T07:14:54.000Z</time>
      </trkpt>
      <trkpt lat="43.2416175305843353271484375" lon="-1.6362013109028339385986328125">
        <ele>252.1999969482421875</ele>
        <time>2020-08-23T07:14:55.000Z</time>
      </trkpt>
      <trkpt lat="43.2416522316634654998779296875" lon="-1.63617976941168308258056640625">
        <ele>252.399993896484375</ele>
        <time>2020-08-23T07:14:58.000Z</time>
      </trkpt>
      <trkpt lat="43.24167980812489986419677734375" lon="-1.6361694596707820892333984375">
        <ele>252.600006103515625</ele>
        <time>2020-08-23T07:15:00.000Z</time>
      </trkpt>
      <trkpt lat="43.24175742454826831817626953125" lon="-1.636141128838062286376953125">
        <ele>253.399993896484375</ele>
        <time>2020-08-23T07:15:06.000Z</time>
      </trkpt>
      <trkpt lat="43.2417695783078670501708984375" lon="-1.6361332498490810394287109375">
        <ele>253.399993896484375</ele>
        <time>2020-08-23T07:15:07.000Z</time>
      </trkpt>
      <trkpt lat="43.24184208177030086517333984375" lon="-1.63610567338764667510986328125">
        <ele>254.600006103515625</ele>
        <time>2020-08-23T07:15:13.000Z</time>
      </trkpt>
      <trkpt lat="43.2418544031679630279541015625" lon="-1.63610198535025119781494140625">
        <ele>254.8000030517578125</ele>
        <time>2020-08-23T07:15:14.000Z</time>
      </trkpt>
      <trkpt lat="43.24189052917063236236572265625" lon="-1.63608421571552753448486328125">
        <ele>255.8000030517578125</ele>
        <time>2020-08-23T07:15:17.000Z</time>
      </trkpt>
      <trkpt lat="43.24195205233991146087646484375" lon="-1.63605655543506145477294921875">
        <ele>256.79998779296875</ele>
        <time>2020-08-23T07:15:22.000Z</time>
      </trkpt>
      <trkpt lat="43.242029249668121337890625" lon="-1.636017747223377227783203125">
        <ele>258</ele>
        <time>2020-08-23T07:15:29.000Z</time>
      </trkpt>
      <trkpt lat="43.2420404814183712005615234375" lon="-1.63601338863372802734375">
        <ele>258</ele>
        <time>2020-08-23T07:15:30.000Z</time>
      </trkpt>
      <trkpt lat="43.24210636317729949951171875" lon="-1.6359703056514263153076171875">
        <ele>259.20001220703125</ele>
        <time>2020-08-23T07:15:36.000Z</time>
      </trkpt>
      <trkpt lat="43.242141567170619964599609375" lon="-1.63595546968281269073486328125">
        <ele>260</ele>
        <time>2020-08-23T07:15:39.000Z</time>
      </trkpt>
      <trkpt lat="43.2421638630330562591552734375" lon="-1.63594574667513370513916015625">
        <ele>260.399993896484375</ele>
        <time>2020-08-23T07:15:41.000Z</time>
      </trkpt>
      <trkpt lat="43.24224139563739299774169921875" lon="-1.635919176042079925537109375">
        <ele>261.600006103515625</ele>
        <time>2020-08-23T07:15:48.000Z</time>
      </trkpt>
      <trkpt lat="43.24228615500032901763916015625" lon="-1.63590216077864170074462890625">
        <ele>262.600006103515625</ele>
        <time>2020-08-23T07:15:52.000Z</time>
      </trkpt>
      <trkpt lat="43.242319934070110321044921875" lon="-1.6358864866197109222412109375">
        <ele>262.79998779296875</ele>
        <time>2020-08-23T07:15:55.000Z</time>
      </trkpt>
      <trkpt lat="43.24237458407878875732421875" lon="-1.6358630172908306121826171875">
        <ele>263.79998779296875</ele>
        <time>2020-08-23T07:16:00.000Z</time>
      </trkpt>
      <trkpt lat="43.24242127127945423126220703125" lon="-1.635868214070796966552734375">
        <ele>264.600006103515625</ele>
        <time>2020-08-23T07:16:04.000Z</time>
      </trkpt>
      <trkpt lat="43.2424434833228588104248046875" lon="-1.63586209528148174285888671875">
        <ele>265</ele>
        <time>2020-08-23T07:16:06.000Z</time>
      </trkpt>
      <trkpt lat="43.24249821715056896209716796875" lon="-1.6358455829322338104248046875">
        <ele>266</ele>
        <time>2020-08-23T07:16:11.000Z</time>
      </trkpt>
      <trkpt lat="43.2425192557275295257568359375" lon="-1.63584633730351924896240234375">
        <ele>266.399993896484375</ele>
        <time>2020-08-23T07:16:13.000Z</time>
      </trkpt>
      <trkpt lat="43.242551945149898529052734375" lon="-1.6358377039432525634765625">
        <ele>267</ele>
        <time>2020-08-23T07:16:16.000Z</time>
      </trkpt>
      <trkpt lat="43.24261874891817569732666015625" lon="-1.6358361952006816864013671875">
        <ele>268.399993896484375</ele>
        <time>2020-08-23T07:16:22.000Z</time>
      </trkpt>
      <trkpt lat="43.24268546886742115020751953125" lon="-1.635824628174304962158203125">
        <ele>269.399993896484375</ele>
        <time>2020-08-23T07:16:28.000Z</time>
      </trkpt>
      <trkpt lat="43.24270784854888916015625" lon="-1.635819934308528900146484375">
        <ele>269.79998779296875</ele>
        <time>2020-08-23T07:16:30.000Z</time>
      </trkpt>
      <trkpt lat="43.24273844249546527862548828125" lon="-1.63580618798732757568359375">
        <ele>270.399993896484375</ele>
        <time>2020-08-23T07:16:33.000Z</time>
      </trkpt>
      <trkpt lat="43.24278756044805049896240234375" lon="-1.63578213192522525787353515625">
        <ele>271.600006103515625</ele>
        <time>2020-08-23T07:16:38.000Z</time>
      </trkpt>
      <trkpt lat="43.24279828928411006927490234375" lon="-1.63578070700168609619140625">
        <ele>271.79998779296875</ele>
        <time>2020-08-23T07:16:39.000Z</time>
      </trkpt>
      <trkpt lat="43.2428196631371974945068359375" lon="-1.63578229956328868865966796875">
        <ele>272.20001220703125</ele>
        <time>2020-08-23T07:16:41.000Z</time>
      </trkpt>
      <trkpt lat="43.24284841306507587432861328125" lon="-1.6357652842998504638671875">
        <ele>272.79998779296875</ele>
        <time>2020-08-23T07:16:44.000Z</time>
      </trkpt>
      <trkpt lat="43.2428810186684131622314453125" lon="-1.6357557289302349090576171875">
        <ele>273.399993896484375</ele>
        <time>2020-08-23T07:16:47.000Z</time>
      </trkpt>
      <trkpt lat="43.2429021410644054412841796875" lon="-1.63574474863708019256591796875">
        <ele>274</ele>
        <time>2020-08-23T07:16:49.000Z</time>
      </trkpt>
      <trkpt lat="43.24292234145104885101318359375" lon="-1.635734103620052337646484375">
        <ele>274.20001220703125</ele>
        <time>2020-08-23T07:16:51.000Z</time>
      </trkpt>
      <trkpt lat="43.24296760372817516326904296875" lon="-1.63573184050619602203369140625">
        <ele>275</ele>
        <time>2020-08-23T07:16:55.000Z</time>
      </trkpt>
      <trkpt lat="43.24304035864770412445068359375" lon="-1.635702587664127349853515625">
        <ele>276.20001220703125</ele>
        <time>2020-08-23T07:17:02.000Z</time>
      </trkpt>
      <trkpt lat="43.2430506683886051177978515625" lon="-1.63569780997931957244873046875">
        <ele>276.399993896484375</ele>
        <time>2020-08-23T07:17:03.000Z</time>
      </trkpt>
      <trkpt lat="43.2431153766810894012451171875" lon="-1.63567098788917064666748046875">
        <ele>277.399993896484375</ele>
        <time>2020-08-23T07:17:09.000Z</time>
      </trkpt>
      <trkpt lat="43.24313633143901824951171875" lon="-1.63565690629184246063232421875">
        <ele>277.79998779296875</ele>
        <time>2020-08-23T07:17:11.000Z</time>
      </trkpt>
      <trkpt lat="43.24317581020295619964599609375" lon="-1.6356284916400909423828125">
        <ele>278.399993896484375</ele>
        <time>2020-08-23T07:17:15.000Z</time>
      </trkpt>
      <trkpt lat="43.24321855790913105010986328125" lon="-1.6356061957776546478271484375">
        <ele>279.20001220703125</ele>
        <time>2020-08-23T07:17:19.000Z</time>
      </trkpt>
      <trkpt lat="43.2432397641241550445556640625" lon="-1.63559907115995883941650390625">
        <ele>279.600006103515625</ele>
        <time>2020-08-23T07:17:21.000Z</time>
      </trkpt>
      <trkpt lat="43.2432885468006134033203125" lon="-1.63556604646146297454833984375">
        <ele>280.600006103515625</ele>
        <time>2020-08-23T07:17:26.000Z</time>
      </trkpt>
      <trkpt lat="43.24329751543700695037841796875" lon="-1.63555531762540340423583984375">
        <ele>280.79998779296875</ele>
        <time>2020-08-23T07:17:27.000Z</time>
      </trkpt>
      <trkpt lat="43.24331360869109630584716796875" lon="-1.63550871424376964569091796875">
        <ele>281.600006103515625</ele>
        <time>2020-08-23T07:17:30.000Z</time>
      </trkpt>
      <trkpt lat="43.2433423586189746856689453125" lon="-1.63544886745512485504150390625">
        <ele>282.79998779296875</ele>
        <time>2020-08-23T07:17:34.000Z</time>
      </trkpt>
      <trkpt lat="43.24336339719593524932861328125" lon="-1.6353896073997020721435546875">
        <ele>284.20001220703125</ele>
        <time>2020-08-23T07:17:38.000Z</time>
      </trkpt>
      <trkpt lat="43.2433584518730640411376953125" lon="-1.6353550739586353302001953125">
        <ele>284.79998779296875</ele>
        <time>2020-08-23T07:17:40.000Z</time>
      </trkpt>
      <trkpt lat="43.2433584518730640411376953125" lon="-1.63532280363142490386962890625">
        <ele>285.20001220703125</ele>
        <time>2020-08-23T07:17:42.000Z</time>
      </trkpt>
      <trkpt lat="43.24337043799459934234619140625" lon="-1.63527485914528369903564453125">
        <ele>286.20001220703125</ele>
        <time>2020-08-23T07:17:45.000Z</time>
      </trkpt>
      <trkpt lat="43.24337236583232879638671875" lon="-1.6352581791579723358154296875">
        <ele>286.399993896484375</ele>
        <time>2020-08-23T07:17:46.000Z</time>
      </trkpt>
      <trkpt lat="43.243372701108455657958984375" lon="-1.6352410800755023956298828125">
        <ele>286.600006103515625</ele>
        <time>2020-08-23T07:17:47.000Z</time>
      </trkpt>
      <trkpt lat="43.243376724421977996826171875" lon="-1.635154075920581817626953125">
        <ele>287.600006103515625</ele>
        <time>2020-08-23T07:17:52.000Z</time>
      </trkpt>
      <trkpt lat="43.24338334612548351287841796875" lon="-1.6351068019866943359375">
        <ele>288.399993896484375</ele>
        <time>2020-08-23T07:17:55.000Z</time>
      </trkpt>
      <trkpt lat="43.24338686652481555938720703125" lon="-1.63509079255163669586181640625">
        <ele>288.600006103515625</ele>
        <time>2020-08-23T07:17:56.000Z</time>
      </trkpt>
      <trkpt lat="43.2434161193668842315673828125" lon="-1.63501854054629802703857421875">
        <ele>289.600006103515625</ele>
        <time>2020-08-23T07:18:01.000Z</time>
      </trkpt>
      <trkpt lat="43.2434213161468505859375" lon="-1.635004542768001556396484375">
        <ele>289.79998779296875</ele>
        <time>2020-08-23T07:18:02.000Z</time>
      </trkpt>
      <trkpt lat="43.24345559813082218170166015625" lon="-1.6349353082478046417236328125">
        <ele>291</ele>
        <time>2020-08-23T07:18:07.000Z</time>
      </trkpt>
      <trkpt lat="43.24348879046738147735595703125" lon="-1.63488811813294887542724609375">
        <ele>291.79998779296875</ele>
        <time>2020-08-23T07:18:11.000Z</time>
      </trkpt>
      <trkpt lat="43.24350538663566112518310546875" lon="-1.6348622180521488189697265625">
        <ele>292.20001220703125</ele>
        <time>2020-08-23T07:18:13.000Z</time>
      </trkpt>
      <trkpt lat="43.2435421831905841827392578125" lon="-1.6348162852227687835693359375">
        <ele>293.20001220703125</ele>
        <time>2020-08-23T07:18:17.000Z</time>
      </trkpt>
      <trkpt lat="43.24356255121529102325439453125" lon="-1.63479910232126712799072265625">
        <ele>293.600006103515625</ele>
        <time>2020-08-23T07:18:19.000Z</time>
      </trkpt>
      <trkpt lat="43.2436077296733856201171875" lon="-1.6347737051546573638916015625">
        <ele>294.399993896484375</ele>
        <time>2020-08-23T07:18:23.000Z</time>
      </trkpt>
      <trkpt lat="43.2436358928680419921875" lon="-1.6347428597509860992431640625">
        <ele>294.79998779296875</ele>
        <time>2020-08-23T07:18:26.000Z</time>
      </trkpt>
      <trkpt lat="43.24365726672112941741943359375" lon="-1.6347294487059116363525390625">
        <ele>295.399993896484375</ele>
        <time>2020-08-23T07:18:28.000Z</time>
      </trkpt>
      <trkpt lat="43.24370353482663631439208984375" lon="-1.63470488972961902618408203125">
        <ele>295.79998779296875</ele>
        <time>2020-08-23T07:18:32.000Z</time>
      </trkpt>
      <trkpt lat="43.24372817762196063995361328125" lon="-1.634697429835796356201171875">
        <ele>296</ele>
        <time>2020-08-23T07:18:34.000Z</time>
      </trkpt>
      <trkpt lat="43.24380478821694850921630859375" lon="-1.63467027246952056884765625">
        <ele>296.399993896484375</ele>
        <time>2020-08-23T07:18:40.000Z</time>
      </trkpt>
      <trkpt lat="43.24384284205734729766845703125" lon="-1.6346521675586700439453125">
        <ele>297</ele>
        <time>2020-08-23T07:18:43.000Z</time>
      </trkpt>
      <trkpt lat="43.24389883317053318023681640625" lon="-1.63463766686618328094482421875">
        <ele>297.600006103515625</ele>
        <time>2020-08-23T07:18:47.000Z</time>
      </trkpt>
      <trkpt lat="43.2439612783491611480712890625" lon="-1.6346245072782039642333984375">
        <ele>298.20001220703125</ele>
        <time>2020-08-23T07:18:51.000Z</time>
      </trkpt>
      <trkpt lat="43.2440078817307949066162109375" lon="-1.63461863994598388671875">
        <ele>298.600006103515625</ele>
        <time>2020-08-23T07:18:54.000Z</time>
      </trkpt>
      <trkpt lat="43.24412128888070583343505859375" lon="-1.63460053503513336181640625">
        <ele>299.20001220703125</ele>
        <time>2020-08-23T07:19:01.000Z</time>
      </trkpt>
      <trkpt lat="43.244186080992221832275390625" lon="-1.63458167575299739837646484375">
        <ele>299.79998779296875</ele>
        <time>2020-08-23T07:19:05.000Z</time>
      </trkpt>
      <trkpt lat="43.24426713399589061737060546875" lon="-1.63457999937236309051513671875">
        <ele>300.399993896484375</ele>
        <time>2020-08-23T07:19:10.000Z</time>
      </trkpt>
      <trkpt lat="43.24430032633244991302490234375" lon="-1.63457237184047698974609375">
        <ele>300.79998779296875</ele>
        <time>2020-08-23T07:19:12.000Z</time>
      </trkpt>
      <trkpt lat="43.2444123923778533935546875" lon="-1.6345594637095928192138671875">
        <ele>301.600006103515625</ele>
        <time>2020-08-23T07:19:19.000Z</time>
      </trkpt>
      <trkpt lat="43.24445706792175769805908203125" lon="-1.63456834852695465087890625">
        <ele>302</ele>
        <time>2020-08-23T07:19:22.000Z</time>
      </trkpt>
      <trkpt lat="43.2445081137120723724365234375" lon="-1.634576059877872467041015625">
        <ele>302.20001220703125</ele>
        <time>2020-08-23T07:19:26.000Z</time>
      </trkpt>
      <trkpt lat="43.24450735934078693389892578125" lon="-1.63457371294498443603515625">
        <ele>302.20001220703125</ele>
        <time>2020-08-23T07:22:05.000Z</time>
      </trkpt>
      <trkpt lat="43.244539797306060791015625" lon="-1.63457044400274753570556640625">
        <ele>302.399993896484375</ele>
        <time>2020-08-23T07:22:11.000Z</time>
      </trkpt>
      <trkpt lat="43.24466125108301639556884765625" lon="-1.63458217866718769073486328125">
        <ele>302.399993896484375</ele>
        <time>2020-08-23T07:22:19.000Z</time>
      </trkpt>
      <trkpt lat="43.24474372901022434234619140625" lon="-1.6345993615686893463134765625">
        <ele>303</ele>
        <time>2020-08-23T07:22:24.000Z</time>
      </trkpt>
      <trkpt lat="43.24480877257883548736572265625" lon="-1.6346265189349651336669921875">
        <ele>303</ele>
        <time>2020-08-23T07:22:28.000Z</time>
      </trkpt>
      <trkpt lat="43.24496601708233356475830078125" lon="-1.634691059589385986328125">
        <ele>303</ele>
        <time>2020-08-23T07:22:36.000Z</time>
      </trkpt>
      <trkpt lat="43.24518512003123760223388671875" lon="-1.6347602941095829010009765625">
        <ele>302.20001220703125</ele>
        <time>2020-08-23T07:22:42.000Z</time>
      </trkpt>
      <trkpt lat="43.2452849484980106353759765625" lon="-1.6347773931920528411865234375">
        <ele>302</ele>
        <time>2020-08-23T07:22:45.000Z</time>
      </trkpt>
      <trkpt lat="43.2453607209026813507080078125" lon="-1.63479289971292018890380859375">
        <ele>301.399993896484375</ele>
        <time>2020-08-23T07:22:47.000Z</time>
      </trkpt>
      <trkpt lat="43.2454488985240459442138671875" lon="-1.634818129241466522216796875">
        <ele>300.600006103515625</ele>
        <time>2020-08-23T07:22:49.000Z</time>
      </trkpt>
      <trkpt lat="43.2456024549901485443115234375" lon="-1.63485760800540447235107421875">
        <ele>299.600006103515625</ele>
        <time>2020-08-23T07:22:52.000Z</time>
      </trkpt>
      <trkpt lat="43.24565802700817584991455078125" lon="-1.6348709352314472198486328125">
        <ele>299.399993896484375</ele>
        <time>2020-08-23T07:22:53.000Z</time>
      </trkpt>
      <trkpt lat="43.2457700930535793304443359375" lon="-1.63489826023578643798828125">
        <ele>298.20001220703125</ele>
        <time>2020-08-23T07:22:55.000Z</time>
      </trkpt>
      <trkpt lat="43.24598508886992931365966796875" lon="-1.6349487192928791046142578125">
        <ele>297</ele>
        <time>2020-08-23T07:22:59.000Z</time>
      </trkpt>
      <trkpt lat="43.24618273414671421051025390625" lon="-1.6350142657756805419921875">
        <ele>296</ele>
        <time>2020-08-23T07:23:03.000Z</time>
      </trkpt>
      <trkpt lat="43.2463226281106472015380859375" lon="-1.63509632460772991180419921875">
        <ele>295</ele>
        <time>2020-08-23T07:23:06.000Z</time>
      </trkpt>
      <trkpt lat="43.24636059813201427459716796875" lon="-1.6351478733122348785400390625">
        <ele>294.600006103515625</ele>
        <time>2020-08-23T07:23:07.000Z</time>
      </trkpt>
      <trkpt lat="43.24640904553234577178955078125" lon="-1.63528391160070896148681640625">
        <ele>293</ele>
        <time>2020-08-23T07:23:09.000Z</time>
      </trkpt>
      <trkpt lat="43.24648163281381130218505859375" lon="-1.63552321493625640869140625">
        <ele>292</ele>
        <time>2020-08-23T07:23:12.000Z</time>
      </trkpt>
      <trkpt lat="43.24651348404586315155029296875" lon="-1.63560527376830577850341796875">
        <ele>291.20001220703125</ele>
        <time>2020-08-23T07:23:13.000Z</time>
      </trkpt>
      <trkpt lat="43.2465539686381816864013671875" lon="-1.63568657822906970977783203125">
        <ele>290.399993896484375</ele>
        <time>2020-08-23T07:23:14.000Z</time>
      </trkpt>
      <trkpt lat="43.24665614403784275054931640625" lon="-1.63583460263907909393310546875">
        <ele>289</ele>
        <time>2020-08-23T07:23:16.000Z</time>
      </trkpt>
      <trkpt lat="43.24677097611129283905029296875" lon="-1.63597793318331241607666015625">
        <ele>287.79998779296875</ele>
        <time>2020-08-23T07:23:18.000Z</time>
      </trkpt>
      <trkpt lat="43.2468684576451778411865234375" lon="-1.63611489348113536834716796875">
        <ele>287.399993896484375</ele>
        <time>2020-08-23T07:23:20.000Z</time>
      </trkpt>
      <trkpt lat="43.24691548012197017669677734375" lon="-1.63624749518930912017822265625">
        <ele>288.399993896484375</ele>
        <time>2020-08-23T07:23:22.000Z</time>
      </trkpt>
      <trkpt lat="43.24692168273031711578369140625" lon="-1.63629778660833835601806640625">
        <ele>288.79998779296875</ele>
        <time>2020-08-23T07:23:23.000Z</time>
      </trkpt>
      <trkpt lat="43.24692017398774623870849609375" lon="-1.6363686136901378631591796875">
        <ele>289.399993896484375</ele>
        <time>2020-08-23T07:23:25.000Z</time>
      </trkpt>
      <trkpt lat="43.2469127140939235687255859375" lon="-1.636429131031036376953125">
        <ele>290</ele>
        <time>2020-08-23T07:23:27.000Z</time>
      </trkpt>
      <trkpt lat="43.24690257199108600616455078125" lon="-1.63651219569146633148193359375">
        <ele>291</ele>
        <time>2020-08-23T07:23:30.000Z</time>
      </trkpt>
      <trkpt lat="43.24688664637506008148193359375" lon="-1.6365855373442173004150390625">
        <ele>291.79998779296875</ele>
        <time>2020-08-23T07:23:33.000Z</time>
      </trkpt>
      <trkpt lat="43.246877677738666534423828125" lon="-1.6366304643452167510986328125">
        <ele>292.20001220703125</ele>
        <time>2020-08-23T07:23:35.000Z</time>
      </trkpt>
      <trkpt lat="43.2468666136264801025390625" lon="-1.6366938315331935882568359375">
        <ele>293.399993896484375</ele>
        <time>2020-08-23T07:23:38.000Z</time>
      </trkpt>
      <trkpt lat="43.246843479573726654052734375" lon="-1.636793576180934906005859375">
        <ele>294.399993896484375</ele>
        <time>2020-08-23T07:23:43.000Z</time>
      </trkpt>
      <trkpt lat="43.24684540741145610809326171875" lon="-1.63686993531882762908935546875">
        <ele>295.399993896484375</ele>
        <time>2020-08-23T07:23:47.000Z</time>
      </trkpt>
      <trkpt lat="43.2468439824879169464111328125" lon="-1.6369239985942840576171875">
        <ele>296.20001220703125</ele>
        <time>2020-08-23T07:23:50.000Z</time>
      </trkpt>
      <trkpt lat="43.24684289284050464630126953125" lon="-1.63694235496222972869873046875">
        <ele>296.600006103515625</ele>
        <time>2020-08-23T07:23:51.000Z</time>
      </trkpt>
      <trkpt lat="43.246847502887248992919921875" lon="-1.6369781456887722015380859375">
        <ele>297.20001220703125</ele>
        <time>2020-08-23T07:23:53.000Z</time>
      </trkpt>
      <trkpt lat="43.246862925589084625244140625" lon="-1.63702785037457942962646484375">
        <ele>297.79998779296875</ele>
        <time>2020-08-23T07:23:56.000Z</time>
      </trkpt>
      <trkpt lat="43.24686636216938495635986328125" lon="-1.63704595528542995452880859375">
        <ele>298</ele>
        <time>2020-08-23T07:23:57.000Z</time>
      </trkpt>
      <trkpt lat="43.24686921201646327972412109375" lon="-1.637099683284759521484375">
        <ele>298.79998779296875</ele>
        <time>2020-08-23T07:24:00.000Z</time>
      </trkpt>
      <trkpt lat="43.24687725864350795745849609375" lon="-1.637191884219646453857421875">
        <ele>299.79998779296875</ele>
        <time>2020-08-23T07:24:05.000Z</time>
      </trkpt>
      <trkpt lat="43.246878348290920257568359375" lon="-1.6372114978730678558349609375">
        <ele>300</ele>
        <time>2020-08-23T07:24:06.000Z</time>
      </trkpt>
      <trkpt lat="43.2468754984438419342041015625" lon="-1.63728768937289714813232421875">
        <ele>300.79998779296875</ele>
        <time>2020-08-23T07:24:10.000Z</time>
      </trkpt>
      <trkpt lat="43.2468875683844089508056640625" lon="-1.637381650507450103759765625">
        <ele>302</ele>
        <time>2020-08-23T07:24:15.000Z</time>
      </trkpt>
      <trkpt lat="43.24687424115836620330810546875" lon="-1.63749673403799533843994140625">
        <ele>303.20001220703125</ele>
        <time>2020-08-23T07:24:21.000Z</time>
      </trkpt>
      <trkpt lat="43.2468714751303195953369140625" lon="-1.6375551559031009674072265625">
        <ele>303.79998779296875</ele>
        <time>2020-08-23T07:24:24.000Z</time>
      </trkpt>
      <trkpt lat="43.24686887674033641815185546875" lon="-1.6375920362770557403564453125">
        <ele>304.399993896484375</ele>
        <time>2020-08-23T07:24:26.000Z</time>
      </trkpt>
      <trkpt lat="43.2468624226748943328857421875" lon="-1.63767878897488117218017578125">
        <ele>305.20001220703125</ele>
        <time>2020-08-23T07:24:31.000Z</time>
      </trkpt>
      <trkpt lat="43.24686183594167232513427734375" lon="-1.6376983188092708587646484375">
        <ele>305.399993896484375</ele>
        <time>2020-08-23T07:24:32.000Z</time>
      </trkpt>
      <trkpt lat="43.24684188701212406158447265625" lon="-1.63782513700425624847412109375">
        <ele>306.399993896484375</ele>
        <time>2020-08-23T07:24:39.000Z</time>
      </trkpt>
      <trkpt lat="43.2468389533460140228271484375" lon="-1.6378448344767093658447265625">
        <ele>306.600006103515625</ele>
        <time>2020-08-23T07:24:40.000Z</time>
      </trkpt>
      <trkpt lat="43.2468332536518573760986328125" lon="-1.63794784806668758392333984375">
        <ele>307.600006103515625</ele>
        <time>2020-08-23T07:24:45.000Z</time>
      </trkpt>
      <trkpt lat="43.24683182872831821441650390625" lon="-1.6379692219197750091552734375">
        <ele>307.79998779296875</ele>
        <time>2020-08-23T07:24:46.000Z</time>
      </trkpt>
      <trkpt lat="43.2468312419950962066650390625" lon="-1.63807156495749950408935546875">
        <ele>308.399993896484375</ele>
        <time>2020-08-23T07:24:52.000Z</time>
      </trkpt>
      <trkpt lat="43.24683434329926967620849609375" lon="-1.6381202638149261474609375">
        <ele>308.79998779296875</ele>
        <time>2020-08-23T07:24:55.000Z</time>
      </trkpt>
      <trkpt lat="43.24684339575469493865966796875" lon="-1.6381739079952239990234375">
        <ele>309.600006103515625</ele>
        <time>2020-08-23T07:24:58.000Z</time>
      </trkpt>
      <trkpt lat="43.24684306047856807708740234375" lon="-1.63818824104964733123779296875">
        <ele>309.79998779296875</ele>
        <time>2020-08-23T07:24:59.000Z</time>
      </trkpt>
      <trkpt lat="43.24684180319309234619140625" lon="-1.63821481168270111083984375">
        <ele>310</ele>
        <time>2020-08-23T07:25:01.000Z</time>
      </trkpt>
      <trkpt lat="43.2468416355550289154052734375" lon="-1.6382409632205963134765625">
        <ele>310.20001220703125</ele>
        <time>2020-08-23T07:25:03.000Z</time>
      </trkpt>
      <trkpt lat="43.24683316983282566070556640625" lon="-1.638320423662662506103515625">
        <ele>311</ele>
        <time>2020-08-23T07:25:08.000Z</time>
      </trkpt>
      <trkpt lat="43.24682964943349361419677734375" lon="-1.6383537836372852325439453125">
        <ele>311.600006103515625</ele>
        <time>2020-08-23T07:25:10.000Z</time>
      </trkpt>
      <trkpt lat="43.2468238659203052520751953125" lon="-1.63838504813611507415771484375">
        <ele>312</ele>
        <time>2020-08-23T07:25:12.000Z</time>
      </trkpt>
      <trkpt lat="43.2468236982822418212890625" lon="-1.63845780305564403533935546875">
        <ele>312.79998779296875</ele>
        <time>2020-08-23T07:25:16.000Z</time>
      </trkpt>
      <trkpt lat="43.24682034552097320556640625" lon="-1.63847305811941623687744140625">
        <ele>312.79998779296875</ele>
        <time>2020-08-23T07:25:17.000Z</time>
      </trkpt>
      <trkpt lat="43.24681690894067287445068359375" lon="-1.638494431972503662109375">
        <ele>313</ele>
        <time>2020-08-23T07:25:18.000Z</time>
      </trkpt>
      <trkpt lat="43.24681632220745086669921875" lon="-1.63851798512041568756103515625">
        <ele>313.20001220703125</ele>
        <time>2020-08-23T07:25:19.000Z</time>
      </trkpt>
      <trkpt lat="43.246805928647518157958984375" lon="-1.63859409280121326446533203125">
        <ele>314</ele>
        <time>2020-08-23T07:25:23.000Z</time>
      </trkpt>
      <trkpt lat="43.24679494835436344146728515625" lon="-1.638641618192195892333984375">
        <ele>314.20001220703125</ele>
        <time>2020-08-23T07:25:25.000Z</time>
      </trkpt>
      <trkpt lat="43.24677198193967342376708984375" lon="-1.63872451521456241607666015625">
        <ele>315.20001220703125</ele>
        <time>2020-08-23T07:25:29.000Z</time>
      </trkpt>
      <trkpt lat="43.2467655278742313385009765625" lon="-1.638741195201873779296875">
        <ele>315.20001220703125</ele>
        <time>2020-08-23T07:25:30.000Z</time>
      </trkpt>
      <trkpt lat="43.2467484287917613983154296875" lon="-1.6388261877000331878662109375">
        <ele>316</ele>
        <time>2020-08-23T07:25:34.000Z</time>
      </trkpt>
      <trkpt lat="43.246744573116302490234375" lon="-1.63884689100086688995361328125">
        <ele>316.20001220703125</ele>
        <time>2020-08-23T07:25:35.000Z</time>
      </trkpt>
      <trkpt lat="43.2467423938214778900146484375" lon="-1.638864912092685699462890625">
        <ele>316.399993896484375</ele>
        <time>2020-08-23T07:25:36.000Z</time>
      </trkpt>
      <trkpt lat="43.2467271387577056884765625" lon="-1.63895912468433380126953125">
        <ele>317.20001220703125</ele>
        <time>2020-08-23T07:25:41.000Z</time>
      </trkpt>
      <trkpt lat="43.24672437272965908050537109375" lon="-1.6389790736138820648193359375">
        <ele>317.399993896484375</ele>
        <time>2020-08-23T07:25:42.000Z</time>
      </trkpt>
      <trkpt lat="43.246718086302280426025390625" lon="-1.6390457935631275177001953125">
        <ele>318.399993896484375</ele>
        <time>2020-08-23T07:25:46.000Z</time>
      </trkpt>
      <trkpt lat="43.2467195950448513031005859375" lon="-1.63906213827431201934814453125">
        <ele>318.399993896484375</ele>
        <time>2020-08-23T07:25:47.000Z</time>
      </trkpt>
      <trkpt lat="43.24671062640845775604248046875" lon="-1.6391292773187160491943359375">
        <ele>319.20001220703125</ele>
        <time>2020-08-23T07:25:51.000Z</time>
      </trkpt>
      <trkpt lat="43.2467043399810791015625" lon="-1.6391609609127044677734375">
        <ele>319.79998779296875</ele>
        <time>2020-08-23T07:25:53.000Z</time>
      </trkpt>
      <trkpt lat="43.246697969734668731689453125" lon="-1.6392325423657894134521484375">
        <ele>320.79998779296875</ele>
        <time>2020-08-23T07:25:58.000Z</time>
      </trkpt>
      <trkpt lat="43.24666938744485378265380859375" lon="-1.6393123380839824676513671875">
        <ele>321.79998779296875</ele>
        <time>2020-08-23T07:26:03.000Z</time>
      </trkpt>
      <trkpt lat="43.24665279127657413482666015625" lon="-1.6393478773534297943115234375">
        <ele>322</ele>
        <time>2020-08-23T07:26:05.000Z</time>
      </trkpt>
      <trkpt lat="43.24659545905888080596923828125" lon="-1.63951777853071689605712890625">
        <ele>322.79998779296875</ele>
        <time>2020-08-23T07:26:13.000Z</time>
      </trkpt>
      <trkpt lat="43.24658699333667755126953125" lon="-1.639537811279296875">
        <ele>323</ele>
        <time>2020-08-23T07:26:14.000Z</time>
      </trkpt>
      <trkpt lat="43.2465447485446929931640625" lon="-1.63969396613538265228271484375">
        <ele>323.79998779296875</ele>
        <time>2020-08-23T07:26:21.000Z</time>
      </trkpt>
      <trkpt lat="43.2465392164885997772216796875" lon="-1.63973906077444553375244140625">
        <ele>324.20001220703125</ele>
        <time>2020-08-23T07:26:23.000Z</time>
      </trkpt>
      <trkpt lat="43.2465429045259952545166015625" lon="-1.63987484760582447052001953125">
        <ele>325.399993896484375</ele>
        <time>2020-08-23T07:26:29.000Z</time>
      </trkpt>
      <trkpt lat="43.24654567055404186248779296875" lon="-1.639918349683284759521484375">
        <ele>325.600006103515625</ele>
        <time>2020-08-23T07:26:31.000Z</time>
      </trkpt>
      <trkpt lat="43.24657517485320568084716796875" lon="-1.6400291584432125091552734375">
        <ele>326.399993896484375</ele>
        <time>2020-08-23T07:26:38.000Z</time>
      </trkpt>
      <trkpt lat="43.24657433666288852691650390625" lon="-1.64003142155706882476806640625">
        <ele>326.20001220703125</ele>
        <time>2020-08-23T07:26:43.000Z</time>
      </trkpt>
      <trkpt lat="43.2465742528438568115234375" lon="-1.6400271467864513397216796875">
        <ele>326.20001220703125</ele>
        <time>2020-08-23T07:26:56.000Z</time>
      </trkpt>
      <trkpt lat="43.24657433666288852691650390625" lon="-1.6400273144245147705078125">
        <ele>326.399993896484375</ele>
        <time>2020-08-23T07:26:57.000Z</time>
      </trkpt>
      <trkpt lat="43.24657634831964969635009765625" lon="-1.6400294937193393707275390625">
        <ele>326.20001220703125</ele>
        <time>2020-08-23T07:27:19.000Z</time>
      </trkpt>
      <trkpt lat="43.246615827083587646484375" lon="-1.64001666940748691558837890625">
        <ele>326.20001220703125</ele>
        <time>2020-08-23T07:27:25.000Z</time>
      </trkpt>
      <trkpt lat="43.246680200099945068359375" lon="-1.6399258933961391448974609375">
        <ele>326.79998779296875</ele>
        <time>2020-08-23T07:27:32.000Z</time>
      </trkpt>
      <trkpt lat="43.24670501053333282470703125" lon="-1.63990468718111515045166015625">
        <ele>327.20001220703125</ele>
        <time>2020-08-23T07:27:34.000Z</time>
      </trkpt>
      <trkpt lat="43.246770389378070831298828125" lon="-1.639827154576778411865234375">
        <ele>328.399993896484375</ele>
        <time>2020-08-23T07:27:40.000Z</time>
      </trkpt>
      <trkpt lat="43.2468590699136257171630859375" lon="-1.63977510295808315277099609375">
        <ele>329.399993896484375</ele>
        <time>2020-08-23T07:27:47.000Z</time>
      </trkpt>
      <trkpt lat="43.24695303104817867279052734375" lon="-1.63973629474639892578125">
        <ele>330.399993896484375</ele>
        <time>2020-08-23T07:27:54.000Z</time>
      </trkpt>
      <trkpt lat="43.2470166496932506561279296875" lon="-1.63970285095274448394775390625">
        <ele>331.399993896484375</ele>
        <time>2020-08-23T07:27:59.000Z</time>
      </trkpt>
      <trkpt lat="43.24707088060677051544189453125" lon="-1.63967871107161045074462890625">
        <ele>332</ele>
        <time>2020-08-23T07:28:03.000Z</time>
      </trkpt>
      <trkpt lat="43.247131146490573883056640625" lon="-1.6396590135991573333740234375">
        <ele>332.399993896484375</ele>
        <time>2020-08-23T07:28:07.000Z</time>
      </trkpt>
      <trkpt lat="43.2472117803990840911865234375" lon="-1.63964283652603626251220703125">
        <ele>333</ele>
        <time>2020-08-23T07:28:12.000Z</time>
      </trkpt>
      <trkpt lat="43.24724421836435794830322265625" lon="-1.63963730446994304656982421875">
        <ele>333.600006103515625</ele>
        <time>2020-08-23T07:28:14.000Z</time>
      </trkpt>
      <trkpt lat="43.24734396301209926605224609375" lon="-1.6396321915090084075927734375">
        <ele>334</ele>
        <time>2020-08-23T07:28:20.000Z</time>
      </trkpt>
      <trkpt lat="43.2474085874855518341064453125" lon="-1.63963730446994304656982421875">
        <ele>334.600006103515625</ele>
        <time>2020-08-23T07:28:24.000Z</time>
      </trkpt>
      <trkpt lat="43.24747371487319469451904296875" lon="-1.63963730446994304656982421875">
        <ele>335.399993896484375</ele>
        <time>2020-08-23T07:28:28.000Z</time>
      </trkpt>
      <trkpt lat="43.2475376687943935394287109375" lon="-1.63965649902820587158203125">
        <ele>335.79998779296875</ele>
        <time>2020-08-23T07:28:32.000Z</time>
      </trkpt>
      <trkpt lat="43.24756826274096965789794921875" lon="-1.639664880931377410888671875">
        <ele>336.399993896484375</ele>
        <time>2020-08-23T07:28:34.000Z</time>
      </trkpt>
      <trkpt lat="43.24759877286851406097412109375" lon="-1.639679633080959320068359375">
        <ele>336.79998779296875</ele>
        <time>2020-08-23T07:28:36.000Z</time>
      </trkpt>
      <trkpt lat="43.247695080935955047607421875" lon="-1.63972355425357818603515625">
        <ele>338</ele>
        <time>2020-08-23T07:28:42.000Z</time>
      </trkpt>
      <trkpt lat="43.2477113418281078338623046875" lon="-1.6397300921380519866943359375">
        <ele>338.20001220703125</ele>
        <time>2020-08-23T07:28:43.000Z</time>
      </trkpt>
      <trkpt lat="43.247740007936954498291015625" lon="-1.6397483646869659423828125">
        <ele>339.20001220703125</ele>
        <time>2020-08-23T07:28:45.000Z</time>
      </trkpt>
      <trkpt lat="43.24777395464479923248291015625" lon="-1.63976437412202358245849609375">
        <ele>340.20001220703125</ele>
        <time>2020-08-23T07:28:49.000Z</time>
      </trkpt>
      <trkpt lat="43.24777387082576751708984375" lon="-1.63976789452135562896728515625">
        <ele>340.20001220703125</ele>
        <time>2020-08-23T07:28:52.000Z</time>
      </trkpt>
      <trkpt lat="43.2477794028818607330322265625" lon="-1.63975850678980350494384765625">
        <ele>340.399993896484375</ele>
        <time>2020-08-23T07:28:56.000Z</time>
      </trkpt>
      <trkpt lat="43.24778971262276172637939453125" lon="-1.639756746590137481689453125">
        <ele>340.600006103515625</ele>
        <time>2020-08-23T07:29:02.000Z</time>
      </trkpt>
      <trkpt lat="43.24783430434763431549072265625" lon="-1.63977024145424365997314453125">
        <ele>341</ele>
        <time>2020-08-23T07:29:07.000Z</time>
      </trkpt>
      <trkpt lat="43.24787579476833343505859375" lon="-1.639781557023525238037109375">
        <ele>341.399993896484375</ele>
        <time>2020-08-23T07:29:10.000Z</time>
      </trkpt>
      <trkpt lat="43.24794846586883068084716796875" lon="-1.63980879820883274078369140625">
        <ele>342.399993896484375</ele>
        <time>2020-08-23T07:29:15.000Z</time>
      </trkpt>
      <trkpt lat="43.2479651458561420440673828125" lon="-1.6398139111697673797607421875">
        <ele>342.600006103515625</ele>
        <time>2020-08-23T07:29:16.000Z</time>
      </trkpt>
      <trkpt lat="43.2480747811496257781982421875" lon="-1.639833860099315643310546875">
        <ele>343.600006103515625</ele>
        <time>2020-08-23T07:29:23.000Z</time>
      </trkpt>
      <trkpt lat="43.24813353829085826873779296875" lon="-1.6398403979837894439697265625">
        <ele>344.79998779296875</ele>
        <time>2020-08-23T07:29:27.000Z</time>
      </trkpt>
      <trkpt lat="43.2482310198247432708740234375" lon="-1.63982355035841464996337890625">
        <ele>345.79998779296875</ele>
        <time>2020-08-23T07:29:34.000Z</time>
      </trkpt>
      <trkpt lat="43.2482447661459445953369140625" lon="-1.63981935940682888031005859375">
        <ele>345.79998779296875</ele>
        <time>2020-08-23T07:29:35.000Z</time>
      </trkpt>
      <trkpt lat="43.2483124919235706329345703125" lon="-1.6397968120872974395751953125">
        <ele>346.79998779296875</ele>
        <time>2020-08-23T07:29:40.000Z</time>
      </trkpt>
      <trkpt lat="43.24837334454059600830078125" lon="-1.63976722396910190582275390625">
        <ele>347.79998779296875</ele>
        <time>2020-08-23T07:29:45.000Z</time>
      </trkpt>
      <trkpt lat="43.2483808882534503936767578125" lon="-1.63975951261818408966064453125">
        <ele>348</ele>
        <time>2020-08-23T07:29:46.000Z</time>
      </trkpt>
      <trkpt lat="43.2483882643282413482666015625" lon="-1.639750041067600250244140625">
        <ele>348.20001220703125</ele>
        <time>2020-08-23T07:29:53.000Z</time>
      </trkpt>
      <trkpt lat="43.248386420309543609619140625" lon="-1.6397495381534099578857421875">
        <ele>348.399993896484375</ele>
        <time>2020-08-23T07:30:20.000Z</time>
      </trkpt>
      <trkpt lat="43.2483865879476070404052734375" lon="-1.6397508792579174041748046875">
        <ele>348</ele>
        <time>2020-08-23T07:30:51.000Z</time>
      </trkpt>
      <trkpt lat="43.24838667176663875579833984375" lon="-1.6397522203624248504638671875">
        <ele>348</ele>
        <time>2020-08-23T07:31:29.000Z</time>
      </trkpt>
      <trkpt lat="43.24838616885244846343994140625" lon="-1.639752052724361419677734375">
        <ele>348</ele>
        <time>2020-08-23T07:31:39.000Z</time>
      </trkpt>
      <trkpt lat="43.24838683940470218658447265625" lon="-1.6397344507277011871337890625">
        <ele>348</ele>
        <time>2020-08-23T07:31:42.000Z</time>
      </trkpt>
      <trkpt lat="43.2483738474547863006591796875" lon="-1.6397029347717761993408203125">
        <ele>348</ele>
        <time>2020-08-23T07:31:44.000Z</time>
      </trkpt>
      <trkpt lat="43.24832062236964702606201171875" lon="-1.63968105800449848175048828125">
        <ele>348.399993896484375</ele>
        <time>2020-08-23T07:31:48.000Z</time>
      </trkpt>
      <trkpt lat="43.248306624591350555419921875" lon="-1.63968256674706935882568359375">
        <ele>348.79998779296875</ele>
        <time>2020-08-23T07:31:49.000Z</time>
      </trkpt>
      <trkpt lat="43.2482135854661464691162109375" lon="-1.6396811418235301971435546875">
        <ele>350</ele>
        <time>2020-08-23T07:31:55.000Z</time>
      </trkpt>
      <trkpt lat="43.24816723354160785675048828125" lon="-1.63965825922787189483642578125">
        <ele>350.399993896484375</ele>
        <time>2020-08-23T07:31:58.000Z</time>
      </trkpt>
      <trkpt lat="43.24813839979469776153564453125" lon="-1.63963881321251392364501953125">
        <ele>351</ele>
        <time>2020-08-23T07:32:00.000Z</time>
      </trkpt>
      <trkpt lat="43.24804653413593769073486328125" lon="-1.63957343436777591705322265625">
        <ele>351.79998779296875</ele>
        <time>2020-08-23T07:32:07.000Z</time>
      </trkpt>
      <trkpt lat="43.2480333745479583740234375" lon="-1.6395641304552555084228515625">
        <ele>352.20001220703125</ele>
        <time>2020-08-23T07:32:08.000Z</time>
      </trkpt>
      <trkpt lat="43.24794293381273746490478515625" lon="-1.63949565030634403228759765625">
        <ele>352.79998779296875</ele>
        <time>2020-08-23T07:32:15.000Z</time>
      </trkpt>
      <trkpt lat="43.24791912920773029327392578125" lon="-1.6394749470055103302001953125">
        <ele>353.20001220703125</ele>
        <time>2020-08-23T07:32:17.000Z</time>
      </trkpt>
      <trkpt lat="43.24785660021007061004638671875" lon="-1.6394169442355632781982421875">
        <ele>353.79998779296875</ele>
        <time>2020-08-23T07:32:22.000Z</time>
      </trkpt>
      <trkpt lat="43.247813768684864044189453125" lon="-1.63937218487262725830078125">
        <ele>354.600006103515625</ele>
        <time>2020-08-23T07:32:26.000Z</time>
      </trkpt>
      <trkpt lat="43.24774612672626972198486328125" lon="-1.6392989270389080047607421875">
        <ele>355.20001220703125</ele>
        <time>2020-08-23T07:32:32.000Z</time>
      </trkpt>
      <trkpt lat="43.24773539789021015167236328125" lon="-1.6392861865460872650146484375">
        <ele>355.399993896484375</ele>
        <time>2020-08-23T07:32:33.000Z</time>
      </trkpt>
      <trkpt lat="43.24765317142009735107421875" lon="-1.63918367587029933929443359375">
        <ele>356.20001220703125</ele>
        <time>2020-08-23T07:32:41.000Z</time>
      </trkpt>
      <trkpt lat="43.24763531796634197235107421875" lon="-1.63915668614208698272705078125">
        <ele>356.399993896484375</ele>
        <time>2020-08-23T07:32:43.000Z</time>
      </trkpt>
      <trkpt lat="43.24758100323379039764404296875" lon="-1.638997010886669158935546875">
        <ele>357.399993896484375</ele>
        <time>2020-08-23T07:32:51.000Z</time>
      </trkpt>
      <trkpt lat="43.24756675399839878082275390625" lon="-1.63893364369869232177734375">
        <ele>358.79998779296875</ele>
        <time>2020-08-23T07:32:54.000Z</time>
      </trkpt>
      <trkpt lat="43.2475532591342926025390625" lon="-1.6388452984392642974853515625">
        <ele>360.20001220703125</ele>
        <time>2020-08-23T07:32:58.000Z</time>
      </trkpt>
      <trkpt lat="43.24754948727786540985107421875" lon="-1.6387986950576305389404296875">
        <ele>360.600006103515625</ele>
        <time>2020-08-23T07:33:00.000Z</time>
      </trkpt>
      <trkpt lat="43.2475450448691844940185546875" lon="-1.6387484036386013031005859375">
        <ele>361.20001220703125</ele>
        <time>2020-08-23T07:33:02.000Z</time>
      </trkpt>
      <trkpt lat="43.24754563160240650177001953125" lon="-1.63867539726197719573974609375">
        <ele>362.20001220703125</ele>
        <time>2020-08-23T07:33:05.000Z</time>
      </trkpt>
      <trkpt lat="43.24755753390491008758544921875" lon="-1.63858705200254917144775390625">
        <ele>363.399993896484375</ele>
        <time>2020-08-23T07:33:09.000Z</time>
      </trkpt>
      <trkpt lat="43.24756775982677936553955078125" lon="-1.63852351717650890350341796875">
        <ele>364.399993896484375</ele>
        <time>2020-08-23T07:33:12.000Z</time>
      </trkpt>
      <trkpt lat="43.24757664464414119720458984375" lon="-1.63849107921123504638671875">
        <ele>365.20001220703125</ele>
        <time>2020-08-23T07:33:14.000Z</time>
      </trkpt>
      <trkpt lat="43.24757982976734638214111328125" lon="-1.6384758241474628448486328125">
        <ele>365.600006103515625</ele>
        <time>2020-08-23T07:33:15.000Z</time>
      </trkpt>
      <trkpt lat="43.2476030476391315460205078125" lon="-1.63840633817017078399658203125">
        <ele>366.79998779296875</ele>
        <time>2020-08-23T07:33:19.000Z</time>
      </trkpt>
      <trkpt lat="43.24762945063412189483642578125" lon="-1.63835168816149234771728515625">
        <ele>367.20001220703125</ele>
        <time>2020-08-23T07:33:23.000Z</time>
      </trkpt>
      <trkpt lat="43.2476525008678436279296875" lon="-1.638314388692378997802734375">
        <ele>367.79998779296875</ele>
        <time>2020-08-23T07:33:26.000Z</time>
      </trkpt>
      <trkpt lat="43.247682340443134307861328125" lon="-1.63826451636850833892822265625">
        <ele>368.399993896484375</ele>
        <time>2020-08-23T07:33:30.000Z</time>
      </trkpt>
      <trkpt lat="43.247721903026103973388671875" lon="-1.6382257081568241119384765625">
        <ele>368.79998779296875</ele>
        <time>2020-08-23T07:33:34.000Z</time>
      </trkpt>
      <trkpt lat="43.24775777757167816162109375" lon="-1.638183631002902984619140625">
        <ele>369.399993896484375</ele>
        <time>2020-08-23T07:33:38.000Z</time>
      </trkpt>
      <trkpt lat="43.247801698744297027587890625" lon="-1.63812696933746337890625">
        <ele>370.20001220703125</ele>
        <time>2020-08-23T07:33:43.000Z</time>
      </trkpt>
      <trkpt lat="43.24781754054129123687744140625" lon="-1.63809905759990215301513671875">
        <ele>370.399993896484375</ele>
        <time>2020-08-23T07:33:45.000Z</time>
      </trkpt>
      <trkpt lat="43.24784536845982074737548828125" lon="-1.63805312477052211761474609375">
        <ele>371</ele>
        <time>2020-08-23T07:33:48.000Z</time>
      </trkpt>
      <trkpt lat="43.24790219776332378387451171875" lon="-1.63796494714915752410888671875">
        <ele>372.399993896484375</ele>
        <time>2020-08-23T07:33:54.000Z</time>
      </trkpt>
      <trkpt lat="43.24791694991290569305419921875" lon="-1.6379333473742008209228515625">
        <ele>372.600006103515625</ele>
        <time>2020-08-23T07:33:56.000Z</time>
      </trkpt>
      <trkpt lat="43.2479708455502986907958984375" lon="-1.63782991468906402587890625">
        <ele>373.399993896484375</ele>
        <time>2020-08-23T07:34:03.000Z</time>
      </trkpt>
      <trkpt lat="43.24799573980271816253662109375" lon="-1.63778926245868206024169921875">
        <ele>373.79998779296875</ele>
        <time>2020-08-23T07:34:06.000Z</time>
      </trkpt>
      <trkpt lat="43.24801392853260040283203125" lon="-1.63776244036853313446044921875">
        <ele>374.20001220703125</ele>
        <time>2020-08-23T07:34:08.000Z</time>
      </trkpt>
      <trkpt lat="43.2480224780738353729248046875" lon="-1.63774986751377582550048828125">
        <ele>374.600006103515625</ele>
        <time>2020-08-23T07:34:09.000Z</time>
      </trkpt>
      <trkpt lat="43.24805055744946002960205078125" lon="-1.63770393468439579010009765625">
        <ele>375.20001220703125</ele>
        <time>2020-08-23T07:34:12.000Z</time>
      </trkpt>
      <trkpt lat="43.2480764575302600860595703125" lon="-1.6376523859798908233642578125">
        <ele>375.79998779296875</ele>
        <time>2020-08-23T07:34:15.000Z</time>
      </trkpt>
      <trkpt lat="43.248096071183681488037109375" lon="-1.6376014240086078643798828125">
        <ele>376.600006103515625</ele>
        <time>2020-08-23T07:34:19.000Z</time>
      </trkpt>
      <trkpt lat="43.24809481389820575714111328125" lon="-1.63760033436119556427001953125">
        <ele>376.79998779296875</ele>
        <time>2020-08-23T07:34:21.000Z</time>
      </trkpt>
      <trkpt lat="43.2480969093739986419677734375" lon="-1.63759882561862468719482421875">
        <ele>377.20001220703125</ele>
        <time>2020-08-23T07:34:33.000Z</time>
      </trkpt>
      <trkpt lat="43.2481307722628116607666015625" lon="-1.63754669018089771270751953125">
        <ele>377.399993896484375</ele>
        <time>2020-08-23T07:34:40.000Z</time>
      </trkpt>
      <trkpt lat="43.24817410670220851898193359375" lon="-1.6374659724533557891845703125">
        <ele>378</ele>
        <time>2020-08-23T07:34:45.000Z</time>
      </trkpt>
      <trkpt lat="43.24823328293859958648681640625" lon="-1.63737393915653228759765625">
        <ele>379</ele>
        <time>2020-08-23T07:34:51.000Z</time>
      </trkpt>
      <trkpt lat="43.248242922127246856689453125" lon="-1.63735843263566493988037109375">
        <ele>379.20001220703125</ele>
        <time>2020-08-23T07:34:52.000Z</time>
      </trkpt>
      <trkpt lat="43.2482900284230709075927734375" lon="-1.6372802294790744781494140625">
        <ele>380.20001220703125</ele>
        <time>2020-08-23T07:34:57.000Z</time>
      </trkpt>
      <trkpt lat="43.24832196347415447235107421875" lon="-1.63723655976355075836181640625">
        <ele>381</ele>
        <time>2020-08-23T07:35:00.000Z</time>
      </trkpt>
      <trkpt lat="43.24833218939602375030517578125" lon="-1.63722147233784198760986328125">
        <ele>381.20001220703125</ele>
        <time>2020-08-23T07:35:01.000Z</time>
      </trkpt>
      <trkpt lat="43.24836772866547107696533203125" lon="-1.63715441711246967315673828125">
        <ele>382.399993896484375</ele>
        <time>2020-08-23T07:35:05.000Z</time>
      </trkpt>
      <trkpt lat="43.24840427376329898834228515625" lon="-1.63709155283868312835693359375">
        <ele>383.79998779296875</ele>
        <time>2020-08-23T07:35:09.000Z</time>
      </trkpt>
      <trkpt lat="43.2484372146427631378173828125" lon="-1.6370259225368499755859375">
        <ele>385</ele>
        <time>2020-08-23T07:35:13.000Z</time>
      </trkpt>
      <trkpt lat="43.24846990406513214111328125" lon="-1.63696029223501682281494140625">
        <ele>385.79998779296875</ele>
        <time>2020-08-23T07:35:17.000Z</time>
      </trkpt>
      <trkpt lat="43.24848339892923831939697265625" lon="-1.6369258426129817962646484375">
        <ele>386.20001220703125</ele>
        <time>2020-08-23T07:35:19.000Z</time>
      </trkpt>
      <trkpt lat="43.2485277391970157623291015625" lon="-1.636827103793621063232421875">
        <ele>387.20001220703125</ele>
        <time>2020-08-23T07:35:25.000Z</time>
      </trkpt>
      <trkpt lat="43.2485354505479335784912109375" lon="-1.6368108429014682769775390625">
        <ele>387.399993896484375</ele>
        <time>2020-08-23T07:35:26.000Z</time>
      </trkpt>
      <trkpt lat="43.24855665676295757293701171875" lon="-1.63676432333886623382568359375">
        <ele>388.20001220703125</ele>
        <time>2020-08-23T07:35:29.000Z</time>
      </trkpt>
      <trkpt lat="43.24858431704342365264892578125" lon="-1.6367072425782680511474609375">
        <ele>389.399993896484375</ele>
        <time>2020-08-23T07:35:33.000Z</time>
      </trkpt>
      <trkpt lat="43.2486122287809848785400390625" lon="-1.63667614571750164031982421875">
        <ele>389.600006103515625</ele>
        <time>2020-08-23T07:35:36.000Z</time>
      </trkpt>
      <trkpt lat="43.248617090284824371337890625" lon="-1.636680252850055694580078125">
        <ele>390</ele>
        <time>2020-08-23T07:39:55.000Z</time>
      </trkpt>
      <trkpt lat="43.24862019158899784088134765625" lon="-1.63667212240397930145263671875">
        <ele>390</ele>
        <time>2020-08-23T07:39:58.000Z</time>
      </trkpt>
      <trkpt lat="43.24866310693323612213134765625" lon="-1.63654907606542110443115234375">
        <ele>390.399993896484375</ele>
        <time>2020-08-23T07:40:06.000Z</time>
      </trkpt>
      <trkpt lat="43.24869261123239994049072265625" lon="-1.63648210465908050537109375">
        <ele>390.600006103515625</ele>
        <time>2020-08-23T07:40:10.000Z</time>
      </trkpt>
      <trkpt lat="43.2487258873879909515380859375" lon="-1.63641412742435932159423828125">
        <ele>391.20001220703125</ele>
        <time>2020-08-23T07:40:14.000Z</time>
      </trkpt>
      <trkpt lat="43.24874474667012691497802734375" lon="-1.63630147464573383331298828125">
        <ele>391.600006103515625</ele>
        <time>2020-08-23T07:40:20.000Z</time>
      </trkpt>
      <trkpt lat="43.24874692596495151519775390625" lon="-1.63628202863037586212158203125">
        <ele>391.79998779296875</ele>
        <time>2020-08-23T07:40:21.000Z</time>
      </trkpt>
      <trkpt lat="43.2487604208290576934814453125" lon="-1.63609796203672885894775390625">
        <ele>392.600006103515625</ele>
        <time>2020-08-23T07:40:30.000Z</time>
      </trkpt>
      <trkpt lat="43.248775340616703033447265625" lon="-1.6359424777328968048095703125">
        <ele>392.79998779296875</ele>
        <time>2020-08-23T07:40:38.000Z</time>
      </trkpt>
      <trkpt lat="43.24878212995827198028564453125" lon="-1.635883636772632598876953125">
        <ele>393.399993896484375</ele>
        <time>2020-08-23T07:40:41.000Z</time>
      </trkpt>
      <trkpt lat="43.248792104423046112060546875" lon="-1.63578481413424015045166015625">
        <ele>394</ele>
        <time>2020-08-23T07:40:46.000Z</time>
      </trkpt>
      <trkpt lat="43.24880928732454776763916015625" lon="-1.63565539754927158355712890625">
        <ele>394.399993896484375</ele>
        <time>2020-08-23T07:40:52.000Z</time>
      </trkpt>
      <trkpt lat="43.2488123886287212371826171875" lon="-1.63563293404877185821533203125">
        <ele>394.600006103515625</ele>
        <time>2020-08-23T07:40:53.000Z</time>
      </trkpt>
      <trkpt lat="43.24884968809783458709716796875" lon="-1.63545993156731128692626953125">
        <ele>395</ele>
        <time>2020-08-23T07:41:01.000Z</time>
      </trkpt>
      <trkpt lat="43.24892093427479267120361328125" lon="-1.63532414473593235015869140625">
        <ele>395.399993896484375</ele>
        <time>2020-08-23T07:41:09.000Z</time>
      </trkpt>
      <trkpt lat="43.24900911189615726470947265625" lon="-1.63531760685145854949951171875">
        <ele>395.600006103515625</ele>
        <time>2020-08-23T07:41:15.000Z</time>
      </trkpt>
      <trkpt lat="43.2491453178226947784423828125" lon="-1.6353027708828449249267578125">
        <ele>395.600006103515625</ele>
        <time>2020-08-23T07:41:21.000Z</time>
      </trkpt>
      <trkpt lat="43.24920709244906902313232421875" lon="-1.6352575086057186126708984375">
        <ele>395.600006103515625</ele>
        <time>2020-08-23T07:41:26.000Z</time>
      </trkpt>
      <trkpt lat="43.24926895089447498321533203125" lon="-1.6352223046123981475830078125">
        <ele>396</ele>
        <time>2020-08-23T07:41:32.000Z</time>
      </trkpt>
      <trkpt lat="43.2493350841104984283447265625" lon="-1.63519757799804210662841796875">
        <ele>396.600006103515625</ele>
        <time>2020-08-23T07:41:37.000Z</time>
      </trkpt>
      <trkpt lat="43.2493686117231845855712890625" lon="-1.6351814009249210357666015625">
        <ele>396.79998779296875</ele>
        <time>2020-08-23T07:41:40.000Z</time>
      </trkpt>
      <trkpt lat="43.249424435198307037353515625" lon="-1.63516438566148281097412109375">
        <ele>397.600006103515625</ele>
        <time>2020-08-23T07:41:46.000Z</time>
      </trkpt>
      <trkpt lat="43.24943558312952518463134765625" lon="-1.6351604461669921875">
        <ele>397.79998779296875</ele>
        <time>2020-08-23T07:41:47.000Z</time>
      </trkpt>
      <trkpt lat="43.24952024035155773162841796875" lon="-1.6351280920207500457763671875">
        <ele>398.79998779296875</ele>
        <time>2020-08-23T07:41:54.000Z</time>
      </trkpt>
      <trkpt lat="43.249619901180267333984375" lon="-1.6350925527513027191162109375">
        <ele>399.79998779296875</ele>
        <time>2020-08-23T07:42:01.000Z</time>
      </trkpt>
      <trkpt lat="43.24970774352550506591796875" lon="-1.63505525328218936920166015625">
        <ele>400.79998779296875</ele>
        <time>2020-08-23T07:42:08.000Z</time>
      </trkpt>
      <trkpt lat="43.24977890588343143463134765625" lon="-1.63501183502376079559326171875">
        <ele>401.79998779296875</ele>
        <time>2020-08-23T07:42:15.000Z</time>
      </trkpt>
      <trkpt lat="43.24980162084102630615234375" lon="-1.63499004207551479339599609375">
        <ele>402.20001220703125</ele>
        <time>2020-08-23T07:42:17.000Z</time>
      </trkpt>
      <trkpt lat="43.249828778207302093505859375" lon="-1.6349686682224273681640625">
        <ele>403</ele>
        <time>2020-08-23T07:42:20.000Z</time>
      </trkpt>
      <trkpt lat="43.2498812489211559295654296875" lon="-1.63492265157401561737060546875">
        <ele>403.600006103515625</ele>
        <time>2020-08-23T07:42:24.000Z</time>
      </trkpt>
      <trkpt lat="43.2499151118099689483642578125" lon="-1.63486875593662261962890625">
        <ele>404.20001220703125</ele>
        <time>2020-08-23T07:42:28.000Z</time>
      </trkpt>
      <trkpt lat="43.2499187998473644256591796875" lon="-1.63485995493829250335693359375">
        <ele>404.600006103515625</ele>
        <time>2020-08-23T07:42:30.000Z</time>
      </trkpt>
      <trkpt lat="43.24993212707340717315673828125" lon="-1.63483279757201671600341796875">
        <ele>405</ele>
        <time>2020-08-23T07:42:38.000Z</time>
      </trkpt>
      <trkpt lat="43.24994822032749652862548828125" lon="-1.63481335155665874481201171875">
        <ele>405.399993896484375</ele>
        <time>2020-08-23T07:42:41.000Z</time>
      </trkpt>
      <trkpt lat="43.24997328221797943115234375" lon="-1.63477395661175251007080078125">
        <ele>405.600006103515625</ele>
        <time>2020-08-23T07:42:45.000Z</time>
      </trkpt>
      <trkpt lat="43.25000370852649211883544921875" lon="-1.6347237490117549896240234375">
        <ele>406.600006103515625</ele>
        <time>2020-08-23T07:42:52.000Z</time>
      </trkpt>
      <trkpt lat="43.25001041404902935028076171875" lon="-1.63471092469990253448486328125">
        <ele>406.79998779296875</ele>
        <time>2020-08-23T07:42:54.000Z</time>
      </trkpt>
      <trkpt lat="43.25004947371780872344970703125" lon="-1.6346590407192707061767578125">
        <ele>407.600006103515625</ele>
        <time>2020-08-23T07:43:02.000Z</time>
      </trkpt>
      <trkpt lat="43.25005483813583850860595703125" lon="-1.634652502834796905517578125">
        <ele>407.79998779296875</ele>
        <time>2020-08-23T07:43:03.000Z</time>
      </trkpt>
      <trkpt lat="43.2500679977238178253173828125" lon="-1.63463448174297809600830078125">
        <ele>408.20001220703125</ele>
        <time>2020-08-23T07:43:08.000Z</time>
      </trkpt>
      <trkpt lat="43.25010445900261402130126953125" lon="-1.63458871655166149139404296875">
        <ele>408.79998779296875</ele>
        <time>2020-08-23T07:43:15.000Z</time>
      </trkpt>
      <trkpt lat="43.2501362264156341552734375" lon="-1.63452283479273319244384765625">
        <ele>410</ele>
        <time>2020-08-23T07:43:23.000Z</time>
      </trkpt>
      <trkpt lat="43.25013949535787105560302734375" lon="-1.63451629690825939178466796875">
        <ele>410.20001220703125</ele>
        <time>2020-08-23T07:43:24.000Z</time>
      </trkpt>
      <trkpt lat="43.2501662336289882659912109375" lon="-1.63445494137704372406005859375">
        <ele>411</ele>
        <time>2020-08-23T07:43:31.000Z</time>
      </trkpt>
      <trkpt lat="43.250169418752193450927734375" lon="-1.63444806821644306182861328125">
        <ele>411.20001220703125</ele>
        <time>2020-08-23T07:43:32.000Z</time>
      </trkpt>
      <trkpt lat="43.250172436237335205078125" lon="-1.63444102741777896881103515625">
        <ele>411.399993896484375</ele>
        <time>2020-08-23T07:43:33.000Z</time>
      </trkpt>
      <trkpt lat="43.250192217528820037841796875" lon="-1.6343572922050952911376953125">
        <ele>412.20001220703125</ele>
        <time>2020-08-23T07:43:42.000Z</time>
      </trkpt>
      <trkpt lat="43.2501952350139617919921875" lon="-1.6343485750257968902587890625">
        <ele>412.399993896484375</ele>
        <time>2020-08-23T07:43:43.000Z</time>
      </trkpt>
      <trkpt lat="43.25021677650511264801025390625" lon="-1.6342986188828945159912109375">
        <ele>413.399993896484375</ele>
        <time>2020-08-23T07:43:50.000Z</time>
      </trkpt>
      <trkpt lat="43.2502520643174648284912109375" lon="-1.634254865348339080810546875">
        <ele>413.600006103515625</ele>
        <time>2020-08-23T07:43:59.000Z</time>
      </trkpt>
      <trkpt lat="43.25025885365903377532958984375" lon="-1.634248830378055572509765625">
        <ele>414</ele>
        <time>2020-08-23T07:44:07.000Z</time>
      </trkpt>
      <trkpt lat="43.2502594403922557830810546875" lon="-1.6342456452548503875732421875">
        <ele>414.20001220703125</ele>
        <time>2020-08-23T07:44:09.000Z</time>
      </trkpt>
      <trkpt lat="43.25026673264801502227783203125" lon="-1.63422904908657073974609375">
        <ele>414.399993896484375</ele>
        <time>2020-08-23T07:44:13.000Z</time>
      </trkpt>
      <trkpt lat="43.250265978276729583740234375" lon="-1.634228713810443878173828125">
        <ele>414.600006103515625</ele>
        <time>2020-08-23T07:44:32.000Z</time>
      </trkpt>
      <trkpt lat="43.250285424292087554931640625" lon="-1.63418613374233245849609375">
        <ele>415</ele>
        <time>2020-08-23T07:44:39.000Z</time>
      </trkpt>
      <trkpt lat="43.2502912916243076324462890625" lon="-1.6341588087379932403564453125">
        <ele>415.399993896484375</ele>
        <time>2020-08-23T07:44:43.000Z</time>
      </trkpt>
      <trkpt lat="43.25030545704066753387451171875" lon="-1.63412519730627536773681640625">
        <ele>416</ele>
        <time>2020-08-23T07:44:49.000Z</time>
      </trkpt>
      <trkpt lat="43.25030629523098468780517578125" lon="-1.63408596999943256378173828125">
        <ele>416.399993896484375</ele>
        <time>2020-08-23T07:44:54.000Z</time>
      </trkpt>
      <trkpt lat="43.2503073848783969879150390625" lon="-1.634083203971385955810546875">
        <ele>416.600006103515625</ele>
        <time>2020-08-23T07:44:57.000Z</time>
      </trkpt>
      <trkpt lat="43.25031316839158535003662109375" lon="-1.63406467996537685394287109375">
        <ele>416.79998779296875</ele>
        <time>2020-08-23T07:45:10.000Z</time>
      </trkpt>
      <trkpt lat="43.25032490305602550506591796875" lon="-1.63401170633733272552490234375">
        <ele>417.600006103515625</ele>
        <time>2020-08-23T07:45:17.000Z</time>
      </trkpt>
      <trkpt lat="43.2503382302820682525634765625" lon="-1.63396912626922130584716796875">
        <ele>418.20001220703125</ele>
        <time>2020-08-23T07:45:21.000Z</time>
      </trkpt>
      <trkpt lat="43.2503749430179595947265625" lon="-1.633891761302947998046875">
        <ele>418.600006103515625</ele>
        <time>2020-08-23T07:45:29.000Z</time>
      </trkpt>
      <trkpt lat="43.250387348234653472900390625" lon="-1.63386452011764049530029296875">
        <ele>419</ele>
        <time>2020-08-23T07:45:32.000Z</time>
      </trkpt>
      <trkpt lat="43.25040302239358425140380859375" lon="-1.6338335908949375152587890625">
        <ele>419.399993896484375</ele>
        <time>2020-08-23T07:45:36.000Z</time>
      </trkpt>
      <trkpt lat="43.25043001212179660797119140625" lon="-1.633794195950031280517578125">
        <ele>420.20001220703125</ele>
        <time>2020-08-23T07:45:42.000Z</time>
      </trkpt>
      <trkpt lat="43.25045473873615264892578125" lon="-1.63374750874936580657958984375">
        <ele>420.399993896484375</ele>
        <time>2020-08-23T07:45:47.000Z</time>
      </trkpt>
      <trkpt lat="43.25048298574984073638916015625" lon="-1.63371096365153789520263671875">
        <ele>421</ele>
        <time>2020-08-23T07:45:52.000Z</time>
      </trkpt>
      <trkpt lat="43.25050746090710163116455078125" lon="-1.6336877457797527313232421875">
        <ele>421.399993896484375</ele>
        <time>2020-08-23T07:45:56.000Z</time>
      </trkpt>
      <trkpt lat="43.25053059495985507965087890625" lon="-1.6336522065103054046630859375">
        <ele>421.79998779296875</ele>
        <time>2020-08-23T07:46:01.000Z</time>
      </trkpt>
      <trkpt lat="43.2505568303167819976806640625" lon="-1.63362747989594936370849609375">
        <ele>422.600006103515625</ele>
        <time>2020-08-23T07:46:05.000Z</time>
      </trkpt>
      <trkpt lat="43.250596225261688232421875" lon="-1.63360300473868846893310546875">
        <ele>423.20001220703125</ele>
        <time>2020-08-23T07:46:11.000Z</time>
      </trkpt>
      <trkpt lat="43.25061407871544361114501953125" lon="-1.6335846483707427978515625">
        <ele>423.600006103515625</ele>
        <time>2020-08-23T07:46:14.000Z</time>
      </trkpt>
      <trkpt lat="43.25065162964165210723876953125" lon="-1.6335683874785900115966796875">
        <ele>424</ele>
        <time>2020-08-23T07:46:19.000Z</time>
      </trkpt>
      <trkpt lat="43.25070963241159915924072265625" lon="-1.63354248739778995513916015625">
        <ele>424.79998779296875</ele>
        <time>2020-08-23T07:46:28.000Z</time>
      </trkpt>
      <trkpt lat="43.2507610134780406951904296875" lon="-1.6335288248956203460693359375">
        <ele>425.79998779296875</ele>
        <time>2020-08-23T07:46:34.000Z</time>
      </trkpt>
      <trkpt lat="43.25079227797687053680419921875" lon="-1.63352203555405139923095703125">
        <ele>426</ele>
        <time>2020-08-23T07:46:38.000Z</time>
      </trkpt>
      <trkpt lat="43.2508642785251140594482421875" lon="-1.633500494062900543212890625">
        <ele>426.600006103515625</ele>
        <time>2020-08-23T07:46:47.000Z</time>
      </trkpt>
      <trkpt lat="43.2508904300630092620849609375" lon="-1.63349655456840991973876953125">
        <ele>426.79998779296875</ele>
        <time>2020-08-23T07:46:50.000Z</time>
      </trkpt>
      <trkpt lat="43.2509356923401355743408203125" lon="-1.6334760189056396484375">
        <ele>427.20001220703125</ele>
        <time>2020-08-23T07:46:55.000Z</time>
      </trkpt>
      <trkpt lat="43.25099344365298748016357421875" lon="-1.6334371268749237060546875">
        <ele>427.79998779296875</ele>
        <time>2020-08-23T07:47:02.000Z</time>
      </trkpt>
      <trkpt lat="43.25100953690707683563232421875" lon="-1.63341994397342205047607421875">
        <ele>428.399993896484375</ele>
        <time>2020-08-23T07:47:05.000Z</time>
      </trkpt>
      <trkpt lat="43.251032419502735137939453125" lon="-1.633392870426177978515625">
        <ele>429</ele>
        <time>2020-08-23T07:47:09.000Z</time>
      </trkpt>
      <trkpt lat="43.2510496862232685089111328125" lon="-1.6333598457276821136474609375">
        <ele>429.399993896484375</ele>
        <time>2020-08-23T07:47:13.000Z</time>
      </trkpt>
      <trkpt lat="43.251099474728107452392578125" lon="-1.633275188505649566650390625">
        <ele>429.600006103515625</ele>
        <time>2020-08-23T07:47:24.000Z</time>
      </trkpt>
      <trkpt lat="43.25114406645298004150390625" lon="-1.6331876814365386962890625">
        <ele>428.399993896484375</ele>
        <time>2020-08-23T07:47:34.000Z</time>
      </trkpt>
      <trkpt lat="43.2511774264276027679443359375" lon="-1.633126325905323028564453125">
        <ele>428</ele>
        <time>2020-08-23T07:47:42.000Z</time>
      </trkpt>
      <trkpt lat="43.2511822879314422607421875" lon="-1.633118949830532073974609375">
        <ele>427.79998779296875</ele>
        <time>2020-08-23T07:47:43.000Z</time>
      </trkpt>
      <trkpt lat="43.25121623463928699493408203125" lon="-1.6330473683774471282958984375">
        <ele>427.600006103515625</ele>
        <time>2020-08-23T07:47:50.000Z</time>
      </trkpt>
      <trkpt lat="43.25127038173377513885498046875" lon="-1.63292826153337955474853515625">
        <ele>426.79998779296875</ele>
        <time>2020-08-23T07:48:00.000Z</time>
      </trkpt>
      <trkpt lat="43.251273818314075469970703125" lon="-1.632915772497653961181640625">
        <ele>426.79998779296875</ele>
        <time>2020-08-23T07:48:01.000Z</time>
      </trkpt>
      <trkpt lat="43.25129083357751369476318359375" lon="-1.632863469421863555908203125">
        <ele>426.79998779296875</ele>
        <time>2020-08-23T07:48:05.000Z</time>
      </trkpt>
      <trkpt lat="43.2513135485351085662841796875" lon="-1.632813848555088043212890625">
        <ele>427</ele>
        <time>2020-08-23T07:48:09.000Z</time>
      </trkpt>
      <trkpt lat="43.25135461986064910888671875" lon="-1.63275006227195262908935546875">
        <ele>427.600006103515625</ele>
        <time>2020-08-23T07:48:18.000Z</time>
      </trkpt>
      <trkpt lat="43.25136132538318634033203125" lon="-1.63273547776043415069580078125">
        <ele>427.79998779296875</ele>
        <time>2020-08-23T07:48:25.000Z</time>
      </trkpt>
      <trkpt lat="43.251392506062984466552734375" lon="-1.6326936520636081695556640625">
        <ele>428</ele>
        <time>2020-08-23T07:48:34.000Z</time>
      </trkpt>
      <trkpt lat="43.25142167508602142333984375" lon="-1.63263824768364429473876953125">
        <ele>428.79998779296875</ele>
        <time>2020-08-23T07:48:42.000Z</time>
      </trkpt>
      <trkpt lat="43.25142729096114635467529296875" lon="-1.632625423371791839599609375">
        <ele>429</ele>
        <time>2020-08-23T07:48:44.000Z</time>
      </trkpt>
      <trkpt lat="43.25143835507333278656005859375" lon="-1.63259482942521572113037109375">
        <ele>430</ele>
        <time>2020-08-23T07:48:49.000Z</time>
      </trkpt>
      <trkpt lat="43.25144045054912567138671875" lon="-1.63258912973105907440185546875">
        <ele>430.20001220703125</ele>
        <time>2020-08-23T07:48:50.000Z</time>
      </trkpt>
      <trkpt lat="43.25145914219319820404052734375" lon="-1.63252458907663822174072265625">
        <ele>431</ele>
        <time>2020-08-23T07:48:58.000Z</time>
      </trkpt>
      <trkpt lat="43.2514597289264202117919921875" lon="-1.63251402787864208221435546875">
        <ele>431.20001220703125</ele>
        <time>2020-08-23T07:48:59.000Z</time>
      </trkpt>
      <trkpt lat="43.25147523544728755950927734375" lon="-1.6324364952743053436279296875">
        <ele>432</ele>
        <time>2020-08-23T07:49:06.000Z</time>
      </trkpt>
      <trkpt lat="43.25147825293242931365966796875" lon="-1.63242283277213573455810546875">
        <ele>431.79998779296875</ele>
        <time>2020-08-23T07:49:12.000Z</time>
      </trkpt>
      <trkpt lat="43.25147858820855617523193359375" lon="-1.63240657187998294830322265625">
        <ele>432</ele>
        <time>2020-08-23T07:49:36.000Z</time>
      </trkpt>
      <trkpt lat="43.25149811804294586181640625" lon="-1.63229391910135746002197265625">
        <ele>431.79998779296875</ele>
        <time>2020-08-23T07:49:42.000Z</time>
      </trkpt>
      <trkpt lat="43.251558803021907806396484375" lon="-1.632145307958126068115234375">
        <ele>431.79998779296875</ele>
        <time>2020-08-23T07:49:49.000Z</time>
      </trkpt>
      <trkpt lat="43.2516075856983661651611328125" lon="-1.6319969482719898223876953125">
        <ele>431.399993896484375</ele>
        <time>2020-08-23T07:49:54.000Z</time>
      </trkpt>
      <trkpt lat="43.25169316492974758148193359375" lon="-1.6317937709391117095947265625">
        <ele>430.79998779296875</ele>
        <time>2020-08-23T07:49:59.000Z</time>
      </trkpt>
      <trkpt lat="43.251717053353786468505859375" lon="-1.6317097842693328857421875">
        <ele>430.20001220703125</ele>
        <time>2020-08-23T07:50:01.000Z</time>
      </trkpt>
      <trkpt lat="43.25177933089435100555419921875" lon="-1.63155513815581798553466796875">
        <ele>429.79998779296875</ele>
        <time>2020-08-23T07:50:05.000Z</time>
      </trkpt>
      <trkpt lat="43.25186784379184246063232421875" lon="-1.63134106434881687164306640625">
        <ele>429.79998779296875</ele>
        <time>2020-08-23T07:50:12.000Z</time>
      </trkpt>
      <trkpt lat="43.251991309225559234619140625" lon="-1.63116269744932651519775390625">
        <ele>430.600006103515625</ele>
        <time>2020-08-23T07:50:20.000Z</time>
      </trkpt>
      <trkpt lat="43.25206615962088108062744140625" lon="-1.63110368885099887847900390625">
        <ele>430.79998779296875</ele>
        <time>2020-08-23T07:50:24.000Z</time>
      </trkpt>
      <trkpt lat="43.25214008800685405731201171875" lon="-1.63104685954749584197998046875">
        <ele>430.600006103515625</ele>
        <time>2020-08-23T07:50:28.000Z</time>
      </trkpt>
      <trkpt lat="43.25228928588330745697021484375" lon="-1.63097142241895198822021484375">
        <ele>430.79998779296875</ele>
        <time>2020-08-23T07:50:36.000Z</time>
      </trkpt>
      <trkpt lat="43.252450637519359588623046875" lon="-1.63091174326837062835693359375">
        <ele>431</ele>
        <time>2020-08-23T07:50:45.000Z</time>
      </trkpt>
      <trkpt lat="43.25250570662319660186767578125" lon="-1.630915515124797821044921875">
        <ele>431.20001220703125</ele>
        <time>2020-08-23T07:50:48.000Z</time>
      </trkpt>
      <trkpt lat="43.2525782100856304168701171875" lon="-1.63089565001428127288818359375">
        <ele>431.399993896484375</ele>
        <time>2020-08-23T07:50:52.000Z</time>
      </trkpt>
      <trkpt lat="43.25274123810231685638427734375" lon="-1.6308704204857349395751953125">
        <ele>432.20001220703125</ele>
        <time>2020-08-23T07:51:01.000Z</time>
      </trkpt>
      <trkpt lat="43.25289814732968807220458984375" lon="-1.6308697499334812164306640625">
        <ele>432.79998779296875</ele>
        <time>2020-08-23T07:51:10.000Z</time>
      </trkpt>
      <trkpt lat="43.25301767326891422271728515625" lon="-1.6308781318366527557373046875">
        <ele>433</ele>
        <time>2020-08-23T07:51:17.000Z</time>
      </trkpt>
      <trkpt lat="43.2530517876148223876953125" lon="-1.63086966611444950103759765625">
        <ele>433.399993896484375</ele>
        <time>2020-08-23T07:51:18.000Z</time>
      </trkpt>
      <trkpt lat="43.25309797190129756927490234375" lon="-1.63085860200226306915283203125">
        <ele>434.20001220703125</ele>
        <time>2020-08-23T07:51:22.000Z</time>
      </trkpt>
      <trkpt lat="43.2531555555760860443115234375" lon="-1.630832366645336151123046875">
        <ele>435.20001220703125</ele>
        <time>2020-08-23T07:51:26.000Z</time>
      </trkpt>
      <trkpt lat="43.2531971298158168792724609375" lon="-1.63080847822129726409912109375">
        <ele>435.79998779296875</ele>
        <time>2020-08-23T07:51:29.000Z</time>
      </trkpt>
      <trkpt lat="43.2532353512942790985107421875" lon="-1.63078048266470432281494140625">
        <ele>436.399993896484375</ele>
        <time>2020-08-23T07:51:32.000Z</time>
      </trkpt>
      <trkpt lat="43.25329964049160480499267578125" lon="-1.6307254135608673095703125">
        <ele>437.399993896484375</ele>
        <time>2020-08-23T07:51:37.000Z</time>
      </trkpt>
      <trkpt lat="43.2533111236989498138427734375" lon="-1.63071401417255401611328125">
        <ele>437.600006103515625</ele>
        <time>2020-08-23T07:51:38.000Z</time>
      </trkpt>
      <trkpt lat="43.253402821719646453857421875" lon="-1.6306020319461822509765625">
        <ele>438.399993896484375</ele>
        <time>2020-08-23T07:51:47.000Z</time>
      </trkpt>
      <trkpt lat="43.2535109482705593109130859375" lon="-1.63050270639359951019287109375">
        <ele>438.600006103515625</ele>
        <time>2020-08-23T07:51:56.000Z</time>
      </trkpt>
      <trkpt lat="43.253639526665210723876953125" lon="-1.63036155514419078826904296875">
        <ele>438.20001220703125</ele>
        <time>2020-08-23T07:52:02.000Z</time>
      </trkpt>
      <trkpt lat="43.25378193520009517669677734375" lon="-1.63020431064069271087646484375">
        <ele>436.79998779296875</ele>
        <time>2020-08-23T07:52:06.000Z</time>
      </trkpt>
      <trkpt lat="43.25383591465651988983154296875" lon="-1.63014404475688934326171875">
        <ele>436.399993896484375</ele>
        <time>2020-08-23T07:52:09.000Z</time>
      </trkpt>
      <trkpt lat="43.25396415777504444122314453125" lon="-1.63000063039362430572509765625">
        <ele>436.600006103515625</ele>
        <time>2020-08-23T07:52:14.000Z</time>
      </trkpt>
      <trkpt lat="43.25412358157336711883544921875" lon="-1.62981639616191387176513671875">
        <ele>435.79998779296875</ele>
        <time>2020-08-23T07:52:21.000Z</time>
      </trkpt>
      <trkpt lat="43.2541890442371368408203125" lon="-1.62973894737660884857177734375">
        <ele>435.600006103515625</ele>
        <time>2020-08-23T07:52:24.000Z</time>
      </trkpt>
      <trkpt lat="43.2542569376528263092041015625" lon="-1.6296768374741077423095703125">
        <ele>435.79998779296875</ele>
        <time>2020-08-23T07:52:27.000Z</time>
      </trkpt>
      <trkpt lat="43.25435190461575984954833984375" lon="-1.62959293462336063385009765625">
        <ele>435.399993896484375</ele>
        <time>2020-08-23T07:52:30.000Z</time>
      </trkpt>
      <trkpt lat="43.2544581033289432525634765625" lon="-1.629528142511844635009765625">
        <ele>435.399993896484375</ele>
        <time>2020-08-23T07:52:35.000Z</time>
      </trkpt>
      <trkpt lat="43.25458106584846973419189453125" lon="-1.62942387163639068603515625">
        <ele>435.600006103515625</ele>
        <time>2020-08-23T07:52:41.000Z</time>
      </trkpt>
      <trkpt lat="43.25471953488886356353759765625" lon="-1.62926872260868549346923828125">
        <ele>436.20001220703125</ele>
        <time>2020-08-23T07:52:49.000Z</time>
      </trkpt>
      <trkpt lat="43.25476882047951221466064453125" lon="-1.6291885077953338623046875">
        <ele>436.79998779296875</ele>
        <time>2020-08-23T07:52:53.000Z</time>
      </trkpt>
      <trkpt lat="43.25481307692825794219970703125" lon="-1.629088260233402252197265625">
        <ele>437.79998779296875</ele>
        <time>2020-08-23T07:52:58.000Z</time>
      </trkpt>
      <trkpt lat="43.2548198662698268890380859375" lon="-1.62906713783740997314453125">
        <ele>437.79998779296875</ele>
        <time>2020-08-23T07:52:59.000Z</time>
      </trkpt>
      <trkpt lat="43.254863284528255462646484375" lon="-1.62887376733124256134033203125">
        <ele>438.20001220703125</ele>
        <time>2020-08-23T07:53:06.000Z</time>
      </trkpt>
      <trkpt lat="43.25489270500838756561279296875" lon="-1.62866891361773014068603515625">
        <ele>436.79998779296875</ele>
        <time>2020-08-23T07:53:13.000Z</time>
      </trkpt>
      <trkpt lat="43.25488507747650146484375" lon="-1.62858475930988788604736328125">
        <ele>436.600006103515625</ele>
        <time>2020-08-23T07:53:15.000Z</time>
      </trkpt>
      <trkpt lat="43.254835121333599090576171875" lon="-1.62842047400772571563720703125">
        <ele>435.20001220703125</ele>
        <time>2020-08-23T07:53:18.000Z</time>
      </trkpt>
      <trkpt lat="43.254835121333599090576171875" lon="-1.62842047400772571563720703125">
        <ele>435</ele>
        <time>2020-08-23T07:53:19.000Z</time>
      </trkpt>
      <trkpt lat="43.25472188182175159454345703125" lon="-1.6281731240451335906982421875">
        <ele>433.79998779296875</ele>
        <time>2020-08-23T07:53:25.000Z</time>
      </trkpt>
      <trkpt lat="43.254707716405391693115234375" lon="-1.6281295381486415863037109375">
        <ele>432.600006103515625</ele>
        <time>2020-08-23T07:53:26.000Z</time>
      </trkpt>
      <trkpt lat="43.254667818546295166015625" lon="-1.62800137884914875030517578125">
        <ele>431.20001220703125</ele>
        <time>2020-08-23T07:53:29.000Z</time>
      </trkpt>
      <trkpt lat="43.25465298257768154144287109375" lon="-1.6278639994561672210693359375">
        <ele>430.20001220703125</ele>
        <time>2020-08-23T07:53:32.000Z</time>
      </trkpt>
      <trkpt lat="43.25469019822776317596435546875" lon="-1.62763240747153759002685546875">
        <ele>429.399993896484375</ele>
        <time>2020-08-23T07:53:37.000Z</time>
      </trkpt>
      <trkpt lat="43.2547142542898654937744140625" lon="-1.6275464929640293121337890625">
        <ele>429</ele>
        <time>2020-08-23T07:53:39.000Z</time>
      </trkpt>
      <trkpt lat="43.25474224984645843505859375" lon="-1.627459824085235595703125">
        <ele>427.600006103515625</ele>
        <time>2020-08-23T07:53:41.000Z</time>
      </trkpt>
      <trkpt lat="43.2547725923359394073486328125" lon="-1.62737139500677585601806640625">
        <ele>426.20001220703125</ele>
        <time>2020-08-23T07:53:43.000Z</time>
      </trkpt>
      <trkpt lat="43.254802264273166656494140625" lon="-1.62728724069893360137939453125">
        <ele>426</ele>
        <time>2020-08-23T07:53:45.000Z</time>
      </trkpt>
      <trkpt lat="43.254893459379673004150390625" lon="-1.627058498561382293701171875">
        <ele>425.20001220703125</ele>
        <time>2020-08-23T07:53:51.000Z</time>
      </trkpt>
      <trkpt lat="43.25492170639336109161376953125" lon="-1.62699605338275432586669921875">
        <ele>424.600006103515625</ele>
        <time>2020-08-23T07:53:53.000Z</time>
      </trkpt>
      <trkpt lat="43.25496009550988674163818359375" lon="-1.6268952190876007080078125">
        <ele>424</ele>
        <time>2020-08-23T07:53:56.000Z</time>
      </trkpt>
      <trkpt lat="43.254983983933925628662109375" lon="-1.62683243863284587860107421875">
        <ele>423</ele>
        <time>2020-08-23T07:53:58.000Z</time>
      </trkpt>
      <trkpt lat="43.2550193555653095245361328125" lon="-1.626737974584102630615234375">
        <ele>422.20001220703125</ele>
        <time>2020-08-23T07:54:01.000Z</time>
      </trkpt>
      <trkpt lat="43.25503167696297168731689453125" lon="-1.6266992501914501190185546875">
        <ele>421.79998779296875</ele>
        <time>2020-08-23T07:54:02.000Z</time>
      </trkpt>
      <trkpt lat="43.25508833862841129302978515625" lon="-1.6265331208705902099609375">
        <ele>420.399993896484375</ele>
        <time>2020-08-23T07:54:06.000Z</time>
      </trkpt>
      <trkpt lat="43.25510300695896148681640625" lon="-1.6264927200973033905029296875">
        <ele>420.20001220703125</ele>
        <time>2020-08-23T07:54:07.000Z</time>
      </trkpt>
      <trkpt lat="43.25515924952924251556396484375" lon="-1.62632600404322147369384765625">
        <ele>419.399993896484375</ele>
        <time>2020-08-23T07:54:11.000Z</time>
      </trkpt>
      <trkpt lat="43.2552171684801578521728515625" lon="-1.6262110881507396697998046875">
        <ele>418.79998779296875</ele>
        <time>2020-08-23T07:54:14.000Z</time>
      </trkpt>
      <trkpt lat="43.25531029142439365386962890625" lon="-1.6260172985494136810302734375">
        <ele>418.20001220703125</ele>
        <time>2020-08-23T07:54:19.000Z</time>
      </trkpt>
      <trkpt lat="43.25535521842539310455322265625" lon="-1.6258952580392360687255859375">
        <ele>417.600006103515625</ele>
        <time>2020-08-23T07:54:22.000Z</time>
      </trkpt>
      <trkpt lat="43.25541439466178417205810546875" lon="-1.6257554478943347930908203125">
        <ele>417</ele>
        <time>2020-08-23T07:54:26.000Z</time>
      </trkpt>
      <trkpt lat="43.25545194558799266815185546875" lon="-1.6255613230168819427490234375">
        <ele>416</ele>
        <time>2020-08-23T07:54:30.000Z</time>
      </trkpt>
      <trkpt lat="43.25545194558799266815185546875" lon="-1.6255613230168819427490234375">
        <ele>416</ele>
        <time>2020-08-23T07:54:31.000Z</time>
      </trkpt>
      <trkpt lat="43.25545462779700756072998046875" lon="-1.62536459974944591522216796875">
        <ele>415.20001220703125</ele>
        <time>2020-08-23T07:54:36.000Z</time>
      </trkpt>
      <trkpt lat="43.2554662786424160003662109375" lon="-1.62529502995312213897705078125">
        <ele>415</ele>
        <time>2020-08-23T07:54:38.000Z</time>
      </trkpt>
      <trkpt lat="43.25549569912254810333251953125" lon="-1.6252304054796695709228515625">
        <ele>414.79998779296875</ele>
        <time>2020-08-23T07:54:41.000Z</time>
      </trkpt>
      <trkpt lat="43.2555108703672885894775390625" lon="-1.6251908428966999053955078125">
        <ele>415</ele>
        <time>2020-08-23T07:54:43.000Z</time>
      </trkpt>
      <trkpt lat="43.25550676323473453521728515625" lon="-1.62511817179620265960693359375">
        <ele>415.600006103515625</ele>
        <time>2020-08-23T07:54:46.000Z</time>
      </trkpt>
      <trkpt lat="43.25549033470451831817626953125" lon="-1.62507793866097927093505859375">
        <ele>416</ele>
        <time>2020-08-23T07:54:48.000Z</time>
      </trkpt>
      <trkpt lat="43.25545915402472019195556640625" lon="-1.6250037588179111480712890625">
        <ele>417.20001220703125</ele>
        <time>2020-08-23T07:54:52.000Z</time>
      </trkpt>
      <trkpt lat="43.25541892088949680328369140625" lon="-1.6249491088092327117919921875">
        <ele>418.399993896484375</ele>
        <time>2020-08-23T07:54:56.000Z</time>
      </trkpt>
      <trkpt lat="43.25541238300502300262451171875" lon="-1.62491885013878345489501953125">
        <ele>418.600006103515625</ele>
        <time>2020-08-23T07:54:58.000Z</time>
      </trkpt>
      <trkpt lat="43.25541405938565731048583984375" lon="-1.6249038465321063995361328125">
        <ele>418.600006103515625</ele>
        <time>2020-08-23T07:54:59.000Z</time>
      </trkpt>
      <trkpt lat="43.2554136402904987335205078125" lon="-1.62488448433578014373779296875">
        <ele>418.79998779296875</ele>
        <time>2020-08-23T07:55:04.000Z</time>
      </trkpt>
      <trkpt lat="43.2554136402904987335205078125" lon="-1.624885238707065582275390625">
        <ele>418.600006103515625</ele>
        <time>2020-08-23T07:55:24.000Z</time>
      </trkpt>
      <trkpt lat="43.25541355647146701812744140625" lon="-1.624887920916080474853515625">
        <ele>419</ele>
        <time>2020-08-23T07:55:55.000Z</time>
      </trkpt>
      <trkpt lat="43.2554196752607822418212890625" lon="-1.62487794645130634307861328125">
        <ele>418.79998779296875</ele>
        <time>2020-08-23T07:56:10.000Z</time>
      </trkpt>
      <trkpt lat="43.25545663945376873016357421875" lon="-1.62487761117517948150634765625">
        <ele>418.600006103515625</ele>
        <time>2020-08-23T07:56:16.000Z</time>
      </trkpt>
      <trkpt lat="43.25547038577497005462646484375" lon="-1.62488716654479503631591796875">
        <ele>418.399993896484375</ele>
        <time>2020-08-23T07:56:17.000Z</time>
      </trkpt>
      <trkpt lat="43.2555296458303928375244140625" lon="-1.62492723204195499420166015625">
        <ele>418.600006103515625</ele>
        <time>2020-08-23T07:56:21.000Z</time>
      </trkpt>
      <trkpt lat="43.25554716400802135467529296875" lon="-1.62493050098419189453125">
        <ele>418.600006103515625</ele>
        <time>2020-08-23T07:56:22.000Z</time>
      </trkpt>
      <trkpt lat="43.2556392811238765716552734375" lon="-1.6249139048159122467041015625">
        <ele>419.20001220703125</ele>
        <time>2020-08-23T07:56:27.000Z</time>
      </trkpt>
      <trkpt lat="43.25565646402537822723388671875" lon="-1.6249021701514720916748046875">
        <ele>419.399993896484375</ele>
        <time>2020-08-23T07:56:28.000Z</time>
      </trkpt>
      <trkpt lat="43.25581689365208148956298828125" lon="-1.62481843493878841400146484375">
        <ele>420.20001220703125</ele>
        <time>2020-08-23T07:56:37.000Z</time>
      </trkpt>
      <trkpt lat="43.255834244191646575927734375" lon="-1.62480720318853855133056640625">
        <ele>420.399993896484375</ele>
        <time>2020-08-23T07:56:38.000Z</time>
      </trkpt>
      <trkpt lat="43.2559705339372158050537109375" lon="-1.6247181035578250885009765625">
        <ele>421.399993896484375</ele>
        <time>2020-08-23T07:56:46.000Z</time>
      </trkpt>
      <trkpt lat="43.25598855502903461456298828125" lon="-1.624707877635955810546875">
        <ele>421.600006103515625</ele>
        <time>2020-08-23T07:56:47.000Z</time>
      </trkpt>
      <trkpt lat="43.2560888864099979400634765625" lon="-1.6246396489441394805908203125">
        <ele>422.20001220703125</ele>
        <time>2020-08-23T07:56:53.000Z</time>
      </trkpt>
      <trkpt lat="43.2561214081943035125732421875" lon="-1.6246094740927219390869140625">
        <ele>422.600006103515625</ele>
        <time>2020-08-23T07:56:55.000Z</time>
      </trkpt>
      <trkpt lat="43.25622559525072574615478515625" lon="-1.6244865953922271728515625">
        <ele>423.399993896484375</ele>
        <time>2020-08-23T07:57:02.000Z</time>
      </trkpt>
      <trkpt lat="43.256253339350223541259765625" lon="-1.62444862537086009979248046875">
        <ele>423.600006103515625</ele>
        <time>2020-08-23T07:57:04.000Z</time>
      </trkpt>
      <trkpt lat="43.2563078217208385467529296875" lon="-1.62438006140291690826416015625">
        <ele>424</ele>
        <time>2020-08-23T07:57:08.000Z</time>
      </trkpt>
      <trkpt lat="43.25637361966073513031005859375" lon="-1.62429205141961574554443359375">
        <ele>424.79998779296875</ele>
        <time>2020-08-23T07:57:12.000Z</time>
      </trkpt>
      <trkpt lat="43.256386779248714447021484375" lon="-1.6242725215852260589599609375">
        <ele>424.79998779296875</ele>
        <time>2020-08-23T07:57:14.000Z</time>
      </trkpt>
      <trkpt lat="43.25648811645805835723876953125" lon="-1.624149642884731292724609375">
        <ele>425.79998779296875</ele>
        <time>2020-08-23T07:57:21.000Z</time>
      </trkpt>
      <trkpt lat="43.2565156929194927215576171875" lon="-1.62410697899758815765380859375">
        <ele>426</ele>
        <time>2020-08-23T07:57:23.000Z</time>
      </trkpt>
      <trkpt lat="43.25660102069377899169921875" lon="-1.62399298511445522308349609375">
        <ele>426.79998779296875</ele>
        <time>2020-08-23T07:57:29.000Z</time>
      </trkpt>
      <trkpt lat="43.2566551677882671356201171875" lon="-1.62391595542430877685546875">
        <ele>427</ele>
        <time>2020-08-23T07:57:33.000Z</time>
      </trkpt>
      <trkpt lat="43.25673420913517475128173828125" lon="-1.623794250190258026123046875">
        <ele>427.79998779296875</ele>
        <time>2020-08-23T07:57:39.000Z</time>
      </trkpt>
      <trkpt lat="43.25674560852348804473876953125" lon="-1.62377086468040943145751953125">
        <ele>428</ele>
        <time>2020-08-23T07:57:40.000Z</time>
      </trkpt>
      <trkpt lat="43.25684652663767337799072265625" lon="-1.62359266541898250579833984375">
        <ele>429</ele>
        <time>2020-08-23T07:57:47.000Z</time>
      </trkpt>
      <trkpt lat="43.2568605244159698486328125" lon="-1.623574309051036834716796875">
        <ele>429</ele>
        <time>2020-08-23T07:57:48.000Z</time>
      </trkpt>
      <trkpt lat="43.2569463551044464111328125" lon="-1.6234566271305084228515625">
        <ele>430.20001220703125</ele>
        <time>2020-08-23T07:57:55.000Z</time>
      </trkpt>
      <trkpt lat="43.25703084468841552734375" lon="-1.62338764406740665435791015625">
        <ele>430.79998779296875</ele>
        <time>2020-08-23T07:57:59.000Z</time>
      </trkpt>
      <trkpt lat="43.25706780888140201568603515625" lon="-1.6233696229755878448486328125">
        <ele>431.20001220703125</ele>
        <time>2020-08-23T07:58:02.000Z</time>
      </trkpt>
      <trkpt lat="43.25719781219959259033203125" lon="-1.62330181337893009185791015625">
        <ele>432.20001220703125</ele>
        <time>2020-08-23T07:58:09.000Z</time>
      </trkpt>
      <trkpt lat="43.25734265148639678955078125" lon="-1.62324448116123676300048828125">
        <ele>432.79998779296875</ele>
        <time>2020-08-23T07:58:17.000Z</time>
      </trkpt>
      <trkpt lat="43.25743158347904682159423828125" lon="-1.62320558913052082061767578125">
        <ele>433.399993896484375</ele>
        <time>2020-08-23T07:58:21.000Z</time>
      </trkpt>
      <trkpt lat="43.2574826292693614959716796875" lon="-1.62317524664103984832763671875">
        <ele>433.79998779296875</ele>
        <time>2020-08-23T07:58:24.000Z</time>
      </trkpt>
      <trkpt lat="43.25756770558655261993408203125" lon="-1.6231221891939640045166015625">
        <ele>434.600006103515625</ele>
        <time>2020-08-23T07:58:29.000Z</time>
      </trkpt>
      <trkpt lat="43.25761548243463039398193359375" lon="-1.6230866499245166778564453125">
        <ele>435.20001220703125</ele>
        <time>2020-08-23T07:58:33.000Z</time>
      </trkpt>
      <trkpt lat="43.257677592337131500244140625" lon="-1.6230309940874576568603515625">
        <ele>435.600006103515625</ele>
        <time>2020-08-23T07:58:37.000Z</time>
      </trkpt>
      <trkpt lat="43.2577464915812015533447265625" lon="-1.62296938709914684295654296875">
        <ele>436</ele>
        <time>2020-08-23T07:58:41.000Z</time>
      </trkpt>
      <trkpt lat="43.25782888568937778472900390625" lon="-1.62289260886609554290771484375">
        <ele>436.600006103515625</ele>
        <time>2020-08-23T07:58:46.000Z</time>
      </trkpt>
      <trkpt lat="43.25787372887134552001953125" lon="-1.6228472627699375152587890625">
        <ele>437</ele>
        <time>2020-08-23T07:58:48.000Z</time>
      </trkpt>
      <trkpt lat="43.25795813463628292083740234375" lon="-1.622761599719524383544921875">
        <ele>437.600006103515625</ele>
        <time>2020-08-23T07:58:55.000Z</time>
      </trkpt>
      <trkpt lat="43.2579714618623256683349609375" lon="-1.62274341098964214324951171875">
        <ele>437.79998779296875</ele>
        <time>2020-08-23T07:58:56.000Z</time>
      </trkpt>
      <trkpt lat="43.25806475244462490081787109375" lon="-1.62264400161802768707275390625">
        <ele>438.600006103515625</ele>
        <time>2020-08-23T07:59:02.000Z</time>
      </trkpt>
      <trkpt lat="43.25809341855347156524658203125" lon="-1.6226008348166942596435546875">
        <ele>438.79998779296875</ele>
        <time>2020-08-23T07:59:04.000Z</time>
      </trkpt>
      <trkpt lat="43.2581850327551364898681640625" lon="-1.62249840795993804931640625">
        <ele>439.600006103515625</ele>
        <time>2020-08-23T07:59:10.000Z</time>
      </trkpt>
      <trkpt lat="43.2582319714128971099853515625" lon="-1.62244300357997417449951171875">
        <ele>439.79998779296875</ele>
        <time>2020-08-23T07:59:13.000Z</time>
      </trkpt>
      <trkpt lat="43.2583047263324260711669921875" lon="-1.6223327815532684326171875">
        <ele>440.600006103515625</ele>
        <time>2020-08-23T07:59:18.000Z</time>
      </trkpt>
      <trkpt lat="43.2583157904446125030517578125" lon="-1.622311659157276153564453125">
        <ele>440.79998779296875</ele>
        <time>2020-08-23T07:59:20.000Z</time>
      </trkpt>
      <trkpt lat="43.2583647407591342926025390625" lon="-1.62219305522739887237548828125">
        <ele>441.399993896484375</ele>
        <time>2020-08-23T07:59:25.000Z</time>
      </trkpt>
      <trkpt lat="43.2583939097821712493896484375" lon="-1.62211594171822071075439453125">
        <ele>441.79998779296875</ele>
        <time>2020-08-23T07:59:28.000Z</time>
      </trkpt>
      <trkpt lat="43.25844227336347103118896484375" lon="-1.62199524231255054473876953125">
        <ele>442.399993896484375</ele>
        <time>2020-08-23T07:59:33.000Z</time>
      </trkpt>
      <trkpt lat="43.2584884576499462127685546875" lon="-1.621774546802043914794921875">
        <ele>442.79998779296875</ele>
        <time>2020-08-23T07:59:40.000Z</time>
      </trkpt>
      <trkpt lat="43.25849541462957859039306640625" lon="-1.62171411328017711639404296875">
        <ele>443</ele>
        <time>2020-08-23T07:59:42.000Z</time>
      </trkpt>
      <trkpt lat="43.258515782654285430908203125" lon="-1.62153415381908416748046875">
        <ele>443.20001220703125</ele>
        <time>2020-08-23T07:59:50.000Z</time>
      </trkpt>
      <trkpt lat="43.25852927751839160919189453125" lon="-1.62139895372092723846435546875">
        <ele>442.79998779296875</ele>
        <time>2020-08-23T07:59:57.000Z</time>
      </trkpt>
      <trkpt lat="43.2585424371063709259033203125" lon="-1.62126593291759490966796875">
        <ele>442.600006103515625</ele>
        <time>2020-08-23T08:00:04.000Z</time>
      </trkpt>
      <trkpt lat="43.25855366885662078857421875" lon="-1.6211849637329578399658203125">
        <ele>442.600006103515625</ele>
        <time>2020-08-23T08:00:08.000Z</time>
      </trkpt>
      <trkpt lat="43.2585598714649677276611328125" lon="-1.621161997318267822265625">
        <ele>442.600006103515625</ele>
        <time>2020-08-23T08:00:09.000Z</time>
      </trkpt>
      <trkpt lat="43.25859616510570049285888671875" lon="-1.62100684829056262969970703125">
        <ele>442.399993896484375</ele>
        <time>2020-08-23T08:00:15.000Z</time>
      </trkpt>
      <trkpt lat="43.25861393474042415618896484375" lon="-1.6209388710558414459228515625">
        <ele>442.399993896484375</ele>
        <time>2020-08-23T08:00:16.000Z</time>
      </trkpt>
      <trkpt lat="43.25865819118916988372802734375" lon="-1.62084993906319141387939453125">
        <ele>442.20001220703125</ele>
        <time>2020-08-23T08:00:20.000Z</time>
      </trkpt>
      <trkpt lat="43.2587420940399169921875" lon="-1.62065296433866024017333984375">
        <ele>442</ele>
        <time>2020-08-23T08:00:26.000Z</time>
      </trkpt>
      <trkpt lat="43.25876983813941478729248046875" lon="-1.62058792077004909515380859375">
        <ele>442</ele>
        <time>2020-08-23T08:00:28.000Z</time>
      </trkpt>
      <trkpt lat="43.258956335484981536865234375" lon="-1.62032104097306728363037109375">
        <ele>441.79998779296875</ele>
        <time>2020-08-23T08:00:36.000Z</time>
      </trkpt>
      <trkpt lat="43.25910209678113460540771484375" lon="-1.62009707652032375335693359375">
        <ele>441.399993896484375</ele>
        <time>2020-08-23T08:00:44.000Z</time>
      </trkpt>
      <trkpt lat="43.2591918669641017913818359375" lon="-1.619885265827178955078125">
        <ele>441.399993896484375</ele>
        <time>2020-08-23T08:00:51.000Z</time>
      </trkpt>
      <trkpt lat="43.25925246812403202056884765625" lon="-1.61964646540582180023193359375">
        <ele>441.20001220703125</ele>
        <time>2020-08-23T08:00:59.000Z</time>
      </trkpt>
      <trkpt lat="43.25931273400783538818359375" lon="-1.61936282180249691009521484375">
        <ele>441.20001220703125</ele>
        <time>2020-08-23T08:01:06.000Z</time>
      </trkpt>
      <trkpt lat="43.2593755982816219329833984375" lon="-1.6190049983561038970947265625">
        <ele>441.399993896484375</ele>
        <time>2020-08-23T08:01:16.000Z</time>
      </trkpt>
      <trkpt lat="43.259464614093303680419921875" lon="-1.61879989318549633026123046875">
        <ele>441.399993896484375</ele>
        <time>2020-08-23T08:01:22.000Z</time>
      </trkpt>
      <trkpt lat="43.259464614093303680419921875" lon="-1.61879989318549633026123046875">
        <ele>441.399993896484375</ele>
        <time>2020-08-23T08:01:23.000Z</time>
      </trkpt>
      <trkpt lat="43.25950493104755878448486328125" lon="-1.6187478415668010711669921875">
        <ele>441.20001220703125</ele>
        <time>2020-08-23T08:01:24.000Z</time>
      </trkpt>
      <trkpt lat="43.25958288274705410003662109375" lon="-1.61873124539852142333984375">
        <ele>441.600006103515625</ele>
        <time>2020-08-23T08:01:28.000Z</time>
      </trkpt>
      <trkpt lat="43.2597437314689159393310546875" lon="-1.61877374164760112762451171875">
        <ele>441.399993896484375</ele>
        <time>2020-08-23T08:01:35.000Z</time>
      </trkpt>
      <trkpt lat="43.2599163986742496490478515625" lon="-1.61889695562422275543212890625">
        <ele>441.399993896484375</ele>
        <time>2020-08-23T08:01:43.000Z</time>
      </trkpt>
      <trkpt lat="43.2600461505353450775146484375" lon="-1.6190443933010101318359375">
        <ele>441.399993896484375</ele>
        <time>2020-08-23T08:01:50.000Z</time>
      </trkpt>
      <trkpt lat="43.26009451411664485931396484375" lon="-1.61910482682287693023681640625">
        <ele>441.20001220703125</ele>
        <time>2020-08-23T08:01:52.000Z</time>
      </trkpt>
      <trkpt lat="43.26025712303817272186279296875" lon="-1.6192142106592655181884765625">
        <ele>441.600006103515625</ele>
        <time>2020-08-23T08:02:00.000Z</time>
      </trkpt>
      <trkpt lat="43.26048259623348712921142578125" lon="-1.61922854371368885040283203125">
        <ele>441.600006103515625</ele>
        <time>2020-08-23T08:02:12.000Z</time>
      </trkpt>
      <trkpt lat="43.2605356536805629730224609375" lon="-1.6192053258419036865234375">
        <ele>441.600006103515625</ele>
        <time>2020-08-23T08:02:16.000Z</time>
      </trkpt>
      <trkpt lat="43.26056742109358310699462890625" lon="-1.6191624104976654052734375">
        <ele>441.600006103515625</ele>
        <time>2020-08-23T08:02:19.000Z</time>
      </trkpt>
      <trkpt lat="43.26062022708356380462646484375" lon="-1.61910147406160831451416015625">
        <ele>441.79998779296875</ele>
        <time>2020-08-23T08:02:26.000Z</time>
      </trkpt>
      <trkpt lat="43.26062031090259552001953125" lon="-1.61909946240484714508056640625">
        <ele>442</ele>
        <time>2020-08-23T08:02:42.000Z</time>
      </trkpt>
      <trkpt lat="43.26085441745817661285400390625" lon="-1.6193422861397266387939453125">
        <ele>439.399993896484375</ele>
        <time>2020-08-23T08:43:27.000Z</time>
      </trkpt>
      <trkpt lat="43.2608628831803798675537109375" lon="-1.61933767609298229217529296875">
        <ele>439.399993896484375</ele>
        <time>2020-08-23T08:43:29.000Z</time>
      </trkpt>
      <trkpt lat="43.26088719069957733154296875" lon="-1.6193278692662715911865234375">
        <ele>439.399993896484375</ele>
        <time>2020-08-23T08:43:32.000Z</time>
      </trkpt>
      <trkpt lat="43.26102197170257568359375" lon="-1.6193815134465694427490234375">
        <ele>438.79998779296875</ele>
        <time>2020-08-23T08:43:38.000Z</time>
      </trkpt>
      <trkpt lat="43.261191956698894500732421875" lon="-1.61951386369764804840087890625">
        <ele>439</ele>
        <time>2020-08-23T08:43:46.000Z</time>
      </trkpt>
      <trkpt lat="43.26131743378937244415283203125" lon="-1.61960572935640811920166015625">
        <ele>438.79998779296875</ele>
        <time>2020-08-23T08:43:52.000Z</time>
      </trkpt>
      <trkpt lat="43.26144467107951641082763671875" lon="-1.61971293389797210693359375">
        <ele>438.79998779296875</ele>
        <time>2020-08-23T08:43:59.000Z</time>
      </trkpt>
      <trkpt lat="43.26159018091857433319091796875" lon="-1.6198156960308551788330078125">
        <ele>439</ele>
        <time>2020-08-23T08:44:08.000Z</time>
      </trkpt>
      <trkpt lat="43.26173233799636363983154296875" lon="-1.61991200409829616546630859375">
        <ele>439.79998779296875</ele>
        <time>2020-08-23T08:44:15.000Z</time>
      </trkpt>
      <trkpt lat="43.2618226110935211181640625" lon="-1.62004888057708740234375">
        <ele>440.20001220703125</ele>
        <time>2020-08-23T08:44:21.000Z</time>
      </trkpt>
      <trkpt lat="43.26193350367248058319091796875" lon="-1.62022699601948261260986328125">
        <ele>440.399993896484375</ele>
        <time>2020-08-23T08:44:28.000Z</time>
      </trkpt>
      <trkpt lat="43.26200835406780242919921875" lon="-1.62035691551864147186279296875">
        <ele>440.399993896484375</ele>
        <time>2020-08-23T08:44:34.000Z</time>
      </trkpt>
      <trkpt lat="43.262070715427398681640625" lon="-1.62044911645352840423583984375">
        <ele>439.79998779296875</ele>
        <time>2020-08-23T08:44:38.000Z</time>
      </trkpt>
      <trkpt lat="43.262169621884822845458984375" lon="-1.6206344403326511383056640625">
        <ele>439.79998779296875</ele>
        <time>2020-08-23T08:44:43.000Z</time>
      </trkpt>
      <trkpt lat="43.262244723737239837646484375" lon="-1.62085999734699726104736328125">
        <ele>440</ele>
        <time>2020-08-23T08:44:49.000Z</time>
      </trkpt>
      <trkpt lat="43.262336254119873046875" lon="-1.62111732177436351776123046875">
        <ele>440.399993896484375</ele>
        <time>2020-08-23T08:44:56.000Z</time>
      </trkpt>
      <trkpt lat="43.2624028064310550689697265625" lon="-1.6213133744895458221435546875">
        <ele>441.20001220703125</ele>
        <time>2020-08-23T08:45:02.000Z</time>
      </trkpt>
      <trkpt lat="43.2624648325145244598388671875" lon="-1.62147254683077335357666015625">
        <ele>441.399993896484375</ele>
        <time>2020-08-23T08:45:07.000Z</time>
      </trkpt>
      <trkpt lat="43.26247296296060085296630859375" lon="-1.621505320072174072265625">
        <ele>441.399993896484375</ele>
        <time>2020-08-23T08:45:08.000Z</time>
      </trkpt>
      <trkpt lat="43.26253197155892848968505859375" lon="-1.621784605085849761962890625">
        <ele>442.20001220703125</ele>
        <time>2020-08-23T08:45:16.000Z</time>
      </trkpt>
      <trkpt lat="43.2625731267035007476806640625" lon="-1.62207554094493389129638671875">
        <ele>442.20001220703125</ele>
        <time>2020-08-23T08:45:24.000Z</time>
      </trkpt>
      <trkpt lat="43.2626391761004924774169921875" lon="-1.62230034358799457550048828125">
        <ele>442.600006103515625</ele>
        <time>2020-08-23T08:45:31.000Z</time>
      </trkpt>
      <trkpt lat="43.26265082694590091705322265625" lon="-1.6223274171352386474609375">
        <ele>442.79998779296875</ele>
        <time>2020-08-23T08:45:32.000Z</time>
      </trkpt>
      <trkpt lat="43.26279935427010059356689453125" lon="-1.6225435025990009307861328125">
        <ele>443.79998779296875</ele>
        <time>2020-08-23T08:45:41.000Z</time>
      </trkpt>
      <trkpt lat="43.2628815807402133941650390625" lon="-1.62264886312186717987060546875">
        <ele>443.399993896484375</ele>
        <time>2020-08-23T08:45:45.000Z</time>
      </trkpt>
      <trkpt lat="43.2629670761525630950927734375" lon="-1.6227473504841327667236328125">
        <ele>443.399993896484375</ele>
        <time>2020-08-23T08:45:49.000Z</time>
      </trkpt>
      <trkpt lat="43.26301024295389652252197265625" lon="-1.62278532050549983978271484375">
        <ele>443.20001220703125</ele>
        <time>2020-08-23T08:45:53.000Z</time>
      </trkpt>
      <trkpt lat="43.263007141649723052978515625" lon="-1.62278565578162670135498046875">
        <ele>443</ele>
        <time>2020-08-23T08:46:09.000Z</time>
      </trkpt>
      <trkpt lat="43.263007141649723052978515625" lon="-1.622783727943897247314453125">
        <ele>443.399993896484375</ele>
        <time>2020-08-23T08:46:25.000Z</time>
      </trkpt>
      <trkpt lat="43.26300680637359619140625" lon="-1.6227838955819606781005859375">
        <ele>443.20001220703125</ele>
        <time>2020-08-23T08:46:33.000Z</time>
      </trkpt>
      <trkpt lat="43.263025917112827301025390625" lon="-1.622799821197986602783203125">
        <ele>443.20001220703125</ele>
        <time>2020-08-23T08:46:39.000Z</time>
      </trkpt>
      <trkpt lat="43.2630394957959651947021484375" lon="-1.62281348370015621185302734375">
        <ele>443</ele>
        <time>2020-08-23T08:46:45.000Z</time>
      </trkpt>
      <trkpt lat="43.2630408369004726409912109375" lon="-1.62281398661434650421142578125">
        <ele>443</ele>
        <time>2020-08-23T08:46:53.000Z</time>
      </trkpt>
      <trkpt lat="43.26304075308144092559814453125" lon="-1.6228137351572513580322265625">
        <ele>443.399993896484375</ele>
        <time>2020-08-23T08:47:08.000Z</time>
      </trkpt>
      <trkpt lat="43.26305835507810115814208984375" lon="-1.62282739765942096710205078125">
        <ele>443.399993896484375</ele>
        <time>2020-08-23T08:47:14.000Z</time>
      </trkpt>
      <trkpt lat="43.26307310722768306732177734375" lon="-1.6228328458964824676513671875">
        <ele>443.399993896484375</ele>
        <time>2020-08-23T08:47:15.000Z</time>
      </trkpt>
      <trkpt lat="43.26321811415255069732666015625" lon="-1.6229148209095001220703125">
        <ele>442.79998779296875</ele>
        <time>2020-08-23T08:47:22.000Z</time>
      </trkpt>
      <trkpt lat="43.26336077414453029632568359375" lon="-1.6229716502130031585693359375">
        <ele>442.79998779296875</ele>
        <time>2020-08-23T08:47:28.000Z</time>
      </trkpt>
      <trkpt lat="43.263494633138179779052734375" lon="-1.62301003932952880859375">
        <ele>442.79998779296875</ele>
        <time>2020-08-23T08:47:33.000Z</time>
      </trkpt>
      <trkpt lat="43.26370418071746826171875" lon="-1.6231134720146656036376953125">
        <ele>442.600006103515625</ele>
        <time>2020-08-23T08:47:39.000Z</time>
      </trkpt>
      <trkpt lat="43.26377266086637973785400390625" lon="-1.62315127439796924591064453125">
        <ele>442</ele>
        <time>2020-08-23T08:47:41.000Z</time>
      </trkpt>
      <trkpt lat="43.263860754668712615966796875" lon="-1.623237021267414093017578125">
        <ele>440.79998779296875</ele>
        <time>2020-08-23T08:47:44.000Z</time>
      </trkpt>
      <trkpt lat="43.2638793624937534332275390625" lon="-1.62327616475522518157958984375">
        <ele>441</ele>
        <time>2020-08-23T08:47:45.000Z</time>
      </trkpt>
      <trkpt lat="43.26388346962630748748779296875" lon="-1.6233525238931179046630859375">
        <ele>441</ele>
        <time>2020-08-23T08:47:47.000Z</time>
      </trkpt>
      <trkpt lat="43.26387911103665828704833984375" lon="-1.623391248285770416259765625">
        <ele>441</ele>
        <time>2020-08-23T08:47:48.000Z</time>
      </trkpt>
      <trkpt lat="43.2638825476169586181640625" lon="-1.62364907562732696533203125">
        <ele>441.399993896484375</ele>
        <time>2020-08-23T08:47:55.000Z</time>
      </trkpt>
      <trkpt lat="43.2639415562152862548828125" lon="-1.6239286959171295166015625">
        <ele>441.600006103515625</ele>
        <time>2020-08-23T08:48:03.000Z</time>
      </trkpt>
      <trkpt lat="43.264079354703426361083984375" lon="-1.62411083467304706573486328125">
        <ele>440.600006103515625</ele>
        <time>2020-08-23T08:48:09.000Z</time>
      </trkpt>
      <trkpt lat="43.26416711322963237762451171875" lon="-1.62426531314849853515625">
        <ele>440</ele>
        <time>2020-08-23T08:48:13.000Z</time>
      </trkpt>
      <trkpt lat="43.2641703821718692779541015625" lon="-1.62431250326335430145263671875">
        <ele>440</ele>
        <time>2020-08-23T08:48:14.000Z</time>
      </trkpt>
      <trkpt lat="43.26416878961026668548583984375" lon="-1.6243576817214488983154296875">
        <ele>439.79998779296875</ele>
        <time>2020-08-23T08:48:15.000Z</time>
      </trkpt>
      <trkpt lat="43.26414682902395725250244140625" lon="-1.6244324482977390289306640625">
        <ele>440</ele>
        <time>2020-08-23T08:48:17.000Z</time>
      </trkpt>
      <trkpt lat="43.2641351781785488128662109375" lon="-1.6244624555110931396484375">
        <ele>440.20001220703125</ele>
        <time>2020-08-23T08:48:18.000Z</time>
      </trkpt>
      <trkpt lat="43.26404842548072338104248046875" lon="-1.6246044449508190155029296875">
        <ele>440.600006103515625</ele>
        <time>2020-08-23T08:48:24.000Z</time>
      </trkpt>
      <trkpt lat="43.2640369422733783721923828125" lon="-1.62462866865098476409912109375">
        <ele>440.79998779296875</ele>
        <time>2020-08-23T08:48:25.000Z</time>
      </trkpt>
      <trkpt lat="43.26399511657655239105224609375" lon="-1.6247023455798625946044921875">
        <ele>441</ele>
        <time>2020-08-23T08:48:28.000Z</time>
      </trkpt>
      <trkpt lat="43.26386452652513980865478515625" lon="-1.62486872635781764984130859375">
        <ele>440.399993896484375</ele>
        <time>2020-08-23T08:48:35.000Z</time>
      </trkpt>
      <trkpt lat="43.26376880519092082977294921875" lon="-1.6250101290643215179443359375">
        <ele>441.20001220703125</ele>
        <time>2020-08-23T08:48:40.000Z</time>
      </trkpt>
      <trkpt lat="43.263732679188251495361328125" lon="-1.62506997585296630859375">
        <ele>441.20001220703125</ele>
        <time>2020-08-23T08:48:42.000Z</time>
      </trkpt>
      <trkpt lat="43.263653554022312164306640625" lon="-1.6252079419791698455810546875">
        <ele>440.399993896484375</ele>
        <time>2020-08-23T08:48:47.000Z</time>
      </trkpt>
      <trkpt lat="43.2635920308530330657958984375" lon="-1.62530207075178623199462890625">
        <ele>439.79998779296875</ele>
        <time>2020-08-23T08:48:50.000Z</time>
      </trkpt>
      <trkpt lat="43.26355171389877796173095703125" lon="-1.625378094613552093505859375">
        <ele>439.399993896484375</ele>
        <time>2020-08-23T08:48:52.000Z</time>
      </trkpt>
      <trkpt lat="43.26347208581864833831787109375" lon="-1.62560314871370792388916015625">
        <ele>439.399993896484375</ele>
        <time>2020-08-23T08:48:58.000Z</time>
      </trkpt>
      <trkpt lat="43.2634800486266613006591796875" lon="-1.62563659250736236572265625">
        <ele>439.20001220703125</ele>
        <time>2020-08-23T08:48:59.000Z</time>
      </trkpt>
      <trkpt lat="43.2635222934186458587646484375" lon="-1.62569384090602397918701171875">
        <ele>438.20001220703125</ele>
        <time>2020-08-23T08:49:01.000Z</time>
      </trkpt>
      <trkpt lat="43.26359345577657222747802734375" lon="-1.625834740698337554931640625">
        <ele>437.20001220703125</ele>
        <time>2020-08-23T08:49:05.000Z</time>
      </trkpt>
      <trkpt lat="43.26359546743333339691162109375" lon="-1.6258828528225421905517578125">
        <ele>437</ele>
        <time>2020-08-23T08:49:06.000Z</time>
      </trkpt>
      <trkpt lat="43.26355238445103168487548828125" lon="-1.62609525024890899658203125">
        <ele>435.600006103515625</ele>
        <time>2020-08-23T08:49:10.000Z</time>
      </trkpt>
      <trkpt lat="43.2635177671909332275390625" lon="-1.62623380310833454132080078125">
        <ele>434.600006103515625</ele>
        <time>2020-08-23T08:49:13.000Z</time>
      </trkpt>
      <trkpt lat="43.26348097063601016998291015625" lon="-1.62637579254806041717529296875">
        <ele>433.79998779296875</ele>
        <time>2020-08-23T08:49:16.000Z</time>
      </trkpt>
      <trkpt lat="43.26346269808709621429443359375" lon="-1.62642650306224822998046875">
        <ele>433.600006103515625</ele>
        <time>2020-08-23T08:49:17.000Z</time>
      </trkpt>
      <trkpt lat="43.2633838243782520294189453125" lon="-1.626611910760402679443359375">
        <ele>432.399993896484375</ele>
        <time>2020-08-23T08:49:21.000Z</time>
      </trkpt>
      <trkpt lat="43.26335021294653415679931640625" lon="-1.62670352496206760406494140625">
        <ele>431.399993896484375</ele>
        <time>2020-08-23T08:49:23.000Z</time>
      </trkpt>
      <trkpt lat="43.26333177275955677032470703125" lon="-1.62675641477108001708984375">
        <ele>431</ele>
        <time>2020-08-23T08:49:24.000Z</time>
      </trkpt>
      <trkpt lat="43.263284750282764434814453125" lon="-1.626919023692607879638671875">
        <ele>430.20001220703125</ele>
        <time>2020-08-23T08:49:27.000Z</time>
      </trkpt>
      <trkpt lat="43.26327527873218059539794921875" lon="-1.6269711591303348541259765625">
        <ele>430.20001220703125</ele>
        <time>2020-08-23T08:49:28.000Z</time>
      </trkpt>
      <trkpt lat="43.2632708363234996795654296875" lon="-1.6271393001079559326171875">
        <ele>428.20001220703125</ele>
        <time>2020-08-23T08:49:31.000Z</time>
      </trkpt>
      <trkpt lat="43.26327946968376636505126953125" lon="-1.6271964646875858306884765625">
        <ele>427.399993896484375</ele>
        <time>2020-08-23T08:49:32.000Z</time>
      </trkpt>
      <trkpt lat="43.26328818686306476593017578125" lon="-1.62725170142948627471923828125">
        <ele>426.600006103515625</ele>
        <time>2020-08-23T08:49:33.000Z</time>
      </trkpt>
      <trkpt lat="43.2632943056523799896240234375" lon="-1.62730953656136989593505859375">
        <ele>426.399993896484375</ele>
        <time>2020-08-23T08:49:34.000Z</time>
      </trkpt>
      <trkpt lat="43.263296149671077728271484375" lon="-1.62744171917438507080078125">
        <ele>425.600006103515625</ele>
        <time>2020-08-23T08:49:36.000Z</time>
      </trkpt>
      <trkpt lat="43.26329036615788936614990234375" lon="-1.62751103751361370086669921875">
        <ele>425.399993896484375</ele>
        <time>2020-08-23T08:49:37.000Z</time>
      </trkpt>
      <trkpt lat="43.26328642666339874267578125" lon="-1.6277262009680271148681640625">
        <ele>425</ele>
        <time>2020-08-23T08:49:40.000Z</time>
      </trkpt>
      <trkpt lat="43.2632902823388576507568359375" lon="-1.62784765474498271942138671875">
        <ele>424.399993896484375</ele>
        <time>2020-08-23T08:49:42.000Z</time>
      </trkpt>
      <trkpt lat="43.2632580958306789398193359375" lon="-1.62808544933795928955078125">
        <ele>423.600006103515625</ele>
        <time>2020-08-23T08:49:47.000Z</time>
      </trkpt>
      <trkpt lat="43.2632047869265079498291015625" lon="-1.62827094085514545440673828125">
        <ele>424</ele>
        <time>2020-08-23T08:49:52.000Z</time>
      </trkpt>
      <trkpt lat="43.263183496892452239990234375" lon="-1.628488786518573760986328125">
        <ele>423.20001220703125</ele>
        <time>2020-08-23T08:49:58.000Z</time>
      </trkpt>
      <trkpt lat="43.2632252387702465057373046875" lon="-1.62873328663408756256103515625">
        <ele>424.399993896484375</ele>
        <time>2020-08-23T08:50:04.000Z</time>
      </trkpt>
      <trkpt lat="43.2632751949131488800048828125" lon="-1.62890276871621608734130859375">
        <ele>423.79998779296875</ele>
        <time>2020-08-23T08:50:09.000Z</time>
      </trkpt>
      <trkpt lat="43.2633201219141483306884765625" lon="-1.62900938652455806732177734375">
        <ele>424</ele>
        <time>2020-08-23T08:50:12.000Z</time>
      </trkpt>
      <trkpt lat="43.26337586157023906707763671875" lon="-1.62911365740001201629638671875">
        <ele>424.399993896484375</ele>
        <time>2020-08-23T08:50:15.000Z</time>
      </trkpt>
      <trkpt lat="43.26351977884769439697265625" lon="-1.6293566487729549407958984375">
        <ele>423.399993896484375</ele>
        <time>2020-08-23T08:50:22.000Z</time>
      </trkpt>
      <trkpt lat="43.26356629841029644012451171875" lon="-1.62942923605442047119140625">
        <ele>423.20001220703125</ele>
        <time>2020-08-23T08:50:24.000Z</time>
      </trkpt>
      <trkpt lat="43.263729326426982879638671875" lon="-1.62964909337460994720458984375">
        <ele>422.600006103515625</ele>
        <time>2020-08-23T08:50:30.000Z</time>
      </trkpt>
      <trkpt lat="43.2638723216950893402099609375" lon="-1.62976576946675777435302734375">
        <ele>422.20001220703125</ele>
        <time>2020-08-23T08:50:34.000Z</time>
      </trkpt>
      <trkpt lat="43.26394625008106231689453125" lon="-1.62981212139129638671875">
        <ele>422</ele>
        <time>2020-08-23T08:50:36.000Z</time>
      </trkpt>
      <trkpt lat="43.26410944573581218719482421875" lon="-1.62991337478160858154296875">
        <ele>422</ele>
        <time>2020-08-23T08:50:42.000Z</time>
      </trkpt>
      <trkpt lat="43.26430968940258026123046875" lon="-1.62997908890247344970703125">
        <ele>422.600006103515625</ele>
        <time>2020-08-23T08:50:49.000Z</time>
      </trkpt>
      <trkpt lat="43.26444220729172229766845703125" lon="-1.63001303561031818389892578125">
        <ele>422.600006103515625</ele>
        <time>2020-08-23T08:50:54.000Z</time>
      </trkpt>
      <trkpt lat="43.264564163982868194580078125" lon="-1.63007925264537334442138671875">
        <ele>422.79998779296875</ele>
        <time>2020-08-23T08:50:59.000Z</time>
      </trkpt>
      <trkpt lat="43.264664076268672943115234375" lon="-1.6301277838647365570068359375">
        <ele>423.20001220703125</ele>
        <time>2020-08-23T08:51:03.000Z</time>
      </trkpt>
      <trkpt lat="43.2647822611033916473388671875" lon="-1.63019710220396518707275390625">
        <ele>423.399993896484375</ele>
        <time>2020-08-23T08:51:08.000Z</time>
      </trkpt>
      <trkpt lat="43.26496590860188007354736328125" lon="-1.63028242997825145721435546875">
        <ele>424</ele>
        <time>2020-08-23T08:51:15.000Z</time>
      </trkpt>
      <trkpt lat="43.26518635265529155731201171875" lon="-1.6303242556750774383544921875">
        <ele>424.20001220703125</ele>
        <time>2020-08-23T08:51:23.000Z</time>
      </trkpt>
      <trkpt lat="43.265297077596187591552734375" lon="-1.630290560424327850341796875">
        <ele>424.399993896484375</ele>
        <time>2020-08-23T08:51:27.000Z</time>
      </trkpt>
      <trkpt lat="43.26539824716746807098388671875" lon="-1.6302209906280040740966796875">
        <ele>424.399993896484375</ele>
        <time>2020-08-23T08:51:31.000Z</time>
      </trkpt>
      <trkpt lat="43.26552162878215312957763671875" lon="-1.63007120601832866668701171875">
        <ele>425</ele>
        <time>2020-08-23T08:51:37.000Z</time>
      </trkpt>
      <trkpt lat="43.2656710781157016754150390625" lon="-1.63002946414053440093994140625">
        <ele>424.600006103515625</ele>
        <time>2020-08-23T08:51:41.000Z</time>
      </trkpt>
      <trkpt lat="43.2658876664936542510986328125" lon="-1.63009383715689182281494140625">
        <ele>423.20001220703125</ele>
        <time>2020-08-23T08:51:46.000Z</time>
      </trkpt>
      <trkpt lat="43.26605354435741901397705078125" lon="-1.63000616244971752166748046875">
        <ele>422.20001220703125</ele>
        <time>2020-08-23T08:51:50.000Z</time>
      </trkpt>
      <trkpt lat="43.26608933508396148681640625" lon="-1.62996743805706501007080078125">
        <ele>422</ele>
        <time>2020-08-23T08:51:51.000Z</time>
      </trkpt>
      <trkpt lat="43.26616217382252216339111328125" lon="-1.62989954464137554168701171875">
        <ele>421.600006103515625</ele>
        <time>2020-08-23T08:51:53.000Z</time>
      </trkpt>
      <trkpt lat="43.2662474177777767181396484375" lon="-1.629878841340541839599609375">
        <ele>420.79998779296875</ele>
        <time>2020-08-23T08:51:55.000Z</time>
      </trkpt>
      <trkpt lat="43.26637390069663524627685546875" lon="-1.6299529373645782470703125">
        <ele>420</ele>
        <time>2020-08-23T08:51:58.000Z</time>
      </trkpt>
      <trkpt lat="43.26639753766357898712158203125" lon="-1.6300033964216709136962890625">
        <ele>419.399993896484375</ele>
        <time>2020-08-23T08:51:59.000Z</time>
      </trkpt>
      <trkpt lat="43.26641765423119068145751953125" lon="-1.63005150854587554931640625">
        <ele>418.79998779296875</ele>
        <time>2020-08-23T08:52:00.000Z</time>
      </trkpt>
      <trkpt lat="43.26642922125756740570068359375" lon="-1.63010607473552227020263671875">
        <ele>418.20001220703125</ele>
        <time>2020-08-23T08:52:01.000Z</time>
      </trkpt>
      <trkpt lat="43.2664345018565654754638671875" lon="-1.630159802734851837158203125">
        <ele>418</ele>
        <time>2020-08-23T08:52:02.000Z</time>
      </trkpt>
      <trkpt lat="43.26646886765956878662109375" lon="-1.630388796329498291015625">
        <ele>417.399993896484375</ele>
        <time>2020-08-23T08:52:06.000Z</time>
      </trkpt>
      <trkpt lat="43.2665139622986316680908203125" lon="-1.63050354458391666412353515625">
        <ele>417.20001220703125</ele>
        <time>2020-08-23T08:52:08.000Z</time>
      </trkpt>
      <trkpt lat="43.26665704138576984405517578125" lon="-1.6306650638580322265625">
        <ele>416</ele>
        <time>2020-08-23T08:52:12.000Z</time>
      </trkpt>
      <trkpt lat="43.26683901250362396240234375" lon="-1.63062357343733310699462890625">
        <ele>415</ele>
        <time>2020-08-23T08:52:16.000Z</time>
      </trkpt>
      <trkpt lat="43.2670255936682224273681640625" lon="-1.6305354796350002288818359375">
        <ele>414.600006103515625</ele>
        <time>2020-08-23T08:52:21.000Z</time>
      </trkpt>
      <trkpt lat="43.26718057505786418914794921875" lon="-1.63043732754886150360107421875">
        <ele>414.600006103515625</ele>
        <time>2020-08-23T08:52:26.000Z</time>
      </trkpt>
      <trkpt lat="43.26732407324016094207763671875" lon="-1.63039558567106723785400390625">
        <ele>414.20001220703125</ele>
        <time>2020-08-23T08:52:30.000Z</time>
      </trkpt>
      <trkpt lat="43.2674150168895721435546875" lon="-1.63037513382732868194580078125">
        <ele>414</ele>
        <time>2020-08-23T08:52:33.000Z</time>
      </trkpt>
      <trkpt lat="43.26745768077671527862548828125" lon="-1.63037194870412349700927734375">
        <ele>413.79998779296875</ele>
        <time>2020-08-23T08:52:35.000Z</time>
      </trkpt>
      <trkpt lat="43.26753982342779636383056640625" lon="-1.630481667816638946533203125">
        <ele>414</ele>
        <time>2020-08-23T08:52:39.000Z</time>
      </trkpt>
      <trkpt lat="43.26754032634198665618896484375" lon="-1.63064184598624706268310546875">
        <ele>413.79998779296875</ele>
        <time>2020-08-23T08:52:43.000Z</time>
      </trkpt>
      <trkpt lat="43.2675432600080966949462890625" lon="-1.6306830011308193206787109375">
        <ele>413.79998779296875</ele>
        <time>2020-08-23T08:52:44.000Z</time>
      </trkpt>
      <trkpt lat="43.26757536269724369049072265625" lon="-1.6309927962720394134521484375">
        <ele>414.20001220703125</ele>
        <time>2020-08-23T08:52:52.000Z</time>
      </trkpt>
      <trkpt lat="43.26760520227253437042236328125" lon="-1.63129328750073909759521484375">
        <ele>413.79998779296875</ele>
        <time>2020-08-23T08:53:00.000Z</time>
      </trkpt>
      <trkpt lat="43.2676072977483272552490234375" lon="-1.63133972324430942535400390625">
        <ele>413.79998779296875</ele>
        <time>2020-08-23T08:53:01.000Z</time>
      </trkpt>
      <trkpt lat="43.2675952278077602386474609375" lon="-1.6315496899187564849853515625">
        <ele>413.399993896484375</ele>
        <time>2020-08-23T08:53:05.000Z</time>
      </trkpt>
      <trkpt lat="43.26756983064115047454833984375" lon="-1.631700061261653900146484375">
        <ele>413</ele>
        <time>2020-08-23T08:53:08.000Z</time>
      </trkpt>
      <trkpt lat="43.2675506360828876495361328125" lon="-1.631797961890697479248046875">
        <ele>413</ele>
        <time>2020-08-23T08:53:10.000Z</time>
      </trkpt>
      <trkpt lat="43.26749791391193866729736328125" lon="-1.63207867182791233062744140625">
        <ele>412.600006103515625</ele>
        <time>2020-08-23T08:53:16.000Z</time>
      </trkpt>
      <trkpt lat="43.2674869336187839508056640625" lon="-1.632215715944766998291015625">
        <ele>411.79998779296875</ele>
        <time>2020-08-23T08:53:19.000Z</time>
      </trkpt>
      <trkpt lat="43.26751400716602802276611328125" lon="-1.6324071586132049560546875">
        <ele>411.399993896484375</ele>
        <time>2020-08-23T08:53:23.000Z</time>
      </trkpt>
      <trkpt lat="43.2675705850124359130859375" lon="-1.63255811668932437896728515625">
        <ele>410.79998779296875</ele>
        <time>2020-08-23T08:53:26.000Z</time>
      </trkpt>
      <trkpt lat="43.26760880649089813232421875" lon="-1.6326678358018398284912109375">
        <ele>410.600006103515625</ele>
        <time>2020-08-23T08:53:28.000Z</time>
      </trkpt>
      <trkpt lat="43.2676215469837188720703125" lon="-1.6327263414859771728515625">
        <ele>410.399993896484375</ele>
        <time>2020-08-23T08:53:29.000Z</time>
      </trkpt>
      <trkpt lat="43.267631940543651580810546875" lon="-1.63278643973171710968017578125">
        <ele>409.79998779296875</ele>
        <time>2020-08-23T08:53:30.000Z</time>
      </trkpt>
      <trkpt lat="43.26764040626585483551025390625" lon="-1.63284930400550365447998046875">
        <ele>409.20001220703125</ele>
        <time>2020-08-23T08:53:31.000Z</time>
      </trkpt>
      <trkpt lat="43.2676458545029163360595703125" lon="-1.63291049189865589141845703125">
        <ele>409</ele>
        <time>2020-08-23T08:53:32.000Z</time>
      </trkpt>
      <trkpt lat="43.26763437129557132720947265625" lon="-1.63303035311400890350341796875">
        <ele>408.79998779296875</ele>
        <time>2020-08-23T08:53:34.000Z</time>
      </trkpt>
      <trkpt lat="43.267580308020114898681640625" lon="-1.633207462728023529052734375">
        <ele>408.79998779296875</ele>
        <time>2020-08-23T08:53:37.000Z</time>
      </trkpt>
      <trkpt lat="43.26754510402679443359375" lon="-1.63330192677676677703857421875">
        <ele>408.20001220703125</ele>
        <time>2020-08-23T08:53:39.000Z</time>
      </trkpt>
      <trkpt lat="43.26753596775233745574951171875" lon="-1.63334735669195652008056640625">
        <ele>408.20001220703125</ele>
        <time>2020-08-23T08:53:40.000Z</time>
      </trkpt>
      <trkpt lat="43.26755893416702747344970703125" lon="-1.63347895257174968719482421875">
        <ele>407.79998779296875</ele>
        <time>2020-08-23T08:53:43.000Z</time>
      </trkpt>
      <trkpt lat="43.267678208649158477783203125" lon="-1.63358590565621852874755859375">
        <ele>408</ele>
        <time>2020-08-23T08:53:47.000Z</time>
      </trkpt>
      <trkpt lat="43.26785749755799770355224609375" lon="-1.63358774967491626739501953125">
        <ele>406.79998779296875</ele>
        <time>2020-08-23T08:53:52.000Z</time>
      </trkpt>
      <trkpt lat="43.2679579965770244598388671875" lon="-1.63350610993802547454833984375">
        <ele>406.20001220703125</ele>
        <time>2020-08-23T08:53:55.000Z</time>
      </trkpt>
      <trkpt lat="43.26799009926617145538330078125" lon="-1.6334704868495464324951171875">
        <ele>406.20001220703125</ele>
        <time>2020-08-23T08:53:56.000Z</time>
      </trkpt>
      <trkpt lat="43.2680542208254337310791015625" lon="-1.6334034316241741180419921875">
        <ele>405.399993896484375</ele>
        <time>2020-08-23T08:53:58.000Z</time>
      </trkpt>
      <trkpt lat="43.2680954597890377044677734375" lon="-1.6333799622952938079833984375">
        <ele>404.600006103515625</ele>
        <time>2020-08-23T08:53:59.000Z</time>
      </trkpt>
      <trkpt lat="43.2681397162377834320068359375" lon="-1.63336344994604587554931640625">
        <ele>404</ele>
        <time>2020-08-23T08:54:00.000Z</time>
      </trkpt>
      <trkpt lat="43.2681786082684993743896484375" lon="-1.63335557095706462860107421875">
        <ele>402.79998779296875</ele>
        <time>2020-08-23T08:54:01.000Z</time>
      </trkpt>
      <trkpt lat="43.2682572305202484130859375" lon="-1.633361019194126129150390625">
        <ele>401.399993896484375</ele>
        <time>2020-08-23T08:54:03.000Z</time>
      </trkpt>
      <trkpt lat="43.26840148307383060455322265625" lon="-1.6333662159740924835205078125">
        <ele>400.399993896484375</ele>
        <time>2020-08-23T08:54:06.000Z</time>
      </trkpt>
      <trkpt lat="43.26845236122608184814453125" lon="-1.633359678089618682861328125">
        <ele>400.20001220703125</ele>
        <time>2020-08-23T08:54:07.000Z</time>
      </trkpt>
      <trkpt lat="43.26850508339703083038330078125" lon="-1.63334886543452739715576171875">
        <ele>399.79998779296875</ele>
        <time>2020-08-23T08:54:08.000Z</time>
      </trkpt>
      <trkpt lat="43.26856006868183612823486328125" lon="-1.6333405673503875732421875">
        <ele>398.600006103515625</ele>
        <time>2020-08-23T08:54:09.000Z</time>
      </trkpt>
      <trkpt lat="43.26865830458700656890869140625" lon="-1.6333226300776004791259765625">
        <ele>398</ele>
        <time>2020-08-23T08:54:11.000Z</time>
      </trkpt>
      <trkpt lat="43.26874296180903911590576171875" lon="-1.63331198506057262420654296875">
        <ele>397.399993896484375</ele>
        <time>2020-08-23T08:54:13.000Z</time>
      </trkpt>
      <trkpt lat="43.2687775790691375732421875" lon="-1.63332724012434482574462890625">
        <ele>397.20001220703125</ele>
        <time>2020-08-23T08:54:14.000Z</time>
      </trkpt>
      <trkpt lat="43.26880968175828456878662109375" lon="-1.63335330784320831298828125">
        <ele>396.79998779296875</ele>
        <time>2020-08-23T08:54:15.000Z</time>
      </trkpt>
      <trkpt lat="43.2688414491713047027587890625" lon="-1.63338541053235530853271484375">
        <ele>396.399993896484375</ele>
        <time>2020-08-23T08:54:16.000Z</time>
      </trkpt>
      <trkpt lat="43.26889283023774623870849609375" lon="-1.63347878493368625640869140625">
        <ele>395.20001220703125</ele>
        <time>2020-08-23T08:54:18.000Z</time>
      </trkpt>
      <trkpt lat="43.2689125277101993560791015625" lon="-1.633534021675586700439453125">
        <ele>395</ele>
        <time>2020-08-23T08:54:19.000Z</time>
      </trkpt>
      <trkpt lat="43.2689313031733036041259765625" lon="-1.63374683819711208343505859375">
        <ele>394.399993896484375</ele>
        <time>2020-08-23T08:54:23.000Z</time>
      </trkpt>
      <trkpt lat="43.26894848607480525970458984375" lon="-1.63386871106922626495361328125">
        <ele>394.20001220703125</ele>
        <time>2020-08-23T08:54:25.000Z</time>
      </trkpt>
      <trkpt lat="43.26897966675460338592529296875" lon="-1.633994691073894500732421875">
        <ele>394.20001220703125</ele>
        <time>2020-08-23T08:54:27.000Z</time>
      </trkpt>
      <trkpt lat="43.2689993642270565032958984375" lon="-1.6340540349483489990234375">
        <ele>394</ele>
        <time>2020-08-23T08:54:28.000Z</time>
      </trkpt>
      <trkpt lat="43.2690637372434139251708984375" lon="-1.63428059779107570648193359375">
        <ele>393.20001220703125</ele>
        <time>2020-08-23T08:54:32.000Z</time>
      </trkpt>
      <trkpt lat="43.2690744660794734954833984375" lon="-1.63439375348389148712158203125">
        <ele>393.20001220703125</ele>
        <time>2020-08-23T08:54:34.000Z</time>
      </trkpt>
      <trkpt lat="43.26907672919332981109619140625" lon="-1.634521074593067169189453125">
        <ele>393</ele>
        <time>2020-08-23T08:54:36.000Z</time>
      </trkpt>
      <trkpt lat="43.2690737955272197723388671875" lon="-1.634645126760005950927734375">
        <ele>391.20001220703125</ele>
        <time>2020-08-23T08:54:38.000Z</time>
      </trkpt>
      <trkpt lat="43.26908108778297901153564453125" lon="-1.6347703523933887481689453125">
        <ele>390.20001220703125</ele>
        <time>2020-08-23T08:54:40.000Z</time>
      </trkpt>
      <trkpt lat="43.26911947689950466156005859375" lon="-1.63487453944981098175048828125">
        <ele>389.399993896484375</ele>
        <time>2020-08-23T08:54:42.000Z</time>
      </trkpt>
      <trkpt lat="43.26914713717997074127197265625" lon="-1.634906642138957977294921875">
        <ele>389.399993896484375</ele>
        <time>2020-08-23T08:54:43.000Z</time>
      </trkpt>
      <trkpt lat="43.2692129351198673248291015625" lon="-1.6349343024194240570068359375">
        <ele>389.20001220703125</ele>
        <time>2020-08-23T08:54:45.000Z</time>
      </trkpt>
      <trkpt lat="43.269278816878795623779296875" lon="-1.634921394288539886474609375">
        <ele>388.20001220703125</ele>
        <time>2020-08-23T08:54:47.000Z</time>
      </trkpt>
      <trkpt lat="43.26930974610149860382080078125" lon="-1.63490370847284793853759765625">
        <ele>387.600006103515625</ele>
        <time>2020-08-23T08:54:48.000Z</time>
      </trkpt>
      <trkpt lat="43.26934243552386760711669921875" lon="-1.63488761521875858306884765625">
        <ele>386.600006103515625</ele>
        <time>2020-08-23T08:54:49.000Z</time>
      </trkpt>
      <trkpt lat="43.269374370574951171875" lon="-1.63487319834530353546142578125">
        <ele>386.399993896484375</ele>
        <time>2020-08-23T08:54:50.000Z</time>
      </trkpt>
      <trkpt lat="43.26944771222770214080810546875" lon="-1.63486649282276630401611328125">
        <ele>385.600006103515625</ele>
        <time>2020-08-23T08:54:52.000Z</time>
      </trkpt>
      <trkpt lat="43.2696082256734371185302734375" lon="-1.63493254221975803375244140625">
        <ele>384.600006103515625</ele>
        <time>2020-08-23T08:54:56.000Z</time>
      </trkpt>
      <trkpt lat="43.2696521468460559844970703125" lon="-1.634956933557987213134765625">
        <ele>384.20001220703125</ele>
        <time>2020-08-23T08:54:57.000Z</time>
      </trkpt>
      <trkpt lat="43.26969263143837451934814453125" lon="-1.6349772177636623382568359375">
        <ele>383.79998779296875</ele>
        <time>2020-08-23T08:54:58.000Z</time>
      </trkpt>
      <trkpt lat="43.269731104373931884765625" lon="-1.6350089013576507568359375">
        <ele>383.399993896484375</ele>
        <time>2020-08-23T08:54:59.000Z</time>
      </trkpt>
      <trkpt lat="43.269767649471759796142578125" lon="-1.63506380282342433929443359375">
        <ele>382.79998779296875</ele>
        <time>2020-08-23T08:55:00.000Z</time>
      </trkpt>
      <trkpt lat="43.26983897946774959564208984375" lon="-1.63519104011356830596923828125">
        <ele>381.600006103515625</ele>
        <time>2020-08-23T08:55:02.000Z</time>
      </trkpt>
      <trkpt lat="43.26991626061499118804931640625" lon="-1.6353151760995388031005859375">
        <ele>380.600006103515625</ele>
        <time>2020-08-23T08:55:04.000Z</time>
      </trkpt>
      <trkpt lat="43.26996378600597381591796875" lon="-1.63536471314728260040283203125">
        <ele>379.600006103515625</ele>
        <time>2020-08-23T08:55:05.000Z</time>
      </trkpt>
      <trkpt lat="43.27006881125271320343017578125" lon="-1.635459177196025848388671875">
        <ele>378</ele>
        <time>2020-08-23T08:55:07.000Z</time>
      </trkpt>
      <trkpt lat="43.27011608518660068511962890625" lon="-1.635506451129913330078125">
        <ele>377.79998779296875</ele>
        <time>2020-08-23T08:55:08.000Z</time>
      </trkpt>
      <trkpt lat="43.27018506824970245361328125" lon="-1.63561969064176082611083984375">
        <ele>376.399993896484375</ele>
        <time>2020-08-23T08:55:10.000Z</time>
      </trkpt>
      <trkpt lat="43.27022672630846500396728515625" lon="-1.635742820799350738525390625">
        <ele>375.79998779296875</ele>
        <time>2020-08-23T08:55:12.000Z</time>
      </trkpt>
      <trkpt lat="43.27023829333484172821044921875" lon="-1.635805182158946990966796875">
        <ele>375.79998779296875</ele>
        <time>2020-08-23T08:55:13.000Z</time>
      </trkpt>
      <trkpt lat="43.27025388367474079132080078125" lon="-1.635921858251094818115234375">
        <ele>375.399993896484375</ele>
        <time>2020-08-23T08:55:15.000Z</time>
      </trkpt>
      <trkpt lat="43.27033183537423610687255859375" lon="-1.63612847216427326202392578125">
        <ele>375.399993896484375</ele>
        <time>2020-08-23T08:55:19.000Z</time>
      </trkpt>
      <trkpt lat="43.27035848982632160186767578125" lon="-1.636175327003002166748046875">
        <ele>375.399993896484375</ele>
        <time>2020-08-23T08:55:20.000Z</time>
      </trkpt>
      <trkpt lat="43.2704081945121288299560546875" lon="-1.63627398200333118438720703125">
        <ele>375.20001220703125</ele>
        <time>2020-08-23T08:55:22.000Z</time>
      </trkpt>
      <trkpt lat="43.2705017365515232086181640625" lon="-1.63642854429781436920166015625">
        <ele>374.20001220703125</ele>
        <time>2020-08-23T08:55:25.000Z</time>
      </trkpt>
      <trkpt lat="43.27053350396454334259033203125" lon="-1.63648218847811222076416015625">
        <ele>374.20001220703125</ele>
        <time>2020-08-23T08:55:26.000Z</time>
      </trkpt>
      <trkpt lat="43.27058999799191951751708984375" lon="-1.6366043128073215484619140625">
        <ele>373.399993896484375</ele>
        <time>2020-08-23T08:55:28.000Z</time>
      </trkpt>
      <trkpt lat="43.2706231065094470977783203125" lon="-1.63673917762935161590576171875">
        <ele>372.79998779296875</ele>
        <time>2020-08-23T08:55:30.000Z</time>
      </trkpt>
      <trkpt lat="43.2706267945468425750732421875" lon="-1.63681193254888057708740234375">
        <ele>372.600006103515625</ele>
        <time>2020-08-23T08:55:31.000Z</time>
      </trkpt>
      <trkpt lat="43.27061899937689304351806640625" lon="-1.636938415467739105224609375">
        <ele>372.399993896484375</ele>
        <time>2020-08-23T08:55:33.000Z</time>
      </trkpt>
      <trkpt lat="43.27059553004801273345947265625" lon="-1.6370720230042934417724609375">
        <ele>372.399993896484375</ele>
        <time>2020-08-23T08:55:36.000Z</time>
      </trkpt>
      <trkpt lat="43.270554877817630767822265625" lon="-1.6373838298022747039794921875">
        <ele>372.79998779296875</ele>
        <time>2020-08-23T08:55:44.000Z</time>
      </trkpt>
      <trkpt lat="43.27058195136487483978271484375" lon="-1.63766353391110897064208984375">
        <ele>372.399993896484375</ele>
        <time>2020-08-23T08:55:50.000Z</time>
      </trkpt>
      <trkpt lat="43.2705932669341564178466796875" lon="-1.6377878375351428985595703125">
        <ele>371.79998779296875</ele>
        <time>2020-08-23T08:55:53.000Z</time>
      </trkpt>
      <trkpt lat="43.2705974578857421875" lon="-1.637889258563518524169921875">
        <ele>371.399993896484375</ele>
        <time>2020-08-23T08:55:56.000Z</time>
      </trkpt>
      <trkpt lat="43.27056719921529293060302734375" lon="-1.638079695403575897216796875">
        <ele>372.399993896484375</ele>
        <time>2020-08-23T08:56:02.000Z</time>
      </trkpt>
      <trkpt lat="43.27046209014952182769775390625" lon="-1.63830927573144435882568359375">
        <ele>372.20001220703125</ele>
        <time>2020-08-23T08:56:10.000Z</time>
      </trkpt>
      <trkpt lat="43.2703833840787410736083984375" lon="-1.6384664364159107208251953125">
        <ele>373</ele>
        <time>2020-08-23T08:56:16.000Z</time>
      </trkpt>
      <trkpt lat="43.27035932801663875579833984375" lon="-1.638513542711734771728515625">
        <ele>373.600006103515625</ele>
        <time>2020-08-23T08:56:18.000Z</time>
      </trkpt>
      <trkpt lat="43.270349688827991485595703125" lon="-1.63853625766932964324951171875">
        <ele>374</ele>
        <time>2020-08-23T08:56:19.000Z</time>
      </trkpt>
      <trkpt lat="43.27030434273183345794677734375" lon="-1.63867807947099208831787109375">
        <ele>374.20001220703125</ele>
        <time>2020-08-23T08:56:26.000Z</time>
      </trkpt>
      <trkpt lat="43.27030149288475513458251953125" lon="-1.6387038119137287139892578125">
        <ele>374</ele>
        <time>2020-08-23T08:56:31.000Z</time>
      </trkpt>
      <trkpt lat="43.270303420722484588623046875" lon="-1.6387028060853481292724609375">
        <ele>374.399993896484375</ele>
        <time>2020-08-23T08:56:50.000Z</time>
      </trkpt>
      <trkpt lat="43.2703037559986114501953125" lon="-1.63869987241923809051513671875">
        <ele>374</ele>
        <time>2020-08-23T08:57:39.000Z</time>
      </trkpt>
      <trkpt lat="43.270296715199947357177734375" lon="-1.63872887380421161651611328125">
        <ele>373.79998779296875</ele>
        <time>2020-08-23T08:57:50.000Z</time>
      </trkpt>
      <trkpt lat="43.2702834717929363250732421875" lon="-1.6389150358736515045166015625">
        <ele>373.20001220703125</ele>
        <time>2020-08-23T08:57:55.000Z</time>
      </trkpt>
      <trkpt lat="43.2702667079865932464599609375" lon="-1.63918099366128444671630859375">
        <ele>372.20001220703125</ele>
        <time>2020-08-23T08:58:00.000Z</time>
      </trkpt>
      <trkpt lat="43.27025271020829677581787109375" lon="-1.63928509689867496490478515625">
        <ele>371.79998779296875</ele>
        <time>2020-08-23T08:58:02.000Z</time>
      </trkpt>
      <trkpt lat="43.27019638381898403167724609375" lon="-1.6396596841514110565185546875">
        <ele>372.20001220703125</ele>
        <time>2020-08-23T08:58:10.000Z</time>
      </trkpt>
      <trkpt lat="43.27010250650346279144287109375" lon="-1.6399835608899593353271484375">
        <ele>372</ele>
        <time>2020-08-23T08:58:17.000Z</time>
      </trkpt>
      <trkpt lat="43.2700631953775882720947265625" lon="-1.64008188061416149139404296875">
        <ele>370.600006103515625</ele>
        <time>2020-08-23T08:58:19.000Z</time>
      </trkpt>
      <trkpt lat="43.2700087130069732666015625" lon="-1.64022856391966342926025390625">
        <ele>369.600006103515625</ele>
        <time>2020-08-23T08:58:22.000Z</time>
      </trkpt>
      <trkpt lat="43.26997811906039714813232421875" lon="-1.6403315775096416473388671875">
        <ele>369.399993896484375</ele>
        <time>2020-08-23T08:58:24.000Z</time>
      </trkpt>
      <trkpt lat="43.2699324376881122589111328125" lon="-1.64050416089594364166259765625">
        <ele>368.399993896484375</ele>
        <time>2020-08-23T08:58:27.000Z</time>
      </trkpt>
      <trkpt lat="43.269914500415325164794921875" lon="-1.64061295799911022186279296875">
        <ele>366.79998779296875</ele>
        <time>2020-08-23T08:58:29.000Z</time>
      </trkpt>
      <trkpt lat="43.26990888454020023345947265625" lon="-1.6406655125319957733154296875">
        <ele>366.20001220703125</ele>
        <time>2020-08-23T08:58:30.000Z</time>
      </trkpt>
      <trkpt lat="43.269903101027011871337890625" lon="-1.640716977417469024658203125">
        <ele>365.79998779296875</ele>
        <time>2020-08-23T08:58:31.000Z</time>
      </trkpt>
      <trkpt lat="43.2698616944253444671630859375" lon="-1.640919484198093414306640625">
        <ele>364.600006103515625</ele>
        <time>2020-08-23T08:58:35.000Z</time>
      </trkpt>
      <trkpt lat="43.269817940890789031982421875" lon="-1.64100388996303081512451171875">
        <ele>363.600006103515625</ele>
        <time>2020-08-23T08:58:37.000Z</time>
      </trkpt>
      <trkpt lat="43.2697899453341960906982421875" lon="-1.64104261435568332672119140625">
        <ele>362.79998779296875</ele>
        <time>2020-08-23T08:58:38.000Z</time>
      </trkpt>
      <trkpt lat="43.26972984708845615386962890625" lon="-1.641110591590404510498046875">
        <ele>361.20001220703125</ele>
        <time>2020-08-23T08:58:40.000Z</time>
      </trkpt>
      <trkpt lat="43.26970319263637065887451171875" lon="-1.64113749749958515167236328125">
        <ele>360</ele>
        <time>2020-08-23T08:58:41.000Z</time>
      </trkpt>
      <trkpt lat="43.269680477678775787353515625" lon="-1.64116197265684604644775390625">
        <ele>359.20001220703125</ele>
        <time>2020-08-23T08:58:42.000Z</time>
      </trkpt>
      <trkpt lat="43.2696598581969738006591796875" lon="-1.64118468761444091796875">
        <ele>358.20001220703125</ele>
        <time>2020-08-23T08:58:43.000Z</time>
      </trkpt>
      <trkpt lat="43.269606046378612518310546875" lon="-1.64127462543547153472900390625">
        <ele>357.20001220703125</ele>
        <time>2020-08-23T08:58:46.000Z</time>
      </trkpt>
      <trkpt lat="43.26959221623837947845458984375" lon="-1.64131687022745609283447265625">
        <ele>357.20001220703125</ele>
        <time>2020-08-23T08:58:47.000Z</time>
      </trkpt>
      <trkpt lat="43.26955114491283893585205078125" lon="-1.64150194264948368072509765625">
        <ele>356</ele>
        <time>2020-08-23T08:58:51.000Z</time>
      </trkpt>
      <trkpt lat="43.2695267535746097564697265625" lon="-1.64159975945949554443359375">
        <ele>354.600006103515625</ele>
        <time>2020-08-23T08:58:53.000Z</time>
      </trkpt>
      <trkpt lat="43.26949012465775012969970703125" lon="-1.641748957335948944091796875">
        <ele>353.399993896484375</ele>
        <time>2020-08-23T08:58:56.000Z</time>
      </trkpt>
      <trkpt lat="43.269418962299823760986328125" lon="-1.64194199256598949432373046875">
        <ele>352.20001220703125</ele>
        <time>2020-08-23T08:59:00.000Z</time>
      </trkpt>
      <trkpt lat="43.26934981159865856170654296875" lon="-1.64206688292324542999267578125">
        <ele>351.20001220703125</ele>
        <time>2020-08-23T08:59:03.000Z</time>
      </trkpt>
      <trkpt lat="43.26928996481001377105712890625" lon="-1.64213410578668117523193359375">
        <ele>349</ele>
        <time>2020-08-23T08:59:05.000Z</time>
      </trkpt>
      <trkpt lat="43.26925828121602535247802734375" lon="-1.6421678848564624786376953125">
        <ele>348.20001220703125</ele>
        <time>2020-08-23T08:59:06.000Z</time>
      </trkpt>
      <trkpt lat="43.26922626234591007232666015625" lon="-1.642202250659465789794921875">
        <ele>347.20001220703125</ele>
        <time>2020-08-23T08:59:07.000Z</time>
      </trkpt>
      <trkpt lat="43.26915903948247432708740234375" lon="-1.6422718204557895660400390625">
        <ele>345.399993896484375</ele>
        <time>2020-08-23T08:59:09.000Z</time>
      </trkpt>
      <trkpt lat="43.26912433840334415435791015625" lon="-1.64230660535395145416259765625">
        <ele>344</ele>
        <time>2020-08-23T08:59:10.000Z</time>
      </trkpt>
      <trkpt lat="43.26905049383640289306640625" lon="-1.64237223565578460693359375">
        <ele>342.600006103515625</ele>
        <time>2020-08-23T08:59:12.000Z</time>
      </trkpt>
      <trkpt lat="43.26897849328815937042236328125" lon="-1.64242747239768505096435546875">
        <ele>341.20001220703125</ele>
        <time>2020-08-23T08:59:14.000Z</time>
      </trkpt>
      <trkpt lat="43.2689440436661243438720703125" lon="-1.64245043881237506866455078125">
        <ele>340.600006103515625</ele>
        <time>2020-08-23T08:59:15.000Z</time>
      </trkpt>
      <trkpt lat="43.2689155451953411102294921875" lon="-1.64247491396963596343994140625">
        <ele>340</ele>
        <time>2020-08-23T08:59:16.000Z</time>
      </trkpt>
      <trkpt lat="43.2688960991799831390380859375" lon="-1.64250433444976806640625">
        <ele>339.600006103515625</ele>
        <time>2020-08-23T08:59:17.000Z</time>
      </trkpt>
      <trkpt lat="43.268885202705860137939453125" lon="-1.64257013238966464996337890625">
        <ele>338.79998779296875</ele>
        <time>2020-08-23T08:59:19.000Z</time>
      </trkpt>
      <trkpt lat="43.2689277827739715576171875" lon="-1.6426406241953372955322265625">
        <ele>338</ele>
        <time>2020-08-23T08:59:22.000Z</time>
      </trkpt>
      <trkpt lat="43.2689507491886615753173828125" lon="-1.64265261031687259674072265625">
        <ele>337.79998779296875</ele>
        <time>2020-08-23T08:59:23.000Z</time>
      </trkpt>
      <trkpt lat="43.26900221407413482666015625" lon="-1.64266618900001049041748046875">
        <ele>337.399993896484375</ele>
        <time>2020-08-23T08:59:25.000Z</time>
      </trkpt>
      <trkpt lat="43.26909801922738552093505859375" lon="-1.6427039913833141326904296875">
        <ele>337</ele>
        <time>2020-08-23T08:59:28.000Z</time>
      </trkpt>
      <trkpt lat="43.26913607306778430938720703125" lon="-1.6427177377045154571533203125">
        <ele>336.79998779296875</ele>
        <time>2020-08-23T08:59:29.000Z</time>
      </trkpt>
      <trkpt lat="43.26921419240534305572509765625" lon="-1.642735004425048828125">
        <ele>335.79998779296875</ele>
        <time>2020-08-23T08:59:31.000Z</time>
      </trkpt>
      <trkpt lat="43.26929549686610698699951171875" lon="-1.64273458532989025115966796875">
        <ele>334.600006103515625</ele>
        <time>2020-08-23T08:59:33.000Z</time>
      </trkpt>
      <trkpt lat="43.26933790929615497589111328125" lon="-1.6427294723689556121826171875">
        <ele>333.79998779296875</ele>
        <time>2020-08-23T08:59:34.000Z</time>
      </trkpt>
      <trkpt lat="43.269380740821361541748046875" lon="-1.64272134192287921905517578125">
        <ele>333.20001220703125</ele>
        <time>2020-08-23T08:59:35.000Z</time>
      </trkpt>
      <trkpt lat="43.26944553293287754058837890625" lon="-1.6426989622414112091064453125">
        <ele>332.20001220703125</ele>
        <time>2020-08-23T08:59:37.000Z</time>
      </trkpt>
      <trkpt lat="43.26946481131017208099365234375" lon="-1.642687730491161346435546875">
        <ele>331.79998779296875</ele>
        <time>2020-08-23T08:59:38.000Z</time>
      </trkpt>
      <trkpt lat="43.269503451883792877197265625" lon="-1.64267356507480144500732421875">
        <ele>331</ele>
        <time>2020-08-23T08:59:41.000Z</time>
      </trkpt>
      <trkpt lat="43.2695485465228557586669921875" lon="-1.6426654346287250518798828125">
        <ele>330.600006103515625</ele>
        <time>2020-08-23T08:59:43.000Z</time>
      </trkpt>
      <trkpt lat="43.2696373946964740753173828125" lon="-1.64262235164642333984375">
        <ele>330</ele>
        <time>2020-08-23T08:59:46.000Z</time>
      </trkpt>
      <trkpt lat="43.26967435888946056365966796875" lon="-1.64259594865143299102783203125">
        <ele>329.79998779296875</ele>
        <time>2020-08-23T08:59:47.000Z</time>
      </trkpt>
      <trkpt lat="43.26970788650214672088623046875" lon="-1.64256124757230281829833984375">
        <ele>329.399993896484375</ele>
        <time>2020-08-23T08:59:48.000Z</time>
      </trkpt>
      <trkpt lat="43.26976018957793712615966796875" lon="-1.64247206412255764007568359375">
        <ele>328.79998779296875</ele>
        <time>2020-08-23T08:59:50.000Z</time>
      </trkpt>
      <trkpt lat="43.2698040269315242767333984375" lon="-1.6423930227756500244140625">
        <ele>327.399993896484375</ele>
        <time>2020-08-23T08:59:52.000Z</time>
      </trkpt>
      <trkpt lat="43.269830681383609771728515625" lon="-1.64236645214259624481201171875">
        <ele>326</ele>
        <time>2020-08-23T08:59:53.000Z</time>
      </trkpt>
      <trkpt lat="43.2699046097695827484130859375" lon="-1.642361171543598175048828125">
        <ele>325</ele>
        <time>2020-08-23T08:59:55.000Z</time>
      </trkpt>
      <trkpt lat="43.26998130418360233306884765625" lon="-1.64239914156496524810791015625">
        <ele>324.79998779296875</ele>
        <time>2020-08-23T08:59:57.000Z</time>
      </trkpt>
      <trkpt lat="43.27002069912850856781005859375" lon="-1.64242344908416271209716796875">
        <ele>324.20001220703125</ele>
        <time>2020-08-23T08:59:58.000Z</time>
      </trkpt>
      <trkpt lat="43.2700615189969539642333984375" lon="-1.64245278574526309967041015625">
        <ele>323.79998779296875</ele>
        <time>2020-08-23T08:59:59.000Z</time>
      </trkpt>
      <trkpt lat="43.2701014168560504913330078125" lon="-1.64248229004442691802978515625">
        <ele>323</ele>
        <time>2020-08-23T09:00:00.000Z</time>
      </trkpt>
      <trkpt lat="43.27013787813484668731689453125" lon="-1.64251296781003475189208984375">
        <ele>322.20001220703125</ele>
        <time>2020-08-23T09:00:01.000Z</time>
      </trkpt>
      <trkpt lat="43.2702744193375110626220703125" lon="-1.64264422841370105743408203125">
        <ele>321</ele>
        <time>2020-08-23T09:00:05.000Z</time>
      </trkpt>
      <trkpt lat="43.27035882510244846343994140625" lon="-1.64271547459065914154052734375">
        <ele>319.79998779296875</ele>
        <time>2020-08-23T09:00:07.000Z</time>
      </trkpt>
      <trkpt lat="43.27040006406605243682861328125" lon="-1.64274514652788639068603515625">
        <ele>319.399993896484375</ele>
        <time>2020-08-23T09:00:08.000Z</time>
      </trkpt>
      <trkpt lat="43.27046628110110759735107421875" lon="-1.64276660420000553131103515625">
        <ele>319</ele>
        <time>2020-08-23T09:00:10.000Z</time>
      </trkpt>
      <trkpt lat="43.2705211825668811798095703125" lon="-1.64277867414057254791259765625">
        <ele>319</ele>
        <time>2020-08-23T09:00:12.000Z</time>
      </trkpt>
      <trkpt lat="43.27063526026904582977294921875" lon="-1.6427834518253803253173828125">
        <ele>319</ele>
        <time>2020-08-23T09:00:16.000Z</time>
      </trkpt>
      <trkpt lat="43.27073567546904087066650390625" lon="-1.64276509545743465423583984375">
        <ele>318.79998779296875</ele>
        <time>2020-08-23T09:00:19.000Z</time>
      </trkpt>
      <trkpt lat="43.27086073346436023712158203125" lon="-1.64272100664675235748291015625">
        <ele>317.79998779296875</ele>
        <time>2020-08-23T09:00:23.000Z</time>
      </trkpt>
      <trkpt lat="43.2708938419818878173828125" lon="-1.64270139299333095550537109375">
        <ele>317.600006103515625</ele>
        <time>2020-08-23T09:00:24.000Z</time>
      </trkpt>
      <trkpt lat="43.2711052335798740386962890625" lon="-1.6425244510173797607421875">
        <ele>317.20001220703125</ele>
        <time>2020-08-23T09:00:31.000Z</time>
      </trkpt>
      <trkpt lat="43.27130430378019809722900390625" lon="-1.64228179492056369781494140625">
        <ele>316.600006103515625</ele>
        <time>2020-08-23T09:00:38.000Z</time>
      </trkpt>
      <trkpt lat="43.27150203287601470947265625" lon="-1.6419692337512969970703125">
        <ele>316</ele>
        <time>2020-08-23T09:00:47.000Z</time>
      </trkpt>
      <trkpt lat="43.27162365429103374481201171875" lon="-1.64164267480373382568359375">
        <ele>315.600006103515625</ele>
        <time>2020-08-23T09:00:55.000Z</time>
      </trkpt>
      <trkpt lat="43.271631784737110137939453125" lon="-1.6414168663322925567626953125">
        <ele>314.79998779296875</ele>
        <time>2020-08-23T09:01:00.000Z</time>
      </trkpt>
      <trkpt lat="43.27162348665297031402587890625" lon="-1.64137001149356365203857421875">
        <ele>314.399993896484375</ele>
        <time>2020-08-23T09:01:01.000Z</time>
      </trkpt>
      <trkpt lat="43.2715819962322711944580078125" lon="-1.64118242450058460235595703125">
        <ele>313.600006103515625</ele>
        <time>2020-08-23T09:01:05.000Z</time>
      </trkpt>
      <trkpt lat="43.27157721854746341705322265625" lon="-1.641083098948001861572265625">
        <ele>313.20001220703125</ele>
        <time>2020-08-23T09:01:07.000Z</time>
      </trkpt>
      <trkpt lat="43.271637149155139923095703125" lon="-1.64082351140677928924560546875">
        <ele>313.20001220703125</ele>
        <time>2020-08-23T09:01:13.000Z</time>
      </trkpt>
      <trkpt lat="43.2717563398182392120361328125" lon="-1.64056132547557353973388671875">
        <ele>312.79998779296875</ele>
        <time>2020-08-23T09:01:21.000Z</time>
      </trkpt>
      <trkpt lat="43.2718384824693202972412109375" lon="-1.64028405211865901947021484375">
        <ele>313.20001220703125</ele>
        <time>2020-08-23T09:01:29.000Z</time>
      </trkpt>
      <trkpt lat="43.2719062082469463348388671875" lon="-1.64007953368127346038818359375">
        <ele>313.399993896484375</ele>
        <time>2020-08-23T09:01:35.000Z</time>
      </trkpt>
      <trkpt lat="43.27202984131872653961181640625" lon="-1.639910303056240081787109375">
        <ele>313.399993896484375</ele>
        <time>2020-08-23T09:01:41.000Z</time>
      </trkpt>
      <trkpt lat="43.272151462733745574951171875" lon="-1.63979865610599517822265625">
        <ele>312.79998779296875</ele>
        <time>2020-08-23T09:01:46.000Z</time>
      </trkpt>
      <trkpt lat="43.2721784524619579315185546875" lon="-1.63977853953838348388671875">
        <ele>312.600006103515625</ele>
        <time>2020-08-23T09:01:47.000Z</time>
      </trkpt>
      <trkpt lat="43.2723475992679595947265625" lon="-1.63962565362453460693359375">
        <ele>312.600006103515625</ele>
        <time>2020-08-23T09:01:54.000Z</time>
      </trkpt>
      <trkpt lat="43.27250710688531398773193359375" lon="-1.63951844908297061920166015625">
        <ele>312.600006103515625</ele>
        <time>2020-08-23T09:02:00.000Z</time>
      </trkpt>
      <trkpt lat="43.27265177853405475616455078125" lon="-1.63939540274441242218017578125">
        <ele>313</ele>
        <time>2020-08-23T09:02:06.000Z</time>
      </trkpt>
      <trkpt lat="43.2728067599236965179443359375" lon="-1.63923698477447032928466796875">
        <ele>311.79998779296875</ele>
        <time>2020-08-23T09:02:12.000Z</time>
      </trkpt>
      <trkpt lat="43.27282947488129138946533203125" lon="-1.6391966678202152252197265625">
        <ele>311.79998779296875</ele>
        <time>2020-08-23T09:02:13.000Z</time>
      </trkpt>
      <trkpt lat="43.27293441630899906158447265625" lon="-1.6389720328152179718017578125">
        <ele>310.600006103515625</ele>
        <time>2020-08-23T09:02:18.000Z</time>
      </trkpt>
      <trkpt lat="43.27296526171267032623291015625" lon="-1.6388674266636371612548828125">
        <ele>309.20001220703125</ele>
        <time>2020-08-23T09:02:20.000Z</time>
      </trkpt>
      <trkpt lat="43.27298571355640888214111328125" lon="-1.63876064121723175048828125">
        <ele>308.20001220703125</ele>
        <time>2020-08-23T09:02:22.000Z</time>
      </trkpt>
      <trkpt lat="43.272991664707660675048828125" lon="-1.63870540447533130645751953125">
        <ele>308</ele>
        <time>2020-08-23T09:02:23.000Z</time>
      </trkpt>
      <trkpt lat="43.27300314791500568389892578125" lon="-1.6385981999337673187255859375">
        <ele>307.600006103515625</ele>
        <time>2020-08-23T09:02:25.000Z</time>
      </trkpt>
      <trkpt lat="43.273042626678943634033203125" lon="-1.63823450915515422821044921875">
        <ele>307.79998779296875</ele>
        <time>2020-08-23T09:02:32.000Z</time>
      </trkpt>
      <trkpt lat="43.27315427362918853759765625" lon="-1.63813191466033458709716796875">
        <ele>307.600006103515625</ele>
        <time>2020-08-23T09:02:36.000Z</time>
      </trkpt>
      <trkpt lat="43.27330322004854679107666015625" lon="-1.6381041705608367919921875">
        <ele>307.20001220703125</ele>
        <time>2020-08-23T09:02:40.000Z</time>
      </trkpt>
      <trkpt lat="43.273446969687938690185546875" lon="-1.63805748336017131805419921875">
        <ele>306.600006103515625</ele>
        <time>2020-08-23T09:02:44.000Z</time>
      </trkpt>
      <trkpt lat="43.27356138266623020172119140625" lon="-1.637952961027622222900390625">
        <ele>306</ele>
        <time>2020-08-23T09:02:48.000Z</time>
      </trkpt>
      <trkpt lat="43.27359817922115325927734375" lon="-1.63789101876318454742431640625">
        <ele>306</ele>
        <time>2020-08-23T09:02:50.000Z</time>
      </trkpt>
      <trkpt lat="43.273680992424488067626953125" lon="-1.63776461966335773468017578125">
        <ele>306.20001220703125</ele>
        <time>2020-08-23T09:02:55.000Z</time>
      </trkpt>
      <trkpt lat="43.27380646951496601104736328125" lon="-1.6376607678830623626708984375">
        <ele>305.399993896484375</ele>
        <time>2020-08-23T09:03:00.000Z</time>
      </trkpt>
      <trkpt lat="43.27384737320244312286376953125" lon="-1.63765330798923969268798828125">
        <ele>304.79998779296875</ele>
        <time>2020-08-23T09:03:01.000Z</time>
      </trkpt>
      <trkpt lat="43.2739262469112873077392578125" lon="-1.6376513801515102386474609375">
        <ele>303.399993896484375</ele>
        <time>2020-08-23T09:03:03.000Z</time>
      </trkpt>
      <trkpt lat="43.2740120775997638702392578125" lon="-1.63764861412346363067626953125">
        <ele>303</ele>
        <time>2020-08-23T09:03:05.000Z</time>
      </trkpt>
      <trkpt lat="43.27415934763848781585693359375" lon="-1.63755289278924465179443359375">
        <ele>302.600006103515625</ele>
        <time>2020-08-23T09:03:09.000Z</time>
      </trkpt>
      <trkpt lat="43.2741894386708736419677734375" lon="-1.63752020336687564849853515625">
        <ele>302.600006103515625</ele>
        <time>2020-08-23T09:03:10.000Z</time>
      </trkpt>
      <trkpt lat="43.27427149750292301177978515625" lon="-1.63735977374017238616943359375">
        <ele>302.399993896484375</ele>
        <time>2020-08-23T09:03:14.000Z</time>
      </trkpt>
      <trkpt lat="43.27431944198906421661376953125" lon="-1.637157686054706573486328125">
        <ele>301.20001220703125</ele>
        <time>2020-08-23T09:03:18.000Z</time>
      </trkpt>
      <trkpt lat="43.2743748463690280914306640625" lon="-1.63706791587173938751220703125">
        <ele>301</ele>
        <time>2020-08-23T09:03:20.000Z</time>
      </trkpt>
      <trkpt lat="43.27444734983146190643310546875" lon="-1.6370177082717418670654296875">
        <ele>300.399993896484375</ele>
        <time>2020-08-23T09:03:22.000Z</time>
      </trkpt>
      <trkpt lat="43.27451172284781932830810546875" lon="-1.63698074407875537872314453125">
        <ele>299.79998779296875</ele>
        <time>2020-08-23T09:03:24.000Z</time>
      </trkpt>
      <trkpt lat="43.27454491518437862396240234375" lon="-1.63696582429111003875732421875">
        <ele>299.79998779296875</ele>
        <time>2020-08-23T09:03:25.000Z</time>
      </trkpt>
      <trkpt lat="43.27465170063078403472900390625" lon="-1.63691167719662189483642578125">
        <ele>299.600006103515625</ele>
        <time>2020-08-23T09:03:28.000Z</time>
      </trkpt>
      <trkpt lat="43.274730741977691650390625" lon="-1.63689918816089630126953125">
        <ele>299.20001220703125</ele>
        <time>2020-08-23T09:03:30.000Z</time>
      </trkpt>
      <trkpt lat="43.274931572377681732177734375" lon="-1.63693883456289768218994140625">
        <ele>298</ele>
        <time>2020-08-23T09:03:35.000Z</time>
      </trkpt>
      <trkpt lat="43.2751211710274219512939453125" lon="-1.636844538152217864990234375">
        <ele>297.20001220703125</ele>
        <time>2020-08-23T09:03:40.000Z</time>
      </trkpt>
      <trkpt lat="43.27514841221272945404052734375" lon="-1.63680606521666049957275390625">
        <ele>296.79998779296875</ele>
        <time>2020-08-23T09:03:41.000Z</time>
      </trkpt>
      <trkpt lat="43.27518261037766933441162109375" lon="-1.63666055537760257720947265625">
        <ele>295.600006103515625</ele>
        <time>2020-08-23T09:03:44.000Z</time>
      </trkpt>
      <trkpt lat="43.27520205639302730560302734375" lon="-1.6364212520420551300048828125">
        <ele>295.600006103515625</ele>
        <time>2020-08-23T09:03:49.000Z</time>
      </trkpt>
      <trkpt lat="43.27528503723442554473876953125" lon="-1.63628521375358104705810546875">
        <ele>294.399993896484375</ele>
        <time>2020-08-23T09:03:53.000Z</time>
      </trkpt>
      <trkpt lat="43.27541763894259929656982421875" lon="-1.6363119520246982574462890625">
        <ele>293.600006103515625</ele>
        <time>2020-08-23T09:03:57.000Z</time>
      </trkpt>
      <trkpt lat="43.27548134140670299530029296875" lon="-1.6363312304019927978515625">
        <ele>293.20001220703125</ele>
        <time>2020-08-23T09:03:59.000Z</time>
      </trkpt>
      <trkpt lat="43.27556499280035495758056640625" lon="-1.636337935924530029296875">
        <ele>292.399993896484375</ele>
        <time>2020-08-23T09:04:01.000Z</time>
      </trkpt>
      <trkpt lat="43.27561159618198871612548828125" lon="-1.6363337449729442596435546875">
        <ele>292.20001220703125</ele>
        <time>2020-08-23T09:04:02.000Z</time>
      </trkpt>
      <trkpt lat="43.27578208409249782562255859375" lon="-1.63634120486676692962646484375">
        <ele>291.20001220703125</ele>
        <time>2020-08-23T09:04:06.000Z</time>
      </trkpt>
      <trkpt lat="43.2758224010467529296875" lon="-1.63635469973087310791015625">
        <ele>291</ele>
        <time>2020-08-23T09:04:07.000Z</time>
      </trkpt>
      <trkpt lat="43.27603488229215145111083984375" lon="-1.63643541745841503143310546875">
        <ele>290.399993896484375</ele>
        <time>2020-08-23T09:04:12.000Z</time>
      </trkpt>
      <trkpt lat="43.2761199586093425750732421875" lon="-1.6364572942256927490234375">
        <ele>289.79998779296875</ele>
        <time>2020-08-23T09:04:14.000Z</time>
      </trkpt>
      <trkpt lat="43.2762138359248638153076171875" lon="-1.63648118264973163604736328125">
        <ele>288.79998779296875</ele>
        <time>2020-08-23T09:04:16.000Z</time>
      </trkpt>
      <trkpt lat="43.27626085840165615081787109375" lon="-1.63648000918328762054443359375">
        <ele>288.399993896484375</ele>
        <time>2020-08-23T09:04:17.000Z</time>
      </trkpt>
      <trkpt lat="43.276356495916843414306640625" lon="-1.63646006025373935699462890625">
        <ele>288</ele>
        <time>2020-08-23T09:04:19.000Z</time>
      </trkpt>
      <trkpt lat="43.27655020169913768768310546875" lon="-1.636307425796985626220703125">
        <ele>287.600006103515625</ele>
        <time>2020-08-23T09:04:24.000Z</time>
      </trkpt>
      <trkpt lat="43.27657987363636493682861328125" lon="-1.6362670250236988067626953125">
        <ele>287.20001220703125</ele>
        <time>2020-08-23T09:04:25.000Z</time>
      </trkpt>
      <trkpt lat="43.27660820446908473968505859375" lon="-1.636224947869777679443359375">
        <ele>286.600006103515625</ele>
        <time>2020-08-23T09:04:26.000Z</time>
      </trkpt>
      <trkpt lat="43.27666000463068485260009765625" lon="-1.63613584823906421661376953125">
        <ele>286</ele>
        <time>2020-08-23T09:04:28.000Z</time>
      </trkpt>
      <trkpt lat="43.27670090831816196441650390625" lon="-1.6360440663993358612060546875">
        <ele>285.600006103515625</ele>
        <time>2020-08-23T09:04:30.000Z</time>
      </trkpt>
      <trkpt lat="43.2767502777278423309326171875" lon="-1.6358988918364048004150390625">
        <ele>284.399993896484375</ele>
        <time>2020-08-23T09:04:33.000Z</time>
      </trkpt>
      <trkpt lat="43.27679562382400035858154296875" lon="-1.63573770783841609954833984375">
        <ele>283.20001220703125</ele>
        <time>2020-08-23T09:04:36.000Z</time>
      </trkpt>
      <trkpt lat="43.2768589071929454803466796875" lon="-1.6355180181562900543212890625">
        <ele>282.20001220703125</ele>
        <time>2020-08-23T09:04:40.000Z</time>
      </trkpt>
      <trkpt lat="43.276914060115814208984375" lon="-1.635369993746280670166015625">
        <ele>281</ele>
        <time>2020-08-23T09:04:43.000Z</time>
      </trkpt>
      <trkpt lat="43.27696527354419231414794921875" lon="-1.63520780391991138458251953125">
        <ele>279.600006103515625</ele>
        <time>2020-08-23T09:04:47.000Z</time>
      </trkpt>
      <trkpt lat="43.27696175314486026763916015625" lon="-1.63517058826982975006103515625">
        <ele>279.399993896484375</ele>
        <time>2020-08-23T09:04:48.000Z</time>
      </trkpt>
      <trkpt lat="43.27690324746072292327880859375" lon="-1.63495458662509918212890625">
        <ele>278.399993896484375</ele>
        <time>2020-08-23T09:04:53.000Z</time>
      </trkpt>
      <trkpt lat="43.27689788304269313812255859375" lon="-1.6349131800234317779541015625">
        <ele>277.79998779296875</ele>
        <time>2020-08-23T09:04:54.000Z</time>
      </trkpt>
      <trkpt lat="43.2768934406340122222900390625" lon="-1.63484402932226657867431640625">
        <ele>276.600006103515625</ele>
        <time>2020-08-23T09:04:56.000Z</time>
      </trkpt>
      <trkpt lat="43.2768977992236614227294921875" lon="-1.63479926995933055877685546875">
        <ele>276.399993896484375</ele>
        <time>2020-08-23T09:04:57.000Z</time>
      </trkpt>
      <trkpt lat="43.27697013504803180694580078125" lon="-1.63462333381175994873046875">
        <ele>275.600006103515625</ele>
        <time>2020-08-23T09:05:02.000Z</time>
      </trkpt>
      <trkpt lat="43.2770989648997783660888671875" lon="-1.63446147926151752471923828125">
        <ele>274.600006103515625</ele>
        <time>2020-08-23T09:05:07.000Z</time>
      </trkpt>
      <trkpt lat="43.2771210931241512298583984375" lon="-1.6344226710498332977294921875">
        <ele>274.20001220703125</ele>
        <time>2020-08-23T09:05:08.000Z</time>
      </trkpt>
      <trkpt lat="43.27716191299259662628173828125" lon="-1.63432904519140720367431640625">
        <ele>273.20001220703125</ele>
        <time>2020-08-23T09:05:10.000Z</time>
      </trkpt>
      <trkpt lat="43.2772015593945980072021484375" lon="-1.63424916565418243408203125">
        <ele>272.600006103515625</ele>
        <time>2020-08-23T09:05:12.000Z</time>
      </trkpt>
      <trkpt lat="43.27722578309476375579833984375" lon="-1.63420029915869235992431640625">
        <ele>272.20001220703125</ele>
        <time>2020-08-23T09:05:13.000Z</time>
      </trkpt>
      <trkpt lat="43.2772575505077838897705078125" lon="-1.63416425697505474090576171875">
        <ele>271.600006103515625</ele>
        <time>2020-08-23T09:05:14.000Z</time>
      </trkpt>
      <trkpt lat="43.2772927545011043548583984375" lon="-1.63413290865719318389892578125">
        <ele>270.79998779296875</ele>
        <time>2020-08-23T09:05:15.000Z</time>
      </trkpt>
      <trkpt lat="43.2773259468376636505126953125" lon="-1.63409418426454067230224609375">
        <ele>270.20001220703125</ele>
        <time>2020-08-23T09:05:16.000Z</time>
      </trkpt>
      <trkpt lat="43.2773631624877452850341796875" lon="-1.6340713016688823699951171875">
        <ele>269.79998779296875</ele>
        <time>2020-08-23T09:05:17.000Z</time>
      </trkpt>
      <trkpt lat="43.27751948498189449310302734375" lon="-1.634002067148685455322265625">
        <ele>268.399993896484375</ele>
        <time>2020-08-23T09:05:21.000Z</time>
      </trkpt>
      <trkpt lat="43.27762828208506107330322265625" lon="-1.63390995003283023834228515625">
        <ele>268.20001220703125</ele>
        <time>2020-08-23T09:05:24.000Z</time>
      </trkpt>
      <trkpt lat="43.2777012884616851806640625" lon="-1.63382898084819316864013671875">
        <ele>267.79998779296875</ele>
        <time>2020-08-23T09:05:26.000Z</time>
      </trkpt>
      <trkpt lat="43.277743197977542877197265625" lon="-1.63379562087357044219970703125">
        <ele>267.79998779296875</ele>
        <time>2020-08-23T09:05:27.000Z</time>
      </trkpt>
      <trkpt lat="43.27779089100658893585205078125" lon="-1.6337698884308338165283203125">
        <ele>267.399993896484375</ele>
        <time>2020-08-23T09:05:28.000Z</time>
      </trkpt>
      <trkpt lat="43.2778781466186046600341796875" lon="-1.633752286434173583984375">
        <ele>266.20001220703125</ele>
        <time>2020-08-23T09:05:30.000Z</time>
      </trkpt>
      <trkpt lat="43.27799163758754730224609375" lon="-1.633804924786090850830078125">
        <ele>264.79998779296875</ele>
        <time>2020-08-23T09:05:33.000Z</time>
      </trkpt>
      <trkpt lat="43.27802407555282115936279296875" lon="-1.6338379494845867156982421875">
        <ele>264.399993896484375</ele>
        <time>2020-08-23T09:05:34.000Z</time>
      </trkpt>
      <trkpt lat="43.27805793844163417816162109375" lon="-1.63387709297239780426025390625">
        <ele>264.20001220703125</ele>
        <time>2020-08-23T09:05:35.000Z</time>
      </trkpt>
      <trkpt lat="43.27819657512009143829345703125" lon="-1.63399611599743366241455078125">
        <ele>264.20001220703125</ele>
        <time>2020-08-23T09:05:39.000Z</time>
      </trkpt>
      <trkpt lat="43.2782372273504734039306640625" lon="-1.634004078805446624755859375">
        <ele>264.20001220703125</ele>
        <time>2020-08-23T09:05:40.000Z</time>
      </trkpt>
      <trkpt lat="43.2782811485230922698974609375" lon="-1.6340032406151294708251953125">
        <ele>263.399993896484375</ele>
        <time>2020-08-23T09:05:41.000Z</time>
      </trkpt>
      <trkpt lat="43.27837008051574230194091796875" lon="-1.63397717289626598358154296875">
        <ele>262.600006103515625</ele>
        <time>2020-08-23T09:05:43.000Z</time>
      </trkpt>
      <trkpt lat="43.278412409126758575439453125" lon="-1.63395102135837078094482421875">
        <ele>262.20001220703125</ele>
        <time>2020-08-23T09:05:44.000Z</time>
      </trkpt>
      <trkpt lat="43.27853470109403133392333984375" lon="-1.6338252089917659759521484375">
        <ele>260.399993896484375</ele>
        <time>2020-08-23T09:05:47.000Z</time>
      </trkpt>
      <trkpt lat="43.27857325784862041473388671875" lon="-1.6337836347520351409912109375">
        <ele>260</ele>
        <time>2020-08-23T09:05:48.000Z</time>
      </trkpt>
      <trkpt lat="43.27865816652774810791015625" lon="-1.6337268054485321044921875">
        <ele>259.20001220703125</ele>
        <time>2020-08-23T09:05:50.000Z</time>
      </trkpt>
      <trkpt lat="43.27870502136647701263427734375" lon="-1.6337108798325061798095703125">
        <ele>259.20001220703125</ele>
        <time>2020-08-23T09:05:51.000Z</time>
      </trkpt>
      <trkpt lat="43.2788028381764888763427734375" lon="-1.633698642253875732421875">
        <ele>258</ele>
        <time>2020-08-23T09:05:53.000Z</time>
      </trkpt>
      <trkpt lat="43.27885254286229610443115234375" lon="-1.63369973190128803253173828125">
        <ele>257.600006103515625</ele>
        <time>2020-08-23T09:05:54.000Z</time>
      </trkpt>
      <trkpt lat="43.27895580790936946868896484375" lon="-1.6337182559072971343994140625">
        <ele>257</ele>
        <time>2020-08-23T09:05:56.000Z</time>
      </trkpt>
      <trkpt lat="43.27900861389935016632080078125" lon="-1.6337303258478641510009765625">
        <ele>256.399993896484375</ele>
        <time>2020-08-23T09:05:57.000Z</time>
      </trkpt>
      <trkpt lat="43.2791156508028507232666015625" lon="-1.633747927844524383544921875">
        <ele>255.600006103515625</ele>
        <time>2020-08-23T09:05:59.000Z</time>
      </trkpt>
      <trkpt lat="43.2791711390018463134765625" lon="-1.6337477602064609527587890625">
        <ele>255.399993896484375</ele>
        <time>2020-08-23T09:06:00.000Z</time>
      </trkpt>
      <trkpt lat="43.2792806066572666168212890625" lon="-1.633737869560718536376953125">
        <ele>254.399993896484375</ele>
        <time>2020-08-23T09:06:02.000Z</time>
      </trkpt>
      <trkpt lat="43.27933249063789844512939453125" lon="-1.6337273083627223968505859375">
        <ele>253.399993896484375</ele>
        <time>2020-08-23T09:06:03.000Z</time>
      </trkpt>
      <trkpt lat="43.27938395552337169647216796875" lon="-1.6337122209370136260986328125">
        <ele>252.8000030517578125</ele>
        <time>2020-08-23T09:06:04.000Z</time>
      </trkpt>
      <trkpt lat="43.27955544926226139068603515625" lon="-1.63364843465387821197509765625">
        <ele>251.8000030517578125</ele>
        <time>2020-08-23T09:06:07.000Z</time>
      </trkpt>
      <trkpt lat="43.279614709317684173583984375" lon="-1.63363083265721797943115234375">
        <ele>251.399993896484375</ele>
        <time>2020-08-23T09:06:08.000Z</time>
      </trkpt>
      <trkpt lat="43.279730714857578277587890625" lon="-1.63360635749995708465576171875">
        <ele>250</ele>
        <time>2020-08-23T09:06:10.000Z</time>
      </trkpt>
      <trkpt lat="43.2798351533710956573486328125" lon="-1.63361071608960628509521484375">
        <ele>249</ele>
        <time>2020-08-23T09:06:12.000Z</time>
      </trkpt>
      <trkpt lat="43.27988133765757083892822265625" lon="-1.63362018764019012451171875">
        <ele>249</ele>
        <time>2020-08-23T09:06:13.000Z</time>
      </trkpt>
      <trkpt lat="43.27999256551265716552734375" lon="-1.633673496544361114501953125">
        <ele>247.8000030517578125</ele>
        <time>2020-08-23T09:06:16.000Z</time>
      </trkpt>
      <trkpt lat="43.28002315945923328399658203125" lon="-1.63370735943317413330078125">
        <ele>246.8000030517578125</ele>
        <time>2020-08-23T09:06:17.000Z</time>
      </trkpt>
      <trkpt lat="43.28005350194871425628662109375" lon="-1.63374759256839752197265625">
        <ele>246.399993896484375</ele>
        <time>2020-08-23T09:06:18.000Z</time>
      </trkpt>
      <trkpt lat="43.28014008700847625732421875" lon="-1.63388044573366641998291015625">
        <ele>245.1999969482421875</ele>
        <time>2020-08-23T09:06:21.000Z</time>
      </trkpt>
      <trkpt lat="43.28020513057708740234375" lon="-1.63396040908992290496826171875">
        <ele>244.600006103515625</ele>
        <time>2020-08-23T09:06:23.000Z</time>
      </trkpt>
      <trkpt lat="43.2802716828882694244384765625" lon="-1.63403333164751529693603515625">
        <ele>244</ele>
        <time>2020-08-23T09:06:25.000Z</time>
      </trkpt>
      <trkpt lat="43.28040470369160175323486328125" lon="-1.63416710682213306427001953125">
        <ele>242.8000030517578125</ele>
        <time>2020-08-23T09:06:29.000Z</time>
      </trkpt>
      <trkpt lat="43.28050914220511913299560546875" lon="-1.63420817814767360687255859375">
        <ele>241.600006103515625</ele>
        <time>2020-08-23T09:06:32.000Z</time>
      </trkpt>
      <trkpt lat="43.28054510056972503662109375" lon="-1.6341973654925823211669921875">
        <ele>241</ele>
        <time>2020-08-23T09:06:33.000Z</time>
      </trkpt>
      <trkpt lat="43.28060452826321125030517578125" lon="-1.63415051065385341644287109375">
        <ele>240.1999969482421875</ele>
        <time>2020-08-23T09:06:35.000Z</time>
      </trkpt>
      <trkpt lat="43.28064744360744953155517578125" lon="-1.6340810246765613555908203125">
        <ele>239.600006103515625</ele>
        <time>2020-08-23T09:06:37.000Z</time>
      </trkpt>
      <trkpt lat="43.2806683145463466644287109375" lon="-1.63403903134167194366455078125">
        <ele>239.1999969482421875</ele>
        <time>2020-08-23T09:06:38.000Z</time>
      </trkpt>
      <trkpt lat="43.2807407341897487640380859375" lon="-1.633903495967388153076171875">
        <ele>238</ele>
        <time>2020-08-23T09:06:41.000Z</time>
      </trkpt>
      <trkpt lat="43.280813656747341156005859375" lon="-1.63377047516405582427978515625">
        <ele>237.600006103515625</ele>
        <time>2020-08-23T09:06:44.000Z</time>
      </trkpt>
      <trkpt lat="43.28088331036269664764404296875" lon="-1.63364826701581478118896484375">
        <ele>237</ele>
        <time>2020-08-23T09:06:47.000Z</time>
      </trkpt>
      <trkpt lat="43.2809747569262981414794921875" lon="-1.6334852389991283416748046875">
        <ele>236</ele>
        <time>2020-08-23T09:06:51.000Z</time>
      </trkpt>
      <trkpt lat="43.2810488529503345489501953125" lon="-1.6333484463393688201904296875">
        <ele>234.8000030517578125</ele>
        <time>2020-08-23T09:06:54.000Z</time>
      </trkpt>
      <trkpt lat="43.28114180825650691986083984375" lon="-1.63316966034471988677978515625">
        <ele>234</ele>
        <time>2020-08-23T09:06:58.000Z</time>
      </trkpt>
      <trkpt lat="43.28117315657436847686767578125" lon="-1.63312674500048160552978515625">
        <ele>233.600006103515625</ele>
        <time>2020-08-23T09:06:59.000Z</time>
      </trkpt>
      <trkpt lat="43.28127524815499782562255859375" lon="-1.6330133378505706787109375">
        <ele>232.600006103515625</ele>
        <time>2020-08-23T09:07:02.000Z</time>
      </trkpt>
      <trkpt lat="43.2813516072928905487060546875" lon="-1.63293530233204364776611328125">
        <ele>232.1999969482421875</ele>
        <time>2020-08-23T09:07:04.000Z</time>
      </trkpt>
      <trkpt lat="43.28143157064914703369140625" lon="-1.63285911083221435546875">
        <ele>231.8000030517578125</ele>
        <time>2020-08-23T09:07:06.000Z</time>
      </trkpt>
      <trkpt lat="43.2815923355519771575927734375" lon="-1.63271150551736354827880859375">
        <ele>230.399993896484375</ele>
        <time>2020-08-23T09:07:10.000Z</time>
      </trkpt>
      <trkpt lat="43.28170741908252239227294921875" lon="-1.6325880400836467742919921875">
        <ele>229.399993896484375</ele>
        <time>2020-08-23T09:07:13.000Z</time>
      </trkpt>
      <trkpt lat="43.281771875917911529541015625" lon="-1.63250715471804141998291015625">
        <ele>228.1999969482421875</ele>
        <time>2020-08-23T09:07:15.000Z</time>
      </trkpt>
      <trkpt lat="43.28185267746448516845703125" lon="-1.63239978253841400146484375">
        <ele>227</ele>
        <time>2020-08-23T09:07:18.000Z</time>
      </trkpt>
      <trkpt lat="43.28187690116465091705322265625" lon="-1.63237472064793109893798828125">
        <ele>226.600006103515625</ele>
        <time>2020-08-23T09:07:19.000Z</time>
      </trkpt>
      <trkpt lat="43.28202844597399234771728515625" lon="-1.6323251836001873016357421875">
        <ele>226.600006103515625</ele>
        <time>2020-08-23T09:07:24.000Z</time>
      </trkpt>
      <trkpt lat="43.282227851450443267822265625" lon="-1.63228084333240985870361328125">
        <ele>226</ele>
        <time>2020-08-23T09:07:31.000Z</time>
      </trkpt>
      <trkpt lat="43.282254002988338470458984375" lon="-1.63226969540119171142578125">
        <ele>225.8000030517578125</ele>
        <time>2020-08-23T09:07:32.000Z</time>
      </trkpt>
      <trkpt lat="43.28231896273791790008544921875" lon="-1.63224555552005767822265625">
        <ele>224.600006103515625</ele>
        <time>2020-08-23T09:07:35.000Z</time>
      </trkpt>
      <trkpt lat="43.282357268035411834716796875" lon="-1.63222602568566799163818359375">
        <ele>223.399993896484375</ele>
        <time>2020-08-23T09:07:38.000Z</time>
      </trkpt>
      <trkpt lat="43.28238266520202159881591796875" lon="-1.63220909424126148223876953125">
        <ele>222.8000030517578125</ele>
        <time>2020-08-23T09:07:40.000Z</time>
      </trkpt>
      <trkpt lat="43.2824171148240566253662109375" lon="-1.6322140395641326904296875">
        <ele>222.600006103515625</ele>
        <time>2020-08-23T09:07:42.000Z</time>
      </trkpt>
      <trkpt lat="43.28245273791253566741943359375" lon="-1.632237844169139862060546875">
        <ele>222.600006103515625</ele>
        <time>2020-08-23T09:07:44.000Z</time>
      </trkpt>
      <trkpt lat="43.28253798186779022216796875" lon="-1.63234873674809932708740234375">
        <ele>222.8000030517578125</ele>
        <time>2020-08-23T09:07:49.000Z</time>
      </trkpt>
      <trkpt lat="43.28266580589115619659423828125" lon="-1.6325652413070201873779296875">
        <ele>222.8000030517578125</ele>
        <time>2020-08-23T09:07:57.000Z</time>
      </trkpt>
      <trkpt lat="43.2827715016901493072509765625" lon="-1.6327409259974956512451171875">
        <ele>222.600006103515625</ele>
        <time>2020-08-23T09:08:03.000Z</time>
      </trkpt>
      <trkpt lat="43.28280075453221797943115234375" lon="-1.632797084748744964599609375">
        <ele>222.399993896484375</ele>
        <time>2020-08-23T09:08:05.000Z</time>
      </trkpt>
      <trkpt lat="43.2829361222684383392333984375" lon="-1.6330187022686004638671875">
        <ele>221.600006103515625</ele>
        <time>2020-08-23T09:08:12.000Z</time>
      </trkpt>
      <trkpt lat="43.28306235373020172119140625" lon="-1.63331081159412860870361328125">
        <ele>221</ele>
        <time>2020-08-23T09:08:18.000Z</time>
      </trkpt>
      <trkpt lat="43.28307903371751308441162109375" lon="-1.6333769448101520538330078125">
        <ele>220.8000030517578125</ele>
        <time>2020-08-23T09:08:19.000Z</time>
      </trkpt>
      <trkpt lat="43.28309244476258754730224609375" lon="-1.63344073109328746795654296875">
        <ele>220.1999969482421875</ele>
        <time>2020-08-23T09:08:20.000Z</time>
      </trkpt>
      <trkpt lat="43.2831158302724361419677734375" lon="-1.63362580351531505584716796875">
        <ele>219.1999969482421875</ele>
        <time>2020-08-23T09:08:23.000Z</time>
      </trkpt>
      <trkpt lat="43.28312379308044910430908203125" lon="-1.633812971413135528564453125">
        <ele>217.8000030517578125</ele>
        <time>2020-08-23T09:08:26.000Z</time>
      </trkpt>
      <trkpt lat="43.28312831930816173553466796875" lon="-1.63399812765419483184814453125">
        <ele>216.600006103515625</ele>
        <time>2020-08-23T09:08:29.000Z</time>
      </trkpt>
      <trkpt lat="43.283130414783954620361328125" lon="-1.63406233303248882293701171875">
        <ele>216.1999969482421875</ele>
        <time>2020-08-23T09:08:30.000Z</time>
      </trkpt>
      <trkpt lat="43.28313209116458892822265625" lon="-1.6341933421790599822998046875">
        <ele>215.399993896484375</ele>
        <time>2020-08-23T09:08:32.000Z</time>
      </trkpt>
      <trkpt lat="43.28313418664038181304931640625" lon="-1.63437078706920146942138671875">
        <ele>214.399993896484375</ele>
        <time>2020-08-23T09:08:35.000Z</time>
      </trkpt>
      <trkpt lat="43.283129744231700897216796875" lon="-1.634625680744647979736328125">
        <ele>213.1999969482421875</ele>
        <time>2020-08-23T09:08:39.000Z</time>
      </trkpt>
      <trkpt lat="43.28312538564205169677734375" lon="-1.634830199182033538818359375">
        <ele>212.1999969482421875</ele>
        <time>2020-08-23T09:08:42.000Z</time>
      </trkpt>
      <trkpt lat="43.2831287384033203125" lon="-1.63504175841808319091796875">
        <ele>211</ele>
        <time>2020-08-23T09:08:45.000Z</time>
      </trkpt>
      <trkpt lat="43.2831584103405475616455078125" lon="-1.6352343745529651641845703125">
        <ele>210.1999969482421875</ele>
        <time>2020-08-23T09:08:48.000Z</time>
      </trkpt>
      <trkpt lat="43.28317777253687381744384765625" lon="-1.635297238826751708984375">
        <ele>209.399993896484375</ele>
        <time>2020-08-23T09:08:49.000Z</time>
      </trkpt>
      <trkpt lat="43.28326477669179439544677734375" lon="-1.63548105396330356597900390625">
        <ele>208</ele>
        <time>2020-08-23T09:08:52.000Z</time>
      </trkpt>
      <trkpt lat="43.28329570591449737548828125" lon="-1.63554467260837554931640625">
        <ele>207.8000030517578125</ele>
        <time>2020-08-23T09:08:53.000Z</time>
      </trkpt>
      <trkpt lat="43.283358402550220489501953125" lon="-1.635673753917217254638671875">
        <ele>207</ele>
        <time>2020-08-23T09:08:55.000Z</time>
      </trkpt>
      <trkpt lat="43.2834216021001338958740234375" lon="-1.63580744527280330657958984375">
        <ele>205.8000030517578125</ele>
        <time>2020-08-23T09:08:57.000Z</time>
      </trkpt>
      <trkpt lat="43.28347817994654178619384765625" lon="-1.63595848716795444488525390625">
        <ele>205</ele>
        <time>2020-08-23T09:08:59.000Z</time>
      </trkpt>
      <trkpt lat="43.283496536314487457275390625" lon="-1.63603895343840122222900390625">
        <ele>204.600006103515625</ele>
        <time>2020-08-23T09:09:00.000Z</time>
      </trkpt>
      <trkpt lat="43.2834866456687450408935546875" lon="-1.63636811077594757080078125">
        <ele>203</ele>
        <time>2020-08-23T09:09:04.000Z</time>
      </trkpt>
      <trkpt lat="43.2834296487271785736083984375" lon="-1.63653440773487091064453125">
        <ele>201.600006103515625</ele>
        <time>2020-08-23T09:09:06.000Z</time>
      </trkpt>
      <trkpt lat="43.2833414711058139801025390625" lon="-1.63667832501232624053955078125">
        <ele>200.399993896484375</ele>
        <time>2020-08-23T09:09:08.000Z</time>
      </trkpt>
      <trkpt lat="43.28328757546842098236083984375" lon="-1.63674973882734775543212890625">
        <ele>200</ele>
        <time>2020-08-23T09:09:09.000Z</time>
      </trkpt>
      <trkpt lat="43.28318095766007900238037109375" lon="-1.63689223118126392364501953125">
        <ele>199.1999969482421875</ele>
        <time>2020-08-23T09:09:11.000Z</time>
      </trkpt>
      <trkpt lat="43.28308506868779659271240234375" lon="-1.6370270960032939910888671875">
        <ele>198</ele>
        <time>2020-08-23T09:09:13.000Z</time>
      </trkpt>
      <trkpt lat="43.2830442488193511962890625" lon="-1.63710035383701324462890625">
        <ele>197.399993896484375</ele>
        <time>2020-08-23T09:09:14.000Z</time>
      </trkpt>
      <trkpt lat="43.283008374273777008056640625" lon="-1.63717746734619140625">
        <ele>196.600006103515625</ele>
        <time>2020-08-23T09:09:15.000Z</time>
      </trkpt>
      <trkpt lat="43.2829495333135128021240234375" lon="-1.63734309375286102294921875">
        <ele>195.600006103515625</ele>
        <time>2020-08-23T09:09:17.000Z</time>
      </trkpt>
      <trkpt lat="43.28292681835591793060302734375" lon="-1.6374280862510204315185546875">
        <ele>195</ele>
        <time>2020-08-23T09:09:18.000Z</time>
      </trkpt>
      <trkpt lat="43.28290904872119426727294921875" lon="-1.63751902990043163299560546875">
        <ele>194.399993896484375</ele>
        <time>2020-08-23T09:09:19.000Z</time>
      </trkpt>
      <trkpt lat="43.28288557939231395721435546875" lon="-1.63770963437855243682861328125">
        <ele>193.1999969482421875</ele>
        <time>2020-08-23T09:09:21.000Z</time>
      </trkpt>
      <trkpt lat="43.2828724198043346405029296875" lon="-1.63790258578956127166748046875">
        <ele>192</ele>
        <time>2020-08-23T09:09:23.000Z</time>
      </trkpt>
      <trkpt lat="43.28286529518663883209228515625" lon="-1.63809754885733127593994140625">
        <ele>190.8000030517578125</ele>
        <time>2020-08-23T09:09:25.000Z</time>
      </trkpt>
      <trkpt lat="43.28286697156727313995361328125" lon="-1.63828966207802295684814453125">
        <ele>189.8000030517578125</ele>
        <time>2020-08-23T09:09:27.000Z</time>
      </trkpt>
      <trkpt lat="43.2828744314610958099365234375" lon="-1.6383836232125759124755859375">
        <ele>189</ele>
        <time>2020-08-23T09:09:28.000Z</time>
      </trkpt>
      <trkpt lat="43.2828932069242000579833984375" lon="-1.6384731419384479522705078125">
        <ele>188.1999969482421875</ele>
        <time>2020-08-23T09:09:29.000Z</time>
      </trkpt>
      <trkpt lat="43.28301717527210712432861328125" lon="-1.6387155465781688690185546875">
        <ele>186.8000030517578125</ele>
        <time>2020-08-23T09:09:32.000Z</time>
      </trkpt>
      <trkpt lat="43.283070065081119537353515625" lon="-1.6387872956693172454833984375">
        <ele>186.1999969482421875</ele>
        <time>2020-08-23T09:09:33.000Z</time>
      </trkpt>
      <trkpt lat="43.283122368156909942626953125" lon="-1.6388627327978610992431640625">
        <ele>185.399993896484375</ele>
        <time>2020-08-23T09:09:34.000Z</time>
      </trkpt>
      <trkpt lat="43.28317173756659030914306640625" lon="-1.6389442048966884613037109375">
        <ele>184.8000030517578125</ele>
        <time>2020-08-23T09:09:35.000Z</time>
      </trkpt>
      <trkpt lat="43.28321532346308231353759765625" lon="-1.6390307061374187469482421875">
        <ele>184</ele>
        <time>2020-08-23T09:09:36.000Z</time>
      </trkpt>
      <trkpt lat="43.2832519523799419403076171875" lon="-1.6391212306916713714599609375">
        <ele>183.600006103515625</ele>
        <time>2020-08-23T09:09:37.000Z</time>
      </trkpt>
      <trkpt lat="43.283281289041042327880859375" lon="-1.63921670056879520416259765625">
        <ele>183</ele>
        <time>2020-08-23T09:09:38.000Z</time>
      </trkpt>
      <trkpt lat="43.2833205163478851318359375" lon="-1.639424152672290802001953125">
        <ele>181.399993896484375</ele>
        <time>2020-08-23T09:09:40.000Z</time>
      </trkpt>
      <trkpt lat="43.28333484940230846405029296875" lon="-1.639527417719364166259765625">
        <ele>180.8000030517578125</ele>
        <time>2020-08-23T09:09:41.000Z</time>
      </trkpt>
      <trkpt lat="43.2833495177328586578369140625" lon="-1.639625318348407745361328125">
        <ele>180.399993896484375</ele>
        <time>2020-08-23T09:09:42.000Z</time>
      </trkpt>
      <trkpt lat="43.28339167870581150054931640625" lon="-1.63980670273303985595703125">
        <ele>179.1999969482421875</ele>
        <time>2020-08-23T09:09:44.000Z</time>
      </trkpt>
      <trkpt lat="43.283458650112152099609375" lon="-1.63996906019747257232666015625">
        <ele>177.8000030517578125</ele>
        <time>2020-08-23T09:09:46.000Z</time>
      </trkpt>
      <trkpt lat="43.28354959376156330108642578125" lon="-1.640093028545379638671875">
        <ele>176.600006103515625</ele>
        <time>2020-08-23T09:09:48.000Z</time>
      </trkpt>
      <trkpt lat="43.28365671448409557342529296875" lon="-1.64018983952701091766357421875">
        <ele>175.8000030517578125</ele>
        <time>2020-08-23T09:09:50.000Z</time>
      </trkpt>
      <trkpt lat="43.2837126217782497406005859375" lon="-1.64022504352033138275146484375">
        <ele>175.1999969482421875</ele>
        <time>2020-08-23T09:09:51.000Z</time>
      </trkpt>
      <trkpt lat="43.28377045691013336181640625" lon="-1.64025773294270038604736328125">
        <ele>174.600006103515625</ele>
        <time>2020-08-23T09:09:52.000Z</time>
      </trkpt>
      <trkpt lat="43.28382988460361957550048828125" lon="-1.64029008708894252777099609375">
        <ele>174</ele>
        <time>2020-08-23T09:09:53.000Z</time>
      </trkpt>
      <trkpt lat="43.28396022319793701171875" lon="-1.64034574292600154876708984375">
        <ele>173</ele>
        <time>2020-08-23T09:09:55.000Z</time>
      </trkpt>
      <trkpt lat="43.28402635641396045684814453125" lon="-1.640371978282928466796875">
        <ele>172.399993896484375</ele>
        <time>2020-08-23T09:09:56.000Z</time>
      </trkpt>
      <trkpt lat="43.2842198945581912994384765625" lon="-1.64046426303684711456298828125">
        <ele>171</ele>
        <time>2020-08-23T09:09:59.000Z</time>
      </trkpt>
      <trkpt lat="43.2842829264700412750244140625" lon="-1.6404995508491992950439453125">
        <ele>170.600006103515625</ele>
        <time>2020-08-23T09:10:00.000Z</time>
      </trkpt>
      <trkpt lat="43.2843504846096038818359375" lon="-1.64053685031831264495849609375">
        <ele>169.600006103515625</ele>
        <time>2020-08-23T09:10:01.000Z</time>
      </trkpt>
      <trkpt lat="43.28449071384966373443603515625" lon="-1.64062033407390117645263671875">
        <ele>168.1999969482421875</ele>
        <time>2020-08-23T09:10:03.000Z</time>
      </trkpt>
      <trkpt lat="43.28463538549840450286865234375" lon="-1.64069929160177707672119140625">
        <ele>167.1999969482421875</ele>
        <time>2020-08-23T09:10:05.000Z</time>
      </trkpt>
      <trkpt lat="43.2848708331584930419921875" lon="-1.6407466493546962738037109375">
        <ele>165.399993896484375</ele>
        <time>2020-08-23T09:10:08.000Z</time>
      </trkpt>
      <trkpt lat="43.2849491201341152191162109375" lon="-1.6407501697540283203125">
        <ele>164.8000030517578125</ele>
        <time>2020-08-23T09:10:09.000Z</time>
      </trkpt>
      <trkpt lat="43.285025060176849365234375" lon="-1.6407546959817409515380859375">
        <ele>164.1999969482421875</ele>
        <time>2020-08-23T09:10:10.000Z</time>
      </trkpt>
      <trkpt lat="43.28517593443393707275390625" lon="-1.6407858766615390777587890625">
        <ele>162.8000030517578125</ele>
        <time>2020-08-23T09:10:12.000Z</time>
      </trkpt>
      <trkpt lat="43.2853202708065509796142578125" lon="-1.64086190052330493927001953125">
        <ele>161.399993896484375</ele>
        <time>2020-08-23T09:10:14.000Z</time>
      </trkpt>
      <trkpt lat="43.28545748256146907806396484375" lon="-1.640970446169376373291015625">
        <ele>160.1999969482421875</ele>
        <time>2020-08-23T09:10:16.000Z</time>
      </trkpt>
      <trkpt lat="43.28558019362390041351318359375" lon="-1.64111503399908542633056640625">
        <ele>158.8000030517578125</ele>
        <time>2020-08-23T09:10:18.000Z</time>
      </trkpt>
      <trkpt lat="43.28570173121988773345947265625" lon="-1.6412576101720333099365234375">
        <ele>157.399993896484375</ele>
        <time>2020-08-23T09:10:20.000Z</time>
      </trkpt>
      <trkpt lat="43.2857668586075305938720703125" lon="-1.6413228213787078857421875">
        <ele>156.600006103515625</ele>
        <time>2020-08-23T09:10:21.000Z</time>
      </trkpt>
      <trkpt lat="43.28583709895610809326171875" lon="-1.64137805812060832977294921875">
        <ele>155.8000030517578125</ele>
        <time>2020-08-23T09:10:22.000Z</time>
      </trkpt>
      <trkpt lat="43.28591111116111278533935546875" lon="-1.6414249129593372344970703125">
        <ele>155.1999969482421875</ele>
        <time>2020-08-23T09:10:23.000Z</time>
      </trkpt>
      <trkpt lat="43.285988979041576385498046875" lon="-1.6414691694080829620361328125">
        <ele>154.600006103515625</ele>
        <time>2020-08-23T09:10:24.000Z</time>
      </trkpt>
      <trkpt lat="43.28615301288664340972900390625" lon="-1.6415449418127536773681640625">
        <ele>152.399993896484375</ele>
        <time>2020-08-23T09:10:26.000Z</time>
      </trkpt>
      <trkpt lat="43.28622895292937755584716796875" lon="-1.6415918804705142974853515625">
        <ele>151.600006103515625</ele>
        <time>2020-08-23T09:10:27.000Z</time>
      </trkpt>
      <trkpt lat="43.28630154021084308624267578125" lon="-1.64164602756500244140625">
        <ele>151</ele>
        <time>2020-08-23T09:10:28.000Z</time>
      </trkpt>
      <trkpt lat="43.28642986714839935302734375" lon="-1.64179396815598011016845703125">
        <ele>149.8000030517578125</ele>
        <time>2020-08-23T09:10:30.000Z</time>
      </trkpt>
      <trkpt lat="43.28647412359714508056640625" lon="-1.64188868366181850433349609375">
        <ele>149.399993896484375</ele>
        <time>2020-08-23T09:10:31.000Z</time>
      </trkpt>
      <trkpt lat="43.28652734868228435516357421875" lon="-1.64206780493259429931640625">
        <ele>149</ele>
        <time>2020-08-23T09:10:33.000Z</time>
      </trkpt>
      <trkpt lat="43.28654428012669086456298828125" lon="-1.6421370394527912139892578125">
        <ele>149</ele>
        <time>2020-08-23T09:10:34.000Z</time>
      </trkpt>
      <trkpt lat="43.286558948457241058349609375" lon="-1.64219160564243793487548828125">
        <ele>148.8000030517578125</ele>
        <time>2020-08-23T09:10:35.000Z</time>
      </trkpt>
      <trkpt lat="43.28658132813870906829833984375" lon="-1.64224122650921344757080078125">
        <ele>148.8000030517578125</ele>
        <time>2020-08-23T09:10:37.000Z</time>
      </trkpt>
      <trkpt lat="43.28658652491867542266845703125" lon="-1.64225824177265167236328125">
        <ele>149</ele>
        <time>2020-08-23T09:10:43.000Z</time>
      </trkpt>
      <trkpt lat="43.28658468089997768402099609375" lon="-1.6422570683062076568603515625">
        <ele>148.8000030517578125</ele>
        <time>2020-08-23T09:10:58.000Z</time>
      </trkpt>
      <trkpt lat="43.28658434562385082244873046875" lon="-1.6422594152390956878662109375">
        <ele>148.8000030517578125</ele>
        <time>2020-08-23T09:11:13.000Z</time>
      </trkpt>
      <trkpt lat="43.28658853657543659210205078125" lon="-1.64225731976330280303955078125">
        <ele>149</ele>
        <time>2020-08-23T09:11:48.000Z</time>
      </trkpt>
      <trkpt lat="43.2865973375737667083740234375" lon="-1.64221121929585933685302734375">
        <ele>148.600006103515625</ele>
        <time>2020-08-23T09:11:55.000Z</time>
      </trkpt>
      <trkpt lat="43.28659926541149616241455078125" lon="-1.6421893425285816192626953125">
        <ele>148.600006103515625</ele>
        <time>2020-08-23T09:12:01.000Z</time>
      </trkpt>
      <trkpt lat="43.28660647384822368621826171875" lon="-1.6421878337860107421875">
        <ele>148</ele>
        <time>2020-08-23T09:12:26.000Z</time>
      </trkpt>
      <trkpt lat="43.286654837429523468017578125" lon="-1.64220971055328845977783203125">
        <ele>148.1999969482421875</ele>
        <time>2020-08-23T09:12:31.000Z</time>
      </trkpt>
      <trkpt lat="43.28676237724721431732177734375" lon="-1.64223317988216876983642578125">
        <ele>148</ele>
        <time>2020-08-23T09:12:38.000Z</time>
      </trkpt>
      <trkpt lat="43.28682255931198596954345703125" lon="-1.642341725528240203857421875">
        <ele>147.8000030517578125</ele>
        <time>2020-08-23T09:12:43.000Z</time>
      </trkpt>
      <trkpt lat="43.28688156791031360626220703125" lon="-1.6425799392163753509521484375">
        <ele>147</ele>
        <time>2020-08-23T09:12:48.000Z</time>
      </trkpt>
      <trkpt lat="43.28689984045922756195068359375" lon="-1.64263718761503696441650390625">
        <ele>146.8000030517578125</ele>
        <time>2020-08-23T09:12:49.000Z</time>
      </trkpt>
      <trkpt lat="43.286921046674251556396484375" lon="-1.6426907479763031005859375">
        <ele>146.399993896484375</ele>
        <time>2020-08-23T09:12:50.000Z</time>
      </trkpt>
      <trkpt lat="43.28702758066356182098388671875" lon="-1.64284841157495975494384765625">
        <ele>146</ele>
        <time>2020-08-23T09:12:54.000Z</time>
      </trkpt>
      <trkpt lat="43.2871431671082973480224609375" lon="-1.64290607906877994537353515625">
        <ele>146</ele>
        <time>2020-08-23T09:12:58.000Z</time>
      </trkpt>
      <trkpt lat="43.287170827388763427734375" lon="-1.642900966107845306396484375">
        <ele>146</ele>
        <time>2020-08-23T09:12:59.000Z</time>
      </trkpt>
      <trkpt lat="43.28726763837039470672607421875" lon="-1.6428448073565959930419921875">
        <ele>146.1999969482421875</ele>
        <time>2020-08-23T09:13:04.000Z</time>
      </trkpt>
      <trkpt lat="43.28733704052865505218505859375" lon="-1.6428087651729583740234375">
        <ele>146.8000030517578125</ele>
        <time>2020-08-23T09:13:08.000Z</time>
      </trkpt>
      <trkpt lat="43.2873564027249813079833984375" lon="-1.64280809462070465087890625">
        <ele>147.1999969482421875</ele>
        <time>2020-08-23T09:13:09.000Z</time>
      </trkpt>
      <trkpt lat="43.2874754257500171661376953125" lon="-1.64282821118831634521484375">
        <ele>148</ele>
        <time>2020-08-23T09:13:15.000Z</time>
      </trkpt>
      <trkpt lat="43.2874928601086139678955078125" lon="-1.64282745681703090667724609375">
        <ele>148.399993896484375</ele>
        <time>2020-08-23T09:13:16.000Z</time>
      </trkpt>
      <trkpt lat="43.28759034164249897003173828125" lon="-1.642882861196994781494140625">
        <ele>149.1999969482421875</ele>
        <time>2020-08-23T09:13:22.000Z</time>
      </trkpt>
      <trkpt lat="43.28762034885585308074951171875" lon="-1.6429148800671100616455078125">
        <ele>149.600006103515625</ele>
        <time>2020-08-23T09:13:25.000Z</time>
      </trkpt>
      <trkpt lat="43.28764415346086025238037109375" lon="-1.64293826557695865631103515625">
        <ele>149.8000030517578125</ele>
        <time>2020-08-23T09:13:27.000Z</time>
      </trkpt>
      <trkpt lat="43.28765672631561756134033203125" lon="-1.64296793751418590545654296875">
        <ele>150</ele>
        <time>2020-08-23T09:13:29.000Z</time>
      </trkpt>
      <trkpt lat="43.2877017371356487274169921875" lon="-1.643070615828037261962890625">
        <ele>150.1999969482421875</ele>
        <time>2020-08-23T09:13:35.000Z</time>
      </trkpt>
      <trkpt lat="43.2877490110695362091064453125" lon="-1.64320774376392364501953125">
        <ele>150</ele>
        <time>2020-08-23T09:13:41.000Z</time>
      </trkpt>
      <trkpt lat="43.28778027556836605072021484375" lon="-1.64338820613920688629150390625">
        <ele>150.600006103515625</ele>
        <time>2020-08-23T09:13:48.000Z</time>
      </trkpt>
      <trkpt lat="43.287782371044158935546875" lon="-1.64346230216324329376220703125">
        <ele>151</ele>
        <time>2020-08-23T09:13:51.000Z</time>
      </trkpt>
      <trkpt lat="43.287782035768032073974609375" lon="-1.64351041428744792938232421875">
        <ele>151.1999969482421875</ele>
        <time>2020-08-23T09:13:53.000Z</time>
      </trkpt>
      <trkpt lat="43.2877969555556774139404296875" lon="-1.6436494700610637664794921875">
        <ele>151.600006103515625</ele>
        <time>2020-08-23T09:13:59.000Z</time>
      </trkpt>
      <trkpt lat="43.2878073491156101226806640625" lon="-1.6437202133238315582275390625">
        <ele>152</ele>
        <time>2020-08-23T09:14:02.000Z</time>
      </trkpt>
      <trkpt lat="43.287807516753673553466796875" lon="-1.643833033740520477294921875">
        <ele>152.600006103515625</ele>
        <time>2020-08-23T09:14:07.000Z</time>
      </trkpt>
      <trkpt lat="43.2877986319363117218017578125" lon="-1.6440035216510295867919921875">
        <ele>153</ele>
        <time>2020-08-23T09:14:15.000Z</time>
      </trkpt>
      <trkpt lat="43.2877956144511699676513671875" lon="-1.6440276615321636199951171875">
        <ele>153.1999969482421875</ele>
        <time>2020-08-23T09:14:16.000Z</time>
      </trkpt>
      <trkpt lat="43.28777365386486053466796875" lon="-1.6441728360950946807861328125">
        <ele>154</ele>
        <time>2020-08-23T09:14:23.000Z</time>
      </trkpt>
      <trkpt lat="43.28777323476970195770263671875" lon="-1.6441981494426727294921875">
        <ele>154</ele>
        <time>2020-08-23T09:14:24.000Z</time>
      </trkpt>
      <trkpt lat="43.28775529749691486358642578125" lon="-1.64430451579391956329345703125">
        <ele>154.399993896484375</ele>
        <time>2020-08-23T09:14:29.000Z</time>
      </trkpt>
      <trkpt lat="43.28774188645184040069580078125" lon="-1.6444092057645320892333984375">
        <ele>155</ele>
        <time>2020-08-23T09:14:35.000Z</time>
      </trkpt>
      <trkpt lat="43.287743143737316131591796875" lon="-1.64460919797420501708984375">
        <ele>155.600006103515625</ele>
        <time>2020-08-23T09:14:43.000Z</time>
      </trkpt>
      <trkpt lat="43.2877396233379840850830078125" lon="-1.64475864730775356292724609375">
        <ele>156</ele>
        <time>2020-08-23T09:14:49.000Z</time>
      </trkpt>
      <trkpt lat="43.2877332530915737152099609375" lon="-1.6448340006172657012939453125">
        <ele>156.399993896484375</ele>
        <time>2020-08-23T09:14:52.000Z</time>
      </trkpt>
      <trkpt lat="43.2877305708825588226318359375" lon="-1.64488404057919979095458984375">
        <ele>156.600006103515625</ele>
        <time>2020-08-23T09:14:54.000Z</time>
      </trkpt>
      <trkpt lat="43.2877327501773834228515625" lon="-1.64491086266934871673583984375">
        <ele>156.600006103515625</ele>
        <time>2020-08-23T09:14:55.000Z</time>
      </trkpt>
      <trkpt lat="43.2877335883677005767822265625" lon="-1.6450049914419651031494140625">
        <ele>157.399993896484375</ele>
        <time>2020-08-23T09:14:59.000Z</time>
      </trkpt>
      <trkpt lat="43.2877389527857303619384765625" lon="-1.64507581852376461029052734375">
        <ele>157.8000030517578125</ele>
        <time>2020-08-23T09:15:02.000Z</time>
      </trkpt>
      <trkpt lat="43.287742473185062408447265625" lon="-1.64513968862593173980712890625">
        <ele>158.399993896484375</ele>
        <time>2020-08-23T09:15:05.000Z</time>
      </trkpt>
      <trkpt lat="43.28776560723781585693359375" lon="-1.64522610604763031005859375">
        <ele>159.8000030517578125</ele>
        <time>2020-08-23T09:15:10.000Z</time>
      </trkpt>
      <trkpt lat="43.28778530471026897430419921875" lon="-1.6452933289110660552978515625">
        <ele>160.600006103515625</ele>
        <time>2020-08-23T09:15:14.000Z</time>
      </trkpt>
      <trkpt lat="43.2877922616899013519287109375" lon="-1.6453090868890285491943359375">
        <ele>160.8000030517578125</ele>
        <time>2020-08-23T09:15:15.000Z</time>
      </trkpt>
      <trkpt lat="43.28779938630759716033935546875" lon="-1.64532492868602275848388671875">
        <ele>161</ele>
        <time>2020-08-23T09:15:16.000Z</time>
      </trkpt>
      <trkpt lat="43.2878371886909008026123046875" lon="-1.64539500139653682708740234375">
        <ele>161.8000030517578125</ele>
        <time>2020-08-23T09:15:21.000Z</time>
      </trkpt>
      <trkpt lat="43.28785948455333709716796875" lon="-1.64543892256915569305419921875">
        <ele>162.1999969482421875</ele>
        <time>2020-08-23T09:15:24.000Z</time>
      </trkpt>
      <trkpt lat="43.2879072614014148712158203125" lon="-1.64550430141389369964599609375">
        <ele>162.8000030517578125</ele>
        <time>2020-08-23T09:15:29.000Z</time>
      </trkpt>
      <trkpt lat="43.287954367697238922119140625" lon="-1.64557806216180324554443359375">
        <ele>164</ele>
        <time>2020-08-23T09:15:34.000Z</time>
      </trkpt>
      <trkpt lat="43.2879635877907276153564453125" lon="-1.64559516124427318572998046875">
        <ele>164.1999969482421875</ele>
        <time>2020-08-23T09:15:35.000Z</time>
      </trkpt>
      <trkpt lat="43.2880175672471523284912109375" lon="-1.6457073949277400970458984375">
        <ele>165.1999969482421875</ele>
        <time>2020-08-23T09:15:42.000Z</time>
      </trkpt>
      <trkpt lat="43.288028128445148468017578125" lon="-1.64572189562022686004638671875">
        <ele>165.399993896484375</ele>
        <time>2020-08-23T09:15:43.000Z</time>
      </trkpt>
      <trkpt lat="43.28807917423546314239501953125" lon="-1.64581292308866977691650390625">
        <ele>166.600006103515625</ele>
        <time>2020-08-23T09:15:49.000Z</time>
      </trkpt>
      <trkpt lat="43.288087807595729827880859375" lon="-1.64582733996212482452392578125">
        <ele>166.8000030517578125</ele>
        <time>2020-08-23T09:15:50.000Z</time>
      </trkpt>
      <trkpt lat="43.28814648091793060302734375" lon="-1.64597989059984683990478515625">
        <ele>167.600006103515625</ele>
        <time>2020-08-23T09:15:58.000Z</time>
      </trkpt>
      <trkpt lat="43.28817523084580898284912109375" lon="-1.646056585013866424560546875">
        <ele>167.8000030517578125</ele>
        <time>2020-08-23T09:16:02.000Z</time>
      </trkpt>
      <trkpt lat="43.288185037672519683837890625" lon="-1.646111905574798583984375">
        <ele>168.1999969482421875</ele>
        <time>2020-08-23T09:16:05.000Z</time>
      </trkpt>
      <trkpt lat="43.2881979458034038543701171875" lon="-1.64616865105926990509033203125">
        <ele>168.600006103515625</ele>
        <time>2020-08-23T09:16:08.000Z</time>
      </trkpt>
      <trkpt lat="43.28820959664881229400634765625" lon="-1.64620955474674701690673828125">
        <ele>168.8000030517578125</ele>
        <time>2020-08-23T09:16:10.000Z</time>
      </trkpt>
      <trkpt lat="43.28822284005582332611083984375" lon="-1.64625112898647785186767578125">
        <ele>169.1999969482421875</ele>
        <time>2020-08-23T09:16:12.000Z</time>
      </trkpt>
      <trkpt lat="43.28828838653862476348876953125" lon="-1.6463776119053363800048828125">
        <ele>169.600006103515625</ele>
        <time>2020-08-23T09:16:18.000Z</time>
      </trkpt>
      <trkpt lat="43.28839098103344440460205078125" lon="-1.64649906568229198455810546875">
        <ele>170.1999969482421875</ele>
        <time>2020-08-23T09:16:25.000Z</time>
      </trkpt>
      <trkpt lat="43.28845635987818241119384765625" lon="-1.64654382504522800445556640625">
        <ele>170.600006103515625</ele>
        <time>2020-08-23T09:16:29.000Z</time>
      </trkpt>
      <trkpt lat="43.2885114289820194244384765625" lon="-1.64657919667661190032958984375">
        <ele>171</ele>
        <time>2020-08-23T09:16:32.000Z</time>
      </trkpt>
      <trkpt lat="43.288606144487857818603515625" lon="-1.64663502015173435211181640625">
        <ele>171.399993896484375</ele>
        <time>2020-08-23T09:16:38.000Z</time>
      </trkpt>
      <trkpt lat="43.2886592857539653778076171875" lon="-1.646653376519680023193359375">
        <ele>171.8000030517578125</ele>
        <time>2020-08-23T09:16:41.000Z</time>
      </trkpt>
      <trkpt lat="43.28876473009586334228515625" lon="-1.646702326834201812744140625">
        <ele>172.8000030517578125</ele>
        <time>2020-08-23T09:16:48.000Z</time>
      </trkpt>
      <trkpt lat="43.28881560824811458587646484375" lon="-1.646719090640544891357421875">
        <ele>173.1999969482421875</ele>
        <time>2020-08-23T09:16:51.000Z</time>
      </trkpt>
      <trkpt lat="43.28892574645578861236572265625" lon="-1.64675823412835597991943359375">
        <ele>174.1999969482421875</ele>
        <time>2020-08-23T09:16:57.000Z</time>
      </trkpt>
      <trkpt lat="43.28894167207181453704833984375" lon="-1.646763347089290618896484375">
        <ele>174.399993896484375</ele>
        <time>2020-08-23T09:16:58.000Z</time>
      </trkpt>
      <trkpt lat="43.28907645307481288909912109375" lon="-1.6468101181089878082275390625">
        <ele>175.1999969482421875</ele>
        <time>2020-08-23T09:17:06.000Z</time>
      </trkpt>
      <trkpt lat="43.289094306528568267822265625" lon="-1.64681439287960529327392578125">
        <ele>175.399993896484375</ele>
        <time>2020-08-23T09:17:07.000Z</time>
      </trkpt>
      <trkpt lat="43.289169408380985260009765625" lon="-1.64685579948127269744873046875">
        <ele>176.399993896484375</ele>
        <time>2020-08-23T09:17:12.000Z</time>
      </trkpt>
      <trkpt lat="43.28926990740001201629638671875" lon="-1.64689167402684688568115234375">
        <ele>177.399993896484375</ele>
        <time>2020-08-23T09:17:18.000Z</time>
      </trkpt>
      <trkpt lat="43.289284743368625640869140625" lon="-1.64689980447292327880859375">
        <ele>177.600006103515625</ele>
        <time>2020-08-23T09:17:19.000Z</time>
      </trkpt>
      <trkpt lat="43.28937250189483165740966796875" lon="-1.64695202372968196868896484375">
        <ele>178.600006103515625</ele>
        <time>2020-08-23T09:17:25.000Z</time>
      </trkpt>
      <trkpt lat="43.28942027874290943145751953125" lon="-1.64697314612567424774169921875">
        <ele>179.399993896484375</ele>
        <time>2020-08-23T09:17:28.000Z</time>
      </trkpt>
      <trkpt lat="43.28947685658931732177734375" lon="-1.64704321883618831634521484375">
        <ele>179.8000030517578125</ele>
        <time>2020-08-23T09:17:33.000Z</time>
      </trkpt>
      <trkpt lat="43.28950191847980022430419921875" lon="-1.64709803648293018341064453125">
        <ele>180.1999969482421875</ele>
        <time>2020-08-23T09:17:36.000Z</time>
      </trkpt>
      <trkpt lat="43.28952111303806304931640625" lon="-1.64721203036606311798095703125">
        <ele>181</ele>
        <time>2020-08-23T09:17:41.000Z</time>
      </trkpt>
      <trkpt lat="43.289515413343906402587890625" lon="-1.64728461764752864837646484375">
        <ele>181.399993896484375</ele>
        <time>2020-08-23T09:17:44.000Z</time>
      </trkpt>
      <trkpt lat="43.2895011641085147857666015625" lon="-1.647399701178073883056640625">
        <ele>182</ele>
        <time>2020-08-23T09:17:49.000Z</time>
      </trkpt>
      <trkpt lat="43.28949051909148693084716796875" lon="-1.6474746353924274444580078125">
        <ele>182.1999969482421875</ele>
        <time>2020-08-23T09:17:52.000Z</time>
      </trkpt>
      <trkpt lat="43.28949823044240474700927734375" lon="-1.64767907001078128814697265625">
        <ele>182.399993896484375</ele>
        <time>2020-08-23T09:18:00.000Z</time>
      </trkpt>
      <trkpt lat="43.28954114578664302825927734375" lon="-1.6478129290044307708740234375">
        <ele>182.399993896484375</ele>
        <time>2020-08-23T09:18:06.000Z</time>
      </trkpt>
      <trkpt lat="43.28955371864140033721923828125" lon="-1.647832207381725311279296875">
        <ele>182.399993896484375</ele>
        <time>2020-08-23T09:18:07.000Z</time>
      </trkpt>
      <trkpt lat="43.2896221987903118133544921875" lon="-1.64791678078472614288330078125">
        <ele>183.1999969482421875</ele>
        <time>2020-08-23T09:18:12.000Z</time>
      </trkpt>
      <trkpt lat="43.28967274166643619537353515625" lon="-1.64794854819774627685546875">
        <ele>183.600006103515625</ele>
        <time>2020-08-23T09:18:15.000Z</time>
      </trkpt>
      <trkpt lat="43.28975044190883636474609375" lon="-1.64798551239073276519775390625">
        <ele>184.1999969482421875</ele>
        <time>2020-08-23T09:18:20.000Z</time>
      </trkpt>
      <trkpt lat="43.28978455625474452972412109375" lon="-1.64799808524549007415771484375">
        <ele>184.600006103515625</ele>
        <time>2020-08-23T09:18:22.000Z</time>
      </trkpt>
      <trkpt lat="43.289884217083454132080078125" lon="-1.64802440442144870758056640625">
        <ele>185.1999969482421875</ele>
        <time>2020-08-23T09:18:28.000Z</time>
      </trkpt>
      <trkpt lat="43.28997306525707244873046875" lon="-1.64805608801543712615966796875">
        <ele>186</ele>
        <time>2020-08-23T09:18:33.000Z</time>
      </trkpt>
      <trkpt lat="43.29000768251717090606689453125" lon="-1.64806698448956012725830078125">
        <ele>186.1999969482421875</ele>
        <time>2020-08-23T09:18:35.000Z</time>
      </trkpt>
      <trkpt lat="43.29010273329913616180419921875" lon="-1.64812213741242885589599609375">
        <ele>186.8000030517578125</ele>
        <time>2020-08-23T09:18:41.000Z</time>
      </trkpt>
      <trkpt lat="43.2901958562433719635009765625" lon="-1.6481639631092548370361328125">
        <ele>187.1999969482421875</ele>
        <time>2020-08-23T09:18:46.000Z</time>
      </trkpt>
      <trkpt lat="43.290254361927509307861328125" lon="-1.6481860913336277008056640625">
        <ele>187.399993896484375</ele>
        <time>2020-08-23T09:18:49.000Z</time>
      </trkpt>
      <trkpt lat="43.29041822813451290130615234375" lon="-1.64826362393796443939208984375">
        <ele>187.8000030517578125</ele>
        <time>2020-08-23T09:18:58.000Z</time>
      </trkpt>
      <trkpt lat="43.2904862053692340850830078125" lon="-1.64830125868320465087890625">
        <ele>188.399993896484375</ele>
        <time>2020-08-23T09:19:02.000Z</time>
      </trkpt>
      <trkpt lat="43.2905710302293300628662109375" lon="-1.6483383066952228546142578125">
        <ele>189.600006103515625</ele>
        <time>2020-08-23T09:19:07.000Z</time>
      </trkpt>
      <trkpt lat="43.2905877940356731414794921875" lon="-1.6483446769416332244873046875">
        <ele>189.600006103515625</ele>
        <time>2020-08-23T09:19:08.000Z</time>
      </trkpt>
      <trkpt lat="43.29067219980061054229736328125" lon="-1.6483654640614986419677734375">
        <ele>190.8000030517578125</ele>
        <time>2020-08-23T09:19:13.000Z</time>
      </trkpt>
      <trkpt lat="43.2907255925238132476806640625" lon="-1.64837099611759185791015625">
        <ele>191.399993896484375</ele>
        <time>2020-08-23T09:19:16.000Z</time>
      </trkpt>
      <trkpt lat="43.290775716304779052734375" lon="-1.64835582487285137176513671875">
        <ele>192</ele>
        <time>2020-08-23T09:19:19.000Z</time>
      </trkpt>
      <trkpt lat="43.2908432744443416595458984375" lon="-1.64833746850490570068359375">
        <ele>192.399993896484375</ele>
        <time>2020-08-23T09:19:23.000Z</time>
      </trkpt>
      <trkpt lat="43.29090035520493984222412109375" lon="-1.6483098082244396209716796875">
        <ele>193</ele>
        <time>2020-08-23T09:19:27.000Z</time>
      </trkpt>
      <trkpt lat="43.29096036963164806365966796875" lon="-1.6482849977910518646240234375">
        <ele>193.600006103515625</ele>
        <time>2020-08-23T09:19:31.000Z</time>
      </trkpt>
      <trkpt lat="43.29098802991211414337158203125" lon="-1.64828541688621044158935546875">
        <ele>194.1999969482421875</ele>
        <time>2020-08-23T09:19:33.000Z</time>
      </trkpt>
      <trkpt lat="43.29102859832346439361572265625" lon="-1.64829916320741176605224609375">
        <ele>194.8000030517578125</ele>
        <time>2020-08-23T09:19:36.000Z</time>
      </trkpt>
      <trkpt lat="43.2910586893558502197265625" lon="-1.64830394089221954345703125">
        <ele>195.1999969482421875</ele>
        <time>2020-08-23T09:19:38.000Z</time>
      </trkpt>
      <trkpt lat="43.29111593775451183319091796875" lon="-1.648327074944972991943359375">
        <ele>196.1999969482421875</ele>
        <time>2020-08-23T09:19:42.000Z</time>
      </trkpt>
      <trkpt lat="43.291142173111438751220703125" lon="-1.64834543131291866302490234375">
        <ele>196.600006103515625</ele>
        <time>2020-08-23T09:19:44.000Z</time>
      </trkpt>
      <trkpt lat="43.29123906791210174560546875" lon="-1.648440398275852203369140625">
        <ele>197.399993896484375</ele>
        <time>2020-08-23T09:19:51.000Z</time>
      </trkpt>
      <trkpt lat="43.29138617031276226043701171875" lon="-1.6485227085649967193603515625">
        <ele>198</ele>
        <time>2020-08-23T09:20:00.000Z</time>
      </trkpt>
      <trkpt lat="43.29145624302327632904052734375" lon="-1.64850988425314426422119140625">
        <ele>198.399993896484375</ele>
        <time>2020-08-23T09:20:04.000Z</time>
      </trkpt>
      <trkpt lat="43.291518688201904296875" lon="-1.648466549813747406005859375">
        <ele>199.1999969482421875</ele>
        <time>2020-08-23T09:20:08.000Z</time>
      </trkpt>
      <trkpt lat="43.2915761880576610565185546875" lon="-1.64842003025114536285400390625">
        <ele>199.399993896484375</ele>
        <time>2020-08-23T09:20:12.000Z</time>
      </trkpt>
      <trkpt lat="43.29163326881825923919677734375" lon="-1.6483698226511478424072265625">
        <ele>200</ele>
        <time>2020-08-23T09:20:16.000Z</time>
      </trkpt>
      <trkpt lat="43.29170384444296360015869140625" lon="-1.6483019292354583740234375">
        <ele>200.8000030517578125</ele>
        <time>2020-08-23T09:20:21.000Z</time>
      </trkpt>
      <trkpt lat="43.29175849445164203643798828125" lon="-1.64824786596000194549560546875">
        <ele>201.399993896484375</ele>
        <time>2020-08-23T09:20:25.000Z</time>
      </trkpt>
      <trkpt lat="43.291799984872341156005859375" lon="-1.6482058726251125335693359375">
        <ele>201.8000030517578125</ele>
        <time>2020-08-23T09:20:28.000Z</time>
      </trkpt>
      <trkpt lat="43.2918658666312694549560546875" lon="-1.64814292453229427337646484375">
        <ele>203</ele>
        <time>2020-08-23T09:20:33.000Z</time>
      </trkpt>
      <trkpt lat="43.29189294017851352691650390625" lon="-1.6481227241456508636474609375">
        <ele>203.399993896484375</ele>
        <time>2020-08-23T09:20:35.000Z</time>
      </trkpt>
      <trkpt lat="43.291969634592533111572265625" lon="-1.64804636500775814056396484375">
        <ele>204</ele>
        <time>2020-08-23T09:20:41.000Z</time>
      </trkpt>
      <trkpt lat="43.29198245890438556671142578125" lon="-1.6480335406959056854248046875">
        <ele>204</ele>
        <time>2020-08-23T09:20:42.000Z</time>
      </trkpt>
      <trkpt lat="43.2920408807694911956787109375" lon="-1.64797444827854633331298828125">
        <ele>205</ele>
        <time>2020-08-23T09:20:47.000Z</time>
      </trkpt>
      <trkpt lat="43.29205387271940708160400390625" lon="-1.6479648090898990631103515625">
        <ele>205.1999969482421875</ele>
        <time>2020-08-23T09:20:48.000Z</time>
      </trkpt>
      <trkpt lat="43.292111456394195556640625" lon="-1.64790295064449310302734375">
        <ele>206.1999969482421875</ele>
        <time>2020-08-23T09:20:53.000Z</time>
      </trkpt>
      <trkpt lat="43.29214892350137233734130859375" lon="-1.64787168614566326141357421875">
        <ele>206.600006103515625</ele>
        <time>2020-08-23T09:20:56.000Z</time>
      </trkpt>
      <trkpt lat="43.29222570173442363739013671875" lon="-1.647801697254180908203125">
        <ele>207.399993896484375</ele>
        <time>2020-08-23T09:21:02.000Z</time>
      </trkpt>
      <trkpt lat="43.2922795973718166351318359375" lon="-1.64775970391929149627685546875">
        <ele>207.8000030517578125</ele>
        <time>2020-08-23T09:21:06.000Z</time>
      </trkpt>
      <trkpt lat="43.292311616241931915283203125" lon="-1.6477173753082752227783203125">
        <ele>208.399993896484375</ele>
        <time>2020-08-23T09:21:09.000Z</time>
      </trkpt>
      <trkpt lat="43.29236601479351520538330078125" lon="-1.64767521433532238006591796875">
        <ele>209.1999969482421875</ele>
        <time>2020-08-23T09:21:13.000Z</time>
      </trkpt>
      <trkpt lat="43.2924059964716434478759765625" lon="-1.647640429437160491943359375">
        <ele>209.600006103515625</ele>
        <time>2020-08-23T09:21:16.000Z</time>
      </trkpt>
      <trkpt lat="43.2924519293010234832763671875" lon="-1.64759005419909954071044921875">
        <ele>210.399993896484375</ele>
        <time>2020-08-23T09:21:20.000Z</time>
      </trkpt>
      <trkpt lat="43.29246441833674907684326171875" lon="-1.6475805826485157012939453125">
        <ele>210.600006103515625</ele>
        <time>2020-08-23T09:21:21.000Z</time>
      </trkpt>
      <trkpt lat="43.29251219518482685089111328125" lon="-1.64753020741045475006103515625">
        <ele>212</ele>
        <time>2020-08-23T09:21:25.000Z</time>
      </trkpt>
      <trkpt lat="43.29255276359617710113525390625" lon="-1.647498272359371185302734375">
        <ele>212.8000030517578125</ele>
        <time>2020-08-23T09:21:28.000Z</time>
      </trkpt>
      <trkpt lat="43.29259266145527362823486328125" lon="-1.6474722884595394134521484375">
        <ele>212.8000030517578125</ele>
        <time>2020-08-23T09:21:31.000Z</time>
      </trkpt>
      <trkpt lat="43.2926333136856555938720703125" lon="-1.647442616522312164306640625">
        <ele>213.1999969482421875</ele>
        <time>2020-08-23T09:21:34.000Z</time>
      </trkpt>
      <trkpt lat="43.29278158955276012420654296875" lon="-1.64746097289025783538818359375">
        <ele>214.1999969482421875</ele>
        <time>2020-08-23T09:21:43.000Z</time>
      </trkpt>
      <trkpt lat="43.292799107730388641357421875" lon="-1.6474699415266513824462890625">
        <ele>214.1999969482421875</ele>
        <time>2020-08-23T09:21:44.000Z</time>
      </trkpt>
      <trkpt lat="43.29290798865258693695068359375" lon="-1.64755384437739849090576171875">
        <ele>214.8000030517578125</ele>
        <time>2020-08-23T09:21:51.000Z</time>
      </trkpt>
      <trkpt lat="43.2929726131260395050048828125" lon="-1.647592820227146148681640625">
        <ele>215.1999969482421875</ele>
        <time>2020-08-23T09:21:55.000Z</time>
      </trkpt>
      <trkpt lat="43.29303220845758914947509765625" lon="-1.64764956571161746978759765625">
        <ele>215.600006103515625</ele>
        <time>2020-08-23T09:21:59.000Z</time>
      </trkpt>
      <trkpt lat="43.29319733195006847381591796875" lon="-1.64778300561010837554931640625">
        <ele>215.8000030517578125</ele>
        <time>2020-08-23T09:22:09.000Z</time>
      </trkpt>
      <trkpt lat="43.29334602691233158111572265625" lon="-1.6478404216468334197998046875">
        <ele>216</ele>
        <time>2020-08-23T09:22:17.000Z</time>
      </trkpt>
      <trkpt lat="43.2934083044528961181640625" lon="-1.64783061482012271881103515625">
        <ele>216.1999969482421875</ele>
        <time>2020-08-23T09:22:20.000Z</time>
      </trkpt>
      <trkpt lat="43.2934882678091526031494140625" lon="-1.64778032340109348297119140625">
        <ele>216.8000030517578125</ele>
        <time>2020-08-23T09:22:24.000Z</time>
      </trkpt>
      <trkpt lat="43.293542750179767608642578125" lon="-1.6477547585964202880859375">
        <ele>217.399993896484375</ele>
        <time>2020-08-23T09:22:27.000Z</time>
      </trkpt>
      <trkpt lat="43.2936119846999645233154296875" lon="-1.64773003198206424713134765625">
        <ele>218.399993896484375</ele>
        <time>2020-08-23T09:22:31.000Z</time>
      </trkpt>
      <trkpt lat="43.29362916760146617889404296875" lon="-1.64772517047822475433349609375">
        <ele>218.600006103515625</ele>
        <time>2020-08-23T09:22:32.000Z</time>
      </trkpt>
      <trkpt lat="43.293722458183765411376953125" lon="-1.647706814110279083251953125">
        <ele>219.600006103515625</ele>
        <time>2020-08-23T09:22:37.000Z</time>
      </trkpt>
      <trkpt lat="43.2937615178525447845458984375" lon="-1.64770823903381824493408203125">
        <ele>220</ele>
        <time>2020-08-23T09:22:39.000Z</time>
      </trkpt>
      <trkpt lat="43.293835781514644622802734375" lon="-1.64775115437805652618408203125">
        <ele>220.8000030517578125</ele>
        <time>2020-08-23T09:22:44.000Z</time>
      </trkpt>
      <trkpt lat="43.293847851455211639404296875" lon="-1.64776674471795558929443359375">
        <ele>221</ele>
        <time>2020-08-23T09:22:45.000Z</time>
      </trkpt>
      <trkpt lat="43.29393041320145130157470703125" lon="-1.64787654764950275421142578125">
        <ele>221.399993896484375</ele>
        <time>2020-08-23T09:22:51.000Z</time>
      </trkpt>
      <trkpt lat="43.29406477510929107666015625" lon="-1.6480456106364727020263671875">
        <ele>221.399993896484375</ele>
        <time>2020-08-23T09:23:00.000Z</time>
      </trkpt>
      <trkpt lat="43.2940944470465183258056640625" lon="-1.64808265864849090576171875">
        <ele>222</ele>
        <time>2020-08-23T09:23:02.000Z</time>
      </trkpt>
      <trkpt lat="43.29420022666454315185546875" lon="-1.64824099279940128326416015625">
        <ele>222.399993896484375</ele>
        <time>2020-08-23T09:23:09.000Z</time>
      </trkpt>
      <trkpt lat="43.29433299601078033447265625" lon="-1.64841466583311557769775390625">
        <ele>221.399993896484375</ele>
        <time>2020-08-23T09:23:14.000Z</time>
      </trkpt>
      <trkpt lat="43.29445210285484790802001953125" lon="-1.648500747978687286376953125">
        <ele>221.8000030517578125</ele>
        <time>2020-08-23T09:23:19.000Z</time>
      </trkpt>
      <trkpt lat="43.2945168949663639068603515625" lon="-1.6485421545803546905517578125">
        <ele>222.399993896484375</ele>
        <time>2020-08-23T09:23:24.000Z</time>
      </trkpt>
      <trkpt lat="43.29454061575233936309814453125" lon="-1.64858984760940074920654296875">
        <ele>222.8000030517578125</ele>
        <time>2020-08-23T09:23:26.000Z</time>
      </trkpt>
      <trkpt lat="43.2946060784161090850830078125" lon="-1.64868774823844432830810546875">
        <ele>223</ele>
        <time>2020-08-23T09:23:31.000Z</time>
      </trkpt>
      <trkpt lat="43.29471261240541934967041015625" lon="-1.6487959586083889007568359375">
        <ele>223</ele>
        <time>2020-08-23T09:23:37.000Z</time>
      </trkpt>
      <trkpt lat="43.294730968773365020751953125" lon="-1.64881397970020771026611328125">
        <ele>223.1999969482421875</ele>
        <time>2020-08-23T09:23:38.000Z</time>
      </trkpt>
      <trkpt lat="43.29489466734230518341064453125" lon="-1.64892529137432575225830078125">
        <ele>223.600006103515625</ele>
        <time>2020-08-23T09:23:46.000Z</time>
      </trkpt>
      <trkpt lat="43.29494127072393894195556640625" lon="-1.64893702603876590728759765625">
        <ele>223.8000030517578125</ele>
        <time>2020-08-23T09:23:50.000Z</time>
      </trkpt>
      <trkpt lat="43.29494453966617584228515625" lon="-1.64893551729619503021240234375">
        <ele>224</ele>
        <time>2020-08-23T09:24:09.000Z</time>
      </trkpt>
      <trkpt lat="43.29494588077068328857421875" lon="-1.64893434382975101470947265625">
        <ele>223.8000030517578125</ele>
        <time>2020-08-23T09:24:31.000Z</time>
      </trkpt>
      <trkpt lat="43.2949450425803661346435546875" lon="-1.6489349305629730224609375">
        <ele>223.8000030517578125</ele>
        <time>2020-08-23T09:24:40.000Z</time>
      </trkpt>
      <trkpt lat="43.29494479112327098846435546875" lon="-1.6489350982010364532470703125">
        <ele>223.8000030517578125</ele>
        <time>2020-08-23T09:24:50.000Z</time>
      </trkpt>
      <trkpt lat="43.29494512639939785003662109375" lon="-1.6489357687532901763916015625">
        <ele>223.600006103515625</ele>
        <time>2020-08-23T09:25:03.000Z</time>
      </trkpt>
      <trkpt lat="43.294947557151317596435546875" lon="-1.64893585257232189178466796875">
        <ele>223.8000030517578125</ele>
        <time>2020-08-23T09:25:21.000Z</time>
      </trkpt>
      <trkpt lat="43.29494982026517391204833984375" lon="-1.64893828332424163818359375">
        <ele>223.600006103515625</ele>
        <time>2020-08-23T09:25:45.000Z</time>
      </trkpt>
      <trkpt lat="43.29494780860841274261474609375" lon="-1.6489371098577976226806640625">
        <ele>223.600006103515625</ele>
        <time>2020-08-23T09:26:02.000Z</time>
      </trkpt>
      <trkpt lat="43.294977732002735137939453125" lon="-1.648954041302204132080078125">
        <ele>223.600006103515625</ele>
        <time>2020-08-23T09:26:23.000Z</time>
      </trkpt>
      <trkpt lat="43.2950617186725139617919921875" lon="-1.64904733188450336456298828125">
        <ele>224</ele>
        <time>2020-08-23T09:26:29.000Z</time>
      </trkpt>
      <trkpt lat="43.29508602619171142578125" lon="-1.64909116923809051513671875">
        <ele>224.1999969482421875</ele>
        <time>2020-08-23T09:26:31.000Z</time>
      </trkpt>
      <trkpt lat="43.29515911638736724853515625" lon="-1.6492184065282344818115234375">
        <ele>225.1999969482421875</ele>
        <time>2020-08-23T09:26:38.000Z</time>
      </trkpt>
      <trkpt lat="43.29516959376633167266845703125" lon="-1.64923324249684810638427734375">
        <ele>225.399993896484375</ele>
        <time>2020-08-23T09:26:39.000Z</time>
      </trkpt>
      <trkpt lat="43.2951944880187511444091796875" lon="-1.64928806014358997344970703125">
        <ele>226.600006103515625</ele>
        <time>2020-08-23T09:26:42.000Z</time>
      </trkpt>
      <trkpt lat="43.29523966647684574127197265625" lon="-1.6493525169789791107177734375">
        <ele>227.600006103515625</ele>
        <time>2020-08-23T09:26:46.000Z</time>
      </trkpt>
      <trkpt lat="43.2952850125730037689208984375" lon="-1.649411357939243316650390625">
        <ele>228.8000030517578125</ele>
        <time>2020-08-23T09:26:50.000Z</time>
      </trkpt>
      <trkpt lat="43.29531677998602390289306640625" lon="-1.64947749115526676177978515625">
        <ele>229.600006103515625</ele>
        <time>2020-08-23T09:26:54.000Z</time>
      </trkpt>
      <trkpt lat="43.295325078070163726806640625" lon="-1.64949190802872180938720703125">
        <ele>229.8000030517578125</ele>
        <time>2020-08-23T09:26:55.000Z</time>
      </trkpt>
      <trkpt lat="43.295382075011730194091796875" lon="-1.64954823441803455352783203125">
        <ele>231.1999969482421875</ele>
        <time>2020-08-23T09:27:00.000Z</time>
      </trkpt>
      <trkpt lat="43.29539238475263118743896484375" lon="-1.64956114254891872406005859375">
        <ele>231.399993896484375</ele>
        <time>2020-08-23T09:27:01.000Z</time>
      </trkpt>
      <trkpt lat="43.29543295316398143768310546875" lon="-1.64962467737495899200439453125">
        <ele>232.1999969482421875</ele>
        <time>2020-08-23T09:27:05.000Z</time>
      </trkpt>
      <trkpt lat="43.295463211834430694580078125" lon="-1.64967128075659275054931640625">
        <ele>233.1999969482421875</ele>
        <time>2020-08-23T09:27:08.000Z</time>
      </trkpt>
      <trkpt lat="43.29547226428985595703125" lon="-1.64968770928680896759033203125">
        <ele>233.399993896484375</ele>
        <time>2020-08-23T09:27:09.000Z</time>
      </trkpt>
      <trkpt lat="43.2955388166010379791259765625" lon="-1.64977655746042728424072265625">
        <ele>234.399993896484375</ele>
        <time>2020-08-23T09:27:15.000Z</time>
      </trkpt>
      <trkpt lat="43.29554962925612926483154296875" lon="-1.6497923992574214935302734375">
        <ele>234.8000030517578125</ele>
        <time>2020-08-23T09:27:16.000Z</time>
      </trkpt>
      <trkpt lat="43.29561517573893070220947265625" lon="-1.64990848861634731292724609375">
        <ele>235.8000030517578125</ele>
        <time>2020-08-23T09:27:23.000Z</time>
      </trkpt>
      <trkpt lat="43.29562674276530742645263671875" lon="-1.64992273785173892974853515625">
        <ele>236</ele>
        <time>2020-08-23T09:27:24.000Z</time>
      </trkpt>
      <trkpt lat="43.29566379077732563018798828125" lon="-1.64998878724873065948486328125">
        <ele>236.8000030517578125</ele>
        <time>2020-08-23T09:27:28.000Z</time>
      </trkpt>
      <trkpt lat="43.29572330228984355926513671875" lon="-1.65006422437727451324462890625">
        <ele>237.8000030517578125</ele>
        <time>2020-08-23T09:27:34.000Z</time>
      </trkpt>
      <trkpt lat="43.29573235474526882171630859375" lon="-1.65007864125072956085205078125">
        <ele>238</ele>
        <time>2020-08-23T09:27:35.000Z</time>
      </trkpt>
      <trkpt lat="43.2957798801362514495849609375" lon="-1.65015592239797115325927734375">
        <ele>239</ele>
        <time>2020-08-23T09:27:40.000Z</time>
      </trkpt>
      <trkpt lat="43.29578784294426441192626953125" lon="-1.65017268620431423187255859375">
        <ele>239.1999969482421875</ele>
        <time>2020-08-23T09:27:41.000Z</time>
      </trkpt>
      <trkpt lat="43.29581801779568195343017578125" lon="-1.6503090597689151763916015625">
        <ele>240</ele>
        <time>2020-08-23T09:27:48.000Z</time>
      </trkpt>
      <trkpt lat="43.295823633670806884765625" lon="-1.65032741613686084747314453125">
        <ele>240.1999969482421875</ele>
        <time>2020-08-23T09:27:49.000Z</time>
      </trkpt>
      <trkpt lat="43.29583696089684963226318359375" lon="-1.65043252520263195037841796875">
        <ele>241</ele>
        <time>2020-08-23T09:27:54.000Z</time>
      </trkpt>
      <trkpt lat="43.29588641412556171417236328125" lon="-1.650562696158885955810546875">
        <ele>241</ele>
        <time>2020-08-23T09:27:58.000Z</time>
      </trkpt>
      <trkpt lat="43.29593737609684467315673828125" lon="-1.65066436864435672760009765625">
        <ele>240.399993896484375</ele>
        <time>2020-08-23T09:28:00.000Z</time>
      </trkpt>
      <trkpt lat="43.29598817043006420135498046875" lon="-1.65081138722598552703857421875">
        <ele>239.8000030517578125</ele>
        <time>2020-08-23T09:28:02.000Z</time>
      </trkpt>
      <trkpt lat="43.29604550264775753021240234375" lon="-1.6509729065001010894775390625">
        <ele>238.8000030517578125</ele>
        <time>2020-08-23T09:28:04.000Z</time>
      </trkpt>
      <trkpt lat="43.2961315847933292388916015625" lon="-1.6511784307658672332763671875">
        <ele>238</ele>
        <time>2020-08-23T09:28:07.000Z</time>
      </trkpt>
      <trkpt lat="43.29620693810284137725830078125" lon="-1.65143785066902637481689453125">
        <ele>238</ele>
        <time>2020-08-23T09:28:12.000Z</time>
      </trkpt>
      <trkpt lat="43.29624230973422527313232421875" lon="-1.65161403827369213104248046875">
        <ele>238.600006103515625</ele>
        <time>2020-08-23T09:28:17.000Z</time>
      </trkpt>
      <trkpt lat="43.29624499194324016571044921875" lon="-1.65177849121391773223876953125">
        <ele>239.600006103515625</ele>
        <time>2020-08-23T09:28:23.000Z</time>
      </trkpt>
      <trkpt lat="43.296246416866779327392578125" lon="-1.651805900037288665771484375">
        <ele>239.8000030517578125</ele>
        <time>2020-08-23T09:28:24.000Z</time>
      </trkpt>
      <trkpt lat="43.29624784179031848907470703125" lon="-1.65190614759922027587890625">
        <ele>241.1999969482421875</ele>
        <time>2020-08-23T09:28:28.000Z</time>
      </trkpt>
      <trkpt lat="43.29623811878263950347900390625" lon="-1.65195317007601261138916015625">
        <ele>241.8000030517578125</ele>
        <time>2020-08-23T09:28:30.000Z</time>
      </trkpt>
      <trkpt lat="43.29624448902904987335205078125" lon="-1.65199960581958293914794921875">
        <ele>242.399993896484375</ele>
        <time>2020-08-23T09:28:32.000Z</time>
      </trkpt>
      <trkpt lat="43.296252787113189697265625" lon="-1.6520253382623195648193359375">
        <ele>242.600006103515625</ele>
        <time>2020-08-23T09:28:33.000Z</time>
      </trkpt>
      <trkpt lat="43.296272568404674530029296875" lon="-1.65207537822425365447998046875">
        <ele>243.600006103515625</ele>
        <time>2020-08-23T09:28:36.000Z</time>
      </trkpt>
      <trkpt lat="43.29627893865108489990234375" lon="-1.65209281258285045623779296875">
        <ele>243.8000030517578125</ele>
        <time>2020-08-23T09:28:37.000Z</time>
      </trkpt>
      <trkpt lat="43.29629913903772830963134765625" lon="-1.65214729495346546173095703125">
        <ele>245</ele>
        <time>2020-08-23T09:28:40.000Z</time>
      </trkpt>
      <trkpt lat="43.296334929764270782470703125" lon="-1.65224142372608184814453125">
        <ele>246.1999969482421875</ele>
        <time>2020-08-23T09:28:44.000Z</time>
      </trkpt>
      <trkpt lat="43.296345658600330352783203125" lon="-1.65226749144494533538818359375">
        <ele>246.399993896484375</ele>
        <time>2020-08-23T09:28:45.000Z</time>
      </trkpt>
      <trkpt lat="43.29637172631919384002685546875" lon="-1.65233622305095195770263671875">
        <ele>247.1999969482421875</ele>
        <time>2020-08-23T09:28:48.000Z</time>
      </trkpt>
      <trkpt lat="43.29640726558864116668701171875" lon="-1.65243630297482013702392578125">
        <ele>248.600006103515625</ele>
        <time>2020-08-23T09:28:53.000Z</time>
      </trkpt>
      <trkpt lat="43.296451605856418609619140625" lon="-1.6525912843644618988037109375">
        <ele>249.399993896484375</ele>
        <time>2020-08-23T09:29:00.000Z</time>
      </trkpt>
      <trkpt lat="43.296477757394313812255859375" lon="-1.652820110321044921875">
        <ele>249.600006103515625</ele>
        <time>2020-08-23T09:29:08.000Z</time>
      </trkpt>
      <trkpt lat="43.29648857004940509796142578125" lon="-1.652968637645244598388671875">
        <ele>249.8000030517578125</ele>
        <time>2020-08-23T09:29:13.000Z</time>
      </trkpt>
      <trkpt lat="43.296506591141223907470703125" lon="-1.65303007699549198150634765625">
        <ele>249.8000030517578125</ele>
        <time>2020-08-23T09:29:15.000Z</time>
      </trkpt>
      <trkpt lat="43.2965956069529056549072265625" lon="-1.65316720493137836456298828125">
        <ele>250.1999969482421875</ele>
        <time>2020-08-23T09:29:21.000Z</time>
      </trkpt>
      <trkpt lat="43.2967317290604114532470703125" lon="-1.65325840003788471221923828125">
        <ele>250.1999969482421875</ele>
        <time>2020-08-23T09:29:27.000Z</time>
      </trkpt>
      <trkpt lat="43.2968701981008052825927734375" lon="-1.65340491570532321929931640625">
        <ele>250.1999969482421875</ele>
        <time>2020-08-23T09:29:32.000Z</time>
      </trkpt>
      <trkpt lat="43.2969248481094837188720703125" lon="-1.6535900719463825225830078125">
        <ele>249.8000030517578125</ele>
        <time>2020-08-23T09:29:36.000Z</time>
      </trkpt>
      <trkpt lat="43.29696382395923137664794921875" lon="-1.6538314707577228546142578125">
        <ele>250.1999969482421875</ele>
        <time>2020-08-23T09:29:43.000Z</time>
      </trkpt>
      <trkpt lat="43.29697723500430583953857421875" lon="-1.6540004499256610870361328125">
        <ele>251.1999969482421875</ele>
        <time>2020-08-23T09:29:49.000Z</time>
      </trkpt>
      <trkpt lat="43.2969784922897815704345703125" lon="-1.65402635000646114349365234375">
        <ele>251.399993896484375</ele>
        <time>2020-08-23T09:29:50.000Z</time>
      </trkpt>
      <trkpt lat="43.29699148423969745635986328125" lon="-1.65412827394902706146240234375">
        <ele>252.1999969482421875</ele>
        <time>2020-08-23T09:29:54.000Z</time>
      </trkpt>
      <trkpt lat="43.2970173843204975128173828125" lon="-1.65427177213132381439208984375">
        <ele>252.600006103515625</ele>
        <time>2020-08-23T09:29:59.000Z</time>
      </trkpt>
      <trkpt lat="43.2970800809562206268310546875" lon="-1.6544359736144542694091796875">
        <ele>253</ele>
        <time>2020-08-23T09:30:06.000Z</time>
      </trkpt>
      <trkpt lat="43.29714797437191009521484375" lon="-1.6546096466481685638427734375">
        <ele>253</ele>
        <time>2020-08-23T09:30:11.000Z</time>
      </trkpt>
      <trkpt lat="43.29718460328876972198486328125" lon="-1.6548974812030792236328125">
        <ele>252.399993896484375</ele>
        <time>2020-08-23T09:30:16.000Z</time>
      </trkpt>
      <trkpt lat="43.29719834960997104644775390625" lon="-1.65508431382477283477783203125">
        <ele>252</ele>
        <time>2020-08-23T09:30:19.000Z</time>
      </trkpt>
      <trkpt lat="43.2971866987645626068115234375" lon="-1.65520098991692066192626953125">
        <ele>251.8000030517578125</ele>
        <time>2020-08-23T09:30:21.000Z</time>
      </trkpt>
      <trkpt lat="43.29712609760463237762451171875" lon="-1.65540366433560848236083984375">
        <ele>252</ele>
        <time>2020-08-23T09:30:26.000Z</time>
      </trkpt>
      <trkpt lat="43.297102712094783782958984375" lon="-1.6556184925138950347900390625">
        <ele>253.399993896484375</ele>
        <time>2020-08-23T09:30:32.000Z</time>
      </trkpt>
      <trkpt lat="43.297108747065067291259765625" lon="-1.655651517212390899658203125">
        <ele>253.8000030517578125</ele>
        <time>2020-08-23T09:30:33.000Z</time>
      </trkpt>
      <trkpt lat="43.297124840319156646728515625" lon="-1.655713208019733428955078125">
        <ele>254.600006103515625</ele>
        <time>2020-08-23T09:30:35.000Z</time>
      </trkpt>
      <trkpt lat="43.2972044683992862701416015625" lon="-1.65585997514426708221435546875">
        <ele>255.600006103515625</ele>
        <time>2020-08-23T09:30:41.000Z</time>
      </trkpt>
      <trkpt lat="43.297220729291439056396484375" lon="-1.65587724186480045318603515625">
        <ele>255.8000030517578125</ele>
        <time>2020-08-23T09:30:42.000Z</time>
      </trkpt>
      <trkpt lat="43.29729490913450717926025390625" lon="-1.6559222526848316192626953125">
        <ele>257.20001220703125</ele>
        <time>2020-08-23T09:30:46.000Z</time>
      </trkpt>
      <trkpt lat="43.29731552861630916595458984375" lon="-1.6559276171028614044189453125">
        <ele>257.399993896484375</ele>
        <time>2020-08-23T09:30:47.000Z</time>
      </trkpt>
      <trkpt lat="43.29748869873583316802978515625" lon="-1.6559105180203914642333984375">
        <ele>258</ele>
        <time>2020-08-23T09:30:54.000Z</time>
      </trkpt>
      <trkpt lat="43.29757033847272396087646484375" lon="-1.65593021549284458160400390625">
        <ele>257.79998779296875</ele>
        <time>2020-08-23T09:30:57.000Z</time>
      </trkpt>
      <trkpt lat="43.297586850821971893310546875" lon="-1.6559515893459320068359375">
        <ele>257.79998779296875</ele>
        <time>2020-08-23T09:30:58.000Z</time>
      </trkpt>
      <trkpt lat="43.2976059615612030029296875" lon="-1.6560610570013523101806640625">
        <ele>258.20001220703125</ele>
        <time>2020-08-23T09:31:03.000Z</time>
      </trkpt>
      <trkpt lat="43.297609984874725341796875" lon="-1.65614512749016284942626953125">
        <ele>258.79998779296875</ele>
        <time>2020-08-23T09:31:07.000Z</time>
      </trkpt>
      <trkpt lat="43.29761979170143604278564453125" lon="-1.6561898030340671539306640625">
        <ele>259</ele>
        <time>2020-08-23T09:31:09.000Z</time>
      </trkpt>
      <trkpt lat="43.2976202107965946197509765625" lon="-1.65624068118631839752197265625">
        <ele>259.600006103515625</ele>
        <time>2020-08-23T09:31:11.000Z</time>
      </trkpt>
      <trkpt lat="43.29761208035051822662353515625" lon="-1.6563289426267147064208984375">
        <ele>260.399993896484375</ele>
        <time>2020-08-23T09:31:15.000Z</time>
      </trkpt>
      <trkpt lat="43.297625742852687835693359375" lon="-1.65645056404173374176025390625">
        <ele>260.79998779296875</ele>
        <time>2020-08-23T09:31:19.000Z</time>
      </trkpt>
      <trkpt lat="43.29763672314584255218505859375" lon="-1.6565150208771228790283203125">
        <ele>261.20001220703125</ele>
        <time>2020-08-23T09:31:21.000Z</time>
      </trkpt>
      <trkpt lat="43.2976520620286464691162109375" lon="-1.65665022097527980804443359375">
        <ele>262</ele>
        <time>2020-08-23T09:31:26.000Z</time>
      </trkpt>
      <trkpt lat="43.29765834845602512359619140625" lon="-1.65667637251317501068115234375">
        <ele>262.20001220703125</ele>
        <time>2020-08-23T09:31:27.000Z</time>
      </trkpt>
      <trkpt lat="43.2976577617228031158447265625" lon="-1.65682473219931125640869140625">
        <ele>263.20001220703125</ele>
        <time>2020-08-23T09:31:33.000Z</time>
      </trkpt>
      <trkpt lat="43.297647535800933837890625" lon="-1.65687225759029388427734375">
        <ele>264</ele>
        <time>2020-08-23T09:31:35.000Z</time>
      </trkpt>
      <trkpt lat="43.2976396568119525909423828125" lon="-1.65690100751817226409912109375">
        <ele>264.20001220703125</ele>
        <time>2020-08-23T09:31:36.000Z</time>
      </trkpt>
      <trkpt lat="43.29761199653148651123046875" lon="-1.65697753429412841796875">
        <ele>265</ele>
        <time>2020-08-23T09:31:39.000Z</time>
      </trkpt>
      <trkpt lat="43.2975910417735576629638671875" lon="-1.65704366751015186309814453125">
        <ele>265.399993896484375</ele>
        <time>2020-08-23T09:31:41.000Z</time>
      </trkpt>
      <trkpt lat="43.29750831238925457000732421875" lon="-1.657205522060394287109375">
        <ele>266</ele>
        <time>2020-08-23T09:31:46.000Z</time>
      </trkpt>
      <trkpt lat="43.29743572510778903961181640625" lon="-1.6572965495288372039794921875">
        <ele>266.399993896484375</ele>
        <time>2020-08-23T09:31:50.000Z</time>
      </trkpt>
      <trkpt lat="43.2973600365221500396728515625" lon="-1.65737072937190532684326171875">
        <ele>267</ele>
        <time>2020-08-23T09:31:54.000Z</time>
      </trkpt>
      <trkpt lat="43.29718292690813541412353515625" lon="-1.65757306851446628570556640625">
        <ele>267.399993896484375</ele>
        <time>2020-08-23T09:32:03.000Z</time>
      </trkpt>
      <trkpt lat="43.29708519391715526580810546875" lon="-1.65778697468340396881103515625">
        <ele>267.79998779296875</ele>
        <time>2020-08-23T09:32:10.000Z</time>
      </trkpt>
      <trkpt lat="43.2970716990530490875244140625" lon="-1.657817065715789794921875">
        <ele>268</ele>
        <time>2020-08-23T09:32:11.000Z</time>
      </trkpt>
      <trkpt lat="43.29698561690747737884521484375" lon="-1.658003814518451690673828125">
        <ele>268.399993896484375</ele>
        <time>2020-08-23T09:32:18.000Z</time>
      </trkpt>
      <trkpt lat="43.2969426177442073822021484375" lon="-1.65811621583998203277587890625">
        <ele>269</ele>
        <time>2020-08-23T09:32:22.000Z</time>
      </trkpt>
      <trkpt lat="43.29691353254020214080810546875" lon="-1.65820171125233173370361328125">
        <ele>269.79998779296875</ele>
        <time>2020-08-23T09:32:25.000Z</time>
      </trkpt>
      <trkpt lat="43.296908251941204071044921875" lon="-1.658234484493732452392578125">
        <ele>270</ele>
        <time>2020-08-23T09:32:26.000Z</time>
      </trkpt>
      <trkpt lat="43.2968889735639095306396484375" lon="-1.6584250889718532562255859375">
        <ele>270.79998779296875</ele>
        <time>2020-08-23T09:32:32.000Z</time>
      </trkpt>
      <trkpt lat="43.29681806266307830810546875" lon="-1.65865349583327770233154296875">
        <ele>270.79998779296875</ele>
        <time>2020-08-23T09:32:38.000Z</time>
      </trkpt>
      <trkpt lat="43.29665486700832843780517578125" lon="-1.65892004035413265228271484375">
        <ele>270.79998779296875</ele>
        <time>2020-08-23T09:32:48.000Z</time>
      </trkpt>
      <trkpt lat="43.296622931957244873046875" lon="-1.6589611954987049102783203125">
        <ele>271</ele>
        <time>2020-08-23T09:32:50.000Z</time>
      </trkpt>
      <trkpt lat="43.29657792113721370697021484375" lon="-1.6590698249638080596923828125">
        <ele>272</ele>
        <time>2020-08-23T09:32:54.000Z</time>
      </trkpt>
      <trkpt lat="43.296572305262088775634765625" lon="-1.6590978205204010009765625">
        <ele>272.20001220703125</ele>
        <time>2020-08-23T09:32:55.000Z</time>
      </trkpt>
      <trkpt lat="43.29654984176158905029296875" lon="-1.6592103056609630584716796875">
        <ele>273.399993896484375</ele>
        <time>2020-08-23T09:32:59.000Z</time>
      </trkpt>
      <trkpt lat="43.29652427695691585540771484375" lon="-1.6593460924923419952392578125">
        <ele>274.399993896484375</ele>
        <time>2020-08-23T09:33:04.000Z</time>
      </trkpt>
      <trkpt lat="43.29652159474790096282958984375" lon="-1.65945279411971569061279296875">
        <ele>275.399993896484375</ele>
        <time>2020-08-23T09:33:08.000Z</time>
      </trkpt>
      <trkpt lat="43.29653441905975341796875" lon="-1.65953258983790874481201171875">
        <ele>276</ele>
        <time>2020-08-23T09:33:11.000Z</time>
      </trkpt>
      <trkpt lat="43.2965840399265289306640625" lon="-1.6596123017370700836181640625">
        <ele>276.399993896484375</ele>
        <time>2020-08-23T09:33:15.000Z</time>
      </trkpt>
      <trkpt lat="43.296616561710834503173828125" lon="-1.65964071638882160186767578125">
        <ele>276.600006103515625</ele>
        <time>2020-08-23T09:33:17.000Z</time>
      </trkpt>
      <trkpt lat="43.2966834492981433868408203125" lon="-1.65969938971102237701416015625">
        <ele>277.600006103515625</ele>
        <time>2020-08-23T09:33:21.000Z</time>
      </trkpt>
      <trkpt lat="43.2967883907258510589599609375" lon="-1.65980734862387180328369140625">
        <ele>277.79998779296875</ele>
        <time>2020-08-23T09:33:27.000Z</time>
      </trkpt>
      <trkpt lat="43.29693314619362354278564453125" lon="-1.65995269082486629486083984375">
        <ele>278.399993896484375</ele>
        <time>2020-08-23T09:33:35.000Z</time>
      </trkpt>
      <trkpt lat="43.29695058055222034454345703125" lon="-1.65997020900249481201171875">
        <ele>278.79998779296875</ele>
        <time>2020-08-23T09:33:36.000Z</time>
      </trkpt>
      <trkpt lat="43.2969989441335201263427734375" lon="-1.66005603969097137451171875">
        <ele>279.79998779296875</ele>
        <time>2020-08-23T09:33:40.000Z</time>
      </trkpt>
      <trkpt lat="43.29700581729412078857421875" lon="-1.66009870357811450958251953125">
        <ele>280.399993896484375</ele>
        <time>2020-08-23T09:33:42.000Z</time>
      </trkpt>
      <trkpt lat="43.29700715839862823486328125" lon="-1.66012720204889774322509765625">
        <ele>280.600006103515625</ele>
        <time>2020-08-23T09:33:46.000Z</time>
      </trkpt>
      <trkpt lat="43.29700623638927936553955078125" lon="-1.660131476819515228271484375">
        <ele>280.79998779296875</ele>
        <time>2020-08-23T09:34:41.000Z</time>
      </trkpt>
      <trkpt lat="43.2970036379992961883544921875" lon="-1.66014212183654308319091796875">
        <ele>280.79998779296875</ele>
        <time>2020-08-23T09:34:43.000Z</time>
      </trkpt>
      <trkpt lat="43.29698846675455570220947265625" lon="-1.66018369607627391815185546875">
        <ele>280.79998779296875</ele>
        <time>2020-08-23T09:34:45.000Z</time>
      </trkpt>
      <trkpt lat="43.29691805876791477203369140625" lon="-1.660354435443878173828125">
        <ele>281.20001220703125</ele>
        <time>2020-08-23T09:34:52.000Z</time>
      </trkpt>
      <trkpt lat="43.2969080843031406402587890625" lon="-1.66040162555873394012451171875">
        <ele>282</ele>
        <time>2020-08-23T09:34:55.000Z</time>
      </trkpt>
      <trkpt lat="43.2968990318477153778076171875" lon="-1.660455353558063507080078125">
        <ele>282.79998779296875</ele>
        <time>2020-08-23T09:34:58.000Z</time>
      </trkpt>
      <trkpt lat="43.29689375124871730804443359375" lon="-1.66049860417842864990234375">
        <ele>283</ele>
        <time>2020-08-23T09:35:00.000Z</time>
      </trkpt>
      <trkpt lat="43.29688469879329204559326171875" lon="-1.66053607128560543060302734375">
        <ele>284</ele>
        <time>2020-08-23T09:35:02.000Z</time>
      </trkpt>
      <trkpt lat="43.29688553698360919952392578125" lon="-1.6605571098625659942626953125">
        <ele>284.20001220703125</ele>
        <time>2020-08-23T09:35:03.000Z</time>
      </trkpt>
      <trkpt lat="43.29686223529279232025146484375" lon="-1.6606949083507061004638671875">
        <ele>285.399993896484375</ele>
        <time>2020-08-23T09:35:10.000Z</time>
      </trkpt>
      <trkpt lat="43.29687313176691532135009765625" lon="-1.66077629663050174713134765625">
        <ele>286.399993896484375</ele>
        <time>2020-08-23T09:35:14.000Z</time>
      </trkpt>
      <trkpt lat="43.29687313176691532135009765625" lon="-1.66079808957874774932861328125">
        <ele>286.79998779296875</ele>
        <time>2020-08-23T09:35:15.000Z</time>
      </trkpt>
      <trkpt lat="43.2968772388994693756103515625" lon="-1.66087788529694080352783203125">
        <ele>287.79998779296875</ele>
        <time>2020-08-23T09:35:18.000Z</time>
      </trkpt>
      <trkpt lat="43.296888135373592376708984375" lon="-1.660925410687923431396484375">
        <ele>288.20001220703125</ele>
        <time>2020-08-23T09:35:20.000Z</time>
      </trkpt>
      <trkpt lat="43.29691336490213871002197265625" lon="-1.6609567590057849884033203125">
        <ele>288.79998779296875</ele>
        <time>2020-08-23T09:35:22.000Z</time>
      </trkpt>
      <trkpt lat="43.29696767963469028472900390625" lon="-1.66103295050561428070068359375">
        <ele>289.79998779296875</ele>
        <time>2020-08-23T09:35:27.000Z</time>
      </trkpt>
      <trkpt lat="43.2969999499619007110595703125" lon="-1.6610799729824066162109375">
        <ele>291.20001220703125</ele>
        <time>2020-08-23T09:35:30.000Z</time>
      </trkpt>
      <trkpt lat="43.29704127274453639984130859375" lon="-1.66113202460110187530517578125">
        <ele>292.399993896484375</ele>
        <time>2020-08-23T09:35:34.000Z</time>
      </trkpt>
      <trkpt lat="43.29705803655087947845458984375" lon="-1.66116890497505664825439453125">
        <ele>293</ele>
        <time>2020-08-23T09:35:36.000Z</time>
      </trkpt>
      <trkpt lat="43.29706692136824131011962890625" lon="-1.66118659079074859619140625">
        <ele>293.600006103515625</ele>
        <time>2020-08-23T09:35:37.000Z</time>
      </trkpt>
      <trkpt lat="43.29708737321197986602783203125" lon="-1.6612155921757221221923828125">
        <ele>294.20001220703125</ele>
        <time>2020-08-23T09:35:39.000Z</time>
      </trkpt>
      <trkpt lat="43.29711712896823883056640625" lon="-1.66126077063381671905517578125">
        <ele>294.600006103515625</ele>
        <time>2020-08-23T09:35:42.000Z</time>
      </trkpt>
      <trkpt lat="43.2971424423158168792724609375" lon="-1.661308966577053070068359375">
        <ele>295.79998779296875</ele>
        <time>2020-08-23T09:35:45.000Z</time>
      </trkpt>
      <trkpt lat="43.2971675880253314971923828125" lon="-1.6613493673503398895263671875">
        <ele>297</ele>
        <time>2020-08-23T09:35:48.000Z</time>
      </trkpt>
      <trkpt lat="43.29720388166606426239013671875" lon="-1.6613470204174518585205078125">
        <ele>298</ele>
        <time>2020-08-23T09:35:51.000Z</time>
      </trkpt>
      <trkpt lat="43.29724830575287342071533203125" lon="-1.66128038428723812103271484375">
        <ele>299</ele>
        <time>2020-08-23T09:35:56.000Z</time>
      </trkpt>
      <trkpt lat="43.297258950769901275634765625" lon="-1.6612725891172885894775390625">
        <ele>299.20001220703125</ele>
        <time>2020-08-23T09:35:57.000Z</time>
      </trkpt>
      <trkpt lat="43.29727915115654468536376953125" lon="-1.66125540621578693389892578125">
        <ele>300.20001220703125</ele>
        <time>2020-08-23T09:35:59.000Z</time>
      </trkpt>
      <trkpt lat="43.2972876168787479400634765625" lon="-1.66124417446553707122802734375">
        <ele>300.399993896484375</ele>
        <time>2020-08-23T09:36:00.000Z</time>
      </trkpt>
      <trkpt lat="43.2973057217895984649658203125" lon="-1.6612276621162891387939453125">
        <ele>300.600006103515625</ele>
        <time>2020-08-23T09:36:02.000Z</time>
      </trkpt>
      <trkpt lat="43.2973271794617176055908203125" lon="-1.66121584363281726837158203125">
        <ele>300.79998779296875</ele>
        <time>2020-08-23T09:36:04.000Z</time>
      </trkpt>
      <trkpt lat="43.29733581282198429107666015625" lon="-1.66120762936770915985107421875">
        <ele>300.79998779296875</ele>
        <time>2020-08-23T09:36:05.000Z</time>
      </trkpt>
      <trkpt lat="43.29735240899026393890380859375" lon="-1.6611887700855731964111328125">
        <ele>301.20001220703125</ele>
        <time>2020-08-23T09:36:07.000Z</time>
      </trkpt>
      <trkpt lat="43.29737520776689052581787109375" lon="-1.66115951724350452423095703125">
        <ele>301.79998779296875</ele>
        <time>2020-08-23T09:36:10.000Z</time>
      </trkpt>
      <trkpt lat="43.29739482142031192779541015625" lon="-1.6611398197710514068603515625">
        <ele>302.399993896484375</ele>
        <time>2020-08-23T09:36:12.000Z</time>
      </trkpt>
      <trkpt lat="43.2974612899124622344970703125" lon="-1.661099754273891448974609375">
        <ele>303.20001220703125</ele>
        <time>2020-08-23T09:36:18.000Z</time>
      </trkpt>
      <trkpt lat="43.29747227020561695098876953125" lon="-1.66109531186521053314208984375">
        <ele>303.399993896484375</ele>
        <time>2020-08-23T09:36:19.000Z</time>
      </trkpt>
      <trkpt lat="43.2975209690630435943603515625" lon="-1.661076955497264862060546875">
        <ele>304.600006103515625</ele>
        <time>2020-08-23T09:36:23.000Z</time>
      </trkpt>
      <trkpt lat="43.2975561730563640594482421875" lon="-1.66106899268925189971923828125">
        <ele>304.79998779296875</ele>
        <time>2020-08-23T09:36:26.000Z</time>
      </trkpt>
      <trkpt lat="43.2976118288934230804443359375" lon="-1.66106832213699817657470703125">
        <ele>306</ele>
        <time>2020-08-23T09:36:31.000Z</time>
      </trkpt>
      <trkpt lat="43.29763219691812992095947265625" lon="-1.6610593535006046295166015625">
        <ele>306.79998779296875</ele>
        <time>2020-08-23T09:36:33.000Z</time>
      </trkpt>
      <trkpt lat="43.297651223838329315185546875" lon="-1.66104401461780071258544921875">
        <ele>307.20001220703125</ele>
        <time>2020-08-23T09:36:35.000Z</time>
      </trkpt>
      <trkpt lat="43.29767896793782711029052734375" lon="-1.6610150970518589019775390625">
        <ele>307.79998779296875</ele>
        <time>2020-08-23T09:36:38.000Z</time>
      </trkpt>
      <trkpt lat="43.297706544399261474609375" lon="-1.66098902933299541473388671875">
        <ele>308.399993896484375</ele>
        <time>2020-08-23T09:36:41.000Z</time>
      </trkpt>
      <trkpt lat="43.2977687381207942962646484375" lon="-1.66094259358942508697509765625">
        <ele>309.600006103515625</ele>
        <time>2020-08-23T09:36:47.000Z</time>
      </trkpt>
      <trkpt lat="43.29777896404266357421875" lon="-1.66093471460044384002685546875">
        <ele>309.600006103515625</ele>
        <time>2020-08-23T09:36:48.000Z</time>
      </trkpt>
      <trkpt lat="43.29780084080994129180908203125" lon="-1.66091225109994411468505859375">
        <ele>310</ele>
        <time>2020-08-23T09:36:50.000Z</time>
      </trkpt>
      <trkpt lat="43.29785012640058994293212890625" lon="-1.66085542179644107818603515625">
        <ele>310.600006103515625</ele>
        <time>2020-08-23T09:36:55.000Z</time>
      </trkpt>
      <trkpt lat="43.2978612743318080902099609375" lon="-1.66084729135036468505859375">
        <ele>310.79998779296875</ele>
        <time>2020-08-23T09:36:56.000Z</time>
      </trkpt>
      <trkpt lat="43.2979135774075984954833984375" lon="-1.66080513037741184234619140625">
        <ele>311.79998779296875</ele>
        <time>2020-08-23T09:37:01.000Z</time>
      </trkpt>
      <trkpt lat="43.297922126948833465576171875" lon="-1.6607956588268280029296875">
        <ele>312</ele>
        <time>2020-08-23T09:37:02.000Z</time>
      </trkpt>
      <trkpt lat="43.29795322380959987640380859375" lon="-1.66074092499911785125732421875">
        <ele>312.79998779296875</ele>
        <time>2020-08-23T09:37:06.000Z</time>
      </trkpt>
      <trkpt lat="43.29796831123530864715576171875" lon="-1.66071745567023754119873046875">
        <ele>313.20001220703125</ele>
        <time>2020-08-23T09:37:08.000Z</time>
      </trkpt>
      <trkpt lat="43.29800183884799480438232421875" lon="-1.660681329667568206787109375">
        <ele>314</ele>
        <time>2020-08-23T09:37:12.000Z</time>
      </trkpt>
      <trkpt lat="43.298031426966190338134765625" lon="-1.66064956225454807281494140625">
        <ele>315.20001220703125</ele>
        <time>2020-08-23T09:37:16.000Z</time>
      </trkpt>
      <trkpt lat="43.29806202091276645660400390625" lon="-1.66060664691030979156494140625">
        <ele>316.399993896484375</ele>
        <time>2020-08-23T09:37:20.000Z</time>
      </trkpt>
      <trkpt lat="43.2980842329561710357666015625" lon="-1.66058351285755634307861328125">
        <ele>317.600006103515625</ele>
        <time>2020-08-23T09:37:23.000Z</time>
      </trkpt>
      <trkpt lat="43.29813460819423198699951171875" lon="-1.6605550982058048248291015625">
        <ele>318.399993896484375</ele>
        <time>2020-08-23T09:37:29.000Z</time>
      </trkpt>
      <trkpt lat="43.29815422184765338897705078125" lon="-1.66054009459912776947021484375">
        <ele>318.600006103515625</ele>
        <time>2020-08-23T09:37:31.000Z</time>
      </trkpt>
      <trkpt lat="43.29818255268037319183349609375" lon="-1.6605158708989620208740234375">
        <ele>319</ele>
        <time>2020-08-23T09:37:34.000Z</time>
      </trkpt>
      <trkpt lat="43.29818959347903728485107421875" lon="-1.66050539351999759674072265625">
        <ele>319.20001220703125</ele>
        <time>2020-08-23T09:37:35.000Z</time>
      </trkpt>
      <trkpt lat="43.29820476472377777099609375" lon="-1.66048795916140079498291015625">
        <ele>320</ele>
        <time>2020-08-23T09:37:37.000Z</time>
      </trkpt>
      <trkpt lat="43.2982277311384677886962890625" lon="-1.66046448983252048492431640625">
        <ele>321.20001220703125</ele>
        <time>2020-08-23T09:37:40.000Z</time>
      </trkpt>
      <trkpt lat="43.2982817105948925018310546875" lon="-1.660403721034526824951171875">
        <ele>322.399993896484375</ele>
        <time>2020-08-23T09:37:46.000Z</time>
      </trkpt>
      <trkpt lat="43.29834365285933017730712890625" lon="-1.66031621396541595458984375">
        <ele>323.600006103515625</ele>
        <time>2020-08-23T09:37:53.000Z</time>
      </trkpt>
      <trkpt lat="43.29840886406600475311279296875" lon="-1.66023633442819118499755859375">
        <ele>324.79998779296875</ele>
        <time>2020-08-23T09:37:59.000Z</time>
      </trkpt>
      <trkpt lat="43.29842068254947662353515625" lon="-1.6602243483066558837890625">
        <ele>325</ele>
        <time>2020-08-23T09:38:00.000Z</time>
      </trkpt>
      <trkpt lat="43.29846921376883983612060546875" lon="-1.660171709954738616943359375">
        <ele>326.20001220703125</ele>
        <time>2020-08-23T09:38:05.000Z</time>
      </trkpt>
      <trkpt lat="43.29849310219287872314453125" lon="-1.66014212183654308319091796875">
        <ele>326.79998779296875</ele>
        <time>2020-08-23T09:38:07.000Z</time>
      </trkpt>
      <trkpt lat="43.29852218739688396453857421875" lon="-1.66010172106325626373291015625">
        <ele>327.20001220703125</ele>
        <time>2020-08-23T09:38:10.000Z</time>
      </trkpt>
      <trkpt lat="43.29855806194245815277099609375" lon="-1.66004723869264125823974609375">
        <ele>328.20001220703125</ele>
        <time>2020-08-23T09:38:14.000Z</time>
      </trkpt>
      <trkpt lat="43.2985707186162471771240234375" lon="-1.66003332473337650299072265625">
        <ele>328.399993896484375</ele>
        <time>2020-08-23T09:38:15.000Z</time>
      </trkpt>
      <trkpt lat="43.2986176572740077972412109375" lon="-1.6599656827747821807861328125">
        <ele>329.20001220703125</ele>
        <time>2020-08-23T09:38:20.000Z</time>
      </trkpt>
      <trkpt lat="43.29862846992909908294677734375" lon="-1.659947745501995086669921875">
        <ele>329.399993896484375</ele>
        <time>2020-08-23T09:38:21.000Z</time>
      </trkpt>
      <trkpt lat="43.29866208136081695556640625" lon="-1.65987088344991207122802734375">
        <ele>330.399993896484375</ele>
        <time>2020-08-23T09:38:25.000Z</time>
      </trkpt>
      <trkpt lat="43.2986726425588130950927734375" lon="-1.65981958620250225067138671875">
        <ele>331.399993896484375</ele>
        <time>2020-08-23T09:38:28.000Z</time>
      </trkpt>
      <trkpt lat="43.29867708496749401092529296875" lon="-1.65980684570968151092529296875">
        <ele>331.600006103515625</ele>
        <time>2020-08-23T09:38:29.000Z</time>
      </trkpt>
      <trkpt lat="43.2986850477755069732666015625" lon="-1.65976502001285552978515625">
        <ele>332.399993896484375</ele>
        <time>2020-08-23T09:38:32.000Z</time>
      </trkpt>
      <trkpt lat="43.29868446104228496551513671875" lon="-1.65972436778247356414794921875">
        <ele>332.600006103515625</ele>
        <time>2020-08-23T09:38:34.000Z</time>
      </trkpt>
      <trkpt lat="43.29868546687066555023193359375" lon="-1.65966368280351161956787109375">
        <ele>332.79998779296875</ele>
        <time>2020-08-23T09:38:37.000Z</time>
      </trkpt>
      <trkpt lat="43.29869016073644161224365234375" lon="-1.65964591316878795623779296875">
        <ele>333</ele>
        <time>2020-08-23T09:38:38.000Z</time>
      </trkpt>
      <trkpt lat="43.298692591488361358642578125" lon="-1.65961758233606815338134765625">
        <ele>333.600006103515625</ele>
        <time>2020-08-23T09:38:40.000Z</time>
      </trkpt>
      <trkpt lat="43.2987003028392791748046875" lon="-1.65958397090435028076171875">
        <ele>333.79998779296875</ele>
        <time>2020-08-23T09:38:42.000Z</time>
      </trkpt>
      <trkpt lat="43.2987051643431186676025390625" lon="-1.65956913493573665618896484375">
        <ele>334.20001220703125</ele>
        <time>2020-08-23T09:38:43.000Z</time>
      </trkpt>
      <trkpt lat="43.29871497116982936859130859375" lon="-1.659537367522716522216796875">
        <ele>334.600006103515625</ele>
        <time>2020-08-23T09:38:45.000Z</time>
      </trkpt>
      <trkpt lat="43.29874682240188121795654296875" lon="-1.65947668254375457763671875">
        <ele>335.20001220703125</ele>
        <time>2020-08-23T09:38:49.000Z</time>
      </trkpt>
      <trkpt lat="43.29876610077917575836181640625" lon="-1.6594500280916690826416015625">
        <ele>335.600006103515625</ele>
        <time>2020-08-23T09:38:51.000Z</time>
      </trkpt>
      <trkpt lat="43.29877565614879131317138671875" lon="-1.659438796341419219970703125">
        <ele>335.79998779296875</ele>
        <time>2020-08-23T09:38:52.000Z</time>
      </trkpt>
      <trkpt lat="43.29882611520588397979736328125" lon="-1.6594071127474308013916015625">
        <ele>336</ele>
        <time>2020-08-23T09:38:57.000Z</time>
      </trkpt>
      <trkpt lat="43.29882661812007427215576171875" lon="-1.6594067774713039398193359375">
        <ele>336</ele>
        <time>2020-08-23T09:38:58.000Z</time>
      </trkpt>
      <trkpt lat="43.29884522594511508941650390625" lon="-1.65939462371170520782470703125">
        <ele>336.399993896484375</ele>
        <time>2020-08-23T09:42:03.000Z</time>
      </trkpt>
      <trkpt lat="43.298874311149120330810546875" lon="-1.65940753184258937835693359375">
        <ele>336.399993896484375</ele>
        <time>2020-08-23T09:42:10.000Z</time>
      </trkpt>
      <trkpt lat="43.29890624620020389556884765625" lon="-1.65939613245427608489990234375">
        <ele>336.600006103515625</ele>
        <time>2020-08-23T09:42:14.000Z</time>
      </trkpt>
      <trkpt lat="43.29893642105162143707275390625" lon="-1.65938741527497768402099609375">
        <ele>336.79998779296875</ele>
        <time>2020-08-23T09:42:17.000Z</time>
      </trkpt>
      <trkpt lat="43.29898587428033351898193359375" lon="-1.65935866534709930419921875">
        <ele>337.600006103515625</ele>
        <time>2020-08-23T09:42:21.000Z</time>
      </trkpt>
      <trkpt lat="43.299029208719730377197265625" lon="-1.659319438040256500244140625">
        <ele>338</ele>
        <time>2020-08-23T09:42:25.000Z</time>
      </trkpt>
      <trkpt lat="43.2990739680826663970947265625" lon="-1.65925514884293079376220703125">
        <ele>338.79998779296875</ele>
        <time>2020-08-23T09:42:30.000Z</time>
      </trkpt>
      <trkpt lat="43.2990957610309123992919921875" lon="-1.6592346131801605224609375">
        <ele>339</ele>
        <time>2020-08-23T09:42:32.000Z</time>
      </trkpt>
      <trkpt lat="43.29915116541087627410888671875" lon="-1.6591660492122173309326171875">
        <ele>340</ele>
        <time>2020-08-23T09:42:37.000Z</time>
      </trkpt>
      <trkpt lat="43.2991675101220607757568359375" lon="-1.659152470529079437255859375">
        <ele>340.20001220703125</ele>
        <time>2020-08-23T09:42:38.000Z</time>
      </trkpt>
      <trkpt lat="43.29922174103558063507080078125" lon="-1.6590575873851776123046875">
        <ele>341.20001220703125</ele>
        <time>2020-08-23T09:42:44.000Z</time>
      </trkpt>
      <trkpt lat="43.2992312125861644744873046875" lon="-1.6590430028736591339111328125">
        <ele>341.600006103515625</ele>
        <time>2020-08-23T09:42:45.000Z</time>
      </trkpt>
      <trkpt lat="43.29924948513507843017578125" lon="-1.65901810862123966217041015625">
        <ele>342.399993896484375</ele>
        <time>2020-08-23T09:42:47.000Z</time>
      </trkpt>
      <trkpt lat="43.29929231666028499603271484375" lon="-1.65895658545196056365966796875">
        <ele>343.399993896484375</ele>
        <time>2020-08-23T09:42:52.000Z</time>
      </trkpt>
      <trkpt lat="43.2992996089160442352294921875" lon="-1.65894283913075923919677734375">
        <ele>343.399993896484375</ele>
        <time>2020-08-23T09:42:53.000Z</time>
      </trkpt>
      <trkpt lat="43.29935987479984760284423828125" lon="-1.658842004835605621337890625">
        <ele>344.600006103515625</ele>
        <time>2020-08-23T09:43:00.000Z</time>
      </trkpt>
      <trkpt lat="43.2993783988058567047119140625" lon="-1.6588163562119007110595703125">
        <ele>344.600006103515625</ele>
        <time>2020-08-23T09:43:02.000Z</time>
      </trkpt>
      <trkpt lat="43.2994226552546024322509765625" lon="-1.6587241552770137786865234375">
        <ele>345.600006103515625</ele>
        <time>2020-08-23T09:43:08.000Z</time>
      </trkpt>
      <trkpt lat="43.29943053424358367919921875" lon="-1.6587083972990512847900390625">
        <ele>345.79998779296875</ele>
        <time>2020-08-23T09:43:09.000Z</time>
      </trkpt>
      <trkpt lat="43.29945442266762256622314453125" lon="-1.65866338647902011871337890625">
        <ele>346</ele>
        <time>2020-08-23T09:43:12.000Z</time>
      </trkpt>
      <trkpt lat="43.2994675822556018829345703125" lon="-1.65861594490706920623779296875">
        <ele>346.600006103515625</ele>
        <time>2020-08-23T09:43:15.000Z</time>
      </trkpt>
      <trkpt lat="43.2994861900806427001953125" lon="-1.65857554413378238677978515625">
        <ele>346.79998779296875</ele>
        <time>2020-08-23T09:43:18.000Z</time>
      </trkpt>
      <trkpt lat="43.2995202206075191497802734375" lon="-1.6585112549364566802978515625">
        <ele>347.79998779296875</ele>
        <time>2020-08-23T09:43:23.000Z</time>
      </trkpt>
      <trkpt lat="43.29952684231102466583251953125" lon="-1.6585008613765239715576171875">
        <ele>348.20001220703125</ele>
        <time>2020-08-23T09:43:24.000Z</time>
      </trkpt>
      <trkpt lat="43.29954964108765125274658203125" lon="-1.65842785499989986419677734375">
        <ele>349.399993896484375</ele>
        <time>2020-08-23T09:43:30.000Z</time>
      </trkpt>
      <trkpt lat="43.299601189792156219482421875" lon="-1.6583352349698543548583984375">
        <ele>350.399993896484375</ele>
        <time>2020-08-23T09:43:36.000Z</time>
      </trkpt>
      <trkpt lat="43.29961116425693035125732421875" lon="-1.65832224301993846893310546875">
        <ele>350.600006103515625</ele>
        <time>2020-08-23T09:43:37.000Z</time>
      </trkpt>
      <trkpt lat="43.29963413067162036895751953125" lon="-1.658280752599239349365234375">
        <ele>351.399993896484375</ele>
        <time>2020-08-23T09:43:40.000Z</time>
      </trkpt>
      <trkpt lat="43.2996618747711181640625" lon="-1.65821067988872528076171875">
        <ele>352.20001220703125</ele>
        <time>2020-08-23T09:43:45.000Z</time>
      </trkpt>
      <trkpt lat="43.29966656863689422607421875" lon="-1.65817153640091419219970703125">
        <ele>352.399993896484375</ele>
        <time>2020-08-23T09:43:48.000Z</time>
      </trkpt>
      <trkpt lat="43.29967889003455638885498046875" lon="-1.658095680177211761474609375">
        <ele>353.399993896484375</ele>
        <time>2020-08-23T09:43:53.000Z</time>
      </trkpt>
      <trkpt lat="43.29967721365392208099365234375" lon="-1.65807933546602725982666015625">
        <ele>353.600006103515625</ele>
        <time>2020-08-23T09:43:54.000Z</time>
      </trkpt>
      <trkpt lat="43.29967302270233631134033203125" lon="-1.65800817310810089111328125">
        <ele>354.600006103515625</ele>
        <time>2020-08-23T09:43:59.000Z</time>
      </trkpt>
      <trkpt lat="43.2996714301407337188720703125" lon="-1.65798135101795196533203125">
        <ele>355</ele>
        <time>2020-08-23T09:44:01.000Z</time>
      </trkpt>
      <trkpt lat="43.29966950230300426483154296875" lon="-1.657968945801258087158203125">
        <ele>355</ele>
        <time>2020-08-23T09:44:02.000Z</time>
      </trkpt>
      <trkpt lat="43.29966061748564243316650390625" lon="-1.6579372622072696685791015625">
        <ele>355.600006103515625</ele>
        <time>2020-08-23T09:44:04.000Z</time>
      </trkpt>
      <trkpt lat="43.2996550016105175018310546875" lon="-1.6578913293778896331787109375">
        <ele>356.20001220703125</ele>
        <time>2020-08-23T09:44:07.000Z</time>
      </trkpt>
      <trkpt lat="43.2996499724686145782470703125" lon="-1.6578624956309795379638671875">
        <ele>356.600006103515625</ele>
        <time>2020-08-23T09:44:09.000Z</time>
      </trkpt>
      <trkpt lat="43.29963983036577701568603515625" lon="-1.65781438350677490234375">
        <ele>357.600006103515625</ele>
        <time>2020-08-23T09:44:12.000Z</time>
      </trkpt>
      <trkpt lat="43.2996412552893161773681640625" lon="-1.65777725167572498321533203125">
        <ele>358</ele>
        <time>2020-08-23T09:44:14.000Z</time>
      </trkpt>
      <trkpt lat="43.299648463726043701171875" lon="-1.65767616592347621917724609375">
        <ele>358.600006103515625</ele>
        <time>2020-08-23T09:44:19.000Z</time>
      </trkpt>
      <trkpt lat="43.299650810658931732177734375" lon="-1.65761816315352916717529296875">
        <ele>359.20001220703125</ele>
        <time>2020-08-23T09:44:22.000Z</time>
      </trkpt>
      <trkpt lat="43.29964888282120227813720703125" lon="-1.6575379483401775360107421875">
        <ele>359.399993896484375</ele>
        <time>2020-08-23T09:44:27.000Z</time>
      </trkpt>
      <trkpt lat="43.29964770935475826263427734375" lon="-1.65752143599092960357666015625">
        <ele>359.600006103515625</ele>
        <time>2020-08-23T09:44:28.000Z</time>
      </trkpt>
      <trkpt lat="43.29964837990701198577880859375" lon="-1.6574779339134693145751953125">
        <ele>359.79998779296875</ele>
        <time>2020-08-23T09:44:30.000Z</time>
      </trkpt>
      <trkpt lat="43.29966522753238677978515625" lon="-1.6573870740830898284912109375">
        <ele>360.20001220703125</ele>
        <time>2020-08-23T09:44:34.000Z</time>
      </trkpt>
      <trkpt lat="43.2997046224772930145263671875" lon="-1.657260842621326446533203125">
        <ele>360.600006103515625</ele>
        <time>2020-08-23T09:44:40.000Z</time>
      </trkpt>
      <trkpt lat="43.29971618950366973876953125" lon="-1.657242067158222198486328125">
        <ele>360.79998779296875</ele>
        <time>2020-08-23T09:44:41.000Z</time>
      </trkpt>
      <trkpt lat="43.299787603318691253662109375" lon="-1.6571087948977947235107421875">
        <ele>361.399993896484375</ele>
        <time>2020-08-23T09:44:48.000Z</time>
      </trkpt>
      <trkpt lat="43.29982322640717029571533203125" lon="-1.6570611856877803802490234375">
        <ele>361.600006103515625</ele>
        <time>2020-08-23T09:44:51.000Z</time>
      </trkpt>
      <trkpt lat="43.2998853363096714019775390625" lon="-1.6569777019321918487548828125">
        <ele>362</ele>
        <time>2020-08-23T09:44:56.000Z</time>
      </trkpt>
      <trkpt lat="43.30000829882919788360595703125" lon="-1.65688700973987579345703125">
        <ele>362.20001220703125</ele>
        <time>2020-08-23T09:45:01.000Z</time>
      </trkpt>
      <trkpt lat="43.30009630881249904632568359375" lon="-1.6568482853472232818603515625">
        <ele>361.79998779296875</ele>
        <time>2020-08-23T09:45:03.000Z</time>
      </trkpt>
      <trkpt lat="43.30017057247459888458251953125" lon="-1.65676957927644252777099609375">
        <ele>361.20001220703125</ele>
        <time>2020-08-23T09:45:05.000Z</time>
      </trkpt>
      <trkpt lat="43.3002184331417083740234375" lon="-1.6566717624664306640625">
        <ele>360.600006103515625</ele>
        <time>2020-08-23T09:45:07.000Z</time>
      </trkpt>
      <trkpt lat="43.30023662187159061431884765625" lon="-1.6566259972751140594482421875">
        <ele>360.399993896484375</ele>
        <time>2020-08-23T09:45:08.000Z</time>
      </trkpt>
      <trkpt lat="43.30026201903820037841796875" lon="-1.656549386680126190185546875">
        <ele>360.399993896484375</ele>
        <time>2020-08-23T09:45:10.000Z</time>
      </trkpt>
      <trkpt lat="43.30027450807392597198486328125" lon="-1.65639909915626049041748046875">
        <ele>361.600006103515625</ele>
        <time>2020-08-23T09:45:16.000Z</time>
      </trkpt>
      <trkpt lat="43.30027132295072078704833984375" lon="-1.65637797676026821136474609375">
        <ele>362</ele>
        <time>2020-08-23T09:45:17.000Z</time>
      </trkpt>
      <trkpt lat="43.3002561517059803009033203125" lon="-1.65627219714224338531494140625">
        <ele>363</ele>
        <time>2020-08-23T09:45:22.000Z</time>
      </trkpt>
      <trkpt lat="43.30024659633636474609375" lon="-1.6562250070273876190185546875">
        <ele>363.20001220703125</ele>
        <time>2020-08-23T09:45:24.000Z</time>
      </trkpt>
      <trkpt lat="43.300232179462909698486328125" lon="-1.6561318002641201019287109375">
        <ele>363.399993896484375</ele>
        <time>2020-08-23T09:45:28.000Z</time>
      </trkpt>
      <trkpt lat="43.30024953000247478485107421875" lon="-1.65606482885777950286865234375">
        <ele>363.79998779296875</ele>
        <time>2020-08-23T09:45:31.000Z</time>
      </trkpt>
      <trkpt lat="43.3002628572285175323486328125" lon="-1.65602493099868297576904296875">
        <ele>364</ele>
        <time>2020-08-23T09:45:33.000Z</time>
      </trkpt>
      <trkpt lat="43.3002920262515544891357421875" lon="-1.65591345168650150299072265625">
        <ele>363.399993896484375</ele>
        <time>2020-08-23T09:45:40.000Z</time>
      </trkpt>
      <trkpt lat="43.3002980612218379974365234375" lon="-1.6559128649532794952392578125">
        <ele>364</ele>
        <time>2020-08-23T09:45:44.000Z</time>
      </trkpt>
      <trkpt lat="43.30032262019813060760498046875" lon="-1.655868776142597198486328125">
        <ele>364.20001220703125</ele>
        <time>2020-08-23T09:45:47.000Z</time>
      </trkpt>
      <trkpt lat="43.3003285713493824005126953125" lon="-1.6558508388698101043701171875">
        <ele>364.20001220703125</ele>
        <time>2020-08-23T09:45:48.000Z</time>
      </trkpt>
      <trkpt lat="43.3003788627684116363525390625" lon="-1.65568269789218902587890625">
        <ele>364</ele>
        <time>2020-08-23T09:45:56.000Z</time>
      </trkpt>
      <trkpt lat="43.300442732870578765869140625" lon="-1.65550776757299900054931640625">
        <ele>364.600006103515625</ele>
        <time>2020-08-23T09:46:03.000Z</time>
      </trkpt>
      <trkpt lat="43.300505764782428741455078125" lon="-1.655406765639781951904296875">
        <ele>364.79998779296875</ele>
        <time>2020-08-23T09:46:08.000Z</time>
      </trkpt>
      <trkpt lat="43.300537280738353729248046875" lon="-1.65538254193961620330810546875">
        <ele>365</ele>
        <time>2020-08-23T09:46:10.000Z</time>
      </trkpt>
      <trkpt lat="43.3006524480879306793212890625" lon="-1.65533107705414295196533203125">
        <ele>365.79998779296875</ele>
        <time>2020-08-23T09:46:17.000Z</time>
      </trkpt>
      <trkpt lat="43.3006980456411838531494140625" lon="-1.6553227789700031280517578125">
        <ele>366</ele>
        <time>2020-08-23T09:46:20.000Z</time>
      </trkpt>
      <trkpt lat="43.30074942670762538909912109375" lon="-1.65530660189688205718994140625">
        <ele>366.600006103515625</ele>
        <time>2020-08-23T09:46:24.000Z</time>
      </trkpt>
      <trkpt lat="43.3007922582328319549560546875" lon="-1.6553046740591526031494140625">
        <ele>367</ele>
        <time>2020-08-23T09:46:27.000Z</time>
      </trkpt>
      <trkpt lat="43.3008190803229808807373046875" lon="-1.65530123747885227203369140625">
        <ele>367.600006103515625</ele>
        <time>2020-08-23T09:46:29.000Z</time>
      </trkpt>
      <trkpt lat="43.30085478723049163818359375" lon="-1.65529939346015453338623046875">
        <ele>368.20001220703125</ele>
        <time>2020-08-23T09:46:32.000Z</time>
      </trkpt>
      <trkpt lat="43.300868533551692962646484375" lon="-1.65529109537601470947265625">
        <ele>368.600006103515625</ele>
        <time>2020-08-23T09:46:34.000Z</time>
      </trkpt>
      <trkpt lat="43.30092242918908596038818359375" lon="-1.6552637703716754913330078125">
        <ele>369.399993896484375</ele>
        <time>2020-08-23T09:46:39.000Z</time>
      </trkpt>
      <trkpt lat="43.30093483440577983856201171875" lon="-1.65525580756366252899169921875">
        <ele>369.399993896484375</ele>
        <time>2020-08-23T09:46:40.000Z</time>
      </trkpt>
      <trkpt lat="43.3009994588792324066162109375" lon="-1.65523133240640163421630859375">
        <ele>370.600006103515625</ele>
        <time>2020-08-23T09:46:45.000Z</time>
      </trkpt>
      <trkpt lat="43.30101379193365573883056640625" lon="-1.655225045979022979736328125">
        <ele>371</ele>
        <time>2020-08-23T09:46:46.000Z</time>
      </trkpt>
      <trkpt lat="43.30106810666620731353759765625" lon="-1.6552044264972209930419921875">
        <ele>371.79998779296875</ele>
        <time>2020-08-23T09:46:50.000Z</time>
      </trkpt>
      <trkpt lat="43.30111118964850902557373046875" lon="-1.65519445203244686126708984375">
        <ele>372.600006103515625</ele>
        <time>2020-08-23T09:46:53.000Z</time>
      </trkpt>
      <trkpt lat="43.30112694762647151947021484375" lon="-1.65518690831959247589111328125">
        <ele>372.79998779296875</ele>
        <time>2020-08-23T09:46:54.000Z</time>
      </trkpt>
      <trkpt lat="43.301202468574047088623046875" lon="-1.65515438653528690338134765625">
        <ele>373.399993896484375</ele>
        <time>2020-08-23T09:46:59.000Z</time>
      </trkpt>
      <trkpt lat="43.30122870393097400665283203125" lon="-1.6551420651376247406005859375">
        <ele>374</ele>
        <time>2020-08-23T09:47:01.000Z</time>
      </trkpt>
      <trkpt lat="43.3012805879116058349609375" lon="-1.65511063300073146820068359375">
        <ele>374.399993896484375</ele>
        <time>2020-08-23T09:47:05.000Z</time>
      </trkpt>
      <trkpt lat="43.3013018779456615447998046875" lon="-1.6551028378307819366455078125">
        <ele>375</ele>
        <time>2020-08-23T09:47:07.000Z</time>
      </trkpt>
      <trkpt lat="43.30136574804782867431640625" lon="-1.6550823859870433807373046875">
        <ele>375.79998779296875</ele>
        <time>2020-08-23T09:47:11.000Z</time>
      </trkpt>
      <trkpt lat="43.30142073333263397216796875" lon="-1.6550718247890472412109375">
        <ele>376.20001220703125</ele>
        <time>2020-08-23T09:47:14.000Z</time>
      </trkpt>
      <trkpt lat="43.30148552544414997100830078125" lon="-1.6550458408892154693603515625">
        <ele>377.20001220703125</ele>
        <time>2020-08-23T09:47:18.000Z</time>
      </trkpt>
      <trkpt lat="43.3015033788979053497314453125" lon="-1.6550388000905513763427734375">
        <ele>377.399993896484375</ele>
        <time>2020-08-23T09:47:19.000Z</time>
      </trkpt>
      <trkpt lat="43.30157437361776828765869140625" lon="-1.654982976615428924560546875">
        <ele>378.399993896484375</ele>
        <time>2020-08-23T09:47:24.000Z</time>
      </trkpt>
      <trkpt lat="43.30158837139606475830078125" lon="-1.65497384034097194671630859375">
        <ele>378.600006103515625</ele>
        <time>2020-08-23T09:47:25.000Z</time>
      </trkpt>
      <trkpt lat="43.30165316350758075714111328125" lon="-1.65492455475032329559326171875">
        <ele>379.399993896484375</ele>
        <time>2020-08-23T09:47:30.000Z</time>
      </trkpt>
      <trkpt lat="43.301665149629116058349609375" lon="-1.65491231717169284820556640625">
        <ele>379.600006103515625</ele>
        <time>2020-08-23T09:47:31.000Z</time>
      </trkpt>
      <trkpt lat="43.301721476018428802490234375" lon="-1.654809303581714630126953125">
        <ele>380.600006103515625</ele>
        <time>2020-08-23T09:47:38.000Z</time>
      </trkpt>
      <trkpt lat="43.3017350547015666961669921875" lon="-1.65477820672094821929931640625">
        <ele>380.600006103515625</ele>
        <time>2020-08-23T09:47:40.000Z</time>
      </trkpt>
      <trkpt lat="43.30175307579338550567626953125" lon="-1.6547571681439876556396484375">
        <ele>380.79998779296875</ele>
        <time>2020-08-23T09:47:42.000Z</time>
      </trkpt>
      <trkpt lat="43.30177084542810916900634765625" lon="-1.6547367163002490997314453125">
        <ele>380.600006103515625</ele>
        <time>2020-08-23T09:47:44.000Z</time>
      </trkpt>
      <trkpt lat="43.30178509466350078582763671875" lon="-1.65470863692462444305419921875">
        <ele>380.600006103515625</ele>
        <time>2020-08-23T09:47:46.000Z</time>
      </trkpt>
      <trkpt lat="43.301825411617755889892578125" lon="-1.654640994966030120849609375">
        <ele>380.79998779296875</ele>
        <time>2020-08-23T09:47:50.000Z</time>
      </trkpt>
      <trkpt lat="43.301915936172008514404296875" lon="-1.6545348800718784332275390625">
        <ele>381</ele>
        <time>2020-08-23T09:47:57.000Z</time>
      </trkpt>
      <trkpt lat="43.30199497751891613006591796875" lon="-1.65445650927722454071044921875">
        <ele>381.79998779296875</ele>
        <time>2020-08-23T09:48:03.000Z</time>
      </trkpt>
      <trkpt lat="43.30200520344078540802001953125" lon="-1.65444552898406982421875">
        <ele>382.20001220703125</ele>
        <time>2020-08-23T09:48:04.000Z</time>
      </trkpt>
      <trkpt lat="43.3020582608878612518310546875" lon="-1.65439926087856292724609375">
        <ele>382.79998779296875</ele>
        <time>2020-08-23T09:48:08.000Z</time>
      </trkpt>
      <trkpt lat="43.302068151533603668212890625" lon="-1.65438811294734477996826171875">
        <ele>383</ele>
        <time>2020-08-23T09:48:09.000Z</time>
      </trkpt>
      <trkpt lat="43.3020773716270923614501953125" lon="-1.65437646210193634033203125">
        <ele>383</ele>
        <time>2020-08-23T09:48:10.000Z</time>
      </trkpt>
      <trkpt lat="43.3021363802254199981689453125" lon="-1.65433111600577831268310546875">
        <ele>383.20001220703125</ele>
        <time>2020-08-23T09:48:14.000Z</time>
      </trkpt>
      <trkpt lat="43.3021504618227481842041015625" lon="-1.65432005189359188079833984375">
        <ele>383.399993896484375</ele>
        <time>2020-08-23T09:48:15.000Z</time>
      </trkpt>
      <trkpt lat="43.30221190117299556732177734375" lon="-1.65427797473967075347900390625">
        <ele>383.600006103515625</ele>
        <time>2020-08-23T09:48:19.000Z</time>
      </trkpt>
      <trkpt lat="43.3022435009479522705078125" lon="-1.65425349958240985870361328125">
        <ele>383.79998779296875</ele>
        <time>2020-08-23T09:48:21.000Z</time>
      </trkpt>
      <trkpt lat="43.30233679153025150299072265625" lon="-1.6541955806314945220947265625">
        <ele>383.79998779296875</ele>
        <time>2020-08-23T09:48:26.000Z</time>
      </trkpt>
      <trkpt lat="43.30237434245645999908447265625" lon="-1.654173620045185089111328125">
        <ele>384</ele>
        <time>2020-08-23T09:48:28.000Z</time>
      </trkpt>
      <trkpt lat="43.30246922560036182403564453125" lon="-1.65411234833300113677978515625">
        <ele>384.399993896484375</ele>
        <time>2020-08-23T09:48:34.000Z</time>
      </trkpt>
      <trkpt lat="43.3025745861232280731201171875" lon="-1.6540499031543731689453125">
        <ele>384.79998779296875</ele>
        <time>2020-08-23T09:48:40.000Z</time>
      </trkpt>
      <trkpt lat="43.302589841187000274658203125" lon="-1.65403808467090129852294921875">
        <ele>384.79998779296875</ele>
        <time>2020-08-23T09:48:41.000Z</time>
      </trkpt>
      <trkpt lat="43.30262831412255764007568359375" lon="-1.65400036610662937164306640625">
        <ele>385.399993896484375</ele>
        <time>2020-08-23T09:48:44.000Z</time>
      </trkpt>
      <trkpt lat="43.302643485367298126220703125" lon="-1.65398846380412578582763671875">
        <ele>385.600006103515625</ele>
        <time>2020-08-23T09:48:45.000Z</time>
      </trkpt>
      <trkpt lat="43.30274364911019802093505859375" lon="-1.653911769390106201171875">
        <ele>385.79998779296875</ele>
        <time>2020-08-23T09:48:52.000Z</time>
      </trkpt>
      <trkpt lat="43.30275890417397022247314453125" lon="-1.653898023068904876708984375">
        <ele>385.79998779296875</ele>
        <time>2020-08-23T09:48:53.000Z</time>
      </trkpt>
      <trkpt lat="43.30280483700335025787353515625" lon="-1.65385502390563488006591796875">
        <ele>385.79998779296875</ele>
        <time>2020-08-23T09:48:56.000Z</time>
      </trkpt>
      <trkpt lat="43.30284641124308109283447265625" lon="-1.65381051599979400634765625">
        <ele>386.20001220703125</ele>
        <time>2020-08-23T09:48:59.000Z</time>
      </trkpt>
      <trkpt lat="43.30292352475225925445556640625" lon="-1.65375418961048126220703125">
        <ele>386.399993896484375</ele>
        <time>2020-08-23T09:49:04.000Z</time>
      </trkpt>
      <trkpt lat="43.3029507659375667572021484375" lon="-1.65373885072767734527587890625">
        <ele>387</ele>
        <time>2020-08-23T09:49:06.000Z</time>
      </trkpt>
      <trkpt lat="43.30296727828681468963623046875" lon="-1.65373449213802814483642578125">
        <ele>387.20001220703125</ele>
        <time>2020-08-23T09:49:07.000Z</time>
      </trkpt>
      <trkpt lat="43.3030215092003345489501953125" lon="-1.65371420793235301971435546875">
        <ele>387.600006103515625</ele>
        <time>2020-08-23T09:49:10.000Z</time>
      </trkpt>
      <trkpt lat="43.30303810536861419677734375" lon="-1.6537040658295154571533203125">
        <ele>387.600006103515625</ele>
        <time>2020-08-23T09:49:11.000Z</time>
      </trkpt>
      <trkpt lat="43.30310926772654056549072265625" lon="-1.653661988675594329833984375">
        <ele>387.600006103515625</ele>
        <time>2020-08-23T09:49:15.000Z</time>
      </trkpt>
      <trkpt lat="43.3032176457345485687255859375" lon="-1.65363407693803310394287109375">
        <ele>387.600006103515625</ele>
        <time>2020-08-23T09:49:21.000Z</time>
      </trkpt>
      <trkpt lat="43.3032882213592529296875" lon="-1.65362485684454441070556640625">
        <ele>387.79998779296875</ele>
        <time>2020-08-23T09:49:25.000Z</time>
      </trkpt>
      <trkpt lat="43.303303979337215423583984375" lon="-1.65362318046391010284423828125">
        <ele>387.79998779296875</ele>
        <time>2020-08-23T09:49:26.000Z</time>
      </trkpt>
      <trkpt lat="43.3034124411642551422119140625" lon="-1.65358847938477993011474609375">
        <ele>388</ele>
        <time>2020-08-23T09:49:32.000Z</time>
      </trkpt>
      <trkpt lat="43.30350690521299839019775390625" lon="-1.6535778343677520751953125">
        <ele>388.600006103515625</ele>
        <time>2020-08-23T09:49:37.000Z</time>
      </trkpt>
      <trkpt lat="43.30354764126241207122802734375" lon="-1.6535706259310245513916015625">
        <ele>388.79998779296875</ele>
        <time>2020-08-23T09:49:39.000Z</time>
      </trkpt>
      <trkpt lat="43.3036065660417079925537109375" lon="-1.65353399701416492462158203125">
        <ele>388.79998779296875</ele>
        <time>2020-08-23T09:49:42.000Z</time>
      </trkpt>
      <trkpt lat="43.3037074841558933258056640625" lon="-1.6534858010709285736083984375">
        <ele>388.79998779296875</ele>
        <time>2020-08-23T09:49:47.000Z</time>
      </trkpt>
      <trkpt lat="43.30379121936857700347900390625" lon="-1.65344397537410259246826171875">
        <ele>388.600006103515625</ele>
        <time>2020-08-23T09:49:53.000Z</time>
      </trkpt>
      <trkpt lat="43.30380546860396862030029296875" lon="-1.653439365327358245849609375">
        <ele>388.600006103515625</ele>
        <time>2020-08-23T09:49:54.000Z</time>
      </trkpt>
      <trkpt lat="43.30384670756757259368896484375" lon="-1.65343559347093105316162109375">
        <ele>388.399993896484375</ele>
        <time>2020-08-23T09:49:57.000Z</time>
      </trkpt>
      <trkpt lat="43.30394695512950420379638671875" lon="-1.65344531647861003875732421875">
        <ele>389.600006103515625</ele>
        <time>2020-08-23T09:50:03.000Z</time>
      </trkpt>
      <trkpt lat="43.30396757461130619049072265625" lon="-1.65345520712435245513916015625">
        <ele>389.79998779296875</ele>
        <time>2020-08-23T09:50:04.000Z</time>
      </trkpt>
      <trkpt lat="43.30401333980262279510498046875" lon="-1.653497032821178436279296875">
        <ele>390.600006103515625</ele>
        <time>2020-08-23T09:50:07.000Z</time>
      </trkpt>
      <trkpt lat="43.30402775667607784271240234375" lon="-1.65351354517042636871337890625">
        <ele>391</ele>
        <time>2020-08-23T09:50:08.000Z</time>
      </trkpt>
      <trkpt lat="43.30404661595821380615234375" lon="-1.6535555385053157806396484375">
        <ele>391.399993896484375</ele>
        <time>2020-08-23T09:50:10.000Z</time>
      </trkpt>
      <trkpt lat="43.30405591987073421478271484375" lon="-1.653616726398468017578125">
        <ele>391.399993896484375</ele>
        <time>2020-08-23T09:50:13.000Z</time>
      </trkpt>
      <trkpt lat="43.30404116772115230560302734375" lon="-1.65366123430430889129638671875">
        <ele>392</ele>
        <time>2020-08-23T09:50:16.000Z</time>
      </trkpt>
      <trkpt lat="43.30403245054185390472412109375" lon="-1.653675734996795654296875">
        <ele>392.399993896484375</ele>
        <time>2020-08-23T09:50:17.000Z</time>
      </trkpt>
      <trkpt lat="43.30399741418659687042236328125" lon="-1.65372158400714397430419921875">
        <ele>393.600006103515625</ele>
        <time>2020-08-23T09:50:21.000Z</time>
      </trkpt>
      <trkpt lat="43.3039810694754123687744140625" lon="-1.65374153293669223785400390625">
        <ele>394</ele>
        <time>2020-08-23T09:50:23.000Z</time>
      </trkpt>
      <trkpt lat="43.30397511832416057586669921875" lon="-1.6537536866962909698486328125">
        <ele>394.20001220703125</ele>
        <time>2020-08-23T09:50:24.000Z</time>
      </trkpt>
      <trkpt lat="43.30395349301397800445556640625" lon="-1.6537955962121486663818359375">
        <ele>394.600006103515625</ele>
        <time>2020-08-23T09:50:27.000Z</time>
      </trkpt>
      <trkpt lat="43.303947038948535919189453125" lon="-1.65381185710430145263671875">
        <ele>394.79998779296875</ele>
        <time>2020-08-23T09:50:28.000Z</time>
      </trkpt>
      <trkpt lat="43.303939998149871826171875" lon="-1.65382702834904193878173828125">
        <ele>395</ele>
        <time>2020-08-23T09:50:29.000Z</time>
      </trkpt>
      <trkpt lat="43.3038984239101409912109375" lon="-1.6539370827376842498779296875">
        <ele>395</ele>
        <time>2020-08-23T09:50:36.000Z</time>
      </trkpt>
      <trkpt lat="43.30386347137391567230224609375" lon="-1.654017381370067596435546875">
        <ele>395.600006103515625</ele>
        <time>2020-08-23T09:50:41.000Z</time>
      </trkpt>
      <trkpt lat="43.30383849330246448516845703125" lon="-1.65406406857073307037353515625">
        <ele>396.399993896484375</ele>
        <time>2020-08-23T09:50:44.000Z</time>
      </trkpt>
      <trkpt lat="43.3038003556430339813232421875" lon="-1.6541188023984432220458984375">
        <ele>396.79998779296875</ele>
        <time>2020-08-23T09:50:48.000Z</time>
      </trkpt>
      <trkpt lat="43.30377210862934589385986328125" lon="-1.6541893780231475830078125">
        <ele>397.20001220703125</ele>
        <time>2020-08-23T09:50:52.000Z</time>
      </trkpt>
      <trkpt lat="43.30375215969979763031005859375" lon="-1.6542643122375011444091796875">
        <ele>397.79998779296875</ele>
        <time>2020-08-23T09:50:56.000Z</time>
      </trkpt>
      <trkpt lat="43.30373472534120082855224609375" lon="-1.65433966554701328277587890625">
        <ele>398.79998779296875</ele>
        <time>2020-08-23T09:51:00.000Z</time>
      </trkpt>
      <trkpt lat="43.3037306182086467742919921875" lon="-1.65435777045786380767822265625">
        <ele>399</ele>
        <time>2020-08-23T09:51:01.000Z</time>
      </trkpt>
      <trkpt lat="43.30371779389679431915283203125" lon="-1.65443806909024715423583984375">
        <ele>400</ele>
        <time>2020-08-23T09:51:05.000Z</time>
      </trkpt>
      <trkpt lat="43.30369650386273860931396484375" lon="-1.654563210904598236083984375">
        <ele>400.600006103515625</ele>
        <time>2020-08-23T09:51:11.000Z</time>
      </trkpt>
      <trkpt lat="43.3036783151328563690185546875" lon="-1.654647700488567352294921875">
        <ele>401.399993896484375</ele>
        <time>2020-08-23T09:51:15.000Z</time>
      </trkpt>
      <trkpt lat="43.3036571927368640899658203125" lon="-1.65473210625350475311279296875">
        <ele>401.79998779296875</ele>
        <time>2020-08-23T09:51:19.000Z</time>
      </trkpt>
      <trkpt lat="43.30363380722701549530029296875" lon="-1.6548668034374713897705078125">
        <ele>402.600006103515625</ele>
        <time>2020-08-23T09:51:26.000Z</time>
      </trkpt>
      <trkpt lat="43.30362609587609767913818359375" lon="-1.65496654808521270751953125">
        <ele>403.600006103515625</ele>
        <time>2020-08-23T09:51:31.000Z</time>
      </trkpt>
      <trkpt lat="43.3036253415048122406005859375" lon="-1.65498943068087100982666015625">
        <ele>403.79998779296875</ele>
        <time>2020-08-23T09:51:32.000Z</time>
      </trkpt>
      <trkpt lat="43.3036276884377002716064453125" lon="-1.6551782749593257904052734375">
        <ele>403.79998779296875</ele>
        <time>2020-08-23T09:51:38.000Z</time>
      </trkpt>
      <trkpt lat="43.30361804924905300140380859375" lon="-1.6552339307963848114013671875">
        <ele>403.79998779296875</ele>
        <time>2020-08-23T09:51:39.000Z</time>
      </trkpt>
      <trkpt lat="43.30357429571449756622314453125" lon="-1.6553804464638233184814453125">
        <ele>403</ele>
        <time>2020-08-23T09:51:42.000Z</time>
      </trkpt>
      <trkpt lat="43.3035492338240146636962890625" lon="-1.6554974578320980072021484375">
        <ele>403.20001220703125</ele>
        <time>2020-08-23T09:51:46.000Z</time>
      </trkpt>
      <trkpt lat="43.3035599626600742340087890625" lon="-1.65569703094661235809326171875">
        <ele>403.600006103515625</ele>
        <time>2020-08-23T09:51:53.000Z</time>
      </trkpt>
      <trkpt lat="43.30357178114354610443115234375" lon="-1.65590121410787105560302734375">
        <ele>404</ele>
        <time>2020-08-23T09:52:01.000Z</time>
      </trkpt>
      <trkpt lat="43.3035743795335292816162109375" lon="-1.65607723407447338104248046875">
        <ele>404.399993896484375</ele>
        <time>2020-08-23T09:52:08.000Z</time>
      </trkpt>
      <trkpt lat="43.30357530154287815093994140625" lon="-1.65609416551887989044189453125">
        <ele>404.399993896484375</ele>
        <time>2020-08-23T09:52:09.000Z</time>
      </trkpt>
      <trkpt lat="43.3035730384290218353271484375" lon="-1.65609835647046566009521484375">
        <ele>404.79998779296875</ele>
        <time>2020-08-23T09:52:11.000Z</time>
      </trkpt>
      <trkpt lat="43.30357320606708526611328125" lon="-1.6560976020991802215576171875">
        <ele>404.600006103515625</ele>
        <time>2020-08-23T09:52:15.000Z</time>
      </trkpt>
      <trkpt lat="43.30357379280030727386474609375" lon="-1.656104139983654022216796875">
        <ele>404.399993896484375</ele>
        <time>2020-08-23T09:52:29.000Z</time>
      </trkpt>
      <trkpt lat="43.3035737089812755584716796875" lon="-1.65609919466078281402587890625">
        <ele>404.399993896484375</ele>
        <time>2020-08-23T09:52:41.000Z</time>
      </trkpt>
      <trkpt lat="43.30357328988611698150634765625" lon="-1.65609936229884624481201171875">
        <ele>404.399993896484375</ele>
        <time>2020-08-23T09:53:01.000Z</time>
      </trkpt>
      <trkpt lat="43.3035723678767681121826171875" lon="-1.6561086662113666534423828125">
        <ele>404.600006103515625</ele>
        <time>2020-08-23T09:53:19.000Z</time>
      </trkpt>
      <trkpt lat="43.30357010476291179656982421875" lon="-1.6561190597712993621826171875">
        <ele>404.600006103515625</ele>
        <time>2020-08-23T09:53:22.000Z</time>
      </trkpt>
      <trkpt lat="43.30356909893453121185302734375" lon="-1.65615878999233245849609375">
        <ele>403.399993896484375</ele>
        <time>2020-08-23T09:57:19.000Z</time>
      </trkpt>
      <trkpt lat="43.3035931549966335296630859375" lon="-1.656193993985652923583984375">
        <ele>403.399993896484375</ele>
        <time>2020-08-23T09:57:23.000Z</time>
      </trkpt>
      <trkpt lat="43.30361871980130672454833984375" lon="-1.65633036755025386810302734375">
        <ele>404.399993896484375</ele>
        <time>2020-08-23T09:57:31.000Z</time>
      </trkpt>
      <trkpt lat="43.303638584911823272705078125" lon="-1.65646078996360301971435546875">
        <ele>404.600006103515625</ele>
        <time>2020-08-23T09:57:37.000Z</time>
      </trkpt>
      <trkpt lat="43.3037001080811023712158203125" lon="-1.656637899577617645263671875">
        <ele>404.399993896484375</ele>
        <time>2020-08-23T09:57:45.000Z</time>
      </trkpt>
      <trkpt lat="43.30375400371849536895751953125" lon="-1.65678299032151699066162109375">
        <ele>404.399993896484375</ele>
        <time>2020-08-23T09:57:52.000Z</time>
      </trkpt>
      <trkpt lat="43.303798846900463104248046875" lon="-1.6568677313625812530517578125">
        <ele>405</ele>
        <time>2020-08-23T09:57:56.000Z</time>
      </trkpt>
      <trkpt lat="43.30385240726172924041748046875" lon="-1.656957082450389862060546875">
        <ele>405.79998779296875</ele>
        <time>2020-08-23T09:58:01.000Z</time>
      </trkpt>
      <trkpt lat="43.30386129207909107208251953125" lon="-1.65697418153285980224609375">
        <ele>406.20001220703125</ele>
        <time>2020-08-23T09:58:02.000Z</time>
      </trkpt>
      <trkpt lat="43.30393262207508087158203125" lon="-1.65710619650781154632568359375">
        <ele>406.399993896484375</ele>
        <time>2020-08-23T09:58:09.000Z</time>
      </trkpt>
      <trkpt lat="43.30400562845170497894287109375" lon="-1.6572294943034648895263671875">
        <ele>406</ele>
        <time>2020-08-23T09:58:16.000Z</time>
      </trkpt>
      <trkpt lat="43.30409280024468898773193359375" lon="-1.65738229639828205108642578125">
        <ele>405.399993896484375</ele>
        <time>2020-08-23T09:58:23.000Z</time>
      </trkpt>
      <trkpt lat="43.3041802234947681427001953125" lon="-1.65750953368842601776123046875">
        <ele>405.600006103515625</ele>
        <time>2020-08-23T09:58:29.000Z</time>
      </trkpt>
      <trkpt lat="43.3042831532657146453857421875" lon="-1.65763693861663341522216796875">
        <ele>405.20001220703125</ele>
        <time>2020-08-23T09:58:36.000Z</time>
      </trkpt>
      <trkpt lat="43.30439664423465728759765625" lon="-1.6577374376356601715087890625">
        <ele>406</ele>
        <time>2020-08-23T09:58:43.000Z</time>
      </trkpt>
      <trkpt lat="43.30452396534383296966552734375" lon="-1.65784631855785846710205078125">
        <ele>407</ele>
        <time>2020-08-23T09:58:51.000Z</time>
      </trkpt>
      <trkpt lat="43.30453880131244659423828125" lon="-1.65785939432680606842041015625">
        <ele>407.20001220703125</ele>
        <time>2020-08-23T09:58:52.000Z</time>
      </trkpt>
      <trkpt lat="43.30465019680559635162353515625" lon="-1.657945476472377777099609375">
        <ele>408.20001220703125</ele>
        <time>2020-08-23T09:58:59.000Z</time>
      </trkpt>
      <trkpt lat="43.30467936582863330841064453125" lon="-1.65796718560159206390380859375">
        <ele>408.399993896484375</ele>
        <time>2020-08-23T09:59:01.000Z</time>
      </trkpt>
      <trkpt lat="43.30475430004298686981201171875" lon="-1.6580177284777164459228515625">
        <ele>409.399993896484375</ele>
        <time>2020-08-23T09:59:06.000Z</time>
      </trkpt>
      <trkpt lat="43.3048132248222827911376953125" lon="-1.6580639965832233428955078125">
        <ele>410.399993896484375</ele>
        <time>2020-08-23T09:59:10.000Z</time>
      </trkpt>
      <trkpt lat="43.3049069344997406005859375" lon="-1.65819726884365081787109375">
        <ele>411.600006103515625</ele>
        <time>2020-08-23T09:59:18.000Z</time>
      </trkpt>
      <trkpt lat="43.30491707660257816314697265625" lon="-1.65821470320224761962890625">
        <ele>411.79998779296875</ele>
        <time>2020-08-23T09:59:19.000Z</time>
      </trkpt>
      <trkpt lat="43.30502604134380817413330078125" lon="-1.65837957523763179779052734375">
        <ele>412.399993896484375</ele>
        <time>2020-08-23T09:59:29.000Z</time>
      </trkpt>
      <trkpt lat="43.30510064028203487396240234375" lon="-1.6584542579948902130126953125">
        <ele>413.600006103515625</ele>
        <time>2020-08-23T09:59:35.000Z</time>
      </trkpt>
      <trkpt lat="43.30515646375715732574462890625" lon="-1.65848434902727603912353515625">
        <ele>414.20001220703125</ele>
        <time>2020-08-23T09:59:39.000Z</time>
      </trkpt>
      <trkpt lat="43.3051843754947185516357421875" lon="-1.658503711223602294921875">
        <ele>414.600006103515625</ele>
        <time>2020-08-23T09:59:41.000Z</time>
      </trkpt>
      <trkpt lat="43.3052484132349491119384765625" lon="-1.65856263600289821624755859375">
        <ele>415.600006103515625</ele>
        <time>2020-08-23T09:59:46.000Z</time>
      </trkpt>
      <trkpt lat="43.30532158724963665008544921875" lon="-1.65862315334379673004150390625">
        <ele>416.600006103515625</ele>
        <time>2020-08-23T09:59:52.000Z</time>
      </trkpt>
      <trkpt lat="43.305348493158817291259765625" lon="-1.65863589383661746978759765625">
        <ele>416.79998779296875</ele>
        <time>2020-08-23T09:59:54.000Z</time>
      </trkpt>
      <trkpt lat="43.305401466786861419677734375" lon="-1.6586581058800220489501953125">
        <ele>417.600006103515625</ele>
        <time>2020-08-23T09:59:58.000Z</time>
      </trkpt>
      <trkpt lat="43.3054401911795139312744140625" lon="-1.6586768813431262969970703125">
        <ele>418</ele>
        <time>2020-08-23T10:00:01.000Z</time>
      </trkpt>
      <trkpt lat="43.30551403574645519256591796875" lon="-1.65869825519621372222900390625">
        <ele>419.20001220703125</ele>
        <time>2020-08-23T10:00:07.000Z</time>
      </trkpt>
      <trkpt lat="43.3056061528623104095458984375" lon="-1.65870630182325839996337890625">
        <ele>420</ele>
        <time>2020-08-23T10:00:14.000Z</time>
      </trkpt>
      <trkpt lat="43.30561998300254344940185546875" lon="-1.65870496071875095367431640625">
        <ele>420.20001220703125</ele>
        <time>2020-08-23T10:00:15.000Z</time>
      </trkpt>
      <trkpt lat="43.30572375096380710601806640625" lon="-1.6587077267467975616455078125">
        <ele>421.399993896484375</ele>
        <time>2020-08-23T10:00:22.000Z</time>
      </trkpt>
      <trkpt lat="43.30574981868267059326171875" lon="-1.658703200519084930419921875">
        <ele>421.79998779296875</ele>
        <time>2020-08-23T10:00:24.000Z</time>
      </trkpt>
      <trkpt lat="43.305790387094020843505859375" lon="-1.6587080620229244232177734375">
        <ele>422.399993896484375</ele>
        <time>2020-08-23T10:00:27.000Z</time>
      </trkpt>
      <trkpt lat="43.30585040152072906494140625" lon="-1.65871837176382541656494140625">
        <ele>423</ele>
        <time>2020-08-23T10:00:31.000Z</time>
      </trkpt>
      <trkpt lat="43.3058951608836650848388671875" lon="-1.6587251611053943634033203125">
        <ele>423.600006103515625</ele>
        <time>2020-08-23T10:00:34.000Z</time>
      </trkpt>
      <trkpt lat="43.30598258413374423980712890625" lon="-1.65874854661524295806884765625">
        <ele>424.600006103515625</ele>
        <time>2020-08-23T10:00:40.000Z</time>
      </trkpt>
      <trkpt lat="43.30606522969901561737060546875" lon="-1.65877520106732845306396484375">
        <ele>425.600006103515625</ele>
        <time>2020-08-23T10:00:46.000Z</time>
      </trkpt>
      <trkpt lat="43.30609305761754512786865234375" lon="-1.6587861813604831695556640625">
        <ele>426</ele>
        <time>2020-08-23T10:00:48.000Z</time>
      </trkpt>
      <trkpt lat="43.3061617054045200347900390625" lon="-1.65881644003093242645263671875">
        <ele>426.79998779296875</ele>
        <time>2020-08-23T10:00:53.000Z</time>
      </trkpt>
      <trkpt lat="43.3061891980469226837158203125" lon="-1.65882616303861141204833984375">
        <ele>427.399993896484375</ele>
        <time>2020-08-23T10:00:55.000Z</time>
      </trkpt>
      <trkpt lat="43.306214846670627593994140625" lon="-1.65884225629270076751708984375">
        <ele>428</ele>
        <time>2020-08-23T10:00:57.000Z</time>
      </trkpt>
      <trkpt lat="43.3062748610973358154296875" lon="-1.65889288298785686492919921875">
        <ele>429.20001220703125</ele>
        <time>2020-08-23T10:01:02.000Z</time>
      </trkpt>
      <trkpt lat="43.3063075505197048187255859375" lon="-1.6589323617517948150634765625">
        <ele>430.399993896484375</ele>
        <time>2020-08-23T10:01:05.000Z</time>
      </trkpt>
      <trkpt lat="43.30636463128030300140380859375" lon="-1.65901375003159046173095703125">
        <ele>430.600006103515625</ele>
        <time>2020-08-23T10:01:11.000Z</time>
      </trkpt>
      <trkpt lat="43.3064259029924869537353515625" lon="-1.65907301008701324462890625">
        <ele>430.79998779296875</ele>
        <time>2020-08-23T10:01:16.000Z</time>
      </trkpt>
      <trkpt lat="43.30645549111068248748779296875" lon="-1.65907979942858219146728515625">
        <ele>430.79998779296875</ele>
        <time>2020-08-23T10:01:18.000Z</time>
      </trkpt>
      <trkpt lat="43.30647879280149936676025390625" lon="-1.659033112227916717529296875">
        <ele>430.79998779296875</ele>
        <time>2020-08-23T10:01:21.000Z</time>
      </trkpt>
      <trkpt lat="43.30644627101719379425048828125" lon="-1.65896815247833728790283203125">
        <ele>431.399993896484375</ele>
        <time>2020-08-23T10:01:25.000Z</time>
      </trkpt>
      <trkpt lat="43.306436799466609954833984375" lon="-1.658954322338104248046875">
        <ele>431.399993896484375</ele>
        <time>2020-08-23T10:01:26.000Z</time>
      </trkpt>
      <trkpt lat="43.30641676671802997589111328125" lon="-1.65892817080020904541015625">
        <ele>431.79998779296875</ele>
        <time>2020-08-23T10:01:28.000Z</time>
      </trkpt>
      <trkpt lat="43.30639614723622798919677734375" lon="-1.6588941402733325958251953125">
        <ele>432.399993896484375</ele>
        <time>2020-08-23T10:01:30.000Z</time>
      </trkpt>
      <trkpt lat="43.3063739351928234100341796875" lon="-1.6588267497718334197998046875">
        <ele>432.600006103515625</ele>
        <time>2020-08-23T10:01:33.000Z</time>
      </trkpt>
      <trkpt lat="43.30632624216377735137939453125" lon="-1.65865886025130748748779296875">
        <ele>433.20001220703125</ele>
        <time>2020-08-23T10:01:41.000Z</time>
      </trkpt>
      <trkpt lat="43.30631911754608154296875" lon="-1.65863941423594951629638671875">
        <ele>433.399993896484375</ele>
        <time>2020-08-23T10:01:42.000Z</time>
      </trkpt>
      <trkpt lat="43.30628181807696819305419921875" lon="-1.65854235179722309112548828125">
        <ele>434.79998779296875</ele>
        <time>2020-08-23T10:01:47.000Z</time>
      </trkpt>
      <trkpt lat="43.3062673173844814300537109375" lon="-1.65850572288036346435546875">
        <ele>435.20001220703125</ele>
        <time>2020-08-23T10:01:49.000Z</time>
      </trkpt>
      <trkpt lat="43.30623487941920757293701171875" lon="-1.6584475524723529815673828125">
        <ele>435.79998779296875</ele>
        <time>2020-08-23T10:01:52.000Z</time>
      </trkpt>
      <trkpt lat="43.30619783140718936920166015625" lon="-1.65836499072611331939697265625">
        <ele>436.399993896484375</ele>
        <time>2020-08-23T10:01:56.000Z</time>
      </trkpt>
      <trkpt lat="43.30613831989467144012451171875" lon="-1.658239848911762237548828125">
        <ele>436.79998779296875</ele>
        <time>2020-08-23T10:02:02.000Z</time>
      </trkpt>
      <trkpt lat="43.30612926743924617767333984375" lon="-1.65821738541126251220703125">
        <ele>437.20001220703125</ele>
        <time>2020-08-23T10:02:03.000Z</time>
      </trkpt>
      <trkpt lat="43.30610797740519046783447265625" lon="-1.65817975066602230072021484375">
        <ele>437.79998779296875</ele>
        <time>2020-08-23T10:02:05.000Z</time>
      </trkpt>
      <trkpt lat="43.3060869388282299041748046875" lon="-1.65811990387737751007080078125">
        <ele>438</ele>
        <time>2020-08-23T10:02:08.000Z</time>
      </trkpt>
      <trkpt lat="43.30607998184859752655029296875" lon="-1.6581027209758758544921875">
        <ele>438.399993896484375</ele>
        <time>2020-08-23T10:02:09.000Z</time>
      </trkpt>
      <trkpt lat="43.306047879159450531005859375" lon="-1.65801479481160640716552734375">
        <ele>438.79998779296875</ele>
        <time>2020-08-23T10:02:13.000Z</time>
      </trkpt>
      <trkpt lat="43.3060359768569469451904296875" lon="-1.65799870155751705169677734375">
        <ele>438.79998779296875</ele>
        <time>2020-08-23T10:02:14.000Z</time>
      </trkpt>
      <trkpt lat="43.3059424348175525665283203125" lon="-1.65783592499792575836181640625">
        <ele>439.20001220703125</ele>
        <time>2020-08-23T10:02:22.000Z</time>
      </trkpt>
      <trkpt lat="43.3059020340442657470703125" lon="-1.657780520617961883544921875">
        <ele>439.399993896484375</ele>
        <time>2020-08-23T10:02:25.000Z</time>
      </trkpt>
      <trkpt lat="43.30584025941789150238037109375" lon="-1.65770709514617919921875">
        <ele>440</ele>
        <time>2020-08-23T10:02:30.000Z</time>
      </trkpt>
      <trkpt lat="43.3058197237551212310791015625" lon="-1.6576790995895862579345703125">
        <ele>440.399993896484375</ele>
        <time>2020-08-23T10:02:32.000Z</time>
      </trkpt>
      <trkpt lat="43.30578074790537357330322265625" lon="-1.65760374628007411956787109375">
        <ele>440.399993896484375</ele>
        <time>2020-08-23T10:02:36.000Z</time>
      </trkpt>
      <trkpt lat="43.30574520863592624664306640625" lon="-1.6574906744062900543212890625">
        <ele>441.79998779296875</ele>
        <time>2020-08-23T10:02:42.000Z</time>
      </trkpt>
      <trkpt lat="43.30574185587465763092041015625" lon="-1.65747039020061492919921875">
        <ele>442</ele>
        <time>2020-08-23T10:02:43.000Z</time>
      </trkpt>
      <trkpt lat="43.3057338930666446685791015625" lon="-1.65737357921898365020751953125">
        <ele>442.79998779296875</ele>
        <time>2020-08-23T10:02:47.000Z</time>
      </trkpt>
      <trkpt lat="43.30572978593409061431884765625" lon="-1.65732446126639842987060546875">
        <ele>443.600006103515625</ele>
        <time>2020-08-23T10:02:49.000Z</time>
      </trkpt>
      <trkpt lat="43.30572039820253849029541015625" lon="-1.657278276979923248291015625">
        <ele>444</ele>
        <time>2020-08-23T10:02:51.000Z</time>
      </trkpt>
      <trkpt lat="43.3057057298719882965087890625" lon="-1.65717090480029582977294921875">
        <ele>444.79998779296875</ele>
        <time>2020-08-23T10:02:56.000Z</time>
      </trkpt>
      <trkpt lat="43.30570430494844913482666015625" lon="-1.65714944712817668914794921875">
        <ele>445</ele>
        <time>2020-08-23T10:02:57.000Z</time>
      </trkpt>
      <trkpt lat="43.30569215118885040283203125" lon="-1.65700762532651424407958984375">
        <ele>445.79998779296875</ele>
        <time>2020-08-23T10:03:03.000Z</time>
      </trkpt>
      <trkpt lat="43.30567949451506137847900390625" lon="-1.65694911964237689971923828125">
        <ele>446</ele>
        <time>2020-08-23T10:03:06.000Z</time>
      </trkpt>
      <trkpt lat="43.30567647702991962432861328125" lon="-1.65693126618862152099609375">
        <ele>446.399993896484375</ele>
        <time>2020-08-23T10:03:07.000Z</time>
      </trkpt>
      <trkpt lat="43.30566801130771636962890625" lon="-1.65686060674488544464111328125">
        <ele>446.600006103515625</ele>
        <time>2020-08-23T10:03:10.000Z</time>
      </trkpt>
      <trkpt lat="43.30563490279018878936767578125" lon="-1.65671400725841522216796875">
        <ele>447.399993896484375</ele>
        <time>2020-08-23T10:03:16.000Z</time>
      </trkpt>
      <trkpt lat="43.30562752671539783477783203125" lon="-1.6566891968250274658203125">
        <ele>447.399993896484375</ele>
        <time>2020-08-23T10:03:17.000Z</time>
      </trkpt>
      <trkpt lat="43.30560506321489810943603515625" lon="-1.65656941942870616912841796875">
        <ele>448.600006103515625</ele>
        <time>2020-08-23T10:03:22.000Z</time>
      </trkpt>
      <trkpt lat="43.3055967651307582855224609375" lon="-1.65650471113622188568115234375">
        <ele>449.399993896484375</ele>
        <time>2020-08-23T10:03:25.000Z</time>
      </trkpt>
      <trkpt lat="43.305589891970157623291015625" lon="-1.6564338840544223785400390625">
        <ele>449.79998779296875</ele>
        <time>2020-08-23T10:03:28.000Z</time>
      </trkpt>
      <trkpt lat="43.3055803366005420684814453125" lon="-1.6563265956938266754150390625">
        <ele>450.79998779296875</ele>
        <time>2020-08-23T10:03:33.000Z</time>
      </trkpt>
      <trkpt lat="43.30557815730571746826171875" lon="-1.6563024558126926422119140625">
        <ele>451</ele>
        <time>2020-08-23T10:03:34.000Z</time>
      </trkpt>
      <trkpt lat="43.305526860058307647705078125" lon="-1.65607857517898082733154296875">
        <ele>450.600006103515625</ele>
        <time>2020-08-23T10:03:40.000Z</time>
      </trkpt>
      <trkpt lat="43.30553800798952579498291015625" lon="-1.6558228433132171630859375">
        <ele>449.79998779296875</ele>
        <time>2020-08-23T10:03:45.000Z</time>
      </trkpt>
      <trkpt lat="43.30554588697850704193115234375" lon="-1.6557797603309154510498046875">
        <ele>449.79998779296875</ele>
        <time>2020-08-23T10:03:46.000Z</time>
      </trkpt>
      <trkpt lat="43.3055870421230792999267578125" lon="-1.65564741007983684539794921875">
        <ele>450.399993896484375</ele>
        <time>2020-08-23T10:03:50.000Z</time>
      </trkpt>
      <trkpt lat="43.30560171045362949371337890625" lon="-1.65559695102274417877197265625">
        <ele>450.79998779296875</ele>
        <time>2020-08-23T10:03:52.000Z</time>
      </trkpt>
      <trkpt lat="43.30564429052174091339111328125" lon="-1.65546476840972900390625">
        <ele>450.79998779296875</ele>
        <time>2020-08-23T10:03:57.000Z</time>
      </trkpt>
      <trkpt lat="43.30571629106998443603515625" lon="-1.655279695987701416015625">
        <ele>450.79998779296875</ele>
        <time>2020-08-23T10:04:03.000Z</time>
      </trkpt>
      <trkpt lat="43.30580337904393672943115234375" lon="-1.6550897620618343353271484375">
        <ele>450.399993896484375</ele>
        <time>2020-08-23T10:04:10.000Z</time>
      </trkpt>
      <trkpt lat="43.30580857582390308380126953125" lon="-1.65508322417736053466796875">
        <ele>450.600006103515625</ele>
        <time>2020-08-23T10:04:13.000Z</time>
      </trkpt>
      <trkpt lat="43.30583564937114715576171875" lon="-1.65507978759706020355224609375">
        <ele>451.600006103515625</ele>
        <time>2020-08-23T10:09:33.000Z</time>
      </trkpt>
      <trkpt lat="43.30589105375111103057861328125" lon="-1.655072830617427825927734375">
        <ele>450.399993896484375</ele>
        <time>2020-08-23T10:09:38.000Z</time>
      </trkpt>
      <trkpt lat="43.30604461021721363067626953125" lon="-1.6550619341433048248291015625">
        <ele>449.79998779296875</ele>
        <time>2020-08-23T10:09:44.000Z</time>
      </trkpt>
      <trkpt lat="43.3060731925070285797119140625" lon="-1.65506000630557537078857421875">
        <ele>449.600006103515625</ele>
        <time>2020-08-23T10:09:45.000Z</time>
      </trkpt>
      <trkpt lat="43.30624661408364772796630859375" lon="-1.655072830617427825927734375">
        <ele>449</ele>
        <time>2020-08-23T10:09:51.000Z</time>
      </trkpt>
      <trkpt lat="43.30632858909666538238525390625" lon="-1.65508917532861232757568359375">
        <ele>448.79998779296875</ele>
        <time>2020-08-23T10:09:54.000Z</time>
      </trkpt>
      <trkpt lat="43.306424058973789215087890625" lon="-1.655100993812084197998046875">
        <ele>448.20001220703125</ele>
        <time>2020-08-23T10:09:57.000Z</time>
      </trkpt>
      <trkpt lat="43.30648398958146572113037109375" lon="-1.65511465631425380706787109375">
        <ele>447.600006103515625</ele>
        <time>2020-08-23T10:09:59.000Z</time>
      </trkpt>
      <trkpt lat="43.30657619051635265350341796875" lon="-1.65513695217669010162353515625">
        <ele>446.399993896484375</ele>
        <time>2020-08-23T10:10:02.000Z</time>
      </trkpt>
      <trkpt lat="43.30664341337978839874267578125" lon="-1.6551491059362888336181640625">
        <ele>445.399993896484375</ele>
        <time>2020-08-23T10:10:04.000Z</time>
      </trkpt>
      <trkpt lat="43.3068180084228515625" lon="-1.6551645286381244659423828125">
        <ele>444.20001220703125</ele>
        <time>2020-08-23T10:10:09.000Z</time>
      </trkpt>
      <trkpt lat="43.30685681663453578948974609375" lon="-1.6551662050187587738037109375">
        <ele>444</ele>
        <time>2020-08-23T10:10:10.000Z</time>
      </trkpt>
      <trkpt lat="43.3069978840649127960205078125" lon="-1.65516142733395099639892578125">
        <ele>443</ele>
        <time>2020-08-23T10:10:13.000Z</time>
      </trkpt>
      <trkpt lat="43.30708346329629421234130859375" lon="-1.655145250260829925537109375">
        <ele>442.600006103515625</ele>
        <time>2020-08-23T10:10:15.000Z</time>
      </trkpt>
      <trkpt lat="43.3072999678552150726318359375" lon="-1.6551427356898784637451171875">
        <ele>442.600006103515625</ele>
        <time>2020-08-23T10:10:21.000Z</time>
      </trkpt>
      <trkpt lat="43.30743868835270404815673828125" lon="-1.65508414618670940399169921875">
        <ele>442</ele>
        <time>2020-08-23T10:10:26.000Z</time>
      </trkpt>
      <trkpt lat="43.30746240913867950439453125" lon="-1.655065119266510009765625">
        <ele>441.79998779296875</ele>
        <time>2020-08-23T10:10:27.000Z</time>
      </trkpt>
      <trkpt lat="43.30755251459777355194091796875" lon="-1.65493595413863658905029296875">
        <ele>440.79998779296875</ele>
        <time>2020-08-23T10:10:32.000Z</time>
      </trkpt>
      <trkpt lat="43.30765326507389545440673828125" lon="-1.65485783480107784271240234375">
        <ele>439.600006103515625</ele>
        <time>2020-08-23T10:10:36.000Z</time>
      </trkpt>
      <trkpt lat="43.30772702582180500030517578125" lon="-1.654837466776371002197265625">
        <ele>439.20001220703125</ele>
        <time>2020-08-23T10:10:39.000Z</time>
      </trkpt>
      <trkpt lat="43.30775678157806396484375" lon="-1.65484450757503509521484375">
        <ele>439.20001220703125</ele>
        <time>2020-08-23T10:10:40.000Z</time>
      </trkpt>
      <trkpt lat="43.30782962031662464141845703125" lon="-1.6548849083483219146728515625">
        <ele>438.600006103515625</ele>
        <time>2020-08-23T10:10:43.000Z</time>
      </trkpt>
      <trkpt lat="43.30786951817572116851806640625" lon="-1.65490058250725269317626953125">
        <ele>438</ele>
        <time>2020-08-23T10:10:45.000Z</time>
      </trkpt>
      <trkpt lat="43.3079467155039310455322265625" lon="-1.654976271092891693115234375">
        <ele>437.399993896484375</ele>
        <time>2020-08-23T10:10:48.000Z</time>
      </trkpt>
      <trkpt lat="43.3079705201089382171630859375" lon="-1.65502111427485942840576171875">
        <ele>437.20001220703125</ele>
        <time>2020-08-23T10:10:49.000Z</time>
      </trkpt>
      <trkpt lat="43.30806188285350799560546875" lon="-1.65514533407986164093017578125">
        <ele>437</ele>
        <time>2020-08-23T10:10:53.000Z</time>
      </trkpt>
      <trkpt lat="43.30818115733563899993896484375" lon="-1.65525488555431365966796875">
        <ele>437.79998779296875</ele>
        <time>2020-08-23T10:10:59.000Z</time>
      </trkpt>
      <trkpt lat="43.30836363136768341064453125" lon="-1.6553683765232563018798828125">
        <ele>436.79998779296875</ele>
        <time>2020-08-23T10:11:07.000Z</time>
      </trkpt>
      <trkpt lat="43.30855666659772396087646484375" lon="-1.65543082170188426971435546875">
        <ele>436</ele>
        <time>2020-08-23T10:11:13.000Z</time>
      </trkpt>
      <trkpt lat="43.30864132381975650787353515625" lon="-1.6554473340511322021484375">
        <ele>434.600006103515625</ele>
        <time>2020-08-23T10:11:16.000Z</time>
      </trkpt>
      <trkpt lat="43.308727741241455078125" lon="-1.655487231910228729248046875">
        <ele>433.600006103515625</ele>
        <time>2020-08-23T10:11:19.000Z</time>
      </trkpt>
      <trkpt lat="43.308863528072834014892578125" lon="-1.6555018164217472076416015625">
        <ele>432</ele>
        <time>2020-08-23T10:11:23.000Z</time>
      </trkpt>
      <trkpt lat="43.308907449245452880859375" lon="-1.65551011450588703155517578125">
        <ele>431.20001220703125</ele>
        <time>2020-08-23T10:11:24.000Z</time>
      </trkpt>
      <trkpt lat="43.3089543879032135009765625" lon="-1.655530147254467010498046875">
        <ele>430.79998779296875</ele>
        <time>2020-08-23T10:11:25.000Z</time>
      </trkpt>
      <trkpt lat="43.309036195278167724609375" lon="-1.65558689273893833160400390625">
        <ele>429.399993896484375</ele>
        <time>2020-08-23T10:11:27.000Z</time>
      </trkpt>
      <trkpt lat="43.3090759254992008209228515625" lon="-1.6556091047823429107666015625">
        <ele>429.20001220703125</ele>
        <time>2020-08-23T10:11:28.000Z</time>
      </trkpt>
      <trkpt lat="43.30929427407681941986083984375" lon="-1.6557143814861774444580078125">
        <ele>429.20001220703125</ele>
        <time>2020-08-23T10:11:33.000Z</time>
      </trkpt>
      <trkpt lat="43.30933383665978908538818359375" lon="-1.65574162267148494720458984375">
        <ele>429.20001220703125</ele>
        <time>2020-08-23T10:11:34.000Z</time>
      </trkpt>
      <trkpt lat="43.30948957242071628570556640625" lon="-1.65582829155027866363525390625">
        <ele>428.399993896484375</ele>
        <time>2020-08-23T10:11:39.000Z</time>
      </trkpt>
      <trkpt lat="43.309621252119541168212890625" lon="-1.6558914072811603546142578125">
        <ele>428.20001220703125</ele>
        <time>2020-08-23T10:11:45.000Z</time>
      </trkpt>
      <trkpt lat="43.30972476862370967864990234375" lon="-1.655938513576984405517578125">
        <ele>429.399993896484375</ele>
        <time>2020-08-23T10:11:51.000Z</time>
      </trkpt>
      <trkpt lat="43.30985284410417079925537109375" lon="-1.65598721243441104888916015625">
        <ele>430</ele>
        <time>2020-08-23T10:11:57.000Z</time>
      </trkpt>
      <trkpt lat="43.30986944027245044708251953125" lon="-1.65599509142339229583740234375">
        <ele>430.20001220703125</ele>
        <time>2020-08-23T10:11:58.000Z</time>
      </trkpt>
      <trkpt lat="43.30998745746910572052001953125" lon="-1.65605141781270503997802734375">
        <ele>430.79998779296875</ele>
        <time>2020-08-23T10:12:04.000Z</time>
      </trkpt>
      <trkpt lat="43.31013095565140247344970703125" lon="-1.6560989432036876678466796875">
        <ele>430.600006103515625</ele>
        <time>2020-08-23T10:12:11.000Z</time>
      </trkpt>
      <trkpt lat="43.31025215797126293182373046875" lon="-1.6560553573071956634521484375">
        <ele>430.600006103515625</ele>
        <time>2020-08-23T10:12:17.000Z</time>
      </trkpt>
      <trkpt lat="43.31034846603870391845703125" lon="-1.65597363375127315521240234375">
        <ele>429.20001220703125</ele>
        <time>2020-08-23T10:12:22.000Z</time>
      </trkpt>
      <trkpt lat="43.310393057763576507568359375" lon="-1.65593340061604976654052734375">
        <ele>429</ele>
        <time>2020-08-23T10:12:24.000Z</time>
      </trkpt>
      <trkpt lat="43.31046740524470806121826171875" lon="-1.65590188466012477874755859375">
        <ele>428</ele>
        <time>2020-08-23T10:12:27.000Z</time>
      </trkpt>
      <trkpt lat="43.3105152659118175506591796875" lon="-1.65591261349618434906005859375">
        <ele>427.600006103515625</ele>
        <time>2020-08-23T10:12:29.000Z</time>
      </trkpt>
      <trkpt lat="43.31058072857558727264404296875" lon="-1.6560007072985172271728515625">
        <ele>427.20001220703125</ele>
        <time>2020-08-23T10:12:34.000Z</time>
      </trkpt>
      <trkpt lat="43.310595564544200897216796875" lon="-1.6560302115976810455322265625">
        <ele>427</ele>
        <time>2020-08-23T10:12:35.000Z</time>
      </trkpt>
      <trkpt lat="43.31064627505838871002197265625" lon="-1.65616960264742374420166015625">
        <ele>426.600006103515625</ele>
        <time>2020-08-23T10:12:39.000Z</time>
      </trkpt>
      <trkpt lat="43.31069790758192539215087890625" lon="-1.6562773101031780242919921875">
        <ele>425.79998779296875</ele>
        <time>2020-08-23T10:12:42.000Z</time>
      </trkpt>
      <trkpt lat="43.3107338659465312957763671875" lon="-1.6563604585826396942138671875">
        <ele>425.399993896484375</ele>
        <time>2020-08-23T10:12:44.000Z</time>
      </trkpt>
      <trkpt lat="43.310875184834003448486328125" lon="-1.65658283047378063201904296875">
        <ele>425</ele>
        <time>2020-08-23T10:12:50.000Z</time>
      </trkpt>
      <trkpt lat="43.31099680624902248382568359375" lon="-1.656749546527862548828125">
        <ele>425</ele>
        <time>2020-08-23T10:12:55.000Z</time>
      </trkpt>
      <trkpt lat="43.311115242540836334228515625" lon="-1.65689103305339813232421875">
        <ele>424.79998779296875</ele>
        <time>2020-08-23T10:13:00.000Z</time>
      </trkpt>
      <trkpt lat="43.31117919646203517913818359375" lon="-1.656957082450389862060546875">
        <ele>424.20001220703125</ele>
        <time>2020-08-23T10:13:02.000Z</time>
      </trkpt>
      <trkpt lat="43.31121507100760936737060546875" lon="-1.6569854132831096649169921875">
        <ele>423.600006103515625</ele>
        <time>2020-08-23T10:13:03.000Z</time>
      </trkpt>
      <trkpt lat="43.31129671074450016021728515625" lon="-1.6570628620684146881103515625">
        <ele>422</ele>
        <time>2020-08-23T10:13:05.000Z</time>
      </trkpt>
      <trkpt lat="43.3113361895084381103515625" lon="-1.657111309468746185302734375">
        <ele>421.20001220703125</ele>
        <time>2020-08-23T10:13:06.000Z</time>
      </trkpt>
      <trkpt lat="43.31136577762663364410400390625" lon="-1.65716336108744144439697265625">
        <ele>420.600006103515625</ele>
        <time>2020-08-23T10:13:07.000Z</time>
      </trkpt>
      <trkpt lat="43.3113916777074337005615234375" lon="-1.6572475992143154144287109375">
        <ele>420</ele>
        <time>2020-08-23T10:13:09.000Z</time>
      </trkpt>
      <trkpt lat="43.3113977126777172088623046875" lon="-1.6572781093418598175048828125">
        <ele>420</ele>
        <time>2020-08-23T10:13:10.000Z</time>
      </trkpt>
      <trkpt lat="43.3114091120660305023193359375" lon="-1.65732010267674922943115234375">
        <ele>420.20001220703125</ele>
        <time>2020-08-23T10:13:12.000Z</time>
      </trkpt>
      <trkpt lat="43.31142269074916839599609375" lon="-1.65735748596489429473876953125">
        <ele>420</ele>
        <time>2020-08-23T10:13:14.000Z</time>
      </trkpt>
      <trkpt lat="43.31145680509507656097412109375" lon="-1.65748069994151592254638671875">
        <ele>419.79998779296875</ele>
        <time>2020-08-23T10:13:19.000Z</time>
      </trkpt>
      <trkpt lat="43.31147767603397369384765625" lon="-1.6575389541685581207275390625">
        <ele>419.600006103515625</ele>
        <time>2020-08-23T10:13:21.000Z</time>
      </trkpt>
      <trkpt lat="43.31154263578355312347412109375" lon="-1.65766082704067230224609375">
        <ele>419</ele>
        <time>2020-08-23T10:13:25.000Z</time>
      </trkpt>
      <trkpt lat="43.31167389638721942901611328125" lon="-1.657841205596923828125">
        <ele>418.399993896484375</ele>
        <time>2020-08-23T10:13:31.000Z</time>
      </trkpt>
      <trkpt lat="43.3118163049221038818359375" lon="-1.6579939238727092742919921875">
        <ele>417.399993896484375</ele>
        <time>2020-08-23T10:13:36.000Z</time>
      </trkpt>
      <trkpt lat="43.31188277341425418853759765625" lon="-1.65805519558489322662353515625">
        <ele>417.399993896484375</ele>
        <time>2020-08-23T10:13:38.000Z</time>
      </trkpt>
      <trkpt lat="43.3119479008018970489501953125" lon="-1.65811873041093349456787109375">
        <ele>416.20001220703125</ele>
        <time>2020-08-23T10:13:40.000Z</time>
      </trkpt>
      <trkpt lat="43.31205837428569793701171875" lon="-1.65821830742061138153076171875">
        <ele>416</ele>
        <time>2020-08-23T10:13:44.000Z</time>
      </trkpt>
      <trkpt lat="43.31221637316048145294189453125" lon="-1.65834353305399417877197265625">
        <ele>415.79998779296875</ele>
        <time>2020-08-23T10:13:52.000Z</time>
      </trkpt>
      <trkpt lat="43.3123723603785037994384765625" lon="-1.65843791328370571136474609375">
        <ele>415.20001220703125</ele>
        <time>2020-08-23T10:14:00.000Z</time>
      </trkpt>
      <trkpt lat="43.31238962709903717041015625" lon="-1.6584455408155918121337890625">
        <ele>415.20001220703125</ele>
        <time>2020-08-23T10:14:01.000Z</time>
      </trkpt>
      <trkpt lat="43.31240060739219188690185546875" lon="-1.6584549285471439361572265625">
        <ele>415</ele>
        <time>2020-08-23T10:14:04.000Z</time>
      </trkpt>
      <trkpt lat="43.312432877719402313232421875" lon="-1.6584914736449718475341796875">
        <ele>414.600006103515625</ele>
        <time>2020-08-23T10:14:15.000Z</time>
      </trkpt>
      <trkpt lat="43.31243262626230716705322265625" lon="-1.65849231183528900146484375">
        <ele>414.20001220703125</ele>
        <time>2020-08-23T10:14:44.000Z</time>
      </trkpt>
      <trkpt lat="43.3124330453574657440185546875" lon="-1.6584918089210987091064453125">
        <ele>414.20001220703125</ele>
        <time>2020-08-23T10:14:49.000Z</time>
      </trkpt>
      <trkpt lat="43.312432877719402313232421875" lon="-1.6584911383688449859619140625">
        <ele>414.20001220703125</ele>
        <time>2020-08-23T10:14:59.000Z</time>
      </trkpt>
      <trkpt lat="43.3124323748052120208740234375" lon="-1.65849826298654079437255859375">
        <ele>414.399993896484375</ele>
        <time>2020-08-23T10:15:11.000Z</time>
      </trkpt>
      <trkpt lat="43.3124296925961971282958984375" lon="-1.6585050523281097412109375">
        <ele>413.79998779296875</ele>
        <time>2020-08-23T10:15:22.000Z</time>
      </trkpt>
      <trkpt lat="43.3124286867678165435791015625" lon="-1.6585105843842029571533203125">
        <ele>413.600006103515625</ele>
        <time>2020-08-23T10:16:52.000Z</time>
      </trkpt>
      <trkpt lat="43.31242877058684825897216796875" lon="-1.65853061713278293609619140625">
        <ele>414.20001220703125</ele>
        <time>2020-08-23T10:22:42.000Z</time>
      </trkpt>
      <trkpt lat="43.31242877058684825897216796875" lon="-1.65853120386600494384765625">
        <ele>414.20001220703125</ele>
        <time>2020-08-23T10:23:34.000Z</time>
      </trkpt>
      <trkpt lat="43.312433548271656036376953125" lon="-1.65852508507668972015380859375">
        <ele>414.399993896484375</ele>
        <time>2020-08-23T10:23:42.000Z</time>
      </trkpt>
      <trkpt lat="43.31243312917649745941162109375" lon="-1.65852424688637256622314453125">
        <ele>414.399993896484375</ele>
        <time>2020-08-23T10:23:55.000Z</time>
      </trkpt>
      <trkpt lat="43.31245106644928455352783203125" lon="-1.6585233248770236968994140625">
        <ele>414.600006103515625</ele>
        <time>2020-08-23T10:24:11.000Z</time>
      </trkpt>
      <trkpt lat="43.3124739490449428558349609375" lon="-1.65851653553545475006103515625">
        <ele>414.79998779296875</ele>
        <time>2020-08-23T10:24:14.000Z</time>
      </trkpt>
      <trkpt lat="43.31248727627098560333251953125" lon="-1.65852189995348453521728515625">
        <ele>414.399993896484375</ele>
        <time>2020-08-23T10:24:17.000Z</time>
      </trkpt>
      <trkpt lat="43.31255081109702587127685546875" lon="-1.65857370011508464813232421875">
        <ele>413.79998779296875</ele>
        <time>2020-08-23T10:24:25.000Z</time>
      </trkpt>
      <trkpt lat="43.31255592405796051025390625" lon="-1.6585774719715118408203125">
        <ele>413.600006103515625</ele>
        <time>2020-08-23T10:24:26.000Z</time>
      </trkpt>
      <trkpt lat="43.31255835480988025665283203125" lon="-1.6585799865424633026123046875">
        <ele>413.399993896484375</ele>
        <time>2020-08-23T10:24:31.000Z</time>
      </trkpt>
      <trkpt lat="43.31255835480988025665283203125" lon="-1.6585774719715118408203125">
        <ele>413.20001220703125</ele>
        <time>2020-08-23T10:26:06.000Z</time>
      </trkpt>
      <trkpt lat="43.312558270990848541259765625" lon="-1.65857789106667041778564453125">
        <ele>413.399993896484375</ele>
        <time>2020-08-23T10:26:19.000Z</time>
      </trkpt>
      <trkpt lat="43.31255768425762653350830078125" lon="-1.65857822634279727935791015625">
        <ele>413.600006103515625</ele>
        <time>2020-08-23T10:26:44.000Z</time>
      </trkpt>
      <trkpt lat="43.31255785189568996429443359375" lon="-1.6585799865424633026123046875">
        <ele>413.399993896484375</ele>
        <time>2020-08-23T10:27:06.000Z</time>
      </trkpt>
      <trkpt lat="43.3125581033527851104736328125" lon="-1.658583842217922210693359375">
        <ele>413</ele>
        <time>2020-08-23T10:27:46.000Z</time>
      </trkpt>
      <trkpt lat="43.3125579357147216796875" lon="-1.6585853509604930877685546875">
        <ele>413.20001220703125</ele>
        <time>2020-08-23T10:28:10.000Z</time>
      </trkpt>
      <trkpt lat="43.31255835480988025665283203125" lon="-1.65858526714146137237548828125">
        <ele>413.20001220703125</ele>
        <time>2020-08-23T10:28:12.000Z</time>
      </trkpt>
      <trkpt lat="43.31255818717181682586669921875" lon="-1.65858610533177852630615234375">
        <ele>413</ele>
        <time>2020-08-23T10:28:34.000Z</time>
      </trkpt>
      <trkpt lat="43.31255835480988025665283203125" lon="-1.65858845226466655731201171875">
        <ele>413.20001220703125</ele>
        <time>2020-08-23T10:28:57.000Z</time>
      </trkpt>
      <trkpt lat="43.312558270990848541259765625" lon="-1.65858979336917400360107421875">
        <ele>413.399993896484375</ele>
        <time>2020-08-23T10:29:13.000Z</time>
      </trkpt>
      <trkpt lat="43.31256103701889514923095703125" lon="-1.6585866920650005340576171875">
        <ele>413.20001220703125</ele>
        <time>2020-08-23T10:29:33.000Z</time>
      </trkpt>
      <trkpt lat="43.3125617913901805877685546875" lon="-1.658585183322429656982421875">
        <ele>413.20001220703125</ele>
        <time>2020-08-23T10:29:55.000Z</time>
      </trkpt>
      <trkpt lat="43.31256153993308544158935546875" lon="-1.6585846804082393646240234375">
        <ele>413.20001220703125</ele>
        <time>2020-08-23T10:30:06.000Z</time>
      </trkpt>
      <trkpt lat="43.31256128847599029541015625" lon="-1.65858426131308078765869140625">
        <ele>413</ele>
        <time>2020-08-23T10:30:25.000Z</time>
      </trkpt>
      <trkpt lat="43.31256137229502201080322265625" lon="-1.658584177494049072265625">
        <ele>413</ele>
        <time>2020-08-23T10:30:41.000Z</time>
      </trkpt>
      <trkpt lat="43.312561623752117156982421875" lon="-1.6585828363895416259765625">
        <ele>413.20001220703125</ele>
        <time>2020-08-23T10:31:20.000Z</time>
      </trkpt>
      <trkpt lat="43.312561623752117156982421875" lon="-1.658583171665668487548828125">
        <ele>413.399993896484375</ele>
        <time>2020-08-23T10:31:21.000Z</time>
      </trkpt>
      <trkpt lat="43.31256506033241748809814453125" lon="-1.658583171665668487548828125">
        <ele>413.20001220703125</ele>
        <time>2020-08-23T10:31:24.000Z</time>
      </trkpt>
      <trkpt lat="43.3126197941601276397705078125" lon="-1.65858945809304714202880859375">
        <ele>413.20001220703125</ele>
        <time>2020-08-23T10:31:27.000Z</time>
      </trkpt>
      <trkpt lat="43.31270839087665081024169921875" lon="-1.6586150228977203369140625">
        <ele>412.399993896484375</ele>
        <time>2020-08-23T10:31:31.000Z</time>
      </trkpt>
      <trkpt lat="43.31277259625494480133056640625" lon="-1.6586467064917087554931640625">
        <ele>411.600006103515625</ele>
        <time>2020-08-23T10:31:34.000Z</time>
      </trkpt>
      <trkpt lat="43.31281006336212158203125" lon="-1.65866539813578128814697265625">
        <ele>411.399993896484375</ele>
        <time>2020-08-23T10:31:36.000Z</time>
      </trkpt>
      <trkpt lat="43.3128605224192142486572265625" lon="-1.65870144031941890716552734375">
        <ele>410.20001220703125</ele>
        <time>2020-08-23T10:31:39.000Z</time>
      </trkpt>
      <trkpt lat="43.3128972351551055908203125" lon="-1.65872004814445972442626953125">
        <ele>409.600006103515625</ele>
        <time>2020-08-23T10:31:41.000Z</time>
      </trkpt>
      <trkpt lat="43.31293436698615550994873046875" lon="-1.65874921716749668121337890625">
        <ele>409</ele>
        <time>2020-08-23T10:31:43.000Z</time>
      </trkpt>
      <trkpt lat="43.3129832334816455841064453125" lon="-1.6587845049798488616943359375">
        <ele>408</ele>
        <time>2020-08-23T10:31:46.000Z</time>
      </trkpt>
      <trkpt lat="43.31299270503222942352294921875" lon="-1.65878928266465663909912109375">
        <ele>407.399993896484375</ele>
        <time>2020-08-23T10:31:47.000Z</time>
      </trkpt>
      <trkpt lat="43.3129963092505931854248046875" lon="-1.65879045613110065460205078125">
        <ele>406.79998779296875</ele>
        <time>2020-08-23T10:31:50.000Z</time>
      </trkpt>
      <trkpt lat="43.3130164258182048797607421875" lon="-1.6588175296783447265625">
        <ele>406.600006103515625</ele>
        <time>2020-08-23T10:31:53.000Z</time>
      </trkpt>
      <trkpt lat="43.31310443580150604248046875" lon="-1.6588793881237506866455078125">
        <ele>405.600006103515625</ele>
        <time>2020-08-23T10:31:58.000Z</time>
      </trkpt>
      <trkpt lat="43.31314743496477603912353515625" lon="-1.65890729986131191253662109375">
        <ele>404.79998779296875</ele>
        <time>2020-08-23T10:32:00.000Z</time>
      </trkpt>
      <trkpt lat="43.31316721625626087188720703125" lon="-1.65892121382057666778564453125">
        <ele>404.20001220703125</ele>
        <time>2020-08-23T10:32:01.000Z</time>
      </trkpt>
      <trkpt lat="43.31325463950634002685546875" lon="-1.65897670201957225799560546875">
        <ele>402.79998779296875</ele>
        <time>2020-08-23T10:32:05.000Z</time>
      </trkpt>
      <trkpt lat="43.3133141510188579559326171875" lon="-1.6590265743434429168701171875">
        <ele>401.79998779296875</ele>
        <time>2020-08-23T10:32:08.000Z</time>
      </trkpt>
      <trkpt lat="43.31338497810065746307373046875" lon="-1.65908499620854854583740234375">
        <ele>400.79998779296875</ele>
        <time>2020-08-23T10:32:12.000Z</time>
      </trkpt>
      <trkpt lat="43.31342227756977081298828125" lon="-1.65915020741522312164306640625">
        <ele>400</ele>
        <time>2020-08-23T10:32:15.000Z</time>
      </trkpt>
      <trkpt lat="43.31342764198780059814453125" lon="-1.659173928201198577880859375">
        <ele>399.600006103515625</ele>
        <time>2020-08-23T10:32:16.000Z</time>
      </trkpt>
      <trkpt lat="43.313427977263927459716796875" lon="-1.65919044055044651031494140625">
        <ele>399.399993896484375</ele>
        <time>2020-08-23T10:32:17.000Z</time>
      </trkpt>
      <trkpt lat="43.31342085264623165130615234375" lon="-1.65921977721154689788818359375">
        <ele>398.79998779296875</ele>
        <time>2020-08-23T10:32:19.000Z</time>
      </trkpt>
      <trkpt lat="43.31341833807528018951416015625" lon="-1.6592418216168880462646484375">
        <ele>398.600006103515625</ele>
        <time>2020-08-23T10:32:21.000Z</time>
      </trkpt>
      <trkpt lat="43.313418924808502197265625" lon="-1.659242324531078338623046875">
        <ele>398.399993896484375</ele>
        <time>2020-08-23T10:32:23.000Z</time>
      </trkpt>
      <trkpt lat="43.313416577875614166259765625" lon="-1.6592317633330821990966796875">
        <ele>397.79998779296875</ele>
        <time>2020-08-23T10:32:36.000Z</time>
      </trkpt>
      <trkpt lat="43.313421271741390228271484375" lon="-1.659163869917392730712890625">
        <ele>398.399993896484375</ele>
        <time>2020-08-23T10:32:43.000Z</time>
      </trkpt>
      <trkpt lat="43.31344373524188995361328125" lon="-1.65911131538450717926025390625">
        <ele>399.20001220703125</ele>
        <time>2020-08-23T10:32:49.000Z</time>
      </trkpt>
      <trkpt lat="43.313453458249568939208984375" lon="-1.65911165066063404083251953125">
        <ele>399.20001220703125</ele>
        <time>2020-08-23T10:32:50.000Z</time>
      </trkpt>
      <trkpt lat="43.3134737424552440643310546875" lon="-1.65911860764026641845703125">
        <ele>399.600006103515625</ele>
        <time>2020-08-23T10:32:53.000Z</time>
      </trkpt>
      <trkpt lat="43.31349176354706287384033203125" lon="-1.659125648438930511474609375">
        <ele>399.79998779296875</ele>
        <time>2020-08-23T10:32:56.000Z</time>
      </trkpt>
      <trkpt lat="43.31349201500415802001953125" lon="-1.65912539698183536529541015625">
        <ele>400.20001220703125</ele>
        <time>2020-08-23T10:33:11.000Z</time>
      </trkpt>
      <trkpt lat="43.31353132613003253936767578125" lon="-1.65914702229201793670654296875">
        <ele>400.399993896484375</ele>
        <time>2020-08-23T10:33:19.000Z</time>
      </trkpt>
      <trkpt lat="43.313576169312000274658203125" lon="-1.6591680608689785003662109375">
        <ele>400.600006103515625</ele>
        <time>2020-08-23T10:33:24.000Z</time>
      </trkpt>
      <trkpt lat="43.31358966417610645294189453125" lon="-1.6591782867908477783203125">
        <ele>400.600006103515625</ele>
        <time>2020-08-23T10:33:27.000Z</time>
      </trkpt>
      <trkpt lat="43.3136187493801116943359375" lon="-1.65920133702456951141357421875">
        <ele>400.399993896484375</ele>
        <time>2020-08-23T10:33:35.000Z</time>
      </trkpt>
      <trkpt lat="43.31363878212869167327880859375" lon="-1.65922321379184722900390625">
        <ele>399.79998779296875</ele>
        <time>2020-08-23T10:33:42.000Z</time>
      </trkpt>
      <trkpt lat="43.3136397041380405426025390625" lon="-1.65922296233475208282470703125">
        <ele>399.600006103515625</ele>
        <time>2020-08-23T10:33:44.000Z</time>
      </trkpt>
      <trkpt lat="43.31366635859012603759765625" lon="-1.6592681407928466796875">
        <ele>398.79998779296875</ele>
        <time>2020-08-23T10:33:52.000Z</time>
      </trkpt>
      <trkpt lat="43.31367717124521732330322265625" lon="-1.65928700007498264312744140625">
        <ele>398.600006103515625</ele>
        <time>2020-08-23T10:33:55.000Z</time>
      </trkpt>
      <trkpt lat="43.31367951817810535430908203125" lon="-1.659293957054615020751953125">
        <ele>398.399993896484375</ele>
        <time>2020-08-23T10:33:56.000Z</time>
      </trkpt>
      <trkpt lat="43.31369376741349697113037109375" lon="-1.659329831600189208984375">
        <ele>397.399993896484375</ele>
        <time>2020-08-23T10:34:00.000Z</time>
      </trkpt>
      <trkpt lat="43.31369846127927303314208984375" lon="-1.65933628566563129425048828125">
        <ele>397.399993896484375</ele>
        <time>2020-08-23T10:34:01.000Z</time>
      </trkpt>
      <trkpt lat="43.31372511573135852813720703125" lon="-1.6593591682612895965576171875">
        <ele>396.20001220703125</ele>
        <time>2020-08-23T10:34:06.000Z</time>
      </trkpt>
      <trkpt lat="43.3137312345206737518310546875" lon="-1.6593633592128753662109375">
        <ele>396</ele>
        <time>2020-08-23T10:34:07.000Z</time>
      </trkpt>
      <trkpt lat="43.31375394947826862335205078125" lon="-1.6593789495527744293212890625">
        <ele>395.399993896484375</ele>
        <time>2020-08-23T10:34:11.000Z</time>
      </trkpt>
      <trkpt lat="43.31377674825489521026611328125" lon="-1.65938925929367542266845703125">
        <ele>394.399993896484375</ele>
        <time>2020-08-23T10:34:15.000Z</time>
      </trkpt>
      <trkpt lat="43.313783369958400726318359375" lon="-1.65939009748399257659912109375">
        <ele>394</ele>
        <time>2020-08-23T10:34:16.000Z</time>
      </trkpt>
      <trkpt lat="43.31381320953369140625" lon="-1.6593913547694683074951171875">
        <ele>392.79998779296875</ele>
        <time>2020-08-23T10:34:21.000Z</time>
      </trkpt>
      <trkpt lat="43.31383089534938335418701171875" lon="-1.6593846492469310760498046875">
        <ele>392.20001220703125</ele>
        <time>2020-08-23T10:34:24.000Z</time>
      </trkpt>
      <trkpt lat="43.31384045071899890899658203125" lon="-1.65938255377113819122314453125">
        <ele>391.79998779296875</ele>
        <time>2020-08-23T10:34:26.000Z</time>
      </trkpt>
      <trkpt lat="43.3138717152178287506103515625" lon="-1.6593923605978488922119140625">
        <ele>391</ele>
        <time>2020-08-23T10:34:32.000Z</time>
      </trkpt>
      <trkpt lat="43.3138784207403659820556640625" lon="-1.659388840198516845703125">
        <ele>390.600006103515625</ele>
        <time>2020-08-23T10:34:33.000Z</time>
      </trkpt>
      <trkpt lat="43.313904069364070892333984375" lon="-1.65939076803624629974365234375">
        <ele>389.600006103515625</ele>
        <time>2020-08-23T10:34:38.000Z</time>
      </trkpt>
      <trkpt lat="43.3139431290328502655029296875" lon="-1.65936805307865142822265625">
        <ele>388.399993896484375</ele>
        <time>2020-08-23T10:34:44.000Z</time>
      </trkpt>
      <trkpt lat="43.3139702863991260528564453125" lon="-1.65934257209300994873046875">
        <ele>388.20001220703125</ele>
        <time>2020-08-23T10:34:48.000Z</time>
      </trkpt>
      <trkpt lat="43.3139954321086406707763671875" lon="-1.65933318436145782470703125">
        <ele>387.399993896484375</ele>
        <time>2020-08-23T10:34:52.000Z</time>
      </trkpt>
      <trkpt lat="43.314025104045867919921875" lon="-1.65931868366897106170654296875">
        <ele>386.79998779296875</ele>
        <time>2020-08-23T10:34:56.000Z</time>
      </trkpt>
      <trkpt lat="43.31404589116573333740234375" lon="-1.65929873473942279815673828125">
        <ele>386.20001220703125</ele>
        <time>2020-08-23T10:34:59.000Z</time>
      </trkpt>
      <trkpt lat="43.31408319063484668731689453125" lon="-1.65927283465862274169921875">
        <ele>385.20001220703125</ele>
        <time>2020-08-23T10:35:04.000Z</time>
      </trkpt>
      <trkpt lat="43.314097188413143157958984375" lon="-1.6592632792890071868896484375">
        <ele>384.600006103515625</ele>
        <time>2020-08-23T10:35:06.000Z</time>
      </trkpt>
      <trkpt lat="43.31412057392299175262451171875" lon="-1.6592438332736492156982421875">
        <ele>384</ele>
        <time>2020-08-23T10:35:10.000Z</time>
      </trkpt>
      <trkpt lat="43.31412510015070438385009765625" lon="-1.6592377983033657073974609375">
        <ele>383.79998779296875</ele>
        <time>2020-08-23T10:35:13.000Z</time>
      </trkpt>
      <trkpt lat="43.31416415981948375701904296875" lon="-1.65921525098383426666259765625">
        <ele>383</ele>
        <time>2020-08-23T10:35:20.000Z</time>
      </trkpt>
      <trkpt lat="43.3141712844371795654296875" lon="-1.6592077910900115966796875">
        <ele>382.600006103515625</ele>
        <time>2020-08-23T10:35:21.000Z</time>
      </trkpt>
      <trkpt lat="43.3142002858221530914306640625" lon="-1.65917635895311832427978515625">
        <ele>381.79998779296875</ele>
        <time>2020-08-23T10:35:25.000Z</time>
      </trkpt>
      <trkpt lat="43.314238674938678741455078125" lon="-1.6591476090252399444580078125">
        <ele>381</ele>
        <time>2020-08-23T10:35:30.000Z</time>
      </trkpt>
      <trkpt lat="43.31424680538475513458251953125" lon="-1.65914031676948070526123046875">
        <ele>380.79998779296875</ele>
        <time>2020-08-23T10:35:31.000Z</time>
      </trkpt>
      <trkpt lat="43.3142812550067901611328125" lon="-1.65911382995545864105224609375">
        <ele>379.600006103515625</ele>
        <time>2020-08-23T10:35:35.000Z</time>
      </trkpt>
      <trkpt lat="43.314305730164051055908203125" lon="-1.65908734314143657684326171875">
        <ele>379.20001220703125</ele>
        <time>2020-08-23T10:35:38.000Z</time>
      </trkpt>
      <trkpt lat="43.3143320493400096893310546875" lon="-1.65906001813709735870361328125">
        <ele>378.600006103515625</ele>
        <time>2020-08-23T10:35:42.000Z</time>
      </trkpt>
      <trkpt lat="43.31436247564852237701416015625" lon="-1.65903604589402675628662109375">
        <ele>377.600006103515625</ele>
        <time>2020-08-23T10:35:46.000Z</time>
      </trkpt>
      <trkpt lat="43.31438544206321239471435546875" lon="-1.65902045555412769317626953125">
        <ele>376.79998779296875</ele>
        <time>2020-08-23T10:35:49.000Z</time>
      </trkpt>
      <trkpt lat="43.31439147703349590301513671875" lon="-1.65901760570704936981201171875">
        <ele>376.399993896484375</ele>
        <time>2020-08-23T10:35:50.000Z</time>
      </trkpt>
      <trkpt lat="43.31441611982882022857666015625" lon="-1.6590039432048797607421875">
        <ele>375.79998779296875</ele>
        <time>2020-08-23T10:35:57.000Z</time>
      </trkpt>
      <trkpt lat="43.31444310955703258514404296875" lon="-1.65897083468735218048095703125">
        <ele>375.600006103515625</ele>
        <time>2020-08-23T10:36:02.000Z</time>
      </trkpt>
      <trkpt lat="43.31446255557239055633544921875" lon="-1.65895373560488224029541015625">
        <ele>375.399993896484375</ele>
        <time>2020-08-23T10:36:05.000Z</time>
      </trkpt>
      <trkpt lat="43.31452592276036739349365234375" lon="-1.65887611918151378631591796875">
        <ele>374.600006103515625</ele>
        <time>2020-08-23T10:36:14.000Z</time>
      </trkpt>
      <trkpt lat="43.31457026302814483642578125" lon="-1.65883638896048069000244140625">
        <ele>373.399993896484375</ele>
        <time>2020-08-23T10:36:22.000Z</time>
      </trkpt>
      <trkpt lat="43.31457487307488918304443359375" lon="-1.65883362293243408203125">
        <ele>373.20001220703125</ele>
        <time>2020-08-23T10:36:23.000Z</time>
      </trkpt>
      <trkpt lat="43.3145979233086109161376953125" lon="-1.65881895460188388824462890625">
        <ele>372.399993896484375</ele>
        <time>2020-08-23T10:36:28.000Z</time>
      </trkpt>
      <trkpt lat="43.314615190029144287109375" lon="-1.6588036157190799713134765625">
        <ele>371.600006103515625</ele>
        <time>2020-08-23T10:36:32.000Z</time>
      </trkpt>
      <trkpt lat="43.31461963243782520294189453125" lon="-1.6587999276816844940185546875">
        <ele>371.399993896484375</ele>
        <time>2020-08-23T10:36:33.000Z</time>
      </trkpt>
      <trkpt lat="43.314653746783733367919921875" lon="-1.65878375060856342315673828125">
        <ele>370.399993896484375</ele>
        <time>2020-08-23T10:36:39.000Z</time>
      </trkpt>
      <trkpt lat="43.314659111201763153076171875" lon="-1.6587821580469608306884765625">
        <ele>370.20001220703125</ele>
        <time>2020-08-23T10:36:40.000Z</time>
      </trkpt>
      <trkpt lat="43.314687274396419525146484375" lon="-1.658753491938114166259765625">
        <ele>369</ele>
        <time>2020-08-23T10:36:44.000Z</time>
      </trkpt>
      <trkpt lat="43.31470906734466552734375" lon="-1.6587301902472972869873046875">
        <ele>368.20001220703125</ele>
        <time>2020-08-23T10:36:47.000Z</time>
      </trkpt>
      <trkpt lat="43.3147226460278034210205078125" lon="-1.6587169468402862548828125">
        <ele>367.79998779296875</ele>
        <time>2020-08-23T10:36:49.000Z</time>
      </trkpt>
      <trkpt lat="43.314739577472209930419921875" lon="-1.65868350304663181304931640625">
        <ele>367.20001220703125</ele>
        <time>2020-08-23T10:36:54.000Z</time>
      </trkpt>
      <trkpt lat="43.31474837847054004669189453125" lon="-1.65867478586733341217041015625">
        <ele>366.79998779296875</ele>
        <time>2020-08-23T10:36:59.000Z</time>
      </trkpt>
      <trkpt lat="43.31477084197103977203369140625" lon="-1.65865601040422916412353515625">
        <ele>366.399993896484375</ele>
        <time>2020-08-23T10:37:02.000Z</time>
      </trkpt>
      <trkpt lat="43.31481308676302433013916015625" lon="-1.6586016118526458740234375">
        <ele>365.600006103515625</ele>
        <time>2020-08-23T10:37:08.000Z</time>
      </trkpt>
      <trkpt lat="43.31483236514031887054443359375" lon="-1.65857219137251377105712890625">
        <ele>365.399993896484375</ele>
        <time>2020-08-23T10:37:11.000Z</time>
      </trkpt>
      <trkpt lat="43.31486270762979984283447265625" lon="-1.6585531644523143768310546875">
        <ele>365</ele>
        <time>2020-08-23T10:37:19.000Z</time>
      </trkpt>
      <trkpt lat="43.31486689858138561248779296875" lon="-1.65855190716683864593505859375">
        <ele>365</ele>
        <time>2020-08-23T10:37:20.000Z</time>
      </trkpt>
      <trkpt lat="43.31487276591360569000244140625" lon="-1.6585478000342845916748046875">
        <ele>364.600006103515625</ele>
        <time>2020-08-23T10:37:22.000Z</time>
      </trkpt>
      <trkpt lat="43.31490553915500640869140625" lon="-1.6585112549364566802978515625">
        <ele>364</ele>
        <time>2020-08-23T10:37:27.000Z</time>
      </trkpt>
      <trkpt lat="43.3149134181439876556396484375" lon="-1.658498011529445648193359375">
        <ele>363.600006103515625</ele>
        <time>2020-08-23T10:37:33.000Z</time>
      </trkpt>
      <trkpt lat="43.314915932714939117431640625" lon="-1.65849641896784305572509765625">
        <ele>363.399993896484375</ele>
        <time>2020-08-23T10:37:35.000Z</time>
      </trkpt>
      <trkpt lat="43.31494904123246669769287109375" lon="-1.658492982387542724609375">
        <ele>363</ele>
        <time>2020-08-23T10:37:43.000Z</time>
      </trkpt>
      <trkpt lat="43.3149647153913974761962890625" lon="-1.6584857739508152008056640625">
        <ele>362.399993896484375</ele>
        <time>2020-08-23T10:37:46.000Z</time>
      </trkpt>
      <trkpt lat="43.3149985782802104949951171875" lon="-1.65845786221325397491455078125">
        <ele>361.600006103515625</ele>
        <time>2020-08-23T10:37:51.000Z</time>
      </trkpt>
      <trkpt lat="43.31500603817403316497802734375" lon="-1.65845341980457305908203125">
        <ele>361.399993896484375</ele>
        <time>2020-08-23T10:37:52.000Z</time>
      </trkpt>
      <trkpt lat="43.3150455169379711151123046875" lon="-1.65842391550540924072265625">
        <ele>360.399993896484375</ele>
        <time>2020-08-23T10:37:59.000Z</time>
      </trkpt>
      <trkpt lat="43.31505171954631805419921875" lon="-1.65841846726834774017333984375">
        <ele>360.20001220703125</ele>
        <time>2020-08-23T10:38:00.000Z</time>
      </trkpt>
      <trkpt lat="43.31508164294064044952392578125" lon="-1.658390723168849945068359375">
        <ele>359.20001220703125</ele>
        <time>2020-08-23T10:38:05.000Z</time>
      </trkpt>
      <trkpt lat="43.315101005136966705322265625" lon="-1.65837521664798259735107421875">
        <ele>358.600006103515625</ele>
        <time>2020-08-23T10:38:08.000Z</time>
      </trkpt>
      <trkpt lat="43.3151102252304553985595703125" lon="-1.65836633183062076568603515625">
        <ele>358.20001220703125</ele>
        <time>2020-08-23T10:38:16.000Z</time>
      </trkpt>
      <trkpt lat="43.3151263184845447540283203125" lon="-1.65835124440491199493408203125">
        <ele>358</ele>
        <time>2020-08-23T10:38:19.000Z</time>
      </trkpt>
      <trkpt lat="43.31515976227819919586181640625" lon="-1.6583359055221080780029296875">
        <ele>356.600006103515625</ele>
        <time>2020-08-23T10:38:25.000Z</time>
      </trkpt>
      <trkpt lat="43.3152004145085811614990234375" lon="-1.65831168182194232940673828125">
        <ele>355.600006103515625</ele>
        <time>2020-08-23T10:38:32.000Z</time>
      </trkpt>
      <trkpt lat="43.3152128197252750396728515625" lon="-1.6583020426332950592041015625">
        <ele>355.20001220703125</ele>
        <time>2020-08-23T10:38:34.000Z</time>
      </trkpt>
      <trkpt lat="43.31523737870156764984130859375" lon="-1.65827798657119274139404296875">
        <ele>354.399993896484375</ele>
        <time>2020-08-23T10:38:38.000Z</time>
      </trkpt>
      <trkpt lat="43.31526839174330234527587890625" lon="-1.65823255665600299835205078125">
        <ele>353.600006103515625</ele>
        <time>2020-08-23T10:38:44.000Z</time>
      </trkpt>
      <trkpt lat="43.31527476198971271514892578125" lon="-1.6582245938479900360107421875">
        <ele>353.399993896484375</ele>
        <time>2020-08-23T10:38:45.000Z</time>
      </trkpt>
      <trkpt lat="43.31530091352760791778564453125" lon="-1.65821067988872528076171875">
        <ele>352.399993896484375</ele>
        <time>2020-08-23T10:38:50.000Z</time>
      </trkpt>
      <trkpt lat="43.31530921161174774169921875" lon="-1.65821830742061138153076171875">
        <ele>352.20001220703125</ele>
        <time>2020-08-23T10:38:52.000Z</time>
      </trkpt>
      <trkpt lat="43.315337710082530975341796875" lon="-1.65821914561092853546142578125">
        <ele>351.20001220703125</ele>
        <time>2020-08-23T10:38:57.000Z</time>
      </trkpt>
      <trkpt lat="43.315350115299224853515625" lon="-1.65821428410708904266357421875">
        <ele>350.79998779296875</ele>
        <time>2020-08-23T10:39:00.000Z</time>
      </trkpt>
      <trkpt lat="43.31535455770790576934814453125" lon="-1.658200286328792572021484375">
        <ele>350.20001220703125</ele>
        <time>2020-08-23T10:39:03.000Z</time>
      </trkpt>
      <trkpt lat="43.31537417136132717132568359375" lon="-1.65818109177052974700927734375">
        <ele>349.79998779296875</ele>
        <time>2020-08-23T10:39:07.000Z</time>
      </trkpt>
      <trkpt lat="43.31539579667150974273681640625" lon="-1.65817849338054656982421875">
        <ele>349.20001220703125</ele>
        <time>2020-08-23T10:39:11.000Z</time>
      </trkpt>
      <trkpt lat="43.31542178057134151458740234375" lon="-1.65816198103129863739013671875">
        <ele>348.20001220703125</ele>
        <time>2020-08-23T10:39:16.000Z</time>
      </trkpt>
      <trkpt lat="43.31542898900806903839111328125" lon="-1.658155359327793121337890625">
        <ele>348</ele>
        <time>2020-08-23T10:39:17.000Z</time>
      </trkpt>
      <trkpt lat="43.3154686354100704193115234375" lon="-1.6581085883080959320068359375">
        <ele>347</ele>
        <time>2020-08-23T10:39:24.000Z</time>
      </trkpt>
      <trkpt lat="43.3154729939997196197509765625" lon="-1.65810464881360530853271484375">
        <ele>346.79998779296875</ele>
        <time>2020-08-23T10:39:25.000Z</time>
      </trkpt>
      <trkpt lat="43.3155118860304355621337890625" lon="-1.65807799436151981353759765625">
        <ele>346</ele>
        <time>2020-08-23T10:39:32.000Z</time>
      </trkpt>
      <trkpt lat="43.31551264040172100067138671875" lon="-1.65807682089507579803466796875">
        <ele>345.79998779296875</ele>
        <time>2020-08-23T10:39:33.000Z</time>
      </trkpt>
      <trkpt lat="43.31550979055464267730712890625" lon="-1.65809224359691143035888671875">
        <ele>345.20001220703125</ele>
        <time>2020-08-23T10:39:38.000Z</time>
      </trkpt>
      <trkpt lat="43.3155283145606517791748046875" lon="-1.65808905847370624542236328125">
        <ele>344.79998779296875</ele>
        <time>2020-08-23T10:39:45.000Z</time>
      </trkpt>
      <trkpt lat="43.3155611716210842132568359375" lon="-1.6580609790980815887451171875">
        <ele>343.79998779296875</ele>
        <time>2020-08-23T10:39:51.000Z</time>
      </trkpt>
      <trkpt lat="43.3155628480017185211181640625" lon="-1.65805871598422527313232421875">
        <ele>343.600006103515625</ele>
        <time>2020-08-23T10:39:52.000Z</time>
      </trkpt>
      <trkpt lat="43.31558413803577423095703125" lon="-1.65805670432746410369873046875">
        <ele>342.79998779296875</ele>
        <time>2020-08-23T10:40:01.000Z</time>
      </trkpt>
      <trkpt lat="43.31559210084378719329833984375" lon="-1.6580566205084323883056640625">
        <ele>342.79998779296875</ele>
        <time>2020-08-23T10:40:02.000Z</time>
      </trkpt>
      <trkpt lat="43.3156392909586429595947265625" lon="-1.6580207459628582000732421875">
        <ele>341.600006103515625</ele>
        <time>2020-08-23T10:40:10.000Z</time>
      </trkpt>
      <trkpt lat="43.3156641013920307159423828125" lon="-1.657997108995914459228515625">
        <ele>340.600006103515625</ele>
        <time>2020-08-23T10:40:18.000Z</time>
      </trkpt>
      <trkpt lat="43.315664939582347869873046875" lon="-1.65799769572913646697998046875">
        <ele>340.600006103515625</ele>
        <time>2020-08-23T10:40:20.000Z</time>
      </trkpt>
      <trkpt lat="43.3156845532357692718505859375" lon="-1.65797674097120761871337890625">
        <ele>340.399993896484375</ele>
        <time>2020-08-23T10:40:27.000Z</time>
      </trkpt>
      <trkpt lat="43.31572017632424831390380859375" lon="-1.65795142762362957000732421875">
        <ele>340.399993896484375</ele>
        <time>2020-08-23T10:40:33.000Z</time>
      </trkpt>
      <trkpt lat="43.31573593430221080780029296875" lon="-1.6579362563788890838623046875">
        <ele>340</ele>
        <time>2020-08-23T10:40:40.000Z</time>
      </trkpt>
      <trkpt lat="43.3157690428197383880615234375" lon="-1.6579134576022624969482421875">
        <ele>339.600006103515625</ele>
        <time>2020-08-23T10:40:50.000Z</time>
      </trkpt>
      <trkpt lat="43.31581489183008670806884765625" lon="-1.6578899882733821868896484375">
        <ele>338.600006103515625</ele>
        <time>2020-08-23T10:40:58.000Z</time>
      </trkpt>
      <trkpt lat="43.31582008861005306243896484375" lon="-1.657887138426303863525390625">
        <ele>338.600006103515625</ele>
        <time>2020-08-23T10:40:59.000Z</time>
      </trkpt>
      <trkpt lat="43.31586753018200397491455078125" lon="-1.65784849785268306732177734375">
        <ele>338</ele>
        <time>2020-08-23T10:41:06.000Z</time>
      </trkpt>
      <trkpt lat="43.31589125096797943115234375" lon="-1.6578393615782260894775390625">
        <ele>337.600006103515625</ele>
        <time>2020-08-23T10:41:09.000Z</time>
      </trkpt>
      <trkpt lat="43.31591798923909664154052734375" lon="-1.65783290751278400421142578125">
        <ele>336.399993896484375</ele>
        <time>2020-08-23T10:41:14.000Z</time>
      </trkpt>
      <trkpt lat="43.31592435948550701141357421875" lon="-1.65783324278891086578369140625">
        <ele>336.399993896484375</ele>
        <time>2020-08-23T10:41:15.000Z</time>
      </trkpt>
      <trkpt lat="43.31596643663942813873291015625" lon="-1.65780809707939624786376953125">
        <ele>335.399993896484375</ele>
        <time>2020-08-23T10:41:21.000Z</time>
      </trkpt>
      <trkpt lat="43.315980099141597747802734375" lon="-1.6577974520623683929443359375">
        <ele>335.399993896484375</ele>
        <time>2020-08-23T10:41:23.000Z</time>
      </trkpt>
      <trkpt lat="43.31601253710687160491943359375" lon="-1.65776937268674373626708984375">
        <ele>334.600006103515625</ele>
        <time>2020-08-23T10:41:28.000Z</time>
      </trkpt>
      <trkpt lat="43.3160164766013622283935546875" lon="-1.6577649302780628204345703125">
        <ele>334.399993896484375</ele>
        <time>2020-08-23T10:41:29.000Z</time>
      </trkpt>
      <trkpt lat="43.3160546980798244476318359375" lon="-1.65773383341729640960693359375">
        <ele>334</ele>
        <time>2020-08-23T10:41:36.000Z</time>
      </trkpt>
      <trkpt lat="43.31609283573925495147705078125" lon="-1.65770483203232288360595703125">
        <ele>333.79998779296875</ele>
        <time>2020-08-23T10:41:44.000Z</time>
      </trkpt>
      <trkpt lat="43.31610272638499736785888671875" lon="-1.657693348824977874755859375">
        <ele>333.20001220703125</ele>
        <time>2020-08-23T10:41:48.000Z</time>
      </trkpt>
      <trkpt lat="43.31610708497464656829833984375" lon="-1.65769058279693126678466796875">
        <ele>332.79998779296875</ele>
        <time>2020-08-23T10:41:51.000Z</time>
      </trkpt>
      <trkpt lat="43.31612116657197475433349609375" lon="-1.65768639184534549713134765625">
        <ele>332.20001220703125</ele>
        <time>2020-08-23T10:41:57.000Z</time>
      </trkpt>
      <trkpt lat="43.31612267531454563140869140625" lon="-1.6576861403882503509521484375">
        <ele>332.20001220703125</ele>
        <time>2020-08-23T10:41:58.000Z</time>
      </trkpt>
      <trkpt lat="43.31615184433758258819580078125" lon="-1.6576844640076160430908203125">
        <ele>332</ele>
        <time>2020-08-23T10:42:04.000Z</time>
      </trkpt>
      <trkpt lat="43.31616081297397613525390625" lon="-1.65768220089375972747802734375">
        <ele>331.79998779296875</ele>
        <time>2020-08-23T10:42:11.000Z</time>
      </trkpt>
      <trkpt lat="43.31616760231554508209228515625" lon="-1.6576804406940937042236328125">
        <ele>331.600006103515625</ele>
        <time>2020-08-23T10:42:23.000Z</time>
      </trkpt>
      <trkpt lat="43.31617288291454315185546875" lon="-1.65767415426671504974365234375">
        <ele>331.20001220703125</ele>
        <time>2020-08-23T10:42:30.000Z</time>
      </trkpt>
      <trkpt lat="43.31618989817798137664794921875" lon="-1.6576687060296535491943359375">
        <ele>330.79998779296875</ele>
        <time>2020-08-23T10:42:34.000Z</time>
      </trkpt>
      <trkpt lat="43.316225521266460418701171875" lon="-1.6576730646193027496337890625">
        <ele>330.399993896484375</ele>
        <time>2020-08-23T10:42:41.000Z</time>
      </trkpt>
      <trkpt lat="43.3162310533225536346435546875" lon="-1.6576764173805713653564453125">
        <ele>330.20001220703125</ele>
        <time>2020-08-23T10:42:42.000Z</time>
      </trkpt>
      <trkpt lat="43.3162649162113666534423828125" lon="-1.65769410319626331329345703125">
        <ele>329.399993896484375</ele>
        <time>2020-08-23T10:42:50.000Z</time>
      </trkpt>
      <trkpt lat="43.31627455540001392364501953125" lon="-1.65769728831946849822998046875">
        <ele>329.20001220703125</ele>
        <time>2020-08-23T10:42:52.000Z</time>
      </trkpt>
      <trkpt lat="43.31631495617330074310302734375" lon="-1.65770701132714748382568359375">
        <ele>328.20001220703125</ele>
        <time>2020-08-23T10:42:58.000Z</time>
      </trkpt>
      <trkpt lat="43.31632367335259914398193359375" lon="-1.65770768187940120697021484375">
        <ele>328</ele>
        <time>2020-08-23T10:42:59.000Z</time>
      </trkpt>
      <trkpt lat="43.3163862861692905426025390625" lon="-1.6576977074146270751953125">
        <ele>326.79998779296875</ele>
        <time>2020-08-23T10:43:07.000Z</time>
      </trkpt>
      <trkpt lat="43.31643615849316120147705078125" lon="-1.6576787643134593963623046875">
        <ele>325.79998779296875</ele>
        <time>2020-08-23T10:43:14.000Z</time>
      </trkpt>
      <trkpt lat="43.31644537858664989471435546875" lon="-1.65767247788608074188232421875">
        <ele>325.600006103515625</ele>
        <time>2020-08-23T10:43:15.000Z</time>
      </trkpt>
      <trkpt lat="43.31651075743138790130615234375" lon="-1.65763190947473049163818359375">
        <ele>324.600006103515625</ele>
        <time>2020-08-23T10:43:23.000Z</time>
      </trkpt>
      <trkpt lat="43.31653925590217113494873046875" lon="-1.65765051729977130889892578125">
        <ele>323.600006103515625</ele>
        <time>2020-08-23T10:43:29.000Z</time>
      </trkpt>
      <trkpt lat="43.31654562614858150482177734375" lon="-1.65765286423265933990478515625">
        <ele>323.399993896484375</ele>
        <time>2020-08-23T10:43:30.000Z</time>
      </trkpt>
      <trkpt lat="43.3166147768497467041015625" lon="-1.65762537159025669097900390625">
        <ele>322.600006103515625</ele>
        <time>2020-08-23T10:43:38.000Z</time>
      </trkpt>
      <trkpt lat="43.316620476543903350830078125" lon="-1.65762403048574924468994140625">
        <ele>322.399993896484375</ele>
        <time>2020-08-23T10:43:39.000Z</time>
      </trkpt>
      <trkpt lat="43.3166615478694438934326171875" lon="-1.65760793723165988922119140625">
        <ele>321.399993896484375</ele>
        <time>2020-08-23T10:43:45.000Z</time>
      </trkpt>
      <trkpt lat="43.31667001359164714813232421875" lon="-1.6576026566326618194580078125">
        <ele>321.20001220703125</ele>
        <time>2020-08-23T10:43:46.000Z</time>
      </trkpt>
      <trkpt lat="43.31670873798429965972900390625" lon="-1.657581031322479248046875">
        <ele>320.399993896484375</ele>
        <time>2020-08-23T10:43:53.000Z</time>
      </trkpt>
      <trkpt lat="43.3167175389826297760009765625" lon="-1.65757960639894008636474609375">
        <ele>320.399993896484375</ele>
        <time>2020-08-23T10:43:54.000Z</time>
      </trkpt>
      <trkpt lat="43.31672583706676959991455078125" lon="-1.6575741581618785858154296875">
        <ele>320.399993896484375</ele>
        <time>2020-08-23T10:43:55.000Z</time>
      </trkpt>
      <trkpt lat="43.3167668245732784271240234375" lon="-1.65755479596555233001708984375">
        <ele>319.20001220703125</ele>
        <time>2020-08-23T10:44:00.000Z</time>
      </trkpt>
      <trkpt lat="43.31680588424205780029296875" lon="-1.65755663998425006866455078125">
        <ele>318.20001220703125</ele>
        <time>2020-08-23T10:44:05.000Z</time>
      </trkpt>
      <trkpt lat="43.31681569106876850128173828125" lon="-1.6575580649077892303466796875">
        <ele>318</ele>
        <time>2020-08-23T10:44:07.000Z</time>
      </trkpt>
      <trkpt lat="43.31684611737728118896484375" lon="-1.65757759474217891693115234375">
        <ele>317.20001220703125</ele>
        <time>2020-08-23T10:44:13.000Z</time>
      </trkpt>
      <trkpt lat="43.31686698831617832183837890625" lon="-1.65758178569376468658447265625">
        <ele>317</ele>
        <time>2020-08-23T10:44:16.000Z</time>
      </trkpt>
      <trkpt lat="43.3169190399348735809326171875" lon="-1.65757223032414913177490234375">
        <ele>316.20001220703125</ele>
        <time>2020-08-23T10:44:22.000Z</time>
      </trkpt>
      <trkpt lat="43.316953070461750030517578125" lon="-1.657565273344516754150390625">
        <ele>315.20001220703125</ele>
        <time>2020-08-23T10:44:26.000Z</time>
      </trkpt>
      <trkpt lat="43.31696857698261737823486328125" lon="-1.6575590707361698150634765625">
        <ele>315</ele>
        <time>2020-08-23T10:44:28.000Z</time>
      </trkpt>
      <trkpt lat="43.317002356052398681640625" lon="-1.65757633745670318603515625">
        <ele>314.20001220703125</ele>
        <time>2020-08-23T10:44:34.000Z</time>
      </trkpt>
      <trkpt lat="43.31700629554688930511474609375" lon="-1.65758346207439899444580078125">
        <ele>314.20001220703125</ele>
        <time>2020-08-23T10:44:35.000Z</time>
      </trkpt>
      <trkpt lat="43.3170246519148349761962890625" lon="-1.657606847584247589111328125">
        <ele>313</ele>
        <time>2020-08-23T10:44:41.000Z</time>
      </trkpt>
      <trkpt lat="43.317048288881778717041015625" lon="-1.65761631913483142852783203125">
        <ele>312.399993896484375</ele>
        <time>2020-08-23T10:44:48.000Z</time>
      </trkpt>
      <trkpt lat="43.3170732669532299041748046875" lon="-1.6576221026480197906494140625">
        <ele>312.20001220703125</ele>
        <time>2020-08-23T10:44:58.000Z</time>
      </trkpt>
      <trkpt lat="43.31708139739930629730224609375" lon="-1.657627634704113006591796875">
        <ele>311.79998779296875</ele>
        <time>2020-08-23T10:45:00.000Z</time>
      </trkpt>
      <trkpt lat="43.317104615271091461181640625" lon="-1.65762461721897125244140625">
        <ele>311.399993896484375</ele>
        <time>2020-08-23T10:45:05.000Z</time>
      </trkpt>
      <trkpt lat="43.31715968437492847442626953125" lon="-1.6575942747294902801513671875">
        <ele>310.79998779296875</ele>
        <time>2020-08-23T10:45:12.000Z</time>
      </trkpt>
      <trkpt lat="43.317173682153224945068359375" lon="-1.6575875692069530487060546875">
        <ele>310.600006103515625</ele>
        <time>2020-08-23T10:45:14.000Z</time>
      </trkpt>
      <trkpt lat="43.3172248117625713348388671875" lon="-1.65758128277957439422607421875">
        <ele>309.600006103515625</ele>
        <time>2020-08-23T10:45:20.000Z</time>
      </trkpt>
      <trkpt lat="43.31724165938794612884521484375" lon="-1.65757834911346435546875">
        <ele>309.600006103515625</ele>
        <time>2020-08-23T10:45:22.000Z</time>
      </trkpt>
      <trkpt lat="43.31728423945605754852294921875" lon="-1.657571978867053985595703125">
        <ele>308.600006103515625</ele>
        <time>2020-08-23T10:45:27.000Z</time>
      </trkpt>
      <trkpt lat="43.3173156715929508209228515625" lon="-1.65756787173449993133544921875">
        <ele>308.20001220703125</ele>
        <time>2020-08-23T10:45:31.000Z</time>
      </trkpt>
      <trkpt lat="43.3173508755862712860107421875" lon="-1.65756200440227985382080078125">
        <ele>307.600006103515625</ele>
        <time>2020-08-23T10:45:35.000Z</time>
      </trkpt>
      <trkpt lat="43.31738465465605258941650390625" lon="-1.6575540415942668914794921875">
        <ele>307</ele>
        <time>2020-08-23T10:45:39.000Z</time>
      </trkpt>
      <trkpt lat="43.3174105547368526458740234375" lon="-1.65755328722298145294189453125">
        <ele>306.399993896484375</ele>
        <time>2020-08-23T10:45:42.000Z</time>
      </trkpt>
      <trkpt lat="43.31746495328843593597412109375" lon="-1.6575600765645503997802734375">
        <ele>305.399993896484375</ele>
        <time>2020-08-23T10:45:48.000Z</time>
      </trkpt>
      <trkpt lat="43.31753251142799854278564453125" lon="-1.65756166912615299224853515625">
        <ele>304</ele>
        <time>2020-08-23T10:45:56.000Z</time>
      </trkpt>
      <trkpt lat="43.3176019974052906036376953125" lon="-1.6575634293258190155029296875">
        <ele>303</ele>
        <time>2020-08-23T10:46:04.000Z</time>
      </trkpt>
      <trkpt lat="43.317610211670398712158203125" lon="-1.6575661115348339080810546875">
        <ele>302.79998779296875</ele>
        <time>2020-08-23T10:46:05.000Z</time>
      </trkpt>
      <trkpt lat="43.31764499656856060028076171875" lon="-1.657573319971561431884765625">
        <ele>301.600006103515625</ele>
        <time>2020-08-23T10:46:09.000Z</time>
      </trkpt>
      <trkpt lat="43.31768841482698917388916015625" lon="-1.6575811989605426788330078125">
        <ele>300.600006103515625</ele>
        <time>2020-08-23T10:46:14.000Z</time>
      </trkpt>
      <trkpt lat="43.31770299933850765228271484375" lon="-1.6575823724269866943359375">
        <ele>300.20001220703125</ele>
        <time>2020-08-23T10:46:16.000Z</time>
      </trkpt>
      <trkpt lat="43.31772311590611934661865234375" lon="-1.65757499635219573974609375">
        <ele>299.399993896484375</ele>
        <time>2020-08-23T10:46:19.000Z</time>
      </trkpt>
      <trkpt lat="43.3177599124610424041748046875" lon="-1.65756099857389926910400390625">
        <ele>298.600006103515625</ele>
        <time>2020-08-23T10:46:24.000Z</time>
      </trkpt>
      <trkpt lat="43.31776703707873821258544921875" lon="-1.6575610823929309844970703125">
        <ele>298.399993896484375</ele>
        <time>2020-08-23T10:46:25.000Z</time>
      </trkpt>
      <trkpt lat="43.31780609674751758575439453125" lon="-1.6575627587735652923583984375">
        <ele>297.399993896484375</ele>
        <time>2020-08-23T10:46:31.000Z</time>
      </trkpt>
      <trkpt lat="43.31786594353616237640380859375" lon="-1.65753115899860858917236328125">
        <ele>296.20001220703125</ele>
        <time>2020-08-23T10:46:38.000Z</time>
      </trkpt>
      <trkpt lat="43.3178754150867462158203125" lon="-1.65752671658992767333984375">
        <ele>296</ele>
        <time>2020-08-23T10:46:39.000Z</time>
      </trkpt>
      <trkpt lat="43.31789947114884853363037109375" lon="-1.6575215198099613189697265625">
        <ele>295</ele>
        <time>2020-08-23T10:46:42.000Z</time>
      </trkpt>
      <trkpt lat="43.317936100065708160400390625" lon="-1.65752076543867588043212890625">
        <ele>294.20001220703125</ele>
        <time>2020-08-23T10:46:47.000Z</time>
      </trkpt>
      <trkpt lat="43.31795512698590755462646484375" lon="-1.65753032080829143524169921875">
        <ele>293.600006103515625</ele>
        <time>2020-08-23T10:46:50.000Z</time>
      </trkpt>
      <trkpt lat="43.31797935068607330322265625" lon="-1.65754389949142932891845703125">
        <ele>293.20001220703125</ele>
        <time>2020-08-23T10:46:54.000Z</time>
      </trkpt>
      <trkpt lat="43.31799946725368499755859375" lon="-1.657561250030994415283203125">
        <ele>292.20001220703125</ele>
        <time>2020-08-23T10:46:57.000Z</time>
      </trkpt>
      <trkpt lat="43.31800675950944423675537109375" lon="-1.6575635969638824462890625">
        <ele>292</ele>
        <time>2020-08-23T10:46:58.000Z</time>
      </trkpt>
      <trkpt lat="43.31805177032947540283203125" lon="-1.6575607471168041229248046875">
        <ele>291</ele>
        <time>2020-08-23T10:47:04.000Z</time>
      </trkpt>
      <trkpt lat="43.318059481680393218994140625" lon="-1.6575630940496921539306640625">
        <ele>290.600006103515625</ele>
        <time>2020-08-23T10:47:05.000Z</time>
      </trkpt>
      <trkpt lat="43.31808974035084247589111328125" lon="-1.6575640998780727386474609375">
        <ele>289.79998779296875</ele>
        <time>2020-08-23T10:47:09.000Z</time>
      </trkpt>
      <trkpt lat="43.318112455308437347412109375" lon="-1.657555215060710906982421875">
        <ele>288.79998779296875</ele>
        <time>2020-08-23T10:47:13.000Z</time>
      </trkpt>
      <trkpt lat="43.31811823882162570953369140625" lon="-1.65754959918558597564697265625">
        <ele>288.600006103515625</ele>
        <time>2020-08-23T10:47:14.000Z</time>
      </trkpt>
      <trkpt lat="43.3181758224964141845703125" lon="-1.65751070715487003326416015625">
        <ele>288</ele>
        <time>2020-08-23T10:47:22.000Z</time>
      </trkpt>
      <trkpt lat="43.31819451414048671722412109375" lon="-1.657503582537174224853515625">
        <ele>287.20001220703125</ele>
        <time>2020-08-23T10:47:24.000Z</time>
      </trkpt>
      <trkpt lat="43.3182279579341411590576171875" lon="-1.65750064887106418609619140625">
        <ele>286.20001220703125</ele>
        <time>2020-08-23T10:47:28.000Z</time>
      </trkpt>
      <trkpt lat="43.3182524330914020538330078125" lon="-1.65749746374785900115966796875">
        <ele>285.600006103515625</ele>
        <time>2020-08-23T10:47:31.000Z</time>
      </trkpt>
      <trkpt lat="43.31826676614582538604736328125" lon="-1.6574967093765735626220703125">
        <ele>285.20001220703125</ele>
        <time>2020-08-23T10:47:33.000Z</time>
      </trkpt>
      <trkpt lat="43.3182911574840545654296875" lon="-1.65749796666204929351806640625">
        <ele>283.79998779296875</ele>
        <time>2020-08-23T10:47:37.000Z</time>
      </trkpt>
      <trkpt lat="43.31831588409841060638427734375" lon="-1.65749796666204929351806640625">
        <ele>283.20001220703125</ele>
        <time>2020-08-23T10:47:41.000Z</time>
      </trkpt>
      <trkpt lat="43.31832946278154850006103515625" lon="-1.65750198997557163238525390625">
        <ele>282.600006103515625</ele>
        <time>2020-08-23T10:47:43.000Z</time>
      </trkpt>
      <trkpt lat="43.31837237812578678131103515625" lon="-1.6575111262500286102294921875">
        <ele>281.399993896484375</ele>
        <time>2020-08-23T10:47:49.000Z</time>
      </trkpt>
      <trkpt lat="43.3183808438479900360107421875" lon="-1.65751338936388492584228515625">
        <ele>281</ele>
        <time>2020-08-23T10:47:50.000Z</time>
      </trkpt>
      <trkpt lat="43.3184056542813777923583984375" lon="-1.65751934051513671875">
        <ele>280.399993896484375</ele>
        <time>2020-08-23T10:47:53.000Z</time>
      </trkpt>
      <trkpt lat="43.318449072539806365966796875" lon="-1.65753283537924289703369140625">
        <ele>279.20001220703125</ele>
        <time>2020-08-23T10:47:58.000Z</time>
      </trkpt>
      <trkpt lat="43.31845544278621673583984375" lon="-1.657535098493099212646484375">
        <ele>279</ele>
        <time>2020-08-23T10:47:59.000Z</time>
      </trkpt>
      <trkpt lat="43.3184743858873844146728515625" lon="-1.657535769045352935791015625">
        <ele>278.600006103515625</ele>
        <time>2020-08-23T10:48:02.000Z</time>
      </trkpt>
      <trkpt lat="43.31850506365299224853515625" lon="-1.65754892863333225250244140625">
        <ele>278.20001220703125</ele>
        <time>2020-08-23T10:48:05.000Z</time>
      </trkpt>
      <trkpt lat="43.31851386465132236480712890625" lon="-1.657554544508457183837890625">
        <ele>278</ele>
        <time>2020-08-23T10:48:06.000Z</time>
      </trkpt>
      <trkpt lat="43.31856113858520984649658203125" lon="-1.65760123170912265777587890625">
        <ele>277</ele>
        <time>2020-08-23T10:48:12.000Z</time>
      </trkpt>
      <trkpt lat="43.31858544610440731048583984375" lon="-1.657625623047351837158203125">
        <ele>276.600006103515625</ele>
        <time>2020-08-23T10:48:15.000Z</time>
      </trkpt>
      <trkpt lat="43.31861075945198535919189453125" lon="-1.6576656885445117950439453125">
        <ele>276</ele>
        <time>2020-08-23T10:48:19.000Z</time>
      </trkpt>
      <trkpt lat="43.31862282939255237579345703125" lon="-1.65769527666270732879638671875">
        <ele>275.600006103515625</ele>
        <time>2020-08-23T10:48:23.000Z</time>
      </trkpt>
      <trkpt lat="43.318625427782535552978515625" lon="-1.657695360481739044189453125">
        <ele>275</ele>
        <time>2020-08-23T10:48:35.000Z</time>
      </trkpt>
      <trkpt lat="43.3186252601444721221923828125" lon="-1.65769510902464389801025390625">
        <ele>274.79998779296875</ele>
        <time>2020-08-23T10:48:41.000Z</time>
      </trkpt>
      <trkpt lat="43.31863054074347019195556640625" lon="-1.65775872766971588134765625">
        <ele>275</ele>
        <time>2020-08-23T10:48:49.000Z</time>
      </trkpt>
      <trkpt lat="43.31859617494046688079833984375" lon="-1.65798529051244258880615234375">
        <ele>273.399993896484375</ele>
        <time>2020-08-23T10:48:54.000Z</time>
      </trkpt>
      <trkpt lat="43.31858444027602672576904296875" lon="-1.65803491137921810150146484375">
        <ele>272.79998779296875</ele>
        <time>2020-08-23T10:48:55.000Z</time>
      </trkpt>
      <trkpt lat="43.3185380883514881134033203125" lon="-1.65834168903529644012451171875">
        <ele>272.20001220703125</ele>
        <time>2020-08-23T10:49:01.000Z</time>
      </trkpt>
      <trkpt lat="43.318540938198566436767578125" lon="-1.6584103368222713470458984375">
        <ele>271.399993896484375</ele>
        <time>2020-08-23T10:49:02.000Z</time>
      </trkpt>
      <trkpt lat="43.31854663789272308349609375" lon="-1.6584763862192630767822265625">
        <ele>270.399993896484375</ele>
        <time>2020-08-23T10:49:03.000Z</time>
      </trkpt>
      <trkpt lat="43.3185823448002338409423828125" lon="-1.6586445271968841552734375">
        <ele>269.20001220703125</ele>
        <time>2020-08-23T10:49:06.000Z</time>
      </trkpt>
      <trkpt lat="43.31859231926500797271728515625" lon="-1.65869574062526226043701171875">
        <ele>269</ele>
        <time>2020-08-23T10:49:07.000Z</time>
      </trkpt>
      <trkpt lat="43.31861310638487339019775390625" lon="-1.658773608505725860595703125">
        <ele>268.399993896484375</ele>
        <time>2020-08-23T10:49:10.000Z</time>
      </trkpt>
      <trkpt lat="43.3186148665845394134521484375" lon="-1.65877235122025012969970703125">
        <ele>268.20001220703125</ele>
        <time>2020-08-23T10:49:11.000Z</time>
      </trkpt>
      <trkpt lat="43.3186162076890468597412109375" lon="-1.6587603650987148284912109375">
        <ele>267.600006103515625</ele>
        <time>2020-08-23T10:49:22.000Z</time>
      </trkpt>
      <trkpt lat="43.31861344166100025177001953125" lon="-1.65875357575714588165283203125">
        <ele>267.79998779296875</ele>
        <time>2020-08-23T10:49:25.000Z</time>
      </trkpt>
      <trkpt lat="43.3186014555394649505615234375" lon="-1.65873102843761444091796875">
        <ele>267.79998779296875</ele>
        <time>2020-08-23T10:49:28.000Z</time>
      </trkpt>
      <trkpt lat="43.31858863122761249542236328125" lon="-1.65862415917217731475830078125">
        <ele>268.399993896484375</ele>
        <time>2020-08-23T10:49:38.000Z</time>
      </trkpt>
      <trkpt lat="43.31856164149940013885498046875" lon="-1.65853916667401790618896484375">
        <ele>269</ele>
        <time>2020-08-23T10:49:48.000Z</time>
      </trkpt>
      <trkpt lat="43.31854261457920074462890625" lon="-1.65842936374247074127197265625">
        <ele>269</ele>
        <time>2020-08-23T10:49:55.000Z</time>
      </trkpt>
      <trkpt lat="43.3185360766947269439697265625" lon="-1.65841586887836456298828125">
        <ele>269.20001220703125</ele>
        <time>2020-08-23T10:49:56.000Z</time>
      </trkpt>
      <trkpt lat="43.31852626986801624298095703125" lon="-1.65838846005499362945556640625">
        <ele>269.399993896484375</ele>
        <time>2020-08-23T10:49:58.000Z</time>
      </trkpt>
      <trkpt lat="43.31851168535649776458740234375" lon="-1.65836599655449390411376953125">
        <ele>269.600006103515625</ele>
        <time>2020-08-23T10:50:00.000Z</time>
      </trkpt>
      <trkpt lat="43.31848821602761745452880859375" lon="-1.6583576984703540802001953125">
        <ele>269.600006103515625</ele>
        <time>2020-08-23T10:50:02.000Z</time>
      </trkpt>
      <trkpt lat="43.31845653243362903594970703125" lon="-1.6584093309938907623291015625">
        <ele>269</ele>
        <time>2020-08-23T10:50:08.000Z</time>
      </trkpt>
      <trkpt lat="43.3184485696256160736083984375" lon="-1.65844126604497432708740234375">
        <ele>268.20001220703125</ele>
        <time>2020-08-23T10:50:11.000Z</time>
      </trkpt>
      <trkpt lat="43.3184348233044147491455078125" lon="-1.6585015319287776947021484375">
        <ele>267.399993896484375</ele>
        <time>2020-08-23T10:50:16.000Z</time>
      </trkpt>
      <trkpt lat="43.31843490712344646453857421875" lon="-1.65851167403161525726318359375">
        <ele>267.20001220703125</ele>
        <time>2020-08-23T10:50:17.000Z</time>
      </trkpt>
      <trkpt lat="43.3184307999908924102783203125" lon="-1.65856112726032733917236328125">
        <ele>266.20001220703125</ele>
        <time>2020-08-23T10:50:21.000Z</time>
      </trkpt>
      <trkpt lat="43.31842585466802120208740234375" lon="-1.6585746221244335174560546875">
        <ele>266</ele>
        <time>2020-08-23T10:50:22.000Z</time>
      </trkpt>
      <trkpt lat="43.31843289546668529510498046875" lon="-1.65864058770239353179931640625">
        <ele>264.79998779296875</ele>
        <time>2020-08-23T10:50:27.000Z</time>
      </trkpt>
      <trkpt lat="43.31842753104865550994873046875" lon="-1.65866573341190814971923828125">
        <ele>264.20001220703125</ele>
        <time>2020-08-23T10:50:29.000Z</time>
      </trkpt>
      <trkpt lat="43.31840808503329753875732421875" lon="-1.65871501900255680084228515625">
        <ele>263.79998779296875</ele>
        <time>2020-08-23T10:50:33.000Z</time>
      </trkpt>
      <trkpt lat="43.31838159821927547454833984375" lon="-1.65875005535781383514404296875">
        <ele>263.20001220703125</ele>
        <time>2020-08-23T10:50:37.000Z</time>
      </trkpt>
      <trkpt lat="43.31837271340191364288330078125" lon="-1.65877469815313816070556640625">
        <ele>262.600006103515625</ele>
        <time>2020-08-23T10:50:40.000Z</time>
      </trkpt>
      <trkpt lat="43.31834756769239902496337890625" lon="-1.65881224907934665679931640625">
        <ele>261.79998779296875</ele>
        <time>2020-08-23T10:50:44.000Z</time>
      </trkpt>
      <trkpt lat="43.31832258962094783782958984375" lon="-1.65883856825530529022216796875">
        <ele>261.600006103515625</ele>
        <time>2020-08-23T10:50:47.000Z</time>
      </trkpt>
      <trkpt lat="43.318249918520450592041015625" lon="-1.65891383774578571319580078125">
        <ele>261</ele>
        <time>2020-08-23T10:50:54.000Z</time>
      </trkpt>
      <trkpt lat="43.31822318024933338165283203125" lon="-1.65893764235079288482666015625">
        <ele>260.600006103515625</ele>
        <time>2020-08-23T10:50:57.000Z</time>
      </trkpt>
      <trkpt lat="43.31818562932312488555908203125" lon="-1.65898072533309459686279296875">
        <ele>260.399993896484375</ele>
        <time>2020-08-23T10:51:03.000Z</time>
      </trkpt>
      <trkpt lat="43.31810968928039073944091796875" lon="-1.6590336151421070098876953125">
        <ele>259.79998779296875</ele>
        <time>2020-08-23T10:51:11.000Z</time>
      </trkpt>
      <trkpt lat="43.3180940151214599609375" lon="-1.6590487025678157806396484375">
        <ele>259.600006103515625</ele>
        <time>2020-08-23T10:51:13.000Z</time>
      </trkpt>
      <trkpt lat="43.3180524408817291259765625" lon="-1.6591090522706508636474609375">
        <ele>258.600006103515625</ele>
        <time>2020-08-23T10:51:20.000Z</time>
      </trkpt>
      <trkpt lat="43.31804598681628704071044921875" lon="-1.65912003256380558013916015625">
        <ele>258.399993896484375</ele>
        <time>2020-08-23T10:51:21.000Z</time>
      </trkpt>
      <trkpt lat="43.3180113695561885833740234375" lon="-1.659174598753452301025390625">
        <ele>257.399993896484375</ele>
        <time>2020-08-23T10:51:27.000Z</time>
      </trkpt>
      <trkpt lat="43.31800751388072967529296875" lon="-1.65918029844760894775390625">
        <ele>257.20001220703125</ele>
        <time>2020-08-23T10:51:28.000Z</time>
      </trkpt>
      <trkpt lat="43.31795923411846160888671875" lon="-1.65926369838416576385498046875">
        <ele>256.20001220703125</ele>
        <time>2020-08-23T10:51:37.000Z</time>
      </trkpt>
      <trkpt lat="43.31788237206637859344482421875" lon="-1.65935053490102291107177734375">
        <ele>255.399993896484375</ele>
        <time>2020-08-23T10:51:47.000Z</time>
      </trkpt>
      <trkpt lat="43.31787399016320705413818359375" lon="-1.65936000645160675048828125">
        <ele>255.1999969482421875</ele>
        <time>2020-08-23T10:51:48.000Z</time>
      </trkpt>
      <trkpt lat="43.31786158494651317596435546875" lon="-1.65937886573374271392822265625">
        <ele>254.8000030517578125</ele>
        <time>2020-08-23T10:51:55.000Z</time>
      </trkpt>
      <trkpt lat="43.3178618364036083221435546875" lon="-1.6593806259334087371826171875">
        <ele>254.8000030517578125</ele>
        <time>2020-08-23T10:52:33.000Z</time>
      </trkpt>
      <trkpt lat="43.31786158494651317596435546875" lon="-1.6593812964856624603271484375">
        <ele>254.600006103515625</ele>
        <time>2020-08-23T10:52:43.000Z</time>
      </trkpt>
      <trkpt lat="43.31783593632280826568603515625" lon="-1.659402586519718170166015625">
        <ele>254.8000030517578125</ele>
        <time>2020-08-23T10:52:58.000Z</time>
      </trkpt>
      <trkpt lat="43.317795284092426300048828125" lon="-1.6594128124415874481201171875">
        <ele>254.399993896484375</ele>
        <time>2020-08-23T10:53:02.000Z</time>
      </trkpt>
      <trkpt lat="43.31776703707873821258544921875" lon="-1.65942613966763019561767578125">
        <ele>254.1999969482421875</ele>
        <time>2020-08-23T10:53:06.000Z</time>
      </trkpt>
      <trkpt lat="43.31770752556622028350830078125" lon="-1.65945614688098430633544921875">
        <ele>254</ele>
        <time>2020-08-23T10:53:13.000Z</time>
      </trkpt>
      <trkpt lat="43.31764876842498779296875" lon="-1.6594848968088626861572265625">
        <ele>253.8000030517578125</ele>
        <time>2020-08-23T10:53:20.000Z</time>
      </trkpt>
      <trkpt lat="43.31762588582932949066162109375" lon="-1.65950828231871128082275390625">
        <ele>253.399993896484375</ele>
        <time>2020-08-23T10:53:25.000Z</time>
      </trkpt>
      <trkpt lat="43.31761113367974758148193359375" lon="-1.65953661315143108367919921875">
        <ele>253.1999969482421875</ele>
        <time>2020-08-23T10:53:29.000Z</time>
      </trkpt>
      <trkpt lat="43.31757224164903163909912109375" lon="-1.65961137972772121429443359375">
        <ele>253</ele>
        <time>2020-08-23T10:53:36.000Z</time>
      </trkpt>
      <trkpt lat="43.31752597354352474212646484375" lon="-1.65971263311803340911865234375">
        <ele>253</ele>
        <time>2020-08-23T10:53:44.000Z</time>
      </trkpt>
      <trkpt lat="43.31748783588409423828125" lon="-1.65978253819048404693603515625">
        <ele>252.1999969482421875</ele>
        <time>2020-08-23T10:53:50.000Z</time>
      </trkpt>
      <trkpt lat="43.317483477294445037841796875" lon="-1.6597926802933216094970703125">
        <ele>252.1999969482421875</ele>
        <time>2020-08-23T10:53:51.000Z</time>
      </trkpt>
      <trkpt lat="43.31742790527641773223876953125" lon="-1.65989904664456844329833984375">
        <ele>251.8000030517578125</ele>
        <time>2020-08-23T10:54:01.000Z</time>
      </trkpt>
      <trkpt lat="43.3174135722219944000244140625" lon="-1.659952104091644287109375">
        <ele>251.1999969482421875</ele>
        <time>2020-08-23T10:54:07.000Z</time>
      </trkpt>
      <trkpt lat="43.3174088783562183380126953125" lon="-1.65997213684022426605224609375">
        <ele>251</ele>
        <time>2020-08-23T10:54:10.000Z</time>
      </trkpt>
      <trkpt lat="43.31739588640630245208740234375" lon="-1.65998898446559906005859375">
        <ele>250.8000030517578125</ele>
        <time>2020-08-23T10:54:13.000Z</time>
      </trkpt>
      <trkpt lat="43.31737610511481761932373046875" lon="-1.6600032337009906768798828125">
        <ele>250.600006103515625</ele>
        <time>2020-08-23T10:54:17.000Z</time>
      </trkpt>
      <trkpt lat="43.317364789545536041259765625" lon="-1.6600250266492366790771484375">
        <ele>250.399993896484375</ele>
        <time>2020-08-23T10:54:21.000Z</time>
      </trkpt>
      <trkpt lat="43.31734173931181430816650390625" lon="-1.6600535251200199127197265625">
        <ele>249.600006103515625</ele>
        <time>2020-08-23T10:54:26.000Z</time>
      </trkpt>
      <trkpt lat="43.31733570434153079986572265625" lon="-1.66006232611835002899169921875">
        <ele>249.399993896484375</ele>
        <time>2020-08-23T10:54:27.000Z</time>
      </trkpt>
      <trkpt lat="43.3173066191375255584716796875" lon="-1.660097949206829071044921875">
        <ele>249</ele>
        <time>2020-08-23T10:54:32.000Z</time>
      </trkpt>
      <trkpt lat="43.3172880113124847412109375" lon="-1.66012435220181941986083984375">
        <ele>248.399993896484375</ele>
        <time>2020-08-23T10:54:36.000Z</time>
      </trkpt>
      <trkpt lat="43.31727300770580768585205078125" lon="-1.66014094837009906768798828125">
        <ele>248</ele>
        <time>2020-08-23T10:54:39.000Z</time>
      </trkpt>
      <trkpt lat="43.3172504603862762451171875" lon="-1.660177409648895263671875">
        <ele>247.399993896484375</ele>
        <time>2020-08-23T10:54:44.000Z</time>
      </trkpt>
      <trkpt lat="43.31722606904804706573486328125" lon="-1.66019819676876068115234375">
        <ele>247.399993896484375</ele>
        <time>2020-08-23T10:54:47.000Z</time>
      </trkpt>
      <trkpt lat="43.3171963132917881011962890625" lon="-1.66023708879947662353515625">
        <ele>246.8000030517578125</ele>
        <time>2020-08-23T10:54:54.000Z</time>
      </trkpt>
      <trkpt lat="43.31716940738260746002197265625" lon="-1.6602898947894573211669921875">
        <ele>246.399993896484375</ele>
        <time>2020-08-23T10:55:01.000Z</time>
      </trkpt>
      <trkpt lat="43.31713135354220867156982421875" lon="-1.66033742018043994903564453125">
        <ele>245.600006103515625</ele>
        <time>2020-08-23T10:55:09.000Z</time>
      </trkpt>
      <trkpt lat="43.31712665967643260955810546875" lon="-1.66036709211766719818115234375">
        <ele>245.1999969482421875</ele>
        <time>2020-08-23T10:55:12.000Z</time>
      </trkpt>
      <trkpt lat="43.31711425445973873138427734375" lon="-1.66041553951799869537353515625">
        <ele>245</ele>
        <time>2020-08-23T10:55:17.000Z</time>
      </trkpt>
      <trkpt lat="43.3170793019235134124755859375" lon="-1.66050472296774387359619140625">
        <ele>244.600006103515625</ele>
        <time>2020-08-23T10:55:25.000Z</time>
      </trkpt>
      <trkpt lat="43.31706781871616840362548828125" lon="-1.660543866455554962158203125">
        <ele>244.1999969482421875</ele>
        <time>2020-08-23T10:55:29.000Z</time>
      </trkpt>
      <trkpt lat="43.31705608405172824859619140625" lon="-1.66058175265789031982421875">
        <ele>244</ele>
        <time>2020-08-23T10:55:33.000Z</time>
      </trkpt>
      <trkpt lat="43.31704351119697093963623046875" lon="-1.6606338880956172943115234375">
        <ele>243.399993896484375</ele>
        <time>2020-08-23T10:55:38.000Z</time>
      </trkpt>
      <trkpt lat="43.3170303516089916229248046875" lon="-1.6606761328876018524169921875">
        <ele>242.8000030517578125</ele>
        <time>2020-08-23T10:55:42.000Z</time>
      </trkpt>
      <trkpt lat="43.31702138297259807586669921875" lon="-1.660704128444194793701171875">
        <ele>242.399993896484375</ele>
        <time>2020-08-23T10:55:45.000Z</time>
      </trkpt>
      <trkpt lat="43.31701953895390033721923828125" lon="-1.6607431881129741668701171875">
        <ele>241.600006103515625</ele>
        <time>2020-08-23T10:55:49.000Z</time>
      </trkpt>
      <trkpt lat="43.3170115761458873748779296875" lon="-1.66076288558542728424072265625">
        <ele>241.1999969482421875</ele>
        <time>2020-08-23T10:55:51.000Z</time>
      </trkpt>
      <trkpt lat="43.31700093112885951995849609375" lon="-1.660815775394439697265625">
        <ele>240</ele>
        <time>2020-08-23T10:55:56.000Z</time>
      </trkpt>
      <trkpt lat="43.3169948123395442962646484375" lon="-1.66083128191530704498291015625">
        <ele>239.8000030517578125</ele>
        <time>2020-08-23T10:55:58.000Z</time>
      </trkpt>
      <trkpt lat="43.3169824071228504180908203125" lon="-1.66088894940912723541259765625">
        <ele>239.1999969482421875</ele>
        <time>2020-08-23T10:56:04.000Z</time>
      </trkpt>
      <trkpt lat="43.3169760368764400482177734375" lon="-1.66090252809226512908935546875">
        <ele>239</ele>
        <time>2020-08-23T10:56:05.000Z</time>
      </trkpt>
      <trkpt lat="43.31694695167243480682373046875" lon="-1.66097159497439861297607421875">
        <ele>237.8000030517578125</ele>
        <time>2020-08-23T10:56:13.000Z</time>
      </trkpt>
      <trkpt lat="43.31694443710148334503173828125" lon="-1.6609775461256504058837890625">
        <ele>237.600006103515625</ele>
        <time>2020-08-23T10:56:14.000Z</time>
      </trkpt>
      <trkpt lat="43.3169259130954742431640625" lon="-1.66102708317339420318603515625">
        <ele>236.8000030517578125</ele>
        <time>2020-08-23T10:56:20.000Z</time>
      </trkpt>
      <trkpt lat="43.31691476516425609588623046875" lon="-1.66106161661446094512939453125">
        <ele>236.399993896484375</ele>
        <time>2020-08-23T10:56:23.000Z</time>
      </trkpt>
      <trkpt lat="43.3169029466807842254638671875" lon="-1.66109732352197170257568359375">
        <ele>235.600006103515625</ele>
        <time>2020-08-23T10:56:26.000Z</time>
      </trkpt>
      <trkpt lat="43.31689448095858097076416015625" lon="-1.661141328513622283935546875">
        <ele>235.1999969482421875</ele>
        <time>2020-08-23T10:56:30.000Z</time>
      </trkpt>
      <trkpt lat="43.31689565442502498626708984375" lon="-1.661213077604770660400390625">
        <ele>234.600006103515625</ele>
        <time>2020-08-23T10:56:36.000Z</time>
      </trkpt>
      <trkpt lat="43.31687637604773044586181640625" lon="-1.66129790246486663818359375">
        <ele>234.1999969482421875</ele>
        <time>2020-08-23T10:56:45.000Z</time>
      </trkpt>
      <trkpt lat="43.31688660196959972381591796875" lon="-1.661340482532978057861328125">
        <ele>233.399993896484375</ele>
        <time>2020-08-23T10:56:49.000Z</time>
      </trkpt>
      <trkpt lat="43.31688827835023403167724609375" lon="-1.6613661311566829681396484375">
        <ele>233</ele>
        <time>2020-08-23T10:56:52.000Z</time>
      </trkpt>
      <trkpt lat="43.31688442267477512359619140625" lon="-1.66141298599541187286376953125">
        <ele>232.399993896484375</ele>
        <time>2020-08-23T10:56:59.000Z</time>
      </trkpt>
      <trkpt lat="43.3168788067996501922607421875" lon="-1.66141617111861705780029296875">
        <ele>232.1999969482421875</ele>
        <time>2020-08-23T10:57:00.000Z</time>
      </trkpt>
      <trkpt lat="43.31684636883437633514404296875" lon="-1.6614774428308010101318359375">
        <ele>231.399993896484375</ele>
        <time>2020-08-23T10:57:08.000Z</time>
      </trkpt>
      <trkpt lat="43.3168405853211879730224609375" lon="-1.66150032542645931243896484375">
        <ele>231.1999969482421875</ele>
        <time>2020-08-23T10:57:10.000Z</time>
      </trkpt>
      <trkpt lat="43.316815607249736785888671875" lon="-1.6615636087954044342041015625">
        <ele>231</ele>
        <time>2020-08-23T10:57:16.000Z</time>
      </trkpt>
      <trkpt lat="43.3168134279549121856689453125" lon="-1.66157358326017856597900390625">
        <ele>230.600006103515625</ele>
        <time>2020-08-23T10:57:30.000Z</time>
      </trkpt>
      <trkpt lat="43.31681334413588047027587890625" lon="-1.66157358326017856597900390625">
        <ele>230.399993896484375</ele>
        <time>2020-08-23T10:57:31.000Z</time>
      </trkpt>
      <trkpt lat="43.31679959781467914581298828125" lon="-1.661589257419109344482421875">
        <ele>230.600006103515625</ele>
        <time>2020-08-23T10:57:46.000Z</time>
      </trkpt>
      <trkpt lat="43.3167792297899723052978515625" lon="-1.66162219829857349395751953125">
        <ele>230.1999969482421875</ele>
        <time>2020-08-23T10:57:53.000Z</time>
      </trkpt>
      <trkpt lat="43.31677713431417942047119140625" lon="-1.66163049638271331787109375">
        <ele>230</ele>
        <time>2020-08-23T10:57:55.000Z</time>
      </trkpt>
      <trkpt lat="43.31677545793354511260986328125" lon="-1.661656983196735382080078125">
        <ele>229.1999969482421875</ele>
        <time>2020-08-23T10:58:01.000Z</time>
      </trkpt>
      <trkpt lat="43.31676573492586612701416015625" lon="-1.66167986579239368438720703125">
        <ele>229</ele>
        <time>2020-08-23T10:58:06.000Z</time>
      </trkpt>
      <trkpt lat="43.3167530782520771026611328125" lon="-1.6617335937917232513427734375">
        <ele>228</ele>
        <time>2020-08-23T10:58:14.000Z</time>
      </trkpt>
      <trkpt lat="43.31672751344740390777587890625" lon="-1.66179419495165348052978515625">
        <ele>227.399993896484375</ele>
        <time>2020-08-23T10:58:24.000Z</time>
      </trkpt>
      <trkpt lat="43.31672005355358123779296875" lon="-1.661811880767345428466796875">
        <ele>227</ele>
        <time>2020-08-23T10:58:27.000Z</time>
      </trkpt>
      <trkpt lat="43.31670387648046016693115234375" lon="-1.66182219050824642181396484375">
        <ele>226.1999969482421875</ele>
        <time>2020-08-23T10:58:34.000Z</time>
      </trkpt>
      <trkpt lat="43.31668728031218051910400390625" lon="-1.66184800677001476287841796875">
        <ele>226.399993896484375</ele>
        <time>2020-08-23T10:58:43.000Z</time>
      </trkpt>
      <trkpt lat="43.3166813291609287261962890625" lon="-1.66186393238604068756103515625">
        <ele>225.8000030517578125</ele>
        <time>2020-08-23T10:58:46.000Z</time>
      </trkpt>
      <trkpt lat="43.31665140576660633087158203125" lon="-1.6619116254150867462158203125">
        <ele>224.8000030517578125</ele>
        <time>2020-08-23T10:58:52.000Z</time>
      </trkpt>
      <trkpt lat="43.31658636219799518585205078125" lon="-1.6619719751179218292236328125">
        <ele>224.399993896484375</ele>
        <time>2020-08-23T10:58:58.000Z</time>
      </trkpt>
      <trkpt lat="43.3165713585913181304931640625" lon="-1.66197909973561763763427734375">
        <ele>224.399993896484375</ele>
        <time>2020-08-23T10:59:00.000Z</time>
      </trkpt>
      <trkpt lat="43.31650723703205585479736328125" lon="-1.662025116384029388427734375">
        <ele>224.399993896484375</ele>
        <time>2020-08-23T10:59:07.000Z</time>
      </trkpt>
      <trkpt lat="43.31645677797496318817138671875" lon="-1.66207247413694858551025390625">
        <ele>224.8000030517578125</ele>
        <time>2020-08-23T10:59:14.000Z</time>
      </trkpt>
      <trkpt lat="43.3164473064243793487548828125" lon="-1.66211321018636226654052734375">
        <ele>224.399993896484375</ele>
        <time>2020-08-23T10:59:21.000Z</time>
      </trkpt>
      <trkpt lat="43.31643565557897090911865234375" lon="-1.6621255315840244293212890625">
        <ele>224</ele>
        <time>2020-08-23T10:59:25.000Z</time>
      </trkpt>
      <trkpt lat="43.31642794422805309295654296875" lon="-1.66215461678802967071533203125">
        <ele>223.8000030517578125</ele>
        <time>2020-08-23T10:59:29.000Z</time>
      </trkpt>
      <trkpt lat="43.31641562283039093017578125" lon="-1.66222058236598968505859375">
        <ele>222.8000030517578125</ele>
        <time>2020-08-23T10:59:37.000Z</time>
      </trkpt>
      <trkpt lat="43.3164107613265514373779296875" lon="-1.6622271202504634857177734375">
        <ele>222.8000030517578125</ele>
        <time>2020-08-23T10:59:38.000Z</time>
      </trkpt>
      <trkpt lat="43.31638745963573455810546875" lon="-1.66227866895496845245361328125">
        <ele>222.1999969482421875</ele>
        <time>2020-08-23T10:59:46.000Z</time>
      </trkpt>
      <trkpt lat="43.3163867890834808349609375" lon="-1.6622935049235820770263671875">
        <ele>221.8000030517578125</ele>
        <time>2020-08-23T10:59:49.000Z</time>
      </trkpt>
      <trkpt lat="43.316377066075801849365234375" lon="-1.66230968199670314788818359375">
        <ele>220.8000030517578125</ele>
        <time>2020-08-23T10:59:53.000Z</time>
      </trkpt>
      <trkpt lat="43.3163765631616115570068359375" lon="-1.6623112745583057403564453125">
        <ele>220.8000030517578125</ele>
        <time>2020-08-23T10:59:54.000Z</time>
      </trkpt>
      <trkpt lat="43.3163758926093578338623046875" lon="-1.6623116098344326019287109375">
        <ele>221.399993896484375</ele>
        <time>2020-08-23T11:00:10.000Z</time>
      </trkpt>
      <trkpt lat="43.31634362228214740753173828125" lon="-1.66235469281673431396484375">
        <ele>220.399993896484375</ele>
        <time>2020-08-23T11:00:17.000Z</time>
      </trkpt>
      <trkpt lat="43.316307999193668365478515625" lon="-1.66241638362407684326171875">
        <ele>220.1999969482421875</ele>
        <time>2020-08-23T11:00:23.000Z</time>
      </trkpt>
      <trkpt lat="43.31627304665744304656982421875" lon="-1.66249173693358898162841796875">
        <ele>220</ele>
        <time>2020-08-23T11:00:31.000Z</time>
      </trkpt>
      <trkpt lat="43.3162478171288967132568359375" lon="-1.6625670902431011199951171875">
        <ele>219.600006103515625</ele>
        <time>2020-08-23T11:00:39.000Z</time>
      </trkpt>
      <trkpt lat="43.31620238721370697021484375" lon="-1.6626659967005252838134765625">
        <ele>219</ele>
        <time>2020-08-23T11:00:48.000Z</time>
      </trkpt>
      <trkpt lat="43.31619970500469207763671875" lon="-1.66267865337431430816650390625">
        <ele>218.600006103515625</ele>
        <time>2020-08-23T11:00:49.000Z</time>
      </trkpt>
      <trkpt lat="43.316160477697849273681640625" lon="-1.662768758833408355712890625">
        <ele>218</ele>
        <time>2020-08-23T11:00:57.000Z</time>
      </trkpt>
      <trkpt lat="43.31614337861537933349609375" lon="-1.6628041304647922515869140625">
        <ele>217.600006103515625</ele>
        <time>2020-08-23T11:01:00.000Z</time>
      </trkpt>
      <trkpt lat="43.3161413669586181640625" lon="-1.66281494311988353729248046875">
        <ele>217.399993896484375</ele>
        <time>2020-08-23T11:01:01.000Z</time>
      </trkpt>
      <trkpt lat="43.3161257766187191009521484375" lon="-1.66284226812422275543212890625">
        <ele>217.600006103515625</ele>
        <time>2020-08-23T11:01:04.000Z</time>
      </trkpt>
      <trkpt lat="43.31609786488115787506103515625" lon="-1.6629419289529323577880859375">
        <ele>217.1999969482421875</ele>
        <time>2020-08-23T11:01:13.000Z</time>
      </trkpt>
      <trkpt lat="43.31608713604509830474853515625" lon="-1.6629607044160366058349609375">
        <ele>216.600006103515625</ele>
        <time>2020-08-23T11:01:18.000Z</time>
      </trkpt>
      <trkpt lat="43.31608730368316173553466796875" lon="-1.66296196170151233673095703125">
        <ele>216.600006103515625</ele>
        <time>2020-08-23T11:01:21.000Z</time>
      </trkpt>
      <trkpt lat="43.31607523374259471893310546875" lon="-1.66302130557596683502197265625">
        <ele>216.600006103515625</ele>
        <time>2020-08-23T11:01:27.000Z</time>
      </trkpt>
      <trkpt lat="43.3160687796771526336669921875" lon="-1.66304670274257659912109375">
        <ele>216.1999969482421875</ele>
        <time>2020-08-23T11:01:29.000Z</time>
      </trkpt>
      <trkpt lat="43.31605277024209499359130859375" lon="-1.663102693855762481689453125">
        <ele>216.1999969482421875</ele>
        <time>2020-08-23T11:01:33.000Z</time>
      </trkpt>
      <trkpt lat="43.316047154366970062255859375" lon="-1.66320201940834522247314453125">
        <ele>216</ele>
        <time>2020-08-23T11:01:40.000Z</time>
      </trkpt>
      <trkpt lat="43.31603072583675384521484375" lon="-1.6632473655045032501220703125">
        <ele>215.8000030517578125</ele>
        <time>2020-08-23T11:01:44.000Z</time>
      </trkpt>
      <trkpt lat="43.31602427177131175994873046875" lon="-1.66327142156660556793212890625">
        <ele>215.399993896484375</ele>
        <time>2020-08-23T11:01:47.000Z</time>
      </trkpt>
      <trkpt lat="43.31600516103208065032958984375" lon="-1.6633813083171844482421875">
        <ele>216</ele>
        <time>2020-08-23T11:01:56.000Z</time>
      </trkpt>
      <trkpt lat="43.315990827977657318115234375" lon="-1.6633975692093372344970703125">
        <ele>215.399993896484375</ele>
        <time>2020-08-23T11:02:07.000Z</time>
      </trkpt>
      <trkpt lat="43.315975405275821685791015625" lon="-1.663445346057415008544921875">
        <ele>215</ele>
        <time>2020-08-23T11:02:15.000Z</time>
      </trkpt>
      <trkpt lat="43.3159413747489452362060546875" lon="-1.66353075765073299407958984375">
        <ele>214.1999969482421875</ele>
        <time>2020-08-23T11:02:23.000Z</time>
      </trkpt>
      <trkpt lat="43.31593684852123260498046875" lon="-1.66354031302034854888916015625">
        <ele>214.1999969482421875</ele>
        <time>2020-08-23T11:02:24.000Z</time>
      </trkpt>
      <trkpt lat="43.315911032259464263916015625" lon="-1.663570739328861236572265625">
        <ele>213.399993896484375</ele>
        <time>2020-08-23T11:02:30.000Z</time>
      </trkpt>
      <trkpt lat="43.31588412635028362274169921875" lon="-1.6636084578931331634521484375">
        <ele>213.1999969482421875</ele>
        <time>2020-08-23T11:02:36.000Z</time>
      </trkpt>
      <trkpt lat="43.31587314605712890625" lon="-1.66362077929079532623291015625">
        <ele>212.8000030517578125</ele>
        <time>2020-08-23T11:02:39.000Z</time>
      </trkpt>
      <trkpt lat="43.3158637583255767822265625" lon="-1.66366520337760448455810546875">
        <ele>212.1999969482421875</ele>
        <time>2020-08-23T11:02:44.000Z</time>
      </trkpt>
      <trkpt lat="43.315853364765644073486328125" lon="-1.66369906626641750335693359375">
        <ele>211.8000030517578125</ele>
        <time>2020-08-23T11:02:47.000Z</time>
      </trkpt>
      <trkpt lat="43.31584540195763111114501953125" lon="-1.66371583007276058197021484375">
        <ele>211.1999969482421875</ele>
        <time>2020-08-23T11:02:49.000Z</time>
      </trkpt>
      <trkpt lat="43.315830230712890625" lon="-1.66374533437192440032958984375">
        <ele>210.399993896484375</ele>
        <time>2020-08-23T11:02:53.000Z</time>
      </trkpt>
      <trkpt lat="43.3158045820891857147216796875" lon="-1.66376075707376003265380859375">
        <ele>210.1999969482421875</ele>
        <time>2020-08-23T11:02:57.000Z</time>
      </trkpt>
      <trkpt lat="43.31578664481639862060546875" lon="-1.663780622184276580810546875">
        <ele>209.600006103515625</ele>
        <time>2020-08-23T11:03:01.000Z</time>
      </trkpt>
      <trkpt lat="43.3157760836184024810791015625" lon="-1.6637905128300189971923828125">
        <ele>209.1999969482421875</ele>
        <time>2020-08-23T11:03:04.000Z</time>
      </trkpt>
      <trkpt lat="43.3157680369913578033447265625" lon="-1.663814820349216461181640625">
        <ele>208</ele>
        <time>2020-08-23T11:03:09.000Z</time>
      </trkpt>
      <trkpt lat="43.3157526142895221710205078125" lon="-1.66385765187442302703857421875">
        <ele>207</ele>
        <time>2020-08-23T11:03:17.000Z</time>
      </trkpt>
      <trkpt lat="43.31575621850788593292236328125" lon="-1.6638669557869434356689453125">
        <ele>207.1999969482421875</ele>
        <time>2020-08-23T11:03:18.000Z</time>
      </trkpt>
      <trkpt lat="43.31573970615863800048828125" lon="-1.66390274651348590850830078125">
        <ele>206.600006103515625</ele>
        <time>2020-08-23T11:03:27.000Z</time>
      </trkpt>
      <trkpt lat="43.31570207141339778900146484375" lon="-1.6639470867812633514404296875">
        <ele>206.1999969482421875</ele>
        <time>2020-08-23T11:03:29.000Z</time>
      </trkpt>
      <trkpt lat="43.31564716994762420654296875" lon="-1.66399863548576831817626953125">
        <ele>205.600006103515625</ele>
        <time>2020-08-23T11:03:31.000Z</time>
      </trkpt>
      <trkpt lat="43.315599896013736724853515625" lon="-1.6640671156346797943115234375">
        <ele>205.1999969482421875</ele>
        <time>2020-08-23T11:03:33.000Z</time>
      </trkpt>
      <trkpt lat="43.315553627908229827880859375" lon="-1.6641281358897686004638671875">
        <ele>205</ele>
        <time>2020-08-23T11:03:35.000Z</time>
      </trkpt>
      <trkpt lat="43.31548380665481090545654296875" lon="-1.66424162685871124267578125">
        <ele>205.399993896484375</ele>
        <time>2020-08-23T11:03:40.000Z</time>
      </trkpt>
      <trkpt lat="43.31546469591557979583740234375" lon="-1.6643147170543670654296875">
        <ele>205.1999969482421875</ele>
        <time>2020-08-23T11:03:45.000Z</time>
      </trkpt>
      <trkpt lat="43.3154579065740108489990234375" lon="-1.66434195823967456817626953125">
        <ele>205</ele>
        <time>2020-08-23T11:03:56.000Z</time>
      </trkpt>
      <trkpt lat="43.3154478482902050018310546875" lon="-1.664389483630657196044921875">
        <ele>204.1999969482421875</ele>
        <time>2020-08-23T11:04:03.000Z</time>
      </trkpt>
      <trkpt lat="43.31544675864279270172119140625" lon="-1.6644023917615413665771484375">
        <ele>204</ele>
        <time>2020-08-23T11:04:06.000Z</time>
      </trkpt>
      <trkpt lat="43.31544726155698299407958984375" lon="-1.66441270150244235992431640625">
        <ele>203.1999969482421875</ele>
        <time>2020-08-23T11:04:10.000Z</time>
      </trkpt>
      <trkpt lat="43.31544726155698299407958984375" lon="-1.66442594490945339202880859375">
        <ele>203</ele>
        <time>2020-08-23T11:04:12.000Z</time>
      </trkpt>
      <trkpt lat="43.31544340588152408599853515625" lon="-1.66446181945502758026123046875">
        <ele>202.399993896484375</ele>
        <time>2020-08-23T11:04:16.000Z</time>
      </trkpt>
      <trkpt lat="43.315430246293544769287109375" lon="-1.6644966043531894683837890625">
        <ele>202</ele>
        <time>2020-08-23T11:04:19.000Z</time>
      </trkpt>
      <trkpt lat="43.31541121937334537506103515625" lon="-1.6645561158657073974609375">
        <ele>201.1999969482421875</ele>
        <time>2020-08-23T11:04:24.000Z</time>
      </trkpt>
      <trkpt lat="43.31540753133594989776611328125" lon="-1.66459224186837673187255859375">
        <ele>200.600006103515625</ele>
        <time>2020-08-23T11:04:27.000Z</time>
      </trkpt>
      <trkpt lat="43.3154069446027278900146484375" lon="-1.66465745307505130767822265625">
        <ele>200</ele>
        <time>2020-08-23T11:04:32.000Z</time>
      </trkpt>
      <trkpt lat="43.315403424203395843505859375" lon="-1.6646629013121128082275390625">
        <ele>199.8000030517578125</ele>
        <time>2020-08-23T11:04:35.000Z</time>
      </trkpt>
      <trkpt lat="43.31539236009120941162109375" lon="-1.6647007875144481658935546875">
        <ele>199.8000030517578125</ele>
        <time>2020-08-23T11:04:41.000Z</time>
      </trkpt>
      <trkpt lat="43.3153915219008922576904296875" lon="-1.66471160016953945159912109375">
        <ele>199.8000030517578125</ele>
        <time>2020-08-23T11:04:43.000Z</time>
      </trkpt>
      <trkpt lat="43.3153747580945491790771484375" lon="-1.66474797762930393218994140625">
        <ele>199.1999969482421875</ele>
        <time>2020-08-23T11:04:48.000Z</time>
      </trkpt>
      <trkpt lat="43.3153688907623291015625" lon="-1.66476775892078876495361328125">
        <ele>199.1999969482421875</ele>
        <time>2020-08-23T11:04:49.000Z</time>
      </trkpt>
      <trkpt lat="43.31532874144613742828369140625" lon="-1.6648861952126026153564453125">
        <ele>198.600006103515625</ele>
        <time>2020-08-23T11:04:53.000Z</time>
      </trkpt>
      <trkpt lat="43.31526696681976318359375" lon="-1.66505944915115833282470703125">
        <ele>198</ele>
        <time>2020-08-23T11:04:57.000Z</time>
      </trkpt>
      <trkpt lat="43.3152493648231029510498046875" lon="-1.66509565897285938262939453125">
        <ele>197.8000030517578125</ele>
        <time>2020-08-23T11:04:58.000Z</time>
      </trkpt>
      <trkpt lat="43.3152178488671779632568359375" lon="-1.6651963256299495697021484375">
        <ele>197.600006103515625</ele>
        <time>2020-08-23T11:05:01.000Z</time>
      </trkpt>
      <trkpt lat="43.31520854495465755462646484375" lon="-1.66521635837852954864501953125">
        <ele>197.600006103515625</ele>
        <time>2020-08-23T11:05:02.000Z</time>
      </trkpt>
      <trkpt lat="43.31516965292394161224365234375" lon="-1.66534426622092723846435546875">
        <ele>197.600006103515625</ele>
        <time>2020-08-23T11:05:09.000Z</time>
      </trkpt>
      <trkpt lat="43.31514417193830013275146484375" lon="-1.66541333310306072235107421875">
        <ele>197.399993896484375</ele>
        <time>2020-08-23T11:05:14.000Z</time>
      </trkpt>
      <trkpt lat="43.3151005022227764129638671875" lon="-1.66553101502358913421630859375">
        <ele>197.8000030517578125</ele>
        <time>2020-08-23T11:05:22.000Z</time>
      </trkpt>
      <trkpt lat="43.3150817267596721649169921875" lon="-1.66558968834578990936279296875">
        <ele>197.1999969482421875</ele>
        <time>2020-08-23T11:05:28.000Z</time>
      </trkpt>
      <trkpt lat="43.3150730095803737640380859375" lon="-1.66560561396181583404541015625">
        <ele>197</ele>
        <time>2020-08-23T11:05:30.000Z</time>
      </trkpt>
      <trkpt lat="43.3150577545166015625" lon="-1.66565221734344959259033203125">
        <ele>196.1999969482421875</ele>
        <time>2020-08-23T11:05:35.000Z</time>
      </trkpt>
      <trkpt lat="43.3150606043636798858642578125" lon="-1.6656757704913616180419921875">
        <ele>196.1999969482421875</ele>
        <time>2020-08-23T11:05:37.000Z</time>
      </trkpt>
      <trkpt lat="43.3150478638708591461181640625" lon="-1.6657689772546291351318359375">
        <ele>195.8000030517578125</ele>
        <time>2020-08-23T11:05:46.000Z</time>
      </trkpt>
      <trkpt lat="43.31502397544682025909423828125" lon="-1.6658598370850086212158203125">
        <ele>195.8000030517578125</ele>
        <time>2020-08-23T11:05:53.000Z</time>
      </trkpt>
      <trkpt lat="43.31497686915099620819091796875" lon="-1.66600207798182964324951171875">
        <ele>195.8000030517578125</ele>
        <time>2020-08-23T11:06:04.000Z</time>
      </trkpt>
      <trkpt lat="43.31495784223079681396484375" lon="-1.66607835330069065093994140625">
        <ele>196.399993896484375</ele>
        <time>2020-08-23T11:06:12.000Z</time>
      </trkpt>
      <trkpt lat="43.31492054276168346405029296875" lon="-1.66616703383624553680419921875">
        <ele>197</ele>
        <time>2020-08-23T11:06:21.000Z</time>
      </trkpt>
      <trkpt lat="43.3149063773453235626220703125" lon="-1.66619922034442424774169921875">
        <ele>197.399993896484375</ele>
        <time>2020-08-23T11:06:25.000Z</time>
      </trkpt>
      <trkpt lat="43.314897827804088592529296875" lon="-1.66621548123657703399658203125">
        <ele>197.600006103515625</ele>
        <time>2020-08-23T11:06:27.000Z</time>
      </trkpt>
      <trkpt lat="43.314839489758014678955078125" lon="-1.66630868799984455108642578125">
        <ele>197.600006103515625</ele>
        <time>2020-08-23T11:06:37.000Z</time>
      </trkpt>
      <trkpt lat="43.31479364074766635894775390625" lon="-1.6663640923798084259033203125">
        <ele>198.399993896484375</ele>
        <time>2020-08-23T11:06:44.000Z</time>
      </trkpt>
      <trkpt lat="43.31477721221745014190673828125" lon="-1.66638672351837158203125">
        <ele>198.600006103515625</ele>
        <time>2020-08-23T11:06:47.000Z</time>
      </trkpt>
      <trkpt lat="43.3147350512444972991943359375" lon="-1.66642368771135807037353515625">
        <ele>199.1999969482421875</ele>
        <time>2020-08-23T11:06:55.000Z</time>
      </trkpt>
      <trkpt lat="43.31471803598105907440185546875" lon="-1.66643709875643253326416015625">
        <ele>199.8000030517578125</ele>
        <time>2020-08-23T11:06:58.000Z</time>
      </trkpt>
      <trkpt lat="43.3146916329860687255859375" lon="-1.6664526052772998809814453125">
        <ele>199.8000030517578125</ele>
        <time>2020-08-23T11:07:02.000Z</time>
      </trkpt>
      <trkpt lat="43.31465098075568675994873046875" lon="-1.66647783480584621429443359375">
        <ele>200.8000030517578125</ele>
        <time>2020-08-23T11:07:09.000Z</time>
      </trkpt>
      <trkpt lat="43.3146425150334835052490234375" lon="-1.66648395359516143798828125">
        <ele>201.1999969482421875</ele>
        <time>2020-08-23T11:07:11.000Z</time>
      </trkpt>
      <trkpt lat="43.31461862660944461822509765625" lon="-1.666507758200168609619140625">
        <ele>201.1999969482421875</ele>
        <time>2020-08-23T11:07:15.000Z</time>
      </trkpt>
      <trkpt lat="43.3145964145660400390625" lon="-1.66651840321719646453857421875">
        <ele>201.399993896484375</ele>
        <time>2020-08-23T11:07:18.000Z</time>
      </trkpt>
      <trkpt lat="43.3145628869533538818359375" lon="-1.66653851978480815887451171875">
        <ele>201.8000030517578125</ele>
        <time>2020-08-23T11:07:22.000Z</time>
      </trkpt>
      <trkpt lat="43.31452894024550914764404296875" lon="-1.6665521822869777679443359375">
        <ele>202</ele>
        <time>2020-08-23T11:07:26.000Z</time>
      </trkpt>
      <trkpt lat="43.31446691416203975677490234375" lon="-1.666576154530048370361328125">
        <ele>202.8000030517578125</ele>
        <time>2020-08-23T11:07:35.000Z</time>
      </trkpt>
      <trkpt lat="43.31440371461212635040283203125" lon="-1.66660976596176624298095703125">
        <ele>203</ele>
        <time>2020-08-23T11:07:43.000Z</time>
      </trkpt>
      <trkpt lat="43.3143957518041133880615234375" lon="-1.6666106879711151123046875">
        <ele>203</ele>
        <time>2020-08-23T11:07:44.000Z</time>
      </trkpt>
      <trkpt lat="43.31434051506221294403076171875" lon="-1.66661269962787628173828125">
        <ele>203.399993896484375</ele>
        <time>2020-08-23T11:07:51.000Z</time>
      </trkpt>
      <trkpt lat="43.31427832134068012237548828125" lon="-1.66662284173071384429931640625">
        <ele>203.1999969482421875</ele>
        <time>2020-08-23T11:07:58.000Z</time>
      </trkpt>
      <trkpt lat="43.31426172517240047454833984375" lon="-1.666629128158092498779296875">
        <ele>203.399993896484375</ele>
        <time>2020-08-23T11:08:00.000Z</time>
      </trkpt>
      <trkpt lat="43.31422300077974796295166015625" lon="-1.66664890944957733154296875">
        <ele>202.600006103515625</ele>
        <time>2020-08-23T11:08:07.000Z</time>
      </trkpt>
      <trkpt lat="43.31416952423751354217529296875" lon="-1.6666670143604278564453125">
        <ele>202</ele>
        <time>2020-08-23T11:08:17.000Z</time>
      </trkpt>
      <trkpt lat="43.31415661610662937164306640625" lon="-1.66667313314974308013916015625">
        <ele>201.8000030517578125</ele>
        <time>2020-08-23T11:08:19.000Z</time>
      </trkpt>
      <trkpt lat="43.31412342377007007598876953125" lon="-1.66668620891869068145751953125">
        <ele>201.1999969482421875</ele>
        <time>2020-08-23T11:08:26.000Z</time>
      </trkpt>
      <trkpt lat="43.31410280428826808929443359375" lon="-1.66669777594506740570068359375">
        <ele>200.8000030517578125</ele>
        <time>2020-08-23T11:08:31.000Z</time>
      </trkpt>
      <trkpt lat="43.31407967023551464080810546875" lon="-1.6667033918201923370361328125">
        <ele>200.1999969482421875</ele>
        <time>2020-08-23T11:08:37.000Z</time>
      </trkpt>
      <trkpt lat="43.3140665106475353240966796875" lon="-1.66671269573271274566650390625">
        <ele>199.8000030517578125</ele>
        <time>2020-08-23T11:08:43.000Z</time>
      </trkpt>
      <trkpt lat="43.3140591345727443695068359375" lon="-1.66671755723655223846435546875">
        <ele>199.600006103515625</ele>
        <time>2020-08-23T11:08:45.000Z</time>
      </trkpt>
      <trkpt lat="43.31402334384620189666748046875" lon="-1.66673499159514904022216796875">
        <ele>198.8000030517578125</ele>
        <time>2020-08-23T11:08:53.000Z</time>
      </trkpt>
      <trkpt lat="43.31401915289461612701416015625" lon="-1.66673985309898853302001953125">
        <ele>198.600006103515625</ele>
        <time>2020-08-23T11:08:54.000Z</time>
      </trkpt>
      <trkpt lat="43.31396467052400112152099609375" lon="-1.66676349006593227386474609375">
        <ele>197.8000030517578125</ele>
        <time>2020-08-23T11:09:01.000Z</time>
      </trkpt>
      <trkpt lat="43.31394396722316741943359375" lon="-1.66677455417811870574951171875">
        <ele>197.399993896484375</ele>
        <time>2020-08-23T11:09:05.000Z</time>
      </trkpt>
      <trkpt lat="43.3139159716665744781494140625" lon="-1.66679115034639835357666015625">
        <ele>196.600006103515625</ele>
        <time>2020-08-23T11:09:09.000Z</time>
      </trkpt>
      <trkpt lat="43.3138539455831050872802734375" lon="-1.66681126691401004791259765625">
        <ele>195.600006103515625</ele>
        <time>2020-08-23T11:09:16.000Z</time>
      </trkpt>
      <trkpt lat="43.3137714676558971405029296875" lon="-1.66682727634906768798828125">
        <ele>194.8000030517578125</ele>
        <time>2020-08-23T11:09:26.000Z</time>
      </trkpt>
      <trkpt lat="43.3136896602809429168701171875" lon="-1.66683289222419261932373046875">
        <ele>194</ele>
        <time>2020-08-23T11:09:36.000Z</time>
      </trkpt>
      <trkpt lat="43.31368052400648593902587890625" lon="-1.666834652423858642578125">
        <ele>193.8000030517578125</ele>
        <time>2020-08-23T11:09:37.000Z</time>
      </trkpt>
      <trkpt lat="43.31359930336475372314453125" lon="-1.6668304614722728729248046875">
        <ele>192.600006103515625</ele>
        <time>2020-08-23T11:09:44.000Z</time>
      </trkpt>
      <trkpt lat="43.3135756663978099822998046875" lon="-1.66682853363454341888427734375">
        <ele>192.399993896484375</ele>
        <time>2020-08-23T11:09:46.000Z</time>
      </trkpt>
      <trkpt lat="43.31356703303754329681396484375" lon="-1.6668287850916385650634765625">
        <ele>192.399993896484375</ele>
        <time>2020-08-23T11:09:47.000Z</time>
      </trkpt>
      <trkpt lat="43.31351816654205322265625" lon="-1.66682652197778224945068359375">
        <ele>192.1999969482421875</ele>
        <time>2020-08-23T11:09:54.000Z</time>
      </trkpt>
      <trkpt lat="43.3134797774255275726318359375" lon="-1.6668046452105045318603515625">
        <ele>191.600006103515625</ele>
        <time>2020-08-23T11:10:02.000Z</time>
      </trkpt>
      <trkpt lat="43.31347198225557804107666015625" lon="-1.66680070571601390838623046875">
        <ele>191.1999969482421875</ele>
        <time>2020-08-23T11:10:05.000Z</time>
      </trkpt>
      <trkpt lat="43.3134288154542446136474609375" lon="-1.6668049804866313934326171875">
        <ele>190.399993896484375</ele>
        <time>2020-08-23T11:10:11.000Z</time>
      </trkpt>
      <trkpt lat="43.3134204335510730743408203125" lon="-1.66680607013404369354248046875">
        <ele>190.1999969482421875</ele>
        <time>2020-08-23T11:10:12.000Z</time>
      </trkpt>
      <trkpt lat="43.31339620985090732574462890625" lon="-1.66681378148496150970458984375">
        <ele>189.8000030517578125</ele>
        <time>2020-08-23T11:10:21.000Z</time>
      </trkpt>
      <trkpt lat="43.31337994895875453948974609375" lon="-1.666805483400821685791015625">
        <ele>190</ele>
        <time>2020-08-23T11:10:30.000Z</time>
      </trkpt>
      <trkpt lat="43.3133349381387233734130859375" lon="-1.66678863577544689178466796875">
        <ele>189.8000030517578125</ele>
        <time>2020-08-23T11:10:40.000Z</time>
      </trkpt>
      <trkpt lat="43.31332177855074405670166015625" lon="-1.66678310371935367584228515625">
        <ele>189.600006103515625</ele>
        <time>2020-08-23T11:10:42.000Z</time>
      </trkpt>
      <trkpt lat="43.3132705651223659515380859375" lon="-1.66676030494272708892822265625">
        <ele>189.1999969482421875</ele>
        <time>2020-08-23T11:10:48.000Z</time>
      </trkpt>
      <trkpt lat="43.3132336847484111785888671875" lon="-1.6667288728058338165283203125">
        <ele>189.1999969482421875</ele>
        <time>2020-08-23T11:10:57.000Z</time>
      </trkpt>
      <trkpt lat="43.3131786994636058807373046875" lon="-1.66669023223221302032470703125">
        <ele>189</ele>
        <time>2020-08-23T11:11:05.000Z</time>
      </trkpt>
      <trkpt lat="43.3131602592766284942626953125" lon="-1.66667346842586994171142578125">
        <ele>188.8000030517578125</ele>
        <time>2020-08-23T11:11:07.000Z</time>
      </trkpt>
      <trkpt lat="43.3130972273647785186767578125" lon="-1.66662870906293392181396484375">
        <ele>188.600006103515625</ele>
        <time>2020-08-23T11:11:15.000Z</time>
      </trkpt>
      <trkpt lat="43.313041068613529205322265625" lon="-1.66658529080450534820556640625">
        <ele>188.399993896484375</ele>
        <time>2020-08-23T11:11:24.000Z</time>
      </trkpt>
      <trkpt lat="43.31297342665493488311767578125" lon="-1.6665382683277130126953125">
        <ele>188.1999969482421875</ele>
        <time>2020-08-23T11:11:34.000Z</time>
      </trkpt>
      <trkpt lat="43.3129450120031833648681640625" lon="-1.66652041487395763397216796875">
        <ele>187.8000030517578125</ele>
        <time>2020-08-23T11:11:38.000Z</time>
      </trkpt>
      <trkpt lat="43.31289111636579036712646484375" lon="-1.6664978675544261932373046875">
        <ele>187.600006103515625</ele>
        <time>2020-08-23T11:11:46.000Z</time>
      </trkpt>
      <trkpt lat="43.312794305384159088134765625" lon="-1.666448079049587249755859375">
        <ele>187</ele>
        <time>2020-08-23T11:11:54.000Z</time>
      </trkpt>
      <trkpt lat="43.31272783689200878143310546875" lon="-1.66645335964858531951904296875">
        <ele>187.600006103515625</ele>
        <time>2020-08-23T11:12:02.000Z</time>
      </trkpt>
      <trkpt lat="43.3126553334295749664306640625" lon="-1.6664475761353969573974609375">
        <ele>186.8000030517578125</ele>
        <time>2020-08-23T11:12:09.000Z</time>
      </trkpt>
      <trkpt lat="43.31262700259685516357421875" lon="-1.6664428822696208953857421875">
        <ele>186.600006103515625</ele>
        <time>2020-08-23T11:12:12.000Z</time>
      </trkpt>
      <trkpt lat="43.31259808503091335296630859375" lon="-1.66644816286861896514892578125">
        <ele>186</ele>
        <time>2020-08-23T11:12:16.000Z</time>
      </trkpt>
      <trkpt lat="43.31256723962724208831787109375" lon="-1.66646760888397693634033203125">
        <ele>185.600006103515625</ele>
        <time>2020-08-23T11:12:20.000Z</time>
      </trkpt>
      <trkpt lat="43.31250219605863094329833984375" lon="-1.66648101992905139923095703125">
        <ele>184.8000030517578125</ele>
        <time>2020-08-23T11:12:26.000Z</time>
      </trkpt>
      <trkpt lat="43.3124860189855098724365234375" lon="-1.66648956947028636932373046875">
        <ele>184.8000030517578125</ele>
        <time>2020-08-23T11:12:30.000Z</time>
      </trkpt>
      <trkpt lat="43.312485516071319580078125" lon="-1.666493006050586700439453125">
        <ele>184.8000030517578125</ele>
        <time>2020-08-23T11:12:39.000Z</time>
      </trkpt>
      <trkpt lat="43.312475122511386871337890625" lon="-1.666503734886646270751953125">
        <ele>184.600006103515625</ele>
        <time>2020-08-23T11:14:34.000Z</time>
      </trkpt>
      <trkpt lat="43.31247277557849884033203125" lon="-1.6665065847337245941162109375">
        <ele>184.8000030517578125</ele>
        <time>2020-08-23T11:14:38.000Z</time>
      </trkpt>
      <trkpt lat="43.312427513301372528076171875" lon="-1.666518487036228179931640625">
        <ele>184.600006103515625</ele>
        <time>2020-08-23T11:14:48.000Z</time>
      </trkpt>
      <trkpt lat="43.31241234205663204193115234375" lon="-1.66651722975075244903564453125">
        <ele>184.1999969482421875</ele>
        <time>2020-08-23T11:14:58.000Z</time>
      </trkpt>
      <trkpt lat="43.31240546889603137969970703125" lon="-1.66652175597846508026123046875">
        <ele>183.8000030517578125</ele>
        <time>2020-08-23T11:15:08.000Z</time>
      </trkpt>
      <trkpt lat="43.31239792518317699432373046875" lon="-1.666522510349750518798828125">
        <ele>183.399993896484375</ele>
        <time>2020-08-23T11:15:15.000Z</time>
      </trkpt>
      <trkpt lat="43.31238828599452972412109375" lon="-1.6665230132639408111572265625">
        <ele>183.1999969482421875</ele>
        <time>2020-08-23T11:15:19.000Z</time>
      </trkpt>
      <trkpt lat="43.31237160600721836090087890625" lon="-1.66652980260550975799560546875">
        <ele>183</ele>
        <time>2020-08-23T11:15:23.000Z</time>
      </trkpt>
      <trkpt lat="43.31233522854745388031005859375" lon="-1.6665565408766269683837890625">
        <ele>182</ele>
        <time>2020-08-23T11:15:30.000Z</time>
      </trkpt>
      <trkpt lat="43.31231988966464996337890625" lon="-1.6665629111230373382568359375">
        <ele>181.600006103515625</ele>
        <time>2020-08-23T11:15:34.000Z</time>
      </trkpt>
      <trkpt lat="43.3122965879738330841064453125" lon="-1.66657724417746067047119140625">
        <ele>181</ele>
        <time>2020-08-23T11:15:38.000Z</time>
      </trkpt>
      <trkpt lat="43.31225953996181488037109375" lon="-1.6666071675717830657958984375">
        <ele>180.1999969482421875</ele>
        <time>2020-08-23T11:15:43.000Z</time>
      </trkpt>
      <trkpt lat="43.31223095767199993133544921875" lon="-1.66662015952169895172119140625">
        <ele>179.8000030517578125</ele>
        <time>2020-08-23T11:15:47.000Z</time>
      </trkpt>
      <trkpt lat="43.31217949278652667999267578125" lon="-1.6666071675717830657958984375">
        <ele>178.8000030517578125</ele>
        <time>2020-08-23T11:15:54.000Z</time>
      </trkpt>
      <trkpt lat="43.31214244477450847625732421875" lon="-1.6666028089821338653564453125">
        <ele>177.8000030517578125</ele>
        <time>2020-08-23T11:16:01.000Z</time>
      </trkpt>
      <trkpt lat="43.3121339790523052215576171875" lon="-1.66661001741886138916015625">
        <ele>177.600006103515625</ele>
        <time>2020-08-23T11:16:03.000Z</time>
      </trkpt>
      <trkpt lat="43.31212232820689678192138671875" lon="-1.66663005016744136810302734375">
        <ele>176.8000030517578125</ele>
        <time>2020-08-23T11:16:08.000Z</time>
      </trkpt>
      <trkpt lat="43.31211880780756473541259765625" lon="-1.66662703268229961395263671875">
        <ele>176.600006103515625</ele>
        <time>2020-08-23T11:16:11.000Z</time>
      </trkpt>
      <trkpt lat="43.31212635152041912078857421875" lon="-1.666643880307674407958984375">
        <ele>176.600006103515625</ele>
        <time>2020-08-23T11:16:19.000Z</time>
      </trkpt>
      <trkpt lat="43.31212232820689678192138671875" lon="-1.66666223667562007904052734375">
        <ele>175.600006103515625</ele>
        <time>2020-08-23T11:16:25.000Z</time>
      </trkpt>
      <trkpt lat="43.31211243756115436553955078125" lon="-1.66667447425425052642822265625">
        <ele>175.399993896484375</ele>
        <time>2020-08-23T11:16:28.000Z</time>
      </trkpt>
      <trkpt lat="43.3120944164693355560302734375" lon="-1.6666618175804615020751953125">
        <ele>174.600006103515625</ele>
        <time>2020-08-23T11:16:36.000Z</time>
      </trkpt>
      <trkpt lat="43.3120927400887012481689453125" lon="-1.66665771044790744781494140625">
        <ele>174.600006103515625</ele>
        <time>2020-08-23T11:16:37.000Z</time>
      </trkpt>
      <trkpt lat="43.31207052804529666900634765625" lon="-1.6666299663484096527099609375">
        <ele>174.399993896484375</ele>
        <time>2020-08-23T11:16:46.000Z</time>
      </trkpt>
      <trkpt lat="43.31205477006733417510986328125" lon="-1.6666145436465740203857421875">
        <ele>173.600006103515625</ele>
        <time>2020-08-23T11:16:51.000Z</time>
      </trkpt>
      <trkpt lat="43.31205309368669986724853515625" lon="-1.66660758666694164276123046875">
        <ele>173</ele>
        <time>2020-08-23T11:16:57.000Z</time>
      </trkpt>
      <trkpt lat="43.31204496324062347412109375" lon="-1.66660993359982967376708984375">
        <ele>172.8000030517578125</ele>
        <time>2020-08-23T11:17:00.000Z</time>
      </trkpt>
      <trkpt lat="43.31203448586165904998779296875" lon="-1.66661202907562255859375">
        <ele>172.399993896484375</ele>
        <time>2020-08-23T11:17:07.000Z</time>
      </trkpt>
      <trkpt lat="43.31202375702559947967529296875" lon="-1.6666232608258724212646484375">
        <ele>172</ele>
        <time>2020-08-23T11:17:17.000Z</time>
      </trkpt>
      <trkpt lat="43.3120199851691722869873046875" lon="-1.6666303016245365142822265625">
        <ele>171.600006103515625</ele>
        <time>2020-08-23T11:17:19.000Z</time>
      </trkpt>
      <trkpt lat="43.311991654336452484130859375" lon="-1.666634492576122283935546875">
        <ele>170.600006103515625</ele>
        <time>2020-08-23T11:17:25.000Z</time>
      </trkpt>
      <trkpt lat="43.31199089996516704559326171875" lon="-1.66663348674774169921875">
        <ele>170.600006103515625</ele>
        <time>2020-08-23T11:17:26.000Z</time>
      </trkpt>
      <trkpt lat="43.3119891397655010223388671875" lon="-1.666634492576122283935546875">
        <ele>170.1999969482421875</ele>
        <time>2020-08-23T11:17:36.000Z</time>
      </trkpt>
      <trkpt lat="43.311989307403564453125" lon="-1.666634492576122283935546875">
        <ele>170.399993896484375</ele>
        <time>2020-08-23T11:18:01.000Z</time>
      </trkpt>
      <trkpt lat="43.31198955886065959930419921875" lon="-1.66663373820483684539794921875">
        <ele>170.1999969482421875</ele>
        <time>2020-08-23T11:18:19.000Z</time>
      </trkpt>
      <trkpt lat="43.3119666762650012969970703125" lon="-1.666614376008510589599609375">
        <ele>169.8000030517578125</ele>
        <time>2020-08-23T11:18:27.000Z</time>
      </trkpt>
      <trkpt lat="43.31193641759455204010009765625" lon="-1.666635163128376007080078125">
        <ele>169.8000030517578125</ele>
        <time>2020-08-23T11:18:35.000Z</time>
      </trkpt>
      <trkpt lat="43.31193373538553714752197265625" lon="-1.666674725711345672607421875">
        <ele>169.399993896484375</ele>
        <time>2020-08-23T11:18:42.000Z</time>
      </trkpt>
      <trkpt lat="43.3119356632232666015625" lon="-1.6666883043944835662841796875">
        <ele>169.399993896484375</ele>
        <time>2020-08-23T11:18:44.000Z</time>
      </trkpt>
      <trkpt lat="43.31193365156650543212890625" lon="-1.66674152947962284088134765625">
        <ele>168.8000030517578125</ele>
        <time>2020-08-23T11:18:52.000Z</time>
      </trkpt>
      <trkpt lat="43.31193524412810802459716796875" lon="-1.6667563654482364654541015625">
        <ele>168.399993896484375</ele>
        <time>2020-08-23T11:18:54.000Z</time>
      </trkpt>
      <trkpt lat="43.31192770041525363922119140625" lon="-1.666810177266597747802734375">
        <ele>167.399993896484375</ele>
        <time>2020-08-23T11:19:02.000Z</time>
      </trkpt>
      <trkpt lat="43.31192669458687305450439453125" lon="-1.66681629605591297149658203125">
        <ele>167.399993896484375</ele>
        <time>2020-08-23T11:19:03.000Z</time>
      </trkpt>
      <trkpt lat="43.31192568875849246978759765625" lon="-1.666849069297313690185546875">
        <ele>167</ele>
        <time>2020-08-23T11:19:09.000Z</time>
      </trkpt>
      <trkpt lat="43.31192736513912677764892578125" lon="-1.66688452474772930145263671875">
        <ele>166.1999969482421875</ele>
        <time>2020-08-23T11:19:14.000Z</time>
      </trkpt>
      <trkpt lat="43.3119343221187591552734375" lon="-1.66691847145557403564453125">
        <ele>165.600006103515625</ele>
        <time>2020-08-23T11:19:19.000Z</time>
      </trkpt>
      <trkpt lat="43.31192887388169765472412109375" lon="-1.66697748005390167236328125">
        <ele>165.1999969482421875</ele>
        <time>2020-08-23T11:19:26.000Z</time>
      </trkpt>
      <trkpt lat="43.31192736513912677764892578125" lon="-1.6669893823564052581787109375">
        <ele>165.1999969482421875</ele>
        <time>2020-08-23T11:19:27.000Z</time>
      </trkpt>
      <trkpt lat="43.31193633377552032470703125" lon="-1.6670480556786060333251953125">
        <ele>164.399993896484375</ele>
        <time>2020-08-23T11:19:34.000Z</time>
      </trkpt>
      <trkpt lat="43.31193507649004459381103515625" lon="-1.6670725308358669281005859375">
        <ele>164</ele>
        <time>2020-08-23T11:19:36.000Z</time>
      </trkpt>
      <trkpt lat="43.31193423829972743988037109375" lon="-1.66714704595506191253662109375">
        <ele>163</ele>
        <time>2020-08-23T11:19:43.000Z</time>
      </trkpt>
      <trkpt lat="43.31191646866500377655029296875" lon="-1.667224578559398651123046875">
        <ele>162.399993896484375</ele>
        <time>2020-08-23T11:19:51.000Z</time>
      </trkpt>
      <trkpt lat="43.31190037541091442108154296875" lon="-1.667242012917995452880859375">
        <ele>162.1999969482421875</ele>
        <time>2020-08-23T11:19:58.000Z</time>
      </trkpt>
      <trkpt lat="43.31189769320189952850341796875" lon="-1.66724435985088348388671875">
        <ele>161.8000030517578125</ele>
        <time>2020-08-23T11:20:02.000Z</time>
      </trkpt>
      <trkpt lat="43.31187757663428783416748046875" lon="-1.66727612726390361785888671875">
        <ele>161.8000030517578125</ele>
        <time>2020-08-23T11:20:06.000Z</time>
      </trkpt>
      <trkpt lat="43.31187355332076549530029296875" lon="-1.66729263961315155029296875">
        <ele>161.600006103515625</ele>
        <time>2020-08-23T11:20:13.000Z</time>
      </trkpt>
      <trkpt lat="43.31186416558921337127685546875" lon="-1.66734762489795684814453125">
        <ele>161.600006103515625</ele>
        <time>2020-08-23T11:20:16.000Z</time>
      </trkpt>
      <trkpt lat="43.3118181489408016204833984375" lon="-1.6674125008285045623779296875">
        <ele>161.600006103515625</ele>
        <time>2020-08-23T11:20:20.000Z</time>
      </trkpt>
      <trkpt lat="43.31177674233913421630859375" lon="-1.66745097376406192779541015625">
        <ele>161.600006103515625</ele>
        <time>2020-08-23T11:20:24.000Z</time>
      </trkpt>
      <trkpt lat="43.31174447201192378997802734375" lon="-1.66748198680579662322998046875">
        <ele>161.1999969482421875</ele>
        <time>2020-08-23T11:20:28.000Z</time>
      </trkpt>
      <trkpt lat="43.31171664409339427947998046875" lon="-1.66749187745153903961181640625">
        <ele>160.8000030517578125</ele>
        <time>2020-08-23T11:20:31.000Z</time>
      </trkpt>
      <trkpt lat="43.31169619224965572357177734375" lon="-1.6675593517720699310302734375">
        <ele>160.600006103515625</ele>
        <time>2020-08-23T11:20:35.000Z</time>
      </trkpt>
      <trkpt lat="43.31163433380424976348876953125" lon="-1.66759296320378780364990234375">
        <ele>160.1999969482421875</ele>
        <time>2020-08-23T11:20:43.000Z</time>
      </trkpt>
      <trkpt lat="43.31161069683730602264404296875" lon="-1.6675999201834201812744140625">
        <ele>159.600006103515625</ele>
        <time>2020-08-23T11:20:45.000Z</time>
      </trkpt>
      <trkpt lat="43.31157817505300045013427734375" lon="-1.6676173545420169830322265625">
        <ele>158.8000030517578125</ele>
        <time>2020-08-23T11:20:51.000Z</time>
      </trkpt>
      <trkpt lat="43.31157968379557132720947265625" lon="-1.66762380860745906829833984375">
        <ele>158.8000030517578125</ele>
        <time>2020-08-23T11:20:53.000Z</time>
      </trkpt>
      <trkpt lat="43.311579935252666473388671875" lon="-1.6676223836839199066162109375">
        <ele>159</ele>
        <time>2020-08-23T11:22:34.000Z</time>
      </trkpt>
      <trkpt lat="43.31157247535884380340576171875" lon="-1.6676580905914306640625">
        <ele>159</ele>
        <time>2020-08-23T11:22:40.000Z</time>
      </trkpt>
      <trkpt lat="43.31158387474715709686279296875" lon="-1.6677048616111278533935546875">
        <ele>158.600006103515625</ele>
        <time>2020-08-23T11:22:42.000Z</time>
      </trkpt>
      <trkpt lat="43.31159862689673900604248046875" lon="-1.6677306778728961944580078125">
        <ele>158.600006103515625</ele>
        <time>2020-08-23T11:22:43.000Z</time>
      </trkpt>
      <trkpt lat="43.3116166479885578155517578125" lon="-1.66776068508625030517578125">
        <ele>158.399993896484375</ele>
        <time>2020-08-23T11:22:44.000Z</time>
      </trkpt>
      <trkpt lat="43.31169351004064083099365234375" lon="-1.667787171900272369384765625">
        <ele>157.8000030517578125</ele>
        <time>2020-08-23T11:22:48.000Z</time>
      </trkpt>
      <trkpt lat="43.31178587861359119415283203125" lon="-1.66771550662815570831298828125">
        <ele>157.399993896484375</ele>
        <time>2020-08-23T11:22:52.000Z</time>
      </trkpt>
      <trkpt lat="43.31180633045732975006103515625" lon="-1.6676897741854190826416015625">
        <ele>157</ele>
        <time>2020-08-23T11:22:53.000Z</time>
      </trkpt>
      <trkpt lat="43.3118235133588314056396484375" lon="-1.667665131390094757080078125">
        <ele>157</ele>
        <time>2020-08-23T11:22:54.000Z</time>
      </trkpt>
      <trkpt lat="43.311933316290378570556640625" lon="-1.667540073394775390625">
        <ele>156.1999969482421875</ele>
        <time>2020-08-23T11:22:59.000Z</time>
      </trkpt>
      <trkpt lat="43.31206449307501316070556640625" lon="-1.66741468012332916259765625">
        <ele>156</ele>
        <time>2020-08-23T11:23:04.000Z</time>
      </trkpt>
      <trkpt lat="43.31216826103627681732177734375" lon="-1.66733086109161376953125">
        <ele>156.1999969482421875</ele>
        <time>2020-08-23T11:23:09.000Z</time>
      </trkpt>
      <trkpt lat="43.312298767268657684326171875" lon="-1.66730068624019622802734375">
        <ele>156.1999969482421875</ele>
        <time>2020-08-23T11:23:17.000Z</time>
      </trkpt>
      <trkpt lat="43.3123589493334293365478515625" lon="-1.6673350520431995391845703125">
        <ele>157.600006103515625</ele>
        <time>2020-08-23T11:23:22.000Z</time>
      </trkpt>
      <trkpt lat="43.3123696781694889068603515625" lon="-1.66734418831765651702880859375">
        <ele>158</ele>
        <time>2020-08-23T11:23:23.000Z</time>
      </trkpt>
      <trkpt lat="43.31237680278718471527099609375" lon="-1.66734762489795684814453125">
        <ele>158.1999969482421875</ele>
        <time>2020-08-23T11:23:24.000Z</time>
      </trkpt>
      <trkpt lat="43.31241376698017120361328125" lon="-1.66736480779945850372314453125">
        <ele>158.8000030517578125</ele>
        <time>2020-08-23T11:23:27.000Z</time>
      </trkpt>
      <trkpt lat="43.312434218823909759521484375" lon="-1.6673809848725795745849609375">
        <ele>159.600006103515625</ele>
        <time>2020-08-23T11:23:29.000Z</time>
      </trkpt>
      <trkpt lat="43.312440924346446990966796875" lon="-1.66738844476640224456787109375">
        <ele>160.1999969482421875</ele>
        <time>2020-08-23T11:23:30.000Z</time>
      </trkpt>
      <trkpt lat="43.3124830015003681182861328125" lon="-1.6674222238361835479736328125">
        <ele>161.1999969482421875</ele>
        <time>2020-08-23T11:23:34.000Z</time>
      </trkpt>
      <trkpt lat="43.31249197013676166534423828125" lon="-1.66742918081581592559814453125">
        <ele>161.399993896484375</ele>
        <time>2020-08-23T11:23:35.000Z</time>
      </trkpt>
      <trkpt lat="43.31252197735011577606201171875" lon="-1.6674557514488697052001953125">
        <ele>162.1999969482421875</ele>
        <time>2020-08-23T11:23:38.000Z</time>
      </trkpt>
      <trkpt lat="43.3125458657741546630859375" lon="-1.667477376759052276611328125">
        <ele>162.600006103515625</ele>
        <time>2020-08-23T11:23:40.000Z</time>
      </trkpt>
      <trkpt lat="43.31256170757114887237548828125" lon="-1.66751123964786529541015625">
        <ele>162.8000030517578125</ele>
        <time>2020-08-23T11:23:43.000Z</time>
      </trkpt>
      <trkpt lat="43.312577046453952789306640625" lon="-1.66753948666155338287353515625">
        <ele>163</ele>
        <time>2020-08-23T11:23:45.000Z</time>
      </trkpt>
      <trkpt lat="43.312583081424236297607421875" lon="-1.66755759157240390777587890625">
        <ele>163.399993896484375</ele>
        <time>2020-08-23T11:23:46.000Z</time>
      </trkpt>
      <trkpt lat="43.31259355880320072174072265625" lon="-1.66759011335670948028564453125">
        <ele>163.8000030517578125</ele>
        <time>2020-08-23T11:23:48.000Z</time>
      </trkpt>
      <trkpt lat="43.31261493265628814697265625" lon="-1.6676280833780765533447265625">
        <ele>164.399993896484375</ele>
        <time>2020-08-23T11:23:51.000Z</time>
      </trkpt>
      <trkpt lat="43.3126244880259037017822265625" lon="-1.6676736809313297271728515625">
        <ele>164.8000030517578125</ele>
        <time>2020-08-23T11:23:54.000Z</time>
      </trkpt>
      <trkpt lat="43.31263429485261440277099609375" lon="-1.667719781398773193359375">
        <ele>165.399993896484375</ele>
        <time>2020-08-23T11:23:57.000Z</time>
      </trkpt>
      <trkpt lat="43.31263714469969272613525390625" lon="-1.667733527719974517822265625">
        <ele>165.399993896484375</ele>
        <time>2020-08-23T11:23:58.000Z</time>
      </trkpt>
      <trkpt lat="43.31263764761388301849365234375" lon="-1.6677631996572017669677734375">
        <ele>165.8000030517578125</ele>
        <time>2020-08-23T11:24:00.000Z</time>
      </trkpt>
      <trkpt lat="43.3126318641006946563720703125" lon="-1.667816676199436187744140625">
        <ele>166.8000030517578125</ele>
        <time>2020-08-23T11:24:03.000Z</time>
      </trkpt>
      <trkpt lat="43.31262406893074512481689453125" lon="-1.66788331232964992523193359375">
        <ele>167.600006103515625</ele>
        <time>2020-08-23T11:24:08.000Z</time>
      </trkpt>
      <trkpt lat="43.312618620693683624267578125" lon="-1.66789345443248748779296875">
        <ele>168</ele>
        <time>2020-08-23T11:24:09.000Z</time>
      </trkpt>
      <trkpt lat="43.31257478334009647369384765625" lon="-1.66791767813265323638916015625">
        <ele>168.8000030517578125</ele>
        <time>2020-08-23T11:24:14.000Z</time>
      </trkpt>
      <trkpt lat="43.312563635408878326416015625" lon="-1.66791700758039951324462890625">
        <ele>169</ele>
        <time>2020-08-23T11:24:15.000Z</time>
      </trkpt>
      <trkpt lat="43.31250672228634357452392578125" lon="-1.66792295873165130615234375">
        <ele>170.1999969482421875</ele>
        <time>2020-08-23T11:24:20.000Z</time>
      </trkpt>
      <trkpt lat="43.31248006783425807952880859375" lon="-1.6679311729967594146728515625">
        <ele>170.600006103515625</ele>
        <time>2020-08-23T11:24:22.000Z</time>
      </trkpt>
      <trkpt lat="43.3124340511858463287353515625" lon="-1.66793729178607463836669921875">
        <ele>171.600006103515625</ele>
        <time>2020-08-23T11:24:26.000Z</time>
      </trkpt>
      <trkpt lat="43.31236473284661769866943359375" lon="-1.66793645359575748443603515625">
        <ele>172.600006103515625</ele>
        <time>2020-08-23T11:24:32.000Z</time>
      </trkpt>
      <trkpt lat="43.3123522438108921051025390625" lon="-1.6679368726909160614013671875">
        <ele>172.8000030517578125</ele>
        <time>2020-08-23T11:24:33.000Z</time>
      </trkpt>
      <trkpt lat="43.312293402850627899169921875" lon="-1.667941398918628692626953125">
        <ele>173.8000030517578125</ele>
        <time>2020-08-23T11:24:38.000Z</time>
      </trkpt>
      <trkpt lat="43.3122825063765048980712890625" lon="-1.66794307529926300048828125">
        <ele>173.8000030517578125</ele>
        <time>2020-08-23T11:24:39.000Z</time>
      </trkpt>
      <trkpt lat="43.3122348971664905548095703125" lon="-1.6679452545940876007080078125">
        <ele>174.8000030517578125</ele>
        <time>2020-08-23T11:24:44.000Z</time>
      </trkpt>
      <trkpt lat="43.3122154511511325836181640625" lon="-1.66795137338340282440185546875">
        <ele>175.1999969482421875</ele>
        <time>2020-08-23T11:24:46.000Z</time>
      </trkpt>
      <trkpt lat="43.31220447085797786712646484375" lon="-1.66795648634433746337890625">
        <ele>175.399993896484375</ele>
        <time>2020-08-23T11:24:47.000Z</time>
      </trkpt>
      <trkpt lat="43.312176726758480072021484375" lon="-1.66798205114901065826416015625">
        <ele>176</ele>
        <time>2020-08-23T11:24:51.000Z</time>
      </trkpt>
      <trkpt lat="43.31217102706432342529296875" lon="-1.6679893434047698974609375">
        <ele>176.1999969482421875</ele>
        <time>2020-08-23T11:24:52.000Z</time>
      </trkpt>
      <trkpt lat="43.312158286571502685546875" lon="-1.6680418141186237335205078125">
        <ele>177.1999969482421875</ele>
        <time>2020-08-23T11:24:56.000Z</time>
      </trkpt>
      <trkpt lat="43.3121604658663272857666015625" lon="-1.66807324625551700592041015625">
        <ele>177.600006103515625</ele>
        <time>2020-08-23T11:24:58.000Z</time>
      </trkpt>
      <trkpt lat="43.3121765591204166412353515625" lon="-1.668121777474880218505859375">
        <ele>178.1999969482421875</ele>
        <time>2020-08-23T11:25:02.000Z</time>
      </trkpt>
      <trkpt lat="43.3121973462402820587158203125" lon="-1.66815790347754955291748046875">
        <ele>178.8000030517578125</ele>
        <time>2020-08-23T11:25:05.000Z</time>
      </trkpt>
      <trkpt lat="43.31222978420555591583251953125" lon="-1.66820324957370758056640625">
        <ele>179.399993896484375</ele>
        <time>2020-08-23T11:25:09.000Z</time>
      </trkpt>
      <trkpt lat="43.312265239655971527099609375" lon="-1.66824675165116786956787109375">
        <ele>179.8000030517578125</ele>
        <time>2020-08-23T11:25:13.000Z</time>
      </trkpt>
      <trkpt lat="43.312316872179508209228515625" lon="-1.66829117573797702789306640625">
        <ele>180.399993896484375</ele>
        <time>2020-08-23T11:25:18.000Z</time>
      </trkpt>
      <trkpt lat="43.31234428100287914276123046875" lon="-1.668322272598743438720703125">
        <ele>180.8000030517578125</ele>
        <time>2020-08-23T11:25:21.000Z</time>
      </trkpt>
      <trkpt lat="43.312363140285015106201171875" lon="-1.66834138333797454833984375">
        <ele>181.399993896484375</ele>
        <time>2020-08-23T11:25:23.000Z</time>
      </trkpt>
      <trkpt lat="43.31240831874310970306396484375" lon="-1.66839100420475006103515625">
        <ele>182</ele>
        <time>2020-08-23T11:25:28.000Z</time>
      </trkpt>
      <trkpt lat="43.31244234926998615264892578125" lon="-1.668436937034130096435546875">
        <ele>182.600006103515625</ele>
        <time>2020-08-23T11:25:32.000Z</time>
      </trkpt>
      <trkpt lat="43.31247218884527683258056640625" lon="-1.66846602223813533782958984375">
        <ele>183.1999969482421875</ele>
        <time>2020-08-23T11:25:35.000Z</time>
      </trkpt>
      <trkpt lat="43.31250353716313838958740234375" lon="-1.668496616184711456298828125">
        <ele>183.8000030517578125</ele>
        <time>2020-08-23T11:25:38.000Z</time>
      </trkpt>
      <trkpt lat="43.31252080388367176055908203125" lon="-1.6685534454882144927978515625">
        <ele>184.1999969482421875</ele>
        <time>2020-08-23T11:25:42.000Z</time>
      </trkpt>
      <trkpt lat="43.31252080388367176055908203125" lon="-1.66856937110424041748046875">
        <ele>184.399993896484375</ele>
        <time>2020-08-23T11:25:43.000Z</time>
      </trkpt>
      <trkpt lat="43.31250898540019989013671875" lon="-1.668595187366008758544921875">
        <ele>185</ele>
        <time>2020-08-23T11:25:45.000Z</time>
      </trkpt>
      <trkpt lat="43.31248794682323932647705078125" lon="-1.66860801167786121368408203125">
        <ele>185.1999969482421875</ele>
        <time>2020-08-23T11:25:47.000Z</time>
      </trkpt>
      <trkpt lat="43.3124439418315887451171875" lon="-1.66860717348754405975341796875">
        <ele>186</ele>
        <time>2020-08-23T11:25:51.000Z</time>
      </trkpt>
      <trkpt lat="43.312430866062641143798828125" lon="-1.66860499419271945953369140625">
        <ele>186.1999969482421875</ele>
        <time>2020-08-23T11:25:52.000Z</time>
      </trkpt>
      <trkpt lat="43.31240915693342685699462890625" lon="-1.66860013268887996673583984375">
        <ele>186.600006103515625</ele>
        <time>2020-08-23T11:25:54.000Z</time>
      </trkpt>
      <trkpt lat="43.3123566024005413055419921875" lon="-1.6685859672725200653076171875">
        <ele>187.399993896484375</ele>
        <time>2020-08-23T11:25:58.000Z</time>
      </trkpt>
      <trkpt lat="43.31233061850070953369140625" lon="-1.66857607662677764892578125">
        <ele>187.8000030517578125</ele>
        <time>2020-08-23T11:26:00.000Z</time>
      </trkpt>
      <trkpt lat="43.31227638758718967437744140625" lon="-1.6685635037720203399658203125">
        <ele>188.399993896484375</ele>
        <time>2020-08-23T11:26:04.000Z</time>
      </trkpt>
      <trkpt lat="43.31223883666098117828369140625" lon="-1.6685685329139232635498046875">
        <ele>189</ele>
        <time>2020-08-23T11:26:07.000Z</time>
      </trkpt>
      <trkpt lat="43.31218921579420566558837890625" lon="-1.668560989201068878173828125">
        <ele>189.399993896484375</ele>
        <time>2020-08-23T11:26:11.000Z</time>
      </trkpt>
      <trkpt lat="43.31212920136749744415283203125" lon="-1.6685713827610015869140625">
        <ele>190.1999969482421875</ele>
        <time>2020-08-23T11:26:16.000Z</time>
      </trkpt>
      <trkpt lat="43.31210263073444366455078125" lon="-1.6685812734067440032958984375">
        <ele>190.600006103515625</ele>
        <time>2020-08-23T11:26:18.000Z</time>
      </trkpt>
      <trkpt lat="43.3120307140052318572998046875" lon="-1.66861957870423793792724609375">
        <ele>191.600006103515625</ele>
        <time>2020-08-23T11:26:24.000Z</time>
      </trkpt>
      <trkpt lat="43.31201872788369655609130859375" lon="-1.6686245240271091461181640625">
        <ele>192</ele>
        <time>2020-08-23T11:26:25.000Z</time>
      </trkpt>
      <trkpt lat="43.311964832246303558349609375" lon="-1.66866324841976165771484375">
        <ele>192.8000030517578125</ele>
        <time>2020-08-23T11:26:30.000Z</time>
      </trkpt>
      <trkpt lat="43.3119370043277740478515625" lon="-1.66869116015732288360595703125">
        <ele>193.1999969482421875</ele>
        <time>2020-08-23T11:26:33.000Z</time>
      </trkpt>
      <trkpt lat="43.31189936958253383636474609375" lon="-1.66872904635965824127197265625">
        <ele>194</ele>
        <time>2020-08-23T11:26:37.000Z</time>
      </trkpt>
      <trkpt lat="43.31184513866901397705078125" lon="-1.6687696985900402069091796875">
        <ele>195.1999969482421875</ele>
        <time>2020-08-23T11:26:42.000Z</time>
      </trkpt>
      <trkpt lat="43.3118352480232715606689453125" lon="-1.66877917014062404632568359375">
        <ele>195.399993896484375</ele>
        <time>2020-08-23T11:26:43.000Z</time>
      </trkpt>
      <trkpt lat="43.3117678575217723846435546875" lon="-1.668824516236782073974609375">
        <ele>196.399993896484375</ele>
        <time>2020-08-23T11:26:49.000Z</time>
      </trkpt>
      <trkpt lat="43.31171127967536449432373046875" lon="-1.668878495693206787109375">
        <ele>197.600006103515625</ele>
        <time>2020-08-23T11:26:55.000Z</time>
      </trkpt>
      <trkpt lat="43.31170088611543178558349609375" lon="-1.6688877157866954803466796875">
        <ele>197.600006103515625</ele>
        <time>2020-08-23T11:26:56.000Z</time>
      </trkpt>
      <trkpt lat="43.31164933741092681884765625" lon="-1.66895426809787750244140625">
        <ele>198.8000030517578125</ele>
        <time>2020-08-23T11:27:02.000Z</time>
      </trkpt>
      <trkpt lat="43.3116407878696918487548828125" lon="-1.66896625421941280364990234375">
        <ele>199</ele>
        <time>2020-08-23T11:27:03.000Z</time>
      </trkpt>
      <trkpt lat="43.3115777559578418731689453125" lon="-1.66901721619069576263427734375">
        <ele>199.8000030517578125</ele>
        <time>2020-08-23T11:27:09.000Z</time>
      </trkpt>
      <trkpt lat="43.31149603240191936492919921875" lon="-1.669041104614734649658203125">
        <ele>200.8000030517578125</ele>
        <time>2020-08-23T11:27:16.000Z</time>
      </trkpt>
      <trkpt lat="43.31140659749507904052734375" lon="-1.669003553688526153564453125">
        <ele>201.8000030517578125</ele>
        <time>2020-08-23T11:27:23.000Z</time>
      </trkpt>
      <trkpt lat="43.31138312816619873046875" lon="-1.66898368857800960540771484375">
        <ele>202</ele>
        <time>2020-08-23T11:27:25.000Z</time>
      </trkpt>
      <trkpt lat="43.3113239519298076629638671875" lon="-1.66893892921507358551025390625">
        <ele>202.8000030517578125</ele>
        <time>2020-08-23T11:27:30.000Z</time>
      </trkpt>
      <trkpt lat="43.31127248704433441162109375" lon="-1.66891160421073436737060546875">
        <ele>203.600006103515625</ele>
        <time>2020-08-23T11:27:34.000Z</time>
      </trkpt>
      <trkpt lat="43.3112468384206295013427734375" lon="-1.668898947536945343017578125">
        <ele>204.1999969482421875</ele>
        <time>2020-08-23T11:27:36.000Z</time>
      </trkpt>
      <trkpt lat="43.31116829998791217803955078125" lon="-1.66889199055731296539306640625">
        <ele>205.1999969482421875</ele>
        <time>2020-08-23T11:27:42.000Z</time>
      </trkpt>
      <trkpt lat="43.31114499829709529876708984375" lon="-1.66889869607985019683837890625">
        <ele>205.8000030517578125</ele>
        <time>2020-08-23T11:27:44.000Z</time>
      </trkpt>
      <trkpt lat="43.31112957559525966644287109375" lon="-1.66892149485647678375244140625">
        <ele>206.1999969482421875</ele>
        <time>2020-08-23T11:27:46.000Z</time>
      </trkpt>
      <trkpt lat="43.3111087046563625335693359375" lon="-1.66898779571056365966796875">
        <ele>207</ele>
        <time>2020-08-23T11:27:50.000Z</time>
      </trkpt>
      <trkpt lat="43.31110208295285701751708984375" lon="-1.66900414042174816131591796875">
        <ele>207.1999969482421875</ele>
        <time>2020-08-23T11:27:51.000Z</time>
      </trkpt>
      <trkpt lat="43.31109948456287384033203125" lon="-1.66902207769453525543212890625">
        <ele>207.399993896484375</ele>
        <time>2020-08-23T11:27:52.000Z</time>
      </trkpt>
      <trkpt lat="43.31110023893415927886962890625" lon="-1.66909432969987392425537109375">
        <ele>208</ele>
        <time>2020-08-23T11:27:56.000Z</time>
      </trkpt>
      <trkpt lat="43.311097137629985809326171875" lon="-1.6691116802394390106201171875">
        <ele>208.1999969482421875</ele>
        <time>2020-08-23T11:27:57.000Z</time>
      </trkpt>
      <trkpt lat="43.31109412014484405517578125" lon="-1.6691287793219089508056640625">
        <ele>208.399993896484375</ele>
        <time>2020-08-23T11:27:58.000Z</time>
      </trkpt>
      <trkpt lat="43.3110939525067806243896484375" lon="-1.669146381318569183349609375">
        <ele>208.600006103515625</ele>
        <time>2020-08-23T11:27:59.000Z</time>
      </trkpt>
      <trkpt lat="43.3111083693802356719970703125" lon="-1.66920916177332401275634765625">
        <ele>209.1999969482421875</ele>
        <time>2020-08-23T11:28:03.000Z</time>
      </trkpt>
      <trkpt lat="43.31111599691212177276611328125" lon="-1.669242270290851593017578125">
        <ele>209.600006103515625</ele>
        <time>2020-08-23T11:28:05.000Z</time>
      </trkpt>
      <trkpt lat="43.3111402206122875213623046875" lon="-1.66930119507014751434326171875">
        <ele>210.8000030517578125</ele>
        <time>2020-08-23T11:28:09.000Z</time>
      </trkpt>
      <trkpt lat="43.3111529611051082611083984375" lon="-1.66932902298867702484130859375">
        <ele>211</ele>
        <time>2020-08-23T11:28:11.000Z</time>
      </trkpt>
      <trkpt lat="43.31117584370076656341552734375" lon="-1.6693862713873386383056640625">
        <ele>211.1999969482421875</ele>
        <time>2020-08-23T11:28:15.000Z</time>
      </trkpt>
      <trkpt lat="43.311187326908111572265625" lon="-1.6694288514554500579833984375">
        <ele>211.8000030517578125</ele>
        <time>2020-08-23T11:28:18.000Z</time>
      </trkpt>
      <trkpt lat="43.31126955337822437286376953125" lon="-1.66956438682973384857177734375">
        <ele>212.8000030517578125</ele>
        <time>2020-08-23T11:28:27.000Z</time>
      </trkpt>
      <trkpt lat="43.3112807013094425201416015625" lon="-1.669580228626728057861328125">
        <ele>213</ele>
        <time>2020-08-23T11:28:28.000Z</time>
      </trkpt>
      <trkpt lat="43.3113179169595241546630859375" lon="-1.66963999159634113311767578125">
        <ele>213.399993896484375</ele>
        <time>2020-08-23T11:28:33.000Z</time>
      </trkpt>
      <trkpt lat="43.31136678345501422882080078125" lon="-1.66973403654992580413818359375">
        <ele>214</ele>
        <time>2020-08-23T11:28:39.000Z</time>
      </trkpt>
      <trkpt lat="43.311419002711772918701171875" lon="-1.6697929613292217254638671875">
        <ele>214.399993896484375</ele>
        <time>2020-08-23T11:28:43.000Z</time>
      </trkpt>
      <trkpt lat="43.31145110540091991424560546875" lon="-1.66980796493589878082275390625">
        <ele>214.399993896484375</ele>
        <time>2020-08-23T11:28:45.000Z</time>
      </trkpt>
      <trkpt lat="43.31150810234248638153076171875" lon="-1.66983830742537975311279296875">
        <ele>215</ele>
        <time>2020-08-23T11:28:48.000Z</time>
      </trkpt>
      <trkpt lat="43.31160080619156360626220703125" lon="-1.66985741816461086273193359375">
        <ele>215.600006103515625</ele>
        <time>2020-08-23T11:28:53.000Z</time>
      </trkpt>
      <trkpt lat="43.31164523027837276458740234375" lon="-1.66984434239566326141357421875">
        <ele>216.1999969482421875</ele>
        <time>2020-08-23T11:28:56.000Z</time>
      </trkpt>
      <trkpt lat="43.311671800911426544189453125" lon="-1.669829003512859344482421875">
        <ele>216.8000030517578125</ele>
        <time>2020-08-23T11:28:58.000Z</time>
      </trkpt>
      <trkpt lat="43.31173474900424480438232421875" lon="-1.6697986610233783721923828125">
        <ele>217.399993896484375</ele>
        <time>2020-08-23T11:29:02.000Z</time>
      </trkpt>
      <trkpt lat="43.31176257692277431488037109375" lon="-1.66978483088314533233642578125">
        <ele>217.600006103515625</ele>
        <time>2020-08-23T11:29:04.000Z</time>
      </trkpt>
      <trkpt lat="43.3118644170463085174560546875" lon="-1.6697597689926624298095703125">
        <ele>218.399993896484375</ele>
        <time>2020-08-23T11:29:10.000Z</time>
      </trkpt>
      <trkpt lat="43.31197028048336505889892578125" lon="-1.669758595526218414306640625">
        <ele>218.8000030517578125</ele>
        <time>2020-08-23T11:29:16.000Z</time>
      </trkpt>
      <trkpt lat="43.31198318861424922943115234375" lon="-1.66982724331319332122802734375">
        <ele>219.600006103515625</ele>
        <time>2020-08-23T11:29:20.000Z</time>
      </trkpt>
      <trkpt lat="43.3119613118469715118408203125" lon="-1.6698432527482509613037109375">
        <ele>220</ele>
        <time>2020-08-23T11:29:22.000Z</time>
      </trkpt>
      <trkpt lat="43.3119264431297779083251953125" lon="-1.66984685696661472320556640625">
        <ele>220.8000030517578125</ele>
        <time>2020-08-23T11:29:25.000Z</time>
      </trkpt>
      <trkpt lat="43.311850167810916900634765625" lon="-1.66985959745943546295166015625">
        <ele>222</ele>
        <time>2020-08-23T11:29:31.000Z</time>
      </trkpt>
      <trkpt lat="43.31182636320590972900390625" lon="-1.669881641864776611328125">
        <ele>222.1999969482421875</ele>
        <time>2020-08-23T11:29:33.000Z</time>
      </trkpt>
      <trkpt lat="43.31177649088203907012939453125" lon="-1.6699253953993320465087890625">
        <ele>223</ele>
        <time>2020-08-23T11:29:37.000Z</time>
      </trkpt>
      <trkpt lat="43.31174531020224094390869140625" lon="-1.66996420361101627349853515625">
        <ele>223.399993896484375</ele>
        <time>2020-08-23T11:29:40.000Z</time>
      </trkpt>
      <trkpt lat="43.311657048761844635009765625" lon="-1.67008071206510066986083984375">
        <ele>224</ele>
        <time>2020-08-23T11:29:48.000Z</time>
      </trkpt>
      <trkpt lat="43.311567194759845733642578125" lon="-1.67013175785541534423828125">
        <ele>225.1999969482421875</ele>
        <time>2020-08-23T11:29:54.000Z</time>
      </trkpt>
      <trkpt lat="43.31155185587704181671142578125" lon="-1.67013854719698429107666015625">
        <ele>225.399993896484375</ele>
        <time>2020-08-23T11:29:55.000Z</time>
      </trkpt>
      <trkpt lat="43.31146099604666233062744140625" lon="-1.670172996819019317626953125">
        <ele>226.399993896484375</ele>
        <time>2020-08-23T11:30:01.000Z</time>
      </trkpt>
      <trkpt lat="43.31144456751644611358642578125" lon="-1.6701753437519073486328125">
        <ele>226.600006103515625</ele>
        <time>2020-08-23T11:30:02.000Z</time>
      </trkpt>
      <trkpt lat="43.3113353513181209564208984375" lon="-1.67021549306809902191162109375">
        <ele>227.600006103515625</ele>
        <time>2020-08-23T11:30:09.000Z</time>
      </trkpt>
      <trkpt lat="43.31127583980560302734375" lon="-1.67024650610983371734619140625">
        <ele>228.600006103515625</ele>
        <time>2020-08-23T11:30:13.000Z</time>
      </trkpt>
      <trkpt lat="43.311198055744171142578125" lon="-1.67028573341667652130126953125">
        <ele>229.8000030517578125</ele>
        <time>2020-08-23T11:30:18.000Z</time>
      </trkpt>
      <trkpt lat="43.31107442267239093780517578125" lon="-1.67030300013720989227294921875">
        <ele>230.8000030517578125</ele>
        <time>2020-08-23T11:30:26.000Z</time>
      </trkpt>
      <trkpt lat="43.310980461537837982177734375" lon="-1.67029277421534061431884765625">
        <ele>232</ele>
        <time>2020-08-23T11:30:32.000Z</time>
      </trkpt>
      <trkpt lat="43.31096814014017581939697265625" lon="-1.67029025964438915252685546875">
        <ele>232.399993896484375</ele>
        <time>2020-08-23T11:30:33.000Z</time>
      </trkpt>
      <trkpt lat="43.31090829335153102874755859375" lon="-1.67026947252452373504638671875">
        <ele>233</ele>
        <time>2020-08-23T11:30:37.000Z</time>
      </trkpt>
      <trkpt lat="43.3108498714864253997802734375" lon="-1.6702727414667606353759765625">
        <ele>233.8000030517578125</ele>
        <time>2020-08-23T11:30:41.000Z</time>
      </trkpt>
      <trkpt lat="43.31080502830445766448974609375" lon="-1.670288331806659698486328125">
        <ele>234</ele>
        <time>2020-08-23T11:30:44.000Z</time>
      </trkpt>
      <trkpt lat="43.31071852706372737884521484375" lon="-1.67033351026475429534912109375">
        <ele>235.1999969482421875</ele>
        <time>2020-08-23T11:30:50.000Z</time>
      </trkpt>
      <trkpt lat="43.3106440119445323944091796875" lon="-1.6703853942453861236572265625">
        <ele>236.399993896484375</ele>
        <time>2020-08-23T11:30:55.000Z</time>
      </trkpt>
      <trkpt lat="43.3106007613241672515869140625" lon="-1.67042143642902374267578125">
        <ele>236.8000030517578125</ele>
        <time>2020-08-23T11:30:58.000Z</time>
      </trkpt>
      <trkpt lat="43.31055792979896068572998046875" lon="-1.67044582776725292205810546875">
        <ele>237.600006103515625</ele>
        <time>2020-08-23T11:31:01.000Z</time>
      </trkpt>
      <trkpt lat="43.310490287840366363525390625" lon="-1.67048304341733455657958984375">
        <ele>238.600006103515625</ele>
        <time>2020-08-23T11:31:06.000Z</time>
      </trkpt>
      <trkpt lat="43.310473859310150146484375" lon="-1.67048673145473003387451171875">
        <ele>238.600006103515625</ele>
        <time>2020-08-23T11:31:07.000Z</time>
      </trkpt>
      <trkpt lat="43.310430608689785003662109375" lon="-1.67050634510815143585205078125">
        <ele>239</ele>
        <time>2020-08-23T11:31:10.000Z</time>
      </trkpt>
      <trkpt lat="43.3104170300066471099853515625" lon="-1.67051254771649837493896484375">
        <ele>239.399993896484375</ele>
        <time>2020-08-23T11:31:11.000Z</time>
      </trkpt>
      <trkpt lat="43.310402445495128631591796875" lon="-1.67051657103002071380615234375">
        <ele>239.600006103515625</ele>
        <time>2020-08-23T11:31:12.000Z</time>
      </trkpt>
      <trkpt lat="43.3103513158857822418212890625" lon="-1.67051673866808414459228515625">
        <ele>240.600006103515625</ele>
        <time>2020-08-23T11:31:15.000Z</time>
      </trkpt>
      <trkpt lat="43.3102886192500591278076171875" lon="-1.6705241985619068145751953125">
        <ele>241.1999969482421875</ele>
        <time>2020-08-23T11:31:19.000Z</time>
      </trkpt>
      <trkpt lat="43.31023807637393474578857421875" lon="-1.6705312393605709075927734375">
        <ele>241.8000030517578125</ele>
        <time>2020-08-23T11:31:22.000Z</time>
      </trkpt>
      <trkpt lat="43.31015828065574169158935546875" lon="-1.67053551413118839263916015625">
        <ele>242.600006103515625</ele>
        <time>2020-08-23T11:31:27.000Z</time>
      </trkpt>
      <trkpt lat="43.31013120710849761962890625" lon="-1.670535765588283538818359375">
        <ele>243.1999969482421875</ele>
        <time>2020-08-23T11:31:29.000Z</time>
      </trkpt>
      <trkpt lat="43.3100908063352108001708984375" lon="-1.67055479250848293304443359375">
        <ele>243.8000030517578125</ele>
        <time>2020-08-23T11:31:32.000Z</time>
      </trkpt>
      <trkpt lat="43.3100136928260326385498046875" lon="-1.67058295570313930511474609375">
        <ele>244.399993896484375</ele>
        <time>2020-08-23T11:31:37.000Z</time>
      </trkpt>
      <trkpt lat="43.309972621500492095947265625" lon="-1.6706157289445400238037109375">
        <ele>245.1999969482421875</ele>
        <time>2020-08-23T11:31:40.000Z</time>
      </trkpt>
      <trkpt lat="43.3099359087646007537841796875" lon="-1.67065286077558994293212890625">
        <ele>245.600006103515625</ele>
        <time>2020-08-23T11:31:43.000Z</time>
      </trkpt>
      <trkpt lat="43.30989307723939418792724609375" lon="-1.6707089357078075408935546875">
        <ele>246.1999969482421875</ele>
        <time>2020-08-23T11:31:47.000Z</time>
      </trkpt>
      <trkpt lat="43.30986591987311840057373046875" lon="-1.67073047719895839691162109375">
        <ele>246.600006103515625</ele>
        <time>2020-08-23T11:31:49.000Z</time>
      </trkpt>
      <trkpt lat="43.309809006750583648681640625" lon="-1.6707746498286724090576171875">
        <ele>247</ele>
        <time>2020-08-23T11:31:53.000Z</time>
      </trkpt>
      <trkpt lat="43.30974739976227283477783203125" lon="-1.67084279470145702362060546875">
        <ele>247.600006103515625</ele>
        <time>2020-08-23T11:31:58.000Z</time>
      </trkpt>
      <trkpt lat="43.3097401075065135955810546875" lon="-1.670859642326831817626953125">
        <ele>247.8000030517578125</ele>
        <time>2020-08-23T11:31:59.000Z</time>
      </trkpt>
      <trkpt lat="43.3096831105649471282958984375" lon="-1.67092443443834781646728515625">
        <ele>248.600006103515625</ele>
        <time>2020-08-23T11:32:04.000Z</time>
      </trkpt>
      <trkpt lat="43.309660814702510833740234375" lon="-1.67095410637557506561279296875">
        <ele>249</ele>
        <time>2020-08-23T11:32:06.000Z</time>
      </trkpt>
      <trkpt lat="43.309647738933563232421875" lon="-1.67096651159226894378662109375">
        <ele>249.1999969482421875</ele>
        <time>2020-08-23T11:32:07.000Z</time>
      </trkpt>
      <trkpt lat="43.30960289575159549713134765625" lon="-1.67101227678358554840087890625">
        <ele>249.600006103515625</ele>
        <time>2020-08-23T11:32:11.000Z</time>
      </trkpt>
      <trkpt lat="43.30959049053490161895751953125" lon="-1.6710269451141357421875">
        <ele>249.8000030517578125</ele>
        <time>2020-08-23T11:32:12.000Z</time>
      </trkpt>
      <trkpt lat="43.309567607939243316650390625" lon="-1.6710549406707286834716796875">
        <ele>250.1999969482421875</ele>
        <time>2020-08-23T11:32:14.000Z</time>
      </trkpt>
      <trkpt lat="43.30952343530952930450439453125" lon="-1.67108436115086078643798828125">
        <ele>250.8000030517578125</ele>
        <time>2020-08-23T11:32:17.000Z</time>
      </trkpt>
      <trkpt lat="43.30950952135026454925537109375" lon="-1.6710965149104595184326171875">
        <ele>251.1999969482421875</ele>
        <time>2020-08-23T11:32:18.000Z</time>
      </trkpt>
      <trkpt lat="43.3094688691198825836181640625" lon="-1.67113213799893856048583984375">
        <ele>252</ele>
        <time>2020-08-23T11:32:21.000Z</time>
      </trkpt>
      <trkpt lat="43.30941011197865009307861328125" lon="-1.67117874138057231903076171875">
        <ele>253</ele>
        <time>2020-08-23T11:32:25.000Z</time>
      </trkpt>
      <trkpt lat="43.309397287666797637939453125" lon="-1.671194247901439666748046875">
        <ele>253</ele>
        <time>2020-08-23T11:32:26.000Z</time>
      </trkpt>
      <trkpt lat="43.3093421347439289093017578125" lon="-1.6712732054293155670166015625">
        <ele>254</ele>
        <time>2020-08-23T11:32:31.000Z</time>
      </trkpt>
      <trkpt lat="43.30933115445077419281005859375" lon="-1.6712906397879123687744140625">
        <ele>254.1999969482421875</ele>
        <time>2020-08-23T11:32:32.000Z</time>
      </trkpt>
      <trkpt lat="43.3092700503766536712646484375" lon="-1.67139348573982715606689453125">
        <ele>255.399993896484375</ele>
        <time>2020-08-23T11:32:38.000Z</time>
      </trkpt>
      <trkpt lat="43.3092628419399261474609375" lon="-1.67140957899391651153564453125">
        <ele>255.600006103515625</ele>
        <time>2020-08-23T11:32:39.000Z</time>
      </trkpt>
      <trkpt lat="43.30920525826513767242431640625" lon="-1.6715189628303050994873046875">
        <ele>256.600006103515625</ele>
        <time>2020-08-23T11:32:45.000Z</time>
      </trkpt>
      <trkpt lat="43.30919469706714153289794921875" lon="-1.6715360619127750396728515625">
        <ele>256.79998779296875</ele>
        <time>2020-08-23T11:32:46.000Z</time>
      </trkpt>
      <trkpt lat="43.309164941310882568359375" lon="-1.6715826652944087982177734375">
        <ele>257.600006103515625</ele>
        <time>2020-08-23T11:32:49.000Z</time>
      </trkpt>
      <trkpt lat="43.30909126438200473785400390625" lon="-1.671659946441650390625">
        <ele>258.399993896484375</ele>
        <time>2020-08-23T11:32:55.000Z</time>
      </trkpt>
      <trkpt lat="43.30906125716865062713623046875" lon="-1.67167930863797664642333984375">
        <ele>258.79998779296875</ele>
        <time>2020-08-23T11:32:57.000Z</time>
      </trkpt>
      <trkpt lat="43.30900442786514759063720703125" lon="-1.67171023786067962646484375">
        <ele>260</ele>
        <time>2020-08-23T11:33:01.000Z</time>
      </trkpt>
      <trkpt lat="43.30897651612758636474609375" lon="-1.67172121815383434295654296875">
        <ele>260.20001220703125</ele>
        <time>2020-08-23T11:33:03.000Z</time>
      </trkpt>
      <trkpt lat="43.30894701182842254638671875" lon="-1.67172524146735668182373046875">
        <ele>261</ele>
        <time>2020-08-23T11:33:05.000Z</time>
      </trkpt>
      <trkpt lat="43.30887216143310070037841796875" lon="-1.6717472858726978302001953125">
        <ele>261.600006103515625</ele>
        <time>2020-08-23T11:33:10.000Z</time>
      </trkpt>
      <trkpt lat="43.3088321797549724578857421875" lon="-1.67177335359156131744384765625">
        <ele>262.20001220703125</ele>
        <time>2020-08-23T11:33:13.000Z</time>
      </trkpt>
      <trkpt lat="43.3087885938584804534912109375" lon="-1.67179414071142673492431640625">
        <ele>263</ele>
        <time>2020-08-23T11:33:16.000Z</time>
      </trkpt>
      <trkpt lat="43.30875925719738006591796875" lon="-1.671807803213596343994140625">
        <ele>263.399993896484375</ele>
        <time>2020-08-23T11:33:18.000Z</time>
      </trkpt>
      <trkpt lat="43.3086648769676685333251953125" lon="-1.6718777082860469818115234375">
        <ele>264.399993896484375</ele>
        <time>2020-08-23T11:33:25.000Z</time>
      </trkpt>
      <trkpt lat="43.30860905349254608154296875" lon="-1.67191517539322376251220703125">
        <ele>265.399993896484375</ele>
        <time>2020-08-23T11:33:29.000Z</time>
      </trkpt>
      <trkpt lat="43.30856655724346637725830078125" lon="-1.6719402372837066650390625">
        <ele>265.79998779296875</ele>
        <time>2020-08-23T11:33:32.000Z</time>
      </trkpt>
      <trkpt lat="43.308520875871181488037109375" lon="-1.6719482839107513427734375">
        <ele>266.600006103515625</ele>
        <time>2020-08-23T11:33:35.000Z</time>
      </trkpt>
      <trkpt lat="43.30846664495766162872314453125" lon="-1.67198122479021549224853515625">
        <ele>267.399993896484375</ele>
        <time>2020-08-23T11:33:39.000Z</time>
      </trkpt>
      <trkpt lat="43.3084385655820369720458984375" lon="-1.67200100608170032501220703125">
        <ele>267.79998779296875</ele>
        <time>2020-08-23T11:33:41.000Z</time>
      </trkpt>
      <trkpt lat="43.3084134198725223541259765625" lon="-1.67202732525765895843505859375">
        <ele>268.600006103515625</ele>
        <time>2020-08-23T11:33:45.000Z</time>
      </trkpt>
      <trkpt lat="43.30841333605349063873291015625" lon="-1.67204274795949459075927734375">
        <ele>269</ele>
        <time>2020-08-23T11:36:59.000Z</time>
      </trkpt>
      <trkpt lat="43.30840160138905048370361328125" lon="-1.6720862500369548797607421875">
        <ele>268.79998779296875</ele>
        <time>2020-08-23T11:37:04.000Z</time>
      </trkpt>
      <trkpt lat="43.3083668164908885955810546875" lon="-1.67215037159621715545654296875">
        <ele>269.20001220703125</ele>
        <time>2020-08-23T11:37:09.000Z</time>
      </trkpt>
      <trkpt lat="43.3083584345877170562744140625" lon="-1.67216344736516475677490234375">
        <ele>269.20001220703125</ele>
        <time>2020-08-23T11:37:10.000Z</time>
      </trkpt>
      <trkpt lat="43.3083165250718593597412109375" lon="-1.6722049377858638763427734375">
        <ele>270.20001220703125</ele>
        <time>2020-08-23T11:37:14.000Z</time>
      </trkpt>
      <trkpt lat="43.308283500373363494873046875" lon="-1.6722344420850276947021484375">
        <ele>270.399993896484375</ele>
        <time>2020-08-23T11:37:17.000Z</time>
      </trkpt>
      <trkpt lat="43.30825843848288059234619140625" lon="-1.6722448356449604034423828125">
        <ele>270.79998779296875</ele>
        <time>2020-08-23T11:37:19.000Z</time>
      </trkpt>
      <trkpt lat="43.30823413096368312835693359375" lon="-1.67224927805364131927490234375">
        <ele>271.399993896484375</ele>
        <time>2020-08-23T11:37:21.000Z</time>
      </trkpt>
      <trkpt lat="43.30819741822779178619384765625" lon="-1.67226050980389118194580078125">
        <ele>271.79998779296875</ele>
        <time>2020-08-23T11:37:24.000Z</time>
      </trkpt>
      <trkpt lat="43.30812156200408935546875" lon="-1.672263108193874359130859375">
        <ele>272.399993896484375</ele>
        <time>2020-08-23T11:37:30.000Z</time>
      </trkpt>
      <trkpt lat="43.30810756422579288482666015625" lon="-1.67226537130773067474365234375">
        <ele>272.600006103515625</ele>
        <time>2020-08-23T11:37:31.000Z</time>
      </trkpt>
      <trkpt lat="43.3080576919019222259521484375" lon="-1.67229068465530872344970703125">
        <ele>273.600006103515625</ele>
        <time>2020-08-23T11:37:35.000Z</time>
      </trkpt>
      <trkpt lat="43.3080476336181163787841796875" lon="-1.6723021678626537322998046875">
        <ele>274</ele>
        <time>2020-08-23T11:37:36.000Z</time>
      </trkpt>
      <trkpt lat="43.3080301992595195770263671875" lon="-1.672350279986858367919921875">
        <ele>274.600006103515625</ele>
        <time>2020-08-23T11:37:39.000Z</time>
      </trkpt>
      <trkpt lat="43.308027349412441253662109375" lon="-1.67237014509737491607666015625">
        <ele>274.79998779296875</ele>
        <time>2020-08-23T11:37:40.000Z</time>
      </trkpt>
      <trkpt lat="43.3079976774752140045166015625" lon="-1.67248413898050785064697265625">
        <ele>275.600006103515625</ele>
        <time>2020-08-23T11:37:46.000Z</time>
      </trkpt>
      <trkpt lat="43.30798720009624958038330078125" lon="-1.67254281230270862579345703125">
        <ele>275.79998779296875</ele>
        <time>2020-08-23T11:37:49.000Z</time>
      </trkpt>
      <trkpt lat="43.30798275768756866455078125" lon="-1.6726384498178958892822265625">
        <ele>276.79998779296875</ele>
        <time>2020-08-23T11:37:54.000Z</time>
      </trkpt>
      <trkpt lat="43.30798233859241008758544921875" lon="-1.67265831492841243743896484375">
        <ele>277</ele>
        <time>2020-08-23T11:37:55.000Z</time>
      </trkpt>
      <trkpt lat="43.30799055285751819610595703125" lon="-1.67275437153875827789306640625">
        <ele>278</ele>
        <time>2020-08-23T11:38:00.000Z</time>
      </trkpt>
      <trkpt lat="43.30799943767488002777099609375" lon="-1.67279225774109363555908203125">
        <ele>278</ele>
        <time>2020-08-23T11:38:02.000Z</time>
      </trkpt>
      <trkpt lat="43.30802173353731632232666015625" lon="-1.67289233766496181488037109375">
        <ele>279</ele>
        <time>2020-08-23T11:38:07.000Z</time>
      </trkpt>
      <trkpt lat="43.3080332167446613311767578125" lon="-1.67297682724893093109130859375">
        <ele>279.79998779296875</ele>
        <time>2020-08-23T11:38:11.000Z</time>
      </trkpt>
      <trkpt lat="43.308043777942657470703125" lon="-1.67301873676478862762451171875">
        <ele>280.20001220703125</ele>
        <time>2020-08-23T11:38:13.000Z</time>
      </trkpt>
      <trkpt lat="43.30804939381778240203857421875" lon="-1.67310205288231372833251953125">
        <ele>280.79998779296875</ele>
        <time>2020-08-23T11:38:17.000Z</time>
      </trkpt>
      <trkpt lat="43.308039419353008270263671875" lon="-1.67320330627262592315673828125">
        <ele>281.20001220703125</ele>
        <time>2020-08-23T11:38:22.000Z</time>
      </trkpt>
      <trkpt lat="43.30802257172763347625732421875" lon="-1.673327945172786712646484375">
        <ele>282.399993896484375</ele>
        <time>2020-08-23T11:38:28.000Z</time>
      </trkpt>
      <trkpt lat="43.30801092088222503662109375" lon="-1.67336373589932918548583984375">
        <ele>282.79998779296875</ele>
        <time>2020-08-23T11:38:30.000Z</time>
      </trkpt>
      <trkpt lat="43.30800044350326061248779296875" lon="-1.67342408560216426849365234375">
        <ele>283.399993896484375</ele>
        <time>2020-08-23T11:38:33.000Z</time>
      </trkpt>
      <trkpt lat="43.3079886250197887420654296875" lon="-1.67348141781985759735107421875">
        <ele>284.20001220703125</ele>
        <time>2020-08-23T11:38:36.000Z</time>
      </trkpt>
      <trkpt lat="43.307967670261859893798828125" lon="-1.6735520772635936737060546875">
        <ele>284.600006103515625</ele>
        <time>2020-08-23T11:38:39.000Z</time>
      </trkpt>
      <trkpt lat="43.30793405883014202117919921875" lon="-1.6736407577991485595703125">
        <ele>285.20001220703125</ele>
        <time>2020-08-23T11:38:43.000Z</time>
      </trkpt>
      <trkpt lat="43.30790095031261444091796875" lon="-1.67372985742986202239990234375">
        <ele>285.79998779296875</ele>
        <time>2020-08-23T11:38:47.000Z</time>
      </trkpt>
      <trkpt lat="43.30787102691829204559326171875" lon="-1.67378970421850681304931640625">
        <ele>286</ele>
        <time>2020-08-23T11:38:50.000Z</time>
      </trkpt>
      <trkpt lat="43.3077941648662090301513671875" lon="-1.67392364703118801116943359375">
        <ele>287</ele>
        <time>2020-08-23T11:38:57.000Z</time>
      </trkpt>
      <trkpt lat="43.30770087428390979766845703125" lon="-1.67409899644553661346435546875">
        <ele>288.20001220703125</ele>
        <time>2020-08-23T11:39:06.000Z</time>
      </trkpt>
      <trkpt lat="43.307575397193431854248046875" lon="-1.67426311410963535308837890625">
        <ele>288.79998779296875</ele>
        <time>2020-08-23T11:39:16.000Z</time>
      </trkpt>
      <trkpt lat="43.30754731781780719757080078125" lon="-1.67428893037140369415283203125">
        <ele>289.20001220703125</ele>
        <time>2020-08-23T11:39:18.000Z</time>
      </trkpt>
      <trkpt lat="43.3074823580682277679443359375" lon="-1.67435699142515659332275390625">
        <ele>290.399993896484375</ele>
        <time>2020-08-23T11:39:23.000Z</time>
      </trkpt>
      <trkpt lat="43.30745897255837917327880859375" lon="-1.67437970638275146484375">
        <ele>290.79998779296875</ele>
        <time>2020-08-23T11:39:25.000Z</time>
      </trkpt>
      <trkpt lat="43.3074267022311687469482421875" lon="-1.67440761812031269073486328125">
        <ele>291.600006103515625</ele>
        <time>2020-08-23T11:39:28.000Z</time>
      </trkpt>
      <trkpt lat="43.30741555429995059967041015625" lon="-1.67441884987056255340576171875">
        <ele>292</ele>
        <time>2020-08-23T11:39:29.000Z</time>
      </trkpt>
      <trkpt lat="43.30738185904920101165771484375" lon="-1.67443804442882537841796875">
        <ele>293</ele>
        <time>2020-08-23T11:39:31.000Z</time>
      </trkpt>
      <trkpt lat="43.30731161870062351226806640625" lon="-1.67445070110261440277099609375">
        <ele>293.79998779296875</ele>
        <time>2020-08-23T11:39:35.000Z</time>
      </trkpt>
      <trkpt lat="43.30729653127491474151611328125" lon="-1.674446761608123779296875">
        <ele>294</ele>
        <time>2020-08-23T11:39:36.000Z</time>
      </trkpt>
      <trkpt lat="43.307283036410808563232421875" lon="-1.6744398884475231170654296875">
        <ele>294.20001220703125</ele>
        <time>2020-08-23T11:39:37.000Z</time>
      </trkpt>
      <trkpt lat="43.3072443120181560516357421875" lon="-1.67440996505320072174072265625">
        <ele>295.399993896484375</ele>
        <time>2020-08-23T11:39:40.000Z</time>
      </trkpt>
      <trkpt lat="43.30721220932900905609130859375" lon="-1.67437744326889514923095703125">
        <ele>296</ele>
        <time>2020-08-23T11:39:43.000Z</time>
      </trkpt>
      <trkpt lat="43.30718941055238246917724609375" lon="-1.67434643022716045379638671875">
        <ele>296.399993896484375</ele>
        <time>2020-08-23T11:39:45.000Z</time>
      </trkpt>
      <trkpt lat="43.3071651868522167205810546875" lon="-1.67430938221514225006103515625">
        <ele>297.399993896484375</ele>
        <time>2020-08-23T11:39:49.000Z</time>
      </trkpt>
      <trkpt lat="43.30712503753602504730224609375" lon="-1.67423511855304241180419921875">
        <ele>298.600006103515625</ele>
        <time>2020-08-23T11:39:54.000Z</time>
      </trkpt>
      <trkpt lat="43.30710609443485736846923828125" lon="-1.67420812882483005523681640625">
        <ele>299.20001220703125</ele>
        <time>2020-08-23T11:39:56.000Z</time>
      </trkpt>
      <trkpt lat="43.30706720240414142608642578125" lon="-1.67413604445755481719970703125">
        <ele>299.600006103515625</ele>
        <time>2020-08-23T11:40:01.000Z</time>
      </trkpt>
      <trkpt lat="43.30706150270998477935791015625" lon="-1.67411978356540203094482421875">
        <ele>300</ele>
        <time>2020-08-23T11:40:02.000Z</time>
      </trkpt>
      <trkpt lat="43.30701506696641445159912109375" lon="-1.67404132895171642303466796875">
        <ele>300.399993896484375</ele>
        <time>2020-08-23T11:40:08.000Z</time>
      </trkpt>
      <trkpt lat="43.3069998957216739654541015625" lon="-1.67401199229061603546142578125">
        <ele>300.79998779296875</ele>
        <time>2020-08-23T11:40:10.000Z</time>
      </trkpt>
      <trkpt lat="43.3069251291453838348388671875" lon="-1.67394426651298999786376953125">
        <ele>301.79998779296875</ele>
        <time>2020-08-23T11:40:16.000Z</time>
      </trkpt>
      <trkpt lat="43.306801579892635345458984375" lon="-1.67387167923152446746826171875">
        <ele>303</ele>
        <time>2020-08-23T11:40:24.000Z</time>
      </trkpt>
      <trkpt lat="43.3067844808101654052734375" lon="-1.673866398632526397705078125">
        <ele>303.20001220703125</ele>
        <time>2020-08-23T11:40:25.000Z</time>
      </trkpt>
      <trkpt lat="43.30667358823120594024658203125" lon="-1.67385877110064029693603515625">
        <ele>304</ele>
        <time>2020-08-23T11:40:32.000Z</time>
      </trkpt>
      <trkpt lat="43.3065844886004924774169921875" lon="-1.673892550170421600341796875">
        <ele>304.79998779296875</ele>
        <time>2020-08-23T11:40:38.000Z</time>
      </trkpt>
      <trkpt lat="43.3065707422792911529541015625" lon="-1.6739044524729251861572265625">
        <ele>305.20001220703125</ele>
        <time>2020-08-23T11:40:39.000Z</time>
      </trkpt>
      <trkpt lat="43.306527994573116302490234375" lon="-1.67400277219712734222412109375">
        <ele>305.79998779296875</ele>
        <time>2020-08-23T11:40:44.000Z</time>
      </trkpt>
      <trkpt lat="43.306528665125370025634765625" lon="-1.67402607388794422149658203125">
        <ele>306.399993896484375</ele>
        <time>2020-08-23T11:40:45.000Z</time>
      </trkpt>
      <trkpt lat="43.30654953606426715850830078125" lon="-1.6741331107914447784423828125">
        <ele>307.20001220703125</ele>
        <time>2020-08-23T11:40:50.000Z</time>
      </trkpt>
      <trkpt lat="43.30657183192670345306396484375" lon="-1.67421148158609867095947265625">
        <ele>308.20001220703125</ele>
        <time>2020-08-23T11:40:54.000Z</time>
      </trkpt>
      <trkpt lat="43.30662094987928867340087890625" lon="-1.674300245940685272216796875">
        <ele>309</ele>
        <time>2020-08-23T11:40:59.000Z</time>
      </trkpt>
      <trkpt lat="43.3066476881504058837890625" lon="-1.67435782961547374725341796875">
        <ele>309.399993896484375</ele>
        <time>2020-08-23T11:41:02.000Z</time>
      </trkpt>
      <trkpt lat="43.30668079666793346405029296875" lon="-1.6744328476488590240478515625">
        <ele>310</ele>
        <time>2020-08-23T11:41:06.000Z</time>
      </trkpt>
      <trkpt lat="43.30669705756008625030517578125" lon="-1.6744695603847503662109375">
        <ele>310.600006103515625</ele>
        <time>2020-08-23T11:41:08.000Z</time>
      </trkpt>
      <trkpt lat="43.3067362010478973388671875" lon="-1.67459939606487751007080078125">
        <ele>311.399993896484375</ele>
        <time>2020-08-23T11:41:14.000Z</time>
      </trkpt>
      <trkpt lat="43.3067501150071620941162109375" lon="-1.67467047460377216339111328125">
        <ele>311.600006103515625</ele>
        <time>2020-08-23T11:41:17.000Z</time>
      </trkpt>
      <trkpt lat="43.30678104422986507415771484375" lon="-1.67476234026253223419189453125">
        <ele>312.20001220703125</ele>
        <time>2020-08-23T11:41:21.000Z</time>
      </trkpt>
      <trkpt lat="43.30680317245423793792724609375" lon="-1.6748244501650333404541015625">
        <ele>312.79998779296875</ele>
        <time>2020-08-23T11:41:24.000Z</time>
      </trkpt>
      <trkpt lat="43.30680660903453826904296875" lon="-1.6748718917369842529296875">
        <ele>312.79998779296875</ele>
        <time>2020-08-23T11:41:26.000Z</time>
      </trkpt>
      <trkpt lat="43.30680568702518939971923828125" lon="-1.6749146394431591033935546875">
        <ele>313</ele>
        <time>2020-08-23T11:41:28.000Z</time>
      </trkpt>
      <trkpt lat="43.306808285415172576904296875" lon="-1.67500776238739490509033203125">
        <ele>313.79998779296875</ele>
        <time>2020-08-23T11:41:33.000Z</time>
      </trkpt>
      <trkpt lat="43.3068104647099971771240234375" lon="-1.67503458447754383087158203125">
        <ele>314</ele>
        <time>2020-08-23T11:41:35.000Z</time>
      </trkpt>
      <trkpt lat="43.30682295374572277069091796875" lon="-1.67507909238338470458984375">
        <ele>314.399993896484375</ele>
        <time>2020-08-23T11:41:38.000Z</time>
      </trkpt>
      <trkpt lat="43.3068205229938030242919921875" lon="-1.675094179809093475341796875">
        <ele>314.399993896484375</ele>
        <time>2020-08-23T11:41:39.000Z</time>
      </trkpt>
      <trkpt lat="43.30681465566158294677734375" lon="-1.67514145374298095703125">
        <ele>314.79998779296875</ele>
        <time>2020-08-23T11:41:42.000Z</time>
      </trkpt>
      <trkpt lat="43.30681490711867809295654296875" lon="-1.6751563735306262969970703125">
        <ele>314.79998779296875</ele>
        <time>2020-08-23T11:41:43.000Z</time>
      </trkpt>
      <trkpt lat="43.30681976862251758575439453125" lon="-1.6752281226217746734619140625">
        <ele>315</ele>
        <time>2020-08-23T11:41:48.000Z</time>
      </trkpt>
      <trkpt lat="43.30682245083153247833251953125" lon="-1.675255112349987030029296875">
        <ele>315.20001220703125</ele>
        <time>2020-08-23T11:41:50.000Z</time>
      </trkpt>
      <trkpt lat="43.30682530067861080169677734375" lon="-1.67532443068921566009521484375">
        <ele>315.20001220703125</ele>
        <time>2020-08-23T11:41:55.000Z</time>
      </trkpt>
      <trkpt lat="43.306833095848560333251953125" lon="-1.67543641291558742523193359375">
        <ele>315.600006103515625</ele>
        <time>2020-08-23T11:42:02.000Z</time>
      </trkpt>
      <trkpt lat="43.30683485604822635650634765625" lon="-1.67546960525214672088623046875">
        <ele>315.79998779296875</ele>
        <time>2020-08-23T11:42:04.000Z</time>
      </trkpt>
      <trkpt lat="43.30684550106525421142578125" lon="-1.675563566386699676513671875">
        <ele>316.20001220703125</ele>
        <time>2020-08-23T11:42:10.000Z</time>
      </trkpt>
      <trkpt lat="43.30685757100582122802734375" lon="-1.67562969960272312164306640625">
        <ele>316.399993896484375</ele>
        <time>2020-08-23T11:42:13.000Z</time>
      </trkpt>
      <trkpt lat="43.3068661205470561981201171875" lon="-1.6756857745349407196044921875">
        <ele>316.399993896484375</ele>
        <time>2020-08-23T11:42:16.000Z</time>
      </trkpt>
      <trkpt lat="43.30687232315540313720703125" lon="-1.67572307400405406951904296875">
        <ele>316.600006103515625</ele>
        <time>2020-08-23T11:42:18.000Z</time>
      </trkpt>
      <trkpt lat="43.3068765141069889068603515625" lon="-1.6757597029209136962890625">
        <ele>316.79998779296875</ele>
        <time>2020-08-23T11:42:20.000Z</time>
      </trkpt>
      <trkpt lat="43.30689000897109508514404296875" lon="-1.6758037917315959930419921875">
        <ele>317.20001220703125</ele>
        <time>2020-08-23T11:42:23.000Z</time>
      </trkpt>
      <trkpt lat="43.30690258182585239410400390625" lon="-1.6758778877556324005126953125">
        <ele>318</ele>
        <time>2020-08-23T11:42:27.000Z</time>
      </trkpt>
      <trkpt lat="43.30691817216575145721435546875" lon="-1.6759600304067134857177734375">
        <ele>318.20001220703125</ele>
        <time>2020-08-23T11:42:30.000Z</time>
      </trkpt>
      <trkpt lat="43.306927643716335296630859375" lon="-1.6760290972888469696044921875">
        <ele>318.20001220703125</ele>
        <time>2020-08-23T11:42:33.000Z</time>
      </trkpt>
      <trkpt lat="43.30693845637142658233642578125" lon="-1.67607896961271762847900390625">
        <ele>318.20001220703125</ele>
        <time>2020-08-23T11:42:35.000Z</time>
      </trkpt>
      <trkpt lat="43.30694516189396381378173828125" lon="-1.6761226393282413482666015625">
        <ele>318.399993896484375</ele>
        <time>2020-08-23T11:42:37.000Z</time>
      </trkpt>
      <trkpt lat="43.30695840530097484588623046875" lon="-1.6761940531432628631591796875">
        <ele>318.79998779296875</ele>
        <time>2020-08-23T11:42:40.000Z</time>
      </trkpt>
      <trkpt lat="43.30696075223386287689208984375" lon="-1.67624459601938724517822265625">
        <ele>319</ele>
        <time>2020-08-23T11:42:42.000Z</time>
      </trkpt>
      <trkpt lat="43.30696594901382923126220703125" lon="-1.67634987272322177886962890625">
        <ele>319</ele>
        <time>2020-08-23T11:42:46.000Z</time>
      </trkpt>
      <trkpt lat="43.3069695532321929931640625" lon="-1.67641156353056430816650390625">
        <ele>319.20001220703125</ele>
        <time>2020-08-23T11:42:48.000Z</time>
      </trkpt>
      <trkpt lat="43.30697433091700077056884765625" lon="-1.676432602107524871826171875">
        <ele>319.20001220703125</ele>
        <time>2020-08-23T11:42:49.000Z</time>
      </trkpt>
      <trkpt lat="43.30697282217442989349365234375" lon="-1.6765080392360687255859375">
        <ele>319.600006103515625</ele>
        <time>2020-08-23T11:42:52.000Z</time>
      </trkpt>
      <trkpt lat="43.30697030760347843170166015625" lon="-1.67662002146244049072265625">
        <ele>320</ele>
        <time>2020-08-23T11:42:56.000Z</time>
      </trkpt>
      <trkpt lat="43.30696645192801952362060546875" lon="-1.6767117194831371307373046875">
        <ele>320.20001220703125</ele>
        <time>2020-08-23T11:42:59.000Z</time>
      </trkpt>
      <trkpt lat="43.30696351826190948486328125" lon="-1.676866114139556884765625">
        <ele>321</ele>
        <time>2020-08-23T11:43:05.000Z</time>
      </trkpt>
      <trkpt lat="43.3069620095193386077880859375" lon="-1.67692235670983791351318359375">
        <ele>321</ele>
        <time>2020-08-23T11:43:07.000Z</time>
      </trkpt>
      <trkpt lat="43.30696284770965576171875" lon="-1.6770490072667598724365234375">
        <ele>321.20001220703125</ele>
        <time>2020-08-23T11:43:12.000Z</time>
      </trkpt>
      <trkpt lat="43.306971900165081024169921875" lon="-1.67707708664238452911376953125">
        <ele>321.20001220703125</ele>
        <time>2020-08-23T11:43:13.000Z</time>
      </trkpt>
      <trkpt lat="43.30698740668594837188720703125" lon="-1.67717716656625270843505859375">
        <ele>321.20001220703125</ele>
        <time>2020-08-23T11:43:17.000Z</time>
      </trkpt>
      <trkpt lat="43.3070109598338603973388671875" lon="-1.6772778332233428955078125">
        <ele>322.20001220703125</ele>
        <time>2020-08-23T11:43:22.000Z</time>
      </trkpt>
      <trkpt lat="43.3070109598338603973388671875" lon="-1.67731898836791515350341796875">
        <ele>322.399993896484375</ele>
        <time>2020-08-23T11:43:24.000Z</time>
      </trkpt>
      <trkpt lat="43.30697215162217617034912109375" lon="-1.67746265418827533721923828125">
        <ele>322.600006103515625</ele>
        <time>2020-08-23T11:43:31.000Z</time>
      </trkpt>
      <trkpt lat="43.30689956434071063995361328125" lon="-1.67762584984302520751953125">
        <ele>323</ele>
        <time>2020-08-23T11:43:38.000Z</time>
      </trkpt>
      <trkpt lat="43.30689285881817340850830078125" lon="-1.67764998972415924072265625">
        <ele>323.20001220703125</ele>
        <time>2020-08-23T11:43:39.000Z</time>
      </trkpt>
      <trkpt lat="43.3068905957043170928955078125" lon="-1.6778597049415111541748046875">
        <ele>324.399993896484375</ele>
        <time>2020-08-23T11:43:47.000Z</time>
      </trkpt>
      <trkpt lat="43.30690107308328151702880859375" lon="-1.677996329963207244873046875">
        <ele>325.399993896484375</ele>
        <time>2020-08-23T11:43:53.000Z</time>
      </trkpt>
      <trkpt lat="43.30690979026257991790771484375" lon="-1.67808727361261844635009765625">
        <ele>325.79998779296875</ele>
        <time>2020-08-23T11:43:57.000Z</time>
      </trkpt>
      <trkpt lat="43.30692001618444919586181640625" lon="-1.67815692722797393798828125">
        <ele>326.399993896484375</ele>
        <time>2020-08-23T11:44:01.000Z</time>
      </trkpt>
      <trkpt lat="43.3069185912609100341796875" lon="-1.67818374931812286376953125">
        <ele>326.79998779296875</ele>
        <time>2020-08-23T11:44:03.000Z</time>
      </trkpt>
      <trkpt lat="43.30692990683019161224365234375" lon="-1.67826245538890361785888671875">
        <ele>327.600006103515625</ele>
        <time>2020-08-23T11:44:07.000Z</time>
      </trkpt>
      <trkpt lat="43.3069529570639133453369140625" lon="-1.67838080786168575286865234375">
        <ele>328.399993896484375</ele>
        <time>2020-08-23T11:44:13.000Z</time>
      </trkpt>
      <trkpt lat="43.30695974640548229217529296875" lon="-1.6783991642296314239501953125">
        <ele>328.600006103515625</ele>
        <time>2020-08-23T11:44:14.000Z</time>
      </trkpt>
      <trkpt lat="43.30700718797743320465087890625" lon="-1.67851173318922519683837890625">
        <ele>330</ele>
        <time>2020-08-23T11:44:20.000Z</time>
      </trkpt>
      <trkpt lat="43.307026885449886322021484375" lon="-1.67854190804064273834228515625">
        <ele>330.600006103515625</ele>
        <time>2020-08-23T11:44:22.000Z</time>
      </trkpt>
      <trkpt lat="43.30706083215773105621337890625" lon="-1.6785758547484874725341796875">
        <ele>331</ele>
        <time>2020-08-23T11:44:25.000Z</time>
      </trkpt>
      <trkpt lat="43.30709201283752918243408203125" lon="-1.67861466296017169952392578125">
        <ele>331.399993896484375</ele>
        <time>2020-08-23T11:44:28.000Z</time>
      </trkpt>
      <trkpt lat="43.3071051724255084991455078125" lon="-1.67862438596785068511962890625">
        <ele>331.600006103515625</ele>
        <time>2020-08-23T11:44:29.000Z</time>
      </trkpt>
      <trkpt lat="43.3071407116949558258056640625" lon="-1.678658835589885711669921875">
        <ele>332</ele>
        <time>2020-08-23T11:44:32.000Z</time>
      </trkpt>
      <trkpt lat="43.30716828815639019012451171875" lon="-1.678695715963840484619140625">
        <ele>332.600006103515625</ele>
        <time>2020-08-23T11:44:35.000Z</time>
      </trkpt>
      <trkpt lat="43.30717817880213260650634765625" lon="-1.67870384640991687774658203125">
        <ele>332.79998779296875</ele>
        <time>2020-08-23T11:44:36.000Z</time>
      </trkpt>
      <trkpt lat="43.3071883209049701690673828125" lon="-1.678778864443302154541015625">
        <ele>333.20001220703125</ele>
        <time>2020-08-23T11:44:40.000Z</time>
      </trkpt>
      <trkpt lat="43.30718924291431903839111328125" lon="-1.67880141176283359527587890625">
        <ele>333.20001220703125</ele>
        <time>2020-08-23T11:44:41.000Z</time>
      </trkpt>
      <trkpt lat="43.307185471057891845703125" lon="-1.67890182696282863616943359375">
        <ele>334</ele>
        <time>2020-08-23T11:44:46.000Z</time>
      </trkpt>
      <trkpt lat="43.30718304030597209930419921875" lon="-1.6789449937641620635986328125">
        <ele>334.20001220703125</ele>
        <time>2020-08-23T11:44:48.000Z</time>
      </trkpt>
      <trkpt lat="43.30717449076473712921142578125" lon="-1.6790841333568096160888671875">
        <ele>335.20001220703125</ele>
        <time>2020-08-23T11:44:54.000Z</time>
      </trkpt>
      <trkpt lat="43.3071742393076419830322265625" lon="-1.67921748943626880645751953125">
        <ele>335.79998779296875</ele>
        <time>2020-08-23T11:45:00.000Z</time>
      </trkpt>
      <trkpt lat="43.30718957819044589996337890625" lon="-1.6792557947337627410888671875">
        <ele>336</ele>
        <time>2020-08-23T11:45:02.000Z</time>
      </trkpt>
      <trkpt lat="43.3071953617036342620849609375" lon="-1.6792769171297550201416015625">
        <ele>336.20001220703125</ele>
        <time>2020-08-23T11:45:03.000Z</time>
      </trkpt>
      <trkpt lat="43.30723106861114501953125" lon="-1.67940071783959865570068359375">
        <ele>337.20001220703125</ele>
        <time>2020-08-23T11:45:09.000Z</time>
      </trkpt>
      <trkpt lat="43.30726551823318004608154296875" lon="-1.679511778056621551513671875">
        <ele>337.79998779296875</ele>
        <time>2020-08-23T11:45:15.000Z</time>
      </trkpt>
      <trkpt lat="43.3072654344141483306884765625" lon="-1.67967346496880054473876953125">
        <ele>338</ele>
        <time>2020-08-23T11:45:22.000Z</time>
      </trkpt>
      <trkpt lat="43.30725110135972499847412109375" lon="-1.6797134466469287872314453125">
        <ele>338.399993896484375</ele>
        <time>2020-08-23T11:45:24.000Z</time>
      </trkpt>
      <trkpt lat="43.3072231896221637725830078125" lon="-1.6797613911330699920654296875">
        <ele>338.600006103515625</ele>
        <time>2020-08-23T11:45:27.000Z</time>
      </trkpt>
      <trkpt lat="43.30713576637208461761474609375" lon="-1.6798834316432476043701171875">
        <ele>339.20001220703125</ele>
        <time>2020-08-23T11:45:34.000Z</time>
      </trkpt>
      <trkpt lat="43.3071199245750904083251953125" lon="-1.67990078218281269073486328125">
        <ele>339.399993896484375</ele>
        <time>2020-08-23T11:45:36.000Z</time>
      </trkpt>
      <trkpt lat="43.30704909749329090118408203125" lon="-1.67994990013539791107177734375">
        <ele>339.79998779296875</ele>
        <time>2020-08-23T11:45:42.000Z</time>
      </trkpt>
      <trkpt lat="43.3069469220936298370361328125" lon="-1.679940260946750640869140625">
        <ele>340</ele>
        <time>2020-08-23T11:45:48.000Z</time>
      </trkpt>
      <trkpt lat="43.30683133564889430999755859375" lon="-1.6798492334783077239990234375">
        <ele>340.20001220703125</ele>
        <time>2020-08-23T11:45:55.000Z</time>
      </trkpt>
      <trkpt lat="43.30675036646425724029541015625" lon="-1.67975292541086673736572265625">
        <ele>340</ele>
        <time>2020-08-23T11:46:01.000Z</time>
      </trkpt>
      <trkpt lat="43.3067066967487335205078125" lon="-1.67961739003658294677734375">
        <ele>340.20001220703125</ele>
        <time>2020-08-23T11:46:07.000Z</time>
      </trkpt>
      <trkpt lat="43.30668817274272441864013671875" lon="-1.6795652545988559722900390625">
        <ele>340.600006103515625</ele>
        <time>2020-08-23T11:46:09.000Z</time>
      </trkpt>
      <trkpt lat="43.306614495813846588134765625" lon="-1.679413206875324249267578125">
        <ele>340.79998779296875</ele>
        <time>2020-08-23T11:46:15.000Z</time>
      </trkpt>
      <trkpt lat="43.3064953051507472991943359375" lon="-1.67926811613142490386962890625">
        <ele>341.20001220703125</ele>
        <time>2020-08-23T11:46:22.000Z</time>
      </trkpt>
      <trkpt lat="43.30639631487429141998291015625" lon="-1.67923911474645137786865234375">
        <ele>341.79998779296875</ele>
        <time>2020-08-23T11:46:27.000Z</time>
      </trkpt>
      <trkpt lat="43.30633764155209064483642578125" lon="-1.679242551326751708984375">
        <ele>342.20001220703125</ele>
        <time>2020-08-23T11:46:30.000Z</time>
      </trkpt>
      <trkpt lat="43.30627745948731899261474609375" lon="-1.679273732006549835205078125">
        <ele>342.79998779296875</ele>
        <time>2020-08-23T11:46:33.000Z</time>
      </trkpt>
      <trkpt lat="43.3062066324055194854736328125" lon="-1.6793473251163959503173828125">
        <ele>343.600006103515625</ele>
        <time>2020-08-23T11:46:38.000Z</time>
      </trkpt>
      <trkpt lat="43.30617972649633884429931640625" lon="-1.67937724851071834564208984375">
        <ele>343.79998779296875</ele>
        <time>2020-08-23T11:46:40.000Z</time>
      </trkpt>
      <trkpt lat="43.30611594021320343017578125" lon="-1.67947950772941112518310546875">
        <ele>344.600006103515625</ele>
        <time>2020-08-23T11:46:46.000Z</time>
      </trkpt>
      <trkpt lat="43.30609448254108428955078125" lon="-1.679517813026905059814453125">
        <ele>344.79998779296875</ele>
        <time>2020-08-23T11:46:48.000Z</time>
      </trkpt>
      <trkpt lat="43.30605399794876575469970703125" lon="-1.679603643715381622314453125">
        <ele>345.399993896484375</ele>
        <time>2020-08-23T11:46:52.000Z</time>
      </trkpt>
      <trkpt lat="43.30596707761287689208984375" lon="-1.67977773584425449371337890625">
        <ele>345.399993896484375</ele>
        <time>2020-08-23T11:46:59.000Z</time>
      </trkpt>
      <trkpt lat="43.30587479285895824432373046875" lon="-1.679949648678302764892578125">
        <ele>345.79998779296875</ele>
        <time>2020-08-23T11:47:06.000Z</time>
      </trkpt>
      <trkpt lat="43.3058609627187252044677734375" lon="-1.68009473942220211029052734375">
        <ele>345.20001220703125</ele>
        <time>2020-08-23T11:47:11.000Z</time>
      </trkpt>
      <trkpt lat="43.3058913052082061767578125" lon="-1.6803474538028240203857421875">
        <ele>345</ele>
        <time>2020-08-23T11:47:17.000Z</time>
      </trkpt>
      <trkpt lat="43.305939920246601104736328125" lon="-1.68063285760581493377685546875">
        <ele>345.20001220703125</ele>
        <time>2020-08-23T11:47:24.000Z</time>
      </trkpt>
      <trkpt lat="43.30599767155945301055908203125" lon="-1.68087878264486789703369140625">
        <ele>344.600006103515625</ele>
        <time>2020-08-23T11:47:32.000Z</time>
      </trkpt>
      <trkpt lat="43.30606908537447452545166015625" lon="-1.681044995784759521484375">
        <ele>345</ele>
        <time>2020-08-23T11:47:39.000Z</time>
      </trkpt>
      <trkpt lat="43.30619481392204761505126953125" lon="-1.681155972182750701904296875">
        <ele>344.79998779296875</ele>
        <time>2020-08-23T11:47:45.000Z</time>
      </trkpt>
      <trkpt lat="43.3063363842666149139404296875" lon="-1.68111934326589107513427734375">
        <ele>344.399993896484375</ele>
        <time>2020-08-23T11:47:50.000Z</time>
      </trkpt>
      <trkpt lat="43.306436799466609954833984375" lon="-1.68104306794703006744384765625">
        <ele>344.20001220703125</ele>
        <time>2020-08-23T11:47:56.000Z</time>
      </trkpt>
      <trkpt lat="43.30652489326894283294677734375" lon="-1.680994369089603424072265625">
        <ele>344.399993896484375</ele>
        <time>2020-08-23T11:48:01.000Z</time>
      </trkpt>
      <trkpt lat="43.30665514804422855377197265625" lon="-1.6809908486902713775634765625">
        <ele>344</ele>
        <time>2020-08-23T11:48:06.000Z</time>
      </trkpt>
      <trkpt lat="43.30668716691434383392333984375" lon="-1.68100115843117237091064453125">
        <ele>343.600006103515625</ele>
        <time>2020-08-23T11:48:07.000Z</time>
      </trkpt>
      <trkpt lat="43.3068232052028179168701171875" lon="-1.68104172684252262115478515625">
        <ele>342.79998779296875</ele>
        <time>2020-08-23T11:48:10.000Z</time>
      </trkpt>
      <trkpt lat="43.3068781904876232147216796875" lon="-1.6810625977814197540283203125">
        <ele>342.600006103515625</ele>
        <time>2020-08-23T11:48:11.000Z</time>
      </trkpt>
      <trkpt lat="43.307045660912990570068359375" lon="-1.6811189241707324981689453125">
        <ele>341.399993896484375</ele>
        <time>2020-08-23T11:48:14.000Z</time>
      </trkpt>
      <trkpt lat="43.30717348493635654449462890625" lon="-1.68122160248458385467529296875">
        <ele>340.20001220703125</ele>
        <time>2020-08-23T11:48:17.000Z</time>
      </trkpt>
      <trkpt lat="43.3071893267333507537841796875" lon="-1.6812885738909244537353515625">
        <ele>339.600006103515625</ele>
        <time>2020-08-23T11:48:18.000Z</time>
      </trkpt>
      <trkpt lat="43.307192511856555938720703125" lon="-1.68137063272297382354736328125">
        <ele>339.20001220703125</ele>
        <time>2020-08-23T11:48:19.000Z</time>
      </trkpt>
      <trkpt lat="43.30719158984720706939697265625" lon="-1.68146300129592418670654296875">
        <ele>338.600006103515625</ele>
        <time>2020-08-23T11:48:20.000Z</time>
      </trkpt>
      <trkpt lat="43.30719628371298313140869140625" lon="-1.68164874427020549774169921875">
        <ele>337.79998779296875</ele>
        <time>2020-08-23T11:48:22.000Z</time>
      </trkpt>
      <trkpt lat="43.3072040788829326629638671875" lon="-1.68174446560442447662353515625">
        <ele>337.399993896484375</ele>
        <time>2020-08-23T11:48:23.000Z</time>
      </trkpt>
      <trkpt lat="43.3072198368608951568603515625" lon="-1.68183021247386932373046875">
        <ele>336.600006103515625</ele>
        <time>2020-08-23T11:48:24.000Z</time>
      </trkpt>
      <trkpt lat="43.30727725289762020111083984375" lon="-1.6819567792117595672607421875">
        <ele>335.20001220703125</ele>
        <time>2020-08-23T11:48:26.000Z</time>
      </trkpt>
      <trkpt lat="43.30742594785988330841064453125" lon="-1.68197697959840297698974609375">
        <ele>333.79998779296875</ele>
        <time>2020-08-23T11:48:29.000Z</time>
      </trkpt>
      <trkpt lat="43.307514376938343048095703125" lon="-1.68190070427954196929931640625">
        <ele>333</ele>
        <time>2020-08-23T11:48:31.000Z</time>
      </trkpt>
      <trkpt lat="43.30756206996738910675048828125" lon="-1.68185292743146419525146484375">
        <ele>332.399993896484375</ele>
        <time>2020-08-23T11:48:32.000Z</time>
      </trkpt>
      <trkpt lat="43.30761085264384746551513671875" lon="-1.681804396212100982666015625">
        <ele>331.79998779296875</ele>
        <time>2020-08-23T11:48:33.000Z</time>
      </trkpt>
      <trkpt lat="43.30765795893967151641845703125" lon="-1.6817613132297992706298828125">
        <ele>331</ele>
        <time>2020-08-23T11:48:34.000Z</time>
      </trkpt>
      <trkpt lat="43.30770657397806644439697265625" lon="-1.6817274503409862518310546875">
        <ele>330.600006103515625</ele>
        <time>2020-08-23T11:48:35.000Z</time>
      </trkpt>
      <trkpt lat="43.30779626034200191497802734375" lon="-1.68171479366719722747802734375">
        <ele>329.79998779296875</ele>
        <time>2020-08-23T11:48:37.000Z</time>
      </trkpt>
      <trkpt lat="43.30794746987521648406982421875" lon="-1.68177195824682712554931640625">
        <ele>329.20001220703125</ele>
        <time>2020-08-23T11:48:40.000Z</time>
      </trkpt>
      <trkpt lat="43.307997845113277435302734375" lon="-1.68179643340408802032470703125">
        <ele>328.79998779296875</ele>
        <time>2020-08-23T11:48:41.000Z</time>
      </trkpt>
      <trkpt lat="43.30808945931494235992431640625" lon="-1.68186164461076259613037109375">
        <ele>328.20001220703125</ele>
        <time>2020-08-23T11:48:43.000Z</time>
      </trkpt>
      <trkpt lat="43.3081669919192790985107421875" lon="-1.68195652775466442108154296875">
        <ele>327.399993896484375</ele>
        <time>2020-08-23T11:48:45.000Z</time>
      </trkpt>
      <trkpt lat="43.30820395611226558685302734375" lon="-1.682009585201740264892578125">
        <ele>327</ele>
        <time>2020-08-23T11:48:46.000Z</time>
      </trkpt>
      <trkpt lat="43.30824402160942554473876953125" lon="-1.68207161128520965576171875">
        <ele>326.79998779296875</ele>
        <time>2020-08-23T11:48:47.000Z</time>
      </trkpt>
      <trkpt lat="43.3083118312060832977294921875" lon="-1.68221066705882549285888671875">
        <ele>326.20001220703125</ele>
        <time>2020-08-23T11:48:49.000Z</time>
      </trkpt>
      <trkpt lat="43.30836874432861804962158203125" lon="-1.68236053548753261566162109375">
        <ele>324.79998779296875</ele>
        <time>2020-08-23T11:48:51.000Z</time>
      </trkpt>
      <trkpt lat="43.30839154310524463653564453125" lon="-1.6824271716177463531494140625">
        <ele>324</ele>
        <time>2020-08-23T11:48:52.000Z</time>
      </trkpt>
      <trkpt lat="43.30841719172894954681396484375" lon="-1.6824838332831859588623046875">
        <ele>323.399993896484375</ele>
        <time>2020-08-23T11:48:53.000Z</time>
      </trkpt>
      <trkpt lat="43.30848164856433868408203125" lon="-1.6825699992477893829345703125">
        <ele>322.600006103515625</ele>
        <time>2020-08-23T11:48:55.000Z</time>
      </trkpt>
      <trkpt lat="43.30852146260440349578857421875" lon="-1.68260344304144382476806640625">
        <ele>322.20001220703125</ele>
        <time>2020-08-23T11:48:56.000Z</time>
      </trkpt>
      <trkpt lat="43.3086621947586536407470703125" lon="-1.68264962732791900634765625">
        <ele>321</ele>
        <time>2020-08-23T11:48:59.000Z</time>
      </trkpt>
      <trkpt lat="43.30886461772024631500244140625" lon="-1.68268105946481227874755859375">
        <ele>319.79998779296875</ele>
        <time>2020-08-23T11:49:03.000Z</time>
      </trkpt>
      <trkpt lat="43.3089156635105609893798828125" lon="-1.682701595127582550048828125">
        <ele>319.399993896484375</ele>
        <time>2020-08-23T11:49:04.000Z</time>
      </trkpt>
      <trkpt lat="43.30899571068584918975830078125" lon="-1.68277778662741184234619140625">
        <ele>318.600006103515625</ele>
        <time>2020-08-23T11:49:06.000Z</time>
      </trkpt>
      <trkpt lat="43.30903175286948680877685546875" lon="-1.6828238032758235931396484375">
        <ele>318.399993896484375</ele>
        <time>2020-08-23T11:49:07.000Z</time>
      </trkpt>
      <trkpt lat="43.30906544812023639678955078125" lon="-1.68288239277899265289306640625">
        <ele>318.20001220703125</ele>
        <time>2020-08-23T11:49:08.000Z</time>
      </trkpt>
      <trkpt lat="43.30909931100904941558837890625" lon="-1.68294693343341350555419921875">
        <ele>317.79998779296875</ele>
        <time>2020-08-23T11:49:09.000Z</time>
      </trkpt>
      <trkpt lat="43.30913099460303783416748046875" lon="-1.683018095791339874267578125">
        <ele>317.600006103515625</ele>
        <time>2020-08-23T11:49:10.000Z</time>
      </trkpt>
      <trkpt lat="43.30918631516396999359130859375" lon="-1.68318162672221660614013671875">
        <ele>317</ele>
        <time>2020-08-23T11:49:12.000Z</time>
      </trkpt>
      <trkpt lat="43.30920609645545482635498046875" lon="-1.68327533639967441558837890625">
        <ele>316.600006103515625</ele>
        <time>2020-08-23T11:49:13.000Z</time>
      </trkpt>
      <trkpt lat="43.3092207647860050201416015625" lon="-1.68336309492588043212890625">
        <ele>316</ele>
        <time>2020-08-23T11:49:14.000Z</time>
      </trkpt>
      <trkpt lat="43.3092261292040348052978515625" lon="-1.68345672078430652618408203125">
        <ele>315.399993896484375</ele>
        <time>2020-08-23T11:49:15.000Z</time>
      </trkpt>
      <trkpt lat="43.3092247880995273590087890625" lon="-1.683561243116855621337890625">
        <ele>314.79998779296875</ele>
        <time>2020-08-23T11:49:16.000Z</time>
      </trkpt>
      <trkpt lat="43.30921732820570468902587890625" lon="-1.68366325087845325469970703125">
        <ele>314.399993896484375</ele>
        <time>2020-08-23T11:49:17.000Z</time>
      </trkpt>
      <trkpt lat="43.30915060825645923614501953125" lon="-1.68400757946074008941650390625">
        <ele>314</ele>
        <time>2020-08-23T11:49:21.000Z</time>
      </trkpt>
      <trkpt lat="43.3091017417609691619873046875" lon="-1.6841635666787624359130859375">
        <ele>315</ele>
        <time>2020-08-23T11:49:25.000Z</time>
      </trkpt>
      <trkpt lat="43.3090715669095516204833984375" lon="-1.68429206125438213348388671875">
        <ele>316</ele>
        <time>2020-08-23T11:49:30.000Z</time>
      </trkpt>
      <trkpt lat="43.309057988226413726806640625" lon="-1.68442147783935070037841796875">
        <ele>316.600006103515625</ele>
        <time>2020-08-23T11:49:35.000Z</time>
      </trkpt>
      <trkpt lat="43.3090434037148952484130859375" lon="-1.68450982309877872467041015625">
        <ele>317</ele>
        <time>2020-08-23T11:49:39.000Z</time>
      </trkpt>
      <trkpt lat="43.30904583446681499481201171875" lon="-1.6845266707241535186767578125">
        <ele>317</ele>
        <time>2020-08-23T11:49:40.000Z</time>
      </trkpt>
      <trkpt lat="43.3090477623045444488525390625" lon="-1.684572435915470123291015625">
        <ele>317.20001220703125</ele>
        <time>2020-08-23T11:49:44.000Z</time>
      </trkpt>
      <trkpt lat="43.309432826936244964599609375" lon="-1.6842381656169891357421875">
        <ele>321.600006103515625</ele>
        <time>2020-08-23T11:51:32.000Z</time>
      </trkpt>
      <trkpt lat="43.30958395265042781829833984375" lon="-1.6842869482934474945068359375">
        <ele>322.20001220703125</ele>
        <time>2020-08-23T11:51:40.000Z</time>
      </trkpt>
      <trkpt lat="43.30966676585376262664794921875" lon="-1.68433447368443012237548828125">
        <ele>322.600006103515625</ele>
        <time>2020-08-23T11:51:44.000Z</time>
      </trkpt>
      <trkpt lat="43.30970146693289279937744140625" lon="-1.68437018059194087982177734375">
        <ele>322.79998779296875</ele>
        <time>2020-08-23T11:51:46.000Z</time>
      </trkpt>
      <trkpt lat="43.309725858271121978759765625" lon="-1.68444477953016757965087890625">
        <ele>323</ele>
        <time>2020-08-23T11:51:49.000Z</time>
      </trkpt>
      <trkpt lat="43.30971823073923587799072265625" lon="-1.68446875177323818206787109375">
        <ele>323.20001220703125</ele>
        <time>2020-08-23T11:51:50.000Z</time>
      </trkpt>
      <trkpt lat="43.309620581567287445068359375" lon="-1.6846057958900928497314453125">
        <ele>323.79998779296875</ele>
        <time>2020-08-23T11:51:57.000Z</time>
      </trkpt>
      <trkpt lat="43.30960138700902462005615234375" lon="-1.68464778922498226165771484375">
        <ele>324</ele>
        <time>2020-08-23T11:51:59.000Z</time>
      </trkpt>
      <trkpt lat="43.30956199206411838531494140625" lon="-1.6848260723054409027099609375">
        <ele>324.79998779296875</ele>
        <time>2020-08-23T11:52:06.000Z</time>
      </trkpt>
      <trkpt lat="43.30955721437931060791015625" lon="-1.68485197238624095916748046875">
        <ele>325</ele>
        <time>2020-08-23T11:52:07.000Z</time>
      </trkpt>
      <trkpt lat="43.3095194958150386810302734375" lon="-1.68508599512279033660888671875">
        <ele>326</ele>
        <time>2020-08-23T11:52:16.000Z</time>
      </trkpt>
      <trkpt lat="43.30951320938766002655029296875" lon="-1.6851100511848926544189453125">
        <ele>326</ele>
        <time>2020-08-23T11:52:17.000Z</time>
      </trkpt>
      <trkpt lat="43.30948881804943084716796875" lon="-1.6853457503020763397216796875">
        <ele>326.79998779296875</ele>
        <time>2020-08-23T11:52:26.000Z</time>
      </trkpt>
      <trkpt lat="43.309444896876811981201171875" lon="-1.685507856309413909912109375">
        <ele>327.600006103515625</ele>
        <time>2020-08-23T11:52:33.000Z</time>
      </trkpt>
      <trkpt lat="43.30943928100168704986572265625" lon="-1.68552939780056476593017578125">
        <ele>328</ele>
        <time>2020-08-23T11:52:34.000Z</time>
      </trkpt>
      <trkpt lat="43.30941799096763134002685546875" lon="-1.685648001730442047119140625">
        <ele>329</ele>
        <time>2020-08-23T11:52:40.000Z</time>
      </trkpt>
      <trkpt lat="43.3094175718724727630615234375" lon="-1.68566535227000713348388671875">
        <ele>329</ele>
        <time>2020-08-23T11:52:42.000Z</time>
      </trkpt>
      <trkpt lat="43.30944363959133625030517578125" lon="-1.68567180633544921875">
        <ele>329.399993896484375</ele>
        <time>2020-08-23T11:52:52.000Z</time>
      </trkpt>
      <trkpt lat="43.3094464056193828582763671875" lon="-1.68566585518419742584228515625">
        <ele>329.600006103515625</ele>
        <time>2020-08-23T11:52:59.000Z</time>
      </trkpt>
      <trkpt lat="43.3094601519405841827392578125" lon="-1.6856672801077365875244140625">
        <ele>329.399993896484375</ele>
        <time>2020-08-23T11:53:12.000Z</time>
      </trkpt>
      <trkpt lat="43.30948957242071628570556640625" lon="-1.68563333339989185333251953125">
        <ele>329.20001220703125</ele>
        <time>2020-08-23T11:53:19.000Z</time>
      </trkpt>
      <trkpt lat="43.30951773561537265777587890625" lon="-1.68563417159020900726318359375">
        <ele>329.399993896484375</ele>
        <time>2020-08-23T11:53:25.000Z</time>
      </trkpt>
      <trkpt lat="43.30953801982104778289794921875" lon="-1.685642302036285400390625">
        <ele>329.79998779296875</ele>
        <time>2020-08-23T11:53:32.000Z</time>
      </trkpt>
      <trkpt lat="43.30955444835126399993896484375" lon="-1.68566904030740261077880859375">
        <ele>329.600006103515625</ele>
        <time>2020-08-23T11:53:41.000Z</time>
      </trkpt>
      <trkpt lat="43.3096133731305599212646484375" lon="-1.6857913322746753692626953125">
        <ele>329.79998779296875</ele>
        <time>2020-08-23T11:53:48.000Z</time>
      </trkpt>
      <trkpt lat="43.30963508225977420806884765625" lon="-1.68583014048635959625244140625">
        <ele>330</ele>
        <time>2020-08-23T11:53:50.000Z</time>
      </trkpt>
      <trkpt lat="43.309717476367950439453125" lon="-1.6859874688088893890380859375">
        <ele>330.79998779296875</ele>
        <time>2020-08-23T11:53:58.000Z</time>
      </trkpt>
      <trkpt lat="43.3097246848046779632568359375" lon="-1.6860092617571353912353515625">
        <ele>331</ele>
        <time>2020-08-23T11:53:59.000Z</time>
      </trkpt>
      <trkpt lat="43.30977422185242176055908203125" lon="-1.68615686707198619842529296875">
        <ele>331.79998779296875</ele>
        <time>2020-08-23T11:54:06.000Z</time>
      </trkpt>
      <trkpt lat="43.30977908335626125335693359375" lon="-1.68618016876280307769775390625">
        <ele>332.20001220703125</ele>
        <time>2020-08-23T11:54:07.000Z</time>
      </trkpt>
      <trkpt lat="43.30980506725609302520751953125" lon="-1.686355769634246826171875">
        <ele>333.20001220703125</ele>
        <time>2020-08-23T11:54:15.000Z</time>
      </trkpt>
      <trkpt lat="43.30980774946510791778564453125" lon="-1.68637613765895366668701171875">
        <ele>333.20001220703125</ele>
        <time>2020-08-23T11:54:16.000Z</time>
      </trkpt>
      <trkpt lat="43.3098393492400646209716796875" lon="-1.6865306161344051361083984375">
        <ele>334</ele>
        <time>2020-08-23T11:54:23.000Z</time>
      </trkpt>
      <trkpt lat="43.309851251542568206787109375" lon="-1.68662021867930889129638671875">
        <ele>334.399993896484375</ele>
        <time>2020-08-23T11:54:27.000Z</time>
      </trkpt>
      <trkpt lat="43.30985535867512226104736328125" lon="-1.68675072491168975830078125">
        <ele>335</ele>
        <time>2020-08-23T11:54:33.000Z</time>
      </trkpt>
      <trkpt lat="43.3098634891211986541748046875" lon="-1.68679841794073581695556640625">
        <ele>335</ele>
        <time>2020-08-23T11:54:36.000Z</time>
      </trkpt>
      <trkpt lat="43.3098631538450717926025390625" lon="-1.68680394999682903289794921875">
        <ele>335.20001220703125</ele>
        <time>2020-08-23T11:54:38.000Z</time>
      </trkpt>
      <trkpt lat="43.30986256711184978485107421875" lon="-1.6868048720061779022216796875">
        <ele>335.399993896484375</ele>
        <time>2020-08-23T11:54:42.000Z</time>
      </trkpt>
      <trkpt lat="43.30987949855625629425048828125" lon="-1.68685407377779483795166015625">
        <ele>335.399993896484375</ele>
        <time>2020-08-23T11:54:47.000Z</time>
      </trkpt>
      <trkpt lat="43.30992459319531917572021484375" lon="-1.68695113621652126312255859375">
        <ele>335.20001220703125</ele>
        <time>2020-08-23T11:54:53.000Z</time>
      </trkpt>
      <trkpt lat="43.30996046774089336395263671875" lon="-1.6869986616075038909912109375">
        <ele>336</ele>
        <time>2020-08-23T11:54:57.000Z</time>
      </trkpt>
      <trkpt lat="43.309968598186969757080078125" lon="-1.68705121614038944244384765625">
        <ele>336.399993896484375</ele>
        <time>2020-08-23T11:55:00.000Z</time>
      </trkpt>
      <trkpt lat="43.31000187434256076812744140625" lon="-1.68715129606425762176513671875">
        <ele>336.79998779296875</ele>
        <time>2020-08-23T11:55:06.000Z</time>
      </trkpt>
      <trkpt lat="43.31001813523471355438232421875" lon="-1.68718063272535800933837890625">
        <ele>337</ele>
        <time>2020-08-23T11:55:08.000Z</time>
      </trkpt>
      <trkpt lat="43.3100519143044948577880859375" lon="-1.68722237460315227508544921875">
        <ele>337.600006103515625</ele>
        <time>2020-08-23T11:55:11.000Z</time>
      </trkpt>
      <trkpt lat="43.31009767949581146240234375" lon="-1.6872719116508960723876953125">
        <ele>337.600006103515625</ele>
        <time>2020-08-23T11:55:14.000Z</time>
      </trkpt>
      <trkpt lat="43.310222737491130828857421875" lon="-1.687388755381107330322265625">
        <ele>337.79998779296875</ele>
        <time>2020-08-23T11:55:21.000Z</time>
      </trkpt>
      <trkpt lat="43.3103409223258495330810546875" lon="-1.68745036236941814422607421875">
        <ele>338.79998779296875</ele>
        <time>2020-08-23T11:55:27.000Z</time>
      </trkpt>
      <trkpt lat="43.3103818260133266448974609375" lon="-1.68746410869061946868896484375">
        <ele>339</ele>
        <time>2020-08-23T11:55:29.000Z</time>
      </trkpt>
      <trkpt lat="43.3105005137622356414794921875" lon="-1.6875344328582286834716796875">
        <ele>339.20001220703125</ele>
        <time>2020-08-23T11:55:36.000Z</time>
      </trkpt>
      <trkpt lat="43.310576789081096649169921875" lon="-1.687648929655551910400390625">
        <ele>339.79998779296875</ele>
        <time>2020-08-23T11:55:42.000Z</time>
      </trkpt>
      <trkpt lat="43.31058508716523647308349609375" lon="-1.68767667375504970550537109375">
        <ele>339.79998779296875</ele>
        <time>2020-08-23T11:55:43.000Z</time>
      </trkpt>
      <trkpt lat="43.31061693839728832244873046875" lon="-1.6878323256969451904296875">
        <ele>340.79998779296875</ele>
        <time>2020-08-23T11:55:49.000Z</time>
      </trkpt>
      <trkpt lat="43.3106235601007938385009765625" lon="-1.68788555078208446502685546875">
        <ele>340.79998779296875</ele>
        <time>2020-08-23T11:55:51.000Z</time>
      </trkpt>
      <trkpt lat="43.31068617291748523712158203125" lon="-1.6880551166832447052001953125">
        <ele>341.399993896484375</ele>
        <time>2020-08-23T11:55:58.000Z</time>
      </trkpt>
      <trkpt lat="43.31081139855086803436279296875" lon="-1.68818461708724498748779296875">
        <ele>341.79998779296875</ele>
        <time>2020-08-23T11:56:05.000Z</time>
      </trkpt>
      <trkpt lat="43.3109497837722301483154296875" lon="-1.68834856711328029632568359375">
        <ele>341.79998779296875</ele>
        <time>2020-08-23T11:56:13.000Z</time>
      </trkpt>
      <trkpt lat="43.311024047434329986572265625" lon="-1.68862483464181423187255859375">
        <ele>341.399993896484375</ele>
        <time>2020-08-23T11:56:22.000Z</time>
      </trkpt>
      <trkpt lat="43.3111338503658771514892578125" lon="-1.688843853771686553955078125">
        <ele>341.20001220703125</ele>
        <time>2020-08-23T11:56:28.000Z</time>
      </trkpt>
      <trkpt lat="43.31125463359057903289794921875" lon="-1.6889717616140842437744140625">
        <ele>340.20001220703125</ele>
        <time>2020-08-23T11:56:32.000Z</time>
      </trkpt>
      <trkpt lat="43.311292938888072967529296875" lon="-1.68898642994463443756103515625">
        <ele>339.79998779296875</ele>
        <time>2020-08-23T11:56:33.000Z</time>
      </trkpt>
      <trkpt lat="43.3113299869000911712646484375" lon="-1.6889908723533153533935546875">
        <ele>339.600006103515625</ele>
        <time>2020-08-23T11:56:34.000Z</time>
      </trkpt>
      <trkpt lat="43.31139662303030490875244140625" lon="-1.6889803111553192138671875">
        <ele>339.399993896484375</ele>
        <time>2020-08-23T11:56:36.000Z</time>
      </trkpt>
      <trkpt lat="43.31142403185367584228515625" lon="-1.688973270356655120849609375">
        <ele>339.20001220703125</ele>
        <time>2020-08-23T11:56:37.000Z</time>
      </trkpt>
      <trkpt lat="43.311581946909427642822265625" lon="-1.6889318637549877166748046875">
        <ele>340</ele>
        <time>2020-08-23T11:56:44.000Z</time>
      </trkpt>
      <trkpt lat="43.311644308269023895263671875" lon="-1.68892691843211650848388671875">
        <ele>340.79998779296875</ele>
        <time>2020-08-23T11:56:47.000Z</time>
      </trkpt>
      <trkpt lat="43.3117155544459819793701171875" lon="-1.68893261812627315521240234375">
        <ele>341.20001220703125</ele>
        <time>2020-08-23T11:56:50.000Z</time>
      </trkpt>
      <trkpt lat="43.31187606789171695709228515625" lon="-1.68895206414163112640380859375">
        <ele>341</ele>
        <time>2020-08-23T11:56:57.000Z</time>
      </trkpt>
      <trkpt lat="43.312020488083362579345703125" lon="-1.68888031505048274993896484375">
        <ele>341</ele>
        <time>2020-08-23T11:57:02.000Z</time>
      </trkpt>
      <trkpt lat="43.3121725358068943023681640625" lon="-1.68872080743312835693359375">
        <ele>339.600006103515625</ele>
        <time>2020-08-23T11:57:07.000Z</time>
      </trkpt>
      <trkpt lat="43.31220396794378757476806640625" lon="-1.68869725428521633148193359375">
        <ele>339.399993896484375</ele>
        <time>2020-08-23T11:57:08.000Z</time>
      </trkpt>
      <trkpt lat="43.31236724741756916046142578125" lon="-1.68866741470992565155029296875">
        <ele>338.399993896484375</ele>
        <time>2020-08-23T11:57:13.000Z</time>
      </trkpt>
      <trkpt lat="43.3124893717467784881591796875" lon="-1.68876850046217441558837890625">
        <ele>337.79998779296875</ele>
        <time>2020-08-23T11:57:17.000Z</time>
      </trkpt>
      <trkpt lat="43.3125232346355915069580078125" lon="-1.688866652548313140869140625">
        <ele>337.600006103515625</ele>
        <time>2020-08-23T11:57:19.000Z</time>
      </trkpt>
      <trkpt lat="43.31253320910036563873291015625" lon="-1.688923649489879608154296875">
        <ele>336.600006103515625</ele>
        <time>2020-08-23T11:57:20.000Z</time>
      </trkpt>
      <trkpt lat="43.3125373162329196929931640625" lon="-1.68897855095565319061279296875">
        <ele>335.79998779296875</ele>
        <time>2020-08-23T11:57:21.000Z</time>
      </trkpt>
      <trkpt lat="43.31253807060420513153076171875" lon="-1.68903185985982418060302734375">
        <ele>334.79998779296875</ele>
        <time>2020-08-23T11:57:22.000Z</time>
      </trkpt>
      <trkpt lat="43.312511332333087921142578125" lon="-1.68919446878135204315185546875">
        <ele>333.600006103515625</ele>
        <time>2020-08-23T11:57:25.000Z</time>
      </trkpt>
      <trkpt lat="43.3124980889260768890380859375" lon="-1.68925054371356964111328125">
        <ele>333</ele>
        <time>2020-08-23T11:57:26.000Z</time>
      </trkpt>
      <trkpt lat="43.3124819956719875335693359375" lon="-1.68930158950388431549072265625">
        <ele>332.600006103515625</ele>
        <time>2020-08-23T11:57:27.000Z</time>
      </trkpt>
      <trkpt lat="43.31239373423159122467041015625" lon="-1.68948062695562839508056640625">
        <ele>332</ele>
        <time>2020-08-23T11:57:31.000Z</time>
      </trkpt>
      <trkpt lat="43.3123512379825115203857421875" lon="-1.68957601301372051239013671875">
        <ele>331.399993896484375</ele>
        <time>2020-08-23T11:57:33.000Z</time>
      </trkpt>
      <trkpt lat="43.31233941949903964996337890625" lon="-1.68969101272523403167724609375">
        <ele>330.399993896484375</ele>
        <time>2020-08-23T11:57:35.000Z</time>
      </trkpt>
      <trkpt lat="43.3123527467250823974609375" lon="-1.689805090427398681640625">
        <ele>329.399993896484375</ele>
        <time>2020-08-23T11:57:37.000Z</time>
      </trkpt>
      <trkpt lat="43.31236389465630054473876953125" lon="-1.6898635961115360260009765625">
        <ele>328.79998779296875</ele>
        <time>2020-08-23T11:57:38.000Z</time>
      </trkpt>
      <trkpt lat="43.3123733662068843841552734375" lon="-1.68992369435727596282958984375">
        <ele>328.20001220703125</ele>
        <time>2020-08-23T11:57:39.000Z</time>
      </trkpt>
      <trkpt lat="43.31237512640655040740966796875" lon="-1.68998546898365020751953125">
        <ele>327.79998779296875</ele>
        <time>2020-08-23T11:57:40.000Z</time>
      </trkpt>
      <trkpt lat="43.3123616315424442291259765625" lon="-1.69011044315993785858154296875">
        <ele>326.20001220703125</ele>
        <time>2020-08-23T11:57:42.000Z</time>
      </trkpt>
      <trkpt lat="43.31236657686531543731689453125" lon="-1.69024622999131679534912109375">
        <ele>325</ele>
        <time>2020-08-23T11:57:44.000Z</time>
      </trkpt>
      <trkpt lat="43.31242843531072139739990234375" lon="-1.690402887761592864990234375">
        <ele>323.399993896484375</ele>
        <time>2020-08-23T11:57:47.000Z</time>
      </trkpt>
      <trkpt lat="43.31255952827632427215576171875" lon="-1.690474636852741241455078125">
        <ele>321.79998779296875</ele>
        <time>2020-08-23T11:57:50.000Z</time>
      </trkpt>
      <trkpt lat="43.3127130009233951568603515625" lon="-1.69051981531083583831787109375">
        <ele>320.600006103515625</ele>
        <time>2020-08-23T11:57:53.000Z</time>
      </trkpt>
      <trkpt lat="43.3128048665821552276611328125" lon="-1.69055937789380550384521484375">
        <ele>320.20001220703125</ele>
        <time>2020-08-23T11:57:55.000Z</time>
      </trkpt>
      <trkpt lat="43.3129051141440868377685546875" lon="-1.6907400079071521759033203125">
        <ele>319.600006103515625</ele>
        <time>2020-08-23T11:57:59.000Z</time>
      </trkpt>
      <trkpt lat="43.3129133284091949462890625" lon="-1.6907963342964649200439453125">
        <ele>319.600006103515625</ele>
        <time>2020-08-23T11:58:00.000Z</time>
      </trkpt>
      <trkpt lat="43.31293872557580471038818359375" lon="-1.69100730679929256439208984375">
        <ele>319.600006103515625</ele>
        <time>2020-08-23T11:58:05.000Z</time>
      </trkpt>
      <trkpt lat="43.312964625656604766845703125" lon="-1.6911004297435283660888671875">
        <ele>319.600006103515625</ele>
        <time>2020-08-23T11:58:08.000Z</time>
      </trkpt>
      <trkpt lat="43.3129808865487575531005859375" lon="-1.69112247414886951446533203125">
        <ele>319.399993896484375</ele>
        <time>2020-08-23T11:58:09.000Z</time>
      </trkpt>
      <trkpt lat="43.31300343386828899383544921875" lon="-1.6911368072032928466796875">
        <ele>319.20001220703125</ele>
        <time>2020-08-23T11:58:10.000Z</time>
      </trkpt>
      <trkpt lat="43.313091360032558441162109375" lon="-1.69112347997725009918212890625">
        <ele>319</ele>
        <time>2020-08-23T11:58:13.000Z</time>
      </trkpt>
      <trkpt lat="43.3131694793701171875" lon="-1.69108576141297817230224609375">
        <ele>319.600006103515625</ele>
        <time>2020-08-23T11:58:16.000Z</time>
      </trkpt>
      <trkpt lat="43.3133084513247013092041015625" lon="-1.691015101969242095947265625">
        <ele>320.399993896484375</ele>
        <time>2020-08-23T11:58:21.000Z</time>
      </trkpt>
      <trkpt lat="43.3134524524211883544921875" lon="-1.69092332012951374053955078125">
        <ele>320</ele>
        <time>2020-08-23T11:58:25.000Z</time>
      </trkpt>
      <trkpt lat="43.3134926855564117431640625" lon="-1.69089750386774539947509765625">
        <ele>319.79998779296875</ele>
        <time>2020-08-23T11:58:26.000Z</time>
      </trkpt>
      <trkpt lat="43.31361480988562107086181640625" lon="-1.6908068954944610595703125">
        <ele>319.20001220703125</ele>
        <time>2020-08-23T11:58:29.000Z</time>
      </trkpt>
      <trkpt lat="43.31380181014537811279296875" lon="-1.690697260200977325439453125">
        <ele>318.79998779296875</ele>
        <time>2020-08-23T11:58:34.000Z</time>
      </trkpt>
      <trkpt lat="43.31397187896072864532470703125" lon="-1.6905951686203479766845703125">
        <ele>318.79998779296875</ele>
        <time>2020-08-23T11:58:40.000Z</time>
      </trkpt>
      <trkpt lat="43.31417539156973361968994140625" lon="-1.69051579199731349945068359375">
        <ele>318.79998779296875</ele>
        <time>2020-08-23T11:58:47.000Z</time>
      </trkpt>
      <trkpt lat="43.3144272677600383758544921875" lon="-1.69054546393454074859619140625">
        <ele>318.600006103515625</ele>
        <time>2020-08-23T11:58:56.000Z</time>
      </trkpt>
      <trkpt lat="43.314578644931316375732421875" lon="-1.69065208174288272857666015625">
        <ele>318.600006103515625</ele>
        <time>2020-08-23T11:59:02.000Z</time>
      </trkpt>
      <trkpt lat="43.31471107900142669677734375" lon="-1.6907946579158306121826171875">
        <ele>318</ele>
        <time>2020-08-23T11:59:08.000Z</time>
      </trkpt>
      <trkpt lat="43.31473681144416332244873046875" lon="-1.6908114217221736907958984375">
        <ele>318</ele>
        <time>2020-08-23T11:59:09.000Z</time>
      </trkpt>
      <trkpt lat="43.31487343646585941314697265625" lon="-1.6908090747892856597900390625">
        <ele>318.399993896484375</ele>
        <time>2020-08-23T11:59:14.000Z</time>
      </trkpt>
      <trkpt lat="43.31500872038304805755615234375" lon="-1.690730787813663482666015625">
        <ele>319</ele>
        <time>2020-08-23T11:59:20.000Z</time>
      </trkpt>
      <trkpt lat="43.3150284178555011749267578125" lon="-1.69071444310247898101806640625">
        <ele>319.20001220703125</ele>
        <time>2020-08-23T11:59:21.000Z</time>
      </trkpt>
      <trkpt lat="43.31515708006918430328369140625" lon="-1.690601371228694915771484375">
        <ele>320.20001220703125</ele>
        <time>2020-08-23T11:59:28.000Z</time>
      </trkpt>
      <trkpt lat="43.31527627073228359222412109375" lon="-1.69048377312719821929931640625">
        <ele>321.20001220703125</ele>
        <time>2020-08-23T11:59:35.000Z</time>
      </trkpt>
      <trkpt lat="43.31529420800507068634033203125" lon="-1.6904670931398868560791015625">
        <ele>321.20001220703125</ele>
        <time>2020-08-23T11:59:36.000Z</time>
      </trkpt>
      <trkpt lat="43.3154022507369518280029296875" lon="-1.69035905040800571441650390625">
        <ele>322</ele>
        <time>2020-08-23T11:59:42.000Z</time>
      </trkpt>
      <trkpt lat="43.3154227025806903839111328125" lon="-1.6903386823832988739013671875">
        <ele>322.20001220703125</ele>
        <time>2020-08-23T11:59:43.000Z</time>
      </trkpt>
      <trkpt lat="43.31561892293393611907958984375" lon="-1.69019610621035099029541015625">
        <ele>322.399993896484375</ele>
        <time>2020-08-23T11:59:51.000Z</time>
      </trkpt>
      <trkpt lat="43.31576426513493061065673828125" lon="-1.690084040164947509765625">
        <ele>323</ele>
        <time>2020-08-23T11:59:57.000Z</time>
      </trkpt>
      <trkpt lat="43.315787650644779205322265625" lon="-1.69006685726344585418701171875">
        <ele>323.399993896484375</ele>
        <time>2020-08-23T11:59:58.000Z</time>
      </trkpt>
      <trkpt lat="43.3159598149359226226806640625" lon="-1.68996828608214855194091796875">
        <ele>323.20001220703125</ele>
        <time>2020-08-23T12:00:05.000Z</time>
      </trkpt>
      <trkpt lat="43.3160614036023616790771484375" lon="-1.68993056751787662506103515625">
        <ele>323.79998779296875</ele>
        <time>2020-08-23T12:00:09.000Z</time>
      </trkpt>
      <trkpt lat="43.316204063594341278076171875" lon="-1.68990458361804485321044921875">
        <ele>324.399993896484375</ele>
        <time>2020-08-23T12:00:15.000Z</time>
      </trkpt>
      <trkpt lat="43.31637798808515071868896484375" lon="-1.68988781981170177459716796875">
        <ele>324</ele>
        <time>2020-08-23T12:00:22.000Z</time>
      </trkpt>
      <trkpt lat="43.3166327141225337982177734375" lon="-1.6898988001048564910888671875">
        <ele>324</ele>
        <time>2020-08-23T12:00:30.000Z</time>
      </trkpt>
      <trkpt lat="43.31680965609848499298095703125" lon="-1.6899423860013484954833984375">
        <ele>323</ele>
        <time>2020-08-23T12:00:34.000Z</time>
      </trkpt>
      <trkpt lat="43.31689330749213695526123046875" lon="-1.689987815916538238525390625">
        <ele>322.79998779296875</ele>
        <time>2020-08-23T12:00:36.000Z</time>
      </trkpt>
      <trkpt lat="43.316995985805988311767578125" lon="-1.6900925897061824798583984375">
        <ele>322.600006103515625</ele>
        <time>2020-08-23T12:00:39.000Z</time>
      </trkpt>
      <trkpt lat="43.317048959434032440185546875" lon="-1.6901656799018383026123046875">
        <ele>322.79998779296875</ele>
        <time>2020-08-23T12:00:41.000Z</time>
      </trkpt>
      <trkpt lat="43.31713470630347728729248046875" lon="-1.69035569764673709869384765625">
        <ele>323.399993896484375</ele>
        <time>2020-08-23T12:00:47.000Z</time>
      </trkpt>
      <trkpt lat="43.31724702380597591400146484375" lon="-1.6905988566577434539794921875">
        <ele>323</ele>
        <time>2020-08-23T12:00:55.000Z</time>
      </trkpt>
      <trkpt lat="43.31731407903134822845458984375" lon="-1.690720729529857635498046875">
        <ele>322.79998779296875</ele>
        <time>2020-08-23T12:01:01.000Z</time>
      </trkpt>
      <trkpt lat="43.31731642596423625946044921875" lon="-1.69072265736758708953857421875">
        <ele>322.79998779296875</ele>
        <time>2020-08-23T12:01:09.000Z</time>
      </trkpt>
      <trkpt lat="43.317316509783267974853515625" lon="-1.69072248972952365875244140625">
        <ele>322.600006103515625</ele>
        <time>2020-08-23T12:01:22.000Z</time>
      </trkpt>
      <trkpt lat="43.31733956001698970794677734375" lon="-1.69076825492084026336669921875">
        <ele>322.79998779296875</ele>
        <time>2020-08-23T12:02:01.000Z</time>
      </trkpt>
      <trkpt lat="43.31743109039962291717529296875" lon="-1.69097495265305042266845703125">
        <ele>322.600006103515625</ele>
        <time>2020-08-23T12:02:09.000Z</time>
      </trkpt>
      <trkpt lat="43.3175154961645603179931640625" lon="-1.69129832647740840911865234375">
        <ele>321.20001220703125</ele>
        <time>2020-08-23T12:02:16.000Z</time>
      </trkpt>
      <trkpt lat="43.31757760606706142425537109375" lon="-1.69152949936687946319580078125">
        <ele>321.20001220703125</ele>
        <time>2020-08-23T12:02:21.000Z</time>
      </trkpt>
      <trkpt lat="43.31764130853116512298583984375" lon="-1.6916920244693756103515625">
        <ele>321.20001220703125</ele>
        <time>2020-08-23T12:02:26.000Z</time>
      </trkpt>
      <trkpt lat="43.3177491836249828338623046875" lon="-1.69177944771945476531982421875">
        <ele>321.79998779296875</ele>
        <time>2020-08-23T12:02:31.000Z</time>
      </trkpt>
      <trkpt lat="43.31780240871012210845947265625" lon="-1.691793613135814666748046875">
        <ele>322.20001220703125</ele>
        <time>2020-08-23T12:02:33.000Z</time>
      </trkpt>
      <trkpt lat="43.31789310090243816375732421875" lon="-1.6918100416660308837890625">
        <ele>322.79998779296875</ele>
        <time>2020-08-23T12:02:36.000Z</time>
      </trkpt>
      <trkpt lat="43.3179724775254726409912109375" lon="-1.69182487763464450836181640625">
        <ele>323.20001220703125</ele>
        <time>2020-08-23T12:02:38.000Z</time>
      </trkpt>
      <trkpt lat="43.31801916472613811492919921875" lon="-1.6918393783271312713623046875">
        <ele>323.600006103515625</ele>
        <time>2020-08-23T12:02:39.000Z</time>
      </trkpt>
      <trkpt lat="43.3181096054613590240478515625" lon="-1.69189293868839740753173828125">
        <ele>325</ele>
        <time>2020-08-23T12:02:41.000Z</time>
      </trkpt>
      <trkpt lat="43.31838629208505153656005859375" lon="-1.692134253680706024169921875">
        <ele>325.79998779296875</ele>
        <time>2020-08-23T12:02:47.000Z</time>
      </trkpt>
      <trkpt lat="43.3184877969324588775634765625" lon="-1.69221530668437480926513671875">
        <ele>326</ele>
        <time>2020-08-23T12:02:50.000Z</time>
      </trkpt>
      <trkpt lat="43.31851034425199031829833984375" lon="-1.692235507071018218994140625">
        <ele>326.399993896484375</ele>
        <time>2020-08-23T12:02:51.000Z</time>
      </trkpt>
      <trkpt lat="43.318547308444976806640625" lon="-1.69227750040590763092041015625">
        <ele>327</ele>
        <time>2020-08-23T12:02:53.000Z</time>
      </trkpt>
      <trkpt lat="43.3185773156583309173583984375" lon="-1.69232896529138088226318359375">
        <ele>327.399993896484375</ele>
        <time>2020-08-23T12:02:55.000Z</time>
      </trkpt>
      <trkpt lat="43.31861327402293682098388671875" lon="-1.69240658171474933624267578125">
        <ele>327.79998779296875</ele>
        <time>2020-08-23T12:02:58.000Z</time>
      </trkpt>
      <trkpt lat="43.31864579580724239349365234375" lon="-1.69248000718653202056884765625">
        <ele>328.20001220703125</ele>
        <time>2020-08-23T12:03:01.000Z</time>
      </trkpt>
      <trkpt lat="43.31866574473679065704345703125" lon="-1.69258830137550830841064453125">
        <ele>329</ele>
        <time>2020-08-23T12:03:05.000Z</time>
      </trkpt>
      <trkpt lat="43.3186705224215984344482421875" lon="-1.692708246409893035888671875">
        <ele>329.20001220703125</ele>
        <time>2020-08-23T12:03:09.000Z</time>
      </trkpt>
      <trkpt lat="43.31866775639355182647705078125" lon="-1.69274202547967433929443359375">
        <ele>329.20001220703125</ele>
        <time>2020-08-23T12:03:10.000Z</time>
      </trkpt>
      <trkpt lat="43.31863355822861194610595703125" lon="-1.692996919155120849609375">
        <ele>329.79998779296875</ele>
        <time>2020-08-23T12:03:18.000Z</time>
      </trkpt>
      <trkpt lat="43.318590559065341949462890625" lon="-1.693105883896350860595703125">
        <ele>330.399993896484375</ele>
        <time>2020-08-23T12:03:22.000Z</time>
      </trkpt>
      <trkpt lat="43.3185451291501522064208984375" lon="-1.6931734420359134674072265625">
        <ele>330.600006103515625</ele>
        <time>2020-08-23T12:03:25.000Z</time>
      </trkpt>
      <trkpt lat="43.31845519132912158966064453125" lon="-1.69330461882054805755615234375">
        <ele>331</ele>
        <time>2020-08-23T12:03:31.000Z</time>
      </trkpt>
      <trkpt lat="43.3183966018259525299072265625" lon="-1.6934155113995075225830078125">
        <ele>331.399993896484375</ele>
        <time>2020-08-23T12:03:35.000Z</time>
      </trkpt>
      <trkpt lat="43.31836500205099582672119140625" lon="-1.693540401756763458251953125">
        <ele>331.20001220703125</ele>
        <time>2020-08-23T12:03:38.000Z</time>
      </trkpt>
      <trkpt lat="43.31841227598488330841064453125" lon="-1.6936823911964893341064453125">
        <ele>331</ele>
        <time>2020-08-23T12:03:42.000Z</time>
      </trkpt>
      <trkpt lat="43.318508751690387725830078125" lon="-1.6938594169914722442626953125">
        <ele>331.399993896484375</ele>
        <time>2020-08-23T12:03:48.000Z</time>
      </trkpt>
      <trkpt lat="43.31860120408236980438232421875" lon="-1.69403132982552051544189453125">
        <ele>332.20001220703125</ele>
        <time>2020-08-23T12:03:54.000Z</time>
      </trkpt>
      <trkpt lat="43.31864311359822750091552734375" lon="-1.694119758903980255126953125">
        <ele>332.399993896484375</ele>
        <time>2020-08-23T12:03:57.000Z</time>
      </trkpt>
      <trkpt lat="43.31869273446500301361083984375" lon="-1.6942245326936244964599609375">
        <ele>332</ele>
        <time>2020-08-23T12:04:00.000Z</time>
      </trkpt>
      <trkpt lat="43.31883019767701625823974609375" lon="-1.69451580382883548736572265625">
        <ele>331.20001220703125</ele>
        <time>2020-08-23T12:04:07.000Z</time>
      </trkpt>
      <trkpt lat="43.318849392235279083251953125" lon="-1.694565676152706146240234375">
        <ele>330.79998779296875</ele>
        <time>2020-08-23T12:04:08.000Z</time>
      </trkpt>
      <trkpt lat="43.318904377520084381103515625" lon="-1.69473725371062755584716796875">
        <ele>330</ele>
        <time>2020-08-23T12:04:11.000Z</time>
      </trkpt>
      <trkpt lat="43.31893916241824626922607421875" lon="-1.69487672857940196990966796875">
        <ele>330</ele>
        <time>2020-08-23T12:04:13.000Z</time>
      </trkpt>
      <trkpt lat="43.31907310523092746734619140625" lon="-1.6953617893159389495849609375">
        <ele>329.399993896484375</ele>
        <time>2020-08-23T12:04:20.000Z</time>
      </trkpt>
      <trkpt lat="43.319076038897037506103515625" lon="-1.695466898381710052490234375">
        <ele>329</ele>
        <time>2020-08-23T12:04:22.000Z</time>
      </trkpt>
      <trkpt lat="43.3190617896616458892822265625" lon="-1.69561366550624370574951171875">
        <ele>329.399993896484375</ele>
        <time>2020-08-23T12:04:25.000Z</time>
      </trkpt>
      <trkpt lat="43.319043852388858795166015625" lon="-1.69571424834430217742919921875">
        <ele>329.399993896484375</ele>
        <time>2020-08-23T12:04:27.000Z</time>
      </trkpt>
      <trkpt lat="43.31897520460188388824462890625" lon="-1.696008034050464630126953125">
        <ele>329</ele>
        <time>2020-08-23T12:04:32.000Z</time>
      </trkpt>
      <trkpt lat="43.31889507360756397247314453125" lon="-1.69644397683441638946533203125">
        <ele>327.399993896484375</ele>
        <time>2020-08-23T12:04:38.000Z</time>
      </trkpt>
      <trkpt lat="43.31886942498385906219482421875" lon="-1.69662066735327243804931640625">
        <ele>326.20001220703125</ele>
        <time>2020-08-23T12:04:40.000Z</time>
      </trkpt>
      <trkpt lat="43.318842016160488128662109375" lon="-1.69689483940601348876953125">
        <ele>325.20001220703125</ele>
        <time>2020-08-23T12:04:43.000Z</time>
      </trkpt>
      <trkpt lat="43.3188126794993877410888671875" lon="-1.69714537449181079864501953125">
        <ele>323.600006103515625</ele>
        <time>2020-08-23T12:04:46.000Z</time>
      </trkpt>
      <trkpt lat="43.318800441920757293701171875" lon="-1.69729775749146938323974609375">
        <ele>323</ele>
        <time>2020-08-23T12:04:48.000Z</time>
      </trkpt>
      <trkpt lat="43.31879985518753528594970703125" lon="-1.69737822376191616058349609375">
        <ele>322.600006103515625</ele>
        <time>2020-08-23T12:04:49.000Z</time>
      </trkpt>
      <trkpt lat="43.318803124129772186279296875" lon="-1.69761526398360729217529296875">
        <ele>321.20001220703125</ele>
        <time>2020-08-23T12:04:52.000Z</time>
      </trkpt>
      <trkpt lat="43.31881544552743434906005859375" lon="-1.697760857641696929931640625">
        <ele>320</ele>
        <time>2020-08-23T12:04:54.000Z</time>
      </trkpt>
      <trkpt lat="43.31882449798285961151123046875" lon="-1.697829924523830413818359375">
        <ele>319.600006103515625</ele>
        <time>2020-08-23T12:04:55.000Z</time>
      </trkpt>
      <trkpt lat="43.3188757114112377166748046875" lon="-1.69801533222198486328125">
        <ele>318.79998779296875</ele>
        <time>2020-08-23T12:04:58.000Z</time>
      </trkpt>
      <trkpt lat="43.31889943219721317291259765625" lon="-1.6980758495628833770751953125">
        <ele>318.600006103515625</ele>
        <time>2020-08-23T12:04:59.000Z</time>
      </trkpt>
      <trkpt lat="43.318922482430934906005859375" lon="-1.6981375403702259063720703125">
        <ele>318.20001220703125</ele>
        <time>2020-08-23T12:05:00.000Z</time>
      </trkpt>
      <trkpt lat="43.31897201947867870330810546875" lon="-1.698261089622974395751953125">
        <ele>316.79998779296875</ele>
        <time>2020-08-23T12:05:02.000Z</time>
      </trkpt>
      <trkpt lat="43.31902130506932735443115234375" lon="-1.6983854770660400390625">
        <ele>315.79998779296875</ele>
        <time>2020-08-23T12:05:04.000Z</time>
      </trkpt>
      <trkpt lat="43.31906430423259735107421875" lon="-1.69851983897387981414794921875">
        <ele>314.79998779296875</ele>
        <time>2020-08-23T12:05:06.000Z</time>
      </trkpt>
      <trkpt lat="43.31908903084695339202880859375" lon="-1.69858890585601329803466796875">
        <ele>314.600006103515625</ele>
        <time>2020-08-23T12:05:07.000Z</time>
      </trkpt>
      <trkpt lat="43.31914753653109073638916015625" lon="-1.69872452504932880401611328125">
        <ele>314</ele>
        <time>2020-08-23T12:05:09.000Z</time>
      </trkpt>
      <trkpt lat="43.31918240524828433990478515625" lon="-1.69879040680825710296630859375">
        <ele>313.399993896484375</ele>
        <time>2020-08-23T12:05:10.000Z</time>
      </trkpt>
      <trkpt lat="43.31922112964093685150146484375" lon="-1.69885695911943912506103515625">
        <ele>313.20001220703125</ele>
        <time>2020-08-23T12:05:11.000Z</time>
      </trkpt>
      <trkpt lat="43.31930779851973056793212890625" lon="-1.69898654334247112274169921875">
        <ele>312</ele>
        <time>2020-08-23T12:05:13.000Z</time>
      </trkpt>
      <trkpt lat="43.31940921954810619354248046875" lon="-1.69909802265465259552001953125">
        <ele>310.79998779296875</ele>
        <time>2020-08-23T12:05:15.000Z</time>
      </trkpt>
      <trkpt lat="43.3194647915661334991455078125" lon="-1.699143536388874053955078125">
        <ele>310.399993896484375</ele>
        <time>2020-08-23T12:05:16.000Z</time>
      </trkpt>
      <trkpt lat="43.3196850679814815521240234375" lon="-1.69924520887434482574462890625">
        <ele>310.20001220703125</ele>
        <time>2020-08-23T12:05:20.000Z</time>
      </trkpt>
      <trkpt lat="43.31995806656777858734130859375" lon="-1.69932114891707897186279296875">
        <ele>310.79998779296875</ele>
        <time>2020-08-23T12:05:26.000Z</time>
      </trkpt>
      <trkpt lat="43.3202553726732730865478515625" lon="-1.69934369623661041259765625">
        <ele>309.79998779296875</ele>
        <time>2020-08-23T12:05:32.000Z</time>
      </trkpt>
      <trkpt lat="43.3204619027674198150634765625" lon="-1.6994052194058895111083984375">
        <ele>308.79998779296875</ele>
        <time>2020-08-23T12:05:36.000Z</time>
      </trkpt>
      <trkpt lat="43.3205031417310237884521484375" lon="-1.69942684471607208251953125">
        <ele>308.20001220703125</ele>
        <time>2020-08-23T12:05:37.000Z</time>
      </trkpt>
      <trkpt lat="43.320537842810153961181640625" lon="-1.6994467936456203460693359375">
        <ele>307.600006103515625</ele>
        <time>2020-08-23T12:05:38.000Z</time>
      </trkpt>
      <trkpt lat="43.32060900516808032989501953125" lon="-1.69948744587600231170654296875">
        <ele>307</ele>
        <time>2020-08-23T12:05:41.000Z</time>
      </trkpt>
      <trkpt lat="43.320735655725002288818359375" lon="-1.6996063850820064544677734375">
        <ele>306.79998779296875</ele>
        <time>2020-08-23T12:05:48.000Z</time>
      </trkpt>
      <trkpt lat="43.32075619138777256011962890625" lon="-1.69963278807699680328369140625">
        <ele>306.600006103515625</ele>
        <time>2020-08-23T12:05:49.000Z</time>
      </trkpt>
      <trkpt lat="43.32089281640946865081787109375" lon="-1.6998326964676380157470703125">
        <ele>306</ele>
        <time>2020-08-23T12:05:56.000Z</time>
      </trkpt>
      <trkpt lat="43.32095324993133544921875" lon="-1.7000030167400836944580078125">
        <ele>305.600006103515625</ele>
        <time>2020-08-23T12:06:02.000Z</time>
      </trkpt>
      <trkpt lat="43.3209567703306674957275390625" lon="-1.7000271566212177276611328125">
        <ele>305.600006103515625</ele>
        <time>2020-08-23T12:06:03.000Z</time>
      </trkpt>
      <trkpt lat="43.32095366902649402618408203125" lon="-1.70006789267063140869140625">
        <ele>305.399993896484375</ele>
        <time>2020-08-23T12:06:08.000Z</time>
      </trkpt>
      <trkpt lat="43.32095635123550891876220703125" lon="-1.7000643722712993621826171875">
        <ele>305.20001220703125</ele>
        <time>2020-08-23T12:06:38.000Z</time>
      </trkpt>
      <trkpt lat="43.3209564350545406341552734375" lon="-1.70006386935710906982421875">
        <ele>305</ele>
        <time>2020-08-23T12:06:54.000Z</time>
      </trkpt>
      <trkpt lat="43.32095702178776264190673828125" lon="-1.70006110332906246185302734375">
        <ele>305.20001220703125</ele>
        <time>2020-08-23T12:07:24.000Z</time>
      </trkpt>
      <trkpt lat="43.32093782722949981689453125" lon="-1.7000784538686275482177734375">
        <ele>305</ele>
        <time>2020-08-23T12:07:29.000Z</time>
      </trkpt>
      <trkpt lat="43.3209198899567127227783203125" lon="-1.70008356682956218719482421875">
        <ele>305</ele>
        <time>2020-08-23T12:07:30.000Z</time>
      </trkpt>
      <trkpt lat="43.32086004316806793212890625" lon="-1.70004232786595821380615234375">
        <ele>304.600006103515625</ele>
        <time>2020-08-23T12:07:33.000Z</time>
      </trkpt>
      <trkpt lat="43.320837579667568206787109375" lon="-1.7000127397477626800537109375">
        <ele>304.600006103515625</ele>
        <time>2020-08-23T12:07:34.000Z</time>
      </trkpt>
      <trkpt lat="43.32070707343518733978271484375" lon="-1.69990218244493007659912109375">
        <ele>303.399993896484375</ele>
        <time>2020-08-23T12:07:39.000Z</time>
      </trkpt>
      <trkpt lat="43.3205656707286834716796875" lon="-1.69984820298850536346435546875">
        <ele>302</ele>
        <time>2020-08-23T12:07:44.000Z</time>
      </trkpt>
      <trkpt lat="43.32053842954337596893310546875" lon="-1.69983345083892345428466796875">
        <ele>302.20001220703125</ele>
        <time>2020-08-23T12:07:45.000Z</time>
      </trkpt>
      <trkpt lat="43.3204102702438831329345703125" lon="-1.6997948102653026580810546875">
        <ele>301.20001220703125</ele>
        <time>2020-08-23T12:07:50.000Z</time>
      </trkpt>
      <trkpt lat="43.32038403488695621490478515625" lon="-1.69980227015912532806396484375">
        <ele>301</ele>
        <time>2020-08-23T12:07:51.000Z</time>
      </trkpt>
      <trkpt lat="43.32020868547260761260986328125" lon="-1.69980394653975963592529296875">
        <ele>299.600006103515625</ele>
        <time>2020-08-23T12:07:56.000Z</time>
      </trkpt>
      <trkpt lat="43.32004507072269916534423828125" lon="-1.69978869147598743438720703125">
        <ele>298.600006103515625</ele>
        <time>2020-08-23T12:08:00.000Z</time>
      </trkpt>
      <trkpt lat="43.31996594555675983428955078125" lon="-1.69977963902056217193603515625">
        <ele>297.20001220703125</ele>
        <time>2020-08-23T12:08:02.000Z</time>
      </trkpt>
      <trkpt lat="43.3199246227741241455078125" lon="-1.69977444224059581756591796875">
        <ele>296.79998779296875</ele>
        <time>2020-08-23T12:08:03.000Z</time>
      </trkpt>
      <trkpt lat="43.319806270301342010498046875" lon="-1.6997803933918476104736328125">
        <ele>296.399993896484375</ele>
        <time>2020-08-23T12:08:06.000Z</time>
      </trkpt>
      <trkpt lat="43.31976243294775485992431640625" lon="-1.69978768564760684967041015625">
        <ele>296.20001220703125</ele>
        <time>2020-08-23T12:08:07.000Z</time>
      </trkpt>
      <trkpt lat="43.31972203217446804046630859375" lon="-1.69979807920753955841064453125">
        <ele>295.600006103515625</ele>
        <time>2020-08-23T12:08:08.000Z</time>
      </trkpt>
      <trkpt lat="43.3196803741157054901123046875" lon="-1.6998041979968547821044921875">
        <ele>295.399993896484375</ele>
        <time>2020-08-23T12:08:09.000Z</time>
      </trkpt>
      <trkpt lat="43.3195221237838268280029296875" lon="-1.69980235397815704345703125">
        <ele>294.79998779296875</ele>
        <time>2020-08-23T12:08:13.000Z</time>
      </trkpt>
      <trkpt lat="43.3194064535200595855712890625" lon="-1.69980126433074474334716796875">
        <ele>293.20001220703125</ele>
        <time>2020-08-23T12:08:16.000Z</time>
      </trkpt>
      <trkpt lat="43.31929790787398815155029296875" lon="-1.69978450052440166473388671875">
        <ele>293.399993896484375</ele>
        <time>2020-08-23T12:08:19.000Z</time>
      </trkpt>
      <trkpt lat="43.31915055401623249053955078125" lon="-1.69976622797548770904541015625">
        <ele>292.20001220703125</ele>
        <time>2020-08-23T12:08:23.000Z</time>
      </trkpt>
      <trkpt lat="43.31912457011640071868896484375" lon="-1.6997756995260715484619140625">
        <ele>291.600006103515625</ele>
        <time>2020-08-23T12:08:24.000Z</time>
      </trkpt>
      <trkpt lat="43.3190513961017131805419921875" lon="-1.699825823307037353515625">
        <ele>290.79998779296875</ele>
        <time>2020-08-23T12:08:27.000Z</time>
      </trkpt>
      <trkpt lat="43.318986184895038604736328125" lon="-1.69992062263190746307373046875">
        <ele>289.600006103515625</ele>
        <time>2020-08-23T12:08:30.000Z</time>
      </trkpt>
      <trkpt lat="43.3189555071294307708740234375" lon="-1.70000578276813030242919921875">
        <ele>288.399993896484375</ele>
        <time>2020-08-23T12:08:32.000Z</time>
      </trkpt>
      <trkpt lat="43.318953998386859893798828125" lon="-1.70007937587797641754150390625">
        <ele>287.399993896484375</ele>
        <time>2020-08-23T12:08:34.000Z</time>
      </trkpt>
      <trkpt lat="43.3189243264496326446533203125" lon="-1.7002522945404052734375">
        <ele>286</ele>
        <time>2020-08-23T12:08:38.000Z</time>
      </trkpt>
      <trkpt lat="43.31890647299587726593017578125" lon="-1.7004425637423992156982421875">
        <ele>284.79998779296875</ele>
        <time>2020-08-23T12:08:42.000Z</time>
      </trkpt>
      <trkpt lat="43.3189035393297672271728515625" lon="-1.70048631727695465087890625">
        <ele>284.399993896484375</ele>
        <time>2020-08-23T12:08:43.000Z</time>
      </trkpt>
      <trkpt lat="43.318907059729099273681640625" lon="-1.7005915939807891845703125">
        <ele>283.600006103515625</ele>
        <time>2020-08-23T12:08:45.000Z</time>
      </trkpt>
      <trkpt lat="43.3189146034419536590576171875" lon="-1.700700223445892333984375">
        <ele>282.399993896484375</ele>
        <time>2020-08-23T12:08:47.000Z</time>
      </trkpt>
      <trkpt lat="43.318919800221920013427734375" lon="-1.70075696893036365509033203125">
        <ele>281.600006103515625</ele>
        <time>2020-08-23T12:08:48.000Z</time>
      </trkpt>
      <trkpt lat="43.31892726011574268341064453125" lon="-1.7008113674819469451904296875">
        <ele>281.399993896484375</ele>
        <time>2020-08-23T12:08:49.000Z</time>
      </trkpt>
      <trkpt lat="43.3189776353538036346435546875" lon="-1.70097288675606250762939453125">
        <ele>280.79998779296875</ele>
        <time>2020-08-23T12:08:53.000Z</time>
      </trkpt>
      <trkpt lat="43.31899230368435382843017578125" lon="-1.70100758783519268035888671875">
        <ele>280.20001220703125</ele>
        <time>2020-08-23T12:08:54.000Z</time>
      </trkpt>
      <trkpt lat="43.31908349879086017608642578125" lon="-1.701134406030178070068359375">
        <ele>278.79998779296875</ele>
        <time>2020-08-23T12:08:59.000Z</time>
      </trkpt>
      <trkpt lat="43.31916279159486293792724609375" lon="-1.70118545182049274444580078125">
        <ele>277</ele>
        <time>2020-08-23T12:09:02.000Z</time>
      </trkpt>
      <trkpt lat="43.31922414712607860565185546875" lon="-1.7012177221477031707763671875">
        <ele>276</ele>
        <time>2020-08-23T12:09:04.000Z</time>
      </trkpt>
      <trkpt lat="43.31927795894443988800048828125" lon="-1.70126223005354404449462890625">
        <ele>275.20001220703125</ele>
        <time>2020-08-23T12:09:06.000Z</time>
      </trkpt>
      <trkpt lat="43.3192995004355907440185546875" lon="-1.70129223726689815521240234375">
        <ele>274.79998779296875</ele>
        <time>2020-08-23T12:09:07.000Z</time>
      </trkpt>
      <trkpt lat="43.31935155205428600311279296875" lon="-1.701461970806121826171875">
        <ele>273.600006103515625</ele>
        <time>2020-08-23T12:09:11.000Z</time>
      </trkpt>
      <trkpt lat="43.31936261616647243499755859375" lon="-1.70160873793065547943115234375">
        <ele>272.399993896484375</ele>
        <time>2020-08-23T12:09:15.000Z</time>
      </trkpt>
      <trkpt lat="43.31936412490904331207275390625" lon="-1.7016740329563617706298828125">
        <ele>272</ele>
        <time>2020-08-23T12:09:17.000Z</time>
      </trkpt>
      <trkpt lat="43.3193984068930149078369140625" lon="-1.70186069793999195098876953125">
        <ele>271.20001220703125</ele>
        <time>2020-08-23T12:09:23.000Z</time>
      </trkpt>
      <trkpt lat="43.3194081299006938934326171875" lon="-1.7018869332969188690185546875">
        <ele>271.20001220703125</ele>
        <time>2020-08-23T12:09:24.000Z</time>
      </trkpt>
      <trkpt lat="43.3194450102746486663818359375" lon="-1.7019878514111042022705078125">
        <ele>270.20001220703125</ele>
        <time>2020-08-23T12:09:27.000Z</time>
      </trkpt>
      <trkpt lat="43.31945121288299560546875" lon="-1.70202397741377353668212890625">
        <ele>270.20001220703125</ele>
        <time>2020-08-23T12:09:28.000Z</time>
      </trkpt>
      <trkpt lat="43.3194637857377529144287109375" lon="-1.702130846679210662841796875">
        <ele>268.79998779296875</ele>
        <time>2020-08-23T12:09:31.000Z</time>
      </trkpt>
      <trkpt lat="43.319456912577152252197265625" lon="-1.70222966931760311126708984375">
        <ele>267.79998779296875</ele>
        <time>2020-08-23T12:09:34.000Z</time>
      </trkpt>
      <trkpt lat="43.31939681433141231536865234375" lon="-1.7023717425763607025146484375">
        <ele>266.600006103515625</ele>
        <time>2020-08-23T12:09:38.000Z</time>
      </trkpt>
      <trkpt lat="43.31934652291238307952880859375" lon="-1.70242798514664173126220703125">
        <ele>265.600006103515625</ele>
        <time>2020-08-23T12:09:40.000Z</time>
      </trkpt>
      <trkpt lat="43.31931349821388721466064453125" lon="-1.7024528793990612030029296875">
        <ele>265.399993896484375</ele>
        <time>2020-08-23T12:09:41.000Z</time>
      </trkpt>
      <trkpt lat="43.31923353485763072967529296875" lon="-1.7025031708180904388427734375">
        <ele>264</ele>
        <time>2020-08-23T12:09:44.000Z</time>
      </trkpt>
      <trkpt lat="43.31922699697315692901611328125" lon="-1.702511720359325408935546875">
        <ele>264</ele>
        <time>2020-08-23T12:09:45.000Z</time>
      </trkpt>
      <trkpt lat="43.31922347657382488250732421875" lon="-1.7025152407586574554443359375">
        <ele>263.79998779296875</ele>
        <time>2020-08-23T12:09:53.000Z</time>
      </trkpt>
      <trkpt lat="43.319224230945110321044921875" lon="-1.7025252990424633026123046875">
        <ele>263.79998779296875</ele>
        <time>2020-08-23T12:10:00.000Z</time>
      </trkpt>
      <trkpt lat="43.319223560392856597900390625" lon="-1.70252504758536815643310546875">
        <ele>264.20001220703125</ele>
        <time>2020-08-23T12:10:32.000Z</time>
      </trkpt>
      <trkpt lat="43.31922632642090320587158203125" lon="-1.70251750387251377105712890625">
        <ele>264</ele>
        <time>2020-08-23T12:11:31.000Z</time>
      </trkpt>
      <trkpt lat="43.31921140663325786590576171875" lon="-1.7025201022624969482421875">
        <ele>264.399993896484375</ele>
        <time>2020-08-23T12:11:38.000Z</time>
      </trkpt>
      <trkpt lat="43.3192076347768306732177734375" lon="-1.70252001844346523284912109375">
        <ele>264.20001220703125</ele>
        <time>2020-08-23T12:11:44.000Z</time>
      </trkpt>
      <trkpt lat="43.319186009466648101806640625" lon="-1.7025268077850341796875">
        <ele>264</ele>
        <time>2020-08-23T12:11:55.000Z</time>
      </trkpt>
      <trkpt lat="43.319078721106052398681640625" lon="-1.7025957070291042327880859375">
        <ele>263.79998779296875</ele>
        <time>2020-08-23T12:12:02.000Z</time>
      </trkpt>
      <trkpt lat="43.31899062730371952056884765625" lon="-1.70271699316799640655517578125">
        <ele>264.20001220703125</ele>
        <time>2020-08-23T12:12:08.000Z</time>
      </trkpt>
      <trkpt lat="43.31898459233343601226806640625" lon="-1.70286233536899089813232421875">
        <ele>263.79998779296875</ele>
        <time>2020-08-23T12:12:13.000Z</time>
      </trkpt>
      <trkpt lat="43.319001607596874237060546875" lon="-1.70303349383175373077392578125">
        <ele>265</ele>
        <time>2020-08-23T12:12:20.000Z</time>
      </trkpt>
      <trkpt lat="43.31900403834879398345947265625" lon="-1.7032112739980220794677734375">
        <ele>265.20001220703125</ele>
        <time>2020-08-23T12:12:27.000Z</time>
      </trkpt>
      <trkpt lat="43.319004289805889129638671875" lon="-1.7032407782971858978271484375">
        <ele>265.20001220703125</ele>
        <time>2020-08-23T12:12:28.000Z</time>
      </trkpt>
      <trkpt lat="43.3189716003835201263427734375" lon="-1.70340749435126781463623046875">
        <ele>265.20001220703125</ele>
        <time>2020-08-23T12:12:34.000Z</time>
      </trkpt>
      <trkpt lat="43.3189595304429531097412109375" lon="-1.70343264006078243255615234375">
        <ele>265.20001220703125</ele>
        <time>2020-08-23T12:12:35.000Z</time>
      </trkpt>
      <trkpt lat="43.31883824430406093597412109375" lon="-1.7035861127078533172607421875">
        <ele>264.399993896484375</ele>
        <time>2020-08-23T12:12:41.000Z</time>
      </trkpt>
      <trkpt lat="43.318699188530445098876953125" lon="-1.703781075775623321533203125">
        <ele>264.79998779296875</ele>
        <time>2020-08-23T12:12:47.000Z</time>
      </trkpt>
      <trkpt lat="43.3186685107648372650146484375" lon="-1.70391996391117572784423828125">
        <ele>264</ele>
        <time>2020-08-23T12:12:52.000Z</time>
      </trkpt>
      <trkpt lat="43.31866197288036346435546875" lon="-1.7039663158357143402099609375">
        <ele>264.600006103515625</ele>
        <time>2020-08-23T12:12:54.000Z</time>
      </trkpt>
      <trkpt lat="43.31864998675882816314697265625" lon="-1.7040048725903034210205078125">
        <ele>265.399993896484375</ele>
        <time>2020-08-23T12:12:56.000Z</time>
      </trkpt>
      <trkpt lat="43.3186416886746883392333984375" lon="-1.70404720120131969451904296875">
        <ele>265.79998779296875</ele>
        <time>2020-08-23T12:12:58.000Z</time>
      </trkpt>
      <trkpt lat="43.31863506697118282318115234375" lon="-1.70406840741634368896484375">
        <ele>266.20001220703125</ele>
        <time>2020-08-23T12:12:59.000Z</time>
      </trkpt>
      <trkpt lat="43.31862685270607471466064453125" lon="-1.704087518155574798583984375">
        <ele>266.399993896484375</ele>
        <time>2020-08-23T12:13:00.000Z</time>
      </trkpt>
      <trkpt lat="43.318607993423938751220703125" lon="-1.7041433416306972503662109375">
        <ele>267.20001220703125</ele>
        <time>2020-08-23T12:13:03.000Z</time>
      </trkpt>
      <trkpt lat="43.31859835423529148101806640625" lon="-1.70417435467243194580078125">
        <ele>267.600006103515625</ele>
        <time>2020-08-23T12:13:05.000Z</time>
      </trkpt>
      <trkpt lat="43.31857572309672832489013671875" lon="-1.70429295860230922698974609375">
        <ele>268.600006103515625</ele>
        <time>2020-08-23T12:13:11.000Z</time>
      </trkpt>
      <trkpt lat="43.31857572309672832489013671875" lon="-1.704317517578601837158203125">
        <ele>268.79998779296875</ele>
        <time>2020-08-23T12:13:12.000Z</time>
      </trkpt>
      <trkpt lat="43.318567760288715362548828125" lon="-1.704425476491451263427734375">
        <ele>270</ele>
        <time>2020-08-23T12:13:17.000Z</time>
      </trkpt>
      <trkpt lat="43.318601287901401519775390625" lon="-1.7045235447585582733154296875">
        <ele>271</ele>
        <time>2020-08-23T12:13:22.000Z</time>
      </trkpt>
      <trkpt lat="43.318607993423938751220703125" lon="-1.7045419849455356597900390625">
        <ele>271.399993896484375</ele>
        <time>2020-08-23T12:13:23.000Z</time>
      </trkpt>
      <trkpt lat="43.318636156618595123291015625" lon="-1.70462018810212612152099609375">
        <ele>272.20001220703125</ele>
        <time>2020-08-23T12:13:27.000Z</time>
      </trkpt>
      <trkpt lat="43.31865535117685794830322265625" lon="-1.70467198826372623443603515625">
        <ele>272.399993896484375</ele>
        <time>2020-08-23T12:13:30.000Z</time>
      </trkpt>
      <trkpt lat="43.31869340501725673675537109375" lon="-1.7048205994069576263427734375">
        <ele>272.399993896484375</ele>
        <time>2020-08-23T12:13:37.000Z</time>
      </trkpt>
      <trkpt lat="43.3187053911387920379638671875" lon="-1.7048616707324981689453125">
        <ele>273.20001220703125</ele>
        <time>2020-08-23T12:13:39.000Z</time>
      </trkpt>
      <trkpt lat="43.31871335394680500030517578125" lon="-1.70496552251279354095458984375">
        <ele>274.20001220703125</ele>
        <time>2020-08-23T12:13:44.000Z</time>
      </trkpt>
      <trkpt lat="43.318713270127773284912109375" lon="-1.7049875669181346893310546875">
        <ele>274.399993896484375</ele>
        <time>2020-08-23T12:13:45.000Z</time>
      </trkpt>
      <trkpt lat="43.31869977526366710662841796875" lon="-1.70513634569942951202392578125">
        <ele>275.399993896484375</ele>
        <time>2020-08-23T12:13:52.000Z</time>
      </trkpt>
      <trkpt lat="43.31871469505131244659423828125" lon="-1.70526777394115924835205078125">
        <ele>276</ele>
        <time>2020-08-23T12:13:58.000Z</time>
      </trkpt>
      <trkpt lat="43.31873439252376556396484375" lon="-1.70535511337220668792724609375">
        <ele>276.399993896484375</ele>
        <time>2020-08-23T12:14:02.000Z</time>
      </trkpt>
      <trkpt lat="43.318742774426937103271484375" lon="-1.7053959332406520843505859375">
        <ele>276.600006103515625</ele>
        <time>2020-08-23T12:14:04.000Z</time>
      </trkpt>
      <trkpt lat="43.3187513239681720733642578125" lon="-1.70552694238722324371337890625">
        <ele>277.600006103515625</ele>
        <time>2020-08-23T12:14:10.000Z</time>
      </trkpt>
      <trkpt lat="43.3187580294907093048095703125" lon="-1.7057208158075809478759765625">
        <ele>278</ele>
        <time>2020-08-23T12:14:18.000Z</time>
      </trkpt>
      <trkpt lat="43.31877219490706920623779296875" lon="-1.705825589597225189208984375">
        <ele>278.600006103515625</ele>
        <time>2020-08-23T12:14:22.000Z</time>
      </trkpt>
      <trkpt lat="43.31878175027668476104736328125" lon="-1.70587847940623760223388671875">
        <ele>279</ele>
        <time>2020-08-23T12:14:24.000Z</time>
      </trkpt>
      <trkpt lat="43.31878996454179286956787109375" lon="-1.70597839169204235076904296875">
        <ele>279.399993896484375</ele>
        <time>2020-08-23T12:14:28.000Z</time>
      </trkpt>
      <trkpt lat="43.31878107972443103790283203125" lon="-1.7060579359531402587890625">
        <ele>279.399993896484375</ele>
        <time>2020-08-23T12:14:31.000Z</time>
      </trkpt>
      <trkpt lat="43.318782337009906768798828125" lon="-1.70616061426699161529541015625">
        <ele>279.79998779296875</ele>
        <time>2020-08-23T12:14:35.000Z</time>
      </trkpt>
      <trkpt lat="43.31879206001758575439453125" lon="-1.7062616162002086639404296875">
        <ele>280.20001220703125</ele>
        <time>2020-08-23T12:14:39.000Z</time>
      </trkpt>
      <trkpt lat="43.31886523403227329254150390625" lon="-1.70646001584827899932861328125">
        <ele>280.399993896484375</ele>
        <time>2020-08-23T12:14:47.000Z</time>
      </trkpt>
      <trkpt lat="43.31889054737985134124755859375" lon="-1.70650159008800983428955078125">
        <ele>281</ele>
        <time>2020-08-23T12:14:49.000Z</time>
      </trkpt>
      <trkpt lat="43.3189793117344379425048828125" lon="-1.70666973106563091278076171875">
        <ele>282</ele>
        <time>2020-08-23T12:14:56.000Z</time>
      </trkpt>
      <trkpt lat="43.31903052516281604766845703125" lon="-1.7067615129053592681884765625">
        <ele>280.79998779296875</ele>
        <time>2020-08-23T12:14:59.000Z</time>
      </trkpt>
      <trkpt lat="43.319080062210559844970703125" lon="-1.7068996466696262359619140625">
        <ele>280.20001220703125</ele>
        <time>2020-08-23T12:15:02.000Z</time>
      </trkpt>
      <trkpt lat="43.31917335279285907745361328125" lon="-1.7071618326008319854736328125">
        <ele>279.79998779296875</ele>
        <time>2020-08-23T12:15:07.000Z</time>
      </trkpt>
      <trkpt lat="43.319195397198200225830078125" lon="-1.7072630859911441802978515625">
        <ele>279.600006103515625</ele>
        <time>2020-08-23T12:15:09.000Z</time>
      </trkpt>
      <trkpt lat="43.31923152320086956024169921875" lon="-1.70765309594571590423583984375">
        <ele>279.399993896484375</ele>
        <time>2020-08-23T12:15:16.000Z</time>
      </trkpt>
      <trkpt lat="43.319223560392856597900390625" lon="-1.70792031101882457733154296875">
        <ele>278</ele>
        <time>2020-08-23T12:15:20.000Z</time>
      </trkpt>
      <trkpt lat="43.31921542994678020477294921875" lon="-1.7080660723149776458740234375">
        <ele>277.20001220703125</ele>
        <time>2020-08-23T12:15:22.000Z</time>
      </trkpt>
      <trkpt lat="43.31920922733843326568603515625" lon="-1.70813539065420627593994140625">
        <ele>277</ele>
        <time>2020-08-23T12:15:23.000Z</time>
      </trkpt>
      <trkpt lat="43.31919883377850055694580078125" lon="-1.7081995122134685516357421875">
        <ele>276.79998779296875</ele>
        <time>2020-08-23T12:15:24.000Z</time>
      </trkpt>
      <trkpt lat="43.31915105693042278289794921875" lon="-1.7083661444485187530517578125">
        <ele>276.20001220703125</ele>
        <time>2020-08-23T12:15:27.000Z</time>
      </trkpt>
      <trkpt lat="43.31908752210438251495361328125" lon="-1.7084841616451740264892578125">
        <ele>276.399993896484375</ele>
        <time>2020-08-23T12:15:31.000Z</time>
      </trkpt>
      <trkpt lat="43.3190302737057209014892578125" lon="-1.70865766704082489013671875">
        <ele>276.79998779296875</ele>
        <time>2020-08-23T12:15:37.000Z</time>
      </trkpt>
      <trkpt lat="43.31894494593143463134765625" lon="-1.7088268138468265533447265625">
        <ele>277.20001220703125</ele>
        <time>2020-08-23T12:15:44.000Z</time>
      </trkpt>
      <trkpt lat="43.31888652406632900238037109375" lon="-1.70894809998571872711181640625">
        <ele>278</ele>
        <time>2020-08-23T12:15:49.000Z</time>
      </trkpt>
      <trkpt lat="43.31879834644496440887451171875" lon="-1.70908506028354167938232421875">
        <ele>277.399993896484375</ele>
        <time>2020-08-23T12:15:54.000Z</time>
      </trkpt>
      <trkpt lat="43.31874109804630279541015625" lon="-1.7091775126755237579345703125">
        <ele>276.79998779296875</ele>
        <time>2020-08-23T12:15:59.000Z</time>
      </trkpt>
      <trkpt lat="43.3187238313257694244384765625" lon="-1.70921531505882740020751953125">
        <ele>276.399993896484375</ele>
        <time>2020-08-23T12:16:04.000Z</time>
      </trkpt>
      <trkpt lat="43.3186988532543182373046875" lon="-1.70925043523311614990234375">
        <ele>276.399993896484375</ele>
        <time>2020-08-23T12:16:10.000Z</time>
      </trkpt>
      <trkpt lat="43.31866205669939517974853515625" lon="-1.709308438003063201904296875">
        <ele>276.20001220703125</ele>
        <time>2020-08-23T12:16:18.000Z</time>
      </trkpt>
      <trkpt lat="43.3186183869838714599609375" lon="-1.70936577022075653076171875">
        <ele>276.399993896484375</ele>
        <time>2020-08-23T12:16:25.000Z</time>
      </trkpt>
      <trkpt lat="43.3186078257858753204345703125" lon="-1.70937993563711643218994140625">
        <ele>276.20001220703125</ele>
        <time>2020-08-23T12:16:30.000Z</time>
      </trkpt>
      <trkpt lat="43.31860858015716075897216796875" lon="-1.709382869303226470947265625">
        <ele>276.600006103515625</ele>
        <time>2020-08-23T12:16:50.000Z</time>
      </trkpt>
      <trkpt lat="43.3185917325317859649658203125" lon="-1.7093937657773494720458984375">
        <ele>276.79998779296875</ele>
        <time>2020-08-23T12:16:59.000Z</time>
      </trkpt>
      <trkpt lat="43.318578489124774932861328125" lon="-1.70939971692860126495361328125">
        <ele>276.600006103515625</ele>
        <time>2020-08-23T12:17:04.000Z</time>
      </trkpt>
      <trkpt lat="43.31855895929038524627685546875" lon="-1.7094182409346103668212890625">
        <ele>276.600006103515625</ele>
        <time>2020-08-23T12:17:06.000Z</time>
      </trkpt>
      <trkpt lat="43.3184287883341312408447265625" lon="-1.70949744991958141326904296875">
        <ele>277.20001220703125</ele>
        <time>2020-08-23T12:17:14.000Z</time>
      </trkpt>
      <trkpt lat="43.31833264790475368499755859375" lon="-1.709599457681179046630859375">
        <ele>277.600006103515625</ele>
        <time>2020-08-23T12:17:20.000Z</time>
      </trkpt>
      <trkpt lat="43.3182420395314693450927734375" lon="-1.70972275547683238983154296875">
        <ele>277</ele>
        <time>2020-08-23T12:17:25.000Z</time>
      </trkpt>
      <trkpt lat="43.31811421550810337066650390625" lon="-1.70976340770721435546875">
        <ele>277</ele>
        <time>2020-08-23T12:17:29.000Z</time>
      </trkpt>
      <trkpt lat="43.3179972879588603973388671875" lon="-1.70977883040904998779296875">
        <ele>275.79998779296875</ele>
        <time>2020-08-23T12:17:33.000Z</time>
      </trkpt>
      <trkpt lat="43.317972309887409210205078125" lon="-1.70978142879903316497802734375">
        <ele>275.399993896484375</ele>
        <time>2020-08-23T12:17:34.000Z</time>
      </trkpt>
      <trkpt lat="43.31786259077489376068115234375" lon="-1.7098229192197322845458984375">
        <ele>274.79998779296875</ele>
        <time>2020-08-23T12:17:39.000Z</time>
      </trkpt>
      <trkpt lat="43.3177706412971019744873046875" lon="-1.70984529890120029449462890625">
        <ele>275</ele>
        <time>2020-08-23T12:17:44.000Z</time>
      </trkpt>
      <trkpt lat="43.31770434044301509857177734375" lon="-1.70986105687916278839111328125">
        <ele>275.399993896484375</ele>
        <time>2020-08-23T12:17:47.000Z</time>
      </trkpt>
      <trkpt lat="43.31764901988208293914794921875" lon="-1.70985787175595760345458984375">
        <ele>275.399993896484375</ele>
        <time>2020-08-23T12:17:49.000Z</time>
      </trkpt>
      <trkpt lat="43.3175758458673954010009765625" lon="-1.70987346209585666656494140625">
        <ele>274.20001220703125</ele>
        <time>2020-08-23T12:17:52.000Z</time>
      </trkpt>
      <trkpt lat="43.3175359480082988739013671875" lon="-1.70987865887582302093505859375">
        <ele>273.399993896484375</ele>
        <time>2020-08-23T12:17:54.000Z</time>
      </trkpt>
      <trkpt lat="43.317525051534175872802734375" lon="-1.70989676378667354583740234375">
        <ele>273</ele>
        <time>2020-08-23T12:17:55.000Z</time>
      </trkpt>
      <trkpt lat="43.31751801073551177978515625" lon="-1.7099392600357532501220703125">
        <ele>272.20001220703125</ele>
        <time>2020-08-23T12:17:57.000Z</time>
      </trkpt>
      <trkpt lat="43.3175235427916049957275390625" lon="-1.70998695306479930877685546875">
        <ele>272.20001220703125</ele>
        <time>2020-08-23T12:17:59.000Z</time>
      </trkpt>
      <trkpt lat="43.3175708167254924774169921875" lon="-1.71003288589417934417724609375">
        <ele>273.399993896484375</ele>
        <time>2020-08-23T12:18:03.000Z</time>
      </trkpt>
      <trkpt lat="43.31759369932115077972412109375" lon="-1.7100606299936771392822265625">
        <ele>274.20001220703125</ele>
        <time>2020-08-23T12:18:06.000Z</time>
      </trkpt>
      <trkpt lat="43.317611552774906158447265625" lon="-1.71009306795895099639892578125">
        <ele>274.20001220703125</ele>
        <time>2020-08-23T12:18:08.000Z</time>
      </trkpt>
      <trkpt lat="43.3176247961819171905517578125" lon="-1.710103712975978851318359375">
        <ele>274.20001220703125</ele>
        <time>2020-08-23T12:18:09.000Z</time>
      </trkpt>
      <trkpt lat="43.317665867507457733154296875" lon="-1.71013967134058475494384765625">
        <ele>274.399993896484375</ele>
        <time>2020-08-23T12:18:12.000Z</time>
      </trkpt>
      <trkpt lat="43.31767181865870952606201171875" lon="-1.71015358529984951019287109375">
        <ele>274.600006103515625</ele>
        <time>2020-08-23T12:18:13.000Z</time>
      </trkpt>
      <trkpt lat="43.317697048187255859375" lon="-1.71018124558031558990478515625">
        <ele>274.600006103515625</ele>
        <time>2020-08-23T12:18:15.000Z</time>
      </trkpt>
      <trkpt lat="43.31772462464869022369384765625" lon="-1.710200943052768707275390625">
        <ele>274.600006103515625</ele>
        <time>2020-08-23T12:18:17.000Z</time>
      </trkpt>
      <trkpt lat="43.31773518584668636322021484375" lon="-1.71020370908081531524658203125">
        <ele>274.600006103515625</ele>
        <time>2020-08-23T12:18:18.000Z</time>
      </trkpt>
      <trkpt lat="43.31783761270344257354736328125" lon="-1.71024779789149761199951171875">
        <ele>274.399993896484375</ele>
        <time>2020-08-23T12:18:23.000Z</time>
      </trkpt>
      <trkpt lat="43.318072892725467681884765625" lon="-1.71027101576328277587890625">
        <ele>273.79998779296875</ele>
        <time>2020-08-23T12:18:29.000Z</time>
      </trkpt>
      <trkpt lat="43.31814564764499664306640625" lon="-1.71027746982872486114501953125">
        <ele>273.20001220703125</ele>
        <time>2020-08-23T12:18:31.000Z</time>
      </trkpt>
      <trkpt lat="43.318177163600921630859375" lon="-1.71027679927647113800048828125">
        <ele>272.79998779296875</ele>
        <time>2020-08-23T12:18:32.000Z</time>
      </trkpt>
      <trkpt lat="43.31820826046168804168701171875" lon="-1.7102889530360698699951171875">
        <ele>272.600006103515625</ele>
        <time>2020-08-23T12:18:33.000Z</time>
      </trkpt>
      <trkpt lat="43.318273387849330902099609375" lon="-1.710306890308856964111328125">
        <ele>271.79998779296875</ele>
        <time>2020-08-23T12:18:35.000Z</time>
      </trkpt>
      <trkpt lat="43.31835729070007801055908203125" lon="-1.71033496968448162078857421875">
        <ele>271.600006103515625</ele>
        <time>2020-08-23T12:18:38.000Z</time>
      </trkpt>
      <trkpt lat="43.31848628818988800048828125" lon="-1.71041761524975299835205078125">
        <ele>272.600006103515625</ele>
        <time>2020-08-23T12:18:45.000Z</time>
      </trkpt>
      <trkpt lat="43.31849425099790096282958984375" lon="-1.71049741096794605255126953125">
        <ele>273.20001220703125</ele>
        <time>2020-08-23T12:18:48.000Z</time>
      </trkpt>
      <trkpt lat="43.3184941671788692474365234375" lon="-1.71054451726377010345458984375">
        <ele>273.20001220703125</ele>
        <time>2020-08-23T12:18:50.000Z</time>
      </trkpt>
      <trkpt lat="43.318489976227283477783203125" lon="-1.71059916727244853973388671875">
        <ele>273.600006103515625</ele>
        <time>2020-08-23T12:18:53.000Z</time>
      </trkpt>
      <trkpt lat="43.31848234869539737701416015625" lon="-1.7106446810066699981689453125">
        <ele>274</ele>
        <time>2020-08-23T12:18:56.000Z</time>
      </trkpt>
      <trkpt lat="43.31846994347870349884033203125" lon="-1.7107164300978183746337890625">
        <ele>274.399993896484375</ele>
        <time>2020-08-23T12:19:00.000Z</time>
      </trkpt>
      <trkpt lat="43.31847061403095722198486328125" lon="-1.71073227189481258392333984375">
        <ele>274.399993896484375</ele>
        <time>2020-08-23T12:19:01.000Z</time>
      </trkpt>
      <trkpt lat="43.3184730447828769683837890625" lon="-1.71076320111751556396484375">
        <ele>274.600006103515625</ele>
        <time>2020-08-23T12:19:03.000Z</time>
      </trkpt>
      <trkpt lat="43.31848033703863620758056640625" lon="-1.71081424690783023834228515625">
        <ele>274.79998779296875</ele>
        <time>2020-08-23T12:19:09.000Z</time>
      </trkpt>
      <trkpt lat="43.31845854409039020538330078125" lon="-1.7108631134033203125">
        <ele>275</ele>
        <time>2020-08-23T12:19:16.000Z</time>
      </trkpt>
      <trkpt lat="43.3184475637972354888916015625" lon="-1.71092413365840911865234375">
        <ele>275.399993896484375</ele>
        <time>2020-08-23T12:19:21.000Z</time>
      </trkpt>
      <trkpt lat="43.31844345666468143463134765625" lon="-1.71095992438495159149169921875">
        <ele>275.600006103515625</ele>
        <time>2020-08-23T12:19:24.000Z</time>
      </trkpt>
      <trkpt lat="43.3184301294386386871337890625" lon="-1.7110066115856170654296875">
        <ele>276.600006103515625</ele>
        <time>2020-08-23T12:19:30.000Z</time>
      </trkpt>
      <trkpt lat="43.3184180594980716705322265625" lon="-1.71102941036224365234375">
        <ele>277.20001220703125</ele>
        <time>2020-08-23T12:19:34.000Z</time>
      </trkpt>
      <trkpt lat="43.318401463329792022705078125" lon="-1.7110681347548961639404296875">
        <ele>277.600006103515625</ele>
        <time>2020-08-23T12:19:39.000Z</time>
      </trkpt>
      <trkpt lat="43.31839241087436676025390625" lon="-1.7110822163522243499755859375">
        <ele>278.20001220703125</ele>
        <time>2020-08-23T12:19:42.000Z</time>
      </trkpt>
      <trkpt lat="43.31838126294314861297607421875" lon="-1.71110392548143863677978515625">
        <ele>278.79998779296875</ele>
        <time>2020-08-23T12:19:45.000Z</time>
      </trkpt>
      <trkpt lat="43.3183617331087589263916015625" lon="-1.71113829128444194793701171875">
        <ele>279.20001220703125</ele>
        <time>2020-08-23T12:19:51.000Z</time>
      </trkpt>
      <trkpt lat="43.3183476515114307403564453125" lon="-1.71116880141198635101318359375">
        <ele>279.79998779296875</ele>
        <time>2020-08-23T12:19:55.000Z</time>
      </trkpt>
      <trkpt lat="43.3183369226753711700439453125" lon="-1.711184643208980560302734375">
        <ele>280.399993896484375</ele>
        <time>2020-08-23T12:19:58.000Z</time>
      </trkpt>
      <trkpt lat="43.3183127827942371368408203125" lon="-1.71122462488710880279541015625">
        <ele>280.79998779296875</ele>
        <time>2020-08-23T12:20:05.000Z</time>
      </trkpt>
      <trkpt lat="43.31830414943397045135498046875" lon="-1.71123585663735866546630859375">
        <ele>281.20001220703125</ele>
        <time>2020-08-23T12:20:07.000Z</time>
      </trkpt>
      <trkpt lat="43.318284787237644195556640625" lon="-1.7112639360129833221435546875">
        <ele>281.79998779296875</ele>
        <time>2020-08-23T12:20:12.000Z</time>
      </trkpt>
      <trkpt lat="43.31826542504131793975830078125" lon="-1.71129696071147918701171875">
        <ele>282.600006103515625</ele>
        <time>2020-08-23T12:20:18.000Z</time>
      </trkpt>
      <trkpt lat="43.31825972534716129302978515625" lon="-1.7113070189952850341796875">
        <ele>283.20001220703125</ele>
        <time>2020-08-23T12:20:20.000Z</time>
      </trkpt>
      <trkpt lat="43.3182455599308013916015625" lon="-1.711340211331844329833984375">
        <ele>284</ele>
        <time>2020-08-23T12:20:25.000Z</time>
      </trkpt>
      <trkpt lat="43.3182321488857269287109375" lon="-1.71136711724102497100830078125">
        <ele>284.399993896484375</ele>
        <time>2020-08-23T12:20:29.000Z</time>
      </trkpt>
      <trkpt lat="43.318215049803256988525390625" lon="-1.711399219930171966552734375">
        <ele>285.20001220703125</ele>
        <time>2020-08-23T12:20:34.000Z</time>
      </trkpt>
      <trkpt lat="43.3182068355381488800048828125" lon="-1.7114131338894367218017578125">
        <ele>285.399993896484375</ele>
        <time>2020-08-23T12:20:36.000Z</time>
      </trkpt>
      <trkpt lat="43.318176828324794769287109375" lon="-1.71147356741130352020263671875">
        <ele>286.399993896484375</ele>
        <time>2020-08-23T12:20:44.000Z</time>
      </trkpt>
      <trkpt lat="43.31817272119224071502685546875" lon="-1.71148337423801422119140625">
        <ele>286.399993896484375</ele>
        <time>2020-08-23T12:20:45.000Z</time>
      </trkpt>
      <trkpt lat="43.3181448094546794891357421875" lon="-1.711537353694438934326171875">
        <ele>286.79998779296875</ele>
        <time>2020-08-23T12:20:52.000Z</time>
      </trkpt>
      <trkpt lat="43.3181302249431610107421875" lon="-1.7115640081465244293212890625">
        <ele>287.399993896484375</ele>
        <time>2020-08-23T12:20:55.000Z</time>
      </trkpt>
      <trkpt lat="43.31810130737721920013427734375" lon="-1.71162419021129608154296875">
        <ele>288</ele>
        <time>2020-08-23T12:21:02.000Z</time>
      </trkpt>
      <trkpt lat="43.31808303482830524444580078125" lon="-1.71166551299393177032470703125">
        <ele>288.20001220703125</ele>
        <time>2020-08-23T12:21:07.000Z</time>
      </trkpt>
      <trkpt lat="43.31807012669742107391357421875" lon="-1.711690239608287811279296875">
        <ele>288.600006103515625</ele>
        <time>2020-08-23T12:21:10.000Z</time>
      </trkpt>
      <trkpt lat="43.31805319525301456451416015625" lon="-1.711717732250690460205078125">
        <ele>289.399993896484375</ele>
        <time>2020-08-23T12:21:14.000Z</time>
      </trkpt>
      <trkpt lat="43.31803693436086177825927734375" lon="-1.7117415368556976318359375">
        <ele>289.600006103515625</ele>
        <time>2020-08-23T12:21:17.000Z</time>
      </trkpt>
      <trkpt lat="43.31800726242363452911376953125" lon="-1.71177439391613006591796875">
        <ele>290.399993896484375</ele>
        <time>2020-08-23T12:21:22.000Z</time>
      </trkpt>
      <trkpt lat="43.3179872296750545501708984375" lon="-1.71178973279893398284912109375">
        <ele>290.600006103515625</ele>
        <time>2020-08-23T12:21:25.000Z</time>
      </trkpt>
      <trkpt lat="43.317945487797260284423828125" lon="-1.71181035228073596954345703125">
        <ele>291.600006103515625</ele>
        <time>2020-08-23T12:21:31.000Z</time>
      </trkpt>
      <trkpt lat="43.3179392851889133453369140625" lon="-1.71181387268006801605224609375">
        <ele>292</ele>
        <time>2020-08-23T12:21:32.000Z</time>
      </trkpt>
      <trkpt lat="43.31790416501462459564208984375" lon="-1.71182812191545963287353515625">
        <ele>292.79998779296875</ele>
        <time>2020-08-23T12:21:37.000Z</time>
      </trkpt>
      <trkpt lat="43.31788388080894947052001953125" lon="-1.71183206140995025634765625">
        <ele>293.20001220703125</ele>
        <time>2020-08-23T12:21:40.000Z</time>
      </trkpt>
      <trkpt lat="43.31784381531178951263427734375" lon="-1.71185016632080078125">
        <ele>293.79998779296875</ele>
        <time>2020-08-23T12:21:47.000Z</time>
      </trkpt>
      <trkpt lat="43.31782780587673187255859375" lon="-1.71185620129108428955078125">
        <ele>294</ele>
        <time>2020-08-23T12:21:49.000Z</time>
      </trkpt>
      <trkpt lat="43.3177656121551990509033203125" lon="-1.71186768449842929840087890625">
        <ele>294.600006103515625</ele>
        <time>2020-08-23T12:21:57.000Z</time>
      </trkpt>
      <trkpt lat="43.3177418075501918792724609375" lon="-1.71187254600226879119873046875">
        <ele>294.79998779296875</ele>
        <time>2020-08-23T12:22:00.000Z</time>
      </trkpt>
      <trkpt lat="43.3177193440496921539306640625" lon="-1.711869277060031890869140625">
        <ele>295.20001220703125</ele>
        <time>2020-08-23T12:22:03.000Z</time>
      </trkpt>
      <trkpt lat="43.31769696436822414398193359375" lon="-1.7118630744516849517822265625">
        <ele>295.399993896484375</ele>
        <time>2020-08-23T12:22:06.000Z</time>
      </trkpt>
      <trkpt lat="43.31767550669610500335693359375" lon="-1.7118563689291477203369140625">
        <ele>295.600006103515625</ele>
        <time>2020-08-23T12:22:09.000Z</time>
      </trkpt>
      <trkpt lat="43.3176365308463573455810546875" lon="-1.71183717437088489532470703125">
        <ele>296.399993896484375</ele>
        <time>2020-08-23T12:22:15.000Z</time>
      </trkpt>
      <trkpt lat="43.31760778091847896575927734375" lon="-1.71181454323232173919677734375">
        <ele>296.79998779296875</ele>
        <time>2020-08-23T12:22:20.000Z</time>
      </trkpt>
      <trkpt lat="43.3175830543041229248046875" lon="-1.71180297620594501495361328125">
        <ele>297</ele>
        <time>2020-08-23T12:22:24.000Z</time>
      </trkpt>
      <trkpt lat="43.3175503648817539215087890625" lon="-1.71178235672414302825927734375">
        <ele>297.79998779296875</ele>
        <time>2020-08-23T12:22:30.000Z</time>
      </trkpt>
      <trkpt lat="43.31752513535320758819580078125" lon="-1.71177414245903491973876953125">
        <ele>298.20001220703125</ele>
        <time>2020-08-23T12:22:34.000Z</time>
      </trkpt>
      <trkpt lat="43.31748783588409423828125" lon="-1.71174379996955394744873046875">
        <ele>299</ele>
        <time>2020-08-23T12:22:41.000Z</time>
      </trkpt>
      <trkpt lat="43.31748791970312595367431640625" lon="-1.71174354851245880126953125">
        <ele>299</ele>
        <time>2020-08-23T12:22:42.000Z</time>
      </trkpt>
      <trkpt lat="43.31746461801230907440185546875" lon="-1.71171672642230987548828125">
        <ele>299.20001220703125</ele>
        <time>2020-08-23T12:22:51.000Z</time>
      </trkpt>
      <trkpt lat="43.3174274861812591552734375" lon="-1.71168277971446514129638671875">
        <ele>300</ele>
        <time>2020-08-23T12:22:58.000Z</time>
      </trkpt>
      <trkpt lat="43.3174140751361846923828125" lon="-1.71167423017323017120361328125">
        <ele>300.20001220703125</ele>
        <time>2020-08-23T12:23:00.000Z</time>
      </trkpt>
      <trkpt lat="43.31737744621932506561279296875" lon="-1.7116317339241504669189453125">
        <ele>300.600006103515625</ele>
        <time>2020-08-23T12:23:06.000Z</time>
      </trkpt>
      <trkpt lat="43.31736001186072826385498046875" lon="-1.711611114442348480224609375">
        <ele>301</ele>
        <time>2020-08-23T12:23:09.000Z</time>
      </trkpt>
      <trkpt lat="43.3173431642353534698486328125" lon="-1.7115988768637180328369140625">
        <ele>301.399993896484375</ele>
        <time>2020-08-23T12:23:15.000Z</time>
      </trkpt>
      <trkpt lat="43.31729463301599025726318359375" lon="-1.7115733958780765533447265625">
        <ele>301.79998779296875</ele>
        <time>2020-08-23T12:23:22.000Z</time>
      </trkpt>
      <trkpt lat="43.3172786235809326171875" lon="-1.71156384050846099853515625">
        <ele>302</ele>
        <time>2020-08-23T12:23:24.000Z</time>
      </trkpt>
      <trkpt lat="43.3172144182026386260986328125" lon="-1.7115385271608829498291015625">
        <ele>302.20001220703125</ele>
        <time>2020-08-23T12:23:31.000Z</time>
      </trkpt>
      <trkpt lat="43.31712112762033939361572265625" lon="-1.71153861097991466522216796875">
        <ele>303</ele>
        <time>2020-08-23T12:23:40.000Z</time>
      </trkpt>
      <trkpt lat="43.31711031496524810791015625" lon="-1.71154112555086612701416015625">
        <ele>303.20001220703125</ele>
        <time>2020-08-23T12:23:41.000Z</time>
      </trkpt>
      <trkpt lat="43.3170491270720958709716796875" lon="-1.711550094187259674072265625">
        <ele>304</ele>
        <time>2020-08-23T12:23:48.000Z</time>
      </trkpt>
      <trkpt lat="43.31704753451049327850341796875" lon="-1.711550094187259674072265625">
        <ele>304.20001220703125</ele>
        <time>2020-08-23T12:23:54.000Z</time>
      </trkpt>
      <trkpt lat="43.3170484565198421478271484375" lon="-1.71155034564435482025146484375">
        <ele>304.20001220703125</ele>
        <time>2020-08-23T12:23:56.000Z</time>
      </trkpt>
      <trkpt lat="43.3170166052877902984619140625" lon="-1.71156023629009723663330078125">
        <ele>304.20001220703125</ele>
        <time>2020-08-23T12:24:14.000Z</time>
      </trkpt>
      <trkpt lat="43.31692792475223541259765625" lon="-1.7116142995655536651611328125">
        <ele>304.79998779296875</ele>
        <time>2020-08-23T12:24:23.000Z</time>
      </trkpt>
      <trkpt lat="43.3168778009712696075439453125" lon="-1.71165763400495052337646484375">
        <ele>304.600006103515625</ele>
        <time>2020-08-23T12:24:31.000Z</time>
      </trkpt>
      <trkpt lat="43.316877968609333038330078125" lon="-1.71165830455720424652099609375">
        <ele>304.399993896484375</ele>
        <time>2020-08-23T12:24:48.000Z</time>
      </trkpt>
      <trkpt lat="43.31687696278095245361328125" lon="-1.71166316606104373931884765625">
        <ele>304.79998779296875</ele>
        <time>2020-08-23T12:25:10.000Z</time>
      </trkpt>
      <trkpt lat="43.3168576844036579132080078125" lon="-1.71167255379259586334228515625">
        <ele>305</ele>
        <time>2020-08-23T12:25:16.000Z</time>
      </trkpt>
      <trkpt lat="43.3168439380824565887451171875" lon="-1.7116825282573699951171875">
        <ele>305</ele>
        <time>2020-08-23T12:25:17.000Z</time>
      </trkpt>
      <trkpt lat="43.31673840992152690887451171875" lon="-1.71180255711078643798828125">
        <ele>304.79998779296875</ele>
        <time>2020-08-23T12:25:24.000Z</time>
      </trkpt>
      <trkpt lat="43.316626846790313720703125" lon="-1.71196307055652141571044921875">
        <ele>305.20001220703125</ele>
        <time>2020-08-23T12:25:32.000Z</time>
      </trkpt>
      <trkpt lat="43.31651058979332447052001953125" lon="-1.71214177273213863372802734375">
        <ele>305.600006103515625</ele>
        <time>2020-08-23T12:25:41.000Z</time>
      </trkpt>
      <trkpt lat="43.3164349012076854705810546875" lon="-1.7122935689985752105712890625">
        <ele>305.79998779296875</ele>
        <time>2020-08-23T12:25:48.000Z</time>
      </trkpt>
      <trkpt lat="43.3164243400096893310546875" lon="-1.7123123444616794586181640625">
        <ele>306</ele>
        <time>2020-08-23T12:25:49.000Z</time>
      </trkpt>
      <trkpt lat="43.31633356399834156036376953125" lon="-1.7124203033745288848876953125">
        <ele>306.399993896484375</ele>
        <time>2020-08-23T12:25:56.000Z</time>
      </trkpt>
      <trkpt lat="43.31623591482639312744140625" lon="-1.7125032842159271240234375">
        <ele>306.79998779296875</ele>
        <time>2020-08-23T12:26:03.000Z</time>
      </trkpt>
      <trkpt lat="43.31622359342873096466064453125" lon="-1.71252298168838024139404296875">
        <ele>307</ele>
        <time>2020-08-23T12:26:04.000Z</time>
      </trkpt>
      <trkpt lat="43.31620783545076847076416015625" lon="-1.712559945881366729736328125">
        <ele>307.399993896484375</ele>
        <time>2020-08-23T12:26:06.000Z</time>
      </trkpt>
      <trkpt lat="43.31619911827147006988525390625" lon="-1.712596826255321502685546875">
        <ele>307.600006103515625</ele>
        <time>2020-08-23T12:26:08.000Z</time>
      </trkpt>
      <trkpt lat="43.31619593314826488494873046875" lon="-1.7126345448195934295654296875">
        <ele>308</ele>
        <time>2020-08-23T12:26:10.000Z</time>
      </trkpt>
      <trkpt lat="43.316192328929901123046875" lon="-1.7126516439020633697509765625">
        <ele>308.399993896484375</ele>
        <time>2020-08-23T12:26:11.000Z</time>
      </trkpt>
      <trkpt lat="43.31618922762572765350341796875" lon="-1.71266849152743816375732421875">
        <ele>308.79998779296875</ele>
        <time>2020-08-23T12:26:12.000Z</time>
      </trkpt>
      <trkpt lat="43.3161774091422557830810546875" lon="-1.712709479033946990966796875">
        <ele>309.20001220703125</ele>
        <time>2020-08-23T12:26:14.000Z</time>
      </trkpt>
      <trkpt lat="43.31613399088382720947265625" lon="-1.71284166164696216583251953125">
        <ele>309.79998779296875</ele>
        <time>2020-08-23T12:26:20.000Z</time>
      </trkpt>
      <trkpt lat="43.31611462868750095367431640625" lon="-1.7128843255341053009033203125">
        <ele>310.20001220703125</ele>
        <time>2020-08-23T12:26:22.000Z</time>
      </trkpt>
      <trkpt lat="43.3160771615803241729736328125" lon="-1.71295817010104656219482421875">
        <ele>311.600006103515625</ele>
        <time>2020-08-23T12:26:26.000Z</time>
      </trkpt>
      <trkpt lat="43.31606718711555004119873046875" lon="-1.71297426335513591766357421875">
        <ele>311.79998779296875</ele>
        <time>2020-08-23T12:26:27.000Z</time>
      </trkpt>
      <trkpt lat="43.316057212650775909423828125" lon="-1.7129936255514621734619140625">
        <ele>311.79998779296875</ele>
        <time>2020-08-23T12:26:28.000Z</time>
      </trkpt>
      <trkpt lat="43.31600868143141269683837890625" lon="-1.71307819895446300506591796875">
        <ele>312.20001220703125</ele>
        <time>2020-08-23T12:26:32.000Z</time>
      </trkpt>
      <trkpt lat="43.31598219461739063262939453125" lon="-1.71310166828334331512451171875">
        <ele>312.600006103515625</ele>
        <time>2020-08-23T12:26:34.000Z</time>
      </trkpt>
      <trkpt lat="43.3159655146300792694091796875" lon="-1.71311709098517894744873046875">
        <ele>312.79998779296875</ele>
        <time>2020-08-23T12:26:35.000Z</time>
      </trkpt>
      <trkpt lat="43.31592477858066558837890625" lon="-1.71317408792674541473388671875">
        <ele>313.399993896484375</ele>
        <time>2020-08-23T12:26:39.000Z</time>
      </trkpt>
      <trkpt lat="43.31591597758233547210693359375" lon="-1.71321297995746135711669921875">
        <ele>313.79998779296875</ele>
        <time>2020-08-23T12:26:41.000Z</time>
      </trkpt>
      <trkpt lat="43.3159128762781620025634765625" lon="-1.71325271017849445343017578125">
        <ele>314</ele>
        <time>2020-08-23T12:26:43.000Z</time>
      </trkpt>
      <trkpt lat="43.3159209229052066802978515625" lon="-1.71332445926964282989501953125">
        <ele>314</ele>
        <time>2020-08-23T12:26:46.000Z</time>
      </trkpt>
      <trkpt lat="43.31598789431154727935791015625" lon="-1.71341632492840290069580078125">
        <ele>314.20001220703125</ele>
        <time>2020-08-23T12:26:51.000Z</time>
      </trkpt>
      <trkpt lat="43.31610172055661678314208984375" lon="-1.7135401256382465362548828125">
        <ele>313.600006103515625</ele>
        <time>2020-08-23T12:26:58.000Z</time>
      </trkpt>
      <trkpt lat="43.31621470861136913299560546875" lon="-1.7136190831661224365234375">
        <ele>313.79998779296875</ele>
        <time>2020-08-23T12:27:05.000Z</time>
      </trkpt>
      <trkpt lat="43.316407911479473114013671875" lon="-1.71368069015443325042724609375">
        <ele>314.399993896484375</ele>
        <time>2020-08-23T12:27:14.000Z</time>
      </trkpt>
      <trkpt lat="43.31650371663272380828857421875" lon="-1.71380273066461086273193359375">
        <ele>314</ele>
        <time>2020-08-23T12:27:19.000Z</time>
      </trkpt>
      <trkpt lat="43.3165385015308856964111328125" lon="-1.7139981128275394439697265625">
        <ele>315</ele>
        <time>2020-08-23T12:27:26.000Z</time>
      </trkpt>
      <trkpt lat="43.3165317960083484649658203125" lon="-1.71417706646025180816650390625">
        <ele>315.399993896484375</ele>
        <time>2020-08-23T12:27:33.000Z</time>
      </trkpt>
      <trkpt lat="43.3165274374186992645263671875" lon="-1.714274547994136810302734375">
        <ele>316.20001220703125</ele>
        <time>2020-08-23T12:27:37.000Z</time>
      </trkpt>
      <trkpt lat="43.3165475539863109588623046875" lon="-1.7143763042986392974853515625">
        <ele>316.600006103515625</ele>
        <time>2020-08-23T12:27:41.000Z</time>
      </trkpt>
      <trkpt lat="43.31657278351485729217529296875" lon="-1.71446322463452816009521484375">
        <ele>317</ele>
        <time>2020-08-23T12:27:45.000Z</time>
      </trkpt>
      <trkpt lat="43.31660631112754344940185546875" lon="-1.714499182999134063720703125">
        <ele>317</ele>
        <time>2020-08-23T12:27:47.000Z</time>
      </trkpt>
      <trkpt lat="43.31663598306477069854736328125" lon="-1.71453665010631084442138671875">
        <ele>317</ele>
        <time>2020-08-23T12:27:49.000Z</time>
      </trkpt>
      <trkpt lat="43.31668057478964328765869140625" lon="-1.71457805670797824859619140625">
        <ele>317.399993896484375</ele>
        <time>2020-08-23T12:27:52.000Z</time>
      </trkpt>
      <trkpt lat="43.31671309657394886016845703125" lon="-1.71460353769361972808837890625">
        <ele>318</ele>
        <time>2020-08-23T12:27:54.000Z</time>
      </trkpt>
      <trkpt lat="43.31679473631083965301513671875" lon="-1.71475541777908802032470703125">
        <ele>318</ele>
        <time>2020-08-23T12:28:01.000Z</time>
      </trkpt>
      <trkpt lat="43.3168144337832927703857421875" lon="-1.71482347883284091949462890625">
        <ele>318.600006103515625</ele>
        <time>2020-08-23T12:28:04.000Z</time>
      </trkpt>
      <trkpt lat="43.3168308623135089874267578125" lon="-1.71494635753333568572998046875">
        <ele>319.20001220703125</ele>
        <time>2020-08-23T12:28:09.000Z</time>
      </trkpt>
      <trkpt lat="43.31683664582669734954833984375" lon="-1.71499597840011119842529296875">
        <ele>319.600006103515625</ele>
        <time>2020-08-23T12:28:11.000Z</time>
      </trkpt>
      <trkpt lat="43.3168647252023220062255859375" lon="-1.71515204943716526031494140625">
        <ele>320</ele>
        <time>2020-08-23T12:28:17.000Z</time>
      </trkpt>
      <trkpt lat="43.31687972880899906158447265625" lon="-1.715309880673885345458984375">
        <ele>320.399993896484375</ele>
        <time>2020-08-23T12:28:24.000Z</time>
      </trkpt>
      <trkpt lat="43.31689699552953243255615234375" lon="-1.71545228920876979827880859375">
        <ele>320.600006103515625</ele>
        <time>2020-08-23T12:28:30.000Z</time>
      </trkpt>
      <trkpt lat="43.3169069699943065643310546875" lon="-1.7155232839286327362060546875">
        <ele>320.79998779296875</ele>
        <time>2020-08-23T12:28:33.000Z</time>
      </trkpt>
      <trkpt lat="43.31696840934455394744873046875" lon="-1.71577147208154201507568359375">
        <ele>321</ele>
        <time>2020-08-23T12:28:43.000Z</time>
      </trkpt>
      <trkpt lat="43.3170159347355365753173828125" lon="-1.7159702070057392120361328125">
        <ele>321</ele>
        <time>2020-08-23T12:28:50.000Z</time>
      </trkpt>
      <trkpt lat="43.31710771657526493072509765625" lon="-1.71627270989120006561279296875">
        <ele>320.79998779296875</ele>
        <time>2020-08-23T12:28:59.000Z</time>
      </trkpt>
      <trkpt lat="43.3171647973358631134033203125" lon="-1.71648728661239147186279296875">
        <ele>321.20001220703125</ele>
        <time>2020-08-23T12:29:07.000Z</time>
      </trkpt>
      <trkpt lat="43.3171906135976314544677734375" lon="-1.7165847681462764739990234375">
        <ele>321.79998779296875</ele>
        <time>2020-08-23T12:29:11.000Z</time>
      </trkpt>
      <trkpt lat="43.31719421781599521636962890625" lon="-1.71662776730954647064208984375">
        <ele>322</ele>
        <time>2020-08-23T12:29:13.000Z</time>
      </trkpt>
      <trkpt lat="43.31718717701733112335205078125" lon="-1.7167128436267375946044921875">
        <ele>323</ele>
        <time>2020-08-23T12:29:18.000Z</time>
      </trkpt>
      <trkpt lat="43.317183069884777069091796875" lon="-1.71672868542373180389404296875">
        <ele>323.20001220703125</ele>
        <time>2020-08-23T12:29:19.000Z</time>
      </trkpt>
      <trkpt lat="43.31717326305806636810302734375" lon="-1.71684435568749904632568359375">
        <ele>323.600006103515625</ele>
        <time>2020-08-23T12:29:27.000Z</time>
      </trkpt>
      <trkpt lat="43.31717208959162235260009765625" lon="-1.71683966182172298431396484375">
        <ele>323.20001220703125</ele>
        <time>2020-08-23T12:29:34.000Z</time>
      </trkpt>
      <trkpt lat="43.3171721734106540679931640625" lon="-1.71683329157531261444091796875">
        <ele>323.399993896484375</ele>
        <time>2020-08-23T12:32:16.000Z</time>
      </trkpt>
      <trkpt lat="43.317165635526180267333984375" lon="-1.7168377339839935302734375">
        <ele>323.399993896484375</ele>
        <time>2020-08-23T12:32:20.000Z</time>
      </trkpt>
      <trkpt lat="43.31715566106140613555908203125" lon="-1.716845445334911346435546875">
        <ele>323.600006103515625</ele>
        <time>2020-08-23T12:32:21.000Z</time>
      </trkpt>
      <trkpt lat="43.317118026316165924072265625" lon="-1.71687318943440914154052734375">
        <ele>323.600006103515625</ele>
        <time>2020-08-23T12:32:24.000Z</time>
      </trkpt>
      <trkpt lat="43.31710168160498142242431640625" lon="-1.71688668429851531982421875">
        <ele>323.600006103515625</ele>
        <time>2020-08-23T12:32:25.000Z</time>
      </trkpt>
      <trkpt lat="43.31706413067877292633056640625" lon="-1.71691861934959888458251953125">
        <ele>323.79998779296875</ele>
        <time>2020-08-23T12:32:27.000Z</time>
      </trkpt>
      <trkpt lat="43.31696857698261737823486328125" lon="-1.7170005105435848236083984375">
        <ele>322.399993896484375</ele>
        <time>2020-08-23T12:32:32.000Z</time>
      </trkpt>
      <trkpt lat="43.31693052314221858978271484375" lon="-1.717031188309192657470703125">
        <ele>322</ele>
        <time>2020-08-23T12:32:34.000Z</time>
      </trkpt>
      <trkpt lat="43.31682826392352581024169921875" lon="-1.71710570342838764190673828125">
        <ele>321.20001220703125</ele>
        <time>2020-08-23T12:32:39.000Z</time>
      </trkpt>
      <trkpt lat="43.316804207861423492431640625" lon="-1.7171215452253818511962890625">
        <ele>320.399993896484375</ele>
        <time>2020-08-23T12:32:40.000Z</time>
      </trkpt>
      <trkpt lat="43.31677906215190887451171875" lon="-1.71714090742170810699462890625">
        <ele>320</ele>
        <time>2020-08-23T12:32:41.000Z</time>
      </trkpt>
      <trkpt lat="43.31667252816259860992431640625" lon="-1.71724517829716205596923828125">
        <ele>318.79998779296875</ele>
        <time>2020-08-23T12:32:45.000Z</time>
      </trkpt>
      <trkpt lat="43.316544704139232635498046875" lon="-1.71735598705708980560302734375">
        <ele>317.600006103515625</ele>
        <time>2020-08-23T12:32:50.000Z</time>
      </trkpt>
      <trkpt lat="43.31651897169649600982666015625" lon="-1.71737208031117916107177734375">
        <ele>317.399993896484375</ele>
        <time>2020-08-23T12:32:51.000Z</time>
      </trkpt>
      <trkpt lat="43.316419310867786407470703125" lon="-1.71743259765207767486572265625">
        <ele>316.600006103515625</ele>
        <time>2020-08-23T12:32:55.000Z</time>
      </trkpt>
      <trkpt lat="43.31635703332722187042236328125" lon="-1.71745338477194309234619140625">
        <ele>316</ele>
        <time>2020-08-23T12:32:57.000Z</time>
      </trkpt>
      <trkpt lat="43.31629551015794277191162109375" lon="-1.717442907392978668212890625">
        <ele>315</ele>
        <time>2020-08-23T12:32:59.000Z</time>
      </trkpt>
      <trkpt lat="43.31620506942272186279296875" lon="-1.71740024350583553314208984375">
        <ele>314.20001220703125</ele>
        <time>2020-08-23T12:33:02.000Z</time>
      </trkpt>
      <trkpt lat="43.3161727152764797210693359375" lon="-1.7173904366791248321533203125">
        <ele>313.600006103515625</ele>
        <time>2020-08-23T12:33:03.000Z</time>
      </trkpt>
      <trkpt lat="43.3160785026848316192626953125" lon="-1.71740694902837276458740234375">
        <ele>312.399993896484375</ele>
        <time>2020-08-23T12:33:06.000Z</time>
      </trkpt>
      <trkpt lat="43.3160476572811603546142578125" lon="-1.717420779168605804443359375">
        <ele>312</ele>
        <time>2020-08-23T12:33:07.000Z</time>
      </trkpt>
      <trkpt lat="43.31597079522907733917236328125" lon="-1.71745606698095798492431640625">
        <ele>311.20001220703125</ele>
        <time>2020-08-23T12:33:09.000Z</time>
      </trkpt>
      <trkpt lat="43.31585235893726348876953125" lon="-1.71752362512052059173583984375">
        <ele>310.600006103515625</ele>
        <time>2020-08-23T12:33:12.000Z</time>
      </trkpt>
      <trkpt lat="43.31575068645179271697998046875" lon="-1.71760040335357189178466796875">
        <ele>310.20001220703125</ele>
        <time>2020-08-23T12:33:16.000Z</time>
      </trkpt>
      <trkpt lat="43.315731324255466461181640625" lon="-1.71761800535023212432861328125">
        <ele>310</ele>
        <time>2020-08-23T12:33:17.000Z</time>
      </trkpt>
      <trkpt lat="43.31566552631556987762451171875" lon="-1.717689335346221923828125">
        <ele>309.399993896484375</ele>
        <time>2020-08-23T12:33:21.000Z</time>
      </trkpt>
      <trkpt lat="43.31560517661273479461669921875" lon="-1.71774440445005893707275390625">
        <ele>309</ele>
        <time>2020-08-23T12:33:24.000Z</time>
      </trkpt>
      <trkpt lat="43.31552906893193721771240234375" lon="-1.71778782270848751068115234375">
        <ele>308.20001220703125</ele>
        <time>2020-08-23T12:33:27.000Z</time>
      </trkpt>
      <trkpt lat="43.3154694736003875732421875" lon="-1.717808358371257781982421875">
        <ele>307.79998779296875</ele>
        <time>2020-08-23T12:33:29.000Z</time>
      </trkpt>
      <trkpt lat="43.315390683710575103759765625" lon="-1.717824451625347137451171875">
        <ele>306.399993896484375</ele>
        <time>2020-08-23T12:33:32.000Z</time>
      </trkpt>
      <trkpt lat="43.31531197763979434967041015625" lon="-1.7178608290851116180419921875">
        <ele>305.20001220703125</ele>
        <time>2020-08-23T12:33:36.000Z</time>
      </trkpt>
      <trkpt lat="43.31529043614864349365234375" lon="-1.7178822867572307586669921875">
        <ele>305</ele>
        <time>2020-08-23T12:33:38.000Z</time>
      </trkpt>
      <trkpt lat="43.3152671344578266143798828125" lon="-1.71792428009212017059326171875">
        <ele>305</ele>
        <time>2020-08-23T12:33:40.000Z</time>
      </trkpt>
      <trkpt lat="43.315232098102569580078125" lon="-1.71800659038126468658447265625">
        <ele>304.600006103515625</ele>
        <time>2020-08-23T12:33:43.000Z</time>
      </trkpt>
      <trkpt lat="43.315202929079532623291015625" lon="-1.71804715879261493682861328125">
        <ele>304.399993896484375</ele>
        <time>2020-08-23T12:33:45.000Z</time>
      </trkpt>
      <trkpt lat="43.315168060362339019775390625" lon="-1.718092001974582672119140625">
        <ele>303.20001220703125</ele>
        <time>2020-08-23T12:33:48.000Z</time>
      </trkpt>
      <trkpt lat="43.3151256479322910308837890625" lon="-1.7181384377181529998779296875">
        <ele>301.79998779296875</ele>
        <time>2020-08-23T12:33:51.000Z</time>
      </trkpt>
      <trkpt lat="43.3150807209312915802001953125" lon="-1.71819769777357578277587890625">
        <ele>300.79998779296875</ele>
        <time>2020-08-23T12:33:54.000Z</time>
      </trkpt>
      <trkpt lat="43.315030597150325775146484375" lon="-1.71824463643133640289306640625">
        <ele>300.20001220703125</ele>
        <time>2020-08-23T12:33:56.000Z</time>
      </trkpt>
      <trkpt lat="43.31492565572261810302734375" lon="-1.718316972255706787109375">
        <ele>299.399993896484375</ele>
        <time>2020-08-23T12:34:00.000Z</time>
      </trkpt>
      <trkpt lat="43.31486128270626068115234375" lon="-1.7183315567672252655029296875">
        <ele>298.399993896484375</ele>
        <time>2020-08-23T12:34:02.000Z</time>
      </trkpt>
      <trkpt lat="43.31482582725584506988525390625" lon="-1.718324013054370880126953125">
        <ele>298.20001220703125</ele>
        <time>2020-08-23T12:34:03.000Z</time>
      </trkpt>
      <trkpt lat="43.3147417567670345306396484375" lon="-1.71828520484268665313720703125">
        <ele>298</ele>
        <time>2020-08-23T12:34:07.000Z</time>
      </trkpt>
      <trkpt lat="43.31470303237438201904296875" lon="-1.7182879708707332611083984375">
        <ele>297.79998779296875</ele>
        <time>2020-08-23T12:34:09.000Z</time>
      </trkpt>
      <trkpt lat="43.3146728575229644775390625" lon="-1.71830297447741031646728515625">
        <ele>297.79998779296875</ele>
        <time>2020-08-23T12:34:11.000Z</time>
      </trkpt>
      <trkpt lat="43.31464025191962718963623046875" lon="-1.71836634166538715362548828125">
        <ele>298</ele>
        <time>2020-08-23T12:34:16.000Z</time>
      </trkpt>
      <trkpt lat="43.31461627967655658721923828125" lon="-1.71851067803800106048583984375">
        <ele>297.79998779296875</ele>
        <time>2020-08-23T12:34:21.000Z</time>
      </trkpt>
      <trkpt lat="43.314548470079898834228515625" lon="-1.71863640658557415008544921875">
        <ele>297</ele>
        <time>2020-08-23T12:34:25.000Z</time>
      </trkpt>
      <trkpt lat="43.3145307004451751708984375" lon="-1.7186638154089450836181640625">
        <ele>296.399993896484375</ele>
        <time>2020-08-23T12:34:26.000Z</time>
      </trkpt>
      <trkpt lat="43.314513601362705230712890625" lon="-1.718690134584903717041015625">
        <ele>295.79998779296875</ele>
        <time>2020-08-23T12:34:27.000Z</time>
      </trkpt>
      <trkpt lat="43.31448040902614593505859375" lon="-1.7187355645000934600830078125">
        <ele>294.79998779296875</ele>
        <time>2020-08-23T12:34:29.000Z</time>
      </trkpt>
      <trkpt lat="43.314441181719303131103515625" lon="-1.71878895722329616546630859375">
        <ele>294.399993896484375</ele>
        <time>2020-08-23T12:34:32.000Z</time>
      </trkpt>
      <trkpt lat="43.31443757750093936920166015625" lon="-1.71879532746970653533935546875">
        <ele>294.399993896484375</ele>
        <time>2020-08-23T12:34:33.000Z</time>
      </trkpt>
      <trkpt lat="43.31435292027890682220458984375" lon="-1.7189772985875606536865234375">
        <ele>293</ele>
        <time>2020-08-23T12:36:15.000Z</time>
      </trkpt>
      <trkpt lat="43.31434571184217929840087890625" lon="-1.718979813158512115478515625">
        <ele>292.600006103515625</ele>
        <time>2020-08-23T12:36:18.000Z</time>
      </trkpt>
      <trkpt lat="43.31433297134935855865478515625" lon="-1.7190084792673587799072265625">
        <ele>292.600006103515625</ele>
        <time>2020-08-23T12:36:20.000Z</time>
      </trkpt>
      <trkpt lat="43.31427698023617267608642578125" lon="-1.71910327859222888946533203125">
        <ele>291.79998779296875</ele>
        <time>2020-08-23T12:36:24.000Z</time>
      </trkpt>
      <trkpt lat="43.314263485372066497802734375" lon="-1.71913077123463153839111328125">
        <ele>291.600006103515625</ele>
        <time>2020-08-23T12:36:25.000Z</time>
      </trkpt>
      <trkpt lat="43.3142328076064586639404296875" lon="-1.7191935516893863677978515625">
        <ele>291</ele>
        <time>2020-08-23T12:36:27.000Z</time>
      </trkpt>
      <trkpt lat="43.314214535057544708251953125" lon="-1.71922431327402591705322265625">
        <ele>290.399993896484375</ele>
        <time>2020-08-23T12:36:28.000Z</time>
      </trkpt>
      <trkpt lat="43.31418377347290515899658203125" lon="-1.719282232224941253662109375">
        <ele>289.399993896484375</ele>
        <time>2020-08-23T12:36:30.000Z</time>
      </trkpt>
      <trkpt lat="43.31417187117040157318115234375" lon="-1.71930511482059955596923828125">
        <ele>288.79998779296875</ele>
        <time>2020-08-23T12:36:31.000Z</time>
      </trkpt>
      <trkpt lat="43.31415276043117046356201171875" lon="-1.71935121528804302215576171875">
        <ele>287.79998779296875</ele>
        <time>2020-08-23T12:36:33.000Z</time>
      </trkpt>
      <trkpt lat="43.31413683481514453887939453125" lon="-1.719395555555820465087890625">
        <ele>286.79998779296875</ele>
        <time>2020-08-23T12:36:35.000Z</time>
      </trkpt>
      <trkpt lat="43.31411085091531276702880859375" lon="-1.719457246363162994384765625">
        <ele>285.600006103515625</ele>
        <time>2020-08-23T12:36:38.000Z</time>
      </trkpt>
      <trkpt lat="43.31410531885921955108642578125" lon="-1.71946722082793712615966796875">
        <ele>285.20001220703125</ele>
        <time>2020-08-23T12:36:40.000Z</time>
      </trkpt>
      <trkpt lat="43.31408252008259296417236328125" lon="-1.71949303708970546722412109375">
        <ele>284.79998779296875</ele>
        <time>2020-08-23T12:36:45.000Z</time>
      </trkpt>
      <trkpt lat="43.31407011486589908599853515625" lon="-1.71950829215347766876220703125">
        <ele>284.600006103515625</ele>
        <time>2020-08-23T12:36:47.000Z</time>
      </trkpt>
      <trkpt lat="43.31403222866356372833251953125" lon="-1.71956009231507778167724609375">
        <ele>283.79998779296875</ele>
        <time>2020-08-23T12:36:53.000Z</time>
      </trkpt>
      <trkpt lat="43.3140192367136478424072265625" lon="-1.71957098878920078277587890625">
        <ele>283.399993896484375</ele>
        <time>2020-08-23T12:36:55.000Z</time>
      </trkpt>
      <trkpt lat="43.3140071667730808258056640625" lon="-1.71960585750639438629150390625">
        <ele>282.399993896484375</ele>
        <time>2020-08-23T12:36:59.000Z</time>
      </trkpt>
      <trkpt lat="43.31400892697274684906005859375" lon="-1.71961314976215362548828125">
        <ele>282.20001220703125</ele>
        <time>2020-08-23T12:37:00.000Z</time>
      </trkpt>
      <trkpt lat="43.31402015872299671173095703125" lon="-1.71963687054812908172607421875">
        <ele>281.20001220703125</ele>
        <time>2020-08-23T12:37:04.000Z</time>
      </trkpt>
      <trkpt lat="43.31404413096606731414794921875" lon="-1.719660423696041107177734375">
        <ele>280.399993896484375</ele>
        <time>2020-08-23T12:37:07.000Z</time>
      </trkpt>
      <trkpt lat="43.3140551112592220306396484375" lon="-1.71966553665697574615478515625">
        <ele>279.79998779296875</ele>
        <time>2020-08-23T12:37:08.000Z</time>
      </trkpt>
      <trkpt lat="43.31408402882516384124755859375" lon="-1.71965899877250194549560546875">
        <ele>279.399993896484375</ele>
        <time>2020-08-23T12:37:12.000Z</time>
      </trkpt>
      <trkpt lat="43.31411906518042087554931640625" lon="-1.71964106149971485137939453125">
        <ele>278.79998779296875</ele>
        <time>2020-08-23T12:37:16.000Z</time>
      </trkpt>
      <trkpt lat="43.31413364969193935394287109375" lon="-1.71964625827968120574951171875">
        <ele>278.20001220703125</ele>
        <time>2020-08-23T12:37:18.000Z</time>
      </trkpt>
      <trkpt lat="43.31415141932666301727294921875" lon="-1.71965145505964756011962890625">
        <ele>277.600006103515625</ele>
        <time>2020-08-23T12:37:21.000Z</time>
      </trkpt>
      <trkpt lat="43.31418360583484172821044921875" lon="-1.71964357607066631317138671875">
        <ele>277</ele>
        <time>2020-08-23T12:37:25.000Z</time>
      </trkpt>
      <trkpt lat="43.3142110146582126617431640625" lon="-1.71962714754045009613037109375">
        <ele>276.600006103515625</ele>
        <time>2020-08-23T12:37:29.000Z</time>
      </trkpt>
      <trkpt lat="43.314241357147693634033203125" lon="-1.71960971318185329437255859375">
        <ele>275.79998779296875</ele>
        <time>2020-08-23T12:37:33.000Z</time>
      </trkpt>
      <trkpt lat="43.314249403774738311767578125" lon="-1.71960049308836460113525390625">
        <ele>275.399993896484375</ele>
        <time>2020-08-23T12:37:34.000Z</time>
      </trkpt>
      <trkpt lat="43.31430916674435138702392578125" lon="-1.71957132406532764434814453125">
        <ele>274.600006103515625</ele>
        <time>2020-08-23T12:37:40.000Z</time>
      </trkpt>
      <trkpt lat="43.31432140432298183441162109375" lon="-1.7195630259811878204345703125">
        <ele>274.600006103515625</ele>
        <time>2020-08-23T12:37:41.000Z</time>
      </trkpt>
      <trkpt lat="43.31435208208858966827392578125" lon="-1.7195440828800201416015625">
        <ele>274.399993896484375</ele>
        <time>2020-08-23T12:37:44.000Z</time>
      </trkpt>
      <trkpt lat="43.31438879482448101043701171875" lon="-1.71952287666499614715576171875">
        <ele>273.79998779296875</ele>
        <time>2020-08-23T12:37:48.000Z</time>
      </trkpt>
      <trkpt lat="43.3144289441406726837158203125" lon="-1.71949789859354496002197265625">
        <ele>273.20001220703125</ele>
        <time>2020-08-23T12:37:52.000Z</time>
      </trkpt>
      <trkpt lat="43.3144390024244785308837890625" lon="-1.71949270181357860565185546875">
        <ele>273.20001220703125</ele>
        <time>2020-08-23T12:37:53.000Z</time>
      </trkpt>
      <trkpt lat="43.3144824206829071044921875" lon="-1.7194728367030620574951171875">
        <ele>272.600006103515625</ele>
        <time>2020-08-23T12:37:59.000Z</time>
      </trkpt>
      <trkpt lat="43.31452064216136932373046875" lon="-1.7194570787250995635986328125">
        <ele>272.20001220703125</ele>
        <time>2020-08-23T12:38:04.000Z</time>
      </trkpt>
      <trkpt lat="43.314563222229480743408203125" lon="-1.7194466851651668548583984375">
        <ele>271.600006103515625</ele>
        <time>2020-08-23T12:38:08.000Z</time>
      </trkpt>
      <trkpt lat="43.31461108289659023284912109375" lon="-1.7194108106195926666259765625">
        <ele>271</ele>
        <time>2020-08-23T12:38:14.000Z</time>
      </trkpt>
      <trkpt lat="43.31461560912430286407470703125" lon="-1.719400249421596527099609375">
        <ele>271</ele>
        <time>2020-08-23T12:38:15.000Z</time>
      </trkpt>
      <trkpt lat="43.31462927162647247314453125" lon="-1.7193777859210968017578125">
        <ele>271</ele>
        <time>2020-08-23T12:38:17.000Z</time>
      </trkpt>
      <trkpt lat="43.31468828022480010986328125" lon="-1.71932020224630832672119140625">
        <ele>271.399993896484375</ele>
        <time>2020-08-23T12:38:24.000Z</time>
      </trkpt>
      <trkpt lat="43.31476463936269283294677734375" lon="-1.71925951726734638214111328125">
        <ele>271.600006103515625</ele>
        <time>2020-08-23T12:38:32.000Z</time>
      </trkpt>
      <trkpt lat="43.314808309078216552734375" lon="-1.71926722861826419830322265625">
        <ele>271.79998779296875</ele>
        <time>2020-08-23T12:38:38.000Z</time>
      </trkpt>
      <trkpt lat="43.31484644673764705657958984375" lon="-1.71929069794714450836181640625">
        <ele>271.399993896484375</ele>
        <time>2020-08-23T12:38:45.000Z</time>
      </trkpt>
      <trkpt lat="43.31492842175066471099853515625" lon="-1.71933813951909542083740234375">
        <ele>271</ele>
        <time>2020-08-23T12:38:50.000Z</time>
      </trkpt>
      <trkpt lat="43.31504903733730316162109375" lon="-1.7193581722676753997802734375">
        <ele>270.600006103515625</ele>
        <time>2020-08-23T12:38:56.000Z</time>
      </trkpt>
      <trkpt lat="43.3151085488498210906982421875" lon="-1.7193715833127498626708984375">
        <ele>269.79998779296875</ele>
        <time>2020-08-23T12:38:59.000Z</time>
      </trkpt>
      <trkpt lat="43.31515230238437652587890625" lon="-1.71940519474446773529052734375">
        <ele>269.399993896484375</ele>
        <time>2020-08-23T12:39:02.000Z</time>
      </trkpt>
      <trkpt lat="43.31517241895198822021484375" lon="-1.71947308816015720367431640625">
        <ele>268.79998779296875</ele>
        <time>2020-08-23T12:39:07.000Z</time>
      </trkpt>
      <trkpt lat="43.3151564933359622955322265625" lon="-1.71951801516115665435791015625">
        <ele>268.399993896484375</ele>
        <time>2020-08-23T12:39:14.000Z</time>
      </trkpt>
      <trkpt lat="43.3151219598948955535888671875" lon="-1.7195757664740085601806640625">
        <ele>267.399993896484375</ele>
        <time>2020-08-23T12:39:21.000Z</time>
      </trkpt>
      <trkpt lat="43.3151008374989032745361328125" lon="-1.71960351057350635528564453125">
        <ele>266.399993896484375</ele>
        <time>2020-08-23T12:39:27.000Z</time>
      </trkpt>
      <trkpt lat="43.3150854147970676422119140625" lon="-1.71961449086666107177734375">
        <ele>265.600006103515625</ele>
        <time>2020-08-23T12:39:30.000Z</time>
      </trkpt>
      <trkpt lat="43.3150751888751983642578125" lon="-1.71962413005530834197998046875">
        <ele>265.20001220703125</ele>
        <time>2020-08-23T12:39:32.000Z</time>
      </trkpt>
      <trkpt lat="43.3150361292064189910888671875" lon="-1.71963569708168506622314453125">
        <ele>264.20001220703125</ele>
        <time>2020-08-23T12:39:38.000Z</time>
      </trkpt>
      <trkpt lat="43.3150254003703594207763671875" lon="-1.7196438275277614593505859375">
        <ele>263.399993896484375</ele>
        <time>2020-08-23T12:39:40.000Z</time>
      </trkpt>
      <trkpt lat="43.3149958960711956024169921875" lon="-1.719672493636608123779296875">
        <ele>263</ele>
        <time>2020-08-23T12:39:45.000Z</time>
      </trkpt>
      <trkpt lat="43.31497728824615478515625" lon="-1.719689257442951202392578125">
        <ele>262.399993896484375</ele>
        <time>2020-08-23T12:39:48.000Z</time>
      </trkpt>
      <trkpt lat="43.31497502513229846954345703125" lon="-1.71969487331807613372802734375">
        <ele>262</ele>
        <time>2020-08-23T12:39:51.000Z</time>
      </trkpt>
      <trkpt lat="43.3149395696818828582763671875" lon="-1.71971364878118038177490234375">
        <ele>261.399993896484375</ele>
        <time>2020-08-23T12:39:55.000Z</time>
      </trkpt>
      <trkpt lat="43.31489003263413906097412109375" lon="-1.7197447456419467926025390625">
        <ele>261</ele>
        <time>2020-08-23T12:39:57.000Z</time>
      </trkpt>
      <trkpt lat="43.31479883752763271331787109375" lon="-1.7197776027023792266845703125">
        <ele>260</ele>
        <time>2020-08-23T12:40:00.000Z</time>
      </trkpt>
      <trkpt lat="43.3147747814655303955078125" lon="-1.71978137455880641937255859375">
        <ele>259.600006103515625</ele>
        <time>2020-08-23T12:40:01.000Z</time>
      </trkpt>
      <trkpt lat="43.31475734710693359375" lon="-1.7197846435010433197021484375">
        <ele>258.79998779296875</ele>
        <time>2020-08-23T12:40:04.000Z</time>
      </trkpt>
      <trkpt lat="43.31470630131661891937255859375" lon="-1.7197645269334316253662109375">
        <ele>258.600006103515625</ele>
        <time>2020-08-23T12:40:10.000Z</time>
      </trkpt>
      <trkpt lat="43.31462482921779155731201171875" lon="-1.71981859020888805389404296875">
        <ele>258.600006103515625</ele>
        <time>2020-08-23T12:40:20.000Z</time>
      </trkpt>
      <trkpt lat="43.3146103285253047943115234375" lon="-1.719889082014560699462890625">
        <ele>257.600006103515625</ele>
        <time>2020-08-23T12:40:26.000Z</time>
      </trkpt>
      <trkpt lat="43.31462122499942779541015625" lon="-1.7199465818703174591064453125">
        <ele>256.399993896484375</ele>
        <time>2020-08-23T12:40:31.000Z</time>
      </trkpt>
      <trkpt lat="43.31462684087455272674560546875" lon="-1.71996795572340488433837890625">
        <ele>255.8000030517578125</ele>
        <time>2020-08-23T12:40:33.000Z</time>
      </trkpt>
      <trkpt lat="43.3146267570555210113525390625" lon="-1.71998019330203533172607421875">
        <ele>255.8000030517578125</ele>
        <time>2020-08-23T12:40:34.000Z</time>
      </trkpt>
      <trkpt lat="43.31462751142680644989013671875" lon="-1.719995029270648956298828125">
        <ele>255.1999969482421875</ele>
        <time>2020-08-23T12:40:35.000Z</time>
      </trkpt>
      <trkpt lat="43.31462658941745758056640625" lon="-1.7200729809701442718505859375">
        <ele>254</ele>
        <time>2020-08-23T12:40:40.000Z</time>
      </trkpt>
      <trkpt lat="43.31462566740810871124267578125" lon="-1.72008882276713848114013671875">
        <ele>253.600006103515625</ele>
        <time>2020-08-23T12:40:41.000Z</time>
      </trkpt>
      <trkpt lat="43.31461946479976177215576171875" lon="-1.7201256193220615386962890625">
        <ele>252.8000030517578125</ele>
        <time>2020-08-23T12:40:44.000Z</time>
      </trkpt>
      <trkpt lat="43.31461208872497081756591796875" lon="-1.7201618291437625885009765625">
        <ele>251.600006103515625</ele>
        <time>2020-08-23T12:40:47.000Z</time>
      </trkpt>
      <trkpt lat="43.314608149230480194091796875" lon="-1.720174737274646759033203125">
        <ele>251.1999969482421875</ele>
        <time>2020-08-23T12:40:48.000Z</time>
      </trkpt>
      <trkpt lat="43.314600773155689239501953125" lon="-1.7202000506222248077392578125">
        <ele>250.600006103515625</ele>
        <time>2020-08-23T12:40:50.000Z</time>
      </trkpt>
      <trkpt lat="43.31459130160510540008544921875" lon="-1.72023667953908443450927734375">
        <ele>249.600006103515625</ele>
        <time>2020-08-23T12:40:55.000Z</time>
      </trkpt>
      <trkpt lat="43.3145892061293125152587890625" lon="-1.72024078667163848876953125">
        <ele>249.399993896484375</ele>
        <time>2020-08-23T12:40:56.000Z</time>
      </trkpt>
      <trkpt lat="43.31458359025418758392333984375" lon="-1.72025017440319061279296875">
        <ele>249.399993896484375</ele>
        <time>2020-08-23T12:40:58.000Z</time>
      </trkpt>
      <trkpt lat="43.31456246785819530487060546875" lon="-1.72028093598783016204833984375">
        <ele>249</ele>
        <time>2020-08-23T12:41:01.000Z</time>
      </trkpt>
      <trkpt lat="43.31453480757772922515869140625" lon="-1.72031228430569171905517578125">
        <ele>248.399993896484375</ele>
        <time>2020-08-23T12:41:04.000Z</time>
      </trkpt>
      <trkpt lat="43.3145198039710521697998046875" lon="-1.720331646502017974853515625">
        <ele>248.1999969482421875</ele>
        <time>2020-08-23T12:41:06.000Z</time>
      </trkpt>
      <trkpt lat="43.31451016478240489959716796875" lon="-1.72034078277647495269775390625">
        <ele>247.8000030517578125</ele>
        <time>2020-08-23T12:41:07.000Z</time>
      </trkpt>
      <trkpt lat="43.31449859775602817535400390625" lon="-1.720344722270965576171875">
        <ele>247.1999969482421875</ele>
        <time>2020-08-23T12:41:08.000Z</time>
      </trkpt>
      <trkpt lat="43.31444780342280864715576171875" lon="-1.720413453876972198486328125">
        <ele>246.600006103515625</ele>
        <time>2020-08-23T12:41:14.000Z</time>
      </trkpt>
      <trkpt lat="43.31443347036838531494140625" lon="-1.72043658792972564697265625">
        <ele>246.1999969482421875</ele>
        <time>2020-08-23T12:41:17.000Z</time>
      </trkpt>
      <trkpt lat="43.31440773792564868927001953125" lon="-1.7205078341066837310791015625">
        <ele>246</ele>
        <time>2020-08-23T12:41:22.000Z</time>
      </trkpt>
      <trkpt lat="43.31440128386020660400390625" lon="-1.72054999507963657379150390625">
        <ele>245.1999969482421875</ele>
        <time>2020-08-23T12:41:26.000Z</time>
      </trkpt>
      <trkpt lat="43.31439047120511531829833984375" lon="-1.72058301977813243865966796875">
        <ele>244.600006103515625</ele>
        <time>2020-08-23T12:41:30.000Z</time>
      </trkpt>
      <trkpt lat="43.31437471322715282440185546875" lon="-1.72064336948096752166748046875">
        <ele>244.1999969482421875</ele>
        <time>2020-08-23T12:41:36.000Z</time>
      </trkpt>
      <trkpt lat="43.3143736235797405242919921875" lon="-1.720664910972118377685546875">
        <ele>243.8000030517578125</ele>
        <time>2020-08-23T12:41:38.000Z</time>
      </trkpt>
      <trkpt lat="43.314373791217803955078125" lon="-1.7206724546849727630615234375">
        <ele>243.399993896484375</ele>
        <time>2020-08-23T12:41:39.000Z</time>
      </trkpt>
      <trkpt lat="43.3143729530274868011474609375" lon="-1.72068427316844463348388671875">
        <ele>243</ele>
        <time>2020-08-23T12:41:40.000Z</time>
      </trkpt>
      <trkpt lat="43.31436599604785442352294921875" lon="-1.7207457125186920166015625">
        <ele>242.399993896484375</ele>
        <time>2020-08-23T12:41:45.000Z</time>
      </trkpt>
      <trkpt lat="43.31436029635369777679443359375" lon="-1.72076515853404998779296875">
        <ele>242</ele>
        <time>2020-08-23T12:41:47.000Z</time>
      </trkpt>
      <trkpt lat="43.31433732993900775909423828125" lon="-1.72081603668630123138427734375">
        <ele>241</ele>
        <time>2020-08-23T12:41:51.000Z</time>
      </trkpt>
      <trkpt lat="43.314330875873565673828125" lon="-1.72083045355975627899169921875">
        <ele>240.8000030517578125</ele>
        <time>2020-08-23T12:41:52.000Z</time>
      </trkpt>
      <trkpt lat="43.31431813538074493408203125" lon="-1.720871441066265106201171875">
        <ele>239.600006103515625</ele>
        <time>2020-08-23T12:41:56.000Z</time>
      </trkpt>
      <trkpt lat="43.3143079094588756561279296875" lon="-1.72089482657611370086669921875">
        <ele>239.1999969482421875</ele>
        <time>2020-08-23T12:41:58.000Z</time>
      </trkpt>
      <trkpt lat="43.314282596111297607421875" lon="-1.72096389345824718475341796875">
        <ele>238.600006103515625</ele>
        <time>2020-08-23T12:42:04.000Z</time>
      </trkpt>
      <trkpt lat="43.31427714787423610687255859375" lon="-1.72098183073103427886962890625">
        <ele>238.600006103515625</ele>
        <time>2020-08-23T12:42:06.000Z</time>
      </trkpt>
      <trkpt lat="43.314270861446857452392578125" lon="-1.72102860175073146820068359375">
        <ele>237.399993896484375</ele>
        <time>2020-08-23T12:42:11.000Z</time>
      </trkpt>
      <trkpt lat="43.31426021642982959747314453125" lon="-1.7210603691637516021728515625">
        <ele>236.600006103515625</ele>
        <time>2020-08-23T12:42:14.000Z</time>
      </trkpt>
      <trkpt lat="43.3142519183456897735595703125" lon="-1.7210764624178409576416015625">
        <ele>236</ele>
        <time>2020-08-23T12:42:16.000Z</time>
      </trkpt>
      <trkpt lat="43.31423691473901271820068359375" lon="-1.72110906802117824554443359375">
        <ele>235.1999969482421875</ele>
        <time>2020-08-23T12:42:20.000Z</time>
      </trkpt>
      <trkpt lat="43.314237333834171295166015625" lon="-1.72116690315306186676025390625">
        <ele>234.399993896484375</ele>
        <time>2020-08-23T12:42:25.000Z</time>
      </trkpt>
      <trkpt lat="43.314238674938678741455078125" lon="-1.72119255177676677703857421875">
        <ele>234.1999969482421875</ele>
        <time>2020-08-23T12:42:27.000Z</time>
      </trkpt>
      <trkpt lat="43.31424462608993053436279296875" lon="-1.72127000056207180023193359375">
        <ele>233.600006103515625</ele>
        <time>2020-08-23T12:42:33.000Z</time>
      </trkpt>
      <trkpt lat="43.31424236297607421875" lon="-1.72128441743552684783935546875">
        <ele>233.399993896484375</ele>
        <time>2020-08-23T12:42:34.000Z</time>
      </trkpt>
      <trkpt lat="43.3142354898154735565185546875" lon="-1.72131308354437351226806640625">
        <ele>232.8000030517578125</ele>
        <time>2020-08-23T12:42:36.000Z</time>
      </trkpt>
      <trkpt lat="43.3142294548451900482177734375" lon="-1.721354238688945770263671875">
        <ele>231.8000030517578125</ele>
        <time>2020-08-23T12:42:39.000Z</time>
      </trkpt>
      <trkpt lat="43.31422819755971431732177734375" lon="-1.721380054950714111328125">
        <ele>231.600006103515625</ele>
        <time>2020-08-23T12:42:41.000Z</time>
      </trkpt>
      <trkpt lat="43.314225263893604278564453125" lon="-1.72148172743618488311767578125">
        <ele>231</ele>
        <time>2020-08-23T12:42:49.000Z</time>
      </trkpt>
      <trkpt lat="43.31424663774669170379638671875" lon="-1.72153092920780181884765625">
        <ele>230.8000030517578125</ele>
        <time>2020-08-23T12:42:52.000Z</time>
      </trkpt>
      <trkpt lat="43.3142515830695629119873046875" lon="-1.72154459170997142791748046875">
        <ele>230.8000030517578125</ele>
        <time>2020-08-23T12:42:54.000Z</time>
      </trkpt>
      <trkpt lat="43.31426340155303478240966796875" lon="-1.72156445682048797607421875">
        <ele>230.8000030517578125</ele>
        <time>2020-08-23T12:43:00.000Z</time>
      </trkpt>
      <trkpt lat="43.31426340155303478240966796875" lon="-1.72157309018075466156005859375">
        <ele>230.8000030517578125</ele>
        <time>2020-08-23T12:43:01.000Z</time>
      </trkpt>
      <trkpt lat="43.314270861446857452392578125" lon="-1.72158046625554561614990234375">
        <ele>230.8000030517578125</ele>
        <time>2020-08-23T12:43:09.000Z</time>
      </trkpt>
      <trkpt lat="43.3142938278615474700927734375" lon="-1.7216950468719005584716796875">
        <ele>230.1999969482421875</ele>
        <time>2020-08-23T12:43:15.000Z</time>
      </trkpt>
      <trkpt lat="43.314300365746021270751953125" lon="-1.7217349447309970855712890625">
        <ele>230</ele>
        <time>2020-08-23T12:43:16.000Z</time>
      </trkpt>
      <trkpt lat="43.314301706850528717041015625" lon="-1.72188640572130680084228515625">
        <ele>229.8000030517578125</ele>
        <time>2020-08-23T12:43:19.000Z</time>
      </trkpt>
      <trkpt lat="43.31427781842648983001708984375" lon="-1.72216233797371387481689453125">
        <ele>229.600006103515625</ele>
        <time>2020-08-23T12:43:24.000Z</time>
      </trkpt>
      <trkpt lat="43.31422157585620880126953125" lon="-1.722376830875873565673828125">
        <ele>228.8000030517578125</ele>
        <time>2020-08-23T12:43:28.000Z</time>
      </trkpt>
      <trkpt lat="43.31419986672699451446533203125" lon="-1.7224175669252872467041015625">
        <ele>228.8000030517578125</ele>
        <time>2020-08-23T12:43:29.000Z</time>
      </trkpt>
      <trkpt lat="43.31414454616606235504150390625" lon="-1.72253281809389591217041015625">
        <ele>229</ele>
        <time>2020-08-23T12:43:33.000Z</time>
      </trkpt>
      <trkpt lat="43.31409014761447906494140625" lon="-1.72275158576667308807373046875">
        <ele>229</ele>
        <time>2020-08-23T12:43:39.000Z</time>
      </trkpt>
      <trkpt lat="43.31403759308159351348876953125" lon="-1.72294705174863338470458984375">
        <ele>229.1999969482421875</ele>
        <time>2020-08-23T12:43:44.000Z</time>
      </trkpt>
      <trkpt lat="43.3140266127884387969970703125" lon="-1.7231260053813457489013671875">
        <ele>229.8000030517578125</ele>
        <time>2020-08-23T12:43:50.000Z</time>
      </trkpt>
      <trkpt lat="43.31402552314102649688720703125" lon="-1.723154671490192413330078125">
        <ele>230</ele>
        <time>2020-08-23T12:43:51.000Z</time>
      </trkpt>
      <trkpt lat="43.3140237629413604736328125" lon="-1.72338525764644145965576171875">
        <ele>230.600006103515625</ele>
        <time>2020-08-23T12:43:59.000Z</time>
      </trkpt>
      <trkpt lat="43.314036838710308074951171875" lon="-1.72358818352222442626953125">
        <ele>230.1999969482421875</ele>
        <time>2020-08-23T12:44:03.000Z</time>
      </trkpt>
      <trkpt lat="43.3140815980732440948486328125" lon="-1.72384240664541721343994140625">
        <ele>228.399993896484375</ele>
        <time>2020-08-23T12:44:07.000Z</time>
      </trkpt>
      <trkpt lat="43.3141121082007884979248046875" lon="-1.724011637270450592041015625">
        <ele>228.399993896484375</ele>
        <time>2020-08-23T12:44:10.000Z</time>
      </trkpt>
      <trkpt lat="43.3141144551336765289306640625" lon="-1.72417265363037586212158203125">
        <ele>229.1999969482421875</ele>
        <time>2020-08-23T12:44:15.000Z</time>
      </trkpt>
      <trkpt lat="43.31407045014202594757080078125" lon="-1.72438211739063262939453125">
        <ele>228.399993896484375</ele>
        <time>2020-08-23T12:44:22.000Z</time>
      </trkpt>
      <trkpt lat="43.3140326477587223052978515625" lon="-1.724619157612323760986328125">
        <ele>227.600006103515625</ele>
        <time>2020-08-23T12:44:27.000Z</time>
      </trkpt>
      <trkpt lat="43.31402367912232875823974609375" lon="-1.72467405907809734344482421875">
        <ele>227.399993896484375</ele>
        <time>2020-08-23T12:44:28.000Z</time>
      </trkpt>
      <trkpt lat="43.31399182789027690887451171875" lon="-1.7248352430760860443115234375">
        <ele>226.1999969482421875</ele>
        <time>2020-08-23T12:44:31.000Z</time>
      </trkpt>
      <trkpt lat="43.31397908739745616912841796875" lon="-1.72493373043835163116455078125">
        <ele>226</ele>
        <time>2020-08-23T12:44:33.000Z</time>
      </trkpt>
      <trkpt lat="43.31397615373134613037109375" lon="-1.72518719919025897979736328125">
        <ele>225.1999969482421875</ele>
        <time>2020-08-23T12:44:38.000Z</time>
      </trkpt>
      <trkpt lat="43.31398361362516880035400390625" lon="-1.72528468072414398193359375">
        <ele>224.600006103515625</ele>
        <time>2020-08-23T12:44:40.000Z</time>
      </trkpt>
      <trkpt lat="43.31398763693869113922119140625" lon="-1.7253361456096172332763671875">
        <ele>223.8000030517578125</ele>
        <time>2020-08-23T12:44:41.000Z</time>
      </trkpt>
      <trkpt lat="43.31399635411798954010009765625" lon="-1.72550453804433345794677734375">
        <ele>222.8000030517578125</ele>
        <time>2020-08-23T12:44:44.000Z</time>
      </trkpt>
      <trkpt lat="43.3140081726014614105224609375" lon="-1.72568089328706264495849609375">
        <ele>221.600006103515625</ele>
        <time>2020-08-23T12:44:47.000Z</time>
      </trkpt>
      <trkpt lat="43.31401295028626918792724609375" lon="-1.7257388122379779815673828125">
        <ele>220.8000030517578125</ele>
        <time>2020-08-23T12:44:48.000Z</time>
      </trkpt>
      <trkpt lat="43.31401638686656951904296875" lon="-1.72579589299857616424560546875">
        <ele>220.1999969482421875</ele>
        <time>2020-08-23T12:44:49.000Z</time>
      </trkpt>
      <trkpt lat="43.31403650343418121337890625" lon="-1.7261317558586597442626953125">
        <ele>219</ele>
        <time>2020-08-23T12:44:55.000Z</time>
      </trkpt>
      <trkpt lat="43.31404245458543300628662109375" lon="-1.72618749551475048065185546875">
        <ele>218.399993896484375</ele>
        <time>2020-08-23T12:44:56.000Z</time>
      </trkpt>
      <trkpt lat="43.3140477351844310760498046875" lon="-1.72624264843761920928955078125">
        <ele>217.399993896484375</ele>
        <time>2020-08-23T12:44:57.000Z</time>
      </trkpt>
      <trkpt lat="43.31405301578342914581298828125" lon="-1.72629361040890216827392578125">
        <ele>216</ele>
        <time>2020-08-23T12:44:58.000Z</time>
      </trkpt>
      <trkpt lat="43.31405921839177608489990234375" lon="-1.72638027928769588470458984375">
        <ele>214.8000030517578125</ele>
        <time>2020-08-23T12:45:00.000Z</time>
      </trkpt>
      <trkpt lat="43.31405703909695148468017578125" lon="-1.72642235644161701202392578125">
        <ele>214.600006103515625</ele>
        <time>2020-08-23T12:45:01.000Z</time>
      </trkpt>
      <trkpt lat="43.31404714845120906829833984375" lon="-1.72657993622124195098876953125">
        <ele>213.399993896484375</ele>
        <time>2020-08-23T12:45:04.000Z</time>
      </trkpt>
      <trkpt lat="43.3140344917774200439453125" lon="-1.72667917795479297637939453125">
        <ele>212</ele>
        <time>2020-08-23T12:45:06.000Z</time>
      </trkpt>
      <trkpt lat="43.31401647068560123443603515625" lon="-1.7267717979848384857177734375">
        <ele>210.1999969482421875</ele>
        <time>2020-08-23T12:45:08.000Z</time>
      </trkpt>
      <trkpt lat="43.314008675515651702880859375" lon="-1.72684933058917522430419921875">
        <ele>209.1999969482421875</ele>
        <time>2020-08-23T12:45:10.000Z</time>
      </trkpt>
      <trkpt lat="43.31400993280112743377685546875" lon="-1.7268723808228969573974609375">
        <ele>208.600006103515625</ele>
        <time>2020-08-23T12:45:11.000Z</time>
      </trkpt>
      <trkpt lat="43.31401881761848926544189453125" lon="-1.72690071165561676025390625">
        <ele>208</ele>
        <time>2020-08-23T12:45:13.000Z</time>
      </trkpt>
      <trkpt lat="43.31402032636106014251708984375" lon="-1.72690649516880512237548828125">
        <ele>207.600006103515625</ele>
        <time>2020-08-23T12:45:16.000Z</time>
      </trkpt>
      <trkpt lat="43.31400909461081027984619140625" lon="-1.72698310576379299163818359375">
        <ele>206.8000030517578125</ele>
        <time>2020-08-23T12:45:24.000Z</time>
      </trkpt>
      <trkpt lat="43.31400473602116107940673828125" lon="-1.7270819284021854400634765625">
        <ele>205.600006103515625</ele>
        <time>2020-08-23T12:45:28.000Z</time>
      </trkpt>
      <trkpt lat="43.31400892697274684906005859375" lon="-1.72711134888231754302978515625">
        <ele>205.399993896484375</ele>
        <time>2020-08-23T12:45:29.000Z</time>
      </trkpt>
      <trkpt lat="43.31402518786489963531494140625" lon="-1.7272160388529300689697265625">
        <ele>204.1999969482421875</ele>
        <time>2020-08-23T12:45:32.000Z</time>
      </trkpt>
      <trkpt lat="43.31402602605521678924560546875" lon="-1.7272928170859813690185546875">
        <ele>203.600006103515625</ele>
        <time>2020-08-23T12:45:34.000Z</time>
      </trkpt>
      <trkpt lat="43.314028121531009674072265625" lon="-1.72737236134707927703857421875">
        <ele>203</ele>
        <time>2020-08-23T12:45:36.000Z</time>
      </trkpt>
      <trkpt lat="43.3140346594154834747314453125" lon="-1.727441847324371337890625">
        <ele>202</ele>
        <time>2020-08-23T12:45:39.000Z</time>
      </trkpt>
      <trkpt lat="43.3140376769006252288818359375" lon="-1.727460287511348724365234375">
        <ele>201.600006103515625</ele>
        <time>2020-08-23T12:45:40.000Z</time>
      </trkpt>
      <trkpt lat="43.31405066885054111480712890625" lon="-1.727570928633213043212890625">
        <ele>200.600006103515625</ele>
        <time>2020-08-23T12:45:45.000Z</time>
      </trkpt>
      <trkpt lat="43.31406307406723499298095703125" lon="-1.7276351340115070343017578125">
        <ele>199.600006103515625</ele>
        <time>2020-08-23T12:45:48.000Z</time>
      </trkpt>
      <trkpt lat="43.314073719084262847900390625" lon="-1.72768819145858287811279296875">
        <ele>198.399993896484375</ele>
        <time>2020-08-23T12:45:50.000Z</time>
      </trkpt>
      <trkpt lat="43.3140805922448635101318359375" lon="-1.72771350480616092681884765625">
        <ele>197.8000030517578125</ele>
        <time>2020-08-23T12:45:51.000Z</time>
      </trkpt>
      <trkpt lat="43.31408587284386157989501953125" lon="-1.72774049453437328338623046875">
        <ele>197.1999969482421875</ele>
        <time>2020-08-23T12:45:52.000Z</time>
      </trkpt>
      <trkpt lat="43.31409609876573085784912109375" lon="-1.72780461609363555908203125">
        <ele>196.1999969482421875</ele>
        <time>2020-08-23T12:45:54.000Z</time>
      </trkpt>
      <trkpt lat="43.31411168910562992095947265625" lon="-1.7279326915740966796875">
        <ele>194.399993896484375</ele>
        <time>2020-08-23T12:45:57.000Z</time>
      </trkpt>
      <trkpt lat="43.31412811763584613800048828125" lon="-1.7280468530952930450439453125">
        <ele>192.1999969482421875</ele>
        <time>2020-08-23T12:45:59.000Z</time>
      </trkpt>
      <trkpt lat="43.31413867883384227752685546875" lon="-1.72817878425121307373046875">
        <ele>190.600006103515625</ele>
        <time>2020-08-23T12:46:01.000Z</time>
      </trkpt>
      <trkpt lat="43.314144797623157501220703125" lon="-1.72823620028793811798095703125">
        <ele>190</ele>
        <time>2020-08-23T12:46:02.000Z</time>
      </trkpt>
      <trkpt lat="43.31415091641247272491455078125" lon="-1.72840182669460773468017578125">
        <ele>189</ele>
        <time>2020-08-23T12:46:05.000Z</time>
      </trkpt>
      <trkpt lat="43.31414538435637950897216796875" lon="-1.7285604961216449737548828125">
        <ele>187.8000030517578125</ele>
        <time>2020-08-23T12:46:08.000Z</time>
      </trkpt>
      <trkpt lat="43.3141406066715717315673828125" lon="-1.72860869206488132476806640625">
        <ele>187.1999969482421875</ele>
        <time>2020-08-23T12:46:09.000Z</time>
      </trkpt>
      <trkpt lat="43.3141352422535419464111328125" lon="-1.7286577261984348297119140625">
        <ele>186.600006103515625</ele>
        <time>2020-08-23T12:46:10.000Z</time>
      </trkpt>
      <trkpt lat="43.31411537714302539825439453125" lon="-1.7287386953830718994140625">
        <ele>185.399993896484375</ele>
        <time>2020-08-23T12:46:12.000Z</time>
      </trkpt>
      <trkpt lat="43.31410297192633152008056640625" lon="-1.72878605313599109649658203125">
        <ele>185.1999969482421875</ele>
        <time>2020-08-23T12:46:13.000Z</time>
      </trkpt>
      <trkpt lat="43.31407807767391204833984375" lon="-1.72888026572763919830322265625">
        <ele>183.8000030517578125</ele>
        <time>2020-08-23T12:46:15.000Z</time>
      </trkpt>
      <trkpt lat="43.3140668459236621856689453125" lon="-1.7289366759359836578369140625">
        <ele>182.8000030517578125</ele>
        <time>2020-08-23T12:46:16.000Z</time>
      </trkpt>
      <trkpt lat="43.31404563970863819122314453125" lon="-1.72902711667120456695556640625">
        <ele>181.600006103515625</ele>
        <time>2020-08-23T12:46:18.000Z</time>
      </trkpt>
      <trkpt lat="43.314041197299957275390625" lon="-1.7290691100060939788818359375">
        <ele>181.1999969482421875</ele>
        <time>2020-08-23T12:46:19.000Z</time>
      </trkpt>
      <trkpt lat="43.3140356652438640594482421875" lon="-1.7291120253503322601318359375">
        <ele>180</ele>
        <time>2020-08-23T12:46:20.000Z</time>
      </trkpt>
      <trkpt lat="43.31400775350630283355712890625" lon="-1.72923062928020954132080078125">
        <ele>179</ele>
        <time>2020-08-23T12:46:23.000Z</time>
      </trkpt>
      <trkpt lat="43.31399895250797271728515625" lon="-1.72925996594130992889404296875">
        <ele>178.8000030517578125</ele>
        <time>2020-08-23T12:46:24.000Z</time>
      </trkpt>
      <trkpt lat="43.31395377404987812042236328125" lon="-1.72934797592461109161376953125">
        <ele>178.399993896484375</ele>
        <time>2020-08-23T12:46:28.000Z</time>
      </trkpt>
      <trkpt lat="43.3139347471296787261962890625" lon="-1.72936029732227325439453125">
        <ele>177.8000030517578125</ele>
        <time>2020-08-23T12:46:30.000Z</time>
      </trkpt>
      <trkpt lat="43.3139280416071414947509765625" lon="-1.729356944561004638671875">
        <ele>177.8000030517578125</ele>
        <time>2020-08-23T12:46:31.000Z</time>
      </trkpt>
      <trkpt lat="43.3138800971210002899169921875" lon="-1.72930262982845306396484375">
        <ele>177</ele>
        <time>2020-08-23T12:46:35.000Z</time>
      </trkpt>
      <trkpt lat="43.3138697035610675811767578125" lon="-1.72927957959473133087158203125">
        <ele>176.399993896484375</ele>
        <time>2020-08-23T12:46:36.000Z</time>
      </trkpt>
      <trkpt lat="43.31386459060013294219970703125" lon="-1.72924521379172801971435546875">
        <ele>176</ele>
        <time>2020-08-23T12:46:37.000Z</time>
      </trkpt>
      <trkpt lat="43.3138593100011348724365234375" lon="-1.72920900397002696990966796875">
        <ele>175.399993896484375</ele>
        <time>2020-08-23T12:46:38.000Z</time>
      </trkpt>
      <trkpt lat="43.31384698860347270965576171875" lon="-1.7291314713656902313232421875">
        <ele>175</ele>
        <time>2020-08-23T12:46:40.000Z</time>
      </trkpt>
      <trkpt lat="43.31383659504354000091552734375" lon="-1.72905762679874897003173828125">
        <ele>173.8000030517578125</ele>
        <time>2020-08-23T12:46:42.000Z</time>
      </trkpt>
      <trkpt lat="43.3138281293213367462158203125" lon="-1.72898520715534687042236328125">
        <ele>171.8000030517578125</ele>
        <time>2020-08-23T12:46:44.000Z</time>
      </trkpt>
      <trkpt lat="43.3138251118361949920654296875" lon="-1.72893256880342960357666015625">
        <ele>170.600006103515625</ele>
        <time>2020-08-23T12:46:46.000Z</time>
      </trkpt>
      <trkpt lat="43.31379837356507778167724609375" lon="-1.7288218438625335693359375">
        <ele>169.399993896484375</ele>
        <time>2020-08-23T12:46:49.000Z</time>
      </trkpt>
      <trkpt lat="43.3137796819210052490234375" lon="-1.7287298105657100677490234375">
        <ele>168</ele>
        <time>2020-08-23T12:46:51.000Z</time>
      </trkpt>
      <trkpt lat="43.31377004273235797882080078125" lon="-1.7286526970565319061279296875">
        <ele>167</ele>
        <time>2020-08-23T12:46:53.000Z</time>
      </trkpt>
      <trkpt lat="43.31376786343753337860107421875" lon="-1.7286131344735622406005859375">
        <ele>166.8000030517578125</ele>
        <time>2020-08-23T12:46:54.000Z</time>
      </trkpt>
      <trkpt lat="43.31374255008995532989501953125" lon="-1.72847541980445384979248046875">
        <ele>165.8000030517578125</ele>
        <time>2020-08-23T12:46:57.000Z</time>
      </trkpt>
      <trkpt lat="43.3137265406548976898193359375" lon="-1.72840216197073459625244140625">
        <ele>164.399993896484375</ele>
        <time>2020-08-23T12:46:59.000Z</time>
      </trkpt>
      <trkpt lat="43.3136725611984729766845703125" lon="-1.72831163741648197174072265625">
        <ele>163.1999969482421875</ele>
        <time>2020-08-23T12:47:02.000Z</time>
      </trkpt>
      <trkpt lat="43.3136500976979732513427734375" lon="-1.72828204929828643798828125">
        <ele>163.1999969482421875</ele>
        <time>2020-08-23T12:47:03.000Z</time>
      </trkpt>
      <trkpt lat="43.31358212046325206756591796875" lon="-1.72817610204219818115234375">
        <ele>162</ele>
        <time>2020-08-23T12:47:06.000Z</time>
      </trkpt>
      <trkpt lat="43.31353819929063320159912109375" lon="-1.7280897684395313262939453125">
        <ele>161</ele>
        <time>2020-08-23T12:47:08.000Z</time>
      </trkpt>
      <trkpt lat="43.31351372413337230682373046875" lon="-1.72804274596273899078369140625">
        <ele>160.600006103515625</ele>
        <time>2020-08-23T12:47:09.000Z</time>
      </trkpt>
      <trkpt lat="43.3134908415377140045166015625" lon="-1.72799128107726573944091796875">
        <ele>159.8000030517578125</ele>
        <time>2020-08-23T12:47:10.000Z</time>
      </trkpt>
      <trkpt lat="43.31346846185624599456787109375" lon="-1.72794098965823650360107421875">
        <ele>158.8000030517578125</ele>
        <time>2020-08-23T12:47:11.000Z</time>
      </trkpt>
      <trkpt lat="43.313422612845897674560546875" lon="-1.72783789224922657012939453125">
        <ele>157.600006103515625</ele>
        <time>2020-08-23T12:47:13.000Z</time>
      </trkpt>
      <trkpt lat="43.313397802412509918212890625" lon="-1.72778625972568988800048828125">
        <ele>157.1999969482421875</ele>
        <time>2020-08-23T12:47:14.000Z</time>
      </trkpt>
      <trkpt lat="43.31335312686860561370849609375" lon="-1.72768064774572849273681640625">
        <ele>155.8000030517578125</ele>
        <time>2020-08-23T12:47:16.000Z</time>
      </trkpt>
      <trkpt lat="43.31331289373338222503662109375" lon="-1.72758006490767002105712890625">
        <ele>155</ele>
        <time>2020-08-23T12:47:18.000Z</time>
      </trkpt>
      <trkpt lat="43.3132762648165225982666015625" lon="-1.72750295139849185943603515625">
        <ele>153.8000030517578125</ele>
        <time>2020-08-23T12:47:20.000Z</time>
      </trkpt>
      <trkpt lat="43.31323343329131603240966796875" lon="-1.727409996092319488525390625">
        <ele>152.600006103515625</ele>
        <time>2020-08-23T12:47:23.000Z</time>
      </trkpt>
      <trkpt lat="43.3131954632699489593505859375" lon="-1.72731553204357624053955078125">
        <ele>151.600006103515625</ele>
        <time>2020-08-23T12:47:26.000Z</time>
      </trkpt>
      <trkpt lat="43.3131535537540912628173828125" lon="-1.7272321321070194244384765625">
        <ele>150.600006103515625</ele>
        <time>2020-08-23T12:47:29.000Z</time>
      </trkpt>
      <trkpt lat="43.31312128342688083648681640625" lon="-1.7271634005010128021240234375">
        <ele>149.399993896484375</ele>
        <time>2020-08-23T12:47:31.000Z</time>
      </trkpt>
      <trkpt lat="43.3130958862602710723876953125" lon="-1.7270852811634540557861328125">
        <ele>148</ele>
        <time>2020-08-23T12:47:33.000Z</time>
      </trkpt>
      <trkpt lat="43.31308054737746715545654296875" lon="-1.72701462171971797943115234375">
        <ele>147</ele>
        <time>2020-08-23T12:47:35.000Z</time>
      </trkpt>
      <trkpt lat="43.3130667172372341156005859375" lon="-1.726951338350772857666015625">
        <ele>145.8000030517578125</ele>
        <time>2020-08-23T12:47:37.000Z</time>
      </trkpt>
      <trkpt lat="43.31305188126862049102783203125" lon="-1.72687112353742122650146484375">
        <ele>144.600006103515625</ele>
        <time>2020-08-23T12:47:41.000Z</time>
      </trkpt>
      <trkpt lat="43.313035704195499420166015625" lon="-1.72682368196547031402587890625">
        <ele>144.399993896484375</ele>
        <time>2020-08-23T12:47:47.000Z</time>
      </trkpt>
      <trkpt lat="43.31300728954374790191650390625" lon="-1.72676526010036468505859375">
        <ele>143.8000030517578125</ele>
        <time>2020-08-23T12:47:52.000Z</time>
      </trkpt>
      <trkpt lat="43.31300058402121067047119140625" lon="-1.72675645910203456878662109375">
        <ele>143.399993896484375</ele>
        <time>2020-08-23T12:47:53.000Z</time>
      </trkpt>
      <trkpt lat="43.312990777194499969482421875" lon="-1.72674774192273616790771484375">
        <ele>143</ele>
        <time>2020-08-23T12:47:54.000Z</time>
      </trkpt>
      <trkpt lat="43.31297158263623714447021484375" lon="-1.7267302237451076507568359375">
        <ele>142.399993896484375</ele>
        <time>2020-08-23T12:47:56.000Z</time>
      </trkpt>
      <trkpt lat="43.3129564113914966583251953125" lon="-1.72671505250036716461181640625">
        <ele>142.600006103515625</ele>
        <time>2020-08-23T12:47:59.000Z</time>
      </trkpt>
      <trkpt lat="43.3129535615444183349609375" lon="-1.72669728286564350128173828125">
        <ele>143</ele>
        <time>2020-08-23T12:48:09.000Z</time>
      </trkpt>
      <trkpt lat="43.31293252296745777130126953125" lon="-1.72668336890637874603271484375">
        <ele>142.8000030517578125</ele>
        <time>2020-08-23T12:48:20.000Z</time>
      </trkpt>
      <trkpt lat="43.31291810609400272369384765625" lon="-1.72669418156147003173828125">
        <ele>142.8000030517578125</ele>
        <time>2020-08-23T12:48:28.000Z</time>
      </trkpt>
      <trkpt lat="43.31285641528666019439697265625" lon="-1.7267778329551219940185546875">
        <ele>142.399993896484375</ele>
        <time>2020-08-23T12:48:33.000Z</time>
      </trkpt>
      <trkpt lat="43.31280746497213840484619140625" lon="-1.72688671387732028961181640625">
        <ele>141.399993896484375</ele>
        <time>2020-08-23T12:48:36.000Z</time>
      </trkpt>
      <trkpt lat="43.31278181634843349456787109375" lon="-1.72692778520286083221435546875">
        <ele>141</ele>
        <time>2020-08-23T12:48:37.000Z</time>
      </trkpt>
      <trkpt lat="43.31272414885461330413818359375" lon="-1.72702216543257236480712890625">
        <ele>140.399993896484375</ele>
        <time>2020-08-23T12:48:39.000Z</time>
      </trkpt>
      <trkpt lat="43.31266815774142742156982421875" lon="-1.7270703613758087158203125">
        <ele>139.8000030517578125</ele>
        <time>2020-08-23T12:48:41.000Z</time>
      </trkpt>
      <trkpt lat="43.31259406171739101409912109375" lon="-1.72713029198348522186279296875">
        <ele>139.8000030517578125</ele>
        <time>2020-08-23T12:48:45.000Z</time>
      </trkpt>
      <trkpt lat="43.31258098594844341278076171875" lon="-1.72716482542455196380615234375">
        <ele>139.600006103515625</ele>
        <time>2020-08-23T12:48:46.000Z</time>
      </trkpt>
      <trkpt lat="43.3125755377113819122314453125" lon="-1.7272016219794750213623046875">
        <ele>139.600006103515625</ele>
        <time>2020-08-23T12:48:47.000Z</time>
      </trkpt>
      <trkpt lat="43.31257947720587253570556640625" lon="-1.72726574353873729705810546875">
        <ele>139.600006103515625</ele>
        <time>2020-08-23T12:48:49.000Z</time>
      </trkpt>
      <trkpt lat="43.3125966601073741912841796875" lon="-1.72733816318213939666748046875">
        <ele>140.8000030517578125</ele>
        <time>2020-08-23T12:48:52.000Z</time>
      </trkpt>
      <trkpt lat="43.31258769147098064422607421875" lon="-1.727397255599498748779296875">
        <ele>141.600006103515625</ele>
        <time>2020-08-23T12:48:54.000Z</time>
      </trkpt>
      <trkpt lat="43.31258433870971202850341796875" lon="-1.72742449678480625152587890625">
        <ele>142</ele>
        <time>2020-08-23T12:48:55.000Z</time>
      </trkpt>
      <trkpt lat="43.3125550858676433563232421875" lon="-1.72753714956343173980712890625">
        <ele>143</ele>
        <time>2020-08-23T12:48:59.000Z</time>
      </trkpt>
      <trkpt lat="43.3125403337180614471435546875" lon="-1.7275824956595897674560546875">
        <ele>143.600006103515625</ele>
        <time>2020-08-23T12:49:01.000Z</time>
      </trkpt>
      <trkpt lat="43.31251979805529117584228515625" lon="-1.72773831523954868316650390625">
        <ele>143.600006103515625</ele>
        <time>2020-08-23T12:49:07.000Z</time>
      </trkpt>
      <trkpt lat="43.312517702579498291015625" lon="-1.72776496969163417816162109375">
        <ele>143.399993896484375</ele>
        <time>2020-08-23T12:49:08.000Z</time>
      </trkpt>
      <trkpt lat="43.31250051967799663543701171875" lon="-1.72793604433536529541015625">
        <ele>142.399993896484375</ele>
        <time>2020-08-23T12:49:14.000Z</time>
      </trkpt>
      <trkpt lat="43.3124964125454425811767578125" lon="-1.72799631021916866302490234375">
        <ele>141.600006103515625</ele>
        <time>2020-08-23T12:49:16.000Z</time>
      </trkpt>
      <trkpt lat="43.312477134168148040771484375" lon="-1.72812514007091522216796875">
        <ele>140.399993896484375</ele>
        <time>2020-08-23T12:49:19.000Z</time>
      </trkpt>
      <trkpt lat="43.3124659024178981781005859375" lon="-1.72816797159612178802490234375">
        <ele>139.8000030517578125</ele>
        <time>2020-08-23T12:49:20.000Z</time>
      </trkpt>
      <trkpt lat="43.31245207227766513824462890625" lon="-1.72821641899645328521728515625">
        <ele>139.1999969482421875</ele>
        <time>2020-08-23T12:49:21.000Z</time>
      </trkpt>
      <trkpt lat="43.31241066567599773406982421875" lon="-1.728384979069232940673828125">
        <ele>138</ele>
        <time>2020-08-23T12:49:25.000Z</time>
      </trkpt>
      <trkpt lat="43.31238334067165851593017578125" lon="-1.7284840531647205352783203125">
        <ele>136.8000030517578125</ele>
        <time>2020-08-23T12:49:28.000Z</time>
      </trkpt>
      <trkpt lat="43.3123706839978694915771484375" lon="-1.72853057272732257843017578125">
        <ele>135.399993896484375</ele>
        <time>2020-08-23T12:49:30.000Z</time>
      </trkpt>
      <trkpt lat="43.31237982027232646942138671875" lon="-1.7285460792481899261474609375">
        <ele>134.8000030517578125</ele>
        <time>2020-08-23T12:49:35.000Z</time>
      </trkpt>
      <trkpt lat="43.3123830892145633697509765625" lon="-1.72854901291429996490478515625">
        <ele>134.8000030517578125</ele>
        <time>2020-08-23T12:49:36.000Z</time>
      </trkpt>
      <trkpt lat="43.3123854361474514007568359375" lon="-1.72860600985586643218994140625">
        <ele>134.600006103515625</ele>
        <time>2020-08-23T12:49:41.000Z</time>
      </trkpt>
      <trkpt lat="43.3123847655951976776123046875" lon="-1.72861606813967227935791015625">
        <ele>134.399993896484375</ele>
        <time>2020-08-23T12:49:42.000Z</time>
      </trkpt>
      <trkpt lat="43.312376551330089569091796875" lon="-1.728682033717632293701171875">
        <ele>133.1999969482421875</ele>
        <time>2020-08-23T12:49:48.000Z</time>
      </trkpt>
      <trkpt lat="43.31236892379820346832275390625" lon="-1.72874866984784603118896484375">
        <ele>132</ele>
        <time>2020-08-23T12:49:53.000Z</time>
      </trkpt>
      <trkpt lat="43.312362469732761383056640625" lon="-1.7287992127239704132080078125">
        <ele>131.399993896484375</ele>
        <time>2020-08-23T12:49:56.000Z</time>
      </trkpt>
      <trkpt lat="43.3123663254082202911376953125" lon="-1.72883056104183197021484375">
        <ele>131</ele>
        <time>2020-08-23T12:49:58.000Z</time>
      </trkpt>
      <trkpt lat="43.3123653195798397064208984375" lon="-1.7288756556808948516845703125">
        <ele>129.8000030517578125</ele>
        <time>2020-08-23T12:50:01.000Z</time>
      </trkpt>
      <trkpt lat="43.31236640922725200653076171875" lon="-1.72890222631394863128662109375">
        <ele>129.399993896484375</ele>
        <time>2020-08-23T12:50:03.000Z</time>
      </trkpt>
      <trkpt lat="43.3123723603785037994384765625" lon="-1.72892980277538299560546875">
        <ele>128.8000030517578125</ele>
        <time>2020-08-23T12:50:05.000Z</time>
      </trkpt>
      <trkpt lat="43.31237965263426303863525390625" lon="-1.72899778001010417938232421875">
        <ele>127.59999847412109375</ele>
        <time>2020-08-23T12:50:10.000Z</time>
      </trkpt>
      <trkpt lat="43.3123827539384365081787109375" lon="-1.72902510501444339752197265625">
        <ele>127.1999969482421875</ele>
        <time>2020-08-23T12:50:12.000Z</time>
      </trkpt>
      <trkpt lat="43.3123790659010410308837890625" lon="-1.7290546931326389312744140625">
        <ele>126.59999847412109375</ele>
        <time>2020-08-23T12:50:14.000Z</time>
      </trkpt>
      <trkpt lat="43.31238166429102420806884765625" lon="-1.72912250272929668426513671875">
        <ele>125.59999847412109375</ele>
        <time>2020-08-23T12:50:19.000Z</time>
      </trkpt>
      <trkpt lat="43.31238384358584880828857421875" lon="-1.72914295457303524017333984375">
        <ele>125.1999969482421875</ele>
        <time>2020-08-23T12:50:22.000Z</time>
      </trkpt>
      <trkpt lat="43.3123995177447795867919921875" lon="-1.72918586991727352142333984375">
        <ele>124.40000152587890625</ele>
        <time>2020-08-23T12:50:26.000Z</time>
      </trkpt>
      <trkpt lat="43.31241485662758350372314453125" lon="-1.72922560013830661773681640625">
        <ele>123.8000030517578125</ele>
        <time>2020-08-23T12:50:30.000Z</time>
      </trkpt>
      <trkpt lat="43.31242005340754985809326171875" lon="-1.72923850826919078826904296875">
        <ele>123.40000152587890625</ele>
        <time>2020-08-23T12:50:31.000Z</time>
      </trkpt>
      <trkpt lat="43.31243648193776607513427734375" lon="-1.72928963787853717803955078125">
        <ele>122.40000152587890625</ele>
        <time>2020-08-23T12:50:35.000Z</time>
      </trkpt>
      <trkpt lat="43.3124441094696521759033203125" lon="-1.72932903282344341278076171875">
        <ele>121.40000152587890625</ele>
        <time>2020-08-23T12:50:39.000Z</time>
      </trkpt>
      <trkpt lat="43.31244939006865024566650390625" lon="-1.72936574555933475494384765625">
        <ele>120.1999969482421875</ele>
        <time>2020-08-23T12:50:44.000Z</time>
      </trkpt>
      <trkpt lat="43.31245827488601207733154296875" lon="-1.72939374111592769622802734375">
        <ele>119.40000152587890625</ele>
        <time>2020-08-23T12:50:47.000Z</time>
      </trkpt>
      <trkpt lat="43.3124568499624729156494140625" lon="-1.7294070683419704437255859375">
        <ele>119</ele>
        <time>2020-08-23T12:50:48.000Z</time>
      </trkpt>
      <trkpt lat="43.31245961599051952362060546875" lon="-1.729457862675189971923828125">
        <ele>118</ele>
        <time>2020-08-23T12:50:53.000Z</time>
      </trkpt>
      <trkpt lat="43.3124652318656444549560546875" lon="-1.72947387211024761199951171875">
        <ele>117.40000152587890625</ele>
        <time>2020-08-23T12:50:56.000Z</time>
      </trkpt>
      <trkpt lat="43.31246179528534412384033203125" lon="-1.72947965562343597412109375">
        <ele>117</ele>
        <time>2020-08-23T12:51:08.000Z</time>
      </trkpt>
      <trkpt lat="43.31246179528534412384033203125" lon="-1.72948074527084827423095703125">
        <ele>117.1999969482421875</ele>
        <time>2020-08-23T12:51:19.000Z</time>
      </trkpt>
      <trkpt lat="43.31245659850537776947021484375" lon="-1.72951494343578815460205078125">
        <ele>116.40000152587890625</ele>
        <time>2020-08-23T12:51:26.000Z</time>
      </trkpt>
      <trkpt lat="43.3124511502683162689208984375" lon="-1.72954679466784000396728515625">
        <ele>115.8000030517578125</ele>
        <time>2020-08-23T12:51:30.000Z</time>
      </trkpt>
      <trkpt lat="43.31244721077382564544677734375" lon="-1.72958417795598506927490234375">
        <ele>115</ele>
        <time>2020-08-23T12:51:34.000Z</time>
      </trkpt>
      <trkpt lat="43.31244771368801593780517578125" lon="-1.7295941524207592010498046875">
        <ele>114.8000030517578125</ele>
        <time>2020-08-23T12:51:35.000Z</time>
      </trkpt>
      <trkpt lat="43.3124467916786670684814453125" lon="-1.72964218072593212127685546875">
        <ele>113.59999847412109375</ele>
        <time>2020-08-23T12:51:40.000Z</time>
      </trkpt>
      <trkpt lat="43.312448970973491668701171875" lon="-1.729652993381023406982421875">
        <ele>113.1999969482421875</ele>
        <time>2020-08-23T12:51:42.000Z</time>
      </trkpt>
      <trkpt lat="43.31245525740087032318115234375" lon="-1.72967545688152313232421875">
        <ele>112.1999969482421875</ele>
        <time>2020-08-23T12:51:45.000Z</time>
      </trkpt>
      <trkpt lat="43.31246715970337390899658203125" lon="-1.72972910106182098388671875">
        <ele>111.1999969482421875</ele>
        <time>2020-08-23T12:51:51.000Z</time>
      </trkpt>
      <trkpt lat="43.31247017718851566314697265625" lon="-1.7297413386404514312744140625">
        <ele>111</ele>
        <time>2020-08-23T12:51:53.000Z</time>
      </trkpt>
      <trkpt lat="43.31247587688267230987548828125" lon="-1.729764975607395172119140625">
        <ele>110</ele>
        <time>2020-08-23T12:51:57.000Z</time>
      </trkpt>
      <trkpt lat="43.31248006783425807952880859375" lon="-1.7298134230077266693115234375">
        <ele>108.8000030517578125</ele>
        <time>2020-08-23T12:52:02.000Z</time>
      </trkpt>
      <trkpt lat="43.3124866895377635955810546875" lon="-1.72986698336899280548095703125">
        <ele>107.8000030517578125</ele>
        <time>2020-08-23T12:52:06.000Z</time>
      </trkpt>
      <trkpt lat="43.31249280832707881927490234375" lon="-1.7299161851406097412109375">
        <ele>107</ele>
        <time>2020-08-23T12:52:09.000Z</time>
      </trkpt>
      <trkpt lat="43.31249557435512542724609375" lon="-1.72996471635997295379638671875">
        <ele>106.59999847412109375</ele>
        <time>2020-08-23T12:52:12.000Z</time>
      </trkpt>
      <trkpt lat="43.31250051967799663543701171875" lon="-1.7300109006464481353759765625">
        <ele>105.40000152587890625</ele>
        <time>2020-08-23T12:52:16.000Z</time>
      </trkpt>
      <trkpt lat="43.3125031180679798126220703125" lon="-1.73004694283008575439453125">
        <ele>104.8000030517578125</ele>
        <time>2020-08-23T12:52:19.000Z</time>
      </trkpt>
      <trkpt lat="43.312501274049282073974609375" lon="-1.73006395809352397918701171875">
        <ele>104.40000152587890625</ele>
        <time>2020-08-23T12:52:21.000Z</time>
      </trkpt>
      <trkpt lat="43.31249381415545940399169921875" lon="-1.73008625395596027374267578125">
        <ele>104</ele>
        <time>2020-08-23T12:52:23.000Z</time>
      </trkpt>
      <trkpt lat="43.3124826662242412567138671875" lon="-1.73014819622039794921875">
        <ele>103.1999969482421875</ele>
        <time>2020-08-23T12:52:28.000Z</time>
      </trkpt>
      <trkpt lat="43.31248191185295581817626953125" lon="-1.730174683034420013427734375">
        <ele>102.59999847412109375</ele>
        <time>2020-08-23T12:52:35.000Z</time>
      </trkpt>
      <trkpt lat="43.31247411668300628662109375" lon="-1.730215251445770263671875">
        <ele>102.1999969482421875</ele>
        <time>2020-08-23T12:52:38.000Z</time>
      </trkpt>
      <trkpt lat="43.31247386522591114044189453125" lon="-1.7302288301289081573486328125">
        <ele>102</ele>
        <time>2020-08-23T12:52:39.000Z</time>
      </trkpt>
      <trkpt lat="43.3124729432165622711181640625" lon="-1.73026395030319690704345703125">
        <ele>101.59999847412109375</ele>
        <time>2020-08-23T12:52:42.000Z</time>
      </trkpt>
      <trkpt lat="43.312471769750118255615234375" lon="-1.7302747629582881927490234375">
        <ele>101.1999969482421875</ele>
        <time>2020-08-23T12:52:44.000Z</time>
      </trkpt>
      <trkpt lat="43.31248643808066844940185546875" lon="-1.73033720813691616058349609375">
        <ele>100</ele>
        <time>2020-08-23T12:52:50.000Z</time>
      </trkpt>
      <trkpt lat="43.31248861737549304962158203125" lon="-1.7303478531539440155029296875">
        <ele>99.8000030517578125</ele>
        <time>2020-08-23T12:52:51.000Z</time>
      </trkpt>
      <trkpt lat="43.3124977536499500274658203125" lon="-1.73040376044809818267822265625">
        <ele>98.8000030517578125</ele>
        <time>2020-08-23T12:52:56.000Z</time>
      </trkpt>
      <trkpt lat="43.3125031180679798126220703125" lon="-1.7304407246410846710205078125">
        <ele>97.8000030517578125</ele>
        <time>2020-08-23T12:53:01.000Z</time>
      </trkpt>
      <trkpt lat="43.31250362098217010498046875" lon="-1.7304487712681293487548828125">
        <ele>97.59999847412109375</ele>
        <time>2020-08-23T12:53:02.000Z</time>
      </trkpt>
      <trkpt lat="43.31249691545963287353515625" lon="-1.7304955422878265380859375">
        <ele>96.40000152587890625</ele>
        <time>2020-08-23T12:53:06.000Z</time>
      </trkpt>
      <trkpt lat="43.31248526461422443389892578125" lon="-1.7305557243525981903076171875">
        <ele>95.1999969482421875</ele>
        <time>2020-08-23T12:53:11.000Z</time>
      </trkpt>
      <trkpt lat="43.31246204674243927001953125" lon="-1.730615906417369842529296875">
        <ele>94</ele>
        <time>2020-08-23T12:53:18.000Z</time>
      </trkpt>
      <trkpt lat="43.312460370361804962158203125" lon="-1.730640046298503875732421875">
        <ele>93.1999969482421875</ele>
        <time>2020-08-23T12:53:21.000Z</time>
      </trkpt>
      <trkpt lat="43.312467075884342193603515625" lon="-1.73065287061035633087158203125">
        <ele>93</ele>
        <time>2020-08-23T12:53:23.000Z</time>
      </trkpt>
      <trkpt lat="43.3124692551791667938232421875" lon="-1.73067734576761722564697265625">
        <ele>92.40000152587890625</ele>
        <time>2020-08-23T12:53:31.000Z</time>
      </trkpt>
      <trkpt lat="43.31246833316981792449951171875" lon="-1.7306770943105220794677734375">
        <ele>92.40000152587890625</ele>
        <time>2020-08-23T12:53:34.000Z</time>
      </trkpt>
      <trkpt lat="43.3125011064112186431884765625" lon="-1.73664878122508525848388671875">
        <ele>90.1999969482421875</ele>
        <time>2020-08-23T12:56:57.000Z</time>
      </trkpt>
      <trkpt lat="43.31250102259218692779541015625" lon="-1.7366909421980381011962890625">
        <ele>89.8000030517578125</ele>
        <time>2020-08-23T12:56:58.000Z</time>
      </trkpt>
      <trkpt lat="43.31250496208667755126953125" lon="-1.7367764376103878021240234375">
        <ele>89</ele>
        <time>2020-08-23T12:57:00.000Z</time>
      </trkpt>
      <trkpt lat="43.312516696751117706298828125" lon="-1.736809797585010528564453125">
        <ele>88.59999847412109375</ele>
        <time>2020-08-23T12:57:01.000Z</time>
      </trkpt>
      <trkpt lat="43.31256086938083171844482421875" lon="-1.73684659413993358612060546875">
        <ele>87.8000030517578125</ele>
        <time>2020-08-23T12:57:03.000Z</time>
      </trkpt>
      <trkpt lat="43.31266849301755428314208984375" lon="-1.73682781867682933807373046875">
        <ele>86.40000152587890625</ele>
        <time>2020-08-23T12:57:06.000Z</time>
      </trkpt>
      <trkpt lat="43.31270872615277767181396484375" lon="-1.7368121445178985595703125">
        <ele>85.59999847412109375</ele>
        <time>2020-08-23T12:57:07.000Z</time>
      </trkpt>
      <trkpt lat="43.31275315023958683013916015625" lon="-1.73679144121706485748291015625">
        <ele>84.8000030517578125</ele>
        <time>2020-08-23T12:57:08.000Z</time>
      </trkpt>
      <trkpt lat="43.31284266896545886993408203125" lon="-1.73675221391022205352783203125">
        <ele>84.1999969482421875</ele>
        <time>2020-08-23T12:57:10.000Z</time>
      </trkpt>
      <trkpt lat="43.31288122572004795074462890625" lon="-1.7367343604564666748046875">
        <ele>84</ele>
        <time>2020-08-23T12:57:11.000Z</time>
      </trkpt>
      <trkpt lat="43.3129138313233852386474609375" lon="-1.736717931926250457763671875">
        <ele>83.59999847412109375</ele>
        <time>2020-08-23T12:57:12.000Z</time>
      </trkpt>
      <trkpt lat="43.3130435831844806671142578125" lon="-1.736650876700878143310546875">
        <ele>82.8000030517578125</ele>
        <time>2020-08-23T12:57:16.000Z</time>
      </trkpt>
      <trkpt lat="43.31307895481586456298828125" lon="-1.73663889057934284210205078125">
        <ele>82.59999847412109375</ele>
        <time>2020-08-23T12:57:17.000Z</time>
      </trkpt>
      <trkpt lat="43.31324952654540538787841796875" lon="-1.73658206127583980560302734375">
        <ele>81.59999847412109375</ele>
        <time>2020-08-23T12:57:21.000Z</time>
      </trkpt>
      <trkpt lat="43.31329411827027797698974609375" lon="-1.73657233826816082000732421875">
        <ele>81</ele>
        <time>2020-08-23T12:57:22.000Z</time>
      </trkpt>
      <trkpt lat="43.31337357871234416961669921875" lon="-1.73655356280505657196044921875">
        <ele>80.40000152587890625</ele>
        <time>2020-08-23T12:57:24.000Z</time>
      </trkpt>
      <trkpt lat="43.31345538608729839324951171875" lon="-1.73654098995029926300048828125">
        <ele>79.40000152587890625</ele>
        <time>2020-08-23T12:57:26.000Z</time>
      </trkpt>
      <trkpt lat="43.31350165419280529022216796875" lon="-1.7365407384932041168212890625">
        <ele>79</ele>
        <time>2020-08-23T12:57:27.000Z</time>
      </trkpt>
      <trkpt lat="43.313550688326358795166015625" lon="-1.73655238933861255645751953125">
        <ele>78.59999847412109375</ele>
        <time>2020-08-23T12:57:28.000Z</time>
      </trkpt>
      <trkpt lat="43.31365521065890789031982421875" lon="-1.7365917004644870758056640625">
        <ele>77.59999847412109375</ele>
        <time>2020-08-23T12:57:30.000Z</time>
      </trkpt>
      <trkpt lat="43.31371103413403034210205078125" lon="-1.7366077937185764312744140625">
        <ele>76.59999847412109375</ele>
        <time>2020-08-23T12:57:31.000Z</time>
      </trkpt>
      <trkpt lat="43.31377155147492885589599609375" lon="-1.73662246204912662506103515625">
        <ele>75.59999847412109375</ele>
        <time>2020-08-23T12:57:32.000Z</time>
      </trkpt>
      <trkpt lat="43.3139075897634029388427734375" lon="-1.73666269518435001373291015625">
        <ele>73.8000030517578125</ele>
        <time>2020-08-23T12:57:34.000Z</time>
      </trkpt>
      <trkpt lat="43.31403315067291259765625" lon="-1.7367316782474517822265625">
        <ele>72.40000152587890625</ele>
        <time>2020-08-23T12:57:36.000Z</time>
      </trkpt>
      <trkpt lat="43.31409014761447906494140625" lon="-1.7367606796324253082275390625">
        <ele>71.59999847412109375</ele>
        <time>2020-08-23T12:57:37.000Z</time>
      </trkpt>
      <trkpt lat="43.314141444861888885498046875" lon="-1.73678138293325901031494140625">
        <ele>71</ele>
        <time>2020-08-23T12:57:38.000Z</time>
      </trkpt>
      <trkpt lat="43.31429022364318370819091796875" lon="-1.7368094623088836669921875">
        <ele>70</ele>
        <time>2020-08-23T12:57:41.000Z</time>
      </trkpt>
      <trkpt lat="43.31434302963316440582275390625" lon="-1.73680786974728107452392578125">
        <ele>70</ele>
        <time>2020-08-23T12:57:42.000Z</time>
      </trkpt>
      <trkpt lat="43.3143927343189716339111328125" lon="-1.73680233769118785858154296875">
        <ele>69.8000030517578125</ele>
        <time>2020-08-23T12:57:43.000Z</time>
      </trkpt>
      <trkpt lat="43.3145114220678806304931640625" lon="-1.7368512041866779327392578125">
        <ele>69</ele>
        <time>2020-08-23T12:57:46.000Z</time>
      </trkpt>
      <trkpt lat="43.314535729587078094482421875" lon="-1.7368988133966922760009765625">
        <ele>68.8000030517578125</ele>
        <time>2020-08-23T12:57:47.000Z</time>
      </trkpt>
      <trkpt lat="43.31456179730594158172607421875" lon="-1.73698154278099536895751953125">
        <ele>68.40000152587890625</ele>
        <time>2020-08-23T12:57:49.000Z</time>
      </trkpt>
      <trkpt lat="43.31462851725518703460693359375" lon="-1.7371428944170475006103515625">
        <ele>68</ele>
        <time>2020-08-23T12:57:52.000Z</time>
      </trkpt>
      <trkpt lat="43.31466238014400005340576171875" lon="-1.7372133024036884307861328125">
        <ele>67.40000152587890625</ele>
        <time>2020-08-23T12:57:53.000Z</time>
      </trkpt>
      <trkpt lat="43.3146874420344829559326171875" lon="-1.7372749932110309600830078125">
        <ele>67</ele>
        <time>2020-08-23T12:57:54.000Z</time>
      </trkpt>
      <trkpt lat="43.31471719779074192047119140625" lon="-1.73733358271420001983642578125">
        <ele>66.40000152587890625</ele>
        <time>2020-08-23T12:57:55.000Z</time>
      </trkpt>
      <trkpt lat="43.314756341278553009033203125" lon="-1.7374037392437458038330078125">
        <ele>66</ele>
        <time>2020-08-23T12:57:56.000Z</time>
      </trkpt>
      <trkpt lat="43.3147856779396533966064453125" lon="-1.73746869899332523345947265625">
        <ele>64.59999847412109375</ele>
        <time>2020-08-23T12:57:57.000Z</time>
      </trkpt>
      <trkpt lat="43.31482431851327419281005859375" lon="-1.73752552829682826995849609375">
        <ele>63.40000152587890625</ele>
        <time>2020-08-23T12:57:58.000Z</time>
      </trkpt>
      <trkpt lat="43.31486932933330535888671875" lon="-1.7375743947923183441162109375">
        <ele>62.59999847412109375</ele>
        <time>2020-08-23T12:57:59.000Z</time>
      </trkpt>
      <trkpt lat="43.31492540426552295684814453125" lon="-1.7376391030848026275634765625">
        <ele>61.799999237060546875</ele>
        <time>2020-08-23T12:58:00.000Z</time>
      </trkpt>
      <trkpt lat="43.31502565182745456695556640625" lon="-1.7377769015729427337646484375">
        <ele>59.799999237060546875</ele>
        <time>2020-08-23T12:58:02.000Z</time>
      </trkpt>
      <trkpt lat="43.3150649629533290863037109375" lon="-1.7378543503582477569580078125">
        <ele>58.40000152587890625</ele>
        <time>2020-08-23T12:58:03.000Z</time>
      </trkpt>
      <trkpt lat="43.31514098681509494781494140625" lon="-1.737979240715503692626953125">
        <ele>57</ele>
        <time>2020-08-23T12:58:05.000Z</time>
      </trkpt>
      <trkpt lat="43.31521994434297084808349609375" lon="-1.7380923964083194732666015625">
        <ele>55.799999237060546875</ele>
        <time>2020-08-23T12:58:07.000Z</time>
      </trkpt>
      <trkpt lat="43.31525598652660846710205078125" lon="-1.7381537519395351409912109375">
        <ele>55.40000152587890625</ele>
        <time>2020-08-23T12:58:08.000Z</time>
      </trkpt>
      <trkpt lat="43.3153338544070720672607421875" lon="-1.7382871918380260467529296875">
        <ele>54.40000152587890625</ele>
        <time>2020-08-23T12:58:10.000Z</time>
      </trkpt>
      <trkpt lat="43.31537568010389804840087890625" lon="-1.73834796063601970672607421875">
        <ele>53.200000762939453125</ele>
        <time>2020-08-23T12:58:11.000Z</time>
      </trkpt>
      <trkpt lat="43.31541021354496479034423828125" lon="-1.7384107410907745361328125">
        <ele>52.40000152587890625</ele>
        <time>2020-08-23T12:58:12.000Z</time>
      </trkpt>
      <trkpt lat="43.31544063985347747802734375" lon="-1.73848575912415981292724609375">
        <ele>51.799999237060546875</ele>
        <time>2020-08-23T12:58:13.000Z</time>
      </trkpt>
      <trkpt lat="43.31549503840506076812744140625" lon="-1.7386298440396785736083984375">
        <ele>50.59999847412109375</ele>
        <time>2020-08-23T12:58:15.000Z</time>
      </trkpt>
      <trkpt lat="43.31557868979871273040771484375" lon="-1.73883981071412563323974609375">
        <ele>49</ele>
        <time>2020-08-23T12:58:18.000Z</time>
      </trkpt>
      <trkpt lat="43.3156097866594791412353515625" lon="-1.73891306854784488677978515625">
        <ele>47.799999237060546875</ele>
        <time>2020-08-23T12:58:19.000Z</time>
      </trkpt>
      <trkpt lat="43.3156443201005458831787109375" lon="-1.738983057439327239990234375">
        <ele>47</ele>
        <time>2020-08-23T12:58:20.000Z</time>
      </trkpt>
      <trkpt lat="43.315676338970661163330078125" lon="-1.73905421979725360870361328125">
        <ele>46.59999847412109375</ele>
        <time>2020-08-23T12:58:21.000Z</time>
      </trkpt>
      <trkpt lat="43.31574012525379657745361328125" lon="-1.73919604159891605377197265625">
        <ele>45</ele>
        <time>2020-08-23T12:58:23.000Z</time>
      </trkpt>
      <trkpt lat="43.31577734090387821197509765625" lon="-1.739255301654338836669921875">
        <ele>44.200000762939453125</ele>
        <time>2020-08-23T12:58:24.000Z</time>
      </trkpt>
      <trkpt lat="43.31581438891589641571044921875" lon="-1.73933400772511959075927734375">
        <ele>43.40000152587890625</ele>
        <time>2020-08-23T12:58:25.000Z</time>
      </trkpt>
      <trkpt lat="43.31588546745479106903076171875" lon="-1.7394807748496532440185546875">
        <ele>42.40000152587890625</ele>
        <time>2020-08-23T12:58:27.000Z</time>
      </trkpt>
      <trkpt lat="43.31591673195362091064453125" lon="-1.73955311067402362823486328125">
        <ele>41.799999237060546875</ele>
        <time>2020-08-23T12:58:28.000Z</time>
      </trkpt>
      <trkpt lat="43.315955959260463714599609375" lon="-1.73961966298520565032958984375">
        <ele>41.40000152587890625</ele>
        <time>2020-08-23T12:58:29.000Z</time>
      </trkpt>
      <trkpt lat="43.3160272054374217987060546875" lon="-1.73975980840623378753662109375">
        <ele>39.40000152587890625</ele>
        <time>2020-08-23T12:58:31.000Z</time>
      </trkpt>
      <trkpt lat="43.316061235964298248291015625" lon="-1.739826612174510955810546875">
        <ele>38.40000152587890625</ele>
        <time>2020-08-23T12:58:32.000Z</time>
      </trkpt>
      <trkpt lat="43.31610255874693393707275390625" lon="-1.7398720420897006988525390625">
        <ele>37.59999847412109375</ele>
        <time>2020-08-23T12:58:33.000Z</time>
      </trkpt>
      <trkpt lat="43.31614580936729907989501953125" lon="-1.73991269432008266448974609375">
        <ele>36.40000152587890625</ele>
        <time>2020-08-23T12:58:34.000Z</time>
      </trkpt>
      <trkpt lat="43.3161948435008525848388671875" lon="-1.7399454675614833831787109375">
        <ele>35.40000152587890625</ele>
        <time>2020-08-23T12:58:35.000Z</time>
      </trkpt>
      <trkpt lat="43.3162486553192138671875" lon="-1.7399749718606472015380859375">
        <ele>35.200000762939453125</ele>
        <time>2020-08-23T12:58:36.000Z</time>
      </trkpt>
      <trkpt lat="43.3164109289646148681640625" lon="-1.74008913338184356689453125">
        <ele>33.40000152587890625</ele>
        <time>2020-08-23T12:58:39.000Z</time>
      </trkpt>
      <trkpt lat="43.31652902998030185699462890625" lon="-1.74017169512808322906494140625">
        <ele>32</ele>
        <time>2020-08-23T12:58:41.000Z</time>
      </trkpt>
      <trkpt lat="43.3165797404944896697998046875" lon="-1.74020790494978427886962890625">
        <ele>31</ele>
        <time>2020-08-23T12:58:42.000Z</time>
      </trkpt>
      <trkpt lat="43.31662056036293506622314453125" lon="-1.74025031737983226776123046875">
        <ele>29.799999237060546875</ele>
        <time>2020-08-23T12:58:43.000Z</time>
      </trkpt>
      <trkpt lat="43.3167027868330478668212890625" lon="-1.7403258383274078369140625">
        <ele>28.799999237060546875</ele>
        <time>2020-08-23T12:58:45.000Z</time>
      </trkpt>
      <trkpt lat="43.316745869815349578857421875" lon="-1.7403511516749858856201171875">
        <ele>28.200000762939453125</ele>
        <time>2020-08-23T12:58:46.000Z</time>
      </trkpt>
      <trkpt lat="43.316792137920856475830078125" lon="-1.740377806127071380615234375">
        <ele>27.799999237060546875</ele>
        <time>2020-08-23T12:58:47.000Z</time>
      </trkpt>
      <trkpt lat="43.3168389089405536651611328125" lon="-1.74040429294109344482421875">
        <ele>27.200000762939453125</ele>
        <time>2020-08-23T12:58:48.000Z</time>
      </trkpt>
      <trkpt lat="43.31694267690181732177734375" lon="-1.7404356412589550018310546875">
        <ele>26.200000762939453125</ele>
        <time>2020-08-23T12:58:50.000Z</time>
      </trkpt>
      <trkpt lat="43.317038901150226593017578125" lon="-1.74046573229134082794189453125">
        <ele>25</ele>
        <time>2020-08-23T12:58:52.000Z</time>
      </trkpt>
      <trkpt lat="43.317128755152225494384765625" lon="-1.74048417247831821441650390625">
        <ele>25</ele>
        <time>2020-08-23T12:58:54.000Z</time>
      </trkpt>
      <trkpt lat="43.317212574183940887451171875" lon="-1.74048048444092273712158203125">
        <ele>24.799999237060546875</ele>
        <time>2020-08-23T12:58:56.000Z</time>
      </trkpt>
      <trkpt lat="43.31733830273151397705078125" lon="-1.74048165790736675262451171875">
        <ele>25.200000762939453125</ele>
        <time>2020-08-23T12:59:00.000Z</time>
      </trkpt>
      <trkpt lat="43.3174516260623931884765625" lon="-1.7405026964843273162841796875">
        <ele>26</ele>
        <time>2020-08-23T12:59:05.000Z</time>
      </trkpt>
      <trkpt lat="43.3174762688577175140380859375" lon="-1.74050596542656421661376953125">
        <ele>26.200000762939453125</ele>
        <time>2020-08-23T12:59:06.000Z</time>
      </trkpt>
      <trkpt lat="43.3175386302173137664794921875" lon="-1.7405090667307376861572265625">
        <ele>26.6000003814697265625</ele>
        <time>2020-08-23T12:59:09.000Z</time>
      </trkpt>
      <trkpt lat="43.31763091497123241424560546875" lon="-1.74049892462790012359619140625">
        <ele>26.3999996185302734375</ele>
        <time>2020-08-23T12:59:13.000Z</time>
      </trkpt>
      <trkpt lat="43.31778480671346187591552734375" lon="-1.74047579057514667510986328125">
        <ele>25.799999237060546875</ele>
        <time>2020-08-23T12:59:18.000Z</time>
      </trkpt>
      <trkpt lat="43.31792830489575862884521484375" lon="-1.74040504731237888336181640625">
        <ele>26.799999237060546875</ele>
        <time>2020-08-23T12:59:24.000Z</time>
      </trkpt>
      <trkpt lat="43.3179768361151218414306640625" lon="-1.740337908267974853515625">
        <ele>27.6000003814697265625</ele>
        <time>2020-08-23T12:59:27.000Z</time>
      </trkpt>
      <trkpt lat="43.31801597960293292999267578125" lon="-1.740269176661968231201171875">
        <ele>28.3999996185302734375</ele>
        <time>2020-08-23T12:59:30.000Z</time>
      </trkpt>
      <trkpt lat="43.3180613256990909576416015625" lon="-1.74021343700587749481201171875">
        <ele>28.799999237060546875</ele>
        <time>2020-08-23T12:59:33.000Z</time>
      </trkpt>
      <trkpt lat="43.3180940151214599609375" lon="-1.74015618860721588134765625">
        <ele>29.200000762939453125</ele>
        <time>2020-08-23T12:59:36.000Z</time>
      </trkpt>
      <trkpt lat="43.31814229488372802734375" lon="-1.74005954526364803314208984375">
        <ele>30</ele>
        <time>2020-08-23T12:59:41.000Z</time>
      </trkpt>
      <trkpt lat="43.3181650936603546142578125" lon="-1.739998944103717803955078125">
        <ele>30.799999237060546875</ele>
        <time>2020-08-23T12:59:44.000Z</time>
      </trkpt>
      <trkpt lat="43.31817205063998699188232421875" lon="-1.73997924663126468658447265625">
        <ele>31.200000762939453125</ele>
        <time>2020-08-23T12:59:45.000Z</time>
      </trkpt>
      <trkpt lat="43.3182098530232906341552734375" lon="-1.73984798602759838104248046875">
        <ele>32.59999847412109375</ele>
        <time>2020-08-23T12:59:51.000Z</time>
      </trkpt>
      <trkpt lat="43.318241871893405914306640625" lon="-1.7396728880703449249267578125">
        <ele>33.200000762939453125</ele>
        <time>2020-08-23T12:59:58.000Z</time>
      </trkpt>
      <trkpt lat="43.3183179795742034912109375" lon="-1.73947758972644805908203125">
        <ele>33</ele>
        <time>2020-08-23T13:00:05.000Z</time>
      </trkpt>
      <trkpt lat="43.3184388466179370880126953125" lon="-1.73921406269073486328125">
        <ele>32.799999237060546875</ele>
        <time>2020-08-23T13:00:12.000Z</time>
      </trkpt>
      <trkpt lat="43.31853859126567840576171875" lon="-1.738978363573551177978515625">
        <ele>32.799999237060546875</ele>
        <time>2020-08-23T13:00:19.000Z</time>
      </trkpt>
      <trkpt lat="43.31855275668203830718994140625" lon="-1.73877677880227565765380859375">
        <ele>33</ele>
        <time>2020-08-23T13:00:24.000Z</time>
      </trkpt>
      <trkpt lat="43.31854236312210559844970703125" lon="-1.7387183569371700286865234375">
        <ele>32.59999847412109375</ele>
        <time>2020-08-23T13:00:25.000Z</time>
      </trkpt>
      <trkpt lat="43.318500705063343048095703125" lon="-1.7385135032236576080322265625">
        <ele>30.799999237060546875</ele>
        <time>2020-08-23T13:00:28.000Z</time>
      </trkpt>
      <trkpt lat="43.3184693567454814910888671875" lon="-1.73836673609912395477294921875">
        <ele>29.200000762939453125</ele>
        <time>2020-08-23T13:00:30.000Z</time>
      </trkpt>
      <trkpt lat="43.318461142480373382568359375" lon="-1.7382989265024662017822265625">
        <ele>28.200000762939453125</ele>
        <time>2020-08-23T13:00:31.000Z</time>
      </trkpt>
      <trkpt lat="43.318461813032627105712890625" lon="-1.73823975026607513427734375">
        <ele>27.3999996185302734375</ele>
        <time>2020-08-23T13:00:32.000Z</time>
      </trkpt>
      <trkpt lat="43.3185065723955631256103515625" lon="-1.73813514411449432373046875">
        <ele>26.200000762939453125</ele>
        <time>2020-08-23T13:00:34.000Z</time>
      </trkpt>
      <trkpt lat="43.31854957155883312225341796875" lon="-1.7381058074533939361572265625">
        <ele>25.6000003814697265625</ele>
        <time>2020-08-23T13:00:35.000Z</time>
      </trkpt>
      <trkpt lat="43.31859684549272060394287109375" lon="-1.7381098307669162750244140625">
        <ele>25.200000762939453125</ele>
        <time>2020-08-23T13:00:36.000Z</time>
      </trkpt>
      <trkpt lat="43.31868074834346771240234375" lon="-1.7381705157458782196044921875">
        <ele>24.6000003814697265625</ele>
        <time>2020-08-23T13:00:38.000Z</time>
      </trkpt>
      <trkpt lat="43.3187499828636646270751953125" lon="-1.73824754543602466583251953125">
        <ele>24.3999996185302734375</ele>
        <time>2020-08-23T13:00:40.000Z</time>
      </trkpt>
      <trkpt lat="43.31883790902793407440185546875" lon="-1.73833387903869152069091796875">
        <ele>24.3999996185302734375</ele>
        <time>2020-08-23T13:00:43.000Z</time>
      </trkpt>
      <trkpt lat="43.3189876936376094818115234375" lon="-1.7383911274373531341552734375">
        <ele>24.3999996185302734375</ele>
        <time>2020-08-23T13:00:48.000Z</time>
      </trkpt>
      <trkpt lat="43.3190929703414440155029296875" lon="-1.73838919959962368011474609375">
        <ele>25.6000003814697265625</ele>
        <time>2020-08-23T13:00:53.000Z</time>
      </trkpt>
      <trkpt lat="43.31922884099185466766357421875" lon="-1.73834108747541904449462890625">
        <ele>25.799999237060546875</ele>
        <time>2020-08-23T13:01:00.000Z</time>
      </trkpt>
      <trkpt lat="43.3192673139274120330810546875" lon="-1.73833086155354976654052734375">
        <ele>26.3999996185302734375</ele>
        <time>2020-08-23T13:01:02.000Z</time>
      </trkpt>
      <trkpt lat="43.31933596171438694000244140625" lon="-1.7382932268083095550537109375">
        <ele>27.6000003814697265625</ele>
        <time>2020-08-23T13:01:06.000Z</time>
      </trkpt>
      <trkpt lat="43.319399245083332061767578125" lon="-1.73826229758560657501220703125">
        <ele>28.6000003814697265625</ele>
        <time>2020-08-23T13:01:10.000Z</time>
      </trkpt>
      <trkpt lat="43.3194151706993579864501953125" lon="-1.73825089819729328155517578125">
        <ele>29</ele>
        <time>2020-08-23T13:01:11.000Z</time>
      </trkpt>
      <trkpt lat="43.3194342814385890960693359375" lon="-1.73823664896190166473388671875">
        <ele>30</ele>
        <time>2020-08-23T13:01:13.000Z</time>
      </trkpt>
      <trkpt lat="43.31945749931037425994873046875" lon="-1.73822776414453983306884765625">
        <ele>30.799999237060546875</ele>
        <time>2020-08-23T13:01:15.000Z</time>
      </trkpt>
      <trkpt lat="43.3194728381931781768798828125" lon="-1.73822005279362201690673828125">
        <ele>31.200000762939453125</ele>
        <time>2020-08-23T13:01:16.000Z</time>
      </trkpt>
      <trkpt lat="43.31954534165561199188232421875" lon="-1.7381854355335235595703125">
        <ele>32</ele>
        <time>2020-08-23T13:01:21.000Z</time>
      </trkpt>
      <trkpt lat="43.3195630274713039398193359375" lon="-1.73817780800163745880126953125">
        <ele>32.200000762939453125</ele>
        <time>2020-08-23T13:01:22.000Z</time>
      </trkpt>
      <trkpt lat="43.319646678864955902099609375" lon="-1.7381453700363636016845703125">
        <ele>33</ele>
        <time>2020-08-23T13:01:27.000Z</time>
      </trkpt>
      <trkpt lat="43.31974164582788944244384765625" lon="-1.7381291091442108154296875">
        <ele>32.799999237060546875</ele>
        <time>2020-08-23T13:01:32.000Z</time>
      </trkpt>
      <trkpt lat="43.319900147616863250732421875" lon="-1.7381205596029758453369140625">
        <ele>32.40000152587890625</ele>
        <time>2020-08-23T13:01:36.000Z</time>
      </trkpt>
      <trkpt lat="43.31995069049298763275146484375" lon="-1.73811712302267551422119140625">
        <ele>31.799999237060546875</ele>
        <time>2020-08-23T13:01:37.000Z</time>
      </trkpt>
      <trkpt lat="43.3200045861303806304931640625" lon="-1.73810639418661594390869140625">
        <ele>31.3999996185302734375</ele>
        <time>2020-08-23T13:01:38.000Z</time>
      </trkpt>
      <trkpt lat="43.32005814649164676666259765625" lon="-1.73808594234287738800048828125">
        <ele>30.799999237060546875</ele>
        <time>2020-08-23T13:01:39.000Z</time>
      </trkpt>
      <trkpt lat="43.3201526105403900146484375" lon="-1.7380213178694248199462890625">
        <ele>30.6000003814697265625</ele>
        <time>2020-08-23T13:01:41.000Z</time>
      </trkpt>
      <trkpt lat="43.32019485533237457275390625" lon="-1.73799357376992702484130859375">
        <ele>30.6000003814697265625</ele>
        <time>2020-08-23T13:01:42.000Z</time>
      </trkpt>
      <trkpt lat="43.32032234407961368560791015625" lon="-1.73789550550282001495361328125">
        <ele>30.6000003814697265625</ele>
        <time>2020-08-23T13:01:46.000Z</time>
      </trkpt>
      <trkpt lat="43.32045595161616802215576171875" lon="-1.73779048025608062744140625">
        <ele>32</ele>
        <time>2020-08-23T13:01:52.000Z</time>
      </trkpt>
      <trkpt lat="43.32049392163753509521484375" lon="-1.73776692710816860198974609375">
        <ele>32.799999237060546875</ele>
        <time>2020-08-23T13:01:54.000Z</time>
      </trkpt>
      <trkpt lat="43.3205125294625759124755859375" lon="-1.73775494098663330078125">
        <ele>33.200000762939453125</ele>
        <time>2020-08-23T13:01:55.000Z</time>
      </trkpt>
      <trkpt lat="43.3205809257924556732177734375" lon="-1.73772971145808696746826171875">
        <ele>34.40000152587890625</ele>
        <time>2020-08-23T13:01:59.000Z</time>
      </trkpt>
      <trkpt lat="43.3205943368375301361083984375" lon="-1.73771948553621768951416015625">
        <ele>34.40000152587890625</ele>
        <time>2020-08-23T13:02:00.000Z</time>
      </trkpt>
      <trkpt lat="43.32064337097108364105224609375" lon="-1.737696267664432525634765625">
        <ele>35.40000152587890625</ele>
        <time>2020-08-23T13:02:03.000Z</time>
      </trkpt>
      <trkpt lat="43.3206903934478759765625" lon="-1.737694256007671356201171875">
        <ele>36.200000762939453125</ele>
        <time>2020-08-23T13:02:06.000Z</time>
      </trkpt>
      <trkpt lat="43.32070573233067989349365234375" lon="-1.737689562141895294189453125">
        <ele>36.40000152587890625</ele>
        <time>2020-08-23T13:02:07.000Z</time>
      </trkpt>
      <trkpt lat="43.320800699293613433837890625" lon="-1.7376632429659366607666015625">
        <ele>37.59999847412109375</ele>
        <time>2020-08-23T13:02:13.000Z</time>
      </trkpt>
      <trkpt lat="43.32087940536439418792724609375" lon="-1.73763281665742397308349609375">
        <ele>38.59999847412109375</ele>
        <time>2020-08-23T13:02:19.000Z</time>
      </trkpt>
      <trkpt lat="43.320954926311969757080078125" lon="-1.73761052079498767852783203125">
        <ele>38.799999237060546875</ele>
        <time>2020-08-23T13:02:25.000Z</time>
      </trkpt>
      <trkpt lat="43.32106246612966060638427734375" lon="-1.7375623248517513275146484375">
        <ele>38.59999847412109375</ele>
        <time>2020-08-23T13:02:29.000Z</time>
      </trkpt>
      <trkpt lat="43.3211951516568660736083984375" lon="-1.73750608228147029876708984375">
        <ele>37.59999847412109375</ele>
        <time>2020-08-23T13:02:32.000Z</time>
      </trkpt>
      <trkpt lat="43.32124502398073673248291015625" lon="-1.73748672008514404296875">
        <ele>37.40000152587890625</ele>
        <time>2020-08-23T13:02:33.000Z</time>
      </trkpt>
      <trkpt lat="43.32140319049358367919921875" lon="-1.737413965165615081787109375">
        <ele>36.40000152587890625</ele>
        <time>2020-08-23T13:02:36.000Z</time>
      </trkpt>
      <trkpt lat="43.32146412692964076995849609375" lon="-1.737374402582645416259765625">
        <ele>35.40000152587890625</ele>
        <time>2020-08-23T13:02:37.000Z</time>
      </trkpt>
      <trkpt lat="43.321518860757350921630859375" lon="-1.737339533865451812744140625">
        <ele>34.59999847412109375</ele>
        <time>2020-08-23T13:02:38.000Z</time>
      </trkpt>
      <trkpt lat="43.32157443277537822723388671875" lon="-1.73731162212789058685302734375">
        <ele>34</ele>
        <time>2020-08-23T13:02:39.000Z</time>
      </trkpt>
      <trkpt lat="43.32168574444949626922607421875" lon="-1.7372770048677921295166015625">
        <ele>33.40000152587890625</ele>
        <time>2020-08-23T13:02:41.000Z</time>
      </trkpt>
      <trkpt lat="43.32187802530825138092041015625" lon="-1.737226545810699462890625">
        <ele>33.799999237060546875</ele>
        <time>2020-08-23T13:02:46.000Z</time>
      </trkpt>
      <trkpt lat="43.32199553959071636199951171875" lon="-1.7372112907469272613525390625">
        <ele>34</ele>
        <time>2020-08-23T13:02:52.000Z</time>
      </trkpt>
      <trkpt lat="43.3221443183720111846923828125" lon="-1.73715605400502681732177734375">
        <ele>32.799999237060546875</ele>
        <time>2020-08-23T13:02:57.000Z</time>
      </trkpt>
      <trkpt lat="43.32220877520740032196044921875" lon="-1.73712705262005329132080078125">
        <ele>32.40000152587890625</ele>
        <time>2020-08-23T13:02:59.000Z</time>
      </trkpt>
      <trkpt lat="43.32222939468920230865478515625" lon="-1.737101487815380096435546875">
        <ele>31.799999237060546875</ele>
        <time>2020-08-23T13:03:00.000Z</time>
      </trkpt>
      <trkpt lat="43.32224272191524505615234375" lon="-1.7370721511542797088623046875">
        <ele>31.3999996185302734375</ele>
        <time>2020-08-23T13:03:01.000Z</time>
      </trkpt>
      <trkpt lat="43.32224682904779911041259765625" lon="-1.7370426468551158905029296875">
        <ele>31.200000762939453125</ele>
        <time>2020-08-23T13:03:02.000Z</time>
      </trkpt>
      <trkpt lat="43.32222553901374340057373046875" lon="-1.7369829677045345306396484375">
        <ele>30.200000762939453125</ele>
        <time>2020-08-23T13:03:04.000Z</time>
      </trkpt>
      <trkpt lat="43.32221078686416149139404296875" lon="-1.73694399185478687286376953125">
        <ele>29.799999237060546875</ele>
        <time>2020-08-23T13:03:05.000Z</time>
      </trkpt>
      <trkpt lat="43.32219502888619899749755859375" lon="-1.7368957959115505218505859375">
        <ele>29.3999996185302734375</ele>
        <time>2020-08-23T13:03:06.000Z</time>
      </trkpt>
      <trkpt lat="43.32217633724212646484375" lon="-1.73684902489185333251953125">
        <ele>28.6000003814697265625</ele>
        <time>2020-08-23T13:03:07.000Z</time>
      </trkpt>
      <trkpt lat="43.3221510238945484161376953125" lon="-1.73675623722374439239501953125">
        <ele>27</ele>
        <time>2020-08-23T13:03:09.000Z</time>
      </trkpt>
      <trkpt lat="43.32215328700840473175048828125" lon="-1.7367130704224109649658203125">
        <ele>26.200000762939453125</ele>
        <time>2020-08-23T13:03:10.000Z</time>
      </trkpt>
      <trkpt lat="43.32217030227184295654296875" lon="-1.73667074181139469146728515625">
        <ele>25.6000003814697265625</ele>
        <time>2020-08-23T13:03:11.000Z</time>
      </trkpt>
      <trkpt lat="43.32219846546649932861328125" lon="-1.736630760133266448974609375">
        <ele>25.200000762939453125</ele>
        <time>2020-08-23T13:03:12.000Z</time>
      </trkpt>
      <trkpt lat="43.32223056815564632415771484375" lon="-1.73659019172191619873046875">
        <ele>24.6000003814697265625</ele>
        <time>2020-08-23T13:03:13.000Z</time>
      </trkpt>
      <trkpt lat="43.3222613297402858734130859375" lon="-1.7365461029112339019775390625">
        <ele>24.200000762939453125</ele>
        <time>2020-08-23T13:03:14.000Z</time>
      </trkpt>
      <trkpt lat="43.3223290555179119110107421875" lon="-1.7363905347883701324462890625">
        <ele>23.3999996185302734375</ele>
        <time>2020-08-23T13:03:17.000Z</time>
      </trkpt>
      <trkpt lat="43.32242502830922603607177734375" lon="-1.73630411736667156219482421875">
        <ele>22.799999237060546875</ele>
        <time>2020-08-23T13:03:20.000Z</time>
      </trkpt>
      <trkpt lat="43.3225308917462825775146484375" lon="-1.73633563332259654998779296875">
        <ele>22.3999996185302734375</ele>
        <time>2020-08-23T13:03:23.000Z</time>
      </trkpt>
      <trkpt lat="43.3225597254931926727294921875" lon="-1.73634854145348072052001953125">
        <ele>22.3999996185302734375</ele>
        <time>2020-08-23T13:03:24.000Z</time>
      </trkpt>
      <trkpt lat="43.32271571271121501922607421875" lon="-1.73636832274496555328369140625">
        <ele>22.799999237060546875</ele>
        <time>2020-08-23T13:03:30.000Z</time>
      </trkpt>
      <trkpt lat="43.32285619340837001800537109375" lon="-1.73627863638103008270263671875">
        <ele>22.200000762939453125</ele>
        <time>2020-08-23T13:03:34.000Z</time>
      </trkpt>
      <trkpt lat="43.32291821949183940887451171875" lon="-1.73621292226016521453857421875">
        <ele>22.200000762939453125</ele>
        <time>2020-08-23T13:03:36.000Z</time>
      </trkpt>
      <trkpt lat="43.32298913039267063140869140625" lon="-1.73611233942210674285888671875">
        <ele>21.799999237060546875</ele>
        <time>2020-08-23T13:03:39.000Z</time>
      </trkpt>
      <trkpt lat="43.32309491001069545745849609375" lon="-1.73594168387353420257568359375">
        <ele>23</ele>
        <time>2020-08-23T13:03:45.000Z</time>
      </trkpt>
      <trkpt lat="43.32310966216027736663818359375" lon="-1.7359127663075923919677734375">
        <ele>23.200000762939453125</ele>
        <time>2020-08-23T13:03:46.000Z</time>
      </trkpt>
      <trkpt lat="43.32316347397863864898681640625" lon="-1.73580229282379150390625">
        <ele>24.3999996185302734375</ele>
        <time>2020-08-23T13:03:50.000Z</time>
      </trkpt>
      <trkpt lat="43.32318459637463092803955078125" lon="-1.73575174994766712188720703125">
        <ele>25</ele>
        <time>2020-08-23T13:03:52.000Z</time>
      </trkpt>
      <trkpt lat="43.32319557666778564453125" lon="-1.7357270233333110809326171875">
        <ele>25.6000003814697265625</ele>
        <time>2020-08-23T13:03:53.000Z</time>
      </trkpt>
      <trkpt lat="43.32323790527880191802978515625" lon="-1.73566273413598537445068359375">
        <ele>26.799999237060546875</ele>
        <time>2020-08-23T13:03:56.000Z</time>
      </trkpt>
      <trkpt lat="43.3232631348073482513427734375" lon="-1.73562501557171344757080078125">
        <ele>27.6000003814697265625</ele>
        <time>2020-08-23T13:03:58.000Z</time>
      </trkpt>
      <trkpt lat="43.3232755400240421295166015625" lon="-1.73560724593698978424072265625">
        <ele>27.799999237060546875</ele>
        <time>2020-08-23T13:03:59.000Z</time>
      </trkpt>
      <trkpt lat="43.32330848090350627899169921875" lon="-1.7355634085834026336669921875">
        <ele>29.200000762939453125</ele>
        <time>2020-08-23T13:04:02.000Z</time>
      </trkpt>
      <trkpt lat="43.32332826219499111175537109375" lon="-1.73553113825619220733642578125">
        <ele>30.200000762939453125</ele>
        <time>2020-08-23T13:04:04.000Z</time>
      </trkpt>
      <trkpt lat="43.3233952336013317108154296875" lon="-1.73544698394834995269775390625">
        <ele>31.3999996185302734375</ele>
        <time>2020-08-23T13:04:11.000Z</time>
      </trkpt>
      <trkpt lat="43.32347628660500049591064453125" lon="-1.735375486314296722412109375">
        <ele>32</ele>
        <time>2020-08-23T13:04:18.000Z</time>
      </trkpt>
      <trkpt lat="43.32353244535624980926513671875" lon="-1.7352859675884246826171875">
        <ele>32.40000152587890625</ele>
        <time>2020-08-23T13:04:23.000Z</time>
      </trkpt>
      <trkpt lat="43.32363369874656200408935546875" lon="-1.735132075846195220947265625">
        <ele>33.59999847412109375</ele>
        <time>2020-08-23T13:04:31.000Z</time>
      </trkpt>
      <trkpt lat="43.32371525466442108154296875" lon="-1.7350561358034610748291015625">
        <ele>34.799999237060546875</ele>
        <time>2020-08-23T13:04:36.000Z</time>
      </trkpt>
      <trkpt lat="43.323729671537876129150390625" lon="-1.73504079692065715789794921875">
        <ele>35</ele>
        <time>2020-08-23T13:04:37.000Z</time>
      </trkpt>
      <trkpt lat="43.32375775091350078582763671875" lon="-1.73500492237508296966552734375">
        <ele>35.799999237060546875</ele>
        <time>2020-08-23T13:04:39.000Z</time>
      </trkpt>
      <trkpt lat="43.323775269091129302978515625" lon="-1.73499050550162792205810546875">
        <ele>36</ele>
        <time>2020-08-23T13:04:40.000Z</time>
      </trkpt>
      <trkpt lat="43.323809802532196044921875" lon="-1.73496737144887447357177734375">
        <ele>36.59999847412109375</ele>
        <time>2020-08-23T13:04:42.000Z</time>
      </trkpt>
      <trkpt lat="43.32382380031049251556396484375" lon="-1.73495538532733917236328125">
        <ele>37</ele>
        <time>2020-08-23T13:04:43.000Z</time>
      </trkpt>
      <trkpt lat="43.32388834096491336822509765625" lon="-1.734919510781764984130859375">
        <ele>38</ele>
        <time>2020-08-23T13:04:47.000Z</time>
      </trkpt>
      <trkpt lat="43.323905356228351593017578125" lon="-1.734916158020496368408203125">
        <ele>38.200000762939453125</ele>
        <time>2020-08-23T13:04:48.000Z</time>
      </trkpt>
      <trkpt lat="43.32392103038728237152099609375" lon="-1.73491515219211578369140625">
        <ele>38.200000762939453125</ele>
        <time>2020-08-23T13:04:49.000Z</time>
      </trkpt>
      <trkpt lat="43.323949277400970458984375" lon="-1.734919510781764984130859375">
        <ele>38.799999237060546875</ele>
        <time>2020-08-23T13:04:51.000Z</time>
      </trkpt>
      <trkpt lat="43.3239598385989665985107421875" lon="-1.73492914997041225433349609375">
        <ele>38.799999237060546875</ele>
        <time>2020-08-23T13:04:52.000Z</time>
      </trkpt>
      <trkpt lat="43.32396713085472583770751953125" lon="-1.73494256101548671722412109375">
        <ele>39</ele>
        <time>2020-08-23T13:04:53.000Z</time>
      </trkpt>
      <trkpt lat="43.32394148223102092742919921875" lon="-1.73504121601581573486328125">
        <ele>40</ele>
        <time>2020-08-23T13:04:58.000Z</time>
      </trkpt>
      <trkpt lat="43.32389035262167453765869140625" lon="-1.73510030843317508697509765625">
        <ele>41</ele>
        <time>2020-08-23T13:05:03.000Z</time>
      </trkpt>
      <trkpt lat="43.323882557451725006103515625" lon="-1.73511405475437641143798828125">
        <ele>41.200000762939453125</ele>
        <time>2020-08-23T13:05:04.000Z</time>
      </trkpt>
      <trkpt lat="43.32382665015757083892822265625" lon="-1.73518647439777851104736328125">
        <ele>41.200000762939453125</ele>
        <time>2020-08-23T13:05:08.000Z</time>
      </trkpt>
      <trkpt lat="43.323730342090129852294921875" lon="-1.73531941138207912445068359375">
        <ele>41</ele>
        <time>2020-08-23T13:05:14.000Z</time>
      </trkpt>
      <trkpt lat="43.3236483670771121978759765625" lon="-1.7355030588805675506591796875">
        <ele>40.799999237060546875</ele>
        <time>2020-08-23T13:05:21.000Z</time>
      </trkpt>
      <trkpt lat="43.3236436732113361358642578125" lon="-1.73556558787822723388671875">
        <ele>41</ele>
        <time>2020-08-23T13:05:23.000Z</time>
      </trkpt>
      <trkpt lat="43.32366823218762874603271484375" lon="-1.73564597032964229583740234375">
        <ele>41.40000152587890625</ele>
        <time>2020-08-23T13:05:26.000Z</time>
      </trkpt>
      <trkpt lat="43.32371433265507221221923828125" lon="-1.735701374709606170654296875">
        <ele>42.200000762939453125</ele>
        <time>2020-08-23T13:05:29.000Z</time>
      </trkpt>
      <trkpt lat="43.323763869702816009521484375" lon="-1.73574370332062244415283203125">
        <ele>42.40000152587890625</ele>
        <time>2020-08-23T13:05:32.000Z</time>
      </trkpt>
      <trkpt lat="43.3238133229315280914306640625" lon="-1.7357794940471649169921875">
        <ele>43.200000762939453125</ele>
        <time>2020-08-23T13:05:35.000Z</time>
      </trkpt>
      <trkpt lat="43.323883898556232452392578125" lon="-1.7358064837753772735595703125">
        <ele>44.200000762939453125</ele>
        <time>2020-08-23T13:05:39.000Z</time>
      </trkpt>
      <trkpt lat="43.32390057854354381561279296875" lon="-1.73581344075500965118408203125">
        <ele>44.59999847412109375</ele>
        <time>2020-08-23T13:05:40.000Z</time>
      </trkpt>
      <trkpt lat="43.32400484941899776458740234375" lon="-1.73584856092929840087890625">
        <ele>45.40000152587890625</ele>
        <time>2020-08-23T13:05:46.000Z</time>
      </trkpt>
      <trkpt lat="43.32405832596123218536376953125" lon="-1.7358624748885631561279296875">
        <ele>45.59999847412109375</ele>
        <time>2020-08-23T13:05:49.000Z</time>
      </trkpt>
      <trkpt lat="43.3242193423211574554443359375" lon="-1.73585769720375537872314453125">
        <ele>45.799999237060546875</ele>
        <time>2020-08-23T13:05:57.000Z</time>
      </trkpt>
      <trkpt lat="43.3243863098323345184326171875" lon="-1.73585182987153530120849609375">
        <ele>45.200000762939453125</ele>
        <time>2020-08-23T13:06:04.000Z</time>
      </trkpt>
      <trkpt lat="43.32457892596721649169921875" lon="-1.73581905663013458251953125">
        <ele>45.200000762939453125</ele>
        <time>2020-08-23T13:06:11.000Z</time>
      </trkpt>
      <trkpt lat="43.32469426095485687255859375" lon="-1.73580053262412548065185546875">
        <ele>45</ele>
        <time>2020-08-23T13:06:16.000Z</time>
      </trkpt>
      <trkpt lat="43.3248102664947509765625" lon="-1.7357618920505046844482421875">
        <ele>45</ele>
        <time>2020-08-23T13:06:21.000Z</time>
      </trkpt>
      <trkpt lat="43.32492819987237453460693359375" lon="-1.73574236221611499786376953125">
        <ele>45.40000152587890625</ele>
        <time>2020-08-23T13:06:26.000Z</time>
      </trkpt>
      <trkpt lat="43.3250427804887294769287109375" lon="-1.73572492785751819610595703125">
        <ele>45.59999847412109375</ele>
        <time>2020-08-23T13:06:31.000Z</time>
      </trkpt>
      <trkpt lat="43.32519449293613433837890625" lon="-1.73570967279374599456787109375">
        <ele>45.40000152587890625</ele>
        <time>2020-08-23T13:06:37.000Z</time>
      </trkpt>
      <trkpt lat="43.325362466275691986083984375" lon="-1.73568360507488250732421875">
        <ele>45.200000762939453125</ele>
        <time>2020-08-23T13:06:43.000Z</time>
      </trkpt>
      <trkpt lat="43.32556623034179210662841796875" lon="-1.7356587946414947509765625">
        <ele>44.799999237060546875</ele>
        <time>2020-08-23T13:06:49.000Z</time>
      </trkpt>
      <trkpt lat="43.325646109879016876220703125" lon="-1.73564563505351543426513671875">
        <ele>44.200000762939453125</ele>
        <time>2020-08-23T13:06:51.000Z</time>
      </trkpt>
      <trkpt lat="43.3258072100579738616943359375" lon="-1.73558704555034637451171875">
        <ele>42.799999237060546875</ele>
        <time>2020-08-23T13:06:55.000Z</time>
      </trkpt>
      <trkpt lat="43.3259041048586368560791015625" lon="-1.7355563677847385406494140625">
        <ele>41.59999847412109375</ele>
        <time>2020-08-23T13:06:57.000Z</time>
      </trkpt>
      <trkpt lat="43.3259587548673152923583984375" lon="-1.73554706387221813201904296875">
        <ele>41</ele>
        <time>2020-08-23T13:06:58.000Z</time>
      </trkpt>
      <trkpt lat="43.32601516507565975189208984375" lon="-1.73554471693933010101318359375">
        <ele>40.40000152587890625</ele>
        <time>2020-08-23T13:06:59.000Z</time>
      </trkpt>
      <trkpt lat="43.32612253725528717041015625" lon="-1.73554689623415470123291015625">
        <ele>39.59999847412109375</ele>
        <time>2020-08-23T13:07:01.000Z</time>
      </trkpt>
      <trkpt lat="43.32628288306295871734619140625" lon="-1.7355409450829029083251953125">
        <ele>37.799999237060546875</ele>
        <time>2020-08-23T13:07:04.000Z</time>
      </trkpt>
      <trkpt lat="43.3263359405100345611572265625" lon="-1.73554102890193462371826171875">
        <ele>37</ele>
        <time>2020-08-23T13:07:05.000Z</time>
      </trkpt>
      <trkpt lat="43.32639670930802822113037109375" lon="-1.735549829900264739990234375">
        <ele>36.200000762939453125</ele>
        <time>2020-08-23T13:07:06.000Z</time>
      </trkpt>
      <trkpt lat="43.32646141760051250457763671875" lon="-1.73557003028690814971923828125">
        <ele>35</ele>
        <time>2020-08-23T13:07:07.000Z</time>
      </trkpt>
      <trkpt lat="43.32652461715042591094970703125" lon="-1.7355966009199619293212890625">
        <ele>33.799999237060546875</ele>
        <time>2020-08-23T13:07:08.000Z</time>
      </trkpt>
      <trkpt lat="43.326588906347751617431640625" lon="-1.73563976772129535675048828125">
        <ele>32.200000762939453125</ele>
        <time>2020-08-23T13:07:09.000Z</time>
      </trkpt>
      <trkpt lat="43.32664632238447666168212890625" lon="-1.73568016849458217620849609375">
        <ele>31</ele>
        <time>2020-08-23T13:07:10.000Z</time>
      </trkpt>
      <trkpt lat="43.32670214585959911346435546875" lon="-1.73572291620075702667236328125">
        <ele>29.799999237060546875</ele>
        <time>2020-08-23T13:07:11.000Z</time>
      </trkpt>
      <trkpt lat="43.32681831903755664825439453125" lon="-1.735799275338649749755859375">
        <ele>28.3999996185302734375</ele>
        <time>2020-08-23T13:07:13.000Z</time>
      </trkpt>
      <trkpt lat="43.326885290443897247314453125" lon="-1.7358329705893993377685546875">
        <ele>27.799999237060546875</ele>
        <time>2020-08-23T13:07:14.000Z</time>
      </trkpt>
      <trkpt lat="43.3269565366208553314208984375" lon="-1.735860295593738555908203125">
        <ele>26.799999237060546875</ele>
        <time>2020-08-23T13:07:15.000Z</time>
      </trkpt>
      <trkpt lat="43.327103219926357269287109375" lon="-1.7358996905386447906494140625">
        <ele>25.200000762939453125</ele>
        <time>2020-08-23T13:07:17.000Z</time>
      </trkpt>
      <trkpt lat="43.32717672921717166900634765625" lon="-1.735906898975372314453125">
        <ele>24.3999996185302734375</ele>
        <time>2020-08-23T13:07:18.000Z</time>
      </trkpt>
      <trkpt lat="43.32724780775606632232666015625" lon="-1.73590949736535549163818359375">
        <ele>23.799999237060546875</ele>
        <time>2020-08-23T13:07:19.000Z</time>
      </trkpt>
      <trkpt lat="43.32756916992366313934326171875" lon="-1.735909916460514068603515625">
        <ele>23</ele>
        <time>2020-08-23T13:07:24.000Z</time>
      </trkpt>
      <trkpt lat="43.327867649495601654052734375" lon="-1.735914610326290130615234375">
        <ele>23.200000762939453125</ele>
        <time>2020-08-23T13:07:30.000Z</time>
      </trkpt>
      <trkpt lat="43.32803889177739620208740234375" lon="-1.7359298653900623321533203125">
        <ele>23.3999996185302734375</ele>
        <time>2020-08-23T13:07:36.000Z</time>
      </trkpt>
      <trkpt lat="43.32822413183748722076416015625" lon="-1.735934726893901824951171875">
        <ele>24.200000762939453125</ele>
        <time>2020-08-23T13:07:43.000Z</time>
      </trkpt>
      <trkpt lat="43.328396379947662353515625" lon="-1.73594201914966106414794921875">
        <ele>24</ele>
        <time>2020-08-23T13:07:49.000Z</time>
      </trkpt>
      <trkpt lat="43.32861254923045635223388671875" lon="-1.73593799583613872528076171875">
        <ele>25</ele>
        <time>2020-08-23T13:07:56.000Z</time>
      </trkpt>
      <trkpt lat="43.3288300596177577972412109375" lon="-1.7359338887035846710205078125">
        <ele>25.200000762939453125</ele>
        <time>2020-08-23T13:08:03.000Z</time>
      </trkpt>
      <trkpt lat="43.3290711231529712677001953125" lon="-1.7359672486782073974609375">
        <ele>26</ele>
        <time>2020-08-23T13:08:11.000Z</time>
      </trkpt>
      <trkpt lat="43.3293457143008708953857421875" lon="-1.73608082346618175506591796875">
        <ele>25.6000003814697265625</ele>
        <time>2020-08-23T13:08:19.000Z</time>
      </trkpt>
      <trkpt lat="43.3295643143355846405029296875" lon="-1.73615056090056896209716796875">
        <ele>25</ele>
        <time>2020-08-23T13:08:24.000Z</time>
      </trkpt>
      <trkpt lat="43.32960605621337890625" lon="-1.73615190200507640838623046875">
        <ele>25</ele>
        <time>2020-08-23T13:08:25.000Z</time>
      </trkpt>
      <trkpt lat="43.329753242433071136474609375" lon="-1.73619280569255352020263671875">
        <ele>24.799999237060546875</ele>
        <time>2020-08-23T13:08:29.000Z</time>
      </trkpt>
      <trkpt lat="43.32978735677897930145263671875" lon="-1.73620956949889659881591796875">
        <ele>24.799999237060546875</ele>
        <time>2020-08-23T13:08:30.000Z</time>
      </trkpt>
      <trkpt lat="43.32982272841036319732666015625" lon="-1.736251898109912872314453125">
        <ele>24.799999237060546875</ele>
        <time>2020-08-23T13:08:31.000Z</time>
      </trkpt>
      <trkpt lat="43.32993621937930583953857421875" lon="-1.73638994805514812469482421875">
        <ele>24.799999237060546875</ele>
        <time>2020-08-23T13:08:34.000Z</time>
      </trkpt>
      <trkpt lat="43.3301223814487457275390625" lon="-1.73657837323844432830810546875">
        <ele>24</ele>
        <time>2020-08-23T13:08:39.000Z</time>
      </trkpt>
      <trkpt lat="43.33016169257462024688720703125" lon="-1.7366218753159046173095703125">
        <ele>24</ele>
        <time>2020-08-23T13:08:40.000Z</time>
      </trkpt>
      <trkpt lat="43.3301949687302112579345703125" lon="-1.73666931688785552978515625">
        <ele>24</ele>
        <time>2020-08-23T13:08:41.000Z</time>
      </trkpt>
      <trkpt lat="43.330262862145900726318359375" lon="-1.73678574152290821075439453125">
        <ele>23.3999996185302734375</ele>
        <time>2020-08-23T13:08:43.000Z</time>
      </trkpt>
      <trkpt lat="43.33028926514089107513427734375" lon="-1.7368582449853420257568359375">
        <ele>23.200000762939453125</ele>
        <time>2020-08-23T13:08:44.000Z</time>
      </trkpt>
      <trkpt lat="43.33031105808913707733154296875" lon="-1.73692882061004638671875">
        <ele>23</ele>
        <time>2020-08-23T13:08:45.000Z</time>
      </trkpt>
      <trkpt lat="43.33035699091851711273193359375" lon="-1.737069301307201385498046875">
        <ele>23</ele>
        <time>2020-08-23T13:08:47.000Z</time>
      </trkpt>
      <trkpt lat="43.33041281439363956451416015625" lon="-1.737183965742588043212890625">
        <ele>23.200000762939453125</ele>
        <time>2020-08-23T13:08:49.000Z</time>
      </trkpt>
      <trkpt lat="43.3304779417812824249267578125" lon="-1.73727440647780895233154296875">
        <ele>23.3999996185302734375</ele>
        <time>2020-08-23T13:08:51.000Z</time>
      </trkpt>
      <trkpt lat="43.33057173527777194976806640625" lon="-1.73737029545009136199951171875">
        <ele>23.3999996185302734375</ele>
        <time>2020-08-23T13:08:54.000Z</time>
      </trkpt>
      <trkpt lat="43.3307656086981296539306640625" lon="-1.7375794239342212677001953125">
        <ele>23.6000003814697265625</ele>
        <time>2020-08-23T13:09:01.000Z</time>
      </trkpt>
      <trkpt lat="43.3309386111795902252197265625" lon="-1.73781202174723148345947265625">
        <ele>23.6000003814697265625</ele>
        <time>2020-08-23T13:09:07.000Z</time>
      </trkpt>
      <trkpt lat="43.331080265343189239501953125" lon="-1.7379923164844512939453125">
        <ele>23</ele>
        <time>2020-08-23T13:09:11.000Z</time>
      </trkpt>
      <trkpt lat="43.3311448059976100921630859375" lon="-1.7381081543862819671630859375">
        <ele>23</ele>
        <time>2020-08-23T13:09:13.000Z</time>
      </trkpt>
      <trkpt lat="43.3313111029565334320068359375" lon="-1.7384276725351810455322265625">
        <ele>22.200000762939453125</ele>
        <time>2020-08-23T13:09:18.000Z</time>
      </trkpt>
      <trkpt lat="43.3313714526593685150146484375" lon="-1.73856220208108425140380859375">
        <ele>21.799999237060546875</ele>
        <time>2020-08-23T13:09:20.000Z</time>
      </trkpt>
      <trkpt lat="43.33151218481361865997314453125" lon="-1.73887501470744609832763671875">
        <ele>20.799999237060546875</ele>
        <time>2020-08-23T13:09:25.000Z</time>
      </trkpt>
      <trkpt lat="43.33155878819525241851806640625" lon="-1.73899286426603794097900390625">
        <ele>20.6000003814697265625</ele>
        <time>2020-08-23T13:09:27.000Z</time>
      </trkpt>
      <trkpt lat="43.3316807448863983154296875" lon="-1.7393728159368038177490234375">
        <ele>21.200000762939453125</ele>
        <time>2020-08-23T13:09:34.000Z</time>
      </trkpt>
      <trkpt lat="43.33174821920692920684814453125" lon="-1.73967397771775722503662109375">
        <ele>21</ele>
        <time>2020-08-23T13:09:40.000Z</time>
      </trkpt>
      <trkpt lat="43.331808485090732574462890625" lon="-1.74011033959686756134033203125">
        <ele>20.799999237060546875</ele>
        <time>2020-08-23T13:09:49.000Z</time>
      </trkpt>
      <trkpt lat="43.33186958916485309600830078125" lon="-1.74044913612306118011474609375">
        <ele>21</ele>
        <time>2020-08-23T13:09:56.000Z</time>
      </trkpt>
      <trkpt lat="43.33194100297987461090087890625" lon="-1.7408396489918231964111328125">
        <ele>21.200000762939453125</ele>
        <time>2020-08-23T13:10:04.000Z</time>
      </trkpt>
      <trkpt lat="43.331943936645984649658203125" lon="-1.7411477677524089813232421875">
        <ele>21</ele>
        <time>2020-08-23T13:10:10.000Z</time>
      </trkpt>
      <trkpt lat="43.33193329162895679473876953125" lon="-1.741485558450222015380859375">
        <ele>22.200000762939453125</ele>
        <time>2020-08-23T13:10:17.000Z</time>
      </trkpt>
      <trkpt lat="43.33193748258054256439208984375" lon="-1.7415762506425380706787109375">
        <ele>22.3999996185302734375</ele>
        <time>2020-08-23T13:10:19.000Z</time>
      </trkpt>
      <trkpt lat="43.33196933381259441375732421875" lon="-1.741727292537689208984375">
        <ele>23.200000762939453125</ele>
        <time>2020-08-23T13:10:23.000Z</time>
      </trkpt>
      <trkpt lat="43.331994228065013885498046875" lon="-1.7418374307453632354736328125">
        <ele>23.799999237060546875</ele>
        <time>2020-08-23T13:10:26.000Z</time>
      </trkpt>
      <trkpt lat="43.33203806541860103607177734375" lon="-1.7420932464301586151123046875">
        <ele>24.3999996185302734375</ele>
        <time>2020-08-23T13:10:32.000Z</time>
      </trkpt>
      <trkpt lat="43.33206153474748134613037109375" lon="-1.742218472063541412353515625">
        <ele>24.3999996185302734375</ele>
        <time>2020-08-23T13:10:35.000Z</time>
      </trkpt>
      <trkpt lat="43.33215155638754367828369140625" lon="-1.7426313646137714385986328125">
        <ele>24.3999996185302734375</ele>
        <time>2020-08-23T13:10:44.000Z</time>
      </trkpt>
      <trkpt lat="43.3322736807167530059814453125" lon="-1.74314576201140880584716796875">
        <ele>24.799999237060546875</ele>
        <time>2020-08-23T13:10:55.000Z</time>
      </trkpt>
      <trkpt lat="43.3323652110993862152099609375" lon="-1.74352646805346012115478515625">
        <ele>24.799999237060546875</ele>
        <time>2020-08-23T13:11:03.000Z</time>
      </trkpt>
      <trkpt lat="43.33244743756949901580810546875" lon="-1.74394891597330570220947265625">
        <ele>25.3999996185302734375</ele>
        <time>2020-08-23T13:11:12.000Z</time>
      </trkpt>
      <trkpt lat="43.33249923773109912872314453125" lon="-1.74421571195125579833984375">
        <ele>25.3999996185302734375</ele>
        <time>2020-08-23T13:11:18.000Z</time>
      </trkpt>
      <trkpt lat="43.3325336873531341552734375" lon="-1.74437354318797588348388671875">
        <ele>25.6000003814697265625</ele>
        <time>2020-08-23T13:11:22.000Z</time>
      </trkpt>
      <trkpt lat="43.3325578272342681884765625" lon="-1.74453196115791797637939453125">
        <ele>25.3999996185302734375</ele>
        <time>2020-08-23T13:11:26.000Z</time>
      </trkpt>
      <trkpt lat="43.33258976228535175323486328125" lon="-1.74481518566608428955078125">
        <ele>25.6000003814697265625</ele>
        <time>2020-08-23T13:11:33.000Z</time>
      </trkpt>
      <trkpt lat="43.3326126448810100555419921875" lon="-1.7451127432286739349365234375">
        <ele>25.6000003814697265625</ele>
        <time>2020-08-23T13:11:40.000Z</time>
      </trkpt>
      <trkpt lat="43.33262932486832141876220703125" lon="-1.74547911621630191802978515625">
        <ele>25.799999237060546875</ele>
        <time>2020-08-23T13:11:49.000Z</time>
      </trkpt>
      <trkpt lat="43.33264575339853763580322265625" lon="-1.7457863129675388336181640625">
        <ele>26.200000762939453125</ele>
        <time>2020-08-23T13:11:56.000Z</time>
      </trkpt>
      <trkpt lat="43.3326689712703227996826171875" lon="-1.746174730360507965087890625">
        <ele>26.6000003814697265625</ele>
        <time>2020-08-23T13:12:05.000Z</time>
      </trkpt>
      <trkpt lat="43.33271565847098827362060546875" lon="-1.74653490073978900909423828125">
        <ele>26.6000003814697265625</ele>
        <time>2020-08-23T13:12:14.000Z</time>
      </trkpt>
      <trkpt lat="43.332746922969818115234375" lon="-1.74670622684061527252197265625">
        <ele>26.799999237060546875</ele>
        <time>2020-08-23T13:12:18.000Z</time>
      </trkpt>
      <trkpt lat="43.33278858102858066558837890625" lon="-1.7468709312379360198974609375">
        <ele>27.200000762939453125</ele>
        <time>2020-08-23T13:12:22.000Z</time>
      </trkpt>
      <trkpt lat="43.33290056325495243072509765625" lon="-1.74729798920452594757080078125">
        <ele>27</ele>
        <time>2020-08-23T13:12:32.000Z</time>
      </trkpt>
      <trkpt lat="43.33302729763090610504150390625" lon="-1.74770819954574108123779296875">
        <ele>27.200000762939453125</ele>
        <time>2020-08-23T13:12:42.000Z</time>
      </trkpt>
      <trkpt lat="43.3331762440502643585205078125" lon="-1.74808211624622344970703125">
        <ele>27.200000762939453125</ele>
        <time>2020-08-23T13:12:51.000Z</time>
      </trkpt>
      <trkpt lat="43.3333195745944976806640625" lon="-1.7483528517186641693115234375">
        <ele>26.799999237060546875</ele>
        <time>2020-08-23T13:12:58.000Z</time>
      </trkpt>
      <trkpt lat="43.33343826234340667724609375" lon="-1.748575307428836822509765625">
        <ele>27.3999996185302734375</ele>
        <time>2020-08-23T13:13:04.000Z</time>
      </trkpt>
      <trkpt lat="43.33355359733104705810546875" lon="-1.7487801611423492431640625">
        <ele>27.799999237060546875</ele>
        <time>2020-08-23T13:13:10.000Z</time>
      </trkpt>
      <trkpt lat="43.33368510939180850982666015625" lon="-1.7490188777446746826171875">
        <ele>28.3999996185302734375</ele>
        <time>2020-08-23T13:13:17.000Z</time>
      </trkpt>
      <trkpt lat="43.333746381103992462158203125" lon="-1.74910998903214931488037109375">
        <ele>29</ele>
        <time>2020-08-23T13:13:20.000Z</time>
      </trkpt>
      <trkpt lat="43.33384537138044834136962890625" lon="-1.74926455132663249969482421875">
        <ele>29.799999237060546875</ele>
        <time>2020-08-23T13:13:25.000Z</time>
      </trkpt>
      <trkpt lat="43.33388024009764194488525390625" lon="-1.74932808615267276763916015625">
        <ele>30</ele>
        <time>2020-08-23T13:13:27.000Z</time>
      </trkpt>
      <trkpt lat="43.33398400805890560150146484375" lon="-1.749484576284885406494140625">
        <ele>30.799999237060546875</ele>
        <time>2020-08-23T13:13:32.000Z</time>
      </trkpt>
      <trkpt lat="43.3340556733310222625732421875" lon="-1.7495611868798732757568359375">
        <ele>31.200000762939453125</ele>
        <time>2020-08-23T13:13:35.000Z</time>
      </trkpt>
      <trkpt lat="43.33416338078677654266357421875" lon="-1.74964089877903461456298828125">
        <ele>31</ele>
        <time>2020-08-23T13:13:39.000Z</time>
      </trkpt>
      <trkpt lat="43.33430721424520015716552734375" lon="-1.74967937171459197998046875">
        <ele>30.799999237060546875</ele>
        <time>2020-08-23T13:13:44.000Z</time>
      </trkpt>
      <trkpt lat="43.3343989960849285125732421875" lon="-1.74959178082644939422607421875">
        <ele>30.3999996185302734375</ele>
        <time>2020-08-23T13:13:48.000Z</time>
      </trkpt>
      <trkpt lat="43.334454484283924102783203125" lon="-1.7494565807282924652099609375">
        <ele>30.200000762939453125</ele>
        <time>2020-08-23T13:13:53.000Z</time>
      </trkpt>
      <trkpt lat="43.3344590105116367340087890625" lon="-1.74944040365517139434814453125">
        <ele>30</ele>
        <time>2020-08-23T13:13:55.000Z</time>
      </trkpt>
      <trkpt lat="43.33447359502315521240234375" lon="-1.7494367994368076324462890625">
        <ele>30.200000762939453125</ele>
        <time>2020-08-23T13:13:58.000Z</time>
      </trkpt>
      <trkpt lat="43.3345478586852550506591796875" lon="-1.74950025044381618499755859375">
        <ele>30.200000762939453125</ele>
        <time>2020-08-23T13:14:02.000Z</time>
      </trkpt>
      <trkpt lat="43.33456940017640590667724609375" lon="-1.74954551272094249725341796875">
        <ele>30.200000762939453125</ele>
        <time>2020-08-23T13:14:03.000Z</time>
      </trkpt>
      <trkpt lat="43.33471943624317646026611328125" lon="-1.74983670003712177276611328125">
        <ele>29</ele>
        <time>2020-08-23T13:14:09.000Z</time>
      </trkpt>
      <trkpt lat="43.33482504822313785552978515625" lon="-1.750109530985355377197265625">
        <ele>29</ele>
        <time>2020-08-23T13:14:15.000Z</time>
      </trkpt>
      <trkpt lat="43.33483862690627574920654296875" lon="-1.7501509375870227813720703125">
        <ele>29</ele>
        <time>2020-08-23T13:14:16.000Z</time>
      </trkpt>
      <trkpt lat="43.33497994579374790191650390625" lon="-1.7503680288791656494140625">
        <ele>29</ele>
        <time>2020-08-23T13:14:22.000Z</time>
      </trkpt>
      <trkpt lat="43.33520977757871150970458984375" lon="-1.75054170191287994384765625">
        <ele>29</ele>
        <time>2020-08-23T13:14:29.000Z</time>
      </trkpt>
      <trkpt lat="43.3354980312287807464599609375" lon="-1.75066751427948474884033203125">
        <ele>28.799999237060546875</ele>
        <time>2020-08-23T13:14:37.000Z</time>
      </trkpt>
      <trkpt lat="43.33576097153127193450927734375" lon="-1.750707663595676422119140625">
        <ele>28.6000003814697265625</ele>
        <time>2020-08-23T13:14:44.000Z</time>
      </trkpt>
      <trkpt lat="43.33597940392792224884033203125" lon="-1.750631220638751983642578125">
        <ele>28.3999996185302734375</ele>
        <time>2020-08-23T13:14:50.000Z</time>
      </trkpt>
      <trkpt lat="43.33608685992658138275146484375" lon="-1.75058461725711822509765625">
        <ele>28.799999237060546875</ele>
        <time>2020-08-23T13:14:53.000Z</time>
      </trkpt>
      <trkpt lat="43.33616497926414012908935546875" lon="-1.75058922730386257171630859375">
        <ele>28.799999237060546875</ele>
        <time>2020-08-23T13:14:55.000Z</time>
      </trkpt>
      <trkpt lat="43.33623924292623996734619140625" lon="-1.75063113681972026824951171875">
        <ele>29</ele>
        <time>2020-08-23T13:14:57.000Z</time>
      </trkpt>
      <trkpt lat="43.33631166256964206695556640625" lon="-1.7506890557706356048583984375">
        <ele>29</ele>
        <time>2020-08-23T13:14:59.000Z</time>
      </trkpt>
      <trkpt lat="43.3365719206631183624267578125" lon="-1.7510089091956615447998046875">
        <ele>29.3999996185302734375</ele>
        <time>2020-08-23T13:15:07.000Z</time>
      </trkpt>
      <trkpt lat="43.3366044424474239349365234375" lon="-1.75105526112020015716552734375">
        <ele>29.3999996185302734375</ele>
        <time>2020-08-23T13:15:08.000Z</time>
      </trkpt>
      <trkpt lat="43.33671986125409603118896484375" lon="-1.75112902186810970306396484375">
        <ele>28.3999996185302734375</ele>
        <time>2020-08-23T13:15:11.000Z</time>
      </trkpt>
      <trkpt lat="43.3367608487606048583984375" lon="-1.7511319555342197418212890625">
        <ele>28.200000762939453125</ele>
        <time>2020-08-23T13:15:12.000Z</time>
      </trkpt>
      <trkpt lat="43.33680049516260623931884765625" lon="-1.7511297762393951416015625">
        <ele>28.200000762939453125</ele>
        <time>2020-08-23T13:15:13.000Z</time>
      </trkpt>
      <trkpt lat="43.33683955483138561248779296875" lon="-1.7511239089071750640869140625">
        <ele>28.200000762939453125</ele>
        <time>2020-08-23T13:15:14.000Z</time>
      </trkpt>
      <trkpt lat="43.33690912462770938873291015625" lon="-1.75110136158764362335205078125">
        <ele>28.200000762939453125</ele>
        <time>2020-08-23T13:15:16.000Z</time>
      </trkpt>
      <trkpt lat="43.33706653676927089691162109375" lon="-1.75095652230083942413330078125">
        <ele>27.799999237060546875</ele>
        <time>2020-08-23T13:15:21.000Z</time>
      </trkpt>
      <trkpt lat="43.337317071855068206787109375" lon="-1.75072409212589263916015625">
        <ele>27.799999237060546875</ele>
        <time>2020-08-23T13:15:29.000Z</time>
      </trkpt>
      <trkpt lat="43.33738571964204311370849609375" lon="-1.75067086704075336456298828125">
        <ele>27.799999237060546875</ele>
        <time>2020-08-23T13:15:31.000Z</time>
      </trkpt>
      <trkpt lat="43.3375038206577301025390625" lon="-1.7506340704858303070068359375">
        <ele>28.200000762939453125</ele>
        <time>2020-08-23T13:15:34.000Z</time>
      </trkpt>
      <trkpt lat="43.3375452272593975067138671875" lon="-1.75063163973391056060791015625">
        <ele>28</ele>
        <time>2020-08-23T13:15:35.000Z</time>
      </trkpt>
      <trkpt lat="43.33758705295622348785400390625" lon="-1.7506333999335765838623046875">
        <ele>27.799999237060546875</ele>
        <time>2020-08-23T13:15:36.000Z</time>
      </trkpt>
      <trkpt lat="43.337789140641689300537109375" lon="-1.750645302236080169677734375">
        <ele>27.6000003814697265625</ele>
        <time>2020-08-23T13:15:41.000Z</time>
      </trkpt>
      <trkpt lat="43.33797697909176349639892578125" lon="-1.75069861114025115966796875">
        <ele>27.3999996185302734375</ele>
        <time>2020-08-23T13:15:46.000Z</time>
      </trkpt>
      <trkpt lat="43.3380536735057830810546875" lon="-1.7507276125252246856689453125">
        <ele>27.3999996185302734375</ele>
        <time>2020-08-23T13:15:48.000Z</time>
      </trkpt>
      <trkpt lat="43.33836791105568408966064453125" lon="-1.7508801631629467010498046875">
        <ele>26.6000003814697265625</ele>
        <time>2020-08-23T13:15:56.000Z</time>
      </trkpt>
      <trkpt lat="43.33844418637454509735107421875" lon="-1.75091193057596683502197265625">
        <ele>26.3999996185302734375</ele>
        <time>2020-08-23T13:15:58.000Z</time>
      </trkpt>
      <trkpt lat="43.33865423686802387237548828125" lon="-1.75096708349883556365966796875">
        <ele>25.799999237060546875</ele>
        <time>2020-08-23T13:16:03.000Z</time>
      </trkpt>
      <trkpt lat="43.33878792822360992431640625" lon="-1.75099021755158901214599609375">
        <ele>25.799999237060546875</ele>
        <time>2020-08-23T13:16:06.000Z</time>
      </trkpt>
      <trkpt lat="43.3388792909681797027587890625" lon="-1.75100916065275669097900390625">
        <ele>25.3999996185302734375</ele>
        <time>2020-08-23T13:16:08.000Z</time>
      </trkpt>
      <trkpt lat="43.33892027847468852996826171875" lon="-1.75101016648113727569580078125">
        <ele>25.200000762939453125</ele>
        <time>2020-08-23T13:16:09.000Z</time>
      </trkpt>
      <trkpt lat="43.3389590866863727569580078125" lon="-1.75100899301469326019287109375">
        <ele>25.3999996185302734375</ele>
        <time>2020-08-23T13:16:10.000Z</time>
      </trkpt>
      <trkpt lat="43.339212052524089813232421875" lon="-1.75107412040233612060546875">
        <ele>24.3999996185302734375</ele>
        <time>2020-08-23T13:16:18.000Z</time>
      </trkpt>
      <trkpt lat="43.339406512677669525146484375" lon="-1.751159615814685821533203125">
        <ele>24.200000762939453125</ele>
        <time>2020-08-23T13:16:24.000Z</time>
      </trkpt>
      <trkpt lat="43.3394422195851802825927734375" lon="-1.75117596052587032318115234375">
        <ele>24.200000762939453125</ele>
        <time>2020-08-23T13:16:25.000Z</time>
      </trkpt>
      <trkpt lat="43.33957247436046600341796875" lon="-1.7512633837759494781494140625">
        <ele>23.6000003814697265625</ele>
        <time>2020-08-23T13:16:29.000Z</time>
      </trkpt>
      <trkpt lat="43.339587561786174774169921875" lon="-1.751303113996982574462890625">
        <ele>24</ele>
        <time>2020-08-23T13:16:30.000Z</time>
      </trkpt>
      <trkpt lat="43.33955948241055011749267578125" lon="-1.75151266157627105712890625">
        <ele>23.6000003814697265625</ele>
        <time>2020-08-23T13:16:34.000Z</time>
      </trkpt>
      <trkpt lat="43.33954372443258762359619140625" lon="-1.75163109786808490753173828125">
        <ele>22.799999237060546875</ele>
        <time>2020-08-23T13:16:36.000Z</time>
      </trkpt>
      <trkpt lat="43.33956618793308734893798828125" lon="-1.75183720886707305908203125">
        <ele>21.799999237060546875</ele>
        <time>2020-08-23T13:16:39.000Z</time>
      </trkpt>
      <trkpt lat="43.3396799303591251373291015625" lon="-1.7520217783749103546142578125">
        <ele>21</ele>
        <time>2020-08-23T13:16:42.000Z</time>
      </trkpt>
      <trkpt lat="43.33973466418683528900146484375" lon="-1.7520650289952754974365234375">
        <ele>21</ele>
        <time>2020-08-23T13:16:43.000Z</time>
      </trkpt>
      <trkpt lat="43.33991504274308681488037109375" lon="-1.7521377839148044586181640625">
        <ele>20.200000762939453125</ele>
        <time>2020-08-23T13:16:46.000Z</time>
      </trkpt>
      <trkpt lat="43.340087123215198516845703125" lon="-1.752169467508792877197265625">
        <ele>19.799999237060546875</ele>
        <time>2020-08-23T13:16:49.000Z</time>
      </trkpt>
      <trkpt lat="43.3401887118816375732421875" lon="-1.75216418690979480743408203125">
        <ele>19.799999237060546875</ele>
        <time>2020-08-23T13:16:51.000Z</time>
      </trkpt>
      <trkpt lat="43.3404099941253662109375" lon="-1.7520953714847564697265625">
        <ele>19.799999237060546875</ele>
        <time>2020-08-23T13:16:56.000Z</time>
      </trkpt>
      <trkpt lat="43.34061392582952976226806640625" lon="-1.7519838921725749969482421875">
        <ele>20.200000762939453125</ele>
        <time>2020-08-23T13:17:02.000Z</time>
      </trkpt>
      <trkpt lat="43.34070964716374874114990234375" lon="-1.75204047001898288726806640625">
        <ele>20.200000762939453125</ele>
        <time>2020-08-23T13:17:05.000Z</time>
      </trkpt>
      <trkpt lat="43.34086823277175426483154296875" lon="-1.752212382853031158447265625">
        <ele>19.799999237060546875</ele>
        <time>2020-08-23T13:17:10.000Z</time>
      </trkpt>
      <trkpt lat="43.34094107151031494140625" lon="-1.75226342864334583282470703125">
        <ele>19.799999237060546875</ele>
        <time>2020-08-23T13:17:12.000Z</time>
      </trkpt>
      <trkpt lat="43.34097870625555515289306640625" lon="-1.7522871494293212890625">
        <ele>19.799999237060546875</ele>
        <time>2020-08-23T13:17:13.000Z</time>
      </trkpt>
      <trkpt lat="43.3412181772291660308837890625" lon="-1.75249560736119747161865234375">
        <ele>19.6000003814697265625</ele>
        <time>2020-08-23T13:17:20.000Z</time>
      </trkpt>
      <trkpt lat="43.341597877442836761474609375" lon="-1.7529027163982391357421875">
        <ele>20.200000762939453125</ele>
        <time>2020-08-23T13:17:32.000Z</time>
      </trkpt>
      <trkpt lat="43.3419041521847248077392578125" lon="-1.75324738025665283203125">
        <ele>20.200000762939453125</ele>
        <time>2020-08-23T13:17:42.000Z</time>
      </trkpt>
      <trkpt lat="43.34217228926718235015869140625" lon="-1.75362179987132549285888671875">
        <ele>20.200000762939453125</ele>
        <time>2020-08-23T13:17:52.000Z</time>
      </trkpt>
      <trkpt lat="43.3423906378448009490966796875" lon="-1.75397383980453014373779296875">
        <ele>20.3999996185302734375</ele>
        <time>2020-08-23T13:18:01.000Z</time>
      </trkpt>
      <trkpt lat="43.34246129728853702545166015625" lon="-1.7540870793163776397705078125">
        <ele>21</ele>
        <time>2020-08-23T13:18:04.000Z</time>
      </trkpt>
      <trkpt lat="43.34261585958302021026611328125" lon="-1.75432889722287654876708984375">
        <ele>21.3999996185302734375</ele>
        <time>2020-08-23T13:18:11.000Z</time>
      </trkpt>
      <trkpt lat="43.34281451068818569183349609375" lon="-1.75464221276342868804931640625">
        <ele>21.799999237060546875</ele>
        <time>2020-08-23T13:18:20.000Z</time>
      </trkpt>
      <trkpt lat="43.34286354482173919677734375" lon="-1.75471245311200618743896484375">
        <ele>21.799999237060546875</ele>
        <time>2020-08-23T13:18:22.000Z</time>
      </trkpt>
      <trkpt lat="43.34303830750286579132080078125" lon="-1.75498117692768573760986328125">
        <ele>21.6000003814697265625</ele>
        <time>2020-08-23T13:18:29.000Z</time>
      </trkpt>
      <trkpt lat="43.34328733384609222412109375" lon="-1.75535894930362701416015625">
        <ele>21.799999237060546875</ele>
        <time>2020-08-23T13:18:38.000Z</time>
      </trkpt>
      <trkpt lat="43.34354625083506107330322265625" lon="-1.75573973916471004486083984375">
        <ele>21.6000003814697265625</ele>
        <time>2020-08-23T13:18:47.000Z</time>
      </trkpt>
      <trkpt lat="43.3437961153686046600341796875" lon="-1.7561342753469944000244140625">
        <ele>21.3999996185302734375</ele>
        <time>2020-08-23T13:18:56.000Z</time>
      </trkpt>
      <trkpt lat="43.34397104568779468536376953125" lon="-1.7564284801483154296875">
        <ele>21.200000762939453125</ele>
        <time>2020-08-23T13:19:02.000Z</time>
      </trkpt>
      <trkpt lat="43.34402896463871002197265625" lon="-1.75652839243412017822265625">
        <ele>21</ele>
        <time>2020-08-23T13:19:04.000Z</time>
      </trkpt>
      <trkpt lat="43.3441865444183349609375" lon="-1.75681312568485736846923828125">
        <ele>20.3999996185302734375</ele>
        <time>2020-08-23T13:19:10.000Z</time>
      </trkpt>
      <trkpt lat="43.34423155523836612701416015625" lon="-1.7569072544574737548828125">
        <ele>20.3999996185302734375</ele>
        <time>2020-08-23T13:19:12.000Z</time>
      </trkpt>
      <trkpt lat="43.34432291798293590545654296875" lon="-1.75715561024844646453857421875">
        <ele>20.3999996185302734375</ele>
        <time>2020-08-23T13:19:17.000Z</time>
      </trkpt>
      <trkpt lat="43.34444479085505008697509765625" lon="-1.757501699030399322509765625">
        <ele>20.799999237060546875</ele>
        <time>2020-08-23T13:19:24.000Z</time>
      </trkpt>
      <trkpt lat="43.34455291740596294403076171875" lon="-1.757865138351917266845703125">
        <ele>21</ele>
        <time>2020-08-23T13:19:32.000Z</time>
      </trkpt>
      <trkpt lat="43.344562388956546783447265625" lon="-1.75791048444807529449462890625">
        <ele>21</ele>
        <time>2020-08-23T13:19:33.000Z</time>
      </trkpt>
      <trkpt lat="43.3446339704096317291259765625" lon="-1.75834718160331249237060546875">
        <ele>21.200000762939453125</ele>
        <time>2020-08-23T13:19:42.000Z</time>
      </trkpt>
      <trkpt lat="43.34461712278425693511962890625" lon="-1.75879427231848239898681640625">
        <ele>21.200000762939453125</ele>
        <time>2020-08-23T13:19:50.000Z</time>
      </trkpt>
      <trkpt lat="43.34460857324302196502685546875" lon="-1.7588547058403491973876953125">
        <ele>21.200000762939453125</ele>
        <time>2020-08-23T13:19:51.000Z</time>
      </trkpt>
      <trkpt lat="43.34456934593617916107177734375" lon="-1.759228371083736419677734375">
        <ele>20.200000762939453125</ele>
        <time>2020-08-23T13:19:57.000Z</time>
      </trkpt>
      <trkpt lat="43.3445638976991176605224609375" lon="-1.75928763113915920257568359375">
        <ele>20.200000762939453125</ele>
        <time>2020-08-23T13:19:58.000Z</time>
      </trkpt>
      <trkpt lat="43.3445441164076328277587890625" lon="-1.759588457643985748291015625">
        <ele>19</ele>
        <time>2020-08-23T13:20:03.000Z</time>
      </trkpt>
      <trkpt lat="43.3445343933999538421630859375" lon="-1.7598806507885456085205078125">
        <ele>19</ele>
        <time>2020-08-23T13:20:08.000Z</time>
      </trkpt>
      <trkpt lat="43.344533555209636688232421875" lon="-1.7603565752506256103515625">
        <ele>18.799999237060546875</ele>
        <time>2020-08-23T13:20:16.000Z</time>
      </trkpt>
      <trkpt lat="43.344554342329502105712890625" lon="-1.76070484332740306854248046875">
        <ele>19.799999237060546875</ele>
        <time>2020-08-23T13:20:23.000Z</time>
      </trkpt>
      <trkpt lat="43.34456632845103740692138671875" lon="-1.7607857286930084228515625">
        <ele>20.200000762939453125</ele>
        <time>2020-08-23T13:20:25.000Z</time>
      </trkpt>
      <trkpt lat="43.344608657062053680419921875" lon="-1.761052273213863372802734375">
        <ele>20.799999237060546875</ele>
        <time>2020-08-23T13:20:32.000Z</time>
      </trkpt>
      <trkpt lat="43.344683088362216949462890625" lon="-1.7612564563751220703125">
        <ele>21</ele>
        <time>2020-08-23T13:20:38.000Z</time>
      </trkpt>
      <trkpt lat="43.34465534426271915435791015625" lon="-1.761446893215179443359375">
        <ele>21.200000762939453125</ele>
        <time>2020-08-23T13:20:43.000Z</time>
      </trkpt>
      <trkpt lat="43.34452576003968715667724609375" lon="-1.7614698596298694610595703125">
        <ele>21.200000762939453125</ele>
        <time>2020-08-23T13:20:47.000Z</time>
      </trkpt>
      <trkpt lat="43.34449240006506443023681640625" lon="-1.76145292818546295166015625">
        <ele>21.3999996185302734375</ele>
        <time>2020-08-23T13:20:48.000Z</time>
      </trkpt>
      <trkpt lat="43.34440690465271472930908203125" lon="-1.761366091668605804443359375">
        <ele>21.3999996185302734375</ele>
        <time>2020-08-23T13:20:51.000Z</time>
      </trkpt>
      <trkpt lat="43.3442403562366962432861328125" lon="-1.76119384355843067169189453125">
        <ele>21.3999996185302734375</ele>
        <time>2020-08-23T13:20:57.000Z</time>
      </trkpt>
      <trkpt lat="43.34399283863604068756103515625" lon="-1.76092478446662425994873046875">
        <ele>21.3999996185302734375</ele>
        <time>2020-08-23T13:21:06.000Z</time>
      </trkpt>
      <trkpt lat="43.34382033906877040863037109375" lon="-1.760759912431240081787109375">
        <ele>20.6000003814697265625</ele>
        <time>2020-08-23T13:21:12.000Z</time>
      </trkpt>
      <trkpt lat="43.34379787556827068328857421875" lon="-1.760766617953777313232421875">
        <ele>20.6000003814697265625</ele>
        <time>2020-08-23T13:21:13.000Z</time>
      </trkpt>
      <trkpt lat="43.34377055056393146514892578125" lon="-1.76088631153106689453125">
        <ele>20.6000003814697265625</ele>
        <time>2020-08-23T13:21:17.000Z</time>
      </trkpt>
      <trkpt lat="43.34377281367778778076171875" lon="-1.76090584136545658111572265625">
        <ele>20.3999996185302734375</ele>
        <time>2020-08-23T13:21:20.000Z</time>
      </trkpt>
      <trkpt lat="43.34377138875424861907958984375" lon="-1.76091003231704235076904296875">
        <ele>20.200000762939453125</ele>
        <time>2020-08-23T13:21:34.000Z</time>
      </trkpt>
      <trkpt lat="43.3437709696590900421142578125" lon="-1.76091237924993038177490234375">
        <ele>20</ele>
        <time>2020-08-23T13:21:55.000Z</time>
      </trkpt>
      <trkpt lat="43.34377147257328033447265625" lon="-1.760912127792835235595703125">
        <ele>20.3999996185302734375</ele>
        <time>2020-08-23T13:22:25.000Z</time>
      </trkpt>
      <trkpt lat="43.34377138875424861907958984375" lon="-1.76091254688799381256103515625">
        <ele>20.6000003814697265625</ele>
        <time>2020-08-23T13:22:48.000Z</time>
      </trkpt>
      <trkpt lat="43.3437894098460674285888671875" lon="-1.76095495931804180145263671875">
        <ele>20.200000762939453125</ele>
        <time>2020-08-23T13:22:59.000Z</time>
      </trkpt>
      <trkpt lat="43.34379401989281177520751953125" lon="-1.76097214221954345703125">
        <ele>20.3999996185302734375</ele>
        <time>2020-08-23T13:23:00.000Z</time>
      </trkpt>
      <trkpt lat="43.3438226021826267242431640625" lon="-1.7610749043524265289306640625">
        <ele>20.6000003814697265625</ele>
        <time>2020-08-23T13:23:04.000Z</time>
      </trkpt>
      <trkpt lat="43.34388119168579578399658203125" lon="-1.76122896373271942138671875">
        <ele>19.3999996185302734375</ele>
        <time>2020-08-23T13:23:08.000Z</time>
      </trkpt>
      <trkpt lat="43.34388420917093753814697265625" lon="-1.76137338392436504364013671875">
        <ele>18.3999996185302734375</ele>
        <time>2020-08-23T13:23:11.000Z</time>
      </trkpt>
      <trkpt lat="43.34379318170249462127685546875" lon="-1.761811673641204833984375">
        <ele>17.799999237060546875</ele>
        <time>2020-08-23T13:23:20.000Z</time>
      </trkpt>
      <trkpt lat="43.34372989833354949951171875" lon="-1.76209355704486370086669921875">
        <ele>17.3999996185302734375</ele>
        <time>2020-08-23T13:23:26.000Z</time>
      </trkpt>
      <trkpt lat="43.343703746795654296875" lon="-1.76217905245721340179443359375">
        <ele>17.3999996185302734375</ele>
        <time>2020-08-23T13:23:28.000Z</time>
      </trkpt>
      <trkpt lat="43.34359603933990001678466796875" lon="-1.76241860724985599517822265625">
        <ele>17.799999237060546875</ele>
        <time>2020-08-23T13:23:35.000Z</time>
      </trkpt>
      <trkpt lat="43.3434759266674518585205078125" lon="-1.762686073780059814453125">
        <ele>18.200000762939453125</ele>
        <time>2020-08-23T13:23:43.000Z</time>
      </trkpt>
      <trkpt lat="43.34331390447914600372314453125" lon="-1.76292487420141696929931640625">
        <ele>17.799999237060546875</ele>
        <time>2020-08-23T13:23:51.000Z</time>
      </trkpt>
      <trkpt lat="43.34316856227815151214599609375" lon="-1.76311589777469635009765625">
        <ele>18</ele>
        <time>2020-08-23T13:23:57.000Z</time>
      </trkpt>
      <trkpt lat="43.3430021815001964569091796875" lon="-1.76334363408386707305908203125">
        <ele>18.200000762939453125</ele>
        <time>2020-08-23T13:24:04.000Z</time>
      </trkpt>
      <trkpt lat="43.3428335376083850860595703125" lon="-1.76356382668018341064453125">
        <ele>18</ele>
        <time>2020-08-23T13:24:11.000Z</time>
      </trkpt>
      <trkpt lat="43.34270722232758998870849609375" lon="-1.7637504078447818756103515625">
        <ele>18</ele>
        <time>2020-08-23T13:24:17.000Z</time>
      </trkpt>
      <trkpt lat="43.342654667794704437255859375" lon="-1.76399809308350086212158203125">
        <ele>18.200000762939453125</ele>
        <time>2020-08-23T13:24:23.000Z</time>
      </trkpt>
      <trkpt lat="43.34259658120572566986083984375" lon="-1.764354072511196136474609375">
        <ele>18.200000762939453125</ele>
        <time>2020-08-23T13:24:31.000Z</time>
      </trkpt>
      <trkpt lat="43.34253623150289058685302734375" lon="-1.76453118212521076202392578125">
        <ele>18.3999996185302734375</ele>
        <time>2020-08-23T13:24:35.000Z</time>
      </trkpt>
      <trkpt lat="43.34249918349087238311767578125" lon="-1.76461148075759410858154296875">
        <ele>18.3999996185302734375</ele>
        <time>2020-08-23T13:24:37.000Z</time>
      </trkpt>
      <trkpt lat="43.3424390852451324462890625" lon="-1.7648806236684322357177734375">
        <ele>18.799999237060546875</ele>
        <time>2020-08-23T13:24:43.000Z</time>
      </trkpt>
      <trkpt lat="43.342357613146305084228515625" lon="-1.76538513042032718658447265625">
        <ele>19.200000762939453125</ele>
        <time>2020-08-23T13:24:53.000Z</time>
      </trkpt>
      <trkpt lat="43.3422669209539890289306640625" lon="-1.7659127712249755859375">
        <ele>19.3999996185302734375</ele>
        <time>2020-08-23T13:25:03.000Z</time>
      </trkpt>
      <trkpt lat="43.34220430813729763031005859375" lon="-1.76635089330375194549560546875">
        <ele>19.6000003814697265625</ele>
        <time>2020-08-23T13:25:12.000Z</time>
      </trkpt>
      <trkpt lat="43.3421975187957286834716796875" lon="-1.7664011009037494659423828125">
        <ele>19.6000003814697265625</ele>
        <time>2020-08-23T13:25:13.000Z</time>
      </trkpt>
      <trkpt lat="43.34215418435633182525634765625" lon="-1.76671567372977733612060546875">
        <ele>19.6000003814697265625</ele>
        <time>2020-08-23T13:25:20.000Z</time>
      </trkpt>
      <trkpt lat="43.3421157114207744598388671875" lon="-1.7669801227748394012451171875">
        <ele>19.3999996185302734375</ele>
        <time>2020-08-23T13:25:26.000Z</time>
      </trkpt>
      <trkpt lat="43.342060558497905731201171875" lon="-1.7673174105584621429443359375">
        <ele>19.6000003814697265625</ele>
        <time>2020-08-23T13:25:33.000Z</time>
      </trkpt>
      <trkpt lat="43.34198805503547191619873046875" lon="-1.76783281378448009490966796875">
        <ele>19.799999237060546875</ele>
        <time>2020-08-23T13:25:44.000Z</time>
      </trkpt>
      <trkpt lat="43.3419309742748737335205078125" lon="-1.7682632245123386383056640625">
        <ele>19.3999996185302734375</ele>
        <time>2020-08-23T13:25:53.000Z</time>
      </trkpt>
      <trkpt lat="43.341897614300251007080078125" lon="-1.76868374459445476531982421875">
        <ele>19.6000003814697265625</ele>
        <time>2020-08-23T13:26:03.000Z</time>
      </trkpt>
      <trkpt lat="43.3418645896017551422119140625" lon="-1.76910066045820713043212890625">
        <ele>19.3999996185302734375</ele>
        <time>2020-08-23T13:26:13.000Z</time>
      </trkpt>
      <trkpt lat="43.34185008890926837921142578125" lon="-1.7694755829870700836181640625">
        <ele>19.3999996185302734375</ele>
        <time>2020-08-23T13:26:22.000Z</time>
      </trkpt>
      <trkpt lat="43.3418448083102703094482421875" lon="-1.7697427980601787567138671875">
        <ele>19.3999996185302734375</ele>
        <time>2020-08-23T13:26:28.000Z</time>
      </trkpt>
      <trkpt lat="43.3418364264070987701416015625" lon="-1.76986207254230976104736328125">
        <ele>19.6000003814697265625</ele>
        <time>2020-08-23T13:26:31.000Z</time>
      </trkpt>
      <trkpt lat="43.3418136276304721832275390625" lon="-1.7701374180614948272705078125">
        <ele>19.799999237060546875</ele>
        <time>2020-08-23T13:26:38.000Z</time>
      </trkpt>
      <trkpt lat="43.3417814411222934722900390625" lon="-1.77062482573091983795166015625">
        <ele>19.799999237060546875</ele>
        <time>2020-08-23T13:26:49.000Z</time>
      </trkpt>
      <trkpt lat="43.34175470285117626190185546875" lon="-1.77107577212154865264892578125">
        <ele>19.6000003814697265625</ele>
        <time>2020-08-23T13:26:59.000Z</time>
      </trkpt>
      <trkpt lat="43.34172754548490047454833984375" lon="-1.77152520976960659027099609375">
        <ele>19.799999237060546875</ele>
        <time>2020-08-23T13:27:09.000Z</time>
      </trkpt>
      <trkpt lat="43.34170457907021045684814453125" lon="-1.77194681949913501739501953125">
        <ele>19.6000003814697265625</ele>
        <time>2020-08-23T13:27:18.000Z</time>
      </trkpt>
      <trkpt lat="43.34171664901077747344970703125" lon="-1.772373877465724945068359375">
        <ele>19.6000003814697265625</ele>
        <time>2020-08-23T13:27:27.000Z</time>
      </trkpt>
      <trkpt lat="43.341702483594417572021484375" lon="-1.77264872007071971893310546875">
        <ele>19.3999996185302734375</ele>
        <time>2020-08-23T13:27:33.000Z</time>
      </trkpt>
      <trkpt lat="43.3417076803743839263916015625" lon="-1.773090027272701263427734375">
        <ele>19.6000003814697265625</ele>
        <time>2020-08-23T13:27:42.000Z</time>
      </trkpt>
      <trkpt lat="43.3417133800685405731201171875" lon="-1.77354457788169384002685546875">
        <ele>19.799999237060546875</ele>
        <time>2020-08-23T13:27:51.000Z</time>
      </trkpt>
      <trkpt lat="43.3417251147329807281494140625" lon="-1.77391908131539821624755859375">
        <ele>20</ele>
        <time>2020-08-23T13:27:59.000Z</time>
      </trkpt>
      <trkpt lat="43.34170692600309848785400390625" lon="-1.77430045790970325469970703125">
        <ele>20.200000762939453125</ele>
        <time>2020-08-23T13:28:07.000Z</time>
      </trkpt>
      <trkpt lat="43.3416771702468395233154296875" lon="-1.77463858388364315032958984375">
        <ele>20.200000762939453125</ele>
        <time>2020-08-23T13:28:14.000Z</time>
      </trkpt>
      <trkpt lat="43.34161824546754360198974609375" lon="-1.77503454498946666717529296875">
        <ele>20.3999996185302734375</ele>
        <time>2020-08-23T13:28:22.000Z</time>
      </trkpt>
      <trkpt lat="43.34158019162714481353759765625" lon="-1.77522028796374797821044921875">
        <ele>20.6000003814697265625</ele>
        <time>2020-08-23T13:28:26.000Z</time>
      </trkpt>
      <trkpt lat="43.3415430597960948944091796875" lon="-1.7754471860826015472412109375">
        <ele>21</ele>
        <time>2020-08-23T13:28:31.000Z</time>
      </trkpt>
      <trkpt lat="43.3414444886147975921630859375" lon="-1.77572839893400669097900390625">
        <ele>21.200000762939453125</ele>
        <time>2020-08-23T13:28:38.000Z</time>
      </trkpt>
      <trkpt lat="43.34132932126522064208984375" lon="-1.77602939307689666748046875">
        <ele>21.200000762939453125</ele>
        <time>2020-08-23T13:28:45.000Z</time>
      </trkpt>
      <trkpt lat="43.34125849418342113494873046875" lon="-1.77620566450059413909912109375">
        <ele>21.6000003814697265625</ele>
        <time>2020-08-23T13:28:49.000Z</time>
      </trkpt>
      <trkpt lat="43.3411869965493679046630859375" lon="-1.77638570778071880340576171875">
        <ele>22</ele>
        <time>2020-08-23T13:28:53.000Z</time>
      </trkpt>
      <trkpt lat="43.341068141162395477294921875" lon="-1.77671612240374088287353515625">
        <ele>21.6000003814697265625</ele>
        <time>2020-08-23T13:29:00.000Z</time>
      </trkpt>
      <trkpt lat="43.34102480672299861907958984375" lon="-1.77681134082376956939697265625">
        <ele>21.6000003814697265625</ele>
        <time>2020-08-23T13:29:02.000Z</time>
      </trkpt>
      <trkpt lat="43.34093771874904632568359375" lon="-1.77699901163578033447265625">
        <ele>21.6000003814697265625</ele>
        <time>2020-08-23T13:29:06.000Z</time>
      </trkpt>
      <trkpt lat="43.34092204459011554718017578125" lon="-1.7770508117973804473876953125">
        <ele>21.6000003814697265625</ele>
        <time>2020-08-23T13:29:07.000Z</time>
      </trkpt>
      <trkpt lat="43.34088751114904880523681640625" lon="-1.777287013828754425048828125">
        <ele>21.200000762939453125</ele>
        <time>2020-08-23T13:29:11.000Z</time>
      </trkpt>
      <trkpt lat="43.3408631198108196258544921875" lon="-1.7779969610273838043212890625">
        <ele>21</ele>
        <time>2020-08-23T13:29:22.000Z</time>
      </trkpt>
      <trkpt lat="43.340864963829517364501953125" lon="-1.77817524410784244537353515625">
        <ele>21</ele>
        <time>2020-08-23T13:29:25.000Z</time>
      </trkpt>
      <trkpt lat="43.3408996649086475372314453125" lon="-1.7783379368484020233154296875">
        <ele>20.799999237060546875</ele>
        <time>2020-08-23T13:29:28.000Z</time>
      </trkpt>
      <trkpt lat="43.3409102261066436767578125" lon="-1.77849928848445415496826171875">
        <ele>20.799999237060546875</ele>
        <time>2020-08-23T13:29:32.000Z</time>
      </trkpt>
      <trkpt lat="43.3409241400659084320068359375" lon="-1.778613366186618804931640625">
        <ele>21.200000762939453125</ele>
        <time>2020-08-23T13:29:36.000Z</time>
      </trkpt>
      <trkpt lat="43.34094182588160037994384765625" lon="-1.7786282859742641448974609375">
        <ele>21.200000762939453125</ele>
        <time>2020-08-23T13:29:37.000Z</time>
      </trkpt>
      <trkpt lat="43.34102162159979343414306640625" lon="-1.77863792516291141510009765625">
        <ele>21</ele>
        <time>2020-08-23T13:29:40.000Z</time>
      </trkpt>
      <trkpt lat="43.34104911424219608306884765625" lon="-1.77864320576190948486328125">
        <ele>21</ele>
        <time>2020-08-23T13:29:41.000Z</time>
      </trkpt>
      <trkpt lat="43.3410711586475372314453125" lon="-1.778666339814662933349609375">
        <ele>20.799999237060546875</ele>
        <time>2020-08-23T13:29:42.000Z</time>
      </trkpt>
      <trkpt lat="43.34109253250062465667724609375" lon="-1.77874571643769741058349609375">
        <ele>20.6000003814697265625</ele>
        <time>2020-08-23T13:29:44.000Z</time>
      </trkpt>
      <trkpt lat="43.34117107093334197998046875" lon="-1.77906674332916736602783203125">
        <ele>19.6000003814697265625</ele>
        <time>2020-08-23T13:29:50.000Z</time>
      </trkpt>
      <trkpt lat="43.34125715307891368865966796875" lon="-1.779273860156536102294921875">
        <ele>19</ele>
        <time>2020-08-23T13:29:54.000Z</time>
      </trkpt>
      <trkpt lat="43.34128112532198429107666015625" lon="-1.779324151575565338134765625">
        <ele>18.6000003814697265625</ele>
        <time>2020-08-23T13:29:55.000Z</time>
      </trkpt>
      <trkpt lat="43.34133393131196498870849609375" lon="-1.7794879339635372161865234375">
        <ele>19.200000762939453125</ele>
        <time>2020-08-23T13:29:59.000Z</time>
      </trkpt>
      <trkpt lat="43.3413482643663883209228515625" lon="-1.77966135554015636444091796875">
        <ele>19.799999237060546875</ele>
        <time>2020-08-23T13:30:05.000Z</time>
      </trkpt>
      <trkpt lat="43.3413529582321643829345703125" lon="-1.77966772578656673431396484375">
        <ele>19.799999237060546875</ele>
        <time>2020-08-23T13:30:10.000Z</time>
      </trkpt>
      <trkpt lat="43.34135270677506923675537109375" lon="-1.77966889925301074981689453125">
        <ele>20.200000762939453125</ele>
        <time>2020-08-23T13:30:27.000Z</time>
      </trkpt>
      <trkpt lat="43.34135253913700580596923828125" lon="-1.7796676419675350189208984375">
        <ele>19.6000003814697265625</ele>
        <time>2020-08-23T13:30:47.000Z</time>
      </trkpt>
      <trkpt lat="43.34135304205119609832763671875" lon="-1.77967007271945476531982421875">
        <ele>20</ele>
        <time>2020-08-23T13:31:04.000Z</time>
      </trkpt>
      <trkpt lat="43.34135354496538639068603515625" lon="-1.77967091090977191925048828125">
        <ele>19.799999237060546875</ele>
        <time>2020-08-23T13:31:28.000Z</time>
      </trkpt>
      <trkpt lat="43.34135354496538639068603515625" lon="-1.7796709947288036346435546875">
        <ele>19.799999237060546875</ele>
        <time>2020-08-23T13:31:45.000Z</time>
      </trkpt>
      <trkpt lat="43.34135346114635467529296875" lon="-1.77967107854783535003662109375">
        <ele>20</ele>
        <time>2020-08-23T13:31:50.000Z</time>
      </trkpt>
      <trkpt lat="43.3413527905941009521484375" lon="-1.77967241965234279632568359375">
        <ele>20</ele>
        <time>2020-08-23T13:32:05.000Z</time>
      </trkpt>
      <trkpt lat="43.341353125870227813720703125" lon="-1.7796740122139453887939453125">
        <ele>20.200000762939453125</ele>
        <time>2020-08-23T13:32:19.000Z</time>
      </trkpt>
      <trkpt lat="43.34135253913700580596923828125" lon="-1.77967543713748455047607421875">
        <ele>20.200000762939453125</ele>
        <time>2020-08-23T13:32:45.000Z</time>
      </trkpt>
      <trkpt lat="43.34135253913700580596923828125" lon="-1.779675520956516265869140625">
        <ele>20.200000762939453125</ele>
        <time>2020-08-23T13:32:48.000Z</time>
      </trkpt>
      <trkpt lat="43.34135170094668865203857421875" lon="-1.77968046627938747406005859375">
        <ele>20.200000762939453125</ele>
        <time>2020-08-23T13:33:26.000Z</time>
      </trkpt>
      <trkpt lat="43.34133946336805820465087890625" lon="-1.77972489036619663238525390625">
        <ele>20.3999996185302734375</ele>
        <time>2020-08-23T13:33:31.000Z</time>
      </trkpt>
      <trkpt lat="43.34129939787089824676513671875" lon="-1.7798989824950695037841796875">
        <ele>20</ele>
        <time>2020-08-23T13:33:37.000Z</time>
      </trkpt>
      <trkpt lat="43.3411839790642261505126953125" lon="-1.78020584397017955780029296875">
        <ele>20</ele>
        <time>2020-08-23T13:33:45.000Z</time>
      </trkpt>
      <trkpt lat="43.34111751057207584381103515625" lon="-1.780398376286029815673828125">
        <ele>19.799999237060546875</ele>
        <time>2020-08-23T13:33:50.000Z</time>
      </trkpt>
      <trkpt lat="43.34111742675304412841796875" lon="-1.7806657589972019195556640625">
        <ele>19</ele>
        <time>2020-08-23T13:33:55.000Z</time>
      </trkpt>
      <trkpt lat="43.34119093604385852813720703125" lon="-1.780967675149440765380859375">
        <ele>18.799999237060546875</ele>
        <time>2020-08-23T13:34:02.000Z</time>
      </trkpt>
      <trkpt lat="43.34134273231029510498046875" lon="-1.78131359629333019256591796875">
        <ele>18.6000003814697265625</ele>
        <time>2020-08-23T13:34:10.000Z</time>
      </trkpt>
      <trkpt lat="43.34150492213666439056396484375" lon="-1.7816249839961528778076171875">
        <ele>18.6000003814697265625</ele>
        <time>2020-08-23T13:34:18.000Z</time>
      </trkpt>
      <trkpt lat="43.34161899983882904052734375" lon="-1.781881637871265411376953125">
        <ele>18.799999237060546875</ele>
        <time>2020-08-23T13:34:24.000Z</time>
      </trkpt>
      <trkpt lat="43.3417693711817264556884765625" lon="-1.7822107113897800445556640625">
        <ele>18.3999996185302734375</ele>
        <time>2020-08-23T13:34:32.000Z</time>
      </trkpt>
      <trkpt lat="43.34182108752429485321044921875" lon="-1.78233719430863857269287109375">
        <ele>18.200000762939453125</ele>
        <time>2020-08-23T13:34:35.000Z</time>
      </trkpt>
      <trkpt lat="43.34189367480576038360595703125" lon="-1.78250902332365512847900390625">
        <ele>18.3999996185302734375</ele>
        <time>2020-08-23T13:34:39.000Z</time>
      </trkpt>
      <trkpt lat="43.3420466445386409759521484375" lon="-1.78286039270460605621337890625">
        <ele>18.799999237060546875</ele>
        <time>2020-08-23T13:34:47.000Z</time>
      </trkpt>
      <trkpt lat="43.34208478219807147979736328125" lon="-1.782944463193416595458984375">
        <ele>18.6000003814697265625</ele>
        <time>2020-08-23T13:34:49.000Z</time>
      </trkpt>
      <trkpt lat="43.34217798896133899688720703125" lon="-1.78314722143113613128662109375">
        <ele>19</ele>
        <time>2020-08-23T13:34:54.000Z</time>
      </trkpt>
      <trkpt lat="43.34232039749622344970703125" lon="-1.78348517976701259613037109375">
        <ele>19</ele>
        <time>2020-08-23T13:35:02.000Z</time>
      </trkpt>
      <trkpt lat="43.34247068502008914947509765625" lon="-1.78381961770355701446533203125">
        <ele>18.799999237060546875</ele>
        <time>2020-08-23T13:35:10.000Z</time>
      </trkpt>
      <trkpt lat="43.34259591065347194671630859375" lon="-1.7840949632227420806884765625">
        <ele>18.799999237060546875</ele>
        <time>2020-08-23T13:35:17.000Z</time>
      </trkpt>
      <trkpt lat="43.34274309687316417694091796875" lon="-1.78452604450285434722900390625">
        <ele>19</ele>
        <time>2020-08-23T13:35:27.000Z</time>
      </trkpt>
      <trkpt lat="43.34285759367048740386962890625" lon="-1.7848221771419048309326171875">
        <ele>19.200000762939453125</ele>
        <time>2020-08-23T13:35:34.000Z</time>
      </trkpt>
      <trkpt lat="43.34298734553158283233642578125" lon="-1.78514496423304080963134765625">
        <ele>19.200000762939453125</ele>
        <time>2020-08-23T13:35:42.000Z</time>
      </trkpt>
      <trkpt lat="43.3430823124945163726806640625" lon="-1.78540245629847049713134765625">
        <ele>19.3999996185302734375</ele>
        <time>2020-08-23T13:35:49.000Z</time>
      </trkpt>
      <trkpt lat="43.34310804493725299835205078125" lon="-1.7855212278664112091064453125">
        <ele>19.799999237060546875</ele>
        <time>2020-08-23T13:35:53.000Z</time>
      </trkpt>
      <trkpt lat="43.343097232282161712646484375" lon="-1.78553916513919830322265625">
        <ele>20</ele>
        <time>2020-08-23T13:35:54.000Z</time>
      </trkpt>
      <trkpt lat="43.34298902191221714019775390625" lon="-1.78562222979962825775146484375">
        <ele>20.6000003814697265625</ele>
        <time>2020-08-23T13:36:00.000Z</time>
      </trkpt>
      <trkpt lat="43.3429679833352565765380859375" lon="-1.78563999943435192108154296875">
        <ele>20.6000003814697265625</ele>
        <time>2020-08-23T13:36:01.000Z</time>
      </trkpt>
      <trkpt lat="43.342883326113224029541015625" lon="-1.7857351340353488922119140625">
        <ele>21</ele>
        <time>2020-08-23T13:36:06.000Z</time>
      </trkpt>
      <trkpt lat="43.3427242375910282135009765625" lon="-1.7857865989208221435546875">
        <ele>21.200000762939453125</ele>
        <time>2020-08-23T13:36:13.000Z</time>
      </trkpt>
      <trkpt lat="43.3426809869706630706787109375" lon="-1.7857995070517063140869140625">
        <ele>21.6000003814697265625</ele>
        <time>2020-08-23T13:36:15.000Z</time>
      </trkpt>
      <trkpt lat="43.34266237914562225341796875" lon="-1.7858161032199859619140625">
        <ele>21.799999237060546875</ele>
        <time>2020-08-23T13:36:16.000Z</time>
      </trkpt>
      <trkpt lat="43.3426508121192455291748046875" lon="-1.78587268106639385223388671875">
        <ele>21.799999237060546875</ele>
        <time>2020-08-23T13:36:18.000Z</time>
      </trkpt>
      <trkpt lat="43.34266816265881061553955078125" lon="-1.78601718507707118988037109375">
        <ele>21.200000762939453125</ele>
        <time>2020-08-23T13:36:23.000Z</time>
      </trkpt>
      <trkpt lat="43.3426052145659923553466796875" lon="-1.786101423203945159912109375">
        <ele>21</ele>
        <time>2020-08-23T13:36:27.000Z</time>
      </trkpt>
      <trkpt lat="43.34258803166449069976806640625" lon="-1.7861367948353290557861328125">
        <ele>21</ele>
        <time>2020-08-23T13:36:28.000Z</time>
      </trkpt>
      <trkpt lat="43.3424975909292697906494140625" lon="-1.7863232083618640899658203125">
        <ele>20.799999237060546875</ele>
        <time>2020-08-23T13:36:33.000Z</time>
      </trkpt>
      <trkpt lat="43.34247034974396228790283203125" lon="-1.78634324111044406890869140625">
        <ele>20.799999237060546875</ele>
        <time>2020-08-23T13:36:34.000Z</time>
      </trkpt>
      <trkpt lat="43.34230606444180011749267578125" lon="-1.78638850338757038116455078125">
        <ele>20.3999996185302734375</ele>
        <time>2020-08-23T13:36:39.000Z</time>
      </trkpt>
      <trkpt lat="43.3421230874955654144287109375" lon="-1.78645203821361064910888671875">
        <ele>20.200000762939453125</ele>
        <time>2020-08-23T13:36:45.000Z</time>
      </trkpt>
      <trkpt lat="43.341915048658847808837890625" lon="-1.7865387909114360809326171875">
        <ele>20.200000762939453125</ele>
        <time>2020-08-23T13:36:52.000Z</time>
      </trkpt>
      <trkpt lat="43.341783620417118072509765625" lon="-1.78660894744098186492919921875">
        <ele>20</ele>
        <time>2020-08-23T13:36:57.000Z</time>
      </trkpt>
      <trkpt lat="43.34166417829692363739013671875" lon="-1.7867161519825458526611328125">
        <ele>20</ele>
        <time>2020-08-23T13:37:02.000Z</time>
      </trkpt>
      <trkpt lat="43.34149067290127277374267578125" lon="-1.78682687692344188690185546875">
        <ele>20.6000003814697265625</ele>
        <time>2020-08-23T13:37:09.000Z</time>
      </trkpt>
      <trkpt lat="43.3413445763289928436279296875" lon="-1.78689678199589252471923828125">
        <ele>20.3999996185302734375</ele>
        <time>2020-08-23T13:37:15.000Z</time>
      </trkpt>
      <trkpt lat="43.34120535291731357574462890625" lon="-1.7869736440479755401611328125">
        <ele>20.3999996185302734375</ele>
        <time>2020-08-23T13:37:21.000Z</time>
      </trkpt>
      <trkpt lat="43.34106118418276309967041015625" lon="-1.78703977726399898529052734375">
        <ele>20.799999237060546875</ele>
        <time>2020-08-23T13:37:27.000Z</time>
      </trkpt>
      <trkpt lat="43.34103436209261417388916015625" lon="-1.7870204150676727294921875">
        <ele>20.799999237060546875</ele>
        <time>2020-08-23T13:37:28.000Z</time>
      </trkpt>
      <trkpt lat="43.34094149060547351837158203125" lon="-1.786987222731113433837890625">
        <ele>20.799999237060546875</ele>
        <time>2020-08-23T13:37:32.000Z</time>
      </trkpt>
      <trkpt lat="43.340811319649219512939453125" lon="-1.786972470581531524658203125">
        <ele>20.3999996185302734375</ele>
        <time>2020-08-23T13:37:37.000Z</time>
      </trkpt>
      <trkpt lat="43.34066974930465221405029296875" lon="-1.78696819581091403961181640625">
        <ele>20.6000003814697265625</ele>
        <time>2020-08-23T13:37:42.000Z</time>
      </trkpt>
      <trkpt lat="43.34055357612669467926025390625" lon="-1.78700407035648822784423828125">
        <ele>21</ele>
        <time>2020-08-23T13:37:47.000Z</time>
      </trkpt>
      <trkpt lat="43.34048735909163951873779296875" lon="-1.78712946362793445587158203125">
        <ele>21.799999237060546875</ele>
        <time>2020-08-23T13:37:52.000Z</time>
      </trkpt>
      <trkpt lat="43.3404596149921417236328125" lon="-1.78721822798252105712890625">
        <ele>22.6000003814697265625</ele>
        <time>2020-08-23T13:37:56.000Z</time>
      </trkpt>
      <trkpt lat="43.34045466966927051544189453125" lon="-1.7872334830462932586669921875">
        <ele>22.799999237060546875</ele>
        <time>2020-08-23T13:37:57.000Z</time>
      </trkpt>
      <trkpt lat="43.34042944014072418212890625" lon="-1.7873307131230831146240234375">
        <ele>23.6000003814697265625</ele>
        <time>2020-08-23T13:38:02.000Z</time>
      </trkpt>
      <trkpt lat="43.340413682162761688232421875" lon="-1.7873377539217472076416015625">
        <ele>23.799999237060546875</ele>
        <time>2020-08-23T13:38:03.000Z</time>
      </trkpt>
      <trkpt lat="43.3403538353741168975830078125" lon="-1.78734253160655498504638671875">
        <ele>24.3999996185302734375</ele>
        <time>2020-08-23T13:38:06.000Z</time>
      </trkpt>
      <trkpt lat="43.3403099142014980316162109375" lon="-1.78733532316982746124267578125">
        <ele>24.799999237060546875</ele>
        <time>2020-08-23T13:38:08.000Z</time>
      </trkpt>
      <trkpt lat="43.340267501771450042724609375" lon="-1.78732224740087985992431640625">
        <ele>25</ele>
        <time>2020-08-23T13:38:10.000Z</time>
      </trkpt>
      <trkpt lat="43.34017060697078704833984375" lon="-1.78729643113911151885986328125">
        <ele>25.799999237060546875</ele>
        <time>2020-08-23T13:38:15.000Z</time>
      </trkpt>
      <trkpt lat="43.3401310443878173828125" lon="-1.78728603757917881011962890625">
        <ele>26.3999996185302734375</ele>
        <time>2020-08-23T13:38:17.000Z</time>
      </trkpt>
      <trkpt lat="43.34009257145226001739501953125" lon="-1.78727027960121631622314453125">
        <ele>26.799999237060546875</ele>
        <time>2020-08-23T13:38:19.000Z</time>
      </trkpt>
      <trkpt lat="43.3400735445320606231689453125" lon="-1.78726675920188426971435546875">
        <ele>27</ele>
        <time>2020-08-23T13:38:20.000Z</time>
      </trkpt>
      <trkpt lat="43.34003775380551815032958984375" lon="-1.78725468926131725311279296875">
        <ele>27.3999996185302734375</ele>
        <time>2020-08-23T13:38:22.000Z</time>
      </trkpt>
      <trkpt lat="43.33999668247997760772705078125" lon="-1.78723054938018321990966796875">
        <ele>28</ele>
        <time>2020-08-23T13:38:28.000Z</time>
      </trkpt>
      <trkpt lat="43.339973799884319305419921875" lon="-1.78724178113043308258056640625">
        <ele>28</ele>
        <time>2020-08-23T13:38:30.000Z</time>
      </trkpt>
      <trkpt lat="43.33995871245861053466796875" lon="-1.78727933205664157867431640625">
        <ele>28</ele>
        <time>2020-08-23T13:38:32.000Z</time>
      </trkpt>
      <trkpt lat="43.3398958481848239898681640625" lon="-1.78744043223559856414794921875">
        <ele>29.3999996185302734375</ele>
        <time>2020-08-23T13:38:39.000Z</time>
      </trkpt>
      <trkpt lat="43.3398613147437572479248046875" lon="-1.78757437504827976226806640625">
        <ele>30.3999996185302734375</ele>
        <time>2020-08-23T13:38:45.000Z</time>
      </trkpt>
      <trkpt lat="43.339846394956111907958984375" lon="-1.7876163683831691741943359375">
        <ele>30.799999237060546875</ele>
        <time>2020-08-23T13:38:47.000Z</time>
      </trkpt>
      <trkpt lat="43.3398341573774814605712890625" lon="-1.78767479024827480316162109375">
        <ele>31</ele>
        <time>2020-08-23T13:38:50.000Z</time>
      </trkpt>
      <trkpt lat="43.33981990814208984375" lon="-1.787727512419223785400390625">
        <ele>31.200000762939453125</ele>
        <time>2020-08-23T13:38:53.000Z</time>
      </trkpt>
      <trkpt lat="43.339806161820888519287109375" lon="-1.787762381136417388916015625">
        <ele>31.6000003814697265625</ele>
        <time>2020-08-23T13:38:55.000Z</time>
      </trkpt>
      <trkpt lat="43.33977825008332729339599609375" lon="-1.7878155224025249481201171875">
        <ele>32</ele>
        <time>2020-08-23T13:38:58.000Z</time>
      </trkpt>
      <trkpt lat="43.33976333029568195343017578125" lon="-1.78784913383424282073974609375">
        <ele>32.200000762939453125</ele>
        <time>2020-08-23T13:39:00.000Z</time>
      </trkpt>
      <trkpt lat="43.33974011242389678955078125" lon="-1.7879077233374118804931640625">
        <ele>32.799999237060546875</ele>
        <time>2020-08-23T13:39:03.000Z</time>
      </trkpt>
      <trkpt lat="43.33970817737281322479248046875" lon="-1.7880123294889926910400390625">
        <ele>33.59999847412109375</ele>
        <time>2020-08-23T13:39:08.000Z</time>
      </trkpt>
      <trkpt lat="43.3397097699344158172607421875" lon="-1.7880488745868206024169921875">
        <ele>33.799999237060546875</ele>
        <time>2020-08-23T13:39:10.000Z</time>
      </trkpt>
      <trkpt lat="43.33971002139151096343994140625" lon="-1.7880716733634471893310546875">
        <ele>34</ele>
        <time>2020-08-23T13:39:11.000Z</time>
      </trkpt>
      <trkpt lat="43.33968135528266429901123046875" lon="-1.78813763894140720367431640625">
        <ele>34.59999847412109375</ele>
        <time>2020-08-23T13:39:14.000Z</time>
      </trkpt>
      <trkpt lat="43.3396541140973567962646484375" lon="-1.7882396467030048370361328125">
        <ele>34.59999847412109375</ele>
        <time>2020-08-23T13:39:18.000Z</time>
      </trkpt>
      <trkpt lat="43.33964162506163120269775390625" lon="-1.7883204482495784759521484375">
        <ele>34.799999237060546875</ele>
        <time>2020-08-23T13:39:21.000Z</time>
      </trkpt>
      <trkpt lat="43.339631818234920501708984375" lon="-1.7883707396686077117919921875">
        <ele>35</ele>
        <time>2020-08-23T13:39:23.000Z</time>
      </trkpt>
      <trkpt lat="43.33958915434777736663818359375" lon="-1.78849437274038791656494140625">
        <ele>35</ele>
        <time>2020-08-23T13:39:28.000Z</time>
      </trkpt>
      <trkpt lat="43.33953148685395717620849609375" lon="-1.78866720758378505706787109375">
        <ele>35.59999847412109375</ele>
        <time>2020-08-23T13:39:35.000Z</time>
      </trkpt>
      <trkpt lat="43.339546658098697662353515625" lon="-1.7888853885233402252197265625">
        <ele>36.200000762939453125</ele>
        <time>2020-08-23T13:39:43.000Z</time>
      </trkpt>
      <trkpt lat="43.33953249268233776092529296875" lon="-1.7889435589313507080078125">
        <ele>36.40000152587890625</ele>
        <time>2020-08-23T13:39:45.000Z</time>
      </trkpt>
      <trkpt lat="43.33947868086397647857666015625" lon="-1.78913542069494724273681640625">
        <ele>36.59999847412109375</ele>
        <time>2020-08-23T13:39:53.000Z</time>
      </trkpt>
      <trkpt lat="43.3394465781748294830322265625" lon="-1.7893520928919315338134765625">
        <ele>36.799999237060546875</ele>
        <time>2020-08-23T13:40:01.000Z</time>
      </trkpt>
      <trkpt lat="43.3395008929073810577392578125" lon="-1.789577566087245941162109375">
        <ele>37.200000762939453125</ele>
        <time>2020-08-23T13:40:09.000Z</time>
      </trkpt>
      <trkpt lat="43.3395501784980297088623046875" lon="-1.78970589302480220794677734375">
        <ele>36.799999237060546875</ele>
        <time>2020-08-23T13:40:15.000Z</time>
      </trkpt>
      <trkpt lat="43.33955797366797924041748046875" lon="-1.78972500376403331756591796875">
        <ele>36.799999237060546875</ele>
        <time>2020-08-23T13:40:16.000Z</time>
      </trkpt>
      <trkpt lat="43.33957339636981487274169921875" lon="-1.7898107506334781646728515625">
        <ele>37</ele>
        <time>2020-08-23T13:40:20.000Z</time>
      </trkpt>
      <trkpt lat="43.3396128751337528228759765625" lon="-1.789950393140316009521484375">
        <ele>37.40000152587890625</ele>
        <time>2020-08-23T13:40:26.000Z</time>
      </trkpt>
      <trkpt lat="43.3396306447684764862060546875" lon="-1.7900565080344676971435546875">
        <ele>37.40000152587890625</ele>
        <time>2020-08-23T13:40:30.000Z</time>
      </trkpt>
      <trkpt lat="43.339649923145771026611328125" lon="-1.79021853022277355194091796875">
        <ele>37.200000762939453125</ele>
        <time>2020-08-23T13:40:35.000Z</time>
      </trkpt>
      <trkpt lat="43.33969694562256336212158203125" lon="-1.79044534452259540557861328125">
        <ele>37.200000762939453125</ele>
        <time>2020-08-23T13:40:43.000Z</time>
      </trkpt>
      <trkpt lat="43.3396936766803264617919921875" lon="-1.79061432369053363800048828125">
        <ele>37.200000762939453125</ele>
        <time>2020-08-23T13:40:48.000Z</time>
      </trkpt>
      <trkpt lat="43.3397292159497737884521484375" lon="-1.7908541299402713775634765625">
        <ele>37.40000152587890625</ele>
        <time>2020-08-23T13:40:54.000Z</time>
      </trkpt>
      <trkpt lat="43.33975327201187610626220703125" lon="-1.79108303971588611602783203125">
        <ele>37.200000762939453125</ele>
        <time>2020-08-23T13:41:00.000Z</time>
      </trkpt>
      <trkpt lat="43.339820243418216705322265625" lon="-1.79129241965711116790771484375">
        <ele>37.200000762939453125</ele>
        <time>2020-08-23T13:41:07.000Z</time>
      </trkpt>
      <trkpt lat="43.3398452214896678924560546875" lon="-1.79141479544341564178466796875">
        <ele>37.59999847412109375</ele>
        <time>2020-08-23T13:41:10.000Z</time>
      </trkpt>
      <trkpt lat="43.339884281158447265625" lon="-1.79152577184140682220458984375">
        <ele>37.59999847412109375</ele>
        <time>2020-08-23T13:41:13.000Z</time>
      </trkpt>
      <trkpt lat="43.339948989450931549072265625" lon="-1.79177421145141124725341796875">
        <ele>37.59999847412109375</ele>
        <time>2020-08-23T13:41:20.000Z</time>
      </trkpt>
      <trkpt lat="43.34000841714441776275634765625" lon="-1.791947297751903533935546875">
        <ele>37.59999847412109375</ele>
        <time>2020-08-23T13:41:25.000Z</time>
      </trkpt>
      <trkpt lat="43.34006558172404766082763671875" lon="-1.79221426136791706085205078125">
        <ele>37.59999847412109375</ele>
        <time>2020-08-23T13:41:32.000Z</time>
      </trkpt>
      <trkpt lat="43.34010179154574871063232421875" lon="-1.7925566621124744415283203125">
        <ele>37.799999237060546875</ele>
        <time>2020-08-23T13:41:40.000Z</time>
      </trkpt>
      <trkpt lat="43.34014219231903553009033203125" lon="-1.792898476123809814453125">
        <ele>37.799999237060546875</ele>
        <time>2020-08-23T13:41:48.000Z</time>
      </trkpt>
      <trkpt lat="43.34016599692404270172119140625" lon="-1.793021522462368011474609375">
        <ele>37.59999847412109375</ele>
        <time>2020-08-23T13:41:51.000Z</time>
      </trkpt>
      <trkpt lat="43.34023137576878070831298828125" lon="-1.79335202090442180633544921875">
        <ele>37.799999237060546875</ele>
        <time>2020-08-23T13:41:59.000Z</time>
      </trkpt>
      <trkpt lat="43.3403132669627666473388671875" lon="-1.79376952350139617919921875">
        <ele>38.200000762939453125</ele>
        <time>2020-08-23T13:42:10.000Z</time>
      </trkpt>
      <trkpt lat="43.34036062471568584442138671875" lon="-1.79403179325163364410400390625">
        <ele>38</ele>
        <time>2020-08-23T13:42:17.000Z</time>
      </trkpt>
      <trkpt lat="43.34045215509831905364990234375" lon="-1.7943701706826686859130859375">
        <ele>38</ele>
        <time>2020-08-23T13:42:26.000Z</time>
      </trkpt>
      <trkpt lat="43.3405090682208538055419921875" lon="-1.79466647095978260040283203125">
        <ele>37.799999237060546875</ele>
        <time>2020-08-23T13:42:34.000Z</time>
      </trkpt>
      <trkpt lat="43.340566568076610565185546875" lon="-1.79497676901519298553466796875">
        <ele>37.799999237060546875</ele>
        <time>2020-08-23T13:42:42.000Z</time>
      </trkpt>
      <trkpt lat="43.34062968380749225616455078125" lon="-1.795326210558414459228515625">
        <ele>38</ele>
        <time>2020-08-23T13:42:50.000Z</time>
      </trkpt>
      <trkpt lat="43.3406515605747699737548828125" lon="-1.795623600482940673828125">
        <ele>37.799999237060546875</ele>
        <time>2020-08-23T13:42:57.000Z</time>
      </trkpt>
      <trkpt lat="43.34069523029029369354248046875" lon="-1.7958688549697399139404296875">
        <ele>38</ele>
        <time>2020-08-23T13:43:03.000Z</time>
      </trkpt>
      <trkpt lat="43.34079748950898647308349609375" lon="-1.7960031330585479736328125">
        <ele>38</ele>
        <time>2020-08-23T13:43:08.000Z</time>
      </trkpt>
      <trkpt lat="43.3408889360725879669189453125" lon="-1.7962713539600372314453125">
        <ele>37.799999237060546875</ele>
        <time>2020-08-23T13:43:16.000Z</time>
      </trkpt>
      <trkpt lat="43.340956158936023712158203125" lon="-1.79654426872730255126953125">
        <ele>38.200000762939453125</ele>
        <time>2020-08-23T13:43:23.000Z</time>
      </trkpt>
      <trkpt lat="43.34099127911031246185302734375" lon="-1.796806119382381439208984375">
        <ele>38.40000152587890625</ele>
        <time>2020-08-23T13:43:29.000Z</time>
      </trkpt>
      <trkpt lat="43.341040648519992828369140625" lon="-1.79705179296433925628662109375">
        <ele>38.200000762939453125</ele>
        <time>2020-08-23T13:43:35.000Z</time>
      </trkpt>
      <trkpt lat="43.341062776744365692138671875" lon="-1.79722420871257781982421875">
        <ele>39</ele>
        <time>2020-08-23T13:43:39.000Z</time>
      </trkpt>
      <trkpt lat="43.34110259078443050384521484375" lon="-1.79734432138502597808837890625">
        <ele>39.200000762939453125</ele>
        <time>2020-08-23T13:43:42.000Z</time>
      </trkpt>
      <trkpt lat="43.3411983959376811981201171875" lon="-1.7975760810077190399169921875">
        <ele>39</ele>
        <time>2020-08-23T13:43:49.000Z</time>
      </trkpt>
      <trkpt lat="43.341253213584423065185546875" lon="-1.79769736714661121368408203125">
        <ele>38.799999237060546875</ele>
        <time>2020-08-23T13:43:56.000Z</time>
      </trkpt>
      <trkpt lat="43.34127492271363735198974609375" lon="-1.7977578006684780120849609375">
        <ele>38.59999847412109375</ele>
        <time>2020-08-23T13:44:02.000Z</time>
      </trkpt>
      <trkpt lat="43.34138707257807254791259765625" lon="-1.7979254387319087982177734375">
        <ele>38.40000152587890625</ele>
        <time>2020-08-23T13:44:07.000Z</time>
      </trkpt>
      <trkpt lat="43.3414595760405063629150390625" lon="-1.79801638238131999969482421875">
        <ele>37.59999847412109375</ele>
        <time>2020-08-23T13:44:09.000Z</time>
      </trkpt>
      <trkpt lat="43.3416282199323177337646484375" lon="-1.7982074059545993804931640625">
        <ele>36.799999237060546875</ele>
        <time>2020-08-23T13:44:13.000Z</time>
      </trkpt>
      <trkpt lat="43.34171698428690433502197265625" lon="-1.79831041954457759857177734375">
        <ele>36.40000152587890625</ele>
        <time>2020-08-23T13:44:15.000Z</time>
      </trkpt>
      <trkpt lat="43.3420027233660221099853515625" lon="-1.7986234836280345916748046875">
        <ele>35.40000152587890625</ele>
        <time>2020-08-23T13:44:21.000Z</time>
      </trkpt>
      <trkpt lat="43.34220129065215587615966796875" lon="-1.79882741533219814300537109375">
        <ele>34.40000152587890625</ele>
        <time>2020-08-23T13:44:25.000Z</time>
      </trkpt>
      <trkpt lat="43.34249516017735004425048828125" lon="-1.799130253493785858154296875">
        <ele>33.200000762939453125</ele>
        <time>2020-08-23T13:44:31.000Z</time>
      </trkpt>
      <trkpt lat="43.3428291790187358856201171875" lon="-1.79936997592449188232421875">
        <ele>32.40000152587890625</ele>
        <time>2020-08-23T13:44:37.000Z</time>
      </trkpt>
      <trkpt lat="43.34288743324577808380126953125" lon="-1.799408532679080963134765625">
        <ele>32</ele>
        <time>2020-08-23T13:44:38.000Z</time>
      </trkpt>
      <trkpt lat="43.3432395569980144500732421875" lon="-1.79967599920928478240966796875">
        <ele>30.799999237060546875</ele>
        <time>2020-08-23T13:44:44.000Z</time>
      </trkpt>
      <trkpt lat="43.3432985655963420867919921875" lon="-1.79972142912447452545166015625">
        <ele>30.6000003814697265625</ele>
        <time>2020-08-23T13:44:45.000Z</time>
      </trkpt>
      <trkpt lat="43.34347634576261043548583984375" lon="-1.79985805414617061614990234375">
        <ele>29.6000003814697265625</ele>
        <time>2020-08-23T13:44:48.000Z</time>
      </trkpt>
      <trkpt lat="43.34387616254389286041259765625" lon="-1.800203137099742889404296875">
        <ele>28.3999996185302734375</ele>
        <time>2020-08-23T13:44:55.000Z</time>
      </trkpt>
      <trkpt lat="43.3439359255135059356689453125" lon="-1.80024881847202777862548828125">
        <ele>28.200000762939453125</ele>
        <time>2020-08-23T13:44:56.000Z</time>
      </trkpt>
      <trkpt lat="43.34411974065005779266357421875" lon="-1.800386197865009307861328125">
        <ele>27.200000762939453125</ele>
        <time>2020-08-23T13:44:59.000Z</time>
      </trkpt>
      <trkpt lat="43.3444225788116455078125" lon="-1.80061041377484798431396484375">
        <ele>26.200000762939453125</ele>
        <time>2020-08-23T13:45:04.000Z</time>
      </trkpt>
      <trkpt lat="43.34471938200294971466064453125" lon="-1.800846196711063385009765625">
        <ele>25.200000762939453125</ele>
        <time>2020-08-23T13:45:09.000Z</time>
      </trkpt>
      <trkpt lat="43.34483337588608264923095703125" lon="-1.8009305186569690704345703125">
        <ele>24.6000003814697265625</ele>
        <time>2020-08-23T13:45:11.000Z</time>
      </trkpt>
      <trkpt lat="43.344877548515796661376953125" lon="-1.80096379481256008148193359375">
        <ele>24.3999996185302734375</ele>
        <time>2020-08-23T13:45:12.000Z</time>
      </trkpt>
      <trkpt lat="43.34491669200360774993896484375" lon="-1.800982989370822906494140625">
        <ele>24.200000762939453125</ele>
        <time>2020-08-23T13:45:13.000Z</time>
      </trkpt>
      <trkpt lat="43.344991207122802734375" lon="-1.801001764833927154541015625">
        <ele>24</ele>
        <time>2020-08-23T13:45:15.000Z</time>
      </trkpt>
      <trkpt lat="43.34519145078957080841064453125" lon="-1.80089405737817287445068359375">
        <ele>23.6000003814697265625</ele>
        <time>2020-08-23T13:45:20.000Z</time>
      </trkpt>
      <trkpt lat="43.34534115158021450042724609375" lon="-1.8009117431938648223876953125">
        <ele>23.3999996185302734375</ele>
        <time>2020-08-23T13:45:24.000Z</time>
      </trkpt>
      <trkpt lat="43.34542463533580303192138671875" lon="-1.80102246813476085662841796875">
        <ele>23.3999996185302734375</ele>
        <time>2020-08-23T13:45:27.000Z</time>
      </trkpt>
      <trkpt lat="43.3454443328082561492919921875" lon="-1.80107141844928264617919921875">
        <ele>23.3999996185302734375</ele>
        <time>2020-08-23T13:45:28.000Z</time>
      </trkpt>
      <trkpt lat="43.3454694785177707672119140625" lon="-1.80117267183959484100341796875">
        <ele>23.200000762939453125</ele>
        <time>2020-08-23T13:45:30.000Z</time>
      </trkpt>
      <trkpt lat="43.34547593258321285247802734375" lon="-1.8012272380292415618896484375">
        <ele>23.200000762939453125</ele>
        <time>2020-08-23T13:45:31.000Z</time>
      </trkpt>
      <trkpt lat="43.345492780208587646484375" lon="-1.80133067071437835693359375">
        <ele>23</ele>
        <time>2020-08-23T13:45:33.000Z</time>
      </trkpt>
      <trkpt lat="43.3455960452556610107421875" lon="-1.80155253969132900238037109375">
        <ele>23</ele>
        <time>2020-08-23T13:45:38.000Z</time>
      </trkpt>
      <trkpt lat="43.345833756029605865478515625" lon="-1.80173836648464202880859375">
        <ele>22.200000762939453125</ele>
        <time>2020-08-23T13:45:45.000Z</time>
      </trkpt>
      <trkpt lat="43.345875330269336700439453125" lon="-1.80176108144223690032958984375">
        <ele>22.200000762939453125</ele>
        <time>2020-08-23T13:45:46.000Z</time>
      </trkpt>
      <trkpt lat="43.34600030444562435150146484375" lon="-1.8018236942589282989501953125">
        <ele>21.6000003814697265625</ele>
        <time>2020-08-23T13:45:49.000Z</time>
      </trkpt>
      <trkpt lat="43.34606685675680637359619140625" lon="-1.80186568759381771087646484375">
        <ele>21.6000003814697265625</ele>
        <time>2020-08-23T13:45:51.000Z</time>
      </trkpt>
      <trkpt lat="43.34622167050838470458984375" lon="-1.80185328237712383270263671875">
        <ele>21.200000762939453125</ele>
        <time>2020-08-23T13:45:55.000Z</time>
      </trkpt>
      <trkpt lat="43.34644161164760589599609375" lon="-1.801749765872955322265625">
        <ele>21.3999996185302734375</ele>
        <time>2020-08-23T13:46:01.000Z</time>
      </trkpt>
      <trkpt lat="43.34667253307998180389404296875" lon="-1.80161741562187671661376953125">
        <ele>21.3999996185302734375</ele>
        <time>2020-08-23T13:46:07.000Z</time>
      </trkpt>
      <trkpt lat="43.346746377646923065185546875" lon="-1.80157969705760478973388671875">
        <ele>21.3999996185302734375</ele>
        <time>2020-08-23T13:46:09.000Z</time>
      </trkpt>
      <trkpt lat="43.34688493050634860992431640625" lon="-1.8014978058636188507080078125">
        <ele>21.200000762939453125</ele>
        <time>2020-08-23T13:46:13.000Z</time>
      </trkpt>
      <trkpt lat="43.3469544164836406707763671875" lon="-1.80144893936812877655029296875">
        <ele>21</ele>
        <time>2020-08-23T13:46:15.000Z</time>
      </trkpt>
      <trkpt lat="43.347166143357753753662109375" lon="-1.80132689885795116424560546875">
        <ele>20.799999237060546875</ele>
        <time>2020-08-23T13:46:21.000Z</time>
      </trkpt>
      <trkpt lat="43.347432352602481842041015625" lon="-1.80116848088800907135009765625">
        <ele>20.799999237060546875</ele>
        <time>2020-08-23T13:46:29.000Z</time>
      </trkpt>
      <trkpt lat="43.34770719520747661590576171875" lon="-1.80099363438785076141357421875">
        <ele>21.200000762939453125</ele>
        <time>2020-08-23T13:46:38.000Z</time>
      </trkpt>
      <trkpt lat="43.3479671180248260498046875" lon="-1.8008406646549701690673828125">
        <ele>21.200000762939453125</ele>
        <time>2020-08-23T13:46:46.000Z</time>
      </trkpt>
      <trkpt lat="43.34828806109726428985595703125" lon="-1.800638996064662933349609375">
        <ele>21.200000762939453125</ele>
        <time>2020-08-23T13:46:56.000Z</time>
      </trkpt>
      <trkpt lat="43.34852124564349651336669921875" lon="-1.80048736743628978729248046875">
        <ele>21.3999996185302734375</ele>
        <time>2020-08-23T13:47:03.000Z</time>
      </trkpt>
      <trkpt lat="43.34878762252628803253173828125" lon="-1.8003156222403049468994140625">
        <ele>21</ele>
        <time>2020-08-23T13:47:11.000Z</time>
      </trkpt>
      <trkpt lat="43.349070511758327484130859375" lon="-1.80014287121593952178955078125">
        <ele>21.3999996185302734375</ele>
        <time>2020-08-23T13:47:19.000Z</time>
      </trkpt>
      <trkpt lat="43.34938994608819484710693359375" lon="-1.7999545298516750335693359375">
        <ele>21.200000762939453125</ele>
        <time>2020-08-23T13:47:28.000Z</time>
      </trkpt>
      <trkpt lat="43.34972974844276905059814453125" lon="-1.79975646547973155975341796875">
        <ele>21.3999996185302734375</ele>
        <time>2020-08-23T13:47:38.000Z</time>
      </trkpt>
      <trkpt lat="43.3499886654317378997802734375" lon="-1.7996152304112911224365234375">
        <ele>21.3999996185302734375</ele>
        <time>2020-08-23T13:47:46.000Z</time>
      </trkpt>
      <trkpt lat="43.35004222579300403594970703125" lon="-1.79954943247139453887939453125">
        <ele>21.3999996185302734375</ele>
        <time>2020-08-23T13:47:48.000Z</time>
      </trkpt>
      <trkpt lat="43.35019427351653575897216796875" lon="-1.7994569800794124603271484375">
        <ele>21.6000003814697265625</ele>
        <time>2020-08-23T13:47:53.000Z</time>
      </trkpt>
      <trkpt lat="43.3503457345068454742431640625" lon="-1.79935229010879993438720703125">
        <ele>21.799999237060546875</ele>
        <time>2020-08-23T13:47:58.000Z</time>
      </trkpt>
      <trkpt lat="43.3505556173622608184814453125" lon="-1.79910770617425441741943359375">
        <ele>21.799999237060546875</ele>
        <time>2020-08-23T13:48:06.000Z</time>
      </trkpt>
      <trkpt lat="43.3508263528347015380859375" lon="-1.7987683229148387908935546875">
        <ele>22</ele>
        <time>2020-08-23T13:48:17.000Z</time>
      </trkpt>
      <trkpt lat="43.3510704338550567626953125" lon="-1.79848358966410160064697265625">
        <ele>22</ele>
        <time>2020-08-23T13:48:27.000Z</time>
      </trkpt>
      <trkpt lat="43.35119054652750492095947265625" lon="-1.79838015697896480560302734375">
        <ele>21.799999237060546875</ele>
        <time>2020-08-23T13:48:32.000Z</time>
      </trkpt>
      <trkpt lat="43.35138416849076747894287109375" lon="-1.7981738783419132232666015625">
        <ele>21.6000003814697265625</ele>
        <time>2020-08-23T13:48:39.000Z</time>
      </trkpt>
      <trkpt lat="43.3516010083258152008056640625" lon="-1.79791152477264404296875">
        <ele>21.6000003814697265625</ele>
        <time>2020-08-23T13:48:47.000Z</time>
      </trkpt>
      <trkpt lat="43.35184835828840732574462890625" lon="-1.7975936830043792724609375">
        <ele>21.799999237060546875</ele>
        <time>2020-08-23T13:48:56.000Z</time>
      </trkpt>
      <trkpt lat="43.352065868675708770751953125" lon="-1.79732068441808223724365234375">
        <ele>21.799999237060546875</ele>
        <time>2020-08-23T13:49:04.000Z</time>
      </trkpt>
      <trkpt lat="43.3523718081414699554443359375" lon="-1.79693763144314289093017578125">
        <ele>22.200000762939453125</ele>
        <time>2020-08-23T13:49:15.000Z</time>
      </trkpt>
      <trkpt lat="43.35258445702493190765380859375" lon="-1.79673026315867900848388671875">
        <ele>22.6000003814697265625</ele>
        <time>2020-08-23T13:49:22.000Z</time>
      </trkpt>
      <trkpt lat="43.3526514284312725067138671875" lon="-1.7966825701296329498291015625">
        <ele>22.799999237060546875</ele>
        <time>2020-08-23T13:49:24.000Z</time>
      </trkpt>
      <trkpt lat="43.35291436873376369476318359375" lon="-1.79655097424983978271484375">
        <ele>22.3999996185302734375</ele>
        <time>2020-08-23T13:49:31.000Z</time>
      </trkpt>
      <trkpt lat="43.35325098596513271331787109375" lon="-1.79643027484416961669921875">
        <ele>22.6000003814697265625</ele>
        <time>2020-08-23T13:49:40.000Z</time>
      </trkpt>
      <trkpt lat="43.35356513969600200653076171875" lon="-1.79630446247756481170654296875">
        <ele>22.6000003814697265625</ele>
        <time>2020-08-23T13:49:48.000Z</time>
      </trkpt>
      <trkpt lat="43.3539858274161815643310546875" lon="-1.7961561866104602813720703125">
        <ele>22.3999996185302734375</ele>
        <time>2020-08-23T13:49:58.000Z</time>
      </trkpt>
      <trkpt lat="43.35432621650397777557373046875" lon="-1.79604814387857913970947265625">
        <ele>22.200000762939453125</ele>
        <time>2020-08-23T13:50:06.000Z</time>
      </trkpt>
      <trkpt lat="43.3546919189393520355224609375" lon="-1.795915625989437103271484375">
        <ele>22.200000762939453125</ele>
        <time>2020-08-23T13:50:15.000Z</time>
      </trkpt>
      <trkpt lat="43.35521335713565349578857421875" lon="-1.7957102693617343902587890625">
        <ele>22.6000003814697265625</ele>
        <time>2020-08-23T13:50:28.000Z</time>
      </trkpt>
      <trkpt lat="43.35560495965182781219482421875" lon="-1.79555528797209262847900390625">
        <ele>22</ele>
        <time>2020-08-23T13:50:38.000Z</time>
      </trkpt>
      <trkpt lat="43.35595817305147647857666015625" lon="-1.7953837104141712188720703125">
        <ele>22.200000762939453125</ele>
        <time>2020-08-23T13:50:47.000Z</time>
      </trkpt>
      <trkpt lat="43.3561969734728336334228515625" lon="-1.79515077732503414154052734375">
        <ele>22</ele>
        <time>2020-08-23T13:50:54.000Z</time>
      </trkpt>
      <trkpt lat="43.3564541302621364593505859375" lon="-1.79486646316945552825927734375">
        <ele>22</ele>
        <time>2020-08-23T13:51:02.000Z</time>
      </trkpt>
      <trkpt lat="43.35671640001237392425537109375" lon="-1.7945730127394199371337890625">
        <ele>21.799999237060546875</ele>
        <time>2020-08-23T13:51:10.000Z</time>
      </trkpt>
      <trkpt lat="43.35703038610517978668212890625" lon="-1.79422524757683277130126953125">
        <ele>22</ele>
        <time>2020-08-23T13:51:20.000Z</time>
      </trkpt>
      <trkpt lat="43.35725552402436733245849609375" lon="-1.794001869857311248779296875">
        <ele>21.6000003814697265625</ele>
        <time>2020-08-23T13:51:27.000Z</time>
      </trkpt>
      <trkpt lat="43.3574686758220195770263671875" lon="-1.793757118284702301025390625">
        <ele>22</ele>
        <time>2020-08-23T13:51:34.000Z</time>
      </trkpt>
      <trkpt lat="43.35772273130714893341064453125" lon="-1.79350876249372959136962890625">
        <ele>22.6000003814697265625</ele>
        <time>2020-08-23T13:51:42.000Z</time>
      </trkpt>
      <trkpt lat="43.3579932153224945068359375" lon="-1.79321807809174060821533203125">
        <ele>22.3999996185302734375</ele>
        <time>2020-08-23T13:51:51.000Z</time>
      </trkpt>
      <trkpt lat="43.35826470516622066497802734375" lon="-1.7929281480610370635986328125">
        <ele>22.799999237060546875</ele>
        <time>2020-08-23T13:52:00.000Z</time>
      </trkpt>
      <trkpt lat="43.3585680462419986724853515625" lon="-1.79259873926639556884765625">
        <ele>22.6000003814697265625</ele>
        <time>2020-08-23T13:52:10.000Z</time>
      </trkpt>
      <trkpt lat="43.358924947679042816162109375" lon="-1.792222559452056884765625">
        <ele>22.6000003814697265625</ele>
        <time>2020-08-23T13:52:21.000Z</time>
      </trkpt>
      <trkpt lat="43.35916475392878055572509765625" lon="-1.7920039594173431396484375">
        <ele>22.6000003814697265625</ele>
        <time>2020-08-23T13:52:29.000Z</time>
      </trkpt>
      <trkpt lat="43.35933608002960681915283203125" lon="-1.79173816926777362823486328125">
        <ele>22.6000003814697265625</ele>
        <time>2020-08-23T13:52:37.000Z</time>
      </trkpt>
      <trkpt lat="43.35948645137250423431396484375" lon="-1.79158846847712993621826171875">
        <ele>22.799999237060546875</ele>
        <time>2020-08-23T13:52:43.000Z</time>
      </trkpt>
      <trkpt lat="43.359671272337436676025390625" lon="-1.79152158088982105255126953125">
        <ele>23.200000762939453125</ele>
        <time>2020-08-23T13:52:49.000Z</time>
      </trkpt>
      <trkpt lat="43.359853327274322509765625" lon="-1.79131588898599147796630859375">
        <ele>23.200000762939453125</ele>
        <time>2020-08-23T13:52:56.000Z</time>
      </trkpt>
      <trkpt lat="43.35999875329434871673583984375" lon="-1.79110231809318065643310546875">
        <ele>23.6000003814697265625</ele>
        <time>2020-08-23T13:53:02.000Z</time>
      </trkpt>
      <trkpt lat="43.36004736833274364471435546875" lon="-1.79102637805044651031494140625">
        <ele>23.799999237060546875</ele>
        <time>2020-08-23T13:53:04.000Z</time>
      </trkpt>
      <trkpt lat="43.3603160083293914794921875" lon="-1.79069914855062961578369140625">
        <ele>23.6000003814697265625</ele>
        <time>2020-08-23T13:53:14.000Z</time>
      </trkpt>
      <trkpt lat="43.3605525456368923187255859375" lon="-1.79046043194830417633056640625">
        <ele>24</ele>
        <time>2020-08-23T13:53:23.000Z</time>
      </trkpt>
      <trkpt lat="43.3607719838619232177734375" lon="-1.79032715968787670135498046875">
        <ele>24</ele>
        <time>2020-08-23T13:53:30.000Z</time>
      </trkpt>
      <trkpt lat="43.36099326610565185546875" lon="-1.79019086994230747222900390625">
        <ele>23.6000003814697265625</ele>
        <time>2020-08-23T13:53:37.000Z</time>
      </trkpt>
      <trkpt lat="43.3611148037016391754150390625" lon="-1.79018206894397735595703125">
        <ele>23</ele>
        <time>2020-08-23T13:53:43.000Z</time>
      </trkpt>
      <trkpt lat="43.36121396161615848541259765625" lon="-1.790170334279537200927734375">
        <ele>23</ele>
        <time>2020-08-23T13:53:48.000Z</time>
      </trkpt>
      <trkpt lat="43.36130582727491855621337890625" lon="-1.79013370536267757415771484375">
        <ele>22.6000003814697265625</ele>
        <time>2020-08-23T13:53:51.000Z</time>
      </trkpt>
      <trkpt lat="43.361441195011138916015625" lon="-1.7900789715349674224853515625">
        <ele>22.799999237060546875</ele>
        <time>2020-08-23T13:53:55.000Z</time>
      </trkpt>
      <trkpt lat="43.3617172949016094207763671875" lon="-1.7900021933019161224365234375">
        <ele>23</ele>
        <time>2020-08-23T13:54:03.000Z</time>
      </trkpt>
      <trkpt lat="43.36197822354733943939208984375" lon="-1.789948381483554840087890625">
        <ele>23.200000762939453125</ele>
        <time>2020-08-23T13:54:10.000Z</time>
      </trkpt>
      <trkpt lat="43.36224359460175037384033203125" lon="-1.7899029515683650970458984375">
        <ele>23.200000762939453125</ele>
        <time>2020-08-23T13:54:17.000Z</time>
      </trkpt>
      <trkpt lat="43.3625923655927181243896484375" lon="-1.78984167985618114471435546875">
        <ele>23.200000762939453125</ele>
        <time>2020-08-23T13:54:26.000Z</time>
      </trkpt>
      <trkpt lat="43.3629380352795124053955078125" lon="-1.78978568874299526214599609375">
        <ele>23.3999996185302734375</ele>
        <time>2020-08-23T13:54:35.000Z</time>
      </trkpt>
      <trkpt lat="43.3631690405309200286865234375" lon="-1.78976439870893955230712890625">
        <ele>23.3999996185302734375</ele>
        <time>2020-08-23T13:54:41.000Z</time>
      </trkpt>
      <trkpt lat="43.36338914930820465087890625" lon="-1.78980396129190921783447265625">
        <ele>23.799999237060546875</ele>
        <time>2020-08-23T13:54:47.000Z</time>
      </trkpt>
      <trkpt lat="43.36355921812355518341064453125" lon="-1.78987403400242328643798828125">
        <ele>24</ele>
        <time>2020-08-23T13:54:52.000Z</time>
      </trkpt>
      <trkpt lat="43.36365175433456897735595703125" lon="-1.78993924520909786224365234375">
        <ele>23.6000003814697265625</ele>
        <time>2020-08-23T13:54:55.000Z</time>
      </trkpt>
      <trkpt lat="43.3638687618076801300048828125" lon="-1.79013722576200962066650390625">
        <ele>23.6000003814697265625</ele>
        <time>2020-08-23T13:55:03.000Z</time>
      </trkpt>
      <trkpt lat="43.36404620669782161712646484375" lon="-1.790336631238460540771484375">
        <ele>23.3999996185302734375</ele>
        <time>2020-08-23T13:55:11.000Z</time>
      </trkpt>
      <trkpt lat="43.36421904154121875762939453125" lon="-1.7903096415102481842041015625">
        <ele>23.6000003814697265625</ele>
        <time>2020-08-23T13:55:17.000Z</time>
      </trkpt>
      <trkpt lat="43.3643287606537342071533203125" lon="-1.79031844250857830047607421875">
        <ele>23</ele>
        <time>2020-08-23T13:55:21.000Z</time>
      </trkpt>
      <trkpt lat="43.36434963159263134002685546875" lon="-1.790312491357326507568359375">
        <ele>23</ele>
        <time>2020-08-23T13:55:22.000Z</time>
      </trkpt>
      <trkpt lat="43.36448256857693195343017578125" lon="-1.79027368314564228057861328125">
        <ele>22.799999237060546875</ele>
        <time>2020-08-23T13:55:27.000Z</time>
      </trkpt>
      <trkpt lat="43.36459480226039886474609375" lon="-1.79024434648454189300537109375">
        <ele>23</ele>
        <time>2020-08-23T13:55:31.000Z</time>
      </trkpt>
      <trkpt lat="43.3647644519805908203125" lon="-1.79019858129322528839111328125">
        <ele>22.799999237060546875</ele>
        <time>2020-08-23T13:55:37.000Z</time>
      </trkpt>
      <trkpt lat="43.36488791741430759429931640625" lon="-1.79018852300941944122314453125">
        <ele>22.799999237060546875</ele>
        <time>2020-08-23T13:55:43.000Z</time>
      </trkpt>
      <trkpt lat="43.365014903247356414794921875" lon="-1.79019925184547901153564453125">
        <ele>22.6000003814697265625</ele>
        <time>2020-08-23T13:55:49.000Z</time>
      </trkpt>
      <trkpt lat="43.36512898094952106475830078125" lon="-1.790302097797393798828125">
        <ele>22.6000003814697265625</ele>
        <time>2020-08-23T13:55:53.000Z</time>
      </trkpt>
      <trkpt lat="43.3653087727725505828857421875" lon="-1.79047082550823688507080078125">
        <ele>22.799999237060546875</ele>
        <time>2020-08-23T13:55:59.000Z</time>
      </trkpt>
      <trkpt lat="43.365336097776889801025390625" lon="-1.79048758931457996368408203125">
        <ele>22.6000003814697265625</ele>
        <time>2020-08-23T13:56:00.000Z</time>
      </trkpt>
      <trkpt lat="43.36541832424700260162353515625" lon="-1.79050954990088939666748046875">
        <ele>22.799999237060546875</ele>
        <time>2020-08-23T13:56:03.000Z</time>
      </trkpt>
      <trkpt lat="43.365464508533477783203125" lon="-1.79054391570389270782470703125">
        <ele>23</ele>
        <time>2020-08-23T13:56:05.000Z</time>
      </trkpt>
      <trkpt lat="43.36558864451944828033447265625" lon="-1.7906479351222515106201171875">
        <ele>23</ele>
        <time>2020-08-23T13:56:10.000Z</time>
      </trkpt>
      <trkpt lat="43.365817554295063018798828125" lon="-1.7908373661339282989501953125">
        <ele>22.799999237060546875</ele>
        <time>2020-08-23T13:56:18.000Z</time>
      </trkpt>
      <trkpt lat="43.36600991897284984588623046875" lon="-1.7909825406968593597412109375">
        <ele>22.6000003814697265625</ele>
        <time>2020-08-23T13:56:25.000Z</time>
      </trkpt>
      <trkpt lat="43.36604009382426738739013671875" lon="-1.79104649461805820465087890625">
        <ele>22.3999996185302734375</ele>
        <time>2020-08-23T13:56:27.000Z</time>
      </trkpt>
      <trkpt lat="43.366066999733448028564453125" lon="-1.79111606441438198089599609375">
        <ele>22.3999996185302734375</ele>
        <time>2020-08-23T13:56:29.000Z</time>
      </trkpt>
      <trkpt lat="43.36611603386700153350830078125" lon="-1.791155375540256500244140625">
        <ele>22.6000003814697265625</ele>
        <time>2020-08-23T13:56:31.000Z</time>
      </trkpt>
      <trkpt lat="43.36619767360389232635498046875" lon="-1.79121111519634723663330078125">
        <ele>22.6000003814697265625</ele>
        <time>2020-08-23T13:56:34.000Z</time>
      </trkpt>
      <trkpt lat="43.36638651788234710693359375" lon="-1.7913280427455902099609375">
        <ele>22.3999996185302734375</ele>
        <time>2020-08-23T13:56:41.000Z</time>
      </trkpt>
      <trkpt lat="43.36646975018084049224853515625" lon="-1.7913801781833171844482421875">
        <ele>22.200000762939453125</ele>
        <time>2020-08-23T13:56:44.000Z</time>
      </trkpt>
      <trkpt lat="43.3665798045694828033447265625" lon="-1.79146072827279567718505859375">
        <ele>22</ele>
        <time>2020-08-23T13:56:48.000Z</time>
      </trkpt>
      <trkpt lat="43.366830758750438690185546875" lon="-1.791610680520534515380859375">
        <ele>22</ele>
        <time>2020-08-23T13:56:55.000Z</time>
      </trkpt>
      <trkpt lat="43.36708917282521724700927734375" lon="-1.79175208322703838348388671875">
        <ele>22</ele>
        <time>2020-08-23T13:57:03.000Z</time>
      </trkpt>
      <trkpt lat="43.36724289692938327789306640625" lon="-1.791840009391307830810546875">
        <ele>22.200000762939453125</ele>
        <time>2020-08-23T13:57:08.000Z</time>
      </trkpt>
      <trkpt lat="43.36734716780483722686767578125" lon="-1.79196297191083431243896484375">
        <ele>22</ele>
        <time>2020-08-23T13:57:12.000Z</time>
      </trkpt>
      <trkpt lat="43.3673452399671077728271484375" lon="-1.79212667047977447509765625">
        <ele>22</ele>
        <time>2020-08-23T13:57:16.000Z</time>
      </trkpt>
      <trkpt lat="43.36728774011135101318359375" lon="-1.7923216335475444793701171875">
        <ele>21.6000003814697265625</ele>
        <time>2020-08-23T13:57:22.000Z</time>
      </trkpt>
      <trkpt lat="43.3672897517681121826171875" lon="-1.792344935238361358642578125">
        <ele>21.6000003814697265625</ele>
        <time>2020-08-23T13:57:23.000Z</time>
      </trkpt>
      <trkpt lat="43.3673324994742870330810546875" lon="-1.79240050725638866424560546875">
        <ele>21.799999237060546875</ele>
        <time>2020-08-23T13:57:26.000Z</time>
      </trkpt>
      <trkpt lat="43.36743886582553386688232421875" lon="-1.792442835867404937744140625">
        <ele>21.799999237060546875</ele>
        <time>2020-08-23T13:57:30.000Z</time>
      </trkpt>
      <trkpt lat="43.36752436123788356781005859375" lon="-1.79247326217591762542724609375">
        <ele>21.799999237060546875</ele>
        <time>2020-08-23T13:57:33.000Z</time>
      </trkpt>
      <trkpt lat="43.367707170546054840087890625" lon="-1.79247024469077587127685546875">
        <ele>22</ele>
        <time>2020-08-23T13:57:39.000Z</time>
      </trkpt>
      <trkpt lat="43.3677348308265209197998046875" lon="-1.79239430464804172515869140625">
        <ele>21.3999996185302734375</ele>
        <time>2020-08-23T13:57:41.000Z</time>
      </trkpt>
      <trkpt lat="43.3677375130355358123779296875" lon="-1.79233026690781116485595703125">
        <ele>21.200000762939453125</ele>
        <time>2020-08-23T13:57:43.000Z</time>
      </trkpt>
      <trkpt lat="43.36774447001516819000244140625" lon="-1.792314089834690093994140625">
        <ele>21.200000762939453125</ele>
        <time>2020-08-23T13:57:45.000Z</time>
      </trkpt>
      <trkpt lat="43.3677616529166698455810546875" lon="-1.79227779619395732879638671875">
        <ele>21.200000762939453125</ele>
        <time>2020-08-23T13:57:47.000Z</time>
      </trkpt>
      <trkpt lat="43.36778503842651844024658203125" lon="-1.79220219142735004425048828125">
        <ele>21.200000762939453125</ele>
        <time>2020-08-23T13:57:50.000Z</time>
      </trkpt>
      <trkpt lat="43.3678320609033107757568359375" lon="-1.792181991040706634521484375">
        <ele>21.200000762939453125</ele>
        <time>2020-08-23T13:57:52.000Z</time>
      </trkpt>
      <trkpt lat="43.36791613139212131500244140625" lon="-1.79220638237893581390380859375">
        <ele>21.3999996185302734375</ele>
        <time>2020-08-23T13:57:55.000Z</time>
      </trkpt>
      <trkpt lat="43.368000201880931854248046875" lon="-1.792227923870086669921875">
        <ele>21.3999996185302734375</ele>
        <time>2020-08-23T13:57:58.000Z</time>
      </trkpt>
      <trkpt lat="43.36822626180946826934814453125" lon="-1.79228500463068485260009765625">
        <ele>21.3999996185302734375</ele>
        <time>2020-08-23T13:58:07.000Z</time>
      </trkpt>
      <trkpt lat="43.36837470531463623046875" lon="-1.79235759191215038299560546875">
        <ele>21.799999237060546875</ele>
        <time>2020-08-23T13:58:14.000Z</time>
      </trkpt>
      <trkpt lat="43.36848400533199310302734375" lon="-1.79240587167441844940185546875">
        <ele>22.3999996185302734375</ele>
        <time>2020-08-23T13:58:20.000Z</time>
      </trkpt>
      <trkpt lat="43.36849884130060672760009765625" lon="-1.79241559468209743499755859375">
        <ele>22.6000003814697265625</ele>
        <time>2020-08-23T13:58:21.000Z</time>
      </trkpt>
      <trkpt lat="43.3685995079576969146728515625" lon="-1.79244124330580234527587890625">
        <ele>22.799999237060546875</ele>
        <time>2020-08-23T13:58:26.000Z</time>
      </trkpt>
      <trkpt lat="43.36877209134399890899658203125" lon="-1.79248273372650146484375">
        <ele>22.6000003814697265625</ele>
        <time>2020-08-23T13:58:34.000Z</time>
      </trkpt>
      <trkpt lat="43.36888725869357585906982421875" lon="-1.79253931157290935516357421875">
        <ele>22.6000003814697265625</ele>
        <time>2020-08-23T13:58:40.000Z</time>
      </trkpt>
      <trkpt lat="43.3690440841019153594970703125" lon="-1.79259530268609523773193359375">
        <ele>22.6000003814697265625</ele>
        <time>2020-08-23T13:58:48.000Z</time>
      </trkpt>
      <trkpt lat="43.36922287009656429290771484375" lon="-1.792660765349864959716796875">
        <ele>22.799999237060546875</ele>
        <time>2020-08-23T13:58:56.000Z</time>
      </trkpt>
      <trkpt lat="43.36938162334263324737548828125" lon="-1.7927356995642185211181640625">
        <ele>23</ele>
        <time>2020-08-23T13:59:03.000Z</time>
      </trkpt>
      <trkpt lat="43.36952310986816883087158203125" lon="-1.792776100337505340576171875">
        <ele>23</ele>
        <time>2020-08-23T13:59:09.000Z</time>
      </trkpt>
      <trkpt lat="43.369750678539276123046875" lon="-1.792829073965549468994140625">
        <ele>23</ele>
        <time>2020-08-23T13:59:18.000Z</time>
      </trkpt>
      <trkpt lat="43.3700187318027019500732421875" lon="-1.7929172515869140625">
        <ele>23</ele>
        <time>2020-08-23T13:59:29.000Z</time>
      </trkpt>
      <trkpt lat="43.370196931064128875732421875" lon="-1.793007440865039825439453125">
        <ele>23</ele>
        <time>2020-08-23T13:59:37.000Z</time>
      </trkpt>
      <trkpt lat="43.37036498822271823883056640625" lon="-1.79307642392814159393310546875">
        <ele>23.200000762939453125</ele>
        <time>2020-08-23T13:59:44.000Z</time>
      </trkpt>
      <trkpt lat="43.37049323134124279022216796875" lon="-1.79312872700393199920654296875">
        <ele>23.6000003814697265625</ele>
        <time>2020-08-23T13:59:50.000Z</time>
      </trkpt>
      <trkpt lat="43.37065449915826320648193359375" lon="-1.79317566566169261932373046875">
        <ele>23.3999996185302734375</ele>
        <time>2020-08-23T13:59:57.000Z</time>
      </trkpt>
      <trkpt lat="43.370858766138553619384765625" lon="-1.79325319826602935791015625">
        <ele>23.799999237060546875</ele>
        <time>2020-08-23T14:00:06.000Z</time>
      </trkpt>
      <trkpt lat="43.3709045313298702239990234375" lon="-1.7932697944343090057373046875">
        <ele>23.799999237060546875</ele>
        <time>2020-08-23T14:00:08.000Z</time>
      </trkpt>
      <trkpt lat="43.37103922851383686065673828125" lon="-1.79331488907337188720703125">
        <ele>23.799999237060546875</ele>
        <time>2020-08-23T14:00:14.000Z</time>
      </trkpt>
      <trkpt lat="43.37125112302601337432861328125" lon="-1.7934013903141021728515625">
        <ele>24</ele>
        <time>2020-08-23T14:00:23.000Z</time>
      </trkpt>
      <trkpt lat="43.37148413993418216705322265625" lon="-1.79345629177987575531005859375">
        <ele>24</ele>
        <time>2020-08-23T14:00:33.000Z</time>
      </trkpt>
      <trkpt lat="43.37169771082699298858642578125" lon="-1.79350004531443119049072265625">
        <ele>23.799999237060546875</ele>
        <time>2020-08-23T14:00:41.000Z</time>
      </trkpt>
      <trkpt lat="43.3718614093959331512451171875" lon="-1.79352007806301116943359375">
        <ele>23</ele>
        <time>2020-08-23T14:00:48.000Z</time>
      </trkpt>
      <trkpt lat="43.3718805201351642608642578125" lon="-1.7935225926339626312255859375">
        <ele>23</ele>
        <time>2020-08-23T14:00:49.000Z</time>
      </trkpt>
      <trkpt lat="43.37193240411579608917236328125" lon="-1.79353826679289340972900390625">
        <ele>22.799999237060546875</ele>
        <time>2020-08-23T14:00:52.000Z</time>
      </trkpt>
      <trkpt lat="43.37193994782865047454833984375" lon="-1.79353608749806880950927734375">
        <ele>22.799999237060546875</ele>
        <time>2020-08-23T14:00:54.000Z</time>
      </trkpt>
      <trkpt lat="43.37194531224668025970458984375" lon="-1.7935266159474849700927734375">
        <ele>23.3999996185302734375</ele>
        <time>2020-08-23T14:01:01.000Z</time>
      </trkpt>
      <trkpt lat="43.37194598279893398284912109375" lon="-1.79350742138922214508056640625">
        <ele>23.3999996185302734375</ele>
        <time>2020-08-23T14:01:11.000Z</time>
      </trkpt>
      <trkpt lat="43.37193869054317474365234375" lon="-1.79348110221326351165771484375">
        <ele>23.6000003814697265625</ele>
        <time>2020-08-23T14:01:16.000Z</time>
      </trkpt>
      <trkpt lat="43.371935673058032989501953125" lon="-1.7934444732964038848876953125">
        <ele>22.6000003814697265625</ele>
        <time>2020-08-23T14:01:24.000Z</time>
      </trkpt>
      <trkpt lat="43.371933996677398681640625" lon="-1.793421842157840728759765625">
        <ele>21.799999237060546875</ele>
        <time>2020-08-23T14:01:27.000Z</time>
      </trkpt>
      <trkpt lat="43.37191463448107242584228515625" lon="-1.7933630011975765228271484375">
        <ele>21.3999996185302734375</ele>
        <time>2020-08-23T14:01:31.000Z</time>
      </trkpt>
      <trkpt lat="43.37185981683433055877685546875" lon="-1.7931950278580188751220703125">
        <ele>21</ele>
        <time>2020-08-23T14:01:41.000Z</time>
      </trkpt>
      <trkpt lat="43.3718500100076198577880859375" lon="-1.793161332607269287109375">
        <ele>21</ele>
        <time>2020-08-23T14:01:43.000Z</time>
      </trkpt>
      <trkpt lat="43.3718218468129634857177734375" lon="-1.79307692684233188629150390625">
        <ele>21</ele>
        <time>2020-08-23T14:01:49.000Z</time>
      </trkpt>
    </trkseg>
  </trk>
</gpx>
